<?xml version="1.0" encoding="UTF-8" standalone="no" ?>
<gpx xmlns="http://www.topografix.com/GPX/1/1" xmlns:xsi="http://www.w3.org/2001/XMLSchema-instance" xsi:schemaLocation="http://www.topografix.com/GPX/1/1 http://www.topografix.com/GPX/1/1/gpx.xsd" version="1.1" creator="VisuGPX - https://www.visugpx.com">
  <metadata>
    <name>Mon tour des Ecrins GR 54</name>
    <desc><![CDATA[Mon Gr 54 de gîte en refuges en 6 jours avec mon sac de randonnée de 13 kgs (trop lourd)]]></desc>
  </metadata>
  <trk>
    <name><![CDATA[GR 54 Tour de l'Oisans J1]]></name>
    <trkseg>
      <trkpt lat="45.0546" lon="6.03216">
        <ele>716.6</ele>
        <time>2024-08-09T07:20:18Z</time>
      </trkpt>
      <trkpt lat="45.05461" lon="6.03216">
        <ele>716.6</ele>
        <time>2024-08-09T07:20:19Z</time>
      </trkpt>
      <trkpt lat="45.05463" lon="6.03215">
        <ele>716.6</ele>
        <time>2024-08-09T07:20:21Z</time>
      </trkpt>
      <trkpt lat="45.05464" lon="6.03215">
        <ele>716.6</ele>
        <time>2024-08-09T07:20:23Z</time>
      </trkpt>
      <trkpt lat="45.05466" lon="6.03214">
        <ele>716.6</ele>
        <time>2024-08-09T07:20:25Z</time>
      </trkpt>
      <trkpt lat="45.05467" lon="6.03214">
        <ele>716.6</ele>
        <time>2024-08-09T07:20:26Z</time>
      </trkpt>
      <trkpt lat="45.05469" lon="6.03213">
        <ele>716.6</ele>
        <time>2024-08-09T07:20:27Z</time>
      </trkpt>
      <trkpt lat="45.05471" lon="6.03213">
        <ele>716.6</ele>
        <time>2024-08-09T07:20:28Z</time>
      </trkpt>
      <trkpt lat="45.05472" lon="6.03212">
        <ele>716.6</ele>
        <time>2024-08-09T07:20:29Z</time>
      </trkpt>
      <trkpt lat="45.05475" lon="6.03212">
        <ele>716.6</ele>
        <time>2024-08-09T07:20:30Z</time>
      </trkpt>
      <trkpt lat="45.05475" lon="6.03212">
        <ele>716.8</ele>
        <time>2024-08-09T07:20:31Z</time>
      </trkpt>
      <trkpt lat="45.05477" lon="6.03211">
        <ele>716.8</ele>
        <time>2024-08-09T07:20:32Z</time>
      </trkpt>
      <trkpt lat="45.05479" lon="6.0321">
        <ele>716.6</ele>
        <time>2024-08-09T07:20:33Z</time>
      </trkpt>
      <trkpt lat="45.05481" lon="6.0321">
        <ele>716.4</ele>
        <time>2024-08-09T07:20:34Z</time>
      </trkpt>
      <trkpt lat="45.05481" lon="6.0321">
        <ele>716.4</ele>
        <time>2024-08-09T07:20:35Z</time>
      </trkpt>
      <trkpt lat="45.05484" lon="6.03209">
        <ele>716.8</ele>
        <time>2024-08-09T07:20:36Z</time>
      </trkpt>
      <trkpt lat="45.05484" lon="6.03209">
        <ele>716.8</ele>
        <time>2024-08-09T07:20:37Z</time>
      </trkpt>
      <trkpt lat="45.05484" lon="6.03209">
        <ele>716.8</ele>
        <time>2024-08-09T07:20:38Z</time>
      </trkpt>
      <trkpt lat="45.05485" lon="6.03208">
        <ele>716.6</ele>
        <time>2024-08-09T07:20:39Z</time>
      </trkpt>
      <trkpt lat="45.05485" lon="6.03208">
        <ele>716.6</ele>
        <time>2024-08-09T07:20:40Z</time>
      </trkpt>
      <trkpt lat="45.05485" lon="6.03208">
        <ele>716.6</ele>
        <time>2024-08-09T07:20:41Z</time>
      </trkpt>
      <trkpt lat="45.05485" lon="6.03208">
        <ele>716.6</ele>
        <time>2024-08-09T07:20:42Z</time>
      </trkpt>
      <trkpt lat="45.05485" lon="6.03208">
        <ele>716.6</ele>
        <time>2024-08-09T07:20:43Z</time>
      </trkpt>
      <trkpt lat="45.05485" lon="6.03208">
        <ele>716.4</ele>
        <time>2024-08-09T07:20:44Z</time>
      </trkpt>
      <trkpt lat="45.05485" lon="6.03208">
        <ele>716.6</ele>
        <time>2024-08-09T07:20:45Z</time>
      </trkpt>
      <trkpt lat="45.05485" lon="6.03208">
        <ele>716.6</ele>
        <time>2024-08-09T07:20:46Z</time>
      </trkpt>
      <trkpt lat="45.05485" lon="6.03208">
        <ele>716.6</ele>
        <time>2024-08-09T07:20:47Z</time>
      </trkpt>
      <trkpt lat="45.05485" lon="6.03208">
        <ele>716.4</ele>
        <time>2024-08-09T07:20:48Z</time>
      </trkpt>
      <trkpt lat="45.05485" lon="6.03208">
        <ele>716.4</ele>
        <time>2024-08-09T07:20:49Z</time>
      </trkpt>
      <trkpt lat="45.05485" lon="6.03208">
        <ele>716.4</ele>
        <time>2024-08-09T07:20:50Z</time>
      </trkpt>
      <trkpt lat="45.05485" lon="6.03208">
        <ele>716.6</ele>
        <time>2024-08-09T07:20:51Z</time>
      </trkpt>
      <trkpt lat="45.05485" lon="6.03208">
        <ele>716.6</ele>
        <time>2024-08-09T07:20:52Z</time>
      </trkpt>
      <trkpt lat="45.05485" lon="6.03208">
        <ele>716.6</ele>
        <time>2024-08-09T07:20:53Z</time>
      </trkpt>
      <trkpt lat="45.05485" lon="6.03208">
        <ele>716.6</ele>
        <time>2024-08-09T07:20:54Z</time>
      </trkpt>
      <trkpt lat="45.05485" lon="6.03208">
        <ele>716.6</ele>
        <time>2024-08-09T07:20:55Z</time>
      </trkpt>
      <trkpt lat="45.05485" lon="6.03208">
        <ele>716.6</ele>
        <time>2024-08-09T07:20:56Z</time>
      </trkpt>
      <trkpt lat="45.05485" lon="6.03208">
        <ele>716.6</ele>
        <time>2024-08-09T07:20:57Z</time>
      </trkpt>
      <trkpt lat="45.05485" lon="6.03208">
        <ele>716.6</ele>
        <time>2024-08-09T07:20:58Z</time>
      </trkpt>
      <trkpt lat="45.05485" lon="6.03208">
        <ele>716.6</ele>
        <time>2024-08-09T07:20:59Z</time>
      </trkpt>
      <trkpt lat="45.05485" lon="6.03208">
        <ele>716.4</ele>
        <time>2024-08-09T07:21:00Z</time>
      </trkpt>
      <trkpt lat="45.05485" lon="6.03208">
        <ele>716.4</ele>
        <time>2024-08-09T07:21:01Z</time>
      </trkpt>
      <trkpt lat="45.05485" lon="6.03208">
        <ele>716.4</ele>
        <time>2024-08-09T07:21:03Z</time>
      </trkpt>
      <trkpt lat="45.05485" lon="6.03208">
        <ele>716.6</ele>
        <time>2024-08-09T07:21:04Z</time>
      </trkpt>
      <trkpt lat="45.05485" lon="6.03208">
        <ele>716.6</ele>
        <time>2024-08-09T07:21:05Z</time>
      </trkpt>
      <trkpt lat="45.05485" lon="6.03208">
        <ele>716.6</ele>
        <time>2024-08-09T07:21:06Z</time>
      </trkpt>
      <trkpt lat="45.05485" lon="6.03208">
        <ele>716.4</ele>
        <time>2024-08-09T07:21:07Z</time>
      </trkpt>
      <trkpt lat="45.05485" lon="6.03208">
        <ele>716.6</ele>
        <time>2024-08-09T07:21:08Z</time>
      </trkpt>
      <trkpt lat="45.05485" lon="6.03208">
        <ele>716.6</ele>
        <time>2024-08-09T07:21:09Z</time>
      </trkpt>
      <trkpt lat="45.05485" lon="6.03208">
        <ele>716.6</ele>
        <time>2024-08-09T07:21:10Z</time>
      </trkpt>
      <trkpt lat="45.05485" lon="6.03208">
        <ele>716.4</ele>
        <time>2024-08-09T07:21:11Z</time>
      </trkpt>
      <trkpt lat="45.05485" lon="6.03208">
        <ele>716.4</ele>
        <time>2024-08-09T07:21:12Z</time>
      </trkpt>
      <trkpt lat="45.05485" lon="6.03208">
        <ele>716.6</ele>
        <time>2024-08-09T07:21:13Z</time>
      </trkpt>
      <trkpt lat="45.05485" lon="6.03208">
        <ele>716.6</ele>
        <time>2024-08-09T07:21:14Z</time>
      </trkpt>
      <trkpt lat="45.05485" lon="6.03208">
        <ele>716.4</ele>
        <time>2024-08-09T07:21:15Z</time>
      </trkpt>
      <trkpt lat="45.05485" lon="6.03208">
        <ele>716.4</ele>
        <time>2024-08-09T07:21:16Z</time>
      </trkpt>
      <trkpt lat="45.05485" lon="6.03208">
        <ele>716.6</ele>
        <time>2024-08-09T07:21:17Z</time>
      </trkpt>
      <trkpt lat="45.05485" lon="6.03208">
        <ele>716.6</ele>
        <time>2024-08-09T07:21:18Z</time>
      </trkpt>
      <trkpt lat="45.05485" lon="6.03208">
        <ele>716.6</ele>
        <time>2024-08-09T07:21:19Z</time>
      </trkpt>
      <trkpt lat="45.05485" lon="6.03208">
        <ele>716.4</ele>
        <time>2024-08-09T07:21:20Z</time>
      </trkpt>
      <trkpt lat="45.05485" lon="6.03208">
        <ele>716.4</ele>
        <time>2024-08-09T07:21:21Z</time>
      </trkpt>
      <trkpt lat="45.05485" lon="6.03208">
        <ele>716.4</ele>
        <time>2024-08-09T07:21:22Z</time>
      </trkpt>
      <trkpt lat="45.05489" lon="6.0321">
        <ele>716.4</ele>
        <time>2024-08-09T07:21:23Z</time>
      </trkpt>
      <trkpt lat="45.05489" lon="6.0321">
        <ele>716.4</ele>
        <time>2024-08-09T07:21:24Z</time>
      </trkpt>
      <trkpt lat="45.05489" lon="6.0321">
        <ele>716.4</ele>
        <time>2024-08-09T07:21:25Z</time>
      </trkpt>
      <trkpt lat="45.05489" lon="6.0321">
        <ele>716.4</ele>
        <time>2024-08-09T07:21:26Z</time>
      </trkpt>
      <trkpt lat="45.05493" lon="6.03209">
        <ele>716.4</ele>
        <time>2024-08-09T07:21:27Z</time>
      </trkpt>
      <trkpt lat="45.05493" lon="6.03209">
        <ele>716.4</ele>
        <time>2024-08-09T07:21:28Z</time>
      </trkpt>
      <trkpt lat="45.05493" lon="6.03209">
        <ele>716.4</ele>
        <time>2024-08-09T07:21:29Z</time>
      </trkpt>
      <trkpt lat="45.05497" lon="6.03209">
        <ele>716.4</ele>
        <time>2024-08-09T07:21:30Z</time>
      </trkpt>
      <trkpt lat="45.05497" lon="6.03209">
        <ele>716.6</ele>
        <time>2024-08-09T07:21:31Z</time>
      </trkpt>
      <trkpt lat="45.05497" lon="6.03209">
        <ele>716.6</ele>
        <time>2024-08-09T07:21:32Z</time>
      </trkpt>
      <trkpt lat="45.05497" lon="6.03209">
        <ele>716.4</ele>
        <time>2024-08-09T07:21:33Z</time>
      </trkpt>
      <trkpt lat="45.05499" lon="6.03208">
        <ele>716</ele>
        <time>2024-08-09T07:21:34Z</time>
      </trkpt>
      <trkpt lat="45.05499" lon="6.03208">
        <ele>716</ele>
        <time>2024-08-09T07:21:35Z</time>
      </trkpt>
      <trkpt lat="45.05502" lon="6.03208">
        <ele>716</ele>
        <time>2024-08-09T07:21:36Z</time>
      </trkpt>
      <trkpt lat="45.05504" lon="6.03208">
        <ele>716.2</ele>
        <time>2024-08-09T07:21:37Z</time>
      </trkpt>
      <trkpt lat="45.05504" lon="6.03208">
        <ele>716.2</ele>
        <time>2024-08-09T07:21:38Z</time>
      </trkpt>
      <trkpt lat="45.05508" lon="6.03206">
        <ele>716</ele>
        <time>2024-08-09T07:21:39Z</time>
      </trkpt>
      <trkpt lat="45.05508" lon="6.03206">
        <ele>716</ele>
        <time>2024-08-09T07:21:40Z</time>
      </trkpt>
      <trkpt lat="45.0551" lon="6.03203">
        <ele>716</ele>
        <time>2024-08-09T07:21:41Z</time>
      </trkpt>
      <trkpt lat="45.0551" lon="6.03203">
        <ele>716.2</ele>
        <time>2024-08-09T07:21:42Z</time>
      </trkpt>
      <trkpt lat="45.05507" lon="6.03201">
        <ele>716.2</ele>
        <time>2024-08-09T07:21:43Z</time>
      </trkpt>
      <trkpt lat="45.05507" lon="6.03201">
        <ele>716.2</ele>
        <time>2024-08-09T07:21:44Z</time>
      </trkpt>
      <trkpt lat="45.05507" lon="6.03201">
        <ele>716</ele>
        <time>2024-08-09T07:21:45Z</time>
      </trkpt>
      <trkpt lat="45.05507" lon="6.03198">
        <ele>716</ele>
        <time>2024-08-09T07:21:46Z</time>
      </trkpt>
      <trkpt lat="45.05507" lon="6.03198">
        <ele>716.2</ele>
        <time>2024-08-09T07:21:47Z</time>
      </trkpt>
      <trkpt lat="45.05506" lon="6.03196">
        <ele>716.2</ele>
        <time>2024-08-09T07:21:48Z</time>
      </trkpt>
      <trkpt lat="45.05504" lon="6.03195">
        <ele>716.2</ele>
        <time>2024-08-09T07:21:49Z</time>
      </trkpt>
      <trkpt lat="45.05504" lon="6.03195">
        <ele>716.4</ele>
        <time>2024-08-09T07:21:50Z</time>
      </trkpt>
      <trkpt lat="45.05502" lon="6.03193">
        <ele>716.4</ele>
        <time>2024-08-09T07:21:51Z</time>
      </trkpt>
      <trkpt lat="45.05502" lon="6.03193">
        <ele>716.4</ele>
        <time>2024-08-09T07:21:52Z</time>
      </trkpt>
      <trkpt lat="45.05502" lon="6.03193">
        <ele>716.4</ele>
        <time>2024-08-09T07:21:53Z</time>
      </trkpt>
      <trkpt lat="45.05503" lon="6.0319">
        <ele>716.4</ele>
        <time>2024-08-09T07:21:54Z</time>
      </trkpt>
      <trkpt lat="45.05503" lon="6.0319">
        <ele>716.6</ele>
        <time>2024-08-09T07:21:55Z</time>
      </trkpt>
      <trkpt lat="45.05503" lon="6.0319">
        <ele>716.8</ele>
        <time>2024-08-09T07:21:56Z</time>
      </trkpt>
      <trkpt lat="45.05503" lon="6.0319">
        <ele>716.8</ele>
        <time>2024-08-09T07:21:57Z</time>
      </trkpt>
      <trkpt lat="45.05503" lon="6.0319">
        <ele>716.8</ele>
        <time>2024-08-09T07:21:58Z</time>
      </trkpt>
      <trkpt lat="45.05503" lon="6.0319">
        <ele>716.8</ele>
        <time>2024-08-09T07:21:59Z</time>
      </trkpt>
      <trkpt lat="45.05503" lon="6.0319">
        <ele>716.4</ele>
        <time>2024-08-09T07:22:00Z</time>
      </trkpt>
      <trkpt lat="45.05503" lon="6.0319">
        <ele>716.4</ele>
        <time>2024-08-09T07:22:01Z</time>
      </trkpt>
      <trkpt lat="45.05503" lon="6.0319">
        <ele>716.4</ele>
        <time>2024-08-09T07:22:02Z</time>
      </trkpt>
      <trkpt lat="45.05503" lon="6.0319">
        <ele>716.4</ele>
        <time>2024-08-09T07:22:03Z</time>
      </trkpt>
      <trkpt lat="45.05503" lon="6.0319">
        <ele>716.4</ele>
        <time>2024-08-09T07:22:04Z</time>
      </trkpt>
      <trkpt lat="45.05503" lon="6.0319">
        <ele>716.4</ele>
        <time>2024-08-09T07:22:05Z</time>
      </trkpt>
      <trkpt lat="45.05503" lon="6.0319">
        <ele>716.4</ele>
        <time>2024-08-09T07:22:06Z</time>
      </trkpt>
      <trkpt lat="45.05503" lon="6.0319">
        <ele>716.4</ele>
        <time>2024-08-09T07:22:07Z</time>
      </trkpt>
      <trkpt lat="45.05503" lon="6.0319">
        <ele>716.4</ele>
        <time>2024-08-09T07:22:08Z</time>
      </trkpt>
      <trkpt lat="45.05503" lon="6.0319">
        <ele>716.4</ele>
        <time>2024-08-09T07:22:09Z</time>
      </trkpt>
      <trkpt lat="45.05503" lon="6.0319">
        <ele>716.4</ele>
        <time>2024-08-09T07:22:10Z</time>
      </trkpt>
      <trkpt lat="45.05503" lon="6.0319">
        <ele>716.4</ele>
        <time>2024-08-09T07:22:11Z</time>
      </trkpt>
      <trkpt lat="45.05503" lon="6.0319">
        <ele>716.4</ele>
        <time>2024-08-09T07:22:12Z</time>
      </trkpt>
      <trkpt lat="45.05503" lon="6.0319">
        <ele>716.4</ele>
        <time>2024-08-09T07:22:13Z</time>
      </trkpt>
      <trkpt lat="45.05503" lon="6.0319">
        <ele>716.4</ele>
        <time>2024-08-09T07:22:14Z</time>
      </trkpt>
      <trkpt lat="45.05503" lon="6.0319">
        <ele>716.4</ele>
        <time>2024-08-09T07:22:15Z</time>
      </trkpt>
      <trkpt lat="45.05503" lon="6.0319">
        <ele>716.4</ele>
        <time>2024-08-09T07:22:16Z</time>
      </trkpt>
      <trkpt lat="45.05503" lon="6.0319">
        <ele>716.4</ele>
        <time>2024-08-09T07:22:17Z</time>
      </trkpt>
      <trkpt lat="45.05503" lon="6.0319">
        <ele>716.4</ele>
        <time>2024-08-09T07:22:18Z</time>
      </trkpt>
      <trkpt lat="45.05503" lon="6.0319">
        <ele>716.4</ele>
        <time>2024-08-09T07:22:19Z</time>
      </trkpt>
      <trkpt lat="45.05503" lon="6.0319">
        <ele>716.4</ele>
        <time>2024-08-09T07:22:20Z</time>
      </trkpt>
      <trkpt lat="45.05503" lon="6.0319">
        <ele>716.4</ele>
        <time>2024-08-09T07:22:21Z</time>
      </trkpt>
      <trkpt lat="45.05503" lon="6.0319">
        <ele>716.4</ele>
        <time>2024-08-09T07:22:22Z</time>
      </trkpt>
      <trkpt lat="45.05503" lon="6.0319">
        <ele>716.4</ele>
        <time>2024-08-09T07:22:23Z</time>
      </trkpt>
      <trkpt lat="45.05503" lon="6.0319">
        <ele>716.6</ele>
        <time>2024-08-09T07:22:24Z</time>
      </trkpt>
      <trkpt lat="45.05503" lon="6.0319">
        <ele>716.6</ele>
        <time>2024-08-09T07:22:25Z</time>
      </trkpt>
      <trkpt lat="45.05503" lon="6.0319">
        <ele>716.4</ele>
        <time>2024-08-09T07:22:26Z</time>
      </trkpt>
      <trkpt lat="45.05503" lon="6.0319">
        <ele>716.4</ele>
        <time>2024-08-09T07:22:27Z</time>
      </trkpt>
      <trkpt lat="45.05503" lon="6.0319">
        <ele>716.4</ele>
        <time>2024-08-09T07:22:28Z</time>
      </trkpt>
      <trkpt lat="45.05503" lon="6.0319">
        <ele>716.4</ele>
        <time>2024-08-09T07:22:29Z</time>
      </trkpt>
      <trkpt lat="45.05503" lon="6.0319">
        <ele>716.4</ele>
        <time>2024-08-09T07:22:30Z</time>
      </trkpt>
      <trkpt lat="45.05503" lon="6.0319">
        <ele>716.4</ele>
        <time>2024-08-09T07:22:31Z</time>
      </trkpt>
      <trkpt lat="45.05503" lon="6.0319">
        <ele>716.4</ele>
        <time>2024-08-09T07:22:32Z</time>
      </trkpt>
      <trkpt lat="45.05503" lon="6.0319">
        <ele>716.4</ele>
        <time>2024-08-09T07:22:33Z</time>
      </trkpt>
      <trkpt lat="45.05503" lon="6.0319">
        <ele>716.4</ele>
        <time>2024-08-09T07:22:34Z</time>
      </trkpt>
      <trkpt lat="45.05503" lon="6.0319">
        <ele>716.4</ele>
        <time>2024-08-09T07:22:35Z</time>
      </trkpt>
      <trkpt lat="45.05503" lon="6.0319">
        <ele>716.4</ele>
        <time>2024-08-09T07:22:36Z</time>
      </trkpt>
      <trkpt lat="45.05503" lon="6.0319">
        <ele>716.6</ele>
        <time>2024-08-09T07:22:37Z</time>
      </trkpt>
      <trkpt lat="45.05503" lon="6.0319">
        <ele>716.6</ele>
        <time>2024-08-09T07:22:38Z</time>
      </trkpt>
      <trkpt lat="45.05503" lon="6.0319">
        <ele>716.4</ele>
        <time>2024-08-09T07:22:39Z</time>
      </trkpt>
      <trkpt lat="45.05503" lon="6.0319">
        <ele>716.4</ele>
        <time>2024-08-09T07:22:40Z</time>
      </trkpt>
      <trkpt lat="45.05503" lon="6.0319">
        <ele>716.4</ele>
        <time>2024-08-09T07:22:41Z</time>
      </trkpt>
      <trkpt lat="45.05503" lon="6.0319">
        <ele>716.4</ele>
        <time>2024-08-09T07:22:42Z</time>
      </trkpt>
      <trkpt lat="45.05503" lon="6.0319">
        <ele>716.6</ele>
        <time>2024-08-09T07:22:43Z</time>
      </trkpt>
      <trkpt lat="45.05503" lon="6.0319">
        <ele>716.6</ele>
        <time>2024-08-09T07:22:44Z</time>
      </trkpt>
      <trkpt lat="45.05503" lon="6.0319">
        <ele>716.6</ele>
        <time>2024-08-09T07:22:45Z</time>
      </trkpt>
      <trkpt lat="45.05503" lon="6.0319">
        <ele>716.4</ele>
        <time>2024-08-09T07:22:46Z</time>
      </trkpt>
      <trkpt lat="45.05503" lon="6.0319">
        <ele>716.4</ele>
        <time>2024-08-09T07:22:47Z</time>
      </trkpt>
      <trkpt lat="45.05503" lon="6.0319">
        <ele>716.4</ele>
        <time>2024-08-09T07:22:48Z</time>
      </trkpt>
      <trkpt lat="45.05503" lon="6.0319">
        <ele>716.4</ele>
        <time>2024-08-09T07:22:49Z</time>
      </trkpt>
      <trkpt lat="45.05503" lon="6.0319">
        <ele>716.4</ele>
        <time>2024-08-09T07:22:50Z</time>
      </trkpt>
      <trkpt lat="45.05503" lon="6.0319">
        <ele>716.4</ele>
        <time>2024-08-09T07:22:51Z</time>
      </trkpt>
      <trkpt lat="45.05503" lon="6.0319">
        <ele>716.4</ele>
        <time>2024-08-09T07:22:52Z</time>
      </trkpt>
      <trkpt lat="45.05503" lon="6.0319">
        <ele>716.4</ele>
        <time>2024-08-09T07:22:53Z</time>
      </trkpt>
      <trkpt lat="45.05506" lon="6.0319">
        <ele>716.4</ele>
        <time>2024-08-09T07:22:54Z</time>
      </trkpt>
      <trkpt lat="45.05506" lon="6.0319">
        <ele>716.4</ele>
        <time>2024-08-09T07:22:55Z</time>
      </trkpt>
      <trkpt lat="45.05507" lon="6.03186">
        <ele>716.4</ele>
        <time>2024-08-09T07:22:56Z</time>
      </trkpt>
      <trkpt lat="45.05507" lon="6.03186">
        <ele>716.4</ele>
        <time>2024-08-09T07:22:57Z</time>
      </trkpt>
      <trkpt lat="45.05507" lon="6.03181">
        <ele>716.2</ele>
        <time>2024-08-09T07:22:58Z</time>
      </trkpt>
      <trkpt lat="45.05507" lon="6.03181">
        <ele>716.2</ele>
        <time>2024-08-09T07:22:59Z</time>
      </trkpt>
      <trkpt lat="45.05506" lon="6.03177">
        <ele>716.4</ele>
        <time>2024-08-09T07:23:00Z</time>
      </trkpt>
      <trkpt lat="45.05506" lon="6.03177">
        <ele>716.4</ele>
        <time>2024-08-09T07:23:01Z</time>
      </trkpt>
      <trkpt lat="45.05505" lon="6.03174">
        <ele>716.4</ele>
        <time>2024-08-09T07:23:02Z</time>
      </trkpt>
      <trkpt lat="45.05505" lon="6.03174">
        <ele>716.4</ele>
        <time>2024-08-09T07:23:03Z</time>
      </trkpt>
      <trkpt lat="45.05505" lon="6.03174">
        <ele>716.4</ele>
        <time>2024-08-09T07:23:04Z</time>
      </trkpt>
      <trkpt lat="45.05505" lon="6.03174">
        <ele>716.4</ele>
        <time>2024-08-09T07:23:05Z</time>
      </trkpt>
      <trkpt lat="45.05505" lon="6.03174">
        <ele>716.4</ele>
        <time>2024-08-09T07:23:06Z</time>
      </trkpt>
      <trkpt lat="45.05505" lon="6.03174">
        <ele>716.4</ele>
        <time>2024-08-09T07:23:07Z</time>
      </trkpt>
      <trkpt lat="45.05505" lon="6.03174">
        <ele>716.4</ele>
        <time>2024-08-09T07:23:08Z</time>
      </trkpt>
      <trkpt lat="45.05502" lon="6.03173">
        <ele>716.4</ele>
        <time>2024-08-09T07:23:09Z</time>
      </trkpt>
      <trkpt lat="45.05502" lon="6.03173">
        <ele>716.4</ele>
        <time>2024-08-09T07:23:10Z</time>
      </trkpt>
      <trkpt lat="45.05501" lon="6.03174">
        <ele>716.4</ele>
        <time>2024-08-09T07:23:11Z</time>
      </trkpt>
      <trkpt lat="45.05501" lon="6.03174">
        <ele>716.4</ele>
        <time>2024-08-09T07:23:12Z</time>
      </trkpt>
      <trkpt lat="45.05499" lon="6.03176">
        <ele>716.4</ele>
        <time>2024-08-09T07:23:13Z</time>
      </trkpt>
      <trkpt lat="45.05499" lon="6.03176">
        <ele>716.4</ele>
        <time>2024-08-09T07:23:14Z</time>
      </trkpt>
      <trkpt lat="45.05497" lon="6.03179">
        <ele>716.4</ele>
        <time>2024-08-09T07:23:15Z</time>
      </trkpt>
      <trkpt lat="45.05497" lon="6.03179">
        <ele>716.4</ele>
        <time>2024-08-09T07:23:16Z</time>
      </trkpt>
      <trkpt lat="45.05497" lon="6.03183">
        <ele>716.4</ele>
        <time>2024-08-09T07:23:17Z</time>
      </trkpt>
      <trkpt lat="45.05497" lon="6.03183">
        <ele>716.4</ele>
        <time>2024-08-09T07:23:18Z</time>
      </trkpt>
      <trkpt lat="45.05497" lon="6.03186">
        <ele>716.4</ele>
        <time>2024-08-09T07:23:19Z</time>
      </trkpt>
      <trkpt lat="45.055" lon="6.03187">
        <ele>716.4</ele>
        <time>2024-08-09T07:23:20Z</time>
      </trkpt>
      <trkpt lat="45.055" lon="6.03187">
        <ele>716.4</ele>
        <time>2024-08-09T07:23:21Z</time>
      </trkpt>
      <trkpt lat="45.055" lon="6.0319">
        <ele>716.2</ele>
        <time>2024-08-09T07:23:22Z</time>
      </trkpt>
      <trkpt lat="45.055" lon="6.0319">
        <ele>716</ele>
        <time>2024-08-09T07:23:23Z</time>
      </trkpt>
      <trkpt lat="45.05499" lon="6.03195">
        <ele>716</ele>
        <time>2024-08-09T07:23:24Z</time>
      </trkpt>
      <trkpt lat="45.05498" lon="6.03197">
        <ele>716</ele>
        <time>2024-08-09T07:23:25Z</time>
      </trkpt>
      <trkpt lat="45.05498" lon="6.03197">
        <ele>715.8</ele>
        <time>2024-08-09T07:23:26Z</time>
      </trkpt>
      <trkpt lat="45.05497" lon="6.03201">
        <ele>715.8</ele>
        <time>2024-08-09T07:23:27Z</time>
      </trkpt>
      <trkpt lat="45.05497" lon="6.03201">
        <ele>716</ele>
        <time>2024-08-09T07:23:28Z</time>
      </trkpt>
      <trkpt lat="45.05496" lon="6.03204">
        <ele>716</ele>
        <time>2024-08-09T07:23:29Z</time>
      </trkpt>
      <trkpt lat="45.05496" lon="6.03204">
        <ele>716</ele>
        <time>2024-08-09T07:23:30Z</time>
      </trkpt>
      <trkpt lat="45.05495" lon="6.03207">
        <ele>716</ele>
        <time>2024-08-09T07:23:31Z</time>
      </trkpt>
      <trkpt lat="45.05495" lon="6.03207">
        <ele>716</ele>
        <time>2024-08-09T07:23:32Z</time>
      </trkpt>
      <trkpt lat="45.05495" lon="6.03211">
        <ele>716</ele>
        <time>2024-08-09T07:23:33Z</time>
      </trkpt>
      <trkpt lat="45.05495" lon="6.03211">
        <ele>716</ele>
        <time>2024-08-09T07:23:34Z</time>
      </trkpt>
      <trkpt lat="45.05495" lon="6.03215">
        <ele>716</ele>
        <time>2024-08-09T07:23:35Z</time>
      </trkpt>
      <trkpt lat="45.05495" lon="6.03215">
        <ele>716</ele>
        <time>2024-08-09T07:23:36Z</time>
      </trkpt>
      <trkpt lat="45.05495" lon="6.03219">
        <ele>715.8</ele>
        <time>2024-08-09T07:23:37Z</time>
      </trkpt>
      <trkpt lat="45.05495" lon="6.03219">
        <ele>715.8</ele>
        <time>2024-08-09T07:23:38Z</time>
      </trkpt>
      <trkpt lat="45.05496" lon="6.03223">
        <ele>715.8</ele>
        <time>2024-08-09T07:23:39Z</time>
      </trkpt>
      <trkpt lat="45.05496" lon="6.03223">
        <ele>715.8</ele>
        <time>2024-08-09T07:23:40Z</time>
      </trkpt>
      <trkpt lat="45.05498" lon="6.03227">
        <ele>715.8</ele>
        <time>2024-08-09T07:23:41Z</time>
      </trkpt>
      <trkpt lat="45.05498" lon="6.03227">
        <ele>715.6</ele>
        <time>2024-08-09T07:23:42Z</time>
      </trkpt>
      <trkpt lat="45.05499" lon="6.0323">
        <ele>715.6</ele>
        <time>2024-08-09T07:23:43Z</time>
      </trkpt>
      <trkpt lat="45.05499" lon="6.0323">
        <ele>715.6</ele>
        <time>2024-08-09T07:23:44Z</time>
      </trkpt>
      <trkpt lat="45.055" lon="6.03234">
        <ele>715.6</ele>
        <time>2024-08-09T07:23:45Z</time>
      </trkpt>
      <trkpt lat="45.055" lon="6.03234">
        <ele>715.8</ele>
        <time>2024-08-09T07:23:46Z</time>
      </trkpt>
      <trkpt lat="45.05501" lon="6.03237">
        <ele>715.8</ele>
        <time>2024-08-09T07:23:47Z</time>
      </trkpt>
      <trkpt lat="45.05501" lon="6.03237">
        <ele>715.6</ele>
        <time>2024-08-09T07:23:48Z</time>
      </trkpt>
      <trkpt lat="45.05502" lon="6.0324">
        <ele>715.6</ele>
        <time>2024-08-09T07:23:49Z</time>
      </trkpt>
      <trkpt lat="45.05502" lon="6.0324">
        <ele>715.4</ele>
        <time>2024-08-09T07:23:50Z</time>
      </trkpt>
      <trkpt lat="45.05505" lon="6.03243">
        <ele>715.4</ele>
        <time>2024-08-09T07:23:51Z</time>
      </trkpt>
      <trkpt lat="45.05505" lon="6.03243">
        <ele>715.4</ele>
        <time>2024-08-09T07:23:52Z</time>
      </trkpt>
      <trkpt lat="45.05507" lon="6.03246">
        <ele>715.4</ele>
        <time>2024-08-09T07:23:53Z</time>
      </trkpt>
      <trkpt lat="45.05507" lon="6.03246">
        <ele>715.4</ele>
        <time>2024-08-09T07:23:54Z</time>
      </trkpt>
      <trkpt lat="45.05508" lon="6.0325">
        <ele>715.4</ele>
        <time>2024-08-09T07:23:55Z</time>
      </trkpt>
      <trkpt lat="45.05508" lon="6.0325">
        <ele>715.4</ele>
        <time>2024-08-09T07:23:56Z</time>
      </trkpt>
      <trkpt lat="45.05509" lon="6.03252">
        <ele>715.4</ele>
        <time>2024-08-09T07:23:57Z</time>
      </trkpt>
      <trkpt lat="45.0551" lon="6.03255">
        <ele>715.4</ele>
        <time>2024-08-09T07:23:58Z</time>
      </trkpt>
      <trkpt lat="45.0551" lon="6.03258">
        <ele>715.6</ele>
        <time>2024-08-09T07:23:59Z</time>
      </trkpt>
      <trkpt lat="45.05511" lon="6.03261">
        <ele>715.4</ele>
        <time>2024-08-09T07:24:00Z</time>
      </trkpt>
      <trkpt lat="45.05511" lon="6.03261">
        <ele>715.4</ele>
        <time>2024-08-09T07:24:01Z</time>
      </trkpt>
      <trkpt lat="45.05513" lon="6.03264">
        <ele>715.4</ele>
        <time>2024-08-09T07:24:02Z</time>
      </trkpt>
      <trkpt lat="45.05513" lon="6.03264">
        <ele>715.4</ele>
        <time>2024-08-09T07:24:03Z</time>
      </trkpt>
      <trkpt lat="45.05515" lon="6.03267">
        <ele>715.4</ele>
        <time>2024-08-09T07:24:04Z</time>
      </trkpt>
      <trkpt lat="45.05517" lon="6.03268">
        <ele>715.4</ele>
        <time>2024-08-09T07:24:05Z</time>
      </trkpt>
      <trkpt lat="45.05517" lon="6.03268">
        <ele>715.4</ele>
        <time>2024-08-09T07:24:06Z</time>
      </trkpt>
      <trkpt lat="45.05519" lon="6.03272">
        <ele>715.2</ele>
        <time>2024-08-09T07:24:07Z</time>
      </trkpt>
      <trkpt lat="45.05519" lon="6.03272">
        <ele>715.2</ele>
        <time>2024-08-09T07:24:08Z</time>
      </trkpt>
      <trkpt lat="45.05521" lon="6.03275">
        <ele>715.4</ele>
        <time>2024-08-09T07:24:09Z</time>
      </trkpt>
      <trkpt lat="45.05521" lon="6.03275">
        <ele>715.4</ele>
        <time>2024-08-09T07:24:10Z</time>
      </trkpt>
      <trkpt lat="45.05524" lon="6.03278">
        <ele>715.4</ele>
        <time>2024-08-09T07:24:11Z</time>
      </trkpt>
      <trkpt lat="45.05524" lon="6.03278">
        <ele>715.4</ele>
        <time>2024-08-09T07:24:12Z</time>
      </trkpt>
      <trkpt lat="45.05525" lon="6.03281">
        <ele>715.4</ele>
        <time>2024-08-09T07:24:13Z</time>
      </trkpt>
      <trkpt lat="45.05525" lon="6.03281">
        <ele>715.2</ele>
        <time>2024-08-09T07:24:14Z</time>
      </trkpt>
      <trkpt lat="45.05527" lon="6.03283">
        <ele>715.2</ele>
        <time>2024-08-09T07:24:15Z</time>
      </trkpt>
      <trkpt lat="45.05527" lon="6.03283">
        <ele>715.2</ele>
        <time>2024-08-09T07:24:16Z</time>
      </trkpt>
      <trkpt lat="45.05529" lon="6.03286">
        <ele>715.2</ele>
        <time>2024-08-09T07:24:17Z</time>
      </trkpt>
      <trkpt lat="45.05529" lon="6.03286">
        <ele>715.2</ele>
        <time>2024-08-09T07:24:18Z</time>
      </trkpt>
      <trkpt lat="45.05531" lon="6.03289">
        <ele>715.4</ele>
        <time>2024-08-09T07:24:19Z</time>
      </trkpt>
      <trkpt lat="45.05531" lon="6.03289">
        <ele>715.4</ele>
        <time>2024-08-09T07:24:20Z</time>
      </trkpt>
      <trkpt lat="45.05533" lon="6.0329">
        <ele>715.2</ele>
        <time>2024-08-09T07:24:21Z</time>
      </trkpt>
      <trkpt lat="45.05533" lon="6.0329">
        <ele>715.2</ele>
        <time>2024-08-09T07:24:22Z</time>
      </trkpt>
      <trkpt lat="45.05535" lon="6.03293">
        <ele>715.2</ele>
        <time>2024-08-09T07:24:23Z</time>
      </trkpt>
      <trkpt lat="45.05535" lon="6.03293">
        <ele>715.2</ele>
        <time>2024-08-09T07:24:24Z</time>
      </trkpt>
      <trkpt lat="45.05537" lon="6.03295">
        <ele>715.2</ele>
        <time>2024-08-09T07:24:25Z</time>
      </trkpt>
      <trkpt lat="45.05537" lon="6.03295">
        <ele>715.2</ele>
        <time>2024-08-09T07:24:26Z</time>
      </trkpt>
      <trkpt lat="45.0554" lon="6.03296">
        <ele>715.2</ele>
        <time>2024-08-09T07:24:27Z</time>
      </trkpt>
      <trkpt lat="45.0554" lon="6.03296">
        <ele>715.2</ele>
        <time>2024-08-09T07:24:28Z</time>
      </trkpt>
      <trkpt lat="45.05541" lon="6.03299">
        <ele>715.2</ele>
        <time>2024-08-09T07:24:29Z</time>
      </trkpt>
      <trkpt lat="45.05541" lon="6.03299">
        <ele>715.2</ele>
        <time>2024-08-09T07:24:30Z</time>
      </trkpt>
      <trkpt lat="45.05544" lon="6.03302">
        <ele>715.2</ele>
        <time>2024-08-09T07:24:31Z</time>
      </trkpt>
      <trkpt lat="45.05546" lon="6.03304">
        <ele>715.4</ele>
        <time>2024-08-09T07:24:32Z</time>
      </trkpt>
      <trkpt lat="45.05547" lon="6.03306">
        <ele>715.4</ele>
        <time>2024-08-09T07:24:33Z</time>
      </trkpt>
      <trkpt lat="45.05547" lon="6.03306">
        <ele>715.4</ele>
        <time>2024-08-09T07:24:34Z</time>
      </trkpt>
      <trkpt lat="45.0555" lon="6.03309">
        <ele>715.4</ele>
        <time>2024-08-09T07:24:35Z</time>
      </trkpt>
      <trkpt lat="45.0555" lon="6.03309">
        <ele>715.4</ele>
        <time>2024-08-09T07:24:36Z</time>
      </trkpt>
      <trkpt lat="45.05552" lon="6.03312">
        <ele>715.4</ele>
        <time>2024-08-09T07:24:37Z</time>
      </trkpt>
      <trkpt lat="45.05552" lon="6.03312">
        <ele>715.4</ele>
        <time>2024-08-09T07:24:38Z</time>
      </trkpt>
      <trkpt lat="45.05554" lon="6.03315">
        <ele>715.4</ele>
        <time>2024-08-09T07:24:39Z</time>
      </trkpt>
      <trkpt lat="45.05555" lon="6.03317">
        <ele>715.6</ele>
        <time>2024-08-09T07:24:40Z</time>
      </trkpt>
      <trkpt lat="45.05556" lon="6.0332">
        <ele>715.6</ele>
        <time>2024-08-09T07:24:41Z</time>
      </trkpt>
      <trkpt lat="45.05556" lon="6.0332">
        <ele>715.6</ele>
        <time>2024-08-09T07:24:42Z</time>
      </trkpt>
      <trkpt lat="45.05558" lon="6.03323">
        <ele>715.6</ele>
        <time>2024-08-09T07:24:43Z</time>
      </trkpt>
      <trkpt lat="45.05558" lon="6.03323">
        <ele>715.6</ele>
        <time>2024-08-09T07:24:44Z</time>
      </trkpt>
      <trkpt lat="45.05561" lon="6.03325">
        <ele>715.6</ele>
        <time>2024-08-09T07:24:45Z</time>
      </trkpt>
      <trkpt lat="45.05561" lon="6.03325">
        <ele>715.4</ele>
        <time>2024-08-09T07:24:46Z</time>
      </trkpt>
      <trkpt lat="45.05563" lon="6.03329">
        <ele>715.4</ele>
        <time>2024-08-09T07:24:47Z</time>
      </trkpt>
      <trkpt lat="45.05565" lon="6.03331">
        <ele>715.4</ele>
        <time>2024-08-09T07:24:48Z</time>
      </trkpt>
      <trkpt lat="45.05566" lon="6.03333">
        <ele>715.4</ele>
        <time>2024-08-09T07:24:49Z</time>
      </trkpt>
      <trkpt lat="45.05566" lon="6.03333">
        <ele>715.4</ele>
        <time>2024-08-09T07:24:50Z</time>
      </trkpt>
      <trkpt lat="45.05568" lon="6.03336">
        <ele>716</ele>
        <time>2024-08-09T07:24:51Z</time>
      </trkpt>
      <trkpt lat="45.05568" lon="6.03336">
        <ele>716</ele>
        <time>2024-08-09T07:24:52Z</time>
      </trkpt>
      <trkpt lat="45.0557" lon="6.03339">
        <ele>715.8</ele>
        <time>2024-08-09T07:24:53Z</time>
      </trkpt>
      <trkpt lat="45.0557" lon="6.03339">
        <ele>715.6</ele>
        <time>2024-08-09T07:24:54Z</time>
      </trkpt>
      <trkpt lat="45.05572" lon="6.03342">
        <ele>715.6</ele>
        <time>2024-08-09T07:24:55Z</time>
      </trkpt>
      <trkpt lat="45.05572" lon="6.03342">
        <ele>715.6</ele>
        <time>2024-08-09T07:24:56Z</time>
      </trkpt>
      <trkpt lat="45.05574" lon="6.03344">
        <ele>715.6</ele>
        <time>2024-08-09T07:24:57Z</time>
      </trkpt>
      <trkpt lat="45.05574" lon="6.03344">
        <ele>715.6</ele>
        <time>2024-08-09T07:24:58Z</time>
      </trkpt>
      <trkpt lat="45.05576" lon="6.03347">
        <ele>715.8</ele>
        <time>2024-08-09T07:24:59Z</time>
      </trkpt>
      <trkpt lat="45.05576" lon="6.03347">
        <ele>715.8</ele>
        <time>2024-08-09T07:25:00Z</time>
      </trkpt>
      <trkpt lat="45.05579" lon="6.0335">
        <ele>715.8</ele>
        <time>2024-08-09T07:25:01Z</time>
      </trkpt>
      <trkpt lat="45.0558" lon="6.03351">
        <ele>715.8</ele>
        <time>2024-08-09T07:25:02Z</time>
      </trkpt>
      <trkpt lat="45.0558" lon="6.03351">
        <ele>715.6</ele>
        <time>2024-08-09T07:25:03Z</time>
      </trkpt>
      <trkpt lat="45.05583" lon="6.03354">
        <ele>715.6</ele>
        <time>2024-08-09T07:25:04Z</time>
      </trkpt>
      <trkpt lat="45.05584" lon="6.03355">
        <ele>715.6</ele>
        <time>2024-08-09T07:25:05Z</time>
      </trkpt>
      <trkpt lat="45.05586" lon="6.03356">
        <ele>715.8</ele>
        <time>2024-08-09T07:25:06Z</time>
      </trkpt>
      <trkpt lat="45.05586" lon="6.03356">
        <ele>715.8</ele>
        <time>2024-08-09T07:25:07Z</time>
      </trkpt>
      <trkpt lat="45.05589" lon="6.03359">
        <ele>715.8</ele>
        <time>2024-08-09T07:25:08Z</time>
      </trkpt>
      <trkpt lat="45.0559" lon="6.0336">
        <ele>715.8</ele>
        <time>2024-08-09T07:25:09Z</time>
      </trkpt>
      <trkpt lat="45.05592" lon="6.03361">
        <ele>716</ele>
        <time>2024-08-09T07:25:10Z</time>
      </trkpt>
      <trkpt lat="45.05592" lon="6.03361">
        <ele>716</ele>
        <time>2024-08-09T07:25:11Z</time>
      </trkpt>
      <trkpt lat="45.05594" lon="6.03365">
        <ele>716</ele>
        <time>2024-08-09T07:25:12Z</time>
      </trkpt>
      <trkpt lat="45.05594" lon="6.03365">
        <ele>716.2</ele>
        <time>2024-08-09T07:25:13Z</time>
      </trkpt>
      <trkpt lat="45.05596" lon="6.03368">
        <ele>716.4</ele>
        <time>2024-08-09T07:25:14Z</time>
      </trkpt>
      <trkpt lat="45.05596" lon="6.03368">
        <ele>716.4</ele>
        <time>2024-08-09T07:25:15Z</time>
      </trkpt>
      <trkpt lat="45.05599" lon="6.0337">
        <ele>716.4</ele>
        <time>2024-08-09T07:25:16Z</time>
      </trkpt>
      <trkpt lat="45.056" lon="6.03372">
        <ele>716.4</ele>
        <time>2024-08-09T07:25:17Z</time>
      </trkpt>
      <trkpt lat="45.056" lon="6.03372">
        <ele>716.4</ele>
        <time>2024-08-09T07:25:18Z</time>
      </trkpt>
      <trkpt lat="45.05602" lon="6.03374">
        <ele>716.4</ele>
        <time>2024-08-09T07:25:19Z</time>
      </trkpt>
      <trkpt lat="45.05602" lon="6.03374">
        <ele>715.8</ele>
        <time>2024-08-09T07:25:20Z</time>
      </trkpt>
      <trkpt lat="45.05604" lon="6.03376">
        <ele>715.8</ele>
        <time>2024-08-09T07:25:21Z</time>
      </trkpt>
      <trkpt lat="45.05604" lon="6.03376">
        <ele>715.8</ele>
        <time>2024-08-09T07:25:22Z</time>
      </trkpt>
      <trkpt lat="45.05607" lon="6.03379">
        <ele>715.8</ele>
        <time>2024-08-09T07:25:23Z</time>
      </trkpt>
      <trkpt lat="45.05609" lon="6.0338">
        <ele>715.8</ele>
        <time>2024-08-09T07:25:24Z</time>
      </trkpt>
      <trkpt lat="45.05611" lon="6.03382">
        <ele>715.8</ele>
        <time>2024-08-09T07:25:25Z</time>
      </trkpt>
      <trkpt lat="45.05613" lon="6.03383">
        <ele>715.8</ele>
        <time>2024-08-09T07:25:26Z</time>
      </trkpt>
      <trkpt lat="45.05614" lon="6.03384">
        <ele>715.8</ele>
        <time>2024-08-09T07:25:27Z</time>
      </trkpt>
      <trkpt lat="45.05614" lon="6.03384">
        <ele>715.6</ele>
        <time>2024-08-09T07:25:28Z</time>
      </trkpt>
      <trkpt lat="45.05616" lon="6.03387">
        <ele>715.6</ele>
        <time>2024-08-09T07:25:29Z</time>
      </trkpt>
      <trkpt lat="45.05618" lon="6.03388">
        <ele>715.8</ele>
        <time>2024-08-09T07:25:30Z</time>
      </trkpt>
      <trkpt lat="45.0562" lon="6.03389">
        <ele>715.8</ele>
        <time>2024-08-09T07:25:31Z</time>
      </trkpt>
      <trkpt lat="45.0562" lon="6.03389">
        <ele>716</ele>
        <time>2024-08-09T07:25:32Z</time>
      </trkpt>
      <trkpt lat="45.05622" lon="6.03392">
        <ele>716</ele>
        <time>2024-08-09T07:25:33Z</time>
      </trkpt>
      <trkpt lat="45.05624" lon="6.03394">
        <ele>716</ele>
        <time>2024-08-09T07:25:34Z</time>
      </trkpt>
      <trkpt lat="45.05626" lon="6.03395">
        <ele>716</ele>
        <time>2024-08-09T07:25:35Z</time>
      </trkpt>
      <trkpt lat="45.05628" lon="6.03396">
        <ele>716.2</ele>
        <time>2024-08-09T07:25:36Z</time>
      </trkpt>
      <trkpt lat="45.0563" lon="6.03398">
        <ele>716.2</ele>
        <time>2024-08-09T07:25:37Z</time>
      </trkpt>
      <trkpt lat="45.05631" lon="6.03399">
        <ele>716</ele>
        <time>2024-08-09T07:25:38Z</time>
      </trkpt>
      <trkpt lat="45.05633" lon="6.03401">
        <ele>715.8</ele>
        <time>2024-08-09T07:25:39Z</time>
      </trkpt>
      <trkpt lat="45.05633" lon="6.03401">
        <ele>715.6</ele>
        <time>2024-08-09T07:25:40Z</time>
      </trkpt>
      <trkpt lat="45.05636" lon="6.03404">
        <ele>715.6</ele>
        <time>2024-08-09T07:25:41Z</time>
      </trkpt>
      <trkpt lat="45.05636" lon="6.03404">
        <ele>715.8</ele>
        <time>2024-08-09T07:25:42Z</time>
      </trkpt>
      <trkpt lat="45.05639" lon="6.03407">
        <ele>715.8</ele>
        <time>2024-08-09T07:25:43Z</time>
      </trkpt>
      <trkpt lat="45.05639" lon="6.03407">
        <ele>715.8</ele>
        <time>2024-08-09T07:25:44Z</time>
      </trkpt>
      <trkpt lat="45.05642" lon="6.0341">
        <ele>715.8</ele>
        <time>2024-08-09T07:25:45Z</time>
      </trkpt>
      <trkpt lat="45.05643" lon="6.03411">
        <ele>715.8</ele>
        <time>2024-08-09T07:25:46Z</time>
      </trkpt>
      <trkpt lat="45.05643" lon="6.03411">
        <ele>715.8</ele>
        <time>2024-08-09T07:25:47Z</time>
      </trkpt>
      <trkpt lat="45.05645" lon="6.03413">
        <ele>715.8</ele>
        <time>2024-08-09T07:25:48Z</time>
      </trkpt>
      <trkpt lat="45.05645" lon="6.03413">
        <ele>715.6</ele>
        <time>2024-08-09T07:25:49Z</time>
      </trkpt>
      <trkpt lat="45.05645" lon="6.03413">
        <ele>715.6</ele>
        <time>2024-08-09T07:25:50Z</time>
      </trkpt>
      <trkpt lat="45.05648" lon="6.03417">
        <ele>715.8</ele>
        <time>2024-08-09T07:25:51Z</time>
      </trkpt>
      <trkpt lat="45.05649" lon="6.03419">
        <ele>715.8</ele>
        <time>2024-08-09T07:25:52Z</time>
      </trkpt>
      <trkpt lat="45.05649" lon="6.03419">
        <ele>715.8</ele>
        <time>2024-08-09T07:25:53Z</time>
      </trkpt>
      <trkpt lat="45.05652" lon="6.03421">
        <ele>716</ele>
        <time>2024-08-09T07:25:54Z</time>
      </trkpt>
      <trkpt lat="45.05652" lon="6.03421">
        <ele>716</ele>
        <time>2024-08-09T07:25:55Z</time>
      </trkpt>
      <trkpt lat="45.05654" lon="6.03424">
        <ele>715.8</ele>
        <time>2024-08-09T07:25:56Z</time>
      </trkpt>
      <trkpt lat="45.05656" lon="6.03426">
        <ele>715.6</ele>
        <time>2024-08-09T07:25:57Z</time>
      </trkpt>
      <trkpt lat="45.05656" lon="6.03426">
        <ele>715.6</ele>
        <time>2024-08-09T07:25:58Z</time>
      </trkpt>
      <trkpt lat="45.05659" lon="6.03429">
        <ele>715.6</ele>
        <time>2024-08-09T07:25:59Z</time>
      </trkpt>
      <trkpt lat="45.05659" lon="6.03429">
        <ele>716.4</ele>
        <time>2024-08-09T07:26:00Z</time>
      </trkpt>
      <trkpt lat="45.05661" lon="6.03431">
        <ele>716.4</ele>
        <time>2024-08-09T07:26:01Z</time>
      </trkpt>
      <trkpt lat="45.05663" lon="6.03433">
        <ele>716.2</ele>
        <time>2024-08-09T07:26:02Z</time>
      </trkpt>
      <trkpt lat="45.05663" lon="6.03433">
        <ele>716</ele>
        <time>2024-08-09T07:26:03Z</time>
      </trkpt>
      <trkpt lat="45.05666" lon="6.03435">
        <ele>716</ele>
        <time>2024-08-09T07:26:04Z</time>
      </trkpt>
      <trkpt lat="45.05666" lon="6.03435">
        <ele>716</ele>
        <time>2024-08-09T07:26:05Z</time>
      </trkpt>
      <trkpt lat="45.05669" lon="6.03438">
        <ele>716</ele>
        <time>2024-08-09T07:26:06Z</time>
      </trkpt>
      <trkpt lat="45.05669" lon="6.03438">
        <ele>716</ele>
        <time>2024-08-09T07:26:07Z</time>
      </trkpt>
      <trkpt lat="45.0567" lon="6.0344">
        <ele>716</ele>
        <time>2024-08-09T07:26:08Z</time>
      </trkpt>
      <trkpt lat="45.0567" lon="6.0344">
        <ele>716.2</ele>
        <time>2024-08-09T07:26:09Z</time>
      </trkpt>
      <trkpt lat="45.05672" lon="6.03442">
        <ele>716.4</ele>
        <time>2024-08-09T07:26:10Z</time>
      </trkpt>
      <trkpt lat="45.05672" lon="6.03442">
        <ele>716.4</ele>
        <time>2024-08-09T07:26:11Z</time>
      </trkpt>
      <trkpt lat="45.05674" lon="6.03444">
        <ele>716.4</ele>
        <time>2024-08-09T07:26:12Z</time>
      </trkpt>
      <trkpt lat="45.05674" lon="6.03444">
        <ele>716.2</ele>
        <time>2024-08-09T07:26:13Z</time>
      </trkpt>
      <trkpt lat="45.05676" lon="6.03446">
        <ele>716.2</ele>
        <time>2024-08-09T07:26:14Z</time>
      </trkpt>
      <trkpt lat="45.05676" lon="6.03446">
        <ele>716.2</ele>
        <time>2024-08-09T07:26:15Z</time>
      </trkpt>
      <trkpt lat="45.05678" lon="6.03449">
        <ele>716.2</ele>
        <time>2024-08-09T07:26:16Z</time>
      </trkpt>
      <trkpt lat="45.0568" lon="6.0345">
        <ele>716.4</ele>
        <time>2024-08-09T07:26:17Z</time>
      </trkpt>
      <trkpt lat="45.0568" lon="6.0345">
        <ele>716.4</ele>
        <time>2024-08-09T07:26:18Z</time>
      </trkpt>
      <trkpt lat="45.05682" lon="6.03453">
        <ele>716.4</ele>
        <time>2024-08-09T07:26:19Z</time>
      </trkpt>
      <trkpt lat="45.05682" lon="6.03453">
        <ele>716.4</ele>
        <time>2024-08-09T07:26:20Z</time>
      </trkpt>
      <trkpt lat="45.05685" lon="6.03456">
        <ele>716.2</ele>
        <time>2024-08-09T07:26:21Z</time>
      </trkpt>
      <trkpt lat="45.05686" lon="6.03458">
        <ele>716.2</ele>
        <time>2024-08-09T07:26:22Z</time>
      </trkpt>
      <trkpt lat="45.05686" lon="6.03458">
        <ele>716.4</ele>
        <time>2024-08-09T07:26:23Z</time>
      </trkpt>
      <trkpt lat="45.05689" lon="6.0346">
        <ele>716.4</ele>
        <time>2024-08-09T07:26:24Z</time>
      </trkpt>
      <trkpt lat="45.05689" lon="6.0346">
        <ele>716.4</ele>
        <time>2024-08-09T07:26:25Z</time>
      </trkpt>
      <trkpt lat="45.05691" lon="6.03463">
        <ele>716.2</ele>
        <time>2024-08-09T07:26:26Z</time>
      </trkpt>
      <trkpt lat="45.05691" lon="6.03463">
        <ele>716.2</ele>
        <time>2024-08-09T07:26:27Z</time>
      </trkpt>
      <trkpt lat="45.05693" lon="6.03466">
        <ele>716.4</ele>
        <time>2024-08-09T07:26:28Z</time>
      </trkpt>
      <trkpt lat="45.05695" lon="6.03467">
        <ele>716.4</ele>
        <time>2024-08-09T07:26:29Z</time>
      </trkpt>
      <trkpt lat="45.05697" lon="6.03469">
        <ele>716.4</ele>
        <time>2024-08-09T07:26:30Z</time>
      </trkpt>
      <trkpt lat="45.05697" lon="6.03469">
        <ele>716.4</ele>
        <time>2024-08-09T07:26:31Z</time>
      </trkpt>
      <trkpt lat="45.05699" lon="6.0347">
        <ele>716.4</ele>
        <time>2024-08-09T07:26:32Z</time>
      </trkpt>
      <trkpt lat="45.05699" lon="6.0347">
        <ele>716.4</ele>
        <time>2024-08-09T07:26:33Z</time>
      </trkpt>
      <trkpt lat="45.05701" lon="6.03471">
        <ele>716.4</ele>
        <time>2024-08-09T07:26:34Z</time>
      </trkpt>
      <trkpt lat="45.05701" lon="6.03471">
        <ele>716.4</ele>
        <time>2024-08-09T07:26:35Z</time>
      </trkpt>
      <trkpt lat="45.05705" lon="6.03473">
        <ele>716.2</ele>
        <time>2024-08-09T07:26:36Z</time>
      </trkpt>
      <trkpt lat="45.05705" lon="6.03473">
        <ele>716.2</ele>
        <time>2024-08-09T07:26:37Z</time>
      </trkpt>
      <trkpt lat="45.05707" lon="6.03474">
        <ele>716</ele>
        <time>2024-08-09T07:26:38Z</time>
      </trkpt>
      <trkpt lat="45.05707" lon="6.03474">
        <ele>716</ele>
        <time>2024-08-09T07:26:39Z</time>
      </trkpt>
      <trkpt lat="45.0571" lon="6.03476">
        <ele>716</ele>
        <time>2024-08-09T07:26:40Z</time>
      </trkpt>
      <trkpt lat="45.05714" lon="6.03478">
        <ele>716</ele>
        <time>2024-08-09T07:26:41Z</time>
      </trkpt>
      <trkpt lat="45.05714" lon="6.03478">
        <ele>716.2</ele>
        <time>2024-08-09T07:26:42Z</time>
      </trkpt>
      <trkpt lat="45.05716" lon="6.0348">
        <ele>716.2</ele>
        <time>2024-08-09T07:26:43Z</time>
      </trkpt>
      <trkpt lat="45.05716" lon="6.0348">
        <ele>716.2</ele>
        <time>2024-08-09T07:26:44Z</time>
      </trkpt>
      <trkpt lat="45.05718" lon="6.03483">
        <ele>716</ele>
        <time>2024-08-09T07:26:45Z</time>
      </trkpt>
      <trkpt lat="45.05718" lon="6.03483">
        <ele>716.2</ele>
        <time>2024-08-09T07:26:46Z</time>
      </trkpt>
      <trkpt lat="45.0572" lon="6.03485">
        <ele>716.2</ele>
        <time>2024-08-09T07:26:47Z</time>
      </trkpt>
      <trkpt lat="45.0572" lon="6.03485">
        <ele>716.2</ele>
        <time>2024-08-09T07:26:48Z</time>
      </trkpt>
      <trkpt lat="45.05722" lon="6.03487">
        <ele>716.2</ele>
        <time>2024-08-09T07:26:49Z</time>
      </trkpt>
      <trkpt lat="45.05722" lon="6.03487">
        <ele>716.2</ele>
        <time>2024-08-09T07:26:50Z</time>
      </trkpt>
      <trkpt lat="45.05723" lon="6.03489">
        <ele>716.4</ele>
        <time>2024-08-09T07:26:51Z</time>
      </trkpt>
      <trkpt lat="45.05723" lon="6.03489">
        <ele>716.4</ele>
        <time>2024-08-09T07:26:52Z</time>
      </trkpt>
      <trkpt lat="45.05723" lon="6.03489">
        <ele>716.8</ele>
        <time>2024-08-09T07:26:53Z</time>
      </trkpt>
      <trkpt lat="45.05723" lon="6.03494">
        <ele>716.8</ele>
        <time>2024-08-09T07:26:54Z</time>
      </trkpt>
      <trkpt lat="45.05723" lon="6.03494">
        <ele>716.8</ele>
        <time>2024-08-09T07:26:55Z</time>
      </trkpt>
      <trkpt lat="45.05725" lon="6.03495">
        <ele>716.8</ele>
        <time>2024-08-09T07:26:56Z</time>
      </trkpt>
      <trkpt lat="45.05725" lon="6.03495">
        <ele>716.8</ele>
        <time>2024-08-09T07:26:57Z</time>
      </trkpt>
      <trkpt lat="45.05727" lon="6.03497">
        <ele>716.8</ele>
        <time>2024-08-09T07:26:58Z</time>
      </trkpt>
      <trkpt lat="45.05727" lon="6.03497">
        <ele>717</ele>
        <time>2024-08-09T07:26:59Z</time>
      </trkpt>
      <trkpt lat="45.05727" lon="6.03497">
        <ele>717</ele>
        <time>2024-08-09T07:27:00Z</time>
      </trkpt>
      <trkpt lat="45.05729" lon="6.035">
        <ele>717</ele>
        <time>2024-08-09T07:27:01Z</time>
      </trkpt>
      <trkpt lat="45.05731" lon="6.03501">
        <ele>717.2</ele>
        <time>2024-08-09T07:27:02Z</time>
      </trkpt>
      <trkpt lat="45.05733" lon="6.03502">
        <ele>717.2</ele>
        <time>2024-08-09T07:27:03Z</time>
      </trkpt>
      <trkpt lat="45.05735" lon="6.03503">
        <ele>717</ele>
        <time>2024-08-09T07:27:04Z</time>
      </trkpt>
      <trkpt lat="45.05737" lon="6.03504">
        <ele>717</ele>
        <time>2024-08-09T07:27:05Z</time>
      </trkpt>
      <trkpt lat="45.05737" lon="6.03504">
        <ele>717.2</ele>
        <time>2024-08-09T07:27:06Z</time>
      </trkpt>
      <trkpt lat="45.05739" lon="6.03507">
        <ele>717.2</ele>
        <time>2024-08-09T07:27:07Z</time>
      </trkpt>
      <trkpt lat="45.05743" lon="6.03509">
        <ele>717.2</ele>
        <time>2024-08-09T07:27:08Z</time>
      </trkpt>
      <trkpt lat="45.05745" lon="6.03512">
        <ele>717.2</ele>
        <time>2024-08-09T07:27:09Z</time>
      </trkpt>
      <trkpt lat="45.05745" lon="6.03512">
        <ele>717.4</ele>
        <time>2024-08-09T07:27:10Z</time>
      </trkpt>
      <trkpt lat="45.05747" lon="6.03515">
        <ele>717.4</ele>
        <time>2024-08-09T07:27:11Z</time>
      </trkpt>
      <trkpt lat="45.05747" lon="6.03515">
        <ele>717.6</ele>
        <time>2024-08-09T07:27:12Z</time>
      </trkpt>
      <trkpt lat="45.05749" lon="6.03519">
        <ele>717.6</ele>
        <time>2024-08-09T07:27:13Z</time>
      </trkpt>
      <trkpt lat="45.05749" lon="6.03519">
        <ele>717.8</ele>
        <time>2024-08-09T07:27:14Z</time>
      </trkpt>
      <trkpt lat="45.05751" lon="6.03521">
        <ele>717.8</ele>
        <time>2024-08-09T07:27:15Z</time>
      </trkpt>
      <trkpt lat="45.05751" lon="6.03521">
        <ele>717.8</ele>
        <time>2024-08-09T07:27:16Z</time>
      </trkpt>
      <trkpt lat="45.05752" lon="6.03525">
        <ele>717.8</ele>
        <time>2024-08-09T07:27:17Z</time>
      </trkpt>
      <trkpt lat="45.05749" lon="6.03524">
        <ele>718</ele>
        <time>2024-08-09T07:27:18Z</time>
      </trkpt>
      <trkpt lat="45.05749" lon="6.03524">
        <ele>718</ele>
        <time>2024-08-09T07:27:19Z</time>
      </trkpt>
      <trkpt lat="45.05749" lon="6.03524">
        <ele>718</ele>
        <time>2024-08-09T07:27:20Z</time>
      </trkpt>
      <trkpt lat="45.05751" lon="6.03527">
        <ele>718</ele>
        <time>2024-08-09T07:27:21Z</time>
      </trkpt>
      <trkpt lat="45.05751" lon="6.03527">
        <ele>718</ele>
        <time>2024-08-09T07:27:22Z</time>
      </trkpt>
      <trkpt lat="45.05752" lon="6.0353">
        <ele>718</ele>
        <time>2024-08-09T07:27:23Z</time>
      </trkpt>
      <trkpt lat="45.05752" lon="6.0353">
        <ele>718</ele>
        <time>2024-08-09T07:27:24Z</time>
      </trkpt>
      <trkpt lat="45.05756" lon="6.03532">
        <ele>718</ele>
        <time>2024-08-09T07:27:25Z</time>
      </trkpt>
      <trkpt lat="45.05757" lon="6.03533">
        <ele>718</ele>
        <time>2024-08-09T07:27:26Z</time>
      </trkpt>
      <trkpt lat="45.05757" lon="6.03533">
        <ele>718</ele>
        <time>2024-08-09T07:27:27Z</time>
      </trkpt>
      <trkpt lat="45.05761" lon="6.03535">
        <ele>718</ele>
        <time>2024-08-09T07:27:28Z</time>
      </trkpt>
      <trkpt lat="45.05761" lon="6.03535">
        <ele>718</ele>
        <time>2024-08-09T07:27:29Z</time>
      </trkpt>
      <trkpt lat="45.05763" lon="6.03537">
        <ele>718</ele>
        <time>2024-08-09T07:27:30Z</time>
      </trkpt>
      <trkpt lat="45.05763" lon="6.03537">
        <ele>718</ele>
        <time>2024-08-09T07:27:31Z</time>
      </trkpt>
      <trkpt lat="45.05765" lon="6.03541">
        <ele>718</ele>
        <time>2024-08-09T07:27:32Z</time>
      </trkpt>
      <trkpt lat="45.05765" lon="6.03541">
        <ele>718.4</ele>
        <time>2024-08-09T07:27:33Z</time>
      </trkpt>
      <trkpt lat="45.05768" lon="6.03544">
        <ele>718.6</ele>
        <time>2024-08-09T07:27:34Z</time>
      </trkpt>
      <trkpt lat="45.05768" lon="6.03544">
        <ele>718.6</ele>
        <time>2024-08-09T07:27:35Z</time>
      </trkpt>
      <trkpt lat="45.0577" lon="6.03547">
        <ele>718.6</ele>
        <time>2024-08-09T07:27:36Z</time>
      </trkpt>
      <trkpt lat="45.0577" lon="6.03547">
        <ele>718.8</ele>
        <time>2024-08-09T07:27:37Z</time>
      </trkpt>
      <trkpt lat="45.05772" lon="6.0355">
        <ele>718.8</ele>
        <time>2024-08-09T07:27:38Z</time>
      </trkpt>
      <trkpt lat="45.05772" lon="6.0355">
        <ele>718.8</ele>
        <time>2024-08-09T07:27:39Z</time>
      </trkpt>
      <trkpt lat="45.05774" lon="6.03554">
        <ele>719</ele>
        <time>2024-08-09T07:27:40Z</time>
      </trkpt>
      <trkpt lat="45.05774" lon="6.03554">
        <ele>719</ele>
        <time>2024-08-09T07:27:41Z</time>
      </trkpt>
      <trkpt lat="45.05777" lon="6.03557">
        <ele>719.2</ele>
        <time>2024-08-09T07:27:42Z</time>
      </trkpt>
      <trkpt lat="45.05777" lon="6.03557">
        <ele>719.2</ele>
        <time>2024-08-09T07:27:43Z</time>
      </trkpt>
      <trkpt lat="45.05777" lon="6.03557">
        <ele>719.2</ele>
        <time>2024-08-09T07:27:44Z</time>
      </trkpt>
      <trkpt lat="45.05779" lon="6.03561">
        <ele>718.6</ele>
        <time>2024-08-09T07:27:45Z</time>
      </trkpt>
      <trkpt lat="45.05781" lon="6.03562">
        <ele>718.6</ele>
        <time>2024-08-09T07:27:46Z</time>
      </trkpt>
      <trkpt lat="45.05781" lon="6.03562">
        <ele>718.8</ele>
        <time>2024-08-09T07:27:47Z</time>
      </trkpt>
      <trkpt lat="45.05783" lon="6.03565">
        <ele>718.8</ele>
        <time>2024-08-09T07:27:48Z</time>
      </trkpt>
      <trkpt lat="45.05784" lon="6.03566">
        <ele>718.8</ele>
        <time>2024-08-09T07:27:49Z</time>
      </trkpt>
      <trkpt lat="45.05784" lon="6.03566">
        <ele>718.8</ele>
        <time>2024-08-09T07:27:50Z</time>
      </trkpt>
      <trkpt lat="45.05787" lon="6.03569">
        <ele>719</ele>
        <time>2024-08-09T07:27:51Z</time>
      </trkpt>
      <trkpt lat="45.05787" lon="6.03569">
        <ele>719</ele>
        <time>2024-08-09T07:27:52Z</time>
      </trkpt>
      <trkpt lat="45.05789" lon="6.03572">
        <ele>719</ele>
        <time>2024-08-09T07:27:53Z</time>
      </trkpt>
      <trkpt lat="45.05791" lon="6.03573">
        <ele>719</ele>
        <time>2024-08-09T07:27:54Z</time>
      </trkpt>
      <trkpt lat="45.05793" lon="6.03575">
        <ele>719.2</ele>
        <time>2024-08-09T07:27:55Z</time>
      </trkpt>
      <trkpt lat="45.05794" lon="6.03576">
        <ele>719.2</ele>
        <time>2024-08-09T07:27:56Z</time>
      </trkpt>
      <trkpt lat="45.05794" lon="6.03576">
        <ele>719.4</ele>
        <time>2024-08-09T07:27:57Z</time>
      </trkpt>
      <trkpt lat="45.05797" lon="6.03579">
        <ele>719.4</ele>
        <time>2024-08-09T07:27:58Z</time>
      </trkpt>
      <trkpt lat="45.05798" lon="6.03581">
        <ele>719.4</ele>
        <time>2024-08-09T07:27:59Z</time>
      </trkpt>
      <trkpt lat="45.05798" lon="6.03581">
        <ele>719.4</ele>
        <time>2024-08-09T07:28:00Z</time>
      </trkpt>
      <trkpt lat="45.058" lon="6.03584">
        <ele>719.4</ele>
        <time>2024-08-09T07:28:01Z</time>
      </trkpt>
      <trkpt lat="45.05802" lon="6.03585">
        <ele>719.6</ele>
        <time>2024-08-09T07:28:02Z</time>
      </trkpt>
      <trkpt lat="45.05802" lon="6.03585">
        <ele>719.8</ele>
        <time>2024-08-09T07:28:03Z</time>
      </trkpt>
      <trkpt lat="45.05805" lon="6.03588">
        <ele>719.8</ele>
        <time>2024-08-09T07:28:04Z</time>
      </trkpt>
      <trkpt lat="45.05806" lon="6.03589">
        <ele>719.8</ele>
        <time>2024-08-09T07:28:05Z</time>
      </trkpt>
      <trkpt lat="45.05806" lon="6.03589">
        <ele>719.8</ele>
        <time>2024-08-09T07:28:06Z</time>
      </trkpt>
      <trkpt lat="45.05809" lon="6.03592">
        <ele>719.8</ele>
        <time>2024-08-09T07:28:07Z</time>
      </trkpt>
      <trkpt lat="45.05809" lon="6.03592">
        <ele>719.8</ele>
        <time>2024-08-09T07:28:08Z</time>
      </trkpt>
      <trkpt lat="45.05811" lon="6.03596">
        <ele>720</ele>
        <time>2024-08-09T07:28:09Z</time>
      </trkpt>
      <trkpt lat="45.05813" lon="6.03597">
        <ele>720</ele>
        <time>2024-08-09T07:28:10Z</time>
      </trkpt>
      <trkpt lat="45.05813" lon="6.03597">
        <ele>720</ele>
        <time>2024-08-09T07:28:11Z</time>
      </trkpt>
      <trkpt lat="45.05815" lon="6.036">
        <ele>720.2</ele>
        <time>2024-08-09T07:28:12Z</time>
      </trkpt>
      <trkpt lat="45.05815" lon="6.036">
        <ele>720.2</ele>
        <time>2024-08-09T07:28:13Z</time>
      </trkpt>
      <trkpt lat="45.05818" lon="6.03603">
        <ele>720</ele>
        <time>2024-08-09T07:28:14Z</time>
      </trkpt>
      <trkpt lat="45.05818" lon="6.03603">
        <ele>720</ele>
        <time>2024-08-09T07:28:15Z</time>
      </trkpt>
      <trkpt lat="45.05821" lon="6.03606">
        <ele>720</ele>
        <time>2024-08-09T07:28:16Z</time>
      </trkpt>
      <trkpt lat="45.05822" lon="6.03607">
        <ele>720.2</ele>
        <time>2024-08-09T07:28:17Z</time>
      </trkpt>
      <trkpt lat="45.05822" lon="6.03607">
        <ele>720.4</ele>
        <time>2024-08-09T07:28:18Z</time>
      </trkpt>
      <trkpt lat="45.05825" lon="6.0361">
        <ele>720.4</ele>
        <time>2024-08-09T07:28:19Z</time>
      </trkpt>
      <trkpt lat="45.05825" lon="6.0361">
        <ele>720.4</ele>
        <time>2024-08-09T07:28:20Z</time>
      </trkpt>
      <trkpt lat="45.05827" lon="6.03613">
        <ele>720.4</ele>
        <time>2024-08-09T07:28:21Z</time>
      </trkpt>
      <trkpt lat="45.05827" lon="6.03613">
        <ele>720.4</ele>
        <time>2024-08-09T07:28:22Z</time>
      </trkpt>
      <trkpt lat="45.05829" lon="6.03616">
        <ele>720.4</ele>
        <time>2024-08-09T07:28:23Z</time>
      </trkpt>
      <trkpt lat="45.05829" lon="6.03616">
        <ele>720.6</ele>
        <time>2024-08-09T07:28:24Z</time>
      </trkpt>
      <trkpt lat="45.05832" lon="6.0362">
        <ele>720.6</ele>
        <time>2024-08-09T07:28:25Z</time>
      </trkpt>
      <trkpt lat="45.05832" lon="6.0362">
        <ele>720.6</ele>
        <time>2024-08-09T07:28:26Z</time>
      </trkpt>
      <trkpt lat="45.05834" lon="6.03623">
        <ele>720.6</ele>
        <time>2024-08-09T07:28:27Z</time>
      </trkpt>
      <trkpt lat="45.05835" lon="6.03625">
        <ele>720.6</ele>
        <time>2024-08-09T07:28:28Z</time>
      </trkpt>
      <trkpt lat="45.05837" lon="6.03627">
        <ele>720.6</ele>
        <time>2024-08-09T07:28:29Z</time>
      </trkpt>
      <trkpt lat="45.05837" lon="6.03627">
        <ele>720.4</ele>
        <time>2024-08-09T07:28:30Z</time>
      </trkpt>
      <trkpt lat="45.05837" lon="6.03632">
        <ele>720.4</ele>
        <time>2024-08-09T07:28:31Z</time>
      </trkpt>
      <trkpt lat="45.05837" lon="6.03632">
        <ele>720.4</ele>
        <time>2024-08-09T07:28:32Z</time>
      </trkpt>
      <trkpt lat="45.05838" lon="6.03636">
        <ele>720.4</ele>
        <time>2024-08-09T07:28:33Z</time>
      </trkpt>
      <trkpt lat="45.05838" lon="6.03636">
        <ele>720.6</ele>
        <time>2024-08-09T07:28:34Z</time>
      </trkpt>
      <trkpt lat="45.05838" lon="6.0364">
        <ele>720.6</ele>
        <time>2024-08-09T07:28:35Z</time>
      </trkpt>
      <trkpt lat="45.05838" lon="6.0364">
        <ele>720.6</ele>
        <time>2024-08-09T07:28:36Z</time>
      </trkpt>
      <trkpt lat="45.0584" lon="6.03644">
        <ele>720.8</ele>
        <time>2024-08-09T07:28:37Z</time>
      </trkpt>
      <trkpt lat="45.0584" lon="6.03644">
        <ele>720.8</ele>
        <time>2024-08-09T07:28:38Z</time>
      </trkpt>
      <trkpt lat="45.05842" lon="6.03648">
        <ele>720.6</ele>
        <time>2024-08-09T07:28:39Z</time>
      </trkpt>
      <trkpt lat="45.05842" lon="6.03648">
        <ele>720.6</ele>
        <time>2024-08-09T07:28:40Z</time>
      </trkpt>
      <trkpt lat="45.05843" lon="6.03651">
        <ele>720.6</ele>
        <time>2024-08-09T07:28:41Z</time>
      </trkpt>
      <trkpt lat="45.05843" lon="6.03651">
        <ele>720.6</ele>
        <time>2024-08-09T07:28:42Z</time>
      </trkpt>
      <trkpt lat="45.05845" lon="6.03654">
        <ele>720.8</ele>
        <time>2024-08-09T07:28:43Z</time>
      </trkpt>
      <trkpt lat="45.05845" lon="6.03654">
        <ele>721</ele>
        <time>2024-08-09T07:28:44Z</time>
      </trkpt>
      <trkpt lat="45.05847" lon="6.03657">
        <ele>721.4</ele>
        <time>2024-08-09T07:28:45Z</time>
      </trkpt>
      <trkpt lat="45.05847" lon="6.03657">
        <ele>721.4</ele>
        <time>2024-08-09T07:28:46Z</time>
      </trkpt>
      <trkpt lat="45.05848" lon="6.03658">
        <ele>721.2</ele>
        <time>2024-08-09T07:28:47Z</time>
      </trkpt>
      <trkpt lat="45.05848" lon="6.03658">
        <ele>721.2</ele>
        <time>2024-08-09T07:28:48Z</time>
      </trkpt>
      <trkpt lat="45.0585" lon="6.03659">
        <ele>721.2</ele>
        <time>2024-08-09T07:28:49Z</time>
      </trkpt>
      <trkpt lat="45.0585" lon="6.03659">
        <ele>721.2</ele>
        <time>2024-08-09T07:28:50Z</time>
      </trkpt>
      <trkpt lat="45.0585" lon="6.03659">
        <ele>721.2</ele>
        <time>2024-08-09T07:28:51Z</time>
      </trkpt>
      <trkpt lat="45.0585" lon="6.03659">
        <ele>721.2</ele>
        <time>2024-08-09T07:28:52Z</time>
      </trkpt>
      <trkpt lat="45.0585" lon="6.03659">
        <ele>721.2</ele>
        <time>2024-08-09T07:28:53Z</time>
      </trkpt>
      <trkpt lat="45.0585" lon="6.03659">
        <ele>721.2</ele>
        <time>2024-08-09T07:28:54Z</time>
      </trkpt>
      <trkpt lat="45.0585" lon="6.03659">
        <ele>721.2</ele>
        <time>2024-08-09T07:28:55Z</time>
      </trkpt>
      <trkpt lat="45.0585" lon="6.03659">
        <ele>721.2</ele>
        <time>2024-08-09T07:28:56Z</time>
      </trkpt>
      <trkpt lat="45.0585" lon="6.03659">
        <ele>721.2</ele>
        <time>2024-08-09T07:28:57Z</time>
      </trkpt>
      <trkpt lat="45.0585" lon="6.03659">
        <ele>721.4</ele>
        <time>2024-08-09T07:28:58Z</time>
      </trkpt>
      <trkpt lat="45.0585" lon="6.03659">
        <ele>721.4</ele>
        <time>2024-08-09T07:28:59Z</time>
      </trkpt>
      <trkpt lat="45.0585" lon="6.03659">
        <ele>721.4</ele>
        <time>2024-08-09T07:29:00Z</time>
      </trkpt>
      <trkpt lat="45.0585" lon="6.03659">
        <ele>721.4</ele>
        <time>2024-08-09T07:29:01Z</time>
      </trkpt>
      <trkpt lat="45.0585" lon="6.03659">
        <ele>721.4</ele>
        <time>2024-08-09T07:29:02Z</time>
      </trkpt>
      <trkpt lat="45.0585" lon="6.03659">
        <ele>721.4</ele>
        <time>2024-08-09T07:29:03Z</time>
      </trkpt>
      <trkpt lat="45.0585" lon="6.03659">
        <ele>721.4</ele>
        <time>2024-08-09T07:29:04Z</time>
      </trkpt>
      <trkpt lat="45.0585" lon="6.03659">
        <ele>721.2</ele>
        <time>2024-08-09T07:29:05Z</time>
      </trkpt>
      <trkpt lat="45.0585" lon="6.03659">
        <ele>721.2</ele>
        <time>2024-08-09T07:29:06Z</time>
      </trkpt>
      <trkpt lat="45.0585" lon="6.03659">
        <ele>721.4</ele>
        <time>2024-08-09T07:29:07Z</time>
      </trkpt>
      <trkpt lat="45.0585" lon="6.03659">
        <ele>721.4</ele>
        <time>2024-08-09T07:29:08Z</time>
      </trkpt>
      <trkpt lat="45.05852" lon="6.03661">
        <ele>721.4</ele>
        <time>2024-08-09T07:29:09Z</time>
      </trkpt>
      <trkpt lat="45.05852" lon="6.03661">
        <ele>721.4</ele>
        <time>2024-08-09T07:29:10Z</time>
      </trkpt>
      <trkpt lat="45.05854" lon="6.03666">
        <ele>721.4</ele>
        <time>2024-08-09T07:29:11Z</time>
      </trkpt>
      <trkpt lat="45.05856" lon="6.03668">
        <ele>721.4</ele>
        <time>2024-08-09T07:29:12Z</time>
      </trkpt>
      <trkpt lat="45.05858" lon="6.03671">
        <ele>721.4</ele>
        <time>2024-08-09T07:29:13Z</time>
      </trkpt>
      <trkpt lat="45.05861" lon="6.03673">
        <ele>721.4</ele>
        <time>2024-08-09T07:29:14Z</time>
      </trkpt>
      <trkpt lat="45.05863" lon="6.03675">
        <ele>721.4</ele>
        <time>2024-08-09T07:29:15Z</time>
      </trkpt>
      <trkpt lat="45.05865" lon="6.03676">
        <ele>721.6</ele>
        <time>2024-08-09T07:29:16Z</time>
      </trkpt>
      <trkpt lat="45.05865" lon="6.03676">
        <ele>721.8</ele>
        <time>2024-08-09T07:29:17Z</time>
      </trkpt>
      <trkpt lat="45.05867" lon="6.03679">
        <ele>721.8</ele>
        <time>2024-08-09T07:29:18Z</time>
      </trkpt>
      <trkpt lat="45.05867" lon="6.03679">
        <ele>721.8</ele>
        <time>2024-08-09T07:29:19Z</time>
      </trkpt>
      <trkpt lat="45.05869" lon="6.03682">
        <ele>721.8</ele>
        <time>2024-08-09T07:29:20Z</time>
      </trkpt>
      <trkpt lat="45.05869" lon="6.03682">
        <ele>722</ele>
        <time>2024-08-09T07:29:21Z</time>
      </trkpt>
      <trkpt lat="45.05871" lon="6.03685">
        <ele>722</ele>
        <time>2024-08-09T07:29:22Z</time>
      </trkpt>
      <trkpt lat="45.05872" lon="6.03687">
        <ele>722.4</ele>
        <time>2024-08-09T07:29:23Z</time>
      </trkpt>
      <trkpt lat="45.05872" lon="6.03687">
        <ele>722.4</ele>
        <time>2024-08-09T07:29:24Z</time>
      </trkpt>
      <trkpt lat="45.05875" lon="6.0369">
        <ele>722.2</ele>
        <time>2024-08-09T07:29:25Z</time>
      </trkpt>
      <trkpt lat="45.05875" lon="6.0369">
        <ele>722.2</ele>
        <time>2024-08-09T07:29:26Z</time>
      </trkpt>
      <trkpt lat="45.05877" lon="6.03693">
        <ele>722.4</ele>
        <time>2024-08-09T07:29:27Z</time>
      </trkpt>
      <trkpt lat="45.05878" lon="6.03695">
        <ele>722.4</ele>
        <time>2024-08-09T07:29:28Z</time>
      </trkpt>
      <trkpt lat="45.05878" lon="6.03695">
        <ele>722.4</ele>
        <time>2024-08-09T07:29:29Z</time>
      </trkpt>
      <trkpt lat="45.0588" lon="6.03698">
        <ele>722.6</ele>
        <time>2024-08-09T07:29:30Z</time>
      </trkpt>
      <trkpt lat="45.0588" lon="6.03698">
        <ele>722.6</ele>
        <time>2024-08-09T07:29:31Z</time>
      </trkpt>
      <trkpt lat="45.05882" lon="6.03701">
        <ele>722.6</ele>
        <time>2024-08-09T07:29:32Z</time>
      </trkpt>
      <trkpt lat="45.05882" lon="6.03701">
        <ele>722.6</ele>
        <time>2024-08-09T07:29:33Z</time>
      </trkpt>
      <trkpt lat="45.05884" lon="6.03705">
        <ele>722.6</ele>
        <time>2024-08-09T07:29:34Z</time>
      </trkpt>
      <trkpt lat="45.05886" lon="6.03706">
        <ele>722.6</ele>
        <time>2024-08-09T07:29:35Z</time>
      </trkpt>
      <trkpt lat="45.05886" lon="6.03706">
        <ele>722.6</ele>
        <time>2024-08-09T07:29:36Z</time>
      </trkpt>
      <trkpt lat="45.05888" lon="6.0371">
        <ele>722.8</ele>
        <time>2024-08-09T07:29:37Z</time>
      </trkpt>
      <trkpt lat="45.05888" lon="6.0371">
        <ele>722.8</ele>
        <time>2024-08-09T07:29:38Z</time>
      </trkpt>
      <trkpt lat="45.0589" lon="6.03713">
        <ele>722.8</ele>
        <time>2024-08-09T07:29:39Z</time>
      </trkpt>
      <trkpt lat="45.05875" lon="6.03709">
        <ele>722.6</ele>
        <time>2024-08-09T07:29:40Z</time>
      </trkpt>
      <trkpt lat="45.05876" lon="6.0371">
        <ele>722.6</ele>
        <time>2024-08-09T07:29:41Z</time>
      </trkpt>
      <trkpt lat="45.05877" lon="6.03712">
        <ele>722.6</ele>
        <time>2024-08-09T07:29:42Z</time>
      </trkpt>
      <trkpt lat="45.05877" lon="6.03712">
        <ele>722.6</ele>
        <time>2024-08-09T07:29:43Z</time>
      </trkpt>
      <trkpt lat="45.05878" lon="6.03715">
        <ele>722.4</ele>
        <time>2024-08-09T07:29:44Z</time>
      </trkpt>
      <trkpt lat="45.05878" lon="6.03715">
        <ele>722.4</ele>
        <time>2024-08-09T07:29:45Z</time>
      </trkpt>
      <trkpt lat="45.05877" lon="6.03718">
        <ele>722.6</ele>
        <time>2024-08-09T07:29:46Z</time>
      </trkpt>
      <trkpt lat="45.05879" lon="6.0372">
        <ele>722.8</ele>
        <time>2024-08-09T07:29:47Z</time>
      </trkpt>
      <trkpt lat="45.05879" lon="6.0372">
        <ele>722.8</ele>
        <time>2024-08-09T07:29:48Z</time>
      </trkpt>
      <trkpt lat="45.0588" lon="6.03723">
        <ele>722.4</ele>
        <time>2024-08-09T07:29:49Z</time>
      </trkpt>
      <trkpt lat="45.0588" lon="6.03723">
        <ele>722.4</ele>
        <time>2024-08-09T07:29:50Z</time>
      </trkpt>
      <trkpt lat="45.05882" lon="6.03725">
        <ele>722.6</ele>
        <time>2024-08-09T07:29:51Z</time>
      </trkpt>
      <trkpt lat="45.05882" lon="6.03725">
        <ele>722.6</ele>
        <time>2024-08-09T07:29:52Z</time>
      </trkpt>
      <trkpt lat="45.05884" lon="6.03725">
        <ele>722.6</ele>
        <time>2024-08-09T07:29:53Z</time>
      </trkpt>
      <trkpt lat="45.05884" lon="6.03725">
        <ele>722.6</ele>
        <time>2024-08-09T07:29:54Z</time>
      </trkpt>
      <trkpt lat="45.05887" lon="6.03724">
        <ele>722.6</ele>
        <time>2024-08-09T07:29:55Z</time>
      </trkpt>
      <trkpt lat="45.05887" lon="6.03724">
        <ele>722.4</ele>
        <time>2024-08-09T07:29:56Z</time>
      </trkpt>
      <trkpt lat="45.0589" lon="6.03722">
        <ele>722.4</ele>
        <time>2024-08-09T07:29:57Z</time>
      </trkpt>
      <trkpt lat="45.0589" lon="6.03722">
        <ele>722.2</ele>
        <time>2024-08-09T07:29:58Z</time>
      </trkpt>
      <trkpt lat="45.05892" lon="6.0372">
        <ele>722.2</ele>
        <time>2024-08-09T07:29:59Z</time>
      </trkpt>
      <trkpt lat="45.05895" lon="6.03718">
        <ele>722.2</ele>
        <time>2024-08-09T07:30:01Z</time>
      </trkpt>
      <trkpt lat="45.05895" lon="6.03718">
        <ele>722</ele>
        <time>2024-08-09T07:30:02Z</time>
      </trkpt>
      <trkpt lat="45.05898" lon="6.03718">
        <ele>721.8</ele>
        <time>2024-08-09T07:30:03Z</time>
      </trkpt>
      <trkpt lat="45.059" lon="6.03719">
        <ele>721.6</ele>
        <time>2024-08-09T07:30:04Z</time>
      </trkpt>
      <trkpt lat="45.059" lon="6.03719">
        <ele>721.6</ele>
        <time>2024-08-09T07:30:05Z</time>
      </trkpt>
      <trkpt lat="45.05902" lon="6.03721">
        <ele>721.8</ele>
        <time>2024-08-09T07:30:06Z</time>
      </trkpt>
      <trkpt lat="45.05904" lon="6.03722">
        <ele>721.8</ele>
        <time>2024-08-09T07:30:07Z</time>
      </trkpt>
      <trkpt lat="45.05905" lon="6.03723">
        <ele>721.4</ele>
        <time>2024-08-09T07:30:08Z</time>
      </trkpt>
      <trkpt lat="45.05905" lon="6.03723">
        <ele>721.4</ele>
        <time>2024-08-09T07:30:09Z</time>
      </trkpt>
      <trkpt lat="45.05908" lon="6.03725">
        <ele>721.4</ele>
        <time>2024-08-09T07:30:10Z</time>
      </trkpt>
      <trkpt lat="45.05908" lon="6.03725">
        <ele>721.2</ele>
        <time>2024-08-09T07:30:11Z</time>
      </trkpt>
      <trkpt lat="45.05911" lon="6.03729">
        <ele>721</ele>
        <time>2024-08-09T07:30:12Z</time>
      </trkpt>
      <trkpt lat="45.05912" lon="6.0373">
        <ele>721</ele>
        <time>2024-08-09T07:30:13Z</time>
      </trkpt>
      <trkpt lat="45.05914" lon="6.03732">
        <ele>720.8</ele>
        <time>2024-08-09T07:30:14Z</time>
      </trkpt>
      <trkpt lat="45.05915" lon="6.03734">
        <ele>720.8</ele>
        <time>2024-08-09T07:30:15Z</time>
      </trkpt>
      <trkpt lat="45.05915" lon="6.03734">
        <ele>720.6</ele>
        <time>2024-08-09T07:30:16Z</time>
      </trkpt>
      <trkpt lat="45.05918" lon="6.03737">
        <ele>720.6</ele>
        <time>2024-08-09T07:30:17Z</time>
      </trkpt>
      <trkpt lat="45.05918" lon="6.03737">
        <ele>720.6</ele>
        <time>2024-08-09T07:30:18Z</time>
      </trkpt>
      <trkpt lat="45.05921" lon="6.03738">
        <ele>720.6</ele>
        <time>2024-08-09T07:30:19Z</time>
      </trkpt>
      <trkpt lat="45.05921" lon="6.03738">
        <ele>720.8</ele>
        <time>2024-08-09T07:30:20Z</time>
      </trkpt>
      <trkpt lat="45.05924" lon="6.03739">
        <ele>720.8</ele>
        <time>2024-08-09T07:30:21Z</time>
      </trkpt>
      <trkpt lat="45.05924" lon="6.03739">
        <ele>720.8</ele>
        <time>2024-08-09T07:30:22Z</time>
      </trkpt>
      <trkpt lat="45.05926" lon="6.0374">
        <ele>720.4</ele>
        <time>2024-08-09T07:30:23Z</time>
      </trkpt>
      <trkpt lat="45.05926" lon="6.0374">
        <ele>720.4</ele>
        <time>2024-08-09T07:30:24Z</time>
      </trkpt>
      <trkpt lat="45.05929" lon="6.03739">
        <ele>720.2</ele>
        <time>2024-08-09T07:30:25Z</time>
      </trkpt>
      <trkpt lat="45.05929" lon="6.03739">
        <ele>720.2</ele>
        <time>2024-08-09T07:30:26Z</time>
      </trkpt>
      <trkpt lat="45.05932" lon="6.03738">
        <ele>720.2</ele>
        <time>2024-08-09T07:30:27Z</time>
      </trkpt>
      <trkpt lat="45.05934" lon="6.03737">
        <ele>720.2</ele>
        <time>2024-08-09T07:30:29Z</time>
      </trkpt>
      <trkpt lat="45.05934" lon="6.03737">
        <ele>720.2</ele>
        <time>2024-08-09T07:30:30Z</time>
      </trkpt>
      <trkpt lat="45.05934" lon="6.03737">
        <ele>720.2</ele>
        <time>2024-08-09T07:30:31Z</time>
      </trkpt>
      <trkpt lat="45.05934" lon="6.03737">
        <ele>720.4</ele>
        <time>2024-08-09T07:30:32Z</time>
      </trkpt>
      <trkpt lat="45.05934" lon="6.03737">
        <ele>720.4</ele>
        <time>2024-08-09T07:30:33Z</time>
      </trkpt>
      <trkpt lat="45.05934" lon="6.03737">
        <ele>720.4</ele>
        <time>2024-08-09T07:30:34Z</time>
      </trkpt>
      <trkpt lat="45.05934" lon="6.03737">
        <ele>720.4</ele>
        <time>2024-08-09T07:30:35Z</time>
      </trkpt>
      <trkpt lat="45.05934" lon="6.0374">
        <ele>720.4</ele>
        <time>2024-08-09T07:30:36Z</time>
      </trkpt>
      <trkpt lat="45.05934" lon="6.0374">
        <ele>720.2</ele>
        <time>2024-08-09T07:30:37Z</time>
      </trkpt>
      <trkpt lat="45.05934" lon="6.03743">
        <ele>720.2</ele>
        <time>2024-08-09T07:30:38Z</time>
      </trkpt>
      <trkpt lat="45.05936" lon="6.03746">
        <ele>720.2</ele>
        <time>2024-08-09T07:30:39Z</time>
      </trkpt>
      <trkpt lat="45.05936" lon="6.03746">
        <ele>720.6</ele>
        <time>2024-08-09T07:30:40Z</time>
      </trkpt>
      <trkpt lat="45.05937" lon="6.03749">
        <ele>720.8</ele>
        <time>2024-08-09T07:30:41Z</time>
      </trkpt>
      <trkpt lat="45.05937" lon="6.03749">
        <ele>720.8</ele>
        <time>2024-08-09T07:30:42Z</time>
      </trkpt>
      <trkpt lat="45.05939" lon="6.03751">
        <ele>720.6</ele>
        <time>2024-08-09T07:30:43Z</time>
      </trkpt>
      <trkpt lat="45.05939" lon="6.03751">
        <ele>720.6</ele>
        <time>2024-08-09T07:30:44Z</time>
      </trkpt>
      <trkpt lat="45.05939" lon="6.03751">
        <ele>721</ele>
        <time>2024-08-09T07:30:45Z</time>
      </trkpt>
      <trkpt lat="45.05942" lon="6.03753">
        <ele>721.2</ele>
        <time>2024-08-09T07:30:46Z</time>
      </trkpt>
      <trkpt lat="45.05942" lon="6.03753">
        <ele>721.2</ele>
        <time>2024-08-09T07:30:47Z</time>
      </trkpt>
      <trkpt lat="45.05944" lon="6.03756">
        <ele>721</ele>
        <time>2024-08-09T07:30:48Z</time>
      </trkpt>
      <trkpt lat="45.05946" lon="6.03757">
        <ele>720.6</ele>
        <time>2024-08-09T07:30:49Z</time>
      </trkpt>
      <trkpt lat="45.05946" lon="6.03757">
        <ele>720.6</ele>
        <time>2024-08-09T07:30:50Z</time>
      </trkpt>
      <trkpt lat="45.05948" lon="6.03759">
        <ele>720.8</ele>
        <time>2024-08-09T07:30:51Z</time>
      </trkpt>
      <trkpt lat="45.0595" lon="6.0376">
        <ele>721</ele>
        <time>2024-08-09T07:30:52Z</time>
      </trkpt>
      <trkpt lat="45.05951" lon="6.03762">
        <ele>721</ele>
        <time>2024-08-09T07:30:53Z</time>
      </trkpt>
      <trkpt lat="45.05951" lon="6.03762">
        <ele>720.8</ele>
        <time>2024-08-09T07:30:54Z</time>
      </trkpt>
      <trkpt lat="45.05954" lon="6.03765">
        <ele>720.8</ele>
        <time>2024-08-09T07:30:55Z</time>
      </trkpt>
      <trkpt lat="45.05954" lon="6.03765">
        <ele>720.8</ele>
        <time>2024-08-09T07:30:56Z</time>
      </trkpt>
      <trkpt lat="45.05956" lon="6.03768">
        <ele>721</ele>
        <time>2024-08-09T07:30:57Z</time>
      </trkpt>
      <trkpt lat="45.05957" lon="6.0377">
        <ele>721</ele>
        <time>2024-08-09T07:30:58Z</time>
      </trkpt>
      <trkpt lat="45.05957" lon="6.0377">
        <ele>720.8</ele>
        <time>2024-08-09T07:30:59Z</time>
      </trkpt>
      <trkpt lat="45.05959" lon="6.03774">
        <ele>720.8</ele>
        <time>2024-08-09T07:31:00Z</time>
      </trkpt>
      <trkpt lat="45.05959" lon="6.03774">
        <ele>720.8</ele>
        <time>2024-08-09T07:31:01Z</time>
      </trkpt>
      <trkpt lat="45.05961" lon="6.03777">
        <ele>720.6</ele>
        <time>2024-08-09T07:31:02Z</time>
      </trkpt>
      <trkpt lat="45.05961" lon="6.03777">
        <ele>720.6</ele>
        <time>2024-08-09T07:31:03Z</time>
      </trkpt>
      <trkpt lat="45.05961" lon="6.03777">
        <ele>720.6</ele>
        <time>2024-08-09T07:31:04Z</time>
      </trkpt>
      <trkpt lat="45.05963" lon="6.03779">
        <ele>720.6</ele>
        <time>2024-08-09T07:31:05Z</time>
      </trkpt>
      <trkpt lat="45.05963" lon="6.03779">
        <ele>720.6</ele>
        <time>2024-08-09T07:31:06Z</time>
      </trkpt>
      <trkpt lat="45.05965" lon="6.03782">
        <ele>720.4</ele>
        <time>2024-08-09T07:31:07Z</time>
      </trkpt>
      <trkpt lat="45.05965" lon="6.03782">
        <ele>720.4</ele>
        <time>2024-08-09T07:31:08Z</time>
      </trkpt>
      <trkpt lat="45.05967" lon="6.03786">
        <ele>720.4</ele>
        <time>2024-08-09T07:31:09Z</time>
      </trkpt>
      <trkpt lat="45.05967" lon="6.03786">
        <ele>720.4</ele>
        <time>2024-08-09T07:31:10Z</time>
      </trkpt>
      <trkpt lat="45.05968" lon="6.0379">
        <ele>720.6</ele>
        <time>2024-08-09T07:31:11Z</time>
      </trkpt>
      <trkpt lat="45.05968" lon="6.0379">
        <ele>720.6</ele>
        <time>2024-08-09T07:31:12Z</time>
      </trkpt>
      <trkpt lat="45.0597" lon="6.03794">
        <ele>720.6</ele>
        <time>2024-08-09T07:31:13Z</time>
      </trkpt>
      <trkpt lat="45.0597" lon="6.03794">
        <ele>720.6</ele>
        <time>2024-08-09T07:31:14Z</time>
      </trkpt>
      <trkpt lat="45.05972" lon="6.03798">
        <ele>720.6</ele>
        <time>2024-08-09T07:31:15Z</time>
      </trkpt>
      <trkpt lat="45.05972" lon="6.03798">
        <ele>720.6</ele>
        <time>2024-08-09T07:31:16Z</time>
      </trkpt>
      <trkpt lat="45.05974" lon="6.03801">
        <ele>720.6</ele>
        <time>2024-08-09T07:31:17Z</time>
      </trkpt>
      <trkpt lat="45.05976" lon="6.03801">
        <ele>720.6</ele>
        <time>2024-08-09T07:31:18Z</time>
      </trkpt>
      <trkpt lat="45.05976" lon="6.03801">
        <ele>720.4</ele>
        <time>2024-08-09T07:31:19Z</time>
      </trkpt>
      <trkpt lat="45.05979" lon="6.03801">
        <ele>720.4</ele>
        <time>2024-08-09T07:31:20Z</time>
      </trkpt>
      <trkpt lat="45.05979" lon="6.03801">
        <ele>720.4</ele>
        <time>2024-08-09T07:31:21Z</time>
      </trkpt>
      <trkpt lat="45.05979" lon="6.03801">
        <ele>720.2</ele>
        <time>2024-08-09T07:31:22Z</time>
      </trkpt>
      <trkpt lat="45.05981" lon="6.038">
        <ele>719.8</ele>
        <time>2024-08-09T07:31:23Z</time>
      </trkpt>
      <trkpt lat="45.05981" lon="6.038">
        <ele>719.8</ele>
        <time>2024-08-09T07:31:24Z</time>
      </trkpt>
      <trkpt lat="45.05981" lon="6.038">
        <ele>719.8</ele>
        <time>2024-08-09T07:31:25Z</time>
      </trkpt>
      <trkpt lat="45.05984" lon="6.03799">
        <ele>719.8</ele>
        <time>2024-08-09T07:31:26Z</time>
      </trkpt>
      <trkpt lat="45.05984" lon="6.03799">
        <ele>719.6</ele>
        <time>2024-08-09T07:31:27Z</time>
      </trkpt>
      <trkpt lat="45.05987" lon="6.03798">
        <ele>719.8</ele>
        <time>2024-08-09T07:31:28Z</time>
      </trkpt>
      <trkpt lat="45.05987" lon="6.03798">
        <ele>719.6</ele>
        <time>2024-08-09T07:31:29Z</time>
      </trkpt>
      <trkpt lat="45.05989" lon="6.03798">
        <ele>719.6</ele>
        <time>2024-08-09T07:31:30Z</time>
      </trkpt>
      <trkpt lat="45.05991" lon="6.03797">
        <ele>719.6</ele>
        <time>2024-08-09T07:31:31Z</time>
      </trkpt>
      <trkpt lat="45.05992" lon="6.03797">
        <ele>719.4</ele>
        <time>2024-08-09T07:31:32Z</time>
      </trkpt>
      <trkpt lat="45.05993" lon="6.03797">
        <ele>719.4</ele>
        <time>2024-08-09T07:31:33Z</time>
      </trkpt>
      <trkpt lat="45.05995" lon="6.03797">
        <ele>719.2</ele>
        <time>2024-08-09T07:31:34Z</time>
      </trkpt>
      <trkpt lat="45.05998" lon="6.03797">
        <ele>719.2</ele>
        <time>2024-08-09T07:31:35Z</time>
      </trkpt>
      <trkpt lat="45.05998" lon="6.03797">
        <ele>719.2</ele>
        <time>2024-08-09T07:31:36Z</time>
      </trkpt>
      <trkpt lat="45.06001" lon="6.03796">
        <ele>719.2</ele>
        <time>2024-08-09T07:31:37Z</time>
      </trkpt>
      <trkpt lat="45.06001" lon="6.03796">
        <ele>719.2</ele>
        <time>2024-08-09T07:31:38Z</time>
      </trkpt>
      <trkpt lat="45.06003" lon="6.03795">
        <ele>718.8</ele>
        <time>2024-08-09T07:31:39Z</time>
      </trkpt>
      <trkpt lat="45.06003" lon="6.03795">
        <ele>718.8</ele>
        <time>2024-08-09T07:31:40Z</time>
      </trkpt>
      <trkpt lat="45.06006" lon="6.03794">
        <ele>718.6</ele>
        <time>2024-08-09T07:31:41Z</time>
      </trkpt>
      <trkpt lat="45.06006" lon="6.03794">
        <ele>718.4</ele>
        <time>2024-08-09T07:31:42Z</time>
      </trkpt>
      <trkpt lat="45.06007" lon="6.03792">
        <ele>718.4</ele>
        <time>2024-08-09T07:31:43Z</time>
      </trkpt>
      <trkpt lat="45.06007" lon="6.03792">
        <ele>718.6</ele>
        <time>2024-08-09T07:31:44Z</time>
      </trkpt>
      <trkpt lat="45.06011" lon="6.03789">
        <ele>718.6</ele>
        <time>2024-08-09T07:31:45Z</time>
      </trkpt>
      <trkpt lat="45.06011" lon="6.03789">
        <ele>718.4</ele>
        <time>2024-08-09T07:31:46Z</time>
      </trkpt>
      <trkpt lat="45.06013" lon="6.03787">
        <ele>718.4</ele>
        <time>2024-08-09T07:31:47Z</time>
      </trkpt>
      <trkpt lat="45.06013" lon="6.03787">
        <ele>718.2</ele>
        <time>2024-08-09T07:31:48Z</time>
      </trkpt>
      <trkpt lat="45.06017" lon="6.03787">
        <ele>718.2</ele>
        <time>2024-08-09T07:31:49Z</time>
      </trkpt>
      <trkpt lat="45.06017" lon="6.03787">
        <ele>718.2</ele>
        <time>2024-08-09T07:31:50Z</time>
      </trkpt>
      <trkpt lat="45.06021" lon="6.03786">
        <ele>718</ele>
        <time>2024-08-09T07:31:51Z</time>
      </trkpt>
      <trkpt lat="45.06021" lon="6.03786">
        <ele>718</ele>
        <time>2024-08-09T07:31:52Z</time>
      </trkpt>
      <trkpt lat="45.06023" lon="6.03786">
        <ele>718</ele>
        <time>2024-08-09T07:31:53Z</time>
      </trkpt>
      <trkpt lat="45.06023" lon="6.03786">
        <ele>718</ele>
        <time>2024-08-09T07:31:54Z</time>
      </trkpt>
      <trkpt lat="45.06027" lon="6.03786">
        <ele>718</ele>
        <time>2024-08-09T07:31:55Z</time>
      </trkpt>
      <trkpt lat="45.06027" lon="6.03786">
        <ele>718</ele>
        <time>2024-08-09T07:31:56Z</time>
      </trkpt>
      <trkpt lat="45.0603" lon="6.03785">
        <ele>718</ele>
        <time>2024-08-09T07:31:57Z</time>
      </trkpt>
      <trkpt lat="45.0603" lon="6.03785">
        <ele>718</ele>
        <time>2024-08-09T07:31:58Z</time>
      </trkpt>
      <trkpt lat="45.06033" lon="6.03784">
        <ele>717.8</ele>
        <time>2024-08-09T07:31:59Z</time>
      </trkpt>
      <trkpt lat="45.06033" lon="6.03784">
        <ele>717.8</ele>
        <time>2024-08-09T07:32:00Z</time>
      </trkpt>
      <trkpt lat="45.06036" lon="6.03783">
        <ele>717.8</ele>
        <time>2024-08-09T07:32:01Z</time>
      </trkpt>
      <trkpt lat="45.06036" lon="6.03783">
        <ele>717.8</ele>
        <time>2024-08-09T07:32:02Z</time>
      </trkpt>
      <trkpt lat="45.06039" lon="6.03783">
        <ele>717.8</ele>
        <time>2024-08-09T07:32:03Z</time>
      </trkpt>
      <trkpt lat="45.06039" lon="6.03783">
        <ele>717.8</ele>
        <time>2024-08-09T07:32:04Z</time>
      </trkpt>
      <trkpt lat="45.06042" lon="6.03782">
        <ele>717.8</ele>
        <time>2024-08-09T07:32:05Z</time>
      </trkpt>
      <trkpt lat="45.06044" lon="6.03781">
        <ele>717.4</ele>
        <time>2024-08-09T07:32:06Z</time>
      </trkpt>
      <trkpt lat="45.06044" lon="6.03781">
        <ele>717.4</ele>
        <time>2024-08-09T07:32:07Z</time>
      </trkpt>
      <trkpt lat="45.06047" lon="6.03781">
        <ele>717.4</ele>
        <time>2024-08-09T07:32:08Z</time>
      </trkpt>
      <trkpt lat="45.06047" lon="6.03781">
        <ele>717.4</ele>
        <time>2024-08-09T07:32:09Z</time>
      </trkpt>
      <trkpt lat="45.06049" lon="6.03781">
        <ele>717.2</ele>
        <time>2024-08-09T07:32:10Z</time>
      </trkpt>
      <trkpt lat="45.0605" lon="6.03779">
        <ele>717.2</ele>
        <time>2024-08-09T07:32:11Z</time>
      </trkpt>
      <trkpt lat="45.0605" lon="6.03779">
        <ele>717.2</ele>
        <time>2024-08-09T07:32:12Z</time>
      </trkpt>
      <trkpt lat="45.06053" lon="6.03776">
        <ele>717.2</ele>
        <time>2024-08-09T07:32:13Z</time>
      </trkpt>
      <trkpt lat="45.06053" lon="6.03776">
        <ele>717.2</ele>
        <time>2024-08-09T07:32:14Z</time>
      </trkpt>
      <trkpt lat="45.06055" lon="6.03773">
        <ele>717.2</ele>
        <time>2024-08-09T07:32:15Z</time>
      </trkpt>
      <trkpt lat="45.06057" lon="6.03772">
        <ele>717.2</ele>
        <time>2024-08-09T07:32:16Z</time>
      </trkpt>
      <trkpt lat="45.06057" lon="6.03772">
        <ele>717.2</ele>
        <time>2024-08-09T07:32:17Z</time>
      </trkpt>
      <trkpt lat="45.0606" lon="6.03771">
        <ele>717.2</ele>
        <time>2024-08-09T07:32:18Z</time>
      </trkpt>
      <trkpt lat="45.0606" lon="6.03771">
        <ele>716.8</ele>
        <time>2024-08-09T07:32:19Z</time>
      </trkpt>
      <trkpt lat="45.06063" lon="6.0377">
        <ele>716.8</ele>
        <time>2024-08-09T07:32:20Z</time>
      </trkpt>
      <trkpt lat="45.06063" lon="6.0377">
        <ele>716.8</ele>
        <time>2024-08-09T07:32:21Z</time>
      </trkpt>
      <trkpt lat="45.06067" lon="6.0377">
        <ele>716.8</ele>
        <time>2024-08-09T07:32:22Z</time>
      </trkpt>
      <trkpt lat="45.06067" lon="6.0377">
        <ele>716.8</ele>
        <time>2024-08-09T07:32:23Z</time>
      </trkpt>
      <trkpt lat="45.06069" lon="6.03769">
        <ele>716.8</ele>
        <time>2024-08-09T07:32:24Z</time>
      </trkpt>
      <trkpt lat="45.06069" lon="6.03769">
        <ele>716.8</ele>
        <time>2024-08-09T07:32:25Z</time>
      </trkpt>
      <trkpt lat="45.06073" lon="6.03768">
        <ele>716.6</ele>
        <time>2024-08-09T07:32:26Z</time>
      </trkpt>
      <trkpt lat="45.06075" lon="6.03767">
        <ele>716.6</ele>
        <time>2024-08-09T07:32:27Z</time>
      </trkpt>
      <trkpt lat="45.06075" lon="6.03767">
        <ele>716.6</ele>
        <time>2024-08-09T07:32:28Z</time>
      </trkpt>
      <trkpt lat="45.06077" lon="6.03765">
        <ele>716.6</ele>
        <time>2024-08-09T07:32:29Z</time>
      </trkpt>
      <trkpt lat="45.06079" lon="6.03765">
        <ele>716.6</ele>
        <time>2024-08-09T07:32:30Z</time>
      </trkpt>
      <trkpt lat="45.06081" lon="6.03764">
        <ele>716.6</ele>
        <time>2024-08-09T07:32:31Z</time>
      </trkpt>
      <trkpt lat="45.06081" lon="6.03764">
        <ele>716.8</ele>
        <time>2024-08-09T07:32:32Z</time>
      </trkpt>
      <trkpt lat="45.06085" lon="6.03764">
        <ele>716.8</ele>
        <time>2024-08-09T07:32:33Z</time>
      </trkpt>
      <trkpt lat="45.06085" lon="6.03764">
        <ele>716.4</ele>
        <time>2024-08-09T07:32:34Z</time>
      </trkpt>
      <trkpt lat="45.06085" lon="6.0376">
        <ele>716.4</ele>
        <time>2024-08-09T07:32:35Z</time>
      </trkpt>
      <trkpt lat="45.06085" lon="6.0376">
        <ele>716.4</ele>
        <time>2024-08-09T07:32:36Z</time>
      </trkpt>
      <trkpt lat="45.06087" lon="6.03759">
        <ele>716.4</ele>
        <time>2024-08-09T07:32:37Z</time>
      </trkpt>
      <trkpt lat="45.06087" lon="6.03759">
        <ele>716.4</ele>
        <time>2024-08-09T07:32:38Z</time>
      </trkpt>
      <trkpt lat="45.0609" lon="6.03758">
        <ele>716.4</ele>
        <time>2024-08-09T07:32:39Z</time>
      </trkpt>
      <trkpt lat="45.0609" lon="6.03758">
        <ele>716.4</ele>
        <time>2024-08-09T07:32:40Z</time>
      </trkpt>
      <trkpt lat="45.06093" lon="6.03758">
        <ele>716.4</ele>
        <time>2024-08-09T07:32:41Z</time>
      </trkpt>
      <trkpt lat="45.06093" lon="6.03758">
        <ele>716.4</ele>
        <time>2024-08-09T07:32:42Z</time>
      </trkpt>
      <trkpt lat="45.06096" lon="6.03757">
        <ele>716.4</ele>
        <time>2024-08-09T07:32:43Z</time>
      </trkpt>
      <trkpt lat="45.06098" lon="6.03757">
        <ele>716.6</ele>
        <time>2024-08-09T07:32:44Z</time>
      </trkpt>
      <trkpt lat="45.06098" lon="6.03757">
        <ele>716.6</ele>
        <time>2024-08-09T07:32:45Z</time>
      </trkpt>
      <trkpt lat="45.06101" lon="6.03756">
        <ele>716.4</ele>
        <time>2024-08-09T07:32:46Z</time>
      </trkpt>
      <trkpt lat="45.06101" lon="6.03756">
        <ele>716.4</ele>
        <time>2024-08-09T07:32:47Z</time>
      </trkpt>
      <trkpt lat="45.06104" lon="6.03753">
        <ele>716.4</ele>
        <time>2024-08-09T07:32:48Z</time>
      </trkpt>
      <trkpt lat="45.06104" lon="6.03753">
        <ele>716.4</ele>
        <time>2024-08-09T07:32:49Z</time>
      </trkpt>
      <trkpt lat="45.06107" lon="6.03751">
        <ele>716.4</ele>
        <time>2024-08-09T07:32:50Z</time>
      </trkpt>
      <trkpt lat="45.06107" lon="6.03751">
        <ele>716.4</ele>
        <time>2024-08-09T07:32:51Z</time>
      </trkpt>
      <trkpt lat="45.06109" lon="6.0375">
        <ele>716.4</ele>
        <time>2024-08-09T07:32:52Z</time>
      </trkpt>
      <trkpt lat="45.06109" lon="6.0375">
        <ele>716.4</ele>
        <time>2024-08-09T07:32:53Z</time>
      </trkpt>
      <trkpt lat="45.06112" lon="6.0375">
        <ele>716.4</ele>
        <time>2024-08-09T07:32:54Z</time>
      </trkpt>
      <trkpt lat="45.06112" lon="6.0375">
        <ele>716.4</ele>
        <time>2024-08-09T07:32:55Z</time>
      </trkpt>
      <trkpt lat="45.06115" lon="6.03749">
        <ele>716.4</ele>
        <time>2024-08-09T07:32:56Z</time>
      </trkpt>
      <trkpt lat="45.06115" lon="6.03749">
        <ele>716.4</ele>
        <time>2024-08-09T07:32:57Z</time>
      </trkpt>
      <trkpt lat="45.06118" lon="6.03749">
        <ele>716.4</ele>
        <time>2024-08-09T07:32:58Z</time>
      </trkpt>
      <trkpt lat="45.0612" lon="6.03749">
        <ele>716.6</ele>
        <time>2024-08-09T07:32:59Z</time>
      </trkpt>
      <trkpt lat="45.0612" lon="6.03749">
        <ele>716.4</ele>
        <time>2024-08-09T07:33:00Z</time>
      </trkpt>
      <trkpt lat="45.06123" lon="6.03749">
        <ele>716.4</ele>
        <time>2024-08-09T07:33:01Z</time>
      </trkpt>
      <trkpt lat="45.06125" lon="6.03749">
        <ele>716.4</ele>
        <time>2024-08-09T07:33:02Z</time>
      </trkpt>
      <trkpt lat="45.06127" lon="6.03749">
        <ele>716.4</ele>
        <time>2024-08-09T07:33:03Z</time>
      </trkpt>
      <trkpt lat="45.06127" lon="6.03749">
        <ele>716.4</ele>
        <time>2024-08-09T07:33:04Z</time>
      </trkpt>
      <trkpt lat="45.06131" lon="6.03748">
        <ele>716.4</ele>
        <time>2024-08-09T07:33:05Z</time>
      </trkpt>
      <trkpt lat="45.06133" lon="6.03748">
        <ele>716.4</ele>
        <time>2024-08-09T07:33:06Z</time>
      </trkpt>
      <trkpt lat="45.06133" lon="6.03748">
        <ele>716.6</ele>
        <time>2024-08-09T07:33:07Z</time>
      </trkpt>
      <trkpt lat="45.06136" lon="6.03747">
        <ele>716.6</ele>
        <time>2024-08-09T07:33:08Z</time>
      </trkpt>
      <trkpt lat="45.06136" lon="6.03747">
        <ele>716.6</ele>
        <time>2024-08-09T07:33:09Z</time>
      </trkpt>
      <trkpt lat="45.06139" lon="6.03747">
        <ele>716.6</ele>
        <time>2024-08-09T07:33:10Z</time>
      </trkpt>
      <trkpt lat="45.06139" lon="6.03747">
        <ele>716.6</ele>
        <time>2024-08-09T07:33:11Z</time>
      </trkpt>
      <trkpt lat="45.06142" lon="6.03746">
        <ele>716.4</ele>
        <time>2024-08-09T07:33:12Z</time>
      </trkpt>
      <trkpt lat="45.06144" lon="6.03746">
        <ele>716.4</ele>
        <time>2024-08-09T07:33:13Z</time>
      </trkpt>
      <trkpt lat="45.06146" lon="6.03746">
        <ele>716.4</ele>
        <time>2024-08-09T07:33:14Z</time>
      </trkpt>
      <trkpt lat="45.06146" lon="6.03746">
        <ele>716.4</ele>
        <time>2024-08-09T07:33:15Z</time>
      </trkpt>
      <trkpt lat="45.06148" lon="6.03744">
        <ele>716.4</ele>
        <time>2024-08-09T07:33:16Z</time>
      </trkpt>
      <trkpt lat="45.06148" lon="6.03744">
        <ele>716.4</ele>
        <time>2024-08-09T07:33:17Z</time>
      </trkpt>
      <trkpt lat="45.06151" lon="6.03743">
        <ele>716.4</ele>
        <time>2024-08-09T07:33:18Z</time>
      </trkpt>
      <trkpt lat="45.06151" lon="6.03743">
        <ele>716.4</ele>
        <time>2024-08-09T07:33:19Z</time>
      </trkpt>
      <trkpt lat="45.06154" lon="6.03742">
        <ele>716.2</ele>
        <time>2024-08-09T07:33:20Z</time>
      </trkpt>
      <trkpt lat="45.06154" lon="6.03742">
        <ele>716.4</ele>
        <time>2024-08-09T07:33:21Z</time>
      </trkpt>
      <trkpt lat="45.06157" lon="6.03742">
        <ele>716.2</ele>
        <time>2024-08-09T07:33:22Z</time>
      </trkpt>
      <trkpt lat="45.06157" lon="6.03742">
        <ele>716.2</ele>
        <time>2024-08-09T07:33:23Z</time>
      </trkpt>
      <trkpt lat="45.0616" lon="6.03741">
        <ele>716.2</ele>
        <time>2024-08-09T07:33:24Z</time>
      </trkpt>
      <trkpt lat="45.0616" lon="6.03741">
        <ele>716.4</ele>
        <time>2024-08-09T07:33:25Z</time>
      </trkpt>
      <trkpt lat="45.06164" lon="6.0374">
        <ele>716.4</ele>
        <time>2024-08-09T07:33:26Z</time>
      </trkpt>
      <trkpt lat="45.06164" lon="6.0374">
        <ele>716.4</ele>
        <time>2024-08-09T07:33:27Z</time>
      </trkpt>
      <trkpt lat="45.06167" lon="6.03739">
        <ele>716.4</ele>
        <time>2024-08-09T07:33:28Z</time>
      </trkpt>
      <trkpt lat="45.06167" lon="6.03739">
        <ele>716.4</ele>
        <time>2024-08-09T07:33:29Z</time>
      </trkpt>
      <trkpt lat="45.0617" lon="6.03739">
        <ele>716.4</ele>
        <time>2024-08-09T07:33:30Z</time>
      </trkpt>
      <trkpt lat="45.06172" lon="6.03738">
        <ele>716.4</ele>
        <time>2024-08-09T07:33:31Z</time>
      </trkpt>
      <trkpt lat="45.06172" lon="6.03738">
        <ele>716.4</ele>
        <time>2024-08-09T07:33:32Z</time>
      </trkpt>
      <trkpt lat="45.06175" lon="6.03737">
        <ele>716.4</ele>
        <time>2024-08-09T07:33:33Z</time>
      </trkpt>
      <trkpt lat="45.06175" lon="6.03737">
        <ele>716.2</ele>
        <time>2024-08-09T07:33:34Z</time>
      </trkpt>
      <trkpt lat="45.06178" lon="6.03736">
        <ele>716.4</ele>
        <time>2024-08-09T07:33:35Z</time>
      </trkpt>
      <trkpt lat="45.0618" lon="6.03735">
        <ele>716.4</ele>
        <time>2024-08-09T07:33:36Z</time>
      </trkpt>
      <trkpt lat="45.0618" lon="6.03735">
        <ele>716.4</ele>
        <time>2024-08-09T07:33:37Z</time>
      </trkpt>
      <trkpt lat="45.06183" lon="6.03734">
        <ele>716.2</ele>
        <time>2024-08-09T07:33:38Z</time>
      </trkpt>
      <trkpt lat="45.06183" lon="6.03734">
        <ele>716.2</ele>
        <time>2024-08-09T07:33:39Z</time>
      </trkpt>
      <trkpt lat="45.06186" lon="6.03732">
        <ele>716.2</ele>
        <time>2024-08-09T07:33:40Z</time>
      </trkpt>
      <trkpt lat="45.06186" lon="6.03732">
        <ele>716.2</ele>
        <time>2024-08-09T07:33:41Z</time>
      </trkpt>
      <trkpt lat="45.06189" lon="6.03729">
        <ele>716.2</ele>
        <time>2024-08-09T07:33:42Z</time>
      </trkpt>
      <trkpt lat="45.06189" lon="6.03729">
        <ele>716.2</ele>
        <time>2024-08-09T07:33:43Z</time>
      </trkpt>
      <trkpt lat="45.06191" lon="6.03727">
        <ele>716.2</ele>
        <time>2024-08-09T07:33:44Z</time>
      </trkpt>
      <trkpt lat="45.06191" lon="6.03727">
        <ele>716</ele>
        <time>2024-08-09T07:33:45Z</time>
      </trkpt>
      <trkpt lat="45.06194" lon="6.03724">
        <ele>716</ele>
        <time>2024-08-09T07:33:46Z</time>
      </trkpt>
      <trkpt lat="45.06197" lon="6.03723">
        <ele>716.2</ele>
        <time>2024-08-09T07:33:47Z</time>
      </trkpt>
      <trkpt lat="45.06198" lon="6.03721">
        <ele>716.2</ele>
        <time>2024-08-09T07:33:48Z</time>
      </trkpt>
      <trkpt lat="45.062" lon="6.03721">
        <ele>716.2</ele>
        <time>2024-08-09T07:33:49Z</time>
      </trkpt>
      <trkpt lat="45.062" lon="6.03721">
        <ele>716.2</ele>
        <time>2024-08-09T07:33:50Z</time>
      </trkpt>
      <trkpt lat="45.06202" lon="6.0372">
        <ele>716.2</ele>
        <time>2024-08-09T07:33:51Z</time>
      </trkpt>
      <trkpt lat="45.06202" lon="6.0372">
        <ele>716.2</ele>
        <time>2024-08-09T07:33:52Z</time>
      </trkpt>
      <trkpt lat="45.06205" lon="6.03718">
        <ele>716.4</ele>
        <time>2024-08-09T07:33:53Z</time>
      </trkpt>
      <trkpt lat="45.06205" lon="6.03718">
        <ele>716.4</ele>
        <time>2024-08-09T07:33:54Z</time>
      </trkpt>
      <trkpt lat="45.06208" lon="6.03717">
        <ele>716.4</ele>
        <time>2024-08-09T07:33:55Z</time>
      </trkpt>
      <trkpt lat="45.06208" lon="6.03717">
        <ele>716.4</ele>
        <time>2024-08-09T07:33:56Z</time>
      </trkpt>
      <trkpt lat="45.0621" lon="6.03716">
        <ele>716.4</ele>
        <time>2024-08-09T07:33:57Z</time>
      </trkpt>
      <trkpt lat="45.0621" lon="6.03716">
        <ele>716.4</ele>
        <time>2024-08-09T07:33:58Z</time>
      </trkpt>
      <trkpt lat="45.06213" lon="6.03714">
        <ele>716.4</ele>
        <time>2024-08-09T07:33:59Z</time>
      </trkpt>
      <trkpt lat="45.06213" lon="6.03714">
        <ele>716.6</ele>
        <time>2024-08-09T07:34:00Z</time>
      </trkpt>
      <trkpt lat="45.06216" lon="6.03713">
        <ele>716.6</ele>
        <time>2024-08-09T07:34:01Z</time>
      </trkpt>
      <trkpt lat="45.06216" lon="6.03713">
        <ele>716.6</ele>
        <time>2024-08-09T07:34:02Z</time>
      </trkpt>
      <trkpt lat="45.06219" lon="6.03711">
        <ele>716.4</ele>
        <time>2024-08-09T07:34:03Z</time>
      </trkpt>
      <trkpt lat="45.06219" lon="6.03711">
        <ele>716.4</ele>
        <time>2024-08-09T07:34:04Z</time>
      </trkpt>
      <trkpt lat="45.06221" lon="6.03709">
        <ele>716.4</ele>
        <time>2024-08-09T07:34:05Z</time>
      </trkpt>
      <trkpt lat="45.06221" lon="6.03709">
        <ele>716.4</ele>
        <time>2024-08-09T07:34:06Z</time>
      </trkpt>
      <trkpt lat="45.06224" lon="6.03708">
        <ele>716.4</ele>
        <time>2024-08-09T07:34:07Z</time>
      </trkpt>
      <trkpt lat="45.06224" lon="6.03708">
        <ele>716.4</ele>
        <time>2024-08-09T07:34:08Z</time>
      </trkpt>
      <trkpt lat="45.06228" lon="6.03707">
        <ele>716.4</ele>
        <time>2024-08-09T07:34:09Z</time>
      </trkpt>
      <trkpt lat="45.0623" lon="6.03707">
        <ele>716.4</ele>
        <time>2024-08-09T07:34:10Z</time>
      </trkpt>
      <trkpt lat="45.0623" lon="6.03707">
        <ele>716.4</ele>
        <time>2024-08-09T07:34:11Z</time>
      </trkpt>
      <trkpt lat="45.06234" lon="6.03706">
        <ele>716.4</ele>
        <time>2024-08-09T07:34:12Z</time>
      </trkpt>
      <trkpt lat="45.06234" lon="6.03706">
        <ele>716.4</ele>
        <time>2024-08-09T07:34:13Z</time>
      </trkpt>
      <trkpt lat="45.06236" lon="6.03705">
        <ele>716.4</ele>
        <time>2024-08-09T07:34:14Z</time>
      </trkpt>
      <trkpt lat="45.06236" lon="6.03705">
        <ele>716.4</ele>
        <time>2024-08-09T07:34:15Z</time>
      </trkpt>
      <trkpt lat="45.06239" lon="6.03704">
        <ele>716.4</ele>
        <time>2024-08-09T07:34:16Z</time>
      </trkpt>
      <trkpt lat="45.06241" lon="6.03704">
        <ele>716.4</ele>
        <time>2024-08-09T07:34:17Z</time>
      </trkpt>
      <trkpt lat="45.06241" lon="6.03704">
        <ele>716.4</ele>
        <time>2024-08-09T07:34:18Z</time>
      </trkpt>
      <trkpt lat="45.06244" lon="6.03703">
        <ele>716.4</ele>
        <time>2024-08-09T07:34:19Z</time>
      </trkpt>
      <trkpt lat="45.06244" lon="6.03703">
        <ele>716.2</ele>
        <time>2024-08-09T07:34:20Z</time>
      </trkpt>
      <trkpt lat="45.06247" lon="6.03702">
        <ele>716.2</ele>
        <time>2024-08-09T07:34:21Z</time>
      </trkpt>
      <trkpt lat="45.06247" lon="6.03702">
        <ele>716.2</ele>
        <time>2024-08-09T07:34:22Z</time>
      </trkpt>
      <trkpt lat="45.0625" lon="6.03702">
        <ele>716.4</ele>
        <time>2024-08-09T07:34:23Z</time>
      </trkpt>
      <trkpt lat="45.0625" lon="6.03702">
        <ele>716.4</ele>
        <time>2024-08-09T07:34:24Z</time>
      </trkpt>
      <trkpt lat="45.06253" lon="6.03702">
        <ele>716.4</ele>
        <time>2024-08-09T07:34:25Z</time>
      </trkpt>
      <trkpt lat="45.06255" lon="6.03702">
        <ele>716.4</ele>
        <time>2024-08-09T07:34:26Z</time>
      </trkpt>
      <trkpt lat="45.06255" lon="6.03702">
        <ele>716.2</ele>
        <time>2024-08-09T07:34:27Z</time>
      </trkpt>
      <trkpt lat="45.06258" lon="6.03702">
        <ele>716.2</ele>
        <time>2024-08-09T07:34:28Z</time>
      </trkpt>
      <trkpt lat="45.06258" lon="6.03702">
        <ele>716.2</ele>
        <time>2024-08-09T07:34:29Z</time>
      </trkpt>
      <trkpt lat="45.0626" lon="6.03702">
        <ele>716.4</ele>
        <time>2024-08-09T07:34:30Z</time>
      </trkpt>
      <trkpt lat="45.0626" lon="6.03702">
        <ele>716.4</ele>
        <time>2024-08-09T07:34:31Z</time>
      </trkpt>
      <trkpt lat="45.06263" lon="6.03703">
        <ele>716.4</ele>
        <time>2024-08-09T07:34:32Z</time>
      </trkpt>
      <trkpt lat="45.06263" lon="6.03703">
        <ele>716.2</ele>
        <time>2024-08-09T07:34:33Z</time>
      </trkpt>
      <trkpt lat="45.06267" lon="6.03703">
        <ele>716.2</ele>
        <time>2024-08-09T07:34:34Z</time>
      </trkpt>
      <trkpt lat="45.06267" lon="6.03703">
        <ele>716.4</ele>
        <time>2024-08-09T07:34:35Z</time>
      </trkpt>
      <trkpt lat="45.0627" lon="6.03703">
        <ele>716.4</ele>
        <time>2024-08-09T07:34:36Z</time>
      </trkpt>
      <trkpt lat="45.06272" lon="6.03704">
        <ele>716.4</ele>
        <time>2024-08-09T07:34:37Z</time>
      </trkpt>
      <trkpt lat="45.06272" lon="6.03704">
        <ele>716.4</ele>
        <time>2024-08-09T07:34:38Z</time>
      </trkpt>
      <trkpt lat="45.06275" lon="6.03704">
        <ele>716.4</ele>
        <time>2024-08-09T07:34:39Z</time>
      </trkpt>
      <trkpt lat="45.06275" lon="6.03704">
        <ele>716.4</ele>
        <time>2024-08-09T07:34:40Z</time>
      </trkpt>
      <trkpt lat="45.06278" lon="6.03705">
        <ele>716.4</ele>
        <time>2024-08-09T07:34:41Z</time>
      </trkpt>
      <trkpt lat="45.06278" lon="6.03705">
        <ele>716.4</ele>
        <time>2024-08-09T07:34:42Z</time>
      </trkpt>
      <trkpt lat="45.06281" lon="6.03706">
        <ele>716.4</ele>
        <time>2024-08-09T07:34:43Z</time>
      </trkpt>
      <trkpt lat="45.06281" lon="6.03706">
        <ele>716.4</ele>
        <time>2024-08-09T07:34:44Z</time>
      </trkpt>
      <trkpt lat="45.06283" lon="6.03706">
        <ele>716.4</ele>
        <time>2024-08-09T07:34:45Z</time>
      </trkpt>
      <trkpt lat="45.06283" lon="6.03706">
        <ele>716.4</ele>
        <time>2024-08-09T07:34:46Z</time>
      </trkpt>
      <trkpt lat="45.06285" lon="6.03708">
        <ele>716.4</ele>
        <time>2024-08-09T07:34:47Z</time>
      </trkpt>
      <trkpt lat="45.06285" lon="6.03708">
        <ele>716.4</ele>
        <time>2024-08-09T07:34:48Z</time>
      </trkpt>
      <trkpt lat="45.06287" lon="6.03709">
        <ele>716.4</ele>
        <time>2024-08-09T07:34:49Z</time>
      </trkpt>
      <trkpt lat="45.06287" lon="6.03709">
        <ele>716.4</ele>
        <time>2024-08-09T07:34:50Z</time>
      </trkpt>
      <trkpt lat="45.06291" lon="6.03711">
        <ele>716.4</ele>
        <time>2024-08-09T07:34:51Z</time>
      </trkpt>
      <trkpt lat="45.06291" lon="6.03711">
        <ele>716.4</ele>
        <time>2024-08-09T07:34:52Z</time>
      </trkpt>
      <trkpt lat="45.06293" lon="6.03712">
        <ele>716.8</ele>
        <time>2024-08-09T07:34:53Z</time>
      </trkpt>
      <trkpt lat="45.06293" lon="6.03712">
        <ele>716.8</ele>
        <time>2024-08-09T07:34:54Z</time>
      </trkpt>
      <trkpt lat="45.06296" lon="6.03714">
        <ele>716.4</ele>
        <time>2024-08-09T07:34:55Z</time>
      </trkpt>
      <trkpt lat="45.06296" lon="6.03714">
        <ele>716.4</ele>
        <time>2024-08-09T07:34:56Z</time>
      </trkpt>
      <trkpt lat="45.06298" lon="6.03717">
        <ele>716.4</ele>
        <time>2024-08-09T07:34:57Z</time>
      </trkpt>
      <trkpt lat="45.063" lon="6.03718">
        <ele>716.6</ele>
        <time>2024-08-09T07:34:58Z</time>
      </trkpt>
      <trkpt lat="45.06301" lon="6.03719">
        <ele>716.6</ele>
        <time>2024-08-09T07:34:59Z</time>
      </trkpt>
      <trkpt lat="45.06303" lon="6.03721">
        <ele>716.8</ele>
        <time>2024-08-09T07:35:00Z</time>
      </trkpt>
      <trkpt lat="45.06305" lon="6.03722">
        <ele>716.8</ele>
        <time>2024-08-09T07:35:01Z</time>
      </trkpt>
      <trkpt lat="45.06305" lon="6.03722">
        <ele>716.8</ele>
        <time>2024-08-09T07:35:02Z</time>
      </trkpt>
      <trkpt lat="45.06307" lon="6.03725">
        <ele>716.8</ele>
        <time>2024-08-09T07:35:03Z</time>
      </trkpt>
      <trkpt lat="45.06307" lon="6.03725">
        <ele>716.6</ele>
        <time>2024-08-09T07:35:04Z</time>
      </trkpt>
      <trkpt lat="45.06309" lon="6.03728">
        <ele>716.6</ele>
        <time>2024-08-09T07:35:05Z</time>
      </trkpt>
      <trkpt lat="45.0631" lon="6.0373">
        <ele>716.6</ele>
        <time>2024-08-09T07:35:06Z</time>
      </trkpt>
      <trkpt lat="45.0631" lon="6.0373">
        <ele>716.6</ele>
        <time>2024-08-09T07:35:07Z</time>
      </trkpt>
      <trkpt lat="45.06313" lon="6.03733">
        <ele>716.6</ele>
        <time>2024-08-09T07:35:08Z</time>
      </trkpt>
      <trkpt lat="45.06314" lon="6.03734">
        <ele>716.6</ele>
        <time>2024-08-09T07:35:09Z</time>
      </trkpt>
      <trkpt lat="45.06315" lon="6.03735">
        <ele>716.6</ele>
        <time>2024-08-09T07:35:10Z</time>
      </trkpt>
      <trkpt lat="45.06316" lon="6.03736">
        <ele>716.6</ele>
        <time>2024-08-09T07:35:11Z</time>
      </trkpt>
      <trkpt lat="45.06317" lon="6.03737">
        <ele>717</ele>
        <time>2024-08-09T07:35:12Z</time>
      </trkpt>
      <trkpt lat="45.06319" lon="6.03741">
        <ele>717</ele>
        <time>2024-08-09T07:35:13Z</time>
      </trkpt>
      <trkpt lat="45.06319" lon="6.03741">
        <ele>717</ele>
        <time>2024-08-09T07:35:14Z</time>
      </trkpt>
      <trkpt lat="45.06321" lon="6.03744">
        <ele>717</ele>
        <time>2024-08-09T07:35:15Z</time>
      </trkpt>
      <trkpt lat="45.06323" lon="6.03745">
        <ele>717</ele>
        <time>2024-08-09T07:35:16Z</time>
      </trkpt>
      <trkpt lat="45.06325" lon="6.03746">
        <ele>717</ele>
        <time>2024-08-09T07:35:17Z</time>
      </trkpt>
      <trkpt lat="45.06325" lon="6.03746">
        <ele>717</ele>
        <time>2024-08-09T07:35:18Z</time>
      </trkpt>
      <trkpt lat="45.06327" lon="6.03749">
        <ele>717</ele>
        <time>2024-08-09T07:35:19Z</time>
      </trkpt>
      <trkpt lat="45.06327" lon="6.03749">
        <ele>717</ele>
        <time>2024-08-09T07:35:20Z</time>
      </trkpt>
      <trkpt lat="45.06329" lon="6.03752">
        <ele>717.2</ele>
        <time>2024-08-09T07:35:21Z</time>
      </trkpt>
      <trkpt lat="45.06329" lon="6.03752">
        <ele>717.2</ele>
        <time>2024-08-09T07:35:22Z</time>
      </trkpt>
      <trkpt lat="45.06331" lon="6.03755">
        <ele>717.2</ele>
        <time>2024-08-09T07:35:23Z</time>
      </trkpt>
      <trkpt lat="45.06331" lon="6.03755">
        <ele>717.4</ele>
        <time>2024-08-09T07:35:24Z</time>
      </trkpt>
      <trkpt lat="45.06334" lon="6.03758">
        <ele>717.6</ele>
        <time>2024-08-09T07:35:25Z</time>
      </trkpt>
      <trkpt lat="45.06334" lon="6.03758">
        <ele>717.6</ele>
        <time>2024-08-09T07:35:26Z</time>
      </trkpt>
      <trkpt lat="45.06336" lon="6.03761">
        <ele>717.4</ele>
        <time>2024-08-09T07:35:27Z</time>
      </trkpt>
      <trkpt lat="45.06336" lon="6.03761">
        <ele>717.4</ele>
        <time>2024-08-09T07:35:28Z</time>
      </trkpt>
      <trkpt lat="45.06338" lon="6.03764">
        <ele>717.4</ele>
        <time>2024-08-09T07:35:29Z</time>
      </trkpt>
      <trkpt lat="45.06338" lon="6.03764">
        <ele>717.4</ele>
        <time>2024-08-09T07:35:30Z</time>
      </trkpt>
      <trkpt lat="45.0634" lon="6.03767">
        <ele>717.4</ele>
        <time>2024-08-09T07:35:31Z</time>
      </trkpt>
      <trkpt lat="45.0634" lon="6.03767">
        <ele>717.6</ele>
        <time>2024-08-09T07:35:32Z</time>
      </trkpt>
      <trkpt lat="45.06343" lon="6.0377">
        <ele>717.6</ele>
        <time>2024-08-09T07:35:33Z</time>
      </trkpt>
      <trkpt lat="45.06343" lon="6.0377">
        <ele>717.6</ele>
        <time>2024-08-09T07:35:34Z</time>
      </trkpt>
      <trkpt lat="45.06345" lon="6.03773">
        <ele>717.6</ele>
        <time>2024-08-09T07:35:35Z</time>
      </trkpt>
      <trkpt lat="45.06345" lon="6.03773">
        <ele>717.6</ele>
        <time>2024-08-09T07:35:36Z</time>
      </trkpt>
      <trkpt lat="45.06346" lon="6.03776">
        <ele>717.6</ele>
        <time>2024-08-09T07:35:37Z</time>
      </trkpt>
      <trkpt lat="45.06346" lon="6.03776">
        <ele>717.6</ele>
        <time>2024-08-09T07:35:38Z</time>
      </trkpt>
      <trkpt lat="45.06347" lon="6.03779">
        <ele>717.6</ele>
        <time>2024-08-09T07:35:39Z</time>
      </trkpt>
      <trkpt lat="45.06349" lon="6.0378">
        <ele>717.6</ele>
        <time>2024-08-09T07:35:40Z</time>
      </trkpt>
      <trkpt lat="45.0635" lon="6.03781">
        <ele>717.6</ele>
        <time>2024-08-09T07:35:41Z</time>
      </trkpt>
      <trkpt lat="45.06352" lon="6.03783">
        <ele>717.8</ele>
        <time>2024-08-09T07:35:42Z</time>
      </trkpt>
      <trkpt lat="45.06352" lon="6.03783">
        <ele>717.8</ele>
        <time>2024-08-09T07:35:43Z</time>
      </trkpt>
      <trkpt lat="45.06355" lon="6.03786">
        <ele>717.8</ele>
        <time>2024-08-09T07:35:44Z</time>
      </trkpt>
      <trkpt lat="45.06355" lon="6.03786">
        <ele>718</ele>
        <time>2024-08-09T07:35:45Z</time>
      </trkpt>
      <trkpt lat="45.06357" lon="6.03789">
        <ele>718</ele>
        <time>2024-08-09T07:35:46Z</time>
      </trkpt>
      <trkpt lat="45.06357" lon="6.03789">
        <ele>718</ele>
        <time>2024-08-09T07:35:47Z</time>
      </trkpt>
      <trkpt lat="45.06359" lon="6.03792">
        <ele>718</ele>
        <time>2024-08-09T07:35:48Z</time>
      </trkpt>
      <trkpt lat="45.06359" lon="6.03792">
        <ele>718.2</ele>
        <time>2024-08-09T07:35:49Z</time>
      </trkpt>
      <trkpt lat="45.06362" lon="6.03795">
        <ele>718.4</ele>
        <time>2024-08-09T07:35:50Z</time>
      </trkpt>
      <trkpt lat="45.06362" lon="6.03795">
        <ele>718.4</ele>
        <time>2024-08-09T07:35:51Z</time>
      </trkpt>
      <trkpt lat="45.06364" lon="6.03798">
        <ele>718.4</ele>
        <time>2024-08-09T07:35:52Z</time>
      </trkpt>
      <trkpt lat="45.06364" lon="6.03798">
        <ele>718.4</ele>
        <time>2024-08-09T07:35:53Z</time>
      </trkpt>
      <trkpt lat="45.06365" lon="6.03801">
        <ele>718.4</ele>
        <time>2024-08-09T07:35:54Z</time>
      </trkpt>
      <trkpt lat="45.06365" lon="6.03801">
        <ele>718.4</ele>
        <time>2024-08-09T07:35:55Z</time>
      </trkpt>
      <trkpt lat="45.06367" lon="6.03804">
        <ele>718.4</ele>
        <time>2024-08-09T07:35:56Z</time>
      </trkpt>
      <trkpt lat="45.06367" lon="6.03804">
        <ele>718.4</ele>
        <time>2024-08-09T07:35:57Z</time>
      </trkpt>
      <trkpt lat="45.0637" lon="6.03807">
        <ele>718.4</ele>
        <time>2024-08-09T07:35:58Z</time>
      </trkpt>
      <trkpt lat="45.0637" lon="6.03807">
        <ele>718.4</ele>
        <time>2024-08-09T07:35:59Z</time>
      </trkpt>
      <trkpt lat="45.06372" lon="6.0381">
        <ele>718.4</ele>
        <time>2024-08-09T07:36:00Z</time>
      </trkpt>
      <trkpt lat="45.06372" lon="6.0381">
        <ele>718.4</ele>
        <time>2024-08-09T07:36:01Z</time>
      </trkpt>
      <trkpt lat="45.06373" lon="6.03813">
        <ele>718.4</ele>
        <time>2024-08-09T07:36:02Z</time>
      </trkpt>
      <trkpt lat="45.06373" lon="6.03813">
        <ele>718.4</ele>
        <time>2024-08-09T07:36:03Z</time>
      </trkpt>
      <trkpt lat="45.06375" lon="6.03816">
        <ele>718.4</ele>
        <time>2024-08-09T07:36:04Z</time>
      </trkpt>
      <trkpt lat="45.06375" lon="6.03816">
        <ele>718.4</ele>
        <time>2024-08-09T07:36:05Z</time>
      </trkpt>
      <trkpt lat="45.06377" lon="6.03818">
        <ele>718.4</ele>
        <time>2024-08-09T07:36:06Z</time>
      </trkpt>
      <trkpt lat="45.06377" lon="6.03818">
        <ele>718.4</ele>
        <time>2024-08-09T07:36:07Z</time>
      </trkpt>
      <trkpt lat="45.06379" lon="6.03821">
        <ele>718.4</ele>
        <time>2024-08-09T07:36:08Z</time>
      </trkpt>
      <trkpt lat="45.06379" lon="6.03821">
        <ele>718.4</ele>
        <time>2024-08-09T07:36:09Z</time>
      </trkpt>
      <trkpt lat="45.06382" lon="6.03824">
        <ele>718.6</ele>
        <time>2024-08-09T07:36:10Z</time>
      </trkpt>
      <trkpt lat="45.06382" lon="6.03824">
        <ele>718.6</ele>
        <time>2024-08-09T07:36:11Z</time>
      </trkpt>
      <trkpt lat="45.06384" lon="6.03827">
        <ele>719.2</ele>
        <time>2024-08-09T07:36:12Z</time>
      </trkpt>
      <trkpt lat="45.06384" lon="6.03827">
        <ele>719.2</ele>
        <time>2024-08-09T07:36:13Z</time>
      </trkpt>
      <trkpt lat="45.06387" lon="6.0383">
        <ele>719</ele>
        <time>2024-08-09T07:36:14Z</time>
      </trkpt>
      <trkpt lat="45.06389" lon="6.03832">
        <ele>719</ele>
        <time>2024-08-09T07:36:15Z</time>
      </trkpt>
      <trkpt lat="45.0639" lon="6.03834">
        <ele>719.2</ele>
        <time>2024-08-09T07:36:16Z</time>
      </trkpt>
      <trkpt lat="45.0639" lon="6.03834">
        <ele>719.2</ele>
        <time>2024-08-09T07:36:17Z</time>
      </trkpt>
      <trkpt lat="45.06392" lon="6.03837">
        <ele>719.4</ele>
        <time>2024-08-09T07:36:18Z</time>
      </trkpt>
      <trkpt lat="45.06392" lon="6.03837">
        <ele>719.4</ele>
        <time>2024-08-09T07:36:19Z</time>
      </trkpt>
      <trkpt lat="45.06394" lon="6.03839">
        <ele>719.4</ele>
        <time>2024-08-09T07:36:20Z</time>
      </trkpt>
      <trkpt lat="45.06394" lon="6.03839">
        <ele>719.4</ele>
        <time>2024-08-09T07:36:21Z</time>
      </trkpt>
      <trkpt lat="45.06397" lon="6.03842">
        <ele>719.6</ele>
        <time>2024-08-09T07:36:22Z</time>
      </trkpt>
      <trkpt lat="45.06398" lon="6.03844">
        <ele>720</ele>
        <time>2024-08-09T07:36:23Z</time>
      </trkpt>
      <trkpt lat="45.064" lon="6.03845">
        <ele>720</ele>
        <time>2024-08-09T07:36:24Z</time>
      </trkpt>
      <trkpt lat="45.064" lon="6.03845">
        <ele>719.8</ele>
        <time>2024-08-09T07:36:25Z</time>
      </trkpt>
      <trkpt lat="45.06402" lon="6.03849">
        <ele>719.8</ele>
        <time>2024-08-09T07:36:26Z</time>
      </trkpt>
      <trkpt lat="45.06402" lon="6.03849">
        <ele>720</ele>
        <time>2024-08-09T07:36:27Z</time>
      </trkpt>
      <trkpt lat="45.06404" lon="6.03852">
        <ele>720</ele>
        <time>2024-08-09T07:36:28Z</time>
      </trkpt>
      <trkpt lat="45.06404" lon="6.03852">
        <ele>720</ele>
        <time>2024-08-09T07:36:29Z</time>
      </trkpt>
      <trkpt lat="45.06406" lon="6.03855">
        <ele>720</ele>
        <time>2024-08-09T07:36:30Z</time>
      </trkpt>
      <trkpt lat="45.06408" lon="6.03856">
        <ele>720.2</ele>
        <time>2024-08-09T07:36:31Z</time>
      </trkpt>
      <trkpt lat="45.06408" lon="6.03856">
        <ele>720.2</ele>
        <time>2024-08-09T07:36:32Z</time>
      </trkpt>
      <trkpt lat="45.0641" lon="6.03859">
        <ele>720.2</ele>
        <time>2024-08-09T07:36:33Z</time>
      </trkpt>
      <trkpt lat="45.06412" lon="6.0386">
        <ele>720.2</ele>
        <time>2024-08-09T07:36:34Z</time>
      </trkpt>
      <trkpt lat="45.06412" lon="6.0386">
        <ele>720.2</ele>
        <time>2024-08-09T07:36:35Z</time>
      </trkpt>
      <trkpt lat="45.06414" lon="6.03864">
        <ele>720.2</ele>
        <time>2024-08-09T07:36:36Z</time>
      </trkpt>
      <trkpt lat="45.06416" lon="6.03865">
        <ele>720.2</ele>
        <time>2024-08-09T07:36:37Z</time>
      </trkpt>
      <trkpt lat="45.06416" lon="6.03865">
        <ele>720.4</ele>
        <time>2024-08-09T07:36:38Z</time>
      </trkpt>
      <trkpt lat="45.06417" lon="6.03868">
        <ele>720.6</ele>
        <time>2024-08-09T07:36:39Z</time>
      </trkpt>
      <trkpt lat="45.06417" lon="6.03868">
        <ele>720.6</ele>
        <time>2024-08-09T07:36:40Z</time>
      </trkpt>
      <trkpt lat="45.06419" lon="6.03871">
        <ele>720.6</ele>
        <time>2024-08-09T07:36:41Z</time>
      </trkpt>
      <trkpt lat="45.06419" lon="6.03871">
        <ele>720.6</ele>
        <time>2024-08-09T07:36:42Z</time>
      </trkpt>
      <trkpt lat="45.06421" lon="6.03874">
        <ele>720.6</ele>
        <time>2024-08-09T07:36:43Z</time>
      </trkpt>
      <trkpt lat="45.06423" lon="6.03876">
        <ele>720.6</ele>
        <time>2024-08-09T07:36:44Z</time>
      </trkpt>
      <trkpt lat="45.06423" lon="6.03876">
        <ele>720.6</ele>
        <time>2024-08-09T07:36:45Z</time>
      </trkpt>
      <trkpt lat="45.06425" lon="6.03879">
        <ele>720.6</ele>
        <time>2024-08-09T07:36:46Z</time>
      </trkpt>
      <trkpt lat="45.06425" lon="6.03879">
        <ele>720.8</ele>
        <time>2024-08-09T07:36:47Z</time>
      </trkpt>
      <trkpt lat="45.06427" lon="6.03882">
        <ele>721</ele>
        <time>2024-08-09T07:36:48Z</time>
      </trkpt>
      <trkpt lat="45.06427" lon="6.03882">
        <ele>721</ele>
        <time>2024-08-09T07:36:49Z</time>
      </trkpt>
      <trkpt lat="45.06429" lon="6.03885">
        <ele>721</ele>
        <time>2024-08-09T07:36:50Z</time>
      </trkpt>
      <trkpt lat="45.06429" lon="6.03885">
        <ele>721</ele>
        <time>2024-08-09T07:36:51Z</time>
      </trkpt>
      <trkpt lat="45.0643" lon="6.03888">
        <ele>721</ele>
        <time>2024-08-09T07:36:52Z</time>
      </trkpt>
      <trkpt lat="45.0643" lon="6.03888">
        <ele>721</ele>
        <time>2024-08-09T07:36:53Z</time>
      </trkpt>
      <trkpt lat="45.06432" lon="6.03891">
        <ele>721</ele>
        <time>2024-08-09T07:36:54Z</time>
      </trkpt>
      <trkpt lat="45.06432" lon="6.03891">
        <ele>721</ele>
        <time>2024-08-09T07:36:55Z</time>
      </trkpt>
      <trkpt lat="45.06434" lon="6.03894">
        <ele>721</ele>
        <time>2024-08-09T07:36:56Z</time>
      </trkpt>
      <trkpt lat="45.06434" lon="6.03894">
        <ele>721</ele>
        <time>2024-08-09T07:36:57Z</time>
      </trkpt>
      <trkpt lat="45.06436" lon="6.03897">
        <ele>721.2</ele>
        <time>2024-08-09T07:36:58Z</time>
      </trkpt>
      <trkpt lat="45.06436" lon="6.03897">
        <ele>721.4</ele>
        <time>2024-08-09T07:36:59Z</time>
      </trkpt>
      <trkpt lat="45.06438" lon="6.039">
        <ele>721.4</ele>
        <time>2024-08-09T07:37:00Z</time>
      </trkpt>
      <trkpt lat="45.06438" lon="6.039">
        <ele>721.6</ele>
        <time>2024-08-09T07:37:01Z</time>
      </trkpt>
      <trkpt lat="45.0644" lon="6.03903">
        <ele>721.8</ele>
        <time>2024-08-09T07:37:02Z</time>
      </trkpt>
      <trkpt lat="45.06442" lon="6.03904">
        <ele>721.8</ele>
        <time>2024-08-09T07:37:03Z</time>
      </trkpt>
      <trkpt lat="45.06442" lon="6.03904">
        <ele>721.8</ele>
        <time>2024-08-09T07:37:04Z</time>
      </trkpt>
      <trkpt lat="45.06444" lon="6.03908">
        <ele>722</ele>
        <time>2024-08-09T07:37:05Z</time>
      </trkpt>
      <trkpt lat="45.06444" lon="6.03908">
        <ele>722</ele>
        <time>2024-08-09T07:37:06Z</time>
      </trkpt>
      <trkpt lat="45.06444" lon="6.03908">
        <ele>722</ele>
        <time>2024-08-09T07:37:07Z</time>
      </trkpt>
      <trkpt lat="45.06444" lon="6.03908">
        <ele>722</ele>
        <time>2024-08-09T07:37:08Z</time>
      </trkpt>
      <trkpt lat="45.06444" lon="6.03908">
        <ele>722.2</ele>
        <time>2024-08-09T07:37:09Z</time>
      </trkpt>
      <trkpt lat="45.06444" lon="6.03908">
        <ele>722.2</ele>
        <time>2024-08-09T07:37:10Z</time>
      </trkpt>
      <trkpt lat="45.06444" lon="6.03908">
        <ele>722.2</ele>
        <time>2024-08-09T07:37:11Z</time>
      </trkpt>
      <trkpt lat="45.06444" lon="6.03908">
        <ele>722.2</ele>
        <time>2024-08-09T07:37:12Z</time>
      </trkpt>
      <trkpt lat="45.06442" lon="6.0391">
        <ele>722</ele>
        <time>2024-08-09T07:37:13Z</time>
      </trkpt>
      <trkpt lat="45.06442" lon="6.0391">
        <ele>722</ele>
        <time>2024-08-09T07:37:14Z</time>
      </trkpt>
      <trkpt lat="45.06442" lon="6.0391">
        <ele>722.2</ele>
        <time>2024-08-09T07:37:15Z</time>
      </trkpt>
      <trkpt lat="45.06444" lon="6.03914">
        <ele>722.2</ele>
        <time>2024-08-09T07:37:16Z</time>
      </trkpt>
      <trkpt lat="45.06444" lon="6.03914">
        <ele>722.4</ele>
        <time>2024-08-09T07:37:17Z</time>
      </trkpt>
      <trkpt lat="45.06446" lon="6.03918">
        <ele>722.4</ele>
        <time>2024-08-09T07:37:18Z</time>
      </trkpt>
      <trkpt lat="45.06447" lon="6.0392">
        <ele>722.2</ele>
        <time>2024-08-09T07:37:19Z</time>
      </trkpt>
      <trkpt lat="45.06449" lon="6.03922">
        <ele>722.2</ele>
        <time>2024-08-09T07:37:20Z</time>
      </trkpt>
      <trkpt lat="45.06449" lon="6.03922">
        <ele>722.2</ele>
        <time>2024-08-09T07:37:21Z</time>
      </trkpt>
      <trkpt lat="45.06451" lon="6.03925">
        <ele>722.2</ele>
        <time>2024-08-09T07:37:22Z</time>
      </trkpt>
      <trkpt lat="45.06452" lon="6.03927">
        <ele>722.2</ele>
        <time>2024-08-09T07:37:23Z</time>
      </trkpt>
      <trkpt lat="45.06452" lon="6.03927">
        <ele>722.2</ele>
        <time>2024-08-09T07:37:24Z</time>
      </trkpt>
      <trkpt lat="45.06455" lon="6.0393">
        <ele>722.4</ele>
        <time>2024-08-09T07:37:25Z</time>
      </trkpt>
      <trkpt lat="45.06455" lon="6.0393">
        <ele>722.4</ele>
        <time>2024-08-09T07:37:26Z</time>
      </trkpt>
      <trkpt lat="45.06457" lon="6.03932">
        <ele>722.2</ele>
        <time>2024-08-09T07:37:27Z</time>
      </trkpt>
      <trkpt lat="45.06457" lon="6.03932">
        <ele>722.2</ele>
        <time>2024-08-09T07:37:28Z</time>
      </trkpt>
      <trkpt lat="45.06459" lon="6.03935">
        <ele>722.2</ele>
        <time>2024-08-09T07:37:29Z</time>
      </trkpt>
      <trkpt lat="45.0646" lon="6.03937">
        <ele>722.2</ele>
        <time>2024-08-09T07:37:30Z</time>
      </trkpt>
      <trkpt lat="45.06462" lon="6.03938">
        <ele>722.2</ele>
        <time>2024-08-09T07:37:31Z</time>
      </trkpt>
      <trkpt lat="45.06462" lon="6.03938">
        <ele>722.2</ele>
        <time>2024-08-09T07:37:32Z</time>
      </trkpt>
      <trkpt lat="45.06464" lon="6.03942">
        <ele>722.2</ele>
        <time>2024-08-09T07:37:33Z</time>
      </trkpt>
      <trkpt lat="45.06466" lon="6.03943">
        <ele>722.2</ele>
        <time>2024-08-09T07:37:34Z</time>
      </trkpt>
      <trkpt lat="45.06466" lon="6.03943">
        <ele>722.2</ele>
        <time>2024-08-09T07:37:35Z</time>
      </trkpt>
      <trkpt lat="45.06468" lon="6.03947">
        <ele>722.2</ele>
        <time>2024-08-09T07:37:36Z</time>
      </trkpt>
      <trkpt lat="45.06468" lon="6.03947">
        <ele>722.2</ele>
        <time>2024-08-09T07:37:37Z</time>
      </trkpt>
      <trkpt lat="45.06471" lon="6.0395">
        <ele>722.2</ele>
        <time>2024-08-09T07:37:38Z</time>
      </trkpt>
      <trkpt lat="45.06472" lon="6.03952">
        <ele>722.2</ele>
        <time>2024-08-09T07:37:39Z</time>
      </trkpt>
      <trkpt lat="45.06472" lon="6.03952">
        <ele>722.2</ele>
        <time>2024-08-09T07:37:40Z</time>
      </trkpt>
      <trkpt lat="45.06475" lon="6.03955">
        <ele>722.2</ele>
        <time>2024-08-09T07:37:41Z</time>
      </trkpt>
      <trkpt lat="45.06475" lon="6.03955">
        <ele>722</ele>
        <time>2024-08-09T07:37:42Z</time>
      </trkpt>
      <trkpt lat="45.06477" lon="6.03958">
        <ele>722</ele>
        <time>2024-08-09T07:37:43Z</time>
      </trkpt>
      <trkpt lat="45.06477" lon="6.03958">
        <ele>722</ele>
        <time>2024-08-09T07:37:44Z</time>
      </trkpt>
      <trkpt lat="45.06478" lon="6.0396">
        <ele>722</ele>
        <time>2024-08-09T07:37:45Z</time>
      </trkpt>
      <trkpt lat="45.06478" lon="6.0396">
        <ele>722</ele>
        <time>2024-08-09T07:37:46Z</time>
      </trkpt>
      <trkpt lat="45.06481" lon="6.03963">
        <ele>722</ele>
        <time>2024-08-09T07:37:47Z</time>
      </trkpt>
      <trkpt lat="45.06481" lon="6.03963">
        <ele>722</ele>
        <time>2024-08-09T07:37:48Z</time>
      </trkpt>
      <trkpt lat="45.06483" lon="6.03966">
        <ele>722</ele>
        <time>2024-08-09T07:37:49Z</time>
      </trkpt>
      <trkpt lat="45.06484" lon="6.03968">
        <ele>722</ele>
        <time>2024-08-09T07:37:50Z</time>
      </trkpt>
      <trkpt lat="45.06484" lon="6.03968">
        <ele>722</ele>
        <time>2024-08-09T07:37:51Z</time>
      </trkpt>
      <trkpt lat="45.06486" lon="6.0397">
        <ele>722</ele>
        <time>2024-08-09T07:37:52Z</time>
      </trkpt>
      <trkpt lat="45.06486" lon="6.0397">
        <ele>722</ele>
        <time>2024-08-09T07:37:53Z</time>
      </trkpt>
      <trkpt lat="45.06488" lon="6.03973">
        <ele>722</ele>
        <time>2024-08-09T07:37:54Z</time>
      </trkpt>
      <trkpt lat="45.0649" lon="6.03975">
        <ele>722</ele>
        <time>2024-08-09T07:37:55Z</time>
      </trkpt>
      <trkpt lat="45.06491" lon="6.03976">
        <ele>722</ele>
        <time>2024-08-09T07:37:56Z</time>
      </trkpt>
      <trkpt lat="45.06491" lon="6.03977">
        <ele>722</ele>
        <time>2024-08-09T07:37:57Z</time>
      </trkpt>
      <trkpt lat="45.06492" lon="6.03978">
        <ele>722</ele>
        <time>2024-08-09T07:37:58Z</time>
      </trkpt>
      <trkpt lat="45.06494" lon="6.03982">
        <ele>722</ele>
        <time>2024-08-09T07:37:59Z</time>
      </trkpt>
      <trkpt lat="45.06496" lon="6.03983">
        <ele>722</ele>
        <time>2024-08-09T07:38:00Z</time>
      </trkpt>
      <trkpt lat="45.06496" lon="6.03983">
        <ele>721.8</ele>
        <time>2024-08-09T07:38:01Z</time>
      </trkpt>
      <trkpt lat="45.06498" lon="6.03986">
        <ele>721.8</ele>
        <time>2024-08-09T07:38:02Z</time>
      </trkpt>
      <trkpt lat="45.06498" lon="6.03986">
        <ele>721.8</ele>
        <time>2024-08-09T07:38:03Z</time>
      </trkpt>
      <trkpt lat="45.06501" lon="6.03989">
        <ele>721.8</ele>
        <time>2024-08-09T07:38:04Z</time>
      </trkpt>
      <trkpt lat="45.06501" lon="6.03989">
        <ele>721.8</ele>
        <time>2024-08-09T07:38:05Z</time>
      </trkpt>
      <trkpt lat="45.06503" lon="6.03992">
        <ele>721.8</ele>
        <time>2024-08-09T07:38:06Z</time>
      </trkpt>
      <trkpt lat="45.06503" lon="6.03992">
        <ele>721.8</ele>
        <time>2024-08-09T07:38:07Z</time>
      </trkpt>
      <trkpt lat="45.06505" lon="6.03995">
        <ele>721.8</ele>
        <time>2024-08-09T07:38:08Z</time>
      </trkpt>
      <trkpt lat="45.06505" lon="6.03995">
        <ele>721.6</ele>
        <time>2024-08-09T07:38:09Z</time>
      </trkpt>
      <trkpt lat="45.06506" lon="6.03998">
        <ele>721.6</ele>
        <time>2024-08-09T07:38:10Z</time>
      </trkpt>
      <trkpt lat="45.06506" lon="6.03998">
        <ele>721.8</ele>
        <time>2024-08-09T07:38:11Z</time>
      </trkpt>
      <trkpt lat="45.06508" lon="6.04001">
        <ele>721.8</ele>
        <time>2024-08-09T07:38:12Z</time>
      </trkpt>
      <trkpt lat="45.06508" lon="6.04001">
        <ele>721.8</ele>
        <time>2024-08-09T07:38:13Z</time>
      </trkpt>
      <trkpt lat="45.0651" lon="6.04004">
        <ele>721.6</ele>
        <time>2024-08-09T07:38:14Z</time>
      </trkpt>
      <trkpt lat="45.0651" lon="6.04004">
        <ele>721.6</ele>
        <time>2024-08-09T07:38:15Z</time>
      </trkpt>
      <trkpt lat="45.06512" lon="6.04006">
        <ele>721.6</ele>
        <time>2024-08-09T07:38:16Z</time>
      </trkpt>
      <trkpt lat="45.06512" lon="6.04006">
        <ele>721.6</ele>
        <time>2024-08-09T07:38:17Z</time>
      </trkpt>
      <trkpt lat="45.06514" lon="6.04008">
        <ele>721.4</ele>
        <time>2024-08-09T07:38:18Z</time>
      </trkpt>
      <trkpt lat="45.06514" lon="6.04008">
        <ele>721.4</ele>
        <time>2024-08-09T07:38:19Z</time>
      </trkpt>
      <trkpt lat="45.06517" lon="6.04009">
        <ele>721.4</ele>
        <time>2024-08-09T07:38:20Z</time>
      </trkpt>
      <trkpt lat="45.06517" lon="6.04009">
        <ele>721.4</ele>
        <time>2024-08-09T07:38:21Z</time>
      </trkpt>
      <trkpt lat="45.06517" lon="6.04009">
        <ele>721.4</ele>
        <time>2024-08-09T07:38:22Z</time>
      </trkpt>
      <trkpt lat="45.06519" lon="6.04009">
        <ele>721.4</ele>
        <time>2024-08-09T07:38:23Z</time>
      </trkpt>
      <trkpt lat="45.06519" lon="6.04009">
        <ele>721.2</ele>
        <time>2024-08-09T07:38:24Z</time>
      </trkpt>
      <trkpt lat="45.06522" lon="6.04008">
        <ele>721.2</ele>
        <time>2024-08-09T07:38:25Z</time>
      </trkpt>
      <trkpt lat="45.06522" lon="6.04008">
        <ele>721.2</ele>
        <time>2024-08-09T07:38:26Z</time>
      </trkpt>
      <trkpt lat="45.06524" lon="6.04007">
        <ele>721.2</ele>
        <time>2024-08-09T07:38:27Z</time>
      </trkpt>
      <trkpt lat="45.06524" lon="6.04007">
        <ele>721.2</ele>
        <time>2024-08-09T07:38:28Z</time>
      </trkpt>
      <trkpt lat="45.06527" lon="6.04006">
        <ele>721</ele>
        <time>2024-08-09T07:38:29Z</time>
      </trkpt>
      <trkpt lat="45.06527" lon="6.04006">
        <ele>720.8</ele>
        <time>2024-08-09T07:38:30Z</time>
      </trkpt>
      <trkpt lat="45.0653" lon="6.04005">
        <ele>720.8</ele>
        <time>2024-08-09T07:38:31Z</time>
      </trkpt>
      <trkpt lat="45.0653" lon="6.04002">
        <ele>720.4</ele>
        <time>2024-08-09T07:38:32Z</time>
      </trkpt>
      <trkpt lat="45.0653" lon="6.03997">
        <ele>720.2</ele>
        <time>2024-08-09T07:38:33Z</time>
      </trkpt>
      <trkpt lat="45.0653" lon="6.03997">
        <ele>720.2</ele>
        <time>2024-08-09T07:38:34Z</time>
      </trkpt>
      <trkpt lat="45.06532" lon="6.03994">
        <ele>720.2</ele>
        <time>2024-08-09T07:38:35Z</time>
      </trkpt>
      <trkpt lat="45.06532" lon="6.03994">
        <ele>720.2</ele>
        <time>2024-08-09T07:38:36Z</time>
      </trkpt>
      <trkpt lat="45.06534" lon="6.03992">
        <ele>720.4</ele>
        <time>2024-08-09T07:38:37Z</time>
      </trkpt>
      <trkpt lat="45.06534" lon="6.03992">
        <ele>720.4</ele>
        <time>2024-08-09T07:38:38Z</time>
      </trkpt>
      <trkpt lat="45.06535" lon="6.0399">
        <ele>720.4</ele>
        <time>2024-08-09T07:38:39Z</time>
      </trkpt>
      <trkpt lat="45.06535" lon="6.0399">
        <ele>720.2</ele>
        <time>2024-08-09T07:38:40Z</time>
      </trkpt>
      <trkpt lat="45.06538" lon="6.03988">
        <ele>720</ele>
        <time>2024-08-09T07:38:41Z</time>
      </trkpt>
      <trkpt lat="45.06538" lon="6.03988">
        <ele>720</ele>
        <time>2024-08-09T07:38:42Z</time>
      </trkpt>
      <trkpt lat="45.06541" lon="6.03987">
        <ele>719.6</ele>
        <time>2024-08-09T07:38:43Z</time>
      </trkpt>
      <trkpt lat="45.06541" lon="6.03987">
        <ele>719.6</ele>
        <time>2024-08-09T07:38:44Z</time>
      </trkpt>
      <trkpt lat="45.06545" lon="6.03985">
        <ele>719.4</ele>
        <time>2024-08-09T07:38:45Z</time>
      </trkpt>
      <trkpt lat="45.06545" lon="6.03985">
        <ele>719.4</ele>
        <time>2024-08-09T07:38:46Z</time>
      </trkpt>
      <trkpt lat="45.06547" lon="6.03984">
        <ele>719.4</ele>
        <time>2024-08-09T07:38:47Z</time>
      </trkpt>
      <trkpt lat="45.06547" lon="6.03984">
        <ele>719.6</ele>
        <time>2024-08-09T07:38:48Z</time>
      </trkpt>
      <trkpt lat="45.06548" lon="6.0398">
        <ele>719.6</ele>
        <time>2024-08-09T07:38:49Z</time>
      </trkpt>
      <trkpt lat="45.0655" lon="6.03978">
        <ele>719.8</ele>
        <time>2024-08-09T07:38:50Z</time>
      </trkpt>
      <trkpt lat="45.0655" lon="6.03978">
        <ele>719.8</ele>
        <time>2024-08-09T07:38:51Z</time>
      </trkpt>
      <trkpt lat="45.06553" lon="6.03976">
        <ele>719.8</ele>
        <time>2024-08-09T07:38:52Z</time>
      </trkpt>
      <trkpt lat="45.06553" lon="6.03976">
        <ele>719.4</ele>
        <time>2024-08-09T07:38:53Z</time>
      </trkpt>
      <trkpt lat="45.06556" lon="6.03975">
        <ele>719.2</ele>
        <time>2024-08-09T07:38:54Z</time>
      </trkpt>
      <trkpt lat="45.06556" lon="6.03975">
        <ele>719.2</ele>
        <time>2024-08-09T07:38:55Z</time>
      </trkpt>
      <trkpt lat="45.06559" lon="6.03973">
        <ele>719.2</ele>
        <time>2024-08-09T07:38:56Z</time>
      </trkpt>
      <trkpt lat="45.06561" lon="6.03972">
        <ele>719.2</ele>
        <time>2024-08-09T07:38:57Z</time>
      </trkpt>
      <trkpt lat="45.06562" lon="6.03971">
        <ele>719</ele>
        <time>2024-08-09T07:38:58Z</time>
      </trkpt>
      <trkpt lat="45.06563" lon="6.0397">
        <ele>719</ele>
        <time>2024-08-09T07:38:59Z</time>
      </trkpt>
      <trkpt lat="45.06563" lon="6.03969">
        <ele>719.2</ele>
        <time>2024-08-09T07:39:00Z</time>
      </trkpt>
      <trkpt lat="45.06566" lon="6.03968">
        <ele>719.4</ele>
        <time>2024-08-09T07:39:01Z</time>
      </trkpt>
      <trkpt lat="45.06566" lon="6.03968">
        <ele>719.2</ele>
        <time>2024-08-09T07:39:02Z</time>
      </trkpt>
      <trkpt lat="45.06569" lon="6.03966">
        <ele>719.2</ele>
        <time>2024-08-09T07:39:03Z</time>
      </trkpt>
      <trkpt lat="45.06569" lon="6.03966">
        <ele>719.2</ele>
        <time>2024-08-09T07:39:04Z</time>
      </trkpt>
      <trkpt lat="45.06571" lon="6.03964">
        <ele>719.2</ele>
        <time>2024-08-09T07:39:05Z</time>
      </trkpt>
      <trkpt lat="45.06571" lon="6.03964">
        <ele>719.2</ele>
        <time>2024-08-09T07:39:06Z</time>
      </trkpt>
      <trkpt lat="45.06574" lon="6.03963">
        <ele>719.2</ele>
        <time>2024-08-09T07:39:07Z</time>
      </trkpt>
      <trkpt lat="45.06574" lon="6.03963">
        <ele>719.2</ele>
        <time>2024-08-09T07:39:08Z</time>
      </trkpt>
      <trkpt lat="45.06577" lon="6.03961">
        <ele>719.2</ele>
        <time>2024-08-09T07:39:09Z</time>
      </trkpt>
      <trkpt lat="45.06577" lon="6.03961">
        <ele>719</ele>
        <time>2024-08-09T07:39:10Z</time>
      </trkpt>
      <trkpt lat="45.06579" lon="6.0396">
        <ele>718.8</ele>
        <time>2024-08-09T07:39:11Z</time>
      </trkpt>
      <trkpt lat="45.06579" lon="6.0396">
        <ele>718.8</ele>
        <time>2024-08-09T07:39:12Z</time>
      </trkpt>
      <trkpt lat="45.06582" lon="6.03959">
        <ele>719</ele>
        <time>2024-08-09T07:39:13Z</time>
      </trkpt>
      <trkpt lat="45.06582" lon="6.03959">
        <ele>719</ele>
        <time>2024-08-09T07:39:14Z</time>
      </trkpt>
      <trkpt lat="45.06585" lon="6.03957">
        <ele>718.8</ele>
        <time>2024-08-09T07:39:15Z</time>
      </trkpt>
      <trkpt lat="45.06585" lon="6.03957">
        <ele>718.8</ele>
        <time>2024-08-09T07:39:16Z</time>
      </trkpt>
      <trkpt lat="45.06588" lon="6.03956">
        <ele>718.4</ele>
        <time>2024-08-09T07:39:17Z</time>
      </trkpt>
      <trkpt lat="45.06588" lon="6.03956">
        <ele>718.4</ele>
        <time>2024-08-09T07:39:18Z</time>
      </trkpt>
      <trkpt lat="45.0659" lon="6.03954">
        <ele>718.4</ele>
        <time>2024-08-09T07:39:19Z</time>
      </trkpt>
      <trkpt lat="45.0659" lon="6.03954">
        <ele>718.4</ele>
        <time>2024-08-09T07:39:20Z</time>
      </trkpt>
      <trkpt lat="45.06593" lon="6.03952">
        <ele>718.4</ele>
        <time>2024-08-09T07:39:21Z</time>
      </trkpt>
      <trkpt lat="45.06593" lon="6.03952">
        <ele>718.4</ele>
        <time>2024-08-09T07:39:22Z</time>
      </trkpt>
      <trkpt lat="45.06595" lon="6.0395">
        <ele>718.4</ele>
        <time>2024-08-09T07:39:23Z</time>
      </trkpt>
      <trkpt lat="45.06595" lon="6.0395">
        <ele>718.4</ele>
        <time>2024-08-09T07:39:24Z</time>
      </trkpt>
      <trkpt lat="45.06597" lon="6.03948">
        <ele>718.4</ele>
        <time>2024-08-09T07:39:25Z</time>
      </trkpt>
      <trkpt lat="45.06597" lon="6.03948">
        <ele>718.6</ele>
        <time>2024-08-09T07:39:26Z</time>
      </trkpt>
      <trkpt lat="45.06597" lon="6.03948">
        <ele>718.6</ele>
        <time>2024-08-09T07:39:27Z</time>
      </trkpt>
      <trkpt lat="45.06597" lon="6.03948">
        <ele>718.6</ele>
        <time>2024-08-09T07:39:28Z</time>
      </trkpt>
      <trkpt lat="45.066" lon="6.03946">
        <ele>718.6</ele>
        <time>2024-08-09T07:39:29Z</time>
      </trkpt>
      <trkpt lat="45.066" lon="6.03946">
        <ele>718.6</ele>
        <time>2024-08-09T07:39:30Z</time>
      </trkpt>
      <trkpt lat="45.06602" lon="6.03945">
        <ele>718.6</ele>
        <time>2024-08-09T07:39:31Z</time>
      </trkpt>
      <trkpt lat="45.06602" lon="6.03945">
        <ele>718.6</ele>
        <time>2024-08-09T07:39:32Z</time>
      </trkpt>
      <trkpt lat="45.06605" lon="6.03943">
        <ele>718.6</ele>
        <time>2024-08-09T07:39:33Z</time>
      </trkpt>
      <trkpt lat="45.06605" lon="6.03943">
        <ele>718.4</ele>
        <time>2024-08-09T07:39:34Z</time>
      </trkpt>
      <trkpt lat="45.06607" lon="6.03941">
        <ele>718.4</ele>
        <time>2024-08-09T07:39:35Z</time>
      </trkpt>
      <trkpt lat="45.06607" lon="6.03941">
        <ele>718.8</ele>
        <time>2024-08-09T07:39:36Z</time>
      </trkpt>
      <trkpt lat="45.0661" lon="6.03939">
        <ele>718.8</ele>
        <time>2024-08-09T07:39:37Z</time>
      </trkpt>
      <trkpt lat="45.0661" lon="6.03939">
        <ele>718.6</ele>
        <time>2024-08-09T07:39:38Z</time>
      </trkpt>
      <trkpt lat="45.06613" lon="6.03938">
        <ele>718.6</ele>
        <time>2024-08-09T07:39:39Z</time>
      </trkpt>
      <trkpt lat="45.06613" lon="6.03938">
        <ele>718.4</ele>
        <time>2024-08-09T07:39:40Z</time>
      </trkpt>
      <trkpt lat="45.06616" lon="6.03936">
        <ele>718.4</ele>
        <time>2024-08-09T07:39:41Z</time>
      </trkpt>
      <trkpt lat="45.06616" lon="6.03936">
        <ele>718.2</ele>
        <time>2024-08-09T07:39:42Z</time>
      </trkpt>
      <trkpt lat="45.06619" lon="6.03934">
        <ele>718.2</ele>
        <time>2024-08-09T07:39:43Z</time>
      </trkpt>
      <trkpt lat="45.06619" lon="6.03934">
        <ele>718.4</ele>
        <time>2024-08-09T07:39:44Z</time>
      </trkpt>
      <trkpt lat="45.06621" lon="6.03933">
        <ele>718.4</ele>
        <time>2024-08-09T07:39:45Z</time>
      </trkpt>
      <trkpt lat="45.06621" lon="6.03933">
        <ele>718.2</ele>
        <time>2024-08-09T07:39:46Z</time>
      </trkpt>
      <trkpt lat="45.06624" lon="6.03931">
        <ele>718.2</ele>
        <time>2024-08-09T07:39:47Z</time>
      </trkpt>
      <trkpt lat="45.06624" lon="6.03931">
        <ele>718.2</ele>
        <time>2024-08-09T07:39:48Z</time>
      </trkpt>
      <trkpt lat="45.06627" lon="6.03929">
        <ele>718.2</ele>
        <time>2024-08-09T07:39:49Z</time>
      </trkpt>
      <trkpt lat="45.06628" lon="6.03928">
        <ele>718.2</ele>
        <time>2024-08-09T07:39:50Z</time>
      </trkpt>
      <trkpt lat="45.06628" lon="6.03928">
        <ele>718.2</ele>
        <time>2024-08-09T07:39:51Z</time>
      </trkpt>
      <trkpt lat="45.06631" lon="6.03926">
        <ele>718.4</ele>
        <time>2024-08-09T07:39:52Z</time>
      </trkpt>
      <trkpt lat="45.06631" lon="6.03926">
        <ele>718.4</ele>
        <time>2024-08-09T07:39:53Z</time>
      </trkpt>
      <trkpt lat="45.06634" lon="6.03925">
        <ele>718.4</ele>
        <time>2024-08-09T07:39:54Z</time>
      </trkpt>
      <trkpt lat="45.06634" lon="6.03925">
        <ele>718.4</ele>
        <time>2024-08-09T07:39:55Z</time>
      </trkpt>
      <trkpt lat="45.06637" lon="6.03923">
        <ele>718.6</ele>
        <time>2024-08-09T07:39:56Z</time>
      </trkpt>
      <trkpt lat="45.06637" lon="6.03923">
        <ele>718.6</ele>
        <time>2024-08-09T07:39:57Z</time>
      </trkpt>
      <trkpt lat="45.0664" lon="6.03921">
        <ele>718.4</ele>
        <time>2024-08-09T07:39:58Z</time>
      </trkpt>
      <trkpt lat="45.0664" lon="6.03921">
        <ele>718.4</ele>
        <time>2024-08-09T07:39:59Z</time>
      </trkpt>
      <trkpt lat="45.06643" lon="6.03919">
        <ele>718.4</ele>
        <time>2024-08-09T07:40:00Z</time>
      </trkpt>
      <trkpt lat="45.06645" lon="6.03917">
        <ele>718.2</ele>
        <time>2024-08-09T07:40:02Z</time>
      </trkpt>
      <trkpt lat="45.06647" lon="6.03916">
        <ele>718.4</ele>
        <time>2024-08-09T07:40:03Z</time>
      </trkpt>
      <trkpt lat="45.06649" lon="6.03915">
        <ele>718.4</ele>
        <time>2024-08-09T07:40:04Z</time>
      </trkpt>
      <trkpt lat="45.0665" lon="6.03914">
        <ele>718.6</ele>
        <time>2024-08-09T07:40:05Z</time>
      </trkpt>
      <trkpt lat="45.0665" lon="6.03914">
        <ele>718.6</ele>
        <time>2024-08-09T07:40:06Z</time>
      </trkpt>
      <trkpt lat="45.06653" lon="6.03912">
        <ele>718.6</ele>
        <time>2024-08-09T07:40:07Z</time>
      </trkpt>
      <trkpt lat="45.06654" lon="6.03912">
        <ele>718.6</ele>
        <time>2024-08-09T07:40:08Z</time>
      </trkpt>
      <trkpt lat="45.06655" lon="6.03912">
        <ele>718.6</ele>
        <time>2024-08-09T07:40:09Z</time>
      </trkpt>
      <trkpt lat="45.06657" lon="6.0391">
        <ele>718.6</ele>
        <time>2024-08-09T07:40:10Z</time>
      </trkpt>
      <trkpt lat="45.06657" lon="6.0391">
        <ele>718.6</ele>
        <time>2024-08-09T07:40:11Z</time>
      </trkpt>
      <trkpt lat="45.0666" lon="6.0391">
        <ele>718.8</ele>
        <time>2024-08-09T07:40:12Z</time>
      </trkpt>
      <trkpt lat="45.0666" lon="6.0391">
        <ele>718.8</ele>
        <time>2024-08-09T07:40:13Z</time>
      </trkpt>
      <trkpt lat="45.06663" lon="6.03908">
        <ele>718.8</ele>
        <time>2024-08-09T07:40:14Z</time>
      </trkpt>
      <trkpt lat="45.06663" lon="6.03908">
        <ele>718.4</ele>
        <time>2024-08-09T07:40:15Z</time>
      </trkpt>
      <trkpt lat="45.06665" lon="6.03907">
        <ele>718.4</ele>
        <time>2024-08-09T07:40:16Z</time>
      </trkpt>
      <trkpt lat="45.06665" lon="6.03907">
        <ele>718.6</ele>
        <time>2024-08-09T07:40:17Z</time>
      </trkpt>
      <trkpt lat="45.06668" lon="6.03906">
        <ele>718.6</ele>
        <time>2024-08-09T07:40:18Z</time>
      </trkpt>
      <trkpt lat="45.06668" lon="6.03906">
        <ele>718.6</ele>
        <time>2024-08-09T07:40:19Z</time>
      </trkpt>
      <trkpt lat="45.06671" lon="6.03907">
        <ele>718.4</ele>
        <time>2024-08-09T07:40:20Z</time>
      </trkpt>
      <trkpt lat="45.06671" lon="6.03907">
        <ele>718.6</ele>
        <time>2024-08-09T07:40:21Z</time>
      </trkpt>
      <trkpt lat="45.06673" lon="6.03909">
        <ele>718.6</ele>
        <time>2024-08-09T07:40:22Z</time>
      </trkpt>
      <trkpt lat="45.06673" lon="6.03909">
        <ele>719</ele>
        <time>2024-08-09T07:40:23Z</time>
      </trkpt>
      <trkpt lat="45.06674" lon="6.03911">
        <ele>719</ele>
        <time>2024-08-09T07:40:24Z</time>
      </trkpt>
      <trkpt lat="45.06674" lon="6.03911">
        <ele>718.8</ele>
        <time>2024-08-09T07:40:25Z</time>
      </trkpt>
      <trkpt lat="45.06675" lon="6.03913">
        <ele>718.8</ele>
        <time>2024-08-09T07:40:26Z</time>
      </trkpt>
      <trkpt lat="45.06675" lon="6.03913">
        <ele>719.2</ele>
        <time>2024-08-09T07:40:27Z</time>
      </trkpt>
      <trkpt lat="45.06677" lon="6.03915">
        <ele>719.6</ele>
        <time>2024-08-09T07:40:28Z</time>
      </trkpt>
      <trkpt lat="45.06677" lon="6.03915">
        <ele>720</ele>
        <time>2024-08-09T07:40:29Z</time>
      </trkpt>
      <trkpt lat="45.06677" lon="6.03915">
        <ele>720</ele>
        <time>2024-08-09T07:40:30Z</time>
      </trkpt>
      <trkpt lat="45.06677" lon="6.03915">
        <ele>720.4</ele>
        <time>2024-08-09T07:40:31Z</time>
      </trkpt>
      <trkpt lat="45.06679" lon="6.03916">
        <ele>720.4</ele>
        <time>2024-08-09T07:40:32Z</time>
      </trkpt>
      <trkpt lat="45.06679" lon="6.03916">
        <ele>720.4</ele>
        <time>2024-08-09T07:40:33Z</time>
      </trkpt>
      <trkpt lat="45.06679" lon="6.03916">
        <ele>720.4</ele>
        <time>2024-08-09T07:40:34Z</time>
      </trkpt>
      <trkpt lat="45.06681" lon="6.03917">
        <ele>720.6</ele>
        <time>2024-08-09T07:40:35Z</time>
      </trkpt>
      <trkpt lat="45.06681" lon="6.03917">
        <ele>720.8</ele>
        <time>2024-08-09T07:40:36Z</time>
      </trkpt>
      <trkpt lat="45.06681" lon="6.03917">
        <ele>720.8</ele>
        <time>2024-08-09T07:40:37Z</time>
      </trkpt>
      <trkpt lat="45.06681" lon="6.03917">
        <ele>721</ele>
        <time>2024-08-09T07:40:38Z</time>
      </trkpt>
      <trkpt lat="45.06683" lon="6.03917">
        <ele>721</ele>
        <time>2024-08-09T07:40:39Z</time>
      </trkpt>
      <trkpt lat="45.06683" lon="6.03917">
        <ele>721.2</ele>
        <time>2024-08-09T07:40:40Z</time>
      </trkpt>
      <trkpt lat="45.06683" lon="6.03917">
        <ele>721.4</ele>
        <time>2024-08-09T07:40:41Z</time>
      </trkpt>
      <trkpt lat="45.06683" lon="6.03917">
        <ele>721.4</ele>
        <time>2024-08-09T07:40:42Z</time>
      </trkpt>
      <trkpt lat="45.06683" lon="6.03919">
        <ele>722.4</ele>
        <time>2024-08-09T07:40:43Z</time>
      </trkpt>
      <trkpt lat="45.06683" lon="6.03919">
        <ele>722.6</ele>
        <time>2024-08-09T07:40:44Z</time>
      </trkpt>
      <trkpt lat="45.06683" lon="6.03919">
        <ele>722.6</ele>
        <time>2024-08-09T07:40:45Z</time>
      </trkpt>
      <trkpt lat="45.06682" lon="6.03922">
        <ele>722.8</ele>
        <time>2024-08-09T07:40:46Z</time>
      </trkpt>
      <trkpt lat="45.06682" lon="6.03922">
        <ele>723.2</ele>
        <time>2024-08-09T07:40:47Z</time>
      </trkpt>
      <trkpt lat="45.06682" lon="6.03922">
        <ele>723.2</ele>
        <time>2024-08-09T07:40:48Z</time>
      </trkpt>
      <trkpt lat="45.06682" lon="6.03922">
        <ele>723.6</ele>
        <time>2024-08-09T07:40:49Z</time>
      </trkpt>
      <trkpt lat="45.06682" lon="6.03922">
        <ele>723.6</ele>
        <time>2024-08-09T07:40:50Z</time>
      </trkpt>
      <trkpt lat="45.06682" lon="6.03922">
        <ele>723.8</ele>
        <time>2024-08-09T07:40:51Z</time>
      </trkpt>
      <trkpt lat="45.06682" lon="6.03922">
        <ele>724.4</ele>
        <time>2024-08-09T07:40:52Z</time>
      </trkpt>
      <trkpt lat="45.06685" lon="6.03922">
        <ele>724.8</ele>
        <time>2024-08-09T07:40:53Z</time>
      </trkpt>
      <trkpt lat="45.06685" lon="6.03922">
        <ele>725</ele>
        <time>2024-08-09T07:40:54Z</time>
      </trkpt>
      <trkpt lat="45.06686" lon="6.03922">
        <ele>725</ele>
        <time>2024-08-09T07:40:55Z</time>
      </trkpt>
      <trkpt lat="45.06686" lon="6.03922">
        <ele>725.6</ele>
        <time>2024-08-09T07:40:56Z</time>
      </trkpt>
      <trkpt lat="45.06688" lon="6.03922">
        <ele>725.8</ele>
        <time>2024-08-09T07:40:57Z</time>
      </trkpt>
      <trkpt lat="45.06688" lon="6.03922">
        <ele>726</ele>
        <time>2024-08-09T07:40:58Z</time>
      </trkpt>
      <trkpt lat="45.06688" lon="6.03922">
        <ele>726.2</ele>
        <time>2024-08-09T07:40:59Z</time>
      </trkpt>
      <trkpt lat="45.06688" lon="6.03922">
        <ele>726.2</ele>
        <time>2024-08-09T07:41:00Z</time>
      </trkpt>
      <trkpt lat="45.06691" lon="6.03922">
        <ele>726.4</ele>
        <time>2024-08-09T07:41:01Z</time>
      </trkpt>
      <trkpt lat="45.06691" lon="6.03922">
        <ele>726.8</ele>
        <time>2024-08-09T07:41:02Z</time>
      </trkpt>
      <trkpt lat="45.06691" lon="6.03922">
        <ele>726.8</ele>
        <time>2024-08-09T07:41:03Z</time>
      </trkpt>
      <trkpt lat="45.06691" lon="6.03922">
        <ele>727</ele>
        <time>2024-08-09T07:41:04Z</time>
      </trkpt>
      <trkpt lat="45.06691" lon="6.03922">
        <ele>727</ele>
        <time>2024-08-09T07:41:05Z</time>
      </trkpt>
      <trkpt lat="45.06691" lon="6.03925">
        <ele>727.4</ele>
        <time>2024-08-09T07:41:06Z</time>
      </trkpt>
      <trkpt lat="45.06691" lon="6.03925">
        <ele>727.6</ele>
        <time>2024-08-09T07:41:07Z</time>
      </trkpt>
      <trkpt lat="45.0669" lon="6.03927">
        <ele>727.6</ele>
        <time>2024-08-09T07:41:08Z</time>
      </trkpt>
      <trkpt lat="45.0669" lon="6.03927">
        <ele>727.8</ele>
        <time>2024-08-09T07:41:09Z</time>
      </trkpt>
      <trkpt lat="45.0669" lon="6.03927">
        <ele>728.2</ele>
        <time>2024-08-09T07:41:10Z</time>
      </trkpt>
      <trkpt lat="45.0669" lon="6.03927">
        <ele>728.6</ele>
        <time>2024-08-09T07:41:11Z</time>
      </trkpt>
      <trkpt lat="45.0669" lon="6.03927">
        <ele>728.8</ele>
        <time>2024-08-09T07:41:12Z</time>
      </trkpt>
      <trkpt lat="45.0669" lon="6.03927">
        <ele>728.8</ele>
        <time>2024-08-09T07:41:13Z</time>
      </trkpt>
      <trkpt lat="45.0669" lon="6.03927">
        <ele>729</ele>
        <time>2024-08-09T07:41:14Z</time>
      </trkpt>
      <trkpt lat="45.0669" lon="6.03927">
        <ele>729.4</ele>
        <time>2024-08-09T07:41:15Z</time>
      </trkpt>
      <trkpt lat="45.0669" lon="6.03927">
        <ele>729.4</ele>
        <time>2024-08-09T07:41:16Z</time>
      </trkpt>
      <trkpt lat="45.0669" lon="6.03927">
        <ele>729.6</ele>
        <time>2024-08-09T07:41:17Z</time>
      </trkpt>
      <trkpt lat="45.0669" lon="6.03927">
        <ele>730</ele>
        <time>2024-08-09T07:41:18Z</time>
      </trkpt>
      <trkpt lat="45.0669" lon="6.03927">
        <ele>730.2</ele>
        <time>2024-08-09T07:41:19Z</time>
      </trkpt>
      <trkpt lat="45.06692" lon="6.03928">
        <ele>730.4</ele>
        <time>2024-08-09T07:41:20Z</time>
      </trkpt>
      <trkpt lat="45.06692" lon="6.03928">
        <ele>730.8</ele>
        <time>2024-08-09T07:41:21Z</time>
      </trkpt>
      <trkpt lat="45.06692" lon="6.03928">
        <ele>730.8</ele>
        <time>2024-08-09T07:41:22Z</time>
      </trkpt>
      <trkpt lat="45.06694" lon="6.03928">
        <ele>731</ele>
        <time>2024-08-09T07:41:23Z</time>
      </trkpt>
      <trkpt lat="45.06694" lon="6.03928">
        <ele>731.2</ele>
        <time>2024-08-09T07:41:24Z</time>
      </trkpt>
      <trkpt lat="45.06696" lon="6.03928">
        <ele>731.4</ele>
        <time>2024-08-09T07:41:25Z</time>
      </trkpt>
      <trkpt lat="45.06696" lon="6.03928">
        <ele>731.8</ele>
        <time>2024-08-09T07:41:26Z</time>
      </trkpt>
      <trkpt lat="45.06696" lon="6.03928">
        <ele>731.8</ele>
        <time>2024-08-09T07:41:27Z</time>
      </trkpt>
      <trkpt lat="45.06696" lon="6.03928">
        <ele>732</ele>
        <time>2024-08-09T07:41:28Z</time>
      </trkpt>
      <trkpt lat="45.06699" lon="6.03928">
        <ele>732.6</ele>
        <time>2024-08-09T07:41:29Z</time>
      </trkpt>
      <trkpt lat="45.06699" lon="6.03928">
        <ele>732.8</ele>
        <time>2024-08-09T07:41:30Z</time>
      </trkpt>
      <trkpt lat="45.06699" lon="6.03928">
        <ele>733.4</ele>
        <time>2024-08-09T07:41:31Z</time>
      </trkpt>
      <trkpt lat="45.06699" lon="6.03928">
        <ele>733.6</ele>
        <time>2024-08-09T07:41:32Z</time>
      </trkpt>
      <trkpt lat="45.06699" lon="6.03928">
        <ele>733.8</ele>
        <time>2024-08-09T07:41:33Z</time>
      </trkpt>
      <trkpt lat="45.067" lon="6.03931">
        <ele>733.8</ele>
        <time>2024-08-09T07:41:34Z</time>
      </trkpt>
      <trkpt lat="45.067" lon="6.03931">
        <ele>734</ele>
        <time>2024-08-09T07:41:35Z</time>
      </trkpt>
      <trkpt lat="45.067" lon="6.03931">
        <ele>734.2</ele>
        <time>2024-08-09T07:41:36Z</time>
      </trkpt>
      <trkpt lat="45.06698" lon="6.03932">
        <ele>734.2</ele>
        <time>2024-08-09T07:41:37Z</time>
      </trkpt>
      <trkpt lat="45.06698" lon="6.03932">
        <ele>734.6</ele>
        <time>2024-08-09T07:41:38Z</time>
      </trkpt>
      <trkpt lat="45.06696" lon="6.03934">
        <ele>735</ele>
        <time>2024-08-09T07:41:39Z</time>
      </trkpt>
      <trkpt lat="45.06696" lon="6.03934">
        <ele>735.2</ele>
        <time>2024-08-09T07:41:40Z</time>
      </trkpt>
      <trkpt lat="45.06696" lon="6.03934">
        <ele>735.4</ele>
        <time>2024-08-09T07:41:41Z</time>
      </trkpt>
      <trkpt lat="45.06696" lon="6.03934">
        <ele>736.2</ele>
        <time>2024-08-09T07:41:42Z</time>
      </trkpt>
      <trkpt lat="45.06696" lon="6.03934">
        <ele>736.2</ele>
        <time>2024-08-09T07:41:43Z</time>
      </trkpt>
      <trkpt lat="45.06696" lon="6.03934">
        <ele>736.4</ele>
        <time>2024-08-09T07:41:44Z</time>
      </trkpt>
      <trkpt lat="45.06696" lon="6.03934">
        <ele>736.4</ele>
        <time>2024-08-09T07:41:45Z</time>
      </trkpt>
      <trkpt lat="45.06694" lon="6.03936">
        <ele>736.4</ele>
        <time>2024-08-09T07:41:46Z</time>
      </trkpt>
      <trkpt lat="45.06694" lon="6.03936">
        <ele>736.4</ele>
        <time>2024-08-09T07:41:47Z</time>
      </trkpt>
      <trkpt lat="45.06693" lon="6.03939">
        <ele>737.2</ele>
        <time>2024-08-09T07:41:48Z</time>
      </trkpt>
      <trkpt lat="45.06693" lon="6.03939">
        <ele>737.4</ele>
        <time>2024-08-09T07:41:49Z</time>
      </trkpt>
      <trkpt lat="45.06693" lon="6.03939">
        <ele>737.4</ele>
        <time>2024-08-09T07:41:50Z</time>
      </trkpt>
      <trkpt lat="45.06693" lon="6.03939">
        <ele>737.8</ele>
        <time>2024-08-09T07:41:51Z</time>
      </trkpt>
      <trkpt lat="45.06695" lon="6.0394">
        <ele>738</ele>
        <time>2024-08-09T07:41:52Z</time>
      </trkpt>
      <trkpt lat="45.06695" lon="6.0394">
        <ele>738.4</ele>
        <time>2024-08-09T07:41:53Z</time>
      </trkpt>
      <trkpt lat="45.06695" lon="6.0394">
        <ele>738.4</ele>
        <time>2024-08-09T07:41:54Z</time>
      </trkpt>
      <trkpt lat="45.06697" lon="6.0394">
        <ele>738.6</ele>
        <time>2024-08-09T07:41:55Z</time>
      </trkpt>
      <trkpt lat="45.06697" lon="6.0394">
        <ele>738.8</ele>
        <time>2024-08-09T07:41:56Z</time>
      </trkpt>
      <trkpt lat="45.06697" lon="6.0394">
        <ele>739</ele>
        <time>2024-08-09T07:41:57Z</time>
      </trkpt>
      <trkpt lat="45.06697" lon="6.0394">
        <ele>739</ele>
        <time>2024-08-09T07:41:58Z</time>
      </trkpt>
      <trkpt lat="45.06697" lon="6.0394">
        <ele>739.2</ele>
        <time>2024-08-09T07:41:59Z</time>
      </trkpt>
      <trkpt lat="45.06697" lon="6.0394">
        <ele>739.4</ele>
        <time>2024-08-09T07:42:00Z</time>
      </trkpt>
      <trkpt lat="45.06697" lon="6.0394">
        <ele>739.8</ele>
        <time>2024-08-09T07:42:01Z</time>
      </trkpt>
      <trkpt lat="45.06697" lon="6.0394">
        <ele>740.2</ele>
        <time>2024-08-09T07:42:02Z</time>
      </trkpt>
      <trkpt lat="45.06697" lon="6.0394">
        <ele>740.2</ele>
        <time>2024-08-09T07:42:03Z</time>
      </trkpt>
      <trkpt lat="45.06697" lon="6.0394">
        <ele>740.6</ele>
        <time>2024-08-09T07:42:04Z</time>
      </trkpt>
      <trkpt lat="45.06697" lon="6.0394">
        <ele>740.8</ele>
        <time>2024-08-09T07:42:05Z</time>
      </trkpt>
      <trkpt lat="45.06697" lon="6.0394">
        <ele>740.8</ele>
        <time>2024-08-09T07:42:06Z</time>
      </trkpt>
      <trkpt lat="45.06697" lon="6.0394">
        <ele>741.2</ele>
        <time>2024-08-09T07:42:07Z</time>
      </trkpt>
      <trkpt lat="45.06697" lon="6.0394">
        <ele>741.2</ele>
        <time>2024-08-09T07:42:08Z</time>
      </trkpt>
      <trkpt lat="45.06697" lon="6.0394">
        <ele>741.2</ele>
        <time>2024-08-09T07:42:09Z</time>
      </trkpt>
      <trkpt lat="45.06697" lon="6.0394">
        <ele>741.6</ele>
        <time>2024-08-09T07:42:10Z</time>
      </trkpt>
      <trkpt lat="45.06697" lon="6.0394">
        <ele>741.8</ele>
        <time>2024-08-09T07:42:11Z</time>
      </trkpt>
      <trkpt lat="45.06698" lon="6.03942">
        <ele>742.4</ele>
        <time>2024-08-09T07:42:12Z</time>
      </trkpt>
      <trkpt lat="45.06698" lon="6.03942">
        <ele>742.4</ele>
        <time>2024-08-09T07:42:13Z</time>
      </trkpt>
      <trkpt lat="45.06697" lon="6.03945">
        <ele>742.6</ele>
        <time>2024-08-09T07:42:14Z</time>
      </trkpt>
      <trkpt lat="45.06697" lon="6.03945">
        <ele>743.2</ele>
        <time>2024-08-09T07:42:15Z</time>
      </trkpt>
      <trkpt lat="45.06699" lon="6.03948">
        <ele>743.2</ele>
        <time>2024-08-09T07:42:16Z</time>
      </trkpt>
      <trkpt lat="45.06699" lon="6.03948">
        <ele>743.2</ele>
        <time>2024-08-09T07:42:17Z</time>
      </trkpt>
      <trkpt lat="45.06701" lon="6.03948">
        <ele>743.2</ele>
        <time>2024-08-09T07:42:18Z</time>
      </trkpt>
      <trkpt lat="45.06701" lon="6.03948">
        <ele>743.4</ele>
        <time>2024-08-09T07:42:19Z</time>
      </trkpt>
      <trkpt lat="45.06703" lon="6.03948">
        <ele>743.6</ele>
        <time>2024-08-09T07:42:20Z</time>
      </trkpt>
      <trkpt lat="45.06703" lon="6.03948">
        <ele>743.6</ele>
        <time>2024-08-09T07:42:21Z</time>
      </trkpt>
      <trkpt lat="45.06706" lon="6.03948">
        <ele>744</ele>
        <time>2024-08-09T07:42:22Z</time>
      </trkpt>
      <trkpt lat="45.06706" lon="6.03948">
        <ele>744.4</ele>
        <time>2024-08-09T07:42:23Z</time>
      </trkpt>
      <trkpt lat="45.06708" lon="6.03948">
        <ele>744.4</ele>
        <time>2024-08-09T07:42:24Z</time>
      </trkpt>
      <trkpt lat="45.06708" lon="6.03948">
        <ele>744.4</ele>
        <time>2024-08-09T07:42:25Z</time>
      </trkpt>
      <trkpt lat="45.0671" lon="6.03947">
        <ele>744.8</ele>
        <time>2024-08-09T07:42:26Z</time>
      </trkpt>
      <trkpt lat="45.0671" lon="6.03947">
        <ele>744.8</ele>
        <time>2024-08-09T07:42:27Z</time>
      </trkpt>
      <trkpt lat="45.06713" lon="6.03946">
        <ele>744.8</ele>
        <time>2024-08-09T07:42:28Z</time>
      </trkpt>
      <trkpt lat="45.06713" lon="6.03946">
        <ele>745.2</ele>
        <time>2024-08-09T07:42:29Z</time>
      </trkpt>
      <trkpt lat="45.06715" lon="6.03946">
        <ele>745.2</ele>
        <time>2024-08-09T07:42:30Z</time>
      </trkpt>
      <trkpt lat="45.06715" lon="6.03946">
        <ele>745.6</ele>
        <time>2024-08-09T07:42:31Z</time>
      </trkpt>
      <trkpt lat="45.06717" lon="6.03945">
        <ele>745.6</ele>
        <time>2024-08-09T07:42:32Z</time>
      </trkpt>
      <trkpt lat="45.06717" lon="6.03945">
        <ele>745.6</ele>
        <time>2024-08-09T07:42:33Z</time>
      </trkpt>
      <trkpt lat="45.06719" lon="6.03946">
        <ele>745.6</ele>
        <time>2024-08-09T07:42:34Z</time>
      </trkpt>
      <trkpt lat="45.06719" lon="6.03946">
        <ele>745.6</ele>
        <time>2024-08-09T07:42:35Z</time>
      </trkpt>
      <trkpt lat="45.06719" lon="6.03946">
        <ele>745.8</ele>
        <time>2024-08-09T07:42:36Z</time>
      </trkpt>
      <trkpt lat="45.06723" lon="6.03945">
        <ele>746.2</ele>
        <time>2024-08-09T07:42:37Z</time>
      </trkpt>
      <trkpt lat="45.06723" lon="6.03945">
        <ele>746.2</ele>
        <time>2024-08-09T07:42:38Z</time>
      </trkpt>
      <trkpt lat="45.06725" lon="6.03944">
        <ele>746.4</ele>
        <time>2024-08-09T07:42:39Z</time>
      </trkpt>
      <trkpt lat="45.06725" lon="6.03944">
        <ele>746.6</ele>
        <time>2024-08-09T07:42:40Z</time>
      </trkpt>
      <trkpt lat="45.06727" lon="6.03944">
        <ele>746.8</ele>
        <time>2024-08-09T07:42:41Z</time>
      </trkpt>
      <trkpt lat="45.06727" lon="6.03944">
        <ele>746.8</ele>
        <time>2024-08-09T07:42:42Z</time>
      </trkpt>
      <trkpt lat="45.0673" lon="6.03944">
        <ele>747</ele>
        <time>2024-08-09T07:42:43Z</time>
      </trkpt>
      <trkpt lat="45.0673" lon="6.03944">
        <ele>747.2</ele>
        <time>2024-08-09T07:42:44Z</time>
      </trkpt>
      <trkpt lat="45.06732" lon="6.03943">
        <ele>747.4</ele>
        <time>2024-08-09T07:42:45Z</time>
      </trkpt>
      <trkpt lat="45.06732" lon="6.03943">
        <ele>747.6</ele>
        <time>2024-08-09T07:42:46Z</time>
      </trkpt>
      <trkpt lat="45.06734" lon="6.03943">
        <ele>747.6</ele>
        <time>2024-08-09T07:42:47Z</time>
      </trkpt>
      <trkpt lat="45.06734" lon="6.03943">
        <ele>747.8</ele>
        <time>2024-08-09T07:42:48Z</time>
      </trkpt>
      <trkpt lat="45.06736" lon="6.03945">
        <ele>748</ele>
        <time>2024-08-09T07:42:49Z</time>
      </trkpt>
      <trkpt lat="45.06736" lon="6.03945">
        <ele>748.2</ele>
        <time>2024-08-09T07:42:50Z</time>
      </trkpt>
      <trkpt lat="45.06738" lon="6.03948">
        <ele>748.2</ele>
        <time>2024-08-09T07:42:51Z</time>
      </trkpt>
      <trkpt lat="45.06738" lon="6.03948">
        <ele>748.2</ele>
        <time>2024-08-09T07:42:52Z</time>
      </trkpt>
      <trkpt lat="45.06739" lon="6.0395">
        <ele>748.6</ele>
        <time>2024-08-09T07:42:53Z</time>
      </trkpt>
      <trkpt lat="45.06739" lon="6.0395">
        <ele>748.6</ele>
        <time>2024-08-09T07:42:54Z</time>
      </trkpt>
      <trkpt lat="45.06741" lon="6.03952">
        <ele>748.8</ele>
        <time>2024-08-09T07:42:55Z</time>
      </trkpt>
      <trkpt lat="45.06741" lon="6.03952">
        <ele>748.8</ele>
        <time>2024-08-09T07:42:56Z</time>
      </trkpt>
      <trkpt lat="45.06744" lon="6.03953">
        <ele>749</ele>
        <time>2024-08-09T07:42:57Z</time>
      </trkpt>
      <trkpt lat="45.06744" lon="6.03953">
        <ele>749</ele>
        <time>2024-08-09T07:42:58Z</time>
      </trkpt>
      <trkpt lat="45.06747" lon="6.03952">
        <ele>749.2</ele>
        <time>2024-08-09T07:42:59Z</time>
      </trkpt>
      <trkpt lat="45.06747" lon="6.03952">
        <ele>749.2</ele>
        <time>2024-08-09T07:43:00Z</time>
      </trkpt>
      <trkpt lat="45.06749" lon="6.03951">
        <ele>749.2</ele>
        <time>2024-08-09T07:43:01Z</time>
      </trkpt>
      <trkpt lat="45.06749" lon="6.03951">
        <ele>749.6</ele>
        <time>2024-08-09T07:43:02Z</time>
      </trkpt>
      <trkpt lat="45.06751" lon="6.03951">
        <ele>749.6</ele>
        <time>2024-08-09T07:43:03Z</time>
      </trkpt>
      <trkpt lat="45.06751" lon="6.03951">
        <ele>749.8</ele>
        <time>2024-08-09T07:43:04Z</time>
      </trkpt>
      <trkpt lat="45.06753" lon="6.03951">
        <ele>750</ele>
        <time>2024-08-09T07:43:05Z</time>
      </trkpt>
      <trkpt lat="45.06753" lon="6.03951">
        <ele>750.4</ele>
        <time>2024-08-09T07:43:06Z</time>
      </trkpt>
      <trkpt lat="45.06756" lon="6.0395">
        <ele>750.4</ele>
        <time>2024-08-09T07:43:07Z</time>
      </trkpt>
      <trkpt lat="45.06756" lon="6.0395">
        <ele>750.4</ele>
        <time>2024-08-09T07:43:08Z</time>
      </trkpt>
      <trkpt lat="45.06758" lon="6.0395">
        <ele>750.6</ele>
        <time>2024-08-09T07:43:09Z</time>
      </trkpt>
      <trkpt lat="45.06758" lon="6.0395">
        <ele>750.8</ele>
        <time>2024-08-09T07:43:10Z</time>
      </trkpt>
      <trkpt lat="45.0676" lon="6.0395">
        <ele>751</ele>
        <time>2024-08-09T07:43:11Z</time>
      </trkpt>
      <trkpt lat="45.0676" lon="6.0395">
        <ele>751</ele>
        <time>2024-08-09T07:43:12Z</time>
      </trkpt>
      <trkpt lat="45.06762" lon="6.03949">
        <ele>751.2</ele>
        <time>2024-08-09T07:43:13Z</time>
      </trkpt>
      <trkpt lat="45.06762" lon="6.03949">
        <ele>751.2</ele>
        <time>2024-08-09T07:43:14Z</time>
      </trkpt>
      <trkpt lat="45.06765" lon="6.03948">
        <ele>751.6</ele>
        <time>2024-08-09T07:43:15Z</time>
      </trkpt>
      <trkpt lat="45.06765" lon="6.03948">
        <ele>751.8</ele>
        <time>2024-08-09T07:43:16Z</time>
      </trkpt>
      <trkpt lat="45.06768" lon="6.03948">
        <ele>751.8</ele>
        <time>2024-08-09T07:43:17Z</time>
      </trkpt>
      <trkpt lat="45.06768" lon="6.03948">
        <ele>752</ele>
        <time>2024-08-09T07:43:18Z</time>
      </trkpt>
      <trkpt lat="45.06771" lon="6.03948">
        <ele>752</ele>
        <time>2024-08-09T07:43:19Z</time>
      </trkpt>
      <trkpt lat="45.06771" lon="6.03948">
        <ele>752.2</ele>
        <time>2024-08-09T07:43:20Z</time>
      </trkpt>
      <trkpt lat="45.06773" lon="6.03948">
        <ele>752.4</ele>
        <time>2024-08-09T07:43:21Z</time>
      </trkpt>
      <trkpt lat="45.06773" lon="6.03948">
        <ele>752.6</ele>
        <time>2024-08-09T07:43:22Z</time>
      </trkpt>
      <trkpt lat="45.06776" lon="6.03948">
        <ele>752.8</ele>
        <time>2024-08-09T07:43:23Z</time>
      </trkpt>
      <trkpt lat="45.06776" lon="6.03948">
        <ele>752.8</ele>
        <time>2024-08-09T07:43:24Z</time>
      </trkpt>
      <trkpt lat="45.06778" lon="6.03947">
        <ele>752.8</ele>
        <time>2024-08-09T07:43:25Z</time>
      </trkpt>
      <trkpt lat="45.06778" lon="6.03947">
        <ele>753.4</ele>
        <time>2024-08-09T07:43:26Z</time>
      </trkpt>
      <trkpt lat="45.06781" lon="6.03947">
        <ele>753.6</ele>
        <time>2024-08-09T07:43:27Z</time>
      </trkpt>
      <trkpt lat="45.06781" lon="6.03947">
        <ele>753.8</ele>
        <time>2024-08-09T07:43:28Z</time>
      </trkpt>
      <trkpt lat="45.06783" lon="6.03948">
        <ele>754</ele>
        <time>2024-08-09T07:43:29Z</time>
      </trkpt>
      <trkpt lat="45.06783" lon="6.03948">
        <ele>754</ele>
        <time>2024-08-09T07:43:30Z</time>
      </trkpt>
      <trkpt lat="45.06785" lon="6.03948">
        <ele>754.2</ele>
        <time>2024-08-09T07:43:31Z</time>
      </trkpt>
      <trkpt lat="45.06785" lon="6.03948">
        <ele>754.2</ele>
        <time>2024-08-09T07:43:32Z</time>
      </trkpt>
      <trkpt lat="45.06787" lon="6.03947">
        <ele>754.6</ele>
        <time>2024-08-09T07:43:33Z</time>
      </trkpt>
      <trkpt lat="45.06787" lon="6.03947">
        <ele>754.8</ele>
        <time>2024-08-09T07:43:34Z</time>
      </trkpt>
      <trkpt lat="45.06787" lon="6.03947">
        <ele>755</ele>
        <time>2024-08-09T07:43:35Z</time>
      </trkpt>
      <trkpt lat="45.06789" lon="6.03947">
        <ele>755.2</ele>
        <time>2024-08-09T07:43:36Z</time>
      </trkpt>
      <trkpt lat="45.06789" lon="6.03947">
        <ele>755.4</ele>
        <time>2024-08-09T07:43:37Z</time>
      </trkpt>
      <trkpt lat="45.06789" lon="6.03947">
        <ele>755.8</ele>
        <time>2024-08-09T07:43:38Z</time>
      </trkpt>
      <trkpt lat="45.06792" lon="6.03946">
        <ele>755.8</ele>
        <time>2024-08-09T07:43:39Z</time>
      </trkpt>
      <trkpt lat="45.06792" lon="6.03946">
        <ele>756</ele>
        <time>2024-08-09T07:43:40Z</time>
      </trkpt>
      <trkpt lat="45.06792" lon="6.03946">
        <ele>756</ele>
        <time>2024-08-09T07:43:41Z</time>
      </trkpt>
      <trkpt lat="45.06795" lon="6.03946">
        <ele>756.2</ele>
        <time>2024-08-09T07:43:42Z</time>
      </trkpt>
      <trkpt lat="45.06795" lon="6.03946">
        <ele>756.8</ele>
        <time>2024-08-09T07:43:43Z</time>
      </trkpt>
      <trkpt lat="45.06795" lon="6.03946">
        <ele>756.8</ele>
        <time>2024-08-09T07:43:44Z</time>
      </trkpt>
      <trkpt lat="45.06798" lon="6.03947">
        <ele>757.2</ele>
        <time>2024-08-09T07:43:45Z</time>
      </trkpt>
      <trkpt lat="45.06798" lon="6.03947">
        <ele>757.4</ele>
        <time>2024-08-09T07:43:46Z</time>
      </trkpt>
      <trkpt lat="45.06798" lon="6.03947">
        <ele>757.8</ele>
        <time>2024-08-09T07:43:47Z</time>
      </trkpt>
      <trkpt lat="45.06798" lon="6.03947">
        <ele>758</ele>
        <time>2024-08-09T07:43:48Z</time>
      </trkpt>
      <trkpt lat="45.06798" lon="6.03947">
        <ele>758</ele>
        <time>2024-08-09T07:43:49Z</time>
      </trkpt>
      <trkpt lat="45.06798" lon="6.03947">
        <ele>758</ele>
        <time>2024-08-09T07:43:50Z</time>
      </trkpt>
      <trkpt lat="45.06798" lon="6.03947">
        <ele>758.6</ele>
        <time>2024-08-09T07:43:51Z</time>
      </trkpt>
      <trkpt lat="45.068" lon="6.03947">
        <ele>759</ele>
        <time>2024-08-09T07:43:52Z</time>
      </trkpt>
      <trkpt lat="45.068" lon="6.03947">
        <ele>759</ele>
        <time>2024-08-09T07:43:53Z</time>
      </trkpt>
      <trkpt lat="45.06802" lon="6.03945">
        <ele>759.2</ele>
        <time>2024-08-09T07:43:54Z</time>
      </trkpt>
      <trkpt lat="45.06802" lon="6.03945">
        <ele>759.6</ele>
        <time>2024-08-09T07:43:55Z</time>
      </trkpt>
      <trkpt lat="45.06802" lon="6.03945">
        <ele>759.6</ele>
        <time>2024-08-09T07:43:56Z</time>
      </trkpt>
      <trkpt lat="45.06804" lon="6.03945">
        <ele>760.2</ele>
        <time>2024-08-09T07:43:57Z</time>
      </trkpt>
      <trkpt lat="45.06804" lon="6.03945">
        <ele>760.4</ele>
        <time>2024-08-09T07:43:58Z</time>
      </trkpt>
      <trkpt lat="45.06804" lon="6.03945">
        <ele>760.8</ele>
        <time>2024-08-09T07:43:59Z</time>
      </trkpt>
      <trkpt lat="45.06805" lon="6.03948">
        <ele>761</ele>
        <time>2024-08-09T07:44:00Z</time>
      </trkpt>
      <trkpt lat="45.06805" lon="6.03948">
        <ele>761.2</ele>
        <time>2024-08-09T07:44:01Z</time>
      </trkpt>
      <trkpt lat="45.06807" lon="6.03949">
        <ele>761.6</ele>
        <time>2024-08-09T07:44:02Z</time>
      </trkpt>
      <trkpt lat="45.06807" lon="6.03949">
        <ele>761.6</ele>
        <time>2024-08-09T07:44:03Z</time>
      </trkpt>
      <trkpt lat="45.06807" lon="6.03949">
        <ele>761.8</ele>
        <time>2024-08-09T07:44:04Z</time>
      </trkpt>
      <trkpt lat="45.06807" lon="6.03949">
        <ele>761.8</ele>
        <time>2024-08-09T07:44:05Z</time>
      </trkpt>
      <trkpt lat="45.06807" lon="6.03949">
        <ele>762</ele>
        <time>2024-08-09T07:44:06Z</time>
      </trkpt>
      <trkpt lat="45.06809" lon="6.03947">
        <ele>762.2</ele>
        <time>2024-08-09T07:44:07Z</time>
      </trkpt>
      <trkpt lat="45.06809" lon="6.03947">
        <ele>762.4</ele>
        <time>2024-08-09T07:44:08Z</time>
      </trkpt>
      <trkpt lat="45.06811" lon="6.03946">
        <ele>762.6</ele>
        <time>2024-08-09T07:44:09Z</time>
      </trkpt>
      <trkpt lat="45.06811" lon="6.03946">
        <ele>762.8</ele>
        <time>2024-08-09T07:44:10Z</time>
      </trkpt>
      <trkpt lat="45.06811" lon="6.03946">
        <ele>763.2</ele>
        <time>2024-08-09T07:44:11Z</time>
      </trkpt>
      <trkpt lat="45.06813" lon="6.03945">
        <ele>763.4</ele>
        <time>2024-08-09T07:44:12Z</time>
      </trkpt>
      <trkpt lat="45.06813" lon="6.03945">
        <ele>763.6</ele>
        <time>2024-08-09T07:44:13Z</time>
      </trkpt>
      <trkpt lat="45.06815" lon="6.03946">
        <ele>763.8</ele>
        <time>2024-08-09T07:44:14Z</time>
      </trkpt>
      <trkpt lat="45.06815" lon="6.03946">
        <ele>764.2</ele>
        <time>2024-08-09T07:44:15Z</time>
      </trkpt>
      <trkpt lat="45.06815" lon="6.03946">
        <ele>764.6</ele>
        <time>2024-08-09T07:44:16Z</time>
      </trkpt>
      <trkpt lat="45.06817" lon="6.03946">
        <ele>764.6</ele>
        <time>2024-08-09T07:44:17Z</time>
      </trkpt>
      <trkpt lat="45.06817" lon="6.03946">
        <ele>765</ele>
        <time>2024-08-09T07:44:18Z</time>
      </trkpt>
      <trkpt lat="45.06817" lon="6.03946">
        <ele>765.2</ele>
        <time>2024-08-09T07:44:19Z</time>
      </trkpt>
      <trkpt lat="45.0682" lon="6.03946">
        <ele>765.4</ele>
        <time>2024-08-09T07:44:20Z</time>
      </trkpt>
      <trkpt lat="45.0682" lon="6.03946">
        <ele>765.6</ele>
        <time>2024-08-09T07:44:21Z</time>
      </trkpt>
      <trkpt lat="45.0682" lon="6.03946">
        <ele>765.8</ele>
        <time>2024-08-09T07:44:22Z</time>
      </trkpt>
      <trkpt lat="45.06821" lon="6.03945">
        <ele>766</ele>
        <time>2024-08-09T07:44:23Z</time>
      </trkpt>
      <trkpt lat="45.06821" lon="6.03945">
        <ele>766.2</ele>
        <time>2024-08-09T07:44:24Z</time>
      </trkpt>
      <trkpt lat="45.06823" lon="6.03945">
        <ele>766.2</ele>
        <time>2024-08-09T07:44:25Z</time>
      </trkpt>
      <trkpt lat="45.06823" lon="6.03945">
        <ele>766.4</ele>
        <time>2024-08-09T07:44:26Z</time>
      </trkpt>
      <trkpt lat="45.06823" lon="6.03945">
        <ele>766.4</ele>
        <time>2024-08-09T07:44:27Z</time>
      </trkpt>
      <trkpt lat="45.06826" lon="6.03944">
        <ele>767.2</ele>
        <time>2024-08-09T07:44:28Z</time>
      </trkpt>
      <trkpt lat="45.06826" lon="6.03944">
        <ele>767.6</ele>
        <time>2024-08-09T07:44:29Z</time>
      </trkpt>
      <trkpt lat="45.06828" lon="6.03944">
        <ele>767.6</ele>
        <time>2024-08-09T07:44:30Z</time>
      </trkpt>
      <trkpt lat="45.06828" lon="6.03944">
        <ele>767.8</ele>
        <time>2024-08-09T07:44:31Z</time>
      </trkpt>
      <trkpt lat="45.06828" lon="6.03944">
        <ele>768.6</ele>
        <time>2024-08-09T07:44:32Z</time>
      </trkpt>
      <trkpt lat="45.06829" lon="6.03943">
        <ele>768.6</ele>
        <time>2024-08-09T07:44:33Z</time>
      </trkpt>
      <trkpt lat="45.06829" lon="6.03943">
        <ele>768.6</ele>
        <time>2024-08-09T07:44:34Z</time>
      </trkpt>
      <trkpt lat="45.06831" lon="6.03943">
        <ele>768.8</ele>
        <time>2024-08-09T07:44:35Z</time>
      </trkpt>
      <trkpt lat="45.06831" lon="6.03943">
        <ele>768.8</ele>
        <time>2024-08-09T07:44:36Z</time>
      </trkpt>
      <trkpt lat="45.06833" lon="6.03943">
        <ele>769</ele>
        <time>2024-08-09T07:44:37Z</time>
      </trkpt>
      <trkpt lat="45.06833" lon="6.03943">
        <ele>769.6</ele>
        <time>2024-08-09T07:44:38Z</time>
      </trkpt>
      <trkpt lat="45.06833" lon="6.03943">
        <ele>769.6</ele>
        <time>2024-08-09T07:44:39Z</time>
      </trkpt>
      <trkpt lat="45.06836" lon="6.03942">
        <ele>769.6</ele>
        <time>2024-08-09T07:44:40Z</time>
      </trkpt>
      <trkpt lat="45.06836" lon="6.03942">
        <ele>769.8</ele>
        <time>2024-08-09T07:44:41Z</time>
      </trkpt>
      <trkpt lat="45.06838" lon="6.03941">
        <ele>770</ele>
        <time>2024-08-09T07:44:42Z</time>
      </trkpt>
      <trkpt lat="45.06838" lon="6.03941">
        <ele>770.2</ele>
        <time>2024-08-09T07:44:43Z</time>
      </trkpt>
      <trkpt lat="45.06841" lon="6.03942">
        <ele>770.4</ele>
        <time>2024-08-09T07:44:44Z</time>
      </trkpt>
      <trkpt lat="45.06841" lon="6.03942">
        <ele>770.8</ele>
        <time>2024-08-09T07:44:45Z</time>
      </trkpt>
      <trkpt lat="45.06843" lon="6.03942">
        <ele>770.8</ele>
        <time>2024-08-09T07:44:46Z</time>
      </trkpt>
      <trkpt lat="45.06843" lon="6.03942">
        <ele>771</ele>
        <time>2024-08-09T07:44:47Z</time>
      </trkpt>
      <trkpt lat="45.06845" lon="6.03942">
        <ele>771</ele>
        <time>2024-08-09T07:44:48Z</time>
      </trkpt>
      <trkpt lat="45.06845" lon="6.03942">
        <ele>771</ele>
        <time>2024-08-09T07:44:49Z</time>
      </trkpt>
      <trkpt lat="45.06847" lon="6.03943">
        <ele>771.2</ele>
        <time>2024-08-09T07:44:50Z</time>
      </trkpt>
      <trkpt lat="45.06847" lon="6.03943">
        <ele>771.2</ele>
        <time>2024-08-09T07:44:51Z</time>
      </trkpt>
      <trkpt lat="45.06847" lon="6.03943">
        <ele>771.4</ele>
        <time>2024-08-09T07:44:52Z</time>
      </trkpt>
      <trkpt lat="45.0685" lon="6.03944">
        <ele>771.6</ele>
        <time>2024-08-09T07:44:53Z</time>
      </trkpt>
      <trkpt lat="45.0685" lon="6.03944">
        <ele>771.8</ele>
        <time>2024-08-09T07:44:54Z</time>
      </trkpt>
      <trkpt lat="45.0685" lon="6.03944">
        <ele>772</ele>
        <time>2024-08-09T07:44:55Z</time>
      </trkpt>
      <trkpt lat="45.06853" lon="6.03945">
        <ele>772.2</ele>
        <time>2024-08-09T07:44:56Z</time>
      </trkpt>
      <trkpt lat="45.06853" lon="6.03945">
        <ele>772.4</ele>
        <time>2024-08-09T07:44:57Z</time>
      </trkpt>
      <trkpt lat="45.06853" lon="6.03945">
        <ele>772.6</ele>
        <time>2024-08-09T07:44:58Z</time>
      </trkpt>
      <trkpt lat="45.06854" lon="6.03947">
        <ele>772.6</ele>
        <time>2024-08-09T07:44:59Z</time>
      </trkpt>
      <trkpt lat="45.06854" lon="6.03947">
        <ele>772.8</ele>
        <time>2024-08-09T07:45:00Z</time>
      </trkpt>
      <trkpt lat="45.06854" lon="6.03947">
        <ele>773</ele>
        <time>2024-08-09T07:45:01Z</time>
      </trkpt>
      <trkpt lat="45.06856" lon="6.03948">
        <ele>773.6</ele>
        <time>2024-08-09T07:45:02Z</time>
      </trkpt>
      <trkpt lat="45.06856" lon="6.03948">
        <ele>773.6</ele>
        <time>2024-08-09T07:45:03Z</time>
      </trkpt>
      <trkpt lat="45.06858" lon="6.03948">
        <ele>774.2</ele>
        <time>2024-08-09T07:45:04Z</time>
      </trkpt>
      <trkpt lat="45.06858" lon="6.03948">
        <ele>774.2</ele>
        <time>2024-08-09T07:45:05Z</time>
      </trkpt>
      <trkpt lat="45.0686" lon="6.03948">
        <ele>774.4</ele>
        <time>2024-08-09T07:45:06Z</time>
      </trkpt>
      <trkpt lat="45.0686" lon="6.03948">
        <ele>774.8</ele>
        <time>2024-08-09T07:45:07Z</time>
      </trkpt>
      <trkpt lat="45.0686" lon="6.03948">
        <ele>774.8</ele>
        <time>2024-08-09T07:45:08Z</time>
      </trkpt>
      <trkpt lat="45.06862" lon="6.03949">
        <ele>775</ele>
        <time>2024-08-09T07:45:09Z</time>
      </trkpt>
      <trkpt lat="45.06862" lon="6.03949">
        <ele>775.2</ele>
        <time>2024-08-09T07:45:10Z</time>
      </trkpt>
      <trkpt lat="45.06864" lon="6.0395">
        <ele>775.4</ele>
        <time>2024-08-09T07:45:11Z</time>
      </trkpt>
      <trkpt lat="45.06864" lon="6.0395">
        <ele>775.6</ele>
        <time>2024-08-09T07:45:12Z</time>
      </trkpt>
      <trkpt lat="45.06864" lon="6.0395">
        <ele>775.8</ele>
        <time>2024-08-09T07:45:13Z</time>
      </trkpt>
      <trkpt lat="45.06866" lon="6.03952">
        <ele>776.2</ele>
        <time>2024-08-09T07:45:14Z</time>
      </trkpt>
      <trkpt lat="45.06866" lon="6.03952">
        <ele>776.6</ele>
        <time>2024-08-09T07:45:15Z</time>
      </trkpt>
      <trkpt lat="45.06868" lon="6.03954">
        <ele>776.6</ele>
        <time>2024-08-09T07:45:16Z</time>
      </trkpt>
      <trkpt lat="45.06868" lon="6.03954">
        <ele>777</ele>
        <time>2024-08-09T07:45:17Z</time>
      </trkpt>
      <trkpt lat="45.06868" lon="6.03954">
        <ele>777.2</ele>
        <time>2024-08-09T07:45:18Z</time>
      </trkpt>
      <trkpt lat="45.06868" lon="6.03954">
        <ele>777.4</ele>
        <time>2024-08-09T07:45:19Z</time>
      </trkpt>
      <trkpt lat="45.06869" lon="6.03956">
        <ele>777.6</ele>
        <time>2024-08-09T07:45:20Z</time>
      </trkpt>
      <trkpt lat="45.06869" lon="6.03956">
        <ele>777.8</ele>
        <time>2024-08-09T07:45:21Z</time>
      </trkpt>
      <trkpt lat="45.06869" lon="6.03956">
        <ele>778.2</ele>
        <time>2024-08-09T07:45:22Z</time>
      </trkpt>
      <trkpt lat="45.06871" lon="6.03957">
        <ele>778.4</ele>
        <time>2024-08-09T07:45:23Z</time>
      </trkpt>
      <trkpt lat="45.06871" lon="6.03957">
        <ele>778.4</ele>
        <time>2024-08-09T07:45:24Z</time>
      </trkpt>
      <trkpt lat="45.06871" lon="6.03957">
        <ele>778.6</ele>
        <time>2024-08-09T07:45:25Z</time>
      </trkpt>
      <trkpt lat="45.06873" lon="6.0396">
        <ele>778.8</ele>
        <time>2024-08-09T07:45:26Z</time>
      </trkpt>
      <trkpt lat="45.06873" lon="6.0396">
        <ele>779.6</ele>
        <time>2024-08-09T07:45:27Z</time>
      </trkpt>
      <trkpt lat="45.06873" lon="6.0396">
        <ele>779.6</ele>
        <time>2024-08-09T07:45:28Z</time>
      </trkpt>
      <trkpt lat="45.06875" lon="6.03961">
        <ele>779.6</ele>
        <time>2024-08-09T07:45:29Z</time>
      </trkpt>
      <trkpt lat="45.06875" lon="6.03961">
        <ele>779.8</ele>
        <time>2024-08-09T07:45:30Z</time>
      </trkpt>
      <trkpt lat="45.06875" lon="6.03961">
        <ele>780.2</ele>
        <time>2024-08-09T07:45:31Z</time>
      </trkpt>
      <trkpt lat="45.06877" lon="6.03962">
        <ele>780.4</ele>
        <time>2024-08-09T07:45:32Z</time>
      </trkpt>
      <trkpt lat="45.06877" lon="6.03962">
        <ele>780.8</ele>
        <time>2024-08-09T07:45:33Z</time>
      </trkpt>
      <trkpt lat="45.06879" lon="6.03962">
        <ele>780.8</ele>
        <time>2024-08-09T07:45:34Z</time>
      </trkpt>
      <trkpt lat="45.06879" lon="6.03962">
        <ele>780.8</ele>
        <time>2024-08-09T07:45:35Z</time>
      </trkpt>
      <trkpt lat="45.06882" lon="6.03964">
        <ele>781</ele>
        <time>2024-08-09T07:45:36Z</time>
      </trkpt>
      <trkpt lat="45.06882" lon="6.03964">
        <ele>781.4</ele>
        <time>2024-08-09T07:45:37Z</time>
      </trkpt>
      <trkpt lat="45.06884" lon="6.03966">
        <ele>781.6</ele>
        <time>2024-08-09T07:45:38Z</time>
      </trkpt>
      <trkpt lat="45.06884" lon="6.03966">
        <ele>781.6</ele>
        <time>2024-08-09T07:45:39Z</time>
      </trkpt>
      <trkpt lat="45.06884" lon="6.03966">
        <ele>781.6</ele>
        <time>2024-08-09T07:45:40Z</time>
      </trkpt>
      <trkpt lat="45.06886" lon="6.03968">
        <ele>782</ele>
        <time>2024-08-09T07:45:41Z</time>
      </trkpt>
      <trkpt lat="45.06886" lon="6.03968">
        <ele>782.2</ele>
        <time>2024-08-09T07:45:42Z</time>
      </trkpt>
      <trkpt lat="45.06886" lon="6.03968">
        <ele>782.2</ele>
        <time>2024-08-09T07:45:43Z</time>
      </trkpt>
      <trkpt lat="45.06886" lon="6.03968">
        <ele>782.6</ele>
        <time>2024-08-09T07:45:44Z</time>
      </trkpt>
      <trkpt lat="45.06889" lon="6.03967">
        <ele>782.8</ele>
        <time>2024-08-09T07:45:45Z</time>
      </trkpt>
      <trkpt lat="45.06889" lon="6.03967">
        <ele>783</ele>
        <time>2024-08-09T07:45:46Z</time>
      </trkpt>
      <trkpt lat="45.06889" lon="6.03967">
        <ele>783.2</ele>
        <time>2024-08-09T07:45:47Z</time>
      </trkpt>
      <trkpt lat="45.06892" lon="6.03967">
        <ele>783.4</ele>
        <time>2024-08-09T07:45:48Z</time>
      </trkpt>
      <trkpt lat="45.06892" lon="6.03967">
        <ele>783.6</ele>
        <time>2024-08-09T07:45:49Z</time>
      </trkpt>
      <trkpt lat="45.06892" lon="6.03967">
        <ele>784</ele>
        <time>2024-08-09T07:45:50Z</time>
      </trkpt>
      <trkpt lat="45.06893" lon="6.03969">
        <ele>784.2</ele>
        <time>2024-08-09T07:45:51Z</time>
      </trkpt>
      <trkpt lat="45.06893" lon="6.03969">
        <ele>784.2</ele>
        <time>2024-08-09T07:45:52Z</time>
      </trkpt>
      <trkpt lat="45.06895" lon="6.03972">
        <ele>784.4</ele>
        <time>2024-08-09T07:45:53Z</time>
      </trkpt>
      <trkpt lat="45.06895" lon="6.03972">
        <ele>784.8</ele>
        <time>2024-08-09T07:45:54Z</time>
      </trkpt>
      <trkpt lat="45.06895" lon="6.03972">
        <ele>785.2</ele>
        <time>2024-08-09T07:45:55Z</time>
      </trkpt>
      <trkpt lat="45.06896" lon="6.03974">
        <ele>785.4</ele>
        <time>2024-08-09T07:45:56Z</time>
      </trkpt>
      <trkpt lat="45.06896" lon="6.03974">
        <ele>785.6</ele>
        <time>2024-08-09T07:45:57Z</time>
      </trkpt>
      <trkpt lat="45.06897" lon="6.03976">
        <ele>786</ele>
        <time>2024-08-09T07:45:58Z</time>
      </trkpt>
      <trkpt lat="45.06897" lon="6.03976">
        <ele>786.2</ele>
        <time>2024-08-09T07:45:59Z</time>
      </trkpt>
      <trkpt lat="45.06897" lon="6.03976">
        <ele>786.4</ele>
        <time>2024-08-09T07:46:00Z</time>
      </trkpt>
      <trkpt lat="45.06899" lon="6.03978">
        <ele>786.6</ele>
        <time>2024-08-09T07:46:01Z</time>
      </trkpt>
      <trkpt lat="45.06899" lon="6.03978">
        <ele>787.2</ele>
        <time>2024-08-09T07:46:02Z</time>
      </trkpt>
      <trkpt lat="45.06899" lon="6.0398">
        <ele>787.2</ele>
        <time>2024-08-09T07:46:03Z</time>
      </trkpt>
      <trkpt lat="45.06899" lon="6.0398">
        <ele>787.4</ele>
        <time>2024-08-09T07:46:04Z</time>
      </trkpt>
      <trkpt lat="45.06899" lon="6.0398">
        <ele>787.8</ele>
        <time>2024-08-09T07:46:05Z</time>
      </trkpt>
      <trkpt lat="45.06899" lon="6.03983">
        <ele>788.2</ele>
        <time>2024-08-09T07:46:06Z</time>
      </trkpt>
      <trkpt lat="45.06899" lon="6.03983">
        <ele>788.4</ele>
        <time>2024-08-09T07:46:07Z</time>
      </trkpt>
      <trkpt lat="45.06899" lon="6.03983">
        <ele>788.4</ele>
        <time>2024-08-09T07:46:08Z</time>
      </trkpt>
      <trkpt lat="45.06899" lon="6.03983">
        <ele>788.6</ele>
        <time>2024-08-09T07:46:09Z</time>
      </trkpt>
      <trkpt lat="45.06897" lon="6.03984">
        <ele>789.2</ele>
        <time>2024-08-09T07:46:10Z</time>
      </trkpt>
      <trkpt lat="45.06897" lon="6.03984">
        <ele>789.4</ele>
        <time>2024-08-09T07:46:11Z</time>
      </trkpt>
      <trkpt lat="45.06897" lon="6.03984">
        <ele>789.4</ele>
        <time>2024-08-09T07:46:12Z</time>
      </trkpt>
      <trkpt lat="45.06895" lon="6.03986">
        <ele>789.8</ele>
        <time>2024-08-09T07:46:13Z</time>
      </trkpt>
      <trkpt lat="45.06895" lon="6.03986">
        <ele>790</ele>
        <time>2024-08-09T07:46:14Z</time>
      </trkpt>
      <trkpt lat="45.06893" lon="6.03988">
        <ele>790</ele>
        <time>2024-08-09T07:46:15Z</time>
      </trkpt>
      <trkpt lat="45.06893" lon="6.03988">
        <ele>790.2</ele>
        <time>2024-08-09T07:46:16Z</time>
      </trkpt>
      <trkpt lat="45.06893" lon="6.03988">
        <ele>790.4</ele>
        <time>2024-08-09T07:46:17Z</time>
      </trkpt>
      <trkpt lat="45.06893" lon="6.03988">
        <ele>790.8</ele>
        <time>2024-08-09T07:46:18Z</time>
      </trkpt>
      <trkpt lat="45.06893" lon="6.03988">
        <ele>791</ele>
        <time>2024-08-09T07:46:19Z</time>
      </trkpt>
      <trkpt lat="45.06892" lon="6.0399">
        <ele>791.2</ele>
        <time>2024-08-09T07:46:20Z</time>
      </trkpt>
      <trkpt lat="45.06892" lon="6.0399">
        <ele>791.4</ele>
        <time>2024-08-09T07:46:21Z</time>
      </trkpt>
      <trkpt lat="45.06892" lon="6.0399">
        <ele>791.6</ele>
        <time>2024-08-09T07:46:22Z</time>
      </trkpt>
      <trkpt lat="45.06892" lon="6.0399">
        <ele>792</ele>
        <time>2024-08-09T07:46:23Z</time>
      </trkpt>
      <trkpt lat="45.06892" lon="6.0399">
        <ele>792</ele>
        <time>2024-08-09T07:46:24Z</time>
      </trkpt>
      <trkpt lat="45.0689" lon="6.03993">
        <ele>792.4</ele>
        <time>2024-08-09T07:46:25Z</time>
      </trkpt>
      <trkpt lat="45.0689" lon="6.03993">
        <ele>792.8</ele>
        <time>2024-08-09T07:46:26Z</time>
      </trkpt>
      <trkpt lat="45.06889" lon="6.03995">
        <ele>792.8</ele>
        <time>2024-08-09T07:46:27Z</time>
      </trkpt>
      <trkpt lat="45.06889" lon="6.03995">
        <ele>793.2</ele>
        <time>2024-08-09T07:46:28Z</time>
      </trkpt>
      <trkpt lat="45.06889" lon="6.03995">
        <ele>793.8</ele>
        <time>2024-08-09T07:46:29Z</time>
      </trkpt>
      <trkpt lat="45.0689" lon="6.03997">
        <ele>794.2</ele>
        <time>2024-08-09T07:46:30Z</time>
      </trkpt>
      <trkpt lat="45.0689" lon="6.03997">
        <ele>794.2</ele>
        <time>2024-08-09T07:46:31Z</time>
      </trkpt>
      <trkpt lat="45.0689" lon="6.03997">
        <ele>794.2</ele>
        <time>2024-08-09T07:46:32Z</time>
      </trkpt>
      <trkpt lat="45.06893" lon="6.03998">
        <ele>794.4</ele>
        <time>2024-08-09T07:46:33Z</time>
      </trkpt>
      <trkpt lat="45.06893" lon="6.03998">
        <ele>794.8</ele>
        <time>2024-08-09T07:46:34Z</time>
      </trkpt>
      <trkpt lat="45.06894" lon="6.03997">
        <ele>794.8</ele>
        <time>2024-08-09T07:46:35Z</time>
      </trkpt>
      <trkpt lat="45.06894" lon="6.03997">
        <ele>794.8</ele>
        <time>2024-08-09T07:46:36Z</time>
      </trkpt>
      <trkpt lat="45.06894" lon="6.03997">
        <ele>795</ele>
        <time>2024-08-09T07:46:37Z</time>
      </trkpt>
      <trkpt lat="45.06897" lon="6.03997">
        <ele>795.4</ele>
        <time>2024-08-09T07:46:38Z</time>
      </trkpt>
      <trkpt lat="45.06897" lon="6.03997">
        <ele>795.4</ele>
        <time>2024-08-09T07:46:39Z</time>
      </trkpt>
      <trkpt lat="45.06899" lon="6.03997">
        <ele>795.8</ele>
        <time>2024-08-09T07:46:40Z</time>
      </trkpt>
      <trkpt lat="45.06899" lon="6.03997">
        <ele>796.2</ele>
        <time>2024-08-09T07:46:41Z</time>
      </trkpt>
      <trkpt lat="45.06901" lon="6.03998">
        <ele>796.2</ele>
        <time>2024-08-09T07:46:42Z</time>
      </trkpt>
      <trkpt lat="45.06901" lon="6.03998">
        <ele>796.4</ele>
        <time>2024-08-09T07:46:43Z</time>
      </trkpt>
      <trkpt lat="45.06903" lon="6.03999">
        <ele>796.6</ele>
        <time>2024-08-09T07:46:44Z</time>
      </trkpt>
      <trkpt lat="45.06903" lon="6.03999">
        <ele>796.8</ele>
        <time>2024-08-09T07:46:45Z</time>
      </trkpt>
      <trkpt lat="45.06903" lon="6.03999">
        <ele>796.8</ele>
        <time>2024-08-09T07:46:46Z</time>
      </trkpt>
      <trkpt lat="45.06903" lon="6.03999">
        <ele>796.8</ele>
        <time>2024-08-09T07:46:47Z</time>
      </trkpt>
      <trkpt lat="45.06903" lon="6.03999">
        <ele>797.2</ele>
        <time>2024-08-09T07:46:48Z</time>
      </trkpt>
      <trkpt lat="45.06903" lon="6.03999">
        <ele>797.2</ele>
        <time>2024-08-09T07:46:49Z</time>
      </trkpt>
      <trkpt lat="45.06903" lon="6.03999">
        <ele>797.2</ele>
        <time>2024-08-09T07:46:50Z</time>
      </trkpt>
      <trkpt lat="45.06903" lon="6.03999">
        <ele>797.2</ele>
        <time>2024-08-09T07:46:51Z</time>
      </trkpt>
      <trkpt lat="45.06903" lon="6.03999">
        <ele>797.2</ele>
        <time>2024-08-09T07:46:52Z</time>
      </trkpt>
      <trkpt lat="45.06904" lon="6.04">
        <ele>797.2</ele>
        <time>2024-08-09T07:46:53Z</time>
      </trkpt>
      <trkpt lat="45.06904" lon="6.04">
        <ele>797.2</ele>
        <time>2024-08-09T07:46:54Z</time>
      </trkpt>
      <trkpt lat="45.06904" lon="6.04">
        <ele>797.2</ele>
        <time>2024-08-09T07:46:55Z</time>
      </trkpt>
      <trkpt lat="45.06904" lon="6.04">
        <ele>797</ele>
        <time>2024-08-09T07:46:56Z</time>
      </trkpt>
      <trkpt lat="45.06904" lon="6.04">
        <ele>797</ele>
        <time>2024-08-09T07:46:57Z</time>
      </trkpt>
      <trkpt lat="45.06904" lon="6.04">
        <ele>797</ele>
        <time>2024-08-09T07:46:58Z</time>
      </trkpt>
      <trkpt lat="45.06904" lon="6.04">
        <ele>797</ele>
        <time>2024-08-09T07:46:59Z</time>
      </trkpt>
      <trkpt lat="45.06904" lon="6.04">
        <ele>796.8</ele>
        <time>2024-08-09T07:47:00Z</time>
      </trkpt>
      <trkpt lat="45.06904" lon="6.04">
        <ele>796.8</ele>
        <time>2024-08-09T07:47:01Z</time>
      </trkpt>
      <trkpt lat="45.06904" lon="6.04">
        <ele>797</ele>
        <time>2024-08-09T07:47:02Z</time>
      </trkpt>
      <trkpt lat="45.06904" lon="6.04">
        <ele>797</ele>
        <time>2024-08-09T07:47:03Z</time>
      </trkpt>
      <trkpt lat="45.06904" lon="6.04">
        <ele>797.2</ele>
        <time>2024-08-09T07:47:04Z</time>
      </trkpt>
      <trkpt lat="45.06904" lon="6.04">
        <ele>797.2</ele>
        <time>2024-08-09T07:47:05Z</time>
      </trkpt>
      <trkpt lat="45.06904" lon="6.04">
        <ele>797.2</ele>
        <time>2024-08-09T07:47:06Z</time>
      </trkpt>
      <trkpt lat="45.06904" lon="6.04">
        <ele>797</ele>
        <time>2024-08-09T07:47:07Z</time>
      </trkpt>
      <trkpt lat="45.06904" lon="6.04">
        <ele>797.2</ele>
        <time>2024-08-09T07:47:08Z</time>
      </trkpt>
      <trkpt lat="45.06904" lon="6.04">
        <ele>797.2</ele>
        <time>2024-08-09T07:47:09Z</time>
      </trkpt>
      <trkpt lat="45.06904" lon="6.04">
        <ele>797.2</ele>
        <time>2024-08-09T07:47:10Z</time>
      </trkpt>
      <trkpt lat="45.06904" lon="6.04">
        <ele>797.2</ele>
        <time>2024-08-09T07:47:11Z</time>
      </trkpt>
      <trkpt lat="45.06904" lon="6.04">
        <ele>797.4</ele>
        <time>2024-08-09T07:47:12Z</time>
      </trkpt>
      <trkpt lat="45.06903" lon="6.04003">
        <ele>797.4</ele>
        <time>2024-08-09T07:47:13Z</time>
      </trkpt>
      <trkpt lat="45.06903" lon="6.04003">
        <ele>798.2</ele>
        <time>2024-08-09T07:47:14Z</time>
      </trkpt>
      <trkpt lat="45.069" lon="6.04004">
        <ele>798.2</ele>
        <time>2024-08-09T07:47:15Z</time>
      </trkpt>
      <trkpt lat="45.06898" lon="6.04005">
        <ele>798.8</ele>
        <time>2024-08-09T07:47:16Z</time>
      </trkpt>
      <trkpt lat="45.06895" lon="6.04006">
        <ele>798.8</ele>
        <time>2024-08-09T07:47:17Z</time>
      </trkpt>
      <trkpt lat="45.06893" lon="6.04007">
        <ele>798.8</ele>
        <time>2024-08-09T07:47:18Z</time>
      </trkpt>
      <trkpt lat="45.06893" lon="6.04007">
        <ele>798.8</ele>
        <time>2024-08-09T07:47:19Z</time>
      </trkpt>
      <trkpt lat="45.06891" lon="6.04007">
        <ele>799</ele>
        <time>2024-08-09T07:47:20Z</time>
      </trkpt>
      <trkpt lat="45.06891" lon="6.04007">
        <ele>799.2</ele>
        <time>2024-08-09T07:47:21Z</time>
      </trkpt>
      <trkpt lat="45.06891" lon="6.04007">
        <ele>799.2</ele>
        <time>2024-08-09T07:47:22Z</time>
      </trkpt>
      <trkpt lat="45.06891" lon="6.04007">
        <ele>799.4</ele>
        <time>2024-08-09T07:47:23Z</time>
      </trkpt>
      <trkpt lat="45.06893" lon="6.0401">
        <ele>799.6</ele>
        <time>2024-08-09T07:47:24Z</time>
      </trkpt>
      <trkpt lat="45.06893" lon="6.0401">
        <ele>799.6</ele>
        <time>2024-08-09T07:47:25Z</time>
      </trkpt>
      <trkpt lat="45.06893" lon="6.0401">
        <ele>800.2</ele>
        <time>2024-08-09T07:47:26Z</time>
      </trkpt>
      <trkpt lat="45.06895" lon="6.04012">
        <ele>800.4</ele>
        <time>2024-08-09T07:47:27Z</time>
      </trkpt>
      <trkpt lat="45.06895" lon="6.04012">
        <ele>800.6</ele>
        <time>2024-08-09T07:47:28Z</time>
      </trkpt>
      <trkpt lat="45.06895" lon="6.04012">
        <ele>800.6</ele>
        <time>2024-08-09T07:47:29Z</time>
      </trkpt>
      <trkpt lat="45.06897" lon="6.04012">
        <ele>800.8</ele>
        <time>2024-08-09T07:47:30Z</time>
      </trkpt>
      <trkpt lat="45.06897" lon="6.04012">
        <ele>801</ele>
        <time>2024-08-09T07:47:31Z</time>
      </trkpt>
      <trkpt lat="45.06899" lon="6.04013">
        <ele>801.2</ele>
        <time>2024-08-09T07:47:32Z</time>
      </trkpt>
      <trkpt lat="45.06899" lon="6.04013">
        <ele>801.6</ele>
        <time>2024-08-09T07:47:33Z</time>
      </trkpt>
      <trkpt lat="45.06901" lon="6.04014">
        <ele>801.6</ele>
        <time>2024-08-09T07:47:34Z</time>
      </trkpt>
      <trkpt lat="45.06901" lon="6.04014">
        <ele>801.6</ele>
        <time>2024-08-09T07:47:35Z</time>
      </trkpt>
      <trkpt lat="45.06901" lon="6.04014">
        <ele>802</ele>
        <time>2024-08-09T07:47:36Z</time>
      </trkpt>
      <trkpt lat="45.06901" lon="6.04014">
        <ele>802.6</ele>
        <time>2024-08-09T07:47:37Z</time>
      </trkpt>
      <trkpt lat="45.06901" lon="6.04014">
        <ele>802.6</ele>
        <time>2024-08-09T07:47:38Z</time>
      </trkpt>
      <trkpt lat="45.06901" lon="6.04014">
        <ele>802.8</ele>
        <time>2024-08-09T07:47:39Z</time>
      </trkpt>
      <trkpt lat="45.06901" lon="6.04014">
        <ele>803</ele>
        <time>2024-08-09T07:47:40Z</time>
      </trkpt>
      <trkpt lat="45.06903" lon="6.04016">
        <ele>803.2</ele>
        <time>2024-08-09T07:47:41Z</time>
      </trkpt>
      <trkpt lat="45.06903" lon="6.04016">
        <ele>803.4</ele>
        <time>2024-08-09T07:47:42Z</time>
      </trkpt>
      <trkpt lat="45.06901" lon="6.04017">
        <ele>803.6</ele>
        <time>2024-08-09T07:47:43Z</time>
      </trkpt>
      <trkpt lat="45.06901" lon="6.04017">
        <ele>803.8</ele>
        <time>2024-08-09T07:47:44Z</time>
      </trkpt>
      <trkpt lat="45.06899" lon="6.04017">
        <ele>803.8</ele>
        <time>2024-08-09T07:47:45Z</time>
      </trkpt>
      <trkpt lat="45.06899" lon="6.04017">
        <ele>804.2</ele>
        <time>2024-08-09T07:47:46Z</time>
      </trkpt>
      <trkpt lat="45.06899" lon="6.04017">
        <ele>804.6</ele>
        <time>2024-08-09T07:47:47Z</time>
      </trkpt>
      <trkpt lat="45.06899" lon="6.04017">
        <ele>804.8</ele>
        <time>2024-08-09T07:47:48Z</time>
      </trkpt>
      <trkpt lat="45.06899" lon="6.04017">
        <ele>804.8</ele>
        <time>2024-08-09T07:47:49Z</time>
      </trkpt>
      <trkpt lat="45.06899" lon="6.04017">
        <ele>804.8</ele>
        <time>2024-08-09T07:47:50Z</time>
      </trkpt>
      <trkpt lat="45.06899" lon="6.04017">
        <ele>805</ele>
        <time>2024-08-09T07:47:51Z</time>
      </trkpt>
      <trkpt lat="45.06899" lon="6.04017">
        <ele>805.2</ele>
        <time>2024-08-09T07:47:52Z</time>
      </trkpt>
      <trkpt lat="45.06899" lon="6.04017">
        <ele>805.4</ele>
        <time>2024-08-09T07:47:53Z</time>
      </trkpt>
      <trkpt lat="45.06899" lon="6.04017">
        <ele>805.6</ele>
        <time>2024-08-09T07:47:54Z</time>
      </trkpt>
      <trkpt lat="45.06899" lon="6.04017">
        <ele>805.8</ele>
        <time>2024-08-09T07:47:55Z</time>
      </trkpt>
      <trkpt lat="45.06899" lon="6.04017">
        <ele>806</ele>
        <time>2024-08-09T07:47:56Z</time>
      </trkpt>
      <trkpt lat="45.06899" lon="6.04017">
        <ele>806.4</ele>
        <time>2024-08-09T07:47:57Z</time>
      </trkpt>
      <trkpt lat="45.06899" lon="6.04017">
        <ele>806.8</ele>
        <time>2024-08-09T07:47:58Z</time>
      </trkpt>
      <trkpt lat="45.06897" lon="6.04018">
        <ele>807.2</ele>
        <time>2024-08-09T07:47:59Z</time>
      </trkpt>
      <trkpt lat="45.06897" lon="6.04018">
        <ele>807.2</ele>
        <time>2024-08-09T07:48:00Z</time>
      </trkpt>
      <trkpt lat="45.06897" lon="6.04018">
        <ele>807.4</ele>
        <time>2024-08-09T07:48:01Z</time>
      </trkpt>
      <trkpt lat="45.06897" lon="6.04018">
        <ele>807.6</ele>
        <time>2024-08-09T07:48:02Z</time>
      </trkpt>
      <trkpt lat="45.06897" lon="6.04018">
        <ele>807.6</ele>
        <time>2024-08-09T07:48:03Z</time>
      </trkpt>
      <trkpt lat="45.06897" lon="6.04018">
        <ele>808.2</ele>
        <time>2024-08-09T07:48:04Z</time>
      </trkpt>
      <trkpt lat="45.06897" lon="6.04018">
        <ele>808.6</ele>
        <time>2024-08-09T07:48:05Z</time>
      </trkpt>
      <trkpt lat="45.06899" lon="6.0402">
        <ele>808.6</ele>
        <time>2024-08-09T07:48:06Z</time>
      </trkpt>
      <trkpt lat="45.06899" lon="6.0402">
        <ele>808.6</ele>
        <time>2024-08-09T07:48:07Z</time>
      </trkpt>
      <trkpt lat="45.06901" lon="6.0402">
        <ele>808.8</ele>
        <time>2024-08-09T07:48:08Z</time>
      </trkpt>
      <trkpt lat="45.06901" lon="6.0402">
        <ele>809.2</ele>
        <time>2024-08-09T07:48:09Z</time>
      </trkpt>
      <trkpt lat="45.06901" lon="6.0402">
        <ele>809.2</ele>
        <time>2024-08-09T07:48:10Z</time>
      </trkpt>
      <trkpt lat="45.06901" lon="6.0402">
        <ele>809.4</ele>
        <time>2024-08-09T07:48:11Z</time>
      </trkpt>
      <trkpt lat="45.06902" lon="6.0402">
        <ele>809.6</ele>
        <time>2024-08-09T07:48:12Z</time>
      </trkpt>
      <trkpt lat="45.06902" lon="6.0402">
        <ele>809.8</ele>
        <time>2024-08-09T07:48:13Z</time>
      </trkpt>
      <trkpt lat="45.06905" lon="6.04022">
        <ele>810</ele>
        <time>2024-08-09T07:48:14Z</time>
      </trkpt>
      <trkpt lat="45.06905" lon="6.04022">
        <ele>810.4</ele>
        <time>2024-08-09T07:48:15Z</time>
      </trkpt>
      <trkpt lat="45.06907" lon="6.04023">
        <ele>810.6</ele>
        <time>2024-08-09T07:48:16Z</time>
      </trkpt>
      <trkpt lat="45.06907" lon="6.04023">
        <ele>811</ele>
        <time>2024-08-09T07:48:17Z</time>
      </trkpt>
      <trkpt lat="45.06907" lon="6.04023">
        <ele>811</ele>
        <time>2024-08-09T07:48:18Z</time>
      </trkpt>
      <trkpt lat="45.06909" lon="6.04024">
        <ele>811.2</ele>
        <time>2024-08-09T07:48:19Z</time>
      </trkpt>
      <trkpt lat="45.06909" lon="6.04024">
        <ele>811.8</ele>
        <time>2024-08-09T07:48:20Z</time>
      </trkpt>
      <trkpt lat="45.06909" lon="6.04024">
        <ele>811.8</ele>
        <time>2024-08-09T07:48:21Z</time>
      </trkpt>
      <trkpt lat="45.0691" lon="6.04026">
        <ele>812.4</ele>
        <time>2024-08-09T07:48:22Z</time>
      </trkpt>
      <trkpt lat="45.0691" lon="6.04026">
        <ele>812.4</ele>
        <time>2024-08-09T07:48:23Z</time>
      </trkpt>
      <trkpt lat="45.0691" lon="6.04026">
        <ele>812.4</ele>
        <time>2024-08-09T07:48:24Z</time>
      </trkpt>
      <trkpt lat="45.0691" lon="6.04026">
        <ele>813</ele>
        <time>2024-08-09T07:48:25Z</time>
      </trkpt>
      <trkpt lat="45.06911" lon="6.04029">
        <ele>813</ele>
        <time>2024-08-09T07:48:26Z</time>
      </trkpt>
      <trkpt lat="45.06911" lon="6.04029">
        <ele>813.6</ele>
        <time>2024-08-09T07:48:27Z</time>
      </trkpt>
      <trkpt lat="45.06913" lon="6.04031">
        <ele>813.8</ele>
        <time>2024-08-09T07:48:28Z</time>
      </trkpt>
      <trkpt lat="45.06913" lon="6.04031">
        <ele>813.8</ele>
        <time>2024-08-09T07:48:29Z</time>
      </trkpt>
      <trkpt lat="45.06913" lon="6.04031">
        <ele>814</ele>
        <time>2024-08-09T07:48:30Z</time>
      </trkpt>
      <trkpt lat="45.06913" lon="6.04031">
        <ele>814.6</ele>
        <time>2024-08-09T07:48:31Z</time>
      </trkpt>
      <trkpt lat="45.06913" lon="6.04031">
        <ele>815</ele>
        <time>2024-08-09T07:48:32Z</time>
      </trkpt>
      <trkpt lat="45.06913" lon="6.04031">
        <ele>815</ele>
        <time>2024-08-09T07:48:33Z</time>
      </trkpt>
      <trkpt lat="45.06913" lon="6.04031">
        <ele>814.8</ele>
        <time>2024-08-09T07:48:34Z</time>
      </trkpt>
      <trkpt lat="45.06913" lon="6.04031">
        <ele>814.8</ele>
        <time>2024-08-09T07:48:35Z</time>
      </trkpt>
      <trkpt lat="45.06913" lon="6.04031">
        <ele>815.4</ele>
        <time>2024-08-09T07:48:36Z</time>
      </trkpt>
      <trkpt lat="45.06911" lon="6.04034">
        <ele>815.6</ele>
        <time>2024-08-09T07:48:37Z</time>
      </trkpt>
      <trkpt lat="45.06911" lon="6.04034">
        <ele>816</ele>
        <time>2024-08-09T07:48:38Z</time>
      </trkpt>
      <trkpt lat="45.06909" lon="6.04037">
        <ele>816.2</ele>
        <time>2024-08-09T07:48:39Z</time>
      </trkpt>
      <trkpt lat="45.06909" lon="6.04037">
        <ele>816.4</ele>
        <time>2024-08-09T07:48:40Z</time>
      </trkpt>
      <trkpt lat="45.06907" lon="6.04039">
        <ele>816.4</ele>
        <time>2024-08-09T07:48:41Z</time>
      </trkpt>
      <trkpt lat="45.06907" lon="6.04039">
        <ele>816.6</ele>
        <time>2024-08-09T07:48:42Z</time>
      </trkpt>
      <trkpt lat="45.06905" lon="6.0404">
        <ele>816.8</ele>
        <time>2024-08-09T07:48:43Z</time>
      </trkpt>
      <trkpt lat="45.06905" lon="6.0404">
        <ele>817</ele>
        <time>2024-08-09T07:48:44Z</time>
      </trkpt>
      <trkpt lat="45.06905" lon="6.0404">
        <ele>817</ele>
        <time>2024-08-09T07:48:45Z</time>
      </trkpt>
      <trkpt lat="45.06907" lon="6.04041">
        <ele>817.4</ele>
        <time>2024-08-09T07:48:46Z</time>
      </trkpt>
      <trkpt lat="45.06907" lon="6.04041">
        <ele>817.6</ele>
        <time>2024-08-09T07:48:47Z</time>
      </trkpt>
      <trkpt lat="45.06909" lon="6.04042">
        <ele>817.8</ele>
        <time>2024-08-09T07:48:48Z</time>
      </trkpt>
      <trkpt lat="45.06909" lon="6.04042">
        <ele>817.8</ele>
        <time>2024-08-09T07:48:49Z</time>
      </trkpt>
      <trkpt lat="45.06909" lon="6.04042">
        <ele>818</ele>
        <time>2024-08-09T07:48:50Z</time>
      </trkpt>
      <trkpt lat="45.0691" lon="6.04043">
        <ele>818.6</ele>
        <time>2024-08-09T07:48:51Z</time>
      </trkpt>
      <trkpt lat="45.0691" lon="6.04043">
        <ele>819</ele>
        <time>2024-08-09T07:48:52Z</time>
      </trkpt>
      <trkpt lat="45.0691" lon="6.04043">
        <ele>819</ele>
        <time>2024-08-09T07:48:53Z</time>
      </trkpt>
      <trkpt lat="45.0691" lon="6.04043">
        <ele>819</ele>
        <time>2024-08-09T07:48:54Z</time>
      </trkpt>
      <trkpt lat="45.0691" lon="6.04043">
        <ele>819.2</ele>
        <time>2024-08-09T07:48:55Z</time>
      </trkpt>
      <trkpt lat="45.06912" lon="6.04045">
        <ele>819.6</ele>
        <time>2024-08-09T07:48:56Z</time>
      </trkpt>
      <trkpt lat="45.06912" lon="6.04045">
        <ele>819.8</ele>
        <time>2024-08-09T07:48:57Z</time>
      </trkpt>
      <trkpt lat="45.06912" lon="6.04045">
        <ele>819.8</ele>
        <time>2024-08-09T07:48:58Z</time>
      </trkpt>
      <trkpt lat="45.06912" lon="6.04045">
        <ele>820</ele>
        <time>2024-08-09T07:48:59Z</time>
      </trkpt>
      <trkpt lat="45.06915" lon="6.04046">
        <ele>820.4</ele>
        <time>2024-08-09T07:49:00Z</time>
      </trkpt>
      <trkpt lat="45.06915" lon="6.04046">
        <ele>820.6</ele>
        <time>2024-08-09T07:49:01Z</time>
      </trkpt>
      <trkpt lat="45.06917" lon="6.04047">
        <ele>821.2</ele>
        <time>2024-08-09T07:49:02Z</time>
      </trkpt>
      <trkpt lat="45.06917" lon="6.04047">
        <ele>821.2</ele>
        <time>2024-08-09T07:49:03Z</time>
      </trkpt>
      <trkpt lat="45.06919" lon="6.04049">
        <ele>821.6</ele>
        <time>2024-08-09T07:49:04Z</time>
      </trkpt>
      <trkpt lat="45.06919" lon="6.04049">
        <ele>821.6</ele>
        <time>2024-08-09T07:49:05Z</time>
      </trkpt>
      <trkpt lat="45.06916" lon="6.04053">
        <ele>821.6</ele>
        <time>2024-08-09T07:49:06Z</time>
      </trkpt>
      <trkpt lat="45.06915" lon="6.04055">
        <ele>822</ele>
        <time>2024-08-09T07:49:07Z</time>
      </trkpt>
      <trkpt lat="45.06915" lon="6.04055">
        <ele>822.2</ele>
        <time>2024-08-09T07:49:08Z</time>
      </trkpt>
      <trkpt lat="45.06915" lon="6.04055">
        <ele>822.2</ele>
        <time>2024-08-09T07:49:09Z</time>
      </trkpt>
      <trkpt lat="45.06913" lon="6.04057">
        <ele>822.4</ele>
        <time>2024-08-09T07:49:10Z</time>
      </trkpt>
      <trkpt lat="45.06913" lon="6.04057">
        <ele>822.6</ele>
        <time>2024-08-09T07:49:11Z</time>
      </trkpt>
      <trkpt lat="45.06913" lon="6.04057">
        <ele>822.8</ele>
        <time>2024-08-09T07:49:12Z</time>
      </trkpt>
      <trkpt lat="45.06913" lon="6.04057">
        <ele>822.8</ele>
        <time>2024-08-09T07:49:13Z</time>
      </trkpt>
      <trkpt lat="45.06913" lon="6.0406">
        <ele>823.2</ele>
        <time>2024-08-09T07:49:14Z</time>
      </trkpt>
      <trkpt lat="45.06913" lon="6.0406">
        <ele>823.4</ele>
        <time>2024-08-09T07:49:15Z</time>
      </trkpt>
      <trkpt lat="45.06913" lon="6.0406">
        <ele>824</ele>
        <time>2024-08-09T07:49:16Z</time>
      </trkpt>
      <trkpt lat="45.06911" lon="6.04058">
        <ele>824</ele>
        <time>2024-08-09T07:49:17Z</time>
      </trkpt>
      <trkpt lat="45.06911" lon="6.04058">
        <ele>824.4</ele>
        <time>2024-08-09T07:49:18Z</time>
      </trkpt>
      <trkpt lat="45.06911" lon="6.04058">
        <ele>824.4</ele>
        <time>2024-08-09T07:49:19Z</time>
      </trkpt>
      <trkpt lat="45.06911" lon="6.04058">
        <ele>824.6</ele>
        <time>2024-08-09T07:49:20Z</time>
      </trkpt>
      <trkpt lat="45.06911" lon="6.04058">
        <ele>825</ele>
        <time>2024-08-09T07:49:21Z</time>
      </trkpt>
      <trkpt lat="45.06911" lon="6.04058">
        <ele>825</ele>
        <time>2024-08-09T07:49:22Z</time>
      </trkpt>
      <trkpt lat="45.06911" lon="6.04058">
        <ele>825.4</ele>
        <time>2024-08-09T07:49:23Z</time>
      </trkpt>
      <trkpt lat="45.06911" lon="6.04058">
        <ele>825.8</ele>
        <time>2024-08-09T07:49:24Z</time>
      </trkpt>
      <trkpt lat="45.06911" lon="6.04058">
        <ele>826</ele>
        <time>2024-08-09T07:49:25Z</time>
      </trkpt>
      <trkpt lat="45.06911" lon="6.04058">
        <ele>826.2</ele>
        <time>2024-08-09T07:49:26Z</time>
      </trkpt>
      <trkpt lat="45.06911" lon="6.04058">
        <ele>826.2</ele>
        <time>2024-08-09T07:49:27Z</time>
      </trkpt>
      <trkpt lat="45.06911" lon="6.04058">
        <ele>826.4</ele>
        <time>2024-08-09T07:49:28Z</time>
      </trkpt>
      <trkpt lat="45.06908" lon="6.04058">
        <ele>827</ele>
        <time>2024-08-09T07:49:29Z</time>
      </trkpt>
      <trkpt lat="45.06906" lon="6.04059">
        <ele>827.2</ele>
        <time>2024-08-09T07:49:30Z</time>
      </trkpt>
      <trkpt lat="45.06903" lon="6.04059">
        <ele>827.2</ele>
        <time>2024-08-09T07:49:31Z</time>
      </trkpt>
      <trkpt lat="45.06901" lon="6.0406">
        <ele>827.6</ele>
        <time>2024-08-09T07:49:32Z</time>
      </trkpt>
      <trkpt lat="45.06901" lon="6.0406">
        <ele>827.8</ele>
        <time>2024-08-09T07:49:33Z</time>
      </trkpt>
      <trkpt lat="45.069" lon="6.04061">
        <ele>827.8</ele>
        <time>2024-08-09T07:49:34Z</time>
      </trkpt>
      <trkpt lat="45.06899" lon="6.04061">
        <ele>827.8</ele>
        <time>2024-08-09T07:49:35Z</time>
      </trkpt>
      <trkpt lat="45.06897" lon="6.04063">
        <ele>827.8</ele>
        <time>2024-08-09T07:49:36Z</time>
      </trkpt>
      <trkpt lat="45.06897" lon="6.04063">
        <ele>828.2</ele>
        <time>2024-08-09T07:49:37Z</time>
      </trkpt>
      <trkpt lat="45.06897" lon="6.04063">
        <ele>828.8</ele>
        <time>2024-08-09T07:49:38Z</time>
      </trkpt>
      <trkpt lat="45.06895" lon="6.04063">
        <ele>828.8</ele>
        <time>2024-08-09T07:49:39Z</time>
      </trkpt>
      <trkpt lat="45.06895" lon="6.04063">
        <ele>829</ele>
        <time>2024-08-09T07:49:40Z</time>
      </trkpt>
      <trkpt lat="45.06895" lon="6.04063">
        <ele>829</ele>
        <time>2024-08-09T07:49:41Z</time>
      </trkpt>
      <trkpt lat="45.06895" lon="6.04063">
        <ele>829.2</ele>
        <time>2024-08-09T07:49:42Z</time>
      </trkpt>
      <trkpt lat="45.06894" lon="6.04065">
        <ele>830</ele>
        <time>2024-08-09T07:49:43Z</time>
      </trkpt>
      <trkpt lat="45.06894" lon="6.04065">
        <ele>830.2</ele>
        <time>2024-08-09T07:49:44Z</time>
      </trkpt>
      <trkpt lat="45.06894" lon="6.04065">
        <ele>830.2</ele>
        <time>2024-08-09T07:49:45Z</time>
      </trkpt>
      <trkpt lat="45.06893" lon="6.04067">
        <ele>830.6</ele>
        <time>2024-08-09T07:49:46Z</time>
      </trkpt>
      <trkpt lat="45.06893" lon="6.04067">
        <ele>830.6</ele>
        <time>2024-08-09T07:49:47Z</time>
      </trkpt>
      <trkpt lat="45.06889" lon="6.04067">
        <ele>830.6</ele>
        <time>2024-08-09T07:49:48Z</time>
      </trkpt>
      <trkpt lat="45.06889" lon="6.04067">
        <ele>831</ele>
        <time>2024-08-09T07:49:49Z</time>
      </trkpt>
      <trkpt lat="45.06889" lon="6.04067">
        <ele>831.2</ele>
        <time>2024-08-09T07:49:50Z</time>
      </trkpt>
      <trkpt lat="45.06887" lon="6.04068">
        <ele>831.4</ele>
        <time>2024-08-09T07:49:51Z</time>
      </trkpt>
      <trkpt lat="45.06887" lon="6.04068">
        <ele>831.6</ele>
        <time>2024-08-09T07:49:52Z</time>
      </trkpt>
      <trkpt lat="45.06887" lon="6.04068">
        <ele>832</ele>
        <time>2024-08-09T07:49:53Z</time>
      </trkpt>
      <trkpt lat="45.06887" lon="6.04068">
        <ele>832.6</ele>
        <time>2024-08-09T07:49:54Z</time>
      </trkpt>
      <trkpt lat="45.06887" lon="6.04068">
        <ele>832.6</ele>
        <time>2024-08-09T07:49:55Z</time>
      </trkpt>
      <trkpt lat="45.06886" lon="6.0407">
        <ele>832.8</ele>
        <time>2024-08-09T07:49:56Z</time>
      </trkpt>
      <trkpt lat="45.06886" lon="6.0407">
        <ele>833</ele>
        <time>2024-08-09T07:49:57Z</time>
      </trkpt>
      <trkpt lat="45.06886" lon="6.0407">
        <ele>833.6</ele>
        <time>2024-08-09T07:49:58Z</time>
      </trkpt>
      <trkpt lat="45.06886" lon="6.0407">
        <ele>833.6</ele>
        <time>2024-08-09T07:49:59Z</time>
      </trkpt>
      <trkpt lat="45.06888" lon="6.04071">
        <ele>833.6</ele>
        <time>2024-08-09T07:50:01Z</time>
      </trkpt>
      <trkpt lat="45.0689" lon="6.04071">
        <ele>833.6</ele>
        <time>2024-08-09T07:50:03Z</time>
      </trkpt>
      <trkpt lat="45.0689" lon="6.04071">
        <ele>834.6</ele>
        <time>2024-08-09T07:50:04Z</time>
      </trkpt>
      <trkpt lat="45.0689" lon="6.04071">
        <ele>834.8</ele>
        <time>2024-08-09T07:50:05Z</time>
      </trkpt>
      <trkpt lat="45.0689" lon="6.04071">
        <ele>834.8</ele>
        <time>2024-08-09T07:50:06Z</time>
      </trkpt>
      <trkpt lat="45.0689" lon="6.04071">
        <ele>835.2</ele>
        <time>2024-08-09T07:50:07Z</time>
      </trkpt>
      <trkpt lat="45.0689" lon="6.04071">
        <ele>835.2</ele>
        <time>2024-08-09T07:50:08Z</time>
      </trkpt>
      <trkpt lat="45.0689" lon="6.04071">
        <ele>835.6</ele>
        <time>2024-08-09T07:50:09Z</time>
      </trkpt>
      <trkpt lat="45.0689" lon="6.04071">
        <ele>835.6</ele>
        <time>2024-08-09T07:50:10Z</time>
      </trkpt>
      <trkpt lat="45.0689" lon="6.04071">
        <ele>835.8</ele>
        <time>2024-08-09T07:50:11Z</time>
      </trkpt>
      <trkpt lat="45.06892" lon="6.04071">
        <ele>836.2</ele>
        <time>2024-08-09T07:50:12Z</time>
      </trkpt>
      <trkpt lat="45.06892" lon="6.04071">
        <ele>836.4</ele>
        <time>2024-08-09T07:50:13Z</time>
      </trkpt>
      <trkpt lat="45.06894" lon="6.04072">
        <ele>836.6</ele>
        <time>2024-08-09T07:50:14Z</time>
      </trkpt>
      <trkpt lat="45.06894" lon="6.04072">
        <ele>836.8</ele>
        <time>2024-08-09T07:50:15Z</time>
      </trkpt>
      <trkpt lat="45.06897" lon="6.04073">
        <ele>837</ele>
        <time>2024-08-09T07:50:16Z</time>
      </trkpt>
      <trkpt lat="45.06897" lon="6.04073">
        <ele>837.4</ele>
        <time>2024-08-09T07:50:17Z</time>
      </trkpt>
      <trkpt lat="45.06897" lon="6.04073">
        <ele>837.4</ele>
        <time>2024-08-09T07:50:18Z</time>
      </trkpt>
      <trkpt lat="45.06899" lon="6.04074">
        <ele>838</ele>
        <time>2024-08-09T07:50:19Z</time>
      </trkpt>
      <trkpt lat="45.06899" lon="6.04074">
        <ele>838.2</ele>
        <time>2024-08-09T07:50:20Z</time>
      </trkpt>
      <trkpt lat="45.06899" lon="6.04074">
        <ele>838.2</ele>
        <time>2024-08-09T07:50:21Z</time>
      </trkpt>
      <trkpt lat="45.06899" lon="6.04074">
        <ele>838.6</ele>
        <time>2024-08-09T07:50:22Z</time>
      </trkpt>
      <trkpt lat="45.06901" lon="6.04074">
        <ele>839</ele>
        <time>2024-08-09T07:50:23Z</time>
      </trkpt>
      <trkpt lat="45.06901" lon="6.04074">
        <ele>839</ele>
        <time>2024-08-09T07:50:24Z</time>
      </trkpt>
      <trkpt lat="45.06904" lon="6.04075">
        <ele>839</ele>
        <time>2024-08-09T07:50:26Z</time>
      </trkpt>
      <trkpt lat="45.06904" lon="6.04075">
        <ele>840</ele>
        <time>2024-08-09T07:50:27Z</time>
      </trkpt>
      <trkpt lat="45.06904" lon="6.04075">
        <ele>840</ele>
        <time>2024-08-09T07:50:28Z</time>
      </trkpt>
      <trkpt lat="45.06907" lon="6.04076">
        <ele>840.4</ele>
        <time>2024-08-09T07:50:29Z</time>
      </trkpt>
      <trkpt lat="45.06907" lon="6.04076">
        <ele>840.4</ele>
        <time>2024-08-09T07:50:30Z</time>
      </trkpt>
      <trkpt lat="45.06907" lon="6.04076">
        <ele>840.8</ele>
        <time>2024-08-09T07:50:31Z</time>
      </trkpt>
      <trkpt lat="45.06907" lon="6.04076">
        <ele>841</ele>
        <time>2024-08-09T07:50:32Z</time>
      </trkpt>
      <trkpt lat="45.06909" lon="6.04076">
        <ele>841</ele>
        <time>2024-08-09T07:50:33Z</time>
      </trkpt>
      <trkpt lat="45.06909" lon="6.04076">
        <ele>841.4</ele>
        <time>2024-08-09T07:50:34Z</time>
      </trkpt>
      <trkpt lat="45.06909" lon="6.04076">
        <ele>841.6</ele>
        <time>2024-08-09T07:50:35Z</time>
      </trkpt>
      <trkpt lat="45.06909" lon="6.04076">
        <ele>841.8</ele>
        <time>2024-08-09T07:50:36Z</time>
      </trkpt>
      <trkpt lat="45.06911" lon="6.04076">
        <ele>842.2</ele>
        <time>2024-08-09T07:50:37Z</time>
      </trkpt>
      <trkpt lat="45.06911" lon="6.04076">
        <ele>842.2</ele>
        <time>2024-08-09T07:50:38Z</time>
      </trkpt>
      <trkpt lat="45.06911" lon="6.04076">
        <ele>842.6</ele>
        <time>2024-08-09T07:50:39Z</time>
      </trkpt>
      <trkpt lat="45.06913" lon="6.04078">
        <ele>842.6</ele>
        <time>2024-08-09T07:50:40Z</time>
      </trkpt>
      <trkpt lat="45.06913" lon="6.04078">
        <ele>843.2</ele>
        <time>2024-08-09T07:50:41Z</time>
      </trkpt>
      <trkpt lat="45.06913" lon="6.04078">
        <ele>843.6</ele>
        <time>2024-08-09T07:50:42Z</time>
      </trkpt>
      <trkpt lat="45.06913" lon="6.04078">
        <ele>843.6</ele>
        <time>2024-08-09T07:50:43Z</time>
      </trkpt>
      <trkpt lat="45.06913" lon="6.0408">
        <ele>843.8</ele>
        <time>2024-08-09T07:50:44Z</time>
      </trkpt>
      <trkpt lat="45.06913" lon="6.0408">
        <ele>844</ele>
        <time>2024-08-09T07:50:45Z</time>
      </trkpt>
      <trkpt lat="45.06911" lon="6.04082">
        <ele>844.2</ele>
        <time>2024-08-09T07:50:46Z</time>
      </trkpt>
      <trkpt lat="45.06911" lon="6.04082">
        <ele>844.2</ele>
        <time>2024-08-09T07:50:47Z</time>
      </trkpt>
      <trkpt lat="45.0691" lon="6.04084">
        <ele>844.2</ele>
        <time>2024-08-09T07:50:48Z</time>
      </trkpt>
      <trkpt lat="45.0691" lon="6.04084">
        <ele>844.2</ele>
        <time>2024-08-09T07:50:49Z</time>
      </trkpt>
      <trkpt lat="45.06908" lon="6.04085">
        <ele>844.4</ele>
        <time>2024-08-09T07:50:50Z</time>
      </trkpt>
      <trkpt lat="45.06906" lon="6.04086">
        <ele>844.8</ele>
        <time>2024-08-09T07:50:51Z</time>
      </trkpt>
      <trkpt lat="45.06906" lon="6.04086">
        <ele>844.8</ele>
        <time>2024-08-09T07:50:52Z</time>
      </trkpt>
      <trkpt lat="45.06903" lon="6.04086">
        <ele>845.2</ele>
        <time>2024-08-09T07:50:53Z</time>
      </trkpt>
      <trkpt lat="45.06903" lon="6.04086">
        <ele>845.2</ele>
        <time>2024-08-09T07:50:54Z</time>
      </trkpt>
      <trkpt lat="45.06901" lon="6.04087">
        <ele>845.2</ele>
        <time>2024-08-09T07:50:55Z</time>
      </trkpt>
      <trkpt lat="45.06901" lon="6.04087">
        <ele>845.4</ele>
        <time>2024-08-09T07:50:56Z</time>
      </trkpt>
      <trkpt lat="45.06898" lon="6.04088">
        <ele>845.4</ele>
        <time>2024-08-09T07:50:57Z</time>
      </trkpt>
      <trkpt lat="45.06898" lon="6.04088">
        <ele>846</ele>
        <time>2024-08-09T07:50:58Z</time>
      </trkpt>
      <trkpt lat="45.06895" lon="6.04089">
        <ele>846.4</ele>
        <time>2024-08-09T07:50:59Z</time>
      </trkpt>
      <trkpt lat="45.06895" lon="6.04089">
        <ele>846.6</ele>
        <time>2024-08-09T07:51:00Z</time>
      </trkpt>
      <trkpt lat="45.06893" lon="6.04089">
        <ele>846.8</ele>
        <time>2024-08-09T07:51:01Z</time>
      </trkpt>
      <trkpt lat="45.06893" lon="6.04089">
        <ele>847.2</ele>
        <time>2024-08-09T07:51:02Z</time>
      </trkpt>
      <trkpt lat="45.06891" lon="6.04089">
        <ele>847.2</ele>
        <time>2024-08-09T07:51:03Z</time>
      </trkpt>
      <trkpt lat="45.06891" lon="6.04089">
        <ele>847</ele>
        <time>2024-08-09T07:51:04Z</time>
      </trkpt>
      <trkpt lat="45.06888" lon="6.0409">
        <ele>847</ele>
        <time>2024-08-09T07:51:05Z</time>
      </trkpt>
      <trkpt lat="45.06888" lon="6.0409">
        <ele>847.2</ele>
        <time>2024-08-09T07:51:06Z</time>
      </trkpt>
      <trkpt lat="45.06886" lon="6.04091">
        <ele>847.4</ele>
        <time>2024-08-09T07:51:07Z</time>
      </trkpt>
      <trkpt lat="45.06886" lon="6.04091">
        <ele>847.4</ele>
        <time>2024-08-09T07:51:08Z</time>
      </trkpt>
      <trkpt lat="45.06883" lon="6.04092">
        <ele>847.4</ele>
        <time>2024-08-09T07:51:09Z</time>
      </trkpt>
      <trkpt lat="45.06883" lon="6.04092">
        <ele>847.6</ele>
        <time>2024-08-09T07:51:10Z</time>
      </trkpt>
      <trkpt lat="45.06881" lon="6.04093">
        <ele>847.8</ele>
        <time>2024-08-09T07:51:11Z</time>
      </trkpt>
      <trkpt lat="45.06881" lon="6.04093">
        <ele>848</ele>
        <time>2024-08-09T07:51:12Z</time>
      </trkpt>
      <trkpt lat="45.06878" lon="6.04093">
        <ele>848.2</ele>
        <time>2024-08-09T07:51:13Z</time>
      </trkpt>
      <trkpt lat="45.06878" lon="6.04093">
        <ele>848.4</ele>
        <time>2024-08-09T07:51:14Z</time>
      </trkpt>
      <trkpt lat="45.06875" lon="6.04094">
        <ele>848.6</ele>
        <time>2024-08-09T07:51:15Z</time>
      </trkpt>
      <trkpt lat="45.06875" lon="6.04094">
        <ele>849</ele>
        <time>2024-08-09T07:51:16Z</time>
      </trkpt>
      <trkpt lat="45.06872" lon="6.04095">
        <ele>849.2</ele>
        <time>2024-08-09T07:51:17Z</time>
      </trkpt>
      <trkpt lat="45.06872" lon="6.04095">
        <ele>849.2</ele>
        <time>2024-08-09T07:51:18Z</time>
      </trkpt>
      <trkpt lat="45.06869" lon="6.04095">
        <ele>849.2</ele>
        <time>2024-08-09T07:51:19Z</time>
      </trkpt>
      <trkpt lat="45.06869" lon="6.04095">
        <ele>849.2</ele>
        <time>2024-08-09T07:51:20Z</time>
      </trkpt>
      <trkpt lat="45.06867" lon="6.04095">
        <ele>849.4</ele>
        <time>2024-08-09T07:51:21Z</time>
      </trkpt>
      <trkpt lat="45.06867" lon="6.04095">
        <ele>849.4</ele>
        <time>2024-08-09T07:51:22Z</time>
      </trkpt>
      <trkpt lat="45.06865" lon="6.04096">
        <ele>849.6</ele>
        <time>2024-08-09T07:51:23Z</time>
      </trkpt>
      <trkpt lat="45.06865" lon="6.04096">
        <ele>849.8</ele>
        <time>2024-08-09T07:51:24Z</time>
      </trkpt>
      <trkpt lat="45.06862" lon="6.04096">
        <ele>849.8</ele>
        <time>2024-08-09T07:51:25Z</time>
      </trkpt>
      <trkpt lat="45.06862" lon="6.04096">
        <ele>850.2</ele>
        <time>2024-08-09T07:51:26Z</time>
      </trkpt>
      <trkpt lat="45.0686" lon="6.04096">
        <ele>850.4</ele>
        <time>2024-08-09T07:51:27Z</time>
      </trkpt>
      <trkpt lat="45.0686" lon="6.04096">
        <ele>850.6</ele>
        <time>2024-08-09T07:51:28Z</time>
      </trkpt>
      <trkpt lat="45.06857" lon="6.04097">
        <ele>850.8</ele>
        <time>2024-08-09T07:51:29Z</time>
      </trkpt>
      <trkpt lat="45.06857" lon="6.04097">
        <ele>851</ele>
        <time>2024-08-09T07:51:30Z</time>
      </trkpt>
      <trkpt lat="45.06854" lon="6.04097">
        <ele>851.2</ele>
        <time>2024-08-09T07:51:31Z</time>
      </trkpt>
      <trkpt lat="45.06854" lon="6.04097">
        <ele>851.4</ele>
        <time>2024-08-09T07:51:32Z</time>
      </trkpt>
      <trkpt lat="45.06851" lon="6.04098">
        <ele>851.6</ele>
        <time>2024-08-09T07:51:33Z</time>
      </trkpt>
      <trkpt lat="45.06851" lon="6.04098">
        <ele>851.8</ele>
        <time>2024-08-09T07:51:34Z</time>
      </trkpt>
      <trkpt lat="45.06849" lon="6.04099">
        <ele>852.2</ele>
        <time>2024-08-09T07:51:35Z</time>
      </trkpt>
      <trkpt lat="45.06849" lon="6.04099">
        <ele>852.4</ele>
        <time>2024-08-09T07:51:36Z</time>
      </trkpt>
      <trkpt lat="45.06847" lon="6.041">
        <ele>852.4</ele>
        <time>2024-08-09T07:51:37Z</time>
      </trkpt>
      <trkpt lat="45.06847" lon="6.041">
        <ele>852.6</ele>
        <time>2024-08-09T07:51:38Z</time>
      </trkpt>
      <trkpt lat="45.06845" lon="6.041">
        <ele>852.6</ele>
        <time>2024-08-09T07:51:39Z</time>
      </trkpt>
      <trkpt lat="45.06845" lon="6.041">
        <ele>852.8</ele>
        <time>2024-08-09T07:51:40Z</time>
      </trkpt>
      <trkpt lat="45.06842" lon="6.04101">
        <ele>853</ele>
        <time>2024-08-09T07:51:41Z</time>
      </trkpt>
      <trkpt lat="45.06842" lon="6.04101">
        <ele>853.2</ele>
        <time>2024-08-09T07:51:42Z</time>
      </trkpt>
      <trkpt lat="45.06839" lon="6.04101">
        <ele>853.2</ele>
        <time>2024-08-09T07:51:43Z</time>
      </trkpt>
      <trkpt lat="45.06839" lon="6.04101">
        <ele>853.2</ele>
        <time>2024-08-09T07:51:44Z</time>
      </trkpt>
      <trkpt lat="45.06837" lon="6.04101">
        <ele>853.6</ele>
        <time>2024-08-09T07:51:45Z</time>
      </trkpt>
      <trkpt lat="45.06837" lon="6.04101">
        <ele>853.6</ele>
        <time>2024-08-09T07:51:46Z</time>
      </trkpt>
      <trkpt lat="45.06834" lon="6.04102">
        <ele>853.8</ele>
        <time>2024-08-09T07:51:47Z</time>
      </trkpt>
      <trkpt lat="45.06834" lon="6.04102">
        <ele>854</ele>
        <time>2024-08-09T07:51:48Z</time>
      </trkpt>
      <trkpt lat="45.06831" lon="6.04103">
        <ele>854.6</ele>
        <time>2024-08-09T07:51:49Z</time>
      </trkpt>
      <trkpt lat="45.06831" lon="6.04103">
        <ele>854.6</ele>
        <time>2024-08-09T07:51:50Z</time>
      </trkpt>
      <trkpt lat="45.06829" lon="6.04103">
        <ele>854.6</ele>
        <time>2024-08-09T07:51:51Z</time>
      </trkpt>
      <trkpt lat="45.06829" lon="6.04103">
        <ele>854.8</ele>
        <time>2024-08-09T07:51:52Z</time>
      </trkpt>
      <trkpt lat="45.06826" lon="6.04103">
        <ele>855.2</ele>
        <time>2024-08-09T07:51:53Z</time>
      </trkpt>
      <trkpt lat="45.06826" lon="6.04103">
        <ele>855.4</ele>
        <time>2024-08-09T07:51:54Z</time>
      </trkpt>
      <trkpt lat="45.06823" lon="6.04104">
        <ele>855.6</ele>
        <time>2024-08-09T07:51:55Z</time>
      </trkpt>
      <trkpt lat="45.06823" lon="6.04104">
        <ele>855.6</ele>
        <time>2024-08-09T07:51:56Z</time>
      </trkpt>
      <trkpt lat="45.06821" lon="6.04105">
        <ele>855.8</ele>
        <time>2024-08-09T07:51:57Z</time>
      </trkpt>
      <trkpt lat="45.06821" lon="6.04105">
        <ele>856</ele>
        <time>2024-08-09T07:51:58Z</time>
      </trkpt>
      <trkpt lat="45.06819" lon="6.04106">
        <ele>856</ele>
        <time>2024-08-09T07:51:59Z</time>
      </trkpt>
      <trkpt lat="45.06819" lon="6.04106">
        <ele>856.4</ele>
        <time>2024-08-09T07:52:00Z</time>
      </trkpt>
      <trkpt lat="45.06817" lon="6.04107">
        <ele>856.8</ele>
        <time>2024-08-09T07:52:01Z</time>
      </trkpt>
      <trkpt lat="45.06817" lon="6.04107">
        <ele>856.8</ele>
        <time>2024-08-09T07:52:02Z</time>
      </trkpt>
      <trkpt lat="45.06814" lon="6.04108">
        <ele>856.8</ele>
        <time>2024-08-09T07:52:03Z</time>
      </trkpt>
      <trkpt lat="45.06814" lon="6.04108">
        <ele>857</ele>
        <time>2024-08-09T07:52:04Z</time>
      </trkpt>
      <trkpt lat="45.06812" lon="6.04108">
        <ele>857.2</ele>
        <time>2024-08-09T07:52:05Z</time>
      </trkpt>
      <trkpt lat="45.06812" lon="6.04108">
        <ele>857.6</ele>
        <time>2024-08-09T07:52:06Z</time>
      </trkpt>
      <trkpt lat="45.0681" lon="6.0411">
        <ele>857.8</ele>
        <time>2024-08-09T07:52:07Z</time>
      </trkpt>
      <trkpt lat="45.0681" lon="6.0411">
        <ele>857.8</ele>
        <time>2024-08-09T07:52:08Z</time>
      </trkpt>
      <trkpt lat="45.06808" lon="6.04111">
        <ele>857.8</ele>
        <time>2024-08-09T07:52:09Z</time>
      </trkpt>
      <trkpt lat="45.06808" lon="6.04111">
        <ele>858</ele>
        <time>2024-08-09T07:52:10Z</time>
      </trkpt>
      <trkpt lat="45.06806" lon="6.04112">
        <ele>858.2</ele>
        <time>2024-08-09T07:52:11Z</time>
      </trkpt>
      <trkpt lat="45.06806" lon="6.04112">
        <ele>858.4</ele>
        <time>2024-08-09T07:52:12Z</time>
      </trkpt>
      <trkpt lat="45.06804" lon="6.04113">
        <ele>858.6</ele>
        <time>2024-08-09T07:52:13Z</time>
      </trkpt>
      <trkpt lat="45.06804" lon="6.04113">
        <ele>858.8</ele>
        <time>2024-08-09T07:52:14Z</time>
      </trkpt>
      <trkpt lat="45.06802" lon="6.04114">
        <ele>858.8</ele>
        <time>2024-08-09T07:52:15Z</time>
      </trkpt>
      <trkpt lat="45.06802" lon="6.04114">
        <ele>858.8</ele>
        <time>2024-08-09T07:52:16Z</time>
      </trkpt>
      <trkpt lat="45.06799" lon="6.04116">
        <ele>859</ele>
        <time>2024-08-09T07:52:17Z</time>
      </trkpt>
      <trkpt lat="45.06799" lon="6.04116">
        <ele>859.2</ele>
        <time>2024-08-09T07:52:18Z</time>
      </trkpt>
      <trkpt lat="45.06797" lon="6.04117">
        <ele>859.4</ele>
        <time>2024-08-09T07:52:19Z</time>
      </trkpt>
      <trkpt lat="45.06797" lon="6.04117">
        <ele>859.4</ele>
        <time>2024-08-09T07:52:20Z</time>
      </trkpt>
      <trkpt lat="45.06795" lon="6.04117">
        <ele>859.6</ele>
        <time>2024-08-09T07:52:21Z</time>
      </trkpt>
      <trkpt lat="45.06795" lon="6.04117">
        <ele>859.8</ele>
        <time>2024-08-09T07:52:22Z</time>
      </trkpt>
      <trkpt lat="45.06792" lon="6.04119">
        <ele>860.2</ele>
        <time>2024-08-09T07:52:23Z</time>
      </trkpt>
      <trkpt lat="45.06792" lon="6.04119">
        <ele>860.4</ele>
        <time>2024-08-09T07:52:24Z</time>
      </trkpt>
      <trkpt lat="45.0679" lon="6.0412">
        <ele>860.6</ele>
        <time>2024-08-09T07:52:25Z</time>
      </trkpt>
      <trkpt lat="45.0679" lon="6.0412">
        <ele>860.6</ele>
        <time>2024-08-09T07:52:26Z</time>
      </trkpt>
      <trkpt lat="45.06788" lon="6.04121">
        <ele>861</ele>
        <time>2024-08-09T07:52:27Z</time>
      </trkpt>
      <trkpt lat="45.06788" lon="6.04121">
        <ele>861.2</ele>
        <time>2024-08-09T07:52:28Z</time>
      </trkpt>
      <trkpt lat="45.06784" lon="6.04123">
        <ele>861.2</ele>
        <time>2024-08-09T07:52:29Z</time>
      </trkpt>
      <trkpt lat="45.06784" lon="6.04123">
        <ele>861.2</ele>
        <time>2024-08-09T07:52:30Z</time>
      </trkpt>
      <trkpt lat="45.06781" lon="6.04124">
        <ele>861.6</ele>
        <time>2024-08-09T07:52:31Z</time>
      </trkpt>
      <trkpt lat="45.06781" lon="6.04124">
        <ele>861.8</ele>
        <time>2024-08-09T07:52:32Z</time>
      </trkpt>
      <trkpt lat="45.06779" lon="6.04125">
        <ele>861.8</ele>
        <time>2024-08-09T07:52:33Z</time>
      </trkpt>
      <trkpt lat="45.06779" lon="6.04125">
        <ele>861.8</ele>
        <time>2024-08-09T07:52:34Z</time>
      </trkpt>
      <trkpt lat="45.06779" lon="6.04125">
        <ele>862.2</ele>
        <time>2024-08-09T07:52:35Z</time>
      </trkpt>
      <trkpt lat="45.06775" lon="6.04127">
        <ele>862.2</ele>
        <time>2024-08-09T07:52:36Z</time>
      </trkpt>
      <trkpt lat="45.06775" lon="6.04127">
        <ele>862.6</ele>
        <time>2024-08-09T07:52:37Z</time>
      </trkpt>
      <trkpt lat="45.06773" lon="6.04128">
        <ele>863</ele>
        <time>2024-08-09T07:52:38Z</time>
      </trkpt>
      <trkpt lat="45.06773" lon="6.04128">
        <ele>863</ele>
        <time>2024-08-09T07:52:39Z</time>
      </trkpt>
      <trkpt lat="45.0677" lon="6.0413">
        <ele>863</ele>
        <time>2024-08-09T07:52:40Z</time>
      </trkpt>
      <trkpt lat="45.0677" lon="6.0413">
        <ele>863.2</ele>
        <time>2024-08-09T07:52:41Z</time>
      </trkpt>
      <trkpt lat="45.06768" lon="6.04131">
        <ele>863.4</ele>
        <time>2024-08-09T07:52:42Z</time>
      </trkpt>
      <trkpt lat="45.06768" lon="6.04131">
        <ele>863.4</ele>
        <time>2024-08-09T07:52:43Z</time>
      </trkpt>
      <trkpt lat="45.06766" lon="6.04133">
        <ele>863.6</ele>
        <time>2024-08-09T07:52:44Z</time>
      </trkpt>
      <trkpt lat="45.06766" lon="6.04133">
        <ele>863.8</ele>
        <time>2024-08-09T07:52:45Z</time>
      </trkpt>
      <trkpt lat="45.06763" lon="6.04134">
        <ele>864.2</ele>
        <time>2024-08-09T07:52:46Z</time>
      </trkpt>
      <trkpt lat="45.06763" lon="6.04134">
        <ele>864.2</ele>
        <time>2024-08-09T07:52:47Z</time>
      </trkpt>
      <trkpt lat="45.06761" lon="6.04135">
        <ele>864.4</ele>
        <time>2024-08-09T07:52:48Z</time>
      </trkpt>
      <trkpt lat="45.06761" lon="6.04135">
        <ele>864.4</ele>
        <time>2024-08-09T07:52:49Z</time>
      </trkpt>
      <trkpt lat="45.06759" lon="6.04136">
        <ele>864.8</ele>
        <time>2024-08-09T07:52:50Z</time>
      </trkpt>
      <trkpt lat="45.06759" lon="6.04136">
        <ele>865.2</ele>
        <time>2024-08-09T07:52:51Z</time>
      </trkpt>
      <trkpt lat="45.06757" lon="6.04137">
        <ele>865.2</ele>
        <time>2024-08-09T07:52:52Z</time>
      </trkpt>
      <trkpt lat="45.06757" lon="6.04137">
        <ele>865.2</ele>
        <time>2024-08-09T07:52:53Z</time>
      </trkpt>
      <trkpt lat="45.06754" lon="6.04139">
        <ele>865.4</ele>
        <time>2024-08-09T07:52:54Z</time>
      </trkpt>
      <trkpt lat="45.06754" lon="6.04139">
        <ele>865.8</ele>
        <time>2024-08-09T07:52:55Z</time>
      </trkpt>
      <trkpt lat="45.06752" lon="6.04141">
        <ele>866</ele>
        <time>2024-08-09T07:52:56Z</time>
      </trkpt>
      <trkpt lat="45.06752" lon="6.04141">
        <ele>866</ele>
        <time>2024-08-09T07:52:57Z</time>
      </trkpt>
      <trkpt lat="45.0675" lon="6.04142">
        <ele>866</ele>
        <time>2024-08-09T07:52:58Z</time>
      </trkpt>
      <trkpt lat="45.0675" lon="6.04142">
        <ele>866</ele>
        <time>2024-08-09T07:52:59Z</time>
      </trkpt>
      <trkpt lat="45.06748" lon="6.04143">
        <ele>866.2</ele>
        <time>2024-08-09T07:53:00Z</time>
      </trkpt>
      <trkpt lat="45.06748" lon="6.04143">
        <ele>866.4</ele>
        <time>2024-08-09T07:53:01Z</time>
      </trkpt>
      <trkpt lat="45.06745" lon="6.04145">
        <ele>867</ele>
        <time>2024-08-09T07:53:02Z</time>
      </trkpt>
      <trkpt lat="45.06745" lon="6.04145">
        <ele>867</ele>
        <time>2024-08-09T07:53:03Z</time>
      </trkpt>
      <trkpt lat="45.06742" lon="6.04147">
        <ele>867</ele>
        <time>2024-08-09T07:53:04Z</time>
      </trkpt>
      <trkpt lat="45.06742" lon="6.04147">
        <ele>867</ele>
        <time>2024-08-09T07:53:05Z</time>
      </trkpt>
      <trkpt lat="45.0674" lon="6.04148">
        <ele>867</ele>
        <time>2024-08-09T07:53:06Z</time>
      </trkpt>
      <trkpt lat="45.0674" lon="6.04148">
        <ele>867</ele>
        <time>2024-08-09T07:53:07Z</time>
      </trkpt>
      <trkpt lat="45.06738" lon="6.04149">
        <ele>867.4</ele>
        <time>2024-08-09T07:53:08Z</time>
      </trkpt>
      <trkpt lat="45.06738" lon="6.04149">
        <ele>867.6</ele>
        <time>2024-08-09T07:53:09Z</time>
      </trkpt>
      <trkpt lat="45.06735" lon="6.04151">
        <ele>867.8</ele>
        <time>2024-08-09T07:53:10Z</time>
      </trkpt>
      <trkpt lat="45.06735" lon="6.04151">
        <ele>868</ele>
        <time>2024-08-09T07:53:11Z</time>
      </trkpt>
      <trkpt lat="45.06733" lon="6.04152">
        <ele>868.2</ele>
        <time>2024-08-09T07:53:12Z</time>
      </trkpt>
      <trkpt lat="45.06733" lon="6.04152">
        <ele>868.4</ele>
        <time>2024-08-09T07:53:13Z</time>
      </trkpt>
      <trkpt lat="45.06731" lon="6.04153">
        <ele>868.6</ele>
        <time>2024-08-09T07:53:14Z</time>
      </trkpt>
      <trkpt lat="45.06731" lon="6.04153">
        <ele>868.8</ele>
        <time>2024-08-09T07:53:15Z</time>
      </trkpt>
      <trkpt lat="45.06728" lon="6.04154">
        <ele>868.8</ele>
        <time>2024-08-09T07:53:16Z</time>
      </trkpt>
      <trkpt lat="45.06728" lon="6.04154">
        <ele>869.2</ele>
        <time>2024-08-09T07:53:17Z</time>
      </trkpt>
      <trkpt lat="45.06726" lon="6.04155">
        <ele>869.4</ele>
        <time>2024-08-09T07:53:18Z</time>
      </trkpt>
      <trkpt lat="45.06726" lon="6.04155">
        <ele>869.4</ele>
        <time>2024-08-09T07:53:19Z</time>
      </trkpt>
      <trkpt lat="45.06724" lon="6.04156">
        <ele>869.6</ele>
        <time>2024-08-09T07:53:20Z</time>
      </trkpt>
      <trkpt lat="45.06724" lon="6.04156">
        <ele>869.6</ele>
        <time>2024-08-09T07:53:21Z</time>
      </trkpt>
      <trkpt lat="45.06721" lon="6.04158">
        <ele>869.8</ele>
        <time>2024-08-09T07:53:22Z</time>
      </trkpt>
      <trkpt lat="45.06721" lon="6.04158">
        <ele>869.8</ele>
        <time>2024-08-09T07:53:23Z</time>
      </trkpt>
      <trkpt lat="45.06719" lon="6.04159">
        <ele>870</ele>
        <time>2024-08-09T07:53:24Z</time>
      </trkpt>
      <trkpt lat="45.06719" lon="6.04159">
        <ele>870.2</ele>
        <time>2024-08-09T07:53:25Z</time>
      </trkpt>
      <trkpt lat="45.06717" lon="6.04161">
        <ele>870.6</ele>
        <time>2024-08-09T07:53:26Z</time>
      </trkpt>
      <trkpt lat="45.06717" lon="6.04161">
        <ele>870.8</ele>
        <time>2024-08-09T07:53:27Z</time>
      </trkpt>
      <trkpt lat="45.06717" lon="6.04161">
        <ele>870.8</ele>
        <time>2024-08-09T07:53:28Z</time>
      </trkpt>
      <trkpt lat="45.06715" lon="6.04163">
        <ele>870.8</ele>
        <time>2024-08-09T07:53:29Z</time>
      </trkpt>
      <trkpt lat="45.06715" lon="6.04163">
        <ele>871</ele>
        <time>2024-08-09T07:53:30Z</time>
      </trkpt>
      <trkpt lat="45.06713" lon="6.04165">
        <ele>871.4</ele>
        <time>2024-08-09T07:53:31Z</time>
      </trkpt>
      <trkpt lat="45.06713" lon="6.04165">
        <ele>871.6</ele>
        <time>2024-08-09T07:53:32Z</time>
      </trkpt>
      <trkpt lat="45.0671" lon="6.04166">
        <ele>871.8</ele>
        <time>2024-08-09T07:53:33Z</time>
      </trkpt>
      <trkpt lat="45.0671" lon="6.04166">
        <ele>872</ele>
        <time>2024-08-09T07:53:34Z</time>
      </trkpt>
      <trkpt lat="45.06708" lon="6.04168">
        <ele>872</ele>
        <time>2024-08-09T07:53:35Z</time>
      </trkpt>
      <trkpt lat="45.06708" lon="6.04168">
        <ele>872.2</ele>
        <time>2024-08-09T07:53:36Z</time>
      </trkpt>
      <trkpt lat="45.06706" lon="6.0417">
        <ele>872.4</ele>
        <time>2024-08-09T07:53:37Z</time>
      </trkpt>
      <trkpt lat="45.06706" lon="6.0417">
        <ele>872.4</ele>
        <time>2024-08-09T07:53:38Z</time>
      </trkpt>
      <trkpt lat="45.06704" lon="6.04171">
        <ele>872.6</ele>
        <time>2024-08-09T07:53:39Z</time>
      </trkpt>
      <trkpt lat="45.06704" lon="6.04171">
        <ele>872.8</ele>
        <time>2024-08-09T07:53:40Z</time>
      </trkpt>
      <trkpt lat="45.06701" lon="6.04173">
        <ele>872.8</ele>
        <time>2024-08-09T07:53:41Z</time>
      </trkpt>
      <trkpt lat="45.06701" lon="6.04173">
        <ele>873</ele>
        <time>2024-08-09T07:53:42Z</time>
      </trkpt>
      <trkpt lat="45.06698" lon="6.04175">
        <ele>873.2</ele>
        <time>2024-08-09T07:53:43Z</time>
      </trkpt>
      <trkpt lat="45.06698" lon="6.04175">
        <ele>873.4</ele>
        <time>2024-08-09T07:53:44Z</time>
      </trkpt>
      <trkpt lat="45.06696" lon="6.04177">
        <ele>873.6</ele>
        <time>2024-08-09T07:53:45Z</time>
      </trkpt>
      <trkpt lat="45.06696" lon="6.04177">
        <ele>873.6</ele>
        <time>2024-08-09T07:53:46Z</time>
      </trkpt>
      <trkpt lat="45.06693" lon="6.04178">
        <ele>874</ele>
        <time>2024-08-09T07:53:47Z</time>
      </trkpt>
      <trkpt lat="45.06693" lon="6.04178">
        <ele>874</ele>
        <time>2024-08-09T07:53:48Z</time>
      </trkpt>
      <trkpt lat="45.06691" lon="6.04179">
        <ele>874</ele>
        <time>2024-08-09T07:53:49Z</time>
      </trkpt>
      <trkpt lat="45.06691" lon="6.04179">
        <ele>874.4</ele>
        <time>2024-08-09T07:53:50Z</time>
      </trkpt>
      <trkpt lat="45.06688" lon="6.04181">
        <ele>874.4</ele>
        <time>2024-08-09T07:53:51Z</time>
      </trkpt>
      <trkpt lat="45.06688" lon="6.04181">
        <ele>874.8</ele>
        <time>2024-08-09T07:53:52Z</time>
      </trkpt>
      <trkpt lat="45.06685" lon="6.04182">
        <ele>875</ele>
        <time>2024-08-09T07:53:53Z</time>
      </trkpt>
      <trkpt lat="45.06685" lon="6.04182">
        <ele>875.2</ele>
        <time>2024-08-09T07:53:54Z</time>
      </trkpt>
      <trkpt lat="45.06683" lon="6.04183">
        <ele>875.4</ele>
        <time>2024-08-09T07:53:55Z</time>
      </trkpt>
      <trkpt lat="45.06683" lon="6.04183">
        <ele>875.4</ele>
        <time>2024-08-09T07:53:56Z</time>
      </trkpt>
      <trkpt lat="45.06681" lon="6.04184">
        <ele>875.6</ele>
        <time>2024-08-09T07:53:57Z</time>
      </trkpt>
      <trkpt lat="45.06681" lon="6.04184">
        <ele>875.8</ele>
        <time>2024-08-09T07:53:58Z</time>
      </trkpt>
      <trkpt lat="45.06678" lon="6.04186">
        <ele>875.8</ele>
        <time>2024-08-09T07:53:59Z</time>
      </trkpt>
      <trkpt lat="45.06678" lon="6.04186">
        <ele>876.2</ele>
        <time>2024-08-09T07:54:00Z</time>
      </trkpt>
      <trkpt lat="45.06678" lon="6.04186">
        <ele>876.4</ele>
        <time>2024-08-09T07:54:01Z</time>
      </trkpt>
      <trkpt lat="45.06678" lon="6.04186">
        <ele>876.8</ele>
        <time>2024-08-09T07:54:02Z</time>
      </trkpt>
      <trkpt lat="45.06678" lon="6.04186">
        <ele>876.8</ele>
        <time>2024-08-09T07:54:03Z</time>
      </trkpt>
      <trkpt lat="45.06678" lon="6.04186">
        <ele>876.6</ele>
        <time>2024-08-09T07:54:04Z</time>
      </trkpt>
      <trkpt lat="45.06678" lon="6.04186">
        <ele>876.2</ele>
        <time>2024-08-09T07:54:05Z</time>
      </trkpt>
      <trkpt lat="45.06678" lon="6.04186">
        <ele>876.2</ele>
        <time>2024-08-09T07:54:06Z</time>
      </trkpt>
      <trkpt lat="45.06678" lon="6.04186">
        <ele>876.4</ele>
        <time>2024-08-09T07:54:07Z</time>
      </trkpt>
      <trkpt lat="45.06676" lon="6.04187">
        <ele>876.6</ele>
        <time>2024-08-09T07:54:08Z</time>
      </trkpt>
      <trkpt lat="45.06676" lon="6.04187">
        <ele>876.6</ele>
        <time>2024-08-09T07:54:09Z</time>
      </trkpt>
      <trkpt lat="45.06673" lon="6.04188">
        <ele>877</ele>
        <time>2024-08-09T07:54:10Z</time>
      </trkpt>
      <trkpt lat="45.06673" lon="6.04188">
        <ele>877</ele>
        <time>2024-08-09T07:54:11Z</time>
      </trkpt>
      <trkpt lat="45.06671" lon="6.04189">
        <ele>877</ele>
        <time>2024-08-09T07:54:12Z</time>
      </trkpt>
      <trkpt lat="45.06671" lon="6.04189">
        <ele>877</ele>
        <time>2024-08-09T07:54:13Z</time>
      </trkpt>
      <trkpt lat="45.06671" lon="6.04189">
        <ele>877</ele>
        <time>2024-08-09T07:54:14Z</time>
      </trkpt>
      <trkpt lat="45.06671" lon="6.04189">
        <ele>877.2</ele>
        <time>2024-08-09T07:54:15Z</time>
      </trkpt>
      <trkpt lat="45.06671" lon="6.04189">
        <ele>877.2</ele>
        <time>2024-08-09T07:54:16Z</time>
      </trkpt>
      <trkpt lat="45.06671" lon="6.04189">
        <ele>877.2</ele>
        <time>2024-08-09T07:54:17Z</time>
      </trkpt>
      <trkpt lat="45.06669" lon="6.0419">
        <ele>877.2</ele>
        <time>2024-08-09T07:54:18Z</time>
      </trkpt>
      <trkpt lat="45.06669" lon="6.0419">
        <ele>877.4</ele>
        <time>2024-08-09T07:54:19Z</time>
      </trkpt>
      <trkpt lat="45.06667" lon="6.04191">
        <ele>877.6</ele>
        <time>2024-08-09T07:54:20Z</time>
      </trkpt>
      <trkpt lat="45.06667" lon="6.04191">
        <ele>877.6</ele>
        <time>2024-08-09T07:54:21Z</time>
      </trkpt>
      <trkpt lat="45.06665" lon="6.04192">
        <ele>877.4</ele>
        <time>2024-08-09T07:54:22Z</time>
      </trkpt>
      <trkpt lat="45.06665" lon="6.04192">
        <ele>877.8</ele>
        <time>2024-08-09T07:54:23Z</time>
      </trkpt>
      <trkpt lat="45.06662" lon="6.04193">
        <ele>878</ele>
        <time>2024-08-09T07:54:24Z</time>
      </trkpt>
      <trkpt lat="45.06662" lon="6.04193">
        <ele>878.2</ele>
        <time>2024-08-09T07:54:25Z</time>
      </trkpt>
      <trkpt lat="45.0666" lon="6.04195">
        <ele>878.2</ele>
        <time>2024-08-09T07:54:26Z</time>
      </trkpt>
      <trkpt lat="45.0666" lon="6.04195">
        <ele>878.4</ele>
        <time>2024-08-09T07:54:27Z</time>
      </trkpt>
      <trkpt lat="45.06657" lon="6.04195">
        <ele>878.4</ele>
        <time>2024-08-09T07:54:28Z</time>
      </trkpt>
      <trkpt lat="45.06657" lon="6.04195">
        <ele>878.4</ele>
        <time>2024-08-09T07:54:29Z</time>
      </trkpt>
      <trkpt lat="45.06654" lon="6.04196">
        <ele>878.6</ele>
        <time>2024-08-09T07:54:30Z</time>
      </trkpt>
      <trkpt lat="45.06654" lon="6.04196">
        <ele>878.8</ele>
        <time>2024-08-09T07:54:31Z</time>
      </trkpt>
      <trkpt lat="45.06652" lon="6.04197">
        <ele>879</ele>
        <time>2024-08-09T07:54:32Z</time>
      </trkpt>
      <trkpt lat="45.06652" lon="6.04197">
        <ele>879.6</ele>
        <time>2024-08-09T07:54:33Z</time>
      </trkpt>
      <trkpt lat="45.06652" lon="6.04197">
        <ele>879.6</ele>
        <time>2024-08-09T07:54:34Z</time>
      </trkpt>
      <trkpt lat="45.06652" lon="6.04197">
        <ele>879.6</ele>
        <time>2024-08-09T07:54:35Z</time>
      </trkpt>
      <trkpt lat="45.06652" lon="6.04197">
        <ele>879.8</ele>
        <time>2024-08-09T07:54:36Z</time>
      </trkpt>
      <trkpt lat="45.06652" lon="6.04197">
        <ele>879.8</ele>
        <time>2024-08-09T07:54:37Z</time>
      </trkpt>
      <trkpt lat="45.06651" lon="6.04199">
        <ele>879.8</ele>
        <time>2024-08-09T07:54:38Z</time>
      </trkpt>
      <trkpt lat="45.06651" lon="6.04199">
        <ele>879.8</ele>
        <time>2024-08-09T07:54:39Z</time>
      </trkpt>
      <trkpt lat="45.06651" lon="6.04199">
        <ele>879.6</ele>
        <time>2024-08-09T07:54:40Z</time>
      </trkpt>
      <trkpt lat="45.06651" lon="6.04199">
        <ele>879.4</ele>
        <time>2024-08-09T07:54:41Z</time>
      </trkpt>
      <trkpt lat="45.06651" lon="6.04199">
        <ele>879.4</ele>
        <time>2024-08-09T07:54:42Z</time>
      </trkpt>
      <trkpt lat="45.06651" lon="6.04199">
        <ele>879.6</ele>
        <time>2024-08-09T07:54:43Z</time>
      </trkpt>
      <trkpt lat="45.06651" lon="6.04199">
        <ele>879.6</ele>
        <time>2024-08-09T07:54:44Z</time>
      </trkpt>
      <trkpt lat="45.06651" lon="6.04199">
        <ele>879.6</ele>
        <time>2024-08-09T07:54:45Z</time>
      </trkpt>
      <trkpt lat="45.06651" lon="6.04199">
        <ele>879.6</ele>
        <time>2024-08-09T07:54:46Z</time>
      </trkpt>
      <trkpt lat="45.06651" lon="6.04199">
        <ele>879.6</ele>
        <time>2024-08-09T07:54:47Z</time>
      </trkpt>
      <trkpt lat="45.06651" lon="6.04199">
        <ele>879.6</ele>
        <time>2024-08-09T07:54:48Z</time>
      </trkpt>
      <trkpt lat="45.06651" lon="6.04199">
        <ele>879.6</ele>
        <time>2024-08-09T07:54:49Z</time>
      </trkpt>
      <trkpt lat="45.06651" lon="6.04199">
        <ele>879.6</ele>
        <time>2024-08-09T07:54:50Z</time>
      </trkpt>
      <trkpt lat="45.06651" lon="6.04199">
        <ele>879.6</ele>
        <time>2024-08-09T07:54:51Z</time>
      </trkpt>
      <trkpt lat="45.06651" lon="6.04199">
        <ele>879.6</ele>
        <time>2024-08-09T07:54:52Z</time>
      </trkpt>
      <trkpt lat="45.06651" lon="6.04199">
        <ele>879.4</ele>
        <time>2024-08-09T07:54:53Z</time>
      </trkpt>
      <trkpt lat="45.06651" lon="6.04199">
        <ele>879.4</ele>
        <time>2024-08-09T07:54:54Z</time>
      </trkpt>
      <trkpt lat="45.06651" lon="6.04199">
        <ele>879.8</ele>
        <time>2024-08-09T07:54:55Z</time>
      </trkpt>
      <trkpt lat="45.06651" lon="6.04199">
        <ele>879.8</ele>
        <time>2024-08-09T07:54:56Z</time>
      </trkpt>
      <trkpt lat="45.06651" lon="6.04199">
        <ele>879.6</ele>
        <time>2024-08-09T07:54:57Z</time>
      </trkpt>
      <trkpt lat="45.06651" lon="6.04199">
        <ele>879.6</ele>
        <time>2024-08-09T07:54:58Z</time>
      </trkpt>
      <trkpt lat="45.06651" lon="6.04199">
        <ele>879.4</ele>
        <time>2024-08-09T07:54:59Z</time>
      </trkpt>
      <trkpt lat="45.06651" lon="6.04199">
        <ele>879.4</ele>
        <time>2024-08-09T07:55:00Z</time>
      </trkpt>
      <trkpt lat="45.06651" lon="6.04199">
        <ele>879.4</ele>
        <time>2024-08-09T07:55:01Z</time>
      </trkpt>
      <trkpt lat="45.06651" lon="6.04199">
        <ele>879.4</ele>
        <time>2024-08-09T07:55:02Z</time>
      </trkpt>
      <trkpt lat="45.06651" lon="6.04199">
        <ele>879.4</ele>
        <time>2024-08-09T07:55:03Z</time>
      </trkpt>
      <trkpt lat="45.06651" lon="6.04199">
        <ele>879.2</ele>
        <time>2024-08-09T07:55:04Z</time>
      </trkpt>
      <trkpt lat="45.06651" lon="6.04199">
        <ele>879.2</ele>
        <time>2024-08-09T07:55:05Z</time>
      </trkpt>
      <trkpt lat="45.06651" lon="6.04199">
        <ele>879.2</ele>
        <time>2024-08-09T07:55:06Z</time>
      </trkpt>
      <trkpt lat="45.06651" lon="6.04199">
        <ele>879.2</ele>
        <time>2024-08-09T07:55:07Z</time>
      </trkpt>
      <trkpt lat="45.06651" lon="6.04199">
        <ele>878.8</ele>
        <time>2024-08-09T07:55:08Z</time>
      </trkpt>
      <trkpt lat="45.06651" lon="6.04199">
        <ele>878.8</ele>
        <time>2024-08-09T07:55:09Z</time>
      </trkpt>
      <trkpt lat="45.06651" lon="6.04199">
        <ele>878.8</ele>
        <time>2024-08-09T07:55:10Z</time>
      </trkpt>
      <trkpt lat="45.06649" lon="6.042">
        <ele>879</ele>
        <time>2024-08-09T07:55:11Z</time>
      </trkpt>
      <trkpt lat="45.06649" lon="6.042">
        <ele>879</ele>
        <time>2024-08-09T07:55:12Z</time>
      </trkpt>
      <trkpt lat="45.06646" lon="6.04202">
        <ele>879.4</ele>
        <time>2024-08-09T07:55:13Z</time>
      </trkpt>
      <trkpt lat="45.06646" lon="6.04202">
        <ele>879.6</ele>
        <time>2024-08-09T07:55:14Z</time>
      </trkpt>
      <trkpt lat="45.06643" lon="6.04205">
        <ele>879.6</ele>
        <time>2024-08-09T07:55:15Z</time>
      </trkpt>
      <trkpt lat="45.06643" lon="6.04205">
        <ele>879.8</ele>
        <time>2024-08-09T07:55:16Z</time>
      </trkpt>
      <trkpt lat="45.0664" lon="6.04207">
        <ele>879.8</ele>
        <time>2024-08-09T07:55:17Z</time>
      </trkpt>
      <trkpt lat="45.0664" lon="6.04207">
        <ele>879.8</ele>
        <time>2024-08-09T07:55:18Z</time>
      </trkpt>
      <trkpt lat="45.06638" lon="6.0421">
        <ele>879.8</ele>
        <time>2024-08-09T07:55:19Z</time>
      </trkpt>
      <trkpt lat="45.06638" lon="6.0421">
        <ele>880.2</ele>
        <time>2024-08-09T07:55:20Z</time>
      </trkpt>
      <trkpt lat="45.06637" lon="6.04213">
        <ele>880.2</ele>
        <time>2024-08-09T07:55:21Z</time>
      </trkpt>
      <trkpt lat="45.06637" lon="6.04213">
        <ele>880.2</ele>
        <time>2024-08-09T07:55:22Z</time>
      </trkpt>
      <trkpt lat="45.06637" lon="6.04218">
        <ele>880.2</ele>
        <time>2024-08-09T07:55:23Z</time>
      </trkpt>
      <trkpt lat="45.06637" lon="6.04218">
        <ele>880.4</ele>
        <time>2024-08-09T07:55:24Z</time>
      </trkpt>
      <trkpt lat="45.06637" lon="6.04221">
        <ele>880.4</ele>
        <time>2024-08-09T07:55:25Z</time>
      </trkpt>
      <trkpt lat="45.06637" lon="6.04221">
        <ele>880.4</ele>
        <time>2024-08-09T07:55:26Z</time>
      </trkpt>
      <trkpt lat="45.06639" lon="6.04225">
        <ele>880.4</ele>
        <time>2024-08-09T07:55:27Z</time>
      </trkpt>
      <trkpt lat="45.06639" lon="6.04225">
        <ele>880.4</ele>
        <time>2024-08-09T07:55:28Z</time>
      </trkpt>
      <trkpt lat="45.06641" lon="6.04228">
        <ele>880.4</ele>
        <time>2024-08-09T07:55:29Z</time>
      </trkpt>
      <trkpt lat="45.06642" lon="6.0423">
        <ele>880.4</ele>
        <time>2024-08-09T07:55:30Z</time>
      </trkpt>
      <trkpt lat="45.06642" lon="6.0423">
        <ele>880.6</ele>
        <time>2024-08-09T07:55:31Z</time>
      </trkpt>
      <trkpt lat="45.06645" lon="6.04232">
        <ele>880.6</ele>
        <time>2024-08-09T07:55:32Z</time>
      </trkpt>
      <trkpt lat="45.06645" lon="6.04232">
        <ele>880.8</ele>
        <time>2024-08-09T07:55:33Z</time>
      </trkpt>
      <trkpt lat="45.06647" lon="6.04234">
        <ele>880.6</ele>
        <time>2024-08-09T07:55:34Z</time>
      </trkpt>
      <trkpt lat="45.06647" lon="6.04234">
        <ele>880.6</ele>
        <time>2024-08-09T07:55:35Z</time>
      </trkpt>
      <trkpt lat="45.06651" lon="6.04234">
        <ele>880.6</ele>
        <time>2024-08-09T07:55:36Z</time>
      </trkpt>
      <trkpt lat="45.06653" lon="6.04234">
        <ele>880.6</ele>
        <time>2024-08-09T07:55:37Z</time>
      </trkpt>
      <trkpt lat="45.06653" lon="6.04234">
        <ele>880.6</ele>
        <time>2024-08-09T07:55:38Z</time>
      </trkpt>
      <trkpt lat="45.06655" lon="6.04233">
        <ele>880.8</ele>
        <time>2024-08-09T07:55:39Z</time>
      </trkpt>
      <trkpt lat="45.06655" lon="6.04233">
        <ele>880.8</ele>
        <time>2024-08-09T07:55:40Z</time>
      </trkpt>
      <trkpt lat="45.06659" lon="6.04231">
        <ele>880.8</ele>
        <time>2024-08-09T07:55:41Z</time>
      </trkpt>
      <trkpt lat="45.06659" lon="6.04231">
        <ele>881</ele>
        <time>2024-08-09T07:55:42Z</time>
      </trkpt>
      <trkpt lat="45.06661" lon="6.04229">
        <ele>881</ele>
        <time>2024-08-09T07:55:43Z</time>
      </trkpt>
      <trkpt lat="45.06661" lon="6.04229">
        <ele>881</ele>
        <time>2024-08-09T07:55:44Z</time>
      </trkpt>
      <trkpt lat="45.06663" lon="6.04227">
        <ele>880.8</ele>
        <time>2024-08-09T07:55:45Z</time>
      </trkpt>
      <trkpt lat="45.06663" lon="6.04227">
        <ele>880.8</ele>
        <time>2024-08-09T07:55:46Z</time>
      </trkpt>
      <trkpt lat="45.06666" lon="6.04225">
        <ele>880.8</ele>
        <time>2024-08-09T07:55:47Z</time>
      </trkpt>
      <trkpt lat="45.06666" lon="6.04225">
        <ele>881</ele>
        <time>2024-08-09T07:55:48Z</time>
      </trkpt>
      <trkpt lat="45.06669" lon="6.04224">
        <ele>881</ele>
        <time>2024-08-09T07:55:49Z</time>
      </trkpt>
      <trkpt lat="45.06669" lon="6.04224">
        <ele>881.2</ele>
        <time>2024-08-09T07:55:50Z</time>
      </trkpt>
      <trkpt lat="45.06671" lon="6.04222">
        <ele>881.4</ele>
        <time>2024-08-09T07:55:51Z</time>
      </trkpt>
      <trkpt lat="45.06671" lon="6.04222">
        <ele>881.6</ele>
        <time>2024-08-09T07:55:52Z</time>
      </trkpt>
      <trkpt lat="45.06674" lon="6.04221">
        <ele>881.8</ele>
        <time>2024-08-09T07:55:53Z</time>
      </trkpt>
      <trkpt lat="45.06674" lon="6.04221">
        <ele>881.8</ele>
        <time>2024-08-09T07:55:54Z</time>
      </trkpt>
      <trkpt lat="45.06677" lon="6.04219">
        <ele>881.8</ele>
        <time>2024-08-09T07:55:55Z</time>
      </trkpt>
      <trkpt lat="45.06677" lon="6.04219">
        <ele>882</ele>
        <time>2024-08-09T07:55:56Z</time>
      </trkpt>
      <trkpt lat="45.06679" lon="6.04218">
        <ele>882.2</ele>
        <time>2024-08-09T07:55:57Z</time>
      </trkpt>
      <trkpt lat="45.06679" lon="6.04218">
        <ele>882.2</ele>
        <time>2024-08-09T07:55:58Z</time>
      </trkpt>
      <trkpt lat="45.06682" lon="6.04217">
        <ele>882.2</ele>
        <time>2024-08-09T07:55:59Z</time>
      </trkpt>
      <trkpt lat="45.06682" lon="6.04217">
        <ele>882.4</ele>
        <time>2024-08-09T07:56:00Z</time>
      </trkpt>
      <trkpt lat="45.06685" lon="6.04216">
        <ele>882.4</ele>
        <time>2024-08-09T07:56:01Z</time>
      </trkpt>
      <trkpt lat="45.06685" lon="6.04216">
        <ele>882.6</ele>
        <time>2024-08-09T07:56:02Z</time>
      </trkpt>
      <trkpt lat="45.06687" lon="6.04215">
        <ele>882.6</ele>
        <time>2024-08-09T07:56:03Z</time>
      </trkpt>
      <trkpt lat="45.06687" lon="6.04215">
        <ele>882.6</ele>
        <time>2024-08-09T07:56:04Z</time>
      </trkpt>
      <trkpt lat="45.0669" lon="6.04214">
        <ele>882.8</ele>
        <time>2024-08-09T07:56:05Z</time>
      </trkpt>
      <trkpt lat="45.0669" lon="6.04214">
        <ele>882.8</ele>
        <time>2024-08-09T07:56:06Z</time>
      </trkpt>
      <trkpt lat="45.06692" lon="6.04213">
        <ele>883.2</ele>
        <time>2024-08-09T07:56:07Z</time>
      </trkpt>
      <trkpt lat="45.06692" lon="6.04213">
        <ele>883.4</ele>
        <time>2024-08-09T07:56:08Z</time>
      </trkpt>
      <trkpt lat="45.06694" lon="6.04211">
        <ele>883.4</ele>
        <time>2024-08-09T07:56:09Z</time>
      </trkpt>
      <trkpt lat="45.06694" lon="6.04211">
        <ele>883.4</ele>
        <time>2024-08-09T07:56:10Z</time>
      </trkpt>
      <trkpt lat="45.06696" lon="6.04211">
        <ele>883.4</ele>
        <time>2024-08-09T07:56:11Z</time>
      </trkpt>
      <trkpt lat="45.06696" lon="6.04211">
        <ele>883.8</ele>
        <time>2024-08-09T07:56:12Z</time>
      </trkpt>
      <trkpt lat="45.06699" lon="6.04209">
        <ele>884</ele>
        <time>2024-08-09T07:56:13Z</time>
      </trkpt>
      <trkpt lat="45.06699" lon="6.04209">
        <ele>884.2</ele>
        <time>2024-08-09T07:56:14Z</time>
      </trkpt>
      <trkpt lat="45.06702" lon="6.04208">
        <ele>884.4</ele>
        <time>2024-08-09T07:56:15Z</time>
      </trkpt>
      <trkpt lat="45.06702" lon="6.04208">
        <ele>884.4</ele>
        <time>2024-08-09T07:56:16Z</time>
      </trkpt>
      <trkpt lat="45.06704" lon="6.04207">
        <ele>884.6</ele>
        <time>2024-08-09T07:56:17Z</time>
      </trkpt>
      <trkpt lat="45.06704" lon="6.04207">
        <ele>885</ele>
        <time>2024-08-09T07:56:18Z</time>
      </trkpt>
      <trkpt lat="45.06707" lon="6.04206">
        <ele>885.2</ele>
        <time>2024-08-09T07:56:19Z</time>
      </trkpt>
      <trkpt lat="45.06707" lon="6.04206">
        <ele>885.2</ele>
        <time>2024-08-09T07:56:20Z</time>
      </trkpt>
      <trkpt lat="45.06709" lon="6.04205">
        <ele>885.4</ele>
        <time>2024-08-09T07:56:21Z</time>
      </trkpt>
      <trkpt lat="45.06709" lon="6.04205">
        <ele>885.6</ele>
        <time>2024-08-09T07:56:22Z</time>
      </trkpt>
      <trkpt lat="45.06712" lon="6.04204">
        <ele>885.8</ele>
        <time>2024-08-09T07:56:23Z</time>
      </trkpt>
      <trkpt lat="45.06712" lon="6.04204">
        <ele>886</ele>
        <time>2024-08-09T07:56:24Z</time>
      </trkpt>
      <trkpt lat="45.06714" lon="6.04202">
        <ele>886.2</ele>
        <time>2024-08-09T07:56:25Z</time>
      </trkpt>
      <trkpt lat="45.06714" lon="6.04202">
        <ele>886.4</ele>
        <time>2024-08-09T07:56:26Z</time>
      </trkpt>
      <trkpt lat="45.06717" lon="6.04201">
        <ele>886.4</ele>
        <time>2024-08-09T07:56:27Z</time>
      </trkpt>
      <trkpt lat="45.06717" lon="6.04201">
        <ele>886.6</ele>
        <time>2024-08-09T07:56:28Z</time>
      </trkpt>
      <trkpt lat="45.06719" lon="6.042">
        <ele>886.6</ele>
        <time>2024-08-09T07:56:29Z</time>
      </trkpt>
      <trkpt lat="45.06719" lon="6.042">
        <ele>886.8</ele>
        <time>2024-08-09T07:56:30Z</time>
      </trkpt>
      <trkpt lat="45.06721" lon="6.04198">
        <ele>887.2</ele>
        <time>2024-08-09T07:56:31Z</time>
      </trkpt>
      <trkpt lat="45.06721" lon="6.04198">
        <ele>887.4</ele>
        <time>2024-08-09T07:56:32Z</time>
      </trkpt>
      <trkpt lat="45.06724" lon="6.04197">
        <ele>887.4</ele>
        <time>2024-08-09T07:56:33Z</time>
      </trkpt>
      <trkpt lat="45.06724" lon="6.04197">
        <ele>887.6</ele>
        <time>2024-08-09T07:56:34Z</time>
      </trkpt>
      <trkpt lat="45.06726" lon="6.04196">
        <ele>887.8</ele>
        <time>2024-08-09T07:56:35Z</time>
      </trkpt>
      <trkpt lat="45.06726" lon="6.04196">
        <ele>887.8</ele>
        <time>2024-08-09T07:56:36Z</time>
      </trkpt>
      <trkpt lat="45.06728" lon="6.04196">
        <ele>888</ele>
        <time>2024-08-09T07:56:37Z</time>
      </trkpt>
      <trkpt lat="45.06728" lon="6.04196">
        <ele>888.4</ele>
        <time>2024-08-09T07:56:38Z</time>
      </trkpt>
      <trkpt lat="45.06732" lon="6.04195">
        <ele>888.4</ele>
        <time>2024-08-09T07:56:39Z</time>
      </trkpt>
      <trkpt lat="45.06732" lon="6.04195">
        <ele>888.6</ele>
        <time>2024-08-09T07:56:40Z</time>
      </trkpt>
      <trkpt lat="45.06734" lon="6.04193">
        <ele>888.6</ele>
        <time>2024-08-09T07:56:41Z</time>
      </trkpt>
      <trkpt lat="45.06734" lon="6.04193">
        <ele>888.8</ele>
        <time>2024-08-09T07:56:42Z</time>
      </trkpt>
      <trkpt lat="45.06736" lon="6.04193">
        <ele>889</ele>
        <time>2024-08-09T07:56:43Z</time>
      </trkpt>
      <trkpt lat="45.06736" lon="6.04193">
        <ele>889.2</ele>
        <time>2024-08-09T07:56:44Z</time>
      </trkpt>
      <trkpt lat="45.06739" lon="6.04192">
        <ele>889.2</ele>
        <time>2024-08-09T07:56:45Z</time>
      </trkpt>
      <trkpt lat="45.06739" lon="6.04192">
        <ele>889.6</ele>
        <time>2024-08-09T07:56:46Z</time>
      </trkpt>
      <trkpt lat="45.06741" lon="6.04191">
        <ele>889.6</ele>
        <time>2024-08-09T07:56:47Z</time>
      </trkpt>
      <trkpt lat="45.06741" lon="6.04191">
        <ele>890.2</ele>
        <time>2024-08-09T07:56:48Z</time>
      </trkpt>
      <trkpt lat="45.06744" lon="6.0419">
        <ele>890.4</ele>
        <time>2024-08-09T07:56:49Z</time>
      </trkpt>
      <trkpt lat="45.06744" lon="6.0419">
        <ele>890.4</ele>
        <time>2024-08-09T07:56:50Z</time>
      </trkpt>
      <trkpt lat="45.06746" lon="6.04188">
        <ele>890.4</ele>
        <time>2024-08-09T07:56:51Z</time>
      </trkpt>
      <trkpt lat="45.06746" lon="6.04188">
        <ele>890.6</ele>
        <time>2024-08-09T07:56:52Z</time>
      </trkpt>
      <trkpt lat="45.06748" lon="6.04186">
        <ele>890.8</ele>
        <time>2024-08-09T07:56:53Z</time>
      </trkpt>
      <trkpt lat="45.06748" lon="6.04186">
        <ele>890.8</ele>
        <time>2024-08-09T07:56:54Z</time>
      </trkpt>
      <trkpt lat="45.0675" lon="6.04184">
        <ele>890.8</ele>
        <time>2024-08-09T07:56:55Z</time>
      </trkpt>
      <trkpt lat="45.0675" lon="6.04184">
        <ele>891</ele>
        <time>2024-08-09T07:56:56Z</time>
      </trkpt>
      <trkpt lat="45.06752" lon="6.04182">
        <ele>891</ele>
        <time>2024-08-09T07:56:57Z</time>
      </trkpt>
      <trkpt lat="45.06752" lon="6.04182">
        <ele>891.2</ele>
        <time>2024-08-09T07:56:58Z</time>
      </trkpt>
      <trkpt lat="45.06755" lon="6.04181">
        <ele>891.4</ele>
        <time>2024-08-09T07:56:59Z</time>
      </trkpt>
      <trkpt lat="45.06755" lon="6.04181">
        <ele>891.4</ele>
        <time>2024-08-09T07:57:00Z</time>
      </trkpt>
      <trkpt lat="45.06757" lon="6.04179">
        <ele>891.6</ele>
        <time>2024-08-09T07:57:01Z</time>
      </trkpt>
      <trkpt lat="45.06757" lon="6.04179">
        <ele>891.8</ele>
        <time>2024-08-09T07:57:02Z</time>
      </trkpt>
      <trkpt lat="45.0676" lon="6.0418">
        <ele>891.8</ele>
        <time>2024-08-09T07:57:03Z</time>
      </trkpt>
      <trkpt lat="45.0676" lon="6.0418">
        <ele>891.8</ele>
        <time>2024-08-09T07:57:04Z</time>
      </trkpt>
      <trkpt lat="45.06763" lon="6.0418">
        <ele>892</ele>
        <time>2024-08-09T07:57:05Z</time>
      </trkpt>
      <trkpt lat="45.06763" lon="6.0418">
        <ele>892.2</ele>
        <time>2024-08-09T07:57:06Z</time>
      </trkpt>
      <trkpt lat="45.06765" lon="6.04179">
        <ele>892.4</ele>
        <time>2024-08-09T07:57:07Z</time>
      </trkpt>
      <trkpt lat="45.06765" lon="6.04179">
        <ele>892.4</ele>
        <time>2024-08-09T07:57:08Z</time>
      </trkpt>
      <trkpt lat="45.06768" lon="6.04179">
        <ele>892.6</ele>
        <time>2024-08-09T07:57:09Z</time>
      </trkpt>
      <trkpt lat="45.06768" lon="6.04179">
        <ele>892.8</ele>
        <time>2024-08-09T07:57:10Z</time>
      </trkpt>
      <trkpt lat="45.0677" lon="6.04179">
        <ele>892.8</ele>
        <time>2024-08-09T07:57:11Z</time>
      </trkpt>
      <trkpt lat="45.0677" lon="6.04179">
        <ele>893</ele>
        <time>2024-08-09T07:57:12Z</time>
      </trkpt>
      <trkpt lat="45.06772" lon="6.0418">
        <ele>893</ele>
        <time>2024-08-09T07:57:13Z</time>
      </trkpt>
      <trkpt lat="45.06772" lon="6.0418">
        <ele>893.2</ele>
        <time>2024-08-09T07:57:14Z</time>
      </trkpt>
      <trkpt lat="45.06774" lon="6.04181">
        <ele>893.2</ele>
        <time>2024-08-09T07:57:15Z</time>
      </trkpt>
      <trkpt lat="45.06774" lon="6.04181">
        <ele>893.2</ele>
        <time>2024-08-09T07:57:16Z</time>
      </trkpt>
      <trkpt lat="45.06776" lon="6.04182">
        <ele>893.6</ele>
        <time>2024-08-09T07:57:17Z</time>
      </trkpt>
      <trkpt lat="45.06776" lon="6.04182">
        <ele>893.8</ele>
        <time>2024-08-09T07:57:18Z</time>
      </trkpt>
      <trkpt lat="45.06779" lon="6.04184">
        <ele>894.2</ele>
        <time>2024-08-09T07:57:19Z</time>
      </trkpt>
      <trkpt lat="45.06779" lon="6.04184">
        <ele>894.4</ele>
        <time>2024-08-09T07:57:20Z</time>
      </trkpt>
      <trkpt lat="45.06781" lon="6.04186">
        <ele>894.4</ele>
        <time>2024-08-09T07:57:21Z</time>
      </trkpt>
      <trkpt lat="45.06781" lon="6.04186">
        <ele>894.6</ele>
        <time>2024-08-09T07:57:22Z</time>
      </trkpt>
      <trkpt lat="45.06784" lon="6.04188">
        <ele>894.8</ele>
        <time>2024-08-09T07:57:23Z</time>
      </trkpt>
      <trkpt lat="45.06784" lon="6.04188">
        <ele>895</ele>
        <time>2024-08-09T07:57:24Z</time>
      </trkpt>
      <trkpt lat="45.06786" lon="6.04189">
        <ele>895.2</ele>
        <time>2024-08-09T07:57:25Z</time>
      </trkpt>
      <trkpt lat="45.06786" lon="6.04189">
        <ele>895.2</ele>
        <time>2024-08-09T07:57:26Z</time>
      </trkpt>
      <trkpt lat="45.06788" lon="6.0419">
        <ele>895.2</ele>
        <time>2024-08-09T07:57:27Z</time>
      </trkpt>
      <trkpt lat="45.06788" lon="6.0419">
        <ele>895.6</ele>
        <time>2024-08-09T07:57:28Z</time>
      </trkpt>
      <trkpt lat="45.06791" lon="6.04193">
        <ele>895.8</ele>
        <time>2024-08-09T07:57:29Z</time>
      </trkpt>
      <trkpt lat="45.06791" lon="6.04193">
        <ele>896.2</ele>
        <time>2024-08-09T07:57:30Z</time>
      </trkpt>
      <trkpt lat="45.06794" lon="6.04193">
        <ele>896.2</ele>
        <time>2024-08-09T07:57:31Z</time>
      </trkpt>
      <trkpt lat="45.06794" lon="6.04193">
        <ele>896.2</ele>
        <time>2024-08-09T07:57:32Z</time>
      </trkpt>
      <trkpt lat="45.06796" lon="6.04191">
        <ele>896.2</ele>
        <time>2024-08-09T07:57:33Z</time>
      </trkpt>
      <trkpt lat="45.06796" lon="6.04191">
        <ele>896</ele>
        <time>2024-08-09T07:57:34Z</time>
      </trkpt>
      <trkpt lat="45.06798" lon="6.04188">
        <ele>896</ele>
        <time>2024-08-09T07:57:35Z</time>
      </trkpt>
      <trkpt lat="45.06798" lon="6.04188">
        <ele>896.4</ele>
        <time>2024-08-09T07:57:36Z</time>
      </trkpt>
      <trkpt lat="45.06801" lon="6.04187">
        <ele>896.4</ele>
        <time>2024-08-09T07:57:37Z</time>
      </trkpt>
      <trkpt lat="45.06801" lon="6.04187">
        <ele>896.8</ele>
        <time>2024-08-09T07:57:38Z</time>
      </trkpt>
      <trkpt lat="45.06803" lon="6.04186">
        <ele>897.2</ele>
        <time>2024-08-09T07:57:39Z</time>
      </trkpt>
      <trkpt lat="45.06803" lon="6.04186">
        <ele>897.2</ele>
        <time>2024-08-09T07:57:40Z</time>
      </trkpt>
      <trkpt lat="45.06806" lon="6.04187">
        <ele>897.4</ele>
        <time>2024-08-09T07:57:41Z</time>
      </trkpt>
      <trkpt lat="45.06806" lon="6.04187">
        <ele>897.6</ele>
        <time>2024-08-09T07:57:42Z</time>
      </trkpt>
      <trkpt lat="45.06808" lon="6.04188">
        <ele>897.8</ele>
        <time>2024-08-09T07:57:43Z</time>
      </trkpt>
      <trkpt lat="45.06808" lon="6.04188">
        <ele>898.2</ele>
        <time>2024-08-09T07:57:44Z</time>
      </trkpt>
      <trkpt lat="45.0681" lon="6.04189">
        <ele>898.2</ele>
        <time>2024-08-09T07:57:45Z</time>
      </trkpt>
      <trkpt lat="45.0681" lon="6.04189">
        <ele>898.2</ele>
        <time>2024-08-09T07:57:46Z</time>
      </trkpt>
      <trkpt lat="45.0681" lon="6.04189">
        <ele>898.6</ele>
        <time>2024-08-09T07:57:47Z</time>
      </trkpt>
      <trkpt lat="45.0681" lon="6.04189">
        <ele>899</ele>
        <time>2024-08-09T07:57:48Z</time>
      </trkpt>
      <trkpt lat="45.0681" lon="6.04189">
        <ele>899</ele>
        <time>2024-08-09T07:57:49Z</time>
      </trkpt>
      <trkpt lat="45.06812" lon="6.04188">
        <ele>899</ele>
        <time>2024-08-09T07:57:50Z</time>
      </trkpt>
      <trkpt lat="45.06812" lon="6.04188">
        <ele>898.8</ele>
        <time>2024-08-09T07:57:51Z</time>
      </trkpt>
      <trkpt lat="45.06812" lon="6.04188">
        <ele>898.6</ele>
        <time>2024-08-09T07:57:52Z</time>
      </trkpt>
      <trkpt lat="45.06812" lon="6.04188">
        <ele>898.6</ele>
        <time>2024-08-09T07:57:53Z</time>
      </trkpt>
      <trkpt lat="45.06812" lon="6.04188">
        <ele>898.6</ele>
        <time>2024-08-09T07:57:54Z</time>
      </trkpt>
      <trkpt lat="45.06812" lon="6.04188">
        <ele>898.6</ele>
        <time>2024-08-09T07:57:55Z</time>
      </trkpt>
      <trkpt lat="45.06812" lon="6.04188">
        <ele>898.8</ele>
        <time>2024-08-09T07:57:56Z</time>
      </trkpt>
      <trkpt lat="45.06812" lon="6.04188">
        <ele>898.8</ele>
        <time>2024-08-09T07:57:57Z</time>
      </trkpt>
      <trkpt lat="45.06812" lon="6.04188">
        <ele>898.8</ele>
        <time>2024-08-09T07:57:58Z</time>
      </trkpt>
      <trkpt lat="45.06812" lon="6.04188">
        <ele>898.8</ele>
        <time>2024-08-09T07:57:59Z</time>
      </trkpt>
      <trkpt lat="45.06812" lon="6.04188">
        <ele>898.8</ele>
        <time>2024-08-09T07:58:00Z</time>
      </trkpt>
      <trkpt lat="45.06812" lon="6.04188">
        <ele>899</ele>
        <time>2024-08-09T07:58:01Z</time>
      </trkpt>
      <trkpt lat="45.06812" lon="6.04188">
        <ele>899.2</ele>
        <time>2024-08-09T07:58:02Z</time>
      </trkpt>
      <trkpt lat="45.06812" lon="6.04188">
        <ele>899.2</ele>
        <time>2024-08-09T07:58:03Z</time>
      </trkpt>
      <trkpt lat="45.06812" lon="6.04188">
        <ele>899.2</ele>
        <time>2024-08-09T07:58:04Z</time>
      </trkpt>
      <trkpt lat="45.06812" lon="6.04188">
        <ele>899.2</ele>
        <time>2024-08-09T07:58:05Z</time>
      </trkpt>
      <trkpt lat="45.06814" lon="6.04188">
        <ele>899.4</ele>
        <time>2024-08-09T07:58:06Z</time>
      </trkpt>
      <trkpt lat="45.06814" lon="6.04188">
        <ele>900</ele>
        <time>2024-08-09T07:58:07Z</time>
      </trkpt>
      <trkpt lat="45.06817" lon="6.04187">
        <ele>900.2</ele>
        <time>2024-08-09T07:58:08Z</time>
      </trkpt>
      <trkpt lat="45.06817" lon="6.04187">
        <ele>900.2</ele>
        <time>2024-08-09T07:58:09Z</time>
      </trkpt>
      <trkpt lat="45.06817" lon="6.04187">
        <ele>900.2</ele>
        <time>2024-08-09T07:58:10Z</time>
      </trkpt>
      <trkpt lat="45.0682" lon="6.04188">
        <ele>900.8</ele>
        <time>2024-08-09T07:58:11Z</time>
      </trkpt>
      <trkpt lat="45.0682" lon="6.04188">
        <ele>900.8</ele>
        <time>2024-08-09T07:58:12Z</time>
      </trkpt>
      <trkpt lat="45.0682" lon="6.04188">
        <ele>901.4</ele>
        <time>2024-08-09T07:58:13Z</time>
      </trkpt>
      <trkpt lat="45.06822" lon="6.04189">
        <ele>901.4</ele>
        <time>2024-08-09T07:58:14Z</time>
      </trkpt>
      <trkpt lat="45.06822" lon="6.04189">
        <ele>901.6</ele>
        <time>2024-08-09T07:58:15Z</time>
      </trkpt>
      <trkpt lat="45.06822" lon="6.04189">
        <ele>902</ele>
        <time>2024-08-09T07:58:16Z</time>
      </trkpt>
      <trkpt lat="45.06824" lon="6.0419">
        <ele>902.6</ele>
        <time>2024-08-09T07:58:17Z</time>
      </trkpt>
      <trkpt lat="45.06824" lon="6.0419">
        <ele>902.6</ele>
        <time>2024-08-09T07:58:18Z</time>
      </trkpt>
      <trkpt lat="45.06824" lon="6.0419">
        <ele>902.8</ele>
        <time>2024-08-09T07:58:19Z</time>
      </trkpt>
      <trkpt lat="45.06826" lon="6.04191">
        <ele>902.8</ele>
        <time>2024-08-09T07:58:20Z</time>
      </trkpt>
      <trkpt lat="45.06826" lon="6.04191">
        <ele>903</ele>
        <time>2024-08-09T07:58:21Z</time>
      </trkpt>
      <trkpt lat="45.06828" lon="6.0419">
        <ele>903.4</ele>
        <time>2024-08-09T07:58:22Z</time>
      </trkpt>
      <trkpt lat="45.06828" lon="6.0419">
        <ele>903.6</ele>
        <time>2024-08-09T07:58:23Z</time>
      </trkpt>
      <trkpt lat="45.06828" lon="6.0419">
        <ele>903.8</ele>
        <time>2024-08-09T07:58:24Z</time>
      </trkpt>
      <trkpt lat="45.06828" lon="6.0419">
        <ele>904</ele>
        <time>2024-08-09T07:58:25Z</time>
      </trkpt>
      <trkpt lat="45.06828" lon="6.0419">
        <ele>904</ele>
        <time>2024-08-09T07:58:26Z</time>
      </trkpt>
      <trkpt lat="45.06828" lon="6.0419">
        <ele>904</ele>
        <time>2024-08-09T07:58:27Z</time>
      </trkpt>
      <trkpt lat="45.06828" lon="6.0419">
        <ele>904</ele>
        <time>2024-08-09T07:58:28Z</time>
      </trkpt>
      <trkpt lat="45.06828" lon="6.0419">
        <ele>904.2</ele>
        <time>2024-08-09T07:58:29Z</time>
      </trkpt>
      <trkpt lat="45.06828" lon="6.0419">
        <ele>904.2</ele>
        <time>2024-08-09T07:58:30Z</time>
      </trkpt>
      <trkpt lat="45.06828" lon="6.0419">
        <ele>904.2</ele>
        <time>2024-08-09T07:58:31Z</time>
      </trkpt>
      <trkpt lat="45.06828" lon="6.0419">
        <ele>904.2</ele>
        <time>2024-08-09T07:58:32Z</time>
      </trkpt>
      <trkpt lat="45.06828" lon="6.0419">
        <ele>904.2</ele>
        <time>2024-08-09T07:58:33Z</time>
      </trkpt>
      <trkpt lat="45.06828" lon="6.0419">
        <ele>904.4</ele>
        <time>2024-08-09T07:58:34Z</time>
      </trkpt>
      <trkpt lat="45.06828" lon="6.0419">
        <ele>904.2</ele>
        <time>2024-08-09T07:58:35Z</time>
      </trkpt>
      <trkpt lat="45.06828" lon="6.0419">
        <ele>904.2</ele>
        <time>2024-08-09T07:58:36Z</time>
      </trkpt>
      <trkpt lat="45.06828" lon="6.0419">
        <ele>904.2</ele>
        <time>2024-08-09T07:58:37Z</time>
      </trkpt>
      <trkpt lat="45.06828" lon="6.0419">
        <ele>904.2</ele>
        <time>2024-08-09T07:58:38Z</time>
      </trkpt>
      <trkpt lat="45.06828" lon="6.0419">
        <ele>904.2</ele>
        <time>2024-08-09T07:58:39Z</time>
      </trkpt>
      <trkpt lat="45.06828" lon="6.0419">
        <ele>904.4</ele>
        <time>2024-08-09T07:58:40Z</time>
      </trkpt>
      <trkpt lat="45.06828" lon="6.0419">
        <ele>904.4</ele>
        <time>2024-08-09T07:58:41Z</time>
      </trkpt>
      <trkpt lat="45.0683" lon="6.0419">
        <ele>904.2</ele>
        <time>2024-08-09T07:58:42Z</time>
      </trkpt>
      <trkpt lat="45.0683" lon="6.0419">
        <ele>904.2</ele>
        <time>2024-08-09T07:58:43Z</time>
      </trkpt>
      <trkpt lat="45.06833" lon="6.04191">
        <ele>904.4</ele>
        <time>2024-08-09T07:58:44Z</time>
      </trkpt>
      <trkpt lat="45.06833" lon="6.04191">
        <ele>904.6</ele>
        <time>2024-08-09T07:58:45Z</time>
      </trkpt>
      <trkpt lat="45.06835" lon="6.04191">
        <ele>904.8</ele>
        <time>2024-08-09T07:58:46Z</time>
      </trkpt>
      <trkpt lat="45.06835" lon="6.04191">
        <ele>905</ele>
        <time>2024-08-09T07:58:47Z</time>
      </trkpt>
      <trkpt lat="45.06835" lon="6.04191">
        <ele>905.2</ele>
        <time>2024-08-09T07:58:48Z</time>
      </trkpt>
      <trkpt lat="45.06837" lon="6.04191">
        <ele>905.6</ele>
        <time>2024-08-09T07:58:49Z</time>
      </trkpt>
      <trkpt lat="45.06837" lon="6.04191">
        <ele>905.6</ele>
        <time>2024-08-09T07:58:50Z</time>
      </trkpt>
      <trkpt lat="45.06837" lon="6.04191">
        <ele>906</ele>
        <time>2024-08-09T07:58:51Z</time>
      </trkpt>
      <trkpt lat="45.06839" lon="6.04191">
        <ele>906.2</ele>
        <time>2024-08-09T07:58:52Z</time>
      </trkpt>
      <trkpt lat="45.06839" lon="6.04191">
        <ele>907</ele>
        <time>2024-08-09T07:58:53Z</time>
      </trkpt>
      <trkpt lat="45.06839" lon="6.04191">
        <ele>907.2</ele>
        <time>2024-08-09T07:58:54Z</time>
      </trkpt>
      <trkpt lat="45.06842" lon="6.04192">
        <ele>907.4</ele>
        <time>2024-08-09T07:58:55Z</time>
      </trkpt>
      <trkpt lat="45.06842" lon="6.04192">
        <ele>907.6</ele>
        <time>2024-08-09T07:58:56Z</time>
      </trkpt>
      <trkpt lat="45.06845" lon="6.04192">
        <ele>907.6</ele>
        <time>2024-08-09T07:58:57Z</time>
      </trkpt>
      <trkpt lat="45.06845" lon="6.04192">
        <ele>907.8</ele>
        <time>2024-08-09T07:58:58Z</time>
      </trkpt>
      <trkpt lat="45.06845" lon="6.04192">
        <ele>908</ele>
        <time>2024-08-09T07:58:59Z</time>
      </trkpt>
      <trkpt lat="45.06845" lon="6.04192">
        <ele>908.4</ele>
        <time>2024-08-09T07:59:00Z</time>
      </trkpt>
      <trkpt lat="45.06847" lon="6.04193">
        <ele>908.4</ele>
        <time>2024-08-09T07:59:01Z</time>
      </trkpt>
      <trkpt lat="45.06847" lon="6.04193">
        <ele>909</ele>
        <time>2024-08-09T07:59:02Z</time>
      </trkpt>
      <trkpt lat="45.06847" lon="6.04193">
        <ele>909</ele>
        <time>2024-08-09T07:59:03Z</time>
      </trkpt>
      <trkpt lat="45.0685" lon="6.04194">
        <ele>909.2</ele>
        <time>2024-08-09T07:59:04Z</time>
      </trkpt>
      <trkpt lat="45.0685" lon="6.04194">
        <ele>909.6</ele>
        <time>2024-08-09T07:59:05Z</time>
      </trkpt>
      <trkpt lat="45.0685" lon="6.04194">
        <ele>909.8</ele>
        <time>2024-08-09T07:59:06Z</time>
      </trkpt>
      <trkpt lat="45.06852" lon="6.04194">
        <ele>910</ele>
        <time>2024-08-09T07:59:07Z</time>
      </trkpt>
      <trkpt lat="45.06852" lon="6.04194">
        <ele>910.4</ele>
        <time>2024-08-09T07:59:08Z</time>
      </trkpt>
      <trkpt lat="45.06852" lon="6.04194">
        <ele>910.4</ele>
        <time>2024-08-09T07:59:09Z</time>
      </trkpt>
      <trkpt lat="45.06854" lon="6.04194">
        <ele>910.8</ele>
        <time>2024-08-09T07:59:10Z</time>
      </trkpt>
      <trkpt lat="45.06854" lon="6.04194">
        <ele>911</ele>
        <time>2024-08-09T07:59:11Z</time>
      </trkpt>
      <trkpt lat="45.06854" lon="6.04194">
        <ele>911</ele>
        <time>2024-08-09T07:59:12Z</time>
      </trkpt>
      <trkpt lat="45.06857" lon="6.04195">
        <ele>911.6</ele>
        <time>2024-08-09T07:59:13Z</time>
      </trkpt>
      <trkpt lat="45.06857" lon="6.04195">
        <ele>911.6</ele>
        <time>2024-08-09T07:59:14Z</time>
      </trkpt>
      <trkpt lat="45.06857" lon="6.04195">
        <ele>911.8</ele>
        <time>2024-08-09T07:59:15Z</time>
      </trkpt>
      <trkpt lat="45.06858" lon="6.04198">
        <ele>912</ele>
        <time>2024-08-09T07:59:16Z</time>
      </trkpt>
      <trkpt lat="45.06858" lon="6.04198">
        <ele>912.2</ele>
        <time>2024-08-09T07:59:17Z</time>
      </trkpt>
      <trkpt lat="45.0686" lon="6.04199">
        <ele>912.8</ele>
        <time>2024-08-09T07:59:18Z</time>
      </trkpt>
      <trkpt lat="45.0686" lon="6.04199">
        <ele>912.8</ele>
        <time>2024-08-09T07:59:19Z</time>
      </trkpt>
      <trkpt lat="45.0686" lon="6.04199">
        <ele>912.8</ele>
        <time>2024-08-09T07:59:20Z</time>
      </trkpt>
      <trkpt lat="45.06861" lon="6.042">
        <ele>913.2</ele>
        <time>2024-08-09T07:59:21Z</time>
      </trkpt>
      <trkpt lat="45.06861" lon="6.042">
        <ele>913.4</ele>
        <time>2024-08-09T07:59:22Z</time>
      </trkpt>
      <trkpt lat="45.06861" lon="6.042">
        <ele>913.6</ele>
        <time>2024-08-09T07:59:23Z</time>
      </trkpt>
      <trkpt lat="45.06863" lon="6.04202">
        <ele>914</ele>
        <time>2024-08-09T07:59:24Z</time>
      </trkpt>
      <trkpt lat="45.06863" lon="6.04202">
        <ele>914.2</ele>
        <time>2024-08-09T07:59:25Z</time>
      </trkpt>
      <trkpt lat="45.06863" lon="6.04202">
        <ele>914.2</ele>
        <time>2024-08-09T07:59:26Z</time>
      </trkpt>
      <trkpt lat="45.06865" lon="6.04203">
        <ele>914.6</ele>
        <time>2024-08-09T07:59:27Z</time>
      </trkpt>
      <trkpt lat="45.06865" lon="6.04203">
        <ele>914.8</ele>
        <time>2024-08-09T07:59:28Z</time>
      </trkpt>
      <trkpt lat="45.06865" lon="6.04203">
        <ele>915</ele>
        <time>2024-08-09T07:59:29Z</time>
      </trkpt>
      <trkpt lat="45.06867" lon="6.04204">
        <ele>915.2</ele>
        <time>2024-08-09T07:59:30Z</time>
      </trkpt>
      <trkpt lat="45.06867" lon="6.04204">
        <ele>915.4</ele>
        <time>2024-08-09T07:59:31Z</time>
      </trkpt>
      <trkpt lat="45.06867" lon="6.04204">
        <ele>915.6</ele>
        <time>2024-08-09T07:59:32Z</time>
      </trkpt>
      <trkpt lat="45.06869" lon="6.04205">
        <ele>916</ele>
        <time>2024-08-09T07:59:33Z</time>
      </trkpt>
      <trkpt lat="45.06869" lon="6.04205">
        <ele>916</ele>
        <time>2024-08-09T07:59:34Z</time>
      </trkpt>
      <trkpt lat="45.06869" lon="6.04205">
        <ele>916.4</ele>
        <time>2024-08-09T07:59:35Z</time>
      </trkpt>
      <trkpt lat="45.06872" lon="6.04206">
        <ele>916.4</ele>
        <time>2024-08-09T07:59:36Z</time>
      </trkpt>
      <trkpt lat="45.06872" lon="6.04206">
        <ele>916.8</ele>
        <time>2024-08-09T07:59:37Z</time>
      </trkpt>
      <trkpt lat="45.06873" lon="6.04208">
        <ele>917</ele>
        <time>2024-08-09T07:59:38Z</time>
      </trkpt>
      <trkpt lat="45.06873" lon="6.04208">
        <ele>917.4</ele>
        <time>2024-08-09T07:59:39Z</time>
      </trkpt>
      <trkpt lat="45.06873" lon="6.04208">
        <ele>917.4</ele>
        <time>2024-08-09T07:59:40Z</time>
      </trkpt>
      <trkpt lat="45.06873" lon="6.04208">
        <ele>917.8</ele>
        <time>2024-08-09T07:59:41Z</time>
      </trkpt>
      <trkpt lat="45.06873" lon="6.04208">
        <ele>917.8</ele>
        <time>2024-08-09T07:59:42Z</time>
      </trkpt>
      <trkpt lat="45.06876" lon="6.04209">
        <ele>918.2</ele>
        <time>2024-08-09T07:59:43Z</time>
      </trkpt>
      <trkpt lat="45.06876" lon="6.04209">
        <ele>918.6</ele>
        <time>2024-08-09T07:59:44Z</time>
      </trkpt>
      <trkpt lat="45.06876" lon="6.04209">
        <ele>918.8</ele>
        <time>2024-08-09T07:59:45Z</time>
      </trkpt>
      <trkpt lat="45.06877" lon="6.04209">
        <ele>918.8</ele>
        <time>2024-08-09T07:59:46Z</time>
      </trkpt>
      <trkpt lat="45.06877" lon="6.04209">
        <ele>919</ele>
        <time>2024-08-09T07:59:47Z</time>
      </trkpt>
      <trkpt lat="45.06877" lon="6.04209">
        <ele>919.4</ele>
        <time>2024-08-09T07:59:48Z</time>
      </trkpt>
      <trkpt lat="45.06879" lon="6.0421">
        <ele>919.6</ele>
        <time>2024-08-09T07:59:49Z</time>
      </trkpt>
      <trkpt lat="45.06879" lon="6.0421">
        <ele>920</ele>
        <time>2024-08-09T07:59:50Z</time>
      </trkpt>
      <trkpt lat="45.06879" lon="6.0421">
        <ele>920.2</ele>
        <time>2024-08-09T07:59:51Z</time>
      </trkpt>
      <trkpt lat="45.0688" lon="6.04213">
        <ele>920.4</ele>
        <time>2024-08-09T07:59:52Z</time>
      </trkpt>
      <trkpt lat="45.0688" lon="6.04213">
        <ele>920.4</ele>
        <time>2024-08-09T07:59:53Z</time>
      </trkpt>
      <trkpt lat="45.06879" lon="6.04215">
        <ele>921</ele>
        <time>2024-08-09T07:59:54Z</time>
      </trkpt>
      <trkpt lat="45.06879" lon="6.04215">
        <ele>921</ele>
        <time>2024-08-09T07:59:55Z</time>
      </trkpt>
      <trkpt lat="45.06879" lon="6.04215">
        <ele>921</ele>
        <time>2024-08-09T07:59:56Z</time>
      </trkpt>
      <trkpt lat="45.06877" lon="6.04217">
        <ele>921</ele>
        <time>2024-08-09T07:59:57Z</time>
      </trkpt>
      <trkpt lat="45.06877" lon="6.04217">
        <ele>921</ele>
        <time>2024-08-09T07:59:58Z</time>
      </trkpt>
      <trkpt lat="45.06875" lon="6.0422">
        <ele>921.2</ele>
        <time>2024-08-09T07:59:59Z</time>
      </trkpt>
      <trkpt lat="45.06873" lon="6.04221">
        <ele>921.4</ele>
        <time>2024-08-09T08:00:01Z</time>
      </trkpt>
      <trkpt lat="45.06873" lon="6.04221">
        <ele>921.8</ele>
        <time>2024-08-09T08:00:02Z</time>
      </trkpt>
      <trkpt lat="45.06871" lon="6.04221">
        <ele>921.8</ele>
        <time>2024-08-09T08:00:03Z</time>
      </trkpt>
      <trkpt lat="45.06871" lon="6.04221">
        <ele>921.8</ele>
        <time>2024-08-09T08:00:04Z</time>
      </trkpt>
      <trkpt lat="45.06869" lon="6.04222">
        <ele>922.2</ele>
        <time>2024-08-09T08:00:05Z</time>
      </trkpt>
      <trkpt lat="45.06869" lon="6.04222">
        <ele>922.6</ele>
        <time>2024-08-09T08:00:06Z</time>
      </trkpt>
      <trkpt lat="45.06867" lon="6.04223">
        <ele>923</ele>
        <time>2024-08-09T08:00:07Z</time>
      </trkpt>
      <trkpt lat="45.06867" lon="6.04223">
        <ele>923</ele>
        <time>2024-08-09T08:00:08Z</time>
      </trkpt>
      <trkpt lat="45.06864" lon="6.04223">
        <ele>923</ele>
        <time>2024-08-09T08:00:09Z</time>
      </trkpt>
      <trkpt lat="45.06864" lon="6.04223">
        <ele>923.2</ele>
        <time>2024-08-09T08:00:10Z</time>
      </trkpt>
      <trkpt lat="45.06862" lon="6.04223">
        <ele>923.4</ele>
        <time>2024-08-09T08:00:11Z</time>
      </trkpt>
      <trkpt lat="45.06862" lon="6.04223">
        <ele>923.8</ele>
        <time>2024-08-09T08:00:12Z</time>
      </trkpt>
      <trkpt lat="45.0686" lon="6.04223">
        <ele>923.8</ele>
        <time>2024-08-09T08:00:13Z</time>
      </trkpt>
      <trkpt lat="45.0686" lon="6.04223">
        <ele>924.2</ele>
        <time>2024-08-09T08:00:14Z</time>
      </trkpt>
      <trkpt lat="45.06857" lon="6.04223">
        <ele>924.2</ele>
        <time>2024-08-09T08:00:15Z</time>
      </trkpt>
      <trkpt lat="45.06855" lon="6.04222">
        <ele>924.4</ele>
        <time>2024-08-09T08:00:16Z</time>
      </trkpt>
      <trkpt lat="45.06853" lon="6.04223">
        <ele>924.6</ele>
        <time>2024-08-09T08:00:17Z</time>
      </trkpt>
      <trkpt lat="45.06849" lon="6.04222">
        <ele>924.6</ele>
        <time>2024-08-09T08:00:18Z</time>
      </trkpt>
      <trkpt lat="45.06847" lon="6.04222">
        <ele>924.8</ele>
        <time>2024-08-09T08:00:19Z</time>
      </trkpt>
      <trkpt lat="45.06847" lon="6.04222">
        <ele>925.2</ele>
        <time>2024-08-09T08:00:20Z</time>
      </trkpt>
      <trkpt lat="45.06845" lon="6.04223">
        <ele>925.2</ele>
        <time>2024-08-09T08:00:21Z</time>
      </trkpt>
      <trkpt lat="45.06845" lon="6.04223">
        <ele>924.8</ele>
        <time>2024-08-09T08:00:22Z</time>
      </trkpt>
      <trkpt lat="45.06843" lon="6.04221">
        <ele>924.8</ele>
        <time>2024-08-09T08:00:23Z</time>
      </trkpt>
      <trkpt lat="45.06843" lon="6.04221">
        <ele>924.8</ele>
        <time>2024-08-09T08:00:24Z</time>
      </trkpt>
      <trkpt lat="45.06841" lon="6.04221">
        <ele>925</ele>
        <time>2024-08-09T08:00:25Z</time>
      </trkpt>
      <trkpt lat="45.06841" lon="6.04221">
        <ele>925</ele>
        <time>2024-08-09T08:00:26Z</time>
      </trkpt>
      <trkpt lat="45.06839" lon="6.04222">
        <ele>925</ele>
        <time>2024-08-09T08:00:27Z</time>
      </trkpt>
      <trkpt lat="45.06839" lon="6.04222">
        <ele>925.8</ele>
        <time>2024-08-09T08:00:28Z</time>
      </trkpt>
      <trkpt lat="45.06836" lon="6.04222">
        <ele>925.8</ele>
        <time>2024-08-09T08:00:29Z</time>
      </trkpt>
      <trkpt lat="45.06836" lon="6.04222">
        <ele>926</ele>
        <time>2024-08-09T08:00:30Z</time>
      </trkpt>
      <trkpt lat="45.06834" lon="6.04222">
        <ele>926.4</ele>
        <time>2024-08-09T08:00:31Z</time>
      </trkpt>
      <trkpt lat="45.06834" lon="6.04222">
        <ele>926.4</ele>
        <time>2024-08-09T08:00:32Z</time>
      </trkpt>
      <trkpt lat="45.06831" lon="6.04224">
        <ele>926.4</ele>
        <time>2024-08-09T08:00:33Z</time>
      </trkpt>
      <trkpt lat="45.06831" lon="6.04224">
        <ele>926.6</ele>
        <time>2024-08-09T08:00:34Z</time>
      </trkpt>
      <trkpt lat="45.06829" lon="6.04226">
        <ele>927</ele>
        <time>2024-08-09T08:00:35Z</time>
      </trkpt>
      <trkpt lat="45.06829" lon="6.04226">
        <ele>927</ele>
        <time>2024-08-09T08:00:36Z</time>
      </trkpt>
      <trkpt lat="45.06829" lon="6.04226">
        <ele>927</ele>
        <time>2024-08-09T08:00:37Z</time>
      </trkpt>
      <trkpt lat="45.06828" lon="6.04227">
        <ele>927.4</ele>
        <time>2024-08-09T08:00:38Z</time>
      </trkpt>
      <trkpt lat="45.06828" lon="6.04227">
        <ele>927.6</ele>
        <time>2024-08-09T08:00:39Z</time>
      </trkpt>
      <trkpt lat="45.06826" lon="6.04228">
        <ele>928</ele>
        <time>2024-08-09T08:00:40Z</time>
      </trkpt>
      <trkpt lat="45.06826" lon="6.04228">
        <ele>928</ele>
        <time>2024-08-09T08:00:41Z</time>
      </trkpt>
      <trkpt lat="45.06826" lon="6.04228">
        <ele>928.2</ele>
        <time>2024-08-09T08:00:42Z</time>
      </trkpt>
      <trkpt lat="45.06826" lon="6.04228">
        <ele>928.4</ele>
        <time>2024-08-09T08:00:43Z</time>
      </trkpt>
      <trkpt lat="45.06826" lon="6.04231">
        <ele>928.6</ele>
        <time>2024-08-09T08:00:44Z</time>
      </trkpt>
      <trkpt lat="45.06826" lon="6.04231">
        <ele>929</ele>
        <time>2024-08-09T08:00:45Z</time>
      </trkpt>
      <trkpt lat="45.06826" lon="6.04231">
        <ele>929.2</ele>
        <time>2024-08-09T08:00:46Z</time>
      </trkpt>
      <trkpt lat="45.06826" lon="6.04231">
        <ele>929.4</ele>
        <time>2024-08-09T08:00:47Z</time>
      </trkpt>
      <trkpt lat="45.06826" lon="6.04231">
        <ele>929.8</ele>
        <time>2024-08-09T08:00:48Z</time>
      </trkpt>
      <trkpt lat="45.06826" lon="6.04231">
        <ele>929.8</ele>
        <time>2024-08-09T08:00:49Z</time>
      </trkpt>
      <trkpt lat="45.06824" lon="6.04232">
        <ele>930.6</ele>
        <time>2024-08-09T08:00:50Z</time>
      </trkpt>
      <trkpt lat="45.06824" lon="6.04232">
        <ele>930.8</ele>
        <time>2024-08-09T08:00:51Z</time>
      </trkpt>
      <trkpt lat="45.06824" lon="6.04232">
        <ele>930.8</ele>
        <time>2024-08-09T08:00:52Z</time>
      </trkpt>
      <trkpt lat="45.06824" lon="6.04232">
        <ele>931.2</ele>
        <time>2024-08-09T08:00:53Z</time>
      </trkpt>
      <trkpt lat="45.06824" lon="6.04232">
        <ele>931.4</ele>
        <time>2024-08-09T08:00:54Z</time>
      </trkpt>
      <trkpt lat="45.06824" lon="6.04232">
        <ele>931.8</ele>
        <time>2024-08-09T08:00:55Z</time>
      </trkpt>
      <trkpt lat="45.06822" lon="6.04234">
        <ele>931.8</ele>
        <time>2024-08-09T08:00:56Z</time>
      </trkpt>
      <trkpt lat="45.06822" lon="6.04234">
        <ele>932.4</ele>
        <time>2024-08-09T08:00:57Z</time>
      </trkpt>
      <trkpt lat="45.06822" lon="6.04234">
        <ele>932.6</ele>
        <time>2024-08-09T08:00:58Z</time>
      </trkpt>
      <trkpt lat="45.06822" lon="6.04234">
        <ele>932.8</ele>
        <time>2024-08-09T08:00:59Z</time>
      </trkpt>
      <trkpt lat="45.06822" lon="6.04234">
        <ele>932.8</ele>
        <time>2024-08-09T08:01:00Z</time>
      </trkpt>
      <trkpt lat="45.06822" lon="6.04234">
        <ele>933.2</ele>
        <time>2024-08-09T08:01:01Z</time>
      </trkpt>
      <trkpt lat="45.06822" lon="6.04234">
        <ele>933.6</ele>
        <time>2024-08-09T08:01:02Z</time>
      </trkpt>
      <trkpt lat="45.06822" lon="6.04234">
        <ele>933.8</ele>
        <time>2024-08-09T08:01:03Z</time>
      </trkpt>
      <trkpt lat="45.06822" lon="6.04234">
        <ele>934</ele>
        <time>2024-08-09T08:01:04Z</time>
      </trkpt>
      <trkpt lat="45.06822" lon="6.04234">
        <ele>934</ele>
        <time>2024-08-09T08:01:05Z</time>
      </trkpt>
      <trkpt lat="45.06822" lon="6.04234">
        <ele>934.4</ele>
        <time>2024-08-09T08:01:06Z</time>
      </trkpt>
      <trkpt lat="45.06822" lon="6.04234">
        <ele>934.6</ele>
        <time>2024-08-09T08:01:07Z</time>
      </trkpt>
      <trkpt lat="45.06822" lon="6.04234">
        <ele>934.6</ele>
        <time>2024-08-09T08:01:08Z</time>
      </trkpt>
      <trkpt lat="45.06822" lon="6.04234">
        <ele>934.6</ele>
        <time>2024-08-09T08:01:09Z</time>
      </trkpt>
      <trkpt lat="45.06822" lon="6.04234">
        <ele>935.4</ele>
        <time>2024-08-09T08:01:10Z</time>
      </trkpt>
      <trkpt lat="45.06822" lon="6.04234">
        <ele>935.6</ele>
        <time>2024-08-09T08:01:11Z</time>
      </trkpt>
      <trkpt lat="45.06822" lon="6.04234">
        <ele>936</ele>
        <time>2024-08-09T08:01:12Z</time>
      </trkpt>
      <trkpt lat="45.06822" lon="6.04234">
        <ele>936.2</ele>
        <time>2024-08-09T08:01:13Z</time>
      </trkpt>
      <trkpt lat="45.06822" lon="6.04234">
        <ele>936.2</ele>
        <time>2024-08-09T08:01:14Z</time>
      </trkpt>
      <trkpt lat="45.06822" lon="6.04234">
        <ele>936.6</ele>
        <time>2024-08-09T08:01:15Z</time>
      </trkpt>
      <trkpt lat="45.06822" lon="6.04234">
        <ele>936.8</ele>
        <time>2024-08-09T08:01:16Z</time>
      </trkpt>
      <trkpt lat="45.06822" lon="6.04234">
        <ele>937</ele>
        <time>2024-08-09T08:01:17Z</time>
      </trkpt>
      <trkpt lat="45.06821" lon="6.04236">
        <ele>937.2</ele>
        <time>2024-08-09T08:01:18Z</time>
      </trkpt>
      <trkpt lat="45.06821" lon="6.04236">
        <ele>937.4</ele>
        <time>2024-08-09T08:01:19Z</time>
      </trkpt>
      <trkpt lat="45.0682" lon="6.04238">
        <ele>937.6</ele>
        <time>2024-08-09T08:01:20Z</time>
      </trkpt>
      <trkpt lat="45.0682" lon="6.04238">
        <ele>937.8</ele>
        <time>2024-08-09T08:01:21Z</time>
      </trkpt>
      <trkpt lat="45.06819" lon="6.04241">
        <ele>938</ele>
        <time>2024-08-09T08:01:22Z</time>
      </trkpt>
      <trkpt lat="45.06819" lon="6.04241">
        <ele>938.4</ele>
        <time>2024-08-09T08:01:23Z</time>
      </trkpt>
      <trkpt lat="45.06817" lon="6.04243">
        <ele>938.4</ele>
        <time>2024-08-09T08:01:24Z</time>
      </trkpt>
      <trkpt lat="45.06817" lon="6.04243">
        <ele>938.6</ele>
        <time>2024-08-09T08:01:25Z</time>
      </trkpt>
      <trkpt lat="45.06816" lon="6.04244">
        <ele>938.6</ele>
        <time>2024-08-09T08:01:26Z</time>
      </trkpt>
      <trkpt lat="45.06816" lon="6.04244">
        <ele>939</ele>
        <time>2024-08-09T08:01:27Z</time>
      </trkpt>
      <trkpt lat="45.06813" lon="6.04244">
        <ele>939</ele>
        <time>2024-08-09T08:01:28Z</time>
      </trkpt>
      <trkpt lat="45.06813" lon="6.04244">
        <ele>939</ele>
        <time>2024-08-09T08:01:29Z</time>
      </trkpt>
      <trkpt lat="45.06812" lon="6.04244">
        <ele>939.4</ele>
        <time>2024-08-09T08:01:30Z</time>
      </trkpt>
      <trkpt lat="45.06812" lon="6.04244">
        <ele>939.8</ele>
        <time>2024-08-09T08:01:31Z</time>
      </trkpt>
      <trkpt lat="45.06809" lon="6.04244">
        <ele>939.8</ele>
        <time>2024-08-09T08:01:32Z</time>
      </trkpt>
      <trkpt lat="45.06809" lon="6.04244">
        <ele>940</ele>
        <time>2024-08-09T08:01:33Z</time>
      </trkpt>
      <trkpt lat="45.06807" lon="6.04244">
        <ele>940</ele>
        <time>2024-08-09T08:01:34Z</time>
      </trkpt>
      <trkpt lat="45.06807" lon="6.04244">
        <ele>940</ele>
        <time>2024-08-09T08:01:35Z</time>
      </trkpt>
      <trkpt lat="45.06804" lon="6.04244">
        <ele>939.8</ele>
        <time>2024-08-09T08:01:36Z</time>
      </trkpt>
      <trkpt lat="45.06804" lon="6.04244">
        <ele>939.6</ele>
        <time>2024-08-09T08:01:37Z</time>
      </trkpt>
      <trkpt lat="45.06802" lon="6.04245">
        <ele>939.6</ele>
        <time>2024-08-09T08:01:38Z</time>
      </trkpt>
      <trkpt lat="45.06802" lon="6.04245">
        <ele>939.6</ele>
        <time>2024-08-09T08:01:39Z</time>
      </trkpt>
      <trkpt lat="45.06802" lon="6.04245">
        <ele>940</ele>
        <time>2024-08-09T08:01:40Z</time>
      </trkpt>
      <trkpt lat="45.068" lon="6.04245">
        <ele>940</ele>
        <time>2024-08-09T08:01:41Z</time>
      </trkpt>
      <trkpt lat="45.068" lon="6.04245">
        <ele>940</ele>
        <time>2024-08-09T08:01:42Z</time>
      </trkpt>
      <trkpt lat="45.068" lon="6.04245">
        <ele>940</ele>
        <time>2024-08-09T08:01:43Z</time>
      </trkpt>
      <trkpt lat="45.06797" lon="6.04247">
        <ele>940.2</ele>
        <time>2024-08-09T08:01:44Z</time>
      </trkpt>
      <trkpt lat="45.06797" lon="6.04247">
        <ele>940.2</ele>
        <time>2024-08-09T08:01:45Z</time>
      </trkpt>
      <trkpt lat="45.06796" lon="6.04249">
        <ele>940.2</ele>
        <time>2024-08-09T08:01:46Z</time>
      </trkpt>
      <trkpt lat="45.06796" lon="6.04249">
        <ele>940</ele>
        <time>2024-08-09T08:01:47Z</time>
      </trkpt>
      <trkpt lat="45.06793" lon="6.04249">
        <ele>940</ele>
        <time>2024-08-09T08:01:48Z</time>
      </trkpt>
      <trkpt lat="45.06793" lon="6.04249">
        <ele>940</ele>
        <time>2024-08-09T08:01:49Z</time>
      </trkpt>
      <trkpt lat="45.0679" lon="6.04251">
        <ele>940</ele>
        <time>2024-08-09T08:01:50Z</time>
      </trkpt>
      <trkpt lat="45.06789" lon="6.04253">
        <ele>939.8</ele>
        <time>2024-08-09T08:01:51Z</time>
      </trkpt>
      <trkpt lat="45.06789" lon="6.04253">
        <ele>939.8</ele>
        <time>2024-08-09T08:01:52Z</time>
      </trkpt>
      <trkpt lat="45.06786" lon="6.04255">
        <ele>939.8</ele>
        <time>2024-08-09T08:01:53Z</time>
      </trkpt>
      <trkpt lat="45.06786" lon="6.04255">
        <ele>939.8</ele>
        <time>2024-08-09T08:01:54Z</time>
      </trkpt>
      <trkpt lat="45.06784" lon="6.04257">
        <ele>939.8</ele>
        <time>2024-08-09T08:01:55Z</time>
      </trkpt>
      <trkpt lat="45.06784" lon="6.04257">
        <ele>939.8</ele>
        <time>2024-08-09T08:01:56Z</time>
      </trkpt>
      <trkpt lat="45.06781" lon="6.0426">
        <ele>939.8</ele>
        <time>2024-08-09T08:01:57Z</time>
      </trkpt>
      <trkpt lat="45.06781" lon="6.0426">
        <ele>939.8</ele>
        <time>2024-08-09T08:01:58Z</time>
      </trkpt>
      <trkpt lat="45.0678" lon="6.04262">
        <ele>939.8</ele>
        <time>2024-08-09T08:01:59Z</time>
      </trkpt>
      <trkpt lat="45.0678" lon="6.04262">
        <ele>939.8</ele>
        <time>2024-08-09T08:02:00Z</time>
      </trkpt>
      <trkpt lat="45.06778" lon="6.04264">
        <ele>939.8</ele>
        <time>2024-08-09T08:02:01Z</time>
      </trkpt>
      <trkpt lat="45.06778" lon="6.04264">
        <ele>940</ele>
        <time>2024-08-09T08:02:02Z</time>
      </trkpt>
      <trkpt lat="45.06776" lon="6.04266">
        <ele>940</ele>
        <time>2024-08-09T08:02:03Z</time>
      </trkpt>
      <trkpt lat="45.06776" lon="6.04266">
        <ele>940</ele>
        <time>2024-08-09T08:02:04Z</time>
      </trkpt>
      <trkpt lat="45.06773" lon="6.04267">
        <ele>940</ele>
        <time>2024-08-09T08:02:05Z</time>
      </trkpt>
      <trkpt lat="45.06773" lon="6.04267">
        <ele>940.2</ele>
        <time>2024-08-09T08:02:06Z</time>
      </trkpt>
      <trkpt lat="45.06771" lon="6.04268">
        <ele>940.2</ele>
        <time>2024-08-09T08:02:07Z</time>
      </trkpt>
      <trkpt lat="45.06771" lon="6.04268">
        <ele>940.2</ele>
        <time>2024-08-09T08:02:08Z</time>
      </trkpt>
      <trkpt lat="45.06768" lon="6.04269">
        <ele>940</ele>
        <time>2024-08-09T08:02:09Z</time>
      </trkpt>
      <trkpt lat="45.06768" lon="6.04269">
        <ele>940</ele>
        <time>2024-08-09T08:02:10Z</time>
      </trkpt>
      <trkpt lat="45.06765" lon="6.04271">
        <ele>940.2</ele>
        <time>2024-08-09T08:02:11Z</time>
      </trkpt>
      <trkpt lat="45.06765" lon="6.04271">
        <ele>940.4</ele>
        <time>2024-08-09T08:02:12Z</time>
      </trkpt>
      <trkpt lat="45.06763" lon="6.04273">
        <ele>940.6</ele>
        <time>2024-08-09T08:02:13Z</time>
      </trkpt>
      <trkpt lat="45.06763" lon="6.04273">
        <ele>940.6</ele>
        <time>2024-08-09T08:02:14Z</time>
      </trkpt>
      <trkpt lat="45.06761" lon="6.04275">
        <ele>940.8</ele>
        <time>2024-08-09T08:02:15Z</time>
      </trkpt>
      <trkpt lat="45.06761" lon="6.04275">
        <ele>941</ele>
        <time>2024-08-09T08:02:16Z</time>
      </trkpt>
      <trkpt lat="45.06761" lon="6.04275">
        <ele>941.2</ele>
        <time>2024-08-09T08:02:17Z</time>
      </trkpt>
      <trkpt lat="45.06758" lon="6.04276">
        <ele>941.4</ele>
        <time>2024-08-09T08:02:18Z</time>
      </trkpt>
      <trkpt lat="45.06758" lon="6.04276">
        <ele>941.6</ele>
        <time>2024-08-09T08:02:19Z</time>
      </trkpt>
      <trkpt lat="45.06757" lon="6.04278">
        <ele>941.8</ele>
        <time>2024-08-09T08:02:20Z</time>
      </trkpt>
      <trkpt lat="45.06757" lon="6.04278">
        <ele>942.2</ele>
        <time>2024-08-09T08:02:21Z</time>
      </trkpt>
      <trkpt lat="45.06757" lon="6.04278">
        <ele>942.4</ele>
        <time>2024-08-09T08:02:22Z</time>
      </trkpt>
      <trkpt lat="45.06755" lon="6.04279">
        <ele>942.8</ele>
        <time>2024-08-09T08:02:23Z</time>
      </trkpt>
      <trkpt lat="45.06755" lon="6.04279">
        <ele>943.2</ele>
        <time>2024-08-09T08:02:24Z</time>
      </trkpt>
      <trkpt lat="45.06755" lon="6.04279">
        <ele>943.8</ele>
        <time>2024-08-09T08:02:25Z</time>
      </trkpt>
      <trkpt lat="45.06755" lon="6.04279">
        <ele>944</ele>
        <time>2024-08-09T08:02:26Z</time>
      </trkpt>
      <trkpt lat="45.06754" lon="6.04282">
        <ele>944.2</ele>
        <time>2024-08-09T08:02:27Z</time>
      </trkpt>
      <trkpt lat="45.06754" lon="6.04282">
        <ele>944.8</ele>
        <time>2024-08-09T08:02:28Z</time>
      </trkpt>
      <trkpt lat="45.06752" lon="6.04286">
        <ele>945</ele>
        <time>2024-08-09T08:02:29Z</time>
      </trkpt>
      <trkpt lat="45.06752" lon="6.04286">
        <ele>945</ele>
        <time>2024-08-09T08:02:30Z</time>
      </trkpt>
      <trkpt lat="45.0675" lon="6.04288">
        <ele>944.8</ele>
        <time>2024-08-09T08:02:31Z</time>
      </trkpt>
      <trkpt lat="45.0675" lon="6.04288">
        <ele>944.6</ele>
        <time>2024-08-09T08:02:32Z</time>
      </trkpt>
      <trkpt lat="45.06749" lon="6.0429">
        <ele>944.6</ele>
        <time>2024-08-09T08:02:33Z</time>
      </trkpt>
      <trkpt lat="45.06749" lon="6.0429">
        <ele>944.8</ele>
        <time>2024-08-09T08:02:34Z</time>
      </trkpt>
      <trkpt lat="45.06749" lon="6.0429">
        <ele>945</ele>
        <time>2024-08-09T08:02:35Z</time>
      </trkpt>
      <trkpt lat="45.06749" lon="6.0429">
        <ele>945</ele>
        <time>2024-08-09T08:02:36Z</time>
      </trkpt>
      <trkpt lat="45.06747" lon="6.04292">
        <ele>945.2</ele>
        <time>2024-08-09T08:02:37Z</time>
      </trkpt>
      <trkpt lat="45.06747" lon="6.04292">
        <ele>945.6</ele>
        <time>2024-08-09T08:02:38Z</time>
      </trkpt>
      <trkpt lat="45.06747" lon="6.04292">
        <ele>945.6</ele>
        <time>2024-08-09T08:02:39Z</time>
      </trkpt>
      <trkpt lat="45.06746" lon="6.04294">
        <ele>946</ele>
        <time>2024-08-09T08:02:40Z</time>
      </trkpt>
      <trkpt lat="45.06746" lon="6.04294">
        <ele>946.4</ele>
        <time>2024-08-09T08:02:41Z</time>
      </trkpt>
      <trkpt lat="45.06746" lon="6.04294">
        <ele>946.6</ele>
        <time>2024-08-09T08:02:42Z</time>
      </trkpt>
      <trkpt lat="45.06746" lon="6.04294">
        <ele>946.6</ele>
        <time>2024-08-09T08:02:43Z</time>
      </trkpt>
      <trkpt lat="45.06745" lon="6.04297">
        <ele>947</ele>
        <time>2024-08-09T08:02:44Z</time>
      </trkpt>
      <trkpt lat="45.06745" lon="6.04297">
        <ele>947.4</ele>
        <time>2024-08-09T08:02:45Z</time>
      </trkpt>
      <trkpt lat="45.06745" lon="6.04297">
        <ele>947.6</ele>
        <time>2024-08-09T08:02:46Z</time>
      </trkpt>
      <trkpt lat="45.06744" lon="6.04299">
        <ele>947.6</ele>
        <time>2024-08-09T08:02:47Z</time>
      </trkpt>
      <trkpt lat="45.06744" lon="6.04299">
        <ele>948</ele>
        <time>2024-08-09T08:02:48Z</time>
      </trkpt>
      <trkpt lat="45.06744" lon="6.04299">
        <ele>948</ele>
        <time>2024-08-09T08:02:49Z</time>
      </trkpt>
      <trkpt lat="45.06743" lon="6.04302">
        <ele>948.2</ele>
        <time>2024-08-09T08:02:50Z</time>
      </trkpt>
      <trkpt lat="45.06743" lon="6.04302">
        <ele>948.6</ele>
        <time>2024-08-09T08:02:51Z</time>
      </trkpt>
      <trkpt lat="45.06743" lon="6.04302">
        <ele>949</ele>
        <time>2024-08-09T08:02:52Z</time>
      </trkpt>
      <trkpt lat="45.06743" lon="6.04302">
        <ele>949.2</ele>
        <time>2024-08-09T08:02:53Z</time>
      </trkpt>
      <trkpt lat="45.06742" lon="6.04305">
        <ele>949.2</ele>
        <time>2024-08-09T08:02:54Z</time>
      </trkpt>
      <trkpt lat="45.06742" lon="6.04305">
        <ele>949.2</ele>
        <time>2024-08-09T08:02:55Z</time>
      </trkpt>
      <trkpt lat="45.06742" lon="6.04305">
        <ele>949.6</ele>
        <time>2024-08-09T08:02:56Z</time>
      </trkpt>
      <trkpt lat="45.06742" lon="6.04305">
        <ele>950</ele>
        <time>2024-08-09T08:02:57Z</time>
      </trkpt>
      <trkpt lat="45.06742" lon="6.04305">
        <ele>950.2</ele>
        <time>2024-08-09T08:02:58Z</time>
      </trkpt>
      <trkpt lat="45.06742" lon="6.04308">
        <ele>950.4</ele>
        <time>2024-08-09T08:02:59Z</time>
      </trkpt>
      <trkpt lat="45.06742" lon="6.04308">
        <ele>950.8</ele>
        <time>2024-08-09T08:03:00Z</time>
      </trkpt>
      <trkpt lat="45.06742" lon="6.04308">
        <ele>951</ele>
        <time>2024-08-09T08:03:01Z</time>
      </trkpt>
      <trkpt lat="45.06742" lon="6.04308">
        <ele>951.4</ele>
        <time>2024-08-09T08:03:02Z</time>
      </trkpt>
      <trkpt lat="45.06742" lon="6.04308">
        <ele>951.6</ele>
        <time>2024-08-09T08:03:03Z</time>
      </trkpt>
      <trkpt lat="45.0674" lon="6.0431">
        <ele>952</ele>
        <time>2024-08-09T08:03:04Z</time>
      </trkpt>
      <trkpt lat="45.0674" lon="6.0431">
        <ele>952</ele>
        <time>2024-08-09T08:03:05Z</time>
      </trkpt>
      <trkpt lat="45.0674" lon="6.0431">
        <ele>952.2</ele>
        <time>2024-08-09T08:03:06Z</time>
      </trkpt>
      <trkpt lat="45.06739" lon="6.04311">
        <ele>952.8</ele>
        <time>2024-08-09T08:03:07Z</time>
      </trkpt>
      <trkpt lat="45.06739" lon="6.04311">
        <ele>952.8</ele>
        <time>2024-08-09T08:03:08Z</time>
      </trkpt>
      <trkpt lat="45.06739" lon="6.04311">
        <ele>953</ele>
        <time>2024-08-09T08:03:09Z</time>
      </trkpt>
      <trkpt lat="45.06739" lon="6.04311">
        <ele>953.4</ele>
        <time>2024-08-09T08:03:10Z</time>
      </trkpt>
      <trkpt lat="45.06739" lon="6.04311">
        <ele>953.4</ele>
        <time>2024-08-09T08:03:11Z</time>
      </trkpt>
      <trkpt lat="45.06738" lon="6.04314">
        <ele>953.4</ele>
        <time>2024-08-09T08:03:12Z</time>
      </trkpt>
      <trkpt lat="45.06738" lon="6.04314">
        <ele>954</ele>
        <time>2024-08-09T08:03:13Z</time>
      </trkpt>
      <trkpt lat="45.06738" lon="6.04314">
        <ele>954</ele>
        <time>2024-08-09T08:03:14Z</time>
      </trkpt>
      <trkpt lat="45.06736" lon="6.04317">
        <ele>954</ele>
        <time>2024-08-09T08:03:15Z</time>
      </trkpt>
      <trkpt lat="45.06736" lon="6.04317">
        <ele>954.4</ele>
        <time>2024-08-09T08:03:16Z</time>
      </trkpt>
      <trkpt lat="45.06734" lon="6.04318">
        <ele>954.6</ele>
        <time>2024-08-09T08:03:17Z</time>
      </trkpt>
      <trkpt lat="45.06734" lon="6.04318">
        <ele>954.8</ele>
        <time>2024-08-09T08:03:18Z</time>
      </trkpt>
      <trkpt lat="45.06733" lon="6.04318">
        <ele>955.2</ele>
        <time>2024-08-09T08:03:19Z</time>
      </trkpt>
      <trkpt lat="45.06733" lon="6.04318">
        <ele>955.2</ele>
        <time>2024-08-09T08:03:20Z</time>
      </trkpt>
      <trkpt lat="45.06733" lon="6.04318">
        <ele>955.6</ele>
        <time>2024-08-09T08:03:21Z</time>
      </trkpt>
      <trkpt lat="45.06731" lon="6.04319">
        <ele>955.6</ele>
        <time>2024-08-09T08:03:22Z</time>
      </trkpt>
      <trkpt lat="45.06731" lon="6.04319">
        <ele>956</ele>
        <time>2024-08-09T08:03:23Z</time>
      </trkpt>
      <trkpt lat="45.06731" lon="6.04319">
        <ele>956</ele>
        <time>2024-08-09T08:03:24Z</time>
      </trkpt>
      <trkpt lat="45.06731" lon="6.04319">
        <ele>956.4</ele>
        <time>2024-08-09T08:03:25Z</time>
      </trkpt>
      <trkpt lat="45.06729" lon="6.04321">
        <ele>956.6</ele>
        <time>2024-08-09T08:03:26Z</time>
      </trkpt>
      <trkpt lat="45.06729" lon="6.04321">
        <ele>957</ele>
        <time>2024-08-09T08:03:27Z</time>
      </trkpt>
      <trkpt lat="45.06729" lon="6.04321">
        <ele>957.2</ele>
        <time>2024-08-09T08:03:28Z</time>
      </trkpt>
      <trkpt lat="45.06727" lon="6.04322">
        <ele>957.2</ele>
        <time>2024-08-09T08:03:29Z</time>
      </trkpt>
      <trkpt lat="45.06727" lon="6.04322">
        <ele>957.6</ele>
        <time>2024-08-09T08:03:30Z</time>
      </trkpt>
      <trkpt lat="45.06725" lon="6.04322">
        <ele>957.6</ele>
        <time>2024-08-09T08:03:31Z</time>
      </trkpt>
      <trkpt lat="45.06725" lon="6.04322">
        <ele>957.8</ele>
        <time>2024-08-09T08:03:32Z</time>
      </trkpt>
      <trkpt lat="45.06725" lon="6.04322">
        <ele>958</ele>
        <time>2024-08-09T08:03:33Z</time>
      </trkpt>
      <trkpt lat="45.06725" lon="6.04322">
        <ele>958</ele>
        <time>2024-08-09T08:03:34Z</time>
      </trkpt>
      <trkpt lat="45.06724" lon="6.04325">
        <ele>958.2</ele>
        <time>2024-08-09T08:03:35Z</time>
      </trkpt>
      <trkpt lat="45.06724" lon="6.04325">
        <ele>958.8</ele>
        <time>2024-08-09T08:03:36Z</time>
      </trkpt>
      <trkpt lat="45.06724" lon="6.04325">
        <ele>958.8</ele>
        <time>2024-08-09T08:03:37Z</time>
      </trkpt>
      <trkpt lat="45.06724" lon="6.04325">
        <ele>959</ele>
        <time>2024-08-09T08:03:38Z</time>
      </trkpt>
      <trkpt lat="45.06726" lon="6.04327">
        <ele>959</ele>
        <time>2024-08-09T08:03:39Z</time>
      </trkpt>
      <trkpt lat="45.06726" lon="6.04327">
        <ele>959.6</ele>
        <time>2024-08-09T08:03:40Z</time>
      </trkpt>
      <trkpt lat="45.06726" lon="6.04327">
        <ele>959.8</ele>
        <time>2024-08-09T08:03:41Z</time>
      </trkpt>
      <trkpt lat="45.06726" lon="6.04327">
        <ele>960</ele>
        <time>2024-08-09T08:03:42Z</time>
      </trkpt>
      <trkpt lat="45.06726" lon="6.0433">
        <ele>960</ele>
        <time>2024-08-09T08:03:43Z</time>
      </trkpt>
      <trkpt lat="45.06726" lon="6.0433">
        <ele>960.4</ele>
        <time>2024-08-09T08:03:44Z</time>
      </trkpt>
      <trkpt lat="45.06726" lon="6.0433">
        <ele>960.6</ele>
        <time>2024-08-09T08:03:45Z</time>
      </trkpt>
      <trkpt lat="45.06724" lon="6.0433">
        <ele>960.8</ele>
        <time>2024-08-09T08:03:46Z</time>
      </trkpt>
      <trkpt lat="45.06724" lon="6.0433">
        <ele>961</ele>
        <time>2024-08-09T08:03:47Z</time>
      </trkpt>
      <trkpt lat="45.06724" lon="6.0433">
        <ele>961</ele>
        <time>2024-08-09T08:03:48Z</time>
      </trkpt>
      <trkpt lat="45.06722" lon="6.0433">
        <ele>961</ele>
        <time>2024-08-09T08:03:49Z</time>
      </trkpt>
      <trkpt lat="45.06722" lon="6.0433">
        <ele>961.4</ele>
        <time>2024-08-09T08:03:50Z</time>
      </trkpt>
      <trkpt lat="45.0672" lon="6.0433">
        <ele>961.4</ele>
        <time>2024-08-09T08:03:51Z</time>
      </trkpt>
      <trkpt lat="45.0672" lon="6.0433">
        <ele>961.4</ele>
        <time>2024-08-09T08:03:52Z</time>
      </trkpt>
      <trkpt lat="45.06718" lon="6.04331">
        <ele>961.8</ele>
        <time>2024-08-09T08:03:53Z</time>
      </trkpt>
      <trkpt lat="45.06718" lon="6.04331">
        <ele>962</ele>
        <time>2024-08-09T08:03:54Z</time>
      </trkpt>
      <trkpt lat="45.06716" lon="6.04333">
        <ele>962</ele>
        <time>2024-08-09T08:03:55Z</time>
      </trkpt>
      <trkpt lat="45.06716" lon="6.04333">
        <ele>962.2</ele>
        <time>2024-08-09T08:03:56Z</time>
      </trkpt>
      <trkpt lat="45.06714" lon="6.04335">
        <ele>962.2</ele>
        <time>2024-08-09T08:03:57Z</time>
      </trkpt>
      <trkpt lat="45.06714" lon="6.04335">
        <ele>962.4</ele>
        <time>2024-08-09T08:03:58Z</time>
      </trkpt>
      <trkpt lat="45.06712" lon="6.04336">
        <ele>962.4</ele>
        <time>2024-08-09T08:03:59Z</time>
      </trkpt>
      <trkpt lat="45.06712" lon="6.04336">
        <ele>962.4</ele>
        <time>2024-08-09T08:04:00Z</time>
      </trkpt>
      <trkpt lat="45.0671" lon="6.04338">
        <ele>962.6</ele>
        <time>2024-08-09T08:04:01Z</time>
      </trkpt>
      <trkpt lat="45.0671" lon="6.04338">
        <ele>963</ele>
        <time>2024-08-09T08:04:02Z</time>
      </trkpt>
      <trkpt lat="45.0671" lon="6.04338">
        <ele>963</ele>
        <time>2024-08-09T08:04:03Z</time>
      </trkpt>
      <trkpt lat="45.06709" lon="6.04341">
        <ele>963.2</ele>
        <time>2024-08-09T08:04:04Z</time>
      </trkpt>
      <trkpt lat="45.06709" lon="6.04341">
        <ele>963.4</ele>
        <time>2024-08-09T08:04:05Z</time>
      </trkpt>
      <trkpt lat="45.06709" lon="6.04341">
        <ele>963.4</ele>
        <time>2024-08-09T08:04:06Z</time>
      </trkpt>
      <trkpt lat="45.06709" lon="6.04343">
        <ele>963.8</ele>
        <time>2024-08-09T08:04:07Z</time>
      </trkpt>
      <trkpt lat="45.06709" lon="6.04343">
        <ele>963.8</ele>
        <time>2024-08-09T08:04:08Z</time>
      </trkpt>
      <trkpt lat="45.06709" lon="6.04343">
        <ele>964</ele>
        <time>2024-08-09T08:04:09Z</time>
      </trkpt>
      <trkpt lat="45.06708" lon="6.04346">
        <ele>964.2</ele>
        <time>2024-08-09T08:04:10Z</time>
      </trkpt>
      <trkpt lat="45.06708" lon="6.04346">
        <ele>964.6</ele>
        <time>2024-08-09T08:04:11Z</time>
      </trkpt>
      <trkpt lat="45.06708" lon="6.04346">
        <ele>964.8</ele>
        <time>2024-08-09T08:04:12Z</time>
      </trkpt>
      <trkpt lat="45.06707" lon="6.04349">
        <ele>965.2</ele>
        <time>2024-08-09T08:04:13Z</time>
      </trkpt>
      <trkpt lat="45.06707" lon="6.04349">
        <ele>965.2</ele>
        <time>2024-08-09T08:04:14Z</time>
      </trkpt>
      <trkpt lat="45.06707" lon="6.04349">
        <ele>965.4</ele>
        <time>2024-08-09T08:04:15Z</time>
      </trkpt>
      <trkpt lat="45.06705" lon="6.04351">
        <ele>965.6</ele>
        <time>2024-08-09T08:04:16Z</time>
      </trkpt>
      <trkpt lat="45.06705" lon="6.04351">
        <ele>966</ele>
        <time>2024-08-09T08:04:17Z</time>
      </trkpt>
      <trkpt lat="45.06705" lon="6.04351">
        <ele>966.2</ele>
        <time>2024-08-09T08:04:18Z</time>
      </trkpt>
      <trkpt lat="45.06703" lon="6.04353">
        <ele>966.6</ele>
        <time>2024-08-09T08:04:19Z</time>
      </trkpt>
      <trkpt lat="45.06703" lon="6.04353">
        <ele>966.6</ele>
        <time>2024-08-09T08:04:20Z</time>
      </trkpt>
      <trkpt lat="45.06703" lon="6.04353">
        <ele>966.6</ele>
        <time>2024-08-09T08:04:21Z</time>
      </trkpt>
      <trkpt lat="45.06703" lon="6.04353">
        <ele>967.2</ele>
        <time>2024-08-09T08:04:22Z</time>
      </trkpt>
      <trkpt lat="45.06702" lon="6.04355">
        <ele>967.4</ele>
        <time>2024-08-09T08:04:23Z</time>
      </trkpt>
      <trkpt lat="45.06702" lon="6.04355">
        <ele>967.6</ele>
        <time>2024-08-09T08:04:24Z</time>
      </trkpt>
      <trkpt lat="45.06702" lon="6.04355">
        <ele>967.6</ele>
        <time>2024-08-09T08:04:25Z</time>
      </trkpt>
      <trkpt lat="45.067" lon="6.04357">
        <ele>967.6</ele>
        <time>2024-08-09T08:04:26Z</time>
      </trkpt>
      <trkpt lat="45.067" lon="6.04357">
        <ele>967.8</ele>
        <time>2024-08-09T08:04:27Z</time>
      </trkpt>
      <trkpt lat="45.067" lon="6.04357">
        <ele>968</ele>
        <time>2024-08-09T08:04:28Z</time>
      </trkpt>
      <trkpt lat="45.06698" lon="6.04358">
        <ele>968.2</ele>
        <time>2024-08-09T08:04:29Z</time>
      </trkpt>
      <trkpt lat="45.06698" lon="6.04358">
        <ele>968.2</ele>
        <time>2024-08-09T08:04:30Z</time>
      </trkpt>
      <trkpt lat="45.06698" lon="6.04358">
        <ele>968.6</ele>
        <time>2024-08-09T08:04:31Z</time>
      </trkpt>
      <trkpt lat="45.06695" lon="6.0436">
        <ele>968.8</ele>
        <time>2024-08-09T08:04:32Z</time>
      </trkpt>
      <trkpt lat="45.06695" lon="6.0436">
        <ele>969</ele>
        <time>2024-08-09T08:04:33Z</time>
      </trkpt>
      <trkpt lat="45.06695" lon="6.0436">
        <ele>969.4</ele>
        <time>2024-08-09T08:04:34Z</time>
      </trkpt>
      <trkpt lat="45.06695" lon="6.0436">
        <ele>969.6</ele>
        <time>2024-08-09T08:04:35Z</time>
      </trkpt>
      <trkpt lat="45.06694" lon="6.04362">
        <ele>969.8</ele>
        <time>2024-08-09T08:04:36Z</time>
      </trkpt>
      <trkpt lat="45.06694" lon="6.04362">
        <ele>970</ele>
        <time>2024-08-09T08:04:37Z</time>
      </trkpt>
      <trkpt lat="45.06694" lon="6.04362">
        <ele>970.2</ele>
        <time>2024-08-09T08:04:38Z</time>
      </trkpt>
      <trkpt lat="45.06694" lon="6.04362">
        <ele>970.4</ele>
        <time>2024-08-09T08:04:39Z</time>
      </trkpt>
      <trkpt lat="45.06694" lon="6.04362">
        <ele>970.6</ele>
        <time>2024-08-09T08:04:40Z</time>
      </trkpt>
      <trkpt lat="45.06694" lon="6.04362">
        <ele>971.2</ele>
        <time>2024-08-09T08:04:41Z</time>
      </trkpt>
      <trkpt lat="45.06694" lon="6.04362">
        <ele>971.2</ele>
        <time>2024-08-09T08:04:42Z</time>
      </trkpt>
      <trkpt lat="45.06694" lon="6.04362">
        <ele>971</ele>
        <time>2024-08-09T08:04:43Z</time>
      </trkpt>
      <trkpt lat="45.06694" lon="6.04362">
        <ele>971</ele>
        <time>2024-08-09T08:04:44Z</time>
      </trkpt>
      <trkpt lat="45.06694" lon="6.04362">
        <ele>971</ele>
        <time>2024-08-09T08:04:45Z</time>
      </trkpt>
      <trkpt lat="45.06694" lon="6.04362">
        <ele>971</ele>
        <time>2024-08-09T08:04:46Z</time>
      </trkpt>
      <trkpt lat="45.06694" lon="6.04362">
        <ele>971</ele>
        <time>2024-08-09T08:04:47Z</time>
      </trkpt>
      <trkpt lat="45.06694" lon="6.04362">
        <ele>971</ele>
        <time>2024-08-09T08:04:48Z</time>
      </trkpt>
      <trkpt lat="45.06694" lon="6.04362">
        <ele>971</ele>
        <time>2024-08-09T08:04:49Z</time>
      </trkpt>
      <trkpt lat="45.06694" lon="6.04362">
        <ele>971</ele>
        <time>2024-08-09T08:04:50Z</time>
      </trkpt>
      <trkpt lat="45.06694" lon="6.04362">
        <ele>971</ele>
        <time>2024-08-09T08:04:51Z</time>
      </trkpt>
      <trkpt lat="45.06694" lon="6.04362">
        <ele>971</ele>
        <time>2024-08-09T08:04:52Z</time>
      </trkpt>
      <trkpt lat="45.06694" lon="6.04362">
        <ele>971</ele>
        <time>2024-08-09T08:04:53Z</time>
      </trkpt>
      <trkpt lat="45.06694" lon="6.04362">
        <ele>971</ele>
        <time>2024-08-09T08:04:54Z</time>
      </trkpt>
      <trkpt lat="45.06694" lon="6.04362">
        <ele>971</ele>
        <time>2024-08-09T08:04:55Z</time>
      </trkpt>
      <trkpt lat="45.06694" lon="6.04362">
        <ele>971</ele>
        <time>2024-08-09T08:04:56Z</time>
      </trkpt>
      <trkpt lat="45.06694" lon="6.04362">
        <ele>971.2</ele>
        <time>2024-08-09T08:04:57Z</time>
      </trkpt>
      <trkpt lat="45.06694" lon="6.04362">
        <ele>971.2</ele>
        <time>2024-08-09T08:04:58Z</time>
      </trkpt>
      <trkpt lat="45.06694" lon="6.04362">
        <ele>971.2</ele>
        <time>2024-08-09T08:04:59Z</time>
      </trkpt>
      <trkpt lat="45.06694" lon="6.04362">
        <ele>971.2</ele>
        <time>2024-08-09T08:05:00Z</time>
      </trkpt>
      <trkpt lat="45.06694" lon="6.04362">
        <ele>971.2</ele>
        <time>2024-08-09T08:05:01Z</time>
      </trkpt>
      <trkpt lat="45.06694" lon="6.04362">
        <ele>971.6</ele>
        <time>2024-08-09T08:05:02Z</time>
      </trkpt>
      <trkpt lat="45.06694" lon="6.04362">
        <ele>971.6</ele>
        <time>2024-08-09T08:05:03Z</time>
      </trkpt>
      <trkpt lat="45.06694" lon="6.04362">
        <ele>972.2</ele>
        <time>2024-08-09T08:05:04Z</time>
      </trkpt>
      <trkpt lat="45.06694" lon="6.04362">
        <ele>972.2</ele>
        <time>2024-08-09T08:05:05Z</time>
      </trkpt>
      <trkpt lat="45.06694" lon="6.04362">
        <ele>972.4</ele>
        <time>2024-08-09T08:05:06Z</time>
      </trkpt>
      <trkpt lat="45.06692" lon="6.04364">
        <ele>972.6</ele>
        <time>2024-08-09T08:05:07Z</time>
      </trkpt>
      <trkpt lat="45.06691" lon="6.04365">
        <ele>972.8</ele>
        <time>2024-08-09T08:05:08Z</time>
      </trkpt>
      <trkpt lat="45.06691" lon="6.04365">
        <ele>973.2</ele>
        <time>2024-08-09T08:05:09Z</time>
      </trkpt>
      <trkpt lat="45.06689" lon="6.04367">
        <ele>973.4</ele>
        <time>2024-08-09T08:05:10Z</time>
      </trkpt>
      <trkpt lat="45.06689" lon="6.04367">
        <ele>973.8</ele>
        <time>2024-08-09T08:05:11Z</time>
      </trkpt>
      <trkpt lat="45.06689" lon="6.04367">
        <ele>974</ele>
        <time>2024-08-09T08:05:12Z</time>
      </trkpt>
      <trkpt lat="45.06692" lon="6.04368">
        <ele>974</ele>
        <time>2024-08-09T08:05:13Z</time>
      </trkpt>
      <trkpt lat="45.06692" lon="6.04368">
        <ele>974</ele>
        <time>2024-08-09T08:05:14Z</time>
      </trkpt>
      <trkpt lat="45.06694" lon="6.04368">
        <ele>974.4</ele>
        <time>2024-08-09T08:05:15Z</time>
      </trkpt>
      <trkpt lat="45.06694" lon="6.04368">
        <ele>974.6</ele>
        <time>2024-08-09T08:05:16Z</time>
      </trkpt>
      <trkpt lat="45.06696" lon="6.04367">
        <ele>975.2</ele>
        <time>2024-08-09T08:05:17Z</time>
      </trkpt>
      <trkpt lat="45.06696" lon="6.04367">
        <ele>975.2</ele>
        <time>2024-08-09T08:05:18Z</time>
      </trkpt>
      <trkpt lat="45.06699" lon="6.04368">
        <ele>975.2</ele>
        <time>2024-08-09T08:05:19Z</time>
      </trkpt>
      <trkpt lat="45.06699" lon="6.04368">
        <ele>975.6</ele>
        <time>2024-08-09T08:05:20Z</time>
      </trkpt>
      <trkpt lat="45.06701" lon="6.04368">
        <ele>975.8</ele>
        <time>2024-08-09T08:05:21Z</time>
      </trkpt>
      <trkpt lat="45.06701" lon="6.04368">
        <ele>976.2</ele>
        <time>2024-08-09T08:05:22Z</time>
      </trkpt>
      <trkpt lat="45.06701" lon="6.04368">
        <ele>976.4</ele>
        <time>2024-08-09T08:05:23Z</time>
      </trkpt>
      <trkpt lat="45.06702" lon="6.0437">
        <ele>976.4</ele>
        <time>2024-08-09T08:05:24Z</time>
      </trkpt>
      <trkpt lat="45.06702" lon="6.0437">
        <ele>977</ele>
        <time>2024-08-09T08:05:25Z</time>
      </trkpt>
      <trkpt lat="45.06702" lon="6.0437">
        <ele>977.4</ele>
        <time>2024-08-09T08:05:26Z</time>
      </trkpt>
      <trkpt lat="45.06702" lon="6.04373">
        <ele>977.6</ele>
        <time>2024-08-09T08:05:27Z</time>
      </trkpt>
      <trkpt lat="45.06702" lon="6.04373">
        <ele>977.6</ele>
        <time>2024-08-09T08:05:28Z</time>
      </trkpt>
      <trkpt lat="45.06704" lon="6.04375">
        <ele>977.6</ele>
        <time>2024-08-09T08:05:29Z</time>
      </trkpt>
      <trkpt lat="45.06704" lon="6.04375">
        <ele>978.2</ele>
        <time>2024-08-09T08:05:30Z</time>
      </trkpt>
      <trkpt lat="45.06704" lon="6.04375">
        <ele>978.2</ele>
        <time>2024-08-09T08:05:31Z</time>
      </trkpt>
      <trkpt lat="45.06706" lon="6.04376">
        <ele>978.4</ele>
        <time>2024-08-09T08:05:32Z</time>
      </trkpt>
      <trkpt lat="45.06706" lon="6.04376">
        <ele>978.6</ele>
        <time>2024-08-09T08:05:33Z</time>
      </trkpt>
      <trkpt lat="45.06708" lon="6.04376">
        <ele>978.6</ele>
        <time>2024-08-09T08:05:34Z</time>
      </trkpt>
      <trkpt lat="45.06708" lon="6.04376">
        <ele>978.8</ele>
        <time>2024-08-09T08:05:35Z</time>
      </trkpt>
      <trkpt lat="45.06708" lon="6.04376">
        <ele>979.2</ele>
        <time>2024-08-09T08:05:36Z</time>
      </trkpt>
      <trkpt lat="45.0671" lon="6.04378">
        <ele>979.4</ele>
        <time>2024-08-09T08:05:37Z</time>
      </trkpt>
      <trkpt lat="45.0671" lon="6.04378">
        <ele>979.6</ele>
        <time>2024-08-09T08:05:38Z</time>
      </trkpt>
      <trkpt lat="45.0671" lon="6.04378">
        <ele>979.8</ele>
        <time>2024-08-09T08:05:39Z</time>
      </trkpt>
      <trkpt lat="45.0671" lon="6.04378">
        <ele>979.8</ele>
        <time>2024-08-09T08:05:40Z</time>
      </trkpt>
      <trkpt lat="45.0671" lon="6.04378">
        <ele>979.8</ele>
        <time>2024-08-09T08:05:41Z</time>
      </trkpt>
      <trkpt lat="45.0671" lon="6.04378">
        <ele>979.8</ele>
        <time>2024-08-09T08:05:42Z</time>
      </trkpt>
      <trkpt lat="45.0671" lon="6.04378">
        <ele>979.8</ele>
        <time>2024-08-09T08:05:43Z</time>
      </trkpt>
      <trkpt lat="45.0671" lon="6.04378">
        <ele>979.8</ele>
        <time>2024-08-09T08:05:44Z</time>
      </trkpt>
      <trkpt lat="45.0671" lon="6.04378">
        <ele>979.8</ele>
        <time>2024-08-09T08:05:45Z</time>
      </trkpt>
      <trkpt lat="45.0671" lon="6.04378">
        <ele>979.8</ele>
        <time>2024-08-09T08:05:46Z</time>
      </trkpt>
      <trkpt lat="45.06711" lon="6.04381">
        <ele>979.8</ele>
        <time>2024-08-09T08:05:47Z</time>
      </trkpt>
      <trkpt lat="45.06712" lon="6.04383">
        <ele>979.8</ele>
        <time>2024-08-09T08:05:48Z</time>
      </trkpt>
      <trkpt lat="45.06712" lon="6.04383">
        <ele>979.8</ele>
        <time>2024-08-09T08:05:49Z</time>
      </trkpt>
      <trkpt lat="45.06713" lon="6.04388">
        <ele>980</ele>
        <time>2024-08-09T08:05:50Z</time>
      </trkpt>
      <trkpt lat="45.06713" lon="6.04388">
        <ele>980.2</ele>
        <time>2024-08-09T08:05:51Z</time>
      </trkpt>
      <trkpt lat="45.06714" lon="6.04393">
        <ele>980.2</ele>
        <time>2024-08-09T08:05:52Z</time>
      </trkpt>
      <trkpt lat="45.06714" lon="6.04393">
        <ele>980.2</ele>
        <time>2024-08-09T08:05:53Z</time>
      </trkpt>
      <trkpt lat="45.06714" lon="6.04396">
        <ele>980.4</ele>
        <time>2024-08-09T08:05:54Z</time>
      </trkpt>
      <trkpt lat="45.06714" lon="6.04396">
        <ele>980.6</ele>
        <time>2024-08-09T08:05:55Z</time>
      </trkpt>
      <trkpt lat="45.06714" lon="6.044">
        <ele>980.6</ele>
        <time>2024-08-09T08:05:56Z</time>
      </trkpt>
      <trkpt lat="45.06714" lon="6.044">
        <ele>980.6</ele>
        <time>2024-08-09T08:05:57Z</time>
      </trkpt>
      <trkpt lat="45.06716" lon="6.04402">
        <ele>980.4</ele>
        <time>2024-08-09T08:05:58Z</time>
      </trkpt>
      <trkpt lat="45.06716" lon="6.04402">
        <ele>980.4</ele>
        <time>2024-08-09T08:05:59Z</time>
      </trkpt>
      <trkpt lat="45.06718" lon="6.04405">
        <ele>980.4</ele>
        <time>2024-08-09T08:06:00Z</time>
      </trkpt>
      <trkpt lat="45.06718" lon="6.04405">
        <ele>980.4</ele>
        <time>2024-08-09T08:06:01Z</time>
      </trkpt>
      <trkpt lat="45.0672" lon="6.04407">
        <ele>980.4</ele>
        <time>2024-08-09T08:06:02Z</time>
      </trkpt>
      <trkpt lat="45.0672" lon="6.04407">
        <ele>980.4</ele>
        <time>2024-08-09T08:06:03Z</time>
      </trkpt>
      <trkpt lat="45.06723" lon="6.0441">
        <ele>980.6</ele>
        <time>2024-08-09T08:06:04Z</time>
      </trkpt>
      <trkpt lat="45.06723" lon="6.0441">
        <ele>980.6</ele>
        <time>2024-08-09T08:06:05Z</time>
      </trkpt>
      <trkpt lat="45.06725" lon="6.04412">
        <ele>980.8</ele>
        <time>2024-08-09T08:06:06Z</time>
      </trkpt>
      <trkpt lat="45.06725" lon="6.04412">
        <ele>980.6</ele>
        <time>2024-08-09T08:06:07Z</time>
      </trkpt>
      <trkpt lat="45.06725" lon="6.04415">
        <ele>980.6</ele>
        <time>2024-08-09T08:06:08Z</time>
      </trkpt>
      <trkpt lat="45.06725" lon="6.04415">
        <ele>980.6</ele>
        <time>2024-08-09T08:06:09Z</time>
      </trkpt>
      <trkpt lat="45.06727" lon="6.04418">
        <ele>980.8</ele>
        <time>2024-08-09T08:06:10Z</time>
      </trkpt>
      <trkpt lat="45.06727" lon="6.04418">
        <ele>980.8</ele>
        <time>2024-08-09T08:06:11Z</time>
      </trkpt>
      <trkpt lat="45.06728" lon="6.04421">
        <ele>981</ele>
        <time>2024-08-09T08:06:12Z</time>
      </trkpt>
      <trkpt lat="45.06728" lon="6.04421">
        <ele>981</ele>
        <time>2024-08-09T08:06:13Z</time>
      </trkpt>
      <trkpt lat="45.0673" lon="6.04425">
        <ele>981</ele>
        <time>2024-08-09T08:06:14Z</time>
      </trkpt>
      <trkpt lat="45.0673" lon="6.04425">
        <ele>981</ele>
        <time>2024-08-09T08:06:15Z</time>
      </trkpt>
      <trkpt lat="45.06732" lon="6.04428">
        <ele>981</ele>
        <time>2024-08-09T08:06:16Z</time>
      </trkpt>
      <trkpt lat="45.06732" lon="6.04428">
        <ele>980.8</ele>
        <time>2024-08-09T08:06:17Z</time>
      </trkpt>
      <trkpt lat="45.06734" lon="6.04431">
        <ele>980.8</ele>
        <time>2024-08-09T08:06:18Z</time>
      </trkpt>
      <trkpt lat="45.06734" lon="6.04431">
        <ele>980.8</ele>
        <time>2024-08-09T08:06:19Z</time>
      </trkpt>
      <trkpt lat="45.06736" lon="6.04434">
        <ele>980.8</ele>
        <time>2024-08-09T08:06:20Z</time>
      </trkpt>
      <trkpt lat="45.06736" lon="6.04434">
        <ele>980.8</ele>
        <time>2024-08-09T08:06:21Z</time>
      </trkpt>
      <trkpt lat="45.06738" lon="6.04438">
        <ele>980.8</ele>
        <time>2024-08-09T08:06:22Z</time>
      </trkpt>
      <trkpt lat="45.06738" lon="6.04438">
        <ele>980.4</ele>
        <time>2024-08-09T08:06:23Z</time>
      </trkpt>
      <trkpt lat="45.0674" lon="6.04441">
        <ele>980.4</ele>
        <time>2024-08-09T08:06:24Z</time>
      </trkpt>
      <trkpt lat="45.0674" lon="6.04441">
        <ele>980.2</ele>
        <time>2024-08-09T08:06:25Z</time>
      </trkpt>
      <trkpt lat="45.06741" lon="6.04445">
        <ele>980.2</ele>
        <time>2024-08-09T08:06:26Z</time>
      </trkpt>
      <trkpt lat="45.06741" lon="6.04445">
        <ele>980</ele>
        <time>2024-08-09T08:06:27Z</time>
      </trkpt>
      <trkpt lat="45.06742" lon="6.04449">
        <ele>979.8</ele>
        <time>2024-08-09T08:06:28Z</time>
      </trkpt>
      <trkpt lat="45.06742" lon="6.04449">
        <ele>979.8</ele>
        <time>2024-08-09T08:06:29Z</time>
      </trkpt>
      <trkpt lat="45.06744" lon="6.04453">
        <ele>979.6</ele>
        <time>2024-08-09T08:06:30Z</time>
      </trkpt>
      <trkpt lat="45.06744" lon="6.04453">
        <ele>979.6</ele>
        <time>2024-08-09T08:06:31Z</time>
      </trkpt>
      <trkpt lat="45.06746" lon="6.04457">
        <ele>979.6</ele>
        <time>2024-08-09T08:06:32Z</time>
      </trkpt>
      <trkpt lat="45.06746" lon="6.04457">
        <ele>979.2</ele>
        <time>2024-08-09T08:06:33Z</time>
      </trkpt>
      <trkpt lat="45.06747" lon="6.04461">
        <ele>979.2</ele>
        <time>2024-08-09T08:06:34Z</time>
      </trkpt>
      <trkpt lat="45.06747" lon="6.04461">
        <ele>979</ele>
        <time>2024-08-09T08:06:35Z</time>
      </trkpt>
      <trkpt lat="45.06749" lon="6.04464">
        <ele>979</ele>
        <time>2024-08-09T08:06:36Z</time>
      </trkpt>
      <trkpt lat="45.06749" lon="6.04464">
        <ele>978.8</ele>
        <time>2024-08-09T08:06:37Z</time>
      </trkpt>
      <trkpt lat="45.0675" lon="6.04467">
        <ele>978.8</ele>
        <time>2024-08-09T08:06:38Z</time>
      </trkpt>
      <trkpt lat="45.0675" lon="6.04467">
        <ele>978.6</ele>
        <time>2024-08-09T08:06:39Z</time>
      </trkpt>
      <trkpt lat="45.06753" lon="6.0447">
        <ele>978.6</ele>
        <time>2024-08-09T08:06:40Z</time>
      </trkpt>
      <trkpt lat="45.06753" lon="6.0447">
        <ele>978.4</ele>
        <time>2024-08-09T08:06:41Z</time>
      </trkpt>
      <trkpt lat="45.06755" lon="6.04473">
        <ele>978.2</ele>
        <time>2024-08-09T08:06:42Z</time>
      </trkpt>
      <trkpt lat="45.06755" lon="6.04473">
        <ele>978.2</ele>
        <time>2024-08-09T08:06:43Z</time>
      </trkpt>
      <trkpt lat="45.06757" lon="6.04476">
        <ele>978.2</ele>
        <time>2024-08-09T08:06:44Z</time>
      </trkpt>
      <trkpt lat="45.06757" lon="6.04476">
        <ele>978.2</ele>
        <time>2024-08-09T08:06:45Z</time>
      </trkpt>
      <trkpt lat="45.0676" lon="6.04479">
        <ele>978</ele>
        <time>2024-08-09T08:06:46Z</time>
      </trkpt>
      <trkpt lat="45.06761" lon="6.0448">
        <ele>978</ele>
        <time>2024-08-09T08:06:47Z</time>
      </trkpt>
      <trkpt lat="45.06761" lon="6.0448">
        <ele>978</ele>
        <time>2024-08-09T08:06:48Z</time>
      </trkpt>
      <trkpt lat="45.06764" lon="6.04482">
        <ele>978</ele>
        <time>2024-08-09T08:06:49Z</time>
      </trkpt>
      <trkpt lat="45.06764" lon="6.04482">
        <ele>978</ele>
        <time>2024-08-09T08:06:50Z</time>
      </trkpt>
      <trkpt lat="45.06766" lon="6.04484">
        <ele>978</ele>
        <time>2024-08-09T08:06:51Z</time>
      </trkpt>
      <trkpt lat="45.06766" lon="6.04484">
        <ele>978</ele>
        <time>2024-08-09T08:06:52Z</time>
      </trkpt>
      <trkpt lat="45.06769" lon="6.04484">
        <ele>977.6</ele>
        <time>2024-08-09T08:06:53Z</time>
      </trkpt>
      <trkpt lat="45.06771" lon="6.04485">
        <ele>977.6</ele>
        <time>2024-08-09T08:06:54Z</time>
      </trkpt>
      <trkpt lat="45.06773" lon="6.04485">
        <ele>977.6</ele>
        <time>2024-08-09T08:06:55Z</time>
      </trkpt>
      <trkpt lat="45.06773" lon="6.04485">
        <ele>977.6</ele>
        <time>2024-08-09T08:06:56Z</time>
      </trkpt>
      <trkpt lat="45.06776" lon="6.04486">
        <ele>977.4</ele>
        <time>2024-08-09T08:06:57Z</time>
      </trkpt>
      <trkpt lat="45.06776" lon="6.04486">
        <ele>977.4</ele>
        <time>2024-08-09T08:06:58Z</time>
      </trkpt>
      <trkpt lat="45.06779" lon="6.04487">
        <ele>977.4</ele>
        <time>2024-08-09T08:06:59Z</time>
      </trkpt>
      <trkpt lat="45.06781" lon="6.04487">
        <ele>977.2</ele>
        <time>2024-08-09T08:07:00Z</time>
      </trkpt>
      <trkpt lat="45.06781" lon="6.04487">
        <ele>977.2</ele>
        <time>2024-08-09T08:07:01Z</time>
      </trkpt>
      <trkpt lat="45.06782" lon="6.04488">
        <ele>977</ele>
        <time>2024-08-09T08:07:02Z</time>
      </trkpt>
      <trkpt lat="45.06783" lon="6.04488">
        <ele>977</ele>
        <time>2024-08-09T08:07:03Z</time>
      </trkpt>
      <trkpt lat="45.06786" lon="6.04489">
        <ele>977.2</ele>
        <time>2024-08-09T08:07:04Z</time>
      </trkpt>
      <trkpt lat="45.06786" lon="6.04489">
        <ele>977.2</ele>
        <time>2024-08-09T08:07:05Z</time>
      </trkpt>
      <trkpt lat="45.06788" lon="6.04491">
        <ele>977</ele>
        <time>2024-08-09T08:07:06Z</time>
      </trkpt>
      <trkpt lat="45.06788" lon="6.04491">
        <ele>976.8</ele>
        <time>2024-08-09T08:07:07Z</time>
      </trkpt>
      <trkpt lat="45.06791" lon="6.04491">
        <ele>976.8</ele>
        <time>2024-08-09T08:07:08Z</time>
      </trkpt>
      <trkpt lat="45.06791" lon="6.04491">
        <ele>976.6</ele>
        <time>2024-08-09T08:07:09Z</time>
      </trkpt>
      <trkpt lat="45.06794" lon="6.04493">
        <ele>976.6</ele>
        <time>2024-08-09T08:07:10Z</time>
      </trkpt>
      <trkpt lat="45.06794" lon="6.04493">
        <ele>976.6</ele>
        <time>2024-08-09T08:07:11Z</time>
      </trkpt>
      <trkpt lat="45.06795" lon="6.04495">
        <ele>976.6</ele>
        <time>2024-08-09T08:07:12Z</time>
      </trkpt>
      <trkpt lat="45.06797" lon="6.04495">
        <ele>977</ele>
        <time>2024-08-09T08:07:13Z</time>
      </trkpt>
      <trkpt lat="45.06797" lon="6.04495">
        <ele>977</ele>
        <time>2024-08-09T08:07:14Z</time>
      </trkpt>
      <trkpt lat="45.06799" lon="6.04496">
        <ele>976.6</ele>
        <time>2024-08-09T08:07:15Z</time>
      </trkpt>
      <trkpt lat="45.06799" lon="6.04496">
        <ele>976.6</ele>
        <time>2024-08-09T08:07:16Z</time>
      </trkpt>
      <trkpt lat="45.06802" lon="6.04498">
        <ele>976.6</ele>
        <time>2024-08-09T08:07:17Z</time>
      </trkpt>
      <trkpt lat="45.06802" lon="6.04498">
        <ele>976.6</ele>
        <time>2024-08-09T08:07:18Z</time>
      </trkpt>
      <trkpt lat="45.06805" lon="6.04501">
        <ele>976.4</ele>
        <time>2024-08-09T08:07:19Z</time>
      </trkpt>
      <trkpt lat="45.06807" lon="6.04502">
        <ele>976.4</ele>
        <time>2024-08-09T08:07:20Z</time>
      </trkpt>
      <trkpt lat="45.06809" lon="6.04504">
        <ele>976.6</ele>
        <time>2024-08-09T08:07:21Z</time>
      </trkpt>
      <trkpt lat="45.06811" lon="6.04505">
        <ele>976.6</ele>
        <time>2024-08-09T08:07:22Z</time>
      </trkpt>
      <trkpt lat="45.06811" lon="6.04505">
        <ele>976.2</ele>
        <time>2024-08-09T08:07:23Z</time>
      </trkpt>
      <trkpt lat="45.06806" lon="6.04511">
        <ele>976.2</ele>
        <time>2024-08-09T08:07:24Z</time>
      </trkpt>
      <trkpt lat="45.06805" lon="6.04512">
        <ele>976</ele>
        <time>2024-08-09T08:07:25Z</time>
      </trkpt>
      <trkpt lat="45.06803" lon="6.04514">
        <ele>975.8</ele>
        <time>2024-08-09T08:07:26Z</time>
      </trkpt>
      <trkpt lat="45.06805" lon="6.04516">
        <ele>975.6</ele>
        <time>2024-08-09T08:07:27Z</time>
      </trkpt>
      <trkpt lat="45.06805" lon="6.04516">
        <ele>975.6</ele>
        <time>2024-08-09T08:07:28Z</time>
      </trkpt>
      <trkpt lat="45.06807" lon="6.04519">
        <ele>975.6</ele>
        <time>2024-08-09T08:07:29Z</time>
      </trkpt>
      <trkpt lat="45.06807" lon="6.04519">
        <ele>975.6</ele>
        <time>2024-08-09T08:07:30Z</time>
      </trkpt>
      <trkpt lat="45.06809" lon="6.04523">
        <ele>975.6</ele>
        <time>2024-08-09T08:07:31Z</time>
      </trkpt>
      <trkpt lat="45.06809" lon="6.04523">
        <ele>975.6</ele>
        <time>2024-08-09T08:07:32Z</time>
      </trkpt>
      <trkpt lat="45.06812" lon="6.04526">
        <ele>975.6</ele>
        <time>2024-08-09T08:07:33Z</time>
      </trkpt>
      <trkpt lat="45.06812" lon="6.04526">
        <ele>975.6</ele>
        <time>2024-08-09T08:07:34Z</time>
      </trkpt>
      <trkpt lat="45.06814" lon="6.04529">
        <ele>975.6</ele>
        <time>2024-08-09T08:07:35Z</time>
      </trkpt>
      <trkpt lat="45.06814" lon="6.04529">
        <ele>975.6</ele>
        <time>2024-08-09T08:07:36Z</time>
      </trkpt>
      <trkpt lat="45.06814" lon="6.04533">
        <ele>975.2</ele>
        <time>2024-08-09T08:07:37Z</time>
      </trkpt>
      <trkpt lat="45.06814" lon="6.04533">
        <ele>975.2</ele>
        <time>2024-08-09T08:07:38Z</time>
      </trkpt>
      <trkpt lat="45.06815" lon="6.04537">
        <ele>975.2</ele>
        <time>2024-08-09T08:07:39Z</time>
      </trkpt>
      <trkpt lat="45.06815" lon="6.04537">
        <ele>975.2</ele>
        <time>2024-08-09T08:07:40Z</time>
      </trkpt>
      <trkpt lat="45.06815" lon="6.04541">
        <ele>975</ele>
        <time>2024-08-09T08:07:41Z</time>
      </trkpt>
      <trkpt lat="45.06815" lon="6.04541">
        <ele>975</ele>
        <time>2024-08-09T08:07:42Z</time>
      </trkpt>
      <trkpt lat="45.06816" lon="6.04544">
        <ele>975</ele>
        <time>2024-08-09T08:07:43Z</time>
      </trkpt>
      <trkpt lat="45.06818" lon="6.04545">
        <ele>975</ele>
        <time>2024-08-09T08:07:44Z</time>
      </trkpt>
      <trkpt lat="45.0682" lon="6.04547">
        <ele>975</ele>
        <time>2024-08-09T08:07:45Z</time>
      </trkpt>
      <trkpt lat="45.06821" lon="6.04549">
        <ele>975</ele>
        <time>2024-08-09T08:07:46Z</time>
      </trkpt>
      <trkpt lat="45.06822" lon="6.0455">
        <ele>975</ele>
        <time>2024-08-09T08:07:47Z</time>
      </trkpt>
      <trkpt lat="45.06823" lon="6.04552">
        <ele>975</ele>
        <time>2024-08-09T08:07:48Z</time>
      </trkpt>
      <trkpt lat="45.06825" lon="6.04554">
        <ele>975</ele>
        <time>2024-08-09T08:07:49Z</time>
      </trkpt>
      <trkpt lat="45.06827" lon="6.04556">
        <ele>975.2</ele>
        <time>2024-08-09T08:07:50Z</time>
      </trkpt>
      <trkpt lat="45.06828" lon="6.04557">
        <ele>975.2</ele>
        <time>2024-08-09T08:07:51Z</time>
      </trkpt>
      <trkpt lat="45.06828" lon="6.04557">
        <ele>975.2</ele>
        <time>2024-08-09T08:07:52Z</time>
      </trkpt>
      <trkpt lat="45.0683" lon="6.0456">
        <ele>975.2</ele>
        <time>2024-08-09T08:07:53Z</time>
      </trkpt>
      <trkpt lat="45.0683" lon="6.0456">
        <ele>975.2</ele>
        <time>2024-08-09T08:07:54Z</time>
      </trkpt>
      <trkpt lat="45.06833" lon="6.04564">
        <ele>975</ele>
        <time>2024-08-09T08:07:55Z</time>
      </trkpt>
      <trkpt lat="45.06833" lon="6.04564">
        <ele>974.8</ele>
        <time>2024-08-09T08:07:56Z</time>
      </trkpt>
      <trkpt lat="45.06835" lon="6.04567">
        <ele>974.8</ele>
        <time>2024-08-09T08:07:57Z</time>
      </trkpt>
      <trkpt lat="45.06835" lon="6.04567">
        <ele>974.8</ele>
        <time>2024-08-09T08:07:58Z</time>
      </trkpt>
      <trkpt lat="45.06838" lon="6.0457">
        <ele>974.6</ele>
        <time>2024-08-09T08:07:59Z</time>
      </trkpt>
      <trkpt lat="45.06839" lon="6.04571">
        <ele>974.6</ele>
        <time>2024-08-09T08:08:00Z</time>
      </trkpt>
      <trkpt lat="45.06839" lon="6.04571">
        <ele>974.4</ele>
        <time>2024-08-09T08:08:01Z</time>
      </trkpt>
      <trkpt lat="45.06839" lon="6.04574">
        <ele>974.6</ele>
        <time>2024-08-09T08:08:02Z</time>
      </trkpt>
      <trkpt lat="45.06839" lon="6.04574">
        <ele>974.6</ele>
        <time>2024-08-09T08:08:03Z</time>
      </trkpt>
      <trkpt lat="45.06841" lon="6.04577">
        <ele>974.4</ele>
        <time>2024-08-09T08:08:04Z</time>
      </trkpt>
      <trkpt lat="45.06843" lon="6.04578">
        <ele>974.4</ele>
        <time>2024-08-09T08:08:05Z</time>
      </trkpt>
      <trkpt lat="45.06845" lon="6.0458">
        <ele>974.4</ele>
        <time>2024-08-09T08:08:06Z</time>
      </trkpt>
      <trkpt lat="45.06845" lon="6.0458">
        <ele>974.4</ele>
        <time>2024-08-09T08:08:07Z</time>
      </trkpt>
      <trkpt lat="45.06847" lon="6.04582">
        <ele>974.4</ele>
        <time>2024-08-09T08:08:08Z</time>
      </trkpt>
      <trkpt lat="45.06849" lon="6.04583">
        <ele>974.4</ele>
        <time>2024-08-09T08:08:09Z</time>
      </trkpt>
      <trkpt lat="45.06851" lon="6.04584">
        <ele>974.4</ele>
        <time>2024-08-09T08:08:10Z</time>
      </trkpt>
      <trkpt lat="45.06853" lon="6.04585">
        <ele>974.4</ele>
        <time>2024-08-09T08:08:11Z</time>
      </trkpt>
      <trkpt lat="45.06855" lon="6.04586">
        <ele>974.6</ele>
        <time>2024-08-09T08:08:12Z</time>
      </trkpt>
      <trkpt lat="45.06857" lon="6.04587">
        <ele>974.6</ele>
        <time>2024-08-09T08:08:13Z</time>
      </trkpt>
      <trkpt lat="45.06859" lon="6.04588">
        <ele>974.6</ele>
        <time>2024-08-09T08:08:14Z</time>
      </trkpt>
      <trkpt lat="45.06863" lon="6.0459">
        <ele>974.4</ele>
        <time>2024-08-09T08:08:15Z</time>
      </trkpt>
      <trkpt lat="45.06864" lon="6.0459">
        <ele>974.6</ele>
        <time>2024-08-09T08:08:16Z</time>
      </trkpt>
      <trkpt lat="45.06867" lon="6.0459">
        <ele>974.6</ele>
        <time>2024-08-09T08:08:17Z</time>
      </trkpt>
      <trkpt lat="45.06867" lon="6.0459">
        <ele>974.6</ele>
        <time>2024-08-09T08:08:18Z</time>
      </trkpt>
      <trkpt lat="45.0687" lon="6.04593">
        <ele>974.6</ele>
        <time>2024-08-09T08:08:19Z</time>
      </trkpt>
      <trkpt lat="45.0687" lon="6.04593">
        <ele>974.6</ele>
        <time>2024-08-09T08:08:20Z</time>
      </trkpt>
      <trkpt lat="45.06873" lon="6.04595">
        <ele>974.8</ele>
        <time>2024-08-09T08:08:21Z</time>
      </trkpt>
      <trkpt lat="45.06875" lon="6.04596">
        <ele>975</ele>
        <time>2024-08-09T08:08:22Z</time>
      </trkpt>
      <trkpt lat="45.06875" lon="6.04596">
        <ele>975</ele>
        <time>2024-08-09T08:08:23Z</time>
      </trkpt>
      <trkpt lat="45.06877" lon="6.04598">
        <ele>975</ele>
        <time>2024-08-09T08:08:24Z</time>
      </trkpt>
      <trkpt lat="45.06877" lon="6.04598">
        <ele>975</ele>
        <time>2024-08-09T08:08:25Z</time>
      </trkpt>
      <trkpt lat="45.06878" lon="6.046">
        <ele>975</ele>
        <time>2024-08-09T08:08:26Z</time>
      </trkpt>
      <trkpt lat="45.06878" lon="6.046">
        <ele>975</ele>
        <time>2024-08-09T08:08:27Z</time>
      </trkpt>
      <trkpt lat="45.0688" lon="6.04602">
        <ele>975.2</ele>
        <time>2024-08-09T08:08:28Z</time>
      </trkpt>
      <trkpt lat="45.0688" lon="6.04602">
        <ele>975</ele>
        <time>2024-08-09T08:08:29Z</time>
      </trkpt>
      <trkpt lat="45.06883" lon="6.04603">
        <ele>975</ele>
        <time>2024-08-09T08:08:30Z</time>
      </trkpt>
      <trkpt lat="45.06883" lon="6.04603">
        <ele>974.6</ele>
        <time>2024-08-09T08:08:31Z</time>
      </trkpt>
      <trkpt lat="45.06886" lon="6.04605">
        <ele>974.6</ele>
        <time>2024-08-09T08:08:32Z</time>
      </trkpt>
      <trkpt lat="45.06886" lon="6.04605">
        <ele>974.6</ele>
        <time>2024-08-09T08:08:33Z</time>
      </trkpt>
      <trkpt lat="45.06889" lon="6.04607">
        <ele>974.8</ele>
        <time>2024-08-09T08:08:34Z</time>
      </trkpt>
      <trkpt lat="45.06891" lon="6.04608">
        <ele>974.8</ele>
        <time>2024-08-09T08:08:35Z</time>
      </trkpt>
      <trkpt lat="45.06891" lon="6.04608">
        <ele>974.8</ele>
        <time>2024-08-09T08:08:36Z</time>
      </trkpt>
      <trkpt lat="45.06893" lon="6.04611">
        <ele>974.6</ele>
        <time>2024-08-09T08:08:37Z</time>
      </trkpt>
      <trkpt lat="45.06893" lon="6.04611">
        <ele>974.4</ele>
        <time>2024-08-09T08:08:38Z</time>
      </trkpt>
      <trkpt lat="45.06894" lon="6.04614">
        <ele>974.4</ele>
        <time>2024-08-09T08:08:39Z</time>
      </trkpt>
      <trkpt lat="45.06894" lon="6.04614">
        <ele>974.4</ele>
        <time>2024-08-09T08:08:40Z</time>
      </trkpt>
      <trkpt lat="45.06897" lon="6.04617">
        <ele>974.2</ele>
        <time>2024-08-09T08:08:41Z</time>
      </trkpt>
      <trkpt lat="45.06897" lon="6.04617">
        <ele>974.2</ele>
        <time>2024-08-09T08:08:42Z</time>
      </trkpt>
      <trkpt lat="45.069" lon="6.04619">
        <ele>974.2</ele>
        <time>2024-08-09T08:08:43Z</time>
      </trkpt>
      <trkpt lat="45.069" lon="6.04619">
        <ele>974</ele>
        <time>2024-08-09T08:08:44Z</time>
      </trkpt>
      <trkpt lat="45.06903" lon="6.04619">
        <ele>974</ele>
        <time>2024-08-09T08:08:45Z</time>
      </trkpt>
      <trkpt lat="45.06905" lon="6.0462">
        <ele>974.2</ele>
        <time>2024-08-09T08:08:46Z</time>
      </trkpt>
      <trkpt lat="45.06905" lon="6.0462">
        <ele>974.2</ele>
        <time>2024-08-09T08:08:47Z</time>
      </trkpt>
      <trkpt lat="45.06909" lon="6.0462">
        <ele>974.2</ele>
        <time>2024-08-09T08:08:48Z</time>
      </trkpt>
      <trkpt lat="45.0691" lon="6.04621">
        <ele>974.2</ele>
        <time>2024-08-09T08:08:49Z</time>
      </trkpt>
      <trkpt lat="45.06912" lon="6.04621">
        <ele>974.2</ele>
        <time>2024-08-09T08:08:50Z</time>
      </trkpt>
      <trkpt lat="45.06912" lon="6.04621">
        <ele>974.2</ele>
        <time>2024-08-09T08:08:51Z</time>
      </trkpt>
      <trkpt lat="45.06916" lon="6.04622">
        <ele>974.2</ele>
        <time>2024-08-09T08:08:52Z</time>
      </trkpt>
      <trkpt lat="45.06916" lon="6.04622">
        <ele>974</ele>
        <time>2024-08-09T08:08:53Z</time>
      </trkpt>
      <trkpt lat="45.06918" lon="6.04623">
        <ele>974</ele>
        <time>2024-08-09T08:08:54Z</time>
      </trkpt>
      <trkpt lat="45.06918" lon="6.04623">
        <ele>974</ele>
        <time>2024-08-09T08:08:55Z</time>
      </trkpt>
      <trkpt lat="45.06921" lon="6.04624">
        <ele>974</ele>
        <time>2024-08-09T08:08:56Z</time>
      </trkpt>
      <trkpt lat="45.06921" lon="6.04624">
        <ele>974</ele>
        <time>2024-08-09T08:08:57Z</time>
      </trkpt>
      <trkpt lat="45.06924" lon="6.04626">
        <ele>974</ele>
        <time>2024-08-09T08:08:58Z</time>
      </trkpt>
      <trkpt lat="45.06924" lon="6.04626">
        <ele>974</ele>
        <time>2024-08-09T08:08:59Z</time>
      </trkpt>
      <trkpt lat="45.06925" lon="6.04628">
        <ele>973.8</ele>
        <time>2024-08-09T08:09:00Z</time>
      </trkpt>
      <trkpt lat="45.06925" lon="6.04628">
        <ele>973.8</ele>
        <time>2024-08-09T08:09:01Z</time>
      </trkpt>
      <trkpt lat="45.06928" lon="6.04631">
        <ele>973.6</ele>
        <time>2024-08-09T08:09:02Z</time>
      </trkpt>
      <trkpt lat="45.06928" lon="6.04631">
        <ele>973.6</ele>
        <time>2024-08-09T08:09:03Z</time>
      </trkpt>
      <trkpt lat="45.0693" lon="6.04634">
        <ele>973.4</ele>
        <time>2024-08-09T08:09:04Z</time>
      </trkpt>
      <trkpt lat="45.0693" lon="6.04634">
        <ele>973.2</ele>
        <time>2024-08-09T08:09:05Z</time>
      </trkpt>
      <trkpt lat="45.06932" lon="6.04637">
        <ele>973</ele>
        <time>2024-08-09T08:09:06Z</time>
      </trkpt>
      <trkpt lat="45.06932" lon="6.04637">
        <ele>973.2</ele>
        <time>2024-08-09T08:09:07Z</time>
      </trkpt>
      <trkpt lat="45.06935" lon="6.04639">
        <ele>973</ele>
        <time>2024-08-09T08:09:08Z</time>
      </trkpt>
      <trkpt lat="45.06935" lon="6.04639">
        <ele>972.8</ele>
        <time>2024-08-09T08:09:09Z</time>
      </trkpt>
      <trkpt lat="45.06937" lon="6.04642">
        <ele>972.8</ele>
        <time>2024-08-09T08:09:10Z</time>
      </trkpt>
      <trkpt lat="45.06937" lon="6.04642">
        <ele>972.8</ele>
        <time>2024-08-09T08:09:11Z</time>
      </trkpt>
      <trkpt lat="45.06941" lon="6.04642">
        <ele>972.6</ele>
        <time>2024-08-09T08:09:12Z</time>
      </trkpt>
      <trkpt lat="45.06941" lon="6.04642">
        <ele>972.6</ele>
        <time>2024-08-09T08:09:13Z</time>
      </trkpt>
      <trkpt lat="45.06943" lon="6.04643">
        <ele>972.8</ele>
        <time>2024-08-09T08:09:14Z</time>
      </trkpt>
      <trkpt lat="45.06943" lon="6.04643">
        <ele>973</ele>
        <time>2024-08-09T08:09:15Z</time>
      </trkpt>
      <trkpt lat="45.06946" lon="6.04645">
        <ele>973</ele>
        <time>2024-08-09T08:09:16Z</time>
      </trkpt>
      <trkpt lat="45.06948" lon="6.04647">
        <ele>973</ele>
        <time>2024-08-09T08:09:17Z</time>
      </trkpt>
      <trkpt lat="45.0695" lon="6.04648">
        <ele>972.8</ele>
        <time>2024-08-09T08:09:18Z</time>
      </trkpt>
      <trkpt lat="45.0695" lon="6.04648">
        <ele>972.6</ele>
        <time>2024-08-09T08:09:19Z</time>
      </trkpt>
      <trkpt lat="45.06953" lon="6.0465">
        <ele>972.6</ele>
        <time>2024-08-09T08:09:20Z</time>
      </trkpt>
      <trkpt lat="45.06954" lon="6.04651">
        <ele>972.6</ele>
        <time>2024-08-09T08:09:21Z</time>
      </trkpt>
      <trkpt lat="45.06957" lon="6.04653">
        <ele>972.8</ele>
        <time>2024-08-09T08:09:22Z</time>
      </trkpt>
      <trkpt lat="45.06958" lon="6.04655">
        <ele>972.8</ele>
        <time>2024-08-09T08:09:23Z</time>
      </trkpt>
      <trkpt lat="45.06957" lon="6.04657">
        <ele>972.8</ele>
        <time>2024-08-09T08:09:24Z</time>
      </trkpt>
      <trkpt lat="45.06955" lon="6.0466">
        <ele>972.6</ele>
        <time>2024-08-09T08:09:25Z</time>
      </trkpt>
      <trkpt lat="45.06956" lon="6.04662">
        <ele>972.4</ele>
        <time>2024-08-09T08:09:26Z</time>
      </trkpt>
      <trkpt lat="45.06957" lon="6.04664">
        <ele>972.6</ele>
        <time>2024-08-09T08:09:27Z</time>
      </trkpt>
      <trkpt lat="45.06958" lon="6.04665">
        <ele>972.6</ele>
        <time>2024-08-09T08:09:28Z</time>
      </trkpt>
      <trkpt lat="45.06958" lon="6.04665">
        <ele>972.6</ele>
        <time>2024-08-09T08:09:29Z</time>
      </trkpt>
      <trkpt lat="45.0696" lon="6.04669">
        <ele>972.6</ele>
        <time>2024-08-09T08:09:30Z</time>
      </trkpt>
      <trkpt lat="45.06962" lon="6.0467">
        <ele>972.6</ele>
        <time>2024-08-09T08:09:31Z</time>
      </trkpt>
      <trkpt lat="45.06962" lon="6.0467">
        <ele>973</ele>
        <time>2024-08-09T08:09:32Z</time>
      </trkpt>
      <trkpt lat="45.06964" lon="6.04673">
        <ele>973</ele>
        <time>2024-08-09T08:09:33Z</time>
      </trkpt>
      <trkpt lat="45.06963" lon="6.04675">
        <ele>973</ele>
        <time>2024-08-09T08:09:34Z</time>
      </trkpt>
      <trkpt lat="45.06963" lon="6.04678">
        <ele>972.8</ele>
        <time>2024-08-09T08:09:35Z</time>
      </trkpt>
      <trkpt lat="45.06963" lon="6.04678">
        <ele>973</ele>
        <time>2024-08-09T08:09:36Z</time>
      </trkpt>
      <trkpt lat="45.06966" lon="6.04681">
        <ele>973</ele>
        <time>2024-08-09T08:09:37Z</time>
      </trkpt>
      <trkpt lat="45.06966" lon="6.04681">
        <ele>973.2</ele>
        <time>2024-08-09T08:09:38Z</time>
      </trkpt>
      <trkpt lat="45.06968" lon="6.04685">
        <ele>973.2</ele>
        <time>2024-08-09T08:09:39Z</time>
      </trkpt>
      <trkpt lat="45.06968" lon="6.04685">
        <ele>973.2</ele>
        <time>2024-08-09T08:09:40Z</time>
      </trkpt>
      <trkpt lat="45.06971" lon="6.04688">
        <ele>973.2</ele>
        <time>2024-08-09T08:09:41Z</time>
      </trkpt>
      <trkpt lat="45.06972" lon="6.04689">
        <ele>973.8</ele>
        <time>2024-08-09T08:09:42Z</time>
      </trkpt>
      <trkpt lat="45.06974" lon="6.04691">
        <ele>974</ele>
        <time>2024-08-09T08:09:43Z</time>
      </trkpt>
      <trkpt lat="45.06974" lon="6.04691">
        <ele>974</ele>
        <time>2024-08-09T08:09:44Z</time>
      </trkpt>
      <trkpt lat="45.06975" lon="6.04694">
        <ele>973.8</ele>
        <time>2024-08-09T08:09:45Z</time>
      </trkpt>
      <trkpt lat="45.06976" lon="6.04696">
        <ele>973.8</ele>
        <time>2024-08-09T08:09:46Z</time>
      </trkpt>
      <trkpt lat="45.06976" lon="6.04696">
        <ele>973.6</ele>
        <time>2024-08-09T08:09:47Z</time>
      </trkpt>
      <trkpt lat="45.06978" lon="6.047">
        <ele>973.6</ele>
        <time>2024-08-09T08:09:48Z</time>
      </trkpt>
      <trkpt lat="45.06978" lon="6.047">
        <ele>973.6</ele>
        <time>2024-08-09T08:09:49Z</time>
      </trkpt>
      <trkpt lat="45.0698" lon="6.04704">
        <ele>973.6</ele>
        <time>2024-08-09T08:09:50Z</time>
      </trkpt>
      <trkpt lat="45.0698" lon="6.04704">
        <ele>973.8</ele>
        <time>2024-08-09T08:09:51Z</time>
      </trkpt>
      <trkpt lat="45.06981" lon="6.04707">
        <ele>973.8</ele>
        <time>2024-08-09T08:09:52Z</time>
      </trkpt>
      <trkpt lat="45.06981" lon="6.04707">
        <ele>973.8</ele>
        <time>2024-08-09T08:09:53Z</time>
      </trkpt>
      <trkpt lat="45.06983" lon="6.04711">
        <ele>973.8</ele>
        <time>2024-08-09T08:09:54Z</time>
      </trkpt>
      <trkpt lat="45.06983" lon="6.04711">
        <ele>973.8</ele>
        <time>2024-08-09T08:09:55Z</time>
      </trkpt>
      <trkpt lat="45.06984" lon="6.04713">
        <ele>973.8</ele>
        <time>2024-08-09T08:09:56Z</time>
      </trkpt>
      <trkpt lat="45.06984" lon="6.04713">
        <ele>973.8</ele>
        <time>2024-08-09T08:09:57Z</time>
      </trkpt>
      <trkpt lat="45.06984" lon="6.04713">
        <ele>973.6</ele>
        <time>2024-08-09T08:09:58Z</time>
      </trkpt>
      <trkpt lat="45.06984" lon="6.04713">
        <ele>973.4</ele>
        <time>2024-08-09T08:09:59Z</time>
      </trkpt>
      <trkpt lat="45.06986" lon="6.04716">
        <ele>973.4</ele>
        <time>2024-08-09T08:10:01Z</time>
      </trkpt>
      <trkpt lat="45.06986" lon="6.04716">
        <ele>973.6</ele>
        <time>2024-08-09T08:10:02Z</time>
      </trkpt>
      <trkpt lat="45.06987" lon="6.0472">
        <ele>973.6</ele>
        <time>2024-08-09T08:10:03Z</time>
      </trkpt>
      <trkpt lat="45.06988" lon="6.04722">
        <ele>973.6</ele>
        <time>2024-08-09T08:10:04Z</time>
      </trkpt>
      <trkpt lat="45.06988" lon="6.04722">
        <ele>973.4</ele>
        <time>2024-08-09T08:10:05Z</time>
      </trkpt>
      <trkpt lat="45.06989" lon="6.04726">
        <ele>973.4</ele>
        <time>2024-08-09T08:10:06Z</time>
      </trkpt>
      <trkpt lat="45.06989" lon="6.04726">
        <ele>973.4</ele>
        <time>2024-08-09T08:10:07Z</time>
      </trkpt>
      <trkpt lat="45.06991" lon="6.0473">
        <ele>973.6</ele>
        <time>2024-08-09T08:10:08Z</time>
      </trkpt>
      <trkpt lat="45.06992" lon="6.04732">
        <ele>973.8</ele>
        <time>2024-08-09T08:10:09Z</time>
      </trkpt>
      <trkpt lat="45.06992" lon="6.04732">
        <ele>973.8</ele>
        <time>2024-08-09T08:10:10Z</time>
      </trkpt>
      <trkpt lat="45.06994" lon="6.04736">
        <ele>973.6</ele>
        <time>2024-08-09T08:10:11Z</time>
      </trkpt>
      <trkpt lat="45.06994" lon="6.04736">
        <ele>973.4</ele>
        <time>2024-08-09T08:10:12Z</time>
      </trkpt>
      <trkpt lat="45.06991" lon="6.04741">
        <ele>973.4</ele>
        <time>2024-08-09T08:10:13Z</time>
      </trkpt>
      <trkpt lat="45.06989" lon="6.04743">
        <ele>973.6</ele>
        <time>2024-08-09T08:10:14Z</time>
      </trkpt>
      <trkpt lat="45.06989" lon="6.04745">
        <ele>973.8</ele>
        <time>2024-08-09T08:10:15Z</time>
      </trkpt>
      <trkpt lat="45.06988" lon="6.04748">
        <ele>973.8</ele>
        <time>2024-08-09T08:10:16Z</time>
      </trkpt>
      <trkpt lat="45.06988" lon="6.04748">
        <ele>973.6</ele>
        <time>2024-08-09T08:10:17Z</time>
      </trkpt>
      <trkpt lat="45.06989" lon="6.04752">
        <ele>973.6</ele>
        <time>2024-08-09T08:10:18Z</time>
      </trkpt>
      <trkpt lat="45.06989" lon="6.04752">
        <ele>973.8</ele>
        <time>2024-08-09T08:10:19Z</time>
      </trkpt>
      <trkpt lat="45.06991" lon="6.04755">
        <ele>973.8</ele>
        <time>2024-08-09T08:10:20Z</time>
      </trkpt>
      <trkpt lat="45.06991" lon="6.04755">
        <ele>974</ele>
        <time>2024-08-09T08:10:21Z</time>
      </trkpt>
      <trkpt lat="45.06993" lon="6.04758">
        <ele>974</ele>
        <time>2024-08-09T08:10:22Z</time>
      </trkpt>
      <trkpt lat="45.06994" lon="6.0476">
        <ele>973.8</ele>
        <time>2024-08-09T08:10:23Z</time>
      </trkpt>
      <trkpt lat="45.06996" lon="6.04762">
        <ele>973.8</ele>
        <time>2024-08-09T08:10:24Z</time>
      </trkpt>
      <trkpt lat="45.06997" lon="6.04764">
        <ele>973.8</ele>
        <time>2024-08-09T08:10:25Z</time>
      </trkpt>
      <trkpt lat="45.06997" lon="6.04764">
        <ele>973.8</ele>
        <time>2024-08-09T08:10:26Z</time>
      </trkpt>
      <trkpt lat="45.07" lon="6.04767">
        <ele>973.8</ele>
        <time>2024-08-09T08:10:27Z</time>
      </trkpt>
      <trkpt lat="45.07" lon="6.04767">
        <ele>974</ele>
        <time>2024-08-09T08:10:28Z</time>
      </trkpt>
      <trkpt lat="45.07" lon="6.04771">
        <ele>974</ele>
        <time>2024-08-09T08:10:29Z</time>
      </trkpt>
      <trkpt lat="45.07" lon="6.04771">
        <ele>974</ele>
        <time>2024-08-09T08:10:30Z</time>
      </trkpt>
      <trkpt lat="45.06999" lon="6.04776">
        <ele>973.8</ele>
        <time>2024-08-09T08:10:31Z</time>
      </trkpt>
      <trkpt lat="45.06998" lon="6.04778">
        <ele>974</ele>
        <time>2024-08-09T08:10:32Z</time>
      </trkpt>
      <trkpt lat="45.06998" lon="6.04778">
        <ele>973.8</ele>
        <time>2024-08-09T08:10:33Z</time>
      </trkpt>
      <trkpt lat="45.06999" lon="6.04782">
        <ele>974</ele>
        <time>2024-08-09T08:10:34Z</time>
      </trkpt>
      <trkpt lat="45.06999" lon="6.04782">
        <ele>974</ele>
        <time>2024-08-09T08:10:35Z</time>
      </trkpt>
      <trkpt lat="45.07" lon="6.04786">
        <ele>974.4</ele>
        <time>2024-08-09T08:10:36Z</time>
      </trkpt>
      <trkpt lat="45.07" lon="6.04786">
        <ele>974.4</ele>
        <time>2024-08-09T08:10:37Z</time>
      </trkpt>
      <trkpt lat="45.07002" lon="6.0479">
        <ele>974.4</ele>
        <time>2024-08-09T08:10:38Z</time>
      </trkpt>
      <trkpt lat="45.07002" lon="6.0479">
        <ele>974.2</ele>
        <time>2024-08-09T08:10:39Z</time>
      </trkpt>
      <trkpt lat="45.07004" lon="6.04794">
        <ele>974.2</ele>
        <time>2024-08-09T08:10:40Z</time>
      </trkpt>
      <trkpt lat="45.07004" lon="6.04794">
        <ele>974</ele>
        <time>2024-08-09T08:10:41Z</time>
      </trkpt>
      <trkpt lat="45.07006" lon="6.04798">
        <ele>974</ele>
        <time>2024-08-09T08:10:42Z</time>
      </trkpt>
      <trkpt lat="45.07006" lon="6.04798">
        <ele>974</ele>
        <time>2024-08-09T08:10:43Z</time>
      </trkpt>
      <trkpt lat="45.07008" lon="6.04802">
        <ele>974</ele>
        <time>2024-08-09T08:10:44Z</time>
      </trkpt>
      <trkpt lat="45.07008" lon="6.04802">
        <ele>974.2</ele>
        <time>2024-08-09T08:10:45Z</time>
      </trkpt>
      <trkpt lat="45.07008" lon="6.04805">
        <ele>974.6</ele>
        <time>2024-08-09T08:10:46Z</time>
      </trkpt>
      <trkpt lat="45.07008" lon="6.04805">
        <ele>974.6</ele>
        <time>2024-08-09T08:10:47Z</time>
      </trkpt>
      <trkpt lat="45.07008" lon="6.04809">
        <ele>974.4</ele>
        <time>2024-08-09T08:10:48Z</time>
      </trkpt>
      <trkpt lat="45.07008" lon="6.04809">
        <ele>974.4</ele>
        <time>2024-08-09T08:10:49Z</time>
      </trkpt>
      <trkpt lat="45.07009" lon="6.04813">
        <ele>974.4</ele>
        <time>2024-08-09T08:10:50Z</time>
      </trkpt>
      <trkpt lat="45.07009" lon="6.04813">
        <ele>974.6</ele>
        <time>2024-08-09T08:10:51Z</time>
      </trkpt>
      <trkpt lat="45.07009" lon="6.04813">
        <ele>974.8</ele>
        <time>2024-08-09T08:10:52Z</time>
      </trkpt>
      <trkpt lat="45.07009" lon="6.04813">
        <ele>974.8</ele>
        <time>2024-08-09T08:10:53Z</time>
      </trkpt>
      <trkpt lat="45.07009" lon="6.04813">
        <ele>975</ele>
        <time>2024-08-09T08:10:54Z</time>
      </trkpt>
      <trkpt lat="45.07009" lon="6.04813">
        <ele>975</ele>
        <time>2024-08-09T08:10:55Z</time>
      </trkpt>
      <trkpt lat="45.07009" lon="6.04813">
        <ele>975</ele>
        <time>2024-08-09T08:10:56Z</time>
      </trkpt>
      <trkpt lat="45.07011" lon="6.04814">
        <ele>974.8</ele>
        <time>2024-08-09T08:10:57Z</time>
      </trkpt>
      <trkpt lat="45.07011" lon="6.04814">
        <ele>974.8</ele>
        <time>2024-08-09T08:10:58Z</time>
      </trkpt>
      <trkpt lat="45.07012" lon="6.04818">
        <ele>974.8</ele>
        <time>2024-08-09T08:10:59Z</time>
      </trkpt>
      <trkpt lat="45.07012" lon="6.04818">
        <ele>974.8</ele>
        <time>2024-08-09T08:11:00Z</time>
      </trkpt>
      <trkpt lat="45.07014" lon="6.04822">
        <ele>974.8</ele>
        <time>2024-08-09T08:11:01Z</time>
      </trkpt>
      <trkpt lat="45.07014" lon="6.04822">
        <ele>975.2</ele>
        <time>2024-08-09T08:11:02Z</time>
      </trkpt>
      <trkpt lat="45.07015" lon="6.04826">
        <ele>975.2</ele>
        <time>2024-08-09T08:11:03Z</time>
      </trkpt>
      <trkpt lat="45.07015" lon="6.04826">
        <ele>975.2</ele>
        <time>2024-08-09T08:11:04Z</time>
      </trkpt>
      <trkpt lat="45.07016" lon="6.0483">
        <ele>975.2</ele>
        <time>2024-08-09T08:11:05Z</time>
      </trkpt>
      <trkpt lat="45.07016" lon="6.0483">
        <ele>975.2</ele>
        <time>2024-08-09T08:11:06Z</time>
      </trkpt>
      <trkpt lat="45.07018" lon="6.04834">
        <ele>975.2</ele>
        <time>2024-08-09T08:11:07Z</time>
      </trkpt>
      <trkpt lat="45.07018" lon="6.04834">
        <ele>975.6</ele>
        <time>2024-08-09T08:11:08Z</time>
      </trkpt>
      <trkpt lat="45.07019" lon="6.04837">
        <ele>975.6</ele>
        <time>2024-08-09T08:11:09Z</time>
      </trkpt>
      <trkpt lat="45.07019" lon="6.04837">
        <ele>975.6</ele>
        <time>2024-08-09T08:11:10Z</time>
      </trkpt>
      <trkpt lat="45.0702" lon="6.04841">
        <ele>975.8</ele>
        <time>2024-08-09T08:11:11Z</time>
      </trkpt>
      <trkpt lat="45.0702" lon="6.04841">
        <ele>975.8</ele>
        <time>2024-08-09T08:11:12Z</time>
      </trkpt>
      <trkpt lat="45.07022" lon="6.04843">
        <ele>975.8</ele>
        <time>2024-08-09T08:11:13Z</time>
      </trkpt>
      <trkpt lat="45.07022" lon="6.04843">
        <ele>975.8</ele>
        <time>2024-08-09T08:11:14Z</time>
      </trkpt>
      <trkpt lat="45.07024" lon="6.04846">
        <ele>975.8</ele>
        <time>2024-08-09T08:11:15Z</time>
      </trkpt>
      <trkpt lat="45.07024" lon="6.04846">
        <ele>975.8</ele>
        <time>2024-08-09T08:11:16Z</time>
      </trkpt>
      <trkpt lat="45.07026" lon="6.04848">
        <ele>975.8</ele>
        <time>2024-08-09T08:11:17Z</time>
      </trkpt>
      <trkpt lat="45.07026" lon="6.04848">
        <ele>976</ele>
        <time>2024-08-09T08:11:18Z</time>
      </trkpt>
      <trkpt lat="45.07028" lon="6.0485">
        <ele>976.2</ele>
        <time>2024-08-09T08:11:19Z</time>
      </trkpt>
      <trkpt lat="45.07028" lon="6.0485">
        <ele>976.2</ele>
        <time>2024-08-09T08:11:20Z</time>
      </trkpt>
      <trkpt lat="45.07031" lon="6.04851">
        <ele>976.2</ele>
        <time>2024-08-09T08:11:21Z</time>
      </trkpt>
      <trkpt lat="45.07033" lon="6.04851">
        <ele>976.2</ele>
        <time>2024-08-09T08:11:22Z</time>
      </trkpt>
      <trkpt lat="45.07035" lon="6.0485">
        <ele>976.2</ele>
        <time>2024-08-09T08:11:23Z</time>
      </trkpt>
      <trkpt lat="45.07035" lon="6.0485">
        <ele>976.2</ele>
        <time>2024-08-09T08:11:24Z</time>
      </trkpt>
      <trkpt lat="45.07038" lon="6.04849">
        <ele>976.2</ele>
        <time>2024-08-09T08:11:25Z</time>
      </trkpt>
      <trkpt lat="45.07038" lon="6.04849">
        <ele>976.2</ele>
        <time>2024-08-09T08:11:26Z</time>
      </trkpt>
      <trkpt lat="45.07041" lon="6.0485">
        <ele>976.4</ele>
        <time>2024-08-09T08:11:27Z</time>
      </trkpt>
      <trkpt lat="45.07041" lon="6.0485">
        <ele>976.6</ele>
        <time>2024-08-09T08:11:28Z</time>
      </trkpt>
      <trkpt lat="45.07043" lon="6.04849">
        <ele>976.2</ele>
        <time>2024-08-09T08:11:29Z</time>
      </trkpt>
      <trkpt lat="45.07043" lon="6.04849">
        <ele>976.2</ele>
        <time>2024-08-09T08:11:30Z</time>
      </trkpt>
      <trkpt lat="45.07045" lon="6.04848">
        <ele>976</ele>
        <time>2024-08-09T08:11:31Z</time>
      </trkpt>
      <trkpt lat="45.07045" lon="6.04848">
        <ele>976</ele>
        <time>2024-08-09T08:11:32Z</time>
      </trkpt>
      <trkpt lat="45.07048" lon="6.04847">
        <ele>976.2</ele>
        <time>2024-08-09T08:11:33Z</time>
      </trkpt>
      <trkpt lat="45.07048" lon="6.04847">
        <ele>976.2</ele>
        <time>2024-08-09T08:11:34Z</time>
      </trkpt>
      <trkpt lat="45.0705" lon="6.04846">
        <ele>976.2</ele>
        <time>2024-08-09T08:11:35Z</time>
      </trkpt>
      <trkpt lat="45.0705" lon="6.04846">
        <ele>976.2</ele>
        <time>2024-08-09T08:11:36Z</time>
      </trkpt>
      <trkpt lat="45.07053" lon="6.04846">
        <ele>976.2</ele>
        <time>2024-08-09T08:11:37Z</time>
      </trkpt>
      <trkpt lat="45.07053" lon="6.04846">
        <ele>976.2</ele>
        <time>2024-08-09T08:11:38Z</time>
      </trkpt>
      <trkpt lat="45.07055" lon="6.04846">
        <ele>976.2</ele>
        <time>2024-08-09T08:11:39Z</time>
      </trkpt>
      <trkpt lat="45.07055" lon="6.04846">
        <ele>976.6</ele>
        <time>2024-08-09T08:11:40Z</time>
      </trkpt>
      <trkpt lat="45.07058" lon="6.04847">
        <ele>976.6</ele>
        <time>2024-08-09T08:11:41Z</time>
      </trkpt>
      <trkpt lat="45.07058" lon="6.04847">
        <ele>976.4</ele>
        <time>2024-08-09T08:11:42Z</time>
      </trkpt>
      <trkpt lat="45.0706" lon="6.04849">
        <ele>976.4</ele>
        <time>2024-08-09T08:11:43Z</time>
      </trkpt>
      <trkpt lat="45.0706" lon="6.04849">
        <ele>976.4</ele>
        <time>2024-08-09T08:11:44Z</time>
      </trkpt>
      <trkpt lat="45.07061" lon="6.04853">
        <ele>976.2</ele>
        <time>2024-08-09T08:11:45Z</time>
      </trkpt>
      <trkpt lat="45.07061" lon="6.04856">
        <ele>976.4</ele>
        <time>2024-08-09T08:11:46Z</time>
      </trkpt>
      <trkpt lat="45.07061" lon="6.04858">
        <ele>976.4</ele>
        <time>2024-08-09T08:11:47Z</time>
      </trkpt>
      <trkpt lat="45.07063" lon="6.04861">
        <ele>976.4</ele>
        <time>2024-08-09T08:11:48Z</time>
      </trkpt>
      <trkpt lat="45.07063" lon="6.04861">
        <ele>976.4</ele>
        <time>2024-08-09T08:11:49Z</time>
      </trkpt>
      <trkpt lat="45.07053" lon="6.0487">
        <ele>976.4</ele>
        <time>2024-08-09T08:11:50Z</time>
      </trkpt>
      <trkpt lat="45.07052" lon="6.04871">
        <ele>976.2</ele>
        <time>2024-08-09T08:11:51Z</time>
      </trkpt>
      <trkpt lat="45.0705" lon="6.04873">
        <ele>976.2</ele>
        <time>2024-08-09T08:11:52Z</time>
      </trkpt>
      <trkpt lat="45.0705" lon="6.04875">
        <ele>976</ele>
        <time>2024-08-09T08:11:53Z</time>
      </trkpt>
      <trkpt lat="45.0705" lon="6.04877">
        <ele>976</ele>
        <time>2024-08-09T08:11:54Z</time>
      </trkpt>
      <trkpt lat="45.0705" lon="6.04879">
        <ele>976.2</ele>
        <time>2024-08-09T08:11:55Z</time>
      </trkpt>
      <trkpt lat="45.0705" lon="6.04882">
        <ele>976.2</ele>
        <time>2024-08-09T08:11:56Z</time>
      </trkpt>
      <trkpt lat="45.0705" lon="6.04882">
        <ele>975.8</ele>
        <time>2024-08-09T08:11:57Z</time>
      </trkpt>
      <trkpt lat="45.07049" lon="6.04886">
        <ele>975.4</ele>
        <time>2024-08-09T08:11:58Z</time>
      </trkpt>
      <trkpt lat="45.07049" lon="6.04886">
        <ele>975.4</ele>
        <time>2024-08-09T08:11:59Z</time>
      </trkpt>
      <trkpt lat="45.07048" lon="6.04888">
        <ele>975.8</ele>
        <time>2024-08-09T08:12:00Z</time>
      </trkpt>
      <trkpt lat="45.07048" lon="6.04888">
        <ele>975.8</ele>
        <time>2024-08-09T08:12:01Z</time>
      </trkpt>
      <trkpt lat="45.07048" lon="6.04888">
        <ele>975.6</ele>
        <time>2024-08-09T08:12:02Z</time>
      </trkpt>
      <trkpt lat="45.07047" lon="6.04891">
        <ele>975.8</ele>
        <time>2024-08-09T08:12:03Z</time>
      </trkpt>
      <trkpt lat="45.07047" lon="6.04891">
        <ele>975.8</ele>
        <time>2024-08-09T08:12:04Z</time>
      </trkpt>
      <trkpt lat="45.07047" lon="6.04891">
        <ele>975.8</ele>
        <time>2024-08-09T08:12:05Z</time>
      </trkpt>
      <trkpt lat="45.07045" lon="6.04894">
        <ele>975.6</ele>
        <time>2024-08-09T08:12:06Z</time>
      </trkpt>
      <trkpt lat="45.07045" lon="6.04894">
        <ele>975.6</ele>
        <time>2024-08-09T08:12:07Z</time>
      </trkpt>
      <trkpt lat="45.07043" lon="6.04896">
        <ele>975.6</ele>
        <time>2024-08-09T08:12:08Z</time>
      </trkpt>
      <trkpt lat="45.07043" lon="6.04896">
        <ele>975.6</ele>
        <time>2024-08-09T08:12:09Z</time>
      </trkpt>
      <trkpt lat="45.07041" lon="6.04898">
        <ele>975.4</ele>
        <time>2024-08-09T08:12:10Z</time>
      </trkpt>
      <trkpt lat="45.07041" lon="6.04898">
        <ele>975.6</ele>
        <time>2024-08-09T08:12:11Z</time>
      </trkpt>
      <trkpt lat="45.07039" lon="6.049">
        <ele>976</ele>
        <time>2024-08-09T08:12:12Z</time>
      </trkpt>
      <trkpt lat="45.07039" lon="6.049">
        <ele>976</ele>
        <time>2024-08-09T08:12:13Z</time>
      </trkpt>
      <trkpt lat="45.07038" lon="6.04903">
        <ele>975.8</ele>
        <time>2024-08-09T08:12:14Z</time>
      </trkpt>
      <trkpt lat="45.07038" lon="6.04903">
        <ele>975.8</ele>
        <time>2024-08-09T08:12:15Z</time>
      </trkpt>
      <trkpt lat="45.07036" lon="6.04907">
        <ele>975.8</ele>
        <time>2024-08-09T08:12:16Z</time>
      </trkpt>
      <trkpt lat="45.07036" lon="6.04907">
        <ele>975.8</ele>
        <time>2024-08-09T08:12:17Z</time>
      </trkpt>
      <trkpt lat="45.07036" lon="6.0491">
        <ele>976</ele>
        <time>2024-08-09T08:12:18Z</time>
      </trkpt>
      <trkpt lat="45.07036" lon="6.0491">
        <ele>976.2</ele>
        <time>2024-08-09T08:12:19Z</time>
      </trkpt>
      <trkpt lat="45.07035" lon="6.04914">
        <ele>976.2</ele>
        <time>2024-08-09T08:12:20Z</time>
      </trkpt>
      <trkpt lat="45.07037" lon="6.04916">
        <ele>976</ele>
        <time>2024-08-09T08:12:21Z</time>
      </trkpt>
      <trkpt lat="45.07037" lon="6.04916">
        <ele>976</ele>
        <time>2024-08-09T08:12:22Z</time>
      </trkpt>
      <trkpt lat="45.07038" lon="6.04921">
        <ele>976.2</ele>
        <time>2024-08-09T08:12:23Z</time>
      </trkpt>
      <trkpt lat="45.07038" lon="6.04921">
        <ele>976.2</ele>
        <time>2024-08-09T08:12:24Z</time>
      </trkpt>
      <trkpt lat="45.07038" lon="6.04924">
        <ele>976</ele>
        <time>2024-08-09T08:12:25Z</time>
      </trkpt>
      <trkpt lat="45.07038" lon="6.04924">
        <ele>976</ele>
        <time>2024-08-09T08:12:26Z</time>
      </trkpt>
      <trkpt lat="45.07038" lon="6.04928">
        <ele>976</ele>
        <time>2024-08-09T08:12:27Z</time>
      </trkpt>
      <trkpt lat="45.07038" lon="6.04928">
        <ele>976.4</ele>
        <time>2024-08-09T08:12:28Z</time>
      </trkpt>
      <trkpt lat="45.07038" lon="6.04932">
        <ele>976.4</ele>
        <time>2024-08-09T08:12:29Z</time>
      </trkpt>
      <trkpt lat="45.07038" lon="6.04932">
        <ele>976.4</ele>
        <time>2024-08-09T08:12:30Z</time>
      </trkpt>
      <trkpt lat="45.07038" lon="6.04937">
        <ele>976.4</ele>
        <time>2024-08-09T08:12:31Z</time>
      </trkpt>
      <trkpt lat="45.07038" lon="6.04937">
        <ele>976</ele>
        <time>2024-08-09T08:12:32Z</time>
      </trkpt>
      <trkpt lat="45.07039" lon="6.04941">
        <ele>975.6</ele>
        <time>2024-08-09T08:12:33Z</time>
      </trkpt>
      <trkpt lat="45.07039" lon="6.04941">
        <ele>975.6</ele>
        <time>2024-08-09T08:12:34Z</time>
      </trkpt>
      <trkpt lat="45.0704" lon="6.04946">
        <ele>975.6</ele>
        <time>2024-08-09T08:12:35Z</time>
      </trkpt>
      <trkpt lat="45.0704" lon="6.04946">
        <ele>975.6</ele>
        <time>2024-08-09T08:12:36Z</time>
      </trkpt>
      <trkpt lat="45.0704" lon="6.0495">
        <ele>975.6</ele>
        <time>2024-08-09T08:12:37Z</time>
      </trkpt>
      <trkpt lat="45.0704" lon="6.0495">
        <ele>975.6</ele>
        <time>2024-08-09T08:12:38Z</time>
      </trkpt>
      <trkpt lat="45.0704" lon="6.04954">
        <ele>975.4</ele>
        <time>2024-08-09T08:12:39Z</time>
      </trkpt>
      <trkpt lat="45.07041" lon="6.04956">
        <ele>975.4</ele>
        <time>2024-08-09T08:12:40Z</time>
      </trkpt>
      <trkpt lat="45.07041" lon="6.04956">
        <ele>975.4</ele>
        <time>2024-08-09T08:12:41Z</time>
      </trkpt>
      <trkpt lat="45.07042" lon="6.0496">
        <ele>975.4</ele>
        <time>2024-08-09T08:12:42Z</time>
      </trkpt>
      <trkpt lat="45.07042" lon="6.0496">
        <ele>975.4</ele>
        <time>2024-08-09T08:12:43Z</time>
      </trkpt>
      <trkpt lat="45.07042" lon="6.04964">
        <ele>975.6</ele>
        <time>2024-08-09T08:12:44Z</time>
      </trkpt>
      <trkpt lat="45.07042" lon="6.04964">
        <ele>975.6</ele>
        <time>2024-08-09T08:12:45Z</time>
      </trkpt>
      <trkpt lat="45.07043" lon="6.04968">
        <ele>975.6</ele>
        <time>2024-08-09T08:12:46Z</time>
      </trkpt>
      <trkpt lat="45.07043" lon="6.04968">
        <ele>975.6</ele>
        <time>2024-08-09T08:12:47Z</time>
      </trkpt>
      <trkpt lat="45.07045" lon="6.04972">
        <ele>975.6</ele>
        <time>2024-08-09T08:12:48Z</time>
      </trkpt>
      <trkpt lat="45.07045" lon="6.04972">
        <ele>975.6</ele>
        <time>2024-08-09T08:12:49Z</time>
      </trkpt>
      <trkpt lat="45.07046" lon="6.04976">
        <ele>975.8</ele>
        <time>2024-08-09T08:12:50Z</time>
      </trkpt>
      <trkpt lat="45.07046" lon="6.04976">
        <ele>975.8</ele>
        <time>2024-08-09T08:12:51Z</time>
      </trkpt>
      <trkpt lat="45.07047" lon="6.04979">
        <ele>976</ele>
        <time>2024-08-09T08:12:52Z</time>
      </trkpt>
      <trkpt lat="45.07047" lon="6.04979">
        <ele>976</ele>
        <time>2024-08-09T08:12:53Z</time>
      </trkpt>
      <trkpt lat="45.07049" lon="6.04983">
        <ele>976.2</ele>
        <time>2024-08-09T08:12:54Z</time>
      </trkpt>
      <trkpt lat="45.07049" lon="6.04983">
        <ele>976.2</ele>
        <time>2024-08-09T08:12:55Z</time>
      </trkpt>
      <trkpt lat="45.07051" lon="6.04986">
        <ele>975.8</ele>
        <time>2024-08-09T08:12:56Z</time>
      </trkpt>
      <trkpt lat="45.07052" lon="6.04988">
        <ele>975.8</ele>
        <time>2024-08-09T08:12:57Z</time>
      </trkpt>
      <trkpt lat="45.07052" lon="6.04988">
        <ele>976</ele>
        <time>2024-08-09T08:12:58Z</time>
      </trkpt>
      <trkpt lat="45.07048" lon="6.04994">
        <ele>976</ele>
        <time>2024-08-09T08:12:59Z</time>
      </trkpt>
      <trkpt lat="45.07046" lon="6.04995">
        <ele>976</ele>
        <time>2024-08-09T08:13:00Z</time>
      </trkpt>
      <trkpt lat="45.07045" lon="6.04998">
        <ele>975.8</ele>
        <time>2024-08-09T08:13:01Z</time>
      </trkpt>
      <trkpt lat="45.07041" lon="6.05">
        <ele>975.8</ele>
        <time>2024-08-09T08:13:02Z</time>
      </trkpt>
      <trkpt lat="45.07041" lon="6.05">
        <ele>975.8</ele>
        <time>2024-08-09T08:13:03Z</time>
      </trkpt>
      <trkpt lat="45.07043" lon="6.05004">
        <ele>975.8</ele>
        <time>2024-08-09T08:13:04Z</time>
      </trkpt>
      <trkpt lat="45.07043" lon="6.05004">
        <ele>975.8</ele>
        <time>2024-08-09T08:13:05Z</time>
      </trkpt>
      <trkpt lat="45.07044" lon="6.05008">
        <ele>975.8</ele>
        <time>2024-08-09T08:13:06Z</time>
      </trkpt>
      <trkpt lat="45.07044" lon="6.05008">
        <ele>975.8</ele>
        <time>2024-08-09T08:13:07Z</time>
      </trkpt>
      <trkpt lat="45.07045" lon="6.05012">
        <ele>976</ele>
        <time>2024-08-09T08:13:08Z</time>
      </trkpt>
      <trkpt lat="45.07045" lon="6.05012">
        <ele>976</ele>
        <time>2024-08-09T08:13:09Z</time>
      </trkpt>
      <trkpt lat="45.07045" lon="6.05017">
        <ele>976</ele>
        <time>2024-08-09T08:13:10Z</time>
      </trkpt>
      <trkpt lat="45.07045" lon="6.05017">
        <ele>976</ele>
        <time>2024-08-09T08:13:11Z</time>
      </trkpt>
      <trkpt lat="45.07046" lon="6.05021">
        <ele>976</ele>
        <time>2024-08-09T08:13:12Z</time>
      </trkpt>
      <trkpt lat="45.07046" lon="6.05021">
        <ele>976</ele>
        <time>2024-08-09T08:13:13Z</time>
      </trkpt>
      <trkpt lat="45.07047" lon="6.05025">
        <ele>976</ele>
        <time>2024-08-09T08:13:14Z</time>
      </trkpt>
      <trkpt lat="45.07047" lon="6.05025">
        <ele>976</ele>
        <time>2024-08-09T08:13:15Z</time>
      </trkpt>
      <trkpt lat="45.07048" lon="6.05029">
        <ele>976.2</ele>
        <time>2024-08-09T08:13:16Z</time>
      </trkpt>
      <trkpt lat="45.07049" lon="6.05031">
        <ele>976.4</ele>
        <time>2024-08-09T08:13:17Z</time>
      </trkpt>
      <trkpt lat="45.07049" lon="6.05031">
        <ele>976.4</ele>
        <time>2024-08-09T08:13:18Z</time>
      </trkpt>
      <trkpt lat="45.07051" lon="6.05035">
        <ele>976.4</ele>
        <time>2024-08-09T08:13:19Z</time>
      </trkpt>
      <trkpt lat="45.07052" lon="6.05037">
        <ele>976.2</ele>
        <time>2024-08-09T08:13:20Z</time>
      </trkpt>
      <trkpt lat="45.07052" lon="6.05037">
        <ele>976.4</ele>
        <time>2024-08-09T08:13:21Z</time>
      </trkpt>
      <trkpt lat="45.07056" lon="6.0504">
        <ele>976.6</ele>
        <time>2024-08-09T08:13:22Z</time>
      </trkpt>
      <trkpt lat="45.07056" lon="6.0504">
        <ele>976.8</ele>
        <time>2024-08-09T08:13:23Z</time>
      </trkpt>
      <trkpt lat="45.07059" lon="6.05043">
        <ele>976.8</ele>
        <time>2024-08-09T08:13:24Z</time>
      </trkpt>
      <trkpt lat="45.0706" lon="6.05046">
        <ele>976.8</ele>
        <time>2024-08-09T08:13:25Z</time>
      </trkpt>
      <trkpt lat="45.0706" lon="6.05046">
        <ele>976.6</ele>
        <time>2024-08-09T08:13:26Z</time>
      </trkpt>
      <trkpt lat="45.07061" lon="6.05049">
        <ele>976.6</ele>
        <time>2024-08-09T08:13:27Z</time>
      </trkpt>
      <trkpt lat="45.07061" lon="6.05052">
        <ele>976.6</ele>
        <time>2024-08-09T08:13:28Z</time>
      </trkpt>
      <trkpt lat="45.07061" lon="6.05052">
        <ele>976.8</ele>
        <time>2024-08-09T08:13:29Z</time>
      </trkpt>
      <trkpt lat="45.07062" lon="6.05056">
        <ele>976.8</ele>
        <time>2024-08-09T08:13:30Z</time>
      </trkpt>
      <trkpt lat="45.07062" lon="6.05056">
        <ele>977.2</ele>
        <time>2024-08-09T08:13:31Z</time>
      </trkpt>
      <trkpt lat="45.07063" lon="6.05061">
        <ele>977.2</ele>
        <time>2024-08-09T08:13:32Z</time>
      </trkpt>
      <trkpt lat="45.07063" lon="6.05061">
        <ele>977.2</ele>
        <time>2024-08-09T08:13:33Z</time>
      </trkpt>
      <trkpt lat="45.07062" lon="6.05065">
        <ele>977.4</ele>
        <time>2024-08-09T08:13:34Z</time>
      </trkpt>
      <trkpt lat="45.07062" lon="6.05065">
        <ele>977.4</ele>
        <time>2024-08-09T08:13:35Z</time>
      </trkpt>
      <trkpt lat="45.07062" lon="6.05069">
        <ele>977.4</ele>
        <time>2024-08-09T08:13:36Z</time>
      </trkpt>
      <trkpt lat="45.07062" lon="6.05069">
        <ele>977.4</ele>
        <time>2024-08-09T08:13:37Z</time>
      </trkpt>
      <trkpt lat="45.07061" lon="6.05074">
        <ele>977.4</ele>
        <time>2024-08-09T08:13:38Z</time>
      </trkpt>
      <trkpt lat="45.07061" lon="6.05074">
        <ele>977.4</ele>
        <time>2024-08-09T08:13:39Z</time>
      </trkpt>
      <trkpt lat="45.07061" lon="6.05078">
        <ele>977.6</ele>
        <time>2024-08-09T08:13:40Z</time>
      </trkpt>
      <trkpt lat="45.07061" lon="6.05078">
        <ele>977.8</ele>
        <time>2024-08-09T08:13:41Z</time>
      </trkpt>
      <trkpt lat="45.07061" lon="6.05082">
        <ele>977.8</ele>
        <time>2024-08-09T08:13:42Z</time>
      </trkpt>
      <trkpt lat="45.07061" lon="6.05082">
        <ele>977.8</ele>
        <time>2024-08-09T08:13:43Z</time>
      </trkpt>
      <trkpt lat="45.0706" lon="6.05086">
        <ele>977.8</ele>
        <time>2024-08-09T08:13:44Z</time>
      </trkpt>
      <trkpt lat="45.0706" lon="6.05086">
        <ele>977.8</ele>
        <time>2024-08-09T08:13:45Z</time>
      </trkpt>
      <trkpt lat="45.07059" lon="6.0509">
        <ele>977.8</ele>
        <time>2024-08-09T08:13:46Z</time>
      </trkpt>
      <trkpt lat="45.07058" lon="6.05092">
        <ele>977.8</ele>
        <time>2024-08-09T08:13:47Z</time>
      </trkpt>
      <trkpt lat="45.07058" lon="6.05092">
        <ele>978.2</ele>
        <time>2024-08-09T08:13:48Z</time>
      </trkpt>
      <trkpt lat="45.07058" lon="6.05097">
        <ele>978.2</ele>
        <time>2024-08-09T08:13:49Z</time>
      </trkpt>
      <trkpt lat="45.07058" lon="6.05097">
        <ele>978.2</ele>
        <time>2024-08-09T08:13:50Z</time>
      </trkpt>
      <trkpt lat="45.07058" lon="6.05101">
        <ele>977.8</ele>
        <time>2024-08-09T08:13:51Z</time>
      </trkpt>
      <trkpt lat="45.07058" lon="6.05101">
        <ele>977.8</ele>
        <time>2024-08-09T08:13:52Z</time>
      </trkpt>
      <trkpt lat="45.07057" lon="6.05104">
        <ele>978</ele>
        <time>2024-08-09T08:13:53Z</time>
      </trkpt>
      <trkpt lat="45.07057" lon="6.05104">
        <ele>978</ele>
        <time>2024-08-09T08:13:54Z</time>
      </trkpt>
      <trkpt lat="45.07056" lon="6.05108">
        <ele>978</ele>
        <time>2024-08-09T08:13:55Z</time>
      </trkpt>
      <trkpt lat="45.07056" lon="6.05108">
        <ele>978</ele>
        <time>2024-08-09T08:13:56Z</time>
      </trkpt>
      <trkpt lat="45.07055" lon="6.05111">
        <ele>978</ele>
        <time>2024-08-09T08:13:57Z</time>
      </trkpt>
      <trkpt lat="45.07055" lon="6.05111">
        <ele>978.4</ele>
        <time>2024-08-09T08:13:58Z</time>
      </trkpt>
      <trkpt lat="45.07055" lon="6.05111">
        <ele>978.8</ele>
        <time>2024-08-09T08:13:59Z</time>
      </trkpt>
      <trkpt lat="45.07055" lon="6.05111">
        <ele>979.2</ele>
        <time>2024-08-09T08:14:00Z</time>
      </trkpt>
      <trkpt lat="45.07055" lon="6.05111">
        <ele>979.2</ele>
        <time>2024-08-09T08:14:01Z</time>
      </trkpt>
      <trkpt lat="45.07055" lon="6.05111">
        <ele>979.2</ele>
        <time>2024-08-09T08:14:02Z</time>
      </trkpt>
      <trkpt lat="45.07055" lon="6.05108">
        <ele>979.2</ele>
        <time>2024-08-09T08:14:03Z</time>
      </trkpt>
      <trkpt lat="45.07055" lon="6.05108">
        <ele>979</ele>
        <time>2024-08-09T08:14:04Z</time>
      </trkpt>
      <trkpt lat="45.07055" lon="6.05104">
        <ele>979</ele>
        <time>2024-08-09T08:14:05Z</time>
      </trkpt>
      <trkpt lat="45.07055" lon="6.05104">
        <ele>978.6</ele>
        <time>2024-08-09T08:14:06Z</time>
      </trkpt>
      <trkpt lat="45.07056" lon="6.051">
        <ele>978.8</ele>
        <time>2024-08-09T08:14:07Z</time>
      </trkpt>
      <trkpt lat="45.07056" lon="6.051">
        <ele>978.6</ele>
        <time>2024-08-09T08:14:08Z</time>
      </trkpt>
      <trkpt lat="45.07056" lon="6.05095">
        <ele>978.6</ele>
        <time>2024-08-09T08:14:09Z</time>
      </trkpt>
      <trkpt lat="45.07057" lon="6.05093">
        <ele>978.6</ele>
        <time>2024-08-09T08:14:10Z</time>
      </trkpt>
      <trkpt lat="45.07057" lon="6.05093">
        <ele>978.6</ele>
        <time>2024-08-09T08:14:11Z</time>
      </trkpt>
      <trkpt lat="45.07058" lon="6.05088">
        <ele>978.6</ele>
        <time>2024-08-09T08:14:12Z</time>
      </trkpt>
      <trkpt lat="45.07058" lon="6.05088">
        <ele>978.6</ele>
        <time>2024-08-09T08:14:13Z</time>
      </trkpt>
      <trkpt lat="45.07059" lon="6.05084">
        <ele>978.6</ele>
        <time>2024-08-09T08:14:14Z</time>
      </trkpt>
      <trkpt lat="45.07059" lon="6.05084">
        <ele>978.6</ele>
        <time>2024-08-09T08:14:15Z</time>
      </trkpt>
      <trkpt lat="45.0706" lon="6.05079">
        <ele>978.4</ele>
        <time>2024-08-09T08:14:16Z</time>
      </trkpt>
      <trkpt lat="45.0706" lon="6.05076">
        <ele>978.4</ele>
        <time>2024-08-09T08:14:17Z</time>
      </trkpt>
      <trkpt lat="45.0706" lon="6.05076">
        <ele>978.2</ele>
        <time>2024-08-09T08:14:18Z</time>
      </trkpt>
      <trkpt lat="45.07061" lon="6.05072">
        <ele>978.2</ele>
        <time>2024-08-09T08:14:19Z</time>
      </trkpt>
      <trkpt lat="45.07061" lon="6.05072">
        <ele>978.2</ele>
        <time>2024-08-09T08:14:20Z</time>
      </trkpt>
      <trkpt lat="45.07061" lon="6.05068">
        <ele>978.6</ele>
        <time>2024-08-09T08:14:21Z</time>
      </trkpt>
      <trkpt lat="45.07061" lon="6.05068">
        <ele>978.6</ele>
        <time>2024-08-09T08:14:22Z</time>
      </trkpt>
      <trkpt lat="45.07061" lon="6.05063">
        <ele>978.6</ele>
        <time>2024-08-09T08:14:23Z</time>
      </trkpt>
      <trkpt lat="45.07061" lon="6.05063">
        <ele>978.4</ele>
        <time>2024-08-09T08:14:24Z</time>
      </trkpt>
      <trkpt lat="45.07061" lon="6.05059">
        <ele>978.4</ele>
        <time>2024-08-09T08:14:25Z</time>
      </trkpt>
      <trkpt lat="45.07061" lon="6.05059">
        <ele>978.2</ele>
        <time>2024-08-09T08:14:26Z</time>
      </trkpt>
      <trkpt lat="45.07061" lon="6.05054">
        <ele>978.2</ele>
        <time>2024-08-09T08:14:27Z</time>
      </trkpt>
      <trkpt lat="45.07061" lon="6.05054">
        <ele>978.2</ele>
        <time>2024-08-09T08:14:28Z</time>
      </trkpt>
      <trkpt lat="45.0706" lon="6.0505">
        <ele>977.8</ele>
        <time>2024-08-09T08:14:29Z</time>
      </trkpt>
      <trkpt lat="45.0706" lon="6.0505">
        <ele>977.6</ele>
        <time>2024-08-09T08:14:30Z</time>
      </trkpt>
      <trkpt lat="45.0706" lon="6.05045">
        <ele>977.8</ele>
        <time>2024-08-09T08:14:31Z</time>
      </trkpt>
      <trkpt lat="45.0706" lon="6.05045">
        <ele>978.2</ele>
        <time>2024-08-09T08:14:32Z</time>
      </trkpt>
      <trkpt lat="45.0706" lon="6.05041">
        <ele>978.2</ele>
        <time>2024-08-09T08:14:33Z</time>
      </trkpt>
      <trkpt lat="45.0706" lon="6.05041">
        <ele>978.4</ele>
        <time>2024-08-09T08:14:34Z</time>
      </trkpt>
      <trkpt lat="45.0706" lon="6.05037">
        <ele>978.4</ele>
        <time>2024-08-09T08:14:35Z</time>
      </trkpt>
      <trkpt lat="45.0706" lon="6.05037">
        <ele>978.4</ele>
        <time>2024-08-09T08:14:36Z</time>
      </trkpt>
      <trkpt lat="45.0706" lon="6.05033">
        <ele>978.4</ele>
        <time>2024-08-09T08:14:37Z</time>
      </trkpt>
      <trkpt lat="45.0706" lon="6.05033">
        <ele>978.2</ele>
        <time>2024-08-09T08:14:38Z</time>
      </trkpt>
      <trkpt lat="45.0706" lon="6.05028">
        <ele>978.2</ele>
        <time>2024-08-09T08:14:39Z</time>
      </trkpt>
      <trkpt lat="45.0706" lon="6.05028">
        <ele>978.4</ele>
        <time>2024-08-09T08:14:40Z</time>
      </trkpt>
      <trkpt lat="45.07058" lon="6.05024">
        <ele>978.4</ele>
        <time>2024-08-09T08:14:41Z</time>
      </trkpt>
      <trkpt lat="45.07058" lon="6.05024">
        <ele>978.4</ele>
        <time>2024-08-09T08:14:42Z</time>
      </trkpt>
      <trkpt lat="45.07058" lon="6.0502">
        <ele>978.2</ele>
        <time>2024-08-09T08:14:43Z</time>
      </trkpt>
      <trkpt lat="45.07058" lon="6.0502">
        <ele>977.8</ele>
        <time>2024-08-09T08:14:44Z</time>
      </trkpt>
      <trkpt lat="45.07057" lon="6.05016">
        <ele>977.8</ele>
        <time>2024-08-09T08:14:45Z</time>
      </trkpt>
      <trkpt lat="45.07057" lon="6.05016">
        <ele>978.2</ele>
        <time>2024-08-09T08:14:46Z</time>
      </trkpt>
      <trkpt lat="45.07056" lon="6.05012">
        <ele>978.4</ele>
        <time>2024-08-09T08:14:47Z</time>
      </trkpt>
      <trkpt lat="45.07056" lon="6.05012">
        <ele>978.4</ele>
        <time>2024-08-09T08:14:48Z</time>
      </trkpt>
      <trkpt lat="45.07054" lon="6.05008">
        <ele>978</ele>
        <time>2024-08-09T08:14:49Z</time>
      </trkpt>
      <trkpt lat="45.07054" lon="6.05008">
        <ele>978</ele>
        <time>2024-08-09T08:14:50Z</time>
      </trkpt>
      <trkpt lat="45.07054" lon="6.05004">
        <ele>978</ele>
        <time>2024-08-09T08:14:51Z</time>
      </trkpt>
      <trkpt lat="45.07054" lon="6.05004">
        <ele>978</ele>
        <time>2024-08-09T08:14:52Z</time>
      </trkpt>
      <trkpt lat="45.07053" lon="6.05">
        <ele>978</ele>
        <time>2024-08-09T08:14:53Z</time>
      </trkpt>
      <trkpt lat="45.07053" lon="6.05">
        <ele>977.8</ele>
        <time>2024-08-09T08:14:54Z</time>
      </trkpt>
      <trkpt lat="45.07052" lon="6.04996">
        <ele>977.8</ele>
        <time>2024-08-09T08:14:55Z</time>
      </trkpt>
      <trkpt lat="45.07052" lon="6.04996">
        <ele>977.8</ele>
        <time>2024-08-09T08:14:56Z</time>
      </trkpt>
      <trkpt lat="45.07052" lon="6.04996">
        <ele>977.8</ele>
        <time>2024-08-09T08:14:57Z</time>
      </trkpt>
      <trkpt lat="45.07052" lon="6.04996">
        <ele>977.8</ele>
        <time>2024-08-09T08:14:58Z</time>
      </trkpt>
      <trkpt lat="45.07052" lon="6.04996">
        <ele>977.8</ele>
        <time>2024-08-09T08:14:59Z</time>
      </trkpt>
      <trkpt lat="45.07052" lon="6.04999">
        <ele>977.8</ele>
        <time>2024-08-09T08:15:00Z</time>
      </trkpt>
      <trkpt lat="45.07052" lon="6.04999">
        <ele>977.6</ele>
        <time>2024-08-09T08:15:01Z</time>
      </trkpt>
      <trkpt lat="45.07053" lon="6.05003">
        <ele>977.4</ele>
        <time>2024-08-09T08:15:02Z</time>
      </trkpt>
      <trkpt lat="45.07053" lon="6.05003">
        <ele>977.4</ele>
        <time>2024-08-09T08:15:03Z</time>
      </trkpt>
      <trkpt lat="45.07053" lon="6.05008">
        <ele>977.2</ele>
        <time>2024-08-09T08:15:04Z</time>
      </trkpt>
      <trkpt lat="45.07053" lon="6.05008">
        <ele>976.8</ele>
        <time>2024-08-09T08:15:05Z</time>
      </trkpt>
      <trkpt lat="45.07054" lon="6.05012">
        <ele>976.6</ele>
        <time>2024-08-09T08:15:06Z</time>
      </trkpt>
      <trkpt lat="45.07054" lon="6.05012">
        <ele>976.2</ele>
        <time>2024-08-09T08:15:07Z</time>
      </trkpt>
      <trkpt lat="45.07055" lon="6.05016">
        <ele>976</ele>
        <time>2024-08-09T08:15:08Z</time>
      </trkpt>
      <trkpt lat="45.07055" lon="6.05016">
        <ele>975.8</ele>
        <time>2024-08-09T08:15:09Z</time>
      </trkpt>
      <trkpt lat="45.07056" lon="6.05019">
        <ele>975.6</ele>
        <time>2024-08-09T08:15:10Z</time>
      </trkpt>
      <trkpt lat="45.07056" lon="6.05019">
        <ele>975.4</ele>
        <time>2024-08-09T08:15:11Z</time>
      </trkpt>
      <trkpt lat="45.07056" lon="6.05023">
        <ele>975.2</ele>
        <time>2024-08-09T08:15:12Z</time>
      </trkpt>
      <trkpt lat="45.07056" lon="6.05023">
        <ele>974.8</ele>
        <time>2024-08-09T08:15:13Z</time>
      </trkpt>
      <trkpt lat="45.07057" lon="6.05027">
        <ele>974.4</ele>
        <time>2024-08-09T08:15:14Z</time>
      </trkpt>
      <trkpt lat="45.07057" lon="6.05027">
        <ele>974.4</ele>
        <time>2024-08-09T08:15:15Z</time>
      </trkpt>
      <trkpt lat="45.07057" lon="6.05031">
        <ele>974.2</ele>
        <time>2024-08-09T08:15:16Z</time>
      </trkpt>
      <trkpt lat="45.07057" lon="6.05031">
        <ele>974</ele>
        <time>2024-08-09T08:15:17Z</time>
      </trkpt>
      <trkpt lat="45.07057" lon="6.05035">
        <ele>973.6</ele>
        <time>2024-08-09T08:15:18Z</time>
      </trkpt>
      <trkpt lat="45.07057" lon="6.05035">
        <ele>973.8</ele>
        <time>2024-08-09T08:15:19Z</time>
      </trkpt>
      <trkpt lat="45.07057" lon="6.05039">
        <ele>973.8</ele>
        <time>2024-08-09T08:15:20Z</time>
      </trkpt>
      <trkpt lat="45.07057" lon="6.05039">
        <ele>973.6</ele>
        <time>2024-08-09T08:15:21Z</time>
      </trkpt>
      <trkpt lat="45.07056" lon="6.05043">
        <ele>972.8</ele>
        <time>2024-08-09T08:15:22Z</time>
      </trkpt>
      <trkpt lat="45.07056" lon="6.05043">
        <ele>972.6</ele>
        <time>2024-08-09T08:15:23Z</time>
      </trkpt>
      <trkpt lat="45.07056" lon="6.05047">
        <ele>972.4</ele>
        <time>2024-08-09T08:15:24Z</time>
      </trkpt>
      <trkpt lat="45.07056" lon="6.05047">
        <ele>972.2</ele>
        <time>2024-08-09T08:15:25Z</time>
      </trkpt>
      <trkpt lat="45.07056" lon="6.05051">
        <ele>972</ele>
        <time>2024-08-09T08:15:26Z</time>
      </trkpt>
      <trkpt lat="45.07056" lon="6.05051">
        <ele>971.6</ele>
        <time>2024-08-09T08:15:27Z</time>
      </trkpt>
      <trkpt lat="45.07056" lon="6.05055">
        <ele>971.6</ele>
        <time>2024-08-09T08:15:28Z</time>
      </trkpt>
      <trkpt lat="45.07056" lon="6.05055">
        <ele>971.4</ele>
        <time>2024-08-09T08:15:29Z</time>
      </trkpt>
      <trkpt lat="45.07055" lon="6.05059">
        <ele>971.2</ele>
        <time>2024-08-09T08:15:30Z</time>
      </trkpt>
      <trkpt lat="45.07055" lon="6.05059">
        <ele>971</ele>
        <time>2024-08-09T08:15:31Z</time>
      </trkpt>
      <trkpt lat="45.07054" lon="6.05063">
        <ele>970.8</ele>
        <time>2024-08-09T08:15:32Z</time>
      </trkpt>
      <trkpt lat="45.07054" lon="6.05063">
        <ele>970.2</ele>
        <time>2024-08-09T08:15:33Z</time>
      </trkpt>
      <trkpt lat="45.07053" lon="6.05067">
        <ele>970.4</ele>
        <time>2024-08-09T08:15:34Z</time>
      </trkpt>
      <trkpt lat="45.07053" lon="6.05067">
        <ele>970.2</ele>
        <time>2024-08-09T08:15:35Z</time>
      </trkpt>
      <trkpt lat="45.07052" lon="6.05071">
        <ele>969.8</ele>
        <time>2024-08-09T08:15:36Z</time>
      </trkpt>
      <trkpt lat="45.07052" lon="6.05071">
        <ele>969.6</ele>
        <time>2024-08-09T08:15:37Z</time>
      </trkpt>
      <trkpt lat="45.07051" lon="6.05075">
        <ele>969.8</ele>
        <time>2024-08-09T08:15:38Z</time>
      </trkpt>
      <trkpt lat="45.07051" lon="6.05075">
        <ele>969.6</ele>
        <time>2024-08-09T08:15:39Z</time>
      </trkpt>
      <trkpt lat="45.0705" lon="6.05079">
        <ele>969.2</ele>
        <time>2024-08-09T08:15:40Z</time>
      </trkpt>
      <trkpt lat="45.0705" lon="6.05079">
        <ele>968.8</ele>
        <time>2024-08-09T08:15:41Z</time>
      </trkpt>
      <trkpt lat="45.07048" lon="6.05082">
        <ele>968.4</ele>
        <time>2024-08-09T08:15:42Z</time>
      </trkpt>
      <trkpt lat="45.07048" lon="6.05082">
        <ele>968.2</ele>
        <time>2024-08-09T08:15:43Z</time>
      </trkpt>
      <trkpt lat="45.07046" lon="6.05085">
        <ele>967.8</ele>
        <time>2024-08-09T08:15:44Z</time>
      </trkpt>
      <trkpt lat="45.07046" lon="6.05085">
        <ele>967.6</ele>
        <time>2024-08-09T08:15:45Z</time>
      </trkpt>
      <trkpt lat="45.07045" lon="6.05089">
        <ele>967.4</ele>
        <time>2024-08-09T08:15:46Z</time>
      </trkpt>
      <trkpt lat="45.07045" lon="6.05089">
        <ele>967</ele>
        <time>2024-08-09T08:15:47Z</time>
      </trkpt>
      <trkpt lat="45.07044" lon="6.05092">
        <ele>966.6</ele>
        <time>2024-08-09T08:15:48Z</time>
      </trkpt>
      <trkpt lat="45.07044" lon="6.05092">
        <ele>966.4</ele>
        <time>2024-08-09T08:15:49Z</time>
      </trkpt>
      <trkpt lat="45.07042" lon="6.05096">
        <ele>965.8</ele>
        <time>2024-08-09T08:15:50Z</time>
      </trkpt>
      <trkpt lat="45.07042" lon="6.05096">
        <ele>965.6</ele>
        <time>2024-08-09T08:15:51Z</time>
      </trkpt>
      <trkpt lat="45.0704" lon="6.05098">
        <ele>965.4</ele>
        <time>2024-08-09T08:15:52Z</time>
      </trkpt>
      <trkpt lat="45.07038" lon="6.051">
        <ele>965</ele>
        <time>2024-08-09T08:15:53Z</time>
      </trkpt>
      <trkpt lat="45.07038" lon="6.051">
        <ele>964.6</ele>
        <time>2024-08-09T08:15:54Z</time>
      </trkpt>
      <trkpt lat="45.07037" lon="6.05104">
        <ele>964.4</ele>
        <time>2024-08-09T08:15:55Z</time>
      </trkpt>
      <trkpt lat="45.07037" lon="6.05104">
        <ele>963.8</ele>
        <time>2024-08-09T08:15:56Z</time>
      </trkpt>
      <trkpt lat="45.07035" lon="6.05107">
        <ele>963.8</ele>
        <time>2024-08-09T08:15:57Z</time>
      </trkpt>
      <trkpt lat="45.07035" lon="6.05107">
        <ele>963.4</ele>
        <time>2024-08-09T08:15:58Z</time>
      </trkpt>
      <trkpt lat="45.07032" lon="6.0511">
        <ele>963.2</ele>
        <time>2024-08-09T08:15:59Z</time>
      </trkpt>
      <trkpt lat="45.07032" lon="6.0511">
        <ele>962.8</ele>
        <time>2024-08-09T08:16:00Z</time>
      </trkpt>
      <trkpt lat="45.0703" lon="6.05112">
        <ele>962.6</ele>
        <time>2024-08-09T08:16:01Z</time>
      </trkpt>
      <trkpt lat="45.0703" lon="6.05112">
        <ele>962.4</ele>
        <time>2024-08-09T08:16:02Z</time>
      </trkpt>
      <trkpt lat="45.07028" lon="6.05115">
        <ele>962.4</ele>
        <time>2024-08-09T08:16:03Z</time>
      </trkpt>
      <trkpt lat="45.07028" lon="6.05115">
        <ele>962.2</ele>
        <time>2024-08-09T08:16:04Z</time>
      </trkpt>
      <trkpt lat="45.07026" lon="6.05118">
        <ele>961.6</ele>
        <time>2024-08-09T08:16:05Z</time>
      </trkpt>
      <trkpt lat="45.07026" lon="6.05118">
        <ele>961.2</ele>
        <time>2024-08-09T08:16:06Z</time>
      </trkpt>
      <trkpt lat="45.07023" lon="6.05121">
        <ele>960.8</ele>
        <time>2024-08-09T08:16:07Z</time>
      </trkpt>
      <trkpt lat="45.07023" lon="6.05121">
        <ele>960.6</ele>
        <time>2024-08-09T08:16:08Z</time>
      </trkpt>
      <trkpt lat="45.07021" lon="6.05123">
        <ele>960.4</ele>
        <time>2024-08-09T08:16:09Z</time>
      </trkpt>
      <trkpt lat="45.07021" lon="6.05123">
        <ele>960</ele>
        <time>2024-08-09T08:16:10Z</time>
      </trkpt>
      <trkpt lat="45.07019" lon="6.05126">
        <ele>959.8</ele>
        <time>2024-08-09T08:16:11Z</time>
      </trkpt>
      <trkpt lat="45.07019" lon="6.05126">
        <ele>959.4</ele>
        <time>2024-08-09T08:16:12Z</time>
      </trkpt>
      <trkpt lat="45.07016" lon="6.05129">
        <ele>959.4</ele>
        <time>2024-08-09T08:16:13Z</time>
      </trkpt>
      <trkpt lat="45.07016" lon="6.05129">
        <ele>959.2</ele>
        <time>2024-08-09T08:16:14Z</time>
      </trkpt>
      <trkpt lat="45.07014" lon="6.05131">
        <ele>958.6</ele>
        <time>2024-08-09T08:16:15Z</time>
      </trkpt>
      <trkpt lat="45.07014" lon="6.05131">
        <ele>958.6</ele>
        <time>2024-08-09T08:16:16Z</time>
      </trkpt>
      <trkpt lat="45.07012" lon="6.05132">
        <ele>958.4</ele>
        <time>2024-08-09T08:16:17Z</time>
      </trkpt>
      <trkpt lat="45.07012" lon="6.05132">
        <ele>958.2</ele>
        <time>2024-08-09T08:16:18Z</time>
      </trkpt>
      <trkpt lat="45.07008" lon="6.05133">
        <ele>958.2</ele>
        <time>2024-08-09T08:16:19Z</time>
      </trkpt>
      <trkpt lat="45.07008" lon="6.05133">
        <ele>958.4</ele>
        <time>2024-08-09T08:16:20Z</time>
      </trkpt>
      <trkpt lat="45.07006" lon="6.05132">
        <ele>958.4</ele>
        <time>2024-08-09T08:16:21Z</time>
      </trkpt>
      <trkpt lat="45.07006" lon="6.05132">
        <ele>958.2</ele>
        <time>2024-08-09T08:16:22Z</time>
      </trkpt>
      <trkpt lat="45.07004" lon="6.05131">
        <ele>957.8</ele>
        <time>2024-08-09T08:16:23Z</time>
      </trkpt>
      <trkpt lat="45.07004" lon="6.05131">
        <ele>957.8</ele>
        <time>2024-08-09T08:16:24Z</time>
      </trkpt>
      <trkpt lat="45.07001" lon="6.0513">
        <ele>957.8</ele>
        <time>2024-08-09T08:16:25Z</time>
      </trkpt>
      <trkpt lat="45.07001" lon="6.0513">
        <ele>957.8</ele>
        <time>2024-08-09T08:16:26Z</time>
      </trkpt>
      <trkpt lat="45.06998" lon="6.0513">
        <ele>957.8</ele>
        <time>2024-08-09T08:16:27Z</time>
      </trkpt>
      <trkpt lat="45.06998" lon="6.0513">
        <ele>958</ele>
        <time>2024-08-09T08:16:28Z</time>
      </trkpt>
      <trkpt lat="45.06996" lon="6.0513">
        <ele>958.2</ele>
        <time>2024-08-09T08:16:29Z</time>
      </trkpt>
      <trkpt lat="45.06996" lon="6.0513">
        <ele>958.2</ele>
        <time>2024-08-09T08:16:30Z</time>
      </trkpt>
      <trkpt lat="45.06993" lon="6.05131">
        <ele>958.2</ele>
        <time>2024-08-09T08:16:31Z</time>
      </trkpt>
      <trkpt lat="45.06993" lon="6.05131">
        <ele>958.2</ele>
        <time>2024-08-09T08:16:32Z</time>
      </trkpt>
      <trkpt lat="45.06992" lon="6.05133">
        <ele>958</ele>
        <time>2024-08-09T08:16:33Z</time>
      </trkpt>
      <trkpt lat="45.06992" lon="6.05133">
        <ele>957.6</ele>
        <time>2024-08-09T08:16:34Z</time>
      </trkpt>
      <trkpt lat="45.0699" lon="6.05135">
        <ele>957.6</ele>
        <time>2024-08-09T08:16:35Z</time>
      </trkpt>
      <trkpt lat="45.0699" lon="6.05135">
        <ele>957.8</ele>
        <time>2024-08-09T08:16:36Z</time>
      </trkpt>
      <trkpt lat="45.06989" lon="6.05137">
        <ele>957.8</ele>
        <time>2024-08-09T08:16:37Z</time>
      </trkpt>
      <trkpt lat="45.06989" lon="6.05137">
        <ele>958</ele>
        <time>2024-08-09T08:16:38Z</time>
      </trkpt>
      <trkpt lat="45.06988" lon="6.0514">
        <ele>958.4</ele>
        <time>2024-08-09T08:16:39Z</time>
      </trkpt>
      <trkpt lat="45.06988" lon="6.0514">
        <ele>958.8</ele>
        <time>2024-08-09T08:16:40Z</time>
      </trkpt>
      <trkpt lat="45.06988" lon="6.0514">
        <ele>958.8</ele>
        <time>2024-08-09T08:16:41Z</time>
      </trkpt>
      <trkpt lat="45.06988" lon="6.05144">
        <ele>959</ele>
        <time>2024-08-09T08:16:42Z</time>
      </trkpt>
      <trkpt lat="45.06988" lon="6.05144">
        <ele>959</ele>
        <time>2024-08-09T08:16:43Z</time>
      </trkpt>
      <trkpt lat="45.06988" lon="6.05144">
        <ele>959.2</ele>
        <time>2024-08-09T08:16:44Z</time>
      </trkpt>
      <trkpt lat="45.06988" lon="6.05148">
        <ele>959.6</ele>
        <time>2024-08-09T08:16:45Z</time>
      </trkpt>
      <trkpt lat="45.06988" lon="6.05148">
        <ele>959.6</ele>
        <time>2024-08-09T08:16:46Z</time>
      </trkpt>
      <trkpt lat="45.06988" lon="6.05148">
        <ele>959.8</ele>
        <time>2024-08-09T08:16:47Z</time>
      </trkpt>
      <trkpt lat="45.06986" lon="6.0515">
        <ele>960</ele>
        <time>2024-08-09T08:16:48Z</time>
      </trkpt>
      <trkpt lat="45.06986" lon="6.0515">
        <ele>960.6</ele>
        <time>2024-08-09T08:16:49Z</time>
      </trkpt>
      <trkpt lat="45.06966" lon="6.0515">
        <ele>960.6</ele>
        <time>2024-08-09T08:16:50Z</time>
      </trkpt>
      <trkpt lat="45.06965" lon="6.0515">
        <ele>961</ele>
        <time>2024-08-09T08:16:51Z</time>
      </trkpt>
      <trkpt lat="45.06965" lon="6.05149">
        <ele>961.2</ele>
        <time>2024-08-09T08:16:52Z</time>
      </trkpt>
      <trkpt lat="45.06965" lon="6.05149">
        <ele>961.4</ele>
        <time>2024-08-09T08:16:53Z</time>
      </trkpt>
      <trkpt lat="45.06965" lon="6.05149">
        <ele>961.4</ele>
        <time>2024-08-09T08:16:54Z</time>
      </trkpt>
      <trkpt lat="45.06965" lon="6.05146">
        <ele>962</ele>
        <time>2024-08-09T08:16:55Z</time>
      </trkpt>
      <trkpt lat="45.06965" lon="6.05146">
        <ele>962</ele>
        <time>2024-08-09T08:16:56Z</time>
      </trkpt>
      <trkpt lat="45.06965" lon="6.05143">
        <ele>962.2</ele>
        <time>2024-08-09T08:16:57Z</time>
      </trkpt>
      <trkpt lat="45.06965" lon="6.05143">
        <ele>962.4</ele>
        <time>2024-08-09T08:16:58Z</time>
      </trkpt>
      <trkpt lat="45.06963" lon="6.0514">
        <ele>962.8</ele>
        <time>2024-08-09T08:16:59Z</time>
      </trkpt>
      <trkpt lat="45.06963" lon="6.0514">
        <ele>963</ele>
        <time>2024-08-09T08:17:00Z</time>
      </trkpt>
      <trkpt lat="45.06964" lon="6.05138">
        <ele>963.4</ele>
        <time>2024-08-09T08:17:01Z</time>
      </trkpt>
      <trkpt lat="45.06964" lon="6.05138">
        <ele>963.4</ele>
        <time>2024-08-09T08:17:02Z</time>
      </trkpt>
      <trkpt lat="45.06964" lon="6.05138">
        <ele>963.6</ele>
        <time>2024-08-09T08:17:03Z</time>
      </trkpt>
      <trkpt lat="45.06965" lon="6.05134">
        <ele>963.8</ele>
        <time>2024-08-09T08:17:04Z</time>
      </trkpt>
      <trkpt lat="45.06965" lon="6.05134">
        <ele>964.2</ele>
        <time>2024-08-09T08:17:05Z</time>
      </trkpt>
      <trkpt lat="45.06965" lon="6.05134">
        <ele>964.4</ele>
        <time>2024-08-09T08:17:06Z</time>
      </trkpt>
      <trkpt lat="45.06964" lon="6.0513">
        <ele>964.6</ele>
        <time>2024-08-09T08:17:07Z</time>
      </trkpt>
      <trkpt lat="45.06964" lon="6.0513">
        <ele>964.6</ele>
        <time>2024-08-09T08:17:08Z</time>
      </trkpt>
      <trkpt lat="45.06963" lon="6.05128">
        <ele>965</ele>
        <time>2024-08-09T08:17:09Z</time>
      </trkpt>
      <trkpt lat="45.06959" lon="6.05128">
        <ele>965.4</ele>
        <time>2024-08-09T08:17:10Z</time>
      </trkpt>
      <trkpt lat="45.06959" lon="6.05128">
        <ele>965.4</ele>
        <time>2024-08-09T08:17:11Z</time>
      </trkpt>
      <trkpt lat="45.06959" lon="6.05128">
        <ele>965.4</ele>
        <time>2024-08-09T08:17:12Z</time>
      </trkpt>
      <trkpt lat="45.06959" lon="6.05125">
        <ele>965.6</ele>
        <time>2024-08-09T08:17:13Z</time>
      </trkpt>
      <trkpt lat="45.06959" lon="6.05125">
        <ele>965.6</ele>
        <time>2024-08-09T08:17:14Z</time>
      </trkpt>
      <trkpt lat="45.0696" lon="6.0512">
        <ele>965.4</ele>
        <time>2024-08-09T08:17:15Z</time>
      </trkpt>
      <trkpt lat="45.0696" lon="6.0512">
        <ele>965.2</ele>
        <time>2024-08-09T08:17:16Z</time>
      </trkpt>
      <trkpt lat="45.0696" lon="6.05117">
        <ele>965</ele>
        <time>2024-08-09T08:17:17Z</time>
      </trkpt>
      <trkpt lat="45.0696" lon="6.05117">
        <ele>965</ele>
        <time>2024-08-09T08:17:18Z</time>
      </trkpt>
      <trkpt lat="45.0696" lon="6.05113">
        <ele>965.2</ele>
        <time>2024-08-09T08:17:19Z</time>
      </trkpt>
      <trkpt lat="45.0696" lon="6.05113">
        <ele>965.2</ele>
        <time>2024-08-09T08:17:20Z</time>
      </trkpt>
      <trkpt lat="45.06958" lon="6.05109">
        <ele>965.2</ele>
        <time>2024-08-09T08:17:21Z</time>
      </trkpt>
      <trkpt lat="45.06958" lon="6.05109">
        <ele>965.2</ele>
        <time>2024-08-09T08:17:22Z</time>
      </trkpt>
      <trkpt lat="45.06957" lon="6.05106">
        <ele>965.4</ele>
        <time>2024-08-09T08:17:23Z</time>
      </trkpt>
      <trkpt lat="45.06957" lon="6.05106">
        <ele>965.4</ele>
        <time>2024-08-09T08:17:24Z</time>
      </trkpt>
      <trkpt lat="45.06957" lon="6.05102">
        <ele>965.4</ele>
        <time>2024-08-09T08:17:25Z</time>
      </trkpt>
      <trkpt lat="45.06957" lon="6.05102">
        <ele>965.4</ele>
        <time>2024-08-09T08:17:26Z</time>
      </trkpt>
      <trkpt lat="45.06956" lon="6.05098">
        <ele>965.4</ele>
        <time>2024-08-09T08:17:27Z</time>
      </trkpt>
      <trkpt lat="45.06956" lon="6.05098">
        <ele>965.8</ele>
        <time>2024-08-09T08:17:28Z</time>
      </trkpt>
      <trkpt lat="45.06955" lon="6.05094">
        <ele>966</ele>
        <time>2024-08-09T08:17:29Z</time>
      </trkpt>
      <trkpt lat="45.06955" lon="6.05094">
        <ele>966</ele>
        <time>2024-08-09T08:17:30Z</time>
      </trkpt>
      <trkpt lat="45.06956" lon="6.0509">
        <ele>965.8</ele>
        <time>2024-08-09T08:17:31Z</time>
      </trkpt>
      <trkpt lat="45.06956" lon="6.0509">
        <ele>965.8</ele>
        <time>2024-08-09T08:17:32Z</time>
      </trkpt>
      <trkpt lat="45.06957" lon="6.05086">
        <ele>966</ele>
        <time>2024-08-09T08:17:33Z</time>
      </trkpt>
      <trkpt lat="45.06957" lon="6.05086">
        <ele>966.4</ele>
        <time>2024-08-09T08:17:34Z</time>
      </trkpt>
      <trkpt lat="45.06957" lon="6.05082">
        <ele>966.4</ele>
        <time>2024-08-09T08:17:35Z</time>
      </trkpt>
      <trkpt lat="45.06957" lon="6.05082">
        <ele>966.6</ele>
        <time>2024-08-09T08:17:36Z</time>
      </trkpt>
      <trkpt lat="45.06955" lon="6.05079">
        <ele>966.6</ele>
        <time>2024-08-09T08:17:37Z</time>
      </trkpt>
      <trkpt lat="45.06955" lon="6.05079">
        <ele>966.4</ele>
        <time>2024-08-09T08:17:38Z</time>
      </trkpt>
      <trkpt lat="45.06955" lon="6.05076">
        <ele>966.4</ele>
        <time>2024-08-09T08:17:39Z</time>
      </trkpt>
      <trkpt lat="45.06955" lon="6.05076">
        <ele>966.6</ele>
        <time>2024-08-09T08:17:40Z</time>
      </trkpt>
      <trkpt lat="45.06954" lon="6.05071">
        <ele>966.8</ele>
        <time>2024-08-09T08:17:41Z</time>
      </trkpt>
      <trkpt lat="45.06953" lon="6.05069">
        <ele>966.8</ele>
        <time>2024-08-09T08:17:42Z</time>
      </trkpt>
      <trkpt lat="45.06953" lon="6.05069">
        <ele>966.8</ele>
        <time>2024-08-09T08:17:43Z</time>
      </trkpt>
      <trkpt lat="45.06952" lon="6.05066">
        <ele>966.8</ele>
        <time>2024-08-09T08:17:44Z</time>
      </trkpt>
      <trkpt lat="45.06952" lon="6.05066">
        <ele>966.8</ele>
        <time>2024-08-09T08:17:45Z</time>
      </trkpt>
      <trkpt lat="45.0695" lon="6.05063">
        <ele>967</ele>
        <time>2024-08-09T08:17:46Z</time>
      </trkpt>
      <trkpt lat="45.0695" lon="6.05063">
        <ele>967</ele>
        <time>2024-08-09T08:17:47Z</time>
      </trkpt>
      <trkpt lat="45.06948" lon="6.0506">
        <ele>967.4</ele>
        <time>2024-08-09T08:17:48Z</time>
      </trkpt>
      <trkpt lat="45.06948" lon="6.0506">
        <ele>967.6</ele>
        <time>2024-08-09T08:17:49Z</time>
      </trkpt>
      <trkpt lat="45.06946" lon="6.05058">
        <ele>967.6</ele>
        <time>2024-08-09T08:17:50Z</time>
      </trkpt>
      <trkpt lat="45.06946" lon="6.05058">
        <ele>967.4</ele>
        <time>2024-08-09T08:17:51Z</time>
      </trkpt>
      <trkpt lat="45.06943" lon="6.05055">
        <ele>967.4</ele>
        <time>2024-08-09T08:17:52Z</time>
      </trkpt>
      <trkpt lat="45.06943" lon="6.05055">
        <ele>967.4</ele>
        <time>2024-08-09T08:17:53Z</time>
      </trkpt>
      <trkpt lat="45.06941" lon="6.05053">
        <ele>967.4</ele>
        <time>2024-08-09T08:17:54Z</time>
      </trkpt>
      <trkpt lat="45.06941" lon="6.05053">
        <ele>967.4</ele>
        <time>2024-08-09T08:17:55Z</time>
      </trkpt>
      <trkpt lat="45.06939" lon="6.05051">
        <ele>967.4</ele>
        <time>2024-08-09T08:17:56Z</time>
      </trkpt>
      <trkpt lat="45.06937" lon="6.05049">
        <ele>967.4</ele>
        <time>2024-08-09T08:17:57Z</time>
      </trkpt>
      <trkpt lat="45.06937" lon="6.05049">
        <ele>967.4</ele>
        <time>2024-08-09T08:17:58Z</time>
      </trkpt>
      <trkpt lat="45.06934" lon="6.05046">
        <ele>967.6</ele>
        <time>2024-08-09T08:17:59Z</time>
      </trkpt>
      <trkpt lat="45.06933" lon="6.05044">
        <ele>967.4</ele>
        <time>2024-08-09T08:18:00Z</time>
      </trkpt>
      <trkpt lat="45.06933" lon="6.05044">
        <ele>967.4</ele>
        <time>2024-08-09T08:18:01Z</time>
      </trkpt>
      <trkpt lat="45.0693" lon="6.05041">
        <ele>967.4</ele>
        <time>2024-08-09T08:18:02Z</time>
      </trkpt>
      <trkpt lat="45.0693" lon="6.05041">
        <ele>967.4</ele>
        <time>2024-08-09T08:18:03Z</time>
      </trkpt>
      <trkpt lat="45.06928" lon="6.05038">
        <ele>967.4</ele>
        <time>2024-08-09T08:18:04Z</time>
      </trkpt>
      <trkpt lat="45.06928" lon="6.05038">
        <ele>967.4</ele>
        <time>2024-08-09T08:18:05Z</time>
      </trkpt>
      <trkpt lat="45.06926" lon="6.05035">
        <ele>967</ele>
        <time>2024-08-09T08:18:06Z</time>
      </trkpt>
      <trkpt lat="45.06926" lon="6.05035">
        <ele>967</ele>
        <time>2024-08-09T08:18:07Z</time>
      </trkpt>
      <trkpt lat="45.06924" lon="6.05033">
        <ele>967</ele>
        <time>2024-08-09T08:18:08Z</time>
      </trkpt>
      <trkpt lat="45.06924" lon="6.05033">
        <ele>967</ele>
        <time>2024-08-09T08:18:09Z</time>
      </trkpt>
      <trkpt lat="45.06922" lon="6.0503">
        <ele>967</ele>
        <time>2024-08-09T08:18:10Z</time>
      </trkpt>
      <trkpt lat="45.06922" lon="6.0503">
        <ele>967</ele>
        <time>2024-08-09T08:18:11Z</time>
      </trkpt>
      <trkpt lat="45.06919" lon="6.05027">
        <ele>967</ele>
        <time>2024-08-09T08:18:12Z</time>
      </trkpt>
      <trkpt lat="45.06919" lon="6.05027">
        <ele>967</ele>
        <time>2024-08-09T08:18:13Z</time>
      </trkpt>
      <trkpt lat="45.06918" lon="6.05025">
        <ele>967</ele>
        <time>2024-08-09T08:18:14Z</time>
      </trkpt>
      <trkpt lat="45.06918" lon="6.05025">
        <ele>966.8</ele>
        <time>2024-08-09T08:18:15Z</time>
      </trkpt>
      <trkpt lat="45.06916" lon="6.05022">
        <ele>966.8</ele>
        <time>2024-08-09T08:18:16Z</time>
      </trkpt>
      <trkpt lat="45.06916" lon="6.05022">
        <ele>966.8</ele>
        <time>2024-08-09T08:18:17Z</time>
      </trkpt>
      <trkpt lat="45.06914" lon="6.05019">
        <ele>967</ele>
        <time>2024-08-09T08:18:18Z</time>
      </trkpt>
      <trkpt lat="45.06914" lon="6.05019">
        <ele>967</ele>
        <time>2024-08-09T08:18:19Z</time>
      </trkpt>
      <trkpt lat="45.06912" lon="6.05016">
        <ele>966.8</ele>
        <time>2024-08-09T08:18:20Z</time>
      </trkpt>
      <trkpt lat="45.06912" lon="6.05016">
        <ele>967</ele>
        <time>2024-08-09T08:18:21Z</time>
      </trkpt>
      <trkpt lat="45.06909" lon="6.05014">
        <ele>967.2</ele>
        <time>2024-08-09T08:18:22Z</time>
      </trkpt>
      <trkpt lat="45.06909" lon="6.05014">
        <ele>967.4</ele>
        <time>2024-08-09T08:18:23Z</time>
      </trkpt>
      <trkpt lat="45.06907" lon="6.05011">
        <ele>967.4</ele>
        <time>2024-08-09T08:18:24Z</time>
      </trkpt>
      <trkpt lat="45.06907" lon="6.05011">
        <ele>967.6</ele>
        <time>2024-08-09T08:18:25Z</time>
      </trkpt>
      <trkpt lat="45.06905" lon="6.05009">
        <ele>967.8</ele>
        <time>2024-08-09T08:18:26Z</time>
      </trkpt>
      <trkpt lat="45.06905" lon="6.05009">
        <ele>967.8</ele>
        <time>2024-08-09T08:18:27Z</time>
      </trkpt>
      <trkpt lat="45.06902" lon="6.05007">
        <ele>967.8</ele>
        <time>2024-08-09T08:18:28Z</time>
      </trkpt>
      <trkpt lat="45.06902" lon="6.05007">
        <ele>967.6</ele>
        <time>2024-08-09T08:18:29Z</time>
      </trkpt>
      <trkpt lat="45.06901" lon="6.05005">
        <ele>967.6</ele>
        <time>2024-08-09T08:18:30Z</time>
      </trkpt>
      <trkpt lat="45.06901" lon="6.05005">
        <ele>967.6</ele>
        <time>2024-08-09T08:18:31Z</time>
      </trkpt>
      <trkpt lat="45.06898" lon="6.05003">
        <ele>967.6</ele>
        <time>2024-08-09T08:18:32Z</time>
      </trkpt>
      <trkpt lat="45.06898" lon="6.05003">
        <ele>967.6</ele>
        <time>2024-08-09T08:18:33Z</time>
      </trkpt>
      <trkpt lat="45.06896" lon="6.05001">
        <ele>967.8</ele>
        <time>2024-08-09T08:18:34Z</time>
      </trkpt>
      <trkpt lat="45.06896" lon="6.05001">
        <ele>967.8</ele>
        <time>2024-08-09T08:18:35Z</time>
      </trkpt>
      <trkpt lat="45.06893" lon="6.04999">
        <ele>967.8</ele>
        <time>2024-08-09T08:18:36Z</time>
      </trkpt>
      <trkpt lat="45.06893" lon="6.04999">
        <ele>967.8</ele>
        <time>2024-08-09T08:18:37Z</time>
      </trkpt>
      <trkpt lat="45.06892" lon="6.04996">
        <ele>968</ele>
        <time>2024-08-09T08:18:38Z</time>
      </trkpt>
      <trkpt lat="45.06892" lon="6.04996">
        <ele>968</ele>
        <time>2024-08-09T08:18:39Z</time>
      </trkpt>
      <trkpt lat="45.06891" lon="6.04994">
        <ele>968</ele>
        <time>2024-08-09T08:18:40Z</time>
      </trkpt>
      <trkpt lat="45.06891" lon="6.04994">
        <ele>968.2</ele>
        <time>2024-08-09T08:18:41Z</time>
      </trkpt>
      <trkpt lat="45.06889" lon="6.04992">
        <ele>968.4</ele>
        <time>2024-08-09T08:18:42Z</time>
      </trkpt>
      <trkpt lat="45.06889" lon="6.04992">
        <ele>968.6</ele>
        <time>2024-08-09T08:18:43Z</time>
      </trkpt>
      <trkpt lat="45.06887" lon="6.04989">
        <ele>968.6</ele>
        <time>2024-08-09T08:18:44Z</time>
      </trkpt>
      <trkpt lat="45.06887" lon="6.04989">
        <ele>968.6</ele>
        <time>2024-08-09T08:18:45Z</time>
      </trkpt>
      <trkpt lat="45.06885" lon="6.04987">
        <ele>968.6</ele>
        <time>2024-08-09T08:18:46Z</time>
      </trkpt>
      <trkpt lat="45.06885" lon="6.04987">
        <ele>968.8</ele>
        <time>2024-08-09T08:18:47Z</time>
      </trkpt>
      <trkpt lat="45.06883" lon="6.04985">
        <ele>968.8</ele>
        <time>2024-08-09T08:18:48Z</time>
      </trkpt>
      <trkpt lat="45.06883" lon="6.04985">
        <ele>969</ele>
        <time>2024-08-09T08:18:49Z</time>
      </trkpt>
      <trkpt lat="45.0688" lon="6.04983">
        <ele>969.4</ele>
        <time>2024-08-09T08:18:50Z</time>
      </trkpt>
      <trkpt lat="45.0688" lon="6.04983">
        <ele>969.4</ele>
        <time>2024-08-09T08:18:51Z</time>
      </trkpt>
      <trkpt lat="45.06877" lon="6.04981">
        <ele>969.4</ele>
        <time>2024-08-09T08:18:52Z</time>
      </trkpt>
      <trkpt lat="45.06877" lon="6.04981">
        <ele>969.6</ele>
        <time>2024-08-09T08:18:53Z</time>
      </trkpt>
      <trkpt lat="45.06875" lon="6.04979">
        <ele>969.6</ele>
        <time>2024-08-09T08:18:54Z</time>
      </trkpt>
      <trkpt lat="45.06875" lon="6.04979">
        <ele>969.8</ele>
        <time>2024-08-09T08:18:55Z</time>
      </trkpt>
      <trkpt lat="45.06873" lon="6.04977">
        <ele>970.2</ele>
        <time>2024-08-09T08:18:56Z</time>
      </trkpt>
      <trkpt lat="45.06873" lon="6.04977">
        <ele>970.4</ele>
        <time>2024-08-09T08:18:57Z</time>
      </trkpt>
      <trkpt lat="45.06872" lon="6.04976">
        <ele>970.8</ele>
        <time>2024-08-09T08:18:58Z</time>
      </trkpt>
      <trkpt lat="45.06872" lon="6.04976">
        <ele>970.8</ele>
        <time>2024-08-09T08:18:59Z</time>
      </trkpt>
      <trkpt lat="45.06872" lon="6.04976">
        <ele>971</ele>
        <time>2024-08-09T08:19:00Z</time>
      </trkpt>
      <trkpt lat="45.06872" lon="6.04976">
        <ele>971.2</ele>
        <time>2024-08-09T08:19:01Z</time>
      </trkpt>
      <trkpt lat="45.06872" lon="6.04976">
        <ele>971.4</ele>
        <time>2024-08-09T08:19:02Z</time>
      </trkpt>
      <trkpt lat="45.06872" lon="6.04976">
        <ele>971.4</ele>
        <time>2024-08-09T08:19:03Z</time>
      </trkpt>
      <trkpt lat="45.06872" lon="6.04976">
        <ele>971.4</ele>
        <time>2024-08-09T08:19:04Z</time>
      </trkpt>
      <trkpt lat="45.06872" lon="6.04976">
        <ele>971.6</ele>
        <time>2024-08-09T08:19:05Z</time>
      </trkpt>
      <trkpt lat="45.0687" lon="6.04976">
        <ele>971.6</ele>
        <time>2024-08-09T08:19:06Z</time>
      </trkpt>
      <trkpt lat="45.0687" lon="6.04976">
        <ele>971.6</ele>
        <time>2024-08-09T08:19:07Z</time>
      </trkpt>
      <trkpt lat="45.0687" lon="6.04976">
        <ele>971.4</ele>
        <time>2024-08-09T08:19:08Z</time>
      </trkpt>
      <trkpt lat="45.06867" lon="6.04974">
        <ele>971.4</ele>
        <time>2024-08-09T08:19:09Z</time>
      </trkpt>
      <trkpt lat="45.06867" lon="6.04974">
        <ele>971.6</ele>
        <time>2024-08-09T08:19:10Z</time>
      </trkpt>
      <trkpt lat="45.06865" lon="6.04972">
        <ele>971.8</ele>
        <time>2024-08-09T08:19:11Z</time>
      </trkpt>
      <trkpt lat="45.06858" lon="6.0497">
        <ele>972.2</ele>
        <time>2024-08-09T08:19:12Z</time>
      </trkpt>
      <trkpt lat="45.06858" lon="6.0497">
        <ele>972.8</ele>
        <time>2024-08-09T08:19:13Z</time>
      </trkpt>
      <trkpt lat="45.06856" lon="6.04968">
        <ele>972.8</ele>
        <time>2024-08-09T08:19:14Z</time>
      </trkpt>
      <trkpt lat="45.06856" lon="6.04968">
        <ele>972.6</ele>
        <time>2024-08-09T08:19:15Z</time>
      </trkpt>
      <trkpt lat="45.06855" lon="6.04966">
        <ele>972.6</ele>
        <time>2024-08-09T08:19:16Z</time>
      </trkpt>
      <trkpt lat="45.06855" lon="6.04966">
        <ele>973</ele>
        <time>2024-08-09T08:19:17Z</time>
      </trkpt>
      <trkpt lat="45.06855" lon="6.04966">
        <ele>973.2</ele>
        <time>2024-08-09T08:19:18Z</time>
      </trkpt>
      <trkpt lat="45.06853" lon="6.04964">
        <ele>973.2</ele>
        <time>2024-08-09T08:19:19Z</time>
      </trkpt>
      <trkpt lat="45.06853" lon="6.04964">
        <ele>973.4</ele>
        <time>2024-08-09T08:19:20Z</time>
      </trkpt>
      <trkpt lat="45.06853" lon="6.04964">
        <ele>973.4</ele>
        <time>2024-08-09T08:19:21Z</time>
      </trkpt>
      <trkpt lat="45.06853" lon="6.04964">
        <ele>973.6</ele>
        <time>2024-08-09T08:19:22Z</time>
      </trkpt>
      <trkpt lat="45.06853" lon="6.04964">
        <ele>974</ele>
        <time>2024-08-09T08:19:23Z</time>
      </trkpt>
      <trkpt lat="45.06851" lon="6.04964">
        <ele>974.2</ele>
        <time>2024-08-09T08:19:24Z</time>
      </trkpt>
      <trkpt lat="45.06851" lon="6.04964">
        <ele>974.4</ele>
        <time>2024-08-09T08:19:25Z</time>
      </trkpt>
      <trkpt lat="45.06851" lon="6.04964">
        <ele>974.8</ele>
        <time>2024-08-09T08:19:26Z</time>
      </trkpt>
      <trkpt lat="45.06851" lon="6.04964">
        <ele>974.8</ele>
        <time>2024-08-09T08:19:27Z</time>
      </trkpt>
      <trkpt lat="45.06851" lon="6.04964">
        <ele>975</ele>
        <time>2024-08-09T08:19:28Z</time>
      </trkpt>
      <trkpt lat="45.06849" lon="6.04962">
        <ele>975.2</ele>
        <time>2024-08-09T08:19:29Z</time>
      </trkpt>
      <trkpt lat="45.06849" lon="6.04962">
        <ele>975.4</ele>
        <time>2024-08-09T08:19:30Z</time>
      </trkpt>
      <trkpt lat="45.06849" lon="6.04962">
        <ele>975.6</ele>
        <time>2024-08-09T08:19:31Z</time>
      </trkpt>
      <trkpt lat="45.06848" lon="6.0496">
        <ele>975.8</ele>
        <time>2024-08-09T08:19:32Z</time>
      </trkpt>
      <trkpt lat="45.06848" lon="6.0496">
        <ele>976.2</ele>
        <time>2024-08-09T08:19:33Z</time>
      </trkpt>
      <trkpt lat="45.06848" lon="6.0496">
        <ele>976.8</ele>
        <time>2024-08-09T08:19:34Z</time>
      </trkpt>
      <trkpt lat="45.06845" lon="6.04959">
        <ele>977</ele>
        <time>2024-08-09T08:19:35Z</time>
      </trkpt>
      <trkpt lat="45.06845" lon="6.04959">
        <ele>977</ele>
        <time>2024-08-09T08:19:36Z</time>
      </trkpt>
      <trkpt lat="45.06843" lon="6.04957">
        <ele>977</ele>
        <time>2024-08-09T08:19:37Z</time>
      </trkpt>
      <trkpt lat="45.06843" lon="6.04957">
        <ele>977</ele>
        <time>2024-08-09T08:19:38Z</time>
      </trkpt>
      <trkpt lat="45.06841" lon="6.04955">
        <ele>977</ele>
        <time>2024-08-09T08:19:39Z</time>
      </trkpt>
      <trkpt lat="45.06841" lon="6.04955">
        <ele>977</ele>
        <time>2024-08-09T08:19:40Z</time>
      </trkpt>
      <trkpt lat="45.06839" lon="6.04952">
        <ele>977</ele>
        <time>2024-08-09T08:19:41Z</time>
      </trkpt>
      <trkpt lat="45.06839" lon="6.04952">
        <ele>976.8</ele>
        <time>2024-08-09T08:19:42Z</time>
      </trkpt>
      <trkpt lat="45.06836" lon="6.04951">
        <ele>976.6</ele>
        <time>2024-08-09T08:19:43Z</time>
      </trkpt>
      <trkpt lat="45.06836" lon="6.04951">
        <ele>976.6</ele>
        <time>2024-08-09T08:19:44Z</time>
      </trkpt>
      <trkpt lat="45.06836" lon="6.04951">
        <ele>976.6</ele>
        <time>2024-08-09T08:19:45Z</time>
      </trkpt>
      <trkpt lat="45.06834" lon="6.04949">
        <ele>976.8</ele>
        <time>2024-08-09T08:19:46Z</time>
      </trkpt>
      <trkpt lat="45.06834" lon="6.04949">
        <ele>977.2</ele>
        <time>2024-08-09T08:19:47Z</time>
      </trkpt>
      <trkpt lat="45.06834" lon="6.04949">
        <ele>977.4</ele>
        <time>2024-08-09T08:19:48Z</time>
      </trkpt>
      <trkpt lat="45.06832" lon="6.04949">
        <ele>977.6</ele>
        <time>2024-08-09T08:19:49Z</time>
      </trkpt>
      <trkpt lat="45.06832" lon="6.04949">
        <ele>977.8</ele>
        <time>2024-08-09T08:19:50Z</time>
      </trkpt>
      <trkpt lat="45.06832" lon="6.04949">
        <ele>978</ele>
        <time>2024-08-09T08:19:51Z</time>
      </trkpt>
      <trkpt lat="45.0683" lon="6.04948">
        <ele>978.2</ele>
        <time>2024-08-09T08:19:52Z</time>
      </trkpt>
      <trkpt lat="45.0683" lon="6.04948">
        <ele>978.2</ele>
        <time>2024-08-09T08:19:53Z</time>
      </trkpt>
      <trkpt lat="45.0683" lon="6.04948">
        <ele>978.4</ele>
        <time>2024-08-09T08:19:54Z</time>
      </trkpt>
      <trkpt lat="45.06828" lon="6.04947">
        <ele>978.8</ele>
        <time>2024-08-09T08:19:55Z</time>
      </trkpt>
      <trkpt lat="45.06828" lon="6.04947">
        <ele>979</ele>
        <time>2024-08-09T08:19:56Z</time>
      </trkpt>
      <trkpt lat="45.06828" lon="6.04947">
        <ele>979.2</ele>
        <time>2024-08-09T08:19:57Z</time>
      </trkpt>
      <trkpt lat="45.06825" lon="6.04946">
        <ele>979.4</ele>
        <time>2024-08-09T08:19:58Z</time>
      </trkpt>
      <trkpt lat="45.06825" lon="6.04946">
        <ele>979.4</ele>
        <time>2024-08-09T08:19:59Z</time>
      </trkpt>
      <trkpt lat="45.06823" lon="6.04945">
        <ele>979.4</ele>
        <time>2024-08-09T08:20:00Z</time>
      </trkpt>
      <trkpt lat="45.06821" lon="6.04945">
        <ele>980</ele>
        <time>2024-08-09T08:20:01Z</time>
      </trkpt>
      <trkpt lat="45.06821" lon="6.04945">
        <ele>980.6</ele>
        <time>2024-08-09T08:20:02Z</time>
      </trkpt>
      <trkpt lat="45.06821" lon="6.04945">
        <ele>980.8</ele>
        <time>2024-08-09T08:20:03Z</time>
      </trkpt>
      <trkpt lat="45.06818" lon="6.04944">
        <ele>980.8</ele>
        <time>2024-08-09T08:20:04Z</time>
      </trkpt>
      <trkpt lat="45.06818" lon="6.04944">
        <ele>981</ele>
        <time>2024-08-09T08:20:05Z</time>
      </trkpt>
      <trkpt lat="45.06818" lon="6.04944">
        <ele>981</ele>
        <time>2024-08-09T08:20:06Z</time>
      </trkpt>
      <trkpt lat="45.06816" lon="6.04944">
        <ele>981.2</ele>
        <time>2024-08-09T08:20:07Z</time>
      </trkpt>
      <trkpt lat="45.06816" lon="6.04944">
        <ele>981.2</ele>
        <time>2024-08-09T08:20:08Z</time>
      </trkpt>
      <trkpt lat="45.06814" lon="6.04943">
        <ele>981.4</ele>
        <time>2024-08-09T08:20:09Z</time>
      </trkpt>
      <trkpt lat="45.06814" lon="6.04943">
        <ele>981.8</ele>
        <time>2024-08-09T08:20:10Z</time>
      </trkpt>
      <trkpt lat="45.06814" lon="6.04943">
        <ele>982</ele>
        <time>2024-08-09T08:20:11Z</time>
      </trkpt>
      <trkpt lat="45.06812" lon="6.04941">
        <ele>982</ele>
        <time>2024-08-09T08:20:12Z</time>
      </trkpt>
      <trkpt lat="45.06809" lon="6.0494">
        <ele>982.4</ele>
        <time>2024-08-09T08:20:13Z</time>
      </trkpt>
      <trkpt lat="45.06809" lon="6.0494">
        <ele>982.6</ele>
        <time>2024-08-09T08:20:14Z</time>
      </trkpt>
      <trkpt lat="45.06809" lon="6.0494">
        <ele>982.6</ele>
        <time>2024-08-09T08:20:15Z</time>
      </trkpt>
      <trkpt lat="45.06809" lon="6.0494">
        <ele>982.8</ele>
        <time>2024-08-09T08:20:16Z</time>
      </trkpt>
      <trkpt lat="45.06806" lon="6.04939">
        <ele>983</ele>
        <time>2024-08-09T08:20:17Z</time>
      </trkpt>
      <trkpt lat="45.06806" lon="6.04939">
        <ele>983.2</ele>
        <time>2024-08-09T08:20:18Z</time>
      </trkpt>
      <trkpt lat="45.06806" lon="6.04939">
        <ele>983.6</ele>
        <time>2024-08-09T08:20:19Z</time>
      </trkpt>
      <trkpt lat="45.06804" lon="6.04938">
        <ele>983.6</ele>
        <time>2024-08-09T08:20:20Z</time>
      </trkpt>
      <trkpt lat="45.06804" lon="6.04938">
        <ele>983.6</ele>
        <time>2024-08-09T08:20:21Z</time>
      </trkpt>
      <trkpt lat="45.06804" lon="6.04938">
        <ele>984</ele>
        <time>2024-08-09T08:20:22Z</time>
      </trkpt>
      <trkpt lat="45.06802" lon="6.04937">
        <ele>984.2</ele>
        <time>2024-08-09T08:20:23Z</time>
      </trkpt>
      <trkpt lat="45.06802" lon="6.04937">
        <ele>984.4</ele>
        <time>2024-08-09T08:20:24Z</time>
      </trkpt>
      <trkpt lat="45.068" lon="6.04936">
        <ele>984.4</ele>
        <time>2024-08-09T08:20:25Z</time>
      </trkpt>
      <trkpt lat="45.068" lon="6.04936">
        <ele>984.6</ele>
        <time>2024-08-09T08:20:26Z</time>
      </trkpt>
      <trkpt lat="45.068" lon="6.04936">
        <ele>985</ele>
        <time>2024-08-09T08:20:27Z</time>
      </trkpt>
      <trkpt lat="45.068" lon="6.04936">
        <ele>985.2</ele>
        <time>2024-08-09T08:20:28Z</time>
      </trkpt>
      <trkpt lat="45.06798" lon="6.04934">
        <ele>985.2</ele>
        <time>2024-08-09T08:20:29Z</time>
      </trkpt>
      <trkpt lat="45.06798" lon="6.04934">
        <ele>985.4</ele>
        <time>2024-08-09T08:20:30Z</time>
      </trkpt>
      <trkpt lat="45.06796" lon="6.04933">
        <ele>985.8</ele>
        <time>2024-08-09T08:20:31Z</time>
      </trkpt>
      <trkpt lat="45.06796" lon="6.04933">
        <ele>986.2</ele>
        <time>2024-08-09T08:20:32Z</time>
      </trkpt>
      <trkpt lat="45.06794" lon="6.04931">
        <ele>986.2</ele>
        <time>2024-08-09T08:20:33Z</time>
      </trkpt>
      <trkpt lat="45.06794" lon="6.04931">
        <ele>986.2</ele>
        <time>2024-08-09T08:20:34Z</time>
      </trkpt>
      <trkpt lat="45.06792" lon="6.0493">
        <ele>986.2</ele>
        <time>2024-08-09T08:20:35Z</time>
      </trkpt>
      <trkpt lat="45.06792" lon="6.0493">
        <ele>986.6</ele>
        <time>2024-08-09T08:20:36Z</time>
      </trkpt>
      <trkpt lat="45.06792" lon="6.0493">
        <ele>987</ele>
        <time>2024-08-09T08:20:37Z</time>
      </trkpt>
      <trkpt lat="45.0679" lon="6.04927">
        <ele>987.2</ele>
        <time>2024-08-09T08:20:38Z</time>
      </trkpt>
      <trkpt lat="45.0679" lon="6.04927">
        <ele>987.4</ele>
        <time>2024-08-09T08:20:39Z</time>
      </trkpt>
      <trkpt lat="45.0679" lon="6.04927">
        <ele>987.4</ele>
        <time>2024-08-09T08:20:40Z</time>
      </trkpt>
      <trkpt lat="45.06789" lon="6.04925">
        <ele>987.8</ele>
        <time>2024-08-09T08:20:41Z</time>
      </trkpt>
      <trkpt lat="45.06789" lon="6.04925">
        <ele>988.2</ele>
        <time>2024-08-09T08:20:42Z</time>
      </trkpt>
      <trkpt lat="45.06783" lon="6.04923">
        <ele>988.2</ele>
        <time>2024-08-09T08:20:43Z</time>
      </trkpt>
      <trkpt lat="45.06778" lon="6.04921">
        <ele>988.4</ele>
        <time>2024-08-09T08:20:44Z</time>
      </trkpt>
      <trkpt lat="45.06773" lon="6.04919">
        <ele>988.4</ele>
        <time>2024-08-09T08:20:45Z</time>
      </trkpt>
      <trkpt lat="45.0677" lon="6.04918">
        <ele>988.4</ele>
        <time>2024-08-09T08:20:46Z</time>
      </trkpt>
      <trkpt lat="45.06766" lon="6.04918">
        <ele>988.6</ele>
        <time>2024-08-09T08:20:47Z</time>
      </trkpt>
      <trkpt lat="45.06765" lon="6.04918">
        <ele>988.6</ele>
        <time>2024-08-09T08:20:48Z</time>
      </trkpt>
      <trkpt lat="45.06765" lon="6.04918">
        <ele>988.8</ele>
        <time>2024-08-09T08:20:49Z</time>
      </trkpt>
      <trkpt lat="45.06761" lon="6.04918">
        <ele>988.8</ele>
        <time>2024-08-09T08:20:50Z</time>
      </trkpt>
      <trkpt lat="45.06761" lon="6.04918">
        <ele>988.6</ele>
        <time>2024-08-09T08:20:51Z</time>
      </trkpt>
      <trkpt lat="45.06761" lon="6.04918">
        <ele>988.6</ele>
        <time>2024-08-09T08:20:52Z</time>
      </trkpt>
      <trkpt lat="45.06761" lon="6.04918">
        <ele>988.8</ele>
        <time>2024-08-09T08:20:53Z</time>
      </trkpt>
      <trkpt lat="45.06759" lon="6.04916">
        <ele>988.8</ele>
        <time>2024-08-09T08:20:54Z</time>
      </trkpt>
      <trkpt lat="45.06759" lon="6.04916">
        <ele>988.8</ele>
        <time>2024-08-09T08:20:55Z</time>
      </trkpt>
      <trkpt lat="45.06759" lon="6.04916">
        <ele>988.8</ele>
        <time>2024-08-09T08:20:56Z</time>
      </trkpt>
      <trkpt lat="45.06759" lon="6.04916">
        <ele>988.8</ele>
        <time>2024-08-09T08:20:57Z</time>
      </trkpt>
      <trkpt lat="45.06757" lon="6.04916">
        <ele>988.6</ele>
        <time>2024-08-09T08:20:58Z</time>
      </trkpt>
      <trkpt lat="45.06757" lon="6.04916">
        <ele>988.6</ele>
        <time>2024-08-09T08:20:59Z</time>
      </trkpt>
      <trkpt lat="45.06757" lon="6.04916">
        <ele>988.8</ele>
        <time>2024-08-09T08:21:00Z</time>
      </trkpt>
      <trkpt lat="45.06757" lon="6.04916">
        <ele>988.8</ele>
        <time>2024-08-09T08:21:01Z</time>
      </trkpt>
      <trkpt lat="45.06755" lon="6.04914">
        <ele>988.8</ele>
        <time>2024-08-09T08:21:02Z</time>
      </trkpt>
      <trkpt lat="45.06755" lon="6.04914">
        <ele>988.8</ele>
        <time>2024-08-09T08:21:03Z</time>
      </trkpt>
      <trkpt lat="45.06753" lon="6.04912">
        <ele>988.8</ele>
        <time>2024-08-09T08:21:04Z</time>
      </trkpt>
      <trkpt lat="45.06753" lon="6.04912">
        <ele>989.2</ele>
        <time>2024-08-09T08:21:05Z</time>
      </trkpt>
      <trkpt lat="45.06752" lon="6.0491">
        <ele>989.2</ele>
        <time>2024-08-09T08:21:06Z</time>
      </trkpt>
      <trkpt lat="45.06752" lon="6.0491">
        <ele>989.4</ele>
        <time>2024-08-09T08:21:07Z</time>
      </trkpt>
      <trkpt lat="45.06752" lon="6.0491">
        <ele>989.8</ele>
        <time>2024-08-09T08:21:08Z</time>
      </trkpt>
      <trkpt lat="45.06752" lon="6.0491">
        <ele>989.8</ele>
        <time>2024-08-09T08:21:09Z</time>
      </trkpt>
      <trkpt lat="45.06752" lon="6.0491">
        <ele>990</ele>
        <time>2024-08-09T08:21:10Z</time>
      </trkpt>
      <trkpt lat="45.06752" lon="6.0491">
        <ele>990</ele>
        <time>2024-08-09T08:21:11Z</time>
      </trkpt>
      <trkpt lat="45.06752" lon="6.0491">
        <ele>990</ele>
        <time>2024-08-09T08:21:12Z</time>
      </trkpt>
      <trkpt lat="45.06752" lon="6.0491">
        <ele>990</ele>
        <time>2024-08-09T08:21:13Z</time>
      </trkpt>
      <trkpt lat="45.06752" lon="6.0491">
        <ele>989.8</ele>
        <time>2024-08-09T08:21:14Z</time>
      </trkpt>
      <trkpt lat="45.06752" lon="6.0491">
        <ele>989.8</ele>
        <time>2024-08-09T08:21:15Z</time>
      </trkpt>
      <trkpt lat="45.06752" lon="6.0491">
        <ele>990</ele>
        <time>2024-08-09T08:21:16Z</time>
      </trkpt>
      <trkpt lat="45.06752" lon="6.0491">
        <ele>990</ele>
        <time>2024-08-09T08:21:17Z</time>
      </trkpt>
      <trkpt lat="45.06752" lon="6.0491">
        <ele>990</ele>
        <time>2024-08-09T08:21:18Z</time>
      </trkpt>
      <trkpt lat="45.06752" lon="6.0491">
        <ele>990.2</ele>
        <time>2024-08-09T08:21:19Z</time>
      </trkpt>
      <trkpt lat="45.06752" lon="6.0491">
        <ele>990.2</ele>
        <time>2024-08-09T08:21:20Z</time>
      </trkpt>
      <trkpt lat="45.06752" lon="6.0491">
        <ele>990</ele>
        <time>2024-08-09T08:21:21Z</time>
      </trkpt>
      <trkpt lat="45.06752" lon="6.0491">
        <ele>990</ele>
        <time>2024-08-09T08:21:22Z</time>
      </trkpt>
      <trkpt lat="45.06752" lon="6.0491">
        <ele>990</ele>
        <time>2024-08-09T08:21:23Z</time>
      </trkpt>
      <trkpt lat="45.06752" lon="6.0491">
        <ele>990</ele>
        <time>2024-08-09T08:21:24Z</time>
      </trkpt>
      <trkpt lat="45.06752" lon="6.0491">
        <ele>990</ele>
        <time>2024-08-09T08:21:25Z</time>
      </trkpt>
      <trkpt lat="45.06752" lon="6.0491">
        <ele>990</ele>
        <time>2024-08-09T08:21:26Z</time>
      </trkpt>
      <trkpt lat="45.06752" lon="6.0491">
        <ele>990</ele>
        <time>2024-08-09T08:21:27Z</time>
      </trkpt>
      <trkpt lat="45.06752" lon="6.0491">
        <ele>989.8</ele>
        <time>2024-08-09T08:21:28Z</time>
      </trkpt>
      <trkpt lat="45.06752" lon="6.0491">
        <ele>989.8</ele>
        <time>2024-08-09T08:21:29Z</time>
      </trkpt>
      <trkpt lat="45.06752" lon="6.0491">
        <ele>989.8</ele>
        <time>2024-08-09T08:21:30Z</time>
      </trkpt>
      <trkpt lat="45.06752" lon="6.0491">
        <ele>989.8</ele>
        <time>2024-08-09T08:21:31Z</time>
      </trkpt>
      <trkpt lat="45.06752" lon="6.0491">
        <ele>989.8</ele>
        <time>2024-08-09T08:21:32Z</time>
      </trkpt>
      <trkpt lat="45.06752" lon="6.0491">
        <ele>989.8</ele>
        <time>2024-08-09T08:21:33Z</time>
      </trkpt>
      <trkpt lat="45.06752" lon="6.0491">
        <ele>990</ele>
        <time>2024-08-09T08:21:34Z</time>
      </trkpt>
      <trkpt lat="45.06752" lon="6.0491">
        <ele>990</ele>
        <time>2024-08-09T08:21:35Z</time>
      </trkpt>
      <trkpt lat="45.06752" lon="6.0491">
        <ele>990</ele>
        <time>2024-08-09T08:21:36Z</time>
      </trkpt>
      <trkpt lat="45.06752" lon="6.0491">
        <ele>990.2</ele>
        <time>2024-08-09T08:21:37Z</time>
      </trkpt>
      <trkpt lat="45.06752" lon="6.0491">
        <ele>990</ele>
        <time>2024-08-09T08:21:38Z</time>
      </trkpt>
      <trkpt lat="45.06752" lon="6.0491">
        <ele>990</ele>
        <time>2024-08-09T08:21:39Z</time>
      </trkpt>
      <trkpt lat="45.06752" lon="6.0491">
        <ele>990</ele>
        <time>2024-08-09T08:21:40Z</time>
      </trkpt>
      <trkpt lat="45.06752" lon="6.0491">
        <ele>990</ele>
        <time>2024-08-09T08:21:41Z</time>
      </trkpt>
      <trkpt lat="45.06752" lon="6.0491">
        <ele>990</ele>
        <time>2024-08-09T08:21:42Z</time>
      </trkpt>
      <trkpt lat="45.06752" lon="6.0491">
        <ele>990</ele>
        <time>2024-08-09T08:21:43Z</time>
      </trkpt>
      <trkpt lat="45.06752" lon="6.0491">
        <ele>990</ele>
        <time>2024-08-09T08:21:44Z</time>
      </trkpt>
      <trkpt lat="45.06752" lon="6.0491">
        <ele>990</ele>
        <time>2024-08-09T08:21:45Z</time>
      </trkpt>
      <trkpt lat="45.06752" lon="6.0491">
        <ele>990</ele>
        <time>2024-08-09T08:21:46Z</time>
      </trkpt>
      <trkpt lat="45.06752" lon="6.0491">
        <ele>990.2</ele>
        <time>2024-08-09T08:21:47Z</time>
      </trkpt>
      <trkpt lat="45.06752" lon="6.0491">
        <ele>990.2</ele>
        <time>2024-08-09T08:21:48Z</time>
      </trkpt>
      <trkpt lat="45.06752" lon="6.0491">
        <ele>990.2</ele>
        <time>2024-08-09T08:21:49Z</time>
      </trkpt>
      <trkpt lat="45.06752" lon="6.0491">
        <ele>990</ele>
        <time>2024-08-09T08:21:50Z</time>
      </trkpt>
      <trkpt lat="45.06752" lon="6.0491">
        <ele>990</ele>
        <time>2024-08-09T08:21:51Z</time>
      </trkpt>
      <trkpt lat="45.06752" lon="6.0491">
        <ele>990.2</ele>
        <time>2024-08-09T08:21:52Z</time>
      </trkpt>
      <trkpt lat="45.06752" lon="6.0491">
        <ele>990.2</ele>
        <time>2024-08-09T08:21:53Z</time>
      </trkpt>
      <trkpt lat="45.06752" lon="6.0491">
        <ele>990.2</ele>
        <time>2024-08-09T08:21:54Z</time>
      </trkpt>
      <trkpt lat="45.06752" lon="6.0491">
        <ele>990</ele>
        <time>2024-08-09T08:21:55Z</time>
      </trkpt>
      <trkpt lat="45.06752" lon="6.0491">
        <ele>990</ele>
        <time>2024-08-09T08:21:56Z</time>
      </trkpt>
      <trkpt lat="45.06752" lon="6.0491">
        <ele>990</ele>
        <time>2024-08-09T08:21:57Z</time>
      </trkpt>
      <trkpt lat="45.06752" lon="6.0491">
        <ele>990</ele>
        <time>2024-08-09T08:21:58Z</time>
      </trkpt>
      <trkpt lat="45.06752" lon="6.0491">
        <ele>989.8</ele>
        <time>2024-08-09T08:21:59Z</time>
      </trkpt>
      <trkpt lat="45.06752" lon="6.0491">
        <ele>989.8</ele>
        <time>2024-08-09T08:22:00Z</time>
      </trkpt>
      <trkpt lat="45.06752" lon="6.0491">
        <ele>990</ele>
        <time>2024-08-09T08:22:01Z</time>
      </trkpt>
      <trkpt lat="45.06752" lon="6.0491">
        <ele>990</ele>
        <time>2024-08-09T08:22:02Z</time>
      </trkpt>
      <trkpt lat="45.06752" lon="6.0491">
        <ele>990</ele>
        <time>2024-08-09T08:22:03Z</time>
      </trkpt>
      <trkpt lat="45.06752" lon="6.0491">
        <ele>990</ele>
        <time>2024-08-09T08:22:04Z</time>
      </trkpt>
      <trkpt lat="45.06752" lon="6.0491">
        <ele>990</ele>
        <time>2024-08-09T08:22:05Z</time>
      </trkpt>
      <trkpt lat="45.06752" lon="6.0491">
        <ele>990.2</ele>
        <time>2024-08-09T08:22:06Z</time>
      </trkpt>
      <trkpt lat="45.06752" lon="6.0491">
        <ele>990.4</ele>
        <time>2024-08-09T08:22:07Z</time>
      </trkpt>
      <trkpt lat="45.06752" lon="6.0491">
        <ele>990.4</ele>
        <time>2024-08-09T08:22:08Z</time>
      </trkpt>
      <trkpt lat="45.06752" lon="6.0491">
        <ele>990.4</ele>
        <time>2024-08-09T08:22:09Z</time>
      </trkpt>
      <trkpt lat="45.06752" lon="6.0491">
        <ele>990.4</ele>
        <time>2024-08-09T08:22:10Z</time>
      </trkpt>
      <trkpt lat="45.06752" lon="6.0491">
        <ele>990.4</ele>
        <time>2024-08-09T08:22:11Z</time>
      </trkpt>
      <trkpt lat="45.06752" lon="6.0491">
        <ele>990.4</ele>
        <time>2024-08-09T08:22:12Z</time>
      </trkpt>
      <trkpt lat="45.06752" lon="6.0491">
        <ele>990.4</ele>
        <time>2024-08-09T08:22:13Z</time>
      </trkpt>
      <trkpt lat="45.06752" lon="6.0491">
        <ele>990.4</ele>
        <time>2024-08-09T08:22:14Z</time>
      </trkpt>
      <trkpt lat="45.06752" lon="6.0491">
        <ele>990.4</ele>
        <time>2024-08-09T08:22:15Z</time>
      </trkpt>
      <trkpt lat="45.06752" lon="6.0491">
        <ele>990.4</ele>
        <time>2024-08-09T08:22:16Z</time>
      </trkpt>
      <trkpt lat="45.06752" lon="6.0491">
        <ele>990.4</ele>
        <time>2024-08-09T08:22:17Z</time>
      </trkpt>
      <trkpt lat="45.06752" lon="6.0491">
        <ele>990.6</ele>
        <time>2024-08-09T08:22:18Z</time>
      </trkpt>
      <trkpt lat="45.06752" lon="6.0491">
        <ele>990.6</ele>
        <time>2024-08-09T08:22:19Z</time>
      </trkpt>
      <trkpt lat="45.06752" lon="6.0491">
        <ele>990.6</ele>
        <time>2024-08-09T08:22:20Z</time>
      </trkpt>
      <trkpt lat="45.06752" lon="6.0491">
        <ele>990.6</ele>
        <time>2024-08-09T08:22:21Z</time>
      </trkpt>
      <trkpt lat="45.06752" lon="6.0491">
        <ele>990.6</ele>
        <time>2024-08-09T08:22:22Z</time>
      </trkpt>
      <trkpt lat="45.06752" lon="6.0491">
        <ele>990.8</ele>
        <time>2024-08-09T08:22:23Z</time>
      </trkpt>
      <trkpt lat="45.06752" lon="6.0491">
        <ele>990.8</ele>
        <time>2024-08-09T08:22:24Z</time>
      </trkpt>
      <trkpt lat="45.06752" lon="6.0491">
        <ele>990.8</ele>
        <time>2024-08-09T08:22:25Z</time>
      </trkpt>
      <trkpt lat="45.06752" lon="6.0491">
        <ele>990.6</ele>
        <time>2024-08-09T08:22:26Z</time>
      </trkpt>
      <trkpt lat="45.06752" lon="6.0491">
        <ele>990.6</ele>
        <time>2024-08-09T08:22:27Z</time>
      </trkpt>
      <trkpt lat="45.06752" lon="6.0491">
        <ele>990.8</ele>
        <time>2024-08-09T08:22:28Z</time>
      </trkpt>
      <trkpt lat="45.06752" lon="6.0491">
        <ele>991</ele>
        <time>2024-08-09T08:22:29Z</time>
      </trkpt>
      <trkpt lat="45.06752" lon="6.0491">
        <ele>991</ele>
        <time>2024-08-09T08:22:30Z</time>
      </trkpt>
      <trkpt lat="45.06752" lon="6.0491">
        <ele>990.8</ele>
        <time>2024-08-09T08:22:31Z</time>
      </trkpt>
      <trkpt lat="45.06752" lon="6.0491">
        <ele>990.8</ele>
        <time>2024-08-09T08:22:32Z</time>
      </trkpt>
      <trkpt lat="45.06752" lon="6.0491">
        <ele>990.6</ele>
        <time>2024-08-09T08:22:33Z</time>
      </trkpt>
      <trkpt lat="45.06752" lon="6.0491">
        <ele>990.6</ele>
        <time>2024-08-09T08:22:34Z</time>
      </trkpt>
      <trkpt lat="45.06752" lon="6.0491">
        <ele>990.8</ele>
        <time>2024-08-09T08:22:35Z</time>
      </trkpt>
      <trkpt lat="45.06752" lon="6.0491">
        <ele>990.8</ele>
        <time>2024-08-09T08:22:36Z</time>
      </trkpt>
      <trkpt lat="45.06752" lon="6.0491">
        <ele>991</ele>
        <time>2024-08-09T08:22:37Z</time>
      </trkpt>
      <trkpt lat="45.06752" lon="6.0491">
        <ele>990.8</ele>
        <time>2024-08-09T08:22:38Z</time>
      </trkpt>
      <trkpt lat="45.06752" lon="6.0491">
        <ele>991</ele>
        <time>2024-08-09T08:22:39Z</time>
      </trkpt>
      <trkpt lat="45.06752" lon="6.0491">
        <ele>991</ele>
        <time>2024-08-09T08:22:40Z</time>
      </trkpt>
      <trkpt lat="45.06752" lon="6.0491">
        <ele>991</ele>
        <time>2024-08-09T08:22:41Z</time>
      </trkpt>
      <trkpt lat="45.06752" lon="6.0491">
        <ele>991</ele>
        <time>2024-08-09T08:22:42Z</time>
      </trkpt>
      <trkpt lat="45.06752" lon="6.0491">
        <ele>991</ele>
        <time>2024-08-09T08:22:43Z</time>
      </trkpt>
      <trkpt lat="45.06752" lon="6.0491">
        <ele>991</ele>
        <time>2024-08-09T08:22:44Z</time>
      </trkpt>
      <trkpt lat="45.06752" lon="6.0491">
        <ele>991</ele>
        <time>2024-08-09T08:22:45Z</time>
      </trkpt>
      <trkpt lat="45.06752" lon="6.0491">
        <ele>991</ele>
        <time>2024-08-09T08:22:46Z</time>
      </trkpt>
      <trkpt lat="45.06752" lon="6.0491">
        <ele>991.2</ele>
        <time>2024-08-09T08:22:47Z</time>
      </trkpt>
      <trkpt lat="45.06752" lon="6.0491">
        <ele>991.2</ele>
        <time>2024-08-09T08:22:48Z</time>
      </trkpt>
      <trkpt lat="45.06752" lon="6.0491">
        <ele>991.2</ele>
        <time>2024-08-09T08:22:49Z</time>
      </trkpt>
      <trkpt lat="45.06752" lon="6.0491">
        <ele>991.2</ele>
        <time>2024-08-09T08:22:50Z</time>
      </trkpt>
      <trkpt lat="45.06752" lon="6.0491">
        <ele>991.2</ele>
        <time>2024-08-09T08:22:51Z</time>
      </trkpt>
      <trkpt lat="45.06752" lon="6.0491">
        <ele>991.2</ele>
        <time>2024-08-09T08:22:52Z</time>
      </trkpt>
      <trkpt lat="45.06752" lon="6.0491">
        <ele>991.2</ele>
        <time>2024-08-09T08:22:53Z</time>
      </trkpt>
      <trkpt lat="45.06752" lon="6.0491">
        <ele>991.2</ele>
        <time>2024-08-09T08:22:54Z</time>
      </trkpt>
      <trkpt lat="45.06752" lon="6.0491">
        <ele>991.2</ele>
        <time>2024-08-09T08:22:55Z</time>
      </trkpt>
      <trkpt lat="45.06752" lon="6.0491">
        <ele>991.2</ele>
        <time>2024-08-09T08:22:56Z</time>
      </trkpt>
      <trkpt lat="45.06752" lon="6.0491">
        <ele>991.4</ele>
        <time>2024-08-09T08:22:57Z</time>
      </trkpt>
      <trkpt lat="45.06752" lon="6.0491">
        <ele>991.4</ele>
        <time>2024-08-09T08:22:58Z</time>
      </trkpt>
      <trkpt lat="45.06752" lon="6.0491">
        <ele>991.2</ele>
        <time>2024-08-09T08:22:59Z</time>
      </trkpt>
      <trkpt lat="45.06752" lon="6.0491">
        <ele>991.2</ele>
        <time>2024-08-09T08:23:00Z</time>
      </trkpt>
      <trkpt lat="45.06752" lon="6.0491">
        <ele>991.2</ele>
        <time>2024-08-09T08:23:01Z</time>
      </trkpt>
      <trkpt lat="45.06752" lon="6.0491">
        <ele>991.2</ele>
        <time>2024-08-09T08:23:02Z</time>
      </trkpt>
      <trkpt lat="45.06752" lon="6.0491">
        <ele>991.4</ele>
        <time>2024-08-09T08:23:03Z</time>
      </trkpt>
      <trkpt lat="45.06752" lon="6.0491">
        <ele>991.4</ele>
        <time>2024-08-09T08:23:04Z</time>
      </trkpt>
      <trkpt lat="45.06752" lon="6.0491">
        <ele>991.6</ele>
        <time>2024-08-09T08:23:05Z</time>
      </trkpt>
      <trkpt lat="45.06752" lon="6.0491">
        <ele>991.6</ele>
        <time>2024-08-09T08:23:06Z</time>
      </trkpt>
      <trkpt lat="45.06752" lon="6.0491">
        <ele>991.6</ele>
        <time>2024-08-09T08:23:07Z</time>
      </trkpt>
      <trkpt lat="45.06752" lon="6.0491">
        <ele>991.4</ele>
        <time>2024-08-09T08:23:08Z</time>
      </trkpt>
      <trkpt lat="45.06752" lon="6.0491">
        <ele>991.4</ele>
        <time>2024-08-09T08:23:09Z</time>
      </trkpt>
      <trkpt lat="45.06752" lon="6.0491">
        <ele>991.4</ele>
        <time>2024-08-09T08:23:10Z</time>
      </trkpt>
      <trkpt lat="45.06752" lon="6.0491">
        <ele>991.6</ele>
        <time>2024-08-09T08:23:11Z</time>
      </trkpt>
      <trkpt lat="45.06752" lon="6.0491">
        <ele>991.6</ele>
        <time>2024-08-09T08:23:12Z</time>
      </trkpt>
      <trkpt lat="45.06752" lon="6.0491">
        <ele>991.6</ele>
        <time>2024-08-09T08:23:13Z</time>
      </trkpt>
      <trkpt lat="45.06752" lon="6.0491">
        <ele>991.6</ele>
        <time>2024-08-09T08:23:14Z</time>
      </trkpt>
      <trkpt lat="45.06752" lon="6.0491">
        <ele>991.6</ele>
        <time>2024-08-09T08:23:15Z</time>
      </trkpt>
      <trkpt lat="45.06752" lon="6.0491">
        <ele>991.6</ele>
        <time>2024-08-09T08:23:16Z</time>
      </trkpt>
      <trkpt lat="45.06752" lon="6.0491">
        <ele>991.6</ele>
        <time>2024-08-09T08:23:17Z</time>
      </trkpt>
      <trkpt lat="45.06752" lon="6.0491">
        <ele>991.8</ele>
        <time>2024-08-09T08:23:18Z</time>
      </trkpt>
      <trkpt lat="45.06752" lon="6.0491">
        <ele>991.8</ele>
        <time>2024-08-09T08:23:19Z</time>
      </trkpt>
      <trkpt lat="45.06749" lon="6.0491">
        <ele>992</ele>
        <time>2024-08-09T08:23:20Z</time>
      </trkpt>
      <trkpt lat="45.06747" lon="6.0491">
        <ele>992</ele>
        <time>2024-08-09T08:23:21Z</time>
      </trkpt>
      <trkpt lat="45.06747" lon="6.0491">
        <ele>992</ele>
        <time>2024-08-09T08:23:22Z</time>
      </trkpt>
      <trkpt lat="45.06747" lon="6.0491">
        <ele>992</ele>
        <time>2024-08-09T08:23:23Z</time>
      </trkpt>
      <trkpt lat="45.06747" lon="6.0491">
        <ele>992</ele>
        <time>2024-08-09T08:23:24Z</time>
      </trkpt>
      <trkpt lat="45.06747" lon="6.0491">
        <ele>992.2</ele>
        <time>2024-08-09T08:23:25Z</time>
      </trkpt>
      <trkpt lat="45.06747" lon="6.0491">
        <ele>992.4</ele>
        <time>2024-08-09T08:23:26Z</time>
      </trkpt>
      <trkpt lat="45.06747" lon="6.0491">
        <ele>992.8</ele>
        <time>2024-08-09T08:23:27Z</time>
      </trkpt>
      <trkpt lat="45.06747" lon="6.0491">
        <ele>993</ele>
        <time>2024-08-09T08:23:28Z</time>
      </trkpt>
      <trkpt lat="45.06747" lon="6.0491">
        <ele>993.2</ele>
        <time>2024-08-09T08:23:29Z</time>
      </trkpt>
      <trkpt lat="45.06747" lon="6.04906">
        <ele>993.2</ele>
        <time>2024-08-09T08:23:30Z</time>
      </trkpt>
      <trkpt lat="45.06747" lon="6.04906">
        <ele>993.4</ele>
        <time>2024-08-09T08:23:31Z</time>
      </trkpt>
      <trkpt lat="45.06747" lon="6.04903">
        <ele>993.6</ele>
        <time>2024-08-09T08:23:32Z</time>
      </trkpt>
      <trkpt lat="45.06747" lon="6.04903">
        <ele>994</ele>
        <time>2024-08-09T08:23:33Z</time>
      </trkpt>
      <trkpt lat="45.06747" lon="6.04901">
        <ele>994.2</ele>
        <time>2024-08-09T08:23:34Z</time>
      </trkpt>
      <trkpt lat="45.06747" lon="6.04901">
        <ele>994.2</ele>
        <time>2024-08-09T08:23:35Z</time>
      </trkpt>
      <trkpt lat="45.06746" lon="6.04898">
        <ele>994.4</ele>
        <time>2024-08-09T08:23:36Z</time>
      </trkpt>
      <trkpt lat="45.06746" lon="6.04898">
        <ele>994.4</ele>
        <time>2024-08-09T08:23:37Z</time>
      </trkpt>
      <trkpt lat="45.06746" lon="6.04898">
        <ele>994.8</ele>
        <time>2024-08-09T08:23:38Z</time>
      </trkpt>
      <trkpt lat="45.06746" lon="6.04898">
        <ele>995</ele>
        <time>2024-08-09T08:23:39Z</time>
      </trkpt>
      <trkpt lat="45.06746" lon="6.04898">
        <ele>995</ele>
        <time>2024-08-09T08:23:40Z</time>
      </trkpt>
      <trkpt lat="45.06745" lon="6.04895">
        <ele>995</ele>
        <time>2024-08-09T08:23:41Z</time>
      </trkpt>
      <trkpt lat="45.06745" lon="6.04895">
        <ele>995.4</ele>
        <time>2024-08-09T08:23:42Z</time>
      </trkpt>
      <trkpt lat="45.06751" lon="6.04894">
        <ele>995.6</ele>
        <time>2024-08-09T08:23:43Z</time>
      </trkpt>
      <trkpt lat="45.06752" lon="6.04893">
        <ele>995.8</ele>
        <time>2024-08-09T08:23:44Z</time>
      </trkpt>
      <trkpt lat="45.06752" lon="6.04893">
        <ele>996</ele>
        <time>2024-08-09T08:23:45Z</time>
      </trkpt>
      <trkpt lat="45.0675" lon="6.04893">
        <ele>996</ele>
        <time>2024-08-09T08:23:46Z</time>
      </trkpt>
      <trkpt lat="45.06748" lon="6.04892">
        <ele>996.2</ele>
        <time>2024-08-09T08:23:47Z</time>
      </trkpt>
      <trkpt lat="45.06745" lon="6.04891">
        <ele>996.4</ele>
        <time>2024-08-09T08:23:48Z</time>
      </trkpt>
      <trkpt lat="45.06743" lon="6.04889">
        <ele>996.6</ele>
        <time>2024-08-09T08:23:49Z</time>
      </trkpt>
      <trkpt lat="45.06743" lon="6.04889">
        <ele>996.8</ele>
        <time>2024-08-09T08:23:50Z</time>
      </trkpt>
      <trkpt lat="45.06743" lon="6.04887">
        <ele>997.2</ele>
        <time>2024-08-09T08:23:51Z</time>
      </trkpt>
      <trkpt lat="45.06743" lon="6.04887">
        <ele>997.4</ele>
        <time>2024-08-09T08:23:52Z</time>
      </trkpt>
      <trkpt lat="45.06743" lon="6.04887">
        <ele>997.4</ele>
        <time>2024-08-09T08:23:53Z</time>
      </trkpt>
      <trkpt lat="45.06742" lon="6.04883">
        <ele>997.8</ele>
        <time>2024-08-09T08:23:54Z</time>
      </trkpt>
      <trkpt lat="45.06737" lon="6.04884">
        <ele>998.2</ele>
        <time>2024-08-09T08:23:55Z</time>
      </trkpt>
      <trkpt lat="45.06737" lon="6.04884">
        <ele>998.4</ele>
        <time>2024-08-09T08:23:56Z</time>
      </trkpt>
      <trkpt lat="45.06735" lon="6.04882">
        <ele>998.4</ele>
        <time>2024-08-09T08:23:57Z</time>
      </trkpt>
      <trkpt lat="45.06735" lon="6.04882">
        <ele>998.6</ele>
        <time>2024-08-09T08:23:58Z</time>
      </trkpt>
      <trkpt lat="45.06735" lon="6.04882">
        <ele>998.8</ele>
        <time>2024-08-09T08:23:59Z</time>
      </trkpt>
      <trkpt lat="45.06736" lon="6.04879">
        <ele>998.8</ele>
        <time>2024-08-09T08:24:00Z</time>
      </trkpt>
      <trkpt lat="45.06736" lon="6.04879">
        <ele>999.2</ele>
        <time>2024-08-09T08:24:01Z</time>
      </trkpt>
      <trkpt lat="45.06735" lon="6.04876">
        <ele>999.8</ele>
        <time>2024-08-09T08:24:02Z</time>
      </trkpt>
      <trkpt lat="45.06735" lon="6.04876">
        <ele>999.8</ele>
        <time>2024-08-09T08:24:03Z</time>
      </trkpt>
      <trkpt lat="45.06735" lon="6.04876">
        <ele>1000.2</ele>
        <time>2024-08-09T08:24:04Z</time>
      </trkpt>
      <trkpt lat="45.06733" lon="6.04873">
        <ele>1000.4</ele>
        <time>2024-08-09T08:24:05Z</time>
      </trkpt>
      <trkpt lat="45.06733" lon="6.04873">
        <ele>1000.6</ele>
        <time>2024-08-09T08:24:06Z</time>
      </trkpt>
      <trkpt lat="45.06733" lon="6.04873">
        <ele>1000.6</ele>
        <time>2024-08-09T08:24:07Z</time>
      </trkpt>
      <trkpt lat="45.06733" lon="6.0487">
        <ele>1000.8</ele>
        <time>2024-08-09T08:24:08Z</time>
      </trkpt>
      <trkpt lat="45.06733" lon="6.0487">
        <ele>1000.8</ele>
        <time>2024-08-09T08:24:09Z</time>
      </trkpt>
      <trkpt lat="45.06733" lon="6.0487">
        <ele>1001</ele>
        <time>2024-08-09T08:24:10Z</time>
      </trkpt>
      <trkpt lat="45.06732" lon="6.04867">
        <ele>1001.4</ele>
        <time>2024-08-09T08:24:11Z</time>
      </trkpt>
      <trkpt lat="45.06732" lon="6.04867">
        <ele>1001.8</ele>
        <time>2024-08-09T08:24:12Z</time>
      </trkpt>
      <trkpt lat="45.06732" lon="6.04867">
        <ele>1001.8</ele>
        <time>2024-08-09T08:24:13Z</time>
      </trkpt>
      <trkpt lat="45.0673" lon="6.04865">
        <ele>1002</ele>
        <time>2024-08-09T08:24:14Z</time>
      </trkpt>
      <trkpt lat="45.0673" lon="6.04865">
        <ele>1002</ele>
        <time>2024-08-09T08:24:15Z</time>
      </trkpt>
      <trkpt lat="45.0673" lon="6.04865">
        <ele>1002.2</ele>
        <time>2024-08-09T08:24:16Z</time>
      </trkpt>
      <trkpt lat="45.06729" lon="6.04862">
        <ele>1002.6</ele>
        <time>2024-08-09T08:24:17Z</time>
      </trkpt>
      <trkpt lat="45.06729" lon="6.04862">
        <ele>1002.8</ele>
        <time>2024-08-09T08:24:18Z</time>
      </trkpt>
      <trkpt lat="45.06724" lon="6.0486">
        <ele>1003</ele>
        <time>2024-08-09T08:24:19Z</time>
      </trkpt>
      <trkpt lat="45.06724" lon="6.0486">
        <ele>1003.2</ele>
        <time>2024-08-09T08:24:20Z</time>
      </trkpt>
      <trkpt lat="45.06724" lon="6.0486">
        <ele>1003.2</ele>
        <time>2024-08-09T08:24:21Z</time>
      </trkpt>
      <trkpt lat="45.06724" lon="6.04857">
        <ele>1003.6</ele>
        <time>2024-08-09T08:24:22Z</time>
      </trkpt>
      <trkpt lat="45.06724" lon="6.04857">
        <ele>1004</ele>
        <time>2024-08-09T08:24:23Z</time>
      </trkpt>
      <trkpt lat="45.06724" lon="6.04857">
        <ele>1004</ele>
        <time>2024-08-09T08:24:24Z</time>
      </trkpt>
      <trkpt lat="45.06723" lon="6.04855">
        <ele>1004.2</ele>
        <time>2024-08-09T08:24:25Z</time>
      </trkpt>
      <trkpt lat="45.06723" lon="6.04855">
        <ele>1004.4</ele>
        <time>2024-08-09T08:24:26Z</time>
      </trkpt>
      <trkpt lat="45.06722" lon="6.04852">
        <ele>1004.6</ele>
        <time>2024-08-09T08:24:27Z</time>
      </trkpt>
      <trkpt lat="45.06722" lon="6.04852">
        <ele>1005</ele>
        <time>2024-08-09T08:24:28Z</time>
      </trkpt>
      <trkpt lat="45.0672" lon="6.04851">
        <ele>1005.2</ele>
        <time>2024-08-09T08:24:29Z</time>
      </trkpt>
      <trkpt lat="45.0672" lon="6.04851">
        <ele>1005.4</ele>
        <time>2024-08-09T08:24:30Z</time>
      </trkpt>
      <trkpt lat="45.0672" lon="6.04851">
        <ele>1005.6</ele>
        <time>2024-08-09T08:24:31Z</time>
      </trkpt>
      <trkpt lat="45.06718" lon="6.04849">
        <ele>1005.6</ele>
        <time>2024-08-09T08:24:32Z</time>
      </trkpt>
      <trkpt lat="45.06718" lon="6.04849">
        <ele>1005.8</ele>
        <time>2024-08-09T08:24:33Z</time>
      </trkpt>
      <trkpt lat="45.06717" lon="6.04847">
        <ele>1006</ele>
        <time>2024-08-09T08:24:34Z</time>
      </trkpt>
      <trkpt lat="45.06717" lon="6.04847">
        <ele>1006</ele>
        <time>2024-08-09T08:24:35Z</time>
      </trkpt>
      <trkpt lat="45.06715" lon="6.04846">
        <ele>1006.4</ele>
        <time>2024-08-09T08:24:36Z</time>
      </trkpt>
      <trkpt lat="45.06715" lon="6.04846">
        <ele>1006.6</ele>
        <time>2024-08-09T08:24:37Z</time>
      </trkpt>
      <trkpt lat="45.06713" lon="6.04846">
        <ele>1006.8</ele>
        <time>2024-08-09T08:24:38Z</time>
      </trkpt>
      <trkpt lat="45.06713" lon="6.04846">
        <ele>1007</ele>
        <time>2024-08-09T08:24:39Z</time>
      </trkpt>
      <trkpt lat="45.06711" lon="6.04845">
        <ele>1007.4</ele>
        <time>2024-08-09T08:24:40Z</time>
      </trkpt>
      <trkpt lat="45.06711" lon="6.04845">
        <ele>1007.6</ele>
        <time>2024-08-09T08:24:41Z</time>
      </trkpt>
      <trkpt lat="45.06711" lon="6.04845">
        <ele>1008</ele>
        <time>2024-08-09T08:24:42Z</time>
      </trkpt>
      <trkpt lat="45.06709" lon="6.04844">
        <ele>1008</ele>
        <time>2024-08-09T08:24:43Z</time>
      </trkpt>
      <trkpt lat="45.06709" lon="6.04844">
        <ele>1008</ele>
        <time>2024-08-09T08:24:44Z</time>
      </trkpt>
      <trkpt lat="45.06709" lon="6.04844">
        <ele>1008</ele>
        <time>2024-08-09T08:24:45Z</time>
      </trkpt>
      <trkpt lat="45.06707" lon="6.04844">
        <ele>1008.6</ele>
        <time>2024-08-09T08:24:46Z</time>
      </trkpt>
      <trkpt lat="45.06707" lon="6.04844">
        <ele>1008.8</ele>
        <time>2024-08-09T08:24:47Z</time>
      </trkpt>
      <trkpt lat="45.06707" lon="6.04844">
        <ele>1009</ele>
        <time>2024-08-09T08:24:48Z</time>
      </trkpt>
      <trkpt lat="45.06704" lon="6.04843">
        <ele>1009</ele>
        <time>2024-08-09T08:24:49Z</time>
      </trkpt>
      <trkpt lat="45.06704" lon="6.04843">
        <ele>1009.6</ele>
        <time>2024-08-09T08:24:50Z</time>
      </trkpt>
      <trkpt lat="45.06702" lon="6.04842">
        <ele>1009.6</ele>
        <time>2024-08-09T08:24:51Z</time>
      </trkpt>
      <trkpt lat="45.06702" lon="6.04842">
        <ele>1010</ele>
        <time>2024-08-09T08:24:52Z</time>
      </trkpt>
      <trkpt lat="45.06702" lon="6.04842">
        <ele>1010.2</ele>
        <time>2024-08-09T08:24:53Z</time>
      </trkpt>
      <trkpt lat="45.067" lon="6.04841">
        <ele>1010.4</ele>
        <time>2024-08-09T08:24:54Z</time>
      </trkpt>
      <trkpt lat="45.067" lon="6.04841">
        <ele>1010.6</ele>
        <time>2024-08-09T08:24:55Z</time>
      </trkpt>
      <trkpt lat="45.06698" lon="6.0484">
        <ele>1010.6</ele>
        <time>2024-08-09T08:24:56Z</time>
      </trkpt>
      <trkpt lat="45.06698" lon="6.0484">
        <ele>1010.8</ele>
        <time>2024-08-09T08:24:57Z</time>
      </trkpt>
      <trkpt lat="45.06698" lon="6.0484">
        <ele>1011.2</ele>
        <time>2024-08-09T08:24:58Z</time>
      </trkpt>
      <trkpt lat="45.06696" lon="6.04838">
        <ele>1011.2</ele>
        <time>2024-08-09T08:24:59Z</time>
      </trkpt>
      <trkpt lat="45.06696" lon="6.04838">
        <ele>1011.4</ele>
        <time>2024-08-09T08:25:00Z</time>
      </trkpt>
      <trkpt lat="45.06694" lon="6.04838">
        <ele>1011.8</ele>
        <time>2024-08-09T08:25:01Z</time>
      </trkpt>
      <trkpt lat="45.06694" lon="6.04838">
        <ele>1012.4</ele>
        <time>2024-08-09T08:25:02Z</time>
      </trkpt>
      <trkpt lat="45.06694" lon="6.04838">
        <ele>1012.4</ele>
        <time>2024-08-09T08:25:03Z</time>
      </trkpt>
      <trkpt lat="45.06692" lon="6.04837">
        <ele>1012.4</ele>
        <time>2024-08-09T08:25:04Z</time>
      </trkpt>
      <trkpt lat="45.06692" lon="6.04837">
        <ele>1012.4</ele>
        <time>2024-08-09T08:25:05Z</time>
      </trkpt>
      <trkpt lat="45.06692" lon="6.04837">
        <ele>1012.6</ele>
        <time>2024-08-09T08:25:06Z</time>
      </trkpt>
      <trkpt lat="45.0669" lon="6.04837">
        <ele>1012.8</ele>
        <time>2024-08-09T08:25:07Z</time>
      </trkpt>
      <trkpt lat="45.0669" lon="6.04837">
        <ele>1013.2</ele>
        <time>2024-08-09T08:25:08Z</time>
      </trkpt>
      <trkpt lat="45.0669" lon="6.04837">
        <ele>1013.4</ele>
        <time>2024-08-09T08:25:09Z</time>
      </trkpt>
      <trkpt lat="45.0669" lon="6.04837">
        <ele>1014</ele>
        <time>2024-08-09T08:25:10Z</time>
      </trkpt>
      <trkpt lat="45.06688" lon="6.04836">
        <ele>1014.6</ele>
        <time>2024-08-09T08:25:11Z</time>
      </trkpt>
      <trkpt lat="45.06688" lon="6.04836">
        <ele>1014.6</ele>
        <time>2024-08-09T08:25:12Z</time>
      </trkpt>
      <trkpt lat="45.06688" lon="6.04836">
        <ele>1014.6</ele>
        <time>2024-08-09T08:25:13Z</time>
      </trkpt>
      <trkpt lat="45.06686" lon="6.04836">
        <ele>1014.6</ele>
        <time>2024-08-09T08:25:14Z</time>
      </trkpt>
      <trkpt lat="45.06686" lon="6.04836">
        <ele>1014.6</ele>
        <time>2024-08-09T08:25:15Z</time>
      </trkpt>
      <trkpt lat="45.06686" lon="6.04836">
        <ele>1014.8</ele>
        <time>2024-08-09T08:25:16Z</time>
      </trkpt>
      <trkpt lat="45.06686" lon="6.04836">
        <ele>1015</ele>
        <time>2024-08-09T08:25:17Z</time>
      </trkpt>
      <trkpt lat="45.06686" lon="6.04836">
        <ele>1015</ele>
        <time>2024-08-09T08:25:18Z</time>
      </trkpt>
      <trkpt lat="45.06686" lon="6.04836">
        <ele>1015.4</ele>
        <time>2024-08-09T08:25:19Z</time>
      </trkpt>
      <trkpt lat="45.06686" lon="6.04836">
        <ele>1015.4</ele>
        <time>2024-08-09T08:25:20Z</time>
      </trkpt>
      <trkpt lat="45.06686" lon="6.04836">
        <ele>1015.4</ele>
        <time>2024-08-09T08:25:21Z</time>
      </trkpt>
      <trkpt lat="45.06686" lon="6.04836">
        <ele>1015.4</ele>
        <time>2024-08-09T08:25:22Z</time>
      </trkpt>
      <trkpt lat="45.06686" lon="6.04836">
        <ele>1015.4</ele>
        <time>2024-08-09T08:25:23Z</time>
      </trkpt>
      <trkpt lat="45.06686" lon="6.04836">
        <ele>1015.4</ele>
        <time>2024-08-09T08:25:24Z</time>
      </trkpt>
      <trkpt lat="45.06684" lon="6.04837">
        <ele>1015.2</ele>
        <time>2024-08-09T08:25:25Z</time>
      </trkpt>
      <trkpt lat="45.06684" lon="6.04837">
        <ele>1015</ele>
        <time>2024-08-09T08:25:26Z</time>
      </trkpt>
      <trkpt lat="45.06684" lon="6.04837">
        <ele>1015</ele>
        <time>2024-08-09T08:25:27Z</time>
      </trkpt>
      <trkpt lat="45.06684" lon="6.04837">
        <ele>1015</ele>
        <time>2024-08-09T08:25:28Z</time>
      </trkpt>
      <trkpt lat="45.06684" lon="6.04837">
        <ele>1015</ele>
        <time>2024-08-09T08:25:29Z</time>
      </trkpt>
      <trkpt lat="45.06684" lon="6.04837">
        <ele>1015</ele>
        <time>2024-08-09T08:25:30Z</time>
      </trkpt>
      <trkpt lat="45.06684" lon="6.04837">
        <ele>1015</ele>
        <time>2024-08-09T08:25:31Z</time>
      </trkpt>
      <trkpt lat="45.06684" lon="6.04837">
        <ele>1015</ele>
        <time>2024-08-09T08:25:32Z</time>
      </trkpt>
      <trkpt lat="45.06684" lon="6.04837">
        <ele>1015</ele>
        <time>2024-08-09T08:25:33Z</time>
      </trkpt>
      <trkpt lat="45.06684" lon="6.04837">
        <ele>1014.8</ele>
        <time>2024-08-09T08:25:34Z</time>
      </trkpt>
      <trkpt lat="45.06684" lon="6.04837">
        <ele>1014.8</ele>
        <time>2024-08-09T08:25:35Z</time>
      </trkpt>
      <trkpt lat="45.06684" lon="6.04837">
        <ele>1014.8</ele>
        <time>2024-08-09T08:25:36Z</time>
      </trkpt>
      <trkpt lat="45.06684" lon="6.04837">
        <ele>1015</ele>
        <time>2024-08-09T08:25:37Z</time>
      </trkpt>
      <trkpt lat="45.06684" lon="6.0484">
        <ele>1015.2</ele>
        <time>2024-08-09T08:25:38Z</time>
      </trkpt>
      <trkpt lat="45.06684" lon="6.0484">
        <ele>1015.2</ele>
        <time>2024-08-09T08:25:39Z</time>
      </trkpt>
      <trkpt lat="45.06684" lon="6.04844">
        <ele>1015.4</ele>
        <time>2024-08-09T08:25:40Z</time>
      </trkpt>
      <trkpt lat="45.06684" lon="6.04844">
        <ele>1015.2</ele>
        <time>2024-08-09T08:25:41Z</time>
      </trkpt>
      <trkpt lat="45.06684" lon="6.04848">
        <ele>1015.2</ele>
        <time>2024-08-09T08:25:42Z</time>
      </trkpt>
      <trkpt lat="45.06684" lon="6.04848">
        <ele>1015.2</ele>
        <time>2024-08-09T08:25:43Z</time>
      </trkpt>
      <trkpt lat="45.06684" lon="6.04851">
        <ele>1015.4</ele>
        <time>2024-08-09T08:25:44Z</time>
      </trkpt>
      <trkpt lat="45.06684" lon="6.04851">
        <ele>1015.4</ele>
        <time>2024-08-09T08:25:45Z</time>
      </trkpt>
      <trkpt lat="45.06685" lon="6.04855">
        <ele>1015.4</ele>
        <time>2024-08-09T08:25:46Z</time>
      </trkpt>
      <trkpt lat="45.06685" lon="6.04855">
        <ele>1015.4</ele>
        <time>2024-08-09T08:25:47Z</time>
      </trkpt>
      <trkpt lat="45.06686" lon="6.04858">
        <ele>1015.6</ele>
        <time>2024-08-09T08:25:48Z</time>
      </trkpt>
      <trkpt lat="45.06686" lon="6.04858">
        <ele>1015.6</ele>
        <time>2024-08-09T08:25:49Z</time>
      </trkpt>
      <trkpt lat="45.06687" lon="6.04861">
        <ele>1015.6</ele>
        <time>2024-08-09T08:25:50Z</time>
      </trkpt>
      <trkpt lat="45.06687" lon="6.04861">
        <ele>1015.8</ele>
        <time>2024-08-09T08:25:51Z</time>
      </trkpt>
      <trkpt lat="45.06688" lon="6.04865">
        <ele>1015.8</ele>
        <time>2024-08-09T08:25:52Z</time>
      </trkpt>
      <trkpt lat="45.06688" lon="6.04865">
        <ele>1015.8</ele>
        <time>2024-08-09T08:25:53Z</time>
      </trkpt>
      <trkpt lat="45.06689" lon="6.04869">
        <ele>1016.2</ele>
        <time>2024-08-09T08:25:54Z</time>
      </trkpt>
      <trkpt lat="45.06689" lon="6.04869">
        <ele>1016.6</ele>
        <time>2024-08-09T08:25:55Z</time>
      </trkpt>
      <trkpt lat="45.0669" lon="6.04872">
        <ele>1016.6</ele>
        <time>2024-08-09T08:25:56Z</time>
      </trkpt>
      <trkpt lat="45.0669" lon="6.04872">
        <ele>1016.8</ele>
        <time>2024-08-09T08:25:57Z</time>
      </trkpt>
      <trkpt lat="45.06692" lon="6.04876">
        <ele>1016.8</ele>
        <time>2024-08-09T08:25:58Z</time>
      </trkpt>
      <trkpt lat="45.06692" lon="6.04876">
        <ele>1017</ele>
        <time>2024-08-09T08:25:59Z</time>
      </trkpt>
      <trkpt lat="45.06692" lon="6.04879">
        <ele>1017</ele>
        <time>2024-08-09T08:26:00Z</time>
      </trkpt>
      <trkpt lat="45.06692" lon="6.04879">
        <ele>1017</ele>
        <time>2024-08-09T08:26:01Z</time>
      </trkpt>
      <trkpt lat="45.06693" lon="6.04883">
        <ele>1017.2</ele>
        <time>2024-08-09T08:26:02Z</time>
      </trkpt>
      <trkpt lat="45.06693" lon="6.04883">
        <ele>1017.2</ele>
        <time>2024-08-09T08:26:03Z</time>
      </trkpt>
      <trkpt lat="45.06694" lon="6.04887">
        <ele>1017.4</ele>
        <time>2024-08-09T08:26:04Z</time>
      </trkpt>
      <trkpt lat="45.06694" lon="6.04887">
        <ele>1017.6</ele>
        <time>2024-08-09T08:26:05Z</time>
      </trkpt>
      <trkpt lat="45.06696" lon="6.0489">
        <ele>1017.6</ele>
        <time>2024-08-09T08:26:06Z</time>
      </trkpt>
      <trkpt lat="45.06696" lon="6.0489">
        <ele>1017.4</ele>
        <time>2024-08-09T08:26:07Z</time>
      </trkpt>
      <trkpt lat="45.06697" lon="6.04893">
        <ele>1017.4</ele>
        <time>2024-08-09T08:26:08Z</time>
      </trkpt>
      <trkpt lat="45.06698" lon="6.04894">
        <ele>1017.4</ele>
        <time>2024-08-09T08:26:09Z</time>
      </trkpt>
      <trkpt lat="45.06699" lon="6.04895">
        <ele>1018.2</ele>
        <time>2024-08-09T08:26:10Z</time>
      </trkpt>
      <trkpt lat="45.067" lon="6.04896">
        <ele>1018.2</ele>
        <time>2024-08-09T08:26:11Z</time>
      </trkpt>
      <trkpt lat="45.06701" lon="6.04897">
        <ele>1018.4</ele>
        <time>2024-08-09T08:26:12Z</time>
      </trkpt>
      <trkpt lat="45.06702" lon="6.049">
        <ele>1018.4</ele>
        <time>2024-08-09T08:26:13Z</time>
      </trkpt>
      <trkpt lat="45.06702" lon="6.049">
        <ele>1018.8</ele>
        <time>2024-08-09T08:26:14Z</time>
      </trkpt>
      <trkpt lat="45.06704" lon="6.04903">
        <ele>1018.8</ele>
        <time>2024-08-09T08:26:15Z</time>
      </trkpt>
      <trkpt lat="45.06704" lon="6.04903">
        <ele>1018.6</ele>
        <time>2024-08-09T08:26:16Z</time>
      </trkpt>
      <trkpt lat="45.06704" lon="6.04906">
        <ele>1018.6</ele>
        <time>2024-08-09T08:26:17Z</time>
      </trkpt>
      <trkpt lat="45.06704" lon="6.04906">
        <ele>1018.6</ele>
        <time>2024-08-09T08:26:18Z</time>
      </trkpt>
      <trkpt lat="45.06705" lon="6.0491">
        <ele>1018.8</ele>
        <time>2024-08-09T08:26:19Z</time>
      </trkpt>
      <trkpt lat="45.06705" lon="6.0491">
        <ele>1018.8</ele>
        <time>2024-08-09T08:26:20Z</time>
      </trkpt>
      <trkpt lat="45.06706" lon="6.04913">
        <ele>1019</ele>
        <time>2024-08-09T08:26:21Z</time>
      </trkpt>
      <trkpt lat="45.06706" lon="6.04913">
        <ele>1019</ele>
        <time>2024-08-09T08:26:22Z</time>
      </trkpt>
      <trkpt lat="45.06707" lon="6.04916">
        <ele>1019.2</ele>
        <time>2024-08-09T08:26:23Z</time>
      </trkpt>
      <trkpt lat="45.06707" lon="6.04916">
        <ele>1019.4</ele>
        <time>2024-08-09T08:26:24Z</time>
      </trkpt>
      <trkpt lat="45.06709" lon="6.04919">
        <ele>1019.4</ele>
        <time>2024-08-09T08:26:25Z</time>
      </trkpt>
      <trkpt lat="45.06709" lon="6.04919">
        <ele>1019.4</ele>
        <time>2024-08-09T08:26:26Z</time>
      </trkpt>
      <trkpt lat="45.0671" lon="6.04922">
        <ele>1019.4</ele>
        <time>2024-08-09T08:26:27Z</time>
      </trkpt>
      <trkpt lat="45.0671" lon="6.04922">
        <ele>1019.4</ele>
        <time>2024-08-09T08:26:28Z</time>
      </trkpt>
      <trkpt lat="45.06712" lon="6.04924">
        <ele>1020</ele>
        <time>2024-08-09T08:26:29Z</time>
      </trkpt>
      <trkpt lat="45.06712" lon="6.04924">
        <ele>1020.2</ele>
        <time>2024-08-09T08:26:30Z</time>
      </trkpt>
      <trkpt lat="45.06715" lon="6.04926">
        <ele>1020.2</ele>
        <time>2024-08-09T08:26:31Z</time>
      </trkpt>
      <trkpt lat="45.06715" lon="6.04926">
        <ele>1020.2</ele>
        <time>2024-08-09T08:26:32Z</time>
      </trkpt>
      <trkpt lat="45.06717" lon="6.04928">
        <ele>1020.4</ele>
        <time>2024-08-09T08:26:33Z</time>
      </trkpt>
      <trkpt lat="45.06717" lon="6.04928">
        <ele>1020.4</ele>
        <time>2024-08-09T08:26:34Z</time>
      </trkpt>
      <trkpt lat="45.06719" lon="6.0493">
        <ele>1020.6</ele>
        <time>2024-08-09T08:26:35Z</time>
      </trkpt>
      <trkpt lat="45.06719" lon="6.0493">
        <ele>1020.8</ele>
        <time>2024-08-09T08:26:36Z</time>
      </trkpt>
      <trkpt lat="45.06721" lon="6.04933">
        <ele>1021</ele>
        <time>2024-08-09T08:26:37Z</time>
      </trkpt>
      <trkpt lat="45.06721" lon="6.04933">
        <ele>1021</ele>
        <time>2024-08-09T08:26:38Z</time>
      </trkpt>
      <trkpt lat="45.06722" lon="6.04935">
        <ele>1021.2</ele>
        <time>2024-08-09T08:26:39Z</time>
      </trkpt>
      <trkpt lat="45.06722" lon="6.04935">
        <ele>1021.6</ele>
        <time>2024-08-09T08:26:40Z</time>
      </trkpt>
      <trkpt lat="45.06722" lon="6.04935">
        <ele>1022</ele>
        <time>2024-08-09T08:26:41Z</time>
      </trkpt>
      <trkpt lat="45.06722" lon="6.04935">
        <ele>1022</ele>
        <time>2024-08-09T08:26:42Z</time>
      </trkpt>
      <trkpt lat="45.06722" lon="6.04935">
        <ele>1022</ele>
        <time>2024-08-09T08:26:43Z</time>
      </trkpt>
      <trkpt lat="45.06722" lon="6.04935">
        <ele>1022</ele>
        <time>2024-08-09T08:26:44Z</time>
      </trkpt>
      <trkpt lat="45.06722" lon="6.04935">
        <ele>1022</ele>
        <time>2024-08-09T08:26:45Z</time>
      </trkpt>
      <trkpt lat="45.06722" lon="6.04935">
        <ele>1021.8</ele>
        <time>2024-08-09T08:26:46Z</time>
      </trkpt>
      <trkpt lat="45.06722" lon="6.04935">
        <ele>1021.6</ele>
        <time>2024-08-09T08:26:47Z</time>
      </trkpt>
      <trkpt lat="45.06722" lon="6.04935">
        <ele>1021.6</ele>
        <time>2024-08-09T08:26:48Z</time>
      </trkpt>
      <trkpt lat="45.06722" lon="6.04935">
        <ele>1021.6</ele>
        <time>2024-08-09T08:26:49Z</time>
      </trkpt>
      <trkpt lat="45.0672" lon="6.04933">
        <ele>1021.6</ele>
        <time>2024-08-09T08:26:50Z</time>
      </trkpt>
      <trkpt lat="45.06719" lon="6.04931">
        <ele>1021.4</ele>
        <time>2024-08-09T08:26:51Z</time>
      </trkpt>
      <trkpt lat="45.06719" lon="6.04931">
        <ele>1021.4</ele>
        <time>2024-08-09T08:26:52Z</time>
      </trkpt>
      <trkpt lat="45.06716" lon="6.04927">
        <ele>1021.4</ele>
        <time>2024-08-09T08:26:53Z</time>
      </trkpt>
      <trkpt lat="45.06715" lon="6.04925">
        <ele>1021.2</ele>
        <time>2024-08-09T08:26:54Z</time>
      </trkpt>
      <trkpt lat="45.06714" lon="6.04923">
        <ele>1021.2</ele>
        <time>2024-08-09T08:26:55Z</time>
      </trkpt>
      <trkpt lat="45.06714" lon="6.04923">
        <ele>1020.8</ele>
        <time>2024-08-09T08:26:56Z</time>
      </trkpt>
      <trkpt lat="45.06711" lon="6.0492">
        <ele>1020.6</ele>
        <time>2024-08-09T08:26:57Z</time>
      </trkpt>
      <trkpt lat="45.06711" lon="6.0492">
        <ele>1020.4</ele>
        <time>2024-08-09T08:26:58Z</time>
      </trkpt>
      <trkpt lat="45.06709" lon="6.04917">
        <ele>1020.4</ele>
        <time>2024-08-09T08:26:59Z</time>
      </trkpt>
      <trkpt lat="45.06709" lon="6.04917">
        <ele>1020.4</ele>
        <time>2024-08-09T08:27:00Z</time>
      </trkpt>
      <trkpt lat="45.06707" lon="6.04914">
        <ele>1020.4</ele>
        <time>2024-08-09T08:27:01Z</time>
      </trkpt>
      <trkpt lat="45.06707" lon="6.04914">
        <ele>1020.4</ele>
        <time>2024-08-09T08:27:02Z</time>
      </trkpt>
      <trkpt lat="45.06706" lon="6.0491">
        <ele>1020.6</ele>
        <time>2024-08-09T08:27:03Z</time>
      </trkpt>
      <trkpt lat="45.06704" lon="6.04908">
        <ele>1020.4</ele>
        <time>2024-08-09T08:27:04Z</time>
      </trkpt>
      <trkpt lat="45.06704" lon="6.04908">
        <ele>1020.4</ele>
        <time>2024-08-09T08:27:05Z</time>
      </trkpt>
      <trkpt lat="45.06703" lon="6.04904">
        <ele>1020.2</ele>
        <time>2024-08-09T08:27:06Z</time>
      </trkpt>
      <trkpt lat="45.06703" lon="6.04904">
        <ele>1020</ele>
        <time>2024-08-09T08:27:07Z</time>
      </trkpt>
      <trkpt lat="45.06701" lon="6.04901">
        <ele>1020</ele>
        <time>2024-08-09T08:27:08Z</time>
      </trkpt>
      <trkpt lat="45.06701" lon="6.04901">
        <ele>1019.6</ele>
        <time>2024-08-09T08:27:09Z</time>
      </trkpt>
      <trkpt lat="45.067" lon="6.04897">
        <ele>1019.2</ele>
        <time>2024-08-09T08:27:10Z</time>
      </trkpt>
      <trkpt lat="45.067" lon="6.04897">
        <ele>1018.8</ele>
        <time>2024-08-09T08:27:11Z</time>
      </trkpt>
      <trkpt lat="45.06698" lon="6.04893">
        <ele>1018.8</ele>
        <time>2024-08-09T08:27:12Z</time>
      </trkpt>
      <trkpt lat="45.06696" lon="6.04891">
        <ele>1018.6</ele>
        <time>2024-08-09T08:27:13Z</time>
      </trkpt>
      <trkpt lat="45.06696" lon="6.04891">
        <ele>1018.6</ele>
        <time>2024-08-09T08:27:14Z</time>
      </trkpt>
      <trkpt lat="45.06695" lon="6.04888">
        <ele>1018.6</ele>
        <time>2024-08-09T08:27:15Z</time>
      </trkpt>
      <trkpt lat="45.06695" lon="6.04888">
        <ele>1018.6</ele>
        <time>2024-08-09T08:27:16Z</time>
      </trkpt>
      <trkpt lat="45.06694" lon="6.04884">
        <ele>1018.6</ele>
        <time>2024-08-09T08:27:17Z</time>
      </trkpt>
      <trkpt lat="45.06694" lon="6.04884">
        <ele>1018.4</ele>
        <time>2024-08-09T08:27:18Z</time>
      </trkpt>
      <trkpt lat="45.06693" lon="6.0488">
        <ele>1017.8</ele>
        <time>2024-08-09T08:27:19Z</time>
      </trkpt>
      <trkpt lat="45.06693" lon="6.0488">
        <ele>1017.6</ele>
        <time>2024-08-09T08:27:20Z</time>
      </trkpt>
      <trkpt lat="45.06692" lon="6.04876">
        <ele>1017.6</ele>
        <time>2024-08-09T08:27:21Z</time>
      </trkpt>
      <trkpt lat="45.06692" lon="6.04876">
        <ele>1017.6</ele>
        <time>2024-08-09T08:27:22Z</time>
      </trkpt>
      <trkpt lat="45.0669" lon="6.04872">
        <ele>1017.6</ele>
        <time>2024-08-09T08:27:23Z</time>
      </trkpt>
      <trkpt lat="45.0669" lon="6.04872">
        <ele>1017.4</ele>
        <time>2024-08-09T08:27:24Z</time>
      </trkpt>
      <trkpt lat="45.06689" lon="6.04868">
        <ele>1017</ele>
        <time>2024-08-09T08:27:25Z</time>
      </trkpt>
      <trkpt lat="45.06689" lon="6.04868">
        <ele>1016.8</ele>
        <time>2024-08-09T08:27:26Z</time>
      </trkpt>
      <trkpt lat="45.06688" lon="6.04864">
        <ele>1016.8</ele>
        <time>2024-08-09T08:27:27Z</time>
      </trkpt>
      <trkpt lat="45.06687" lon="6.04862">
        <ele>1016.6</ele>
        <time>2024-08-09T08:27:28Z</time>
      </trkpt>
      <trkpt lat="45.06687" lon="6.04862">
        <ele>1016.4</ele>
        <time>2024-08-09T08:27:29Z</time>
      </trkpt>
      <trkpt lat="45.06686" lon="6.04858">
        <ele>1016.2</ele>
        <time>2024-08-09T08:27:30Z</time>
      </trkpt>
      <trkpt lat="45.06686" lon="6.04858">
        <ele>1016.2</ele>
        <time>2024-08-09T08:27:31Z</time>
      </trkpt>
      <trkpt lat="45.06685" lon="6.04854">
        <ele>1016</ele>
        <time>2024-08-09T08:27:32Z</time>
      </trkpt>
      <trkpt lat="45.06685" lon="6.04854">
        <ele>1016</ele>
        <time>2024-08-09T08:27:33Z</time>
      </trkpt>
      <trkpt lat="45.06685" lon="6.0485">
        <ele>1016</ele>
        <time>2024-08-09T08:27:34Z</time>
      </trkpt>
      <trkpt lat="45.06685" lon="6.0485">
        <ele>1016</ele>
        <time>2024-08-09T08:27:35Z</time>
      </trkpt>
      <trkpt lat="45.06683" lon="6.04846">
        <ele>1015.8</ele>
        <time>2024-08-09T08:27:36Z</time>
      </trkpt>
      <trkpt lat="45.06683" lon="6.04846">
        <ele>1015.8</ele>
        <time>2024-08-09T08:27:37Z</time>
      </trkpt>
      <trkpt lat="45.06683" lon="6.04843">
        <ele>1015.8</ele>
        <time>2024-08-09T08:27:38Z</time>
      </trkpt>
      <trkpt lat="45.06683" lon="6.04843">
        <ele>1015.6</ele>
        <time>2024-08-09T08:27:39Z</time>
      </trkpt>
      <trkpt lat="45.06682" lon="6.04839">
        <ele>1015.4</ele>
        <time>2024-08-09T08:27:40Z</time>
      </trkpt>
      <trkpt lat="45.06682" lon="6.04839">
        <ele>1015.4</ele>
        <time>2024-08-09T08:27:41Z</time>
      </trkpt>
      <trkpt lat="45.0668" lon="6.04836">
        <ele>1015.4</ele>
        <time>2024-08-09T08:27:42Z</time>
      </trkpt>
      <trkpt lat="45.0668" lon="6.04836">
        <ele>1015.2</ele>
        <time>2024-08-09T08:27:43Z</time>
      </trkpt>
      <trkpt lat="45.0668" lon="6.04836">
        <ele>1015.2</ele>
        <time>2024-08-09T08:27:44Z</time>
      </trkpt>
      <trkpt lat="45.0668" lon="6.04836">
        <ele>1014.8</ele>
        <time>2024-08-09T08:27:45Z</time>
      </trkpt>
      <trkpt lat="45.0668" lon="6.04836">
        <ele>1014.8</ele>
        <time>2024-08-09T08:27:46Z</time>
      </trkpt>
      <trkpt lat="45.0668" lon="6.04836">
        <ele>1014.8</ele>
        <time>2024-08-09T08:27:47Z</time>
      </trkpt>
      <trkpt lat="45.06681" lon="6.0484">
        <ele>1014.8</ele>
        <time>2024-08-09T08:27:48Z</time>
      </trkpt>
      <trkpt lat="45.06681" lon="6.0484">
        <ele>1014.8</ele>
        <time>2024-08-09T08:27:49Z</time>
      </trkpt>
      <trkpt lat="45.0668" lon="6.04844">
        <ele>1014.8</ele>
        <time>2024-08-09T08:27:50Z</time>
      </trkpt>
      <trkpt lat="45.0668" lon="6.04844">
        <ele>1014.8</ele>
        <time>2024-08-09T08:27:51Z</time>
      </trkpt>
      <trkpt lat="45.06678" lon="6.04847">
        <ele>1015</ele>
        <time>2024-08-09T08:27:52Z</time>
      </trkpt>
      <trkpt lat="45.06678" lon="6.04847">
        <ele>1015</ele>
        <time>2024-08-09T08:27:53Z</time>
      </trkpt>
      <trkpt lat="45.06678" lon="6.0485">
        <ele>1014.8</ele>
        <time>2024-08-09T08:27:54Z</time>
      </trkpt>
      <trkpt lat="45.06678" lon="6.0485">
        <ele>1014.8</ele>
        <time>2024-08-09T08:27:55Z</time>
      </trkpt>
      <trkpt lat="45.06677" lon="6.04853">
        <ele>1015</ele>
        <time>2024-08-09T08:27:56Z</time>
      </trkpt>
      <trkpt lat="45.06677" lon="6.04853">
        <ele>1015.6</ele>
        <time>2024-08-09T08:27:57Z</time>
      </trkpt>
      <trkpt lat="45.06677" lon="6.04853">
        <ele>1016</ele>
        <time>2024-08-09T08:27:58Z</time>
      </trkpt>
      <trkpt lat="45.06675" lon="6.04855">
        <ele>1016.2</ele>
        <time>2024-08-09T08:27:59Z</time>
      </trkpt>
      <trkpt lat="45.06675" lon="6.04855">
        <ele>1016.4</ele>
        <time>2024-08-09T08:28:00Z</time>
      </trkpt>
      <trkpt lat="45.06672" lon="6.04856">
        <ele>1016.6</ele>
        <time>2024-08-09T08:28:01Z</time>
      </trkpt>
      <trkpt lat="45.06669" lon="6.04857">
        <ele>1017.2</ele>
        <time>2024-08-09T08:28:02Z</time>
      </trkpt>
      <trkpt lat="45.06669" lon="6.04857">
        <ele>1017.2</ele>
        <time>2024-08-09T08:28:03Z</time>
      </trkpt>
      <trkpt lat="45.06669" lon="6.04857">
        <ele>1017.2</ele>
        <time>2024-08-09T08:28:04Z</time>
      </trkpt>
      <trkpt lat="45.06669" lon="6.04857">
        <ele>1017.8</ele>
        <time>2024-08-09T08:28:05Z</time>
      </trkpt>
      <trkpt lat="45.06667" lon="6.04859">
        <ele>1018</ele>
        <time>2024-08-09T08:28:06Z</time>
      </trkpt>
      <trkpt lat="45.06667" lon="6.04859">
        <ele>1018.4</ele>
        <time>2024-08-09T08:28:07Z</time>
      </trkpt>
      <trkpt lat="45.06667" lon="6.04859">
        <ele>1018.6</ele>
        <time>2024-08-09T08:28:08Z</time>
      </trkpt>
      <trkpt lat="45.06667" lon="6.04859">
        <ele>1018.8</ele>
        <time>2024-08-09T08:28:09Z</time>
      </trkpt>
      <trkpt lat="45.06667" lon="6.04862">
        <ele>1019</ele>
        <time>2024-08-09T08:28:10Z</time>
      </trkpt>
      <trkpt lat="45.06667" lon="6.04862">
        <ele>1019.2</ele>
        <time>2024-08-09T08:28:11Z</time>
      </trkpt>
      <trkpt lat="45.06667" lon="6.04862">
        <ele>1019.4</ele>
        <time>2024-08-09T08:28:12Z</time>
      </trkpt>
      <trkpt lat="45.06666" lon="6.04865">
        <ele>1019.6</ele>
        <time>2024-08-09T08:28:13Z</time>
      </trkpt>
      <trkpt lat="45.06666" lon="6.04865">
        <ele>1020</ele>
        <time>2024-08-09T08:28:14Z</time>
      </trkpt>
      <trkpt lat="45.06666" lon="6.04865">
        <ele>1020</ele>
        <time>2024-08-09T08:28:15Z</time>
      </trkpt>
      <trkpt lat="45.06666" lon="6.04865">
        <ele>1020.2</ele>
        <time>2024-08-09T08:28:16Z</time>
      </trkpt>
      <trkpt lat="45.06665" lon="6.04868">
        <ele>1020.4</ele>
        <time>2024-08-09T08:28:17Z</time>
      </trkpt>
      <trkpt lat="45.06665" lon="6.04868">
        <ele>1020.8</ele>
        <time>2024-08-09T08:28:18Z</time>
      </trkpt>
      <trkpt lat="45.06665" lon="6.04868">
        <ele>1021.2</ele>
        <time>2024-08-09T08:28:19Z</time>
      </trkpt>
      <trkpt lat="45.06663" lon="6.0487">
        <ele>1021.2</ele>
        <time>2024-08-09T08:28:20Z</time>
      </trkpt>
      <trkpt lat="45.06663" lon="6.0487">
        <ele>1021.2</ele>
        <time>2024-08-09T08:28:21Z</time>
      </trkpt>
      <trkpt lat="45.06663" lon="6.0487">
        <ele>1021.8</ele>
        <time>2024-08-09T08:28:22Z</time>
      </trkpt>
      <trkpt lat="45.06662" lon="6.04872">
        <ele>1021.8</ele>
        <time>2024-08-09T08:28:23Z</time>
      </trkpt>
      <trkpt lat="45.06662" lon="6.04872">
        <ele>1022</ele>
        <time>2024-08-09T08:28:24Z</time>
      </trkpt>
      <trkpt lat="45.06662" lon="6.04872">
        <ele>1022</ele>
        <time>2024-08-09T08:28:25Z</time>
      </trkpt>
      <trkpt lat="45.06661" lon="6.04874">
        <ele>1022.2</ele>
        <time>2024-08-09T08:28:26Z</time>
      </trkpt>
      <trkpt lat="45.06661" lon="6.04874">
        <ele>1022.4</ele>
        <time>2024-08-09T08:28:27Z</time>
      </trkpt>
      <trkpt lat="45.06661" lon="6.04874">
        <ele>1023</ele>
        <time>2024-08-09T08:28:28Z</time>
      </trkpt>
      <trkpt lat="45.0666" lon="6.04877">
        <ele>1023.2</ele>
        <time>2024-08-09T08:28:29Z</time>
      </trkpt>
      <trkpt lat="45.0666" lon="6.04877">
        <ele>1023.4</ele>
        <time>2024-08-09T08:28:30Z</time>
      </trkpt>
      <trkpt lat="45.0666" lon="6.04877">
        <ele>1023.6</ele>
        <time>2024-08-09T08:28:31Z</time>
      </trkpt>
      <trkpt lat="45.06659" lon="6.04879">
        <ele>1023.6</ele>
        <time>2024-08-09T08:28:32Z</time>
      </trkpt>
      <trkpt lat="45.06659" lon="6.04879">
        <ele>1024</ele>
        <time>2024-08-09T08:28:33Z</time>
      </trkpt>
      <trkpt lat="45.06659" lon="6.04879">
        <ele>1024</ele>
        <time>2024-08-09T08:28:34Z</time>
      </trkpt>
      <trkpt lat="45.06659" lon="6.04879">
        <ele>1024.4</ele>
        <time>2024-08-09T08:28:35Z</time>
      </trkpt>
      <trkpt lat="45.06658" lon="6.04882">
        <ele>1024.6</ele>
        <time>2024-08-09T08:28:36Z</time>
      </trkpt>
      <trkpt lat="45.06658" lon="6.04882">
        <ele>1024.8</ele>
        <time>2024-08-09T08:28:37Z</time>
      </trkpt>
      <trkpt lat="45.06658" lon="6.04882">
        <ele>1025.2</ele>
        <time>2024-08-09T08:28:38Z</time>
      </trkpt>
      <trkpt lat="45.06659" lon="6.04885">
        <ele>1025.4</ele>
        <time>2024-08-09T08:28:39Z</time>
      </trkpt>
      <trkpt lat="45.06659" lon="6.04885">
        <ele>1025.6</ele>
        <time>2024-08-09T08:28:40Z</time>
      </trkpt>
      <trkpt lat="45.06659" lon="6.04885">
        <ele>1025.8</ele>
        <time>2024-08-09T08:28:41Z</time>
      </trkpt>
      <trkpt lat="45.06658" lon="6.04888">
        <ele>1025.8</ele>
        <time>2024-08-09T08:28:42Z</time>
      </trkpt>
      <trkpt lat="45.06658" lon="6.04888">
        <ele>1026.2</ele>
        <time>2024-08-09T08:28:43Z</time>
      </trkpt>
      <trkpt lat="45.06658" lon="6.04888">
        <ele>1026.4</ele>
        <time>2024-08-09T08:28:44Z</time>
      </trkpt>
      <trkpt lat="45.06658" lon="6.04891">
        <ele>1027</ele>
        <time>2024-08-09T08:28:45Z</time>
      </trkpt>
      <trkpt lat="45.06658" lon="6.04891">
        <ele>1027</ele>
        <time>2024-08-09T08:28:46Z</time>
      </trkpt>
      <trkpt lat="45.06658" lon="6.04891">
        <ele>1027</ele>
        <time>2024-08-09T08:28:47Z</time>
      </trkpt>
      <trkpt lat="45.06658" lon="6.04891">
        <ele>1027.2</ele>
        <time>2024-08-09T08:28:48Z</time>
      </trkpt>
      <trkpt lat="45.06658" lon="6.04891">
        <ele>1027.6</ele>
        <time>2024-08-09T08:28:49Z</time>
      </trkpt>
      <trkpt lat="45.06658" lon="6.04895">
        <ele>1027.8</ele>
        <time>2024-08-09T08:28:50Z</time>
      </trkpt>
      <trkpt lat="45.06658" lon="6.04895">
        <ele>1028</ele>
        <time>2024-08-09T08:28:51Z</time>
      </trkpt>
      <trkpt lat="45.06658" lon="6.049">
        <ele>1028.4</ele>
        <time>2024-08-09T08:28:52Z</time>
      </trkpt>
      <trkpt lat="45.06658" lon="6.049">
        <ele>1028.4</ele>
        <time>2024-08-09T08:28:53Z</time>
      </trkpt>
      <trkpt lat="45.06658" lon="6.04902">
        <ele>1028.4</ele>
        <time>2024-08-09T08:28:54Z</time>
      </trkpt>
      <trkpt lat="45.06658" lon="6.04902">
        <ele>1028.2</ele>
        <time>2024-08-09T08:28:55Z</time>
      </trkpt>
      <trkpt lat="45.06658" lon="6.04902">
        <ele>1028.2</ele>
        <time>2024-08-09T08:28:56Z</time>
      </trkpt>
      <trkpt lat="45.06659" lon="6.04906">
        <ele>1028.2</ele>
        <time>2024-08-09T08:28:57Z</time>
      </trkpt>
      <trkpt lat="45.06659" lon="6.04906">
        <ele>1028.6</ele>
        <time>2024-08-09T08:28:58Z</time>
      </trkpt>
      <trkpt lat="45.06659" lon="6.04906">
        <ele>1028.6</ele>
        <time>2024-08-09T08:28:59Z</time>
      </trkpt>
      <trkpt lat="45.06659" lon="6.04909">
        <ele>1028.6</ele>
        <time>2024-08-09T08:29:00Z</time>
      </trkpt>
      <trkpt lat="45.06659" lon="6.04909">
        <ele>1028.8</ele>
        <time>2024-08-09T08:29:01Z</time>
      </trkpt>
      <trkpt lat="45.06659" lon="6.04911">
        <ele>1029.4</ele>
        <time>2024-08-09T08:29:02Z</time>
      </trkpt>
      <trkpt lat="45.06659" lon="6.04911">
        <ele>1029.4</ele>
        <time>2024-08-09T08:29:03Z</time>
      </trkpt>
      <trkpt lat="45.06657" lon="6.04913">
        <ele>1029.6</ele>
        <time>2024-08-09T08:29:04Z</time>
      </trkpt>
      <trkpt lat="45.06657" lon="6.04913">
        <ele>1029.8</ele>
        <time>2024-08-09T08:29:05Z</time>
      </trkpt>
      <trkpt lat="45.06659" lon="6.04916">
        <ele>1030</ele>
        <time>2024-08-09T08:29:06Z</time>
      </trkpt>
      <trkpt lat="45.06659" lon="6.04916">
        <ele>1030.2</ele>
        <time>2024-08-09T08:29:07Z</time>
      </trkpt>
      <trkpt lat="45.06659" lon="6.04916">
        <ele>1030.4</ele>
        <time>2024-08-09T08:29:08Z</time>
      </trkpt>
      <trkpt lat="45.06659" lon="6.04919">
        <ele>1030.4</ele>
        <time>2024-08-09T08:29:09Z</time>
      </trkpt>
      <trkpt lat="45.06659" lon="6.04919">
        <ele>1030.6</ele>
        <time>2024-08-09T08:29:10Z</time>
      </trkpt>
      <trkpt lat="45.06659" lon="6.04919">
        <ele>1031</ele>
        <time>2024-08-09T08:29:11Z</time>
      </trkpt>
      <trkpt lat="45.06659" lon="6.04922">
        <ele>1031.4</ele>
        <time>2024-08-09T08:29:12Z</time>
      </trkpt>
      <trkpt lat="45.06659" lon="6.04922">
        <ele>1031.4</ele>
        <time>2024-08-09T08:29:13Z</time>
      </trkpt>
      <trkpt lat="45.06659" lon="6.04922">
        <ele>1031.6</ele>
        <time>2024-08-09T08:29:14Z</time>
      </trkpt>
      <trkpt lat="45.06659" lon="6.04925">
        <ele>1031.6</ele>
        <time>2024-08-09T08:29:15Z</time>
      </trkpt>
      <trkpt lat="45.06659" lon="6.04925">
        <ele>1031.8</ele>
        <time>2024-08-09T08:29:16Z</time>
      </trkpt>
      <trkpt lat="45.06659" lon="6.04925">
        <ele>1032</ele>
        <time>2024-08-09T08:29:17Z</time>
      </trkpt>
      <trkpt lat="45.06657" lon="6.04927">
        <ele>1032.4</ele>
        <time>2024-08-09T08:29:18Z</time>
      </trkpt>
      <trkpt lat="45.06657" lon="6.04927">
        <ele>1032.6</ele>
        <time>2024-08-09T08:29:19Z</time>
      </trkpt>
      <trkpt lat="45.06657" lon="6.04927">
        <ele>1032.6</ele>
        <time>2024-08-09T08:29:20Z</time>
      </trkpt>
      <trkpt lat="45.06659" lon="6.04931">
        <ele>1033.2</ele>
        <time>2024-08-09T08:29:21Z</time>
      </trkpt>
      <trkpt lat="45.06659" lon="6.04931">
        <ele>1033.2</ele>
        <time>2024-08-09T08:29:22Z</time>
      </trkpt>
      <trkpt lat="45.06659" lon="6.04931">
        <ele>1033.2</ele>
        <time>2024-08-09T08:29:23Z</time>
      </trkpt>
      <trkpt lat="45.06661" lon="6.04935">
        <ele>1033.6</ele>
        <time>2024-08-09T08:29:24Z</time>
      </trkpt>
      <trkpt lat="45.06661" lon="6.04935">
        <ele>1033.8</ele>
        <time>2024-08-09T08:29:25Z</time>
      </trkpt>
      <trkpt lat="45.06662" lon="6.04937">
        <ele>1033.8</ele>
        <time>2024-08-09T08:29:26Z</time>
      </trkpt>
      <trkpt lat="45.06662" lon="6.04937">
        <ele>1034</ele>
        <time>2024-08-09T08:29:27Z</time>
      </trkpt>
      <trkpt lat="45.06662" lon="6.0494">
        <ele>1034.2</ele>
        <time>2024-08-09T08:29:28Z</time>
      </trkpt>
      <trkpt lat="45.06662" lon="6.0494">
        <ele>1034.2</ele>
        <time>2024-08-09T08:29:29Z</time>
      </trkpt>
      <trkpt lat="45.06662" lon="6.0494">
        <ele>1034.8</ele>
        <time>2024-08-09T08:29:30Z</time>
      </trkpt>
      <trkpt lat="45.06664" lon="6.04943">
        <ele>1034.8</ele>
        <time>2024-08-09T08:29:31Z</time>
      </trkpt>
      <trkpt lat="45.06664" lon="6.04943">
        <ele>1035</ele>
        <time>2024-08-09T08:29:32Z</time>
      </trkpt>
      <trkpt lat="45.06664" lon="6.04943">
        <ele>1035.4</ele>
        <time>2024-08-09T08:29:33Z</time>
      </trkpt>
      <trkpt lat="45.06664" lon="6.04946">
        <ele>1035.4</ele>
        <time>2024-08-09T08:29:34Z</time>
      </trkpt>
      <trkpt lat="45.06664" lon="6.04946">
        <ele>1035.4</ele>
        <time>2024-08-09T08:29:35Z</time>
      </trkpt>
      <trkpt lat="45.06664" lon="6.04946">
        <ele>1035.6</ele>
        <time>2024-08-09T08:29:36Z</time>
      </trkpt>
      <trkpt lat="45.06666" lon="6.04949">
        <ele>1036</ele>
        <time>2024-08-09T08:29:37Z</time>
      </trkpt>
      <trkpt lat="45.06666" lon="6.04949">
        <ele>1036.4</ele>
        <time>2024-08-09T08:29:38Z</time>
      </trkpt>
      <trkpt lat="45.06666" lon="6.04949">
        <ele>1036.4</ele>
        <time>2024-08-09T08:29:39Z</time>
      </trkpt>
      <trkpt lat="45.06668" lon="6.04951">
        <ele>1036.6</ele>
        <time>2024-08-09T08:29:40Z</time>
      </trkpt>
      <trkpt lat="45.06668" lon="6.04951">
        <ele>1036.6</ele>
        <time>2024-08-09T08:29:41Z</time>
      </trkpt>
      <trkpt lat="45.06668" lon="6.04951">
        <ele>1036.8</ele>
        <time>2024-08-09T08:29:42Z</time>
      </trkpt>
      <trkpt lat="45.0667" lon="6.04954">
        <ele>1037.2</ele>
        <time>2024-08-09T08:29:43Z</time>
      </trkpt>
      <trkpt lat="45.0667" lon="6.04954">
        <ele>1037</ele>
        <time>2024-08-09T08:29:44Z</time>
      </trkpt>
      <trkpt lat="45.0667" lon="6.04954">
        <ele>1037.2</ele>
        <time>2024-08-09T08:29:45Z</time>
      </trkpt>
      <trkpt lat="45.0667" lon="6.04957">
        <ele>1037.2</ele>
        <time>2024-08-09T08:29:46Z</time>
      </trkpt>
      <trkpt lat="45.0667" lon="6.04957">
        <ele>1037.8</ele>
        <time>2024-08-09T08:29:47Z</time>
      </trkpt>
      <trkpt lat="45.0667" lon="6.04957">
        <ele>1037.8</ele>
        <time>2024-08-09T08:29:48Z</time>
      </trkpt>
      <trkpt lat="45.06672" lon="6.0496">
        <ele>1038.2</ele>
        <time>2024-08-09T08:29:49Z</time>
      </trkpt>
      <trkpt lat="45.06672" lon="6.0496">
        <ele>1038.6</ele>
        <time>2024-08-09T08:29:50Z</time>
      </trkpt>
      <trkpt lat="45.06672" lon="6.0496">
        <ele>1038.8</ele>
        <time>2024-08-09T08:29:51Z</time>
      </trkpt>
      <trkpt lat="45.06672" lon="6.0496">
        <ele>1038.8</ele>
        <time>2024-08-09T08:29:52Z</time>
      </trkpt>
      <trkpt lat="45.06673" lon="6.04963">
        <ele>1039.2</ele>
        <time>2024-08-09T08:29:53Z</time>
      </trkpt>
      <trkpt lat="45.06671" lon="6.04965">
        <ele>1039.4</ele>
        <time>2024-08-09T08:29:54Z</time>
      </trkpt>
      <trkpt lat="45.06668" lon="6.04967">
        <ele>1039.6</ele>
        <time>2024-08-09T08:29:55Z</time>
      </trkpt>
      <trkpt lat="45.06668" lon="6.04967">
        <ele>1040</ele>
        <time>2024-08-09T08:29:56Z</time>
      </trkpt>
      <trkpt lat="45.06668" lon="6.04967">
        <ele>1040</ele>
        <time>2024-08-09T08:29:57Z</time>
      </trkpt>
      <trkpt lat="45.0667" lon="6.0497">
        <ele>1040.4</ele>
        <time>2024-08-09T08:29:58Z</time>
      </trkpt>
      <trkpt lat="45.0667" lon="6.0497">
        <ele>1040.6</ele>
        <time>2024-08-09T08:29:59Z</time>
      </trkpt>
      <trkpt lat="45.0667" lon="6.04973">
        <ele>1040.6</ele>
        <time>2024-08-09T08:30:00Z</time>
      </trkpt>
      <trkpt lat="45.0667" lon="6.04973">
        <ele>1040.6</ele>
        <time>2024-08-09T08:30:01Z</time>
      </trkpt>
      <trkpt lat="45.0667" lon="6.04973">
        <ele>1041</ele>
        <time>2024-08-09T08:30:02Z</time>
      </trkpt>
      <trkpt lat="45.06671" lon="6.04976">
        <ele>1041</ele>
        <time>2024-08-09T08:30:03Z</time>
      </trkpt>
      <trkpt lat="45.06672" lon="6.04978">
        <ele>1041.4</ele>
        <time>2024-08-09T08:30:04Z</time>
      </trkpt>
      <trkpt lat="45.06672" lon="6.04978">
        <ele>1041.8</ele>
        <time>2024-08-09T08:30:05Z</time>
      </trkpt>
      <trkpt lat="45.06673" lon="6.04981">
        <ele>1041.8</ele>
        <time>2024-08-09T08:30:06Z</time>
      </trkpt>
      <trkpt lat="45.06673" lon="6.04981">
        <ele>1041.8</ele>
        <time>2024-08-09T08:30:07Z</time>
      </trkpt>
      <trkpt lat="45.06673" lon="6.04984">
        <ele>1042.2</ele>
        <time>2024-08-09T08:30:08Z</time>
      </trkpt>
      <trkpt lat="45.06673" lon="6.04984">
        <ele>1042.4</ele>
        <time>2024-08-09T08:30:09Z</time>
      </trkpt>
      <trkpt lat="45.06672" lon="6.04987">
        <ele>1042.4</ele>
        <time>2024-08-09T08:30:10Z</time>
      </trkpt>
      <trkpt lat="45.06672" lon="6.04987">
        <ele>1042.6</ele>
        <time>2024-08-09T08:30:11Z</time>
      </trkpt>
      <trkpt lat="45.06672" lon="6.0499">
        <ele>1043.2</ele>
        <time>2024-08-09T08:30:12Z</time>
      </trkpt>
      <trkpt lat="45.06672" lon="6.0499">
        <ele>1043.2</ele>
        <time>2024-08-09T08:30:13Z</time>
      </trkpt>
      <trkpt lat="45.06674" lon="6.04993">
        <ele>1043.6</ele>
        <time>2024-08-09T08:30:14Z</time>
      </trkpt>
      <trkpt lat="45.06674" lon="6.04993">
        <ele>1043.6</ele>
        <time>2024-08-09T08:30:15Z</time>
      </trkpt>
      <trkpt lat="45.06675" lon="6.04995">
        <ele>1043.8</ele>
        <time>2024-08-09T08:30:16Z</time>
      </trkpt>
      <trkpt lat="45.06675" lon="6.04995">
        <ele>1043.8</ele>
        <time>2024-08-09T08:30:17Z</time>
      </trkpt>
      <trkpt lat="45.06675" lon="6.04995">
        <ele>1044.2</ele>
        <time>2024-08-09T08:30:18Z</time>
      </trkpt>
      <trkpt lat="45.06677" lon="6.04997">
        <ele>1044.4</ele>
        <time>2024-08-09T08:30:19Z</time>
      </trkpt>
      <trkpt lat="45.06677" lon="6.04997">
        <ele>1044.6</ele>
        <time>2024-08-09T08:30:20Z</time>
      </trkpt>
      <trkpt lat="45.06677" lon="6.04997">
        <ele>1044.6</ele>
        <time>2024-08-09T08:30:21Z</time>
      </trkpt>
      <trkpt lat="45.06677" lon="6.05001">
        <ele>1044.8</ele>
        <time>2024-08-09T08:30:22Z</time>
      </trkpt>
      <trkpt lat="45.06677" lon="6.05001">
        <ele>1045</ele>
        <time>2024-08-09T08:30:23Z</time>
      </trkpt>
      <trkpt lat="45.06678" lon="6.05004">
        <ele>1045.2</ele>
        <time>2024-08-09T08:30:24Z</time>
      </trkpt>
      <trkpt lat="45.06678" lon="6.05004">
        <ele>1045.4</ele>
        <time>2024-08-09T08:30:25Z</time>
      </trkpt>
      <trkpt lat="45.06678" lon="6.05007">
        <ele>1045.6</ele>
        <time>2024-08-09T08:30:26Z</time>
      </trkpt>
      <trkpt lat="45.06678" lon="6.05007">
        <ele>1045.6</ele>
        <time>2024-08-09T08:30:27Z</time>
      </trkpt>
      <trkpt lat="45.06677" lon="6.05009">
        <ele>1045.8</ele>
        <time>2024-08-09T08:30:28Z</time>
      </trkpt>
      <trkpt lat="45.06677" lon="6.05012">
        <ele>1045.8</ele>
        <time>2024-08-09T08:30:30Z</time>
      </trkpt>
      <trkpt lat="45.06677" lon="6.05012">
        <ele>1046</ele>
        <time>2024-08-09T08:30:31Z</time>
      </trkpt>
      <trkpt lat="45.06677" lon="6.05012">
        <ele>1046.4</ele>
        <time>2024-08-09T08:30:32Z</time>
      </trkpt>
      <trkpt lat="45.06677" lon="6.05016">
        <ele>1046.8</ele>
        <time>2024-08-09T08:30:33Z</time>
      </trkpt>
      <trkpt lat="45.06677" lon="6.05016">
        <ele>1047</ele>
        <time>2024-08-09T08:30:34Z</time>
      </trkpt>
      <trkpt lat="45.06677" lon="6.05016">
        <ele>1047.2</ele>
        <time>2024-08-09T08:30:35Z</time>
      </trkpt>
      <trkpt lat="45.06677" lon="6.05019">
        <ele>1047.2</ele>
        <time>2024-08-09T08:30:36Z</time>
      </trkpt>
      <trkpt lat="45.06677" lon="6.05019">
        <ele>1047.4</ele>
        <time>2024-08-09T08:30:37Z</time>
      </trkpt>
      <trkpt lat="45.06678" lon="6.05022">
        <ele>1047.4</ele>
        <time>2024-08-09T08:30:38Z</time>
      </trkpt>
      <trkpt lat="45.06678" lon="6.05022">
        <ele>1047.6</ele>
        <time>2024-08-09T08:30:39Z</time>
      </trkpt>
      <trkpt lat="45.06678" lon="6.05022">
        <ele>1048</ele>
        <time>2024-08-09T08:30:40Z</time>
      </trkpt>
      <trkpt lat="45.06679" lon="6.05025">
        <ele>1048.2</ele>
        <time>2024-08-09T08:30:41Z</time>
      </trkpt>
      <trkpt lat="45.06679" lon="6.05025">
        <ele>1048.2</ele>
        <time>2024-08-09T08:30:42Z</time>
      </trkpt>
      <trkpt lat="45.0668" lon="6.05028">
        <ele>1048.4</ele>
        <time>2024-08-09T08:30:43Z</time>
      </trkpt>
      <trkpt lat="45.0668" lon="6.05028">
        <ele>1048.6</ele>
        <time>2024-08-09T08:30:44Z</time>
      </trkpt>
      <trkpt lat="45.0668" lon="6.05028">
        <ele>1048.8</ele>
        <time>2024-08-09T08:30:45Z</time>
      </trkpt>
      <trkpt lat="45.06681" lon="6.0503">
        <ele>1049</ele>
        <time>2024-08-09T08:30:46Z</time>
      </trkpt>
      <trkpt lat="45.06681" lon="6.0503">
        <ele>1049</ele>
        <time>2024-08-09T08:30:47Z</time>
      </trkpt>
      <trkpt lat="45.0668" lon="6.05033">
        <ele>1049</ele>
        <time>2024-08-09T08:30:48Z</time>
      </trkpt>
      <trkpt lat="45.0668" lon="6.05033">
        <ele>1049.8</ele>
        <time>2024-08-09T08:30:49Z</time>
      </trkpt>
      <trkpt lat="45.0668" lon="6.05036">
        <ele>1050</ele>
        <time>2024-08-09T08:30:50Z</time>
      </trkpt>
      <trkpt lat="45.0668" lon="6.05036">
        <ele>1050.2</ele>
        <time>2024-08-09T08:30:51Z</time>
      </trkpt>
      <trkpt lat="45.06681" lon="6.05038">
        <ele>1050.2</ele>
        <time>2024-08-09T08:30:52Z</time>
      </trkpt>
      <trkpt lat="45.06681" lon="6.05038">
        <ele>1050.6</ele>
        <time>2024-08-09T08:30:53Z</time>
      </trkpt>
      <trkpt lat="45.06681" lon="6.05041">
        <ele>1050.8</ele>
        <time>2024-08-09T08:30:54Z</time>
      </trkpt>
      <trkpt lat="45.06681" lon="6.05041">
        <ele>1050.8</ele>
        <time>2024-08-09T08:30:55Z</time>
      </trkpt>
      <trkpt lat="45.06681" lon="6.05041">
        <ele>1050.8</ele>
        <time>2024-08-09T08:30:56Z</time>
      </trkpt>
      <trkpt lat="45.06682" lon="6.05044">
        <ele>1051</ele>
        <time>2024-08-09T08:30:57Z</time>
      </trkpt>
      <trkpt lat="45.06679" lon="6.05045">
        <ele>1051.2</ele>
        <time>2024-08-09T08:30:58Z</time>
      </trkpt>
      <trkpt lat="45.06679" lon="6.05045">
        <ele>1051.4</ele>
        <time>2024-08-09T08:30:59Z</time>
      </trkpt>
      <trkpt lat="45.0668" lon="6.05048">
        <ele>1051.4</ele>
        <time>2024-08-09T08:31:00Z</time>
      </trkpt>
      <trkpt lat="45.0668" lon="6.05048">
        <ele>1052</ele>
        <time>2024-08-09T08:31:01Z</time>
      </trkpt>
      <trkpt lat="45.0668" lon="6.0505">
        <ele>1052.4</ele>
        <time>2024-08-09T08:31:02Z</time>
      </trkpt>
      <trkpt lat="45.0668" lon="6.0505">
        <ele>1052.4</ele>
        <time>2024-08-09T08:31:03Z</time>
      </trkpt>
      <trkpt lat="45.06681" lon="6.05053">
        <ele>1052.4</ele>
        <time>2024-08-09T08:31:04Z</time>
      </trkpt>
      <trkpt lat="45.06681" lon="6.05053">
        <ele>1052.6</ele>
        <time>2024-08-09T08:31:05Z</time>
      </trkpt>
      <trkpt lat="45.06682" lon="6.05056">
        <ele>1053</ele>
        <time>2024-08-09T08:31:06Z</time>
      </trkpt>
      <trkpt lat="45.06682" lon="6.05056">
        <ele>1053</ele>
        <time>2024-08-09T08:31:07Z</time>
      </trkpt>
      <trkpt lat="45.06685" lon="6.05059">
        <ele>1053.4</ele>
        <time>2024-08-09T08:31:08Z</time>
      </trkpt>
      <trkpt lat="45.06685" lon="6.05059">
        <ele>1053.6</ele>
        <time>2024-08-09T08:31:09Z</time>
      </trkpt>
      <trkpt lat="45.06685" lon="6.05062">
        <ele>1053.6</ele>
        <time>2024-08-09T08:31:10Z</time>
      </trkpt>
      <trkpt lat="45.06688" lon="6.05064">
        <ele>1053.8</ele>
        <time>2024-08-09T08:31:11Z</time>
      </trkpt>
      <trkpt lat="45.06688" lon="6.05064">
        <ele>1053.8</ele>
        <time>2024-08-09T08:31:12Z</time>
      </trkpt>
      <trkpt lat="45.0669" lon="6.05066">
        <ele>1054</ele>
        <time>2024-08-09T08:31:13Z</time>
      </trkpt>
      <trkpt lat="45.0669" lon="6.05066">
        <ele>1054</ele>
        <time>2024-08-09T08:31:14Z</time>
      </trkpt>
      <trkpt lat="45.0669" lon="6.05069">
        <ele>1054.4</ele>
        <time>2024-08-09T08:31:15Z</time>
      </trkpt>
      <trkpt lat="45.06688" lon="6.05071">
        <ele>1054.8</ele>
        <time>2024-08-09T08:31:16Z</time>
      </trkpt>
      <trkpt lat="45.06688" lon="6.05071">
        <ele>1055</ele>
        <time>2024-08-09T08:31:17Z</time>
      </trkpt>
      <trkpt lat="45.06686" lon="6.05075">
        <ele>1055.2</ele>
        <time>2024-08-09T08:31:18Z</time>
      </trkpt>
      <trkpt lat="45.06686" lon="6.05075">
        <ele>1055.4</ele>
        <time>2024-08-09T08:31:19Z</time>
      </trkpt>
      <trkpt lat="45.06686" lon="6.05078">
        <ele>1055.6</ele>
        <time>2024-08-09T08:31:20Z</time>
      </trkpt>
      <trkpt lat="45.06686" lon="6.05078">
        <ele>1055.6</ele>
        <time>2024-08-09T08:31:21Z</time>
      </trkpt>
      <trkpt lat="45.06686" lon="6.05078">
        <ele>1055.8</ele>
        <time>2024-08-09T08:31:22Z</time>
      </trkpt>
      <trkpt lat="45.06687" lon="6.0508">
        <ele>1055.8</ele>
        <time>2024-08-09T08:31:23Z</time>
      </trkpt>
      <trkpt lat="45.06687" lon="6.0508">
        <ele>1055.8</ele>
        <time>2024-08-09T08:31:24Z</time>
      </trkpt>
      <trkpt lat="45.06689" lon="6.05082">
        <ele>1056.2</ele>
        <time>2024-08-09T08:31:25Z</time>
      </trkpt>
      <trkpt lat="45.06689" lon="6.05082">
        <ele>1056.8</ele>
        <time>2024-08-09T08:31:26Z</time>
      </trkpt>
      <trkpt lat="45.06691" lon="6.05084">
        <ele>1057</ele>
        <time>2024-08-09T08:31:27Z</time>
      </trkpt>
      <trkpt lat="45.06691" lon="6.05084">
        <ele>1057.2</ele>
        <time>2024-08-09T08:31:28Z</time>
      </trkpt>
      <trkpt lat="45.06693" lon="6.05085">
        <ele>1057.2</ele>
        <time>2024-08-09T08:31:29Z</time>
      </trkpt>
      <trkpt lat="45.06693" lon="6.05085">
        <ele>1057.4</ele>
        <time>2024-08-09T08:31:30Z</time>
      </trkpt>
      <trkpt lat="45.06694" lon="6.05087">
        <ele>1057.6</ele>
        <time>2024-08-09T08:31:31Z</time>
      </trkpt>
      <trkpt lat="45.06694" lon="6.05087">
        <ele>1057.6</ele>
        <time>2024-08-09T08:31:32Z</time>
      </trkpt>
      <trkpt lat="45.06694" lon="6.05087">
        <ele>1057.8</ele>
        <time>2024-08-09T08:31:33Z</time>
      </trkpt>
      <trkpt lat="45.06695" lon="6.05091">
        <ele>1058</ele>
        <time>2024-08-09T08:31:34Z</time>
      </trkpt>
      <trkpt lat="45.06695" lon="6.05091">
        <ele>1058.2</ele>
        <time>2024-08-09T08:31:35Z</time>
      </trkpt>
      <trkpt lat="45.06697" lon="6.05095">
        <ele>1058.2</ele>
        <time>2024-08-09T08:31:36Z</time>
      </trkpt>
      <trkpt lat="45.06697" lon="6.05095">
        <ele>1058.6</ele>
        <time>2024-08-09T08:31:37Z</time>
      </trkpt>
      <trkpt lat="45.06699" lon="6.05096">
        <ele>1058.6</ele>
        <time>2024-08-09T08:31:38Z</time>
      </trkpt>
      <trkpt lat="45.06701" lon="6.05098">
        <ele>1058.8</ele>
        <time>2024-08-09T08:31:39Z</time>
      </trkpt>
      <trkpt lat="45.06703" lon="6.051">
        <ele>1059</ele>
        <time>2024-08-09T08:31:40Z</time>
      </trkpt>
      <trkpt lat="45.06703" lon="6.051">
        <ele>1059.2</ele>
        <time>2024-08-09T08:31:41Z</time>
      </trkpt>
      <trkpt lat="45.06705" lon="6.05101">
        <ele>1059.4</ele>
        <time>2024-08-09T08:31:42Z</time>
      </trkpt>
      <trkpt lat="45.06705" lon="6.05101">
        <ele>1059.8</ele>
        <time>2024-08-09T08:31:43Z</time>
      </trkpt>
      <trkpt lat="45.06705" lon="6.05101">
        <ele>1059.8</ele>
        <time>2024-08-09T08:31:44Z</time>
      </trkpt>
      <trkpt lat="45.06704" lon="6.05104">
        <ele>1060</ele>
        <time>2024-08-09T08:31:45Z</time>
      </trkpt>
      <trkpt lat="45.06704" lon="6.05104">
        <ele>1060.2</ele>
        <time>2024-08-09T08:31:46Z</time>
      </trkpt>
      <trkpt lat="45.06704" lon="6.05104">
        <ele>1060.4</ele>
        <time>2024-08-09T08:31:47Z</time>
      </trkpt>
      <trkpt lat="45.06704" lon="6.05106">
        <ele>1060.8</ele>
        <time>2024-08-09T08:31:48Z</time>
      </trkpt>
      <trkpt lat="45.06704" lon="6.05106">
        <ele>1061</ele>
        <time>2024-08-09T08:31:49Z</time>
      </trkpt>
      <trkpt lat="45.06704" lon="6.05106">
        <ele>1061.2</ele>
        <time>2024-08-09T08:31:50Z</time>
      </trkpt>
      <trkpt lat="45.06703" lon="6.0511">
        <ele>1061.4</ele>
        <time>2024-08-09T08:31:51Z</time>
      </trkpt>
      <trkpt lat="45.06703" lon="6.0511">
        <ele>1061.4</ele>
        <time>2024-08-09T08:31:52Z</time>
      </trkpt>
      <trkpt lat="45.06702" lon="6.05112">
        <ele>1062</ele>
        <time>2024-08-09T08:31:53Z</time>
      </trkpt>
      <trkpt lat="45.06702" lon="6.05112">
        <ele>1062.2</ele>
        <time>2024-08-09T08:31:54Z</time>
      </trkpt>
      <trkpt lat="45.06701" lon="6.05114">
        <ele>1062.4</ele>
        <time>2024-08-09T08:31:55Z</time>
      </trkpt>
      <trkpt lat="45.06701" lon="6.05114">
        <ele>1062.4</ele>
        <time>2024-08-09T08:31:56Z</time>
      </trkpt>
      <trkpt lat="45.06701" lon="6.05114">
        <ele>1062.4</ele>
        <time>2024-08-09T08:31:57Z</time>
      </trkpt>
      <trkpt lat="45.067" lon="6.05117">
        <ele>1062.8</ele>
        <time>2024-08-09T08:31:58Z</time>
      </trkpt>
      <trkpt lat="45.067" lon="6.05117">
        <ele>1063</ele>
        <time>2024-08-09T08:31:59Z</time>
      </trkpt>
      <trkpt lat="45.067" lon="6.05117">
        <ele>1063.2</ele>
        <time>2024-08-09T08:32:00Z</time>
      </trkpt>
      <trkpt lat="45.067" lon="6.0512">
        <ele>1063.4</ele>
        <time>2024-08-09T08:32:01Z</time>
      </trkpt>
      <trkpt lat="45.067" lon="6.0512">
        <ele>1064.2</ele>
        <time>2024-08-09T08:32:02Z</time>
      </trkpt>
      <trkpt lat="45.067" lon="6.0512">
        <ele>1064.2</ele>
        <time>2024-08-09T08:32:03Z</time>
      </trkpt>
      <trkpt lat="45.06699" lon="6.05123">
        <ele>1064.4</ele>
        <time>2024-08-09T08:32:04Z</time>
      </trkpt>
      <trkpt lat="45.06699" lon="6.05123">
        <ele>1064.4</ele>
        <time>2024-08-09T08:32:05Z</time>
      </trkpt>
      <trkpt lat="45.06697" lon="6.05125">
        <ele>1064.6</ele>
        <time>2024-08-09T08:32:06Z</time>
      </trkpt>
      <trkpt lat="45.06697" lon="6.05125">
        <ele>1064.8</ele>
        <time>2024-08-09T08:32:07Z</time>
      </trkpt>
      <trkpt lat="45.06695" lon="6.05128">
        <ele>1065</ele>
        <time>2024-08-09T08:32:08Z</time>
      </trkpt>
      <trkpt lat="45.06695" lon="6.05128">
        <ele>1065.2</ele>
        <time>2024-08-09T08:32:09Z</time>
      </trkpt>
      <trkpt lat="45.06696" lon="6.0513">
        <ele>1065.4</ele>
        <time>2024-08-09T08:32:10Z</time>
      </trkpt>
      <trkpt lat="45.06696" lon="6.0513">
        <ele>1065.6</ele>
        <time>2024-08-09T08:32:11Z</time>
      </trkpt>
      <trkpt lat="45.06696" lon="6.0513">
        <ele>1065.8</ele>
        <time>2024-08-09T08:32:12Z</time>
      </trkpt>
      <trkpt lat="45.06697" lon="6.05134">
        <ele>1066.2</ele>
        <time>2024-08-09T08:32:13Z</time>
      </trkpt>
      <trkpt lat="45.06697" lon="6.05134">
        <ele>1066.2</ele>
        <time>2024-08-09T08:32:14Z</time>
      </trkpt>
      <trkpt lat="45.06695" lon="6.05137">
        <ele>1066.4</ele>
        <time>2024-08-09T08:32:15Z</time>
      </trkpt>
      <trkpt lat="45.06693" lon="6.05137">
        <ele>1066.4</ele>
        <time>2024-08-09T08:32:16Z</time>
      </trkpt>
      <trkpt lat="45.06691" lon="6.05138">
        <ele>1066.4</ele>
        <time>2024-08-09T08:32:17Z</time>
      </trkpt>
      <trkpt lat="45.06688" lon="6.05139">
        <ele>1066.4</ele>
        <time>2024-08-09T08:32:18Z</time>
      </trkpt>
      <trkpt lat="45.06688" lon="6.05139">
        <ele>1066.8</ele>
        <time>2024-08-09T08:32:19Z</time>
      </trkpt>
      <trkpt lat="45.06689" lon="6.05142">
        <ele>1067.2</ele>
        <time>2024-08-09T08:32:20Z</time>
      </trkpt>
      <trkpt lat="45.06689" lon="6.05142">
        <ele>1067.2</ele>
        <time>2024-08-09T08:32:21Z</time>
      </trkpt>
      <trkpt lat="45.06689" lon="6.05142">
        <ele>1067.4</ele>
        <time>2024-08-09T08:32:22Z</time>
      </trkpt>
      <trkpt lat="45.0669" lon="6.05145">
        <ele>1067.6</ele>
        <time>2024-08-09T08:32:23Z</time>
      </trkpt>
      <trkpt lat="45.0669" lon="6.05145">
        <ele>1068</ele>
        <time>2024-08-09T08:32:24Z</time>
      </trkpt>
      <trkpt lat="45.0669" lon="6.05145">
        <ele>1068</ele>
        <time>2024-08-09T08:32:25Z</time>
      </trkpt>
      <trkpt lat="45.0669" lon="6.05148">
        <ele>1068.4</ele>
        <time>2024-08-09T08:32:26Z</time>
      </trkpt>
      <trkpt lat="45.06688" lon="6.05149">
        <ele>1068.6</ele>
        <time>2024-08-09T08:32:27Z</time>
      </trkpt>
      <trkpt lat="45.06686" lon="6.0515">
        <ele>1068.6</ele>
        <time>2024-08-09T08:32:28Z</time>
      </trkpt>
      <trkpt lat="45.06686" lon="6.0515">
        <ele>1068.8</ele>
        <time>2024-08-09T08:32:29Z</time>
      </trkpt>
      <trkpt lat="45.06686" lon="6.0515">
        <ele>1069.2</ele>
        <time>2024-08-09T08:32:30Z</time>
      </trkpt>
      <trkpt lat="45.06687" lon="6.05154">
        <ele>1069.2</ele>
        <time>2024-08-09T08:32:31Z</time>
      </trkpt>
      <trkpt lat="45.06687" lon="6.05154">
        <ele>1069.6</ele>
        <time>2024-08-09T08:32:32Z</time>
      </trkpt>
      <trkpt lat="45.06688" lon="6.05156">
        <ele>1069.8</ele>
        <time>2024-08-09T08:32:33Z</time>
      </trkpt>
      <trkpt lat="45.06688" lon="6.05156">
        <ele>1070</ele>
        <time>2024-08-09T08:32:34Z</time>
      </trkpt>
      <trkpt lat="45.06688" lon="6.05156">
        <ele>1070.4</ele>
        <time>2024-08-09T08:32:35Z</time>
      </trkpt>
      <trkpt lat="45.06688" lon="6.05159">
        <ele>1070.6</ele>
        <time>2024-08-09T08:32:36Z</time>
      </trkpt>
      <trkpt lat="45.06688" lon="6.05159">
        <ele>1070.8</ele>
        <time>2024-08-09T08:32:37Z</time>
      </trkpt>
      <trkpt lat="45.06688" lon="6.05162">
        <ele>1071</ele>
        <time>2024-08-09T08:32:38Z</time>
      </trkpt>
      <trkpt lat="45.06688" lon="6.05162">
        <ele>1071</ele>
        <time>2024-08-09T08:32:39Z</time>
      </trkpt>
      <trkpt lat="45.0669" lon="6.05165">
        <ele>1071</ele>
        <time>2024-08-09T08:32:40Z</time>
      </trkpt>
      <trkpt lat="45.0669" lon="6.05165">
        <ele>1071.2</ele>
        <time>2024-08-09T08:32:41Z</time>
      </trkpt>
      <trkpt lat="45.06692" lon="6.05167">
        <ele>1071.6</ele>
        <time>2024-08-09T08:32:42Z</time>
      </trkpt>
      <trkpt lat="45.06692" lon="6.05167">
        <ele>1071.6</ele>
        <time>2024-08-09T08:32:43Z</time>
      </trkpt>
      <trkpt lat="45.06691" lon="6.0517">
        <ele>1071.8</ele>
        <time>2024-08-09T08:32:44Z</time>
      </trkpt>
      <trkpt lat="45.06691" lon="6.0517">
        <ele>1071.8</ele>
        <time>2024-08-09T08:32:45Z</time>
      </trkpt>
      <trkpt lat="45.06691" lon="6.0517">
        <ele>1072.2</ele>
        <time>2024-08-09T08:32:46Z</time>
      </trkpt>
      <trkpt lat="45.0669" lon="6.05172">
        <ele>1072.4</ele>
        <time>2024-08-09T08:32:47Z</time>
      </trkpt>
      <trkpt lat="45.0669" lon="6.05172">
        <ele>1072.4</ele>
        <time>2024-08-09T08:32:48Z</time>
      </trkpt>
      <trkpt lat="45.06688" lon="6.05174">
        <ele>1072.4</ele>
        <time>2024-08-09T08:32:49Z</time>
      </trkpt>
      <trkpt lat="45.06688" lon="6.05174">
        <ele>1073</ele>
        <time>2024-08-09T08:32:50Z</time>
      </trkpt>
      <trkpt lat="45.06686" lon="6.05176">
        <ele>1073.2</ele>
        <time>2024-08-09T08:32:51Z</time>
      </trkpt>
      <trkpt lat="45.06686" lon="6.05176">
        <ele>1073.4</ele>
        <time>2024-08-09T08:32:52Z</time>
      </trkpt>
      <trkpt lat="45.06686" lon="6.05176">
        <ele>1073.4</ele>
        <time>2024-08-09T08:32:53Z</time>
      </trkpt>
      <trkpt lat="45.06688" lon="6.05178">
        <ele>1073.6</ele>
        <time>2024-08-09T08:32:54Z</time>
      </trkpt>
      <trkpt lat="45.06688" lon="6.05178">
        <ele>1073.8</ele>
        <time>2024-08-09T08:32:55Z</time>
      </trkpt>
      <trkpt lat="45.0669" lon="6.0518">
        <ele>1074.2</ele>
        <time>2024-08-09T08:32:56Z</time>
      </trkpt>
      <trkpt lat="45.0669" lon="6.0518">
        <ele>1074.2</ele>
        <time>2024-08-09T08:32:57Z</time>
      </trkpt>
      <trkpt lat="45.06692" lon="6.05182">
        <ele>1074.2</ele>
        <time>2024-08-09T08:32:58Z</time>
      </trkpt>
      <trkpt lat="45.06692" lon="6.05182">
        <ele>1074.2</ele>
        <time>2024-08-09T08:32:59Z</time>
      </trkpt>
      <trkpt lat="45.06693" lon="6.05184">
        <ele>1074.4</ele>
        <time>2024-08-09T08:33:00Z</time>
      </trkpt>
      <trkpt lat="45.06693" lon="6.05184">
        <ele>1074.8</ele>
        <time>2024-08-09T08:33:01Z</time>
      </trkpt>
      <trkpt lat="45.06693" lon="6.05184">
        <ele>1075.4</ele>
        <time>2024-08-09T08:33:02Z</time>
      </trkpt>
      <trkpt lat="45.06693" lon="6.05184">
        <ele>1075.4</ele>
        <time>2024-08-09T08:33:03Z</time>
      </trkpt>
      <trkpt lat="45.06692" lon="6.05188">
        <ele>1075.6</ele>
        <time>2024-08-09T08:33:04Z</time>
      </trkpt>
      <trkpt lat="45.06692" lon="6.05188">
        <ele>1075.8</ele>
        <time>2024-08-09T08:33:05Z</time>
      </trkpt>
      <trkpt lat="45.06692" lon="6.05188">
        <ele>1075.8</ele>
        <time>2024-08-09T08:33:06Z</time>
      </trkpt>
      <trkpt lat="45.06692" lon="6.05191">
        <ele>1075.8</ele>
        <time>2024-08-09T08:33:07Z</time>
      </trkpt>
      <trkpt lat="45.06692" lon="6.05191">
        <ele>1076</ele>
        <time>2024-08-09T08:33:08Z</time>
      </trkpt>
      <trkpt lat="45.06692" lon="6.05191">
        <ele>1076.4</ele>
        <time>2024-08-09T08:33:09Z</time>
      </trkpt>
      <trkpt lat="45.06692" lon="6.05194">
        <ele>1076.8</ele>
        <time>2024-08-09T08:33:10Z</time>
      </trkpt>
      <trkpt lat="45.06692" lon="6.05194">
        <ele>1077</ele>
        <time>2024-08-09T08:33:11Z</time>
      </trkpt>
      <trkpt lat="45.06692" lon="6.05194">
        <ele>1077.2</ele>
        <time>2024-08-09T08:33:12Z</time>
      </trkpt>
      <trkpt lat="45.06693" lon="6.05197">
        <ele>1077.4</ele>
        <time>2024-08-09T08:33:13Z</time>
      </trkpt>
      <trkpt lat="45.06693" lon="6.05197">
        <ele>1077.6</ele>
        <time>2024-08-09T08:33:14Z</time>
      </trkpt>
      <trkpt lat="45.06693" lon="6.05197">
        <ele>1077.6</ele>
        <time>2024-08-09T08:33:15Z</time>
      </trkpt>
      <trkpt lat="45.06693" lon="6.05197">
        <ele>1077.8</ele>
        <time>2024-08-09T08:33:16Z</time>
      </trkpt>
      <trkpt lat="45.06693" lon="6.052">
        <ele>1078.2</ele>
        <time>2024-08-09T08:33:17Z</time>
      </trkpt>
      <trkpt lat="45.06693" lon="6.052">
        <ele>1078.2</ele>
        <time>2024-08-09T08:33:18Z</time>
      </trkpt>
      <trkpt lat="45.06693" lon="6.052">
        <ele>1078.6</ele>
        <time>2024-08-09T08:33:19Z</time>
      </trkpt>
      <trkpt lat="45.06693" lon="6.052">
        <ele>1078.8</ele>
        <time>2024-08-09T08:33:20Z</time>
      </trkpt>
      <trkpt lat="45.06693" lon="6.05203">
        <ele>1078.8</ele>
        <time>2024-08-09T08:33:21Z</time>
      </trkpt>
      <trkpt lat="45.06693" lon="6.05203">
        <ele>1078.8</ele>
        <time>2024-08-09T08:33:22Z</time>
      </trkpt>
      <trkpt lat="45.06693" lon="6.05203">
        <ele>1079</ele>
        <time>2024-08-09T08:33:23Z</time>
      </trkpt>
      <trkpt lat="45.06693" lon="6.05203">
        <ele>1079.2</ele>
        <time>2024-08-09T08:33:24Z</time>
      </trkpt>
      <trkpt lat="45.06693" lon="6.05207">
        <ele>1079.2</ele>
        <time>2024-08-09T08:33:25Z</time>
      </trkpt>
      <trkpt lat="45.06693" lon="6.05207">
        <ele>1080</ele>
        <time>2024-08-09T08:33:26Z</time>
      </trkpt>
      <trkpt lat="45.06693" lon="6.05207">
        <ele>1080</ele>
        <time>2024-08-09T08:33:27Z</time>
      </trkpt>
      <trkpt lat="45.06693" lon="6.05209">
        <ele>1080.4</ele>
        <time>2024-08-09T08:33:28Z</time>
      </trkpt>
      <trkpt lat="45.06693" lon="6.05209">
        <ele>1080.6</ele>
        <time>2024-08-09T08:33:29Z</time>
      </trkpt>
      <trkpt lat="45.06694" lon="6.05211">
        <ele>1080.6</ele>
        <time>2024-08-09T08:33:30Z</time>
      </trkpt>
      <trkpt lat="45.06694" lon="6.05211">
        <ele>1080.8</ele>
        <time>2024-08-09T08:33:31Z</time>
      </trkpt>
      <trkpt lat="45.06694" lon="6.05211">
        <ele>1081.2</ele>
        <time>2024-08-09T08:33:32Z</time>
      </trkpt>
      <trkpt lat="45.06694" lon="6.05211">
        <ele>1081.2</ele>
        <time>2024-08-09T08:33:33Z</time>
      </trkpt>
      <trkpt lat="45.06694" lon="6.05214">
        <ele>1081.4</ele>
        <time>2024-08-09T08:33:34Z</time>
      </trkpt>
      <trkpt lat="45.06694" lon="6.05214">
        <ele>1081.8</ele>
        <time>2024-08-09T08:33:35Z</time>
      </trkpt>
      <trkpt lat="45.06692" lon="6.05216">
        <ele>1081.8</ele>
        <time>2024-08-09T08:33:36Z</time>
      </trkpt>
      <trkpt lat="45.06692" lon="6.05216">
        <ele>1081.8</ele>
        <time>2024-08-09T08:33:37Z</time>
      </trkpt>
      <trkpt lat="45.06686" lon="6.05219">
        <ele>1082.2</ele>
        <time>2024-08-09T08:33:38Z</time>
      </trkpt>
      <trkpt lat="45.06685" lon="6.05219">
        <ele>1082.4</ele>
        <time>2024-08-09T08:33:39Z</time>
      </trkpt>
      <trkpt lat="45.06683" lon="6.05221">
        <ele>1082.6</ele>
        <time>2024-08-09T08:33:40Z</time>
      </trkpt>
      <trkpt lat="45.06681" lon="6.05222">
        <ele>1082.6</ele>
        <time>2024-08-09T08:33:41Z</time>
      </trkpt>
      <trkpt lat="45.06681" lon="6.05222">
        <ele>1082.8</ele>
        <time>2024-08-09T08:33:42Z</time>
      </trkpt>
      <trkpt lat="45.06681" lon="6.05222">
        <ele>1082.8</ele>
        <time>2024-08-09T08:33:43Z</time>
      </trkpt>
      <trkpt lat="45.06681" lon="6.05222">
        <ele>1083.2</ele>
        <time>2024-08-09T08:33:44Z</time>
      </trkpt>
      <trkpt lat="45.06682" lon="6.05223">
        <ele>1083.4</ele>
        <time>2024-08-09T08:33:45Z</time>
      </trkpt>
      <trkpt lat="45.06682" lon="6.05223">
        <ele>1083.8</ele>
        <time>2024-08-09T08:33:46Z</time>
      </trkpt>
      <trkpt lat="45.06684" lon="6.05226">
        <ele>1083.8</ele>
        <time>2024-08-09T08:33:47Z</time>
      </trkpt>
      <trkpt lat="45.06684" lon="6.05226">
        <ele>1083.8</ele>
        <time>2024-08-09T08:33:48Z</time>
      </trkpt>
      <trkpt lat="45.06684" lon="6.05226">
        <ele>1084.2</ele>
        <time>2024-08-09T08:33:49Z</time>
      </trkpt>
      <trkpt lat="45.06684" lon="6.05229">
        <ele>1084.4</ele>
        <time>2024-08-09T08:33:50Z</time>
      </trkpt>
      <trkpt lat="45.06684" lon="6.05229">
        <ele>1084.8</ele>
        <time>2024-08-09T08:33:51Z</time>
      </trkpt>
      <trkpt lat="45.06684" lon="6.05229">
        <ele>1084.8</ele>
        <time>2024-08-09T08:33:52Z</time>
      </trkpt>
      <trkpt lat="45.06685" lon="6.05232">
        <ele>1085</ele>
        <time>2024-08-09T08:33:53Z</time>
      </trkpt>
      <trkpt lat="45.06685" lon="6.05232">
        <ele>1085.2</ele>
        <time>2024-08-09T08:33:54Z</time>
      </trkpt>
      <trkpt lat="45.06686" lon="6.05233">
        <ele>1085.6</ele>
        <time>2024-08-09T08:33:55Z</time>
      </trkpt>
      <trkpt lat="45.06686" lon="6.05233">
        <ele>1085.8</ele>
        <time>2024-08-09T08:33:56Z</time>
      </trkpt>
      <trkpt lat="45.06684" lon="6.05234">
        <ele>1085.8</ele>
        <time>2024-08-09T08:33:57Z</time>
      </trkpt>
      <trkpt lat="45.06682" lon="6.05234">
        <ele>1086</ele>
        <time>2024-08-09T08:33:58Z</time>
      </trkpt>
      <trkpt lat="45.06679" lon="6.05235">
        <ele>1086.2</ele>
        <time>2024-08-09T08:33:59Z</time>
      </trkpt>
      <trkpt lat="45.06677" lon="6.05236">
        <ele>1086.2</ele>
        <time>2024-08-09T08:34:00Z</time>
      </trkpt>
      <trkpt lat="45.06677" lon="6.05236">
        <ele>1086.6</ele>
        <time>2024-08-09T08:34:01Z</time>
      </trkpt>
      <trkpt lat="45.06677" lon="6.05236">
        <ele>1087</ele>
        <time>2024-08-09T08:34:02Z</time>
      </trkpt>
      <trkpt lat="45.06679" lon="6.05239">
        <ele>1087</ele>
        <time>2024-08-09T08:34:03Z</time>
      </trkpt>
      <trkpt lat="45.06679" lon="6.05239">
        <ele>1087.2</ele>
        <time>2024-08-09T08:34:04Z</time>
      </trkpt>
      <trkpt lat="45.06679" lon="6.05239">
        <ele>1087.4</ele>
        <time>2024-08-09T08:34:05Z</time>
      </trkpt>
      <trkpt lat="45.06679" lon="6.05239">
        <ele>1087.4</ele>
        <time>2024-08-09T08:34:06Z</time>
      </trkpt>
      <trkpt lat="45.0668" lon="6.05242">
        <ele>1087.8</ele>
        <time>2024-08-09T08:34:07Z</time>
      </trkpt>
      <trkpt lat="45.0668" lon="6.05242">
        <ele>1087.8</ele>
        <time>2024-08-09T08:34:08Z</time>
      </trkpt>
      <trkpt lat="45.0668" lon="6.05242">
        <ele>1088</ele>
        <time>2024-08-09T08:34:09Z</time>
      </trkpt>
      <trkpt lat="45.0668" lon="6.05245">
        <ele>1088.2</ele>
        <time>2024-08-09T08:34:10Z</time>
      </trkpt>
      <trkpt lat="45.0668" lon="6.05245">
        <ele>1088.2</ele>
        <time>2024-08-09T08:34:11Z</time>
      </trkpt>
      <trkpt lat="45.0668" lon="6.05245">
        <ele>1088.6</ele>
        <time>2024-08-09T08:34:12Z</time>
      </trkpt>
      <trkpt lat="45.0668" lon="6.05245">
        <ele>1088.8</ele>
        <time>2024-08-09T08:34:13Z</time>
      </trkpt>
      <trkpt lat="45.06681" lon="6.05248">
        <ele>1089.2</ele>
        <time>2024-08-09T08:34:14Z</time>
      </trkpt>
      <trkpt lat="45.06681" lon="6.05248">
        <ele>1089.4</ele>
        <time>2024-08-09T08:34:15Z</time>
      </trkpt>
      <trkpt lat="45.06683" lon="6.0525">
        <ele>1089.6</ele>
        <time>2024-08-09T08:34:16Z</time>
      </trkpt>
      <trkpt lat="45.06683" lon="6.0525">
        <ele>1089.6</ele>
        <time>2024-08-09T08:34:17Z</time>
      </trkpt>
      <trkpt lat="45.06685" lon="6.05253">
        <ele>1089.6</ele>
        <time>2024-08-09T08:34:18Z</time>
      </trkpt>
      <trkpt lat="45.06685" lon="6.05253">
        <ele>1090.2</ele>
        <time>2024-08-09T08:34:19Z</time>
      </trkpt>
      <trkpt lat="45.06686" lon="6.05255">
        <ele>1090.2</ele>
        <time>2024-08-09T08:34:20Z</time>
      </trkpt>
      <trkpt lat="45.06686" lon="6.05255">
        <ele>1090.2</ele>
        <time>2024-08-09T08:34:21Z</time>
      </trkpt>
      <trkpt lat="45.06688" lon="6.05257">
        <ele>1090.4</ele>
        <time>2024-08-09T08:34:22Z</time>
      </trkpt>
      <trkpt lat="45.0669" lon="6.05258">
        <ele>1090.6</ele>
        <time>2024-08-09T08:34:23Z</time>
      </trkpt>
      <trkpt lat="45.0669" lon="6.05258">
        <ele>1090.8</ele>
        <time>2024-08-09T08:34:24Z</time>
      </trkpt>
      <trkpt lat="45.06691" lon="6.0526">
        <ele>1091</ele>
        <time>2024-08-09T08:34:25Z</time>
      </trkpt>
      <trkpt lat="45.06691" lon="6.0526">
        <ele>1091.4</ele>
        <time>2024-08-09T08:34:26Z</time>
      </trkpt>
      <trkpt lat="45.06691" lon="6.0526">
        <ele>1091.4</ele>
        <time>2024-08-09T08:34:27Z</time>
      </trkpt>
      <trkpt lat="45.06691" lon="6.0526">
        <ele>1092</ele>
        <time>2024-08-09T08:34:28Z</time>
      </trkpt>
      <trkpt lat="45.06692" lon="6.05262">
        <ele>1092</ele>
        <time>2024-08-09T08:34:29Z</time>
      </trkpt>
      <trkpt lat="45.06692" lon="6.05262">
        <ele>1092.2</ele>
        <time>2024-08-09T08:34:30Z</time>
      </trkpt>
      <trkpt lat="45.06692" lon="6.05262">
        <ele>1092.4</ele>
        <time>2024-08-09T08:34:31Z</time>
      </trkpt>
      <trkpt lat="45.06693" lon="6.05265">
        <ele>1092.6</ele>
        <time>2024-08-09T08:34:32Z</time>
      </trkpt>
      <trkpt lat="45.06693" lon="6.05265">
        <ele>1092.6</ele>
        <time>2024-08-09T08:34:33Z</time>
      </trkpt>
      <trkpt lat="45.06693" lon="6.05265">
        <ele>1093</ele>
        <time>2024-08-09T08:34:34Z</time>
      </trkpt>
      <trkpt lat="45.06694" lon="6.05267">
        <ele>1093</ele>
        <time>2024-08-09T08:34:35Z</time>
      </trkpt>
      <trkpt lat="45.06694" lon="6.05267">
        <ele>1093</ele>
        <time>2024-08-09T08:34:36Z</time>
      </trkpt>
      <trkpt lat="45.06694" lon="6.05267">
        <ele>1093.4</ele>
        <time>2024-08-09T08:34:37Z</time>
      </trkpt>
      <trkpt lat="45.06695" lon="6.05269">
        <ele>1093.6</ele>
        <time>2024-08-09T08:34:38Z</time>
      </trkpt>
      <trkpt lat="45.06695" lon="6.05269">
        <ele>1093.6</ele>
        <time>2024-08-09T08:34:39Z</time>
      </trkpt>
      <trkpt lat="45.06697" lon="6.05271">
        <ele>1094</ele>
        <time>2024-08-09T08:34:40Z</time>
      </trkpt>
      <trkpt lat="45.06697" lon="6.05271">
        <ele>1094.2</ele>
        <time>2024-08-09T08:34:41Z</time>
      </trkpt>
      <trkpt lat="45.06699" lon="6.05273">
        <ele>1094.2</ele>
        <time>2024-08-09T08:34:42Z</time>
      </trkpt>
      <trkpt lat="45.06699" lon="6.05273">
        <ele>1094.8</ele>
        <time>2024-08-09T08:34:43Z</time>
      </trkpt>
      <trkpt lat="45.06696" lon="6.05278">
        <ele>1094.8</ele>
        <time>2024-08-09T08:34:44Z</time>
      </trkpt>
      <trkpt lat="45.06696" lon="6.05278">
        <ele>1095.2</ele>
        <time>2024-08-09T08:34:45Z</time>
      </trkpt>
      <trkpt lat="45.06695" lon="6.05278">
        <ele>1095.4</ele>
        <time>2024-08-09T08:34:46Z</time>
      </trkpt>
      <trkpt lat="45.06694" lon="6.05279">
        <ele>1095.6</ele>
        <time>2024-08-09T08:34:47Z</time>
      </trkpt>
      <trkpt lat="45.06693" lon="6.0528">
        <ele>1095.6</ele>
        <time>2024-08-09T08:34:48Z</time>
      </trkpt>
      <trkpt lat="45.06693" lon="6.05281">
        <ele>1096</ele>
        <time>2024-08-09T08:34:49Z</time>
      </trkpt>
      <trkpt lat="45.06693" lon="6.05281">
        <ele>1096.2</ele>
        <time>2024-08-09T08:34:50Z</time>
      </trkpt>
      <trkpt lat="45.06692" lon="6.05285">
        <ele>1096.2</ele>
        <time>2024-08-09T08:34:51Z</time>
      </trkpt>
      <trkpt lat="45.06692" lon="6.05285">
        <ele>1096.6</ele>
        <time>2024-08-09T08:34:52Z</time>
      </trkpt>
      <trkpt lat="45.06694" lon="6.05287">
        <ele>1096.6</ele>
        <time>2024-08-09T08:34:53Z</time>
      </trkpt>
      <trkpt lat="45.06694" lon="6.05287">
        <ele>1096.6</ele>
        <time>2024-08-09T08:34:54Z</time>
      </trkpt>
      <trkpt lat="45.06694" lon="6.05287">
        <ele>1097.2</ele>
        <time>2024-08-09T08:34:55Z</time>
      </trkpt>
      <trkpt lat="45.06695" lon="6.05291">
        <ele>1097.4</ele>
        <time>2024-08-09T08:34:56Z</time>
      </trkpt>
      <trkpt lat="45.06695" lon="6.05291">
        <ele>1097.4</ele>
        <time>2024-08-09T08:34:57Z</time>
      </trkpt>
      <trkpt lat="45.06695" lon="6.05294">
        <ele>1097.6</ele>
        <time>2024-08-09T08:34:58Z</time>
      </trkpt>
      <trkpt lat="45.06695" lon="6.05294">
        <ele>1097.8</ele>
        <time>2024-08-09T08:34:59Z</time>
      </trkpt>
      <trkpt lat="45.06695" lon="6.05294">
        <ele>1098</ele>
        <time>2024-08-09T08:35:00Z</time>
      </trkpt>
      <trkpt lat="45.06695" lon="6.05294">
        <ele>1098.4</ele>
        <time>2024-08-09T08:35:01Z</time>
      </trkpt>
      <trkpt lat="45.06695" lon="6.05294">
        <ele>1098.6</ele>
        <time>2024-08-09T08:35:02Z</time>
      </trkpt>
      <trkpt lat="45.06696" lon="6.05296">
        <ele>1098.6</ele>
        <time>2024-08-09T08:35:03Z</time>
      </trkpt>
      <trkpt lat="45.06696" lon="6.05296">
        <ele>1098.8</ele>
        <time>2024-08-09T08:35:04Z</time>
      </trkpt>
      <trkpt lat="45.06696" lon="6.05296">
        <ele>1099.2</ele>
        <time>2024-08-09T08:35:05Z</time>
      </trkpt>
      <trkpt lat="45.06696" lon="6.05296">
        <ele>1099.4</ele>
        <time>2024-08-09T08:35:06Z</time>
      </trkpt>
      <trkpt lat="45.06696" lon="6.053">
        <ele>1099.6</ele>
        <time>2024-08-09T08:35:07Z</time>
      </trkpt>
      <trkpt lat="45.06696" lon="6.053">
        <ele>1099.8</ele>
        <time>2024-08-09T08:35:08Z</time>
      </trkpt>
      <trkpt lat="45.06696" lon="6.053">
        <ele>1100</ele>
        <time>2024-08-09T08:35:09Z</time>
      </trkpt>
      <trkpt lat="45.06696" lon="6.053">
        <ele>1100.2</ele>
        <time>2024-08-09T08:35:10Z</time>
      </trkpt>
      <trkpt lat="45.06696" lon="6.05303">
        <ele>1100.2</ele>
        <time>2024-08-09T08:35:11Z</time>
      </trkpt>
      <trkpt lat="45.06696" lon="6.05303">
        <ele>1101</ele>
        <time>2024-08-09T08:35:12Z</time>
      </trkpt>
      <trkpt lat="45.06696" lon="6.05303">
        <ele>1101.2</ele>
        <time>2024-08-09T08:35:13Z</time>
      </trkpt>
      <trkpt lat="45.06697" lon="6.05306">
        <ele>1101.2</ele>
        <time>2024-08-09T08:35:14Z</time>
      </trkpt>
      <trkpt lat="45.06697" lon="6.05306">
        <ele>1101.4</ele>
        <time>2024-08-09T08:35:15Z</time>
      </trkpt>
      <trkpt lat="45.06697" lon="6.05306">
        <ele>1101.4</ele>
        <time>2024-08-09T08:35:16Z</time>
      </trkpt>
      <trkpt lat="45.06698" lon="6.05308">
        <ele>1101.4</ele>
        <time>2024-08-09T08:35:17Z</time>
      </trkpt>
      <trkpt lat="45.06698" lon="6.05308">
        <ele>1101.4</ele>
        <time>2024-08-09T08:35:18Z</time>
      </trkpt>
      <trkpt lat="45.06698" lon="6.05308">
        <ele>1102</ele>
        <time>2024-08-09T08:35:19Z</time>
      </trkpt>
      <trkpt lat="45.06699" lon="6.05311">
        <ele>1102</ele>
        <time>2024-08-09T08:35:20Z</time>
      </trkpt>
      <trkpt lat="45.06699" lon="6.05311">
        <ele>1102.2</ele>
        <time>2024-08-09T08:35:21Z</time>
      </trkpt>
      <trkpt lat="45.067" lon="6.05313">
        <ele>1102.4</ele>
        <time>2024-08-09T08:35:22Z</time>
      </trkpt>
      <trkpt lat="45.067" lon="6.05313">
        <ele>1102.6</ele>
        <time>2024-08-09T08:35:23Z</time>
      </trkpt>
      <trkpt lat="45.067" lon="6.05313">
        <ele>1102.8</ele>
        <time>2024-08-09T08:35:24Z</time>
      </trkpt>
      <trkpt lat="45.067" lon="6.05313">
        <ele>1103.2</ele>
        <time>2024-08-09T08:35:25Z</time>
      </trkpt>
      <trkpt lat="45.06701" lon="6.05316">
        <ele>1103.6</ele>
        <time>2024-08-09T08:35:26Z</time>
      </trkpt>
      <trkpt lat="45.06701" lon="6.05316">
        <ele>1103.6</ele>
        <time>2024-08-09T08:35:27Z</time>
      </trkpt>
      <trkpt lat="45.06701" lon="6.05316">
        <ele>1103.6</ele>
        <time>2024-08-09T08:35:28Z</time>
      </trkpt>
      <trkpt lat="45.067" lon="6.05319">
        <ele>1103.8</ele>
        <time>2024-08-09T08:35:29Z</time>
      </trkpt>
      <trkpt lat="45.067" lon="6.05319">
        <ele>1103.8</ele>
        <time>2024-08-09T08:35:30Z</time>
      </trkpt>
      <trkpt lat="45.067" lon="6.05319">
        <ele>1104.4</ele>
        <time>2024-08-09T08:35:31Z</time>
      </trkpt>
      <trkpt lat="45.06698" lon="6.05321">
        <ele>1104.4</ele>
        <time>2024-08-09T08:35:32Z</time>
      </trkpt>
      <trkpt lat="45.06698" lon="6.05321">
        <ele>1104.6</ele>
        <time>2024-08-09T08:35:33Z</time>
      </trkpt>
      <trkpt lat="45.06696" lon="6.05321">
        <ele>1104.8</ele>
        <time>2024-08-09T08:35:34Z</time>
      </trkpt>
      <trkpt lat="45.06696" lon="6.05321">
        <ele>1105</ele>
        <time>2024-08-09T08:35:35Z</time>
      </trkpt>
      <trkpt lat="45.06696" lon="6.05321">
        <ele>1105.2</ele>
        <time>2024-08-09T08:35:36Z</time>
      </trkpt>
      <trkpt lat="45.06694" lon="6.0532">
        <ele>1105.2</ele>
        <time>2024-08-09T08:35:37Z</time>
      </trkpt>
      <trkpt lat="45.06694" lon="6.0532">
        <ele>1105.2</ele>
        <time>2024-08-09T08:35:38Z</time>
      </trkpt>
      <trkpt lat="45.06692" lon="6.05319">
        <ele>1105.4</ele>
        <time>2024-08-09T08:35:39Z</time>
      </trkpt>
      <trkpt lat="45.0669" lon="6.05318">
        <ele>1106</ele>
        <time>2024-08-09T08:35:40Z</time>
      </trkpt>
      <trkpt lat="45.06689" lon="6.05318">
        <ele>1106.2</ele>
        <time>2024-08-09T08:35:41Z</time>
      </trkpt>
      <trkpt lat="45.06689" lon="6.05318">
        <ele>1106.2</ele>
        <time>2024-08-09T08:35:42Z</time>
      </trkpt>
      <trkpt lat="45.06686" lon="6.05315">
        <ele>1106.4</ele>
        <time>2024-08-09T08:35:43Z</time>
      </trkpt>
      <trkpt lat="45.06686" lon="6.05315">
        <ele>1106.6</ele>
        <time>2024-08-09T08:35:44Z</time>
      </trkpt>
      <trkpt lat="45.06684" lon="6.05314">
        <ele>1107</ele>
        <time>2024-08-09T08:35:45Z</time>
      </trkpt>
      <trkpt lat="45.06684" lon="6.05314">
        <ele>1107</ele>
        <time>2024-08-09T08:35:46Z</time>
      </trkpt>
      <trkpt lat="45.06684" lon="6.05314">
        <ele>1107.2</ele>
        <time>2024-08-09T08:35:47Z</time>
      </trkpt>
      <trkpt lat="45.06684" lon="6.05311">
        <ele>1107.4</ele>
        <time>2024-08-09T08:35:48Z</time>
      </trkpt>
      <trkpt lat="45.06684" lon="6.05311">
        <ele>1107.8</ele>
        <time>2024-08-09T08:35:49Z</time>
      </trkpt>
      <trkpt lat="45.06684" lon="6.05311">
        <ele>1107.8</ele>
        <time>2024-08-09T08:35:50Z</time>
      </trkpt>
      <trkpt lat="45.06683" lon="6.05308">
        <ele>1108</ele>
        <time>2024-08-09T08:35:51Z</time>
      </trkpt>
      <trkpt lat="45.06683" lon="6.05308">
        <ele>1108.2</ele>
        <time>2024-08-09T08:35:52Z</time>
      </trkpt>
      <trkpt lat="45.06683" lon="6.05308">
        <ele>1108.4</ele>
        <time>2024-08-09T08:35:53Z</time>
      </trkpt>
      <trkpt lat="45.06682" lon="6.05306">
        <ele>1108.4</ele>
        <time>2024-08-09T08:35:54Z</time>
      </trkpt>
      <trkpt lat="45.06682" lon="6.05306">
        <ele>1108.8</ele>
        <time>2024-08-09T08:35:55Z</time>
      </trkpt>
      <trkpt lat="45.06682" lon="6.05306">
        <ele>1109</ele>
        <time>2024-08-09T08:35:56Z</time>
      </trkpt>
      <trkpt lat="45.06681" lon="6.05303">
        <ele>1109</ele>
        <time>2024-08-09T08:35:57Z</time>
      </trkpt>
      <trkpt lat="45.06681" lon="6.05303">
        <ele>1109</ele>
        <time>2024-08-09T08:35:58Z</time>
      </trkpt>
      <trkpt lat="45.0668" lon="6.053">
        <ele>1109.2</ele>
        <time>2024-08-09T08:35:59Z</time>
      </trkpt>
      <trkpt lat="45.0668" lon="6.053">
        <ele>1109.4</ele>
        <time>2024-08-09T08:36:00Z</time>
      </trkpt>
      <trkpt lat="45.06678" lon="6.05299">
        <ele>1109.4</ele>
        <time>2024-08-09T08:36:01Z</time>
      </trkpt>
      <trkpt lat="45.06676" lon="6.05298">
        <ele>1109.8</ele>
        <time>2024-08-09T08:36:02Z</time>
      </trkpt>
      <trkpt lat="45.06676" lon="6.05298">
        <ele>1109.8</ele>
        <time>2024-08-09T08:36:03Z</time>
      </trkpt>
      <trkpt lat="45.06675" lon="6.05296">
        <ele>1110.2</ele>
        <time>2024-08-09T08:36:04Z</time>
      </trkpt>
      <trkpt lat="45.06675" lon="6.05296">
        <ele>1110.4</ele>
        <time>2024-08-09T08:36:05Z</time>
      </trkpt>
      <trkpt lat="45.06675" lon="6.05293">
        <ele>1110.6</ele>
        <time>2024-08-09T08:36:06Z</time>
      </trkpt>
      <trkpt lat="45.06675" lon="6.05293">
        <ele>1110.8</ele>
        <time>2024-08-09T08:36:07Z</time>
      </trkpt>
      <trkpt lat="45.06675" lon="6.05293">
        <ele>1111.2</ele>
        <time>2024-08-09T08:36:08Z</time>
      </trkpt>
      <trkpt lat="45.06675" lon="6.05293">
        <ele>1111.4</ele>
        <time>2024-08-09T08:36:09Z</time>
      </trkpt>
      <trkpt lat="45.06675" lon="6.0529">
        <ele>1111.4</ele>
        <time>2024-08-09T08:36:10Z</time>
      </trkpt>
      <trkpt lat="45.06675" lon="6.0529">
        <ele>1111.4</ele>
        <time>2024-08-09T08:36:11Z</time>
      </trkpt>
      <trkpt lat="45.06675" lon="6.0529">
        <ele>1111.8</ele>
        <time>2024-08-09T08:36:12Z</time>
      </trkpt>
      <trkpt lat="45.06674" lon="6.05287">
        <ele>1112</ele>
        <time>2024-08-09T08:36:13Z</time>
      </trkpt>
      <trkpt lat="45.06674" lon="6.05287">
        <ele>1112.2</ele>
        <time>2024-08-09T08:36:14Z</time>
      </trkpt>
      <trkpt lat="45.06674" lon="6.05287">
        <ele>1112.4</ele>
        <time>2024-08-09T08:36:15Z</time>
      </trkpt>
      <trkpt lat="45.06673" lon="6.05284">
        <ele>1112.6</ele>
        <time>2024-08-09T08:36:16Z</time>
      </trkpt>
      <trkpt lat="45.06673" lon="6.05284">
        <ele>1112.8</ele>
        <time>2024-08-09T08:36:17Z</time>
      </trkpt>
      <trkpt lat="45.06673" lon="6.05284">
        <ele>1113</ele>
        <time>2024-08-09T08:36:18Z</time>
      </trkpt>
      <trkpt lat="45.06672" lon="6.0528">
        <ele>1113.2</ele>
        <time>2024-08-09T08:36:19Z</time>
      </trkpt>
      <trkpt lat="45.06672" lon="6.0528">
        <ele>1113.2</ele>
        <time>2024-08-09T08:36:20Z</time>
      </trkpt>
      <trkpt lat="45.0667" lon="6.05278">
        <ele>1113.4</ele>
        <time>2024-08-09T08:36:21Z</time>
      </trkpt>
      <trkpt lat="45.0667" lon="6.05278">
        <ele>1113.6</ele>
        <time>2024-08-09T08:36:22Z</time>
      </trkpt>
      <trkpt lat="45.0667" lon="6.05275">
        <ele>1113.8</ele>
        <time>2024-08-09T08:36:23Z</time>
      </trkpt>
      <trkpt lat="45.0667" lon="6.05275">
        <ele>1114.2</ele>
        <time>2024-08-09T08:36:24Z</time>
      </trkpt>
      <trkpt lat="45.06669" lon="6.05273">
        <ele>1114.2</ele>
        <time>2024-08-09T08:36:25Z</time>
      </trkpt>
      <trkpt lat="45.06669" lon="6.05273">
        <ele>1114.2</ele>
        <time>2024-08-09T08:36:26Z</time>
      </trkpt>
      <trkpt lat="45.06669" lon="6.05273">
        <ele>1114.2</ele>
        <time>2024-08-09T08:36:27Z</time>
      </trkpt>
      <trkpt lat="45.06668" lon="6.0527">
        <ele>1114.6</ele>
        <time>2024-08-09T08:36:28Z</time>
      </trkpt>
      <trkpt lat="45.06668" lon="6.0527">
        <ele>1115</ele>
        <time>2024-08-09T08:36:29Z</time>
      </trkpt>
      <trkpt lat="45.06668" lon="6.0527">
        <ele>1115</ele>
        <time>2024-08-09T08:36:30Z</time>
      </trkpt>
      <trkpt lat="45.06666" lon="6.05267">
        <ele>1115</ele>
        <time>2024-08-09T08:36:31Z</time>
      </trkpt>
      <trkpt lat="45.06666" lon="6.05267">
        <ele>1115.2</ele>
        <time>2024-08-09T08:36:32Z</time>
      </trkpt>
      <trkpt lat="45.06666" lon="6.05267">
        <ele>1115.4</ele>
        <time>2024-08-09T08:36:33Z</time>
      </trkpt>
      <trkpt lat="45.06665" lon="6.05265">
        <ele>1115.8</ele>
        <time>2024-08-09T08:36:34Z</time>
      </trkpt>
      <trkpt lat="45.06665" lon="6.05265">
        <ele>1116</ele>
        <time>2024-08-09T08:36:35Z</time>
      </trkpt>
      <trkpt lat="45.06665" lon="6.05265">
        <ele>1116</ele>
        <time>2024-08-09T08:36:36Z</time>
      </trkpt>
      <trkpt lat="45.06663" lon="6.05261">
        <ele>1116.2</ele>
        <time>2024-08-09T08:36:37Z</time>
      </trkpt>
      <trkpt lat="45.06663" lon="6.05261">
        <ele>1116.4</ele>
        <time>2024-08-09T08:36:38Z</time>
      </trkpt>
      <trkpt lat="45.06663" lon="6.05261">
        <ele>1116.6</ele>
        <time>2024-08-09T08:36:39Z</time>
      </trkpt>
      <trkpt lat="45.06662" lon="6.05258">
        <ele>1116.8</ele>
        <time>2024-08-09T08:36:40Z</time>
      </trkpt>
      <trkpt lat="45.06662" lon="6.05258">
        <ele>1117</ele>
        <time>2024-08-09T08:36:41Z</time>
      </trkpt>
      <trkpt lat="45.06662" lon="6.05258">
        <ele>1117.4</ele>
        <time>2024-08-09T08:36:42Z</time>
      </trkpt>
      <trkpt lat="45.06662" lon="6.05256">
        <ele>1117.6</ele>
        <time>2024-08-09T08:36:43Z</time>
      </trkpt>
      <trkpt lat="45.06649" lon="6.0526">
        <ele>1117.6</ele>
        <time>2024-08-09T08:36:44Z</time>
      </trkpt>
      <trkpt lat="45.06648" lon="6.05259">
        <ele>1117.8</ele>
        <time>2024-08-09T08:36:45Z</time>
      </trkpt>
      <trkpt lat="45.06647" lon="6.05258">
        <ele>1117.8</ele>
        <time>2024-08-09T08:36:46Z</time>
      </trkpt>
      <trkpt lat="45.06647" lon="6.05258">
        <ele>1117.8</ele>
        <time>2024-08-09T08:36:47Z</time>
      </trkpt>
      <trkpt lat="45.06647" lon="6.05258">
        <ele>1118</ele>
        <time>2024-08-09T08:36:48Z</time>
      </trkpt>
      <trkpt lat="45.06648" lon="6.05255">
        <ele>1118.6</ele>
        <time>2024-08-09T08:36:49Z</time>
      </trkpt>
      <trkpt lat="45.06648" lon="6.05255">
        <ele>1118.6</ele>
        <time>2024-08-09T08:36:50Z</time>
      </trkpt>
      <trkpt lat="45.06648" lon="6.05255">
        <ele>1119</ele>
        <time>2024-08-09T08:36:51Z</time>
      </trkpt>
      <trkpt lat="45.06646" lon="6.05252">
        <ele>1119.2</ele>
        <time>2024-08-09T08:36:52Z</time>
      </trkpt>
      <trkpt lat="45.06646" lon="6.05252">
        <ele>1119.4</ele>
        <time>2024-08-09T08:36:53Z</time>
      </trkpt>
      <trkpt lat="45.06637" lon="6.05255">
        <ele>1119.4</ele>
        <time>2024-08-09T08:36:54Z</time>
      </trkpt>
      <trkpt lat="45.06636" lon="6.05255">
        <ele>1119.8</ele>
        <time>2024-08-09T08:36:55Z</time>
      </trkpt>
      <trkpt lat="45.06636" lon="6.05255">
        <ele>1120.2</ele>
        <time>2024-08-09T08:36:56Z</time>
      </trkpt>
      <trkpt lat="45.06634" lon="6.05255">
        <ele>1120.4</ele>
        <time>2024-08-09T08:36:57Z</time>
      </trkpt>
      <trkpt lat="45.06635" lon="6.05252">
        <ele>1120.6</ele>
        <time>2024-08-09T08:36:58Z</time>
      </trkpt>
      <trkpt lat="45.06635" lon="6.05252">
        <ele>1120.8</ele>
        <time>2024-08-09T08:36:59Z</time>
      </trkpt>
      <trkpt lat="45.06635" lon="6.05248">
        <ele>1120.8</ele>
        <time>2024-08-09T08:37:00Z</time>
      </trkpt>
      <trkpt lat="45.06635" lon="6.05248">
        <ele>1121</ele>
        <time>2024-08-09T08:37:01Z</time>
      </trkpt>
      <trkpt lat="45.06635" lon="6.05248">
        <ele>1121.2</ele>
        <time>2024-08-09T08:37:02Z</time>
      </trkpt>
      <trkpt lat="45.06636" lon="6.05244">
        <ele>1121.2</ele>
        <time>2024-08-09T08:37:03Z</time>
      </trkpt>
      <trkpt lat="45.06636" lon="6.05244">
        <ele>1121.4</ele>
        <time>2024-08-09T08:37:04Z</time>
      </trkpt>
      <trkpt lat="45.06636" lon="6.05244">
        <ele>1121.8</ele>
        <time>2024-08-09T08:37:05Z</time>
      </trkpt>
      <trkpt lat="45.06637" lon="6.05242">
        <ele>1122</ele>
        <time>2024-08-09T08:37:06Z</time>
      </trkpt>
      <trkpt lat="45.06637" lon="6.05242">
        <ele>1122</ele>
        <time>2024-08-09T08:37:07Z</time>
      </trkpt>
      <trkpt lat="45.06637" lon="6.05239">
        <ele>1122.2</ele>
        <time>2024-08-09T08:37:08Z</time>
      </trkpt>
      <trkpt lat="45.06637" lon="6.05239">
        <ele>1122.6</ele>
        <time>2024-08-09T08:37:09Z</time>
      </trkpt>
      <trkpt lat="45.06637" lon="6.05239">
        <ele>1123</ele>
        <time>2024-08-09T08:37:10Z</time>
      </trkpt>
      <trkpt lat="45.06635" lon="6.05237">
        <ele>1123</ele>
        <time>2024-08-09T08:37:11Z</time>
      </trkpt>
      <trkpt lat="45.06635" lon="6.05237">
        <ele>1123</ele>
        <time>2024-08-09T08:37:12Z</time>
      </trkpt>
      <trkpt lat="45.06635" lon="6.05237">
        <ele>1123.6</ele>
        <time>2024-08-09T08:37:13Z</time>
      </trkpt>
      <trkpt lat="45.06634" lon="6.05234">
        <ele>1123.8</ele>
        <time>2024-08-09T08:37:14Z</time>
      </trkpt>
      <trkpt lat="45.06634" lon="6.05234">
        <ele>1124</ele>
        <time>2024-08-09T08:37:15Z</time>
      </trkpt>
      <trkpt lat="45.06634" lon="6.05234">
        <ele>1124</ele>
        <time>2024-08-09T08:37:16Z</time>
      </trkpt>
      <trkpt lat="45.06633" lon="6.05231">
        <ele>1124</ele>
        <time>2024-08-09T08:37:17Z</time>
      </trkpt>
      <trkpt lat="45.06633" lon="6.05231">
        <ele>1124.2</ele>
        <time>2024-08-09T08:37:18Z</time>
      </trkpt>
      <trkpt lat="45.06633" lon="6.05231">
        <ele>1124.4</ele>
        <time>2024-08-09T08:37:19Z</time>
      </trkpt>
      <trkpt lat="45.0663" lon="6.05231">
        <ele>1124.4</ele>
        <time>2024-08-09T08:37:20Z</time>
      </trkpt>
      <trkpt lat="45.0663" lon="6.05231">
        <ele>1125</ele>
        <time>2024-08-09T08:37:21Z</time>
      </trkpt>
      <trkpt lat="45.0663" lon="6.05231">
        <ele>1125.4</ele>
        <time>2024-08-09T08:37:22Z</time>
      </trkpt>
      <trkpt lat="45.06629" lon="6.05228">
        <ele>1125.4</ele>
        <time>2024-08-09T08:37:23Z</time>
      </trkpt>
      <trkpt lat="45.06629" lon="6.05228">
        <ele>1125.6</ele>
        <time>2024-08-09T08:37:24Z</time>
      </trkpt>
      <trkpt lat="45.06629" lon="6.05226">
        <ele>1125.8</ele>
        <time>2024-08-09T08:37:25Z</time>
      </trkpt>
      <trkpt lat="45.06629" lon="6.05226">
        <ele>1126</ele>
        <time>2024-08-09T08:37:26Z</time>
      </trkpt>
      <trkpt lat="45.06629" lon="6.05226">
        <ele>1126.4</ele>
        <time>2024-08-09T08:37:27Z</time>
      </trkpt>
      <trkpt lat="45.06628" lon="6.05222">
        <ele>1126.4</ele>
        <time>2024-08-09T08:37:28Z</time>
      </trkpt>
      <trkpt lat="45.06628" lon="6.05222">
        <ele>1126.6</ele>
        <time>2024-08-09T08:37:29Z</time>
      </trkpt>
      <trkpt lat="45.06628" lon="6.05222">
        <ele>1126.8</ele>
        <time>2024-08-09T08:37:30Z</time>
      </trkpt>
      <trkpt lat="45.06628" lon="6.05222">
        <ele>1127</ele>
        <time>2024-08-09T08:37:31Z</time>
      </trkpt>
      <trkpt lat="45.06626" lon="6.0522">
        <ele>1127.2</ele>
        <time>2024-08-09T08:37:32Z</time>
      </trkpt>
      <trkpt lat="45.06626" lon="6.0522">
        <ele>1127.4</ele>
        <time>2024-08-09T08:37:33Z</time>
      </trkpt>
      <trkpt lat="45.06626" lon="6.0522">
        <ele>1127.8</ele>
        <time>2024-08-09T08:37:34Z</time>
      </trkpt>
      <trkpt lat="45.06626" lon="6.05217">
        <ele>1128</ele>
        <time>2024-08-09T08:37:35Z</time>
      </trkpt>
      <trkpt lat="45.06626" lon="6.05217">
        <ele>1128</ele>
        <time>2024-08-09T08:37:36Z</time>
      </trkpt>
      <trkpt lat="45.06623" lon="6.05216">
        <ele>1128</ele>
        <time>2024-08-09T08:37:37Z</time>
      </trkpt>
      <trkpt lat="45.06623" lon="6.05216">
        <ele>1128.2</ele>
        <time>2024-08-09T08:37:38Z</time>
      </trkpt>
      <trkpt lat="45.06623" lon="6.05216">
        <ele>1128.4</ele>
        <time>2024-08-09T08:37:39Z</time>
      </trkpt>
      <trkpt lat="45.06623" lon="6.05216">
        <ele>1128.6</ele>
        <time>2024-08-09T08:37:40Z</time>
      </trkpt>
      <trkpt lat="45.06622" lon="6.05214">
        <ele>1129</ele>
        <time>2024-08-09T08:37:41Z</time>
      </trkpt>
      <trkpt lat="45.06622" lon="6.05214">
        <ele>1129.4</ele>
        <time>2024-08-09T08:37:42Z</time>
      </trkpt>
      <trkpt lat="45.06622" lon="6.05214">
        <ele>1129.6</ele>
        <time>2024-08-09T08:37:43Z</time>
      </trkpt>
      <trkpt lat="45.0662" lon="6.05212">
        <ele>1130</ele>
        <time>2024-08-09T08:37:44Z</time>
      </trkpt>
      <trkpt lat="45.0662" lon="6.05212">
        <ele>1130</ele>
        <time>2024-08-09T08:37:45Z</time>
      </trkpt>
      <trkpt lat="45.06619" lon="6.0521">
        <ele>1130</ele>
        <time>2024-08-09T08:37:46Z</time>
      </trkpt>
      <trkpt lat="45.06619" lon="6.0521">
        <ele>1130.4</ele>
        <time>2024-08-09T08:37:47Z</time>
      </trkpt>
      <trkpt lat="45.06619" lon="6.05207">
        <ele>1130.6</ele>
        <time>2024-08-09T08:37:48Z</time>
      </trkpt>
      <trkpt lat="45.06619" lon="6.05207">
        <ele>1130.8</ele>
        <time>2024-08-09T08:37:49Z</time>
      </trkpt>
      <trkpt lat="45.06618" lon="6.05203">
        <ele>1130.8</ele>
        <time>2024-08-09T08:37:50Z</time>
      </trkpt>
      <trkpt lat="45.06618" lon="6.05203">
        <ele>1131</ele>
        <time>2024-08-09T08:37:51Z</time>
      </trkpt>
      <trkpt lat="45.06617" lon="6.05201">
        <ele>1130.8</ele>
        <time>2024-08-09T08:37:52Z</time>
      </trkpt>
      <trkpt lat="45.06617" lon="6.05201">
        <ele>1131</ele>
        <time>2024-08-09T08:37:53Z</time>
      </trkpt>
      <trkpt lat="45.06615" lon="6.05199">
        <ele>1131</ele>
        <time>2024-08-09T08:37:54Z</time>
      </trkpt>
      <trkpt lat="45.06615" lon="6.05199">
        <ele>1131</ele>
        <time>2024-08-09T08:37:55Z</time>
      </trkpt>
      <trkpt lat="45.06614" lon="6.05197">
        <ele>1131</ele>
        <time>2024-08-09T08:37:56Z</time>
      </trkpt>
      <trkpt lat="45.06614" lon="6.05197">
        <ele>1131</ele>
        <time>2024-08-09T08:37:57Z</time>
      </trkpt>
      <trkpt lat="45.06613" lon="6.05195">
        <ele>1131.4</ele>
        <time>2024-08-09T08:37:58Z</time>
      </trkpt>
      <trkpt lat="45.06613" lon="6.05195">
        <ele>1131.6</ele>
        <time>2024-08-09T08:37:59Z</time>
      </trkpt>
      <trkpt lat="45.06612" lon="6.05192">
        <ele>1131.6</ele>
        <time>2024-08-09T08:38:00Z</time>
      </trkpt>
      <trkpt lat="45.06612" lon="6.05192">
        <ele>1131.8</ele>
        <time>2024-08-09T08:38:01Z</time>
      </trkpt>
      <trkpt lat="45.06611" lon="6.0519">
        <ele>1131.8</ele>
        <time>2024-08-09T08:38:02Z</time>
      </trkpt>
      <trkpt lat="45.06611" lon="6.0519">
        <ele>1131.8</ele>
        <time>2024-08-09T08:38:03Z</time>
      </trkpt>
      <trkpt lat="45.06609" lon="6.05187">
        <ele>1132.2</ele>
        <time>2024-08-09T08:38:04Z</time>
      </trkpt>
      <trkpt lat="45.06609" lon="6.05187">
        <ele>1132.2</ele>
        <time>2024-08-09T08:38:05Z</time>
      </trkpt>
      <trkpt lat="45.06607" lon="6.05184">
        <ele>1132.2</ele>
        <time>2024-08-09T08:38:06Z</time>
      </trkpt>
      <trkpt lat="45.06607" lon="6.05184">
        <ele>1132.4</ele>
        <time>2024-08-09T08:38:07Z</time>
      </trkpt>
      <trkpt lat="45.06607" lon="6.05184">
        <ele>1132.4</ele>
        <time>2024-08-09T08:38:08Z</time>
      </trkpt>
      <trkpt lat="45.06606" lon="6.0518">
        <ele>1132.4</ele>
        <time>2024-08-09T08:38:09Z</time>
      </trkpt>
      <trkpt lat="45.06606" lon="6.0518">
        <ele>1132.4</ele>
        <time>2024-08-09T08:38:10Z</time>
      </trkpt>
      <trkpt lat="45.06605" lon="6.05176">
        <ele>1132.6</ele>
        <time>2024-08-09T08:38:11Z</time>
      </trkpt>
      <trkpt lat="45.06605" lon="6.05176">
        <ele>1132.6</ele>
        <time>2024-08-09T08:38:12Z</time>
      </trkpt>
      <trkpt lat="45.06605" lon="6.05173">
        <ele>1132.8</ele>
        <time>2024-08-09T08:38:13Z</time>
      </trkpt>
      <trkpt lat="45.06605" lon="6.05173">
        <ele>1132.8</ele>
        <time>2024-08-09T08:38:14Z</time>
      </trkpt>
      <trkpt lat="45.06603" lon="6.0517">
        <ele>1132.8</ele>
        <time>2024-08-09T08:38:15Z</time>
      </trkpt>
      <trkpt lat="45.06603" lon="6.0517">
        <ele>1132.8</ele>
        <time>2024-08-09T08:38:16Z</time>
      </trkpt>
      <trkpt lat="45.06602" lon="6.05168">
        <ele>1133.2</ele>
        <time>2024-08-09T08:38:17Z</time>
      </trkpt>
      <trkpt lat="45.06602" lon="6.05168">
        <ele>1133.4</ele>
        <time>2024-08-09T08:38:18Z</time>
      </trkpt>
      <trkpt lat="45.06601" lon="6.05165">
        <ele>1133.4</ele>
        <time>2024-08-09T08:38:19Z</time>
      </trkpt>
      <trkpt lat="45.06601" lon="6.05165">
        <ele>1133.6</ele>
        <time>2024-08-09T08:38:20Z</time>
      </trkpt>
      <trkpt lat="45.06599" lon="6.05162">
        <ele>1133.6</ele>
        <time>2024-08-09T08:38:21Z</time>
      </trkpt>
      <trkpt lat="45.06599" lon="6.05162">
        <ele>1133.8</ele>
        <time>2024-08-09T08:38:22Z</time>
      </trkpt>
      <trkpt lat="45.06598" lon="6.05158">
        <ele>1134</ele>
        <time>2024-08-09T08:38:23Z</time>
      </trkpt>
      <trkpt lat="45.06598" lon="6.05158">
        <ele>1134</ele>
        <time>2024-08-09T08:38:24Z</time>
      </trkpt>
      <trkpt lat="45.06597" lon="6.05155">
        <ele>1134</ele>
        <time>2024-08-09T08:38:25Z</time>
      </trkpt>
      <trkpt lat="45.06597" lon="6.05155">
        <ele>1134</ele>
        <time>2024-08-09T08:38:26Z</time>
      </trkpt>
      <trkpt lat="45.06597" lon="6.05152">
        <ele>1134.2</ele>
        <time>2024-08-09T08:38:27Z</time>
      </trkpt>
      <trkpt lat="45.06597" lon="6.05152">
        <ele>1134.6</ele>
        <time>2024-08-09T08:38:28Z</time>
      </trkpt>
      <trkpt lat="45.06597" lon="6.05152">
        <ele>1134.6</ele>
        <time>2024-08-09T08:38:29Z</time>
      </trkpt>
      <trkpt lat="45.06597" lon="6.05152">
        <ele>1134.6</ele>
        <time>2024-08-09T08:38:30Z</time>
      </trkpt>
      <trkpt lat="45.06597" lon="6.05152">
        <ele>1134.8</ele>
        <time>2024-08-09T08:38:31Z</time>
      </trkpt>
      <trkpt lat="45.06597" lon="6.05152">
        <ele>1135</ele>
        <time>2024-08-09T08:38:32Z</time>
      </trkpt>
      <trkpt lat="45.06597" lon="6.05152">
        <ele>1135</ele>
        <time>2024-08-09T08:38:33Z</time>
      </trkpt>
      <trkpt lat="45.06597" lon="6.05152">
        <ele>1135.2</ele>
        <time>2024-08-09T08:38:34Z</time>
      </trkpt>
      <trkpt lat="45.06597" lon="6.05152">
        <ele>1135.6</ele>
        <time>2024-08-09T08:38:35Z</time>
      </trkpt>
      <trkpt lat="45.06597" lon="6.0515">
        <ele>1135.6</ele>
        <time>2024-08-09T08:38:36Z</time>
      </trkpt>
      <trkpt lat="45.06597" lon="6.0515">
        <ele>1135.4</ele>
        <time>2024-08-09T08:38:37Z</time>
      </trkpt>
      <trkpt lat="45.06597" lon="6.0515">
        <ele>1135.6</ele>
        <time>2024-08-09T08:38:38Z</time>
      </trkpt>
      <trkpt lat="45.06595" lon="6.05147">
        <ele>1135.8</ele>
        <time>2024-08-09T08:38:39Z</time>
      </trkpt>
      <trkpt lat="45.06595" lon="6.05147">
        <ele>1136</ele>
        <time>2024-08-09T08:38:40Z</time>
      </trkpt>
      <trkpt lat="45.06595" lon="6.05147">
        <ele>1136.2</ele>
        <time>2024-08-09T08:38:41Z</time>
      </trkpt>
      <trkpt lat="45.06593" lon="6.05145">
        <ele>1136</ele>
        <time>2024-08-09T08:38:42Z</time>
      </trkpt>
      <trkpt lat="45.06593" lon="6.05145">
        <ele>1136</ele>
        <time>2024-08-09T08:38:43Z</time>
      </trkpt>
      <trkpt lat="45.06592" lon="6.05142">
        <ele>1136.4</ele>
        <time>2024-08-09T08:38:44Z</time>
      </trkpt>
      <trkpt lat="45.06592" lon="6.05142">
        <ele>1136.6</ele>
        <time>2024-08-09T08:38:45Z</time>
      </trkpt>
      <trkpt lat="45.0659" lon="6.05141">
        <ele>1136.6</ele>
        <time>2024-08-09T08:38:46Z</time>
      </trkpt>
      <trkpt lat="45.0659" lon="6.05141">
        <ele>1136.6</ele>
        <time>2024-08-09T08:38:47Z</time>
      </trkpt>
      <trkpt lat="45.06589" lon="6.05139">
        <ele>1137</ele>
        <time>2024-08-09T08:38:48Z</time>
      </trkpt>
      <trkpt lat="45.06589" lon="6.05139">
        <ele>1137</ele>
        <time>2024-08-09T08:38:49Z</time>
      </trkpt>
      <trkpt lat="45.06587" lon="6.05137">
        <ele>1137.2</ele>
        <time>2024-08-09T08:38:50Z</time>
      </trkpt>
      <trkpt lat="45.06587" lon="6.05137">
        <ele>1137.4</ele>
        <time>2024-08-09T08:38:51Z</time>
      </trkpt>
      <trkpt lat="45.06585" lon="6.05136">
        <ele>1137.8</ele>
        <time>2024-08-09T08:38:52Z</time>
      </trkpt>
      <trkpt lat="45.06585" lon="6.05136">
        <ele>1138.2</ele>
        <time>2024-08-09T08:38:53Z</time>
      </trkpt>
      <trkpt lat="45.06583" lon="6.05133">
        <ele>1138.2</ele>
        <time>2024-08-09T08:38:54Z</time>
      </trkpt>
      <trkpt lat="45.06583" lon="6.05133">
        <ele>1138.2</ele>
        <time>2024-08-09T08:38:55Z</time>
      </trkpt>
      <trkpt lat="45.06582" lon="6.05132">
        <ele>1138.2</ele>
        <time>2024-08-09T08:38:56Z</time>
      </trkpt>
      <trkpt lat="45.06582" lon="6.05132">
        <ele>1138.2</ele>
        <time>2024-08-09T08:38:57Z</time>
      </trkpt>
      <trkpt lat="45.06582" lon="6.05132">
        <ele>1138.2</ele>
        <time>2024-08-09T08:38:58Z</time>
      </trkpt>
      <trkpt lat="45.0658" lon="6.05131">
        <ele>1138.2</ele>
        <time>2024-08-09T08:38:59Z</time>
      </trkpt>
      <trkpt lat="45.0658" lon="6.05131">
        <ele>1138.6</ele>
        <time>2024-08-09T08:39:00Z</time>
      </trkpt>
      <trkpt lat="45.06578" lon="6.05131">
        <ele>1138.8</ele>
        <time>2024-08-09T08:39:01Z</time>
      </trkpt>
      <trkpt lat="45.06578" lon="6.05131">
        <ele>1139</ele>
        <time>2024-08-09T08:39:02Z</time>
      </trkpt>
      <trkpt lat="45.06576" lon="6.0513">
        <ele>1139</ele>
        <time>2024-08-09T08:39:03Z</time>
      </trkpt>
      <trkpt lat="45.06576" lon="6.0513">
        <ele>1139.2</ele>
        <time>2024-08-09T08:39:04Z</time>
      </trkpt>
      <trkpt lat="45.06574" lon="6.05129">
        <ele>1139.6</ele>
        <time>2024-08-09T08:39:05Z</time>
      </trkpt>
      <trkpt lat="45.06574" lon="6.05129">
        <ele>1139.8</ele>
        <time>2024-08-09T08:39:06Z</time>
      </trkpt>
      <trkpt lat="45.06571" lon="6.05129">
        <ele>1140</ele>
        <time>2024-08-09T08:39:07Z</time>
      </trkpt>
      <trkpt lat="45.06571" lon="6.05129">
        <ele>1140</ele>
        <time>2024-08-09T08:39:08Z</time>
      </trkpt>
      <trkpt lat="45.06569" lon="6.05128">
        <ele>1140.2</ele>
        <time>2024-08-09T08:39:09Z</time>
      </trkpt>
      <trkpt lat="45.06569" lon="6.05128">
        <ele>1140.8</ele>
        <time>2024-08-09T08:39:10Z</time>
      </trkpt>
      <trkpt lat="45.06567" lon="6.05127">
        <ele>1140.8</ele>
        <time>2024-08-09T08:39:11Z</time>
      </trkpt>
      <trkpt lat="45.06567" lon="6.05127">
        <ele>1141</ele>
        <time>2024-08-09T08:39:12Z</time>
      </trkpt>
      <trkpt lat="45.06567" lon="6.05127">
        <ele>1141.2</ele>
        <time>2024-08-09T08:39:13Z</time>
      </trkpt>
      <trkpt lat="45.06565" lon="6.05126">
        <ele>1141.6</ele>
        <time>2024-08-09T08:39:14Z</time>
      </trkpt>
      <trkpt lat="45.06565" lon="6.05126">
        <ele>1141.8</ele>
        <time>2024-08-09T08:39:15Z</time>
      </trkpt>
      <trkpt lat="45.06563" lon="6.05125">
        <ele>1142</ele>
        <time>2024-08-09T08:39:16Z</time>
      </trkpt>
      <trkpt lat="45.06563" lon="6.05125">
        <ele>1142.4</ele>
        <time>2024-08-09T08:39:17Z</time>
      </trkpt>
      <trkpt lat="45.06562" lon="6.05123">
        <ele>1142.4</ele>
        <time>2024-08-09T08:39:18Z</time>
      </trkpt>
      <trkpt lat="45.06562" lon="6.05123">
        <ele>1142.6</ele>
        <time>2024-08-09T08:39:19Z</time>
      </trkpt>
      <trkpt lat="45.06562" lon="6.05123">
        <ele>1142.8</ele>
        <time>2024-08-09T08:39:20Z</time>
      </trkpt>
      <trkpt lat="45.0656" lon="6.0512">
        <ele>1143</ele>
        <time>2024-08-09T08:39:21Z</time>
      </trkpt>
      <trkpt lat="45.0656" lon="6.0512">
        <ele>1143.2</ele>
        <time>2024-08-09T08:39:22Z</time>
      </trkpt>
      <trkpt lat="45.0656" lon="6.0512">
        <ele>1143.4</ele>
        <time>2024-08-09T08:39:23Z</time>
      </trkpt>
      <trkpt lat="45.06558" lon="6.05119">
        <ele>1143.4</ele>
        <time>2024-08-09T08:39:24Z</time>
      </trkpt>
      <trkpt lat="45.06558" lon="6.05119">
        <ele>1143.6</ele>
        <time>2024-08-09T08:39:25Z</time>
      </trkpt>
      <trkpt lat="45.06558" lon="6.05119">
        <ele>1143.6</ele>
        <time>2024-08-09T08:39:26Z</time>
      </trkpt>
      <trkpt lat="45.06557" lon="6.05116">
        <ele>1144.2</ele>
        <time>2024-08-09T08:39:27Z</time>
      </trkpt>
      <trkpt lat="45.06557" lon="6.05116">
        <ele>1144.6</ele>
        <time>2024-08-09T08:39:28Z</time>
      </trkpt>
      <trkpt lat="45.06557" lon="6.05116">
        <ele>1144.6</ele>
        <time>2024-08-09T08:39:29Z</time>
      </trkpt>
      <trkpt lat="45.06554" lon="6.05114">
        <ele>1144.8</ele>
        <time>2024-08-09T08:39:30Z</time>
      </trkpt>
      <trkpt lat="45.06554" lon="6.05114">
        <ele>1145</ele>
        <time>2024-08-09T08:39:31Z</time>
      </trkpt>
      <trkpt lat="45.06554" lon="6.05114">
        <ele>1145.2</ele>
        <time>2024-08-09T08:39:32Z</time>
      </trkpt>
      <trkpt lat="45.06553" lon="6.05112">
        <ele>1145.6</ele>
        <time>2024-08-09T08:39:33Z</time>
      </trkpt>
      <trkpt lat="45.06553" lon="6.05112">
        <ele>1145.8</ele>
        <time>2024-08-09T08:39:34Z</time>
      </trkpt>
      <trkpt lat="45.06551" lon="6.05109">
        <ele>1146</ele>
        <time>2024-08-09T08:39:35Z</time>
      </trkpt>
      <trkpt lat="45.06551" lon="6.05109">
        <ele>1146.2</ele>
        <time>2024-08-09T08:39:36Z</time>
      </trkpt>
      <trkpt lat="45.06551" lon="6.05107">
        <ele>1146.4</ele>
        <time>2024-08-09T08:39:37Z</time>
      </trkpt>
      <trkpt lat="45.06551" lon="6.05107">
        <ele>1146.4</ele>
        <time>2024-08-09T08:39:38Z</time>
      </trkpt>
      <trkpt lat="45.0655" lon="6.05104">
        <ele>1146.6</ele>
        <time>2024-08-09T08:39:39Z</time>
      </trkpt>
      <trkpt lat="45.0655" lon="6.05104">
        <ele>1146.8</ele>
        <time>2024-08-09T08:39:40Z</time>
      </trkpt>
      <trkpt lat="45.0655" lon="6.05104">
        <ele>1147.2</ele>
        <time>2024-08-09T08:39:41Z</time>
      </trkpt>
      <trkpt lat="45.06548" lon="6.05103">
        <ele>1147.2</ele>
        <time>2024-08-09T08:39:42Z</time>
      </trkpt>
      <trkpt lat="45.06548" lon="6.05103">
        <ele>1147.6</ele>
        <time>2024-08-09T08:39:43Z</time>
      </trkpt>
      <trkpt lat="45.06548" lon="6.05103">
        <ele>1147.8</ele>
        <time>2024-08-09T08:39:44Z</time>
      </trkpt>
      <trkpt lat="45.06547" lon="6.05101">
        <ele>1147.8</ele>
        <time>2024-08-09T08:39:45Z</time>
      </trkpt>
      <trkpt lat="45.06547" lon="6.05101">
        <ele>1148</ele>
        <time>2024-08-09T08:39:46Z</time>
      </trkpt>
      <trkpt lat="45.06547" lon="6.05101">
        <ele>1148.2</ele>
        <time>2024-08-09T08:39:47Z</time>
      </trkpt>
      <trkpt lat="45.06545" lon="6.05099">
        <ele>1148.8</ele>
        <time>2024-08-09T08:39:48Z</time>
      </trkpt>
      <trkpt lat="45.06545" lon="6.05099">
        <ele>1148.8</ele>
        <time>2024-08-09T08:39:49Z</time>
      </trkpt>
      <trkpt lat="45.06545" lon="6.05099">
        <ele>1148.8</ele>
        <time>2024-08-09T08:39:50Z</time>
      </trkpt>
      <trkpt lat="45.06544" lon="6.05096">
        <ele>1149</ele>
        <time>2024-08-09T08:39:51Z</time>
      </trkpt>
      <trkpt lat="45.06544" lon="6.05096">
        <ele>1149.2</ele>
        <time>2024-08-09T08:39:52Z</time>
      </trkpt>
      <trkpt lat="45.06544" lon="6.05096">
        <ele>1149.4</ele>
        <time>2024-08-09T08:39:53Z</time>
      </trkpt>
      <trkpt lat="45.06544" lon="6.05096">
        <ele>1149.6</ele>
        <time>2024-08-09T08:39:54Z</time>
      </trkpt>
      <trkpt lat="45.06542" lon="6.05094">
        <ele>1149.6</ele>
        <time>2024-08-09T08:39:55Z</time>
      </trkpt>
      <trkpt lat="45.06542" lon="6.05094">
        <ele>1149.6</ele>
        <time>2024-08-09T08:39:56Z</time>
      </trkpt>
      <trkpt lat="45.06542" lon="6.05094">
        <ele>1149.8</ele>
        <time>2024-08-09T08:39:57Z</time>
      </trkpt>
      <trkpt lat="45.0654" lon="6.05093">
        <ele>1150.2</ele>
        <time>2024-08-09T08:39:58Z</time>
      </trkpt>
      <trkpt lat="45.0654" lon="6.05093">
        <ele>1150.4</ele>
        <time>2024-08-09T08:39:59Z</time>
      </trkpt>
      <trkpt lat="45.06538" lon="6.05093">
        <ele>1150.4</ele>
        <time>2024-08-09T08:40:01Z</time>
      </trkpt>
      <trkpt lat="45.06535" lon="6.05093">
        <ele>1150.4</ele>
        <time>2024-08-09T08:40:02Z</time>
      </trkpt>
      <trkpt lat="45.06533" lon="6.05092">
        <ele>1151.2</ele>
        <time>2024-08-09T08:40:04Z</time>
      </trkpt>
      <trkpt lat="45.06533" lon="6.05092">
        <ele>1151.2</ele>
        <time>2024-08-09T08:40:05Z</time>
      </trkpt>
      <trkpt lat="45.06532" lon="6.0509">
        <ele>1151.2</ele>
        <time>2024-08-09T08:40:06Z</time>
      </trkpt>
      <trkpt lat="45.06532" lon="6.0509">
        <ele>1151.2</ele>
        <time>2024-08-09T08:40:07Z</time>
      </trkpt>
      <trkpt lat="45.0653" lon="6.05088">
        <ele>1151.8</ele>
        <time>2024-08-09T08:40:08Z</time>
      </trkpt>
      <trkpt lat="45.0653" lon="6.05088">
        <ele>1152</ele>
        <time>2024-08-09T08:40:09Z</time>
      </trkpt>
      <trkpt lat="45.06528" lon="6.05086">
        <ele>1152.2</ele>
        <time>2024-08-09T08:40:10Z</time>
      </trkpt>
      <trkpt lat="45.06528" lon="6.05086">
        <ele>1152.4</ele>
        <time>2024-08-09T08:40:11Z</time>
      </trkpt>
      <trkpt lat="45.06527" lon="6.05084">
        <ele>1152.4</ele>
        <time>2024-08-09T08:40:12Z</time>
      </trkpt>
      <trkpt lat="45.06527" lon="6.05084">
        <ele>1152.8</ele>
        <time>2024-08-09T08:40:13Z</time>
      </trkpt>
      <trkpt lat="45.06525" lon="6.05082">
        <ele>1152.8</ele>
        <time>2024-08-09T08:40:14Z</time>
      </trkpt>
      <trkpt lat="45.06525" lon="6.05082">
        <ele>1153</ele>
        <time>2024-08-09T08:40:15Z</time>
      </trkpt>
      <trkpt lat="45.06524" lon="6.0508">
        <ele>1153</ele>
        <time>2024-08-09T08:40:16Z</time>
      </trkpt>
      <trkpt lat="45.06524" lon="6.0508">
        <ele>1153</ele>
        <time>2024-08-09T08:40:17Z</time>
      </trkpt>
      <trkpt lat="45.06523" lon="6.05077">
        <ele>1153</ele>
        <time>2024-08-09T08:40:18Z</time>
      </trkpt>
      <trkpt lat="45.06523" lon="6.05077">
        <ele>1153</ele>
        <time>2024-08-09T08:40:19Z</time>
      </trkpt>
      <trkpt lat="45.06521" lon="6.05074">
        <ele>1153.2</ele>
        <time>2024-08-09T08:40:20Z</time>
      </trkpt>
      <trkpt lat="45.06521" lon="6.05074">
        <ele>1153.4</ele>
        <time>2024-08-09T08:40:21Z</time>
      </trkpt>
      <trkpt lat="45.06521" lon="6.05074">
        <ele>1153.6</ele>
        <time>2024-08-09T08:40:22Z</time>
      </trkpt>
      <trkpt lat="45.0652" lon="6.0507">
        <ele>1153.6</ele>
        <time>2024-08-09T08:40:23Z</time>
      </trkpt>
      <trkpt lat="45.0652" lon="6.0507">
        <ele>1153.6</ele>
        <time>2024-08-09T08:40:24Z</time>
      </trkpt>
      <trkpt lat="45.0652" lon="6.0507">
        <ele>1154.2</ele>
        <time>2024-08-09T08:40:25Z</time>
      </trkpt>
      <trkpt lat="45.06518" lon="6.05067">
        <ele>1154.2</ele>
        <time>2024-08-09T08:40:26Z</time>
      </trkpt>
      <trkpt lat="45.06518" lon="6.05067">
        <ele>1154.4</ele>
        <time>2024-08-09T08:40:27Z</time>
      </trkpt>
      <trkpt lat="45.06517" lon="6.05065">
        <ele>1154.6</ele>
        <time>2024-08-09T08:40:28Z</time>
      </trkpt>
      <trkpt lat="45.06517" lon="6.05065">
        <ele>1154.8</ele>
        <time>2024-08-09T08:40:29Z</time>
      </trkpt>
      <trkpt lat="45.06516" lon="6.05063">
        <ele>1154.8</ele>
        <time>2024-08-09T08:40:30Z</time>
      </trkpt>
      <trkpt lat="45.06516" lon="6.05063">
        <ele>1155</ele>
        <time>2024-08-09T08:40:31Z</time>
      </trkpt>
      <trkpt lat="45.06516" lon="6.05063">
        <ele>1155</ele>
        <time>2024-08-09T08:40:32Z</time>
      </trkpt>
      <trkpt lat="45.06514" lon="6.05062">
        <ele>1155.2</ele>
        <time>2024-08-09T08:40:33Z</time>
      </trkpt>
      <trkpt lat="45.06514" lon="6.05062">
        <ele>1155.4</ele>
        <time>2024-08-09T08:40:34Z</time>
      </trkpt>
      <trkpt lat="45.06514" lon="6.05062">
        <ele>1155.6</ele>
        <time>2024-08-09T08:40:35Z</time>
      </trkpt>
      <trkpt lat="45.06512" lon="6.05059">
        <ele>1155.8</ele>
        <time>2024-08-09T08:40:36Z</time>
      </trkpt>
      <trkpt lat="45.06512" lon="6.05059">
        <ele>1156.2</ele>
        <time>2024-08-09T08:40:37Z</time>
      </trkpt>
      <trkpt lat="45.0651" lon="6.05057">
        <ele>1156.4</ele>
        <time>2024-08-09T08:40:38Z</time>
      </trkpt>
      <trkpt lat="45.0651" lon="6.05057">
        <ele>1156.4</ele>
        <time>2024-08-09T08:40:39Z</time>
      </trkpt>
      <trkpt lat="45.0651" lon="6.05057">
        <ele>1156.4</ele>
        <time>2024-08-09T08:40:40Z</time>
      </trkpt>
      <trkpt lat="45.06508" lon="6.05055">
        <ele>1156.4</ele>
        <time>2024-08-09T08:40:41Z</time>
      </trkpt>
      <trkpt lat="45.06508" lon="6.05055">
        <ele>1156.8</ele>
        <time>2024-08-09T08:40:42Z</time>
      </trkpt>
      <trkpt lat="45.06506" lon="6.05054">
        <ele>1157</ele>
        <time>2024-08-09T08:40:43Z</time>
      </trkpt>
      <trkpt lat="45.06506" lon="6.05054">
        <ele>1157</ele>
        <time>2024-08-09T08:40:44Z</time>
      </trkpt>
      <trkpt lat="45.06504" lon="6.05053">
        <ele>1157.2</ele>
        <time>2024-08-09T08:40:45Z</time>
      </trkpt>
      <trkpt lat="45.06504" lon="6.05053">
        <ele>1157.2</ele>
        <time>2024-08-09T08:40:46Z</time>
      </trkpt>
      <trkpt lat="45.06501" lon="6.05052">
        <ele>1157.6</ele>
        <time>2024-08-09T08:40:47Z</time>
      </trkpt>
      <trkpt lat="45.06501" lon="6.05052">
        <ele>1157.8</ele>
        <time>2024-08-09T08:40:48Z</time>
      </trkpt>
      <trkpt lat="45.06499" lon="6.05051">
        <ele>1158.2</ele>
        <time>2024-08-09T08:40:49Z</time>
      </trkpt>
      <trkpt lat="45.06499" lon="6.05051">
        <ele>1158.4</ele>
        <time>2024-08-09T08:40:50Z</time>
      </trkpt>
      <trkpt lat="45.06497" lon="6.0505">
        <ele>1158.6</ele>
        <time>2024-08-09T08:40:51Z</time>
      </trkpt>
      <trkpt lat="45.06497" lon="6.0505">
        <ele>1158.6</ele>
        <time>2024-08-09T08:40:52Z</time>
      </trkpt>
      <trkpt lat="45.06497" lon="6.0505">
        <ele>1158.8</ele>
        <time>2024-08-09T08:40:53Z</time>
      </trkpt>
      <trkpt lat="45.06494" lon="6.0505">
        <ele>1159</ele>
        <time>2024-08-09T08:40:54Z</time>
      </trkpt>
      <trkpt lat="45.06494" lon="6.0505">
        <ele>1159.2</ele>
        <time>2024-08-09T08:40:55Z</time>
      </trkpt>
      <trkpt lat="45.06492" lon="6.0505">
        <ele>1159.2</ele>
        <time>2024-08-09T08:40:56Z</time>
      </trkpt>
      <trkpt lat="45.06492" lon="6.0505">
        <ele>1159.6</ele>
        <time>2024-08-09T08:40:57Z</time>
      </trkpt>
      <trkpt lat="45.06492" lon="6.0505">
        <ele>1160</ele>
        <time>2024-08-09T08:40:58Z</time>
      </trkpt>
      <trkpt lat="45.0649" lon="6.05048">
        <ele>1160</ele>
        <time>2024-08-09T08:40:59Z</time>
      </trkpt>
      <trkpt lat="45.0649" lon="6.05048">
        <ele>1160.2</ele>
        <time>2024-08-09T08:41:00Z</time>
      </trkpt>
      <trkpt lat="45.0649" lon="6.05048">
        <ele>1160.8</ele>
        <time>2024-08-09T08:41:01Z</time>
      </trkpt>
      <trkpt lat="45.06488" lon="6.05047">
        <ele>1161.4</ele>
        <time>2024-08-09T08:41:02Z</time>
      </trkpt>
      <trkpt lat="45.06488" lon="6.05047">
        <ele>1161.6</ele>
        <time>2024-08-09T08:41:03Z</time>
      </trkpt>
      <trkpt lat="45.06488" lon="6.05047">
        <ele>1161.6</ele>
        <time>2024-08-09T08:41:04Z</time>
      </trkpt>
      <trkpt lat="45.06486" lon="6.05046">
        <ele>1161.8</ele>
        <time>2024-08-09T08:41:05Z</time>
      </trkpt>
      <trkpt lat="45.06486" lon="6.05046">
        <ele>1161.8</ele>
        <time>2024-08-09T08:41:06Z</time>
      </trkpt>
      <trkpt lat="45.06484" lon="6.05045">
        <ele>1162.2</ele>
        <time>2024-08-09T08:41:07Z</time>
      </trkpt>
      <trkpt lat="45.06484" lon="6.05045">
        <ele>1162.2</ele>
        <time>2024-08-09T08:41:08Z</time>
      </trkpt>
      <trkpt lat="45.06482" lon="6.05044">
        <ele>1162.4</ele>
        <time>2024-08-09T08:41:09Z</time>
      </trkpt>
      <trkpt lat="45.06482" lon="6.05044">
        <ele>1162.6</ele>
        <time>2024-08-09T08:41:10Z</time>
      </trkpt>
      <trkpt lat="45.06482" lon="6.05044">
        <ele>1162.8</ele>
        <time>2024-08-09T08:41:11Z</time>
      </trkpt>
      <trkpt lat="45.0648" lon="6.05043">
        <ele>1163</ele>
        <time>2024-08-09T08:41:12Z</time>
      </trkpt>
      <trkpt lat="45.0648" lon="6.05043">
        <ele>1163.2</ele>
        <time>2024-08-09T08:41:13Z</time>
      </trkpt>
      <trkpt lat="45.0648" lon="6.05043">
        <ele>1163.4</ele>
        <time>2024-08-09T08:41:14Z</time>
      </trkpt>
      <trkpt lat="45.06478" lon="6.05044">
        <ele>1163.8</ele>
        <time>2024-08-09T08:41:15Z</time>
      </trkpt>
      <trkpt lat="45.06478" lon="6.05044">
        <ele>1164</ele>
        <time>2024-08-09T08:41:16Z</time>
      </trkpt>
      <trkpt lat="45.06478" lon="6.05044">
        <ele>1164.2</ele>
        <time>2024-08-09T08:41:17Z</time>
      </trkpt>
      <trkpt lat="45.06476" lon="6.05043">
        <ele>1164.4</ele>
        <time>2024-08-09T08:41:18Z</time>
      </trkpt>
      <trkpt lat="45.06476" lon="6.05043">
        <ele>1164.4</ele>
        <time>2024-08-09T08:41:19Z</time>
      </trkpt>
      <trkpt lat="45.06474" lon="6.05043">
        <ele>1164.8</ele>
        <time>2024-08-09T08:41:20Z</time>
      </trkpt>
      <trkpt lat="45.06474" lon="6.05043">
        <ele>1165.2</ele>
        <time>2024-08-09T08:41:21Z</time>
      </trkpt>
      <trkpt lat="45.06474" lon="6.05043">
        <ele>1165.2</ele>
        <time>2024-08-09T08:41:22Z</time>
      </trkpt>
      <trkpt lat="45.06472" lon="6.05044">
        <ele>1165.4</ele>
        <time>2024-08-09T08:41:23Z</time>
      </trkpt>
      <trkpt lat="45.06472" lon="6.05044">
        <ele>1165.8</ele>
        <time>2024-08-09T08:41:24Z</time>
      </trkpt>
      <trkpt lat="45.06472" lon="6.05044">
        <ele>1166</ele>
        <time>2024-08-09T08:41:25Z</time>
      </trkpt>
      <trkpt lat="45.0647" lon="6.05044">
        <ele>1166</ele>
        <time>2024-08-09T08:41:26Z</time>
      </trkpt>
      <trkpt lat="45.0647" lon="6.05044">
        <ele>1166.4</ele>
        <time>2024-08-09T08:41:27Z</time>
      </trkpt>
      <trkpt lat="45.0647" lon="6.05044">
        <ele>1166.6</ele>
        <time>2024-08-09T08:41:28Z</time>
      </trkpt>
      <trkpt lat="45.06468" lon="6.05045">
        <ele>1166.6</ele>
        <time>2024-08-09T08:41:29Z</time>
      </trkpt>
      <trkpt lat="45.06468" lon="6.05045">
        <ele>1166.8</ele>
        <time>2024-08-09T08:41:30Z</time>
      </trkpt>
      <trkpt lat="45.06468" lon="6.05045">
        <ele>1166.8</ele>
        <time>2024-08-09T08:41:31Z</time>
      </trkpt>
      <trkpt lat="45.06466" lon="6.05045">
        <ele>1167</ele>
        <time>2024-08-09T08:41:32Z</time>
      </trkpt>
      <trkpt lat="45.06466" lon="6.05045">
        <ele>1167</ele>
        <time>2024-08-09T08:41:33Z</time>
      </trkpt>
      <trkpt lat="45.06463" lon="6.05045">
        <ele>1167.4</ele>
        <time>2024-08-09T08:41:34Z</time>
      </trkpt>
      <trkpt lat="45.06463" lon="6.05045">
        <ele>1167.4</ele>
        <time>2024-08-09T08:41:35Z</time>
      </trkpt>
      <trkpt lat="45.06463" lon="6.05045">
        <ele>1167.8</ele>
        <time>2024-08-09T08:41:36Z</time>
      </trkpt>
      <trkpt lat="45.06461" lon="6.05047">
        <ele>1167.8</ele>
        <time>2024-08-09T08:41:37Z</time>
      </trkpt>
      <trkpt lat="45.06461" lon="6.05047">
        <ele>1167.8</ele>
        <time>2024-08-09T08:41:38Z</time>
      </trkpt>
      <trkpt lat="45.06461" lon="6.05047">
        <ele>1167.8</ele>
        <time>2024-08-09T08:41:39Z</time>
      </trkpt>
      <trkpt lat="45.06458" lon="6.05048">
        <ele>1168.2</ele>
        <time>2024-08-09T08:41:40Z</time>
      </trkpt>
      <trkpt lat="45.06458" lon="6.05048">
        <ele>1168.4</ele>
        <time>2024-08-09T08:41:41Z</time>
      </trkpt>
      <trkpt lat="45.06455" lon="6.05048">
        <ele>1168.4</ele>
        <time>2024-08-09T08:41:42Z</time>
      </trkpt>
      <trkpt lat="45.06455" lon="6.05048">
        <ele>1168.8</ele>
        <time>2024-08-09T08:41:43Z</time>
      </trkpt>
      <trkpt lat="45.06453" lon="6.05049">
        <ele>1169</ele>
        <time>2024-08-09T08:41:44Z</time>
      </trkpt>
      <trkpt lat="45.06453" lon="6.05049">
        <ele>1169.2</ele>
        <time>2024-08-09T08:41:45Z</time>
      </trkpt>
      <trkpt lat="45.06453" lon="6.05049">
        <ele>1169.4</ele>
        <time>2024-08-09T08:41:46Z</time>
      </trkpt>
      <trkpt lat="45.0645" lon="6.0505">
        <ele>1169.4</ele>
        <time>2024-08-09T08:41:47Z</time>
      </trkpt>
      <trkpt lat="45.0645" lon="6.0505">
        <ele>1169.8</ele>
        <time>2024-08-09T08:41:48Z</time>
      </trkpt>
      <trkpt lat="45.0645" lon="6.0505">
        <ele>1170</ele>
        <time>2024-08-09T08:41:49Z</time>
      </trkpt>
      <trkpt lat="45.06448" lon="6.05051">
        <ele>1170</ele>
        <time>2024-08-09T08:41:50Z</time>
      </trkpt>
      <trkpt lat="45.06448" lon="6.05051">
        <ele>1170.4</ele>
        <time>2024-08-09T08:41:51Z</time>
      </trkpt>
      <trkpt lat="45.06446" lon="6.05052">
        <ele>1170.8</ele>
        <time>2024-08-09T08:41:52Z</time>
      </trkpt>
      <trkpt lat="45.06446" lon="6.05052">
        <ele>1170.8</ele>
        <time>2024-08-09T08:41:53Z</time>
      </trkpt>
      <trkpt lat="45.06444" lon="6.05052">
        <ele>1171</ele>
        <time>2024-08-09T08:41:54Z</time>
      </trkpt>
      <trkpt lat="45.06444" lon="6.05052">
        <ele>1171.2</ele>
        <time>2024-08-09T08:41:55Z</time>
      </trkpt>
      <trkpt lat="45.06444" lon="6.05052">
        <ele>1171.2</ele>
        <time>2024-08-09T08:41:56Z</time>
      </trkpt>
      <trkpt lat="45.06443" lon="6.05054">
        <ele>1171.4</ele>
        <time>2024-08-09T08:41:57Z</time>
      </trkpt>
      <trkpt lat="45.06443" lon="6.05054">
        <ele>1171.4</ele>
        <time>2024-08-09T08:41:58Z</time>
      </trkpt>
      <trkpt lat="45.0644" lon="6.05056">
        <ele>1171.8</ele>
        <time>2024-08-09T08:41:59Z</time>
      </trkpt>
      <trkpt lat="45.0644" lon="6.05056">
        <ele>1172</ele>
        <time>2024-08-09T08:42:00Z</time>
      </trkpt>
      <trkpt lat="45.0644" lon="6.05056">
        <ele>1172.2</ele>
        <time>2024-08-09T08:42:01Z</time>
      </trkpt>
      <trkpt lat="45.06438" lon="6.05056">
        <ele>1172.4</ele>
        <time>2024-08-09T08:42:02Z</time>
      </trkpt>
      <trkpt lat="45.06436" lon="6.05057">
        <ele>1172.4</ele>
        <time>2024-08-09T08:42:04Z</time>
      </trkpt>
      <trkpt lat="45.06436" lon="6.05057">
        <ele>1172.4</ele>
        <time>2024-08-09T08:42:05Z</time>
      </trkpt>
      <trkpt lat="45.06434" lon="6.05057">
        <ele>1172.8</ele>
        <time>2024-08-09T08:42:06Z</time>
      </trkpt>
      <trkpt lat="45.06434" lon="6.05057">
        <ele>1173.2</ele>
        <time>2024-08-09T08:42:07Z</time>
      </trkpt>
      <trkpt lat="45.06432" lon="6.05058">
        <ele>1173.2</ele>
        <time>2024-08-09T08:42:08Z</time>
      </trkpt>
      <trkpt lat="45.06432" lon="6.05058">
        <ele>1173.4</ele>
        <time>2024-08-09T08:42:09Z</time>
      </trkpt>
      <trkpt lat="45.0643" lon="6.05058">
        <ele>1173.6</ele>
        <time>2024-08-09T08:42:10Z</time>
      </trkpt>
      <trkpt lat="45.0643" lon="6.05058">
        <ele>1173.6</ele>
        <time>2024-08-09T08:42:11Z</time>
      </trkpt>
      <trkpt lat="45.06428" lon="6.05059">
        <ele>1173.6</ele>
        <time>2024-08-09T08:42:12Z</time>
      </trkpt>
      <trkpt lat="45.06428" lon="6.05059">
        <ele>1174</ele>
        <time>2024-08-09T08:42:13Z</time>
      </trkpt>
      <trkpt lat="45.06426" lon="6.0506">
        <ele>1174.2</ele>
        <time>2024-08-09T08:42:14Z</time>
      </trkpt>
      <trkpt lat="45.06426" lon="6.0506">
        <ele>1174.2</ele>
        <time>2024-08-09T08:42:15Z</time>
      </trkpt>
      <trkpt lat="45.06426" lon="6.0506">
        <ele>1174.4</ele>
        <time>2024-08-09T08:42:16Z</time>
      </trkpt>
      <trkpt lat="45.06426" lon="6.0506">
        <ele>1174.6</ele>
        <time>2024-08-09T08:42:17Z</time>
      </trkpt>
      <trkpt lat="45.06424" lon="6.0506">
        <ele>1174.8</ele>
        <time>2024-08-09T08:42:18Z</time>
      </trkpt>
      <trkpt lat="45.06424" lon="6.0506">
        <ele>1174.8</ele>
        <time>2024-08-09T08:42:19Z</time>
      </trkpt>
      <trkpt lat="45.06422" lon="6.05059">
        <ele>1174.8</ele>
        <time>2024-08-09T08:42:20Z</time>
      </trkpt>
      <trkpt lat="45.06422" lon="6.05059">
        <ele>1175</ele>
        <time>2024-08-09T08:42:21Z</time>
      </trkpt>
      <trkpt lat="45.0642" lon="6.05058">
        <ele>1175</ele>
        <time>2024-08-09T08:42:22Z</time>
      </trkpt>
      <trkpt lat="45.0642" lon="6.05058">
        <ele>1175.2</ele>
        <time>2024-08-09T08:42:23Z</time>
      </trkpt>
      <trkpt lat="45.0642" lon="6.05058">
        <ele>1175.6</ele>
        <time>2024-08-09T08:42:24Z</time>
      </trkpt>
      <trkpt lat="45.06417" lon="6.05058">
        <ele>1175.6</ele>
        <time>2024-08-09T08:42:25Z</time>
      </trkpt>
      <trkpt lat="45.06417" lon="6.05058">
        <ele>1175.8</ele>
        <time>2024-08-09T08:42:26Z</time>
      </trkpt>
      <trkpt lat="45.06415" lon="6.05057">
        <ele>1175.8</ele>
        <time>2024-08-09T08:42:27Z</time>
      </trkpt>
      <trkpt lat="45.06415" lon="6.05057">
        <ele>1176</ele>
        <time>2024-08-09T08:42:28Z</time>
      </trkpt>
      <trkpt lat="45.06413" lon="6.05056">
        <ele>1176.2</ele>
        <time>2024-08-09T08:42:29Z</time>
      </trkpt>
      <trkpt lat="45.06413" lon="6.05056">
        <ele>1176.4</ele>
        <time>2024-08-09T08:42:30Z</time>
      </trkpt>
      <trkpt lat="45.06411" lon="6.05055">
        <ele>1176.4</ele>
        <time>2024-08-09T08:42:31Z</time>
      </trkpt>
      <trkpt lat="45.06411" lon="6.05055">
        <ele>1176.8</ele>
        <time>2024-08-09T08:42:32Z</time>
      </trkpt>
      <trkpt lat="45.06409" lon="6.05054">
        <ele>1177</ele>
        <time>2024-08-09T08:42:33Z</time>
      </trkpt>
      <trkpt lat="45.06409" lon="6.05054">
        <ele>1177.2</ele>
        <time>2024-08-09T08:42:34Z</time>
      </trkpt>
      <trkpt lat="45.06407" lon="6.05054">
        <ele>1177.4</ele>
        <time>2024-08-09T08:42:35Z</time>
      </trkpt>
      <trkpt lat="45.06407" lon="6.05054">
        <ele>1177.4</ele>
        <time>2024-08-09T08:42:36Z</time>
      </trkpt>
      <trkpt lat="45.06404" lon="6.05053">
        <ele>1177.6</ele>
        <time>2024-08-09T08:42:37Z</time>
      </trkpt>
      <trkpt lat="45.06404" lon="6.05053">
        <ele>1177.6</ele>
        <time>2024-08-09T08:42:38Z</time>
      </trkpt>
      <trkpt lat="45.06404" lon="6.05053">
        <ele>1178</ele>
        <time>2024-08-09T08:42:39Z</time>
      </trkpt>
      <trkpt lat="45.06402" lon="6.05052">
        <ele>1178</ele>
        <time>2024-08-09T08:42:40Z</time>
      </trkpt>
      <trkpt lat="45.06402" lon="6.05052">
        <ele>1178</ele>
        <time>2024-08-09T08:42:41Z</time>
      </trkpt>
      <trkpt lat="45.064" lon="6.05051">
        <ele>1178.4</ele>
        <time>2024-08-09T08:42:42Z</time>
      </trkpt>
      <trkpt lat="45.064" lon="6.05051">
        <ele>1178.6</ele>
        <time>2024-08-09T08:42:43Z</time>
      </trkpt>
      <trkpt lat="45.06399" lon="6.05049">
        <ele>1178.6</ele>
        <time>2024-08-09T08:42:44Z</time>
      </trkpt>
      <trkpt lat="45.06399" lon="6.05049">
        <ele>1179</ele>
        <time>2024-08-09T08:42:45Z</time>
      </trkpt>
      <trkpt lat="45.06397" lon="6.05047">
        <ele>1179</ele>
        <time>2024-08-09T08:42:46Z</time>
      </trkpt>
      <trkpt lat="45.06397" lon="6.05047">
        <ele>1179.2</ele>
        <time>2024-08-09T08:42:47Z</time>
      </trkpt>
      <trkpt lat="45.06397" lon="6.05047">
        <ele>1179.6</ele>
        <time>2024-08-09T08:42:48Z</time>
      </trkpt>
      <trkpt lat="45.06397" lon="6.05047">
        <ele>1179.8</ele>
        <time>2024-08-09T08:42:49Z</time>
      </trkpt>
      <trkpt lat="45.06395" lon="6.05045">
        <ele>1180</ele>
        <time>2024-08-09T08:42:50Z</time>
      </trkpt>
      <trkpt lat="45.06395" lon="6.05045">
        <ele>1180.2</ele>
        <time>2024-08-09T08:42:51Z</time>
      </trkpt>
      <trkpt lat="45.06392" lon="6.05045">
        <ele>1180.4</ele>
        <time>2024-08-09T08:42:52Z</time>
      </trkpt>
      <trkpt lat="45.06392" lon="6.05045">
        <ele>1180.6</ele>
        <time>2024-08-09T08:42:53Z</time>
      </trkpt>
      <trkpt lat="45.0639" lon="6.05044">
        <ele>1180.8</ele>
        <time>2024-08-09T08:42:54Z</time>
      </trkpt>
      <trkpt lat="45.0639" lon="6.05044">
        <ele>1180.8</ele>
        <time>2024-08-09T08:42:55Z</time>
      </trkpt>
      <trkpt lat="45.0639" lon="6.05044">
        <ele>1181</ele>
        <time>2024-08-09T08:42:56Z</time>
      </trkpt>
      <trkpt lat="45.06389" lon="6.05042">
        <ele>1181.6</ele>
        <time>2024-08-09T08:42:57Z</time>
      </trkpt>
      <trkpt lat="45.06389" lon="6.05042">
        <ele>1181.8</ele>
        <time>2024-08-09T08:42:58Z</time>
      </trkpt>
      <trkpt lat="45.06389" lon="6.05042">
        <ele>1181.8</ele>
        <time>2024-08-09T08:42:59Z</time>
      </trkpt>
      <trkpt lat="45.06388" lon="6.05039">
        <ele>1182</ele>
        <time>2024-08-09T08:43:00Z</time>
      </trkpt>
      <trkpt lat="45.06388" lon="6.05039">
        <ele>1182.4</ele>
        <time>2024-08-09T08:43:01Z</time>
      </trkpt>
      <trkpt lat="45.06386" lon="6.05038">
        <ele>1182.6</ele>
        <time>2024-08-09T08:43:02Z</time>
      </trkpt>
      <trkpt lat="45.06386" lon="6.05038">
        <ele>1182.6</ele>
        <time>2024-08-09T08:43:03Z</time>
      </trkpt>
      <trkpt lat="45.06385" lon="6.05035">
        <ele>1183</ele>
        <time>2024-08-09T08:43:04Z</time>
      </trkpt>
      <trkpt lat="45.06385" lon="6.05035">
        <ele>1183.2</ele>
        <time>2024-08-09T08:43:05Z</time>
      </trkpt>
      <trkpt lat="45.06383" lon="6.05033">
        <ele>1183.2</ele>
        <time>2024-08-09T08:43:06Z</time>
      </trkpt>
      <trkpt lat="45.06383" lon="6.05033">
        <ele>1183.6</ele>
        <time>2024-08-09T08:43:07Z</time>
      </trkpt>
      <trkpt lat="45.06383" lon="6.05033">
        <ele>1184</ele>
        <time>2024-08-09T08:43:08Z</time>
      </trkpt>
      <trkpt lat="45.06382" lon="6.05031">
        <ele>1184</ele>
        <time>2024-08-09T08:43:09Z</time>
      </trkpt>
      <trkpt lat="45.06382" lon="6.05031">
        <ele>1184.2</ele>
        <time>2024-08-09T08:43:10Z</time>
      </trkpt>
      <trkpt lat="45.06382" lon="6.05031">
        <ele>1184.6</ele>
        <time>2024-08-09T08:43:11Z</time>
      </trkpt>
      <trkpt lat="45.0638" lon="6.05029">
        <ele>1184.8</ele>
        <time>2024-08-09T08:43:12Z</time>
      </trkpt>
      <trkpt lat="45.0638" lon="6.05029">
        <ele>1184.8</ele>
        <time>2024-08-09T08:43:13Z</time>
      </trkpt>
      <trkpt lat="45.06378" lon="6.05029">
        <ele>1185.2</ele>
        <time>2024-08-09T08:43:14Z</time>
      </trkpt>
      <trkpt lat="45.06378" lon="6.05029">
        <ele>1185.4</ele>
        <time>2024-08-09T08:43:15Z</time>
      </trkpt>
      <trkpt lat="45.06378" lon="6.05029">
        <ele>1185.6</ele>
        <time>2024-08-09T08:43:16Z</time>
      </trkpt>
      <trkpt lat="45.06375" lon="6.05028">
        <ele>1185.6</ele>
        <time>2024-08-09T08:43:17Z</time>
      </trkpt>
      <trkpt lat="45.06375" lon="6.05028">
        <ele>1186</ele>
        <time>2024-08-09T08:43:18Z</time>
      </trkpt>
      <trkpt lat="45.06375" lon="6.05028">
        <ele>1186</ele>
        <time>2024-08-09T08:43:19Z</time>
      </trkpt>
      <trkpt lat="45.06373" lon="6.05026">
        <ele>1186</ele>
        <time>2024-08-09T08:43:20Z</time>
      </trkpt>
      <trkpt lat="45.06373" lon="6.05026">
        <ele>1186.4</ele>
        <time>2024-08-09T08:43:21Z</time>
      </trkpt>
      <trkpt lat="45.06373" lon="6.05026">
        <ele>1186.6</ele>
        <time>2024-08-09T08:43:22Z</time>
      </trkpt>
      <trkpt lat="45.06371" lon="6.05025">
        <ele>1187</ele>
        <time>2024-08-09T08:43:23Z</time>
      </trkpt>
      <trkpt lat="45.06371" lon="6.05025">
        <ele>1187.4</ele>
        <time>2024-08-09T08:43:24Z</time>
      </trkpt>
      <trkpt lat="45.06369" lon="6.05025">
        <ele>1187.4</ele>
        <time>2024-08-09T08:43:25Z</time>
      </trkpt>
      <trkpt lat="45.06369" lon="6.05025">
        <ele>1187.6</ele>
        <time>2024-08-09T08:43:26Z</time>
      </trkpt>
      <trkpt lat="45.06367" lon="6.05024">
        <ele>1187.6</ele>
        <time>2024-08-09T08:43:27Z</time>
      </trkpt>
      <trkpt lat="45.06367" lon="6.05024">
        <ele>1187.8</ele>
        <time>2024-08-09T08:43:28Z</time>
      </trkpt>
      <trkpt lat="45.06367" lon="6.05024">
        <ele>1188</ele>
        <time>2024-08-09T08:43:29Z</time>
      </trkpt>
      <trkpt lat="45.06365" lon="6.05024">
        <ele>1188.2</ele>
        <time>2024-08-09T08:43:30Z</time>
      </trkpt>
      <trkpt lat="45.06365" lon="6.05024">
        <ele>1188.4</ele>
        <time>2024-08-09T08:43:31Z</time>
      </trkpt>
      <trkpt lat="45.06365" lon="6.05024">
        <ele>1188.8</ele>
        <time>2024-08-09T08:43:32Z</time>
      </trkpt>
      <trkpt lat="45.06365" lon="6.05024">
        <ele>1189</ele>
        <time>2024-08-09T08:43:33Z</time>
      </trkpt>
      <trkpt lat="45.06365" lon="6.05024">
        <ele>1189.2</ele>
        <time>2024-08-09T08:43:34Z</time>
      </trkpt>
      <trkpt lat="45.06363" lon="6.05021">
        <ele>1189.4</ele>
        <time>2024-08-09T08:43:35Z</time>
      </trkpt>
      <trkpt lat="45.06363" lon="6.05021">
        <ele>1189.6</ele>
        <time>2024-08-09T08:43:36Z</time>
      </trkpt>
      <trkpt lat="45.06361" lon="6.0502">
        <ele>1189.6</ele>
        <time>2024-08-09T08:43:37Z</time>
      </trkpt>
      <trkpt lat="45.06361" lon="6.0502">
        <ele>1190</ele>
        <time>2024-08-09T08:43:38Z</time>
      </trkpt>
      <trkpt lat="45.06361" lon="6.0502">
        <ele>1190</ele>
        <time>2024-08-09T08:43:39Z</time>
      </trkpt>
      <trkpt lat="45.06361" lon="6.0502">
        <ele>1190.4</ele>
        <time>2024-08-09T08:43:40Z</time>
      </trkpt>
      <trkpt lat="45.06359" lon="6.05017">
        <ele>1190.6</ele>
        <time>2024-08-09T08:43:41Z</time>
      </trkpt>
      <trkpt lat="45.06359" lon="6.05017">
        <ele>1190.8</ele>
        <time>2024-08-09T08:43:42Z</time>
      </trkpt>
      <trkpt lat="45.06359" lon="6.05017">
        <ele>1191.2</ele>
        <time>2024-08-09T08:43:43Z</time>
      </trkpt>
      <trkpt lat="45.06357" lon="6.05017">
        <ele>1191.4</ele>
        <time>2024-08-09T08:43:44Z</time>
      </trkpt>
      <trkpt lat="45.06357" lon="6.05017">
        <ele>1191.4</ele>
        <time>2024-08-09T08:43:45Z</time>
      </trkpt>
      <trkpt lat="45.06355" lon="6.05016">
        <ele>1191.8</ele>
        <time>2024-08-09T08:43:46Z</time>
      </trkpt>
      <trkpt lat="45.06355" lon="6.05016">
        <ele>1192</ele>
        <time>2024-08-09T08:43:47Z</time>
      </trkpt>
      <trkpt lat="45.06353" lon="6.05016">
        <ele>1192.2</ele>
        <time>2024-08-09T08:43:48Z</time>
      </trkpt>
      <trkpt lat="45.06353" lon="6.05016">
        <ele>1192.2</ele>
        <time>2024-08-09T08:43:49Z</time>
      </trkpt>
      <trkpt lat="45.06353" lon="6.05016">
        <ele>1192.4</ele>
        <time>2024-08-09T08:43:50Z</time>
      </trkpt>
      <trkpt lat="45.06353" lon="6.05016">
        <ele>1193.2</ele>
        <time>2024-08-09T08:43:51Z</time>
      </trkpt>
      <trkpt lat="45.06351" lon="6.05015">
        <ele>1193.2</ele>
        <time>2024-08-09T08:43:52Z</time>
      </trkpt>
      <trkpt lat="45.06351" lon="6.05015">
        <ele>1193.4</ele>
        <time>2024-08-09T08:43:53Z</time>
      </trkpt>
      <trkpt lat="45.06351" lon="6.05015">
        <ele>1193.4</ele>
        <time>2024-08-09T08:43:54Z</time>
      </trkpt>
      <trkpt lat="45.06349" lon="6.05014">
        <ele>1193.6</ele>
        <time>2024-08-09T08:43:55Z</time>
      </trkpt>
      <trkpt lat="45.06349" lon="6.05014">
        <ele>1193.8</ele>
        <time>2024-08-09T08:43:56Z</time>
      </trkpt>
      <trkpt lat="45.06347" lon="6.05012">
        <ele>1194</ele>
        <time>2024-08-09T08:43:57Z</time>
      </trkpt>
      <trkpt lat="45.06347" lon="6.05012">
        <ele>1194.2</ele>
        <time>2024-08-09T08:43:58Z</time>
      </trkpt>
      <trkpt lat="45.06345" lon="6.05011">
        <ele>1194.6</ele>
        <time>2024-08-09T08:43:59Z</time>
      </trkpt>
      <trkpt lat="45.06345" lon="6.05011">
        <ele>1195</ele>
        <time>2024-08-09T08:44:00Z</time>
      </trkpt>
      <trkpt lat="45.06345" lon="6.05011">
        <ele>1195</ele>
        <time>2024-08-09T08:44:01Z</time>
      </trkpt>
      <trkpt lat="45.06343" lon="6.0501">
        <ele>1195.4</ele>
        <time>2024-08-09T08:44:02Z</time>
      </trkpt>
      <trkpt lat="45.06343" lon="6.0501">
        <ele>1195.4</ele>
        <time>2024-08-09T08:44:03Z</time>
      </trkpt>
      <trkpt lat="45.06341" lon="6.05009">
        <ele>1195.4</ele>
        <time>2024-08-09T08:44:04Z</time>
      </trkpt>
      <trkpt lat="45.06341" lon="6.05009">
        <ele>1195.6</ele>
        <time>2024-08-09T08:44:05Z</time>
      </trkpt>
      <trkpt lat="45.0634" lon="6.05008">
        <ele>1195.8</ele>
        <time>2024-08-09T08:44:06Z</time>
      </trkpt>
      <trkpt lat="45.0634" lon="6.05008">
        <ele>1196</ele>
        <time>2024-08-09T08:44:07Z</time>
      </trkpt>
      <trkpt lat="45.0634" lon="6.05008">
        <ele>1196</ele>
        <time>2024-08-09T08:44:08Z</time>
      </trkpt>
      <trkpt lat="45.0634" lon="6.05008">
        <ele>1196.4</ele>
        <time>2024-08-09T08:44:09Z</time>
      </trkpt>
      <trkpt lat="45.06338" lon="6.05005">
        <ele>1196.6</ele>
        <time>2024-08-09T08:44:10Z</time>
      </trkpt>
      <trkpt lat="45.06338" lon="6.05005">
        <ele>1196.8</ele>
        <time>2024-08-09T08:44:11Z</time>
      </trkpt>
      <trkpt lat="45.06336" lon="6.05004">
        <ele>1197.2</ele>
        <time>2024-08-09T08:44:12Z</time>
      </trkpt>
      <trkpt lat="45.06336" lon="6.05004">
        <ele>1197.4</ele>
        <time>2024-08-09T08:44:13Z</time>
      </trkpt>
      <trkpt lat="45.06334" lon="6.05004">
        <ele>1197.4</ele>
        <time>2024-08-09T08:44:14Z</time>
      </trkpt>
      <trkpt lat="45.06334" lon="6.05004">
        <ele>1197.6</ele>
        <time>2024-08-09T08:44:15Z</time>
      </trkpt>
      <trkpt lat="45.06334" lon="6.05004">
        <ele>1197.6</ele>
        <time>2024-08-09T08:44:16Z</time>
      </trkpt>
      <trkpt lat="45.06332" lon="6.05003">
        <ele>1197.8</ele>
        <time>2024-08-09T08:44:17Z</time>
      </trkpt>
      <trkpt lat="45.06332" lon="6.05003">
        <ele>1198</ele>
        <time>2024-08-09T08:44:18Z</time>
      </trkpt>
      <trkpt lat="45.0633" lon="6.05002">
        <ele>1198.2</ele>
        <time>2024-08-09T08:44:19Z</time>
      </trkpt>
      <trkpt lat="45.0633" lon="6.05002">
        <ele>1198.6</ele>
        <time>2024-08-09T08:44:20Z</time>
      </trkpt>
      <trkpt lat="45.06328" lon="6.05001">
        <ele>1198.6</ele>
        <time>2024-08-09T08:44:21Z</time>
      </trkpt>
      <trkpt lat="45.06328" lon="6.05001">
        <ele>1198.6</ele>
        <time>2024-08-09T08:44:22Z</time>
      </trkpt>
      <trkpt lat="45.06326" lon="6.05">
        <ele>1199</ele>
        <time>2024-08-09T08:44:23Z</time>
      </trkpt>
      <trkpt lat="45.06326" lon="6.05">
        <ele>1199.2</ele>
        <time>2024-08-09T08:44:24Z</time>
      </trkpt>
      <trkpt lat="45.06324" lon="6.04999">
        <ele>1199.2</ele>
        <time>2024-08-09T08:44:25Z</time>
      </trkpt>
      <trkpt lat="45.06324" lon="6.04999">
        <ele>1199.2</ele>
        <time>2024-08-09T08:44:26Z</time>
      </trkpt>
      <trkpt lat="45.06323" lon="6.04998">
        <ele>1199.6</ele>
        <time>2024-08-09T08:44:27Z</time>
      </trkpt>
      <trkpt lat="45.06323" lon="6.04998">
        <ele>1199.8</ele>
        <time>2024-08-09T08:44:28Z</time>
      </trkpt>
      <trkpt lat="45.06321" lon="6.04997">
        <ele>1200</ele>
        <time>2024-08-09T08:44:29Z</time>
      </trkpt>
      <trkpt lat="45.06321" lon="6.04997">
        <ele>1200.4</ele>
        <time>2024-08-09T08:44:30Z</time>
      </trkpt>
      <trkpt lat="45.06321" lon="6.04997">
        <ele>1200.4</ele>
        <time>2024-08-09T08:44:31Z</time>
      </trkpt>
      <trkpt lat="45.06318" lon="6.04998">
        <ele>1200.6</ele>
        <time>2024-08-09T08:44:32Z</time>
      </trkpt>
      <trkpt lat="45.06318" lon="6.04998">
        <ele>1200.6</ele>
        <time>2024-08-09T08:44:33Z</time>
      </trkpt>
      <trkpt lat="45.06318" lon="6.04998">
        <ele>1200.8</ele>
        <time>2024-08-09T08:44:34Z</time>
      </trkpt>
      <trkpt lat="45.06317" lon="6.04997">
        <ele>1201</ele>
        <time>2024-08-09T08:44:35Z</time>
      </trkpt>
      <trkpt lat="45.06317" lon="6.04997">
        <ele>1201.2</ele>
        <time>2024-08-09T08:44:36Z</time>
      </trkpt>
      <trkpt lat="45.06315" lon="6.04997">
        <ele>1201.2</ele>
        <time>2024-08-09T08:44:37Z</time>
      </trkpt>
      <trkpt lat="45.06315" lon="6.04997">
        <ele>1201.4</ele>
        <time>2024-08-09T08:44:38Z</time>
      </trkpt>
      <trkpt lat="45.06313" lon="6.04995">
        <ele>1201.6</ele>
        <time>2024-08-09T08:44:39Z</time>
      </trkpt>
      <trkpt lat="45.06313" lon="6.04995">
        <ele>1201.6</ele>
        <time>2024-08-09T08:44:40Z</time>
      </trkpt>
      <trkpt lat="45.06313" lon="6.04995">
        <ele>1202</ele>
        <time>2024-08-09T08:44:41Z</time>
      </trkpt>
      <trkpt lat="45.0631" lon="6.04994">
        <ele>1202.2</ele>
        <time>2024-08-09T08:44:42Z</time>
      </trkpt>
      <trkpt lat="45.0631" lon="6.04994">
        <ele>1202.6</ele>
        <time>2024-08-09T08:44:43Z</time>
      </trkpt>
      <trkpt lat="45.06309" lon="6.04994">
        <ele>1202.6</ele>
        <time>2024-08-09T08:44:44Z</time>
      </trkpt>
      <trkpt lat="45.06309" lon="6.04994">
        <ele>1203</ele>
        <time>2024-08-09T08:44:45Z</time>
      </trkpt>
      <trkpt lat="45.06307" lon="6.04993">
        <ele>1203</ele>
        <time>2024-08-09T08:44:46Z</time>
      </trkpt>
      <trkpt lat="45.06307" lon="6.04993">
        <ele>1203.2</ele>
        <time>2024-08-09T08:44:47Z</time>
      </trkpt>
      <trkpt lat="45.06305" lon="6.04991">
        <ele>1203.2</ele>
        <time>2024-08-09T08:44:48Z</time>
      </trkpt>
      <trkpt lat="45.06305" lon="6.04991">
        <ele>1203.4</ele>
        <time>2024-08-09T08:44:49Z</time>
      </trkpt>
      <trkpt lat="45.06303" lon="6.0499">
        <ele>1203.6</ele>
        <time>2024-08-09T08:44:50Z</time>
      </trkpt>
      <trkpt lat="45.06303" lon="6.0499">
        <ele>1203.6</ele>
        <time>2024-08-09T08:44:51Z</time>
      </trkpt>
      <trkpt lat="45.06301" lon="6.0499">
        <ele>1203.8</ele>
        <time>2024-08-09T08:44:52Z</time>
      </trkpt>
      <trkpt lat="45.06301" lon="6.0499">
        <ele>1204</ele>
        <time>2024-08-09T08:44:53Z</time>
      </trkpt>
      <trkpt lat="45.06301" lon="6.0499">
        <ele>1204.2</ele>
        <time>2024-08-09T08:44:54Z</time>
      </trkpt>
      <trkpt lat="45.06299" lon="6.04988">
        <ele>1204.6</ele>
        <time>2024-08-09T08:44:55Z</time>
      </trkpt>
      <trkpt lat="45.06299" lon="6.04988">
        <ele>1204.8</ele>
        <time>2024-08-09T08:44:56Z</time>
      </trkpt>
      <trkpt lat="45.06299" lon="6.04988">
        <ele>1205.2</ele>
        <time>2024-08-09T08:44:57Z</time>
      </trkpt>
      <trkpt lat="45.06297" lon="6.04987">
        <ele>1205.4</ele>
        <time>2024-08-09T08:44:58Z</time>
      </trkpt>
      <trkpt lat="45.06297" lon="6.04987">
        <ele>1205.8</ele>
        <time>2024-08-09T08:44:59Z</time>
      </trkpt>
      <trkpt lat="45.06295" lon="6.04987">
        <ele>1205.8</ele>
        <time>2024-08-09T08:45:00Z</time>
      </trkpt>
      <trkpt lat="45.06295" lon="6.04987">
        <ele>1205.8</ele>
        <time>2024-08-09T08:45:01Z</time>
      </trkpt>
      <trkpt lat="45.06295" lon="6.04987">
        <ele>1206.4</ele>
        <time>2024-08-09T08:45:02Z</time>
      </trkpt>
      <trkpt lat="45.06294" lon="6.04985">
        <ele>1206.4</ele>
        <time>2024-08-09T08:45:03Z</time>
      </trkpt>
      <trkpt lat="45.06294" lon="6.04985">
        <ele>1206.4</ele>
        <time>2024-08-09T08:45:04Z</time>
      </trkpt>
      <trkpt lat="45.06294" lon="6.04985">
        <ele>1206.6</ele>
        <time>2024-08-09T08:45:05Z</time>
      </trkpt>
      <trkpt lat="45.06292" lon="6.04985">
        <ele>1206.8</ele>
        <time>2024-08-09T08:45:06Z</time>
      </trkpt>
      <trkpt lat="45.06292" lon="6.04985">
        <ele>1207</ele>
        <time>2024-08-09T08:45:07Z</time>
      </trkpt>
      <trkpt lat="45.06292" lon="6.04985">
        <ele>1207.2</ele>
        <time>2024-08-09T08:45:08Z</time>
      </trkpt>
      <trkpt lat="45.0629" lon="6.04986">
        <ele>1207.8</ele>
        <time>2024-08-09T08:45:09Z</time>
      </trkpt>
      <trkpt lat="45.0629" lon="6.04986">
        <ele>1207.8</ele>
        <time>2024-08-09T08:45:10Z</time>
      </trkpt>
      <trkpt lat="45.0629" lon="6.04986">
        <ele>1207.8</ele>
        <time>2024-08-09T08:45:11Z</time>
      </trkpt>
      <trkpt lat="45.06289" lon="6.04988">
        <ele>1207.8</ele>
        <time>2024-08-09T08:45:12Z</time>
      </trkpt>
      <trkpt lat="45.06289" lon="6.04988">
        <ele>1208.2</ele>
        <time>2024-08-09T08:45:13Z</time>
      </trkpt>
      <trkpt lat="45.06287" lon="6.0499">
        <ele>1208.4</ele>
        <time>2024-08-09T08:45:14Z</time>
      </trkpt>
      <trkpt lat="45.06287" lon="6.0499">
        <ele>1208.4</ele>
        <time>2024-08-09T08:45:15Z</time>
      </trkpt>
      <trkpt lat="45.06285" lon="6.04991">
        <ele>1208.8</ele>
        <time>2024-08-09T08:45:16Z</time>
      </trkpt>
      <trkpt lat="45.06285" lon="6.04991">
        <ele>1208.8</ele>
        <time>2024-08-09T08:45:17Z</time>
      </trkpt>
      <trkpt lat="45.06285" lon="6.04991">
        <ele>1209</ele>
        <time>2024-08-09T08:45:18Z</time>
      </trkpt>
      <trkpt lat="45.06283" lon="6.04992">
        <ele>1209.4</ele>
        <time>2024-08-09T08:45:19Z</time>
      </trkpt>
      <trkpt lat="45.06283" lon="6.04992">
        <ele>1209.8</ele>
        <time>2024-08-09T08:45:20Z</time>
      </trkpt>
      <trkpt lat="45.06283" lon="6.04992">
        <ele>1209.8</ele>
        <time>2024-08-09T08:45:21Z</time>
      </trkpt>
      <trkpt lat="45.06281" lon="6.04993">
        <ele>1210</ele>
        <time>2024-08-09T08:45:22Z</time>
      </trkpt>
      <trkpt lat="45.06281" lon="6.04993">
        <ele>1210</ele>
        <time>2024-08-09T08:45:23Z</time>
      </trkpt>
      <trkpt lat="45.06279" lon="6.04995">
        <ele>1210.2</ele>
        <time>2024-08-09T08:45:24Z</time>
      </trkpt>
      <trkpt lat="45.06279" lon="6.04995">
        <ele>1210.4</ele>
        <time>2024-08-09T08:45:25Z</time>
      </trkpt>
      <trkpt lat="45.06279" lon="6.04995">
        <ele>1210.8</ele>
        <time>2024-08-09T08:45:26Z</time>
      </trkpt>
      <trkpt lat="45.06277" lon="6.04997">
        <ele>1210.8</ele>
        <time>2024-08-09T08:45:27Z</time>
      </trkpt>
      <trkpt lat="45.06277" lon="6.04997">
        <ele>1211</ele>
        <time>2024-08-09T08:45:28Z</time>
      </trkpt>
      <trkpt lat="45.06276" lon="6.04999">
        <ele>1211.2</ele>
        <time>2024-08-09T08:45:29Z</time>
      </trkpt>
      <trkpt lat="45.06276" lon="6.04999">
        <ele>1211.2</ele>
        <time>2024-08-09T08:45:30Z</time>
      </trkpt>
      <trkpt lat="45.06275" lon="6.05001">
        <ele>1211.6</ele>
        <time>2024-08-09T08:45:31Z</time>
      </trkpt>
      <trkpt lat="45.06275" lon="6.05001">
        <ele>1211.8</ele>
        <time>2024-08-09T08:45:32Z</time>
      </trkpt>
      <trkpt lat="45.06274" lon="6.05003">
        <ele>1211.8</ele>
        <time>2024-08-09T08:45:33Z</time>
      </trkpt>
      <trkpt lat="45.06274" lon="6.05003">
        <ele>1212</ele>
        <time>2024-08-09T08:45:34Z</time>
      </trkpt>
      <trkpt lat="45.06273" lon="6.05006">
        <ele>1212.4</ele>
        <time>2024-08-09T08:45:35Z</time>
      </trkpt>
      <trkpt lat="45.06273" lon="6.05006">
        <ele>1212.6</ele>
        <time>2024-08-09T08:45:36Z</time>
      </trkpt>
      <trkpt lat="45.06272" lon="6.05008">
        <ele>1213</ele>
        <time>2024-08-09T08:45:37Z</time>
      </trkpt>
      <trkpt lat="45.06272" lon="6.05008">
        <ele>1213</ele>
        <time>2024-08-09T08:45:38Z</time>
      </trkpt>
      <trkpt lat="45.06272" lon="6.05008">
        <ele>1213.2</ele>
        <time>2024-08-09T08:45:39Z</time>
      </trkpt>
      <trkpt lat="45.06271" lon="6.05011">
        <ele>1213.2</ele>
        <time>2024-08-09T08:45:40Z</time>
      </trkpt>
      <trkpt lat="45.06271" lon="6.05011">
        <ele>1213.4</ele>
        <time>2024-08-09T08:45:41Z</time>
      </trkpt>
      <trkpt lat="45.0627" lon="6.05013">
        <ele>1213.6</ele>
        <time>2024-08-09T08:45:42Z</time>
      </trkpt>
      <trkpt lat="45.0627" lon="6.05013">
        <ele>1214</ele>
        <time>2024-08-09T08:45:43Z</time>
      </trkpt>
      <trkpt lat="45.0627" lon="6.05013">
        <ele>1214</ele>
        <time>2024-08-09T08:45:44Z</time>
      </trkpt>
      <trkpt lat="45.0627" lon="6.05013">
        <ele>1214.2</ele>
        <time>2024-08-09T08:45:45Z</time>
      </trkpt>
      <trkpt lat="45.0627" lon="6.05013">
        <ele>1214.2</ele>
        <time>2024-08-09T08:45:46Z</time>
      </trkpt>
      <trkpt lat="45.06271" lon="6.05014">
        <ele>1214.4</ele>
        <time>2024-08-09T08:45:47Z</time>
      </trkpt>
      <trkpt lat="45.06271" lon="6.05014">
        <ele>1214.4</ele>
        <time>2024-08-09T08:45:48Z</time>
      </trkpt>
      <trkpt lat="45.06274" lon="6.05014">
        <ele>1215</ele>
        <time>2024-08-09T08:45:49Z</time>
      </trkpt>
      <trkpt lat="45.06274" lon="6.05014">
        <ele>1215.2</ele>
        <time>2024-08-09T08:45:50Z</time>
      </trkpt>
      <trkpt lat="45.06275" lon="6.05012">
        <ele>1215.2</ele>
        <time>2024-08-09T08:45:51Z</time>
      </trkpt>
      <trkpt lat="45.06275" lon="6.05012">
        <ele>1215.4</ele>
        <time>2024-08-09T08:45:52Z</time>
      </trkpt>
      <trkpt lat="45.06275" lon="6.05012">
        <ele>1215.6</ele>
        <time>2024-08-09T08:45:53Z</time>
      </trkpt>
      <trkpt lat="45.06275" lon="6.05012">
        <ele>1215.8</ele>
        <time>2024-08-09T08:45:54Z</time>
      </trkpt>
      <trkpt lat="45.06275" lon="6.05012">
        <ele>1216</ele>
        <time>2024-08-09T08:45:55Z</time>
      </trkpt>
      <trkpt lat="45.06277" lon="6.05011">
        <ele>1216.2</ele>
        <time>2024-08-09T08:45:56Z</time>
      </trkpt>
      <trkpt lat="45.06277" lon="6.05011">
        <ele>1216.4</ele>
        <time>2024-08-09T08:45:57Z</time>
      </trkpt>
      <trkpt lat="45.06281" lon="6.0501">
        <ele>1216.6</ele>
        <time>2024-08-09T08:45:58Z</time>
      </trkpt>
      <trkpt lat="45.06281" lon="6.0501">
        <ele>1216.6</ele>
        <time>2024-08-09T08:45:59Z</time>
      </trkpt>
      <trkpt lat="45.06283" lon="6.05011">
        <ele>1216.6</ele>
        <time>2024-08-09T08:46:00Z</time>
      </trkpt>
      <trkpt lat="45.06283" lon="6.05011">
        <ele>1217.2</ele>
        <time>2024-08-09T08:46:01Z</time>
      </trkpt>
      <trkpt lat="45.06285" lon="6.05011">
        <ele>1217.4</ele>
        <time>2024-08-09T08:46:02Z</time>
      </trkpt>
      <trkpt lat="45.06285" lon="6.05011">
        <ele>1217.4</ele>
        <time>2024-08-09T08:46:03Z</time>
      </trkpt>
      <trkpt lat="45.06285" lon="6.05011">
        <ele>1217.6</ele>
        <time>2024-08-09T08:46:04Z</time>
      </trkpt>
      <trkpt lat="45.06287" lon="6.05012">
        <ele>1217.8</ele>
        <time>2024-08-09T08:46:05Z</time>
      </trkpt>
      <trkpt lat="45.06287" lon="6.05012">
        <ele>1218</ele>
        <time>2024-08-09T08:46:06Z</time>
      </trkpt>
      <trkpt lat="45.06287" lon="6.05012">
        <ele>1218.2</ele>
        <time>2024-08-09T08:46:07Z</time>
      </trkpt>
      <trkpt lat="45.06289" lon="6.05013">
        <ele>1218.4</ele>
        <time>2024-08-09T08:46:08Z</time>
      </trkpt>
      <trkpt lat="45.06289" lon="6.05013">
        <ele>1218.6</ele>
        <time>2024-08-09T08:46:09Z</time>
      </trkpt>
      <trkpt lat="45.06291" lon="6.05013">
        <ele>1218.8</ele>
        <time>2024-08-09T08:46:10Z</time>
      </trkpt>
      <trkpt lat="45.06291" lon="6.05013">
        <ele>1219</ele>
        <time>2024-08-09T08:46:11Z</time>
      </trkpt>
      <trkpt lat="45.06293" lon="6.05014">
        <ele>1219</ele>
        <time>2024-08-09T08:46:12Z</time>
      </trkpt>
      <trkpt lat="45.06293" lon="6.05014">
        <ele>1219.4</ele>
        <time>2024-08-09T08:46:13Z</time>
      </trkpt>
      <trkpt lat="45.06293" lon="6.05014">
        <ele>1219.6</ele>
        <time>2024-08-09T08:46:14Z</time>
      </trkpt>
      <trkpt lat="45.06295" lon="6.05017">
        <ele>1219.8</ele>
        <time>2024-08-09T08:46:15Z</time>
      </trkpt>
      <trkpt lat="45.06295" lon="6.05017">
        <ele>1219.8</ele>
        <time>2024-08-09T08:46:16Z</time>
      </trkpt>
      <trkpt lat="45.06296" lon="6.05019">
        <ele>1220</ele>
        <time>2024-08-09T08:46:17Z</time>
      </trkpt>
      <trkpt lat="45.06296" lon="6.05019">
        <ele>1220</ele>
        <time>2024-08-09T08:46:18Z</time>
      </trkpt>
      <trkpt lat="45.06298" lon="6.05021">
        <ele>1220.2</ele>
        <time>2024-08-09T08:46:19Z</time>
      </trkpt>
      <trkpt lat="45.06298" lon="6.05021">
        <ele>1220.4</ele>
        <time>2024-08-09T08:46:20Z</time>
      </trkpt>
      <trkpt lat="45.06298" lon="6.05021">
        <ele>1220.6</ele>
        <time>2024-08-09T08:46:21Z</time>
      </trkpt>
      <trkpt lat="45.063" lon="6.05022">
        <ele>1220.8</ele>
        <time>2024-08-09T08:46:22Z</time>
      </trkpt>
      <trkpt lat="45.063" lon="6.05022">
        <ele>1220.8</ele>
        <time>2024-08-09T08:46:23Z</time>
      </trkpt>
      <trkpt lat="45.063" lon="6.05022">
        <ele>1221.2</ele>
        <time>2024-08-09T08:46:24Z</time>
      </trkpt>
      <trkpt lat="45.06301" lon="6.05025">
        <ele>1221.4</ele>
        <time>2024-08-09T08:46:25Z</time>
      </trkpt>
      <trkpt lat="45.06301" lon="6.05025">
        <ele>1221.6</ele>
        <time>2024-08-09T08:46:26Z</time>
      </trkpt>
      <trkpt lat="45.06301" lon="6.05025">
        <ele>1221.8</ele>
        <time>2024-08-09T08:46:27Z</time>
      </trkpt>
      <trkpt lat="45.063" lon="6.05028">
        <ele>1222</ele>
        <time>2024-08-09T08:46:28Z</time>
      </trkpt>
      <trkpt lat="45.063" lon="6.05028">
        <ele>1222.2</ele>
        <time>2024-08-09T08:46:29Z</time>
      </trkpt>
      <trkpt lat="45.06298" lon="6.05029">
        <ele>1222.2</ele>
        <time>2024-08-09T08:46:30Z</time>
      </trkpt>
      <trkpt lat="45.06298" lon="6.05029">
        <ele>1222.2</ele>
        <time>2024-08-09T08:46:31Z</time>
      </trkpt>
      <trkpt lat="45.06296" lon="6.05029">
        <ele>1222.6</ele>
        <time>2024-08-09T08:46:32Z</time>
      </trkpt>
      <trkpt lat="45.06296" lon="6.05029">
        <ele>1222.8</ele>
        <time>2024-08-09T08:46:33Z</time>
      </trkpt>
      <trkpt lat="45.06296" lon="6.05029">
        <ele>1223</ele>
        <time>2024-08-09T08:46:34Z</time>
      </trkpt>
      <trkpt lat="45.06294" lon="6.05031">
        <ele>1223</ele>
        <time>2024-08-09T08:46:35Z</time>
      </trkpt>
      <trkpt lat="45.06294" lon="6.05031">
        <ele>1223.4</ele>
        <time>2024-08-09T08:46:36Z</time>
      </trkpt>
      <trkpt lat="45.06294" lon="6.05031">
        <ele>1223.6</ele>
        <time>2024-08-09T08:46:37Z</time>
      </trkpt>
      <trkpt lat="45.06293" lon="6.05031">
        <ele>1223.8</ele>
        <time>2024-08-09T08:46:38Z</time>
      </trkpt>
      <trkpt lat="45.06293" lon="6.05031">
        <ele>1223.8</ele>
        <time>2024-08-09T08:46:39Z</time>
      </trkpt>
      <trkpt lat="45.06293" lon="6.05031">
        <ele>1224.4</ele>
        <time>2024-08-09T08:46:40Z</time>
      </trkpt>
      <trkpt lat="45.06291" lon="6.05033">
        <ele>1224.4</ele>
        <time>2024-08-09T08:46:41Z</time>
      </trkpt>
      <trkpt lat="45.06291" lon="6.05033">
        <ele>1224.4</ele>
        <time>2024-08-09T08:46:42Z</time>
      </trkpt>
      <trkpt lat="45.06291" lon="6.05033">
        <ele>1224.4</ele>
        <time>2024-08-09T08:46:43Z</time>
      </trkpt>
      <trkpt lat="45.06289" lon="6.05035">
        <ele>1225</ele>
        <time>2024-08-09T08:46:44Z</time>
      </trkpt>
      <trkpt lat="45.06289" lon="6.05035">
        <ele>1225</ele>
        <time>2024-08-09T08:46:45Z</time>
      </trkpt>
      <trkpt lat="45.06287" lon="6.05036">
        <ele>1225</ele>
        <time>2024-08-09T08:46:46Z</time>
      </trkpt>
      <trkpt lat="45.06287" lon="6.05036">
        <ele>1225.2</ele>
        <time>2024-08-09T08:46:47Z</time>
      </trkpt>
      <trkpt lat="45.06287" lon="6.05036">
        <ele>1225.6</ele>
        <time>2024-08-09T08:46:48Z</time>
      </trkpt>
      <trkpt lat="45.06285" lon="6.05038">
        <ele>1225.8</ele>
        <time>2024-08-09T08:46:49Z</time>
      </trkpt>
      <trkpt lat="45.06285" lon="6.05038">
        <ele>1225.8</ele>
        <time>2024-08-09T08:46:50Z</time>
      </trkpt>
      <trkpt lat="45.06285" lon="6.05038">
        <ele>1226.2</ele>
        <time>2024-08-09T08:46:51Z</time>
      </trkpt>
      <trkpt lat="45.06285" lon="6.05041">
        <ele>1226.4</ele>
        <time>2024-08-09T08:46:52Z</time>
      </trkpt>
      <trkpt lat="45.06285" lon="6.05041">
        <ele>1226.6</ele>
        <time>2024-08-09T08:46:53Z</time>
      </trkpt>
      <trkpt lat="45.06283" lon="6.05041">
        <ele>1226.8</ele>
        <time>2024-08-09T08:46:54Z</time>
      </trkpt>
      <trkpt lat="45.06283" lon="6.05041">
        <ele>1227</ele>
        <time>2024-08-09T08:46:55Z</time>
      </trkpt>
      <trkpt lat="45.06283" lon="6.05041">
        <ele>1227.2</ele>
        <time>2024-08-09T08:46:56Z</time>
      </trkpt>
      <trkpt lat="45.06281" lon="6.05044">
        <ele>1227.2</ele>
        <time>2024-08-09T08:46:57Z</time>
      </trkpt>
      <trkpt lat="45.06281" lon="6.05044">
        <ele>1227.8</ele>
        <time>2024-08-09T08:46:58Z</time>
      </trkpt>
      <trkpt lat="45.06281" lon="6.05044">
        <ele>1228</ele>
        <time>2024-08-09T08:46:59Z</time>
      </trkpt>
      <trkpt lat="45.06279" lon="6.05046">
        <ele>1228.2</ele>
        <time>2024-08-09T08:47:00Z</time>
      </trkpt>
      <trkpt lat="45.06279" lon="6.05046">
        <ele>1228.2</ele>
        <time>2024-08-09T08:47:01Z</time>
      </trkpt>
      <trkpt lat="45.06279" lon="6.05046">
        <ele>1228.6</ele>
        <time>2024-08-09T08:47:02Z</time>
      </trkpt>
      <trkpt lat="45.06277" lon="6.05047">
        <ele>1228.6</ele>
        <time>2024-08-09T08:47:03Z</time>
      </trkpt>
      <trkpt lat="45.06277" lon="6.05047">
        <ele>1228.6</ele>
        <time>2024-08-09T08:47:04Z</time>
      </trkpt>
      <trkpt lat="45.06277" lon="6.05047">
        <ele>1229</ele>
        <time>2024-08-09T08:47:05Z</time>
      </trkpt>
      <trkpt lat="45.06276" lon="6.05049">
        <ele>1229.2</ele>
        <time>2024-08-09T08:47:06Z</time>
      </trkpt>
      <trkpt lat="45.06276" lon="6.05049">
        <ele>1229.2</ele>
        <time>2024-08-09T08:47:07Z</time>
      </trkpt>
      <trkpt lat="45.06276" lon="6.05049">
        <ele>1229.2</ele>
        <time>2024-08-09T08:47:08Z</time>
      </trkpt>
      <trkpt lat="45.06276" lon="6.05049">
        <ele>1229.6</ele>
        <time>2024-08-09T08:47:09Z</time>
      </trkpt>
      <trkpt lat="45.06277" lon="6.0505">
        <ele>1229.6</ele>
        <time>2024-08-09T08:47:10Z</time>
      </trkpt>
      <trkpt lat="45.06277" lon="6.0505">
        <ele>1229.8</ele>
        <time>2024-08-09T08:47:11Z</time>
      </trkpt>
      <trkpt lat="45.06277" lon="6.0505">
        <ele>1229.8</ele>
        <time>2024-08-09T08:47:12Z</time>
      </trkpt>
      <trkpt lat="45.06279" lon="6.0505">
        <ele>1230</ele>
        <time>2024-08-09T08:47:13Z</time>
      </trkpt>
      <trkpt lat="45.06279" lon="6.0505">
        <ele>1230</ele>
        <time>2024-08-09T08:47:14Z</time>
      </trkpt>
      <trkpt lat="45.06282" lon="6.05051">
        <ele>1230.6</ele>
        <time>2024-08-09T08:47:15Z</time>
      </trkpt>
      <trkpt lat="45.06282" lon="6.05051">
        <ele>1231.4</ele>
        <time>2024-08-09T08:47:16Z</time>
      </trkpt>
      <trkpt lat="45.06282" lon="6.05051">
        <ele>1231.4</ele>
        <time>2024-08-09T08:47:17Z</time>
      </trkpt>
      <trkpt lat="45.06282" lon="6.05051">
        <ele>1231.6</ele>
        <time>2024-08-09T08:47:18Z</time>
      </trkpt>
      <trkpt lat="45.06282" lon="6.05051">
        <ele>1231.6</ele>
        <time>2024-08-09T08:47:19Z</time>
      </trkpt>
      <trkpt lat="45.06282" lon="6.05051">
        <ele>1231.8</ele>
        <time>2024-08-09T08:47:20Z</time>
      </trkpt>
      <trkpt lat="45.06282" lon="6.05051">
        <ele>1232</ele>
        <time>2024-08-09T08:47:21Z</time>
      </trkpt>
      <trkpt lat="45.06282" lon="6.05051">
        <ele>1232.2</ele>
        <time>2024-08-09T08:47:22Z</time>
      </trkpt>
      <trkpt lat="45.06282" lon="6.05051">
        <ele>1232.4</ele>
        <time>2024-08-09T08:47:23Z</time>
      </trkpt>
      <trkpt lat="45.06282" lon="6.05051">
        <ele>1232.4</ele>
        <time>2024-08-09T08:47:24Z</time>
      </trkpt>
      <trkpt lat="45.06282" lon="6.05051">
        <ele>1232.6</ele>
        <time>2024-08-09T08:47:25Z</time>
      </trkpt>
      <trkpt lat="45.06282" lon="6.05051">
        <ele>1232.6</ele>
        <time>2024-08-09T08:47:26Z</time>
      </trkpt>
      <trkpt lat="45.06282" lon="6.05051">
        <ele>1232.8</ele>
        <time>2024-08-09T08:47:27Z</time>
      </trkpt>
      <trkpt lat="45.06282" lon="6.05051">
        <ele>1232.8</ele>
        <time>2024-08-09T08:47:28Z</time>
      </trkpt>
      <trkpt lat="45.06282" lon="6.05051">
        <ele>1232.6</ele>
        <time>2024-08-09T08:47:29Z</time>
      </trkpt>
      <trkpt lat="45.06284" lon="6.05052">
        <ele>1232.6</ele>
        <time>2024-08-09T08:47:30Z</time>
      </trkpt>
      <trkpt lat="45.06284" lon="6.05052">
        <ele>1232.8</ele>
        <time>2024-08-09T08:47:31Z</time>
      </trkpt>
      <trkpt lat="45.06284" lon="6.05052">
        <ele>1233</ele>
        <time>2024-08-09T08:47:32Z</time>
      </trkpt>
      <trkpt lat="45.06285" lon="6.05053">
        <ele>1233.2</ele>
        <time>2024-08-09T08:47:33Z</time>
      </trkpt>
      <trkpt lat="45.06285" lon="6.05053">
        <ele>1233.2</ele>
        <time>2024-08-09T08:47:34Z</time>
      </trkpt>
      <trkpt lat="45.06285" lon="6.05053">
        <ele>1233.2</ele>
        <time>2024-08-09T08:47:35Z</time>
      </trkpt>
      <trkpt lat="45.06285" lon="6.05053">
        <ele>1233</ele>
        <time>2024-08-09T08:47:36Z</time>
      </trkpt>
      <trkpt lat="45.06285" lon="6.05053">
        <ele>1233</ele>
        <time>2024-08-09T08:47:37Z</time>
      </trkpt>
      <trkpt lat="45.06285" lon="6.05053">
        <ele>1232.8</ele>
        <time>2024-08-09T08:47:38Z</time>
      </trkpt>
      <trkpt lat="45.06285" lon="6.05053">
        <ele>1232.8</ele>
        <time>2024-08-09T08:47:39Z</time>
      </trkpt>
      <trkpt lat="45.06285" lon="6.05053">
        <ele>1232.8</ele>
        <time>2024-08-09T08:47:40Z</time>
      </trkpt>
      <trkpt lat="45.06285" lon="6.05053">
        <ele>1232.8</ele>
        <time>2024-08-09T08:47:41Z</time>
      </trkpt>
      <trkpt lat="45.06285" lon="6.05053">
        <ele>1232.6</ele>
        <time>2024-08-09T08:47:42Z</time>
      </trkpt>
      <trkpt lat="45.06285" lon="6.05053">
        <ele>1232.6</ele>
        <time>2024-08-09T08:47:43Z</time>
      </trkpt>
      <trkpt lat="45.06285" lon="6.05053">
        <ele>1232.8</ele>
        <time>2024-08-09T08:47:44Z</time>
      </trkpt>
      <trkpt lat="45.06285" lon="6.05053">
        <ele>1232.8</ele>
        <time>2024-08-09T08:47:45Z</time>
      </trkpt>
      <trkpt lat="45.06285" lon="6.05053">
        <ele>1232.8</ele>
        <time>2024-08-09T08:47:46Z</time>
      </trkpt>
      <trkpt lat="45.06285" lon="6.05053">
        <ele>1232.4</ele>
        <time>2024-08-09T08:47:47Z</time>
      </trkpt>
      <trkpt lat="45.06285" lon="6.05053">
        <ele>1232.4</ele>
        <time>2024-08-09T08:47:48Z</time>
      </trkpt>
      <trkpt lat="45.06285" lon="6.05053">
        <ele>1232.4</ele>
        <time>2024-08-09T08:47:49Z</time>
      </trkpt>
      <trkpt lat="45.06285" lon="6.05053">
        <ele>1232.4</ele>
        <time>2024-08-09T08:47:50Z</time>
      </trkpt>
      <trkpt lat="45.06285" lon="6.05053">
        <ele>1232.4</ele>
        <time>2024-08-09T08:47:51Z</time>
      </trkpt>
      <trkpt lat="45.06285" lon="6.05053">
        <ele>1232.4</ele>
        <time>2024-08-09T08:47:52Z</time>
      </trkpt>
      <trkpt lat="45.06285" lon="6.05053">
        <ele>1232.4</ele>
        <time>2024-08-09T08:47:53Z</time>
      </trkpt>
      <trkpt lat="45.06285" lon="6.05053">
        <ele>1232.2</ele>
        <time>2024-08-09T08:47:54Z</time>
      </trkpt>
      <trkpt lat="45.06285" lon="6.05053">
        <ele>1232.2</ele>
        <time>2024-08-09T08:47:55Z</time>
      </trkpt>
      <trkpt lat="45.06285" lon="6.05053">
        <ele>1232.2</ele>
        <time>2024-08-09T08:47:56Z</time>
      </trkpt>
      <trkpt lat="45.06285" lon="6.05053">
        <ele>1232.2</ele>
        <time>2024-08-09T08:47:57Z</time>
      </trkpt>
      <trkpt lat="45.06285" lon="6.05053">
        <ele>1232.8</ele>
        <time>2024-08-09T08:47:58Z</time>
      </trkpt>
      <trkpt lat="45.06285" lon="6.05053">
        <ele>1232.8</ele>
        <time>2024-08-09T08:47:59Z</time>
      </trkpt>
      <trkpt lat="45.06285" lon="6.05053">
        <ele>1232.8</ele>
        <time>2024-08-09T08:48:00Z</time>
      </trkpt>
      <trkpt lat="45.06285" lon="6.05053">
        <ele>1232.6</ele>
        <time>2024-08-09T08:48:01Z</time>
      </trkpt>
      <trkpt lat="45.06285" lon="6.05053">
        <ele>1232.8</ele>
        <time>2024-08-09T08:48:02Z</time>
      </trkpt>
      <trkpt lat="45.06285" lon="6.05053">
        <ele>1232.8</ele>
        <time>2024-08-09T08:48:03Z</time>
      </trkpt>
      <trkpt lat="45.06285" lon="6.05053">
        <ele>1232.8</ele>
        <time>2024-08-09T08:48:04Z</time>
      </trkpt>
      <trkpt lat="45.06285" lon="6.05053">
        <ele>1232.6</ele>
        <time>2024-08-09T08:48:05Z</time>
      </trkpt>
      <trkpt lat="45.06285" lon="6.05053">
        <ele>1232.6</ele>
        <time>2024-08-09T08:48:06Z</time>
      </trkpt>
      <trkpt lat="45.06285" lon="6.05053">
        <ele>1232.8</ele>
        <time>2024-08-09T08:48:07Z</time>
      </trkpt>
      <trkpt lat="45.06285" lon="6.05053">
        <ele>1232.8</ele>
        <time>2024-08-09T08:48:08Z</time>
      </trkpt>
      <trkpt lat="45.06285" lon="6.05053">
        <ele>1232.8</ele>
        <time>2024-08-09T08:48:09Z</time>
      </trkpt>
      <trkpt lat="45.06285" lon="6.05053">
        <ele>1232.8</ele>
        <time>2024-08-09T08:48:10Z</time>
      </trkpt>
      <trkpt lat="45.06285" lon="6.05053">
        <ele>1232.8</ele>
        <time>2024-08-09T08:48:11Z</time>
      </trkpt>
      <trkpt lat="45.06285" lon="6.05053">
        <ele>1232.8</ele>
        <time>2024-08-09T08:48:12Z</time>
      </trkpt>
      <trkpt lat="45.06285" lon="6.05053">
        <ele>1232.8</ele>
        <time>2024-08-09T08:48:13Z</time>
      </trkpt>
      <trkpt lat="45.06285" lon="6.05053">
        <ele>1232.8</ele>
        <time>2024-08-09T08:48:14Z</time>
      </trkpt>
      <trkpt lat="45.06285" lon="6.05053">
        <ele>1232.8</ele>
        <time>2024-08-09T08:48:15Z</time>
      </trkpt>
      <trkpt lat="45.06285" lon="6.05053">
        <ele>1232.8</ele>
        <time>2024-08-09T08:48:16Z</time>
      </trkpt>
      <trkpt lat="45.06285" lon="6.05053">
        <ele>1232.4</ele>
        <time>2024-08-09T08:48:17Z</time>
      </trkpt>
      <trkpt lat="45.06285" lon="6.05053">
        <ele>1232.4</ele>
        <time>2024-08-09T08:48:18Z</time>
      </trkpt>
      <trkpt lat="45.06285" lon="6.05053">
        <ele>1232.4</ele>
        <time>2024-08-09T08:48:19Z</time>
      </trkpt>
      <trkpt lat="45.06285" lon="6.05053">
        <ele>1232.4</ele>
        <time>2024-08-09T08:48:20Z</time>
      </trkpt>
      <trkpt lat="45.06285" lon="6.05053">
        <ele>1232.6</ele>
        <time>2024-08-09T08:48:21Z</time>
      </trkpt>
      <trkpt lat="45.06285" lon="6.05053">
        <ele>1232.8</ele>
        <time>2024-08-09T08:48:22Z</time>
      </trkpt>
      <trkpt lat="45.06285" lon="6.05053">
        <ele>1232.8</ele>
        <time>2024-08-09T08:48:23Z</time>
      </trkpt>
      <trkpt lat="45.06285" lon="6.05053">
        <ele>1232.8</ele>
        <time>2024-08-09T08:48:24Z</time>
      </trkpt>
      <trkpt lat="45.06285" lon="6.05053">
        <ele>1232.8</ele>
        <time>2024-08-09T08:48:25Z</time>
      </trkpt>
      <trkpt lat="45.06285" lon="6.05053">
        <ele>1232.6</ele>
        <time>2024-08-09T08:48:26Z</time>
      </trkpt>
      <trkpt lat="45.06285" lon="6.05053">
        <ele>1232.6</ele>
        <time>2024-08-09T08:48:27Z</time>
      </trkpt>
      <trkpt lat="45.06285" lon="6.05053">
        <ele>1232.6</ele>
        <time>2024-08-09T08:48:28Z</time>
      </trkpt>
      <trkpt lat="45.06285" lon="6.05053">
        <ele>1232.6</ele>
        <time>2024-08-09T08:48:29Z</time>
      </trkpt>
      <trkpt lat="45.06285" lon="6.05053">
        <ele>1232.6</ele>
        <time>2024-08-09T08:48:30Z</time>
      </trkpt>
      <trkpt lat="45.06285" lon="6.05053">
        <ele>1232.6</ele>
        <time>2024-08-09T08:48:31Z</time>
      </trkpt>
      <trkpt lat="45.06285" lon="6.05053">
        <ele>1232.6</ele>
        <time>2024-08-09T08:48:32Z</time>
      </trkpt>
      <trkpt lat="45.06285" lon="6.05053">
        <ele>1232.6</ele>
        <time>2024-08-09T08:48:33Z</time>
      </trkpt>
      <trkpt lat="45.06285" lon="6.05053">
        <ele>1233</ele>
        <time>2024-08-09T08:48:34Z</time>
      </trkpt>
      <trkpt lat="45.06285" lon="6.05053">
        <ele>1233</ele>
        <time>2024-08-09T08:48:35Z</time>
      </trkpt>
      <trkpt lat="45.06285" lon="6.05053">
        <ele>1233</ele>
        <time>2024-08-09T08:48:36Z</time>
      </trkpt>
      <trkpt lat="45.06285" lon="6.05053">
        <ele>1233</ele>
        <time>2024-08-09T08:48:37Z</time>
      </trkpt>
      <trkpt lat="45.06285" lon="6.05053">
        <ele>1232.8</ele>
        <time>2024-08-09T08:48:38Z</time>
      </trkpt>
      <trkpt lat="45.06285" lon="6.05053">
        <ele>1232.8</ele>
        <time>2024-08-09T08:48:39Z</time>
      </trkpt>
      <trkpt lat="45.06285" lon="6.05053">
        <ele>1232.8</ele>
        <time>2024-08-09T08:48:40Z</time>
      </trkpt>
      <trkpt lat="45.06285" lon="6.05053">
        <ele>1232.8</ele>
        <time>2024-08-09T08:48:41Z</time>
      </trkpt>
      <trkpt lat="45.06285" lon="6.05053">
        <ele>1232.8</ele>
        <time>2024-08-09T08:48:42Z</time>
      </trkpt>
      <trkpt lat="45.06285" lon="6.05053">
        <ele>1232.8</ele>
        <time>2024-08-09T08:48:43Z</time>
      </trkpt>
      <trkpt lat="45.06285" lon="6.05053">
        <ele>1232.8</ele>
        <time>2024-08-09T08:48:44Z</time>
      </trkpt>
      <trkpt lat="45.06285" lon="6.05053">
        <ele>1232.8</ele>
        <time>2024-08-09T08:48:45Z</time>
      </trkpt>
      <trkpt lat="45.06285" lon="6.05053">
        <ele>1232.8</ele>
        <time>2024-08-09T08:48:46Z</time>
      </trkpt>
      <trkpt lat="45.06285" lon="6.05053">
        <ele>1232.8</ele>
        <time>2024-08-09T08:48:47Z</time>
      </trkpt>
      <trkpt lat="45.06285" lon="6.05053">
        <ele>1232.6</ele>
        <time>2024-08-09T08:48:48Z</time>
      </trkpt>
      <trkpt lat="45.06285" lon="6.05053">
        <ele>1232.6</ele>
        <time>2024-08-09T08:48:49Z</time>
      </trkpt>
      <trkpt lat="45.06285" lon="6.05053">
        <ele>1232.4</ele>
        <time>2024-08-09T08:48:50Z</time>
      </trkpt>
      <trkpt lat="45.06285" lon="6.05053">
        <ele>1232.4</ele>
        <time>2024-08-09T08:48:51Z</time>
      </trkpt>
      <trkpt lat="45.06285" lon="6.05053">
        <ele>1232.4</ele>
        <time>2024-08-09T08:48:52Z</time>
      </trkpt>
      <trkpt lat="45.06285" lon="6.05053">
        <ele>1232.4</ele>
        <time>2024-08-09T08:48:53Z</time>
      </trkpt>
      <trkpt lat="45.06285" lon="6.05053">
        <ele>1232.4</ele>
        <time>2024-08-09T08:48:54Z</time>
      </trkpt>
      <trkpt lat="45.06285" lon="6.05053">
        <ele>1232.6</ele>
        <time>2024-08-09T08:48:55Z</time>
      </trkpt>
      <trkpt lat="45.06285" lon="6.05053">
        <ele>1232.6</ele>
        <time>2024-08-09T08:48:56Z</time>
      </trkpt>
      <trkpt lat="45.06285" lon="6.05053">
        <ele>1232.6</ele>
        <time>2024-08-09T08:48:57Z</time>
      </trkpt>
      <trkpt lat="45.06285" lon="6.05053">
        <ele>1232.8</ele>
        <time>2024-08-09T08:48:58Z</time>
      </trkpt>
      <trkpt lat="45.06285" lon="6.05053">
        <ele>1232.8</ele>
        <time>2024-08-09T08:48:59Z</time>
      </trkpt>
      <trkpt lat="45.06285" lon="6.05053">
        <ele>1232.6</ele>
        <time>2024-08-09T08:49:00Z</time>
      </trkpt>
      <trkpt lat="45.06285" lon="6.05053">
        <ele>1232.4</ele>
        <time>2024-08-09T08:49:01Z</time>
      </trkpt>
      <trkpt lat="45.06285" lon="6.05053">
        <ele>1232.6</ele>
        <time>2024-08-09T08:49:02Z</time>
      </trkpt>
      <trkpt lat="45.06285" lon="6.05053">
        <ele>1232.6</ele>
        <time>2024-08-09T08:49:03Z</time>
      </trkpt>
      <trkpt lat="45.06285" lon="6.05053">
        <ele>1232.6</ele>
        <time>2024-08-09T08:49:04Z</time>
      </trkpt>
      <trkpt lat="45.06285" lon="6.05053">
        <ele>1232.4</ele>
        <time>2024-08-09T08:49:05Z</time>
      </trkpt>
      <trkpt lat="45.06285" lon="6.05053">
        <ele>1232.4</ele>
        <time>2024-08-09T08:49:06Z</time>
      </trkpt>
      <trkpt lat="45.06285" lon="6.05053">
        <ele>1232.4</ele>
        <time>2024-08-09T08:49:07Z</time>
      </trkpt>
      <trkpt lat="45.06285" lon="6.05053">
        <ele>1232.4</ele>
        <time>2024-08-09T08:49:08Z</time>
      </trkpt>
      <trkpt lat="45.06285" lon="6.05053">
        <ele>1232.4</ele>
        <time>2024-08-09T08:49:09Z</time>
      </trkpt>
      <trkpt lat="45.06285" lon="6.05053">
        <ele>1232.4</ele>
        <time>2024-08-09T08:49:10Z</time>
      </trkpt>
      <trkpt lat="45.06285" lon="6.05053">
        <ele>1232.4</ele>
        <time>2024-08-09T08:49:11Z</time>
      </trkpt>
      <trkpt lat="45.06285" lon="6.05053">
        <ele>1232.4</ele>
        <time>2024-08-09T08:49:12Z</time>
      </trkpt>
      <trkpt lat="45.06285" lon="6.05053">
        <ele>1232.4</ele>
        <time>2024-08-09T08:49:13Z</time>
      </trkpt>
      <trkpt lat="45.06285" lon="6.05053">
        <ele>1232.4</ele>
        <time>2024-08-09T08:49:14Z</time>
      </trkpt>
      <trkpt lat="45.06285" lon="6.05053">
        <ele>1232.2</ele>
        <time>2024-08-09T08:49:15Z</time>
      </trkpt>
      <trkpt lat="45.06285" lon="6.05053">
        <ele>1232.2</ele>
        <time>2024-08-09T08:49:16Z</time>
      </trkpt>
      <trkpt lat="45.06285" lon="6.05053">
        <ele>1232.2</ele>
        <time>2024-08-09T08:49:17Z</time>
      </trkpt>
      <trkpt lat="45.06285" lon="6.05053">
        <ele>1232.2</ele>
        <time>2024-08-09T08:49:18Z</time>
      </trkpt>
      <trkpt lat="45.06285" lon="6.05053">
        <ele>1232</ele>
        <time>2024-08-09T08:49:19Z</time>
      </trkpt>
      <trkpt lat="45.06285" lon="6.05053">
        <ele>1232</ele>
        <time>2024-08-09T08:49:20Z</time>
      </trkpt>
      <trkpt lat="45.06285" lon="6.05053">
        <ele>1231.8</ele>
        <time>2024-08-09T08:49:21Z</time>
      </trkpt>
      <trkpt lat="45.06285" lon="6.05053">
        <ele>1231.6</ele>
        <time>2024-08-09T08:49:22Z</time>
      </trkpt>
      <trkpt lat="45.06285" lon="6.05053">
        <ele>1231.6</ele>
        <time>2024-08-09T08:49:23Z</time>
      </trkpt>
      <trkpt lat="45.06285" lon="6.05053">
        <ele>1231.6</ele>
        <time>2024-08-09T08:49:24Z</time>
      </trkpt>
      <trkpt lat="45.06285" lon="6.05053">
        <ele>1231.6</ele>
        <time>2024-08-09T08:49:25Z</time>
      </trkpt>
      <trkpt lat="45.06285" lon="6.05053">
        <ele>1231.6</ele>
        <time>2024-08-09T08:49:26Z</time>
      </trkpt>
      <trkpt lat="45.06285" lon="6.05053">
        <ele>1231.6</ele>
        <time>2024-08-09T08:49:27Z</time>
      </trkpt>
      <trkpt lat="45.06285" lon="6.05053">
        <ele>1231.6</ele>
        <time>2024-08-09T08:49:28Z</time>
      </trkpt>
      <trkpt lat="45.06285" lon="6.05053">
        <ele>1231.6</ele>
        <time>2024-08-09T08:49:29Z</time>
      </trkpt>
      <trkpt lat="45.06285" lon="6.05053">
        <ele>1231.8</ele>
        <time>2024-08-09T08:49:30Z</time>
      </trkpt>
      <trkpt lat="45.06285" lon="6.05053">
        <ele>1231.8</ele>
        <time>2024-08-09T08:49:31Z</time>
      </trkpt>
      <trkpt lat="45.06285" lon="6.05053">
        <ele>1231.8</ele>
        <time>2024-08-09T08:49:32Z</time>
      </trkpt>
      <trkpt lat="45.06285" lon="6.05053">
        <ele>1231.8</ele>
        <time>2024-08-09T08:49:33Z</time>
      </trkpt>
      <trkpt lat="45.06285" lon="6.05053">
        <ele>1231.8</ele>
        <time>2024-08-09T08:49:34Z</time>
      </trkpt>
      <trkpt lat="45.06285" lon="6.05053">
        <ele>1231.8</ele>
        <time>2024-08-09T08:49:35Z</time>
      </trkpt>
      <trkpt lat="45.06285" lon="6.05053">
        <ele>1231.8</ele>
        <time>2024-08-09T08:49:36Z</time>
      </trkpt>
      <trkpt lat="45.06285" lon="6.05053">
        <ele>1231.8</ele>
        <time>2024-08-09T08:49:37Z</time>
      </trkpt>
      <trkpt lat="45.06285" lon="6.05053">
        <ele>1231.8</ele>
        <time>2024-08-09T08:49:38Z</time>
      </trkpt>
      <trkpt lat="45.06285" lon="6.05053">
        <ele>1231.8</ele>
        <time>2024-08-09T08:49:39Z</time>
      </trkpt>
      <trkpt lat="45.06285" lon="6.05053">
        <ele>1231.8</ele>
        <time>2024-08-09T08:49:40Z</time>
      </trkpt>
      <trkpt lat="45.06285" lon="6.05053">
        <ele>1231.8</ele>
        <time>2024-08-09T08:49:41Z</time>
      </trkpt>
      <trkpt lat="45.06285" lon="6.05053">
        <ele>1232</ele>
        <time>2024-08-09T08:49:42Z</time>
      </trkpt>
      <trkpt lat="45.06285" lon="6.05053">
        <ele>1232.2</ele>
        <time>2024-08-09T08:49:43Z</time>
      </trkpt>
      <trkpt lat="45.06285" lon="6.05053">
        <ele>1232.2</ele>
        <time>2024-08-09T08:49:44Z</time>
      </trkpt>
      <trkpt lat="45.06285" lon="6.05053">
        <ele>1232.6</ele>
        <time>2024-08-09T08:49:45Z</time>
      </trkpt>
      <trkpt lat="45.06285" lon="6.05053">
        <ele>1232.6</ele>
        <time>2024-08-09T08:49:46Z</time>
      </trkpt>
      <trkpt lat="45.06285" lon="6.05053">
        <ele>1232.6</ele>
        <time>2024-08-09T08:49:47Z</time>
      </trkpt>
      <trkpt lat="45.06285" lon="6.05053">
        <ele>1232.4</ele>
        <time>2024-08-09T08:49:48Z</time>
      </trkpt>
      <trkpt lat="45.06285" lon="6.05053">
        <ele>1232.4</ele>
        <time>2024-08-09T08:49:49Z</time>
      </trkpt>
      <trkpt lat="45.06285" lon="6.05053">
        <ele>1232.6</ele>
        <time>2024-08-09T08:49:50Z</time>
      </trkpt>
      <trkpt lat="45.06285" lon="6.05053">
        <ele>1232.6</ele>
        <time>2024-08-09T08:49:51Z</time>
      </trkpt>
      <trkpt lat="45.06285" lon="6.05053">
        <ele>1232.2</ele>
        <time>2024-08-09T08:49:52Z</time>
      </trkpt>
      <trkpt lat="45.06285" lon="6.05053">
        <ele>1232</ele>
        <time>2024-08-09T08:49:53Z</time>
      </trkpt>
      <trkpt lat="45.06285" lon="6.05053">
        <ele>1232</ele>
        <time>2024-08-09T08:49:54Z</time>
      </trkpt>
      <trkpt lat="45.06285" lon="6.05053">
        <ele>1232.2</ele>
        <time>2024-08-09T08:49:55Z</time>
      </trkpt>
      <trkpt lat="45.06285" lon="6.05053">
        <ele>1232.2</ele>
        <time>2024-08-09T08:49:56Z</time>
      </trkpt>
      <trkpt lat="45.06285" lon="6.05053">
        <ele>1232</ele>
        <time>2024-08-09T08:49:57Z</time>
      </trkpt>
      <trkpt lat="45.06285" lon="6.05053">
        <ele>1232</ele>
        <time>2024-08-09T08:49:58Z</time>
      </trkpt>
      <trkpt lat="45.06285" lon="6.05053">
        <ele>1232</ele>
        <time>2024-08-09T08:49:59Z</time>
      </trkpt>
      <trkpt lat="45.06285" lon="6.05053">
        <ele>1232</ele>
        <time>2024-08-09T08:50:00Z</time>
      </trkpt>
      <trkpt lat="45.06285" lon="6.05053">
        <ele>1232</ele>
        <time>2024-08-09T08:50:01Z</time>
      </trkpt>
      <trkpt lat="45.06285" lon="6.05053">
        <ele>1231.6</ele>
        <time>2024-08-09T08:50:02Z</time>
      </trkpt>
      <trkpt lat="45.06285" lon="6.05053">
        <ele>1231.6</ele>
        <time>2024-08-09T08:50:03Z</time>
      </trkpt>
      <trkpt lat="45.06285" lon="6.05053">
        <ele>1231.6</ele>
        <time>2024-08-09T08:50:04Z</time>
      </trkpt>
      <trkpt lat="45.06285" lon="6.05053">
        <ele>1231.6</ele>
        <time>2024-08-09T08:50:05Z</time>
      </trkpt>
      <trkpt lat="45.06285" lon="6.05053">
        <ele>1231.6</ele>
        <time>2024-08-09T08:50:06Z</time>
      </trkpt>
      <trkpt lat="45.06285" lon="6.05053">
        <ele>1231.6</ele>
        <time>2024-08-09T08:50:07Z</time>
      </trkpt>
      <trkpt lat="45.06285" lon="6.05053">
        <ele>1231.8</ele>
        <time>2024-08-09T08:50:08Z</time>
      </trkpt>
      <trkpt lat="45.06285" lon="6.05053">
        <ele>1231.8</ele>
        <time>2024-08-09T08:50:09Z</time>
      </trkpt>
      <trkpt lat="45.06285" lon="6.05053">
        <ele>1232</ele>
        <time>2024-08-09T08:50:10Z</time>
      </trkpt>
      <trkpt lat="45.06285" lon="6.05053">
        <ele>1232.2</ele>
        <time>2024-08-09T08:50:11Z</time>
      </trkpt>
      <trkpt lat="45.06285" lon="6.05053">
        <ele>1232.2</ele>
        <time>2024-08-09T08:50:12Z</time>
      </trkpt>
      <trkpt lat="45.06285" lon="6.05053">
        <ele>1232.4</ele>
        <time>2024-08-09T08:50:13Z</time>
      </trkpt>
      <trkpt lat="45.06285" lon="6.05053">
        <ele>1232.4</ele>
        <time>2024-08-09T08:50:14Z</time>
      </trkpt>
      <trkpt lat="45.06285" lon="6.05053">
        <ele>1232.4</ele>
        <time>2024-08-09T08:50:15Z</time>
      </trkpt>
      <trkpt lat="45.06285" lon="6.05053">
        <ele>1232.6</ele>
        <time>2024-08-09T08:50:16Z</time>
      </trkpt>
      <trkpt lat="45.06285" lon="6.05053">
        <ele>1232.6</ele>
        <time>2024-08-09T08:50:17Z</time>
      </trkpt>
      <trkpt lat="45.06285" lon="6.05053">
        <ele>1232.6</ele>
        <time>2024-08-09T08:50:18Z</time>
      </trkpt>
      <trkpt lat="45.06285" lon="6.05053">
        <ele>1232.6</ele>
        <time>2024-08-09T08:50:19Z</time>
      </trkpt>
      <trkpt lat="45.06285" lon="6.05053">
        <ele>1232.6</ele>
        <time>2024-08-09T08:50:20Z</time>
      </trkpt>
      <trkpt lat="45.06285" lon="6.05053">
        <ele>1232.6</ele>
        <time>2024-08-09T08:50:21Z</time>
      </trkpt>
      <trkpt lat="45.06285" lon="6.05053">
        <ele>1232.6</ele>
        <time>2024-08-09T08:50:22Z</time>
      </trkpt>
      <trkpt lat="45.06285" lon="6.05053">
        <ele>1232.6</ele>
        <time>2024-08-09T08:50:23Z</time>
      </trkpt>
      <trkpt lat="45.06285" lon="6.05053">
        <ele>1232.6</ele>
        <time>2024-08-09T08:50:24Z</time>
      </trkpt>
      <trkpt lat="45.06285" lon="6.05053">
        <ele>1232.6</ele>
        <time>2024-08-09T08:50:25Z</time>
      </trkpt>
      <trkpt lat="45.06285" lon="6.05053">
        <ele>1232.6</ele>
        <time>2024-08-09T08:50:26Z</time>
      </trkpt>
      <trkpt lat="45.06285" lon="6.05053">
        <ele>1232.6</ele>
        <time>2024-08-09T08:50:27Z</time>
      </trkpt>
      <trkpt lat="45.06285" lon="6.05053">
        <ele>1232.6</ele>
        <time>2024-08-09T08:50:28Z</time>
      </trkpt>
      <trkpt lat="45.06285" lon="6.05053">
        <ele>1232.6</ele>
        <time>2024-08-09T08:50:29Z</time>
      </trkpt>
      <trkpt lat="45.06285" lon="6.05053">
        <ele>1232.4</ele>
        <time>2024-08-09T08:50:30Z</time>
      </trkpt>
      <trkpt lat="45.06285" lon="6.05053">
        <ele>1232.4</ele>
        <time>2024-08-09T08:50:31Z</time>
      </trkpt>
      <trkpt lat="45.06285" lon="6.05053">
        <ele>1232.6</ele>
        <time>2024-08-09T08:50:32Z</time>
      </trkpt>
      <trkpt lat="45.06285" lon="6.05053">
        <ele>1232.6</ele>
        <time>2024-08-09T08:50:33Z</time>
      </trkpt>
      <trkpt lat="45.06285" lon="6.05053">
        <ele>1232.6</ele>
        <time>2024-08-09T08:50:34Z</time>
      </trkpt>
      <trkpt lat="45.06285" lon="6.05053">
        <ele>1232.8</ele>
        <time>2024-08-09T08:50:35Z</time>
      </trkpt>
      <trkpt lat="45.06285" lon="6.05053">
        <ele>1232.8</ele>
        <time>2024-08-09T08:50:36Z</time>
      </trkpt>
      <trkpt lat="45.06285" lon="6.05053">
        <ele>1232.6</ele>
        <time>2024-08-09T08:50:37Z</time>
      </trkpt>
      <trkpt lat="45.06285" lon="6.05053">
        <ele>1232.6</ele>
        <time>2024-08-09T08:50:38Z</time>
      </trkpt>
      <trkpt lat="45.06285" lon="6.05053">
        <ele>1232.6</ele>
        <time>2024-08-09T08:50:39Z</time>
      </trkpt>
      <trkpt lat="45.06285" lon="6.05053">
        <ele>1232.6</ele>
        <time>2024-08-09T08:50:40Z</time>
      </trkpt>
      <trkpt lat="45.06285" lon="6.05053">
        <ele>1232.6</ele>
        <time>2024-08-09T08:50:41Z</time>
      </trkpt>
      <trkpt lat="45.06285" lon="6.05053">
        <ele>1232.6</ele>
        <time>2024-08-09T08:50:42Z</time>
      </trkpt>
      <trkpt lat="45.06285" lon="6.05053">
        <ele>1232.6</ele>
        <time>2024-08-09T08:50:43Z</time>
      </trkpt>
      <trkpt lat="45.06285" lon="6.05053">
        <ele>1232.6</ele>
        <time>2024-08-09T08:50:44Z</time>
      </trkpt>
      <trkpt lat="45.06285" lon="6.05053">
        <ele>1232.6</ele>
        <time>2024-08-09T08:50:45Z</time>
      </trkpt>
      <trkpt lat="45.06285" lon="6.05053">
        <ele>1232.6</ele>
        <time>2024-08-09T08:50:46Z</time>
      </trkpt>
      <trkpt lat="45.06285" lon="6.05053">
        <ele>1232.6</ele>
        <time>2024-08-09T08:50:47Z</time>
      </trkpt>
      <trkpt lat="45.06285" lon="6.05053">
        <ele>1232.6</ele>
        <time>2024-08-09T08:50:48Z</time>
      </trkpt>
      <trkpt lat="45.06285" lon="6.05053">
        <ele>1232.6</ele>
        <time>2024-08-09T08:50:49Z</time>
      </trkpt>
      <trkpt lat="45.06285" lon="6.05053">
        <ele>1232.6</ele>
        <time>2024-08-09T08:50:50Z</time>
      </trkpt>
      <trkpt lat="45.06285" lon="6.05053">
        <ele>1232.4</ele>
        <time>2024-08-09T08:50:51Z</time>
      </trkpt>
      <trkpt lat="45.06285" lon="6.05053">
        <ele>1232.2</ele>
        <time>2024-08-09T08:50:52Z</time>
      </trkpt>
      <trkpt lat="45.06288" lon="6.05051">
        <ele>1232.2</ele>
        <time>2024-08-09T08:50:53Z</time>
      </trkpt>
      <trkpt lat="45.06288" lon="6.05051">
        <ele>1232.2</ele>
        <time>2024-08-09T08:50:54Z</time>
      </trkpt>
      <trkpt lat="45.06291" lon="6.05049">
        <ele>1232.4</ele>
        <time>2024-08-09T08:50:55Z</time>
      </trkpt>
      <trkpt lat="45.06291" lon="6.05049">
        <ele>1232.4</ele>
        <time>2024-08-09T08:50:56Z</time>
      </trkpt>
      <trkpt lat="45.06293" lon="6.05048">
        <ele>1232.6</ele>
        <time>2024-08-09T08:50:57Z</time>
      </trkpt>
      <trkpt lat="45.06293" lon="6.05048">
        <ele>1232.6</ele>
        <time>2024-08-09T08:50:58Z</time>
      </trkpt>
      <trkpt lat="45.06293" lon="6.05048">
        <ele>1232.8</ele>
        <time>2024-08-09T08:50:59Z</time>
      </trkpt>
      <trkpt lat="45.06293" lon="6.05048">
        <ele>1232.8</ele>
        <time>2024-08-09T08:51:00Z</time>
      </trkpt>
      <trkpt lat="45.06293" lon="6.05048">
        <ele>1232.8</ele>
        <time>2024-08-09T08:51:01Z</time>
      </trkpt>
      <trkpt lat="45.06293" lon="6.05048">
        <ele>1232.8</ele>
        <time>2024-08-09T08:51:02Z</time>
      </trkpt>
      <trkpt lat="45.06293" lon="6.05048">
        <ele>1232.8</ele>
        <time>2024-08-09T08:51:03Z</time>
      </trkpt>
      <trkpt lat="45.06293" lon="6.05048">
        <ele>1232.6</ele>
        <time>2024-08-09T08:51:04Z</time>
      </trkpt>
      <trkpt lat="45.06293" lon="6.05048">
        <ele>1232.6</ele>
        <time>2024-08-09T08:51:05Z</time>
      </trkpt>
      <trkpt lat="45.06293" lon="6.05048">
        <ele>1232.6</ele>
        <time>2024-08-09T08:51:06Z</time>
      </trkpt>
      <trkpt lat="45.06293" lon="6.05048">
        <ele>1233.2</ele>
        <time>2024-08-09T08:51:07Z</time>
      </trkpt>
      <trkpt lat="45.06293" lon="6.05048">
        <ele>1233.2</ele>
        <time>2024-08-09T08:51:08Z</time>
      </trkpt>
      <trkpt lat="45.06293" lon="6.05048">
        <ele>1233.2</ele>
        <time>2024-08-09T08:51:09Z</time>
      </trkpt>
      <trkpt lat="45.06293" lon="6.05048">
        <ele>1233.2</ele>
        <time>2024-08-09T08:51:10Z</time>
      </trkpt>
      <trkpt lat="45.06293" lon="6.05048">
        <ele>1233.2</ele>
        <time>2024-08-09T08:51:11Z</time>
      </trkpt>
      <trkpt lat="45.06293" lon="6.05048">
        <ele>1233</ele>
        <time>2024-08-09T08:51:12Z</time>
      </trkpt>
      <trkpt lat="45.06293" lon="6.05048">
        <ele>1233</ele>
        <time>2024-08-09T08:51:13Z</time>
      </trkpt>
      <trkpt lat="45.06293" lon="6.05048">
        <ele>1233</ele>
        <time>2024-08-09T08:51:14Z</time>
      </trkpt>
      <trkpt lat="45.06293" lon="6.05048">
        <ele>1233</ele>
        <time>2024-08-09T08:51:15Z</time>
      </trkpt>
      <trkpt lat="45.06293" lon="6.05048">
        <ele>1233</ele>
        <time>2024-08-09T08:51:16Z</time>
      </trkpt>
      <trkpt lat="45.06295" lon="6.05046">
        <ele>1232.8</ele>
        <time>2024-08-09T08:51:17Z</time>
      </trkpt>
      <trkpt lat="45.06295" lon="6.05046">
        <ele>1232.8</ele>
        <time>2024-08-09T08:51:18Z</time>
      </trkpt>
      <trkpt lat="45.06297" lon="6.05046">
        <ele>1232.8</ele>
        <time>2024-08-09T08:51:19Z</time>
      </trkpt>
      <trkpt lat="45.06299" lon="6.05047">
        <ele>1233.2</ele>
        <time>2024-08-09T08:51:20Z</time>
      </trkpt>
      <trkpt lat="45.06301" lon="6.05048">
        <ele>1233.2</ele>
        <time>2024-08-09T08:51:21Z</time>
      </trkpt>
      <trkpt lat="45.06303" lon="6.05048">
        <ele>1233.2</ele>
        <time>2024-08-09T08:51:22Z</time>
      </trkpt>
      <trkpt lat="45.06303" lon="6.05048">
        <ele>1233.4</ele>
        <time>2024-08-09T08:51:23Z</time>
      </trkpt>
      <trkpt lat="45.06305" lon="6.05049">
        <ele>1233.6</ele>
        <time>2024-08-09T08:51:24Z</time>
      </trkpt>
      <trkpt lat="45.06305" lon="6.05049">
        <ele>1233.6</ele>
        <time>2024-08-09T08:51:25Z</time>
      </trkpt>
      <trkpt lat="45.06308" lon="6.0505">
        <ele>1233.6</ele>
        <time>2024-08-09T08:51:26Z</time>
      </trkpt>
      <trkpt lat="45.06308" lon="6.0505">
        <ele>1233.8</ele>
        <time>2024-08-09T08:51:27Z</time>
      </trkpt>
      <trkpt lat="45.0631" lon="6.05051">
        <ele>1234.2</ele>
        <time>2024-08-09T08:51:28Z</time>
      </trkpt>
      <trkpt lat="45.0631" lon="6.05051">
        <ele>1234.2</ele>
        <time>2024-08-09T08:51:29Z</time>
      </trkpt>
      <trkpt lat="45.0631" lon="6.05051">
        <ele>1234.4</ele>
        <time>2024-08-09T08:51:30Z</time>
      </trkpt>
      <trkpt lat="45.06312" lon="6.05052">
        <ele>1234.6</ele>
        <time>2024-08-09T08:51:31Z</time>
      </trkpt>
      <trkpt lat="45.06312" lon="6.05052">
        <ele>1234.8</ele>
        <time>2024-08-09T08:51:32Z</time>
      </trkpt>
      <trkpt lat="45.06312" lon="6.05052">
        <ele>1235</ele>
        <time>2024-08-09T08:51:33Z</time>
      </trkpt>
      <trkpt lat="45.06312" lon="6.05052">
        <ele>1235.4</ele>
        <time>2024-08-09T08:51:34Z</time>
      </trkpt>
      <trkpt lat="45.06312" lon="6.05052">
        <ele>1235.6</ele>
        <time>2024-08-09T08:51:35Z</time>
      </trkpt>
      <trkpt lat="45.06314" lon="6.05052">
        <ele>1235.8</ele>
        <time>2024-08-09T08:51:36Z</time>
      </trkpt>
      <trkpt lat="45.06314" lon="6.05052">
        <ele>1235.8</ele>
        <time>2024-08-09T08:51:37Z</time>
      </trkpt>
      <trkpt lat="45.06314" lon="6.05052">
        <ele>1236.2</ele>
        <time>2024-08-09T08:51:38Z</time>
      </trkpt>
      <trkpt lat="45.06314" lon="6.05052">
        <ele>1236.4</ele>
        <time>2024-08-09T08:51:39Z</time>
      </trkpt>
      <trkpt lat="45.06316" lon="6.05053">
        <ele>1236.4</ele>
        <time>2024-08-09T08:51:40Z</time>
      </trkpt>
      <trkpt lat="45.06316" lon="6.05053">
        <ele>1236.8</ele>
        <time>2024-08-09T08:51:41Z</time>
      </trkpt>
      <trkpt lat="45.06316" lon="6.05053">
        <ele>1237</ele>
        <time>2024-08-09T08:51:42Z</time>
      </trkpt>
      <trkpt lat="45.06316" lon="6.05053">
        <ele>1237.6</ele>
        <time>2024-08-09T08:51:43Z</time>
      </trkpt>
      <trkpt lat="45.06316" lon="6.05053">
        <ele>1237.6</ele>
        <time>2024-08-09T08:51:44Z</time>
      </trkpt>
      <trkpt lat="45.06314" lon="6.05055">
        <ele>1237.8</ele>
        <time>2024-08-09T08:51:45Z</time>
      </trkpt>
      <trkpt lat="45.06314" lon="6.05055">
        <ele>1238</ele>
        <time>2024-08-09T08:51:46Z</time>
      </trkpt>
      <trkpt lat="45.06314" lon="6.05055">
        <ele>1238</ele>
        <time>2024-08-09T08:51:47Z</time>
      </trkpt>
      <trkpt lat="45.06314" lon="6.05055">
        <ele>1238.4</ele>
        <time>2024-08-09T08:51:48Z</time>
      </trkpt>
      <trkpt lat="45.06314" lon="6.05055">
        <ele>1238.4</ele>
        <time>2024-08-09T08:51:49Z</time>
      </trkpt>
      <trkpt lat="45.06314" lon="6.05055">
        <ele>1238.4</ele>
        <time>2024-08-09T08:51:50Z</time>
      </trkpt>
      <trkpt lat="45.06314" lon="6.05055">
        <ele>1238.8</ele>
        <time>2024-08-09T08:51:51Z</time>
      </trkpt>
      <trkpt lat="45.06314" lon="6.05055">
        <ele>1238.8</ele>
        <time>2024-08-09T08:51:52Z</time>
      </trkpt>
      <trkpt lat="45.06314" lon="6.05055">
        <ele>1239.2</ele>
        <time>2024-08-09T08:51:53Z</time>
      </trkpt>
      <trkpt lat="45.06312" lon="6.05056">
        <ele>1239.4</ele>
        <time>2024-08-09T08:51:54Z</time>
      </trkpt>
      <trkpt lat="45.06312" lon="6.05056">
        <ele>1239.6</ele>
        <time>2024-08-09T08:51:55Z</time>
      </trkpt>
      <trkpt lat="45.06309" lon="6.05059">
        <ele>1239.8</ele>
        <time>2024-08-09T08:51:56Z</time>
      </trkpt>
      <trkpt lat="45.06307" lon="6.0506">
        <ele>1240</ele>
        <time>2024-08-09T08:51:57Z</time>
      </trkpt>
      <trkpt lat="45.06305" lon="6.05062">
        <ele>1240.2</ele>
        <time>2024-08-09T08:51:58Z</time>
      </trkpt>
      <trkpt lat="45.06305" lon="6.05062">
        <ele>1240.4</ele>
        <time>2024-08-09T08:51:59Z</time>
      </trkpt>
      <trkpt lat="45.06302" lon="6.05063">
        <ele>1240.6</ele>
        <time>2024-08-09T08:52:00Z</time>
      </trkpt>
      <trkpt lat="45.06302" lon="6.05063">
        <ele>1241</ele>
        <time>2024-08-09T08:52:01Z</time>
      </trkpt>
      <trkpt lat="45.06299" lon="6.05064">
        <ele>1241</ele>
        <time>2024-08-09T08:52:02Z</time>
      </trkpt>
      <trkpt lat="45.06298" lon="6.05065">
        <ele>1241</ele>
        <time>2024-08-09T08:52:03Z</time>
      </trkpt>
      <trkpt lat="45.06298" lon="6.05065">
        <ele>1241.4</ele>
        <time>2024-08-09T08:52:04Z</time>
      </trkpt>
      <trkpt lat="45.06295" lon="6.05067">
        <ele>1241.4</ele>
        <time>2024-08-09T08:52:05Z</time>
      </trkpt>
      <trkpt lat="45.06295" lon="6.05067">
        <ele>1241.6</ele>
        <time>2024-08-09T08:52:06Z</time>
      </trkpt>
      <trkpt lat="45.06293" lon="6.0507">
        <ele>1241.8</ele>
        <time>2024-08-09T08:52:07Z</time>
      </trkpt>
      <trkpt lat="45.06293" lon="6.0507">
        <ele>1242</ele>
        <time>2024-08-09T08:52:08Z</time>
      </trkpt>
      <trkpt lat="45.06293" lon="6.0507">
        <ele>1242.4</ele>
        <time>2024-08-09T08:52:09Z</time>
      </trkpt>
      <trkpt lat="45.06292" lon="6.0507">
        <ele>1242.8</ele>
        <time>2024-08-09T08:52:10Z</time>
      </trkpt>
      <trkpt lat="45.06292" lon="6.0507">
        <ele>1242.8</ele>
        <time>2024-08-09T08:52:11Z</time>
      </trkpt>
      <trkpt lat="45.06292" lon="6.0507">
        <ele>1242.8</ele>
        <time>2024-08-09T08:52:12Z</time>
      </trkpt>
      <trkpt lat="45.0629" lon="6.05071">
        <ele>1242.8</ele>
        <time>2024-08-09T08:52:13Z</time>
      </trkpt>
      <trkpt lat="45.0629" lon="6.05071">
        <ele>1243</ele>
        <time>2024-08-09T08:52:14Z</time>
      </trkpt>
      <trkpt lat="45.0629" lon="6.05071">
        <ele>1243.2</ele>
        <time>2024-08-09T08:52:15Z</time>
      </trkpt>
      <trkpt lat="45.06291" lon="6.05075">
        <ele>1243.4</ele>
        <time>2024-08-09T08:52:16Z</time>
      </trkpt>
      <trkpt lat="45.06291" lon="6.05075">
        <ele>1243.6</ele>
        <time>2024-08-09T08:52:17Z</time>
      </trkpt>
      <trkpt lat="45.06292" lon="6.05077">
        <ele>1244</ele>
        <time>2024-08-09T08:52:18Z</time>
      </trkpt>
      <trkpt lat="45.06292" lon="6.05077">
        <ele>1244.2</ele>
        <time>2024-08-09T08:52:19Z</time>
      </trkpt>
      <trkpt lat="45.06292" lon="6.05077">
        <ele>1244.6</ele>
        <time>2024-08-09T08:52:20Z</time>
      </trkpt>
      <trkpt lat="45.06294" lon="6.05078">
        <ele>1244.8</ele>
        <time>2024-08-09T08:52:21Z</time>
      </trkpt>
      <trkpt lat="45.06294" lon="6.05078">
        <ele>1245</ele>
        <time>2024-08-09T08:52:22Z</time>
      </trkpt>
      <trkpt lat="45.06296" lon="6.05078">
        <ele>1245.2</ele>
        <time>2024-08-09T08:52:23Z</time>
      </trkpt>
      <trkpt lat="45.06296" lon="6.05078">
        <ele>1245.6</ele>
        <time>2024-08-09T08:52:24Z</time>
      </trkpt>
      <trkpt lat="45.06298" lon="6.05079">
        <ele>1246</ele>
        <time>2024-08-09T08:52:25Z</time>
      </trkpt>
      <trkpt lat="45.06298" lon="6.05079">
        <ele>1246.2</ele>
        <time>2024-08-09T08:52:26Z</time>
      </trkpt>
      <trkpt lat="45.06299" lon="6.05081">
        <ele>1246.2</ele>
        <time>2024-08-09T08:52:27Z</time>
      </trkpt>
      <trkpt lat="45.06299" lon="6.05081">
        <ele>1246.2</ele>
        <time>2024-08-09T08:52:28Z</time>
      </trkpt>
      <trkpt lat="45.06299" lon="6.05081">
        <ele>1246.4</ele>
        <time>2024-08-09T08:52:29Z</time>
      </trkpt>
      <trkpt lat="45.06301" lon="6.05082">
        <ele>1246.6</ele>
        <time>2024-08-09T08:52:30Z</time>
      </trkpt>
      <trkpt lat="45.06301" lon="6.05082">
        <ele>1247</ele>
        <time>2024-08-09T08:52:31Z</time>
      </trkpt>
      <trkpt lat="45.06301" lon="6.05085">
        <ele>1247</ele>
        <time>2024-08-09T08:52:32Z</time>
      </trkpt>
      <trkpt lat="45.06301" lon="6.05085">
        <ele>1247.4</ele>
        <time>2024-08-09T08:52:33Z</time>
      </trkpt>
      <trkpt lat="45.06303" lon="6.05087">
        <ele>1247.4</ele>
        <time>2024-08-09T08:52:34Z</time>
      </trkpt>
      <trkpt lat="45.06303" lon="6.05087">
        <ele>1248</ele>
        <time>2024-08-09T08:52:35Z</time>
      </trkpt>
      <trkpt lat="45.06303" lon="6.05087">
        <ele>1248</ele>
        <time>2024-08-09T08:52:36Z</time>
      </trkpt>
      <trkpt lat="45.06304" lon="6.05089">
        <ele>1248.2</ele>
        <time>2024-08-09T08:52:37Z</time>
      </trkpt>
      <trkpt lat="45.06304" lon="6.05089">
        <ele>1248.4</ele>
        <time>2024-08-09T08:52:38Z</time>
      </trkpt>
      <trkpt lat="45.06304" lon="6.05089">
        <ele>1248.6</ele>
        <time>2024-08-09T08:52:39Z</time>
      </trkpt>
      <trkpt lat="45.06304" lon="6.05089">
        <ele>1248.8</ele>
        <time>2024-08-09T08:52:40Z</time>
      </trkpt>
      <trkpt lat="45.06304" lon="6.05089">
        <ele>1249.2</ele>
        <time>2024-08-09T08:52:41Z</time>
      </trkpt>
      <trkpt lat="45.06307" lon="6.05092">
        <ele>1249.2</ele>
        <time>2024-08-09T08:52:42Z</time>
      </trkpt>
      <trkpt lat="45.06307" lon="6.05092">
        <ele>1249.4</ele>
        <time>2024-08-09T08:52:43Z</time>
      </trkpt>
      <trkpt lat="45.06307" lon="6.05092">
        <ele>1249.6</ele>
        <time>2024-08-09T08:52:44Z</time>
      </trkpt>
      <trkpt lat="45.06309" lon="6.05095">
        <ele>1249.8</ele>
        <time>2024-08-09T08:52:45Z</time>
      </trkpt>
      <trkpt lat="45.06309" lon="6.05095">
        <ele>1250.2</ele>
        <time>2024-08-09T08:52:46Z</time>
      </trkpt>
      <trkpt lat="45.06309" lon="6.05095">
        <ele>1250.2</ele>
        <time>2024-08-09T08:52:47Z</time>
      </trkpt>
      <trkpt lat="45.06311" lon="6.05097">
        <ele>1250.8</ele>
        <time>2024-08-09T08:52:48Z</time>
      </trkpt>
      <trkpt lat="45.06311" lon="6.05097">
        <ele>1250.8</ele>
        <time>2024-08-09T08:52:49Z</time>
      </trkpt>
      <trkpt lat="45.06313" lon="6.05098">
        <ele>1251</ele>
        <time>2024-08-09T08:52:50Z</time>
      </trkpt>
      <trkpt lat="45.06313" lon="6.05098">
        <ele>1251.2</ele>
        <time>2024-08-09T08:52:51Z</time>
      </trkpt>
      <trkpt lat="45.06313" lon="6.05098">
        <ele>1251.6</ele>
        <time>2024-08-09T08:52:52Z</time>
      </trkpt>
      <trkpt lat="45.06315" lon="6.051">
        <ele>1251.8</ele>
        <time>2024-08-09T08:52:53Z</time>
      </trkpt>
      <trkpt lat="45.06315" lon="6.051">
        <ele>1251.8</ele>
        <time>2024-08-09T08:52:54Z</time>
      </trkpt>
      <trkpt lat="45.06315" lon="6.051">
        <ele>1252</ele>
        <time>2024-08-09T08:52:55Z</time>
      </trkpt>
      <trkpt lat="45.06316" lon="6.05102">
        <ele>1252.2</ele>
        <time>2024-08-09T08:52:56Z</time>
      </trkpt>
      <trkpt lat="45.06316" lon="6.05102">
        <ele>1252.4</ele>
        <time>2024-08-09T08:52:57Z</time>
      </trkpt>
      <trkpt lat="45.06316" lon="6.05102">
        <ele>1252.6</ele>
        <time>2024-08-09T08:52:58Z</time>
      </trkpt>
      <trkpt lat="45.06317" lon="6.05104">
        <ele>1252.8</ele>
        <time>2024-08-09T08:52:59Z</time>
      </trkpt>
      <trkpt lat="45.06317" lon="6.05104">
        <ele>1253</ele>
        <time>2024-08-09T08:53:00Z</time>
      </trkpt>
      <trkpt lat="45.06317" lon="6.05104">
        <ele>1253.2</ele>
        <time>2024-08-09T08:53:01Z</time>
      </trkpt>
      <trkpt lat="45.06319" lon="6.05106">
        <ele>1253.2</ele>
        <time>2024-08-09T08:53:02Z</time>
      </trkpt>
      <trkpt lat="45.06319" lon="6.05106">
        <ele>1253.6</ele>
        <time>2024-08-09T08:53:03Z</time>
      </trkpt>
      <trkpt lat="45.06318" lon="6.05109">
        <ele>1253.6</ele>
        <time>2024-08-09T08:53:04Z</time>
      </trkpt>
      <trkpt lat="45.06318" lon="6.05109">
        <ele>1253.8</ele>
        <time>2024-08-09T08:53:05Z</time>
      </trkpt>
      <trkpt lat="45.06318" lon="6.05109">
        <ele>1254.2</ele>
        <time>2024-08-09T08:53:06Z</time>
      </trkpt>
      <trkpt lat="45.06318" lon="6.05109">
        <ele>1254.4</ele>
        <time>2024-08-09T08:53:07Z</time>
      </trkpt>
      <trkpt lat="45.06316" lon="6.05109">
        <ele>1254.6</ele>
        <time>2024-08-09T08:53:08Z</time>
      </trkpt>
      <trkpt lat="45.06316" lon="6.05109">
        <ele>1254.8</ele>
        <time>2024-08-09T08:53:09Z</time>
      </trkpt>
      <trkpt lat="45.06316" lon="6.05109">
        <ele>1255</ele>
        <time>2024-08-09T08:53:10Z</time>
      </trkpt>
      <trkpt lat="45.06313" lon="6.05107">
        <ele>1255.2</ele>
        <time>2024-08-09T08:53:11Z</time>
      </trkpt>
      <trkpt lat="45.06313" lon="6.05107">
        <ele>1255.4</ele>
        <time>2024-08-09T08:53:12Z</time>
      </trkpt>
      <trkpt lat="45.06313" lon="6.05107">
        <ele>1255.6</ele>
        <time>2024-08-09T08:53:13Z</time>
      </trkpt>
      <trkpt lat="45.06313" lon="6.05107">
        <ele>1255.6</ele>
        <time>2024-08-09T08:53:14Z</time>
      </trkpt>
      <trkpt lat="45.06311" lon="6.05107">
        <ele>1255.6</ele>
        <time>2024-08-09T08:53:15Z</time>
      </trkpt>
      <trkpt lat="45.06311" lon="6.05107">
        <ele>1256</ele>
        <time>2024-08-09T08:53:16Z</time>
      </trkpt>
      <trkpt lat="45.06309" lon="6.05107">
        <ele>1256.4</ele>
        <time>2024-08-09T08:53:17Z</time>
      </trkpt>
      <trkpt lat="45.06308" lon="6.05108">
        <ele>1256.4</ele>
        <time>2024-08-09T08:53:18Z</time>
      </trkpt>
      <trkpt lat="45.06306" lon="6.05109">
        <ele>1256.8</ele>
        <time>2024-08-09T08:53:19Z</time>
      </trkpt>
      <trkpt lat="45.06306" lon="6.05109">
        <ele>1257.2</ele>
        <time>2024-08-09T08:53:20Z</time>
      </trkpt>
      <trkpt lat="45.06304" lon="6.05112">
        <ele>1257.2</ele>
        <time>2024-08-09T08:53:21Z</time>
      </trkpt>
      <trkpt lat="45.06304" lon="6.05112">
        <ele>1257.2</ele>
        <time>2024-08-09T08:53:22Z</time>
      </trkpt>
      <trkpt lat="45.06304" lon="6.05112">
        <ele>1257.2</ele>
        <time>2024-08-09T08:53:23Z</time>
      </trkpt>
      <trkpt lat="45.06306" lon="6.05114">
        <ele>1257.2</ele>
        <time>2024-08-09T08:53:24Z</time>
      </trkpt>
      <trkpt lat="45.06306" lon="6.05114">
        <ele>1257.6</ele>
        <time>2024-08-09T08:53:25Z</time>
      </trkpt>
      <trkpt lat="45.06306" lon="6.05114">
        <ele>1258</ele>
        <time>2024-08-09T08:53:26Z</time>
      </trkpt>
      <trkpt lat="45.06306" lon="6.05114">
        <ele>1258.4</ele>
        <time>2024-08-09T08:53:27Z</time>
      </trkpt>
      <trkpt lat="45.06306" lon="6.05117">
        <ele>1258.6</ele>
        <time>2024-08-09T08:53:28Z</time>
      </trkpt>
      <trkpt lat="45.06306" lon="6.05117">
        <ele>1258.6</ele>
        <time>2024-08-09T08:53:29Z</time>
      </trkpt>
      <trkpt lat="45.06307" lon="6.05119">
        <ele>1258.8</ele>
        <time>2024-08-09T08:53:30Z</time>
      </trkpt>
      <trkpt lat="45.06307" lon="6.05119">
        <ele>1259.2</ele>
        <time>2024-08-09T08:53:31Z</time>
      </trkpt>
      <trkpt lat="45.06307" lon="6.05119">
        <ele>1259.6</ele>
        <time>2024-08-09T08:53:32Z</time>
      </trkpt>
      <trkpt lat="45.06307" lon="6.05123">
        <ele>1259.6</ele>
        <time>2024-08-09T08:53:33Z</time>
      </trkpt>
      <trkpt lat="45.06307" lon="6.05123">
        <ele>1259.8</ele>
        <time>2024-08-09T08:53:34Z</time>
      </trkpt>
      <trkpt lat="45.06307" lon="6.05123">
        <ele>1260</ele>
        <time>2024-08-09T08:53:35Z</time>
      </trkpt>
      <trkpt lat="45.06307" lon="6.05123">
        <ele>1260.2</ele>
        <time>2024-08-09T08:53:36Z</time>
      </trkpt>
      <trkpt lat="45.06308" lon="6.05125">
        <ele>1260.4</ele>
        <time>2024-08-09T08:53:37Z</time>
      </trkpt>
      <trkpt lat="45.06308" lon="6.05125">
        <ele>1260.6</ele>
        <time>2024-08-09T08:53:38Z</time>
      </trkpt>
      <trkpt lat="45.0631" lon="6.05127">
        <ele>1260.8</ele>
        <time>2024-08-09T08:53:39Z</time>
      </trkpt>
      <trkpt lat="45.0631" lon="6.05127">
        <ele>1261</ele>
        <time>2024-08-09T08:53:40Z</time>
      </trkpt>
      <trkpt lat="45.0631" lon="6.05127">
        <ele>1261.2</ele>
        <time>2024-08-09T08:53:41Z</time>
      </trkpt>
      <trkpt lat="45.06311" lon="6.0513">
        <ele>1261.6</ele>
        <time>2024-08-09T08:53:42Z</time>
      </trkpt>
      <trkpt lat="45.06311" lon="6.0513">
        <ele>1261.8</ele>
        <time>2024-08-09T08:53:43Z</time>
      </trkpt>
      <trkpt lat="45.06311" lon="6.0513">
        <ele>1261.8</ele>
        <time>2024-08-09T08:53:44Z</time>
      </trkpt>
      <trkpt lat="45.06311" lon="6.0513">
        <ele>1262.2</ele>
        <time>2024-08-09T08:53:45Z</time>
      </trkpt>
      <trkpt lat="45.06312" lon="6.05133">
        <ele>1262.6</ele>
        <time>2024-08-09T08:53:46Z</time>
      </trkpt>
      <trkpt lat="45.06312" lon="6.05133">
        <ele>1263</ele>
        <time>2024-08-09T08:53:47Z</time>
      </trkpt>
      <trkpt lat="45.06312" lon="6.05133">
        <ele>1263</ele>
        <time>2024-08-09T08:53:48Z</time>
      </trkpt>
      <trkpt lat="45.06313" lon="6.05136">
        <ele>1263</ele>
        <time>2024-08-09T08:53:49Z</time>
      </trkpt>
      <trkpt lat="45.06313" lon="6.05136">
        <ele>1263</ele>
        <time>2024-08-09T08:53:50Z</time>
      </trkpt>
      <trkpt lat="45.06313" lon="6.05136">
        <ele>1263.8</ele>
        <time>2024-08-09T08:53:51Z</time>
      </trkpt>
      <trkpt lat="45.06313" lon="6.05136">
        <ele>1263.8</ele>
        <time>2024-08-09T08:53:52Z</time>
      </trkpt>
      <trkpt lat="45.06313" lon="6.05139">
        <ele>1263.8</ele>
        <time>2024-08-09T08:53:53Z</time>
      </trkpt>
      <trkpt lat="45.06313" lon="6.05139">
        <ele>1264.4</ele>
        <time>2024-08-09T08:53:54Z</time>
      </trkpt>
      <trkpt lat="45.06315" lon="6.0514">
        <ele>1264.6</ele>
        <time>2024-08-09T08:53:55Z</time>
      </trkpt>
      <trkpt lat="45.06315" lon="6.0514">
        <ele>1264.8</ele>
        <time>2024-08-09T08:53:56Z</time>
      </trkpt>
      <trkpt lat="45.06315" lon="6.0514">
        <ele>1264.8</ele>
        <time>2024-08-09T08:53:57Z</time>
      </trkpt>
      <trkpt lat="45.06316" lon="6.05143">
        <ele>1264.8</ele>
        <time>2024-08-09T08:53:58Z</time>
      </trkpt>
      <trkpt lat="45.06316" lon="6.05143">
        <ele>1265.2</ele>
        <time>2024-08-09T08:53:59Z</time>
      </trkpt>
      <trkpt lat="45.06316" lon="6.05143">
        <ele>1265.6</ele>
        <time>2024-08-09T08:54:00Z</time>
      </trkpt>
      <trkpt lat="45.06317" lon="6.05145">
        <ele>1265.6</ele>
        <time>2024-08-09T08:54:01Z</time>
      </trkpt>
      <trkpt lat="45.06317" lon="6.05145">
        <ele>1266.4</ele>
        <time>2024-08-09T08:54:02Z</time>
      </trkpt>
      <trkpt lat="45.06318" lon="6.05147">
        <ele>1266.4</ele>
        <time>2024-08-09T08:54:03Z</time>
      </trkpt>
      <trkpt lat="45.06318" lon="6.05147">
        <ele>1266.4</ele>
        <time>2024-08-09T08:54:04Z</time>
      </trkpt>
      <trkpt lat="45.06318" lon="6.05147">
        <ele>1266.6</ele>
        <time>2024-08-09T08:54:05Z</time>
      </trkpt>
      <trkpt lat="45.06319" lon="6.05149">
        <ele>1266.8</ele>
        <time>2024-08-09T08:54:06Z</time>
      </trkpt>
      <trkpt lat="45.06319" lon="6.05149">
        <ele>1267</ele>
        <time>2024-08-09T08:54:07Z</time>
      </trkpt>
      <trkpt lat="45.06319" lon="6.05149">
        <ele>1267.2</ele>
        <time>2024-08-09T08:54:08Z</time>
      </trkpt>
      <trkpt lat="45.06321" lon="6.05151">
        <ele>1267.8</ele>
        <time>2024-08-09T08:54:09Z</time>
      </trkpt>
      <trkpt lat="45.06321" lon="6.05151">
        <ele>1267.8</ele>
        <time>2024-08-09T08:54:10Z</time>
      </trkpt>
      <trkpt lat="45.06321" lon="6.05151">
        <ele>1268</ele>
        <time>2024-08-09T08:54:11Z</time>
      </trkpt>
      <trkpt lat="45.06321" lon="6.05154">
        <ele>1268.6</ele>
        <time>2024-08-09T08:54:12Z</time>
      </trkpt>
      <trkpt lat="45.06321" lon="6.05154">
        <ele>1268.6</ele>
        <time>2024-08-09T08:54:13Z</time>
      </trkpt>
      <trkpt lat="45.06321" lon="6.05154">
        <ele>1268.6</ele>
        <time>2024-08-09T08:54:14Z</time>
      </trkpt>
      <trkpt lat="45.06321" lon="6.05154">
        <ele>1268.8</ele>
        <time>2024-08-09T08:54:15Z</time>
      </trkpt>
      <trkpt lat="45.06319" lon="6.05155">
        <ele>1269</ele>
        <time>2024-08-09T08:54:16Z</time>
      </trkpt>
      <trkpt lat="45.06319" lon="6.05155">
        <ele>1269.4</ele>
        <time>2024-08-09T08:54:17Z</time>
      </trkpt>
      <trkpt lat="45.06319" lon="6.05155">
        <ele>1269.4</ele>
        <time>2024-08-09T08:54:18Z</time>
      </trkpt>
      <trkpt lat="45.06317" lon="6.05156">
        <ele>1269.4</ele>
        <time>2024-08-09T08:54:19Z</time>
      </trkpt>
      <trkpt lat="45.06317" lon="6.05156">
        <ele>1269.4</ele>
        <time>2024-08-09T08:54:20Z</time>
      </trkpt>
      <trkpt lat="45.06315" lon="6.05155">
        <ele>1269.4</ele>
        <time>2024-08-09T08:54:21Z</time>
      </trkpt>
      <trkpt lat="45.06313" lon="6.05155">
        <ele>1269.4</ele>
        <time>2024-08-09T08:54:22Z</time>
      </trkpt>
      <trkpt lat="45.06313" lon="6.05155">
        <ele>1269.4</ele>
        <time>2024-08-09T08:54:23Z</time>
      </trkpt>
      <trkpt lat="45.06313" lon="6.05155">
        <ele>1269.6</ele>
        <time>2024-08-09T08:54:24Z</time>
      </trkpt>
      <trkpt lat="45.06313" lon="6.05155">
        <ele>1269.6</ele>
        <time>2024-08-09T08:54:25Z</time>
      </trkpt>
      <trkpt lat="45.06313" lon="6.05155">
        <ele>1269.4</ele>
        <time>2024-08-09T08:54:26Z</time>
      </trkpt>
      <trkpt lat="45.06313" lon="6.05155">
        <ele>1269.4</ele>
        <time>2024-08-09T08:54:27Z</time>
      </trkpt>
      <trkpt lat="45.06311" lon="6.05157">
        <ele>1269.8</ele>
        <time>2024-08-09T08:54:28Z</time>
      </trkpt>
      <trkpt lat="45.06311" lon="6.05157">
        <ele>1270</ele>
        <time>2024-08-09T08:54:29Z</time>
      </trkpt>
      <trkpt lat="45.06312" lon="6.0516">
        <ele>1270</ele>
        <time>2024-08-09T08:54:30Z</time>
      </trkpt>
      <trkpt lat="45.06312" lon="6.0516">
        <ele>1270.2</ele>
        <time>2024-08-09T08:54:31Z</time>
      </trkpt>
      <trkpt lat="45.06313" lon="6.05163">
        <ele>1270.6</ele>
        <time>2024-08-09T08:54:32Z</time>
      </trkpt>
      <trkpt lat="45.06313" lon="6.05163">
        <ele>1270.6</ele>
        <time>2024-08-09T08:54:33Z</time>
      </trkpt>
      <trkpt lat="45.06315" lon="6.05166">
        <ele>1271</ele>
        <time>2024-08-09T08:54:34Z</time>
      </trkpt>
      <trkpt lat="45.06315" lon="6.05166">
        <ele>1271.4</ele>
        <time>2024-08-09T08:54:35Z</time>
      </trkpt>
      <trkpt lat="45.06316" lon="6.05168">
        <ele>1271.6</ele>
        <time>2024-08-09T08:54:36Z</time>
      </trkpt>
      <trkpt lat="45.06316" lon="6.05168">
        <ele>1271.8</ele>
        <time>2024-08-09T08:54:37Z</time>
      </trkpt>
      <trkpt lat="45.06316" lon="6.05168">
        <ele>1272.2</ele>
        <time>2024-08-09T08:54:38Z</time>
      </trkpt>
      <trkpt lat="45.06317" lon="6.05171">
        <ele>1272.2</ele>
        <time>2024-08-09T08:54:39Z</time>
      </trkpt>
      <trkpt lat="45.06317" lon="6.05171">
        <ele>1272.4</ele>
        <time>2024-08-09T08:54:40Z</time>
      </trkpt>
      <trkpt lat="45.06317" lon="6.05171">
        <ele>1272.4</ele>
        <time>2024-08-09T08:54:41Z</time>
      </trkpt>
      <trkpt lat="45.06319" lon="6.05174">
        <ele>1272.4</ele>
        <time>2024-08-09T08:54:42Z</time>
      </trkpt>
      <trkpt lat="45.06319" lon="6.05174">
        <ele>1272.6</ele>
        <time>2024-08-09T08:54:43Z</time>
      </trkpt>
      <trkpt lat="45.06319" lon="6.05174">
        <ele>1273</ele>
        <time>2024-08-09T08:54:44Z</time>
      </trkpt>
      <trkpt lat="45.06319" lon="6.05174">
        <ele>1273</ele>
        <time>2024-08-09T08:54:45Z</time>
      </trkpt>
      <trkpt lat="45.06321" lon="6.05175">
        <ele>1273.2</ele>
        <time>2024-08-09T08:54:46Z</time>
      </trkpt>
      <trkpt lat="45.06321" lon="6.05175">
        <ele>1273.6</ele>
        <time>2024-08-09T08:54:47Z</time>
      </trkpt>
      <trkpt lat="45.06321" lon="6.05175">
        <ele>1273.8</ele>
        <time>2024-08-09T08:54:48Z</time>
      </trkpt>
      <trkpt lat="45.06324" lon="6.05176">
        <ele>1274</ele>
        <time>2024-08-09T08:54:49Z</time>
      </trkpt>
      <trkpt lat="45.06324" lon="6.05176">
        <ele>1274.4</ele>
        <time>2024-08-09T08:54:50Z</time>
      </trkpt>
      <trkpt lat="45.06324" lon="6.05176">
        <ele>1274.6</ele>
        <time>2024-08-09T08:54:51Z</time>
      </trkpt>
      <trkpt lat="45.06325" lon="6.05178">
        <ele>1274.8</ele>
        <time>2024-08-09T08:54:52Z</time>
      </trkpt>
      <trkpt lat="45.06325" lon="6.05178">
        <ele>1275.2</ele>
        <time>2024-08-09T08:54:53Z</time>
      </trkpt>
      <trkpt lat="45.06327" lon="6.0518">
        <ele>1275.4</ele>
        <time>2024-08-09T08:54:54Z</time>
      </trkpt>
      <trkpt lat="45.06327" lon="6.0518">
        <ele>1275.6</ele>
        <time>2024-08-09T08:54:55Z</time>
      </trkpt>
      <trkpt lat="45.06327" lon="6.0518">
        <ele>1275.8</ele>
        <time>2024-08-09T08:54:56Z</time>
      </trkpt>
      <trkpt lat="45.06329" lon="6.05183">
        <ele>1275.8</ele>
        <time>2024-08-09T08:54:57Z</time>
      </trkpt>
      <trkpt lat="45.06329" lon="6.05183">
        <ele>1276</ele>
        <time>2024-08-09T08:54:58Z</time>
      </trkpt>
      <trkpt lat="45.06329" lon="6.05183">
        <ele>1276</ele>
        <time>2024-08-09T08:54:59Z</time>
      </trkpt>
      <trkpt lat="45.06331" lon="6.05185">
        <ele>1276.2</ele>
        <time>2024-08-09T08:55:00Z</time>
      </trkpt>
      <trkpt lat="45.06331" lon="6.05185">
        <ele>1276.4</ele>
        <time>2024-08-09T08:55:01Z</time>
      </trkpt>
      <trkpt lat="45.06331" lon="6.05185">
        <ele>1276.8</ele>
        <time>2024-08-09T08:55:02Z</time>
      </trkpt>
      <trkpt lat="45.06332" lon="6.05187">
        <ele>1276.8</ele>
        <time>2024-08-09T08:55:03Z</time>
      </trkpt>
      <trkpt lat="45.06332" lon="6.05187">
        <ele>1276.8</ele>
        <time>2024-08-09T08:55:04Z</time>
      </trkpt>
      <trkpt lat="45.06332" lon="6.05187">
        <ele>1277.2</ele>
        <time>2024-08-09T08:55:05Z</time>
      </trkpt>
      <trkpt lat="45.06333" lon="6.05189">
        <ele>1277.4</ele>
        <time>2024-08-09T08:55:06Z</time>
      </trkpt>
      <trkpt lat="45.06333" lon="6.05189">
        <ele>1277.4</ele>
        <time>2024-08-09T08:55:07Z</time>
      </trkpt>
      <trkpt lat="45.06333" lon="6.05189">
        <ele>1277.6</ele>
        <time>2024-08-09T08:55:08Z</time>
      </trkpt>
      <trkpt lat="45.06335" lon="6.05192">
        <ele>1277.8</ele>
        <time>2024-08-09T08:55:09Z</time>
      </trkpt>
      <trkpt lat="45.06335" lon="6.05192">
        <ele>1278</ele>
        <time>2024-08-09T08:55:10Z</time>
      </trkpt>
      <trkpt lat="45.06335" lon="6.05192">
        <ele>1278.4</ele>
        <time>2024-08-09T08:55:11Z</time>
      </trkpt>
      <trkpt lat="45.06335" lon="6.05195">
        <ele>1278.6</ele>
        <time>2024-08-09T08:55:12Z</time>
      </trkpt>
      <trkpt lat="45.06335" lon="6.05195">
        <ele>1278.6</ele>
        <time>2024-08-09T08:55:13Z</time>
      </trkpt>
      <trkpt lat="45.06335" lon="6.05195">
        <ele>1279</ele>
        <time>2024-08-09T08:55:14Z</time>
      </trkpt>
      <trkpt lat="45.06336" lon="6.05198">
        <ele>1279.2</ele>
        <time>2024-08-09T08:55:15Z</time>
      </trkpt>
      <trkpt lat="45.06336" lon="6.05198">
        <ele>1279.6</ele>
        <time>2024-08-09T08:55:16Z</time>
      </trkpt>
      <trkpt lat="45.06337" lon="6.052">
        <ele>1279.6</ele>
        <time>2024-08-09T08:55:17Z</time>
      </trkpt>
      <trkpt lat="45.06337" lon="6.052">
        <ele>1279.8</ele>
        <time>2024-08-09T08:55:18Z</time>
      </trkpt>
      <trkpt lat="45.06337" lon="6.052">
        <ele>1280.2</ele>
        <time>2024-08-09T08:55:19Z</time>
      </trkpt>
      <trkpt lat="45.06338" lon="6.05203">
        <ele>1280.2</ele>
        <time>2024-08-09T08:55:20Z</time>
      </trkpt>
      <trkpt lat="45.06338" lon="6.05203">
        <ele>1280.4</ele>
        <time>2024-08-09T08:55:21Z</time>
      </trkpt>
      <trkpt lat="45.06338" lon="6.05203">
        <ele>1280.6</ele>
        <time>2024-08-09T08:55:22Z</time>
      </trkpt>
      <trkpt lat="45.06339" lon="6.05206">
        <ele>1280.8</ele>
        <time>2024-08-09T08:55:23Z</time>
      </trkpt>
      <trkpt lat="45.06339" lon="6.05206">
        <ele>1281</ele>
        <time>2024-08-09T08:55:24Z</time>
      </trkpt>
      <trkpt lat="45.06341" lon="6.05208">
        <ele>1281.4</ele>
        <time>2024-08-09T08:55:25Z</time>
      </trkpt>
      <trkpt lat="45.06341" lon="6.05208">
        <ele>1281.6</ele>
        <time>2024-08-09T08:55:26Z</time>
      </trkpt>
      <trkpt lat="45.06341" lon="6.05208">
        <ele>1281.6</ele>
        <time>2024-08-09T08:55:27Z</time>
      </trkpt>
      <trkpt lat="45.06342" lon="6.05209">
        <ele>1281.8</ele>
        <time>2024-08-09T08:55:28Z</time>
      </trkpt>
      <trkpt lat="45.06342" lon="6.05209">
        <ele>1281.8</ele>
        <time>2024-08-09T08:55:29Z</time>
      </trkpt>
      <trkpt lat="45.06342" lon="6.05209">
        <ele>1282.2</ele>
        <time>2024-08-09T08:55:30Z</time>
      </trkpt>
      <trkpt lat="45.06342" lon="6.05209">
        <ele>1282.6</ele>
        <time>2024-08-09T08:55:31Z</time>
      </trkpt>
      <trkpt lat="45.06343" lon="6.05212">
        <ele>1283.2</ele>
        <time>2024-08-09T08:55:32Z</time>
      </trkpt>
      <trkpt lat="45.06343" lon="6.05212">
        <ele>1283.2</ele>
        <time>2024-08-09T08:55:33Z</time>
      </trkpt>
      <trkpt lat="45.06344" lon="6.05215">
        <ele>1283.4</ele>
        <time>2024-08-09T08:55:34Z</time>
      </trkpt>
      <trkpt lat="45.06344" lon="6.05215">
        <ele>1283.6</ele>
        <time>2024-08-09T08:55:35Z</time>
      </trkpt>
      <trkpt lat="45.06344" lon="6.05215">
        <ele>1283.6</ele>
        <time>2024-08-09T08:55:36Z</time>
      </trkpt>
      <trkpt lat="45.06345" lon="6.05218">
        <ele>1284</ele>
        <time>2024-08-09T08:55:37Z</time>
      </trkpt>
      <trkpt lat="45.06345" lon="6.05218">
        <ele>1284.2</ele>
        <time>2024-08-09T08:55:38Z</time>
      </trkpt>
      <trkpt lat="45.06345" lon="6.05218">
        <ele>1284.4</ele>
        <time>2024-08-09T08:55:39Z</time>
      </trkpt>
      <trkpt lat="45.06345" lon="6.05218">
        <ele>1284.6</ele>
        <time>2024-08-09T08:55:40Z</time>
      </trkpt>
      <trkpt lat="45.06347" lon="6.05219">
        <ele>1284.8</ele>
        <time>2024-08-09T08:55:41Z</time>
      </trkpt>
      <trkpt lat="45.06347" lon="6.05219">
        <ele>1284.8</ele>
        <time>2024-08-09T08:55:42Z</time>
      </trkpt>
      <trkpt lat="45.06348" lon="6.05221">
        <ele>1285</ele>
        <time>2024-08-09T08:55:43Z</time>
      </trkpt>
      <trkpt lat="45.06348" lon="6.05221">
        <ele>1285.2</ele>
        <time>2024-08-09T08:55:44Z</time>
      </trkpt>
      <trkpt lat="45.06348" lon="6.05221">
        <ele>1285.4</ele>
        <time>2024-08-09T08:55:45Z</time>
      </trkpt>
      <trkpt lat="45.0635" lon="6.05223">
        <ele>1285.6</ele>
        <time>2024-08-09T08:55:46Z</time>
      </trkpt>
      <trkpt lat="45.0635" lon="6.05223">
        <ele>1286</ele>
        <time>2024-08-09T08:55:47Z</time>
      </trkpt>
      <trkpt lat="45.0635" lon="6.05223">
        <ele>1286</ele>
        <time>2024-08-09T08:55:48Z</time>
      </trkpt>
      <trkpt lat="45.06352" lon="6.05225">
        <ele>1286.2</ele>
        <time>2024-08-09T08:55:49Z</time>
      </trkpt>
      <trkpt lat="45.06352" lon="6.05225">
        <ele>1286.6</ele>
        <time>2024-08-09T08:55:50Z</time>
      </trkpt>
      <trkpt lat="45.06352" lon="6.05225">
        <ele>1286.6</ele>
        <time>2024-08-09T08:55:51Z</time>
      </trkpt>
      <trkpt lat="45.06353" lon="6.05228">
        <ele>1287</ele>
        <time>2024-08-09T08:55:52Z</time>
      </trkpt>
      <trkpt lat="45.06353" lon="6.05228">
        <ele>1287.2</ele>
        <time>2024-08-09T08:55:53Z</time>
      </trkpt>
      <trkpt lat="45.06354" lon="6.0523">
        <ele>1287.2</ele>
        <time>2024-08-09T08:55:54Z</time>
      </trkpt>
      <trkpt lat="45.06354" lon="6.0523">
        <ele>1287.6</ele>
        <time>2024-08-09T08:55:55Z</time>
      </trkpt>
      <trkpt lat="45.06354" lon="6.0523">
        <ele>1287.6</ele>
        <time>2024-08-09T08:55:56Z</time>
      </trkpt>
      <trkpt lat="45.06356" lon="6.05233">
        <ele>1287.8</ele>
        <time>2024-08-09T08:55:57Z</time>
      </trkpt>
      <trkpt lat="45.06356" lon="6.05233">
        <ele>1288</ele>
        <time>2024-08-09T08:55:58Z</time>
      </trkpt>
      <trkpt lat="45.06357" lon="6.05235">
        <ele>1288.4</ele>
        <time>2024-08-09T08:55:59Z</time>
      </trkpt>
      <trkpt lat="45.06357" lon="6.05235">
        <ele>1288.6</ele>
        <time>2024-08-09T08:56:00Z</time>
      </trkpt>
      <trkpt lat="45.06357" lon="6.05235">
        <ele>1288.8</ele>
        <time>2024-08-09T08:56:01Z</time>
      </trkpt>
      <trkpt lat="45.06359" lon="6.05236">
        <ele>1289.2</ele>
        <time>2024-08-09T08:56:02Z</time>
      </trkpt>
      <trkpt lat="45.06359" lon="6.05236">
        <ele>1289.2</ele>
        <time>2024-08-09T08:56:03Z</time>
      </trkpt>
      <trkpt lat="45.06359" lon="6.05236">
        <ele>1289.2</ele>
        <time>2024-08-09T08:56:04Z</time>
      </trkpt>
      <trkpt lat="45.06359" lon="6.05236">
        <ele>1289.6</ele>
        <time>2024-08-09T08:56:05Z</time>
      </trkpt>
      <trkpt lat="45.0636" lon="6.05239">
        <ele>1289.8</ele>
        <time>2024-08-09T08:56:06Z</time>
      </trkpt>
      <trkpt lat="45.0636" lon="6.05239">
        <ele>1290</ele>
        <time>2024-08-09T08:56:07Z</time>
      </trkpt>
      <trkpt lat="45.06362" lon="6.05241">
        <ele>1290</ele>
        <time>2024-08-09T08:56:08Z</time>
      </trkpt>
      <trkpt lat="45.06362" lon="6.05241">
        <ele>1290.4</ele>
        <time>2024-08-09T08:56:09Z</time>
      </trkpt>
      <trkpt lat="45.06364" lon="6.05243">
        <ele>1290.6</ele>
        <time>2024-08-09T08:56:10Z</time>
      </trkpt>
      <trkpt lat="45.06364" lon="6.05243">
        <ele>1290.6</ele>
        <time>2024-08-09T08:56:11Z</time>
      </trkpt>
      <trkpt lat="45.06364" lon="6.05243">
        <ele>1291.2</ele>
        <time>2024-08-09T08:56:12Z</time>
      </trkpt>
      <trkpt lat="45.06364" lon="6.05243">
        <ele>1291.4</ele>
        <time>2024-08-09T08:56:13Z</time>
      </trkpt>
      <trkpt lat="45.06365" lon="6.05244">
        <ele>1291.4</ele>
        <time>2024-08-09T08:56:14Z</time>
      </trkpt>
      <trkpt lat="45.06365" lon="6.05244">
        <ele>1291.8</ele>
        <time>2024-08-09T08:56:15Z</time>
      </trkpt>
      <trkpt lat="45.06365" lon="6.05244">
        <ele>1291.8</ele>
        <time>2024-08-09T08:56:16Z</time>
      </trkpt>
      <trkpt lat="45.06367" lon="6.05246">
        <ele>1292.6</ele>
        <time>2024-08-09T08:56:17Z</time>
      </trkpt>
      <trkpt lat="45.06367" lon="6.05246">
        <ele>1292.6</ele>
        <time>2024-08-09T08:56:18Z</time>
      </trkpt>
      <trkpt lat="45.06369" lon="6.05247">
        <ele>1292.6</ele>
        <time>2024-08-09T08:56:19Z</time>
      </trkpt>
      <trkpt lat="45.06369" lon="6.05247">
        <ele>1292.6</ele>
        <time>2024-08-09T08:56:20Z</time>
      </trkpt>
      <trkpt lat="45.06372" lon="6.05248">
        <ele>1293</ele>
        <time>2024-08-09T08:56:21Z</time>
      </trkpt>
      <trkpt lat="45.06372" lon="6.05248">
        <ele>1293</ele>
        <time>2024-08-09T08:56:22Z</time>
      </trkpt>
      <trkpt lat="45.06372" lon="6.05248">
        <ele>1293.2</ele>
        <time>2024-08-09T08:56:23Z</time>
      </trkpt>
      <trkpt lat="45.06374" lon="6.0525">
        <ele>1293.4</ele>
        <time>2024-08-09T08:56:24Z</time>
      </trkpt>
      <trkpt lat="45.06374" lon="6.0525">
        <ele>1293.4</ele>
        <time>2024-08-09T08:56:25Z</time>
      </trkpt>
      <trkpt lat="45.06374" lon="6.0525">
        <ele>1293.4</ele>
        <time>2024-08-09T08:56:26Z</time>
      </trkpt>
      <trkpt lat="45.06376" lon="6.05252">
        <ele>1293.8</ele>
        <time>2024-08-09T08:56:27Z</time>
      </trkpt>
      <trkpt lat="45.06376" lon="6.05252">
        <ele>1293.8</ele>
        <time>2024-08-09T08:56:28Z</time>
      </trkpt>
      <trkpt lat="45.06376" lon="6.05252">
        <ele>1293.8</ele>
        <time>2024-08-09T08:56:29Z</time>
      </trkpt>
      <trkpt lat="45.06378" lon="6.05254">
        <ele>1294</ele>
        <time>2024-08-09T08:56:30Z</time>
      </trkpt>
      <trkpt lat="45.06378" lon="6.05254">
        <ele>1294.2</ele>
        <time>2024-08-09T08:56:31Z</time>
      </trkpt>
      <trkpt lat="45.06378" lon="6.05254">
        <ele>1294.2</ele>
        <time>2024-08-09T08:56:32Z</time>
      </trkpt>
      <trkpt lat="45.0638" lon="6.05255">
        <ele>1294.6</ele>
        <time>2024-08-09T08:56:33Z</time>
      </trkpt>
      <trkpt lat="45.0638" lon="6.05255">
        <ele>1294.8</ele>
        <time>2024-08-09T08:56:34Z</time>
      </trkpt>
      <trkpt lat="45.06382" lon="6.05257">
        <ele>1294.8</ele>
        <time>2024-08-09T08:56:35Z</time>
      </trkpt>
      <trkpt lat="45.06382" lon="6.05257">
        <ele>1295.2</ele>
        <time>2024-08-09T08:56:36Z</time>
      </trkpt>
      <trkpt lat="45.06382" lon="6.05257">
        <ele>1295.2</ele>
        <time>2024-08-09T08:56:37Z</time>
      </trkpt>
      <trkpt lat="45.06383" lon="6.05259">
        <ele>1295.4</ele>
        <time>2024-08-09T08:56:38Z</time>
      </trkpt>
      <trkpt lat="45.06383" lon="6.05259">
        <ele>1295.4</ele>
        <time>2024-08-09T08:56:39Z</time>
      </trkpt>
      <trkpt lat="45.06383" lon="6.05259">
        <ele>1296</ele>
        <time>2024-08-09T08:56:40Z</time>
      </trkpt>
      <trkpt lat="45.06385" lon="6.05261">
        <ele>1296.2</ele>
        <time>2024-08-09T08:56:41Z</time>
      </trkpt>
      <trkpt lat="45.06385" lon="6.05261">
        <ele>1296.4</ele>
        <time>2024-08-09T08:56:42Z</time>
      </trkpt>
      <trkpt lat="45.06386" lon="6.05263">
        <ele>1296.6</ele>
        <time>2024-08-09T08:56:43Z</time>
      </trkpt>
      <trkpt lat="45.06386" lon="6.05263">
        <ele>1296.8</ele>
        <time>2024-08-09T08:56:44Z</time>
      </trkpt>
      <trkpt lat="45.06386" lon="6.05263">
        <ele>1297</ele>
        <time>2024-08-09T08:56:45Z</time>
      </trkpt>
      <trkpt lat="45.06386" lon="6.05263">
        <ele>1297.4</ele>
        <time>2024-08-09T08:56:46Z</time>
      </trkpt>
      <trkpt lat="45.06388" lon="6.05266">
        <ele>1297.6</ele>
        <time>2024-08-09T08:56:47Z</time>
      </trkpt>
      <trkpt lat="45.06388" lon="6.05266">
        <ele>1297.8</ele>
        <time>2024-08-09T08:56:48Z</time>
      </trkpt>
      <trkpt lat="45.06388" lon="6.05266">
        <ele>1297.8</ele>
        <time>2024-08-09T08:56:49Z</time>
      </trkpt>
      <trkpt lat="45.0639" lon="6.05267">
        <ele>1298</ele>
        <time>2024-08-09T08:56:50Z</time>
      </trkpt>
      <trkpt lat="45.0639" lon="6.05267">
        <ele>1298.2</ele>
        <time>2024-08-09T08:56:51Z</time>
      </trkpt>
      <trkpt lat="45.0639" lon="6.05267">
        <ele>1298.6</ele>
        <time>2024-08-09T08:56:52Z</time>
      </trkpt>
      <trkpt lat="45.06392" lon="6.05269">
        <ele>1298.8</ele>
        <time>2024-08-09T08:56:53Z</time>
      </trkpt>
      <trkpt lat="45.06392" lon="6.05269">
        <ele>1298.8</ele>
        <time>2024-08-09T08:56:54Z</time>
      </trkpt>
      <trkpt lat="45.06392" lon="6.05269">
        <ele>1299.2</ele>
        <time>2024-08-09T08:56:55Z</time>
      </trkpt>
      <trkpt lat="45.06392" lon="6.05269">
        <ele>1299.2</ele>
        <time>2024-08-09T08:56:56Z</time>
      </trkpt>
      <trkpt lat="45.06394" lon="6.0527">
        <ele>1299.4</ele>
        <time>2024-08-09T08:56:57Z</time>
      </trkpt>
      <trkpt lat="45.06394" lon="6.0527">
        <ele>1300</ele>
        <time>2024-08-09T08:56:58Z</time>
      </trkpt>
      <trkpt lat="45.06394" lon="6.0527">
        <ele>1300</ele>
        <time>2024-08-09T08:56:59Z</time>
      </trkpt>
      <trkpt lat="45.06396" lon="6.05272">
        <ele>1300</ele>
        <time>2024-08-09T08:57:00Z</time>
      </trkpt>
      <trkpt lat="45.06396" lon="6.05272">
        <ele>1300.2</ele>
        <time>2024-08-09T08:57:01Z</time>
      </trkpt>
      <trkpt lat="45.06398" lon="6.05272">
        <ele>1300.8</ele>
        <time>2024-08-09T08:57:02Z</time>
      </trkpt>
      <trkpt lat="45.06398" lon="6.05272">
        <ele>1300.8</ele>
        <time>2024-08-09T08:57:03Z</time>
      </trkpt>
      <trkpt lat="45.064" lon="6.05273">
        <ele>1300.8</ele>
        <time>2024-08-09T08:57:04Z</time>
      </trkpt>
      <trkpt lat="45.064" lon="6.05273">
        <ele>1301</ele>
        <time>2024-08-09T08:57:05Z</time>
      </trkpt>
      <trkpt lat="45.06402" lon="6.05274">
        <ele>1301.4</ele>
        <time>2024-08-09T08:57:06Z</time>
      </trkpt>
      <trkpt lat="45.06402" lon="6.05274">
        <ele>1301.6</ele>
        <time>2024-08-09T08:57:07Z</time>
      </trkpt>
      <trkpt lat="45.06403" lon="6.05276">
        <ele>1302</ele>
        <time>2024-08-09T08:57:08Z</time>
      </trkpt>
      <trkpt lat="45.06403" lon="6.05276">
        <ele>1302.4</ele>
        <time>2024-08-09T08:57:09Z</time>
      </trkpt>
      <trkpt lat="45.06403" lon="6.05276">
        <ele>1302.4</ele>
        <time>2024-08-09T08:57:10Z</time>
      </trkpt>
      <trkpt lat="45.06405" lon="6.05278">
        <ele>1302.4</ele>
        <time>2024-08-09T08:57:11Z</time>
      </trkpt>
      <trkpt lat="45.06405" lon="6.05278">
        <ele>1302.6</ele>
        <time>2024-08-09T08:57:12Z</time>
      </trkpt>
      <trkpt lat="45.06405" lon="6.05278">
        <ele>1302.6</ele>
        <time>2024-08-09T08:57:13Z</time>
      </trkpt>
      <trkpt lat="45.06407" lon="6.0528">
        <ele>1303</ele>
        <time>2024-08-09T08:57:14Z</time>
      </trkpt>
      <trkpt lat="45.06407" lon="6.0528">
        <ele>1303.4</ele>
        <time>2024-08-09T08:57:15Z</time>
      </trkpt>
      <trkpt lat="45.06407" lon="6.0528">
        <ele>1303.4</ele>
        <time>2024-08-09T08:57:16Z</time>
      </trkpt>
      <trkpt lat="45.06408" lon="6.05283">
        <ele>1303.6</ele>
        <time>2024-08-09T08:57:17Z</time>
      </trkpt>
      <trkpt lat="45.06408" lon="6.05283">
        <ele>1303.8</ele>
        <time>2024-08-09T08:57:18Z</time>
      </trkpt>
      <trkpt lat="45.06408" lon="6.05283">
        <ele>1303.8</ele>
        <time>2024-08-09T08:57:19Z</time>
      </trkpt>
      <trkpt lat="45.06408" lon="6.05283">
        <ele>1304.2</ele>
        <time>2024-08-09T08:57:20Z</time>
      </trkpt>
      <trkpt lat="45.0641" lon="6.05284">
        <ele>1304.2</ele>
        <time>2024-08-09T08:57:21Z</time>
      </trkpt>
      <trkpt lat="45.0641" lon="6.05284">
        <ele>1304.4</ele>
        <time>2024-08-09T08:57:22Z</time>
      </trkpt>
      <trkpt lat="45.0641" lon="6.05284">
        <ele>1304.6</ele>
        <time>2024-08-09T08:57:23Z</time>
      </trkpt>
      <trkpt lat="45.06412" lon="6.05284">
        <ele>1304.8</ele>
        <time>2024-08-09T08:57:24Z</time>
      </trkpt>
      <trkpt lat="45.06412" lon="6.05284">
        <ele>1305.6</ele>
        <time>2024-08-09T08:57:25Z</time>
      </trkpt>
      <trkpt lat="45.06412" lon="6.05284">
        <ele>1305.6</ele>
        <time>2024-08-09T08:57:26Z</time>
      </trkpt>
      <trkpt lat="45.06414" lon="6.05285">
        <ele>1305.6</ele>
        <time>2024-08-09T08:57:27Z</time>
      </trkpt>
      <trkpt lat="45.06414" lon="6.05285">
        <ele>1306</ele>
        <time>2024-08-09T08:57:28Z</time>
      </trkpt>
      <trkpt lat="45.06414" lon="6.05285">
        <ele>1306.2</ele>
        <time>2024-08-09T08:57:29Z</time>
      </trkpt>
      <trkpt lat="45.06416" lon="6.05287">
        <ele>1306.2</ele>
        <time>2024-08-09T08:57:30Z</time>
      </trkpt>
      <trkpt lat="45.06416" lon="6.05287">
        <ele>1306.6</ele>
        <time>2024-08-09T08:57:31Z</time>
      </trkpt>
      <trkpt lat="45.06416" lon="6.05287">
        <ele>1306.8</ele>
        <time>2024-08-09T08:57:32Z</time>
      </trkpt>
      <trkpt lat="45.06419" lon="6.05289">
        <ele>1307</ele>
        <time>2024-08-09T08:57:33Z</time>
      </trkpt>
      <trkpt lat="45.06419" lon="6.05289">
        <ele>1307.2</ele>
        <time>2024-08-09T08:57:34Z</time>
      </trkpt>
      <trkpt lat="45.0642" lon="6.05291">
        <ele>1307.4</ele>
        <time>2024-08-09T08:57:35Z</time>
      </trkpt>
      <trkpt lat="45.0642" lon="6.05291">
        <ele>1307.8</ele>
        <time>2024-08-09T08:57:36Z</time>
      </trkpt>
      <trkpt lat="45.0642" lon="6.05291">
        <ele>1307.8</ele>
        <time>2024-08-09T08:57:37Z</time>
      </trkpt>
      <trkpt lat="45.06422" lon="6.05293">
        <ele>1308</ele>
        <time>2024-08-09T08:57:38Z</time>
      </trkpt>
      <trkpt lat="45.06422" lon="6.05293">
        <ele>1308.2</ele>
        <time>2024-08-09T08:57:39Z</time>
      </trkpt>
      <trkpt lat="45.06422" lon="6.05293">
        <ele>1308.6</ele>
        <time>2024-08-09T08:57:40Z</time>
      </trkpt>
      <trkpt lat="45.06424" lon="6.05295">
        <ele>1308.6</ele>
        <time>2024-08-09T08:57:41Z</time>
      </trkpt>
      <trkpt lat="45.06424" lon="6.05295">
        <ele>1308.6</ele>
        <time>2024-08-09T08:57:42Z</time>
      </trkpt>
      <trkpt lat="45.06424" lon="6.05295">
        <ele>1309</ele>
        <time>2024-08-09T08:57:43Z</time>
      </trkpt>
      <trkpt lat="45.06426" lon="6.05297">
        <ele>1309</ele>
        <time>2024-08-09T08:57:44Z</time>
      </trkpt>
      <trkpt lat="45.06426" lon="6.05297">
        <ele>1309.2</ele>
        <time>2024-08-09T08:57:45Z</time>
      </trkpt>
      <trkpt lat="45.06426" lon="6.05297">
        <ele>1309.4</ele>
        <time>2024-08-09T08:57:46Z</time>
      </trkpt>
      <trkpt lat="45.06428" lon="6.05299">
        <ele>1309.6</ele>
        <time>2024-08-09T08:57:47Z</time>
      </trkpt>
      <trkpt lat="45.06428" lon="6.05299">
        <ele>1309.8</ele>
        <time>2024-08-09T08:57:48Z</time>
      </trkpt>
      <trkpt lat="45.06428" lon="6.05299">
        <ele>1310</ele>
        <time>2024-08-09T08:57:49Z</time>
      </trkpt>
      <trkpt lat="45.06429" lon="6.05303">
        <ele>1310</ele>
        <time>2024-08-09T08:57:50Z</time>
      </trkpt>
      <trkpt lat="45.06429" lon="6.05303">
        <ele>1310.2</ele>
        <time>2024-08-09T08:57:51Z</time>
      </trkpt>
      <trkpt lat="45.0643" lon="6.05305">
        <ele>1310.2</ele>
        <time>2024-08-09T08:57:52Z</time>
      </trkpt>
      <trkpt lat="45.0643" lon="6.05305">
        <ele>1310.6</ele>
        <time>2024-08-09T08:57:53Z</time>
      </trkpt>
      <trkpt lat="45.0643" lon="6.05305">
        <ele>1310.8</ele>
        <time>2024-08-09T08:57:54Z</time>
      </trkpt>
      <trkpt lat="45.0643" lon="6.05307">
        <ele>1310.8</ele>
        <time>2024-08-09T08:57:55Z</time>
      </trkpt>
      <trkpt lat="45.0643" lon="6.05307">
        <ele>1311</ele>
        <time>2024-08-09T08:57:56Z</time>
      </trkpt>
      <trkpt lat="45.0643" lon="6.05307">
        <ele>1311.2</ele>
        <time>2024-08-09T08:57:57Z</time>
      </trkpt>
      <trkpt lat="45.0643" lon="6.05307">
        <ele>1311.6</ele>
        <time>2024-08-09T08:57:58Z</time>
      </trkpt>
      <trkpt lat="45.06432" lon="6.0531">
        <ele>1311.8</ele>
        <time>2024-08-09T08:57:59Z</time>
      </trkpt>
      <trkpt lat="45.06432" lon="6.0531">
        <ele>1312</ele>
        <time>2024-08-09T08:58:00Z</time>
      </trkpt>
      <trkpt lat="45.06433" lon="6.05313">
        <ele>1312.2</ele>
        <time>2024-08-09T08:58:01Z</time>
      </trkpt>
      <trkpt lat="45.06433" lon="6.05313">
        <ele>1312.4</ele>
        <time>2024-08-09T08:58:02Z</time>
      </trkpt>
      <trkpt lat="45.06433" lon="6.05313">
        <ele>1312.4</ele>
        <time>2024-08-09T08:58:03Z</time>
      </trkpt>
      <trkpt lat="45.06434" lon="6.05316">
        <ele>1313.2</ele>
        <time>2024-08-09T08:58:04Z</time>
      </trkpt>
      <trkpt lat="45.06434" lon="6.05316">
        <ele>1313.2</ele>
        <time>2024-08-09T08:58:05Z</time>
      </trkpt>
      <trkpt lat="45.06434" lon="6.05316">
        <ele>1313.4</ele>
        <time>2024-08-09T08:58:06Z</time>
      </trkpt>
      <trkpt lat="45.06434" lon="6.05316">
        <ele>1314</ele>
        <time>2024-08-09T08:58:07Z</time>
      </trkpt>
      <trkpt lat="45.06434" lon="6.05318">
        <ele>1314</ele>
        <time>2024-08-09T08:58:08Z</time>
      </trkpt>
      <trkpt lat="45.06434" lon="6.05318">
        <ele>1314</ele>
        <time>2024-08-09T08:58:09Z</time>
      </trkpt>
      <trkpt lat="45.06434" lon="6.05318">
        <ele>1314.2</ele>
        <time>2024-08-09T08:58:10Z</time>
      </trkpt>
      <trkpt lat="45.06434" lon="6.05322">
        <ele>1314.4</ele>
        <time>2024-08-09T08:58:11Z</time>
      </trkpt>
      <trkpt lat="45.06434" lon="6.05322">
        <ele>1314.6</ele>
        <time>2024-08-09T08:58:12Z</time>
      </trkpt>
      <trkpt lat="45.06434" lon="6.05322">
        <ele>1315</ele>
        <time>2024-08-09T08:58:13Z</time>
      </trkpt>
      <trkpt lat="45.06434" lon="6.05322">
        <ele>1315</ele>
        <time>2024-08-09T08:58:14Z</time>
      </trkpt>
      <trkpt lat="45.06435" lon="6.05326">
        <ele>1315</ele>
        <time>2024-08-09T08:58:15Z</time>
      </trkpt>
      <trkpt lat="45.06435" lon="6.05326">
        <ele>1315.4</ele>
        <time>2024-08-09T08:58:16Z</time>
      </trkpt>
      <trkpt lat="45.06435" lon="6.05326">
        <ele>1315.6</ele>
        <time>2024-08-09T08:58:17Z</time>
      </trkpt>
      <trkpt lat="45.06435" lon="6.05329">
        <ele>1315.8</ele>
        <time>2024-08-09T08:58:18Z</time>
      </trkpt>
      <trkpt lat="45.06435" lon="6.05329">
        <ele>1316.4</ele>
        <time>2024-08-09T08:58:19Z</time>
      </trkpt>
      <trkpt lat="45.06435" lon="6.05329">
        <ele>1316.4</ele>
        <time>2024-08-09T08:58:20Z</time>
      </trkpt>
      <trkpt lat="45.06434" lon="6.05332">
        <ele>1316.4</ele>
        <time>2024-08-09T08:58:21Z</time>
      </trkpt>
      <trkpt lat="45.06434" lon="6.05332">
        <ele>1316.6</ele>
        <time>2024-08-09T08:58:22Z</time>
      </trkpt>
      <trkpt lat="45.06433" lon="6.05334">
        <ele>1316.6</ele>
        <time>2024-08-09T08:58:23Z</time>
      </trkpt>
      <trkpt lat="45.06433" lon="6.05334">
        <ele>1316.8</ele>
        <time>2024-08-09T08:58:24Z</time>
      </trkpt>
      <trkpt lat="45.06433" lon="6.05334">
        <ele>1317</ele>
        <time>2024-08-09T08:58:25Z</time>
      </trkpt>
      <trkpt lat="45.06433" lon="6.05334">
        <ele>1317.4</ele>
        <time>2024-08-09T08:58:26Z</time>
      </trkpt>
      <trkpt lat="45.06432" lon="6.05337">
        <ele>1317.8</ele>
        <time>2024-08-09T08:58:27Z</time>
      </trkpt>
      <trkpt lat="45.06432" lon="6.05337">
        <ele>1318</ele>
        <time>2024-08-09T08:58:28Z</time>
      </trkpt>
      <trkpt lat="45.06432" lon="6.05337">
        <ele>1318</ele>
        <time>2024-08-09T08:58:29Z</time>
      </trkpt>
      <trkpt lat="45.0643" lon="6.05339">
        <ele>1318.2</ele>
        <time>2024-08-09T08:58:30Z</time>
      </trkpt>
      <trkpt lat="45.0643" lon="6.05339">
        <ele>1318.6</ele>
        <time>2024-08-09T08:58:31Z</time>
      </trkpt>
      <trkpt lat="45.06429" lon="6.05342">
        <ele>1318.6</ele>
        <time>2024-08-09T08:58:32Z</time>
      </trkpt>
      <trkpt lat="45.06429" lon="6.05342">
        <ele>1319</ele>
        <time>2024-08-09T08:58:33Z</time>
      </trkpt>
      <trkpt lat="45.06428" lon="6.05344">
        <ele>1319</ele>
        <time>2024-08-09T08:58:34Z</time>
      </trkpt>
      <trkpt lat="45.06428" lon="6.05344">
        <ele>1319.2</ele>
        <time>2024-08-09T08:58:35Z</time>
      </trkpt>
      <trkpt lat="45.06428" lon="6.05344">
        <ele>1319.6</ele>
        <time>2024-08-09T08:58:36Z</time>
      </trkpt>
      <trkpt lat="45.06427" lon="6.05347">
        <ele>1319.6</ele>
        <time>2024-08-09T08:58:37Z</time>
      </trkpt>
      <trkpt lat="45.06427" lon="6.05347">
        <ele>1319.8</ele>
        <time>2024-08-09T08:58:38Z</time>
      </trkpt>
      <trkpt lat="45.06427" lon="6.05347">
        <ele>1320.2</ele>
        <time>2024-08-09T08:58:39Z</time>
      </trkpt>
      <trkpt lat="45.06426" lon="6.0535">
        <ele>1320.2</ele>
        <time>2024-08-09T08:58:40Z</time>
      </trkpt>
      <trkpt lat="45.06426" lon="6.0535">
        <ele>1320.4</ele>
        <time>2024-08-09T08:58:41Z</time>
      </trkpt>
      <trkpt lat="45.06425" lon="6.05352">
        <ele>1320.4</ele>
        <time>2024-08-09T08:58:42Z</time>
      </trkpt>
      <trkpt lat="45.06425" lon="6.05352">
        <ele>1320.8</ele>
        <time>2024-08-09T08:58:43Z</time>
      </trkpt>
      <trkpt lat="45.06425" lon="6.05352">
        <ele>1321.2</ele>
        <time>2024-08-09T08:58:44Z</time>
      </trkpt>
      <trkpt lat="45.06423" lon="6.05355">
        <ele>1321.2</ele>
        <time>2024-08-09T08:58:45Z</time>
      </trkpt>
      <trkpt lat="45.06423" lon="6.05355">
        <ele>1321.4</ele>
        <time>2024-08-09T08:58:46Z</time>
      </trkpt>
      <trkpt lat="45.06423" lon="6.05355">
        <ele>1321.8</ele>
        <time>2024-08-09T08:58:47Z</time>
      </trkpt>
      <trkpt lat="45.06422" lon="6.05358">
        <ele>1322</ele>
        <time>2024-08-09T08:58:48Z</time>
      </trkpt>
      <trkpt lat="45.06422" lon="6.05358">
        <ele>1322.2</ele>
        <time>2024-08-09T08:58:49Z</time>
      </trkpt>
      <trkpt lat="45.06422" lon="6.05358">
        <ele>1322.2</ele>
        <time>2024-08-09T08:58:50Z</time>
      </trkpt>
      <trkpt lat="45.06422" lon="6.05358">
        <ele>1322.4</ele>
        <time>2024-08-09T08:58:51Z</time>
      </trkpt>
      <trkpt lat="45.06421" lon="6.0536">
        <ele>1323.2</ele>
        <time>2024-08-09T08:58:52Z</time>
      </trkpt>
      <trkpt lat="45.06421" lon="6.0536">
        <ele>1323.2</ele>
        <time>2024-08-09T08:58:53Z</time>
      </trkpt>
      <trkpt lat="45.06421" lon="6.0536">
        <ele>1323.2</ele>
        <time>2024-08-09T08:58:54Z</time>
      </trkpt>
      <trkpt lat="45.06421" lon="6.0536">
        <ele>1323.6</ele>
        <time>2024-08-09T08:58:55Z</time>
      </trkpt>
      <trkpt lat="45.06421" lon="6.0536">
        <ele>1323.6</ele>
        <time>2024-08-09T08:58:56Z</time>
      </trkpt>
      <trkpt lat="45.06421" lon="6.0536">
        <ele>1323.8</ele>
        <time>2024-08-09T08:58:57Z</time>
      </trkpt>
      <trkpt lat="45.0642" lon="6.05363">
        <ele>1324.2</ele>
        <time>2024-08-09T08:58:58Z</time>
      </trkpt>
      <trkpt lat="45.0642" lon="6.05363">
        <ele>1324.2</ele>
        <time>2024-08-09T08:58:59Z</time>
      </trkpt>
      <trkpt lat="45.0642" lon="6.05366">
        <ele>1324.2</ele>
        <time>2024-08-09T08:59:00Z</time>
      </trkpt>
      <trkpt lat="45.0642" lon="6.05366">
        <ele>1324.6</ele>
        <time>2024-08-09T08:59:01Z</time>
      </trkpt>
      <trkpt lat="45.06419" lon="6.05369">
        <ele>1324.8</ele>
        <time>2024-08-09T08:59:02Z</time>
      </trkpt>
      <trkpt lat="45.06419" lon="6.05369">
        <ele>1324.8</ele>
        <time>2024-08-09T08:59:03Z</time>
      </trkpt>
      <trkpt lat="45.06419" lon="6.05372">
        <ele>1325</ele>
        <time>2024-08-09T08:59:04Z</time>
      </trkpt>
      <trkpt lat="45.06419" lon="6.05372">
        <ele>1325.4</ele>
        <time>2024-08-09T08:59:05Z</time>
      </trkpt>
      <trkpt lat="45.06419" lon="6.05372">
        <ele>1325.4</ele>
        <time>2024-08-09T08:59:06Z</time>
      </trkpt>
      <trkpt lat="45.06419" lon="6.05372">
        <ele>1325.6</ele>
        <time>2024-08-09T08:59:07Z</time>
      </trkpt>
      <trkpt lat="45.06419" lon="6.05375">
        <ele>1326</ele>
        <time>2024-08-09T08:59:08Z</time>
      </trkpt>
      <trkpt lat="45.06419" lon="6.05375">
        <ele>1326</ele>
        <time>2024-08-09T08:59:09Z</time>
      </trkpt>
      <trkpt lat="45.06419" lon="6.05375">
        <ele>1326.4</ele>
        <time>2024-08-09T08:59:10Z</time>
      </trkpt>
      <trkpt lat="45.06419" lon="6.05377">
        <ele>1326.6</ele>
        <time>2024-08-09T08:59:11Z</time>
      </trkpt>
      <trkpt lat="45.06419" lon="6.05377">
        <ele>1326.6</ele>
        <time>2024-08-09T08:59:12Z</time>
      </trkpt>
      <trkpt lat="45.06419" lon="6.05377">
        <ele>1327</ele>
        <time>2024-08-09T08:59:13Z</time>
      </trkpt>
      <trkpt lat="45.06419" lon="6.05381">
        <ele>1327.4</ele>
        <time>2024-08-09T08:59:14Z</time>
      </trkpt>
      <trkpt lat="45.06419" lon="6.05381">
        <ele>1327.4</ele>
        <time>2024-08-09T08:59:15Z</time>
      </trkpt>
      <trkpt lat="45.06419" lon="6.05383">
        <ele>1327.4</ele>
        <time>2024-08-09T08:59:16Z</time>
      </trkpt>
      <trkpt lat="45.06419" lon="6.05383">
        <ele>1327.6</ele>
        <time>2024-08-09T08:59:17Z</time>
      </trkpt>
      <trkpt lat="45.06419" lon="6.05383">
        <ele>1328</ele>
        <time>2024-08-09T08:59:18Z</time>
      </trkpt>
      <trkpt lat="45.0642" lon="6.05387">
        <ele>1328</ele>
        <time>2024-08-09T08:59:19Z</time>
      </trkpt>
      <trkpt lat="45.0642" lon="6.05387">
        <ele>1328.2</ele>
        <time>2024-08-09T08:59:20Z</time>
      </trkpt>
      <trkpt lat="45.0642" lon="6.05387">
        <ele>1328.2</ele>
        <time>2024-08-09T08:59:21Z</time>
      </trkpt>
      <trkpt lat="45.0642" lon="6.05391">
        <ele>1328.6</ele>
        <time>2024-08-09T08:59:22Z</time>
      </trkpt>
      <trkpt lat="45.0642" lon="6.05391">
        <ele>1328.6</ele>
        <time>2024-08-09T08:59:23Z</time>
      </trkpt>
      <trkpt lat="45.06419" lon="6.05393">
        <ele>1328.8</ele>
        <time>2024-08-09T08:59:24Z</time>
      </trkpt>
      <trkpt lat="45.06419" lon="6.05393">
        <ele>1329</ele>
        <time>2024-08-09T08:59:25Z</time>
      </trkpt>
      <trkpt lat="45.06419" lon="6.05393">
        <ele>1329.6</ele>
        <time>2024-08-09T08:59:26Z</time>
      </trkpt>
      <trkpt lat="45.06417" lon="6.05396">
        <ele>1329.6</ele>
        <time>2024-08-09T08:59:27Z</time>
      </trkpt>
      <trkpt lat="45.06417" lon="6.05396">
        <ele>1329.8</ele>
        <time>2024-08-09T08:59:28Z</time>
      </trkpt>
      <trkpt lat="45.06417" lon="6.05396">
        <ele>1330</ele>
        <time>2024-08-09T08:59:29Z</time>
      </trkpt>
      <trkpt lat="45.06415" lon="6.05398">
        <ele>1330.6</ele>
        <time>2024-08-09T08:59:30Z</time>
      </trkpt>
      <trkpt lat="45.06415" lon="6.05398">
        <ele>1330.6</ele>
        <time>2024-08-09T08:59:31Z</time>
      </trkpt>
      <trkpt lat="45.06415" lon="6.05398">
        <ele>1330.8</ele>
        <time>2024-08-09T08:59:32Z</time>
      </trkpt>
      <trkpt lat="45.06413" lon="6.05401">
        <ele>1330.8</ele>
        <time>2024-08-09T08:59:33Z</time>
      </trkpt>
      <trkpt lat="45.06413" lon="6.05401">
        <ele>1331.4</ele>
        <time>2024-08-09T08:59:34Z</time>
      </trkpt>
      <trkpt lat="45.06413" lon="6.05401">
        <ele>1331.4</ele>
        <time>2024-08-09T08:59:35Z</time>
      </trkpt>
      <trkpt lat="45.06411" lon="6.05402">
        <ele>1331.8</ele>
        <time>2024-08-09T08:59:36Z</time>
      </trkpt>
      <trkpt lat="45.06411" lon="6.05402">
        <ele>1332</ele>
        <time>2024-08-09T08:59:37Z</time>
      </trkpt>
      <trkpt lat="45.06411" lon="6.05402">
        <ele>1332</ele>
        <time>2024-08-09T08:59:38Z</time>
      </trkpt>
      <trkpt lat="45.0641" lon="6.05405">
        <ele>1332.2</ele>
        <time>2024-08-09T08:59:39Z</time>
      </trkpt>
      <trkpt lat="45.0641" lon="6.05405">
        <ele>1332.4</ele>
        <time>2024-08-09T08:59:40Z</time>
      </trkpt>
      <trkpt lat="45.0641" lon="6.05405">
        <ele>1332.6</ele>
        <time>2024-08-09T08:59:41Z</time>
      </trkpt>
      <trkpt lat="45.06409" lon="6.05408">
        <ele>1332.8</ele>
        <time>2024-08-09T08:59:42Z</time>
      </trkpt>
      <trkpt lat="45.06409" lon="6.05408">
        <ele>1332.8</ele>
        <time>2024-08-09T08:59:43Z</time>
      </trkpt>
      <trkpt lat="45.06409" lon="6.05408">
        <ele>1332.8</ele>
        <time>2024-08-09T08:59:44Z</time>
      </trkpt>
      <trkpt lat="45.06408" lon="6.05412">
        <ele>1333.2</ele>
        <time>2024-08-09T08:59:45Z</time>
      </trkpt>
      <trkpt lat="45.06408" lon="6.05412">
        <ele>1333.4</ele>
        <time>2024-08-09T08:59:46Z</time>
      </trkpt>
      <trkpt lat="45.06408" lon="6.05414">
        <ele>1333.4</ele>
        <time>2024-08-09T08:59:47Z</time>
      </trkpt>
      <trkpt lat="45.06408" lon="6.05414">
        <ele>1333.8</ele>
        <time>2024-08-09T08:59:48Z</time>
      </trkpt>
      <trkpt lat="45.06408" lon="6.05414">
        <ele>1334</ele>
        <time>2024-08-09T08:59:49Z</time>
      </trkpt>
      <trkpt lat="45.06408" lon="6.05417">
        <ele>1334</ele>
        <time>2024-08-09T08:59:50Z</time>
      </trkpt>
      <trkpt lat="45.06408" lon="6.05417">
        <ele>1334.2</ele>
        <time>2024-08-09T08:59:51Z</time>
      </trkpt>
      <trkpt lat="45.06408" lon="6.05417">
        <ele>1334.8</ele>
        <time>2024-08-09T08:59:52Z</time>
      </trkpt>
      <trkpt lat="45.06408" lon="6.0542">
        <ele>1335</ele>
        <time>2024-08-09T08:59:53Z</time>
      </trkpt>
      <trkpt lat="45.06408" lon="6.0542">
        <ele>1335.4</ele>
        <time>2024-08-09T08:59:54Z</time>
      </trkpt>
      <trkpt lat="45.06408" lon="6.0542">
        <ele>1335.4</ele>
        <time>2024-08-09T08:59:55Z</time>
      </trkpt>
      <trkpt lat="45.06407" lon="6.05423">
        <ele>1335.6</ele>
        <time>2024-08-09T08:59:56Z</time>
      </trkpt>
      <trkpt lat="45.06407" lon="6.05423">
        <ele>1336</ele>
        <time>2024-08-09T08:59:57Z</time>
      </trkpt>
      <trkpt lat="45.06407" lon="6.05426">
        <ele>1336</ele>
        <time>2024-08-09T08:59:58Z</time>
      </trkpt>
      <trkpt lat="45.06407" lon="6.05426">
        <ele>1336.2</ele>
        <time>2024-08-09T08:59:59Z</time>
      </trkpt>
      <trkpt lat="45.06408" lon="6.05429">
        <ele>1336.2</ele>
        <time>2024-08-09T09:00:00Z</time>
      </trkpt>
      <trkpt lat="45.06408" lon="6.05429">
        <ele>1336.6</ele>
        <time>2024-08-09T09:00:01Z</time>
      </trkpt>
      <trkpt lat="45.06407" lon="6.05431">
        <ele>1337</ele>
        <time>2024-08-09T09:00:02Z</time>
      </trkpt>
      <trkpt lat="45.06407" lon="6.05431">
        <ele>1337</ele>
        <time>2024-08-09T09:00:03Z</time>
      </trkpt>
      <trkpt lat="45.06407" lon="6.05431">
        <ele>1337.2</ele>
        <time>2024-08-09T09:00:04Z</time>
      </trkpt>
      <trkpt lat="45.06406" lon="6.05435">
        <ele>1337.2</ele>
        <time>2024-08-09T09:00:05Z</time>
      </trkpt>
      <trkpt lat="45.06406" lon="6.05435">
        <ele>1337.2</ele>
        <time>2024-08-09T09:00:06Z</time>
      </trkpt>
      <trkpt lat="45.06406" lon="6.05435">
        <ele>1337.4</ele>
        <time>2024-08-09T09:00:07Z</time>
      </trkpt>
      <trkpt lat="45.06406" lon="6.05439">
        <ele>1337.8</ele>
        <time>2024-08-09T09:00:08Z</time>
      </trkpt>
      <trkpt lat="45.06406" lon="6.05439">
        <ele>1338.2</ele>
        <time>2024-08-09T09:00:09Z</time>
      </trkpt>
      <trkpt lat="45.06406" lon="6.05439">
        <ele>1338.2</ele>
        <time>2024-08-09T09:00:10Z</time>
      </trkpt>
      <trkpt lat="45.06406" lon="6.05442">
        <ele>1338.4</ele>
        <time>2024-08-09T09:00:11Z</time>
      </trkpt>
      <trkpt lat="45.06406" lon="6.05442">
        <ele>1338.6</ele>
        <time>2024-08-09T09:00:12Z</time>
      </trkpt>
      <trkpt lat="45.06406" lon="6.05442">
        <ele>1338.8</ele>
        <time>2024-08-09T09:00:13Z</time>
      </trkpt>
      <trkpt lat="45.06406" lon="6.05446">
        <ele>1338.8</ele>
        <time>2024-08-09T09:00:14Z</time>
      </trkpt>
      <trkpt lat="45.06406" lon="6.05446">
        <ele>1339</ele>
        <time>2024-08-09T09:00:15Z</time>
      </trkpt>
      <trkpt lat="45.06406" lon="6.0545">
        <ele>1339.4</ele>
        <time>2024-08-09T09:00:16Z</time>
      </trkpt>
      <trkpt lat="45.06406" lon="6.0545">
        <ele>1339.4</ele>
        <time>2024-08-09T09:00:17Z</time>
      </trkpt>
      <trkpt lat="45.06406" lon="6.0545">
        <ele>1339.4</ele>
        <time>2024-08-09T09:00:18Z</time>
      </trkpt>
      <trkpt lat="45.06406" lon="6.05453">
        <ele>1339.8</ele>
        <time>2024-08-09T09:00:19Z</time>
      </trkpt>
      <trkpt lat="45.06406" lon="6.05453">
        <ele>1339.8</ele>
        <time>2024-08-09T09:00:20Z</time>
      </trkpt>
      <trkpt lat="45.06406" lon="6.05453">
        <ele>1339.8</ele>
        <time>2024-08-09T09:00:21Z</time>
      </trkpt>
      <trkpt lat="45.06406" lon="6.05456">
        <ele>1340.2</ele>
        <time>2024-08-09T09:00:22Z</time>
      </trkpt>
      <trkpt lat="45.06406" lon="6.05456">
        <ele>1340.2</ele>
        <time>2024-08-09T09:00:23Z</time>
      </trkpt>
      <trkpt lat="45.06406" lon="6.05459">
        <ele>1340.4</ele>
        <time>2024-08-09T09:00:24Z</time>
      </trkpt>
      <trkpt lat="45.06406" lon="6.05459">
        <ele>1340.6</ele>
        <time>2024-08-09T09:00:25Z</time>
      </trkpt>
      <trkpt lat="45.06406" lon="6.05462">
        <ele>1340.8</ele>
        <time>2024-08-09T09:00:26Z</time>
      </trkpt>
      <trkpt lat="45.06406" lon="6.05462">
        <ele>1341</ele>
        <time>2024-08-09T09:00:27Z</time>
      </trkpt>
      <trkpt lat="45.06406" lon="6.05462">
        <ele>1341</ele>
        <time>2024-08-09T09:00:28Z</time>
      </trkpt>
      <trkpt lat="45.06407" lon="6.05466">
        <ele>1341.4</ele>
        <time>2024-08-09T09:00:29Z</time>
      </trkpt>
      <trkpt lat="45.06407" lon="6.05466">
        <ele>1341.8</ele>
        <time>2024-08-09T09:00:30Z</time>
      </trkpt>
      <trkpt lat="45.06406" lon="6.05469">
        <ele>1342</ele>
        <time>2024-08-09T09:00:31Z</time>
      </trkpt>
      <trkpt lat="45.06406" lon="6.05469">
        <ele>1342</ele>
        <time>2024-08-09T09:00:32Z</time>
      </trkpt>
      <trkpt lat="45.06406" lon="6.05469">
        <ele>1342.4</ele>
        <time>2024-08-09T09:00:33Z</time>
      </trkpt>
      <trkpt lat="45.06406" lon="6.05473">
        <ele>1342.6</ele>
        <time>2024-08-09T09:00:34Z</time>
      </trkpt>
      <trkpt lat="45.06406" lon="6.05473">
        <ele>1343</ele>
        <time>2024-08-09T09:00:35Z</time>
      </trkpt>
      <trkpt lat="45.06406" lon="6.05473">
        <ele>1343.2</ele>
        <time>2024-08-09T09:00:36Z</time>
      </trkpt>
      <trkpt lat="45.06405" lon="6.05475">
        <ele>1343.4</ele>
        <time>2024-08-09T09:00:37Z</time>
      </trkpt>
      <trkpt lat="45.06405" lon="6.05475">
        <ele>1343.6</ele>
        <time>2024-08-09T09:00:38Z</time>
      </trkpt>
      <trkpt lat="45.06406" lon="6.05478">
        <ele>1343.8</ele>
        <time>2024-08-09T09:00:39Z</time>
      </trkpt>
      <trkpt lat="45.06406" lon="6.05478">
        <ele>1344</ele>
        <time>2024-08-09T09:00:40Z</time>
      </trkpt>
      <trkpt lat="45.06406" lon="6.05478">
        <ele>1344.4</ele>
        <time>2024-08-09T09:00:41Z</time>
      </trkpt>
      <trkpt lat="45.06406" lon="6.05478">
        <ele>1344.6</ele>
        <time>2024-08-09T09:00:42Z</time>
      </trkpt>
      <trkpt lat="45.06406" lon="6.05481">
        <ele>1345</ele>
        <time>2024-08-09T09:00:43Z</time>
      </trkpt>
      <trkpt lat="45.06406" lon="6.05481">
        <ele>1345</ele>
        <time>2024-08-09T09:00:44Z</time>
      </trkpt>
      <trkpt lat="45.06406" lon="6.05481">
        <ele>1345.2</ele>
        <time>2024-08-09T09:00:45Z</time>
      </trkpt>
      <trkpt lat="45.06406" lon="6.05485">
        <ele>1345.2</ele>
        <time>2024-08-09T09:00:46Z</time>
      </trkpt>
      <trkpt lat="45.06406" lon="6.05485">
        <ele>1345.6</ele>
        <time>2024-08-09T09:00:47Z</time>
      </trkpt>
      <trkpt lat="45.06406" lon="6.05485">
        <ele>1345.8</ele>
        <time>2024-08-09T09:00:48Z</time>
      </trkpt>
      <trkpt lat="45.06405" lon="6.05488">
        <ele>1346.2</ele>
        <time>2024-08-09T09:00:49Z</time>
      </trkpt>
      <trkpt lat="45.06405" lon="6.05488">
        <ele>1346.4</ele>
        <time>2024-08-09T09:00:50Z</time>
      </trkpt>
      <trkpt lat="45.06405" lon="6.05488">
        <ele>1346.6</ele>
        <time>2024-08-09T09:00:51Z</time>
      </trkpt>
      <trkpt lat="45.06407" lon="6.0549">
        <ele>1347</ele>
        <time>2024-08-09T09:00:52Z</time>
      </trkpt>
      <trkpt lat="45.06407" lon="6.0549">
        <ele>1347.4</ele>
        <time>2024-08-09T09:00:53Z</time>
      </trkpt>
      <trkpt lat="45.06407" lon="6.0549">
        <ele>1347.4</ele>
        <time>2024-08-09T09:00:54Z</time>
      </trkpt>
      <trkpt lat="45.06408" lon="6.05492">
        <ele>1347.4</ele>
        <time>2024-08-09T09:00:55Z</time>
      </trkpt>
      <trkpt lat="45.06408" lon="6.05492">
        <ele>1347.6</ele>
        <time>2024-08-09T09:00:56Z</time>
      </trkpt>
      <trkpt lat="45.06408" lon="6.05492">
        <ele>1347.8</ele>
        <time>2024-08-09T09:00:57Z</time>
      </trkpt>
      <trkpt lat="45.0641" lon="6.05495">
        <ele>1347.8</ele>
        <time>2024-08-09T09:00:58Z</time>
      </trkpt>
      <trkpt lat="45.0641" lon="6.05495">
        <ele>1347.8</ele>
        <time>2024-08-09T09:00:59Z</time>
      </trkpt>
      <trkpt lat="45.0641" lon="6.05495">
        <ele>1348.2</ele>
        <time>2024-08-09T09:01:00Z</time>
      </trkpt>
      <trkpt lat="45.0641" lon="6.05498">
        <ele>1348.4</ele>
        <time>2024-08-09T09:01:01Z</time>
      </trkpt>
      <trkpt lat="45.0641" lon="6.05498">
        <ele>1348.6</ele>
        <time>2024-08-09T09:01:02Z</time>
      </trkpt>
      <trkpt lat="45.0641" lon="6.05498">
        <ele>1348.8</ele>
        <time>2024-08-09T09:01:03Z</time>
      </trkpt>
      <trkpt lat="45.06412" lon="6.05501">
        <ele>1349.2</ele>
        <time>2024-08-09T09:01:04Z</time>
      </trkpt>
      <trkpt lat="45.06412" lon="6.05501">
        <ele>1349.4</ele>
        <time>2024-08-09T09:01:05Z</time>
      </trkpt>
      <trkpt lat="45.06412" lon="6.05501">
        <ele>1349.4</ele>
        <time>2024-08-09T09:01:06Z</time>
      </trkpt>
      <trkpt lat="45.06413" lon="6.05504">
        <ele>1349.4</ele>
        <time>2024-08-09T09:01:07Z</time>
      </trkpt>
      <trkpt lat="45.06413" lon="6.05504">
        <ele>1349.6</ele>
        <time>2024-08-09T09:01:08Z</time>
      </trkpt>
      <trkpt lat="45.06413" lon="6.05507">
        <ele>1349.6</ele>
        <time>2024-08-09T09:01:09Z</time>
      </trkpt>
      <trkpt lat="45.06413" lon="6.05507">
        <ele>1349.8</ele>
        <time>2024-08-09T09:01:10Z</time>
      </trkpt>
      <trkpt lat="45.06414" lon="6.05509">
        <ele>1350.2</ele>
        <time>2024-08-09T09:01:11Z</time>
      </trkpt>
      <trkpt lat="45.06414" lon="6.05509">
        <ele>1350.4</ele>
        <time>2024-08-09T09:01:12Z</time>
      </trkpt>
      <trkpt lat="45.06415" lon="6.05512">
        <ele>1350.4</ele>
        <time>2024-08-09T09:01:13Z</time>
      </trkpt>
      <trkpt lat="45.06415" lon="6.05512">
        <ele>1350.8</ele>
        <time>2024-08-09T09:01:14Z</time>
      </trkpt>
      <trkpt lat="45.06415" lon="6.05512">
        <ele>1350.8</ele>
        <time>2024-08-09T09:01:15Z</time>
      </trkpt>
      <trkpt lat="45.06415" lon="6.05515">
        <ele>1351.4</ele>
        <time>2024-08-09T09:01:16Z</time>
      </trkpt>
      <trkpt lat="45.06415" lon="6.05515">
        <ele>1351.6</ele>
        <time>2024-08-09T09:01:17Z</time>
      </trkpt>
      <trkpt lat="45.06416" lon="6.05517">
        <ele>1351.6</ele>
        <time>2024-08-09T09:01:18Z</time>
      </trkpt>
      <trkpt lat="45.06416" lon="6.05517">
        <ele>1351.8</ele>
        <time>2024-08-09T09:01:19Z</time>
      </trkpt>
      <trkpt lat="45.06418" lon="6.05519">
        <ele>1352</ele>
        <time>2024-08-09T09:01:20Z</time>
      </trkpt>
      <trkpt lat="45.06418" lon="6.05519">
        <ele>1352</ele>
        <time>2024-08-09T09:01:21Z</time>
      </trkpt>
      <trkpt lat="45.06418" lon="6.05519">
        <ele>1352.4</ele>
        <time>2024-08-09T09:01:22Z</time>
      </trkpt>
      <trkpt lat="45.06419" lon="6.05522">
        <ele>1352.6</ele>
        <time>2024-08-09T09:01:23Z</time>
      </trkpt>
      <trkpt lat="45.06419" lon="6.05522">
        <ele>1352.6</ele>
        <time>2024-08-09T09:01:24Z</time>
      </trkpt>
      <trkpt lat="45.06419" lon="6.05522">
        <ele>1352.8</ele>
        <time>2024-08-09T09:01:25Z</time>
      </trkpt>
      <trkpt lat="45.0642" lon="6.05525">
        <ele>1353</ele>
        <time>2024-08-09T09:01:26Z</time>
      </trkpt>
      <trkpt lat="45.0642" lon="6.05525">
        <ele>1353</ele>
        <time>2024-08-09T09:01:27Z</time>
      </trkpt>
      <trkpt lat="45.06421" lon="6.05527">
        <ele>1353.2</ele>
        <time>2024-08-09T09:01:28Z</time>
      </trkpt>
      <trkpt lat="45.06421" lon="6.05527">
        <ele>1353.2</ele>
        <time>2024-08-09T09:01:29Z</time>
      </trkpt>
      <trkpt lat="45.06423" lon="6.05529">
        <ele>1353.4</ele>
        <time>2024-08-09T09:01:30Z</time>
      </trkpt>
      <trkpt lat="45.06423" lon="6.05529">
        <ele>1354</ele>
        <time>2024-08-09T09:01:31Z</time>
      </trkpt>
      <trkpt lat="45.06424" lon="6.05532">
        <ele>1354</ele>
        <time>2024-08-09T09:01:32Z</time>
      </trkpt>
      <trkpt lat="45.06424" lon="6.05532">
        <ele>1354.2</ele>
        <time>2024-08-09T09:01:33Z</time>
      </trkpt>
      <trkpt lat="45.06425" lon="6.05536">
        <ele>1354</ele>
        <time>2024-08-09T09:01:34Z</time>
      </trkpt>
      <trkpt lat="45.06425" lon="6.05536">
        <ele>1354</ele>
        <time>2024-08-09T09:01:35Z</time>
      </trkpt>
      <trkpt lat="45.06426" lon="6.05538">
        <ele>1354</ele>
        <time>2024-08-09T09:01:36Z</time>
      </trkpt>
      <trkpt lat="45.06426" lon="6.05538">
        <ele>1354.2</ele>
        <time>2024-08-09T09:01:37Z</time>
      </trkpt>
      <trkpt lat="45.06426" lon="6.05542">
        <ele>1354.2</ele>
        <time>2024-08-09T09:01:38Z</time>
      </trkpt>
      <trkpt lat="45.06426" lon="6.05542">
        <ele>1354.4</ele>
        <time>2024-08-09T09:01:39Z</time>
      </trkpt>
      <trkpt lat="45.06426" lon="6.05545">
        <ele>1354.6</ele>
        <time>2024-08-09T09:01:40Z</time>
      </trkpt>
      <trkpt lat="45.06426" lon="6.05545">
        <ele>1354.6</ele>
        <time>2024-08-09T09:01:41Z</time>
      </trkpt>
      <trkpt lat="45.06427" lon="6.05547">
        <ele>1354.8</ele>
        <time>2024-08-09T09:01:42Z</time>
      </trkpt>
      <trkpt lat="45.06427" lon="6.05547">
        <ele>1355</ele>
        <time>2024-08-09T09:01:43Z</time>
      </trkpt>
      <trkpt lat="45.06427" lon="6.05547">
        <ele>1355.4</ele>
        <time>2024-08-09T09:01:44Z</time>
      </trkpt>
      <trkpt lat="45.06426" lon="6.05551">
        <ele>1355.6</ele>
        <time>2024-08-09T09:01:45Z</time>
      </trkpt>
      <trkpt lat="45.06426" lon="6.05551">
        <ele>1355.6</ele>
        <time>2024-08-09T09:01:46Z</time>
      </trkpt>
      <trkpt lat="45.06426" lon="6.05551">
        <ele>1355.8</ele>
        <time>2024-08-09T09:01:47Z</time>
      </trkpt>
      <trkpt lat="45.06426" lon="6.05554">
        <ele>1355.8</ele>
        <time>2024-08-09T09:01:48Z</time>
      </trkpt>
      <trkpt lat="45.06426" lon="6.05554">
        <ele>1356.2</ele>
        <time>2024-08-09T09:01:49Z</time>
      </trkpt>
      <trkpt lat="45.06426" lon="6.05554">
        <ele>1356.2</ele>
        <time>2024-08-09T09:01:50Z</time>
      </trkpt>
      <trkpt lat="45.06426" lon="6.05558">
        <ele>1356.4</ele>
        <time>2024-08-09T09:01:51Z</time>
      </trkpt>
      <trkpt lat="45.06426" lon="6.05558">
        <ele>1356.4</ele>
        <time>2024-08-09T09:01:52Z</time>
      </trkpt>
      <trkpt lat="45.06424" lon="6.0556">
        <ele>1356.8</ele>
        <time>2024-08-09T09:01:53Z</time>
      </trkpt>
      <trkpt lat="45.06424" lon="6.0556">
        <ele>1356.8</ele>
        <time>2024-08-09T09:01:54Z</time>
      </trkpt>
      <trkpt lat="45.06424" lon="6.05563">
        <ele>1356.8</ele>
        <time>2024-08-09T09:01:55Z</time>
      </trkpt>
      <trkpt lat="45.06424" lon="6.05563">
        <ele>1356.8</ele>
        <time>2024-08-09T09:01:56Z</time>
      </trkpt>
      <trkpt lat="45.06424" lon="6.05566">
        <ele>1357.2</ele>
        <time>2024-08-09T09:01:57Z</time>
      </trkpt>
      <trkpt lat="45.06424" lon="6.05566">
        <ele>1357.2</ele>
        <time>2024-08-09T09:01:58Z</time>
      </trkpt>
      <trkpt lat="45.06424" lon="6.05569">
        <ele>1357.2</ele>
        <time>2024-08-09T09:01:59Z</time>
      </trkpt>
      <trkpt lat="45.06424" lon="6.05569">
        <ele>1357.2</ele>
        <time>2024-08-09T09:02:00Z</time>
      </trkpt>
      <trkpt lat="45.06424" lon="6.05572">
        <ele>1357.4</ele>
        <time>2024-08-09T09:02:01Z</time>
      </trkpt>
      <trkpt lat="45.06424" lon="6.05572">
        <ele>1357.6</ele>
        <time>2024-08-09T09:02:02Z</time>
      </trkpt>
      <trkpt lat="45.06424" lon="6.05572">
        <ele>1357.6</ele>
        <time>2024-08-09T09:02:03Z</time>
      </trkpt>
      <trkpt lat="45.06423" lon="6.05575">
        <ele>1357.6</ele>
        <time>2024-08-09T09:02:04Z</time>
      </trkpt>
      <trkpt lat="45.06423" lon="6.05575">
        <ele>1357.6</ele>
        <time>2024-08-09T09:02:05Z</time>
      </trkpt>
      <trkpt lat="45.06423" lon="6.05575">
        <ele>1357.8</ele>
        <time>2024-08-09T09:02:06Z</time>
      </trkpt>
      <trkpt lat="45.06424" lon="6.05578">
        <ele>1358</ele>
        <time>2024-08-09T09:02:07Z</time>
      </trkpt>
      <trkpt lat="45.06424" lon="6.05578">
        <ele>1358.2</ele>
        <time>2024-08-09T09:02:08Z</time>
      </trkpt>
      <trkpt lat="45.06424" lon="6.05582">
        <ele>1358.2</ele>
        <time>2024-08-09T09:02:09Z</time>
      </trkpt>
      <trkpt lat="45.06424" lon="6.05582">
        <ele>1358.2</ele>
        <time>2024-08-09T09:02:10Z</time>
      </trkpt>
      <trkpt lat="45.06424" lon="6.05582">
        <ele>1358.6</ele>
        <time>2024-08-09T09:02:11Z</time>
      </trkpt>
      <trkpt lat="45.06425" lon="6.05585">
        <ele>1358.6</ele>
        <time>2024-08-09T09:02:12Z</time>
      </trkpt>
      <trkpt lat="45.06425" lon="6.05585">
        <ele>1359</ele>
        <time>2024-08-09T09:02:13Z</time>
      </trkpt>
      <trkpt lat="45.06425" lon="6.05585">
        <ele>1359</ele>
        <time>2024-08-09T09:02:14Z</time>
      </trkpt>
      <trkpt lat="45.06424" lon="6.05588">
        <ele>1359</ele>
        <time>2024-08-09T09:02:15Z</time>
      </trkpt>
      <trkpt lat="45.06424" lon="6.05588">
        <ele>1359</ele>
        <time>2024-08-09T09:02:16Z</time>
      </trkpt>
      <trkpt lat="45.06424" lon="6.05588">
        <ele>1359.2</ele>
        <time>2024-08-09T09:02:17Z</time>
      </trkpt>
      <trkpt lat="45.06424" lon="6.05588">
        <ele>1359.2</ele>
        <time>2024-08-09T09:02:18Z</time>
      </trkpt>
      <trkpt lat="45.06424" lon="6.05588">
        <ele>1359.6</ele>
        <time>2024-08-09T09:02:19Z</time>
      </trkpt>
      <trkpt lat="45.06424" lon="6.05588">
        <ele>1359.8</ele>
        <time>2024-08-09T09:02:20Z</time>
      </trkpt>
      <trkpt lat="45.06424" lon="6.05588">
        <ele>1360</ele>
        <time>2024-08-09T09:02:21Z</time>
      </trkpt>
      <trkpt lat="45.06424" lon="6.05588">
        <ele>1360.2</ele>
        <time>2024-08-09T09:02:22Z</time>
      </trkpt>
      <trkpt lat="45.06424" lon="6.05588">
        <ele>1360.4</ele>
        <time>2024-08-09T09:02:23Z</time>
      </trkpt>
      <trkpt lat="45.06424" lon="6.05588">
        <ele>1360.6</ele>
        <time>2024-08-09T09:02:24Z</time>
      </trkpt>
      <trkpt lat="45.06424" lon="6.05588">
        <ele>1360.8</ele>
        <time>2024-08-09T09:02:25Z</time>
      </trkpt>
      <trkpt lat="45.06424" lon="6.05588">
        <ele>1361</ele>
        <time>2024-08-09T09:02:26Z</time>
      </trkpt>
      <trkpt lat="45.06423" lon="6.05589">
        <ele>1361.2</ele>
        <time>2024-08-09T09:02:27Z</time>
      </trkpt>
      <trkpt lat="45.06423" lon="6.05589">
        <ele>1361.4</ele>
        <time>2024-08-09T09:02:28Z</time>
      </trkpt>
      <trkpt lat="45.06423" lon="6.05589">
        <ele>1361.6</ele>
        <time>2024-08-09T09:02:29Z</time>
      </trkpt>
      <trkpt lat="45.06423" lon="6.05593">
        <ele>1362.2</ele>
        <time>2024-08-09T09:02:30Z</time>
      </trkpt>
      <trkpt lat="45.06423" lon="6.05593">
        <ele>1362.6</ele>
        <time>2024-08-09T09:02:31Z</time>
      </trkpt>
      <trkpt lat="45.06422" lon="6.05596">
        <ele>1362.8</ele>
        <time>2024-08-09T09:02:32Z</time>
      </trkpt>
      <trkpt lat="45.06422" lon="6.05596">
        <ele>1362.8</ele>
        <time>2024-08-09T09:02:33Z</time>
      </trkpt>
      <trkpt lat="45.06422" lon="6.05596">
        <ele>1363</ele>
        <time>2024-08-09T09:02:34Z</time>
      </trkpt>
      <trkpt lat="45.06422" lon="6.05599">
        <ele>1363.6</ele>
        <time>2024-08-09T09:02:35Z</time>
      </trkpt>
      <trkpt lat="45.06422" lon="6.05599">
        <ele>1363.8</ele>
        <time>2024-08-09T09:02:36Z</time>
      </trkpt>
      <trkpt lat="45.06422" lon="6.05599">
        <ele>1363.8</ele>
        <time>2024-08-09T09:02:37Z</time>
      </trkpt>
      <trkpt lat="45.06422" lon="6.05599">
        <ele>1363.8</ele>
        <time>2024-08-09T09:02:38Z</time>
      </trkpt>
      <trkpt lat="45.06421" lon="6.05601">
        <ele>1364.2</ele>
        <time>2024-08-09T09:02:39Z</time>
      </trkpt>
      <trkpt lat="45.06421" lon="6.05601">
        <ele>1364.6</ele>
        <time>2024-08-09T09:02:40Z</time>
      </trkpt>
      <trkpt lat="45.06421" lon="6.05601">
        <ele>1364.6</ele>
        <time>2024-08-09T09:02:41Z</time>
      </trkpt>
      <trkpt lat="45.06421" lon="6.05601">
        <ele>1365.2</ele>
        <time>2024-08-09T09:02:42Z</time>
      </trkpt>
      <trkpt lat="45.06421" lon="6.05601">
        <ele>1365.4</ele>
        <time>2024-08-09T09:02:43Z</time>
      </trkpt>
      <trkpt lat="45.06421" lon="6.05601">
        <ele>1365.4</ele>
        <time>2024-08-09T09:02:44Z</time>
      </trkpt>
      <trkpt lat="45.06421" lon="6.05601">
        <ele>1365.8</ele>
        <time>2024-08-09T09:02:45Z</time>
      </trkpt>
      <trkpt lat="45.06421" lon="6.05604">
        <ele>1365.8</ele>
        <time>2024-08-09T09:02:46Z</time>
      </trkpt>
      <trkpt lat="45.06421" lon="6.05604">
        <ele>1365.8</ele>
        <time>2024-08-09T09:02:47Z</time>
      </trkpt>
      <trkpt lat="45.06421" lon="6.05604">
        <ele>1366</ele>
        <time>2024-08-09T09:02:48Z</time>
      </trkpt>
      <trkpt lat="45.06421" lon="6.05604">
        <ele>1366.4</ele>
        <time>2024-08-09T09:02:49Z</time>
      </trkpt>
      <trkpt lat="45.0642" lon="6.05607">
        <ele>1366.4</ele>
        <time>2024-08-09T09:02:50Z</time>
      </trkpt>
      <trkpt lat="45.0642" lon="6.05607">
        <ele>1366.6</ele>
        <time>2024-08-09T09:02:51Z</time>
      </trkpt>
      <trkpt lat="45.0642" lon="6.05607">
        <ele>1367.2</ele>
        <time>2024-08-09T09:02:52Z</time>
      </trkpt>
      <trkpt lat="45.0642" lon="6.05607">
        <ele>1367.4</ele>
        <time>2024-08-09T09:02:53Z</time>
      </trkpt>
      <trkpt lat="45.06419" lon="6.05611">
        <ele>1367.6</ele>
        <time>2024-08-09T09:02:54Z</time>
      </trkpt>
      <trkpt lat="45.06419" lon="6.05611">
        <ele>1367.8</ele>
        <time>2024-08-09T09:02:55Z</time>
      </trkpt>
      <trkpt lat="45.06419" lon="6.05613">
        <ele>1368</ele>
        <time>2024-08-09T09:02:56Z</time>
      </trkpt>
      <trkpt lat="45.06419" lon="6.05613">
        <ele>1368</ele>
        <time>2024-08-09T09:02:57Z</time>
      </trkpt>
      <trkpt lat="45.0642" lon="6.05616">
        <ele>1368.4</ele>
        <time>2024-08-09T09:02:58Z</time>
      </trkpt>
      <trkpt lat="45.0642" lon="6.05616">
        <ele>1368.6</ele>
        <time>2024-08-09T09:02:59Z</time>
      </trkpt>
      <trkpt lat="45.06419" lon="6.05619">
        <ele>1368.6</ele>
        <time>2024-08-09T09:03:00Z</time>
      </trkpt>
      <trkpt lat="45.06419" lon="6.05619">
        <ele>1368.6</ele>
        <time>2024-08-09T09:03:01Z</time>
      </trkpt>
      <trkpt lat="45.06419" lon="6.05622">
        <ele>1368.8</ele>
        <time>2024-08-09T09:03:02Z</time>
      </trkpt>
      <trkpt lat="45.06419" lon="6.05622">
        <ele>1368.8</ele>
        <time>2024-08-09T09:03:03Z</time>
      </trkpt>
      <trkpt lat="45.06418" lon="6.05625">
        <ele>1369</ele>
        <time>2024-08-09T09:03:04Z</time>
      </trkpt>
      <trkpt lat="45.06418" lon="6.05625">
        <ele>1369</ele>
        <time>2024-08-09T09:03:05Z</time>
      </trkpt>
      <trkpt lat="45.06418" lon="6.05628">
        <ele>1369.2</ele>
        <time>2024-08-09T09:03:06Z</time>
      </trkpt>
      <trkpt lat="45.06418" lon="6.05628">
        <ele>1369.4</ele>
        <time>2024-08-09T09:03:07Z</time>
      </trkpt>
      <trkpt lat="45.06416" lon="6.05631">
        <ele>1369.4</ele>
        <time>2024-08-09T09:03:08Z</time>
      </trkpt>
      <trkpt lat="45.06416" lon="6.05631">
        <ele>1369.2</ele>
        <time>2024-08-09T09:03:09Z</time>
      </trkpt>
      <trkpt lat="45.06415" lon="6.05634">
        <ele>1369.2</ele>
        <time>2024-08-09T09:03:10Z</time>
      </trkpt>
      <trkpt lat="45.06415" lon="6.05634">
        <ele>1369.4</ele>
        <time>2024-08-09T09:03:11Z</time>
      </trkpt>
      <trkpt lat="45.06414" lon="6.05637">
        <ele>1369.4</ele>
        <time>2024-08-09T09:03:12Z</time>
      </trkpt>
      <trkpt lat="45.06414" lon="6.05637">
        <ele>1369.4</ele>
        <time>2024-08-09T09:03:13Z</time>
      </trkpt>
      <trkpt lat="45.06414" lon="6.05641">
        <ele>1369.4</ele>
        <time>2024-08-09T09:03:14Z</time>
      </trkpt>
      <trkpt lat="45.06414" lon="6.05641">
        <ele>1369.6</ele>
        <time>2024-08-09T09:03:15Z</time>
      </trkpt>
      <trkpt lat="45.06413" lon="6.05646">
        <ele>1369.6</ele>
        <time>2024-08-09T09:03:16Z</time>
      </trkpt>
      <trkpt lat="45.06413" lon="6.05646">
        <ele>1369.8</ele>
        <time>2024-08-09T09:03:17Z</time>
      </trkpt>
      <trkpt lat="45.06414" lon="6.05649">
        <ele>1370</ele>
        <time>2024-08-09T09:03:18Z</time>
      </trkpt>
      <trkpt lat="45.06414" lon="6.05649">
        <ele>1370.2</ele>
        <time>2024-08-09T09:03:19Z</time>
      </trkpt>
      <trkpt lat="45.06415" lon="6.05652">
        <ele>1370.4</ele>
        <time>2024-08-09T09:03:20Z</time>
      </trkpt>
      <trkpt lat="45.06415" lon="6.05652">
        <ele>1370.4</ele>
        <time>2024-08-09T09:03:21Z</time>
      </trkpt>
      <trkpt lat="45.06416" lon="6.05656">
        <ele>1370.4</ele>
        <time>2024-08-09T09:03:22Z</time>
      </trkpt>
      <trkpt lat="45.06416" lon="6.05656">
        <ele>1370.4</ele>
        <time>2024-08-09T09:03:23Z</time>
      </trkpt>
      <trkpt lat="45.06416" lon="6.05659">
        <ele>1370.8</ele>
        <time>2024-08-09T09:03:24Z</time>
      </trkpt>
      <trkpt lat="45.06416" lon="6.05659">
        <ele>1371</ele>
        <time>2024-08-09T09:03:25Z</time>
      </trkpt>
      <trkpt lat="45.06417" lon="6.05662">
        <ele>1371</ele>
        <time>2024-08-09T09:03:26Z</time>
      </trkpt>
      <trkpt lat="45.06417" lon="6.05662">
        <ele>1371</ele>
        <time>2024-08-09T09:03:27Z</time>
      </trkpt>
      <trkpt lat="45.06419" lon="6.05665">
        <ele>1371.2</ele>
        <time>2024-08-09T09:03:28Z</time>
      </trkpt>
      <trkpt lat="45.06419" lon="6.05665">
        <ele>1371.4</ele>
        <time>2024-08-09T09:03:29Z</time>
      </trkpt>
      <trkpt lat="45.0642" lon="6.05667">
        <ele>1371.6</ele>
        <time>2024-08-09T09:03:30Z</time>
      </trkpt>
      <trkpt lat="45.0642" lon="6.05667">
        <ele>1372.2</ele>
        <time>2024-08-09T09:03:31Z</time>
      </trkpt>
      <trkpt lat="45.06422" lon="6.05669">
        <ele>1372.2</ele>
        <time>2024-08-09T09:03:32Z</time>
      </trkpt>
      <trkpt lat="45.06422" lon="6.05669">
        <ele>1372.2</ele>
        <time>2024-08-09T09:03:33Z</time>
      </trkpt>
      <trkpt lat="45.06424" lon="6.05671">
        <ele>1372.2</ele>
        <time>2024-08-09T09:03:34Z</time>
      </trkpt>
      <trkpt lat="45.06424" lon="6.05671">
        <ele>1372.2</ele>
        <time>2024-08-09T09:03:35Z</time>
      </trkpt>
      <trkpt lat="45.06426" lon="6.05672">
        <ele>1372.4</ele>
        <time>2024-08-09T09:03:36Z</time>
      </trkpt>
      <trkpt lat="45.06426" lon="6.05672">
        <ele>1372.6</ele>
        <time>2024-08-09T09:03:37Z</time>
      </trkpt>
      <trkpt lat="45.06428" lon="6.05674">
        <ele>1372.8</ele>
        <time>2024-08-09T09:03:38Z</time>
      </trkpt>
      <trkpt lat="45.06428" lon="6.05674">
        <ele>1372.8</ele>
        <time>2024-08-09T09:03:39Z</time>
      </trkpt>
      <trkpt lat="45.0643" lon="6.05675">
        <ele>1373</ele>
        <time>2024-08-09T09:03:40Z</time>
      </trkpt>
      <trkpt lat="45.0643" lon="6.05675">
        <ele>1373</ele>
        <time>2024-08-09T09:03:41Z</time>
      </trkpt>
      <trkpt lat="45.06433" lon="6.05676">
        <ele>1373</ele>
        <time>2024-08-09T09:03:42Z</time>
      </trkpt>
      <trkpt lat="45.06433" lon="6.05676">
        <ele>1373</ele>
        <time>2024-08-09T09:03:43Z</time>
      </trkpt>
      <trkpt lat="45.06436" lon="6.05677">
        <ele>1373.2</ele>
        <time>2024-08-09T09:03:44Z</time>
      </trkpt>
      <trkpt lat="45.06436" lon="6.05677">
        <ele>1373.4</ele>
        <time>2024-08-09T09:03:45Z</time>
      </trkpt>
      <trkpt lat="45.06438" lon="6.05678">
        <ele>1373.4</ele>
        <time>2024-08-09T09:03:46Z</time>
      </trkpt>
      <trkpt lat="45.06438" lon="6.05678">
        <ele>1373.6</ele>
        <time>2024-08-09T09:03:47Z</time>
      </trkpt>
      <trkpt lat="45.06441" lon="6.05679">
        <ele>1373.6</ele>
        <time>2024-08-09T09:03:48Z</time>
      </trkpt>
      <trkpt lat="45.06441" lon="6.05679">
        <ele>1373.8</ele>
        <time>2024-08-09T09:03:49Z</time>
      </trkpt>
      <trkpt lat="45.06443" lon="6.05681">
        <ele>1374</ele>
        <time>2024-08-09T09:03:50Z</time>
      </trkpt>
      <trkpt lat="45.06443" lon="6.05681">
        <ele>1374</ele>
        <time>2024-08-09T09:03:51Z</time>
      </trkpt>
      <trkpt lat="45.06446" lon="6.05683">
        <ele>1374</ele>
        <time>2024-08-09T09:03:52Z</time>
      </trkpt>
      <trkpt lat="45.06446" lon="6.05683">
        <ele>1374.2</ele>
        <time>2024-08-09T09:03:53Z</time>
      </trkpt>
      <trkpt lat="45.06448" lon="6.05685">
        <ele>1374.2</ele>
        <time>2024-08-09T09:03:54Z</time>
      </trkpt>
      <trkpt lat="45.06448" lon="6.05685">
        <ele>1374.4</ele>
        <time>2024-08-09T09:03:55Z</time>
      </trkpt>
      <trkpt lat="45.0645" lon="6.05688">
        <ele>1374.4</ele>
        <time>2024-08-09T09:03:56Z</time>
      </trkpt>
      <trkpt lat="45.0645" lon="6.05688">
        <ele>1374.6</ele>
        <time>2024-08-09T09:03:57Z</time>
      </trkpt>
      <trkpt lat="45.06453" lon="6.05691">
        <ele>1374.6</ele>
        <time>2024-08-09T09:03:58Z</time>
      </trkpt>
      <trkpt lat="45.06453" lon="6.05691">
        <ele>1374.8</ele>
        <time>2024-08-09T09:03:59Z</time>
      </trkpt>
      <trkpt lat="45.06454" lon="6.05694">
        <ele>1374.8</ele>
        <time>2024-08-09T09:04:00Z</time>
      </trkpt>
      <trkpt lat="45.06454" lon="6.05694">
        <ele>1375</ele>
        <time>2024-08-09T09:04:01Z</time>
      </trkpt>
      <trkpt lat="45.06455" lon="6.05697">
        <ele>1375.2</ele>
        <time>2024-08-09T09:04:02Z</time>
      </trkpt>
      <trkpt lat="45.06455" lon="6.05697">
        <ele>1375.4</ele>
        <time>2024-08-09T09:04:03Z</time>
      </trkpt>
      <trkpt lat="45.06456" lon="6.05699">
        <ele>1375.4</ele>
        <time>2024-08-09T09:04:04Z</time>
      </trkpt>
      <trkpt lat="45.06456" lon="6.05699">
        <ele>1375.4</ele>
        <time>2024-08-09T09:04:05Z</time>
      </trkpt>
      <trkpt lat="45.06456" lon="6.05699">
        <ele>1375.6</ele>
        <time>2024-08-09T09:04:06Z</time>
      </trkpt>
      <trkpt lat="45.06456" lon="6.05699">
        <ele>1375.8</ele>
        <time>2024-08-09T09:04:07Z</time>
      </trkpt>
      <trkpt lat="45.06457" lon="6.05702">
        <ele>1375.8</ele>
        <time>2024-08-09T09:04:08Z</time>
      </trkpt>
      <trkpt lat="45.06457" lon="6.05702">
        <ele>1376</ele>
        <time>2024-08-09T09:04:09Z</time>
      </trkpt>
      <trkpt lat="45.06457" lon="6.05705">
        <ele>1376</ele>
        <time>2024-08-09T09:04:10Z</time>
      </trkpt>
      <trkpt lat="45.06457" lon="6.05705">
        <ele>1376.6</ele>
        <time>2024-08-09T09:04:11Z</time>
      </trkpt>
      <trkpt lat="45.06456" lon="6.05708">
        <ele>1376.6</ele>
        <time>2024-08-09T09:04:12Z</time>
      </trkpt>
      <trkpt lat="45.06456" lon="6.05708">
        <ele>1376.6</ele>
        <time>2024-08-09T09:04:13Z</time>
      </trkpt>
      <trkpt lat="45.06456" lon="6.05712">
        <ele>1376.8</ele>
        <time>2024-08-09T09:04:14Z</time>
      </trkpt>
      <trkpt lat="45.06456" lon="6.05712">
        <ele>1377</ele>
        <time>2024-08-09T09:04:15Z</time>
      </trkpt>
      <trkpt lat="45.06456" lon="6.05715">
        <ele>1377</ele>
        <time>2024-08-09T09:04:16Z</time>
      </trkpt>
      <trkpt lat="45.06456" lon="6.05715">
        <ele>1377</ele>
        <time>2024-08-09T09:04:17Z</time>
      </trkpt>
      <trkpt lat="45.06456" lon="6.05718">
        <ele>1377</ele>
        <time>2024-08-09T09:04:18Z</time>
      </trkpt>
      <trkpt lat="45.06456" lon="6.05718">
        <ele>1377.2</ele>
        <time>2024-08-09T09:04:19Z</time>
      </trkpt>
      <trkpt lat="45.06455" lon="6.05722">
        <ele>1377.4</ele>
        <time>2024-08-09T09:04:20Z</time>
      </trkpt>
      <trkpt lat="45.06455" lon="6.05725">
        <ele>1377.4</ele>
        <time>2024-08-09T09:04:21Z</time>
      </trkpt>
      <trkpt lat="45.06455" lon="6.05725">
        <ele>1377.4</ele>
        <time>2024-08-09T09:04:22Z</time>
      </trkpt>
      <trkpt lat="45.06455" lon="6.05728">
        <ele>1377.6</ele>
        <time>2024-08-09T09:04:23Z</time>
      </trkpt>
      <trkpt lat="45.06455" lon="6.05728">
        <ele>1377.6</ele>
        <time>2024-08-09T09:04:24Z</time>
      </trkpt>
      <trkpt lat="45.06454" lon="6.05732">
        <ele>1377.6</ele>
        <time>2024-08-09T09:04:25Z</time>
      </trkpt>
      <trkpt lat="45.06454" lon="6.05732">
        <ele>1377.6</ele>
        <time>2024-08-09T09:04:26Z</time>
      </trkpt>
      <trkpt lat="45.06453" lon="6.05735">
        <ele>1378</ele>
        <time>2024-08-09T09:04:27Z</time>
      </trkpt>
      <trkpt lat="45.06453" lon="6.05735">
        <ele>1378</ele>
        <time>2024-08-09T09:04:28Z</time>
      </trkpt>
      <trkpt lat="45.06453" lon="6.05738">
        <ele>1378</ele>
        <time>2024-08-09T09:04:29Z</time>
      </trkpt>
      <trkpt lat="45.06453" lon="6.05738">
        <ele>1378</ele>
        <time>2024-08-09T09:04:30Z</time>
      </trkpt>
      <trkpt lat="45.06453" lon="6.05742">
        <ele>1378.2</ele>
        <time>2024-08-09T09:04:31Z</time>
      </trkpt>
      <trkpt lat="45.06453" lon="6.05742">
        <ele>1378.6</ele>
        <time>2024-08-09T09:04:32Z</time>
      </trkpt>
      <trkpt lat="45.06453" lon="6.05746">
        <ele>1378.8</ele>
        <time>2024-08-09T09:04:33Z</time>
      </trkpt>
      <trkpt lat="45.06453" lon="6.05746">
        <ele>1378.8</ele>
        <time>2024-08-09T09:04:34Z</time>
      </trkpt>
      <trkpt lat="45.06453" lon="6.05749">
        <ele>1378.8</ele>
        <time>2024-08-09T09:04:35Z</time>
      </trkpt>
      <trkpt lat="45.06453" lon="6.05749">
        <ele>1378.6</ele>
        <time>2024-08-09T09:04:36Z</time>
      </trkpt>
      <trkpt lat="45.06453" lon="6.05753">
        <ele>1378.6</ele>
        <time>2024-08-09T09:04:37Z</time>
      </trkpt>
      <trkpt lat="45.06453" lon="6.05753">
        <ele>1378.8</ele>
        <time>2024-08-09T09:04:38Z</time>
      </trkpt>
      <trkpt lat="45.06453" lon="6.05756">
        <ele>1378.8</ele>
        <time>2024-08-09T09:04:39Z</time>
      </trkpt>
      <trkpt lat="45.06453" lon="6.05756">
        <ele>1378.8</ele>
        <time>2024-08-09T09:04:40Z</time>
      </trkpt>
      <trkpt lat="45.06453" lon="6.05759">
        <ele>1379</ele>
        <time>2024-08-09T09:04:41Z</time>
      </trkpt>
      <trkpt lat="45.06453" lon="6.05759">
        <ele>1379.4</ele>
        <time>2024-08-09T09:04:42Z</time>
      </trkpt>
      <trkpt lat="45.06452" lon="6.05762">
        <ele>1379.6</ele>
        <time>2024-08-09T09:04:43Z</time>
      </trkpt>
      <trkpt lat="45.06452" lon="6.05762">
        <ele>1379.6</ele>
        <time>2024-08-09T09:04:44Z</time>
      </trkpt>
      <trkpt lat="45.06451" lon="6.05766">
        <ele>1379.8</ele>
        <time>2024-08-09T09:04:45Z</time>
      </trkpt>
      <trkpt lat="45.06451" lon="6.05766">
        <ele>1380</ele>
        <time>2024-08-09T09:04:46Z</time>
      </trkpt>
      <trkpt lat="45.06451" lon="6.05769">
        <ele>1380</ele>
        <time>2024-08-09T09:04:47Z</time>
      </trkpt>
      <trkpt lat="45.06451" lon="6.05769">
        <ele>1380</ele>
        <time>2024-08-09T09:04:48Z</time>
      </trkpt>
      <trkpt lat="45.06451" lon="6.05772">
        <ele>1380.2</ele>
        <time>2024-08-09T09:04:49Z</time>
      </trkpt>
      <trkpt lat="45.06451" lon="6.05772">
        <ele>1380.4</ele>
        <time>2024-08-09T09:04:50Z</time>
      </trkpt>
      <trkpt lat="45.06451" lon="6.05776">
        <ele>1380.4</ele>
        <time>2024-08-09T09:04:51Z</time>
      </trkpt>
      <trkpt lat="45.06451" lon="6.05776">
        <ele>1380.8</ele>
        <time>2024-08-09T09:04:52Z</time>
      </trkpt>
      <trkpt lat="45.0645" lon="6.0578">
        <ele>1381</ele>
        <time>2024-08-09T09:04:53Z</time>
      </trkpt>
      <trkpt lat="45.0645" lon="6.0578">
        <ele>1381</ele>
        <time>2024-08-09T09:04:54Z</time>
      </trkpt>
      <trkpt lat="45.0645" lon="6.05783">
        <ele>1381.2</ele>
        <time>2024-08-09T09:04:55Z</time>
      </trkpt>
      <trkpt lat="45.0645" lon="6.05783">
        <ele>1381.4</ele>
        <time>2024-08-09T09:04:56Z</time>
      </trkpt>
      <trkpt lat="45.0645" lon="6.05787">
        <ele>1381.4</ele>
        <time>2024-08-09T09:04:57Z</time>
      </trkpt>
      <trkpt lat="45.0645" lon="6.05787">
        <ele>1381.4</ele>
        <time>2024-08-09T09:04:58Z</time>
      </trkpt>
      <trkpt lat="45.0645" lon="6.05791">
        <ele>1381.6</ele>
        <time>2024-08-09T09:04:59Z</time>
      </trkpt>
      <trkpt lat="45.0645" lon="6.05791">
        <ele>1381.6</ele>
        <time>2024-08-09T09:05:00Z</time>
      </trkpt>
      <trkpt lat="45.0645" lon="6.05794">
        <ele>1381.6</ele>
        <time>2024-08-09T09:05:01Z</time>
      </trkpt>
      <trkpt lat="45.0645" lon="6.05794">
        <ele>1381.8</ele>
        <time>2024-08-09T09:05:02Z</time>
      </trkpt>
      <trkpt lat="45.0645" lon="6.05798">
        <ele>1381.8</ele>
        <time>2024-08-09T09:05:03Z</time>
      </trkpt>
      <trkpt lat="45.0645" lon="6.05798">
        <ele>1381.8</ele>
        <time>2024-08-09T09:05:04Z</time>
      </trkpt>
      <trkpt lat="45.0645" lon="6.05801">
        <ele>1382</ele>
        <time>2024-08-09T09:05:05Z</time>
      </trkpt>
      <trkpt lat="45.0645" lon="6.05801">
        <ele>1382.2</ele>
        <time>2024-08-09T09:05:06Z</time>
      </trkpt>
      <trkpt lat="45.0645" lon="6.05805">
        <ele>1382.4</ele>
        <time>2024-08-09T09:05:07Z</time>
      </trkpt>
      <trkpt lat="45.0645" lon="6.05805">
        <ele>1382.6</ele>
        <time>2024-08-09T09:05:08Z</time>
      </trkpt>
      <trkpt lat="45.0645" lon="6.05808">
        <ele>1382.4</ele>
        <time>2024-08-09T09:05:09Z</time>
      </trkpt>
      <trkpt lat="45.0645" lon="6.05808">
        <ele>1382.4</ele>
        <time>2024-08-09T09:05:10Z</time>
      </trkpt>
      <trkpt lat="45.0645" lon="6.05812">
        <ele>1382.4</ele>
        <time>2024-08-09T09:05:11Z</time>
      </trkpt>
      <trkpt lat="45.0645" lon="6.05812">
        <ele>1382.6</ele>
        <time>2024-08-09T09:05:12Z</time>
      </trkpt>
      <trkpt lat="45.0645" lon="6.05815">
        <ele>1382.8</ele>
        <time>2024-08-09T09:05:13Z</time>
      </trkpt>
      <trkpt lat="45.0645" lon="6.05815">
        <ele>1383</ele>
        <time>2024-08-09T09:05:14Z</time>
      </trkpt>
      <trkpt lat="45.06451" lon="6.05819">
        <ele>1383.2</ele>
        <time>2024-08-09T09:05:15Z</time>
      </trkpt>
      <trkpt lat="45.06451" lon="6.05819">
        <ele>1383.4</ele>
        <time>2024-08-09T09:05:16Z</time>
      </trkpt>
      <trkpt lat="45.06452" lon="6.05822">
        <ele>1383.4</ele>
        <time>2024-08-09T09:05:17Z</time>
      </trkpt>
      <trkpt lat="45.06452" lon="6.05822">
        <ele>1383.6</ele>
        <time>2024-08-09T09:05:18Z</time>
      </trkpt>
      <trkpt lat="45.06452" lon="6.05825">
        <ele>1383.6</ele>
        <time>2024-08-09T09:05:19Z</time>
      </trkpt>
      <trkpt lat="45.06452" lon="6.05825">
        <ele>1383.8</ele>
        <time>2024-08-09T09:05:20Z</time>
      </trkpt>
      <trkpt lat="45.06453" lon="6.05829">
        <ele>1384</ele>
        <time>2024-08-09T09:05:21Z</time>
      </trkpt>
      <trkpt lat="45.06453" lon="6.05829">
        <ele>1384</ele>
        <time>2024-08-09T09:05:22Z</time>
      </trkpt>
      <trkpt lat="45.06454" lon="6.05832">
        <ele>1384.2</ele>
        <time>2024-08-09T09:05:23Z</time>
      </trkpt>
      <trkpt lat="45.06454" lon="6.05832">
        <ele>1384.6</ele>
        <time>2024-08-09T09:05:24Z</time>
      </trkpt>
      <trkpt lat="45.06454" lon="6.05835">
        <ele>1384.6</ele>
        <time>2024-08-09T09:05:25Z</time>
      </trkpt>
      <trkpt lat="45.06454" lon="6.05835">
        <ele>1384.6</ele>
        <time>2024-08-09T09:05:26Z</time>
      </trkpt>
      <trkpt lat="45.06455" lon="6.05838">
        <ele>1384.6</ele>
        <time>2024-08-09T09:05:27Z</time>
      </trkpt>
      <trkpt lat="45.06455" lon="6.05838">
        <ele>1384.8</ele>
        <time>2024-08-09T09:05:28Z</time>
      </trkpt>
      <trkpt lat="45.06455" lon="6.05841">
        <ele>1385</ele>
        <time>2024-08-09T09:05:29Z</time>
      </trkpt>
      <trkpt lat="45.06455" lon="6.05841">
        <ele>1385</ele>
        <time>2024-08-09T09:05:30Z</time>
      </trkpt>
      <trkpt lat="45.06456" lon="6.05845">
        <ele>1385</ele>
        <time>2024-08-09T09:05:31Z</time>
      </trkpt>
      <trkpt lat="45.06456" lon="6.05845">
        <ele>1385.2</ele>
        <time>2024-08-09T09:05:32Z</time>
      </trkpt>
      <trkpt lat="45.06457" lon="6.05848">
        <ele>1385.2</ele>
        <time>2024-08-09T09:05:33Z</time>
      </trkpt>
      <trkpt lat="45.06457" lon="6.05848">
        <ele>1385.2</ele>
        <time>2024-08-09T09:05:34Z</time>
      </trkpt>
      <trkpt lat="45.06457" lon="6.05852">
        <ele>1385.4</ele>
        <time>2024-08-09T09:05:35Z</time>
      </trkpt>
      <trkpt lat="45.06457" lon="6.05852">
        <ele>1385.6</ele>
        <time>2024-08-09T09:05:36Z</time>
      </trkpt>
      <trkpt lat="45.06457" lon="6.05855">
        <ele>1385.6</ele>
        <time>2024-08-09T09:05:37Z</time>
      </trkpt>
      <trkpt lat="45.06457" lon="6.05855">
        <ele>1385.8</ele>
        <time>2024-08-09T09:05:38Z</time>
      </trkpt>
      <trkpt lat="45.06457" lon="6.05858">
        <ele>1385.8</ele>
        <time>2024-08-09T09:05:39Z</time>
      </trkpt>
      <trkpt lat="45.06457" lon="6.05858">
        <ele>1386</ele>
        <time>2024-08-09T09:05:40Z</time>
      </trkpt>
      <trkpt lat="45.06457" lon="6.05862">
        <ele>1386.4</ele>
        <time>2024-08-09T09:05:41Z</time>
      </trkpt>
      <trkpt lat="45.06457" lon="6.05862">
        <ele>1386.4</ele>
        <time>2024-08-09T09:05:42Z</time>
      </trkpt>
      <trkpt lat="45.06457" lon="6.05865">
        <ele>1386.4</ele>
        <time>2024-08-09T09:05:43Z</time>
      </trkpt>
      <trkpt lat="45.06457" lon="6.05865">
        <ele>1386.4</ele>
        <time>2024-08-09T09:05:44Z</time>
      </trkpt>
      <trkpt lat="45.06457" lon="6.05869">
        <ele>1386.4</ele>
        <time>2024-08-09T09:05:45Z</time>
      </trkpt>
      <trkpt lat="45.06457" lon="6.05869">
        <ele>1386.6</ele>
        <time>2024-08-09T09:05:46Z</time>
      </trkpt>
      <trkpt lat="45.06457" lon="6.05873">
        <ele>1386.6</ele>
        <time>2024-08-09T09:05:47Z</time>
      </trkpt>
      <trkpt lat="45.06457" lon="6.05873">
        <ele>1386.8</ele>
        <time>2024-08-09T09:05:48Z</time>
      </trkpt>
      <trkpt lat="45.06458" lon="6.05876">
        <ele>1387</ele>
        <time>2024-08-09T09:05:49Z</time>
      </trkpt>
      <trkpt lat="45.06458" lon="6.05876">
        <ele>1387.2</ele>
        <time>2024-08-09T09:05:50Z</time>
      </trkpt>
      <trkpt lat="45.06458" lon="6.05879">
        <ele>1387.4</ele>
        <time>2024-08-09T09:05:51Z</time>
      </trkpt>
      <trkpt lat="45.06458" lon="6.05879">
        <ele>1387.4</ele>
        <time>2024-08-09T09:05:52Z</time>
      </trkpt>
      <trkpt lat="45.06458" lon="6.05882">
        <ele>1387.6</ele>
        <time>2024-08-09T09:05:53Z</time>
      </trkpt>
      <trkpt lat="45.06458" lon="6.05882">
        <ele>1387.6</ele>
        <time>2024-08-09T09:05:54Z</time>
      </trkpt>
      <trkpt lat="45.06458" lon="6.05886">
        <ele>1387.8</ele>
        <time>2024-08-09T09:05:55Z</time>
      </trkpt>
      <trkpt lat="45.06458" lon="6.05886">
        <ele>1387.8</ele>
        <time>2024-08-09T09:05:56Z</time>
      </trkpt>
      <trkpt lat="45.06459" lon="6.0589">
        <ele>1387.8</ele>
        <time>2024-08-09T09:05:57Z</time>
      </trkpt>
      <trkpt lat="45.06459" lon="6.0589">
        <ele>1388</ele>
        <time>2024-08-09T09:05:58Z</time>
      </trkpt>
      <trkpt lat="45.0646" lon="6.05893">
        <ele>1388</ele>
        <time>2024-08-09T09:05:59Z</time>
      </trkpt>
      <trkpt lat="45.0646" lon="6.05893">
        <ele>1388</ele>
        <time>2024-08-09T09:06:00Z</time>
      </trkpt>
      <trkpt lat="45.0646" lon="6.05896">
        <ele>1388.2</ele>
        <time>2024-08-09T09:06:01Z</time>
      </trkpt>
      <trkpt lat="45.0646" lon="6.05896">
        <ele>1388.4</ele>
        <time>2024-08-09T09:06:02Z</time>
      </trkpt>
      <trkpt lat="45.06462" lon="6.05899">
        <ele>1388.4</ele>
        <time>2024-08-09T09:06:03Z</time>
      </trkpt>
      <trkpt lat="45.06462" lon="6.05899">
        <ele>1388.4</ele>
        <time>2024-08-09T09:06:04Z</time>
      </trkpt>
      <trkpt lat="45.06462" lon="6.05902">
        <ele>1388.4</ele>
        <time>2024-08-09T09:06:05Z</time>
      </trkpt>
      <trkpt lat="45.06464" lon="6.05904">
        <ele>1388.6</ele>
        <time>2024-08-09T09:06:06Z</time>
      </trkpt>
      <trkpt lat="45.06464" lon="6.05904">
        <ele>1388.6</ele>
        <time>2024-08-09T09:06:07Z</time>
      </trkpt>
      <trkpt lat="45.06465" lon="6.05907">
        <ele>1388.6</ele>
        <time>2024-08-09T09:06:08Z</time>
      </trkpt>
      <trkpt lat="45.06465" lon="6.05907">
        <ele>1388.8</ele>
        <time>2024-08-09T09:06:09Z</time>
      </trkpt>
      <trkpt lat="45.06465" lon="6.0591">
        <ele>1389</ele>
        <time>2024-08-09T09:06:10Z</time>
      </trkpt>
      <trkpt lat="45.06465" lon="6.0591">
        <ele>1389</ele>
        <time>2024-08-09T09:06:11Z</time>
      </trkpt>
      <trkpt lat="45.06465" lon="6.05913">
        <ele>1389</ele>
        <time>2024-08-09T09:06:12Z</time>
      </trkpt>
      <trkpt lat="45.06465" lon="6.05913">
        <ele>1389</ele>
        <time>2024-08-09T09:06:13Z</time>
      </trkpt>
      <trkpt lat="45.06466" lon="6.05916">
        <ele>1389.2</ele>
        <time>2024-08-09T09:06:14Z</time>
      </trkpt>
      <trkpt lat="45.06466" lon="6.05916">
        <ele>1389.4</ele>
        <time>2024-08-09T09:06:15Z</time>
      </trkpt>
      <trkpt lat="45.06468" lon="6.05919">
        <ele>1389.4</ele>
        <time>2024-08-09T09:06:16Z</time>
      </trkpt>
      <trkpt lat="45.06468" lon="6.05919">
        <ele>1389.2</ele>
        <time>2024-08-09T09:06:17Z</time>
      </trkpt>
      <trkpt lat="45.06469" lon="6.05922">
        <ele>1389.2</ele>
        <time>2024-08-09T09:06:18Z</time>
      </trkpt>
      <trkpt lat="45.06469" lon="6.05922">
        <ele>1389.4</ele>
        <time>2024-08-09T09:06:19Z</time>
      </trkpt>
      <trkpt lat="45.0647" lon="6.05925">
        <ele>1389.4</ele>
        <time>2024-08-09T09:06:20Z</time>
      </trkpt>
      <trkpt lat="45.0647" lon="6.05925">
        <ele>1389.4</ele>
        <time>2024-08-09T09:06:21Z</time>
      </trkpt>
      <trkpt lat="45.0647" lon="6.05929">
        <ele>1389.8</ele>
        <time>2024-08-09T09:06:22Z</time>
      </trkpt>
      <trkpt lat="45.0647" lon="6.05929">
        <ele>1389.8</ele>
        <time>2024-08-09T09:06:23Z</time>
      </trkpt>
      <trkpt lat="45.06471" lon="6.05932">
        <ele>1389.8</ele>
        <time>2024-08-09T09:06:24Z</time>
      </trkpt>
      <trkpt lat="45.06471" lon="6.05932">
        <ele>1389.8</ele>
        <time>2024-08-09T09:06:25Z</time>
      </trkpt>
      <trkpt lat="45.06473" lon="6.05934">
        <ele>1389.8</ele>
        <time>2024-08-09T09:06:26Z</time>
      </trkpt>
      <trkpt lat="45.06474" lon="6.05936">
        <ele>1390</ele>
        <time>2024-08-09T09:06:27Z</time>
      </trkpt>
      <trkpt lat="45.06474" lon="6.05936">
        <ele>1390.2</ele>
        <time>2024-08-09T09:06:28Z</time>
      </trkpt>
      <trkpt lat="45.06476" lon="6.05939">
        <ele>1390.4</ele>
        <time>2024-08-09T09:06:29Z</time>
      </trkpt>
      <trkpt lat="45.06476" lon="6.05939">
        <ele>1390.4</ele>
        <time>2024-08-09T09:06:30Z</time>
      </trkpt>
      <trkpt lat="45.06477" lon="6.05942">
        <ele>1390.6</ele>
        <time>2024-08-09T09:06:31Z</time>
      </trkpt>
      <trkpt lat="45.06477" lon="6.05942">
        <ele>1390.6</ele>
        <time>2024-08-09T09:06:32Z</time>
      </trkpt>
      <trkpt lat="45.06477" lon="6.05946">
        <ele>1390.8</ele>
        <time>2024-08-09T09:06:33Z</time>
      </trkpt>
      <trkpt lat="45.06477" lon="6.05946">
        <ele>1390.8</ele>
        <time>2024-08-09T09:06:34Z</time>
      </trkpt>
      <trkpt lat="45.06478" lon="6.05949">
        <ele>1390.8</ele>
        <time>2024-08-09T09:06:35Z</time>
      </trkpt>
      <trkpt lat="45.06478" lon="6.05949">
        <ele>1391</ele>
        <time>2024-08-09T09:06:36Z</time>
      </trkpt>
      <trkpt lat="45.0648" lon="6.05952">
        <ele>1391.2</ele>
        <time>2024-08-09T09:06:37Z</time>
      </trkpt>
      <trkpt lat="45.0648" lon="6.05952">
        <ele>1391.4</ele>
        <time>2024-08-09T09:06:38Z</time>
      </trkpt>
      <trkpt lat="45.0648" lon="6.05956">
        <ele>1391.6</ele>
        <time>2024-08-09T09:06:39Z</time>
      </trkpt>
      <trkpt lat="45.0648" lon="6.05956">
        <ele>1391.6</ele>
        <time>2024-08-09T09:06:40Z</time>
      </trkpt>
      <trkpt lat="45.0648" lon="6.05959">
        <ele>1391.8</ele>
        <time>2024-08-09T09:06:41Z</time>
      </trkpt>
      <trkpt lat="45.0648" lon="6.05959">
        <ele>1391.8</ele>
        <time>2024-08-09T09:06:42Z</time>
      </trkpt>
      <trkpt lat="45.06481" lon="6.05963">
        <ele>1392</ele>
        <time>2024-08-09T09:06:43Z</time>
      </trkpt>
      <trkpt lat="45.06481" lon="6.05963">
        <ele>1392.2</ele>
        <time>2024-08-09T09:06:44Z</time>
      </trkpt>
      <trkpt lat="45.06481" lon="6.05966">
        <ele>1392.2</ele>
        <time>2024-08-09T09:06:45Z</time>
      </trkpt>
      <trkpt lat="45.06481" lon="6.05966">
        <ele>1392.4</ele>
        <time>2024-08-09T09:06:46Z</time>
      </trkpt>
      <trkpt lat="45.06481" lon="6.05968">
        <ele>1392.6</ele>
        <time>2024-08-09T09:06:47Z</time>
      </trkpt>
      <trkpt lat="45.06481" lon="6.05968">
        <ele>1392.8</ele>
        <time>2024-08-09T09:06:48Z</time>
      </trkpt>
      <trkpt lat="45.06482" lon="6.05973">
        <ele>1393</ele>
        <time>2024-08-09T09:06:49Z</time>
      </trkpt>
      <trkpt lat="45.06482" lon="6.05973">
        <ele>1393.2</ele>
        <time>2024-08-09T09:06:50Z</time>
      </trkpt>
      <trkpt lat="45.06483" lon="6.05976">
        <ele>1393.4</ele>
        <time>2024-08-09T09:06:51Z</time>
      </trkpt>
      <trkpt lat="45.06483" lon="6.05976">
        <ele>1393.6</ele>
        <time>2024-08-09T09:06:52Z</time>
      </trkpt>
      <trkpt lat="45.06485" lon="6.05979">
        <ele>1393.6</ele>
        <time>2024-08-09T09:06:53Z</time>
      </trkpt>
      <trkpt lat="45.06485" lon="6.05979">
        <ele>1393.6</ele>
        <time>2024-08-09T09:06:54Z</time>
      </trkpt>
      <trkpt lat="45.06486" lon="6.05982">
        <ele>1393.8</ele>
        <time>2024-08-09T09:06:55Z</time>
      </trkpt>
      <trkpt lat="45.06488" lon="6.05984">
        <ele>1394</ele>
        <time>2024-08-09T09:06:56Z</time>
      </trkpt>
      <trkpt lat="45.06488" lon="6.05984">
        <ele>1394</ele>
        <time>2024-08-09T09:06:57Z</time>
      </trkpt>
      <trkpt lat="45.06489" lon="6.05987">
        <ele>1394</ele>
        <time>2024-08-09T09:06:58Z</time>
      </trkpt>
      <trkpt lat="45.06489" lon="6.05987">
        <ele>1394.2</ele>
        <time>2024-08-09T09:06:59Z</time>
      </trkpt>
      <trkpt lat="45.0649" lon="6.0599">
        <ele>1394.2</ele>
        <time>2024-08-09T09:07:00Z</time>
      </trkpt>
      <trkpt lat="45.0649" lon="6.0599">
        <ele>1394.2</ele>
        <time>2024-08-09T09:07:01Z</time>
      </trkpt>
      <trkpt lat="45.06492" lon="6.05992">
        <ele>1394.4</ele>
        <time>2024-08-09T09:07:02Z</time>
      </trkpt>
      <trkpt lat="45.06492" lon="6.05992">
        <ele>1394.4</ele>
        <time>2024-08-09T09:07:03Z</time>
      </trkpt>
      <trkpt lat="45.06493" lon="6.05995">
        <ele>1394.6</ele>
        <time>2024-08-09T09:07:04Z</time>
      </trkpt>
      <trkpt lat="45.06493" lon="6.05995">
        <ele>1394.8</ele>
        <time>2024-08-09T09:07:05Z</time>
      </trkpt>
      <trkpt lat="45.06494" lon="6.05997">
        <ele>1395</ele>
        <time>2024-08-09T09:07:06Z</time>
      </trkpt>
      <trkpt lat="45.06494" lon="6.05997">
        <ele>1395.2</ele>
        <time>2024-08-09T09:07:07Z</time>
      </trkpt>
      <trkpt lat="45.06496" lon="6.05999">
        <ele>1395.2</ele>
        <time>2024-08-09T09:07:08Z</time>
      </trkpt>
      <trkpt lat="45.06496" lon="6.05999">
        <ele>1395.2</ele>
        <time>2024-08-09T09:07:09Z</time>
      </trkpt>
      <trkpt lat="45.06497" lon="6.06002">
        <ele>1395.4</ele>
        <time>2024-08-09T09:07:10Z</time>
      </trkpt>
      <trkpt lat="45.06497" lon="6.06002">
        <ele>1395.6</ele>
        <time>2024-08-09T09:07:11Z</time>
      </trkpt>
      <trkpt lat="45.06498" lon="6.06005">
        <ele>1395.6</ele>
        <time>2024-08-09T09:07:12Z</time>
      </trkpt>
      <trkpt lat="45.06498" lon="6.06005">
        <ele>1395.6</ele>
        <time>2024-08-09T09:07:13Z</time>
      </trkpt>
      <trkpt lat="45.065" lon="6.06008">
        <ele>1395.8</ele>
        <time>2024-08-09T09:07:14Z</time>
      </trkpt>
      <trkpt lat="45.065" lon="6.06008">
        <ele>1396</ele>
        <time>2024-08-09T09:07:15Z</time>
      </trkpt>
      <trkpt lat="45.065" lon="6.06011">
        <ele>1396</ele>
        <time>2024-08-09T09:07:16Z</time>
      </trkpt>
      <trkpt lat="45.065" lon="6.06011">
        <ele>1396</ele>
        <time>2024-08-09T09:07:17Z</time>
      </trkpt>
      <trkpt lat="45.06501" lon="6.06015">
        <ele>1396.2</ele>
        <time>2024-08-09T09:07:18Z</time>
      </trkpt>
      <trkpt lat="45.06501" lon="6.06015">
        <ele>1396.2</ele>
        <time>2024-08-09T09:07:19Z</time>
      </trkpt>
      <trkpt lat="45.065" lon="6.0602">
        <ele>1396.4</ele>
        <time>2024-08-09T09:07:20Z</time>
      </trkpt>
      <trkpt lat="45.065" lon="6.0602">
        <ele>1396.4</ele>
        <time>2024-08-09T09:07:21Z</time>
      </trkpt>
      <trkpt lat="45.06499" lon="6.06023">
        <ele>1396.8</ele>
        <time>2024-08-09T09:07:22Z</time>
      </trkpt>
      <trkpt lat="45.06499" lon="6.06023">
        <ele>1396.8</ele>
        <time>2024-08-09T09:07:23Z</time>
      </trkpt>
      <trkpt lat="45.06496" lon="6.06027">
        <ele>1396.8</ele>
        <time>2024-08-09T09:07:24Z</time>
      </trkpt>
      <trkpt lat="45.06496" lon="6.06027">
        <ele>1396.8</ele>
        <time>2024-08-09T09:07:25Z</time>
      </trkpt>
      <trkpt lat="45.06496" lon="6.06027">
        <ele>1397</ele>
        <time>2024-08-09T09:07:26Z</time>
      </trkpt>
      <trkpt lat="45.06495" lon="6.06029">
        <ele>1397.2</ele>
        <time>2024-08-09T09:07:27Z</time>
      </trkpt>
      <trkpt lat="45.06495" lon="6.06029">
        <ele>1397.2</ele>
        <time>2024-08-09T09:07:28Z</time>
      </trkpt>
      <trkpt lat="45.06495" lon="6.06029">
        <ele>1397.2</ele>
        <time>2024-08-09T09:07:29Z</time>
      </trkpt>
      <trkpt lat="45.06495" lon="6.06029">
        <ele>1397.4</ele>
        <time>2024-08-09T09:07:30Z</time>
      </trkpt>
      <trkpt lat="45.06495" lon="6.06029">
        <ele>1397.8</ele>
        <time>2024-08-09T09:07:31Z</time>
      </trkpt>
      <trkpt lat="45.06495" lon="6.06029">
        <ele>1397.8</ele>
        <time>2024-08-09T09:07:32Z</time>
      </trkpt>
      <trkpt lat="45.06493" lon="6.06028">
        <ele>1397.8</ele>
        <time>2024-08-09T09:07:33Z</time>
      </trkpt>
      <trkpt lat="45.06493" lon="6.06028">
        <ele>1397.8</ele>
        <time>2024-08-09T09:07:34Z</time>
      </trkpt>
      <trkpt lat="45.06491" lon="6.06027">
        <ele>1397.8</ele>
        <time>2024-08-09T09:07:35Z</time>
      </trkpt>
      <trkpt lat="45.06491" lon="6.06027">
        <ele>1397.8</ele>
        <time>2024-08-09T09:07:36Z</time>
      </trkpt>
      <trkpt lat="45.06491" lon="6.06027">
        <ele>1397.8</ele>
        <time>2024-08-09T09:07:37Z</time>
      </trkpt>
      <trkpt lat="45.06491" lon="6.06027">
        <ele>1397.6</ele>
        <time>2024-08-09T09:07:38Z</time>
      </trkpt>
      <trkpt lat="45.06491" lon="6.0603">
        <ele>1397.6</ele>
        <time>2024-08-09T09:07:39Z</time>
      </trkpt>
      <trkpt lat="45.06491" lon="6.0603">
        <ele>1397.8</ele>
        <time>2024-08-09T09:07:40Z</time>
      </trkpt>
      <trkpt lat="45.06491" lon="6.0603">
        <ele>1397.8</ele>
        <time>2024-08-09T09:07:41Z</time>
      </trkpt>
      <trkpt lat="45.06491" lon="6.06033">
        <ele>1398.2</ele>
        <time>2024-08-09T09:07:42Z</time>
      </trkpt>
      <trkpt lat="45.06491" lon="6.06033">
        <ele>1398.8</ele>
        <time>2024-08-09T09:07:43Z</time>
      </trkpt>
      <trkpt lat="45.06491" lon="6.06033">
        <ele>1398.8</ele>
        <time>2024-08-09T09:07:44Z</time>
      </trkpt>
      <trkpt lat="45.0649" lon="6.06035">
        <ele>1398.8</ele>
        <time>2024-08-09T09:07:45Z</time>
      </trkpt>
      <trkpt lat="45.0649" lon="6.06035">
        <ele>1399.6</ele>
        <time>2024-08-09T09:07:46Z</time>
      </trkpt>
      <trkpt lat="45.0649" lon="6.06035">
        <ele>1400.2</ele>
        <time>2024-08-09T09:07:47Z</time>
      </trkpt>
      <trkpt lat="45.06487" lon="6.06037">
        <ele>1400.2</ele>
        <time>2024-08-09T09:07:48Z</time>
      </trkpt>
      <trkpt lat="45.06487" lon="6.06037">
        <ele>1400.6</ele>
        <time>2024-08-09T09:07:49Z</time>
      </trkpt>
      <trkpt lat="45.06485" lon="6.06037">
        <ele>1401</ele>
        <time>2024-08-09T09:07:50Z</time>
      </trkpt>
      <trkpt lat="45.06485" lon="6.06037">
        <ele>1401</ele>
        <time>2024-08-09T09:07:51Z</time>
      </trkpt>
      <trkpt lat="45.06485" lon="6.06037">
        <ele>1401.6</ele>
        <time>2024-08-09T09:07:52Z</time>
      </trkpt>
      <trkpt lat="45.06485" lon="6.06037">
        <ele>1402</ele>
        <time>2024-08-09T09:07:53Z</time>
      </trkpt>
      <trkpt lat="45.06484" lon="6.06038">
        <ele>1402</ele>
        <time>2024-08-09T09:07:54Z</time>
      </trkpt>
      <trkpt lat="45.06484" lon="6.06038">
        <ele>1402</ele>
        <time>2024-08-09T09:07:55Z</time>
      </trkpt>
      <trkpt lat="45.06484" lon="6.06038">
        <ele>1402.4</ele>
        <time>2024-08-09T09:07:56Z</time>
      </trkpt>
      <trkpt lat="45.06484" lon="6.06038">
        <ele>1402.6</ele>
        <time>2024-08-09T09:07:57Z</time>
      </trkpt>
      <trkpt lat="45.06482" lon="6.06039">
        <ele>1403.2</ele>
        <time>2024-08-09T09:07:58Z</time>
      </trkpt>
      <trkpt lat="45.06482" lon="6.06039">
        <ele>1403.2</ele>
        <time>2024-08-09T09:07:59Z</time>
      </trkpt>
      <trkpt lat="45.06482" lon="6.06039">
        <ele>1403.6</ele>
        <time>2024-08-09T09:08:00Z</time>
      </trkpt>
      <trkpt lat="45.06482" lon="6.06039">
        <ele>1403.6</ele>
        <time>2024-08-09T09:08:01Z</time>
      </trkpt>
      <trkpt lat="45.0648" lon="6.06039">
        <ele>1403.6</ele>
        <time>2024-08-09T09:08:02Z</time>
      </trkpt>
      <trkpt lat="45.0648" lon="6.06039">
        <ele>1403.6</ele>
        <time>2024-08-09T09:08:03Z</time>
      </trkpt>
      <trkpt lat="45.0648" lon="6.06039">
        <ele>1404.4</ele>
        <time>2024-08-09T09:08:04Z</time>
      </trkpt>
      <trkpt lat="45.0648" lon="6.06039">
        <ele>1405</ele>
        <time>2024-08-09T09:08:05Z</time>
      </trkpt>
      <trkpt lat="45.0648" lon="6.06039">
        <ele>1405</ele>
        <time>2024-08-09T09:08:06Z</time>
      </trkpt>
      <trkpt lat="45.0648" lon="6.06039">
        <ele>1405</ele>
        <time>2024-08-09T09:08:07Z</time>
      </trkpt>
      <trkpt lat="45.0648" lon="6.06039">
        <ele>1405.2</ele>
        <time>2024-08-09T09:08:08Z</time>
      </trkpt>
      <trkpt lat="45.0648" lon="6.06039">
        <ele>1405.4</ele>
        <time>2024-08-09T09:08:09Z</time>
      </trkpt>
      <trkpt lat="45.0648" lon="6.06044">
        <ele>1405.4</ele>
        <time>2024-08-09T09:08:10Z</time>
      </trkpt>
      <trkpt lat="45.0648" lon="6.06044">
        <ele>1405.4</ele>
        <time>2024-08-09T09:08:11Z</time>
      </trkpt>
      <trkpt lat="45.0648" lon="6.06049">
        <ele>1405.2</ele>
        <time>2024-08-09T09:08:12Z</time>
      </trkpt>
      <trkpt lat="45.0648" lon="6.06049">
        <ele>1405.2</ele>
        <time>2024-08-09T09:08:13Z</time>
      </trkpt>
      <trkpt lat="45.06479" lon="6.06054">
        <ele>1405.8</ele>
        <time>2024-08-09T09:08:14Z</time>
      </trkpt>
      <trkpt lat="45.06479" lon="6.06054">
        <ele>1405.8</ele>
        <time>2024-08-09T09:08:15Z</time>
      </trkpt>
      <trkpt lat="45.06478" lon="6.06058">
        <ele>1405.8</ele>
        <time>2024-08-09T09:08:16Z</time>
      </trkpt>
      <trkpt lat="45.06478" lon="6.06058">
        <ele>1405.8</ele>
        <time>2024-08-09T09:08:17Z</time>
      </trkpt>
      <trkpt lat="45.06478" lon="6.06062">
        <ele>1405.8</ele>
        <time>2024-08-09T09:08:18Z</time>
      </trkpt>
      <trkpt lat="45.06478" lon="6.06062">
        <ele>1405.8</ele>
        <time>2024-08-09T09:08:19Z</time>
      </trkpt>
      <trkpt lat="45.06478" lon="6.06066">
        <ele>1406</ele>
        <time>2024-08-09T09:08:20Z</time>
      </trkpt>
      <trkpt lat="45.06478" lon="6.06066">
        <ele>1406.2</ele>
        <time>2024-08-09T09:08:21Z</time>
      </trkpt>
      <trkpt lat="45.06477" lon="6.06069">
        <ele>1406.2</ele>
        <time>2024-08-09T09:08:22Z</time>
      </trkpt>
      <trkpt lat="45.06477" lon="6.06069">
        <ele>1406.4</ele>
        <time>2024-08-09T09:08:23Z</time>
      </trkpt>
      <trkpt lat="45.06477" lon="6.06072">
        <ele>1406.6</ele>
        <time>2024-08-09T09:08:24Z</time>
      </trkpt>
      <trkpt lat="45.06477" lon="6.06072">
        <ele>1406.8</ele>
        <time>2024-08-09T09:08:25Z</time>
      </trkpt>
      <trkpt lat="45.06475" lon="6.06075">
        <ele>1407</ele>
        <time>2024-08-09T09:08:26Z</time>
      </trkpt>
      <trkpt lat="45.06475" lon="6.06075">
        <ele>1407.2</ele>
        <time>2024-08-09T09:08:27Z</time>
      </trkpt>
      <trkpt lat="45.06474" lon="6.06079">
        <ele>1407.2</ele>
        <time>2024-08-09T09:08:28Z</time>
      </trkpt>
      <trkpt lat="45.06474" lon="6.06079">
        <ele>1407.2</ele>
        <time>2024-08-09T09:08:29Z</time>
      </trkpt>
      <trkpt lat="45.06472" lon="6.06082">
        <ele>1407.2</ele>
        <time>2024-08-09T09:08:30Z</time>
      </trkpt>
      <trkpt lat="45.06472" lon="6.06082">
        <ele>1407.4</ele>
        <time>2024-08-09T09:08:31Z</time>
      </trkpt>
      <trkpt lat="45.06471" lon="6.06086">
        <ele>1407.4</ele>
        <time>2024-08-09T09:08:32Z</time>
      </trkpt>
      <trkpt lat="45.06471" lon="6.06086">
        <ele>1407.6</ele>
        <time>2024-08-09T09:08:33Z</time>
      </trkpt>
      <trkpt lat="45.0647" lon="6.0609">
        <ele>1407.6</ele>
        <time>2024-08-09T09:08:34Z</time>
      </trkpt>
      <trkpt lat="45.0647" lon="6.0609">
        <ele>1407.6</ele>
        <time>2024-08-09T09:08:35Z</time>
      </trkpt>
      <trkpt lat="45.06469" lon="6.06093">
        <ele>1407.6</ele>
        <time>2024-08-09T09:08:36Z</time>
      </trkpt>
      <trkpt lat="45.06469" lon="6.06093">
        <ele>1407.8</ele>
        <time>2024-08-09T09:08:37Z</time>
      </trkpt>
      <trkpt lat="45.06467" lon="6.06096">
        <ele>1407.8</ele>
        <time>2024-08-09T09:08:38Z</time>
      </trkpt>
      <trkpt lat="45.06467" lon="6.06096">
        <ele>1407.6</ele>
        <time>2024-08-09T09:08:39Z</time>
      </trkpt>
      <trkpt lat="45.06466" lon="6.06099">
        <ele>1407.6</ele>
        <time>2024-08-09T09:08:40Z</time>
      </trkpt>
      <trkpt lat="45.06466" lon="6.06099">
        <ele>1407.8</ele>
        <time>2024-08-09T09:08:41Z</time>
      </trkpt>
      <trkpt lat="45.06466" lon="6.06103">
        <ele>1407.8</ele>
        <time>2024-08-09T09:08:42Z</time>
      </trkpt>
      <trkpt lat="45.06466" lon="6.06103">
        <ele>1407.8</ele>
        <time>2024-08-09T09:08:43Z</time>
      </trkpt>
      <trkpt lat="45.06466" lon="6.06107">
        <ele>1407.8</ele>
        <time>2024-08-09T09:08:44Z</time>
      </trkpt>
      <trkpt lat="45.06466" lon="6.06107">
        <ele>1407.8</ele>
        <time>2024-08-09T09:08:45Z</time>
      </trkpt>
      <trkpt lat="45.06465" lon="6.06111">
        <ele>1407.6</ele>
        <time>2024-08-09T09:08:46Z</time>
      </trkpt>
      <trkpt lat="45.06465" lon="6.06111">
        <ele>1407.6</ele>
        <time>2024-08-09T09:08:47Z</time>
      </trkpt>
      <trkpt lat="45.06465" lon="6.06115">
        <ele>1407.6</ele>
        <time>2024-08-09T09:08:48Z</time>
      </trkpt>
      <trkpt lat="45.06465" lon="6.06115">
        <ele>1407.6</ele>
        <time>2024-08-09T09:08:49Z</time>
      </trkpt>
      <trkpt lat="45.06466" lon="6.06118">
        <ele>1407.6</ele>
        <time>2024-08-09T09:08:50Z</time>
      </trkpt>
      <trkpt lat="45.06466" lon="6.06118">
        <ele>1407.6</ele>
        <time>2024-08-09T09:08:51Z</time>
      </trkpt>
      <trkpt lat="45.06468" lon="6.06121">
        <ele>1407.8</ele>
        <time>2024-08-09T09:08:52Z</time>
      </trkpt>
      <trkpt lat="45.06468" lon="6.06121">
        <ele>1407.8</ele>
        <time>2024-08-09T09:08:53Z</time>
      </trkpt>
      <trkpt lat="45.0647" lon="6.06122">
        <ele>1407.8</ele>
        <time>2024-08-09T09:08:54Z</time>
      </trkpt>
      <trkpt lat="45.0647" lon="6.06122">
        <ele>1407.8</ele>
        <time>2024-08-09T09:08:55Z</time>
      </trkpt>
      <trkpt lat="45.06473" lon="6.06123">
        <ele>1407.8</ele>
        <time>2024-08-09T09:08:56Z</time>
      </trkpt>
      <trkpt lat="45.06473" lon="6.06123">
        <ele>1407.8</ele>
        <time>2024-08-09T09:08:57Z</time>
      </trkpt>
      <trkpt lat="45.06476" lon="6.06124">
        <ele>1407.8</ele>
        <time>2024-08-09T09:08:58Z</time>
      </trkpt>
      <trkpt lat="45.06476" lon="6.06124">
        <ele>1407.8</ele>
        <time>2024-08-09T09:08:59Z</time>
      </trkpt>
      <trkpt lat="45.06478" lon="6.06124">
        <ele>1407.8</ele>
        <time>2024-08-09T09:09:00Z</time>
      </trkpt>
      <trkpt lat="45.06478" lon="6.06124">
        <ele>1408</ele>
        <time>2024-08-09T09:09:01Z</time>
      </trkpt>
      <trkpt lat="45.06481" lon="6.06124">
        <ele>1408.2</ele>
        <time>2024-08-09T09:09:02Z</time>
      </trkpt>
      <trkpt lat="45.06481" lon="6.06124">
        <ele>1408.2</ele>
        <time>2024-08-09T09:09:03Z</time>
      </trkpt>
      <trkpt lat="45.06484" lon="6.06124">
        <ele>1408.2</ele>
        <time>2024-08-09T09:09:04Z</time>
      </trkpt>
      <trkpt lat="45.06484" lon="6.06124">
        <ele>1408.2</ele>
        <time>2024-08-09T09:09:05Z</time>
      </trkpt>
      <trkpt lat="45.06486" lon="6.06124">
        <ele>1408.6</ele>
        <time>2024-08-09T09:09:06Z</time>
      </trkpt>
      <trkpt lat="45.06486" lon="6.06124">
        <ele>1408.6</ele>
        <time>2024-08-09T09:09:07Z</time>
      </trkpt>
      <trkpt lat="45.06489" lon="6.06123">
        <ele>1408.6</ele>
        <time>2024-08-09T09:09:08Z</time>
      </trkpt>
      <trkpt lat="45.06489" lon="6.06123">
        <ele>1408.6</ele>
        <time>2024-08-09T09:09:09Z</time>
      </trkpt>
      <trkpt lat="45.06492" lon="6.06122">
        <ele>1408.8</ele>
        <time>2024-08-09T09:09:10Z</time>
      </trkpt>
      <trkpt lat="45.06492" lon="6.06122">
        <ele>1408.8</ele>
        <time>2024-08-09T09:09:11Z</time>
      </trkpt>
      <trkpt lat="45.06494" lon="6.06121">
        <ele>1409</ele>
        <time>2024-08-09T09:09:12Z</time>
      </trkpt>
      <trkpt lat="45.06494" lon="6.06121">
        <ele>1409.2</ele>
        <time>2024-08-09T09:09:13Z</time>
      </trkpt>
      <trkpt lat="45.06497" lon="6.0612">
        <ele>1409.2</ele>
        <time>2024-08-09T09:09:14Z</time>
      </trkpt>
      <trkpt lat="45.06497" lon="6.0612">
        <ele>1409.2</ele>
        <time>2024-08-09T09:09:15Z</time>
      </trkpt>
      <trkpt lat="45.065" lon="6.0612">
        <ele>1409.2</ele>
        <time>2024-08-09T09:09:16Z</time>
      </trkpt>
      <trkpt lat="45.065" lon="6.0612">
        <ele>1409.4</ele>
        <time>2024-08-09T09:09:17Z</time>
      </trkpt>
      <trkpt lat="45.06503" lon="6.0612">
        <ele>1409.4</ele>
        <time>2024-08-09T09:09:18Z</time>
      </trkpt>
      <trkpt lat="45.06503" lon="6.0612">
        <ele>1409.4</ele>
        <time>2024-08-09T09:09:19Z</time>
      </trkpt>
      <trkpt lat="45.06506" lon="6.0612">
        <ele>1409.4</ele>
        <time>2024-08-09T09:09:20Z</time>
      </trkpt>
      <trkpt lat="45.06506" lon="6.0612">
        <ele>1409.8</ele>
        <time>2024-08-09T09:09:21Z</time>
      </trkpt>
      <trkpt lat="45.06509" lon="6.06121">
        <ele>1410.4</ele>
        <time>2024-08-09T09:09:22Z</time>
      </trkpt>
      <trkpt lat="45.06509" lon="6.06121">
        <ele>1410.6</ele>
        <time>2024-08-09T09:09:23Z</time>
      </trkpt>
      <trkpt lat="45.06511" lon="6.06123">
        <ele>1410.6</ele>
        <time>2024-08-09T09:09:24Z</time>
      </trkpt>
      <trkpt lat="45.06511" lon="6.06123">
        <ele>1410.4</ele>
        <time>2024-08-09T09:09:25Z</time>
      </trkpt>
      <trkpt lat="45.06514" lon="6.06124">
        <ele>1410.4</ele>
        <time>2024-08-09T09:09:26Z</time>
      </trkpt>
      <trkpt lat="45.06514" lon="6.06124">
        <ele>1410.6</ele>
        <time>2024-08-09T09:09:27Z</time>
      </trkpt>
      <trkpt lat="45.06516" lon="6.06124">
        <ele>1410.6</ele>
        <time>2024-08-09T09:09:28Z</time>
      </trkpt>
      <trkpt lat="45.06516" lon="6.06124">
        <ele>1410.8</ele>
        <time>2024-08-09T09:09:29Z</time>
      </trkpt>
      <trkpt lat="45.06516" lon="6.06124">
        <ele>1411</ele>
        <time>2024-08-09T09:09:30Z</time>
      </trkpt>
      <trkpt lat="45.06516" lon="6.06124">
        <ele>1411</ele>
        <time>2024-08-09T09:09:31Z</time>
      </trkpt>
      <trkpt lat="45.06518" lon="6.06124">
        <ele>1411</ele>
        <time>2024-08-09T09:09:32Z</time>
      </trkpt>
      <trkpt lat="45.06518" lon="6.06124">
        <ele>1411</ele>
        <time>2024-08-09T09:09:33Z</time>
      </trkpt>
      <trkpt lat="45.0652" lon="6.06125">
        <ele>1410.8</ele>
        <time>2024-08-09T09:09:34Z</time>
      </trkpt>
      <trkpt lat="45.0652" lon="6.06125">
        <ele>1410.8</ele>
        <time>2024-08-09T09:09:35Z</time>
      </trkpt>
      <trkpt lat="45.06522" lon="6.06125">
        <ele>1411</ele>
        <time>2024-08-09T09:09:36Z</time>
      </trkpt>
      <trkpt lat="45.06522" lon="6.06125">
        <ele>1411.2</ele>
        <time>2024-08-09T09:09:37Z</time>
      </trkpt>
      <trkpt lat="45.06525" lon="6.06126">
        <ele>1411.4</ele>
        <time>2024-08-09T09:09:38Z</time>
      </trkpt>
      <trkpt lat="45.06525" lon="6.06126">
        <ele>1411.6</ele>
        <time>2024-08-09T09:09:39Z</time>
      </trkpt>
      <trkpt lat="45.06527" lon="6.06127">
        <ele>1411.6</ele>
        <time>2024-08-09T09:09:40Z</time>
      </trkpt>
      <trkpt lat="45.06527" lon="6.06127">
        <ele>1411.6</ele>
        <time>2024-08-09T09:09:41Z</time>
      </trkpt>
      <trkpt lat="45.0653" lon="6.06127">
        <ele>1411.6</ele>
        <time>2024-08-09T09:09:42Z</time>
      </trkpt>
      <trkpt lat="45.0653" lon="6.06127">
        <ele>1411.6</ele>
        <time>2024-08-09T09:09:43Z</time>
      </trkpt>
      <trkpt lat="45.06532" lon="6.06128">
        <ele>1411.8</ele>
        <time>2024-08-09T09:09:44Z</time>
      </trkpt>
      <trkpt lat="45.06532" lon="6.06128">
        <ele>1412</ele>
        <time>2024-08-09T09:09:45Z</time>
      </trkpt>
      <trkpt lat="45.06535" lon="6.06128">
        <ele>1412</ele>
        <time>2024-08-09T09:09:46Z</time>
      </trkpt>
      <trkpt lat="45.06535" lon="6.06128">
        <ele>1412.2</ele>
        <time>2024-08-09T09:09:47Z</time>
      </trkpt>
      <trkpt lat="45.06537" lon="6.06129">
        <ele>1412.6</ele>
        <time>2024-08-09T09:09:48Z</time>
      </trkpt>
      <trkpt lat="45.06537" lon="6.06129">
        <ele>1412.6</ele>
        <time>2024-08-09T09:09:49Z</time>
      </trkpt>
      <trkpt lat="45.0654" lon="6.0613">
        <ele>1412.8</ele>
        <time>2024-08-09T09:09:50Z</time>
      </trkpt>
      <trkpt lat="45.0654" lon="6.0613">
        <ele>1413</ele>
        <time>2024-08-09T09:09:51Z</time>
      </trkpt>
      <trkpt lat="45.06543" lon="6.06131">
        <ele>1413</ele>
        <time>2024-08-09T09:09:52Z</time>
      </trkpt>
      <trkpt lat="45.06543" lon="6.06131">
        <ele>1413</ele>
        <time>2024-08-09T09:09:53Z</time>
      </trkpt>
      <trkpt lat="45.06545" lon="6.06132">
        <ele>1413.4</ele>
        <time>2024-08-09T09:09:54Z</time>
      </trkpt>
      <trkpt lat="45.06545" lon="6.06132">
        <ele>1413.6</ele>
        <time>2024-08-09T09:09:55Z</time>
      </trkpt>
      <trkpt lat="45.06548" lon="6.06132">
        <ele>1413.8</ele>
        <time>2024-08-09T09:09:56Z</time>
      </trkpt>
      <trkpt lat="45.06548" lon="6.06132">
        <ele>1413.8</ele>
        <time>2024-08-09T09:09:57Z</time>
      </trkpt>
      <trkpt lat="45.06551" lon="6.06133">
        <ele>1414</ele>
        <time>2024-08-09T09:09:58Z</time>
      </trkpt>
      <trkpt lat="45.06551" lon="6.06133">
        <ele>1414</ele>
        <time>2024-08-09T09:09:59Z</time>
      </trkpt>
      <trkpt lat="45.06553" lon="6.06133">
        <ele>1414</ele>
        <time>2024-08-09T09:10:00Z</time>
      </trkpt>
      <trkpt lat="45.06553" lon="6.06133">
        <ele>1414.2</ele>
        <time>2024-08-09T09:10:01Z</time>
      </trkpt>
      <trkpt lat="45.06556" lon="6.06134">
        <ele>1414.4</ele>
        <time>2024-08-09T09:10:02Z</time>
      </trkpt>
      <trkpt lat="45.06556" lon="6.06134">
        <ele>1414.4</ele>
        <time>2024-08-09T09:10:03Z</time>
      </trkpt>
      <trkpt lat="45.06558" lon="6.06134">
        <ele>1414.4</ele>
        <time>2024-08-09T09:10:04Z</time>
      </trkpt>
      <trkpt lat="45.06558" lon="6.06134">
        <ele>1414.6</ele>
        <time>2024-08-09T09:10:05Z</time>
      </trkpt>
      <trkpt lat="45.06561" lon="6.06134">
        <ele>1414.6</ele>
        <time>2024-08-09T09:10:06Z</time>
      </trkpt>
      <trkpt lat="45.06561" lon="6.06134">
        <ele>1414.8</ele>
        <time>2024-08-09T09:10:07Z</time>
      </trkpt>
      <trkpt lat="45.06563" lon="6.06135">
        <ele>1415</ele>
        <time>2024-08-09T09:10:08Z</time>
      </trkpt>
      <trkpt lat="45.06563" lon="6.06135">
        <ele>1415</ele>
        <time>2024-08-09T09:10:09Z</time>
      </trkpt>
      <trkpt lat="45.06565" lon="6.06135">
        <ele>1415.2</ele>
        <time>2024-08-09T09:10:10Z</time>
      </trkpt>
      <trkpt lat="45.06565" lon="6.06135">
        <ele>1415.2</ele>
        <time>2024-08-09T09:10:11Z</time>
      </trkpt>
      <trkpt lat="45.06568" lon="6.06135">
        <ele>1415.2</ele>
        <time>2024-08-09T09:10:12Z</time>
      </trkpt>
      <trkpt lat="45.06568" lon="6.06135">
        <ele>1415.6</ele>
        <time>2024-08-09T09:10:13Z</time>
      </trkpt>
      <trkpt lat="45.0657" lon="6.06135">
        <ele>1415.6</ele>
        <time>2024-08-09T09:10:14Z</time>
      </trkpt>
      <trkpt lat="45.0657" lon="6.06135">
        <ele>1416</ele>
        <time>2024-08-09T09:10:15Z</time>
      </trkpt>
      <trkpt lat="45.06573" lon="6.06135">
        <ele>1416</ele>
        <time>2024-08-09T09:10:16Z</time>
      </trkpt>
      <trkpt lat="45.06573" lon="6.06135">
        <ele>1416.2</ele>
        <time>2024-08-09T09:10:17Z</time>
      </trkpt>
      <trkpt lat="45.06575" lon="6.06135">
        <ele>1416.4</ele>
        <time>2024-08-09T09:10:18Z</time>
      </trkpt>
      <trkpt lat="45.06575" lon="6.06135">
        <ele>1416.6</ele>
        <time>2024-08-09T09:10:19Z</time>
      </trkpt>
      <trkpt lat="45.06578" lon="6.06134">
        <ele>1416.6</ele>
        <time>2024-08-09T09:10:20Z</time>
      </trkpt>
      <trkpt lat="45.06578" lon="6.06134">
        <ele>1416.8</ele>
        <time>2024-08-09T09:10:21Z</time>
      </trkpt>
      <trkpt lat="45.06581" lon="6.06134">
        <ele>1416.8</ele>
        <time>2024-08-09T09:10:22Z</time>
      </trkpt>
      <trkpt lat="45.06581" lon="6.06134">
        <ele>1417</ele>
        <time>2024-08-09T09:10:23Z</time>
      </trkpt>
      <trkpt lat="45.06583" lon="6.06134">
        <ele>1417</ele>
        <time>2024-08-09T09:10:24Z</time>
      </trkpt>
      <trkpt lat="45.06583" lon="6.06134">
        <ele>1417</ele>
        <time>2024-08-09T09:10:25Z</time>
      </trkpt>
      <trkpt lat="45.06586" lon="6.06133">
        <ele>1417</ele>
        <time>2024-08-09T09:10:26Z</time>
      </trkpt>
      <trkpt lat="45.06586" lon="6.06133">
        <ele>1417</ele>
        <time>2024-08-09T09:10:27Z</time>
      </trkpt>
      <trkpt lat="45.06588" lon="6.06133">
        <ele>1417</ele>
        <time>2024-08-09T09:10:28Z</time>
      </trkpt>
      <trkpt lat="45.06588" lon="6.06133">
        <ele>1417.8</ele>
        <time>2024-08-09T09:10:29Z</time>
      </trkpt>
      <trkpt lat="45.0659" lon="6.06133">
        <ele>1418</ele>
        <time>2024-08-09T09:10:30Z</time>
      </trkpt>
      <trkpt lat="45.0659" lon="6.06133">
        <ele>1418.4</ele>
        <time>2024-08-09T09:10:31Z</time>
      </trkpt>
      <trkpt lat="45.06592" lon="6.06132">
        <ele>1418.4</ele>
        <time>2024-08-09T09:10:32Z</time>
      </trkpt>
      <trkpt lat="45.06592" lon="6.06132">
        <ele>1418.2</ele>
        <time>2024-08-09T09:10:33Z</time>
      </trkpt>
      <trkpt lat="45.06595" lon="6.0613">
        <ele>1418.2</ele>
        <time>2024-08-09T09:10:34Z</time>
      </trkpt>
      <trkpt lat="45.06595" lon="6.0613">
        <ele>1418.2</ele>
        <time>2024-08-09T09:10:35Z</time>
      </trkpt>
      <trkpt lat="45.06597" lon="6.0613">
        <ele>1418.4</ele>
        <time>2024-08-09T09:10:36Z</time>
      </trkpt>
      <trkpt lat="45.06597" lon="6.0613">
        <ele>1418.6</ele>
        <time>2024-08-09T09:10:37Z</time>
      </trkpt>
      <trkpt lat="45.066" lon="6.0613">
        <ele>1418.6</ele>
        <time>2024-08-09T09:10:38Z</time>
      </trkpt>
      <trkpt lat="45.066" lon="6.0613">
        <ele>1418.6</ele>
        <time>2024-08-09T09:10:39Z</time>
      </trkpt>
      <trkpt lat="45.06603" lon="6.0613">
        <ele>1419</ele>
        <time>2024-08-09T09:10:40Z</time>
      </trkpt>
      <trkpt lat="45.06603" lon="6.0613">
        <ele>1419</ele>
        <time>2024-08-09T09:10:41Z</time>
      </trkpt>
      <trkpt lat="45.06605" lon="6.06129">
        <ele>1419.2</ele>
        <time>2024-08-09T09:10:42Z</time>
      </trkpt>
      <trkpt lat="45.06605" lon="6.06129">
        <ele>1419.6</ele>
        <time>2024-08-09T09:10:43Z</time>
      </trkpt>
      <trkpt lat="45.06607" lon="6.06129">
        <ele>1419.6</ele>
        <time>2024-08-09T09:10:44Z</time>
      </trkpt>
      <trkpt lat="45.06607" lon="6.06129">
        <ele>1419.6</ele>
        <time>2024-08-09T09:10:45Z</time>
      </trkpt>
      <trkpt lat="45.06611" lon="6.0613">
        <ele>1419.8</ele>
        <time>2024-08-09T09:10:46Z</time>
      </trkpt>
      <trkpt lat="45.06611" lon="6.0613">
        <ele>1420</ele>
        <time>2024-08-09T09:10:47Z</time>
      </trkpt>
      <trkpt lat="45.06613" lon="6.06129">
        <ele>1420</ele>
        <time>2024-08-09T09:10:48Z</time>
      </trkpt>
      <trkpt lat="45.06613" lon="6.06129">
        <ele>1420</ele>
        <time>2024-08-09T09:10:49Z</time>
      </trkpt>
      <trkpt lat="45.06615" lon="6.06128">
        <ele>1420</ele>
        <time>2024-08-09T09:10:50Z</time>
      </trkpt>
      <trkpt lat="45.06615" lon="6.06128">
        <ele>1420.6</ele>
        <time>2024-08-09T09:10:51Z</time>
      </trkpt>
      <trkpt lat="45.06618" lon="6.06126">
        <ele>1421</ele>
        <time>2024-08-09T09:10:52Z</time>
      </trkpt>
      <trkpt lat="45.0662" lon="6.06126">
        <ele>1421.2</ele>
        <time>2024-08-09T09:10:53Z</time>
      </trkpt>
      <trkpt lat="45.0662" lon="6.06126">
        <ele>1421.2</ele>
        <time>2024-08-09T09:10:54Z</time>
      </trkpt>
      <trkpt lat="45.06622" lon="6.06125">
        <ele>1421.2</ele>
        <time>2024-08-09T09:10:55Z</time>
      </trkpt>
      <trkpt lat="45.06622" lon="6.06125">
        <ele>1421.2</ele>
        <time>2024-08-09T09:10:56Z</time>
      </trkpt>
      <trkpt lat="45.06625" lon="6.06124">
        <ele>1421.2</ele>
        <time>2024-08-09T09:10:57Z</time>
      </trkpt>
      <trkpt lat="45.06627" lon="6.06124">
        <ele>1421.2</ele>
        <time>2024-08-09T09:10:58Z</time>
      </trkpt>
      <trkpt lat="45.06627" lon="6.06124">
        <ele>1421.2</ele>
        <time>2024-08-09T09:10:59Z</time>
      </trkpt>
      <trkpt lat="45.06629" lon="6.06123">
        <ele>1421.4</ele>
        <time>2024-08-09T09:11:00Z</time>
      </trkpt>
      <trkpt lat="45.06629" lon="6.06123">
        <ele>1421.6</ele>
        <time>2024-08-09T09:11:01Z</time>
      </trkpt>
      <trkpt lat="45.06632" lon="6.06122">
        <ele>1421.4</ele>
        <time>2024-08-09T09:11:02Z</time>
      </trkpt>
      <trkpt lat="45.06632" lon="6.06122">
        <ele>1421.4</ele>
        <time>2024-08-09T09:11:03Z</time>
      </trkpt>
      <trkpt lat="45.06635" lon="6.06121">
        <ele>1421.6</ele>
        <time>2024-08-09T09:11:04Z</time>
      </trkpt>
      <trkpt lat="45.06635" lon="6.06121">
        <ele>1421.6</ele>
        <time>2024-08-09T09:11:05Z</time>
      </trkpt>
      <trkpt lat="45.06637" lon="6.0612">
        <ele>1421.6</ele>
        <time>2024-08-09T09:11:06Z</time>
      </trkpt>
      <trkpt lat="45.06637" lon="6.0612">
        <ele>1421.8</ele>
        <time>2024-08-09T09:11:07Z</time>
      </trkpt>
      <trkpt lat="45.06639" lon="6.06117">
        <ele>1421.8</ele>
        <time>2024-08-09T09:11:08Z</time>
      </trkpt>
      <trkpt lat="45.0664" lon="6.06116">
        <ele>1421.8</ele>
        <time>2024-08-09T09:11:10Z</time>
      </trkpt>
      <trkpt lat="45.0664" lon="6.06115">
        <ele>1422.4</ele>
        <time>2024-08-09T09:11:11Z</time>
      </trkpt>
      <trkpt lat="45.06641" lon="6.06112">
        <ele>1422.8</ele>
        <time>2024-08-09T09:11:12Z</time>
      </trkpt>
      <trkpt lat="45.06641" lon="6.06112">
        <ele>1422.8</ele>
        <time>2024-08-09T09:11:13Z</time>
      </trkpt>
      <trkpt lat="45.06644" lon="6.06109">
        <ele>1422.8</ele>
        <time>2024-08-09T09:11:14Z</time>
      </trkpt>
      <trkpt lat="45.06644" lon="6.06109">
        <ele>1422.8</ele>
        <time>2024-08-09T09:11:15Z</time>
      </trkpt>
      <trkpt lat="45.06645" lon="6.06106">
        <ele>1423.2</ele>
        <time>2024-08-09T09:11:16Z</time>
      </trkpt>
      <trkpt lat="45.06645" lon="6.06106">
        <ele>1423.2</ele>
        <time>2024-08-09T09:11:17Z</time>
      </trkpt>
      <trkpt lat="45.06647" lon="6.06104">
        <ele>1423.6</ele>
        <time>2024-08-09T09:11:18Z</time>
      </trkpt>
      <trkpt lat="45.06647" lon="6.06104">
        <ele>1423.8</ele>
        <time>2024-08-09T09:11:19Z</time>
      </trkpt>
      <trkpt lat="45.06649" lon="6.06102">
        <ele>1423.8</ele>
        <time>2024-08-09T09:11:20Z</time>
      </trkpt>
      <trkpt lat="45.06649" lon="6.06102">
        <ele>1424</ele>
        <time>2024-08-09T09:11:21Z</time>
      </trkpt>
      <trkpt lat="45.06651" lon="6.06099">
        <ele>1424.2</ele>
        <time>2024-08-09T09:11:22Z</time>
      </trkpt>
      <trkpt lat="45.06651" lon="6.06099">
        <ele>1424.2</ele>
        <time>2024-08-09T09:11:23Z</time>
      </trkpt>
      <trkpt lat="45.06653" lon="6.06097">
        <ele>1424.2</ele>
        <time>2024-08-09T09:11:24Z</time>
      </trkpt>
      <trkpt lat="45.06653" lon="6.06097">
        <ele>1424.2</ele>
        <time>2024-08-09T09:11:25Z</time>
      </trkpt>
      <trkpt lat="45.06654" lon="6.06094">
        <ele>1424.6</ele>
        <time>2024-08-09T09:11:26Z</time>
      </trkpt>
      <trkpt lat="45.06654" lon="6.06094">
        <ele>1424.6</ele>
        <time>2024-08-09T09:11:27Z</time>
      </trkpt>
      <trkpt lat="45.06657" lon="6.06092">
        <ele>1424.6</ele>
        <time>2024-08-09T09:11:28Z</time>
      </trkpt>
      <trkpt lat="45.06657" lon="6.06092">
        <ele>1424.8</ele>
        <time>2024-08-09T09:11:29Z</time>
      </trkpt>
      <trkpt lat="45.06659" lon="6.0609">
        <ele>1425</ele>
        <time>2024-08-09T09:11:30Z</time>
      </trkpt>
      <trkpt lat="45.06659" lon="6.0609">
        <ele>1425.4</ele>
        <time>2024-08-09T09:11:31Z</time>
      </trkpt>
      <trkpt lat="45.06661" lon="6.06087">
        <ele>1425.4</ele>
        <time>2024-08-09T09:11:32Z</time>
      </trkpt>
      <trkpt lat="45.06661" lon="6.06087">
        <ele>1425.4</ele>
        <time>2024-08-09T09:11:33Z</time>
      </trkpt>
      <trkpt lat="45.06663" lon="6.06085">
        <ele>1425.4</ele>
        <time>2024-08-09T09:11:34Z</time>
      </trkpt>
      <trkpt lat="45.06663" lon="6.06085">
        <ele>1425.6</ele>
        <time>2024-08-09T09:11:35Z</time>
      </trkpt>
      <trkpt lat="45.06666" lon="6.06083">
        <ele>1425.8</ele>
        <time>2024-08-09T09:11:36Z</time>
      </trkpt>
      <trkpt lat="45.06666" lon="6.06083">
        <ele>1426</ele>
        <time>2024-08-09T09:11:37Z</time>
      </trkpt>
      <trkpt lat="45.06668" lon="6.06081">
        <ele>1426</ele>
        <time>2024-08-09T09:11:38Z</time>
      </trkpt>
      <trkpt lat="45.06668" lon="6.06081">
        <ele>1426.2</ele>
        <time>2024-08-09T09:11:39Z</time>
      </trkpt>
      <trkpt lat="45.0667" lon="6.06079">
        <ele>1426.2</ele>
        <time>2024-08-09T09:11:40Z</time>
      </trkpt>
      <trkpt lat="45.0667" lon="6.06079">
        <ele>1426.4</ele>
        <time>2024-08-09T09:11:41Z</time>
      </trkpt>
      <trkpt lat="45.06673" lon="6.06077">
        <ele>1426.4</ele>
        <time>2024-08-09T09:11:42Z</time>
      </trkpt>
      <trkpt lat="45.06673" lon="6.06077">
        <ele>1426.4</ele>
        <time>2024-08-09T09:11:43Z</time>
      </trkpt>
      <trkpt lat="45.06675" lon="6.06076">
        <ele>1426.4</ele>
        <time>2024-08-09T09:11:44Z</time>
      </trkpt>
      <trkpt lat="45.06675" lon="6.06076">
        <ele>1426.6</ele>
        <time>2024-08-09T09:11:45Z</time>
      </trkpt>
      <trkpt lat="45.06678" lon="6.06074">
        <ele>1426.8</ele>
        <time>2024-08-09T09:11:46Z</time>
      </trkpt>
      <trkpt lat="45.06678" lon="6.06074">
        <ele>1426.8</ele>
        <time>2024-08-09T09:11:47Z</time>
      </trkpt>
      <trkpt lat="45.0668" lon="6.06072">
        <ele>1427.2</ele>
        <time>2024-08-09T09:11:48Z</time>
      </trkpt>
      <trkpt lat="45.0668" lon="6.06072">
        <ele>1427.4</ele>
        <time>2024-08-09T09:11:49Z</time>
      </trkpt>
      <trkpt lat="45.06682" lon="6.06071">
        <ele>1427.4</ele>
        <time>2024-08-09T09:11:50Z</time>
      </trkpt>
      <trkpt lat="45.06682" lon="6.06071">
        <ele>1427.4</ele>
        <time>2024-08-09T09:11:51Z</time>
      </trkpt>
      <trkpt lat="45.06684" lon="6.0607">
        <ele>1427.4</ele>
        <time>2024-08-09T09:11:52Z</time>
      </trkpt>
      <trkpt lat="45.06684" lon="6.0607">
        <ele>1427.6</ele>
        <time>2024-08-09T09:11:53Z</time>
      </trkpt>
      <trkpt lat="45.06686" lon="6.06068">
        <ele>1427.6</ele>
        <time>2024-08-09T09:11:54Z</time>
      </trkpt>
      <trkpt lat="45.06686" lon="6.06068">
        <ele>1427.6</ele>
        <time>2024-08-09T09:11:55Z</time>
      </trkpt>
      <trkpt lat="45.06688" lon="6.06066">
        <ele>1428</ele>
        <time>2024-08-09T09:11:56Z</time>
      </trkpt>
      <trkpt lat="45.06688" lon="6.06066">
        <ele>1428.2</ele>
        <time>2024-08-09T09:11:57Z</time>
      </trkpt>
      <trkpt lat="45.06691" lon="6.06065">
        <ele>1428.2</ele>
        <time>2024-08-09T09:11:58Z</time>
      </trkpt>
      <trkpt lat="45.06691" lon="6.06065">
        <ele>1428.2</ele>
        <time>2024-08-09T09:11:59Z</time>
      </trkpt>
      <trkpt lat="45.06693" lon="6.06063">
        <ele>1428.6</ele>
        <time>2024-08-09T09:12:00Z</time>
      </trkpt>
      <trkpt lat="45.06693" lon="6.06063">
        <ele>1428.8</ele>
        <time>2024-08-09T09:12:01Z</time>
      </trkpt>
      <trkpt lat="45.06695" lon="6.06062">
        <ele>1429</ele>
        <time>2024-08-09T09:12:02Z</time>
      </trkpt>
      <trkpt lat="45.06695" lon="6.06062">
        <ele>1429</ele>
        <time>2024-08-09T09:12:03Z</time>
      </trkpt>
      <trkpt lat="45.06698" lon="6.0606">
        <ele>1429</ele>
        <time>2024-08-09T09:12:04Z</time>
      </trkpt>
      <trkpt lat="45.06698" lon="6.0606">
        <ele>1429</ele>
        <time>2024-08-09T09:12:05Z</time>
      </trkpt>
      <trkpt lat="45.06698" lon="6.0606">
        <ele>1429.2</ele>
        <time>2024-08-09T09:12:06Z</time>
      </trkpt>
      <trkpt lat="45.06698" lon="6.0606">
        <ele>1429.4</ele>
        <time>2024-08-09T09:12:07Z</time>
      </trkpt>
      <trkpt lat="45.06698" lon="6.0606">
        <ele>1429.4</ele>
        <time>2024-08-09T09:12:08Z</time>
      </trkpt>
      <trkpt lat="45.067" lon="6.06058">
        <ele>1429.6</ele>
        <time>2024-08-09T09:12:09Z</time>
      </trkpt>
      <trkpt lat="45.067" lon="6.06058">
        <ele>1430.2</ele>
        <time>2024-08-09T09:12:10Z</time>
      </trkpt>
      <trkpt lat="45.06702" lon="6.06056">
        <ele>1430.2</ele>
        <time>2024-08-09T09:12:11Z</time>
      </trkpt>
      <trkpt lat="45.06702" lon="6.06056">
        <ele>1430</ele>
        <time>2024-08-09T09:12:12Z</time>
      </trkpt>
      <trkpt lat="45.06705" lon="6.06054">
        <ele>1430</ele>
        <time>2024-08-09T09:12:13Z</time>
      </trkpt>
      <trkpt lat="45.06705" lon="6.06054">
        <ele>1430</ele>
        <time>2024-08-09T09:12:14Z</time>
      </trkpt>
      <trkpt lat="45.06707" lon="6.06053">
        <ele>1430</ele>
        <time>2024-08-09T09:12:15Z</time>
      </trkpt>
      <trkpt lat="45.06707" lon="6.06053">
        <ele>1430.2</ele>
        <time>2024-08-09T09:12:16Z</time>
      </trkpt>
      <trkpt lat="45.06709" lon="6.06052">
        <ele>1430.4</ele>
        <time>2024-08-09T09:12:17Z</time>
      </trkpt>
      <trkpt lat="45.06709" lon="6.06052">
        <ele>1430.6</ele>
        <time>2024-08-09T09:12:18Z</time>
      </trkpt>
      <trkpt lat="45.06711" lon="6.0605">
        <ele>1430.6</ele>
        <time>2024-08-09T09:12:19Z</time>
      </trkpt>
      <trkpt lat="45.06711" lon="6.0605">
        <ele>1430.8</ele>
        <time>2024-08-09T09:12:20Z</time>
      </trkpt>
      <trkpt lat="45.06713" lon="6.06047">
        <ele>1430.8</ele>
        <time>2024-08-09T09:12:21Z</time>
      </trkpt>
      <trkpt lat="45.06713" lon="6.06047">
        <ele>1430.8</ele>
        <time>2024-08-09T09:12:22Z</time>
      </trkpt>
      <trkpt lat="45.06715" lon="6.06045">
        <ele>1431</ele>
        <time>2024-08-09T09:12:23Z</time>
      </trkpt>
      <trkpt lat="45.06715" lon="6.06045">
        <ele>1431.2</ele>
        <time>2024-08-09T09:12:24Z</time>
      </trkpt>
      <trkpt lat="45.06717" lon="6.06044">
        <ele>1431.4</ele>
        <time>2024-08-09T09:12:25Z</time>
      </trkpt>
      <trkpt lat="45.06717" lon="6.06044">
        <ele>1431.6</ele>
        <time>2024-08-09T09:12:26Z</time>
      </trkpt>
      <trkpt lat="45.0672" lon="6.06042">
        <ele>1431.6</ele>
        <time>2024-08-09T09:12:27Z</time>
      </trkpt>
      <trkpt lat="45.0672" lon="6.06042">
        <ele>1431.8</ele>
        <time>2024-08-09T09:12:28Z</time>
      </trkpt>
      <trkpt lat="45.06722" lon="6.06041">
        <ele>1431.8</ele>
        <time>2024-08-09T09:12:29Z</time>
      </trkpt>
      <trkpt lat="45.06722" lon="6.06041">
        <ele>1432</ele>
        <time>2024-08-09T09:12:30Z</time>
      </trkpt>
      <trkpt lat="45.06724" lon="6.06038">
        <ele>1432</ele>
        <time>2024-08-09T09:12:31Z</time>
      </trkpt>
      <trkpt lat="45.06724" lon="6.06038">
        <ele>1432</ele>
        <time>2024-08-09T09:12:32Z</time>
      </trkpt>
      <trkpt lat="45.06726" lon="6.06036">
        <ele>1432</ele>
        <time>2024-08-09T09:12:33Z</time>
      </trkpt>
      <trkpt lat="45.06726" lon="6.06036">
        <ele>1432</ele>
        <time>2024-08-09T09:12:34Z</time>
      </trkpt>
      <trkpt lat="45.06729" lon="6.06035">
        <ele>1432.4</ele>
        <time>2024-08-09T09:12:35Z</time>
      </trkpt>
      <trkpt lat="45.06729" lon="6.06035">
        <ele>1432.6</ele>
        <time>2024-08-09T09:12:36Z</time>
      </trkpt>
      <trkpt lat="45.06732" lon="6.06033">
        <ele>1432.8</ele>
        <time>2024-08-09T09:12:37Z</time>
      </trkpt>
      <trkpt lat="45.06732" lon="6.06033">
        <ele>1432.8</ele>
        <time>2024-08-09T09:12:38Z</time>
      </trkpt>
      <trkpt lat="45.06733" lon="6.06031">
        <ele>1433</ele>
        <time>2024-08-09T09:12:39Z</time>
      </trkpt>
      <trkpt lat="45.06733" lon="6.06031">
        <ele>1433</ele>
        <time>2024-08-09T09:12:40Z</time>
      </trkpt>
      <trkpt lat="45.06736" lon="6.06029">
        <ele>1433.2</ele>
        <time>2024-08-09T09:12:41Z</time>
      </trkpt>
      <trkpt lat="45.06736" lon="6.06029">
        <ele>1433.2</ele>
        <time>2024-08-09T09:12:42Z</time>
      </trkpt>
      <trkpt lat="45.06738" lon="6.06028">
        <ele>1433.4</ele>
        <time>2024-08-09T09:12:43Z</time>
      </trkpt>
      <trkpt lat="45.06738" lon="6.06028">
        <ele>1433.4</ele>
        <time>2024-08-09T09:12:44Z</time>
      </trkpt>
      <trkpt lat="45.06741" lon="6.06027">
        <ele>1433.8</ele>
        <time>2024-08-09T09:12:45Z</time>
      </trkpt>
      <trkpt lat="45.06741" lon="6.06027">
        <ele>1433.8</ele>
        <time>2024-08-09T09:12:46Z</time>
      </trkpt>
      <trkpt lat="45.06743" lon="6.06026">
        <ele>1433.8</ele>
        <time>2024-08-09T09:12:47Z</time>
      </trkpt>
      <trkpt lat="45.06743" lon="6.06026">
        <ele>1433.8</ele>
        <time>2024-08-09T09:12:48Z</time>
      </trkpt>
      <trkpt lat="45.06746" lon="6.06025">
        <ele>1434.2</ele>
        <time>2024-08-09T09:12:49Z</time>
      </trkpt>
      <trkpt lat="45.06746" lon="6.06025">
        <ele>1434.2</ele>
        <time>2024-08-09T09:12:50Z</time>
      </trkpt>
      <trkpt lat="45.06748" lon="6.06023">
        <ele>1434.4</ele>
        <time>2024-08-09T09:12:51Z</time>
      </trkpt>
      <trkpt lat="45.06748" lon="6.06023">
        <ele>1434.6</ele>
        <time>2024-08-09T09:12:52Z</time>
      </trkpt>
      <trkpt lat="45.06749" lon="6.06022">
        <ele>1434.6</ele>
        <time>2024-08-09T09:12:53Z</time>
      </trkpt>
      <trkpt lat="45.06749" lon="6.06022">
        <ele>1434.6</ele>
        <time>2024-08-09T09:12:54Z</time>
      </trkpt>
      <trkpt lat="45.06752" lon="6.06021">
        <ele>1434.8</ele>
        <time>2024-08-09T09:12:55Z</time>
      </trkpt>
      <trkpt lat="45.06752" lon="6.06021">
        <ele>1434.8</ele>
        <time>2024-08-09T09:12:56Z</time>
      </trkpt>
      <trkpt lat="45.06754" lon="6.06019">
        <ele>1435.2</ele>
        <time>2024-08-09T09:12:57Z</time>
      </trkpt>
      <trkpt lat="45.06754" lon="6.06019">
        <ele>1435.2</ele>
        <time>2024-08-09T09:12:58Z</time>
      </trkpt>
      <trkpt lat="45.06757" lon="6.06019">
        <ele>1435.2</ele>
        <time>2024-08-09T09:12:59Z</time>
      </trkpt>
      <trkpt lat="45.06757" lon="6.06019">
        <ele>1435.4</ele>
        <time>2024-08-09T09:13:00Z</time>
      </trkpt>
      <trkpt lat="45.06759" lon="6.06017">
        <ele>1435.4</ele>
        <time>2024-08-09T09:13:01Z</time>
      </trkpt>
      <trkpt lat="45.06759" lon="6.06017">
        <ele>1435.4</ele>
        <time>2024-08-09T09:13:02Z</time>
      </trkpt>
      <trkpt lat="45.06762" lon="6.06016">
        <ele>1435.4</ele>
        <time>2024-08-09T09:13:03Z</time>
      </trkpt>
      <trkpt lat="45.06762" lon="6.06016">
        <ele>1435.4</ele>
        <time>2024-08-09T09:13:04Z</time>
      </trkpt>
      <trkpt lat="45.06765" lon="6.06015">
        <ele>1435.6</ele>
        <time>2024-08-09T09:13:05Z</time>
      </trkpt>
      <trkpt lat="45.06765" lon="6.06015">
        <ele>1435.6</ele>
        <time>2024-08-09T09:13:06Z</time>
      </trkpt>
      <trkpt lat="45.06767" lon="6.06014">
        <ele>1435.8</ele>
        <time>2024-08-09T09:13:07Z</time>
      </trkpt>
      <trkpt lat="45.06767" lon="6.06014">
        <ele>1436</ele>
        <time>2024-08-09T09:13:08Z</time>
      </trkpt>
      <trkpt lat="45.0677" lon="6.06013">
        <ele>1436</ele>
        <time>2024-08-09T09:13:09Z</time>
      </trkpt>
      <trkpt lat="45.0677" lon="6.06013">
        <ele>1436</ele>
        <time>2024-08-09T09:13:10Z</time>
      </trkpt>
      <trkpt lat="45.06773" lon="6.06013">
        <ele>1436</ele>
        <time>2024-08-09T09:13:11Z</time>
      </trkpt>
      <trkpt lat="45.06773" lon="6.06013">
        <ele>1436</ele>
        <time>2024-08-09T09:13:12Z</time>
      </trkpt>
      <trkpt lat="45.06776" lon="6.06012">
        <ele>1436</ele>
        <time>2024-08-09T09:13:13Z</time>
      </trkpt>
      <trkpt lat="45.06776" lon="6.06012">
        <ele>1436.4</ele>
        <time>2024-08-09T09:13:14Z</time>
      </trkpt>
      <trkpt lat="45.06778" lon="6.06011">
        <ele>1436.4</ele>
        <time>2024-08-09T09:13:15Z</time>
      </trkpt>
      <trkpt lat="45.06778" lon="6.06011">
        <ele>1436.6</ele>
        <time>2024-08-09T09:13:16Z</time>
      </trkpt>
      <trkpt lat="45.06781" lon="6.06011">
        <ele>1436.6</ele>
        <time>2024-08-09T09:13:17Z</time>
      </trkpt>
      <trkpt lat="45.06781" lon="6.06011">
        <ele>1436.8</ele>
        <time>2024-08-09T09:13:18Z</time>
      </trkpt>
      <trkpt lat="45.06783" lon="6.0601">
        <ele>1436.8</ele>
        <time>2024-08-09T09:13:19Z</time>
      </trkpt>
      <trkpt lat="45.06783" lon="6.0601">
        <ele>1436.8</ele>
        <time>2024-08-09T09:13:20Z</time>
      </trkpt>
      <trkpt lat="45.06786" lon="6.0601">
        <ele>1436.8</ele>
        <time>2024-08-09T09:13:21Z</time>
      </trkpt>
      <trkpt lat="45.06786" lon="6.0601">
        <ele>1437</ele>
        <time>2024-08-09T09:13:22Z</time>
      </trkpt>
      <trkpt lat="45.06788" lon="6.06009">
        <ele>1437.4</ele>
        <time>2024-08-09T09:13:23Z</time>
      </trkpt>
      <trkpt lat="45.06788" lon="6.06009">
        <ele>1437.4</ele>
        <time>2024-08-09T09:13:24Z</time>
      </trkpt>
      <trkpt lat="45.0679" lon="6.0601">
        <ele>1437.4</ele>
        <time>2024-08-09T09:13:25Z</time>
      </trkpt>
      <trkpt lat="45.0679" lon="6.0601">
        <ele>1437.8</ele>
        <time>2024-08-09T09:13:26Z</time>
      </trkpt>
      <trkpt lat="45.0679" lon="6.0601">
        <ele>1437.8</ele>
        <time>2024-08-09T09:13:27Z</time>
      </trkpt>
      <trkpt lat="45.06793" lon="6.06011">
        <ele>1437.8</ele>
        <time>2024-08-09T09:13:28Z</time>
      </trkpt>
      <trkpt lat="45.06793" lon="6.06011">
        <ele>1438</ele>
        <time>2024-08-09T09:13:29Z</time>
      </trkpt>
      <trkpt lat="45.06796" lon="6.06011">
        <ele>1438</ele>
        <time>2024-08-09T09:13:30Z</time>
      </trkpt>
      <trkpt lat="45.06796" lon="6.06011">
        <ele>1438.2</ele>
        <time>2024-08-09T09:13:31Z</time>
      </trkpt>
      <trkpt lat="45.06798" lon="6.06012">
        <ele>1438.2</ele>
        <time>2024-08-09T09:13:32Z</time>
      </trkpt>
      <trkpt lat="45.06798" lon="6.06012">
        <ele>1438.6</ele>
        <time>2024-08-09T09:13:33Z</time>
      </trkpt>
      <trkpt lat="45.06798" lon="6.06012">
        <ele>1438.8</ele>
        <time>2024-08-09T09:13:34Z</time>
      </trkpt>
      <trkpt lat="45.06798" lon="6.06012">
        <ele>1438.8</ele>
        <time>2024-08-09T09:13:35Z</time>
      </trkpt>
      <trkpt lat="45.06798" lon="6.06012">
        <ele>1438.8</ele>
        <time>2024-08-09T09:13:36Z</time>
      </trkpt>
      <trkpt lat="45.06798" lon="6.06012">
        <ele>1438.8</ele>
        <time>2024-08-09T09:13:37Z</time>
      </trkpt>
      <trkpt lat="45.06798" lon="6.06012">
        <ele>1438.8</ele>
        <time>2024-08-09T09:13:38Z</time>
      </trkpt>
      <trkpt lat="45.06798" lon="6.06012">
        <ele>1438.8</ele>
        <time>2024-08-09T09:13:39Z</time>
      </trkpt>
      <trkpt lat="45.06798" lon="6.06012">
        <ele>1438.8</ele>
        <time>2024-08-09T09:13:40Z</time>
      </trkpt>
      <trkpt lat="45.06798" lon="6.06012">
        <ele>1439</ele>
        <time>2024-08-09T09:13:41Z</time>
      </trkpt>
      <trkpt lat="45.06798" lon="6.06012">
        <ele>1439.2</ele>
        <time>2024-08-09T09:13:42Z</time>
      </trkpt>
      <trkpt lat="45.06798" lon="6.06012">
        <ele>1439.2</ele>
        <time>2024-08-09T09:13:43Z</time>
      </trkpt>
      <trkpt lat="45.06798" lon="6.06012">
        <ele>1438.8</ele>
        <time>2024-08-09T09:13:44Z</time>
      </trkpt>
      <trkpt lat="45.06798" lon="6.06012">
        <ele>1438.6</ele>
        <time>2024-08-09T09:13:45Z</time>
      </trkpt>
      <trkpt lat="45.06798" lon="6.06012">
        <ele>1438.6</ele>
        <time>2024-08-09T09:13:46Z</time>
      </trkpt>
      <trkpt lat="45.06798" lon="6.06012">
        <ele>1438.6</ele>
        <time>2024-08-09T09:13:47Z</time>
      </trkpt>
      <trkpt lat="45.06798" lon="6.06012">
        <ele>1438.6</ele>
        <time>2024-08-09T09:13:48Z</time>
      </trkpt>
      <trkpt lat="45.06798" lon="6.06012">
        <ele>1438.6</ele>
        <time>2024-08-09T09:13:49Z</time>
      </trkpt>
      <trkpt lat="45.06798" lon="6.06012">
        <ele>1438.4</ele>
        <time>2024-08-09T09:13:50Z</time>
      </trkpt>
      <trkpt lat="45.06798" lon="6.06012">
        <ele>1438.4</ele>
        <time>2024-08-09T09:13:51Z</time>
      </trkpt>
      <trkpt lat="45.06798" lon="6.06012">
        <ele>1438.8</ele>
        <time>2024-08-09T09:13:52Z</time>
      </trkpt>
      <trkpt lat="45.06798" lon="6.06012">
        <ele>1438.8</ele>
        <time>2024-08-09T09:13:53Z</time>
      </trkpt>
      <trkpt lat="45.06798" lon="6.06012">
        <ele>1438.8</ele>
        <time>2024-08-09T09:13:54Z</time>
      </trkpt>
      <trkpt lat="45.06798" lon="6.06012">
        <ele>1438.8</ele>
        <time>2024-08-09T09:13:55Z</time>
      </trkpt>
      <trkpt lat="45.06798" lon="6.06012">
        <ele>1438.8</ele>
        <time>2024-08-09T09:13:56Z</time>
      </trkpt>
      <trkpt lat="45.06798" lon="6.06012">
        <ele>1439</ele>
        <time>2024-08-09T09:13:57Z</time>
      </trkpt>
      <trkpt lat="45.06798" lon="6.06012">
        <ele>1439</ele>
        <time>2024-08-09T09:13:58Z</time>
      </trkpt>
      <trkpt lat="45.06798" lon="6.06012">
        <ele>1439</ele>
        <time>2024-08-09T09:13:59Z</time>
      </trkpt>
      <trkpt lat="45.06798" lon="6.06012">
        <ele>1439.2</ele>
        <time>2024-08-09T09:14:00Z</time>
      </trkpt>
      <trkpt lat="45.06798" lon="6.06012">
        <ele>1439.2</ele>
        <time>2024-08-09T09:14:01Z</time>
      </trkpt>
      <trkpt lat="45.06798" lon="6.06012">
        <ele>1439.2</ele>
        <time>2024-08-09T09:14:02Z</time>
      </trkpt>
      <trkpt lat="45.06798" lon="6.06012">
        <ele>1439.2</ele>
        <time>2024-08-09T09:14:03Z</time>
      </trkpt>
      <trkpt lat="45.06798" lon="6.06012">
        <ele>1438.8</ele>
        <time>2024-08-09T09:14:04Z</time>
      </trkpt>
      <trkpt lat="45.06798" lon="6.06012">
        <ele>1438.8</ele>
        <time>2024-08-09T09:14:05Z</time>
      </trkpt>
      <trkpt lat="45.06798" lon="6.06012">
        <ele>1438.8</ele>
        <time>2024-08-09T09:14:06Z</time>
      </trkpt>
      <trkpt lat="45.06798" lon="6.06012">
        <ele>1438.8</ele>
        <time>2024-08-09T09:14:07Z</time>
      </trkpt>
      <trkpt lat="45.06798" lon="6.06012">
        <ele>1438.8</ele>
        <time>2024-08-09T09:14:08Z</time>
      </trkpt>
      <trkpt lat="45.06798" lon="6.06012">
        <ele>1438.8</ele>
        <time>2024-08-09T09:14:09Z</time>
      </trkpt>
      <trkpt lat="45.06798" lon="6.06012">
        <ele>1439</ele>
        <time>2024-08-09T09:14:10Z</time>
      </trkpt>
      <trkpt lat="45.06798" lon="6.06012">
        <ele>1439</ele>
        <time>2024-08-09T09:14:11Z</time>
      </trkpt>
      <trkpt lat="45.06798" lon="6.06012">
        <ele>1439</ele>
        <time>2024-08-09T09:14:12Z</time>
      </trkpt>
      <trkpt lat="45.06798" lon="6.06012">
        <ele>1439</ele>
        <time>2024-08-09T09:14:13Z</time>
      </trkpt>
      <trkpt lat="45.06798" lon="6.06012">
        <ele>1439</ele>
        <time>2024-08-09T09:14:14Z</time>
      </trkpt>
      <trkpt lat="45.06798" lon="6.06012">
        <ele>1439.2</ele>
        <time>2024-08-09T09:14:15Z</time>
      </trkpt>
      <trkpt lat="45.06798" lon="6.06012">
        <ele>1439.2</ele>
        <time>2024-08-09T09:14:16Z</time>
      </trkpt>
      <trkpt lat="45.06798" lon="6.06012">
        <ele>1439.4</ele>
        <time>2024-08-09T09:14:17Z</time>
      </trkpt>
      <trkpt lat="45.06798" lon="6.06012">
        <ele>1439.4</ele>
        <time>2024-08-09T09:14:18Z</time>
      </trkpt>
      <trkpt lat="45.06798" lon="6.06012">
        <ele>1439.4</ele>
        <time>2024-08-09T09:14:19Z</time>
      </trkpt>
      <trkpt lat="45.06798" lon="6.06012">
        <ele>1439.4</ele>
        <time>2024-08-09T09:14:20Z</time>
      </trkpt>
      <trkpt lat="45.06798" lon="6.06012">
        <ele>1439.4</ele>
        <time>2024-08-09T09:14:21Z</time>
      </trkpt>
      <trkpt lat="45.06798" lon="6.06012">
        <ele>1439</ele>
        <time>2024-08-09T09:14:22Z</time>
      </trkpt>
      <trkpt lat="45.06798" lon="6.06012">
        <ele>1439</ele>
        <time>2024-08-09T09:14:23Z</time>
      </trkpt>
      <trkpt lat="45.06798" lon="6.06012">
        <ele>1439</ele>
        <time>2024-08-09T09:14:24Z</time>
      </trkpt>
      <trkpt lat="45.06798" lon="6.06012">
        <ele>1439.4</ele>
        <time>2024-08-09T09:14:25Z</time>
      </trkpt>
      <trkpt lat="45.06798" lon="6.06012">
        <ele>1439.4</ele>
        <time>2024-08-09T09:14:26Z</time>
      </trkpt>
      <trkpt lat="45.06798" lon="6.06012">
        <ele>1439.2</ele>
        <time>2024-08-09T09:14:27Z</time>
      </trkpt>
      <trkpt lat="45.06798" lon="6.06012">
        <ele>1439</ele>
        <time>2024-08-09T09:14:28Z</time>
      </trkpt>
      <trkpt lat="45.06798" lon="6.06012">
        <ele>1439</ele>
        <time>2024-08-09T09:14:29Z</time>
      </trkpt>
      <trkpt lat="45.06798" lon="6.06012">
        <ele>1439.2</ele>
        <time>2024-08-09T09:14:30Z</time>
      </trkpt>
      <trkpt lat="45.06798" lon="6.06012">
        <ele>1439.2</ele>
        <time>2024-08-09T09:14:31Z</time>
      </trkpt>
      <trkpt lat="45.06798" lon="6.06012">
        <ele>1439.2</ele>
        <time>2024-08-09T09:14:32Z</time>
      </trkpt>
      <trkpt lat="45.06798" lon="6.06012">
        <ele>1439.2</ele>
        <time>2024-08-09T09:14:33Z</time>
      </trkpt>
      <trkpt lat="45.06798" lon="6.06012">
        <ele>1439</ele>
        <time>2024-08-09T09:14:34Z</time>
      </trkpt>
      <trkpt lat="45.06798" lon="6.06012">
        <ele>1439</ele>
        <time>2024-08-09T09:14:35Z</time>
      </trkpt>
      <trkpt lat="45.06798" lon="6.06012">
        <ele>1439</ele>
        <time>2024-08-09T09:14:36Z</time>
      </trkpt>
      <trkpt lat="45.06798" lon="6.06012">
        <ele>1439.2</ele>
        <time>2024-08-09T09:14:37Z</time>
      </trkpt>
      <trkpt lat="45.06798" lon="6.06012">
        <ele>1439.6</ele>
        <time>2024-08-09T09:14:38Z</time>
      </trkpt>
      <trkpt lat="45.06798" lon="6.06012">
        <ele>1439.6</ele>
        <time>2024-08-09T09:14:39Z</time>
      </trkpt>
      <trkpt lat="45.06798" lon="6.06012">
        <ele>1439.6</ele>
        <time>2024-08-09T09:14:40Z</time>
      </trkpt>
      <trkpt lat="45.06798" lon="6.06012">
        <ele>1439.6</ele>
        <time>2024-08-09T09:14:41Z</time>
      </trkpt>
      <trkpt lat="45.06798" lon="6.06012">
        <ele>1439.6</ele>
        <time>2024-08-09T09:14:42Z</time>
      </trkpt>
      <trkpt lat="45.06798" lon="6.06012">
        <ele>1439.8</ele>
        <time>2024-08-09T09:14:43Z</time>
      </trkpt>
      <trkpt lat="45.06798" lon="6.06012">
        <ele>1439.8</ele>
        <time>2024-08-09T09:14:44Z</time>
      </trkpt>
      <trkpt lat="45.06798" lon="6.06012">
        <ele>1439.8</ele>
        <time>2024-08-09T09:14:45Z</time>
      </trkpt>
      <trkpt lat="45.06798" lon="6.06012">
        <ele>1439.6</ele>
        <time>2024-08-09T09:14:46Z</time>
      </trkpt>
      <trkpt lat="45.06798" lon="6.06012">
        <ele>1439.4</ele>
        <time>2024-08-09T09:14:47Z</time>
      </trkpt>
      <trkpt lat="45.06798" lon="6.06012">
        <ele>1439.2</ele>
        <time>2024-08-09T09:14:48Z</time>
      </trkpt>
      <trkpt lat="45.06798" lon="6.06012">
        <ele>1439</ele>
        <time>2024-08-09T09:14:49Z</time>
      </trkpt>
      <trkpt lat="45.06798" lon="6.06012">
        <ele>1439</ele>
        <time>2024-08-09T09:14:50Z</time>
      </trkpt>
      <trkpt lat="45.06798" lon="6.06012">
        <ele>1439</ele>
        <time>2024-08-09T09:14:51Z</time>
      </trkpt>
      <trkpt lat="45.06798" lon="6.06012">
        <ele>1438.6</ele>
        <time>2024-08-09T09:14:52Z</time>
      </trkpt>
      <trkpt lat="45.06798" lon="6.06012">
        <ele>1438.6</ele>
        <time>2024-08-09T09:14:53Z</time>
      </trkpt>
      <trkpt lat="45.06798" lon="6.06012">
        <ele>1438.6</ele>
        <time>2024-08-09T09:14:54Z</time>
      </trkpt>
      <trkpt lat="45.06798" lon="6.06012">
        <ele>1438.8</ele>
        <time>2024-08-09T09:14:55Z</time>
      </trkpt>
      <trkpt lat="45.06798" lon="6.06012">
        <ele>1438.8</ele>
        <time>2024-08-09T09:14:56Z</time>
      </trkpt>
      <trkpt lat="45.06798" lon="6.06012">
        <ele>1439</ele>
        <time>2024-08-09T09:14:57Z</time>
      </trkpt>
      <trkpt lat="45.06798" lon="6.06012">
        <ele>1439</ele>
        <time>2024-08-09T09:14:58Z</time>
      </trkpt>
      <trkpt lat="45.06798" lon="6.06012">
        <ele>1439</ele>
        <time>2024-08-09T09:14:59Z</time>
      </trkpt>
      <trkpt lat="45.06798" lon="6.06012">
        <ele>1439</ele>
        <time>2024-08-09T09:15:00Z</time>
      </trkpt>
      <trkpt lat="45.06798" lon="6.06012">
        <ele>1439</ele>
        <time>2024-08-09T09:15:01Z</time>
      </trkpt>
      <trkpt lat="45.06798" lon="6.06012">
        <ele>1439.2</ele>
        <time>2024-08-09T09:15:02Z</time>
      </trkpt>
      <trkpt lat="45.06798" lon="6.06012">
        <ele>1439.2</ele>
        <time>2024-08-09T09:15:03Z</time>
      </trkpt>
      <trkpt lat="45.06798" lon="6.06012">
        <ele>1439.2</ele>
        <time>2024-08-09T09:15:04Z</time>
      </trkpt>
      <trkpt lat="45.06796" lon="6.06014">
        <ele>1438.8</ele>
        <time>2024-08-09T09:15:05Z</time>
      </trkpt>
      <trkpt lat="45.06794" lon="6.06014">
        <ele>1438.8</ele>
        <time>2024-08-09T09:15:06Z</time>
      </trkpt>
      <trkpt lat="45.06792" lon="6.06014">
        <ele>1438.8</ele>
        <time>2024-08-09T09:15:07Z</time>
      </trkpt>
      <trkpt lat="45.0679" lon="6.06014">
        <ele>1438.6</ele>
        <time>2024-08-09T09:15:08Z</time>
      </trkpt>
      <trkpt lat="45.0679" lon="6.06014">
        <ele>1438.6</ele>
        <time>2024-08-09T09:15:09Z</time>
      </trkpt>
      <trkpt lat="45.06788" lon="6.06012">
        <ele>1438.4</ele>
        <time>2024-08-09T09:15:10Z</time>
      </trkpt>
      <trkpt lat="45.06788" lon="6.06012">
        <ele>1438.2</ele>
        <time>2024-08-09T09:15:11Z</time>
      </trkpt>
      <trkpt lat="45.06788" lon="6.06012">
        <ele>1438</ele>
        <time>2024-08-09T09:15:12Z</time>
      </trkpt>
      <trkpt lat="45.06788" lon="6.06012">
        <ele>1438</ele>
        <time>2024-08-09T09:15:13Z</time>
      </trkpt>
      <trkpt lat="45.06788" lon="6.06009">
        <ele>1438</ele>
        <time>2024-08-09T09:15:14Z</time>
      </trkpt>
      <trkpt lat="45.06788" lon="6.06009">
        <ele>1438</ele>
        <time>2024-08-09T09:15:15Z</time>
      </trkpt>
      <trkpt lat="45.06788" lon="6.06009">
        <ele>1438.2</ele>
        <time>2024-08-09T09:15:16Z</time>
      </trkpt>
      <trkpt lat="45.06788" lon="6.06009">
        <ele>1438.2</ele>
        <time>2024-08-09T09:15:17Z</time>
      </trkpt>
      <trkpt lat="45.06788" lon="6.06009">
        <ele>1438.4</ele>
        <time>2024-08-09T09:15:18Z</time>
      </trkpt>
      <trkpt lat="45.06788" lon="6.06009">
        <ele>1438.4</ele>
        <time>2024-08-09T09:15:19Z</time>
      </trkpt>
      <trkpt lat="45.06788" lon="6.06009">
        <ele>1438.2</ele>
        <time>2024-08-09T09:15:20Z</time>
      </trkpt>
      <trkpt lat="45.06788" lon="6.06009">
        <ele>1438.2</ele>
        <time>2024-08-09T09:15:21Z</time>
      </trkpt>
      <trkpt lat="45.06788" lon="6.06009">
        <ele>1438</ele>
        <time>2024-08-09T09:15:22Z</time>
      </trkpt>
      <trkpt lat="45.06788" lon="6.06009">
        <ele>1438</ele>
        <time>2024-08-09T09:15:23Z</time>
      </trkpt>
      <trkpt lat="45.06788" lon="6.06009">
        <ele>1438.2</ele>
        <time>2024-08-09T09:15:24Z</time>
      </trkpt>
      <trkpt lat="45.06788" lon="6.06009">
        <ele>1438.2</ele>
        <time>2024-08-09T09:15:25Z</time>
      </trkpt>
      <trkpt lat="45.06788" lon="6.06009">
        <ele>1438.2</ele>
        <time>2024-08-09T09:15:26Z</time>
      </trkpt>
      <trkpt lat="45.06788" lon="6.06009">
        <ele>1438.2</ele>
        <time>2024-08-09T09:15:27Z</time>
      </trkpt>
      <trkpt lat="45.06788" lon="6.06009">
        <ele>1438.2</ele>
        <time>2024-08-09T09:15:28Z</time>
      </trkpt>
      <trkpt lat="45.06788" lon="6.06009">
        <ele>1438.2</ele>
        <time>2024-08-09T09:15:29Z</time>
      </trkpt>
      <trkpt lat="45.06788" lon="6.06009">
        <ele>1438.2</ele>
        <time>2024-08-09T09:15:30Z</time>
      </trkpt>
      <trkpt lat="45.06788" lon="6.06009">
        <ele>1438.2</ele>
        <time>2024-08-09T09:15:31Z</time>
      </trkpt>
      <trkpt lat="45.06788" lon="6.06009">
        <ele>1438.2</ele>
        <time>2024-08-09T09:15:32Z</time>
      </trkpt>
      <trkpt lat="45.06788" lon="6.06009">
        <ele>1438.2</ele>
        <time>2024-08-09T09:15:33Z</time>
      </trkpt>
      <trkpt lat="45.06788" lon="6.06009">
        <ele>1438.4</ele>
        <time>2024-08-09T09:15:34Z</time>
      </trkpt>
      <trkpt lat="45.06788" lon="6.06009">
        <ele>1438.4</ele>
        <time>2024-08-09T09:15:35Z</time>
      </trkpt>
      <trkpt lat="45.06788" lon="6.06009">
        <ele>1438.4</ele>
        <time>2024-08-09T09:15:36Z</time>
      </trkpt>
      <trkpt lat="45.06788" lon="6.06009">
        <ele>1438.2</ele>
        <time>2024-08-09T09:15:37Z</time>
      </trkpt>
      <trkpt lat="45.06788" lon="6.06009">
        <ele>1438.2</ele>
        <time>2024-08-09T09:15:38Z</time>
      </trkpt>
      <trkpt lat="45.06788" lon="6.06009">
        <ele>1438.4</ele>
        <time>2024-08-09T09:15:39Z</time>
      </trkpt>
      <trkpt lat="45.06788" lon="6.06009">
        <ele>1438.4</ele>
        <time>2024-08-09T09:15:40Z</time>
      </trkpt>
      <trkpt lat="45.06788" lon="6.06009">
        <ele>1438.6</ele>
        <time>2024-08-09T09:15:41Z</time>
      </trkpt>
      <trkpt lat="45.06788" lon="6.06009">
        <ele>1438.8</ele>
        <time>2024-08-09T09:15:42Z</time>
      </trkpt>
      <trkpt lat="45.06788" lon="6.06009">
        <ele>1439</ele>
        <time>2024-08-09T09:15:43Z</time>
      </trkpt>
      <trkpt lat="45.0679" lon="6.06008">
        <ele>1439</ele>
        <time>2024-08-09T09:15:44Z</time>
      </trkpt>
      <trkpt lat="45.0679" lon="6.06008">
        <ele>1439</ele>
        <time>2024-08-09T09:15:45Z</time>
      </trkpt>
      <trkpt lat="45.06793" lon="6.06009">
        <ele>1439.2</ele>
        <time>2024-08-09T09:15:46Z</time>
      </trkpt>
      <trkpt lat="45.06793" lon="6.06009">
        <ele>1439.2</ele>
        <time>2024-08-09T09:15:47Z</time>
      </trkpt>
      <trkpt lat="45.06796" lon="6.06011">
        <ele>1439.4</ele>
        <time>2024-08-09T09:15:48Z</time>
      </trkpt>
      <trkpt lat="45.06796" lon="6.06011">
        <ele>1439.4</ele>
        <time>2024-08-09T09:15:49Z</time>
      </trkpt>
      <trkpt lat="45.06797" lon="6.06011">
        <ele>1439.4</ele>
        <time>2024-08-09T09:15:50Z</time>
      </trkpt>
      <trkpt lat="45.06797" lon="6.06011">
        <ele>1439.4</ele>
        <time>2024-08-09T09:15:51Z</time>
      </trkpt>
      <trkpt lat="45.06797" lon="6.06011">
        <ele>1439.6</ele>
        <time>2024-08-09T09:15:52Z</time>
      </trkpt>
      <trkpt lat="45.06799" lon="6.06011">
        <ele>1439.6</ele>
        <time>2024-08-09T09:15:53Z</time>
      </trkpt>
      <trkpt lat="45.06799" lon="6.06011">
        <ele>1439.8</ele>
        <time>2024-08-09T09:15:54Z</time>
      </trkpt>
      <trkpt lat="45.06799" lon="6.06011">
        <ele>1439.8</ele>
        <time>2024-08-09T09:15:55Z</time>
      </trkpt>
      <trkpt lat="45.06799" lon="6.06011">
        <ele>1439.4</ele>
        <time>2024-08-09T09:15:56Z</time>
      </trkpt>
      <trkpt lat="45.06799" lon="6.06011">
        <ele>1439.6</ele>
        <time>2024-08-09T09:15:57Z</time>
      </trkpt>
      <trkpt lat="45.06799" lon="6.06011">
        <ele>1439.6</ele>
        <time>2024-08-09T09:15:58Z</time>
      </trkpt>
      <trkpt lat="45.06799" lon="6.06011">
        <ele>1439.6</ele>
        <time>2024-08-09T09:15:59Z</time>
      </trkpt>
      <trkpt lat="45.06799" lon="6.06011">
        <ele>1439.6</ele>
        <time>2024-08-09T09:16:00Z</time>
      </trkpt>
      <trkpt lat="45.06799" lon="6.06011">
        <ele>1439.8</ele>
        <time>2024-08-09T09:16:01Z</time>
      </trkpt>
      <trkpt lat="45.06799" lon="6.06011">
        <ele>1440</ele>
        <time>2024-08-09T09:16:02Z</time>
      </trkpt>
      <trkpt lat="45.06799" lon="6.06011">
        <ele>1440</ele>
        <time>2024-08-09T09:16:03Z</time>
      </trkpt>
      <trkpt lat="45.06799" lon="6.06011">
        <ele>1440.2</ele>
        <time>2024-08-09T09:16:04Z</time>
      </trkpt>
      <trkpt lat="45.06799" lon="6.06011">
        <ele>1440.2</ele>
        <time>2024-08-09T09:16:05Z</time>
      </trkpt>
      <trkpt lat="45.06799" lon="6.06011">
        <ele>1440.4</ele>
        <time>2024-08-09T09:16:06Z</time>
      </trkpt>
      <trkpt lat="45.06799" lon="6.06011">
        <ele>1440.4</ele>
        <time>2024-08-09T09:16:07Z</time>
      </trkpt>
      <trkpt lat="45.06799" lon="6.06011">
        <ele>1440.2</ele>
        <time>2024-08-09T09:16:08Z</time>
      </trkpt>
      <trkpt lat="45.06799" lon="6.06011">
        <ele>1440.2</ele>
        <time>2024-08-09T09:16:09Z</time>
      </trkpt>
      <trkpt lat="45.06799" lon="6.06011">
        <ele>1440.2</ele>
        <time>2024-08-09T09:16:10Z</time>
      </trkpt>
      <trkpt lat="45.06799" lon="6.06011">
        <ele>1440.2</ele>
        <time>2024-08-09T09:16:11Z</time>
      </trkpt>
      <trkpt lat="45.06799" lon="6.06011">
        <ele>1440.2</ele>
        <time>2024-08-09T09:16:12Z</time>
      </trkpt>
      <trkpt lat="45.06799" lon="6.06011">
        <ele>1440.2</ele>
        <time>2024-08-09T09:16:13Z</time>
      </trkpt>
      <trkpt lat="45.06799" lon="6.06011">
        <ele>1440</ele>
        <time>2024-08-09T09:16:14Z</time>
      </trkpt>
      <trkpt lat="45.06799" lon="6.06011">
        <ele>1440</ele>
        <time>2024-08-09T09:16:15Z</time>
      </trkpt>
      <trkpt lat="45.06799" lon="6.06011">
        <ele>1440</ele>
        <time>2024-08-09T09:16:16Z</time>
      </trkpt>
      <trkpt lat="45.06799" lon="6.06011">
        <ele>1440</ele>
        <time>2024-08-09T09:16:17Z</time>
      </trkpt>
      <trkpt lat="45.06799" lon="6.06011">
        <ele>1440.2</ele>
        <time>2024-08-09T09:16:18Z</time>
      </trkpt>
      <trkpt lat="45.06799" lon="6.06011">
        <ele>1440.2</ele>
        <time>2024-08-09T09:16:19Z</time>
      </trkpt>
      <trkpt lat="45.06799" lon="6.06011">
        <ele>1439.8</ele>
        <time>2024-08-09T09:16:20Z</time>
      </trkpt>
      <trkpt lat="45.06799" lon="6.06011">
        <ele>1439.8</ele>
        <time>2024-08-09T09:16:21Z</time>
      </trkpt>
      <trkpt lat="45.06799" lon="6.06011">
        <ele>1439.8</ele>
        <time>2024-08-09T09:16:22Z</time>
      </trkpt>
      <trkpt lat="45.06799" lon="6.06011">
        <ele>1439.6</ele>
        <time>2024-08-09T09:16:23Z</time>
      </trkpt>
      <trkpt lat="45.06799" lon="6.06011">
        <ele>1439.6</ele>
        <time>2024-08-09T09:16:24Z</time>
      </trkpt>
      <trkpt lat="45.06799" lon="6.06011">
        <ele>1439.6</ele>
        <time>2024-08-09T09:16:25Z</time>
      </trkpt>
      <trkpt lat="45.06799" lon="6.06011">
        <ele>1439.8</ele>
        <time>2024-08-09T09:16:26Z</time>
      </trkpt>
      <trkpt lat="45.06799" lon="6.06011">
        <ele>1439.8</ele>
        <time>2024-08-09T09:16:27Z</time>
      </trkpt>
      <trkpt lat="45.06799" lon="6.06011">
        <ele>1440</ele>
        <time>2024-08-09T09:16:28Z</time>
      </trkpt>
      <trkpt lat="45.06799" lon="6.06011">
        <ele>1440</ele>
        <time>2024-08-09T09:16:29Z</time>
      </trkpt>
      <trkpt lat="45.06799" lon="6.06011">
        <ele>1440.2</ele>
        <time>2024-08-09T09:16:30Z</time>
      </trkpt>
      <trkpt lat="45.06799" lon="6.06011">
        <ele>1440.2</ele>
        <time>2024-08-09T09:16:31Z</time>
      </trkpt>
      <trkpt lat="45.06799" lon="6.06011">
        <ele>1440.2</ele>
        <time>2024-08-09T09:16:32Z</time>
      </trkpt>
      <trkpt lat="45.06799" lon="6.06011">
        <ele>1440.2</ele>
        <time>2024-08-09T09:16:33Z</time>
      </trkpt>
      <trkpt lat="45.06799" lon="6.06011">
        <ele>1440</ele>
        <time>2024-08-09T09:16:34Z</time>
      </trkpt>
      <trkpt lat="45.06799" lon="6.06011">
        <ele>1440</ele>
        <time>2024-08-09T09:16:35Z</time>
      </trkpt>
      <trkpt lat="45.06799" lon="6.06011">
        <ele>1440.2</ele>
        <time>2024-08-09T09:16:36Z</time>
      </trkpt>
      <trkpt lat="45.06799" lon="6.06011">
        <ele>1440.2</ele>
        <time>2024-08-09T09:16:37Z</time>
      </trkpt>
      <trkpt lat="45.06799" lon="6.06011">
        <ele>1440.2</ele>
        <time>2024-08-09T09:16:38Z</time>
      </trkpt>
      <trkpt lat="45.06799" lon="6.06011">
        <ele>1440.2</ele>
        <time>2024-08-09T09:16:39Z</time>
      </trkpt>
      <trkpt lat="45.06799" lon="6.06011">
        <ele>1440.2</ele>
        <time>2024-08-09T09:16:40Z</time>
      </trkpt>
      <trkpt lat="45.06799" lon="6.06011">
        <ele>1440</ele>
        <time>2024-08-09T09:16:41Z</time>
      </trkpt>
      <trkpt lat="45.06799" lon="6.06011">
        <ele>1440</ele>
        <time>2024-08-09T09:16:42Z</time>
      </trkpt>
      <trkpt lat="45.06799" lon="6.06011">
        <ele>1440</ele>
        <time>2024-08-09T09:16:43Z</time>
      </trkpt>
      <trkpt lat="45.06799" lon="6.06011">
        <ele>1440</ele>
        <time>2024-08-09T09:16:44Z</time>
      </trkpt>
      <trkpt lat="45.06799" lon="6.06011">
        <ele>1440</ele>
        <time>2024-08-09T09:16:45Z</time>
      </trkpt>
      <trkpt lat="45.06799" lon="6.06011">
        <ele>1440</ele>
        <time>2024-08-09T09:16:46Z</time>
      </trkpt>
      <trkpt lat="45.06799" lon="6.06011">
        <ele>1440</ele>
        <time>2024-08-09T09:16:47Z</time>
      </trkpt>
      <trkpt lat="45.06799" lon="6.06011">
        <ele>1440</ele>
        <time>2024-08-09T09:16:48Z</time>
      </trkpt>
      <trkpt lat="45.06799" lon="6.06011">
        <ele>1440</ele>
        <time>2024-08-09T09:16:49Z</time>
      </trkpt>
      <trkpt lat="45.06799" lon="6.06011">
        <ele>1440</ele>
        <time>2024-08-09T09:16:50Z</time>
      </trkpt>
      <trkpt lat="45.06799" lon="6.06011">
        <ele>1440</ele>
        <time>2024-08-09T09:16:51Z</time>
      </trkpt>
      <trkpt lat="45.06799" lon="6.06011">
        <ele>1440.2</ele>
        <time>2024-08-09T09:16:52Z</time>
      </trkpt>
      <trkpt lat="45.06799" lon="6.06011">
        <ele>1440.2</ele>
        <time>2024-08-09T09:16:53Z</time>
      </trkpt>
      <trkpt lat="45.06799" lon="6.06011">
        <ele>1440.2</ele>
        <time>2024-08-09T09:16:54Z</time>
      </trkpt>
      <trkpt lat="45.06799" lon="6.06011">
        <ele>1440.2</ele>
        <time>2024-08-09T09:16:55Z</time>
      </trkpt>
      <trkpt lat="45.06799" lon="6.06011">
        <ele>1440.2</ele>
        <time>2024-08-09T09:16:56Z</time>
      </trkpt>
      <trkpt lat="45.06799" lon="6.06011">
        <ele>1440.4</ele>
        <time>2024-08-09T09:16:57Z</time>
      </trkpt>
      <trkpt lat="45.06799" lon="6.06011">
        <ele>1440.4</ele>
        <time>2024-08-09T09:16:58Z</time>
      </trkpt>
      <trkpt lat="45.06799" lon="6.06011">
        <ele>1440.6</ele>
        <time>2024-08-09T09:16:59Z</time>
      </trkpt>
      <trkpt lat="45.06799" lon="6.06011">
        <ele>1440.8</ele>
        <time>2024-08-09T09:17:00Z</time>
      </trkpt>
      <trkpt lat="45.06799" lon="6.06011">
        <ele>1440.8</ele>
        <time>2024-08-09T09:17:01Z</time>
      </trkpt>
      <trkpt lat="45.06799" lon="6.06011">
        <ele>1440.4</ele>
        <time>2024-08-09T09:17:02Z</time>
      </trkpt>
      <trkpt lat="45.06799" lon="6.06011">
        <ele>1440.4</ele>
        <time>2024-08-09T09:17:03Z</time>
      </trkpt>
      <trkpt lat="45.06799" lon="6.06011">
        <ele>1440.6</ele>
        <time>2024-08-09T09:17:04Z</time>
      </trkpt>
      <trkpt lat="45.06799" lon="6.06011">
        <ele>1440.8</ele>
        <time>2024-08-09T09:17:05Z</time>
      </trkpt>
      <trkpt lat="45.06799" lon="6.06011">
        <ele>1440.8</ele>
        <time>2024-08-09T09:17:06Z</time>
      </trkpt>
      <trkpt lat="45.06799" lon="6.06011">
        <ele>1441.2</ele>
        <time>2024-08-09T09:17:07Z</time>
      </trkpt>
      <trkpt lat="45.06799" lon="6.06011">
        <ele>1441.6</ele>
        <time>2024-08-09T09:17:08Z</time>
      </trkpt>
      <trkpt lat="45.06799" lon="6.06011">
        <ele>1441.6</ele>
        <time>2024-08-09T09:17:09Z</time>
      </trkpt>
      <trkpt lat="45.06799" lon="6.06011">
        <ele>1441.4</ele>
        <time>2024-08-09T09:17:10Z</time>
      </trkpt>
      <trkpt lat="45.06799" lon="6.06011">
        <ele>1441</ele>
        <time>2024-08-09T09:17:11Z</time>
      </trkpt>
      <trkpt lat="45.06799" lon="6.06011">
        <ele>1441.2</ele>
        <time>2024-08-09T09:17:12Z</time>
      </trkpt>
      <trkpt lat="45.06799" lon="6.06011">
        <ele>1441.2</ele>
        <time>2024-08-09T09:17:13Z</time>
      </trkpt>
      <trkpt lat="45.06799" lon="6.06011">
        <ele>1441.4</ele>
        <time>2024-08-09T09:17:14Z</time>
      </trkpt>
      <trkpt lat="45.06799" lon="6.06011">
        <ele>1441.4</ele>
        <time>2024-08-09T09:17:15Z</time>
      </trkpt>
      <trkpt lat="45.06799" lon="6.06011">
        <ele>1441.4</ele>
        <time>2024-08-09T09:17:16Z</time>
      </trkpt>
      <trkpt lat="45.06799" lon="6.06011">
        <ele>1441.2</ele>
        <time>2024-08-09T09:17:17Z</time>
      </trkpt>
      <trkpt lat="45.06799" lon="6.06011">
        <ele>1441.2</ele>
        <time>2024-08-09T09:17:18Z</time>
      </trkpt>
      <trkpt lat="45.06799" lon="6.06011">
        <ele>1441</ele>
        <time>2024-08-09T09:17:19Z</time>
      </trkpt>
      <trkpt lat="45.06799" lon="6.06011">
        <ele>1441</ele>
        <time>2024-08-09T09:17:20Z</time>
      </trkpt>
      <trkpt lat="45.06799" lon="6.06011">
        <ele>1440.8</ele>
        <time>2024-08-09T09:17:21Z</time>
      </trkpt>
      <trkpt lat="45.06799" lon="6.06011">
        <ele>1440.8</ele>
        <time>2024-08-09T09:17:22Z</time>
      </trkpt>
      <trkpt lat="45.06799" lon="6.06011">
        <ele>1440.8</ele>
        <time>2024-08-09T09:17:23Z</time>
      </trkpt>
      <trkpt lat="45.06799" lon="6.06011">
        <ele>1440.6</ele>
        <time>2024-08-09T09:17:24Z</time>
      </trkpt>
      <trkpt lat="45.06799" lon="6.06011">
        <ele>1440.6</ele>
        <time>2024-08-09T09:17:25Z</time>
      </trkpt>
      <trkpt lat="45.06799" lon="6.06011">
        <ele>1441</ele>
        <time>2024-08-09T09:17:26Z</time>
      </trkpt>
      <trkpt lat="45.06799" lon="6.06011">
        <ele>1441.2</ele>
        <time>2024-08-09T09:17:27Z</time>
      </trkpt>
      <trkpt lat="45.06799" lon="6.06011">
        <ele>1441.2</ele>
        <time>2024-08-09T09:17:28Z</time>
      </trkpt>
      <trkpt lat="45.06799" lon="6.06011">
        <ele>1441.2</ele>
        <time>2024-08-09T09:17:29Z</time>
      </trkpt>
      <trkpt lat="45.06799" lon="6.06011">
        <ele>1441</ele>
        <time>2024-08-09T09:17:30Z</time>
      </trkpt>
      <trkpt lat="45.06799" lon="6.06011">
        <ele>1441</ele>
        <time>2024-08-09T09:17:31Z</time>
      </trkpt>
      <trkpt lat="45.06799" lon="6.06011">
        <ele>1441</ele>
        <time>2024-08-09T09:17:32Z</time>
      </trkpt>
      <trkpt lat="45.06799" lon="6.06011">
        <ele>1441.2</ele>
        <time>2024-08-09T09:17:33Z</time>
      </trkpt>
      <trkpt lat="45.06799" lon="6.06011">
        <ele>1441.2</ele>
        <time>2024-08-09T09:17:34Z</time>
      </trkpt>
      <trkpt lat="45.06799" lon="6.06011">
        <ele>1441</ele>
        <time>2024-08-09T09:17:35Z</time>
      </trkpt>
      <trkpt lat="45.06799" lon="6.06011">
        <ele>1441</ele>
        <time>2024-08-09T09:17:36Z</time>
      </trkpt>
      <trkpt lat="45.06799" lon="6.06011">
        <ele>1441.2</ele>
        <time>2024-08-09T09:17:37Z</time>
      </trkpt>
      <trkpt lat="45.06799" lon="6.06011">
        <ele>1441.2</ele>
        <time>2024-08-09T09:17:38Z</time>
      </trkpt>
      <trkpt lat="45.06799" lon="6.06011">
        <ele>1441.2</ele>
        <time>2024-08-09T09:17:39Z</time>
      </trkpt>
      <trkpt lat="45.06799" lon="6.06011">
        <ele>1441.2</ele>
        <time>2024-08-09T09:17:40Z</time>
      </trkpt>
      <trkpt lat="45.06799" lon="6.06011">
        <ele>1441.2</ele>
        <time>2024-08-09T09:17:41Z</time>
      </trkpt>
      <trkpt lat="45.06799" lon="6.06011">
        <ele>1441.2</ele>
        <time>2024-08-09T09:17:42Z</time>
      </trkpt>
      <trkpt lat="45.06799" lon="6.06011">
        <ele>1441.2</ele>
        <time>2024-08-09T09:17:43Z</time>
      </trkpt>
      <trkpt lat="45.06799" lon="6.06011">
        <ele>1441.4</ele>
        <time>2024-08-09T09:17:44Z</time>
      </trkpt>
      <trkpt lat="45.06799" lon="6.06011">
        <ele>1441.4</ele>
        <time>2024-08-09T09:17:45Z</time>
      </trkpt>
      <trkpt lat="45.06799" lon="6.06014">
        <ele>1441.2</ele>
        <time>2024-08-09T09:17:46Z</time>
      </trkpt>
      <trkpt lat="45.06799" lon="6.06014">
        <ele>1441.2</ele>
        <time>2024-08-09T09:17:47Z</time>
      </trkpt>
      <trkpt lat="45.068" lon="6.06018">
        <ele>1441.2</ele>
        <time>2024-08-09T09:17:48Z</time>
      </trkpt>
      <trkpt lat="45.068" lon="6.06018">
        <ele>1441.4</ele>
        <time>2024-08-09T09:17:49Z</time>
      </trkpt>
      <trkpt lat="45.06803" lon="6.06022">
        <ele>1441.6</ele>
        <time>2024-08-09T09:17:50Z</time>
      </trkpt>
      <trkpt lat="45.06804" lon="6.06024">
        <ele>1441.6</ele>
        <time>2024-08-09T09:17:51Z</time>
      </trkpt>
      <trkpt lat="45.06805" lon="6.06027">
        <ele>1441.6</ele>
        <time>2024-08-09T09:17:52Z</time>
      </trkpt>
      <trkpt lat="45.06805" lon="6.06027">
        <ele>1441.6</ele>
        <time>2024-08-09T09:17:53Z</time>
      </trkpt>
      <trkpt lat="45.06807" lon="6.0603">
        <ele>1441.4</ele>
        <time>2024-08-09T09:17:54Z</time>
      </trkpt>
      <trkpt lat="45.06807" lon="6.0603">
        <ele>1441.4</ele>
        <time>2024-08-09T09:17:55Z</time>
      </trkpt>
      <trkpt lat="45.06808" lon="6.06033">
        <ele>1441.4</ele>
        <time>2024-08-09T09:17:56Z</time>
      </trkpt>
      <trkpt lat="45.06808" lon="6.06033">
        <ele>1441.4</ele>
        <time>2024-08-09T09:17:57Z</time>
      </trkpt>
      <trkpt lat="45.0681" lon="6.06036">
        <ele>1441.4</ele>
        <time>2024-08-09T09:17:58Z</time>
      </trkpt>
      <trkpt lat="45.0681" lon="6.06036">
        <ele>1441.4</ele>
        <time>2024-08-09T09:17:59Z</time>
      </trkpt>
      <trkpt lat="45.06812" lon="6.06039">
        <ele>1441.4</ele>
        <time>2024-08-09T09:18:00Z</time>
      </trkpt>
      <trkpt lat="45.06812" lon="6.06039">
        <ele>1441.4</ele>
        <time>2024-08-09T09:18:01Z</time>
      </trkpt>
      <trkpt lat="45.06814" lon="6.06042">
        <ele>1441.4</ele>
        <time>2024-08-09T09:18:02Z</time>
      </trkpt>
      <trkpt lat="45.06814" lon="6.06042">
        <ele>1441.6</ele>
        <time>2024-08-09T09:18:03Z</time>
      </trkpt>
      <trkpt lat="45.06816" lon="6.06045">
        <ele>1441.6</ele>
        <time>2024-08-09T09:18:04Z</time>
      </trkpt>
      <trkpt lat="45.06816" lon="6.06045">
        <ele>1441.8</ele>
        <time>2024-08-09T09:18:05Z</time>
      </trkpt>
      <trkpt lat="45.06817" lon="6.06048">
        <ele>1441.8</ele>
        <time>2024-08-09T09:18:06Z</time>
      </trkpt>
      <trkpt lat="45.06817" lon="6.06048">
        <ele>1441.8</ele>
        <time>2024-08-09T09:18:07Z</time>
      </trkpt>
      <trkpt lat="45.06818" lon="6.06051">
        <ele>1441.8</ele>
        <time>2024-08-09T09:18:08Z</time>
      </trkpt>
      <trkpt lat="45.06818" lon="6.06051">
        <ele>1442.2</ele>
        <time>2024-08-09T09:18:09Z</time>
      </trkpt>
      <trkpt lat="45.0682" lon="6.06055">
        <ele>1442.2</ele>
        <time>2024-08-09T09:18:10Z</time>
      </trkpt>
      <trkpt lat="45.0682" lon="6.06055">
        <ele>1442.4</ele>
        <time>2024-08-09T09:18:11Z</time>
      </trkpt>
      <trkpt lat="45.06821" lon="6.06058">
        <ele>1442.2</ele>
        <time>2024-08-09T09:18:12Z</time>
      </trkpt>
      <trkpt lat="45.06821" lon="6.06058">
        <ele>1442</ele>
        <time>2024-08-09T09:18:13Z</time>
      </trkpt>
      <trkpt lat="45.06823" lon="6.06061">
        <ele>1442</ele>
        <time>2024-08-09T09:18:14Z</time>
      </trkpt>
      <trkpt lat="45.06823" lon="6.06061">
        <ele>1442.2</ele>
        <time>2024-08-09T09:18:15Z</time>
      </trkpt>
      <trkpt lat="45.06824" lon="6.06065">
        <ele>1442.2</ele>
        <time>2024-08-09T09:18:16Z</time>
      </trkpt>
      <trkpt lat="45.06824" lon="6.06065">
        <ele>1442.4</ele>
        <time>2024-08-09T09:18:17Z</time>
      </trkpt>
      <trkpt lat="45.06824" lon="6.06069">
        <ele>1442.4</ele>
        <time>2024-08-09T09:18:18Z</time>
      </trkpt>
      <trkpt lat="45.06824" lon="6.06069">
        <ele>1442.4</ele>
        <time>2024-08-09T09:18:19Z</time>
      </trkpt>
      <trkpt lat="45.06823" lon="6.06072">
        <ele>1442.4</ele>
        <time>2024-08-09T09:18:20Z</time>
      </trkpt>
      <trkpt lat="45.06823" lon="6.06072">
        <ele>1442.6</ele>
        <time>2024-08-09T09:18:21Z</time>
      </trkpt>
      <trkpt lat="45.06822" lon="6.06076">
        <ele>1442.6</ele>
        <time>2024-08-09T09:18:22Z</time>
      </trkpt>
      <trkpt lat="45.06822" lon="6.06076">
        <ele>1442.8</ele>
        <time>2024-08-09T09:18:23Z</time>
      </trkpt>
      <trkpt lat="45.06821" lon="6.06079">
        <ele>1442.8</ele>
        <time>2024-08-09T09:18:24Z</time>
      </trkpt>
      <trkpt lat="45.06821" lon="6.06079">
        <ele>1442.8</ele>
        <time>2024-08-09T09:18:25Z</time>
      </trkpt>
      <trkpt lat="45.06821" lon="6.06083">
        <ele>1442.8</ele>
        <time>2024-08-09T09:18:26Z</time>
      </trkpt>
      <trkpt lat="45.06821" lon="6.06083">
        <ele>1443</ele>
        <time>2024-08-09T09:18:27Z</time>
      </trkpt>
      <trkpt lat="45.06819" lon="6.06087">
        <ele>1443</ele>
        <time>2024-08-09T09:18:28Z</time>
      </trkpt>
      <trkpt lat="45.06819" lon="6.06087">
        <ele>1443</ele>
        <time>2024-08-09T09:18:29Z</time>
      </trkpt>
      <trkpt lat="45.06817" lon="6.0609">
        <ele>1443.2</ele>
        <time>2024-08-09T09:18:30Z</time>
      </trkpt>
      <trkpt lat="45.06817" lon="6.0609">
        <ele>1443.2</ele>
        <time>2024-08-09T09:18:31Z</time>
      </trkpt>
      <trkpt lat="45.06815" lon="6.06092">
        <ele>1443.6</ele>
        <time>2024-08-09T09:18:32Z</time>
      </trkpt>
      <trkpt lat="45.06815" lon="6.06092">
        <ele>1443.6</ele>
        <time>2024-08-09T09:18:33Z</time>
      </trkpt>
      <trkpt lat="45.06813" lon="6.06095">
        <ele>1443.8</ele>
        <time>2024-08-09T09:18:34Z</time>
      </trkpt>
      <trkpt lat="45.06813" lon="6.06095">
        <ele>1443.8</ele>
        <time>2024-08-09T09:18:35Z</time>
      </trkpt>
      <trkpt lat="45.06811" lon="6.06097">
        <ele>1443.8</ele>
        <time>2024-08-09T09:18:36Z</time>
      </trkpt>
      <trkpt lat="45.06811" lon="6.06097">
        <ele>1443.8</ele>
        <time>2024-08-09T09:18:37Z</time>
      </trkpt>
      <trkpt lat="45.06809" lon="6.061">
        <ele>1443.8</ele>
        <time>2024-08-09T09:18:38Z</time>
      </trkpt>
      <trkpt lat="45.06809" lon="6.061">
        <ele>1444</ele>
        <time>2024-08-09T09:18:39Z</time>
      </trkpt>
      <trkpt lat="45.06807" lon="6.06103">
        <ele>1444</ele>
        <time>2024-08-09T09:18:40Z</time>
      </trkpt>
      <trkpt lat="45.06807" lon="6.06103">
        <ele>1444.2</ele>
        <time>2024-08-09T09:18:41Z</time>
      </trkpt>
      <trkpt lat="45.06805" lon="6.06105">
        <ele>1444.2</ele>
        <time>2024-08-09T09:18:42Z</time>
      </trkpt>
      <trkpt lat="45.06805" lon="6.06105">
        <ele>1444.2</ele>
        <time>2024-08-09T09:18:43Z</time>
      </trkpt>
      <trkpt lat="45.06804" lon="6.06108">
        <ele>1444.4</ele>
        <time>2024-08-09T09:18:44Z</time>
      </trkpt>
      <trkpt lat="45.06804" lon="6.06108">
        <ele>1444.4</ele>
        <time>2024-08-09T09:18:45Z</time>
      </trkpt>
      <trkpt lat="45.06802" lon="6.06111">
        <ele>1444.4</ele>
        <time>2024-08-09T09:18:46Z</time>
      </trkpt>
      <trkpt lat="45.06802" lon="6.06111">
        <ele>1444.4</ele>
        <time>2024-08-09T09:18:47Z</time>
      </trkpt>
      <trkpt lat="45.068" lon="6.06113">
        <ele>1444.4</ele>
        <time>2024-08-09T09:18:48Z</time>
      </trkpt>
      <trkpt lat="45.068" lon="6.06113">
        <ele>1444.4</ele>
        <time>2024-08-09T09:18:49Z</time>
      </trkpt>
      <trkpt lat="45.06798" lon="6.06116">
        <ele>1444.6</ele>
        <time>2024-08-09T09:18:50Z</time>
      </trkpt>
      <trkpt lat="45.06798" lon="6.06116">
        <ele>1445</ele>
        <time>2024-08-09T09:18:51Z</time>
      </trkpt>
      <trkpt lat="45.06797" lon="6.06119">
        <ele>1445.2</ele>
        <time>2024-08-09T09:18:52Z</time>
      </trkpt>
      <trkpt lat="45.06797" lon="6.06119">
        <ele>1445.2</ele>
        <time>2024-08-09T09:18:53Z</time>
      </trkpt>
      <trkpt lat="45.06795" lon="6.06122">
        <ele>1445.2</ele>
        <time>2024-08-09T09:18:54Z</time>
      </trkpt>
      <trkpt lat="45.06795" lon="6.06122">
        <ele>1445.2</ele>
        <time>2024-08-09T09:18:55Z</time>
      </trkpt>
      <trkpt lat="45.06793" lon="6.06124">
        <ele>1445.4</ele>
        <time>2024-08-09T09:18:56Z</time>
      </trkpt>
      <trkpt lat="45.06793" lon="6.06124">
        <ele>1445.4</ele>
        <time>2024-08-09T09:18:57Z</time>
      </trkpt>
      <trkpt lat="45.06792" lon="6.06127">
        <ele>1445.6</ele>
        <time>2024-08-09T09:18:58Z</time>
      </trkpt>
      <trkpt lat="45.06792" lon="6.06127">
        <ele>1446</ele>
        <time>2024-08-09T09:18:59Z</time>
      </trkpt>
      <trkpt lat="45.0679" lon="6.0613">
        <ele>1446</ele>
        <time>2024-08-09T09:19:00Z</time>
      </trkpt>
      <trkpt lat="45.0679" lon="6.0613">
        <ele>1446</ele>
        <time>2024-08-09T09:19:01Z</time>
      </trkpt>
      <trkpt lat="45.06789" lon="6.06134">
        <ele>1446.4</ele>
        <time>2024-08-09T09:19:02Z</time>
      </trkpt>
      <trkpt lat="45.06789" lon="6.06134">
        <ele>1446.4</ele>
        <time>2024-08-09T09:19:03Z</time>
      </trkpt>
      <trkpt lat="45.06788" lon="6.06137">
        <ele>1446.6</ele>
        <time>2024-08-09T09:19:04Z</time>
      </trkpt>
      <trkpt lat="45.06788" lon="6.06137">
        <ele>1446.6</ele>
        <time>2024-08-09T09:19:05Z</time>
      </trkpt>
      <trkpt lat="45.06786" lon="6.0614">
        <ele>1447.2</ele>
        <time>2024-08-09T09:19:06Z</time>
      </trkpt>
      <trkpt lat="45.06786" lon="6.0614">
        <ele>1447.2</ele>
        <time>2024-08-09T09:19:07Z</time>
      </trkpt>
      <trkpt lat="45.06785" lon="6.06144">
        <ele>1447.2</ele>
        <time>2024-08-09T09:19:08Z</time>
      </trkpt>
      <trkpt lat="45.06785" lon="6.06144">
        <ele>1447.2</ele>
        <time>2024-08-09T09:19:09Z</time>
      </trkpt>
      <trkpt lat="45.06783" lon="6.06147">
        <ele>1447.4</ele>
        <time>2024-08-09T09:19:10Z</time>
      </trkpt>
      <trkpt lat="45.06783" lon="6.06147">
        <ele>1447.6</ele>
        <time>2024-08-09T09:19:11Z</time>
      </trkpt>
      <trkpt lat="45.06782" lon="6.0615">
        <ele>1447.8</ele>
        <time>2024-08-09T09:19:12Z</time>
      </trkpt>
      <trkpt lat="45.06782" lon="6.0615">
        <ele>1448</ele>
        <time>2024-08-09T09:19:13Z</time>
      </trkpt>
      <trkpt lat="45.0678" lon="6.06154">
        <ele>1448</ele>
        <time>2024-08-09T09:19:14Z</time>
      </trkpt>
      <trkpt lat="45.0678" lon="6.06154">
        <ele>1448</ele>
        <time>2024-08-09T09:19:15Z</time>
      </trkpt>
      <trkpt lat="45.06779" lon="6.06157">
        <ele>1448.2</ele>
        <time>2024-08-09T09:19:16Z</time>
      </trkpt>
      <trkpt lat="45.06779" lon="6.06157">
        <ele>1448.2</ele>
        <time>2024-08-09T09:19:17Z</time>
      </trkpt>
      <trkpt lat="45.06778" lon="6.06161">
        <ele>1448.4</ele>
        <time>2024-08-09T09:19:18Z</time>
      </trkpt>
      <trkpt lat="45.06778" lon="6.06161">
        <ele>1448.4</ele>
        <time>2024-08-09T09:19:19Z</time>
      </trkpt>
      <trkpt lat="45.06778" lon="6.06164">
        <ele>1448.4</ele>
        <time>2024-08-09T09:19:20Z</time>
      </trkpt>
      <trkpt lat="45.06778" lon="6.06164">
        <ele>1448.6</ele>
        <time>2024-08-09T09:19:21Z</time>
      </trkpt>
      <trkpt lat="45.06776" lon="6.06167">
        <ele>1448.6</ele>
        <time>2024-08-09T09:19:22Z</time>
      </trkpt>
      <trkpt lat="45.06776" lon="6.06167">
        <ele>1448.8</ele>
        <time>2024-08-09T09:19:23Z</time>
      </trkpt>
      <trkpt lat="45.06776" lon="6.06171">
        <ele>1449</ele>
        <time>2024-08-09T09:19:24Z</time>
      </trkpt>
      <trkpt lat="45.06776" lon="6.06171">
        <ele>1449</ele>
        <time>2024-08-09T09:19:25Z</time>
      </trkpt>
      <trkpt lat="45.06775" lon="6.06174">
        <ele>1449</ele>
        <time>2024-08-09T09:19:26Z</time>
      </trkpt>
      <trkpt lat="45.06775" lon="6.06174">
        <ele>1449.2</ele>
        <time>2024-08-09T09:19:27Z</time>
      </trkpt>
      <trkpt lat="45.06775" lon="6.06177">
        <ele>1449.4</ele>
        <time>2024-08-09T09:19:28Z</time>
      </trkpt>
      <trkpt lat="45.06775" lon="6.06177">
        <ele>1449.4</ele>
        <time>2024-08-09T09:19:29Z</time>
      </trkpt>
      <trkpt lat="45.06774" lon="6.0618">
        <ele>1449.8</ele>
        <time>2024-08-09T09:19:30Z</time>
      </trkpt>
      <trkpt lat="45.06774" lon="6.0618">
        <ele>1449.8</ele>
        <time>2024-08-09T09:19:31Z</time>
      </trkpt>
      <trkpt lat="45.06774" lon="6.06183">
        <ele>1449.8</ele>
        <time>2024-08-09T09:19:32Z</time>
      </trkpt>
      <trkpt lat="45.06774" lon="6.06183">
        <ele>1449.8</ele>
        <time>2024-08-09T09:19:33Z</time>
      </trkpt>
      <trkpt lat="45.06774" lon="6.06186">
        <ele>1450</ele>
        <time>2024-08-09T09:19:34Z</time>
      </trkpt>
      <trkpt lat="45.06774" lon="6.06186">
        <ele>1450</ele>
        <time>2024-08-09T09:19:35Z</time>
      </trkpt>
      <trkpt lat="45.06773" lon="6.06189">
        <ele>1450.2</ele>
        <time>2024-08-09T09:19:36Z</time>
      </trkpt>
      <trkpt lat="45.06773" lon="6.06189">
        <ele>1450.2</ele>
        <time>2024-08-09T09:19:37Z</time>
      </trkpt>
      <trkpt lat="45.06773" lon="6.06193">
        <ele>1450.6</ele>
        <time>2024-08-09T09:19:38Z</time>
      </trkpt>
      <trkpt lat="45.06773" lon="6.06193">
        <ele>1450.8</ele>
        <time>2024-08-09T09:19:39Z</time>
      </trkpt>
      <trkpt lat="45.06773" lon="6.06197">
        <ele>1450.8</ele>
        <time>2024-08-09T09:19:40Z</time>
      </trkpt>
      <trkpt lat="45.06773" lon="6.06197">
        <ele>1450.8</ele>
        <time>2024-08-09T09:19:41Z</time>
      </trkpt>
      <trkpt lat="45.06772" lon="6.06201">
        <ele>1450.8</ele>
        <time>2024-08-09T09:19:42Z</time>
      </trkpt>
      <trkpt lat="45.06772" lon="6.06201">
        <ele>1451.2</ele>
        <time>2024-08-09T09:19:43Z</time>
      </trkpt>
      <trkpt lat="45.06771" lon="6.06204">
        <ele>1451.4</ele>
        <time>2024-08-09T09:19:44Z</time>
      </trkpt>
      <trkpt lat="45.06771" lon="6.06204">
        <ele>1451.4</ele>
        <time>2024-08-09T09:19:45Z</time>
      </trkpt>
      <trkpt lat="45.06771" lon="6.06207">
        <ele>1451.4</ele>
        <time>2024-08-09T09:19:46Z</time>
      </trkpt>
      <trkpt lat="45.06771" lon="6.06207">
        <ele>1451.6</ele>
        <time>2024-08-09T09:19:47Z</time>
      </trkpt>
      <trkpt lat="45.06772" lon="6.0621">
        <ele>1451.8</ele>
        <time>2024-08-09T09:19:48Z</time>
      </trkpt>
      <trkpt lat="45.06772" lon="6.0621">
        <ele>1451.8</ele>
        <time>2024-08-09T09:19:49Z</time>
      </trkpt>
      <trkpt lat="45.06772" lon="6.06214">
        <ele>1451.8</ele>
        <time>2024-08-09T09:19:50Z</time>
      </trkpt>
      <trkpt lat="45.06772" lon="6.06214">
        <ele>1452</ele>
        <time>2024-08-09T09:19:51Z</time>
      </trkpt>
      <trkpt lat="45.06772" lon="6.06217">
        <ele>1452.2</ele>
        <time>2024-08-09T09:19:52Z</time>
      </trkpt>
      <trkpt lat="45.06772" lon="6.06217">
        <ele>1452.4</ele>
        <time>2024-08-09T09:19:53Z</time>
      </trkpt>
      <trkpt lat="45.06773" lon="6.06221">
        <ele>1452.4</ele>
        <time>2024-08-09T09:19:54Z</time>
      </trkpt>
      <trkpt lat="45.06773" lon="6.06221">
        <ele>1452.6</ele>
        <time>2024-08-09T09:19:55Z</time>
      </trkpt>
      <trkpt lat="45.06773" lon="6.06224">
        <ele>1453</ele>
        <time>2024-08-09T09:19:56Z</time>
      </trkpt>
      <trkpt lat="45.06773" lon="6.06224">
        <ele>1453</ele>
        <time>2024-08-09T09:19:57Z</time>
      </trkpt>
      <trkpt lat="45.06774" lon="6.06227">
        <ele>1453.4</ele>
        <time>2024-08-09T09:19:58Z</time>
      </trkpt>
      <trkpt lat="45.06774" lon="6.06227">
        <ele>1453.6</ele>
        <time>2024-08-09T09:19:59Z</time>
      </trkpt>
      <trkpt lat="45.06776" lon="6.0623">
        <ele>1453.6</ele>
        <time>2024-08-09T09:20:00Z</time>
      </trkpt>
      <trkpt lat="45.06776" lon="6.0623">
        <ele>1453.6</ele>
        <time>2024-08-09T09:20:01Z</time>
      </trkpt>
      <trkpt lat="45.06777" lon="6.06233">
        <ele>1453.8</ele>
        <time>2024-08-09T09:20:02Z</time>
      </trkpt>
      <trkpt lat="45.06777" lon="6.06233">
        <ele>1453.8</ele>
        <time>2024-08-09T09:20:03Z</time>
      </trkpt>
      <trkpt lat="45.06778" lon="6.06236">
        <ele>1454</ele>
        <time>2024-08-09T09:20:04Z</time>
      </trkpt>
      <trkpt lat="45.06778" lon="6.06236">
        <ele>1454</ele>
        <time>2024-08-09T09:20:05Z</time>
      </trkpt>
      <trkpt lat="45.06778" lon="6.06239">
        <ele>1454</ele>
        <time>2024-08-09T09:20:06Z</time>
      </trkpt>
      <trkpt lat="45.06778" lon="6.06239">
        <ele>1454.2</ele>
        <time>2024-08-09T09:20:07Z</time>
      </trkpt>
      <trkpt lat="45.0678" lon="6.06242">
        <ele>1454.2</ele>
        <time>2024-08-09T09:20:08Z</time>
      </trkpt>
      <trkpt lat="45.0678" lon="6.06242">
        <ele>1454.4</ele>
        <time>2024-08-09T09:20:09Z</time>
      </trkpt>
      <trkpt lat="45.0678" lon="6.06245">
        <ele>1454.4</ele>
        <time>2024-08-09T09:20:10Z</time>
      </trkpt>
      <trkpt lat="45.0678" lon="6.06245">
        <ele>1454.4</ele>
        <time>2024-08-09T09:20:11Z</time>
      </trkpt>
      <trkpt lat="45.06781" lon="6.06248">
        <ele>1454.4</ele>
        <time>2024-08-09T09:20:12Z</time>
      </trkpt>
      <trkpt lat="45.06781" lon="6.06248">
        <ele>1454.4</ele>
        <time>2024-08-09T09:20:13Z</time>
      </trkpt>
      <trkpt lat="45.06782" lon="6.0625">
        <ele>1454.6</ele>
        <time>2024-08-09T09:20:14Z</time>
      </trkpt>
      <trkpt lat="45.06782" lon="6.0625">
        <ele>1454.8</ele>
        <time>2024-08-09T09:20:15Z</time>
      </trkpt>
      <trkpt lat="45.06782" lon="6.06254">
        <ele>1454.8</ele>
        <time>2024-08-09T09:20:16Z</time>
      </trkpt>
      <trkpt lat="45.06782" lon="6.06254">
        <ele>1455</ele>
        <time>2024-08-09T09:20:17Z</time>
      </trkpt>
      <trkpt lat="45.06782" lon="6.06258">
        <ele>1455.2</ele>
        <time>2024-08-09T09:20:18Z</time>
      </trkpt>
      <trkpt lat="45.06782" lon="6.06258">
        <ele>1455.4</ele>
        <time>2024-08-09T09:20:19Z</time>
      </trkpt>
      <trkpt lat="45.06782" lon="6.06262">
        <ele>1455.6</ele>
        <time>2024-08-09T09:20:20Z</time>
      </trkpt>
      <trkpt lat="45.06782" lon="6.06262">
        <ele>1455.6</ele>
        <time>2024-08-09T09:20:21Z</time>
      </trkpt>
      <trkpt lat="45.06782" lon="6.06266">
        <ele>1455.6</ele>
        <time>2024-08-09T09:20:22Z</time>
      </trkpt>
      <trkpt lat="45.06782" lon="6.06266">
        <ele>1455.6</ele>
        <time>2024-08-09T09:20:23Z</time>
      </trkpt>
      <trkpt lat="45.06781" lon="6.0627">
        <ele>1455.6</ele>
        <time>2024-08-09T09:20:24Z</time>
      </trkpt>
      <trkpt lat="45.06781" lon="6.0627">
        <ele>1455.8</ele>
        <time>2024-08-09T09:20:25Z</time>
      </trkpt>
      <trkpt lat="45.0678" lon="6.06273">
        <ele>1456.2</ele>
        <time>2024-08-09T09:20:26Z</time>
      </trkpt>
      <trkpt lat="45.0678" lon="6.06273">
        <ele>1456.2</ele>
        <time>2024-08-09T09:20:27Z</time>
      </trkpt>
      <trkpt lat="45.06779" lon="6.06276">
        <ele>1456.4</ele>
        <time>2024-08-09T09:20:28Z</time>
      </trkpt>
      <trkpt lat="45.06779" lon="6.06276">
        <ele>1456.4</ele>
        <time>2024-08-09T09:20:29Z</time>
      </trkpt>
      <trkpt lat="45.06778" lon="6.06279">
        <ele>1456.6</ele>
        <time>2024-08-09T09:20:30Z</time>
      </trkpt>
      <trkpt lat="45.06778" lon="6.06279">
        <ele>1456.6</ele>
        <time>2024-08-09T09:20:31Z</time>
      </trkpt>
      <trkpt lat="45.06777" lon="6.06282">
        <ele>1456.8</ele>
        <time>2024-08-09T09:20:32Z</time>
      </trkpt>
      <trkpt lat="45.06777" lon="6.06282">
        <ele>1457</ele>
        <time>2024-08-09T09:20:33Z</time>
      </trkpt>
      <trkpt lat="45.06777" lon="6.06286">
        <ele>1457</ele>
        <time>2024-08-09T09:20:34Z</time>
      </trkpt>
      <trkpt lat="45.06777" lon="6.06286">
        <ele>1457</ele>
        <time>2024-08-09T09:20:35Z</time>
      </trkpt>
      <trkpt lat="45.06777" lon="6.0629">
        <ele>1457.2</ele>
        <time>2024-08-09T09:20:36Z</time>
      </trkpt>
      <trkpt lat="45.06777" lon="6.0629">
        <ele>1457.4</ele>
        <time>2024-08-09T09:20:37Z</time>
      </trkpt>
      <trkpt lat="45.06777" lon="6.06294">
        <ele>1457.6</ele>
        <time>2024-08-09T09:20:38Z</time>
      </trkpt>
      <trkpt lat="45.06777" lon="6.06294">
        <ele>1457.8</ele>
        <time>2024-08-09T09:20:39Z</time>
      </trkpt>
      <trkpt lat="45.06776" lon="6.06297">
        <ele>1457.8</ele>
        <time>2024-08-09T09:20:40Z</time>
      </trkpt>
      <trkpt lat="45.06776" lon="6.06297">
        <ele>1457.8</ele>
        <time>2024-08-09T09:20:41Z</time>
      </trkpt>
      <trkpt lat="45.06776" lon="6.063">
        <ele>1458</ele>
        <time>2024-08-09T09:20:42Z</time>
      </trkpt>
      <trkpt lat="45.06776" lon="6.063">
        <ele>1458.2</ele>
        <time>2024-08-09T09:20:43Z</time>
      </trkpt>
      <trkpt lat="45.06774" lon="6.06304">
        <ele>1458.2</ele>
        <time>2024-08-09T09:20:44Z</time>
      </trkpt>
      <trkpt lat="45.06774" lon="6.06304">
        <ele>1458.4</ele>
        <time>2024-08-09T09:20:45Z</time>
      </trkpt>
      <trkpt lat="45.06773" lon="6.06307">
        <ele>1458.8</ele>
        <time>2024-08-09T09:20:46Z</time>
      </trkpt>
      <trkpt lat="45.06773" lon="6.06307">
        <ele>1458.8</ele>
        <time>2024-08-09T09:20:47Z</time>
      </trkpt>
      <trkpt lat="45.06772" lon="6.0631">
        <ele>1458.8</ele>
        <time>2024-08-09T09:20:48Z</time>
      </trkpt>
      <trkpt lat="45.06772" lon="6.0631">
        <ele>1459</ele>
        <time>2024-08-09T09:20:49Z</time>
      </trkpt>
      <trkpt lat="45.06772" lon="6.06313">
        <ele>1459.4</ele>
        <time>2024-08-09T09:20:50Z</time>
      </trkpt>
      <trkpt lat="45.06772" lon="6.06313">
        <ele>1459.4</ele>
        <time>2024-08-09T09:20:51Z</time>
      </trkpt>
      <trkpt lat="45.0677" lon="6.06316">
        <ele>1459.2</ele>
        <time>2024-08-09T09:20:52Z</time>
      </trkpt>
      <trkpt lat="45.0677" lon="6.06316">
        <ele>1459.2</ele>
        <time>2024-08-09T09:20:53Z</time>
      </trkpt>
      <trkpt lat="45.0677" lon="6.06316">
        <ele>1459.4</ele>
        <time>2024-08-09T09:20:54Z</time>
      </trkpt>
      <trkpt lat="45.06772" lon="6.0632">
        <ele>1459.8</ele>
        <time>2024-08-09T09:20:55Z</time>
      </trkpt>
      <trkpt lat="45.06772" lon="6.0632">
        <ele>1459.8</ele>
        <time>2024-08-09T09:20:56Z</time>
      </trkpt>
      <trkpt lat="45.06773" lon="6.06324">
        <ele>1460</ele>
        <time>2024-08-09T09:20:57Z</time>
      </trkpt>
      <trkpt lat="45.06773" lon="6.06324">
        <ele>1460</ele>
        <time>2024-08-09T09:20:58Z</time>
      </trkpt>
      <trkpt lat="45.06775" lon="6.06328">
        <ele>1460</ele>
        <time>2024-08-09T09:20:59Z</time>
      </trkpt>
      <trkpt lat="45.06775" lon="6.06328">
        <ele>1460.2</ele>
        <time>2024-08-09T09:21:00Z</time>
      </trkpt>
      <trkpt lat="45.06775" lon="6.06331">
        <ele>1460.2</ele>
        <time>2024-08-09T09:21:01Z</time>
      </trkpt>
      <trkpt lat="45.06775" lon="6.06331">
        <ele>1460.4</ele>
        <time>2024-08-09T09:21:02Z</time>
      </trkpt>
      <trkpt lat="45.06775" lon="6.06335">
        <ele>1460.6</ele>
        <time>2024-08-09T09:21:03Z</time>
      </trkpt>
      <trkpt lat="45.06775" lon="6.06335">
        <ele>1460.6</ele>
        <time>2024-08-09T09:21:04Z</time>
      </trkpt>
      <trkpt lat="45.06775" lon="6.06339">
        <ele>1461</ele>
        <time>2024-08-09T09:21:05Z</time>
      </trkpt>
      <trkpt lat="45.06775" lon="6.06339">
        <ele>1461</ele>
        <time>2024-08-09T09:21:06Z</time>
      </trkpt>
      <trkpt lat="45.06775" lon="6.06342">
        <ele>1460.8</ele>
        <time>2024-08-09T09:21:07Z</time>
      </trkpt>
      <trkpt lat="45.06775" lon="6.06342">
        <ele>1460.8</ele>
        <time>2024-08-09T09:21:08Z</time>
      </trkpt>
      <trkpt lat="45.06776" lon="6.06346">
        <ele>1461.2</ele>
        <time>2024-08-09T09:21:09Z</time>
      </trkpt>
      <trkpt lat="45.06774" lon="6.06348">
        <ele>1461.2</ele>
        <time>2024-08-09T09:21:10Z</time>
      </trkpt>
      <trkpt lat="45.06774" lon="6.06348">
        <ele>1461.4</ele>
        <time>2024-08-09T09:21:11Z</time>
      </trkpt>
      <trkpt lat="45.06774" lon="6.06352">
        <ele>1461.6</ele>
        <time>2024-08-09T09:21:12Z</time>
      </trkpt>
      <trkpt lat="45.06774" lon="6.06352">
        <ele>1461.8</ele>
        <time>2024-08-09T09:21:13Z</time>
      </trkpt>
      <trkpt lat="45.06775" lon="6.06356">
        <ele>1461.8</ele>
        <time>2024-08-09T09:21:14Z</time>
      </trkpt>
      <trkpt lat="45.06775" lon="6.06356">
        <ele>1461.8</ele>
        <time>2024-08-09T09:21:15Z</time>
      </trkpt>
      <trkpt lat="45.06775" lon="6.06359">
        <ele>1462</ele>
        <time>2024-08-09T09:21:16Z</time>
      </trkpt>
      <trkpt lat="45.06775" lon="6.06359">
        <ele>1462</ele>
        <time>2024-08-09T09:21:17Z</time>
      </trkpt>
      <trkpt lat="45.06774" lon="6.06363">
        <ele>1462</ele>
        <time>2024-08-09T09:21:18Z</time>
      </trkpt>
      <trkpt lat="45.06774" lon="6.06363">
        <ele>1462</ele>
        <time>2024-08-09T09:21:19Z</time>
      </trkpt>
      <trkpt lat="45.06774" lon="6.06367">
        <ele>1462</ele>
        <time>2024-08-09T09:21:20Z</time>
      </trkpt>
      <trkpt lat="45.06774" lon="6.06367">
        <ele>1462</ele>
        <time>2024-08-09T09:21:21Z</time>
      </trkpt>
      <trkpt lat="45.06774" lon="6.06371">
        <ele>1462.2</ele>
        <time>2024-08-09T09:21:22Z</time>
      </trkpt>
      <trkpt lat="45.06774" lon="6.06371">
        <ele>1462.4</ele>
        <time>2024-08-09T09:21:23Z</time>
      </trkpt>
      <trkpt lat="45.06774" lon="6.06375">
        <ele>1462.6</ele>
        <time>2024-08-09T09:21:24Z</time>
      </trkpt>
      <trkpt lat="45.06774" lon="6.06375">
        <ele>1462.8</ele>
        <time>2024-08-09T09:21:25Z</time>
      </trkpt>
      <trkpt lat="45.06773" lon="6.06378">
        <ele>1463</ele>
        <time>2024-08-09T09:21:26Z</time>
      </trkpt>
      <trkpt lat="45.06773" lon="6.06378">
        <ele>1463.2</ele>
        <time>2024-08-09T09:21:27Z</time>
      </trkpt>
      <trkpt lat="45.06772" lon="6.06381">
        <ele>1463.2</ele>
        <time>2024-08-09T09:21:28Z</time>
      </trkpt>
      <trkpt lat="45.06772" lon="6.06381">
        <ele>1463.4</ele>
        <time>2024-08-09T09:21:29Z</time>
      </trkpt>
      <trkpt lat="45.06772" lon="6.06381">
        <ele>1463.8</ele>
        <time>2024-08-09T09:21:30Z</time>
      </trkpt>
      <trkpt lat="45.0677" lon="6.06383">
        <ele>1463.8</ele>
        <time>2024-08-09T09:21:31Z</time>
      </trkpt>
      <trkpt lat="45.0677" lon="6.06383">
        <ele>1464.2</ele>
        <time>2024-08-09T09:21:32Z</time>
      </trkpt>
      <trkpt lat="45.0677" lon="6.06383">
        <ele>1464.2</ele>
        <time>2024-08-09T09:21:33Z</time>
      </trkpt>
      <trkpt lat="45.0677" lon="6.06383">
        <ele>1464.8</ele>
        <time>2024-08-09T09:21:34Z</time>
      </trkpt>
      <trkpt lat="45.0677" lon="6.06383">
        <ele>1465.2</ele>
        <time>2024-08-09T09:21:35Z</time>
      </trkpt>
      <trkpt lat="45.0677" lon="6.06383">
        <ele>1465.2</ele>
        <time>2024-08-09T09:21:36Z</time>
      </trkpt>
      <trkpt lat="45.0677" lon="6.06383">
        <ele>1465</ele>
        <time>2024-08-09T09:21:37Z</time>
      </trkpt>
      <trkpt lat="45.0677" lon="6.06383">
        <ele>1465</ele>
        <time>2024-08-09T09:21:38Z</time>
      </trkpt>
      <trkpt lat="45.0677" lon="6.06383">
        <ele>1465.2</ele>
        <time>2024-08-09T09:21:39Z</time>
      </trkpt>
      <trkpt lat="45.0677" lon="6.06383">
        <ele>1465.4</ele>
        <time>2024-08-09T09:21:40Z</time>
      </trkpt>
      <trkpt lat="45.0677" lon="6.06383">
        <ele>1465.4</ele>
        <time>2024-08-09T09:21:41Z</time>
      </trkpt>
      <trkpt lat="45.0677" lon="6.06383">
        <ele>1465.4</ele>
        <time>2024-08-09T09:21:42Z</time>
      </trkpt>
      <trkpt lat="45.06773" lon="6.06382">
        <ele>1465</ele>
        <time>2024-08-09T09:21:43Z</time>
      </trkpt>
      <trkpt lat="45.06773" lon="6.06382">
        <ele>1464.6</ele>
        <time>2024-08-09T09:21:44Z</time>
      </trkpt>
      <trkpt lat="45.06776" lon="6.06382">
        <ele>1464.2</ele>
        <time>2024-08-09T09:21:45Z</time>
      </trkpt>
      <trkpt lat="45.06776" lon="6.06382">
        <ele>1463.8</ele>
        <time>2024-08-09T09:21:46Z</time>
      </trkpt>
      <trkpt lat="45.06779" lon="6.06384">
        <ele>1463.8</ele>
        <time>2024-08-09T09:21:47Z</time>
      </trkpt>
      <trkpt lat="45.06779" lon="6.06384">
        <ele>1463.8</ele>
        <time>2024-08-09T09:21:48Z</time>
      </trkpt>
      <trkpt lat="45.06782" lon="6.06386">
        <ele>1463.4</ele>
        <time>2024-08-09T09:21:49Z</time>
      </trkpt>
      <trkpt lat="45.06782" lon="6.06386">
        <ele>1463.4</ele>
        <time>2024-08-09T09:21:50Z</time>
      </trkpt>
      <trkpt lat="45.06784" lon="6.06387">
        <ele>1463.4</ele>
        <time>2024-08-09T09:21:51Z</time>
      </trkpt>
      <trkpt lat="45.06784" lon="6.06387">
        <ele>1463.6</ele>
        <time>2024-08-09T09:21:52Z</time>
      </trkpt>
      <trkpt lat="45.06788" lon="6.06388">
        <ele>1463.6</ele>
        <time>2024-08-09T09:21:53Z</time>
      </trkpt>
      <trkpt lat="45.06788" lon="6.06388">
        <ele>1463.6</ele>
        <time>2024-08-09T09:21:54Z</time>
      </trkpt>
      <trkpt lat="45.0679" lon="6.06389">
        <ele>1463.8</ele>
        <time>2024-08-09T09:21:55Z</time>
      </trkpt>
      <trkpt lat="45.06792" lon="6.06389">
        <ele>1464</ele>
        <time>2024-08-09T09:21:56Z</time>
      </trkpt>
      <trkpt lat="45.06792" lon="6.06389">
        <ele>1464</ele>
        <time>2024-08-09T09:21:57Z</time>
      </trkpt>
      <trkpt lat="45.06795" lon="6.06389">
        <ele>1464</ele>
        <time>2024-08-09T09:21:58Z</time>
      </trkpt>
      <trkpt lat="45.06795" lon="6.06389">
        <ele>1464</ele>
        <time>2024-08-09T09:21:59Z</time>
      </trkpt>
      <trkpt lat="45.06797" lon="6.06389">
        <ele>1464</ele>
        <time>2024-08-09T09:22:00Z</time>
      </trkpt>
      <trkpt lat="45.06799" lon="6.06389">
        <ele>1464</ele>
        <time>2024-08-09T09:22:01Z</time>
      </trkpt>
      <trkpt lat="45.06799" lon="6.06389">
        <ele>1464.2</ele>
        <time>2024-08-09T09:22:02Z</time>
      </trkpt>
      <trkpt lat="45.06802" lon="6.06388">
        <ele>1464.2</ele>
        <time>2024-08-09T09:22:03Z</time>
      </trkpt>
      <trkpt lat="45.06802" lon="6.06388">
        <ele>1464.4</ele>
        <time>2024-08-09T09:22:04Z</time>
      </trkpt>
      <trkpt lat="45.06804" lon="6.06387">
        <ele>1464.4</ele>
        <time>2024-08-09T09:22:05Z</time>
      </trkpt>
      <trkpt lat="45.06804" lon="6.06387">
        <ele>1464.4</ele>
        <time>2024-08-09T09:22:06Z</time>
      </trkpt>
      <trkpt lat="45.06807" lon="6.06386">
        <ele>1464.6</ele>
        <time>2024-08-09T09:22:07Z</time>
      </trkpt>
      <trkpt lat="45.06807" lon="6.06386">
        <ele>1464.4</ele>
        <time>2024-08-09T09:22:08Z</time>
      </trkpt>
      <trkpt lat="45.0681" lon="6.06385">
        <ele>1464.6</ele>
        <time>2024-08-09T09:22:09Z</time>
      </trkpt>
      <trkpt lat="45.0681" lon="6.06385">
        <ele>1464.6</ele>
        <time>2024-08-09T09:22:10Z</time>
      </trkpt>
      <trkpt lat="45.06813" lon="6.06386">
        <ele>1464.6</ele>
        <time>2024-08-09T09:22:11Z</time>
      </trkpt>
      <trkpt lat="45.06813" lon="6.06386">
        <ele>1464.6</ele>
        <time>2024-08-09T09:22:12Z</time>
      </trkpt>
      <trkpt lat="45.06815" lon="6.06385">
        <ele>1464.6</ele>
        <time>2024-08-09T09:22:13Z</time>
      </trkpt>
      <trkpt lat="45.06815" lon="6.06385">
        <ele>1464.8</ele>
        <time>2024-08-09T09:22:14Z</time>
      </trkpt>
      <trkpt lat="45.06818" lon="6.06385">
        <ele>1465.2</ele>
        <time>2024-08-09T09:22:15Z</time>
      </trkpt>
      <trkpt lat="45.06818" lon="6.06385">
        <ele>1465.2</ele>
        <time>2024-08-09T09:22:16Z</time>
      </trkpt>
      <trkpt lat="45.0682" lon="6.06384">
        <ele>1465.4</ele>
        <time>2024-08-09T09:22:17Z</time>
      </trkpt>
      <trkpt lat="45.0682" lon="6.06384">
        <ele>1465.4</ele>
        <time>2024-08-09T09:22:18Z</time>
      </trkpt>
      <trkpt lat="45.06822" lon="6.06383">
        <ele>1465.4</ele>
        <time>2024-08-09T09:22:19Z</time>
      </trkpt>
      <trkpt lat="45.06822" lon="6.06383">
        <ele>1465.4</ele>
        <time>2024-08-09T09:22:20Z</time>
      </trkpt>
      <trkpt lat="45.06825" lon="6.06384">
        <ele>1465.6</ele>
        <time>2024-08-09T09:22:21Z</time>
      </trkpt>
      <trkpt lat="45.06825" lon="6.06384">
        <ele>1465.6</ele>
        <time>2024-08-09T09:22:22Z</time>
      </trkpt>
      <trkpt lat="45.06828" lon="6.06384">
        <ele>1466</ele>
        <time>2024-08-09T09:22:23Z</time>
      </trkpt>
      <trkpt lat="45.06828" lon="6.06384">
        <ele>1466.2</ele>
        <time>2024-08-09T09:22:24Z</time>
      </trkpt>
      <trkpt lat="45.0683" lon="6.06384">
        <ele>1466.2</ele>
        <time>2024-08-09T09:22:25Z</time>
      </trkpt>
      <trkpt lat="45.0683" lon="6.06384">
        <ele>1466.2</ele>
        <time>2024-08-09T09:22:26Z</time>
      </trkpt>
      <trkpt lat="45.06833" lon="6.06383">
        <ele>1466.4</ele>
        <time>2024-08-09T09:22:27Z</time>
      </trkpt>
      <trkpt lat="45.06833" lon="6.06383">
        <ele>1466.6</ele>
        <time>2024-08-09T09:22:28Z</time>
      </trkpt>
      <trkpt lat="45.06835" lon="6.06382">
        <ele>1466.6</ele>
        <time>2024-08-09T09:22:29Z</time>
      </trkpt>
      <trkpt lat="45.06835" lon="6.06382">
        <ele>1466.6</ele>
        <time>2024-08-09T09:22:30Z</time>
      </trkpt>
      <trkpt lat="45.06837" lon="6.06382">
        <ele>1466.8</ele>
        <time>2024-08-09T09:22:31Z</time>
      </trkpt>
      <trkpt lat="45.06837" lon="6.06382">
        <ele>1467.2</ele>
        <time>2024-08-09T09:22:32Z</time>
      </trkpt>
      <trkpt lat="45.0684" lon="6.06382">
        <ele>1467.2</ele>
        <time>2024-08-09T09:22:33Z</time>
      </trkpt>
      <trkpt lat="45.0684" lon="6.06382">
        <ele>1467.2</ele>
        <time>2024-08-09T09:22:34Z</time>
      </trkpt>
      <trkpt lat="45.06843" lon="6.06382">
        <ele>1467.2</ele>
        <time>2024-08-09T09:22:35Z</time>
      </trkpt>
      <trkpt lat="45.06843" lon="6.06382">
        <ele>1467.4</ele>
        <time>2024-08-09T09:22:36Z</time>
      </trkpt>
      <trkpt lat="45.06845" lon="6.06381">
        <ele>1467.4</ele>
        <time>2024-08-09T09:22:37Z</time>
      </trkpt>
      <trkpt lat="45.06845" lon="6.06381">
        <ele>1467.4</ele>
        <time>2024-08-09T09:22:38Z</time>
      </trkpt>
      <trkpt lat="45.06847" lon="6.06378">
        <ele>1467.6</ele>
        <time>2024-08-09T09:22:39Z</time>
      </trkpt>
      <trkpt lat="45.06847" lon="6.06378">
        <ele>1467.6</ele>
        <time>2024-08-09T09:22:40Z</time>
      </trkpt>
      <trkpt lat="45.06849" lon="6.06376">
        <ele>1467.6</ele>
        <time>2024-08-09T09:22:41Z</time>
      </trkpt>
      <trkpt lat="45.06849" lon="6.06376">
        <ele>1467.6</ele>
        <time>2024-08-09T09:22:42Z</time>
      </trkpt>
      <trkpt lat="45.06851" lon="6.06373">
        <ele>1467.8</ele>
        <time>2024-08-09T09:22:43Z</time>
      </trkpt>
      <trkpt lat="45.06851" lon="6.06373">
        <ele>1467.8</ele>
        <time>2024-08-09T09:22:44Z</time>
      </trkpt>
      <trkpt lat="45.06853" lon="6.06371">
        <ele>1468</ele>
        <time>2024-08-09T09:22:45Z</time>
      </trkpt>
      <trkpt lat="45.06853" lon="6.06371">
        <ele>1468.2</ele>
        <time>2024-08-09T09:22:46Z</time>
      </trkpt>
      <trkpt lat="45.06855" lon="6.06368">
        <ele>1468.4</ele>
        <time>2024-08-09T09:22:47Z</time>
      </trkpt>
      <trkpt lat="45.06855" lon="6.06368">
        <ele>1468.4</ele>
        <time>2024-08-09T09:22:48Z</time>
      </trkpt>
      <trkpt lat="45.06857" lon="6.06366">
        <ele>1468.4</ele>
        <time>2024-08-09T09:22:49Z</time>
      </trkpt>
      <trkpt lat="45.06857" lon="6.06366">
        <ele>1468.4</ele>
        <time>2024-08-09T09:22:50Z</time>
      </trkpt>
      <trkpt lat="45.0686" lon="6.06364">
        <ele>1468.4</ele>
        <time>2024-08-09T09:22:51Z</time>
      </trkpt>
      <trkpt lat="45.0686" lon="6.06364">
        <ele>1468.6</ele>
        <time>2024-08-09T09:22:52Z</time>
      </trkpt>
      <trkpt lat="45.06863" lon="6.06362">
        <ele>1468.6</ele>
        <time>2024-08-09T09:22:53Z</time>
      </trkpt>
      <trkpt lat="45.06863" lon="6.06362">
        <ele>1468.8</ele>
        <time>2024-08-09T09:22:54Z</time>
      </trkpt>
      <trkpt lat="45.06865" lon="6.0636">
        <ele>1469</ele>
        <time>2024-08-09T09:22:55Z</time>
      </trkpt>
      <trkpt lat="45.06866" lon="6.06358">
        <ele>1469</ele>
        <time>2024-08-09T09:22:56Z</time>
      </trkpt>
      <trkpt lat="45.06866" lon="6.06358">
        <ele>1469</ele>
        <time>2024-08-09T09:22:57Z</time>
      </trkpt>
      <trkpt lat="45.06869" lon="6.06358">
        <ele>1469.2</ele>
        <time>2024-08-09T09:22:58Z</time>
      </trkpt>
      <trkpt lat="45.06869" lon="6.06358">
        <ele>1469.2</ele>
        <time>2024-08-09T09:22:59Z</time>
      </trkpt>
      <trkpt lat="45.06871" lon="6.06359">
        <ele>1469.2</ele>
        <time>2024-08-09T09:23:00Z</time>
      </trkpt>
      <trkpt lat="45.06871" lon="6.06359">
        <ele>1469.4</ele>
        <time>2024-08-09T09:23:01Z</time>
      </trkpt>
      <trkpt lat="45.06875" lon="6.06362">
        <ele>1469.6</ele>
        <time>2024-08-09T09:23:02Z</time>
      </trkpt>
      <trkpt lat="45.06875" lon="6.06362">
        <ele>1469.6</ele>
        <time>2024-08-09T09:23:03Z</time>
      </trkpt>
      <trkpt lat="45.06877" lon="6.06362">
        <ele>1469.8</ele>
        <time>2024-08-09T09:23:04Z</time>
      </trkpt>
      <trkpt lat="45.06877" lon="6.06362">
        <ele>1470</ele>
        <time>2024-08-09T09:23:05Z</time>
      </trkpt>
      <trkpt lat="45.0688" lon="6.06361">
        <ele>1470.2</ele>
        <time>2024-08-09T09:23:06Z</time>
      </trkpt>
      <trkpt lat="45.0688" lon="6.06361">
        <ele>1470.2</ele>
        <time>2024-08-09T09:23:07Z</time>
      </trkpt>
      <trkpt lat="45.06882" lon="6.0636">
        <ele>1470.4</ele>
        <time>2024-08-09T09:23:08Z</time>
      </trkpt>
      <trkpt lat="45.06882" lon="6.0636">
        <ele>1470.4</ele>
        <time>2024-08-09T09:23:09Z</time>
      </trkpt>
      <trkpt lat="45.06885" lon="6.06358">
        <ele>1470.4</ele>
        <time>2024-08-09T09:23:10Z</time>
      </trkpt>
      <trkpt lat="45.06885" lon="6.06358">
        <ele>1470.8</ele>
        <time>2024-08-09T09:23:11Z</time>
      </trkpt>
      <trkpt lat="45.06887" lon="6.06357">
        <ele>1471.2</ele>
        <time>2024-08-09T09:23:12Z</time>
      </trkpt>
      <trkpt lat="45.06887" lon="6.06357">
        <ele>1471.2</ele>
        <time>2024-08-09T09:23:13Z</time>
      </trkpt>
      <trkpt lat="45.0689" lon="6.06356">
        <ele>1470.8</ele>
        <time>2024-08-09T09:23:14Z</time>
      </trkpt>
      <trkpt lat="45.0689" lon="6.06356">
        <ele>1470.6</ele>
        <time>2024-08-09T09:23:15Z</time>
      </trkpt>
      <trkpt lat="45.06892" lon="6.06355">
        <ele>1470.6</ele>
        <time>2024-08-09T09:23:16Z</time>
      </trkpt>
      <trkpt lat="45.06892" lon="6.06355">
        <ele>1471.2</ele>
        <time>2024-08-09T09:23:17Z</time>
      </trkpt>
      <trkpt lat="45.06894" lon="6.06355">
        <ele>1471.2</ele>
        <time>2024-08-09T09:23:18Z</time>
      </trkpt>
      <trkpt lat="45.06894" lon="6.06355">
        <ele>1471.2</ele>
        <time>2024-08-09T09:23:19Z</time>
      </trkpt>
      <trkpt lat="45.06896" lon="6.06354">
        <ele>1471.2</ele>
        <time>2024-08-09T09:23:20Z</time>
      </trkpt>
      <trkpt lat="45.06896" lon="6.06354">
        <ele>1471.2</ele>
        <time>2024-08-09T09:23:21Z</time>
      </trkpt>
      <trkpt lat="45.06899" lon="6.06355">
        <ele>1471.2</ele>
        <time>2024-08-09T09:23:22Z</time>
      </trkpt>
      <trkpt lat="45.06901" lon="6.06356">
        <ele>1471.2</ele>
        <time>2024-08-09T09:23:23Z</time>
      </trkpt>
      <trkpt lat="45.06903" lon="6.06358">
        <ele>1471.4</ele>
        <time>2024-08-09T09:23:24Z</time>
      </trkpt>
      <trkpt lat="45.06903" lon="6.06358">
        <ele>1471.4</ele>
        <time>2024-08-09T09:23:25Z</time>
      </trkpt>
      <trkpt lat="45.06905" lon="6.0636">
        <ele>1471.4</ele>
        <time>2024-08-09T09:23:26Z</time>
      </trkpt>
      <trkpt lat="45.06905" lon="6.0636">
        <ele>1471.6</ele>
        <time>2024-08-09T09:23:27Z</time>
      </trkpt>
      <trkpt lat="45.06908" lon="6.06361">
        <ele>1471.8</ele>
        <time>2024-08-09T09:23:28Z</time>
      </trkpt>
      <trkpt lat="45.06908" lon="6.06361">
        <ele>1471.8</ele>
        <time>2024-08-09T09:23:29Z</time>
      </trkpt>
      <trkpt lat="45.0691" lon="6.06363">
        <ele>1472</ele>
        <time>2024-08-09T09:23:30Z</time>
      </trkpt>
      <trkpt lat="45.06912" lon="6.06364">
        <ele>1472</ele>
        <time>2024-08-09T09:23:31Z</time>
      </trkpt>
      <trkpt lat="45.06912" lon="6.06364">
        <ele>1472</ele>
        <time>2024-08-09T09:23:32Z</time>
      </trkpt>
      <trkpt lat="45.06914" lon="6.06367">
        <ele>1472</ele>
        <time>2024-08-09T09:23:33Z</time>
      </trkpt>
      <trkpt lat="45.06914" lon="6.06367">
        <ele>1472</ele>
        <time>2024-08-09T09:23:34Z</time>
      </trkpt>
      <trkpt lat="45.06917" lon="6.06369">
        <ele>1472.4</ele>
        <time>2024-08-09T09:23:35Z</time>
      </trkpt>
      <trkpt lat="45.06917" lon="6.06369">
        <ele>1472.4</ele>
        <time>2024-08-09T09:23:36Z</time>
      </trkpt>
      <trkpt lat="45.06919" lon="6.06371">
        <ele>1472.4</ele>
        <time>2024-08-09T09:23:37Z</time>
      </trkpt>
      <trkpt lat="45.06919" lon="6.06371">
        <ele>1472.6</ele>
        <time>2024-08-09T09:23:38Z</time>
      </trkpt>
      <trkpt lat="45.06921" lon="6.06373">
        <ele>1472.6</ele>
        <time>2024-08-09T09:23:39Z</time>
      </trkpt>
      <trkpt lat="45.06921" lon="6.06373">
        <ele>1472.6</ele>
        <time>2024-08-09T09:23:40Z</time>
      </trkpt>
      <trkpt lat="45.06924" lon="6.06375">
        <ele>1472.8</ele>
        <time>2024-08-09T09:23:41Z</time>
      </trkpt>
      <trkpt lat="45.06924" lon="6.06375">
        <ele>1473</ele>
        <time>2024-08-09T09:23:42Z</time>
      </trkpt>
      <trkpt lat="45.06927" lon="6.06377">
        <ele>1473</ele>
        <time>2024-08-09T09:23:43Z</time>
      </trkpt>
      <trkpt lat="45.06927" lon="6.06377">
        <ele>1473</ele>
        <time>2024-08-09T09:23:44Z</time>
      </trkpt>
      <trkpt lat="45.06929" lon="6.06378">
        <ele>1473.2</ele>
        <time>2024-08-09T09:23:45Z</time>
      </trkpt>
      <trkpt lat="45.06929" lon="6.06378">
        <ele>1473.2</ele>
        <time>2024-08-09T09:23:46Z</time>
      </trkpt>
      <trkpt lat="45.06932" lon="6.0638">
        <ele>1473.2</ele>
        <time>2024-08-09T09:23:47Z</time>
      </trkpt>
      <trkpt lat="45.06932" lon="6.0638">
        <ele>1473.4</ele>
        <time>2024-08-09T09:23:48Z</time>
      </trkpt>
      <trkpt lat="45.06934" lon="6.06383">
        <ele>1473.6</ele>
        <time>2024-08-09T09:23:49Z</time>
      </trkpt>
      <trkpt lat="45.06934" lon="6.06383">
        <ele>1473.6</ele>
        <time>2024-08-09T09:23:50Z</time>
      </trkpt>
      <trkpt lat="45.06936" lon="6.06385">
        <ele>1473.6</ele>
        <time>2024-08-09T09:23:51Z</time>
      </trkpt>
      <trkpt lat="45.06936" lon="6.06385">
        <ele>1474</ele>
        <time>2024-08-09T09:23:52Z</time>
      </trkpt>
      <trkpt lat="45.06938" lon="6.06388">
        <ele>1474</ele>
        <time>2024-08-09T09:23:53Z</time>
      </trkpt>
      <trkpt lat="45.06938" lon="6.06388">
        <ele>1474</ele>
        <time>2024-08-09T09:23:54Z</time>
      </trkpt>
      <trkpt lat="45.06941" lon="6.0639">
        <ele>1474</ele>
        <time>2024-08-09T09:23:55Z</time>
      </trkpt>
      <trkpt lat="45.06941" lon="6.0639">
        <ele>1474.4</ele>
        <time>2024-08-09T09:23:56Z</time>
      </trkpt>
      <trkpt lat="45.06942" lon="6.06392">
        <ele>1474.4</ele>
        <time>2024-08-09T09:23:57Z</time>
      </trkpt>
      <trkpt lat="45.06942" lon="6.06392">
        <ele>1474.4</ele>
        <time>2024-08-09T09:23:58Z</time>
      </trkpt>
      <trkpt lat="45.06945" lon="6.06394">
        <ele>1474.2</ele>
        <time>2024-08-09T09:23:59Z</time>
      </trkpt>
      <trkpt lat="45.06945" lon="6.06394">
        <ele>1474.2</ele>
        <time>2024-08-09T09:24:00Z</time>
      </trkpt>
      <trkpt lat="45.06947" lon="6.06396">
        <ele>1474.6</ele>
        <time>2024-08-09T09:24:01Z</time>
      </trkpt>
      <trkpt lat="45.06949" lon="6.06397">
        <ele>1474.8</ele>
        <time>2024-08-09T09:24:02Z</time>
      </trkpt>
      <trkpt lat="45.06949" lon="6.06397">
        <ele>1474.8</ele>
        <time>2024-08-09T09:24:03Z</time>
      </trkpt>
      <trkpt lat="45.06951" lon="6.06399">
        <ele>1475</ele>
        <time>2024-08-09T09:24:04Z</time>
      </trkpt>
      <trkpt lat="45.06952" lon="6.064">
        <ele>1475</ele>
        <time>2024-08-09T09:24:05Z</time>
      </trkpt>
      <trkpt lat="45.06952" lon="6.064">
        <ele>1475</ele>
        <time>2024-08-09T09:24:06Z</time>
      </trkpt>
      <trkpt lat="45.06952" lon="6.064">
        <ele>1475</ele>
        <time>2024-08-09T09:24:07Z</time>
      </trkpt>
      <trkpt lat="45.06955" lon="6.06402">
        <ele>1475.2</ele>
        <time>2024-08-09T09:24:08Z</time>
      </trkpt>
      <trkpt lat="45.06955" lon="6.06402">
        <ele>1475.2</ele>
        <time>2024-08-09T09:24:09Z</time>
      </trkpt>
      <trkpt lat="45.06957" lon="6.06403">
        <ele>1475.2</ele>
        <time>2024-08-09T09:24:10Z</time>
      </trkpt>
      <trkpt lat="45.06957" lon="6.06403">
        <ele>1475.6</ele>
        <time>2024-08-09T09:24:11Z</time>
      </trkpt>
      <trkpt lat="45.06959" lon="6.06405">
        <ele>1475.6</ele>
        <time>2024-08-09T09:24:12Z</time>
      </trkpt>
      <trkpt lat="45.06959" lon="6.06405">
        <ele>1475.6</ele>
        <time>2024-08-09T09:24:13Z</time>
      </trkpt>
      <trkpt lat="45.06961" lon="6.06407">
        <ele>1475.8</ele>
        <time>2024-08-09T09:24:14Z</time>
      </trkpt>
      <trkpt lat="45.06961" lon="6.06407">
        <ele>1475.8</ele>
        <time>2024-08-09T09:24:15Z</time>
      </trkpt>
      <trkpt lat="45.06963" lon="6.06408">
        <ele>1476</ele>
        <time>2024-08-09T09:24:16Z</time>
      </trkpt>
      <trkpt lat="45.06965" lon="6.0641">
        <ele>1476</ele>
        <time>2024-08-09T09:24:17Z</time>
      </trkpt>
      <trkpt lat="45.06967" lon="6.0641">
        <ele>1476.2</ele>
        <time>2024-08-09T09:24:18Z</time>
      </trkpt>
      <trkpt lat="45.06967" lon="6.0641">
        <ele>1476.2</ele>
        <time>2024-08-09T09:24:19Z</time>
      </trkpt>
      <trkpt lat="45.0697" lon="6.06412">
        <ele>1476.2</ele>
        <time>2024-08-09T09:24:20Z</time>
      </trkpt>
      <trkpt lat="45.0697" lon="6.06412">
        <ele>1476.4</ele>
        <time>2024-08-09T09:24:21Z</time>
      </trkpt>
      <trkpt lat="45.06972" lon="6.06414">
        <ele>1476.4</ele>
        <time>2024-08-09T09:24:22Z</time>
      </trkpt>
      <trkpt lat="45.06972" lon="6.06414">
        <ele>1476.6</ele>
        <time>2024-08-09T09:24:23Z</time>
      </trkpt>
      <trkpt lat="45.06974" lon="6.06414">
        <ele>1476.8</ele>
        <time>2024-08-09T09:24:24Z</time>
      </trkpt>
      <trkpt lat="45.06974" lon="6.06414">
        <ele>1476.8</ele>
        <time>2024-08-09T09:24:25Z</time>
      </trkpt>
      <trkpt lat="45.06978" lon="6.06416">
        <ele>1477</ele>
        <time>2024-08-09T09:24:26Z</time>
      </trkpt>
      <trkpt lat="45.06978" lon="6.06416">
        <ele>1477.2</ele>
        <time>2024-08-09T09:24:27Z</time>
      </trkpt>
      <trkpt lat="45.0698" lon="6.06417">
        <ele>1477.2</ele>
        <time>2024-08-09T09:24:28Z</time>
      </trkpt>
      <trkpt lat="45.0698" lon="6.06417">
        <ele>1477.2</ele>
        <time>2024-08-09T09:24:29Z</time>
      </trkpt>
      <trkpt lat="45.06983" lon="6.06417">
        <ele>1477.2</ele>
        <time>2024-08-09T09:24:30Z</time>
      </trkpt>
      <trkpt lat="45.06983" lon="6.06417">
        <ele>1477.2</ele>
        <time>2024-08-09T09:24:31Z</time>
      </trkpt>
      <trkpt lat="45.06986" lon="6.06416">
        <ele>1477.2</ele>
        <time>2024-08-09T09:24:32Z</time>
      </trkpt>
      <trkpt lat="45.06986" lon="6.06416">
        <ele>1477.2</ele>
        <time>2024-08-09T09:24:33Z</time>
      </trkpt>
      <trkpt lat="45.06989" lon="6.06417">
        <ele>1477.6</ele>
        <time>2024-08-09T09:24:34Z</time>
      </trkpt>
      <trkpt lat="45.06989" lon="6.06417">
        <ele>1477.6</ele>
        <time>2024-08-09T09:24:35Z</time>
      </trkpt>
      <trkpt lat="45.06992" lon="6.06418">
        <ele>1477.6</ele>
        <time>2024-08-09T09:24:36Z</time>
      </trkpt>
      <trkpt lat="45.06992" lon="6.06418">
        <ele>1477.8</ele>
        <time>2024-08-09T09:24:37Z</time>
      </trkpt>
      <trkpt lat="45.06994" lon="6.06419">
        <ele>1478</ele>
        <time>2024-08-09T09:24:38Z</time>
      </trkpt>
      <trkpt lat="45.06994" lon="6.06419">
        <ele>1478.2</ele>
        <time>2024-08-09T09:24:39Z</time>
      </trkpt>
      <trkpt lat="45.06997" lon="6.06419">
        <ele>1478.2</ele>
        <time>2024-08-09T09:24:40Z</time>
      </trkpt>
      <trkpt lat="45.06998" lon="6.06419">
        <ele>1478.2</ele>
        <time>2024-08-09T09:24:41Z</time>
      </trkpt>
      <trkpt lat="45.06998" lon="6.06419">
        <ele>1478.4</ele>
        <time>2024-08-09T09:24:42Z</time>
      </trkpt>
      <trkpt lat="45.07001" lon="6.06419">
        <ele>1478.4</ele>
        <time>2024-08-09T09:24:43Z</time>
      </trkpt>
      <trkpt lat="45.07001" lon="6.06419">
        <ele>1478.2</ele>
        <time>2024-08-09T09:24:44Z</time>
      </trkpt>
      <trkpt lat="45.07004" lon="6.0642">
        <ele>1478.2</ele>
        <time>2024-08-09T09:24:45Z</time>
      </trkpt>
      <trkpt lat="45.07004" lon="6.0642">
        <ele>1478.2</ele>
        <time>2024-08-09T09:24:46Z</time>
      </trkpt>
      <trkpt lat="45.07006" lon="6.06421">
        <ele>1478.4</ele>
        <time>2024-08-09T09:24:47Z</time>
      </trkpt>
      <trkpt lat="45.07008" lon="6.0642">
        <ele>1478.4</ele>
        <time>2024-08-09T09:24:48Z</time>
      </trkpt>
      <trkpt lat="45.07008" lon="6.0642">
        <ele>1478.6</ele>
        <time>2024-08-09T09:24:49Z</time>
      </trkpt>
      <trkpt lat="45.0701" lon="6.0642">
        <ele>1478.6</ele>
        <time>2024-08-09T09:24:50Z</time>
      </trkpt>
      <trkpt lat="45.07012" lon="6.06419">
        <ele>1478.8</ele>
        <time>2024-08-09T09:24:51Z</time>
      </trkpt>
      <trkpt lat="45.07012" lon="6.06419">
        <ele>1479</ele>
        <time>2024-08-09T09:24:52Z</time>
      </trkpt>
      <trkpt lat="45.07015" lon="6.06418">
        <ele>1479.2</ele>
        <time>2024-08-09T09:24:53Z</time>
      </trkpt>
      <trkpt lat="45.07015" lon="6.06418">
        <ele>1479.4</ele>
        <time>2024-08-09T09:24:54Z</time>
      </trkpt>
      <trkpt lat="45.07018" lon="6.06418">
        <ele>1479.4</ele>
        <time>2024-08-09T09:24:55Z</time>
      </trkpt>
      <trkpt lat="45.0702" lon="6.06418">
        <ele>1479.6</ele>
        <time>2024-08-09T09:24:56Z</time>
      </trkpt>
      <trkpt lat="45.0702" lon="6.06418">
        <ele>1479.6</ele>
        <time>2024-08-09T09:24:57Z</time>
      </trkpt>
      <trkpt lat="45.07022" lon="6.06419">
        <ele>1479.6</ele>
        <time>2024-08-09T09:24:58Z</time>
      </trkpt>
      <trkpt lat="45.07022" lon="6.06419">
        <ele>1479.6</ele>
        <time>2024-08-09T09:24:59Z</time>
      </trkpt>
      <trkpt lat="45.07024" lon="6.06421">
        <ele>1479.8</ele>
        <time>2024-08-09T09:25:00Z</time>
      </trkpt>
      <trkpt lat="45.07024" lon="6.06421">
        <ele>1479.8</ele>
        <time>2024-08-09T09:25:01Z</time>
      </trkpt>
      <trkpt lat="45.07026" lon="6.06421">
        <ele>1480</ele>
        <time>2024-08-09T09:25:02Z</time>
      </trkpt>
      <trkpt lat="45.07026" lon="6.06421">
        <ele>1480</ele>
        <time>2024-08-09T09:25:03Z</time>
      </trkpt>
      <trkpt lat="45.07029" lon="6.06423">
        <ele>1480.2</ele>
        <time>2024-08-09T09:25:04Z</time>
      </trkpt>
      <trkpt lat="45.07029" lon="6.06423">
        <ele>1480.4</ele>
        <time>2024-08-09T09:25:05Z</time>
      </trkpt>
      <trkpt lat="45.07031" lon="6.06423">
        <ele>1480.4</ele>
        <time>2024-08-09T09:25:06Z</time>
      </trkpt>
      <trkpt lat="45.07031" lon="6.06423">
        <ele>1480.4</ele>
        <time>2024-08-09T09:25:07Z</time>
      </trkpt>
      <trkpt lat="45.07034" lon="6.06423">
        <ele>1480.4</ele>
        <time>2024-08-09T09:25:08Z</time>
      </trkpt>
      <trkpt lat="45.07034" lon="6.06423">
        <ele>1480.4</ele>
        <time>2024-08-09T09:25:09Z</time>
      </trkpt>
      <trkpt lat="45.07037" lon="6.06424">
        <ele>1480.4</ele>
        <time>2024-08-09T09:25:10Z</time>
      </trkpt>
      <trkpt lat="45.07037" lon="6.06424">
        <ele>1480.8</ele>
        <time>2024-08-09T09:25:11Z</time>
      </trkpt>
      <trkpt lat="45.07037" lon="6.06424">
        <ele>1481</ele>
        <time>2024-08-09T09:25:12Z</time>
      </trkpt>
      <trkpt lat="45.0704" lon="6.06424">
        <ele>1481</ele>
        <time>2024-08-09T09:25:13Z</time>
      </trkpt>
      <trkpt lat="45.0704" lon="6.06424">
        <ele>1481</ele>
        <time>2024-08-09T09:25:14Z</time>
      </trkpt>
      <trkpt lat="45.07043" lon="6.06425">
        <ele>1481</ele>
        <time>2024-08-09T09:25:15Z</time>
      </trkpt>
      <trkpt lat="45.07043" lon="6.06425">
        <ele>1481</ele>
        <time>2024-08-09T09:25:16Z</time>
      </trkpt>
      <trkpt lat="45.07045" lon="6.06425">
        <ele>1481.2</ele>
        <time>2024-08-09T09:25:17Z</time>
      </trkpt>
      <trkpt lat="45.07045" lon="6.06425">
        <ele>1481.2</ele>
        <time>2024-08-09T09:25:18Z</time>
      </trkpt>
      <trkpt lat="45.07048" lon="6.06425">
        <ele>1481.2</ele>
        <time>2024-08-09T09:25:19Z</time>
      </trkpt>
      <trkpt lat="45.07048" lon="6.06425">
        <ele>1481.2</ele>
        <time>2024-08-09T09:25:20Z</time>
      </trkpt>
      <trkpt lat="45.07051" lon="6.06426">
        <ele>1481.4</ele>
        <time>2024-08-09T09:25:21Z</time>
      </trkpt>
      <trkpt lat="45.07051" lon="6.06426">
        <ele>1481.6</ele>
        <time>2024-08-09T09:25:22Z</time>
      </trkpt>
      <trkpt lat="45.07053" lon="6.06427">
        <ele>1481.8</ele>
        <time>2024-08-09T09:25:23Z</time>
      </trkpt>
      <trkpt lat="45.07053" lon="6.06427">
        <ele>1481.8</ele>
        <time>2024-08-09T09:25:24Z</time>
      </trkpt>
      <trkpt lat="45.07056" lon="6.06428">
        <ele>1482</ele>
        <time>2024-08-09T09:25:25Z</time>
      </trkpt>
      <trkpt lat="45.07056" lon="6.06428">
        <ele>1482</ele>
        <time>2024-08-09T09:25:26Z</time>
      </trkpt>
      <trkpt lat="45.07058" lon="6.06429">
        <ele>1482</ele>
        <time>2024-08-09T09:25:27Z</time>
      </trkpt>
      <trkpt lat="45.07058" lon="6.06429">
        <ele>1482</ele>
        <time>2024-08-09T09:25:28Z</time>
      </trkpt>
      <trkpt lat="45.07061" lon="6.0643">
        <ele>1482</ele>
        <time>2024-08-09T09:25:29Z</time>
      </trkpt>
      <trkpt lat="45.07061" lon="6.0643">
        <ele>1482.2</ele>
        <time>2024-08-09T09:25:30Z</time>
      </trkpt>
      <trkpt lat="45.07064" lon="6.06431">
        <ele>1482.2</ele>
        <time>2024-08-09T09:25:31Z</time>
      </trkpt>
      <trkpt lat="45.07064" lon="6.06431">
        <ele>1482.4</ele>
        <time>2024-08-09T09:25:32Z</time>
      </trkpt>
      <trkpt lat="45.07066" lon="6.06432">
        <ele>1482.6</ele>
        <time>2024-08-09T09:25:33Z</time>
      </trkpt>
      <trkpt lat="45.07066" lon="6.06432">
        <ele>1482.6</ele>
        <time>2024-08-09T09:25:34Z</time>
      </trkpt>
      <trkpt lat="45.07069" lon="6.06433">
        <ele>1482.6</ele>
        <time>2024-08-09T09:25:35Z</time>
      </trkpt>
      <trkpt lat="45.07069" lon="6.06433">
        <ele>1482.8</ele>
        <time>2024-08-09T09:25:36Z</time>
      </trkpt>
      <trkpt lat="45.07071" lon="6.06434">
        <ele>1483</ele>
        <time>2024-08-09T09:25:37Z</time>
      </trkpt>
      <trkpt lat="45.07071" lon="6.06434">
        <ele>1483</ele>
        <time>2024-08-09T09:25:38Z</time>
      </trkpt>
      <trkpt lat="45.07074" lon="6.06434">
        <ele>1483</ele>
        <time>2024-08-09T09:25:39Z</time>
      </trkpt>
      <trkpt lat="45.07074" lon="6.06434">
        <ele>1483</ele>
        <time>2024-08-09T09:25:40Z</time>
      </trkpt>
      <trkpt lat="45.07077" lon="6.06433">
        <ele>1483.2</ele>
        <time>2024-08-09T09:25:41Z</time>
      </trkpt>
      <trkpt lat="45.07077" lon="6.06433">
        <ele>1483.4</ele>
        <time>2024-08-09T09:25:42Z</time>
      </trkpt>
      <trkpt lat="45.0708" lon="6.06433">
        <ele>1483.6</ele>
        <time>2024-08-09T09:25:43Z</time>
      </trkpt>
      <trkpt lat="45.0708" lon="6.06433">
        <ele>1483.8</ele>
        <time>2024-08-09T09:25:44Z</time>
      </trkpt>
      <trkpt lat="45.07082" lon="6.06432">
        <ele>1483.8</ele>
        <time>2024-08-09T09:25:45Z</time>
      </trkpt>
      <trkpt lat="45.07082" lon="6.06432">
        <ele>1483.8</ele>
        <time>2024-08-09T09:25:46Z</time>
      </trkpt>
      <trkpt lat="45.07085" lon="6.06433">
        <ele>1484</ele>
        <time>2024-08-09T09:25:47Z</time>
      </trkpt>
      <trkpt lat="45.07085" lon="6.06433">
        <ele>1484</ele>
        <time>2024-08-09T09:25:48Z</time>
      </trkpt>
      <trkpt lat="45.07087" lon="6.06433">
        <ele>1484</ele>
        <time>2024-08-09T09:25:49Z</time>
      </trkpt>
      <trkpt lat="45.07087" lon="6.06433">
        <ele>1484</ele>
        <time>2024-08-09T09:25:50Z</time>
      </trkpt>
      <trkpt lat="45.0709" lon="6.06434">
        <ele>1484</ele>
        <time>2024-08-09T09:25:51Z</time>
      </trkpt>
      <trkpt lat="45.0709" lon="6.06434">
        <ele>1484.6</ele>
        <time>2024-08-09T09:25:52Z</time>
      </trkpt>
      <trkpt lat="45.07093" lon="6.06435">
        <ele>1484.6</ele>
        <time>2024-08-09T09:25:53Z</time>
      </trkpt>
      <trkpt lat="45.07093" lon="6.06435">
        <ele>1484.6</ele>
        <time>2024-08-09T09:25:54Z</time>
      </trkpt>
      <trkpt lat="45.07095" lon="6.06436">
        <ele>1484.8</ele>
        <time>2024-08-09T09:25:55Z</time>
      </trkpt>
      <trkpt lat="45.07095" lon="6.06436">
        <ele>1485</ele>
        <time>2024-08-09T09:25:56Z</time>
      </trkpt>
      <trkpt lat="45.07098" lon="6.06438">
        <ele>1485</ele>
        <time>2024-08-09T09:25:57Z</time>
      </trkpt>
      <trkpt lat="45.07098" lon="6.06438">
        <ele>1485</ele>
        <time>2024-08-09T09:25:58Z</time>
      </trkpt>
      <trkpt lat="45.07101" lon="6.06439">
        <ele>1485</ele>
        <time>2024-08-09T09:25:59Z</time>
      </trkpt>
      <trkpt lat="45.07101" lon="6.06439">
        <ele>1484.8</ele>
        <time>2024-08-09T09:26:00Z</time>
      </trkpt>
      <trkpt lat="45.07103" lon="6.0644">
        <ele>1484.8</ele>
        <time>2024-08-09T09:26:01Z</time>
      </trkpt>
      <trkpt lat="45.07103" lon="6.0644">
        <ele>1485.2</ele>
        <time>2024-08-09T09:26:02Z</time>
      </trkpt>
      <trkpt lat="45.07106" lon="6.0644">
        <ele>1485.2</ele>
        <time>2024-08-09T09:26:03Z</time>
      </trkpt>
      <trkpt lat="45.07106" lon="6.0644">
        <ele>1485.6</ele>
        <time>2024-08-09T09:26:04Z</time>
      </trkpt>
      <trkpt lat="45.07108" lon="6.06439">
        <ele>1485.8</ele>
        <time>2024-08-09T09:26:05Z</time>
      </trkpt>
      <trkpt lat="45.07108" lon="6.06439">
        <ele>1485.8</ele>
        <time>2024-08-09T09:26:06Z</time>
      </trkpt>
      <trkpt lat="45.07111" lon="6.0644">
        <ele>1485.8</ele>
        <time>2024-08-09T09:26:07Z</time>
      </trkpt>
      <trkpt lat="45.07111" lon="6.0644">
        <ele>1485.8</ele>
        <time>2024-08-09T09:26:08Z</time>
      </trkpt>
      <trkpt lat="45.07114" lon="6.06439">
        <ele>1486</ele>
        <time>2024-08-09T09:26:09Z</time>
      </trkpt>
      <trkpt lat="45.07114" lon="6.06439">
        <ele>1486</ele>
        <time>2024-08-09T09:26:10Z</time>
      </trkpt>
      <trkpt lat="45.07116" lon="6.06439">
        <ele>1486</ele>
        <time>2024-08-09T09:26:11Z</time>
      </trkpt>
      <trkpt lat="45.07116" lon="6.06439">
        <ele>1486</ele>
        <time>2024-08-09T09:26:12Z</time>
      </trkpt>
      <trkpt lat="45.07119" lon="6.0644">
        <ele>1486</ele>
        <time>2024-08-09T09:26:13Z</time>
      </trkpt>
      <trkpt lat="45.07119" lon="6.0644">
        <ele>1486.4</ele>
        <time>2024-08-09T09:26:14Z</time>
      </trkpt>
      <trkpt lat="45.07122" lon="6.0644">
        <ele>1486.4</ele>
        <time>2024-08-09T09:26:15Z</time>
      </trkpt>
      <trkpt lat="45.07122" lon="6.0644">
        <ele>1486.4</ele>
        <time>2024-08-09T09:26:16Z</time>
      </trkpt>
      <trkpt lat="45.07124" lon="6.06439">
        <ele>1486.4</ele>
        <time>2024-08-09T09:26:17Z</time>
      </trkpt>
      <trkpt lat="45.07124" lon="6.06439">
        <ele>1486.4</ele>
        <time>2024-08-09T09:26:18Z</time>
      </trkpt>
      <trkpt lat="45.07126" lon="6.06439">
        <ele>1486.6</ele>
        <time>2024-08-09T09:26:19Z</time>
      </trkpt>
      <trkpt lat="45.07126" lon="6.06439">
        <ele>1486.8</ele>
        <time>2024-08-09T09:26:20Z</time>
      </trkpt>
      <trkpt lat="45.07128" lon="6.0644">
        <ele>1486.8</ele>
        <time>2024-08-09T09:26:21Z</time>
      </trkpt>
      <trkpt lat="45.07128" lon="6.0644">
        <ele>1486.8</ele>
        <time>2024-08-09T09:26:22Z</time>
      </trkpt>
      <trkpt lat="45.07131" lon="6.06441">
        <ele>1486.8</ele>
        <time>2024-08-09T09:26:23Z</time>
      </trkpt>
      <trkpt lat="45.07131" lon="6.06441">
        <ele>1487.2</ele>
        <time>2024-08-09T09:26:24Z</time>
      </trkpt>
      <trkpt lat="45.07133" lon="6.06441">
        <ele>1487.2</ele>
        <time>2024-08-09T09:26:25Z</time>
      </trkpt>
      <trkpt lat="45.07133" lon="6.06441">
        <ele>1487.2</ele>
        <time>2024-08-09T09:26:26Z</time>
      </trkpt>
      <trkpt lat="45.07137" lon="6.06441">
        <ele>1487.2</ele>
        <time>2024-08-09T09:26:27Z</time>
      </trkpt>
      <trkpt lat="45.07137" lon="6.06441">
        <ele>1487.4</ele>
        <time>2024-08-09T09:26:28Z</time>
      </trkpt>
      <trkpt lat="45.07139" lon="6.06441">
        <ele>1487.4</ele>
        <time>2024-08-09T09:26:29Z</time>
      </trkpt>
      <trkpt lat="45.07139" lon="6.06441">
        <ele>1487.4</ele>
        <time>2024-08-09T09:26:30Z</time>
      </trkpt>
      <trkpt lat="45.07142" lon="6.0644">
        <ele>1487.6</ele>
        <time>2024-08-09T09:26:31Z</time>
      </trkpt>
      <trkpt lat="45.07144" lon="6.0644">
        <ele>1487.6</ele>
        <time>2024-08-09T09:26:32Z</time>
      </trkpt>
      <trkpt lat="45.07144" lon="6.0644">
        <ele>1487.6</ele>
        <time>2024-08-09T09:26:33Z</time>
      </trkpt>
      <trkpt lat="45.07147" lon="6.0644">
        <ele>1487.6</ele>
        <time>2024-08-09T09:26:34Z</time>
      </trkpt>
      <trkpt lat="45.07147" lon="6.0644">
        <ele>1488</ele>
        <time>2024-08-09T09:26:35Z</time>
      </trkpt>
      <trkpt lat="45.0715" lon="6.0644">
        <ele>1488.2</ele>
        <time>2024-08-09T09:26:36Z</time>
      </trkpt>
      <trkpt lat="45.0715" lon="6.0644">
        <ele>1488.4</ele>
        <time>2024-08-09T09:26:37Z</time>
      </trkpt>
      <trkpt lat="45.07153" lon="6.0644">
        <ele>1488.4</ele>
        <time>2024-08-09T09:26:38Z</time>
      </trkpt>
      <trkpt lat="45.07153" lon="6.0644">
        <ele>1488.4</ele>
        <time>2024-08-09T09:26:39Z</time>
      </trkpt>
      <trkpt lat="45.07155" lon="6.06439">
        <ele>1488.6</ele>
        <time>2024-08-09T09:26:40Z</time>
      </trkpt>
      <trkpt lat="45.07155" lon="6.06439">
        <ele>1488.6</ele>
        <time>2024-08-09T09:26:41Z</time>
      </trkpt>
      <trkpt lat="45.07158" lon="6.06438">
        <ele>1488.6</ele>
        <time>2024-08-09T09:26:42Z</time>
      </trkpt>
      <trkpt lat="45.07158" lon="6.06438">
        <ele>1488.6</ele>
        <time>2024-08-09T09:26:43Z</time>
      </trkpt>
      <trkpt lat="45.0716" lon="6.06437">
        <ele>1488.8</ele>
        <time>2024-08-09T09:26:44Z</time>
      </trkpt>
      <trkpt lat="45.0716" lon="6.06437">
        <ele>1488.8</ele>
        <time>2024-08-09T09:26:45Z</time>
      </trkpt>
      <trkpt lat="45.07163" lon="6.06435">
        <ele>1488.8</ele>
        <time>2024-08-09T09:26:46Z</time>
      </trkpt>
      <trkpt lat="45.07163" lon="6.06435">
        <ele>1489</ele>
        <time>2024-08-09T09:26:47Z</time>
      </trkpt>
      <trkpt lat="45.07165" lon="6.06434">
        <ele>1489.2</ele>
        <time>2024-08-09T09:26:48Z</time>
      </trkpt>
      <trkpt lat="45.07167" lon="6.06433">
        <ele>1489.4</ele>
        <time>2024-08-09T09:26:49Z</time>
      </trkpt>
      <trkpt lat="45.07167" lon="6.06433">
        <ele>1489.6</ele>
        <time>2024-08-09T09:26:50Z</time>
      </trkpt>
      <trkpt lat="45.07169" lon="6.06431">
        <ele>1489.6</ele>
        <time>2024-08-09T09:26:51Z</time>
      </trkpt>
      <trkpt lat="45.07169" lon="6.06431">
        <ele>1489.6</ele>
        <time>2024-08-09T09:26:52Z</time>
      </trkpt>
      <trkpt lat="45.07171" lon="6.06429">
        <ele>1489.8</ele>
        <time>2024-08-09T09:26:53Z</time>
      </trkpt>
      <trkpt lat="45.07171" lon="6.06429">
        <ele>1490</ele>
        <time>2024-08-09T09:26:54Z</time>
      </trkpt>
      <trkpt lat="45.07173" lon="6.06428">
        <ele>1490</ele>
        <time>2024-08-09T09:26:55Z</time>
      </trkpt>
      <trkpt lat="45.07173" lon="6.06428">
        <ele>1490.2</ele>
        <time>2024-08-09T09:26:56Z</time>
      </trkpt>
      <trkpt lat="45.07175" lon="6.06427">
        <ele>1490.2</ele>
        <time>2024-08-09T09:26:57Z</time>
      </trkpt>
      <trkpt lat="45.07175" lon="6.06427">
        <ele>1490.2</ele>
        <time>2024-08-09T09:26:58Z</time>
      </trkpt>
      <trkpt lat="45.07178" lon="6.06426">
        <ele>1490.2</ele>
        <time>2024-08-09T09:26:59Z</time>
      </trkpt>
      <trkpt lat="45.07178" lon="6.06426">
        <ele>1490.6</ele>
        <time>2024-08-09T09:27:00Z</time>
      </trkpt>
      <trkpt lat="45.07181" lon="6.06425">
        <ele>1490.6</ele>
        <time>2024-08-09T09:27:01Z</time>
      </trkpt>
      <trkpt lat="45.07181" lon="6.06425">
        <ele>1490.8</ele>
        <time>2024-08-09T09:27:02Z</time>
      </trkpt>
      <trkpt lat="45.07184" lon="6.06425">
        <ele>1490.8</ele>
        <time>2024-08-09T09:27:03Z</time>
      </trkpt>
      <trkpt lat="45.07184" lon="6.06425">
        <ele>1490.8</ele>
        <time>2024-08-09T09:27:04Z</time>
      </trkpt>
      <trkpt lat="45.07187" lon="6.06424">
        <ele>1490.8</ele>
        <time>2024-08-09T09:27:05Z</time>
      </trkpt>
      <trkpt lat="45.07187" lon="6.06424">
        <ele>1490.8</ele>
        <time>2024-08-09T09:27:06Z</time>
      </trkpt>
      <trkpt lat="45.07189" lon="6.06425">
        <ele>1490.8</ele>
        <time>2024-08-09T09:27:07Z</time>
      </trkpt>
      <trkpt lat="45.07189" lon="6.06425">
        <ele>1490.8</ele>
        <time>2024-08-09T09:27:08Z</time>
      </trkpt>
      <trkpt lat="45.07192" lon="6.06426">
        <ele>1491</ele>
        <time>2024-08-09T09:27:09Z</time>
      </trkpt>
      <trkpt lat="45.07192" lon="6.06426">
        <ele>1491</ele>
        <time>2024-08-09T09:27:10Z</time>
      </trkpt>
      <trkpt lat="45.07195" lon="6.06427">
        <ele>1491</ele>
        <time>2024-08-09T09:27:11Z</time>
      </trkpt>
      <trkpt lat="45.07197" lon="6.06429">
        <ele>1491</ele>
        <time>2024-08-09T09:27:12Z</time>
      </trkpt>
      <trkpt lat="45.07197" lon="6.06429">
        <ele>1491</ele>
        <time>2024-08-09T09:27:13Z</time>
      </trkpt>
      <trkpt lat="45.07199" lon="6.0643">
        <ele>1491.4</ele>
        <time>2024-08-09T09:27:14Z</time>
      </trkpt>
      <trkpt lat="45.07199" lon="6.0643">
        <ele>1491.6</ele>
        <time>2024-08-09T09:27:15Z</time>
      </trkpt>
      <trkpt lat="45.07202" lon="6.0643">
        <ele>1491.6</ele>
        <time>2024-08-09T09:27:16Z</time>
      </trkpt>
      <trkpt lat="45.07202" lon="6.0643">
        <ele>1491.6</ele>
        <time>2024-08-09T09:27:17Z</time>
      </trkpt>
      <trkpt lat="45.07205" lon="6.0643">
        <ele>1491.6</ele>
        <time>2024-08-09T09:27:18Z</time>
      </trkpt>
      <trkpt lat="45.07205" lon="6.0643">
        <ele>1491.6</ele>
        <time>2024-08-09T09:27:19Z</time>
      </trkpt>
      <trkpt lat="45.07207" lon="6.0643">
        <ele>1491.8</ele>
        <time>2024-08-09T09:27:20Z</time>
      </trkpt>
      <trkpt lat="45.07207" lon="6.0643">
        <ele>1491.8</ele>
        <time>2024-08-09T09:27:21Z</time>
      </trkpt>
      <trkpt lat="45.0721" lon="6.06429">
        <ele>1492</ele>
        <time>2024-08-09T09:27:22Z</time>
      </trkpt>
      <trkpt lat="45.0721" lon="6.06429">
        <ele>1492.2</ele>
        <time>2024-08-09T09:27:23Z</time>
      </trkpt>
      <trkpt lat="45.07213" lon="6.06429">
        <ele>1492.4</ele>
        <time>2024-08-09T09:27:24Z</time>
      </trkpt>
      <trkpt lat="45.07213" lon="6.06429">
        <ele>1492.4</ele>
        <time>2024-08-09T09:27:25Z</time>
      </trkpt>
      <trkpt lat="45.07215" lon="6.06429">
        <ele>1492.4</ele>
        <time>2024-08-09T09:27:26Z</time>
      </trkpt>
      <trkpt lat="45.07215" lon="6.06429">
        <ele>1492.4</ele>
        <time>2024-08-09T09:27:27Z</time>
      </trkpt>
      <trkpt lat="45.07218" lon="6.06428">
        <ele>1492.4</ele>
        <time>2024-08-09T09:27:28Z</time>
      </trkpt>
      <trkpt lat="45.07218" lon="6.06428">
        <ele>1492.6</ele>
        <time>2024-08-09T09:27:29Z</time>
      </trkpt>
      <trkpt lat="45.07221" lon="6.06429">
        <ele>1492.8</ele>
        <time>2024-08-09T09:27:30Z</time>
      </trkpt>
      <trkpt lat="45.07221" lon="6.06429">
        <ele>1492.8</ele>
        <time>2024-08-09T09:27:31Z</time>
      </trkpt>
      <trkpt lat="45.07224" lon="6.06428">
        <ele>1493</ele>
        <time>2024-08-09T09:27:32Z</time>
      </trkpt>
      <trkpt lat="45.07224" lon="6.06428">
        <ele>1493</ele>
        <time>2024-08-09T09:27:33Z</time>
      </trkpt>
      <trkpt lat="45.07227" lon="6.06427">
        <ele>1492.8</ele>
        <time>2024-08-09T09:27:34Z</time>
      </trkpt>
      <trkpt lat="45.07227" lon="6.06427">
        <ele>1492.8</ele>
        <time>2024-08-09T09:27:35Z</time>
      </trkpt>
      <trkpt lat="45.0723" lon="6.06426">
        <ele>1493</ele>
        <time>2024-08-09T09:27:36Z</time>
      </trkpt>
      <trkpt lat="45.0723" lon="6.06426">
        <ele>1493.4</ele>
        <time>2024-08-09T09:27:37Z</time>
      </trkpt>
      <trkpt lat="45.07233" lon="6.06426">
        <ele>1493.4</ele>
        <time>2024-08-09T09:27:38Z</time>
      </trkpt>
      <trkpt lat="45.07233" lon="6.06426">
        <ele>1493.4</ele>
        <time>2024-08-09T09:27:39Z</time>
      </trkpt>
      <trkpt lat="45.07235" lon="6.06426">
        <ele>1493.4</ele>
        <time>2024-08-09T09:27:40Z</time>
      </trkpt>
      <trkpt lat="45.07235" lon="6.06426">
        <ele>1493.4</ele>
        <time>2024-08-09T09:27:41Z</time>
      </trkpt>
      <trkpt lat="45.07238" lon="6.06426">
        <ele>1493.4</ele>
        <time>2024-08-09T09:27:42Z</time>
      </trkpt>
      <trkpt lat="45.07238" lon="6.06426">
        <ele>1493.4</ele>
        <time>2024-08-09T09:27:43Z</time>
      </trkpt>
      <trkpt lat="45.07241" lon="6.06425">
        <ele>1493.4</ele>
        <time>2024-08-09T09:27:44Z</time>
      </trkpt>
      <trkpt lat="45.07241" lon="6.06425">
        <ele>1493.4</ele>
        <time>2024-08-09T09:27:45Z</time>
      </trkpt>
      <trkpt lat="45.07243" lon="6.06425">
        <ele>1493.4</ele>
        <time>2024-08-09T09:27:46Z</time>
      </trkpt>
      <trkpt lat="45.07243" lon="6.06425">
        <ele>1493.6</ele>
        <time>2024-08-09T09:27:47Z</time>
      </trkpt>
      <trkpt lat="45.07246" lon="6.06426">
        <ele>1493.6</ele>
        <time>2024-08-09T09:27:48Z</time>
      </trkpt>
      <trkpt lat="45.07246" lon="6.06426">
        <ele>1493.6</ele>
        <time>2024-08-09T09:27:49Z</time>
      </trkpt>
      <trkpt lat="45.0725" lon="6.06427">
        <ele>1493.8</ele>
        <time>2024-08-09T09:27:50Z</time>
      </trkpt>
      <trkpt lat="45.0725" lon="6.06427">
        <ele>1493.8</ele>
        <time>2024-08-09T09:27:51Z</time>
      </trkpt>
      <trkpt lat="45.07252" lon="6.06428">
        <ele>1494</ele>
        <time>2024-08-09T09:27:52Z</time>
      </trkpt>
      <trkpt lat="45.07252" lon="6.06428">
        <ele>1494</ele>
        <time>2024-08-09T09:27:53Z</time>
      </trkpt>
      <trkpt lat="45.07255" lon="6.06429">
        <ele>1494</ele>
        <time>2024-08-09T09:27:54Z</time>
      </trkpt>
      <trkpt lat="45.07255" lon="6.06429">
        <ele>1494</ele>
        <time>2024-08-09T09:27:55Z</time>
      </trkpt>
      <trkpt lat="45.07258" lon="6.0643">
        <ele>1494</ele>
        <time>2024-08-09T09:27:56Z</time>
      </trkpt>
      <trkpt lat="45.07258" lon="6.0643">
        <ele>1494</ele>
        <time>2024-08-09T09:27:57Z</time>
      </trkpt>
      <trkpt lat="45.07261" lon="6.06431">
        <ele>1494</ele>
        <time>2024-08-09T09:27:58Z</time>
      </trkpt>
      <trkpt lat="45.07261" lon="6.06431">
        <ele>1494</ele>
        <time>2024-08-09T09:27:59Z</time>
      </trkpt>
      <trkpt lat="45.07263" lon="6.06433">
        <ele>1494.2</ele>
        <time>2024-08-09T09:28:00Z</time>
      </trkpt>
      <trkpt lat="45.07263" lon="6.06433">
        <ele>1494.4</ele>
        <time>2024-08-09T09:28:01Z</time>
      </trkpt>
      <trkpt lat="45.07266" lon="6.06434">
        <ele>1494.4</ele>
        <time>2024-08-09T09:28:02Z</time>
      </trkpt>
      <trkpt lat="45.07266" lon="6.06434">
        <ele>1494.4</ele>
        <time>2024-08-09T09:28:03Z</time>
      </trkpt>
      <trkpt lat="45.07269" lon="6.06436">
        <ele>1494.4</ele>
        <time>2024-08-09T09:28:04Z</time>
      </trkpt>
      <trkpt lat="45.07269" lon="6.06436">
        <ele>1494.4</ele>
        <time>2024-08-09T09:28:05Z</time>
      </trkpt>
      <trkpt lat="45.07272" lon="6.06438">
        <ele>1494.6</ele>
        <time>2024-08-09T09:28:06Z</time>
      </trkpt>
      <trkpt lat="45.07272" lon="6.06438">
        <ele>1494.6</ele>
        <time>2024-08-09T09:28:07Z</time>
      </trkpt>
      <trkpt lat="45.07274" lon="6.0644">
        <ele>1494.6</ele>
        <time>2024-08-09T09:28:08Z</time>
      </trkpt>
      <trkpt lat="45.07274" lon="6.0644">
        <ele>1494.8</ele>
        <time>2024-08-09T09:28:09Z</time>
      </trkpt>
      <trkpt lat="45.07277" lon="6.06441">
        <ele>1494.8</ele>
        <time>2024-08-09T09:28:10Z</time>
      </trkpt>
      <trkpt lat="45.07277" lon="6.06441">
        <ele>1494.8</ele>
        <time>2024-08-09T09:28:11Z</time>
      </trkpt>
      <trkpt lat="45.07279" lon="6.06442">
        <ele>1494.8</ele>
        <time>2024-08-09T09:28:12Z</time>
      </trkpt>
      <trkpt lat="45.07279" lon="6.06442">
        <ele>1494.8</ele>
        <time>2024-08-09T09:28:13Z</time>
      </trkpt>
      <trkpt lat="45.07282" lon="6.06443">
        <ele>1495</ele>
        <time>2024-08-09T09:28:14Z</time>
      </trkpt>
      <trkpt lat="45.07282" lon="6.06443">
        <ele>1495</ele>
        <time>2024-08-09T09:28:15Z</time>
      </trkpt>
      <trkpt lat="45.07285" lon="6.06444">
        <ele>1495</ele>
        <time>2024-08-09T09:28:16Z</time>
      </trkpt>
      <trkpt lat="45.07285" lon="6.06444">
        <ele>1495</ele>
        <time>2024-08-09T09:28:17Z</time>
      </trkpt>
      <trkpt lat="45.07288" lon="6.06443">
        <ele>1495</ele>
        <time>2024-08-09T09:28:18Z</time>
      </trkpt>
      <trkpt lat="45.07288" lon="6.06443">
        <ele>1495.2</ele>
        <time>2024-08-09T09:28:19Z</time>
      </trkpt>
      <trkpt lat="45.07291" lon="6.06443">
        <ele>1495.2</ele>
        <time>2024-08-09T09:28:20Z</time>
      </trkpt>
      <trkpt lat="45.07291" lon="6.06443">
        <ele>1495</ele>
        <time>2024-08-09T09:28:21Z</time>
      </trkpt>
      <trkpt lat="45.07293" lon="6.06442">
        <ele>1495</ele>
        <time>2024-08-09T09:28:22Z</time>
      </trkpt>
      <trkpt lat="45.07293" lon="6.06442">
        <ele>1495.2</ele>
        <time>2024-08-09T09:28:23Z</time>
      </trkpt>
      <trkpt lat="45.07296" lon="6.06441">
        <ele>1495.2</ele>
        <time>2024-08-09T09:28:24Z</time>
      </trkpt>
      <trkpt lat="45.07296" lon="6.06441">
        <ele>1495.4</ele>
        <time>2024-08-09T09:28:25Z</time>
      </trkpt>
      <trkpt lat="45.07299" lon="6.0644">
        <ele>1495.4</ele>
        <time>2024-08-09T09:28:26Z</time>
      </trkpt>
      <trkpt lat="45.07299" lon="6.0644">
        <ele>1495.4</ele>
        <time>2024-08-09T09:28:27Z</time>
      </trkpt>
      <trkpt lat="45.07302" lon="6.06439">
        <ele>1495.4</ele>
        <time>2024-08-09T09:28:28Z</time>
      </trkpt>
      <trkpt lat="45.07302" lon="6.06439">
        <ele>1495.4</ele>
        <time>2024-08-09T09:28:29Z</time>
      </trkpt>
      <trkpt lat="45.07305" lon="6.06437">
        <ele>1495.4</ele>
        <time>2024-08-09T09:28:30Z</time>
      </trkpt>
      <trkpt lat="45.07305" lon="6.06437">
        <ele>1495.6</ele>
        <time>2024-08-09T09:28:31Z</time>
      </trkpt>
      <trkpt lat="45.07308" lon="6.06436">
        <ele>1495.6</ele>
        <time>2024-08-09T09:28:32Z</time>
      </trkpt>
      <trkpt lat="45.07308" lon="6.06436">
        <ele>1495.6</ele>
        <time>2024-08-09T09:28:33Z</time>
      </trkpt>
      <trkpt lat="45.0731" lon="6.06435">
        <ele>1495.8</ele>
        <time>2024-08-09T09:28:34Z</time>
      </trkpt>
      <trkpt lat="45.0731" lon="6.06435">
        <ele>1495.8</ele>
        <time>2024-08-09T09:28:35Z</time>
      </trkpt>
      <trkpt lat="45.07313" lon="6.06434">
        <ele>1495.8</ele>
        <time>2024-08-09T09:28:36Z</time>
      </trkpt>
      <trkpt lat="45.07313" lon="6.06434">
        <ele>1495.8</ele>
        <time>2024-08-09T09:28:37Z</time>
      </trkpt>
      <trkpt lat="45.07316" lon="6.06433">
        <ele>1496</ele>
        <time>2024-08-09T09:28:38Z</time>
      </trkpt>
      <trkpt lat="45.07316" lon="6.06433">
        <ele>1496</ele>
        <time>2024-08-09T09:28:39Z</time>
      </trkpt>
      <trkpt lat="45.07318" lon="6.06432">
        <ele>1496.4</ele>
        <time>2024-08-09T09:28:40Z</time>
      </trkpt>
      <trkpt lat="45.07318" lon="6.06432">
        <ele>1496.4</ele>
        <time>2024-08-09T09:28:41Z</time>
      </trkpt>
      <trkpt lat="45.07321" lon="6.06431">
        <ele>1496.2</ele>
        <time>2024-08-09T09:28:42Z</time>
      </trkpt>
      <trkpt lat="45.07321" lon="6.06431">
        <ele>1496.2</ele>
        <time>2024-08-09T09:28:43Z</time>
      </trkpt>
      <trkpt lat="45.07324" lon="6.0643">
        <ele>1496.6</ele>
        <time>2024-08-09T09:28:44Z</time>
      </trkpt>
      <trkpt lat="45.07324" lon="6.0643">
        <ele>1496.8</ele>
        <time>2024-08-09T09:28:45Z</time>
      </trkpt>
      <trkpt lat="45.07326" lon="6.06429">
        <ele>1496.8</ele>
        <time>2024-08-09T09:28:46Z</time>
      </trkpt>
      <trkpt lat="45.07326" lon="6.06429">
        <ele>1497</ele>
        <time>2024-08-09T09:28:47Z</time>
      </trkpt>
      <trkpt lat="45.07329" lon="6.06427">
        <ele>1497</ele>
        <time>2024-08-09T09:28:48Z</time>
      </trkpt>
      <trkpt lat="45.07329" lon="6.06427">
        <ele>1497</ele>
        <time>2024-08-09T09:28:49Z</time>
      </trkpt>
      <trkpt lat="45.07331" lon="6.06426">
        <ele>1497.2</ele>
        <time>2024-08-09T09:28:50Z</time>
      </trkpt>
      <trkpt lat="45.07331" lon="6.06426">
        <ele>1497.4</ele>
        <time>2024-08-09T09:28:51Z</time>
      </trkpt>
      <trkpt lat="45.07333" lon="6.06424">
        <ele>1497.4</ele>
        <time>2024-08-09T09:28:52Z</time>
      </trkpt>
      <trkpt lat="45.07333" lon="6.06424">
        <ele>1497.4</ele>
        <time>2024-08-09T09:28:53Z</time>
      </trkpt>
      <trkpt lat="45.07336" lon="6.06423">
        <ele>1497.4</ele>
        <time>2024-08-09T09:28:54Z</time>
      </trkpt>
      <trkpt lat="45.07336" lon="6.06423">
        <ele>1497.8</ele>
        <time>2024-08-09T09:28:55Z</time>
      </trkpt>
      <trkpt lat="45.07338" lon="6.06421">
        <ele>1497.8</ele>
        <time>2024-08-09T09:28:56Z</time>
      </trkpt>
      <trkpt lat="45.07338" lon="6.06421">
        <ele>1497.8</ele>
        <time>2024-08-09T09:28:57Z</time>
      </trkpt>
      <trkpt lat="45.07341" lon="6.0642">
        <ele>1498.2</ele>
        <time>2024-08-09T09:28:58Z</time>
      </trkpt>
      <trkpt lat="45.07341" lon="6.0642">
        <ele>1498.2</ele>
        <time>2024-08-09T09:28:59Z</time>
      </trkpt>
      <trkpt lat="45.07343" lon="6.06418">
        <ele>1498.4</ele>
        <time>2024-08-09T09:29:00Z</time>
      </trkpt>
      <trkpt lat="45.07343" lon="6.06418">
        <ele>1498.6</ele>
        <time>2024-08-09T09:29:01Z</time>
      </trkpt>
      <trkpt lat="45.07346" lon="6.06416">
        <ele>1498.4</ele>
        <time>2024-08-09T09:29:02Z</time>
      </trkpt>
      <trkpt lat="45.07346" lon="6.06416">
        <ele>1498.4</ele>
        <time>2024-08-09T09:29:03Z</time>
      </trkpt>
      <trkpt lat="45.07348" lon="6.06413">
        <ele>1498.4</ele>
        <time>2024-08-09T09:29:04Z</time>
      </trkpt>
      <trkpt lat="45.07348" lon="6.06413">
        <ele>1498.4</ele>
        <time>2024-08-09T09:29:05Z</time>
      </trkpt>
      <trkpt lat="45.0735" lon="6.06411">
        <ele>1498.6</ele>
        <time>2024-08-09T09:29:06Z</time>
      </trkpt>
      <trkpt lat="45.0735" lon="6.06411">
        <ele>1498.6</ele>
        <time>2024-08-09T09:29:07Z</time>
      </trkpt>
      <trkpt lat="45.07353" lon="6.06409">
        <ele>1498.6</ele>
        <time>2024-08-09T09:29:08Z</time>
      </trkpt>
      <trkpt lat="45.07353" lon="6.06409">
        <ele>1498.6</ele>
        <time>2024-08-09T09:29:09Z</time>
      </trkpt>
      <trkpt lat="45.07356" lon="6.06407">
        <ele>1498.6</ele>
        <time>2024-08-09T09:29:10Z</time>
      </trkpt>
      <trkpt lat="45.07356" lon="6.06407">
        <ele>1498.8</ele>
        <time>2024-08-09T09:29:11Z</time>
      </trkpt>
      <trkpt lat="45.07358" lon="6.06405">
        <ele>1499</ele>
        <time>2024-08-09T09:29:12Z</time>
      </trkpt>
      <trkpt lat="45.07358" lon="6.06405">
        <ele>1499</ele>
        <time>2024-08-09T09:29:13Z</time>
      </trkpt>
      <trkpt lat="45.07361" lon="6.06404">
        <ele>1499</ele>
        <time>2024-08-09T09:29:14Z</time>
      </trkpt>
      <trkpt lat="45.07361" lon="6.06404">
        <ele>1499</ele>
        <time>2024-08-09T09:29:15Z</time>
      </trkpt>
      <trkpt lat="45.07364" lon="6.06402">
        <ele>1499</ele>
        <time>2024-08-09T09:29:16Z</time>
      </trkpt>
      <trkpt lat="45.07364" lon="6.06402">
        <ele>1499.2</ele>
        <time>2024-08-09T09:29:17Z</time>
      </trkpt>
      <trkpt lat="45.07366" lon="6.06402">
        <ele>1499.8</ele>
        <time>2024-08-09T09:29:18Z</time>
      </trkpt>
      <trkpt lat="45.07366" lon="6.06402">
        <ele>1499.8</ele>
        <time>2024-08-09T09:29:19Z</time>
      </trkpt>
      <trkpt lat="45.07369" lon="6.06402">
        <ele>1499.8</ele>
        <time>2024-08-09T09:29:20Z</time>
      </trkpt>
      <trkpt lat="45.07369" lon="6.06402">
        <ele>1500</ele>
        <time>2024-08-09T09:29:21Z</time>
      </trkpt>
      <trkpt lat="45.07372" lon="6.06401">
        <ele>1500</ele>
        <time>2024-08-09T09:29:22Z</time>
      </trkpt>
      <trkpt lat="45.07372" lon="6.06401">
        <ele>1500.2</ele>
        <time>2024-08-09T09:29:23Z</time>
      </trkpt>
      <trkpt lat="45.07374" lon="6.06401">
        <ele>1500.2</ele>
        <time>2024-08-09T09:29:24Z</time>
      </trkpt>
      <trkpt lat="45.07374" lon="6.06401">
        <ele>1500.4</ele>
        <time>2024-08-09T09:29:25Z</time>
      </trkpt>
      <trkpt lat="45.07377" lon="6.06399">
        <ele>1500.2</ele>
        <time>2024-08-09T09:29:26Z</time>
      </trkpt>
      <trkpt lat="45.07377" lon="6.06399">
        <ele>1500.2</ele>
        <time>2024-08-09T09:29:27Z</time>
      </trkpt>
      <trkpt lat="45.0738" lon="6.06399">
        <ele>1500.2</ele>
        <time>2024-08-09T09:29:28Z</time>
      </trkpt>
      <trkpt lat="45.0738" lon="6.06399">
        <ele>1500.6</ele>
        <time>2024-08-09T09:29:29Z</time>
      </trkpt>
      <trkpt lat="45.07383" lon="6.06399">
        <ele>1501</ele>
        <time>2024-08-09T09:29:30Z</time>
      </trkpt>
      <trkpt lat="45.07383" lon="6.06399">
        <ele>1501</ele>
        <time>2024-08-09T09:29:31Z</time>
      </trkpt>
      <trkpt lat="45.07386" lon="6.06399">
        <ele>1500.8</ele>
        <time>2024-08-09T09:29:32Z</time>
      </trkpt>
      <trkpt lat="45.07386" lon="6.06399">
        <ele>1500.6</ele>
        <time>2024-08-09T09:29:33Z</time>
      </trkpt>
      <trkpt lat="45.07389" lon="6.06399">
        <ele>1500.6</ele>
        <time>2024-08-09T09:29:34Z</time>
      </trkpt>
      <trkpt lat="45.07389" lon="6.06399">
        <ele>1500.8</ele>
        <time>2024-08-09T09:29:35Z</time>
      </trkpt>
      <trkpt lat="45.07391" lon="6.06398">
        <ele>1500.8</ele>
        <time>2024-08-09T09:29:36Z</time>
      </trkpt>
      <trkpt lat="45.07393" lon="6.06399">
        <ele>1500.8</ele>
        <time>2024-08-09T09:29:37Z</time>
      </trkpt>
      <trkpt lat="45.07393" lon="6.06399">
        <ele>1500.8</ele>
        <time>2024-08-09T09:29:38Z</time>
      </trkpt>
      <trkpt lat="45.07396" lon="6.06399">
        <ele>1500.8</ele>
        <time>2024-08-09T09:29:39Z</time>
      </trkpt>
      <trkpt lat="45.07396" lon="6.06399">
        <ele>1500.8</ele>
        <time>2024-08-09T09:29:40Z</time>
      </trkpt>
      <trkpt lat="45.07399" lon="6.06399">
        <ele>1500.8</ele>
        <time>2024-08-09T09:29:41Z</time>
      </trkpt>
      <trkpt lat="45.07399" lon="6.06399">
        <ele>1501</ele>
        <time>2024-08-09T09:29:42Z</time>
      </trkpt>
      <trkpt lat="45.07402" lon="6.06401">
        <ele>1501</ele>
        <time>2024-08-09T09:29:43Z</time>
      </trkpt>
      <trkpt lat="45.07402" lon="6.06401">
        <ele>1501</ele>
        <time>2024-08-09T09:29:44Z</time>
      </trkpt>
      <trkpt lat="45.07405" lon="6.06402">
        <ele>1500.6</ele>
        <time>2024-08-09T09:29:45Z</time>
      </trkpt>
      <trkpt lat="45.07405" lon="6.06402">
        <ele>1500.4</ele>
        <time>2024-08-09T09:29:46Z</time>
      </trkpt>
      <trkpt lat="45.07408" lon="6.06403">
        <ele>1500.4</ele>
        <time>2024-08-09T09:29:47Z</time>
      </trkpt>
      <trkpt lat="45.0741" lon="6.06404">
        <ele>1500.4</ele>
        <time>2024-08-09T09:29:48Z</time>
      </trkpt>
      <trkpt lat="45.0741" lon="6.06404">
        <ele>1500.6</ele>
        <time>2024-08-09T09:29:49Z</time>
      </trkpt>
      <trkpt lat="45.07413" lon="6.06405">
        <ele>1500.6</ele>
        <time>2024-08-09T09:29:50Z</time>
      </trkpt>
      <trkpt lat="45.07413" lon="6.06405">
        <ele>1500.6</ele>
        <time>2024-08-09T09:29:51Z</time>
      </trkpt>
      <trkpt lat="45.07415" lon="6.06405">
        <ele>1500.8</ele>
        <time>2024-08-09T09:29:52Z</time>
      </trkpt>
      <trkpt lat="45.07415" lon="6.06405">
        <ele>1500.4</ele>
        <time>2024-08-09T09:29:53Z</time>
      </trkpt>
      <trkpt lat="45.07419" lon="6.06405">
        <ele>1500.2</ele>
        <time>2024-08-09T09:29:54Z</time>
      </trkpt>
      <trkpt lat="45.07421" lon="6.06405">
        <ele>1500.2</ele>
        <time>2024-08-09T09:29:55Z</time>
      </trkpt>
      <trkpt lat="45.07421" lon="6.06405">
        <ele>1500.4</ele>
        <time>2024-08-09T09:29:56Z</time>
      </trkpt>
      <trkpt lat="45.07423" lon="6.06405">
        <ele>1500.4</ele>
        <time>2024-08-09T09:29:57Z</time>
      </trkpt>
      <trkpt lat="45.07423" lon="6.06405">
        <ele>1500.2</ele>
        <time>2024-08-09T09:29:58Z</time>
      </trkpt>
      <trkpt lat="45.07426" lon="6.06404">
        <ele>1500.2</ele>
        <time>2024-08-09T09:29:59Z</time>
      </trkpt>
      <trkpt lat="45.07429" lon="6.06402">
        <ele>1500</ele>
        <time>2024-08-09T09:30:01Z</time>
      </trkpt>
      <trkpt lat="45.07429" lon="6.06402">
        <ele>1499.8</ele>
        <time>2024-08-09T09:30:02Z</time>
      </trkpt>
      <trkpt lat="45.07431" lon="6.064">
        <ele>1499.8</ele>
        <time>2024-08-09T09:30:03Z</time>
      </trkpt>
      <trkpt lat="45.07431" lon="6.064">
        <ele>1499.8</ele>
        <time>2024-08-09T09:30:04Z</time>
      </trkpt>
      <trkpt lat="45.07433" lon="6.06397">
        <ele>1499.8</ele>
        <time>2024-08-09T09:30:05Z</time>
      </trkpt>
      <trkpt lat="45.07435" lon="6.06396">
        <ele>1499.8</ele>
        <time>2024-08-09T09:30:06Z</time>
      </trkpt>
      <trkpt lat="45.07435" lon="6.06396">
        <ele>1499.8</ele>
        <time>2024-08-09T09:30:07Z</time>
      </trkpt>
      <trkpt lat="45.07437" lon="6.06394">
        <ele>1499.8</ele>
        <time>2024-08-09T09:30:08Z</time>
      </trkpt>
      <trkpt lat="45.07439" lon="6.06392">
        <ele>1499.8</ele>
        <time>2024-08-09T09:30:09Z</time>
      </trkpt>
      <trkpt lat="45.07439" lon="6.06392">
        <ele>1499.8</ele>
        <time>2024-08-09T09:30:10Z</time>
      </trkpt>
      <trkpt lat="45.07441" lon="6.0639">
        <ele>1499.8</ele>
        <time>2024-08-09T09:30:11Z</time>
      </trkpt>
      <trkpt lat="45.07441" lon="6.0639">
        <ele>1499.8</ele>
        <time>2024-08-09T09:30:12Z</time>
      </trkpt>
      <trkpt lat="45.07444" lon="6.06388">
        <ele>1499.8</ele>
        <time>2024-08-09T09:30:13Z</time>
      </trkpt>
      <trkpt lat="45.07444" lon="6.06388">
        <ele>1499.8</ele>
        <time>2024-08-09T09:30:14Z</time>
      </trkpt>
      <trkpt lat="45.07446" lon="6.06385">
        <ele>1499.6</ele>
        <time>2024-08-09T09:30:15Z</time>
      </trkpt>
      <trkpt lat="45.07446" lon="6.06385">
        <ele>1499.6</ele>
        <time>2024-08-09T09:30:16Z</time>
      </trkpt>
      <trkpt lat="45.07447" lon="6.06381">
        <ele>1499.6</ele>
        <time>2024-08-09T09:30:17Z</time>
      </trkpt>
      <trkpt lat="45.07447" lon="6.06381">
        <ele>1499.4</ele>
        <time>2024-08-09T09:30:18Z</time>
      </trkpt>
      <trkpt lat="45.07449" lon="6.06377">
        <ele>1499.4</ele>
        <time>2024-08-09T09:30:19Z</time>
      </trkpt>
      <trkpt lat="45.07449" lon="6.06377">
        <ele>1499.6</ele>
        <time>2024-08-09T09:30:20Z</time>
      </trkpt>
      <trkpt lat="45.07451" lon="6.06374">
        <ele>1499.6</ele>
        <time>2024-08-09T09:30:21Z</time>
      </trkpt>
      <trkpt lat="45.07451" lon="6.06374">
        <ele>1499.6</ele>
        <time>2024-08-09T09:30:22Z</time>
      </trkpt>
      <trkpt lat="45.07452" lon="6.0637">
        <ele>1499.6</ele>
        <time>2024-08-09T09:30:23Z</time>
      </trkpt>
      <trkpt lat="45.07452" lon="6.0637">
        <ele>1499.6</ele>
        <time>2024-08-09T09:30:24Z</time>
      </trkpt>
      <trkpt lat="45.07453" lon="6.06366">
        <ele>1499.6</ele>
        <time>2024-08-09T09:30:25Z</time>
      </trkpt>
      <trkpt lat="45.07453" lon="6.06366">
        <ele>1499.6</ele>
        <time>2024-08-09T09:30:26Z</time>
      </trkpt>
      <trkpt lat="45.07453" lon="6.06362">
        <ele>1499.6</ele>
        <time>2024-08-09T09:30:27Z</time>
      </trkpt>
      <trkpt lat="45.07453" lon="6.06362">
        <ele>1499.6</ele>
        <time>2024-08-09T09:30:28Z</time>
      </trkpt>
      <trkpt lat="45.07455" lon="6.06358">
        <ele>1499.4</ele>
        <time>2024-08-09T09:30:29Z</time>
      </trkpt>
      <trkpt lat="45.07455" lon="6.06358">
        <ele>1499.4</ele>
        <time>2024-08-09T09:30:30Z</time>
      </trkpt>
      <trkpt lat="45.07455" lon="6.06354">
        <ele>1499.2</ele>
        <time>2024-08-09T09:30:31Z</time>
      </trkpt>
      <trkpt lat="45.07455" lon="6.06354">
        <ele>1499.4</ele>
        <time>2024-08-09T09:30:32Z</time>
      </trkpt>
      <trkpt lat="45.07455" lon="6.0635">
        <ele>1499.2</ele>
        <time>2024-08-09T09:30:33Z</time>
      </trkpt>
      <trkpt lat="45.07455" lon="6.0635">
        <ele>1499.2</ele>
        <time>2024-08-09T09:30:34Z</time>
      </trkpt>
      <trkpt lat="45.07455" lon="6.06346">
        <ele>1499.2</ele>
        <time>2024-08-09T09:30:35Z</time>
      </trkpt>
      <trkpt lat="45.07455" lon="6.06346">
        <ele>1499.2</ele>
        <time>2024-08-09T09:30:36Z</time>
      </trkpt>
      <trkpt lat="45.07455" lon="6.06341">
        <ele>1499.4</ele>
        <time>2024-08-09T09:30:37Z</time>
      </trkpt>
      <trkpt lat="45.07455" lon="6.06341">
        <ele>1499.4</ele>
        <time>2024-08-09T09:30:38Z</time>
      </trkpt>
      <trkpt lat="45.07456" lon="6.06338">
        <ele>1499.6</ele>
        <time>2024-08-09T09:30:39Z</time>
      </trkpt>
      <trkpt lat="45.07456" lon="6.06338">
        <ele>1499.6</ele>
        <time>2024-08-09T09:30:40Z</time>
      </trkpt>
      <trkpt lat="45.07457" lon="6.06334">
        <ele>1499.6</ele>
        <time>2024-08-09T09:30:41Z</time>
      </trkpt>
      <trkpt lat="45.07457" lon="6.06334">
        <ele>1499.8</ele>
        <time>2024-08-09T09:30:42Z</time>
      </trkpt>
      <trkpt lat="45.07459" lon="6.06331">
        <ele>1499.8</ele>
        <time>2024-08-09T09:30:43Z</time>
      </trkpt>
      <trkpt lat="45.07459" lon="6.06331">
        <ele>1500</ele>
        <time>2024-08-09T09:30:44Z</time>
      </trkpt>
      <trkpt lat="45.0746" lon="6.06328">
        <ele>1500</ele>
        <time>2024-08-09T09:30:45Z</time>
      </trkpt>
      <trkpt lat="45.0746" lon="6.06328">
        <ele>1500</ele>
        <time>2024-08-09T09:30:46Z</time>
      </trkpt>
      <trkpt lat="45.07461" lon="6.06325">
        <ele>1500</ele>
        <time>2024-08-09T09:30:47Z</time>
      </trkpt>
      <trkpt lat="45.07461" lon="6.06325">
        <ele>1500.2</ele>
        <time>2024-08-09T09:30:48Z</time>
      </trkpt>
      <trkpt lat="45.07463" lon="6.06321">
        <ele>1500.4</ele>
        <time>2024-08-09T09:30:49Z</time>
      </trkpt>
      <trkpt lat="45.07463" lon="6.06321">
        <ele>1500.6</ele>
        <time>2024-08-09T09:30:50Z</time>
      </trkpt>
      <trkpt lat="45.07465" lon="6.06319">
        <ele>1500.6</ele>
        <time>2024-08-09T09:30:51Z</time>
      </trkpt>
      <trkpt lat="45.07465" lon="6.06319">
        <ele>1501</ele>
        <time>2024-08-09T09:30:52Z</time>
      </trkpt>
      <trkpt lat="45.07467" lon="6.06317">
        <ele>1501</ele>
        <time>2024-08-09T09:30:53Z</time>
      </trkpt>
      <trkpt lat="45.07467" lon="6.06317">
        <ele>1501</ele>
        <time>2024-08-09T09:30:54Z</time>
      </trkpt>
      <trkpt lat="45.0747" lon="6.06316">
        <ele>1501.2</ele>
        <time>2024-08-09T09:30:55Z</time>
      </trkpt>
      <trkpt lat="45.0747" lon="6.06316">
        <ele>1501.6</ele>
        <time>2024-08-09T09:30:56Z</time>
      </trkpt>
      <trkpt lat="45.07473" lon="6.06314">
        <ele>1501.6</ele>
        <time>2024-08-09T09:30:57Z</time>
      </trkpt>
      <trkpt lat="45.07473" lon="6.06314">
        <ele>1501.4</ele>
        <time>2024-08-09T09:30:58Z</time>
      </trkpt>
      <trkpt lat="45.07475" lon="6.06312">
        <ele>1501.4</ele>
        <time>2024-08-09T09:30:59Z</time>
      </trkpt>
      <trkpt lat="45.07475" lon="6.06312">
        <ele>1501.4</ele>
        <time>2024-08-09T09:31:00Z</time>
      </trkpt>
      <trkpt lat="45.07477" lon="6.06309">
        <ele>1501.6</ele>
        <time>2024-08-09T09:31:01Z</time>
      </trkpt>
      <trkpt lat="45.07477" lon="6.06309">
        <ele>1501.6</ele>
        <time>2024-08-09T09:31:02Z</time>
      </trkpt>
      <trkpt lat="45.07479" lon="6.06306">
        <ele>1501.6</ele>
        <time>2024-08-09T09:31:03Z</time>
      </trkpt>
      <trkpt lat="45.07479" lon="6.06306">
        <ele>1501.8</ele>
        <time>2024-08-09T09:31:04Z</time>
      </trkpt>
      <trkpt lat="45.07481" lon="6.06303">
        <ele>1501.8</ele>
        <time>2024-08-09T09:31:05Z</time>
      </trkpt>
      <trkpt lat="45.07481" lon="6.06303">
        <ele>1502</ele>
        <time>2024-08-09T09:31:06Z</time>
      </trkpt>
      <trkpt lat="45.07483" lon="6.063">
        <ele>1502</ele>
        <time>2024-08-09T09:31:07Z</time>
      </trkpt>
      <trkpt lat="45.07483" lon="6.063">
        <ele>1502</ele>
        <time>2024-08-09T09:31:08Z</time>
      </trkpt>
      <trkpt lat="45.07485" lon="6.06298">
        <ele>1502</ele>
        <time>2024-08-09T09:31:09Z</time>
      </trkpt>
      <trkpt lat="45.07485" lon="6.06298">
        <ele>1502</ele>
        <time>2024-08-09T09:31:10Z</time>
      </trkpt>
      <trkpt lat="45.07488" lon="6.06296">
        <ele>1502.2</ele>
        <time>2024-08-09T09:31:11Z</time>
      </trkpt>
      <trkpt lat="45.07488" lon="6.06296">
        <ele>1502.2</ele>
        <time>2024-08-09T09:31:12Z</time>
      </trkpt>
      <trkpt lat="45.0749" lon="6.06293">
        <ele>1502.4</ele>
        <time>2024-08-09T09:31:13Z</time>
      </trkpt>
      <trkpt lat="45.0749" lon="6.06293">
        <ele>1502.4</ele>
        <time>2024-08-09T09:31:14Z</time>
      </trkpt>
      <trkpt lat="45.07492" lon="6.0629">
        <ele>1502.4</ele>
        <time>2024-08-09T09:31:15Z</time>
      </trkpt>
      <trkpt lat="45.07492" lon="6.0629">
        <ele>1502.4</ele>
        <time>2024-08-09T09:31:16Z</time>
      </trkpt>
      <trkpt lat="45.07492" lon="6.0629">
        <ele>1502.4</ele>
        <time>2024-08-09T09:31:17Z</time>
      </trkpt>
      <trkpt lat="45.07492" lon="6.0629">
        <ele>1502.4</ele>
        <time>2024-08-09T09:31:18Z</time>
      </trkpt>
      <trkpt lat="45.07492" lon="6.0629">
        <ele>1502.4</ele>
        <time>2024-08-09T09:31:19Z</time>
      </trkpt>
      <trkpt lat="45.07493" lon="6.06288">
        <ele>1502.4</ele>
        <time>2024-08-09T09:31:20Z</time>
      </trkpt>
      <trkpt lat="45.07493" lon="6.06288">
        <ele>1502.6</ele>
        <time>2024-08-09T09:31:21Z</time>
      </trkpt>
      <trkpt lat="45.07493" lon="6.06288">
        <ele>1502.6</ele>
        <time>2024-08-09T09:31:22Z</time>
      </trkpt>
      <trkpt lat="45.07493" lon="6.06288">
        <ele>1502.8</ele>
        <time>2024-08-09T09:31:23Z</time>
      </trkpt>
      <trkpt lat="45.07493" lon="6.06288">
        <ele>1502.8</ele>
        <time>2024-08-09T09:31:24Z</time>
      </trkpt>
      <trkpt lat="45.07493" lon="6.06288">
        <ele>1502.8</ele>
        <time>2024-08-09T09:31:25Z</time>
      </trkpt>
      <trkpt lat="45.07493" lon="6.06288">
        <ele>1502.6</ele>
        <time>2024-08-09T09:31:26Z</time>
      </trkpt>
      <trkpt lat="45.07493" lon="6.06288">
        <ele>1502.4</ele>
        <time>2024-08-09T09:31:27Z</time>
      </trkpt>
      <trkpt lat="45.07493" lon="6.06288">
        <ele>1502.4</ele>
        <time>2024-08-09T09:31:28Z</time>
      </trkpt>
      <trkpt lat="45.07493" lon="6.06288">
        <ele>1502.6</ele>
        <time>2024-08-09T09:31:29Z</time>
      </trkpt>
      <trkpt lat="45.07493" lon="6.06288">
        <ele>1502.8</ele>
        <time>2024-08-09T09:31:30Z</time>
      </trkpt>
      <trkpt lat="45.07493" lon="6.06288">
        <ele>1502.8</ele>
        <time>2024-08-09T09:31:31Z</time>
      </trkpt>
      <trkpt lat="45.07493" lon="6.06288">
        <ele>1502.8</ele>
        <time>2024-08-09T09:31:32Z</time>
      </trkpt>
      <trkpt lat="45.07493" lon="6.06288">
        <ele>1502.8</ele>
        <time>2024-08-09T09:31:33Z</time>
      </trkpt>
      <trkpt lat="45.07493" lon="6.06288">
        <ele>1502.8</ele>
        <time>2024-08-09T09:31:34Z</time>
      </trkpt>
      <trkpt lat="45.07493" lon="6.06288">
        <ele>1502.8</ele>
        <time>2024-08-09T09:31:35Z</time>
      </trkpt>
      <trkpt lat="45.07493" lon="6.06288">
        <ele>1502.8</ele>
        <time>2024-08-09T09:31:36Z</time>
      </trkpt>
      <trkpt lat="45.07493" lon="6.06288">
        <ele>1502.6</ele>
        <time>2024-08-09T09:31:37Z</time>
      </trkpt>
      <trkpt lat="45.07493" lon="6.06288">
        <ele>1502.6</ele>
        <time>2024-08-09T09:31:38Z</time>
      </trkpt>
      <trkpt lat="45.07493" lon="6.06288">
        <ele>1502.6</ele>
        <time>2024-08-09T09:31:39Z</time>
      </trkpt>
      <trkpt lat="45.07493" lon="6.06288">
        <ele>1502.8</ele>
        <time>2024-08-09T09:31:40Z</time>
      </trkpt>
      <trkpt lat="45.07493" lon="6.06288">
        <ele>1502.8</ele>
        <time>2024-08-09T09:31:41Z</time>
      </trkpt>
      <trkpt lat="45.07493" lon="6.06288">
        <ele>1503</ele>
        <time>2024-08-09T09:31:42Z</time>
      </trkpt>
      <trkpt lat="45.07493" lon="6.06288">
        <ele>1503</ele>
        <time>2024-08-09T09:31:43Z</time>
      </trkpt>
      <trkpt lat="45.07493" lon="6.06288">
        <ele>1503</ele>
        <time>2024-08-09T09:31:44Z</time>
      </trkpt>
      <trkpt lat="45.07493" lon="6.06288">
        <ele>1503</ele>
        <time>2024-08-09T09:31:45Z</time>
      </trkpt>
      <trkpt lat="45.07493" lon="6.06288">
        <ele>1503.2</ele>
        <time>2024-08-09T09:31:46Z</time>
      </trkpt>
      <trkpt lat="45.07493" lon="6.06288">
        <ele>1503.2</ele>
        <time>2024-08-09T09:31:47Z</time>
      </trkpt>
      <trkpt lat="45.07493" lon="6.06288">
        <ele>1503.2</ele>
        <time>2024-08-09T09:31:48Z</time>
      </trkpt>
      <trkpt lat="45.07493" lon="6.06288">
        <ele>1503</ele>
        <time>2024-08-09T09:31:49Z</time>
      </trkpt>
      <trkpt lat="45.07493" lon="6.06288">
        <ele>1502.8</ele>
        <time>2024-08-09T09:31:50Z</time>
      </trkpt>
      <trkpt lat="45.07493" lon="6.06288">
        <ele>1502.8</ele>
        <time>2024-08-09T09:31:51Z</time>
      </trkpt>
      <trkpt lat="45.07493" lon="6.06288">
        <ele>1502.8</ele>
        <time>2024-08-09T09:31:52Z</time>
      </trkpt>
      <trkpt lat="45.07493" lon="6.06288">
        <ele>1502.8</ele>
        <time>2024-08-09T09:31:53Z</time>
      </trkpt>
      <trkpt lat="45.07493" lon="6.06288">
        <ele>1502.8</ele>
        <time>2024-08-09T09:31:54Z</time>
      </trkpt>
      <trkpt lat="45.07493" lon="6.06288">
        <ele>1502.8</ele>
        <time>2024-08-09T09:31:55Z</time>
      </trkpt>
      <trkpt lat="45.07493" lon="6.06288">
        <ele>1502.8</ele>
        <time>2024-08-09T09:31:56Z</time>
      </trkpt>
      <trkpt lat="45.07493" lon="6.06288">
        <ele>1502.6</ele>
        <time>2024-08-09T09:31:57Z</time>
      </trkpt>
      <trkpt lat="45.07493" lon="6.06288">
        <ele>1502.6</ele>
        <time>2024-08-09T09:31:58Z</time>
      </trkpt>
      <trkpt lat="45.07493" lon="6.06288">
        <ele>1502.6</ele>
        <time>2024-08-09T09:31:59Z</time>
      </trkpt>
      <trkpt lat="45.07493" lon="6.06288">
        <ele>1502.6</ele>
        <time>2024-08-09T09:32:00Z</time>
      </trkpt>
      <trkpt lat="45.07493" lon="6.06288">
        <ele>1502.6</ele>
        <time>2024-08-09T09:32:01Z</time>
      </trkpt>
      <trkpt lat="45.07493" lon="6.06288">
        <ele>1502.6</ele>
        <time>2024-08-09T09:32:02Z</time>
      </trkpt>
      <trkpt lat="45.07493" lon="6.06288">
        <ele>1502.6</ele>
        <time>2024-08-09T09:32:03Z</time>
      </trkpt>
      <trkpt lat="45.07493" lon="6.06288">
        <ele>1502.6</ele>
        <time>2024-08-09T09:32:04Z</time>
      </trkpt>
      <trkpt lat="45.07493" lon="6.06288">
        <ele>1502.8</ele>
        <time>2024-08-09T09:32:05Z</time>
      </trkpt>
      <trkpt lat="45.07493" lon="6.06288">
        <ele>1502.8</ele>
        <time>2024-08-09T09:32:06Z</time>
      </trkpt>
      <trkpt lat="45.07493" lon="6.06288">
        <ele>1503</ele>
        <time>2024-08-09T09:32:07Z</time>
      </trkpt>
      <trkpt lat="45.07493" lon="6.06288">
        <ele>1503.2</ele>
        <time>2024-08-09T09:32:08Z</time>
      </trkpt>
      <trkpt lat="45.07493" lon="6.06288">
        <ele>1503.2</ele>
        <time>2024-08-09T09:32:09Z</time>
      </trkpt>
      <trkpt lat="45.07493" lon="6.06288">
        <ele>1502.8</ele>
        <time>2024-08-09T09:32:10Z</time>
      </trkpt>
      <trkpt lat="45.07493" lon="6.06288">
        <ele>1502.8</ele>
        <time>2024-08-09T09:32:11Z</time>
      </trkpt>
      <trkpt lat="45.07493" lon="6.06286">
        <ele>1502.8</ele>
        <time>2024-08-09T09:32:12Z</time>
      </trkpt>
      <trkpt lat="45.07493" lon="6.06286">
        <ele>1502.8</ele>
        <time>2024-08-09T09:32:13Z</time>
      </trkpt>
      <trkpt lat="45.07493" lon="6.06286">
        <ele>1502.6</ele>
        <time>2024-08-09T09:32:14Z</time>
      </trkpt>
      <trkpt lat="45.07493" lon="6.06286">
        <ele>1502.6</ele>
        <time>2024-08-09T09:32:15Z</time>
      </trkpt>
      <trkpt lat="45.07493" lon="6.06286">
        <ele>1502.8</ele>
        <time>2024-08-09T09:32:16Z</time>
      </trkpt>
      <trkpt lat="45.07493" lon="6.06286">
        <ele>1502.8</ele>
        <time>2024-08-09T09:32:17Z</time>
      </trkpt>
      <trkpt lat="45.07493" lon="6.06286">
        <ele>1502.8</ele>
        <time>2024-08-09T09:32:18Z</time>
      </trkpt>
      <trkpt lat="45.07493" lon="6.06286">
        <ele>1502.8</ele>
        <time>2024-08-09T09:32:19Z</time>
      </trkpt>
      <trkpt lat="45.07493" lon="6.06286">
        <ele>1502.8</ele>
        <time>2024-08-09T09:32:20Z</time>
      </trkpt>
      <trkpt lat="45.07493" lon="6.06286">
        <ele>1503</ele>
        <time>2024-08-09T09:32:21Z</time>
      </trkpt>
      <trkpt lat="45.07493" lon="6.06286">
        <ele>1503</ele>
        <time>2024-08-09T09:32:22Z</time>
      </trkpt>
      <trkpt lat="45.07493" lon="6.06286">
        <ele>1503</ele>
        <time>2024-08-09T09:32:23Z</time>
      </trkpt>
      <trkpt lat="45.07493" lon="6.06286">
        <ele>1502.8</ele>
        <time>2024-08-09T09:32:24Z</time>
      </trkpt>
      <trkpt lat="45.07493" lon="6.06286">
        <ele>1502.6</ele>
        <time>2024-08-09T09:32:25Z</time>
      </trkpt>
      <trkpt lat="45.07495" lon="6.06285">
        <ele>1502.6</ele>
        <time>2024-08-09T09:32:26Z</time>
      </trkpt>
      <trkpt lat="45.07495" lon="6.06285">
        <ele>1502.6</ele>
        <time>2024-08-09T09:32:27Z</time>
      </trkpt>
      <trkpt lat="45.07497" lon="6.06285">
        <ele>1502.6</ele>
        <time>2024-08-09T09:32:28Z</time>
      </trkpt>
      <trkpt lat="45.07497" lon="6.06285">
        <ele>1502.8</ele>
        <time>2024-08-09T09:32:29Z</time>
      </trkpt>
      <trkpt lat="45.07501" lon="6.06285">
        <ele>1503.2</ele>
        <time>2024-08-09T09:32:30Z</time>
      </trkpt>
      <trkpt lat="45.07501" lon="6.06285">
        <ele>1503.4</ele>
        <time>2024-08-09T09:32:31Z</time>
      </trkpt>
      <trkpt lat="45.07502" lon="6.06286">
        <ele>1503.6</ele>
        <time>2024-08-09T09:32:32Z</time>
      </trkpt>
      <trkpt lat="45.07502" lon="6.06286">
        <ele>1503.8</ele>
        <time>2024-08-09T09:32:33Z</time>
      </trkpt>
      <trkpt lat="45.07505" lon="6.06287">
        <ele>1504</ele>
        <time>2024-08-09T09:32:34Z</time>
      </trkpt>
      <trkpt lat="45.07506" lon="6.06288">
        <ele>1504</ele>
        <time>2024-08-09T09:32:35Z</time>
      </trkpt>
      <trkpt lat="45.07506" lon="6.06288">
        <ele>1504.2</ele>
        <time>2024-08-09T09:32:36Z</time>
      </trkpt>
      <trkpt lat="45.07509" lon="6.06289">
        <ele>1504.4</ele>
        <time>2024-08-09T09:32:37Z</time>
      </trkpt>
      <trkpt lat="45.07509" lon="6.06289">
        <ele>1504.6</ele>
        <time>2024-08-09T09:32:38Z</time>
      </trkpt>
      <trkpt lat="45.0751" lon="6.06289">
        <ele>1505</ele>
        <time>2024-08-09T09:32:39Z</time>
      </trkpt>
      <trkpt lat="45.0751" lon="6.06289">
        <ele>1505.2</ele>
        <time>2024-08-09T09:32:40Z</time>
      </trkpt>
      <trkpt lat="45.07512" lon="6.06288">
        <ele>1505.2</ele>
        <time>2024-08-09T09:32:41Z</time>
      </trkpt>
      <trkpt lat="45.07512" lon="6.06288">
        <ele>1505.8</ele>
        <time>2024-08-09T09:32:42Z</time>
      </trkpt>
      <trkpt lat="45.07515" lon="6.06288">
        <ele>1506</ele>
        <time>2024-08-09T09:32:43Z</time>
      </trkpt>
      <trkpt lat="45.07515" lon="6.06288">
        <ele>1506</ele>
        <time>2024-08-09T09:32:44Z</time>
      </trkpt>
      <trkpt lat="45.07517" lon="6.06287">
        <ele>1506.2</ele>
        <time>2024-08-09T09:32:45Z</time>
      </trkpt>
      <trkpt lat="45.07517" lon="6.06287">
        <ele>1506.4</ele>
        <time>2024-08-09T09:32:46Z</time>
      </trkpt>
      <trkpt lat="45.07519" lon="6.06286">
        <ele>1506.8</ele>
        <time>2024-08-09T09:32:47Z</time>
      </trkpt>
      <trkpt lat="45.07519" lon="6.06286">
        <ele>1506.8</ele>
        <time>2024-08-09T09:32:48Z</time>
      </trkpt>
      <trkpt lat="45.07522" lon="6.06285">
        <ele>1506.8</ele>
        <time>2024-08-09T09:32:49Z</time>
      </trkpt>
      <trkpt lat="45.07522" lon="6.06285">
        <ele>1506.8</ele>
        <time>2024-08-09T09:32:50Z</time>
      </trkpt>
      <trkpt lat="45.07525" lon="6.06285">
        <ele>1507</ele>
        <time>2024-08-09T09:32:51Z</time>
      </trkpt>
      <trkpt lat="45.07525" lon="6.06285">
        <ele>1507</ele>
        <time>2024-08-09T09:32:52Z</time>
      </trkpt>
      <trkpt lat="45.07527" lon="6.06284">
        <ele>1507</ele>
        <time>2024-08-09T09:32:53Z</time>
      </trkpt>
      <trkpt lat="45.07527" lon="6.06284">
        <ele>1507.2</ele>
        <time>2024-08-09T09:32:54Z</time>
      </trkpt>
      <trkpt lat="45.0753" lon="6.06284">
        <ele>1507.2</ele>
        <time>2024-08-09T09:32:55Z</time>
      </trkpt>
      <trkpt lat="45.0753" lon="6.06284">
        <ele>1507.2</ele>
        <time>2024-08-09T09:32:56Z</time>
      </trkpt>
      <trkpt lat="45.07533" lon="6.06283">
        <ele>1507.4</ele>
        <time>2024-08-09T09:32:57Z</time>
      </trkpt>
      <trkpt lat="45.07533" lon="6.06283">
        <ele>1507.4</ele>
        <time>2024-08-09T09:32:58Z</time>
      </trkpt>
      <trkpt lat="45.07536" lon="6.06283">
        <ele>1507.4</ele>
        <time>2024-08-09T09:32:59Z</time>
      </trkpt>
      <trkpt lat="45.07536" lon="6.06283">
        <ele>1507.6</ele>
        <time>2024-08-09T09:33:00Z</time>
      </trkpt>
      <trkpt lat="45.07538" lon="6.06284">
        <ele>1507.6</ele>
        <time>2024-08-09T09:33:01Z</time>
      </trkpt>
      <trkpt lat="45.07538" lon="6.06284">
        <ele>1507.8</ele>
        <time>2024-08-09T09:33:02Z</time>
      </trkpt>
      <trkpt lat="45.07541" lon="6.06285">
        <ele>1507.8</ele>
        <time>2024-08-09T09:33:03Z</time>
      </trkpt>
      <trkpt lat="45.07541" lon="6.06285">
        <ele>1507.8</ele>
        <time>2024-08-09T09:33:04Z</time>
      </trkpt>
      <trkpt lat="45.07542" lon="6.06285">
        <ele>1508</ele>
        <time>2024-08-09T09:33:05Z</time>
      </trkpt>
      <trkpt lat="45.07542" lon="6.06285">
        <ele>1508</ele>
        <time>2024-08-09T09:33:06Z</time>
      </trkpt>
      <trkpt lat="45.07544" lon="6.06284">
        <ele>1508.2</ele>
        <time>2024-08-09T09:33:07Z</time>
      </trkpt>
      <trkpt lat="45.07544" lon="6.06284">
        <ele>1508.8</ele>
        <time>2024-08-09T09:33:08Z</time>
      </trkpt>
      <trkpt lat="45.07546" lon="6.06284">
        <ele>1509</ele>
        <time>2024-08-09T09:33:09Z</time>
      </trkpt>
      <trkpt lat="45.07546" lon="6.06284">
        <ele>1509</ele>
        <time>2024-08-09T09:33:10Z</time>
      </trkpt>
      <trkpt lat="45.07549" lon="6.06284">
        <ele>1509</ele>
        <time>2024-08-09T09:33:11Z</time>
      </trkpt>
      <trkpt lat="45.07549" lon="6.06284">
        <ele>1509</ele>
        <time>2024-08-09T09:33:12Z</time>
      </trkpt>
      <trkpt lat="45.0755" lon="6.06285">
        <ele>1509.4</ele>
        <time>2024-08-09T09:33:13Z</time>
      </trkpt>
      <trkpt lat="45.0755" lon="6.06285">
        <ele>1509.4</ele>
        <time>2024-08-09T09:33:14Z</time>
      </trkpt>
      <trkpt lat="45.07552" lon="6.06284">
        <ele>1509.6</ele>
        <time>2024-08-09T09:33:15Z</time>
      </trkpt>
      <trkpt lat="45.07552" lon="6.06284">
        <ele>1509.8</ele>
        <time>2024-08-09T09:33:16Z</time>
      </trkpt>
      <trkpt lat="45.07552" lon="6.06284">
        <ele>1510</ele>
        <time>2024-08-09T09:33:17Z</time>
      </trkpt>
      <trkpt lat="45.07555" lon="6.06284">
        <ele>1510</ele>
        <time>2024-08-09T09:33:18Z</time>
      </trkpt>
      <trkpt lat="45.07555" lon="6.06284">
        <ele>1510.2</ele>
        <time>2024-08-09T09:33:19Z</time>
      </trkpt>
      <trkpt lat="45.07557" lon="6.06285">
        <ele>1510.2</ele>
        <time>2024-08-09T09:33:20Z</time>
      </trkpt>
      <trkpt lat="45.07557" lon="6.06285">
        <ele>1510.6</ele>
        <time>2024-08-09T09:33:21Z</time>
      </trkpt>
      <trkpt lat="45.07558" lon="6.06286">
        <ele>1510.6</ele>
        <time>2024-08-09T09:33:22Z</time>
      </trkpt>
      <trkpt lat="45.07558" lon="6.06286">
        <ele>1510.8</ele>
        <time>2024-08-09T09:33:23Z</time>
      </trkpt>
      <trkpt lat="45.0756" lon="6.06288">
        <ele>1511.2</ele>
        <time>2024-08-09T09:33:24Z</time>
      </trkpt>
      <trkpt lat="45.0756" lon="6.06288">
        <ele>1511.2</ele>
        <time>2024-08-09T09:33:25Z</time>
      </trkpt>
      <trkpt lat="45.0756" lon="6.06288">
        <ele>1511.4</ele>
        <time>2024-08-09T09:33:26Z</time>
      </trkpt>
      <trkpt lat="45.07563" lon="6.06288">
        <ele>1511.8</ele>
        <time>2024-08-09T09:33:27Z</time>
      </trkpt>
      <trkpt lat="45.07563" lon="6.06288">
        <ele>1512.4</ele>
        <time>2024-08-09T09:33:28Z</time>
      </trkpt>
      <trkpt lat="45.07565" lon="6.06287">
        <ele>1512.4</ele>
        <time>2024-08-09T09:33:29Z</time>
      </trkpt>
      <trkpt lat="45.07565" lon="6.06287">
        <ele>1512.4</ele>
        <time>2024-08-09T09:33:30Z</time>
      </trkpt>
      <trkpt lat="45.07567" lon="6.06286">
        <ele>1512.4</ele>
        <time>2024-08-09T09:33:31Z</time>
      </trkpt>
      <trkpt lat="45.07567" lon="6.06286">
        <ele>1512.6</ele>
        <time>2024-08-09T09:33:32Z</time>
      </trkpt>
      <trkpt lat="45.0757" lon="6.06283">
        <ele>1512.8</ele>
        <time>2024-08-09T09:33:33Z</time>
      </trkpt>
      <trkpt lat="45.0757" lon="6.06283">
        <ele>1512.8</ele>
        <time>2024-08-09T09:33:34Z</time>
      </trkpt>
      <trkpt lat="45.07572" lon="6.06281">
        <ele>1512.8</ele>
        <time>2024-08-09T09:33:35Z</time>
      </trkpt>
      <trkpt lat="45.07572" lon="6.06281">
        <ele>1512.8</ele>
        <time>2024-08-09T09:33:36Z</time>
      </trkpt>
      <trkpt lat="45.07574" lon="6.06279">
        <ele>1512.8</ele>
        <time>2024-08-09T09:33:37Z</time>
      </trkpt>
      <trkpt lat="45.07574" lon="6.06279">
        <ele>1512.8</ele>
        <time>2024-08-09T09:33:38Z</time>
      </trkpt>
      <trkpt lat="45.07576" lon="6.06277">
        <ele>1512.8</ele>
        <time>2024-08-09T09:33:39Z</time>
      </trkpt>
      <trkpt lat="45.07576" lon="6.06277">
        <ele>1512.6</ele>
        <time>2024-08-09T09:33:40Z</time>
      </trkpt>
      <trkpt lat="45.07579" lon="6.06276">
        <ele>1512.6</ele>
        <time>2024-08-09T09:33:41Z</time>
      </trkpt>
      <trkpt lat="45.07579" lon="6.06276">
        <ele>1512.8</ele>
        <time>2024-08-09T09:33:42Z</time>
      </trkpt>
      <trkpt lat="45.07582" lon="6.06276">
        <ele>1512.8</ele>
        <time>2024-08-09T09:33:43Z</time>
      </trkpt>
      <trkpt lat="45.07582" lon="6.06276">
        <ele>1512.6</ele>
        <time>2024-08-09T09:33:44Z</time>
      </trkpt>
      <trkpt lat="45.07584" lon="6.06275">
        <ele>1512.6</ele>
        <time>2024-08-09T09:33:45Z</time>
      </trkpt>
      <trkpt lat="45.07584" lon="6.06275">
        <ele>1513</ele>
        <time>2024-08-09T09:33:46Z</time>
      </trkpt>
      <trkpt lat="45.07587" lon="6.06276">
        <ele>1513.2</ele>
        <time>2024-08-09T09:33:47Z</time>
      </trkpt>
      <trkpt lat="45.07587" lon="6.06276">
        <ele>1513.4</ele>
        <time>2024-08-09T09:33:48Z</time>
      </trkpt>
      <trkpt lat="45.07589" lon="6.06276">
        <ele>1513.4</ele>
        <time>2024-08-09T09:33:49Z</time>
      </trkpt>
      <trkpt lat="45.07589" lon="6.06276">
        <ele>1513.6</ele>
        <time>2024-08-09T09:33:50Z</time>
      </trkpt>
      <trkpt lat="45.07591" lon="6.06276">
        <ele>1513.8</ele>
        <time>2024-08-09T09:33:51Z</time>
      </trkpt>
      <trkpt lat="45.07591" lon="6.06276">
        <ele>1514.2</ele>
        <time>2024-08-09T09:33:52Z</time>
      </trkpt>
      <trkpt lat="45.07593" lon="6.06276">
        <ele>1514.2</ele>
        <time>2024-08-09T09:33:53Z</time>
      </trkpt>
      <trkpt lat="45.07593" lon="6.06276">
        <ele>1514.6</ele>
        <time>2024-08-09T09:33:54Z</time>
      </trkpt>
      <trkpt lat="45.07595" lon="6.06277">
        <ele>1515</ele>
        <time>2024-08-09T09:33:55Z</time>
      </trkpt>
      <trkpt lat="45.07595" lon="6.06277">
        <ele>1515</ele>
        <time>2024-08-09T09:33:56Z</time>
      </trkpt>
      <trkpt lat="45.07597" lon="6.06278">
        <ele>1515.6</ele>
        <time>2024-08-09T09:33:57Z</time>
      </trkpt>
      <trkpt lat="45.07597" lon="6.06278">
        <ele>1515.8</ele>
        <time>2024-08-09T09:33:58Z</time>
      </trkpt>
      <trkpt lat="45.076" lon="6.06277">
        <ele>1516</ele>
        <time>2024-08-09T09:33:59Z</time>
      </trkpt>
      <trkpt lat="45.076" lon="6.06277">
        <ele>1515.8</ele>
        <time>2024-08-09T09:34:00Z</time>
      </trkpt>
      <trkpt lat="45.07603" lon="6.06277">
        <ele>1515.8</ele>
        <time>2024-08-09T09:34:01Z</time>
      </trkpt>
      <trkpt lat="45.07605" lon="6.06278">
        <ele>1515.2</ele>
        <time>2024-08-09T09:34:02Z</time>
      </trkpt>
      <trkpt lat="45.07605" lon="6.06278">
        <ele>1515.2</ele>
        <time>2024-08-09T09:34:03Z</time>
      </trkpt>
      <trkpt lat="45.07608" lon="6.06279">
        <ele>1515.2</ele>
        <time>2024-08-09T09:34:04Z</time>
      </trkpt>
      <trkpt lat="45.07608" lon="6.06279">
        <ele>1515</ele>
        <time>2024-08-09T09:34:05Z</time>
      </trkpt>
      <trkpt lat="45.07611" lon="6.06279">
        <ele>1515</ele>
        <time>2024-08-09T09:34:06Z</time>
      </trkpt>
      <trkpt lat="45.07611" lon="6.06279">
        <ele>1515</ele>
        <time>2024-08-09T09:34:07Z</time>
      </trkpt>
      <trkpt lat="45.07613" lon="6.06279">
        <ele>1515</ele>
        <time>2024-08-09T09:34:08Z</time>
      </trkpt>
      <trkpt lat="45.07613" lon="6.06279">
        <ele>1515</ele>
        <time>2024-08-09T09:34:09Z</time>
      </trkpt>
      <trkpt lat="45.07616" lon="6.06279">
        <ele>1515</ele>
        <time>2024-08-09T09:34:10Z</time>
      </trkpt>
      <trkpt lat="45.07618" lon="6.0628">
        <ele>1515</ele>
        <time>2024-08-09T09:34:11Z</time>
      </trkpt>
      <trkpt lat="45.07619" lon="6.0628">
        <ele>1515</ele>
        <time>2024-08-09T09:34:12Z</time>
      </trkpt>
      <trkpt lat="45.0762" lon="6.0628">
        <ele>1515</ele>
        <time>2024-08-09T09:34:13Z</time>
      </trkpt>
      <trkpt lat="45.07621" lon="6.0628">
        <ele>1515</ele>
        <time>2024-08-09T09:34:14Z</time>
      </trkpt>
      <trkpt lat="45.07624" lon="6.06281">
        <ele>1515.2</ele>
        <time>2024-08-09T09:34:15Z</time>
      </trkpt>
      <trkpt lat="45.07624" lon="6.06281">
        <ele>1515.2</ele>
        <time>2024-08-09T09:34:16Z</time>
      </trkpt>
      <trkpt lat="45.07626" lon="6.06282">
        <ele>1515.4</ele>
        <time>2024-08-09T09:34:17Z</time>
      </trkpt>
      <trkpt lat="45.07626" lon="6.06282">
        <ele>1515.8</ele>
        <time>2024-08-09T09:34:18Z</time>
      </trkpt>
      <trkpt lat="45.07628" lon="6.06283">
        <ele>1516</ele>
        <time>2024-08-09T09:34:19Z</time>
      </trkpt>
      <trkpt lat="45.07628" lon="6.06283">
        <ele>1516</ele>
        <time>2024-08-09T09:34:20Z</time>
      </trkpt>
      <trkpt lat="45.0763" lon="6.06283">
        <ele>1516</ele>
        <time>2024-08-09T09:34:21Z</time>
      </trkpt>
      <trkpt lat="45.0763" lon="6.06283">
        <ele>1516</ele>
        <time>2024-08-09T09:34:22Z</time>
      </trkpt>
      <trkpt lat="45.07632" lon="6.06284">
        <ele>1516.2</ele>
        <time>2024-08-09T09:34:23Z</time>
      </trkpt>
      <trkpt lat="45.07632" lon="6.06284">
        <ele>1516.4</ele>
        <time>2024-08-09T09:34:24Z</time>
      </trkpt>
      <trkpt lat="45.07635" lon="6.06284">
        <ele>1516.4</ele>
        <time>2024-08-09T09:34:25Z</time>
      </trkpt>
      <trkpt lat="45.07635" lon="6.06284">
        <ele>1516.4</ele>
        <time>2024-08-09T09:34:26Z</time>
      </trkpt>
      <trkpt lat="45.07637" lon="6.06284">
        <ele>1516.6</ele>
        <time>2024-08-09T09:34:27Z</time>
      </trkpt>
      <trkpt lat="45.07637" lon="6.06284">
        <ele>1517</ele>
        <time>2024-08-09T09:34:28Z</time>
      </trkpt>
      <trkpt lat="45.0764" lon="6.06284">
        <ele>1517.4</ele>
        <time>2024-08-09T09:34:29Z</time>
      </trkpt>
      <trkpt lat="45.0764" lon="6.06284">
        <ele>1517.4</ele>
        <time>2024-08-09T09:34:30Z</time>
      </trkpt>
      <trkpt lat="45.07642" lon="6.06284">
        <ele>1517.4</ele>
        <time>2024-08-09T09:34:31Z</time>
      </trkpt>
      <trkpt lat="45.07642" lon="6.06284">
        <ele>1517.4</ele>
        <time>2024-08-09T09:34:32Z</time>
      </trkpt>
      <trkpt lat="45.07645" lon="6.06284">
        <ele>1517.6</ele>
        <time>2024-08-09T09:34:33Z</time>
      </trkpt>
      <trkpt lat="45.07645" lon="6.06284">
        <ele>1517.6</ele>
        <time>2024-08-09T09:34:34Z</time>
      </trkpt>
      <trkpt lat="45.07648" lon="6.06284">
        <ele>1517.6</ele>
        <time>2024-08-09T09:34:35Z</time>
      </trkpt>
      <trkpt lat="45.07648" lon="6.06284">
        <ele>1517.6</ele>
        <time>2024-08-09T09:34:36Z</time>
      </trkpt>
      <trkpt lat="45.0765" lon="6.06285">
        <ele>1517.6</ele>
        <time>2024-08-09T09:34:37Z</time>
      </trkpt>
      <trkpt lat="45.0765" lon="6.06285">
        <ele>1517.6</ele>
        <time>2024-08-09T09:34:38Z</time>
      </trkpt>
      <trkpt lat="45.07653" lon="6.06285">
        <ele>1517.6</ele>
        <time>2024-08-09T09:34:39Z</time>
      </trkpt>
      <trkpt lat="45.07653" lon="6.06285">
        <ele>1517.8</ele>
        <time>2024-08-09T09:34:40Z</time>
      </trkpt>
      <trkpt lat="45.07656" lon="6.06285">
        <ele>1517.8</ele>
        <time>2024-08-09T09:34:41Z</time>
      </trkpt>
      <trkpt lat="45.07656" lon="6.06285">
        <ele>1518</ele>
        <time>2024-08-09T09:34:42Z</time>
      </trkpt>
      <trkpt lat="45.07659" lon="6.06285">
        <ele>1518</ele>
        <time>2024-08-09T09:34:43Z</time>
      </trkpt>
      <trkpt lat="45.07661" lon="6.06285">
        <ele>1518</ele>
        <time>2024-08-09T09:34:44Z</time>
      </trkpt>
      <trkpt lat="45.07661" lon="6.06285">
        <ele>1518</ele>
        <time>2024-08-09T09:34:45Z</time>
      </trkpt>
      <trkpt lat="45.07663" lon="6.06286">
        <ele>1518</ele>
        <time>2024-08-09T09:34:46Z</time>
      </trkpt>
      <trkpt lat="45.07663" lon="6.06286">
        <ele>1518</ele>
        <time>2024-08-09T09:34:47Z</time>
      </trkpt>
      <trkpt lat="45.07666" lon="6.06286">
        <ele>1518</ele>
        <time>2024-08-09T09:34:48Z</time>
      </trkpt>
      <trkpt lat="45.07666" lon="6.06286">
        <ele>1518</ele>
        <time>2024-08-09T09:34:49Z</time>
      </trkpt>
      <trkpt lat="45.07669" lon="6.06288">
        <ele>1518</ele>
        <time>2024-08-09T09:34:50Z</time>
      </trkpt>
      <trkpt lat="45.07669" lon="6.06288">
        <ele>1518</ele>
        <time>2024-08-09T09:34:51Z</time>
      </trkpt>
      <trkpt lat="45.07672" lon="6.06289">
        <ele>1518.2</ele>
        <time>2024-08-09T09:34:52Z</time>
      </trkpt>
      <trkpt lat="45.07672" lon="6.06289">
        <ele>1518.2</ele>
        <time>2024-08-09T09:34:53Z</time>
      </trkpt>
      <trkpt lat="45.07675" lon="6.06291">
        <ele>1518.2</ele>
        <time>2024-08-09T09:34:54Z</time>
      </trkpt>
      <trkpt lat="45.07675" lon="6.06291">
        <ele>1518.2</ele>
        <time>2024-08-09T09:34:55Z</time>
      </trkpt>
      <trkpt lat="45.07678" lon="6.06292">
        <ele>1518.4</ele>
        <time>2024-08-09T09:34:56Z</time>
      </trkpt>
      <trkpt lat="45.07678" lon="6.06292">
        <ele>1518.8</ele>
        <time>2024-08-09T09:34:57Z</time>
      </trkpt>
      <trkpt lat="45.07681" lon="6.06293">
        <ele>1519</ele>
        <time>2024-08-09T09:34:58Z</time>
      </trkpt>
      <trkpt lat="45.07681" lon="6.06293">
        <ele>1519</ele>
        <time>2024-08-09T09:34:59Z</time>
      </trkpt>
      <trkpt lat="45.07684" lon="6.06294">
        <ele>1518.8</ele>
        <time>2024-08-09T09:35:00Z</time>
      </trkpt>
      <trkpt lat="45.07684" lon="6.06294">
        <ele>1518.8</ele>
        <time>2024-08-09T09:35:01Z</time>
      </trkpt>
      <trkpt lat="45.07686" lon="6.06295">
        <ele>1519</ele>
        <time>2024-08-09T09:35:02Z</time>
      </trkpt>
      <trkpt lat="45.07686" lon="6.06295">
        <ele>1519</ele>
        <time>2024-08-09T09:35:03Z</time>
      </trkpt>
      <trkpt lat="45.07689" lon="6.06295">
        <ele>1518.8</ele>
        <time>2024-08-09T09:35:04Z</time>
      </trkpt>
      <trkpt lat="45.07689" lon="6.06295">
        <ele>1518.8</ele>
        <time>2024-08-09T09:35:05Z</time>
      </trkpt>
      <trkpt lat="45.07691" lon="6.06296">
        <ele>1518.8</ele>
        <time>2024-08-09T09:35:06Z</time>
      </trkpt>
      <trkpt lat="45.07691" lon="6.06296">
        <ele>1519</ele>
        <time>2024-08-09T09:35:07Z</time>
      </trkpt>
      <trkpt lat="45.07694" lon="6.06297">
        <ele>1519</ele>
        <time>2024-08-09T09:35:08Z</time>
      </trkpt>
      <trkpt lat="45.07694" lon="6.06297">
        <ele>1519</ele>
        <time>2024-08-09T09:35:09Z</time>
      </trkpt>
      <trkpt lat="45.07697" lon="6.06297">
        <ele>1519.2</ele>
        <time>2024-08-09T09:35:10Z</time>
      </trkpt>
      <trkpt lat="45.07697" lon="6.06297">
        <ele>1519.2</ele>
        <time>2024-08-09T09:35:11Z</time>
      </trkpt>
      <trkpt lat="45.077" lon="6.06298">
        <ele>1519.2</ele>
        <time>2024-08-09T09:35:12Z</time>
      </trkpt>
      <trkpt lat="45.077" lon="6.06298">
        <ele>1519.2</ele>
        <time>2024-08-09T09:35:13Z</time>
      </trkpt>
      <trkpt lat="45.07703" lon="6.063">
        <ele>1519.2</ele>
        <time>2024-08-09T09:35:14Z</time>
      </trkpt>
      <trkpt lat="45.07703" lon="6.063">
        <ele>1519.2</ele>
        <time>2024-08-09T09:35:15Z</time>
      </trkpt>
      <trkpt lat="45.07706" lon="6.06301">
        <ele>1519.2</ele>
        <time>2024-08-09T09:35:16Z</time>
      </trkpt>
      <trkpt lat="45.07706" lon="6.06301">
        <ele>1519.4</ele>
        <time>2024-08-09T09:35:17Z</time>
      </trkpt>
      <trkpt lat="45.07709" lon="6.06302">
        <ele>1519.4</ele>
        <time>2024-08-09T09:35:18Z</time>
      </trkpt>
      <trkpt lat="45.07709" lon="6.06302">
        <ele>1519.4</ele>
        <time>2024-08-09T09:35:19Z</time>
      </trkpt>
      <trkpt lat="45.07711" lon="6.06302">
        <ele>1519.4</ele>
        <time>2024-08-09T09:35:20Z</time>
      </trkpt>
      <trkpt lat="45.07713" lon="6.06303">
        <ele>1519.6</ele>
        <time>2024-08-09T09:35:21Z</time>
      </trkpt>
      <trkpt lat="45.07713" lon="6.06303">
        <ele>1519.6</ele>
        <time>2024-08-09T09:35:22Z</time>
      </trkpt>
      <trkpt lat="45.07716" lon="6.06304">
        <ele>1519.8</ele>
        <time>2024-08-09T09:35:23Z</time>
      </trkpt>
      <trkpt lat="45.07716" lon="6.06304">
        <ele>1519.8</ele>
        <time>2024-08-09T09:35:24Z</time>
      </trkpt>
      <trkpt lat="45.07718" lon="6.06305">
        <ele>1519.8</ele>
        <time>2024-08-09T09:35:25Z</time>
      </trkpt>
      <trkpt lat="45.07718" lon="6.06305">
        <ele>1519.8</ele>
        <time>2024-08-09T09:35:26Z</time>
      </trkpt>
      <trkpt lat="45.07721" lon="6.06306">
        <ele>1519.8</ele>
        <time>2024-08-09T09:35:27Z</time>
      </trkpt>
      <trkpt lat="45.07721" lon="6.06306">
        <ele>1519.8</ele>
        <time>2024-08-09T09:35:28Z</time>
      </trkpt>
      <trkpt lat="45.07723" lon="6.06308">
        <ele>1519.8</ele>
        <time>2024-08-09T09:35:29Z</time>
      </trkpt>
      <trkpt lat="45.07723" lon="6.06308">
        <ele>1520</ele>
        <time>2024-08-09T09:35:30Z</time>
      </trkpt>
      <trkpt lat="45.07726" lon="6.06309">
        <ele>1520.2</ele>
        <time>2024-08-09T09:35:31Z</time>
      </trkpt>
      <trkpt lat="45.07726" lon="6.06309">
        <ele>1520.2</ele>
        <time>2024-08-09T09:35:32Z</time>
      </trkpt>
      <trkpt lat="45.07728" lon="6.06311">
        <ele>1520.2</ele>
        <time>2024-08-09T09:35:33Z</time>
      </trkpt>
      <trkpt lat="45.07728" lon="6.06311">
        <ele>1520.4</ele>
        <time>2024-08-09T09:35:34Z</time>
      </trkpt>
      <trkpt lat="45.07731" lon="6.06313">
        <ele>1520.4</ele>
        <time>2024-08-09T09:35:35Z</time>
      </trkpt>
      <trkpt lat="45.07731" lon="6.06313">
        <ele>1520.6</ele>
        <time>2024-08-09T09:35:36Z</time>
      </trkpt>
      <trkpt lat="45.07733" lon="6.06315">
        <ele>1520.6</ele>
        <time>2024-08-09T09:35:37Z</time>
      </trkpt>
      <trkpt lat="45.07733" lon="6.06315">
        <ele>1520.8</ele>
        <time>2024-08-09T09:35:38Z</time>
      </trkpt>
      <trkpt lat="45.07735" lon="6.06316">
        <ele>1521.2</ele>
        <time>2024-08-09T09:35:39Z</time>
      </trkpt>
      <trkpt lat="45.07735" lon="6.06316">
        <ele>1521.2</ele>
        <time>2024-08-09T09:35:40Z</time>
      </trkpt>
      <trkpt lat="45.07738" lon="6.06318">
        <ele>1521.2</ele>
        <time>2024-08-09T09:35:41Z</time>
      </trkpt>
      <trkpt lat="45.07738" lon="6.06318">
        <ele>1521.4</ele>
        <time>2024-08-09T09:35:42Z</time>
      </trkpt>
      <trkpt lat="45.07741" lon="6.06319">
        <ele>1521.4</ele>
        <time>2024-08-09T09:35:43Z</time>
      </trkpt>
      <trkpt lat="45.07741" lon="6.06319">
        <ele>1521.6</ele>
        <time>2024-08-09T09:35:44Z</time>
      </trkpt>
      <trkpt lat="45.07743" lon="6.0632">
        <ele>1521.6</ele>
        <time>2024-08-09T09:35:45Z</time>
      </trkpt>
      <trkpt lat="45.07743" lon="6.0632">
        <ele>1521.8</ele>
        <time>2024-08-09T09:35:46Z</time>
      </trkpt>
      <trkpt lat="45.07745" lon="6.06322">
        <ele>1521.8</ele>
        <time>2024-08-09T09:35:47Z</time>
      </trkpt>
      <trkpt lat="45.07745" lon="6.06322">
        <ele>1521.8</ele>
        <time>2024-08-09T09:35:48Z</time>
      </trkpt>
      <trkpt lat="45.07748" lon="6.06324">
        <ele>1521.8</ele>
        <time>2024-08-09T09:35:49Z</time>
      </trkpt>
      <trkpt lat="45.07748" lon="6.06324">
        <ele>1521.8</ele>
        <time>2024-08-09T09:35:50Z</time>
      </trkpt>
      <trkpt lat="45.0775" lon="6.06325">
        <ele>1521.8</ele>
        <time>2024-08-09T09:35:51Z</time>
      </trkpt>
      <trkpt lat="45.0775" lon="6.06325">
        <ele>1522</ele>
        <time>2024-08-09T09:35:52Z</time>
      </trkpt>
      <trkpt lat="45.07752" lon="6.06326">
        <ele>1522.2</ele>
        <time>2024-08-09T09:35:53Z</time>
      </trkpt>
      <trkpt lat="45.07752" lon="6.06326">
        <ele>1522.4</ele>
        <time>2024-08-09T09:35:54Z</time>
      </trkpt>
      <trkpt lat="45.07755" lon="6.06327">
        <ele>1522.6</ele>
        <time>2024-08-09T09:35:55Z</time>
      </trkpt>
      <trkpt lat="45.07755" lon="6.06327">
        <ele>1522.8</ele>
        <time>2024-08-09T09:35:56Z</time>
      </trkpt>
      <trkpt lat="45.07757" lon="6.06328">
        <ele>1523</ele>
        <time>2024-08-09T09:35:57Z</time>
      </trkpt>
      <trkpt lat="45.07757" lon="6.06328">
        <ele>1523.2</ele>
        <time>2024-08-09T09:35:58Z</time>
      </trkpt>
      <trkpt lat="45.07759" lon="6.0633">
        <ele>1523.4</ele>
        <time>2024-08-09T09:35:59Z</time>
      </trkpt>
      <trkpt lat="45.07759" lon="6.0633">
        <ele>1523.6</ele>
        <time>2024-08-09T09:36:00Z</time>
      </trkpt>
      <trkpt lat="45.07761" lon="6.06331">
        <ele>1523.6</ele>
        <time>2024-08-09T09:36:01Z</time>
      </trkpt>
      <trkpt lat="45.07761" lon="6.06331">
        <ele>1523.6</ele>
        <time>2024-08-09T09:36:02Z</time>
      </trkpt>
      <trkpt lat="45.07763" lon="6.06332">
        <ele>1523.6</ele>
        <time>2024-08-09T09:36:03Z</time>
      </trkpt>
      <trkpt lat="45.07763" lon="6.06332">
        <ele>1524</ele>
        <time>2024-08-09T09:36:04Z</time>
      </trkpt>
      <trkpt lat="45.07765" lon="6.06334">
        <ele>1524.4</ele>
        <time>2024-08-09T09:36:05Z</time>
      </trkpt>
      <trkpt lat="45.07765" lon="6.06334">
        <ele>1524.4</ele>
        <time>2024-08-09T09:36:06Z</time>
      </trkpt>
      <trkpt lat="45.07767" lon="6.06335">
        <ele>1524.4</ele>
        <time>2024-08-09T09:36:07Z</time>
      </trkpt>
      <trkpt lat="45.07767" lon="6.06335">
        <ele>1524.8</ele>
        <time>2024-08-09T09:36:08Z</time>
      </trkpt>
      <trkpt lat="45.07769" lon="6.06336">
        <ele>1525.2</ele>
        <time>2024-08-09T09:36:09Z</time>
      </trkpt>
      <trkpt lat="45.07769" lon="6.06336">
        <ele>1525.2</ele>
        <time>2024-08-09T09:36:10Z</time>
      </trkpt>
      <trkpt lat="45.0777" lon="6.06338">
        <ele>1525.2</ele>
        <time>2024-08-09T09:36:11Z</time>
      </trkpt>
      <trkpt lat="45.0777" lon="6.06338">
        <ele>1525.2</ele>
        <time>2024-08-09T09:36:12Z</time>
      </trkpt>
      <trkpt lat="45.07772" lon="6.0634">
        <ele>1525.6</ele>
        <time>2024-08-09T09:36:13Z</time>
      </trkpt>
      <trkpt lat="45.07772" lon="6.0634">
        <ele>1525.8</ele>
        <time>2024-08-09T09:36:14Z</time>
      </trkpt>
      <trkpt lat="45.07773" lon="6.06342">
        <ele>1526</ele>
        <time>2024-08-09T09:36:15Z</time>
      </trkpt>
      <trkpt lat="45.07773" lon="6.06342">
        <ele>1526</ele>
        <time>2024-08-09T09:36:16Z</time>
      </trkpt>
      <trkpt lat="45.07774" lon="6.06345">
        <ele>1526.4</ele>
        <time>2024-08-09T09:36:17Z</time>
      </trkpt>
      <trkpt lat="45.07774" lon="6.06345">
        <ele>1526.6</ele>
        <time>2024-08-09T09:36:18Z</time>
      </trkpt>
      <trkpt lat="45.07775" lon="6.06347">
        <ele>1526.4</ele>
        <time>2024-08-09T09:36:19Z</time>
      </trkpt>
      <trkpt lat="45.07775" lon="6.06347">
        <ele>1526.6</ele>
        <time>2024-08-09T09:36:20Z</time>
      </trkpt>
      <trkpt lat="45.07777" lon="6.0635">
        <ele>1526.8</ele>
        <time>2024-08-09T09:36:21Z</time>
      </trkpt>
      <trkpt lat="45.07777" lon="6.0635">
        <ele>1527</ele>
        <time>2024-08-09T09:36:22Z</time>
      </trkpt>
      <trkpt lat="45.07779" lon="6.06352">
        <ele>1527</ele>
        <time>2024-08-09T09:36:23Z</time>
      </trkpt>
      <trkpt lat="45.07779" lon="6.06352">
        <ele>1527.4</ele>
        <time>2024-08-09T09:36:24Z</time>
      </trkpt>
      <trkpt lat="45.0778" lon="6.06354">
        <ele>1527.8</ele>
        <time>2024-08-09T09:36:25Z</time>
      </trkpt>
      <trkpt lat="45.0778" lon="6.06354">
        <ele>1527.8</ele>
        <time>2024-08-09T09:36:26Z</time>
      </trkpt>
      <trkpt lat="45.07783" lon="6.06356">
        <ele>1527.8</ele>
        <time>2024-08-09T09:36:27Z</time>
      </trkpt>
      <trkpt lat="45.07783" lon="6.06356">
        <ele>1528</ele>
        <time>2024-08-09T09:36:28Z</time>
      </trkpt>
      <trkpt lat="45.07785" lon="6.06357">
        <ele>1528.2</ele>
        <time>2024-08-09T09:36:29Z</time>
      </trkpt>
      <trkpt lat="45.07785" lon="6.06357">
        <ele>1528.2</ele>
        <time>2024-08-09T09:36:30Z</time>
      </trkpt>
      <trkpt lat="45.07787" lon="6.06358">
        <ele>1528.6</ele>
        <time>2024-08-09T09:36:31Z</time>
      </trkpt>
      <trkpt lat="45.07787" lon="6.06358">
        <ele>1528.8</ele>
        <time>2024-08-09T09:36:32Z</time>
      </trkpt>
      <trkpt lat="45.07787" lon="6.06358">
        <ele>1529</ele>
        <time>2024-08-09T09:36:33Z</time>
      </trkpt>
      <trkpt lat="45.07789" lon="6.06359">
        <ele>1529</ele>
        <time>2024-08-09T09:36:34Z</time>
      </trkpt>
      <trkpt lat="45.07789" lon="6.06359">
        <ele>1529</ele>
        <time>2024-08-09T09:36:35Z</time>
      </trkpt>
      <trkpt lat="45.07791" lon="6.06361">
        <ele>1529.4</ele>
        <time>2024-08-09T09:36:36Z</time>
      </trkpt>
      <trkpt lat="45.07791" lon="6.06361">
        <ele>1529.6</ele>
        <time>2024-08-09T09:36:37Z</time>
      </trkpt>
      <trkpt lat="45.07791" lon="6.06361">
        <ele>1529.8</ele>
        <time>2024-08-09T09:36:38Z</time>
      </trkpt>
      <trkpt lat="45.07794" lon="6.06363">
        <ele>1530</ele>
        <time>2024-08-09T09:36:39Z</time>
      </trkpt>
      <trkpt lat="45.07794" lon="6.06363">
        <ele>1530.2</ele>
        <time>2024-08-09T09:36:40Z</time>
      </trkpt>
      <trkpt lat="45.07796" lon="6.06365">
        <ele>1530.4</ele>
        <time>2024-08-09T09:36:41Z</time>
      </trkpt>
      <trkpt lat="45.07796" lon="6.06365">
        <ele>1530.6</ele>
        <time>2024-08-09T09:36:42Z</time>
      </trkpt>
      <trkpt lat="45.07798" lon="6.06365">
        <ele>1530.6</ele>
        <time>2024-08-09T09:36:43Z</time>
      </trkpt>
      <trkpt lat="45.07798" lon="6.06365">
        <ele>1530.8</ele>
        <time>2024-08-09T09:36:44Z</time>
      </trkpt>
      <trkpt lat="45.078" lon="6.06366">
        <ele>1531</ele>
        <time>2024-08-09T09:36:45Z</time>
      </trkpt>
      <trkpt lat="45.078" lon="6.06366">
        <ele>1531</ele>
        <time>2024-08-09T09:36:46Z</time>
      </trkpt>
      <trkpt lat="45.07802" lon="6.06368">
        <ele>1531</ele>
        <time>2024-08-09T09:36:47Z</time>
      </trkpt>
      <trkpt lat="45.07802" lon="6.06368">
        <ele>1531.2</ele>
        <time>2024-08-09T09:36:48Z</time>
      </trkpt>
      <trkpt lat="45.07804" lon="6.06369">
        <ele>1531.4</ele>
        <time>2024-08-09T09:36:49Z</time>
      </trkpt>
      <trkpt lat="45.07804" lon="6.06369">
        <ele>1531.6</ele>
        <time>2024-08-09T09:36:50Z</time>
      </trkpt>
      <trkpt lat="45.07806" lon="6.06372">
        <ele>1531.6</ele>
        <time>2024-08-09T09:36:51Z</time>
      </trkpt>
      <trkpt lat="45.07806" lon="6.06372">
        <ele>1531.6</ele>
        <time>2024-08-09T09:36:52Z</time>
      </trkpt>
      <trkpt lat="45.07808" lon="6.06375">
        <ele>1531.6</ele>
        <time>2024-08-09T09:36:53Z</time>
      </trkpt>
      <trkpt lat="45.07808" lon="6.06375">
        <ele>1531.2</ele>
        <time>2024-08-09T09:36:54Z</time>
      </trkpt>
      <trkpt lat="45.07811" lon="6.06377">
        <ele>1531.2</ele>
        <time>2024-08-09T09:36:55Z</time>
      </trkpt>
      <trkpt lat="45.07811" lon="6.06377">
        <ele>1531.2</ele>
        <time>2024-08-09T09:36:56Z</time>
      </trkpt>
      <trkpt lat="45.07813" lon="6.06379">
        <ele>1531.2</ele>
        <time>2024-08-09T09:36:57Z</time>
      </trkpt>
      <trkpt lat="45.07813" lon="6.06379">
        <ele>1531.2</ele>
        <time>2024-08-09T09:36:58Z</time>
      </trkpt>
      <trkpt lat="45.07816" lon="6.06381">
        <ele>1531.2</ele>
        <time>2024-08-09T09:36:59Z</time>
      </trkpt>
      <trkpt lat="45.07816" lon="6.06381">
        <ele>1531</ele>
        <time>2024-08-09T09:37:00Z</time>
      </trkpt>
      <trkpt lat="45.07818" lon="6.06383">
        <ele>1530.8</ele>
        <time>2024-08-09T09:37:01Z</time>
      </trkpt>
      <trkpt lat="45.07818" lon="6.06383">
        <ele>1530.8</ele>
        <time>2024-08-09T09:37:02Z</time>
      </trkpt>
      <trkpt lat="45.07821" lon="6.06385">
        <ele>1530.8</ele>
        <time>2024-08-09T09:37:03Z</time>
      </trkpt>
      <trkpt lat="45.07821" lon="6.06385">
        <ele>1530.4</ele>
        <time>2024-08-09T09:37:04Z</time>
      </trkpt>
      <trkpt lat="45.07824" lon="6.06385">
        <ele>1530.4</ele>
        <time>2024-08-09T09:37:05Z</time>
      </trkpt>
      <trkpt lat="45.07824" lon="6.06385">
        <ele>1530.2</ele>
        <time>2024-08-09T09:37:06Z</time>
      </trkpt>
      <trkpt lat="45.07827" lon="6.06386">
        <ele>1530</ele>
        <time>2024-08-09T09:37:07Z</time>
      </trkpt>
      <trkpt lat="45.07827" lon="6.06386">
        <ele>1530</ele>
        <time>2024-08-09T09:37:08Z</time>
      </trkpt>
      <trkpt lat="45.07829" lon="6.06388">
        <ele>1530</ele>
        <time>2024-08-09T09:37:09Z</time>
      </trkpt>
      <trkpt lat="45.07829" lon="6.06388">
        <ele>1530</ele>
        <time>2024-08-09T09:37:10Z</time>
      </trkpt>
      <trkpt lat="45.07832" lon="6.06391">
        <ele>1529.8</ele>
        <time>2024-08-09T09:37:11Z</time>
      </trkpt>
      <trkpt lat="45.07834" lon="6.06392">
        <ele>1529.8</ele>
        <time>2024-08-09T09:37:12Z</time>
      </trkpt>
      <trkpt lat="45.07836" lon="6.06393">
        <ele>1529.8</ele>
        <time>2024-08-09T09:37:13Z</time>
      </trkpt>
      <trkpt lat="45.07836" lon="6.06393">
        <ele>1529.6</ele>
        <time>2024-08-09T09:37:14Z</time>
      </trkpt>
      <trkpt lat="45.07838" lon="6.06395">
        <ele>1529.4</ele>
        <time>2024-08-09T09:37:15Z</time>
      </trkpt>
      <trkpt lat="45.07838" lon="6.06395">
        <ele>1529.4</ele>
        <time>2024-08-09T09:37:16Z</time>
      </trkpt>
      <trkpt lat="45.0784" lon="6.06397">
        <ele>1529.6</ele>
        <time>2024-08-09T09:37:17Z</time>
      </trkpt>
      <trkpt lat="45.0784" lon="6.06397">
        <ele>1529.6</ele>
        <time>2024-08-09T09:37:18Z</time>
      </trkpt>
      <trkpt lat="45.07842" lon="6.06399">
        <ele>1529.4</ele>
        <time>2024-08-09T09:37:19Z</time>
      </trkpt>
      <trkpt lat="45.07842" lon="6.06399">
        <ele>1529.4</ele>
        <time>2024-08-09T09:37:20Z</time>
      </trkpt>
      <trkpt lat="45.07844" lon="6.06401">
        <ele>1529.4</ele>
        <time>2024-08-09T09:37:21Z</time>
      </trkpt>
      <trkpt lat="45.07844" lon="6.06401">
        <ele>1529.4</ele>
        <time>2024-08-09T09:37:22Z</time>
      </trkpt>
      <trkpt lat="45.07846" lon="6.06403">
        <ele>1529.4</ele>
        <time>2024-08-09T09:37:23Z</time>
      </trkpt>
      <trkpt lat="45.07846" lon="6.06403">
        <ele>1529.6</ele>
        <time>2024-08-09T09:37:24Z</time>
      </trkpt>
      <trkpt lat="45.07849" lon="6.06404">
        <ele>1529.8</ele>
        <time>2024-08-09T09:37:25Z</time>
      </trkpt>
      <trkpt lat="45.07849" lon="6.06404">
        <ele>1530</ele>
        <time>2024-08-09T09:37:26Z</time>
      </trkpt>
      <trkpt lat="45.07852" lon="6.06405">
        <ele>1530</ele>
        <time>2024-08-09T09:37:27Z</time>
      </trkpt>
      <trkpt lat="45.07852" lon="6.06405">
        <ele>1529.8</ele>
        <time>2024-08-09T09:37:28Z</time>
      </trkpt>
      <trkpt lat="45.07854" lon="6.06407">
        <ele>1529.6</ele>
        <time>2024-08-09T09:37:29Z</time>
      </trkpt>
      <trkpt lat="45.07854" lon="6.06407">
        <ele>1529.4</ele>
        <time>2024-08-09T09:37:30Z</time>
      </trkpt>
      <trkpt lat="45.07856" lon="6.06408">
        <ele>1529.4</ele>
        <time>2024-08-09T09:37:31Z</time>
      </trkpt>
      <trkpt lat="45.07856" lon="6.06408">
        <ele>1529.4</ele>
        <time>2024-08-09T09:37:32Z</time>
      </trkpt>
      <trkpt lat="45.07859" lon="6.0641">
        <ele>1529.4</ele>
        <time>2024-08-09T09:37:33Z</time>
      </trkpt>
      <trkpt lat="45.07859" lon="6.0641">
        <ele>1529.4</ele>
        <time>2024-08-09T09:37:34Z</time>
      </trkpt>
      <trkpt lat="45.07861" lon="6.06411">
        <ele>1529.4</ele>
        <time>2024-08-09T09:37:35Z</time>
      </trkpt>
      <trkpt lat="45.07861" lon="6.06411">
        <ele>1529.4</ele>
        <time>2024-08-09T09:37:36Z</time>
      </trkpt>
      <trkpt lat="45.07863" lon="6.06412">
        <ele>1529.4</ele>
        <time>2024-08-09T09:37:37Z</time>
      </trkpt>
      <trkpt lat="45.07863" lon="6.06412">
        <ele>1529.6</ele>
        <time>2024-08-09T09:37:38Z</time>
      </trkpt>
      <trkpt lat="45.07865" lon="6.06414">
        <ele>1529.8</ele>
        <time>2024-08-09T09:37:39Z</time>
      </trkpt>
      <trkpt lat="45.07865" lon="6.06414">
        <ele>1530</ele>
        <time>2024-08-09T09:37:40Z</time>
      </trkpt>
      <trkpt lat="45.07865" lon="6.06414">
        <ele>1530</ele>
        <time>2024-08-09T09:37:41Z</time>
      </trkpt>
      <trkpt lat="45.07867" lon="6.06417">
        <ele>1530.2</ele>
        <time>2024-08-09T09:37:42Z</time>
      </trkpt>
      <trkpt lat="45.07867" lon="6.06417">
        <ele>1530.2</ele>
        <time>2024-08-09T09:37:43Z</time>
      </trkpt>
      <trkpt lat="45.07867" lon="6.06417">
        <ele>1530.4</ele>
        <time>2024-08-09T09:37:44Z</time>
      </trkpt>
      <trkpt lat="45.07869" lon="6.06419">
        <ele>1530.6</ele>
        <time>2024-08-09T09:37:45Z</time>
      </trkpt>
      <trkpt lat="45.07869" lon="6.06419">
        <ele>1530.8</ele>
        <time>2024-08-09T09:37:46Z</time>
      </trkpt>
      <trkpt lat="45.0787" lon="6.0642">
        <ele>1531.2</ele>
        <time>2024-08-09T09:37:47Z</time>
      </trkpt>
      <trkpt lat="45.0787" lon="6.0642">
        <ele>1531.4</ele>
        <time>2024-08-09T09:37:48Z</time>
      </trkpt>
      <trkpt lat="45.07873" lon="6.06422">
        <ele>1531.8</ele>
        <time>2024-08-09T09:37:49Z</time>
      </trkpt>
      <trkpt lat="45.07873" lon="6.06422">
        <ele>1531.8</ele>
        <time>2024-08-09T09:37:50Z</time>
      </trkpt>
      <trkpt lat="45.07876" lon="6.06423">
        <ele>1531.6</ele>
        <time>2024-08-09T09:37:51Z</time>
      </trkpt>
      <trkpt lat="45.07876" lon="6.06423">
        <ele>1531.6</ele>
        <time>2024-08-09T09:37:52Z</time>
      </trkpt>
      <trkpt lat="45.07878" lon="6.06424">
        <ele>1532</ele>
        <time>2024-08-09T09:37:53Z</time>
      </trkpt>
      <trkpt lat="45.07878" lon="6.06424">
        <ele>1532</ele>
        <time>2024-08-09T09:37:54Z</time>
      </trkpt>
      <trkpt lat="45.07881" lon="6.06425">
        <ele>1532</ele>
        <time>2024-08-09T09:37:55Z</time>
      </trkpt>
      <trkpt lat="45.07881" lon="6.06425">
        <ele>1532.2</ele>
        <time>2024-08-09T09:37:56Z</time>
      </trkpt>
      <trkpt lat="45.07884" lon="6.06425">
        <ele>1532.2</ele>
        <time>2024-08-09T09:37:57Z</time>
      </trkpt>
      <trkpt lat="45.07884" lon="6.06425">
        <ele>1532.4</ele>
        <time>2024-08-09T09:37:58Z</time>
      </trkpt>
      <trkpt lat="45.07885" lon="6.06424">
        <ele>1532.6</ele>
        <time>2024-08-09T09:37:59Z</time>
      </trkpt>
      <trkpt lat="45.07885" lon="6.06424">
        <ele>1532.6</ele>
        <time>2024-08-09T09:38:00Z</time>
      </trkpt>
      <trkpt lat="45.07888" lon="6.06422">
        <ele>1532.4</ele>
        <time>2024-08-09T09:38:01Z</time>
      </trkpt>
      <trkpt lat="45.07888" lon="6.06422">
        <ele>1532</ele>
        <time>2024-08-09T09:38:02Z</time>
      </trkpt>
      <trkpt lat="45.07892" lon="6.06423">
        <ele>1532</ele>
        <time>2024-08-09T09:38:03Z</time>
      </trkpt>
      <trkpt lat="45.07892" lon="6.06423">
        <ele>1532</ele>
        <time>2024-08-09T09:38:04Z</time>
      </trkpt>
      <trkpt lat="45.07893" lon="6.06424">
        <ele>1532</ele>
        <time>2024-08-09T09:38:05Z</time>
      </trkpt>
      <trkpt lat="45.07893" lon="6.06424">
        <ele>1532</ele>
        <time>2024-08-09T09:38:06Z</time>
      </trkpt>
      <trkpt lat="45.07895" lon="6.06425">
        <ele>1532.4</ele>
        <time>2024-08-09T09:38:07Z</time>
      </trkpt>
      <trkpt lat="45.07895" lon="6.06425">
        <ele>1532.6</ele>
        <time>2024-08-09T09:38:08Z</time>
      </trkpt>
      <trkpt lat="45.07898" lon="6.06424">
        <ele>1532.6</ele>
        <time>2024-08-09T09:38:09Z</time>
      </trkpt>
      <trkpt lat="45.07898" lon="6.06424">
        <ele>1532.4</ele>
        <time>2024-08-09T09:38:10Z</time>
      </trkpt>
      <trkpt lat="45.079" lon="6.06424">
        <ele>1532.2</ele>
        <time>2024-08-09T09:38:11Z</time>
      </trkpt>
      <trkpt lat="45.079" lon="6.06424">
        <ele>1532.2</ele>
        <time>2024-08-09T09:38:12Z</time>
      </trkpt>
      <trkpt lat="45.07902" lon="6.06423">
        <ele>1532</ele>
        <time>2024-08-09T09:38:13Z</time>
      </trkpt>
      <trkpt lat="45.07902" lon="6.06423">
        <ele>1531.6</ele>
        <time>2024-08-09T09:38:14Z</time>
      </trkpt>
      <trkpt lat="45.07905" lon="6.06422">
        <ele>1531.4</ele>
        <time>2024-08-09T09:38:15Z</time>
      </trkpt>
      <trkpt lat="45.07905" lon="6.06422">
        <ele>1531.4</ele>
        <time>2024-08-09T09:38:16Z</time>
      </trkpt>
      <trkpt lat="45.07908" lon="6.06423">
        <ele>1531.4</ele>
        <time>2024-08-09T09:38:17Z</time>
      </trkpt>
      <trkpt lat="45.07908" lon="6.06423">
        <ele>1531.4</ele>
        <time>2024-08-09T09:38:18Z</time>
      </trkpt>
      <trkpt lat="45.0791" lon="6.06424">
        <ele>1531.4</ele>
        <time>2024-08-09T09:38:19Z</time>
      </trkpt>
      <trkpt lat="45.0791" lon="6.06424">
        <ele>1531.4</ele>
        <time>2024-08-09T09:38:20Z</time>
      </trkpt>
      <trkpt lat="45.07913" lon="6.06425">
        <ele>1531.4</ele>
        <time>2024-08-09T09:38:21Z</time>
      </trkpt>
      <trkpt lat="45.07913" lon="6.06425">
        <ele>1531.8</ele>
        <time>2024-08-09T09:38:22Z</time>
      </trkpt>
      <trkpt lat="45.07916" lon="6.06428">
        <ele>1531.8</ele>
        <time>2024-08-09T09:38:23Z</time>
      </trkpt>
      <trkpt lat="45.07916" lon="6.06428">
        <ele>1531.6</ele>
        <time>2024-08-09T09:38:24Z</time>
      </trkpt>
      <trkpt lat="45.07917" lon="6.0643">
        <ele>1531.6</ele>
        <time>2024-08-09T09:38:25Z</time>
      </trkpt>
      <trkpt lat="45.07917" lon="6.0643">
        <ele>1531.6</ele>
        <time>2024-08-09T09:38:26Z</time>
      </trkpt>
      <trkpt lat="45.07917" lon="6.0643">
        <ele>1532</ele>
        <time>2024-08-09T09:38:27Z</time>
      </trkpt>
      <trkpt lat="45.07917" lon="6.06433">
        <ele>1532.2</ele>
        <time>2024-08-09T09:38:28Z</time>
      </trkpt>
      <trkpt lat="45.07917" lon="6.06433">
        <ele>1532.2</ele>
        <time>2024-08-09T09:38:29Z</time>
      </trkpt>
      <trkpt lat="45.07916" lon="6.06435">
        <ele>1532.4</ele>
        <time>2024-08-09T09:38:30Z</time>
      </trkpt>
      <trkpt lat="45.07916" lon="6.06435">
        <ele>1532.6</ele>
        <time>2024-08-09T09:38:31Z</time>
      </trkpt>
      <trkpt lat="45.07916" lon="6.06435">
        <ele>1532.8</ele>
        <time>2024-08-09T09:38:32Z</time>
      </trkpt>
      <trkpt lat="45.07916" lon="6.06438">
        <ele>1533.4</ele>
        <time>2024-08-09T09:38:33Z</time>
      </trkpt>
      <trkpt lat="45.07916" lon="6.06438">
        <ele>1533.4</ele>
        <time>2024-08-09T09:38:34Z</time>
      </trkpt>
      <trkpt lat="45.07916" lon="6.06441">
        <ele>1533.8</ele>
        <time>2024-08-09T09:38:35Z</time>
      </trkpt>
      <trkpt lat="45.07916" lon="6.06441">
        <ele>1534</ele>
        <time>2024-08-09T09:38:36Z</time>
      </trkpt>
      <trkpt lat="45.07916" lon="6.06441">
        <ele>1534</ele>
        <time>2024-08-09T09:38:37Z</time>
      </trkpt>
      <trkpt lat="45.07916" lon="6.06444">
        <ele>1534.4</ele>
        <time>2024-08-09T09:38:38Z</time>
      </trkpt>
      <trkpt lat="45.07916" lon="6.06444">
        <ele>1534.4</ele>
        <time>2024-08-09T09:38:39Z</time>
      </trkpt>
      <trkpt lat="45.07916" lon="6.06444">
        <ele>1534.4</ele>
        <time>2024-08-09T09:38:40Z</time>
      </trkpt>
      <trkpt lat="45.07916" lon="6.06447">
        <ele>1534.4</ele>
        <time>2024-08-09T09:38:41Z</time>
      </trkpt>
      <trkpt lat="45.07916" lon="6.06447">
        <ele>1535</ele>
        <time>2024-08-09T09:38:42Z</time>
      </trkpt>
      <trkpt lat="45.07916" lon="6.06447">
        <ele>1535</ele>
        <time>2024-08-09T09:38:43Z</time>
      </trkpt>
      <trkpt lat="45.07916" lon="6.06447">
        <ele>1535</ele>
        <time>2024-08-09T09:38:44Z</time>
      </trkpt>
      <trkpt lat="45.07916" lon="6.06447">
        <ele>1535</ele>
        <time>2024-08-09T09:38:45Z</time>
      </trkpt>
      <trkpt lat="45.07916" lon="6.06447">
        <ele>1535</ele>
        <time>2024-08-09T09:38:46Z</time>
      </trkpt>
      <trkpt lat="45.07916" lon="6.06447">
        <ele>1535</ele>
        <time>2024-08-09T09:38:47Z</time>
      </trkpt>
      <trkpt lat="45.07916" lon="6.0645">
        <ele>1534.8</ele>
        <time>2024-08-09T09:38:48Z</time>
      </trkpt>
      <trkpt lat="45.07916" lon="6.0645">
        <ele>1534.8</ele>
        <time>2024-08-09T09:38:49Z</time>
      </trkpt>
      <trkpt lat="45.07916" lon="6.0645">
        <ele>1534.8</ele>
        <time>2024-08-09T09:38:50Z</time>
      </trkpt>
      <trkpt lat="45.07916" lon="6.06453">
        <ele>1534.8</ele>
        <time>2024-08-09T09:38:51Z</time>
      </trkpt>
      <trkpt lat="45.07916" lon="6.06453">
        <ele>1534.8</ele>
        <time>2024-08-09T09:38:52Z</time>
      </trkpt>
      <trkpt lat="45.07916" lon="6.06453">
        <ele>1534.8</ele>
        <time>2024-08-09T09:38:53Z</time>
      </trkpt>
      <trkpt lat="45.07915" lon="6.06457">
        <ele>1534.8</ele>
        <time>2024-08-09T09:38:54Z</time>
      </trkpt>
      <trkpt lat="45.07915" lon="6.06457">
        <ele>1534.4</ele>
        <time>2024-08-09T09:38:55Z</time>
      </trkpt>
      <trkpt lat="45.07914" lon="6.06459">
        <ele>1533.8</ele>
        <time>2024-08-09T09:38:56Z</time>
      </trkpt>
      <trkpt lat="45.07914" lon="6.06459">
        <ele>1533.6</ele>
        <time>2024-08-09T09:38:57Z</time>
      </trkpt>
      <trkpt lat="45.07914" lon="6.06459">
        <ele>1533.4</ele>
        <time>2024-08-09T09:38:58Z</time>
      </trkpt>
      <trkpt lat="45.07914" lon="6.06462">
        <ele>1533</ele>
        <time>2024-08-09T09:38:59Z</time>
      </trkpt>
      <trkpt lat="45.07914" lon="6.06462">
        <ele>1532.8</ele>
        <time>2024-08-09T09:39:00Z</time>
      </trkpt>
      <trkpt lat="45.07914" lon="6.06465">
        <ele>1532.4</ele>
        <time>2024-08-09T09:39:01Z</time>
      </trkpt>
      <trkpt lat="45.07914" lon="6.06465">
        <ele>1531.8</ele>
        <time>2024-08-09T09:39:02Z</time>
      </trkpt>
      <trkpt lat="45.07914" lon="6.06465">
        <ele>1531.8</ele>
        <time>2024-08-09T09:39:03Z</time>
      </trkpt>
      <trkpt lat="45.07913" lon="6.06468">
        <ele>1531.6</ele>
        <time>2024-08-09T09:39:04Z</time>
      </trkpt>
      <trkpt lat="45.07913" lon="6.06468">
        <ele>1531.4</ele>
        <time>2024-08-09T09:39:05Z</time>
      </trkpt>
      <trkpt lat="45.07913" lon="6.06472">
        <ele>1531.2</ele>
        <time>2024-08-09T09:39:06Z</time>
      </trkpt>
      <trkpt lat="45.07913" lon="6.06472">
        <ele>1531.2</ele>
        <time>2024-08-09T09:39:07Z</time>
      </trkpt>
      <trkpt lat="45.07913" lon="6.06475">
        <ele>1531.2</ele>
        <time>2024-08-09T09:39:08Z</time>
      </trkpt>
      <trkpt lat="45.07913" lon="6.06475">
        <ele>1530.8</ele>
        <time>2024-08-09T09:39:09Z</time>
      </trkpt>
      <trkpt lat="45.07913" lon="6.06475">
        <ele>1530.8</ele>
        <time>2024-08-09T09:39:10Z</time>
      </trkpt>
      <trkpt lat="45.07914" lon="6.06478">
        <ele>1530.4</ele>
        <time>2024-08-09T09:39:11Z</time>
      </trkpt>
      <trkpt lat="45.07914" lon="6.06478">
        <ele>1530</ele>
        <time>2024-08-09T09:39:12Z</time>
      </trkpt>
      <trkpt lat="45.07916" lon="6.06481">
        <ele>1529.4</ele>
        <time>2024-08-09T09:39:13Z</time>
      </trkpt>
      <trkpt lat="45.07917" lon="6.06482">
        <ele>1529.4</ele>
        <time>2024-08-09T09:39:14Z</time>
      </trkpt>
      <trkpt lat="45.07917" lon="6.06482">
        <ele>1529</ele>
        <time>2024-08-09T09:39:15Z</time>
      </trkpt>
      <trkpt lat="45.07919" lon="6.06485">
        <ele>1529</ele>
        <time>2024-08-09T09:39:16Z</time>
      </trkpt>
      <trkpt lat="45.07919" lon="6.06485">
        <ele>1528.6</ele>
        <time>2024-08-09T09:39:17Z</time>
      </trkpt>
      <trkpt lat="45.0792" lon="6.06488">
        <ele>1528.6</ele>
        <time>2024-08-09T09:39:18Z</time>
      </trkpt>
      <trkpt lat="45.0792" lon="6.06488">
        <ele>1528.6</ele>
        <time>2024-08-09T09:39:19Z</time>
      </trkpt>
      <trkpt lat="45.0792" lon="6.06491">
        <ele>1528.6</ele>
        <time>2024-08-09T09:39:20Z</time>
      </trkpt>
      <trkpt lat="45.0792" lon="6.06491">
        <ele>1528.4</ele>
        <time>2024-08-09T09:39:21Z</time>
      </trkpt>
      <trkpt lat="45.0792" lon="6.06491">
        <ele>1528.2</ele>
        <time>2024-08-09T09:39:22Z</time>
      </trkpt>
      <trkpt lat="45.0792" lon="6.06495">
        <ele>1528</ele>
        <time>2024-08-09T09:39:23Z</time>
      </trkpt>
      <trkpt lat="45.0792" lon="6.06495">
        <ele>1527.6</ele>
        <time>2024-08-09T09:39:24Z</time>
      </trkpt>
      <trkpt lat="45.0792" lon="6.06495">
        <ele>1527.2</ele>
        <time>2024-08-09T09:39:25Z</time>
      </trkpt>
      <trkpt lat="45.0792" lon="6.06498">
        <ele>1527</ele>
        <time>2024-08-09T09:39:26Z</time>
      </trkpt>
      <trkpt lat="45.0792" lon="6.06498">
        <ele>1526.6</ele>
        <time>2024-08-09T09:39:27Z</time>
      </trkpt>
      <trkpt lat="45.0792" lon="6.06498">
        <ele>1526.4</ele>
        <time>2024-08-09T09:39:28Z</time>
      </trkpt>
      <trkpt lat="45.0792" lon="6.06502">
        <ele>1526.4</ele>
        <time>2024-08-09T09:39:29Z</time>
      </trkpt>
      <trkpt lat="45.0792" lon="6.06502">
        <ele>1526.2</ele>
        <time>2024-08-09T09:39:30Z</time>
      </trkpt>
      <trkpt lat="45.0792" lon="6.06502">
        <ele>1526</ele>
        <time>2024-08-09T09:39:31Z</time>
      </trkpt>
      <trkpt lat="45.0792" lon="6.06502">
        <ele>1526</ele>
        <time>2024-08-09T09:39:32Z</time>
      </trkpt>
      <trkpt lat="45.0792" lon="6.06502">
        <ele>1526</ele>
        <time>2024-08-09T09:39:33Z</time>
      </trkpt>
      <trkpt lat="45.0792" lon="6.06502">
        <ele>1525.4</ele>
        <time>2024-08-09T09:39:34Z</time>
      </trkpt>
      <trkpt lat="45.07921" lon="6.06504">
        <ele>1525</ele>
        <time>2024-08-09T09:39:35Z</time>
      </trkpt>
      <trkpt lat="45.07921" lon="6.06504">
        <ele>1524.8</ele>
        <time>2024-08-09T09:39:36Z</time>
      </trkpt>
      <trkpt lat="45.07921" lon="6.06504">
        <ele>1524.2</ele>
        <time>2024-08-09T09:39:37Z</time>
      </trkpt>
      <trkpt lat="45.07923" lon="6.06507">
        <ele>1524</ele>
        <time>2024-08-09T09:39:38Z</time>
      </trkpt>
      <trkpt lat="45.07923" lon="6.06507">
        <ele>1524</ele>
        <time>2024-08-09T09:39:39Z</time>
      </trkpt>
      <trkpt lat="45.07923" lon="6.06507">
        <ele>1523.8</ele>
        <time>2024-08-09T09:39:40Z</time>
      </trkpt>
      <trkpt lat="45.07924" lon="6.06509">
        <ele>1523.6</ele>
        <time>2024-08-09T09:39:41Z</time>
      </trkpt>
      <trkpt lat="45.07924" lon="6.06509">
        <ele>1523.6</ele>
        <time>2024-08-09T09:39:42Z</time>
      </trkpt>
      <trkpt lat="45.07925" lon="6.06511">
        <ele>1523.2</ele>
        <time>2024-08-09T09:39:43Z</time>
      </trkpt>
      <trkpt lat="45.07925" lon="6.06511">
        <ele>1522.8</ele>
        <time>2024-08-09T09:39:44Z</time>
      </trkpt>
      <trkpt lat="45.07925" lon="6.06511">
        <ele>1522.6</ele>
        <time>2024-08-09T09:39:45Z</time>
      </trkpt>
      <trkpt lat="45.07925" lon="6.06511">
        <ele>1522</ele>
        <time>2024-08-09T09:39:46Z</time>
      </trkpt>
      <trkpt lat="45.07928" lon="6.06512">
        <ele>1521.8</ele>
        <time>2024-08-09T09:39:47Z</time>
      </trkpt>
      <trkpt lat="45.07928" lon="6.06512">
        <ele>1521.4</ele>
        <time>2024-08-09T09:39:48Z</time>
      </trkpt>
      <trkpt lat="45.07928" lon="6.06512">
        <ele>1521.4</ele>
        <time>2024-08-09T09:39:49Z</time>
      </trkpt>
      <trkpt lat="45.0793" lon="6.06509">
        <ele>1521.2</ele>
        <time>2024-08-09T09:39:50Z</time>
      </trkpt>
      <trkpt lat="45.0793" lon="6.06509">
        <ele>1521</ele>
        <time>2024-08-09T09:39:51Z</time>
      </trkpt>
      <trkpt lat="45.0793" lon="6.06509">
        <ele>1520.4</ele>
        <time>2024-08-09T09:39:52Z</time>
      </trkpt>
      <trkpt lat="45.0793" lon="6.06509">
        <ele>1520</ele>
        <time>2024-08-09T09:39:53Z</time>
      </trkpt>
      <trkpt lat="45.0793" lon="6.06509">
        <ele>1519.6</ele>
        <time>2024-08-09T09:39:54Z</time>
      </trkpt>
      <trkpt lat="45.0793" lon="6.06512">
        <ele>1519.6</ele>
        <time>2024-08-09T09:39:55Z</time>
      </trkpt>
      <trkpt lat="45.0793" lon="6.06512">
        <ele>1519.6</ele>
        <time>2024-08-09T09:39:56Z</time>
      </trkpt>
      <trkpt lat="45.0793" lon="6.06512">
        <ele>1519</ele>
        <time>2024-08-09T09:39:57Z</time>
      </trkpt>
      <trkpt lat="45.0793" lon="6.06515">
        <ele>1518.6</ele>
        <time>2024-08-09T09:39:58Z</time>
      </trkpt>
      <trkpt lat="45.0793" lon="6.06515">
        <ele>1518.6</ele>
        <time>2024-08-09T09:39:59Z</time>
      </trkpt>
      <trkpt lat="45.07931" lon="6.06518">
        <ele>1518.6</ele>
        <time>2024-08-09T09:40:01Z</time>
      </trkpt>
      <trkpt lat="45.07931" lon="6.06518">
        <ele>1517.8</ele>
        <time>2024-08-09T09:40:02Z</time>
      </trkpt>
      <trkpt lat="45.07932" lon="6.0652">
        <ele>1517.8</ele>
        <time>2024-08-09T09:40:03Z</time>
      </trkpt>
      <trkpt lat="45.07932" lon="6.0652">
        <ele>1517.4</ele>
        <time>2024-08-09T09:40:04Z</time>
      </trkpt>
      <trkpt lat="45.07933" lon="6.06523">
        <ele>1517.2</ele>
        <time>2024-08-09T09:40:05Z</time>
      </trkpt>
      <trkpt lat="45.07933" lon="6.06523">
        <ele>1516.6</ele>
        <time>2024-08-09T09:40:06Z</time>
      </trkpt>
      <trkpt lat="45.07935" lon="6.06525">
        <ele>1516.4</ele>
        <time>2024-08-09T09:40:07Z</time>
      </trkpt>
      <trkpt lat="45.07935" lon="6.06525">
        <ele>1516.2</ele>
        <time>2024-08-09T09:40:08Z</time>
      </trkpt>
      <trkpt lat="45.07936" lon="6.06528">
        <ele>1515.8</ele>
        <time>2024-08-09T09:40:09Z</time>
      </trkpt>
      <trkpt lat="45.07936" lon="6.06528">
        <ele>1515.4</ele>
        <time>2024-08-09T09:40:10Z</time>
      </trkpt>
      <trkpt lat="45.07938" lon="6.06531">
        <ele>1515.2</ele>
        <time>2024-08-09T09:40:11Z</time>
      </trkpt>
      <trkpt lat="45.07938" lon="6.06531">
        <ele>1515</ele>
        <time>2024-08-09T09:40:12Z</time>
      </trkpt>
      <trkpt lat="45.0794" lon="6.06534">
        <ele>1514.8</ele>
        <time>2024-08-09T09:40:13Z</time>
      </trkpt>
      <trkpt lat="45.0794" lon="6.06534">
        <ele>1514.8</ele>
        <time>2024-08-09T09:40:14Z</time>
      </trkpt>
      <trkpt lat="45.07942" lon="6.06536">
        <ele>1514.8</ele>
        <time>2024-08-09T09:40:15Z</time>
      </trkpt>
      <trkpt lat="45.07943" lon="6.06538">
        <ele>1514.6</ele>
        <time>2024-08-09T09:40:16Z</time>
      </trkpt>
      <trkpt lat="45.07945" lon="6.0654">
        <ele>1514.6</ele>
        <time>2024-08-09T09:40:17Z</time>
      </trkpt>
      <trkpt lat="45.07945" lon="6.0654">
        <ele>1514.4</ele>
        <time>2024-08-09T09:40:18Z</time>
      </trkpt>
      <trkpt lat="45.07946" lon="6.06544">
        <ele>1513.8</ele>
        <time>2024-08-09T09:40:19Z</time>
      </trkpt>
      <trkpt lat="45.07947" lon="6.06546">
        <ele>1513.8</ele>
        <time>2024-08-09T09:40:20Z</time>
      </trkpt>
      <trkpt lat="45.07947" lon="6.06546">
        <ele>1513.6</ele>
        <time>2024-08-09T09:40:21Z</time>
      </trkpt>
      <trkpt lat="45.07948" lon="6.0655">
        <ele>1513.2</ele>
        <time>2024-08-09T09:40:22Z</time>
      </trkpt>
      <trkpt lat="45.07948" lon="6.0655">
        <ele>1513.2</ele>
        <time>2024-08-09T09:40:23Z</time>
      </trkpt>
      <trkpt lat="45.07949" lon="6.06554">
        <ele>1513.2</ele>
        <time>2024-08-09T09:40:24Z</time>
      </trkpt>
      <trkpt lat="45.07949" lon="6.06554">
        <ele>1513</ele>
        <time>2024-08-09T09:40:25Z</time>
      </trkpt>
      <trkpt lat="45.0795" lon="6.06557">
        <ele>1513</ele>
        <time>2024-08-09T09:40:26Z</time>
      </trkpt>
      <trkpt lat="45.0795" lon="6.06557">
        <ele>1513</ele>
        <time>2024-08-09T09:40:27Z</time>
      </trkpt>
      <trkpt lat="45.07951" lon="6.06559">
        <ele>1513.4</ele>
        <time>2024-08-09T09:40:28Z</time>
      </trkpt>
      <trkpt lat="45.07951" lon="6.06559">
        <ele>1513.4</ele>
        <time>2024-08-09T09:40:29Z</time>
      </trkpt>
      <trkpt lat="45.07952" lon="6.06561">
        <ele>1513.4</ele>
        <time>2024-08-09T09:40:30Z</time>
      </trkpt>
      <trkpt lat="45.07952" lon="6.06561">
        <ele>1513.4</ele>
        <time>2024-08-09T09:40:31Z</time>
      </trkpt>
      <trkpt lat="45.07953" lon="6.06564">
        <ele>1513.8</ele>
        <time>2024-08-09T09:40:32Z</time>
      </trkpt>
      <trkpt lat="45.07954" lon="6.06568">
        <ele>1514</ele>
        <time>2024-08-09T09:40:34Z</time>
      </trkpt>
      <trkpt lat="45.07954" lon="6.06568">
        <ele>1514</ele>
        <time>2024-08-09T09:40:35Z</time>
      </trkpt>
      <trkpt lat="45.07954" lon="6.0657">
        <ele>1514</ele>
        <time>2024-08-09T09:40:36Z</time>
      </trkpt>
      <trkpt lat="45.07954" lon="6.0657">
        <ele>1514.2</ele>
        <time>2024-08-09T09:40:37Z</time>
      </trkpt>
      <trkpt lat="45.07954" lon="6.06573">
        <ele>1514.2</ele>
        <time>2024-08-09T09:40:38Z</time>
      </trkpt>
      <trkpt lat="45.07954" lon="6.06573">
        <ele>1514.2</ele>
        <time>2024-08-09T09:40:39Z</time>
      </trkpt>
      <trkpt lat="45.07954" lon="6.06573">
        <ele>1514.6</ele>
        <time>2024-08-09T09:40:40Z</time>
      </trkpt>
      <trkpt lat="45.07955" lon="6.06577">
        <ele>1514.8</ele>
        <time>2024-08-09T09:40:41Z</time>
      </trkpt>
      <trkpt lat="45.07955" lon="6.06577">
        <ele>1515</ele>
        <time>2024-08-09T09:40:42Z</time>
      </trkpt>
      <trkpt lat="45.07955" lon="6.06577">
        <ele>1515.4</ele>
        <time>2024-08-09T09:40:43Z</time>
      </trkpt>
      <trkpt lat="45.07954" lon="6.0658">
        <ele>1515.8</ele>
        <time>2024-08-09T09:40:44Z</time>
      </trkpt>
      <trkpt lat="45.07954" lon="6.0658">
        <ele>1516</ele>
        <time>2024-08-09T09:40:45Z</time>
      </trkpt>
      <trkpt lat="45.07954" lon="6.0658">
        <ele>1516.2</ele>
        <time>2024-08-09T09:40:46Z</time>
      </trkpt>
      <trkpt lat="45.07955" lon="6.06583">
        <ele>1516.4</ele>
        <time>2024-08-09T09:40:47Z</time>
      </trkpt>
      <trkpt lat="45.07955" lon="6.06583">
        <ele>1516.4</ele>
        <time>2024-08-09T09:40:48Z</time>
      </trkpt>
      <trkpt lat="45.07955" lon="6.06583">
        <ele>1516.8</ele>
        <time>2024-08-09T09:40:49Z</time>
      </trkpt>
      <trkpt lat="45.07955" lon="6.06586">
        <ele>1516.8</ele>
        <time>2024-08-09T09:40:50Z</time>
      </trkpt>
      <trkpt lat="45.07955" lon="6.06586">
        <ele>1517.2</ele>
        <time>2024-08-09T09:40:51Z</time>
      </trkpt>
      <trkpt lat="45.07955" lon="6.06586">
        <ele>1517.4</ele>
        <time>2024-08-09T09:40:52Z</time>
      </trkpt>
      <trkpt lat="45.07955" lon="6.06589">
        <ele>1517.6</ele>
        <time>2024-08-09T09:40:53Z</time>
      </trkpt>
      <trkpt lat="45.07955" lon="6.06589">
        <ele>1518.2</ele>
        <time>2024-08-09T09:40:54Z</time>
      </trkpt>
      <trkpt lat="45.07955" lon="6.06589">
        <ele>1518.2</ele>
        <time>2024-08-09T09:40:55Z</time>
      </trkpt>
      <trkpt lat="45.07954" lon="6.06592">
        <ele>1518.4</ele>
        <time>2024-08-09T09:40:56Z</time>
      </trkpt>
      <trkpt lat="45.07954" lon="6.06592">
        <ele>1518.6</ele>
        <time>2024-08-09T09:40:57Z</time>
      </trkpt>
      <trkpt lat="45.07954" lon="6.06592">
        <ele>1518.8</ele>
        <time>2024-08-09T09:40:58Z</time>
      </trkpt>
      <trkpt lat="45.07952" lon="6.06593">
        <ele>1519</ele>
        <time>2024-08-09T09:40:59Z</time>
      </trkpt>
      <trkpt lat="45.07952" lon="6.06593">
        <ele>1519.2</ele>
        <time>2024-08-09T09:41:00Z</time>
      </trkpt>
      <trkpt lat="45.07952" lon="6.06593">
        <ele>1519.2</ele>
        <time>2024-08-09T09:41:01Z</time>
      </trkpt>
      <trkpt lat="45.0795" lon="6.06591">
        <ele>1520</ele>
        <time>2024-08-09T09:41:02Z</time>
      </trkpt>
      <trkpt lat="45.0795" lon="6.06591">
        <ele>1520</ele>
        <time>2024-08-09T09:41:03Z</time>
      </trkpt>
      <trkpt lat="45.0795" lon="6.06591">
        <ele>1520</ele>
        <time>2024-08-09T09:41:04Z</time>
      </trkpt>
      <trkpt lat="45.07949" lon="6.06589">
        <ele>1520.2</ele>
        <time>2024-08-09T09:41:05Z</time>
      </trkpt>
      <trkpt lat="45.07949" lon="6.06589">
        <ele>1520.6</ele>
        <time>2024-08-09T09:41:06Z</time>
      </trkpt>
      <trkpt lat="45.07949" lon="6.06589">
        <ele>1520.8</ele>
        <time>2024-08-09T09:41:07Z</time>
      </trkpt>
      <trkpt lat="45.07949" lon="6.06589">
        <ele>1520.8</ele>
        <time>2024-08-09T09:41:08Z</time>
      </trkpt>
      <trkpt lat="45.07946" lon="6.06588">
        <ele>1521.2</ele>
        <time>2024-08-09T09:41:09Z</time>
      </trkpt>
      <trkpt lat="45.07946" lon="6.06588">
        <ele>1521.4</ele>
        <time>2024-08-09T09:41:10Z</time>
      </trkpt>
      <trkpt lat="45.07946" lon="6.06588">
        <ele>1521.4</ele>
        <time>2024-08-09T09:41:11Z</time>
      </trkpt>
      <trkpt lat="45.07946" lon="6.06588">
        <ele>1521.8</ele>
        <time>2024-08-09T09:41:12Z</time>
      </trkpt>
      <trkpt lat="45.07946" lon="6.06588">
        <ele>1522.2</ele>
        <time>2024-08-09T09:41:13Z</time>
      </trkpt>
      <trkpt lat="45.07946" lon="6.06588">
        <ele>1522.2</ele>
        <time>2024-08-09T09:41:14Z</time>
      </trkpt>
      <trkpt lat="45.07946" lon="6.06588">
        <ele>1522.6</ele>
        <time>2024-08-09T09:41:15Z</time>
      </trkpt>
      <trkpt lat="45.07945" lon="6.0659">
        <ele>1522.8</ele>
        <time>2024-08-09T09:41:16Z</time>
      </trkpt>
      <trkpt lat="45.07945" lon="6.0659">
        <ele>1522.8</ele>
        <time>2024-08-09T09:41:17Z</time>
      </trkpt>
      <trkpt lat="45.07945" lon="6.0659">
        <ele>1522.8</ele>
        <time>2024-08-09T09:41:18Z</time>
      </trkpt>
      <trkpt lat="45.07947" lon="6.06591">
        <ele>1522.8</ele>
        <time>2024-08-09T09:41:19Z</time>
      </trkpt>
      <trkpt lat="45.07947" lon="6.06591">
        <ele>1522.6</ele>
        <time>2024-08-09T09:41:20Z</time>
      </trkpt>
      <trkpt lat="45.07948" lon="6.06594">
        <ele>1522.6</ele>
        <time>2024-08-09T09:41:21Z</time>
      </trkpt>
      <trkpt lat="45.07948" lon="6.06594">
        <ele>1522.8</ele>
        <time>2024-08-09T09:41:22Z</time>
      </trkpt>
      <trkpt lat="45.07948" lon="6.06594">
        <ele>1523</ele>
        <time>2024-08-09T09:41:23Z</time>
      </trkpt>
      <trkpt lat="45.07948" lon="6.06594">
        <ele>1523</ele>
        <time>2024-08-09T09:41:24Z</time>
      </trkpt>
      <trkpt lat="45.07948" lon="6.06594">
        <ele>1523.4</ele>
        <time>2024-08-09T09:41:25Z</time>
      </trkpt>
      <trkpt lat="45.07949" lon="6.06596">
        <ele>1523.6</ele>
        <time>2024-08-09T09:41:26Z</time>
      </trkpt>
      <trkpt lat="45.07949" lon="6.06596">
        <ele>1523.8</ele>
        <time>2024-08-09T09:41:27Z</time>
      </trkpt>
      <trkpt lat="45.07949" lon="6.06596">
        <ele>1524</ele>
        <time>2024-08-09T09:41:28Z</time>
      </trkpt>
      <trkpt lat="45.07949" lon="6.06596">
        <ele>1524</ele>
        <time>2024-08-09T09:41:29Z</time>
      </trkpt>
      <trkpt lat="45.07949" lon="6.06596">
        <ele>1524</ele>
        <time>2024-08-09T09:41:30Z</time>
      </trkpt>
      <trkpt lat="45.07949" lon="6.06596">
        <ele>1524</ele>
        <time>2024-08-09T09:41:31Z</time>
      </trkpt>
      <trkpt lat="45.07949" lon="6.06596">
        <ele>1524</ele>
        <time>2024-08-09T09:41:32Z</time>
      </trkpt>
      <trkpt lat="45.07949" lon="6.066">
        <ele>1524</ele>
        <time>2024-08-09T09:41:33Z</time>
      </trkpt>
      <trkpt lat="45.07949" lon="6.066">
        <ele>1524.2</ele>
        <time>2024-08-09T09:41:34Z</time>
      </trkpt>
      <trkpt lat="45.0795" lon="6.06604">
        <ele>1524.4</ele>
        <time>2024-08-09T09:41:35Z</time>
      </trkpt>
      <trkpt lat="45.0795" lon="6.06604">
        <ele>1524.6</ele>
        <time>2024-08-09T09:41:36Z</time>
      </trkpt>
      <trkpt lat="45.07951" lon="6.06607">
        <ele>1524.8</ele>
        <time>2024-08-09T09:41:37Z</time>
      </trkpt>
      <trkpt lat="45.07951" lon="6.06607">
        <ele>1524.8</ele>
        <time>2024-08-09T09:41:38Z</time>
      </trkpt>
      <trkpt lat="45.07954" lon="6.06608">
        <ele>1525</ele>
        <time>2024-08-09T09:41:39Z</time>
      </trkpt>
      <trkpt lat="45.07954" lon="6.06608">
        <ele>1525</ele>
        <time>2024-08-09T09:41:40Z</time>
      </trkpt>
      <trkpt lat="45.07956" lon="6.06609">
        <ele>1525.4</ele>
        <time>2024-08-09T09:41:41Z</time>
      </trkpt>
      <trkpt lat="45.07956" lon="6.06609">
        <ele>1525.6</ele>
        <time>2024-08-09T09:41:42Z</time>
      </trkpt>
      <trkpt lat="45.07958" lon="6.06611">
        <ele>1525.8</ele>
        <time>2024-08-09T09:41:43Z</time>
      </trkpt>
      <trkpt lat="45.07958" lon="6.06611">
        <ele>1526.2</ele>
        <time>2024-08-09T09:41:44Z</time>
      </trkpt>
      <trkpt lat="45.07959" lon="6.06612">
        <ele>1526.2</ele>
        <time>2024-08-09T09:41:45Z</time>
      </trkpt>
      <trkpt lat="45.07959" lon="6.06612">
        <ele>1526.4</ele>
        <time>2024-08-09T09:41:46Z</time>
      </trkpt>
      <trkpt lat="45.07959" lon="6.06612">
        <ele>1526.6</ele>
        <time>2024-08-09T09:41:47Z</time>
      </trkpt>
      <trkpt lat="45.07962" lon="6.06614">
        <ele>1527</ele>
        <time>2024-08-09T09:41:48Z</time>
      </trkpt>
      <trkpt lat="45.07962" lon="6.06614">
        <ele>1527.4</ele>
        <time>2024-08-09T09:41:49Z</time>
      </trkpt>
      <trkpt lat="45.07964" lon="6.06616">
        <ele>1527.4</ele>
        <time>2024-08-09T09:41:50Z</time>
      </trkpt>
      <trkpt lat="45.07964" lon="6.06616">
        <ele>1527.6</ele>
        <time>2024-08-09T09:41:51Z</time>
      </trkpt>
      <trkpt lat="45.07964" lon="6.06616">
        <ele>1528</ele>
        <time>2024-08-09T09:41:52Z</time>
      </trkpt>
      <trkpt lat="45.07965" lon="6.06618">
        <ele>1528.2</ele>
        <time>2024-08-09T09:41:53Z</time>
      </trkpt>
      <trkpt lat="45.07965" lon="6.06618">
        <ele>1528.4</ele>
        <time>2024-08-09T09:41:54Z</time>
      </trkpt>
      <trkpt lat="45.07966" lon="6.06621">
        <ele>1528.4</ele>
        <time>2024-08-09T09:41:55Z</time>
      </trkpt>
      <trkpt lat="45.07966" lon="6.06621">
        <ele>1528.4</ele>
        <time>2024-08-09T09:41:56Z</time>
      </trkpt>
      <trkpt lat="45.07967" lon="6.06624">
        <ele>1528.4</ele>
        <time>2024-08-09T09:41:57Z</time>
      </trkpt>
      <trkpt lat="45.07967" lon="6.06624">
        <ele>1528.4</ele>
        <time>2024-08-09T09:41:58Z</time>
      </trkpt>
      <trkpt lat="45.07967" lon="6.06624">
        <ele>1529</ele>
        <time>2024-08-09T09:41:59Z</time>
      </trkpt>
      <trkpt lat="45.07968" lon="6.06627">
        <ele>1529</ele>
        <time>2024-08-09T09:42:00Z</time>
      </trkpt>
      <trkpt lat="45.07968" lon="6.06627">
        <ele>1529.2</ele>
        <time>2024-08-09T09:42:01Z</time>
      </trkpt>
      <trkpt lat="45.07968" lon="6.06627">
        <ele>1529.4</ele>
        <time>2024-08-09T09:42:02Z</time>
      </trkpt>
      <trkpt lat="45.0797" lon="6.06629">
        <ele>1529.4</ele>
        <time>2024-08-09T09:42:03Z</time>
      </trkpt>
      <trkpt lat="45.0797" lon="6.06629">
        <ele>1529.2</ele>
        <time>2024-08-09T09:42:04Z</time>
      </trkpt>
      <trkpt lat="45.07971" lon="6.06632">
        <ele>1529</ele>
        <time>2024-08-09T09:42:05Z</time>
      </trkpt>
      <trkpt lat="45.07971" lon="6.06632">
        <ele>1529</ele>
        <time>2024-08-09T09:42:06Z</time>
      </trkpt>
      <trkpt lat="45.07973" lon="6.06635">
        <ele>1529</ele>
        <time>2024-08-09T09:42:07Z</time>
      </trkpt>
      <trkpt lat="45.07973" lon="6.06635">
        <ele>1528.8</ele>
        <time>2024-08-09T09:42:08Z</time>
      </trkpt>
      <trkpt lat="45.07973" lon="6.06638">
        <ele>1528.6</ele>
        <time>2024-08-09T09:42:09Z</time>
      </trkpt>
      <trkpt lat="45.07973" lon="6.06638">
        <ele>1528.2</ele>
        <time>2024-08-09T09:42:10Z</time>
      </trkpt>
      <trkpt lat="45.07973" lon="6.06638">
        <ele>1528.2</ele>
        <time>2024-08-09T09:42:11Z</time>
      </trkpt>
      <trkpt lat="45.07973" lon="6.06641">
        <ele>1528</ele>
        <time>2024-08-09T09:42:12Z</time>
      </trkpt>
      <trkpt lat="45.07973" lon="6.06641">
        <ele>1528</ele>
        <time>2024-08-09T09:42:13Z</time>
      </trkpt>
      <trkpt lat="45.07973" lon="6.06641">
        <ele>1527.8</ele>
        <time>2024-08-09T09:42:14Z</time>
      </trkpt>
      <trkpt lat="45.07973" lon="6.06643">
        <ele>1527.6</ele>
        <time>2024-08-09T09:42:15Z</time>
      </trkpt>
      <trkpt lat="45.07973" lon="6.06643">
        <ele>1527</ele>
        <time>2024-08-09T09:42:16Z</time>
      </trkpt>
      <trkpt lat="45.07973" lon="6.06646">
        <ele>1526.6</ele>
        <time>2024-08-09T09:42:17Z</time>
      </trkpt>
      <trkpt lat="45.07973" lon="6.06646">
        <ele>1526.4</ele>
        <time>2024-08-09T09:42:18Z</time>
      </trkpt>
      <trkpt lat="45.07973" lon="6.06646">
        <ele>1526.2</ele>
        <time>2024-08-09T09:42:19Z</time>
      </trkpt>
      <trkpt lat="45.07973" lon="6.06649">
        <ele>1526</ele>
        <time>2024-08-09T09:42:20Z</time>
      </trkpt>
      <trkpt lat="45.07973" lon="6.06649">
        <ele>1525.8</ele>
        <time>2024-08-09T09:42:21Z</time>
      </trkpt>
      <trkpt lat="45.07973" lon="6.06649">
        <ele>1525.4</ele>
        <time>2024-08-09T09:42:22Z</time>
      </trkpt>
      <trkpt lat="45.07975" lon="6.06649">
        <ele>1525</ele>
        <time>2024-08-09T09:42:23Z</time>
      </trkpt>
      <trkpt lat="45.07975" lon="6.06649">
        <ele>1524.8</ele>
        <time>2024-08-09T09:42:24Z</time>
      </trkpt>
      <trkpt lat="45.07975" lon="6.06649">
        <ele>1524.4</ele>
        <time>2024-08-09T09:42:25Z</time>
      </trkpt>
      <trkpt lat="45.07975" lon="6.06645">
        <ele>1524.2</ele>
        <time>2024-08-09T09:42:26Z</time>
      </trkpt>
      <trkpt lat="45.07975" lon="6.06645">
        <ele>1524.2</ele>
        <time>2024-08-09T09:42:27Z</time>
      </trkpt>
      <trkpt lat="45.07975" lon="6.06645">
        <ele>1523.8</ele>
        <time>2024-08-09T09:42:28Z</time>
      </trkpt>
      <trkpt lat="45.07976" lon="6.06642">
        <ele>1523.4</ele>
        <time>2024-08-09T09:42:29Z</time>
      </trkpt>
      <trkpt lat="45.07976" lon="6.06642">
        <ele>1523</ele>
        <time>2024-08-09T09:42:30Z</time>
      </trkpt>
      <trkpt lat="45.07976" lon="6.06642">
        <ele>1523</ele>
        <time>2024-08-09T09:42:31Z</time>
      </trkpt>
      <trkpt lat="45.07976" lon="6.06642">
        <ele>1522.8</ele>
        <time>2024-08-09T09:42:32Z</time>
      </trkpt>
      <trkpt lat="45.07978" lon="6.06643">
        <ele>1522.8</ele>
        <time>2024-08-09T09:42:33Z</time>
      </trkpt>
      <trkpt lat="45.07978" lon="6.06643">
        <ele>1522.4</ele>
        <time>2024-08-09T09:42:34Z</time>
      </trkpt>
      <trkpt lat="45.07979" lon="6.06646">
        <ele>1522.2</ele>
        <time>2024-08-09T09:42:35Z</time>
      </trkpt>
      <trkpt lat="45.07979" lon="6.06646">
        <ele>1521.8</ele>
        <time>2024-08-09T09:42:36Z</time>
      </trkpt>
      <trkpt lat="45.07979" lon="6.06646">
        <ele>1521.6</ele>
        <time>2024-08-09T09:42:37Z</time>
      </trkpt>
      <trkpt lat="45.07979" lon="6.06649">
        <ele>1521.4</ele>
        <time>2024-08-09T09:42:38Z</time>
      </trkpt>
      <trkpt lat="45.07979" lon="6.06649">
        <ele>1521</ele>
        <time>2024-08-09T09:42:39Z</time>
      </trkpt>
      <trkpt lat="45.07981" lon="6.06652">
        <ele>1520.6</ele>
        <time>2024-08-09T09:42:40Z</time>
      </trkpt>
      <trkpt lat="45.07981" lon="6.06652">
        <ele>1520</ele>
        <time>2024-08-09T09:42:41Z</time>
      </trkpt>
      <trkpt lat="45.07981" lon="6.06655">
        <ele>1519.8</ele>
        <time>2024-08-09T09:42:42Z</time>
      </trkpt>
      <trkpt lat="45.07981" lon="6.06655">
        <ele>1519.6</ele>
        <time>2024-08-09T09:42:43Z</time>
      </trkpt>
      <trkpt lat="45.07981" lon="6.06658">
        <ele>1519.4</ele>
        <time>2024-08-09T09:42:44Z</time>
      </trkpt>
      <trkpt lat="45.07981" lon="6.06658">
        <ele>1519.2</ele>
        <time>2024-08-09T09:42:45Z</time>
      </trkpt>
      <trkpt lat="45.07981" lon="6.06658">
        <ele>1519.2</ele>
        <time>2024-08-09T09:42:46Z</time>
      </trkpt>
      <trkpt lat="45.07981" lon="6.06661">
        <ele>1519</ele>
        <time>2024-08-09T09:42:47Z</time>
      </trkpt>
      <trkpt lat="45.07981" lon="6.06661">
        <ele>1518.6</ele>
        <time>2024-08-09T09:42:48Z</time>
      </trkpt>
      <trkpt lat="45.07981" lon="6.06661">
        <ele>1518.2</ele>
        <time>2024-08-09T09:42:49Z</time>
      </trkpt>
      <trkpt lat="45.07982" lon="6.06663">
        <ele>1518</ele>
        <time>2024-08-09T09:42:50Z</time>
      </trkpt>
      <trkpt lat="45.07982" lon="6.06663">
        <ele>1517.6</ele>
        <time>2024-08-09T09:42:51Z</time>
      </trkpt>
      <trkpt lat="45.07982" lon="6.06663">
        <ele>1517.6</ele>
        <time>2024-08-09T09:42:52Z</time>
      </trkpt>
      <trkpt lat="45.07982" lon="6.06663">
        <ele>1517</ele>
        <time>2024-08-09T09:42:53Z</time>
      </trkpt>
      <trkpt lat="45.07982" lon="6.06663">
        <ele>1516.6</ele>
        <time>2024-08-09T09:42:54Z</time>
      </trkpt>
      <trkpt lat="45.07985" lon="6.06663">
        <ele>1516.2</ele>
        <time>2024-08-09T09:42:55Z</time>
      </trkpt>
      <trkpt lat="45.07985" lon="6.06663">
        <ele>1515.8</ele>
        <time>2024-08-09T09:42:56Z</time>
      </trkpt>
      <trkpt lat="45.07985" lon="6.06663">
        <ele>1515.4</ele>
        <time>2024-08-09T09:42:57Z</time>
      </trkpt>
      <trkpt lat="45.07987" lon="6.0666">
        <ele>1515.4</ele>
        <time>2024-08-09T09:42:58Z</time>
      </trkpt>
      <trkpt lat="45.07987" lon="6.0666">
        <ele>1515.4</ele>
        <time>2024-08-09T09:42:59Z</time>
      </trkpt>
      <trkpt lat="45.07987" lon="6.0666">
        <ele>1515</ele>
        <time>2024-08-09T09:43:00Z</time>
      </trkpt>
      <trkpt lat="45.07989" lon="6.06662">
        <ele>1514.6</ele>
        <time>2024-08-09T09:43:01Z</time>
      </trkpt>
      <trkpt lat="45.07989" lon="6.06662">
        <ele>1514.6</ele>
        <time>2024-08-09T09:43:02Z</time>
      </trkpt>
      <trkpt lat="45.07989" lon="6.06665">
        <ele>1514.6</ele>
        <time>2024-08-09T09:43:03Z</time>
      </trkpt>
      <trkpt lat="45.07989" lon="6.06665">
        <ele>1514.4</ele>
        <time>2024-08-09T09:43:04Z</time>
      </trkpt>
      <trkpt lat="45.07989" lon="6.06665">
        <ele>1514.2</ele>
        <time>2024-08-09T09:43:05Z</time>
      </trkpt>
      <trkpt lat="45.07989" lon="6.06668">
        <ele>1513.8</ele>
        <time>2024-08-09T09:43:06Z</time>
      </trkpt>
      <trkpt lat="45.07989" lon="6.06668">
        <ele>1513.6</ele>
        <time>2024-08-09T09:43:07Z</time>
      </trkpt>
      <trkpt lat="45.0799" lon="6.0667">
        <ele>1513.4</ele>
        <time>2024-08-09T09:43:08Z</time>
      </trkpt>
      <trkpt lat="45.0799" lon="6.0667">
        <ele>1513</ele>
        <time>2024-08-09T09:43:09Z</time>
      </trkpt>
      <trkpt lat="45.0799" lon="6.06673">
        <ele>1512.8</ele>
        <time>2024-08-09T09:43:10Z</time>
      </trkpt>
      <trkpt lat="45.0799" lon="6.06673">
        <ele>1512.4</ele>
        <time>2024-08-09T09:43:11Z</time>
      </trkpt>
      <trkpt lat="45.0799" lon="6.06673">
        <ele>1512</ele>
        <time>2024-08-09T09:43:12Z</time>
      </trkpt>
      <trkpt lat="45.07991" lon="6.06677">
        <ele>1511.8</ele>
        <time>2024-08-09T09:43:13Z</time>
      </trkpt>
      <trkpt lat="45.07991" lon="6.06677">
        <ele>1511.6</ele>
        <time>2024-08-09T09:43:14Z</time>
      </trkpt>
      <trkpt lat="45.07992" lon="6.06679">
        <ele>1511</ele>
        <time>2024-08-09T09:43:15Z</time>
      </trkpt>
      <trkpt lat="45.07992" lon="6.06679">
        <ele>1510.6</ele>
        <time>2024-08-09T09:43:16Z</time>
      </trkpt>
      <trkpt lat="45.07992" lon="6.06682">
        <ele>1510.4</ele>
        <time>2024-08-09T09:43:17Z</time>
      </trkpt>
      <trkpt lat="45.07992" lon="6.06682">
        <ele>1510.2</ele>
        <time>2024-08-09T09:43:18Z</time>
      </trkpt>
      <trkpt lat="45.07993" lon="6.06685">
        <ele>1510</ele>
        <time>2024-08-09T09:43:19Z</time>
      </trkpt>
      <trkpt lat="45.07993" lon="6.06685">
        <ele>1509.4</ele>
        <time>2024-08-09T09:43:20Z</time>
      </trkpt>
      <trkpt lat="45.07993" lon="6.06685">
        <ele>1509.2</ele>
        <time>2024-08-09T09:43:21Z</time>
      </trkpt>
      <trkpt lat="45.07995" lon="6.06687">
        <ele>1508.8</ele>
        <time>2024-08-09T09:43:22Z</time>
      </trkpt>
      <trkpt lat="45.07995" lon="6.06687">
        <ele>1508.4</ele>
        <time>2024-08-09T09:43:23Z</time>
      </trkpt>
      <trkpt lat="45.07995" lon="6.06687">
        <ele>1508.4</ele>
        <time>2024-08-09T09:43:24Z</time>
      </trkpt>
      <trkpt lat="45.07995" lon="6.06687">
        <ele>1508</ele>
        <time>2024-08-09T09:43:25Z</time>
      </trkpt>
      <trkpt lat="45.07995" lon="6.06687">
        <ele>1508</ele>
        <time>2024-08-09T09:43:26Z</time>
      </trkpt>
      <trkpt lat="45.07996" lon="6.06684">
        <ele>1507.8</ele>
        <time>2024-08-09T09:43:27Z</time>
      </trkpt>
      <trkpt lat="45.07996" lon="6.06684">
        <ele>1507.2</ele>
        <time>2024-08-09T09:43:28Z</time>
      </trkpt>
      <trkpt lat="45.07996" lon="6.06684">
        <ele>1507.2</ele>
        <time>2024-08-09T09:43:29Z</time>
      </trkpt>
      <trkpt lat="45.07996" lon="6.06684">
        <ele>1507</ele>
        <time>2024-08-09T09:43:30Z</time>
      </trkpt>
      <trkpt lat="45.07996" lon="6.06684">
        <ele>1506.6</ele>
        <time>2024-08-09T09:43:31Z</time>
      </trkpt>
      <trkpt lat="45.07996" lon="6.06684">
        <ele>1506.2</ele>
        <time>2024-08-09T09:43:32Z</time>
      </trkpt>
      <trkpt lat="45.07996" lon="6.06684">
        <ele>1506</ele>
        <time>2024-08-09T09:43:33Z</time>
      </trkpt>
      <trkpt lat="45.07996" lon="6.06684">
        <ele>1506</ele>
        <time>2024-08-09T09:43:34Z</time>
      </trkpt>
      <trkpt lat="45.07996" lon="6.06684">
        <ele>1506</ele>
        <time>2024-08-09T09:43:35Z</time>
      </trkpt>
      <trkpt lat="45.07996" lon="6.06684">
        <ele>1505.8</ele>
        <time>2024-08-09T09:43:36Z</time>
      </trkpt>
      <trkpt lat="45.07996" lon="6.06684">
        <ele>1505.8</ele>
        <time>2024-08-09T09:43:37Z</time>
      </trkpt>
      <trkpt lat="45.07996" lon="6.06684">
        <ele>1505.8</ele>
        <time>2024-08-09T09:43:38Z</time>
      </trkpt>
      <trkpt lat="45.07996" lon="6.06684">
        <ele>1505.4</ele>
        <time>2024-08-09T09:43:39Z</time>
      </trkpt>
      <trkpt lat="45.07997" lon="6.06682">
        <ele>1505.4</ele>
        <time>2024-08-09T09:43:40Z</time>
      </trkpt>
      <trkpt lat="45.07997" lon="6.06682">
        <ele>1505</ele>
        <time>2024-08-09T09:43:41Z</time>
      </trkpt>
      <trkpt lat="45.07999" lon="6.06679">
        <ele>1504.6</ele>
        <time>2024-08-09T09:43:42Z</time>
      </trkpt>
      <trkpt lat="45.07999" lon="6.06679">
        <ele>1504.4</ele>
        <time>2024-08-09T09:43:43Z</time>
      </trkpt>
      <trkpt lat="45.08" lon="6.06677">
        <ele>1504.4</ele>
        <time>2024-08-09T09:43:44Z</time>
      </trkpt>
      <trkpt lat="45.08" lon="6.06677">
        <ele>1504</ele>
        <time>2024-08-09T09:43:45Z</time>
      </trkpt>
      <trkpt lat="45.08" lon="6.06677">
        <ele>1503.4</ele>
        <time>2024-08-09T09:43:46Z</time>
      </trkpt>
      <trkpt lat="45.08002" lon="6.06679">
        <ele>1503</ele>
        <time>2024-08-09T09:43:47Z</time>
      </trkpt>
      <trkpt lat="45.08002" lon="6.06679">
        <ele>1503.2</ele>
        <time>2024-08-09T09:43:48Z</time>
      </trkpt>
      <trkpt lat="45.08002" lon="6.06679">
        <ele>1503</ele>
        <time>2024-08-09T09:43:49Z</time>
      </trkpt>
      <trkpt lat="45.08002" lon="6.06679">
        <ele>1503</ele>
        <time>2024-08-09T09:43:50Z</time>
      </trkpt>
      <trkpt lat="45.08002" lon="6.06679">
        <ele>1502.8</ele>
        <time>2024-08-09T09:43:51Z</time>
      </trkpt>
      <trkpt lat="45.08004" lon="6.06678">
        <ele>1502.6</ele>
        <time>2024-08-09T09:43:52Z</time>
      </trkpt>
      <trkpt lat="45.08004" lon="6.06678">
        <ele>1502.2</ele>
        <time>2024-08-09T09:43:53Z</time>
      </trkpt>
      <trkpt lat="45.08004" lon="6.06675">
        <ele>1501.8</ele>
        <time>2024-08-09T09:43:54Z</time>
      </trkpt>
      <trkpt lat="45.08004" lon="6.06675">
        <ele>1501.6</ele>
        <time>2024-08-09T09:43:55Z</time>
      </trkpt>
      <trkpt lat="45.08003" lon="6.06671">
        <ele>1501.4</ele>
        <time>2024-08-09T09:43:56Z</time>
      </trkpt>
      <trkpt lat="45.08003" lon="6.06671">
        <ele>1501.4</ele>
        <time>2024-08-09T09:43:57Z</time>
      </trkpt>
      <trkpt lat="45.08003" lon="6.06668">
        <ele>1501.2</ele>
        <time>2024-08-09T09:43:58Z</time>
      </trkpt>
      <trkpt lat="45.08003" lon="6.06668">
        <ele>1501</ele>
        <time>2024-08-09T09:43:59Z</time>
      </trkpt>
      <trkpt lat="45.08003" lon="6.06668">
        <ele>1500.6</ele>
        <time>2024-08-09T09:44:00Z</time>
      </trkpt>
      <trkpt lat="45.08003" lon="6.06668">
        <ele>1500.6</ele>
        <time>2024-08-09T09:44:01Z</time>
      </trkpt>
      <trkpt lat="45.08003" lon="6.06668">
        <ele>1500.4</ele>
        <time>2024-08-09T09:44:02Z</time>
      </trkpt>
      <trkpt lat="45.08003" lon="6.06668">
        <ele>1500.4</ele>
        <time>2024-08-09T09:44:03Z</time>
      </trkpt>
      <trkpt lat="45.08003" lon="6.06668">
        <ele>1500.4</ele>
        <time>2024-08-09T09:44:04Z</time>
      </trkpt>
      <trkpt lat="45.08003" lon="6.06668">
        <ele>1500.4</ele>
        <time>2024-08-09T09:44:05Z</time>
      </trkpt>
      <trkpt lat="45.08003" lon="6.06668">
        <ele>1500.4</ele>
        <time>2024-08-09T09:44:06Z</time>
      </trkpt>
      <trkpt lat="45.08003" lon="6.06668">
        <ele>1500.4</ele>
        <time>2024-08-09T09:44:07Z</time>
      </trkpt>
      <trkpt lat="45.08003" lon="6.06668">
        <ele>1500.4</ele>
        <time>2024-08-09T09:44:08Z</time>
      </trkpt>
      <trkpt lat="45.08003" lon="6.06668">
        <ele>1500.4</ele>
        <time>2024-08-09T09:44:09Z</time>
      </trkpt>
      <trkpt lat="45.08003" lon="6.06668">
        <ele>1500.4</ele>
        <time>2024-08-09T09:44:10Z</time>
      </trkpt>
      <trkpt lat="45.08003" lon="6.06668">
        <ele>1500.4</ele>
        <time>2024-08-09T09:44:11Z</time>
      </trkpt>
      <trkpt lat="45.08003" lon="6.06668">
        <ele>1500.4</ele>
        <time>2024-08-09T09:44:12Z</time>
      </trkpt>
      <trkpt lat="45.08003" lon="6.06668">
        <ele>1500.6</ele>
        <time>2024-08-09T09:44:13Z</time>
      </trkpt>
      <trkpt lat="45.08003" lon="6.06668">
        <ele>1500.6</ele>
        <time>2024-08-09T09:44:14Z</time>
      </trkpt>
      <trkpt lat="45.08003" lon="6.06668">
        <ele>1500.4</ele>
        <time>2024-08-09T09:44:15Z</time>
      </trkpt>
      <trkpt lat="45.08003" lon="6.06668">
        <ele>1500.2</ele>
        <time>2024-08-09T09:44:16Z</time>
      </trkpt>
      <trkpt lat="45.08003" lon="6.06668">
        <ele>1500.2</ele>
        <time>2024-08-09T09:44:17Z</time>
      </trkpt>
      <trkpt lat="45.08003" lon="6.06668">
        <ele>1500.2</ele>
        <time>2024-08-09T09:44:18Z</time>
      </trkpt>
      <trkpt lat="45.08003" lon="6.06668">
        <ele>1500.2</ele>
        <time>2024-08-09T09:44:19Z</time>
      </trkpt>
      <trkpt lat="45.08003" lon="6.06668">
        <ele>1500.4</ele>
        <time>2024-08-09T09:44:20Z</time>
      </trkpt>
      <trkpt lat="45.08003" lon="6.06668">
        <ele>1500.4</ele>
        <time>2024-08-09T09:44:21Z</time>
      </trkpt>
      <trkpt lat="45.08003" lon="6.06668">
        <ele>1500.4</ele>
        <time>2024-08-09T09:44:22Z</time>
      </trkpt>
      <trkpt lat="45.08003" lon="6.06668">
        <ele>1500.2</ele>
        <time>2024-08-09T09:44:23Z</time>
      </trkpt>
      <trkpt lat="45.08003" lon="6.06668">
        <ele>1500.2</ele>
        <time>2024-08-09T09:44:24Z</time>
      </trkpt>
      <trkpt lat="45.08003" lon="6.06668">
        <ele>1500.4</ele>
        <time>2024-08-09T09:44:25Z</time>
      </trkpt>
      <trkpt lat="45.08003" lon="6.06668">
        <ele>1500.4</ele>
        <time>2024-08-09T09:44:26Z</time>
      </trkpt>
      <trkpt lat="45.08003" lon="6.06668">
        <ele>1500.4</ele>
        <time>2024-08-09T09:44:27Z</time>
      </trkpt>
      <trkpt lat="45.08003" lon="6.06668">
        <ele>1500.4</ele>
        <time>2024-08-09T09:44:28Z</time>
      </trkpt>
      <trkpt lat="45.08003" lon="6.06668">
        <ele>1500.2</ele>
        <time>2024-08-09T09:44:29Z</time>
      </trkpt>
      <trkpt lat="45.08003" lon="6.06668">
        <ele>1500.2</ele>
        <time>2024-08-09T09:44:30Z</time>
      </trkpt>
      <trkpt lat="45.08003" lon="6.06668">
        <ele>1500.2</ele>
        <time>2024-08-09T09:44:31Z</time>
      </trkpt>
      <trkpt lat="45.08003" lon="6.06668">
        <ele>1500.2</ele>
        <time>2024-08-09T09:44:32Z</time>
      </trkpt>
      <trkpt lat="45.08003" lon="6.06668">
        <ele>1500.2</ele>
        <time>2024-08-09T09:44:33Z</time>
      </trkpt>
      <trkpt lat="45.08003" lon="6.06668">
        <ele>1500.4</ele>
        <time>2024-08-09T09:44:34Z</time>
      </trkpt>
      <trkpt lat="45.08003" lon="6.06668">
        <ele>1500.4</ele>
        <time>2024-08-09T09:44:35Z</time>
      </trkpt>
      <trkpt lat="45.08003" lon="6.06668">
        <ele>1500.4</ele>
        <time>2024-08-09T09:44:36Z</time>
      </trkpt>
      <trkpt lat="45.08003" lon="6.06668">
        <ele>1500.4</ele>
        <time>2024-08-09T09:44:37Z</time>
      </trkpt>
      <trkpt lat="45.08003" lon="6.06668">
        <ele>1500.2</ele>
        <time>2024-08-09T09:44:38Z</time>
      </trkpt>
      <trkpt lat="45.08003" lon="6.06668">
        <ele>1500.2</ele>
        <time>2024-08-09T09:44:39Z</time>
      </trkpt>
      <trkpt lat="45.08003" lon="6.06668">
        <ele>1500.2</ele>
        <time>2024-08-09T09:44:40Z</time>
      </trkpt>
      <trkpt lat="45.08003" lon="6.06668">
        <ele>1500.4</ele>
        <time>2024-08-09T09:44:41Z</time>
      </trkpt>
      <trkpt lat="45.08003" lon="6.06668">
        <ele>1500.4</ele>
        <time>2024-08-09T09:44:42Z</time>
      </trkpt>
      <trkpt lat="45.08003" lon="6.06668">
        <ele>1500.4</ele>
        <time>2024-08-09T09:44:43Z</time>
      </trkpt>
      <trkpt lat="45.08003" lon="6.06668">
        <ele>1500.4</ele>
        <time>2024-08-09T09:44:44Z</time>
      </trkpt>
      <trkpt lat="45.08003" lon="6.06668">
        <ele>1500.2</ele>
        <time>2024-08-09T09:44:45Z</time>
      </trkpt>
      <trkpt lat="45.08003" lon="6.06668">
        <ele>1500.2</ele>
        <time>2024-08-09T09:44:46Z</time>
      </trkpt>
      <trkpt lat="45.08003" lon="6.06668">
        <ele>1500.2</ele>
        <time>2024-08-09T09:44:47Z</time>
      </trkpt>
      <trkpt lat="45.08003" lon="6.06668">
        <ele>1500.2</ele>
        <time>2024-08-09T09:44:48Z</time>
      </trkpt>
      <trkpt lat="45.08003" lon="6.06668">
        <ele>1500.2</ele>
        <time>2024-08-09T09:44:49Z</time>
      </trkpt>
      <trkpt lat="45.08003" lon="6.06668">
        <ele>1500.4</ele>
        <time>2024-08-09T09:44:50Z</time>
      </trkpt>
      <trkpt lat="45.08003" lon="6.06668">
        <ele>1500.4</ele>
        <time>2024-08-09T09:44:51Z</time>
      </trkpt>
      <trkpt lat="45.08003" lon="6.06668">
        <ele>1500.4</ele>
        <time>2024-08-09T09:44:52Z</time>
      </trkpt>
      <trkpt lat="45.08003" lon="6.06668">
        <ele>1500.6</ele>
        <time>2024-08-09T09:44:53Z</time>
      </trkpt>
      <trkpt lat="45.08003" lon="6.06668">
        <ele>1500.6</ele>
        <time>2024-08-09T09:44:54Z</time>
      </trkpt>
      <trkpt lat="45.08003" lon="6.06668">
        <ele>1500.6</ele>
        <time>2024-08-09T09:44:55Z</time>
      </trkpt>
      <trkpt lat="45.08003" lon="6.06668">
        <ele>1500.6</ele>
        <time>2024-08-09T09:44:56Z</time>
      </trkpt>
      <trkpt lat="45.08003" lon="6.06668">
        <ele>1500.6</ele>
        <time>2024-08-09T09:44:57Z</time>
      </trkpt>
      <trkpt lat="45.08003" lon="6.06668">
        <ele>1500.6</ele>
        <time>2024-08-09T09:44:58Z</time>
      </trkpt>
      <trkpt lat="45.08003" lon="6.06668">
        <ele>1500.8</ele>
        <time>2024-08-09T09:44:59Z</time>
      </trkpt>
      <trkpt lat="45.08003" lon="6.06668">
        <ele>1500.8</ele>
        <time>2024-08-09T09:45:00Z</time>
      </trkpt>
      <trkpt lat="45.08003" lon="6.06668">
        <ele>1500.6</ele>
        <time>2024-08-09T09:45:01Z</time>
      </trkpt>
      <trkpt lat="45.08003" lon="6.06668">
        <ele>1500.8</ele>
        <time>2024-08-09T09:45:02Z</time>
      </trkpt>
      <trkpt lat="45.08003" lon="6.06668">
        <ele>1500.8</ele>
        <time>2024-08-09T09:45:03Z</time>
      </trkpt>
      <trkpt lat="45.08003" lon="6.06668">
        <ele>1500.6</ele>
        <time>2024-08-09T09:45:04Z</time>
      </trkpt>
      <trkpt lat="45.08003" lon="6.06668">
        <ele>1500.6</ele>
        <time>2024-08-09T09:45:05Z</time>
      </trkpt>
      <trkpt lat="45.08003" lon="6.06668">
        <ele>1500.6</ele>
        <time>2024-08-09T09:45:06Z</time>
      </trkpt>
      <trkpt lat="45.08003" lon="6.06668">
        <ele>1500.6</ele>
        <time>2024-08-09T09:45:07Z</time>
      </trkpt>
      <trkpt lat="45.08003" lon="6.06668">
        <ele>1500.6</ele>
        <time>2024-08-09T09:45:08Z</time>
      </trkpt>
      <trkpt lat="45.08003" lon="6.06668">
        <ele>1500.6</ele>
        <time>2024-08-09T09:45:09Z</time>
      </trkpt>
      <trkpt lat="45.08003" lon="6.06668">
        <ele>1500.2</ele>
        <time>2024-08-09T09:45:10Z</time>
      </trkpt>
      <trkpt lat="45.08003" lon="6.06668">
        <ele>1500</ele>
        <time>2024-08-09T09:45:11Z</time>
      </trkpt>
      <trkpt lat="45.08005" lon="6.06669">
        <ele>1500</ele>
        <time>2024-08-09T09:45:12Z</time>
      </trkpt>
      <trkpt lat="45.08005" lon="6.06669">
        <ele>1500</ele>
        <time>2024-08-09T09:45:13Z</time>
      </trkpt>
      <trkpt lat="45.08007" lon="6.06672">
        <ele>1500</ele>
        <time>2024-08-09T09:45:14Z</time>
      </trkpt>
      <trkpt lat="45.08008" lon="6.06674">
        <ele>1499.6</ele>
        <time>2024-08-09T09:45:15Z</time>
      </trkpt>
      <trkpt lat="45.08009" lon="6.06677">
        <ele>1499.6</ele>
        <time>2024-08-09T09:45:16Z</time>
      </trkpt>
      <trkpt lat="45.08009" lon="6.06677">
        <ele>1499.4</ele>
        <time>2024-08-09T09:45:17Z</time>
      </trkpt>
      <trkpt lat="45.0801" lon="6.0668">
        <ele>1498.8</ele>
        <time>2024-08-09T09:45:18Z</time>
      </trkpt>
      <trkpt lat="45.0801" lon="6.0668">
        <ele>1498.4</ele>
        <time>2024-08-09T09:45:19Z</time>
      </trkpt>
      <trkpt lat="45.08011" lon="6.06684">
        <ele>1498.2</ele>
        <time>2024-08-09T09:45:20Z</time>
      </trkpt>
      <trkpt lat="45.08011" lon="6.06684">
        <ele>1497.8</ele>
        <time>2024-08-09T09:45:21Z</time>
      </trkpt>
      <trkpt lat="45.08012" lon="6.06688">
        <ele>1497.4</ele>
        <time>2024-08-09T09:45:22Z</time>
      </trkpt>
      <trkpt lat="45.08012" lon="6.06688">
        <ele>1497</ele>
        <time>2024-08-09T09:45:23Z</time>
      </trkpt>
      <trkpt lat="45.08012" lon="6.06688">
        <ele>1496.8</ele>
        <time>2024-08-09T09:45:24Z</time>
      </trkpt>
      <trkpt lat="45.08012" lon="6.06691">
        <ele>1496.4</ele>
        <time>2024-08-09T09:45:25Z</time>
      </trkpt>
      <trkpt lat="45.08012" lon="6.06691">
        <ele>1496.2</ele>
        <time>2024-08-09T09:45:26Z</time>
      </trkpt>
      <trkpt lat="45.08012" lon="6.06691">
        <ele>1496</ele>
        <time>2024-08-09T09:45:27Z</time>
      </trkpt>
      <trkpt lat="45.08015" lon="6.06693">
        <ele>1495.6</ele>
        <time>2024-08-09T09:45:28Z</time>
      </trkpt>
      <trkpt lat="45.08015" lon="6.06693">
        <ele>1495.2</ele>
        <time>2024-08-09T09:45:29Z</time>
      </trkpt>
      <trkpt lat="45.08015" lon="6.06695">
        <ele>1495</ele>
        <time>2024-08-09T09:45:30Z</time>
      </trkpt>
      <trkpt lat="45.08015" lon="6.06695">
        <ele>1494.6</ele>
        <time>2024-08-09T09:45:31Z</time>
      </trkpt>
      <trkpt lat="45.08015" lon="6.06698">
        <ele>1494.2</ele>
        <time>2024-08-09T09:45:32Z</time>
      </trkpt>
      <trkpt lat="45.08015" lon="6.06698">
        <ele>1493.8</ele>
        <time>2024-08-09T09:45:33Z</time>
      </trkpt>
      <trkpt lat="45.08015" lon="6.06698">
        <ele>1493.4</ele>
        <time>2024-08-09T09:45:34Z</time>
      </trkpt>
      <trkpt lat="45.08015" lon="6.06701">
        <ele>1493.2</ele>
        <time>2024-08-09T09:45:35Z</time>
      </trkpt>
      <trkpt lat="45.08015" lon="6.06701">
        <ele>1493</ele>
        <time>2024-08-09T09:45:36Z</time>
      </trkpt>
      <trkpt lat="45.08015" lon="6.06701">
        <ele>1492.8</ele>
        <time>2024-08-09T09:45:37Z</time>
      </trkpt>
      <trkpt lat="45.08018" lon="6.06701">
        <ele>1492.4</ele>
        <time>2024-08-09T09:45:38Z</time>
      </trkpt>
      <trkpt lat="45.08018" lon="6.06701">
        <ele>1492.4</ele>
        <time>2024-08-09T09:45:39Z</time>
      </trkpt>
      <trkpt lat="45.0802" lon="6.067">
        <ele>1492</ele>
        <time>2024-08-09T09:45:40Z</time>
      </trkpt>
      <trkpt lat="45.0802" lon="6.067">
        <ele>1492</ele>
        <time>2024-08-09T09:45:41Z</time>
      </trkpt>
      <trkpt lat="45.0802" lon="6.067">
        <ele>1491.4</ele>
        <time>2024-08-09T09:45:42Z</time>
      </trkpt>
      <trkpt lat="45.08021" lon="6.06703">
        <ele>1490.8</ele>
        <time>2024-08-09T09:45:43Z</time>
      </trkpt>
      <trkpt lat="45.08021" lon="6.06703">
        <ele>1490.4</ele>
        <time>2024-08-09T09:45:44Z</time>
      </trkpt>
      <trkpt lat="45.08021" lon="6.06703">
        <ele>1490.4</ele>
        <time>2024-08-09T09:45:45Z</time>
      </trkpt>
      <trkpt lat="45.08021" lon="6.06706">
        <ele>1490.2</ele>
        <time>2024-08-09T09:45:46Z</time>
      </trkpt>
      <trkpt lat="45.08021" lon="6.06706">
        <ele>1490.2</ele>
        <time>2024-08-09T09:45:47Z</time>
      </trkpt>
      <trkpt lat="45.08019" lon="6.06709">
        <ele>1490.2</ele>
        <time>2024-08-09T09:45:48Z</time>
      </trkpt>
      <trkpt lat="45.08019" lon="6.06709">
        <ele>1489.6</ele>
        <time>2024-08-09T09:45:49Z</time>
      </trkpt>
      <trkpt lat="45.08019" lon="6.06713">
        <ele>1489.2</ele>
        <time>2024-08-09T09:45:50Z</time>
      </trkpt>
      <trkpt lat="45.08019" lon="6.06713">
        <ele>1489</ele>
        <time>2024-08-09T09:45:51Z</time>
      </trkpt>
      <trkpt lat="45.08018" lon="6.06715">
        <ele>1488.6</ele>
        <time>2024-08-09T09:45:52Z</time>
      </trkpt>
      <trkpt lat="45.08018" lon="6.06715">
        <ele>1488.2</ele>
        <time>2024-08-09T09:45:53Z</time>
      </trkpt>
      <trkpt lat="45.08016" lon="6.06716">
        <ele>1488</ele>
        <time>2024-08-09T09:45:54Z</time>
      </trkpt>
      <trkpt lat="45.08016" lon="6.06716">
        <ele>1487.8</ele>
        <time>2024-08-09T09:45:55Z</time>
      </trkpt>
      <trkpt lat="45.08015" lon="6.06719">
        <ele>1487.6</ele>
        <time>2024-08-09T09:45:56Z</time>
      </trkpt>
      <trkpt lat="45.08015" lon="6.06719">
        <ele>1487.2</ele>
        <time>2024-08-09T09:45:57Z</time>
      </trkpt>
      <trkpt lat="45.08015" lon="6.06719">
        <ele>1486.6</ele>
        <time>2024-08-09T09:45:58Z</time>
      </trkpt>
      <trkpt lat="45.08014" lon="6.06722">
        <ele>1486.4</ele>
        <time>2024-08-09T09:45:59Z</time>
      </trkpt>
      <trkpt lat="45.08014" lon="6.06722">
        <ele>1486.2</ele>
        <time>2024-08-09T09:46:00Z</time>
      </trkpt>
      <trkpt lat="45.08015" lon="6.06724">
        <ele>1485.8</ele>
        <time>2024-08-09T09:46:01Z</time>
      </trkpt>
      <trkpt lat="45.08015" lon="6.06724">
        <ele>1485.4</ele>
        <time>2024-08-09T09:46:02Z</time>
      </trkpt>
      <trkpt lat="45.08017" lon="6.06726">
        <ele>1485.4</ele>
        <time>2024-08-09T09:46:03Z</time>
      </trkpt>
      <trkpt lat="45.08017" lon="6.06726">
        <ele>1485.4</ele>
        <time>2024-08-09T09:46:04Z</time>
      </trkpt>
      <trkpt lat="45.08018" lon="6.06729">
        <ele>1485.4</ele>
        <time>2024-08-09T09:46:05Z</time>
      </trkpt>
      <trkpt lat="45.08018" lon="6.06729">
        <ele>1485</ele>
        <time>2024-08-09T09:46:06Z</time>
      </trkpt>
      <trkpt lat="45.08019" lon="6.06732">
        <ele>1484.4</ele>
        <time>2024-08-09T09:46:07Z</time>
      </trkpt>
      <trkpt lat="45.08019" lon="6.06732">
        <ele>1484</ele>
        <time>2024-08-09T09:46:08Z</time>
      </trkpt>
      <trkpt lat="45.08019" lon="6.06736">
        <ele>1484</ele>
        <time>2024-08-09T09:46:09Z</time>
      </trkpt>
      <trkpt lat="45.08019" lon="6.06736">
        <ele>1484</ele>
        <time>2024-08-09T09:46:10Z</time>
      </trkpt>
      <trkpt lat="45.0802" lon="6.06739">
        <ele>1483.6</ele>
        <time>2024-08-09T09:46:11Z</time>
      </trkpt>
      <trkpt lat="45.0802" lon="6.06739">
        <ele>1483.2</ele>
        <time>2024-08-09T09:46:12Z</time>
      </trkpt>
      <trkpt lat="45.0802" lon="6.06742">
        <ele>1483</ele>
        <time>2024-08-09T09:46:13Z</time>
      </trkpt>
      <trkpt lat="45.0802" lon="6.06742">
        <ele>1482.6</ele>
        <time>2024-08-09T09:46:14Z</time>
      </trkpt>
      <trkpt lat="45.08021" lon="6.06744">
        <ele>1482.4</ele>
        <time>2024-08-09T09:46:15Z</time>
      </trkpt>
      <trkpt lat="45.08021" lon="6.06744">
        <ele>1482.4</ele>
        <time>2024-08-09T09:46:16Z</time>
      </trkpt>
      <trkpt lat="45.08021" lon="6.06748">
        <ele>1481.8</ele>
        <time>2024-08-09T09:46:17Z</time>
      </trkpt>
      <trkpt lat="45.08021" lon="6.06748">
        <ele>1481.4</ele>
        <time>2024-08-09T09:46:18Z</time>
      </trkpt>
      <trkpt lat="45.08022" lon="6.06752">
        <ele>1481</ele>
        <time>2024-08-09T09:46:19Z</time>
      </trkpt>
      <trkpt lat="45.08022" lon="6.06752">
        <ele>1481</ele>
        <time>2024-08-09T09:46:20Z</time>
      </trkpt>
      <trkpt lat="45.08023" lon="6.06755">
        <ele>1481</ele>
        <time>2024-08-09T09:46:21Z</time>
      </trkpt>
      <trkpt lat="45.08023" lon="6.06755">
        <ele>1480.4</ele>
        <time>2024-08-09T09:46:22Z</time>
      </trkpt>
      <trkpt lat="45.08023" lon="6.06759">
        <ele>1480.4</ele>
        <time>2024-08-09T09:46:23Z</time>
      </trkpt>
      <trkpt lat="45.08023" lon="6.06759">
        <ele>1480.4</ele>
        <time>2024-08-09T09:46:24Z</time>
      </trkpt>
      <trkpt lat="45.08024" lon="6.06762">
        <ele>1480.2</ele>
        <time>2024-08-09T09:46:25Z</time>
      </trkpt>
      <trkpt lat="45.08024" lon="6.06762">
        <ele>1480</ele>
        <time>2024-08-09T09:46:26Z</time>
      </trkpt>
      <trkpt lat="45.08025" lon="6.06765">
        <ele>1479.4</ele>
        <time>2024-08-09T09:46:27Z</time>
      </trkpt>
      <trkpt lat="45.08025" lon="6.06765">
        <ele>1479</ele>
        <time>2024-08-09T09:46:28Z</time>
      </trkpt>
      <trkpt lat="45.08026" lon="6.06767">
        <ele>1478.8</ele>
        <time>2024-08-09T09:46:29Z</time>
      </trkpt>
      <trkpt lat="45.08026" lon="6.06767">
        <ele>1478.6</ele>
        <time>2024-08-09T09:46:30Z</time>
      </trkpt>
      <trkpt lat="45.08027" lon="6.0677">
        <ele>1478.4</ele>
        <time>2024-08-09T09:46:31Z</time>
      </trkpt>
      <trkpt lat="45.08027" lon="6.0677">
        <ele>1478.2</ele>
        <time>2024-08-09T09:46:32Z</time>
      </trkpt>
      <trkpt lat="45.08028" lon="6.06774">
        <ele>1477.8</ele>
        <time>2024-08-09T09:46:33Z</time>
      </trkpt>
      <trkpt lat="45.08028" lon="6.06774">
        <ele>1477.4</ele>
        <time>2024-08-09T09:46:34Z</time>
      </trkpt>
      <trkpt lat="45.08029" lon="6.06777">
        <ele>1477.2</ele>
        <time>2024-08-09T09:46:35Z</time>
      </trkpt>
      <trkpt lat="45.08029" lon="6.06777">
        <ele>1477.2</ele>
        <time>2024-08-09T09:46:36Z</time>
      </trkpt>
      <trkpt lat="45.08029" lon="6.0678">
        <ele>1476.8</ele>
        <time>2024-08-09T09:46:37Z</time>
      </trkpt>
      <trkpt lat="45.08029" lon="6.0678">
        <ele>1476.8</ele>
        <time>2024-08-09T09:46:38Z</time>
      </trkpt>
      <trkpt lat="45.08029" lon="6.06784">
        <ele>1476.8</ele>
        <time>2024-08-09T09:46:39Z</time>
      </trkpt>
      <trkpt lat="45.08029" lon="6.06784">
        <ele>1476.6</ele>
        <time>2024-08-09T09:46:40Z</time>
      </trkpt>
      <trkpt lat="45.08031" lon="6.06788">
        <ele>1476.4</ele>
        <time>2024-08-09T09:46:41Z</time>
      </trkpt>
      <trkpt lat="45.08031" lon="6.06788">
        <ele>1476.4</ele>
        <time>2024-08-09T09:46:42Z</time>
      </trkpt>
      <trkpt lat="45.08031" lon="6.06791">
        <ele>1476.4</ele>
        <time>2024-08-09T09:46:43Z</time>
      </trkpt>
      <trkpt lat="45.08031" lon="6.06791">
        <ele>1476.4</ele>
        <time>2024-08-09T09:46:44Z</time>
      </trkpt>
      <trkpt lat="45.08031" lon="6.06795">
        <ele>1476.4</ele>
        <time>2024-08-09T09:46:45Z</time>
      </trkpt>
      <trkpt lat="45.08031" lon="6.06795">
        <ele>1476.4</ele>
        <time>2024-08-09T09:46:46Z</time>
      </trkpt>
      <trkpt lat="45.08032" lon="6.06798">
        <ele>1476.4</ele>
        <time>2024-08-09T09:46:47Z</time>
      </trkpt>
      <trkpt lat="45.08032" lon="6.06798">
        <ele>1476.8</ele>
        <time>2024-08-09T09:46:48Z</time>
      </trkpt>
      <trkpt lat="45.08032" lon="6.06801">
        <ele>1477</ele>
        <time>2024-08-09T09:46:49Z</time>
      </trkpt>
      <trkpt lat="45.08032" lon="6.06801">
        <ele>1477</ele>
        <time>2024-08-09T09:46:50Z</time>
      </trkpt>
      <trkpt lat="45.08033" lon="6.06805">
        <ele>1477.2</ele>
        <time>2024-08-09T09:46:51Z</time>
      </trkpt>
      <trkpt lat="45.08033" lon="6.06805">
        <ele>1477.2</ele>
        <time>2024-08-09T09:46:52Z</time>
      </trkpt>
      <trkpt lat="45.08033" lon="6.06809">
        <ele>1476.6</ele>
        <time>2024-08-09T09:46:53Z</time>
      </trkpt>
      <trkpt lat="45.08033" lon="6.06809">
        <ele>1476.6</ele>
        <time>2024-08-09T09:46:54Z</time>
      </trkpt>
      <trkpt lat="45.08033" lon="6.06809">
        <ele>1476.6</ele>
        <time>2024-08-09T09:46:55Z</time>
      </trkpt>
      <trkpt lat="45.08033" lon="6.06812">
        <ele>1476.6</ele>
        <time>2024-08-09T09:46:56Z</time>
      </trkpt>
      <trkpt lat="45.08033" lon="6.06812">
        <ele>1476.2</ele>
        <time>2024-08-09T09:46:57Z</time>
      </trkpt>
      <trkpt lat="45.08035" lon="6.06815">
        <ele>1476.2</ele>
        <time>2024-08-09T09:46:58Z</time>
      </trkpt>
      <trkpt lat="45.08035" lon="6.06815">
        <ele>1476.2</ele>
        <time>2024-08-09T09:46:59Z</time>
      </trkpt>
      <trkpt lat="45.08036" lon="6.06818">
        <ele>1476.2</ele>
        <time>2024-08-09T09:47:00Z</time>
      </trkpt>
      <trkpt lat="45.08036" lon="6.06818">
        <ele>1475.6</ele>
        <time>2024-08-09T09:47:01Z</time>
      </trkpt>
      <trkpt lat="45.08036" lon="6.06822">
        <ele>1475.6</ele>
        <time>2024-08-09T09:47:02Z</time>
      </trkpt>
      <trkpt lat="45.08036" lon="6.06822">
        <ele>1475.6</ele>
        <time>2024-08-09T09:47:03Z</time>
      </trkpt>
      <trkpt lat="45.08036" lon="6.06826">
        <ele>1475.4</ele>
        <time>2024-08-09T09:47:04Z</time>
      </trkpt>
      <trkpt lat="45.08036" lon="6.06826">
        <ele>1475</ele>
        <time>2024-08-09T09:47:05Z</time>
      </trkpt>
      <trkpt lat="45.08037" lon="6.06829">
        <ele>1474.8</ele>
        <time>2024-08-09T09:47:06Z</time>
      </trkpt>
      <trkpt lat="45.08037" lon="6.06829">
        <ele>1474.6</ele>
        <time>2024-08-09T09:47:07Z</time>
      </trkpt>
      <trkpt lat="45.08037" lon="6.06832">
        <ele>1474.6</ele>
        <time>2024-08-09T09:47:08Z</time>
      </trkpt>
      <trkpt lat="45.08037" lon="6.06832">
        <ele>1474.4</ele>
        <time>2024-08-09T09:47:09Z</time>
      </trkpt>
      <trkpt lat="45.08038" lon="6.06834">
        <ele>1474.2</ele>
        <time>2024-08-09T09:47:10Z</time>
      </trkpt>
      <trkpt lat="45.08038" lon="6.06834">
        <ele>1473.8</ele>
        <time>2024-08-09T09:47:11Z</time>
      </trkpt>
      <trkpt lat="45.08039" lon="6.06837">
        <ele>1473.6</ele>
        <time>2024-08-09T09:47:12Z</time>
      </trkpt>
      <trkpt lat="45.08039" lon="6.06837">
        <ele>1473.6</ele>
        <time>2024-08-09T09:47:13Z</time>
      </trkpt>
      <trkpt lat="45.0804" lon="6.0684">
        <ele>1473</ele>
        <time>2024-08-09T09:47:14Z</time>
      </trkpt>
      <trkpt lat="45.0804" lon="6.0684">
        <ele>1472.6</ele>
        <time>2024-08-09T09:47:15Z</time>
      </trkpt>
      <trkpt lat="45.08039" lon="6.06843">
        <ele>1472.4</ele>
        <time>2024-08-09T09:47:16Z</time>
      </trkpt>
      <trkpt lat="45.08039" lon="6.06843">
        <ele>1472</ele>
        <time>2024-08-09T09:47:17Z</time>
      </trkpt>
      <trkpt lat="45.0804" lon="6.06846">
        <ele>1471.6</ele>
        <time>2024-08-09T09:47:18Z</time>
      </trkpt>
      <trkpt lat="45.0804" lon="6.06846">
        <ele>1471.4</ele>
        <time>2024-08-09T09:47:19Z</time>
      </trkpt>
      <trkpt lat="45.0804" lon="6.06846">
        <ele>1471</ele>
        <time>2024-08-09T09:47:20Z</time>
      </trkpt>
      <trkpt lat="45.08041" lon="6.06849">
        <ele>1470.2</ele>
        <time>2024-08-09T09:47:21Z</time>
      </trkpt>
      <trkpt lat="45.08041" lon="6.06849">
        <ele>1470</ele>
        <time>2024-08-09T09:47:22Z</time>
      </trkpt>
      <trkpt lat="45.08043" lon="6.06851">
        <ele>1469.6</ele>
        <time>2024-08-09T09:47:23Z</time>
      </trkpt>
      <trkpt lat="45.08043" lon="6.06851">
        <ele>1469.2</ele>
        <time>2024-08-09T09:47:24Z</time>
      </trkpt>
      <trkpt lat="45.08043" lon="6.06851">
        <ele>1468.8</ele>
        <time>2024-08-09T09:47:25Z</time>
      </trkpt>
      <trkpt lat="45.08045" lon="6.06853">
        <ele>1468.8</ele>
        <time>2024-08-09T09:47:26Z</time>
      </trkpt>
      <trkpt lat="45.08045" lon="6.06853">
        <ele>1468.4</ele>
        <time>2024-08-09T09:47:27Z</time>
      </trkpt>
      <trkpt lat="45.08048" lon="6.06855">
        <ele>1468</ele>
        <time>2024-08-09T09:47:28Z</time>
      </trkpt>
      <trkpt lat="45.08048" lon="6.06855">
        <ele>1467.8</ele>
        <time>2024-08-09T09:47:29Z</time>
      </trkpt>
      <trkpt lat="45.08048" lon="6.06855">
        <ele>1467.6</ele>
        <time>2024-08-09T09:47:30Z</time>
      </trkpt>
      <trkpt lat="45.0805" lon="6.06858">
        <ele>1467.4</ele>
        <time>2024-08-09T09:47:31Z</time>
      </trkpt>
      <trkpt lat="45.0805" lon="6.06858">
        <ele>1466.8</ele>
        <time>2024-08-09T09:47:32Z</time>
      </trkpt>
      <trkpt lat="45.08051" lon="6.06861">
        <ele>1466.6</ele>
        <time>2024-08-09T09:47:33Z</time>
      </trkpt>
      <trkpt lat="45.08051" lon="6.06861">
        <ele>1466.4</ele>
        <time>2024-08-09T09:47:34Z</time>
      </trkpt>
      <trkpt lat="45.08051" lon="6.06861">
        <ele>1466.2</ele>
        <time>2024-08-09T09:47:35Z</time>
      </trkpt>
      <trkpt lat="45.08052" lon="6.06863">
        <ele>1465.8</ele>
        <time>2024-08-09T09:47:36Z</time>
      </trkpt>
      <trkpt lat="45.08052" lon="6.06863">
        <ele>1465.6</ele>
        <time>2024-08-09T09:47:37Z</time>
      </trkpt>
      <trkpt lat="45.08052" lon="6.06863">
        <ele>1465.4</ele>
        <time>2024-08-09T09:47:38Z</time>
      </trkpt>
      <trkpt lat="45.08052" lon="6.06863">
        <ele>1464.8</ele>
        <time>2024-08-09T09:47:39Z</time>
      </trkpt>
      <trkpt lat="45.08052" lon="6.0686">
        <ele>1464.2</ele>
        <time>2024-08-09T09:47:40Z</time>
      </trkpt>
      <trkpt lat="45.08052" lon="6.0686">
        <ele>1464.2</ele>
        <time>2024-08-09T09:47:41Z</time>
      </trkpt>
      <trkpt lat="45.08052" lon="6.0686">
        <ele>1464</ele>
        <time>2024-08-09T09:47:42Z</time>
      </trkpt>
      <trkpt lat="45.08053" lon="6.06856">
        <ele>1463.4</ele>
        <time>2024-08-09T09:47:43Z</time>
      </trkpt>
      <trkpt lat="45.08053" lon="6.06856">
        <ele>1463</ele>
        <time>2024-08-09T09:47:44Z</time>
      </trkpt>
      <trkpt lat="45.08052" lon="6.06852">
        <ele>1462.8</ele>
        <time>2024-08-09T09:47:45Z</time>
      </trkpt>
      <trkpt lat="45.08052" lon="6.06852">
        <ele>1462.8</ele>
        <time>2024-08-09T09:47:46Z</time>
      </trkpt>
      <trkpt lat="45.08053" lon="6.06849">
        <ele>1462.6</ele>
        <time>2024-08-09T09:47:47Z</time>
      </trkpt>
      <trkpt lat="45.08053" lon="6.06849">
        <ele>1462.2</ele>
        <time>2024-08-09T09:47:48Z</time>
      </trkpt>
      <trkpt lat="45.08052" lon="6.06846">
        <ele>1462</ele>
        <time>2024-08-09T09:47:49Z</time>
      </trkpt>
      <trkpt lat="45.08052" lon="6.06846">
        <ele>1461.8</ele>
        <time>2024-08-09T09:47:50Z</time>
      </trkpt>
      <trkpt lat="45.08052" lon="6.06846">
        <ele>1461.6</ele>
        <time>2024-08-09T09:47:51Z</time>
      </trkpt>
      <trkpt lat="45.08054" lon="6.06846">
        <ele>1461.4</ele>
        <time>2024-08-09T09:47:52Z</time>
      </trkpt>
      <trkpt lat="45.08054" lon="6.06846">
        <ele>1461.2</ele>
        <time>2024-08-09T09:47:53Z</time>
      </trkpt>
      <trkpt lat="45.08056" lon="6.06848">
        <ele>1460.8</ele>
        <time>2024-08-09T09:47:54Z</time>
      </trkpt>
      <trkpt lat="45.08056" lon="6.06848">
        <ele>1460.4</ele>
        <time>2024-08-09T09:47:55Z</time>
      </trkpt>
      <trkpt lat="45.08058" lon="6.0685">
        <ele>1459.8</ele>
        <time>2024-08-09T09:47:56Z</time>
      </trkpt>
      <trkpt lat="45.08058" lon="6.0685">
        <ele>1459.6</ele>
        <time>2024-08-09T09:47:57Z</time>
      </trkpt>
      <trkpt lat="45.0806" lon="6.06851">
        <ele>1459.2</ele>
        <time>2024-08-09T09:47:58Z</time>
      </trkpt>
      <trkpt lat="45.0806" lon="6.06851">
        <ele>1458.8</ele>
        <time>2024-08-09T09:47:59Z</time>
      </trkpt>
      <trkpt lat="45.08062" lon="6.06853">
        <ele>1458.4</ele>
        <time>2024-08-09T09:48:00Z</time>
      </trkpt>
      <trkpt lat="45.08062" lon="6.06853">
        <ele>1458.2</ele>
        <time>2024-08-09T09:48:01Z</time>
      </trkpt>
      <trkpt lat="45.08064" lon="6.06856">
        <ele>1457.8</ele>
        <time>2024-08-09T09:48:02Z</time>
      </trkpt>
      <trkpt lat="45.08064" lon="6.06856">
        <ele>1457.8</ele>
        <time>2024-08-09T09:48:03Z</time>
      </trkpt>
      <trkpt lat="45.08065" lon="6.06859">
        <ele>1457.6</ele>
        <time>2024-08-09T09:48:04Z</time>
      </trkpt>
      <trkpt lat="45.08065" lon="6.06859">
        <ele>1457.4</ele>
        <time>2024-08-09T09:48:05Z</time>
      </trkpt>
      <trkpt lat="45.08066" lon="6.06862">
        <ele>1457</ele>
        <time>2024-08-09T09:48:06Z</time>
      </trkpt>
      <trkpt lat="45.08066" lon="6.06862">
        <ele>1457</ele>
        <time>2024-08-09T09:48:07Z</time>
      </trkpt>
      <trkpt lat="45.08068" lon="6.06865">
        <ele>1456.8</ele>
        <time>2024-08-09T09:48:08Z</time>
      </trkpt>
      <trkpt lat="45.08068" lon="6.06865">
        <ele>1456.4</ele>
        <time>2024-08-09T09:48:09Z</time>
      </trkpt>
      <trkpt lat="45.08069" lon="6.06867">
        <ele>1456</ele>
        <time>2024-08-09T09:48:10Z</time>
      </trkpt>
      <trkpt lat="45.08069" lon="6.06867">
        <ele>1455.8</ele>
        <time>2024-08-09T09:48:11Z</time>
      </trkpt>
      <trkpt lat="45.08069" lon="6.06867">
        <ele>1455.8</ele>
        <time>2024-08-09T09:48:12Z</time>
      </trkpt>
      <trkpt lat="45.08071" lon="6.06867">
        <ele>1455.6</ele>
        <time>2024-08-09T09:48:13Z</time>
      </trkpt>
      <trkpt lat="45.08071" lon="6.06867">
        <ele>1455</ele>
        <time>2024-08-09T09:48:14Z</time>
      </trkpt>
      <trkpt lat="45.0807" lon="6.06864">
        <ele>1455</ele>
        <time>2024-08-09T09:48:15Z</time>
      </trkpt>
      <trkpt lat="45.0807" lon="6.06864">
        <ele>1455</ele>
        <time>2024-08-09T09:48:16Z</time>
      </trkpt>
      <trkpt lat="45.0807" lon="6.06861">
        <ele>1454.8</ele>
        <time>2024-08-09T09:48:17Z</time>
      </trkpt>
      <trkpt lat="45.0807" lon="6.06861">
        <ele>1454.6</ele>
        <time>2024-08-09T09:48:18Z</time>
      </trkpt>
      <trkpt lat="45.08069" lon="6.06858">
        <ele>1454.6</ele>
        <time>2024-08-09T09:48:19Z</time>
      </trkpt>
      <trkpt lat="45.08069" lon="6.06858">
        <ele>1454.2</ele>
        <time>2024-08-09T09:48:20Z</time>
      </trkpt>
      <trkpt lat="45.08068" lon="6.06855">
        <ele>1453.8</ele>
        <time>2024-08-09T09:48:21Z</time>
      </trkpt>
      <trkpt lat="45.08068" lon="6.06855">
        <ele>1453.4</ele>
        <time>2024-08-09T09:48:22Z</time>
      </trkpt>
      <trkpt lat="45.08069" lon="6.06852">
        <ele>1453.2</ele>
        <time>2024-08-09T09:48:23Z</time>
      </trkpt>
      <trkpt lat="45.08069" lon="6.06852">
        <ele>1453.2</ele>
        <time>2024-08-09T09:48:24Z</time>
      </trkpt>
      <trkpt lat="45.0807" lon="6.0685">
        <ele>1452.8</ele>
        <time>2024-08-09T09:48:25Z</time>
      </trkpt>
      <trkpt lat="45.0807" lon="6.0685">
        <ele>1452.4</ele>
        <time>2024-08-09T09:48:26Z</time>
      </trkpt>
      <trkpt lat="45.0807" lon="6.0685">
        <ele>1452</ele>
        <time>2024-08-09T09:48:27Z</time>
      </trkpt>
      <trkpt lat="45.08072" lon="6.06851">
        <ele>1451.8</ele>
        <time>2024-08-09T09:48:28Z</time>
      </trkpt>
      <trkpt lat="45.08072" lon="6.06851">
        <ele>1451.6</ele>
        <time>2024-08-09T09:48:29Z</time>
      </trkpt>
      <trkpt lat="45.08074" lon="6.06853">
        <ele>1451.2</ele>
        <time>2024-08-09T09:48:30Z</time>
      </trkpt>
      <trkpt lat="45.08074" lon="6.06853">
        <ele>1451</ele>
        <time>2024-08-09T09:48:31Z</time>
      </trkpt>
      <trkpt lat="45.08076" lon="6.06855">
        <ele>1450.8</ele>
        <time>2024-08-09T09:48:32Z</time>
      </trkpt>
      <trkpt lat="45.08076" lon="6.06855">
        <ele>1450.6</ele>
        <time>2024-08-09T09:48:33Z</time>
      </trkpt>
      <trkpt lat="45.08076" lon="6.06855">
        <ele>1450.4</ele>
        <time>2024-08-09T09:48:34Z</time>
      </trkpt>
      <trkpt lat="45.08078" lon="6.06855">
        <ele>1450.2</ele>
        <time>2024-08-09T09:48:35Z</time>
      </trkpt>
      <trkpt lat="45.08078" lon="6.06855">
        <ele>1450</ele>
        <time>2024-08-09T09:48:36Z</time>
      </trkpt>
      <trkpt lat="45.08078" lon="6.06855">
        <ele>1449.6</ele>
        <time>2024-08-09T09:48:37Z</time>
      </trkpt>
      <trkpt lat="45.0808" lon="6.06857">
        <ele>1449.2</ele>
        <time>2024-08-09T09:48:38Z</time>
      </trkpt>
      <trkpt lat="45.0808" lon="6.06857">
        <ele>1449</ele>
        <time>2024-08-09T09:48:39Z</time>
      </trkpt>
      <trkpt lat="45.0808" lon="6.06857">
        <ele>1448.8</ele>
        <time>2024-08-09T09:48:40Z</time>
      </trkpt>
      <trkpt lat="45.08081" lon="6.0686">
        <ele>1448.4</ele>
        <time>2024-08-09T09:48:41Z</time>
      </trkpt>
      <trkpt lat="45.08081" lon="6.0686">
        <ele>1448.2</ele>
        <time>2024-08-09T09:48:42Z</time>
      </trkpt>
      <trkpt lat="45.08082" lon="6.06862">
        <ele>1447.8</ele>
        <time>2024-08-09T09:48:43Z</time>
      </trkpt>
      <trkpt lat="45.08082" lon="6.06862">
        <ele>1447.8</ele>
        <time>2024-08-09T09:48:44Z</time>
      </trkpt>
      <trkpt lat="45.08082" lon="6.06862">
        <ele>1447.6</ele>
        <time>2024-08-09T09:48:45Z</time>
      </trkpt>
      <trkpt lat="45.08083" lon="6.06865">
        <ele>1447.4</ele>
        <time>2024-08-09T09:48:46Z</time>
      </trkpt>
      <trkpt lat="45.08083" lon="6.06865">
        <ele>1447</ele>
        <time>2024-08-09T09:48:47Z</time>
      </trkpt>
      <trkpt lat="45.08084" lon="6.06868">
        <ele>1446.8</ele>
        <time>2024-08-09T09:48:48Z</time>
      </trkpt>
      <trkpt lat="45.08084" lon="6.06868">
        <ele>1446.4</ele>
        <time>2024-08-09T09:48:49Z</time>
      </trkpt>
      <trkpt lat="45.08085" lon="6.06871">
        <ele>1446.2</ele>
        <time>2024-08-09T09:48:50Z</time>
      </trkpt>
      <trkpt lat="45.08085" lon="6.06871">
        <ele>1446</ele>
        <time>2024-08-09T09:48:51Z</time>
      </trkpt>
      <trkpt lat="45.08085" lon="6.06874">
        <ele>1445.4</ele>
        <time>2024-08-09T09:48:52Z</time>
      </trkpt>
      <trkpt lat="45.08085" lon="6.06874">
        <ele>1445.4</ele>
        <time>2024-08-09T09:48:53Z</time>
      </trkpt>
      <trkpt lat="45.08085" lon="6.06877">
        <ele>1445.4</ele>
        <time>2024-08-09T09:48:54Z</time>
      </trkpt>
      <trkpt lat="45.08085" lon="6.06877">
        <ele>1444.8</ele>
        <time>2024-08-09T09:48:55Z</time>
      </trkpt>
      <trkpt lat="45.08087" lon="6.0688">
        <ele>1444.6</ele>
        <time>2024-08-09T09:48:56Z</time>
      </trkpt>
      <trkpt lat="45.08087" lon="6.0688">
        <ele>1444.4</ele>
        <time>2024-08-09T09:48:57Z</time>
      </trkpt>
      <trkpt lat="45.08087" lon="6.06883">
        <ele>1444</ele>
        <time>2024-08-09T09:48:58Z</time>
      </trkpt>
      <trkpt lat="45.08087" lon="6.06883">
        <ele>1443.6</ele>
        <time>2024-08-09T09:48:59Z</time>
      </trkpt>
      <trkpt lat="45.08088" lon="6.06886">
        <ele>1443.4</ele>
        <time>2024-08-09T09:49:00Z</time>
      </trkpt>
      <trkpt lat="45.08088" lon="6.06886">
        <ele>1443</ele>
        <time>2024-08-09T09:49:01Z</time>
      </trkpt>
      <trkpt lat="45.0809" lon="6.06889">
        <ele>1442</ele>
        <time>2024-08-09T09:49:02Z</time>
      </trkpt>
      <trkpt lat="45.0809" lon="6.06889">
        <ele>1442</ele>
        <time>2024-08-09T09:49:03Z</time>
      </trkpt>
      <trkpt lat="45.08091" lon="6.06891">
        <ele>1442</ele>
        <time>2024-08-09T09:49:04Z</time>
      </trkpt>
      <trkpt lat="45.08091" lon="6.06891">
        <ele>1442</ele>
        <time>2024-08-09T09:49:05Z</time>
      </trkpt>
      <trkpt lat="45.08093" lon="6.06893">
        <ele>1441.6</ele>
        <time>2024-08-09T09:49:06Z</time>
      </trkpt>
      <trkpt lat="45.08093" lon="6.06893">
        <ele>1441.4</ele>
        <time>2024-08-09T09:49:07Z</time>
      </trkpt>
      <trkpt lat="45.08093" lon="6.06896">
        <ele>1441.2</ele>
        <time>2024-08-09T09:49:08Z</time>
      </trkpt>
      <trkpt lat="45.08093" lon="6.06896">
        <ele>1440.8</ele>
        <time>2024-08-09T09:49:09Z</time>
      </trkpt>
      <trkpt lat="45.08094" lon="6.06899">
        <ele>1440.6</ele>
        <time>2024-08-09T09:49:10Z</time>
      </trkpt>
      <trkpt lat="45.08095" lon="6.069">
        <ele>1440.2</ele>
        <time>2024-08-09T09:49:11Z</time>
      </trkpt>
      <trkpt lat="45.08095" lon="6.069">
        <ele>1440</ele>
        <time>2024-08-09T09:49:12Z</time>
      </trkpt>
      <trkpt lat="45.08097" lon="6.06902">
        <ele>1439.8</ele>
        <time>2024-08-09T09:49:13Z</time>
      </trkpt>
      <trkpt lat="45.08099" lon="6.06903">
        <ele>1439.8</ele>
        <time>2024-08-09T09:49:14Z</time>
      </trkpt>
      <trkpt lat="45.08099" lon="6.06903">
        <ele>1439.6</ele>
        <time>2024-08-09T09:49:15Z</time>
      </trkpt>
      <trkpt lat="45.08101" lon="6.06903">
        <ele>1439.4</ele>
        <time>2024-08-09T09:49:16Z</time>
      </trkpt>
      <trkpt lat="45.08101" lon="6.06903">
        <ele>1439.4</ele>
        <time>2024-08-09T09:49:17Z</time>
      </trkpt>
      <trkpt lat="45.08104" lon="6.06902">
        <ele>1439.4</ele>
        <time>2024-08-09T09:49:18Z</time>
      </trkpt>
      <trkpt lat="45.08106" lon="6.06902">
        <ele>1439.2</ele>
        <time>2024-08-09T09:49:19Z</time>
      </trkpt>
      <trkpt lat="45.08106" lon="6.06902">
        <ele>1439.2</ele>
        <time>2024-08-09T09:49:20Z</time>
      </trkpt>
      <trkpt lat="45.08109" lon="6.06903">
        <ele>1439.2</ele>
        <time>2024-08-09T09:49:21Z</time>
      </trkpt>
      <trkpt lat="45.08109" lon="6.06903">
        <ele>1439.6</ele>
        <time>2024-08-09T09:49:22Z</time>
      </trkpt>
      <trkpt lat="45.08112" lon="6.06903">
        <ele>1439.6</ele>
        <time>2024-08-09T09:49:23Z</time>
      </trkpt>
      <trkpt lat="45.08112" lon="6.06903">
        <ele>1439.6</ele>
        <time>2024-08-09T09:49:24Z</time>
      </trkpt>
      <trkpt lat="45.08115" lon="6.06904">
        <ele>1439.6</ele>
        <time>2024-08-09T09:49:25Z</time>
      </trkpt>
      <trkpt lat="45.08115" lon="6.06904">
        <ele>1439.6</ele>
        <time>2024-08-09T09:49:26Z</time>
      </trkpt>
      <trkpt lat="45.08117" lon="6.06903">
        <ele>1439.8</ele>
        <time>2024-08-09T09:49:27Z</time>
      </trkpt>
      <trkpt lat="45.08117" lon="6.06903">
        <ele>1439.8</ele>
        <time>2024-08-09T09:49:28Z</time>
      </trkpt>
      <trkpt lat="45.08119" lon="6.06902">
        <ele>1439.8</ele>
        <time>2024-08-09T09:49:29Z</time>
      </trkpt>
      <trkpt lat="45.08119" lon="6.06902">
        <ele>1439.8</ele>
        <time>2024-08-09T09:49:30Z</time>
      </trkpt>
      <trkpt lat="45.08121" lon="6.06902">
        <ele>1439.8</ele>
        <time>2024-08-09T09:49:31Z</time>
      </trkpt>
      <trkpt lat="45.08121" lon="6.06902">
        <ele>1439.8</ele>
        <time>2024-08-09T09:49:32Z</time>
      </trkpt>
      <trkpt lat="45.08123" lon="6.06901">
        <ele>1439.6</ele>
        <time>2024-08-09T09:49:33Z</time>
      </trkpt>
      <trkpt lat="45.08123" lon="6.06901">
        <ele>1439.6</ele>
        <time>2024-08-09T09:49:34Z</time>
      </trkpt>
      <trkpt lat="45.08123" lon="6.06901">
        <ele>1439.6</ele>
        <time>2024-08-09T09:49:35Z</time>
      </trkpt>
      <trkpt lat="45.08126" lon="6.06902">
        <ele>1439.6</ele>
        <time>2024-08-09T09:49:36Z</time>
      </trkpt>
      <trkpt lat="45.08126" lon="6.06902">
        <ele>1439.8</ele>
        <time>2024-08-09T09:49:37Z</time>
      </trkpt>
      <trkpt lat="45.08128" lon="6.06901">
        <ele>1439.8</ele>
        <time>2024-08-09T09:49:38Z</time>
      </trkpt>
      <trkpt lat="45.08128" lon="6.06901">
        <ele>1439.8</ele>
        <time>2024-08-09T09:49:39Z</time>
      </trkpt>
      <trkpt lat="45.0813" lon="6.06901">
        <ele>1440</ele>
        <time>2024-08-09T09:49:40Z</time>
      </trkpt>
      <trkpt lat="45.0813" lon="6.06901">
        <ele>1440</ele>
        <time>2024-08-09T09:49:41Z</time>
      </trkpt>
      <trkpt lat="45.08132" lon="6.06902">
        <ele>1440.4</ele>
        <time>2024-08-09T09:49:42Z</time>
      </trkpt>
      <trkpt lat="45.08132" lon="6.06902">
        <ele>1440.8</ele>
        <time>2024-08-09T09:49:43Z</time>
      </trkpt>
      <trkpt lat="45.08132" lon="6.06902">
        <ele>1441</ele>
        <time>2024-08-09T09:49:44Z</time>
      </trkpt>
      <trkpt lat="45.08134" lon="6.06903">
        <ele>1441</ele>
        <time>2024-08-09T09:49:45Z</time>
      </trkpt>
      <trkpt lat="45.08134" lon="6.06903">
        <ele>1441</ele>
        <time>2024-08-09T09:49:46Z</time>
      </trkpt>
      <trkpt lat="45.08135" lon="6.06905">
        <ele>1441.2</ele>
        <time>2024-08-09T09:49:47Z</time>
      </trkpt>
      <trkpt lat="45.08135" lon="6.06905">
        <ele>1441.6</ele>
        <time>2024-08-09T09:49:48Z</time>
      </trkpt>
      <trkpt lat="45.08135" lon="6.06905">
        <ele>1441.6</ele>
        <time>2024-08-09T09:49:49Z</time>
      </trkpt>
      <trkpt lat="45.08135" lon="6.06905">
        <ele>1441.8</ele>
        <time>2024-08-09T09:49:50Z</time>
      </trkpt>
      <trkpt lat="45.08138" lon="6.06905">
        <ele>1441.8</ele>
        <time>2024-08-09T09:49:51Z</time>
      </trkpt>
      <trkpt lat="45.08138" lon="6.06905">
        <ele>1442</ele>
        <time>2024-08-09T09:49:52Z</time>
      </trkpt>
      <trkpt lat="45.08138" lon="6.06905">
        <ele>1442.6</ele>
        <time>2024-08-09T09:49:53Z</time>
      </trkpt>
      <trkpt lat="45.08138" lon="6.06905">
        <ele>1442.8</ele>
        <time>2024-08-09T09:49:54Z</time>
      </trkpt>
      <trkpt lat="45.08139" lon="6.06902">
        <ele>1442.8</ele>
        <time>2024-08-09T09:49:55Z</time>
      </trkpt>
      <trkpt lat="45.08139" lon="6.06902">
        <ele>1442.8</ele>
        <time>2024-08-09T09:49:56Z</time>
      </trkpt>
      <trkpt lat="45.08139" lon="6.06902">
        <ele>1443.2</ele>
        <time>2024-08-09T09:49:57Z</time>
      </trkpt>
      <trkpt lat="45.08139" lon="6.06902">
        <ele>1443.2</ele>
        <time>2024-08-09T09:49:58Z</time>
      </trkpt>
      <trkpt lat="45.0814" lon="6.069">
        <ele>1443.2</ele>
        <time>2024-08-09T09:49:59Z</time>
      </trkpt>
      <trkpt lat="45.0814" lon="6.069">
        <ele>1443.6</ele>
        <time>2024-08-09T09:50:01Z</time>
      </trkpt>
      <trkpt lat="45.0814" lon="6.069">
        <ele>1443.8</ele>
        <time>2024-08-09T09:50:02Z</time>
      </trkpt>
      <trkpt lat="45.0814" lon="6.069">
        <ele>1443.6</ele>
        <time>2024-08-09T09:50:03Z</time>
      </trkpt>
      <trkpt lat="45.0814" lon="6.069">
        <ele>1443.8</ele>
        <time>2024-08-09T09:50:04Z</time>
      </trkpt>
      <trkpt lat="45.0814" lon="6.069">
        <ele>1443.8</ele>
        <time>2024-08-09T09:50:05Z</time>
      </trkpt>
      <trkpt lat="45.0814" lon="6.069">
        <ele>1443.8</ele>
        <time>2024-08-09T09:50:06Z</time>
      </trkpt>
      <trkpt lat="45.0814" lon="6.069">
        <ele>1443.6</ele>
        <time>2024-08-09T09:50:07Z</time>
      </trkpt>
      <trkpt lat="45.0814" lon="6.069">
        <ele>1443.4</ele>
        <time>2024-08-09T09:50:08Z</time>
      </trkpt>
      <trkpt lat="45.08142" lon="6.069">
        <ele>1443.4</ele>
        <time>2024-08-09T09:50:09Z</time>
      </trkpt>
      <trkpt lat="45.08142" lon="6.069">
        <ele>1443.6</ele>
        <time>2024-08-09T09:50:10Z</time>
      </trkpt>
      <trkpt lat="45.08142" lon="6.06903">
        <ele>1444</ele>
        <time>2024-08-09T09:50:11Z</time>
      </trkpt>
      <trkpt lat="45.08142" lon="6.06903">
        <ele>1444.2</ele>
        <time>2024-08-09T09:50:12Z</time>
      </trkpt>
      <trkpt lat="45.08142" lon="6.06908">
        <ele>1444.2</ele>
        <time>2024-08-09T09:50:13Z</time>
      </trkpt>
      <trkpt lat="45.08142" lon="6.06908">
        <ele>1444.2</ele>
        <time>2024-08-09T09:50:14Z</time>
      </trkpt>
      <trkpt lat="45.08142" lon="6.06913">
        <ele>1444.2</ele>
        <time>2024-08-09T09:50:15Z</time>
      </trkpt>
      <trkpt lat="45.08142" lon="6.06913">
        <ele>1444.4</ele>
        <time>2024-08-09T09:50:16Z</time>
      </trkpt>
      <trkpt lat="45.08141" lon="6.06916">
        <ele>1444.4</ele>
        <time>2024-08-09T09:50:17Z</time>
      </trkpt>
      <trkpt lat="45.08141" lon="6.06916">
        <ele>1444.6</ele>
        <time>2024-08-09T09:50:18Z</time>
      </trkpt>
      <trkpt lat="45.08141" lon="6.06919">
        <ele>1444.6</ele>
        <time>2024-08-09T09:50:19Z</time>
      </trkpt>
      <trkpt lat="45.08141" lon="6.06919">
        <ele>1445</ele>
        <time>2024-08-09T09:50:20Z</time>
      </trkpt>
      <trkpt lat="45.08141" lon="6.06922">
        <ele>1445.2</ele>
        <time>2024-08-09T09:50:21Z</time>
      </trkpt>
      <trkpt lat="45.08141" lon="6.06922">
        <ele>1445.2</ele>
        <time>2024-08-09T09:50:22Z</time>
      </trkpt>
      <trkpt lat="45.08141" lon="6.06926">
        <ele>1445.4</ele>
        <time>2024-08-09T09:50:23Z</time>
      </trkpt>
      <trkpt lat="45.08141" lon="6.06926">
        <ele>1445.4</ele>
        <time>2024-08-09T09:50:24Z</time>
      </trkpt>
      <trkpt lat="45.08141" lon="6.0693">
        <ele>1445.4</ele>
        <time>2024-08-09T09:50:25Z</time>
      </trkpt>
      <trkpt lat="45.08141" lon="6.0693">
        <ele>1445.4</ele>
        <time>2024-08-09T09:50:26Z</time>
      </trkpt>
      <trkpt lat="45.08141" lon="6.0693">
        <ele>1445.4</ele>
        <time>2024-08-09T09:50:27Z</time>
      </trkpt>
      <trkpt lat="45.08141" lon="6.06934">
        <ele>1445.6</ele>
        <time>2024-08-09T09:50:28Z</time>
      </trkpt>
      <trkpt lat="45.08141" lon="6.06934">
        <ele>1445.8</ele>
        <time>2024-08-09T09:50:29Z</time>
      </trkpt>
      <trkpt lat="45.08141" lon="6.06937">
        <ele>1445.8</ele>
        <time>2024-08-09T09:50:30Z</time>
      </trkpt>
      <trkpt lat="45.08141" lon="6.06937">
        <ele>1446</ele>
        <time>2024-08-09T09:50:31Z</time>
      </trkpt>
      <trkpt lat="45.08141" lon="6.06941">
        <ele>1446.2</ele>
        <time>2024-08-09T09:50:32Z</time>
      </trkpt>
      <trkpt lat="45.08141" lon="6.06941">
        <ele>1446.4</ele>
        <time>2024-08-09T09:50:33Z</time>
      </trkpt>
      <trkpt lat="45.0814" lon="6.06944">
        <ele>1446.4</ele>
        <time>2024-08-09T09:50:34Z</time>
      </trkpt>
      <trkpt lat="45.0814" lon="6.06944">
        <ele>1446.6</ele>
        <time>2024-08-09T09:50:35Z</time>
      </trkpt>
      <trkpt lat="45.0814" lon="6.06947">
        <ele>1446.6</ele>
        <time>2024-08-09T09:50:36Z</time>
      </trkpt>
      <trkpt lat="45.0814" lon="6.06947">
        <ele>1447</ele>
        <time>2024-08-09T09:50:37Z</time>
      </trkpt>
      <trkpt lat="45.08139" lon="6.06951">
        <ele>1447.2</ele>
        <time>2024-08-09T09:50:38Z</time>
      </trkpt>
      <trkpt lat="45.08139" lon="6.06951">
        <ele>1447.2</ele>
        <time>2024-08-09T09:50:39Z</time>
      </trkpt>
      <trkpt lat="45.08139" lon="6.06955">
        <ele>1447.4</ele>
        <time>2024-08-09T09:50:40Z</time>
      </trkpt>
      <trkpt lat="45.08139" lon="6.06955">
        <ele>1447.4</ele>
        <time>2024-08-09T09:50:41Z</time>
      </trkpt>
      <trkpt lat="45.0814" lon="6.06958">
        <ele>1447.4</ele>
        <time>2024-08-09T09:50:42Z</time>
      </trkpt>
      <trkpt lat="45.0814" lon="6.06958">
        <ele>1447.6</ele>
        <time>2024-08-09T09:50:43Z</time>
      </trkpt>
      <trkpt lat="45.0814" lon="6.06961">
        <ele>1447.8</ele>
        <time>2024-08-09T09:50:44Z</time>
      </trkpt>
      <trkpt lat="45.0814" lon="6.06961">
        <ele>1447.8</ele>
        <time>2024-08-09T09:50:45Z</time>
      </trkpt>
      <trkpt lat="45.0814" lon="6.06964">
        <ele>1447.8</ele>
        <time>2024-08-09T09:50:46Z</time>
      </trkpt>
      <trkpt lat="45.0814" lon="6.06964">
        <ele>1447.8</ele>
        <time>2024-08-09T09:50:47Z</time>
      </trkpt>
      <trkpt lat="45.08139" lon="6.06967">
        <ele>1447.8</ele>
        <time>2024-08-09T09:50:48Z</time>
      </trkpt>
      <trkpt lat="45.08139" lon="6.06967">
        <ele>1447.8</ele>
        <time>2024-08-09T09:50:49Z</time>
      </trkpt>
      <trkpt lat="45.08138" lon="6.0697">
        <ele>1448</ele>
        <time>2024-08-09T09:50:50Z</time>
      </trkpt>
      <trkpt lat="45.08138" lon="6.0697">
        <ele>1448.2</ele>
        <time>2024-08-09T09:50:51Z</time>
      </trkpt>
      <trkpt lat="45.08136" lon="6.06974">
        <ele>1448.2</ele>
        <time>2024-08-09T09:50:52Z</time>
      </trkpt>
      <trkpt lat="45.08136" lon="6.06974">
        <ele>1448.4</ele>
        <time>2024-08-09T09:50:53Z</time>
      </trkpt>
      <trkpt lat="45.08135" lon="6.06977">
        <ele>1448.4</ele>
        <time>2024-08-09T09:50:54Z</time>
      </trkpt>
      <trkpt lat="45.08135" lon="6.06977">
        <ele>1448.6</ele>
        <time>2024-08-09T09:50:55Z</time>
      </trkpt>
      <trkpt lat="45.08134" lon="6.06981">
        <ele>1448.8</ele>
        <time>2024-08-09T09:50:56Z</time>
      </trkpt>
      <trkpt lat="45.08134" lon="6.06981">
        <ele>1448.8</ele>
        <time>2024-08-09T09:50:57Z</time>
      </trkpt>
      <trkpt lat="45.08133" lon="6.06984">
        <ele>1449</ele>
        <time>2024-08-09T09:50:58Z</time>
      </trkpt>
      <trkpt lat="45.08133" lon="6.06984">
        <ele>1449</ele>
        <time>2024-08-09T09:50:59Z</time>
      </trkpt>
      <trkpt lat="45.08133" lon="6.06988">
        <ele>1449.2</ele>
        <time>2024-08-09T09:51:00Z</time>
      </trkpt>
      <trkpt lat="45.08133" lon="6.06988">
        <ele>1449.2</ele>
        <time>2024-08-09T09:51:01Z</time>
      </trkpt>
      <trkpt lat="45.08133" lon="6.06991">
        <ele>1449.2</ele>
        <time>2024-08-09T09:51:02Z</time>
      </trkpt>
      <trkpt lat="45.08133" lon="6.06991">
        <ele>1449.2</ele>
        <time>2024-08-09T09:51:03Z</time>
      </trkpt>
      <trkpt lat="45.08132" lon="6.06995">
        <ele>1449.4</ele>
        <time>2024-08-09T09:51:04Z</time>
      </trkpt>
      <trkpt lat="45.08132" lon="6.06995">
        <ele>1449.4</ele>
        <time>2024-08-09T09:51:05Z</time>
      </trkpt>
      <trkpt lat="45.08132" lon="6.06999">
        <ele>1449.4</ele>
        <time>2024-08-09T09:51:06Z</time>
      </trkpt>
      <trkpt lat="45.08132" lon="6.06999">
        <ele>1449.2</ele>
        <time>2024-08-09T09:51:07Z</time>
      </trkpt>
      <trkpt lat="45.0813" lon="6.07003">
        <ele>1449.2</ele>
        <time>2024-08-09T09:51:08Z</time>
      </trkpt>
      <trkpt lat="45.0813" lon="6.07003">
        <ele>1449.6</ele>
        <time>2024-08-09T09:51:09Z</time>
      </trkpt>
      <trkpt lat="45.08131" lon="6.07007">
        <ele>1449.6</ele>
        <time>2024-08-09T09:51:10Z</time>
      </trkpt>
      <trkpt lat="45.08131" lon="6.07007">
        <ele>1449.6</ele>
        <time>2024-08-09T09:51:11Z</time>
      </trkpt>
      <trkpt lat="45.08131" lon="6.0701">
        <ele>1449.4</ele>
        <time>2024-08-09T09:51:12Z</time>
      </trkpt>
      <trkpt lat="45.08131" lon="6.0701">
        <ele>1449.4</ele>
        <time>2024-08-09T09:51:13Z</time>
      </trkpt>
      <trkpt lat="45.08131" lon="6.07014">
        <ele>1449.4</ele>
        <time>2024-08-09T09:51:14Z</time>
      </trkpt>
      <trkpt lat="45.08131" lon="6.07014">
        <ele>1449.4</ele>
        <time>2024-08-09T09:51:15Z</time>
      </trkpt>
      <trkpt lat="45.08132" lon="6.07017">
        <ele>1449.4</ele>
        <time>2024-08-09T09:51:16Z</time>
      </trkpt>
      <trkpt lat="45.08132" lon="6.07017">
        <ele>1449.6</ele>
        <time>2024-08-09T09:51:17Z</time>
      </trkpt>
      <trkpt lat="45.08132" lon="6.0702">
        <ele>1449.6</ele>
        <time>2024-08-09T09:51:18Z</time>
      </trkpt>
      <trkpt lat="45.08132" lon="6.0702">
        <ele>1449.6</ele>
        <time>2024-08-09T09:51:19Z</time>
      </trkpt>
      <trkpt lat="45.08132" lon="6.0702">
        <ele>1450</ele>
        <time>2024-08-09T09:51:20Z</time>
      </trkpt>
      <trkpt lat="45.08132" lon="6.07024">
        <ele>1450.2</ele>
        <time>2024-08-09T09:51:21Z</time>
      </trkpt>
      <trkpt lat="45.08132" lon="6.07024">
        <ele>1450.2</ele>
        <time>2024-08-09T09:51:22Z</time>
      </trkpt>
      <trkpt lat="45.08132" lon="6.07027">
        <ele>1450.2</ele>
        <time>2024-08-09T09:51:23Z</time>
      </trkpt>
      <trkpt lat="45.08132" lon="6.07027">
        <ele>1450.2</ele>
        <time>2024-08-09T09:51:24Z</time>
      </trkpt>
      <trkpt lat="45.08132" lon="6.07031">
        <ele>1450.2</ele>
        <time>2024-08-09T09:51:25Z</time>
      </trkpt>
      <trkpt lat="45.08132" lon="6.07031">
        <ele>1450.4</ele>
        <time>2024-08-09T09:51:26Z</time>
      </trkpt>
      <trkpt lat="45.08133" lon="6.07035">
        <ele>1450.4</ele>
        <time>2024-08-09T09:51:27Z</time>
      </trkpt>
      <trkpt lat="45.08133" lon="6.07035">
        <ele>1450.4</ele>
        <time>2024-08-09T09:51:28Z</time>
      </trkpt>
      <trkpt lat="45.08133" lon="6.07039">
        <ele>1450.4</ele>
        <time>2024-08-09T09:51:29Z</time>
      </trkpt>
      <trkpt lat="45.08133" lon="6.07039">
        <ele>1450.8</ele>
        <time>2024-08-09T09:51:30Z</time>
      </trkpt>
      <trkpt lat="45.08133" lon="6.07041">
        <ele>1450.8</ele>
        <time>2024-08-09T09:51:31Z</time>
      </trkpt>
      <trkpt lat="45.08133" lon="6.07041">
        <ele>1450.8</ele>
        <time>2024-08-09T09:51:32Z</time>
      </trkpt>
      <trkpt lat="45.08133" lon="6.07044">
        <ele>1451</ele>
        <time>2024-08-09T09:51:33Z</time>
      </trkpt>
      <trkpt lat="45.08133" lon="6.07044">
        <ele>1451</ele>
        <time>2024-08-09T09:51:34Z</time>
      </trkpt>
      <trkpt lat="45.08133" lon="6.07047">
        <ele>1451.2</ele>
        <time>2024-08-09T09:51:35Z</time>
      </trkpt>
      <trkpt lat="45.08133" lon="6.07047">
        <ele>1451.2</ele>
        <time>2024-08-09T09:51:36Z</time>
      </trkpt>
      <trkpt lat="45.08133" lon="6.07051">
        <ele>1451.2</ele>
        <time>2024-08-09T09:51:37Z</time>
      </trkpt>
      <trkpt lat="45.08133" lon="6.07051">
        <ele>1451.2</ele>
        <time>2024-08-09T09:51:38Z</time>
      </trkpt>
      <trkpt lat="45.08133" lon="6.07054">
        <ele>1451.4</ele>
        <time>2024-08-09T09:51:39Z</time>
      </trkpt>
      <trkpt lat="45.08133" lon="6.07054">
        <ele>1451.8</ele>
        <time>2024-08-09T09:51:40Z</time>
      </trkpt>
      <trkpt lat="45.08132" lon="6.07057">
        <ele>1451.8</ele>
        <time>2024-08-09T09:51:41Z</time>
      </trkpt>
      <trkpt lat="45.08132" lon="6.07057">
        <ele>1451.8</ele>
        <time>2024-08-09T09:51:42Z</time>
      </trkpt>
      <trkpt lat="45.08132" lon="6.0706">
        <ele>1452.2</ele>
        <time>2024-08-09T09:51:43Z</time>
      </trkpt>
      <trkpt lat="45.08132" lon="6.0706">
        <ele>1452.4</ele>
        <time>2024-08-09T09:51:44Z</time>
      </trkpt>
      <trkpt lat="45.08133" lon="6.07063">
        <ele>1452.6</ele>
        <time>2024-08-09T09:51:45Z</time>
      </trkpt>
      <trkpt lat="45.08133" lon="6.07063">
        <ele>1452.6</ele>
        <time>2024-08-09T09:51:46Z</time>
      </trkpt>
      <trkpt lat="45.08134" lon="6.07065">
        <ele>1452.8</ele>
        <time>2024-08-09T09:51:47Z</time>
      </trkpt>
      <trkpt lat="45.08134" lon="6.07065">
        <ele>1453</ele>
        <time>2024-08-09T09:51:48Z</time>
      </trkpt>
      <trkpt lat="45.08134" lon="6.07068">
        <ele>1453</ele>
        <time>2024-08-09T09:51:49Z</time>
      </trkpt>
      <trkpt lat="45.08134" lon="6.07068">
        <ele>1453</ele>
        <time>2024-08-09T09:51:50Z</time>
      </trkpt>
      <trkpt lat="45.08134" lon="6.07068">
        <ele>1453</ele>
        <time>2024-08-09T09:51:51Z</time>
      </trkpt>
      <trkpt lat="45.08135" lon="6.07071">
        <ele>1453.2</ele>
        <time>2024-08-09T09:51:52Z</time>
      </trkpt>
      <trkpt lat="45.08135" lon="6.07071">
        <ele>1453.4</ele>
        <time>2024-08-09T09:51:53Z</time>
      </trkpt>
      <trkpt lat="45.08135" lon="6.07071">
        <ele>1453.6</ele>
        <time>2024-08-09T09:51:54Z</time>
      </trkpt>
      <trkpt lat="45.08136" lon="6.07075">
        <ele>1453.8</ele>
        <time>2024-08-09T09:51:55Z</time>
      </trkpt>
      <trkpt lat="45.08136" lon="6.07075">
        <ele>1454</ele>
        <time>2024-08-09T09:51:56Z</time>
      </trkpt>
      <trkpt lat="45.08137" lon="6.07077">
        <ele>1454.2</ele>
        <time>2024-08-09T09:51:57Z</time>
      </trkpt>
      <trkpt lat="45.08137" lon="6.07077">
        <ele>1454.4</ele>
        <time>2024-08-09T09:51:58Z</time>
      </trkpt>
      <trkpt lat="45.08137" lon="6.07077">
        <ele>1454.6</ele>
        <time>2024-08-09T09:51:59Z</time>
      </trkpt>
      <trkpt lat="45.08139" lon="6.0708">
        <ele>1454.6</ele>
        <time>2024-08-09T09:52:00Z</time>
      </trkpt>
      <trkpt lat="45.08139" lon="6.0708">
        <ele>1454.8</ele>
        <time>2024-08-09T09:52:01Z</time>
      </trkpt>
      <trkpt lat="45.0814" lon="6.07082">
        <ele>1455.2</ele>
        <time>2024-08-09T09:52:02Z</time>
      </trkpt>
      <trkpt lat="45.0814" lon="6.07082">
        <ele>1455.2</ele>
        <time>2024-08-09T09:52:03Z</time>
      </trkpt>
      <trkpt lat="45.0814" lon="6.07085">
        <ele>1455.6</ele>
        <time>2024-08-09T09:52:04Z</time>
      </trkpt>
      <trkpt lat="45.0814" lon="6.07085">
        <ele>1455.8</ele>
        <time>2024-08-09T09:52:05Z</time>
      </trkpt>
      <trkpt lat="45.08141" lon="6.07088">
        <ele>1456.2</ele>
        <time>2024-08-09T09:52:06Z</time>
      </trkpt>
      <trkpt lat="45.08141" lon="6.07088">
        <ele>1456.4</ele>
        <time>2024-08-09T09:52:07Z</time>
      </trkpt>
      <trkpt lat="45.08142" lon="6.07092">
        <ele>1456.4</ele>
        <time>2024-08-09T09:52:08Z</time>
      </trkpt>
      <trkpt lat="45.08142" lon="6.07092">
        <ele>1456.4</ele>
        <time>2024-08-09T09:52:09Z</time>
      </trkpt>
      <trkpt lat="45.08143" lon="6.07096">
        <ele>1456.4</ele>
        <time>2024-08-09T09:52:10Z</time>
      </trkpt>
      <trkpt lat="45.08143" lon="6.07096">
        <ele>1456.4</ele>
        <time>2024-08-09T09:52:11Z</time>
      </trkpt>
      <trkpt lat="45.08142" lon="6.07099">
        <ele>1456.4</ele>
        <time>2024-08-09T09:52:12Z</time>
      </trkpt>
      <trkpt lat="45.08142" lon="6.07099">
        <ele>1456.4</ele>
        <time>2024-08-09T09:52:13Z</time>
      </trkpt>
      <trkpt lat="45.08142" lon="6.07102">
        <ele>1456.6</ele>
        <time>2024-08-09T09:52:14Z</time>
      </trkpt>
      <trkpt lat="45.08142" lon="6.07102">
        <ele>1456.6</ele>
        <time>2024-08-09T09:52:15Z</time>
      </trkpt>
      <trkpt lat="45.08143" lon="6.07106">
        <ele>1456.6</ele>
        <time>2024-08-09T09:52:16Z</time>
      </trkpt>
      <trkpt lat="45.08143" lon="6.07106">
        <ele>1457.2</ele>
        <time>2024-08-09T09:52:17Z</time>
      </trkpt>
      <trkpt lat="45.08144" lon="6.07109">
        <ele>1457.2</ele>
        <time>2024-08-09T09:52:18Z</time>
      </trkpt>
      <trkpt lat="45.08144" lon="6.07109">
        <ele>1457.2</ele>
        <time>2024-08-09T09:52:19Z</time>
      </trkpt>
      <trkpt lat="45.08143" lon="6.07112">
        <ele>1457.4</ele>
        <time>2024-08-09T09:52:20Z</time>
      </trkpt>
      <trkpt lat="45.08143" lon="6.07112">
        <ele>1457.4</ele>
        <time>2024-08-09T09:52:21Z</time>
      </trkpt>
      <trkpt lat="45.08143" lon="6.07114">
        <ele>1457.6</ele>
        <time>2024-08-09T09:52:22Z</time>
      </trkpt>
      <trkpt lat="45.08143" lon="6.07114">
        <ele>1458</ele>
        <time>2024-08-09T09:52:23Z</time>
      </trkpt>
      <trkpt lat="45.08144" lon="6.07118">
        <ele>1458</ele>
        <time>2024-08-09T09:52:24Z</time>
      </trkpt>
      <trkpt lat="45.08144" lon="6.07118">
        <ele>1458</ele>
        <time>2024-08-09T09:52:25Z</time>
      </trkpt>
      <trkpt lat="45.08145" lon="6.07122">
        <ele>1458.2</ele>
        <time>2024-08-09T09:52:26Z</time>
      </trkpt>
      <trkpt lat="45.08146" lon="6.07124">
        <ele>1458</ele>
        <time>2024-08-09T09:52:27Z</time>
      </trkpt>
      <trkpt lat="45.08146" lon="6.07124">
        <ele>1458.2</ele>
        <time>2024-08-09T09:52:28Z</time>
      </trkpt>
      <trkpt lat="45.08148" lon="6.07127">
        <ele>1458.2</ele>
        <time>2024-08-09T09:52:29Z</time>
      </trkpt>
      <trkpt lat="45.08148" lon="6.07127">
        <ele>1458.2</ele>
        <time>2024-08-09T09:52:30Z</time>
      </trkpt>
      <trkpt lat="45.08149" lon="6.07131">
        <ele>1458.4</ele>
        <time>2024-08-09T09:52:31Z</time>
      </trkpt>
      <trkpt lat="45.08149" lon="6.07131">
        <ele>1458.4</ele>
        <time>2024-08-09T09:52:32Z</time>
      </trkpt>
      <trkpt lat="45.08151" lon="6.07134">
        <ele>1458.4</ele>
        <time>2024-08-09T09:52:33Z</time>
      </trkpt>
      <trkpt lat="45.08151" lon="6.07134">
        <ele>1458.6</ele>
        <time>2024-08-09T09:52:34Z</time>
      </trkpt>
      <trkpt lat="45.08152" lon="6.07137">
        <ele>1459</ele>
        <time>2024-08-09T09:52:35Z</time>
      </trkpt>
      <trkpt lat="45.08152" lon="6.07137">
        <ele>1459.2</ele>
        <time>2024-08-09T09:52:36Z</time>
      </trkpt>
      <trkpt lat="45.08154" lon="6.0714">
        <ele>1459.2</ele>
        <time>2024-08-09T09:52:37Z</time>
      </trkpt>
      <trkpt lat="45.08154" lon="6.0714">
        <ele>1459.2</ele>
        <time>2024-08-09T09:52:38Z</time>
      </trkpt>
      <trkpt lat="45.08155" lon="6.07144">
        <ele>1459</ele>
        <time>2024-08-09T09:52:39Z</time>
      </trkpt>
      <trkpt lat="45.08155" lon="6.07144">
        <ele>1459</ele>
        <time>2024-08-09T09:52:40Z</time>
      </trkpt>
      <trkpt lat="45.08156" lon="6.07146">
        <ele>1459.2</ele>
        <time>2024-08-09T09:52:41Z</time>
      </trkpt>
      <trkpt lat="45.08156" lon="6.07146">
        <ele>1459.4</ele>
        <time>2024-08-09T09:52:42Z</time>
      </trkpt>
      <trkpt lat="45.08157" lon="6.07148">
        <ele>1459.6</ele>
        <time>2024-08-09T09:52:43Z</time>
      </trkpt>
      <trkpt lat="45.08157" lon="6.07148">
        <ele>1459.6</ele>
        <time>2024-08-09T09:52:44Z</time>
      </trkpt>
      <trkpt lat="45.08157" lon="6.07148">
        <ele>1459.6</ele>
        <time>2024-08-09T09:52:45Z</time>
      </trkpt>
      <trkpt lat="45.08159" lon="6.07151">
        <ele>1459.8</ele>
        <time>2024-08-09T09:52:46Z</time>
      </trkpt>
      <trkpt lat="45.08159" lon="6.07151">
        <ele>1460</ele>
        <time>2024-08-09T09:52:47Z</time>
      </trkpt>
      <trkpt lat="45.08161" lon="6.07154">
        <ele>1460.2</ele>
        <time>2024-08-09T09:52:48Z</time>
      </trkpt>
      <trkpt lat="45.08161" lon="6.07154">
        <ele>1460.4</ele>
        <time>2024-08-09T09:52:49Z</time>
      </trkpt>
      <trkpt lat="45.08161" lon="6.07154">
        <ele>1460.4</ele>
        <time>2024-08-09T09:52:50Z</time>
      </trkpt>
      <trkpt lat="45.08162" lon="6.07155">
        <ele>1460.6</ele>
        <time>2024-08-09T09:52:51Z</time>
      </trkpt>
      <trkpt lat="45.08162" lon="6.07155">
        <ele>1460.6</ele>
        <time>2024-08-09T09:52:52Z</time>
      </trkpt>
      <trkpt lat="45.08162" lon="6.07155">
        <ele>1460.8</ele>
        <time>2024-08-09T09:52:53Z</time>
      </trkpt>
      <trkpt lat="45.08162" lon="6.07153">
        <ele>1461</ele>
        <time>2024-08-09T09:52:54Z</time>
      </trkpt>
      <trkpt lat="45.08162" lon="6.07153">
        <ele>1461.4</ele>
        <time>2024-08-09T09:52:55Z</time>
      </trkpt>
      <trkpt lat="45.0816" lon="6.07151">
        <ele>1461.6</ele>
        <time>2024-08-09T09:52:56Z</time>
      </trkpt>
      <trkpt lat="45.0816" lon="6.07151">
        <ele>1462</ele>
        <time>2024-08-09T09:52:57Z</time>
      </trkpt>
      <trkpt lat="45.08159" lon="6.07148">
        <ele>1462.2</ele>
        <time>2024-08-09T09:52:58Z</time>
      </trkpt>
      <trkpt lat="45.08159" lon="6.07148">
        <ele>1462.6</ele>
        <time>2024-08-09T09:52:59Z</time>
      </trkpt>
      <trkpt lat="45.08159" lon="6.07145">
        <ele>1462.6</ele>
        <time>2024-08-09T09:53:00Z</time>
      </trkpt>
      <trkpt lat="45.08159" lon="6.07145">
        <ele>1462.6</ele>
        <time>2024-08-09T09:53:01Z</time>
      </trkpt>
      <trkpt lat="45.0816" lon="6.07142">
        <ele>1462.4</ele>
        <time>2024-08-09T09:53:02Z</time>
      </trkpt>
      <trkpt lat="45.0816" lon="6.07142">
        <ele>1462.4</ele>
        <time>2024-08-09T09:53:03Z</time>
      </trkpt>
      <trkpt lat="45.0816" lon="6.07139">
        <ele>1462.6</ele>
        <time>2024-08-09T09:53:04Z</time>
      </trkpt>
      <trkpt lat="45.0816" lon="6.07139">
        <ele>1463</ele>
        <time>2024-08-09T09:53:05Z</time>
      </trkpt>
      <trkpt lat="45.08162" lon="6.07138">
        <ele>1463.2</ele>
        <time>2024-08-09T09:53:06Z</time>
      </trkpt>
      <trkpt lat="45.08162" lon="6.07138">
        <ele>1463.4</ele>
        <time>2024-08-09T09:53:07Z</time>
      </trkpt>
      <trkpt lat="45.08162" lon="6.07138">
        <ele>1463.4</ele>
        <time>2024-08-09T09:53:08Z</time>
      </trkpt>
      <trkpt lat="45.08164" lon="6.07139">
        <ele>1463.2</ele>
        <time>2024-08-09T09:53:09Z</time>
      </trkpt>
      <trkpt lat="45.08164" lon="6.07139">
        <ele>1463.2</ele>
        <time>2024-08-09T09:53:10Z</time>
      </trkpt>
      <trkpt lat="45.08164" lon="6.07139">
        <ele>1463.4</ele>
        <time>2024-08-09T09:53:11Z</time>
      </trkpt>
      <trkpt lat="45.08164" lon="6.07143">
        <ele>1463.4</ele>
        <time>2024-08-09T09:53:12Z</time>
      </trkpt>
      <trkpt lat="45.08164" lon="6.07143">
        <ele>1463.6</ele>
        <time>2024-08-09T09:53:13Z</time>
      </trkpt>
      <trkpt lat="45.08165" lon="6.07146">
        <ele>1463.8</ele>
        <time>2024-08-09T09:53:14Z</time>
      </trkpt>
      <trkpt lat="45.08165" lon="6.07146">
        <ele>1464</ele>
        <time>2024-08-09T09:53:15Z</time>
      </trkpt>
      <trkpt lat="45.08165" lon="6.07146">
        <ele>1464</ele>
        <time>2024-08-09T09:53:16Z</time>
      </trkpt>
      <trkpt lat="45.08165" lon="6.07146">
        <ele>1464.2</ele>
        <time>2024-08-09T09:53:17Z</time>
      </trkpt>
      <trkpt lat="45.08165" lon="6.07146">
        <ele>1464.2</ele>
        <time>2024-08-09T09:53:18Z</time>
      </trkpt>
      <trkpt lat="45.08165" lon="6.07146">
        <ele>1464.2</ele>
        <time>2024-08-09T09:53:19Z</time>
      </trkpt>
      <trkpt lat="45.08165" lon="6.07146">
        <ele>1464.4</ele>
        <time>2024-08-09T09:53:20Z</time>
      </trkpt>
      <trkpt lat="45.08165" lon="6.07146">
        <ele>1464.4</ele>
        <time>2024-08-09T09:53:21Z</time>
      </trkpt>
      <trkpt lat="45.08165" lon="6.07146">
        <ele>1464.4</ele>
        <time>2024-08-09T09:53:22Z</time>
      </trkpt>
      <trkpt lat="45.08166" lon="6.07148">
        <ele>1464.4</ele>
        <time>2024-08-09T09:53:23Z</time>
      </trkpt>
      <trkpt lat="45.08166" lon="6.07148">
        <ele>1464.2</ele>
        <time>2024-08-09T09:53:24Z</time>
      </trkpt>
      <trkpt lat="45.08167" lon="6.07153">
        <ele>1464.2</ele>
        <time>2024-08-09T09:53:25Z</time>
      </trkpt>
      <trkpt lat="45.08168" lon="6.07156">
        <ele>1464.4</ele>
        <time>2024-08-09T09:53:26Z</time>
      </trkpt>
      <trkpt lat="45.08168" lon="6.07156">
        <ele>1464.4</ele>
        <time>2024-08-09T09:53:27Z</time>
      </trkpt>
      <trkpt lat="45.08169" lon="6.0716">
        <ele>1464.4</ele>
        <time>2024-08-09T09:53:28Z</time>
      </trkpt>
      <trkpt lat="45.08169" lon="6.0716">
        <ele>1464.6</ele>
        <time>2024-08-09T09:53:29Z</time>
      </trkpt>
      <trkpt lat="45.0817" lon="6.07163">
        <ele>1465</ele>
        <time>2024-08-09T09:53:30Z</time>
      </trkpt>
      <trkpt lat="45.0817" lon="6.07163">
        <ele>1465</ele>
        <time>2024-08-09T09:53:31Z</time>
      </trkpt>
      <trkpt lat="45.0817" lon="6.07163">
        <ele>1465</ele>
        <time>2024-08-09T09:53:32Z</time>
      </trkpt>
      <trkpt lat="45.0817" lon="6.07167">
        <ele>1465.2</ele>
        <time>2024-08-09T09:53:33Z</time>
      </trkpt>
      <trkpt lat="45.0817" lon="6.07167">
        <ele>1465.4</ele>
        <time>2024-08-09T09:53:34Z</time>
      </trkpt>
      <trkpt lat="45.0817" lon="6.0717">
        <ele>1465.8</ele>
        <time>2024-08-09T09:53:35Z</time>
      </trkpt>
      <trkpt lat="45.0817" lon="6.0717">
        <ele>1465.8</ele>
        <time>2024-08-09T09:53:36Z</time>
      </trkpt>
      <trkpt lat="45.08171" lon="6.07174">
        <ele>1465.6</ele>
        <time>2024-08-09T09:53:37Z</time>
      </trkpt>
      <trkpt lat="45.08171" lon="6.07174">
        <ele>1465.6</ele>
        <time>2024-08-09T09:53:38Z</time>
      </trkpt>
      <trkpt lat="45.08173" lon="6.07178">
        <ele>1465.8</ele>
        <time>2024-08-09T09:53:39Z</time>
      </trkpt>
      <trkpt lat="45.08173" lon="6.07178">
        <ele>1466</ele>
        <time>2024-08-09T09:53:40Z</time>
      </trkpt>
      <trkpt lat="45.08173" lon="6.07181">
        <ele>1466</ele>
        <time>2024-08-09T09:53:41Z</time>
      </trkpt>
      <trkpt lat="45.08173" lon="6.07181">
        <ele>1466.2</ele>
        <time>2024-08-09T09:53:42Z</time>
      </trkpt>
      <trkpt lat="45.08174" lon="6.07185">
        <ele>1466.4</ele>
        <time>2024-08-09T09:53:43Z</time>
      </trkpt>
      <trkpt lat="45.08174" lon="6.07185">
        <ele>1466.6</ele>
        <time>2024-08-09T09:53:44Z</time>
      </trkpt>
      <trkpt lat="45.08175" lon="6.07188">
        <ele>1466.6</ele>
        <time>2024-08-09T09:53:45Z</time>
      </trkpt>
      <trkpt lat="45.08175" lon="6.07188">
        <ele>1467</ele>
        <time>2024-08-09T09:53:46Z</time>
      </trkpt>
      <trkpt lat="45.08177" lon="6.07191">
        <ele>1467</ele>
        <time>2024-08-09T09:53:47Z</time>
      </trkpt>
      <trkpt lat="45.08177" lon="6.07191">
        <ele>1467</ele>
        <time>2024-08-09T09:53:48Z</time>
      </trkpt>
      <trkpt lat="45.08178" lon="6.07193">
        <ele>1467</ele>
        <time>2024-08-09T09:53:49Z</time>
      </trkpt>
      <trkpt lat="45.08178" lon="6.07193">
        <ele>1466.8</ele>
        <time>2024-08-09T09:53:50Z</time>
      </trkpt>
      <trkpt lat="45.0818" lon="6.07197">
        <ele>1467</ele>
        <time>2024-08-09T09:53:51Z</time>
      </trkpt>
      <trkpt lat="45.0818" lon="6.07197">
        <ele>1467.2</ele>
        <time>2024-08-09T09:53:52Z</time>
      </trkpt>
      <trkpt lat="45.08181" lon="6.072">
        <ele>1467.4</ele>
        <time>2024-08-09T09:53:53Z</time>
      </trkpt>
      <trkpt lat="45.08181" lon="6.072">
        <ele>1467.4</ele>
        <time>2024-08-09T09:53:54Z</time>
      </trkpt>
      <trkpt lat="45.08182" lon="6.07202">
        <ele>1467.6</ele>
        <time>2024-08-09T09:53:55Z</time>
      </trkpt>
      <trkpt lat="45.08182" lon="6.07202">
        <ele>1467.8</ele>
        <time>2024-08-09T09:53:56Z</time>
      </trkpt>
      <trkpt lat="45.08183" lon="6.07205">
        <ele>1468</ele>
        <time>2024-08-09T09:53:57Z</time>
      </trkpt>
      <trkpt lat="45.08183" lon="6.07205">
        <ele>1468</ele>
        <time>2024-08-09T09:53:58Z</time>
      </trkpt>
      <trkpt lat="45.08184" lon="6.07209">
        <ele>1468.6</ele>
        <time>2024-08-09T09:53:59Z</time>
      </trkpt>
      <trkpt lat="45.08184" lon="6.07209">
        <ele>1468.6</ele>
        <time>2024-08-09T09:54:00Z</time>
      </trkpt>
      <trkpt lat="45.08185" lon="6.07212">
        <ele>1468.6</ele>
        <time>2024-08-09T09:54:01Z</time>
      </trkpt>
      <trkpt lat="45.08185" lon="6.07212">
        <ele>1468.2</ele>
        <time>2024-08-09T09:54:02Z</time>
      </trkpt>
      <trkpt lat="45.08186" lon="6.07215">
        <ele>1468.2</ele>
        <time>2024-08-09T09:54:03Z</time>
      </trkpt>
      <trkpt lat="45.08186" lon="6.07215">
        <ele>1468.4</ele>
        <time>2024-08-09T09:54:04Z</time>
      </trkpt>
      <trkpt lat="45.08187" lon="6.07217">
        <ele>1468.8</ele>
        <time>2024-08-09T09:54:05Z</time>
      </trkpt>
      <trkpt lat="45.08187" lon="6.07217">
        <ele>1469.2</ele>
        <time>2024-08-09T09:54:06Z</time>
      </trkpt>
      <trkpt lat="45.08188" lon="6.0722">
        <ele>1469.4</ele>
        <time>2024-08-09T09:54:07Z</time>
      </trkpt>
      <trkpt lat="45.08188" lon="6.0722">
        <ele>1469.4</ele>
        <time>2024-08-09T09:54:08Z</time>
      </trkpt>
      <trkpt lat="45.0819" lon="6.07222">
        <ele>1469.4</ele>
        <time>2024-08-09T09:54:09Z</time>
      </trkpt>
      <trkpt lat="45.0819" lon="6.07222">
        <ele>1469.4</ele>
        <time>2024-08-09T09:54:10Z</time>
      </trkpt>
      <trkpt lat="45.0819" lon="6.07225">
        <ele>1469.4</ele>
        <time>2024-08-09T09:54:11Z</time>
      </trkpt>
      <trkpt lat="45.0819" lon="6.07225">
        <ele>1469.4</ele>
        <time>2024-08-09T09:54:12Z</time>
      </trkpt>
      <trkpt lat="45.08193" lon="6.07227">
        <ele>1469.4</ele>
        <time>2024-08-09T09:54:13Z</time>
      </trkpt>
      <trkpt lat="45.08193" lon="6.07227">
        <ele>1469.6</ele>
        <time>2024-08-09T09:54:14Z</time>
      </trkpt>
      <trkpt lat="45.08195" lon="6.07229">
        <ele>1469.8</ele>
        <time>2024-08-09T09:54:15Z</time>
      </trkpt>
      <trkpt lat="45.08195" lon="6.07229">
        <ele>1469.8</ele>
        <time>2024-08-09T09:54:16Z</time>
      </trkpt>
      <trkpt lat="45.08196" lon="6.07232">
        <ele>1470</ele>
        <time>2024-08-09T09:54:17Z</time>
      </trkpt>
      <trkpt lat="45.08196" lon="6.07232">
        <ele>1470.2</ele>
        <time>2024-08-09T09:54:18Z</time>
      </trkpt>
      <trkpt lat="45.08197" lon="6.07235">
        <ele>1470.4</ele>
        <time>2024-08-09T09:54:19Z</time>
      </trkpt>
      <trkpt lat="45.08197" lon="6.07235">
        <ele>1470.4</ele>
        <time>2024-08-09T09:54:20Z</time>
      </trkpt>
      <trkpt lat="45.08199" lon="6.07237">
        <ele>1470.8</ele>
        <time>2024-08-09T09:54:21Z</time>
      </trkpt>
      <trkpt lat="45.08199" lon="6.07237">
        <ele>1471</ele>
        <time>2024-08-09T09:54:22Z</time>
      </trkpt>
      <trkpt lat="45.08201" lon="6.0724">
        <ele>1471.2</ele>
        <time>2024-08-09T09:54:23Z</time>
      </trkpt>
      <trkpt lat="45.08201" lon="6.0724">
        <ele>1471.2</ele>
        <time>2024-08-09T09:54:24Z</time>
      </trkpt>
      <trkpt lat="45.08202" lon="6.07243">
        <ele>1471.2</ele>
        <time>2024-08-09T09:54:25Z</time>
      </trkpt>
      <trkpt lat="45.08202" lon="6.07243">
        <ele>1471.6</ele>
        <time>2024-08-09T09:54:26Z</time>
      </trkpt>
      <trkpt lat="45.08203" lon="6.07246">
        <ele>1472</ele>
        <time>2024-08-09T09:54:27Z</time>
      </trkpt>
      <trkpt lat="45.08203" lon="6.07246">
        <ele>1472</ele>
        <time>2024-08-09T09:54:28Z</time>
      </trkpt>
      <trkpt lat="45.08204" lon="6.0725">
        <ele>1472</ele>
        <time>2024-08-09T09:54:29Z</time>
      </trkpt>
      <trkpt lat="45.08204" lon="6.0725">
        <ele>1471.8</ele>
        <time>2024-08-09T09:54:30Z</time>
      </trkpt>
      <trkpt lat="45.08205" lon="6.07253">
        <ele>1471.6</ele>
        <time>2024-08-09T09:54:31Z</time>
      </trkpt>
      <trkpt lat="45.08205" lon="6.07253">
        <ele>1471.6</ele>
        <time>2024-08-09T09:54:32Z</time>
      </trkpt>
      <trkpt lat="45.08205" lon="6.07258">
        <ele>1472</ele>
        <time>2024-08-09T09:54:33Z</time>
      </trkpt>
      <trkpt lat="45.08205" lon="6.07258">
        <ele>1472.2</ele>
        <time>2024-08-09T09:54:34Z</time>
      </trkpt>
      <trkpt lat="45.08206" lon="6.07261">
        <ele>1472.4</ele>
        <time>2024-08-09T09:54:35Z</time>
      </trkpt>
      <trkpt lat="45.08206" lon="6.07261">
        <ele>1472.4</ele>
        <time>2024-08-09T09:54:36Z</time>
      </trkpt>
      <trkpt lat="45.08206" lon="6.07264">
        <ele>1472.6</ele>
        <time>2024-08-09T09:54:37Z</time>
      </trkpt>
      <trkpt lat="45.08206" lon="6.07264">
        <ele>1472.4</ele>
        <time>2024-08-09T09:54:38Z</time>
      </trkpt>
      <trkpt lat="45.08205" lon="6.07267">
        <ele>1472.4</ele>
        <time>2024-08-09T09:54:39Z</time>
      </trkpt>
      <trkpt lat="45.08205" lon="6.07267">
        <ele>1472.4</ele>
        <time>2024-08-09T09:54:40Z</time>
      </trkpt>
      <trkpt lat="45.08205" lon="6.07271">
        <ele>1472.4</ele>
        <time>2024-08-09T09:54:41Z</time>
      </trkpt>
      <trkpt lat="45.08205" lon="6.07271">
        <ele>1472.6</ele>
        <time>2024-08-09T09:54:42Z</time>
      </trkpt>
      <trkpt lat="45.08205" lon="6.07271">
        <ele>1472.8</ele>
        <time>2024-08-09T09:54:43Z</time>
      </trkpt>
      <trkpt lat="45.08206" lon="6.07274">
        <ele>1473</ele>
        <time>2024-08-09T09:54:44Z</time>
      </trkpt>
      <trkpt lat="45.08206" lon="6.07274">
        <ele>1473</ele>
        <time>2024-08-09T09:54:45Z</time>
      </trkpt>
      <trkpt lat="45.08206" lon="6.07277">
        <ele>1473</ele>
        <time>2024-08-09T09:54:46Z</time>
      </trkpt>
      <trkpt lat="45.08206" lon="6.07277">
        <ele>1473.4</ele>
        <time>2024-08-09T09:54:47Z</time>
      </trkpt>
      <trkpt lat="45.08206" lon="6.07281">
        <ele>1473.8</ele>
        <time>2024-08-09T09:54:48Z</time>
      </trkpt>
      <trkpt lat="45.08206" lon="6.07281">
        <ele>1473.8</ele>
        <time>2024-08-09T09:54:49Z</time>
      </trkpt>
      <trkpt lat="45.08206" lon="6.07284">
        <ele>1473.8</ele>
        <time>2024-08-09T09:54:50Z</time>
      </trkpt>
      <trkpt lat="45.08206" lon="6.07284">
        <ele>1473.8</ele>
        <time>2024-08-09T09:54:51Z</time>
      </trkpt>
      <trkpt lat="45.08205" lon="6.07287">
        <ele>1473.8</ele>
        <time>2024-08-09T09:54:52Z</time>
      </trkpt>
      <trkpt lat="45.08205" lon="6.07287">
        <ele>1474.2</ele>
        <time>2024-08-09T09:54:53Z</time>
      </trkpt>
      <trkpt lat="45.08205" lon="6.0729">
        <ele>1474.2</ele>
        <time>2024-08-09T09:54:54Z</time>
      </trkpt>
      <trkpt lat="45.08205" lon="6.0729">
        <ele>1474.2</ele>
        <time>2024-08-09T09:54:55Z</time>
      </trkpt>
      <trkpt lat="45.08205" lon="6.07293">
        <ele>1474.4</ele>
        <time>2024-08-09T09:54:56Z</time>
      </trkpt>
      <trkpt lat="45.08205" lon="6.07293">
        <ele>1474.6</ele>
        <time>2024-08-09T09:54:57Z</time>
      </trkpt>
      <trkpt lat="45.08205" lon="6.07297">
        <ele>1474.6</ele>
        <time>2024-08-09T09:54:58Z</time>
      </trkpt>
      <trkpt lat="45.08205" lon="6.07297">
        <ele>1475</ele>
        <time>2024-08-09T09:54:59Z</time>
      </trkpt>
      <trkpt lat="45.08205" lon="6.07299">
        <ele>1475.2</ele>
        <time>2024-08-09T09:55:00Z</time>
      </trkpt>
      <trkpt lat="45.08205" lon="6.07299">
        <ele>1475.4</ele>
        <time>2024-08-09T09:55:01Z</time>
      </trkpt>
      <trkpt lat="45.08205" lon="6.07302">
        <ele>1475.2</ele>
        <time>2024-08-09T09:55:02Z</time>
      </trkpt>
      <trkpt lat="45.08205" lon="6.07302">
        <ele>1475.2</ele>
        <time>2024-08-09T09:55:03Z</time>
      </trkpt>
      <trkpt lat="45.08206" lon="6.07306">
        <ele>1475.4</ele>
        <time>2024-08-09T09:55:04Z</time>
      </trkpt>
      <trkpt lat="45.08206" lon="6.07306">
        <ele>1475.6</ele>
        <time>2024-08-09T09:55:05Z</time>
      </trkpt>
      <trkpt lat="45.08206" lon="6.07309">
        <ele>1476</ele>
        <time>2024-08-09T09:55:06Z</time>
      </trkpt>
      <trkpt lat="45.08206" lon="6.07309">
        <ele>1476</ele>
        <time>2024-08-09T09:55:07Z</time>
      </trkpt>
      <trkpt lat="45.08206" lon="6.07312">
        <ele>1476</ele>
        <time>2024-08-09T09:55:08Z</time>
      </trkpt>
      <trkpt lat="45.08206" lon="6.07312">
        <ele>1476</ele>
        <time>2024-08-09T09:55:09Z</time>
      </trkpt>
      <trkpt lat="45.08206" lon="6.07316">
        <ele>1476.2</ele>
        <time>2024-08-09T09:55:10Z</time>
      </trkpt>
      <trkpt lat="45.08206" lon="6.07316">
        <ele>1476.4</ele>
        <time>2024-08-09T09:55:11Z</time>
      </trkpt>
      <trkpt lat="45.08206" lon="6.07319">
        <ele>1476.4</ele>
        <time>2024-08-09T09:55:12Z</time>
      </trkpt>
      <trkpt lat="45.08206" lon="6.07319">
        <ele>1476.4</ele>
        <time>2024-08-09T09:55:13Z</time>
      </trkpt>
      <trkpt lat="45.08206" lon="6.07322">
        <ele>1476.4</ele>
        <time>2024-08-09T09:55:14Z</time>
      </trkpt>
      <trkpt lat="45.08206" lon="6.07322">
        <ele>1476.4</ele>
        <time>2024-08-09T09:55:15Z</time>
      </trkpt>
      <trkpt lat="45.08206" lon="6.07325">
        <ele>1476.6</ele>
        <time>2024-08-09T09:55:16Z</time>
      </trkpt>
      <trkpt lat="45.08206" lon="6.07325">
        <ele>1476.6</ele>
        <time>2024-08-09T09:55:17Z</time>
      </trkpt>
      <trkpt lat="45.08207" lon="6.07329">
        <ele>1476.6</ele>
        <time>2024-08-09T09:55:18Z</time>
      </trkpt>
      <trkpt lat="45.08207" lon="6.07329">
        <ele>1476.8</ele>
        <time>2024-08-09T09:55:19Z</time>
      </trkpt>
      <trkpt lat="45.08207" lon="6.07332">
        <ele>1476.8</ele>
        <time>2024-08-09T09:55:20Z</time>
      </trkpt>
      <trkpt lat="45.08207" lon="6.07332">
        <ele>1477</ele>
        <time>2024-08-09T09:55:21Z</time>
      </trkpt>
      <trkpt lat="45.08208" lon="6.07335">
        <ele>1477</ele>
        <time>2024-08-09T09:55:22Z</time>
      </trkpt>
      <trkpt lat="45.08208" lon="6.07335">
        <ele>1477.2</ele>
        <time>2024-08-09T09:55:23Z</time>
      </trkpt>
      <trkpt lat="45.08209" lon="6.07337">
        <ele>1477.4</ele>
        <time>2024-08-09T09:55:24Z</time>
      </trkpt>
      <trkpt lat="45.08209" lon="6.07337">
        <ele>1477.4</ele>
        <time>2024-08-09T09:55:25Z</time>
      </trkpt>
      <trkpt lat="45.0821" lon="6.07341">
        <ele>1477.6</ele>
        <time>2024-08-09T09:55:26Z</time>
      </trkpt>
      <trkpt lat="45.0821" lon="6.07341">
        <ele>1477.8</ele>
        <time>2024-08-09T09:55:27Z</time>
      </trkpt>
      <trkpt lat="45.0821" lon="6.07344">
        <ele>1478</ele>
        <time>2024-08-09T09:55:28Z</time>
      </trkpt>
      <trkpt lat="45.0821" lon="6.07344">
        <ele>1478.4</ele>
        <time>2024-08-09T09:55:29Z</time>
      </trkpt>
      <trkpt lat="45.08211" lon="6.07347">
        <ele>1478.4</ele>
        <time>2024-08-09T09:55:30Z</time>
      </trkpt>
      <trkpt lat="45.08211" lon="6.07347">
        <ele>1478.4</ele>
        <time>2024-08-09T09:55:31Z</time>
      </trkpt>
      <trkpt lat="45.08212" lon="6.0735">
        <ele>1478.6</ele>
        <time>2024-08-09T09:55:32Z</time>
      </trkpt>
      <trkpt lat="45.08212" lon="6.0735">
        <ele>1478.8</ele>
        <time>2024-08-09T09:55:33Z</time>
      </trkpt>
      <trkpt lat="45.08212" lon="6.07353">
        <ele>1478.8</ele>
        <time>2024-08-09T09:55:34Z</time>
      </trkpt>
      <trkpt lat="45.08212" lon="6.07353">
        <ele>1479</ele>
        <time>2024-08-09T09:55:35Z</time>
      </trkpt>
      <trkpt lat="45.08213" lon="6.07355">
        <ele>1478.8</ele>
        <time>2024-08-09T09:55:36Z</time>
      </trkpt>
      <trkpt lat="45.08213" lon="6.07355">
        <ele>1479.2</ele>
        <time>2024-08-09T09:55:37Z</time>
      </trkpt>
      <trkpt lat="45.08213" lon="6.07359">
        <ele>1479.2</ele>
        <time>2024-08-09T09:55:38Z</time>
      </trkpt>
      <trkpt lat="45.08213" lon="6.07359">
        <ele>1479.4</ele>
        <time>2024-08-09T09:55:39Z</time>
      </trkpt>
      <trkpt lat="45.08214" lon="6.07362">
        <ele>1479.6</ele>
        <time>2024-08-09T09:55:40Z</time>
      </trkpt>
      <trkpt lat="45.08214" lon="6.07362">
        <ele>1479.8</ele>
        <time>2024-08-09T09:55:41Z</time>
      </trkpt>
      <trkpt lat="45.08215" lon="6.07365">
        <ele>1479.8</ele>
        <time>2024-08-09T09:55:42Z</time>
      </trkpt>
      <trkpt lat="45.08215" lon="6.07365">
        <ele>1479.8</ele>
        <time>2024-08-09T09:55:43Z</time>
      </trkpt>
      <trkpt lat="45.08216" lon="6.07369">
        <ele>1480</ele>
        <time>2024-08-09T09:55:44Z</time>
      </trkpt>
      <trkpt lat="45.08216" lon="6.07369">
        <ele>1480</ele>
        <time>2024-08-09T09:55:45Z</time>
      </trkpt>
      <trkpt lat="45.08217" lon="6.07372">
        <ele>1480</ele>
        <time>2024-08-09T09:55:46Z</time>
      </trkpt>
      <trkpt lat="45.08217" lon="6.07372">
        <ele>1480.4</ele>
        <time>2024-08-09T09:55:47Z</time>
      </trkpt>
      <trkpt lat="45.08218" lon="6.07376">
        <ele>1480.2</ele>
        <time>2024-08-09T09:55:48Z</time>
      </trkpt>
      <trkpt lat="45.08218" lon="6.07376">
        <ele>1480.4</ele>
        <time>2024-08-09T09:55:49Z</time>
      </trkpt>
      <trkpt lat="45.08218" lon="6.07379">
        <ele>1480.4</ele>
        <time>2024-08-09T09:55:50Z</time>
      </trkpt>
      <trkpt lat="45.08218" lon="6.07379">
        <ele>1480.8</ele>
        <time>2024-08-09T09:55:51Z</time>
      </trkpt>
      <trkpt lat="45.08218" lon="6.07383">
        <ele>1481.2</ele>
        <time>2024-08-09T09:55:52Z</time>
      </trkpt>
      <trkpt lat="45.08218" lon="6.07383">
        <ele>1481.2</ele>
        <time>2024-08-09T09:55:53Z</time>
      </trkpt>
      <trkpt lat="45.08219" lon="6.07386">
        <ele>1481.2</ele>
        <time>2024-08-09T09:55:54Z</time>
      </trkpt>
      <trkpt lat="45.08219" lon="6.07386">
        <ele>1481.2</ele>
        <time>2024-08-09T09:55:55Z</time>
      </trkpt>
      <trkpt lat="45.08219" lon="6.07389">
        <ele>1481.2</ele>
        <time>2024-08-09T09:55:56Z</time>
      </trkpt>
      <trkpt lat="45.08219" lon="6.07389">
        <ele>1481.2</ele>
        <time>2024-08-09T09:55:57Z</time>
      </trkpt>
      <trkpt lat="45.0822" lon="6.07393">
        <ele>1481.2</ele>
        <time>2024-08-09T09:55:58Z</time>
      </trkpt>
      <trkpt lat="45.0822" lon="6.07393">
        <ele>1481.4</ele>
        <time>2024-08-09T09:55:59Z</time>
      </trkpt>
      <trkpt lat="45.0822" lon="6.07396">
        <ele>1481.8</ele>
        <time>2024-08-09T09:56:00Z</time>
      </trkpt>
      <trkpt lat="45.0822" lon="6.07396">
        <ele>1482</ele>
        <time>2024-08-09T09:56:01Z</time>
      </trkpt>
      <trkpt lat="45.08221" lon="6.07399">
        <ele>1481.8</ele>
        <time>2024-08-09T09:56:02Z</time>
      </trkpt>
      <trkpt lat="45.08221" lon="6.07399">
        <ele>1481.8</ele>
        <time>2024-08-09T09:56:03Z</time>
      </trkpt>
      <trkpt lat="45.08222" lon="6.07402">
        <ele>1481.8</ele>
        <time>2024-08-09T09:56:04Z</time>
      </trkpt>
      <trkpt lat="45.08222" lon="6.07402">
        <ele>1481.8</ele>
        <time>2024-08-09T09:56:05Z</time>
      </trkpt>
      <trkpt lat="45.08223" lon="6.07405">
        <ele>1482</ele>
        <time>2024-08-09T09:56:06Z</time>
      </trkpt>
      <trkpt lat="45.08223" lon="6.07405">
        <ele>1482.2</ele>
        <time>2024-08-09T09:56:07Z</time>
      </trkpt>
      <trkpt lat="45.08223" lon="6.07408">
        <ele>1482.4</ele>
        <time>2024-08-09T09:56:08Z</time>
      </trkpt>
      <trkpt lat="45.08223" lon="6.07408">
        <ele>1482.6</ele>
        <time>2024-08-09T09:56:09Z</time>
      </trkpt>
      <trkpt lat="45.08224" lon="6.07412">
        <ele>1482.6</ele>
        <time>2024-08-09T09:56:10Z</time>
      </trkpt>
      <trkpt lat="45.08224" lon="6.07412">
        <ele>1482.6</ele>
        <time>2024-08-09T09:56:11Z</time>
      </trkpt>
      <trkpt lat="45.08224" lon="6.07415">
        <ele>1482.6</ele>
        <time>2024-08-09T09:56:12Z</time>
      </trkpt>
      <trkpt lat="45.08224" lon="6.07415">
        <ele>1482.8</ele>
        <time>2024-08-09T09:56:13Z</time>
      </trkpt>
      <trkpt lat="45.08224" lon="6.07419">
        <ele>1482.8</ele>
        <time>2024-08-09T09:56:14Z</time>
      </trkpt>
      <trkpt lat="45.08224" lon="6.07419">
        <ele>1483.2</ele>
        <time>2024-08-09T09:56:15Z</time>
      </trkpt>
      <trkpt lat="45.08223" lon="6.07423">
        <ele>1483.2</ele>
        <time>2024-08-09T09:56:16Z</time>
      </trkpt>
      <trkpt lat="45.08223" lon="6.07423">
        <ele>1483.2</ele>
        <time>2024-08-09T09:56:17Z</time>
      </trkpt>
      <trkpt lat="45.08223" lon="6.07425">
        <ele>1483</ele>
        <time>2024-08-09T09:56:18Z</time>
      </trkpt>
      <trkpt lat="45.08223" lon="6.07425">
        <ele>1483.2</ele>
        <time>2024-08-09T09:56:19Z</time>
      </trkpt>
      <trkpt lat="45.08221" lon="6.07427">
        <ele>1483.4</ele>
        <time>2024-08-09T09:56:20Z</time>
      </trkpt>
      <trkpt lat="45.08221" lon="6.07427">
        <ele>1483.2</ele>
        <time>2024-08-09T09:56:21Z</time>
      </trkpt>
      <trkpt lat="45.0822" lon="6.0743">
        <ele>1483.6</ele>
        <time>2024-08-09T09:56:22Z</time>
      </trkpt>
      <trkpt lat="45.0822" lon="6.0743">
        <ele>1483.6</ele>
        <time>2024-08-09T09:56:23Z</time>
      </trkpt>
      <trkpt lat="45.08219" lon="6.07433">
        <ele>1483.6</ele>
        <time>2024-08-09T09:56:24Z</time>
      </trkpt>
      <trkpt lat="45.08219" lon="6.07433">
        <ele>1483.6</ele>
        <time>2024-08-09T09:56:25Z</time>
      </trkpt>
      <trkpt lat="45.08218" lon="6.07435">
        <ele>1484</ele>
        <time>2024-08-09T09:56:26Z</time>
      </trkpt>
      <trkpt lat="45.08218" lon="6.07435">
        <ele>1484.2</ele>
        <time>2024-08-09T09:56:27Z</time>
      </trkpt>
      <trkpt lat="45.08218" lon="6.07439">
        <ele>1484.2</ele>
        <time>2024-08-09T09:56:28Z</time>
      </trkpt>
      <trkpt lat="45.08218" lon="6.07439">
        <ele>1484.2</ele>
        <time>2024-08-09T09:56:29Z</time>
      </trkpt>
      <trkpt lat="45.08217" lon="6.07442">
        <ele>1484</ele>
        <time>2024-08-09T09:56:30Z</time>
      </trkpt>
      <trkpt lat="45.08217" lon="6.07442">
        <ele>1484.2</ele>
        <time>2024-08-09T09:56:31Z</time>
      </trkpt>
      <trkpt lat="45.08216" lon="6.07446">
        <ele>1484.6</ele>
        <time>2024-08-09T09:56:32Z</time>
      </trkpt>
      <trkpt lat="45.08216" lon="6.07446">
        <ele>1484.8</ele>
        <time>2024-08-09T09:56:33Z</time>
      </trkpt>
      <trkpt lat="45.08215" lon="6.07449">
        <ele>1484.8</ele>
        <time>2024-08-09T09:56:34Z</time>
      </trkpt>
      <trkpt lat="45.08215" lon="6.07449">
        <ele>1484.8</ele>
        <time>2024-08-09T09:56:35Z</time>
      </trkpt>
      <trkpt lat="45.08215" lon="6.07452">
        <ele>1484.8</ele>
        <time>2024-08-09T09:56:36Z</time>
      </trkpt>
      <trkpt lat="45.08215" lon="6.07452">
        <ele>1485</ele>
        <time>2024-08-09T09:56:37Z</time>
      </trkpt>
      <trkpt lat="45.08214" lon="6.07455">
        <ele>1485</ele>
        <time>2024-08-09T09:56:38Z</time>
      </trkpt>
      <trkpt lat="45.08214" lon="6.07455">
        <ele>1485</ele>
        <time>2024-08-09T09:56:39Z</time>
      </trkpt>
      <trkpt lat="45.08213" lon="6.07458">
        <ele>1485</ele>
        <time>2024-08-09T09:56:40Z</time>
      </trkpt>
      <trkpt lat="45.08213" lon="6.07458">
        <ele>1485.2</ele>
        <time>2024-08-09T09:56:41Z</time>
      </trkpt>
      <trkpt lat="45.08213" lon="6.0746">
        <ele>1485.6</ele>
        <time>2024-08-09T09:56:42Z</time>
      </trkpt>
      <trkpt lat="45.08213" lon="6.0746">
        <ele>1486</ele>
        <time>2024-08-09T09:56:43Z</time>
      </trkpt>
      <trkpt lat="45.08212" lon="6.07463">
        <ele>1486</ele>
        <time>2024-08-09T09:56:44Z</time>
      </trkpt>
      <trkpt lat="45.08212" lon="6.07463">
        <ele>1486.2</ele>
        <time>2024-08-09T09:56:45Z</time>
      </trkpt>
      <trkpt lat="45.08212" lon="6.07466">
        <ele>1486.2</ele>
        <time>2024-08-09T09:56:46Z</time>
      </trkpt>
      <trkpt lat="45.08212" lon="6.07466">
        <ele>1486.4</ele>
        <time>2024-08-09T09:56:47Z</time>
      </trkpt>
      <trkpt lat="45.08211" lon="6.07469">
        <ele>1486.6</ele>
        <time>2024-08-09T09:56:48Z</time>
      </trkpt>
      <trkpt lat="45.08211" lon="6.07469">
        <ele>1486.8</ele>
        <time>2024-08-09T09:56:49Z</time>
      </trkpt>
      <trkpt lat="45.08211" lon="6.07472">
        <ele>1486.8</ele>
        <time>2024-08-09T09:56:50Z</time>
      </trkpt>
      <trkpt lat="45.08211" lon="6.07472">
        <ele>1486.8</ele>
        <time>2024-08-09T09:56:51Z</time>
      </trkpt>
      <trkpt lat="45.0821" lon="6.07475">
        <ele>1487</ele>
        <time>2024-08-09T09:56:52Z</time>
      </trkpt>
      <trkpt lat="45.0821" lon="6.07475">
        <ele>1487.2</ele>
        <time>2024-08-09T09:56:53Z</time>
      </trkpt>
      <trkpt lat="45.08209" lon="6.07478">
        <ele>1487.2</ele>
        <time>2024-08-09T09:56:54Z</time>
      </trkpt>
      <trkpt lat="45.08209" lon="6.07478">
        <ele>1487.2</ele>
        <time>2024-08-09T09:56:55Z</time>
      </trkpt>
      <trkpt lat="45.08208" lon="6.07481">
        <ele>1487.2</ele>
        <time>2024-08-09T09:56:56Z</time>
      </trkpt>
      <trkpt lat="45.08208" lon="6.07481">
        <ele>1487.2</ele>
        <time>2024-08-09T09:56:57Z</time>
      </trkpt>
      <trkpt lat="45.08207" lon="6.07484">
        <ele>1487.2</ele>
        <time>2024-08-09T09:56:58Z</time>
      </trkpt>
      <trkpt lat="45.08207" lon="6.07484">
        <ele>1487.4</ele>
        <time>2024-08-09T09:56:59Z</time>
      </trkpt>
      <trkpt lat="45.08206" lon="6.07488">
        <ele>1487.6</ele>
        <time>2024-08-09T09:57:00Z</time>
      </trkpt>
      <trkpt lat="45.08206" lon="6.07488">
        <ele>1487.8</ele>
        <time>2024-08-09T09:57:01Z</time>
      </trkpt>
      <trkpt lat="45.08206" lon="6.07492">
        <ele>1488.4</ele>
        <time>2024-08-09T09:57:02Z</time>
      </trkpt>
      <trkpt lat="45.08206" lon="6.07492">
        <ele>1488.4</ele>
        <time>2024-08-09T09:57:03Z</time>
      </trkpt>
      <trkpt lat="45.08205" lon="6.07495">
        <ele>1488.4</ele>
        <time>2024-08-09T09:57:04Z</time>
      </trkpt>
      <trkpt lat="45.08205" lon="6.07495">
        <ele>1488.6</ele>
        <time>2024-08-09T09:57:05Z</time>
      </trkpt>
      <trkpt lat="45.08204" lon="6.07498">
        <ele>1488.8</ele>
        <time>2024-08-09T09:57:06Z</time>
      </trkpt>
      <trkpt lat="45.08204" lon="6.07498">
        <ele>1488.8</ele>
        <time>2024-08-09T09:57:07Z</time>
      </trkpt>
      <trkpt lat="45.08204" lon="6.07501">
        <ele>1488.8</ele>
        <time>2024-08-09T09:57:08Z</time>
      </trkpt>
      <trkpt lat="45.08204" lon="6.07501">
        <ele>1488.8</ele>
        <time>2024-08-09T09:57:09Z</time>
      </trkpt>
      <trkpt lat="45.08203" lon="6.07505">
        <ele>1489</ele>
        <time>2024-08-09T09:57:10Z</time>
      </trkpt>
      <trkpt lat="45.08203" lon="6.07505">
        <ele>1489</ele>
        <time>2024-08-09T09:57:11Z</time>
      </trkpt>
      <trkpt lat="45.08202" lon="6.07508">
        <ele>1489</ele>
        <time>2024-08-09T09:57:12Z</time>
      </trkpt>
      <trkpt lat="45.08202" lon="6.07508">
        <ele>1489</ele>
        <time>2024-08-09T09:57:13Z</time>
      </trkpt>
      <trkpt lat="45.08202" lon="6.07511">
        <ele>1489</ele>
        <time>2024-08-09T09:57:14Z</time>
      </trkpt>
      <trkpt lat="45.08202" lon="6.07511">
        <ele>1489</ele>
        <time>2024-08-09T09:57:15Z</time>
      </trkpt>
      <trkpt lat="45.08202" lon="6.07515">
        <ele>1489</ele>
        <time>2024-08-09T09:57:16Z</time>
      </trkpt>
      <trkpt lat="45.08202" lon="6.07515">
        <ele>1489</ele>
        <time>2024-08-09T09:57:17Z</time>
      </trkpt>
      <trkpt lat="45.082" lon="6.07519">
        <ele>1489.2</ele>
        <time>2024-08-09T09:57:18Z</time>
      </trkpt>
      <trkpt lat="45.082" lon="6.07519">
        <ele>1489.2</ele>
        <time>2024-08-09T09:57:19Z</time>
      </trkpt>
      <trkpt lat="45.082" lon="6.07522">
        <ele>1489.2</ele>
        <time>2024-08-09T09:57:20Z</time>
      </trkpt>
      <trkpt lat="45.082" lon="6.07522">
        <ele>1489.4</ele>
        <time>2024-08-09T09:57:21Z</time>
      </trkpt>
      <trkpt lat="45.082" lon="6.07526">
        <ele>1489.4</ele>
        <time>2024-08-09T09:57:22Z</time>
      </trkpt>
      <trkpt lat="45.082" lon="6.07526">
        <ele>1489.2</ele>
        <time>2024-08-09T09:57:23Z</time>
      </trkpt>
      <trkpt lat="45.082" lon="6.0753">
        <ele>1489.2</ele>
        <time>2024-08-09T09:57:24Z</time>
      </trkpt>
      <trkpt lat="45.082" lon="6.0753">
        <ele>1489.4</ele>
        <time>2024-08-09T09:57:25Z</time>
      </trkpt>
      <trkpt lat="45.082" lon="6.07534">
        <ele>1489.4</ele>
        <time>2024-08-09T09:57:26Z</time>
      </trkpt>
      <trkpt lat="45.082" lon="6.07534">
        <ele>1489.6</ele>
        <time>2024-08-09T09:57:27Z</time>
      </trkpt>
      <trkpt lat="45.08199" lon="6.07537">
        <ele>1489.6</ele>
        <time>2024-08-09T09:57:28Z</time>
      </trkpt>
      <trkpt lat="45.08199" lon="6.07537">
        <ele>1489.6</ele>
        <time>2024-08-09T09:57:29Z</time>
      </trkpt>
      <trkpt lat="45.08198" lon="6.07541">
        <ele>1489.6</ele>
        <time>2024-08-09T09:57:30Z</time>
      </trkpt>
      <trkpt lat="45.08198" lon="6.07541">
        <ele>1489.6</ele>
        <time>2024-08-09T09:57:31Z</time>
      </trkpt>
      <trkpt lat="45.08197" lon="6.07544">
        <ele>1489.6</ele>
        <time>2024-08-09T09:57:32Z</time>
      </trkpt>
      <trkpt lat="45.08197" lon="6.07544">
        <ele>1489.6</ele>
        <time>2024-08-09T09:57:33Z</time>
      </trkpt>
      <trkpt lat="45.08196" lon="6.07548">
        <ele>1489.6</ele>
        <time>2024-08-09T09:57:34Z</time>
      </trkpt>
      <trkpt lat="45.08196" lon="6.07548">
        <ele>1489.6</ele>
        <time>2024-08-09T09:57:35Z</time>
      </trkpt>
      <trkpt lat="45.08195" lon="6.07551">
        <ele>1489.6</ele>
        <time>2024-08-09T09:57:36Z</time>
      </trkpt>
      <trkpt lat="45.08195" lon="6.07551">
        <ele>1489.6</ele>
        <time>2024-08-09T09:57:37Z</time>
      </trkpt>
      <trkpt lat="45.08195" lon="6.07555">
        <ele>1490</ele>
        <time>2024-08-09T09:57:38Z</time>
      </trkpt>
      <trkpt lat="45.08195" lon="6.07555">
        <ele>1490</ele>
        <time>2024-08-09T09:57:39Z</time>
      </trkpt>
      <trkpt lat="45.08195" lon="6.07555">
        <ele>1489.8</ele>
        <time>2024-08-09T09:57:40Z</time>
      </trkpt>
      <trkpt lat="45.08197" lon="6.07558">
        <ele>1489.8</ele>
        <time>2024-08-09T09:57:41Z</time>
      </trkpt>
      <trkpt lat="45.08197" lon="6.07558">
        <ele>1490</ele>
        <time>2024-08-09T09:57:42Z</time>
      </trkpt>
      <trkpt lat="45.08197" lon="6.07561">
        <ele>1490</ele>
        <time>2024-08-09T09:57:43Z</time>
      </trkpt>
      <trkpt lat="45.08197" lon="6.07561">
        <ele>1490.2</ele>
        <time>2024-08-09T09:57:44Z</time>
      </trkpt>
      <trkpt lat="45.08197" lon="6.07565">
        <ele>1490.2</ele>
        <time>2024-08-09T09:57:45Z</time>
      </trkpt>
      <trkpt lat="45.08197" lon="6.07565">
        <ele>1490.2</ele>
        <time>2024-08-09T09:57:46Z</time>
      </trkpt>
      <trkpt lat="45.08197" lon="6.07568">
        <ele>1490.2</ele>
        <time>2024-08-09T09:57:47Z</time>
      </trkpt>
      <trkpt lat="45.08197" lon="6.07568">
        <ele>1490.4</ele>
        <time>2024-08-09T09:57:48Z</time>
      </trkpt>
      <trkpt lat="45.08196" lon="6.07572">
        <ele>1490.4</ele>
        <time>2024-08-09T09:57:49Z</time>
      </trkpt>
      <trkpt lat="45.08196" lon="6.07572">
        <ele>1490.8</ele>
        <time>2024-08-09T09:57:50Z</time>
      </trkpt>
      <trkpt lat="45.08196" lon="6.07575">
        <ele>1490.8</ele>
        <time>2024-08-09T09:57:51Z</time>
      </trkpt>
      <trkpt lat="45.08196" lon="6.07575">
        <ele>1491</ele>
        <time>2024-08-09T09:57:52Z</time>
      </trkpt>
      <trkpt lat="45.08195" lon="6.07577">
        <ele>1491</ele>
        <time>2024-08-09T09:57:53Z</time>
      </trkpt>
      <trkpt lat="45.08195" lon="6.07577">
        <ele>1491.4</ele>
        <time>2024-08-09T09:57:54Z</time>
      </trkpt>
      <trkpt lat="45.08195" lon="6.0758">
        <ele>1491.4</ele>
        <time>2024-08-09T09:57:55Z</time>
      </trkpt>
      <trkpt lat="45.08195" lon="6.0758">
        <ele>1491.6</ele>
        <time>2024-08-09T09:57:56Z</time>
      </trkpt>
      <trkpt lat="45.08195" lon="6.07583">
        <ele>1491.6</ele>
        <time>2024-08-09T09:57:57Z</time>
      </trkpt>
      <trkpt lat="45.08195" lon="6.07583">
        <ele>1491.6</ele>
        <time>2024-08-09T09:57:58Z</time>
      </trkpt>
      <trkpt lat="45.08195" lon="6.07586">
        <ele>1491.6</ele>
        <time>2024-08-09T09:57:59Z</time>
      </trkpt>
      <trkpt lat="45.08195" lon="6.07586">
        <ele>1491.8</ele>
        <time>2024-08-09T09:58:00Z</time>
      </trkpt>
      <trkpt lat="45.08195" lon="6.07586">
        <ele>1492</ele>
        <time>2024-08-09T09:58:01Z</time>
      </trkpt>
      <trkpt lat="45.08194" lon="6.0759">
        <ele>1492.6</ele>
        <time>2024-08-09T09:58:02Z</time>
      </trkpt>
      <trkpt lat="45.08194" lon="6.0759">
        <ele>1492.6</ele>
        <time>2024-08-09T09:58:03Z</time>
      </trkpt>
      <trkpt lat="45.08194" lon="6.07594">
        <ele>1492.6</ele>
        <time>2024-08-09T09:58:04Z</time>
      </trkpt>
      <trkpt lat="45.08194" lon="6.07594">
        <ele>1492.6</ele>
        <time>2024-08-09T09:58:05Z</time>
      </trkpt>
      <trkpt lat="45.08194" lon="6.07597">
        <ele>1492.6</ele>
        <time>2024-08-09T09:58:06Z</time>
      </trkpt>
      <trkpt lat="45.08195" lon="6.076">
        <ele>1492.8</ele>
        <time>2024-08-09T09:58:07Z</time>
      </trkpt>
      <trkpt lat="45.08195" lon="6.076">
        <ele>1493</ele>
        <time>2024-08-09T09:58:08Z</time>
      </trkpt>
      <trkpt lat="45.08196" lon="6.07603">
        <ele>1493.6</ele>
        <time>2024-08-09T09:58:09Z</time>
      </trkpt>
      <trkpt lat="45.08196" lon="6.07603">
        <ele>1494</ele>
        <time>2024-08-09T09:58:10Z</time>
      </trkpt>
      <trkpt lat="45.08196" lon="6.07606">
        <ele>1494.2</ele>
        <time>2024-08-09T09:58:11Z</time>
      </trkpt>
      <trkpt lat="45.08196" lon="6.07606">
        <ele>1494.4</ele>
        <time>2024-08-09T09:58:12Z</time>
      </trkpt>
      <trkpt lat="45.08195" lon="6.07611">
        <ele>1494.4</ele>
        <time>2024-08-09T09:58:13Z</time>
      </trkpt>
      <trkpt lat="45.08195" lon="6.07611">
        <ele>1494.8</ele>
        <time>2024-08-09T09:58:14Z</time>
      </trkpt>
      <trkpt lat="45.08195" lon="6.07614">
        <ele>1495.2</ele>
        <time>2024-08-09T09:58:15Z</time>
      </trkpt>
      <trkpt lat="45.08195" lon="6.07614">
        <ele>1495.2</ele>
        <time>2024-08-09T09:58:16Z</time>
      </trkpt>
      <trkpt lat="45.08194" lon="6.07617">
        <ele>1495</ele>
        <time>2024-08-09T09:58:17Z</time>
      </trkpt>
      <trkpt lat="45.08194" lon="6.07617">
        <ele>1495</ele>
        <time>2024-08-09T09:58:18Z</time>
      </trkpt>
      <trkpt lat="45.08195" lon="6.07621">
        <ele>1495</ele>
        <time>2024-08-09T09:58:19Z</time>
      </trkpt>
      <trkpt lat="45.08195" lon="6.07621">
        <ele>1495</ele>
        <time>2024-08-09T09:58:20Z</time>
      </trkpt>
      <trkpt lat="45.08196" lon="6.07624">
        <ele>1495</ele>
        <time>2024-08-09T09:58:21Z</time>
      </trkpt>
      <trkpt lat="45.08196" lon="6.07624">
        <ele>1495.2</ele>
        <time>2024-08-09T09:58:22Z</time>
      </trkpt>
      <trkpt lat="45.08196" lon="6.07627">
        <ele>1495</ele>
        <time>2024-08-09T09:58:23Z</time>
      </trkpt>
      <trkpt lat="45.08196" lon="6.07627">
        <ele>1495.2</ele>
        <time>2024-08-09T09:58:24Z</time>
      </trkpt>
      <trkpt lat="45.08196" lon="6.0763">
        <ele>1495.2</ele>
        <time>2024-08-09T09:58:25Z</time>
      </trkpt>
      <trkpt lat="45.08196" lon="6.0763">
        <ele>1495.6</ele>
        <time>2024-08-09T09:58:26Z</time>
      </trkpt>
      <trkpt lat="45.08195" lon="6.07634">
        <ele>1495.6</ele>
        <time>2024-08-09T09:58:27Z</time>
      </trkpt>
      <trkpt lat="45.08195" lon="6.07634">
        <ele>1495.6</ele>
        <time>2024-08-09T09:58:28Z</time>
      </trkpt>
      <trkpt lat="45.08196" lon="6.07637">
        <ele>1496</ele>
        <time>2024-08-09T09:58:29Z</time>
      </trkpt>
      <trkpt lat="45.08196" lon="6.07637">
        <ele>1496</ele>
        <time>2024-08-09T09:58:30Z</time>
      </trkpt>
      <trkpt lat="45.08196" lon="6.0764">
        <ele>1496</ele>
        <time>2024-08-09T09:58:31Z</time>
      </trkpt>
      <trkpt lat="45.08196" lon="6.0764">
        <ele>1496.2</ele>
        <time>2024-08-09T09:58:32Z</time>
      </trkpt>
      <trkpt lat="45.08196" lon="6.0764">
        <ele>1496.4</ele>
        <time>2024-08-09T09:58:33Z</time>
      </trkpt>
      <trkpt lat="45.08196" lon="6.07644">
        <ele>1496.4</ele>
        <time>2024-08-09T09:58:34Z</time>
      </trkpt>
      <trkpt lat="45.08196" lon="6.07644">
        <ele>1496.6</ele>
        <time>2024-08-09T09:58:35Z</time>
      </trkpt>
      <trkpt lat="45.08197" lon="6.07647">
        <ele>1496.6</ele>
        <time>2024-08-09T09:58:36Z</time>
      </trkpt>
      <trkpt lat="45.08196" lon="6.0765">
        <ele>1496.6</ele>
        <time>2024-08-09T09:58:37Z</time>
      </trkpt>
      <trkpt lat="45.08196" lon="6.07651">
        <ele>1496.6</ele>
        <time>2024-08-09T09:58:38Z</time>
      </trkpt>
      <trkpt lat="45.08196" lon="6.07652">
        <ele>1497</ele>
        <time>2024-08-09T09:58:39Z</time>
      </trkpt>
      <trkpt lat="45.08196" lon="6.07653">
        <ele>1497</ele>
        <time>2024-08-09T09:58:40Z</time>
      </trkpt>
      <trkpt lat="45.08197" lon="6.07658">
        <ele>1496.8</ele>
        <time>2024-08-09T09:58:41Z</time>
      </trkpt>
      <trkpt lat="45.08197" lon="6.07658">
        <ele>1496.8</ele>
        <time>2024-08-09T09:58:42Z</time>
      </trkpt>
      <trkpt lat="45.08196" lon="6.07663">
        <ele>1497</ele>
        <time>2024-08-09T09:58:43Z</time>
      </trkpt>
      <trkpt lat="45.08196" lon="6.07663">
        <ele>1497.2</ele>
        <time>2024-08-09T09:58:44Z</time>
      </trkpt>
      <trkpt lat="45.08195" lon="6.07666">
        <ele>1497.4</ele>
        <time>2024-08-09T09:58:45Z</time>
      </trkpt>
      <trkpt lat="45.08195" lon="6.07666">
        <ele>1497.2</ele>
        <time>2024-08-09T09:58:46Z</time>
      </trkpt>
      <trkpt lat="45.08195" lon="6.07666">
        <ele>1497.4</ele>
        <time>2024-08-09T09:58:47Z</time>
      </trkpt>
      <trkpt lat="45.08194" lon="6.07668">
        <ele>1497.4</ele>
        <time>2024-08-09T09:58:48Z</time>
      </trkpt>
      <trkpt lat="45.08194" lon="6.07668">
        <ele>1497.4</ele>
        <time>2024-08-09T09:58:49Z</time>
      </trkpt>
      <trkpt lat="45.08194" lon="6.07668">
        <ele>1497.4</ele>
        <time>2024-08-09T09:58:50Z</time>
      </trkpt>
      <trkpt lat="45.08194" lon="6.07668">
        <ele>1497.6</ele>
        <time>2024-08-09T09:58:51Z</time>
      </trkpt>
      <trkpt lat="45.08194" lon="6.07668">
        <ele>1497.4</ele>
        <time>2024-08-09T09:58:52Z</time>
      </trkpt>
      <trkpt lat="45.08194" lon="6.07668">
        <ele>1497.4</ele>
        <time>2024-08-09T09:58:53Z</time>
      </trkpt>
      <trkpt lat="45.08194" lon="6.07668">
        <ele>1497.4</ele>
        <time>2024-08-09T09:58:54Z</time>
      </trkpt>
      <trkpt lat="45.08194" lon="6.07671">
        <ele>1497.4</ele>
        <time>2024-08-09T09:58:55Z</time>
      </trkpt>
      <trkpt lat="45.08194" lon="6.07671">
        <ele>1497.6</ele>
        <time>2024-08-09T09:58:56Z</time>
      </trkpt>
      <trkpt lat="45.08193" lon="6.07675">
        <ele>1497.8</ele>
        <time>2024-08-09T09:58:57Z</time>
      </trkpt>
      <trkpt lat="45.08193" lon="6.07675">
        <ele>1498</ele>
        <time>2024-08-09T09:58:58Z</time>
      </trkpt>
      <trkpt lat="45.08192" lon="6.07678">
        <ele>1498</ele>
        <time>2024-08-09T09:58:59Z</time>
      </trkpt>
      <trkpt lat="45.08192" lon="6.07678">
        <ele>1498.6</ele>
        <time>2024-08-09T09:59:00Z</time>
      </trkpt>
      <trkpt lat="45.08192" lon="6.0768">
        <ele>1498.8</ele>
        <time>2024-08-09T09:59:01Z</time>
      </trkpt>
      <trkpt lat="45.08192" lon="6.0768">
        <ele>1499</ele>
        <time>2024-08-09T09:59:02Z</time>
      </trkpt>
      <trkpt lat="45.0819" lon="6.07682">
        <ele>1499</ele>
        <time>2024-08-09T09:59:03Z</time>
      </trkpt>
      <trkpt lat="45.0819" lon="6.07682">
        <ele>1499.4</ele>
        <time>2024-08-09T09:59:04Z</time>
      </trkpt>
      <trkpt lat="45.0819" lon="6.07685">
        <ele>1499.4</ele>
        <time>2024-08-09T09:59:05Z</time>
      </trkpt>
      <trkpt lat="45.0819" lon="6.07685">
        <ele>1499.4</ele>
        <time>2024-08-09T09:59:06Z</time>
      </trkpt>
      <trkpt lat="45.08189" lon="6.07688">
        <ele>1499.6</ele>
        <time>2024-08-09T09:59:07Z</time>
      </trkpt>
      <trkpt lat="45.08189" lon="6.07688">
        <ele>1499.6</ele>
        <time>2024-08-09T09:59:08Z</time>
      </trkpt>
      <trkpt lat="45.08188" lon="6.07691">
        <ele>1499.8</ele>
        <time>2024-08-09T09:59:09Z</time>
      </trkpt>
      <trkpt lat="45.08188" lon="6.07691">
        <ele>1499.8</ele>
        <time>2024-08-09T09:59:10Z</time>
      </trkpt>
      <trkpt lat="45.08188" lon="6.07691">
        <ele>1500</ele>
        <time>2024-08-09T09:59:11Z</time>
      </trkpt>
      <trkpt lat="45.08188" lon="6.07695">
        <ele>1500.2</ele>
        <time>2024-08-09T09:59:12Z</time>
      </trkpt>
      <trkpt lat="45.08189" lon="6.07697">
        <ele>1500.2</ele>
        <time>2024-08-09T09:59:13Z</time>
      </trkpt>
      <trkpt lat="45.0819" lon="6.07699">
        <ele>1500.4</ele>
        <time>2024-08-09T09:59:14Z</time>
      </trkpt>
      <trkpt lat="45.0819" lon="6.07699">
        <ele>1500.6</ele>
        <time>2024-08-09T09:59:15Z</time>
      </trkpt>
      <trkpt lat="45.0819" lon="6.07704">
        <ele>1500.8</ele>
        <time>2024-08-09T09:59:16Z</time>
      </trkpt>
      <trkpt lat="45.0819" lon="6.07704">
        <ele>1500.8</ele>
        <time>2024-08-09T09:59:17Z</time>
      </trkpt>
      <trkpt lat="45.08189" lon="6.07708">
        <ele>1501</ele>
        <time>2024-08-09T09:59:18Z</time>
      </trkpt>
      <trkpt lat="45.08189" lon="6.07708">
        <ele>1501.4</ele>
        <time>2024-08-09T09:59:19Z</time>
      </trkpt>
      <trkpt lat="45.08189" lon="6.07711">
        <ele>1501.4</ele>
        <time>2024-08-09T09:59:20Z</time>
      </trkpt>
      <trkpt lat="45.08189" lon="6.07711">
        <ele>1501.4</ele>
        <time>2024-08-09T09:59:21Z</time>
      </trkpt>
      <trkpt lat="45.08189" lon="6.07711">
        <ele>1501.6</ele>
        <time>2024-08-09T09:59:22Z</time>
      </trkpt>
      <trkpt lat="45.08189" lon="6.07711">
        <ele>1501.8</ele>
        <time>2024-08-09T09:59:23Z</time>
      </trkpt>
      <trkpt lat="45.0819" lon="6.07714">
        <ele>1502.2</ele>
        <time>2024-08-09T09:59:24Z</time>
      </trkpt>
      <trkpt lat="45.0819" lon="6.07714">
        <ele>1502.4</ele>
        <time>2024-08-09T09:59:25Z</time>
      </trkpt>
      <trkpt lat="45.0819" lon="6.07714">
        <ele>1502.6</ele>
        <time>2024-08-09T09:59:26Z</time>
      </trkpt>
      <trkpt lat="45.0819" lon="6.07718">
        <ele>1502.6</ele>
        <time>2024-08-09T09:59:27Z</time>
      </trkpt>
      <trkpt lat="45.0819" lon="6.07718">
        <ele>1502.6</ele>
        <time>2024-08-09T09:59:28Z</time>
      </trkpt>
      <trkpt lat="45.0819" lon="6.07722">
        <ele>1502.6</ele>
        <time>2024-08-09T09:59:29Z</time>
      </trkpt>
      <trkpt lat="45.0819" lon="6.07722">
        <ele>1502.8</ele>
        <time>2024-08-09T09:59:30Z</time>
      </trkpt>
      <trkpt lat="45.0819" lon="6.07725">
        <ele>1503.2</ele>
        <time>2024-08-09T09:59:31Z</time>
      </trkpt>
      <trkpt lat="45.0819" lon="6.07725">
        <ele>1503.4</ele>
        <time>2024-08-09T09:59:32Z</time>
      </trkpt>
      <trkpt lat="45.08189" lon="6.07729">
        <ele>1503.4</ele>
        <time>2024-08-09T09:59:33Z</time>
      </trkpt>
      <trkpt lat="45.08189" lon="6.07729">
        <ele>1503.4</ele>
        <time>2024-08-09T09:59:34Z</time>
      </trkpt>
      <trkpt lat="45.0819" lon="6.07733">
        <ele>1503.6</ele>
        <time>2024-08-09T09:59:35Z</time>
      </trkpt>
      <trkpt lat="45.0819" lon="6.07733">
        <ele>1503.8</ele>
        <time>2024-08-09T09:59:36Z</time>
      </trkpt>
      <trkpt lat="45.08191" lon="6.07737">
        <ele>1504</ele>
        <time>2024-08-09T09:59:37Z</time>
      </trkpt>
      <trkpt lat="45.08191" lon="6.0774">
        <ele>1504</ele>
        <time>2024-08-09T09:59:38Z</time>
      </trkpt>
      <trkpt lat="45.08191" lon="6.0774">
        <ele>1504.2</ele>
        <time>2024-08-09T09:59:39Z</time>
      </trkpt>
      <trkpt lat="45.08191" lon="6.07744">
        <ele>1504.4</ele>
        <time>2024-08-09T09:59:40Z</time>
      </trkpt>
      <trkpt lat="45.08191" lon="6.07744">
        <ele>1504.4</ele>
        <time>2024-08-09T09:59:41Z</time>
      </trkpt>
      <trkpt lat="45.08191" lon="6.07744">
        <ele>1504.4</ele>
        <time>2024-08-09T09:59:42Z</time>
      </trkpt>
      <trkpt lat="45.0819" lon="6.07747">
        <ele>1504.4</ele>
        <time>2024-08-09T09:59:43Z</time>
      </trkpt>
      <trkpt lat="45.08189" lon="6.07749">
        <ele>1504.8</ele>
        <time>2024-08-09T09:59:44Z</time>
      </trkpt>
      <trkpt lat="45.08187" lon="6.07752">
        <ele>1504.8</ele>
        <time>2024-08-09T09:59:45Z</time>
      </trkpt>
      <trkpt lat="45.08187" lon="6.07752">
        <ele>1504.8</ele>
        <time>2024-08-09T09:59:46Z</time>
      </trkpt>
      <trkpt lat="45.08186" lon="6.07755">
        <ele>1504.8</ele>
        <time>2024-08-09T09:59:47Z</time>
      </trkpt>
      <trkpt lat="45.08187" lon="6.07758">
        <ele>1505</ele>
        <time>2024-08-09T09:59:48Z</time>
      </trkpt>
      <trkpt lat="45.08187" lon="6.07758">
        <ele>1505</ele>
        <time>2024-08-09T09:59:49Z</time>
      </trkpt>
      <trkpt lat="45.08188" lon="6.07761">
        <ele>1505</ele>
        <time>2024-08-09T09:59:50Z</time>
      </trkpt>
      <trkpt lat="45.08188" lon="6.07761">
        <ele>1505.2</ele>
        <time>2024-08-09T09:59:51Z</time>
      </trkpt>
      <trkpt lat="45.08188" lon="6.07761">
        <ele>1505.2</ele>
        <time>2024-08-09T09:59:52Z</time>
      </trkpt>
      <trkpt lat="45.08188" lon="6.07766">
        <ele>1505.2</ele>
        <time>2024-08-09T09:59:53Z</time>
      </trkpt>
      <trkpt lat="45.08188" lon="6.07766">
        <ele>1505.2</ele>
        <time>2024-08-09T09:59:54Z</time>
      </trkpt>
      <trkpt lat="45.08188" lon="6.07769">
        <ele>1505.2</ele>
        <time>2024-08-09T09:59:55Z</time>
      </trkpt>
      <trkpt lat="45.08188" lon="6.07769">
        <ele>1505.2</ele>
        <time>2024-08-09T09:59:56Z</time>
      </trkpt>
      <trkpt lat="45.08188" lon="6.07772">
        <ele>1505.4</ele>
        <time>2024-08-09T09:59:57Z</time>
      </trkpt>
      <trkpt lat="45.08188" lon="6.07772">
        <ele>1505.4</ele>
        <time>2024-08-09T09:59:58Z</time>
      </trkpt>
      <trkpt lat="45.08187" lon="6.07775">
        <ele>1505.6</ele>
        <time>2024-08-09T09:59:59Z</time>
      </trkpt>
      <trkpt lat="45.08187" lon="6.07779">
        <ele>1505.6</ele>
        <time>2024-08-09T10:00:01Z</time>
      </trkpt>
      <trkpt lat="45.08187" lon="6.07779">
        <ele>1505.8</ele>
        <time>2024-08-09T10:00:02Z</time>
      </trkpt>
      <trkpt lat="45.08186" lon="6.07782">
        <ele>1506</ele>
        <time>2024-08-09T10:00:03Z</time>
      </trkpt>
      <trkpt lat="45.08186" lon="6.07782">
        <ele>1506</ele>
        <time>2024-08-09T10:00:04Z</time>
      </trkpt>
      <trkpt lat="45.08186" lon="6.07786">
        <ele>1505.8</ele>
        <time>2024-08-09T10:00:05Z</time>
      </trkpt>
      <trkpt lat="45.08186" lon="6.07786">
        <ele>1505.8</ele>
        <time>2024-08-09T10:00:06Z</time>
      </trkpt>
      <trkpt lat="45.08187" lon="6.0779">
        <ele>1505.8</ele>
        <time>2024-08-09T10:00:07Z</time>
      </trkpt>
      <trkpt lat="45.08187" lon="6.0779">
        <ele>1506</ele>
        <time>2024-08-09T10:00:08Z</time>
      </trkpt>
      <trkpt lat="45.08186" lon="6.07794">
        <ele>1506</ele>
        <time>2024-08-09T10:00:09Z</time>
      </trkpt>
      <trkpt lat="45.08186" lon="6.07794">
        <ele>1505.8</ele>
        <time>2024-08-09T10:00:10Z</time>
      </trkpt>
      <trkpt lat="45.08186" lon="6.07798">
        <ele>1505.8</ele>
        <time>2024-08-09T10:00:11Z</time>
      </trkpt>
      <trkpt lat="45.08186" lon="6.07798">
        <ele>1506</ele>
        <time>2024-08-09T10:00:12Z</time>
      </trkpt>
      <trkpt lat="45.08186" lon="6.07802">
        <ele>1506</ele>
        <time>2024-08-09T10:00:13Z</time>
      </trkpt>
      <trkpt lat="45.08186" lon="6.07802">
        <ele>1506</ele>
        <time>2024-08-09T10:00:14Z</time>
      </trkpt>
      <trkpt lat="45.08186" lon="6.07806">
        <ele>1506</ele>
        <time>2024-08-09T10:00:15Z</time>
      </trkpt>
      <trkpt lat="45.08186" lon="6.07806">
        <ele>1506</ele>
        <time>2024-08-09T10:00:16Z</time>
      </trkpt>
      <trkpt lat="45.08186" lon="6.07809">
        <ele>1506.2</ele>
        <time>2024-08-09T10:00:17Z</time>
      </trkpt>
      <trkpt lat="45.08186" lon="6.07809">
        <ele>1506.2</ele>
        <time>2024-08-09T10:00:18Z</time>
      </trkpt>
      <trkpt lat="45.08185" lon="6.07814">
        <ele>1506.2</ele>
        <time>2024-08-09T10:00:19Z</time>
      </trkpt>
      <trkpt lat="45.08185" lon="6.07814">
        <ele>1506.4</ele>
        <time>2024-08-09T10:00:20Z</time>
      </trkpt>
      <trkpt lat="45.08184" lon="6.07817">
        <ele>1506.4</ele>
        <time>2024-08-09T10:00:21Z</time>
      </trkpt>
      <trkpt lat="45.08184" lon="6.07817">
        <ele>1506.4</ele>
        <time>2024-08-09T10:00:22Z</time>
      </trkpt>
      <trkpt lat="45.08182" lon="6.07821">
        <ele>1506.4</ele>
        <time>2024-08-09T10:00:23Z</time>
      </trkpt>
      <trkpt lat="45.08182" lon="6.07821">
        <ele>1506.6</ele>
        <time>2024-08-09T10:00:24Z</time>
      </trkpt>
      <trkpt lat="45.08181" lon="6.07824">
        <ele>1506.6</ele>
        <time>2024-08-09T10:00:25Z</time>
      </trkpt>
      <trkpt lat="45.08181" lon="6.07824">
        <ele>1506.6</ele>
        <time>2024-08-09T10:00:26Z</time>
      </trkpt>
      <trkpt lat="45.08182" lon="6.07828">
        <ele>1506.4</ele>
        <time>2024-08-09T10:00:27Z</time>
      </trkpt>
      <trkpt lat="45.08182" lon="6.07828">
        <ele>1506.4</ele>
        <time>2024-08-09T10:00:28Z</time>
      </trkpt>
      <trkpt lat="45.08183" lon="6.07832">
        <ele>1506.8</ele>
        <time>2024-08-09T10:00:29Z</time>
      </trkpt>
      <trkpt lat="45.08183" lon="6.07832">
        <ele>1506.8</ele>
        <time>2024-08-09T10:00:30Z</time>
      </trkpt>
      <trkpt lat="45.08184" lon="6.07835">
        <ele>1506.8</ele>
        <time>2024-08-09T10:00:31Z</time>
      </trkpt>
      <trkpt lat="45.08184" lon="6.07835">
        <ele>1507</ele>
        <time>2024-08-09T10:00:32Z</time>
      </trkpt>
      <trkpt lat="45.08184" lon="6.07838">
        <ele>1507</ele>
        <time>2024-08-09T10:00:33Z</time>
      </trkpt>
      <trkpt lat="45.08184" lon="6.07841">
        <ele>1507</ele>
        <time>2024-08-09T10:00:35Z</time>
      </trkpt>
      <trkpt lat="45.08184" lon="6.07841">
        <ele>1507.2</ele>
        <time>2024-08-09T10:00:36Z</time>
      </trkpt>
      <trkpt lat="45.08183" lon="6.07844">
        <ele>1507.2</ele>
        <time>2024-08-09T10:00:37Z</time>
      </trkpt>
      <trkpt lat="45.08183" lon="6.07844">
        <ele>1507.2</ele>
        <time>2024-08-09T10:00:38Z</time>
      </trkpt>
      <trkpt lat="45.08182" lon="6.07847">
        <ele>1507.4</ele>
        <time>2024-08-09T10:00:39Z</time>
      </trkpt>
      <trkpt lat="45.08182" lon="6.07847">
        <ele>1507.4</ele>
        <time>2024-08-09T10:00:40Z</time>
      </trkpt>
      <trkpt lat="45.08182" lon="6.0785">
        <ele>1507.4</ele>
        <time>2024-08-09T10:00:41Z</time>
      </trkpt>
      <trkpt lat="45.08182" lon="6.0785">
        <ele>1507.4</ele>
        <time>2024-08-09T10:00:42Z</time>
      </trkpt>
      <trkpt lat="45.08183" lon="6.07853">
        <ele>1507.6</ele>
        <time>2024-08-09T10:00:43Z</time>
      </trkpt>
      <trkpt lat="45.08183" lon="6.07853">
        <ele>1508</ele>
        <time>2024-08-09T10:00:44Z</time>
      </trkpt>
      <trkpt lat="45.08183" lon="6.07853">
        <ele>1508.2</ele>
        <time>2024-08-09T10:00:45Z</time>
      </trkpt>
      <trkpt lat="45.08184" lon="6.07857">
        <ele>1508.2</ele>
        <time>2024-08-09T10:00:46Z</time>
      </trkpt>
      <trkpt lat="45.08184" lon="6.07857">
        <ele>1508.4</ele>
        <time>2024-08-09T10:00:47Z</time>
      </trkpt>
      <trkpt lat="45.08185" lon="6.0786">
        <ele>1508.4</ele>
        <time>2024-08-09T10:00:48Z</time>
      </trkpt>
      <trkpt lat="45.08185" lon="6.0786">
        <ele>1508.6</ele>
        <time>2024-08-09T10:00:49Z</time>
      </trkpt>
      <trkpt lat="45.08184" lon="6.07864">
        <ele>1508.6</ele>
        <time>2024-08-09T10:00:50Z</time>
      </trkpt>
      <trkpt lat="45.08184" lon="6.07864">
        <ele>1508.8</ele>
        <time>2024-08-09T10:00:51Z</time>
      </trkpt>
      <trkpt lat="45.08185" lon="6.07868">
        <ele>1509</ele>
        <time>2024-08-09T10:00:52Z</time>
      </trkpt>
      <trkpt lat="45.08185" lon="6.07868">
        <ele>1509</ele>
        <time>2024-08-09T10:00:53Z</time>
      </trkpt>
      <trkpt lat="45.08186" lon="6.07871">
        <ele>1509.4</ele>
        <time>2024-08-09T10:00:54Z</time>
      </trkpt>
      <trkpt lat="45.08186" lon="6.07871">
        <ele>1509.6</ele>
        <time>2024-08-09T10:00:55Z</time>
      </trkpt>
      <trkpt lat="45.08188" lon="6.07874">
        <ele>1509.6</ele>
        <time>2024-08-09T10:00:56Z</time>
      </trkpt>
      <trkpt lat="45.08188" lon="6.07874">
        <ele>1509.6</ele>
        <time>2024-08-09T10:00:57Z</time>
      </trkpt>
      <trkpt lat="45.08189" lon="6.07877">
        <ele>1509.6</ele>
        <time>2024-08-09T10:00:58Z</time>
      </trkpt>
      <trkpt lat="45.08189" lon="6.07877">
        <ele>1509.6</ele>
        <time>2024-08-09T10:00:59Z</time>
      </trkpt>
      <trkpt lat="45.08189" lon="6.07881">
        <ele>1509.8</ele>
        <time>2024-08-09T10:01:00Z</time>
      </trkpt>
      <trkpt lat="45.08189" lon="6.07881">
        <ele>1510</ele>
        <time>2024-08-09T10:01:01Z</time>
      </trkpt>
      <trkpt lat="45.08188" lon="6.07884">
        <ele>1510.2</ele>
        <time>2024-08-09T10:01:02Z</time>
      </trkpt>
      <trkpt lat="45.08188" lon="6.07884">
        <ele>1510.2</ele>
        <time>2024-08-09T10:01:03Z</time>
      </trkpt>
      <trkpt lat="45.08189" lon="6.07886">
        <ele>1510.2</ele>
        <time>2024-08-09T10:01:04Z</time>
      </trkpt>
      <trkpt lat="45.08189" lon="6.07886">
        <ele>1510.4</ele>
        <time>2024-08-09T10:01:05Z</time>
      </trkpt>
      <trkpt lat="45.08189" lon="6.07886">
        <ele>1510.6</ele>
        <time>2024-08-09T10:01:06Z</time>
      </trkpt>
      <trkpt lat="45.08189" lon="6.0789">
        <ele>1510.6</ele>
        <time>2024-08-09T10:01:07Z</time>
      </trkpt>
      <trkpt lat="45.08189" lon="6.0789">
        <ele>1510.8</ele>
        <time>2024-08-09T10:01:08Z</time>
      </trkpt>
      <trkpt lat="45.08186" lon="6.07893">
        <ele>1511.2</ele>
        <time>2024-08-09T10:01:09Z</time>
      </trkpt>
      <trkpt lat="45.08186" lon="6.07893">
        <ele>1511.2</ele>
        <time>2024-08-09T10:01:10Z</time>
      </trkpt>
      <trkpt lat="45.08186" lon="6.07893">
        <ele>1511.4</ele>
        <time>2024-08-09T10:01:11Z</time>
      </trkpt>
      <trkpt lat="45.08186" lon="6.07896">
        <ele>1511.6</ele>
        <time>2024-08-09T10:01:12Z</time>
      </trkpt>
      <trkpt lat="45.08186" lon="6.07896">
        <ele>1511.8</ele>
        <time>2024-08-09T10:01:13Z</time>
      </trkpt>
      <trkpt lat="45.08186" lon="6.07896">
        <ele>1512</ele>
        <time>2024-08-09T10:01:14Z</time>
      </trkpt>
      <trkpt lat="45.08186" lon="6.07896">
        <ele>1512.2</ele>
        <time>2024-08-09T10:01:15Z</time>
      </trkpt>
      <trkpt lat="45.08186" lon="6.07899">
        <ele>1512.4</ele>
        <time>2024-08-09T10:01:16Z</time>
      </trkpt>
      <trkpt lat="45.08186" lon="6.07899">
        <ele>1512.4</ele>
        <time>2024-08-09T10:01:17Z</time>
      </trkpt>
      <trkpt lat="45.08186" lon="6.07899">
        <ele>1512.6</ele>
        <time>2024-08-09T10:01:18Z</time>
      </trkpt>
      <trkpt lat="45.08186" lon="6.07902">
        <ele>1512.6</ele>
        <time>2024-08-09T10:01:19Z</time>
      </trkpt>
      <trkpt lat="45.08186" lon="6.07902">
        <ele>1512.6</ele>
        <time>2024-08-09T10:01:20Z</time>
      </trkpt>
      <trkpt lat="45.08187" lon="6.07906">
        <ele>1512.8</ele>
        <time>2024-08-09T10:01:21Z</time>
      </trkpt>
      <trkpt lat="45.08187" lon="6.07906">
        <ele>1513.2</ele>
        <time>2024-08-09T10:01:22Z</time>
      </trkpt>
      <trkpt lat="45.08188" lon="6.07909">
        <ele>1513.4</ele>
        <time>2024-08-09T10:01:23Z</time>
      </trkpt>
      <trkpt lat="45.08188" lon="6.07909">
        <ele>1513.6</ele>
        <time>2024-08-09T10:01:24Z</time>
      </trkpt>
      <trkpt lat="45.08189" lon="6.07913">
        <ele>1513.6</ele>
        <time>2024-08-09T10:01:25Z</time>
      </trkpt>
      <trkpt lat="45.08189" lon="6.07913">
        <ele>1514</ele>
        <time>2024-08-09T10:01:26Z</time>
      </trkpt>
      <trkpt lat="45.08189" lon="6.07915">
        <ele>1514.2</ele>
        <time>2024-08-09T10:01:27Z</time>
      </trkpt>
      <trkpt lat="45.08189" lon="6.07915">
        <ele>1514.2</ele>
        <time>2024-08-09T10:01:28Z</time>
      </trkpt>
      <trkpt lat="45.0819" lon="6.07918">
        <ele>1514.4</ele>
        <time>2024-08-09T10:01:29Z</time>
      </trkpt>
      <trkpt lat="45.08193" lon="6.07921">
        <ele>1514.6</ele>
        <time>2024-08-09T10:01:30Z</time>
      </trkpt>
      <trkpt lat="45.08193" lon="6.07921">
        <ele>1514.8</ele>
        <time>2024-08-09T10:01:31Z</time>
      </trkpt>
      <trkpt lat="45.08194" lon="6.07923">
        <ele>1514.8</ele>
        <time>2024-08-09T10:01:32Z</time>
      </trkpt>
      <trkpt lat="45.08194" lon="6.07923">
        <ele>1515.2</ele>
        <time>2024-08-09T10:01:33Z</time>
      </trkpt>
      <trkpt lat="45.08194" lon="6.07923">
        <ele>1515.4</ele>
        <time>2024-08-09T10:01:34Z</time>
      </trkpt>
      <trkpt lat="45.08193" lon="6.07926">
        <ele>1515.4</ele>
        <time>2024-08-09T10:01:35Z</time>
      </trkpt>
      <trkpt lat="45.08193" lon="6.07926">
        <ele>1515.4</ele>
        <time>2024-08-09T10:01:36Z</time>
      </trkpt>
      <trkpt lat="45.08196" lon="6.07929">
        <ele>1515.4</ele>
        <time>2024-08-09T10:01:37Z</time>
      </trkpt>
      <trkpt lat="45.08196" lon="6.07929">
        <ele>1515.4</ele>
        <time>2024-08-09T10:01:38Z</time>
      </trkpt>
      <trkpt lat="45.08197" lon="6.07932">
        <ele>1515.4</ele>
        <time>2024-08-09T10:01:39Z</time>
      </trkpt>
      <trkpt lat="45.08197" lon="6.07932">
        <ele>1515.4</ele>
        <time>2024-08-09T10:01:40Z</time>
      </trkpt>
      <trkpt lat="45.08196" lon="6.07935">
        <ele>1515.2</ele>
        <time>2024-08-09T10:01:41Z</time>
      </trkpt>
      <trkpt lat="45.08196" lon="6.07935">
        <ele>1515</ele>
        <time>2024-08-09T10:01:42Z</time>
      </trkpt>
      <trkpt lat="45.08197" lon="6.07937">
        <ele>1515</ele>
        <time>2024-08-09T10:01:43Z</time>
      </trkpt>
      <trkpt lat="45.08197" lon="6.07937">
        <ele>1515</ele>
        <time>2024-08-09T10:01:44Z</time>
      </trkpt>
      <trkpt lat="45.08197" lon="6.07937">
        <ele>1515.2</ele>
        <time>2024-08-09T10:01:45Z</time>
      </trkpt>
      <trkpt lat="45.08198" lon="6.0794">
        <ele>1515.6</ele>
        <time>2024-08-09T10:01:46Z</time>
      </trkpt>
      <trkpt lat="45.08198" lon="6.0794">
        <ele>1515.6</ele>
        <time>2024-08-09T10:01:47Z</time>
      </trkpt>
      <trkpt lat="45.08198" lon="6.07944">
        <ele>1515.8</ele>
        <time>2024-08-09T10:01:48Z</time>
      </trkpt>
      <trkpt lat="45.08199" lon="6.07947">
        <ele>1516</ele>
        <time>2024-08-09T10:01:49Z</time>
      </trkpt>
      <trkpt lat="45.082" lon="6.07949">
        <ele>1516.2</ele>
        <time>2024-08-09T10:01:50Z</time>
      </trkpt>
      <trkpt lat="45.08201" lon="6.07952">
        <ele>1516.2</ele>
        <time>2024-08-09T10:01:51Z</time>
      </trkpt>
      <trkpt lat="45.08202" lon="6.07954">
        <ele>1516.2</ele>
        <time>2024-08-09T10:01:52Z</time>
      </trkpt>
      <trkpt lat="45.08203" lon="6.07956">
        <ele>1516.4</ele>
        <time>2024-08-09T10:01:53Z</time>
      </trkpt>
      <trkpt lat="45.08203" lon="6.07956">
        <ele>1516.4</ele>
        <time>2024-08-09T10:01:54Z</time>
      </trkpt>
      <trkpt lat="45.08205" lon="6.0796">
        <ele>1516.4</ele>
        <time>2024-08-09T10:01:55Z</time>
      </trkpt>
      <trkpt lat="45.08205" lon="6.0796">
        <ele>1516.4</ele>
        <time>2024-08-09T10:01:56Z</time>
      </trkpt>
      <trkpt lat="45.08205" lon="6.0796">
        <ele>1516.6</ele>
        <time>2024-08-09T10:01:57Z</time>
      </trkpt>
      <trkpt lat="45.08205" lon="6.07964">
        <ele>1516.6</ele>
        <time>2024-08-09T10:01:58Z</time>
      </trkpt>
      <trkpt lat="45.08203" lon="6.07967">
        <ele>1516.6</ele>
        <time>2024-08-09T10:01:59Z</time>
      </trkpt>
      <trkpt lat="45.08202" lon="6.0797">
        <ele>1516.6</ele>
        <time>2024-08-09T10:02:00Z</time>
      </trkpt>
      <trkpt lat="45.082" lon="6.07973">
        <ele>1516.6</ele>
        <time>2024-08-09T10:02:01Z</time>
      </trkpt>
      <trkpt lat="45.08199" lon="6.07975">
        <ele>1516.6</ele>
        <time>2024-08-09T10:02:02Z</time>
      </trkpt>
      <trkpt lat="45.08198" lon="6.07977">
        <ele>1516.6</ele>
        <time>2024-08-09T10:02:03Z</time>
      </trkpt>
      <trkpt lat="45.08198" lon="6.07977">
        <ele>1516.8</ele>
        <time>2024-08-09T10:02:04Z</time>
      </trkpt>
      <trkpt lat="45.08197" lon="6.07981">
        <ele>1516.8</ele>
        <time>2024-08-09T10:02:05Z</time>
      </trkpt>
      <trkpt lat="45.08197" lon="6.07981">
        <ele>1517</ele>
        <time>2024-08-09T10:02:06Z</time>
      </trkpt>
      <trkpt lat="45.08197" lon="6.07984">
        <ele>1517</ele>
        <time>2024-08-09T10:02:07Z</time>
      </trkpt>
      <trkpt lat="45.08197" lon="6.07984">
        <ele>1517</ele>
        <time>2024-08-09T10:02:08Z</time>
      </trkpt>
      <trkpt lat="45.08197" lon="6.07984">
        <ele>1517</ele>
        <time>2024-08-09T10:02:09Z</time>
      </trkpt>
      <trkpt lat="45.08198" lon="6.07987">
        <ele>1517.4</ele>
        <time>2024-08-09T10:02:10Z</time>
      </trkpt>
      <trkpt lat="45.08198" lon="6.07987">
        <ele>1517.6</ele>
        <time>2024-08-09T10:02:11Z</time>
      </trkpt>
      <trkpt lat="45.08198" lon="6.07987">
        <ele>1517.6</ele>
        <time>2024-08-09T10:02:12Z</time>
      </trkpt>
      <trkpt lat="45.08196" lon="6.07991">
        <ele>1517.6</ele>
        <time>2024-08-09T10:02:13Z</time>
      </trkpt>
      <trkpt lat="45.08196" lon="6.07991">
        <ele>1517.8</ele>
        <time>2024-08-09T10:02:14Z</time>
      </trkpt>
      <trkpt lat="45.08196" lon="6.07991">
        <ele>1518.2</ele>
        <time>2024-08-09T10:02:15Z</time>
      </trkpt>
      <trkpt lat="45.08194" lon="6.07993">
        <ele>1518.2</ele>
        <time>2024-08-09T10:02:16Z</time>
      </trkpt>
      <trkpt lat="45.08194" lon="6.07993">
        <ele>1518.2</ele>
        <time>2024-08-09T10:02:17Z</time>
      </trkpt>
      <trkpt lat="45.08193" lon="6.07997">
        <ele>1518</ele>
        <time>2024-08-09T10:02:18Z</time>
      </trkpt>
      <trkpt lat="45.0819" lon="6.08">
        <ele>1518</ele>
        <time>2024-08-09T10:02:19Z</time>
      </trkpt>
      <trkpt lat="45.0819" lon="6.08">
        <ele>1518</ele>
        <time>2024-08-09T10:02:20Z</time>
      </trkpt>
      <trkpt lat="45.08189" lon="6.08003">
        <ele>1518</ele>
        <time>2024-08-09T10:02:21Z</time>
      </trkpt>
      <trkpt lat="45.08189" lon="6.08003">
        <ele>1518</ele>
        <time>2024-08-09T10:02:22Z</time>
      </trkpt>
      <trkpt lat="45.08186" lon="6.08005">
        <ele>1518.4</ele>
        <time>2024-08-09T10:02:23Z</time>
      </trkpt>
      <trkpt lat="45.08186" lon="6.08005">
        <ele>1518.4</ele>
        <time>2024-08-09T10:02:24Z</time>
      </trkpt>
      <trkpt lat="45.08184" lon="6.08006">
        <ele>1518.4</ele>
        <time>2024-08-09T10:02:25Z</time>
      </trkpt>
      <trkpt lat="45.08184" lon="6.08006">
        <ele>1518.2</ele>
        <time>2024-08-09T10:02:26Z</time>
      </trkpt>
      <trkpt lat="45.08184" lon="6.08009">
        <ele>1518.2</ele>
        <time>2024-08-09T10:02:27Z</time>
      </trkpt>
      <trkpt lat="45.08184" lon="6.08009">
        <ele>1518.6</ele>
        <time>2024-08-09T10:02:28Z</time>
      </trkpt>
      <trkpt lat="45.08184" lon="6.08013">
        <ele>1518.6</ele>
        <time>2024-08-09T10:02:29Z</time>
      </trkpt>
      <trkpt lat="45.08184" lon="6.08013">
        <ele>1518.6</ele>
        <time>2024-08-09T10:02:30Z</time>
      </trkpt>
      <trkpt lat="45.08184" lon="6.08016">
        <ele>1518.6</ele>
        <time>2024-08-09T10:02:31Z</time>
      </trkpt>
      <trkpt lat="45.08184" lon="6.08016">
        <ele>1518.8</ele>
        <time>2024-08-09T10:02:32Z</time>
      </trkpt>
      <trkpt lat="45.08182" lon="6.0802">
        <ele>1519</ele>
        <time>2024-08-09T10:02:33Z</time>
      </trkpt>
      <trkpt lat="45.08182" lon="6.0802">
        <ele>1519.4</ele>
        <time>2024-08-09T10:02:34Z</time>
      </trkpt>
      <trkpt lat="45.08182" lon="6.08023">
        <ele>1519.4</ele>
        <time>2024-08-09T10:02:35Z</time>
      </trkpt>
      <trkpt lat="45.08182" lon="6.08023">
        <ele>1519.8</ele>
        <time>2024-08-09T10:02:36Z</time>
      </trkpt>
      <trkpt lat="45.08182" lon="6.08026">
        <ele>1519.8</ele>
        <time>2024-08-09T10:02:37Z</time>
      </trkpt>
      <trkpt lat="45.08182" lon="6.08026">
        <ele>1520</ele>
        <time>2024-08-09T10:02:38Z</time>
      </trkpt>
      <trkpt lat="45.08182" lon="6.08029">
        <ele>1520</ele>
        <time>2024-08-09T10:02:39Z</time>
      </trkpt>
      <trkpt lat="45.08182" lon="6.08029">
        <ele>1520.2</ele>
        <time>2024-08-09T10:02:40Z</time>
      </trkpt>
      <trkpt lat="45.08181" lon="6.08032">
        <ele>1520.2</ele>
        <time>2024-08-09T10:02:41Z</time>
      </trkpt>
      <trkpt lat="45.08181" lon="6.08032">
        <ele>1520.2</ele>
        <time>2024-08-09T10:02:42Z</time>
      </trkpt>
      <trkpt lat="45.0818" lon="6.08035">
        <ele>1520.2</ele>
        <time>2024-08-09T10:02:43Z</time>
      </trkpt>
      <trkpt lat="45.08179" lon="6.08037">
        <ele>1520.4</ele>
        <time>2024-08-09T10:02:44Z</time>
      </trkpt>
      <trkpt lat="45.08179" lon="6.08037">
        <ele>1520.6</ele>
        <time>2024-08-09T10:02:45Z</time>
      </trkpt>
      <trkpt lat="45.08176" lon="6.08041">
        <ele>1520.6</ele>
        <time>2024-08-09T10:02:46Z</time>
      </trkpt>
      <trkpt lat="45.08176" lon="6.08044">
        <ele>1520.8</ele>
        <time>2024-08-09T10:02:47Z</time>
      </trkpt>
      <trkpt lat="45.08174" lon="6.08046">
        <ele>1520.8</ele>
        <time>2024-08-09T10:02:48Z</time>
      </trkpt>
      <trkpt lat="45.08174" lon="6.08046">
        <ele>1520.6</ele>
        <time>2024-08-09T10:02:49Z</time>
      </trkpt>
      <trkpt lat="45.08174" lon="6.08051">
        <ele>1520.6</ele>
        <time>2024-08-09T10:02:50Z</time>
      </trkpt>
      <trkpt lat="45.08174" lon="6.08051">
        <ele>1520.8</ele>
        <time>2024-08-09T10:02:51Z</time>
      </trkpt>
      <trkpt lat="45.08175" lon="6.08054">
        <ele>1520.8</ele>
        <time>2024-08-09T10:02:52Z</time>
      </trkpt>
      <trkpt lat="45.08175" lon="6.08054">
        <ele>1520.6</ele>
        <time>2024-08-09T10:02:53Z</time>
      </trkpt>
      <trkpt lat="45.08176" lon="6.08056">
        <ele>1520.4</ele>
        <time>2024-08-09T10:02:54Z</time>
      </trkpt>
      <trkpt lat="45.08176" lon="6.08056">
        <ele>1520.4</ele>
        <time>2024-08-09T10:02:55Z</time>
      </trkpt>
      <trkpt lat="45.08176" lon="6.08056">
        <ele>1520.6</ele>
        <time>2024-08-09T10:02:56Z</time>
      </trkpt>
      <trkpt lat="45.08175" lon="6.08059">
        <ele>1520.8</ele>
        <time>2024-08-09T10:02:57Z</time>
      </trkpt>
      <trkpt lat="45.08175" lon="6.08059">
        <ele>1520.8</ele>
        <time>2024-08-09T10:02:58Z</time>
      </trkpt>
      <trkpt lat="45.08174" lon="6.08062">
        <ele>1521</ele>
        <time>2024-08-09T10:02:59Z</time>
      </trkpt>
      <trkpt lat="45.08174" lon="6.08062">
        <ele>1521.2</ele>
        <time>2024-08-09T10:03:00Z</time>
      </trkpt>
      <trkpt lat="45.08172" lon="6.08063">
        <ele>1521.2</ele>
        <time>2024-08-09T10:03:01Z</time>
      </trkpt>
      <trkpt lat="45.0817" lon="6.08064">
        <ele>1521.6</ele>
        <time>2024-08-09T10:03:02Z</time>
      </trkpt>
      <trkpt lat="45.0817" lon="6.08064">
        <ele>1521.6</ele>
        <time>2024-08-09T10:03:03Z</time>
      </trkpt>
      <trkpt lat="45.08168" lon="6.08067">
        <ele>1521.6</ele>
        <time>2024-08-09T10:03:04Z</time>
      </trkpt>
      <trkpt lat="45.08168" lon="6.08067">
        <ele>1521.8</ele>
        <time>2024-08-09T10:03:05Z</time>
      </trkpt>
      <trkpt lat="45.08166" lon="6.0807">
        <ele>1521.8</ele>
        <time>2024-08-09T10:03:06Z</time>
      </trkpt>
      <trkpt lat="45.08166" lon="6.0807">
        <ele>1521.8</ele>
        <time>2024-08-09T10:03:07Z</time>
      </trkpt>
      <trkpt lat="45.08165" lon="6.08075">
        <ele>1522</ele>
        <time>2024-08-09T10:03:08Z</time>
      </trkpt>
      <trkpt lat="45.08164" lon="6.08077">
        <ele>1522.2</ele>
        <time>2024-08-09T10:03:09Z</time>
      </trkpt>
      <trkpt lat="45.08164" lon="6.08077">
        <ele>1522.2</ele>
        <time>2024-08-09T10:03:10Z</time>
      </trkpt>
      <trkpt lat="45.08164" lon="6.0808">
        <ele>1522.2</ele>
        <time>2024-08-09T10:03:11Z</time>
      </trkpt>
      <trkpt lat="45.08164" lon="6.08083">
        <ele>1522.2</ele>
        <time>2024-08-09T10:03:12Z</time>
      </trkpt>
      <trkpt lat="45.08164" lon="6.08083">
        <ele>1522.2</ele>
        <time>2024-08-09T10:03:13Z</time>
      </trkpt>
      <trkpt lat="45.08164" lon="6.08087">
        <ele>1522.4</ele>
        <time>2024-08-09T10:03:14Z</time>
      </trkpt>
      <trkpt lat="45.08164" lon="6.08087">
        <ele>1522.4</ele>
        <time>2024-08-09T10:03:15Z</time>
      </trkpt>
      <trkpt lat="45.08165" lon="6.08091">
        <ele>1522.2</ele>
        <time>2024-08-09T10:03:16Z</time>
      </trkpt>
      <trkpt lat="45.08165" lon="6.08091">
        <ele>1522.2</ele>
        <time>2024-08-09T10:03:17Z</time>
      </trkpt>
      <trkpt lat="45.08163" lon="6.08094">
        <ele>1522.2</ele>
        <time>2024-08-09T10:03:18Z</time>
      </trkpt>
      <trkpt lat="45.08163" lon="6.08094">
        <ele>1522.2</ele>
        <time>2024-08-09T10:03:19Z</time>
      </trkpt>
      <trkpt lat="45.08161" lon="6.08098">
        <ele>1522.2</ele>
        <time>2024-08-09T10:03:20Z</time>
      </trkpt>
      <trkpt lat="45.08161" lon="6.08101">
        <ele>1522.4</ele>
        <time>2024-08-09T10:03:21Z</time>
      </trkpt>
      <trkpt lat="45.08161" lon="6.08101">
        <ele>1522.4</ele>
        <time>2024-08-09T10:03:22Z</time>
      </trkpt>
      <trkpt lat="45.08164" lon="6.08105">
        <ele>1522</ele>
        <time>2024-08-09T10:03:23Z</time>
      </trkpt>
      <trkpt lat="45.08164" lon="6.08105">
        <ele>1522</ele>
        <time>2024-08-09T10:03:24Z</time>
      </trkpt>
      <trkpt lat="45.08164" lon="6.08108">
        <ele>1522.2</ele>
        <time>2024-08-09T10:03:25Z</time>
      </trkpt>
      <trkpt lat="45.08164" lon="6.08108">
        <ele>1522.4</ele>
        <time>2024-08-09T10:03:26Z</time>
      </trkpt>
      <trkpt lat="45.08164" lon="6.08111">
        <ele>1522.4</ele>
        <time>2024-08-09T10:03:27Z</time>
      </trkpt>
      <trkpt lat="45.08164" lon="6.08111">
        <ele>1522.4</ele>
        <time>2024-08-09T10:03:28Z</time>
      </trkpt>
      <trkpt lat="45.08165" lon="6.08114">
        <ele>1522.4</ele>
        <time>2024-08-09T10:03:29Z</time>
      </trkpt>
      <trkpt lat="45.08165" lon="6.08114">
        <ele>1522.4</ele>
        <time>2024-08-09T10:03:30Z</time>
      </trkpt>
      <trkpt lat="45.08165" lon="6.08118">
        <ele>1522.4</ele>
        <time>2024-08-09T10:03:31Z</time>
      </trkpt>
      <trkpt lat="45.08165" lon="6.08118">
        <ele>1522.6</ele>
        <time>2024-08-09T10:03:32Z</time>
      </trkpt>
      <trkpt lat="45.08164" lon="6.08121">
        <ele>1522.8</ele>
        <time>2024-08-09T10:03:33Z</time>
      </trkpt>
      <trkpt lat="45.08164" lon="6.08121">
        <ele>1522.8</ele>
        <time>2024-08-09T10:03:34Z</time>
      </trkpt>
      <trkpt lat="45.08164" lon="6.08126">
        <ele>1522.8</ele>
        <time>2024-08-09T10:03:35Z</time>
      </trkpt>
      <trkpt lat="45.08164" lon="6.08126">
        <ele>1522.8</ele>
        <time>2024-08-09T10:03:36Z</time>
      </trkpt>
      <trkpt lat="45.08166" lon="6.0813">
        <ele>1523.2</ele>
        <time>2024-08-09T10:03:37Z</time>
      </trkpt>
      <trkpt lat="45.08166" lon="6.0813">
        <ele>1523.2</ele>
        <time>2024-08-09T10:03:38Z</time>
      </trkpt>
      <trkpt lat="45.08166" lon="6.08133">
        <ele>1523.4</ele>
        <time>2024-08-09T10:03:39Z</time>
      </trkpt>
      <trkpt lat="45.08166" lon="6.08133">
        <ele>1523.4</ele>
        <time>2024-08-09T10:03:40Z</time>
      </trkpt>
      <trkpt lat="45.08166" lon="6.08136">
        <ele>1523.4</ele>
        <time>2024-08-09T10:03:41Z</time>
      </trkpt>
      <trkpt lat="45.08166" lon="6.08136">
        <ele>1523.6</ele>
        <time>2024-08-09T10:03:42Z</time>
      </trkpt>
      <trkpt lat="45.08165" lon="6.0814">
        <ele>1523.6</ele>
        <time>2024-08-09T10:03:43Z</time>
      </trkpt>
      <trkpt lat="45.08165" lon="6.0814">
        <ele>1523.8</ele>
        <time>2024-08-09T10:03:44Z</time>
      </trkpt>
      <trkpt lat="45.08165" lon="6.08143">
        <ele>1524</ele>
        <time>2024-08-09T10:03:45Z</time>
      </trkpt>
      <trkpt lat="45.08165" lon="6.08143">
        <ele>1524</ele>
        <time>2024-08-09T10:03:46Z</time>
      </trkpt>
      <trkpt lat="45.08166" lon="6.08147">
        <ele>1524</ele>
        <time>2024-08-09T10:03:47Z</time>
      </trkpt>
      <trkpt lat="45.08166" lon="6.08147">
        <ele>1524.4</ele>
        <time>2024-08-09T10:03:48Z</time>
      </trkpt>
      <trkpt lat="45.08166" lon="6.0815">
        <ele>1524.4</ele>
        <time>2024-08-09T10:03:49Z</time>
      </trkpt>
      <trkpt lat="45.08166" lon="6.0815">
        <ele>1524.4</ele>
        <time>2024-08-09T10:03:50Z</time>
      </trkpt>
      <trkpt lat="45.08166" lon="6.08154">
        <ele>1524.6</ele>
        <time>2024-08-09T10:03:51Z</time>
      </trkpt>
      <trkpt lat="45.08165" lon="6.08156">
        <ele>1525</ele>
        <time>2024-08-09T10:03:52Z</time>
      </trkpt>
      <trkpt lat="45.08165" lon="6.08156">
        <ele>1525.4</ele>
        <time>2024-08-09T10:03:53Z</time>
      </trkpt>
      <trkpt lat="45.08164" lon="6.0816">
        <ele>1525.4</ele>
        <time>2024-08-09T10:03:54Z</time>
      </trkpt>
      <trkpt lat="45.08164" lon="6.0816">
        <ele>1525.4</ele>
        <time>2024-08-09T10:03:55Z</time>
      </trkpt>
      <trkpt lat="45.08164" lon="6.08163">
        <ele>1525.4</ele>
        <time>2024-08-09T10:03:56Z</time>
      </trkpt>
      <trkpt lat="45.08164" lon="6.08163">
        <ele>1525.4</ele>
        <time>2024-08-09T10:03:57Z</time>
      </trkpt>
      <trkpt lat="45.08163" lon="6.08167">
        <ele>1525.6</ele>
        <time>2024-08-09T10:03:58Z</time>
      </trkpt>
      <trkpt lat="45.08163" lon="6.08167">
        <ele>1525.6</ele>
        <time>2024-08-09T10:03:59Z</time>
      </trkpt>
      <trkpt lat="45.08163" lon="6.0817">
        <ele>1525.8</ele>
        <time>2024-08-09T10:04:00Z</time>
      </trkpt>
      <trkpt lat="45.08163" lon="6.0817">
        <ele>1525.8</ele>
        <time>2024-08-09T10:04:01Z</time>
      </trkpt>
      <trkpt lat="45.08161" lon="6.08173">
        <ele>1525.8</ele>
        <time>2024-08-09T10:04:02Z</time>
      </trkpt>
      <trkpt lat="45.08161" lon="6.08173">
        <ele>1525.8</ele>
        <time>2024-08-09T10:04:03Z</time>
      </trkpt>
      <trkpt lat="45.08159" lon="6.08177">
        <ele>1525.8</ele>
        <time>2024-08-09T10:04:04Z</time>
      </trkpt>
      <trkpt lat="45.08158" lon="6.08179">
        <ele>1525.8</ele>
        <time>2024-08-09T10:04:05Z</time>
      </trkpt>
      <trkpt lat="45.08158" lon="6.08179">
        <ele>1525.8</ele>
        <time>2024-08-09T10:04:06Z</time>
      </trkpt>
      <trkpt lat="45.08158" lon="6.08183">
        <ele>1525.8</ele>
        <time>2024-08-09T10:04:07Z</time>
      </trkpt>
      <trkpt lat="45.08158" lon="6.08183">
        <ele>1525.8</ele>
        <time>2024-08-09T10:04:08Z</time>
      </trkpt>
      <trkpt lat="45.08157" lon="6.08187">
        <ele>1526</ele>
        <time>2024-08-09T10:04:09Z</time>
      </trkpt>
      <trkpt lat="45.08157" lon="6.08187">
        <ele>1526.2</ele>
        <time>2024-08-09T10:04:10Z</time>
      </trkpt>
      <trkpt lat="45.08157" lon="6.0819">
        <ele>1526.2</ele>
        <time>2024-08-09T10:04:11Z</time>
      </trkpt>
      <trkpt lat="45.08157" lon="6.0819">
        <ele>1526.4</ele>
        <time>2024-08-09T10:04:12Z</time>
      </trkpt>
      <trkpt lat="45.08156" lon="6.08193">
        <ele>1526.6</ele>
        <time>2024-08-09T10:04:13Z</time>
      </trkpt>
      <trkpt lat="45.08156" lon="6.08193">
        <ele>1526.8</ele>
        <time>2024-08-09T10:04:14Z</time>
      </trkpt>
      <trkpt lat="45.08155" lon="6.08196">
        <ele>1526.8</ele>
        <time>2024-08-09T10:04:15Z</time>
      </trkpt>
      <trkpt lat="45.08155" lon="6.08196">
        <ele>1527</ele>
        <time>2024-08-09T10:04:16Z</time>
      </trkpt>
      <trkpt lat="45.08156" lon="6.082">
        <ele>1527.2</ele>
        <time>2024-08-09T10:04:17Z</time>
      </trkpt>
      <trkpt lat="45.08156" lon="6.082">
        <ele>1527.4</ele>
        <time>2024-08-09T10:04:18Z</time>
      </trkpt>
      <trkpt lat="45.08155" lon="6.08203">
        <ele>1527.6</ele>
        <time>2024-08-09T10:04:19Z</time>
      </trkpt>
      <trkpt lat="45.08155" lon="6.08203">
        <ele>1527.8</ele>
        <time>2024-08-09T10:04:20Z</time>
      </trkpt>
      <trkpt lat="45.08154" lon="6.08207">
        <ele>1527.8</ele>
        <time>2024-08-09T10:04:21Z</time>
      </trkpt>
      <trkpt lat="45.08154" lon="6.08207">
        <ele>1528</ele>
        <time>2024-08-09T10:04:22Z</time>
      </trkpt>
      <trkpt lat="45.08154" lon="6.08211">
        <ele>1528</ele>
        <time>2024-08-09T10:04:23Z</time>
      </trkpt>
      <trkpt lat="45.08154" lon="6.08211">
        <ele>1528</ele>
        <time>2024-08-09T10:04:24Z</time>
      </trkpt>
      <trkpt lat="45.08153" lon="6.08213">
        <ele>1528.2</ele>
        <time>2024-08-09T10:04:25Z</time>
      </trkpt>
      <trkpt lat="45.08153" lon="6.08213">
        <ele>1528.2</ele>
        <time>2024-08-09T10:04:26Z</time>
      </trkpt>
      <trkpt lat="45.08152" lon="6.08217">
        <ele>1528.2</ele>
        <time>2024-08-09T10:04:27Z</time>
      </trkpt>
      <trkpt lat="45.08152" lon="6.08217">
        <ele>1528</ele>
        <time>2024-08-09T10:04:28Z</time>
      </trkpt>
      <trkpt lat="45.08153" lon="6.0822">
        <ele>1527.8</ele>
        <time>2024-08-09T10:04:29Z</time>
      </trkpt>
      <trkpt lat="45.08153" lon="6.0822">
        <ele>1527.8</ele>
        <time>2024-08-09T10:04:30Z</time>
      </trkpt>
      <trkpt lat="45.08153" lon="6.0822">
        <ele>1527.8</ele>
        <time>2024-08-09T10:04:31Z</time>
      </trkpt>
      <trkpt lat="45.08153" lon="6.08224">
        <ele>1527.8</ele>
        <time>2024-08-09T10:04:32Z</time>
      </trkpt>
      <trkpt lat="45.08153" lon="6.08224">
        <ele>1527.8</ele>
        <time>2024-08-09T10:04:33Z</time>
      </trkpt>
      <trkpt lat="45.08153" lon="6.08227">
        <ele>1528</ele>
        <time>2024-08-09T10:04:34Z</time>
      </trkpt>
      <trkpt lat="45.08153" lon="6.08227">
        <ele>1528.2</ele>
        <time>2024-08-09T10:04:35Z</time>
      </trkpt>
      <trkpt lat="45.08153" lon="6.08229">
        <ele>1528.4</ele>
        <time>2024-08-09T10:04:36Z</time>
      </trkpt>
      <trkpt lat="45.08153" lon="6.08229">
        <ele>1528.8</ele>
        <time>2024-08-09T10:04:37Z</time>
      </trkpt>
      <trkpt lat="45.08153" lon="6.08233">
        <ele>1528.8</ele>
        <time>2024-08-09T10:04:38Z</time>
      </trkpt>
      <trkpt lat="45.08153" lon="6.08233">
        <ele>1529</ele>
        <time>2024-08-09T10:04:39Z</time>
      </trkpt>
      <trkpt lat="45.08154" lon="6.08236">
        <ele>1529.2</ele>
        <time>2024-08-09T10:04:40Z</time>
      </trkpt>
      <trkpt lat="45.08154" lon="6.08236">
        <ele>1529.2</ele>
        <time>2024-08-09T10:04:41Z</time>
      </trkpt>
      <trkpt lat="45.08155" lon="6.08239">
        <ele>1529.4</ele>
        <time>2024-08-09T10:04:42Z</time>
      </trkpt>
      <trkpt lat="45.08155" lon="6.08239">
        <ele>1529.8</ele>
        <time>2024-08-09T10:04:43Z</time>
      </trkpt>
      <trkpt lat="45.08155" lon="6.08239">
        <ele>1530</ele>
        <time>2024-08-09T10:04:44Z</time>
      </trkpt>
      <trkpt lat="45.08155" lon="6.08243">
        <ele>1530</ele>
        <time>2024-08-09T10:04:45Z</time>
      </trkpt>
      <trkpt lat="45.08155" lon="6.08243">
        <ele>1530</ele>
        <time>2024-08-09T10:04:46Z</time>
      </trkpt>
      <trkpt lat="45.08156" lon="6.08245">
        <ele>1530.2</ele>
        <time>2024-08-09T10:04:47Z</time>
      </trkpt>
      <trkpt lat="45.08156" lon="6.08245">
        <ele>1530.2</ele>
        <time>2024-08-09T10:04:48Z</time>
      </trkpt>
      <trkpt lat="45.08157" lon="6.08247">
        <ele>1530.8</ele>
        <time>2024-08-09T10:04:49Z</time>
      </trkpt>
      <trkpt lat="45.08157" lon="6.08247">
        <ele>1530.8</ele>
        <time>2024-08-09T10:04:50Z</time>
      </trkpt>
      <trkpt lat="45.08157" lon="6.08247">
        <ele>1530.8</ele>
        <time>2024-08-09T10:04:51Z</time>
      </trkpt>
      <trkpt lat="45.08157" lon="6.0825">
        <ele>1531</ele>
        <time>2024-08-09T10:04:52Z</time>
      </trkpt>
      <trkpt lat="45.08157" lon="6.0825">
        <ele>1531.2</ele>
        <time>2024-08-09T10:04:53Z</time>
      </trkpt>
      <trkpt lat="45.08158" lon="6.08253">
        <ele>1531.4</ele>
        <time>2024-08-09T10:04:54Z</time>
      </trkpt>
      <trkpt lat="45.08158" lon="6.08253">
        <ele>1531.4</ele>
        <time>2024-08-09T10:04:55Z</time>
      </trkpt>
      <trkpt lat="45.08158" lon="6.08256">
        <ele>1531.6</ele>
        <time>2024-08-09T10:04:56Z</time>
      </trkpt>
      <trkpt lat="45.08158" lon="6.08256">
        <ele>1532</ele>
        <time>2024-08-09T10:04:57Z</time>
      </trkpt>
      <trkpt lat="45.08158" lon="6.08256">
        <ele>1532</ele>
        <time>2024-08-09T10:04:58Z</time>
      </trkpt>
      <trkpt lat="45.08158" lon="6.0826">
        <ele>1532.6</ele>
        <time>2024-08-09T10:04:59Z</time>
      </trkpt>
      <trkpt lat="45.08158" lon="6.0826">
        <ele>1532.6</ele>
        <time>2024-08-09T10:05:00Z</time>
      </trkpt>
      <trkpt lat="45.08158" lon="6.0826">
        <ele>1533</ele>
        <time>2024-08-09T10:05:01Z</time>
      </trkpt>
      <trkpt lat="45.08158" lon="6.08262">
        <ele>1533.6</ele>
        <time>2024-08-09T10:05:02Z</time>
      </trkpt>
      <trkpt lat="45.08158" lon="6.08262">
        <ele>1533.6</ele>
        <time>2024-08-09T10:05:03Z</time>
      </trkpt>
      <trkpt lat="45.08158" lon="6.08266">
        <ele>1533.6</ele>
        <time>2024-08-09T10:05:04Z</time>
      </trkpt>
      <trkpt lat="45.08158" lon="6.08266">
        <ele>1533.6</ele>
        <time>2024-08-09T10:05:05Z</time>
      </trkpt>
      <trkpt lat="45.0816" lon="6.08269">
        <ele>1533.6</ele>
        <time>2024-08-09T10:05:06Z</time>
      </trkpt>
      <trkpt lat="45.0816" lon="6.08269">
        <ele>1533.6</ele>
        <time>2024-08-09T10:05:07Z</time>
      </trkpt>
      <trkpt lat="45.0816" lon="6.08272">
        <ele>1533.6</ele>
        <time>2024-08-09T10:05:08Z</time>
      </trkpt>
      <trkpt lat="45.0816" lon="6.08272">
        <ele>1533.4</ele>
        <time>2024-08-09T10:05:09Z</time>
      </trkpt>
      <trkpt lat="45.08159" lon="6.08276">
        <ele>1533.4</ele>
        <time>2024-08-09T10:05:10Z</time>
      </trkpt>
      <trkpt lat="45.08159" lon="6.08276">
        <ele>1533.4</ele>
        <time>2024-08-09T10:05:11Z</time>
      </trkpt>
      <trkpt lat="45.08158" lon="6.08279">
        <ele>1533.6</ele>
        <time>2024-08-09T10:05:12Z</time>
      </trkpt>
      <trkpt lat="45.08158" lon="6.08279">
        <ele>1534.2</ele>
        <time>2024-08-09T10:05:13Z</time>
      </trkpt>
      <trkpt lat="45.08159" lon="6.08283">
        <ele>1534.2</ele>
        <time>2024-08-09T10:05:14Z</time>
      </trkpt>
      <trkpt lat="45.08159" lon="6.08283">
        <ele>1534.2</ele>
        <time>2024-08-09T10:05:15Z</time>
      </trkpt>
      <trkpt lat="45.08158" lon="6.08286">
        <ele>1534.4</ele>
        <time>2024-08-09T10:05:16Z</time>
      </trkpt>
      <trkpt lat="45.08158" lon="6.08286">
        <ele>1534.4</ele>
        <time>2024-08-09T10:05:17Z</time>
      </trkpt>
      <trkpt lat="45.08158" lon="6.0829">
        <ele>1534.4</ele>
        <time>2024-08-09T10:05:18Z</time>
      </trkpt>
      <trkpt lat="45.08158" lon="6.0829">
        <ele>1534.4</ele>
        <time>2024-08-09T10:05:19Z</time>
      </trkpt>
      <trkpt lat="45.08157" lon="6.08293">
        <ele>1534.8</ele>
        <time>2024-08-09T10:05:20Z</time>
      </trkpt>
      <trkpt lat="45.08157" lon="6.08293">
        <ele>1535</ele>
        <time>2024-08-09T10:05:21Z</time>
      </trkpt>
      <trkpt lat="45.08157" lon="6.08297">
        <ele>1535.2</ele>
        <time>2024-08-09T10:05:22Z</time>
      </trkpt>
      <trkpt lat="45.08157" lon="6.08297">
        <ele>1535.2</ele>
        <time>2024-08-09T10:05:23Z</time>
      </trkpt>
      <trkpt lat="45.08156" lon="6.083">
        <ele>1535</ele>
        <time>2024-08-09T10:05:24Z</time>
      </trkpt>
      <trkpt lat="45.08156" lon="6.083">
        <ele>1535</ele>
        <time>2024-08-09T10:05:25Z</time>
      </trkpt>
      <trkpt lat="45.08156" lon="6.08303">
        <ele>1534.8</ele>
        <time>2024-08-09T10:05:26Z</time>
      </trkpt>
      <trkpt lat="45.08156" lon="6.08303">
        <ele>1534.8</ele>
        <time>2024-08-09T10:05:27Z</time>
      </trkpt>
      <trkpt lat="45.08155" lon="6.08307">
        <ele>1535</ele>
        <time>2024-08-09T10:05:28Z</time>
      </trkpt>
      <trkpt lat="45.08155" lon="6.08307">
        <ele>1535.2</ele>
        <time>2024-08-09T10:05:29Z</time>
      </trkpt>
      <trkpt lat="45.08155" lon="6.08311">
        <ele>1535.2</ele>
        <time>2024-08-09T10:05:30Z</time>
      </trkpt>
      <trkpt lat="45.08155" lon="6.08311">
        <ele>1535.2</ele>
        <time>2024-08-09T10:05:31Z</time>
      </trkpt>
      <trkpt lat="45.08154" lon="6.08314">
        <ele>1535</ele>
        <time>2024-08-09T10:05:32Z</time>
      </trkpt>
      <trkpt lat="45.08154" lon="6.08314">
        <ele>1535</ele>
        <time>2024-08-09T10:05:33Z</time>
      </trkpt>
      <trkpt lat="45.08154" lon="6.08317">
        <ele>1535.2</ele>
        <time>2024-08-09T10:05:34Z</time>
      </trkpt>
      <trkpt lat="45.08154" lon="6.08317">
        <ele>1535.2</ele>
        <time>2024-08-09T10:05:35Z</time>
      </trkpt>
      <trkpt lat="45.08153" lon="6.08321">
        <ele>1535.2</ele>
        <time>2024-08-09T10:05:36Z</time>
      </trkpt>
      <trkpt lat="45.08153" lon="6.08321">
        <ele>1535.4</ele>
        <time>2024-08-09T10:05:37Z</time>
      </trkpt>
      <trkpt lat="45.08153" lon="6.08325">
        <ele>1535.4</ele>
        <time>2024-08-09T10:05:38Z</time>
      </trkpt>
      <trkpt lat="45.08153" lon="6.08325">
        <ele>1535.6</ele>
        <time>2024-08-09T10:05:39Z</time>
      </trkpt>
      <trkpt lat="45.08153" lon="6.08328">
        <ele>1535.6</ele>
        <time>2024-08-09T10:05:40Z</time>
      </trkpt>
      <trkpt lat="45.08153" lon="6.08328">
        <ele>1536</ele>
        <time>2024-08-09T10:05:41Z</time>
      </trkpt>
      <trkpt lat="45.08153" lon="6.08331">
        <ele>1536</ele>
        <time>2024-08-09T10:05:42Z</time>
      </trkpt>
      <trkpt lat="45.08153" lon="6.08331">
        <ele>1535.8</ele>
        <time>2024-08-09T10:05:43Z</time>
      </trkpt>
      <trkpt lat="45.08153" lon="6.08335">
        <ele>1535.8</ele>
        <time>2024-08-09T10:05:44Z</time>
      </trkpt>
      <trkpt lat="45.08153" lon="6.08335">
        <ele>1535.8</ele>
        <time>2024-08-09T10:05:45Z</time>
      </trkpt>
      <trkpt lat="45.08153" lon="6.08339">
        <ele>1536</ele>
        <time>2024-08-09T10:05:46Z</time>
      </trkpt>
      <trkpt lat="45.08153" lon="6.08339">
        <ele>1536</ele>
        <time>2024-08-09T10:05:47Z</time>
      </trkpt>
      <trkpt lat="45.08154" lon="6.08342">
        <ele>1536.2</ele>
        <time>2024-08-09T10:05:48Z</time>
      </trkpt>
      <trkpt lat="45.08154" lon="6.08342">
        <ele>1536.2</ele>
        <time>2024-08-09T10:05:49Z</time>
      </trkpt>
      <trkpt lat="45.08154" lon="6.08346">
        <ele>1536.4</ele>
        <time>2024-08-09T10:05:50Z</time>
      </trkpt>
      <trkpt lat="45.08154" lon="6.08346">
        <ele>1536.4</ele>
        <time>2024-08-09T10:05:51Z</time>
      </trkpt>
      <trkpt lat="45.08154" lon="6.0835">
        <ele>1536.4</ele>
        <time>2024-08-09T10:05:52Z</time>
      </trkpt>
      <trkpt lat="45.08154" lon="6.0835">
        <ele>1537</ele>
        <time>2024-08-09T10:05:53Z</time>
      </trkpt>
      <trkpt lat="45.08154" lon="6.08353">
        <ele>1537</ele>
        <time>2024-08-09T10:05:54Z</time>
      </trkpt>
      <trkpt lat="45.08154" lon="6.08353">
        <ele>1537</ele>
        <time>2024-08-09T10:05:55Z</time>
      </trkpt>
      <trkpt lat="45.08154" lon="6.08358">
        <ele>1537.2</ele>
        <time>2024-08-09T10:05:56Z</time>
      </trkpt>
      <trkpt lat="45.08154" lon="6.08358">
        <ele>1537.2</ele>
        <time>2024-08-09T10:05:57Z</time>
      </trkpt>
      <trkpt lat="45.08155" lon="6.08361">
        <ele>1537.4</ele>
        <time>2024-08-09T10:05:58Z</time>
      </trkpt>
      <trkpt lat="45.08155" lon="6.08361">
        <ele>1537.4</ele>
        <time>2024-08-09T10:05:59Z</time>
      </trkpt>
      <trkpt lat="45.08155" lon="6.08365">
        <ele>1537.6</ele>
        <time>2024-08-09T10:06:00Z</time>
      </trkpt>
      <trkpt lat="45.08155" lon="6.08365">
        <ele>1537.8</ele>
        <time>2024-08-09T10:06:01Z</time>
      </trkpt>
      <trkpt lat="45.08155" lon="6.08369">
        <ele>1538</ele>
        <time>2024-08-09T10:06:02Z</time>
      </trkpt>
      <trkpt lat="45.08155" lon="6.08369">
        <ele>1538</ele>
        <time>2024-08-09T10:06:03Z</time>
      </trkpt>
      <trkpt lat="45.08155" lon="6.08372">
        <ele>1538</ele>
        <time>2024-08-09T10:06:04Z</time>
      </trkpt>
      <trkpt lat="45.08155" lon="6.08372">
        <ele>1538</ele>
        <time>2024-08-09T10:06:05Z</time>
      </trkpt>
      <trkpt lat="45.08156" lon="6.08375">
        <ele>1538.2</ele>
        <time>2024-08-09T10:06:06Z</time>
      </trkpt>
      <trkpt lat="45.08156" lon="6.08375">
        <ele>1538.4</ele>
        <time>2024-08-09T10:06:07Z</time>
      </trkpt>
      <trkpt lat="45.08157" lon="6.08378">
        <ele>1538.6</ele>
        <time>2024-08-09T10:06:08Z</time>
      </trkpt>
      <trkpt lat="45.08157" lon="6.08378">
        <ele>1538.6</ele>
        <time>2024-08-09T10:06:09Z</time>
      </trkpt>
      <trkpt lat="45.08158" lon="6.08381">
        <ele>1538.8</ele>
        <time>2024-08-09T10:06:10Z</time>
      </trkpt>
      <trkpt lat="45.08158" lon="6.08381">
        <ele>1539</ele>
        <time>2024-08-09T10:06:11Z</time>
      </trkpt>
      <trkpt lat="45.08158" lon="6.08385">
        <ele>1539</ele>
        <time>2024-08-09T10:06:12Z</time>
      </trkpt>
      <trkpt lat="45.08158" lon="6.08385">
        <ele>1539</ele>
        <time>2024-08-09T10:06:13Z</time>
      </trkpt>
      <trkpt lat="45.08159" lon="6.08388">
        <ele>1539.2</ele>
        <time>2024-08-09T10:06:14Z</time>
      </trkpt>
      <trkpt lat="45.08159" lon="6.08388">
        <ele>1539.4</ele>
        <time>2024-08-09T10:06:15Z</time>
      </trkpt>
      <trkpt lat="45.0816" lon="6.08391">
        <ele>1539.6</ele>
        <time>2024-08-09T10:06:16Z</time>
      </trkpt>
      <trkpt lat="45.0816" lon="6.08391">
        <ele>1539.8</ele>
        <time>2024-08-09T10:06:17Z</time>
      </trkpt>
      <trkpt lat="45.0816" lon="6.08394">
        <ele>1539.8</ele>
        <time>2024-08-09T10:06:18Z</time>
      </trkpt>
      <trkpt lat="45.0816" lon="6.08394">
        <ele>1539.8</ele>
        <time>2024-08-09T10:06:19Z</time>
      </trkpt>
      <trkpt lat="45.0816" lon="6.08398">
        <ele>1540.2</ele>
        <time>2024-08-09T10:06:20Z</time>
      </trkpt>
      <trkpt lat="45.0816" lon="6.08398">
        <ele>1540.2</ele>
        <time>2024-08-09T10:06:21Z</time>
      </trkpt>
      <trkpt lat="45.0816" lon="6.08401">
        <ele>1540.2</ele>
        <time>2024-08-09T10:06:22Z</time>
      </trkpt>
      <trkpt lat="45.0816" lon="6.08401">
        <ele>1540.4</ele>
        <time>2024-08-09T10:06:23Z</time>
      </trkpt>
      <trkpt lat="45.08161" lon="6.08404">
        <ele>1540.6</ele>
        <time>2024-08-09T10:06:24Z</time>
      </trkpt>
      <trkpt lat="45.08161" lon="6.08404">
        <ele>1540.8</ele>
        <time>2024-08-09T10:06:25Z</time>
      </trkpt>
      <trkpt lat="45.08161" lon="6.08408">
        <ele>1540.8</ele>
        <time>2024-08-09T10:06:26Z</time>
      </trkpt>
      <trkpt lat="45.08161" lon="6.08408">
        <ele>1540.8</ele>
        <time>2024-08-09T10:06:27Z</time>
      </trkpt>
      <trkpt lat="45.08161" lon="6.08412">
        <ele>1541</ele>
        <time>2024-08-09T10:06:28Z</time>
      </trkpt>
      <trkpt lat="45.08161" lon="6.08412">
        <ele>1541.2</ele>
        <time>2024-08-09T10:06:29Z</time>
      </trkpt>
      <trkpt lat="45.0816" lon="6.08415">
        <ele>1541.4</ele>
        <time>2024-08-09T10:06:30Z</time>
      </trkpt>
      <trkpt lat="45.0816" lon="6.08415">
        <ele>1541.6</ele>
        <time>2024-08-09T10:06:31Z</time>
      </trkpt>
      <trkpt lat="45.0816" lon="6.08419">
        <ele>1541.8</ele>
        <time>2024-08-09T10:06:32Z</time>
      </trkpt>
      <trkpt lat="45.0816" lon="6.08419">
        <ele>1541.8</ele>
        <time>2024-08-09T10:06:33Z</time>
      </trkpt>
      <trkpt lat="45.0816" lon="6.08422">
        <ele>1542</ele>
        <time>2024-08-09T10:06:34Z</time>
      </trkpt>
      <trkpt lat="45.0816" lon="6.08422">
        <ele>1542.2</ele>
        <time>2024-08-09T10:06:35Z</time>
      </trkpt>
      <trkpt lat="45.08158" lon="6.08425">
        <ele>1542.4</ele>
        <time>2024-08-09T10:06:36Z</time>
      </trkpt>
      <trkpt lat="45.08158" lon="6.08425">
        <ele>1542.4</ele>
        <time>2024-08-09T10:06:37Z</time>
      </trkpt>
      <trkpt lat="45.08157" lon="6.08428">
        <ele>1542.6</ele>
        <time>2024-08-09T10:06:38Z</time>
      </trkpt>
      <trkpt lat="45.08157" lon="6.08428">
        <ele>1542.6</ele>
        <time>2024-08-09T10:06:39Z</time>
      </trkpt>
      <trkpt lat="45.08156" lon="6.08431">
        <ele>1542.6</ele>
        <time>2024-08-09T10:06:40Z</time>
      </trkpt>
      <trkpt lat="45.08156" lon="6.08431">
        <ele>1542.8</ele>
        <time>2024-08-09T10:06:41Z</time>
      </trkpt>
      <trkpt lat="45.08154" lon="6.08435">
        <ele>1543</ele>
        <time>2024-08-09T10:06:42Z</time>
      </trkpt>
      <trkpt lat="45.08154" lon="6.08435">
        <ele>1543</ele>
        <time>2024-08-09T10:06:43Z</time>
      </trkpt>
      <trkpt lat="45.08154" lon="6.08439">
        <ele>1543.2</ele>
        <time>2024-08-09T10:06:44Z</time>
      </trkpt>
      <trkpt lat="45.08154" lon="6.08439">
        <ele>1543.2</ele>
        <time>2024-08-09T10:06:45Z</time>
      </trkpt>
      <trkpt lat="45.08155" lon="6.08443">
        <ele>1543</ele>
        <time>2024-08-09T10:06:46Z</time>
      </trkpt>
      <trkpt lat="45.08156" lon="6.08445">
        <ele>1543</ele>
        <time>2024-08-09T10:06:47Z</time>
      </trkpt>
      <trkpt lat="45.08156" lon="6.08445">
        <ele>1543</ele>
        <time>2024-08-09T10:06:48Z</time>
      </trkpt>
      <trkpt lat="45.08156" lon="6.08448">
        <ele>1543</ele>
        <time>2024-08-09T10:06:49Z</time>
      </trkpt>
      <trkpt lat="45.08156" lon="6.08448">
        <ele>1543</ele>
        <time>2024-08-09T10:06:50Z</time>
      </trkpt>
      <trkpt lat="45.08157" lon="6.08451">
        <ele>1543</ele>
        <time>2024-08-09T10:06:51Z</time>
      </trkpt>
      <trkpt lat="45.08157" lon="6.08451">
        <ele>1543.2</ele>
        <time>2024-08-09T10:06:52Z</time>
      </trkpt>
      <trkpt lat="45.08158" lon="6.08455">
        <ele>1543.4</ele>
        <time>2024-08-09T10:06:53Z</time>
      </trkpt>
      <trkpt lat="45.08158" lon="6.08455">
        <ele>1543.6</ele>
        <time>2024-08-09T10:06:54Z</time>
      </trkpt>
      <trkpt lat="45.08158" lon="6.08458">
        <ele>1544</ele>
        <time>2024-08-09T10:06:55Z</time>
      </trkpt>
      <trkpt lat="45.08158" lon="6.08458">
        <ele>1544.2</ele>
        <time>2024-08-09T10:06:56Z</time>
      </trkpt>
      <trkpt lat="45.08158" lon="6.08461">
        <ele>1544.2</ele>
        <time>2024-08-09T10:06:57Z</time>
      </trkpt>
      <trkpt lat="45.08158" lon="6.08461">
        <ele>1544.4</ele>
        <time>2024-08-09T10:06:58Z</time>
      </trkpt>
      <trkpt lat="45.0816" lon="6.08465">
        <ele>1545</ele>
        <time>2024-08-09T10:06:59Z</time>
      </trkpt>
      <trkpt lat="45.0816" lon="6.08465">
        <ele>1545</ele>
        <time>2024-08-09T10:07:00Z</time>
      </trkpt>
      <trkpt lat="45.0816" lon="6.08469">
        <ele>1545</ele>
        <time>2024-08-09T10:07:01Z</time>
      </trkpt>
      <trkpt lat="45.0816" lon="6.08469">
        <ele>1545.2</ele>
        <time>2024-08-09T10:07:02Z</time>
      </trkpt>
      <trkpt lat="45.0816" lon="6.08472">
        <ele>1545.2</ele>
        <time>2024-08-09T10:07:03Z</time>
      </trkpt>
      <trkpt lat="45.0816" lon="6.08472">
        <ele>1545.4</ele>
        <time>2024-08-09T10:07:04Z</time>
      </trkpt>
      <trkpt lat="45.0816" lon="6.08475">
        <ele>1545.4</ele>
        <time>2024-08-09T10:07:05Z</time>
      </trkpt>
      <trkpt lat="45.0816" lon="6.08475">
        <ele>1545.4</ele>
        <time>2024-08-09T10:07:06Z</time>
      </trkpt>
      <trkpt lat="45.0816" lon="6.08475">
        <ele>1545.4</ele>
        <time>2024-08-09T10:07:07Z</time>
      </trkpt>
      <trkpt lat="45.0816" lon="6.08475">
        <ele>1545.6</ele>
        <time>2024-08-09T10:07:08Z</time>
      </trkpt>
      <trkpt lat="45.0816" lon="6.08475">
        <ele>1545.6</ele>
        <time>2024-08-09T10:07:09Z</time>
      </trkpt>
      <trkpt lat="45.0816" lon="6.08475">
        <ele>1545.6</ele>
        <time>2024-08-09T10:07:10Z</time>
      </trkpt>
      <trkpt lat="45.0816" lon="6.08475">
        <ele>1545.8</ele>
        <time>2024-08-09T10:07:11Z</time>
      </trkpt>
      <trkpt lat="45.0816" lon="6.08475">
        <ele>1545.8</ele>
        <time>2024-08-09T10:07:12Z</time>
      </trkpt>
      <trkpt lat="45.0816" lon="6.08475">
        <ele>1545.8</ele>
        <time>2024-08-09T10:07:13Z</time>
      </trkpt>
      <trkpt lat="45.0816" lon="6.08475">
        <ele>1545.6</ele>
        <time>2024-08-09T10:07:14Z</time>
      </trkpt>
      <trkpt lat="45.0816" lon="6.08475">
        <ele>1545.6</ele>
        <time>2024-08-09T10:07:15Z</time>
      </trkpt>
      <trkpt lat="45.0816" lon="6.08475">
        <ele>1545.6</ele>
        <time>2024-08-09T10:07:16Z</time>
      </trkpt>
      <trkpt lat="45.0816" lon="6.08475">
        <ele>1545.6</ele>
        <time>2024-08-09T10:07:17Z</time>
      </trkpt>
      <trkpt lat="45.0816" lon="6.08475">
        <ele>1545.4</ele>
        <time>2024-08-09T10:07:18Z</time>
      </trkpt>
      <trkpt lat="45.0816" lon="6.08475">
        <ele>1545.4</ele>
        <time>2024-08-09T10:07:19Z</time>
      </trkpt>
      <trkpt lat="45.0816" lon="6.08475">
        <ele>1545.4</ele>
        <time>2024-08-09T10:07:20Z</time>
      </trkpt>
      <trkpt lat="45.0816" lon="6.08475">
        <ele>1545.6</ele>
        <time>2024-08-09T10:07:21Z</time>
      </trkpt>
      <trkpt lat="45.0816" lon="6.08475">
        <ele>1545.6</ele>
        <time>2024-08-09T10:07:22Z</time>
      </trkpt>
      <trkpt lat="45.0816" lon="6.08475">
        <ele>1545.6</ele>
        <time>2024-08-09T10:07:23Z</time>
      </trkpt>
      <trkpt lat="45.0816" lon="6.08475">
        <ele>1545.4</ele>
        <time>2024-08-09T10:07:24Z</time>
      </trkpt>
      <trkpt lat="45.0816" lon="6.08475">
        <ele>1545.4</ele>
        <time>2024-08-09T10:07:25Z</time>
      </trkpt>
      <trkpt lat="45.0816" lon="6.08475">
        <ele>1545.6</ele>
        <time>2024-08-09T10:07:26Z</time>
      </trkpt>
      <trkpt lat="45.0816" lon="6.08475">
        <ele>1545.6</ele>
        <time>2024-08-09T10:07:27Z</time>
      </trkpt>
      <trkpt lat="45.0816" lon="6.08475">
        <ele>1545.6</ele>
        <time>2024-08-09T10:07:28Z</time>
      </trkpt>
      <trkpt lat="45.0816" lon="6.08475">
        <ele>1545.6</ele>
        <time>2024-08-09T10:07:29Z</time>
      </trkpt>
      <trkpt lat="45.0816" lon="6.08475">
        <ele>1545.6</ele>
        <time>2024-08-09T10:07:30Z</time>
      </trkpt>
      <trkpt lat="45.0816" lon="6.08475">
        <ele>1545.6</ele>
        <time>2024-08-09T10:07:31Z</time>
      </trkpt>
      <trkpt lat="45.0816" lon="6.08475">
        <ele>1545.6</ele>
        <time>2024-08-09T10:07:32Z</time>
      </trkpt>
      <trkpt lat="45.0816" lon="6.08475">
        <ele>1545.6</ele>
        <time>2024-08-09T10:07:33Z</time>
      </trkpt>
      <trkpt lat="45.0816" lon="6.08475">
        <ele>1545.6</ele>
        <time>2024-08-09T10:07:34Z</time>
      </trkpt>
      <trkpt lat="45.08159" lon="6.08478">
        <ele>1545.6</ele>
        <time>2024-08-09T10:07:35Z</time>
      </trkpt>
      <trkpt lat="45.08159" lon="6.08478">
        <ele>1545.8</ele>
        <time>2024-08-09T10:07:36Z</time>
      </trkpt>
      <trkpt lat="45.08158" lon="6.08482">
        <ele>1545.8</ele>
        <time>2024-08-09T10:07:37Z</time>
      </trkpt>
      <trkpt lat="45.08158" lon="6.08482">
        <ele>1545.8</ele>
        <time>2024-08-09T10:07:38Z</time>
      </trkpt>
      <trkpt lat="45.08157" lon="6.08486">
        <ele>1546</ele>
        <time>2024-08-09T10:07:39Z</time>
      </trkpt>
      <trkpt lat="45.08157" lon="6.08486">
        <ele>1546.2</ele>
        <time>2024-08-09T10:07:40Z</time>
      </trkpt>
      <trkpt lat="45.08156" lon="6.08491">
        <ele>1546.2</ele>
        <time>2024-08-09T10:07:41Z</time>
      </trkpt>
      <trkpt lat="45.08156" lon="6.08491">
        <ele>1546</ele>
        <time>2024-08-09T10:07:42Z</time>
      </trkpt>
      <trkpt lat="45.08156" lon="6.08495">
        <ele>1546</ele>
        <time>2024-08-09T10:07:43Z</time>
      </trkpt>
      <trkpt lat="45.08156" lon="6.08495">
        <ele>1546</ele>
        <time>2024-08-09T10:07:44Z</time>
      </trkpt>
      <trkpt lat="45.08155" lon="6.08498">
        <ele>1546</ele>
        <time>2024-08-09T10:07:45Z</time>
      </trkpt>
      <trkpt lat="45.08155" lon="6.08498">
        <ele>1546</ele>
        <time>2024-08-09T10:07:46Z</time>
      </trkpt>
      <trkpt lat="45.08155" lon="6.08502">
        <ele>1546</ele>
        <time>2024-08-09T10:07:47Z</time>
      </trkpt>
      <trkpt lat="45.08155" lon="6.08502">
        <ele>1546</ele>
        <time>2024-08-09T10:07:48Z</time>
      </trkpt>
      <trkpt lat="45.08155" lon="6.08505">
        <ele>1546.2</ele>
        <time>2024-08-09T10:07:49Z</time>
      </trkpt>
      <trkpt lat="45.08155" lon="6.08505">
        <ele>1546.2</ele>
        <time>2024-08-09T10:07:50Z</time>
      </trkpt>
      <trkpt lat="45.08154" lon="6.08508">
        <ele>1546.4</ele>
        <time>2024-08-09T10:07:51Z</time>
      </trkpt>
      <trkpt lat="45.08154" lon="6.08508">
        <ele>1546.4</ele>
        <time>2024-08-09T10:07:52Z</time>
      </trkpt>
      <trkpt lat="45.08154" lon="6.08508">
        <ele>1546.4</ele>
        <time>2024-08-09T10:07:53Z</time>
      </trkpt>
      <trkpt lat="45.08153" lon="6.08511">
        <ele>1546</ele>
        <time>2024-08-09T10:07:54Z</time>
      </trkpt>
      <trkpt lat="45.08153" lon="6.08511">
        <ele>1546</ele>
        <time>2024-08-09T10:07:55Z</time>
      </trkpt>
      <trkpt lat="45.08151" lon="6.08514">
        <ele>1546</ele>
        <time>2024-08-09T10:07:56Z</time>
      </trkpt>
      <trkpt lat="45.08151" lon="6.08514">
        <ele>1546.2</ele>
        <time>2024-08-09T10:07:57Z</time>
      </trkpt>
      <trkpt lat="45.08149" lon="6.08517">
        <ele>1546.2</ele>
        <time>2024-08-09T10:07:58Z</time>
      </trkpt>
      <trkpt lat="45.08149" lon="6.08517">
        <ele>1546.2</ele>
        <time>2024-08-09T10:07:59Z</time>
      </trkpt>
      <trkpt lat="45.08148" lon="6.0852">
        <ele>1546</ele>
        <time>2024-08-09T10:08:00Z</time>
      </trkpt>
      <trkpt lat="45.08148" lon="6.0852">
        <ele>1546</ele>
        <time>2024-08-09T10:08:01Z</time>
      </trkpt>
      <trkpt lat="45.08146" lon="6.08524">
        <ele>1546.6</ele>
        <time>2024-08-09T10:08:02Z</time>
      </trkpt>
      <trkpt lat="45.08146" lon="6.08524">
        <ele>1546.6</ele>
        <time>2024-08-09T10:08:03Z</time>
      </trkpt>
      <trkpt lat="45.08145" lon="6.08528">
        <ele>1546.6</ele>
        <time>2024-08-09T10:08:04Z</time>
      </trkpt>
      <trkpt lat="45.08145" lon="6.08531">
        <ele>1546.6</ele>
        <time>2024-08-09T10:08:05Z</time>
      </trkpt>
      <trkpt lat="45.08145" lon="6.08534">
        <ele>1546.4</ele>
        <time>2024-08-09T10:08:06Z</time>
      </trkpt>
      <trkpt lat="45.08145" lon="6.08534">
        <ele>1546.4</ele>
        <time>2024-08-09T10:08:07Z</time>
      </trkpt>
      <trkpt lat="45.08145" lon="6.08538">
        <ele>1546.4</ele>
        <time>2024-08-09T10:08:08Z</time>
      </trkpt>
      <trkpt lat="45.08145" lon="6.08538">
        <ele>1546.4</ele>
        <time>2024-08-09T10:08:09Z</time>
      </trkpt>
      <trkpt lat="45.08144" lon="6.08542">
        <ele>1546.4</ele>
        <time>2024-08-09T10:08:10Z</time>
      </trkpt>
      <trkpt lat="45.08144" lon="6.08542">
        <ele>1546.4</ele>
        <time>2024-08-09T10:08:11Z</time>
      </trkpt>
      <trkpt lat="45.08143" lon="6.08546">
        <ele>1546.4</ele>
        <time>2024-08-09T10:08:12Z</time>
      </trkpt>
      <trkpt lat="45.08143" lon="6.08546">
        <ele>1546.6</ele>
        <time>2024-08-09T10:08:13Z</time>
      </trkpt>
      <trkpt lat="45.08142" lon="6.08549">
        <ele>1546.6</ele>
        <time>2024-08-09T10:08:14Z</time>
      </trkpt>
      <trkpt lat="45.08142" lon="6.08549">
        <ele>1546.6</ele>
        <time>2024-08-09T10:08:15Z</time>
      </trkpt>
      <trkpt lat="45.08143" lon="6.08554">
        <ele>1546.6</ele>
        <time>2024-08-09T10:08:16Z</time>
      </trkpt>
      <trkpt lat="45.08143" lon="6.08554">
        <ele>1546.6</ele>
        <time>2024-08-09T10:08:17Z</time>
      </trkpt>
      <trkpt lat="45.08143" lon="6.08559">
        <ele>1546.6</ele>
        <time>2024-08-09T10:08:18Z</time>
      </trkpt>
      <trkpt lat="45.08143" lon="6.08559">
        <ele>1546.6</ele>
        <time>2024-08-09T10:08:19Z</time>
      </trkpt>
      <trkpt lat="45.08144" lon="6.08563">
        <ele>1546.6</ele>
        <time>2024-08-09T10:08:20Z</time>
      </trkpt>
      <trkpt lat="45.08144" lon="6.08563">
        <ele>1546.6</ele>
        <time>2024-08-09T10:08:21Z</time>
      </trkpt>
      <trkpt lat="45.08144" lon="6.08567">
        <ele>1546.6</ele>
        <time>2024-08-09T10:08:22Z</time>
      </trkpt>
      <trkpt lat="45.08144" lon="6.08567">
        <ele>1546.6</ele>
        <time>2024-08-09T10:08:23Z</time>
      </trkpt>
      <trkpt lat="45.08142" lon="6.0857">
        <ele>1546.4</ele>
        <time>2024-08-09T10:08:24Z</time>
      </trkpt>
      <trkpt lat="45.08142" lon="6.0857">
        <ele>1546.4</ele>
        <time>2024-08-09T10:08:25Z</time>
      </trkpt>
      <trkpt lat="45.08141" lon="6.08573">
        <ele>1546.6</ele>
        <time>2024-08-09T10:08:26Z</time>
      </trkpt>
      <trkpt lat="45.08141" lon="6.08573">
        <ele>1546.6</ele>
        <time>2024-08-09T10:08:27Z</time>
      </trkpt>
      <trkpt lat="45.08139" lon="6.08575">
        <ele>1546.8</ele>
        <time>2024-08-09T10:08:28Z</time>
      </trkpt>
      <trkpt lat="45.08139" lon="6.08575">
        <ele>1546.8</ele>
        <time>2024-08-09T10:08:29Z</time>
      </trkpt>
      <trkpt lat="45.08139" lon="6.08575">
        <ele>1546.8</ele>
        <time>2024-08-09T10:08:30Z</time>
      </trkpt>
      <trkpt lat="45.08139" lon="6.08579">
        <ele>1546.8</ele>
        <time>2024-08-09T10:08:31Z</time>
      </trkpt>
      <trkpt lat="45.08139" lon="6.08579">
        <ele>1546.8</ele>
        <time>2024-08-09T10:08:32Z</time>
      </trkpt>
      <trkpt lat="45.08139" lon="6.08579">
        <ele>1546.8</ele>
        <time>2024-08-09T10:08:33Z</time>
      </trkpt>
      <trkpt lat="45.08138" lon="6.08583">
        <ele>1547.4</ele>
        <time>2024-08-09T10:08:34Z</time>
      </trkpt>
      <trkpt lat="45.08138" lon="6.08583">
        <ele>1548.2</ele>
        <time>2024-08-09T10:08:35Z</time>
      </trkpt>
      <trkpt lat="45.08138" lon="6.08583">
        <ele>1548.6</ele>
        <time>2024-08-09T10:08:36Z</time>
      </trkpt>
      <trkpt lat="45.08136" lon="6.08585">
        <ele>1548.6</ele>
        <time>2024-08-09T10:08:37Z</time>
      </trkpt>
      <trkpt lat="45.08136" lon="6.08585">
        <ele>1549.2</ele>
        <time>2024-08-09T10:08:38Z</time>
      </trkpt>
      <trkpt lat="45.08136" lon="6.08588">
        <ele>1549.4</ele>
        <time>2024-08-09T10:08:39Z</time>
      </trkpt>
      <trkpt lat="45.08136" lon="6.08588">
        <ele>1549.6</ele>
        <time>2024-08-09T10:08:40Z</time>
      </trkpt>
      <trkpt lat="45.08137" lon="6.08591">
        <ele>1549.6</ele>
        <time>2024-08-09T10:08:41Z</time>
      </trkpt>
      <trkpt lat="45.08137" lon="6.08591">
        <ele>1549.8</ele>
        <time>2024-08-09T10:08:42Z</time>
      </trkpt>
      <trkpt lat="45.08136" lon="6.08594">
        <ele>1549.8</ele>
        <time>2024-08-09T10:08:43Z</time>
      </trkpt>
      <trkpt lat="45.08136" lon="6.08594">
        <ele>1549.8</ele>
        <time>2024-08-09T10:08:44Z</time>
      </trkpt>
      <trkpt lat="45.08136" lon="6.08598">
        <ele>1549.8</ele>
        <time>2024-08-09T10:08:45Z</time>
      </trkpt>
      <trkpt lat="45.08136" lon="6.08598">
        <ele>1549.8</ele>
        <time>2024-08-09T10:08:46Z</time>
      </trkpt>
      <trkpt lat="45.08136" lon="6.08601">
        <ele>1549.8</ele>
        <time>2024-08-09T10:08:47Z</time>
      </trkpt>
      <trkpt lat="45.08136" lon="6.08601">
        <ele>1550</ele>
        <time>2024-08-09T10:08:48Z</time>
      </trkpt>
      <trkpt lat="45.08136" lon="6.08604">
        <ele>1550</ele>
        <time>2024-08-09T10:08:49Z</time>
      </trkpt>
      <trkpt lat="45.08134" lon="6.08606">
        <ele>1550</ele>
        <time>2024-08-09T10:08:50Z</time>
      </trkpt>
      <trkpt lat="45.08134" lon="6.08606">
        <ele>1550</ele>
        <time>2024-08-09T10:08:51Z</time>
      </trkpt>
      <trkpt lat="45.08133" lon="6.08609">
        <ele>1550.2</ele>
        <time>2024-08-09T10:08:52Z</time>
      </trkpt>
      <trkpt lat="45.08133" lon="6.08609">
        <ele>1550.4</ele>
        <time>2024-08-09T10:08:53Z</time>
      </trkpt>
      <trkpt lat="45.08132" lon="6.08611">
        <ele>1550.6</ele>
        <time>2024-08-09T10:08:54Z</time>
      </trkpt>
      <trkpt lat="45.08132" lon="6.08611">
        <ele>1550.8</ele>
        <time>2024-08-09T10:08:55Z</time>
      </trkpt>
      <trkpt lat="45.0813" lon="6.08614">
        <ele>1550.8</ele>
        <time>2024-08-09T10:08:56Z</time>
      </trkpt>
      <trkpt lat="45.0813" lon="6.08614">
        <ele>1551</ele>
        <time>2024-08-09T10:08:57Z</time>
      </trkpt>
      <trkpt lat="45.08128" lon="6.08617">
        <ele>1551</ele>
        <time>2024-08-09T10:08:58Z</time>
      </trkpt>
      <trkpt lat="45.08128" lon="6.08617">
        <ele>1551.2</ele>
        <time>2024-08-09T10:08:59Z</time>
      </trkpt>
      <trkpt lat="45.08128" lon="6.0862">
        <ele>1551.4</ele>
        <time>2024-08-09T10:09:00Z</time>
      </trkpt>
      <trkpt lat="45.08128" lon="6.0862">
        <ele>1551.4</ele>
        <time>2024-08-09T10:09:01Z</time>
      </trkpt>
      <trkpt lat="45.0813" lon="6.08624">
        <ele>1552</ele>
        <time>2024-08-09T10:09:02Z</time>
      </trkpt>
      <trkpt lat="45.08133" lon="6.08626">
        <ele>1552</ele>
        <time>2024-08-09T10:09:03Z</time>
      </trkpt>
      <trkpt lat="45.08133" lon="6.08626">
        <ele>1552</ele>
        <time>2024-08-09T10:09:04Z</time>
      </trkpt>
      <trkpt lat="45.08134" lon="6.08629">
        <ele>1552.2</ele>
        <time>2024-08-09T10:09:05Z</time>
      </trkpt>
      <trkpt lat="45.08134" lon="6.08629">
        <ele>1552.4</ele>
        <time>2024-08-09T10:09:06Z</time>
      </trkpt>
      <trkpt lat="45.08132" lon="6.0863">
        <ele>1552.4</ele>
        <time>2024-08-09T10:09:07Z</time>
      </trkpt>
      <trkpt lat="45.08132" lon="6.0863">
        <ele>1552.4</ele>
        <time>2024-08-09T10:09:08Z</time>
      </trkpt>
      <trkpt lat="45.08134" lon="6.08633">
        <ele>1552.6</ele>
        <time>2024-08-09T10:09:09Z</time>
      </trkpt>
      <trkpt lat="45.08134" lon="6.08633">
        <ele>1552.6</ele>
        <time>2024-08-09T10:09:10Z</time>
      </trkpt>
      <trkpt lat="45.08135" lon="6.08636">
        <ele>1552.6</ele>
        <time>2024-08-09T10:09:11Z</time>
      </trkpt>
      <trkpt lat="45.08135" lon="6.08636">
        <ele>1552.6</ele>
        <time>2024-08-09T10:09:12Z</time>
      </trkpt>
      <trkpt lat="45.08135" lon="6.08639">
        <ele>1552.6</ele>
        <time>2024-08-09T10:09:13Z</time>
      </trkpt>
      <trkpt lat="45.08135" lon="6.08639">
        <ele>1552.6</ele>
        <time>2024-08-09T10:09:14Z</time>
      </trkpt>
      <trkpt lat="45.08136" lon="6.08642">
        <ele>1552.8</ele>
        <time>2024-08-09T10:09:15Z</time>
      </trkpt>
      <trkpt lat="45.08136" lon="6.08642">
        <ele>1553.2</ele>
        <time>2024-08-09T10:09:16Z</time>
      </trkpt>
      <trkpt lat="45.08138" lon="6.08645">
        <ele>1553.2</ele>
        <time>2024-08-09T10:09:17Z</time>
      </trkpt>
      <trkpt lat="45.08138" lon="6.08645">
        <ele>1553.2</ele>
        <time>2024-08-09T10:09:18Z</time>
      </trkpt>
      <trkpt lat="45.08138" lon="6.08645">
        <ele>1553.2</ele>
        <time>2024-08-09T10:09:19Z</time>
      </trkpt>
      <trkpt lat="45.08138" lon="6.08649">
        <ele>1553.4</ele>
        <time>2024-08-09T10:09:20Z</time>
      </trkpt>
      <trkpt lat="45.08138" lon="6.08649">
        <ele>1553.4</ele>
        <time>2024-08-09T10:09:21Z</time>
      </trkpt>
      <trkpt lat="45.08138" lon="6.08649">
        <ele>1553.6</ele>
        <time>2024-08-09T10:09:22Z</time>
      </trkpt>
      <trkpt lat="45.08138" lon="6.08649">
        <ele>1553.8</ele>
        <time>2024-08-09T10:09:23Z</time>
      </trkpt>
      <trkpt lat="45.0814" lon="6.08652">
        <ele>1553.8</ele>
        <time>2024-08-09T10:09:24Z</time>
      </trkpt>
      <trkpt lat="45.0814" lon="6.08652">
        <ele>1554</ele>
        <time>2024-08-09T10:09:25Z</time>
      </trkpt>
      <trkpt lat="45.0814" lon="6.08652">
        <ele>1554</ele>
        <time>2024-08-09T10:09:26Z</time>
      </trkpt>
      <trkpt lat="45.0814" lon="6.08656">
        <ele>1553.8</ele>
        <time>2024-08-09T10:09:27Z</time>
      </trkpt>
      <trkpt lat="45.0814" lon="6.08659">
        <ele>1553.8</ele>
        <time>2024-08-09T10:09:28Z</time>
      </trkpt>
      <trkpt lat="45.0814" lon="6.08659">
        <ele>1554</ele>
        <time>2024-08-09T10:09:29Z</time>
      </trkpt>
      <trkpt lat="45.0814" lon="6.08664">
        <ele>1554.2</ele>
        <time>2024-08-09T10:09:30Z</time>
      </trkpt>
      <trkpt lat="45.0814" lon="6.08664">
        <ele>1554.2</ele>
        <time>2024-08-09T10:09:31Z</time>
      </trkpt>
      <trkpt lat="45.0814" lon="6.08668">
        <ele>1554.4</ele>
        <time>2024-08-09T10:09:32Z</time>
      </trkpt>
      <trkpt lat="45.0814" lon="6.08668">
        <ele>1554.4</ele>
        <time>2024-08-09T10:09:33Z</time>
      </trkpt>
      <trkpt lat="45.0814" lon="6.08672">
        <ele>1554.6</ele>
        <time>2024-08-09T10:09:34Z</time>
      </trkpt>
      <trkpt lat="45.0814" lon="6.08672">
        <ele>1554.6</ele>
        <time>2024-08-09T10:09:35Z</time>
      </trkpt>
      <trkpt lat="45.08141" lon="6.08676">
        <ele>1554.8</ele>
        <time>2024-08-09T10:09:36Z</time>
      </trkpt>
      <trkpt lat="45.08141" lon="6.08676">
        <ele>1555</ele>
        <time>2024-08-09T10:09:37Z</time>
      </trkpt>
      <trkpt lat="45.08141" lon="6.0868">
        <ele>1555</ele>
        <time>2024-08-09T10:09:38Z</time>
      </trkpt>
      <trkpt lat="45.08141" lon="6.0868">
        <ele>1555.4</ele>
        <time>2024-08-09T10:09:39Z</time>
      </trkpt>
      <trkpt lat="45.08141" lon="6.08684">
        <ele>1555.4</ele>
        <time>2024-08-09T10:09:40Z</time>
      </trkpt>
      <trkpt lat="45.08141" lon="6.08684">
        <ele>1555.6</ele>
        <time>2024-08-09T10:09:41Z</time>
      </trkpt>
      <trkpt lat="45.0814" lon="6.08686">
        <ele>1555.8</ele>
        <time>2024-08-09T10:09:42Z</time>
      </trkpt>
      <trkpt lat="45.0814" lon="6.08686">
        <ele>1556</ele>
        <time>2024-08-09T10:09:43Z</time>
      </trkpt>
      <trkpt lat="45.08138" lon="6.08689">
        <ele>1556</ele>
        <time>2024-08-09T10:09:44Z</time>
      </trkpt>
      <trkpt lat="45.08138" lon="6.08689">
        <ele>1556</ele>
        <time>2024-08-09T10:09:45Z</time>
      </trkpt>
      <trkpt lat="45.08137" lon="6.08692">
        <ele>1556</ele>
        <time>2024-08-09T10:09:46Z</time>
      </trkpt>
      <trkpt lat="45.08137" lon="6.08692">
        <ele>1556.2</ele>
        <time>2024-08-09T10:09:47Z</time>
      </trkpt>
      <trkpt lat="45.08137" lon="6.08692">
        <ele>1556.4</ele>
        <time>2024-08-09T10:09:48Z</time>
      </trkpt>
      <trkpt lat="45.08136" lon="6.08695">
        <ele>1556.6</ele>
        <time>2024-08-09T10:09:49Z</time>
      </trkpt>
      <trkpt lat="45.08136" lon="6.08695">
        <ele>1557</ele>
        <time>2024-08-09T10:09:50Z</time>
      </trkpt>
      <trkpt lat="45.08135" lon="6.08698">
        <ele>1557</ele>
        <time>2024-08-09T10:09:51Z</time>
      </trkpt>
      <trkpt lat="45.08135" lon="6.08698">
        <ele>1557.4</ele>
        <time>2024-08-09T10:09:52Z</time>
      </trkpt>
      <trkpt lat="45.08135" lon="6.08701">
        <ele>1557.6</ele>
        <time>2024-08-09T10:09:53Z</time>
      </trkpt>
      <trkpt lat="45.08135" lon="6.08701">
        <ele>1557.6</ele>
        <time>2024-08-09T10:09:54Z</time>
      </trkpt>
      <trkpt lat="45.08134" lon="6.08704">
        <ele>1557.8</ele>
        <time>2024-08-09T10:09:55Z</time>
      </trkpt>
      <trkpt lat="45.08134" lon="6.08704">
        <ele>1558.2</ele>
        <time>2024-08-09T10:09:56Z</time>
      </trkpt>
      <trkpt lat="45.08133" lon="6.08706">
        <ele>1558.6</ele>
        <time>2024-08-09T10:09:57Z</time>
      </trkpt>
      <trkpt lat="45.08133" lon="6.08706">
        <ele>1558.8</ele>
        <time>2024-08-09T10:09:58Z</time>
      </trkpt>
      <trkpt lat="45.08133" lon="6.0871">
        <ele>1558.8</ele>
        <time>2024-08-09T10:09:59Z</time>
      </trkpt>
      <trkpt lat="45.08132" lon="6.08713">
        <ele>1559</ele>
        <time>2024-08-09T10:10:01Z</time>
      </trkpt>
      <trkpt lat="45.08132" lon="6.08713">
        <ele>1559.2</ele>
        <time>2024-08-09T10:10:02Z</time>
      </trkpt>
      <trkpt lat="45.0813" lon="6.08715">
        <ele>1559.2</ele>
        <time>2024-08-09T10:10:03Z</time>
      </trkpt>
      <trkpt lat="45.0813" lon="6.08715">
        <ele>1559.2</ele>
        <time>2024-08-09T10:10:04Z</time>
      </trkpt>
      <trkpt lat="45.0813" lon="6.08715">
        <ele>1559.2</ele>
        <time>2024-08-09T10:10:05Z</time>
      </trkpt>
      <trkpt lat="45.0813" lon="6.08715">
        <ele>1559.2</ele>
        <time>2024-08-09T10:10:06Z</time>
      </trkpt>
      <trkpt lat="45.08131" lon="6.08711">
        <ele>1559.2</ele>
        <time>2024-08-09T10:10:07Z</time>
      </trkpt>
      <trkpt lat="45.08131" lon="6.08711">
        <ele>1559.2</ele>
        <time>2024-08-09T10:10:08Z</time>
      </trkpt>
      <trkpt lat="45.08132" lon="6.08709">
        <ele>1559</ele>
        <time>2024-08-09T10:10:09Z</time>
      </trkpt>
      <trkpt lat="45.08132" lon="6.08709">
        <ele>1558.8</ele>
        <time>2024-08-09T10:10:10Z</time>
      </trkpt>
      <trkpt lat="45.08132" lon="6.08709">
        <ele>1558.4</ele>
        <time>2024-08-09T10:10:11Z</time>
      </trkpt>
      <trkpt lat="45.08132" lon="6.08709">
        <ele>1558.2</ele>
        <time>2024-08-09T10:10:12Z</time>
      </trkpt>
      <trkpt lat="45.08132" lon="6.08709">
        <ele>1558</ele>
        <time>2024-08-09T10:10:13Z</time>
      </trkpt>
      <trkpt lat="45.08132" lon="6.08709">
        <ele>1557.4</ele>
        <time>2024-08-09T10:10:14Z</time>
      </trkpt>
      <trkpt lat="45.08132" lon="6.08709">
        <ele>1557.2</ele>
        <time>2024-08-09T10:10:15Z</time>
      </trkpt>
      <trkpt lat="45.08129" lon="6.08711">
        <ele>1557.2</ele>
        <time>2024-08-09T10:10:16Z</time>
      </trkpt>
      <trkpt lat="45.08129" lon="6.08711">
        <ele>1557</ele>
        <time>2024-08-09T10:10:17Z</time>
      </trkpt>
      <trkpt lat="45.08125" lon="6.08714">
        <ele>1557</ele>
        <time>2024-08-09T10:10:18Z</time>
      </trkpt>
      <trkpt lat="45.08125" lon="6.08714">
        <ele>1557.2</ele>
        <time>2024-08-09T10:10:19Z</time>
      </trkpt>
      <trkpt lat="45.08123" lon="6.08716">
        <ele>1557.2</ele>
        <time>2024-08-09T10:10:20Z</time>
      </trkpt>
      <trkpt lat="45.08123" lon="6.08716">
        <ele>1557.4</ele>
        <time>2024-08-09T10:10:21Z</time>
      </trkpt>
      <trkpt lat="45.08122" lon="6.08719">
        <ele>1557.6</ele>
        <time>2024-08-09T10:10:22Z</time>
      </trkpt>
      <trkpt lat="45.08122" lon="6.08719">
        <ele>1557.6</ele>
        <time>2024-08-09T10:10:23Z</time>
      </trkpt>
      <trkpt lat="45.08122" lon="6.08723">
        <ele>1557.6</ele>
        <time>2024-08-09T10:10:24Z</time>
      </trkpt>
      <trkpt lat="45.08122" lon="6.08723">
        <ele>1557.8</ele>
        <time>2024-08-09T10:10:25Z</time>
      </trkpt>
      <trkpt lat="45.0812" lon="6.08726">
        <ele>1557.8</ele>
        <time>2024-08-09T10:10:26Z</time>
      </trkpt>
      <trkpt lat="45.0812" lon="6.08726">
        <ele>1558</ele>
        <time>2024-08-09T10:10:27Z</time>
      </trkpt>
      <trkpt lat="45.08119" lon="6.08729">
        <ele>1558.2</ele>
        <time>2024-08-09T10:10:28Z</time>
      </trkpt>
      <trkpt lat="45.08119" lon="6.08729">
        <ele>1558.4</ele>
        <time>2024-08-09T10:10:29Z</time>
      </trkpt>
      <trkpt lat="45.08118" lon="6.08731">
        <ele>1558.6</ele>
        <time>2024-08-09T10:10:30Z</time>
      </trkpt>
      <trkpt lat="45.08118" lon="6.08731">
        <ele>1558.6</ele>
        <time>2024-08-09T10:10:31Z</time>
      </trkpt>
      <trkpt lat="45.08116" lon="6.08734">
        <ele>1558.8</ele>
        <time>2024-08-09T10:10:32Z</time>
      </trkpt>
      <trkpt lat="45.08116" lon="6.08734">
        <ele>1558.8</ele>
        <time>2024-08-09T10:10:33Z</time>
      </trkpt>
      <trkpt lat="45.08114" lon="6.08736">
        <ele>1559</ele>
        <time>2024-08-09T10:10:34Z</time>
      </trkpt>
      <trkpt lat="45.08114" lon="6.08736">
        <ele>1559.2</ele>
        <time>2024-08-09T10:10:35Z</time>
      </trkpt>
      <trkpt lat="45.08111" lon="6.08738">
        <ele>1559.2</ele>
        <time>2024-08-09T10:10:36Z</time>
      </trkpt>
      <trkpt lat="45.08111" lon="6.08738">
        <ele>1559.4</ele>
        <time>2024-08-09T10:10:37Z</time>
      </trkpt>
      <trkpt lat="45.08109" lon="6.08741">
        <ele>1559.6</ele>
        <time>2024-08-09T10:10:38Z</time>
      </trkpt>
      <trkpt lat="45.08109" lon="6.08741">
        <ele>1559.6</ele>
        <time>2024-08-09T10:10:39Z</time>
      </trkpt>
      <trkpt lat="45.08108" lon="6.08744">
        <ele>1559.6</ele>
        <time>2024-08-09T10:10:40Z</time>
      </trkpt>
      <trkpt lat="45.08108" lon="6.08744">
        <ele>1559.6</ele>
        <time>2024-08-09T10:10:41Z</time>
      </trkpt>
      <trkpt lat="45.08106" lon="6.08748">
        <ele>1559.6</ele>
        <time>2024-08-09T10:10:42Z</time>
      </trkpt>
      <trkpt lat="45.08106" lon="6.08748">
        <ele>1559.8</ele>
        <time>2024-08-09T10:10:43Z</time>
      </trkpt>
      <trkpt lat="45.08104" lon="6.08751">
        <ele>1559.8</ele>
        <time>2024-08-09T10:10:44Z</time>
      </trkpt>
      <trkpt lat="45.08104" lon="6.08751">
        <ele>1559.8</ele>
        <time>2024-08-09T10:10:45Z</time>
      </trkpt>
      <trkpt lat="45.08102" lon="6.08753">
        <ele>1559.8</ele>
        <time>2024-08-09T10:10:46Z</time>
      </trkpt>
      <trkpt lat="45.08102" lon="6.08753">
        <ele>1559.6</ele>
        <time>2024-08-09T10:10:47Z</time>
      </trkpt>
      <trkpt lat="45.081" lon="6.08756">
        <ele>1559.6</ele>
        <time>2024-08-09T10:10:48Z</time>
      </trkpt>
      <trkpt lat="45.081" lon="6.08756">
        <ele>1559.4</ele>
        <time>2024-08-09T10:10:49Z</time>
      </trkpt>
      <trkpt lat="45.08097" lon="6.08758">
        <ele>1559.4</ele>
        <time>2024-08-09T10:10:50Z</time>
      </trkpt>
      <trkpt lat="45.08097" lon="6.08758">
        <ele>1559.6</ele>
        <time>2024-08-09T10:10:51Z</time>
      </trkpt>
      <trkpt lat="45.08095" lon="6.0876">
        <ele>1559.8</ele>
        <time>2024-08-09T10:10:52Z</time>
      </trkpt>
      <trkpt lat="45.08095" lon="6.0876">
        <ele>1559.8</ele>
        <time>2024-08-09T10:10:53Z</time>
      </trkpt>
      <trkpt lat="45.08093" lon="6.08763">
        <ele>1559.8</ele>
        <time>2024-08-09T10:10:54Z</time>
      </trkpt>
      <trkpt lat="45.08093" lon="6.08763">
        <ele>1559.8</ele>
        <time>2024-08-09T10:10:55Z</time>
      </trkpt>
      <trkpt lat="45.08091" lon="6.08766">
        <ele>1559.8</ele>
        <time>2024-08-09T10:10:56Z</time>
      </trkpt>
      <trkpt lat="45.08091" lon="6.08766">
        <ele>1559.8</ele>
        <time>2024-08-09T10:10:57Z</time>
      </trkpt>
      <trkpt lat="45.08091" lon="6.08769">
        <ele>1560</ele>
        <time>2024-08-09T10:10:58Z</time>
      </trkpt>
      <trkpt lat="45.08091" lon="6.08769">
        <ele>1560</ele>
        <time>2024-08-09T10:10:59Z</time>
      </trkpt>
      <trkpt lat="45.08091" lon="6.08769">
        <ele>1560</ele>
        <time>2024-08-09T10:11:00Z</time>
      </trkpt>
      <trkpt lat="45.08091" lon="6.08772">
        <ele>1560</ele>
        <time>2024-08-09T10:11:01Z</time>
      </trkpt>
      <trkpt lat="45.08091" lon="6.08772">
        <ele>1559.8</ele>
        <time>2024-08-09T10:11:02Z</time>
      </trkpt>
      <trkpt lat="45.08091" lon="6.08772">
        <ele>1559.8</ele>
        <time>2024-08-09T10:11:03Z</time>
      </trkpt>
      <trkpt lat="45.0809" lon="6.08775">
        <ele>1560</ele>
        <time>2024-08-09T10:11:04Z</time>
      </trkpt>
      <trkpt lat="45.0809" lon="6.08775">
        <ele>1560.4</ele>
        <time>2024-08-09T10:11:05Z</time>
      </trkpt>
      <trkpt lat="45.08089" lon="6.08778">
        <ele>1560.4</ele>
        <time>2024-08-09T10:11:06Z</time>
      </trkpt>
      <trkpt lat="45.08089" lon="6.08778">
        <ele>1560.6</ele>
        <time>2024-08-09T10:11:07Z</time>
      </trkpt>
      <trkpt lat="45.08088" lon="6.08781">
        <ele>1561</ele>
        <time>2024-08-09T10:11:08Z</time>
      </trkpt>
      <trkpt lat="45.08088" lon="6.08781">
        <ele>1561</ele>
        <time>2024-08-09T10:11:09Z</time>
      </trkpt>
      <trkpt lat="45.08088" lon="6.08784">
        <ele>1561</ele>
        <time>2024-08-09T10:11:10Z</time>
      </trkpt>
      <trkpt lat="45.08088" lon="6.08784">
        <ele>1561.2</ele>
        <time>2024-08-09T10:11:11Z</time>
      </trkpt>
      <trkpt lat="45.08089" lon="6.08787">
        <ele>1561.2</ele>
        <time>2024-08-09T10:11:12Z</time>
      </trkpt>
      <trkpt lat="45.08089" lon="6.08787">
        <ele>1561.2</ele>
        <time>2024-08-09T10:11:13Z</time>
      </trkpt>
      <trkpt lat="45.08088" lon="6.0879">
        <ele>1561.4</ele>
        <time>2024-08-09T10:11:14Z</time>
      </trkpt>
      <trkpt lat="45.08088" lon="6.0879">
        <ele>1561.4</ele>
        <time>2024-08-09T10:11:15Z</time>
      </trkpt>
      <trkpt lat="45.08088" lon="6.08793">
        <ele>1561.8</ele>
        <time>2024-08-09T10:11:16Z</time>
      </trkpt>
      <trkpt lat="45.08088" lon="6.08793">
        <ele>1562</ele>
        <time>2024-08-09T10:11:17Z</time>
      </trkpt>
      <trkpt lat="45.08087" lon="6.08797">
        <ele>1562.2</ele>
        <time>2024-08-09T10:11:18Z</time>
      </trkpt>
      <trkpt lat="45.08087" lon="6.08797">
        <ele>1562.2</ele>
        <time>2024-08-09T10:11:19Z</time>
      </trkpt>
      <trkpt lat="45.08086" lon="6.088">
        <ele>1562.2</ele>
        <time>2024-08-09T10:11:20Z</time>
      </trkpt>
      <trkpt lat="45.08086" lon="6.088">
        <ele>1562.2</ele>
        <time>2024-08-09T10:11:21Z</time>
      </trkpt>
      <trkpt lat="45.08085" lon="6.08803">
        <ele>1562.2</ele>
        <time>2024-08-09T10:11:22Z</time>
      </trkpt>
      <trkpt lat="45.08085" lon="6.08803">
        <ele>1562.6</ele>
        <time>2024-08-09T10:11:23Z</time>
      </trkpt>
      <trkpt lat="45.08085" lon="6.08806">
        <ele>1562.6</ele>
        <time>2024-08-09T10:11:24Z</time>
      </trkpt>
      <trkpt lat="45.08085" lon="6.08806">
        <ele>1562.6</ele>
        <time>2024-08-09T10:11:25Z</time>
      </trkpt>
      <trkpt lat="45.08085" lon="6.08809">
        <ele>1562.6</ele>
        <time>2024-08-09T10:11:26Z</time>
      </trkpt>
      <trkpt lat="45.08085" lon="6.08809">
        <ele>1562.8</ele>
        <time>2024-08-09T10:11:27Z</time>
      </trkpt>
      <trkpt lat="45.08085" lon="6.08813">
        <ele>1562.8</ele>
        <time>2024-08-09T10:11:28Z</time>
      </trkpt>
      <trkpt lat="45.08085" lon="6.08813">
        <ele>1563</ele>
        <time>2024-08-09T10:11:29Z</time>
      </trkpt>
      <trkpt lat="45.08086" lon="6.08816">
        <ele>1563.2</ele>
        <time>2024-08-09T10:11:30Z</time>
      </trkpt>
      <trkpt lat="45.08086" lon="6.08816">
        <ele>1563.4</ele>
        <time>2024-08-09T10:11:31Z</time>
      </trkpt>
      <trkpt lat="45.08087" lon="6.0882">
        <ele>1563.6</ele>
        <time>2024-08-09T10:11:32Z</time>
      </trkpt>
      <trkpt lat="45.08087" lon="6.0882">
        <ele>1563.8</ele>
        <time>2024-08-09T10:11:33Z</time>
      </trkpt>
      <trkpt lat="45.08087" lon="6.08824">
        <ele>1563.8</ele>
        <time>2024-08-09T10:11:34Z</time>
      </trkpt>
      <trkpt lat="45.08087" lon="6.08824">
        <ele>1563.8</ele>
        <time>2024-08-09T10:11:35Z</time>
      </trkpt>
      <trkpt lat="45.08087" lon="6.08828">
        <ele>1564</ele>
        <time>2024-08-09T10:11:36Z</time>
      </trkpt>
      <trkpt lat="45.08087" lon="6.08828">
        <ele>1564</ele>
        <time>2024-08-09T10:11:37Z</time>
      </trkpt>
      <trkpt lat="45.08087" lon="6.08831">
        <ele>1564.2</ele>
        <time>2024-08-09T10:11:38Z</time>
      </trkpt>
      <trkpt lat="45.08087" lon="6.08831">
        <ele>1564.2</ele>
        <time>2024-08-09T10:11:39Z</time>
      </trkpt>
      <trkpt lat="45.08087" lon="6.08834">
        <ele>1564.2</ele>
        <time>2024-08-09T10:11:40Z</time>
      </trkpt>
      <trkpt lat="45.08087" lon="6.08834">
        <ele>1564.2</ele>
        <time>2024-08-09T10:11:41Z</time>
      </trkpt>
      <trkpt lat="45.08087" lon="6.08834">
        <ele>1564.6</ele>
        <time>2024-08-09T10:11:42Z</time>
      </trkpt>
      <trkpt lat="45.08087" lon="6.08838">
        <ele>1564.6</ele>
        <time>2024-08-09T10:11:43Z</time>
      </trkpt>
      <trkpt lat="45.08087" lon="6.08838">
        <ele>1564.6</ele>
        <time>2024-08-09T10:11:44Z</time>
      </trkpt>
      <trkpt lat="45.08087" lon="6.08841">
        <ele>1564.8</ele>
        <time>2024-08-09T10:11:45Z</time>
      </trkpt>
      <trkpt lat="45.08087" lon="6.08841">
        <ele>1565</ele>
        <time>2024-08-09T10:11:46Z</time>
      </trkpt>
      <trkpt lat="45.08086" lon="6.08844">
        <ele>1565</ele>
        <time>2024-08-09T10:11:47Z</time>
      </trkpt>
      <trkpt lat="45.08086" lon="6.08844">
        <ele>1565.2</ele>
        <time>2024-08-09T10:11:48Z</time>
      </trkpt>
      <trkpt lat="45.08085" lon="6.08847">
        <ele>1565.2</ele>
        <time>2024-08-09T10:11:49Z</time>
      </trkpt>
      <trkpt lat="45.08085" lon="6.08847">
        <ele>1565</ele>
        <time>2024-08-09T10:11:50Z</time>
      </trkpt>
      <trkpt lat="45.08083" lon="6.0885">
        <ele>1565</ele>
        <time>2024-08-09T10:11:51Z</time>
      </trkpt>
      <trkpt lat="45.08083" lon="6.0885">
        <ele>1565</ele>
        <time>2024-08-09T10:11:52Z</time>
      </trkpt>
      <trkpt lat="45.08081" lon="6.08853">
        <ele>1565</ele>
        <time>2024-08-09T10:11:53Z</time>
      </trkpt>
      <trkpt lat="45.08081" lon="6.08853">
        <ele>1565.2</ele>
        <time>2024-08-09T10:11:54Z</time>
      </trkpt>
      <trkpt lat="45.0808" lon="6.08856">
        <ele>1565.2</ele>
        <time>2024-08-09T10:11:55Z</time>
      </trkpt>
      <trkpt lat="45.0808" lon="6.08856">
        <ele>1565.2</ele>
        <time>2024-08-09T10:11:56Z</time>
      </trkpt>
      <trkpt lat="45.08077" lon="6.08857">
        <ele>1565.2</ele>
        <time>2024-08-09T10:11:57Z</time>
      </trkpt>
      <trkpt lat="45.08077" lon="6.08857">
        <ele>1565</ele>
        <time>2024-08-09T10:11:58Z</time>
      </trkpt>
      <trkpt lat="45.08075" lon="6.08859">
        <ele>1565</ele>
        <time>2024-08-09T10:11:59Z</time>
      </trkpt>
      <trkpt lat="45.08075" lon="6.08859">
        <ele>1565</ele>
        <time>2024-08-09T10:12:00Z</time>
      </trkpt>
      <trkpt lat="45.08075" lon="6.08859">
        <ele>1565</ele>
        <time>2024-08-09T10:12:01Z</time>
      </trkpt>
      <trkpt lat="45.08074" lon="6.08863">
        <ele>1565.4</ele>
        <time>2024-08-09T10:12:02Z</time>
      </trkpt>
      <trkpt lat="45.08074" lon="6.08863">
        <ele>1565.4</ele>
        <time>2024-08-09T10:12:03Z</time>
      </trkpt>
      <trkpt lat="45.08073" lon="6.08865">
        <ele>1565.4</ele>
        <time>2024-08-09T10:12:04Z</time>
      </trkpt>
      <trkpt lat="45.08073" lon="6.08865">
        <ele>1565.6</ele>
        <time>2024-08-09T10:12:05Z</time>
      </trkpt>
      <trkpt lat="45.08071" lon="6.08869">
        <ele>1565.8</ele>
        <time>2024-08-09T10:12:06Z</time>
      </trkpt>
      <trkpt lat="45.08071" lon="6.08869">
        <ele>1566</ele>
        <time>2024-08-09T10:12:07Z</time>
      </trkpt>
      <trkpt lat="45.08069" lon="6.08871">
        <ele>1566</ele>
        <time>2024-08-09T10:12:08Z</time>
      </trkpt>
      <trkpt lat="45.08069" lon="6.08871">
        <ele>1566</ele>
        <time>2024-08-09T10:12:09Z</time>
      </trkpt>
      <trkpt lat="45.08069" lon="6.08874">
        <ele>1566</ele>
        <time>2024-08-09T10:12:10Z</time>
      </trkpt>
      <trkpt lat="45.08069" lon="6.08874">
        <ele>1566</ele>
        <time>2024-08-09T10:12:11Z</time>
      </trkpt>
      <trkpt lat="45.08068" lon="6.08878">
        <ele>1566</ele>
        <time>2024-08-09T10:12:12Z</time>
      </trkpt>
      <trkpt lat="45.08068" lon="6.08878">
        <ele>1566</ele>
        <time>2024-08-09T10:12:13Z</time>
      </trkpt>
      <trkpt lat="45.08069" lon="6.08881">
        <ele>1566</ele>
        <time>2024-08-09T10:12:14Z</time>
      </trkpt>
      <trkpt lat="45.08069" lon="6.08881">
        <ele>1566.2</ele>
        <time>2024-08-09T10:12:15Z</time>
      </trkpt>
      <trkpt lat="45.0807" lon="6.08885">
        <ele>1566.4</ele>
        <time>2024-08-09T10:12:16Z</time>
      </trkpt>
      <trkpt lat="45.0807" lon="6.08885">
        <ele>1566.6</ele>
        <time>2024-08-09T10:12:17Z</time>
      </trkpt>
      <trkpt lat="45.0807" lon="6.08885">
        <ele>1566.6</ele>
        <time>2024-08-09T10:12:18Z</time>
      </trkpt>
      <trkpt lat="45.0807" lon="6.08889">
        <ele>1566.6</ele>
        <time>2024-08-09T10:12:19Z</time>
      </trkpt>
      <trkpt lat="45.0807" lon="6.08889">
        <ele>1566.6</ele>
        <time>2024-08-09T10:12:20Z</time>
      </trkpt>
      <trkpt lat="45.08069" lon="6.08892">
        <ele>1566.6</ele>
        <time>2024-08-09T10:12:21Z</time>
      </trkpt>
      <trkpt lat="45.08069" lon="6.08892">
        <ele>1566.8</ele>
        <time>2024-08-09T10:12:22Z</time>
      </trkpt>
      <trkpt lat="45.08069" lon="6.08896">
        <ele>1566.8</ele>
        <time>2024-08-09T10:12:23Z</time>
      </trkpt>
      <trkpt lat="45.08069" lon="6.08896">
        <ele>1566.8</ele>
        <time>2024-08-09T10:12:24Z</time>
      </trkpt>
      <trkpt lat="45.0807" lon="6.08899">
        <ele>1567</ele>
        <time>2024-08-09T10:12:25Z</time>
      </trkpt>
      <trkpt lat="45.0807" lon="6.08899">
        <ele>1567</ele>
        <time>2024-08-09T10:12:26Z</time>
      </trkpt>
      <trkpt lat="45.0807" lon="6.08903">
        <ele>1567.2</ele>
        <time>2024-08-09T10:12:27Z</time>
      </trkpt>
      <trkpt lat="45.0807" lon="6.08903">
        <ele>1567</ele>
        <time>2024-08-09T10:12:28Z</time>
      </trkpt>
      <trkpt lat="45.0807" lon="6.08906">
        <ele>1567</ele>
        <time>2024-08-09T10:12:29Z</time>
      </trkpt>
      <trkpt lat="45.0807" lon="6.08906">
        <ele>1567</ele>
        <time>2024-08-09T10:12:30Z</time>
      </trkpt>
      <trkpt lat="45.0807" lon="6.0891">
        <ele>1567</ele>
        <time>2024-08-09T10:12:31Z</time>
      </trkpt>
      <trkpt lat="45.0807" lon="6.0891">
        <ele>1567</ele>
        <time>2024-08-09T10:12:32Z</time>
      </trkpt>
      <trkpt lat="45.08069" lon="6.08914">
        <ele>1566.8</ele>
        <time>2024-08-09T10:12:33Z</time>
      </trkpt>
      <trkpt lat="45.08069" lon="6.08914">
        <ele>1566.8</ele>
        <time>2024-08-09T10:12:34Z</time>
      </trkpt>
      <trkpt lat="45.08069" lon="6.08914">
        <ele>1567</ele>
        <time>2024-08-09T10:12:35Z</time>
      </trkpt>
      <trkpt lat="45.08069" lon="6.08917">
        <ele>1567.2</ele>
        <time>2024-08-09T10:12:36Z</time>
      </trkpt>
      <trkpt lat="45.08067" lon="6.0892">
        <ele>1567.2</ele>
        <time>2024-08-09T10:12:37Z</time>
      </trkpt>
      <trkpt lat="45.08067" lon="6.0892">
        <ele>1567</ele>
        <time>2024-08-09T10:12:38Z</time>
      </trkpt>
      <trkpt lat="45.08067" lon="6.08923">
        <ele>1566.8</ele>
        <time>2024-08-09T10:12:39Z</time>
      </trkpt>
      <trkpt lat="45.08067" lon="6.08923">
        <ele>1566.8</ele>
        <time>2024-08-09T10:12:40Z</time>
      </trkpt>
      <trkpt lat="45.08067" lon="6.08923">
        <ele>1567.2</ele>
        <time>2024-08-09T10:12:41Z</time>
      </trkpt>
      <trkpt lat="45.08069" lon="6.08925">
        <ele>1567.2</ele>
        <time>2024-08-09T10:12:42Z</time>
      </trkpt>
      <trkpt lat="45.08069" lon="6.08925">
        <ele>1567</ele>
        <time>2024-08-09T10:12:43Z</time>
      </trkpt>
      <trkpt lat="45.08069" lon="6.08925">
        <ele>1567</ele>
        <time>2024-08-09T10:12:44Z</time>
      </trkpt>
      <trkpt lat="45.0807" lon="6.08928">
        <ele>1567</ele>
        <time>2024-08-09T10:12:45Z</time>
      </trkpt>
      <trkpt lat="45.0807" lon="6.08928">
        <ele>1567.2</ele>
        <time>2024-08-09T10:12:46Z</time>
      </trkpt>
      <trkpt lat="45.0807" lon="6.08928">
        <ele>1567.4</ele>
        <time>2024-08-09T10:12:47Z</time>
      </trkpt>
      <trkpt lat="45.0807" lon="6.08932">
        <ele>1567.4</ele>
        <time>2024-08-09T10:12:48Z</time>
      </trkpt>
      <trkpt lat="45.0807" lon="6.08932">
        <ele>1567.6</ele>
        <time>2024-08-09T10:12:49Z</time>
      </trkpt>
      <trkpt lat="45.0807" lon="6.08935">
        <ele>1567.6</ele>
        <time>2024-08-09T10:12:50Z</time>
      </trkpt>
      <trkpt lat="45.0807" lon="6.08935">
        <ele>1567.6</ele>
        <time>2024-08-09T10:12:51Z</time>
      </trkpt>
      <trkpt lat="45.08069" lon="6.08937">
        <ele>1567.6</ele>
        <time>2024-08-09T10:12:52Z</time>
      </trkpt>
      <trkpt lat="45.08069" lon="6.08937">
        <ele>1567.8</ele>
        <time>2024-08-09T10:12:53Z</time>
      </trkpt>
      <trkpt lat="45.08069" lon="6.08941">
        <ele>1567.8</ele>
        <time>2024-08-09T10:12:54Z</time>
      </trkpt>
      <trkpt lat="45.08069" lon="6.08941">
        <ele>1568</ele>
        <time>2024-08-09T10:12:55Z</time>
      </trkpt>
      <trkpt lat="45.08069" lon="6.08944">
        <ele>1568</ele>
        <time>2024-08-09T10:12:56Z</time>
      </trkpt>
      <trkpt lat="45.08069" lon="6.08944">
        <ele>1568</ele>
        <time>2024-08-09T10:12:57Z</time>
      </trkpt>
      <trkpt lat="45.0807" lon="6.08947">
        <ele>1568.2</ele>
        <time>2024-08-09T10:12:58Z</time>
      </trkpt>
      <trkpt lat="45.0807" lon="6.08947">
        <ele>1568.2</ele>
        <time>2024-08-09T10:12:59Z</time>
      </trkpt>
      <trkpt lat="45.0807" lon="6.08947">
        <ele>1568.2</ele>
        <time>2024-08-09T10:13:00Z</time>
      </trkpt>
      <trkpt lat="45.0807" lon="6.0895">
        <ele>1568.2</ele>
        <time>2024-08-09T10:13:01Z</time>
      </trkpt>
      <trkpt lat="45.0807" lon="6.0895">
        <ele>1568.6</ele>
        <time>2024-08-09T10:13:02Z</time>
      </trkpt>
      <trkpt lat="45.0807" lon="6.08954">
        <ele>1568.6</ele>
        <time>2024-08-09T10:13:03Z</time>
      </trkpt>
      <trkpt lat="45.0807" lon="6.08954">
        <ele>1568.6</ele>
        <time>2024-08-09T10:13:04Z</time>
      </trkpt>
      <trkpt lat="45.0807" lon="6.08957">
        <ele>1568.6</ele>
        <time>2024-08-09T10:13:05Z</time>
      </trkpt>
      <trkpt lat="45.0807" lon="6.08957">
        <ele>1568.6</ele>
        <time>2024-08-09T10:13:06Z</time>
      </trkpt>
      <trkpt lat="45.08069" lon="6.0896">
        <ele>1568.8</ele>
        <time>2024-08-09T10:13:07Z</time>
      </trkpt>
      <trkpt lat="45.08069" lon="6.0896">
        <ele>1568.8</ele>
        <time>2024-08-09T10:13:08Z</time>
      </trkpt>
      <trkpt lat="45.08067" lon="6.08963">
        <ele>1568.8</ele>
        <time>2024-08-09T10:13:09Z</time>
      </trkpt>
      <trkpt lat="45.08067" lon="6.08963">
        <ele>1568.8</ele>
        <time>2024-08-09T10:13:10Z</time>
      </trkpt>
      <trkpt lat="45.08066" lon="6.08966">
        <ele>1569</ele>
        <time>2024-08-09T10:13:11Z</time>
      </trkpt>
      <trkpt lat="45.08066" lon="6.08966">
        <ele>1569</ele>
        <time>2024-08-09T10:13:12Z</time>
      </trkpt>
      <trkpt lat="45.08065" lon="6.08968">
        <ele>1569</ele>
        <time>2024-08-09T10:13:13Z</time>
      </trkpt>
      <trkpt lat="45.08063" lon="6.08971">
        <ele>1569.2</ele>
        <time>2024-08-09T10:13:14Z</time>
      </trkpt>
      <trkpt lat="45.08063" lon="6.08971">
        <ele>1569.2</ele>
        <time>2024-08-09T10:13:15Z</time>
      </trkpt>
      <trkpt lat="45.08062" lon="6.08974">
        <ele>1569.4</ele>
        <time>2024-08-09T10:13:16Z</time>
      </trkpt>
      <trkpt lat="45.08062" lon="6.08974">
        <ele>1569.4</ele>
        <time>2024-08-09T10:13:17Z</time>
      </trkpt>
      <trkpt lat="45.08061" lon="6.08976">
        <ele>1569.6</ele>
        <time>2024-08-09T10:13:18Z</time>
      </trkpt>
      <trkpt lat="45.08061" lon="6.08976">
        <ele>1569.6</ele>
        <time>2024-08-09T10:13:19Z</time>
      </trkpt>
      <trkpt lat="45.08059" lon="6.08979">
        <ele>1569.6</ele>
        <time>2024-08-09T10:13:20Z</time>
      </trkpt>
      <trkpt lat="45.08059" lon="6.08979">
        <ele>1569.8</ele>
        <time>2024-08-09T10:13:21Z</time>
      </trkpt>
      <trkpt lat="45.08061" lon="6.08982">
        <ele>1569.8</ele>
        <time>2024-08-09T10:13:22Z</time>
      </trkpt>
      <trkpt lat="45.08061" lon="6.08982">
        <ele>1569.8</ele>
        <time>2024-08-09T10:13:23Z</time>
      </trkpt>
      <trkpt lat="45.08061" lon="6.08982">
        <ele>1570</ele>
        <time>2024-08-09T10:13:24Z</time>
      </trkpt>
      <trkpt lat="45.0806" lon="6.08985">
        <ele>1570</ele>
        <time>2024-08-09T10:13:25Z</time>
      </trkpt>
      <trkpt lat="45.0806" lon="6.08985">
        <ele>1570</ele>
        <time>2024-08-09T10:13:26Z</time>
      </trkpt>
      <trkpt lat="45.08059" lon="6.08989">
        <ele>1570</ele>
        <time>2024-08-09T10:13:27Z</time>
      </trkpt>
      <trkpt lat="45.08059" lon="6.08989">
        <ele>1570.2</ele>
        <time>2024-08-09T10:13:28Z</time>
      </trkpt>
      <trkpt lat="45.08058" lon="6.08992">
        <ele>1570.2</ele>
        <time>2024-08-09T10:13:29Z</time>
      </trkpt>
      <trkpt lat="45.08058" lon="6.08992">
        <ele>1570.2</ele>
        <time>2024-08-09T10:13:30Z</time>
      </trkpt>
      <trkpt lat="45.08058" lon="6.08992">
        <ele>1570.2</ele>
        <time>2024-08-09T10:13:31Z</time>
      </trkpt>
      <trkpt lat="45.08058" lon="6.08992">
        <ele>1570.4</ele>
        <time>2024-08-09T10:13:32Z</time>
      </trkpt>
      <trkpt lat="45.08058" lon="6.08992">
        <ele>1570.6</ele>
        <time>2024-08-09T10:13:33Z</time>
      </trkpt>
      <trkpt lat="45.08058" lon="6.08992">
        <ele>1570.8</ele>
        <time>2024-08-09T10:13:34Z</time>
      </trkpt>
      <trkpt lat="45.08057" lon="6.08994">
        <ele>1570.8</ele>
        <time>2024-08-09T10:13:35Z</time>
      </trkpt>
      <trkpt lat="45.08057" lon="6.08994">
        <ele>1570.8</ele>
        <time>2024-08-09T10:13:36Z</time>
      </trkpt>
      <trkpt lat="45.08057" lon="6.08994">
        <ele>1570.8</ele>
        <time>2024-08-09T10:13:37Z</time>
      </trkpt>
      <trkpt lat="45.08057" lon="6.08994">
        <ele>1571</ele>
        <time>2024-08-09T10:13:38Z</time>
      </trkpt>
      <trkpt lat="45.08057" lon="6.08996">
        <ele>1571</ele>
        <time>2024-08-09T10:13:39Z</time>
      </trkpt>
      <trkpt lat="45.08057" lon="6.08996">
        <ele>1571</ele>
        <time>2024-08-09T10:13:40Z</time>
      </trkpt>
      <trkpt lat="45.08057" lon="6.08996">
        <ele>1571</ele>
        <time>2024-08-09T10:13:41Z</time>
      </trkpt>
      <trkpt lat="45.08057" lon="6.08996">
        <ele>1571</ele>
        <time>2024-08-09T10:13:42Z</time>
      </trkpt>
      <trkpt lat="45.08057" lon="6.08996">
        <ele>1570.8</ele>
        <time>2024-08-09T10:13:43Z</time>
      </trkpt>
      <trkpt lat="45.08057" lon="6.08996">
        <ele>1570.8</ele>
        <time>2024-08-09T10:13:44Z</time>
      </trkpt>
      <trkpt lat="45.08057" lon="6.08996">
        <ele>1570.8</ele>
        <time>2024-08-09T10:13:45Z</time>
      </trkpt>
      <trkpt lat="45.08057" lon="6.08996">
        <ele>1570.8</ele>
        <time>2024-08-09T10:13:46Z</time>
      </trkpt>
      <trkpt lat="45.08057" lon="6.08996">
        <ele>1571</ele>
        <time>2024-08-09T10:13:47Z</time>
      </trkpt>
      <trkpt lat="45.08057" lon="6.08996">
        <ele>1571</ele>
        <time>2024-08-09T10:13:48Z</time>
      </trkpt>
      <trkpt lat="45.08057" lon="6.08996">
        <ele>1571</ele>
        <time>2024-08-09T10:13:49Z</time>
      </trkpt>
      <trkpt lat="45.08057" lon="6.08996">
        <ele>1571</ele>
        <time>2024-08-09T10:13:50Z</time>
      </trkpt>
      <trkpt lat="45.08057" lon="6.08996">
        <ele>1571</ele>
        <time>2024-08-09T10:13:51Z</time>
      </trkpt>
      <trkpt lat="45.08057" lon="6.08996">
        <ele>1571</ele>
        <time>2024-08-09T10:13:52Z</time>
      </trkpt>
      <trkpt lat="45.08057" lon="6.08996">
        <ele>1571.2</ele>
        <time>2024-08-09T10:13:53Z</time>
      </trkpt>
      <trkpt lat="45.08057" lon="6.08996">
        <ele>1571</ele>
        <time>2024-08-09T10:13:54Z</time>
      </trkpt>
      <trkpt lat="45.08057" lon="6.08996">
        <ele>1571.2</ele>
        <time>2024-08-09T10:13:55Z</time>
      </trkpt>
      <trkpt lat="45.08057" lon="6.08996">
        <ele>1571.2</ele>
        <time>2024-08-09T10:13:56Z</time>
      </trkpt>
      <trkpt lat="45.08059" lon="6.08999">
        <ele>1571.2</ele>
        <time>2024-08-09T10:13:57Z</time>
      </trkpt>
      <trkpt lat="45.08059" lon="6.08999">
        <ele>1571.2</ele>
        <time>2024-08-09T10:13:58Z</time>
      </trkpt>
      <trkpt lat="45.0806" lon="6.09001">
        <ele>1571.2</ele>
        <time>2024-08-09T10:13:59Z</time>
      </trkpt>
      <trkpt lat="45.0806" lon="6.09001">
        <ele>1571.2</ele>
        <time>2024-08-09T10:14:00Z</time>
      </trkpt>
      <trkpt lat="45.08063" lon="6.09005">
        <ele>1571.2</ele>
        <time>2024-08-09T10:14:01Z</time>
      </trkpt>
      <trkpt lat="45.08063" lon="6.09007">
        <ele>1571.4</ele>
        <time>2024-08-09T10:14:02Z</time>
      </trkpt>
      <trkpt lat="45.08064" lon="6.0901">
        <ele>1571.4</ele>
        <time>2024-08-09T10:14:03Z</time>
      </trkpt>
      <trkpt lat="45.08064" lon="6.0901">
        <ele>1571.4</ele>
        <time>2024-08-09T10:14:04Z</time>
      </trkpt>
      <trkpt lat="45.08064" lon="6.0901">
        <ele>1571.4</ele>
        <time>2024-08-09T10:14:05Z</time>
      </trkpt>
      <trkpt lat="45.08062" lon="6.09012">
        <ele>1571.4</ele>
        <time>2024-08-09T10:14:06Z</time>
      </trkpt>
      <trkpt lat="45.08062" lon="6.09012">
        <ele>1571.4</ele>
        <time>2024-08-09T10:14:07Z</time>
      </trkpt>
      <trkpt lat="45.08061" lon="6.09014">
        <ele>1571.4</ele>
        <time>2024-08-09T10:14:08Z</time>
      </trkpt>
      <trkpt lat="45.08061" lon="6.09014">
        <ele>1571.4</ele>
        <time>2024-08-09T10:14:09Z</time>
      </trkpt>
      <trkpt lat="45.08061" lon="6.09018">
        <ele>1571.4</ele>
        <time>2024-08-09T10:14:10Z</time>
      </trkpt>
      <trkpt lat="45.08061" lon="6.09018">
        <ele>1571.4</ele>
        <time>2024-08-09T10:14:11Z</time>
      </trkpt>
      <trkpt lat="45.08063" lon="6.0902">
        <ele>1571.2</ele>
        <time>2024-08-09T10:14:12Z</time>
      </trkpt>
      <trkpt lat="45.08063" lon="6.0902">
        <ele>1571.2</ele>
        <time>2024-08-09T10:14:13Z</time>
      </trkpt>
      <trkpt lat="45.08063" lon="6.0902">
        <ele>1571.2</ele>
        <time>2024-08-09T10:14:14Z</time>
      </trkpt>
      <trkpt lat="45.08064" lon="6.09024">
        <ele>1571.2</ele>
        <time>2024-08-09T10:14:15Z</time>
      </trkpt>
      <trkpt lat="45.08064" lon="6.09024">
        <ele>1571.4</ele>
        <time>2024-08-09T10:14:16Z</time>
      </trkpt>
      <trkpt lat="45.08066" lon="6.09026">
        <ele>1571.6</ele>
        <time>2024-08-09T10:14:17Z</time>
      </trkpt>
      <trkpt lat="45.08066" lon="6.09026">
        <ele>1571.8</ele>
        <time>2024-08-09T10:14:18Z</time>
      </trkpt>
      <trkpt lat="45.08068" lon="6.09029">
        <ele>1572</ele>
        <time>2024-08-09T10:14:19Z</time>
      </trkpt>
      <trkpt lat="45.08068" lon="6.09029">
        <ele>1572</ele>
        <time>2024-08-09T10:14:20Z</time>
      </trkpt>
      <trkpt lat="45.08067" lon="6.09031">
        <ele>1572</ele>
        <time>2024-08-09T10:14:21Z</time>
      </trkpt>
      <trkpt lat="45.08067" lon="6.09031">
        <ele>1572.2</ele>
        <time>2024-08-09T10:14:22Z</time>
      </trkpt>
      <trkpt lat="45.08067" lon="6.09031">
        <ele>1572.2</ele>
        <time>2024-08-09T10:14:23Z</time>
      </trkpt>
      <trkpt lat="45.08066" lon="6.09034">
        <ele>1572</ele>
        <time>2024-08-09T10:14:24Z</time>
      </trkpt>
      <trkpt lat="45.08066" lon="6.09034">
        <ele>1572</ele>
        <time>2024-08-09T10:14:25Z</time>
      </trkpt>
      <trkpt lat="45.08065" lon="6.09038">
        <ele>1572</ele>
        <time>2024-08-09T10:14:26Z</time>
      </trkpt>
      <trkpt lat="45.08065" lon="6.0904">
        <ele>1572.2</ele>
        <time>2024-08-09T10:14:27Z</time>
      </trkpt>
      <trkpt lat="45.08065" lon="6.0904">
        <ele>1572.2</ele>
        <time>2024-08-09T10:14:28Z</time>
      </trkpt>
      <trkpt lat="45.08065" lon="6.09045">
        <ele>1572</ele>
        <time>2024-08-09T10:14:29Z</time>
      </trkpt>
      <trkpt lat="45.08065" lon="6.09045">
        <ele>1572</ele>
        <time>2024-08-09T10:14:30Z</time>
      </trkpt>
      <trkpt lat="45.08065" lon="6.09048">
        <ele>1572</ele>
        <time>2024-08-09T10:14:31Z</time>
      </trkpt>
      <trkpt lat="45.08065" lon="6.09048">
        <ele>1572</ele>
        <time>2024-08-09T10:14:32Z</time>
      </trkpt>
      <trkpt lat="45.08065" lon="6.09052">
        <ele>1572</ele>
        <time>2024-08-09T10:14:33Z</time>
      </trkpt>
      <trkpt lat="45.08065" lon="6.09052">
        <ele>1572.2</ele>
        <time>2024-08-09T10:14:34Z</time>
      </trkpt>
      <trkpt lat="45.08065" lon="6.09056">
        <ele>1572.2</ele>
        <time>2024-08-09T10:14:35Z</time>
      </trkpt>
      <trkpt lat="45.08065" lon="6.09056">
        <ele>1572.2</ele>
        <time>2024-08-09T10:14:36Z</time>
      </trkpt>
      <trkpt lat="45.08065" lon="6.0906">
        <ele>1572.4</ele>
        <time>2024-08-09T10:14:37Z</time>
      </trkpt>
      <trkpt lat="45.08065" lon="6.0906">
        <ele>1572.6</ele>
        <time>2024-08-09T10:14:38Z</time>
      </trkpt>
      <trkpt lat="45.08065" lon="6.09063">
        <ele>1572.6</ele>
        <time>2024-08-09T10:14:39Z</time>
      </trkpt>
      <trkpt lat="45.08065" lon="6.09063">
        <ele>1572.8</ele>
        <time>2024-08-09T10:14:40Z</time>
      </trkpt>
      <trkpt lat="45.08065" lon="6.09066">
        <ele>1573</ele>
        <time>2024-08-09T10:14:41Z</time>
      </trkpt>
      <trkpt lat="45.08065" lon="6.09066">
        <ele>1573.2</ele>
        <time>2024-08-09T10:14:42Z</time>
      </trkpt>
      <trkpt lat="45.08066" lon="6.09069">
        <ele>1573.4</ele>
        <time>2024-08-09T10:14:43Z</time>
      </trkpt>
      <trkpt lat="45.08066" lon="6.09069">
        <ele>1573.6</ele>
        <time>2024-08-09T10:14:44Z</time>
      </trkpt>
      <trkpt lat="45.08066" lon="6.09072">
        <ele>1573.8</ele>
        <time>2024-08-09T10:14:45Z</time>
      </trkpt>
      <trkpt lat="45.08066" lon="6.09072">
        <ele>1573.8</ele>
        <time>2024-08-09T10:14:46Z</time>
      </trkpt>
      <trkpt lat="45.08066" lon="6.09076">
        <ele>1573.8</ele>
        <time>2024-08-09T10:14:47Z</time>
      </trkpt>
      <trkpt lat="45.08067" lon="6.09079">
        <ele>1573.6</ele>
        <time>2024-08-09T10:14:48Z</time>
      </trkpt>
      <trkpt lat="45.08067" lon="6.09079">
        <ele>1573.6</ele>
        <time>2024-08-09T10:14:49Z</time>
      </trkpt>
      <trkpt lat="45.08067" lon="6.09083">
        <ele>1573.6</ele>
        <time>2024-08-09T10:14:50Z</time>
      </trkpt>
      <trkpt lat="45.08067" lon="6.09083">
        <ele>1573.8</ele>
        <time>2024-08-09T10:14:51Z</time>
      </trkpt>
      <trkpt lat="45.08067" lon="6.09083">
        <ele>1574</ele>
        <time>2024-08-09T10:14:52Z</time>
      </trkpt>
      <trkpt lat="45.08067" lon="6.09086">
        <ele>1574</ele>
        <time>2024-08-09T10:14:53Z</time>
      </trkpt>
      <trkpt lat="45.08067" lon="6.09086">
        <ele>1574.2</ele>
        <time>2024-08-09T10:14:54Z</time>
      </trkpt>
      <trkpt lat="45.08067" lon="6.09086">
        <ele>1574.2</ele>
        <time>2024-08-09T10:14:55Z</time>
      </trkpt>
      <trkpt lat="45.08069" lon="6.09089">
        <ele>1574.4</ele>
        <time>2024-08-09T10:14:56Z</time>
      </trkpt>
      <trkpt lat="45.08069" lon="6.09089">
        <ele>1574.8</ele>
        <time>2024-08-09T10:14:57Z</time>
      </trkpt>
      <trkpt lat="45.08069" lon="6.09089">
        <ele>1575.4</ele>
        <time>2024-08-09T10:14:58Z</time>
      </trkpt>
      <trkpt lat="45.08069" lon="6.09089">
        <ele>1575.8</ele>
        <time>2024-08-09T10:14:59Z</time>
      </trkpt>
      <trkpt lat="45.08069" lon="6.09089">
        <ele>1575.8</ele>
        <time>2024-08-09T10:15:00Z</time>
      </trkpt>
      <trkpt lat="45.08069" lon="6.09089">
        <ele>1575.8</ele>
        <time>2024-08-09T10:15:01Z</time>
      </trkpt>
      <trkpt lat="45.08069" lon="6.09089">
        <ele>1576</ele>
        <time>2024-08-09T10:15:02Z</time>
      </trkpt>
      <trkpt lat="45.08069" lon="6.09089">
        <ele>1576</ele>
        <time>2024-08-09T10:15:03Z</time>
      </trkpt>
      <trkpt lat="45.08069" lon="6.09089">
        <ele>1576</ele>
        <time>2024-08-09T10:15:04Z</time>
      </trkpt>
      <trkpt lat="45.08069" lon="6.09089">
        <ele>1575.8</ele>
        <time>2024-08-09T10:15:05Z</time>
      </trkpt>
      <trkpt lat="45.08069" lon="6.09089">
        <ele>1575.8</ele>
        <time>2024-08-09T10:15:06Z</time>
      </trkpt>
      <trkpt lat="45.0807" lon="6.09091">
        <ele>1576</ele>
        <time>2024-08-09T10:15:07Z</time>
      </trkpt>
      <trkpt lat="45.0807" lon="6.09091">
        <ele>1576</ele>
        <time>2024-08-09T10:15:08Z</time>
      </trkpt>
      <trkpt lat="45.08071" lon="6.09094">
        <ele>1576</ele>
        <time>2024-08-09T10:15:09Z</time>
      </trkpt>
      <trkpt lat="45.08071" lon="6.09094">
        <ele>1576.4</ele>
        <time>2024-08-09T10:15:10Z</time>
      </trkpt>
      <trkpt lat="45.08073" lon="6.09096">
        <ele>1576.4</ele>
        <time>2024-08-09T10:15:11Z</time>
      </trkpt>
      <trkpt lat="45.08073" lon="6.09096">
        <ele>1576.6</ele>
        <time>2024-08-09T10:15:12Z</time>
      </trkpt>
      <trkpt lat="45.08074" lon="6.09098">
        <ele>1576.6</ele>
        <time>2024-08-09T10:15:13Z</time>
      </trkpt>
      <trkpt lat="45.08074" lon="6.09098">
        <ele>1577</ele>
        <time>2024-08-09T10:15:14Z</time>
      </trkpt>
      <trkpt lat="45.08076" lon="6.091">
        <ele>1577</ele>
        <time>2024-08-09T10:15:15Z</time>
      </trkpt>
      <trkpt lat="45.08076" lon="6.091">
        <ele>1577.2</ele>
        <time>2024-08-09T10:15:16Z</time>
      </trkpt>
      <trkpt lat="45.08076" lon="6.091">
        <ele>1577.2</ele>
        <time>2024-08-09T10:15:17Z</time>
      </trkpt>
      <trkpt lat="45.08076" lon="6.091">
        <ele>1577.2</ele>
        <time>2024-08-09T10:15:18Z</time>
      </trkpt>
      <trkpt lat="45.08077" lon="6.09103">
        <ele>1577</ele>
        <time>2024-08-09T10:15:19Z</time>
      </trkpt>
      <trkpt lat="45.08077" lon="6.09103">
        <ele>1577</ele>
        <time>2024-08-09T10:15:20Z</time>
      </trkpt>
      <trkpt lat="45.08077" lon="6.09103">
        <ele>1577</ele>
        <time>2024-08-09T10:15:21Z</time>
      </trkpt>
      <trkpt lat="45.08077" lon="6.09103">
        <ele>1577.2</ele>
        <time>2024-08-09T10:15:22Z</time>
      </trkpt>
      <trkpt lat="45.0808" lon="6.09103">
        <ele>1577.2</ele>
        <time>2024-08-09T10:15:23Z</time>
      </trkpt>
      <trkpt lat="45.0808" lon="6.09103">
        <ele>1577.4</ele>
        <time>2024-08-09T10:15:24Z</time>
      </trkpt>
      <trkpt lat="45.08081" lon="6.09106">
        <ele>1577.4</ele>
        <time>2024-08-09T10:15:25Z</time>
      </trkpt>
      <trkpt lat="45.08081" lon="6.09106">
        <ele>1577.4</ele>
        <time>2024-08-09T10:15:26Z</time>
      </trkpt>
      <trkpt lat="45.08084" lon="6.0911">
        <ele>1577.4</ele>
        <time>2024-08-09T10:15:27Z</time>
      </trkpt>
      <trkpt lat="45.08084" lon="6.0911">
        <ele>1577.4</ele>
        <time>2024-08-09T10:15:28Z</time>
      </trkpt>
      <trkpt lat="45.08085" lon="6.09114">
        <ele>1577.6</ele>
        <time>2024-08-09T10:15:29Z</time>
      </trkpt>
      <trkpt lat="45.08085" lon="6.09114">
        <ele>1577.6</ele>
        <time>2024-08-09T10:15:30Z</time>
      </trkpt>
      <trkpt lat="45.08086" lon="6.09117">
        <ele>1577.8</ele>
        <time>2024-08-09T10:15:31Z</time>
      </trkpt>
      <trkpt lat="45.08086" lon="6.09117">
        <ele>1577.8</ele>
        <time>2024-08-09T10:15:32Z</time>
      </trkpt>
      <trkpt lat="45.08088" lon="6.09121">
        <ele>1577.8</ele>
        <time>2024-08-09T10:15:33Z</time>
      </trkpt>
      <trkpt lat="45.08088" lon="6.09121">
        <ele>1578</ele>
        <time>2024-08-09T10:15:34Z</time>
      </trkpt>
      <trkpt lat="45.08089" lon="6.09124">
        <ele>1578.6</ele>
        <time>2024-08-09T10:15:35Z</time>
      </trkpt>
      <trkpt lat="45.08089" lon="6.09124">
        <ele>1579</ele>
        <time>2024-08-09T10:15:36Z</time>
      </trkpt>
      <trkpt lat="45.08089" lon="6.09128">
        <ele>1579</ele>
        <time>2024-08-09T10:15:37Z</time>
      </trkpt>
      <trkpt lat="45.08089" lon="6.09128">
        <ele>1579</ele>
        <time>2024-08-09T10:15:38Z</time>
      </trkpt>
      <trkpt lat="45.0809" lon="6.09132">
        <ele>1579</ele>
        <time>2024-08-09T10:15:39Z</time>
      </trkpt>
      <trkpt lat="45.0809" lon="6.09132">
        <ele>1579</ele>
        <time>2024-08-09T10:15:40Z</time>
      </trkpt>
      <trkpt lat="45.08091" lon="6.09136">
        <ele>1579</ele>
        <time>2024-08-09T10:15:41Z</time>
      </trkpt>
      <trkpt lat="45.08091" lon="6.09136">
        <ele>1579.2</ele>
        <time>2024-08-09T10:15:42Z</time>
      </trkpt>
      <trkpt lat="45.08091" lon="6.09139">
        <ele>1579.2</ele>
        <time>2024-08-09T10:15:43Z</time>
      </trkpt>
      <trkpt lat="45.08091" lon="6.09139">
        <ele>1579</ele>
        <time>2024-08-09T10:15:44Z</time>
      </trkpt>
      <trkpt lat="45.0809" lon="6.09143">
        <ele>1579</ele>
        <time>2024-08-09T10:15:45Z</time>
      </trkpt>
      <trkpt lat="45.0809" lon="6.09143">
        <ele>1579.2</ele>
        <time>2024-08-09T10:15:46Z</time>
      </trkpt>
      <trkpt lat="45.08091" lon="6.09146">
        <ele>1579.4</ele>
        <time>2024-08-09T10:15:47Z</time>
      </trkpt>
      <trkpt lat="45.08091" lon="6.09146">
        <ele>1579.4</ele>
        <time>2024-08-09T10:15:48Z</time>
      </trkpt>
      <trkpt lat="45.08091" lon="6.0915">
        <ele>1579.4</ele>
        <time>2024-08-09T10:15:49Z</time>
      </trkpt>
      <trkpt lat="45.08091" lon="6.0915">
        <ele>1579.6</ele>
        <time>2024-08-09T10:15:50Z</time>
      </trkpt>
      <trkpt lat="45.0809" lon="6.09155">
        <ele>1579.6</ele>
        <time>2024-08-09T10:15:51Z</time>
      </trkpt>
      <trkpt lat="45.0809" lon="6.09155">
        <ele>1579.6</ele>
        <time>2024-08-09T10:15:52Z</time>
      </trkpt>
      <trkpt lat="45.08089" lon="6.09159">
        <ele>1579.8</ele>
        <time>2024-08-09T10:15:53Z</time>
      </trkpt>
      <trkpt lat="45.08089" lon="6.09159">
        <ele>1579.8</ele>
        <time>2024-08-09T10:15:54Z</time>
      </trkpt>
      <trkpt lat="45.0809" lon="6.09162">
        <ele>1579.8</ele>
        <time>2024-08-09T10:15:55Z</time>
      </trkpt>
      <trkpt lat="45.0809" lon="6.09162">
        <ele>1580</ele>
        <time>2024-08-09T10:15:56Z</time>
      </trkpt>
      <trkpt lat="45.0809" lon="6.09165">
        <ele>1580</ele>
        <time>2024-08-09T10:15:57Z</time>
      </trkpt>
      <trkpt lat="45.0809" lon="6.09165">
        <ele>1580</ele>
        <time>2024-08-09T10:15:58Z</time>
      </trkpt>
      <trkpt lat="45.08089" lon="6.09168">
        <ele>1579.8</ele>
        <time>2024-08-09T10:15:59Z</time>
      </trkpt>
      <trkpt lat="45.08089" lon="6.09168">
        <ele>1579.8</ele>
        <time>2024-08-09T10:16:00Z</time>
      </trkpt>
      <trkpt lat="45.08088" lon="6.09172">
        <ele>1579.8</ele>
        <time>2024-08-09T10:16:01Z</time>
      </trkpt>
      <trkpt lat="45.08088" lon="6.09172">
        <ele>1580</ele>
        <time>2024-08-09T10:16:02Z</time>
      </trkpt>
      <trkpt lat="45.08087" lon="6.09175">
        <ele>1580</ele>
        <time>2024-08-09T10:16:03Z</time>
      </trkpt>
      <trkpt lat="45.08087" lon="6.09175">
        <ele>1580</ele>
        <time>2024-08-09T10:16:04Z</time>
      </trkpt>
      <trkpt lat="45.08085" lon="6.09178">
        <ele>1580</ele>
        <time>2024-08-09T10:16:05Z</time>
      </trkpt>
      <trkpt lat="45.08085" lon="6.09178">
        <ele>1580</ele>
        <time>2024-08-09T10:16:06Z</time>
      </trkpt>
      <trkpt lat="45.08084" lon="6.09181">
        <ele>1580</ele>
        <time>2024-08-09T10:16:07Z</time>
      </trkpt>
      <trkpt lat="45.08084" lon="6.09181">
        <ele>1580</ele>
        <time>2024-08-09T10:16:08Z</time>
      </trkpt>
      <trkpt lat="45.08084" lon="6.09185">
        <ele>1580.2</ele>
        <time>2024-08-09T10:16:09Z</time>
      </trkpt>
      <trkpt lat="45.08084" lon="6.09185">
        <ele>1580.4</ele>
        <time>2024-08-09T10:16:10Z</time>
      </trkpt>
      <trkpt lat="45.08083" lon="6.09189">
        <ele>1580.4</ele>
        <time>2024-08-09T10:16:11Z</time>
      </trkpt>
      <trkpt lat="45.08083" lon="6.09189">
        <ele>1580.6</ele>
        <time>2024-08-09T10:16:12Z</time>
      </trkpt>
      <trkpt lat="45.08082" lon="6.09192">
        <ele>1580.8</ele>
        <time>2024-08-09T10:16:13Z</time>
      </trkpt>
      <trkpt lat="45.08082" lon="6.09192">
        <ele>1580.8</ele>
        <time>2024-08-09T10:16:14Z</time>
      </trkpt>
      <trkpt lat="45.08082" lon="6.09196">
        <ele>1581</ele>
        <time>2024-08-09T10:16:15Z</time>
      </trkpt>
      <trkpt lat="45.08083" lon="6.09198">
        <ele>1581</ele>
        <time>2024-08-09T10:16:16Z</time>
      </trkpt>
      <trkpt lat="45.08083" lon="6.09198">
        <ele>1581</ele>
        <time>2024-08-09T10:16:17Z</time>
      </trkpt>
      <trkpt lat="45.08085" lon="6.09201">
        <ele>1581</ele>
        <time>2024-08-09T10:16:18Z</time>
      </trkpt>
      <trkpt lat="45.08085" lon="6.09201">
        <ele>1581.4</ele>
        <time>2024-08-09T10:16:19Z</time>
      </trkpt>
      <trkpt lat="45.08085" lon="6.09205">
        <ele>1581.4</ele>
        <time>2024-08-09T10:16:20Z</time>
      </trkpt>
      <trkpt lat="45.08085" lon="6.09205">
        <ele>1581.4</ele>
        <time>2024-08-09T10:16:21Z</time>
      </trkpt>
      <trkpt lat="45.08085" lon="6.09208">
        <ele>1581.6</ele>
        <time>2024-08-09T10:16:22Z</time>
      </trkpt>
      <trkpt lat="45.08085" lon="6.09208">
        <ele>1581.6</ele>
        <time>2024-08-09T10:16:23Z</time>
      </trkpt>
      <trkpt lat="45.08086" lon="6.09212">
        <ele>1581.4</ele>
        <time>2024-08-09T10:16:24Z</time>
      </trkpt>
      <trkpt lat="45.08086" lon="6.09212">
        <ele>1581.4</ele>
        <time>2024-08-09T10:16:25Z</time>
      </trkpt>
      <trkpt lat="45.08086" lon="6.09215">
        <ele>1581.8</ele>
        <time>2024-08-09T10:16:26Z</time>
      </trkpt>
      <trkpt lat="45.08086" lon="6.09215">
        <ele>1581.8</ele>
        <time>2024-08-09T10:16:27Z</time>
      </trkpt>
      <trkpt lat="45.08086" lon="6.09219">
        <ele>1581.6</ele>
        <time>2024-08-09T10:16:28Z</time>
      </trkpt>
      <trkpt lat="45.08086" lon="6.09219">
        <ele>1581.6</ele>
        <time>2024-08-09T10:16:29Z</time>
      </trkpt>
      <trkpt lat="45.08087" lon="6.09222">
        <ele>1581.8</ele>
        <time>2024-08-09T10:16:30Z</time>
      </trkpt>
      <trkpt lat="45.08088" lon="6.09224">
        <ele>1582</ele>
        <time>2024-08-09T10:16:31Z</time>
      </trkpt>
      <trkpt lat="45.08088" lon="6.09224">
        <ele>1582</ele>
        <time>2024-08-09T10:16:32Z</time>
      </trkpt>
      <trkpt lat="45.0809" lon="6.09228">
        <ele>1582.2</ele>
        <time>2024-08-09T10:16:33Z</time>
      </trkpt>
      <trkpt lat="45.0809" lon="6.09228">
        <ele>1582.4</ele>
        <time>2024-08-09T10:16:34Z</time>
      </trkpt>
      <trkpt lat="45.0809" lon="6.09231">
        <ele>1582.6</ele>
        <time>2024-08-09T10:16:35Z</time>
      </trkpt>
      <trkpt lat="45.0809" lon="6.09231">
        <ele>1582.6</ele>
        <time>2024-08-09T10:16:36Z</time>
      </trkpt>
      <trkpt lat="45.08091" lon="6.09234">
        <ele>1582.8</ele>
        <time>2024-08-09T10:16:37Z</time>
      </trkpt>
      <trkpt lat="45.08091" lon="6.09234">
        <ele>1582.8</ele>
        <time>2024-08-09T10:16:38Z</time>
      </trkpt>
      <trkpt lat="45.08091" lon="6.09237">
        <ele>1582.8</ele>
        <time>2024-08-09T10:16:39Z</time>
      </trkpt>
      <trkpt lat="45.08091" lon="6.09237">
        <ele>1582.8</ele>
        <time>2024-08-09T10:16:40Z</time>
      </trkpt>
      <trkpt lat="45.08091" lon="6.09241">
        <ele>1582.8</ele>
        <time>2024-08-09T10:16:41Z</time>
      </trkpt>
      <trkpt lat="45.08091" lon="6.09241">
        <ele>1583</ele>
        <time>2024-08-09T10:16:42Z</time>
      </trkpt>
      <trkpt lat="45.08093" lon="6.09245">
        <ele>1583.2</ele>
        <time>2024-08-09T10:16:43Z</time>
      </trkpt>
      <trkpt lat="45.08093" lon="6.09245">
        <ele>1583.4</ele>
        <time>2024-08-09T10:16:44Z</time>
      </trkpt>
      <trkpt lat="45.08093" lon="6.09248">
        <ele>1583.4</ele>
        <time>2024-08-09T10:16:45Z</time>
      </trkpt>
      <trkpt lat="45.08093" lon="6.09248">
        <ele>1583.4</ele>
        <time>2024-08-09T10:16:46Z</time>
      </trkpt>
      <trkpt lat="45.08094" lon="6.09252">
        <ele>1583.6</ele>
        <time>2024-08-09T10:16:47Z</time>
      </trkpt>
      <trkpt lat="45.08094" lon="6.09252">
        <ele>1583.6</ele>
        <time>2024-08-09T10:16:48Z</time>
      </trkpt>
      <trkpt lat="45.08094" lon="6.09256">
        <ele>1584</ele>
        <time>2024-08-09T10:16:49Z</time>
      </trkpt>
      <trkpt lat="45.08094" lon="6.09256">
        <ele>1584.2</ele>
        <time>2024-08-09T10:16:50Z</time>
      </trkpt>
      <trkpt lat="45.08094" lon="6.0926">
        <ele>1584.8</ele>
        <time>2024-08-09T10:16:51Z</time>
      </trkpt>
      <trkpt lat="45.08094" lon="6.0926">
        <ele>1584.8</ele>
        <time>2024-08-09T10:16:52Z</time>
      </trkpt>
      <trkpt lat="45.08094" lon="6.09263">
        <ele>1584.8</ele>
        <time>2024-08-09T10:16:53Z</time>
      </trkpt>
      <trkpt lat="45.08094" lon="6.09263">
        <ele>1584.6</ele>
        <time>2024-08-09T10:16:54Z</time>
      </trkpt>
      <trkpt lat="45.08094" lon="6.09267">
        <ele>1584.6</ele>
        <time>2024-08-09T10:16:55Z</time>
      </trkpt>
      <trkpt lat="45.08094" lon="6.09267">
        <ele>1584.6</ele>
        <time>2024-08-09T10:16:56Z</time>
      </trkpt>
      <trkpt lat="45.08095" lon="6.0927">
        <ele>1584.6</ele>
        <time>2024-08-09T10:16:57Z</time>
      </trkpt>
      <trkpt lat="45.08095" lon="6.0927">
        <ele>1585</ele>
        <time>2024-08-09T10:16:58Z</time>
      </trkpt>
      <trkpt lat="45.08094" lon="6.09274">
        <ele>1585</ele>
        <time>2024-08-09T10:16:59Z</time>
      </trkpt>
      <trkpt lat="45.08094" lon="6.09274">
        <ele>1585.2</ele>
        <time>2024-08-09T10:17:00Z</time>
      </trkpt>
      <trkpt lat="45.08094" lon="6.09277">
        <ele>1585.2</ele>
        <time>2024-08-09T10:17:01Z</time>
      </trkpt>
      <trkpt lat="45.08094" lon="6.09277">
        <ele>1585.4</ele>
        <time>2024-08-09T10:17:02Z</time>
      </trkpt>
      <trkpt lat="45.08094" lon="6.09281">
        <ele>1585.4</ele>
        <time>2024-08-09T10:17:03Z</time>
      </trkpt>
      <trkpt lat="45.08094" lon="6.09281">
        <ele>1585.4</ele>
        <time>2024-08-09T10:17:04Z</time>
      </trkpt>
      <trkpt lat="45.08094" lon="6.09285">
        <ele>1585.8</ele>
        <time>2024-08-09T10:17:05Z</time>
      </trkpt>
      <trkpt lat="45.08094" lon="6.09285">
        <ele>1586</ele>
        <time>2024-08-09T10:17:06Z</time>
      </trkpt>
      <trkpt lat="45.08093" lon="6.09288">
        <ele>1586</ele>
        <time>2024-08-09T10:17:07Z</time>
      </trkpt>
      <trkpt lat="45.08093" lon="6.09288">
        <ele>1586</ele>
        <time>2024-08-09T10:17:08Z</time>
      </trkpt>
      <trkpt lat="45.08093" lon="6.09292">
        <ele>1586</ele>
        <time>2024-08-09T10:17:09Z</time>
      </trkpt>
      <trkpt lat="45.08093" lon="6.09292">
        <ele>1586</ele>
        <time>2024-08-09T10:17:10Z</time>
      </trkpt>
      <trkpt lat="45.08093" lon="6.09295">
        <ele>1586.2</ele>
        <time>2024-08-09T10:17:11Z</time>
      </trkpt>
      <trkpt lat="45.08093" lon="6.09295">
        <ele>1586.2</ele>
        <time>2024-08-09T10:17:12Z</time>
      </trkpt>
      <trkpt lat="45.08092" lon="6.09298">
        <ele>1586.4</ele>
        <time>2024-08-09T10:17:13Z</time>
      </trkpt>
      <trkpt lat="45.08092" lon="6.09298">
        <ele>1586.6</ele>
        <time>2024-08-09T10:17:14Z</time>
      </trkpt>
      <trkpt lat="45.08091" lon="6.09302">
        <ele>1586.6</ele>
        <time>2024-08-09T10:17:15Z</time>
      </trkpt>
      <trkpt lat="45.08091" lon="6.09302">
        <ele>1586.6</ele>
        <time>2024-08-09T10:17:16Z</time>
      </trkpt>
      <trkpt lat="45.08092" lon="6.09306">
        <ele>1586.8</ele>
        <time>2024-08-09T10:17:17Z</time>
      </trkpt>
      <trkpt lat="45.08092" lon="6.09306">
        <ele>1586.8</ele>
        <time>2024-08-09T10:17:18Z</time>
      </trkpt>
      <trkpt lat="45.08092" lon="6.09309">
        <ele>1587.2</ele>
        <time>2024-08-09T10:17:19Z</time>
      </trkpt>
      <trkpt lat="45.08092" lon="6.09309">
        <ele>1587.2</ele>
        <time>2024-08-09T10:17:20Z</time>
      </trkpt>
      <trkpt lat="45.08092" lon="6.09312">
        <ele>1587.2</ele>
        <time>2024-08-09T10:17:21Z</time>
      </trkpt>
      <trkpt lat="45.08092" lon="6.09312">
        <ele>1587</ele>
        <time>2024-08-09T10:17:22Z</time>
      </trkpt>
      <trkpt lat="45.08092" lon="6.09317">
        <ele>1587</ele>
        <time>2024-08-09T10:17:23Z</time>
      </trkpt>
      <trkpt lat="45.08092" lon="6.09317">
        <ele>1587</ele>
        <time>2024-08-09T10:17:24Z</time>
      </trkpt>
      <trkpt lat="45.08093" lon="6.09319">
        <ele>1587</ele>
        <time>2024-08-09T10:17:25Z</time>
      </trkpt>
      <trkpt lat="45.08093" lon="6.09319">
        <ele>1586.8</ele>
        <time>2024-08-09T10:17:26Z</time>
      </trkpt>
      <trkpt lat="45.08093" lon="6.09322">
        <ele>1586.8</ele>
        <time>2024-08-09T10:17:27Z</time>
      </trkpt>
      <trkpt lat="45.08093" lon="6.09322">
        <ele>1587</ele>
        <time>2024-08-09T10:17:28Z</time>
      </trkpt>
      <trkpt lat="45.08092" lon="6.09325">
        <ele>1587</ele>
        <time>2024-08-09T10:17:29Z</time>
      </trkpt>
      <trkpt lat="45.08092" lon="6.09325">
        <ele>1587.2</ele>
        <time>2024-08-09T10:17:30Z</time>
      </trkpt>
      <trkpt lat="45.08092" lon="6.09328">
        <ele>1587.2</ele>
        <time>2024-08-09T10:17:31Z</time>
      </trkpt>
      <trkpt lat="45.08092" lon="6.09328">
        <ele>1587.4</ele>
        <time>2024-08-09T10:17:32Z</time>
      </trkpt>
      <trkpt lat="45.08092" lon="6.09331">
        <ele>1587.4</ele>
        <time>2024-08-09T10:17:33Z</time>
      </trkpt>
      <trkpt lat="45.08092" lon="6.09331">
        <ele>1587.2</ele>
        <time>2024-08-09T10:17:34Z</time>
      </trkpt>
      <trkpt lat="45.08091" lon="6.09335">
        <ele>1587</ele>
        <time>2024-08-09T10:17:35Z</time>
      </trkpt>
      <trkpt lat="45.08091" lon="6.09335">
        <ele>1587</ele>
        <time>2024-08-09T10:17:36Z</time>
      </trkpt>
      <trkpt lat="45.08091" lon="6.09339">
        <ele>1586.8</ele>
        <time>2024-08-09T10:17:37Z</time>
      </trkpt>
      <trkpt lat="45.08091" lon="6.09339">
        <ele>1586.8</ele>
        <time>2024-08-09T10:17:38Z</time>
      </trkpt>
      <trkpt lat="45.08091" lon="6.09342">
        <ele>1586.8</ele>
        <time>2024-08-09T10:17:39Z</time>
      </trkpt>
      <trkpt lat="45.08091" lon="6.09342">
        <ele>1587.2</ele>
        <time>2024-08-09T10:17:40Z</time>
      </trkpt>
      <trkpt lat="45.0809" lon="6.09345">
        <ele>1587.2</ele>
        <time>2024-08-09T10:17:41Z</time>
      </trkpt>
      <trkpt lat="45.0809" lon="6.09345">
        <ele>1587.2</ele>
        <time>2024-08-09T10:17:42Z</time>
      </trkpt>
      <trkpt lat="45.08088" lon="6.09347">
        <ele>1587.2</ele>
        <time>2024-08-09T10:17:43Z</time>
      </trkpt>
      <trkpt lat="45.08088" lon="6.09347">
        <ele>1587.4</ele>
        <time>2024-08-09T10:17:44Z</time>
      </trkpt>
      <trkpt lat="45.08088" lon="6.09351">
        <ele>1587.6</ele>
        <time>2024-08-09T10:17:45Z</time>
      </trkpt>
      <trkpt lat="45.08087" lon="6.09353">
        <ele>1588</ele>
        <time>2024-08-09T10:17:46Z</time>
      </trkpt>
      <trkpt lat="45.08086" lon="6.09355">
        <ele>1588</ele>
        <time>2024-08-09T10:17:47Z</time>
      </trkpt>
      <trkpt lat="45.08085" lon="6.09357">
        <ele>1588</ele>
        <time>2024-08-09T10:17:48Z</time>
      </trkpt>
      <trkpt lat="45.08085" lon="6.09359">
        <ele>1587.6</ele>
        <time>2024-08-09T10:17:49Z</time>
      </trkpt>
      <trkpt lat="45.08085" lon="6.09359">
        <ele>1587.6</ele>
        <time>2024-08-09T10:17:50Z</time>
      </trkpt>
      <trkpt lat="45.08085" lon="6.09359">
        <ele>1587.6</ele>
        <time>2024-08-09T10:17:51Z</time>
      </trkpt>
      <trkpt lat="45.08083" lon="6.09363">
        <ele>1587.6</ele>
        <time>2024-08-09T10:17:52Z</time>
      </trkpt>
      <trkpt lat="45.08083" lon="6.09363">
        <ele>1587.8</ele>
        <time>2024-08-09T10:17:53Z</time>
      </trkpt>
      <trkpt lat="45.08083" lon="6.09366">
        <ele>1588</ele>
        <time>2024-08-09T10:17:54Z</time>
      </trkpt>
      <trkpt lat="45.08083" lon="6.09366">
        <ele>1588.2</ele>
        <time>2024-08-09T10:17:55Z</time>
      </trkpt>
      <trkpt lat="45.08082" lon="6.09369">
        <ele>1588</ele>
        <time>2024-08-09T10:17:56Z</time>
      </trkpt>
      <trkpt lat="45.08082" lon="6.09369">
        <ele>1588</ele>
        <time>2024-08-09T10:17:57Z</time>
      </trkpt>
      <trkpt lat="45.08082" lon="6.09372">
        <ele>1588</ele>
        <time>2024-08-09T10:17:58Z</time>
      </trkpt>
      <trkpt lat="45.08082" lon="6.09372">
        <ele>1588</ele>
        <time>2024-08-09T10:17:59Z</time>
      </trkpt>
      <trkpt lat="45.08083" lon="6.09376">
        <ele>1588</ele>
        <time>2024-08-09T10:18:00Z</time>
      </trkpt>
      <trkpt lat="45.08083" lon="6.09376">
        <ele>1588</ele>
        <time>2024-08-09T10:18:01Z</time>
      </trkpt>
      <trkpt lat="45.08083" lon="6.09378">
        <ele>1588.2</ele>
        <time>2024-08-09T10:18:02Z</time>
      </trkpt>
      <trkpt lat="45.08083" lon="6.09378">
        <ele>1588.4</ele>
        <time>2024-08-09T10:18:03Z</time>
      </trkpt>
      <trkpt lat="45.08084" lon="6.09381">
        <ele>1588.6</ele>
        <time>2024-08-09T10:18:04Z</time>
      </trkpt>
      <trkpt lat="45.08084" lon="6.09381">
        <ele>1588.8</ele>
        <time>2024-08-09T10:18:05Z</time>
      </trkpt>
      <trkpt lat="45.08085" lon="6.09383">
        <ele>1589</ele>
        <time>2024-08-09T10:18:06Z</time>
      </trkpt>
      <trkpt lat="45.08085" lon="6.09383">
        <ele>1589</ele>
        <time>2024-08-09T10:18:07Z</time>
      </trkpt>
      <trkpt lat="45.08085" lon="6.09383">
        <ele>1589.2</ele>
        <time>2024-08-09T10:18:08Z</time>
      </trkpt>
      <trkpt lat="45.08086" lon="6.09387">
        <ele>1589.2</ele>
        <time>2024-08-09T10:18:09Z</time>
      </trkpt>
      <trkpt lat="45.08086" lon="6.09387">
        <ele>1589.2</ele>
        <time>2024-08-09T10:18:10Z</time>
      </trkpt>
      <trkpt lat="45.08089" lon="6.0939">
        <ele>1589.2</ele>
        <time>2024-08-09T10:18:11Z</time>
      </trkpt>
      <trkpt lat="45.08089" lon="6.0939">
        <ele>1589.6</ele>
        <time>2024-08-09T10:18:12Z</time>
      </trkpt>
      <trkpt lat="45.08089" lon="6.0939">
        <ele>1589.6</ele>
        <time>2024-08-09T10:18:13Z</time>
      </trkpt>
      <trkpt lat="45.08091" lon="6.09391">
        <ele>1589.8</ele>
        <time>2024-08-09T10:18:14Z</time>
      </trkpt>
      <trkpt lat="45.08091" lon="6.09391">
        <ele>1589.8</ele>
        <time>2024-08-09T10:18:15Z</time>
      </trkpt>
      <trkpt lat="45.08091" lon="6.09391">
        <ele>1589.8</ele>
        <time>2024-08-09T10:18:16Z</time>
      </trkpt>
      <trkpt lat="45.08091" lon="6.09391">
        <ele>1589.8</ele>
        <time>2024-08-09T10:18:17Z</time>
      </trkpt>
      <trkpt lat="45.08091" lon="6.09391">
        <ele>1590</ele>
        <time>2024-08-09T10:18:18Z</time>
      </trkpt>
      <trkpt lat="45.08091" lon="6.09391">
        <ele>1590</ele>
        <time>2024-08-09T10:18:19Z</time>
      </trkpt>
      <trkpt lat="45.08091" lon="6.09391">
        <ele>1590</ele>
        <time>2024-08-09T10:18:20Z</time>
      </trkpt>
      <trkpt lat="45.08091" lon="6.09391">
        <ele>1590</ele>
        <time>2024-08-09T10:18:21Z</time>
      </trkpt>
      <trkpt lat="45.08091" lon="6.09391">
        <ele>1590</ele>
        <time>2024-08-09T10:18:22Z</time>
      </trkpt>
      <trkpt lat="45.08091" lon="6.09391">
        <ele>1590</ele>
        <time>2024-08-09T10:18:23Z</time>
      </trkpt>
      <trkpt lat="45.08091" lon="6.09391">
        <ele>1590</ele>
        <time>2024-08-09T10:18:24Z</time>
      </trkpt>
      <trkpt lat="45.08091" lon="6.09391">
        <ele>1590</ele>
        <time>2024-08-09T10:18:25Z</time>
      </trkpt>
      <trkpt lat="45.08091" lon="6.09391">
        <ele>1590.2</ele>
        <time>2024-08-09T10:18:26Z</time>
      </trkpt>
      <trkpt lat="45.08091" lon="6.09391">
        <ele>1590.2</ele>
        <time>2024-08-09T10:18:27Z</time>
      </trkpt>
      <trkpt lat="45.08091" lon="6.09391">
        <ele>1590.2</ele>
        <time>2024-08-09T10:18:28Z</time>
      </trkpt>
      <trkpt lat="45.08091" lon="6.09391">
        <ele>1590</ele>
        <time>2024-08-09T10:18:29Z</time>
      </trkpt>
      <trkpt lat="45.08091" lon="6.09391">
        <ele>1590</ele>
        <time>2024-08-09T10:18:30Z</time>
      </trkpt>
      <trkpt lat="45.08091" lon="6.09391">
        <ele>1590.2</ele>
        <time>2024-08-09T10:18:31Z</time>
      </trkpt>
      <trkpt lat="45.08091" lon="6.09391">
        <ele>1590.2</ele>
        <time>2024-08-09T10:18:32Z</time>
      </trkpt>
      <trkpt lat="45.08091" lon="6.09391">
        <ele>1590</ele>
        <time>2024-08-09T10:18:33Z</time>
      </trkpt>
      <trkpt lat="45.08091" lon="6.09391">
        <ele>1590</ele>
        <time>2024-08-09T10:18:34Z</time>
      </trkpt>
      <trkpt lat="45.08091" lon="6.09391">
        <ele>1590</ele>
        <time>2024-08-09T10:18:35Z</time>
      </trkpt>
      <trkpt lat="45.08091" lon="6.09391">
        <ele>1589.8</ele>
        <time>2024-08-09T10:18:36Z</time>
      </trkpt>
      <trkpt lat="45.08091" lon="6.09391">
        <ele>1589.8</ele>
        <time>2024-08-09T10:18:37Z</time>
      </trkpt>
      <trkpt lat="45.08091" lon="6.09391">
        <ele>1590</ele>
        <time>2024-08-09T10:18:38Z</time>
      </trkpt>
      <trkpt lat="45.0809" lon="6.09394">
        <ele>1590</ele>
        <time>2024-08-09T10:18:39Z</time>
      </trkpt>
      <trkpt lat="45.08089" lon="6.09396">
        <ele>1590.2</ele>
        <time>2024-08-09T10:18:40Z</time>
      </trkpt>
      <trkpt lat="45.0809" lon="6.094">
        <ele>1590.2</ele>
        <time>2024-08-09T10:18:41Z</time>
      </trkpt>
      <trkpt lat="45.08091" lon="6.09403">
        <ele>1590.2</ele>
        <time>2024-08-09T10:18:42Z</time>
      </trkpt>
      <trkpt lat="45.08091" lon="6.09406">
        <ele>1590.2</ele>
        <time>2024-08-09T10:18:43Z</time>
      </trkpt>
      <trkpt lat="45.08092" lon="6.09409">
        <ele>1590.2</ele>
        <time>2024-08-09T10:18:44Z</time>
      </trkpt>
      <trkpt lat="45.08092" lon="6.09409">
        <ele>1590.2</ele>
        <time>2024-08-09T10:18:45Z</time>
      </trkpt>
      <trkpt lat="45.08092" lon="6.09413">
        <ele>1590.2</ele>
        <time>2024-08-09T10:18:46Z</time>
      </trkpt>
      <trkpt lat="45.08092" lon="6.09413">
        <ele>1590.4</ele>
        <time>2024-08-09T10:18:47Z</time>
      </trkpt>
      <trkpt lat="45.08093" lon="6.09416">
        <ele>1590.6</ele>
        <time>2024-08-09T10:18:48Z</time>
      </trkpt>
      <trkpt lat="45.08093" lon="6.09416">
        <ele>1590.6</ele>
        <time>2024-08-09T10:18:49Z</time>
      </trkpt>
      <trkpt lat="45.08094" lon="6.0942">
        <ele>1590.8</ele>
        <time>2024-08-09T10:18:50Z</time>
      </trkpt>
      <trkpt lat="45.08094" lon="6.0942">
        <ele>1590.8</ele>
        <time>2024-08-09T10:18:51Z</time>
      </trkpt>
      <trkpt lat="45.08095" lon="6.09423">
        <ele>1591</ele>
        <time>2024-08-09T10:18:52Z</time>
      </trkpt>
      <trkpt lat="45.08095" lon="6.09423">
        <ele>1591.2</ele>
        <time>2024-08-09T10:18:53Z</time>
      </trkpt>
      <trkpt lat="45.08096" lon="6.09427">
        <ele>1591.2</ele>
        <time>2024-08-09T10:18:54Z</time>
      </trkpt>
      <trkpt lat="45.08096" lon="6.09427">
        <ele>1591.2</ele>
        <time>2024-08-09T10:18:55Z</time>
      </trkpt>
      <trkpt lat="45.08096" lon="6.09431">
        <ele>1591.2</ele>
        <time>2024-08-09T10:18:56Z</time>
      </trkpt>
      <trkpt lat="45.08096" lon="6.09431">
        <ele>1591.2</ele>
        <time>2024-08-09T10:18:57Z</time>
      </trkpt>
      <trkpt lat="45.08097" lon="6.09434">
        <ele>1591.2</ele>
        <time>2024-08-09T10:18:58Z</time>
      </trkpt>
      <trkpt lat="45.08097" lon="6.09434">
        <ele>1591.4</ele>
        <time>2024-08-09T10:18:59Z</time>
      </trkpt>
      <trkpt lat="45.08096" lon="6.09438">
        <ele>1591.8</ele>
        <time>2024-08-09T10:19:00Z</time>
      </trkpt>
      <trkpt lat="45.08096" lon="6.09438">
        <ele>1591.8</ele>
        <time>2024-08-09T10:19:01Z</time>
      </trkpt>
      <trkpt lat="45.08096" lon="6.09442">
        <ele>1591.4</ele>
        <time>2024-08-09T10:19:02Z</time>
      </trkpt>
      <trkpt lat="45.08096" lon="6.09442">
        <ele>1591.4</ele>
        <time>2024-08-09T10:19:03Z</time>
      </trkpt>
      <trkpt lat="45.08096" lon="6.09442">
        <ele>1591.4</ele>
        <time>2024-08-09T10:19:04Z</time>
      </trkpt>
      <trkpt lat="45.08097" lon="6.09446">
        <ele>1591.4</ele>
        <time>2024-08-09T10:19:05Z</time>
      </trkpt>
      <trkpt lat="45.08097" lon="6.09446">
        <ele>1591.6</ele>
        <time>2024-08-09T10:19:06Z</time>
      </trkpt>
      <trkpt lat="45.08097" lon="6.09449">
        <ele>1592</ele>
        <time>2024-08-09T10:19:07Z</time>
      </trkpt>
      <trkpt lat="45.08097" lon="6.09449">
        <ele>1592.2</ele>
        <time>2024-08-09T10:19:08Z</time>
      </trkpt>
      <trkpt lat="45.08096" lon="6.09451">
        <ele>1592.4</ele>
        <time>2024-08-09T10:19:09Z</time>
      </trkpt>
      <trkpt lat="45.08096" lon="6.09451">
        <ele>1592.8</ele>
        <time>2024-08-09T10:19:10Z</time>
      </trkpt>
      <trkpt lat="45.08098" lon="6.09455">
        <ele>1593</ele>
        <time>2024-08-09T10:19:11Z</time>
      </trkpt>
      <trkpt lat="45.08098" lon="6.09455">
        <ele>1593</ele>
        <time>2024-08-09T10:19:12Z</time>
      </trkpt>
      <trkpt lat="45.08098" lon="6.09458">
        <ele>1593</ele>
        <time>2024-08-09T10:19:13Z</time>
      </trkpt>
      <trkpt lat="45.08098" lon="6.09458">
        <ele>1593</ele>
        <time>2024-08-09T10:19:14Z</time>
      </trkpt>
      <trkpt lat="45.08098" lon="6.09462">
        <ele>1593.2</ele>
        <time>2024-08-09T10:19:15Z</time>
      </trkpt>
      <trkpt lat="45.08098" lon="6.09462">
        <ele>1593.4</ele>
        <time>2024-08-09T10:19:16Z</time>
      </trkpt>
      <trkpt lat="45.08097" lon="6.09466">
        <ele>1593.6</ele>
        <time>2024-08-09T10:19:17Z</time>
      </trkpt>
      <trkpt lat="45.08097" lon="6.09466">
        <ele>1593.8</ele>
        <time>2024-08-09T10:19:18Z</time>
      </trkpt>
      <trkpt lat="45.08097" lon="6.0947">
        <ele>1593.8</ele>
        <time>2024-08-09T10:19:19Z</time>
      </trkpt>
      <trkpt lat="45.08097" lon="6.0947">
        <ele>1593.8</ele>
        <time>2024-08-09T10:19:20Z</time>
      </trkpt>
      <trkpt lat="45.08097" lon="6.09473">
        <ele>1593.8</ele>
        <time>2024-08-09T10:19:21Z</time>
      </trkpt>
      <trkpt lat="45.08097" lon="6.09473">
        <ele>1593.8</ele>
        <time>2024-08-09T10:19:22Z</time>
      </trkpt>
      <trkpt lat="45.08099" lon="6.09477">
        <ele>1593.8</ele>
        <time>2024-08-09T10:19:23Z</time>
      </trkpt>
      <trkpt lat="45.08099" lon="6.09477">
        <ele>1594</ele>
        <time>2024-08-09T10:19:24Z</time>
      </trkpt>
      <trkpt lat="45.081" lon="6.0948">
        <ele>1594</ele>
        <time>2024-08-09T10:19:25Z</time>
      </trkpt>
      <trkpt lat="45.081" lon="6.0948">
        <ele>1594</ele>
        <time>2024-08-09T10:19:26Z</time>
      </trkpt>
      <trkpt lat="45.08104" lon="6.09483">
        <ele>1594</ele>
        <time>2024-08-09T10:19:27Z</time>
      </trkpt>
      <trkpt lat="45.08104" lon="6.09483">
        <ele>1594.2</ele>
        <time>2024-08-09T10:19:28Z</time>
      </trkpt>
      <trkpt lat="45.08106" lon="6.09486">
        <ele>1594.4</ele>
        <time>2024-08-09T10:19:29Z</time>
      </trkpt>
      <trkpt lat="45.08106" lon="6.09486">
        <ele>1594.4</ele>
        <time>2024-08-09T10:19:30Z</time>
      </trkpt>
      <trkpt lat="45.08108" lon="6.09488">
        <ele>1594.8</ele>
        <time>2024-08-09T10:19:31Z</time>
      </trkpt>
      <trkpt lat="45.08108" lon="6.09488">
        <ele>1594.8</ele>
        <time>2024-08-09T10:19:32Z</time>
      </trkpt>
      <trkpt lat="45.08111" lon="6.0949">
        <ele>1594.8</ele>
        <time>2024-08-09T10:19:33Z</time>
      </trkpt>
      <trkpt lat="45.08111" lon="6.0949">
        <ele>1595</ele>
        <time>2024-08-09T10:19:34Z</time>
      </trkpt>
      <trkpt lat="45.08113" lon="6.09493">
        <ele>1595.2</ele>
        <time>2024-08-09T10:19:35Z</time>
      </trkpt>
      <trkpt lat="45.08113" lon="6.09493">
        <ele>1595.2</ele>
        <time>2024-08-09T10:19:36Z</time>
      </trkpt>
      <trkpt lat="45.08115" lon="6.09495">
        <ele>1595.2</ele>
        <time>2024-08-09T10:19:37Z</time>
      </trkpt>
      <trkpt lat="45.08115" lon="6.09495">
        <ele>1595.2</ele>
        <time>2024-08-09T10:19:38Z</time>
      </trkpt>
      <trkpt lat="45.08117" lon="6.09497">
        <ele>1595.6</ele>
        <time>2024-08-09T10:19:39Z</time>
      </trkpt>
      <trkpt lat="45.08117" lon="6.09497">
        <ele>1595.6</ele>
        <time>2024-08-09T10:19:40Z</time>
      </trkpt>
      <trkpt lat="45.08119" lon="6.09498">
        <ele>1595.4</ele>
        <time>2024-08-09T10:19:41Z</time>
      </trkpt>
      <trkpt lat="45.08119" lon="6.09498">
        <ele>1595.4</ele>
        <time>2024-08-09T10:19:42Z</time>
      </trkpt>
      <trkpt lat="45.08122" lon="6.09499">
        <ele>1595.8</ele>
        <time>2024-08-09T10:19:43Z</time>
      </trkpt>
      <trkpt lat="45.08122" lon="6.09499">
        <ele>1596</ele>
        <time>2024-08-09T10:19:44Z</time>
      </trkpt>
      <trkpt lat="45.08124" lon="6.09501">
        <ele>1596</ele>
        <time>2024-08-09T10:19:45Z</time>
      </trkpt>
      <trkpt lat="45.08124" lon="6.09501">
        <ele>1596</ele>
        <time>2024-08-09T10:19:46Z</time>
      </trkpt>
      <trkpt lat="45.08124" lon="6.09501">
        <ele>1596</ele>
        <time>2024-08-09T10:19:47Z</time>
      </trkpt>
      <trkpt lat="45.08125" lon="6.09501">
        <ele>1596</ele>
        <time>2024-08-09T10:19:48Z</time>
      </trkpt>
      <trkpt lat="45.08125" lon="6.09501">
        <ele>1596</ele>
        <time>2024-08-09T10:19:49Z</time>
      </trkpt>
      <trkpt lat="45.08125" lon="6.09501">
        <ele>1596.4</ele>
        <time>2024-08-09T10:19:50Z</time>
      </trkpt>
      <trkpt lat="45.08125" lon="6.09501">
        <ele>1596.4</ele>
        <time>2024-08-09T10:19:51Z</time>
      </trkpt>
      <trkpt lat="45.08125" lon="6.09501">
        <ele>1596.6</ele>
        <time>2024-08-09T10:19:52Z</time>
      </trkpt>
      <trkpt lat="45.08125" lon="6.09501">
        <ele>1596.6</ele>
        <time>2024-08-09T10:19:53Z</time>
      </trkpt>
      <trkpt lat="45.08127" lon="6.09499">
        <ele>1596.8</ele>
        <time>2024-08-09T10:19:54Z</time>
      </trkpt>
      <trkpt lat="45.08127" lon="6.09499">
        <ele>1597.4</ele>
        <time>2024-08-09T10:19:55Z</time>
      </trkpt>
      <trkpt lat="45.08129" lon="6.095">
        <ele>1597.6</ele>
        <time>2024-08-09T10:19:56Z</time>
      </trkpt>
      <trkpt lat="45.08129" lon="6.095">
        <ele>1597.8</ele>
        <time>2024-08-09T10:19:57Z</time>
      </trkpt>
      <trkpt lat="45.08131" lon="6.09504">
        <ele>1598</ele>
        <time>2024-08-09T10:19:58Z</time>
      </trkpt>
      <trkpt lat="45.08131" lon="6.09504">
        <ele>1598.2</ele>
        <time>2024-08-09T10:19:59Z</time>
      </trkpt>
      <trkpt lat="45.08132" lon="6.09507">
        <ele>1598.2</ele>
        <time>2024-08-09T10:20:00Z</time>
      </trkpt>
      <trkpt lat="45.08132" lon="6.09507">
        <ele>1598.4</ele>
        <time>2024-08-09T10:20:01Z</time>
      </trkpt>
      <trkpt lat="45.08133" lon="6.09514">
        <ele>1598.6</ele>
        <time>2024-08-09T10:20:02Z</time>
      </trkpt>
      <trkpt lat="45.08134" lon="6.09515">
        <ele>1598.6</ele>
        <time>2024-08-09T10:20:03Z</time>
      </trkpt>
      <trkpt lat="45.08136" lon="6.0952">
        <ele>1598.8</ele>
        <time>2024-08-09T10:20:04Z</time>
      </trkpt>
      <trkpt lat="45.08138" lon="6.09523">
        <ele>1599</ele>
        <time>2024-08-09T10:20:05Z</time>
      </trkpt>
      <trkpt lat="45.08138" lon="6.09523">
        <ele>1599.2</ele>
        <time>2024-08-09T10:20:06Z</time>
      </trkpt>
      <trkpt lat="45.08139" lon="6.09526">
        <ele>1599.2</ele>
        <time>2024-08-09T10:20:07Z</time>
      </trkpt>
      <trkpt lat="45.08139" lon="6.09526">
        <ele>1599.4</ele>
        <time>2024-08-09T10:20:08Z</time>
      </trkpt>
      <trkpt lat="45.0814" lon="6.09528">
        <ele>1599.4</ele>
        <time>2024-08-09T10:20:09Z</time>
      </trkpt>
      <trkpt lat="45.0814" lon="6.09528">
        <ele>1599.6</ele>
        <time>2024-08-09T10:20:10Z</time>
      </trkpt>
      <trkpt lat="45.08142" lon="6.0953">
        <ele>1600</ele>
        <time>2024-08-09T10:20:11Z</time>
      </trkpt>
      <trkpt lat="45.08142" lon="6.0953">
        <ele>1600</ele>
        <time>2024-08-09T10:20:12Z</time>
      </trkpt>
      <trkpt lat="45.08142" lon="6.0953">
        <ele>1600</ele>
        <time>2024-08-09T10:20:13Z</time>
      </trkpt>
      <trkpt lat="45.08142" lon="6.0953">
        <ele>1600</ele>
        <time>2024-08-09T10:20:14Z</time>
      </trkpt>
      <trkpt lat="45.08142" lon="6.0953">
        <ele>1600</ele>
        <time>2024-08-09T10:20:15Z</time>
      </trkpt>
      <trkpt lat="45.08142" lon="6.0953">
        <ele>1600.2</ele>
        <time>2024-08-09T10:20:16Z</time>
      </trkpt>
      <trkpt lat="45.08142" lon="6.0953">
        <ele>1600.4</ele>
        <time>2024-08-09T10:20:17Z</time>
      </trkpt>
      <trkpt lat="45.08142" lon="6.0953">
        <ele>1600.4</ele>
        <time>2024-08-09T10:20:18Z</time>
      </trkpt>
      <trkpt lat="45.08143" lon="6.09532">
        <ele>1600.4</ele>
        <time>2024-08-09T10:20:19Z</time>
      </trkpt>
      <trkpt lat="45.08143" lon="6.09532">
        <ele>1600.2</ele>
        <time>2024-08-09T10:20:20Z</time>
      </trkpt>
      <trkpt lat="45.08144" lon="6.09536">
        <ele>1600.2</ele>
        <time>2024-08-09T10:20:21Z</time>
      </trkpt>
      <trkpt lat="45.08144" lon="6.09536">
        <ele>1600.2</ele>
        <time>2024-08-09T10:20:22Z</time>
      </trkpt>
      <trkpt lat="45.08144" lon="6.09539">
        <ele>1600.4</ele>
        <time>2024-08-09T10:20:23Z</time>
      </trkpt>
      <trkpt lat="45.08144" lon="6.09539">
        <ele>1600.4</ele>
        <time>2024-08-09T10:20:24Z</time>
      </trkpt>
      <trkpt lat="45.08145" lon="6.09542">
        <ele>1600.4</ele>
        <time>2024-08-09T10:20:25Z</time>
      </trkpt>
      <trkpt lat="45.08145" lon="6.09542">
        <ele>1600.4</ele>
        <time>2024-08-09T10:20:26Z</time>
      </trkpt>
      <trkpt lat="45.08145" lon="6.09542">
        <ele>1600.4</ele>
        <time>2024-08-09T10:20:27Z</time>
      </trkpt>
      <trkpt lat="45.08146" lon="6.09546">
        <ele>1600.8</ele>
        <time>2024-08-09T10:20:28Z</time>
      </trkpt>
      <trkpt lat="45.08146" lon="6.09546">
        <ele>1600.8</ele>
        <time>2024-08-09T10:20:29Z</time>
      </trkpt>
      <trkpt lat="45.08146" lon="6.0955">
        <ele>1600.8</ele>
        <time>2024-08-09T10:20:30Z</time>
      </trkpt>
      <trkpt lat="45.08146" lon="6.0955">
        <ele>1600.8</ele>
        <time>2024-08-09T10:20:31Z</time>
      </trkpt>
      <trkpt lat="45.08146" lon="6.09553">
        <ele>1601</ele>
        <time>2024-08-09T10:20:32Z</time>
      </trkpt>
      <trkpt lat="45.08146" lon="6.09553">
        <ele>1601</ele>
        <time>2024-08-09T10:20:33Z</time>
      </trkpt>
      <trkpt lat="45.08146" lon="6.09553">
        <ele>1601</ele>
        <time>2024-08-09T10:20:34Z</time>
      </trkpt>
      <trkpt lat="45.08146" lon="6.09553">
        <ele>1601.2</ele>
        <time>2024-08-09T10:20:35Z</time>
      </trkpt>
      <trkpt lat="45.08146" lon="6.09553">
        <ele>1601.2</ele>
        <time>2024-08-09T10:20:36Z</time>
      </trkpt>
      <trkpt lat="45.08146" lon="6.09553">
        <ele>1601.2</ele>
        <time>2024-08-09T10:20:37Z</time>
      </trkpt>
      <trkpt lat="45.08146" lon="6.09553">
        <ele>1601</ele>
        <time>2024-08-09T10:20:38Z</time>
      </trkpt>
      <trkpt lat="45.08146" lon="6.09553">
        <ele>1601</ele>
        <time>2024-08-09T10:20:39Z</time>
      </trkpt>
      <trkpt lat="45.08146" lon="6.09553">
        <ele>1601</ele>
        <time>2024-08-09T10:20:40Z</time>
      </trkpt>
      <trkpt lat="45.08146" lon="6.09553">
        <ele>1601</ele>
        <time>2024-08-09T10:20:41Z</time>
      </trkpt>
      <trkpt lat="45.08147" lon="6.09556">
        <ele>1601.2</ele>
        <time>2024-08-09T10:20:42Z</time>
      </trkpt>
      <trkpt lat="45.08147" lon="6.09556">
        <ele>1601.2</ele>
        <time>2024-08-09T10:20:43Z</time>
      </trkpt>
      <trkpt lat="45.08146" lon="6.0956">
        <ele>1601.2</ele>
        <time>2024-08-09T10:20:44Z</time>
      </trkpt>
      <trkpt lat="45.08146" lon="6.0956">
        <ele>1601.2</ele>
        <time>2024-08-09T10:20:45Z</time>
      </trkpt>
      <trkpt lat="45.08147" lon="6.09564">
        <ele>1601.6</ele>
        <time>2024-08-09T10:20:46Z</time>
      </trkpt>
      <trkpt lat="45.08147" lon="6.09564">
        <ele>1601.6</ele>
        <time>2024-08-09T10:20:47Z</time>
      </trkpt>
      <trkpt lat="45.08146" lon="6.09568">
        <ele>1601.8</ele>
        <time>2024-08-09T10:20:48Z</time>
      </trkpt>
      <trkpt lat="45.08146" lon="6.09568">
        <ele>1601.8</ele>
        <time>2024-08-09T10:20:49Z</time>
      </trkpt>
      <trkpt lat="45.08146" lon="6.09572">
        <ele>1602</ele>
        <time>2024-08-09T10:20:50Z</time>
      </trkpt>
      <trkpt lat="45.08146" lon="6.09572">
        <ele>1602</ele>
        <time>2024-08-09T10:20:51Z</time>
      </trkpt>
      <trkpt lat="45.08145" lon="6.09576">
        <ele>1602</ele>
        <time>2024-08-09T10:20:52Z</time>
      </trkpt>
      <trkpt lat="45.08145" lon="6.09576">
        <ele>1602</ele>
        <time>2024-08-09T10:20:53Z</time>
      </trkpt>
      <trkpt lat="45.08142" lon="6.09579">
        <ele>1601.8</ele>
        <time>2024-08-09T10:20:54Z</time>
      </trkpt>
      <trkpt lat="45.08141" lon="6.09581">
        <ele>1601.8</ele>
        <time>2024-08-09T10:20:55Z</time>
      </trkpt>
      <trkpt lat="45.08141" lon="6.09581">
        <ele>1601.6</ele>
        <time>2024-08-09T10:20:56Z</time>
      </trkpt>
      <trkpt lat="45.0814" lon="6.09584">
        <ele>1601.6</ele>
        <time>2024-08-09T10:20:57Z</time>
      </trkpt>
      <trkpt lat="45.0814" lon="6.09584">
        <ele>1601.2</ele>
        <time>2024-08-09T10:20:58Z</time>
      </trkpt>
      <trkpt lat="45.08138" lon="6.09587">
        <ele>1601</ele>
        <time>2024-08-09T10:20:59Z</time>
      </trkpt>
      <trkpt lat="45.08138" lon="6.09587">
        <ele>1601</ele>
        <time>2024-08-09T10:21:00Z</time>
      </trkpt>
      <trkpt lat="45.08136" lon="6.0959">
        <ele>1601.2</ele>
        <time>2024-08-09T10:21:01Z</time>
      </trkpt>
      <trkpt lat="45.08136" lon="6.0959">
        <ele>1601.4</ele>
        <time>2024-08-09T10:21:02Z</time>
      </trkpt>
      <trkpt lat="45.08135" lon="6.09593">
        <ele>1601.4</ele>
        <time>2024-08-09T10:21:03Z</time>
      </trkpt>
      <trkpt lat="45.08135" lon="6.09593">
        <ele>1601</ele>
        <time>2024-08-09T10:21:04Z</time>
      </trkpt>
      <trkpt lat="45.08134" lon="6.09596">
        <ele>1601</ele>
        <time>2024-08-09T10:21:05Z</time>
      </trkpt>
      <trkpt lat="45.08134" lon="6.09596">
        <ele>1601</ele>
        <time>2024-08-09T10:21:06Z</time>
      </trkpt>
      <trkpt lat="45.08134" lon="6.09599">
        <ele>1601.2</ele>
        <time>2024-08-09T10:21:07Z</time>
      </trkpt>
      <trkpt lat="45.08134" lon="6.09599">
        <ele>1601.2</ele>
        <time>2024-08-09T10:21:08Z</time>
      </trkpt>
      <trkpt lat="45.08134" lon="6.09603">
        <ele>1601.4</ele>
        <time>2024-08-09T10:21:09Z</time>
      </trkpt>
      <trkpt lat="45.08134" lon="6.09603">
        <ele>1601.4</ele>
        <time>2024-08-09T10:21:10Z</time>
      </trkpt>
      <trkpt lat="45.08135" lon="6.09606">
        <ele>1601.6</ele>
        <time>2024-08-09T10:21:11Z</time>
      </trkpt>
      <trkpt lat="45.08135" lon="6.09606">
        <ele>1601.8</ele>
        <time>2024-08-09T10:21:12Z</time>
      </trkpt>
      <trkpt lat="45.08135" lon="6.0961">
        <ele>1601.8</ele>
        <time>2024-08-09T10:21:13Z</time>
      </trkpt>
      <trkpt lat="45.08135" lon="6.0961">
        <ele>1602</ele>
        <time>2024-08-09T10:21:14Z</time>
      </trkpt>
      <trkpt lat="45.08136" lon="6.09613">
        <ele>1602.2</ele>
        <time>2024-08-09T10:21:15Z</time>
      </trkpt>
      <trkpt lat="45.08136" lon="6.09613">
        <ele>1602.2</ele>
        <time>2024-08-09T10:21:16Z</time>
      </trkpt>
      <trkpt lat="45.08136" lon="6.09616">
        <ele>1602.2</ele>
        <time>2024-08-09T10:21:17Z</time>
      </trkpt>
      <trkpt lat="45.08136" lon="6.09616">
        <ele>1602.2</ele>
        <time>2024-08-09T10:21:18Z</time>
      </trkpt>
      <trkpt lat="45.08136" lon="6.09619">
        <ele>1602.4</ele>
        <time>2024-08-09T10:21:19Z</time>
      </trkpt>
      <trkpt lat="45.08136" lon="6.09619">
        <ele>1602.4</ele>
        <time>2024-08-09T10:21:20Z</time>
      </trkpt>
      <trkpt lat="45.08136" lon="6.09623">
        <ele>1602.4</ele>
        <time>2024-08-09T10:21:21Z</time>
      </trkpt>
      <trkpt lat="45.08136" lon="6.09623">
        <ele>1602.4</ele>
        <time>2024-08-09T10:21:22Z</time>
      </trkpt>
      <trkpt lat="45.08137" lon="6.09627">
        <ele>1602.4</ele>
        <time>2024-08-09T10:21:23Z</time>
      </trkpt>
      <trkpt lat="45.08137" lon="6.09627">
        <ele>1602.8</ele>
        <time>2024-08-09T10:21:24Z</time>
      </trkpt>
      <trkpt lat="45.08137" lon="6.0963">
        <ele>1602.8</ele>
        <time>2024-08-09T10:21:25Z</time>
      </trkpt>
      <trkpt lat="45.08137" lon="6.0963">
        <ele>1602.8</ele>
        <time>2024-08-09T10:21:26Z</time>
      </trkpt>
      <trkpt lat="45.08137" lon="6.09634">
        <ele>1602.8</ele>
        <time>2024-08-09T10:21:27Z</time>
      </trkpt>
      <trkpt lat="45.08137" lon="6.09634">
        <ele>1602.8</ele>
        <time>2024-08-09T10:21:28Z</time>
      </trkpt>
      <trkpt lat="45.08137" lon="6.09638">
        <ele>1602.8</ele>
        <time>2024-08-09T10:21:29Z</time>
      </trkpt>
      <trkpt lat="45.08137" lon="6.09638">
        <ele>1602.8</ele>
        <time>2024-08-09T10:21:30Z</time>
      </trkpt>
      <trkpt lat="45.08136" lon="6.09641">
        <ele>1603</ele>
        <time>2024-08-09T10:21:31Z</time>
      </trkpt>
      <trkpt lat="45.08136" lon="6.09641">
        <ele>1603</ele>
        <time>2024-08-09T10:21:32Z</time>
      </trkpt>
      <trkpt lat="45.08136" lon="6.09644">
        <ele>1603.2</ele>
        <time>2024-08-09T10:21:33Z</time>
      </trkpt>
      <trkpt lat="45.08136" lon="6.09644">
        <ele>1603.2</ele>
        <time>2024-08-09T10:21:34Z</time>
      </trkpt>
      <trkpt lat="45.08137" lon="6.09648">
        <ele>1603.4</ele>
        <time>2024-08-09T10:21:35Z</time>
      </trkpt>
      <trkpt lat="45.08137" lon="6.09648">
        <ele>1603.4</ele>
        <time>2024-08-09T10:21:36Z</time>
      </trkpt>
      <trkpt lat="45.08138" lon="6.09651">
        <ele>1603.4</ele>
        <time>2024-08-09T10:21:37Z</time>
      </trkpt>
      <trkpt lat="45.08138" lon="6.09651">
        <ele>1603.4</ele>
        <time>2024-08-09T10:21:38Z</time>
      </trkpt>
      <trkpt lat="45.08138" lon="6.09651">
        <ele>1603.4</ele>
        <time>2024-08-09T10:21:39Z</time>
      </trkpt>
      <trkpt lat="45.08138" lon="6.09655">
        <ele>1603.2</ele>
        <time>2024-08-09T10:21:40Z</time>
      </trkpt>
      <trkpt lat="45.08138" lon="6.09655">
        <ele>1603.2</ele>
        <time>2024-08-09T10:21:41Z</time>
      </trkpt>
      <trkpt lat="45.08139" lon="6.09658">
        <ele>1603.6</ele>
        <time>2024-08-09T10:21:42Z</time>
      </trkpt>
      <trkpt lat="45.08139" lon="6.09658">
        <ele>1603.6</ele>
        <time>2024-08-09T10:21:43Z</time>
      </trkpt>
      <trkpt lat="45.08139" lon="6.09658">
        <ele>1603.6</ele>
        <time>2024-08-09T10:21:44Z</time>
      </trkpt>
      <trkpt lat="45.0814" lon="6.0966">
        <ele>1603.8</ele>
        <time>2024-08-09T10:21:45Z</time>
      </trkpt>
      <trkpt lat="45.0814" lon="6.0966">
        <ele>1604</ele>
        <time>2024-08-09T10:21:46Z</time>
      </trkpt>
      <trkpt lat="45.08141" lon="6.09663">
        <ele>1604</ele>
        <time>2024-08-09T10:21:47Z</time>
      </trkpt>
      <trkpt lat="45.08141" lon="6.09663">
        <ele>1604.4</ele>
        <time>2024-08-09T10:21:48Z</time>
      </trkpt>
      <trkpt lat="45.08141" lon="6.09663">
        <ele>1604.6</ele>
        <time>2024-08-09T10:21:49Z</time>
      </trkpt>
      <trkpt lat="45.08142" lon="6.09666">
        <ele>1604.6</ele>
        <time>2024-08-09T10:21:50Z</time>
      </trkpt>
      <trkpt lat="45.08142" lon="6.09666">
        <ele>1604.8</ele>
        <time>2024-08-09T10:21:51Z</time>
      </trkpt>
      <trkpt lat="45.08143" lon="6.09668">
        <ele>1605</ele>
        <time>2024-08-09T10:21:52Z</time>
      </trkpt>
      <trkpt lat="45.08143" lon="6.09668">
        <ele>1605</ele>
        <time>2024-08-09T10:21:53Z</time>
      </trkpt>
      <trkpt lat="45.08145" lon="6.09671">
        <ele>1605.2</ele>
        <time>2024-08-09T10:21:54Z</time>
      </trkpt>
      <trkpt lat="45.08145" lon="6.09671">
        <ele>1605.6</ele>
        <time>2024-08-09T10:21:55Z</time>
      </trkpt>
      <trkpt lat="45.08146" lon="6.09674">
        <ele>1605.8</ele>
        <time>2024-08-09T10:21:56Z</time>
      </trkpt>
      <trkpt lat="45.08146" lon="6.09674">
        <ele>1606</ele>
        <time>2024-08-09T10:21:57Z</time>
      </trkpt>
      <trkpt lat="45.08146" lon="6.09674">
        <ele>1606</ele>
        <time>2024-08-09T10:21:58Z</time>
      </trkpt>
      <trkpt lat="45.08146" lon="6.09677">
        <ele>1606.2</ele>
        <time>2024-08-09T10:21:59Z</time>
      </trkpt>
      <trkpt lat="45.08146" lon="6.09677">
        <ele>1606.4</ele>
        <time>2024-08-09T10:22:00Z</time>
      </trkpt>
      <trkpt lat="45.08148" lon="6.09679">
        <ele>1606.6</ele>
        <time>2024-08-09T10:22:01Z</time>
      </trkpt>
      <trkpt lat="45.08148" lon="6.09679">
        <ele>1606.6</ele>
        <time>2024-08-09T10:22:02Z</time>
      </trkpt>
      <trkpt lat="45.08149" lon="6.09682">
        <ele>1606.8</ele>
        <time>2024-08-09T10:22:03Z</time>
      </trkpt>
      <trkpt lat="45.08149" lon="6.09682">
        <ele>1607</ele>
        <time>2024-08-09T10:22:04Z</time>
      </trkpt>
      <trkpt lat="45.08149" lon="6.09682">
        <ele>1607</ele>
        <time>2024-08-09T10:22:05Z</time>
      </trkpt>
      <trkpt lat="45.08149" lon="6.09682">
        <ele>1607</ele>
        <time>2024-08-09T10:22:06Z</time>
      </trkpt>
      <trkpt lat="45.0815" lon="6.09684">
        <ele>1606.8</ele>
        <time>2024-08-09T10:22:07Z</time>
      </trkpt>
      <trkpt lat="45.0815" lon="6.09684">
        <ele>1606.8</ele>
        <time>2024-08-09T10:22:08Z</time>
      </trkpt>
      <trkpt lat="45.08152" lon="6.09687">
        <ele>1606.8</ele>
        <time>2024-08-09T10:22:09Z</time>
      </trkpt>
      <trkpt lat="45.08152" lon="6.09687">
        <ele>1606.8</ele>
        <time>2024-08-09T10:22:10Z</time>
      </trkpt>
      <trkpt lat="45.08151" lon="6.0969">
        <ele>1606.8</ele>
        <time>2024-08-09T10:22:11Z</time>
      </trkpt>
      <trkpt lat="45.08151" lon="6.0969">
        <ele>1606.8</ele>
        <time>2024-08-09T10:22:12Z</time>
      </trkpt>
      <trkpt lat="45.0815" lon="6.09693">
        <ele>1606.6</ele>
        <time>2024-08-09T10:22:13Z</time>
      </trkpt>
      <trkpt lat="45.0815" lon="6.09693">
        <ele>1606.6</ele>
        <time>2024-08-09T10:22:14Z</time>
      </trkpt>
      <trkpt lat="45.08149" lon="6.09696">
        <ele>1606.8</ele>
        <time>2024-08-09T10:22:15Z</time>
      </trkpt>
      <trkpt lat="45.08149" lon="6.09698">
        <ele>1606.8</ele>
        <time>2024-08-09T10:22:16Z</time>
      </trkpt>
      <trkpt lat="45.08149" lon="6.09698">
        <ele>1606.4</ele>
        <time>2024-08-09T10:22:17Z</time>
      </trkpt>
      <trkpt lat="45.08148" lon="6.09702">
        <ele>1606.4</ele>
        <time>2024-08-09T10:22:18Z</time>
      </trkpt>
      <trkpt lat="45.08148" lon="6.09702">
        <ele>1606.6</ele>
        <time>2024-08-09T10:22:19Z</time>
      </trkpt>
      <trkpt lat="45.08148" lon="6.09705">
        <ele>1606.6</ele>
        <time>2024-08-09T10:22:20Z</time>
      </trkpt>
      <trkpt lat="45.08148" lon="6.09708">
        <ele>1606.8</ele>
        <time>2024-08-09T10:22:21Z</time>
      </trkpt>
      <trkpt lat="45.08148" lon="6.09708">
        <ele>1606.8</ele>
        <time>2024-08-09T10:22:22Z</time>
      </trkpt>
      <trkpt lat="45.08147" lon="6.09712">
        <ele>1606.8</ele>
        <time>2024-08-09T10:22:23Z</time>
      </trkpt>
      <trkpt lat="45.08147" lon="6.09712">
        <ele>1606.8</ele>
        <time>2024-08-09T10:22:24Z</time>
      </trkpt>
      <trkpt lat="45.08149" lon="6.09716">
        <ele>1606.8</ele>
        <time>2024-08-09T10:22:25Z</time>
      </trkpt>
      <trkpt lat="45.08149" lon="6.09716">
        <ele>1606.6</ele>
        <time>2024-08-09T10:22:26Z</time>
      </trkpt>
      <trkpt lat="45.0815" lon="6.0972">
        <ele>1606.6</ele>
        <time>2024-08-09T10:22:27Z</time>
      </trkpt>
      <trkpt lat="45.0815" lon="6.0972">
        <ele>1606.6</ele>
        <time>2024-08-09T10:22:28Z</time>
      </trkpt>
      <trkpt lat="45.0815" lon="6.09723">
        <ele>1606.6</ele>
        <time>2024-08-09T10:22:29Z</time>
      </trkpt>
      <trkpt lat="45.0815" lon="6.09723">
        <ele>1606.8</ele>
        <time>2024-08-09T10:22:30Z</time>
      </trkpt>
      <trkpt lat="45.08149" lon="6.09726">
        <ele>1606.6</ele>
        <time>2024-08-09T10:22:31Z</time>
      </trkpt>
      <trkpt lat="45.08149" lon="6.09726">
        <ele>1606.6</ele>
        <time>2024-08-09T10:22:32Z</time>
      </trkpt>
      <trkpt lat="45.0815" lon="6.09729">
        <ele>1606.6</ele>
        <time>2024-08-09T10:22:33Z</time>
      </trkpt>
      <trkpt lat="45.0815" lon="6.09729">
        <ele>1606.6</ele>
        <time>2024-08-09T10:22:34Z</time>
      </trkpt>
      <trkpt lat="45.08151" lon="6.09732">
        <ele>1606.6</ele>
        <time>2024-08-09T10:22:35Z</time>
      </trkpt>
      <trkpt lat="45.08154" lon="6.09734">
        <ele>1606.8</ele>
        <time>2024-08-09T10:22:36Z</time>
      </trkpt>
      <trkpt lat="45.08154" lon="6.09734">
        <ele>1607</ele>
        <time>2024-08-09T10:22:37Z</time>
      </trkpt>
      <trkpt lat="45.08153" lon="6.09738">
        <ele>1607</ele>
        <time>2024-08-09T10:22:38Z</time>
      </trkpt>
      <trkpt lat="45.08153" lon="6.09738">
        <ele>1607</ele>
        <time>2024-08-09T10:22:39Z</time>
      </trkpt>
      <trkpt lat="45.08154" lon="6.09742">
        <ele>1607</ele>
        <time>2024-08-09T10:22:40Z</time>
      </trkpt>
      <trkpt lat="45.08154" lon="6.09742">
        <ele>1607</ele>
        <time>2024-08-09T10:22:41Z</time>
      </trkpt>
      <trkpt lat="45.08153" lon="6.09746">
        <ele>1607.2</ele>
        <time>2024-08-09T10:22:42Z</time>
      </trkpt>
      <trkpt lat="45.08153" lon="6.09746">
        <ele>1607.2</ele>
        <time>2024-08-09T10:22:43Z</time>
      </trkpt>
      <trkpt lat="45.08153" lon="6.0975">
        <ele>1607.4</ele>
        <time>2024-08-09T10:22:44Z</time>
      </trkpt>
      <trkpt lat="45.08153" lon="6.0975">
        <ele>1607.4</ele>
        <time>2024-08-09T10:22:45Z</time>
      </trkpt>
      <trkpt lat="45.08153" lon="6.09753">
        <ele>1607.4</ele>
        <time>2024-08-09T10:22:46Z</time>
      </trkpt>
      <trkpt lat="45.08153" lon="6.09753">
        <ele>1607.2</ele>
        <time>2024-08-09T10:22:47Z</time>
      </trkpt>
      <trkpt lat="45.08152" lon="6.09756">
        <ele>1607.2</ele>
        <time>2024-08-09T10:22:48Z</time>
      </trkpt>
      <trkpt lat="45.08152" lon="6.09756">
        <ele>1607.2</ele>
        <time>2024-08-09T10:22:49Z</time>
      </trkpt>
      <trkpt lat="45.08151" lon="6.09761">
        <ele>1607.2</ele>
        <time>2024-08-09T10:22:50Z</time>
      </trkpt>
      <trkpt lat="45.08151" lon="6.09761">
        <ele>1607.2</ele>
        <time>2024-08-09T10:22:51Z</time>
      </trkpt>
      <trkpt lat="45.08149" lon="6.09764">
        <ele>1607.2</ele>
        <time>2024-08-09T10:22:52Z</time>
      </trkpt>
      <trkpt lat="45.08149" lon="6.09764">
        <ele>1607.8</ele>
        <time>2024-08-09T10:22:53Z</time>
      </trkpt>
      <trkpt lat="45.08148" lon="6.09767">
        <ele>1607.8</ele>
        <time>2024-08-09T10:22:54Z</time>
      </trkpt>
      <trkpt lat="45.08148" lon="6.09767">
        <ele>1608</ele>
        <time>2024-08-09T10:22:55Z</time>
      </trkpt>
      <trkpt lat="45.08147" lon="6.0977">
        <ele>1608</ele>
        <time>2024-08-09T10:22:56Z</time>
      </trkpt>
      <trkpt lat="45.08147" lon="6.0977">
        <ele>1607.8</ele>
        <time>2024-08-09T10:22:57Z</time>
      </trkpt>
      <trkpt lat="45.08146" lon="6.09772">
        <ele>1607.8</ele>
        <time>2024-08-09T10:22:58Z</time>
      </trkpt>
      <trkpt lat="45.08146" lon="6.09772">
        <ele>1607.8</ele>
        <time>2024-08-09T10:22:59Z</time>
      </trkpt>
      <trkpt lat="45.08147" lon="6.09776">
        <ele>1608</ele>
        <time>2024-08-09T10:23:00Z</time>
      </trkpt>
      <trkpt lat="45.08147" lon="6.09776">
        <ele>1608</ele>
        <time>2024-08-09T10:23:01Z</time>
      </trkpt>
      <trkpt lat="45.08148" lon="6.09779">
        <ele>1608</ele>
        <time>2024-08-09T10:23:02Z</time>
      </trkpt>
      <trkpt lat="45.08148" lon="6.09779">
        <ele>1608</ele>
        <time>2024-08-09T10:23:03Z</time>
      </trkpt>
      <trkpt lat="45.08147" lon="6.09781">
        <ele>1608</ele>
        <time>2024-08-09T10:23:04Z</time>
      </trkpt>
      <trkpt lat="45.08147" lon="6.09781">
        <ele>1608</ele>
        <time>2024-08-09T10:23:05Z</time>
      </trkpt>
      <trkpt lat="45.08146" lon="6.09784">
        <ele>1608</ele>
        <time>2024-08-09T10:23:06Z</time>
      </trkpt>
      <trkpt lat="45.08146" lon="6.09784">
        <ele>1608.2</ele>
        <time>2024-08-09T10:23:07Z</time>
      </trkpt>
      <trkpt lat="45.08147" lon="6.09788">
        <ele>1608.2</ele>
        <time>2024-08-09T10:23:08Z</time>
      </trkpt>
      <trkpt lat="45.08147" lon="6.09788">
        <ele>1608.4</ele>
        <time>2024-08-09T10:23:09Z</time>
      </trkpt>
      <trkpt lat="45.08146" lon="6.09791">
        <ele>1608.4</ele>
        <time>2024-08-09T10:23:10Z</time>
      </trkpt>
      <trkpt lat="45.08146" lon="6.09791">
        <ele>1608.2</ele>
        <time>2024-08-09T10:23:11Z</time>
      </trkpt>
      <trkpt lat="45.08145" lon="6.09796">
        <ele>1608.2</ele>
        <time>2024-08-09T10:23:12Z</time>
      </trkpt>
      <trkpt lat="45.08145" lon="6.09796">
        <ele>1608.4</ele>
        <time>2024-08-09T10:23:13Z</time>
      </trkpt>
      <trkpt lat="45.08144" lon="6.098">
        <ele>1608.4</ele>
        <time>2024-08-09T10:23:14Z</time>
      </trkpt>
      <trkpt lat="45.08144" lon="6.098">
        <ele>1608.6</ele>
        <time>2024-08-09T10:23:15Z</time>
      </trkpt>
      <trkpt lat="45.08143" lon="6.09804">
        <ele>1608.6</ele>
        <time>2024-08-09T10:23:16Z</time>
      </trkpt>
      <trkpt lat="45.08143" lon="6.09804">
        <ele>1608.8</ele>
        <time>2024-08-09T10:23:17Z</time>
      </trkpt>
      <trkpt lat="45.08142" lon="6.09807">
        <ele>1608.8</ele>
        <time>2024-08-09T10:23:18Z</time>
      </trkpt>
      <trkpt lat="45.08142" lon="6.09807">
        <ele>1609</ele>
        <time>2024-08-09T10:23:19Z</time>
      </trkpt>
      <trkpt lat="45.08142" lon="6.09811">
        <ele>1609</ele>
        <time>2024-08-09T10:23:20Z</time>
      </trkpt>
      <trkpt lat="45.08142" lon="6.09811">
        <ele>1609</ele>
        <time>2024-08-09T10:23:21Z</time>
      </trkpt>
      <trkpt lat="45.08141" lon="6.09815">
        <ele>1608.8</ele>
        <time>2024-08-09T10:23:22Z</time>
      </trkpt>
      <trkpt lat="45.08141" lon="6.09815">
        <ele>1608.8</ele>
        <time>2024-08-09T10:23:23Z</time>
      </trkpt>
      <trkpt lat="45.08141" lon="6.09818">
        <ele>1608.8</ele>
        <time>2024-08-09T10:23:24Z</time>
      </trkpt>
      <trkpt lat="45.08141" lon="6.09818">
        <ele>1608.8</ele>
        <time>2024-08-09T10:23:25Z</time>
      </trkpt>
      <trkpt lat="45.0814" lon="6.09821">
        <ele>1608.8</ele>
        <time>2024-08-09T10:23:26Z</time>
      </trkpt>
      <trkpt lat="45.0814" lon="6.09821">
        <ele>1608.8</ele>
        <time>2024-08-09T10:23:27Z</time>
      </trkpt>
      <trkpt lat="45.08141" lon="6.09825">
        <ele>1609</ele>
        <time>2024-08-09T10:23:28Z</time>
      </trkpt>
      <trkpt lat="45.08141" lon="6.09825">
        <ele>1609</ele>
        <time>2024-08-09T10:23:29Z</time>
      </trkpt>
      <trkpt lat="45.08141" lon="6.09829">
        <ele>1609.2</ele>
        <time>2024-08-09T10:23:30Z</time>
      </trkpt>
      <trkpt lat="45.08141" lon="6.09829">
        <ele>1609.2</ele>
        <time>2024-08-09T10:23:31Z</time>
      </trkpt>
      <trkpt lat="45.0814" lon="6.09832">
        <ele>1609.2</ele>
        <time>2024-08-09T10:23:32Z</time>
      </trkpt>
      <trkpt lat="45.0814" lon="6.09832">
        <ele>1609</ele>
        <time>2024-08-09T10:23:33Z</time>
      </trkpt>
      <trkpt lat="45.0814" lon="6.09836">
        <ele>1609</ele>
        <time>2024-08-09T10:23:34Z</time>
      </trkpt>
      <trkpt lat="45.0814" lon="6.09836">
        <ele>1609.2</ele>
        <time>2024-08-09T10:23:35Z</time>
      </trkpt>
      <trkpt lat="45.0814" lon="6.09838">
        <ele>1609.2</ele>
        <time>2024-08-09T10:23:36Z</time>
      </trkpt>
      <trkpt lat="45.0814" lon="6.09838">
        <ele>1609.2</ele>
        <time>2024-08-09T10:23:37Z</time>
      </trkpt>
      <trkpt lat="45.08141" lon="6.09842">
        <ele>1609.4</ele>
        <time>2024-08-09T10:23:38Z</time>
      </trkpt>
      <trkpt lat="45.08141" lon="6.09842">
        <ele>1609.6</ele>
        <time>2024-08-09T10:23:39Z</time>
      </trkpt>
      <trkpt lat="45.08141" lon="6.09845">
        <ele>1609.8</ele>
        <time>2024-08-09T10:23:40Z</time>
      </trkpt>
      <trkpt lat="45.08141" lon="6.09845">
        <ele>1609.8</ele>
        <time>2024-08-09T10:23:41Z</time>
      </trkpt>
      <trkpt lat="45.08141" lon="6.09849">
        <ele>1609.8</ele>
        <time>2024-08-09T10:23:42Z</time>
      </trkpt>
      <trkpt lat="45.08141" lon="6.09849">
        <ele>1609.8</ele>
        <time>2024-08-09T10:23:43Z</time>
      </trkpt>
      <trkpt lat="45.0814" lon="6.09852">
        <ele>1609.6</ele>
        <time>2024-08-09T10:23:44Z</time>
      </trkpt>
      <trkpt lat="45.0814" lon="6.09852">
        <ele>1609.8</ele>
        <time>2024-08-09T10:23:45Z</time>
      </trkpt>
      <trkpt lat="45.0814" lon="6.09856">
        <ele>1609.8</ele>
        <time>2024-08-09T10:23:46Z</time>
      </trkpt>
      <trkpt lat="45.0814" lon="6.09856">
        <ele>1610</ele>
        <time>2024-08-09T10:23:47Z</time>
      </trkpt>
      <trkpt lat="45.08139" lon="6.0986">
        <ele>1610.2</ele>
        <time>2024-08-09T10:23:48Z</time>
      </trkpt>
      <trkpt lat="45.08139" lon="6.0986">
        <ele>1610.4</ele>
        <time>2024-08-09T10:23:49Z</time>
      </trkpt>
      <trkpt lat="45.08139" lon="6.09864">
        <ele>1610.4</ele>
        <time>2024-08-09T10:23:50Z</time>
      </trkpt>
      <trkpt lat="45.08139" lon="6.09864">
        <ele>1610.6</ele>
        <time>2024-08-09T10:23:51Z</time>
      </trkpt>
      <trkpt lat="45.08138" lon="6.09867">
        <ele>1610.6</ele>
        <time>2024-08-09T10:23:52Z</time>
      </trkpt>
      <trkpt lat="45.08138" lon="6.09867">
        <ele>1610.8</ele>
        <time>2024-08-09T10:23:53Z</time>
      </trkpt>
      <trkpt lat="45.08137" lon="6.0987">
        <ele>1610.8</ele>
        <time>2024-08-09T10:23:54Z</time>
      </trkpt>
      <trkpt lat="45.08137" lon="6.0987">
        <ele>1610.8</ele>
        <time>2024-08-09T10:23:55Z</time>
      </trkpt>
      <trkpt lat="45.08136" lon="6.09873">
        <ele>1610.6</ele>
        <time>2024-08-09T10:23:56Z</time>
      </trkpt>
      <trkpt lat="45.08136" lon="6.09873">
        <ele>1610.8</ele>
        <time>2024-08-09T10:23:57Z</time>
      </trkpt>
      <trkpt lat="45.08136" lon="6.09876">
        <ele>1611.2</ele>
        <time>2024-08-09T10:23:58Z</time>
      </trkpt>
      <trkpt lat="45.08136" lon="6.09876">
        <ele>1611.2</ele>
        <time>2024-08-09T10:23:59Z</time>
      </trkpt>
      <trkpt lat="45.08135" lon="6.0988">
        <ele>1611.2</ele>
        <time>2024-08-09T10:24:00Z</time>
      </trkpt>
      <trkpt lat="45.08135" lon="6.0988">
        <ele>1611.2</ele>
        <time>2024-08-09T10:24:01Z</time>
      </trkpt>
      <trkpt lat="45.08133" lon="6.09883">
        <ele>1611.6</ele>
        <time>2024-08-09T10:24:02Z</time>
      </trkpt>
      <trkpt lat="45.08133" lon="6.09883">
        <ele>1611.6</ele>
        <time>2024-08-09T10:24:03Z</time>
      </trkpt>
      <trkpt lat="45.08132" lon="6.09886">
        <ele>1611.8</ele>
        <time>2024-08-09T10:24:04Z</time>
      </trkpt>
      <trkpt lat="45.08132" lon="6.09886">
        <ele>1611.8</ele>
        <time>2024-08-09T10:24:05Z</time>
      </trkpt>
      <trkpt lat="45.08131" lon="6.09888">
        <ele>1611.8</ele>
        <time>2024-08-09T10:24:06Z</time>
      </trkpt>
      <trkpt lat="45.08131" lon="6.09888">
        <ele>1611.8</ele>
        <time>2024-08-09T10:24:07Z</time>
      </trkpt>
      <trkpt lat="45.0813" lon="6.09892">
        <ele>1612</ele>
        <time>2024-08-09T10:24:08Z</time>
      </trkpt>
      <trkpt lat="45.0813" lon="6.09892">
        <ele>1612</ele>
        <time>2024-08-09T10:24:09Z</time>
      </trkpt>
      <trkpt lat="45.08129" lon="6.09894">
        <ele>1612.2</ele>
        <time>2024-08-09T10:24:10Z</time>
      </trkpt>
      <trkpt lat="45.08129" lon="6.09894">
        <ele>1612.2</ele>
        <time>2024-08-09T10:24:11Z</time>
      </trkpt>
      <trkpt lat="45.08128" lon="6.09897">
        <ele>1612.4</ele>
        <time>2024-08-09T10:24:12Z</time>
      </trkpt>
      <trkpt lat="45.08128" lon="6.09897">
        <ele>1612.6</ele>
        <time>2024-08-09T10:24:13Z</time>
      </trkpt>
      <trkpt lat="45.08128" lon="6.099">
        <ele>1612.6</ele>
        <time>2024-08-09T10:24:14Z</time>
      </trkpt>
      <trkpt lat="45.08128" lon="6.099">
        <ele>1612.6</ele>
        <time>2024-08-09T10:24:15Z</time>
      </trkpt>
      <trkpt lat="45.08128" lon="6.09903">
        <ele>1612.4</ele>
        <time>2024-08-09T10:24:16Z</time>
      </trkpt>
      <trkpt lat="45.08128" lon="6.09903">
        <ele>1612.4</ele>
        <time>2024-08-09T10:24:17Z</time>
      </trkpt>
      <trkpt lat="45.08127" lon="6.09906">
        <ele>1612.4</ele>
        <time>2024-08-09T10:24:18Z</time>
      </trkpt>
      <trkpt lat="45.08127" lon="6.09906">
        <ele>1612.8</ele>
        <time>2024-08-09T10:24:19Z</time>
      </trkpt>
      <trkpt lat="45.08123" lon="6.09909">
        <ele>1612.8</ele>
        <time>2024-08-09T10:24:20Z</time>
      </trkpt>
      <trkpt lat="45.08123" lon="6.09909">
        <ele>1613</ele>
        <time>2024-08-09T10:24:21Z</time>
      </trkpt>
      <trkpt lat="45.08121" lon="6.0991">
        <ele>1613</ele>
        <time>2024-08-09T10:24:22Z</time>
      </trkpt>
      <trkpt lat="45.08121" lon="6.0991">
        <ele>1613.2</ele>
        <time>2024-08-09T10:24:23Z</time>
      </trkpt>
      <trkpt lat="45.0812" lon="6.09913">
        <ele>1613.2</ele>
        <time>2024-08-09T10:24:24Z</time>
      </trkpt>
      <trkpt lat="45.0812" lon="6.09913">
        <ele>1613.6</ele>
        <time>2024-08-09T10:24:25Z</time>
      </trkpt>
      <trkpt lat="45.0812" lon="6.09916">
        <ele>1613.6</ele>
        <time>2024-08-09T10:24:26Z</time>
      </trkpt>
      <trkpt lat="45.0812" lon="6.09916">
        <ele>1613.8</ele>
        <time>2024-08-09T10:24:27Z</time>
      </trkpt>
      <trkpt lat="45.0812" lon="6.09919">
        <ele>1614.2</ele>
        <time>2024-08-09T10:24:28Z</time>
      </trkpt>
      <trkpt lat="45.0812" lon="6.09919">
        <ele>1614.4</ele>
        <time>2024-08-09T10:24:29Z</time>
      </trkpt>
      <trkpt lat="45.0812" lon="6.09919">
        <ele>1614.4</ele>
        <time>2024-08-09T10:24:30Z</time>
      </trkpt>
      <trkpt lat="45.0812" lon="6.09922">
        <ele>1614.8</ele>
        <time>2024-08-09T10:24:31Z</time>
      </trkpt>
      <trkpt lat="45.0812" lon="6.09922">
        <ele>1615.2</ele>
        <time>2024-08-09T10:24:32Z</time>
      </trkpt>
      <trkpt lat="45.08119" lon="6.09925">
        <ele>1615.4</ele>
        <time>2024-08-09T10:24:33Z</time>
      </trkpt>
      <trkpt lat="45.08119" lon="6.09925">
        <ele>1615.4</ele>
        <time>2024-08-09T10:24:34Z</time>
      </trkpt>
      <trkpt lat="45.08119" lon="6.09925">
        <ele>1615.6</ele>
        <time>2024-08-09T10:24:35Z</time>
      </trkpt>
      <trkpt lat="45.0812" lon="6.09928">
        <ele>1615.6</ele>
        <time>2024-08-09T10:24:36Z</time>
      </trkpt>
      <trkpt lat="45.0812" lon="6.09928">
        <ele>1615.6</ele>
        <time>2024-08-09T10:24:37Z</time>
      </trkpt>
      <trkpt lat="45.0812" lon="6.09928">
        <ele>1615.8</ele>
        <time>2024-08-09T10:24:38Z</time>
      </trkpt>
      <trkpt lat="45.0812" lon="6.09933">
        <ele>1616.2</ele>
        <time>2024-08-09T10:24:39Z</time>
      </trkpt>
      <trkpt lat="45.0812" lon="6.09933">
        <ele>1616.2</ele>
        <time>2024-08-09T10:24:40Z</time>
      </trkpt>
      <trkpt lat="45.0812" lon="6.09933">
        <ele>1616.4</ele>
        <time>2024-08-09T10:24:41Z</time>
      </trkpt>
      <trkpt lat="45.0812" lon="6.09936">
        <ele>1616.4</ele>
        <time>2024-08-09T10:24:42Z</time>
      </trkpt>
      <trkpt lat="45.0812" lon="6.09936">
        <ele>1616.6</ele>
        <time>2024-08-09T10:24:43Z</time>
      </trkpt>
      <trkpt lat="45.0812" lon="6.09936">
        <ele>1616.8</ele>
        <time>2024-08-09T10:24:44Z</time>
      </trkpt>
      <trkpt lat="45.0812" lon="6.0994">
        <ele>1616.8</ele>
        <time>2024-08-09T10:24:45Z</time>
      </trkpt>
      <trkpt lat="45.0812" lon="6.0994">
        <ele>1616.8</ele>
        <time>2024-08-09T10:24:46Z</time>
      </trkpt>
      <trkpt lat="45.08119" lon="6.09942">
        <ele>1617.2</ele>
        <time>2024-08-09T10:24:47Z</time>
      </trkpt>
      <trkpt lat="45.08119" lon="6.09942">
        <ele>1617.2</ele>
        <time>2024-08-09T10:24:48Z</time>
      </trkpt>
      <trkpt lat="45.08119" lon="6.09946">
        <ele>1617.4</ele>
        <time>2024-08-09T10:24:49Z</time>
      </trkpt>
      <trkpt lat="45.08119" lon="6.09946">
        <ele>1617.4</ele>
        <time>2024-08-09T10:24:50Z</time>
      </trkpt>
      <trkpt lat="45.08119" lon="6.09949">
        <ele>1617.4</ele>
        <time>2024-08-09T10:24:51Z</time>
      </trkpt>
      <trkpt lat="45.08119" lon="6.09949">
        <ele>1617.6</ele>
        <time>2024-08-09T10:24:52Z</time>
      </trkpt>
      <trkpt lat="45.08119" lon="6.09953">
        <ele>1617.6</ele>
        <time>2024-08-09T10:24:53Z</time>
      </trkpt>
      <trkpt lat="45.08119" lon="6.09953">
        <ele>1617.6</ele>
        <time>2024-08-09T10:24:54Z</time>
      </trkpt>
      <trkpt lat="45.0812" lon="6.09956">
        <ele>1617.6</ele>
        <time>2024-08-09T10:24:55Z</time>
      </trkpt>
      <trkpt lat="45.0812" lon="6.09956">
        <ele>1617.8</ele>
        <time>2024-08-09T10:24:56Z</time>
      </trkpt>
      <trkpt lat="45.0812" lon="6.0996">
        <ele>1617.8</ele>
        <time>2024-08-09T10:24:57Z</time>
      </trkpt>
      <trkpt lat="45.0812" lon="6.0996">
        <ele>1618</ele>
        <time>2024-08-09T10:24:58Z</time>
      </trkpt>
      <trkpt lat="45.0812" lon="6.09963">
        <ele>1618.2</ele>
        <time>2024-08-09T10:24:59Z</time>
      </trkpt>
      <trkpt lat="45.0812" lon="6.09963">
        <ele>1618.2</ele>
        <time>2024-08-09T10:25:00Z</time>
      </trkpt>
      <trkpt lat="45.0812" lon="6.09966">
        <ele>1618.4</ele>
        <time>2024-08-09T10:25:01Z</time>
      </trkpt>
      <trkpt lat="45.0812" lon="6.09966">
        <ele>1618.8</ele>
        <time>2024-08-09T10:25:02Z</time>
      </trkpt>
      <trkpt lat="45.08121" lon="6.09969">
        <ele>1618.8</ele>
        <time>2024-08-09T10:25:03Z</time>
      </trkpt>
      <trkpt lat="45.08121" lon="6.09969">
        <ele>1618.6</ele>
        <time>2024-08-09T10:25:04Z</time>
      </trkpt>
      <trkpt lat="45.0812" lon="6.09973">
        <ele>1618.8</ele>
        <time>2024-08-09T10:25:05Z</time>
      </trkpt>
      <trkpt lat="45.0812" lon="6.09973">
        <ele>1619</ele>
        <time>2024-08-09T10:25:06Z</time>
      </trkpt>
      <trkpt lat="45.0812" lon="6.09977">
        <ele>1619</ele>
        <time>2024-08-09T10:25:07Z</time>
      </trkpt>
      <trkpt lat="45.0812" lon="6.09977">
        <ele>1619</ele>
        <time>2024-08-09T10:25:08Z</time>
      </trkpt>
      <trkpt lat="45.08118" lon="6.09981">
        <ele>1619</ele>
        <time>2024-08-09T10:25:09Z</time>
      </trkpt>
      <trkpt lat="45.08118" lon="6.09981">
        <ele>1619.2</ele>
        <time>2024-08-09T10:25:10Z</time>
      </trkpt>
      <trkpt lat="45.08117" lon="6.09984">
        <ele>1619.4</ele>
        <time>2024-08-09T10:25:11Z</time>
      </trkpt>
      <trkpt lat="45.08117" lon="6.09984">
        <ele>1619.6</ele>
        <time>2024-08-09T10:25:12Z</time>
      </trkpt>
      <trkpt lat="45.08116" lon="6.09986">
        <ele>1619.8</ele>
        <time>2024-08-09T10:25:13Z</time>
      </trkpt>
      <trkpt lat="45.08116" lon="6.09986">
        <ele>1620</ele>
        <time>2024-08-09T10:25:14Z</time>
      </trkpt>
      <trkpt lat="45.08116" lon="6.09986">
        <ele>1620.2</ele>
        <time>2024-08-09T10:25:15Z</time>
      </trkpt>
      <trkpt lat="45.08116" lon="6.0999">
        <ele>1620.2</ele>
        <time>2024-08-09T10:25:16Z</time>
      </trkpt>
      <trkpt lat="45.08116" lon="6.0999">
        <ele>1620.4</ele>
        <time>2024-08-09T10:25:17Z</time>
      </trkpt>
      <trkpt lat="45.08115" lon="6.09993">
        <ele>1620.4</ele>
        <time>2024-08-09T10:25:18Z</time>
      </trkpt>
      <trkpt lat="45.08115" lon="6.09993">
        <ele>1620.4</ele>
        <time>2024-08-09T10:25:19Z</time>
      </trkpt>
      <trkpt lat="45.08114" lon="6.09996">
        <ele>1620.4</ele>
        <time>2024-08-09T10:25:20Z</time>
      </trkpt>
      <trkpt lat="45.08114" lon="6.09996">
        <ele>1620.4</ele>
        <time>2024-08-09T10:25:21Z</time>
      </trkpt>
      <trkpt lat="45.08114" lon="6.09996">
        <ele>1620.6</ele>
        <time>2024-08-09T10:25:22Z</time>
      </trkpt>
      <trkpt lat="45.08115" lon="6.1">
        <ele>1620.8</ele>
        <time>2024-08-09T10:25:23Z</time>
      </trkpt>
      <trkpt lat="45.08115" lon="6.1">
        <ele>1620.8</ele>
        <time>2024-08-09T10:25:24Z</time>
      </trkpt>
      <trkpt lat="45.08115" lon="6.10003">
        <ele>1621</ele>
        <time>2024-08-09T10:25:25Z</time>
      </trkpt>
      <trkpt lat="45.08115" lon="6.10003">
        <ele>1621</ele>
        <time>2024-08-09T10:25:26Z</time>
      </trkpt>
      <trkpt lat="45.08114" lon="6.10006">
        <ele>1621</ele>
        <time>2024-08-09T10:25:27Z</time>
      </trkpt>
      <trkpt lat="45.08114" lon="6.10006">
        <ele>1621</ele>
        <time>2024-08-09T10:25:28Z</time>
      </trkpt>
      <trkpt lat="45.08114" lon="6.1001">
        <ele>1621</ele>
        <time>2024-08-09T10:25:29Z</time>
      </trkpt>
      <trkpt lat="45.08114" lon="6.1001">
        <ele>1621</ele>
        <time>2024-08-09T10:25:30Z</time>
      </trkpt>
      <trkpt lat="45.08113" lon="6.10014">
        <ele>1621.2</ele>
        <time>2024-08-09T10:25:31Z</time>
      </trkpt>
      <trkpt lat="45.08113" lon="6.10014">
        <ele>1621.2</ele>
        <time>2024-08-09T10:25:32Z</time>
      </trkpt>
      <trkpt lat="45.08114" lon="6.10017">
        <ele>1621.2</ele>
        <time>2024-08-09T10:25:33Z</time>
      </trkpt>
      <trkpt lat="45.08114" lon="6.10017">
        <ele>1621.2</ele>
        <time>2024-08-09T10:25:34Z</time>
      </trkpt>
      <trkpt lat="45.08113" lon="6.1002">
        <ele>1621.2</ele>
        <time>2024-08-09T10:25:35Z</time>
      </trkpt>
      <trkpt lat="45.08113" lon="6.1002">
        <ele>1621.2</ele>
        <time>2024-08-09T10:25:36Z</time>
      </trkpt>
      <trkpt lat="45.08112" lon="6.10022">
        <ele>1621.2</ele>
        <time>2024-08-09T10:25:37Z</time>
      </trkpt>
      <trkpt lat="45.08112" lon="6.10022">
        <ele>1621.4</ele>
        <time>2024-08-09T10:25:38Z</time>
      </trkpt>
      <trkpt lat="45.08112" lon="6.10025">
        <ele>1621.4</ele>
        <time>2024-08-09T10:25:39Z</time>
      </trkpt>
      <trkpt lat="45.08112" lon="6.10025">
        <ele>1621.2</ele>
        <time>2024-08-09T10:25:40Z</time>
      </trkpt>
      <trkpt lat="45.08111" lon="6.10028">
        <ele>1621.2</ele>
        <time>2024-08-09T10:25:41Z</time>
      </trkpt>
      <trkpt lat="45.08111" lon="6.10028">
        <ele>1621.4</ele>
        <time>2024-08-09T10:25:42Z</time>
      </trkpt>
      <trkpt lat="45.0811" lon="6.10032">
        <ele>1621.6</ele>
        <time>2024-08-09T10:25:43Z</time>
      </trkpt>
      <trkpt lat="45.0811" lon="6.10032">
        <ele>1621.8</ele>
        <time>2024-08-09T10:25:44Z</time>
      </trkpt>
      <trkpt lat="45.08109" lon="6.10035">
        <ele>1621.8</ele>
        <time>2024-08-09T10:25:45Z</time>
      </trkpt>
      <trkpt lat="45.08109" lon="6.10035">
        <ele>1622</ele>
        <time>2024-08-09T10:25:46Z</time>
      </trkpt>
      <trkpt lat="45.08107" lon="6.10039">
        <ele>1622.4</ele>
        <time>2024-08-09T10:25:47Z</time>
      </trkpt>
      <trkpt lat="45.08107" lon="6.10039">
        <ele>1622.2</ele>
        <time>2024-08-09T10:25:48Z</time>
      </trkpt>
      <trkpt lat="45.08106" lon="6.10042">
        <ele>1622.2</ele>
        <time>2024-08-09T10:25:49Z</time>
      </trkpt>
      <trkpt lat="45.08106" lon="6.10042">
        <ele>1622.6</ele>
        <time>2024-08-09T10:25:50Z</time>
      </trkpt>
      <trkpt lat="45.08105" lon="6.10045">
        <ele>1622.8</ele>
        <time>2024-08-09T10:25:51Z</time>
      </trkpt>
      <trkpt lat="45.08105" lon="6.10045">
        <ele>1622.8</ele>
        <time>2024-08-09T10:25:52Z</time>
      </trkpt>
      <trkpt lat="45.08104" lon="6.10048">
        <ele>1623</ele>
        <time>2024-08-09T10:25:53Z</time>
      </trkpt>
      <trkpt lat="45.08104" lon="6.10048">
        <ele>1623</ele>
        <time>2024-08-09T10:25:54Z</time>
      </trkpt>
      <trkpt lat="45.08105" lon="6.10051">
        <ele>1623.2</ele>
        <time>2024-08-09T10:25:55Z</time>
      </trkpt>
      <trkpt lat="45.08105" lon="6.10051">
        <ele>1623.2</ele>
        <time>2024-08-09T10:25:56Z</time>
      </trkpt>
      <trkpt lat="45.08105" lon="6.10054">
        <ele>1623.4</ele>
        <time>2024-08-09T10:25:57Z</time>
      </trkpt>
      <trkpt lat="45.08105" lon="6.10054">
        <ele>1623.6</ele>
        <time>2024-08-09T10:25:58Z</time>
      </trkpt>
      <trkpt lat="45.08104" lon="6.10057">
        <ele>1623.8</ele>
        <time>2024-08-09T10:25:59Z</time>
      </trkpt>
      <trkpt lat="45.08104" lon="6.10057">
        <ele>1624</ele>
        <time>2024-08-09T10:26:00Z</time>
      </trkpt>
      <trkpt lat="45.08104" lon="6.10061">
        <ele>1624.2</ele>
        <time>2024-08-09T10:26:01Z</time>
      </trkpt>
      <trkpt lat="45.08104" lon="6.10061">
        <ele>1624.2</ele>
        <time>2024-08-09T10:26:02Z</time>
      </trkpt>
      <trkpt lat="45.08106" lon="6.10065">
        <ele>1624.4</ele>
        <time>2024-08-09T10:26:03Z</time>
      </trkpt>
      <trkpt lat="45.08106" lon="6.10065">
        <ele>1624.6</ele>
        <time>2024-08-09T10:26:04Z</time>
      </trkpt>
      <trkpt lat="45.08107" lon="6.10068">
        <ele>1625</ele>
        <time>2024-08-09T10:26:05Z</time>
      </trkpt>
      <trkpt lat="45.08107" lon="6.10068">
        <ele>1625</ele>
        <time>2024-08-09T10:26:06Z</time>
      </trkpt>
      <trkpt lat="45.08107" lon="6.1007">
        <ele>1625.2</ele>
        <time>2024-08-09T10:26:07Z</time>
      </trkpt>
      <trkpt lat="45.08107" lon="6.1007">
        <ele>1625.4</ele>
        <time>2024-08-09T10:26:08Z</time>
      </trkpt>
      <trkpt lat="45.08106" lon="6.10073">
        <ele>1625.6</ele>
        <time>2024-08-09T10:26:09Z</time>
      </trkpt>
      <trkpt lat="45.08106" lon="6.10073">
        <ele>1626</ele>
        <time>2024-08-09T10:26:10Z</time>
      </trkpt>
      <trkpt lat="45.08105" lon="6.10075">
        <ele>1626.2</ele>
        <time>2024-08-09T10:26:11Z</time>
      </trkpt>
      <trkpt lat="45.08105" lon="6.10075">
        <ele>1626.2</ele>
        <time>2024-08-09T10:26:12Z</time>
      </trkpt>
      <trkpt lat="45.08103" lon="6.10078">
        <ele>1626.2</ele>
        <time>2024-08-09T10:26:13Z</time>
      </trkpt>
      <trkpt lat="45.08103" lon="6.10078">
        <ele>1626.2</ele>
        <time>2024-08-09T10:26:14Z</time>
      </trkpt>
      <trkpt lat="45.08101" lon="6.10081">
        <ele>1626.2</ele>
        <time>2024-08-09T10:26:15Z</time>
      </trkpt>
      <trkpt lat="45.08101" lon="6.10081">
        <ele>1626.4</ele>
        <time>2024-08-09T10:26:16Z</time>
      </trkpt>
      <trkpt lat="45.081" lon="6.10083">
        <ele>1626.6</ele>
        <time>2024-08-09T10:26:17Z</time>
      </trkpt>
      <trkpt lat="45.081" lon="6.10083">
        <ele>1626.8</ele>
        <time>2024-08-09T10:26:18Z</time>
      </trkpt>
      <trkpt lat="45.08099" lon="6.10086">
        <ele>1627</ele>
        <time>2024-08-09T10:26:19Z</time>
      </trkpt>
      <trkpt lat="45.08099" lon="6.10086">
        <ele>1627</ele>
        <time>2024-08-09T10:26:20Z</time>
      </trkpt>
      <trkpt lat="45.08098" lon="6.10089">
        <ele>1627</ele>
        <time>2024-08-09T10:26:21Z</time>
      </trkpt>
      <trkpt lat="45.08098" lon="6.10089">
        <ele>1627.2</ele>
        <time>2024-08-09T10:26:22Z</time>
      </trkpt>
      <trkpt lat="45.08096" lon="6.10092">
        <ele>1627</ele>
        <time>2024-08-09T10:26:23Z</time>
      </trkpt>
      <trkpt lat="45.08096" lon="6.10092">
        <ele>1627.2</ele>
        <time>2024-08-09T10:26:24Z</time>
      </trkpt>
      <trkpt lat="45.08095" lon="6.10094">
        <ele>1627.2</ele>
        <time>2024-08-09T10:26:25Z</time>
      </trkpt>
      <trkpt lat="45.08095" lon="6.10094">
        <ele>1627.2</ele>
        <time>2024-08-09T10:26:26Z</time>
      </trkpt>
      <trkpt lat="45.08094" lon="6.10097">
        <ele>1627.6</ele>
        <time>2024-08-09T10:26:27Z</time>
      </trkpt>
      <trkpt lat="45.08094" lon="6.10097">
        <ele>1627.6</ele>
        <time>2024-08-09T10:26:28Z</time>
      </trkpt>
      <trkpt lat="45.08094" lon="6.10099">
        <ele>1627.6</ele>
        <time>2024-08-09T10:26:29Z</time>
      </trkpt>
      <trkpt lat="45.08094" lon="6.10099">
        <ele>1627.6</ele>
        <time>2024-08-09T10:26:30Z</time>
      </trkpt>
      <trkpt lat="45.08092" lon="6.10102">
        <ele>1628</ele>
        <time>2024-08-09T10:26:31Z</time>
      </trkpt>
      <trkpt lat="45.08092" lon="6.10102">
        <ele>1628</ele>
        <time>2024-08-09T10:26:32Z</time>
      </trkpt>
      <trkpt lat="45.0809" lon="6.10104">
        <ele>1628.2</ele>
        <time>2024-08-09T10:26:33Z</time>
      </trkpt>
      <trkpt lat="45.0809" lon="6.10104">
        <ele>1628.2</ele>
        <time>2024-08-09T10:26:34Z</time>
      </trkpt>
      <trkpt lat="45.08089" lon="6.10107">
        <ele>1628.2</ele>
        <time>2024-08-09T10:26:35Z</time>
      </trkpt>
      <trkpt lat="45.08089" lon="6.10107">
        <ele>1628.4</ele>
        <time>2024-08-09T10:26:36Z</time>
      </trkpt>
      <trkpt lat="45.08088" lon="6.10111">
        <ele>1628.4</ele>
        <time>2024-08-09T10:26:37Z</time>
      </trkpt>
      <trkpt lat="45.08088" lon="6.10111">
        <ele>1628.6</ele>
        <time>2024-08-09T10:26:38Z</time>
      </trkpt>
      <trkpt lat="45.08086" lon="6.10114">
        <ele>1628.8</ele>
        <time>2024-08-09T10:26:39Z</time>
      </trkpt>
      <trkpt lat="45.08086" lon="6.10114">
        <ele>1629</ele>
        <time>2024-08-09T10:26:40Z</time>
      </trkpt>
      <trkpt lat="45.08086" lon="6.10114">
        <ele>1629</ele>
        <time>2024-08-09T10:26:41Z</time>
      </trkpt>
      <trkpt lat="45.08085" lon="6.10116">
        <ele>1628.8</ele>
        <time>2024-08-09T10:26:42Z</time>
      </trkpt>
      <trkpt lat="45.08085" lon="6.10116">
        <ele>1629.2</ele>
        <time>2024-08-09T10:26:43Z</time>
      </trkpt>
      <trkpt lat="45.08085" lon="6.10116">
        <ele>1629.2</ele>
        <time>2024-08-09T10:26:44Z</time>
      </trkpt>
      <trkpt lat="45.08082" lon="6.10118">
        <ele>1629.2</ele>
        <time>2024-08-09T10:26:45Z</time>
      </trkpt>
      <trkpt lat="45.08082" lon="6.10118">
        <ele>1629.4</ele>
        <time>2024-08-09T10:26:46Z</time>
      </trkpt>
      <trkpt lat="45.08081" lon="6.10121">
        <ele>1629.4</ele>
        <time>2024-08-09T10:26:47Z</time>
      </trkpt>
      <trkpt lat="45.08081" lon="6.10121">
        <ele>1629.4</ele>
        <time>2024-08-09T10:26:48Z</time>
      </trkpt>
      <trkpt lat="45.08078" lon="6.10124">
        <ele>1629.6</ele>
        <time>2024-08-09T10:26:49Z</time>
      </trkpt>
      <trkpt lat="45.08078" lon="6.10124">
        <ele>1629.8</ele>
        <time>2024-08-09T10:26:50Z</time>
      </trkpt>
      <trkpt lat="45.08077" lon="6.10126">
        <ele>1630.2</ele>
        <time>2024-08-09T10:26:51Z</time>
      </trkpt>
      <trkpt lat="45.08077" lon="6.10126">
        <ele>1630.2</ele>
        <time>2024-08-09T10:26:52Z</time>
      </trkpt>
      <trkpt lat="45.08075" lon="6.10128">
        <ele>1630.2</ele>
        <time>2024-08-09T10:26:53Z</time>
      </trkpt>
      <trkpt lat="45.08075" lon="6.10128">
        <ele>1630.2</ele>
        <time>2024-08-09T10:26:54Z</time>
      </trkpt>
      <trkpt lat="45.08075" lon="6.10128">
        <ele>1630.6</ele>
        <time>2024-08-09T10:26:55Z</time>
      </trkpt>
      <trkpt lat="45.08074" lon="6.10131">
        <ele>1630.8</ele>
        <time>2024-08-09T10:26:56Z</time>
      </trkpt>
      <trkpt lat="45.08073" lon="6.10133">
        <ele>1631</ele>
        <time>2024-08-09T10:26:57Z</time>
      </trkpt>
      <trkpt lat="45.08073" lon="6.10133">
        <ele>1631.2</ele>
        <time>2024-08-09T10:26:58Z</time>
      </trkpt>
      <trkpt lat="45.08073" lon="6.10136">
        <ele>1631.6</ele>
        <time>2024-08-09T10:26:59Z</time>
      </trkpt>
      <trkpt lat="45.08073" lon="6.10136">
        <ele>1631.6</ele>
        <time>2024-08-09T10:27:00Z</time>
      </trkpt>
      <trkpt lat="45.08072" lon="6.10139">
        <ele>1631.8</ele>
        <time>2024-08-09T10:27:01Z</time>
      </trkpt>
      <trkpt lat="45.08072" lon="6.10139">
        <ele>1631.6</ele>
        <time>2024-08-09T10:27:02Z</time>
      </trkpt>
      <trkpt lat="45.08072" lon="6.10142">
        <ele>1631.6</ele>
        <time>2024-08-09T10:27:03Z</time>
      </trkpt>
      <trkpt lat="45.08072" lon="6.10142">
        <ele>1632</ele>
        <time>2024-08-09T10:27:04Z</time>
      </trkpt>
      <trkpt lat="45.08071" lon="6.10145">
        <ele>1632.6</ele>
        <time>2024-08-09T10:27:05Z</time>
      </trkpt>
      <trkpt lat="45.08071" lon="6.10145">
        <ele>1633</ele>
        <time>2024-08-09T10:27:06Z</time>
      </trkpt>
      <trkpt lat="45.08071" lon="6.10148">
        <ele>1632.8</ele>
        <time>2024-08-09T10:27:07Z</time>
      </trkpt>
      <trkpt lat="45.08071" lon="6.10148">
        <ele>1632.8</ele>
        <time>2024-08-09T10:27:08Z</time>
      </trkpt>
      <trkpt lat="45.0807" lon="6.1015">
        <ele>1632.8</ele>
        <time>2024-08-09T10:27:09Z</time>
      </trkpt>
      <trkpt lat="45.0807" lon="6.1015">
        <ele>1633</ele>
        <time>2024-08-09T10:27:10Z</time>
      </trkpt>
      <trkpt lat="45.08067" lon="6.10153">
        <ele>1633</ele>
        <time>2024-08-09T10:27:11Z</time>
      </trkpt>
      <trkpt lat="45.08067" lon="6.10153">
        <ele>1633.2</ele>
        <time>2024-08-09T10:27:12Z</time>
      </trkpt>
      <trkpt lat="45.08066" lon="6.10156">
        <ele>1633.4</ele>
        <time>2024-08-09T10:27:13Z</time>
      </trkpt>
      <trkpt lat="45.08066" lon="6.10156">
        <ele>1633.6</ele>
        <time>2024-08-09T10:27:14Z</time>
      </trkpt>
      <trkpt lat="45.08066" lon="6.10159">
        <ele>1633.8</ele>
        <time>2024-08-09T10:27:15Z</time>
      </trkpt>
      <trkpt lat="45.08066" lon="6.10159">
        <ele>1633.8</ele>
        <time>2024-08-09T10:27:16Z</time>
      </trkpt>
      <trkpt lat="45.08066" lon="6.10159">
        <ele>1633.8</ele>
        <time>2024-08-09T10:27:17Z</time>
      </trkpt>
      <trkpt lat="45.08067" lon="6.10162">
        <ele>1634</ele>
        <time>2024-08-09T10:27:18Z</time>
      </trkpt>
      <trkpt lat="45.08067" lon="6.10162">
        <ele>1634.2</ele>
        <time>2024-08-09T10:27:19Z</time>
      </trkpt>
      <trkpt lat="45.08067" lon="6.10164">
        <ele>1634.4</ele>
        <time>2024-08-09T10:27:20Z</time>
      </trkpt>
      <trkpt lat="45.08067" lon="6.10164">
        <ele>1634.6</ele>
        <time>2024-08-09T10:27:21Z</time>
      </trkpt>
      <trkpt lat="45.08067" lon="6.10164">
        <ele>1634.8</ele>
        <time>2024-08-09T10:27:22Z</time>
      </trkpt>
      <trkpt lat="45.08068" lon="6.10168">
        <ele>1634.8</ele>
        <time>2024-08-09T10:27:23Z</time>
      </trkpt>
      <trkpt lat="45.08068" lon="6.10168">
        <ele>1634.8</ele>
        <time>2024-08-09T10:27:24Z</time>
      </trkpt>
      <trkpt lat="45.08067" lon="6.1017">
        <ele>1635</ele>
        <time>2024-08-09T10:27:25Z</time>
      </trkpt>
      <trkpt lat="45.08067" lon="6.1017">
        <ele>1635.4</ele>
        <time>2024-08-09T10:27:26Z</time>
      </trkpt>
      <trkpt lat="45.08067" lon="6.1017">
        <ele>1635.6</ele>
        <time>2024-08-09T10:27:27Z</time>
      </trkpt>
      <trkpt lat="45.08067" lon="6.10174">
        <ele>1635.8</ele>
        <time>2024-08-09T10:27:28Z</time>
      </trkpt>
      <trkpt lat="45.08067" lon="6.10174">
        <ele>1635.8</ele>
        <time>2024-08-09T10:27:29Z</time>
      </trkpt>
      <trkpt lat="45.08067" lon="6.10177">
        <ele>1636</ele>
        <time>2024-08-09T10:27:30Z</time>
      </trkpt>
      <trkpt lat="45.08067" lon="6.10177">
        <ele>1636.4</ele>
        <time>2024-08-09T10:27:31Z</time>
      </trkpt>
      <trkpt lat="45.08067" lon="6.10177">
        <ele>1636.4</ele>
        <time>2024-08-09T10:27:32Z</time>
      </trkpt>
      <trkpt lat="45.08067" lon="6.10181">
        <ele>1636.6</ele>
        <time>2024-08-09T10:27:33Z</time>
      </trkpt>
      <trkpt lat="45.08067" lon="6.10181">
        <ele>1636.8</ele>
        <time>2024-08-09T10:27:34Z</time>
      </trkpt>
      <trkpt lat="45.08066" lon="6.10183">
        <ele>1637</ele>
        <time>2024-08-09T10:27:35Z</time>
      </trkpt>
      <trkpt lat="45.08066" lon="6.10183">
        <ele>1637.2</ele>
        <time>2024-08-09T10:27:36Z</time>
      </trkpt>
      <trkpt lat="45.08066" lon="6.10186">
        <ele>1637.2</ele>
        <time>2024-08-09T10:27:37Z</time>
      </trkpt>
      <trkpt lat="45.08066" lon="6.10186">
        <ele>1637.2</ele>
        <time>2024-08-09T10:27:38Z</time>
      </trkpt>
      <trkpt lat="45.08066" lon="6.10186">
        <ele>1637.4</ele>
        <time>2024-08-09T10:27:39Z</time>
      </trkpt>
      <trkpt lat="45.08067" lon="6.1019">
        <ele>1637.8</ele>
        <time>2024-08-09T10:27:40Z</time>
      </trkpt>
      <trkpt lat="45.08067" lon="6.1019">
        <ele>1638</ele>
        <time>2024-08-09T10:27:41Z</time>
      </trkpt>
      <trkpt lat="45.08066" lon="6.10192">
        <ele>1638.2</ele>
        <time>2024-08-09T10:27:42Z</time>
      </trkpt>
      <trkpt lat="45.08066" lon="6.10192">
        <ele>1638.4</ele>
        <time>2024-08-09T10:27:43Z</time>
      </trkpt>
      <trkpt lat="45.08066" lon="6.10195">
        <ele>1638.6</ele>
        <time>2024-08-09T10:27:44Z</time>
      </trkpt>
      <trkpt lat="45.08066" lon="6.10195">
        <ele>1638.8</ele>
        <time>2024-08-09T10:27:45Z</time>
      </trkpt>
      <trkpt lat="45.08065" lon="6.10198">
        <ele>1638.8</ele>
        <time>2024-08-09T10:27:46Z</time>
      </trkpt>
      <trkpt lat="45.08065" lon="6.10198">
        <ele>1638.8</ele>
        <time>2024-08-09T10:27:47Z</time>
      </trkpt>
      <trkpt lat="45.08065" lon="6.102">
        <ele>1639</ele>
        <time>2024-08-09T10:27:48Z</time>
      </trkpt>
      <trkpt lat="45.08065" lon="6.102">
        <ele>1639.2</ele>
        <time>2024-08-09T10:27:49Z</time>
      </trkpt>
      <trkpt lat="45.08065" lon="6.102">
        <ele>1639.2</ele>
        <time>2024-08-09T10:27:50Z</time>
      </trkpt>
      <trkpt lat="45.08064" lon="6.10204">
        <ele>1639.8</ele>
        <time>2024-08-09T10:27:51Z</time>
      </trkpt>
      <trkpt lat="45.08064" lon="6.10204">
        <ele>1640</ele>
        <time>2024-08-09T10:27:52Z</time>
      </trkpt>
      <trkpt lat="45.08064" lon="6.10204">
        <ele>1640</ele>
        <time>2024-08-09T10:27:53Z</time>
      </trkpt>
      <trkpt lat="45.08064" lon="6.10207">
        <ele>1640.2</ele>
        <time>2024-08-09T10:27:54Z</time>
      </trkpt>
      <trkpt lat="45.08064" lon="6.10207">
        <ele>1640.8</ele>
        <time>2024-08-09T10:27:55Z</time>
      </trkpt>
      <trkpt lat="45.08064" lon="6.10207">
        <ele>1641</ele>
        <time>2024-08-09T10:27:56Z</time>
      </trkpt>
      <trkpt lat="45.08063" lon="6.1021">
        <ele>1641.2</ele>
        <time>2024-08-09T10:27:57Z</time>
      </trkpt>
      <trkpt lat="45.08063" lon="6.1021">
        <ele>1641.2</ele>
        <time>2024-08-09T10:27:58Z</time>
      </trkpt>
      <trkpt lat="45.08063" lon="6.1021">
        <ele>1641.6</ele>
        <time>2024-08-09T10:27:59Z</time>
      </trkpt>
      <trkpt lat="45.08061" lon="6.10213">
        <ele>1641.8</ele>
        <time>2024-08-09T10:28:00Z</time>
      </trkpt>
      <trkpt lat="45.08061" lon="6.10213">
        <ele>1642.2</ele>
        <time>2024-08-09T10:28:01Z</time>
      </trkpt>
      <trkpt lat="45.08061" lon="6.10216">
        <ele>1642.4</ele>
        <time>2024-08-09T10:28:02Z</time>
      </trkpt>
      <trkpt lat="45.08061" lon="6.10216">
        <ele>1642.4</ele>
        <time>2024-08-09T10:28:03Z</time>
      </trkpt>
      <trkpt lat="45.0806" lon="6.10218">
        <ele>1642.6</ele>
        <time>2024-08-09T10:28:04Z</time>
      </trkpt>
      <trkpt lat="45.0806" lon="6.10218">
        <ele>1642.6</ele>
        <time>2024-08-09T10:28:05Z</time>
      </trkpt>
      <trkpt lat="45.08059" lon="6.10222">
        <ele>1642.8</ele>
        <time>2024-08-09T10:28:06Z</time>
      </trkpt>
      <trkpt lat="45.08059" lon="6.10222">
        <ele>1642.8</ele>
        <time>2024-08-09T10:28:07Z</time>
      </trkpt>
      <trkpt lat="45.08058" lon="6.10225">
        <ele>1642.8</ele>
        <time>2024-08-09T10:28:08Z</time>
      </trkpt>
      <trkpt lat="45.08058" lon="6.10225">
        <ele>1642.8</ele>
        <time>2024-08-09T10:28:09Z</time>
      </trkpt>
      <trkpt lat="45.08056" lon="6.10228">
        <ele>1642.8</ele>
        <time>2024-08-09T10:28:10Z</time>
      </trkpt>
      <trkpt lat="45.08056" lon="6.10228">
        <ele>1643</ele>
        <time>2024-08-09T10:28:11Z</time>
      </trkpt>
      <trkpt lat="45.08055" lon="6.1023">
        <ele>1643.2</ele>
        <time>2024-08-09T10:28:12Z</time>
      </trkpt>
      <trkpt lat="45.08055" lon="6.1023">
        <ele>1643.2</ele>
        <time>2024-08-09T10:28:13Z</time>
      </trkpt>
      <trkpt lat="45.08054" lon="6.10234">
        <ele>1643</ele>
        <time>2024-08-09T10:28:14Z</time>
      </trkpt>
      <trkpt lat="45.08054" lon="6.10234">
        <ele>1643</ele>
        <time>2024-08-09T10:28:15Z</time>
      </trkpt>
      <trkpt lat="45.08053" lon="6.10237">
        <ele>1643.2</ele>
        <time>2024-08-09T10:28:16Z</time>
      </trkpt>
      <trkpt lat="45.08053" lon="6.10237">
        <ele>1643</ele>
        <time>2024-08-09T10:28:17Z</time>
      </trkpt>
      <trkpt lat="45.08052" lon="6.1024">
        <ele>1643</ele>
        <time>2024-08-09T10:28:18Z</time>
      </trkpt>
      <trkpt lat="45.08052" lon="6.1024">
        <ele>1643</ele>
        <time>2024-08-09T10:28:19Z</time>
      </trkpt>
      <trkpt lat="45.0805" lon="6.10243">
        <ele>1642.8</ele>
        <time>2024-08-09T10:28:20Z</time>
      </trkpt>
      <trkpt lat="45.0805" lon="6.10243">
        <ele>1642.8</ele>
        <time>2024-08-09T10:28:21Z</time>
      </trkpt>
      <trkpt lat="45.08049" lon="6.10246">
        <ele>1643</ele>
        <time>2024-08-09T10:28:22Z</time>
      </trkpt>
      <trkpt lat="45.08049" lon="6.10246">
        <ele>1643</ele>
        <time>2024-08-09T10:28:23Z</time>
      </trkpt>
      <trkpt lat="45.08048" lon="6.10249">
        <ele>1642.8</ele>
        <time>2024-08-09T10:28:24Z</time>
      </trkpt>
      <trkpt lat="45.08048" lon="6.10249">
        <ele>1642.6</ele>
        <time>2024-08-09T10:28:25Z</time>
      </trkpt>
      <trkpt lat="45.08047" lon="6.10253">
        <ele>1642.6</ele>
        <time>2024-08-09T10:28:26Z</time>
      </trkpt>
      <trkpt lat="45.08047" lon="6.10253">
        <ele>1642.6</ele>
        <time>2024-08-09T10:28:27Z</time>
      </trkpt>
      <trkpt lat="45.08047" lon="6.10255">
        <ele>1642.8</ele>
        <time>2024-08-09T10:28:28Z</time>
      </trkpt>
      <trkpt lat="45.08047" lon="6.10255">
        <ele>1643</ele>
        <time>2024-08-09T10:28:29Z</time>
      </trkpt>
      <trkpt lat="45.08047" lon="6.10258">
        <ele>1643</ele>
        <time>2024-08-09T10:28:30Z</time>
      </trkpt>
      <trkpt lat="45.08047" lon="6.10258">
        <ele>1642.8</ele>
        <time>2024-08-09T10:28:31Z</time>
      </trkpt>
      <trkpt lat="45.08047" lon="6.10262">
        <ele>1642.8</ele>
        <time>2024-08-09T10:28:32Z</time>
      </trkpt>
      <trkpt lat="45.08047" lon="6.10262">
        <ele>1642.8</ele>
        <time>2024-08-09T10:28:33Z</time>
      </trkpt>
      <trkpt lat="45.08047" lon="6.10262">
        <ele>1643.2</ele>
        <time>2024-08-09T10:28:34Z</time>
      </trkpt>
      <trkpt lat="45.08047" lon="6.10265">
        <ele>1643.4</ele>
        <time>2024-08-09T10:28:35Z</time>
      </trkpt>
      <trkpt lat="45.08047" lon="6.10265">
        <ele>1643.4</ele>
        <time>2024-08-09T10:28:36Z</time>
      </trkpt>
      <trkpt lat="45.08047" lon="6.10265">
        <ele>1643.4</ele>
        <time>2024-08-09T10:28:37Z</time>
      </trkpt>
      <trkpt lat="45.08047" lon="6.10265">
        <ele>1643.4</ele>
        <time>2024-08-09T10:28:38Z</time>
      </trkpt>
      <trkpt lat="45.08047" lon="6.10265">
        <ele>1643.4</ele>
        <time>2024-08-09T10:28:39Z</time>
      </trkpt>
      <trkpt lat="45.08047" lon="6.10265">
        <ele>1643.4</ele>
        <time>2024-08-09T10:28:40Z</time>
      </trkpt>
      <trkpt lat="45.08047" lon="6.10265">
        <ele>1643.6</ele>
        <time>2024-08-09T10:28:41Z</time>
      </trkpt>
      <trkpt lat="45.08047" lon="6.10265">
        <ele>1643.6</ele>
        <time>2024-08-09T10:28:42Z</time>
      </trkpt>
      <trkpt lat="45.08047" lon="6.10265">
        <ele>1643.4</ele>
        <time>2024-08-09T10:28:43Z</time>
      </trkpt>
      <trkpt lat="45.08047" lon="6.10265">
        <ele>1643.4</ele>
        <time>2024-08-09T10:28:44Z</time>
      </trkpt>
      <trkpt lat="45.08047" lon="6.10265">
        <ele>1643.2</ele>
        <time>2024-08-09T10:28:45Z</time>
      </trkpt>
      <trkpt lat="45.08047" lon="6.10265">
        <ele>1643.2</ele>
        <time>2024-08-09T10:28:46Z</time>
      </trkpt>
      <trkpt lat="45.08047" lon="6.10265">
        <ele>1643</ele>
        <time>2024-08-09T10:28:47Z</time>
      </trkpt>
      <trkpt lat="45.08047" lon="6.10265">
        <ele>1643</ele>
        <time>2024-08-09T10:28:48Z</time>
      </trkpt>
      <trkpt lat="45.08047" lon="6.10265">
        <ele>1642.6</ele>
        <time>2024-08-09T10:28:49Z</time>
      </trkpt>
      <trkpt lat="45.08047" lon="6.10265">
        <ele>1642.6</ele>
        <time>2024-08-09T10:28:50Z</time>
      </trkpt>
      <trkpt lat="45.08047" lon="6.10265">
        <ele>1642.6</ele>
        <time>2024-08-09T10:28:51Z</time>
      </trkpt>
      <trkpt lat="45.08047" lon="6.10265">
        <ele>1642.6</ele>
        <time>2024-08-09T10:28:52Z</time>
      </trkpt>
      <trkpt lat="45.08047" lon="6.10265">
        <ele>1642.6</ele>
        <time>2024-08-09T10:28:53Z</time>
      </trkpt>
      <trkpt lat="45.08047" lon="6.10265">
        <ele>1642.6</ele>
        <time>2024-08-09T10:28:54Z</time>
      </trkpt>
      <trkpt lat="45.08047" lon="6.10265">
        <ele>1642.8</ele>
        <time>2024-08-09T10:28:55Z</time>
      </trkpt>
      <trkpt lat="45.08047" lon="6.10265">
        <ele>1642.8</ele>
        <time>2024-08-09T10:28:56Z</time>
      </trkpt>
      <trkpt lat="45.08047" lon="6.10265">
        <ele>1642.6</ele>
        <time>2024-08-09T10:28:57Z</time>
      </trkpt>
      <trkpt lat="45.08047" lon="6.10265">
        <ele>1642.4</ele>
        <time>2024-08-09T10:28:58Z</time>
      </trkpt>
      <trkpt lat="45.08047" lon="6.10265">
        <ele>1642.4</ele>
        <time>2024-08-09T10:28:59Z</time>
      </trkpt>
      <trkpt lat="45.08047" lon="6.10265">
        <ele>1642.4</ele>
        <time>2024-08-09T10:29:00Z</time>
      </trkpt>
      <trkpt lat="45.08047" lon="6.10265">
        <ele>1642.2</ele>
        <time>2024-08-09T10:29:01Z</time>
      </trkpt>
      <trkpt lat="45.08047" lon="6.10265">
        <ele>1642.2</ele>
        <time>2024-08-09T10:29:02Z</time>
      </trkpt>
      <trkpt lat="45.08047" lon="6.10265">
        <ele>1642.2</ele>
        <time>2024-08-09T10:29:03Z</time>
      </trkpt>
      <trkpt lat="45.08047" lon="6.10265">
        <ele>1642.2</ele>
        <time>2024-08-09T10:29:04Z</time>
      </trkpt>
      <trkpt lat="45.08047" lon="6.10265">
        <ele>1642.2</ele>
        <time>2024-08-09T10:29:05Z</time>
      </trkpt>
      <trkpt lat="45.08047" lon="6.10265">
        <ele>1642.2</ele>
        <time>2024-08-09T10:29:06Z</time>
      </trkpt>
      <trkpt lat="45.08047" lon="6.10265">
        <ele>1642.2</ele>
        <time>2024-08-09T10:29:07Z</time>
      </trkpt>
      <trkpt lat="45.08047" lon="6.10265">
        <ele>1642</ele>
        <time>2024-08-09T10:29:08Z</time>
      </trkpt>
      <trkpt lat="45.08047" lon="6.10265">
        <ele>1642</ele>
        <time>2024-08-09T10:29:09Z</time>
      </trkpt>
      <trkpt lat="45.08047" lon="6.10265">
        <ele>1642</ele>
        <time>2024-08-09T10:29:10Z</time>
      </trkpt>
      <trkpt lat="45.08047" lon="6.10265">
        <ele>1641.8</ele>
        <time>2024-08-09T10:29:11Z</time>
      </trkpt>
      <trkpt lat="45.08047" lon="6.10265">
        <ele>1641.8</ele>
        <time>2024-08-09T10:29:12Z</time>
      </trkpt>
      <trkpt lat="45.08047" lon="6.10265">
        <ele>1641.8</ele>
        <time>2024-08-09T10:29:13Z</time>
      </trkpt>
      <trkpt lat="45.08045" lon="6.10266">
        <ele>1641.8</ele>
        <time>2024-08-09T10:29:14Z</time>
      </trkpt>
      <trkpt lat="45.08045" lon="6.10266">
        <ele>1641.8</ele>
        <time>2024-08-09T10:29:15Z</time>
      </trkpt>
      <trkpt lat="45.08043" lon="6.10268">
        <ele>1641.8</ele>
        <time>2024-08-09T10:29:16Z</time>
      </trkpt>
      <trkpt lat="45.08043" lon="6.10268">
        <ele>1641.8</ele>
        <time>2024-08-09T10:29:17Z</time>
      </trkpt>
      <trkpt lat="45.08041" lon="6.1027">
        <ele>1641.6</ele>
        <time>2024-08-09T10:29:18Z</time>
      </trkpt>
      <trkpt lat="45.08041" lon="6.1027">
        <ele>1641.6</ele>
        <time>2024-08-09T10:29:19Z</time>
      </trkpt>
      <trkpt lat="45.08041" lon="6.1027">
        <ele>1641.6</ele>
        <time>2024-08-09T10:29:20Z</time>
      </trkpt>
      <trkpt lat="45.08042" lon="6.10272">
        <ele>1641.4</ele>
        <time>2024-08-09T10:29:21Z</time>
      </trkpt>
      <trkpt lat="45.08042" lon="6.10272">
        <ele>1641.4</ele>
        <time>2024-08-09T10:29:22Z</time>
      </trkpt>
      <trkpt lat="45.08042" lon="6.10272">
        <ele>1641.4</ele>
        <time>2024-08-09T10:29:23Z</time>
      </trkpt>
      <trkpt lat="45.08042" lon="6.10272">
        <ele>1641.4</ele>
        <time>2024-08-09T10:29:24Z</time>
      </trkpt>
      <trkpt lat="45.08042" lon="6.10272">
        <ele>1641.8</ele>
        <time>2024-08-09T10:29:25Z</time>
      </trkpt>
      <trkpt lat="45.08042" lon="6.10272">
        <ele>1642</ele>
        <time>2024-08-09T10:29:26Z</time>
      </trkpt>
      <trkpt lat="45.08044" lon="6.10274">
        <ele>1642</ele>
        <time>2024-08-09T10:29:27Z</time>
      </trkpt>
      <trkpt lat="45.08044" lon="6.10274">
        <ele>1641.8</ele>
        <time>2024-08-09T10:29:28Z</time>
      </trkpt>
      <trkpt lat="45.08044" lon="6.10274">
        <ele>1641.6</ele>
        <time>2024-08-09T10:29:29Z</time>
      </trkpt>
      <trkpt lat="45.08044" lon="6.10274">
        <ele>1641.4</ele>
        <time>2024-08-09T10:29:30Z</time>
      </trkpt>
      <trkpt lat="45.08044" lon="6.10274">
        <ele>1641.4</ele>
        <time>2024-08-09T10:29:31Z</time>
      </trkpt>
      <trkpt lat="45.08044" lon="6.10274">
        <ele>1641.4</ele>
        <time>2024-08-09T10:29:32Z</time>
      </trkpt>
      <trkpt lat="45.08044" lon="6.10274">
        <ele>1641.6</ele>
        <time>2024-08-09T10:29:33Z</time>
      </trkpt>
      <trkpt lat="45.08044" lon="6.10274">
        <ele>1641.6</ele>
        <time>2024-08-09T10:29:34Z</time>
      </trkpt>
      <trkpt lat="45.08044" lon="6.10274">
        <ele>1641.4</ele>
        <time>2024-08-09T10:29:35Z</time>
      </trkpt>
      <trkpt lat="45.08044" lon="6.10274">
        <ele>1641.4</ele>
        <time>2024-08-09T10:29:36Z</time>
      </trkpt>
      <trkpt lat="45.08044" lon="6.10274">
        <ele>1641.6</ele>
        <time>2024-08-09T10:29:37Z</time>
      </trkpt>
      <trkpt lat="45.08044" lon="6.10274">
        <ele>1641.6</ele>
        <time>2024-08-09T10:29:38Z</time>
      </trkpt>
      <trkpt lat="45.08044" lon="6.10274">
        <ele>1641.8</ele>
        <time>2024-08-09T10:29:39Z</time>
      </trkpt>
      <trkpt lat="45.08044" lon="6.10274">
        <ele>1641.4</ele>
        <time>2024-08-09T10:29:40Z</time>
      </trkpt>
      <trkpt lat="45.08044" lon="6.10274">
        <ele>1641.4</ele>
        <time>2024-08-09T10:29:41Z</time>
      </trkpt>
      <trkpt lat="45.08044" lon="6.10274">
        <ele>1641.4</ele>
        <time>2024-08-09T10:29:42Z</time>
      </trkpt>
      <trkpt lat="45.08044" lon="6.10274">
        <ele>1641.4</ele>
        <time>2024-08-09T10:29:43Z</time>
      </trkpt>
      <trkpt lat="45.08044" lon="6.10274">
        <ele>1641.4</ele>
        <time>2024-08-09T10:29:44Z</time>
      </trkpt>
      <trkpt lat="45.08044" lon="6.10274">
        <ele>1641.6</ele>
        <time>2024-08-09T10:29:45Z</time>
      </trkpt>
      <trkpt lat="45.08044" lon="6.10274">
        <ele>1641.8</ele>
        <time>2024-08-09T10:29:46Z</time>
      </trkpt>
      <trkpt lat="45.08044" lon="6.10274">
        <ele>1641.8</ele>
        <time>2024-08-09T10:29:47Z</time>
      </trkpt>
      <trkpt lat="45.08044" lon="6.10274">
        <ele>1641.8</ele>
        <time>2024-08-09T10:29:48Z</time>
      </trkpt>
      <trkpt lat="45.08044" lon="6.10274">
        <ele>1641.8</ele>
        <time>2024-08-09T10:29:49Z</time>
      </trkpt>
      <trkpt lat="45.08044" lon="6.10274">
        <ele>1641.8</ele>
        <time>2024-08-09T10:29:50Z</time>
      </trkpt>
      <trkpt lat="45.08044" lon="6.10274">
        <ele>1641.8</ele>
        <time>2024-08-09T10:29:51Z</time>
      </trkpt>
      <trkpt lat="45.08044" lon="6.10274">
        <ele>1641.8</ele>
        <time>2024-08-09T10:29:52Z</time>
      </trkpt>
      <trkpt lat="45.08044" lon="6.10274">
        <ele>1641.6</ele>
        <time>2024-08-09T10:29:53Z</time>
      </trkpt>
      <trkpt lat="45.08041" lon="6.10276">
        <ele>1641.6</ele>
        <time>2024-08-09T10:29:54Z</time>
      </trkpt>
      <trkpt lat="45.08039" lon="6.10278">
        <ele>1641.6</ele>
        <time>2024-08-09T10:29:55Z</time>
      </trkpt>
      <trkpt lat="45.08039" lon="6.10278">
        <ele>1641.8</ele>
        <time>2024-08-09T10:29:56Z</time>
      </trkpt>
      <trkpt lat="45.08037" lon="6.10281">
        <ele>1641.8</ele>
        <time>2024-08-09T10:29:57Z</time>
      </trkpt>
      <trkpt lat="45.08037" lon="6.10281">
        <ele>1641.8</ele>
        <time>2024-08-09T10:29:58Z</time>
      </trkpt>
      <trkpt lat="45.08033" lon="6.10283">
        <ele>1641.8</ele>
        <time>2024-08-09T10:29:59Z</time>
      </trkpt>
      <trkpt lat="45.08033" lon="6.10283">
        <ele>1641.8</ele>
        <time>2024-08-09T10:30:01Z</time>
      </trkpt>
      <trkpt lat="45.08032" lon="6.10284">
        <ele>1641.8</ele>
        <time>2024-08-09T10:30:02Z</time>
      </trkpt>
      <trkpt lat="45.08029" lon="6.10285">
        <ele>1641.4</ele>
        <time>2024-08-09T10:30:03Z</time>
      </trkpt>
      <trkpt lat="45.08029" lon="6.10285">
        <ele>1641.4</ele>
        <time>2024-08-09T10:30:04Z</time>
      </trkpt>
      <trkpt lat="45.08027" lon="6.10287">
        <ele>1641.4</ele>
        <time>2024-08-09T10:30:05Z</time>
      </trkpt>
      <trkpt lat="45.08027" lon="6.10287">
        <ele>1641.6</ele>
        <time>2024-08-09T10:30:06Z</time>
      </trkpt>
      <trkpt lat="45.08025" lon="6.10288">
        <ele>1641.8</ele>
        <time>2024-08-09T10:30:07Z</time>
      </trkpt>
      <trkpt lat="45.08025" lon="6.10288">
        <ele>1641.8</ele>
        <time>2024-08-09T10:30:08Z</time>
      </trkpt>
      <trkpt lat="45.08023" lon="6.10289">
        <ele>1641.8</ele>
        <time>2024-08-09T10:30:09Z</time>
      </trkpt>
      <trkpt lat="45.08023" lon="6.10289">
        <ele>1641.8</ele>
        <time>2024-08-09T10:30:10Z</time>
      </trkpt>
      <trkpt lat="45.0802" lon="6.10291">
        <ele>1642</ele>
        <time>2024-08-09T10:30:11Z</time>
      </trkpt>
      <trkpt lat="45.0802" lon="6.10291">
        <ele>1642.2</ele>
        <time>2024-08-09T10:30:12Z</time>
      </trkpt>
      <trkpt lat="45.08018" lon="6.10293">
        <ele>1642.2</ele>
        <time>2024-08-09T10:30:13Z</time>
      </trkpt>
      <trkpt lat="45.08018" lon="6.10293">
        <ele>1642.6</ele>
        <time>2024-08-09T10:30:14Z</time>
      </trkpt>
      <trkpt lat="45.08016" lon="6.10295">
        <ele>1643</ele>
        <time>2024-08-09T10:30:15Z</time>
      </trkpt>
      <trkpt lat="45.08016" lon="6.10295">
        <ele>1643</ele>
        <time>2024-08-09T10:30:16Z</time>
      </trkpt>
      <trkpt lat="45.08013" lon="6.10298">
        <ele>1643.2</ele>
        <time>2024-08-09T10:30:17Z</time>
      </trkpt>
      <trkpt lat="45.08013" lon="6.10298">
        <ele>1643.2</ele>
        <time>2024-08-09T10:30:18Z</time>
      </trkpt>
      <trkpt lat="45.08011" lon="6.103">
        <ele>1643.8</ele>
        <time>2024-08-09T10:30:19Z</time>
      </trkpt>
      <trkpt lat="45.08011" lon="6.103">
        <ele>1643.8</ele>
        <time>2024-08-09T10:30:20Z</time>
      </trkpt>
      <trkpt lat="45.08009" lon="6.10302">
        <ele>1644</ele>
        <time>2024-08-09T10:30:21Z</time>
      </trkpt>
      <trkpt lat="45.08009" lon="6.10302">
        <ele>1644</ele>
        <time>2024-08-09T10:30:22Z</time>
      </trkpt>
      <trkpt lat="45.08009" lon="6.10302">
        <ele>1644.2</ele>
        <time>2024-08-09T10:30:23Z</time>
      </trkpt>
      <trkpt lat="45.08007" lon="6.10304">
        <ele>1644.2</ele>
        <time>2024-08-09T10:30:24Z</time>
      </trkpt>
      <trkpt lat="45.08007" lon="6.10304">
        <ele>1644.6</ele>
        <time>2024-08-09T10:30:25Z</time>
      </trkpt>
      <trkpt lat="45.08005" lon="6.10306">
        <ele>1645</ele>
        <time>2024-08-09T10:30:26Z</time>
      </trkpt>
      <trkpt lat="45.08005" lon="6.10306">
        <ele>1645</ele>
        <time>2024-08-09T10:30:27Z</time>
      </trkpt>
      <trkpt lat="45.08004" lon="6.10308">
        <ele>1645</ele>
        <time>2024-08-09T10:30:28Z</time>
      </trkpt>
      <trkpt lat="45.08004" lon="6.10308">
        <ele>1645</ele>
        <time>2024-08-09T10:30:29Z</time>
      </trkpt>
      <trkpt lat="45.08003" lon="6.10311">
        <ele>1645.4</ele>
        <time>2024-08-09T10:30:30Z</time>
      </trkpt>
      <trkpt lat="45.08003" lon="6.10311">
        <ele>1645.4</ele>
        <time>2024-08-09T10:30:31Z</time>
      </trkpt>
      <trkpt lat="45.08001" lon="6.10313">
        <ele>1645.8</ele>
        <time>2024-08-09T10:30:32Z</time>
      </trkpt>
      <trkpt lat="45.08001" lon="6.10313">
        <ele>1646</ele>
        <time>2024-08-09T10:30:33Z</time>
      </trkpt>
      <trkpt lat="45.07999" lon="6.10315">
        <ele>1646</ele>
        <time>2024-08-09T10:30:34Z</time>
      </trkpt>
      <trkpt lat="45.07999" lon="6.10315">
        <ele>1646.2</ele>
        <time>2024-08-09T10:30:35Z</time>
      </trkpt>
      <trkpt lat="45.07997" lon="6.10317">
        <ele>1646.2</ele>
        <time>2024-08-09T10:30:36Z</time>
      </trkpt>
      <trkpt lat="45.07997" lon="6.10317">
        <ele>1646.2</ele>
        <time>2024-08-09T10:30:37Z</time>
      </trkpt>
      <trkpt lat="45.07995" lon="6.10319">
        <ele>1646.4</ele>
        <time>2024-08-09T10:30:38Z</time>
      </trkpt>
      <trkpt lat="45.07995" lon="6.10319">
        <ele>1646.6</ele>
        <time>2024-08-09T10:30:39Z</time>
      </trkpt>
      <trkpt lat="45.07993" lon="6.10321">
        <ele>1646.6</ele>
        <time>2024-08-09T10:30:40Z</time>
      </trkpt>
      <trkpt lat="45.07993" lon="6.10321">
        <ele>1646.8</ele>
        <time>2024-08-09T10:30:41Z</time>
      </trkpt>
      <trkpt lat="45.07991" lon="6.10323">
        <ele>1646.8</ele>
        <time>2024-08-09T10:30:42Z</time>
      </trkpt>
      <trkpt lat="45.07991" lon="6.10323">
        <ele>1646.8</ele>
        <time>2024-08-09T10:30:43Z</time>
      </trkpt>
      <trkpt lat="45.07989" lon="6.10325">
        <ele>1647</ele>
        <time>2024-08-09T10:30:44Z</time>
      </trkpt>
      <trkpt lat="45.07989" lon="6.10325">
        <ele>1647</ele>
        <time>2024-08-09T10:30:45Z</time>
      </trkpt>
      <trkpt lat="45.07988" lon="6.10327">
        <ele>1647.2</ele>
        <time>2024-08-09T10:30:46Z</time>
      </trkpt>
      <trkpt lat="45.07988" lon="6.10327">
        <ele>1647.4</ele>
        <time>2024-08-09T10:30:47Z</time>
      </trkpt>
      <trkpt lat="45.07987" lon="6.1033">
        <ele>1647.4</ele>
        <time>2024-08-09T10:30:48Z</time>
      </trkpt>
      <trkpt lat="45.07987" lon="6.1033">
        <ele>1647.6</ele>
        <time>2024-08-09T10:30:49Z</time>
      </trkpt>
      <trkpt lat="45.07987" lon="6.1033">
        <ele>1647.8</ele>
        <time>2024-08-09T10:30:50Z</time>
      </trkpt>
      <trkpt lat="45.07985" lon="6.10333">
        <ele>1648</ele>
        <time>2024-08-09T10:30:51Z</time>
      </trkpt>
      <trkpt lat="45.07985" lon="6.10333">
        <ele>1648.2</ele>
        <time>2024-08-09T10:30:52Z</time>
      </trkpt>
      <trkpt lat="45.07983" lon="6.10335">
        <ele>1648.2</ele>
        <time>2024-08-09T10:30:53Z</time>
      </trkpt>
      <trkpt lat="45.07983" lon="6.10335">
        <ele>1648.2</ele>
        <time>2024-08-09T10:30:54Z</time>
      </trkpt>
      <trkpt lat="45.07982" lon="6.10338">
        <ele>1648.4</ele>
        <time>2024-08-09T10:30:55Z</time>
      </trkpt>
      <trkpt lat="45.07982" lon="6.10338">
        <ele>1648.4</ele>
        <time>2024-08-09T10:30:56Z</time>
      </trkpt>
      <trkpt lat="45.07981" lon="6.10341">
        <ele>1648.8</ele>
        <time>2024-08-09T10:30:57Z</time>
      </trkpt>
      <trkpt lat="45.07981" lon="6.10341">
        <ele>1649</ele>
        <time>2024-08-09T10:30:58Z</time>
      </trkpt>
      <trkpt lat="45.0798" lon="6.10344">
        <ele>1649</ele>
        <time>2024-08-09T10:30:59Z</time>
      </trkpt>
      <trkpt lat="45.0798" lon="6.10344">
        <ele>1649.2</ele>
        <time>2024-08-09T10:31:00Z</time>
      </trkpt>
      <trkpt lat="45.07979" lon="6.10348">
        <ele>1649.2</ele>
        <time>2024-08-09T10:31:01Z</time>
      </trkpt>
      <trkpt lat="45.07979" lon="6.10348">
        <ele>1649.2</ele>
        <time>2024-08-09T10:31:02Z</time>
      </trkpt>
      <trkpt lat="45.07979" lon="6.10351">
        <ele>1649.4</ele>
        <time>2024-08-09T10:31:03Z</time>
      </trkpt>
      <trkpt lat="45.07979" lon="6.10351">
        <ele>1649.8</ele>
        <time>2024-08-09T10:31:04Z</time>
      </trkpt>
      <trkpt lat="45.07978" lon="6.10355">
        <ele>1649.8</ele>
        <time>2024-08-09T10:31:05Z</time>
      </trkpt>
      <trkpt lat="45.07978" lon="6.10355">
        <ele>1650</ele>
        <time>2024-08-09T10:31:06Z</time>
      </trkpt>
      <trkpt lat="45.07978" lon="6.10358">
        <ele>1650.2</ele>
        <time>2024-08-09T10:31:07Z</time>
      </trkpt>
      <trkpt lat="45.07978" lon="6.10358">
        <ele>1650.4</ele>
        <time>2024-08-09T10:31:08Z</time>
      </trkpt>
      <trkpt lat="45.07977" lon="6.10361">
        <ele>1650.6</ele>
        <time>2024-08-09T10:31:09Z</time>
      </trkpt>
      <trkpt lat="45.07977" lon="6.10361">
        <ele>1650.6</ele>
        <time>2024-08-09T10:31:10Z</time>
      </trkpt>
      <trkpt lat="45.07975" lon="6.10364">
        <ele>1650.8</ele>
        <time>2024-08-09T10:31:11Z</time>
      </trkpt>
      <trkpt lat="45.07975" lon="6.10364">
        <ele>1651</ele>
        <time>2024-08-09T10:31:12Z</time>
      </trkpt>
      <trkpt lat="45.07973" lon="6.10368">
        <ele>1651</ele>
        <time>2024-08-09T10:31:13Z</time>
      </trkpt>
      <trkpt lat="45.07973" lon="6.10368">
        <ele>1651</ele>
        <time>2024-08-09T10:31:14Z</time>
      </trkpt>
      <trkpt lat="45.07973" lon="6.10371">
        <ele>1651</ele>
        <time>2024-08-09T10:31:15Z</time>
      </trkpt>
      <trkpt lat="45.07973" lon="6.10371">
        <ele>1651.2</ele>
        <time>2024-08-09T10:31:16Z</time>
      </trkpt>
      <trkpt lat="45.07971" lon="6.10374">
        <ele>1651.2</ele>
        <time>2024-08-09T10:31:17Z</time>
      </trkpt>
      <trkpt lat="45.07971" lon="6.10374">
        <ele>1651.2</ele>
        <time>2024-08-09T10:31:18Z</time>
      </trkpt>
      <trkpt lat="45.0797" lon="6.10378">
        <ele>1651.2</ele>
        <time>2024-08-09T10:31:19Z</time>
      </trkpt>
      <trkpt lat="45.0797" lon="6.10378">
        <ele>1651.4</ele>
        <time>2024-08-09T10:31:20Z</time>
      </trkpt>
      <trkpt lat="45.07969" lon="6.10381">
        <ele>1651.6</ele>
        <time>2024-08-09T10:31:21Z</time>
      </trkpt>
      <trkpt lat="45.07969" lon="6.10381">
        <ele>1651.6</ele>
        <time>2024-08-09T10:31:22Z</time>
      </trkpt>
      <trkpt lat="45.07968" lon="6.10383">
        <ele>1651.8</ele>
        <time>2024-08-09T10:31:23Z</time>
      </trkpt>
      <trkpt lat="45.07968" lon="6.10383">
        <ele>1651.8</ele>
        <time>2024-08-09T10:31:24Z</time>
      </trkpt>
      <trkpt lat="45.07967" lon="6.10386">
        <ele>1652</ele>
        <time>2024-08-09T10:31:25Z</time>
      </trkpt>
      <trkpt lat="45.07967" lon="6.10386">
        <ele>1652.2</ele>
        <time>2024-08-09T10:31:26Z</time>
      </trkpt>
      <trkpt lat="45.07965" lon="6.10389">
        <ele>1652.2</ele>
        <time>2024-08-09T10:31:27Z</time>
      </trkpt>
      <trkpt lat="45.07965" lon="6.10389">
        <ele>1652.2</ele>
        <time>2024-08-09T10:31:28Z</time>
      </trkpt>
      <trkpt lat="45.07964" lon="6.10392">
        <ele>1652.2</ele>
        <time>2024-08-09T10:31:29Z</time>
      </trkpt>
      <trkpt lat="45.07964" lon="6.10392">
        <ele>1652.4</ele>
        <time>2024-08-09T10:31:30Z</time>
      </trkpt>
      <trkpt lat="45.07962" lon="6.10395">
        <ele>1652.4</ele>
        <time>2024-08-09T10:31:31Z</time>
      </trkpt>
      <trkpt lat="45.07962" lon="6.10395">
        <ele>1652.6</ele>
        <time>2024-08-09T10:31:32Z</time>
      </trkpt>
      <trkpt lat="45.0796" lon="6.10398">
        <ele>1652.6</ele>
        <time>2024-08-09T10:31:33Z</time>
      </trkpt>
      <trkpt lat="45.0796" lon="6.10398">
        <ele>1652.8</ele>
        <time>2024-08-09T10:31:34Z</time>
      </trkpt>
      <trkpt lat="45.07959" lon="6.10401">
        <ele>1652.8</ele>
        <time>2024-08-09T10:31:35Z</time>
      </trkpt>
      <trkpt lat="45.07959" lon="6.10401">
        <ele>1652.8</ele>
        <time>2024-08-09T10:31:36Z</time>
      </trkpt>
      <trkpt lat="45.07957" lon="6.10404">
        <ele>1652.6</ele>
        <time>2024-08-09T10:31:37Z</time>
      </trkpt>
      <trkpt lat="45.07957" lon="6.10404">
        <ele>1652.6</ele>
        <time>2024-08-09T10:31:38Z</time>
      </trkpt>
      <trkpt lat="45.07955" lon="6.10407">
        <ele>1652.6</ele>
        <time>2024-08-09T10:31:39Z</time>
      </trkpt>
      <trkpt lat="45.07955" lon="6.10407">
        <ele>1652.8</ele>
        <time>2024-08-09T10:31:40Z</time>
      </trkpt>
      <trkpt lat="45.07952" lon="6.10408">
        <ele>1652.8</ele>
        <time>2024-08-09T10:31:41Z</time>
      </trkpt>
      <trkpt lat="45.07952" lon="6.10408">
        <ele>1652.6</ele>
        <time>2024-08-09T10:31:42Z</time>
      </trkpt>
      <trkpt lat="45.0795" lon="6.1041">
        <ele>1652.4</ele>
        <time>2024-08-09T10:31:43Z</time>
      </trkpt>
      <trkpt lat="45.0795" lon="6.1041">
        <ele>1652.4</ele>
        <time>2024-08-09T10:31:44Z</time>
      </trkpt>
      <trkpt lat="45.07949" lon="6.10414">
        <ele>1652.6</ele>
        <time>2024-08-09T10:31:45Z</time>
      </trkpt>
      <trkpt lat="45.07949" lon="6.10414">
        <ele>1652.8</ele>
        <time>2024-08-09T10:31:46Z</time>
      </trkpt>
      <trkpt lat="45.07947" lon="6.10417">
        <ele>1653</ele>
        <time>2024-08-09T10:31:47Z</time>
      </trkpt>
      <trkpt lat="45.07947" lon="6.10417">
        <ele>1653</ele>
        <time>2024-08-09T10:31:48Z</time>
      </trkpt>
      <trkpt lat="45.07945" lon="6.10419">
        <ele>1653</ele>
        <time>2024-08-09T10:31:49Z</time>
      </trkpt>
      <trkpt lat="45.07945" lon="6.10419">
        <ele>1653</ele>
        <time>2024-08-09T10:31:50Z</time>
      </trkpt>
      <trkpt lat="45.07943" lon="6.10421">
        <ele>1653.2</ele>
        <time>2024-08-09T10:31:51Z</time>
      </trkpt>
      <trkpt lat="45.07943" lon="6.10421">
        <ele>1653.2</ele>
        <time>2024-08-09T10:31:52Z</time>
      </trkpt>
      <trkpt lat="45.0794" lon="6.10423">
        <ele>1653.2</ele>
        <time>2024-08-09T10:31:53Z</time>
      </trkpt>
      <trkpt lat="45.0794" lon="6.10423">
        <ele>1653</ele>
        <time>2024-08-09T10:31:54Z</time>
      </trkpt>
      <trkpt lat="45.07939" lon="6.10426">
        <ele>1653</ele>
        <time>2024-08-09T10:31:55Z</time>
      </trkpt>
      <trkpt lat="45.07939" lon="6.10426">
        <ele>1653</ele>
        <time>2024-08-09T10:31:56Z</time>
      </trkpt>
      <trkpt lat="45.07936" lon="6.10428">
        <ele>1653.2</ele>
        <time>2024-08-09T10:31:57Z</time>
      </trkpt>
      <trkpt lat="45.07936" lon="6.10428">
        <ele>1653.2</ele>
        <time>2024-08-09T10:31:58Z</time>
      </trkpt>
      <trkpt lat="45.07934" lon="6.1043">
        <ele>1653.2</ele>
        <time>2024-08-09T10:31:59Z</time>
      </trkpt>
      <trkpt lat="45.07934" lon="6.1043">
        <ele>1653.2</ele>
        <time>2024-08-09T10:32:00Z</time>
      </trkpt>
      <trkpt lat="45.07932" lon="6.10432">
        <ele>1653.2</ele>
        <time>2024-08-09T10:32:01Z</time>
      </trkpt>
      <trkpt lat="45.07932" lon="6.10432">
        <ele>1653.2</ele>
        <time>2024-08-09T10:32:02Z</time>
      </trkpt>
      <trkpt lat="45.0793" lon="6.10434">
        <ele>1653.2</ele>
        <time>2024-08-09T10:32:03Z</time>
      </trkpt>
      <trkpt lat="45.0793" lon="6.10434">
        <ele>1653.4</ele>
        <time>2024-08-09T10:32:04Z</time>
      </trkpt>
      <trkpt lat="45.07928" lon="6.10437">
        <ele>1653.4</ele>
        <time>2024-08-09T10:32:05Z</time>
      </trkpt>
      <trkpt lat="45.07928" lon="6.10437">
        <ele>1653.2</ele>
        <time>2024-08-09T10:32:06Z</time>
      </trkpt>
      <trkpt lat="45.07926" lon="6.10439">
        <ele>1653.2</ele>
        <time>2024-08-09T10:32:07Z</time>
      </trkpt>
      <trkpt lat="45.07926" lon="6.10439">
        <ele>1653.2</ele>
        <time>2024-08-09T10:32:08Z</time>
      </trkpt>
      <trkpt lat="45.07925" lon="6.10441">
        <ele>1653.4</ele>
        <time>2024-08-09T10:32:09Z</time>
      </trkpt>
      <trkpt lat="45.07925" lon="6.10441">
        <ele>1653.4</ele>
        <time>2024-08-09T10:32:10Z</time>
      </trkpt>
      <trkpt lat="45.07923" lon="6.10444">
        <ele>1653.6</ele>
        <time>2024-08-09T10:32:11Z</time>
      </trkpt>
      <trkpt lat="45.07923" lon="6.10444">
        <ele>1653.6</ele>
        <time>2024-08-09T10:32:12Z</time>
      </trkpt>
      <trkpt lat="45.07921" lon="6.10447">
        <ele>1653.6</ele>
        <time>2024-08-09T10:32:13Z</time>
      </trkpt>
      <trkpt lat="45.07921" lon="6.10447">
        <ele>1653.8</ele>
        <time>2024-08-09T10:32:14Z</time>
      </trkpt>
      <trkpt lat="45.07919" lon="6.1045">
        <ele>1653.8</ele>
        <time>2024-08-09T10:32:15Z</time>
      </trkpt>
      <trkpt lat="45.07919" lon="6.1045">
        <ele>1653.8</ele>
        <time>2024-08-09T10:32:16Z</time>
      </trkpt>
      <trkpt lat="45.07917" lon="6.10452">
        <ele>1653.8</ele>
        <time>2024-08-09T10:32:17Z</time>
      </trkpt>
      <trkpt lat="45.07917" lon="6.10452">
        <ele>1653.8</ele>
        <time>2024-08-09T10:32:18Z</time>
      </trkpt>
      <trkpt lat="45.07916" lon="6.10454">
        <ele>1653.8</ele>
        <time>2024-08-09T10:32:19Z</time>
      </trkpt>
      <trkpt lat="45.07916" lon="6.10454">
        <ele>1653.8</ele>
        <time>2024-08-09T10:32:20Z</time>
      </trkpt>
      <trkpt lat="45.07914" lon="6.10457">
        <ele>1654</ele>
        <time>2024-08-09T10:32:21Z</time>
      </trkpt>
      <trkpt lat="45.07914" lon="6.10457">
        <ele>1654</ele>
        <time>2024-08-09T10:32:22Z</time>
      </trkpt>
      <trkpt lat="45.07912" lon="6.10459">
        <ele>1654</ele>
        <time>2024-08-09T10:32:23Z</time>
      </trkpt>
      <trkpt lat="45.07912" lon="6.10459">
        <ele>1653.8</ele>
        <time>2024-08-09T10:32:24Z</time>
      </trkpt>
      <trkpt lat="45.0791" lon="6.10462">
        <ele>1654</ele>
        <time>2024-08-09T10:32:25Z</time>
      </trkpt>
      <trkpt lat="45.0791" lon="6.10462">
        <ele>1653.8</ele>
        <time>2024-08-09T10:32:26Z</time>
      </trkpt>
      <trkpt lat="45.07908" lon="6.10465">
        <ele>1653.8</ele>
        <time>2024-08-09T10:32:27Z</time>
      </trkpt>
      <trkpt lat="45.07906" lon="6.10466">
        <ele>1653.8</ele>
        <time>2024-08-09T10:32:28Z</time>
      </trkpt>
      <trkpt lat="45.07906" lon="6.10466">
        <ele>1654</ele>
        <time>2024-08-09T10:32:29Z</time>
      </trkpt>
      <trkpt lat="45.07905" lon="6.10469">
        <ele>1654.2</ele>
        <time>2024-08-09T10:32:30Z</time>
      </trkpt>
      <trkpt lat="45.07905" lon="6.10469">
        <ele>1654.2</ele>
        <time>2024-08-09T10:32:31Z</time>
      </trkpt>
      <trkpt lat="45.07903" lon="6.10471">
        <ele>1654.4</ele>
        <time>2024-08-09T10:32:32Z</time>
      </trkpt>
      <trkpt lat="45.07903" lon="6.10471">
        <ele>1654.4</ele>
        <time>2024-08-09T10:32:33Z</time>
      </trkpt>
      <trkpt lat="45.07901" lon="6.10473">
        <ele>1654.4</ele>
        <time>2024-08-09T10:32:34Z</time>
      </trkpt>
      <trkpt lat="45.07901" lon="6.10473">
        <ele>1654.4</ele>
        <time>2024-08-09T10:32:35Z</time>
      </trkpt>
      <trkpt lat="45.079" lon="6.10476">
        <ele>1654.6</ele>
        <time>2024-08-09T10:32:36Z</time>
      </trkpt>
      <trkpt lat="45.079" lon="6.10476">
        <ele>1654.6</ele>
        <time>2024-08-09T10:32:37Z</time>
      </trkpt>
      <trkpt lat="45.07898" lon="6.1048">
        <ele>1654.8</ele>
        <time>2024-08-09T10:32:38Z</time>
      </trkpt>
      <trkpt lat="45.07898" lon="6.1048">
        <ele>1654.8</ele>
        <time>2024-08-09T10:32:39Z</time>
      </trkpt>
      <trkpt lat="45.07898" lon="6.10483">
        <ele>1654.6</ele>
        <time>2024-08-09T10:32:40Z</time>
      </trkpt>
      <trkpt lat="45.07898" lon="6.10483">
        <ele>1654.6</ele>
        <time>2024-08-09T10:32:41Z</time>
      </trkpt>
      <trkpt lat="45.07897" lon="6.10486">
        <ele>1654.8</ele>
        <time>2024-08-09T10:32:42Z</time>
      </trkpt>
      <trkpt lat="45.07897" lon="6.10486">
        <ele>1655</ele>
        <time>2024-08-09T10:32:43Z</time>
      </trkpt>
      <trkpt lat="45.07895" lon="6.10489">
        <ele>1655.2</ele>
        <time>2024-08-09T10:32:44Z</time>
      </trkpt>
      <trkpt lat="45.07895" lon="6.10489">
        <ele>1655.2</ele>
        <time>2024-08-09T10:32:45Z</time>
      </trkpt>
      <trkpt lat="45.07893" lon="6.10492">
        <ele>1655</ele>
        <time>2024-08-09T10:32:46Z</time>
      </trkpt>
      <trkpt lat="45.07893" lon="6.10492">
        <ele>1655</ele>
        <time>2024-08-09T10:32:47Z</time>
      </trkpt>
      <trkpt lat="45.07892" lon="6.10495">
        <ele>1655.2</ele>
        <time>2024-08-09T10:32:48Z</time>
      </trkpt>
      <trkpt lat="45.07892" lon="6.10495">
        <ele>1655.2</ele>
        <time>2024-08-09T10:32:49Z</time>
      </trkpt>
      <trkpt lat="45.0789" lon="6.10498">
        <ele>1655.4</ele>
        <time>2024-08-09T10:32:50Z</time>
      </trkpt>
      <trkpt lat="45.0789" lon="6.10498">
        <ele>1655.2</ele>
        <time>2024-08-09T10:32:51Z</time>
      </trkpt>
      <trkpt lat="45.07889" lon="6.10501">
        <ele>1655</ele>
        <time>2024-08-09T10:32:52Z</time>
      </trkpt>
      <trkpt lat="45.07889" lon="6.10501">
        <ele>1655</ele>
        <time>2024-08-09T10:32:53Z</time>
      </trkpt>
      <trkpt lat="45.07888" lon="6.10504">
        <ele>1655.2</ele>
        <time>2024-08-09T10:32:54Z</time>
      </trkpt>
      <trkpt lat="45.07888" lon="6.10504">
        <ele>1655.4</ele>
        <time>2024-08-09T10:32:55Z</time>
      </trkpt>
      <trkpt lat="45.07887" lon="6.10508">
        <ele>1655.6</ele>
        <time>2024-08-09T10:32:56Z</time>
      </trkpt>
      <trkpt lat="45.07887" lon="6.10508">
        <ele>1655.6</ele>
        <time>2024-08-09T10:32:57Z</time>
      </trkpt>
      <trkpt lat="45.07885" lon="6.10512">
        <ele>1655.8</ele>
        <time>2024-08-09T10:32:58Z</time>
      </trkpt>
      <trkpt lat="45.07885" lon="6.10512">
        <ele>1655.6</ele>
        <time>2024-08-09T10:32:59Z</time>
      </trkpt>
      <trkpt lat="45.07884" lon="6.10514">
        <ele>1655.6</ele>
        <time>2024-08-09T10:33:00Z</time>
      </trkpt>
      <trkpt lat="45.07884" lon="6.10514">
        <ele>1655.6</ele>
        <time>2024-08-09T10:33:01Z</time>
      </trkpt>
      <trkpt lat="45.07883" lon="6.10518">
        <ele>1655.4</ele>
        <time>2024-08-09T10:33:02Z</time>
      </trkpt>
      <trkpt lat="45.07883" lon="6.10518">
        <ele>1655.4</ele>
        <time>2024-08-09T10:33:03Z</time>
      </trkpt>
      <trkpt lat="45.07883" lon="6.10521">
        <ele>1655.6</ele>
        <time>2024-08-09T10:33:04Z</time>
      </trkpt>
      <trkpt lat="45.07883" lon="6.10521">
        <ele>1655.6</ele>
        <time>2024-08-09T10:33:05Z</time>
      </trkpt>
      <trkpt lat="45.07881" lon="6.10524">
        <ele>1655.8</ele>
        <time>2024-08-09T10:33:06Z</time>
      </trkpt>
      <trkpt lat="45.07881" lon="6.10524">
        <ele>1655.8</ele>
        <time>2024-08-09T10:33:07Z</time>
      </trkpt>
      <trkpt lat="45.0788" lon="6.10527">
        <ele>1656</ele>
        <time>2024-08-09T10:33:08Z</time>
      </trkpt>
      <trkpt lat="45.0788" lon="6.10527">
        <ele>1656</ele>
        <time>2024-08-09T10:33:09Z</time>
      </trkpt>
      <trkpt lat="45.07878" lon="6.1053">
        <ele>1656</ele>
        <time>2024-08-09T10:33:10Z</time>
      </trkpt>
      <trkpt lat="45.07878" lon="6.1053">
        <ele>1656</ele>
        <time>2024-08-09T10:33:11Z</time>
      </trkpt>
      <trkpt lat="45.07877" lon="6.10533">
        <ele>1656</ele>
        <time>2024-08-09T10:33:12Z</time>
      </trkpt>
      <trkpt lat="45.07877" lon="6.10533">
        <ele>1656</ele>
        <time>2024-08-09T10:33:13Z</time>
      </trkpt>
      <trkpt lat="45.07875" lon="6.10536">
        <ele>1656</ele>
        <time>2024-08-09T10:33:14Z</time>
      </trkpt>
      <trkpt lat="45.07875" lon="6.10536">
        <ele>1656</ele>
        <time>2024-08-09T10:33:15Z</time>
      </trkpt>
      <trkpt lat="45.07874" lon="6.10539">
        <ele>1656</ele>
        <time>2024-08-09T10:33:16Z</time>
      </trkpt>
      <trkpt lat="45.07874" lon="6.10539">
        <ele>1656.2</ele>
        <time>2024-08-09T10:33:17Z</time>
      </trkpt>
      <trkpt lat="45.07872" lon="6.10541">
        <ele>1656.2</ele>
        <time>2024-08-09T10:33:18Z</time>
      </trkpt>
      <trkpt lat="45.07872" lon="6.10541">
        <ele>1656.4</ele>
        <time>2024-08-09T10:33:19Z</time>
      </trkpt>
      <trkpt lat="45.0787" lon="6.10544">
        <ele>1656.4</ele>
        <time>2024-08-09T10:33:20Z</time>
      </trkpt>
      <trkpt lat="45.0787" lon="6.10544">
        <ele>1656.4</ele>
        <time>2024-08-09T10:33:21Z</time>
      </trkpt>
      <trkpt lat="45.07868" lon="6.10547">
        <ele>1656.4</ele>
        <time>2024-08-09T10:33:22Z</time>
      </trkpt>
      <trkpt lat="45.07868" lon="6.10547">
        <ele>1656.8</ele>
        <time>2024-08-09T10:33:23Z</time>
      </trkpt>
      <trkpt lat="45.07868" lon="6.10551">
        <ele>1656.8</ele>
        <time>2024-08-09T10:33:24Z</time>
      </trkpt>
      <trkpt lat="45.07868" lon="6.10551">
        <ele>1657</ele>
        <time>2024-08-09T10:33:25Z</time>
      </trkpt>
      <trkpt lat="45.07867" lon="6.10554">
        <ele>1656.8</ele>
        <time>2024-08-09T10:33:26Z</time>
      </trkpt>
      <trkpt lat="45.07867" lon="6.10554">
        <ele>1657</ele>
        <time>2024-08-09T10:33:27Z</time>
      </trkpt>
      <trkpt lat="45.07866" lon="6.10557">
        <ele>1657</ele>
        <time>2024-08-09T10:33:28Z</time>
      </trkpt>
      <trkpt lat="45.07866" lon="6.10557">
        <ele>1657.2</ele>
        <time>2024-08-09T10:33:29Z</time>
      </trkpt>
      <trkpt lat="45.07864" lon="6.1056">
        <ele>1657.4</ele>
        <time>2024-08-09T10:33:30Z</time>
      </trkpt>
      <trkpt lat="45.07864" lon="6.1056">
        <ele>1657.4</ele>
        <time>2024-08-09T10:33:31Z</time>
      </trkpt>
      <trkpt lat="45.07863" lon="6.10562">
        <ele>1657.4</ele>
        <time>2024-08-09T10:33:32Z</time>
      </trkpt>
      <trkpt lat="45.07863" lon="6.10562">
        <ele>1657.2</ele>
        <time>2024-08-09T10:33:33Z</time>
      </trkpt>
      <trkpt lat="45.07862" lon="6.10565">
        <ele>1657.2</ele>
        <time>2024-08-09T10:33:34Z</time>
      </trkpt>
      <trkpt lat="45.07862" lon="6.10565">
        <ele>1657.4</ele>
        <time>2024-08-09T10:33:35Z</time>
      </trkpt>
      <trkpt lat="45.07861" lon="6.10568">
        <ele>1657.4</ele>
        <time>2024-08-09T10:33:36Z</time>
      </trkpt>
      <trkpt lat="45.07861" lon="6.10568">
        <ele>1657.4</ele>
        <time>2024-08-09T10:33:37Z</time>
      </trkpt>
      <trkpt lat="45.0786" lon="6.10571">
        <ele>1657.6</ele>
        <time>2024-08-09T10:33:38Z</time>
      </trkpt>
      <trkpt lat="45.0786" lon="6.10571">
        <ele>1657.8</ele>
        <time>2024-08-09T10:33:39Z</time>
      </trkpt>
      <trkpt lat="45.07859" lon="6.10574">
        <ele>1657.8</ele>
        <time>2024-08-09T10:33:40Z</time>
      </trkpt>
      <trkpt lat="45.07859" lon="6.10574">
        <ele>1657.8</ele>
        <time>2024-08-09T10:33:41Z</time>
      </trkpt>
      <trkpt lat="45.07859" lon="6.10574">
        <ele>1658</ele>
        <time>2024-08-09T10:33:42Z</time>
      </trkpt>
      <trkpt lat="45.07857" lon="6.10578">
        <ele>1658.2</ele>
        <time>2024-08-09T10:33:43Z</time>
      </trkpt>
      <trkpt lat="45.07857" lon="6.10578">
        <ele>1658.6</ele>
        <time>2024-08-09T10:33:44Z</time>
      </trkpt>
      <trkpt lat="45.07856" lon="6.10581">
        <ele>1658.6</ele>
        <time>2024-08-09T10:33:45Z</time>
      </trkpt>
      <trkpt lat="45.07856" lon="6.10581">
        <ele>1658.8</ele>
        <time>2024-08-09T10:33:46Z</time>
      </trkpt>
      <trkpt lat="45.07856" lon="6.10584">
        <ele>1658.8</ele>
        <time>2024-08-09T10:33:47Z</time>
      </trkpt>
      <trkpt lat="45.07856" lon="6.10584">
        <ele>1659</ele>
        <time>2024-08-09T10:33:48Z</time>
      </trkpt>
      <trkpt lat="45.07855" lon="6.10587">
        <ele>1659</ele>
        <time>2024-08-09T10:33:49Z</time>
      </trkpt>
      <trkpt lat="45.07855" lon="6.10587">
        <ele>1659.2</ele>
        <time>2024-08-09T10:33:50Z</time>
      </trkpt>
      <trkpt lat="45.07853" lon="6.1059">
        <ele>1659.2</ele>
        <time>2024-08-09T10:33:51Z</time>
      </trkpt>
      <trkpt lat="45.07853" lon="6.1059">
        <ele>1659.2</ele>
        <time>2024-08-09T10:33:52Z</time>
      </trkpt>
      <trkpt lat="45.07852" lon="6.10593">
        <ele>1659.6</ele>
        <time>2024-08-09T10:33:53Z</time>
      </trkpt>
      <trkpt lat="45.07852" lon="6.10593">
        <ele>1659.6</ele>
        <time>2024-08-09T10:33:54Z</time>
      </trkpt>
      <trkpt lat="45.0785" lon="6.10595">
        <ele>1659.8</ele>
        <time>2024-08-09T10:33:55Z</time>
      </trkpt>
      <trkpt lat="45.0785" lon="6.10595">
        <ele>1660</ele>
        <time>2024-08-09T10:33:56Z</time>
      </trkpt>
      <trkpt lat="45.07848" lon="6.10598">
        <ele>1660</ele>
        <time>2024-08-09T10:33:57Z</time>
      </trkpt>
      <trkpt lat="45.07848" lon="6.10598">
        <ele>1660</ele>
        <time>2024-08-09T10:33:58Z</time>
      </trkpt>
      <trkpt lat="45.07847" lon="6.10601">
        <ele>1660.2</ele>
        <time>2024-08-09T10:33:59Z</time>
      </trkpt>
      <trkpt lat="45.07847" lon="6.10601">
        <ele>1660.4</ele>
        <time>2024-08-09T10:34:00Z</time>
      </trkpt>
      <trkpt lat="45.07846" lon="6.10604">
        <ele>1660.4</ele>
        <time>2024-08-09T10:34:01Z</time>
      </trkpt>
      <trkpt lat="45.07846" lon="6.10604">
        <ele>1660.6</ele>
        <time>2024-08-09T10:34:02Z</time>
      </trkpt>
      <trkpt lat="45.07845" lon="6.10607">
        <ele>1660.8</ele>
        <time>2024-08-09T10:34:03Z</time>
      </trkpt>
      <trkpt lat="45.07845" lon="6.10607">
        <ele>1660.8</ele>
        <time>2024-08-09T10:34:04Z</time>
      </trkpt>
      <trkpt lat="45.07844" lon="6.1061">
        <ele>1660.8</ele>
        <time>2024-08-09T10:34:05Z</time>
      </trkpt>
      <trkpt lat="45.07844" lon="6.1061">
        <ele>1661</ele>
        <time>2024-08-09T10:34:06Z</time>
      </trkpt>
      <trkpt lat="45.07843" lon="6.10613">
        <ele>1661</ele>
        <time>2024-08-09T10:34:07Z</time>
      </trkpt>
      <trkpt lat="45.07843" lon="6.10613">
        <ele>1661</ele>
        <time>2024-08-09T10:34:08Z</time>
      </trkpt>
      <trkpt lat="45.07843" lon="6.10616">
        <ele>1661.2</ele>
        <time>2024-08-09T10:34:09Z</time>
      </trkpt>
      <trkpt lat="45.07843" lon="6.10616">
        <ele>1661.6</ele>
        <time>2024-08-09T10:34:10Z</time>
      </trkpt>
      <trkpt lat="45.07842" lon="6.10619">
        <ele>1661.8</ele>
        <time>2024-08-09T10:34:11Z</time>
      </trkpt>
      <trkpt lat="45.07842" lon="6.10619">
        <ele>1661.8</ele>
        <time>2024-08-09T10:34:12Z</time>
      </trkpt>
      <trkpt lat="45.0784" lon="6.10622">
        <ele>1661.8</ele>
        <time>2024-08-09T10:34:13Z</time>
      </trkpt>
      <trkpt lat="45.0784" lon="6.10622">
        <ele>1662</ele>
        <time>2024-08-09T10:34:14Z</time>
      </trkpt>
      <trkpt lat="45.07839" lon="6.10624">
        <ele>1662</ele>
        <time>2024-08-09T10:34:15Z</time>
      </trkpt>
      <trkpt lat="45.07839" lon="6.10624">
        <ele>1662.2</ele>
        <time>2024-08-09T10:34:16Z</time>
      </trkpt>
      <trkpt lat="45.07838" lon="6.10628">
        <ele>1662.4</ele>
        <time>2024-08-09T10:34:17Z</time>
      </trkpt>
      <trkpt lat="45.07838" lon="6.10628">
        <ele>1662.4</ele>
        <time>2024-08-09T10:34:18Z</time>
      </trkpt>
      <trkpt lat="45.07837" lon="6.1063">
        <ele>1662.4</ele>
        <time>2024-08-09T10:34:19Z</time>
      </trkpt>
      <trkpt lat="45.07837" lon="6.1063">
        <ele>1662.8</ele>
        <time>2024-08-09T10:34:20Z</time>
      </trkpt>
      <trkpt lat="45.07836" lon="6.10634">
        <ele>1663</ele>
        <time>2024-08-09T10:34:21Z</time>
      </trkpt>
      <trkpt lat="45.07836" lon="6.10634">
        <ele>1663.2</ele>
        <time>2024-08-09T10:34:22Z</time>
      </trkpt>
      <trkpt lat="45.07836" lon="6.10637">
        <ele>1663.2</ele>
        <time>2024-08-09T10:34:23Z</time>
      </trkpt>
      <trkpt lat="45.07836" lon="6.10637">
        <ele>1663.2</ele>
        <time>2024-08-09T10:34:24Z</time>
      </trkpt>
      <trkpt lat="45.07836" lon="6.1064">
        <ele>1663</ele>
        <time>2024-08-09T10:34:25Z</time>
      </trkpt>
      <trkpt lat="45.07836" lon="6.1064">
        <ele>1663</ele>
        <time>2024-08-09T10:34:26Z</time>
      </trkpt>
      <trkpt lat="45.07836" lon="6.10643">
        <ele>1663</ele>
        <time>2024-08-09T10:34:27Z</time>
      </trkpt>
      <trkpt lat="45.07836" lon="6.10643">
        <ele>1663.2</ele>
        <time>2024-08-09T10:34:28Z</time>
      </trkpt>
      <trkpt lat="45.07835" lon="6.10646">
        <ele>1663.2</ele>
        <time>2024-08-09T10:34:29Z</time>
      </trkpt>
      <trkpt lat="45.07835" lon="6.10646">
        <ele>1663.4</ele>
        <time>2024-08-09T10:34:30Z</time>
      </trkpt>
      <trkpt lat="45.07834" lon="6.10649">
        <ele>1663.4</ele>
        <time>2024-08-09T10:34:31Z</time>
      </trkpt>
      <trkpt lat="45.07834" lon="6.10649">
        <ele>1663.6</ele>
        <time>2024-08-09T10:34:32Z</time>
      </trkpt>
      <trkpt lat="45.07834" lon="6.10652">
        <ele>1663.6</ele>
        <time>2024-08-09T10:34:33Z</time>
      </trkpt>
      <trkpt lat="45.07834" lon="6.10652">
        <ele>1663.6</ele>
        <time>2024-08-09T10:34:34Z</time>
      </trkpt>
      <trkpt lat="45.07833" lon="6.10655">
        <ele>1663.6</ele>
        <time>2024-08-09T10:34:35Z</time>
      </trkpt>
      <trkpt lat="45.07833" lon="6.10655">
        <ele>1663.4</ele>
        <time>2024-08-09T10:34:36Z</time>
      </trkpt>
      <trkpt lat="45.07832" lon="6.10658">
        <ele>1663.4</ele>
        <time>2024-08-09T10:34:37Z</time>
      </trkpt>
      <trkpt lat="45.07832" lon="6.10658">
        <ele>1663.6</ele>
        <time>2024-08-09T10:34:38Z</time>
      </trkpt>
      <trkpt lat="45.07831" lon="6.1066">
        <ele>1663.8</ele>
        <time>2024-08-09T10:34:39Z</time>
      </trkpt>
      <trkpt lat="45.07831" lon="6.1066">
        <ele>1664</ele>
        <time>2024-08-09T10:34:40Z</time>
      </trkpt>
      <trkpt lat="45.0783" lon="6.10663">
        <ele>1664.2</ele>
        <time>2024-08-09T10:34:41Z</time>
      </trkpt>
      <trkpt lat="45.0783" lon="6.10663">
        <ele>1664.4</ele>
        <time>2024-08-09T10:34:42Z</time>
      </trkpt>
      <trkpt lat="45.07829" lon="6.10666">
        <ele>1664.6</ele>
        <time>2024-08-09T10:34:43Z</time>
      </trkpt>
      <trkpt lat="45.07829" lon="6.10666">
        <ele>1664.8</ele>
        <time>2024-08-09T10:34:44Z</time>
      </trkpt>
      <trkpt lat="45.07829" lon="6.10669">
        <ele>1664.8</ele>
        <time>2024-08-09T10:34:45Z</time>
      </trkpt>
      <trkpt lat="45.07829" lon="6.10669">
        <ele>1665</ele>
        <time>2024-08-09T10:34:46Z</time>
      </trkpt>
      <trkpt lat="45.07829" lon="6.10672">
        <ele>1665</ele>
        <time>2024-08-09T10:34:47Z</time>
      </trkpt>
      <trkpt lat="45.07829" lon="6.10672">
        <ele>1665.2</ele>
        <time>2024-08-09T10:34:48Z</time>
      </trkpt>
      <trkpt lat="45.07828" lon="6.10675">
        <ele>1665.2</ele>
        <time>2024-08-09T10:34:49Z</time>
      </trkpt>
      <trkpt lat="45.07828" lon="6.10675">
        <ele>1665.2</ele>
        <time>2024-08-09T10:34:50Z</time>
      </trkpt>
      <trkpt lat="45.07827" lon="6.10678">
        <ele>1665.2</ele>
        <time>2024-08-09T10:34:51Z</time>
      </trkpt>
      <trkpt lat="45.07827" lon="6.10678">
        <ele>1665.4</ele>
        <time>2024-08-09T10:34:52Z</time>
      </trkpt>
      <trkpt lat="45.07827" lon="6.10681">
        <ele>1665.4</ele>
        <time>2024-08-09T10:34:53Z</time>
      </trkpt>
      <trkpt lat="45.07827" lon="6.10681">
        <ele>1665.6</ele>
        <time>2024-08-09T10:34:54Z</time>
      </trkpt>
      <trkpt lat="45.07826" lon="6.10685">
        <ele>1665.6</ele>
        <time>2024-08-09T10:34:55Z</time>
      </trkpt>
      <trkpt lat="45.07826" lon="6.10685">
        <ele>1665.8</ele>
        <time>2024-08-09T10:34:56Z</time>
      </trkpt>
      <trkpt lat="45.07826" lon="6.10688">
        <ele>1665.8</ele>
        <time>2024-08-09T10:34:57Z</time>
      </trkpt>
      <trkpt lat="45.07826" lon="6.10688">
        <ele>1665.8</ele>
        <time>2024-08-09T10:34:58Z</time>
      </trkpt>
      <trkpt lat="45.07825" lon="6.10691">
        <ele>1665.8</ele>
        <time>2024-08-09T10:34:59Z</time>
      </trkpt>
      <trkpt lat="45.07825" lon="6.10691">
        <ele>1666</ele>
        <time>2024-08-09T10:35:00Z</time>
      </trkpt>
      <trkpt lat="45.07824" lon="6.10694">
        <ele>1666</ele>
        <time>2024-08-09T10:35:01Z</time>
      </trkpt>
      <trkpt lat="45.07824" lon="6.10694">
        <ele>1666.6</ele>
        <time>2024-08-09T10:35:02Z</time>
      </trkpt>
      <trkpt lat="45.07824" lon="6.10697">
        <ele>1666.6</ele>
        <time>2024-08-09T10:35:03Z</time>
      </trkpt>
      <trkpt lat="45.07824" lon="6.10697">
        <ele>1666.6</ele>
        <time>2024-08-09T10:35:04Z</time>
      </trkpt>
      <trkpt lat="45.07825" lon="6.107">
        <ele>1666.8</ele>
        <time>2024-08-09T10:35:05Z</time>
      </trkpt>
      <trkpt lat="45.07825" lon="6.107">
        <ele>1666.8</ele>
        <time>2024-08-09T10:35:06Z</time>
      </trkpt>
      <trkpt lat="45.07826" lon="6.10704">
        <ele>1666.8</ele>
        <time>2024-08-09T10:35:07Z</time>
      </trkpt>
      <trkpt lat="45.07826" lon="6.10704">
        <ele>1666.8</ele>
        <time>2024-08-09T10:35:08Z</time>
      </trkpt>
      <trkpt lat="45.07826" lon="6.10707">
        <ele>1667</ele>
        <time>2024-08-09T10:35:09Z</time>
      </trkpt>
      <trkpt lat="45.07826" lon="6.10707">
        <ele>1667.2</ele>
        <time>2024-08-09T10:35:10Z</time>
      </trkpt>
      <trkpt lat="45.07826" lon="6.1071">
        <ele>1667.2</ele>
        <time>2024-08-09T10:35:11Z</time>
      </trkpt>
      <trkpt lat="45.07826" lon="6.1071">
        <ele>1667.4</ele>
        <time>2024-08-09T10:35:12Z</time>
      </trkpt>
      <trkpt lat="45.07826" lon="6.10714">
        <ele>1667.2</ele>
        <time>2024-08-09T10:35:13Z</time>
      </trkpt>
      <trkpt lat="45.07826" lon="6.10714">
        <ele>1667.4</ele>
        <time>2024-08-09T10:35:14Z</time>
      </trkpt>
      <trkpt lat="45.07825" lon="6.10716">
        <ele>1667.4</ele>
        <time>2024-08-09T10:35:15Z</time>
      </trkpt>
      <trkpt lat="45.07825" lon="6.10716">
        <ele>1667.4</ele>
        <time>2024-08-09T10:35:16Z</time>
      </trkpt>
      <trkpt lat="45.07826" lon="6.10719">
        <ele>1667.6</ele>
        <time>2024-08-09T10:35:17Z</time>
      </trkpt>
      <trkpt lat="45.07826" lon="6.10719">
        <ele>1667.8</ele>
        <time>2024-08-09T10:35:18Z</time>
      </trkpt>
      <trkpt lat="45.07827" lon="6.10722">
        <ele>1668</ele>
        <time>2024-08-09T10:35:19Z</time>
      </trkpt>
      <trkpt lat="45.07827" lon="6.10722">
        <ele>1668</ele>
        <time>2024-08-09T10:35:20Z</time>
      </trkpt>
      <trkpt lat="45.07828" lon="6.10725">
        <ele>1668</ele>
        <time>2024-08-09T10:35:21Z</time>
      </trkpt>
      <trkpt lat="45.07828" lon="6.10725">
        <ele>1668.2</ele>
        <time>2024-08-09T10:35:22Z</time>
      </trkpt>
      <trkpt lat="45.07828" lon="6.10728">
        <ele>1668.2</ele>
        <time>2024-08-09T10:35:23Z</time>
      </trkpt>
      <trkpt lat="45.07828" lon="6.10728">
        <ele>1668.4</ele>
        <time>2024-08-09T10:35:24Z</time>
      </trkpt>
      <trkpt lat="45.07828" lon="6.10732">
        <ele>1668.6</ele>
        <time>2024-08-09T10:35:25Z</time>
      </trkpt>
      <trkpt lat="45.07828" lon="6.10732">
        <ele>1668.6</ele>
        <time>2024-08-09T10:35:26Z</time>
      </trkpt>
      <trkpt lat="45.07828" lon="6.10735">
        <ele>1668.8</ele>
        <time>2024-08-09T10:35:27Z</time>
      </trkpt>
      <trkpt lat="45.07828" lon="6.10735">
        <ele>1669</ele>
        <time>2024-08-09T10:35:28Z</time>
      </trkpt>
      <trkpt lat="45.07829" lon="6.10738">
        <ele>1669</ele>
        <time>2024-08-09T10:35:29Z</time>
      </trkpt>
      <trkpt lat="45.07829" lon="6.10738">
        <ele>1669.2</ele>
        <time>2024-08-09T10:35:30Z</time>
      </trkpt>
      <trkpt lat="45.07829" lon="6.10741">
        <ele>1669.4</ele>
        <time>2024-08-09T10:35:31Z</time>
      </trkpt>
      <trkpt lat="45.07829" lon="6.10741">
        <ele>1669.6</ele>
        <time>2024-08-09T10:35:32Z</time>
      </trkpt>
      <trkpt lat="45.07829" lon="6.10745">
        <ele>1669.8</ele>
        <time>2024-08-09T10:35:33Z</time>
      </trkpt>
      <trkpt lat="45.07829" lon="6.10745">
        <ele>1669.8</ele>
        <time>2024-08-09T10:35:34Z</time>
      </trkpt>
      <trkpt lat="45.0783" lon="6.10748">
        <ele>1669.8</ele>
        <time>2024-08-09T10:35:35Z</time>
      </trkpt>
      <trkpt lat="45.0783" lon="6.10748">
        <ele>1669.8</ele>
        <time>2024-08-09T10:35:36Z</time>
      </trkpt>
      <trkpt lat="45.0783" lon="6.10751">
        <ele>1670</ele>
        <time>2024-08-09T10:35:37Z</time>
      </trkpt>
      <trkpt lat="45.0783" lon="6.10751">
        <ele>1670</ele>
        <time>2024-08-09T10:35:38Z</time>
      </trkpt>
      <trkpt lat="45.07832" lon="6.10754">
        <ele>1670.2</ele>
        <time>2024-08-09T10:35:39Z</time>
      </trkpt>
      <trkpt lat="45.07832" lon="6.10754">
        <ele>1670.4</ele>
        <time>2024-08-09T10:35:40Z</time>
      </trkpt>
      <trkpt lat="45.07834" lon="6.10757">
        <ele>1670.4</ele>
        <time>2024-08-09T10:35:41Z</time>
      </trkpt>
      <trkpt lat="45.07834" lon="6.10757">
        <ele>1670.4</ele>
        <time>2024-08-09T10:35:42Z</time>
      </trkpt>
      <trkpt lat="45.07836" lon="6.1076">
        <ele>1670.6</ele>
        <time>2024-08-09T10:35:43Z</time>
      </trkpt>
      <trkpt lat="45.07836" lon="6.1076">
        <ele>1670.6</ele>
        <time>2024-08-09T10:35:44Z</time>
      </trkpt>
      <trkpt lat="45.07837" lon="6.10762">
        <ele>1670.8</ele>
        <time>2024-08-09T10:35:45Z</time>
      </trkpt>
      <trkpt lat="45.07837" lon="6.10762">
        <ele>1671</ele>
        <time>2024-08-09T10:35:46Z</time>
      </trkpt>
      <trkpt lat="45.07838" lon="6.10764">
        <ele>1671</ele>
        <time>2024-08-09T10:35:47Z</time>
      </trkpt>
      <trkpt lat="45.07838" lon="6.10764">
        <ele>1671.2</ele>
        <time>2024-08-09T10:35:48Z</time>
      </trkpt>
      <trkpt lat="45.07838" lon="6.10764">
        <ele>1671.4</ele>
        <time>2024-08-09T10:35:49Z</time>
      </trkpt>
      <trkpt lat="45.07838" lon="6.10764">
        <ele>1671.4</ele>
        <time>2024-08-09T10:35:50Z</time>
      </trkpt>
      <trkpt lat="45.07838" lon="6.10764">
        <ele>1671.4</ele>
        <time>2024-08-09T10:35:51Z</time>
      </trkpt>
      <trkpt lat="45.07839" lon="6.10766">
        <ele>1671.6</ele>
        <time>2024-08-09T10:35:52Z</time>
      </trkpt>
      <trkpt lat="45.07839" lon="6.10766">
        <ele>1671.6</ele>
        <time>2024-08-09T10:35:53Z</time>
      </trkpt>
      <trkpt lat="45.0784" lon="6.10769">
        <ele>1671.4</ele>
        <time>2024-08-09T10:35:54Z</time>
      </trkpt>
      <trkpt lat="45.0784" lon="6.10769">
        <ele>1671.4</ele>
        <time>2024-08-09T10:35:55Z</time>
      </trkpt>
      <trkpt lat="45.07841" lon="6.10772">
        <ele>1671.4</ele>
        <time>2024-08-09T10:35:56Z</time>
      </trkpt>
      <trkpt lat="45.07841" lon="6.10772">
        <ele>1671.6</ele>
        <time>2024-08-09T10:35:57Z</time>
      </trkpt>
      <trkpt lat="45.07842" lon="6.10776">
        <ele>1671.6</ele>
        <time>2024-08-09T10:35:58Z</time>
      </trkpt>
      <trkpt lat="45.07842" lon="6.10776">
        <ele>1671.8</ele>
        <time>2024-08-09T10:35:59Z</time>
      </trkpt>
      <trkpt lat="45.07844" lon="6.10778">
        <ele>1672</ele>
        <time>2024-08-09T10:36:00Z</time>
      </trkpt>
      <trkpt lat="45.07844" lon="6.10778">
        <ele>1672</ele>
        <time>2024-08-09T10:36:01Z</time>
      </trkpt>
      <trkpt lat="45.07845" lon="6.10781">
        <ele>1672.2</ele>
        <time>2024-08-09T10:36:02Z</time>
      </trkpt>
      <trkpt lat="45.07845" lon="6.10781">
        <ele>1672.2</ele>
        <time>2024-08-09T10:36:03Z</time>
      </trkpt>
      <trkpt lat="45.07847" lon="6.10783">
        <ele>1672.2</ele>
        <time>2024-08-09T10:36:04Z</time>
      </trkpt>
      <trkpt lat="45.07847" lon="6.10783">
        <ele>1672.2</ele>
        <time>2024-08-09T10:36:05Z</time>
      </trkpt>
      <trkpt lat="45.07848" lon="6.10786">
        <ele>1672.2</ele>
        <time>2024-08-09T10:36:06Z</time>
      </trkpt>
      <trkpt lat="45.07848" lon="6.10786">
        <ele>1672.4</ele>
        <time>2024-08-09T10:36:07Z</time>
      </trkpt>
      <trkpt lat="45.0785" lon="6.10789">
        <ele>1672.6</ele>
        <time>2024-08-09T10:36:08Z</time>
      </trkpt>
      <trkpt lat="45.0785" lon="6.10789">
        <ele>1672.6</ele>
        <time>2024-08-09T10:36:09Z</time>
      </trkpt>
      <trkpt lat="45.07853" lon="6.10791">
        <ele>1672.6</ele>
        <time>2024-08-09T10:36:10Z</time>
      </trkpt>
      <trkpt lat="45.07853" lon="6.10791">
        <ele>1672.4</ele>
        <time>2024-08-09T10:36:11Z</time>
      </trkpt>
      <trkpt lat="45.07854" lon="6.10794">
        <ele>1672.4</ele>
        <time>2024-08-09T10:36:12Z</time>
      </trkpt>
      <trkpt lat="45.07854" lon="6.10794">
        <ele>1672.8</ele>
        <time>2024-08-09T10:36:13Z</time>
      </trkpt>
      <trkpt lat="45.07856" lon="6.10796">
        <ele>1672.8</ele>
        <time>2024-08-09T10:36:14Z</time>
      </trkpt>
      <trkpt lat="45.07856" lon="6.10796">
        <ele>1673</ele>
        <time>2024-08-09T10:36:15Z</time>
      </trkpt>
      <trkpt lat="45.07858" lon="6.10798">
        <ele>1673</ele>
        <time>2024-08-09T10:36:16Z</time>
      </trkpt>
      <trkpt lat="45.07858" lon="6.10798">
        <ele>1673</ele>
        <time>2024-08-09T10:36:17Z</time>
      </trkpt>
      <trkpt lat="45.0786" lon="6.108">
        <ele>1673</ele>
        <time>2024-08-09T10:36:18Z</time>
      </trkpt>
      <trkpt lat="45.0786" lon="6.108">
        <ele>1673.2</ele>
        <time>2024-08-09T10:36:19Z</time>
      </trkpt>
      <trkpt lat="45.07861" lon="6.10802">
        <ele>1673.6</ele>
        <time>2024-08-09T10:36:20Z</time>
      </trkpt>
      <trkpt lat="45.07861" lon="6.10802">
        <ele>1673.8</ele>
        <time>2024-08-09T10:36:21Z</time>
      </trkpt>
      <trkpt lat="45.07863" lon="6.10804">
        <ele>1674</ele>
        <time>2024-08-09T10:36:22Z</time>
      </trkpt>
      <trkpt lat="45.07863" lon="6.10804">
        <ele>1674</ele>
        <time>2024-08-09T10:36:23Z</time>
      </trkpt>
      <trkpt lat="45.07864" lon="6.10807">
        <ele>1674</ele>
        <time>2024-08-09T10:36:24Z</time>
      </trkpt>
      <trkpt lat="45.07864" lon="6.10807">
        <ele>1674.2</ele>
        <time>2024-08-09T10:36:25Z</time>
      </trkpt>
      <trkpt lat="45.07866" lon="6.1081">
        <ele>1674.4</ele>
        <time>2024-08-09T10:36:26Z</time>
      </trkpt>
      <trkpt lat="45.07866" lon="6.1081">
        <ele>1674.4</ele>
        <time>2024-08-09T10:36:27Z</time>
      </trkpt>
      <trkpt lat="45.07867" lon="6.10813">
        <ele>1674.4</ele>
        <time>2024-08-09T10:36:28Z</time>
      </trkpt>
      <trkpt lat="45.07867" lon="6.10813">
        <ele>1674.4</ele>
        <time>2024-08-09T10:36:29Z</time>
      </trkpt>
      <trkpt lat="45.07869" lon="6.10815">
        <ele>1674.6</ele>
        <time>2024-08-09T10:36:30Z</time>
      </trkpt>
      <trkpt lat="45.07869" lon="6.10815">
        <ele>1675</ele>
        <time>2024-08-09T10:36:31Z</time>
      </trkpt>
      <trkpt lat="45.07871" lon="6.10817">
        <ele>1675.2</ele>
        <time>2024-08-09T10:36:32Z</time>
      </trkpt>
      <trkpt lat="45.07871" lon="6.10817">
        <ele>1675.4</ele>
        <time>2024-08-09T10:36:33Z</time>
      </trkpt>
      <trkpt lat="45.07872" lon="6.10819">
        <ele>1675.4</ele>
        <time>2024-08-09T10:36:34Z</time>
      </trkpt>
      <trkpt lat="45.07872" lon="6.10819">
        <ele>1675.2</ele>
        <time>2024-08-09T10:36:35Z</time>
      </trkpt>
      <trkpt lat="45.07874" lon="6.10822">
        <ele>1675.2</ele>
        <time>2024-08-09T10:36:36Z</time>
      </trkpt>
      <trkpt lat="45.07874" lon="6.10822">
        <ele>1675.4</ele>
        <time>2024-08-09T10:36:37Z</time>
      </trkpt>
      <trkpt lat="45.07876" lon="6.10824">
        <ele>1675.4</ele>
        <time>2024-08-09T10:36:38Z</time>
      </trkpt>
      <trkpt lat="45.07876" lon="6.10824">
        <ele>1675.2</ele>
        <time>2024-08-09T10:36:39Z</time>
      </trkpt>
      <trkpt lat="45.07878" lon="6.10826">
        <ele>1675.2</ele>
        <time>2024-08-09T10:36:40Z</time>
      </trkpt>
      <trkpt lat="45.07878" lon="6.10826">
        <ele>1675.2</ele>
        <time>2024-08-09T10:36:41Z</time>
      </trkpt>
      <trkpt lat="45.0788" lon="6.1083">
        <ele>1675.2</ele>
        <time>2024-08-09T10:36:42Z</time>
      </trkpt>
      <trkpt lat="45.0788" lon="6.1083">
        <ele>1675.6</ele>
        <time>2024-08-09T10:36:43Z</time>
      </trkpt>
      <trkpt lat="45.07881" lon="6.10832">
        <ele>1675.8</ele>
        <time>2024-08-09T10:36:44Z</time>
      </trkpt>
      <trkpt lat="45.07881" lon="6.10832">
        <ele>1676</ele>
        <time>2024-08-09T10:36:45Z</time>
      </trkpt>
      <trkpt lat="45.07882" lon="6.10835">
        <ele>1676</ele>
        <time>2024-08-09T10:36:46Z</time>
      </trkpt>
      <trkpt lat="45.07882" lon="6.10835">
        <ele>1676.2</ele>
        <time>2024-08-09T10:36:47Z</time>
      </trkpt>
      <trkpt lat="45.07884" lon="6.10838">
        <ele>1676.2</ele>
        <time>2024-08-09T10:36:48Z</time>
      </trkpt>
      <trkpt lat="45.07884" lon="6.10838">
        <ele>1676</ele>
        <time>2024-08-09T10:36:49Z</time>
      </trkpt>
      <trkpt lat="45.07885" lon="6.10842">
        <ele>1676</ele>
        <time>2024-08-09T10:36:50Z</time>
      </trkpt>
      <trkpt lat="45.07885" lon="6.10842">
        <ele>1676</ele>
        <time>2024-08-09T10:36:51Z</time>
      </trkpt>
      <trkpt lat="45.07886" lon="6.10845">
        <ele>1676.4</ele>
        <time>2024-08-09T10:36:52Z</time>
      </trkpt>
      <trkpt lat="45.07886" lon="6.10845">
        <ele>1676.6</ele>
        <time>2024-08-09T10:36:53Z</time>
      </trkpt>
      <trkpt lat="45.07888" lon="6.10848">
        <ele>1676.8</ele>
        <time>2024-08-09T10:36:54Z</time>
      </trkpt>
      <trkpt lat="45.07888" lon="6.10848">
        <ele>1676.8</ele>
        <time>2024-08-09T10:36:55Z</time>
      </trkpt>
      <trkpt lat="45.07889" lon="6.10851">
        <ele>1676.8</ele>
        <time>2024-08-09T10:36:56Z</time>
      </trkpt>
      <trkpt lat="45.07889" lon="6.10851">
        <ele>1677</ele>
        <time>2024-08-09T10:36:57Z</time>
      </trkpt>
      <trkpt lat="45.0789" lon="6.10854">
        <ele>1677</ele>
        <time>2024-08-09T10:36:58Z</time>
      </trkpt>
      <trkpt lat="45.0789" lon="6.10854">
        <ele>1677</ele>
        <time>2024-08-09T10:36:59Z</time>
      </trkpt>
      <trkpt lat="45.07892" lon="6.10856">
        <ele>1677.2</ele>
        <time>2024-08-09T10:37:00Z</time>
      </trkpt>
      <trkpt lat="45.07892" lon="6.10856">
        <ele>1677.4</ele>
        <time>2024-08-09T10:37:01Z</time>
      </trkpt>
      <trkpt lat="45.07893" lon="6.10859">
        <ele>1677.6</ele>
        <time>2024-08-09T10:37:02Z</time>
      </trkpt>
      <trkpt lat="45.07893" lon="6.10859">
        <ele>1677.6</ele>
        <time>2024-08-09T10:37:03Z</time>
      </trkpt>
      <trkpt lat="45.07894" lon="6.10862">
        <ele>1677.8</ele>
        <time>2024-08-09T10:37:04Z</time>
      </trkpt>
      <trkpt lat="45.07894" lon="6.10862">
        <ele>1678</ele>
        <time>2024-08-09T10:37:05Z</time>
      </trkpt>
      <trkpt lat="45.07895" lon="6.10865">
        <ele>1678</ele>
        <time>2024-08-09T10:37:06Z</time>
      </trkpt>
      <trkpt lat="45.07895" lon="6.10865">
        <ele>1678.2</ele>
        <time>2024-08-09T10:37:07Z</time>
      </trkpt>
      <trkpt lat="45.07896" lon="6.10868">
        <ele>1678.2</ele>
        <time>2024-08-09T10:37:08Z</time>
      </trkpt>
      <trkpt lat="45.07896" lon="6.10868">
        <ele>1678.4</ele>
        <time>2024-08-09T10:37:09Z</time>
      </trkpt>
      <trkpt lat="45.07896" lon="6.10871">
        <ele>1678.4</ele>
        <time>2024-08-09T10:37:10Z</time>
      </trkpt>
      <trkpt lat="45.07896" lon="6.10871">
        <ele>1678.6</ele>
        <time>2024-08-09T10:37:11Z</time>
      </trkpt>
      <trkpt lat="45.07896" lon="6.10873">
        <ele>1678.8</ele>
        <time>2024-08-09T10:37:12Z</time>
      </trkpt>
      <trkpt lat="45.07896" lon="6.10873">
        <ele>1678.8</ele>
        <time>2024-08-09T10:37:13Z</time>
      </trkpt>
      <trkpt lat="45.07898" lon="6.10876">
        <ele>1678.8</ele>
        <time>2024-08-09T10:37:14Z</time>
      </trkpt>
      <trkpt lat="45.07898" lon="6.10876">
        <ele>1679.2</ele>
        <time>2024-08-09T10:37:15Z</time>
      </trkpt>
      <trkpt lat="45.07899" lon="6.10878">
        <ele>1679.2</ele>
        <time>2024-08-09T10:37:16Z</time>
      </trkpt>
      <trkpt lat="45.07899" lon="6.10878">
        <ele>1679.2</ele>
        <time>2024-08-09T10:37:17Z</time>
      </trkpt>
      <trkpt lat="45.079" lon="6.1088">
        <ele>1679.6</ele>
        <time>2024-08-09T10:37:18Z</time>
      </trkpt>
      <trkpt lat="45.079" lon="6.1088">
        <ele>1679.6</ele>
        <time>2024-08-09T10:37:19Z</time>
      </trkpt>
      <trkpt lat="45.079" lon="6.10883">
        <ele>1679.6</ele>
        <time>2024-08-09T10:37:20Z</time>
      </trkpt>
      <trkpt lat="45.079" lon="6.10883">
        <ele>1679.6</ele>
        <time>2024-08-09T10:37:21Z</time>
      </trkpt>
      <trkpt lat="45.07901" lon="6.10887">
        <ele>1680</ele>
        <time>2024-08-09T10:37:22Z</time>
      </trkpt>
      <trkpt lat="45.07901" lon="6.10887">
        <ele>1680</ele>
        <time>2024-08-09T10:37:23Z</time>
      </trkpt>
      <trkpt lat="45.07902" lon="6.1089">
        <ele>1680</ele>
        <time>2024-08-09T10:37:24Z</time>
      </trkpt>
      <trkpt lat="45.07902" lon="6.1089">
        <ele>1680.2</ele>
        <time>2024-08-09T10:37:25Z</time>
      </trkpt>
      <trkpt lat="45.07903" lon="6.10893">
        <ele>1680.6</ele>
        <time>2024-08-09T10:37:26Z</time>
      </trkpt>
      <trkpt lat="45.07903" lon="6.10893">
        <ele>1680.8</ele>
        <time>2024-08-09T10:37:27Z</time>
      </trkpt>
      <trkpt lat="45.07904" lon="6.10896">
        <ele>1680.8</ele>
        <time>2024-08-09T10:37:28Z</time>
      </trkpt>
      <trkpt lat="45.07904" lon="6.10896">
        <ele>1681</ele>
        <time>2024-08-09T10:37:29Z</time>
      </trkpt>
      <trkpt lat="45.07904" lon="6.10899">
        <ele>1681</ele>
        <time>2024-08-09T10:37:30Z</time>
      </trkpt>
      <trkpt lat="45.07904" lon="6.10899">
        <ele>1681</ele>
        <time>2024-08-09T10:37:31Z</time>
      </trkpt>
      <trkpt lat="45.07906" lon="6.10902">
        <ele>1681</ele>
        <time>2024-08-09T10:37:32Z</time>
      </trkpt>
      <trkpt lat="45.07906" lon="6.10902">
        <ele>1681</ele>
        <time>2024-08-09T10:37:33Z</time>
      </trkpt>
      <trkpt lat="45.07908" lon="6.10904">
        <ele>1681.2</ele>
        <time>2024-08-09T10:37:34Z</time>
      </trkpt>
      <trkpt lat="45.07908" lon="6.10904">
        <ele>1681.2</ele>
        <time>2024-08-09T10:37:35Z</time>
      </trkpt>
      <trkpt lat="45.07908" lon="6.10907">
        <ele>1681.4</ele>
        <time>2024-08-09T10:37:36Z</time>
      </trkpt>
      <trkpt lat="45.07908" lon="6.10907">
        <ele>1681.6</ele>
        <time>2024-08-09T10:37:37Z</time>
      </trkpt>
      <trkpt lat="45.0791" lon="6.1091">
        <ele>1682</ele>
        <time>2024-08-09T10:37:38Z</time>
      </trkpt>
      <trkpt lat="45.0791" lon="6.1091">
        <ele>1682.4</ele>
        <time>2024-08-09T10:37:39Z</time>
      </trkpt>
      <trkpt lat="45.0791" lon="6.10913">
        <ele>1682.4</ele>
        <time>2024-08-09T10:37:40Z</time>
      </trkpt>
      <trkpt lat="45.0791" lon="6.10913">
        <ele>1682.4</ele>
        <time>2024-08-09T10:37:41Z</time>
      </trkpt>
      <trkpt lat="45.0791" lon="6.10916">
        <ele>1682.6</ele>
        <time>2024-08-09T10:37:42Z</time>
      </trkpt>
      <trkpt lat="45.0791" lon="6.10916">
        <ele>1682.8</ele>
        <time>2024-08-09T10:37:43Z</time>
      </trkpt>
      <trkpt lat="45.0791" lon="6.10919">
        <ele>1683</ele>
        <time>2024-08-09T10:37:44Z</time>
      </trkpt>
      <trkpt lat="45.0791" lon="6.10919">
        <ele>1683.2</ele>
        <time>2024-08-09T10:37:45Z</time>
      </trkpt>
      <trkpt lat="45.0791" lon="6.10923">
        <ele>1683.4</ele>
        <time>2024-08-09T10:37:46Z</time>
      </trkpt>
      <trkpt lat="45.0791" lon="6.10923">
        <ele>1683.4</ele>
        <time>2024-08-09T10:37:47Z</time>
      </trkpt>
      <trkpt lat="45.07911" lon="6.10925">
        <ele>1683.6</ele>
        <time>2024-08-09T10:37:48Z</time>
      </trkpt>
      <trkpt lat="45.07911" lon="6.10925">
        <ele>1683.6</ele>
        <time>2024-08-09T10:37:49Z</time>
      </trkpt>
      <trkpt lat="45.07911" lon="6.10925">
        <ele>1683.6</ele>
        <time>2024-08-09T10:37:50Z</time>
      </trkpt>
      <trkpt lat="45.07912" lon="6.10929">
        <ele>1684</ele>
        <time>2024-08-09T10:37:51Z</time>
      </trkpt>
      <trkpt lat="45.07912" lon="6.10929">
        <ele>1684</ele>
        <time>2024-08-09T10:37:52Z</time>
      </trkpt>
      <trkpt lat="45.07913" lon="6.10932">
        <ele>1684</ele>
        <time>2024-08-09T10:37:53Z</time>
      </trkpt>
      <trkpt lat="45.07913" lon="6.10932">
        <ele>1684.2</ele>
        <time>2024-08-09T10:37:54Z</time>
      </trkpt>
      <trkpt lat="45.07913" lon="6.10935">
        <ele>1684.2</ele>
        <time>2024-08-09T10:37:55Z</time>
      </trkpt>
      <trkpt lat="45.07913" lon="6.10935">
        <ele>1684.2</ele>
        <time>2024-08-09T10:37:56Z</time>
      </trkpt>
      <trkpt lat="45.07913" lon="6.10935">
        <ele>1684.2</ele>
        <time>2024-08-09T10:37:57Z</time>
      </trkpt>
      <trkpt lat="45.07914" lon="6.10939">
        <ele>1684.4</ele>
        <time>2024-08-09T10:37:58Z</time>
      </trkpt>
      <trkpt lat="45.07914" lon="6.10939">
        <ele>1684.4</ele>
        <time>2024-08-09T10:37:59Z</time>
      </trkpt>
      <trkpt lat="45.07914" lon="6.10942">
        <ele>1684.6</ele>
        <time>2024-08-09T10:38:00Z</time>
      </trkpt>
      <trkpt lat="45.07914" lon="6.10942">
        <ele>1684.8</ele>
        <time>2024-08-09T10:38:01Z</time>
      </trkpt>
      <trkpt lat="45.07914" lon="6.10946">
        <ele>1685</ele>
        <time>2024-08-09T10:38:02Z</time>
      </trkpt>
      <trkpt lat="45.07914" lon="6.10946">
        <ele>1685</ele>
        <time>2024-08-09T10:38:03Z</time>
      </trkpt>
      <trkpt lat="45.07913" lon="6.10949">
        <ele>1685.4</ele>
        <time>2024-08-09T10:38:04Z</time>
      </trkpt>
      <trkpt lat="45.07913" lon="6.10949">
        <ele>1685.6</ele>
        <time>2024-08-09T10:38:05Z</time>
      </trkpt>
      <trkpt lat="45.07913" lon="6.10952">
        <ele>1685.6</ele>
        <time>2024-08-09T10:38:06Z</time>
      </trkpt>
      <trkpt lat="45.07913" lon="6.10952">
        <ele>1685.8</ele>
        <time>2024-08-09T10:38:07Z</time>
      </trkpt>
      <trkpt lat="45.07913" lon="6.10956">
        <ele>1685.8</ele>
        <time>2024-08-09T10:38:08Z</time>
      </trkpt>
      <trkpt lat="45.07913" lon="6.10956">
        <ele>1685.8</ele>
        <time>2024-08-09T10:38:09Z</time>
      </trkpt>
      <trkpt lat="45.07913" lon="6.10959">
        <ele>1685.8</ele>
        <time>2024-08-09T10:38:10Z</time>
      </trkpt>
      <trkpt lat="45.07913" lon="6.10959">
        <ele>1685.8</ele>
        <time>2024-08-09T10:38:11Z</time>
      </trkpt>
      <trkpt lat="45.07912" lon="6.10962">
        <ele>1686.4</ele>
        <time>2024-08-09T10:38:12Z</time>
      </trkpt>
      <trkpt lat="45.07912" lon="6.10962">
        <ele>1686.4</ele>
        <time>2024-08-09T10:38:13Z</time>
      </trkpt>
      <trkpt lat="45.07912" lon="6.10965">
        <ele>1686.6</ele>
        <time>2024-08-09T10:38:14Z</time>
      </trkpt>
      <trkpt lat="45.07912" lon="6.10965">
        <ele>1686.6</ele>
        <time>2024-08-09T10:38:15Z</time>
      </trkpt>
      <trkpt lat="45.07912" lon="6.10968">
        <ele>1686.8</ele>
        <time>2024-08-09T10:38:16Z</time>
      </trkpt>
      <trkpt lat="45.07912" lon="6.10968">
        <ele>1687.2</ele>
        <time>2024-08-09T10:38:17Z</time>
      </trkpt>
      <trkpt lat="45.07912" lon="6.10971">
        <ele>1687.2</ele>
        <time>2024-08-09T10:38:18Z</time>
      </trkpt>
      <trkpt lat="45.07912" lon="6.10971">
        <ele>1687.2</ele>
        <time>2024-08-09T10:38:19Z</time>
      </trkpt>
      <trkpt lat="45.07912" lon="6.10974">
        <ele>1687.4</ele>
        <time>2024-08-09T10:38:20Z</time>
      </trkpt>
      <trkpt lat="45.07912" lon="6.10974">
        <ele>1687.8</ele>
        <time>2024-08-09T10:38:21Z</time>
      </trkpt>
      <trkpt lat="45.07911" lon="6.10978">
        <ele>1687.8</ele>
        <time>2024-08-09T10:38:22Z</time>
      </trkpt>
      <trkpt lat="45.07911" lon="6.10978">
        <ele>1687.8</ele>
        <time>2024-08-09T10:38:23Z</time>
      </trkpt>
      <trkpt lat="45.07911" lon="6.10981">
        <ele>1688</ele>
        <time>2024-08-09T10:38:24Z</time>
      </trkpt>
      <trkpt lat="45.07911" lon="6.10981">
        <ele>1688</ele>
        <time>2024-08-09T10:38:25Z</time>
      </trkpt>
      <trkpt lat="45.07911" lon="6.10984">
        <ele>1688</ele>
        <time>2024-08-09T10:38:26Z</time>
      </trkpt>
      <trkpt lat="45.07911" lon="6.10984">
        <ele>1688.2</ele>
        <time>2024-08-09T10:38:27Z</time>
      </trkpt>
      <trkpt lat="45.07911" lon="6.10988">
        <ele>1688.4</ele>
        <time>2024-08-09T10:38:28Z</time>
      </trkpt>
      <trkpt lat="45.07911" lon="6.10988">
        <ele>1688.6</ele>
        <time>2024-08-09T10:38:29Z</time>
      </trkpt>
      <trkpt lat="45.07911" lon="6.10991">
        <ele>1688.6</ele>
        <time>2024-08-09T10:38:30Z</time>
      </trkpt>
      <trkpt lat="45.07911" lon="6.10991">
        <ele>1688.8</ele>
        <time>2024-08-09T10:38:31Z</time>
      </trkpt>
      <trkpt lat="45.07911" lon="6.10995">
        <ele>1688.8</ele>
        <time>2024-08-09T10:38:32Z</time>
      </trkpt>
      <trkpt lat="45.0791" lon="6.10997">
        <ele>1688.8</ele>
        <time>2024-08-09T10:38:33Z</time>
      </trkpt>
      <trkpt lat="45.0791" lon="6.10998">
        <ele>1688.8</ele>
        <time>2024-08-09T10:38:34Z</time>
      </trkpt>
      <trkpt lat="45.0791" lon="6.10999">
        <ele>1689</ele>
        <time>2024-08-09T10:38:35Z</time>
      </trkpt>
      <trkpt lat="45.0791" lon="6.11">
        <ele>1689</ele>
        <time>2024-08-09T10:38:36Z</time>
      </trkpt>
      <trkpt lat="45.0791" lon="6.11004">
        <ele>1689</ele>
        <time>2024-08-09T10:38:37Z</time>
      </trkpt>
      <trkpt lat="45.0791" lon="6.11004">
        <ele>1689.2</ele>
        <time>2024-08-09T10:38:38Z</time>
      </trkpt>
      <trkpt lat="45.0791" lon="6.11007">
        <ele>1689.4</ele>
        <time>2024-08-09T10:38:39Z</time>
      </trkpt>
      <trkpt lat="45.0791" lon="6.11007">
        <ele>1689.6</ele>
        <time>2024-08-09T10:38:40Z</time>
      </trkpt>
      <trkpt lat="45.0791" lon="6.11011">
        <ele>1689.6</ele>
        <time>2024-08-09T10:38:41Z</time>
      </trkpt>
      <trkpt lat="45.0791" lon="6.11011">
        <ele>1689.6</ele>
        <time>2024-08-09T10:38:42Z</time>
      </trkpt>
      <trkpt lat="45.07909" lon="6.11014">
        <ele>1689.6</ele>
        <time>2024-08-09T10:38:43Z</time>
      </trkpt>
      <trkpt lat="45.07909" lon="6.11014">
        <ele>1689.8</ele>
        <time>2024-08-09T10:38:44Z</time>
      </trkpt>
      <trkpt lat="45.07909" lon="6.11017">
        <ele>1689.8</ele>
        <time>2024-08-09T10:38:45Z</time>
      </trkpt>
      <trkpt lat="45.07909" lon="6.11017">
        <ele>1690</ele>
        <time>2024-08-09T10:38:46Z</time>
      </trkpt>
      <trkpt lat="45.07909" lon="6.11021">
        <ele>1690</ele>
        <time>2024-08-09T10:38:47Z</time>
      </trkpt>
      <trkpt lat="45.07909" lon="6.11021">
        <ele>1690.4</ele>
        <time>2024-08-09T10:38:48Z</time>
      </trkpt>
      <trkpt lat="45.07909" lon="6.11024">
        <ele>1690.4</ele>
        <time>2024-08-09T10:38:49Z</time>
      </trkpt>
      <trkpt lat="45.07909" lon="6.11024">
        <ele>1690.4</ele>
        <time>2024-08-09T10:38:50Z</time>
      </trkpt>
      <trkpt lat="45.07909" lon="6.11027">
        <ele>1690.4</ele>
        <time>2024-08-09T10:38:51Z</time>
      </trkpt>
      <trkpt lat="45.07909" lon="6.11027">
        <ele>1690.8</ele>
        <time>2024-08-09T10:38:52Z</time>
      </trkpt>
      <trkpt lat="45.07909" lon="6.1103">
        <ele>1690.8</ele>
        <time>2024-08-09T10:38:53Z</time>
      </trkpt>
      <trkpt lat="45.07909" lon="6.1103">
        <ele>1690.6</ele>
        <time>2024-08-09T10:38:54Z</time>
      </trkpt>
      <trkpt lat="45.07909" lon="6.11034">
        <ele>1690.6</ele>
        <time>2024-08-09T10:38:55Z</time>
      </trkpt>
      <trkpt lat="45.07909" lon="6.11034">
        <ele>1690.6</ele>
        <time>2024-08-09T10:38:56Z</time>
      </trkpt>
      <trkpt lat="45.07909" lon="6.11037">
        <ele>1690.8</ele>
        <time>2024-08-09T10:38:57Z</time>
      </trkpt>
      <trkpt lat="45.07909" lon="6.11037">
        <ele>1690.8</ele>
        <time>2024-08-09T10:38:58Z</time>
      </trkpt>
      <trkpt lat="45.07909" lon="6.11041">
        <ele>1691</ele>
        <time>2024-08-09T10:38:59Z</time>
      </trkpt>
      <trkpt lat="45.07909" lon="6.11041">
        <ele>1691</ele>
        <time>2024-08-09T10:39:00Z</time>
      </trkpt>
      <trkpt lat="45.07909" lon="6.11044">
        <ele>1691</ele>
        <time>2024-08-09T10:39:01Z</time>
      </trkpt>
      <trkpt lat="45.07909" lon="6.11044">
        <ele>1691.2</ele>
        <time>2024-08-09T10:39:02Z</time>
      </trkpt>
      <trkpt lat="45.07909" lon="6.11047">
        <ele>1691.2</ele>
        <time>2024-08-09T10:39:03Z</time>
      </trkpt>
      <trkpt lat="45.07909" lon="6.11047">
        <ele>1691.2</ele>
        <time>2024-08-09T10:39:04Z</time>
      </trkpt>
      <trkpt lat="45.07909" lon="6.11051">
        <ele>1691.2</ele>
        <time>2024-08-09T10:39:05Z</time>
      </trkpt>
      <trkpt lat="45.07909" lon="6.11051">
        <ele>1691.2</ele>
        <time>2024-08-09T10:39:06Z</time>
      </trkpt>
      <trkpt lat="45.07909" lon="6.11054">
        <ele>1691.2</ele>
        <time>2024-08-09T10:39:07Z</time>
      </trkpt>
      <trkpt lat="45.07909" lon="6.11054">
        <ele>1691.4</ele>
        <time>2024-08-09T10:39:08Z</time>
      </trkpt>
      <trkpt lat="45.07909" lon="6.11058">
        <ele>1691.6</ele>
        <time>2024-08-09T10:39:09Z</time>
      </trkpt>
      <trkpt lat="45.07909" lon="6.11058">
        <ele>1691.8</ele>
        <time>2024-08-09T10:39:10Z</time>
      </trkpt>
      <trkpt lat="45.07909" lon="6.11061">
        <ele>1691.8</ele>
        <time>2024-08-09T10:39:11Z</time>
      </trkpt>
      <trkpt lat="45.07909" lon="6.11061">
        <ele>1692</ele>
        <time>2024-08-09T10:39:12Z</time>
      </trkpt>
      <trkpt lat="45.07909" lon="6.11064">
        <ele>1692.2</ele>
        <time>2024-08-09T10:39:13Z</time>
      </trkpt>
      <trkpt lat="45.07909" lon="6.11064">
        <ele>1692.4</ele>
        <time>2024-08-09T10:39:14Z</time>
      </trkpt>
      <trkpt lat="45.07909" lon="6.11068">
        <ele>1692.6</ele>
        <time>2024-08-09T10:39:15Z</time>
      </trkpt>
      <trkpt lat="45.07909" lon="6.11068">
        <ele>1692.6</ele>
        <time>2024-08-09T10:39:16Z</time>
      </trkpt>
      <trkpt lat="45.07909" lon="6.11071">
        <ele>1692.6</ele>
        <time>2024-08-09T10:39:17Z</time>
      </trkpt>
      <trkpt lat="45.07909" lon="6.11071">
        <ele>1692.8</ele>
        <time>2024-08-09T10:39:18Z</time>
      </trkpt>
      <trkpt lat="45.07909" lon="6.11075">
        <ele>1692.8</ele>
        <time>2024-08-09T10:39:19Z</time>
      </trkpt>
      <trkpt lat="45.07909" lon="6.11075">
        <ele>1693.2</ele>
        <time>2024-08-09T10:39:20Z</time>
      </trkpt>
      <trkpt lat="45.07909" lon="6.11078">
        <ele>1693.2</ele>
        <time>2024-08-09T10:39:21Z</time>
      </trkpt>
      <trkpt lat="45.07909" lon="6.11078">
        <ele>1693.2</ele>
        <time>2024-08-09T10:39:22Z</time>
      </trkpt>
      <trkpt lat="45.07909" lon="6.11082">
        <ele>1693.4</ele>
        <time>2024-08-09T10:39:23Z</time>
      </trkpt>
      <trkpt lat="45.07909" lon="6.11082">
        <ele>1693.4</ele>
        <time>2024-08-09T10:39:24Z</time>
      </trkpt>
      <trkpt lat="45.07909" lon="6.11085">
        <ele>1693.6</ele>
        <time>2024-08-09T10:39:25Z</time>
      </trkpt>
      <trkpt lat="45.07909" lon="6.11085">
        <ele>1693.8</ele>
        <time>2024-08-09T10:39:26Z</time>
      </trkpt>
      <trkpt lat="45.07909" lon="6.11089">
        <ele>1693.8</ele>
        <time>2024-08-09T10:39:27Z</time>
      </trkpt>
      <trkpt lat="45.07909" lon="6.11089">
        <ele>1693.8</ele>
        <time>2024-08-09T10:39:28Z</time>
      </trkpt>
      <trkpt lat="45.07909" lon="6.11092">
        <ele>1694</ele>
        <time>2024-08-09T10:39:29Z</time>
      </trkpt>
      <trkpt lat="45.07909" lon="6.11092">
        <ele>1694</ele>
        <time>2024-08-09T10:39:30Z</time>
      </trkpt>
      <trkpt lat="45.07909" lon="6.11095">
        <ele>1694.2</ele>
        <time>2024-08-09T10:39:31Z</time>
      </trkpt>
      <trkpt lat="45.07909" lon="6.11095">
        <ele>1694.4</ele>
        <time>2024-08-09T10:39:32Z</time>
      </trkpt>
      <trkpt lat="45.07909" lon="6.11098">
        <ele>1694.4</ele>
        <time>2024-08-09T10:39:33Z</time>
      </trkpt>
      <trkpt lat="45.07909" lon="6.11098">
        <ele>1694.6</ele>
        <time>2024-08-09T10:39:34Z</time>
      </trkpt>
      <trkpt lat="45.07909" lon="6.11101">
        <ele>1694.6</ele>
        <time>2024-08-09T10:39:35Z</time>
      </trkpt>
      <trkpt lat="45.07909" lon="6.11101">
        <ele>1694.6</ele>
        <time>2024-08-09T10:39:36Z</time>
      </trkpt>
      <trkpt lat="45.07909" lon="6.11105">
        <ele>1694.6</ele>
        <time>2024-08-09T10:39:37Z</time>
      </trkpt>
      <trkpt lat="45.07909" lon="6.11105">
        <ele>1694.8</ele>
        <time>2024-08-09T10:39:38Z</time>
      </trkpt>
      <trkpt lat="45.07909" lon="6.11108">
        <ele>1694.8</ele>
        <time>2024-08-09T10:39:39Z</time>
      </trkpt>
      <trkpt lat="45.07909" lon="6.11108">
        <ele>1695</ele>
        <time>2024-08-09T10:39:40Z</time>
      </trkpt>
      <trkpt lat="45.07908" lon="6.11111">
        <ele>1695.2</ele>
        <time>2024-08-09T10:39:41Z</time>
      </trkpt>
      <trkpt lat="45.07908" lon="6.11111">
        <ele>1695.4</ele>
        <time>2024-08-09T10:39:42Z</time>
      </trkpt>
      <trkpt lat="45.07906" lon="6.11114">
        <ele>1695.4</ele>
        <time>2024-08-09T10:39:43Z</time>
      </trkpt>
      <trkpt lat="45.07906" lon="6.11114">
        <ele>1695.4</ele>
        <time>2024-08-09T10:39:44Z</time>
      </trkpt>
      <trkpt lat="45.07905" lon="6.11117">
        <ele>1695.4</ele>
        <time>2024-08-09T10:39:45Z</time>
      </trkpt>
      <trkpt lat="45.07905" lon="6.11117">
        <ele>1695.4</ele>
        <time>2024-08-09T10:39:46Z</time>
      </trkpt>
      <trkpt lat="45.07905" lon="6.1112">
        <ele>1695.4</ele>
        <time>2024-08-09T10:39:47Z</time>
      </trkpt>
      <trkpt lat="45.07905" lon="6.1112">
        <ele>1695.2</ele>
        <time>2024-08-09T10:39:48Z</time>
      </trkpt>
      <trkpt lat="45.07905" lon="6.11123">
        <ele>1695.2</ele>
        <time>2024-08-09T10:39:49Z</time>
      </trkpt>
      <trkpt lat="45.07905" lon="6.11123">
        <ele>1695.6</ele>
        <time>2024-08-09T10:39:50Z</time>
      </trkpt>
      <trkpt lat="45.07904" lon="6.11127">
        <ele>1695.6</ele>
        <time>2024-08-09T10:39:51Z</time>
      </trkpt>
      <trkpt lat="45.07904" lon="6.11127">
        <ele>1695.8</ele>
        <time>2024-08-09T10:39:52Z</time>
      </trkpt>
      <trkpt lat="45.07903" lon="6.1113">
        <ele>1696</ele>
        <time>2024-08-09T10:39:53Z</time>
      </trkpt>
      <trkpt lat="45.07903" lon="6.1113">
        <ele>1696.2</ele>
        <time>2024-08-09T10:39:54Z</time>
      </trkpt>
      <trkpt lat="45.07902" lon="6.11133">
        <ele>1696.2</ele>
        <time>2024-08-09T10:39:55Z</time>
      </trkpt>
      <trkpt lat="45.07902" lon="6.11133">
        <ele>1696.2</ele>
        <time>2024-08-09T10:39:56Z</time>
      </trkpt>
      <trkpt lat="45.07901" lon="6.11136">
        <ele>1696.4</ele>
        <time>2024-08-09T10:39:57Z</time>
      </trkpt>
      <trkpt lat="45.07901" lon="6.11136">
        <ele>1696.4</ele>
        <time>2024-08-09T10:39:58Z</time>
      </trkpt>
      <trkpt lat="45.079" lon="6.11139">
        <ele>1696.4</ele>
        <time>2024-08-09T10:39:59Z</time>
      </trkpt>
      <trkpt lat="45.079" lon="6.11142">
        <ele>1696.8</ele>
        <time>2024-08-09T10:40:01Z</time>
      </trkpt>
      <trkpt lat="45.079" lon="6.11142">
        <ele>1696.8</ele>
        <time>2024-08-09T10:40:02Z</time>
      </trkpt>
      <trkpt lat="45.07899" lon="6.11145">
        <ele>1697</ele>
        <time>2024-08-09T10:40:03Z</time>
      </trkpt>
      <trkpt lat="45.07899" lon="6.11145">
        <ele>1697.2</ele>
        <time>2024-08-09T10:40:04Z</time>
      </trkpt>
      <trkpt lat="45.07898" lon="6.11149">
        <ele>1697.2</ele>
        <time>2024-08-09T10:40:05Z</time>
      </trkpt>
      <trkpt lat="45.07898" lon="6.11149">
        <ele>1697.4</ele>
        <time>2024-08-09T10:40:06Z</time>
      </trkpt>
      <trkpt lat="45.07896" lon="6.11151">
        <ele>1697.4</ele>
        <time>2024-08-09T10:40:07Z</time>
      </trkpt>
      <trkpt lat="45.07896" lon="6.11151">
        <ele>1697.6</ele>
        <time>2024-08-09T10:40:08Z</time>
      </trkpt>
      <trkpt lat="45.07895" lon="6.11154">
        <ele>1697.6</ele>
        <time>2024-08-09T10:40:09Z</time>
      </trkpt>
      <trkpt lat="45.07895" lon="6.11154">
        <ele>1697.6</ele>
        <time>2024-08-09T10:40:10Z</time>
      </trkpt>
      <trkpt lat="45.07894" lon="6.11158">
        <ele>1697.8</ele>
        <time>2024-08-09T10:40:11Z</time>
      </trkpt>
      <trkpt lat="45.07894" lon="6.11158">
        <ele>1697.8</ele>
        <time>2024-08-09T10:40:12Z</time>
      </trkpt>
      <trkpt lat="45.07894" lon="6.11161">
        <ele>1698.2</ele>
        <time>2024-08-09T10:40:13Z</time>
      </trkpt>
      <trkpt lat="45.07894" lon="6.11161">
        <ele>1698.2</ele>
        <time>2024-08-09T10:40:14Z</time>
      </trkpt>
      <trkpt lat="45.07893" lon="6.11164">
        <ele>1698.6</ele>
        <time>2024-08-09T10:40:15Z</time>
      </trkpt>
      <trkpt lat="45.07893" lon="6.11164">
        <ele>1698.8</ele>
        <time>2024-08-09T10:40:16Z</time>
      </trkpt>
      <trkpt lat="45.07893" lon="6.11166">
        <ele>1698.8</ele>
        <time>2024-08-09T10:40:17Z</time>
      </trkpt>
      <trkpt lat="45.07893" lon="6.11166">
        <ele>1698.6</ele>
        <time>2024-08-09T10:40:18Z</time>
      </trkpt>
      <trkpt lat="45.07892" lon="6.11169">
        <ele>1698.6</ele>
        <time>2024-08-09T10:40:19Z</time>
      </trkpt>
      <trkpt lat="45.07892" lon="6.11169">
        <ele>1699</ele>
        <time>2024-08-09T10:40:20Z</time>
      </trkpt>
      <trkpt lat="45.07891" lon="6.11173">
        <ele>1699.2</ele>
        <time>2024-08-09T10:40:21Z</time>
      </trkpt>
      <trkpt lat="45.07891" lon="6.11173">
        <ele>1699.2</ele>
        <time>2024-08-09T10:40:22Z</time>
      </trkpt>
      <trkpt lat="45.0789" lon="6.11176">
        <ele>1699.4</ele>
        <time>2024-08-09T10:40:23Z</time>
      </trkpt>
      <trkpt lat="45.0789" lon="6.11176">
        <ele>1699.4</ele>
        <time>2024-08-09T10:40:24Z</time>
      </trkpt>
      <trkpt lat="45.0789" lon="6.1118">
        <ele>1699.4</ele>
        <time>2024-08-09T10:40:25Z</time>
      </trkpt>
      <trkpt lat="45.0789" lon="6.1118">
        <ele>1699.4</ele>
        <time>2024-08-09T10:40:26Z</time>
      </trkpt>
      <trkpt lat="45.0789" lon="6.11183">
        <ele>1699.8</ele>
        <time>2024-08-09T10:40:27Z</time>
      </trkpt>
      <trkpt lat="45.0789" lon="6.11183">
        <ele>1700</ele>
        <time>2024-08-09T10:40:28Z</time>
      </trkpt>
      <trkpt lat="45.07889" lon="6.11186">
        <ele>1700</ele>
        <time>2024-08-09T10:40:29Z</time>
      </trkpt>
      <trkpt lat="45.07889" lon="6.11186">
        <ele>1700.2</ele>
        <time>2024-08-09T10:40:30Z</time>
      </trkpt>
      <trkpt lat="45.07888" lon="6.11189">
        <ele>1700.2</ele>
        <time>2024-08-09T10:40:31Z</time>
      </trkpt>
      <trkpt lat="45.07888" lon="6.11189">
        <ele>1700.4</ele>
        <time>2024-08-09T10:40:32Z</time>
      </trkpt>
      <trkpt lat="45.07888" lon="6.11193">
        <ele>1700.4</ele>
        <time>2024-08-09T10:40:33Z</time>
      </trkpt>
      <trkpt lat="45.07888" lon="6.11193">
        <ele>1700.4</ele>
        <time>2024-08-09T10:40:34Z</time>
      </trkpt>
      <trkpt lat="45.07887" lon="6.11197">
        <ele>1700.6</ele>
        <time>2024-08-09T10:40:35Z</time>
      </trkpt>
      <trkpt lat="45.07887" lon="6.11197">
        <ele>1700.8</ele>
        <time>2024-08-09T10:40:36Z</time>
      </trkpt>
      <trkpt lat="45.07886" lon="6.112">
        <ele>1700.8</ele>
        <time>2024-08-09T10:40:37Z</time>
      </trkpt>
      <trkpt lat="45.07886" lon="6.112">
        <ele>1701</ele>
        <time>2024-08-09T10:40:38Z</time>
      </trkpt>
      <trkpt lat="45.07885" lon="6.11204">
        <ele>1701.2</ele>
        <time>2024-08-09T10:40:39Z</time>
      </trkpt>
      <trkpt lat="45.07885" lon="6.11204">
        <ele>1701.2</ele>
        <time>2024-08-09T10:40:40Z</time>
      </trkpt>
      <trkpt lat="45.07885" lon="6.11207">
        <ele>1701.2</ele>
        <time>2024-08-09T10:40:41Z</time>
      </trkpt>
      <trkpt lat="45.07885" lon="6.11207">
        <ele>1701.4</ele>
        <time>2024-08-09T10:40:42Z</time>
      </trkpt>
      <trkpt lat="45.07885" lon="6.1121">
        <ele>1701.6</ele>
        <time>2024-08-09T10:40:43Z</time>
      </trkpt>
      <trkpt lat="45.07885" lon="6.1121">
        <ele>1701.8</ele>
        <time>2024-08-09T10:40:44Z</time>
      </trkpt>
      <trkpt lat="45.07884" lon="6.11214">
        <ele>1701.8</ele>
        <time>2024-08-09T10:40:45Z</time>
      </trkpt>
      <trkpt lat="45.07884" lon="6.11214">
        <ele>1701.8</ele>
        <time>2024-08-09T10:40:46Z</time>
      </trkpt>
      <trkpt lat="45.07884" lon="6.11216">
        <ele>1701.8</ele>
        <time>2024-08-09T10:40:47Z</time>
      </trkpt>
      <trkpt lat="45.07884" lon="6.11216">
        <ele>1701.8</ele>
        <time>2024-08-09T10:40:48Z</time>
      </trkpt>
      <trkpt lat="45.07883" lon="6.1122">
        <ele>1701.8</ele>
        <time>2024-08-09T10:40:49Z</time>
      </trkpt>
      <trkpt lat="45.07883" lon="6.1122">
        <ele>1702</ele>
        <time>2024-08-09T10:40:50Z</time>
      </trkpt>
      <trkpt lat="45.07883" lon="6.11224">
        <ele>1702</ele>
        <time>2024-08-09T10:40:51Z</time>
      </trkpt>
      <trkpt lat="45.07883" lon="6.11224">
        <ele>1702.2</ele>
        <time>2024-08-09T10:40:52Z</time>
      </trkpt>
      <trkpt lat="45.07883" lon="6.11227">
        <ele>1702.2</ele>
        <time>2024-08-09T10:40:53Z</time>
      </trkpt>
      <trkpt lat="45.07883" lon="6.11227">
        <ele>1702.4</ele>
        <time>2024-08-09T10:40:54Z</time>
      </trkpt>
      <trkpt lat="45.07883" lon="6.11231">
        <ele>1702.6</ele>
        <time>2024-08-09T10:40:55Z</time>
      </trkpt>
      <trkpt lat="45.07883" lon="6.11231">
        <ele>1702.6</ele>
        <time>2024-08-09T10:40:56Z</time>
      </trkpt>
      <trkpt lat="45.07882" lon="6.11234">
        <ele>1702.6</ele>
        <time>2024-08-09T10:40:57Z</time>
      </trkpt>
      <trkpt lat="45.07882" lon="6.11234">
        <ele>1702.6</ele>
        <time>2024-08-09T10:40:58Z</time>
      </trkpt>
      <trkpt lat="45.07882" lon="6.11237">
        <ele>1702.8</ele>
        <time>2024-08-09T10:40:59Z</time>
      </trkpt>
      <trkpt lat="45.07882" lon="6.11237">
        <ele>1703</ele>
        <time>2024-08-09T10:41:00Z</time>
      </trkpt>
      <trkpt lat="45.07882" lon="6.11241">
        <ele>1703</ele>
        <time>2024-08-09T10:41:01Z</time>
      </trkpt>
      <trkpt lat="45.07882" lon="6.11241">
        <ele>1702.8</ele>
        <time>2024-08-09T10:41:02Z</time>
      </trkpt>
      <trkpt lat="45.07882" lon="6.11244">
        <ele>1702.8</ele>
        <time>2024-08-09T10:41:03Z</time>
      </trkpt>
      <trkpt lat="45.07882" lon="6.11244">
        <ele>1703</ele>
        <time>2024-08-09T10:41:04Z</time>
      </trkpt>
      <trkpt lat="45.07882" lon="6.11248">
        <ele>1703.2</ele>
        <time>2024-08-09T10:41:05Z</time>
      </trkpt>
      <trkpt lat="45.07882" lon="6.11248">
        <ele>1703.2</ele>
        <time>2024-08-09T10:41:06Z</time>
      </trkpt>
      <trkpt lat="45.07881" lon="6.11252">
        <ele>1703.4</ele>
        <time>2024-08-09T10:41:07Z</time>
      </trkpt>
      <trkpt lat="45.07881" lon="6.11252">
        <ele>1703.4</ele>
        <time>2024-08-09T10:41:08Z</time>
      </trkpt>
      <trkpt lat="45.07881" lon="6.11255">
        <ele>1703.4</ele>
        <time>2024-08-09T10:41:09Z</time>
      </trkpt>
      <trkpt lat="45.07881" lon="6.11255">
        <ele>1703.6</ele>
        <time>2024-08-09T10:41:10Z</time>
      </trkpt>
      <trkpt lat="45.07881" lon="6.11258">
        <ele>1703.6</ele>
        <time>2024-08-09T10:41:11Z</time>
      </trkpt>
      <trkpt lat="45.07881" lon="6.11258">
        <ele>1703.8</ele>
        <time>2024-08-09T10:41:12Z</time>
      </trkpt>
      <trkpt lat="45.0788" lon="6.11261">
        <ele>1703.8</ele>
        <time>2024-08-09T10:41:13Z</time>
      </trkpt>
      <trkpt lat="45.0788" lon="6.11261">
        <ele>1704</ele>
        <time>2024-08-09T10:41:14Z</time>
      </trkpt>
      <trkpt lat="45.0788" lon="6.11265">
        <ele>1704</ele>
        <time>2024-08-09T10:41:15Z</time>
      </trkpt>
      <trkpt lat="45.0788" lon="6.11265">
        <ele>1704.2</ele>
        <time>2024-08-09T10:41:16Z</time>
      </trkpt>
      <trkpt lat="45.0788" lon="6.11269">
        <ele>1704.2</ele>
        <time>2024-08-09T10:41:17Z</time>
      </trkpt>
      <trkpt lat="45.0788" lon="6.11269">
        <ele>1704.2</ele>
        <time>2024-08-09T10:41:18Z</time>
      </trkpt>
      <trkpt lat="45.07879" lon="6.11272">
        <ele>1704.6</ele>
        <time>2024-08-09T10:41:19Z</time>
      </trkpt>
      <trkpt lat="45.07879" lon="6.11272">
        <ele>1704.8</ele>
        <time>2024-08-09T10:41:20Z</time>
      </trkpt>
      <trkpt lat="45.07879" lon="6.11276">
        <ele>1704.8</ele>
        <time>2024-08-09T10:41:21Z</time>
      </trkpt>
      <trkpt lat="45.07879" lon="6.11276">
        <ele>1704.8</ele>
        <time>2024-08-09T10:41:22Z</time>
      </trkpt>
      <trkpt lat="45.07878" lon="6.11279">
        <ele>1704.6</ele>
        <time>2024-08-09T10:41:23Z</time>
      </trkpt>
      <trkpt lat="45.07878" lon="6.11279">
        <ele>1704.6</ele>
        <time>2024-08-09T10:41:24Z</time>
      </trkpt>
      <trkpt lat="45.07878" lon="6.11283">
        <ele>1704.8</ele>
        <time>2024-08-09T10:41:25Z</time>
      </trkpt>
      <trkpt lat="45.07878" lon="6.11283">
        <ele>1704.8</ele>
        <time>2024-08-09T10:41:26Z</time>
      </trkpt>
      <trkpt lat="45.07878" lon="6.11286">
        <ele>1705</ele>
        <time>2024-08-09T10:41:27Z</time>
      </trkpt>
      <trkpt lat="45.07878" lon="6.11286">
        <ele>1705</ele>
        <time>2024-08-09T10:41:28Z</time>
      </trkpt>
      <trkpt lat="45.07877" lon="6.11289">
        <ele>1705.2</ele>
        <time>2024-08-09T10:41:29Z</time>
      </trkpt>
      <trkpt lat="45.07877" lon="6.11289">
        <ele>1705.4</ele>
        <time>2024-08-09T10:41:30Z</time>
      </trkpt>
      <trkpt lat="45.07877" lon="6.11292">
        <ele>1705.4</ele>
        <time>2024-08-09T10:41:31Z</time>
      </trkpt>
      <trkpt lat="45.07877" lon="6.11292">
        <ele>1705.4</ele>
        <time>2024-08-09T10:41:32Z</time>
      </trkpt>
      <trkpt lat="45.07876" lon="6.11295">
        <ele>1705.6</ele>
        <time>2024-08-09T10:41:33Z</time>
      </trkpt>
      <trkpt lat="45.07876" lon="6.11295">
        <ele>1705.6</ele>
        <time>2024-08-09T10:41:34Z</time>
      </trkpt>
      <trkpt lat="45.07876" lon="6.11298">
        <ele>1705.6</ele>
        <time>2024-08-09T10:41:35Z</time>
      </trkpt>
      <trkpt lat="45.07876" lon="6.11298">
        <ele>1705.8</ele>
        <time>2024-08-09T10:41:36Z</time>
      </trkpt>
      <trkpt lat="45.07875" lon="6.11302">
        <ele>1706</ele>
        <time>2024-08-09T10:41:37Z</time>
      </trkpt>
      <trkpt lat="45.07875" lon="6.11302">
        <ele>1706</ele>
        <time>2024-08-09T10:41:38Z</time>
      </trkpt>
      <trkpt lat="45.07875" lon="6.11305">
        <ele>1706</ele>
        <time>2024-08-09T10:41:39Z</time>
      </trkpt>
      <trkpt lat="45.07875" lon="6.11305">
        <ele>1706.2</ele>
        <time>2024-08-09T10:41:40Z</time>
      </trkpt>
      <trkpt lat="45.07875" lon="6.11309">
        <ele>1706.4</ele>
        <time>2024-08-09T10:41:41Z</time>
      </trkpt>
      <trkpt lat="45.07875" lon="6.11309">
        <ele>1706.4</ele>
        <time>2024-08-09T10:41:42Z</time>
      </trkpt>
      <trkpt lat="45.07874" lon="6.11313">
        <ele>1706.6</ele>
        <time>2024-08-09T10:41:43Z</time>
      </trkpt>
      <trkpt lat="45.07874" lon="6.11313">
        <ele>1706.8</ele>
        <time>2024-08-09T10:41:44Z</time>
      </trkpt>
      <trkpt lat="45.07875" lon="6.11316">
        <ele>1706.8</ele>
        <time>2024-08-09T10:41:45Z</time>
      </trkpt>
      <trkpt lat="45.07875" lon="6.11316">
        <ele>1707</ele>
        <time>2024-08-09T10:41:46Z</time>
      </trkpt>
      <trkpt lat="45.07874" lon="6.1132">
        <ele>1707.2</ele>
        <time>2024-08-09T10:41:47Z</time>
      </trkpt>
      <trkpt lat="45.07874" lon="6.1132">
        <ele>1707.2</ele>
        <time>2024-08-09T10:41:48Z</time>
      </trkpt>
      <trkpt lat="45.07874" lon="6.11323">
        <ele>1707.2</ele>
        <time>2024-08-09T10:41:49Z</time>
      </trkpt>
      <trkpt lat="45.07874" lon="6.11323">
        <ele>1707.4</ele>
        <time>2024-08-09T10:41:50Z</time>
      </trkpt>
      <trkpt lat="45.07874" lon="6.11327">
        <ele>1707.4</ele>
        <time>2024-08-09T10:41:51Z</time>
      </trkpt>
      <trkpt lat="45.07874" lon="6.11327">
        <ele>1707.4</ele>
        <time>2024-08-09T10:41:52Z</time>
      </trkpt>
      <trkpt lat="45.07873" lon="6.1133">
        <ele>1707.6</ele>
        <time>2024-08-09T10:41:53Z</time>
      </trkpt>
      <trkpt lat="45.07873" lon="6.1133">
        <ele>1707.6</ele>
        <time>2024-08-09T10:41:54Z</time>
      </trkpt>
      <trkpt lat="45.07873" lon="6.11334">
        <ele>1707.6</ele>
        <time>2024-08-09T10:41:55Z</time>
      </trkpt>
      <trkpt lat="45.07873" lon="6.11334">
        <ele>1707.4</ele>
        <time>2024-08-09T10:41:56Z</time>
      </trkpt>
      <trkpt lat="45.07873" lon="6.11337">
        <ele>1707.4</ele>
        <time>2024-08-09T10:41:57Z</time>
      </trkpt>
      <trkpt lat="45.07873" lon="6.11337">
        <ele>1707.4</ele>
        <time>2024-08-09T10:41:58Z</time>
      </trkpt>
      <trkpt lat="45.07873" lon="6.1134">
        <ele>1707.6</ele>
        <time>2024-08-09T10:41:59Z</time>
      </trkpt>
      <trkpt lat="45.07873" lon="6.1134">
        <ele>1707.8</ele>
        <time>2024-08-09T10:42:00Z</time>
      </trkpt>
      <trkpt lat="45.07872" lon="6.11343">
        <ele>1707.8</ele>
        <time>2024-08-09T10:42:01Z</time>
      </trkpt>
      <trkpt lat="45.07872" lon="6.11343">
        <ele>1707.8</ele>
        <time>2024-08-09T10:42:02Z</time>
      </trkpt>
      <trkpt lat="45.07872" lon="6.11347">
        <ele>1707.8</ele>
        <time>2024-08-09T10:42:03Z</time>
      </trkpt>
      <trkpt lat="45.07872" lon="6.11347">
        <ele>1707.4</ele>
        <time>2024-08-09T10:42:04Z</time>
      </trkpt>
      <trkpt lat="45.07872" lon="6.1135">
        <ele>1707.4</ele>
        <time>2024-08-09T10:42:05Z</time>
      </trkpt>
      <trkpt lat="45.07872" lon="6.1135">
        <ele>1707.2</ele>
        <time>2024-08-09T10:42:06Z</time>
      </trkpt>
      <trkpt lat="45.07871" lon="6.11354">
        <ele>1707.2</ele>
        <time>2024-08-09T10:42:07Z</time>
      </trkpt>
      <trkpt lat="45.07871" lon="6.11354">
        <ele>1707.2</ele>
        <time>2024-08-09T10:42:08Z</time>
      </trkpt>
      <trkpt lat="45.07871" lon="6.11357">
        <ele>1707.2</ele>
        <time>2024-08-09T10:42:09Z</time>
      </trkpt>
      <trkpt lat="45.07871" lon="6.11357">
        <ele>1707</ele>
        <time>2024-08-09T10:42:10Z</time>
      </trkpt>
      <trkpt lat="45.0787" lon="6.11361">
        <ele>1706.8</ele>
        <time>2024-08-09T10:42:11Z</time>
      </trkpt>
      <trkpt lat="45.0787" lon="6.11361">
        <ele>1706.8</ele>
        <time>2024-08-09T10:42:12Z</time>
      </trkpt>
      <trkpt lat="45.0787" lon="6.11364">
        <ele>1706.6</ele>
        <time>2024-08-09T10:42:13Z</time>
      </trkpt>
      <trkpt lat="45.0787" lon="6.11364">
        <ele>1706.6</ele>
        <time>2024-08-09T10:42:14Z</time>
      </trkpt>
      <trkpt lat="45.0787" lon="6.11368">
        <ele>1707</ele>
        <time>2024-08-09T10:42:15Z</time>
      </trkpt>
      <trkpt lat="45.0787" lon="6.11368">
        <ele>1707</ele>
        <time>2024-08-09T10:42:16Z</time>
      </trkpt>
      <trkpt lat="45.0787" lon="6.11371">
        <ele>1706.8</ele>
        <time>2024-08-09T10:42:17Z</time>
      </trkpt>
      <trkpt lat="45.0787" lon="6.11371">
        <ele>1706.8</ele>
        <time>2024-08-09T10:42:18Z</time>
      </trkpt>
      <trkpt lat="45.07869" lon="6.11374">
        <ele>1707</ele>
        <time>2024-08-09T10:42:19Z</time>
      </trkpt>
      <trkpt lat="45.07869" lon="6.11374">
        <ele>1707</ele>
        <time>2024-08-09T10:42:20Z</time>
      </trkpt>
      <trkpt lat="45.07868" lon="6.11377">
        <ele>1707</ele>
        <time>2024-08-09T10:42:21Z</time>
      </trkpt>
      <trkpt lat="45.07868" lon="6.11377">
        <ele>1707</ele>
        <time>2024-08-09T10:42:22Z</time>
      </trkpt>
      <trkpt lat="45.07867" lon="6.1138">
        <ele>1707.2</ele>
        <time>2024-08-09T10:42:23Z</time>
      </trkpt>
      <trkpt lat="45.07867" lon="6.1138">
        <ele>1707.2</ele>
        <time>2024-08-09T10:42:24Z</time>
      </trkpt>
      <trkpt lat="45.07866" lon="6.11384">
        <ele>1707</ele>
        <time>2024-08-09T10:42:25Z</time>
      </trkpt>
      <trkpt lat="45.07866" lon="6.11384">
        <ele>1707</ele>
        <time>2024-08-09T10:42:26Z</time>
      </trkpt>
      <trkpt lat="45.07866" lon="6.11387">
        <ele>1707.2</ele>
        <time>2024-08-09T10:42:27Z</time>
      </trkpt>
      <trkpt lat="45.07866" lon="6.11387">
        <ele>1707.6</ele>
        <time>2024-08-09T10:42:28Z</time>
      </trkpt>
      <trkpt lat="45.07866" lon="6.1139">
        <ele>1707.6</ele>
        <time>2024-08-09T10:42:29Z</time>
      </trkpt>
      <trkpt lat="45.07866" lon="6.1139">
        <ele>1707.6</ele>
        <time>2024-08-09T10:42:30Z</time>
      </trkpt>
      <trkpt lat="45.07865" lon="6.11393">
        <ele>1707.8</ele>
        <time>2024-08-09T10:42:31Z</time>
      </trkpt>
      <trkpt lat="45.07865" lon="6.11393">
        <ele>1707.8</ele>
        <time>2024-08-09T10:42:32Z</time>
      </trkpt>
      <trkpt lat="45.07864" lon="6.11396">
        <ele>1708</ele>
        <time>2024-08-09T10:42:33Z</time>
      </trkpt>
      <trkpt lat="45.07864" lon="6.11396">
        <ele>1708</ele>
        <time>2024-08-09T10:42:34Z</time>
      </trkpt>
      <trkpt lat="45.07863" lon="6.11399">
        <ele>1708.4</ele>
        <time>2024-08-09T10:42:35Z</time>
      </trkpt>
      <trkpt lat="45.07863" lon="6.11399">
        <ele>1708.4</ele>
        <time>2024-08-09T10:42:36Z</time>
      </trkpt>
      <trkpt lat="45.07863" lon="6.11403">
        <ele>1708.4</ele>
        <time>2024-08-09T10:42:37Z</time>
      </trkpt>
      <trkpt lat="45.07863" lon="6.11403">
        <ele>1708.6</ele>
        <time>2024-08-09T10:42:38Z</time>
      </trkpt>
      <trkpt lat="45.07862" lon="6.11406">
        <ele>1708.8</ele>
        <time>2024-08-09T10:42:39Z</time>
      </trkpt>
      <trkpt lat="45.07862" lon="6.11406">
        <ele>1709</ele>
        <time>2024-08-09T10:42:40Z</time>
      </trkpt>
      <trkpt lat="45.07862" lon="6.11409">
        <ele>1709</ele>
        <time>2024-08-09T10:42:41Z</time>
      </trkpt>
      <trkpt lat="45.07862" lon="6.11409">
        <ele>1709</ele>
        <time>2024-08-09T10:42:42Z</time>
      </trkpt>
      <trkpt lat="45.07861" lon="6.11413">
        <ele>1709</ele>
        <time>2024-08-09T10:42:43Z</time>
      </trkpt>
      <trkpt lat="45.07861" lon="6.11413">
        <ele>1709.2</ele>
        <time>2024-08-09T10:42:44Z</time>
      </trkpt>
      <trkpt lat="45.07861" lon="6.11416">
        <ele>1709.2</ele>
        <time>2024-08-09T10:42:45Z</time>
      </trkpt>
      <trkpt lat="45.07861" lon="6.11416">
        <ele>1709.2</ele>
        <time>2024-08-09T10:42:46Z</time>
      </trkpt>
      <trkpt lat="45.0786" lon="6.11419">
        <ele>1709.2</ele>
        <time>2024-08-09T10:42:47Z</time>
      </trkpt>
      <trkpt lat="45.0786" lon="6.11419">
        <ele>1709.4</ele>
        <time>2024-08-09T10:42:48Z</time>
      </trkpt>
      <trkpt lat="45.07859" lon="6.11422">
        <ele>1709.4</ele>
        <time>2024-08-09T10:42:49Z</time>
      </trkpt>
      <trkpt lat="45.07859" lon="6.11422">
        <ele>1709.4</ele>
        <time>2024-08-09T10:42:50Z</time>
      </trkpt>
      <trkpt lat="45.07858" lon="6.11425">
        <ele>1709.6</ele>
        <time>2024-08-09T10:42:51Z</time>
      </trkpt>
      <trkpt lat="45.07858" lon="6.11425">
        <ele>1709.6</ele>
        <time>2024-08-09T10:42:52Z</time>
      </trkpt>
      <trkpt lat="45.07858" lon="6.11429">
        <ele>1709.6</ele>
        <time>2024-08-09T10:42:53Z</time>
      </trkpt>
      <trkpt lat="45.07858" lon="6.11429">
        <ele>1709.6</ele>
        <time>2024-08-09T10:42:54Z</time>
      </trkpt>
      <trkpt lat="45.07857" lon="6.11432">
        <ele>1709.8</ele>
        <time>2024-08-09T10:42:55Z</time>
      </trkpt>
      <trkpt lat="45.07857" lon="6.11432">
        <ele>1709.8</ele>
        <time>2024-08-09T10:42:56Z</time>
      </trkpt>
      <trkpt lat="45.07856" lon="6.11435">
        <ele>1710</ele>
        <time>2024-08-09T10:42:57Z</time>
      </trkpt>
      <trkpt lat="45.07856" lon="6.11435">
        <ele>1710.4</ele>
        <time>2024-08-09T10:42:58Z</time>
      </trkpt>
      <trkpt lat="45.07855" lon="6.11438">
        <ele>1710.6</ele>
        <time>2024-08-09T10:42:59Z</time>
      </trkpt>
      <trkpt lat="45.07855" lon="6.11438">
        <ele>1710.6</ele>
        <time>2024-08-09T10:43:00Z</time>
      </trkpt>
      <trkpt lat="45.07855" lon="6.11442">
        <ele>1710.8</ele>
        <time>2024-08-09T10:43:01Z</time>
      </trkpt>
      <trkpt lat="45.07855" lon="6.11442">
        <ele>1711</ele>
        <time>2024-08-09T10:43:02Z</time>
      </trkpt>
      <trkpt lat="45.07854" lon="6.11445">
        <ele>1711</ele>
        <time>2024-08-09T10:43:03Z</time>
      </trkpt>
      <trkpt lat="45.07854" lon="6.11445">
        <ele>1711.2</ele>
        <time>2024-08-09T10:43:04Z</time>
      </trkpt>
      <trkpt lat="45.07853" lon="6.11448">
        <ele>1711.2</ele>
        <time>2024-08-09T10:43:05Z</time>
      </trkpt>
      <trkpt lat="45.07853" lon="6.11448">
        <ele>1711.2</ele>
        <time>2024-08-09T10:43:06Z</time>
      </trkpt>
      <trkpt lat="45.07852" lon="6.11452">
        <ele>1711.2</ele>
        <time>2024-08-09T10:43:07Z</time>
      </trkpt>
      <trkpt lat="45.07852" lon="6.11452">
        <ele>1711.4</ele>
        <time>2024-08-09T10:43:08Z</time>
      </trkpt>
      <trkpt lat="45.07852" lon="6.11455">
        <ele>1711.6</ele>
        <time>2024-08-09T10:43:09Z</time>
      </trkpt>
      <trkpt lat="45.07852" lon="6.11455">
        <ele>1711.8</ele>
        <time>2024-08-09T10:43:10Z</time>
      </trkpt>
      <trkpt lat="45.07852" lon="6.11459">
        <ele>1711.8</ele>
        <time>2024-08-09T10:43:11Z</time>
      </trkpt>
      <trkpt lat="45.07852" lon="6.11459">
        <ele>1712</ele>
        <time>2024-08-09T10:43:12Z</time>
      </trkpt>
      <trkpt lat="45.07852" lon="6.11462">
        <ele>1712</ele>
        <time>2024-08-09T10:43:13Z</time>
      </trkpt>
      <trkpt lat="45.07852" lon="6.11462">
        <ele>1712</ele>
        <time>2024-08-09T10:43:14Z</time>
      </trkpt>
      <trkpt lat="45.07851" lon="6.11465">
        <ele>1712</ele>
        <time>2024-08-09T10:43:15Z</time>
      </trkpt>
      <trkpt lat="45.07851" lon="6.11465">
        <ele>1712</ele>
        <time>2024-08-09T10:43:16Z</time>
      </trkpt>
      <trkpt lat="45.07852" lon="6.11469">
        <ele>1712.2</ele>
        <time>2024-08-09T10:43:17Z</time>
      </trkpt>
      <trkpt lat="45.07852" lon="6.11469">
        <ele>1712.2</ele>
        <time>2024-08-09T10:43:18Z</time>
      </trkpt>
      <trkpt lat="45.07852" lon="6.11472">
        <ele>1712.2</ele>
        <time>2024-08-09T10:43:19Z</time>
      </trkpt>
      <trkpt lat="45.07852" lon="6.11472">
        <ele>1712.2</ele>
        <time>2024-08-09T10:43:20Z</time>
      </trkpt>
      <trkpt lat="45.07852" lon="6.11476">
        <ele>1712.2</ele>
        <time>2024-08-09T10:43:21Z</time>
      </trkpt>
      <trkpt lat="45.07852" lon="6.11476">
        <ele>1712.2</ele>
        <time>2024-08-09T10:43:22Z</time>
      </trkpt>
      <trkpt lat="45.07853" lon="6.11479">
        <ele>1712.2</ele>
        <time>2024-08-09T10:43:23Z</time>
      </trkpt>
      <trkpt lat="45.07853" lon="6.11479">
        <ele>1712.2</ele>
        <time>2024-08-09T10:43:24Z</time>
      </trkpt>
      <trkpt lat="45.07854" lon="6.11483">
        <ele>1712</ele>
        <time>2024-08-09T10:43:25Z</time>
      </trkpt>
      <trkpt lat="45.07854" lon="6.11483">
        <ele>1712</ele>
        <time>2024-08-09T10:43:26Z</time>
      </trkpt>
      <trkpt lat="45.07854" lon="6.11486">
        <ele>1712</ele>
        <time>2024-08-09T10:43:27Z</time>
      </trkpt>
      <trkpt lat="45.07854" lon="6.11486">
        <ele>1712.2</ele>
        <time>2024-08-09T10:43:28Z</time>
      </trkpt>
      <trkpt lat="45.07854" lon="6.1149">
        <ele>1712.2</ele>
        <time>2024-08-09T10:43:29Z</time>
      </trkpt>
      <trkpt lat="45.07854" lon="6.1149">
        <ele>1712</ele>
        <time>2024-08-09T10:43:30Z</time>
      </trkpt>
      <trkpt lat="45.07855" lon="6.11494">
        <ele>1712</ele>
        <time>2024-08-09T10:43:31Z</time>
      </trkpt>
      <trkpt lat="45.07855" lon="6.11494">
        <ele>1712.2</ele>
        <time>2024-08-09T10:43:32Z</time>
      </trkpt>
      <trkpt lat="45.07855" lon="6.11498">
        <ele>1712.4</ele>
        <time>2024-08-09T10:43:33Z</time>
      </trkpt>
      <trkpt lat="45.07855" lon="6.11498">
        <ele>1712.4</ele>
        <time>2024-08-09T10:43:34Z</time>
      </trkpt>
      <trkpt lat="45.07855" lon="6.11501">
        <ele>1712.4</ele>
        <time>2024-08-09T10:43:35Z</time>
      </trkpt>
      <trkpt lat="45.07855" lon="6.11501">
        <ele>1712.6</ele>
        <time>2024-08-09T10:43:36Z</time>
      </trkpt>
      <trkpt lat="45.07855" lon="6.11505">
        <ele>1712.8</ele>
        <time>2024-08-09T10:43:37Z</time>
      </trkpt>
      <trkpt lat="45.07855" lon="6.11505">
        <ele>1713.4</ele>
        <time>2024-08-09T10:43:38Z</time>
      </trkpt>
      <trkpt lat="45.07856" lon="6.11509">
        <ele>1713.4</ele>
        <time>2024-08-09T10:43:39Z</time>
      </trkpt>
      <trkpt lat="45.07856" lon="6.11509">
        <ele>1713.4</ele>
        <time>2024-08-09T10:43:40Z</time>
      </trkpt>
      <trkpt lat="45.07856" lon="6.11512">
        <ele>1713.2</ele>
        <time>2024-08-09T10:43:41Z</time>
      </trkpt>
      <trkpt lat="45.07856" lon="6.11512">
        <ele>1713.2</ele>
        <time>2024-08-09T10:43:42Z</time>
      </trkpt>
      <trkpt lat="45.07856" lon="6.11516">
        <ele>1713.2</ele>
        <time>2024-08-09T10:43:43Z</time>
      </trkpt>
      <trkpt lat="45.07856" lon="6.11516">
        <ele>1713.2</ele>
        <time>2024-08-09T10:43:44Z</time>
      </trkpt>
      <trkpt lat="45.07856" lon="6.1152">
        <ele>1713.2</ele>
        <time>2024-08-09T10:43:45Z</time>
      </trkpt>
      <trkpt lat="45.07856" lon="6.1152">
        <ele>1713.6</ele>
        <time>2024-08-09T10:43:46Z</time>
      </trkpt>
      <trkpt lat="45.07856" lon="6.11523">
        <ele>1713.8</ele>
        <time>2024-08-09T10:43:47Z</time>
      </trkpt>
      <trkpt lat="45.07856" lon="6.11523">
        <ele>1713.6</ele>
        <time>2024-08-09T10:43:48Z</time>
      </trkpt>
      <trkpt lat="45.07855" lon="6.11527">
        <ele>1713.6</ele>
        <time>2024-08-09T10:43:49Z</time>
      </trkpt>
      <trkpt lat="45.07855" lon="6.11527">
        <ele>1713.8</ele>
        <time>2024-08-09T10:43:50Z</time>
      </trkpt>
      <trkpt lat="45.07855" lon="6.11531">
        <ele>1713.8</ele>
        <time>2024-08-09T10:43:51Z</time>
      </trkpt>
      <trkpt lat="45.07855" lon="6.11531">
        <ele>1714</ele>
        <time>2024-08-09T10:43:52Z</time>
      </trkpt>
      <trkpt lat="45.07855" lon="6.11534">
        <ele>1714.4</ele>
        <time>2024-08-09T10:43:53Z</time>
      </trkpt>
      <trkpt lat="45.07855" lon="6.11534">
        <ele>1714.4</ele>
        <time>2024-08-09T10:43:54Z</time>
      </trkpt>
      <trkpt lat="45.07855" lon="6.11538">
        <ele>1714.4</ele>
        <time>2024-08-09T10:43:55Z</time>
      </trkpt>
      <trkpt lat="45.07855" lon="6.11538">
        <ele>1714.4</ele>
        <time>2024-08-09T10:43:56Z</time>
      </trkpt>
      <trkpt lat="45.07855" lon="6.11542">
        <ele>1715</ele>
        <time>2024-08-09T10:43:57Z</time>
      </trkpt>
      <trkpt lat="45.07855" lon="6.11542">
        <ele>1715</ele>
        <time>2024-08-09T10:43:58Z</time>
      </trkpt>
      <trkpt lat="45.07855" lon="6.11545">
        <ele>1715.2</ele>
        <time>2024-08-09T10:43:59Z</time>
      </trkpt>
      <trkpt lat="45.07855" lon="6.11545">
        <ele>1715.2</ele>
        <time>2024-08-09T10:44:00Z</time>
      </trkpt>
      <trkpt lat="45.07855" lon="6.11549">
        <ele>1715.6</ele>
        <time>2024-08-09T10:44:01Z</time>
      </trkpt>
      <trkpt lat="45.07855" lon="6.11549">
        <ele>1715.4</ele>
        <time>2024-08-09T10:44:02Z</time>
      </trkpt>
      <trkpt lat="45.07854" lon="6.11553">
        <ele>1715.6</ele>
        <time>2024-08-09T10:44:03Z</time>
      </trkpt>
      <trkpt lat="45.07854" lon="6.11553">
        <ele>1715.6</ele>
        <time>2024-08-09T10:44:04Z</time>
      </trkpt>
      <trkpt lat="45.07854" lon="6.11556">
        <ele>1715.6</ele>
        <time>2024-08-09T10:44:05Z</time>
      </trkpt>
      <trkpt lat="45.07854" lon="6.11556">
        <ele>1715.6</ele>
        <time>2024-08-09T10:44:06Z</time>
      </trkpt>
      <trkpt lat="45.07855" lon="6.1156">
        <ele>1715.8</ele>
        <time>2024-08-09T10:44:07Z</time>
      </trkpt>
      <trkpt lat="45.07855" lon="6.1156">
        <ele>1716</ele>
        <time>2024-08-09T10:44:08Z</time>
      </trkpt>
      <trkpt lat="45.07854" lon="6.11563">
        <ele>1716</ele>
        <time>2024-08-09T10:44:09Z</time>
      </trkpt>
      <trkpt lat="45.07854" lon="6.11563">
        <ele>1716.2</ele>
        <time>2024-08-09T10:44:10Z</time>
      </trkpt>
      <trkpt lat="45.07854" lon="6.11567">
        <ele>1716.2</ele>
        <time>2024-08-09T10:44:11Z</time>
      </trkpt>
      <trkpt lat="45.07854" lon="6.11567">
        <ele>1716.2</ele>
        <time>2024-08-09T10:44:12Z</time>
      </trkpt>
      <trkpt lat="45.07854" lon="6.11571">
        <ele>1716.4</ele>
        <time>2024-08-09T10:44:13Z</time>
      </trkpt>
      <trkpt lat="45.07854" lon="6.11571">
        <ele>1716.8</ele>
        <time>2024-08-09T10:44:14Z</time>
      </trkpt>
      <trkpt lat="45.07853" lon="6.11574">
        <ele>1716.8</ele>
        <time>2024-08-09T10:44:15Z</time>
      </trkpt>
      <trkpt lat="45.07853" lon="6.11574">
        <ele>1717</ele>
        <time>2024-08-09T10:44:16Z</time>
      </trkpt>
      <trkpt lat="45.07853" lon="6.11578">
        <ele>1717</ele>
        <time>2024-08-09T10:44:17Z</time>
      </trkpt>
      <trkpt lat="45.07853" lon="6.11578">
        <ele>1717.4</ele>
        <time>2024-08-09T10:44:18Z</time>
      </trkpt>
      <trkpt lat="45.07853" lon="6.11581">
        <ele>1717.4</ele>
        <time>2024-08-09T10:44:19Z</time>
      </trkpt>
      <trkpt lat="45.07853" lon="6.11581">
        <ele>1717.4</ele>
        <time>2024-08-09T10:44:20Z</time>
      </trkpt>
      <trkpt lat="45.07853" lon="6.11585">
        <ele>1717.6</ele>
        <time>2024-08-09T10:44:21Z</time>
      </trkpt>
      <trkpt lat="45.07853" lon="6.11585">
        <ele>1717.6</ele>
        <time>2024-08-09T10:44:22Z</time>
      </trkpt>
      <trkpt lat="45.07853" lon="6.11589">
        <ele>1717.6</ele>
        <time>2024-08-09T10:44:23Z</time>
      </trkpt>
      <trkpt lat="45.07853" lon="6.11589">
        <ele>1717.8</ele>
        <time>2024-08-09T10:44:24Z</time>
      </trkpt>
      <trkpt lat="45.07853" lon="6.11592">
        <ele>1717.8</ele>
        <time>2024-08-09T10:44:25Z</time>
      </trkpt>
      <trkpt lat="45.07853" lon="6.11592">
        <ele>1717.8</ele>
        <time>2024-08-09T10:44:26Z</time>
      </trkpt>
      <trkpt lat="45.07852" lon="6.11596">
        <ele>1717.8</ele>
        <time>2024-08-09T10:44:27Z</time>
      </trkpt>
      <trkpt lat="45.07852" lon="6.11596">
        <ele>1717.6</ele>
        <time>2024-08-09T10:44:28Z</time>
      </trkpt>
      <trkpt lat="45.07852" lon="6.11599">
        <ele>1717.8</ele>
        <time>2024-08-09T10:44:29Z</time>
      </trkpt>
      <trkpt lat="45.07852" lon="6.11599">
        <ele>1718</ele>
        <time>2024-08-09T10:44:30Z</time>
      </trkpt>
      <trkpt lat="45.07852" lon="6.11603">
        <ele>1718</ele>
        <time>2024-08-09T10:44:31Z</time>
      </trkpt>
      <trkpt lat="45.07852" lon="6.11603">
        <ele>1718.2</ele>
        <time>2024-08-09T10:44:32Z</time>
      </trkpt>
      <trkpt lat="45.07852" lon="6.11606">
        <ele>1718.2</ele>
        <time>2024-08-09T10:44:33Z</time>
      </trkpt>
      <trkpt lat="45.07852" lon="6.11606">
        <ele>1718.2</ele>
        <time>2024-08-09T10:44:34Z</time>
      </trkpt>
      <trkpt lat="45.07852" lon="6.1161">
        <ele>1718.4</ele>
        <time>2024-08-09T10:44:35Z</time>
      </trkpt>
      <trkpt lat="45.07852" lon="6.1161">
        <ele>1718.6</ele>
        <time>2024-08-09T10:44:36Z</time>
      </trkpt>
      <trkpt lat="45.07851" lon="6.11613">
        <ele>1718.6</ele>
        <time>2024-08-09T10:44:37Z</time>
      </trkpt>
      <trkpt lat="45.07851" lon="6.11613">
        <ele>1718.6</ele>
        <time>2024-08-09T10:44:38Z</time>
      </trkpt>
      <trkpt lat="45.0785" lon="6.11616">
        <ele>1718.6</ele>
        <time>2024-08-09T10:44:39Z</time>
      </trkpt>
      <trkpt lat="45.0785" lon="6.11616">
        <ele>1718.8</ele>
        <time>2024-08-09T10:44:40Z</time>
      </trkpt>
      <trkpt lat="45.0785" lon="6.1162">
        <ele>1719</ele>
        <time>2024-08-09T10:44:41Z</time>
      </trkpt>
      <trkpt lat="45.0785" lon="6.1162">
        <ele>1719.2</ele>
        <time>2024-08-09T10:44:42Z</time>
      </trkpt>
      <trkpt lat="45.07849" lon="6.11624">
        <ele>1719.2</ele>
        <time>2024-08-09T10:44:43Z</time>
      </trkpt>
      <trkpt lat="45.07849" lon="6.11624">
        <ele>1719.6</ele>
        <time>2024-08-09T10:44:44Z</time>
      </trkpt>
      <trkpt lat="45.07849" lon="6.11628">
        <ele>1720</ele>
        <time>2024-08-09T10:44:45Z</time>
      </trkpt>
      <trkpt lat="45.07849" lon="6.11628">
        <ele>1720.2</ele>
        <time>2024-08-09T10:44:46Z</time>
      </trkpt>
      <trkpt lat="45.07847" lon="6.11631">
        <ele>1720.4</ele>
        <time>2024-08-09T10:44:47Z</time>
      </trkpt>
      <trkpt lat="45.07847" lon="6.11631">
        <ele>1720.8</ele>
        <time>2024-08-09T10:44:48Z</time>
      </trkpt>
      <trkpt lat="45.07846" lon="6.11634">
        <ele>1721</ele>
        <time>2024-08-09T10:44:49Z</time>
      </trkpt>
      <trkpt lat="45.07846" lon="6.11634">
        <ele>1721</ele>
        <time>2024-08-09T10:44:50Z</time>
      </trkpt>
      <trkpt lat="45.07846" lon="6.11637">
        <ele>1721.2</ele>
        <time>2024-08-09T10:44:51Z</time>
      </trkpt>
      <trkpt lat="45.07846" lon="6.11637">
        <ele>1721.4</ele>
        <time>2024-08-09T10:44:52Z</time>
      </trkpt>
      <trkpt lat="45.07846" lon="6.1164">
        <ele>1721.4</ele>
        <time>2024-08-09T10:44:53Z</time>
      </trkpt>
      <trkpt lat="45.07846" lon="6.1164">
        <ele>1721.4</ele>
        <time>2024-08-09T10:44:54Z</time>
      </trkpt>
      <trkpt lat="45.07845" lon="6.11644">
        <ele>1721.6</ele>
        <time>2024-08-09T10:44:55Z</time>
      </trkpt>
      <trkpt lat="45.07845" lon="6.11644">
        <ele>1721.8</ele>
        <time>2024-08-09T10:44:56Z</time>
      </trkpt>
      <trkpt lat="45.07844" lon="6.11648">
        <ele>1721.8</ele>
        <time>2024-08-09T10:44:57Z</time>
      </trkpt>
      <trkpt lat="45.07844" lon="6.11648">
        <ele>1722</ele>
        <time>2024-08-09T10:44:58Z</time>
      </trkpt>
      <trkpt lat="45.07844" lon="6.11648">
        <ele>1722</ele>
        <time>2024-08-09T10:44:59Z</time>
      </trkpt>
      <trkpt lat="45.07844" lon="6.11648">
        <ele>1722.2</ele>
        <time>2024-08-09T10:45:00Z</time>
      </trkpt>
      <trkpt lat="45.07844" lon="6.11648">
        <ele>1722.4</ele>
        <time>2024-08-09T10:45:01Z</time>
      </trkpt>
      <trkpt lat="45.07844" lon="6.1165">
        <ele>1722.4</ele>
        <time>2024-08-09T10:45:02Z</time>
      </trkpt>
      <trkpt lat="45.07844" lon="6.1165">
        <ele>1722.4</ele>
        <time>2024-08-09T10:45:03Z</time>
      </trkpt>
      <trkpt lat="45.07844" lon="6.1165">
        <ele>1722.4</ele>
        <time>2024-08-09T10:45:04Z</time>
      </trkpt>
      <trkpt lat="45.07844" lon="6.11654">
        <ele>1722.4</ele>
        <time>2024-08-09T10:45:05Z</time>
      </trkpt>
      <trkpt lat="45.07844" lon="6.11654">
        <ele>1722.4</ele>
        <time>2024-08-09T10:45:06Z</time>
      </trkpt>
      <trkpt lat="45.07843" lon="6.11657">
        <ele>1722.6</ele>
        <time>2024-08-09T10:45:07Z</time>
      </trkpt>
      <trkpt lat="45.07843" lon="6.11657">
        <ele>1722.8</ele>
        <time>2024-08-09T10:45:08Z</time>
      </trkpt>
      <trkpt lat="45.07843" lon="6.1166">
        <ele>1723</ele>
        <time>2024-08-09T10:45:09Z</time>
      </trkpt>
      <trkpt lat="45.07843" lon="6.1166">
        <ele>1723</ele>
        <time>2024-08-09T10:45:10Z</time>
      </trkpt>
      <trkpt lat="45.07842" lon="6.11664">
        <ele>1723.2</ele>
        <time>2024-08-09T10:45:11Z</time>
      </trkpt>
      <trkpt lat="45.07842" lon="6.11664">
        <ele>1723.2</ele>
        <time>2024-08-09T10:45:12Z</time>
      </trkpt>
      <trkpt lat="45.0784" lon="6.11667">
        <ele>1723.2</ele>
        <time>2024-08-09T10:45:13Z</time>
      </trkpt>
      <trkpt lat="45.0784" lon="6.11667">
        <ele>1723.4</ele>
        <time>2024-08-09T10:45:14Z</time>
      </trkpt>
      <trkpt lat="45.07839" lon="6.11671">
        <ele>1723.6</ele>
        <time>2024-08-09T10:45:15Z</time>
      </trkpt>
      <trkpt lat="45.07839" lon="6.11671">
        <ele>1723.6</ele>
        <time>2024-08-09T10:45:16Z</time>
      </trkpt>
      <trkpt lat="45.07838" lon="6.11675">
        <ele>1723.6</ele>
        <time>2024-08-09T10:45:17Z</time>
      </trkpt>
      <trkpt lat="45.07838" lon="6.11675">
        <ele>1723.8</ele>
        <time>2024-08-09T10:45:18Z</time>
      </trkpt>
      <trkpt lat="45.07837" lon="6.11678">
        <ele>1723.8</ele>
        <time>2024-08-09T10:45:19Z</time>
      </trkpt>
      <trkpt lat="45.07837" lon="6.11678">
        <ele>1723.8</ele>
        <time>2024-08-09T10:45:20Z</time>
      </trkpt>
      <trkpt lat="45.07836" lon="6.11682">
        <ele>1723.8</ele>
        <time>2024-08-09T10:45:21Z</time>
      </trkpt>
      <trkpt lat="45.07836" lon="6.11682">
        <ele>1723.8</ele>
        <time>2024-08-09T10:45:22Z</time>
      </trkpt>
      <trkpt lat="45.07835" lon="6.11686">
        <ele>1724</ele>
        <time>2024-08-09T10:45:23Z</time>
      </trkpt>
      <trkpt lat="45.07835" lon="6.11686">
        <ele>1724.2</ele>
        <time>2024-08-09T10:45:24Z</time>
      </trkpt>
      <trkpt lat="45.07834" lon="6.11689">
        <ele>1724.2</ele>
        <time>2024-08-09T10:45:25Z</time>
      </trkpt>
      <trkpt lat="45.07834" lon="6.11689">
        <ele>1724.2</ele>
        <time>2024-08-09T10:45:26Z</time>
      </trkpt>
      <trkpt lat="45.07832" lon="6.11692">
        <ele>1724.4</ele>
        <time>2024-08-09T10:45:27Z</time>
      </trkpt>
      <trkpt lat="45.07832" lon="6.11692">
        <ele>1724.4</ele>
        <time>2024-08-09T10:45:28Z</time>
      </trkpt>
      <trkpt lat="45.07832" lon="6.11695">
        <ele>1724.4</ele>
        <time>2024-08-09T10:45:29Z</time>
      </trkpt>
      <trkpt lat="45.07832" lon="6.11695">
        <ele>1724.6</ele>
        <time>2024-08-09T10:45:30Z</time>
      </trkpt>
      <trkpt lat="45.07831" lon="6.11699">
        <ele>1724.6</ele>
        <time>2024-08-09T10:45:31Z</time>
      </trkpt>
      <trkpt lat="45.07831" lon="6.11699">
        <ele>1724.6</ele>
        <time>2024-08-09T10:45:32Z</time>
      </trkpt>
      <trkpt lat="45.07831" lon="6.11702">
        <ele>1724.6</ele>
        <time>2024-08-09T10:45:33Z</time>
      </trkpt>
      <trkpt lat="45.07831" lon="6.11702">
        <ele>1724.6</ele>
        <time>2024-08-09T10:45:34Z</time>
      </trkpt>
      <trkpt lat="45.0783" lon="6.11706">
        <ele>1724.6</ele>
        <time>2024-08-09T10:45:35Z</time>
      </trkpt>
      <trkpt lat="45.0783" lon="6.11706">
        <ele>1724.6</ele>
        <time>2024-08-09T10:45:36Z</time>
      </trkpt>
      <trkpt lat="45.0783" lon="6.1171">
        <ele>1724.8</ele>
        <time>2024-08-09T10:45:37Z</time>
      </trkpt>
      <trkpt lat="45.0783" lon="6.1171">
        <ele>1724.8</ele>
        <time>2024-08-09T10:45:38Z</time>
      </trkpt>
      <trkpt lat="45.07829" lon="6.11714">
        <ele>1724.8</ele>
        <time>2024-08-09T10:45:39Z</time>
      </trkpt>
      <trkpt lat="45.07829" lon="6.11714">
        <ele>1724.8</ele>
        <time>2024-08-09T10:45:40Z</time>
      </trkpt>
      <trkpt lat="45.07828" lon="6.11717">
        <ele>1725</ele>
        <time>2024-08-09T10:45:41Z</time>
      </trkpt>
      <trkpt lat="45.07828" lon="6.11717">
        <ele>1725</ele>
        <time>2024-08-09T10:45:42Z</time>
      </trkpt>
      <trkpt lat="45.07827" lon="6.1172">
        <ele>1725</ele>
        <time>2024-08-09T10:45:43Z</time>
      </trkpt>
      <trkpt lat="45.07827" lon="6.1172">
        <ele>1725.2</ele>
        <time>2024-08-09T10:45:44Z</time>
      </trkpt>
      <trkpt lat="45.07826" lon="6.11723">
        <ele>1725.2</ele>
        <time>2024-08-09T10:45:45Z</time>
      </trkpt>
      <trkpt lat="45.07826" lon="6.11723">
        <ele>1725.2</ele>
        <time>2024-08-09T10:45:46Z</time>
      </trkpt>
      <trkpt lat="45.07825" lon="6.11727">
        <ele>1725.4</ele>
        <time>2024-08-09T10:45:47Z</time>
      </trkpt>
      <trkpt lat="45.07825" lon="6.11727">
        <ele>1725.4</ele>
        <time>2024-08-09T10:45:48Z</time>
      </trkpt>
      <trkpt lat="45.07825" lon="6.1173">
        <ele>1725.4</ele>
        <time>2024-08-09T10:45:49Z</time>
      </trkpt>
      <trkpt lat="45.07825" lon="6.1173">
        <ele>1725.6</ele>
        <time>2024-08-09T10:45:50Z</time>
      </trkpt>
      <trkpt lat="45.07825" lon="6.11734">
        <ele>1725.6</ele>
        <time>2024-08-09T10:45:51Z</time>
      </trkpt>
      <trkpt lat="45.07825" lon="6.11734">
        <ele>1725.6</ele>
        <time>2024-08-09T10:45:52Z</time>
      </trkpt>
      <trkpt lat="45.07825" lon="6.11737">
        <ele>1725.6</ele>
        <time>2024-08-09T10:45:53Z</time>
      </trkpt>
      <trkpt lat="45.07825" lon="6.11737">
        <ele>1725.6</ele>
        <time>2024-08-09T10:45:54Z</time>
      </trkpt>
      <trkpt lat="45.07825" lon="6.11741">
        <ele>1725.6</ele>
        <time>2024-08-09T10:45:55Z</time>
      </trkpt>
      <trkpt lat="45.07825" lon="6.11741">
        <ele>1725.8</ele>
        <time>2024-08-09T10:45:56Z</time>
      </trkpt>
      <trkpt lat="45.07824" lon="6.11744">
        <ele>1725.8</ele>
        <time>2024-08-09T10:45:57Z</time>
      </trkpt>
      <trkpt lat="45.07824" lon="6.11744">
        <ele>1725.8</ele>
        <time>2024-08-09T10:45:58Z</time>
      </trkpt>
      <trkpt lat="45.07824" lon="6.11748">
        <ele>1725.8</ele>
        <time>2024-08-09T10:45:59Z</time>
      </trkpt>
      <trkpt lat="45.07824" lon="6.11748">
        <ele>1726</ele>
        <time>2024-08-09T10:46:00Z</time>
      </trkpt>
      <trkpt lat="45.07824" lon="6.11752">
        <ele>1726.2</ele>
        <time>2024-08-09T10:46:01Z</time>
      </trkpt>
      <trkpt lat="45.07824" lon="6.11752">
        <ele>1726.4</ele>
        <time>2024-08-09T10:46:02Z</time>
      </trkpt>
      <trkpt lat="45.07824" lon="6.11754">
        <ele>1726.4</ele>
        <time>2024-08-09T10:46:03Z</time>
      </trkpt>
      <trkpt lat="45.07824" lon="6.11754">
        <ele>1726.4</ele>
        <time>2024-08-09T10:46:04Z</time>
      </trkpt>
      <trkpt lat="45.07824" lon="6.11754">
        <ele>1726.4</ele>
        <time>2024-08-09T10:46:05Z</time>
      </trkpt>
      <trkpt lat="45.07824" lon="6.11759">
        <ele>1726.4</ele>
        <time>2024-08-09T10:46:06Z</time>
      </trkpt>
      <trkpt lat="45.07824" lon="6.11759">
        <ele>1726.4</ele>
        <time>2024-08-09T10:46:07Z</time>
      </trkpt>
      <trkpt lat="45.07824" lon="6.11762">
        <ele>1726.6</ele>
        <time>2024-08-09T10:46:08Z</time>
      </trkpt>
      <trkpt lat="45.07824" lon="6.11762">
        <ele>1726.6</ele>
        <time>2024-08-09T10:46:09Z</time>
      </trkpt>
      <trkpt lat="45.07822" lon="6.11766">
        <ele>1726.6</ele>
        <time>2024-08-09T10:46:10Z</time>
      </trkpt>
      <trkpt lat="45.07822" lon="6.11766">
        <ele>1726.6</ele>
        <time>2024-08-09T10:46:11Z</time>
      </trkpt>
      <trkpt lat="45.07822" lon="6.11769">
        <ele>1726.6</ele>
        <time>2024-08-09T10:46:12Z</time>
      </trkpt>
      <trkpt lat="45.07822" lon="6.11769">
        <ele>1726.6</ele>
        <time>2024-08-09T10:46:13Z</time>
      </trkpt>
      <trkpt lat="45.07822" lon="6.11773">
        <ele>1726.6</ele>
        <time>2024-08-09T10:46:14Z</time>
      </trkpt>
      <trkpt lat="45.07822" lon="6.11773">
        <ele>1726.8</ele>
        <time>2024-08-09T10:46:15Z</time>
      </trkpt>
      <trkpt lat="45.07822" lon="6.11776">
        <ele>1726.8</ele>
        <time>2024-08-09T10:46:16Z</time>
      </trkpt>
      <trkpt lat="45.07822" lon="6.11776">
        <ele>1726.8</ele>
        <time>2024-08-09T10:46:17Z</time>
      </trkpt>
      <trkpt lat="45.07822" lon="6.1178">
        <ele>1727</ele>
        <time>2024-08-09T10:46:18Z</time>
      </trkpt>
      <trkpt lat="45.07822" lon="6.1178">
        <ele>1727.2</ele>
        <time>2024-08-09T10:46:19Z</time>
      </trkpt>
      <trkpt lat="45.07822" lon="6.11783">
        <ele>1727.4</ele>
        <time>2024-08-09T10:46:20Z</time>
      </trkpt>
      <trkpt lat="45.07822" lon="6.11783">
        <ele>1727.6</ele>
        <time>2024-08-09T10:46:21Z</time>
      </trkpt>
      <trkpt lat="45.07822" lon="6.11787">
        <ele>1727.6</ele>
        <time>2024-08-09T10:46:22Z</time>
      </trkpt>
      <trkpt lat="45.07822" lon="6.11787">
        <ele>1727.8</ele>
        <time>2024-08-09T10:46:23Z</time>
      </trkpt>
      <trkpt lat="45.07822" lon="6.1179">
        <ele>1727.8</ele>
        <time>2024-08-09T10:46:24Z</time>
      </trkpt>
      <trkpt lat="45.07822" lon="6.1179">
        <ele>1727.8</ele>
        <time>2024-08-09T10:46:25Z</time>
      </trkpt>
      <trkpt lat="45.07822" lon="6.11794">
        <ele>1727.8</ele>
        <time>2024-08-09T10:46:26Z</time>
      </trkpt>
      <trkpt lat="45.07822" lon="6.11794">
        <ele>1727.8</ele>
        <time>2024-08-09T10:46:27Z</time>
      </trkpt>
      <trkpt lat="45.07822" lon="6.11798">
        <ele>1728.2</ele>
        <time>2024-08-09T10:46:28Z</time>
      </trkpt>
      <trkpt lat="45.07822" lon="6.11798">
        <ele>1728.2</ele>
        <time>2024-08-09T10:46:29Z</time>
      </trkpt>
      <trkpt lat="45.07822" lon="6.11801">
        <ele>1728.2</ele>
        <time>2024-08-09T10:46:30Z</time>
      </trkpt>
      <trkpt lat="45.07822" lon="6.11801">
        <ele>1728.2</ele>
        <time>2024-08-09T10:46:31Z</time>
      </trkpt>
      <trkpt lat="45.07821" lon="6.11804">
        <ele>1728.2</ele>
        <time>2024-08-09T10:46:32Z</time>
      </trkpt>
      <trkpt lat="45.07821" lon="6.11804">
        <ele>1728.4</ele>
        <time>2024-08-09T10:46:33Z</time>
      </trkpt>
      <trkpt lat="45.07818" lon="6.11807">
        <ele>1728.6</ele>
        <time>2024-08-09T10:46:34Z</time>
      </trkpt>
      <trkpt lat="45.07818" lon="6.11807">
        <ele>1728.8</ele>
        <time>2024-08-09T10:46:35Z</time>
      </trkpt>
      <trkpt lat="45.07816" lon="6.11811">
        <ele>1728.8</ele>
        <time>2024-08-09T10:46:36Z</time>
      </trkpt>
      <trkpt lat="45.07816" lon="6.11811">
        <ele>1728.8</ele>
        <time>2024-08-09T10:46:37Z</time>
      </trkpt>
      <trkpt lat="45.07815" lon="6.11814">
        <ele>1728.8</ele>
        <time>2024-08-09T10:46:38Z</time>
      </trkpt>
      <trkpt lat="45.07815" lon="6.11814">
        <ele>1728.8</ele>
        <time>2024-08-09T10:46:39Z</time>
      </trkpt>
      <trkpt lat="45.07813" lon="6.11816">
        <ele>1729</ele>
        <time>2024-08-09T10:46:40Z</time>
      </trkpt>
      <trkpt lat="45.07813" lon="6.11816">
        <ele>1729</ele>
        <time>2024-08-09T10:46:41Z</time>
      </trkpt>
      <trkpt lat="45.0781" lon="6.11819">
        <ele>1729</ele>
        <time>2024-08-09T10:46:42Z</time>
      </trkpt>
      <trkpt lat="45.0781" lon="6.11819">
        <ele>1729.2</ele>
        <time>2024-08-09T10:46:43Z</time>
      </trkpt>
      <trkpt lat="45.07809" lon="6.11823">
        <ele>1729.2</ele>
        <time>2024-08-09T10:46:44Z</time>
      </trkpt>
      <trkpt lat="45.07809" lon="6.11823">
        <ele>1729.4</ele>
        <time>2024-08-09T10:46:45Z</time>
      </trkpt>
      <trkpt lat="45.07809" lon="6.11826">
        <ele>1729.4</ele>
        <time>2024-08-09T10:46:46Z</time>
      </trkpt>
      <trkpt lat="45.07809" lon="6.11826">
        <ele>1729.6</ele>
        <time>2024-08-09T10:46:47Z</time>
      </trkpt>
      <trkpt lat="45.07808" lon="6.11829">
        <ele>1729.6</ele>
        <time>2024-08-09T10:46:48Z</time>
      </trkpt>
      <trkpt lat="45.07808" lon="6.11829">
        <ele>1729.8</ele>
        <time>2024-08-09T10:46:49Z</time>
      </trkpt>
      <trkpt lat="45.07807" lon="6.11833">
        <ele>1730</ele>
        <time>2024-08-09T10:46:50Z</time>
      </trkpt>
      <trkpt lat="45.07807" lon="6.11833">
        <ele>1730</ele>
        <time>2024-08-09T10:46:51Z</time>
      </trkpt>
      <trkpt lat="45.07808" lon="6.11836">
        <ele>1730.2</ele>
        <time>2024-08-09T10:46:52Z</time>
      </trkpt>
      <trkpt lat="45.07808" lon="6.11836">
        <ele>1730.2</ele>
        <time>2024-08-09T10:46:53Z</time>
      </trkpt>
      <trkpt lat="45.07809" lon="6.11839">
        <ele>1730.2</ele>
        <time>2024-08-09T10:46:54Z</time>
      </trkpt>
      <trkpt lat="45.07809" lon="6.11839">
        <ele>1730.2</ele>
        <time>2024-08-09T10:46:55Z</time>
      </trkpt>
      <trkpt lat="45.0781" lon="6.11843">
        <ele>1730.2</ele>
        <time>2024-08-09T10:46:56Z</time>
      </trkpt>
      <trkpt lat="45.0781" lon="6.11843">
        <ele>1730.6</ele>
        <time>2024-08-09T10:46:57Z</time>
      </trkpt>
      <trkpt lat="45.0781" lon="6.11846">
        <ele>1730.6</ele>
        <time>2024-08-09T10:46:58Z</time>
      </trkpt>
      <trkpt lat="45.0781" lon="6.11846">
        <ele>1730.6</ele>
        <time>2024-08-09T10:46:59Z</time>
      </trkpt>
      <trkpt lat="45.07809" lon="6.11849">
        <ele>1730.6</ele>
        <time>2024-08-09T10:47:00Z</time>
      </trkpt>
      <trkpt lat="45.07809" lon="6.11849">
        <ele>1730.8</ele>
        <time>2024-08-09T10:47:01Z</time>
      </trkpt>
      <trkpt lat="45.07808" lon="6.11853">
        <ele>1730.8</ele>
        <time>2024-08-09T10:47:02Z</time>
      </trkpt>
      <trkpt lat="45.07808" lon="6.11853">
        <ele>1730.8</ele>
        <time>2024-08-09T10:47:03Z</time>
      </trkpt>
      <trkpt lat="45.07808" lon="6.11856">
        <ele>1731</ele>
        <time>2024-08-09T10:47:04Z</time>
      </trkpt>
      <trkpt lat="45.07808" lon="6.11856">
        <ele>1731</ele>
        <time>2024-08-09T10:47:05Z</time>
      </trkpt>
      <trkpt lat="45.07807" lon="6.11859">
        <ele>1731</ele>
        <time>2024-08-09T10:47:06Z</time>
      </trkpt>
      <trkpt lat="45.07807" lon="6.11859">
        <ele>1731.2</ele>
        <time>2024-08-09T10:47:07Z</time>
      </trkpt>
      <trkpt lat="45.07807" lon="6.11863">
        <ele>1731.2</ele>
        <time>2024-08-09T10:47:08Z</time>
      </trkpt>
      <trkpt lat="45.07807" lon="6.11863">
        <ele>1731.2</ele>
        <time>2024-08-09T10:47:09Z</time>
      </trkpt>
      <trkpt lat="45.07807" lon="6.11866">
        <ele>1731.4</ele>
        <time>2024-08-09T10:47:10Z</time>
      </trkpt>
      <trkpt lat="45.07807" lon="6.11866">
        <ele>1731.6</ele>
        <time>2024-08-09T10:47:11Z</time>
      </trkpt>
      <trkpt lat="45.07807" lon="6.1187">
        <ele>1731.6</ele>
        <time>2024-08-09T10:47:12Z</time>
      </trkpt>
      <trkpt lat="45.07807" lon="6.1187">
        <ele>1732</ele>
        <time>2024-08-09T10:47:13Z</time>
      </trkpt>
      <trkpt lat="45.07806" lon="6.11873">
        <ele>1732</ele>
        <time>2024-08-09T10:47:14Z</time>
      </trkpt>
      <trkpt lat="45.07806" lon="6.11873">
        <ele>1732</ele>
        <time>2024-08-09T10:47:15Z</time>
      </trkpt>
      <trkpt lat="45.07806" lon="6.11877">
        <ele>1732</ele>
        <time>2024-08-09T10:47:16Z</time>
      </trkpt>
      <trkpt lat="45.07806" lon="6.11877">
        <ele>1732.2</ele>
        <time>2024-08-09T10:47:17Z</time>
      </trkpt>
      <trkpt lat="45.07805" lon="6.1188">
        <ele>1732.2</ele>
        <time>2024-08-09T10:47:18Z</time>
      </trkpt>
      <trkpt lat="45.07805" lon="6.1188">
        <ele>1732.4</ele>
        <time>2024-08-09T10:47:19Z</time>
      </trkpt>
      <trkpt lat="45.07804" lon="6.11883">
        <ele>1732.4</ele>
        <time>2024-08-09T10:47:20Z</time>
      </trkpt>
      <trkpt lat="45.07804" lon="6.11883">
        <ele>1732.4</ele>
        <time>2024-08-09T10:47:21Z</time>
      </trkpt>
      <trkpt lat="45.07803" lon="6.11886">
        <ele>1732.6</ele>
        <time>2024-08-09T10:47:22Z</time>
      </trkpt>
      <trkpt lat="45.07803" lon="6.11886">
        <ele>1732.6</ele>
        <time>2024-08-09T10:47:23Z</time>
      </trkpt>
      <trkpt lat="45.07803" lon="6.11889">
        <ele>1732.8</ele>
        <time>2024-08-09T10:47:24Z</time>
      </trkpt>
      <trkpt lat="45.07803" lon="6.11889">
        <ele>1733</ele>
        <time>2024-08-09T10:47:25Z</time>
      </trkpt>
      <trkpt lat="45.07803" lon="6.11892">
        <ele>1733.2</ele>
        <time>2024-08-09T10:47:26Z</time>
      </trkpt>
      <trkpt lat="45.07803" lon="6.11892">
        <ele>1733.2</ele>
        <time>2024-08-09T10:47:27Z</time>
      </trkpt>
      <trkpt lat="45.07804" lon="6.11896">
        <ele>1733.2</ele>
        <time>2024-08-09T10:47:28Z</time>
      </trkpt>
      <trkpt lat="45.07805" lon="6.11897">
        <ele>1733.2</ele>
        <time>2024-08-09T10:47:29Z</time>
      </trkpt>
      <trkpt lat="45.07805" lon="6.11897">
        <ele>1733.4</ele>
        <time>2024-08-09T10:47:30Z</time>
      </trkpt>
      <trkpt lat="45.07806" lon="6.11901">
        <ele>1733.6</ele>
        <time>2024-08-09T10:47:31Z</time>
      </trkpt>
      <trkpt lat="45.07806" lon="6.11901">
        <ele>1733.8</ele>
        <time>2024-08-09T10:47:32Z</time>
      </trkpt>
      <trkpt lat="45.07806" lon="6.11903">
        <ele>1734</ele>
        <time>2024-08-09T10:47:33Z</time>
      </trkpt>
      <trkpt lat="45.07806" lon="6.11903">
        <ele>1734</ele>
        <time>2024-08-09T10:47:34Z</time>
      </trkpt>
      <trkpt lat="45.07806" lon="6.11906">
        <ele>1734.2</ele>
        <time>2024-08-09T10:47:35Z</time>
      </trkpt>
      <trkpt lat="45.07806" lon="6.11906">
        <ele>1734.6</ele>
        <time>2024-08-09T10:47:36Z</time>
      </trkpt>
      <trkpt lat="45.07806" lon="6.11909">
        <ele>1734.8</ele>
        <time>2024-08-09T10:47:37Z</time>
      </trkpt>
      <trkpt lat="45.07806" lon="6.11909">
        <ele>1734.8</ele>
        <time>2024-08-09T10:47:38Z</time>
      </trkpt>
      <trkpt lat="45.07806" lon="6.11911">
        <ele>1735</ele>
        <time>2024-08-09T10:47:39Z</time>
      </trkpt>
      <trkpt lat="45.07806" lon="6.11911">
        <ele>1735</ele>
        <time>2024-08-09T10:47:40Z</time>
      </trkpt>
      <trkpt lat="45.07807" lon="6.11915">
        <ele>1735.2</ele>
        <time>2024-08-09T10:47:41Z</time>
      </trkpt>
      <trkpt lat="45.07807" lon="6.11915">
        <ele>1735.4</ele>
        <time>2024-08-09T10:47:42Z</time>
      </trkpt>
      <trkpt lat="45.07807" lon="6.11918">
        <ele>1735.8</ele>
        <time>2024-08-09T10:47:43Z</time>
      </trkpt>
      <trkpt lat="45.07807" lon="6.11918">
        <ele>1735.8</ele>
        <time>2024-08-09T10:47:44Z</time>
      </trkpt>
      <trkpt lat="45.07806" lon="6.11921">
        <ele>1735.8</ele>
        <time>2024-08-09T10:47:45Z</time>
      </trkpt>
      <trkpt lat="45.07806" lon="6.11921">
        <ele>1736</ele>
        <time>2024-08-09T10:47:46Z</time>
      </trkpt>
      <trkpt lat="45.07806" lon="6.11924">
        <ele>1736.2</ele>
        <time>2024-08-09T10:47:47Z</time>
      </trkpt>
      <trkpt lat="45.07806" lon="6.11924">
        <ele>1736.2</ele>
        <time>2024-08-09T10:47:48Z</time>
      </trkpt>
      <trkpt lat="45.07807" lon="6.11927">
        <ele>1736.2</ele>
        <time>2024-08-09T10:47:49Z</time>
      </trkpt>
      <trkpt lat="45.07807" lon="6.11927">
        <ele>1736.4</ele>
        <time>2024-08-09T10:47:50Z</time>
      </trkpt>
      <trkpt lat="45.07808" lon="6.11931">
        <ele>1736.4</ele>
        <time>2024-08-09T10:47:51Z</time>
      </trkpt>
      <trkpt lat="45.07808" lon="6.11931">
        <ele>1736.4</ele>
        <time>2024-08-09T10:47:52Z</time>
      </trkpt>
      <trkpt lat="45.07809" lon="6.11934">
        <ele>1736.4</ele>
        <time>2024-08-09T10:47:53Z</time>
      </trkpt>
      <trkpt lat="45.07809" lon="6.11934">
        <ele>1736.6</ele>
        <time>2024-08-09T10:47:54Z</time>
      </trkpt>
      <trkpt lat="45.07809" lon="6.11937">
        <ele>1736.8</ele>
        <time>2024-08-09T10:47:55Z</time>
      </trkpt>
      <trkpt lat="45.07809" lon="6.11937">
        <ele>1736.8</ele>
        <time>2024-08-09T10:47:56Z</time>
      </trkpt>
      <trkpt lat="45.0781" lon="6.1194">
        <ele>1736.8</ele>
        <time>2024-08-09T10:47:57Z</time>
      </trkpt>
      <trkpt lat="45.0781" lon="6.1194">
        <ele>1736.8</ele>
        <time>2024-08-09T10:47:58Z</time>
      </trkpt>
      <trkpt lat="45.07809" lon="6.11943">
        <ele>1737</ele>
        <time>2024-08-09T10:47:59Z</time>
      </trkpt>
      <trkpt lat="45.07809" lon="6.11943">
        <ele>1737</ele>
        <time>2024-08-09T10:48:00Z</time>
      </trkpt>
      <trkpt lat="45.07809" lon="6.11946">
        <ele>1737</ele>
        <time>2024-08-09T10:48:01Z</time>
      </trkpt>
      <trkpt lat="45.07809" lon="6.11946">
        <ele>1737.4</ele>
        <time>2024-08-09T10:48:02Z</time>
      </trkpt>
      <trkpt lat="45.0781" lon="6.11949">
        <ele>1737.4</ele>
        <time>2024-08-09T10:48:03Z</time>
      </trkpt>
      <trkpt lat="45.0781" lon="6.11949">
        <ele>1737.6</ele>
        <time>2024-08-09T10:48:04Z</time>
      </trkpt>
      <trkpt lat="45.0781" lon="6.11952">
        <ele>1737.6</ele>
        <time>2024-08-09T10:48:05Z</time>
      </trkpt>
      <trkpt lat="45.0781" lon="6.11952">
        <ele>1737.8</ele>
        <time>2024-08-09T10:48:06Z</time>
      </trkpt>
      <trkpt lat="45.0781" lon="6.11956">
        <ele>1737.8</ele>
        <time>2024-08-09T10:48:07Z</time>
      </trkpt>
      <trkpt lat="45.0781" lon="6.11956">
        <ele>1737.6</ele>
        <time>2024-08-09T10:48:08Z</time>
      </trkpt>
      <trkpt lat="45.0781" lon="6.11956">
        <ele>1737.6</ele>
        <time>2024-08-09T10:48:09Z</time>
      </trkpt>
      <trkpt lat="45.0781" lon="6.1196">
        <ele>1738</ele>
        <time>2024-08-09T10:48:10Z</time>
      </trkpt>
      <trkpt lat="45.0781" lon="6.1196">
        <ele>1738.2</ele>
        <time>2024-08-09T10:48:11Z</time>
      </trkpt>
      <trkpt lat="45.0781" lon="6.11963">
        <ele>1738.2</ele>
        <time>2024-08-09T10:48:12Z</time>
      </trkpt>
      <trkpt lat="45.0781" lon="6.11963">
        <ele>1738.4</ele>
        <time>2024-08-09T10:48:13Z</time>
      </trkpt>
      <trkpt lat="45.07811" lon="6.11966">
        <ele>1738.6</ele>
        <time>2024-08-09T10:48:14Z</time>
      </trkpt>
      <trkpt lat="45.07811" lon="6.11966">
        <ele>1738.6</ele>
        <time>2024-08-09T10:48:15Z</time>
      </trkpt>
      <trkpt lat="45.07811" lon="6.11969">
        <ele>1738.6</ele>
        <time>2024-08-09T10:48:16Z</time>
      </trkpt>
      <trkpt lat="45.07811" lon="6.11969">
        <ele>1738.8</ele>
        <time>2024-08-09T10:48:17Z</time>
      </trkpt>
      <trkpt lat="45.07811" lon="6.11971">
        <ele>1739.2</ele>
        <time>2024-08-09T10:48:18Z</time>
      </trkpt>
      <trkpt lat="45.07811" lon="6.11971">
        <ele>1739.4</ele>
        <time>2024-08-09T10:48:19Z</time>
      </trkpt>
      <trkpt lat="45.07812" lon="6.11974">
        <ele>1739.4</ele>
        <time>2024-08-09T10:48:20Z</time>
      </trkpt>
      <trkpt lat="45.07812" lon="6.11974">
        <ele>1739.6</ele>
        <time>2024-08-09T10:48:21Z</time>
      </trkpt>
      <trkpt lat="45.07812" lon="6.11978">
        <ele>1739.6</ele>
        <time>2024-08-09T10:48:22Z</time>
      </trkpt>
      <trkpt lat="45.07812" lon="6.11978">
        <ele>1739.6</ele>
        <time>2024-08-09T10:48:23Z</time>
      </trkpt>
      <trkpt lat="45.07813" lon="6.11981">
        <ele>1739.8</ele>
        <time>2024-08-09T10:48:24Z</time>
      </trkpt>
      <trkpt lat="45.07813" lon="6.11981">
        <ele>1740</ele>
        <time>2024-08-09T10:48:25Z</time>
      </trkpt>
      <trkpt lat="45.07813" lon="6.11984">
        <ele>1740</ele>
        <time>2024-08-09T10:48:26Z</time>
      </trkpt>
      <trkpt lat="45.07813" lon="6.11984">
        <ele>1740.4</ele>
        <time>2024-08-09T10:48:27Z</time>
      </trkpt>
      <trkpt lat="45.07813" lon="6.11987">
        <ele>1740.6</ele>
        <time>2024-08-09T10:48:28Z</time>
      </trkpt>
      <trkpt lat="45.07813" lon="6.11987">
        <ele>1740.6</ele>
        <time>2024-08-09T10:48:29Z</time>
      </trkpt>
      <trkpt lat="45.07813" lon="6.1199">
        <ele>1740.8</ele>
        <time>2024-08-09T10:48:30Z</time>
      </trkpt>
      <trkpt lat="45.07813" lon="6.1199">
        <ele>1740.8</ele>
        <time>2024-08-09T10:48:31Z</time>
      </trkpt>
      <trkpt lat="45.07813" lon="6.11993">
        <ele>1740.8</ele>
        <time>2024-08-09T10:48:32Z</time>
      </trkpt>
      <trkpt lat="45.07813" lon="6.11993">
        <ele>1741.2</ele>
        <time>2024-08-09T10:48:33Z</time>
      </trkpt>
      <trkpt lat="45.07814" lon="6.11996">
        <ele>1741.4</ele>
        <time>2024-08-09T10:48:34Z</time>
      </trkpt>
      <trkpt lat="45.07814" lon="6.11996">
        <ele>1741.6</ele>
        <time>2024-08-09T10:48:35Z</time>
      </trkpt>
      <trkpt lat="45.07814" lon="6.11999">
        <ele>1741.6</ele>
        <time>2024-08-09T10:48:36Z</time>
      </trkpt>
      <trkpt lat="45.07814" lon="6.11999">
        <ele>1742</ele>
        <time>2024-08-09T10:48:37Z</time>
      </trkpt>
      <trkpt lat="45.07814" lon="6.12002">
        <ele>1742.2</ele>
        <time>2024-08-09T10:48:38Z</time>
      </trkpt>
      <trkpt lat="45.07814" lon="6.12002">
        <ele>1742.4</ele>
        <time>2024-08-09T10:48:39Z</time>
      </trkpt>
      <trkpt lat="45.07815" lon="6.12005">
        <ele>1742.6</ele>
        <time>2024-08-09T10:48:40Z</time>
      </trkpt>
      <trkpt lat="45.07815" lon="6.12005">
        <ele>1742.8</ele>
        <time>2024-08-09T10:48:41Z</time>
      </trkpt>
      <trkpt lat="45.07815" lon="6.12008">
        <ele>1742.8</ele>
        <time>2024-08-09T10:48:42Z</time>
      </trkpt>
      <trkpt lat="45.07815" lon="6.12008">
        <ele>1743</ele>
        <time>2024-08-09T10:48:43Z</time>
      </trkpt>
      <trkpt lat="45.07815" lon="6.12011">
        <ele>1743.2</ele>
        <time>2024-08-09T10:48:44Z</time>
      </trkpt>
      <trkpt lat="45.07815" lon="6.12011">
        <ele>1743.4</ele>
        <time>2024-08-09T10:48:45Z</time>
      </trkpt>
      <trkpt lat="45.07816" lon="6.12014">
        <ele>1743.6</ele>
        <time>2024-08-09T10:48:46Z</time>
      </trkpt>
      <trkpt lat="45.07816" lon="6.12014">
        <ele>1743.8</ele>
        <time>2024-08-09T10:48:47Z</time>
      </trkpt>
      <trkpt lat="45.07816" lon="6.12017">
        <ele>1744</ele>
        <time>2024-08-09T10:48:48Z</time>
      </trkpt>
      <trkpt lat="45.07816" lon="6.12017">
        <ele>1744</ele>
        <time>2024-08-09T10:48:49Z</time>
      </trkpt>
      <trkpt lat="45.07816" lon="6.1202">
        <ele>1744.2</ele>
        <time>2024-08-09T10:48:50Z</time>
      </trkpt>
      <trkpt lat="45.07816" lon="6.1202">
        <ele>1744.4</ele>
        <time>2024-08-09T10:48:51Z</time>
      </trkpt>
      <trkpt lat="45.07816" lon="6.12023">
        <ele>1744.6</ele>
        <time>2024-08-09T10:48:52Z</time>
      </trkpt>
      <trkpt lat="45.07816" lon="6.12023">
        <ele>1744.6</ele>
        <time>2024-08-09T10:48:53Z</time>
      </trkpt>
      <trkpt lat="45.07817" lon="6.12026">
        <ele>1744.8</ele>
        <time>2024-08-09T10:48:54Z</time>
      </trkpt>
      <trkpt lat="45.07817" lon="6.12026">
        <ele>1745</ele>
        <time>2024-08-09T10:48:55Z</time>
      </trkpt>
      <trkpt lat="45.07816" lon="6.12029">
        <ele>1745.2</ele>
        <time>2024-08-09T10:48:56Z</time>
      </trkpt>
      <trkpt lat="45.07816" lon="6.12029">
        <ele>1745.2</ele>
        <time>2024-08-09T10:48:57Z</time>
      </trkpt>
      <trkpt lat="45.07816" lon="6.12032">
        <ele>1745.4</ele>
        <time>2024-08-09T10:48:58Z</time>
      </trkpt>
      <trkpt lat="45.07816" lon="6.12032">
        <ele>1745.6</ele>
        <time>2024-08-09T10:48:59Z</time>
      </trkpt>
      <trkpt lat="45.07817" lon="6.12035">
        <ele>1745.8</ele>
        <time>2024-08-09T10:49:00Z</time>
      </trkpt>
      <trkpt lat="45.07817" lon="6.12035">
        <ele>1746</ele>
        <time>2024-08-09T10:49:01Z</time>
      </trkpt>
      <trkpt lat="45.07817" lon="6.12038">
        <ele>1746.2</ele>
        <time>2024-08-09T10:49:02Z</time>
      </trkpt>
      <trkpt lat="45.07817" lon="6.12038">
        <ele>1746.2</ele>
        <time>2024-08-09T10:49:03Z</time>
      </trkpt>
      <trkpt lat="45.07817" lon="6.12042">
        <ele>1746.4</ele>
        <time>2024-08-09T10:49:04Z</time>
      </trkpt>
      <trkpt lat="45.07817" lon="6.12042">
        <ele>1746.4</ele>
        <time>2024-08-09T10:49:05Z</time>
      </trkpt>
      <trkpt lat="45.07817" lon="6.12045">
        <ele>1746.6</ele>
        <time>2024-08-09T10:49:06Z</time>
      </trkpt>
      <trkpt lat="45.07817" lon="6.12045">
        <ele>1746.8</ele>
        <time>2024-08-09T10:49:07Z</time>
      </trkpt>
      <trkpt lat="45.07816" lon="6.12048">
        <ele>1747</ele>
        <time>2024-08-09T10:49:08Z</time>
      </trkpt>
      <trkpt lat="45.07816" lon="6.12048">
        <ele>1747.2</ele>
        <time>2024-08-09T10:49:09Z</time>
      </trkpt>
      <trkpt lat="45.07816" lon="6.12051">
        <ele>1747.2</ele>
        <time>2024-08-09T10:49:10Z</time>
      </trkpt>
      <trkpt lat="45.07816" lon="6.12051">
        <ele>1747.4</ele>
        <time>2024-08-09T10:49:11Z</time>
      </trkpt>
      <trkpt lat="45.07816" lon="6.12054">
        <ele>1747.6</ele>
        <time>2024-08-09T10:49:12Z</time>
      </trkpt>
      <trkpt lat="45.07816" lon="6.12054">
        <ele>1747.6</ele>
        <time>2024-08-09T10:49:13Z</time>
      </trkpt>
      <trkpt lat="45.07816" lon="6.12054">
        <ele>1748</ele>
        <time>2024-08-09T10:49:14Z</time>
      </trkpt>
      <trkpt lat="45.07816" lon="6.12054">
        <ele>1748.2</ele>
        <time>2024-08-09T10:49:15Z</time>
      </trkpt>
      <trkpt lat="45.07814" lon="6.12056">
        <ele>1748.4</ele>
        <time>2024-08-09T10:49:16Z</time>
      </trkpt>
      <trkpt lat="45.07814" lon="6.12056">
        <ele>1748.4</ele>
        <time>2024-08-09T10:49:17Z</time>
      </trkpt>
      <trkpt lat="45.07814" lon="6.12056">
        <ele>1748.4</ele>
        <time>2024-08-09T10:49:18Z</time>
      </trkpt>
      <trkpt lat="45.07814" lon="6.12056">
        <ele>1748.4</ele>
        <time>2024-08-09T10:49:19Z</time>
      </trkpt>
      <trkpt lat="45.07814" lon="6.12056">
        <ele>1748.4</ele>
        <time>2024-08-09T10:49:20Z</time>
      </trkpt>
      <trkpt lat="45.07814" lon="6.12056">
        <ele>1748.4</ele>
        <time>2024-08-09T10:49:21Z</time>
      </trkpt>
      <trkpt lat="45.07814" lon="6.12056">
        <ele>1748.4</ele>
        <time>2024-08-09T10:49:22Z</time>
      </trkpt>
      <trkpt lat="45.07814" lon="6.12056">
        <ele>1748.4</ele>
        <time>2024-08-09T10:49:23Z</time>
      </trkpt>
      <trkpt lat="45.07814" lon="6.12056">
        <ele>1748.2</ele>
        <time>2024-08-09T10:49:24Z</time>
      </trkpt>
      <trkpt lat="45.07814" lon="6.12056">
        <ele>1748.2</ele>
        <time>2024-08-09T10:49:25Z</time>
      </trkpt>
      <trkpt lat="45.07814" lon="6.12056">
        <ele>1748</ele>
        <time>2024-08-09T10:49:26Z</time>
      </trkpt>
      <trkpt lat="45.07814" lon="6.12056">
        <ele>1748</ele>
        <time>2024-08-09T10:49:27Z</time>
      </trkpt>
      <trkpt lat="45.07814" lon="6.12056">
        <ele>1747.8</ele>
        <time>2024-08-09T10:49:28Z</time>
      </trkpt>
      <trkpt lat="45.07814" lon="6.12056">
        <ele>1747.6</ele>
        <time>2024-08-09T10:49:29Z</time>
      </trkpt>
      <trkpt lat="45.07814" lon="6.12056">
        <ele>1747.6</ele>
        <time>2024-08-09T10:49:30Z</time>
      </trkpt>
      <trkpt lat="45.07814" lon="6.12056">
        <ele>1747.6</ele>
        <time>2024-08-09T10:49:31Z</time>
      </trkpt>
      <trkpt lat="45.07814" lon="6.12056">
        <ele>1747.6</ele>
        <time>2024-08-09T10:49:32Z</time>
      </trkpt>
      <trkpt lat="45.07814" lon="6.12056">
        <ele>1747.4</ele>
        <time>2024-08-09T10:49:33Z</time>
      </trkpt>
      <trkpt lat="45.07814" lon="6.12056">
        <ele>1747.4</ele>
        <time>2024-08-09T10:49:34Z</time>
      </trkpt>
      <trkpt lat="45.07814" lon="6.12056">
        <ele>1747.4</ele>
        <time>2024-08-09T10:49:35Z</time>
      </trkpt>
      <trkpt lat="45.07814" lon="6.12056">
        <ele>1747.4</ele>
        <time>2024-08-09T10:49:36Z</time>
      </trkpt>
      <trkpt lat="45.07814" lon="6.12056">
        <ele>1747.4</ele>
        <time>2024-08-09T10:49:37Z</time>
      </trkpt>
      <trkpt lat="45.07814" lon="6.12056">
        <ele>1747</ele>
        <time>2024-08-09T10:49:38Z</time>
      </trkpt>
      <trkpt lat="45.07817" lon="6.12055">
        <ele>1746.8</ele>
        <time>2024-08-09T10:49:39Z</time>
      </trkpt>
      <trkpt lat="45.07817" lon="6.12055">
        <ele>1746.6</ele>
        <time>2024-08-09T10:49:40Z</time>
      </trkpt>
      <trkpt lat="45.07821" lon="6.12056">
        <ele>1746.6</ele>
        <time>2024-08-09T10:49:41Z</time>
      </trkpt>
      <trkpt lat="45.07821" lon="6.12056">
        <ele>1746.8</ele>
        <time>2024-08-09T10:49:42Z</time>
      </trkpt>
      <trkpt lat="45.07823" lon="6.12058">
        <ele>1747</ele>
        <time>2024-08-09T10:49:43Z</time>
      </trkpt>
      <trkpt lat="45.07823" lon="6.12058">
        <ele>1747</ele>
        <time>2024-08-09T10:49:44Z</time>
      </trkpt>
      <trkpt lat="45.07825" lon="6.12061">
        <ele>1747</ele>
        <time>2024-08-09T10:49:45Z</time>
      </trkpt>
      <trkpt lat="45.07825" lon="6.12061">
        <ele>1747.2</ele>
        <time>2024-08-09T10:49:46Z</time>
      </trkpt>
      <trkpt lat="45.07827" lon="6.12064">
        <ele>1747.4</ele>
        <time>2024-08-09T10:49:47Z</time>
      </trkpt>
      <trkpt lat="45.07827" lon="6.12064">
        <ele>1747.4</ele>
        <time>2024-08-09T10:49:48Z</time>
      </trkpt>
      <trkpt lat="45.07828" lon="6.12066">
        <ele>1747.4</ele>
        <time>2024-08-09T10:49:49Z</time>
      </trkpt>
      <trkpt lat="45.07828" lon="6.12066">
        <ele>1747.4</ele>
        <time>2024-08-09T10:49:50Z</time>
      </trkpt>
      <trkpt lat="45.07829" lon="6.12068">
        <ele>1747.4</ele>
        <time>2024-08-09T10:49:51Z</time>
      </trkpt>
      <trkpt lat="45.07829" lon="6.12068">
        <ele>1747.4</ele>
        <time>2024-08-09T10:49:52Z</time>
      </trkpt>
      <trkpt lat="45.07831" lon="6.12071">
        <ele>1747.4</ele>
        <time>2024-08-09T10:49:53Z</time>
      </trkpt>
      <trkpt lat="45.07831" lon="6.12071">
        <ele>1747.8</ele>
        <time>2024-08-09T10:49:54Z</time>
      </trkpt>
      <trkpt lat="45.07832" lon="6.12075">
        <ele>1748</ele>
        <time>2024-08-09T10:49:55Z</time>
      </trkpt>
      <trkpt lat="45.07832" lon="6.12075">
        <ele>1748</ele>
        <time>2024-08-09T10:49:56Z</time>
      </trkpt>
      <trkpt lat="45.07834" lon="6.12078">
        <ele>1748.2</ele>
        <time>2024-08-09T10:49:57Z</time>
      </trkpt>
      <trkpt lat="45.07834" lon="6.12078">
        <ele>1748.2</ele>
        <time>2024-08-09T10:49:58Z</time>
      </trkpt>
      <trkpt lat="45.07835" lon="6.12081">
        <ele>1748.4</ele>
        <time>2024-08-09T10:49:59Z</time>
      </trkpt>
      <trkpt lat="45.07837" lon="6.12084">
        <ele>1748.6</ele>
        <time>2024-08-09T10:50:01Z</time>
      </trkpt>
      <trkpt lat="45.07837" lon="6.12084">
        <ele>1748.8</ele>
        <time>2024-08-09T10:50:02Z</time>
      </trkpt>
      <trkpt lat="45.07838" lon="6.12087">
        <ele>1749</ele>
        <time>2024-08-09T10:50:03Z</time>
      </trkpt>
      <trkpt lat="45.07838" lon="6.12087">
        <ele>1749.2</ele>
        <time>2024-08-09T10:50:04Z</time>
      </trkpt>
      <trkpt lat="45.07839" lon="6.1209">
        <ele>1749.2</ele>
        <time>2024-08-09T10:50:05Z</time>
      </trkpt>
      <trkpt lat="45.07839" lon="6.1209">
        <ele>1749.4</ele>
        <time>2024-08-09T10:50:06Z</time>
      </trkpt>
      <trkpt lat="45.0784" lon="6.12094">
        <ele>1749.6</ele>
        <time>2024-08-09T10:50:07Z</time>
      </trkpt>
      <trkpt lat="45.0784" lon="6.12094">
        <ele>1749.8</ele>
        <time>2024-08-09T10:50:08Z</time>
      </trkpt>
      <trkpt lat="45.0784" lon="6.12097">
        <ele>1749.8</ele>
        <time>2024-08-09T10:50:09Z</time>
      </trkpt>
      <trkpt lat="45.0784" lon="6.12097">
        <ele>1750</ele>
        <time>2024-08-09T10:50:10Z</time>
      </trkpt>
      <trkpt lat="45.0784" lon="6.121">
        <ele>1750.2</ele>
        <time>2024-08-09T10:50:11Z</time>
      </trkpt>
      <trkpt lat="45.0784" lon="6.121">
        <ele>1750.2</ele>
        <time>2024-08-09T10:50:12Z</time>
      </trkpt>
      <trkpt lat="45.0784" lon="6.12104">
        <ele>1750.2</ele>
        <time>2024-08-09T10:50:13Z</time>
      </trkpt>
      <trkpt lat="45.0784" lon="6.12104">
        <ele>1750.2</ele>
        <time>2024-08-09T10:50:14Z</time>
      </trkpt>
      <trkpt lat="45.0784" lon="6.12107">
        <ele>1750.4</ele>
        <time>2024-08-09T10:50:15Z</time>
      </trkpt>
      <trkpt lat="45.0784" lon="6.12107">
        <ele>1750.4</ele>
        <time>2024-08-09T10:50:16Z</time>
      </trkpt>
      <trkpt lat="45.0784" lon="6.1211">
        <ele>1750.6</ele>
        <time>2024-08-09T10:50:17Z</time>
      </trkpt>
      <trkpt lat="45.0784" lon="6.1211">
        <ele>1750.6</ele>
        <time>2024-08-09T10:50:18Z</time>
      </trkpt>
      <trkpt lat="45.07842" lon="6.12114">
        <ele>1750.6</ele>
        <time>2024-08-09T10:50:19Z</time>
      </trkpt>
      <trkpt lat="45.07842" lon="6.12114">
        <ele>1750.6</ele>
        <time>2024-08-09T10:50:20Z</time>
      </trkpt>
      <trkpt lat="45.07842" lon="6.12117">
        <ele>1750.6</ele>
        <time>2024-08-09T10:50:21Z</time>
      </trkpt>
      <trkpt lat="45.07842" lon="6.12117">
        <ele>1750.8</ele>
        <time>2024-08-09T10:50:22Z</time>
      </trkpt>
      <trkpt lat="45.07843" lon="6.1212">
        <ele>1751</ele>
        <time>2024-08-09T10:50:23Z</time>
      </trkpt>
      <trkpt lat="45.07843" lon="6.1212">
        <ele>1751.2</ele>
        <time>2024-08-09T10:50:24Z</time>
      </trkpt>
      <trkpt lat="45.07844" lon="6.12123">
        <ele>1751.2</ele>
        <time>2024-08-09T10:50:25Z</time>
      </trkpt>
      <trkpt lat="45.07844" lon="6.12123">
        <ele>1751.4</ele>
        <time>2024-08-09T10:50:26Z</time>
      </trkpt>
      <trkpt lat="45.07844" lon="6.12127">
        <ele>1751.6</ele>
        <time>2024-08-09T10:50:27Z</time>
      </trkpt>
      <trkpt lat="45.07844" lon="6.12127">
        <ele>1751.6</ele>
        <time>2024-08-09T10:50:28Z</time>
      </trkpt>
      <trkpt lat="45.07844" lon="6.1213">
        <ele>1751.6</ele>
        <time>2024-08-09T10:50:29Z</time>
      </trkpt>
      <trkpt lat="45.07844" lon="6.1213">
        <ele>1751.8</ele>
        <time>2024-08-09T10:50:30Z</time>
      </trkpt>
      <trkpt lat="45.07844" lon="6.12133">
        <ele>1752</ele>
        <time>2024-08-09T10:50:31Z</time>
      </trkpt>
      <trkpt lat="45.07844" lon="6.12133">
        <ele>1752.2</ele>
        <time>2024-08-09T10:50:32Z</time>
      </trkpt>
      <trkpt lat="45.07845" lon="6.12136">
        <ele>1752.4</ele>
        <time>2024-08-09T10:50:33Z</time>
      </trkpt>
      <trkpt lat="45.07845" lon="6.12136">
        <ele>1752.6</ele>
        <time>2024-08-09T10:50:34Z</time>
      </trkpt>
      <trkpt lat="45.07846" lon="6.12139">
        <ele>1752.6</ele>
        <time>2024-08-09T10:50:35Z</time>
      </trkpt>
      <trkpt lat="45.07846" lon="6.12139">
        <ele>1752.6</ele>
        <time>2024-08-09T10:50:36Z</time>
      </trkpt>
      <trkpt lat="45.07846" lon="6.12142">
        <ele>1752.6</ele>
        <time>2024-08-09T10:50:37Z</time>
      </trkpt>
      <trkpt lat="45.07846" lon="6.12142">
        <ele>1752.8</ele>
        <time>2024-08-09T10:50:38Z</time>
      </trkpt>
      <trkpt lat="45.07846" lon="6.12146">
        <ele>1752.8</ele>
        <time>2024-08-09T10:50:39Z</time>
      </trkpt>
      <trkpt lat="45.07846" lon="6.12146">
        <ele>1752.8</ele>
        <time>2024-08-09T10:50:40Z</time>
      </trkpt>
      <trkpt lat="45.07847" lon="6.12149">
        <ele>1752.8</ele>
        <time>2024-08-09T10:50:41Z</time>
      </trkpt>
      <trkpt lat="45.07847" lon="6.12149">
        <ele>1753</ele>
        <time>2024-08-09T10:50:42Z</time>
      </trkpt>
      <trkpt lat="45.07848" lon="6.12152">
        <ele>1753.2</ele>
        <time>2024-08-09T10:50:43Z</time>
      </trkpt>
      <trkpt lat="45.07848" lon="6.12152">
        <ele>1753.2</ele>
        <time>2024-08-09T10:50:44Z</time>
      </trkpt>
      <trkpt lat="45.07848" lon="6.12156">
        <ele>1753.4</ele>
        <time>2024-08-09T10:50:45Z</time>
      </trkpt>
      <trkpt lat="45.07848" lon="6.12156">
        <ele>1753.6</ele>
        <time>2024-08-09T10:50:46Z</time>
      </trkpt>
      <trkpt lat="45.07848" lon="6.12159">
        <ele>1753.8</ele>
        <time>2024-08-09T10:50:47Z</time>
      </trkpt>
      <trkpt lat="45.07848" lon="6.12159">
        <ele>1754</ele>
        <time>2024-08-09T10:50:48Z</time>
      </trkpt>
      <trkpt lat="45.07848" lon="6.12162">
        <ele>1754</ele>
        <time>2024-08-09T10:50:49Z</time>
      </trkpt>
      <trkpt lat="45.07848" lon="6.12162">
        <ele>1754</ele>
        <time>2024-08-09T10:50:50Z</time>
      </trkpt>
      <trkpt lat="45.07848" lon="6.12165">
        <ele>1754.2</ele>
        <time>2024-08-09T10:50:51Z</time>
      </trkpt>
      <trkpt lat="45.07848" lon="6.12165">
        <ele>1754.4</ele>
        <time>2024-08-09T10:50:52Z</time>
      </trkpt>
      <trkpt lat="45.07849" lon="6.12168">
        <ele>1754.6</ele>
        <time>2024-08-09T10:50:53Z</time>
      </trkpt>
      <trkpt lat="45.07849" lon="6.12168">
        <ele>1754.6</ele>
        <time>2024-08-09T10:50:54Z</time>
      </trkpt>
      <trkpt lat="45.0785" lon="6.12171">
        <ele>1754.6</ele>
        <time>2024-08-09T10:50:55Z</time>
      </trkpt>
      <trkpt lat="45.0785" lon="6.12171">
        <ele>1754.6</ele>
        <time>2024-08-09T10:50:56Z</time>
      </trkpt>
      <trkpt lat="45.0785" lon="6.12174">
        <ele>1754.6</ele>
        <time>2024-08-09T10:50:57Z</time>
      </trkpt>
      <trkpt lat="45.0785" lon="6.12174">
        <ele>1754.8</ele>
        <time>2024-08-09T10:50:58Z</time>
      </trkpt>
      <trkpt lat="45.07851" lon="6.12177">
        <ele>1755</ele>
        <time>2024-08-09T10:50:59Z</time>
      </trkpt>
      <trkpt lat="45.07851" lon="6.12177">
        <ele>1755</ele>
        <time>2024-08-09T10:51:00Z</time>
      </trkpt>
      <trkpt lat="45.0785" lon="6.12181">
        <ele>1755</ele>
        <time>2024-08-09T10:51:01Z</time>
      </trkpt>
      <trkpt lat="45.0785" lon="6.12181">
        <ele>1755.2</ele>
        <time>2024-08-09T10:51:02Z</time>
      </trkpt>
      <trkpt lat="45.0785" lon="6.12184">
        <ele>1755.4</ele>
        <time>2024-08-09T10:51:03Z</time>
      </trkpt>
      <trkpt lat="45.0785" lon="6.12184">
        <ele>1755.4</ele>
        <time>2024-08-09T10:51:04Z</time>
      </trkpt>
      <trkpt lat="45.07851" lon="6.12187">
        <ele>1755.4</ele>
        <time>2024-08-09T10:51:05Z</time>
      </trkpt>
      <trkpt lat="45.07851" lon="6.12187">
        <ele>1755.4</ele>
        <time>2024-08-09T10:51:06Z</time>
      </trkpt>
      <trkpt lat="45.07852" lon="6.1219">
        <ele>1755.4</ele>
        <time>2024-08-09T10:51:07Z</time>
      </trkpt>
      <trkpt lat="45.07852" lon="6.1219">
        <ele>1755.4</ele>
        <time>2024-08-09T10:51:08Z</time>
      </trkpt>
      <trkpt lat="45.07851" lon="6.12194">
        <ele>1755.6</ele>
        <time>2024-08-09T10:51:09Z</time>
      </trkpt>
      <trkpt lat="45.07851" lon="6.12194">
        <ele>1755.8</ele>
        <time>2024-08-09T10:51:10Z</time>
      </trkpt>
      <trkpt lat="45.07851" lon="6.12197">
        <ele>1756</ele>
        <time>2024-08-09T10:51:11Z</time>
      </trkpt>
      <trkpt lat="45.07851" lon="6.12197">
        <ele>1756</ele>
        <time>2024-08-09T10:51:12Z</time>
      </trkpt>
      <trkpt lat="45.07852" lon="6.122">
        <ele>1756.2</ele>
        <time>2024-08-09T10:51:13Z</time>
      </trkpt>
      <trkpt lat="45.07852" lon="6.122">
        <ele>1756.2</ele>
        <time>2024-08-09T10:51:14Z</time>
      </trkpt>
      <trkpt lat="45.07852" lon="6.12203">
        <ele>1756.2</ele>
        <time>2024-08-09T10:51:15Z</time>
      </trkpt>
      <trkpt lat="45.07852" lon="6.12203">
        <ele>1756.2</ele>
        <time>2024-08-09T10:51:16Z</time>
      </trkpt>
      <trkpt lat="45.07853" lon="6.12207">
        <ele>1756.4</ele>
        <time>2024-08-09T10:51:17Z</time>
      </trkpt>
      <trkpt lat="45.07853" lon="6.12207">
        <ele>1756.6</ele>
        <time>2024-08-09T10:51:18Z</time>
      </trkpt>
      <trkpt lat="45.07853" lon="6.1221">
        <ele>1756.6</ele>
        <time>2024-08-09T10:51:19Z</time>
      </trkpt>
      <trkpt lat="45.07853" lon="6.1221">
        <ele>1756.6</ele>
        <time>2024-08-09T10:51:20Z</time>
      </trkpt>
      <trkpt lat="45.07853" lon="6.12214">
        <ele>1756.6</ele>
        <time>2024-08-09T10:51:21Z</time>
      </trkpt>
      <trkpt lat="45.07853" lon="6.12214">
        <ele>1756.8</ele>
        <time>2024-08-09T10:51:22Z</time>
      </trkpt>
      <trkpt lat="45.07854" lon="6.12217">
        <ele>1757</ele>
        <time>2024-08-09T10:51:23Z</time>
      </trkpt>
      <trkpt lat="45.07854" lon="6.12217">
        <ele>1757</ele>
        <time>2024-08-09T10:51:24Z</time>
      </trkpt>
      <trkpt lat="45.07854" lon="6.12221">
        <ele>1757</ele>
        <time>2024-08-09T10:51:25Z</time>
      </trkpt>
      <trkpt lat="45.07854" lon="6.12221">
        <ele>1757.4</ele>
        <time>2024-08-09T10:51:26Z</time>
      </trkpt>
      <trkpt lat="45.07854" lon="6.12224">
        <ele>1757.4</ele>
        <time>2024-08-09T10:51:27Z</time>
      </trkpt>
      <trkpt lat="45.07854" lon="6.12224">
        <ele>1757.4</ele>
        <time>2024-08-09T10:51:28Z</time>
      </trkpt>
      <trkpt lat="45.07855" lon="6.12227">
        <ele>1757.6</ele>
        <time>2024-08-09T10:51:29Z</time>
      </trkpt>
      <trkpt lat="45.07855" lon="6.12227">
        <ele>1758</ele>
        <time>2024-08-09T10:51:30Z</time>
      </trkpt>
      <trkpt lat="45.07856" lon="6.1223">
        <ele>1758</ele>
        <time>2024-08-09T10:51:31Z</time>
      </trkpt>
      <trkpt lat="45.07856" lon="6.1223">
        <ele>1758</ele>
        <time>2024-08-09T10:51:32Z</time>
      </trkpt>
      <trkpt lat="45.07857" lon="6.12233">
        <ele>1758</ele>
        <time>2024-08-09T10:51:33Z</time>
      </trkpt>
      <trkpt lat="45.07857" lon="6.12233">
        <ele>1758</ele>
        <time>2024-08-09T10:51:34Z</time>
      </trkpt>
      <trkpt lat="45.07857" lon="6.12236">
        <ele>1758.2</ele>
        <time>2024-08-09T10:51:35Z</time>
      </trkpt>
      <trkpt lat="45.07857" lon="6.12236">
        <ele>1758.2</ele>
        <time>2024-08-09T10:51:36Z</time>
      </trkpt>
      <trkpt lat="45.07858" lon="6.1224">
        <ele>1758.4</ele>
        <time>2024-08-09T10:51:37Z</time>
      </trkpt>
      <trkpt lat="45.07858" lon="6.1224">
        <ele>1758.4</ele>
        <time>2024-08-09T10:51:38Z</time>
      </trkpt>
      <trkpt lat="45.07858" lon="6.12243">
        <ele>1758.4</ele>
        <time>2024-08-09T10:51:39Z</time>
      </trkpt>
      <trkpt lat="45.07858" lon="6.12243">
        <ele>1758.6</ele>
        <time>2024-08-09T10:51:40Z</time>
      </trkpt>
      <trkpt lat="45.07858" lon="6.12246">
        <ele>1758.8</ele>
        <time>2024-08-09T10:51:41Z</time>
      </trkpt>
      <trkpt lat="45.07858" lon="6.12246">
        <ele>1758.8</ele>
        <time>2024-08-09T10:51:42Z</time>
      </trkpt>
      <trkpt lat="45.07859" lon="6.12249">
        <ele>1759</ele>
        <time>2024-08-09T10:51:43Z</time>
      </trkpt>
      <trkpt lat="45.07859" lon="6.12249">
        <ele>1759.2</ele>
        <time>2024-08-09T10:51:44Z</time>
      </trkpt>
      <trkpt lat="45.07859" lon="6.12253">
        <ele>1759.2</ele>
        <time>2024-08-09T10:51:45Z</time>
      </trkpt>
      <trkpt lat="45.07859" lon="6.12253">
        <ele>1759.4</ele>
        <time>2024-08-09T10:51:46Z</time>
      </trkpt>
      <trkpt lat="45.0786" lon="6.12256">
        <ele>1759.4</ele>
        <time>2024-08-09T10:51:47Z</time>
      </trkpt>
      <trkpt lat="45.0786" lon="6.12256">
        <ele>1759.4</ele>
        <time>2024-08-09T10:51:48Z</time>
      </trkpt>
      <trkpt lat="45.0786" lon="6.12259">
        <ele>1759.6</ele>
        <time>2024-08-09T10:51:49Z</time>
      </trkpt>
      <trkpt lat="45.0786" lon="6.12259">
        <ele>1759.6</ele>
        <time>2024-08-09T10:51:50Z</time>
      </trkpt>
      <trkpt lat="45.0786" lon="6.12263">
        <ele>1759.8</ele>
        <time>2024-08-09T10:51:51Z</time>
      </trkpt>
      <trkpt lat="45.0786" lon="6.12263">
        <ele>1760</ele>
        <time>2024-08-09T10:51:52Z</time>
      </trkpt>
      <trkpt lat="45.07861" lon="6.12266">
        <ele>1760</ele>
        <time>2024-08-09T10:51:53Z</time>
      </trkpt>
      <trkpt lat="45.07861" lon="6.12266">
        <ele>1760.2</ele>
        <time>2024-08-09T10:51:54Z</time>
      </trkpt>
      <trkpt lat="45.07861" lon="6.12269">
        <ele>1760.2</ele>
        <time>2024-08-09T10:51:55Z</time>
      </trkpt>
      <trkpt lat="45.07861" lon="6.12269">
        <ele>1760.2</ele>
        <time>2024-08-09T10:51:56Z</time>
      </trkpt>
      <trkpt lat="45.0786" lon="6.12273">
        <ele>1760.4</ele>
        <time>2024-08-09T10:51:57Z</time>
      </trkpt>
      <trkpt lat="45.0786" lon="6.12273">
        <ele>1760.4</ele>
        <time>2024-08-09T10:51:58Z</time>
      </trkpt>
      <trkpt lat="45.07859" lon="6.12276">
        <ele>1760.4</ele>
        <time>2024-08-09T10:51:59Z</time>
      </trkpt>
      <trkpt lat="45.07859" lon="6.12276">
        <ele>1760.4</ele>
        <time>2024-08-09T10:52:00Z</time>
      </trkpt>
      <trkpt lat="45.07859" lon="6.12279">
        <ele>1760.4</ele>
        <time>2024-08-09T10:52:01Z</time>
      </trkpt>
      <trkpt lat="45.07859" lon="6.12279">
        <ele>1760.4</ele>
        <time>2024-08-09T10:52:02Z</time>
      </trkpt>
      <trkpt lat="45.07859" lon="6.12283">
        <ele>1760.4</ele>
        <time>2024-08-09T10:52:03Z</time>
      </trkpt>
      <trkpt lat="45.07859" lon="6.12283">
        <ele>1760.4</ele>
        <time>2024-08-09T10:52:04Z</time>
      </trkpt>
      <trkpt lat="45.0786" lon="6.12287">
        <ele>1760.6</ele>
        <time>2024-08-09T10:52:05Z</time>
      </trkpt>
      <trkpt lat="45.0786" lon="6.12287">
        <ele>1760.6</ele>
        <time>2024-08-09T10:52:06Z</time>
      </trkpt>
      <trkpt lat="45.0786" lon="6.1229">
        <ele>1760.6</ele>
        <time>2024-08-09T10:52:07Z</time>
      </trkpt>
      <trkpt lat="45.0786" lon="6.1229">
        <ele>1760.8</ele>
        <time>2024-08-09T10:52:08Z</time>
      </trkpt>
      <trkpt lat="45.0786" lon="6.12293">
        <ele>1760.8</ele>
        <time>2024-08-09T10:52:09Z</time>
      </trkpt>
      <trkpt lat="45.0786" lon="6.12293">
        <ele>1761</ele>
        <time>2024-08-09T10:52:10Z</time>
      </trkpt>
      <trkpt lat="45.0786" lon="6.12297">
        <ele>1761</ele>
        <time>2024-08-09T10:52:11Z</time>
      </trkpt>
      <trkpt lat="45.0786" lon="6.12297">
        <ele>1761.2</ele>
        <time>2024-08-09T10:52:12Z</time>
      </trkpt>
      <trkpt lat="45.07861" lon="6.123">
        <ele>1761</ele>
        <time>2024-08-09T10:52:13Z</time>
      </trkpt>
      <trkpt lat="45.07861" lon="6.123">
        <ele>1761</ele>
        <time>2024-08-09T10:52:14Z</time>
      </trkpt>
      <trkpt lat="45.07861" lon="6.12303">
        <ele>1761</ele>
        <time>2024-08-09T10:52:15Z</time>
      </trkpt>
      <trkpt lat="45.07861" lon="6.12303">
        <ele>1761.4</ele>
        <time>2024-08-09T10:52:16Z</time>
      </trkpt>
      <trkpt lat="45.07861" lon="6.12307">
        <ele>1761.4</ele>
        <time>2024-08-09T10:52:17Z</time>
      </trkpt>
      <trkpt lat="45.07861" lon="6.12307">
        <ele>1761.8</ele>
        <time>2024-08-09T10:52:18Z</time>
      </trkpt>
      <trkpt lat="45.07861" lon="6.12309">
        <ele>1762</ele>
        <time>2024-08-09T10:52:19Z</time>
      </trkpt>
      <trkpt lat="45.07861" lon="6.12309">
        <ele>1762</ele>
        <time>2024-08-09T10:52:20Z</time>
      </trkpt>
      <trkpt lat="45.07862" lon="6.12312">
        <ele>1762</ele>
        <time>2024-08-09T10:52:21Z</time>
      </trkpt>
      <trkpt lat="45.07862" lon="6.12312">
        <ele>1762</ele>
        <time>2024-08-09T10:52:22Z</time>
      </trkpt>
      <trkpt lat="45.07863" lon="6.12316">
        <ele>1762.2</ele>
        <time>2024-08-09T10:52:23Z</time>
      </trkpt>
      <trkpt lat="45.07863" lon="6.12316">
        <ele>1762</ele>
        <time>2024-08-09T10:52:24Z</time>
      </trkpt>
      <trkpt lat="45.07864" lon="6.12319">
        <ele>1761.2</ele>
        <time>2024-08-09T10:52:25Z</time>
      </trkpt>
      <trkpt lat="45.07864" lon="6.12319">
        <ele>1760.8</ele>
        <time>2024-08-09T10:52:26Z</time>
      </trkpt>
      <trkpt lat="45.07865" lon="6.12322">
        <ele>1760.8</ele>
        <time>2024-08-09T10:52:27Z</time>
      </trkpt>
      <trkpt lat="45.07865" lon="6.12322">
        <ele>1760.6</ele>
        <time>2024-08-09T10:52:28Z</time>
      </trkpt>
      <trkpt lat="45.07867" lon="6.12325">
        <ele>1760.6</ele>
        <time>2024-08-09T10:52:29Z</time>
      </trkpt>
      <trkpt lat="45.07867" lon="6.12325">
        <ele>1760.6</ele>
        <time>2024-08-09T10:52:30Z</time>
      </trkpt>
      <trkpt lat="45.07867" lon="6.12329">
        <ele>1760.6</ele>
        <time>2024-08-09T10:52:31Z</time>
      </trkpt>
      <trkpt lat="45.07867" lon="6.12329">
        <ele>1760.8</ele>
        <time>2024-08-09T10:52:32Z</time>
      </trkpt>
      <trkpt lat="45.07867" lon="6.12332">
        <ele>1761</ele>
        <time>2024-08-09T10:52:33Z</time>
      </trkpt>
      <trkpt lat="45.07867" lon="6.12332">
        <ele>1761</ele>
        <time>2024-08-09T10:52:34Z</time>
      </trkpt>
      <trkpt lat="45.07868" lon="6.12335">
        <ele>1760.8</ele>
        <time>2024-08-09T10:52:35Z</time>
      </trkpt>
      <trkpt lat="45.07868" lon="6.12335">
        <ele>1760.8</ele>
        <time>2024-08-09T10:52:36Z</time>
      </trkpt>
      <trkpt lat="45.07868" lon="6.12337">
        <ele>1760.8</ele>
        <time>2024-08-09T10:52:37Z</time>
      </trkpt>
      <trkpt lat="45.07868" lon="6.12337">
        <ele>1761.2</ele>
        <time>2024-08-09T10:52:38Z</time>
      </trkpt>
      <trkpt lat="45.07869" lon="6.12341">
        <ele>1761.2</ele>
        <time>2024-08-09T10:52:39Z</time>
      </trkpt>
      <trkpt lat="45.07869" lon="6.12341">
        <ele>1761.2</ele>
        <time>2024-08-09T10:52:40Z</time>
      </trkpt>
      <trkpt lat="45.07871" lon="6.12344">
        <ele>1761.4</ele>
        <time>2024-08-09T10:52:41Z</time>
      </trkpt>
      <trkpt lat="45.07871" lon="6.12344">
        <ele>1761.6</ele>
        <time>2024-08-09T10:52:42Z</time>
      </trkpt>
      <trkpt lat="45.07872" lon="6.12346">
        <ele>1761.6</ele>
        <time>2024-08-09T10:52:43Z</time>
      </trkpt>
      <trkpt lat="45.07872" lon="6.12346">
        <ele>1761.8</ele>
        <time>2024-08-09T10:52:44Z</time>
      </trkpt>
      <trkpt lat="45.07874" lon="6.12349">
        <ele>1762.2</ele>
        <time>2024-08-09T10:52:45Z</time>
      </trkpt>
      <trkpt lat="45.07874" lon="6.12349">
        <ele>1762.4</ele>
        <time>2024-08-09T10:52:46Z</time>
      </trkpt>
      <trkpt lat="45.07875" lon="6.12352">
        <ele>1762.4</ele>
        <time>2024-08-09T10:52:47Z</time>
      </trkpt>
      <trkpt lat="45.07875" lon="6.12352">
        <ele>1762.4</ele>
        <time>2024-08-09T10:52:48Z</time>
      </trkpt>
      <trkpt lat="45.07876" lon="6.12355">
        <ele>1762.4</ele>
        <time>2024-08-09T10:52:49Z</time>
      </trkpt>
      <trkpt lat="45.07876" lon="6.12355">
        <ele>1762.6</ele>
        <time>2024-08-09T10:52:50Z</time>
      </trkpt>
      <trkpt lat="45.07878" lon="6.12358">
        <ele>1762.6</ele>
        <time>2024-08-09T10:52:51Z</time>
      </trkpt>
      <trkpt lat="45.07878" lon="6.12358">
        <ele>1762.8</ele>
        <time>2024-08-09T10:52:52Z</time>
      </trkpt>
      <trkpt lat="45.07879" lon="6.12361">
        <ele>1763.2</ele>
        <time>2024-08-09T10:52:53Z</time>
      </trkpt>
      <trkpt lat="45.07879" lon="6.12361">
        <ele>1763.2</ele>
        <time>2024-08-09T10:52:54Z</time>
      </trkpt>
      <trkpt lat="45.0788" lon="6.12364">
        <ele>1763.2</ele>
        <time>2024-08-09T10:52:55Z</time>
      </trkpt>
      <trkpt lat="45.0788" lon="6.12364">
        <ele>1763.4</ele>
        <time>2024-08-09T10:52:56Z</time>
      </trkpt>
      <trkpt lat="45.07882" lon="6.12366">
        <ele>1763.4</ele>
        <time>2024-08-09T10:52:57Z</time>
      </trkpt>
      <trkpt lat="45.07882" lon="6.12366">
        <ele>1763.4</ele>
        <time>2024-08-09T10:52:58Z</time>
      </trkpt>
      <trkpt lat="45.07884" lon="6.12369">
        <ele>1763.6</ele>
        <time>2024-08-09T10:52:59Z</time>
      </trkpt>
      <trkpt lat="45.07884" lon="6.12369">
        <ele>1763.8</ele>
        <time>2024-08-09T10:53:00Z</time>
      </trkpt>
      <trkpt lat="45.07885" lon="6.12371">
        <ele>1763.8</ele>
        <time>2024-08-09T10:53:01Z</time>
      </trkpt>
      <trkpt lat="45.07885" lon="6.12371">
        <ele>1763.8</ele>
        <time>2024-08-09T10:53:02Z</time>
      </trkpt>
      <trkpt lat="45.07887" lon="6.12373">
        <ele>1764</ele>
        <time>2024-08-09T10:53:03Z</time>
      </trkpt>
      <trkpt lat="45.07887" lon="6.12373">
        <ele>1764.2</ele>
        <time>2024-08-09T10:53:04Z</time>
      </trkpt>
      <trkpt lat="45.07889" lon="6.12375">
        <ele>1764.4</ele>
        <time>2024-08-09T10:53:05Z</time>
      </trkpt>
      <trkpt lat="45.07889" lon="6.12375">
        <ele>1764.8</ele>
        <time>2024-08-09T10:53:06Z</time>
      </trkpt>
      <trkpt lat="45.07891" lon="6.12378">
        <ele>1764.8</ele>
        <time>2024-08-09T10:53:07Z</time>
      </trkpt>
      <trkpt lat="45.07891" lon="6.12378">
        <ele>1764.8</ele>
        <time>2024-08-09T10:53:08Z</time>
      </trkpt>
      <trkpt lat="45.07893" lon="6.12379">
        <ele>1764.8</ele>
        <time>2024-08-09T10:53:09Z</time>
      </trkpt>
      <trkpt lat="45.07893" lon="6.12379">
        <ele>1764.8</ele>
        <time>2024-08-09T10:53:10Z</time>
      </trkpt>
      <trkpt lat="45.07895" lon="6.12381">
        <ele>1765</ele>
        <time>2024-08-09T10:53:11Z</time>
      </trkpt>
      <trkpt lat="45.07895" lon="6.12381">
        <ele>1765</ele>
        <time>2024-08-09T10:53:12Z</time>
      </trkpt>
      <trkpt lat="45.07897" lon="6.12383">
        <ele>1765.4</ele>
        <time>2024-08-09T10:53:13Z</time>
      </trkpt>
      <trkpt lat="45.07897" lon="6.12383">
        <ele>1765.4</ele>
        <time>2024-08-09T10:53:14Z</time>
      </trkpt>
      <trkpt lat="45.07899" lon="6.12386">
        <ele>1765.4</ele>
        <time>2024-08-09T10:53:15Z</time>
      </trkpt>
      <trkpt lat="45.07899" lon="6.12386">
        <ele>1765.4</ele>
        <time>2024-08-09T10:53:16Z</time>
      </trkpt>
      <trkpt lat="45.079" lon="6.12388">
        <ele>1765.4</ele>
        <time>2024-08-09T10:53:17Z</time>
      </trkpt>
      <trkpt lat="45.079" lon="6.12388">
        <ele>1765.4</ele>
        <time>2024-08-09T10:53:18Z</time>
      </trkpt>
      <trkpt lat="45.07901" lon="6.1239">
        <ele>1765.4</ele>
        <time>2024-08-09T10:53:19Z</time>
      </trkpt>
      <trkpt lat="45.07901" lon="6.1239">
        <ele>1765.6</ele>
        <time>2024-08-09T10:53:20Z</time>
      </trkpt>
      <trkpt lat="45.07903" lon="6.12392">
        <ele>1766</ele>
        <time>2024-08-09T10:53:21Z</time>
      </trkpt>
      <trkpt lat="45.07903" lon="6.12392">
        <ele>1766.2</ele>
        <time>2024-08-09T10:53:22Z</time>
      </trkpt>
      <trkpt lat="45.07904" lon="6.12396">
        <ele>1766.2</ele>
        <time>2024-08-09T10:53:23Z</time>
      </trkpt>
      <trkpt lat="45.07904" lon="6.12396">
        <ele>1766.2</ele>
        <time>2024-08-09T10:53:24Z</time>
      </trkpt>
      <trkpt lat="45.07906" lon="6.12399">
        <ele>1766.2</ele>
        <time>2024-08-09T10:53:25Z</time>
      </trkpt>
      <trkpt lat="45.07906" lon="6.12399">
        <ele>1766.2</ele>
        <time>2024-08-09T10:53:26Z</time>
      </trkpt>
      <trkpt lat="45.07907" lon="6.12401">
        <ele>1766.2</ele>
        <time>2024-08-09T10:53:27Z</time>
      </trkpt>
      <trkpt lat="45.07907" lon="6.12401">
        <ele>1766.4</ele>
        <time>2024-08-09T10:53:28Z</time>
      </trkpt>
      <trkpt lat="45.07909" lon="6.12404">
        <ele>1766.6</ele>
        <time>2024-08-09T10:53:29Z</time>
      </trkpt>
      <trkpt lat="45.07909" lon="6.12404">
        <ele>1766.6</ele>
        <time>2024-08-09T10:53:30Z</time>
      </trkpt>
      <trkpt lat="45.07909" lon="6.12408">
        <ele>1766.8</ele>
        <time>2024-08-09T10:53:31Z</time>
      </trkpt>
      <trkpt lat="45.07909" lon="6.12408">
        <ele>1766.8</ele>
        <time>2024-08-09T10:53:32Z</time>
      </trkpt>
      <trkpt lat="45.0791" lon="6.12411">
        <ele>1766.8</ele>
        <time>2024-08-09T10:53:33Z</time>
      </trkpt>
      <trkpt lat="45.0791" lon="6.12411">
        <ele>1767</ele>
        <time>2024-08-09T10:53:34Z</time>
      </trkpt>
      <trkpt lat="45.07911" lon="6.12414">
        <ele>1767</ele>
        <time>2024-08-09T10:53:35Z</time>
      </trkpt>
      <trkpt lat="45.07911" lon="6.12414">
        <ele>1767.2</ele>
        <time>2024-08-09T10:53:36Z</time>
      </trkpt>
      <trkpt lat="45.07912" lon="6.12417">
        <ele>1767.4</ele>
        <time>2024-08-09T10:53:37Z</time>
      </trkpt>
      <trkpt lat="45.07912" lon="6.12417">
        <ele>1767.4</ele>
        <time>2024-08-09T10:53:38Z</time>
      </trkpt>
      <trkpt lat="45.07913" lon="6.1242">
        <ele>1767.4</ele>
        <time>2024-08-09T10:53:39Z</time>
      </trkpt>
      <trkpt lat="45.07913" lon="6.1242">
        <ele>1767.6</ele>
        <time>2024-08-09T10:53:40Z</time>
      </trkpt>
      <trkpt lat="45.07914" lon="6.12423">
        <ele>1767.8</ele>
        <time>2024-08-09T10:53:41Z</time>
      </trkpt>
      <trkpt lat="45.07914" lon="6.12423">
        <ele>1767.8</ele>
        <time>2024-08-09T10:53:42Z</time>
      </trkpt>
      <trkpt lat="45.07914" lon="6.12423">
        <ele>1767.8</ele>
        <time>2024-08-09T10:53:43Z</time>
      </trkpt>
      <trkpt lat="45.07914" lon="6.12427">
        <ele>1767.8</ele>
        <time>2024-08-09T10:53:44Z</time>
      </trkpt>
      <trkpt lat="45.07914" lon="6.12427">
        <ele>1768</ele>
        <time>2024-08-09T10:53:45Z</time>
      </trkpt>
      <trkpt lat="45.07915" lon="6.1243">
        <ele>1768.2</ele>
        <time>2024-08-09T10:53:46Z</time>
      </trkpt>
      <trkpt lat="45.07915" lon="6.1243">
        <ele>1768.2</ele>
        <time>2024-08-09T10:53:47Z</time>
      </trkpt>
      <trkpt lat="45.07915" lon="6.12433">
        <ele>1768.2</ele>
        <time>2024-08-09T10:53:48Z</time>
      </trkpt>
      <trkpt lat="45.07915" lon="6.12433">
        <ele>1768.6</ele>
        <time>2024-08-09T10:53:49Z</time>
      </trkpt>
      <trkpt lat="45.07915" lon="6.12437">
        <ele>1769</ele>
        <time>2024-08-09T10:53:50Z</time>
      </trkpt>
      <trkpt lat="45.07915" lon="6.12437">
        <ele>1769</ele>
        <time>2024-08-09T10:53:51Z</time>
      </trkpt>
      <trkpt lat="45.07915" lon="6.1244">
        <ele>1769</ele>
        <time>2024-08-09T10:53:52Z</time>
      </trkpt>
      <trkpt lat="45.07915" lon="6.1244">
        <ele>1769</ele>
        <time>2024-08-09T10:53:53Z</time>
      </trkpt>
      <trkpt lat="45.07916" lon="6.12443">
        <ele>1769</ele>
        <time>2024-08-09T10:53:54Z</time>
      </trkpt>
      <trkpt lat="45.07916" lon="6.12443">
        <ele>1769</ele>
        <time>2024-08-09T10:53:55Z</time>
      </trkpt>
      <trkpt lat="45.07916" lon="6.12446">
        <ele>1769.2</ele>
        <time>2024-08-09T10:53:56Z</time>
      </trkpt>
      <trkpt lat="45.07916" lon="6.12446">
        <ele>1769</ele>
        <time>2024-08-09T10:53:57Z</time>
      </trkpt>
      <trkpt lat="45.07917" lon="6.1245">
        <ele>1769.2</ele>
        <time>2024-08-09T10:53:58Z</time>
      </trkpt>
      <trkpt lat="45.07917" lon="6.1245">
        <ele>1769.2</ele>
        <time>2024-08-09T10:53:59Z</time>
      </trkpt>
      <trkpt lat="45.07917" lon="6.12453">
        <ele>1769.4</ele>
        <time>2024-08-09T10:54:00Z</time>
      </trkpt>
      <trkpt lat="45.07917" lon="6.12453">
        <ele>1769.6</ele>
        <time>2024-08-09T10:54:01Z</time>
      </trkpt>
      <trkpt lat="45.07918" lon="6.12456">
        <ele>1769.8</ele>
        <time>2024-08-09T10:54:02Z</time>
      </trkpt>
      <trkpt lat="45.07918" lon="6.12456">
        <ele>1769.8</ele>
        <time>2024-08-09T10:54:03Z</time>
      </trkpt>
      <trkpt lat="45.07919" lon="6.1246">
        <ele>1770</ele>
        <time>2024-08-09T10:54:04Z</time>
      </trkpt>
      <trkpt lat="45.07919" lon="6.1246">
        <ele>1770</ele>
        <time>2024-08-09T10:54:05Z</time>
      </trkpt>
      <trkpt lat="45.0792" lon="6.12463">
        <ele>1770</ele>
        <time>2024-08-09T10:54:06Z</time>
      </trkpt>
      <trkpt lat="45.0792" lon="6.12463">
        <ele>1770</ele>
        <time>2024-08-09T10:54:07Z</time>
      </trkpt>
      <trkpt lat="45.07921" lon="6.12466">
        <ele>1770.2</ele>
        <time>2024-08-09T10:54:08Z</time>
      </trkpt>
      <trkpt lat="45.07921" lon="6.12466">
        <ele>1770.2</ele>
        <time>2024-08-09T10:54:09Z</time>
      </trkpt>
      <trkpt lat="45.07921" lon="6.12469">
        <ele>1770.4</ele>
        <time>2024-08-09T10:54:10Z</time>
      </trkpt>
      <trkpt lat="45.07921" lon="6.12469">
        <ele>1770.6</ele>
        <time>2024-08-09T10:54:11Z</time>
      </trkpt>
      <trkpt lat="45.07922" lon="6.12473">
        <ele>1770.6</ele>
        <time>2024-08-09T10:54:12Z</time>
      </trkpt>
      <trkpt lat="45.07922" lon="6.12473">
        <ele>1770.6</ele>
        <time>2024-08-09T10:54:13Z</time>
      </trkpt>
      <trkpt lat="45.07922" lon="6.12476">
        <ele>1770.6</ele>
        <time>2024-08-09T10:54:14Z</time>
      </trkpt>
      <trkpt lat="45.07922" lon="6.12476">
        <ele>1771</ele>
        <time>2024-08-09T10:54:15Z</time>
      </trkpt>
      <trkpt lat="45.07923" lon="6.12478">
        <ele>1771</ele>
        <time>2024-08-09T10:54:16Z</time>
      </trkpt>
      <trkpt lat="45.07923" lon="6.12478">
        <ele>1771</ele>
        <time>2024-08-09T10:54:17Z</time>
      </trkpt>
      <trkpt lat="45.07924" lon="6.12481">
        <ele>1771</ele>
        <time>2024-08-09T10:54:18Z</time>
      </trkpt>
      <trkpt lat="45.07924" lon="6.12481">
        <ele>1771</ele>
        <time>2024-08-09T10:54:19Z</time>
      </trkpt>
      <trkpt lat="45.07924" lon="6.12481">
        <ele>1771</ele>
        <time>2024-08-09T10:54:20Z</time>
      </trkpt>
      <trkpt lat="45.07925" lon="6.12485">
        <ele>1771.4</ele>
        <time>2024-08-09T10:54:21Z</time>
      </trkpt>
      <trkpt lat="45.07925" lon="6.12485">
        <ele>1771.4</ele>
        <time>2024-08-09T10:54:22Z</time>
      </trkpt>
      <trkpt lat="45.07927" lon="6.12487">
        <ele>1771.6</ele>
        <time>2024-08-09T10:54:23Z</time>
      </trkpt>
      <trkpt lat="45.07927" lon="6.12487">
        <ele>1771.8</ele>
        <time>2024-08-09T10:54:24Z</time>
      </trkpt>
      <trkpt lat="45.07928" lon="6.12489">
        <ele>1771.8</ele>
        <time>2024-08-09T10:54:25Z</time>
      </trkpt>
      <trkpt lat="45.07928" lon="6.12489">
        <ele>1771.8</ele>
        <time>2024-08-09T10:54:26Z</time>
      </trkpt>
      <trkpt lat="45.07929" lon="6.12491">
        <ele>1772</ele>
        <time>2024-08-09T10:54:27Z</time>
      </trkpt>
      <trkpt lat="45.07929" lon="6.12491">
        <ele>1772</ele>
        <time>2024-08-09T10:54:28Z</time>
      </trkpt>
      <trkpt lat="45.0793" lon="6.12495">
        <ele>1772.2</ele>
        <time>2024-08-09T10:54:29Z</time>
      </trkpt>
      <trkpt lat="45.0793" lon="6.12495">
        <ele>1772.2</ele>
        <time>2024-08-09T10:54:30Z</time>
      </trkpt>
      <trkpt lat="45.0793" lon="6.12498">
        <ele>1772.4</ele>
        <time>2024-08-09T10:54:31Z</time>
      </trkpt>
      <trkpt lat="45.0793" lon="6.12498">
        <ele>1772.6</ele>
        <time>2024-08-09T10:54:32Z</time>
      </trkpt>
      <trkpt lat="45.07932" lon="6.12501">
        <ele>1772.6</ele>
        <time>2024-08-09T10:54:33Z</time>
      </trkpt>
      <trkpt lat="45.07932" lon="6.12501">
        <ele>1772.6</ele>
        <time>2024-08-09T10:54:34Z</time>
      </trkpt>
      <trkpt lat="45.07933" lon="6.12504">
        <ele>1772.6</ele>
        <time>2024-08-09T10:54:35Z</time>
      </trkpt>
      <trkpt lat="45.07933" lon="6.12504">
        <ele>1772.6</ele>
        <time>2024-08-09T10:54:36Z</time>
      </trkpt>
      <trkpt lat="45.07934" lon="6.12506">
        <ele>1773.2</ele>
        <time>2024-08-09T10:54:37Z</time>
      </trkpt>
      <trkpt lat="45.07934" lon="6.12506">
        <ele>1773.4</ele>
        <time>2024-08-09T10:54:38Z</time>
      </trkpt>
      <trkpt lat="45.07936" lon="6.12509">
        <ele>1773.4</ele>
        <time>2024-08-09T10:54:39Z</time>
      </trkpt>
      <trkpt lat="45.07936" lon="6.12509">
        <ele>1773.6</ele>
        <time>2024-08-09T10:54:40Z</time>
      </trkpt>
      <trkpt lat="45.07937" lon="6.12511">
        <ele>1773.6</ele>
        <time>2024-08-09T10:54:41Z</time>
      </trkpt>
      <trkpt lat="45.07937" lon="6.12511">
        <ele>1774</ele>
        <time>2024-08-09T10:54:42Z</time>
      </trkpt>
      <trkpt lat="45.07939" lon="6.12514">
        <ele>1774.2</ele>
        <time>2024-08-09T10:54:43Z</time>
      </trkpt>
      <trkpt lat="45.07939" lon="6.12514">
        <ele>1774.2</ele>
        <time>2024-08-09T10:54:44Z</time>
      </trkpt>
      <trkpt lat="45.07941" lon="6.12517">
        <ele>1774.4</ele>
        <time>2024-08-09T10:54:45Z</time>
      </trkpt>
      <trkpt lat="45.07941" lon="6.12517">
        <ele>1774.4</ele>
        <time>2024-08-09T10:54:46Z</time>
      </trkpt>
      <trkpt lat="45.07942" lon="6.1252">
        <ele>1774.6</ele>
        <time>2024-08-09T10:54:47Z</time>
      </trkpt>
      <trkpt lat="45.07942" lon="6.1252">
        <ele>1774.8</ele>
        <time>2024-08-09T10:54:48Z</time>
      </trkpt>
      <trkpt lat="45.07943" lon="6.12523">
        <ele>1775</ele>
        <time>2024-08-09T10:54:49Z</time>
      </trkpt>
      <trkpt lat="45.07943" lon="6.12523">
        <ele>1775</ele>
        <time>2024-08-09T10:54:50Z</time>
      </trkpt>
      <trkpt lat="45.07945" lon="6.12526">
        <ele>1775.2</ele>
        <time>2024-08-09T10:54:51Z</time>
      </trkpt>
      <trkpt lat="45.07945" lon="6.12526">
        <ele>1775.4</ele>
        <time>2024-08-09T10:54:52Z</time>
      </trkpt>
      <trkpt lat="45.07946" lon="6.12529">
        <ele>1775.6</ele>
        <time>2024-08-09T10:54:53Z</time>
      </trkpt>
      <trkpt lat="45.07946" lon="6.12529">
        <ele>1776</ele>
        <time>2024-08-09T10:54:54Z</time>
      </trkpt>
      <trkpt lat="45.07947" lon="6.12533">
        <ele>1776</ele>
        <time>2024-08-09T10:54:55Z</time>
      </trkpt>
      <trkpt lat="45.07947" lon="6.12533">
        <ele>1776</ele>
        <time>2024-08-09T10:54:56Z</time>
      </trkpt>
      <trkpt lat="45.07948" lon="6.12536">
        <ele>1776</ele>
        <time>2024-08-09T10:54:57Z</time>
      </trkpt>
      <trkpt lat="45.07948" lon="6.12536">
        <ele>1776.2</ele>
        <time>2024-08-09T10:54:58Z</time>
      </trkpt>
      <trkpt lat="45.07949" lon="6.12539">
        <ele>1776.2</ele>
        <time>2024-08-09T10:54:59Z</time>
      </trkpt>
      <trkpt lat="45.07949" lon="6.12539">
        <ele>1776.2</ele>
        <time>2024-08-09T10:55:00Z</time>
      </trkpt>
      <trkpt lat="45.07951" lon="6.12541">
        <ele>1776.6</ele>
        <time>2024-08-09T10:55:01Z</time>
      </trkpt>
      <trkpt lat="45.07951" lon="6.12541">
        <ele>1776.4</ele>
        <time>2024-08-09T10:55:02Z</time>
      </trkpt>
      <trkpt lat="45.07952" lon="6.12544">
        <ele>1776.6</ele>
        <time>2024-08-09T10:55:03Z</time>
      </trkpt>
      <trkpt lat="45.07952" lon="6.12544">
        <ele>1776.8</ele>
        <time>2024-08-09T10:55:04Z</time>
      </trkpt>
      <trkpt lat="45.07954" lon="6.12546">
        <ele>1777</ele>
        <time>2024-08-09T10:55:05Z</time>
      </trkpt>
      <trkpt lat="45.07954" lon="6.12546">
        <ele>1777.4</ele>
        <time>2024-08-09T10:55:06Z</time>
      </trkpt>
      <trkpt lat="45.07956" lon="6.12549">
        <ele>1777.6</ele>
        <time>2024-08-09T10:55:07Z</time>
      </trkpt>
      <trkpt lat="45.07956" lon="6.12549">
        <ele>1777.8</ele>
        <time>2024-08-09T10:55:08Z</time>
      </trkpt>
      <trkpt lat="45.07957" lon="6.12551">
        <ele>1778</ele>
        <time>2024-08-09T10:55:09Z</time>
      </trkpt>
      <trkpt lat="45.07957" lon="6.12551">
        <ele>1778.4</ele>
        <time>2024-08-09T10:55:10Z</time>
      </trkpt>
      <trkpt lat="45.07959" lon="6.12554">
        <ele>1778.6</ele>
        <time>2024-08-09T10:55:11Z</time>
      </trkpt>
      <trkpt lat="45.07959" lon="6.12554">
        <ele>1778.6</ele>
        <time>2024-08-09T10:55:12Z</time>
      </trkpt>
      <trkpt lat="45.0796" lon="6.12557">
        <ele>1778.6</ele>
        <time>2024-08-09T10:55:13Z</time>
      </trkpt>
      <trkpt lat="45.0796" lon="6.12557">
        <ele>1778.6</ele>
        <time>2024-08-09T10:55:14Z</time>
      </trkpt>
      <trkpt lat="45.07961" lon="6.12559">
        <ele>1778.6</ele>
        <time>2024-08-09T10:55:15Z</time>
      </trkpt>
      <trkpt lat="45.07961" lon="6.12559">
        <ele>1778.8</ele>
        <time>2024-08-09T10:55:16Z</time>
      </trkpt>
      <trkpt lat="45.07963" lon="6.12561">
        <ele>1779</ele>
        <time>2024-08-09T10:55:17Z</time>
      </trkpt>
      <trkpt lat="45.07963" lon="6.12561">
        <ele>1779.2</ele>
        <time>2024-08-09T10:55:18Z</time>
      </trkpt>
      <trkpt lat="45.07965" lon="6.12562">
        <ele>1779.2</ele>
        <time>2024-08-09T10:55:19Z</time>
      </trkpt>
      <trkpt lat="45.07965" lon="6.12562">
        <ele>1779.4</ele>
        <time>2024-08-09T10:55:20Z</time>
      </trkpt>
      <trkpt lat="45.07967" lon="6.12563">
        <ele>1779.4</ele>
        <time>2024-08-09T10:55:21Z</time>
      </trkpt>
      <trkpt lat="45.07967" lon="6.12563">
        <ele>1779.8</ele>
        <time>2024-08-09T10:55:22Z</time>
      </trkpt>
      <trkpt lat="45.07969" lon="6.12564">
        <ele>1779.8</ele>
        <time>2024-08-09T10:55:23Z</time>
      </trkpt>
      <trkpt lat="45.07969" lon="6.12564">
        <ele>1780</ele>
        <time>2024-08-09T10:55:24Z</time>
      </trkpt>
      <trkpt lat="45.07971" lon="6.12566">
        <ele>1780</ele>
        <time>2024-08-09T10:55:25Z</time>
      </trkpt>
      <trkpt lat="45.07971" lon="6.12566">
        <ele>1780.2</ele>
        <time>2024-08-09T10:55:26Z</time>
      </trkpt>
      <trkpt lat="45.07973" lon="6.12569">
        <ele>1780.2</ele>
        <time>2024-08-09T10:55:27Z</time>
      </trkpt>
      <trkpt lat="45.07973" lon="6.12569">
        <ele>1780.4</ele>
        <time>2024-08-09T10:55:28Z</time>
      </trkpt>
      <trkpt lat="45.07974" lon="6.12572">
        <ele>1780.6</ele>
        <time>2024-08-09T10:55:29Z</time>
      </trkpt>
      <trkpt lat="45.07974" lon="6.12572">
        <ele>1780.8</ele>
        <time>2024-08-09T10:55:30Z</time>
      </trkpt>
      <trkpt lat="45.07975" lon="6.12575">
        <ele>1780.8</ele>
        <time>2024-08-09T10:55:31Z</time>
      </trkpt>
      <trkpt lat="45.07975" lon="6.12575">
        <ele>1780.8</ele>
        <time>2024-08-09T10:55:32Z</time>
      </trkpt>
      <trkpt lat="45.07977" lon="6.12578">
        <ele>1781</ele>
        <time>2024-08-09T10:55:33Z</time>
      </trkpt>
      <trkpt lat="45.07977" lon="6.12578">
        <ele>1781.2</ele>
        <time>2024-08-09T10:55:34Z</time>
      </trkpt>
      <trkpt lat="45.07978" lon="6.12581">
        <ele>1781.2</ele>
        <time>2024-08-09T10:55:35Z</time>
      </trkpt>
      <trkpt lat="45.07978" lon="6.12581">
        <ele>1781.2</ele>
        <time>2024-08-09T10:55:36Z</time>
      </trkpt>
      <trkpt lat="45.0798" lon="6.12583">
        <ele>1781.2</ele>
        <time>2024-08-09T10:55:37Z</time>
      </trkpt>
      <trkpt lat="45.0798" lon="6.12583">
        <ele>1781.4</ele>
        <time>2024-08-09T10:55:38Z</time>
      </trkpt>
      <trkpt lat="45.07982" lon="6.12586">
        <ele>1781.4</ele>
        <time>2024-08-09T10:55:39Z</time>
      </trkpt>
      <trkpt lat="45.07982" lon="6.12586">
        <ele>1781.2</ele>
        <time>2024-08-09T10:55:40Z</time>
      </trkpt>
      <trkpt lat="45.07984" lon="6.12588">
        <ele>1781.4</ele>
        <time>2024-08-09T10:55:41Z</time>
      </trkpt>
      <trkpt lat="45.07984" lon="6.12588">
        <ele>1781.6</ele>
        <time>2024-08-09T10:55:42Z</time>
      </trkpt>
      <trkpt lat="45.07985" lon="6.1259">
        <ele>1782</ele>
        <time>2024-08-09T10:55:43Z</time>
      </trkpt>
      <trkpt lat="45.07985" lon="6.1259">
        <ele>1782</ele>
        <time>2024-08-09T10:55:44Z</time>
      </trkpt>
      <trkpt lat="45.07987" lon="6.12593">
        <ele>1782</ele>
        <time>2024-08-09T10:55:45Z</time>
      </trkpt>
      <trkpt lat="45.07987" lon="6.12593">
        <ele>1782.2</ele>
        <time>2024-08-09T10:55:46Z</time>
      </trkpt>
      <trkpt lat="45.07988" lon="6.12596">
        <ele>1782.4</ele>
        <time>2024-08-09T10:55:47Z</time>
      </trkpt>
      <trkpt lat="45.07988" lon="6.12596">
        <ele>1782.6</ele>
        <time>2024-08-09T10:55:48Z</time>
      </trkpt>
      <trkpt lat="45.07989" lon="6.12599">
        <ele>1782.6</ele>
        <time>2024-08-09T10:55:49Z</time>
      </trkpt>
      <trkpt lat="45.07989" lon="6.12599">
        <ele>1782.8</ele>
        <time>2024-08-09T10:55:50Z</time>
      </trkpt>
      <trkpt lat="45.07991" lon="6.12601">
        <ele>1782.8</ele>
        <time>2024-08-09T10:55:51Z</time>
      </trkpt>
      <trkpt lat="45.07991" lon="6.12601">
        <ele>1783.2</ele>
        <time>2024-08-09T10:55:52Z</time>
      </trkpt>
      <trkpt lat="45.07993" lon="6.12603">
        <ele>1783.2</ele>
        <time>2024-08-09T10:55:53Z</time>
      </trkpt>
      <trkpt lat="45.07993" lon="6.12603">
        <ele>1783.4</ele>
        <time>2024-08-09T10:55:54Z</time>
      </trkpt>
      <trkpt lat="45.07993" lon="6.12603">
        <ele>1783.4</ele>
        <time>2024-08-09T10:55:55Z</time>
      </trkpt>
      <trkpt lat="45.07995" lon="6.12607">
        <ele>1783.6</ele>
        <time>2024-08-09T10:55:56Z</time>
      </trkpt>
      <trkpt lat="45.07995" lon="6.12607">
        <ele>1784</ele>
        <time>2024-08-09T10:55:57Z</time>
      </trkpt>
      <trkpt lat="45.07997" lon="6.12609">
        <ele>1784</ele>
        <time>2024-08-09T10:55:58Z</time>
      </trkpt>
      <trkpt lat="45.07997" lon="6.12609">
        <ele>1784</ele>
        <time>2024-08-09T10:55:59Z</time>
      </trkpt>
      <trkpt lat="45.07997" lon="6.12612">
        <ele>1784.2</ele>
        <time>2024-08-09T10:56:00Z</time>
      </trkpt>
      <trkpt lat="45.07997" lon="6.12612">
        <ele>1784.2</ele>
        <time>2024-08-09T10:56:01Z</time>
      </trkpt>
      <trkpt lat="45.07999" lon="6.12615">
        <ele>1784.2</ele>
        <time>2024-08-09T10:56:02Z</time>
      </trkpt>
      <trkpt lat="45.07999" lon="6.12615">
        <ele>1784.2</ele>
        <time>2024-08-09T10:56:03Z</time>
      </trkpt>
      <trkpt lat="45.08" lon="6.12618">
        <ele>1784.4</ele>
        <time>2024-08-09T10:56:04Z</time>
      </trkpt>
      <trkpt lat="45.08" lon="6.12618">
        <ele>1784.6</ele>
        <time>2024-08-09T10:56:05Z</time>
      </trkpt>
      <trkpt lat="45.08001" lon="6.12621">
        <ele>1784.8</ele>
        <time>2024-08-09T10:56:06Z</time>
      </trkpt>
      <trkpt lat="45.08001" lon="6.12621">
        <ele>1784.8</ele>
        <time>2024-08-09T10:56:07Z</time>
      </trkpt>
      <trkpt lat="45.08003" lon="6.12624">
        <ele>1785</ele>
        <time>2024-08-09T10:56:08Z</time>
      </trkpt>
      <trkpt lat="45.08003" lon="6.12624">
        <ele>1785</ele>
        <time>2024-08-09T10:56:09Z</time>
      </trkpt>
      <trkpt lat="45.08003" lon="6.12627">
        <ele>1785</ele>
        <time>2024-08-09T10:56:10Z</time>
      </trkpt>
      <trkpt lat="45.08003" lon="6.12627">
        <ele>1785</ele>
        <time>2024-08-09T10:56:11Z</time>
      </trkpt>
      <trkpt lat="45.08005" lon="6.1263">
        <ele>1785.2</ele>
        <time>2024-08-09T10:56:12Z</time>
      </trkpt>
      <trkpt lat="45.08005" lon="6.1263">
        <ele>1785.4</ele>
        <time>2024-08-09T10:56:13Z</time>
      </trkpt>
      <trkpt lat="45.08005" lon="6.12633">
        <ele>1785.4</ele>
        <time>2024-08-09T10:56:14Z</time>
      </trkpt>
      <trkpt lat="45.08005" lon="6.12633">
        <ele>1785.6</ele>
        <time>2024-08-09T10:56:15Z</time>
      </trkpt>
      <trkpt lat="45.08007" lon="6.12636">
        <ele>1785.6</ele>
        <time>2024-08-09T10:56:16Z</time>
      </trkpt>
      <trkpt lat="45.08007" lon="6.12636">
        <ele>1785.6</ele>
        <time>2024-08-09T10:56:17Z</time>
      </trkpt>
      <trkpt lat="45.08008" lon="6.12638">
        <ele>1785.6</ele>
        <time>2024-08-09T10:56:18Z</time>
      </trkpt>
      <trkpt lat="45.08008" lon="6.12638">
        <ele>1785.8</ele>
        <time>2024-08-09T10:56:19Z</time>
      </trkpt>
      <trkpt lat="45.08009" lon="6.12641">
        <ele>1786</ele>
        <time>2024-08-09T10:56:20Z</time>
      </trkpt>
      <trkpt lat="45.08009" lon="6.12641">
        <ele>1786</ele>
        <time>2024-08-09T10:56:21Z</time>
      </trkpt>
      <trkpt lat="45.08011" lon="6.12644">
        <ele>1786.2</ele>
        <time>2024-08-09T10:56:22Z</time>
      </trkpt>
      <trkpt lat="45.08011" lon="6.12644">
        <ele>1786.2</ele>
        <time>2024-08-09T10:56:23Z</time>
      </trkpt>
      <trkpt lat="45.08012" lon="6.12647">
        <ele>1786.4</ele>
        <time>2024-08-09T10:56:24Z</time>
      </trkpt>
      <trkpt lat="45.08012" lon="6.12647">
        <ele>1786.6</ele>
        <time>2024-08-09T10:56:25Z</time>
      </trkpt>
      <trkpt lat="45.08013" lon="6.1265">
        <ele>1786.8</ele>
        <time>2024-08-09T10:56:26Z</time>
      </trkpt>
      <trkpt lat="45.08013" lon="6.1265">
        <ele>1786.8</ele>
        <time>2024-08-09T10:56:27Z</time>
      </trkpt>
      <trkpt lat="45.08014" lon="6.12652">
        <ele>1786.8</ele>
        <time>2024-08-09T10:56:28Z</time>
      </trkpt>
      <trkpt lat="45.08014" lon="6.12652">
        <ele>1786.8</ele>
        <time>2024-08-09T10:56:29Z</time>
      </trkpt>
      <trkpt lat="45.08015" lon="6.12655">
        <ele>1786.8</ele>
        <time>2024-08-09T10:56:30Z</time>
      </trkpt>
      <trkpt lat="45.08015" lon="6.12655">
        <ele>1786.8</ele>
        <time>2024-08-09T10:56:31Z</time>
      </trkpt>
      <trkpt lat="45.08017" lon="6.12658">
        <ele>1787.2</ele>
        <time>2024-08-09T10:56:32Z</time>
      </trkpt>
      <trkpt lat="45.08017" lon="6.12658">
        <ele>1787.4</ele>
        <time>2024-08-09T10:56:33Z</time>
      </trkpt>
      <trkpt lat="45.08018" lon="6.1266">
        <ele>1787.4</ele>
        <time>2024-08-09T10:56:34Z</time>
      </trkpt>
      <trkpt lat="45.08018" lon="6.1266">
        <ele>1787.4</ele>
        <time>2024-08-09T10:56:35Z</time>
      </trkpt>
      <trkpt lat="45.0802" lon="6.12662">
        <ele>1787.4</ele>
        <time>2024-08-09T10:56:36Z</time>
      </trkpt>
      <trkpt lat="45.0802" lon="6.12662">
        <ele>1787.6</ele>
        <time>2024-08-09T10:56:37Z</time>
      </trkpt>
      <trkpt lat="45.08021" lon="6.12664">
        <ele>1787.8</ele>
        <time>2024-08-09T10:56:38Z</time>
      </trkpt>
      <trkpt lat="45.08021" lon="6.12664">
        <ele>1788</ele>
        <time>2024-08-09T10:56:39Z</time>
      </trkpt>
      <trkpt lat="45.08023" lon="6.12667">
        <ele>1788.2</ele>
        <time>2024-08-09T10:56:40Z</time>
      </trkpt>
      <trkpt lat="45.08023" lon="6.12667">
        <ele>1788.4</ele>
        <time>2024-08-09T10:56:41Z</time>
      </trkpt>
      <trkpt lat="45.08024" lon="6.12669">
        <ele>1788.4</ele>
        <time>2024-08-09T10:56:42Z</time>
      </trkpt>
      <trkpt lat="45.08024" lon="6.12669">
        <ele>1788.4</ele>
        <time>2024-08-09T10:56:43Z</time>
      </trkpt>
      <trkpt lat="45.08026" lon="6.12672">
        <ele>1788.4</ele>
        <time>2024-08-09T10:56:44Z</time>
      </trkpt>
      <trkpt lat="45.08026" lon="6.12672">
        <ele>1788.6</ele>
        <time>2024-08-09T10:56:45Z</time>
      </trkpt>
      <trkpt lat="45.08027" lon="6.12675">
        <ele>1788.6</ele>
        <time>2024-08-09T10:56:46Z</time>
      </trkpt>
      <trkpt lat="45.08027" lon="6.12675">
        <ele>1789</ele>
        <time>2024-08-09T10:56:47Z</time>
      </trkpt>
      <trkpt lat="45.08029" lon="6.12677">
        <ele>1789.2</ele>
        <time>2024-08-09T10:56:48Z</time>
      </trkpt>
      <trkpt lat="45.08029" lon="6.12677">
        <ele>1789.2</ele>
        <time>2024-08-09T10:56:49Z</time>
      </trkpt>
      <trkpt lat="45.0803" lon="6.1268">
        <ele>1789.2</ele>
        <time>2024-08-09T10:56:50Z</time>
      </trkpt>
      <trkpt lat="45.0803" lon="6.1268">
        <ele>1789.6</ele>
        <time>2024-08-09T10:56:51Z</time>
      </trkpt>
      <trkpt lat="45.08032" lon="6.12682">
        <ele>1789.6</ele>
        <time>2024-08-09T10:56:52Z</time>
      </trkpt>
      <trkpt lat="45.08032" lon="6.12682">
        <ele>1789.6</ele>
        <time>2024-08-09T10:56:53Z</time>
      </trkpt>
      <trkpt lat="45.08034" lon="6.12685">
        <ele>1789.6</ele>
        <time>2024-08-09T10:56:54Z</time>
      </trkpt>
      <trkpt lat="45.08034" lon="6.12685">
        <ele>1789.6</ele>
        <time>2024-08-09T10:56:55Z</time>
      </trkpt>
      <trkpt lat="45.08036" lon="6.12686">
        <ele>1789.6</ele>
        <time>2024-08-09T10:56:56Z</time>
      </trkpt>
      <trkpt lat="45.08036" lon="6.12686">
        <ele>1789.8</ele>
        <time>2024-08-09T10:56:57Z</time>
      </trkpt>
      <trkpt lat="45.08036" lon="6.12686">
        <ele>1790</ele>
        <time>2024-08-09T10:56:58Z</time>
      </trkpt>
      <trkpt lat="45.08038" lon="6.12688">
        <ele>1790</ele>
        <time>2024-08-09T10:56:59Z</time>
      </trkpt>
      <trkpt lat="45.08038" lon="6.12688">
        <ele>1790.4</ele>
        <time>2024-08-09T10:57:00Z</time>
      </trkpt>
      <trkpt lat="45.0804" lon="6.1269">
        <ele>1790.8</ele>
        <time>2024-08-09T10:57:01Z</time>
      </trkpt>
      <trkpt lat="45.0804" lon="6.1269">
        <ele>1790.8</ele>
        <time>2024-08-09T10:57:02Z</time>
      </trkpt>
      <trkpt lat="45.08043" lon="6.12692">
        <ele>1790.8</ele>
        <time>2024-08-09T10:57:03Z</time>
      </trkpt>
      <trkpt lat="45.08043" lon="6.12692">
        <ele>1791</ele>
        <time>2024-08-09T10:57:04Z</time>
      </trkpt>
      <trkpt lat="45.08045" lon="6.12694">
        <ele>1791</ele>
        <time>2024-08-09T10:57:05Z</time>
      </trkpt>
      <trkpt lat="45.08045" lon="6.12694">
        <ele>1790.8</ele>
        <time>2024-08-09T10:57:06Z</time>
      </trkpt>
      <trkpt lat="45.08046" lon="6.12696">
        <ele>1790.8</ele>
        <time>2024-08-09T10:57:07Z</time>
      </trkpt>
      <trkpt lat="45.08046" lon="6.12696">
        <ele>1791.4</ele>
        <time>2024-08-09T10:57:08Z</time>
      </trkpt>
      <trkpt lat="45.08048" lon="6.12698">
        <ele>1791.4</ele>
        <time>2024-08-09T10:57:09Z</time>
      </trkpt>
      <trkpt lat="45.08048" lon="6.12698">
        <ele>1791.4</ele>
        <time>2024-08-09T10:57:10Z</time>
      </trkpt>
      <trkpt lat="45.0805" lon="6.127">
        <ele>1791.8</ele>
        <time>2024-08-09T10:57:11Z</time>
      </trkpt>
      <trkpt lat="45.0805" lon="6.127">
        <ele>1791.8</ele>
        <time>2024-08-09T10:57:12Z</time>
      </trkpt>
      <trkpt lat="45.08052" lon="6.12702">
        <ele>1791.8</ele>
        <time>2024-08-09T10:57:13Z</time>
      </trkpt>
      <trkpt lat="45.08052" lon="6.12702">
        <ele>1791.8</ele>
        <time>2024-08-09T10:57:14Z</time>
      </trkpt>
      <trkpt lat="45.08053" lon="6.12704">
        <ele>1792</ele>
        <time>2024-08-09T10:57:15Z</time>
      </trkpt>
      <trkpt lat="45.08053" lon="6.12704">
        <ele>1792.2</ele>
        <time>2024-08-09T10:57:16Z</time>
      </trkpt>
      <trkpt lat="45.08054" lon="6.12707">
        <ele>1792.2</ele>
        <time>2024-08-09T10:57:17Z</time>
      </trkpt>
      <trkpt lat="45.08054" lon="6.12707">
        <ele>1792.2</ele>
        <time>2024-08-09T10:57:18Z</time>
      </trkpt>
      <trkpt lat="45.08054" lon="6.12707">
        <ele>1792.4</ele>
        <time>2024-08-09T10:57:19Z</time>
      </trkpt>
      <trkpt lat="45.08054" lon="6.12707">
        <ele>1792.6</ele>
        <time>2024-08-09T10:57:20Z</time>
      </trkpt>
      <trkpt lat="45.08054" lon="6.12707">
        <ele>1792.6</ele>
        <time>2024-08-09T10:57:21Z</time>
      </trkpt>
      <trkpt lat="45.08054" lon="6.12707">
        <ele>1792.8</ele>
        <time>2024-08-09T10:57:22Z</time>
      </trkpt>
      <trkpt lat="45.08054" lon="6.12707">
        <ele>1792.8</ele>
        <time>2024-08-09T10:57:23Z</time>
      </trkpt>
      <trkpt lat="45.08054" lon="6.12707">
        <ele>1792.8</ele>
        <time>2024-08-09T10:57:24Z</time>
      </trkpt>
      <trkpt lat="45.08054" lon="6.12707">
        <ele>1792.8</ele>
        <time>2024-08-09T10:57:25Z</time>
      </trkpt>
      <trkpt lat="45.08054" lon="6.12707">
        <ele>1792.6</ele>
        <time>2024-08-09T10:57:26Z</time>
      </trkpt>
      <trkpt lat="45.08054" lon="6.12707">
        <ele>1792.6</ele>
        <time>2024-08-09T10:57:27Z</time>
      </trkpt>
      <trkpt lat="45.08054" lon="6.12707">
        <ele>1792.6</ele>
        <time>2024-08-09T10:57:28Z</time>
      </trkpt>
      <trkpt lat="45.08054" lon="6.12707">
        <ele>1792.4</ele>
        <time>2024-08-09T10:57:29Z</time>
      </trkpt>
      <trkpt lat="45.08054" lon="6.12707">
        <ele>1792.4</ele>
        <time>2024-08-09T10:57:30Z</time>
      </trkpt>
      <trkpt lat="45.08054" lon="6.12707">
        <ele>1792.4</ele>
        <time>2024-08-09T10:57:31Z</time>
      </trkpt>
      <trkpt lat="45.08054" lon="6.12707">
        <ele>1792.4</ele>
        <time>2024-08-09T10:57:32Z</time>
      </trkpt>
      <trkpt lat="45.08054" lon="6.12707">
        <ele>1792.6</ele>
        <time>2024-08-09T10:57:33Z</time>
      </trkpt>
      <trkpt lat="45.08054" lon="6.12707">
        <ele>1792.6</ele>
        <time>2024-08-09T10:57:34Z</time>
      </trkpt>
      <trkpt lat="45.08054" lon="6.12707">
        <ele>1792.6</ele>
        <time>2024-08-09T10:57:35Z</time>
      </trkpt>
      <trkpt lat="45.08054" lon="6.12707">
        <ele>1792.4</ele>
        <time>2024-08-09T10:57:36Z</time>
      </trkpt>
      <trkpt lat="45.08054" lon="6.12707">
        <ele>1792.4</ele>
        <time>2024-08-09T10:57:37Z</time>
      </trkpt>
      <trkpt lat="45.08054" lon="6.12707">
        <ele>1792.4</ele>
        <time>2024-08-09T10:57:38Z</time>
      </trkpt>
      <trkpt lat="45.08054" lon="6.12707">
        <ele>1792.6</ele>
        <time>2024-08-09T10:57:39Z</time>
      </trkpt>
      <trkpt lat="45.08054" lon="6.12707">
        <ele>1792.6</ele>
        <time>2024-08-09T10:57:40Z</time>
      </trkpt>
      <trkpt lat="45.08054" lon="6.12707">
        <ele>1792.6</ele>
        <time>2024-08-09T10:57:41Z</time>
      </trkpt>
      <trkpt lat="45.08054" lon="6.12707">
        <ele>1792.6</ele>
        <time>2024-08-09T10:57:42Z</time>
      </trkpt>
      <trkpt lat="45.08055" lon="6.1271">
        <ele>1792.6</ele>
        <time>2024-08-09T10:57:43Z</time>
      </trkpt>
      <trkpt lat="45.08055" lon="6.1271">
        <ele>1792.8</ele>
        <time>2024-08-09T10:57:44Z</time>
      </trkpt>
      <trkpt lat="45.08056" lon="6.12714">
        <ele>1793</ele>
        <time>2024-08-09T10:57:45Z</time>
      </trkpt>
      <trkpt lat="45.08056" lon="6.12714">
        <ele>1793.2</ele>
        <time>2024-08-09T10:57:46Z</time>
      </trkpt>
      <trkpt lat="45.08057" lon="6.12716">
        <ele>1793.2</ele>
        <time>2024-08-09T10:57:47Z</time>
      </trkpt>
      <trkpt lat="45.08057" lon="6.12716">
        <ele>1793.2</ele>
        <time>2024-08-09T10:57:48Z</time>
      </trkpt>
      <trkpt lat="45.08059" lon="6.1272">
        <ele>1793.2</ele>
        <time>2024-08-09T10:57:49Z</time>
      </trkpt>
      <trkpt lat="45.08059" lon="6.1272">
        <ele>1793.2</ele>
        <time>2024-08-09T10:57:50Z</time>
      </trkpt>
      <trkpt lat="45.08061" lon="6.12723">
        <ele>1793.4</ele>
        <time>2024-08-09T10:57:51Z</time>
      </trkpt>
      <trkpt lat="45.08061" lon="6.12723">
        <ele>1793.8</ele>
        <time>2024-08-09T10:57:52Z</time>
      </trkpt>
      <trkpt lat="45.08061" lon="6.12726">
        <ele>1794</ele>
        <time>2024-08-09T10:57:53Z</time>
      </trkpt>
      <trkpt lat="45.08061" lon="6.12726">
        <ele>1794.2</ele>
        <time>2024-08-09T10:57:54Z</time>
      </trkpt>
      <trkpt lat="45.08062" lon="6.12729">
        <ele>1794.2</ele>
        <time>2024-08-09T10:57:55Z</time>
      </trkpt>
      <trkpt lat="45.08062" lon="6.12729">
        <ele>1794.2</ele>
        <time>2024-08-09T10:57:56Z</time>
      </trkpt>
      <trkpt lat="45.08062" lon="6.12729">
        <ele>1794.6</ele>
        <time>2024-08-09T10:57:57Z</time>
      </trkpt>
      <trkpt lat="45.08064" lon="6.12732">
        <ele>1794.8</ele>
        <time>2024-08-09T10:57:58Z</time>
      </trkpt>
      <trkpt lat="45.08064" lon="6.12732">
        <ele>1794.8</ele>
        <time>2024-08-09T10:57:59Z</time>
      </trkpt>
      <trkpt lat="45.08065" lon="6.12734">
        <ele>1795</ele>
        <time>2024-08-09T10:58:00Z</time>
      </trkpt>
      <trkpt lat="45.08065" lon="6.12734">
        <ele>1795.2</ele>
        <time>2024-08-09T10:58:01Z</time>
      </trkpt>
      <trkpt lat="45.08067" lon="6.12737">
        <ele>1795.8</ele>
        <time>2024-08-09T10:58:02Z</time>
      </trkpt>
      <trkpt lat="45.08067" lon="6.12737">
        <ele>1795.8</ele>
        <time>2024-08-09T10:58:03Z</time>
      </trkpt>
      <trkpt lat="45.08068" lon="6.1274">
        <ele>1795.6</ele>
        <time>2024-08-09T10:58:04Z</time>
      </trkpt>
      <trkpt lat="45.08068" lon="6.1274">
        <ele>1795.6</ele>
        <time>2024-08-09T10:58:05Z</time>
      </trkpt>
      <trkpt lat="45.08068" lon="6.1274">
        <ele>1795.6</ele>
        <time>2024-08-09T10:58:06Z</time>
      </trkpt>
      <trkpt lat="45.08068" lon="6.1274">
        <ele>1795.6</ele>
        <time>2024-08-09T10:58:07Z</time>
      </trkpt>
      <trkpt lat="45.08068" lon="6.1274">
        <ele>1795.6</ele>
        <time>2024-08-09T10:58:08Z</time>
      </trkpt>
      <trkpt lat="45.08068" lon="6.1274">
        <ele>1795.4</ele>
        <time>2024-08-09T10:58:09Z</time>
      </trkpt>
      <trkpt lat="45.0807" lon="6.12742">
        <ele>1795.4</ele>
        <time>2024-08-09T10:58:10Z</time>
      </trkpt>
      <trkpt lat="45.0807" lon="6.12742">
        <ele>1795.6</ele>
        <time>2024-08-09T10:58:11Z</time>
      </trkpt>
      <trkpt lat="45.08072" lon="6.12744">
        <ele>1795.6</ele>
        <time>2024-08-09T10:58:12Z</time>
      </trkpt>
      <trkpt lat="45.08072" lon="6.12744">
        <ele>1795.6</ele>
        <time>2024-08-09T10:58:13Z</time>
      </trkpt>
      <trkpt lat="45.08074" lon="6.12746">
        <ele>1795.6</ele>
        <time>2024-08-09T10:58:14Z</time>
      </trkpt>
      <trkpt lat="45.08074" lon="6.12746">
        <ele>1795.8</ele>
        <time>2024-08-09T10:58:15Z</time>
      </trkpt>
      <trkpt lat="45.08076" lon="6.12749">
        <ele>1796.2</ele>
        <time>2024-08-09T10:58:16Z</time>
      </trkpt>
      <trkpt lat="45.08076" lon="6.12749">
        <ele>1796.2</ele>
        <time>2024-08-09T10:58:17Z</time>
      </trkpt>
      <trkpt lat="45.08077" lon="6.12752">
        <ele>1796.4</ele>
        <time>2024-08-09T10:58:18Z</time>
      </trkpt>
      <trkpt lat="45.08077" lon="6.12752">
        <ele>1796.6</ele>
        <time>2024-08-09T10:58:19Z</time>
      </trkpt>
      <trkpt lat="45.08078" lon="6.12754">
        <ele>1796.8</ele>
        <time>2024-08-09T10:58:20Z</time>
      </trkpt>
      <trkpt lat="45.08078" lon="6.12754">
        <ele>1796.8</ele>
        <time>2024-08-09T10:58:21Z</time>
      </trkpt>
      <trkpt lat="45.0808" lon="6.12755">
        <ele>1796.8</ele>
        <time>2024-08-09T10:58:22Z</time>
      </trkpt>
      <trkpt lat="45.0808" lon="6.12755">
        <ele>1797</ele>
        <time>2024-08-09T10:58:23Z</time>
      </trkpt>
      <trkpt lat="45.08081" lon="6.12758">
        <ele>1797</ele>
        <time>2024-08-09T10:58:24Z</time>
      </trkpt>
      <trkpt lat="45.08081" lon="6.12758">
        <ele>1797.4</ele>
        <time>2024-08-09T10:58:25Z</time>
      </trkpt>
      <trkpt lat="45.08082" lon="6.1276">
        <ele>1797.4</ele>
        <time>2024-08-09T10:58:26Z</time>
      </trkpt>
      <trkpt lat="45.08082" lon="6.1276">
        <ele>1797.6</ele>
        <time>2024-08-09T10:58:27Z</time>
      </trkpt>
      <trkpt lat="45.08082" lon="6.1276">
        <ele>1797.6</ele>
        <time>2024-08-09T10:58:28Z</time>
      </trkpt>
      <trkpt lat="45.08083" lon="6.12763">
        <ele>1797.6</ele>
        <time>2024-08-09T10:58:29Z</time>
      </trkpt>
      <trkpt lat="45.08083" lon="6.12763">
        <ele>1797.6</ele>
        <time>2024-08-09T10:58:30Z</time>
      </trkpt>
      <trkpt lat="45.08085" lon="6.12766">
        <ele>1797.8</ele>
        <time>2024-08-09T10:58:31Z</time>
      </trkpt>
      <trkpt lat="45.08085" lon="6.12766">
        <ele>1798</ele>
        <time>2024-08-09T10:58:32Z</time>
      </trkpt>
      <trkpt lat="45.08088" lon="6.12768">
        <ele>1798</ele>
        <time>2024-08-09T10:58:33Z</time>
      </trkpt>
      <trkpt lat="45.08088" lon="6.12768">
        <ele>1798.2</ele>
        <time>2024-08-09T10:58:34Z</time>
      </trkpt>
      <trkpt lat="45.0809" lon="6.12771">
        <ele>1798.2</ele>
        <time>2024-08-09T10:58:35Z</time>
      </trkpt>
      <trkpt lat="45.0809" lon="6.12771">
        <ele>1798.2</ele>
        <time>2024-08-09T10:58:36Z</time>
      </trkpt>
      <trkpt lat="45.08091" lon="6.12774">
        <ele>1797.8</ele>
        <time>2024-08-09T10:58:37Z</time>
      </trkpt>
      <trkpt lat="45.08091" lon="6.12774">
        <ele>1797.8</ele>
        <time>2024-08-09T10:58:38Z</time>
      </trkpt>
      <trkpt lat="45.08093" lon="6.12776">
        <ele>1798</ele>
        <time>2024-08-09T10:58:39Z</time>
      </trkpt>
      <trkpt lat="45.08093" lon="6.12776">
        <ele>1798</ele>
        <time>2024-08-09T10:58:40Z</time>
      </trkpt>
      <trkpt lat="45.08094" lon="6.12778">
        <ele>1798.2</ele>
        <time>2024-08-09T10:58:41Z</time>
      </trkpt>
      <trkpt lat="45.08094" lon="6.12778">
        <ele>1798.2</ele>
        <time>2024-08-09T10:58:42Z</time>
      </trkpt>
      <trkpt lat="45.08096" lon="6.12781">
        <ele>1798.4</ele>
        <time>2024-08-09T10:58:43Z</time>
      </trkpt>
      <trkpt lat="45.08096" lon="6.12781">
        <ele>1798.6</ele>
        <time>2024-08-09T10:58:44Z</time>
      </trkpt>
      <trkpt lat="45.08098" lon="6.12783">
        <ele>1798.8</ele>
        <time>2024-08-09T10:58:45Z</time>
      </trkpt>
      <trkpt lat="45.08098" lon="6.12783">
        <ele>1798.8</ele>
        <time>2024-08-09T10:58:46Z</time>
      </trkpt>
      <trkpt lat="45.081" lon="6.12785">
        <ele>1798.8</ele>
        <time>2024-08-09T10:58:47Z</time>
      </trkpt>
      <trkpt lat="45.081" lon="6.12785">
        <ele>1799</ele>
        <time>2024-08-09T10:58:48Z</time>
      </trkpt>
      <trkpt lat="45.08102" lon="6.12788">
        <ele>1799.2</ele>
        <time>2024-08-09T10:58:49Z</time>
      </trkpt>
      <trkpt lat="45.08102" lon="6.12788">
        <ele>1799.2</ele>
        <time>2024-08-09T10:58:50Z</time>
      </trkpt>
      <trkpt lat="45.08103" lon="6.12792">
        <ele>1799.6</ele>
        <time>2024-08-09T10:58:51Z</time>
      </trkpt>
      <trkpt lat="45.08103" lon="6.12792">
        <ele>1799.8</ele>
        <time>2024-08-09T10:58:52Z</time>
      </trkpt>
      <trkpt lat="45.08104" lon="6.12794">
        <ele>1800</ele>
        <time>2024-08-09T10:58:53Z</time>
      </trkpt>
      <trkpt lat="45.08104" lon="6.12794">
        <ele>1800</ele>
        <time>2024-08-09T10:58:54Z</time>
      </trkpt>
      <trkpt lat="45.08105" lon="6.12797">
        <ele>1800.2</ele>
        <time>2024-08-09T10:58:55Z</time>
      </trkpt>
      <trkpt lat="45.08105" lon="6.12797">
        <ele>1800.2</ele>
        <time>2024-08-09T10:58:56Z</time>
      </trkpt>
      <trkpt lat="45.08106" lon="6.12799">
        <ele>1800.2</ele>
        <time>2024-08-09T10:58:57Z</time>
      </trkpt>
      <trkpt lat="45.08106" lon="6.12799">
        <ele>1800.2</ele>
        <time>2024-08-09T10:58:58Z</time>
      </trkpt>
      <trkpt lat="45.08108" lon="6.12802">
        <ele>1800.4</ele>
        <time>2024-08-09T10:58:59Z</time>
      </trkpt>
      <trkpt lat="45.08108" lon="6.12802">
        <ele>1800.4</ele>
        <time>2024-08-09T10:59:00Z</time>
      </trkpt>
      <trkpt lat="45.08109" lon="6.12805">
        <ele>1800.6</ele>
        <time>2024-08-09T10:59:01Z</time>
      </trkpt>
      <trkpt lat="45.08109" lon="6.12805">
        <ele>1800.8</ele>
        <time>2024-08-09T10:59:02Z</time>
      </trkpt>
      <trkpt lat="45.0811" lon="6.12808">
        <ele>1800.8</ele>
        <time>2024-08-09T10:59:03Z</time>
      </trkpt>
      <trkpt lat="45.0811" lon="6.12808">
        <ele>1800.8</ele>
        <time>2024-08-09T10:59:04Z</time>
      </trkpt>
      <trkpt lat="45.08111" lon="6.12811">
        <ele>1801</ele>
        <time>2024-08-09T10:59:05Z</time>
      </trkpt>
      <trkpt lat="45.08111" lon="6.12811">
        <ele>1801</ele>
        <time>2024-08-09T10:59:06Z</time>
      </trkpt>
      <trkpt lat="45.08111" lon="6.12814">
        <ele>1801</ele>
        <time>2024-08-09T10:59:07Z</time>
      </trkpt>
      <trkpt lat="45.08111" lon="6.12814">
        <ele>1801.2</ele>
        <time>2024-08-09T10:59:08Z</time>
      </trkpt>
      <trkpt lat="45.08112" lon="6.12817">
        <ele>1801.4</ele>
        <time>2024-08-09T10:59:09Z</time>
      </trkpt>
      <trkpt lat="45.08112" lon="6.12817">
        <ele>1801.6</ele>
        <time>2024-08-09T10:59:10Z</time>
      </trkpt>
      <trkpt lat="45.08114" lon="6.1282">
        <ele>1801.6</ele>
        <time>2024-08-09T10:59:11Z</time>
      </trkpt>
      <trkpt lat="45.08114" lon="6.1282">
        <ele>1801.8</ele>
        <time>2024-08-09T10:59:12Z</time>
      </trkpt>
      <trkpt lat="45.08114" lon="6.12823">
        <ele>1801.8</ele>
        <time>2024-08-09T10:59:13Z</time>
      </trkpt>
      <trkpt lat="45.08114" lon="6.12823">
        <ele>1802</ele>
        <time>2024-08-09T10:59:14Z</time>
      </trkpt>
      <trkpt lat="45.08114" lon="6.12826">
        <ele>1802.2</ele>
        <time>2024-08-09T10:59:15Z</time>
      </trkpt>
      <trkpt lat="45.08114" lon="6.12826">
        <ele>1802.2</ele>
        <time>2024-08-09T10:59:16Z</time>
      </trkpt>
      <trkpt lat="45.08116" lon="6.12829">
        <ele>1802.4</ele>
        <time>2024-08-09T10:59:17Z</time>
      </trkpt>
      <trkpt lat="45.08116" lon="6.12829">
        <ele>1802.6</ele>
        <time>2024-08-09T10:59:18Z</time>
      </trkpt>
      <trkpt lat="45.08116" lon="6.12832">
        <ele>1802.8</ele>
        <time>2024-08-09T10:59:19Z</time>
      </trkpt>
      <trkpt lat="45.08116" lon="6.12832">
        <ele>1802.8</ele>
        <time>2024-08-09T10:59:20Z</time>
      </trkpt>
      <trkpt lat="45.08117" lon="6.12835">
        <ele>1802.8</ele>
        <time>2024-08-09T10:59:21Z</time>
      </trkpt>
      <trkpt lat="45.08117" lon="6.12835">
        <ele>1803</ele>
        <time>2024-08-09T10:59:22Z</time>
      </trkpt>
      <trkpt lat="45.08118" lon="6.12838">
        <ele>1803</ele>
        <time>2024-08-09T10:59:23Z</time>
      </trkpt>
      <trkpt lat="45.08118" lon="6.12838">
        <ele>1803.2</ele>
        <time>2024-08-09T10:59:24Z</time>
      </trkpt>
      <trkpt lat="45.08119" lon="6.1284">
        <ele>1803.2</ele>
        <time>2024-08-09T10:59:25Z</time>
      </trkpt>
      <trkpt lat="45.08119" lon="6.1284">
        <ele>1803.2</ele>
        <time>2024-08-09T10:59:26Z</time>
      </trkpt>
      <trkpt lat="45.08119" lon="6.1284">
        <ele>1803.4</ele>
        <time>2024-08-09T10:59:27Z</time>
      </trkpt>
      <trkpt lat="45.08119" lon="6.12843">
        <ele>1803.6</ele>
        <time>2024-08-09T10:59:28Z</time>
      </trkpt>
      <trkpt lat="45.08119" lon="6.12843">
        <ele>1804</ele>
        <time>2024-08-09T10:59:29Z</time>
      </trkpt>
      <trkpt lat="45.08119" lon="6.12843">
        <ele>1804.2</ele>
        <time>2024-08-09T10:59:30Z</time>
      </trkpt>
      <trkpt lat="45.08119" lon="6.12843">
        <ele>1804</ele>
        <time>2024-08-09T10:59:31Z</time>
      </trkpt>
      <trkpt lat="45.08119" lon="6.12843">
        <ele>1804</ele>
        <time>2024-08-09T10:59:32Z</time>
      </trkpt>
      <trkpt lat="45.08119" lon="6.12843">
        <ele>1803.8</ele>
        <time>2024-08-09T10:59:33Z</time>
      </trkpt>
      <trkpt lat="45.08119" lon="6.12843">
        <ele>1803.8</ele>
        <time>2024-08-09T10:59:34Z</time>
      </trkpt>
      <trkpt lat="45.08118" lon="6.12845">
        <ele>1803.8</ele>
        <time>2024-08-09T10:59:35Z</time>
      </trkpt>
      <trkpt lat="45.08118" lon="6.12845">
        <ele>1803.8</ele>
        <time>2024-08-09T10:59:36Z</time>
      </trkpt>
      <trkpt lat="45.08118" lon="6.12845">
        <ele>1803.8</ele>
        <time>2024-08-09T10:59:37Z</time>
      </trkpt>
      <trkpt lat="45.08118" lon="6.12845">
        <ele>1804</ele>
        <time>2024-08-09T10:59:38Z</time>
      </trkpt>
      <trkpt lat="45.08118" lon="6.12848">
        <ele>1804.2</ele>
        <time>2024-08-09T10:59:39Z</time>
      </trkpt>
      <trkpt lat="45.08118" lon="6.12848">
        <ele>1804.4</ele>
        <time>2024-08-09T10:59:40Z</time>
      </trkpt>
      <trkpt lat="45.08119" lon="6.12851">
        <ele>1804.6</ele>
        <time>2024-08-09T10:59:41Z</time>
      </trkpt>
      <trkpt lat="45.08119" lon="6.12851">
        <ele>1804.6</ele>
        <time>2024-08-09T10:59:42Z</time>
      </trkpt>
      <trkpt lat="45.0812" lon="6.12854">
        <ele>1804.6</ele>
        <time>2024-08-09T10:59:43Z</time>
      </trkpt>
      <trkpt lat="45.0812" lon="6.12854">
        <ele>1804.8</ele>
        <time>2024-08-09T10:59:44Z</time>
      </trkpt>
      <trkpt lat="45.0812" lon="6.12856">
        <ele>1805</ele>
        <time>2024-08-09T10:59:45Z</time>
      </trkpt>
      <trkpt lat="45.0812" lon="6.12856">
        <ele>1805.2</ele>
        <time>2024-08-09T10:59:46Z</time>
      </trkpt>
      <trkpt lat="45.08121" lon="6.12859">
        <ele>1805.2</ele>
        <time>2024-08-09T10:59:47Z</time>
      </trkpt>
      <trkpt lat="45.08121" lon="6.12859">
        <ele>1805.4</ele>
        <time>2024-08-09T10:59:48Z</time>
      </trkpt>
      <trkpt lat="45.08122" lon="6.12862">
        <ele>1805.8</ele>
        <time>2024-08-09T10:59:49Z</time>
      </trkpt>
      <trkpt lat="45.08122" lon="6.12862">
        <ele>1805.8</ele>
        <time>2024-08-09T10:59:50Z</time>
      </trkpt>
      <trkpt lat="45.08123" lon="6.12866">
        <ele>1806</ele>
        <time>2024-08-09T10:59:51Z</time>
      </trkpt>
      <trkpt lat="45.08123" lon="6.12866">
        <ele>1806</ele>
        <time>2024-08-09T10:59:52Z</time>
      </trkpt>
      <trkpt lat="45.08124" lon="6.12869">
        <ele>1806.2</ele>
        <time>2024-08-09T10:59:53Z</time>
      </trkpt>
      <trkpt lat="45.08124" lon="6.12869">
        <ele>1806.2</ele>
        <time>2024-08-09T10:59:54Z</time>
      </trkpt>
      <trkpt lat="45.08125" lon="6.12871">
        <ele>1806.4</ele>
        <time>2024-08-09T10:59:55Z</time>
      </trkpt>
      <trkpt lat="45.08125" lon="6.12871">
        <ele>1806.4</ele>
        <time>2024-08-09T10:59:56Z</time>
      </trkpt>
      <trkpt lat="45.08125" lon="6.12874">
        <ele>1806.6</ele>
        <time>2024-08-09T10:59:57Z</time>
      </trkpt>
      <trkpt lat="45.08125" lon="6.12874">
        <ele>1806.6</ele>
        <time>2024-08-09T10:59:58Z</time>
      </trkpt>
      <trkpt lat="45.08126" lon="6.12877">
        <ele>1806.8</ele>
        <time>2024-08-09T10:59:59Z</time>
      </trkpt>
      <trkpt lat="45.08128" lon="6.1288">
        <ele>1807</ele>
        <time>2024-08-09T11:00:01Z</time>
      </trkpt>
      <trkpt lat="45.08128" lon="6.1288">
        <ele>1807.4</ele>
        <time>2024-08-09T11:00:02Z</time>
      </trkpt>
      <trkpt lat="45.08129" lon="6.12883">
        <ele>1807.4</ele>
        <time>2024-08-09T11:00:03Z</time>
      </trkpt>
      <trkpt lat="45.08129" lon="6.12883">
        <ele>1807.2</ele>
        <time>2024-08-09T11:00:04Z</time>
      </trkpt>
      <trkpt lat="45.0813" lon="6.12886">
        <ele>1807.2</ele>
        <time>2024-08-09T11:00:05Z</time>
      </trkpt>
      <trkpt lat="45.0813" lon="6.12886">
        <ele>1807.2</ele>
        <time>2024-08-09T11:00:06Z</time>
      </trkpt>
      <trkpt lat="45.08131" lon="6.1289">
        <ele>1807.4</ele>
        <time>2024-08-09T11:00:07Z</time>
      </trkpt>
      <trkpt lat="45.08131" lon="6.1289">
        <ele>1807.8</ele>
        <time>2024-08-09T11:00:08Z</time>
      </trkpt>
      <trkpt lat="45.08132" lon="6.12893">
        <ele>1807.8</ele>
        <time>2024-08-09T11:00:09Z</time>
      </trkpt>
      <trkpt lat="45.08132" lon="6.12893">
        <ele>1808</ele>
        <time>2024-08-09T11:00:10Z</time>
      </trkpt>
      <trkpt lat="45.08133" lon="6.12897">
        <ele>1808</ele>
        <time>2024-08-09T11:00:11Z</time>
      </trkpt>
      <trkpt lat="45.08133" lon="6.12897">
        <ele>1808.2</ele>
        <time>2024-08-09T11:00:12Z</time>
      </trkpt>
      <trkpt lat="45.08133" lon="6.129">
        <ele>1808.2</ele>
        <time>2024-08-09T11:00:13Z</time>
      </trkpt>
      <trkpt lat="45.08133" lon="6.129">
        <ele>1808.2</ele>
        <time>2024-08-09T11:00:14Z</time>
      </trkpt>
      <trkpt lat="45.08133" lon="6.12903">
        <ele>1808.2</ele>
        <time>2024-08-09T11:00:15Z</time>
      </trkpt>
      <trkpt lat="45.08133" lon="6.12903">
        <ele>1808.6</ele>
        <time>2024-08-09T11:00:16Z</time>
      </trkpt>
      <trkpt lat="45.08134" lon="6.12906">
        <ele>1808.6</ele>
        <time>2024-08-09T11:00:17Z</time>
      </trkpt>
      <trkpt lat="45.08134" lon="6.12906">
        <ele>1808.8</ele>
        <time>2024-08-09T11:00:18Z</time>
      </trkpt>
      <trkpt lat="45.08134" lon="6.12909">
        <ele>1808.8</ele>
        <time>2024-08-09T11:00:19Z</time>
      </trkpt>
      <trkpt lat="45.08134" lon="6.12909">
        <ele>1808.8</ele>
        <time>2024-08-09T11:00:20Z</time>
      </trkpt>
      <trkpt lat="45.08134" lon="6.12912">
        <ele>1808.8</ele>
        <time>2024-08-09T11:00:21Z</time>
      </trkpt>
      <trkpt lat="45.08134" lon="6.12912">
        <ele>1809</ele>
        <time>2024-08-09T11:00:22Z</time>
      </trkpt>
      <trkpt lat="45.08135" lon="6.12915">
        <ele>1809.2</ele>
        <time>2024-08-09T11:00:23Z</time>
      </trkpt>
      <trkpt lat="45.08135" lon="6.12915">
        <ele>1809.2</ele>
        <time>2024-08-09T11:00:24Z</time>
      </trkpt>
      <trkpt lat="45.08135" lon="6.12919">
        <ele>1809.4</ele>
        <time>2024-08-09T11:00:25Z</time>
      </trkpt>
      <trkpt lat="45.08135" lon="6.12919">
        <ele>1809.4</ele>
        <time>2024-08-09T11:00:26Z</time>
      </trkpt>
      <trkpt lat="45.08135" lon="6.12922">
        <ele>1809.4</ele>
        <time>2024-08-09T11:00:27Z</time>
      </trkpt>
      <trkpt lat="45.08135" lon="6.12922">
        <ele>1809.6</ele>
        <time>2024-08-09T11:00:28Z</time>
      </trkpt>
      <trkpt lat="45.08136" lon="6.12925">
        <ele>1809.8</ele>
        <time>2024-08-09T11:00:29Z</time>
      </trkpt>
      <trkpt lat="45.08136" lon="6.12925">
        <ele>1809.8</ele>
        <time>2024-08-09T11:00:30Z</time>
      </trkpt>
      <trkpt lat="45.08136" lon="6.12928">
        <ele>1809.8</ele>
        <time>2024-08-09T11:00:31Z</time>
      </trkpt>
      <trkpt lat="45.08136" lon="6.12928">
        <ele>1810</ele>
        <time>2024-08-09T11:00:32Z</time>
      </trkpt>
      <trkpt lat="45.08136" lon="6.12931">
        <ele>1810.4</ele>
        <time>2024-08-09T11:00:33Z</time>
      </trkpt>
      <trkpt lat="45.08136" lon="6.12931">
        <ele>1810.4</ele>
        <time>2024-08-09T11:00:34Z</time>
      </trkpt>
      <trkpt lat="45.08136" lon="6.12933">
        <ele>1810.4</ele>
        <time>2024-08-09T11:00:35Z</time>
      </trkpt>
      <trkpt lat="45.08136" lon="6.12933">
        <ele>1810.4</ele>
        <time>2024-08-09T11:00:36Z</time>
      </trkpt>
      <trkpt lat="45.08136" lon="6.12936">
        <ele>1810.6</ele>
        <time>2024-08-09T11:00:37Z</time>
      </trkpt>
      <trkpt lat="45.08136" lon="6.12936">
        <ele>1810.6</ele>
        <time>2024-08-09T11:00:38Z</time>
      </trkpt>
      <trkpt lat="45.08136" lon="6.1294">
        <ele>1810.6</ele>
        <time>2024-08-09T11:00:39Z</time>
      </trkpt>
      <trkpt lat="45.08136" lon="6.1294">
        <ele>1810.6</ele>
        <time>2024-08-09T11:00:40Z</time>
      </trkpt>
      <trkpt lat="45.08136" lon="6.12943">
        <ele>1810.6</ele>
        <time>2024-08-09T11:00:41Z</time>
      </trkpt>
      <trkpt lat="45.08136" lon="6.12943">
        <ele>1810.6</ele>
        <time>2024-08-09T11:00:42Z</time>
      </trkpt>
      <trkpt lat="45.08136" lon="6.12946">
        <ele>1810.8</ele>
        <time>2024-08-09T11:00:43Z</time>
      </trkpt>
      <trkpt lat="45.08136" lon="6.12946">
        <ele>1810.8</ele>
        <time>2024-08-09T11:00:44Z</time>
      </trkpt>
      <trkpt lat="45.08136" lon="6.12949">
        <ele>1811</ele>
        <time>2024-08-09T11:00:45Z</time>
      </trkpt>
      <trkpt lat="45.08136" lon="6.12949">
        <ele>1811.2</ele>
        <time>2024-08-09T11:00:46Z</time>
      </trkpt>
      <trkpt lat="45.08136" lon="6.12952">
        <ele>1811.2</ele>
        <time>2024-08-09T11:00:47Z</time>
      </trkpt>
      <trkpt lat="45.08136" lon="6.12952">
        <ele>1811.2</ele>
        <time>2024-08-09T11:00:48Z</time>
      </trkpt>
      <trkpt lat="45.08136" lon="6.12955">
        <ele>1811.2</ele>
        <time>2024-08-09T11:00:49Z</time>
      </trkpt>
      <trkpt lat="45.08136" lon="6.12955">
        <ele>1811.2</ele>
        <time>2024-08-09T11:00:50Z</time>
      </trkpt>
      <trkpt lat="45.08135" lon="6.12958">
        <ele>1811.6</ele>
        <time>2024-08-09T11:00:51Z</time>
      </trkpt>
      <trkpt lat="45.08135" lon="6.12958">
        <ele>1811.6</ele>
        <time>2024-08-09T11:00:52Z</time>
      </trkpt>
      <trkpt lat="45.08134" lon="6.12961">
        <ele>1811.8</ele>
        <time>2024-08-09T11:00:53Z</time>
      </trkpt>
      <trkpt lat="45.08134" lon="6.12961">
        <ele>1812</ele>
        <time>2024-08-09T11:00:54Z</time>
      </trkpt>
      <trkpt lat="45.08134" lon="6.12964">
        <ele>1812</ele>
        <time>2024-08-09T11:00:55Z</time>
      </trkpt>
      <trkpt lat="45.08134" lon="6.12964">
        <ele>1812</ele>
        <time>2024-08-09T11:00:56Z</time>
      </trkpt>
      <trkpt lat="45.08134" lon="6.12967">
        <ele>1811.8</ele>
        <time>2024-08-09T11:00:57Z</time>
      </trkpt>
      <trkpt lat="45.08134" lon="6.12967">
        <ele>1811.8</ele>
        <time>2024-08-09T11:00:58Z</time>
      </trkpt>
      <trkpt lat="45.08133" lon="6.1297">
        <ele>1812.2</ele>
        <time>2024-08-09T11:00:59Z</time>
      </trkpt>
      <trkpt lat="45.08133" lon="6.1297">
        <ele>1812.2</ele>
        <time>2024-08-09T11:01:00Z</time>
      </trkpt>
      <trkpt lat="45.08133" lon="6.12974">
        <ele>1812.4</ele>
        <time>2024-08-09T11:01:01Z</time>
      </trkpt>
      <trkpt lat="45.08133" lon="6.12974">
        <ele>1812.6</ele>
        <time>2024-08-09T11:01:02Z</time>
      </trkpt>
      <trkpt lat="45.08132" lon="6.12977">
        <ele>1812.6</ele>
        <time>2024-08-09T11:01:03Z</time>
      </trkpt>
      <trkpt lat="45.08132" lon="6.12977">
        <ele>1812.6</ele>
        <time>2024-08-09T11:01:04Z</time>
      </trkpt>
      <trkpt lat="45.08132" lon="6.1298">
        <ele>1812.6</ele>
        <time>2024-08-09T11:01:05Z</time>
      </trkpt>
      <trkpt lat="45.08132" lon="6.1298">
        <ele>1812.6</ele>
        <time>2024-08-09T11:01:06Z</time>
      </trkpt>
      <trkpt lat="45.0813" lon="6.12983">
        <ele>1812.6</ele>
        <time>2024-08-09T11:01:07Z</time>
      </trkpt>
      <trkpt lat="45.0813" lon="6.12983">
        <ele>1812.8</ele>
        <time>2024-08-09T11:01:08Z</time>
      </trkpt>
      <trkpt lat="45.08129" lon="6.12986">
        <ele>1813</ele>
        <time>2024-08-09T11:01:09Z</time>
      </trkpt>
      <trkpt lat="45.08129" lon="6.12986">
        <ele>1813.2</ele>
        <time>2024-08-09T11:01:10Z</time>
      </trkpt>
      <trkpt lat="45.08128" lon="6.12989">
        <ele>1813.2</ele>
        <time>2024-08-09T11:01:11Z</time>
      </trkpt>
      <trkpt lat="45.08128" lon="6.12989">
        <ele>1813.2</ele>
        <time>2024-08-09T11:01:12Z</time>
      </trkpt>
      <trkpt lat="45.08127" lon="6.12992">
        <ele>1813.4</ele>
        <time>2024-08-09T11:01:13Z</time>
      </trkpt>
      <trkpt lat="45.08127" lon="6.12992">
        <ele>1813.4</ele>
        <time>2024-08-09T11:01:14Z</time>
      </trkpt>
      <trkpt lat="45.08126" lon="6.12995">
        <ele>1813.4</ele>
        <time>2024-08-09T11:01:15Z</time>
      </trkpt>
      <trkpt lat="45.08126" lon="6.12995">
        <ele>1813.4</ele>
        <time>2024-08-09T11:01:16Z</time>
      </trkpt>
      <trkpt lat="45.08125" lon="6.12998">
        <ele>1813.6</ele>
        <time>2024-08-09T11:01:17Z</time>
      </trkpt>
      <trkpt lat="45.08125" lon="6.12998">
        <ele>1813.6</ele>
        <time>2024-08-09T11:01:18Z</time>
      </trkpt>
      <trkpt lat="45.08123" lon="6.13">
        <ele>1813.6</ele>
        <time>2024-08-09T11:01:19Z</time>
      </trkpt>
      <trkpt lat="45.08123" lon="6.13">
        <ele>1814</ele>
        <time>2024-08-09T11:01:20Z</time>
      </trkpt>
      <trkpt lat="45.08121" lon="6.13002">
        <ele>1814</ele>
        <time>2024-08-09T11:01:21Z</time>
      </trkpt>
      <trkpt lat="45.08121" lon="6.13002">
        <ele>1814.2</ele>
        <time>2024-08-09T11:01:22Z</time>
      </trkpt>
      <trkpt lat="45.0812" lon="6.13004">
        <ele>1814.2</ele>
        <time>2024-08-09T11:01:23Z</time>
      </trkpt>
      <trkpt lat="45.0812" lon="6.13004">
        <ele>1814.4</ele>
        <time>2024-08-09T11:01:24Z</time>
      </trkpt>
      <trkpt lat="45.08118" lon="6.13006">
        <ele>1814.4</ele>
        <time>2024-08-09T11:01:25Z</time>
      </trkpt>
      <trkpt lat="45.08118" lon="6.13006">
        <ele>1814.4</ele>
        <time>2024-08-09T11:01:26Z</time>
      </trkpt>
      <trkpt lat="45.08116" lon="6.13009">
        <ele>1814.6</ele>
        <time>2024-08-09T11:01:27Z</time>
      </trkpt>
      <trkpt lat="45.08116" lon="6.13009">
        <ele>1814.6</ele>
        <time>2024-08-09T11:01:28Z</time>
      </trkpt>
      <trkpt lat="45.08114" lon="6.13011">
        <ele>1814.6</ele>
        <time>2024-08-09T11:01:29Z</time>
      </trkpt>
      <trkpt lat="45.08114" lon="6.13011">
        <ele>1814.6</ele>
        <time>2024-08-09T11:01:30Z</time>
      </trkpt>
      <trkpt lat="45.08112" lon="6.13014">
        <ele>1814.6</ele>
        <time>2024-08-09T11:01:31Z</time>
      </trkpt>
      <trkpt lat="45.08112" lon="6.13014">
        <ele>1814.8</ele>
        <time>2024-08-09T11:01:32Z</time>
      </trkpt>
      <trkpt lat="45.0811" lon="6.13016">
        <ele>1814.8</ele>
        <time>2024-08-09T11:01:33Z</time>
      </trkpt>
      <trkpt lat="45.0811" lon="6.13016">
        <ele>1815</ele>
        <time>2024-08-09T11:01:34Z</time>
      </trkpt>
      <trkpt lat="45.08109" lon="6.13019">
        <ele>1815</ele>
        <time>2024-08-09T11:01:35Z</time>
      </trkpt>
      <trkpt lat="45.08109" lon="6.13019">
        <ele>1815</ele>
        <time>2024-08-09T11:01:36Z</time>
      </trkpt>
      <trkpt lat="45.08108" lon="6.13022">
        <ele>1815.2</ele>
        <time>2024-08-09T11:01:37Z</time>
      </trkpt>
      <trkpt lat="45.08108" lon="6.13022">
        <ele>1815.2</ele>
        <time>2024-08-09T11:01:38Z</time>
      </trkpt>
      <trkpt lat="45.08108" lon="6.13025">
        <ele>1815.2</ele>
        <time>2024-08-09T11:01:39Z</time>
      </trkpt>
      <trkpt lat="45.08108" lon="6.13025">
        <ele>1815.2</ele>
        <time>2024-08-09T11:01:40Z</time>
      </trkpt>
      <trkpt lat="45.08107" lon="6.13028">
        <ele>1815.2</ele>
        <time>2024-08-09T11:01:41Z</time>
      </trkpt>
      <trkpt lat="45.08107" lon="6.13028">
        <ele>1815.4</ele>
        <time>2024-08-09T11:01:42Z</time>
      </trkpt>
      <trkpt lat="45.08106" lon="6.13032">
        <ele>1815.6</ele>
        <time>2024-08-09T11:01:43Z</time>
      </trkpt>
      <trkpt lat="45.08106" lon="6.13032">
        <ele>1815.6</ele>
        <time>2024-08-09T11:01:44Z</time>
      </trkpt>
      <trkpt lat="45.08104" lon="6.13033">
        <ele>1815.6</ele>
        <time>2024-08-09T11:01:45Z</time>
      </trkpt>
      <trkpt lat="45.08104" lon="6.13033">
        <ele>1815.6</ele>
        <time>2024-08-09T11:01:46Z</time>
      </trkpt>
      <trkpt lat="45.08103" lon="6.13036">
        <ele>1815.8</ele>
        <time>2024-08-09T11:01:47Z</time>
      </trkpt>
      <trkpt lat="45.08103" lon="6.13036">
        <ele>1816</ele>
        <time>2024-08-09T11:01:48Z</time>
      </trkpt>
      <trkpt lat="45.08101" lon="6.13037">
        <ele>1816</ele>
        <time>2024-08-09T11:01:49Z</time>
      </trkpt>
      <trkpt lat="45.08101" lon="6.1304">
        <ele>1816.2</ele>
        <time>2024-08-09T11:01:50Z</time>
      </trkpt>
      <trkpt lat="45.08101" lon="6.1304">
        <ele>1816.2</ele>
        <time>2024-08-09T11:01:51Z</time>
      </trkpt>
      <trkpt lat="45.081" lon="6.13043">
        <ele>1816.2</ele>
        <time>2024-08-09T11:01:52Z</time>
      </trkpt>
      <trkpt lat="45.081" lon="6.13043">
        <ele>1816.8</ele>
        <time>2024-08-09T11:01:53Z</time>
      </trkpt>
      <trkpt lat="45.08098" lon="6.13047">
        <ele>1817</ele>
        <time>2024-08-09T11:01:54Z</time>
      </trkpt>
      <trkpt lat="45.08098" lon="6.13047">
        <ele>1817.2</ele>
        <time>2024-08-09T11:01:55Z</time>
      </trkpt>
      <trkpt lat="45.08096" lon="6.13049">
        <ele>1817.2</ele>
        <time>2024-08-09T11:01:56Z</time>
      </trkpt>
      <trkpt lat="45.08096" lon="6.13049">
        <ele>1817.6</ele>
        <time>2024-08-09T11:01:57Z</time>
      </trkpt>
      <trkpt lat="45.08094" lon="6.13051">
        <ele>1817.6</ele>
        <time>2024-08-09T11:01:58Z</time>
      </trkpt>
      <trkpt lat="45.08094" lon="6.13051">
        <ele>1817.6</ele>
        <time>2024-08-09T11:01:59Z</time>
      </trkpt>
      <trkpt lat="45.08093" lon="6.13054">
        <ele>1817.6</ele>
        <time>2024-08-09T11:02:00Z</time>
      </trkpt>
      <trkpt lat="45.08093" lon="6.13054">
        <ele>1817.8</ele>
        <time>2024-08-09T11:02:01Z</time>
      </trkpt>
      <trkpt lat="45.08093" lon="6.13058">
        <ele>1818.2</ele>
        <time>2024-08-09T11:02:02Z</time>
      </trkpt>
      <trkpt lat="45.08093" lon="6.13058">
        <ele>1818.2</ele>
        <time>2024-08-09T11:02:03Z</time>
      </trkpt>
      <trkpt lat="45.08091" lon="6.13061">
        <ele>1818.4</ele>
        <time>2024-08-09T11:02:04Z</time>
      </trkpt>
      <trkpt lat="45.08091" lon="6.13061">
        <ele>1818.6</ele>
        <time>2024-08-09T11:02:05Z</time>
      </trkpt>
      <trkpt lat="45.0809" lon="6.13065">
        <ele>1818.6</ele>
        <time>2024-08-09T11:02:06Z</time>
      </trkpt>
      <trkpt lat="45.0809" lon="6.13065">
        <ele>1818.8</ele>
        <time>2024-08-09T11:02:07Z</time>
      </trkpt>
      <trkpt lat="45.0809" lon="6.13068">
        <ele>1818.8</ele>
        <time>2024-08-09T11:02:08Z</time>
      </trkpt>
      <trkpt lat="45.0809" lon="6.13068">
        <ele>1819</ele>
        <time>2024-08-09T11:02:09Z</time>
      </trkpt>
      <trkpt lat="45.0809" lon="6.13072">
        <ele>1819.4</ele>
        <time>2024-08-09T11:02:10Z</time>
      </trkpt>
      <trkpt lat="45.0809" lon="6.13072">
        <ele>1819.4</ele>
        <time>2024-08-09T11:02:11Z</time>
      </trkpt>
      <trkpt lat="45.08089" lon="6.13075">
        <ele>1819.4</ele>
        <time>2024-08-09T11:02:12Z</time>
      </trkpt>
      <trkpt lat="45.08089" lon="6.13075">
        <ele>1819.4</ele>
        <time>2024-08-09T11:02:13Z</time>
      </trkpt>
      <trkpt lat="45.08089" lon="6.13079">
        <ele>1819.6</ele>
        <time>2024-08-09T11:02:14Z</time>
      </trkpt>
      <trkpt lat="45.08089" lon="6.13079">
        <ele>1819.8</ele>
        <time>2024-08-09T11:02:15Z</time>
      </trkpt>
      <trkpt lat="45.08088" lon="6.13082">
        <ele>1819.8</ele>
        <time>2024-08-09T11:02:16Z</time>
      </trkpt>
      <trkpt lat="45.08088" lon="6.13082">
        <ele>1820</ele>
        <time>2024-08-09T11:02:17Z</time>
      </trkpt>
      <trkpt lat="45.08087" lon="6.13085">
        <ele>1820</ele>
        <time>2024-08-09T11:02:18Z</time>
      </trkpt>
      <trkpt lat="45.08087" lon="6.13085">
        <ele>1820.2</ele>
        <time>2024-08-09T11:02:19Z</time>
      </trkpt>
      <trkpt lat="45.08087" lon="6.13089">
        <ele>1820.2</ele>
        <time>2024-08-09T11:02:20Z</time>
      </trkpt>
      <trkpt lat="45.08087" lon="6.13089">
        <ele>1820.6</ele>
        <time>2024-08-09T11:02:21Z</time>
      </trkpt>
      <trkpt lat="45.08087" lon="6.13092">
        <ele>1820.6</ele>
        <time>2024-08-09T11:02:22Z</time>
      </trkpt>
      <trkpt lat="45.08087" lon="6.13092">
        <ele>1820.6</ele>
        <time>2024-08-09T11:02:23Z</time>
      </trkpt>
      <trkpt lat="45.08089" lon="6.13095">
        <ele>1820.6</ele>
        <time>2024-08-09T11:02:24Z</time>
      </trkpt>
      <trkpt lat="45.08089" lon="6.13095">
        <ele>1820.8</ele>
        <time>2024-08-09T11:02:25Z</time>
      </trkpt>
      <trkpt lat="45.0809" lon="6.13099">
        <ele>1820.8</ele>
        <time>2024-08-09T11:02:26Z</time>
      </trkpt>
      <trkpt lat="45.0809" lon="6.13099">
        <ele>1820.8</ele>
        <time>2024-08-09T11:02:27Z</time>
      </trkpt>
      <trkpt lat="45.0809" lon="6.13102">
        <ele>1820.8</ele>
        <time>2024-08-09T11:02:28Z</time>
      </trkpt>
      <trkpt lat="45.0809" lon="6.13102">
        <ele>1821.2</ele>
        <time>2024-08-09T11:02:29Z</time>
      </trkpt>
      <trkpt lat="45.08091" lon="6.13105">
        <ele>1821.2</ele>
        <time>2024-08-09T11:02:30Z</time>
      </trkpt>
      <trkpt lat="45.08091" lon="6.13105">
        <ele>1821.4</ele>
        <time>2024-08-09T11:02:31Z</time>
      </trkpt>
      <trkpt lat="45.08091" lon="6.13109">
        <ele>1821.6</ele>
        <time>2024-08-09T11:02:32Z</time>
      </trkpt>
      <trkpt lat="45.08091" lon="6.13109">
        <ele>1821.6</ele>
        <time>2024-08-09T11:02:33Z</time>
      </trkpt>
      <trkpt lat="45.08091" lon="6.13112">
        <ele>1822</ele>
        <time>2024-08-09T11:02:34Z</time>
      </trkpt>
      <trkpt lat="45.08091" lon="6.13112">
        <ele>1822</ele>
        <time>2024-08-09T11:02:35Z</time>
      </trkpt>
      <trkpt lat="45.08092" lon="6.13115">
        <ele>1822.4</ele>
        <time>2024-08-09T11:02:36Z</time>
      </trkpt>
      <trkpt lat="45.08092" lon="6.13115">
        <ele>1822.6</ele>
        <time>2024-08-09T11:02:37Z</time>
      </trkpt>
      <trkpt lat="45.08093" lon="6.13118">
        <ele>1822.6</ele>
        <time>2024-08-09T11:02:38Z</time>
      </trkpt>
      <trkpt lat="45.08093" lon="6.13118">
        <ele>1822.8</ele>
        <time>2024-08-09T11:02:39Z</time>
      </trkpt>
      <trkpt lat="45.08094" lon="6.13121">
        <ele>1822.8</ele>
        <time>2024-08-09T11:02:40Z</time>
      </trkpt>
      <trkpt lat="45.08094" lon="6.13121">
        <ele>1822.8</ele>
        <time>2024-08-09T11:02:41Z</time>
      </trkpt>
      <trkpt lat="45.08096" lon="6.13124">
        <ele>1823</ele>
        <time>2024-08-09T11:02:42Z</time>
      </trkpt>
      <trkpt lat="45.08096" lon="6.13124">
        <ele>1823.4</ele>
        <time>2024-08-09T11:02:43Z</time>
      </trkpt>
      <trkpt lat="45.08098" lon="6.13126">
        <ele>1823.8</ele>
        <time>2024-08-09T11:02:44Z</time>
      </trkpt>
      <trkpt lat="45.08098" lon="6.13126">
        <ele>1823.8</ele>
        <time>2024-08-09T11:02:45Z</time>
      </trkpt>
      <trkpt lat="45.08099" lon="6.1313">
        <ele>1823.8</ele>
        <time>2024-08-09T11:02:46Z</time>
      </trkpt>
      <trkpt lat="45.08099" lon="6.1313">
        <ele>1823.8</ele>
        <time>2024-08-09T11:02:47Z</time>
      </trkpt>
      <trkpt lat="45.08101" lon="6.13133">
        <ele>1824</ele>
        <time>2024-08-09T11:02:48Z</time>
      </trkpt>
      <trkpt lat="45.08101" lon="6.13133">
        <ele>1824.2</ele>
        <time>2024-08-09T11:02:49Z</time>
      </trkpt>
      <trkpt lat="45.08102" lon="6.13136">
        <ele>1824.4</ele>
        <time>2024-08-09T11:02:50Z</time>
      </trkpt>
      <trkpt lat="45.08102" lon="6.13136">
        <ele>1824.6</ele>
        <time>2024-08-09T11:02:51Z</time>
      </trkpt>
      <trkpt lat="45.08104" lon="6.13139">
        <ele>1825</ele>
        <time>2024-08-09T11:02:52Z</time>
      </trkpt>
      <trkpt lat="45.08104" lon="6.13139">
        <ele>1825</ele>
        <time>2024-08-09T11:02:53Z</time>
      </trkpt>
      <trkpt lat="45.08105" lon="6.13142">
        <ele>1825.2</ele>
        <time>2024-08-09T11:02:54Z</time>
      </trkpt>
      <trkpt lat="45.08105" lon="6.13142">
        <ele>1825.2</ele>
        <time>2024-08-09T11:02:55Z</time>
      </trkpt>
      <trkpt lat="45.08106" lon="6.13145">
        <ele>1825</ele>
        <time>2024-08-09T11:02:56Z</time>
      </trkpt>
      <trkpt lat="45.08106" lon="6.13145">
        <ele>1825</ele>
        <time>2024-08-09T11:02:57Z</time>
      </trkpt>
      <trkpt lat="45.08107" lon="6.13148">
        <ele>1825</ele>
        <time>2024-08-09T11:02:58Z</time>
      </trkpt>
      <trkpt lat="45.08107" lon="6.13148">
        <ele>1825.2</ele>
        <time>2024-08-09T11:02:59Z</time>
      </trkpt>
      <trkpt lat="45.08109" lon="6.13151">
        <ele>1825.4</ele>
        <time>2024-08-09T11:03:00Z</time>
      </trkpt>
      <trkpt lat="45.08109" lon="6.13151">
        <ele>1825.4</ele>
        <time>2024-08-09T11:03:01Z</time>
      </trkpt>
      <trkpt lat="45.0811" lon="6.13154">
        <ele>1825.4</ele>
        <time>2024-08-09T11:03:02Z</time>
      </trkpt>
      <trkpt lat="45.0811" lon="6.13154">
        <ele>1825.4</ele>
        <time>2024-08-09T11:03:03Z</time>
      </trkpt>
      <trkpt lat="45.08112" lon="6.13156">
        <ele>1825.6</ele>
        <time>2024-08-09T11:03:04Z</time>
      </trkpt>
      <trkpt lat="45.08112" lon="6.13156">
        <ele>1825.6</ele>
        <time>2024-08-09T11:03:05Z</time>
      </trkpt>
      <trkpt lat="45.08112" lon="6.13156">
        <ele>1825.8</ele>
        <time>2024-08-09T11:03:06Z</time>
      </trkpt>
      <trkpt lat="45.08112" lon="6.13156">
        <ele>1826.2</ele>
        <time>2024-08-09T11:03:07Z</time>
      </trkpt>
      <trkpt lat="45.08112" lon="6.13156">
        <ele>1826.2</ele>
        <time>2024-08-09T11:03:08Z</time>
      </trkpt>
      <trkpt lat="45.08112" lon="6.13156">
        <ele>1826.2</ele>
        <time>2024-08-09T11:03:09Z</time>
      </trkpt>
      <trkpt lat="45.08112" lon="6.13156">
        <ele>1826.4</ele>
        <time>2024-08-09T11:03:10Z</time>
      </trkpt>
      <trkpt lat="45.08112" lon="6.13156">
        <ele>1826.4</ele>
        <time>2024-08-09T11:03:11Z</time>
      </trkpt>
      <trkpt lat="45.08113" lon="6.13159">
        <ele>1825.8</ele>
        <time>2024-08-09T11:03:12Z</time>
      </trkpt>
      <trkpt lat="45.08113" lon="6.13159">
        <ele>1825.8</ele>
        <time>2024-08-09T11:03:13Z</time>
      </trkpt>
      <trkpt lat="45.08116" lon="6.13161">
        <ele>1825.8</ele>
        <time>2024-08-09T11:03:14Z</time>
      </trkpt>
      <trkpt lat="45.08116" lon="6.13161">
        <ele>1826</ele>
        <time>2024-08-09T11:03:15Z</time>
      </trkpt>
      <trkpt lat="45.08118" lon="6.13163">
        <ele>1826.2</ele>
        <time>2024-08-09T11:03:16Z</time>
      </trkpt>
      <trkpt lat="45.08118" lon="6.13163">
        <ele>1826.2</ele>
        <time>2024-08-09T11:03:17Z</time>
      </trkpt>
      <trkpt lat="45.0812" lon="6.13164">
        <ele>1826.2</ele>
        <time>2024-08-09T11:03:18Z</time>
      </trkpt>
      <trkpt lat="45.0812" lon="6.13164">
        <ele>1826.6</ele>
        <time>2024-08-09T11:03:19Z</time>
      </trkpt>
      <trkpt lat="45.08122" lon="6.13166">
        <ele>1827</ele>
        <time>2024-08-09T11:03:20Z</time>
      </trkpt>
      <trkpt lat="45.08122" lon="6.13166">
        <ele>1827</ele>
        <time>2024-08-09T11:03:21Z</time>
      </trkpt>
      <trkpt lat="45.08122" lon="6.13166">
        <ele>1827.2</ele>
        <time>2024-08-09T11:03:22Z</time>
      </trkpt>
      <trkpt lat="45.08124" lon="6.13167">
        <ele>1827.6</ele>
        <time>2024-08-09T11:03:23Z</time>
      </trkpt>
      <trkpt lat="45.08124" lon="6.13167">
        <ele>1827.6</ele>
        <time>2024-08-09T11:03:24Z</time>
      </trkpt>
      <trkpt lat="45.08126" lon="6.13168">
        <ele>1827.8</ele>
        <time>2024-08-09T11:03:25Z</time>
      </trkpt>
      <trkpt lat="45.08126" lon="6.13168">
        <ele>1828</ele>
        <time>2024-08-09T11:03:26Z</time>
      </trkpt>
      <trkpt lat="45.08128" lon="6.1317">
        <ele>1828</ele>
        <time>2024-08-09T11:03:27Z</time>
      </trkpt>
      <trkpt lat="45.08128" lon="6.1317">
        <ele>1828</ele>
        <time>2024-08-09T11:03:28Z</time>
      </trkpt>
      <trkpt lat="45.0813" lon="6.13171">
        <ele>1828.2</ele>
        <time>2024-08-09T11:03:29Z</time>
      </trkpt>
      <trkpt lat="45.0813" lon="6.13171">
        <ele>1828.6</ele>
        <time>2024-08-09T11:03:30Z</time>
      </trkpt>
      <trkpt lat="45.0813" lon="6.13171">
        <ele>1828.8</ele>
        <time>2024-08-09T11:03:31Z</time>
      </trkpt>
      <trkpt lat="45.0813" lon="6.13171">
        <ele>1829.2</ele>
        <time>2024-08-09T11:03:32Z</time>
      </trkpt>
      <trkpt lat="45.0813" lon="6.13171">
        <ele>1829.2</ele>
        <time>2024-08-09T11:03:33Z</time>
      </trkpt>
      <trkpt lat="45.08132" lon="6.13173">
        <ele>1829.6</ele>
        <time>2024-08-09T11:03:34Z</time>
      </trkpt>
      <trkpt lat="45.08132" lon="6.13173">
        <ele>1830</ele>
        <time>2024-08-09T11:03:35Z</time>
      </trkpt>
      <trkpt lat="45.08132" lon="6.13173">
        <ele>1830</ele>
        <time>2024-08-09T11:03:36Z</time>
      </trkpt>
      <trkpt lat="45.08132" lon="6.13173">
        <ele>1829.8</ele>
        <time>2024-08-09T11:03:37Z</time>
      </trkpt>
      <trkpt lat="45.08132" lon="6.13173">
        <ele>1829.6</ele>
        <time>2024-08-09T11:03:38Z</time>
      </trkpt>
      <trkpt lat="45.08132" lon="6.13173">
        <ele>1829.6</ele>
        <time>2024-08-09T11:03:39Z</time>
      </trkpt>
      <trkpt lat="45.08132" lon="6.13173">
        <ele>1829.6</ele>
        <time>2024-08-09T11:03:40Z</time>
      </trkpt>
      <trkpt lat="45.08132" lon="6.13173">
        <ele>1829.6</ele>
        <time>2024-08-09T11:03:41Z</time>
      </trkpt>
      <trkpt lat="45.08132" lon="6.13173">
        <ele>1829.6</ele>
        <time>2024-08-09T11:03:42Z</time>
      </trkpt>
      <trkpt lat="45.08132" lon="6.13173">
        <ele>1829.6</ele>
        <time>2024-08-09T11:03:43Z</time>
      </trkpt>
      <trkpt lat="45.08132" lon="6.13173">
        <ele>1830</ele>
        <time>2024-08-09T11:03:44Z</time>
      </trkpt>
      <trkpt lat="45.08133" lon="6.13174">
        <ele>1830</ele>
        <time>2024-08-09T11:03:45Z</time>
      </trkpt>
      <trkpt lat="45.08133" lon="6.13174">
        <ele>1829.6</ele>
        <time>2024-08-09T11:03:46Z</time>
      </trkpt>
      <trkpt lat="45.08133" lon="6.13174">
        <ele>1829.6</ele>
        <time>2024-08-09T11:03:47Z</time>
      </trkpt>
      <trkpt lat="45.08135" lon="6.13178">
        <ele>1829.8</ele>
        <time>2024-08-09T11:03:48Z</time>
      </trkpt>
      <trkpt lat="45.08135" lon="6.13178">
        <ele>1830</ele>
        <time>2024-08-09T11:03:49Z</time>
      </trkpt>
      <trkpt lat="45.08136" lon="6.13182">
        <ele>1830.4</ele>
        <time>2024-08-09T11:03:50Z</time>
      </trkpt>
      <trkpt lat="45.08136" lon="6.13182">
        <ele>1830.4</ele>
        <time>2024-08-09T11:03:51Z</time>
      </trkpt>
      <trkpt lat="45.08135" lon="6.13186">
        <ele>1830.4</ele>
        <time>2024-08-09T11:03:52Z</time>
      </trkpt>
      <trkpt lat="45.08135" lon="6.13186">
        <ele>1830.4</ele>
        <time>2024-08-09T11:03:53Z</time>
      </trkpt>
      <trkpt lat="45.08133" lon="6.13189">
        <ele>1830</ele>
        <time>2024-08-09T11:03:54Z</time>
      </trkpt>
      <trkpt lat="45.08133" lon="6.13189">
        <ele>1829.8</ele>
        <time>2024-08-09T11:03:55Z</time>
      </trkpt>
      <trkpt lat="45.08132" lon="6.1319">
        <ele>1829.8</ele>
        <time>2024-08-09T11:03:56Z</time>
      </trkpt>
      <trkpt lat="45.08132" lon="6.1319">
        <ele>1829.8</ele>
        <time>2024-08-09T11:03:57Z</time>
      </trkpt>
      <trkpt lat="45.0813" lon="6.13191">
        <ele>1830.2</ele>
        <time>2024-08-09T11:03:58Z</time>
      </trkpt>
      <trkpt lat="45.0813" lon="6.13191">
        <ele>1830.2</ele>
        <time>2024-08-09T11:03:59Z</time>
      </trkpt>
      <trkpt lat="45.0813" lon="6.13191">
        <ele>1830.2</ele>
        <time>2024-08-09T11:04:00Z</time>
      </trkpt>
      <trkpt lat="45.08127" lon="6.13193">
        <ele>1830.2</ele>
        <time>2024-08-09T11:04:01Z</time>
      </trkpt>
      <trkpt lat="45.08127" lon="6.13193">
        <ele>1830.4</ele>
        <time>2024-08-09T11:04:02Z</time>
      </trkpt>
      <trkpt lat="45.08126" lon="6.13195">
        <ele>1830.4</ele>
        <time>2024-08-09T11:04:03Z</time>
      </trkpt>
      <trkpt lat="45.08126" lon="6.13195">
        <ele>1830.6</ele>
        <time>2024-08-09T11:04:04Z</time>
      </trkpt>
      <trkpt lat="45.08124" lon="6.13197">
        <ele>1830.6</ele>
        <time>2024-08-09T11:04:05Z</time>
      </trkpt>
      <trkpt lat="45.08124" lon="6.13197">
        <ele>1830.8</ele>
        <time>2024-08-09T11:04:06Z</time>
      </trkpt>
      <trkpt lat="45.08121" lon="6.13199">
        <ele>1831</ele>
        <time>2024-08-09T11:04:07Z</time>
      </trkpt>
      <trkpt lat="45.08121" lon="6.13199">
        <ele>1831.2</ele>
        <time>2024-08-09T11:04:08Z</time>
      </trkpt>
      <trkpt lat="45.08119" lon="6.13201">
        <ele>1831.4</ele>
        <time>2024-08-09T11:04:09Z</time>
      </trkpt>
      <trkpt lat="45.08119" lon="6.13201">
        <ele>1831.4</ele>
        <time>2024-08-09T11:04:10Z</time>
      </trkpt>
      <trkpt lat="45.08117" lon="6.13203">
        <ele>1831.6</ele>
        <time>2024-08-09T11:04:11Z</time>
      </trkpt>
      <trkpt lat="45.08117" lon="6.13203">
        <ele>1831.8</ele>
        <time>2024-08-09T11:04:12Z</time>
      </trkpt>
      <trkpt lat="45.08115" lon="6.13204">
        <ele>1831.8</ele>
        <time>2024-08-09T11:04:13Z</time>
      </trkpt>
      <trkpt lat="45.08115" lon="6.13204">
        <ele>1832</ele>
        <time>2024-08-09T11:04:14Z</time>
      </trkpt>
      <trkpt lat="45.08115" lon="6.13204">
        <ele>1832.2</ele>
        <time>2024-08-09T11:04:15Z</time>
      </trkpt>
      <trkpt lat="45.08115" lon="6.13204">
        <ele>1832.2</ele>
        <time>2024-08-09T11:04:16Z</time>
      </trkpt>
      <trkpt lat="45.08115" lon="6.13204">
        <ele>1832.2</ele>
        <time>2024-08-09T11:04:17Z</time>
      </trkpt>
      <trkpt lat="45.08115" lon="6.13204">
        <ele>1832</ele>
        <time>2024-08-09T11:04:18Z</time>
      </trkpt>
      <trkpt lat="45.08115" lon="6.13204">
        <ele>1832.2</ele>
        <time>2024-08-09T11:04:19Z</time>
      </trkpt>
      <trkpt lat="45.08115" lon="6.13204">
        <ele>1832.2</ele>
        <time>2024-08-09T11:04:20Z</time>
      </trkpt>
      <trkpt lat="45.08115" lon="6.13204">
        <ele>1832.4</ele>
        <time>2024-08-09T11:04:21Z</time>
      </trkpt>
      <trkpt lat="45.08115" lon="6.13204">
        <ele>1832.4</ele>
        <time>2024-08-09T11:04:22Z</time>
      </trkpt>
      <trkpt lat="45.08115" lon="6.13204">
        <ele>1832.4</ele>
        <time>2024-08-09T11:04:23Z</time>
      </trkpt>
      <trkpt lat="45.08115" lon="6.13204">
        <ele>1832.4</ele>
        <time>2024-08-09T11:04:24Z</time>
      </trkpt>
      <trkpt lat="45.08112" lon="6.13206">
        <ele>1832.4</ele>
        <time>2024-08-09T11:04:25Z</time>
      </trkpt>
      <trkpt lat="45.08112" lon="6.13206">
        <ele>1832.4</ele>
        <time>2024-08-09T11:04:26Z</time>
      </trkpt>
      <trkpt lat="45.08109" lon="6.13208">
        <ele>1832.6</ele>
        <time>2024-08-09T11:04:27Z</time>
      </trkpt>
      <trkpt lat="45.08109" lon="6.13208">
        <ele>1832.6</ele>
        <time>2024-08-09T11:04:28Z</time>
      </trkpt>
      <trkpt lat="45.08106" lon="6.13211">
        <ele>1832.6</ele>
        <time>2024-08-09T11:04:29Z</time>
      </trkpt>
      <trkpt lat="45.08106" lon="6.13211">
        <ele>1832.6</ele>
        <time>2024-08-09T11:04:30Z</time>
      </trkpt>
      <trkpt lat="45.08103" lon="6.13213">
        <ele>1832.8</ele>
        <time>2024-08-09T11:04:31Z</time>
      </trkpt>
      <trkpt lat="45.08103" lon="6.13213">
        <ele>1832.8</ele>
        <time>2024-08-09T11:04:32Z</time>
      </trkpt>
      <trkpt lat="45.08101" lon="6.13214">
        <ele>1832.8</ele>
        <time>2024-08-09T11:04:33Z</time>
      </trkpt>
      <trkpt lat="45.08101" lon="6.13214">
        <ele>1832.8</ele>
        <time>2024-08-09T11:04:34Z</time>
      </trkpt>
      <trkpt lat="45.08098" lon="6.13214">
        <ele>1833.2</ele>
        <time>2024-08-09T11:04:35Z</time>
      </trkpt>
      <trkpt lat="45.08098" lon="6.13214">
        <ele>1833.4</ele>
        <time>2024-08-09T11:04:36Z</time>
      </trkpt>
      <trkpt lat="45.08095" lon="6.13215">
        <ele>1833.6</ele>
        <time>2024-08-09T11:04:37Z</time>
      </trkpt>
      <trkpt lat="45.08095" lon="6.13215">
        <ele>1833.6</ele>
        <time>2024-08-09T11:04:38Z</time>
      </trkpt>
      <trkpt lat="45.08093" lon="6.13215">
        <ele>1833.6</ele>
        <time>2024-08-09T11:04:39Z</time>
      </trkpt>
      <trkpt lat="45.08093" lon="6.13215">
        <ele>1833.6</ele>
        <time>2024-08-09T11:04:40Z</time>
      </trkpt>
      <trkpt lat="45.0809" lon="6.13216">
        <ele>1833.8</ele>
        <time>2024-08-09T11:04:41Z</time>
      </trkpt>
      <trkpt lat="45.0809" lon="6.13216">
        <ele>1834</ele>
        <time>2024-08-09T11:04:42Z</time>
      </trkpt>
      <trkpt lat="45.08087" lon="6.13216">
        <ele>1834</ele>
        <time>2024-08-09T11:04:43Z</time>
      </trkpt>
      <trkpt lat="45.08087" lon="6.13216">
        <ele>1834</ele>
        <time>2024-08-09T11:04:44Z</time>
      </trkpt>
      <trkpt lat="45.08084" lon="6.13216">
        <ele>1834.2</ele>
        <time>2024-08-09T11:04:45Z</time>
      </trkpt>
      <trkpt lat="45.08084" lon="6.13216">
        <ele>1834.6</ele>
        <time>2024-08-09T11:04:46Z</time>
      </trkpt>
      <trkpt lat="45.08082" lon="6.13216">
        <ele>1834.6</ele>
        <time>2024-08-09T11:04:47Z</time>
      </trkpt>
      <trkpt lat="45.08082" lon="6.13216">
        <ele>1834.8</ele>
        <time>2024-08-09T11:04:48Z</time>
      </trkpt>
      <trkpt lat="45.08079" lon="6.13215">
        <ele>1834.8</ele>
        <time>2024-08-09T11:04:49Z</time>
      </trkpt>
      <trkpt lat="45.08079" lon="6.13215">
        <ele>1835</ele>
        <time>2024-08-09T11:04:50Z</time>
      </trkpt>
      <trkpt lat="45.08077" lon="6.13214">
        <ele>1835</ele>
        <time>2024-08-09T11:04:51Z</time>
      </trkpt>
      <trkpt lat="45.08077" lon="6.13214">
        <ele>1835</ele>
        <time>2024-08-09T11:04:52Z</time>
      </trkpt>
      <trkpt lat="45.08074" lon="6.13214">
        <ele>1835</ele>
        <time>2024-08-09T11:04:53Z</time>
      </trkpt>
      <trkpt lat="45.08074" lon="6.13214">
        <ele>1835.2</ele>
        <time>2024-08-09T11:04:54Z</time>
      </trkpt>
      <trkpt lat="45.08071" lon="6.13213">
        <ele>1835.2</ele>
        <time>2024-08-09T11:04:55Z</time>
      </trkpt>
      <trkpt lat="45.08071" lon="6.13213">
        <ele>1835.2</ele>
        <time>2024-08-09T11:04:56Z</time>
      </trkpt>
      <trkpt lat="45.08069" lon="6.13213">
        <ele>1835.2</ele>
        <time>2024-08-09T11:04:57Z</time>
      </trkpt>
      <trkpt lat="45.08069" lon="6.13213">
        <ele>1835.2</ele>
        <time>2024-08-09T11:04:58Z</time>
      </trkpt>
      <trkpt lat="45.08067" lon="6.13213">
        <ele>1835.2</ele>
        <time>2024-08-09T11:04:59Z</time>
      </trkpt>
      <trkpt lat="45.08067" lon="6.13213">
        <ele>1835.4</ele>
        <time>2024-08-09T11:05:00Z</time>
      </trkpt>
      <trkpt lat="45.08064" lon="6.13213">
        <ele>1835.6</ele>
        <time>2024-08-09T11:05:01Z</time>
      </trkpt>
      <trkpt lat="45.08064" lon="6.13213">
        <ele>1835.8</ele>
        <time>2024-08-09T11:05:02Z</time>
      </trkpt>
      <trkpt lat="45.08061" lon="6.13211">
        <ele>1835.8</ele>
        <time>2024-08-09T11:05:03Z</time>
      </trkpt>
      <trkpt lat="45.08061" lon="6.13211">
        <ele>1836</ele>
        <time>2024-08-09T11:05:04Z</time>
      </trkpt>
      <trkpt lat="45.08061" lon="6.13211">
        <ele>1836</ele>
        <time>2024-08-09T11:05:05Z</time>
      </trkpt>
      <trkpt lat="45.08061" lon="6.13211">
        <ele>1836.2</ele>
        <time>2024-08-09T11:05:06Z</time>
      </trkpt>
      <trkpt lat="45.08061" lon="6.13211">
        <ele>1836.8</ele>
        <time>2024-08-09T11:05:07Z</time>
      </trkpt>
      <trkpt lat="45.08061" lon="6.13211">
        <ele>1836.8</ele>
        <time>2024-08-09T11:05:08Z</time>
      </trkpt>
      <trkpt lat="45.08061" lon="6.13211">
        <ele>1836.6</ele>
        <time>2024-08-09T11:05:09Z</time>
      </trkpt>
      <trkpt lat="45.08061" lon="6.13211">
        <ele>1836.6</ele>
        <time>2024-08-09T11:05:10Z</time>
      </trkpt>
      <trkpt lat="45.08061" lon="6.13211">
        <ele>1836.8</ele>
        <time>2024-08-09T11:05:11Z</time>
      </trkpt>
      <trkpt lat="45.08061" lon="6.13211">
        <ele>1837</ele>
        <time>2024-08-09T11:05:12Z</time>
      </trkpt>
      <trkpt lat="45.08061" lon="6.13211">
        <ele>1837</ele>
        <time>2024-08-09T11:05:13Z</time>
      </trkpt>
      <trkpt lat="45.08061" lon="6.13211">
        <ele>1837</ele>
        <time>2024-08-09T11:05:14Z</time>
      </trkpt>
      <trkpt lat="45.08061" lon="6.13211">
        <ele>1837</ele>
        <time>2024-08-09T11:05:15Z</time>
      </trkpt>
      <trkpt lat="45.08061" lon="6.13211">
        <ele>1836.8</ele>
        <time>2024-08-09T11:05:16Z</time>
      </trkpt>
      <trkpt lat="45.08061" lon="6.13211">
        <ele>1836.8</ele>
        <time>2024-08-09T11:05:17Z</time>
      </trkpt>
      <trkpt lat="45.08061" lon="6.13211">
        <ele>1837</ele>
        <time>2024-08-09T11:05:18Z</time>
      </trkpt>
      <trkpt lat="45.08061" lon="6.13211">
        <ele>1837</ele>
        <time>2024-08-09T11:05:19Z</time>
      </trkpt>
      <trkpt lat="45.08061" lon="6.13211">
        <ele>1837</ele>
        <time>2024-08-09T11:05:20Z</time>
      </trkpt>
      <trkpt lat="45.08061" lon="6.13211">
        <ele>1837</ele>
        <time>2024-08-09T11:05:21Z</time>
      </trkpt>
      <trkpt lat="45.08061" lon="6.13211">
        <ele>1837</ele>
        <time>2024-08-09T11:05:22Z</time>
      </trkpt>
      <trkpt lat="45.08061" lon="6.13211">
        <ele>1836.8</ele>
        <time>2024-08-09T11:05:23Z</time>
      </trkpt>
      <trkpt lat="45.08061" lon="6.13211">
        <ele>1836.8</ele>
        <time>2024-08-09T11:05:24Z</time>
      </trkpt>
      <trkpt lat="45.08061" lon="6.13211">
        <ele>1837</ele>
        <time>2024-08-09T11:05:25Z</time>
      </trkpt>
      <trkpt lat="45.08061" lon="6.13211">
        <ele>1837</ele>
        <time>2024-08-09T11:05:26Z</time>
      </trkpt>
      <trkpt lat="45.08061" lon="6.13214">
        <ele>1837</ele>
        <time>2024-08-09T11:05:27Z</time>
      </trkpt>
      <trkpt lat="45.08061" lon="6.13214">
        <ele>1837</ele>
        <time>2024-08-09T11:05:28Z</time>
      </trkpt>
      <trkpt lat="45.0806" lon="6.13218">
        <ele>1837</ele>
        <time>2024-08-09T11:05:29Z</time>
      </trkpt>
      <trkpt lat="45.0806" lon="6.13218">
        <ele>1837</ele>
        <time>2024-08-09T11:05:30Z</time>
      </trkpt>
      <trkpt lat="45.08058" lon="6.13222">
        <ele>1836.8</ele>
        <time>2024-08-09T11:05:31Z</time>
      </trkpt>
      <trkpt lat="45.08058" lon="6.13222">
        <ele>1836.8</ele>
        <time>2024-08-09T11:05:32Z</time>
      </trkpt>
      <trkpt lat="45.08056" lon="6.13223">
        <ele>1836.8</ele>
        <time>2024-08-09T11:05:33Z</time>
      </trkpt>
      <trkpt lat="45.08056" lon="6.13223">
        <ele>1836.8</ele>
        <time>2024-08-09T11:05:34Z</time>
      </trkpt>
      <trkpt lat="45.08053" lon="6.13224">
        <ele>1836.8</ele>
        <time>2024-08-09T11:05:35Z</time>
      </trkpt>
      <trkpt lat="45.08053" lon="6.13224">
        <ele>1836.8</ele>
        <time>2024-08-09T11:05:36Z</time>
      </trkpt>
      <trkpt lat="45.08051" lon="6.13224">
        <ele>1837.2</ele>
        <time>2024-08-09T11:05:37Z</time>
      </trkpt>
      <trkpt lat="45.08051" lon="6.13224">
        <ele>1837.2</ele>
        <time>2024-08-09T11:05:38Z</time>
      </trkpt>
      <trkpt lat="45.08049" lon="6.13225">
        <ele>1837.2</ele>
        <time>2024-08-09T11:05:39Z</time>
      </trkpt>
      <trkpt lat="45.08049" lon="6.13225">
        <ele>1837.2</ele>
        <time>2024-08-09T11:05:40Z</time>
      </trkpt>
      <trkpt lat="45.08049" lon="6.13225">
        <ele>1837.2</ele>
        <time>2024-08-09T11:05:41Z</time>
      </trkpt>
      <trkpt lat="45.08049" lon="6.13225">
        <ele>1837.4</ele>
        <time>2024-08-09T11:05:42Z</time>
      </trkpt>
      <trkpt lat="45.08049" lon="6.13225">
        <ele>1837.4</ele>
        <time>2024-08-09T11:05:43Z</time>
      </trkpt>
      <trkpt lat="45.08049" lon="6.13225">
        <ele>1837.6</ele>
        <time>2024-08-09T11:05:44Z</time>
      </trkpt>
      <trkpt lat="45.08047" lon="6.13226">
        <ele>1837.8</ele>
        <time>2024-08-09T11:05:45Z</time>
      </trkpt>
      <trkpt lat="45.08047" lon="6.13226">
        <ele>1838</ele>
        <time>2024-08-09T11:05:46Z</time>
      </trkpt>
      <trkpt lat="45.08045" lon="6.13226">
        <ele>1838</ele>
        <time>2024-08-09T11:05:47Z</time>
      </trkpt>
      <trkpt lat="45.08045" lon="6.13226">
        <ele>1838</ele>
        <time>2024-08-09T11:05:48Z</time>
      </trkpt>
      <trkpt lat="45.08043" lon="6.13227">
        <ele>1838.2</ele>
        <time>2024-08-09T11:05:49Z</time>
      </trkpt>
      <trkpt lat="45.08043" lon="6.13227">
        <ele>1838.4</ele>
        <time>2024-08-09T11:05:50Z</time>
      </trkpt>
      <trkpt lat="45.08043" lon="6.13227">
        <ele>1838.4</ele>
        <time>2024-08-09T11:05:51Z</time>
      </trkpt>
      <trkpt lat="45.08041" lon="6.13229">
        <ele>1838.6</ele>
        <time>2024-08-09T11:05:52Z</time>
      </trkpt>
      <trkpt lat="45.08041" lon="6.13229">
        <ele>1838.6</ele>
        <time>2024-08-09T11:05:53Z</time>
      </trkpt>
      <trkpt lat="45.08039" lon="6.1323">
        <ele>1839.2</ele>
        <time>2024-08-09T11:05:54Z</time>
      </trkpt>
      <trkpt lat="45.08039" lon="6.1323">
        <ele>1839.2</ele>
        <time>2024-08-09T11:05:55Z</time>
      </trkpt>
      <trkpt lat="45.08037" lon="6.13232">
        <ele>1839.6</ele>
        <time>2024-08-09T11:05:56Z</time>
      </trkpt>
      <trkpt lat="45.08037" lon="6.13232">
        <ele>1839.6</ele>
        <time>2024-08-09T11:05:57Z</time>
      </trkpt>
      <trkpt lat="45.08035" lon="6.13233">
        <ele>1839.6</ele>
        <time>2024-08-09T11:05:58Z</time>
      </trkpt>
      <trkpt lat="45.08035" lon="6.13233">
        <ele>1840</ele>
        <time>2024-08-09T11:05:59Z</time>
      </trkpt>
      <trkpt lat="45.08035" lon="6.13233">
        <ele>1840.2</ele>
        <time>2024-08-09T11:06:00Z</time>
      </trkpt>
      <trkpt lat="45.08034" lon="6.13236">
        <ele>1840.6</ele>
        <time>2024-08-09T11:06:01Z</time>
      </trkpt>
      <trkpt lat="45.08034" lon="6.13236">
        <ele>1840.8</ele>
        <time>2024-08-09T11:06:02Z</time>
      </trkpt>
      <trkpt lat="45.08033" lon="6.13238">
        <ele>1841</ele>
        <time>2024-08-09T11:06:03Z</time>
      </trkpt>
      <trkpt lat="45.08033" lon="6.13238">
        <ele>1841</ele>
        <time>2024-08-09T11:06:04Z</time>
      </trkpt>
      <trkpt lat="45.08033" lon="6.13238">
        <ele>1841.2</ele>
        <time>2024-08-09T11:06:05Z</time>
      </trkpt>
      <trkpt lat="45.08031" lon="6.1324">
        <ele>1841.4</ele>
        <time>2024-08-09T11:06:06Z</time>
      </trkpt>
      <trkpt lat="45.08031" lon="6.1324">
        <ele>1841.6</ele>
        <time>2024-08-09T11:06:07Z</time>
      </trkpt>
      <trkpt lat="45.08031" lon="6.1324">
        <ele>1841.8</ele>
        <time>2024-08-09T11:06:08Z</time>
      </trkpt>
      <trkpt lat="45.08031" lon="6.13243">
        <ele>1842</ele>
        <time>2024-08-09T11:06:09Z</time>
      </trkpt>
      <trkpt lat="45.08031" lon="6.13243">
        <ele>1842.2</ele>
        <time>2024-08-09T11:06:10Z</time>
      </trkpt>
      <trkpt lat="45.0803" lon="6.13246">
        <ele>1842.2</ele>
        <time>2024-08-09T11:06:11Z</time>
      </trkpt>
      <trkpt lat="45.0803" lon="6.13246">
        <ele>1842.2</ele>
        <time>2024-08-09T11:06:12Z</time>
      </trkpt>
      <trkpt lat="45.0803" lon="6.13246">
        <ele>1842</ele>
        <time>2024-08-09T11:06:13Z</time>
      </trkpt>
      <trkpt lat="45.0803" lon="6.13249">
        <ele>1842.2</ele>
        <time>2024-08-09T11:06:14Z</time>
      </trkpt>
      <trkpt lat="45.0803" lon="6.13249">
        <ele>1842.2</ele>
        <time>2024-08-09T11:06:15Z</time>
      </trkpt>
      <trkpt lat="45.0803" lon="6.13249">
        <ele>1842.2</ele>
        <time>2024-08-09T11:06:16Z</time>
      </trkpt>
      <trkpt lat="45.08029" lon="6.13251">
        <ele>1842.6</ele>
        <time>2024-08-09T11:06:17Z</time>
      </trkpt>
      <trkpt lat="45.08029" lon="6.13251">
        <ele>1842.8</ele>
        <time>2024-08-09T11:06:18Z</time>
      </trkpt>
      <trkpt lat="45.08029" lon="6.13251">
        <ele>1842.8</ele>
        <time>2024-08-09T11:06:19Z</time>
      </trkpt>
      <trkpt lat="45.08029" lon="6.13251">
        <ele>1843.2</ele>
        <time>2024-08-09T11:06:20Z</time>
      </trkpt>
      <trkpt lat="45.08029" lon="6.13251">
        <ele>1843.2</ele>
        <time>2024-08-09T11:06:21Z</time>
      </trkpt>
      <trkpt lat="45.08029" lon="6.13251">
        <ele>1843.2</ele>
        <time>2024-08-09T11:06:23Z</time>
      </trkpt>
      <trkpt lat="45.0803" lon="6.13249">
        <ele>1842.8</ele>
        <time>2024-08-09T11:06:24Z</time>
      </trkpt>
      <trkpt lat="45.0803" lon="6.13249">
        <ele>1842.4</ele>
        <time>2024-08-09T11:06:25Z</time>
      </trkpt>
      <trkpt lat="45.0803" lon="6.13249">
        <ele>1842.4</ele>
        <time>2024-08-09T11:06:26Z</time>
      </trkpt>
      <trkpt lat="45.0803" lon="6.13249">
        <ele>1842.4</ele>
        <time>2024-08-09T11:06:27Z</time>
      </trkpt>
      <trkpt lat="45.0803" lon="6.13249">
        <ele>1842.4</ele>
        <time>2024-08-09T11:06:28Z</time>
      </trkpt>
      <trkpt lat="45.0803" lon="6.13249">
        <ele>1842.4</ele>
        <time>2024-08-09T11:06:29Z</time>
      </trkpt>
      <trkpt lat="45.0803" lon="6.13249">
        <ele>1842.4</ele>
        <time>2024-08-09T11:06:30Z</time>
      </trkpt>
      <trkpt lat="45.0803" lon="6.13249">
        <ele>1842.2</ele>
        <time>2024-08-09T11:06:31Z</time>
      </trkpt>
      <trkpt lat="45.0803" lon="6.13249">
        <ele>1842.2</ele>
        <time>2024-08-09T11:06:32Z</time>
      </trkpt>
      <trkpt lat="45.0803" lon="6.13249">
        <ele>1842.2</ele>
        <time>2024-08-09T11:06:33Z</time>
      </trkpt>
      <trkpt lat="45.0803" lon="6.13249">
        <ele>1842.4</ele>
        <time>2024-08-09T11:06:34Z</time>
      </trkpt>
      <trkpt lat="45.0803" lon="6.13249">
        <ele>1842.6</ele>
        <time>2024-08-09T11:06:35Z</time>
      </trkpt>
      <trkpt lat="45.0803" lon="6.13249">
        <ele>1842.6</ele>
        <time>2024-08-09T11:06:36Z</time>
      </trkpt>
      <trkpt lat="45.0803" lon="6.13249">
        <ele>1842.4</ele>
        <time>2024-08-09T11:06:37Z</time>
      </trkpt>
      <trkpt lat="45.0803" lon="6.13249">
        <ele>1842.4</ele>
        <time>2024-08-09T11:06:38Z</time>
      </trkpt>
      <trkpt lat="45.0803" lon="6.13249">
        <ele>1842.2</ele>
        <time>2024-08-09T11:06:39Z</time>
      </trkpt>
      <trkpt lat="45.0803" lon="6.13249">
        <ele>1842</ele>
        <time>2024-08-09T11:06:40Z</time>
      </trkpt>
      <trkpt lat="45.0803" lon="6.13249">
        <ele>1841.8</ele>
        <time>2024-08-09T11:06:41Z</time>
      </trkpt>
      <trkpt lat="45.0803" lon="6.13249">
        <ele>1841.8</ele>
        <time>2024-08-09T11:06:42Z</time>
      </trkpt>
      <trkpt lat="45.0803" lon="6.13249">
        <ele>1841.8</ele>
        <time>2024-08-09T11:06:43Z</time>
      </trkpt>
      <trkpt lat="45.0803" lon="6.13249">
        <ele>1841.6</ele>
        <time>2024-08-09T11:06:44Z</time>
      </trkpt>
      <trkpt lat="45.0803" lon="6.13249">
        <ele>1841.6</ele>
        <time>2024-08-09T11:06:45Z</time>
      </trkpt>
      <trkpt lat="45.0803" lon="6.13249">
        <ele>1842</ele>
        <time>2024-08-09T11:06:46Z</time>
      </trkpt>
      <trkpt lat="45.0803" lon="6.13249">
        <ele>1842</ele>
        <time>2024-08-09T11:06:47Z</time>
      </trkpt>
      <trkpt lat="45.0803" lon="6.13249">
        <ele>1842</ele>
        <time>2024-08-09T11:06:48Z</time>
      </trkpt>
      <trkpt lat="45.0803" lon="6.13249">
        <ele>1842.2</ele>
        <time>2024-08-09T11:06:49Z</time>
      </trkpt>
      <trkpt lat="45.0803" lon="6.13249">
        <ele>1842.4</ele>
        <time>2024-08-09T11:06:50Z</time>
      </trkpt>
      <trkpt lat="45.0803" lon="6.13249">
        <ele>1842.4</ele>
        <time>2024-08-09T11:06:51Z</time>
      </trkpt>
      <trkpt lat="45.0803" lon="6.13249">
        <ele>1842.6</ele>
        <time>2024-08-09T11:06:52Z</time>
      </trkpt>
      <trkpt lat="45.0803" lon="6.13249">
        <ele>1842.6</ele>
        <time>2024-08-09T11:06:53Z</time>
      </trkpt>
      <trkpt lat="45.0803" lon="6.13249">
        <ele>1842.4</ele>
        <time>2024-08-09T11:06:54Z</time>
      </trkpt>
      <trkpt lat="45.0803" lon="6.13249">
        <ele>1842.4</ele>
        <time>2024-08-09T11:06:55Z</time>
      </trkpt>
      <trkpt lat="45.0803" lon="6.13249">
        <ele>1842.4</ele>
        <time>2024-08-09T11:06:56Z</time>
      </trkpt>
      <trkpt lat="45.0803" lon="6.13249">
        <ele>1842.6</ele>
        <time>2024-08-09T11:06:57Z</time>
      </trkpt>
      <trkpt lat="45.0803" lon="6.13249">
        <ele>1842.6</ele>
        <time>2024-08-09T11:06:58Z</time>
      </trkpt>
      <trkpt lat="45.0803" lon="6.13249">
        <ele>1842.6</ele>
        <time>2024-08-09T11:06:59Z</time>
      </trkpt>
      <trkpt lat="45.0803" lon="6.13249">
        <ele>1842.6</ele>
        <time>2024-08-09T11:07:00Z</time>
      </trkpt>
      <trkpt lat="45.0803" lon="6.13249">
        <ele>1842.8</ele>
        <time>2024-08-09T11:07:01Z</time>
      </trkpt>
      <trkpt lat="45.0803" lon="6.13249">
        <ele>1842.6</ele>
        <time>2024-08-09T11:07:02Z</time>
      </trkpt>
      <trkpt lat="45.0803" lon="6.13249">
        <ele>1842.6</ele>
        <time>2024-08-09T11:07:03Z</time>
      </trkpt>
      <trkpt lat="45.0803" lon="6.13249">
        <ele>1842.6</ele>
        <time>2024-08-09T11:07:04Z</time>
      </trkpt>
      <trkpt lat="45.0803" lon="6.13249">
        <ele>1842.8</ele>
        <time>2024-08-09T11:07:05Z</time>
      </trkpt>
      <trkpt lat="45.0803" lon="6.13249">
        <ele>1843</ele>
        <time>2024-08-09T11:07:06Z</time>
      </trkpt>
      <trkpt lat="45.0803" lon="6.13249">
        <ele>1843.4</ele>
        <time>2024-08-09T11:07:07Z</time>
      </trkpt>
      <trkpt lat="45.0803" lon="6.13249">
        <ele>1843.6</ele>
        <time>2024-08-09T11:07:08Z</time>
      </trkpt>
      <trkpt lat="45.08028" lon="6.13252">
        <ele>1843.8</ele>
        <time>2024-08-09T11:07:09Z</time>
      </trkpt>
      <trkpt lat="45.08028" lon="6.13252">
        <ele>1843.8</ele>
        <time>2024-08-09T11:07:10Z</time>
      </trkpt>
      <trkpt lat="45.08027" lon="6.13254">
        <ele>1843.8</ele>
        <time>2024-08-09T11:07:11Z</time>
      </trkpt>
      <trkpt lat="45.08027" lon="6.13254">
        <ele>1843.8</ele>
        <time>2024-08-09T11:07:12Z</time>
      </trkpt>
      <trkpt lat="45.08024" lon="6.13255">
        <ele>1844.4</ele>
        <time>2024-08-09T11:07:13Z</time>
      </trkpt>
      <trkpt lat="45.08024" lon="6.13255">
        <ele>1844.8</ele>
        <time>2024-08-09T11:07:14Z</time>
      </trkpt>
      <trkpt lat="45.08024" lon="6.13255">
        <ele>1844.8</ele>
        <time>2024-08-09T11:07:15Z</time>
      </trkpt>
      <trkpt lat="45.08023" lon="6.13257">
        <ele>1845</ele>
        <time>2024-08-09T11:07:16Z</time>
      </trkpt>
      <trkpt lat="45.08023" lon="6.13257">
        <ele>1845.8</ele>
        <time>2024-08-09T11:07:17Z</time>
      </trkpt>
      <trkpt lat="45.08021" lon="6.13259">
        <ele>1845.8</ele>
        <time>2024-08-09T11:07:18Z</time>
      </trkpt>
      <trkpt lat="45.08021" lon="6.13259">
        <ele>1846</ele>
        <time>2024-08-09T11:07:19Z</time>
      </trkpt>
      <trkpt lat="45.08021" lon="6.13259">
        <ele>1846</ele>
        <time>2024-08-09T11:07:20Z</time>
      </trkpt>
      <trkpt lat="45.08021" lon="6.13259">
        <ele>1846.2</ele>
        <time>2024-08-09T11:07:21Z</time>
      </trkpt>
      <trkpt lat="45.08019" lon="6.13262">
        <ele>1846.6</ele>
        <time>2024-08-09T11:07:22Z</time>
      </trkpt>
      <trkpt lat="45.08019" lon="6.13262">
        <ele>1846.6</ele>
        <time>2024-08-09T11:07:23Z</time>
      </trkpt>
      <trkpt lat="45.08019" lon="6.13262">
        <ele>1846.6</ele>
        <time>2024-08-09T11:07:24Z</time>
      </trkpt>
      <trkpt lat="45.08017" lon="6.13264">
        <ele>1847</ele>
        <time>2024-08-09T11:07:25Z</time>
      </trkpt>
      <trkpt lat="45.08017" lon="6.13264">
        <ele>1847.4</ele>
        <time>2024-08-09T11:07:26Z</time>
      </trkpt>
      <trkpt lat="45.08017" lon="6.13264">
        <ele>1847.6</ele>
        <time>2024-08-09T11:07:27Z</time>
      </trkpt>
      <trkpt lat="45.08014" lon="6.13264">
        <ele>1847.8</ele>
        <time>2024-08-09T11:07:28Z</time>
      </trkpt>
      <trkpt lat="45.08014" lon="6.13264">
        <ele>1848.2</ele>
        <time>2024-08-09T11:07:29Z</time>
      </trkpt>
      <trkpt lat="45.08013" lon="6.13264">
        <ele>1848.2</ele>
        <time>2024-08-09T11:07:30Z</time>
      </trkpt>
      <trkpt lat="45.08013" lon="6.13264">
        <ele>1848.6</ele>
        <time>2024-08-09T11:07:31Z</time>
      </trkpt>
      <trkpt lat="45.08011" lon="6.13264">
        <ele>1848.6</ele>
        <time>2024-08-09T11:07:32Z</time>
      </trkpt>
      <trkpt lat="45.08011" lon="6.13264">
        <ele>1848.6</ele>
        <time>2024-08-09T11:07:33Z</time>
      </trkpt>
      <trkpt lat="45.08011" lon="6.13264">
        <ele>1848.8</ele>
        <time>2024-08-09T11:07:34Z</time>
      </trkpt>
      <trkpt lat="45.08011" lon="6.13264">
        <ele>1848.8</ele>
        <time>2024-08-09T11:07:35Z</time>
      </trkpt>
      <trkpt lat="45.08011" lon="6.13264">
        <ele>1848.8</ele>
        <time>2024-08-09T11:07:36Z</time>
      </trkpt>
      <trkpt lat="45.08009" lon="6.13266">
        <ele>1848.8</ele>
        <time>2024-08-09T11:07:37Z</time>
      </trkpt>
      <trkpt lat="45.08009" lon="6.13266">
        <ele>1849</ele>
        <time>2024-08-09T11:07:38Z</time>
      </trkpt>
      <trkpt lat="45.08009" lon="6.13266">
        <ele>1849.2</ele>
        <time>2024-08-09T11:07:39Z</time>
      </trkpt>
      <trkpt lat="45.08008" lon="6.13269">
        <ele>1849.2</ele>
        <time>2024-08-09T11:07:40Z</time>
      </trkpt>
      <trkpt lat="45.08008" lon="6.13269">
        <ele>1849.8</ele>
        <time>2024-08-09T11:07:41Z</time>
      </trkpt>
      <trkpt lat="45.08008" lon="6.13269">
        <ele>1850</ele>
        <time>2024-08-09T11:07:42Z</time>
      </trkpt>
      <trkpt lat="45.08008" lon="6.13269">
        <ele>1850.2</ele>
        <time>2024-08-09T11:07:43Z</time>
      </trkpt>
      <trkpt lat="45.08006" lon="6.13271">
        <ele>1850.2</ele>
        <time>2024-08-09T11:07:44Z</time>
      </trkpt>
      <trkpt lat="45.08006" lon="6.13271">
        <ele>1850.2</ele>
        <time>2024-08-09T11:07:45Z</time>
      </trkpt>
      <trkpt lat="45.08006" lon="6.13271">
        <ele>1850.6</ele>
        <time>2024-08-09T11:07:46Z</time>
      </trkpt>
      <trkpt lat="45.08005" lon="6.13274">
        <ele>1850.6</ele>
        <time>2024-08-09T11:07:47Z</time>
      </trkpt>
      <trkpt lat="45.08005" lon="6.13274">
        <ele>1850.6</ele>
        <time>2024-08-09T11:07:48Z</time>
      </trkpt>
      <trkpt lat="45.08005" lon="6.13274">
        <ele>1851</ele>
        <time>2024-08-09T11:07:49Z</time>
      </trkpt>
      <trkpt lat="45.08005" lon="6.13274">
        <ele>1851</ele>
        <time>2024-08-09T11:07:50Z</time>
      </trkpt>
      <trkpt lat="45.08004" lon="6.13276">
        <ele>1851.4</ele>
        <time>2024-08-09T11:07:51Z</time>
      </trkpt>
      <trkpt lat="45.08004" lon="6.13276">
        <ele>1851.8</ele>
        <time>2024-08-09T11:07:52Z</time>
      </trkpt>
      <trkpt lat="45.08004" lon="6.13276">
        <ele>1852</ele>
        <time>2024-08-09T11:07:53Z</time>
      </trkpt>
      <trkpt lat="45.08004" lon="6.13276">
        <ele>1852.4</ele>
        <time>2024-08-09T11:07:54Z</time>
      </trkpt>
      <trkpt lat="45.08002" lon="6.13279">
        <ele>1852.4</ele>
        <time>2024-08-09T11:07:55Z</time>
      </trkpt>
      <trkpt lat="45.08002" lon="6.13279">
        <ele>1852.4</ele>
        <time>2024-08-09T11:07:56Z</time>
      </trkpt>
      <trkpt lat="45.08002" lon="6.13279">
        <ele>1852.8</ele>
        <time>2024-08-09T11:07:57Z</time>
      </trkpt>
      <trkpt lat="45.08001" lon="6.13281">
        <ele>1852.8</ele>
        <time>2024-08-09T11:07:58Z</time>
      </trkpt>
      <trkpt lat="45.08001" lon="6.13281">
        <ele>1852.8</ele>
        <time>2024-08-09T11:07:59Z</time>
      </trkpt>
      <trkpt lat="45.08" lon="6.13282">
        <ele>1853.4</ele>
        <time>2024-08-09T11:08:00Z</time>
      </trkpt>
      <trkpt lat="45.08" lon="6.13282">
        <ele>1853.6</ele>
        <time>2024-08-09T11:08:01Z</time>
      </trkpt>
      <trkpt lat="45.08" lon="6.13282">
        <ele>1853.8</ele>
        <time>2024-08-09T11:08:02Z</time>
      </trkpt>
      <trkpt lat="45.08" lon="6.13282">
        <ele>1854.2</ele>
        <time>2024-08-09T11:08:03Z</time>
      </trkpt>
      <trkpt lat="45.07997" lon="6.13282">
        <ele>1854.2</ele>
        <time>2024-08-09T11:08:04Z</time>
      </trkpt>
      <trkpt lat="45.07997" lon="6.13282">
        <ele>1854.2</ele>
        <time>2024-08-09T11:08:05Z</time>
      </trkpt>
      <trkpt lat="45.07997" lon="6.13282">
        <ele>1854.2</ele>
        <time>2024-08-09T11:08:06Z</time>
      </trkpt>
      <trkpt lat="45.07995" lon="6.13281">
        <ele>1854.6</ele>
        <time>2024-08-09T11:08:07Z</time>
      </trkpt>
      <trkpt lat="45.07995" lon="6.13281">
        <ele>1855</ele>
        <time>2024-08-09T11:08:08Z</time>
      </trkpt>
      <trkpt lat="45.07995" lon="6.13281">
        <ele>1855</ele>
        <time>2024-08-09T11:08:09Z</time>
      </trkpt>
      <trkpt lat="45.07995" lon="6.13281">
        <ele>1855.2</ele>
        <time>2024-08-09T11:08:10Z</time>
      </trkpt>
      <trkpt lat="45.07993" lon="6.13282">
        <ele>1855.4</ele>
        <time>2024-08-09T11:08:11Z</time>
      </trkpt>
      <trkpt lat="45.07993" lon="6.13282">
        <ele>1855.6</ele>
        <time>2024-08-09T11:08:12Z</time>
      </trkpt>
      <trkpt lat="45.07993" lon="6.13282">
        <ele>1855.6</ele>
        <time>2024-08-09T11:08:13Z</time>
      </trkpt>
      <trkpt lat="45.07993" lon="6.13282">
        <ele>1855.8</ele>
        <time>2024-08-09T11:08:14Z</time>
      </trkpt>
      <trkpt lat="45.07993" lon="6.13282">
        <ele>1855.8</ele>
        <time>2024-08-09T11:08:15Z</time>
      </trkpt>
      <trkpt lat="45.07993" lon="6.13282">
        <ele>1856</ele>
        <time>2024-08-09T11:08:16Z</time>
      </trkpt>
      <trkpt lat="45.0799" lon="6.13282">
        <ele>1856.2</ele>
        <time>2024-08-09T11:08:17Z</time>
      </trkpt>
      <trkpt lat="45.0799" lon="6.13282">
        <ele>1856.8</ele>
        <time>2024-08-09T11:08:18Z</time>
      </trkpt>
      <trkpt lat="45.0799" lon="6.13282">
        <ele>1856.8</ele>
        <time>2024-08-09T11:08:19Z</time>
      </trkpt>
      <trkpt lat="45.0799" lon="6.13282">
        <ele>1857.2</ele>
        <time>2024-08-09T11:08:20Z</time>
      </trkpt>
      <trkpt lat="45.07989" lon="6.13282">
        <ele>1857.4</ele>
        <time>2024-08-09T11:08:21Z</time>
      </trkpt>
      <trkpt lat="45.07989" lon="6.13282">
        <ele>1857.4</ele>
        <time>2024-08-09T11:08:22Z</time>
      </trkpt>
      <trkpt lat="45.07989" lon="6.13282">
        <ele>1857.4</ele>
        <time>2024-08-09T11:08:23Z</time>
      </trkpt>
      <trkpt lat="45.07987" lon="6.1328">
        <ele>1857.8</ele>
        <time>2024-08-09T11:08:24Z</time>
      </trkpt>
      <trkpt lat="45.07987" lon="6.1328">
        <ele>1858</ele>
        <time>2024-08-09T11:08:25Z</time>
      </trkpt>
      <trkpt lat="45.07987" lon="6.1328">
        <ele>1858.2</ele>
        <time>2024-08-09T11:08:26Z</time>
      </trkpt>
      <trkpt lat="45.07984" lon="6.1328">
        <ele>1858.6</ele>
        <time>2024-08-09T11:08:27Z</time>
      </trkpt>
      <trkpt lat="45.07984" lon="6.1328">
        <ele>1858.8</ele>
        <time>2024-08-09T11:08:28Z</time>
      </trkpt>
      <trkpt lat="45.07984" lon="6.1328">
        <ele>1858.8</ele>
        <time>2024-08-09T11:08:29Z</time>
      </trkpt>
      <trkpt lat="45.07984" lon="6.1328">
        <ele>1858.8</ele>
        <time>2024-08-09T11:08:30Z</time>
      </trkpt>
      <trkpt lat="45.07984" lon="6.1328">
        <ele>1859</ele>
        <time>2024-08-09T11:08:31Z</time>
      </trkpt>
      <trkpt lat="45.07984" lon="6.1328">
        <ele>1859</ele>
        <time>2024-08-09T11:08:32Z</time>
      </trkpt>
      <trkpt lat="45.07984" lon="6.1328">
        <ele>1859.2</ele>
        <time>2024-08-09T11:08:33Z</time>
      </trkpt>
      <trkpt lat="45.07984" lon="6.1328">
        <ele>1859.2</ele>
        <time>2024-08-09T11:08:34Z</time>
      </trkpt>
      <trkpt lat="45.07984" lon="6.1328">
        <ele>1859.8</ele>
        <time>2024-08-09T11:08:35Z</time>
      </trkpt>
      <trkpt lat="45.07984" lon="6.1328">
        <ele>1860</ele>
        <time>2024-08-09T11:08:36Z</time>
      </trkpt>
      <trkpt lat="45.07984" lon="6.1328">
        <ele>1860</ele>
        <time>2024-08-09T11:08:37Z</time>
      </trkpt>
      <trkpt lat="45.07984" lon="6.1328">
        <ele>1859.8</ele>
        <time>2024-08-09T11:08:38Z</time>
      </trkpt>
      <trkpt lat="45.07984" lon="6.1328">
        <ele>1859.8</ele>
        <time>2024-08-09T11:08:39Z</time>
      </trkpt>
      <trkpt lat="45.07984" lon="6.1328">
        <ele>1859.8</ele>
        <time>2024-08-09T11:08:40Z</time>
      </trkpt>
      <trkpt lat="45.07984" lon="6.1328">
        <ele>1859.6</ele>
        <time>2024-08-09T11:08:41Z</time>
      </trkpt>
      <trkpt lat="45.07985" lon="6.13283">
        <ele>1859.8</ele>
        <time>2024-08-09T11:08:42Z</time>
      </trkpt>
      <trkpt lat="45.07985" lon="6.13283">
        <ele>1859.8</ele>
        <time>2024-08-09T11:08:43Z</time>
      </trkpt>
      <trkpt lat="45.07986" lon="6.13288">
        <ele>1860</ele>
        <time>2024-08-09T11:08:44Z</time>
      </trkpt>
      <trkpt lat="45.07987" lon="6.1329">
        <ele>1860</ele>
        <time>2024-08-09T11:08:45Z</time>
      </trkpt>
      <trkpt lat="45.07987" lon="6.1329">
        <ele>1860</ele>
        <time>2024-08-09T11:08:46Z</time>
      </trkpt>
      <trkpt lat="45.07988" lon="6.13294">
        <ele>1860.4</ele>
        <time>2024-08-09T11:08:47Z</time>
      </trkpt>
      <trkpt lat="45.07989" lon="6.13297">
        <ele>1860.4</ele>
        <time>2024-08-09T11:08:48Z</time>
      </trkpt>
      <trkpt lat="45.07989" lon="6.13298">
        <ele>1860.4</ele>
        <time>2024-08-09T11:08:49Z</time>
      </trkpt>
      <trkpt lat="45.0799" lon="6.13299">
        <ele>1860.2</ele>
        <time>2024-08-09T11:08:50Z</time>
      </trkpt>
      <trkpt lat="45.0799" lon="6.133">
        <ele>1860.4</ele>
        <time>2024-08-09T11:08:51Z</time>
      </trkpt>
      <trkpt lat="45.07992" lon="6.13303">
        <ele>1860.4</ele>
        <time>2024-08-09T11:08:52Z</time>
      </trkpt>
      <trkpt lat="45.07992" lon="6.13303">
        <ele>1860.4</ele>
        <time>2024-08-09T11:08:53Z</time>
      </trkpt>
      <trkpt lat="45.07993" lon="6.13307">
        <ele>1860.2</ele>
        <time>2024-08-09T11:08:54Z</time>
      </trkpt>
      <trkpt lat="45.07993" lon="6.13307">
        <ele>1860.2</ele>
        <time>2024-08-09T11:08:55Z</time>
      </trkpt>
      <trkpt lat="45.07995" lon="6.1331">
        <ele>1860.4</ele>
        <time>2024-08-09T11:08:56Z</time>
      </trkpt>
      <trkpt lat="45.07995" lon="6.1331">
        <ele>1860.6</ele>
        <time>2024-08-09T11:08:57Z</time>
      </trkpt>
      <trkpt lat="45.07997" lon="6.13313">
        <ele>1860.6</ele>
        <time>2024-08-09T11:08:58Z</time>
      </trkpt>
      <trkpt lat="45.07997" lon="6.13313">
        <ele>1860.8</ele>
        <time>2024-08-09T11:08:59Z</time>
      </trkpt>
      <trkpt lat="45.07997" lon="6.13316">
        <ele>1861</ele>
        <time>2024-08-09T11:09:00Z</time>
      </trkpt>
      <trkpt lat="45.07997" lon="6.13316">
        <ele>1861.2</ele>
        <time>2024-08-09T11:09:01Z</time>
      </trkpt>
      <trkpt lat="45.07997" lon="6.13319">
        <ele>1861.4</ele>
        <time>2024-08-09T11:09:02Z</time>
      </trkpt>
      <trkpt lat="45.07997" lon="6.13319">
        <ele>1861.4</ele>
        <time>2024-08-09T11:09:03Z</time>
      </trkpt>
      <trkpt lat="45.07998" lon="6.13323">
        <ele>1861.4</ele>
        <time>2024-08-09T11:09:04Z</time>
      </trkpt>
      <trkpt lat="45.07998" lon="6.13323">
        <ele>1861.4</ele>
        <time>2024-08-09T11:09:05Z</time>
      </trkpt>
      <trkpt lat="45.07999" lon="6.13326">
        <ele>1861.4</ele>
        <time>2024-08-09T11:09:06Z</time>
      </trkpt>
      <trkpt lat="45.07999" lon="6.13326">
        <ele>1861.6</ele>
        <time>2024-08-09T11:09:07Z</time>
      </trkpt>
      <trkpt lat="45.08001" lon="6.1333">
        <ele>1861.8</ele>
        <time>2024-08-09T11:09:08Z</time>
      </trkpt>
      <trkpt lat="45.08001" lon="6.1333">
        <ele>1861.8</ele>
        <time>2024-08-09T11:09:09Z</time>
      </trkpt>
      <trkpt lat="45.08001" lon="6.13333">
        <ele>1862.2</ele>
        <time>2024-08-09T11:09:10Z</time>
      </trkpt>
      <trkpt lat="45.08001" lon="6.13333">
        <ele>1862.4</ele>
        <time>2024-08-09T11:09:11Z</time>
      </trkpt>
      <trkpt lat="45.08003" lon="6.13337">
        <ele>1862.4</ele>
        <time>2024-08-09T11:09:12Z</time>
      </trkpt>
      <trkpt lat="45.08003" lon="6.13337">
        <ele>1862.6</ele>
        <time>2024-08-09T11:09:13Z</time>
      </trkpt>
      <trkpt lat="45.08004" lon="6.1334">
        <ele>1862.8</ele>
        <time>2024-08-09T11:09:14Z</time>
      </trkpt>
      <trkpt lat="45.08004" lon="6.1334">
        <ele>1862.8</ele>
        <time>2024-08-09T11:09:15Z</time>
      </trkpt>
      <trkpt lat="45.08005" lon="6.13343">
        <ele>1862.8</ele>
        <time>2024-08-09T11:09:16Z</time>
      </trkpt>
      <trkpt lat="45.08005" lon="6.13343">
        <ele>1863</ele>
        <time>2024-08-09T11:09:17Z</time>
      </trkpt>
      <trkpt lat="45.08005" lon="6.13346">
        <ele>1863.4</ele>
        <time>2024-08-09T11:09:18Z</time>
      </trkpt>
      <trkpt lat="45.08005" lon="6.13346">
        <ele>1863.4</ele>
        <time>2024-08-09T11:09:19Z</time>
      </trkpt>
      <trkpt lat="45.08006" lon="6.13349">
        <ele>1863.6</ele>
        <time>2024-08-09T11:09:20Z</time>
      </trkpt>
      <trkpt lat="45.08006" lon="6.13349">
        <ele>1863.6</ele>
        <time>2024-08-09T11:09:21Z</time>
      </trkpt>
      <trkpt lat="45.08007" lon="6.13353">
        <ele>1863.8</ele>
        <time>2024-08-09T11:09:22Z</time>
      </trkpt>
      <trkpt lat="45.08007" lon="6.13353">
        <ele>1863.8</ele>
        <time>2024-08-09T11:09:23Z</time>
      </trkpt>
      <trkpt lat="45.08008" lon="6.13356">
        <ele>1863.8</ele>
        <time>2024-08-09T11:09:24Z</time>
      </trkpt>
      <trkpt lat="45.08008" lon="6.13356">
        <ele>1863.8</ele>
        <time>2024-08-09T11:09:25Z</time>
      </trkpt>
      <trkpt lat="45.08009" lon="6.1336">
        <ele>1864.4</ele>
        <time>2024-08-09T11:09:26Z</time>
      </trkpt>
      <trkpt lat="45.08009" lon="6.1336">
        <ele>1864.6</ele>
        <time>2024-08-09T11:09:27Z</time>
      </trkpt>
      <trkpt lat="45.0801" lon="6.13363">
        <ele>1864.6</ele>
        <time>2024-08-09T11:09:28Z</time>
      </trkpt>
      <trkpt lat="45.0801" lon="6.13363">
        <ele>1864.8</ele>
        <time>2024-08-09T11:09:29Z</time>
      </trkpt>
      <trkpt lat="45.08011" lon="6.13366">
        <ele>1864.8</ele>
        <time>2024-08-09T11:09:30Z</time>
      </trkpt>
      <trkpt lat="45.08011" lon="6.13366">
        <ele>1864.8</ele>
        <time>2024-08-09T11:09:31Z</time>
      </trkpt>
      <trkpt lat="45.08012" lon="6.1337">
        <ele>1864.8</ele>
        <time>2024-08-09T11:09:32Z</time>
      </trkpt>
      <trkpt lat="45.08012" lon="6.1337">
        <ele>1864.8</ele>
        <time>2024-08-09T11:09:33Z</time>
      </trkpt>
      <trkpt lat="45.08013" lon="6.13373">
        <ele>1865.2</ele>
        <time>2024-08-09T11:09:34Z</time>
      </trkpt>
      <trkpt lat="45.08013" lon="6.13373">
        <ele>1865.4</ele>
        <time>2024-08-09T11:09:35Z</time>
      </trkpt>
      <trkpt lat="45.08013" lon="6.13376">
        <ele>1865.4</ele>
        <time>2024-08-09T11:09:36Z</time>
      </trkpt>
      <trkpt lat="45.08013" lon="6.13376">
        <ele>1865.4</ele>
        <time>2024-08-09T11:09:37Z</time>
      </trkpt>
      <trkpt lat="45.08014" lon="6.13379">
        <ele>1865.6</ele>
        <time>2024-08-09T11:09:38Z</time>
      </trkpt>
      <trkpt lat="45.08014" lon="6.13379">
        <ele>1866</ele>
        <time>2024-08-09T11:09:39Z</time>
      </trkpt>
      <trkpt lat="45.08015" lon="6.13383">
        <ele>1866.2</ele>
        <time>2024-08-09T11:09:40Z</time>
      </trkpt>
      <trkpt lat="45.08015" lon="6.13383">
        <ele>1866.2</ele>
        <time>2024-08-09T11:09:41Z</time>
      </trkpt>
      <trkpt lat="45.08015" lon="6.13386">
        <ele>1866.4</ele>
        <time>2024-08-09T11:09:42Z</time>
      </trkpt>
      <trkpt lat="45.08015" lon="6.13386">
        <ele>1866.6</ele>
        <time>2024-08-09T11:09:43Z</time>
      </trkpt>
      <trkpt lat="45.08017" lon="6.13389">
        <ele>1866.8</ele>
        <time>2024-08-09T11:09:44Z</time>
      </trkpt>
      <trkpt lat="45.08017" lon="6.13389">
        <ele>1866.8</ele>
        <time>2024-08-09T11:09:45Z</time>
      </trkpt>
      <trkpt lat="45.08017" lon="6.13392">
        <ele>1867</ele>
        <time>2024-08-09T11:09:46Z</time>
      </trkpt>
      <trkpt lat="45.08017" lon="6.13392">
        <ele>1867.2</ele>
        <time>2024-08-09T11:09:47Z</time>
      </trkpt>
      <trkpt lat="45.08018" lon="6.13395">
        <ele>1867.4</ele>
        <time>2024-08-09T11:09:48Z</time>
      </trkpt>
      <trkpt lat="45.08018" lon="6.13395">
        <ele>1867.4</ele>
        <time>2024-08-09T11:09:49Z</time>
      </trkpt>
      <trkpt lat="45.08019" lon="6.13399">
        <ele>1867.6</ele>
        <time>2024-08-09T11:09:50Z</time>
      </trkpt>
      <trkpt lat="45.08019" lon="6.13399">
        <ele>1867.8</ele>
        <time>2024-08-09T11:09:51Z</time>
      </trkpt>
      <trkpt lat="45.08019" lon="6.13402">
        <ele>1867.8</ele>
        <time>2024-08-09T11:09:52Z</time>
      </trkpt>
      <trkpt lat="45.08019" lon="6.13402">
        <ele>1867.8</ele>
        <time>2024-08-09T11:09:53Z</time>
      </trkpt>
      <trkpt lat="45.0802" lon="6.13405">
        <ele>1868</ele>
        <time>2024-08-09T11:09:54Z</time>
      </trkpt>
      <trkpt lat="45.0802" lon="6.13405">
        <ele>1868.2</ele>
        <time>2024-08-09T11:09:55Z</time>
      </trkpt>
      <trkpt lat="45.08021" lon="6.13408">
        <ele>1868.2</ele>
        <time>2024-08-09T11:09:56Z</time>
      </trkpt>
      <trkpt lat="45.08021" lon="6.13408">
        <ele>1868.4</ele>
        <time>2024-08-09T11:09:57Z</time>
      </trkpt>
      <trkpt lat="45.08023" lon="6.13412">
        <ele>1868.6</ele>
        <time>2024-08-09T11:09:58Z</time>
      </trkpt>
      <trkpt lat="45.08023" lon="6.13412">
        <ele>1868.8</ele>
        <time>2024-08-09T11:09:59Z</time>
      </trkpt>
      <trkpt lat="45.08024" lon="6.13415">
        <ele>1868.8</ele>
        <time>2024-08-09T11:10:00Z</time>
      </trkpt>
      <trkpt lat="45.08024" lon="6.13415">
        <ele>1869.2</ele>
        <time>2024-08-09T11:10:01Z</time>
      </trkpt>
      <trkpt lat="45.08025" lon="6.13418">
        <ele>1869.4</ele>
        <time>2024-08-09T11:10:02Z</time>
      </trkpt>
      <trkpt lat="45.08025" lon="6.13418">
        <ele>1869.4</ele>
        <time>2024-08-09T11:10:03Z</time>
      </trkpt>
      <trkpt lat="45.08025" lon="6.13422">
        <ele>1869.4</ele>
        <time>2024-08-09T11:10:04Z</time>
      </trkpt>
      <trkpt lat="45.08025" lon="6.13422">
        <ele>1869.6</ele>
        <time>2024-08-09T11:10:05Z</time>
      </trkpt>
      <trkpt lat="45.08027" lon="6.13425">
        <ele>1869.6</ele>
        <time>2024-08-09T11:10:06Z</time>
      </trkpt>
      <trkpt lat="45.08027" lon="6.13425">
        <ele>1869.8</ele>
        <time>2024-08-09T11:10:07Z</time>
      </trkpt>
      <trkpt lat="45.08028" lon="6.13428">
        <ele>1870.2</ele>
        <time>2024-08-09T11:10:08Z</time>
      </trkpt>
      <trkpt lat="45.08028" lon="6.13428">
        <ele>1870.6</ele>
        <time>2024-08-09T11:10:09Z</time>
      </trkpt>
      <trkpt lat="45.08029" lon="6.13431">
        <ele>1870.6</ele>
        <time>2024-08-09T11:10:10Z</time>
      </trkpt>
      <trkpt lat="45.08029" lon="6.13431">
        <ele>1870.6</ele>
        <time>2024-08-09T11:10:11Z</time>
      </trkpt>
      <trkpt lat="45.0803" lon="6.13435">
        <ele>1870.6</ele>
        <time>2024-08-09T11:10:12Z</time>
      </trkpt>
      <trkpt lat="45.0803" lon="6.13435">
        <ele>1870.6</ele>
        <time>2024-08-09T11:10:13Z</time>
      </trkpt>
      <trkpt lat="45.08031" lon="6.13438">
        <ele>1870.8</ele>
        <time>2024-08-09T11:10:14Z</time>
      </trkpt>
      <trkpt lat="45.08031" lon="6.13438">
        <ele>1870.8</ele>
        <time>2024-08-09T11:10:15Z</time>
      </trkpt>
      <trkpt lat="45.08031" lon="6.13441">
        <ele>1871</ele>
        <time>2024-08-09T11:10:16Z</time>
      </trkpt>
      <trkpt lat="45.08031" lon="6.13441">
        <ele>1871.2</ele>
        <time>2024-08-09T11:10:17Z</time>
      </trkpt>
      <trkpt lat="45.08031" lon="6.13441">
        <ele>1871.4</ele>
        <time>2024-08-09T11:10:18Z</time>
      </trkpt>
      <trkpt lat="45.08032" lon="6.13444">
        <ele>1871.4</ele>
        <time>2024-08-09T11:10:19Z</time>
      </trkpt>
      <trkpt lat="45.08032" lon="6.13444">
        <ele>1871.6</ele>
        <time>2024-08-09T11:10:20Z</time>
      </trkpt>
      <trkpt lat="45.08032" lon="6.13444">
        <ele>1872.2</ele>
        <time>2024-08-09T11:10:21Z</time>
      </trkpt>
      <trkpt lat="45.08032" lon="6.13444">
        <ele>1872.4</ele>
        <time>2024-08-09T11:10:22Z</time>
      </trkpt>
      <trkpt lat="45.08032" lon="6.13444">
        <ele>1872.4</ele>
        <time>2024-08-09T11:10:23Z</time>
      </trkpt>
      <trkpt lat="45.08032" lon="6.13444">
        <ele>1872.4</ele>
        <time>2024-08-09T11:10:24Z</time>
      </trkpt>
      <trkpt lat="45.08032" lon="6.13444">
        <ele>1872.6</ele>
        <time>2024-08-09T11:10:25Z</time>
      </trkpt>
      <trkpt lat="45.08032" lon="6.13444">
        <ele>1872.6</ele>
        <time>2024-08-09T11:10:26Z</time>
      </trkpt>
      <trkpt lat="45.08032" lon="6.13444">
        <ele>1872</ele>
        <time>2024-08-09T11:10:27Z</time>
      </trkpt>
      <trkpt lat="45.08032" lon="6.13444">
        <ele>1872</ele>
        <time>2024-08-09T11:10:28Z</time>
      </trkpt>
      <trkpt lat="45.08032" lon="6.13444">
        <ele>1872</ele>
        <time>2024-08-09T11:10:29Z</time>
      </trkpt>
      <trkpt lat="45.08032" lon="6.13444">
        <ele>1872.2</ele>
        <time>2024-08-09T11:10:30Z</time>
      </trkpt>
      <trkpt lat="45.08032" lon="6.13444">
        <ele>1872.2</ele>
        <time>2024-08-09T11:10:31Z</time>
      </trkpt>
      <trkpt lat="45.08032" lon="6.13444">
        <ele>1872.4</ele>
        <time>2024-08-09T11:10:32Z</time>
      </trkpt>
      <trkpt lat="45.08032" lon="6.13444">
        <ele>1872.4</ele>
        <time>2024-08-09T11:10:33Z</time>
      </trkpt>
      <trkpt lat="45.08032" lon="6.13444">
        <ele>1872.6</ele>
        <time>2024-08-09T11:10:34Z</time>
      </trkpt>
      <trkpt lat="45.08032" lon="6.13444">
        <ele>1872.6</ele>
        <time>2024-08-09T11:10:35Z</time>
      </trkpt>
      <trkpt lat="45.08032" lon="6.13444">
        <ele>1872.6</ele>
        <time>2024-08-09T11:10:36Z</time>
      </trkpt>
      <trkpt lat="45.08032" lon="6.13444">
        <ele>1872.6</ele>
        <time>2024-08-09T11:10:37Z</time>
      </trkpt>
      <trkpt lat="45.08032" lon="6.13444">
        <ele>1872.6</ele>
        <time>2024-08-09T11:10:38Z</time>
      </trkpt>
      <trkpt lat="45.08032" lon="6.13444">
        <ele>1872.8</ele>
        <time>2024-08-09T11:10:39Z</time>
      </trkpt>
      <trkpt lat="45.08032" lon="6.13444">
        <ele>1873</ele>
        <time>2024-08-09T11:10:40Z</time>
      </trkpt>
      <trkpt lat="45.08032" lon="6.13444">
        <ele>1873</ele>
        <time>2024-08-09T11:10:41Z</time>
      </trkpt>
      <trkpt lat="45.08032" lon="6.13444">
        <ele>1873</ele>
        <time>2024-08-09T11:10:42Z</time>
      </trkpt>
      <trkpt lat="45.08032" lon="6.13444">
        <ele>1873</ele>
        <time>2024-08-09T11:10:43Z</time>
      </trkpt>
      <trkpt lat="45.08032" lon="6.13444">
        <ele>1873</ele>
        <time>2024-08-09T11:10:44Z</time>
      </trkpt>
      <trkpt lat="45.08032" lon="6.13444">
        <ele>1873</ele>
        <time>2024-08-09T11:10:45Z</time>
      </trkpt>
      <trkpt lat="45.08032" lon="6.13444">
        <ele>1873</ele>
        <time>2024-08-09T11:10:46Z</time>
      </trkpt>
      <trkpt lat="45.08032" lon="6.13444">
        <ele>1873</ele>
        <time>2024-08-09T11:10:47Z</time>
      </trkpt>
      <trkpt lat="45.08032" lon="6.13444">
        <ele>1873</ele>
        <time>2024-08-09T11:10:48Z</time>
      </trkpt>
      <trkpt lat="45.08032" lon="6.13444">
        <ele>1873</ele>
        <time>2024-08-09T11:10:49Z</time>
      </trkpt>
      <trkpt lat="45.08033" lon="6.13447">
        <ele>1872.8</ele>
        <time>2024-08-09T11:10:50Z</time>
      </trkpt>
      <trkpt lat="45.08033" lon="6.13447">
        <ele>1872.8</ele>
        <time>2024-08-09T11:10:51Z</time>
      </trkpt>
      <trkpt lat="45.08033" lon="6.13451">
        <ele>1873</ele>
        <time>2024-08-09T11:10:52Z</time>
      </trkpt>
      <trkpt lat="45.08033" lon="6.13451">
        <ele>1873</ele>
        <time>2024-08-09T11:10:53Z</time>
      </trkpt>
      <trkpt lat="45.08035" lon="6.13454">
        <ele>1873.2</ele>
        <time>2024-08-09T11:10:54Z</time>
      </trkpt>
      <trkpt lat="45.08035" lon="6.13454">
        <ele>1873.4</ele>
        <time>2024-08-09T11:10:55Z</time>
      </trkpt>
      <trkpt lat="45.08037" lon="6.13458">
        <ele>1873.6</ele>
        <time>2024-08-09T11:10:56Z</time>
      </trkpt>
      <trkpt lat="45.08037" lon="6.13458">
        <ele>1873.6</ele>
        <time>2024-08-09T11:10:57Z</time>
      </trkpt>
      <trkpt lat="45.08038" lon="6.13462">
        <ele>1873.6</ele>
        <time>2024-08-09T11:10:58Z</time>
      </trkpt>
      <trkpt lat="45.08038" lon="6.13462">
        <ele>1873.8</ele>
        <time>2024-08-09T11:10:59Z</time>
      </trkpt>
      <trkpt lat="45.08039" lon="6.13466">
        <ele>1873.8</ele>
        <time>2024-08-09T11:11:00Z</time>
      </trkpt>
      <trkpt lat="45.08039" lon="6.13466">
        <ele>1873.8</ele>
        <time>2024-08-09T11:11:01Z</time>
      </trkpt>
      <trkpt lat="45.0804" lon="6.1347">
        <ele>1874</ele>
        <time>2024-08-09T11:11:02Z</time>
      </trkpt>
      <trkpt lat="45.0804" lon="6.1347">
        <ele>1874</ele>
        <time>2024-08-09T11:11:03Z</time>
      </trkpt>
      <trkpt lat="45.08041" lon="6.13473">
        <ele>1874.2</ele>
        <time>2024-08-09T11:11:04Z</time>
      </trkpt>
      <trkpt lat="45.08041" lon="6.13473">
        <ele>1874.2</ele>
        <time>2024-08-09T11:11:05Z</time>
      </trkpt>
      <trkpt lat="45.08042" lon="6.13476">
        <ele>1874.2</ele>
        <time>2024-08-09T11:11:06Z</time>
      </trkpt>
      <trkpt lat="45.08042" lon="6.13476">
        <ele>1874.4</ele>
        <time>2024-08-09T11:11:07Z</time>
      </trkpt>
      <trkpt lat="45.08043" lon="6.1348">
        <ele>1874.4</ele>
        <time>2024-08-09T11:11:08Z</time>
      </trkpt>
      <trkpt lat="45.08043" lon="6.1348">
        <ele>1874.8</ele>
        <time>2024-08-09T11:11:09Z</time>
      </trkpt>
      <trkpt lat="45.08045" lon="6.13483">
        <ele>1874.8</ele>
        <time>2024-08-09T11:11:10Z</time>
      </trkpt>
      <trkpt lat="45.08045" lon="6.13483">
        <ele>1875</ele>
        <time>2024-08-09T11:11:11Z</time>
      </trkpt>
      <trkpt lat="45.08045" lon="6.13487">
        <ele>1875.2</ele>
        <time>2024-08-09T11:11:12Z</time>
      </trkpt>
      <trkpt lat="45.08045" lon="6.13487">
        <ele>1875.2</ele>
        <time>2024-08-09T11:11:13Z</time>
      </trkpt>
      <trkpt lat="45.08047" lon="6.1349">
        <ele>1875.2</ele>
        <time>2024-08-09T11:11:14Z</time>
      </trkpt>
      <trkpt lat="45.08047" lon="6.1349">
        <ele>1875.4</ele>
        <time>2024-08-09T11:11:15Z</time>
      </trkpt>
      <trkpt lat="45.08047" lon="6.13492">
        <ele>1875.6</ele>
        <time>2024-08-09T11:11:16Z</time>
      </trkpt>
      <trkpt lat="45.08047" lon="6.13492">
        <ele>1875.8</ele>
        <time>2024-08-09T11:11:17Z</time>
      </trkpt>
      <trkpt lat="45.08049" lon="6.13495">
        <ele>1875.8</ele>
        <time>2024-08-09T11:11:18Z</time>
      </trkpt>
      <trkpt lat="45.08049" lon="6.13495">
        <ele>1875.8</ele>
        <time>2024-08-09T11:11:19Z</time>
      </trkpt>
      <trkpt lat="45.0805" lon="6.13499">
        <ele>1876</ele>
        <time>2024-08-09T11:11:20Z</time>
      </trkpt>
      <trkpt lat="45.0805" lon="6.13499">
        <ele>1876.2</ele>
        <time>2024-08-09T11:11:21Z</time>
      </trkpt>
      <trkpt lat="45.08051" lon="6.13502">
        <ele>1876.6</ele>
        <time>2024-08-09T11:11:22Z</time>
      </trkpt>
      <trkpt lat="45.08051" lon="6.13502">
        <ele>1876.8</ele>
        <time>2024-08-09T11:11:23Z</time>
      </trkpt>
      <trkpt lat="45.08053" lon="6.13505">
        <ele>1876.8</ele>
        <time>2024-08-09T11:11:24Z</time>
      </trkpt>
      <trkpt lat="45.08053" lon="6.13505">
        <ele>1877</ele>
        <time>2024-08-09T11:11:25Z</time>
      </trkpt>
      <trkpt lat="45.08053" lon="6.13508">
        <ele>1877.2</ele>
        <time>2024-08-09T11:11:26Z</time>
      </trkpt>
      <trkpt lat="45.08053" lon="6.13508">
        <ele>1877.2</ele>
        <time>2024-08-09T11:11:27Z</time>
      </trkpt>
      <trkpt lat="45.08054" lon="6.13512">
        <ele>1877.2</ele>
        <time>2024-08-09T11:11:28Z</time>
      </trkpt>
      <trkpt lat="45.08054" lon="6.13512">
        <ele>1877.2</ele>
        <time>2024-08-09T11:11:29Z</time>
      </trkpt>
      <trkpt lat="45.08055" lon="6.13515">
        <ele>1877.6</ele>
        <time>2024-08-09T11:11:30Z</time>
      </trkpt>
      <trkpt lat="45.08055" lon="6.13515">
        <ele>1877.6</ele>
        <time>2024-08-09T11:11:31Z</time>
      </trkpt>
      <trkpt lat="45.08056" lon="6.13518">
        <ele>1877.6</ele>
        <time>2024-08-09T11:11:32Z</time>
      </trkpt>
      <trkpt lat="45.08056" lon="6.13518">
        <ele>1878</ele>
        <time>2024-08-09T11:11:33Z</time>
      </trkpt>
      <trkpt lat="45.08057" lon="6.13521">
        <ele>1878</ele>
        <time>2024-08-09T11:11:34Z</time>
      </trkpt>
      <trkpt lat="45.08057" lon="6.13521">
        <ele>1878</ele>
        <time>2024-08-09T11:11:35Z</time>
      </trkpt>
      <trkpt lat="45.08057" lon="6.13524">
        <ele>1878.4</ele>
        <time>2024-08-09T11:11:36Z</time>
      </trkpt>
      <trkpt lat="45.08057" lon="6.13524">
        <ele>1878.6</ele>
        <time>2024-08-09T11:11:37Z</time>
      </trkpt>
      <trkpt lat="45.08058" lon="6.13527">
        <ele>1878.6</ele>
        <time>2024-08-09T11:11:38Z</time>
      </trkpt>
      <trkpt lat="45.08058" lon="6.13527">
        <ele>1878.8</ele>
        <time>2024-08-09T11:11:39Z</time>
      </trkpt>
      <trkpt lat="45.08059" lon="6.1353">
        <ele>1878.8</ele>
        <time>2024-08-09T11:11:40Z</time>
      </trkpt>
      <trkpt lat="45.08059" lon="6.1353">
        <ele>1879</ele>
        <time>2024-08-09T11:11:41Z</time>
      </trkpt>
      <trkpt lat="45.0806" lon="6.13533">
        <ele>1879.2</ele>
        <time>2024-08-09T11:11:42Z</time>
      </trkpt>
      <trkpt lat="45.0806" lon="6.13533">
        <ele>1879.4</ele>
        <time>2024-08-09T11:11:43Z</time>
      </trkpt>
      <trkpt lat="45.08061" lon="6.13537">
        <ele>1879.6</ele>
        <time>2024-08-09T11:11:44Z</time>
      </trkpt>
      <trkpt lat="45.08061" lon="6.13537">
        <ele>1879.8</ele>
        <time>2024-08-09T11:11:45Z</time>
      </trkpt>
      <trkpt lat="45.08062" lon="6.1354">
        <ele>1879.8</ele>
        <time>2024-08-09T11:11:46Z</time>
      </trkpt>
      <trkpt lat="45.08062" lon="6.1354">
        <ele>1879.8</ele>
        <time>2024-08-09T11:11:47Z</time>
      </trkpt>
      <trkpt lat="45.08063" lon="6.13543">
        <ele>1880</ele>
        <time>2024-08-09T11:11:48Z</time>
      </trkpt>
      <trkpt lat="45.08063" lon="6.13543">
        <ele>1880.4</ele>
        <time>2024-08-09T11:11:49Z</time>
      </trkpt>
      <trkpt lat="45.08063" lon="6.13546">
        <ele>1880.4</ele>
        <time>2024-08-09T11:11:50Z</time>
      </trkpt>
      <trkpt lat="45.08063" lon="6.13546">
        <ele>1880.4</ele>
        <time>2024-08-09T11:11:51Z</time>
      </trkpt>
      <trkpt lat="45.08065" lon="6.13549">
        <ele>1880.6</ele>
        <time>2024-08-09T11:11:52Z</time>
      </trkpt>
      <trkpt lat="45.08065" lon="6.13549">
        <ele>1880.6</ele>
        <time>2024-08-09T11:11:53Z</time>
      </trkpt>
      <trkpt lat="45.08066" lon="6.13552">
        <ele>1881</ele>
        <time>2024-08-09T11:11:54Z</time>
      </trkpt>
      <trkpt lat="45.08066" lon="6.13552">
        <ele>1881</ele>
        <time>2024-08-09T11:11:55Z</time>
      </trkpt>
      <trkpt lat="45.08067" lon="6.13556">
        <ele>1881</ele>
        <time>2024-08-09T11:11:56Z</time>
      </trkpt>
      <trkpt lat="45.08067" lon="6.13556">
        <ele>1881</ele>
        <time>2024-08-09T11:11:57Z</time>
      </trkpt>
      <trkpt lat="45.08067" lon="6.13559">
        <ele>1881.4</ele>
        <time>2024-08-09T11:11:58Z</time>
      </trkpt>
      <trkpt lat="45.08067" lon="6.13559">
        <ele>1881.6</ele>
        <time>2024-08-09T11:11:59Z</time>
      </trkpt>
      <trkpt lat="45.08068" lon="6.13562">
        <ele>1881.8</ele>
        <time>2024-08-09T11:12:00Z</time>
      </trkpt>
      <trkpt lat="45.08068" lon="6.13562">
        <ele>1881.8</ele>
        <time>2024-08-09T11:12:01Z</time>
      </trkpt>
      <trkpt lat="45.08068" lon="6.13566">
        <ele>1882.4</ele>
        <time>2024-08-09T11:12:02Z</time>
      </trkpt>
      <trkpt lat="45.08068" lon="6.13566">
        <ele>1882.4</ele>
        <time>2024-08-09T11:12:03Z</time>
      </trkpt>
      <trkpt lat="45.08069" lon="6.13569">
        <ele>1882.6</ele>
        <time>2024-08-09T11:12:04Z</time>
      </trkpt>
      <trkpt lat="45.08069" lon="6.13569">
        <ele>1882.8</ele>
        <time>2024-08-09T11:12:05Z</time>
      </trkpt>
      <trkpt lat="45.08069" lon="6.13573">
        <ele>1882.8</ele>
        <time>2024-08-09T11:12:06Z</time>
      </trkpt>
      <trkpt lat="45.08069" lon="6.13573">
        <ele>1882.8</ele>
        <time>2024-08-09T11:12:07Z</time>
      </trkpt>
      <trkpt lat="45.0807" lon="6.13576">
        <ele>1882.8</ele>
        <time>2024-08-09T11:12:08Z</time>
      </trkpt>
      <trkpt lat="45.0807" lon="6.13576">
        <ele>1883</ele>
        <time>2024-08-09T11:12:09Z</time>
      </trkpt>
      <trkpt lat="45.0807" lon="6.1358">
        <ele>1883.4</ele>
        <time>2024-08-09T11:12:10Z</time>
      </trkpt>
      <trkpt lat="45.0807" lon="6.1358">
        <ele>1883.4</ele>
        <time>2024-08-09T11:12:11Z</time>
      </trkpt>
      <trkpt lat="45.0807" lon="6.13583">
        <ele>1883.6</ele>
        <time>2024-08-09T11:12:12Z</time>
      </trkpt>
      <trkpt lat="45.0807" lon="6.13583">
        <ele>1883.6</ele>
        <time>2024-08-09T11:12:13Z</time>
      </trkpt>
      <trkpt lat="45.0807" lon="6.13587">
        <ele>1883.8</ele>
        <time>2024-08-09T11:12:14Z</time>
      </trkpt>
      <trkpt lat="45.0807" lon="6.13587">
        <ele>1883.8</ele>
        <time>2024-08-09T11:12:15Z</time>
      </trkpt>
      <trkpt lat="45.0807" lon="6.13591">
        <ele>1884</ele>
        <time>2024-08-09T11:12:16Z</time>
      </trkpt>
      <trkpt lat="45.0807" lon="6.13591">
        <ele>1884</ele>
        <time>2024-08-09T11:12:17Z</time>
      </trkpt>
      <trkpt lat="45.0807" lon="6.13594">
        <ele>1884.4</ele>
        <time>2024-08-09T11:12:18Z</time>
      </trkpt>
      <trkpt lat="45.0807" lon="6.13594">
        <ele>1884.4</ele>
        <time>2024-08-09T11:12:19Z</time>
      </trkpt>
      <trkpt lat="45.0807" lon="6.13598">
        <ele>1884.4</ele>
        <time>2024-08-09T11:12:20Z</time>
      </trkpt>
      <trkpt lat="45.0807" lon="6.13598">
        <ele>1884.4</ele>
        <time>2024-08-09T11:12:21Z</time>
      </trkpt>
      <trkpt lat="45.0807" lon="6.13601">
        <ele>1884.4</ele>
        <time>2024-08-09T11:12:22Z</time>
      </trkpt>
      <trkpt lat="45.0807" lon="6.13601">
        <ele>1884.6</ele>
        <time>2024-08-09T11:12:23Z</time>
      </trkpt>
      <trkpt lat="45.08071" lon="6.13605">
        <ele>1885</ele>
        <time>2024-08-09T11:12:24Z</time>
      </trkpt>
      <trkpt lat="45.08071" lon="6.13605">
        <ele>1885.4</ele>
        <time>2024-08-09T11:12:25Z</time>
      </trkpt>
      <trkpt lat="45.08071" lon="6.13608">
        <ele>1885.6</ele>
        <time>2024-08-09T11:12:26Z</time>
      </trkpt>
      <trkpt lat="45.08071" lon="6.13608">
        <ele>1885.6</ele>
        <time>2024-08-09T11:12:27Z</time>
      </trkpt>
      <trkpt lat="45.08071" lon="6.13612">
        <ele>1885.6</ele>
        <time>2024-08-09T11:12:28Z</time>
      </trkpt>
      <trkpt lat="45.08071" lon="6.13612">
        <ele>1885.8</ele>
        <time>2024-08-09T11:12:29Z</time>
      </trkpt>
      <trkpt lat="45.08071" lon="6.13615">
        <ele>1886</ele>
        <time>2024-08-09T11:12:30Z</time>
      </trkpt>
      <trkpt lat="45.08071" lon="6.13615">
        <ele>1886</ele>
        <time>2024-08-09T11:12:31Z</time>
      </trkpt>
      <trkpt lat="45.08071" lon="6.13618">
        <ele>1886.2</ele>
        <time>2024-08-09T11:12:32Z</time>
      </trkpt>
      <trkpt lat="45.08071" lon="6.13618">
        <ele>1886.2</ele>
        <time>2024-08-09T11:12:33Z</time>
      </trkpt>
      <trkpt lat="45.08071" lon="6.13622">
        <ele>1886.2</ele>
        <time>2024-08-09T11:12:34Z</time>
      </trkpt>
      <trkpt lat="45.08071" lon="6.13622">
        <ele>1886.6</ele>
        <time>2024-08-09T11:12:35Z</time>
      </trkpt>
      <trkpt lat="45.08071" lon="6.13625">
        <ele>1886.8</ele>
        <time>2024-08-09T11:12:36Z</time>
      </trkpt>
      <trkpt lat="45.08071" lon="6.13625">
        <ele>1887</ele>
        <time>2024-08-09T11:12:37Z</time>
      </trkpt>
      <trkpt lat="45.08071" lon="6.13629">
        <ele>1887</ele>
        <time>2024-08-09T11:12:38Z</time>
      </trkpt>
      <trkpt lat="45.08071" lon="6.13629">
        <ele>1887</ele>
        <time>2024-08-09T11:12:39Z</time>
      </trkpt>
      <trkpt lat="45.08071" lon="6.13632">
        <ele>1887.2</ele>
        <time>2024-08-09T11:12:40Z</time>
      </trkpt>
      <trkpt lat="45.08071" lon="6.13632">
        <ele>1887.2</ele>
        <time>2024-08-09T11:12:41Z</time>
      </trkpt>
      <trkpt lat="45.08071" lon="6.13636">
        <ele>1887.4</ele>
        <time>2024-08-09T11:12:42Z</time>
      </trkpt>
      <trkpt lat="45.08071" lon="6.13636">
        <ele>1887.4</ele>
        <time>2024-08-09T11:12:43Z</time>
      </trkpt>
      <trkpt lat="45.08071" lon="6.13639">
        <ele>1887.6</ele>
        <time>2024-08-09T11:12:44Z</time>
      </trkpt>
      <trkpt lat="45.08071" lon="6.13639">
        <ele>1887.8</ele>
        <time>2024-08-09T11:12:45Z</time>
      </trkpt>
      <trkpt lat="45.08071" lon="6.13642">
        <ele>1888.2</ele>
        <time>2024-08-09T11:12:46Z</time>
      </trkpt>
      <trkpt lat="45.08071" lon="6.13642">
        <ele>1888.4</ele>
        <time>2024-08-09T11:12:47Z</time>
      </trkpt>
      <trkpt lat="45.08071" lon="6.13646">
        <ele>1888.4</ele>
        <time>2024-08-09T11:12:48Z</time>
      </trkpt>
      <trkpt lat="45.08071" lon="6.13646">
        <ele>1888.4</ele>
        <time>2024-08-09T11:12:49Z</time>
      </trkpt>
      <trkpt lat="45.08071" lon="6.1365">
        <ele>1888.6</ele>
        <time>2024-08-09T11:12:50Z</time>
      </trkpt>
      <trkpt lat="45.08071" lon="6.1365">
        <ele>1888.8</ele>
        <time>2024-08-09T11:12:51Z</time>
      </trkpt>
      <trkpt lat="45.08072" lon="6.13653">
        <ele>1888.8</ele>
        <time>2024-08-09T11:12:52Z</time>
      </trkpt>
      <trkpt lat="45.08072" lon="6.13653">
        <ele>1888.8</ele>
        <time>2024-08-09T11:12:53Z</time>
      </trkpt>
      <trkpt lat="45.08072" lon="6.13656">
        <ele>1889</ele>
        <time>2024-08-09T11:12:54Z</time>
      </trkpt>
      <trkpt lat="45.08072" lon="6.13656">
        <ele>1889.2</ele>
        <time>2024-08-09T11:12:55Z</time>
      </trkpt>
      <trkpt lat="45.08072" lon="6.13659">
        <ele>1889.4</ele>
        <time>2024-08-09T11:12:56Z</time>
      </trkpt>
      <trkpt lat="45.08072" lon="6.13659">
        <ele>1889.6</ele>
        <time>2024-08-09T11:12:57Z</time>
      </trkpt>
      <trkpt lat="45.08072" lon="6.13659">
        <ele>1889.8</ele>
        <time>2024-08-09T11:12:58Z</time>
      </trkpt>
      <trkpt lat="45.08072" lon="6.13659">
        <ele>1890</ele>
        <time>2024-08-09T11:12:59Z</time>
      </trkpt>
      <trkpt lat="45.08072" lon="6.13659">
        <ele>1890.4</ele>
        <time>2024-08-09T11:13:00Z</time>
      </trkpt>
      <trkpt lat="45.08072" lon="6.13659">
        <ele>1890.6</ele>
        <time>2024-08-09T11:13:01Z</time>
      </trkpt>
      <trkpt lat="45.08072" lon="6.13659">
        <ele>1890.4</ele>
        <time>2024-08-09T11:13:02Z</time>
      </trkpt>
      <trkpt lat="45.08072" lon="6.13659">
        <ele>1890.4</ele>
        <time>2024-08-09T11:13:03Z</time>
      </trkpt>
      <trkpt lat="45.08072" lon="6.13659">
        <ele>1890.4</ele>
        <time>2024-08-09T11:13:04Z</time>
      </trkpt>
      <trkpt lat="45.08072" lon="6.13659">
        <ele>1890.2</ele>
        <time>2024-08-09T11:13:05Z</time>
      </trkpt>
      <trkpt lat="45.08072" lon="6.13659">
        <ele>1890.2</ele>
        <time>2024-08-09T11:13:06Z</time>
      </trkpt>
      <trkpt lat="45.08072" lon="6.13659">
        <ele>1890.2</ele>
        <time>2024-08-09T11:13:07Z</time>
      </trkpt>
      <trkpt lat="45.08072" lon="6.13659">
        <ele>1890.2</ele>
        <time>2024-08-09T11:13:08Z</time>
      </trkpt>
      <trkpt lat="45.08072" lon="6.13659">
        <ele>1890.2</ele>
        <time>2024-08-09T11:13:09Z</time>
      </trkpt>
      <trkpt lat="45.08072" lon="6.13659">
        <ele>1890.2</ele>
        <time>2024-08-09T11:13:10Z</time>
      </trkpt>
      <trkpt lat="45.08072" lon="6.13659">
        <ele>1890.2</ele>
        <time>2024-08-09T11:13:11Z</time>
      </trkpt>
      <trkpt lat="45.08072" lon="6.13659">
        <ele>1890.4</ele>
        <time>2024-08-09T11:13:12Z</time>
      </trkpt>
      <trkpt lat="45.08073" lon="6.13662">
        <ele>1890.4</ele>
        <time>2024-08-09T11:13:13Z</time>
      </trkpt>
      <trkpt lat="45.08073" lon="6.13662">
        <ele>1890.4</ele>
        <time>2024-08-09T11:13:14Z</time>
      </trkpt>
      <trkpt lat="45.08073" lon="6.13666">
        <ele>1890.8</ele>
        <time>2024-08-09T11:13:15Z</time>
      </trkpt>
      <trkpt lat="45.08073" lon="6.13666">
        <ele>1890.8</ele>
        <time>2024-08-09T11:13:16Z</time>
      </trkpt>
      <trkpt lat="45.08074" lon="6.13671">
        <ele>1890.8</ele>
        <time>2024-08-09T11:13:17Z</time>
      </trkpt>
      <trkpt lat="45.08074" lon="6.13671">
        <ele>1891.2</ele>
        <time>2024-08-09T11:13:18Z</time>
      </trkpt>
      <trkpt lat="45.08075" lon="6.13674">
        <ele>1891.4</ele>
        <time>2024-08-09T11:13:19Z</time>
      </trkpt>
      <trkpt lat="45.08075" lon="6.13674">
        <ele>1891.6</ele>
        <time>2024-08-09T11:13:20Z</time>
      </trkpt>
      <trkpt lat="45.08075" lon="6.13677">
        <ele>1892</ele>
        <time>2024-08-09T11:13:21Z</time>
      </trkpt>
      <trkpt lat="45.08075" lon="6.13677">
        <ele>1892.2</ele>
        <time>2024-08-09T11:13:22Z</time>
      </trkpt>
      <trkpt lat="45.08075" lon="6.13681">
        <ele>1892.2</ele>
        <time>2024-08-09T11:13:23Z</time>
      </trkpt>
      <trkpt lat="45.08075" lon="6.13681">
        <ele>1892.6</ele>
        <time>2024-08-09T11:13:24Z</time>
      </trkpt>
      <trkpt lat="45.08075" lon="6.13684">
        <ele>1892.8</ele>
        <time>2024-08-09T11:13:25Z</time>
      </trkpt>
      <trkpt lat="45.08075" lon="6.13684">
        <ele>1892.8</ele>
        <time>2024-08-09T11:13:26Z</time>
      </trkpt>
      <trkpt lat="45.08075" lon="6.13688">
        <ele>1893</ele>
        <time>2024-08-09T11:13:27Z</time>
      </trkpt>
      <trkpt lat="45.08075" lon="6.13688">
        <ele>1893.2</ele>
        <time>2024-08-09T11:13:28Z</time>
      </trkpt>
      <trkpt lat="45.08075" lon="6.13691">
        <ele>1893.6</ele>
        <time>2024-08-09T11:13:29Z</time>
      </trkpt>
      <trkpt lat="45.08075" lon="6.13691">
        <ele>1893.6</ele>
        <time>2024-08-09T11:13:30Z</time>
      </trkpt>
      <trkpt lat="45.08075" lon="6.13695">
        <ele>1893.6</ele>
        <time>2024-08-09T11:13:31Z</time>
      </trkpt>
      <trkpt lat="45.08075" lon="6.13695">
        <ele>1893.8</ele>
        <time>2024-08-09T11:13:32Z</time>
      </trkpt>
      <trkpt lat="45.08075" lon="6.13698">
        <ele>1894.2</ele>
        <time>2024-08-09T11:13:33Z</time>
      </trkpt>
      <trkpt lat="45.08075" lon="6.13698">
        <ele>1894.2</ele>
        <time>2024-08-09T11:13:34Z</time>
      </trkpt>
      <trkpt lat="45.08075" lon="6.13701">
        <ele>1894.4</ele>
        <time>2024-08-09T11:13:35Z</time>
      </trkpt>
      <trkpt lat="45.08075" lon="6.13701">
        <ele>1894.6</ele>
        <time>2024-08-09T11:13:36Z</time>
      </trkpt>
      <trkpt lat="45.08076" lon="6.13705">
        <ele>1894.8</ele>
        <time>2024-08-09T11:13:37Z</time>
      </trkpt>
      <trkpt lat="45.08076" lon="6.13705">
        <ele>1895</ele>
        <time>2024-08-09T11:13:38Z</time>
      </trkpt>
      <trkpt lat="45.08075" lon="6.13708">
        <ele>1895</ele>
        <time>2024-08-09T11:13:39Z</time>
      </trkpt>
      <trkpt lat="45.08075" lon="6.13708">
        <ele>1895</ele>
        <time>2024-08-09T11:13:40Z</time>
      </trkpt>
      <trkpt lat="45.08076" lon="6.13711">
        <ele>1895.2</ele>
        <time>2024-08-09T11:13:41Z</time>
      </trkpt>
      <trkpt lat="45.08076" lon="6.13711">
        <ele>1895.4</ele>
        <time>2024-08-09T11:13:42Z</time>
      </trkpt>
      <trkpt lat="45.08076" lon="6.13714">
        <ele>1895.4</ele>
        <time>2024-08-09T11:13:43Z</time>
      </trkpt>
      <trkpt lat="45.08076" lon="6.13714">
        <ele>1895.4</ele>
        <time>2024-08-09T11:13:44Z</time>
      </trkpt>
      <trkpt lat="45.08077" lon="6.13717">
        <ele>1895.6</ele>
        <time>2024-08-09T11:13:45Z</time>
      </trkpt>
      <trkpt lat="45.08077" lon="6.13717">
        <ele>1895.8</ele>
        <time>2024-08-09T11:13:46Z</time>
      </trkpt>
      <trkpt lat="45.08077" lon="6.13721">
        <ele>1896</ele>
        <time>2024-08-09T11:13:47Z</time>
      </trkpt>
      <trkpt lat="45.08077" lon="6.13721">
        <ele>1896</ele>
        <time>2024-08-09T11:13:48Z</time>
      </trkpt>
      <trkpt lat="45.08078" lon="6.13724">
        <ele>1896.2</ele>
        <time>2024-08-09T11:13:49Z</time>
      </trkpt>
      <trkpt lat="45.08078" lon="6.13724">
        <ele>1896.4</ele>
        <time>2024-08-09T11:13:50Z</time>
      </trkpt>
      <trkpt lat="45.08078" lon="6.13727">
        <ele>1896.4</ele>
        <time>2024-08-09T11:13:51Z</time>
      </trkpt>
      <trkpt lat="45.08078" lon="6.13727">
        <ele>1896.8</ele>
        <time>2024-08-09T11:13:52Z</time>
      </trkpt>
      <trkpt lat="45.08078" lon="6.1373">
        <ele>1897</ele>
        <time>2024-08-09T11:13:53Z</time>
      </trkpt>
      <trkpt lat="45.08078" lon="6.1373">
        <ele>1897</ele>
        <time>2024-08-09T11:13:54Z</time>
      </trkpt>
      <trkpt lat="45.08078" lon="6.13734">
        <ele>1897</ele>
        <time>2024-08-09T11:13:55Z</time>
      </trkpt>
      <trkpt lat="45.08078" lon="6.13734">
        <ele>1897</ele>
        <time>2024-08-09T11:13:56Z</time>
      </trkpt>
      <trkpt lat="45.08078" lon="6.13737">
        <ele>1897.4</ele>
        <time>2024-08-09T11:13:57Z</time>
      </trkpt>
      <trkpt lat="45.08078" lon="6.13737">
        <ele>1897.4</ele>
        <time>2024-08-09T11:13:58Z</time>
      </trkpt>
      <trkpt lat="45.08079" lon="6.1374">
        <ele>1897.4</ele>
        <time>2024-08-09T11:13:59Z</time>
      </trkpt>
      <trkpt lat="45.08079" lon="6.1374">
        <ele>1897.8</ele>
        <time>2024-08-09T11:14:00Z</time>
      </trkpt>
      <trkpt lat="45.08079" lon="6.13744">
        <ele>1897.8</ele>
        <time>2024-08-09T11:14:01Z</time>
      </trkpt>
      <trkpt lat="45.08079" lon="6.13744">
        <ele>1898</ele>
        <time>2024-08-09T11:14:02Z</time>
      </trkpt>
      <trkpt lat="45.0808" lon="6.13747">
        <ele>1898</ele>
        <time>2024-08-09T11:14:03Z</time>
      </trkpt>
      <trkpt lat="45.0808" lon="6.13747">
        <ele>1898</ele>
        <time>2024-08-09T11:14:04Z</time>
      </trkpt>
      <trkpt lat="45.0808" lon="6.1375">
        <ele>1898</ele>
        <time>2024-08-09T11:14:05Z</time>
      </trkpt>
      <trkpt lat="45.0808" lon="6.1375">
        <ele>1898.4</ele>
        <time>2024-08-09T11:14:06Z</time>
      </trkpt>
      <trkpt lat="45.08081" lon="6.13753">
        <ele>1898.6</ele>
        <time>2024-08-09T11:14:07Z</time>
      </trkpt>
      <trkpt lat="45.08081" lon="6.13753">
        <ele>1899</ele>
        <time>2024-08-09T11:14:08Z</time>
      </trkpt>
      <trkpt lat="45.08081" lon="6.13757">
        <ele>1899</ele>
        <time>2024-08-09T11:14:09Z</time>
      </trkpt>
      <trkpt lat="45.08081" lon="6.13757">
        <ele>1899</ele>
        <time>2024-08-09T11:14:10Z</time>
      </trkpt>
      <trkpt lat="45.08081" lon="6.13761">
        <ele>1899.2</ele>
        <time>2024-08-09T11:14:11Z</time>
      </trkpt>
      <trkpt lat="45.08081" lon="6.13761">
        <ele>1899.4</ele>
        <time>2024-08-09T11:14:12Z</time>
      </trkpt>
      <trkpt lat="45.08082" lon="6.13764">
        <ele>1899.4</ele>
        <time>2024-08-09T11:14:13Z</time>
      </trkpt>
      <trkpt lat="45.08082" lon="6.13764">
        <ele>1899.6</ele>
        <time>2024-08-09T11:14:14Z</time>
      </trkpt>
      <trkpt lat="45.08083" lon="6.13767">
        <ele>1899.6</ele>
        <time>2024-08-09T11:14:15Z</time>
      </trkpt>
      <trkpt lat="45.08083" lon="6.13767">
        <ele>1899.8</ele>
        <time>2024-08-09T11:14:16Z</time>
      </trkpt>
      <trkpt lat="45.08083" lon="6.13771">
        <ele>1900</ele>
        <time>2024-08-09T11:14:17Z</time>
      </trkpt>
      <trkpt lat="45.08083" lon="6.13771">
        <ele>1900</ele>
        <time>2024-08-09T11:14:18Z</time>
      </trkpt>
      <trkpt lat="45.08083" lon="6.13775">
        <ele>1900.2</ele>
        <time>2024-08-09T11:14:19Z</time>
      </trkpt>
      <trkpt lat="45.08083" lon="6.13775">
        <ele>1900.2</ele>
        <time>2024-08-09T11:14:20Z</time>
      </trkpt>
      <trkpt lat="45.08082" lon="6.13779">
        <ele>1900.2</ele>
        <time>2024-08-09T11:14:21Z</time>
      </trkpt>
      <trkpt lat="45.08082" lon="6.13779">
        <ele>1900.4</ele>
        <time>2024-08-09T11:14:22Z</time>
      </trkpt>
      <trkpt lat="45.08082" lon="6.13782">
        <ele>1900.4</ele>
        <time>2024-08-09T11:14:23Z</time>
      </trkpt>
      <trkpt lat="45.08082" lon="6.13782">
        <ele>1900.4</ele>
        <time>2024-08-09T11:14:24Z</time>
      </trkpt>
      <trkpt lat="45.08082" lon="6.13786">
        <ele>1901</ele>
        <time>2024-08-09T11:14:25Z</time>
      </trkpt>
      <trkpt lat="45.08082" lon="6.13786">
        <ele>1900.8</ele>
        <time>2024-08-09T11:14:26Z</time>
      </trkpt>
      <trkpt lat="45.08082" lon="6.13786">
        <ele>1900.8</ele>
        <time>2024-08-09T11:14:27Z</time>
      </trkpt>
      <trkpt lat="45.08083" lon="6.1379">
        <ele>1901</ele>
        <time>2024-08-09T11:14:28Z</time>
      </trkpt>
      <trkpt lat="45.08083" lon="6.1379">
        <ele>1901</ele>
        <time>2024-08-09T11:14:29Z</time>
      </trkpt>
      <trkpt lat="45.08083" lon="6.13793">
        <ele>1901.2</ele>
        <time>2024-08-09T11:14:30Z</time>
      </trkpt>
      <trkpt lat="45.08083" lon="6.13793">
        <ele>1901.4</ele>
        <time>2024-08-09T11:14:31Z</time>
      </trkpt>
      <trkpt lat="45.08084" lon="6.13796">
        <ele>1901.6</ele>
        <time>2024-08-09T11:14:32Z</time>
      </trkpt>
      <trkpt lat="45.08084" lon="6.13796">
        <ele>1901.6</ele>
        <time>2024-08-09T11:14:33Z</time>
      </trkpt>
      <trkpt lat="45.08085" lon="6.13799">
        <ele>1902</ele>
        <time>2024-08-09T11:14:34Z</time>
      </trkpt>
      <trkpt lat="45.08085" lon="6.13799">
        <ele>1902</ele>
        <time>2024-08-09T11:14:35Z</time>
      </trkpt>
      <trkpt lat="45.08086" lon="6.13802">
        <ele>1902</ele>
        <time>2024-08-09T11:14:36Z</time>
      </trkpt>
      <trkpt lat="45.08086" lon="6.13802">
        <ele>1902</ele>
        <time>2024-08-09T11:14:37Z</time>
      </trkpt>
      <trkpt lat="45.08086" lon="6.13806">
        <ele>1902.2</ele>
        <time>2024-08-09T11:14:38Z</time>
      </trkpt>
      <trkpt lat="45.08086" lon="6.13806">
        <ele>1902.4</ele>
        <time>2024-08-09T11:14:39Z</time>
      </trkpt>
      <trkpt lat="45.08087" lon="6.13809">
        <ele>1902.6</ele>
        <time>2024-08-09T11:14:40Z</time>
      </trkpt>
      <trkpt lat="45.08087" lon="6.13809">
        <ele>1902.6</ele>
        <time>2024-08-09T11:14:41Z</time>
      </trkpt>
      <trkpt lat="45.08088" lon="6.13812">
        <ele>1902.8</ele>
        <time>2024-08-09T11:14:42Z</time>
      </trkpt>
      <trkpt lat="45.08088" lon="6.13812">
        <ele>1903</ele>
        <time>2024-08-09T11:14:43Z</time>
      </trkpt>
      <trkpt lat="45.08088" lon="6.13815">
        <ele>1903.4</ele>
        <time>2024-08-09T11:14:44Z</time>
      </trkpt>
      <trkpt lat="45.08088" lon="6.13815">
        <ele>1903.4</ele>
        <time>2024-08-09T11:14:45Z</time>
      </trkpt>
      <trkpt lat="45.08088" lon="6.13818">
        <ele>1903.4</ele>
        <time>2024-08-09T11:14:46Z</time>
      </trkpt>
      <trkpt lat="45.08088" lon="6.13818">
        <ele>1903.2</ele>
        <time>2024-08-09T11:14:47Z</time>
      </trkpt>
      <trkpt lat="45.08088" lon="6.13822">
        <ele>1903.2</ele>
        <time>2024-08-09T11:14:48Z</time>
      </trkpt>
      <trkpt lat="45.08088" lon="6.13822">
        <ele>1903.4</ele>
        <time>2024-08-09T11:14:49Z</time>
      </trkpt>
      <trkpt lat="45.08088" lon="6.13825">
        <ele>1903.6</ele>
        <time>2024-08-09T11:14:50Z</time>
      </trkpt>
      <trkpt lat="45.08088" lon="6.13825">
        <ele>1903.8</ele>
        <time>2024-08-09T11:14:51Z</time>
      </trkpt>
      <trkpt lat="45.08088" lon="6.13828">
        <ele>1904</ele>
        <time>2024-08-09T11:14:52Z</time>
      </trkpt>
      <trkpt lat="45.08088" lon="6.13828">
        <ele>1904</ele>
        <time>2024-08-09T11:14:53Z</time>
      </trkpt>
      <trkpt lat="45.0809" lon="6.1383">
        <ele>1904.2</ele>
        <time>2024-08-09T11:14:54Z</time>
      </trkpt>
      <trkpt lat="45.0809" lon="6.1383">
        <ele>1904.4</ele>
        <time>2024-08-09T11:14:55Z</time>
      </trkpt>
      <trkpt lat="45.08091" lon="6.13833">
        <ele>1904.6</ele>
        <time>2024-08-09T11:14:56Z</time>
      </trkpt>
      <trkpt lat="45.08091" lon="6.13833">
        <ele>1904.6</ele>
        <time>2024-08-09T11:14:57Z</time>
      </trkpt>
      <trkpt lat="45.08091" lon="6.13836">
        <ele>1904.6</ele>
        <time>2024-08-09T11:14:58Z</time>
      </trkpt>
      <trkpt lat="45.08091" lon="6.13836">
        <ele>1904.6</ele>
        <time>2024-08-09T11:14:59Z</time>
      </trkpt>
      <trkpt lat="45.08093" lon="6.13839">
        <ele>1904.8</ele>
        <time>2024-08-09T11:15:00Z</time>
      </trkpt>
      <trkpt lat="45.08093" lon="6.13839">
        <ele>1905.2</ele>
        <time>2024-08-09T11:15:01Z</time>
      </trkpt>
      <trkpt lat="45.08093" lon="6.13842">
        <ele>1905.4</ele>
        <time>2024-08-09T11:15:02Z</time>
      </trkpt>
      <trkpt lat="45.08093" lon="6.13842">
        <ele>1905.4</ele>
        <time>2024-08-09T11:15:03Z</time>
      </trkpt>
      <trkpt lat="45.08093" lon="6.13846">
        <ele>1905.4</ele>
        <time>2024-08-09T11:15:04Z</time>
      </trkpt>
      <trkpt lat="45.08093" lon="6.13846">
        <ele>1905.6</ele>
        <time>2024-08-09T11:15:05Z</time>
      </trkpt>
      <trkpt lat="45.08093" lon="6.13849">
        <ele>1905.8</ele>
        <time>2024-08-09T11:15:06Z</time>
      </trkpt>
      <trkpt lat="45.08093" lon="6.13849">
        <ele>1905.6</ele>
        <time>2024-08-09T11:15:07Z</time>
      </trkpt>
      <trkpt lat="45.08094" lon="6.13852">
        <ele>1906</ele>
        <time>2024-08-09T11:15:08Z</time>
      </trkpt>
      <trkpt lat="45.08094" lon="6.13852">
        <ele>1906.2</ele>
        <time>2024-08-09T11:15:09Z</time>
      </trkpt>
      <trkpt lat="45.08094" lon="6.13855">
        <ele>1906.2</ele>
        <time>2024-08-09T11:15:10Z</time>
      </trkpt>
      <trkpt lat="45.08094" lon="6.13855">
        <ele>1906.2</ele>
        <time>2024-08-09T11:15:11Z</time>
      </trkpt>
      <trkpt lat="45.08095" lon="6.13858">
        <ele>1906.4</ele>
        <time>2024-08-09T11:15:12Z</time>
      </trkpt>
      <trkpt lat="45.08095" lon="6.13858">
        <ele>1906.8</ele>
        <time>2024-08-09T11:15:13Z</time>
      </trkpt>
      <trkpt lat="45.08096" lon="6.13862">
        <ele>1906.8</ele>
        <time>2024-08-09T11:15:14Z</time>
      </trkpt>
      <trkpt lat="45.08096" lon="6.13862">
        <ele>1906.8</ele>
        <time>2024-08-09T11:15:15Z</time>
      </trkpt>
      <trkpt lat="45.08096" lon="6.13865">
        <ele>1907</ele>
        <time>2024-08-09T11:15:16Z</time>
      </trkpt>
      <trkpt lat="45.08096" lon="6.13865">
        <ele>1907.4</ele>
        <time>2024-08-09T11:15:17Z</time>
      </trkpt>
      <trkpt lat="45.08097" lon="6.13868">
        <ele>1907.4</ele>
        <time>2024-08-09T11:15:18Z</time>
      </trkpt>
      <trkpt lat="45.08097" lon="6.13868">
        <ele>1907.4</ele>
        <time>2024-08-09T11:15:19Z</time>
      </trkpt>
      <trkpt lat="45.08098" lon="6.13871">
        <ele>1907.4</ele>
        <time>2024-08-09T11:15:20Z</time>
      </trkpt>
      <trkpt lat="45.08098" lon="6.13871">
        <ele>1907.8</ele>
        <time>2024-08-09T11:15:21Z</time>
      </trkpt>
      <trkpt lat="45.08099" lon="6.13874">
        <ele>1907.8</ele>
        <time>2024-08-09T11:15:22Z</time>
      </trkpt>
      <trkpt lat="45.08099" lon="6.13874">
        <ele>1908</ele>
        <time>2024-08-09T11:15:23Z</time>
      </trkpt>
      <trkpt lat="45.08099" lon="6.13877">
        <ele>1908.2</ele>
        <time>2024-08-09T11:15:24Z</time>
      </trkpt>
      <trkpt lat="45.08099" lon="6.13877">
        <ele>1908.2</ele>
        <time>2024-08-09T11:15:25Z</time>
      </trkpt>
      <trkpt lat="45.08099" lon="6.1388">
        <ele>1908.2</ele>
        <time>2024-08-09T11:15:26Z</time>
      </trkpt>
      <trkpt lat="45.08099" lon="6.1388">
        <ele>1908.2</ele>
        <time>2024-08-09T11:15:27Z</time>
      </trkpt>
      <trkpt lat="45.081" lon="6.13883">
        <ele>1908.2</ele>
        <time>2024-08-09T11:15:28Z</time>
      </trkpt>
      <trkpt lat="45.081" lon="6.13883">
        <ele>1908.6</ele>
        <time>2024-08-09T11:15:29Z</time>
      </trkpt>
      <trkpt lat="45.08101" lon="6.13886">
        <ele>1908.8</ele>
        <time>2024-08-09T11:15:30Z</time>
      </trkpt>
      <trkpt lat="45.08101" lon="6.13886">
        <ele>1909</ele>
        <time>2024-08-09T11:15:31Z</time>
      </trkpt>
      <trkpt lat="45.08102" lon="6.13889">
        <ele>1909.4</ele>
        <time>2024-08-09T11:15:32Z</time>
      </trkpt>
      <trkpt lat="45.08102" lon="6.13889">
        <ele>1909.4</ele>
        <time>2024-08-09T11:15:33Z</time>
      </trkpt>
      <trkpt lat="45.08103" lon="6.13891">
        <ele>1909.4</ele>
        <time>2024-08-09T11:15:34Z</time>
      </trkpt>
      <trkpt lat="45.08103" lon="6.13891">
        <ele>1909.6</ele>
        <time>2024-08-09T11:15:35Z</time>
      </trkpt>
      <trkpt lat="45.08104" lon="6.13894">
        <ele>1909.8</ele>
        <time>2024-08-09T11:15:36Z</time>
      </trkpt>
      <trkpt lat="45.08104" lon="6.13894">
        <ele>1909.8</ele>
        <time>2024-08-09T11:15:37Z</time>
      </trkpt>
      <trkpt lat="45.08104" lon="6.13897">
        <ele>1909.8</ele>
        <time>2024-08-09T11:15:38Z</time>
      </trkpt>
      <trkpt lat="45.08104" lon="6.13897">
        <ele>1910</ele>
        <time>2024-08-09T11:15:39Z</time>
      </trkpt>
      <trkpt lat="45.08105" lon="6.13901">
        <ele>1910.2</ele>
        <time>2024-08-09T11:15:40Z</time>
      </trkpt>
      <trkpt lat="45.08105" lon="6.13901">
        <ele>1910.4</ele>
        <time>2024-08-09T11:15:41Z</time>
      </trkpt>
      <trkpt lat="45.08106" lon="6.13904">
        <ele>1910.4</ele>
        <time>2024-08-09T11:15:42Z</time>
      </trkpt>
      <trkpt lat="45.08106" lon="6.13904">
        <ele>1910.4</ele>
        <time>2024-08-09T11:15:43Z</time>
      </trkpt>
      <trkpt lat="45.08106" lon="6.13907">
        <ele>1910.4</ele>
        <time>2024-08-09T11:15:44Z</time>
      </trkpt>
      <trkpt lat="45.08106" lon="6.13907">
        <ele>1910.6</ele>
        <time>2024-08-09T11:15:45Z</time>
      </trkpt>
      <trkpt lat="45.08107" lon="6.1391">
        <ele>1910.8</ele>
        <time>2024-08-09T11:15:46Z</time>
      </trkpt>
      <trkpt lat="45.08107" lon="6.1391">
        <ele>1911</ele>
        <time>2024-08-09T11:15:47Z</time>
      </trkpt>
      <trkpt lat="45.08108" lon="6.13913">
        <ele>1911.2</ele>
        <time>2024-08-09T11:15:48Z</time>
      </trkpt>
      <trkpt lat="45.08108" lon="6.13913">
        <ele>1911.2</ele>
        <time>2024-08-09T11:15:49Z</time>
      </trkpt>
      <trkpt lat="45.08108" lon="6.13916">
        <ele>1911.4</ele>
        <time>2024-08-09T11:15:50Z</time>
      </trkpt>
      <trkpt lat="45.08108" lon="6.13916">
        <ele>1911.4</ele>
        <time>2024-08-09T11:15:51Z</time>
      </trkpt>
      <trkpt lat="45.08109" lon="6.13919">
        <ele>1911.6</ele>
        <time>2024-08-09T11:15:52Z</time>
      </trkpt>
      <trkpt lat="45.08109" lon="6.13919">
        <ele>1911.8</ele>
        <time>2024-08-09T11:15:53Z</time>
      </trkpt>
      <trkpt lat="45.08109" lon="6.13922">
        <ele>1912</ele>
        <time>2024-08-09T11:15:54Z</time>
      </trkpt>
      <trkpt lat="45.08109" lon="6.13922">
        <ele>1912.2</ele>
        <time>2024-08-09T11:15:55Z</time>
      </trkpt>
      <trkpt lat="45.0811" lon="6.13924">
        <ele>1912.2</ele>
        <time>2024-08-09T11:15:56Z</time>
      </trkpt>
      <trkpt lat="45.0811" lon="6.13924">
        <ele>1912.2</ele>
        <time>2024-08-09T11:15:57Z</time>
      </trkpt>
      <trkpt lat="45.08111" lon="6.13927">
        <ele>1912.4</ele>
        <time>2024-08-09T11:15:58Z</time>
      </trkpt>
      <trkpt lat="45.08111" lon="6.13927">
        <ele>1912.6</ele>
        <time>2024-08-09T11:15:59Z</time>
      </trkpt>
      <trkpt lat="45.08112" lon="6.1393">
        <ele>1912.8</ele>
        <time>2024-08-09T11:16:00Z</time>
      </trkpt>
      <trkpt lat="45.08112" lon="6.1393">
        <ele>1913</ele>
        <time>2024-08-09T11:16:01Z</time>
      </trkpt>
      <trkpt lat="45.08114" lon="6.13932">
        <ele>1913.4</ele>
        <time>2024-08-09T11:16:02Z</time>
      </trkpt>
      <trkpt lat="45.08114" lon="6.13932">
        <ele>1913.4</ele>
        <time>2024-08-09T11:16:03Z</time>
      </trkpt>
      <trkpt lat="45.08114" lon="6.13932">
        <ele>1913.4</ele>
        <time>2024-08-09T11:16:04Z</time>
      </trkpt>
      <trkpt lat="45.08114" lon="6.13932">
        <ele>1913.8</ele>
        <time>2024-08-09T11:16:05Z</time>
      </trkpt>
      <trkpt lat="45.08114" lon="6.13932">
        <ele>1913.8</ele>
        <time>2024-08-09T11:16:06Z</time>
      </trkpt>
      <trkpt lat="45.08114" lon="6.13932">
        <ele>1913.8</ele>
        <time>2024-08-09T11:16:07Z</time>
      </trkpt>
      <trkpt lat="45.08114" lon="6.13932">
        <ele>1913.6</ele>
        <time>2024-08-09T11:16:08Z</time>
      </trkpt>
      <trkpt lat="45.08114" lon="6.13932">
        <ele>1913.6</ele>
        <time>2024-08-09T11:16:09Z</time>
      </trkpt>
      <trkpt lat="45.08114" lon="6.13932">
        <ele>1913.6</ele>
        <time>2024-08-09T11:16:10Z</time>
      </trkpt>
      <trkpt lat="45.08114" lon="6.13932">
        <ele>1913.6</ele>
        <time>2024-08-09T11:16:11Z</time>
      </trkpt>
      <trkpt lat="45.08114" lon="6.13932">
        <ele>1913.4</ele>
        <time>2024-08-09T11:16:12Z</time>
      </trkpt>
      <trkpt lat="45.08114" lon="6.13932">
        <ele>1913.4</ele>
        <time>2024-08-09T11:16:13Z</time>
      </trkpt>
      <trkpt lat="45.08114" lon="6.13932">
        <ele>1913.6</ele>
        <time>2024-08-09T11:16:14Z</time>
      </trkpt>
      <trkpt lat="45.08115" lon="6.13934">
        <ele>1913.6</ele>
        <time>2024-08-09T11:16:15Z</time>
      </trkpt>
      <trkpt lat="45.08115" lon="6.13934">
        <ele>1913.6</ele>
        <time>2024-08-09T11:16:16Z</time>
      </trkpt>
      <trkpt lat="45.08115" lon="6.13934">
        <ele>1913.8</ele>
        <time>2024-08-09T11:16:17Z</time>
      </trkpt>
      <trkpt lat="45.08115" lon="6.13934">
        <ele>1913.8</ele>
        <time>2024-08-09T11:16:18Z</time>
      </trkpt>
      <trkpt lat="45.08115" lon="6.13934">
        <ele>1913.8</ele>
        <time>2024-08-09T11:16:19Z</time>
      </trkpt>
      <trkpt lat="45.08115" lon="6.13934">
        <ele>1914</ele>
        <time>2024-08-09T11:16:20Z</time>
      </trkpt>
      <trkpt lat="45.08117" lon="6.13935">
        <ele>1914</ele>
        <time>2024-08-09T11:16:21Z</time>
      </trkpt>
      <trkpt lat="45.08117" lon="6.13935">
        <ele>1914.2</ele>
        <time>2024-08-09T11:16:22Z</time>
      </trkpt>
      <trkpt lat="45.08119" lon="6.13937">
        <ele>1914.4</ele>
        <time>2024-08-09T11:16:23Z</time>
      </trkpt>
      <trkpt lat="45.08119" lon="6.13937">
        <ele>1914.4</ele>
        <time>2024-08-09T11:16:24Z</time>
      </trkpt>
      <trkpt lat="45.08122" lon="6.13941">
        <ele>1914.8</ele>
        <time>2024-08-09T11:16:25Z</time>
      </trkpt>
      <trkpt lat="45.08122" lon="6.13941">
        <ele>1914.8</ele>
        <time>2024-08-09T11:16:26Z</time>
      </trkpt>
      <trkpt lat="45.08123" lon="6.13944">
        <ele>1914.8</ele>
        <time>2024-08-09T11:16:27Z</time>
      </trkpt>
      <trkpt lat="45.08123" lon="6.13944">
        <ele>1914.6</ele>
        <time>2024-08-09T11:16:28Z</time>
      </trkpt>
      <trkpt lat="45.08125" lon="6.13948">
        <ele>1914.6</ele>
        <time>2024-08-09T11:16:29Z</time>
      </trkpt>
      <trkpt lat="45.08125" lon="6.13948">
        <ele>1914.6</ele>
        <time>2024-08-09T11:16:30Z</time>
      </trkpt>
      <trkpt lat="45.08126" lon="6.13951">
        <ele>1914.8</ele>
        <time>2024-08-09T11:16:31Z</time>
      </trkpt>
      <trkpt lat="45.08126" lon="6.13951">
        <ele>1914.8</ele>
        <time>2024-08-09T11:16:32Z</time>
      </trkpt>
      <trkpt lat="45.08126" lon="6.13954">
        <ele>1914.8</ele>
        <time>2024-08-09T11:16:33Z</time>
      </trkpt>
      <trkpt lat="45.08126" lon="6.13954">
        <ele>1915</ele>
        <time>2024-08-09T11:16:34Z</time>
      </trkpt>
      <trkpt lat="45.08127" lon="6.13957">
        <ele>1915</ele>
        <time>2024-08-09T11:16:35Z</time>
      </trkpt>
      <trkpt lat="45.08127" lon="6.13957">
        <ele>1915</ele>
        <time>2024-08-09T11:16:36Z</time>
      </trkpt>
      <trkpt lat="45.08128" lon="6.1396">
        <ele>1914.8</ele>
        <time>2024-08-09T11:16:37Z</time>
      </trkpt>
      <trkpt lat="45.08128" lon="6.1396">
        <ele>1915</ele>
        <time>2024-08-09T11:16:38Z</time>
      </trkpt>
      <trkpt lat="45.08128" lon="6.13964">
        <ele>1915.2</ele>
        <time>2024-08-09T11:16:39Z</time>
      </trkpt>
      <trkpt lat="45.08128" lon="6.13964">
        <ele>1915.2</ele>
        <time>2024-08-09T11:16:40Z</time>
      </trkpt>
      <trkpt lat="45.08129" lon="6.13968">
        <ele>1915.2</ele>
        <time>2024-08-09T11:16:41Z</time>
      </trkpt>
      <trkpt lat="45.08129" lon="6.13968">
        <ele>1915.6</ele>
        <time>2024-08-09T11:16:42Z</time>
      </trkpt>
      <trkpt lat="45.0813" lon="6.13971">
        <ele>1915.6</ele>
        <time>2024-08-09T11:16:43Z</time>
      </trkpt>
      <trkpt lat="45.0813" lon="6.13971">
        <ele>1916</ele>
        <time>2024-08-09T11:16:44Z</time>
      </trkpt>
      <trkpt lat="45.0813" lon="6.13974">
        <ele>1916</ele>
        <time>2024-08-09T11:16:45Z</time>
      </trkpt>
      <trkpt lat="45.0813" lon="6.13974">
        <ele>1916.2</ele>
        <time>2024-08-09T11:16:46Z</time>
      </trkpt>
      <trkpt lat="45.0813" lon="6.13974">
        <ele>1916.4</ele>
        <time>2024-08-09T11:16:47Z</time>
      </trkpt>
      <trkpt lat="45.08131" lon="6.13978">
        <ele>1916.6</ele>
        <time>2024-08-09T11:16:48Z</time>
      </trkpt>
      <trkpt lat="45.08131" lon="6.13978">
        <ele>1916.8</ele>
        <time>2024-08-09T11:16:49Z</time>
      </trkpt>
      <trkpt lat="45.08132" lon="6.13979">
        <ele>1916.8</ele>
        <time>2024-08-09T11:16:50Z</time>
      </trkpt>
      <trkpt lat="45.08132" lon="6.13979">
        <ele>1917</ele>
        <time>2024-08-09T11:16:51Z</time>
      </trkpt>
      <trkpt lat="45.08132" lon="6.13979">
        <ele>1917</ele>
        <time>2024-08-09T11:16:52Z</time>
      </trkpt>
      <trkpt lat="45.08133" lon="6.13983">
        <ele>1917</ele>
        <time>2024-08-09T11:16:53Z</time>
      </trkpt>
      <trkpt lat="45.08133" lon="6.13983">
        <ele>1917.2</ele>
        <time>2024-08-09T11:16:54Z</time>
      </trkpt>
      <trkpt lat="45.08134" lon="6.13985">
        <ele>1917.4</ele>
        <time>2024-08-09T11:16:55Z</time>
      </trkpt>
      <trkpt lat="45.08134" lon="6.13985">
        <ele>1917.6</ele>
        <time>2024-08-09T11:16:56Z</time>
      </trkpt>
      <trkpt lat="45.08135" lon="6.13988">
        <ele>1917.8</ele>
        <time>2024-08-09T11:16:57Z</time>
      </trkpt>
      <trkpt lat="45.08135" lon="6.13988">
        <ele>1917.8</ele>
        <time>2024-08-09T11:16:58Z</time>
      </trkpt>
      <trkpt lat="45.08136" lon="6.13991">
        <ele>1918</ele>
        <time>2024-08-09T11:16:59Z</time>
      </trkpt>
      <trkpt lat="45.08136" lon="6.13991">
        <ele>1918</ele>
        <time>2024-08-09T11:17:00Z</time>
      </trkpt>
      <trkpt lat="45.08138" lon="6.13993">
        <ele>1918.2</ele>
        <time>2024-08-09T11:17:01Z</time>
      </trkpt>
      <trkpt lat="45.08138" lon="6.13993">
        <ele>1918.4</ele>
        <time>2024-08-09T11:17:02Z</time>
      </trkpt>
      <trkpt lat="45.08138" lon="6.13993">
        <ele>1918.4</ele>
        <time>2024-08-09T11:17:03Z</time>
      </trkpt>
      <trkpt lat="45.08139" lon="6.13997">
        <ele>1918.6</ele>
        <time>2024-08-09T11:17:04Z</time>
      </trkpt>
      <trkpt lat="45.08139" lon="6.13997">
        <ele>1918.6</ele>
        <time>2024-08-09T11:17:05Z</time>
      </trkpt>
      <trkpt lat="45.0814" lon="6.14">
        <ele>1918.8</ele>
        <time>2024-08-09T11:17:06Z</time>
      </trkpt>
      <trkpt lat="45.0814" lon="6.14">
        <ele>1918.8</ele>
        <time>2024-08-09T11:17:07Z</time>
      </trkpt>
      <trkpt lat="45.0814" lon="6.14003">
        <ele>1919</ele>
        <time>2024-08-09T11:17:08Z</time>
      </trkpt>
      <trkpt lat="45.0814" lon="6.14003">
        <ele>1919</ele>
        <time>2024-08-09T11:17:09Z</time>
      </trkpt>
      <trkpt lat="45.0814" lon="6.14006">
        <ele>1919.2</ele>
        <time>2024-08-09T11:17:10Z</time>
      </trkpt>
      <trkpt lat="45.0814" lon="6.14006">
        <ele>1919.4</ele>
        <time>2024-08-09T11:17:11Z</time>
      </trkpt>
      <trkpt lat="45.08141" lon="6.14009">
        <ele>1919.6</ele>
        <time>2024-08-09T11:17:12Z</time>
      </trkpt>
      <trkpt lat="45.08141" lon="6.14009">
        <ele>1919.6</ele>
        <time>2024-08-09T11:17:13Z</time>
      </trkpt>
      <trkpt lat="45.08143" lon="6.14012">
        <ele>1919.6</ele>
        <time>2024-08-09T11:17:14Z</time>
      </trkpt>
      <trkpt lat="45.08143" lon="6.14012">
        <ele>1919.8</ele>
        <time>2024-08-09T11:17:15Z</time>
      </trkpt>
      <trkpt lat="45.08143" lon="6.14012">
        <ele>1919.8</ele>
        <time>2024-08-09T11:17:16Z</time>
      </trkpt>
      <trkpt lat="45.08143" lon="6.14016">
        <ele>1920</ele>
        <time>2024-08-09T11:17:17Z</time>
      </trkpt>
      <trkpt lat="45.08143" lon="6.14016">
        <ele>1920.2</ele>
        <time>2024-08-09T11:17:18Z</time>
      </trkpt>
      <trkpt lat="45.08144" lon="6.14018">
        <ele>1920.4</ele>
        <time>2024-08-09T11:17:19Z</time>
      </trkpt>
      <trkpt lat="45.08144" lon="6.14018">
        <ele>1920.6</ele>
        <time>2024-08-09T11:17:20Z</time>
      </trkpt>
      <trkpt lat="45.08146" lon="6.14021">
        <ele>1920.6</ele>
        <time>2024-08-09T11:17:21Z</time>
      </trkpt>
      <trkpt lat="45.08146" lon="6.14021">
        <ele>1920.6</ele>
        <time>2024-08-09T11:17:22Z</time>
      </trkpt>
      <trkpt lat="45.08146" lon="6.14024">
        <ele>1920.8</ele>
        <time>2024-08-09T11:17:23Z</time>
      </trkpt>
      <trkpt lat="45.08146" lon="6.14024">
        <ele>1921</ele>
        <time>2024-08-09T11:17:24Z</time>
      </trkpt>
      <trkpt lat="45.08147" lon="6.14027">
        <ele>1921.2</ele>
        <time>2024-08-09T11:17:25Z</time>
      </trkpt>
      <trkpt lat="45.08147" lon="6.14027">
        <ele>1921.2</ele>
        <time>2024-08-09T11:17:26Z</time>
      </trkpt>
      <trkpt lat="45.08148" lon="6.1403">
        <ele>1921.2</ele>
        <time>2024-08-09T11:17:27Z</time>
      </trkpt>
      <trkpt lat="45.08148" lon="6.1403">
        <ele>1921.4</ele>
        <time>2024-08-09T11:17:28Z</time>
      </trkpt>
      <trkpt lat="45.08149" lon="6.14032">
        <ele>1921.6</ele>
        <time>2024-08-09T11:17:29Z</time>
      </trkpt>
      <trkpt lat="45.08149" lon="6.14032">
        <ele>1921.6</ele>
        <time>2024-08-09T11:17:30Z</time>
      </trkpt>
      <trkpt lat="45.0815" lon="6.14035">
        <ele>1921.6</ele>
        <time>2024-08-09T11:17:31Z</time>
      </trkpt>
      <trkpt lat="45.0815" lon="6.14035">
        <ele>1921.8</ele>
        <time>2024-08-09T11:17:32Z</time>
      </trkpt>
      <trkpt lat="45.08151" lon="6.14038">
        <ele>1922.2</ele>
        <time>2024-08-09T11:17:33Z</time>
      </trkpt>
      <trkpt lat="45.08151" lon="6.14038">
        <ele>1922.2</ele>
        <time>2024-08-09T11:17:34Z</time>
      </trkpt>
      <trkpt lat="45.08152" lon="6.1404">
        <ele>1922.2</ele>
        <time>2024-08-09T11:17:35Z</time>
      </trkpt>
      <trkpt lat="45.08152" lon="6.1404">
        <ele>1922.4</ele>
        <time>2024-08-09T11:17:36Z</time>
      </trkpt>
      <trkpt lat="45.08154" lon="6.14043">
        <ele>1922.4</ele>
        <time>2024-08-09T11:17:37Z</time>
      </trkpt>
      <trkpt lat="45.08154" lon="6.14043">
        <ele>1922.6</ele>
        <time>2024-08-09T11:17:38Z</time>
      </trkpt>
      <trkpt lat="45.08155" lon="6.14046">
        <ele>1922.8</ele>
        <time>2024-08-09T11:17:39Z</time>
      </trkpt>
      <trkpt lat="45.08155" lon="6.14046">
        <ele>1923</ele>
        <time>2024-08-09T11:17:40Z</time>
      </trkpt>
      <trkpt lat="45.08156" lon="6.14048">
        <ele>1923.2</ele>
        <time>2024-08-09T11:17:41Z</time>
      </trkpt>
      <trkpt lat="45.08156" lon="6.14048">
        <ele>1923.2</ele>
        <time>2024-08-09T11:17:42Z</time>
      </trkpt>
      <trkpt lat="45.08157" lon="6.14051">
        <ele>1923.4</ele>
        <time>2024-08-09T11:17:43Z</time>
      </trkpt>
      <trkpt lat="45.08157" lon="6.14051">
        <ele>1923.4</ele>
        <time>2024-08-09T11:17:44Z</time>
      </trkpt>
      <trkpt lat="45.08158" lon="6.14053">
        <ele>1923.6</ele>
        <time>2024-08-09T11:17:45Z</time>
      </trkpt>
      <trkpt lat="45.08158" lon="6.14053">
        <ele>1923.8</ele>
        <time>2024-08-09T11:17:46Z</time>
      </trkpt>
      <trkpt lat="45.08159" lon="6.14056">
        <ele>1923.8</ele>
        <time>2024-08-09T11:17:47Z</time>
      </trkpt>
      <trkpt lat="45.08159" lon="6.14056">
        <ele>1923.8</ele>
        <time>2024-08-09T11:17:48Z</time>
      </trkpt>
      <trkpt lat="45.0816" lon="6.14059">
        <ele>1923.8</ele>
        <time>2024-08-09T11:17:49Z</time>
      </trkpt>
      <trkpt lat="45.0816" lon="6.14059">
        <ele>1924</ele>
        <time>2024-08-09T11:17:50Z</time>
      </trkpt>
      <trkpt lat="45.08161" lon="6.14062">
        <ele>1924.2</ele>
        <time>2024-08-09T11:17:51Z</time>
      </trkpt>
      <trkpt lat="45.08161" lon="6.14062">
        <ele>1924.2</ele>
        <time>2024-08-09T11:17:52Z</time>
      </trkpt>
      <trkpt lat="45.08163" lon="6.14064">
        <ele>1924.6</ele>
        <time>2024-08-09T11:17:53Z</time>
      </trkpt>
      <trkpt lat="45.08163" lon="6.14064">
        <ele>1924.8</ele>
        <time>2024-08-09T11:17:54Z</time>
      </trkpt>
      <trkpt lat="45.08164" lon="6.14067">
        <ele>1925</ele>
        <time>2024-08-09T11:17:55Z</time>
      </trkpt>
      <trkpt lat="45.08164" lon="6.14067">
        <ele>1925</ele>
        <time>2024-08-09T11:17:56Z</time>
      </trkpt>
      <trkpt lat="45.08165" lon="6.14069">
        <ele>1925</ele>
        <time>2024-08-09T11:17:57Z</time>
      </trkpt>
      <trkpt lat="45.08165" lon="6.14069">
        <ele>1925.2</ele>
        <time>2024-08-09T11:17:58Z</time>
      </trkpt>
      <trkpt lat="45.08165" lon="6.14072">
        <ele>1925.4</ele>
        <time>2024-08-09T11:17:59Z</time>
      </trkpt>
      <trkpt lat="45.08165" lon="6.14072">
        <ele>1925.8</ele>
        <time>2024-08-09T11:18:00Z</time>
      </trkpt>
      <trkpt lat="45.08166" lon="6.14075">
        <ele>1925.8</ele>
        <time>2024-08-09T11:18:01Z</time>
      </trkpt>
      <trkpt lat="45.08166" lon="6.14075">
        <ele>1925.8</ele>
        <time>2024-08-09T11:18:02Z</time>
      </trkpt>
      <trkpt lat="45.08166" lon="6.14078">
        <ele>1925.8</ele>
        <time>2024-08-09T11:18:03Z</time>
      </trkpt>
      <trkpt lat="45.08166" lon="6.14078">
        <ele>1925.8</ele>
        <time>2024-08-09T11:18:04Z</time>
      </trkpt>
      <trkpt lat="45.08168" lon="6.14081">
        <ele>1926.2</ele>
        <time>2024-08-09T11:18:05Z</time>
      </trkpt>
      <trkpt lat="45.08168" lon="6.14081">
        <ele>1926.6</ele>
        <time>2024-08-09T11:18:06Z</time>
      </trkpt>
      <trkpt lat="45.08169" lon="6.14084">
        <ele>1926.8</ele>
        <time>2024-08-09T11:18:07Z</time>
      </trkpt>
      <trkpt lat="45.08169" lon="6.14084">
        <ele>1926.8</ele>
        <time>2024-08-09T11:18:08Z</time>
      </trkpt>
      <trkpt lat="45.0817" lon="6.14087">
        <ele>1927.2</ele>
        <time>2024-08-09T11:18:09Z</time>
      </trkpt>
      <trkpt lat="45.0817" lon="6.14087">
        <ele>1927.2</ele>
        <time>2024-08-09T11:18:10Z</time>
      </trkpt>
      <trkpt lat="45.08171" lon="6.1409">
        <ele>1927.4</ele>
        <time>2024-08-09T11:18:11Z</time>
      </trkpt>
      <trkpt lat="45.08171" lon="6.1409">
        <ele>1927.6</ele>
        <time>2024-08-09T11:18:12Z</time>
      </trkpt>
      <trkpt lat="45.08172" lon="6.14093">
        <ele>1927.6</ele>
        <time>2024-08-09T11:18:13Z</time>
      </trkpt>
      <trkpt lat="45.08172" lon="6.14093">
        <ele>1927.8</ele>
        <time>2024-08-09T11:18:14Z</time>
      </trkpt>
      <trkpt lat="45.08172" lon="6.14096">
        <ele>1927.8</ele>
        <time>2024-08-09T11:18:15Z</time>
      </trkpt>
      <trkpt lat="45.08172" lon="6.14096">
        <ele>1927.8</ele>
        <time>2024-08-09T11:18:16Z</time>
      </trkpt>
      <trkpt lat="45.08173" lon="6.14099">
        <ele>1928</ele>
        <time>2024-08-09T11:18:17Z</time>
      </trkpt>
      <trkpt lat="45.08173" lon="6.14099">
        <ele>1928.2</ele>
        <time>2024-08-09T11:18:18Z</time>
      </trkpt>
      <trkpt lat="45.08174" lon="6.14102">
        <ele>1928.2</ele>
        <time>2024-08-09T11:18:19Z</time>
      </trkpt>
      <trkpt lat="45.08174" lon="6.14102">
        <ele>1928.2</ele>
        <time>2024-08-09T11:18:20Z</time>
      </trkpt>
      <trkpt lat="45.08174" lon="6.14105">
        <ele>1928.2</ele>
        <time>2024-08-09T11:18:21Z</time>
      </trkpt>
      <trkpt lat="45.08174" lon="6.14105">
        <ele>1928.4</ele>
        <time>2024-08-09T11:18:22Z</time>
      </trkpt>
      <trkpt lat="45.08175" lon="6.14108">
        <ele>1928.4</ele>
        <time>2024-08-09T11:18:23Z</time>
      </trkpt>
      <trkpt lat="45.08175" lon="6.14108">
        <ele>1928.6</ele>
        <time>2024-08-09T11:18:24Z</time>
      </trkpt>
      <trkpt lat="45.08176" lon="6.14112">
        <ele>1928.6</ele>
        <time>2024-08-09T11:18:25Z</time>
      </trkpt>
      <trkpt lat="45.08176" lon="6.14112">
        <ele>1928.8</ele>
        <time>2024-08-09T11:18:26Z</time>
      </trkpt>
      <trkpt lat="45.08176" lon="6.14115">
        <ele>1929.2</ele>
        <time>2024-08-09T11:18:27Z</time>
      </trkpt>
      <trkpt lat="45.08176" lon="6.14115">
        <ele>1929.2</ele>
        <time>2024-08-09T11:18:28Z</time>
      </trkpt>
      <trkpt lat="45.08176" lon="6.14118">
        <ele>1929.2</ele>
        <time>2024-08-09T11:18:29Z</time>
      </trkpt>
      <trkpt lat="45.08176" lon="6.14118">
        <ele>1929.2</ele>
        <time>2024-08-09T11:18:30Z</time>
      </trkpt>
      <trkpt lat="45.08177" lon="6.14121">
        <ele>1929.4</ele>
        <time>2024-08-09T11:18:31Z</time>
      </trkpt>
      <trkpt lat="45.08177" lon="6.14121">
        <ele>1929.4</ele>
        <time>2024-08-09T11:18:32Z</time>
      </trkpt>
      <trkpt lat="45.08178" lon="6.14124">
        <ele>1929.8</ele>
        <time>2024-08-09T11:18:33Z</time>
      </trkpt>
      <trkpt lat="45.08178" lon="6.14124">
        <ele>1929.8</ele>
        <time>2024-08-09T11:18:34Z</time>
      </trkpt>
      <trkpt lat="45.08178" lon="6.14127">
        <ele>1930</ele>
        <time>2024-08-09T11:18:35Z</time>
      </trkpt>
      <trkpt lat="45.08178" lon="6.14127">
        <ele>1930.2</ele>
        <time>2024-08-09T11:18:36Z</time>
      </trkpt>
      <trkpt lat="45.08179" lon="6.1413">
        <ele>1930.4</ele>
        <time>2024-08-09T11:18:37Z</time>
      </trkpt>
      <trkpt lat="45.08179" lon="6.1413">
        <ele>1930.4</ele>
        <time>2024-08-09T11:18:38Z</time>
      </trkpt>
      <trkpt lat="45.0818" lon="6.14133">
        <ele>1930.4</ele>
        <time>2024-08-09T11:18:39Z</time>
      </trkpt>
      <trkpt lat="45.0818" lon="6.14133">
        <ele>1930.6</ele>
        <time>2024-08-09T11:18:40Z</time>
      </trkpt>
      <trkpt lat="45.0818" lon="6.14136">
        <ele>1930.6</ele>
        <time>2024-08-09T11:18:41Z</time>
      </trkpt>
      <trkpt lat="45.0818" lon="6.14136">
        <ele>1931</ele>
        <time>2024-08-09T11:18:42Z</time>
      </trkpt>
      <trkpt lat="45.08181" lon="6.1414">
        <ele>1931</ele>
        <time>2024-08-09T11:18:43Z</time>
      </trkpt>
      <trkpt lat="45.08181" lon="6.1414">
        <ele>1931</ele>
        <time>2024-08-09T11:18:44Z</time>
      </trkpt>
      <trkpt lat="45.08182" lon="6.14143">
        <ele>1931</ele>
        <time>2024-08-09T11:18:45Z</time>
      </trkpt>
      <trkpt lat="45.08182" lon="6.14143">
        <ele>1931.2</ele>
        <time>2024-08-09T11:18:46Z</time>
      </trkpt>
      <trkpt lat="45.08182" lon="6.14146">
        <ele>1931.2</ele>
        <time>2024-08-09T11:18:47Z</time>
      </trkpt>
      <trkpt lat="45.08182" lon="6.14146">
        <ele>1931.4</ele>
        <time>2024-08-09T11:18:48Z</time>
      </trkpt>
      <trkpt lat="45.08183" lon="6.14149">
        <ele>1931.6</ele>
        <time>2024-08-09T11:18:49Z</time>
      </trkpt>
      <trkpt lat="45.08183" lon="6.14149">
        <ele>1931.8</ele>
        <time>2024-08-09T11:18:50Z</time>
      </trkpt>
      <trkpt lat="45.08184" lon="6.14152">
        <ele>1931.8</ele>
        <time>2024-08-09T11:18:51Z</time>
      </trkpt>
      <trkpt lat="45.08184" lon="6.14152">
        <ele>1932</ele>
        <time>2024-08-09T11:18:52Z</time>
      </trkpt>
      <trkpt lat="45.08184" lon="6.14155">
        <ele>1932</ele>
        <time>2024-08-09T11:18:53Z</time>
      </trkpt>
      <trkpt lat="45.08184" lon="6.14155">
        <ele>1932.4</ele>
        <time>2024-08-09T11:18:54Z</time>
      </trkpt>
      <trkpt lat="45.08185" lon="6.14159">
        <ele>1932.4</ele>
        <time>2024-08-09T11:18:55Z</time>
      </trkpt>
      <trkpt lat="45.08185" lon="6.14159">
        <ele>1932.4</ele>
        <time>2024-08-09T11:18:56Z</time>
      </trkpt>
      <trkpt lat="45.08186" lon="6.14162">
        <ele>1932.6</ele>
        <time>2024-08-09T11:18:57Z</time>
      </trkpt>
      <trkpt lat="45.08186" lon="6.14162">
        <ele>1932.6</ele>
        <time>2024-08-09T11:18:58Z</time>
      </trkpt>
      <trkpt lat="45.08186" lon="6.14165">
        <ele>1932.8</ele>
        <time>2024-08-09T11:18:59Z</time>
      </trkpt>
      <trkpt lat="45.08186" lon="6.14165">
        <ele>1933</ele>
        <time>2024-08-09T11:19:00Z</time>
      </trkpt>
      <trkpt lat="45.08187" lon="6.14168">
        <ele>1933</ele>
        <time>2024-08-09T11:19:01Z</time>
      </trkpt>
      <trkpt lat="45.08187" lon="6.14168">
        <ele>1933.4</ele>
        <time>2024-08-09T11:19:02Z</time>
      </trkpt>
      <trkpt lat="45.08188" lon="6.14171">
        <ele>1933.4</ele>
        <time>2024-08-09T11:19:03Z</time>
      </trkpt>
      <trkpt lat="45.08188" lon="6.14171">
        <ele>1933.4</ele>
        <time>2024-08-09T11:19:04Z</time>
      </trkpt>
      <trkpt lat="45.08188" lon="6.14175">
        <ele>1933.4</ele>
        <time>2024-08-09T11:19:05Z</time>
      </trkpt>
      <trkpt lat="45.08188" lon="6.14175">
        <ele>1933.6</ele>
        <time>2024-08-09T11:19:06Z</time>
      </trkpt>
      <trkpt lat="45.08189" lon="6.14178">
        <ele>1933.8</ele>
        <time>2024-08-09T11:19:07Z</time>
      </trkpt>
      <trkpt lat="45.08189" lon="6.14178">
        <ele>1933.8</ele>
        <time>2024-08-09T11:19:08Z</time>
      </trkpt>
      <trkpt lat="45.0819" lon="6.14181">
        <ele>1933.8</ele>
        <time>2024-08-09T11:19:09Z</time>
      </trkpt>
      <trkpt lat="45.0819" lon="6.14181">
        <ele>1933.8</ele>
        <time>2024-08-09T11:19:10Z</time>
      </trkpt>
      <trkpt lat="45.0819" lon="6.14184">
        <ele>1934.4</ele>
        <time>2024-08-09T11:19:11Z</time>
      </trkpt>
      <trkpt lat="45.0819" lon="6.14184">
        <ele>1934.4</ele>
        <time>2024-08-09T11:19:12Z</time>
      </trkpt>
      <trkpt lat="45.08191" lon="6.14187">
        <ele>1934.4</ele>
        <time>2024-08-09T11:19:13Z</time>
      </trkpt>
      <trkpt lat="45.08191" lon="6.14187">
        <ele>1934.6</ele>
        <time>2024-08-09T11:19:14Z</time>
      </trkpt>
      <trkpt lat="45.08192" lon="6.1419">
        <ele>1934.8</ele>
        <time>2024-08-09T11:19:15Z</time>
      </trkpt>
      <trkpt lat="45.08192" lon="6.1419">
        <ele>1935</ele>
        <time>2024-08-09T11:19:16Z</time>
      </trkpt>
      <trkpt lat="45.08193" lon="6.14193">
        <ele>1935.2</ele>
        <time>2024-08-09T11:19:17Z</time>
      </trkpt>
      <trkpt lat="45.08193" lon="6.14193">
        <ele>1935.2</ele>
        <time>2024-08-09T11:19:18Z</time>
      </trkpt>
      <trkpt lat="45.08194" lon="6.14196">
        <ele>1935.2</ele>
        <time>2024-08-09T11:19:19Z</time>
      </trkpt>
      <trkpt lat="45.08194" lon="6.14196">
        <ele>1935.2</ele>
        <time>2024-08-09T11:19:20Z</time>
      </trkpt>
      <trkpt lat="45.08195" lon="6.14199">
        <ele>1935.6</ele>
        <time>2024-08-09T11:19:21Z</time>
      </trkpt>
      <trkpt lat="45.08195" lon="6.14199">
        <ele>1935.6</ele>
        <time>2024-08-09T11:19:22Z</time>
      </trkpt>
      <trkpt lat="45.08196" lon="6.14202">
        <ele>1935.8</ele>
        <time>2024-08-09T11:19:23Z</time>
      </trkpt>
      <trkpt lat="45.08196" lon="6.14202">
        <ele>1935.8</ele>
        <time>2024-08-09T11:19:24Z</time>
      </trkpt>
      <trkpt lat="45.08197" lon="6.14205">
        <ele>1936</ele>
        <time>2024-08-09T11:19:25Z</time>
      </trkpt>
      <trkpt lat="45.08197" lon="6.14205">
        <ele>1936.2</ele>
        <time>2024-08-09T11:19:26Z</time>
      </trkpt>
      <trkpt lat="45.08199" lon="6.14207">
        <ele>1936.4</ele>
        <time>2024-08-09T11:19:27Z</time>
      </trkpt>
      <trkpt lat="45.08199" lon="6.14207">
        <ele>1936.4</ele>
        <time>2024-08-09T11:19:28Z</time>
      </trkpt>
      <trkpt lat="45.082" lon="6.1421">
        <ele>1936.6</ele>
        <time>2024-08-09T11:19:29Z</time>
      </trkpt>
      <trkpt lat="45.082" lon="6.1421">
        <ele>1937</ele>
        <time>2024-08-09T11:19:30Z</time>
      </trkpt>
      <trkpt lat="45.08202" lon="6.14213">
        <ele>1937</ele>
        <time>2024-08-09T11:19:31Z</time>
      </trkpt>
      <trkpt lat="45.08202" lon="6.14213">
        <ele>1937.2</ele>
        <time>2024-08-09T11:19:32Z</time>
      </trkpt>
      <trkpt lat="45.08203" lon="6.14216">
        <ele>1937.4</ele>
        <time>2024-08-09T11:19:33Z</time>
      </trkpt>
      <trkpt lat="45.08203" lon="6.14216">
        <ele>1937.8</ele>
        <time>2024-08-09T11:19:34Z</time>
      </trkpt>
      <trkpt lat="45.08204" lon="6.14218">
        <ele>1937.8</ele>
        <time>2024-08-09T11:19:35Z</time>
      </trkpt>
      <trkpt lat="45.08204" lon="6.14218">
        <ele>1938</ele>
        <time>2024-08-09T11:19:36Z</time>
      </trkpt>
      <trkpt lat="45.08206" lon="6.14221">
        <ele>1938.2</ele>
        <time>2024-08-09T11:19:37Z</time>
      </trkpt>
      <trkpt lat="45.08206" lon="6.14221">
        <ele>1938.2</ele>
        <time>2024-08-09T11:19:38Z</time>
      </trkpt>
      <trkpt lat="45.08207" lon="6.14223">
        <ele>1938.2</ele>
        <time>2024-08-09T11:19:39Z</time>
      </trkpt>
      <trkpt lat="45.08207" lon="6.14223">
        <ele>1938.4</ele>
        <time>2024-08-09T11:19:40Z</time>
      </trkpt>
      <trkpt lat="45.08208" lon="6.14226">
        <ele>1938.6</ele>
        <time>2024-08-09T11:19:41Z</time>
      </trkpt>
      <trkpt lat="45.08208" lon="6.14226">
        <ele>1938.8</ele>
        <time>2024-08-09T11:19:42Z</time>
      </trkpt>
      <trkpt lat="45.08208" lon="6.14226">
        <ele>1938.8</ele>
        <time>2024-08-09T11:19:43Z</time>
      </trkpt>
      <trkpt lat="45.0821" lon="6.14229">
        <ele>1939</ele>
        <time>2024-08-09T11:19:44Z</time>
      </trkpt>
      <trkpt lat="45.0821" lon="6.14229">
        <ele>1939.2</ele>
        <time>2024-08-09T11:19:45Z</time>
      </trkpt>
      <trkpt lat="45.08212" lon="6.14231">
        <ele>1939.4</ele>
        <time>2024-08-09T11:19:46Z</time>
      </trkpt>
      <trkpt lat="45.08212" lon="6.14231">
        <ele>1939.4</ele>
        <time>2024-08-09T11:19:47Z</time>
      </trkpt>
      <trkpt lat="45.08213" lon="6.14234">
        <ele>1939.6</ele>
        <time>2024-08-09T11:19:48Z</time>
      </trkpt>
      <trkpt lat="45.08213" lon="6.14234">
        <ele>1940</ele>
        <time>2024-08-09T11:19:49Z</time>
      </trkpt>
      <trkpt lat="45.08215" lon="6.14237">
        <ele>1940</ele>
        <time>2024-08-09T11:19:50Z</time>
      </trkpt>
      <trkpt lat="45.08215" lon="6.14237">
        <ele>1940</ele>
        <time>2024-08-09T11:19:51Z</time>
      </trkpt>
      <trkpt lat="45.08216" lon="6.14239">
        <ele>1940</ele>
        <time>2024-08-09T11:19:52Z</time>
      </trkpt>
      <trkpt lat="45.08216" lon="6.14239">
        <ele>1940.4</ele>
        <time>2024-08-09T11:19:53Z</time>
      </trkpt>
      <trkpt lat="45.08218" lon="6.14242">
        <ele>1940.6</ele>
        <time>2024-08-09T11:19:54Z</time>
      </trkpt>
      <trkpt lat="45.08218" lon="6.14242">
        <ele>1940.8</ele>
        <time>2024-08-09T11:19:55Z</time>
      </trkpt>
      <trkpt lat="45.08219" lon="6.14244">
        <ele>1941</ele>
        <time>2024-08-09T11:19:56Z</time>
      </trkpt>
      <trkpt lat="45.08219" lon="6.14244">
        <ele>1941</ele>
        <time>2024-08-09T11:19:57Z</time>
      </trkpt>
      <trkpt lat="45.08221" lon="6.14247">
        <ele>1941.2</ele>
        <time>2024-08-09T11:19:58Z</time>
      </trkpt>
      <trkpt lat="45.08221" lon="6.14247">
        <ele>1941.2</ele>
        <time>2024-08-09T11:19:59Z</time>
      </trkpt>
      <trkpt lat="45.08222" lon="6.14249">
        <ele>1941.2</ele>
        <time>2024-08-09T11:20:00Z</time>
      </trkpt>
      <trkpt lat="45.08222" lon="6.14249">
        <ele>1941.8</ele>
        <time>2024-08-09T11:20:01Z</time>
      </trkpt>
      <trkpt lat="45.08224" lon="6.14252">
        <ele>1942</ele>
        <time>2024-08-09T11:20:02Z</time>
      </trkpt>
      <trkpt lat="45.08224" lon="6.14252">
        <ele>1942</ele>
        <time>2024-08-09T11:20:03Z</time>
      </trkpt>
      <trkpt lat="45.08225" lon="6.14254">
        <ele>1942.2</ele>
        <time>2024-08-09T11:20:04Z</time>
      </trkpt>
      <trkpt lat="45.08225" lon="6.14254">
        <ele>1942.4</ele>
        <time>2024-08-09T11:20:05Z</time>
      </trkpt>
      <trkpt lat="45.08227" lon="6.14257">
        <ele>1942.4</ele>
        <time>2024-08-09T11:20:06Z</time>
      </trkpt>
      <trkpt lat="45.08227" lon="6.14257">
        <ele>1942.6</ele>
        <time>2024-08-09T11:20:07Z</time>
      </trkpt>
      <trkpt lat="45.08229" lon="6.14259">
        <ele>1942.8</ele>
        <time>2024-08-09T11:20:08Z</time>
      </trkpt>
      <trkpt lat="45.08229" lon="6.14259">
        <ele>1943.2</ele>
        <time>2024-08-09T11:20:09Z</time>
      </trkpt>
      <trkpt lat="45.08231" lon="6.14262">
        <ele>1943.2</ele>
        <time>2024-08-09T11:20:10Z</time>
      </trkpt>
      <trkpt lat="45.08231" lon="6.14262">
        <ele>1943.2</ele>
        <time>2024-08-09T11:20:11Z</time>
      </trkpt>
      <trkpt lat="45.08233" lon="6.14265">
        <ele>1943.2</ele>
        <time>2024-08-09T11:20:12Z</time>
      </trkpt>
      <trkpt lat="45.08233" lon="6.14265">
        <ele>1943.2</ele>
        <time>2024-08-09T11:20:13Z</time>
      </trkpt>
      <trkpt lat="45.08234" lon="6.14267">
        <ele>1943.2</ele>
        <time>2024-08-09T11:20:14Z</time>
      </trkpt>
      <trkpt lat="45.08234" lon="6.14267">
        <ele>1943.2</ele>
        <time>2024-08-09T11:20:15Z</time>
      </trkpt>
      <trkpt lat="45.08236" lon="6.1427">
        <ele>1943.4</ele>
        <time>2024-08-09T11:20:16Z</time>
      </trkpt>
      <trkpt lat="45.08236" lon="6.1427">
        <ele>1943.6</ele>
        <time>2024-08-09T11:20:17Z</time>
      </trkpt>
      <trkpt lat="45.08237" lon="6.14272">
        <ele>1943.8</ele>
        <time>2024-08-09T11:20:18Z</time>
      </trkpt>
      <trkpt lat="45.08237" lon="6.14272">
        <ele>1944</ele>
        <time>2024-08-09T11:20:19Z</time>
      </trkpt>
      <trkpt lat="45.08239" lon="6.14275">
        <ele>1944</ele>
        <time>2024-08-09T11:20:20Z</time>
      </trkpt>
      <trkpt lat="45.08239" lon="6.14275">
        <ele>1944.2</ele>
        <time>2024-08-09T11:20:21Z</time>
      </trkpt>
      <trkpt lat="45.08241" lon="6.14278">
        <ele>1944.4</ele>
        <time>2024-08-09T11:20:22Z</time>
      </trkpt>
      <trkpt lat="45.08241" lon="6.14278">
        <ele>1944.6</ele>
        <time>2024-08-09T11:20:23Z</time>
      </trkpt>
      <trkpt lat="45.08243" lon="6.1428">
        <ele>1944.8</ele>
        <time>2024-08-09T11:20:24Z</time>
      </trkpt>
      <trkpt lat="45.08243" lon="6.1428">
        <ele>1944.8</ele>
        <time>2024-08-09T11:20:25Z</time>
      </trkpt>
      <trkpt lat="45.08245" lon="6.14282">
        <ele>1944.8</ele>
        <time>2024-08-09T11:20:26Z</time>
      </trkpt>
      <trkpt lat="45.08245" lon="6.14282">
        <ele>1944.8</ele>
        <time>2024-08-09T11:20:27Z</time>
      </trkpt>
      <trkpt lat="45.08246" lon="6.14285">
        <ele>1944.8</ele>
        <time>2024-08-09T11:20:28Z</time>
      </trkpt>
      <trkpt lat="45.08246" lon="6.14285">
        <ele>1944.8</ele>
        <time>2024-08-09T11:20:29Z</time>
      </trkpt>
      <trkpt lat="45.08247" lon="6.14287">
        <ele>1944.8</ele>
        <time>2024-08-09T11:20:30Z</time>
      </trkpt>
      <trkpt lat="45.08247" lon="6.14287">
        <ele>1944.8</ele>
        <time>2024-08-09T11:20:31Z</time>
      </trkpt>
      <trkpt lat="45.08249" lon="6.1429">
        <ele>1944.8</ele>
        <time>2024-08-09T11:20:32Z</time>
      </trkpt>
      <trkpt lat="45.08249" lon="6.1429">
        <ele>1945.2</ele>
        <time>2024-08-09T11:20:33Z</time>
      </trkpt>
      <trkpt lat="45.08251" lon="6.14293">
        <ele>1945.4</ele>
        <time>2024-08-09T11:20:34Z</time>
      </trkpt>
      <trkpt lat="45.08251" lon="6.14293">
        <ele>1945.4</ele>
        <time>2024-08-09T11:20:35Z</time>
      </trkpt>
      <trkpt lat="45.08252" lon="6.14295">
        <ele>1945.4</ele>
        <time>2024-08-09T11:20:36Z</time>
      </trkpt>
      <trkpt lat="45.08252" lon="6.14295">
        <ele>1945.4</ele>
        <time>2024-08-09T11:20:37Z</time>
      </trkpt>
      <trkpt lat="45.08253" lon="6.14297">
        <ele>1945.4</ele>
        <time>2024-08-09T11:20:38Z</time>
      </trkpt>
      <trkpt lat="45.08253" lon="6.14297">
        <ele>1945.4</ele>
        <time>2024-08-09T11:20:39Z</time>
      </trkpt>
      <trkpt lat="45.08255" lon="6.143">
        <ele>1945.6</ele>
        <time>2024-08-09T11:20:40Z</time>
      </trkpt>
      <trkpt lat="45.08255" lon="6.143">
        <ele>1945.8</ele>
        <time>2024-08-09T11:20:41Z</time>
      </trkpt>
      <trkpt lat="45.08256" lon="6.14303">
        <ele>1945.8</ele>
        <time>2024-08-09T11:20:42Z</time>
      </trkpt>
      <trkpt lat="45.08256" lon="6.14303">
        <ele>1945.8</ele>
        <time>2024-08-09T11:20:43Z</time>
      </trkpt>
      <trkpt lat="45.08258" lon="6.14306">
        <ele>1945.8</ele>
        <time>2024-08-09T11:20:44Z</time>
      </trkpt>
      <trkpt lat="45.08258" lon="6.14306">
        <ele>1946</ele>
        <time>2024-08-09T11:20:45Z</time>
      </trkpt>
      <trkpt lat="45.0826" lon="6.14308">
        <ele>1946</ele>
        <time>2024-08-09T11:20:46Z</time>
      </trkpt>
      <trkpt lat="45.0826" lon="6.14308">
        <ele>1946</ele>
        <time>2024-08-09T11:20:47Z</time>
      </trkpt>
      <trkpt lat="45.08261" lon="6.14311">
        <ele>1946.2</ele>
        <time>2024-08-09T11:20:48Z</time>
      </trkpt>
      <trkpt lat="45.08261" lon="6.14311">
        <ele>1946.4</ele>
        <time>2024-08-09T11:20:49Z</time>
      </trkpt>
      <trkpt lat="45.08263" lon="6.14314">
        <ele>1946.4</ele>
        <time>2024-08-09T11:20:50Z</time>
      </trkpt>
      <trkpt lat="45.08263" lon="6.14314">
        <ele>1946.2</ele>
        <time>2024-08-09T11:20:51Z</time>
      </trkpt>
      <trkpt lat="45.08264" lon="6.14317">
        <ele>1946.2</ele>
        <time>2024-08-09T11:20:52Z</time>
      </trkpt>
      <trkpt lat="45.08264" lon="6.14317">
        <ele>1946.2</ele>
        <time>2024-08-09T11:20:53Z</time>
      </trkpt>
      <trkpt lat="45.08265" lon="6.1432">
        <ele>1946.4</ele>
        <time>2024-08-09T11:20:54Z</time>
      </trkpt>
      <trkpt lat="45.08265" lon="6.1432">
        <ele>1946.4</ele>
        <time>2024-08-09T11:20:55Z</time>
      </trkpt>
      <trkpt lat="45.08267" lon="6.14323">
        <ele>1946.6</ele>
        <time>2024-08-09T11:20:56Z</time>
      </trkpt>
      <trkpt lat="45.08267" lon="6.14323">
        <ele>1947</ele>
        <time>2024-08-09T11:20:57Z</time>
      </trkpt>
      <trkpt lat="45.08269" lon="6.14325">
        <ele>1947</ele>
        <time>2024-08-09T11:20:58Z</time>
      </trkpt>
      <trkpt lat="45.08269" lon="6.14325">
        <ele>1947.6</ele>
        <time>2024-08-09T11:20:59Z</time>
      </trkpt>
      <trkpt lat="45.0827" lon="6.14328">
        <ele>1947.8</ele>
        <time>2024-08-09T11:21:00Z</time>
      </trkpt>
      <trkpt lat="45.0827" lon="6.14328">
        <ele>1948</ele>
        <time>2024-08-09T11:21:01Z</time>
      </trkpt>
      <trkpt lat="45.08271" lon="6.14331">
        <ele>1948.2</ele>
        <time>2024-08-09T11:21:02Z</time>
      </trkpt>
      <trkpt lat="45.08271" lon="6.14331">
        <ele>1948.2</ele>
        <time>2024-08-09T11:21:03Z</time>
      </trkpt>
      <trkpt lat="45.08273" lon="6.14334">
        <ele>1948.6</ele>
        <time>2024-08-09T11:21:04Z</time>
      </trkpt>
      <trkpt lat="45.08273" lon="6.14334">
        <ele>1948.6</ele>
        <time>2024-08-09T11:21:05Z</time>
      </trkpt>
      <trkpt lat="45.08274" lon="6.14337">
        <ele>1948.8</ele>
        <time>2024-08-09T11:21:06Z</time>
      </trkpt>
      <trkpt lat="45.08274" lon="6.14337">
        <ele>1948.8</ele>
        <time>2024-08-09T11:21:07Z</time>
      </trkpt>
      <trkpt lat="45.08276" lon="6.1434">
        <ele>1948.8</ele>
        <time>2024-08-09T11:21:08Z</time>
      </trkpt>
      <trkpt lat="45.08276" lon="6.1434">
        <ele>1949</ele>
        <time>2024-08-09T11:21:09Z</time>
      </trkpt>
      <trkpt lat="45.08277" lon="6.14343">
        <ele>1949.2</ele>
        <time>2024-08-09T11:21:10Z</time>
      </trkpt>
      <trkpt lat="45.08277" lon="6.14343">
        <ele>1949.4</ele>
        <time>2024-08-09T11:21:11Z</time>
      </trkpt>
      <trkpt lat="45.08279" lon="6.14345">
        <ele>1949.8</ele>
        <time>2024-08-09T11:21:12Z</time>
      </trkpt>
      <trkpt lat="45.08279" lon="6.14345">
        <ele>1949.8</ele>
        <time>2024-08-09T11:21:13Z</time>
      </trkpt>
      <trkpt lat="45.08281" lon="6.14348">
        <ele>1949.8</ele>
        <time>2024-08-09T11:21:14Z</time>
      </trkpt>
      <trkpt lat="45.08281" lon="6.14348">
        <ele>1949.8</ele>
        <time>2024-08-09T11:21:15Z</time>
      </trkpt>
      <trkpt lat="45.08283" lon="6.14351">
        <ele>1950</ele>
        <time>2024-08-09T11:21:16Z</time>
      </trkpt>
      <trkpt lat="45.08283" lon="6.14351">
        <ele>1950.4</ele>
        <time>2024-08-09T11:21:17Z</time>
      </trkpt>
      <trkpt lat="45.08284" lon="6.14353">
        <ele>1950.6</ele>
        <time>2024-08-09T11:21:18Z</time>
      </trkpt>
      <trkpt lat="45.08284" lon="6.14353">
        <ele>1950.8</ele>
        <time>2024-08-09T11:21:19Z</time>
      </trkpt>
      <trkpt lat="45.08285" lon="6.14356">
        <ele>1951</ele>
        <time>2024-08-09T11:21:20Z</time>
      </trkpt>
      <trkpt lat="45.08285" lon="6.14356">
        <ele>1951</ele>
        <time>2024-08-09T11:21:21Z</time>
      </trkpt>
      <trkpt lat="45.08287" lon="6.14358">
        <ele>1951</ele>
        <time>2024-08-09T11:21:22Z</time>
      </trkpt>
      <trkpt lat="45.08287" lon="6.14358">
        <ele>1951.2</ele>
        <time>2024-08-09T11:21:23Z</time>
      </trkpt>
      <trkpt lat="45.08289" lon="6.14361">
        <ele>1951.2</ele>
        <time>2024-08-09T11:21:24Z</time>
      </trkpt>
      <trkpt lat="45.08289" lon="6.14361">
        <ele>1951.6</ele>
        <time>2024-08-09T11:21:25Z</time>
      </trkpt>
      <trkpt lat="45.08291" lon="6.14363">
        <ele>1951.8</ele>
        <time>2024-08-09T11:21:26Z</time>
      </trkpt>
      <trkpt lat="45.08291" lon="6.14363">
        <ele>1952</ele>
        <time>2024-08-09T11:21:27Z</time>
      </trkpt>
      <trkpt lat="45.08292" lon="6.14366">
        <ele>1952</ele>
        <time>2024-08-09T11:21:28Z</time>
      </trkpt>
      <trkpt lat="45.08292" lon="6.14366">
        <ele>1952</ele>
        <time>2024-08-09T11:21:29Z</time>
      </trkpt>
      <trkpt lat="45.08294" lon="6.14368">
        <ele>1952.4</ele>
        <time>2024-08-09T11:21:30Z</time>
      </trkpt>
      <trkpt lat="45.08294" lon="6.14368">
        <ele>1952.4</ele>
        <time>2024-08-09T11:21:31Z</time>
      </trkpt>
      <trkpt lat="45.08295" lon="6.1437">
        <ele>1952.6</ele>
        <time>2024-08-09T11:21:32Z</time>
      </trkpt>
      <trkpt lat="45.08295" lon="6.1437">
        <ele>1953.2</ele>
        <time>2024-08-09T11:21:33Z</time>
      </trkpt>
      <trkpt lat="45.08295" lon="6.1437">
        <ele>1953.2</ele>
        <time>2024-08-09T11:21:34Z</time>
      </trkpt>
      <trkpt lat="45.08295" lon="6.1437">
        <ele>1953.4</ele>
        <time>2024-08-09T11:21:35Z</time>
      </trkpt>
      <trkpt lat="45.08295" lon="6.1437">
        <ele>1953.4</ele>
        <time>2024-08-09T11:21:36Z</time>
      </trkpt>
      <trkpt lat="45.08295" lon="6.1437">
        <ele>1953.4</ele>
        <time>2024-08-09T11:21:37Z</time>
      </trkpt>
      <trkpt lat="45.08295" lon="6.1437">
        <ele>1953.6</ele>
        <time>2024-08-09T11:21:38Z</time>
      </trkpt>
      <trkpt lat="45.08295" lon="6.1437">
        <ele>1953.6</ele>
        <time>2024-08-09T11:21:39Z</time>
      </trkpt>
      <trkpt lat="45.08297" lon="6.14372">
        <ele>1953.2</ele>
        <time>2024-08-09T11:21:40Z</time>
      </trkpt>
      <trkpt lat="45.08297" lon="6.14372">
        <ele>1953.2</ele>
        <time>2024-08-09T11:21:41Z</time>
      </trkpt>
      <trkpt lat="45.08297" lon="6.14372">
        <ele>1953.4</ele>
        <time>2024-08-09T11:21:42Z</time>
      </trkpt>
      <trkpt lat="45.08299" lon="6.14376">
        <ele>1953.4</ele>
        <time>2024-08-09T11:21:43Z</time>
      </trkpt>
      <trkpt lat="45.08299" lon="6.14376">
        <ele>1953.4</ele>
        <time>2024-08-09T11:21:44Z</time>
      </trkpt>
      <trkpt lat="45.083" lon="6.14378">
        <ele>1953.6</ele>
        <time>2024-08-09T11:21:45Z</time>
      </trkpt>
      <trkpt lat="45.083" lon="6.14378">
        <ele>1953.8</ele>
        <time>2024-08-09T11:21:46Z</time>
      </trkpt>
      <trkpt lat="45.08302" lon="6.14379">
        <ele>1953.8</ele>
        <time>2024-08-09T11:21:47Z</time>
      </trkpt>
      <trkpt lat="45.08302" lon="6.14379">
        <ele>1953.8</ele>
        <time>2024-08-09T11:21:48Z</time>
      </trkpt>
      <trkpt lat="45.08304" lon="6.14382">
        <ele>1953.8</ele>
        <time>2024-08-09T11:21:49Z</time>
      </trkpt>
      <trkpt lat="45.08304" lon="6.14382">
        <ele>1954.2</ele>
        <time>2024-08-09T11:21:50Z</time>
      </trkpt>
      <trkpt lat="45.08306" lon="6.14385">
        <ele>1954.4</ele>
        <time>2024-08-09T11:21:51Z</time>
      </trkpt>
      <trkpt lat="45.08306" lon="6.14385">
        <ele>1954.4</ele>
        <time>2024-08-09T11:21:52Z</time>
      </trkpt>
      <trkpt lat="45.08308" lon="6.14387">
        <ele>1954.6</ele>
        <time>2024-08-09T11:21:53Z</time>
      </trkpt>
      <trkpt lat="45.08308" lon="6.14387">
        <ele>1954.8</ele>
        <time>2024-08-09T11:21:54Z</time>
      </trkpt>
      <trkpt lat="45.08309" lon="6.14389">
        <ele>1954.8</ele>
        <time>2024-08-09T11:21:55Z</time>
      </trkpt>
      <trkpt lat="45.08309" lon="6.14389">
        <ele>1954.8</ele>
        <time>2024-08-09T11:21:56Z</time>
      </trkpt>
      <trkpt lat="45.08311" lon="6.14392">
        <ele>1955.2</ele>
        <time>2024-08-09T11:21:57Z</time>
      </trkpt>
      <trkpt lat="45.08311" lon="6.14392">
        <ele>1955.8</ele>
        <time>2024-08-09T11:21:58Z</time>
      </trkpt>
      <trkpt lat="45.08313" lon="6.14395">
        <ele>1955.8</ele>
        <time>2024-08-09T11:21:59Z</time>
      </trkpt>
      <trkpt lat="45.08313" lon="6.14395">
        <ele>1955.8</ele>
        <time>2024-08-09T11:22:00Z</time>
      </trkpt>
      <trkpt lat="45.08315" lon="6.14397">
        <ele>1955.8</ele>
        <time>2024-08-09T11:22:01Z</time>
      </trkpt>
      <trkpt lat="45.08315" lon="6.14397">
        <ele>1956.6</ele>
        <time>2024-08-09T11:22:02Z</time>
      </trkpt>
      <trkpt lat="45.08317" lon="6.144">
        <ele>1956.6</ele>
        <time>2024-08-09T11:22:03Z</time>
      </trkpt>
      <trkpt lat="45.08317" lon="6.144">
        <ele>1956.8</ele>
        <time>2024-08-09T11:22:04Z</time>
      </trkpt>
      <trkpt lat="45.08318" lon="6.14402">
        <ele>1956.8</ele>
        <time>2024-08-09T11:22:05Z</time>
      </trkpt>
      <trkpt lat="45.08318" lon="6.14402">
        <ele>1957</ele>
        <time>2024-08-09T11:22:06Z</time>
      </trkpt>
      <trkpt lat="45.08318" lon="6.14402">
        <ele>1957.2</ele>
        <time>2024-08-09T11:22:07Z</time>
      </trkpt>
      <trkpt lat="45.08318" lon="6.14402">
        <ele>1957.2</ele>
        <time>2024-08-09T11:22:08Z</time>
      </trkpt>
      <trkpt lat="45.08321" lon="6.14404">
        <ele>1957.4</ele>
        <time>2024-08-09T11:22:09Z</time>
      </trkpt>
      <trkpt lat="45.08321" lon="6.14404">
        <ele>1957.4</ele>
        <time>2024-08-09T11:22:10Z</time>
      </trkpt>
      <trkpt lat="45.08322" lon="6.14407">
        <ele>1957.6</ele>
        <time>2024-08-09T11:22:11Z</time>
      </trkpt>
      <trkpt lat="45.08322" lon="6.14407">
        <ele>1957.6</ele>
        <time>2024-08-09T11:22:12Z</time>
      </trkpt>
      <trkpt lat="45.08324" lon="6.14409">
        <ele>1957.6</ele>
        <time>2024-08-09T11:22:13Z</time>
      </trkpt>
      <trkpt lat="45.08324" lon="6.14409">
        <ele>1957.8</ele>
        <time>2024-08-09T11:22:14Z</time>
      </trkpt>
      <trkpt lat="45.08326" lon="6.14411">
        <ele>1958</ele>
        <time>2024-08-09T11:22:15Z</time>
      </trkpt>
      <trkpt lat="45.08326" lon="6.14411">
        <ele>1958</ele>
        <time>2024-08-09T11:22:16Z</time>
      </trkpt>
      <trkpt lat="45.08327" lon="6.14413">
        <ele>1958.4</ele>
        <time>2024-08-09T11:22:17Z</time>
      </trkpt>
      <trkpt lat="45.08327" lon="6.14413">
        <ele>1958.4</ele>
        <time>2024-08-09T11:22:18Z</time>
      </trkpt>
      <trkpt lat="45.08329" lon="6.14416">
        <ele>1958.6</ele>
        <time>2024-08-09T11:22:19Z</time>
      </trkpt>
      <trkpt lat="45.08329" lon="6.14416">
        <ele>1958.6</ele>
        <time>2024-08-09T11:22:20Z</time>
      </trkpt>
      <trkpt lat="45.08331" lon="6.14418">
        <ele>1958.6</ele>
        <time>2024-08-09T11:22:21Z</time>
      </trkpt>
      <trkpt lat="45.08331" lon="6.14418">
        <ele>1958.8</ele>
        <time>2024-08-09T11:22:22Z</time>
      </trkpt>
      <trkpt lat="45.08332" lon="6.1442">
        <ele>1958.8</ele>
        <time>2024-08-09T11:22:23Z</time>
      </trkpt>
      <trkpt lat="45.08332" lon="6.1442">
        <ele>1959</ele>
        <time>2024-08-09T11:22:24Z</time>
      </trkpt>
      <trkpt lat="45.08333" lon="6.14423">
        <ele>1959.4</ele>
        <time>2024-08-09T11:22:25Z</time>
      </trkpt>
      <trkpt lat="45.08333" lon="6.14423">
        <ele>1959.4</ele>
        <time>2024-08-09T11:22:26Z</time>
      </trkpt>
      <trkpt lat="45.08333" lon="6.14423">
        <ele>1959.4</ele>
        <time>2024-08-09T11:22:27Z</time>
      </trkpt>
      <trkpt lat="45.08335" lon="6.14427">
        <ele>1959.4</ele>
        <time>2024-08-09T11:22:28Z</time>
      </trkpt>
      <trkpt lat="45.08335" lon="6.14427">
        <ele>1959.6</ele>
        <time>2024-08-09T11:22:29Z</time>
      </trkpt>
      <trkpt lat="45.08336" lon="6.14429">
        <ele>1959.8</ele>
        <time>2024-08-09T11:22:30Z</time>
      </trkpt>
      <trkpt lat="45.08336" lon="6.14429">
        <ele>1960</ele>
        <time>2024-08-09T11:22:31Z</time>
      </trkpt>
      <trkpt lat="45.08338" lon="6.14431">
        <ele>1960.4</ele>
        <time>2024-08-09T11:22:32Z</time>
      </trkpt>
      <trkpt lat="45.08338" lon="6.14431">
        <ele>1960.4</ele>
        <time>2024-08-09T11:22:33Z</time>
      </trkpt>
      <trkpt lat="45.0834" lon="6.14434">
        <ele>1960.6</ele>
        <time>2024-08-09T11:22:34Z</time>
      </trkpt>
      <trkpt lat="45.0834" lon="6.14434">
        <ele>1960.8</ele>
        <time>2024-08-09T11:22:35Z</time>
      </trkpt>
      <trkpt lat="45.08342" lon="6.14436">
        <ele>1960.8</ele>
        <time>2024-08-09T11:22:36Z</time>
      </trkpt>
      <trkpt lat="45.08342" lon="6.14436">
        <ele>1961.2</ele>
        <time>2024-08-09T11:22:37Z</time>
      </trkpt>
      <trkpt lat="45.08343" lon="6.14439">
        <ele>1961.4</ele>
        <time>2024-08-09T11:22:38Z</time>
      </trkpt>
      <trkpt lat="45.08343" lon="6.14439">
        <ele>1961.6</ele>
        <time>2024-08-09T11:22:39Z</time>
      </trkpt>
      <trkpt lat="45.08345" lon="6.14441">
        <ele>1961.6</ele>
        <time>2024-08-09T11:22:40Z</time>
      </trkpt>
      <trkpt lat="45.08345" lon="6.14441">
        <ele>1961.6</ele>
        <time>2024-08-09T11:22:41Z</time>
      </trkpt>
      <trkpt lat="45.08347" lon="6.14444">
        <ele>1961.8</ele>
        <time>2024-08-09T11:22:42Z</time>
      </trkpt>
      <trkpt lat="45.08347" lon="6.14444">
        <ele>1962</ele>
        <time>2024-08-09T11:22:43Z</time>
      </trkpt>
      <trkpt lat="45.08348" lon="6.14446">
        <ele>1962.2</ele>
        <time>2024-08-09T11:22:44Z</time>
      </trkpt>
      <trkpt lat="45.08348" lon="6.14446">
        <ele>1962.6</ele>
        <time>2024-08-09T11:22:45Z</time>
      </trkpt>
      <trkpt lat="45.08349" lon="6.14449">
        <ele>1962.6</ele>
        <time>2024-08-09T11:22:46Z</time>
      </trkpt>
      <trkpt lat="45.08349" lon="6.14449">
        <ele>1962.8</ele>
        <time>2024-08-09T11:22:47Z</time>
      </trkpt>
      <trkpt lat="45.08351" lon="6.14452">
        <ele>1962.8</ele>
        <time>2024-08-09T11:22:48Z</time>
      </trkpt>
      <trkpt lat="45.08351" lon="6.14452">
        <ele>1962.8</ele>
        <time>2024-08-09T11:22:49Z</time>
      </trkpt>
      <trkpt lat="45.08352" lon="6.14454">
        <ele>1963.2</ele>
        <time>2024-08-09T11:22:50Z</time>
      </trkpt>
      <trkpt lat="45.08352" lon="6.14454">
        <ele>1963.4</ele>
        <time>2024-08-09T11:22:51Z</time>
      </trkpt>
      <trkpt lat="45.08353" lon="6.14457">
        <ele>1963.6</ele>
        <time>2024-08-09T11:22:52Z</time>
      </trkpt>
      <trkpt lat="45.08353" lon="6.14457">
        <ele>1963.8</ele>
        <time>2024-08-09T11:22:53Z</time>
      </trkpt>
      <trkpt lat="45.08355" lon="6.1446">
        <ele>1963.8</ele>
        <time>2024-08-09T11:22:54Z</time>
      </trkpt>
      <trkpt lat="45.08355" lon="6.1446">
        <ele>1963.8</ele>
        <time>2024-08-09T11:22:55Z</time>
      </trkpt>
      <trkpt lat="45.08356" lon="6.14462">
        <ele>1964.2</ele>
        <time>2024-08-09T11:22:56Z</time>
      </trkpt>
      <trkpt lat="45.08356" lon="6.14462">
        <ele>1964.8</ele>
        <time>2024-08-09T11:22:57Z</time>
      </trkpt>
      <trkpt lat="45.08358" lon="6.14465">
        <ele>1964.8</ele>
        <time>2024-08-09T11:22:58Z</time>
      </trkpt>
      <trkpt lat="45.08358" lon="6.14465">
        <ele>1964.8</ele>
        <time>2024-08-09T11:22:59Z</time>
      </trkpt>
      <trkpt lat="45.08359" lon="6.14468">
        <ele>1964.8</ele>
        <time>2024-08-09T11:23:00Z</time>
      </trkpt>
      <trkpt lat="45.08359" lon="6.14468">
        <ele>1964.8</ele>
        <time>2024-08-09T11:23:01Z</time>
      </trkpt>
      <trkpt lat="45.0836" lon="6.14471">
        <ele>1965.2</ele>
        <time>2024-08-09T11:23:02Z</time>
      </trkpt>
      <trkpt lat="45.0836" lon="6.14471">
        <ele>1965.2</ele>
        <time>2024-08-09T11:23:03Z</time>
      </trkpt>
      <trkpt lat="45.08362" lon="6.14474">
        <ele>1965.4</ele>
        <time>2024-08-09T11:23:04Z</time>
      </trkpt>
      <trkpt lat="45.08362" lon="6.14474">
        <ele>1965.6</ele>
        <time>2024-08-09T11:23:05Z</time>
      </trkpt>
      <trkpt lat="45.08363" lon="6.14476">
        <ele>1965.8</ele>
        <time>2024-08-09T11:23:06Z</time>
      </trkpt>
      <trkpt lat="45.08363" lon="6.14476">
        <ele>1965.8</ele>
        <time>2024-08-09T11:23:07Z</time>
      </trkpt>
      <trkpt lat="45.08365" lon="6.14478">
        <ele>1966.2</ele>
        <time>2024-08-09T11:23:08Z</time>
      </trkpt>
      <trkpt lat="45.08365" lon="6.14478">
        <ele>1966.2</ele>
        <time>2024-08-09T11:23:09Z</time>
      </trkpt>
      <trkpt lat="45.08366" lon="6.14481">
        <ele>1966.2</ele>
        <time>2024-08-09T11:23:10Z</time>
      </trkpt>
      <trkpt lat="45.08366" lon="6.14481">
        <ele>1966.4</ele>
        <time>2024-08-09T11:23:11Z</time>
      </trkpt>
      <trkpt lat="45.08368" lon="6.14484">
        <ele>1966.6</ele>
        <time>2024-08-09T11:23:12Z</time>
      </trkpt>
      <trkpt lat="45.08368" lon="6.14484">
        <ele>1966.8</ele>
        <time>2024-08-09T11:23:13Z</time>
      </trkpt>
      <trkpt lat="45.0837" lon="6.14486">
        <ele>1967</ele>
        <time>2024-08-09T11:23:14Z</time>
      </trkpt>
      <trkpt lat="45.0837" lon="6.14486">
        <ele>1967</ele>
        <time>2024-08-09T11:23:15Z</time>
      </trkpt>
      <trkpt lat="45.08371" lon="6.14489">
        <ele>1967</ele>
        <time>2024-08-09T11:23:16Z</time>
      </trkpt>
      <trkpt lat="45.08371" lon="6.14489">
        <ele>1967.2</ele>
        <time>2024-08-09T11:23:17Z</time>
      </trkpt>
      <trkpt lat="45.08373" lon="6.14492">
        <ele>1967.4</ele>
        <time>2024-08-09T11:23:18Z</time>
      </trkpt>
      <trkpt lat="45.08373" lon="6.14492">
        <ele>1967.4</ele>
        <time>2024-08-09T11:23:19Z</time>
      </trkpt>
      <trkpt lat="45.08374" lon="6.14494">
        <ele>1967.4</ele>
        <time>2024-08-09T11:23:20Z</time>
      </trkpt>
      <trkpt lat="45.08374" lon="6.14494">
        <ele>1967.6</ele>
        <time>2024-08-09T11:23:21Z</time>
      </trkpt>
      <trkpt lat="45.08376" lon="6.14497">
        <ele>1967.6</ele>
        <time>2024-08-09T11:23:22Z</time>
      </trkpt>
      <trkpt lat="45.08376" lon="6.14497">
        <ele>1967.8</ele>
        <time>2024-08-09T11:23:23Z</time>
      </trkpt>
      <trkpt lat="45.08378" lon="6.145">
        <ele>1968</ele>
        <time>2024-08-09T11:23:24Z</time>
      </trkpt>
      <trkpt lat="45.08378" lon="6.145">
        <ele>1968</ele>
        <time>2024-08-09T11:23:25Z</time>
      </trkpt>
      <trkpt lat="45.08379" lon="6.14503">
        <ele>1968.4</ele>
        <time>2024-08-09T11:23:26Z</time>
      </trkpt>
      <trkpt lat="45.08379" lon="6.14503">
        <ele>1968.6</ele>
        <time>2024-08-09T11:23:27Z</time>
      </trkpt>
      <trkpt lat="45.08381" lon="6.14506">
        <ele>1968.6</ele>
        <time>2024-08-09T11:23:28Z</time>
      </trkpt>
      <trkpt lat="45.08381" lon="6.14506">
        <ele>1968.6</ele>
        <time>2024-08-09T11:23:29Z</time>
      </trkpt>
      <trkpt lat="45.08382" lon="6.14509">
        <ele>1968.8</ele>
        <time>2024-08-09T11:23:30Z</time>
      </trkpt>
      <trkpt lat="45.08382" lon="6.14509">
        <ele>1969</ele>
        <time>2024-08-09T11:23:31Z</time>
      </trkpt>
      <trkpt lat="45.08384" lon="6.14512">
        <ele>1969.2</ele>
        <time>2024-08-09T11:23:32Z</time>
      </trkpt>
      <trkpt lat="45.08384" lon="6.14512">
        <ele>1969.2</ele>
        <time>2024-08-09T11:23:33Z</time>
      </trkpt>
      <trkpt lat="45.08385" lon="6.14515">
        <ele>1969.4</ele>
        <time>2024-08-09T11:23:34Z</time>
      </trkpt>
      <trkpt lat="45.08385" lon="6.14515">
        <ele>1969.4</ele>
        <time>2024-08-09T11:23:35Z</time>
      </trkpt>
      <trkpt lat="45.08387" lon="6.14518">
        <ele>1969.6</ele>
        <time>2024-08-09T11:23:36Z</time>
      </trkpt>
      <trkpt lat="45.08387" lon="6.14518">
        <ele>1969.8</ele>
        <time>2024-08-09T11:23:37Z</time>
      </trkpt>
      <trkpt lat="45.08389" lon="6.14521">
        <ele>1970</ele>
        <time>2024-08-09T11:23:38Z</time>
      </trkpt>
      <trkpt lat="45.08389" lon="6.14521">
        <ele>1970</ele>
        <time>2024-08-09T11:23:39Z</time>
      </trkpt>
      <trkpt lat="45.0839" lon="6.14523">
        <ele>1970.2</ele>
        <time>2024-08-09T11:23:40Z</time>
      </trkpt>
      <trkpt lat="45.0839" lon="6.14523">
        <ele>1970.4</ele>
        <time>2024-08-09T11:23:41Z</time>
      </trkpt>
      <trkpt lat="45.08392" lon="6.14526">
        <ele>1970.4</ele>
        <time>2024-08-09T11:23:42Z</time>
      </trkpt>
      <trkpt lat="45.08392" lon="6.14526">
        <ele>1970.6</ele>
        <time>2024-08-09T11:23:43Z</time>
      </trkpt>
      <trkpt lat="45.08394" lon="6.14529">
        <ele>1970.6</ele>
        <time>2024-08-09T11:23:44Z</time>
      </trkpt>
      <trkpt lat="45.08394" lon="6.14529">
        <ele>1970.6</ele>
        <time>2024-08-09T11:23:45Z</time>
      </trkpt>
      <trkpt lat="45.08395" lon="6.14532">
        <ele>1970.8</ele>
        <time>2024-08-09T11:23:46Z</time>
      </trkpt>
      <trkpt lat="45.08395" lon="6.14532">
        <ele>1970.8</ele>
        <time>2024-08-09T11:23:47Z</time>
      </trkpt>
      <trkpt lat="45.08397" lon="6.14535">
        <ele>1970.8</ele>
        <time>2024-08-09T11:23:48Z</time>
      </trkpt>
      <trkpt lat="45.08397" lon="6.14535">
        <ele>1971</ele>
        <time>2024-08-09T11:23:49Z</time>
      </trkpt>
      <trkpt lat="45.08398" lon="6.14538">
        <ele>1971.2</ele>
        <time>2024-08-09T11:23:50Z</time>
      </trkpt>
      <trkpt lat="45.08398" lon="6.14538">
        <ele>1971.4</ele>
        <time>2024-08-09T11:23:51Z</time>
      </trkpt>
      <trkpt lat="45.084" lon="6.14541">
        <ele>1971.4</ele>
        <time>2024-08-09T11:23:52Z</time>
      </trkpt>
      <trkpt lat="45.084" lon="6.14541">
        <ele>1971.4</ele>
        <time>2024-08-09T11:23:53Z</time>
      </trkpt>
      <trkpt lat="45.08402" lon="6.14544">
        <ele>1971.6</ele>
        <time>2024-08-09T11:23:54Z</time>
      </trkpt>
      <trkpt lat="45.08402" lon="6.14544">
        <ele>1971.8</ele>
        <time>2024-08-09T11:23:55Z</time>
      </trkpt>
      <trkpt lat="45.08403" lon="6.14547">
        <ele>1972</ele>
        <time>2024-08-09T11:23:56Z</time>
      </trkpt>
      <trkpt lat="45.08403" lon="6.14547">
        <ele>1972</ele>
        <time>2024-08-09T11:23:57Z</time>
      </trkpt>
      <trkpt lat="45.08405" lon="6.1455">
        <ele>1972</ele>
        <time>2024-08-09T11:23:58Z</time>
      </trkpt>
      <trkpt lat="45.08405" lon="6.1455">
        <ele>1972</ele>
        <time>2024-08-09T11:23:59Z</time>
      </trkpt>
      <trkpt lat="45.08407" lon="6.14552">
        <ele>1972</ele>
        <time>2024-08-09T11:24:00Z</time>
      </trkpt>
      <trkpt lat="45.08407" lon="6.14552">
        <ele>1972</ele>
        <time>2024-08-09T11:24:01Z</time>
      </trkpt>
      <trkpt lat="45.08408" lon="6.14555">
        <ele>1972.2</ele>
        <time>2024-08-09T11:24:02Z</time>
      </trkpt>
      <trkpt lat="45.08408" lon="6.14555">
        <ele>1972.2</ele>
        <time>2024-08-09T11:24:03Z</time>
      </trkpt>
      <trkpt lat="45.0841" lon="6.14557">
        <ele>1972.2</ele>
        <time>2024-08-09T11:24:04Z</time>
      </trkpt>
      <trkpt lat="45.0841" lon="6.14557">
        <ele>1972.2</ele>
        <time>2024-08-09T11:24:05Z</time>
      </trkpt>
      <trkpt lat="45.08412" lon="6.14559">
        <ele>1972.2</ele>
        <time>2024-08-09T11:24:06Z</time>
      </trkpt>
      <trkpt lat="45.08412" lon="6.14559">
        <ele>1972.6</ele>
        <time>2024-08-09T11:24:07Z</time>
      </trkpt>
      <trkpt lat="45.08413" lon="6.14562">
        <ele>1972.6</ele>
        <time>2024-08-09T11:24:08Z</time>
      </trkpt>
      <trkpt lat="45.08413" lon="6.14562">
        <ele>1972.6</ele>
        <time>2024-08-09T11:24:09Z</time>
      </trkpt>
      <trkpt lat="45.08415" lon="6.14565">
        <ele>1972.8</ele>
        <time>2024-08-09T11:24:10Z</time>
      </trkpt>
      <trkpt lat="45.08415" lon="6.14565">
        <ele>1972.8</ele>
        <time>2024-08-09T11:24:11Z</time>
      </trkpt>
      <trkpt lat="45.08418" lon="6.14568">
        <ele>1972.8</ele>
        <time>2024-08-09T11:24:12Z</time>
      </trkpt>
      <trkpt lat="45.08418" lon="6.14568">
        <ele>1972.8</ele>
        <time>2024-08-09T11:24:13Z</time>
      </trkpt>
      <trkpt lat="45.08419" lon="6.1457">
        <ele>1973</ele>
        <time>2024-08-09T11:24:14Z</time>
      </trkpt>
      <trkpt lat="45.08419" lon="6.1457">
        <ele>1973.2</ele>
        <time>2024-08-09T11:24:15Z</time>
      </trkpt>
      <trkpt lat="45.08421" lon="6.14573">
        <ele>1973.2</ele>
        <time>2024-08-09T11:24:16Z</time>
      </trkpt>
      <trkpt lat="45.08421" lon="6.14573">
        <ele>1973.2</ele>
        <time>2024-08-09T11:24:17Z</time>
      </trkpt>
      <trkpt lat="45.08423" lon="6.14576">
        <ele>1973.4</ele>
        <time>2024-08-09T11:24:18Z</time>
      </trkpt>
      <trkpt lat="45.08423" lon="6.14576">
        <ele>1973.6</ele>
        <time>2024-08-09T11:24:19Z</time>
      </trkpt>
      <trkpt lat="45.08425" lon="6.14579">
        <ele>1973.8</ele>
        <time>2024-08-09T11:24:20Z</time>
      </trkpt>
      <trkpt lat="45.08425" lon="6.14579">
        <ele>1973.8</ele>
        <time>2024-08-09T11:24:21Z</time>
      </trkpt>
      <trkpt lat="45.08427" lon="6.14582">
        <ele>1973.8</ele>
        <time>2024-08-09T11:24:22Z</time>
      </trkpt>
      <trkpt lat="45.08427" lon="6.14582">
        <ele>1973.8</ele>
        <time>2024-08-09T11:24:23Z</time>
      </trkpt>
      <trkpt lat="45.08428" lon="6.14585">
        <ele>1973.8</ele>
        <time>2024-08-09T11:24:24Z</time>
      </trkpt>
      <trkpt lat="45.08428" lon="6.14585">
        <ele>1974</ele>
        <time>2024-08-09T11:24:25Z</time>
      </trkpt>
      <trkpt lat="45.0843" lon="6.14588">
        <ele>1974</ele>
        <time>2024-08-09T11:24:26Z</time>
      </trkpt>
      <trkpt lat="45.0843" lon="6.14588">
        <ele>1974</ele>
        <time>2024-08-09T11:24:27Z</time>
      </trkpt>
      <trkpt lat="45.08432" lon="6.14591">
        <ele>1974</ele>
        <time>2024-08-09T11:24:28Z</time>
      </trkpt>
      <trkpt lat="45.08432" lon="6.14591">
        <ele>1974</ele>
        <time>2024-08-09T11:24:29Z</time>
      </trkpt>
      <trkpt lat="45.08434" lon="6.14593">
        <ele>1974</ele>
        <time>2024-08-09T11:24:30Z</time>
      </trkpt>
      <trkpt lat="45.08434" lon="6.14593">
        <ele>1974</ele>
        <time>2024-08-09T11:24:31Z</time>
      </trkpt>
      <trkpt lat="45.08436" lon="6.14595">
        <ele>1974.2</ele>
        <time>2024-08-09T11:24:32Z</time>
      </trkpt>
      <trkpt lat="45.08436" lon="6.14595">
        <ele>1974.2</ele>
        <time>2024-08-09T11:24:33Z</time>
      </trkpt>
      <trkpt lat="45.08437" lon="6.14598">
        <ele>1974.2</ele>
        <time>2024-08-09T11:24:34Z</time>
      </trkpt>
      <trkpt lat="45.08437" lon="6.14598">
        <ele>1974.6</ele>
        <time>2024-08-09T11:24:35Z</time>
      </trkpt>
      <trkpt lat="45.0844" lon="6.146">
        <ele>1974.6</ele>
        <time>2024-08-09T11:24:36Z</time>
      </trkpt>
      <trkpt lat="45.0844" lon="6.146">
        <ele>1974.6</ele>
        <time>2024-08-09T11:24:37Z</time>
      </trkpt>
      <trkpt lat="45.08442" lon="6.14603">
        <ele>1975</ele>
        <time>2024-08-09T11:24:38Z</time>
      </trkpt>
      <trkpt lat="45.08442" lon="6.14603">
        <ele>1975</ele>
        <time>2024-08-09T11:24:39Z</time>
      </trkpt>
      <trkpt lat="45.08444" lon="6.14606">
        <ele>1975</ele>
        <time>2024-08-09T11:24:40Z</time>
      </trkpt>
      <trkpt lat="45.08444" lon="6.14606">
        <ele>1975</ele>
        <time>2024-08-09T11:24:41Z</time>
      </trkpt>
      <trkpt lat="45.08446" lon="6.14609">
        <ele>1975.2</ele>
        <time>2024-08-09T11:24:42Z</time>
      </trkpt>
      <trkpt lat="45.08446" lon="6.14609">
        <ele>1975.4</ele>
        <time>2024-08-09T11:24:43Z</time>
      </trkpt>
      <trkpt lat="45.08448" lon="6.14611">
        <ele>1975.6</ele>
        <time>2024-08-09T11:24:44Z</time>
      </trkpt>
      <trkpt lat="45.08448" lon="6.14611">
        <ele>1975.6</ele>
        <time>2024-08-09T11:24:45Z</time>
      </trkpt>
      <trkpt lat="45.08449" lon="6.14614">
        <ele>1976</ele>
        <time>2024-08-09T11:24:46Z</time>
      </trkpt>
      <trkpt lat="45.08449" lon="6.14614">
        <ele>1976</ele>
        <time>2024-08-09T11:24:47Z</time>
      </trkpt>
      <trkpt lat="45.0845" lon="6.14617">
        <ele>1976</ele>
        <time>2024-08-09T11:24:48Z</time>
      </trkpt>
      <trkpt lat="45.0845" lon="6.14617">
        <ele>1976</ele>
        <time>2024-08-09T11:24:49Z</time>
      </trkpt>
      <trkpt lat="45.08452" lon="6.1462">
        <ele>1976</ele>
        <time>2024-08-09T11:24:50Z</time>
      </trkpt>
      <trkpt lat="45.08452" lon="6.1462">
        <ele>1976</ele>
        <time>2024-08-09T11:24:51Z</time>
      </trkpt>
      <trkpt lat="45.08454" lon="6.14621">
        <ele>1976.4</ele>
        <time>2024-08-09T11:24:52Z</time>
      </trkpt>
      <trkpt lat="45.08454" lon="6.14621">
        <ele>1976.6</ele>
        <time>2024-08-09T11:24:53Z</time>
      </trkpt>
      <trkpt lat="45.08456" lon="6.14623">
        <ele>1976.6</ele>
        <time>2024-08-09T11:24:54Z</time>
      </trkpt>
      <trkpt lat="45.08456" lon="6.14623">
        <ele>1976.6</ele>
        <time>2024-08-09T11:24:55Z</time>
      </trkpt>
      <trkpt lat="45.08458" lon="6.14625">
        <ele>1976.8</ele>
        <time>2024-08-09T11:24:56Z</time>
      </trkpt>
      <trkpt lat="45.08458" lon="6.14625">
        <ele>1977</ele>
        <time>2024-08-09T11:24:57Z</time>
      </trkpt>
      <trkpt lat="45.08459" lon="6.14628">
        <ele>1977</ele>
        <time>2024-08-09T11:24:58Z</time>
      </trkpt>
      <trkpt lat="45.08459" lon="6.14628">
        <ele>1977</ele>
        <time>2024-08-09T11:24:59Z</time>
      </trkpt>
      <trkpt lat="45.08461" lon="6.14632">
        <ele>1977.2</ele>
        <time>2024-08-09T11:25:00Z</time>
      </trkpt>
      <trkpt lat="45.08461" lon="6.14632">
        <ele>1977.2</ele>
        <time>2024-08-09T11:25:01Z</time>
      </trkpt>
      <trkpt lat="45.08462" lon="6.14635">
        <ele>1977.2</ele>
        <time>2024-08-09T11:25:02Z</time>
      </trkpt>
      <trkpt lat="45.08462" lon="6.14635">
        <ele>1977.2</ele>
        <time>2024-08-09T11:25:03Z</time>
      </trkpt>
      <trkpt lat="45.08464" lon="6.14638">
        <ele>1977.2</ele>
        <time>2024-08-09T11:25:04Z</time>
      </trkpt>
      <trkpt lat="45.08464" lon="6.14638">
        <ele>1977.4</ele>
        <time>2024-08-09T11:25:05Z</time>
      </trkpt>
      <trkpt lat="45.08466" lon="6.14641">
        <ele>1977.6</ele>
        <time>2024-08-09T11:25:06Z</time>
      </trkpt>
      <trkpt lat="45.08466" lon="6.14641">
        <ele>1977.6</ele>
        <time>2024-08-09T11:25:07Z</time>
      </trkpt>
      <trkpt lat="45.08468" lon="6.14643">
        <ele>1977.8</ele>
        <time>2024-08-09T11:25:08Z</time>
      </trkpt>
      <trkpt lat="45.08468" lon="6.14643">
        <ele>1978.2</ele>
        <time>2024-08-09T11:25:09Z</time>
      </trkpt>
      <trkpt lat="45.0847" lon="6.14644">
        <ele>1978.4</ele>
        <time>2024-08-09T11:25:10Z</time>
      </trkpt>
      <trkpt lat="45.0847" lon="6.14644">
        <ele>1978.4</ele>
        <time>2024-08-09T11:25:11Z</time>
      </trkpt>
      <trkpt lat="45.08472" lon="6.14646">
        <ele>1978.4</ele>
        <time>2024-08-09T11:25:12Z</time>
      </trkpt>
      <trkpt lat="45.08472" lon="6.14646">
        <ele>1978.4</ele>
        <time>2024-08-09T11:25:13Z</time>
      </trkpt>
      <trkpt lat="45.08474" lon="6.14647">
        <ele>1978.6</ele>
        <time>2024-08-09T11:25:14Z</time>
      </trkpt>
      <trkpt lat="45.08474" lon="6.14647">
        <ele>1978.6</ele>
        <time>2024-08-09T11:25:15Z</time>
      </trkpt>
      <trkpt lat="45.08477" lon="6.1465">
        <ele>1978.6</ele>
        <time>2024-08-09T11:25:16Z</time>
      </trkpt>
      <trkpt lat="45.08477" lon="6.1465">
        <ele>1978.6</ele>
        <time>2024-08-09T11:25:17Z</time>
      </trkpt>
      <trkpt lat="45.08478" lon="6.14653">
        <ele>1978.6</ele>
        <time>2024-08-09T11:25:18Z</time>
      </trkpt>
      <trkpt lat="45.08478" lon="6.14653">
        <ele>1978.6</ele>
        <time>2024-08-09T11:25:19Z</time>
      </trkpt>
      <trkpt lat="45.0848" lon="6.14657">
        <ele>1978.6</ele>
        <time>2024-08-09T11:25:20Z</time>
      </trkpt>
      <trkpt lat="45.0848" lon="6.14657">
        <ele>1978.6</ele>
        <time>2024-08-09T11:25:21Z</time>
      </trkpt>
      <trkpt lat="45.08482" lon="6.1466">
        <ele>1978.8</ele>
        <time>2024-08-09T11:25:22Z</time>
      </trkpt>
      <trkpt lat="45.08482" lon="6.1466">
        <ele>1979</ele>
        <time>2024-08-09T11:25:23Z</time>
      </trkpt>
      <trkpt lat="45.08484" lon="6.14662">
        <ele>1979</ele>
        <time>2024-08-09T11:25:24Z</time>
      </trkpt>
      <trkpt lat="45.08484" lon="6.14662">
        <ele>1979</ele>
        <time>2024-08-09T11:25:25Z</time>
      </trkpt>
      <trkpt lat="45.08486" lon="6.14665">
        <ele>1979.2</ele>
        <time>2024-08-09T11:25:26Z</time>
      </trkpt>
      <trkpt lat="45.08486" lon="6.14665">
        <ele>1979.2</ele>
        <time>2024-08-09T11:25:27Z</time>
      </trkpt>
      <trkpt lat="45.08488" lon="6.14668">
        <ele>1979.2</ele>
        <time>2024-08-09T11:25:28Z</time>
      </trkpt>
      <trkpt lat="45.08488" lon="6.14668">
        <ele>1979.4</ele>
        <time>2024-08-09T11:25:29Z</time>
      </trkpt>
      <trkpt lat="45.08491" lon="6.1467">
        <ele>1979.8</ele>
        <time>2024-08-09T11:25:30Z</time>
      </trkpt>
      <trkpt lat="45.08491" lon="6.1467">
        <ele>1979.8</ele>
        <time>2024-08-09T11:25:31Z</time>
      </trkpt>
      <trkpt lat="45.08492" lon="6.14673">
        <ele>1979.8</ele>
        <time>2024-08-09T11:25:32Z</time>
      </trkpt>
      <trkpt lat="45.08492" lon="6.14673">
        <ele>1979.8</ele>
        <time>2024-08-09T11:25:33Z</time>
      </trkpt>
      <trkpt lat="45.08492" lon="6.14673">
        <ele>1979.8</ele>
        <time>2024-08-09T11:25:34Z</time>
      </trkpt>
      <trkpt lat="45.08492" lon="6.14673">
        <ele>1980</ele>
        <time>2024-08-09T11:25:35Z</time>
      </trkpt>
      <trkpt lat="45.08492" lon="6.14673">
        <ele>1980.2</ele>
        <time>2024-08-09T11:25:36Z</time>
      </trkpt>
      <trkpt lat="45.08493" lon="6.14676">
        <ele>1980.2</ele>
        <time>2024-08-09T11:25:37Z</time>
      </trkpt>
      <trkpt lat="45.08493" lon="6.14676">
        <ele>1979.8</ele>
        <time>2024-08-09T11:25:38Z</time>
      </trkpt>
      <trkpt lat="45.08493" lon="6.14676">
        <ele>1979.8</ele>
        <time>2024-08-09T11:25:39Z</time>
      </trkpt>
      <trkpt lat="45.08494" lon="6.14678">
        <ele>1979.8</ele>
        <time>2024-08-09T11:25:40Z</time>
      </trkpt>
      <trkpt lat="45.08494" lon="6.14678">
        <ele>1980</ele>
        <time>2024-08-09T11:25:41Z</time>
      </trkpt>
      <trkpt lat="45.08495" lon="6.1468">
        <ele>1980.2</ele>
        <time>2024-08-09T11:25:42Z</time>
      </trkpt>
      <trkpt lat="45.08495" lon="6.1468">
        <ele>1980.2</ele>
        <time>2024-08-09T11:25:43Z</time>
      </trkpt>
      <trkpt lat="45.08496" lon="6.14683">
        <ele>1980.2</ele>
        <time>2024-08-09T11:25:44Z</time>
      </trkpt>
      <trkpt lat="45.08496" lon="6.14683">
        <ele>1980.6</ele>
        <time>2024-08-09T11:25:45Z</time>
      </trkpt>
      <trkpt lat="45.08498" lon="6.14686">
        <ele>1980.6</ele>
        <time>2024-08-09T11:25:46Z</time>
      </trkpt>
      <trkpt lat="45.08498" lon="6.14686">
        <ele>1980.6</ele>
        <time>2024-08-09T11:25:47Z</time>
      </trkpt>
      <trkpt lat="45.085" lon="6.14689">
        <ele>1980.8</ele>
        <time>2024-08-09T11:25:48Z</time>
      </trkpt>
      <trkpt lat="45.085" lon="6.14689">
        <ele>1981</ele>
        <time>2024-08-09T11:25:49Z</time>
      </trkpt>
      <trkpt lat="45.08502" lon="6.14692">
        <ele>1981.2</ele>
        <time>2024-08-09T11:25:50Z</time>
      </trkpt>
      <trkpt lat="45.08503" lon="6.14694">
        <ele>1981.4</ele>
        <time>2024-08-09T11:25:51Z</time>
      </trkpt>
      <trkpt lat="45.08503" lon="6.14694">
        <ele>1981.4</ele>
        <time>2024-08-09T11:25:52Z</time>
      </trkpt>
      <trkpt lat="45.08505" lon="6.14697">
        <ele>1981.4</ele>
        <time>2024-08-09T11:25:53Z</time>
      </trkpt>
      <trkpt lat="45.08505" lon="6.14697">
        <ele>1981.4</ele>
        <time>2024-08-09T11:25:54Z</time>
      </trkpt>
      <trkpt lat="45.08507" lon="6.14699">
        <ele>1981.8</ele>
        <time>2024-08-09T11:25:55Z</time>
      </trkpt>
      <trkpt lat="45.08507" lon="6.14699">
        <ele>1981.8</ele>
        <time>2024-08-09T11:25:56Z</time>
      </trkpt>
      <trkpt lat="45.08509" lon="6.14701">
        <ele>1981.8</ele>
        <time>2024-08-09T11:25:57Z</time>
      </trkpt>
      <trkpt lat="45.08509" lon="6.14701">
        <ele>1982</ele>
        <time>2024-08-09T11:25:58Z</time>
      </trkpt>
      <trkpt lat="45.08511" lon="6.14704">
        <ele>1982</ele>
        <time>2024-08-09T11:25:59Z</time>
      </trkpt>
      <trkpt lat="45.08511" lon="6.14704">
        <ele>1982.2</ele>
        <time>2024-08-09T11:26:00Z</time>
      </trkpt>
      <trkpt lat="45.08513" lon="6.14706">
        <ele>1982.2</ele>
        <time>2024-08-09T11:26:01Z</time>
      </trkpt>
      <trkpt lat="45.08513" lon="6.14706">
        <ele>1982.4</ele>
        <time>2024-08-09T11:26:02Z</time>
      </trkpt>
      <trkpt lat="45.08516" lon="6.14708">
        <ele>1982.4</ele>
        <time>2024-08-09T11:26:03Z</time>
      </trkpt>
      <trkpt lat="45.08517" lon="6.14709">
        <ele>1982.6</ele>
        <time>2024-08-09T11:26:04Z</time>
      </trkpt>
      <trkpt lat="45.08518" lon="6.1471">
        <ele>1983</ele>
        <time>2024-08-09T11:26:05Z</time>
      </trkpt>
      <trkpt lat="45.08518" lon="6.14711">
        <ele>1983</ele>
        <time>2024-08-09T11:26:06Z</time>
      </trkpt>
      <trkpt lat="45.08519" lon="6.14712">
        <ele>1982.8</ele>
        <time>2024-08-09T11:26:07Z</time>
      </trkpt>
      <trkpt lat="45.08521" lon="6.14715">
        <ele>1982.8</ele>
        <time>2024-08-09T11:26:08Z</time>
      </trkpt>
      <trkpt lat="45.08521" lon="6.14715">
        <ele>1983.2</ele>
        <time>2024-08-09T11:26:09Z</time>
      </trkpt>
      <trkpt lat="45.08523" lon="6.14717">
        <ele>1983.2</ele>
        <time>2024-08-09T11:26:10Z</time>
      </trkpt>
      <trkpt lat="45.08523" lon="6.14717">
        <ele>1983.2</ele>
        <time>2024-08-09T11:26:11Z</time>
      </trkpt>
      <trkpt lat="45.08525" lon="6.14719">
        <ele>1983.2</ele>
        <time>2024-08-09T11:26:12Z</time>
      </trkpt>
      <trkpt lat="45.08525" lon="6.14719">
        <ele>1983.4</ele>
        <time>2024-08-09T11:26:13Z</time>
      </trkpt>
      <trkpt lat="45.08527" lon="6.14721">
        <ele>1983.6</ele>
        <time>2024-08-09T11:26:14Z</time>
      </trkpt>
      <trkpt lat="45.08527" lon="6.14721">
        <ele>1983.6</ele>
        <time>2024-08-09T11:26:15Z</time>
      </trkpt>
      <trkpt lat="45.08529" lon="6.14723">
        <ele>1983.8</ele>
        <time>2024-08-09T11:26:16Z</time>
      </trkpt>
      <trkpt lat="45.08529" lon="6.14723">
        <ele>1983.8</ele>
        <time>2024-08-09T11:26:17Z</time>
      </trkpt>
      <trkpt lat="45.08531" lon="6.14725">
        <ele>1983.8</ele>
        <time>2024-08-09T11:26:18Z</time>
      </trkpt>
      <trkpt lat="45.08531" lon="6.14725">
        <ele>1984</ele>
        <time>2024-08-09T11:26:19Z</time>
      </trkpt>
      <trkpt lat="45.08533" lon="6.14727">
        <ele>1984</ele>
        <time>2024-08-09T11:26:20Z</time>
      </trkpt>
      <trkpt lat="45.08535" lon="6.14728">
        <ele>1984.2</ele>
        <time>2024-08-09T11:26:21Z</time>
      </trkpt>
      <trkpt lat="45.08535" lon="6.14728">
        <ele>1984.4</ele>
        <time>2024-08-09T11:26:22Z</time>
      </trkpt>
      <trkpt lat="45.08537" lon="6.14729">
        <ele>1984.6</ele>
        <time>2024-08-09T11:26:23Z</time>
      </trkpt>
      <trkpt lat="45.08537" lon="6.14729">
        <ele>1984.6</ele>
        <time>2024-08-09T11:26:24Z</time>
      </trkpt>
      <trkpt lat="45.08539" lon="6.14731">
        <ele>1984.4</ele>
        <time>2024-08-09T11:26:25Z</time>
      </trkpt>
      <trkpt lat="45.08539" lon="6.14731">
        <ele>1984.4</ele>
        <time>2024-08-09T11:26:26Z</time>
      </trkpt>
      <trkpt lat="45.08541" lon="6.14734">
        <ele>1984.6</ele>
        <time>2024-08-09T11:26:27Z</time>
      </trkpt>
      <trkpt lat="45.08541" lon="6.14734">
        <ele>1984.8</ele>
        <time>2024-08-09T11:26:28Z</time>
      </trkpt>
      <trkpt lat="45.08544" lon="6.14736">
        <ele>1985</ele>
        <time>2024-08-09T11:26:29Z</time>
      </trkpt>
      <trkpt lat="45.08544" lon="6.14736">
        <ele>1985</ele>
        <time>2024-08-09T11:26:30Z</time>
      </trkpt>
      <trkpt lat="45.08546" lon="6.14737">
        <ele>1985.2</ele>
        <time>2024-08-09T11:26:31Z</time>
      </trkpt>
      <trkpt lat="45.08546" lon="6.14737">
        <ele>1985.2</ele>
        <time>2024-08-09T11:26:32Z</time>
      </trkpt>
      <trkpt lat="45.08548" lon="6.14738">
        <ele>1985.4</ele>
        <time>2024-08-09T11:26:33Z</time>
      </trkpt>
      <trkpt lat="45.08548" lon="6.14738">
        <ele>1985.6</ele>
        <time>2024-08-09T11:26:34Z</time>
      </trkpt>
      <trkpt lat="45.0855" lon="6.14739">
        <ele>1985.6</ele>
        <time>2024-08-09T11:26:35Z</time>
      </trkpt>
      <trkpt lat="45.0855" lon="6.14739">
        <ele>1985.6</ele>
        <time>2024-08-09T11:26:36Z</time>
      </trkpt>
      <trkpt lat="45.08552" lon="6.14741">
        <ele>1985.8</ele>
        <time>2024-08-09T11:26:37Z</time>
      </trkpt>
      <trkpt lat="45.08552" lon="6.14741">
        <ele>1986</ele>
        <time>2024-08-09T11:26:38Z</time>
      </trkpt>
      <trkpt lat="45.08554" lon="6.14743">
        <ele>1986</ele>
        <time>2024-08-09T11:26:39Z</time>
      </trkpt>
      <trkpt lat="45.08554" lon="6.14743">
        <ele>1986</ele>
        <time>2024-08-09T11:26:40Z</time>
      </trkpt>
      <trkpt lat="45.08556" lon="6.14746">
        <ele>1986.2</ele>
        <time>2024-08-09T11:26:41Z</time>
      </trkpt>
      <trkpt lat="45.08556" lon="6.14746">
        <ele>1986.2</ele>
        <time>2024-08-09T11:26:42Z</time>
      </trkpt>
      <trkpt lat="45.08558" lon="6.14748">
        <ele>1986.2</ele>
        <time>2024-08-09T11:26:43Z</time>
      </trkpt>
      <trkpt lat="45.08558" lon="6.14748">
        <ele>1986.4</ele>
        <time>2024-08-09T11:26:44Z</time>
      </trkpt>
      <trkpt lat="45.08559" lon="6.14751">
        <ele>1986.6</ele>
        <time>2024-08-09T11:26:45Z</time>
      </trkpt>
      <trkpt lat="45.08559" lon="6.14751">
        <ele>1986.6</ele>
        <time>2024-08-09T11:26:46Z</time>
      </trkpt>
      <trkpt lat="45.08562" lon="6.14753">
        <ele>1986.6</ele>
        <time>2024-08-09T11:26:47Z</time>
      </trkpt>
      <trkpt lat="45.08562" lon="6.14753">
        <ele>1985.8</ele>
        <time>2024-08-09T11:26:48Z</time>
      </trkpt>
      <trkpt lat="45.08564" lon="6.14756">
        <ele>1985.6</ele>
        <time>2024-08-09T11:26:49Z</time>
      </trkpt>
      <trkpt lat="45.08564" lon="6.14756">
        <ele>1985.8</ele>
        <time>2024-08-09T11:26:50Z</time>
      </trkpt>
      <trkpt lat="45.08565" lon="6.14758">
        <ele>1986</ele>
        <time>2024-08-09T11:26:51Z</time>
      </trkpt>
      <trkpt lat="45.08565" lon="6.14758">
        <ele>1986</ele>
        <time>2024-08-09T11:26:52Z</time>
      </trkpt>
      <trkpt lat="45.08567" lon="6.1476">
        <ele>1986</ele>
        <time>2024-08-09T11:26:53Z</time>
      </trkpt>
      <trkpt lat="45.08567" lon="6.1476">
        <ele>1986.2</ele>
        <time>2024-08-09T11:26:54Z</time>
      </trkpt>
      <trkpt lat="45.0857" lon="6.14762">
        <ele>1986.2</ele>
        <time>2024-08-09T11:26:55Z</time>
      </trkpt>
      <trkpt lat="45.0857" lon="6.14762">
        <ele>1986.4</ele>
        <time>2024-08-09T11:26:56Z</time>
      </trkpt>
      <trkpt lat="45.08571" lon="6.14765">
        <ele>1986.4</ele>
        <time>2024-08-09T11:26:57Z</time>
      </trkpt>
      <trkpt lat="45.08571" lon="6.14765">
        <ele>1986.4</ele>
        <time>2024-08-09T11:26:58Z</time>
      </trkpt>
      <trkpt lat="45.08573" lon="6.14766">
        <ele>1986.6</ele>
        <time>2024-08-09T11:26:59Z</time>
      </trkpt>
      <trkpt lat="45.08573" lon="6.14766">
        <ele>1986.8</ele>
        <time>2024-08-09T11:27:00Z</time>
      </trkpt>
      <trkpt lat="45.08576" lon="6.14767">
        <ele>1986.8</ele>
        <time>2024-08-09T11:27:01Z</time>
      </trkpt>
      <trkpt lat="45.08576" lon="6.14767">
        <ele>1987</ele>
        <time>2024-08-09T11:27:02Z</time>
      </trkpt>
      <trkpt lat="45.08577" lon="6.1477">
        <ele>1987.2</ele>
        <time>2024-08-09T11:27:03Z</time>
      </trkpt>
      <trkpt lat="45.08577" lon="6.1477">
        <ele>1987.2</ele>
        <time>2024-08-09T11:27:04Z</time>
      </trkpt>
      <trkpt lat="45.08579" lon="6.14772">
        <ele>1987.2</ele>
        <time>2024-08-09T11:27:05Z</time>
      </trkpt>
      <trkpt lat="45.08579" lon="6.14772">
        <ele>1987.2</ele>
        <time>2024-08-09T11:27:06Z</time>
      </trkpt>
      <trkpt lat="45.08581" lon="6.14776">
        <ele>1987.2</ele>
        <time>2024-08-09T11:27:07Z</time>
      </trkpt>
      <trkpt lat="45.08581" lon="6.14776">
        <ele>1987.4</ele>
        <time>2024-08-09T11:27:08Z</time>
      </trkpt>
      <trkpt lat="45.08583" lon="6.14779">
        <ele>1987.6</ele>
        <time>2024-08-09T11:27:09Z</time>
      </trkpt>
      <trkpt lat="45.08583" lon="6.14779">
        <ele>1987.6</ele>
        <time>2024-08-09T11:27:10Z</time>
      </trkpt>
      <trkpt lat="45.08585" lon="6.14782">
        <ele>1987.6</ele>
        <time>2024-08-09T11:27:11Z</time>
      </trkpt>
      <trkpt lat="45.08587" lon="6.14783">
        <ele>1987.4</ele>
        <time>2024-08-09T11:27:12Z</time>
      </trkpt>
      <trkpt lat="45.08587" lon="6.14783">
        <ele>1987.4</ele>
        <time>2024-08-09T11:27:13Z</time>
      </trkpt>
      <trkpt lat="45.08589" lon="6.14785">
        <ele>1987.8</ele>
        <time>2024-08-09T11:27:14Z</time>
      </trkpt>
      <trkpt lat="45.08589" lon="6.14785">
        <ele>1987.8</ele>
        <time>2024-08-09T11:27:15Z</time>
      </trkpt>
      <trkpt lat="45.08591" lon="6.14788">
        <ele>1988</ele>
        <time>2024-08-09T11:27:16Z</time>
      </trkpt>
      <trkpt lat="45.08591" lon="6.14788">
        <ele>1988</ele>
        <time>2024-08-09T11:27:17Z</time>
      </trkpt>
      <trkpt lat="45.08593" lon="6.14792">
        <ele>1988.2</ele>
        <time>2024-08-09T11:27:18Z</time>
      </trkpt>
      <trkpt lat="45.08593" lon="6.14792">
        <ele>1988.4</ele>
        <time>2024-08-09T11:27:19Z</time>
      </trkpt>
      <trkpt lat="45.08595" lon="6.14795">
        <ele>1988.6</ele>
        <time>2024-08-09T11:27:20Z</time>
      </trkpt>
      <trkpt lat="45.08595" lon="6.14795">
        <ele>1988.6</ele>
        <time>2024-08-09T11:27:21Z</time>
      </trkpt>
      <trkpt lat="45.08597" lon="6.14797">
        <ele>1988.6</ele>
        <time>2024-08-09T11:27:22Z</time>
      </trkpt>
      <trkpt lat="45.08597" lon="6.14797">
        <ele>1988.8</ele>
        <time>2024-08-09T11:27:23Z</time>
      </trkpt>
      <trkpt lat="45.08599" lon="6.14798">
        <ele>1989</ele>
        <time>2024-08-09T11:27:24Z</time>
      </trkpt>
      <trkpt lat="45.08599" lon="6.14798">
        <ele>1989.2</ele>
        <time>2024-08-09T11:27:25Z</time>
      </trkpt>
      <trkpt lat="45.08601" lon="6.14798">
        <ele>1989.4</ele>
        <time>2024-08-09T11:27:26Z</time>
      </trkpt>
      <trkpt lat="45.08601" lon="6.14798">
        <ele>1989.6</ele>
        <time>2024-08-09T11:27:27Z</time>
      </trkpt>
      <trkpt lat="45.08601" lon="6.14798">
        <ele>1989.6</ele>
        <time>2024-08-09T11:27:28Z</time>
      </trkpt>
      <trkpt lat="45.08601" lon="6.14798">
        <ele>1989.6</ele>
        <time>2024-08-09T11:27:29Z</time>
      </trkpt>
      <trkpt lat="45.08602" lon="6.14797">
        <ele>1989.6</ele>
        <time>2024-08-09T11:27:30Z</time>
      </trkpt>
      <trkpt lat="45.08602" lon="6.14797">
        <ele>1989.8</ele>
        <time>2024-08-09T11:27:31Z</time>
      </trkpt>
      <trkpt lat="45.08603" lon="6.14793">
        <ele>1990.2</ele>
        <time>2024-08-09T11:27:32Z</time>
      </trkpt>
      <trkpt lat="45.08603" lon="6.14793">
        <ele>1990.2</ele>
        <time>2024-08-09T11:27:33Z</time>
      </trkpt>
      <trkpt lat="45.08605" lon="6.14791">
        <ele>1990.2</ele>
        <time>2024-08-09T11:27:34Z</time>
      </trkpt>
      <trkpt lat="45.08605" lon="6.14791">
        <ele>1990.2</ele>
        <time>2024-08-09T11:27:35Z</time>
      </trkpt>
      <trkpt lat="45.08605" lon="6.14787">
        <ele>1990.2</ele>
        <time>2024-08-09T11:27:36Z</time>
      </trkpt>
      <trkpt lat="45.08605" lon="6.14787">
        <ele>1990.2</ele>
        <time>2024-08-09T11:27:37Z</time>
      </trkpt>
      <trkpt lat="45.08606" lon="6.14784">
        <ele>1989.8</ele>
        <time>2024-08-09T11:27:38Z</time>
      </trkpt>
      <trkpt lat="45.08606" lon="6.14784">
        <ele>1989.6</ele>
        <time>2024-08-09T11:27:39Z</time>
      </trkpt>
      <trkpt lat="45.08607" lon="6.1478">
        <ele>1989.4</ele>
        <time>2024-08-09T11:27:40Z</time>
      </trkpt>
      <trkpt lat="45.08607" lon="6.1478">
        <ele>1989.4</ele>
        <time>2024-08-09T11:27:41Z</time>
      </trkpt>
      <trkpt lat="45.08608" lon="6.14776">
        <ele>1989.4</ele>
        <time>2024-08-09T11:27:42Z</time>
      </trkpt>
      <trkpt lat="45.08608" lon="6.14776">
        <ele>1989</ele>
        <time>2024-08-09T11:27:43Z</time>
      </trkpt>
      <trkpt lat="45.08609" lon="6.14771">
        <ele>1989</ele>
        <time>2024-08-09T11:27:44Z</time>
      </trkpt>
      <trkpt lat="45.08609" lon="6.14771">
        <ele>1988.8</ele>
        <time>2024-08-09T11:27:45Z</time>
      </trkpt>
      <trkpt lat="45.08609" lon="6.14768">
        <ele>1988.8</ele>
        <time>2024-08-09T11:27:46Z</time>
      </trkpt>
      <trkpt lat="45.08609" lon="6.14768">
        <ele>1988.8</ele>
        <time>2024-08-09T11:27:47Z</time>
      </trkpt>
      <trkpt lat="45.0861" lon="6.14764">
        <ele>1988.8</ele>
        <time>2024-08-09T11:27:48Z</time>
      </trkpt>
      <trkpt lat="45.0861" lon="6.14764">
        <ele>1988.6</ele>
        <time>2024-08-09T11:27:49Z</time>
      </trkpt>
      <trkpt lat="45.08611" lon="6.14761">
        <ele>1988.6</ele>
        <time>2024-08-09T11:27:50Z</time>
      </trkpt>
      <trkpt lat="45.08611" lon="6.14761">
        <ele>1988.4</ele>
        <time>2024-08-09T11:27:51Z</time>
      </trkpt>
      <trkpt lat="45.08612" lon="6.14758">
        <ele>1988.4</ele>
        <time>2024-08-09T11:27:52Z</time>
      </trkpt>
      <trkpt lat="45.08612" lon="6.14758">
        <ele>1988.4</ele>
        <time>2024-08-09T11:27:53Z</time>
      </trkpt>
      <trkpt lat="45.08612" lon="6.14754">
        <ele>1988</ele>
        <time>2024-08-09T11:27:54Z</time>
      </trkpt>
      <trkpt lat="45.08612" lon="6.14754">
        <ele>1987.8</ele>
        <time>2024-08-09T11:27:55Z</time>
      </trkpt>
      <trkpt lat="45.08613" lon="6.14751">
        <ele>1987.8</ele>
        <time>2024-08-09T11:27:56Z</time>
      </trkpt>
      <trkpt lat="45.08613" lon="6.14751">
        <ele>1987.8</ele>
        <time>2024-08-09T11:27:57Z</time>
      </trkpt>
      <trkpt lat="45.08613" lon="6.14748">
        <ele>1987.8</ele>
        <time>2024-08-09T11:27:58Z</time>
      </trkpt>
      <trkpt lat="45.08613" lon="6.14748">
        <ele>1987.8</ele>
        <time>2024-08-09T11:27:59Z</time>
      </trkpt>
      <trkpt lat="45.08613" lon="6.14745">
        <ele>1987.8</ele>
        <time>2024-08-09T11:28:00Z</time>
      </trkpt>
      <trkpt lat="45.08613" lon="6.14745">
        <ele>1987.4</ele>
        <time>2024-08-09T11:28:01Z</time>
      </trkpt>
      <trkpt lat="45.08613" lon="6.14742">
        <ele>1987.4</ele>
        <time>2024-08-09T11:28:02Z</time>
      </trkpt>
      <trkpt lat="45.08613" lon="6.14742">
        <ele>1987.4</ele>
        <time>2024-08-09T11:28:03Z</time>
      </trkpt>
      <trkpt lat="45.08614" lon="6.14739">
        <ele>1987.4</ele>
        <time>2024-08-09T11:28:04Z</time>
      </trkpt>
      <trkpt lat="45.08614" lon="6.14739">
        <ele>1987.8</ele>
        <time>2024-08-09T11:28:05Z</time>
      </trkpt>
      <trkpt lat="45.08614" lon="6.14739">
        <ele>1987.8</ele>
        <time>2024-08-09T11:28:06Z</time>
      </trkpt>
      <trkpt lat="45.08614" lon="6.14739">
        <ele>1987.8</ele>
        <time>2024-08-09T11:28:07Z</time>
      </trkpt>
      <trkpt lat="45.08615" lon="6.14736">
        <ele>1987.8</ele>
        <time>2024-08-09T11:28:08Z</time>
      </trkpt>
      <trkpt lat="45.08615" lon="6.14736">
        <ele>1988</ele>
        <time>2024-08-09T11:28:09Z</time>
      </trkpt>
      <trkpt lat="45.08615" lon="6.14736">
        <ele>1988</ele>
        <time>2024-08-09T11:28:10Z</time>
      </trkpt>
      <trkpt lat="45.08615" lon="6.14736">
        <ele>1988</ele>
        <time>2024-08-09T11:28:11Z</time>
      </trkpt>
      <trkpt lat="45.08615" lon="6.14736">
        <ele>1987.8</ele>
        <time>2024-08-09T11:28:12Z</time>
      </trkpt>
      <trkpt lat="45.08615" lon="6.14736">
        <ele>1987.8</ele>
        <time>2024-08-09T11:28:13Z</time>
      </trkpt>
      <trkpt lat="45.08615" lon="6.14736">
        <ele>1988</ele>
        <time>2024-08-09T11:28:14Z</time>
      </trkpt>
      <trkpt lat="45.08615" lon="6.14736">
        <ele>1988</ele>
        <time>2024-08-09T11:28:15Z</time>
      </trkpt>
      <trkpt lat="45.08615" lon="6.14736">
        <ele>1988</ele>
        <time>2024-08-09T11:28:16Z</time>
      </trkpt>
      <trkpt lat="45.08615" lon="6.14736">
        <ele>1988</ele>
        <time>2024-08-09T11:28:17Z</time>
      </trkpt>
      <trkpt lat="45.08615" lon="6.14736">
        <ele>1988</ele>
        <time>2024-08-09T11:28:18Z</time>
      </trkpt>
      <trkpt lat="45.08615" lon="6.14736">
        <ele>1988</ele>
        <time>2024-08-09T11:28:19Z</time>
      </trkpt>
      <trkpt lat="45.08615" lon="6.14736">
        <ele>1988.4</ele>
        <time>2024-08-09T11:28:20Z</time>
      </trkpt>
      <trkpt lat="45.08615" lon="6.14736">
        <ele>1988.4</ele>
        <time>2024-08-09T11:28:21Z</time>
      </trkpt>
      <trkpt lat="45.08615" lon="6.14736">
        <ele>1988.2</ele>
        <time>2024-08-09T11:28:22Z</time>
      </trkpt>
      <trkpt lat="45.08615" lon="6.14736">
        <ele>1988.2</ele>
        <time>2024-08-09T11:28:23Z</time>
      </trkpt>
      <trkpt lat="45.08615" lon="6.14736">
        <ele>1988.2</ele>
        <time>2024-08-09T11:28:24Z</time>
      </trkpt>
      <trkpt lat="45.08615" lon="6.14736">
        <ele>1988.4</ele>
        <time>2024-08-09T11:28:25Z</time>
      </trkpt>
      <trkpt lat="45.08615" lon="6.14736">
        <ele>1988.4</ele>
        <time>2024-08-09T11:28:26Z</time>
      </trkpt>
      <trkpt lat="45.08615" lon="6.14736">
        <ele>1988.4</ele>
        <time>2024-08-09T11:28:27Z</time>
      </trkpt>
      <trkpt lat="45.08615" lon="6.14736">
        <ele>1988.6</ele>
        <time>2024-08-09T11:28:28Z</time>
      </trkpt>
      <trkpt lat="45.08615" lon="6.14736">
        <ele>1988.8</ele>
        <time>2024-08-09T11:28:29Z</time>
      </trkpt>
      <trkpt lat="45.08615" lon="6.14736">
        <ele>1988.8</ele>
        <time>2024-08-09T11:28:30Z</time>
      </trkpt>
      <trkpt lat="45.08615" lon="6.14736">
        <ele>1988.6</ele>
        <time>2024-08-09T11:28:31Z</time>
      </trkpt>
      <trkpt lat="45.08615" lon="6.14736">
        <ele>1988.6</ele>
        <time>2024-08-09T11:28:32Z</time>
      </trkpt>
      <trkpt lat="45.08615" lon="6.14736">
        <ele>1988.6</ele>
        <time>2024-08-09T11:28:33Z</time>
      </trkpt>
      <trkpt lat="45.08615" lon="6.14736">
        <ele>1988.8</ele>
        <time>2024-08-09T11:28:34Z</time>
      </trkpt>
      <trkpt lat="45.08615" lon="6.14736">
        <ele>1988.8</ele>
        <time>2024-08-09T11:28:35Z</time>
      </trkpt>
      <trkpt lat="45.08615" lon="6.14736">
        <ele>1989</ele>
        <time>2024-08-09T11:28:36Z</time>
      </trkpt>
      <trkpt lat="45.08615" lon="6.14736">
        <ele>1989</ele>
        <time>2024-08-09T11:28:37Z</time>
      </trkpt>
      <trkpt lat="45.08615" lon="6.14736">
        <ele>1989</ele>
        <time>2024-08-09T11:28:38Z</time>
      </trkpt>
      <trkpt lat="45.08615" lon="6.14736">
        <ele>1989.2</ele>
        <time>2024-08-09T11:28:39Z</time>
      </trkpt>
      <trkpt lat="45.08615" lon="6.14736">
        <ele>1989.2</ele>
        <time>2024-08-09T11:28:40Z</time>
      </trkpt>
      <trkpt lat="45.08615" lon="6.14736">
        <ele>1989.2</ele>
        <time>2024-08-09T11:28:41Z</time>
      </trkpt>
      <trkpt lat="45.08615" lon="6.14736">
        <ele>1989.2</ele>
        <time>2024-08-09T11:28:42Z</time>
      </trkpt>
      <trkpt lat="45.08615" lon="6.14736">
        <ele>1989.2</ele>
        <time>2024-08-09T11:28:43Z</time>
      </trkpt>
      <trkpt lat="45.08615" lon="6.14736">
        <ele>1989.2</ele>
        <time>2024-08-09T11:28:44Z</time>
      </trkpt>
      <trkpt lat="45.08615" lon="6.14736">
        <ele>1989.2</ele>
        <time>2024-08-09T11:28:45Z</time>
      </trkpt>
      <trkpt lat="45.08615" lon="6.14736">
        <ele>1989</ele>
        <time>2024-08-09T11:28:46Z</time>
      </trkpt>
      <trkpt lat="45.08615" lon="6.14736">
        <ele>1989</ele>
        <time>2024-08-09T11:28:47Z</time>
      </trkpt>
      <trkpt lat="45.08615" lon="6.14736">
        <ele>1988.8</ele>
        <time>2024-08-09T11:28:48Z</time>
      </trkpt>
      <trkpt lat="45.08615" lon="6.14736">
        <ele>1988.8</ele>
        <time>2024-08-09T11:28:49Z</time>
      </trkpt>
      <trkpt lat="45.08615" lon="6.14736">
        <ele>1989</ele>
        <time>2024-08-09T11:28:50Z</time>
      </trkpt>
      <trkpt lat="45.08615" lon="6.14736">
        <ele>1989</ele>
        <time>2024-08-09T11:28:51Z</time>
      </trkpt>
      <trkpt lat="45.08615" lon="6.14736">
        <ele>1989</ele>
        <time>2024-08-09T11:28:52Z</time>
      </trkpt>
      <trkpt lat="45.08615" lon="6.14736">
        <ele>1989</ele>
        <time>2024-08-09T11:28:53Z</time>
      </trkpt>
      <trkpt lat="45.08615" lon="6.14736">
        <ele>1989.2</ele>
        <time>2024-08-09T11:28:54Z</time>
      </trkpt>
      <trkpt lat="45.08615" lon="6.14736">
        <ele>1989.2</ele>
        <time>2024-08-09T11:28:55Z</time>
      </trkpt>
      <trkpt lat="45.08615" lon="6.14736">
        <ele>1989.2</ele>
        <time>2024-08-09T11:28:56Z</time>
      </trkpt>
      <trkpt lat="45.08615" lon="6.14736">
        <ele>1989</ele>
        <time>2024-08-09T11:28:57Z</time>
      </trkpt>
      <trkpt lat="45.08615" lon="6.14736">
        <ele>1988.8</ele>
        <time>2024-08-09T11:28:58Z</time>
      </trkpt>
      <trkpt lat="45.08615" lon="6.14736">
        <ele>1988.8</ele>
        <time>2024-08-09T11:28:59Z</time>
      </trkpt>
      <trkpt lat="45.08615" lon="6.14736">
        <ele>1988.8</ele>
        <time>2024-08-09T11:29:00Z</time>
      </trkpt>
      <trkpt lat="45.08615" lon="6.14736">
        <ele>1989</ele>
        <time>2024-08-09T11:29:01Z</time>
      </trkpt>
      <trkpt lat="45.08615" lon="6.14736">
        <ele>1989</ele>
        <time>2024-08-09T11:29:02Z</time>
      </trkpt>
      <trkpt lat="45.08615" lon="6.14736">
        <ele>1989.2</ele>
        <time>2024-08-09T11:29:03Z</time>
      </trkpt>
      <trkpt lat="45.08615" lon="6.14736">
        <ele>1989.2</ele>
        <time>2024-08-09T11:29:04Z</time>
      </trkpt>
      <trkpt lat="45.08615" lon="6.14736">
        <ele>1989.2</ele>
        <time>2024-08-09T11:29:05Z</time>
      </trkpt>
      <trkpt lat="45.08615" lon="6.14736">
        <ele>1989.2</ele>
        <time>2024-08-09T11:29:06Z</time>
      </trkpt>
      <trkpt lat="45.08615" lon="6.14736">
        <ele>1989.4</ele>
        <time>2024-08-09T11:29:07Z</time>
      </trkpt>
      <trkpt lat="45.08615" lon="6.14736">
        <ele>1989.4</ele>
        <time>2024-08-09T11:29:08Z</time>
      </trkpt>
      <trkpt lat="45.08615" lon="6.14736">
        <ele>1989.2</ele>
        <time>2024-08-09T11:29:09Z</time>
      </trkpt>
      <trkpt lat="45.08615" lon="6.14736">
        <ele>1989.2</ele>
        <time>2024-08-09T11:29:10Z</time>
      </trkpt>
      <trkpt lat="45.08615" lon="6.14736">
        <ele>1989</ele>
        <time>2024-08-09T11:29:11Z</time>
      </trkpt>
      <trkpt lat="45.08615" lon="6.14736">
        <ele>1989</ele>
        <time>2024-08-09T11:29:12Z</time>
      </trkpt>
      <trkpt lat="45.08615" lon="6.14736">
        <ele>1989</ele>
        <time>2024-08-09T11:29:13Z</time>
      </trkpt>
      <trkpt lat="45.08615" lon="6.14736">
        <ele>1989</ele>
        <time>2024-08-09T11:29:14Z</time>
      </trkpt>
      <trkpt lat="45.08615" lon="6.14736">
        <ele>1989</ele>
        <time>2024-08-09T11:29:15Z</time>
      </trkpt>
      <trkpt lat="45.08615" lon="6.14736">
        <ele>1989</ele>
        <time>2024-08-09T11:29:16Z</time>
      </trkpt>
      <trkpt lat="45.08615" lon="6.14736">
        <ele>1989.2</ele>
        <time>2024-08-09T11:29:17Z</time>
      </trkpt>
      <trkpt lat="45.08615" lon="6.14736">
        <ele>1989.2</ele>
        <time>2024-08-09T11:29:18Z</time>
      </trkpt>
      <trkpt lat="45.08615" lon="6.14736">
        <ele>1989.2</ele>
        <time>2024-08-09T11:29:19Z</time>
      </trkpt>
      <trkpt lat="45.08615" lon="6.14736">
        <ele>1989</ele>
        <time>2024-08-09T11:29:20Z</time>
      </trkpt>
      <trkpt lat="45.08615" lon="6.14736">
        <ele>1989</ele>
        <time>2024-08-09T11:29:21Z</time>
      </trkpt>
      <trkpt lat="45.08615" lon="6.14736">
        <ele>1989.2</ele>
        <time>2024-08-09T11:29:22Z</time>
      </trkpt>
      <trkpt lat="45.08615" lon="6.14736">
        <ele>1989.2</ele>
        <time>2024-08-09T11:29:23Z</time>
      </trkpt>
      <trkpt lat="45.08615" lon="6.14736">
        <ele>1989</ele>
        <time>2024-08-09T11:29:24Z</time>
      </trkpt>
      <trkpt lat="45.08615" lon="6.14736">
        <ele>1989</ele>
        <time>2024-08-09T11:29:25Z</time>
      </trkpt>
      <trkpt lat="45.08615" lon="6.14736">
        <ele>1989</ele>
        <time>2024-08-09T11:29:26Z</time>
      </trkpt>
      <trkpt lat="45.08616" lon="6.14734">
        <ele>1988.8</ele>
        <time>2024-08-09T11:29:27Z</time>
      </trkpt>
      <trkpt lat="45.08616" lon="6.14734">
        <ele>1988.8</ele>
        <time>2024-08-09T11:29:28Z</time>
      </trkpt>
      <trkpt lat="45.08616" lon="6.14734">
        <ele>1989.2</ele>
        <time>2024-08-09T11:29:29Z</time>
      </trkpt>
      <trkpt lat="45.08616" lon="6.14734">
        <ele>1989.6</ele>
        <time>2024-08-09T11:29:30Z</time>
      </trkpt>
      <trkpt lat="45.08616" lon="6.14734">
        <ele>1989.6</ele>
        <time>2024-08-09T11:29:31Z</time>
      </trkpt>
      <trkpt lat="45.08616" lon="6.14734">
        <ele>1989.2</ele>
        <time>2024-08-09T11:29:32Z</time>
      </trkpt>
      <trkpt lat="45.08616" lon="6.14734">
        <ele>1989.2</ele>
        <time>2024-08-09T11:29:33Z</time>
      </trkpt>
      <trkpt lat="45.08616" lon="6.14734">
        <ele>1989.2</ele>
        <time>2024-08-09T11:29:34Z</time>
      </trkpt>
      <trkpt lat="45.08616" lon="6.14734">
        <ele>1989.2</ele>
        <time>2024-08-09T11:29:35Z</time>
      </trkpt>
      <trkpt lat="45.08616" lon="6.14734">
        <ele>1989.2</ele>
        <time>2024-08-09T11:29:36Z</time>
      </trkpt>
      <trkpt lat="45.08616" lon="6.14734">
        <ele>1989.2</ele>
        <time>2024-08-09T11:29:37Z</time>
      </trkpt>
      <trkpt lat="45.08616" lon="6.14734">
        <ele>1989.2</ele>
        <time>2024-08-09T11:29:38Z</time>
      </trkpt>
      <trkpt lat="45.08616" lon="6.14734">
        <ele>1989.2</ele>
        <time>2024-08-09T11:29:39Z</time>
      </trkpt>
      <trkpt lat="45.08616" lon="6.14734">
        <ele>1989.2</ele>
        <time>2024-08-09T11:29:40Z</time>
      </trkpt>
      <trkpt lat="45.08616" lon="6.14734">
        <ele>1989.2</ele>
        <time>2024-08-09T11:29:41Z</time>
      </trkpt>
      <trkpt lat="45.08616" lon="6.14734">
        <ele>1989.2</ele>
        <time>2024-08-09T11:29:42Z</time>
      </trkpt>
      <trkpt lat="45.08616" lon="6.14734">
        <ele>1989.2</ele>
        <time>2024-08-09T11:29:43Z</time>
      </trkpt>
      <trkpt lat="45.08616" lon="6.14734">
        <ele>1989.2</ele>
        <time>2024-08-09T11:29:44Z</time>
      </trkpt>
      <trkpt lat="45.08616" lon="6.14734">
        <ele>1989.2</ele>
        <time>2024-08-09T11:29:45Z</time>
      </trkpt>
      <trkpt lat="45.08616" lon="6.14734">
        <ele>1989.2</ele>
        <time>2024-08-09T11:29:46Z</time>
      </trkpt>
      <trkpt lat="45.08616" lon="6.14734">
        <ele>1989.2</ele>
        <time>2024-08-09T11:29:47Z</time>
      </trkpt>
      <trkpt lat="45.08616" lon="6.14734">
        <ele>1989.2</ele>
        <time>2024-08-09T11:29:48Z</time>
      </trkpt>
      <trkpt lat="45.08616" lon="6.14734">
        <ele>1989.6</ele>
        <time>2024-08-09T11:29:49Z</time>
      </trkpt>
      <trkpt lat="45.08616" lon="6.14734">
        <ele>1989.6</ele>
        <time>2024-08-09T11:29:50Z</time>
      </trkpt>
      <trkpt lat="45.08616" lon="6.14734">
        <ele>1989.6</ele>
        <time>2024-08-09T11:29:51Z</time>
      </trkpt>
      <trkpt lat="45.08616" lon="6.14734">
        <ele>1989.6</ele>
        <time>2024-08-09T11:29:52Z</time>
      </trkpt>
      <trkpt lat="45.08616" lon="6.14734">
        <ele>1989.8</ele>
        <time>2024-08-09T11:29:53Z</time>
      </trkpt>
      <trkpt lat="45.08616" lon="6.14734">
        <ele>1989.8</ele>
        <time>2024-08-09T11:29:54Z</time>
      </trkpt>
      <trkpt lat="45.08616" lon="6.14734">
        <ele>1989.6</ele>
        <time>2024-08-09T11:29:55Z</time>
      </trkpt>
      <trkpt lat="45.08616" lon="6.14734">
        <ele>1989.6</ele>
        <time>2024-08-09T11:29:56Z</time>
      </trkpt>
      <trkpt lat="45.08616" lon="6.14734">
        <ele>1989.6</ele>
        <time>2024-08-09T11:29:57Z</time>
      </trkpt>
      <trkpt lat="45.08616" lon="6.14734">
        <ele>1989.2</ele>
        <time>2024-08-09T11:29:58Z</time>
      </trkpt>
      <trkpt lat="45.08616" lon="6.14734">
        <ele>1989.2</ele>
        <time>2024-08-09T11:29:59Z</time>
      </trkpt>
      <trkpt lat="45.08616" lon="6.14734">
        <ele>1989.2</ele>
        <time>2024-08-09T11:30:00Z</time>
      </trkpt>
      <trkpt lat="45.08616" lon="6.14734">
        <ele>1989.2</ele>
        <time>2024-08-09T11:30:01Z</time>
      </trkpt>
      <trkpt lat="45.08616" lon="6.14734">
        <ele>1989.2</ele>
        <time>2024-08-09T11:30:02Z</time>
      </trkpt>
      <trkpt lat="45.08616" lon="6.14734">
        <ele>1989.2</ele>
        <time>2024-08-09T11:30:03Z</time>
      </trkpt>
      <trkpt lat="45.08616" lon="6.14734">
        <ele>1989.2</ele>
        <time>2024-08-09T11:30:04Z</time>
      </trkpt>
      <trkpt lat="45.08616" lon="6.14734">
        <ele>1989.2</ele>
        <time>2024-08-09T11:30:05Z</time>
      </trkpt>
      <trkpt lat="45.08616" lon="6.14734">
        <ele>1989.2</ele>
        <time>2024-08-09T11:30:06Z</time>
      </trkpt>
      <trkpt lat="45.08616" lon="6.14734">
        <ele>1989.2</ele>
        <time>2024-08-09T11:30:07Z</time>
      </trkpt>
      <trkpt lat="45.08616" lon="6.14734">
        <ele>1989.2</ele>
        <time>2024-08-09T11:30:08Z</time>
      </trkpt>
      <trkpt lat="45.08616" lon="6.14734">
        <ele>1988.8</ele>
        <time>2024-08-09T11:30:09Z</time>
      </trkpt>
      <trkpt lat="45.08616" lon="6.14734">
        <ele>1988.8</ele>
        <time>2024-08-09T11:30:10Z</time>
      </trkpt>
      <trkpt lat="45.08616" lon="6.14734">
        <ele>1988.6</ele>
        <time>2024-08-09T11:30:11Z</time>
      </trkpt>
      <trkpt lat="45.08617" lon="6.1473">
        <ele>1988.6</ele>
        <time>2024-08-09T11:30:12Z</time>
      </trkpt>
      <trkpt lat="45.08617" lon="6.1473">
        <ele>1988.6</ele>
        <time>2024-08-09T11:30:13Z</time>
      </trkpt>
      <trkpt lat="45.08617" lon="6.1473">
        <ele>1988.6</ele>
        <time>2024-08-09T11:30:14Z</time>
      </trkpt>
      <trkpt lat="45.08617" lon="6.1473">
        <ele>1988.6</ele>
        <time>2024-08-09T11:30:15Z</time>
      </trkpt>
      <trkpt lat="45.08617" lon="6.1473">
        <ele>1988.6</ele>
        <time>2024-08-09T11:30:16Z</time>
      </trkpt>
      <trkpt lat="45.08617" lon="6.1473">
        <ele>1988.6</ele>
        <time>2024-08-09T11:30:17Z</time>
      </trkpt>
      <trkpt lat="45.08617" lon="6.1473">
        <ele>1988.8</ele>
        <time>2024-08-09T11:30:18Z</time>
      </trkpt>
      <trkpt lat="45.08617" lon="6.14734">
        <ele>1988.8</ele>
        <time>2024-08-09T11:30:19Z</time>
      </trkpt>
      <trkpt lat="45.08617" lon="6.14736">
        <ele>1988.6</ele>
        <time>2024-08-09T11:30:20Z</time>
      </trkpt>
      <trkpt lat="45.08617" lon="6.14736">
        <ele>1988.6</ele>
        <time>2024-08-09T11:30:21Z</time>
      </trkpt>
      <trkpt lat="45.08617" lon="6.14736">
        <ele>1988.6</ele>
        <time>2024-08-09T11:30:22Z</time>
      </trkpt>
      <trkpt lat="45.08617" lon="6.14736">
        <ele>1988.6</ele>
        <time>2024-08-09T11:30:23Z</time>
      </trkpt>
      <trkpt lat="45.08618" lon="6.1474">
        <ele>1988.6</ele>
        <time>2024-08-09T11:30:24Z</time>
      </trkpt>
      <trkpt lat="45.08618" lon="6.1474">
        <ele>1988.6</ele>
        <time>2024-08-09T11:30:25Z</time>
      </trkpt>
      <trkpt lat="45.08619" lon="6.14744">
        <ele>1988.6</ele>
        <time>2024-08-09T11:30:26Z</time>
      </trkpt>
      <trkpt lat="45.08619" lon="6.14744">
        <ele>1988.8</ele>
        <time>2024-08-09T11:30:27Z</time>
      </trkpt>
      <trkpt lat="45.08619" lon="6.14744">
        <ele>1988.8</ele>
        <time>2024-08-09T11:30:28Z</time>
      </trkpt>
      <trkpt lat="45.08619" lon="6.14744">
        <ele>1989.2</ele>
        <time>2024-08-09T11:30:29Z</time>
      </trkpt>
      <trkpt lat="45.08619" lon="6.14744">
        <ele>1989.2</ele>
        <time>2024-08-09T11:30:30Z</time>
      </trkpt>
      <trkpt lat="45.08619" lon="6.14744">
        <ele>1989.2</ele>
        <time>2024-08-09T11:30:31Z</time>
      </trkpt>
      <trkpt lat="45.08619" lon="6.14744">
        <ele>1989.2</ele>
        <time>2024-08-09T11:30:32Z</time>
      </trkpt>
      <trkpt lat="45.08619" lon="6.14744">
        <ele>1989.2</ele>
        <time>2024-08-09T11:30:33Z</time>
      </trkpt>
      <trkpt lat="45.08619" lon="6.14744">
        <ele>1989.2</ele>
        <time>2024-08-09T11:30:34Z</time>
      </trkpt>
      <trkpt lat="45.08619" lon="6.14744">
        <ele>1989.2</ele>
        <time>2024-08-09T11:30:35Z</time>
      </trkpt>
      <trkpt lat="45.08619" lon="6.14744">
        <ele>1989.2</ele>
        <time>2024-08-09T11:30:36Z</time>
      </trkpt>
      <trkpt lat="45.08619" lon="6.14744">
        <ele>1988.6</ele>
        <time>2024-08-09T11:30:37Z</time>
      </trkpt>
      <trkpt lat="45.08619" lon="6.14744">
        <ele>1988.6</ele>
        <time>2024-08-09T11:30:38Z</time>
      </trkpt>
      <trkpt lat="45.08619" lon="6.14744">
        <ele>1988.6</ele>
        <time>2024-08-09T11:30:39Z</time>
      </trkpt>
      <trkpt lat="45.08619" lon="6.14744">
        <ele>1988.8</ele>
        <time>2024-08-09T11:30:40Z</time>
      </trkpt>
      <trkpt lat="45.08619" lon="6.14744">
        <ele>1988.8</ele>
        <time>2024-08-09T11:30:41Z</time>
      </trkpt>
      <trkpt lat="45.08619" lon="6.14744">
        <ele>1988.4</ele>
        <time>2024-08-09T11:30:42Z</time>
      </trkpt>
      <trkpt lat="45.08619" lon="6.14744">
        <ele>1988.2</ele>
        <time>2024-08-09T11:30:43Z</time>
      </trkpt>
      <trkpt lat="45.08619" lon="6.14744">
        <ele>1988.2</ele>
        <time>2024-08-09T11:30:44Z</time>
      </trkpt>
      <trkpt lat="45.08619" lon="6.14744">
        <ele>1988.2</ele>
        <time>2024-08-09T11:30:45Z</time>
      </trkpt>
      <trkpt lat="45.08619" lon="6.14744">
        <ele>1988.2</ele>
        <time>2024-08-09T11:30:46Z</time>
      </trkpt>
      <trkpt lat="45.08619" lon="6.14744">
        <ele>1988.4</ele>
        <time>2024-08-09T11:30:47Z</time>
      </trkpt>
      <trkpt lat="45.08619" lon="6.14744">
        <ele>1988.8</ele>
        <time>2024-08-09T11:30:48Z</time>
      </trkpt>
      <trkpt lat="45.08619" lon="6.14744">
        <ele>1988.8</ele>
        <time>2024-08-09T11:30:49Z</time>
      </trkpt>
      <trkpt lat="45.08619" lon="6.14744">
        <ele>1988.8</ele>
        <time>2024-08-09T11:30:50Z</time>
      </trkpt>
      <trkpt lat="45.08619" lon="6.14744">
        <ele>1989</ele>
        <time>2024-08-09T11:30:51Z</time>
      </trkpt>
      <trkpt lat="45.08619" lon="6.14744">
        <ele>1989</ele>
        <time>2024-08-09T11:30:52Z</time>
      </trkpt>
      <trkpt lat="45.08619" lon="6.14744">
        <ele>1989</ele>
        <time>2024-08-09T11:30:53Z</time>
      </trkpt>
      <trkpt lat="45.08619" lon="6.14744">
        <ele>1989</ele>
        <time>2024-08-09T11:30:54Z</time>
      </trkpt>
      <trkpt lat="45.08619" lon="6.14744">
        <ele>1989</ele>
        <time>2024-08-09T11:30:55Z</time>
      </trkpt>
      <trkpt lat="45.08619" lon="6.14744">
        <ele>1989</ele>
        <time>2024-08-09T11:30:56Z</time>
      </trkpt>
      <trkpt lat="45.08619" lon="6.14744">
        <ele>1989</ele>
        <time>2024-08-09T11:30:57Z</time>
      </trkpt>
      <trkpt lat="45.08619" lon="6.14744">
        <ele>1989</ele>
        <time>2024-08-09T11:30:58Z</time>
      </trkpt>
      <trkpt lat="45.08619" lon="6.14744">
        <ele>1989</ele>
        <time>2024-08-09T11:30:59Z</time>
      </trkpt>
      <trkpt lat="45.08619" lon="6.14744">
        <ele>1989</ele>
        <time>2024-08-09T11:31:00Z</time>
      </trkpt>
      <trkpt lat="45.08619" lon="6.14744">
        <ele>1989</ele>
        <time>2024-08-09T11:31:01Z</time>
      </trkpt>
      <trkpt lat="45.08619" lon="6.14744">
        <ele>1989</ele>
        <time>2024-08-09T11:31:02Z</time>
      </trkpt>
      <trkpt lat="45.08619" lon="6.14744">
        <ele>1989</ele>
        <time>2024-08-09T11:31:03Z</time>
      </trkpt>
      <trkpt lat="45.08619" lon="6.14744">
        <ele>1989.2</ele>
        <time>2024-08-09T11:31:04Z</time>
      </trkpt>
      <trkpt lat="45.08619" lon="6.14744">
        <ele>1989.2</ele>
        <time>2024-08-09T11:31:05Z</time>
      </trkpt>
      <trkpt lat="45.08619" lon="6.14744">
        <ele>1989.4</ele>
        <time>2024-08-09T11:31:06Z</time>
      </trkpt>
      <trkpt lat="45.08619" lon="6.14744">
        <ele>1989.4</ele>
        <time>2024-08-09T11:31:07Z</time>
      </trkpt>
      <trkpt lat="45.08619" lon="6.14744">
        <ele>1989.2</ele>
        <time>2024-08-09T11:31:08Z</time>
      </trkpt>
      <trkpt lat="45.08619" lon="6.14744">
        <ele>1989.4</ele>
        <time>2024-08-09T11:31:09Z</time>
      </trkpt>
      <trkpt lat="45.08619" lon="6.14744">
        <ele>1989.4</ele>
        <time>2024-08-09T11:31:10Z</time>
      </trkpt>
      <trkpt lat="45.08619" lon="6.14744">
        <ele>1989.8</ele>
        <time>2024-08-09T11:31:11Z</time>
      </trkpt>
      <trkpt lat="45.08619" lon="6.14744">
        <ele>1990</ele>
        <time>2024-08-09T11:31:12Z</time>
      </trkpt>
      <trkpt lat="45.08619" lon="6.14744">
        <ele>1990.2</ele>
        <time>2024-08-09T11:31:13Z</time>
      </trkpt>
      <trkpt lat="45.08619" lon="6.14744">
        <ele>1990.2</ele>
        <time>2024-08-09T11:31:14Z</time>
      </trkpt>
      <trkpt lat="45.08619" lon="6.14744">
        <ele>1990</ele>
        <time>2024-08-09T11:31:15Z</time>
      </trkpt>
      <trkpt lat="45.08619" lon="6.14744">
        <ele>1989.8</ele>
        <time>2024-08-09T11:31:16Z</time>
      </trkpt>
      <trkpt lat="45.08619" lon="6.14744">
        <ele>1990</ele>
        <time>2024-08-09T11:31:17Z</time>
      </trkpt>
      <trkpt lat="45.08619" lon="6.14744">
        <ele>1990</ele>
        <time>2024-08-09T11:31:18Z</time>
      </trkpt>
      <trkpt lat="45.08619" lon="6.14744">
        <ele>1990</ele>
        <time>2024-08-09T11:31:19Z</time>
      </trkpt>
      <trkpt lat="45.08619" lon="6.14744">
        <ele>1990</ele>
        <time>2024-08-09T11:31:20Z</time>
      </trkpt>
      <trkpt lat="45.08619" lon="6.14744">
        <ele>1989.8</ele>
        <time>2024-08-09T11:31:21Z</time>
      </trkpt>
      <trkpt lat="45.08619" lon="6.14744">
        <ele>1989.8</ele>
        <time>2024-08-09T11:31:22Z</time>
      </trkpt>
      <trkpt lat="45.08619" lon="6.14744">
        <ele>1989.8</ele>
        <time>2024-08-09T11:31:23Z</time>
      </trkpt>
      <trkpt lat="45.08619" lon="6.14744">
        <ele>1989.8</ele>
        <time>2024-08-09T11:31:24Z</time>
      </trkpt>
      <trkpt lat="45.08619" lon="6.14744">
        <ele>1989.6</ele>
        <time>2024-08-09T11:31:25Z</time>
      </trkpt>
      <trkpt lat="45.08619" lon="6.14744">
        <ele>1989.8</ele>
        <time>2024-08-09T11:31:26Z</time>
      </trkpt>
      <trkpt lat="45.08619" lon="6.14744">
        <ele>1989.8</ele>
        <time>2024-08-09T11:31:27Z</time>
      </trkpt>
      <trkpt lat="45.08619" lon="6.14744">
        <ele>1990</ele>
        <time>2024-08-09T11:31:28Z</time>
      </trkpt>
      <trkpt lat="45.08619" lon="6.14744">
        <ele>1990</ele>
        <time>2024-08-09T11:31:29Z</time>
      </trkpt>
      <trkpt lat="45.08619" lon="6.14744">
        <ele>1990</ele>
        <time>2024-08-09T11:31:30Z</time>
      </trkpt>
      <trkpt lat="45.08619" lon="6.14744">
        <ele>1990</ele>
        <time>2024-08-09T11:31:31Z</time>
      </trkpt>
      <trkpt lat="45.08619" lon="6.14744">
        <ele>1990</ele>
        <time>2024-08-09T11:31:32Z</time>
      </trkpt>
      <trkpt lat="45.08619" lon="6.14744">
        <ele>1990</ele>
        <time>2024-08-09T11:31:33Z</time>
      </trkpt>
      <trkpt lat="45.08619" lon="6.14744">
        <ele>1990</ele>
        <time>2024-08-09T11:31:34Z</time>
      </trkpt>
      <trkpt lat="45.08619" lon="6.14744">
        <ele>1989.8</ele>
        <time>2024-08-09T11:31:35Z</time>
      </trkpt>
      <trkpt lat="45.08619" lon="6.14744">
        <ele>1990</ele>
        <time>2024-08-09T11:31:36Z</time>
      </trkpt>
      <trkpt lat="45.08619" lon="6.14744">
        <ele>1990</ele>
        <time>2024-08-09T11:31:37Z</time>
      </trkpt>
      <trkpt lat="45.08619" lon="6.14744">
        <ele>1990</ele>
        <time>2024-08-09T11:31:38Z</time>
      </trkpt>
      <trkpt lat="45.08619" lon="6.14744">
        <ele>1990</ele>
        <time>2024-08-09T11:31:39Z</time>
      </trkpt>
      <trkpt lat="45.08619" lon="6.14744">
        <ele>1990</ele>
        <time>2024-08-09T11:31:40Z</time>
      </trkpt>
      <trkpt lat="45.08619" lon="6.14744">
        <ele>1990</ele>
        <time>2024-08-09T11:31:41Z</time>
      </trkpt>
      <trkpt lat="45.08619" lon="6.14744">
        <ele>1990.2</ele>
        <time>2024-08-09T11:31:42Z</time>
      </trkpt>
      <trkpt lat="45.08619" lon="6.14744">
        <ele>1990.2</ele>
        <time>2024-08-09T11:31:43Z</time>
      </trkpt>
      <trkpt lat="45.08619" lon="6.14744">
        <ele>1990.4</ele>
        <time>2024-08-09T11:31:44Z</time>
      </trkpt>
      <trkpt lat="45.08619" lon="6.14744">
        <ele>1990.6</ele>
        <time>2024-08-09T11:31:45Z</time>
      </trkpt>
      <trkpt lat="45.08619" lon="6.14744">
        <ele>1991</ele>
        <time>2024-08-09T11:31:46Z</time>
      </trkpt>
      <trkpt lat="45.08619" lon="6.14744">
        <ele>1991</ele>
        <time>2024-08-09T11:31:47Z</time>
      </trkpt>
      <trkpt lat="45.08619" lon="6.14744">
        <ele>1990.6</ele>
        <time>2024-08-09T11:31:48Z</time>
      </trkpt>
      <trkpt lat="45.08619" lon="6.14744">
        <ele>1990.4</ele>
        <time>2024-08-09T11:31:49Z</time>
      </trkpt>
      <trkpt lat="45.08619" lon="6.14744">
        <ele>1990.4</ele>
        <time>2024-08-09T11:31:50Z</time>
      </trkpt>
      <trkpt lat="45.08619" lon="6.14744">
        <ele>1990.2</ele>
        <time>2024-08-09T11:31:51Z</time>
      </trkpt>
      <trkpt lat="45.08619" lon="6.14744">
        <ele>1990.2</ele>
        <time>2024-08-09T11:31:52Z</time>
      </trkpt>
      <trkpt lat="45.08619" lon="6.14744">
        <ele>1990.2</ele>
        <time>2024-08-09T11:31:53Z</time>
      </trkpt>
      <trkpt lat="45.08619" lon="6.14744">
        <ele>1990.2</ele>
        <time>2024-08-09T11:31:54Z</time>
      </trkpt>
      <trkpt lat="45.08619" lon="6.14744">
        <ele>1990.4</ele>
        <time>2024-08-09T11:31:55Z</time>
      </trkpt>
      <trkpt lat="45.08619" lon="6.14744">
        <ele>1990.4</ele>
        <time>2024-08-09T11:31:56Z</time>
      </trkpt>
      <trkpt lat="45.08619" lon="6.14744">
        <ele>1990.4</ele>
        <time>2024-08-09T11:31:57Z</time>
      </trkpt>
      <trkpt lat="45.08619" lon="6.14744">
        <ele>1990.2</ele>
        <time>2024-08-09T11:31:58Z</time>
      </trkpt>
      <trkpt lat="45.08619" lon="6.14744">
        <ele>1990.2</ele>
        <time>2024-08-09T11:31:59Z</time>
      </trkpt>
      <trkpt lat="45.08619" lon="6.14744">
        <ele>1990.2</ele>
        <time>2024-08-09T11:32:00Z</time>
      </trkpt>
      <trkpt lat="45.08619" lon="6.14744">
        <ele>1990.2</ele>
        <time>2024-08-09T11:32:01Z</time>
      </trkpt>
      <trkpt lat="45.08619" lon="6.14744">
        <ele>1990.4</ele>
        <time>2024-08-09T11:32:02Z</time>
      </trkpt>
      <trkpt lat="45.08619" lon="6.14744">
        <ele>1990.4</ele>
        <time>2024-08-09T11:32:03Z</time>
      </trkpt>
      <trkpt lat="45.08619" lon="6.14744">
        <ele>1990.4</ele>
        <time>2024-08-09T11:32:04Z</time>
      </trkpt>
      <trkpt lat="45.08619" lon="6.14744">
        <ele>1990.4</ele>
        <time>2024-08-09T11:32:05Z</time>
      </trkpt>
      <trkpt lat="45.08619" lon="6.14744">
        <ele>1990.4</ele>
        <time>2024-08-09T11:32:06Z</time>
      </trkpt>
      <trkpt lat="45.08619" lon="6.14744">
        <ele>1990.4</ele>
        <time>2024-08-09T11:32:07Z</time>
      </trkpt>
      <trkpt lat="45.08619" lon="6.14744">
        <ele>1990.8</ele>
        <time>2024-08-09T11:32:08Z</time>
      </trkpt>
      <trkpt lat="45.08619" lon="6.14744">
        <ele>1990.8</ele>
        <time>2024-08-09T11:32:09Z</time>
      </trkpt>
      <trkpt lat="45.08619" lon="6.14744">
        <ele>1990.8</ele>
        <time>2024-08-09T11:32:10Z</time>
      </trkpt>
      <trkpt lat="45.08619" lon="6.14744">
        <ele>1990.6</ele>
        <time>2024-08-09T11:32:11Z</time>
      </trkpt>
      <trkpt lat="45.08619" lon="6.14744">
        <ele>1990.6</ele>
        <time>2024-08-09T11:32:12Z</time>
      </trkpt>
      <trkpt lat="45.08619" lon="6.14744">
        <ele>1990.6</ele>
        <time>2024-08-09T11:32:13Z</time>
      </trkpt>
      <trkpt lat="45.08619" lon="6.14744">
        <ele>1990.6</ele>
        <time>2024-08-09T11:32:14Z</time>
      </trkpt>
      <trkpt lat="45.08619" lon="6.14744">
        <ele>1990.6</ele>
        <time>2024-08-09T11:32:15Z</time>
      </trkpt>
      <trkpt lat="45.08619" lon="6.14744">
        <ele>1990.6</ele>
        <time>2024-08-09T11:32:16Z</time>
      </trkpt>
      <trkpt lat="45.08619" lon="6.14744">
        <ele>1990.8</ele>
        <time>2024-08-09T11:32:17Z</time>
      </trkpt>
      <trkpt lat="45.08619" lon="6.14744">
        <ele>1991</ele>
        <time>2024-08-09T11:32:18Z</time>
      </trkpt>
      <trkpt lat="45.08619" lon="6.14744">
        <ele>1991</ele>
        <time>2024-08-09T11:32:19Z</time>
      </trkpt>
      <trkpt lat="45.08619" lon="6.14744">
        <ele>1991.2</ele>
        <time>2024-08-09T11:32:20Z</time>
      </trkpt>
      <trkpt lat="45.08619" lon="6.14744">
        <ele>1991.2</ele>
        <time>2024-08-09T11:32:21Z</time>
      </trkpt>
      <trkpt lat="45.08619" lon="6.14744">
        <ele>1991.2</ele>
        <time>2024-08-09T11:32:22Z</time>
      </trkpt>
      <trkpt lat="45.08619" lon="6.14744">
        <ele>1991</ele>
        <time>2024-08-09T11:32:23Z</time>
      </trkpt>
      <trkpt lat="45.08619" lon="6.14744">
        <ele>1990.8</ele>
        <time>2024-08-09T11:32:24Z</time>
      </trkpt>
      <trkpt lat="45.08619" lon="6.14744">
        <ele>1991</ele>
        <time>2024-08-09T11:32:25Z</time>
      </trkpt>
      <trkpt lat="45.08619" lon="6.14744">
        <ele>1990.8</ele>
        <time>2024-08-09T11:32:26Z</time>
      </trkpt>
      <trkpt lat="45.08619" lon="6.14744">
        <ele>1990.8</ele>
        <time>2024-08-09T11:32:27Z</time>
      </trkpt>
      <trkpt lat="45.08619" lon="6.14744">
        <ele>1990.8</ele>
        <time>2024-08-09T11:32:28Z</time>
      </trkpt>
      <trkpt lat="45.08619" lon="6.14744">
        <ele>1990.8</ele>
        <time>2024-08-09T11:32:29Z</time>
      </trkpt>
      <trkpt lat="45.08619" lon="6.14744">
        <ele>1990.8</ele>
        <time>2024-08-09T11:32:30Z</time>
      </trkpt>
      <trkpt lat="45.08619" lon="6.14744">
        <ele>1990.6</ele>
        <time>2024-08-09T11:32:31Z</time>
      </trkpt>
      <trkpt lat="45.08619" lon="6.14744">
        <ele>1990.6</ele>
        <time>2024-08-09T11:32:32Z</time>
      </trkpt>
      <trkpt lat="45.08619" lon="6.14744">
        <ele>1990.6</ele>
        <time>2024-08-09T11:32:33Z</time>
      </trkpt>
      <trkpt lat="45.08619" lon="6.14744">
        <ele>1990.6</ele>
        <time>2024-08-09T11:32:34Z</time>
      </trkpt>
      <trkpt lat="45.08619" lon="6.14744">
        <ele>1990.6</ele>
        <time>2024-08-09T11:32:35Z</time>
      </trkpt>
      <trkpt lat="45.08619" lon="6.14744">
        <ele>1990.6</ele>
        <time>2024-08-09T11:32:36Z</time>
      </trkpt>
      <trkpt lat="45.08619" lon="6.14744">
        <ele>1990.6</ele>
        <time>2024-08-09T11:32:37Z</time>
      </trkpt>
      <trkpt lat="45.08619" lon="6.14744">
        <ele>1990.6</ele>
        <time>2024-08-09T11:32:38Z</time>
      </trkpt>
      <trkpt lat="45.08619" lon="6.14744">
        <ele>1990.6</ele>
        <time>2024-08-09T11:32:39Z</time>
      </trkpt>
      <trkpt lat="45.08619" lon="6.14744">
        <ele>1990.8</ele>
        <time>2024-08-09T11:32:40Z</time>
      </trkpt>
      <trkpt lat="45.08619" lon="6.14744">
        <ele>1990.8</ele>
        <time>2024-08-09T11:32:41Z</time>
      </trkpt>
      <trkpt lat="45.08619" lon="6.14744">
        <ele>1990.6</ele>
        <time>2024-08-09T11:32:42Z</time>
      </trkpt>
      <trkpt lat="45.08619" lon="6.14744">
        <ele>1990.6</ele>
        <time>2024-08-09T11:32:43Z</time>
      </trkpt>
      <trkpt lat="45.08619" lon="6.14744">
        <ele>1990.8</ele>
        <time>2024-08-09T11:32:44Z</time>
      </trkpt>
      <trkpt lat="45.08619" lon="6.14744">
        <ele>1991</ele>
        <time>2024-08-09T11:32:45Z</time>
      </trkpt>
      <trkpt lat="45.08619" lon="6.14744">
        <ele>1991</ele>
        <time>2024-08-09T11:32:46Z</time>
      </trkpt>
      <trkpt lat="45.08619" lon="6.14744">
        <ele>1990.8</ele>
        <time>2024-08-09T11:32:47Z</time>
      </trkpt>
      <trkpt lat="45.08619" lon="6.14744">
        <ele>1990.8</ele>
        <time>2024-08-09T11:32:48Z</time>
      </trkpt>
      <trkpt lat="45.08619" lon="6.14744">
        <ele>1990.8</ele>
        <time>2024-08-09T11:32:49Z</time>
      </trkpt>
      <trkpt lat="45.08619" lon="6.14744">
        <ele>1990.8</ele>
        <time>2024-08-09T11:32:50Z</time>
      </trkpt>
      <trkpt lat="45.08619" lon="6.14744">
        <ele>1991</ele>
        <time>2024-08-09T11:32:51Z</time>
      </trkpt>
      <trkpt lat="45.08619" lon="6.14744">
        <ele>1991.2</ele>
        <time>2024-08-09T11:32:52Z</time>
      </trkpt>
      <trkpt lat="45.08619" lon="6.14744">
        <ele>1991.2</ele>
        <time>2024-08-09T11:32:53Z</time>
      </trkpt>
      <trkpt lat="45.08619" lon="6.14744">
        <ele>1991.2</ele>
        <time>2024-08-09T11:32:54Z</time>
      </trkpt>
      <trkpt lat="45.08619" lon="6.14744">
        <ele>1991.2</ele>
        <time>2024-08-09T11:32:55Z</time>
      </trkpt>
      <trkpt lat="45.08619" lon="6.14744">
        <ele>1991.2</ele>
        <time>2024-08-09T11:32:56Z</time>
      </trkpt>
      <trkpt lat="45.08619" lon="6.14744">
        <ele>1991</ele>
        <time>2024-08-09T11:32:57Z</time>
      </trkpt>
      <trkpt lat="45.08619" lon="6.14744">
        <ele>1991</ele>
        <time>2024-08-09T11:32:58Z</time>
      </trkpt>
      <trkpt lat="45.08619" lon="6.14744">
        <ele>1991</ele>
        <time>2024-08-09T11:32:59Z</time>
      </trkpt>
      <trkpt lat="45.08619" lon="6.14744">
        <ele>1991.2</ele>
        <time>2024-08-09T11:33:00Z</time>
      </trkpt>
      <trkpt lat="45.08619" lon="6.14744">
        <ele>1991.2</ele>
        <time>2024-08-09T11:33:01Z</time>
      </trkpt>
      <trkpt lat="45.08619" lon="6.14744">
        <ele>1991</ele>
        <time>2024-08-09T11:33:02Z</time>
      </trkpt>
      <trkpt lat="45.08619" lon="6.14744">
        <ele>1991</ele>
        <time>2024-08-09T11:33:03Z</time>
      </trkpt>
      <trkpt lat="45.08619" lon="6.14744">
        <ele>1991.2</ele>
        <time>2024-08-09T11:33:04Z</time>
      </trkpt>
      <trkpt lat="45.08619" lon="6.14744">
        <ele>1991.4</ele>
        <time>2024-08-09T11:33:05Z</time>
      </trkpt>
      <trkpt lat="45.08619" lon="6.14744">
        <ele>1991.4</ele>
        <time>2024-08-09T11:33:06Z</time>
      </trkpt>
      <trkpt lat="45.08619" lon="6.14744">
        <ele>1991.4</ele>
        <time>2024-08-09T11:33:07Z</time>
      </trkpt>
      <trkpt lat="45.08619" lon="6.14744">
        <ele>1991.4</ele>
        <time>2024-08-09T11:33:08Z</time>
      </trkpt>
      <trkpt lat="45.08619" lon="6.14744">
        <ele>1991.4</ele>
        <time>2024-08-09T11:33:09Z</time>
      </trkpt>
      <trkpt lat="45.08619" lon="6.14744">
        <ele>1991.4</ele>
        <time>2024-08-09T11:33:10Z</time>
      </trkpt>
      <trkpt lat="45.08619" lon="6.14744">
        <ele>1991.4</ele>
        <time>2024-08-09T11:33:11Z</time>
      </trkpt>
      <trkpt lat="45.08619" lon="6.14744">
        <ele>1991.4</ele>
        <time>2024-08-09T11:33:12Z</time>
      </trkpt>
      <trkpt lat="45.08619" lon="6.14744">
        <ele>1991.4</ele>
        <time>2024-08-09T11:33:13Z</time>
      </trkpt>
      <trkpt lat="45.08619" lon="6.14744">
        <ele>1991.4</ele>
        <time>2024-08-09T11:33:14Z</time>
      </trkpt>
      <trkpt lat="45.08619" lon="6.14744">
        <ele>1991.4</ele>
        <time>2024-08-09T11:33:15Z</time>
      </trkpt>
      <trkpt lat="45.08619" lon="6.14744">
        <ele>1991.6</ele>
        <time>2024-08-09T11:33:16Z</time>
      </trkpt>
      <trkpt lat="45.08619" lon="6.14744">
        <ele>1991.8</ele>
        <time>2024-08-09T11:33:17Z</time>
      </trkpt>
      <trkpt lat="45.08619" lon="6.14744">
        <ele>1991.8</ele>
        <time>2024-08-09T11:33:18Z</time>
      </trkpt>
      <trkpt lat="45.08619" lon="6.14744">
        <ele>1991.6</ele>
        <time>2024-08-09T11:33:19Z</time>
      </trkpt>
      <trkpt lat="45.08619" lon="6.14744">
        <ele>1991.6</ele>
        <time>2024-08-09T11:33:20Z</time>
      </trkpt>
      <trkpt lat="45.08619" lon="6.14744">
        <ele>1991.6</ele>
        <time>2024-08-09T11:33:21Z</time>
      </trkpt>
      <trkpt lat="45.08619" lon="6.14744">
        <ele>1991.6</ele>
        <time>2024-08-09T11:33:22Z</time>
      </trkpt>
      <trkpt lat="45.08619" lon="6.14744">
        <ele>1991.6</ele>
        <time>2024-08-09T11:33:23Z</time>
      </trkpt>
      <trkpt lat="45.08619" lon="6.14744">
        <ele>1991.6</ele>
        <time>2024-08-09T11:33:24Z</time>
      </trkpt>
      <trkpt lat="45.08619" lon="6.14744">
        <ele>1991.6</ele>
        <time>2024-08-09T11:33:25Z</time>
      </trkpt>
      <trkpt lat="45.08619" lon="6.14744">
        <ele>1991.6</ele>
        <time>2024-08-09T11:33:26Z</time>
      </trkpt>
      <trkpt lat="45.08619" lon="6.14744">
        <ele>1991.8</ele>
        <time>2024-08-09T11:33:27Z</time>
      </trkpt>
      <trkpt lat="45.08619" lon="6.14744">
        <ele>1991.8</ele>
        <time>2024-08-09T11:33:28Z</time>
      </trkpt>
      <trkpt lat="45.08619" lon="6.14744">
        <ele>1991.8</ele>
        <time>2024-08-09T11:33:29Z</time>
      </trkpt>
      <trkpt lat="45.08619" lon="6.14744">
        <ele>1991.8</ele>
        <time>2024-08-09T11:33:30Z</time>
      </trkpt>
      <trkpt lat="45.08619" lon="6.14744">
        <ele>1991.8</ele>
        <time>2024-08-09T11:33:31Z</time>
      </trkpt>
      <trkpt lat="45.08619" lon="6.14744">
        <ele>1991.8</ele>
        <time>2024-08-09T11:33:32Z</time>
      </trkpt>
      <trkpt lat="45.08619" lon="6.14744">
        <ele>1991.6</ele>
        <time>2024-08-09T11:33:33Z</time>
      </trkpt>
      <trkpt lat="45.08619" lon="6.14744">
        <ele>1991.6</ele>
        <time>2024-08-09T11:33:34Z</time>
      </trkpt>
      <trkpt lat="45.08619" lon="6.14744">
        <ele>1991.8</ele>
        <time>2024-08-09T11:33:35Z</time>
      </trkpt>
      <trkpt lat="45.08619" lon="6.14744">
        <ele>1991.8</ele>
        <time>2024-08-09T11:33:36Z</time>
      </trkpt>
      <trkpt lat="45.08619" lon="6.14744">
        <ele>1992</ele>
        <time>2024-08-09T11:33:37Z</time>
      </trkpt>
      <trkpt lat="45.08619" lon="6.14744">
        <ele>1992</ele>
        <time>2024-08-09T11:33:38Z</time>
      </trkpt>
      <trkpt lat="45.08619" lon="6.14744">
        <ele>1992</ele>
        <time>2024-08-09T11:33:39Z</time>
      </trkpt>
      <trkpt lat="45.08619" lon="6.14744">
        <ele>1992.4</ele>
        <time>2024-08-09T11:33:40Z</time>
      </trkpt>
      <trkpt lat="45.08619" lon="6.14744">
        <ele>1992.4</ele>
        <time>2024-08-09T11:33:41Z</time>
      </trkpt>
      <trkpt lat="45.08619" lon="6.14744">
        <ele>1992.2</ele>
        <time>2024-08-09T11:33:42Z</time>
      </trkpt>
      <trkpt lat="45.08619" lon="6.14744">
        <ele>1992.2</ele>
        <time>2024-08-09T11:33:43Z</time>
      </trkpt>
      <trkpt lat="45.08619" lon="6.14744">
        <ele>1992.2</ele>
        <time>2024-08-09T11:33:44Z</time>
      </trkpt>
      <trkpt lat="45.08619" lon="6.14744">
        <ele>1992.4</ele>
        <time>2024-08-09T11:33:45Z</time>
      </trkpt>
      <trkpt lat="45.08619" lon="6.14744">
        <ele>1992.4</ele>
        <time>2024-08-09T11:33:46Z</time>
      </trkpt>
      <trkpt lat="45.08619" lon="6.14744">
        <ele>1992.2</ele>
        <time>2024-08-09T11:33:47Z</time>
      </trkpt>
      <trkpt lat="45.08619" lon="6.14744">
        <ele>1992.2</ele>
        <time>2024-08-09T11:33:48Z</time>
      </trkpt>
      <trkpt lat="45.08619" lon="6.14744">
        <ele>1992.2</ele>
        <time>2024-08-09T11:33:49Z</time>
      </trkpt>
      <trkpt lat="45.08619" lon="6.14744">
        <ele>1992.2</ele>
        <time>2024-08-09T11:33:50Z</time>
      </trkpt>
      <trkpt lat="45.08619" lon="6.14744">
        <ele>1992.2</ele>
        <time>2024-08-09T11:33:51Z</time>
      </trkpt>
      <trkpt lat="45.08619" lon="6.14744">
        <ele>1992.2</ele>
        <time>2024-08-09T11:33:52Z</time>
      </trkpt>
      <trkpt lat="45.08619" lon="6.14744">
        <ele>1992</ele>
        <time>2024-08-09T11:33:53Z</time>
      </trkpt>
      <trkpt lat="45.08619" lon="6.14744">
        <ele>1992</ele>
        <time>2024-08-09T11:33:54Z</time>
      </trkpt>
      <trkpt lat="45.08619" lon="6.14744">
        <ele>1992.4</ele>
        <time>2024-08-09T11:33:55Z</time>
      </trkpt>
      <trkpt lat="45.08619" lon="6.14744">
        <ele>1992.6</ele>
        <time>2024-08-09T11:33:56Z</time>
      </trkpt>
      <trkpt lat="45.08619" lon="6.14744">
        <ele>1992.6</ele>
        <time>2024-08-09T11:33:57Z</time>
      </trkpt>
      <trkpt lat="45.08619" lon="6.14744">
        <ele>1992.6</ele>
        <time>2024-08-09T11:33:58Z</time>
      </trkpt>
      <trkpt lat="45.08619" lon="6.14744">
        <ele>1992.6</ele>
        <time>2024-08-09T11:33:59Z</time>
      </trkpt>
      <trkpt lat="45.08619" lon="6.14744">
        <ele>1992.6</ele>
        <time>2024-08-09T11:34:00Z</time>
      </trkpt>
      <trkpt lat="45.08619" lon="6.14744">
        <ele>1992.6</ele>
        <time>2024-08-09T11:34:01Z</time>
      </trkpt>
      <trkpt lat="45.08619" lon="6.14744">
        <ele>1992.6</ele>
        <time>2024-08-09T11:34:02Z</time>
      </trkpt>
      <trkpt lat="45.08619" lon="6.14744">
        <ele>1992.6</ele>
        <time>2024-08-09T11:34:03Z</time>
      </trkpt>
      <trkpt lat="45.08619" lon="6.14744">
        <ele>1992.6</ele>
        <time>2024-08-09T11:34:04Z</time>
      </trkpt>
      <trkpt lat="45.08619" lon="6.14744">
        <ele>1992.6</ele>
        <time>2024-08-09T11:34:05Z</time>
      </trkpt>
      <trkpt lat="45.08619" lon="6.14744">
        <ele>1992.6</ele>
        <time>2024-08-09T11:34:06Z</time>
      </trkpt>
      <trkpt lat="45.08619" lon="6.14744">
        <ele>1992.6</ele>
        <time>2024-08-09T11:34:07Z</time>
      </trkpt>
      <trkpt lat="45.08619" lon="6.14744">
        <ele>1992.6</ele>
        <time>2024-08-09T11:34:08Z</time>
      </trkpt>
      <trkpt lat="45.08619" lon="6.14744">
        <ele>1992.6</ele>
        <time>2024-08-09T11:34:09Z</time>
      </trkpt>
      <trkpt lat="45.08619" lon="6.14744">
        <ele>1992.6</ele>
        <time>2024-08-09T11:34:10Z</time>
      </trkpt>
      <trkpt lat="45.08619" lon="6.14744">
        <ele>1992.4</ele>
        <time>2024-08-09T11:34:11Z</time>
      </trkpt>
      <trkpt lat="45.08619" lon="6.14744">
        <ele>1992.4</ele>
        <time>2024-08-09T11:34:12Z</time>
      </trkpt>
      <trkpt lat="45.08619" lon="6.14744">
        <ele>1992.4</ele>
        <time>2024-08-09T11:34:13Z</time>
      </trkpt>
      <trkpt lat="45.08619" lon="6.14744">
        <ele>1992.4</ele>
        <time>2024-08-09T11:34:14Z</time>
      </trkpt>
      <trkpt lat="45.08619" lon="6.14744">
        <ele>1992.4</ele>
        <time>2024-08-09T11:34:15Z</time>
      </trkpt>
      <trkpt lat="45.08619" lon="6.14744">
        <ele>1992.4</ele>
        <time>2024-08-09T11:34:16Z</time>
      </trkpt>
      <trkpt lat="45.08619" lon="6.14744">
        <ele>1992.4</ele>
        <time>2024-08-09T11:34:17Z</time>
      </trkpt>
      <trkpt lat="45.08619" lon="6.14744">
        <ele>1992.4</ele>
        <time>2024-08-09T11:34:18Z</time>
      </trkpt>
      <trkpt lat="45.08619" lon="6.14744">
        <ele>1992.6</ele>
        <time>2024-08-09T11:34:19Z</time>
      </trkpt>
      <trkpt lat="45.08619" lon="6.14744">
        <ele>1993</ele>
        <time>2024-08-09T11:34:20Z</time>
      </trkpt>
      <trkpt lat="45.08619" lon="6.14744">
        <ele>1993.2</ele>
        <time>2024-08-09T11:34:21Z</time>
      </trkpt>
      <trkpt lat="45.08619" lon="6.14744">
        <ele>1993.2</ele>
        <time>2024-08-09T11:34:22Z</time>
      </trkpt>
      <trkpt lat="45.08619" lon="6.14744">
        <ele>1992.8</ele>
        <time>2024-08-09T11:34:23Z</time>
      </trkpt>
      <trkpt lat="45.08619" lon="6.14744">
        <ele>1992.8</ele>
        <time>2024-08-09T11:34:24Z</time>
      </trkpt>
      <trkpt lat="45.08619" lon="6.14744">
        <ele>1992.8</ele>
        <time>2024-08-09T11:34:25Z</time>
      </trkpt>
      <trkpt lat="45.08619" lon="6.14744">
        <ele>1992.8</ele>
        <time>2024-08-09T11:34:26Z</time>
      </trkpt>
      <trkpt lat="45.08619" lon="6.14744">
        <ele>1992.8</ele>
        <time>2024-08-09T11:34:27Z</time>
      </trkpt>
      <trkpt lat="45.08619" lon="6.14744">
        <ele>1992.8</ele>
        <time>2024-08-09T11:34:28Z</time>
      </trkpt>
      <trkpt lat="45.08619" lon="6.14744">
        <ele>1992.8</ele>
        <time>2024-08-09T11:34:29Z</time>
      </trkpt>
      <trkpt lat="45.08619" lon="6.14744">
        <ele>1992.6</ele>
        <time>2024-08-09T11:34:30Z</time>
      </trkpt>
      <trkpt lat="45.08619" lon="6.14744">
        <ele>1992.6</ele>
        <time>2024-08-09T11:34:31Z</time>
      </trkpt>
      <trkpt lat="45.08619" lon="6.14744">
        <ele>1992.6</ele>
        <time>2024-08-09T11:34:32Z</time>
      </trkpt>
      <trkpt lat="45.08619" lon="6.14744">
        <ele>1992.8</ele>
        <time>2024-08-09T11:34:33Z</time>
      </trkpt>
      <trkpt lat="45.08619" lon="6.14744">
        <ele>1992.8</ele>
        <time>2024-08-09T11:34:34Z</time>
      </trkpt>
      <trkpt lat="45.08619" lon="6.14744">
        <ele>1992.8</ele>
        <time>2024-08-09T11:34:35Z</time>
      </trkpt>
      <trkpt lat="45.08619" lon="6.14744">
        <ele>1992.8</ele>
        <time>2024-08-09T11:34:36Z</time>
      </trkpt>
      <trkpt lat="45.08619" lon="6.14744">
        <ele>1992.8</ele>
        <time>2024-08-09T11:34:37Z</time>
      </trkpt>
      <trkpt lat="45.08619" lon="6.14744">
        <ele>1992.8</ele>
        <time>2024-08-09T11:34:38Z</time>
      </trkpt>
      <trkpt lat="45.08619" lon="6.14744">
        <ele>1992.8</ele>
        <time>2024-08-09T11:34:39Z</time>
      </trkpt>
      <trkpt lat="45.08619" lon="6.14744">
        <ele>1992.8</ele>
        <time>2024-08-09T11:34:40Z</time>
      </trkpt>
      <trkpt lat="45.08619" lon="6.14744">
        <ele>1992.8</ele>
        <time>2024-08-09T11:34:41Z</time>
      </trkpt>
      <trkpt lat="45.08619" lon="6.14744">
        <ele>1992.6</ele>
        <time>2024-08-09T11:34:42Z</time>
      </trkpt>
      <trkpt lat="45.08619" lon="6.14744">
        <ele>1992.6</ele>
        <time>2024-08-09T11:34:43Z</time>
      </trkpt>
      <trkpt lat="45.08619" lon="6.14744">
        <ele>1992.8</ele>
        <time>2024-08-09T11:34:44Z</time>
      </trkpt>
      <trkpt lat="45.08619" lon="6.14744">
        <ele>1993</ele>
        <time>2024-08-09T11:34:45Z</time>
      </trkpt>
      <trkpt lat="45.08619" lon="6.14744">
        <ele>1993</ele>
        <time>2024-08-09T11:34:46Z</time>
      </trkpt>
      <trkpt lat="45.08619" lon="6.14744">
        <ele>1993</ele>
        <time>2024-08-09T11:34:47Z</time>
      </trkpt>
      <trkpt lat="45.08619" lon="6.14744">
        <ele>1993</ele>
        <time>2024-08-09T11:34:48Z</time>
      </trkpt>
      <trkpt lat="45.08619" lon="6.14744">
        <ele>1993</ele>
        <time>2024-08-09T11:34:49Z</time>
      </trkpt>
      <trkpt lat="45.08619" lon="6.14744">
        <ele>1992.8</ele>
        <time>2024-08-09T11:34:50Z</time>
      </trkpt>
      <trkpt lat="45.08619" lon="6.14744">
        <ele>1992.8</ele>
        <time>2024-08-09T11:34:51Z</time>
      </trkpt>
      <trkpt lat="45.08619" lon="6.14744">
        <ele>1992.8</ele>
        <time>2024-08-09T11:34:52Z</time>
      </trkpt>
      <trkpt lat="45.08619" lon="6.14744">
        <ele>1992.8</ele>
        <time>2024-08-09T11:34:53Z</time>
      </trkpt>
      <trkpt lat="45.08619" lon="6.14744">
        <ele>1993</ele>
        <time>2024-08-09T11:34:54Z</time>
      </trkpt>
      <trkpt lat="45.08619" lon="6.14744">
        <ele>1993</ele>
        <time>2024-08-09T11:34:55Z</time>
      </trkpt>
      <trkpt lat="45.08619" lon="6.14744">
        <ele>1993</ele>
        <time>2024-08-09T11:34:56Z</time>
      </trkpt>
      <trkpt lat="45.08619" lon="6.14744">
        <ele>1993</ele>
        <time>2024-08-09T11:34:57Z</time>
      </trkpt>
      <trkpt lat="45.08619" lon="6.14744">
        <ele>1993</ele>
        <time>2024-08-09T11:34:58Z</time>
      </trkpt>
      <trkpt lat="45.08619" lon="6.14744">
        <ele>1993.2</ele>
        <time>2024-08-09T11:34:59Z</time>
      </trkpt>
      <trkpt lat="45.08619" lon="6.14744">
        <ele>1993.2</ele>
        <time>2024-08-09T11:35:00Z</time>
      </trkpt>
      <trkpt lat="45.08619" lon="6.14744">
        <ele>1993</ele>
        <time>2024-08-09T11:35:01Z</time>
      </trkpt>
      <trkpt lat="45.08619" lon="6.14744">
        <ele>1993</ele>
        <time>2024-08-09T11:35:02Z</time>
      </trkpt>
      <trkpt lat="45.08619" lon="6.14744">
        <ele>1993</ele>
        <time>2024-08-09T11:35:03Z</time>
      </trkpt>
      <trkpt lat="45.08619" lon="6.14744">
        <ele>1993</ele>
        <time>2024-08-09T11:35:04Z</time>
      </trkpt>
      <trkpt lat="45.08619" lon="6.14744">
        <ele>1993</ele>
        <time>2024-08-09T11:35:05Z</time>
      </trkpt>
      <trkpt lat="45.08619" lon="6.14744">
        <ele>1993</ele>
        <time>2024-08-09T11:35:06Z</time>
      </trkpt>
      <trkpt lat="45.08619" lon="6.14744">
        <ele>1992.8</ele>
        <time>2024-08-09T11:35:07Z</time>
      </trkpt>
      <trkpt lat="45.08619" lon="6.14744">
        <ele>1993</ele>
        <time>2024-08-09T11:35:08Z</time>
      </trkpt>
      <trkpt lat="45.08619" lon="6.14744">
        <ele>1993.2</ele>
        <time>2024-08-09T11:35:09Z</time>
      </trkpt>
      <trkpt lat="45.08619" lon="6.14744">
        <ele>1993.2</ele>
        <time>2024-08-09T11:35:10Z</time>
      </trkpt>
      <trkpt lat="45.08619" lon="6.14744">
        <ele>1993.2</ele>
        <time>2024-08-09T11:35:11Z</time>
      </trkpt>
      <trkpt lat="45.08619" lon="6.14744">
        <ele>1993.2</ele>
        <time>2024-08-09T11:35:12Z</time>
      </trkpt>
      <trkpt lat="45.08619" lon="6.14744">
        <ele>1993.2</ele>
        <time>2024-08-09T11:35:13Z</time>
      </trkpt>
      <trkpt lat="45.08619" lon="6.14744">
        <ele>1993.2</ele>
        <time>2024-08-09T11:35:14Z</time>
      </trkpt>
      <trkpt lat="45.08619" lon="6.14744">
        <ele>1993.2</ele>
        <time>2024-08-09T11:35:15Z</time>
      </trkpt>
      <trkpt lat="45.08619" lon="6.14744">
        <ele>1993.2</ele>
        <time>2024-08-09T11:35:16Z</time>
      </trkpt>
      <trkpt lat="45.08619" lon="6.14744">
        <ele>1993.4</ele>
        <time>2024-08-09T11:35:17Z</time>
      </trkpt>
      <trkpt lat="45.08619" lon="6.14744">
        <ele>1993.4</ele>
        <time>2024-08-09T11:35:18Z</time>
      </trkpt>
      <trkpt lat="45.08619" lon="6.14744">
        <ele>1993.2</ele>
        <time>2024-08-09T11:35:19Z</time>
      </trkpt>
      <trkpt lat="45.08619" lon="6.14744">
        <ele>1993.2</ele>
        <time>2024-08-09T11:35:20Z</time>
      </trkpt>
      <trkpt lat="45.08619" lon="6.14744">
        <ele>1993.4</ele>
        <time>2024-08-09T11:35:21Z</time>
      </trkpt>
      <trkpt lat="45.08619" lon="6.14744">
        <ele>1993.4</ele>
        <time>2024-08-09T11:35:22Z</time>
      </trkpt>
      <trkpt lat="45.08619" lon="6.14744">
        <ele>1993.4</ele>
        <time>2024-08-09T11:35:23Z</time>
      </trkpt>
      <trkpt lat="45.08619" lon="6.14744">
        <ele>1993.2</ele>
        <time>2024-08-09T11:35:24Z</time>
      </trkpt>
      <trkpt lat="45.08619" lon="6.14744">
        <ele>1993.2</ele>
        <time>2024-08-09T11:35:25Z</time>
      </trkpt>
      <trkpt lat="45.08619" lon="6.14744">
        <ele>1993.2</ele>
        <time>2024-08-09T11:35:26Z</time>
      </trkpt>
      <trkpt lat="45.08619" lon="6.14744">
        <ele>1993.2</ele>
        <time>2024-08-09T11:35:27Z</time>
      </trkpt>
      <trkpt lat="45.08619" lon="6.14744">
        <ele>1993.2</ele>
        <time>2024-08-09T11:35:28Z</time>
      </trkpt>
      <trkpt lat="45.08619" lon="6.14744">
        <ele>1993.2</ele>
        <time>2024-08-09T11:35:29Z</time>
      </trkpt>
      <trkpt lat="45.08619" lon="6.14744">
        <ele>1993.2</ele>
        <time>2024-08-09T11:35:30Z</time>
      </trkpt>
      <trkpt lat="45.08619" lon="6.14744">
        <ele>1993.2</ele>
        <time>2024-08-09T11:35:31Z</time>
      </trkpt>
      <trkpt lat="45.08619" lon="6.14744">
        <ele>1993.2</ele>
        <time>2024-08-09T11:35:32Z</time>
      </trkpt>
      <trkpt lat="45.08619" lon="6.14744">
        <ele>1993.2</ele>
        <time>2024-08-09T11:35:33Z</time>
      </trkpt>
      <trkpt lat="45.08619" lon="6.14744">
        <ele>1993.2</ele>
        <time>2024-08-09T11:35:34Z</time>
      </trkpt>
      <trkpt lat="45.08619" lon="6.14744">
        <ele>1993.6</ele>
        <time>2024-08-09T11:35:35Z</time>
      </trkpt>
      <trkpt lat="45.08619" lon="6.14744">
        <ele>1993.6</ele>
        <time>2024-08-09T11:35:36Z</time>
      </trkpt>
      <trkpt lat="45.08619" lon="6.14744">
        <ele>1993.6</ele>
        <time>2024-08-09T11:35:37Z</time>
      </trkpt>
      <trkpt lat="45.08619" lon="6.14744">
        <ele>1993.6</ele>
        <time>2024-08-09T11:35:38Z</time>
      </trkpt>
      <trkpt lat="45.08619" lon="6.14744">
        <ele>1993.6</ele>
        <time>2024-08-09T11:35:39Z</time>
      </trkpt>
      <trkpt lat="45.08619" lon="6.14744">
        <ele>1993.4</ele>
        <time>2024-08-09T11:35:40Z</time>
      </trkpt>
      <trkpt lat="45.08619" lon="6.14744">
        <ele>1993.4</ele>
        <time>2024-08-09T11:35:41Z</time>
      </trkpt>
      <trkpt lat="45.08619" lon="6.14744">
        <ele>1993.4</ele>
        <time>2024-08-09T11:35:42Z</time>
      </trkpt>
      <trkpt lat="45.08619" lon="6.14744">
        <ele>1993.4</ele>
        <time>2024-08-09T11:35:43Z</time>
      </trkpt>
      <trkpt lat="45.08619" lon="6.14744">
        <ele>1993.6</ele>
        <time>2024-08-09T11:35:44Z</time>
      </trkpt>
      <trkpt lat="45.08619" lon="6.14744">
        <ele>1993.6</ele>
        <time>2024-08-09T11:35:45Z</time>
      </trkpt>
      <trkpt lat="45.08619" lon="6.14744">
        <ele>1993.6</ele>
        <time>2024-08-09T11:35:46Z</time>
      </trkpt>
      <trkpt lat="45.08619" lon="6.14744">
        <ele>1993.6</ele>
        <time>2024-08-09T11:35:47Z</time>
      </trkpt>
      <trkpt lat="45.08619" lon="6.14744">
        <ele>1993.6</ele>
        <time>2024-08-09T11:35:48Z</time>
      </trkpt>
      <trkpt lat="45.08619" lon="6.14744">
        <ele>1993.6</ele>
        <time>2024-08-09T11:35:49Z</time>
      </trkpt>
      <trkpt lat="45.08619" lon="6.14744">
        <ele>1993.4</ele>
        <time>2024-08-09T11:35:50Z</time>
      </trkpt>
      <trkpt lat="45.08619" lon="6.14744">
        <ele>1993.4</ele>
        <time>2024-08-09T11:35:51Z</time>
      </trkpt>
      <trkpt lat="45.08619" lon="6.14744">
        <ele>1993.2</ele>
        <time>2024-08-09T11:35:52Z</time>
      </trkpt>
      <trkpt lat="45.08619" lon="6.14744">
        <ele>1993.2</ele>
        <time>2024-08-09T11:35:53Z</time>
      </trkpt>
      <trkpt lat="45.08619" lon="6.14744">
        <ele>1993.4</ele>
        <time>2024-08-09T11:35:54Z</time>
      </trkpt>
      <trkpt lat="45.08619" lon="6.14744">
        <ele>1993.4</ele>
        <time>2024-08-09T11:35:55Z</time>
      </trkpt>
      <trkpt lat="45.08619" lon="6.14744">
        <ele>1993.4</ele>
        <time>2024-08-09T11:35:56Z</time>
      </trkpt>
      <trkpt lat="45.08619" lon="6.14744">
        <ele>1993.4</ele>
        <time>2024-08-09T11:35:57Z</time>
      </trkpt>
      <trkpt lat="45.08619" lon="6.14744">
        <ele>1993.8</ele>
        <time>2024-08-09T11:35:58Z</time>
      </trkpt>
      <trkpt lat="45.08619" lon="6.14744">
        <ele>1993.8</ele>
        <time>2024-08-09T11:35:59Z</time>
      </trkpt>
      <trkpt lat="45.08619" lon="6.14744">
        <ele>1994</ele>
        <time>2024-08-09T11:36:00Z</time>
      </trkpt>
      <trkpt lat="45.08619" lon="6.14744">
        <ele>1994</ele>
        <time>2024-08-09T11:36:01Z</time>
      </trkpt>
      <trkpt lat="45.08619" lon="6.14744">
        <ele>1994</ele>
        <time>2024-08-09T11:36:02Z</time>
      </trkpt>
      <trkpt lat="45.08619" lon="6.14744">
        <ele>1994</ele>
        <time>2024-08-09T11:36:03Z</time>
      </trkpt>
      <trkpt lat="45.08619" lon="6.14744">
        <ele>1993.8</ele>
        <time>2024-08-09T11:36:04Z</time>
      </trkpt>
      <trkpt lat="45.08619" lon="6.14744">
        <ele>1993.6</ele>
        <time>2024-08-09T11:36:05Z</time>
      </trkpt>
      <trkpt lat="45.08619" lon="6.14744">
        <ele>1993.6</ele>
        <time>2024-08-09T11:36:06Z</time>
      </trkpt>
      <trkpt lat="45.08619" lon="6.14744">
        <ele>1993.6</ele>
        <time>2024-08-09T11:36:07Z</time>
      </trkpt>
      <trkpt lat="45.08619" lon="6.14744">
        <ele>1993.6</ele>
        <time>2024-08-09T11:36:08Z</time>
      </trkpt>
      <trkpt lat="45.08619" lon="6.14744">
        <ele>1993.6</ele>
        <time>2024-08-09T11:36:09Z</time>
      </trkpt>
      <trkpt lat="45.08619" lon="6.14744">
        <ele>1993.6</ele>
        <time>2024-08-09T11:36:10Z</time>
      </trkpt>
      <trkpt lat="45.08619" lon="6.14744">
        <ele>1993.6</ele>
        <time>2024-08-09T11:36:11Z</time>
      </trkpt>
      <trkpt lat="45.08619" lon="6.14744">
        <ele>1993.6</ele>
        <time>2024-08-09T11:36:12Z</time>
      </trkpt>
      <trkpt lat="45.08619" lon="6.14744">
        <ele>1993.6</ele>
        <time>2024-08-09T11:36:13Z</time>
      </trkpt>
      <trkpt lat="45.08619" lon="6.14744">
        <ele>1993.8</ele>
        <time>2024-08-09T11:36:14Z</time>
      </trkpt>
      <trkpt lat="45.08619" lon="6.14744">
        <ele>1993.8</ele>
        <time>2024-08-09T11:36:15Z</time>
      </trkpt>
      <trkpt lat="45.08619" lon="6.14744">
        <ele>1993.8</ele>
        <time>2024-08-09T11:36:16Z</time>
      </trkpt>
      <trkpt lat="45.08619" lon="6.14744">
        <ele>1993.8</ele>
        <time>2024-08-09T11:36:17Z</time>
      </trkpt>
      <trkpt lat="45.08619" lon="6.14744">
        <ele>1993.8</ele>
        <time>2024-08-09T11:36:18Z</time>
      </trkpt>
      <trkpt lat="45.08619" lon="6.14744">
        <ele>1993.8</ele>
        <time>2024-08-09T11:36:19Z</time>
      </trkpt>
      <trkpt lat="45.08619" lon="6.14744">
        <ele>1993.8</ele>
        <time>2024-08-09T11:36:20Z</time>
      </trkpt>
      <trkpt lat="45.08619" lon="6.14744">
        <ele>1993.8</ele>
        <time>2024-08-09T11:36:21Z</time>
      </trkpt>
      <trkpt lat="45.08619" lon="6.14744">
        <ele>1993.8</ele>
        <time>2024-08-09T11:36:22Z</time>
      </trkpt>
      <trkpt lat="45.08619" lon="6.14744">
        <ele>1993.8</ele>
        <time>2024-08-09T11:36:23Z</time>
      </trkpt>
      <trkpt lat="45.08619" lon="6.14744">
        <ele>1993.8</ele>
        <time>2024-08-09T11:36:24Z</time>
      </trkpt>
      <trkpt lat="45.08619" lon="6.14744">
        <ele>1993.6</ele>
        <time>2024-08-09T11:36:25Z</time>
      </trkpt>
      <trkpt lat="45.08619" lon="6.14744">
        <ele>1993.6</ele>
        <time>2024-08-09T11:36:26Z</time>
      </trkpt>
      <trkpt lat="45.08619" lon="6.14744">
        <ele>1993.6</ele>
        <time>2024-08-09T11:36:27Z</time>
      </trkpt>
      <trkpt lat="45.08619" lon="6.14744">
        <ele>1993.6</ele>
        <time>2024-08-09T11:36:28Z</time>
      </trkpt>
      <trkpt lat="45.08619" lon="6.14744">
        <ele>1993.8</ele>
        <time>2024-08-09T11:36:29Z</time>
      </trkpt>
      <trkpt lat="45.08619" lon="6.14744">
        <ele>1993.8</ele>
        <time>2024-08-09T11:36:30Z</time>
      </trkpt>
      <trkpt lat="45.08619" lon="6.14744">
        <ele>1994</ele>
        <time>2024-08-09T11:36:31Z</time>
      </trkpt>
      <trkpt lat="45.08619" lon="6.14744">
        <ele>1993.8</ele>
        <time>2024-08-09T11:36:32Z</time>
      </trkpt>
      <trkpt lat="45.08619" lon="6.14744">
        <ele>1993.8</ele>
        <time>2024-08-09T11:36:33Z</time>
      </trkpt>
      <trkpt lat="45.08619" lon="6.14744">
        <ele>1993.8</ele>
        <time>2024-08-09T11:36:34Z</time>
      </trkpt>
      <trkpt lat="45.08619" lon="6.14744">
        <ele>1993.8</ele>
        <time>2024-08-09T11:36:35Z</time>
      </trkpt>
      <trkpt lat="45.08619" lon="6.14744">
        <ele>1993.8</ele>
        <time>2024-08-09T11:36:36Z</time>
      </trkpt>
      <trkpt lat="45.08619" lon="6.14744">
        <ele>1993.8</ele>
        <time>2024-08-09T11:36:37Z</time>
      </trkpt>
      <trkpt lat="45.08619" lon="6.14744">
        <ele>1993.8</ele>
        <time>2024-08-09T11:36:38Z</time>
      </trkpt>
      <trkpt lat="45.08619" lon="6.14744">
        <ele>1993.8</ele>
        <time>2024-08-09T11:36:39Z</time>
      </trkpt>
      <trkpt lat="45.08619" lon="6.14744">
        <ele>1993.8</ele>
        <time>2024-08-09T11:36:40Z</time>
      </trkpt>
      <trkpt lat="45.08619" lon="6.14744">
        <ele>1993.8</ele>
        <time>2024-08-09T11:36:41Z</time>
      </trkpt>
      <trkpt lat="45.08619" lon="6.14744">
        <ele>1994</ele>
        <time>2024-08-09T11:36:42Z</time>
      </trkpt>
      <trkpt lat="45.08619" lon="6.14744">
        <ele>1994</ele>
        <time>2024-08-09T11:36:43Z</time>
      </trkpt>
      <trkpt lat="45.08619" lon="6.14744">
        <ele>1993.8</ele>
        <time>2024-08-09T11:36:44Z</time>
      </trkpt>
      <trkpt lat="45.08619" lon="6.14744">
        <ele>1993.8</ele>
        <time>2024-08-09T11:36:45Z</time>
      </trkpt>
      <trkpt lat="45.08619" lon="6.14744">
        <ele>1993.8</ele>
        <time>2024-08-09T11:36:46Z</time>
      </trkpt>
      <trkpt lat="45.08619" lon="6.14744">
        <ele>1993.8</ele>
        <time>2024-08-09T11:36:47Z</time>
      </trkpt>
      <trkpt lat="45.08619" lon="6.14744">
        <ele>1993.8</ele>
        <time>2024-08-09T11:36:48Z</time>
      </trkpt>
      <trkpt lat="45.08619" lon="6.14744">
        <ele>1993.8</ele>
        <time>2024-08-09T11:36:49Z</time>
      </trkpt>
      <trkpt lat="45.08619" lon="6.14744">
        <ele>1993.8</ele>
        <time>2024-08-09T11:36:50Z</time>
      </trkpt>
      <trkpt lat="45.08619" lon="6.14744">
        <ele>1993.8</ele>
        <time>2024-08-09T11:36:51Z</time>
      </trkpt>
      <trkpt lat="45.08619" lon="6.14744">
        <ele>1993.8</ele>
        <time>2024-08-09T11:36:52Z</time>
      </trkpt>
      <trkpt lat="45.08619" lon="6.14744">
        <ele>1993.8</ele>
        <time>2024-08-09T11:36:53Z</time>
      </trkpt>
      <trkpt lat="45.08619" lon="6.14744">
        <ele>1993.8</ele>
        <time>2024-08-09T11:36:54Z</time>
      </trkpt>
      <trkpt lat="45.08619" lon="6.14744">
        <ele>1993.8</ele>
        <time>2024-08-09T11:36:55Z</time>
      </trkpt>
      <trkpt lat="45.08619" lon="6.14744">
        <ele>1993.8</ele>
        <time>2024-08-09T11:36:56Z</time>
      </trkpt>
      <trkpt lat="45.08619" lon="6.14744">
        <ele>1993.8</ele>
        <time>2024-08-09T11:36:57Z</time>
      </trkpt>
      <trkpt lat="45.08619" lon="6.14744">
        <ele>1993.8</ele>
        <time>2024-08-09T11:36:58Z</time>
      </trkpt>
      <trkpt lat="45.08619" lon="6.14744">
        <ele>1993.8</ele>
        <time>2024-08-09T11:36:59Z</time>
      </trkpt>
      <trkpt lat="45.08619" lon="6.14744">
        <ele>1993.8</ele>
        <time>2024-08-09T11:37:00Z</time>
      </trkpt>
      <trkpt lat="45.08619" lon="6.14744">
        <ele>1993.8</ele>
        <time>2024-08-09T11:37:01Z</time>
      </trkpt>
      <trkpt lat="45.08619" lon="6.14744">
        <ele>1993.8</ele>
        <time>2024-08-09T11:37:02Z</time>
      </trkpt>
      <trkpt lat="45.08619" lon="6.14744">
        <ele>1993.8</ele>
        <time>2024-08-09T11:37:03Z</time>
      </trkpt>
      <trkpt lat="45.08619" lon="6.14744">
        <ele>1993.8</ele>
        <time>2024-08-09T11:37:04Z</time>
      </trkpt>
      <trkpt lat="45.08619" lon="6.14744">
        <ele>1993.8</ele>
        <time>2024-08-09T11:37:05Z</time>
      </trkpt>
      <trkpt lat="45.08619" lon="6.14744">
        <ele>1993.8</ele>
        <time>2024-08-09T11:37:06Z</time>
      </trkpt>
      <trkpt lat="45.08619" lon="6.14744">
        <ele>1993.8</ele>
        <time>2024-08-09T11:37:07Z</time>
      </trkpt>
      <trkpt lat="45.08619" lon="6.14744">
        <ele>1993.8</ele>
        <time>2024-08-09T11:37:08Z</time>
      </trkpt>
      <trkpt lat="45.08619" lon="6.14744">
        <ele>1994</ele>
        <time>2024-08-09T11:37:09Z</time>
      </trkpt>
      <trkpt lat="45.08619" lon="6.14744">
        <ele>1994</ele>
        <time>2024-08-09T11:37:10Z</time>
      </trkpt>
      <trkpt lat="45.08619" lon="6.14744">
        <ele>1994</ele>
        <time>2024-08-09T11:37:11Z</time>
      </trkpt>
      <trkpt lat="45.08619" lon="6.14744">
        <ele>1994</ele>
        <time>2024-08-09T11:37:12Z</time>
      </trkpt>
      <trkpt lat="45.08619" lon="6.14744">
        <ele>1994.2</ele>
        <time>2024-08-09T11:37:13Z</time>
      </trkpt>
      <trkpt lat="45.08619" lon="6.14744">
        <ele>1994.2</ele>
        <time>2024-08-09T11:37:14Z</time>
      </trkpt>
      <trkpt lat="45.08619" lon="6.14744">
        <ele>1994.2</ele>
        <time>2024-08-09T11:37:15Z</time>
      </trkpt>
      <trkpt lat="45.08619" lon="6.14744">
        <ele>1993.8</ele>
        <time>2024-08-09T11:37:16Z</time>
      </trkpt>
      <trkpt lat="45.08619" lon="6.14744">
        <ele>1993.8</ele>
        <time>2024-08-09T11:37:17Z</time>
      </trkpt>
      <trkpt lat="45.08619" lon="6.14744">
        <ele>1994</ele>
        <time>2024-08-09T11:37:18Z</time>
      </trkpt>
      <trkpt lat="45.08619" lon="6.14744">
        <ele>1994</ele>
        <time>2024-08-09T11:37:19Z</time>
      </trkpt>
      <trkpt lat="45.08619" lon="6.14744">
        <ele>1994</ele>
        <time>2024-08-09T11:37:20Z</time>
      </trkpt>
      <trkpt lat="45.08619" lon="6.14744">
        <ele>1994</ele>
        <time>2024-08-09T11:37:21Z</time>
      </trkpt>
      <trkpt lat="45.08619" lon="6.14744">
        <ele>1994</ele>
        <time>2024-08-09T11:37:22Z</time>
      </trkpt>
      <trkpt lat="45.08619" lon="6.14744">
        <ele>1994</ele>
        <time>2024-08-09T11:37:23Z</time>
      </trkpt>
      <trkpt lat="45.08619" lon="6.14744">
        <ele>1994</ele>
        <time>2024-08-09T11:37:24Z</time>
      </trkpt>
      <trkpt lat="45.08619" lon="6.14744">
        <ele>1994</ele>
        <time>2024-08-09T11:37:25Z</time>
      </trkpt>
      <trkpt lat="45.08619" lon="6.14744">
        <ele>1994</ele>
        <time>2024-08-09T11:37:26Z</time>
      </trkpt>
      <trkpt lat="45.08619" lon="6.14744">
        <ele>1994</ele>
        <time>2024-08-09T11:37:27Z</time>
      </trkpt>
      <trkpt lat="45.08619" lon="6.14744">
        <ele>1994</ele>
        <time>2024-08-09T11:37:28Z</time>
      </trkpt>
      <trkpt lat="45.08619" lon="6.14744">
        <ele>1994</ele>
        <time>2024-08-09T11:37:29Z</time>
      </trkpt>
      <trkpt lat="45.08619" lon="6.14744">
        <ele>1994</ele>
        <time>2024-08-09T11:37:30Z</time>
      </trkpt>
      <trkpt lat="45.08619" lon="6.14744">
        <ele>1994</ele>
        <time>2024-08-09T11:37:31Z</time>
      </trkpt>
      <trkpt lat="45.08619" lon="6.14744">
        <ele>1994</ele>
        <time>2024-08-09T11:37:32Z</time>
      </trkpt>
      <trkpt lat="45.08619" lon="6.14744">
        <ele>1994</ele>
        <time>2024-08-09T11:37:33Z</time>
      </trkpt>
      <trkpt lat="45.08619" lon="6.14744">
        <ele>1994</ele>
        <time>2024-08-09T11:37:34Z</time>
      </trkpt>
      <trkpt lat="45.08619" lon="6.14744">
        <ele>1994</ele>
        <time>2024-08-09T11:37:35Z</time>
      </trkpt>
      <trkpt lat="45.08619" lon="6.14744">
        <ele>1994</ele>
        <time>2024-08-09T11:37:36Z</time>
      </trkpt>
      <trkpt lat="45.08619" lon="6.14744">
        <ele>1994</ele>
        <time>2024-08-09T11:37:37Z</time>
      </trkpt>
      <trkpt lat="45.08619" lon="6.14744">
        <ele>1994.2</ele>
        <time>2024-08-09T11:37:38Z</time>
      </trkpt>
      <trkpt lat="45.08619" lon="6.14744">
        <ele>1994.2</ele>
        <time>2024-08-09T11:37:39Z</time>
      </trkpt>
      <trkpt lat="45.08619" lon="6.14744">
        <ele>1994.2</ele>
        <time>2024-08-09T11:37:40Z</time>
      </trkpt>
      <trkpt lat="45.08619" lon="6.14744">
        <ele>1994</ele>
        <time>2024-08-09T11:37:41Z</time>
      </trkpt>
      <trkpt lat="45.08619" lon="6.14744">
        <ele>1994</ele>
        <time>2024-08-09T11:37:42Z</time>
      </trkpt>
      <trkpt lat="45.08619" lon="6.14744">
        <ele>1994.2</ele>
        <time>2024-08-09T11:37:43Z</time>
      </trkpt>
      <trkpt lat="45.08619" lon="6.14744">
        <ele>1994.4</ele>
        <time>2024-08-09T11:37:44Z</time>
      </trkpt>
      <trkpt lat="45.08619" lon="6.14744">
        <ele>1994.6</ele>
        <time>2024-08-09T11:37:45Z</time>
      </trkpt>
      <trkpt lat="45.08619" lon="6.14744">
        <ele>1994.6</ele>
        <time>2024-08-09T11:37:46Z</time>
      </trkpt>
      <trkpt lat="45.08619" lon="6.14744">
        <ele>1994.4</ele>
        <time>2024-08-09T11:37:47Z</time>
      </trkpt>
      <trkpt lat="45.08619" lon="6.14744">
        <ele>1994.4</ele>
        <time>2024-08-09T11:37:48Z</time>
      </trkpt>
      <trkpt lat="45.08619" lon="6.14744">
        <ele>1994.4</ele>
        <time>2024-08-09T11:37:49Z</time>
      </trkpt>
      <trkpt lat="45.08619" lon="6.14744">
        <ele>1994.4</ele>
        <time>2024-08-09T11:37:50Z</time>
      </trkpt>
      <trkpt lat="45.08619" lon="6.14744">
        <ele>1994.2</ele>
        <time>2024-08-09T11:37:51Z</time>
      </trkpt>
      <trkpt lat="45.08619" lon="6.14744">
        <ele>1994.2</ele>
        <time>2024-08-09T11:37:52Z</time>
      </trkpt>
      <trkpt lat="45.08619" lon="6.14744">
        <ele>1994.4</ele>
        <time>2024-08-09T11:37:53Z</time>
      </trkpt>
      <trkpt lat="45.08619" lon="6.14744">
        <ele>1994.4</ele>
        <time>2024-08-09T11:37:54Z</time>
      </trkpt>
      <trkpt lat="45.08619" lon="6.14744">
        <ele>1994.4</ele>
        <time>2024-08-09T11:37:55Z</time>
      </trkpt>
      <trkpt lat="45.08619" lon="6.14744">
        <ele>1994.2</ele>
        <time>2024-08-09T11:37:56Z</time>
      </trkpt>
      <trkpt lat="45.08619" lon="6.14744">
        <ele>1994.2</ele>
        <time>2024-08-09T11:37:57Z</time>
      </trkpt>
      <trkpt lat="45.08619" lon="6.14744">
        <ele>1994.2</ele>
        <time>2024-08-09T11:37:58Z</time>
      </trkpt>
      <trkpt lat="45.08619" lon="6.14744">
        <ele>1994.2</ele>
        <time>2024-08-09T11:37:59Z</time>
      </trkpt>
      <trkpt lat="45.08619" lon="6.14744">
        <ele>1994.2</ele>
        <time>2024-08-09T11:38:00Z</time>
      </trkpt>
      <trkpt lat="45.08619" lon="6.14744">
        <ele>1994.4</ele>
        <time>2024-08-09T11:38:01Z</time>
      </trkpt>
      <trkpt lat="45.08619" lon="6.14744">
        <ele>1994.4</ele>
        <time>2024-08-09T11:38:02Z</time>
      </trkpt>
      <trkpt lat="45.08619" lon="6.14744">
        <ele>1994.4</ele>
        <time>2024-08-09T11:38:03Z</time>
      </trkpt>
      <trkpt lat="45.08619" lon="6.14744">
        <ele>1994.4</ele>
        <time>2024-08-09T11:38:04Z</time>
      </trkpt>
      <trkpt lat="45.08619" lon="6.14744">
        <ele>1994.6</ele>
        <time>2024-08-09T11:38:05Z</time>
      </trkpt>
      <trkpt lat="45.08619" lon="6.14744">
        <ele>1994.6</ele>
        <time>2024-08-09T11:38:06Z</time>
      </trkpt>
      <trkpt lat="45.08619" lon="6.14744">
        <ele>1994.2</ele>
        <time>2024-08-09T11:38:07Z</time>
      </trkpt>
      <trkpt lat="45.08619" lon="6.14744">
        <ele>1994.2</ele>
        <time>2024-08-09T11:38:08Z</time>
      </trkpt>
      <trkpt lat="45.08619" lon="6.14744">
        <ele>1994.2</ele>
        <time>2024-08-09T11:38:09Z</time>
      </trkpt>
      <trkpt lat="45.08619" lon="6.14744">
        <ele>1994.2</ele>
        <time>2024-08-09T11:38:10Z</time>
      </trkpt>
      <trkpt lat="45.08619" lon="6.14744">
        <ele>1994.2</ele>
        <time>2024-08-09T11:38:11Z</time>
      </trkpt>
      <trkpt lat="45.08619" lon="6.14744">
        <ele>1994.2</ele>
        <time>2024-08-09T11:38:12Z</time>
      </trkpt>
      <trkpt lat="45.08619" lon="6.14744">
        <ele>1994.4</ele>
        <time>2024-08-09T11:38:13Z</time>
      </trkpt>
      <trkpt lat="45.08619" lon="6.14744">
        <ele>1994.4</ele>
        <time>2024-08-09T11:38:14Z</time>
      </trkpt>
      <trkpt lat="45.08619" lon="6.14744">
        <ele>1994.4</ele>
        <time>2024-08-09T11:38:15Z</time>
      </trkpt>
      <trkpt lat="45.08619" lon="6.14744">
        <ele>1994.4</ele>
        <time>2024-08-09T11:38:16Z</time>
      </trkpt>
      <trkpt lat="45.08619" lon="6.14744">
        <ele>1994.4</ele>
        <time>2024-08-09T11:38:17Z</time>
      </trkpt>
      <trkpt lat="45.08619" lon="6.14744">
        <ele>1994.4</ele>
        <time>2024-08-09T11:38:18Z</time>
      </trkpt>
      <trkpt lat="45.08619" lon="6.14744">
        <ele>1994.4</ele>
        <time>2024-08-09T11:38:19Z</time>
      </trkpt>
      <trkpt lat="45.08619" lon="6.14744">
        <ele>1994.4</ele>
        <time>2024-08-09T11:38:20Z</time>
      </trkpt>
      <trkpt lat="45.08619" lon="6.14744">
        <ele>1994.6</ele>
        <time>2024-08-09T11:38:21Z</time>
      </trkpt>
      <trkpt lat="45.08619" lon="6.14744">
        <ele>1994.6</ele>
        <time>2024-08-09T11:38:22Z</time>
      </trkpt>
      <trkpt lat="45.08619" lon="6.14744">
        <ele>1994.6</ele>
        <time>2024-08-09T11:38:23Z</time>
      </trkpt>
      <trkpt lat="45.08619" lon="6.14744">
        <ele>1994.4</ele>
        <time>2024-08-09T11:38:24Z</time>
      </trkpt>
      <trkpt lat="45.08619" lon="6.14744">
        <ele>1994.4</ele>
        <time>2024-08-09T11:38:25Z</time>
      </trkpt>
      <trkpt lat="45.08619" lon="6.14744">
        <ele>1994.4</ele>
        <time>2024-08-09T11:38:26Z</time>
      </trkpt>
      <trkpt lat="45.08619" lon="6.14744">
        <ele>1994.4</ele>
        <time>2024-08-09T11:38:27Z</time>
      </trkpt>
      <trkpt lat="45.08619" lon="6.14744">
        <ele>1994.2</ele>
        <time>2024-08-09T11:38:28Z</time>
      </trkpt>
      <trkpt lat="45.08619" lon="6.14744">
        <ele>1994.2</ele>
        <time>2024-08-09T11:38:29Z</time>
      </trkpt>
      <trkpt lat="45.08619" lon="6.14744">
        <ele>1994.4</ele>
        <time>2024-08-09T11:38:30Z</time>
      </trkpt>
      <trkpt lat="45.08619" lon="6.14744">
        <ele>1994.4</ele>
        <time>2024-08-09T11:38:31Z</time>
      </trkpt>
      <trkpt lat="45.08619" lon="6.14744">
        <ele>1994.4</ele>
        <time>2024-08-09T11:38:32Z</time>
      </trkpt>
      <trkpt lat="45.08619" lon="6.14744">
        <ele>1994.2</ele>
        <time>2024-08-09T11:38:33Z</time>
      </trkpt>
      <trkpt lat="45.08619" lon="6.14744">
        <ele>1994.2</ele>
        <time>2024-08-09T11:38:34Z</time>
      </trkpt>
      <trkpt lat="45.08619" lon="6.14744">
        <ele>1994.2</ele>
        <time>2024-08-09T11:38:35Z</time>
      </trkpt>
      <trkpt lat="45.08619" lon="6.14744">
        <ele>1994</ele>
        <time>2024-08-09T11:38:36Z</time>
      </trkpt>
      <trkpt lat="45.08619" lon="6.14744">
        <ele>1994</ele>
        <time>2024-08-09T11:38:37Z</time>
      </trkpt>
      <trkpt lat="45.08619" lon="6.14744">
        <ele>1994</ele>
        <time>2024-08-09T11:38:38Z</time>
      </trkpt>
      <trkpt lat="45.08619" lon="6.14744">
        <ele>1994.2</ele>
        <time>2024-08-09T11:38:39Z</time>
      </trkpt>
      <trkpt lat="45.08619" lon="6.14744">
        <ele>1994.2</ele>
        <time>2024-08-09T11:38:40Z</time>
      </trkpt>
      <trkpt lat="45.08619" lon="6.14744">
        <ele>1994.4</ele>
        <time>2024-08-09T11:38:41Z</time>
      </trkpt>
      <trkpt lat="45.08619" lon="6.14744">
        <ele>1994.4</ele>
        <time>2024-08-09T11:38:42Z</time>
      </trkpt>
      <trkpt lat="45.08619" lon="6.14744">
        <ele>1994.4</ele>
        <time>2024-08-09T11:38:43Z</time>
      </trkpt>
      <trkpt lat="45.08619" lon="6.14744">
        <ele>1994.4</ele>
        <time>2024-08-09T11:38:44Z</time>
      </trkpt>
      <trkpt lat="45.08619" lon="6.14744">
        <ele>1994.2</ele>
        <time>2024-08-09T11:38:45Z</time>
      </trkpt>
      <trkpt lat="45.08619" lon="6.14744">
        <ele>1994.2</ele>
        <time>2024-08-09T11:38:46Z</time>
      </trkpt>
      <trkpt lat="45.08619" lon="6.14744">
        <ele>1994.4</ele>
        <time>2024-08-09T11:38:47Z</time>
      </trkpt>
      <trkpt lat="45.08619" lon="6.14744">
        <ele>1994.4</ele>
        <time>2024-08-09T11:38:48Z</time>
      </trkpt>
      <trkpt lat="45.08619" lon="6.14744">
        <ele>1994.4</ele>
        <time>2024-08-09T11:38:49Z</time>
      </trkpt>
      <trkpt lat="45.08619" lon="6.14744">
        <ele>1994.6</ele>
        <time>2024-08-09T11:38:50Z</time>
      </trkpt>
      <trkpt lat="45.08619" lon="6.14744">
        <ele>1994.6</ele>
        <time>2024-08-09T11:38:51Z</time>
      </trkpt>
      <trkpt lat="45.08619" lon="6.14744">
        <ele>1994.4</ele>
        <time>2024-08-09T11:38:52Z</time>
      </trkpt>
      <trkpt lat="45.08619" lon="6.14744">
        <ele>1994.4</ele>
        <time>2024-08-09T11:38:53Z</time>
      </trkpt>
      <trkpt lat="45.08619" lon="6.14744">
        <ele>1994.4</ele>
        <time>2024-08-09T11:38:54Z</time>
      </trkpt>
      <trkpt lat="45.08619" lon="6.14744">
        <ele>1994.6</ele>
        <time>2024-08-09T11:38:55Z</time>
      </trkpt>
      <trkpt lat="45.08619" lon="6.14744">
        <ele>1994.8</ele>
        <time>2024-08-09T11:38:56Z</time>
      </trkpt>
      <trkpt lat="45.08619" lon="6.14744">
        <ele>1994.8</ele>
        <time>2024-08-09T11:38:57Z</time>
      </trkpt>
      <trkpt lat="45.08619" lon="6.14744">
        <ele>1994.8</ele>
        <time>2024-08-09T11:38:58Z</time>
      </trkpt>
      <trkpt lat="45.08619" lon="6.14744">
        <ele>1994.6</ele>
        <time>2024-08-09T11:38:59Z</time>
      </trkpt>
      <trkpt lat="45.08619" lon="6.14744">
        <ele>1994.6</ele>
        <time>2024-08-09T11:39:00Z</time>
      </trkpt>
      <trkpt lat="45.08619" lon="6.14744">
        <ele>1994.8</ele>
        <time>2024-08-09T11:39:01Z</time>
      </trkpt>
      <trkpt lat="45.08619" lon="6.14744">
        <ele>1995</ele>
        <time>2024-08-09T11:39:02Z</time>
      </trkpt>
      <trkpt lat="45.08619" lon="6.14744">
        <ele>1995</ele>
        <time>2024-08-09T11:39:03Z</time>
      </trkpt>
      <trkpt lat="45.08619" lon="6.14744">
        <ele>1994.6</ele>
        <time>2024-08-09T11:39:04Z</time>
      </trkpt>
      <trkpt lat="45.08619" lon="6.14744">
        <ele>1994.6</ele>
        <time>2024-08-09T11:39:05Z</time>
      </trkpt>
      <trkpt lat="45.08619" lon="6.14744">
        <ele>1994.6</ele>
        <time>2024-08-09T11:39:06Z</time>
      </trkpt>
      <trkpt lat="45.08619" lon="6.14744">
        <ele>1994.6</ele>
        <time>2024-08-09T11:39:07Z</time>
      </trkpt>
      <trkpt lat="45.08619" lon="6.14744">
        <ele>1994.6</ele>
        <time>2024-08-09T11:39:08Z</time>
      </trkpt>
      <trkpt lat="45.08619" lon="6.14744">
        <ele>1994.6</ele>
        <time>2024-08-09T11:39:09Z</time>
      </trkpt>
      <trkpt lat="45.08619" lon="6.14744">
        <ele>1994.8</ele>
        <time>2024-08-09T11:39:10Z</time>
      </trkpt>
      <trkpt lat="45.08619" lon="6.14744">
        <ele>1994.8</ele>
        <time>2024-08-09T11:39:11Z</time>
      </trkpt>
      <trkpt lat="45.08619" lon="6.14744">
        <ele>1994.8</ele>
        <time>2024-08-09T11:39:12Z</time>
      </trkpt>
      <trkpt lat="45.08619" lon="6.14744">
        <ele>1994.8</ele>
        <time>2024-08-09T11:39:13Z</time>
      </trkpt>
      <trkpt lat="45.08619" lon="6.14744">
        <ele>1994.8</ele>
        <time>2024-08-09T11:39:14Z</time>
      </trkpt>
      <trkpt lat="45.08619" lon="6.14744">
        <ele>1994.8</ele>
        <time>2024-08-09T11:39:15Z</time>
      </trkpt>
      <trkpt lat="45.08619" lon="6.14744">
        <ele>1994.8</ele>
        <time>2024-08-09T11:39:16Z</time>
      </trkpt>
      <trkpt lat="45.08619" lon="6.14744">
        <ele>1994.8</ele>
        <time>2024-08-09T11:39:17Z</time>
      </trkpt>
      <trkpt lat="45.08619" lon="6.14744">
        <ele>1994.8</ele>
        <time>2024-08-09T11:39:18Z</time>
      </trkpt>
      <trkpt lat="45.08619" lon="6.14744">
        <ele>1994.8</ele>
        <time>2024-08-09T11:39:19Z</time>
      </trkpt>
      <trkpt lat="45.08619" lon="6.14744">
        <ele>1994.8</ele>
        <time>2024-08-09T11:39:20Z</time>
      </trkpt>
      <trkpt lat="45.08619" lon="6.14744">
        <ele>1994.8</ele>
        <time>2024-08-09T11:39:21Z</time>
      </trkpt>
      <trkpt lat="45.08619" lon="6.14744">
        <ele>1994.8</ele>
        <time>2024-08-09T11:39:22Z</time>
      </trkpt>
      <trkpt lat="45.08619" lon="6.14744">
        <ele>1994.8</ele>
        <time>2024-08-09T11:39:23Z</time>
      </trkpt>
      <trkpt lat="45.08619" lon="6.14744">
        <ele>1994.8</ele>
        <time>2024-08-09T11:39:24Z</time>
      </trkpt>
      <trkpt lat="45.08619" lon="6.14744">
        <ele>1994.8</ele>
        <time>2024-08-09T11:39:25Z</time>
      </trkpt>
      <trkpt lat="45.08619" lon="6.14744">
        <ele>1994.8</ele>
        <time>2024-08-09T11:39:26Z</time>
      </trkpt>
      <trkpt lat="45.08619" lon="6.14744">
        <ele>1994.8</ele>
        <time>2024-08-09T11:39:27Z</time>
      </trkpt>
      <trkpt lat="45.08619" lon="6.14744">
        <ele>1995</ele>
        <time>2024-08-09T11:39:28Z</time>
      </trkpt>
      <trkpt lat="45.08619" lon="6.14744">
        <ele>1995</ele>
        <time>2024-08-09T11:39:29Z</time>
      </trkpt>
      <trkpt lat="45.08619" lon="6.14744">
        <ele>1995</ele>
        <time>2024-08-09T11:39:30Z</time>
      </trkpt>
      <trkpt lat="45.08619" lon="6.14744">
        <ele>1995</ele>
        <time>2024-08-09T11:39:31Z</time>
      </trkpt>
      <trkpt lat="45.08619" lon="6.14744">
        <ele>1995</ele>
        <time>2024-08-09T11:39:32Z</time>
      </trkpt>
      <trkpt lat="45.08619" lon="6.14744">
        <ele>1994.8</ele>
        <time>2024-08-09T11:39:33Z</time>
      </trkpt>
      <trkpt lat="45.08619" lon="6.14744">
        <ele>1994.8</ele>
        <time>2024-08-09T11:39:34Z</time>
      </trkpt>
      <trkpt lat="45.08619" lon="6.14744">
        <ele>1994.8</ele>
        <time>2024-08-09T11:39:35Z</time>
      </trkpt>
      <trkpt lat="45.08619" lon="6.14744">
        <ele>1994.6</ele>
        <time>2024-08-09T11:39:36Z</time>
      </trkpt>
      <trkpt lat="45.08619" lon="6.14744">
        <ele>1994.6</ele>
        <time>2024-08-09T11:39:37Z</time>
      </trkpt>
      <trkpt lat="45.08619" lon="6.14744">
        <ele>1994.6</ele>
        <time>2024-08-09T11:39:38Z</time>
      </trkpt>
      <trkpt lat="45.08619" lon="6.14744">
        <ele>1994.6</ele>
        <time>2024-08-09T11:39:39Z</time>
      </trkpt>
      <trkpt lat="45.08619" lon="6.14744">
        <ele>1994.6</ele>
        <time>2024-08-09T11:39:40Z</time>
      </trkpt>
      <trkpt lat="45.08619" lon="6.14744">
        <ele>1994.6</ele>
        <time>2024-08-09T11:39:41Z</time>
      </trkpt>
      <trkpt lat="45.08619" lon="6.14744">
        <ele>1994.8</ele>
        <time>2024-08-09T11:39:42Z</time>
      </trkpt>
      <trkpt lat="45.08619" lon="6.14744">
        <ele>1994.8</ele>
        <time>2024-08-09T11:39:43Z</time>
      </trkpt>
      <trkpt lat="45.08619" lon="6.14744">
        <ele>1994.8</ele>
        <time>2024-08-09T11:39:44Z</time>
      </trkpt>
      <trkpt lat="45.08619" lon="6.14744">
        <ele>1994.8</ele>
        <time>2024-08-09T11:39:45Z</time>
      </trkpt>
      <trkpt lat="45.08619" lon="6.14744">
        <ele>1994.8</ele>
        <time>2024-08-09T11:39:46Z</time>
      </trkpt>
      <trkpt lat="45.08619" lon="6.14744">
        <ele>1995</ele>
        <time>2024-08-09T11:39:47Z</time>
      </trkpt>
      <trkpt lat="45.08619" lon="6.14744">
        <ele>1995</ele>
        <time>2024-08-09T11:39:48Z</time>
      </trkpt>
      <trkpt lat="45.08619" lon="6.14744">
        <ele>1995</ele>
        <time>2024-08-09T11:39:49Z</time>
      </trkpt>
      <trkpt lat="45.08619" lon="6.14744">
        <ele>1994.8</ele>
        <time>2024-08-09T11:39:50Z</time>
      </trkpt>
      <trkpt lat="45.08619" lon="6.14744">
        <ele>1994.8</ele>
        <time>2024-08-09T11:39:51Z</time>
      </trkpt>
      <trkpt lat="45.08619" lon="6.14744">
        <ele>1994.6</ele>
        <time>2024-08-09T11:39:52Z</time>
      </trkpt>
      <trkpt lat="45.08619" lon="6.14744">
        <ele>1994.6</ele>
        <time>2024-08-09T11:39:53Z</time>
      </trkpt>
      <trkpt lat="45.08619" lon="6.14744">
        <ele>1994.8</ele>
        <time>2024-08-09T11:39:54Z</time>
      </trkpt>
      <trkpt lat="45.08619" lon="6.14744">
        <ele>1994.8</ele>
        <time>2024-08-09T11:39:55Z</time>
      </trkpt>
      <trkpt lat="45.08619" lon="6.14744">
        <ele>1994.8</ele>
        <time>2024-08-09T11:39:56Z</time>
      </trkpt>
      <trkpt lat="45.08619" lon="6.14744">
        <ele>1994.8</ele>
        <time>2024-08-09T11:39:57Z</time>
      </trkpt>
      <trkpt lat="45.08619" lon="6.14744">
        <ele>1994.8</ele>
        <time>2024-08-09T11:39:58Z</time>
      </trkpt>
      <trkpt lat="45.08619" lon="6.14744">
        <ele>1995</ele>
        <time>2024-08-09T11:39:59Z</time>
      </trkpt>
      <trkpt lat="45.08619" lon="6.14744">
        <ele>1995.2</ele>
        <time>2024-08-09T11:40:02Z</time>
      </trkpt>
      <trkpt lat="45.08619" lon="6.14744">
        <ele>1994.8</ele>
        <time>2024-08-09T11:40:03Z</time>
      </trkpt>
      <trkpt lat="45.08619" lon="6.14744">
        <ele>1994.8</ele>
        <time>2024-08-09T11:40:04Z</time>
      </trkpt>
      <trkpt lat="45.08619" lon="6.14744">
        <ele>1994.8</ele>
        <time>2024-08-09T11:40:05Z</time>
      </trkpt>
      <trkpt lat="45.08619" lon="6.14744">
        <ele>1994.8</ele>
        <time>2024-08-09T11:40:06Z</time>
      </trkpt>
      <trkpt lat="45.08619" lon="6.14744">
        <ele>1994.8</ele>
        <time>2024-08-09T11:40:07Z</time>
      </trkpt>
      <trkpt lat="45.08619" lon="6.14744">
        <ele>1994.8</ele>
        <time>2024-08-09T11:40:08Z</time>
      </trkpt>
      <trkpt lat="45.08619" lon="6.14744">
        <ele>1995</ele>
        <time>2024-08-09T11:40:09Z</time>
      </trkpt>
      <trkpt lat="45.08619" lon="6.14744">
        <ele>1995</ele>
        <time>2024-08-09T11:40:10Z</time>
      </trkpt>
      <trkpt lat="45.08619" lon="6.14744">
        <ele>1995.2</ele>
        <time>2024-08-09T11:40:11Z</time>
      </trkpt>
      <trkpt lat="45.08619" lon="6.14744">
        <ele>1995.2</ele>
        <time>2024-08-09T11:40:12Z</time>
      </trkpt>
      <trkpt lat="45.08619" lon="6.14744">
        <ele>1995.2</ele>
        <time>2024-08-09T11:40:13Z</time>
      </trkpt>
      <trkpt lat="45.08619" lon="6.14744">
        <ele>1995.2</ele>
        <time>2024-08-09T11:40:14Z</time>
      </trkpt>
      <trkpt lat="45.08619" lon="6.14744">
        <ele>1994.8</ele>
        <time>2024-08-09T11:40:15Z</time>
      </trkpt>
      <trkpt lat="45.08619" lon="6.14744">
        <ele>1994.8</ele>
        <time>2024-08-09T11:40:16Z</time>
      </trkpt>
      <trkpt lat="45.08619" lon="6.14744">
        <ele>1994.8</ele>
        <time>2024-08-09T11:40:17Z</time>
      </trkpt>
      <trkpt lat="45.08619" lon="6.14744">
        <ele>1994.8</ele>
        <time>2024-08-09T11:40:18Z</time>
      </trkpt>
      <trkpt lat="45.08619" lon="6.14744">
        <ele>1994.8</ele>
        <time>2024-08-09T11:40:19Z</time>
      </trkpt>
      <trkpt lat="45.08619" lon="6.14744">
        <ele>1994.8</ele>
        <time>2024-08-09T11:40:20Z</time>
      </trkpt>
      <trkpt lat="45.08619" lon="6.14744">
        <ele>1995.2</ele>
        <time>2024-08-09T11:40:21Z</time>
      </trkpt>
      <trkpt lat="45.08619" lon="6.14744">
        <ele>1995.2</ele>
        <time>2024-08-09T11:40:22Z</time>
      </trkpt>
      <trkpt lat="45.08619" lon="6.14744">
        <ele>1995</ele>
        <time>2024-08-09T11:40:23Z</time>
      </trkpt>
      <trkpt lat="45.08619" lon="6.14744">
        <ele>1995</ele>
        <time>2024-08-09T11:40:24Z</time>
      </trkpt>
      <trkpt lat="45.08619" lon="6.14744">
        <ele>1995.2</ele>
        <time>2024-08-09T11:40:25Z</time>
      </trkpt>
      <trkpt lat="45.08619" lon="6.14744">
        <ele>1995.2</ele>
        <time>2024-08-09T11:40:26Z</time>
      </trkpt>
      <trkpt lat="45.08619" lon="6.14744">
        <ele>1995.2</ele>
        <time>2024-08-09T11:40:27Z</time>
      </trkpt>
      <trkpt lat="45.08619" lon="6.14744">
        <ele>1995</ele>
        <time>2024-08-09T11:40:28Z</time>
      </trkpt>
      <trkpt lat="45.08619" lon="6.14744">
        <ele>1995</ele>
        <time>2024-08-09T11:40:29Z</time>
      </trkpt>
      <trkpt lat="45.08619" lon="6.14744">
        <ele>1995</ele>
        <time>2024-08-09T11:40:30Z</time>
      </trkpt>
      <trkpt lat="45.08619" lon="6.14744">
        <ele>1995</ele>
        <time>2024-08-09T11:40:31Z</time>
      </trkpt>
      <trkpt lat="45.08619" lon="6.14744">
        <ele>1995</ele>
        <time>2024-08-09T11:40:32Z</time>
      </trkpt>
      <trkpt lat="45.08619" lon="6.14744">
        <ele>1995.2</ele>
        <time>2024-08-09T11:40:33Z</time>
      </trkpt>
      <trkpt lat="45.08619" lon="6.14744">
        <ele>1995.2</ele>
        <time>2024-08-09T11:40:34Z</time>
      </trkpt>
      <trkpt lat="45.08619" lon="6.14744">
        <ele>1995</ele>
        <time>2024-08-09T11:40:35Z</time>
      </trkpt>
      <trkpt lat="45.08619" lon="6.14744">
        <ele>1995</ele>
        <time>2024-08-09T11:40:36Z</time>
      </trkpt>
      <trkpt lat="45.08619" lon="6.14744">
        <ele>1995</ele>
        <time>2024-08-09T11:40:37Z</time>
      </trkpt>
      <trkpt lat="45.08619" lon="6.14744">
        <ele>1995</ele>
        <time>2024-08-09T11:40:38Z</time>
      </trkpt>
      <trkpt lat="45.08619" lon="6.14744">
        <ele>1995</ele>
        <time>2024-08-09T11:40:39Z</time>
      </trkpt>
      <trkpt lat="45.08619" lon="6.14744">
        <ele>1994.8</ele>
        <time>2024-08-09T11:40:40Z</time>
      </trkpt>
      <trkpt lat="45.08619" lon="6.14744">
        <ele>1994.8</ele>
        <time>2024-08-09T11:40:41Z</time>
      </trkpt>
      <trkpt lat="45.08619" lon="6.14744">
        <ele>1994.8</ele>
        <time>2024-08-09T11:40:42Z</time>
      </trkpt>
      <trkpt lat="45.08619" lon="6.14744">
        <ele>1994.8</ele>
        <time>2024-08-09T11:40:43Z</time>
      </trkpt>
      <trkpt lat="45.08619" lon="6.14744">
        <ele>1994.8</ele>
        <time>2024-08-09T11:40:44Z</time>
      </trkpt>
      <trkpt lat="45.08619" lon="6.14744">
        <ele>1994.8</ele>
        <time>2024-08-09T11:40:45Z</time>
      </trkpt>
      <trkpt lat="45.08619" lon="6.14744">
        <ele>1994.8</ele>
        <time>2024-08-09T11:40:46Z</time>
      </trkpt>
      <trkpt lat="45.08619" lon="6.14744">
        <ele>1994.8</ele>
        <time>2024-08-09T11:40:47Z</time>
      </trkpt>
      <trkpt lat="45.08619" lon="6.14744">
        <ele>1994.8</ele>
        <time>2024-08-09T11:40:48Z</time>
      </trkpt>
      <trkpt lat="45.08619" lon="6.14744">
        <ele>1995</ele>
        <time>2024-08-09T11:40:49Z</time>
      </trkpt>
      <trkpt lat="45.08619" lon="6.14744">
        <ele>1995.2</ele>
        <time>2024-08-09T11:40:50Z</time>
      </trkpt>
      <trkpt lat="45.08619" lon="6.14744">
        <ele>1995.2</ele>
        <time>2024-08-09T11:40:51Z</time>
      </trkpt>
      <trkpt lat="45.08619" lon="6.14744">
        <ele>1995.2</ele>
        <time>2024-08-09T11:40:52Z</time>
      </trkpt>
      <trkpt lat="45.08619" lon="6.14744">
        <ele>1995</ele>
        <time>2024-08-09T11:40:53Z</time>
      </trkpt>
      <trkpt lat="45.08619" lon="6.14744">
        <ele>1995</ele>
        <time>2024-08-09T11:40:54Z</time>
      </trkpt>
      <trkpt lat="45.08619" lon="6.14744">
        <ele>1995</ele>
        <time>2024-08-09T11:40:55Z</time>
      </trkpt>
      <trkpt lat="45.08619" lon="6.14744">
        <ele>1995</ele>
        <time>2024-08-09T11:40:56Z</time>
      </trkpt>
      <trkpt lat="45.08619" lon="6.14744">
        <ele>1995</ele>
        <time>2024-08-09T11:40:57Z</time>
      </trkpt>
      <trkpt lat="45.08619" lon="6.14744">
        <ele>1995</ele>
        <time>2024-08-09T11:40:58Z</time>
      </trkpt>
      <trkpt lat="45.08619" lon="6.14744">
        <ele>1995.2</ele>
        <time>2024-08-09T11:40:59Z</time>
      </trkpt>
      <trkpt lat="45.08619" lon="6.14744">
        <ele>1995.2</ele>
        <time>2024-08-09T11:41:00Z</time>
      </trkpt>
      <trkpt lat="45.08619" lon="6.14744">
        <ele>1995.2</ele>
        <time>2024-08-09T11:41:01Z</time>
      </trkpt>
      <trkpt lat="45.08619" lon="6.14744">
        <ele>1995.2</ele>
        <time>2024-08-09T11:41:02Z</time>
      </trkpt>
      <trkpt lat="45.08619" lon="6.14744">
        <ele>1995.2</ele>
        <time>2024-08-09T11:41:03Z</time>
      </trkpt>
      <trkpt lat="45.08619" lon="6.14744">
        <ele>1995.2</ele>
        <time>2024-08-09T11:41:04Z</time>
      </trkpt>
      <trkpt lat="45.08619" lon="6.14744">
        <ele>1995.2</ele>
        <time>2024-08-09T11:41:05Z</time>
      </trkpt>
      <trkpt lat="45.08619" lon="6.14744">
        <ele>1995.2</ele>
        <time>2024-08-09T11:41:06Z</time>
      </trkpt>
      <trkpt lat="45.08619" lon="6.14744">
        <ele>1995.2</ele>
        <time>2024-08-09T11:41:07Z</time>
      </trkpt>
      <trkpt lat="45.08619" lon="6.14744">
        <ele>1995.2</ele>
        <time>2024-08-09T11:41:08Z</time>
      </trkpt>
      <trkpt lat="45.08619" lon="6.14744">
        <ele>1995.4</ele>
        <time>2024-08-09T11:41:09Z</time>
      </trkpt>
      <trkpt lat="45.08619" lon="6.14744">
        <ele>1995.4</ele>
        <time>2024-08-09T11:41:10Z</time>
      </trkpt>
      <trkpt lat="45.08619" lon="6.14744">
        <ele>1995.4</ele>
        <time>2024-08-09T11:41:11Z</time>
      </trkpt>
      <trkpt lat="45.08619" lon="6.14744">
        <ele>1995.6</ele>
        <time>2024-08-09T11:41:12Z</time>
      </trkpt>
      <trkpt lat="45.08619" lon="6.14744">
        <ele>1995.4</ele>
        <time>2024-08-09T11:41:13Z</time>
      </trkpt>
      <trkpt lat="45.08619" lon="6.14744">
        <ele>1995.4</ele>
        <time>2024-08-09T11:41:14Z</time>
      </trkpt>
      <trkpt lat="45.08619" lon="6.14744">
        <ele>1995.4</ele>
        <time>2024-08-09T11:41:15Z</time>
      </trkpt>
      <trkpt lat="45.08619" lon="6.14744">
        <ele>1995.4</ele>
        <time>2024-08-09T11:41:16Z</time>
      </trkpt>
      <trkpt lat="45.08619" lon="6.14744">
        <ele>1995.4</ele>
        <time>2024-08-09T11:41:17Z</time>
      </trkpt>
      <trkpt lat="45.08619" lon="6.14744">
        <ele>1995.4</ele>
        <time>2024-08-09T11:41:18Z</time>
      </trkpt>
      <trkpt lat="45.08619" lon="6.14744">
        <ele>1995.4</ele>
        <time>2024-08-09T11:41:19Z</time>
      </trkpt>
      <trkpt lat="45.08619" lon="6.14744">
        <ele>1995.6</ele>
        <time>2024-08-09T11:41:20Z</time>
      </trkpt>
      <trkpt lat="45.08619" lon="6.14744">
        <ele>1995.8</ele>
        <time>2024-08-09T11:41:21Z</time>
      </trkpt>
      <trkpt lat="45.08619" lon="6.14744">
        <ele>1995.8</ele>
        <time>2024-08-09T11:41:22Z</time>
      </trkpt>
      <trkpt lat="45.08619" lon="6.14744">
        <ele>1995.8</ele>
        <time>2024-08-09T11:41:23Z</time>
      </trkpt>
      <trkpt lat="45.08619" lon="6.14744">
        <ele>1995.6</ele>
        <time>2024-08-09T11:41:24Z</time>
      </trkpt>
      <trkpt lat="45.08619" lon="6.14744">
        <ele>1995.6</ele>
        <time>2024-08-09T11:41:25Z</time>
      </trkpt>
      <trkpt lat="45.08619" lon="6.14744">
        <ele>1995.6</ele>
        <time>2024-08-09T11:41:26Z</time>
      </trkpt>
      <trkpt lat="45.08619" lon="6.14744">
        <ele>1995.6</ele>
        <time>2024-08-09T11:41:27Z</time>
      </trkpt>
      <trkpt lat="45.08619" lon="6.14744">
        <ele>1995.6</ele>
        <time>2024-08-09T11:41:28Z</time>
      </trkpt>
      <trkpt lat="45.08619" lon="6.14744">
        <ele>1995.6</ele>
        <time>2024-08-09T11:41:29Z</time>
      </trkpt>
      <trkpt lat="45.08619" lon="6.14744">
        <ele>1995.4</ele>
        <time>2024-08-09T11:41:30Z</time>
      </trkpt>
      <trkpt lat="45.08619" lon="6.14744">
        <ele>1995.4</ele>
        <time>2024-08-09T11:41:31Z</time>
      </trkpt>
      <trkpt lat="45.08619" lon="6.14744">
        <ele>1995.2</ele>
        <time>2024-08-09T11:41:32Z</time>
      </trkpt>
      <trkpt lat="45.08619" lon="6.14744">
        <ele>1995.2</ele>
        <time>2024-08-09T11:41:33Z</time>
      </trkpt>
      <trkpt lat="45.08619" lon="6.14744">
        <ele>1995.2</ele>
        <time>2024-08-09T11:41:34Z</time>
      </trkpt>
      <trkpt lat="45.08619" lon="6.14744">
        <ele>1995.2</ele>
        <time>2024-08-09T11:41:35Z</time>
      </trkpt>
      <trkpt lat="45.08619" lon="6.14744">
        <ele>1995.2</ele>
        <time>2024-08-09T11:41:36Z</time>
      </trkpt>
      <trkpt lat="45.08619" lon="6.14744">
        <ele>1995.2</ele>
        <time>2024-08-09T11:41:37Z</time>
      </trkpt>
      <trkpt lat="45.08619" lon="6.14744">
        <ele>1995.4</ele>
        <time>2024-08-09T11:41:38Z</time>
      </trkpt>
      <trkpt lat="45.08619" lon="6.14744">
        <ele>1995.4</ele>
        <time>2024-08-09T11:41:39Z</time>
      </trkpt>
      <trkpt lat="45.08619" lon="6.14744">
        <ele>1995.4</ele>
        <time>2024-08-09T11:41:40Z</time>
      </trkpt>
      <trkpt lat="45.08619" lon="6.14744">
        <ele>1995.4</ele>
        <time>2024-08-09T11:41:41Z</time>
      </trkpt>
      <trkpt lat="45.08619" lon="6.14744">
        <ele>1995.2</ele>
        <time>2024-08-09T11:41:42Z</time>
      </trkpt>
      <trkpt lat="45.08619" lon="6.14744">
        <ele>1995.2</ele>
        <time>2024-08-09T11:41:43Z</time>
      </trkpt>
      <trkpt lat="45.08619" lon="6.14744">
        <ele>1995.2</ele>
        <time>2024-08-09T11:41:44Z</time>
      </trkpt>
      <trkpt lat="45.08619" lon="6.14744">
        <ele>1995.2</ele>
        <time>2024-08-09T11:41:45Z</time>
      </trkpt>
      <trkpt lat="45.08619" lon="6.14744">
        <ele>1995</ele>
        <time>2024-08-09T11:41:46Z</time>
      </trkpt>
      <trkpt lat="45.08619" lon="6.14744">
        <ele>1995</ele>
        <time>2024-08-09T11:41:47Z</time>
      </trkpt>
      <trkpt lat="45.08619" lon="6.14744">
        <ele>1994.8</ele>
        <time>2024-08-09T11:41:48Z</time>
      </trkpt>
      <trkpt lat="45.08619" lon="6.14744">
        <ele>1994.8</ele>
        <time>2024-08-09T11:41:49Z</time>
      </trkpt>
      <trkpt lat="45.08619" lon="6.14744">
        <ele>1994.8</ele>
        <time>2024-08-09T11:41:50Z</time>
      </trkpt>
      <trkpt lat="45.08619" lon="6.14744">
        <ele>1995</ele>
        <time>2024-08-09T11:41:51Z</time>
      </trkpt>
      <trkpt lat="45.08619" lon="6.14744">
        <ele>1995</ele>
        <time>2024-08-09T11:41:52Z</time>
      </trkpt>
      <trkpt lat="45.08619" lon="6.14744">
        <ele>1995.2</ele>
        <time>2024-08-09T11:41:53Z</time>
      </trkpt>
      <trkpt lat="45.08619" lon="6.14744">
        <ele>1995.4</ele>
        <time>2024-08-09T11:41:54Z</time>
      </trkpt>
      <trkpt lat="45.08619" lon="6.14744">
        <ele>1995.4</ele>
        <time>2024-08-09T11:41:55Z</time>
      </trkpt>
      <trkpt lat="45.08619" lon="6.14744">
        <ele>1995.4</ele>
        <time>2024-08-09T11:41:56Z</time>
      </trkpt>
      <trkpt lat="45.08619" lon="6.14744">
        <ele>1995.6</ele>
        <time>2024-08-09T11:41:57Z</time>
      </trkpt>
      <trkpt lat="45.08619" lon="6.14744">
        <ele>1995.6</ele>
        <time>2024-08-09T11:41:58Z</time>
      </trkpt>
      <trkpt lat="45.08619" lon="6.14744">
        <ele>1995.4</ele>
        <time>2024-08-09T11:41:59Z</time>
      </trkpt>
      <trkpt lat="45.08619" lon="6.14744">
        <ele>1995.2</ele>
        <time>2024-08-09T11:42:00Z</time>
      </trkpt>
      <trkpt lat="45.08619" lon="6.14744">
        <ele>1995.2</ele>
        <time>2024-08-09T11:42:01Z</time>
      </trkpt>
      <trkpt lat="45.08619" lon="6.14744">
        <ele>1994.8</ele>
        <time>2024-08-09T11:42:02Z</time>
      </trkpt>
      <trkpt lat="45.08619" lon="6.14744">
        <ele>1994.8</ele>
        <time>2024-08-09T11:42:03Z</time>
      </trkpt>
      <trkpt lat="45.08619" lon="6.14744">
        <ele>1994.8</ele>
        <time>2024-08-09T11:42:04Z</time>
      </trkpt>
      <trkpt lat="45.08619" lon="6.14744">
        <ele>1994.8</ele>
        <time>2024-08-09T11:42:05Z</time>
      </trkpt>
      <trkpt lat="45.08619" lon="6.14744">
        <ele>1994.8</ele>
        <time>2024-08-09T11:42:06Z</time>
      </trkpt>
      <trkpt lat="45.08619" lon="6.14744">
        <ele>1994.8</ele>
        <time>2024-08-09T11:42:07Z</time>
      </trkpt>
      <trkpt lat="45.08619" lon="6.14744">
        <ele>1994.8</ele>
        <time>2024-08-09T11:42:08Z</time>
      </trkpt>
      <trkpt lat="45.08619" lon="6.14744">
        <ele>1995</ele>
        <time>2024-08-09T11:42:09Z</time>
      </trkpt>
      <trkpt lat="45.08619" lon="6.14744">
        <ele>1995</ele>
        <time>2024-08-09T11:42:10Z</time>
      </trkpt>
      <trkpt lat="45.08619" lon="6.14744">
        <ele>1995</ele>
        <time>2024-08-09T11:42:11Z</time>
      </trkpt>
      <trkpt lat="45.08619" lon="6.14744">
        <ele>1995</ele>
        <time>2024-08-09T11:42:12Z</time>
      </trkpt>
      <trkpt lat="45.08619" lon="6.14744">
        <ele>1995</ele>
        <time>2024-08-09T11:42:13Z</time>
      </trkpt>
      <trkpt lat="45.08619" lon="6.14744">
        <ele>1995</ele>
        <time>2024-08-09T11:42:14Z</time>
      </trkpt>
      <trkpt lat="45.08619" lon="6.14744">
        <ele>1995</ele>
        <time>2024-08-09T11:42:15Z</time>
      </trkpt>
      <trkpt lat="45.08619" lon="6.14744">
        <ele>1995</ele>
        <time>2024-08-09T11:42:16Z</time>
      </trkpt>
      <trkpt lat="45.08619" lon="6.14744">
        <ele>1995</ele>
        <time>2024-08-09T11:42:17Z</time>
      </trkpt>
      <trkpt lat="45.08619" lon="6.14744">
        <ele>1994.8</ele>
        <time>2024-08-09T11:42:18Z</time>
      </trkpt>
      <trkpt lat="45.08619" lon="6.14744">
        <ele>1994.8</ele>
        <time>2024-08-09T11:42:19Z</time>
      </trkpt>
      <trkpt lat="45.08619" lon="6.14744">
        <ele>1995</ele>
        <time>2024-08-09T11:42:20Z</time>
      </trkpt>
      <trkpt lat="45.08619" lon="6.14744">
        <ele>1995</ele>
        <time>2024-08-09T11:42:21Z</time>
      </trkpt>
      <trkpt lat="45.08619" lon="6.14744">
        <ele>1994.8</ele>
        <time>2024-08-09T11:42:22Z</time>
      </trkpt>
      <trkpt lat="45.08619" lon="6.14744">
        <ele>1994.8</ele>
        <time>2024-08-09T11:42:23Z</time>
      </trkpt>
      <trkpt lat="45.08619" lon="6.14744">
        <ele>1994.8</ele>
        <time>2024-08-09T11:42:24Z</time>
      </trkpt>
      <trkpt lat="45.08619" lon="6.14744">
        <ele>1994.8</ele>
        <time>2024-08-09T11:42:25Z</time>
      </trkpt>
      <trkpt lat="45.08619" lon="6.14744">
        <ele>1994.8</ele>
        <time>2024-08-09T11:42:26Z</time>
      </trkpt>
      <trkpt lat="45.08619" lon="6.14744">
        <ele>1994.8</ele>
        <time>2024-08-09T11:42:27Z</time>
      </trkpt>
      <trkpt lat="45.08619" lon="6.14744">
        <ele>1995</ele>
        <time>2024-08-09T11:42:28Z</time>
      </trkpt>
      <trkpt lat="45.08619" lon="6.14744">
        <ele>1995</ele>
        <time>2024-08-09T11:42:29Z</time>
      </trkpt>
      <trkpt lat="45.08619" lon="6.14744">
        <ele>1995</ele>
        <time>2024-08-09T11:42:30Z</time>
      </trkpt>
      <trkpt lat="45.08619" lon="6.14744">
        <ele>1994.8</ele>
        <time>2024-08-09T11:42:31Z</time>
      </trkpt>
      <trkpt lat="45.08619" lon="6.14744">
        <ele>1995</ele>
        <time>2024-08-09T11:42:32Z</time>
      </trkpt>
      <trkpt lat="45.08619" lon="6.14744">
        <ele>1995.2</ele>
        <time>2024-08-09T11:42:33Z</time>
      </trkpt>
      <trkpt lat="45.08619" lon="6.14744">
        <ele>1995.2</ele>
        <time>2024-08-09T11:42:34Z</time>
      </trkpt>
      <trkpt lat="45.08619" lon="6.14744">
        <ele>1995.2</ele>
        <time>2024-08-09T11:42:35Z</time>
      </trkpt>
      <trkpt lat="45.08619" lon="6.14744">
        <ele>1995</ele>
        <time>2024-08-09T11:42:36Z</time>
      </trkpt>
      <trkpt lat="45.08619" lon="6.14744">
        <ele>1995</ele>
        <time>2024-08-09T11:42:37Z</time>
      </trkpt>
      <trkpt lat="45.08619" lon="6.14744">
        <ele>1994.8</ele>
        <time>2024-08-09T11:42:38Z</time>
      </trkpt>
      <trkpt lat="45.08619" lon="6.14744">
        <ele>1994.8</ele>
        <time>2024-08-09T11:42:39Z</time>
      </trkpt>
      <trkpt lat="45.08619" lon="6.14744">
        <ele>1995</ele>
        <time>2024-08-09T11:42:40Z</time>
      </trkpt>
      <trkpt lat="45.08619" lon="6.14744">
        <ele>1995</ele>
        <time>2024-08-09T11:42:41Z</time>
      </trkpt>
      <trkpt lat="45.08619" lon="6.14744">
        <ele>1995</ele>
        <time>2024-08-09T11:42:42Z</time>
      </trkpt>
      <trkpt lat="45.08619" lon="6.14744">
        <ele>1994.8</ele>
        <time>2024-08-09T11:42:43Z</time>
      </trkpt>
      <trkpt lat="45.08619" lon="6.14744">
        <ele>1994.8</ele>
        <time>2024-08-09T11:42:44Z</time>
      </trkpt>
      <trkpt lat="45.08619" lon="6.14744">
        <ele>1994.8</ele>
        <time>2024-08-09T11:42:45Z</time>
      </trkpt>
      <trkpt lat="45.08619" lon="6.14744">
        <ele>1994.8</ele>
        <time>2024-08-09T11:42:46Z</time>
      </trkpt>
      <trkpt lat="45.08619" lon="6.14744">
        <ele>1994.8</ele>
        <time>2024-08-09T11:42:47Z</time>
      </trkpt>
      <trkpt lat="45.08619" lon="6.14744">
        <ele>1994.8</ele>
        <time>2024-08-09T11:42:48Z</time>
      </trkpt>
      <trkpt lat="45.08619" lon="6.14744">
        <ele>1994.6</ele>
        <time>2024-08-09T11:42:49Z</time>
      </trkpt>
      <trkpt lat="45.08619" lon="6.14744">
        <ele>1994.6</ele>
        <time>2024-08-09T11:42:50Z</time>
      </trkpt>
      <trkpt lat="45.08619" lon="6.14744">
        <ele>1995</ele>
        <time>2024-08-09T11:42:51Z</time>
      </trkpt>
      <trkpt lat="45.08619" lon="6.14744">
        <ele>1995</ele>
        <time>2024-08-09T11:42:52Z</time>
      </trkpt>
      <trkpt lat="45.08619" lon="6.14744">
        <ele>1995</ele>
        <time>2024-08-09T11:42:53Z</time>
      </trkpt>
      <trkpt lat="45.08619" lon="6.14744">
        <ele>1995</ele>
        <time>2024-08-09T11:42:54Z</time>
      </trkpt>
      <trkpt lat="45.08619" lon="6.14744">
        <ele>1995</ele>
        <time>2024-08-09T11:42:55Z</time>
      </trkpt>
      <trkpt lat="45.08619" lon="6.14744">
        <ele>1995</ele>
        <time>2024-08-09T11:42:56Z</time>
      </trkpt>
      <trkpt lat="45.08619" lon="6.14744">
        <ele>1994.8</ele>
        <time>2024-08-09T11:42:57Z</time>
      </trkpt>
      <trkpt lat="45.08619" lon="6.14744">
        <ele>1994.6</ele>
        <time>2024-08-09T11:42:58Z</time>
      </trkpt>
      <trkpt lat="45.08619" lon="6.14744">
        <ele>1994.6</ele>
        <time>2024-08-09T11:42:59Z</time>
      </trkpt>
      <trkpt lat="45.08619" lon="6.14744">
        <ele>1994.8</ele>
        <time>2024-08-09T11:43:00Z</time>
      </trkpt>
      <trkpt lat="45.08619" lon="6.14744">
        <ele>1994.8</ele>
        <time>2024-08-09T11:43:01Z</time>
      </trkpt>
      <trkpt lat="45.08619" lon="6.14744">
        <ele>1994.6</ele>
        <time>2024-08-09T11:43:02Z</time>
      </trkpt>
      <trkpt lat="45.08619" lon="6.14744">
        <ele>1994.6</ele>
        <time>2024-08-09T11:43:03Z</time>
      </trkpt>
      <trkpt lat="45.08619" lon="6.14744">
        <ele>1994.8</ele>
        <time>2024-08-09T11:43:04Z</time>
      </trkpt>
      <trkpt lat="45.08619" lon="6.14744">
        <ele>1994.8</ele>
        <time>2024-08-09T11:43:05Z</time>
      </trkpt>
      <trkpt lat="45.08619" lon="6.14744">
        <ele>1994.8</ele>
        <time>2024-08-09T11:43:06Z</time>
      </trkpt>
      <trkpt lat="45.08619" lon="6.14744">
        <ele>1994.8</ele>
        <time>2024-08-09T11:43:07Z</time>
      </trkpt>
      <trkpt lat="45.08619" lon="6.14744">
        <ele>1994.8</ele>
        <time>2024-08-09T11:43:08Z</time>
      </trkpt>
      <trkpt lat="45.08619" lon="6.14744">
        <ele>1995</ele>
        <time>2024-08-09T11:43:09Z</time>
      </trkpt>
      <trkpt lat="45.08619" lon="6.14744">
        <ele>1995</ele>
        <time>2024-08-09T11:43:10Z</time>
      </trkpt>
      <trkpt lat="45.08619" lon="6.14744">
        <ele>1994.8</ele>
        <time>2024-08-09T11:43:11Z</time>
      </trkpt>
      <trkpt lat="45.08619" lon="6.14744">
        <ele>1994.8</ele>
        <time>2024-08-09T11:43:12Z</time>
      </trkpt>
      <trkpt lat="45.08619" lon="6.14744">
        <ele>1994.8</ele>
        <time>2024-08-09T11:43:13Z</time>
      </trkpt>
      <trkpt lat="45.08619" lon="6.14744">
        <ele>1994.6</ele>
        <time>2024-08-09T11:43:14Z</time>
      </trkpt>
      <trkpt lat="45.08619" lon="6.14744">
        <ele>1994.6</ele>
        <time>2024-08-09T11:43:15Z</time>
      </trkpt>
      <trkpt lat="45.08619" lon="6.14744">
        <ele>1994.6</ele>
        <time>2024-08-09T11:43:16Z</time>
      </trkpt>
      <trkpt lat="45.08619" lon="6.14744">
        <ele>1994.6</ele>
        <time>2024-08-09T11:43:17Z</time>
      </trkpt>
      <trkpt lat="45.08619" lon="6.14744">
        <ele>1994.6</ele>
        <time>2024-08-09T11:43:18Z</time>
      </trkpt>
      <trkpt lat="45.08619" lon="6.14744">
        <ele>1994.6</ele>
        <time>2024-08-09T11:43:19Z</time>
      </trkpt>
      <trkpt lat="45.08619" lon="6.14744">
        <ele>1994.6</ele>
        <time>2024-08-09T11:43:20Z</time>
      </trkpt>
      <trkpt lat="45.08619" lon="6.14744">
        <ele>1994.6</ele>
        <time>2024-08-09T11:43:21Z</time>
      </trkpt>
      <trkpt lat="45.08619" lon="6.14744">
        <ele>1994.6</ele>
        <time>2024-08-09T11:43:22Z</time>
      </trkpt>
      <trkpt lat="45.08619" lon="6.14744">
        <ele>1994.8</ele>
        <time>2024-08-09T11:43:23Z</time>
      </trkpt>
      <trkpt lat="45.08619" lon="6.14744">
        <ele>1994.8</ele>
        <time>2024-08-09T11:43:24Z</time>
      </trkpt>
      <trkpt lat="45.08619" lon="6.14744">
        <ele>1994.6</ele>
        <time>2024-08-09T11:43:25Z</time>
      </trkpt>
      <trkpt lat="45.08619" lon="6.14744">
        <ele>1994.6</ele>
        <time>2024-08-09T11:43:26Z</time>
      </trkpt>
      <trkpt lat="45.08619" lon="6.14744">
        <ele>1994.4</ele>
        <time>2024-08-09T11:43:27Z</time>
      </trkpt>
      <trkpt lat="45.08619" lon="6.14744">
        <ele>1994.4</ele>
        <time>2024-08-09T11:43:28Z</time>
      </trkpt>
      <trkpt lat="45.08619" lon="6.14744">
        <ele>1994.4</ele>
        <time>2024-08-09T11:43:29Z</time>
      </trkpt>
      <trkpt lat="45.08619" lon="6.14744">
        <ele>1994.6</ele>
        <time>2024-08-09T11:43:30Z</time>
      </trkpt>
      <trkpt lat="45.08619" lon="6.14744">
        <ele>1994.6</ele>
        <time>2024-08-09T11:43:31Z</time>
      </trkpt>
      <trkpt lat="45.08619" lon="6.14744">
        <ele>1994.6</ele>
        <time>2024-08-09T11:43:32Z</time>
      </trkpt>
      <trkpt lat="45.08619" lon="6.14744">
        <ele>1994.6</ele>
        <time>2024-08-09T11:43:33Z</time>
      </trkpt>
      <trkpt lat="45.08619" lon="6.14744">
        <ele>1994.8</ele>
        <time>2024-08-09T11:43:34Z</time>
      </trkpt>
      <trkpt lat="45.08619" lon="6.14744">
        <ele>1994.8</ele>
        <time>2024-08-09T11:43:35Z</time>
      </trkpt>
      <trkpt lat="45.08619" lon="6.14744">
        <ele>1994.6</ele>
        <time>2024-08-09T11:43:36Z</time>
      </trkpt>
      <trkpt lat="45.08619" lon="6.14744">
        <ele>1994.8</ele>
        <time>2024-08-09T11:43:37Z</time>
      </trkpt>
      <trkpt lat="45.08619" lon="6.14744">
        <ele>1994.8</ele>
        <time>2024-08-09T11:43:38Z</time>
      </trkpt>
      <trkpt lat="45.08619" lon="6.14744">
        <ele>1994.8</ele>
        <time>2024-08-09T11:43:39Z</time>
      </trkpt>
      <trkpt lat="45.08619" lon="6.14744">
        <ele>1994.8</ele>
        <time>2024-08-09T11:43:40Z</time>
      </trkpt>
      <trkpt lat="45.08619" lon="6.14744">
        <ele>1994.8</ele>
        <time>2024-08-09T11:43:41Z</time>
      </trkpt>
      <trkpt lat="45.08619" lon="6.14744">
        <ele>1995</ele>
        <time>2024-08-09T11:43:42Z</time>
      </trkpt>
      <trkpt lat="45.08619" lon="6.14744">
        <ele>1995</ele>
        <time>2024-08-09T11:43:43Z</time>
      </trkpt>
      <trkpt lat="45.08619" lon="6.14744">
        <ele>1994.8</ele>
        <time>2024-08-09T11:43:44Z</time>
      </trkpt>
      <trkpt lat="45.08619" lon="6.14744">
        <ele>1994.8</ele>
        <time>2024-08-09T11:43:45Z</time>
      </trkpt>
      <trkpt lat="45.08619" lon="6.14744">
        <ele>1994.8</ele>
        <time>2024-08-09T11:43:46Z</time>
      </trkpt>
      <trkpt lat="45.08619" lon="6.14744">
        <ele>1995</ele>
        <time>2024-08-09T11:43:47Z</time>
      </trkpt>
      <trkpt lat="45.08619" lon="6.14744">
        <ele>1995</ele>
        <time>2024-08-09T11:43:48Z</time>
      </trkpt>
      <trkpt lat="45.08619" lon="6.14744">
        <ele>1995</ele>
        <time>2024-08-09T11:43:49Z</time>
      </trkpt>
      <trkpt lat="45.08619" lon="6.14744">
        <ele>1995</ele>
        <time>2024-08-09T11:43:50Z</time>
      </trkpt>
      <trkpt lat="45.08619" lon="6.14744">
        <ele>1995</ele>
        <time>2024-08-09T11:43:51Z</time>
      </trkpt>
      <trkpt lat="45.08619" lon="6.14744">
        <ele>1994.8</ele>
        <time>2024-08-09T11:43:52Z</time>
      </trkpt>
      <trkpt lat="45.08619" lon="6.14744">
        <ele>1994.8</ele>
        <time>2024-08-09T11:43:53Z</time>
      </trkpt>
      <trkpt lat="45.08619" lon="6.14744">
        <ele>1994.8</ele>
        <time>2024-08-09T11:43:54Z</time>
      </trkpt>
      <trkpt lat="45.08619" lon="6.14744">
        <ele>1994.8</ele>
        <time>2024-08-09T11:43:55Z</time>
      </trkpt>
      <trkpt lat="45.08619" lon="6.14744">
        <ele>1994.8</ele>
        <time>2024-08-09T11:43:56Z</time>
      </trkpt>
      <trkpt lat="45.08619" lon="6.14744">
        <ele>1994.8</ele>
        <time>2024-08-09T11:43:57Z</time>
      </trkpt>
      <trkpt lat="45.08619" lon="6.14744">
        <ele>1994.8</ele>
        <time>2024-08-09T11:43:58Z</time>
      </trkpt>
      <trkpt lat="45.08619" lon="6.14744">
        <ele>1994.8</ele>
        <time>2024-08-09T11:43:59Z</time>
      </trkpt>
      <trkpt lat="45.08619" lon="6.14744">
        <ele>1994.8</ele>
        <time>2024-08-09T11:44:00Z</time>
      </trkpt>
      <trkpt lat="45.08619" lon="6.14744">
        <ele>1994.8</ele>
        <time>2024-08-09T11:44:01Z</time>
      </trkpt>
      <trkpt lat="45.08619" lon="6.14744">
        <ele>1995</ele>
        <time>2024-08-09T11:44:02Z</time>
      </trkpt>
      <trkpt lat="45.08619" lon="6.14744">
        <ele>1995</ele>
        <time>2024-08-09T11:44:03Z</time>
      </trkpt>
      <trkpt lat="45.08619" lon="6.14744">
        <ele>1995</ele>
        <time>2024-08-09T11:44:04Z</time>
      </trkpt>
      <trkpt lat="45.08619" lon="6.14744">
        <ele>1994.8</ele>
        <time>2024-08-09T11:44:05Z</time>
      </trkpt>
      <trkpt lat="45.08619" lon="6.14744">
        <ele>1994.8</ele>
        <time>2024-08-09T11:44:06Z</time>
      </trkpt>
      <trkpt lat="45.08619" lon="6.14744">
        <ele>1994.8</ele>
        <time>2024-08-09T11:44:07Z</time>
      </trkpt>
      <trkpt lat="45.08619" lon="6.14744">
        <ele>1994.8</ele>
        <time>2024-08-09T11:44:08Z</time>
      </trkpt>
      <trkpt lat="45.08619" lon="6.14744">
        <ele>1994.8</ele>
        <time>2024-08-09T11:44:09Z</time>
      </trkpt>
      <trkpt lat="45.08619" lon="6.14744">
        <ele>1994.8</ele>
        <time>2024-08-09T11:44:10Z</time>
      </trkpt>
      <trkpt lat="45.08619" lon="6.14744">
        <ele>1994.8</ele>
        <time>2024-08-09T11:44:11Z</time>
      </trkpt>
      <trkpt lat="45.08619" lon="6.14744">
        <ele>1995</ele>
        <time>2024-08-09T11:44:12Z</time>
      </trkpt>
      <trkpt lat="45.08619" lon="6.14744">
        <ele>1995</ele>
        <time>2024-08-09T11:44:13Z</time>
      </trkpt>
      <trkpt lat="45.08619" lon="6.14744">
        <ele>1994.8</ele>
        <time>2024-08-09T11:44:14Z</time>
      </trkpt>
      <trkpt lat="45.08619" lon="6.14744">
        <ele>1994.8</ele>
        <time>2024-08-09T11:44:15Z</time>
      </trkpt>
      <trkpt lat="45.08619" lon="6.14744">
        <ele>1994.8</ele>
        <time>2024-08-09T11:44:16Z</time>
      </trkpt>
      <trkpt lat="45.08619" lon="6.14744">
        <ele>1994.8</ele>
        <time>2024-08-09T11:44:17Z</time>
      </trkpt>
      <trkpt lat="45.08619" lon="6.14744">
        <ele>1994.8</ele>
        <time>2024-08-09T11:44:18Z</time>
      </trkpt>
      <trkpt lat="45.08619" lon="6.14744">
        <ele>1994.8</ele>
        <time>2024-08-09T11:44:19Z</time>
      </trkpt>
      <trkpt lat="45.08619" lon="6.14744">
        <ele>1995</ele>
        <time>2024-08-09T11:44:20Z</time>
      </trkpt>
      <trkpt lat="45.08619" lon="6.14744">
        <ele>1995</ele>
        <time>2024-08-09T11:44:21Z</time>
      </trkpt>
      <trkpt lat="45.08619" lon="6.14744">
        <ele>1995</ele>
        <time>2024-08-09T11:44:22Z</time>
      </trkpt>
      <trkpt lat="45.08619" lon="6.14744">
        <ele>1995</ele>
        <time>2024-08-09T11:44:23Z</time>
      </trkpt>
      <trkpt lat="45.08619" lon="6.14744">
        <ele>1995</ele>
        <time>2024-08-09T11:44:24Z</time>
      </trkpt>
      <trkpt lat="45.08619" lon="6.14744">
        <ele>1995</ele>
        <time>2024-08-09T11:44:25Z</time>
      </trkpt>
      <trkpt lat="45.08619" lon="6.14744">
        <ele>1995</ele>
        <time>2024-08-09T11:44:26Z</time>
      </trkpt>
      <trkpt lat="45.08619" lon="6.14744">
        <ele>1995</ele>
        <time>2024-08-09T11:44:27Z</time>
      </trkpt>
      <trkpt lat="45.08619" lon="6.14744">
        <ele>1995</ele>
        <time>2024-08-09T11:44:28Z</time>
      </trkpt>
      <trkpt lat="45.08619" lon="6.14744">
        <ele>1995</ele>
        <time>2024-08-09T11:44:29Z</time>
      </trkpt>
      <trkpt lat="45.08619" lon="6.14744">
        <ele>1995.2</ele>
        <time>2024-08-09T11:44:30Z</time>
      </trkpt>
      <trkpt lat="45.08619" lon="6.14744">
        <ele>1995.4</ele>
        <time>2024-08-09T11:44:31Z</time>
      </trkpt>
      <trkpt lat="45.08619" lon="6.14744">
        <ele>1995.4</ele>
        <time>2024-08-09T11:44:32Z</time>
      </trkpt>
      <trkpt lat="45.08619" lon="6.14744">
        <ele>1995.4</ele>
        <time>2024-08-09T11:44:33Z</time>
      </trkpt>
      <trkpt lat="45.08619" lon="6.14744">
        <ele>1995.4</ele>
        <time>2024-08-09T11:44:34Z</time>
      </trkpt>
      <trkpt lat="45.08619" lon="6.14744">
        <ele>1995.4</ele>
        <time>2024-08-09T11:44:35Z</time>
      </trkpt>
      <trkpt lat="45.08619" lon="6.14744">
        <ele>1995.4</ele>
        <time>2024-08-09T11:44:36Z</time>
      </trkpt>
      <trkpt lat="45.08619" lon="6.14744">
        <ele>1995.6</ele>
        <time>2024-08-09T11:44:37Z</time>
      </trkpt>
      <trkpt lat="45.08619" lon="6.14744">
        <ele>1995.6</ele>
        <time>2024-08-09T11:44:38Z</time>
      </trkpt>
      <trkpt lat="45.08619" lon="6.14744">
        <ele>1995.6</ele>
        <time>2024-08-09T11:44:39Z</time>
      </trkpt>
      <trkpt lat="45.08619" lon="6.14744">
        <ele>1995.6</ele>
        <time>2024-08-09T11:44:40Z</time>
      </trkpt>
      <trkpt lat="45.08619" lon="6.14744">
        <ele>1995.2</ele>
        <time>2024-08-09T11:44:41Z</time>
      </trkpt>
      <trkpt lat="45.08619" lon="6.14744">
        <ele>1995.2</ele>
        <time>2024-08-09T11:44:42Z</time>
      </trkpt>
      <trkpt lat="45.08619" lon="6.14744">
        <ele>1995.2</ele>
        <time>2024-08-09T11:44:43Z</time>
      </trkpt>
      <trkpt lat="45.08619" lon="6.14744">
        <ele>1995.2</ele>
        <time>2024-08-09T11:44:44Z</time>
      </trkpt>
      <trkpt lat="45.08619" lon="6.14744">
        <ele>1995.2</ele>
        <time>2024-08-09T11:44:45Z</time>
      </trkpt>
      <trkpt lat="45.08619" lon="6.14744">
        <ele>1995</ele>
        <time>2024-08-09T11:44:46Z</time>
      </trkpt>
      <trkpt lat="45.08619" lon="6.14744">
        <ele>1995</ele>
        <time>2024-08-09T11:44:47Z</time>
      </trkpt>
      <trkpt lat="45.08619" lon="6.14744">
        <ele>1995.2</ele>
        <time>2024-08-09T11:44:48Z</time>
      </trkpt>
      <trkpt lat="45.08619" lon="6.14744">
        <ele>1995.2</ele>
        <time>2024-08-09T11:44:49Z</time>
      </trkpt>
      <trkpt lat="45.08619" lon="6.14744">
        <ele>1995</ele>
        <time>2024-08-09T11:44:50Z</time>
      </trkpt>
      <trkpt lat="45.08619" lon="6.14744">
        <ele>1995</ele>
        <time>2024-08-09T11:44:51Z</time>
      </trkpt>
      <trkpt lat="45.08619" lon="6.14744">
        <ele>1995</ele>
        <time>2024-08-09T11:44:52Z</time>
      </trkpt>
      <trkpt lat="45.08619" lon="6.14744">
        <ele>1995</ele>
        <time>2024-08-09T11:44:53Z</time>
      </trkpt>
      <trkpt lat="45.08619" lon="6.14744">
        <ele>1995</ele>
        <time>2024-08-09T11:44:54Z</time>
      </trkpt>
      <trkpt lat="45.08619" lon="6.14744">
        <ele>1995</ele>
        <time>2024-08-09T11:44:55Z</time>
      </trkpt>
      <trkpt lat="45.08619" lon="6.14744">
        <ele>1995.4</ele>
        <time>2024-08-09T11:44:56Z</time>
      </trkpt>
      <trkpt lat="45.08619" lon="6.14744">
        <ele>1995.4</ele>
        <time>2024-08-09T11:44:57Z</time>
      </trkpt>
      <trkpt lat="45.08619" lon="6.14744">
        <ele>1995.4</ele>
        <time>2024-08-09T11:44:58Z</time>
      </trkpt>
      <trkpt lat="45.08619" lon="6.14744">
        <ele>1995</ele>
        <time>2024-08-09T11:44:59Z</time>
      </trkpt>
      <trkpt lat="45.08619" lon="6.14744">
        <ele>1995</ele>
        <time>2024-08-09T11:45:00Z</time>
      </trkpt>
      <trkpt lat="45.08619" lon="6.14744">
        <ele>1995.4</ele>
        <time>2024-08-09T11:45:01Z</time>
      </trkpt>
      <trkpt lat="45.08619" lon="6.14744">
        <ele>1995.4</ele>
        <time>2024-08-09T11:45:02Z</time>
      </trkpt>
      <trkpt lat="45.08619" lon="6.14744">
        <ele>1995.4</ele>
        <time>2024-08-09T11:45:03Z</time>
      </trkpt>
      <trkpt lat="45.08619" lon="6.14744">
        <ele>1995.2</ele>
        <time>2024-08-09T11:45:04Z</time>
      </trkpt>
      <trkpt lat="45.08619" lon="6.14744">
        <ele>1995.2</ele>
        <time>2024-08-09T11:45:05Z</time>
      </trkpt>
      <trkpt lat="45.08619" lon="6.14744">
        <ele>1995.2</ele>
        <time>2024-08-09T11:45:06Z</time>
      </trkpt>
      <trkpt lat="45.08619" lon="6.14744">
        <ele>1995.2</ele>
        <time>2024-08-09T11:45:07Z</time>
      </trkpt>
      <trkpt lat="45.08619" lon="6.14744">
        <ele>1995.2</ele>
        <time>2024-08-09T11:45:08Z</time>
      </trkpt>
      <trkpt lat="45.08619" lon="6.14744">
        <ele>1995</ele>
        <time>2024-08-09T11:45:09Z</time>
      </trkpt>
      <trkpt lat="45.08619" lon="6.14744">
        <ele>1995</ele>
        <time>2024-08-09T11:45:10Z</time>
      </trkpt>
      <trkpt lat="45.08619" lon="6.14744">
        <ele>1994.8</ele>
        <time>2024-08-09T11:45:11Z</time>
      </trkpt>
      <trkpt lat="45.08619" lon="6.14744">
        <ele>1994.8</ele>
        <time>2024-08-09T11:45:12Z</time>
      </trkpt>
      <trkpt lat="45.08619" lon="6.14744">
        <ele>1994.8</ele>
        <time>2024-08-09T11:45:13Z</time>
      </trkpt>
      <trkpt lat="45.08619" lon="6.14744">
        <ele>1994.8</ele>
        <time>2024-08-09T11:45:14Z</time>
      </trkpt>
      <trkpt lat="45.08619" lon="6.14744">
        <ele>1994.8</ele>
        <time>2024-08-09T11:45:15Z</time>
      </trkpt>
      <trkpt lat="45.08619" lon="6.14744">
        <ele>1995</ele>
        <time>2024-08-09T11:45:16Z</time>
      </trkpt>
      <trkpt lat="45.08619" lon="6.14744">
        <ele>1995</ele>
        <time>2024-08-09T11:45:17Z</time>
      </trkpt>
      <trkpt lat="45.08619" lon="6.14744">
        <ele>1994.8</ele>
        <time>2024-08-09T11:45:18Z</time>
      </trkpt>
      <trkpt lat="45.08619" lon="6.14744">
        <ele>1994.8</ele>
        <time>2024-08-09T11:45:19Z</time>
      </trkpt>
      <trkpt lat="45.08619" lon="6.14744">
        <ele>1994.8</ele>
        <time>2024-08-09T11:45:20Z</time>
      </trkpt>
      <trkpt lat="45.08619" lon="6.14744">
        <ele>1994.8</ele>
        <time>2024-08-09T11:45:21Z</time>
      </trkpt>
      <trkpt lat="45.08619" lon="6.14744">
        <ele>1994.8</ele>
        <time>2024-08-09T11:45:22Z</time>
      </trkpt>
      <trkpt lat="45.08619" lon="6.14744">
        <ele>1994.8</ele>
        <time>2024-08-09T11:45:23Z</time>
      </trkpt>
      <trkpt lat="45.08619" lon="6.14744">
        <ele>1994.8</ele>
        <time>2024-08-09T11:45:24Z</time>
      </trkpt>
      <trkpt lat="45.08619" lon="6.14744">
        <ele>1995</ele>
        <time>2024-08-09T11:45:25Z</time>
      </trkpt>
      <trkpt lat="45.08619" lon="6.14744">
        <ele>1995</ele>
        <time>2024-08-09T11:45:26Z</time>
      </trkpt>
      <trkpt lat="45.08619" lon="6.14744">
        <ele>1995</ele>
        <time>2024-08-09T11:45:27Z</time>
      </trkpt>
      <trkpt lat="45.08619" lon="6.14744">
        <ele>1995</ele>
        <time>2024-08-09T11:45:28Z</time>
      </trkpt>
      <trkpt lat="45.08619" lon="6.14744">
        <ele>1995</ele>
        <time>2024-08-09T11:45:29Z</time>
      </trkpt>
      <trkpt lat="45.08619" lon="6.14744">
        <ele>1995</ele>
        <time>2024-08-09T11:45:30Z</time>
      </trkpt>
      <trkpt lat="45.08619" lon="6.14744">
        <ele>1995</ele>
        <time>2024-08-09T11:45:31Z</time>
      </trkpt>
      <trkpt lat="45.08619" lon="6.14744">
        <ele>1995</ele>
        <time>2024-08-09T11:45:32Z</time>
      </trkpt>
      <trkpt lat="45.08619" lon="6.14744">
        <ele>1995</ele>
        <time>2024-08-09T11:45:33Z</time>
      </trkpt>
      <trkpt lat="45.08619" lon="6.14744">
        <ele>1995</ele>
        <time>2024-08-09T11:45:34Z</time>
      </trkpt>
      <trkpt lat="45.08619" lon="6.14744">
        <ele>1995</ele>
        <time>2024-08-09T11:45:35Z</time>
      </trkpt>
      <trkpt lat="45.08619" lon="6.14744">
        <ele>1995</ele>
        <time>2024-08-09T11:45:36Z</time>
      </trkpt>
      <trkpt lat="45.08619" lon="6.14744">
        <ele>1995</ele>
        <time>2024-08-09T11:45:37Z</time>
      </trkpt>
      <trkpt lat="45.08619" lon="6.14744">
        <ele>1995</ele>
        <time>2024-08-09T11:45:38Z</time>
      </trkpt>
      <trkpt lat="45.08619" lon="6.14744">
        <ele>1995.2</ele>
        <time>2024-08-09T11:45:39Z</time>
      </trkpt>
      <trkpt lat="45.08619" lon="6.14744">
        <ele>1995.2</ele>
        <time>2024-08-09T11:45:40Z</time>
      </trkpt>
      <trkpt lat="45.08619" lon="6.14744">
        <ele>1995</ele>
        <time>2024-08-09T11:45:41Z</time>
      </trkpt>
      <trkpt lat="45.08619" lon="6.14744">
        <ele>1994.8</ele>
        <time>2024-08-09T11:45:42Z</time>
      </trkpt>
      <trkpt lat="45.08617" lon="6.14748">
        <ele>1994.8</ele>
        <time>2024-08-09T11:45:43Z</time>
      </trkpt>
      <trkpt lat="45.08617" lon="6.14748">
        <ele>1994.8</ele>
        <time>2024-08-09T11:45:44Z</time>
      </trkpt>
      <trkpt lat="45.08615" lon="6.14752">
        <ele>1994.8</ele>
        <time>2024-08-09T11:45:45Z</time>
      </trkpt>
      <trkpt lat="45.08615" lon="6.14752">
        <ele>1994.4</ele>
        <time>2024-08-09T11:45:46Z</time>
      </trkpt>
      <trkpt lat="45.08614" lon="6.14756">
        <ele>1994.4</ele>
        <time>2024-08-09T11:45:47Z</time>
      </trkpt>
      <trkpt lat="45.08614" lon="6.14756">
        <ele>1994.4</ele>
        <time>2024-08-09T11:45:48Z</time>
      </trkpt>
      <trkpt lat="45.08613" lon="6.14759">
        <ele>1994.4</ele>
        <time>2024-08-09T11:45:49Z</time>
      </trkpt>
      <trkpt lat="45.08613" lon="6.14759">
        <ele>1994.4</ele>
        <time>2024-08-09T11:45:50Z</time>
      </trkpt>
      <trkpt lat="45.08613" lon="6.14763">
        <ele>1994.2</ele>
        <time>2024-08-09T11:45:51Z</time>
      </trkpt>
      <trkpt lat="45.08613" lon="6.14763">
        <ele>1994.2</ele>
        <time>2024-08-09T11:45:52Z</time>
      </trkpt>
      <trkpt lat="45.08612" lon="6.14766">
        <ele>1994.4</ele>
        <time>2024-08-09T11:45:53Z</time>
      </trkpt>
      <trkpt lat="45.08612" lon="6.14766">
        <ele>1994.4</ele>
        <time>2024-08-09T11:45:54Z</time>
      </trkpt>
      <trkpt lat="45.08611" lon="6.14769">
        <ele>1994.2</ele>
        <time>2024-08-09T11:45:55Z</time>
      </trkpt>
      <trkpt lat="45.08611" lon="6.14769">
        <ele>1994.2</ele>
        <time>2024-08-09T11:45:56Z</time>
      </trkpt>
      <trkpt lat="45.0861" lon="6.14772">
        <ele>1994.2</ele>
        <time>2024-08-09T11:45:57Z</time>
      </trkpt>
      <trkpt lat="45.0861" lon="6.14772">
        <ele>1994.2</ele>
        <time>2024-08-09T11:45:58Z</time>
      </trkpt>
      <trkpt lat="45.0861" lon="6.14775">
        <ele>1994.6</ele>
        <time>2024-08-09T11:45:59Z</time>
      </trkpt>
      <trkpt lat="45.0861" lon="6.14775">
        <ele>1994.6</ele>
        <time>2024-08-09T11:46:00Z</time>
      </trkpt>
      <trkpt lat="45.08609" lon="6.14779">
        <ele>1994.6</ele>
        <time>2024-08-09T11:46:01Z</time>
      </trkpt>
      <trkpt lat="45.08609" lon="6.14779">
        <ele>1994.8</ele>
        <time>2024-08-09T11:46:02Z</time>
      </trkpt>
      <trkpt lat="45.08608" lon="6.14783">
        <ele>1994.8</ele>
        <time>2024-08-09T11:46:03Z</time>
      </trkpt>
      <trkpt lat="45.08608" lon="6.14783">
        <ele>1994.8</ele>
        <time>2024-08-09T11:46:04Z</time>
      </trkpt>
      <trkpt lat="45.08607" lon="6.14786">
        <ele>1995</ele>
        <time>2024-08-09T11:46:05Z</time>
      </trkpt>
      <trkpt lat="45.08607" lon="6.14786">
        <ele>1995.4</ele>
        <time>2024-08-09T11:46:06Z</time>
      </trkpt>
      <trkpt lat="45.08606" lon="6.14789">
        <ele>1995.4</ele>
        <time>2024-08-09T11:46:07Z</time>
      </trkpt>
      <trkpt lat="45.08606" lon="6.14789">
        <ele>1995.4</ele>
        <time>2024-08-09T11:46:08Z</time>
      </trkpt>
      <trkpt lat="45.08605" lon="6.14793">
        <ele>1995.4</ele>
        <time>2024-08-09T11:46:09Z</time>
      </trkpt>
      <trkpt lat="45.08605" lon="6.14793">
        <ele>1995.8</ele>
        <time>2024-08-09T11:46:10Z</time>
      </trkpt>
      <trkpt lat="45.08604" lon="6.14796">
        <ele>1995.8</ele>
        <time>2024-08-09T11:46:11Z</time>
      </trkpt>
      <trkpt lat="45.08604" lon="6.14796">
        <ele>1995.8</ele>
        <time>2024-08-09T11:46:12Z</time>
      </trkpt>
      <trkpt lat="45.08603" lon="6.148">
        <ele>1996</ele>
        <time>2024-08-09T11:46:13Z</time>
      </trkpt>
      <trkpt lat="45.08603" lon="6.148">
        <ele>1996</ele>
        <time>2024-08-09T11:46:14Z</time>
      </trkpt>
      <trkpt lat="45.08603" lon="6.14803">
        <ele>1996.2</ele>
        <time>2024-08-09T11:46:15Z</time>
      </trkpt>
      <trkpt lat="45.08603" lon="6.14803">
        <ele>1996.6</ele>
        <time>2024-08-09T11:46:16Z</time>
      </trkpt>
      <trkpt lat="45.08603" lon="6.14806">
        <ele>1997</ele>
        <time>2024-08-09T11:46:17Z</time>
      </trkpt>
      <trkpt lat="45.08603" lon="6.14806">
        <ele>1997</ele>
        <time>2024-08-09T11:46:18Z</time>
      </trkpt>
      <trkpt lat="45.08604" lon="6.14808">
        <ele>1997</ele>
        <time>2024-08-09T11:46:19Z</time>
      </trkpt>
      <trkpt lat="45.08604" lon="6.14808">
        <ele>1996.6</ele>
        <time>2024-08-09T11:46:20Z</time>
      </trkpt>
      <trkpt lat="45.08606" lon="6.14811">
        <ele>1996.6</ele>
        <time>2024-08-09T11:46:21Z</time>
      </trkpt>
      <trkpt lat="45.08606" lon="6.14811">
        <ele>1996.8</ele>
        <time>2024-08-09T11:46:22Z</time>
      </trkpt>
      <trkpt lat="45.08608" lon="6.14813">
        <ele>1996.8</ele>
        <time>2024-08-09T11:46:23Z</time>
      </trkpt>
      <trkpt lat="45.08608" lon="6.14813">
        <ele>1997</ele>
        <time>2024-08-09T11:46:24Z</time>
      </trkpt>
      <trkpt lat="45.0861" lon="6.14816">
        <ele>1997</ele>
        <time>2024-08-09T11:46:25Z</time>
      </trkpt>
      <trkpt lat="45.0861" lon="6.14816">
        <ele>1997</ele>
        <time>2024-08-09T11:46:26Z</time>
      </trkpt>
      <trkpt lat="45.08612" lon="6.14818">
        <ele>1997</ele>
        <time>2024-08-09T11:46:27Z</time>
      </trkpt>
      <trkpt lat="45.08612" lon="6.14818">
        <ele>1997.2</ele>
        <time>2024-08-09T11:46:28Z</time>
      </trkpt>
      <trkpt lat="45.08614" lon="6.14822">
        <ele>1997.4</ele>
        <time>2024-08-09T11:46:29Z</time>
      </trkpt>
      <trkpt lat="45.08614" lon="6.14822">
        <ele>1997.4</ele>
        <time>2024-08-09T11:46:30Z</time>
      </trkpt>
      <trkpt lat="45.08616" lon="6.14824">
        <ele>1997.6</ele>
        <time>2024-08-09T11:46:31Z</time>
      </trkpt>
      <trkpt lat="45.08616" lon="6.14824">
        <ele>1997.8</ele>
        <time>2024-08-09T11:46:32Z</time>
      </trkpt>
      <trkpt lat="45.08618" lon="6.14827">
        <ele>1998</ele>
        <time>2024-08-09T11:46:33Z</time>
      </trkpt>
      <trkpt lat="45.08618" lon="6.14827">
        <ele>1998</ele>
        <time>2024-08-09T11:46:34Z</time>
      </trkpt>
      <trkpt lat="45.08621" lon="6.14829">
        <ele>1998.2</ele>
        <time>2024-08-09T11:46:35Z</time>
      </trkpt>
      <trkpt lat="45.08621" lon="6.14829">
        <ele>1998.2</ele>
        <time>2024-08-09T11:46:36Z</time>
      </trkpt>
      <trkpt lat="45.08622" lon="6.14832">
        <ele>1998.2</ele>
        <time>2024-08-09T11:46:37Z</time>
      </trkpt>
      <trkpt lat="45.08622" lon="6.14832">
        <ele>1998.4</ele>
        <time>2024-08-09T11:46:38Z</time>
      </trkpt>
      <trkpt lat="45.08624" lon="6.14835">
        <ele>1998.4</ele>
        <time>2024-08-09T11:46:39Z</time>
      </trkpt>
      <trkpt lat="45.08624" lon="6.14835">
        <ele>1998.4</ele>
        <time>2024-08-09T11:46:40Z</time>
      </trkpt>
      <trkpt lat="45.08626" lon="6.14837">
        <ele>1998.6</ele>
        <time>2024-08-09T11:46:41Z</time>
      </trkpt>
      <trkpt lat="45.08626" lon="6.14837">
        <ele>1998.6</ele>
        <time>2024-08-09T11:46:42Z</time>
      </trkpt>
      <trkpt lat="45.08628" lon="6.14839">
        <ele>1998.8</ele>
        <time>2024-08-09T11:46:43Z</time>
      </trkpt>
      <trkpt lat="45.08628" lon="6.14839">
        <ele>1998.8</ele>
        <time>2024-08-09T11:46:44Z</time>
      </trkpt>
      <trkpt lat="45.0863" lon="6.14842">
        <ele>1998.8</ele>
        <time>2024-08-09T11:46:45Z</time>
      </trkpt>
      <trkpt lat="45.0863" lon="6.14842">
        <ele>1998.8</ele>
        <time>2024-08-09T11:46:46Z</time>
      </trkpt>
      <trkpt lat="45.08632" lon="6.14844">
        <ele>1999</ele>
        <time>2024-08-09T11:46:47Z</time>
      </trkpt>
      <trkpt lat="45.08632" lon="6.14844">
        <ele>1999</ele>
        <time>2024-08-09T11:46:48Z</time>
      </trkpt>
      <trkpt lat="45.08634" lon="6.14845">
        <ele>1999.2</ele>
        <time>2024-08-09T11:46:49Z</time>
      </trkpt>
      <trkpt lat="45.08634" lon="6.14845">
        <ele>1999.4</ele>
        <time>2024-08-09T11:46:50Z</time>
      </trkpt>
      <trkpt lat="45.08636" lon="6.14847">
        <ele>1999.4</ele>
        <time>2024-08-09T11:46:51Z</time>
      </trkpt>
      <trkpt lat="45.08636" lon="6.14847">
        <ele>1999.4</ele>
        <time>2024-08-09T11:46:52Z</time>
      </trkpt>
      <trkpt lat="45.08638" lon="6.1485">
        <ele>1999.6</ele>
        <time>2024-08-09T11:46:53Z</time>
      </trkpt>
      <trkpt lat="45.08638" lon="6.1485">
        <ele>1999.6</ele>
        <time>2024-08-09T11:46:54Z</time>
      </trkpt>
      <trkpt lat="45.0864" lon="6.14852">
        <ele>1999.6</ele>
        <time>2024-08-09T11:46:55Z</time>
      </trkpt>
      <trkpt lat="45.0864" lon="6.14852">
        <ele>1999.6</ele>
        <time>2024-08-09T11:46:56Z</time>
      </trkpt>
      <trkpt lat="45.08642" lon="6.14854">
        <ele>1999.6</ele>
        <time>2024-08-09T11:46:57Z</time>
      </trkpt>
      <trkpt lat="45.08642" lon="6.14854">
        <ele>1999.8</ele>
        <time>2024-08-09T11:46:58Z</time>
      </trkpt>
      <trkpt lat="45.08644" lon="6.14856">
        <ele>2000</ele>
        <time>2024-08-09T11:46:59Z</time>
      </trkpt>
      <trkpt lat="45.08644" lon="6.14856">
        <ele>2000.2</ele>
        <time>2024-08-09T11:47:00Z</time>
      </trkpt>
      <trkpt lat="45.08646" lon="6.14858">
        <ele>2000.4</ele>
        <time>2024-08-09T11:47:01Z</time>
      </trkpt>
      <trkpt lat="45.08646" lon="6.14858">
        <ele>2000.4</ele>
        <time>2024-08-09T11:47:02Z</time>
      </trkpt>
      <trkpt lat="45.08648" lon="6.1486">
        <ele>2000.4</ele>
        <time>2024-08-09T11:47:03Z</time>
      </trkpt>
      <trkpt lat="45.08648" lon="6.1486">
        <ele>2000.4</ele>
        <time>2024-08-09T11:47:04Z</time>
      </trkpt>
      <trkpt lat="45.08651" lon="6.14862">
        <ele>2000.8</ele>
        <time>2024-08-09T11:47:05Z</time>
      </trkpt>
      <trkpt lat="45.08651" lon="6.14862">
        <ele>2000.8</ele>
        <time>2024-08-09T11:47:06Z</time>
      </trkpt>
      <trkpt lat="45.08653" lon="6.14864">
        <ele>2000.8</ele>
        <time>2024-08-09T11:47:07Z</time>
      </trkpt>
      <trkpt lat="45.08653" lon="6.14864">
        <ele>2000.8</ele>
        <time>2024-08-09T11:47:08Z</time>
      </trkpt>
      <trkpt lat="45.08654" lon="6.14866">
        <ele>2001</ele>
        <time>2024-08-09T11:47:09Z</time>
      </trkpt>
      <trkpt lat="45.08654" lon="6.14866">
        <ele>2001</ele>
        <time>2024-08-09T11:47:10Z</time>
      </trkpt>
      <trkpt lat="45.08656" lon="6.14868">
        <ele>2001</ele>
        <time>2024-08-09T11:47:11Z</time>
      </trkpt>
      <trkpt lat="45.08656" lon="6.14868">
        <ele>2001.2</ele>
        <time>2024-08-09T11:47:12Z</time>
      </trkpt>
      <trkpt lat="45.08659" lon="6.14871">
        <ele>2001.2</ele>
        <time>2024-08-09T11:47:13Z</time>
      </trkpt>
      <trkpt lat="45.08659" lon="6.14871">
        <ele>2001.2</ele>
        <time>2024-08-09T11:47:14Z</time>
      </trkpt>
      <trkpt lat="45.08661" lon="6.14872">
        <ele>2001.4</ele>
        <time>2024-08-09T11:47:15Z</time>
      </trkpt>
      <trkpt lat="45.08661" lon="6.14872">
        <ele>2001.6</ele>
        <time>2024-08-09T11:47:16Z</time>
      </trkpt>
      <trkpt lat="45.08664" lon="6.14874">
        <ele>2001.6</ele>
        <time>2024-08-09T11:47:17Z</time>
      </trkpt>
      <trkpt lat="45.08664" lon="6.14874">
        <ele>2001.8</ele>
        <time>2024-08-09T11:47:18Z</time>
      </trkpt>
      <trkpt lat="45.08666" lon="6.14876">
        <ele>2001.8</ele>
        <time>2024-08-09T11:47:19Z</time>
      </trkpt>
      <trkpt lat="45.08666" lon="6.14876">
        <ele>2001.8</ele>
        <time>2024-08-09T11:47:20Z</time>
      </trkpt>
      <trkpt lat="45.08669" lon="6.14879">
        <ele>2001.8</ele>
        <time>2024-08-09T11:47:21Z</time>
      </trkpt>
      <trkpt lat="45.08669" lon="6.14879">
        <ele>2001.8</ele>
        <time>2024-08-09T11:47:22Z</time>
      </trkpt>
      <trkpt lat="45.08671" lon="6.1488">
        <ele>2002</ele>
        <time>2024-08-09T11:47:23Z</time>
      </trkpt>
      <trkpt lat="45.08671" lon="6.1488">
        <ele>2002.2</ele>
        <time>2024-08-09T11:47:24Z</time>
      </trkpt>
      <trkpt lat="45.08673" lon="6.14883">
        <ele>2002.4</ele>
        <time>2024-08-09T11:47:25Z</time>
      </trkpt>
      <trkpt lat="45.08673" lon="6.14883">
        <ele>2002.4</ele>
        <time>2024-08-09T11:47:26Z</time>
      </trkpt>
      <trkpt lat="45.08675" lon="6.14884">
        <ele>2002.4</ele>
        <time>2024-08-09T11:47:27Z</time>
      </trkpt>
      <trkpt lat="45.08675" lon="6.14884">
        <ele>2002.8</ele>
        <time>2024-08-09T11:47:28Z</time>
      </trkpt>
      <trkpt lat="45.08678" lon="6.14886">
        <ele>2002.8</ele>
        <time>2024-08-09T11:47:29Z</time>
      </trkpt>
      <trkpt lat="45.08678" lon="6.14886">
        <ele>2002.8</ele>
        <time>2024-08-09T11:47:30Z</time>
      </trkpt>
      <trkpt lat="45.0868" lon="6.14887">
        <ele>2002.6</ele>
        <time>2024-08-09T11:47:31Z</time>
      </trkpt>
      <trkpt lat="45.0868" lon="6.14887">
        <ele>2002.8</ele>
        <time>2024-08-09T11:47:32Z</time>
      </trkpt>
      <trkpt lat="45.08683" lon="6.14888">
        <ele>2002.8</ele>
        <time>2024-08-09T11:47:33Z</time>
      </trkpt>
      <trkpt lat="45.08683" lon="6.14888">
        <ele>2003</ele>
        <time>2024-08-09T11:47:34Z</time>
      </trkpt>
      <trkpt lat="45.08685" lon="6.14889">
        <ele>2003</ele>
        <time>2024-08-09T11:47:35Z</time>
      </trkpt>
      <trkpt lat="45.08685" lon="6.14889">
        <ele>2003.4</ele>
        <time>2024-08-09T11:47:36Z</time>
      </trkpt>
      <trkpt lat="45.08687" lon="6.14891">
        <ele>2003.4</ele>
        <time>2024-08-09T11:47:37Z</time>
      </trkpt>
      <trkpt lat="45.08687" lon="6.14891">
        <ele>2003.6</ele>
        <time>2024-08-09T11:47:38Z</time>
      </trkpt>
      <trkpt lat="45.0869" lon="6.14892">
        <ele>2003.6</ele>
        <time>2024-08-09T11:47:39Z</time>
      </trkpt>
      <trkpt lat="45.0869" lon="6.14892">
        <ele>2003.6</ele>
        <time>2024-08-09T11:47:40Z</time>
      </trkpt>
      <trkpt lat="45.08692" lon="6.14894">
        <ele>2003.6</ele>
        <time>2024-08-09T11:47:41Z</time>
      </trkpt>
      <trkpt lat="45.08692" lon="6.14894">
        <ele>2003.6</ele>
        <time>2024-08-09T11:47:42Z</time>
      </trkpt>
      <trkpt lat="45.08694" lon="6.14895">
        <ele>2003.6</ele>
        <time>2024-08-09T11:47:43Z</time>
      </trkpt>
      <trkpt lat="45.08694" lon="6.14895">
        <ele>2003.6</ele>
        <time>2024-08-09T11:47:44Z</time>
      </trkpt>
      <trkpt lat="45.08696" lon="6.14897">
        <ele>2003.8</ele>
        <time>2024-08-09T11:47:45Z</time>
      </trkpt>
      <trkpt lat="45.08696" lon="6.14897">
        <ele>2004.2</ele>
        <time>2024-08-09T11:47:46Z</time>
      </trkpt>
      <trkpt lat="45.08699" lon="6.14898">
        <ele>2004.4</ele>
        <time>2024-08-09T11:47:47Z</time>
      </trkpt>
      <trkpt lat="45.08699" lon="6.14898">
        <ele>2004.4</ele>
        <time>2024-08-09T11:47:48Z</time>
      </trkpt>
      <trkpt lat="45.08701" lon="6.14898">
        <ele>2004.4</ele>
        <time>2024-08-09T11:47:49Z</time>
      </trkpt>
      <trkpt lat="45.08701" lon="6.14898">
        <ele>2004.2</ele>
        <time>2024-08-09T11:47:50Z</time>
      </trkpt>
      <trkpt lat="45.08704" lon="6.14898">
        <ele>2004.2</ele>
        <time>2024-08-09T11:47:51Z</time>
      </trkpt>
      <trkpt lat="45.08704" lon="6.14898">
        <ele>2004.2</ele>
        <time>2024-08-09T11:47:52Z</time>
      </trkpt>
      <trkpt lat="45.08706" lon="6.14899">
        <ele>2004.8</ele>
        <time>2024-08-09T11:47:53Z</time>
      </trkpt>
      <trkpt lat="45.08706" lon="6.14899">
        <ele>2004.8</ele>
        <time>2024-08-09T11:47:54Z</time>
      </trkpt>
      <trkpt lat="45.08709" lon="6.149">
        <ele>2004.8</ele>
        <time>2024-08-09T11:47:55Z</time>
      </trkpt>
      <trkpt lat="45.08709" lon="6.149">
        <ele>2005</ele>
        <time>2024-08-09T11:47:56Z</time>
      </trkpt>
      <trkpt lat="45.08711" lon="6.14901">
        <ele>2005.2</ele>
        <time>2024-08-09T11:47:57Z</time>
      </trkpt>
      <trkpt lat="45.08711" lon="6.14901">
        <ele>2005.2</ele>
        <time>2024-08-09T11:47:58Z</time>
      </trkpt>
      <trkpt lat="45.08713" lon="6.14902">
        <ele>2005.2</ele>
        <time>2024-08-09T11:47:59Z</time>
      </trkpt>
      <trkpt lat="45.08713" lon="6.14902">
        <ele>2005.4</ele>
        <time>2024-08-09T11:48:00Z</time>
      </trkpt>
      <trkpt lat="45.08716" lon="6.14903">
        <ele>2005.4</ele>
        <time>2024-08-09T11:48:01Z</time>
      </trkpt>
      <trkpt lat="45.08716" lon="6.14903">
        <ele>2005.6</ele>
        <time>2024-08-09T11:48:02Z</time>
      </trkpt>
      <trkpt lat="45.08718" lon="6.14904">
        <ele>2005.6</ele>
        <time>2024-08-09T11:48:03Z</time>
      </trkpt>
      <trkpt lat="45.08718" lon="6.14904">
        <ele>2005.6</ele>
        <time>2024-08-09T11:48:04Z</time>
      </trkpt>
      <trkpt lat="45.0872" lon="6.14905">
        <ele>2005.8</ele>
        <time>2024-08-09T11:48:05Z</time>
      </trkpt>
      <trkpt lat="45.0872" lon="6.14905">
        <ele>2005.8</ele>
        <time>2024-08-09T11:48:06Z</time>
      </trkpt>
      <trkpt lat="45.08723" lon="6.14906">
        <ele>2006</ele>
        <time>2024-08-09T11:48:07Z</time>
      </trkpt>
      <trkpt lat="45.08723" lon="6.14906">
        <ele>2006</ele>
        <time>2024-08-09T11:48:08Z</time>
      </trkpt>
      <trkpt lat="45.08726" lon="6.14906">
        <ele>2006.2</ele>
        <time>2024-08-09T11:48:09Z</time>
      </trkpt>
      <trkpt lat="45.08726" lon="6.14906">
        <ele>2006.4</ele>
        <time>2024-08-09T11:48:10Z</time>
      </trkpt>
      <trkpt lat="45.08728" lon="6.14906">
        <ele>2006.6</ele>
        <time>2024-08-09T11:48:11Z</time>
      </trkpt>
      <trkpt lat="45.08728" lon="6.14906">
        <ele>2006.6</ele>
        <time>2024-08-09T11:48:12Z</time>
      </trkpt>
      <trkpt lat="45.0873" lon="6.14907">
        <ele>2006.4</ele>
        <time>2024-08-09T11:48:13Z</time>
      </trkpt>
      <trkpt lat="45.0873" lon="6.14907">
        <ele>2006.2</ele>
        <time>2024-08-09T11:48:14Z</time>
      </trkpt>
      <trkpt lat="45.08732" lon="6.14908">
        <ele>2006.2</ele>
        <time>2024-08-09T11:48:15Z</time>
      </trkpt>
      <trkpt lat="45.08732" lon="6.14908">
        <ele>2006.4</ele>
        <time>2024-08-09T11:48:16Z</time>
      </trkpt>
      <trkpt lat="45.08732" lon="6.14908">
        <ele>2006.6</ele>
        <time>2024-08-09T11:48:17Z</time>
      </trkpt>
      <trkpt lat="45.08732" lon="6.14908">
        <ele>2006.8</ele>
        <time>2024-08-09T11:48:18Z</time>
      </trkpt>
      <trkpt lat="45.08732" lon="6.14908">
        <ele>2007</ele>
        <time>2024-08-09T11:48:19Z</time>
      </trkpt>
      <trkpt lat="45.08732" lon="6.14908">
        <ele>2007</ele>
        <time>2024-08-09T11:48:20Z</time>
      </trkpt>
      <trkpt lat="45.08732" lon="6.14908">
        <ele>2007.2</ele>
        <time>2024-08-09T11:48:21Z</time>
      </trkpt>
      <trkpt lat="45.08732" lon="6.14908">
        <ele>2007.2</ele>
        <time>2024-08-09T11:48:22Z</time>
      </trkpt>
      <trkpt lat="45.08732" lon="6.14908">
        <ele>2007.2</ele>
        <time>2024-08-09T11:48:23Z</time>
      </trkpt>
      <trkpt lat="45.08732" lon="6.14908">
        <ele>2007</ele>
        <time>2024-08-09T11:48:24Z</time>
      </trkpt>
      <trkpt lat="45.08732" lon="6.14908">
        <ele>2006.6</ele>
        <time>2024-08-09T11:48:25Z</time>
      </trkpt>
      <trkpt lat="45.08732" lon="6.14908">
        <ele>2006.6</ele>
        <time>2024-08-09T11:48:26Z</time>
      </trkpt>
      <trkpt lat="45.08732" lon="6.14908">
        <ele>2006.6</ele>
        <time>2024-08-09T11:48:27Z</time>
      </trkpt>
      <trkpt lat="45.08732" lon="6.14908">
        <ele>2006.6</ele>
        <time>2024-08-09T11:48:28Z</time>
      </trkpt>
      <trkpt lat="45.08732" lon="6.14908">
        <ele>2006.6</ele>
        <time>2024-08-09T11:48:29Z</time>
      </trkpt>
      <trkpt lat="45.08733" lon="6.1491">
        <ele>2006.6</ele>
        <time>2024-08-09T11:48:30Z</time>
      </trkpt>
      <trkpt lat="45.08733" lon="6.1491">
        <ele>2007</ele>
        <time>2024-08-09T11:48:31Z</time>
      </trkpt>
      <trkpt lat="45.08732" lon="6.14913">
        <ele>2007</ele>
        <time>2024-08-09T11:48:32Z</time>
      </trkpt>
      <trkpt lat="45.08732" lon="6.14913">
        <ele>2007</ele>
        <time>2024-08-09T11:48:33Z</time>
      </trkpt>
      <trkpt lat="45.0873" lon="6.14915">
        <ele>2007</ele>
        <time>2024-08-09T11:48:34Z</time>
      </trkpt>
      <trkpt lat="45.0873" lon="6.14915">
        <ele>2007</ele>
        <time>2024-08-09T11:48:35Z</time>
      </trkpt>
      <trkpt lat="45.08727" lon="6.14916">
        <ele>2007.2</ele>
        <time>2024-08-09T11:48:36Z</time>
      </trkpt>
      <trkpt lat="45.08727" lon="6.14916">
        <ele>2007.2</ele>
        <time>2024-08-09T11:48:37Z</time>
      </trkpt>
      <trkpt lat="45.08727" lon="6.14916">
        <ele>2007.4</ele>
        <time>2024-08-09T11:48:38Z</time>
      </trkpt>
      <trkpt lat="45.08725" lon="6.14918">
        <ele>2007.8</ele>
        <time>2024-08-09T11:48:39Z</time>
      </trkpt>
      <trkpt lat="45.08725" lon="6.14918">
        <ele>2008</ele>
        <time>2024-08-09T11:48:40Z</time>
      </trkpt>
      <trkpt lat="45.08724" lon="6.1492">
        <ele>2008</ele>
        <time>2024-08-09T11:48:41Z</time>
      </trkpt>
      <trkpt lat="45.08724" lon="6.1492">
        <ele>2008.2</ele>
        <time>2024-08-09T11:48:42Z</time>
      </trkpt>
      <trkpt lat="45.08722" lon="6.14922">
        <ele>2008.6</ele>
        <time>2024-08-09T11:48:43Z</time>
      </trkpt>
      <trkpt lat="45.08722" lon="6.14922">
        <ele>2008.8</ele>
        <time>2024-08-09T11:48:44Z</time>
      </trkpt>
      <trkpt lat="45.08722" lon="6.14922">
        <ele>2008.8</ele>
        <time>2024-08-09T11:48:45Z</time>
      </trkpt>
      <trkpt lat="45.0872" lon="6.14923">
        <ele>2009.2</ele>
        <time>2024-08-09T11:48:46Z</time>
      </trkpt>
      <trkpt lat="45.0872" lon="6.14923">
        <ele>2009.4</ele>
        <time>2024-08-09T11:48:47Z</time>
      </trkpt>
      <trkpt lat="45.0872" lon="6.14923">
        <ele>2009.8</ele>
        <time>2024-08-09T11:48:48Z</time>
      </trkpt>
      <trkpt lat="45.0872" lon="6.14923">
        <ele>2009.8</ele>
        <time>2024-08-09T11:48:49Z</time>
      </trkpt>
      <trkpt lat="45.0872" lon="6.14923">
        <ele>2009.8</ele>
        <time>2024-08-09T11:48:50Z</time>
      </trkpt>
      <trkpt lat="45.0872" lon="6.14923">
        <ele>2010</ele>
        <time>2024-08-09T11:48:51Z</time>
      </trkpt>
      <trkpt lat="45.0872" lon="6.14923">
        <ele>2010</ele>
        <time>2024-08-09T11:48:52Z</time>
      </trkpt>
      <trkpt lat="45.08722" lon="6.14925">
        <ele>2010</ele>
        <time>2024-08-09T11:48:53Z</time>
      </trkpt>
      <trkpt lat="45.08722" lon="6.14925">
        <ele>2010.2</ele>
        <time>2024-08-09T11:48:54Z</time>
      </trkpt>
      <trkpt lat="45.08724" lon="6.14925">
        <ele>2010.8</ele>
        <time>2024-08-09T11:48:55Z</time>
      </trkpt>
      <trkpt lat="45.08724" lon="6.14925">
        <ele>2010.8</ele>
        <time>2024-08-09T11:48:56Z</time>
      </trkpt>
      <trkpt lat="45.08724" lon="6.14925">
        <ele>2010.8</ele>
        <time>2024-08-09T11:48:57Z</time>
      </trkpt>
      <trkpt lat="45.08724" lon="6.14925">
        <ele>2010.8</ele>
        <time>2024-08-09T11:48:58Z</time>
      </trkpt>
      <trkpt lat="45.08726" lon="6.14925">
        <ele>2011</ele>
        <time>2024-08-09T11:48:59Z</time>
      </trkpt>
      <trkpt lat="45.08726" lon="6.14925">
        <ele>2011</ele>
        <time>2024-08-09T11:49:00Z</time>
      </trkpt>
      <trkpt lat="45.08726" lon="6.14925">
        <ele>2011.4</ele>
        <time>2024-08-09T11:49:01Z</time>
      </trkpt>
      <trkpt lat="45.08726" lon="6.14925">
        <ele>2011.8</ele>
        <time>2024-08-09T11:49:02Z</time>
      </trkpt>
      <trkpt lat="45.08726" lon="6.14925">
        <ele>2011.8</ele>
        <time>2024-08-09T11:49:03Z</time>
      </trkpt>
      <trkpt lat="45.08726" lon="6.14925">
        <ele>2012</ele>
        <time>2024-08-09T11:49:04Z</time>
      </trkpt>
      <trkpt lat="45.08726" lon="6.14925">
        <ele>2012.2</ele>
        <time>2024-08-09T11:49:05Z</time>
      </trkpt>
      <trkpt lat="45.08726" lon="6.14925">
        <ele>2012.4</ele>
        <time>2024-08-09T11:49:06Z</time>
      </trkpt>
      <trkpt lat="45.08729" lon="6.14926">
        <ele>2012.8</ele>
        <time>2024-08-09T11:49:07Z</time>
      </trkpt>
      <trkpt lat="45.08729" lon="6.14926">
        <ele>2013</ele>
        <time>2024-08-09T11:49:08Z</time>
      </trkpt>
      <trkpt lat="45.08729" lon="6.14926">
        <ele>2013.2</ele>
        <time>2024-08-09T11:49:09Z</time>
      </trkpt>
      <trkpt lat="45.0873" lon="6.14928">
        <ele>2013.4</ele>
        <time>2024-08-09T11:49:10Z</time>
      </trkpt>
      <trkpt lat="45.0873" lon="6.14928">
        <ele>2013.4</ele>
        <time>2024-08-09T11:49:11Z</time>
      </trkpt>
      <trkpt lat="45.0873" lon="6.14928">
        <ele>2013.6</ele>
        <time>2024-08-09T11:49:12Z</time>
      </trkpt>
      <trkpt lat="45.0873" lon="6.14928">
        <ele>2013.6</ele>
        <time>2024-08-09T11:49:13Z</time>
      </trkpt>
      <trkpt lat="45.0873" lon="6.14931">
        <ele>2014</ele>
        <time>2024-08-09T11:49:14Z</time>
      </trkpt>
      <trkpt lat="45.0873" lon="6.14931">
        <ele>2014.4</ele>
        <time>2024-08-09T11:49:15Z</time>
      </trkpt>
      <trkpt lat="45.0873" lon="6.14931">
        <ele>2014.4</ele>
        <time>2024-08-09T11:49:16Z</time>
      </trkpt>
      <trkpt lat="45.0873" lon="6.14931">
        <ele>2014.6</ele>
        <time>2024-08-09T11:49:17Z</time>
      </trkpt>
      <trkpt lat="45.0873" lon="6.14931">
        <ele>2014.6</ele>
        <time>2024-08-09T11:49:18Z</time>
      </trkpt>
      <trkpt lat="45.0873" lon="6.14931">
        <ele>2014.6</ele>
        <time>2024-08-09T11:49:19Z</time>
      </trkpt>
      <trkpt lat="45.08728" lon="6.14934">
        <ele>2015.2</ele>
        <time>2024-08-09T11:49:20Z</time>
      </trkpt>
      <trkpt lat="45.08728" lon="6.14934">
        <ele>2015.2</ele>
        <time>2024-08-09T11:49:21Z</time>
      </trkpt>
      <trkpt lat="45.08726" lon="6.14935">
        <ele>2015.6</ele>
        <time>2024-08-09T11:49:22Z</time>
      </trkpt>
      <trkpt lat="45.08726" lon="6.14935">
        <ele>2015.6</ele>
        <time>2024-08-09T11:49:23Z</time>
      </trkpt>
      <trkpt lat="45.08724" lon="6.14936">
        <ele>2015.8</ele>
        <time>2024-08-09T11:49:24Z</time>
      </trkpt>
      <trkpt lat="45.08724" lon="6.14936">
        <ele>2015.8</ele>
        <time>2024-08-09T11:49:25Z</time>
      </trkpt>
      <trkpt lat="45.08724" lon="6.14936">
        <ele>2016.2</ele>
        <time>2024-08-09T11:49:26Z</time>
      </trkpt>
      <trkpt lat="45.08722" lon="6.14936">
        <ele>2016.2</ele>
        <time>2024-08-09T11:49:27Z</time>
      </trkpt>
      <trkpt lat="45.08722" lon="6.14936">
        <ele>2016.2</ele>
        <time>2024-08-09T11:49:28Z</time>
      </trkpt>
      <trkpt lat="45.0872" lon="6.14934">
        <ele>2016.4</ele>
        <time>2024-08-09T11:49:29Z</time>
      </trkpt>
      <trkpt lat="45.0872" lon="6.14934">
        <ele>2016.4</ele>
        <time>2024-08-09T11:49:30Z</time>
      </trkpt>
      <trkpt lat="45.08717" lon="6.14933">
        <ele>2016.4</ele>
        <time>2024-08-09T11:49:31Z</time>
      </trkpt>
      <trkpt lat="45.08717" lon="6.14933">
        <ele>2016.4</ele>
        <time>2024-08-09T11:49:32Z</time>
      </trkpt>
      <trkpt lat="45.08715" lon="6.14933">
        <ele>2016.4</ele>
        <time>2024-08-09T11:49:33Z</time>
      </trkpt>
      <trkpt lat="45.08715" lon="6.14933">
        <ele>2016.4</ele>
        <time>2024-08-09T11:49:34Z</time>
      </trkpt>
      <trkpt lat="45.08712" lon="6.14934">
        <ele>2016.6</ele>
        <time>2024-08-09T11:49:35Z</time>
      </trkpt>
      <trkpt lat="45.08712" lon="6.14934">
        <ele>2016.8</ele>
        <time>2024-08-09T11:49:36Z</time>
      </trkpt>
      <trkpt lat="45.0871" lon="6.14933">
        <ele>2016.8</ele>
        <time>2024-08-09T11:49:37Z</time>
      </trkpt>
      <trkpt lat="45.0871" lon="6.14933">
        <ele>2016.8</ele>
        <time>2024-08-09T11:49:38Z</time>
      </trkpt>
      <trkpt lat="45.08708" lon="6.14934">
        <ele>2016.8</ele>
        <time>2024-08-09T11:49:39Z</time>
      </trkpt>
      <trkpt lat="45.08708" lon="6.14934">
        <ele>2016.8</ele>
        <time>2024-08-09T11:49:40Z</time>
      </trkpt>
      <trkpt lat="45.08706" lon="6.14934">
        <ele>2017</ele>
        <time>2024-08-09T11:49:41Z</time>
      </trkpt>
      <trkpt lat="45.08706" lon="6.14934">
        <ele>2017</ele>
        <time>2024-08-09T11:49:42Z</time>
      </trkpt>
      <trkpt lat="45.08703" lon="6.14935">
        <ele>2017</ele>
        <time>2024-08-09T11:49:43Z</time>
      </trkpt>
      <trkpt lat="45.08703" lon="6.14935">
        <ele>2017.4</ele>
        <time>2024-08-09T11:49:44Z</time>
      </trkpt>
      <trkpt lat="45.08701" lon="6.14936">
        <ele>2017.4</ele>
        <time>2024-08-09T11:49:45Z</time>
      </trkpt>
      <trkpt lat="45.08701" lon="6.14936">
        <ele>2017.6</ele>
        <time>2024-08-09T11:49:46Z</time>
      </trkpt>
      <trkpt lat="45.08699" lon="6.14936">
        <ele>2017.8</ele>
        <time>2024-08-09T11:49:47Z</time>
      </trkpt>
      <trkpt lat="45.08699" lon="6.14936">
        <ele>2017.8</ele>
        <time>2024-08-09T11:49:48Z</time>
      </trkpt>
      <trkpt lat="45.08696" lon="6.14936">
        <ele>2017.8</ele>
        <time>2024-08-09T11:49:49Z</time>
      </trkpt>
      <trkpt lat="45.08696" lon="6.14936">
        <ele>2017.8</ele>
        <time>2024-08-09T11:49:50Z</time>
      </trkpt>
      <trkpt lat="45.08694" lon="6.14935">
        <ele>2018</ele>
        <time>2024-08-09T11:49:51Z</time>
      </trkpt>
      <trkpt lat="45.08694" lon="6.14935">
        <ele>2018.2</ele>
        <time>2024-08-09T11:49:52Z</time>
      </trkpt>
      <trkpt lat="45.08693" lon="6.14933">
        <ele>2018.6</ele>
        <time>2024-08-09T11:49:53Z</time>
      </trkpt>
      <trkpt lat="45.08693" lon="6.14933">
        <ele>2018.6</ele>
        <time>2024-08-09T11:49:54Z</time>
      </trkpt>
      <trkpt lat="45.08691" lon="6.14932">
        <ele>2019</ele>
        <time>2024-08-09T11:49:55Z</time>
      </trkpt>
      <trkpt lat="45.08691" lon="6.14932">
        <ele>2019.2</ele>
        <time>2024-08-09T11:49:56Z</time>
      </trkpt>
      <trkpt lat="45.08691" lon="6.14932">
        <ele>2019.6</ele>
        <time>2024-08-09T11:49:57Z</time>
      </trkpt>
      <trkpt lat="45.08691" lon="6.14932">
        <ele>2019.8</ele>
        <time>2024-08-09T11:49:58Z</time>
      </trkpt>
      <trkpt lat="45.08691" lon="6.14932">
        <ele>2019.8</ele>
        <time>2024-08-09T11:49:59Z</time>
      </trkpt>
      <trkpt lat="45.0869" lon="6.14935">
        <ele>2019.8</ele>
        <time>2024-08-09T11:50:02Z</time>
      </trkpt>
      <trkpt lat="45.0869" lon="6.14935">
        <ele>2020.8</ele>
        <time>2024-08-09T11:50:04Z</time>
      </trkpt>
      <trkpt lat="45.0869" lon="6.14935">
        <ele>2020.8</ele>
        <time>2024-08-09T11:50:05Z</time>
      </trkpt>
      <trkpt lat="45.0869" lon="6.14935">
        <ele>2021</ele>
        <time>2024-08-09T11:50:06Z</time>
      </trkpt>
      <trkpt lat="45.0869" lon="6.14935">
        <ele>2021</ele>
        <time>2024-08-09T11:50:07Z</time>
      </trkpt>
      <trkpt lat="45.0869" lon="6.14935">
        <ele>2021.4</ele>
        <time>2024-08-09T11:50:08Z</time>
      </trkpt>
      <trkpt lat="45.0869" lon="6.14935">
        <ele>2021.6</ele>
        <time>2024-08-09T11:50:09Z</time>
      </trkpt>
      <trkpt lat="45.0869" lon="6.14935">
        <ele>2021.6</ele>
        <time>2024-08-09T11:50:10Z</time>
      </trkpt>
      <trkpt lat="45.0869" lon="6.14935">
        <ele>2021.6</ele>
        <time>2024-08-09T11:50:11Z</time>
      </trkpt>
      <trkpt lat="45.0869" lon="6.14935">
        <ele>2021.6</ele>
        <time>2024-08-09T11:50:12Z</time>
      </trkpt>
      <trkpt lat="45.0869" lon="6.14935">
        <ele>2021.4</ele>
        <time>2024-08-09T11:50:13Z</time>
      </trkpt>
      <trkpt lat="45.0869" lon="6.14935">
        <ele>2021</ele>
        <time>2024-08-09T11:50:14Z</time>
      </trkpt>
      <trkpt lat="45.0869" lon="6.14935">
        <ele>2020.6</ele>
        <time>2024-08-09T11:50:15Z</time>
      </trkpt>
      <trkpt lat="45.0869" lon="6.14935">
        <ele>2020.6</ele>
        <time>2024-08-09T11:50:16Z</time>
      </trkpt>
      <trkpt lat="45.0869" lon="6.14935">
        <ele>2020.6</ele>
        <time>2024-08-09T11:50:17Z</time>
      </trkpt>
      <trkpt lat="45.0869" lon="6.14935">
        <ele>2020.8</ele>
        <time>2024-08-09T11:50:18Z</time>
      </trkpt>
      <trkpt lat="45.0869" lon="6.14935">
        <ele>2020.8</ele>
        <time>2024-08-09T11:50:19Z</time>
      </trkpt>
      <trkpt lat="45.0869" lon="6.14935">
        <ele>2021.2</ele>
        <time>2024-08-09T11:50:20Z</time>
      </trkpt>
      <trkpt lat="45.0869" lon="6.14935">
        <ele>2021.2</ele>
        <time>2024-08-09T11:50:21Z</time>
      </trkpt>
      <trkpt lat="45.0869" lon="6.14935">
        <ele>2021.4</ele>
        <time>2024-08-09T11:50:22Z</time>
      </trkpt>
      <trkpt lat="45.0869" lon="6.14935">
        <ele>2021.4</ele>
        <time>2024-08-09T11:50:23Z</time>
      </trkpt>
      <trkpt lat="45.0869" lon="6.14935">
        <ele>2021.4</ele>
        <time>2024-08-09T11:50:24Z</time>
      </trkpt>
      <trkpt lat="45.0869" lon="6.14935">
        <ele>2021.4</ele>
        <time>2024-08-09T11:50:25Z</time>
      </trkpt>
      <trkpt lat="45.0869" lon="6.14935">
        <ele>2021.4</ele>
        <time>2024-08-09T11:50:26Z</time>
      </trkpt>
      <trkpt lat="45.0869" lon="6.14935">
        <ele>2021.2</ele>
        <time>2024-08-09T11:50:27Z</time>
      </trkpt>
      <trkpt lat="45.0869" lon="6.14935">
        <ele>2021.2</ele>
        <time>2024-08-09T11:50:28Z</time>
      </trkpt>
      <trkpt lat="45.0869" lon="6.14935">
        <ele>2021.2</ele>
        <time>2024-08-09T11:50:29Z</time>
      </trkpt>
      <trkpt lat="45.0869" lon="6.14935">
        <ele>2020.8</ele>
        <time>2024-08-09T11:50:30Z</time>
      </trkpt>
      <trkpt lat="45.0869" lon="6.14935">
        <ele>2020.8</ele>
        <time>2024-08-09T11:50:31Z</time>
      </trkpt>
      <trkpt lat="45.0869" lon="6.14935">
        <ele>2020.6</ele>
        <time>2024-08-09T11:50:32Z</time>
      </trkpt>
      <trkpt lat="45.0869" lon="6.14935">
        <ele>2020.8</ele>
        <time>2024-08-09T11:50:33Z</time>
      </trkpt>
      <trkpt lat="45.0869" lon="6.14935">
        <ele>2020.8</ele>
        <time>2024-08-09T11:50:34Z</time>
      </trkpt>
      <trkpt lat="45.0869" lon="6.14935">
        <ele>2020.8</ele>
        <time>2024-08-09T11:50:35Z</time>
      </trkpt>
      <trkpt lat="45.0869" lon="6.14935">
        <ele>2020.8</ele>
        <time>2024-08-09T11:50:36Z</time>
      </trkpt>
      <trkpt lat="45.0869" lon="6.14935">
        <ele>2020.8</ele>
        <time>2024-08-09T11:50:37Z</time>
      </trkpt>
      <trkpt lat="45.0869" lon="6.14935">
        <ele>2020.8</ele>
        <time>2024-08-09T11:50:38Z</time>
      </trkpt>
      <trkpt lat="45.0869" lon="6.14935">
        <ele>2020.8</ele>
        <time>2024-08-09T11:50:39Z</time>
      </trkpt>
      <trkpt lat="45.0869" lon="6.14935">
        <ele>2020.8</ele>
        <time>2024-08-09T11:50:40Z</time>
      </trkpt>
      <trkpt lat="45.0869" lon="6.14935">
        <ele>2021</ele>
        <time>2024-08-09T11:50:41Z</time>
      </trkpt>
      <trkpt lat="45.0869" lon="6.14935">
        <ele>2021</ele>
        <time>2024-08-09T11:50:42Z</time>
      </trkpt>
      <trkpt lat="45.0869" lon="6.14935">
        <ele>2021</ele>
        <time>2024-08-09T11:50:43Z</time>
      </trkpt>
      <trkpt lat="45.0869" lon="6.14935">
        <ele>2021</ele>
        <time>2024-08-09T11:50:44Z</time>
      </trkpt>
      <trkpt lat="45.0869" lon="6.14935">
        <ele>2021</ele>
        <time>2024-08-09T11:50:45Z</time>
      </trkpt>
      <trkpt lat="45.0869" lon="6.14935">
        <ele>2021</ele>
        <time>2024-08-09T11:50:46Z</time>
      </trkpt>
      <trkpt lat="45.0869" lon="6.14935">
        <ele>2021.2</ele>
        <time>2024-08-09T11:50:47Z</time>
      </trkpt>
      <trkpt lat="45.0869" lon="6.14935">
        <ele>2021.2</ele>
        <time>2024-08-09T11:50:48Z</time>
      </trkpt>
      <trkpt lat="45.0869" lon="6.14935">
        <ele>2021.2</ele>
        <time>2024-08-09T11:50:49Z</time>
      </trkpt>
      <trkpt lat="45.0869" lon="6.14935">
        <ele>2021.2</ele>
        <time>2024-08-09T11:50:50Z</time>
      </trkpt>
      <trkpt lat="45.0869" lon="6.14935">
        <ele>2021</ele>
        <time>2024-08-09T11:50:51Z</time>
      </trkpt>
      <trkpt lat="45.0869" lon="6.14935">
        <ele>2021</ele>
        <time>2024-08-09T11:50:52Z</time>
      </trkpt>
      <trkpt lat="45.0869" lon="6.14935">
        <ele>2021</ele>
        <time>2024-08-09T11:50:53Z</time>
      </trkpt>
      <trkpt lat="45.0869" lon="6.14935">
        <ele>2021.2</ele>
        <time>2024-08-09T11:50:54Z</time>
      </trkpt>
      <trkpt lat="45.0869" lon="6.14935">
        <ele>2021.4</ele>
        <time>2024-08-09T11:50:55Z</time>
      </trkpt>
      <trkpt lat="45.0869" lon="6.14935">
        <ele>2021.4</ele>
        <time>2024-08-09T11:50:56Z</time>
      </trkpt>
      <trkpt lat="45.0869" lon="6.14935">
        <ele>2021.4</ele>
        <time>2024-08-09T11:50:57Z</time>
      </trkpt>
      <trkpt lat="45.0869" lon="6.14935">
        <ele>2021.4</ele>
        <time>2024-08-09T11:50:58Z</time>
      </trkpt>
      <trkpt lat="45.0869" lon="6.14935">
        <ele>2021.4</ele>
        <time>2024-08-09T11:50:59Z</time>
      </trkpt>
      <trkpt lat="45.0869" lon="6.14935">
        <ele>2021.6</ele>
        <time>2024-08-09T11:51:00Z</time>
      </trkpt>
      <trkpt lat="45.0869" lon="6.14935">
        <ele>2021.6</ele>
        <time>2024-08-09T11:51:01Z</time>
      </trkpt>
      <trkpt lat="45.0869" lon="6.14935">
        <ele>2021.4</ele>
        <time>2024-08-09T11:51:02Z</time>
      </trkpt>
      <trkpt lat="45.0869" lon="6.14935">
        <ele>2021.4</ele>
        <time>2024-08-09T11:51:03Z</time>
      </trkpt>
      <trkpt lat="45.0869" lon="6.14935">
        <ele>2021.6</ele>
        <time>2024-08-09T11:51:04Z</time>
      </trkpt>
      <trkpt lat="45.0869" lon="6.14935">
        <ele>2021.6</ele>
        <time>2024-08-09T11:51:05Z</time>
      </trkpt>
      <trkpt lat="45.0869" lon="6.14935">
        <ele>2021.4</ele>
        <time>2024-08-09T11:51:06Z</time>
      </trkpt>
      <trkpt lat="45.0869" lon="6.14935">
        <ele>2021.4</ele>
        <time>2024-08-09T11:51:07Z</time>
      </trkpt>
      <trkpt lat="45.0869" lon="6.14935">
        <ele>2021.4</ele>
        <time>2024-08-09T11:51:08Z</time>
      </trkpt>
      <trkpt lat="45.0869" lon="6.14935">
        <ele>2021.4</ele>
        <time>2024-08-09T11:51:09Z</time>
      </trkpt>
      <trkpt lat="45.0869" lon="6.14935">
        <ele>2021.6</ele>
        <time>2024-08-09T11:51:10Z</time>
      </trkpt>
      <trkpt lat="45.0869" lon="6.14935">
        <ele>2021.6</ele>
        <time>2024-08-09T11:51:11Z</time>
      </trkpt>
      <trkpt lat="45.0869" lon="6.14935">
        <ele>2021.4</ele>
        <time>2024-08-09T11:51:12Z</time>
      </trkpt>
      <trkpt lat="45.0869" lon="6.14935">
        <ele>2021.6</ele>
        <time>2024-08-09T11:51:13Z</time>
      </trkpt>
      <trkpt lat="45.0869" lon="6.14935">
        <ele>2021.6</ele>
        <time>2024-08-09T11:51:14Z</time>
      </trkpt>
      <trkpt lat="45.0869" lon="6.14935">
        <ele>2021.6</ele>
        <time>2024-08-09T11:51:15Z</time>
      </trkpt>
      <trkpt lat="45.0869" lon="6.14935">
        <ele>2021.6</ele>
        <time>2024-08-09T11:51:16Z</time>
      </trkpt>
      <trkpt lat="45.0869" lon="6.14935">
        <ele>2021.6</ele>
        <time>2024-08-09T11:51:17Z</time>
      </trkpt>
      <trkpt lat="45.0869" lon="6.14935">
        <ele>2021.6</ele>
        <time>2024-08-09T11:51:18Z</time>
      </trkpt>
      <trkpt lat="45.0869" lon="6.14935">
        <ele>2021.6</ele>
        <time>2024-08-09T11:51:19Z</time>
      </trkpt>
      <trkpt lat="45.0869" lon="6.14935">
        <ele>2021.6</ele>
        <time>2024-08-09T11:51:20Z</time>
      </trkpt>
      <trkpt lat="45.0869" lon="6.14935">
        <ele>2021.6</ele>
        <time>2024-08-09T11:51:21Z</time>
      </trkpt>
      <trkpt lat="45.0869" lon="6.14935">
        <ele>2021.6</ele>
        <time>2024-08-09T11:51:22Z</time>
      </trkpt>
      <trkpt lat="45.0869" lon="6.14935">
        <ele>2021.6</ele>
        <time>2024-08-09T11:51:23Z</time>
      </trkpt>
      <trkpt lat="45.0869" lon="6.14935">
        <ele>2021.8</ele>
        <time>2024-08-09T11:51:24Z</time>
      </trkpt>
      <trkpt lat="45.0869" lon="6.14935">
        <ele>2021.8</ele>
        <time>2024-08-09T11:51:25Z</time>
      </trkpt>
      <trkpt lat="45.0869" lon="6.14935">
        <ele>2021.8</ele>
        <time>2024-08-09T11:51:26Z</time>
      </trkpt>
      <trkpt lat="45.0869" lon="6.14935">
        <ele>2021.8</ele>
        <time>2024-08-09T11:51:27Z</time>
      </trkpt>
      <trkpt lat="45.0869" lon="6.14935">
        <ele>2021.8</ele>
        <time>2024-08-09T11:51:28Z</time>
      </trkpt>
      <trkpt lat="45.0869" lon="6.14935">
        <ele>2021.8</ele>
        <time>2024-08-09T11:51:29Z</time>
      </trkpt>
      <trkpt lat="45.0869" lon="6.14935">
        <ele>2021.6</ele>
        <time>2024-08-09T11:51:30Z</time>
      </trkpt>
      <trkpt lat="45.0869" lon="6.14935">
        <ele>2021.6</ele>
        <time>2024-08-09T11:51:31Z</time>
      </trkpt>
      <trkpt lat="45.0869" lon="6.14935">
        <ele>2021.6</ele>
        <time>2024-08-09T11:51:32Z</time>
      </trkpt>
      <trkpt lat="45.0869" lon="6.14935">
        <ele>2021.6</ele>
        <time>2024-08-09T11:51:33Z</time>
      </trkpt>
      <trkpt lat="45.0869" lon="6.14935">
        <ele>2021.6</ele>
        <time>2024-08-09T11:51:34Z</time>
      </trkpt>
      <trkpt lat="45.0869" lon="6.14935">
        <ele>2021.8</ele>
        <time>2024-08-09T11:51:35Z</time>
      </trkpt>
      <trkpt lat="45.0869" lon="6.14935">
        <ele>2021.8</ele>
        <time>2024-08-09T11:51:36Z</time>
      </trkpt>
      <trkpt lat="45.0869" lon="6.14935">
        <ele>2021.8</ele>
        <time>2024-08-09T11:51:37Z</time>
      </trkpt>
      <trkpt lat="45.0869" lon="6.14935">
        <ele>2021.8</ele>
        <time>2024-08-09T11:51:38Z</time>
      </trkpt>
      <trkpt lat="45.0869" lon="6.14935">
        <ele>2021.8</ele>
        <time>2024-08-09T11:51:39Z</time>
      </trkpt>
      <trkpt lat="45.0869" lon="6.14935">
        <ele>2022</ele>
        <time>2024-08-09T11:51:40Z</time>
      </trkpt>
      <trkpt lat="45.0869" lon="6.14935">
        <ele>2022.6</ele>
        <time>2024-08-09T11:51:41Z</time>
      </trkpt>
      <trkpt lat="45.0869" lon="6.14935">
        <ele>2022.6</ele>
        <time>2024-08-09T11:51:42Z</time>
      </trkpt>
      <trkpt lat="45.0869" lon="6.14935">
        <ele>2021.8</ele>
        <time>2024-08-09T11:51:43Z</time>
      </trkpt>
      <trkpt lat="45.0869" lon="6.14935">
        <ele>2021.8</ele>
        <time>2024-08-09T11:51:44Z</time>
      </trkpt>
      <trkpt lat="45.0869" lon="6.14935">
        <ele>2021.6</ele>
        <time>2024-08-09T11:51:45Z</time>
      </trkpt>
      <trkpt lat="45.0869" lon="6.14935">
        <ele>2021.6</ele>
        <time>2024-08-09T11:51:46Z</time>
      </trkpt>
      <trkpt lat="45.0869" lon="6.14935">
        <ele>2021.6</ele>
        <time>2024-08-09T11:51:47Z</time>
      </trkpt>
      <trkpt lat="45.0869" lon="6.14935">
        <ele>2021.6</ele>
        <time>2024-08-09T11:51:48Z</time>
      </trkpt>
      <trkpt lat="45.0869" lon="6.14935">
        <ele>2021.6</ele>
        <time>2024-08-09T11:51:49Z</time>
      </trkpt>
      <trkpt lat="45.0869" lon="6.14935">
        <ele>2021.6</ele>
        <time>2024-08-09T11:51:50Z</time>
      </trkpt>
      <trkpt lat="45.0869" lon="6.14935">
        <ele>2021.4</ele>
        <time>2024-08-09T11:51:51Z</time>
      </trkpt>
      <trkpt lat="45.0869" lon="6.14935">
        <ele>2021.2</ele>
        <time>2024-08-09T11:51:52Z</time>
      </trkpt>
      <trkpt lat="45.0869" lon="6.14935">
        <ele>2021.2</ele>
        <time>2024-08-09T11:51:53Z</time>
      </trkpt>
      <trkpt lat="45.0869" lon="6.14935">
        <ele>2021.2</ele>
        <time>2024-08-09T11:51:54Z</time>
      </trkpt>
      <trkpt lat="45.0869" lon="6.14935">
        <ele>2021.4</ele>
        <time>2024-08-09T11:51:55Z</time>
      </trkpt>
      <trkpt lat="45.0869" lon="6.14935">
        <ele>2021.6</ele>
        <time>2024-08-09T11:51:56Z</time>
      </trkpt>
      <trkpt lat="45.0869" lon="6.14935">
        <ele>2021.6</ele>
        <time>2024-08-09T11:51:57Z</time>
      </trkpt>
      <trkpt lat="45.0869" lon="6.14935">
        <ele>2021.6</ele>
        <time>2024-08-09T11:51:58Z</time>
      </trkpt>
      <trkpt lat="45.0869" lon="6.14935">
        <ele>2021.2</ele>
        <time>2024-08-09T11:51:59Z</time>
      </trkpt>
      <trkpt lat="45.0869" lon="6.14935">
        <ele>2021</ele>
        <time>2024-08-09T11:52:00Z</time>
      </trkpt>
      <trkpt lat="45.0869" lon="6.14935">
        <ele>2021</ele>
        <time>2024-08-09T11:52:01Z</time>
      </trkpt>
      <trkpt lat="45.0869" lon="6.14935">
        <ele>2020.8</ele>
        <time>2024-08-09T11:52:02Z</time>
      </trkpt>
      <trkpt lat="45.0869" lon="6.14935">
        <ele>2020.8</ele>
        <time>2024-08-09T11:52:03Z</time>
      </trkpt>
      <trkpt lat="45.0869" lon="6.14935">
        <ele>2020.6</ele>
        <time>2024-08-09T11:52:04Z</time>
      </trkpt>
      <trkpt lat="45.0869" lon="6.14935">
        <ele>2020.6</ele>
        <time>2024-08-09T11:52:05Z</time>
      </trkpt>
      <trkpt lat="45.0869" lon="6.14935">
        <ele>2020.6</ele>
        <time>2024-08-09T11:52:06Z</time>
      </trkpt>
      <trkpt lat="45.0869" lon="6.14935">
        <ele>2020.6</ele>
        <time>2024-08-09T11:52:07Z</time>
      </trkpt>
      <trkpt lat="45.0869" lon="6.14935">
        <ele>2020.6</ele>
        <time>2024-08-09T11:52:08Z</time>
      </trkpt>
      <trkpt lat="45.0869" lon="6.14935">
        <ele>2020.8</ele>
        <time>2024-08-09T11:52:09Z</time>
      </trkpt>
      <trkpt lat="45.0869" lon="6.14935">
        <ele>2021</ele>
        <time>2024-08-09T11:52:10Z</time>
      </trkpt>
      <trkpt lat="45.0869" lon="6.14935">
        <ele>2021</ele>
        <time>2024-08-09T11:52:11Z</time>
      </trkpt>
      <trkpt lat="45.0869" lon="6.14935">
        <ele>2021</ele>
        <time>2024-08-09T11:52:12Z</time>
      </trkpt>
      <trkpt lat="45.0869" lon="6.14935">
        <ele>2021</ele>
        <time>2024-08-09T11:52:13Z</time>
      </trkpt>
      <trkpt lat="45.0869" lon="6.14935">
        <ele>2020.8</ele>
        <time>2024-08-09T11:52:14Z</time>
      </trkpt>
      <trkpt lat="45.0869" lon="6.14935">
        <ele>2020.8</ele>
        <time>2024-08-09T11:52:15Z</time>
      </trkpt>
      <trkpt lat="45.0869" lon="6.14935">
        <ele>2020.8</ele>
        <time>2024-08-09T11:52:16Z</time>
      </trkpt>
      <trkpt lat="45.0869" lon="6.14935">
        <ele>2020.4</ele>
        <time>2024-08-09T11:52:17Z</time>
      </trkpt>
      <trkpt lat="45.08689" lon="6.14937">
        <ele>2020.2</ele>
        <time>2024-08-09T11:52:18Z</time>
      </trkpt>
      <trkpt lat="45.08689" lon="6.14937">
        <ele>2020.2</ele>
        <time>2024-08-09T11:52:19Z</time>
      </trkpt>
      <trkpt lat="45.08689" lon="6.14937">
        <ele>2020</ele>
        <time>2024-08-09T11:52:20Z</time>
      </trkpt>
      <trkpt lat="45.08689" lon="6.14937">
        <ele>2019.8</ele>
        <time>2024-08-09T11:52:21Z</time>
      </trkpt>
      <trkpt lat="45.08692" lon="6.14936">
        <ele>2019.4</ele>
        <time>2024-08-09T11:52:22Z</time>
      </trkpt>
      <trkpt lat="45.08693" lon="6.14936">
        <ele>2019.2</ele>
        <time>2024-08-09T11:52:23Z</time>
      </trkpt>
      <trkpt lat="45.08693" lon="6.14936">
        <ele>2019</ele>
        <time>2024-08-09T11:52:24Z</time>
      </trkpt>
      <trkpt lat="45.08696" lon="6.14935">
        <ele>2018.8</ele>
        <time>2024-08-09T11:52:25Z</time>
      </trkpt>
      <trkpt lat="45.08696" lon="6.14935">
        <ele>2018.6</ele>
        <time>2024-08-09T11:52:26Z</time>
      </trkpt>
      <trkpt lat="45.087" lon="6.14934">
        <ele>2018.6</ele>
        <time>2024-08-09T11:52:27Z</time>
      </trkpt>
      <trkpt lat="45.087" lon="6.14934">
        <ele>2018.4</ele>
        <time>2024-08-09T11:52:28Z</time>
      </trkpt>
      <trkpt lat="45.08702" lon="6.14933">
        <ele>2018.4</ele>
        <time>2024-08-09T11:52:29Z</time>
      </trkpt>
      <trkpt lat="45.08702" lon="6.14933">
        <ele>2018.2</ele>
        <time>2024-08-09T11:52:30Z</time>
      </trkpt>
      <trkpt lat="45.08705" lon="6.14932">
        <ele>2018.2</ele>
        <time>2024-08-09T11:52:31Z</time>
      </trkpt>
      <trkpt lat="45.08705" lon="6.14932">
        <ele>2018.2</ele>
        <time>2024-08-09T11:52:32Z</time>
      </trkpt>
      <trkpt lat="45.08708" lon="6.14932">
        <ele>2018.2</ele>
        <time>2024-08-09T11:52:33Z</time>
      </trkpt>
      <trkpt lat="45.08708" lon="6.14932">
        <ele>2017.8</ele>
        <time>2024-08-09T11:52:34Z</time>
      </trkpt>
      <trkpt lat="45.08709" lon="6.14932">
        <ele>2017.6</ele>
        <time>2024-08-09T11:52:35Z</time>
      </trkpt>
      <trkpt lat="45.08709" lon="6.14932">
        <ele>2017.6</ele>
        <time>2024-08-09T11:52:36Z</time>
      </trkpt>
      <trkpt lat="45.08712" lon="6.14932">
        <ele>2017.4</ele>
        <time>2024-08-09T11:52:37Z</time>
      </trkpt>
      <trkpt lat="45.08712" lon="6.14932">
        <ele>2017</ele>
        <time>2024-08-09T11:52:38Z</time>
      </trkpt>
      <trkpt lat="45.08714" lon="6.14931">
        <ele>2016.8</ele>
        <time>2024-08-09T11:52:39Z</time>
      </trkpt>
      <trkpt lat="45.08714" lon="6.14931">
        <ele>2016.6</ele>
        <time>2024-08-09T11:52:40Z</time>
      </trkpt>
      <trkpt lat="45.08714" lon="6.14931">
        <ele>2016.4</ele>
        <time>2024-08-09T11:52:41Z</time>
      </trkpt>
      <trkpt lat="45.08715" lon="6.14928">
        <ele>2016</ele>
        <time>2024-08-09T11:52:42Z</time>
      </trkpt>
      <trkpt lat="45.08715" lon="6.14928">
        <ele>2016</ele>
        <time>2024-08-09T11:52:43Z</time>
      </trkpt>
      <trkpt lat="45.08715" lon="6.14928">
        <ele>2016</ele>
        <time>2024-08-09T11:52:44Z</time>
      </trkpt>
      <trkpt lat="45.08713" lon="6.14926">
        <ele>2015.6</ele>
        <time>2024-08-09T11:52:45Z</time>
      </trkpt>
      <trkpt lat="45.08713" lon="6.14926">
        <ele>2015.2</ele>
        <time>2024-08-09T11:52:46Z</time>
      </trkpt>
      <trkpt lat="45.08713" lon="6.14926">
        <ele>2015</ele>
        <time>2024-08-09T11:52:47Z</time>
      </trkpt>
      <trkpt lat="45.08711" lon="6.14924">
        <ele>2014.4</ele>
        <time>2024-08-09T11:52:48Z</time>
      </trkpt>
      <trkpt lat="45.08711" lon="6.14924">
        <ele>2014</ele>
        <time>2024-08-09T11:52:49Z</time>
      </trkpt>
      <trkpt lat="45.08711" lon="6.14924">
        <ele>2013.8</ele>
        <time>2024-08-09T11:52:50Z</time>
      </trkpt>
      <trkpt lat="45.08711" lon="6.14924">
        <ele>2013.8</ele>
        <time>2024-08-09T11:52:51Z</time>
      </trkpt>
      <trkpt lat="45.08709" lon="6.14922">
        <ele>2013.2</ele>
        <time>2024-08-09T11:52:52Z</time>
      </trkpt>
      <trkpt lat="45.08709" lon="6.14922">
        <ele>2013.2</ele>
        <time>2024-08-09T11:52:53Z</time>
      </trkpt>
      <trkpt lat="45.08709" lon="6.14922">
        <ele>2013</ele>
        <time>2024-08-09T11:52:54Z</time>
      </trkpt>
      <trkpt lat="45.08709" lon="6.14922">
        <ele>2012.4</ele>
        <time>2024-08-09T11:52:55Z</time>
      </trkpt>
      <trkpt lat="45.08709" lon="6.14922">
        <ele>2012.2</ele>
        <time>2024-08-09T11:52:56Z</time>
      </trkpt>
      <trkpt lat="45.08709" lon="6.14922">
        <ele>2012</ele>
        <time>2024-08-09T11:52:57Z</time>
      </trkpt>
      <trkpt lat="45.08709" lon="6.14922">
        <ele>2011.8</ele>
        <time>2024-08-09T11:52:58Z</time>
      </trkpt>
      <trkpt lat="45.08709" lon="6.14922">
        <ele>2011.4</ele>
        <time>2024-08-09T11:52:59Z</time>
      </trkpt>
      <trkpt lat="45.08709" lon="6.14922">
        <ele>2011</ele>
        <time>2024-08-09T11:53:00Z</time>
      </trkpt>
      <trkpt lat="45.08709" lon="6.14922">
        <ele>2010.8</ele>
        <time>2024-08-09T11:53:01Z</time>
      </trkpt>
      <trkpt lat="45.08709" lon="6.14922">
        <ele>2010.8</ele>
        <time>2024-08-09T11:53:02Z</time>
      </trkpt>
      <trkpt lat="45.08709" lon="6.14922">
        <ele>2010.8</ele>
        <time>2024-08-09T11:53:03Z</time>
      </trkpt>
      <trkpt lat="45.0871" lon="6.14919">
        <ele>2010.8</ele>
        <time>2024-08-09T11:53:04Z</time>
      </trkpt>
      <trkpt lat="45.0871" lon="6.14919">
        <ele>2010.6</ele>
        <time>2024-08-09T11:53:05Z</time>
      </trkpt>
      <trkpt lat="45.08712" lon="6.14919">
        <ele>2010.6</ele>
        <time>2024-08-09T11:53:06Z</time>
      </trkpt>
      <trkpt lat="45.08714" lon="6.14919">
        <ele>2010</ele>
        <time>2024-08-09T11:53:07Z</time>
      </trkpt>
      <trkpt lat="45.08716" lon="6.14919">
        <ele>2009.6</ele>
        <time>2024-08-09T11:53:08Z</time>
      </trkpt>
      <trkpt lat="45.08718" lon="6.14919">
        <ele>2009.6</ele>
        <time>2024-08-09T11:53:09Z</time>
      </trkpt>
      <trkpt lat="45.08718" lon="6.14919">
        <ele>2009</ele>
        <time>2024-08-09T11:53:10Z</time>
      </trkpt>
      <trkpt lat="45.08721" lon="6.14919">
        <ele>2009</ele>
        <time>2024-08-09T11:53:11Z</time>
      </trkpt>
      <trkpt lat="45.08721" lon="6.14919">
        <ele>2009</ele>
        <time>2024-08-09T11:53:12Z</time>
      </trkpt>
      <trkpt lat="45.08724" lon="6.14918">
        <ele>2009</ele>
        <time>2024-08-09T11:53:13Z</time>
      </trkpt>
      <trkpt lat="45.08724" lon="6.14918">
        <ele>2008.8</ele>
        <time>2024-08-09T11:53:14Z</time>
      </trkpt>
      <trkpt lat="45.08725" lon="6.14916">
        <ele>2008.8</ele>
        <time>2024-08-09T11:53:15Z</time>
      </trkpt>
      <trkpt lat="45.08725" lon="6.14916">
        <ele>2008</ele>
        <time>2024-08-09T11:53:16Z</time>
      </trkpt>
      <trkpt lat="45.08727" lon="6.14914">
        <ele>2008</ele>
        <time>2024-08-09T11:53:17Z</time>
      </trkpt>
      <trkpt lat="45.08727" lon="6.14914">
        <ele>2008</ele>
        <time>2024-08-09T11:53:18Z</time>
      </trkpt>
      <trkpt lat="45.0873" lon="6.14913">
        <ele>2008</ele>
        <time>2024-08-09T11:53:19Z</time>
      </trkpt>
      <trkpt lat="45.0873" lon="6.14913">
        <ele>2007.8</ele>
        <time>2024-08-09T11:53:20Z</time>
      </trkpt>
      <trkpt lat="45.08732" lon="6.14912">
        <ele>2008</ele>
        <time>2024-08-09T11:53:21Z</time>
      </trkpt>
      <trkpt lat="45.08732" lon="6.14912">
        <ele>2008</ele>
        <time>2024-08-09T11:53:22Z</time>
      </trkpt>
      <trkpt lat="45.08734" lon="6.14911">
        <ele>2007.6</ele>
        <time>2024-08-09T11:53:23Z</time>
      </trkpt>
      <trkpt lat="45.08734" lon="6.14911">
        <ele>2007.2</ele>
        <time>2024-08-09T11:53:24Z</time>
      </trkpt>
      <trkpt lat="45.08736" lon="6.14908">
        <ele>2007</ele>
        <time>2024-08-09T11:53:25Z</time>
      </trkpt>
      <trkpt lat="45.08736" lon="6.14908">
        <ele>2006.8</ele>
        <time>2024-08-09T11:53:26Z</time>
      </trkpt>
      <trkpt lat="45.08736" lon="6.14908">
        <ele>2006.8</ele>
        <time>2024-08-09T11:53:27Z</time>
      </trkpt>
      <trkpt lat="45.08736" lon="6.14908">
        <ele>2006.6</ele>
        <time>2024-08-09T11:53:28Z</time>
      </trkpt>
      <trkpt lat="45.08736" lon="6.14908">
        <ele>2006.6</ele>
        <time>2024-08-09T11:53:29Z</time>
      </trkpt>
      <trkpt lat="45.08736" lon="6.14908">
        <ele>2006.6</ele>
        <time>2024-08-09T11:53:30Z</time>
      </trkpt>
      <trkpt lat="45.08736" lon="6.14908">
        <ele>2006.6</ele>
        <time>2024-08-09T11:53:31Z</time>
      </trkpt>
      <trkpt lat="45.08738" lon="6.14906">
        <ele>2006.6</ele>
        <time>2024-08-09T11:53:32Z</time>
      </trkpt>
      <trkpt lat="45.08738" lon="6.14906">
        <ele>2006.8</ele>
        <time>2024-08-09T11:53:33Z</time>
      </trkpt>
      <trkpt lat="45.08741" lon="6.14906">
        <ele>2006.8</ele>
        <time>2024-08-09T11:53:34Z</time>
      </trkpt>
      <trkpt lat="45.08743" lon="6.14906">
        <ele>2007</ele>
        <time>2024-08-09T11:53:35Z</time>
      </trkpt>
      <trkpt lat="45.08745" lon="6.14906">
        <ele>2007</ele>
        <time>2024-08-09T11:53:36Z</time>
      </trkpt>
      <trkpt lat="45.08745" lon="6.14906">
        <ele>2007</ele>
        <time>2024-08-09T11:53:37Z</time>
      </trkpt>
      <trkpt lat="45.08748" lon="6.14907">
        <ele>2007</ele>
        <time>2024-08-09T11:53:38Z</time>
      </trkpt>
      <trkpt lat="45.08748" lon="6.14907">
        <ele>2007.4</ele>
        <time>2024-08-09T11:53:39Z</time>
      </trkpt>
      <trkpt lat="45.0875" lon="6.14906">
        <ele>2007.6</ele>
        <time>2024-08-09T11:53:40Z</time>
      </trkpt>
      <trkpt lat="45.0875" lon="6.14906">
        <ele>2007.6</ele>
        <time>2024-08-09T11:53:41Z</time>
      </trkpt>
      <trkpt lat="45.08753" lon="6.14905">
        <ele>2007.6</ele>
        <time>2024-08-09T11:53:42Z</time>
      </trkpt>
      <trkpt lat="45.08753" lon="6.14905">
        <ele>2007.6</ele>
        <time>2024-08-09T11:53:43Z</time>
      </trkpt>
      <trkpt lat="45.08756" lon="6.14905">
        <ele>2007.6</ele>
        <time>2024-08-09T11:53:44Z</time>
      </trkpt>
      <trkpt lat="45.08758" lon="6.14906">
        <ele>2007.6</ele>
        <time>2024-08-09T11:53:45Z</time>
      </trkpt>
      <trkpt lat="45.08758" lon="6.14906">
        <ele>2007.6</ele>
        <time>2024-08-09T11:53:46Z</time>
      </trkpt>
      <trkpt lat="45.0876" lon="6.14906">
        <ele>2007.8</ele>
        <time>2024-08-09T11:53:47Z</time>
      </trkpt>
      <trkpt lat="45.0876" lon="6.14906">
        <ele>2007.8</ele>
        <time>2024-08-09T11:53:48Z</time>
      </trkpt>
      <trkpt lat="45.08764" lon="6.14907">
        <ele>2008.2</ele>
        <time>2024-08-09T11:53:49Z</time>
      </trkpt>
      <trkpt lat="45.08764" lon="6.14907">
        <ele>2008.6</ele>
        <time>2024-08-09T11:53:50Z</time>
      </trkpt>
      <trkpt lat="45.08766" lon="6.14907">
        <ele>2008.6</ele>
        <time>2024-08-09T11:53:51Z</time>
      </trkpt>
      <trkpt lat="45.08766" lon="6.14907">
        <ele>2008.4</ele>
        <time>2024-08-09T11:53:52Z</time>
      </trkpt>
      <trkpt lat="45.0877" lon="6.14908">
        <ele>2008.4</ele>
        <time>2024-08-09T11:53:53Z</time>
      </trkpt>
      <trkpt lat="45.0877" lon="6.14908">
        <ele>2008.4</ele>
        <time>2024-08-09T11:53:54Z</time>
      </trkpt>
      <trkpt lat="45.08773" lon="6.14908">
        <ele>2008.4</ele>
        <time>2024-08-09T11:53:55Z</time>
      </trkpt>
      <trkpt lat="45.08773" lon="6.14908">
        <ele>2008.4</ele>
        <time>2024-08-09T11:53:56Z</time>
      </trkpt>
      <trkpt lat="45.08775" lon="6.14909">
        <ele>2008.4</ele>
        <time>2024-08-09T11:53:57Z</time>
      </trkpt>
      <trkpt lat="45.08775" lon="6.14909">
        <ele>2008.4</ele>
        <time>2024-08-09T11:53:58Z</time>
      </trkpt>
      <trkpt lat="45.08778" lon="6.1491">
        <ele>2008</ele>
        <time>2024-08-09T11:53:59Z</time>
      </trkpt>
      <trkpt lat="45.08778" lon="6.1491">
        <ele>2008</ele>
        <time>2024-08-09T11:54:00Z</time>
      </trkpt>
      <trkpt lat="45.08781" lon="6.1491">
        <ele>2008</ele>
        <time>2024-08-09T11:54:01Z</time>
      </trkpt>
      <trkpt lat="45.08781" lon="6.1491">
        <ele>2007.8</ele>
        <time>2024-08-09T11:54:02Z</time>
      </trkpt>
      <trkpt lat="45.08784" lon="6.14911">
        <ele>2007.8</ele>
        <time>2024-08-09T11:54:03Z</time>
      </trkpt>
      <trkpt lat="45.08784" lon="6.14911">
        <ele>2007.2</ele>
        <time>2024-08-09T11:54:04Z</time>
      </trkpt>
      <trkpt lat="45.08787" lon="6.14912">
        <ele>2007</ele>
        <time>2024-08-09T11:54:05Z</time>
      </trkpt>
      <trkpt lat="45.08787" lon="6.14912">
        <ele>2007</ele>
        <time>2024-08-09T11:54:06Z</time>
      </trkpt>
      <trkpt lat="45.08789" lon="6.14912">
        <ele>2006.8</ele>
        <time>2024-08-09T11:54:07Z</time>
      </trkpt>
      <trkpt lat="45.08789" lon="6.14912">
        <ele>2006.8</ele>
        <time>2024-08-09T11:54:08Z</time>
      </trkpt>
      <trkpt lat="45.08793" lon="6.14913">
        <ele>2006.4</ele>
        <time>2024-08-09T11:54:09Z</time>
      </trkpt>
      <trkpt lat="45.08793" lon="6.14913">
        <ele>2006.4</ele>
        <time>2024-08-09T11:54:10Z</time>
      </trkpt>
      <trkpt lat="45.08795" lon="6.14914">
        <ele>2006.4</ele>
        <time>2024-08-09T11:54:11Z</time>
      </trkpt>
      <trkpt lat="45.08795" lon="6.14914">
        <ele>2006.2</ele>
        <time>2024-08-09T11:54:12Z</time>
      </trkpt>
      <trkpt lat="45.08799" lon="6.14915">
        <ele>2006</ele>
        <time>2024-08-09T11:54:13Z</time>
      </trkpt>
      <trkpt lat="45.08799" lon="6.14915">
        <ele>2006</ele>
        <time>2024-08-09T11:54:14Z</time>
      </trkpt>
      <trkpt lat="45.08801" lon="6.14915">
        <ele>2006</ele>
        <time>2024-08-09T11:54:15Z</time>
      </trkpt>
      <trkpt lat="45.08801" lon="6.14915">
        <ele>2005.8</ele>
        <time>2024-08-09T11:54:16Z</time>
      </trkpt>
      <trkpt lat="45.08805" lon="6.14916">
        <ele>2005.6</ele>
        <time>2024-08-09T11:54:17Z</time>
      </trkpt>
      <trkpt lat="45.08805" lon="6.14916">
        <ele>2005.6</ele>
        <time>2024-08-09T11:54:18Z</time>
      </trkpt>
      <trkpt lat="45.08807" lon="6.14917">
        <ele>2005.4</ele>
        <time>2024-08-09T11:54:19Z</time>
      </trkpt>
      <trkpt lat="45.08807" lon="6.14917">
        <ele>2005.2</ele>
        <time>2024-08-09T11:54:20Z</time>
      </trkpt>
      <trkpt lat="45.0881" lon="6.14919">
        <ele>2005</ele>
        <time>2024-08-09T11:54:21Z</time>
      </trkpt>
      <trkpt lat="45.0881" lon="6.14919">
        <ele>2005</ele>
        <time>2024-08-09T11:54:22Z</time>
      </trkpt>
      <trkpt lat="45.08813" lon="6.1492">
        <ele>2004.8</ele>
        <time>2024-08-09T11:54:23Z</time>
      </trkpt>
      <trkpt lat="45.08813" lon="6.1492">
        <ele>2004.8</ele>
        <time>2024-08-09T11:54:24Z</time>
      </trkpt>
      <trkpt lat="45.08816" lon="6.14921">
        <ele>2004.6</ele>
        <time>2024-08-09T11:54:25Z</time>
      </trkpt>
      <trkpt lat="45.08817" lon="6.14923">
        <ele>2004.6</ele>
        <time>2024-08-09T11:54:26Z</time>
      </trkpt>
      <trkpt lat="45.08817" lon="6.14923">
        <ele>2004.4</ele>
        <time>2024-08-09T11:54:27Z</time>
      </trkpt>
      <trkpt lat="45.08821" lon="6.14924">
        <ele>2004.4</ele>
        <time>2024-08-09T11:54:28Z</time>
      </trkpt>
      <trkpt lat="45.08821" lon="6.14924">
        <ele>2004</ele>
        <time>2024-08-09T11:54:29Z</time>
      </trkpt>
      <trkpt lat="45.08823" lon="6.14926">
        <ele>2004</ele>
        <time>2024-08-09T11:54:30Z</time>
      </trkpt>
      <trkpt lat="45.08823" lon="6.14926">
        <ele>2003.6</ele>
        <time>2024-08-09T11:54:31Z</time>
      </trkpt>
      <trkpt lat="45.08826" lon="6.14928">
        <ele>2003.6</ele>
        <time>2024-08-09T11:54:32Z</time>
      </trkpt>
      <trkpt lat="45.08826" lon="6.14928">
        <ele>2003.4</ele>
        <time>2024-08-09T11:54:33Z</time>
      </trkpt>
      <trkpt lat="45.08829" lon="6.1493">
        <ele>2003.2</ele>
        <time>2024-08-09T11:54:34Z</time>
      </trkpt>
      <trkpt lat="45.08829" lon="6.1493">
        <ele>2003</ele>
        <time>2024-08-09T11:54:35Z</time>
      </trkpt>
      <trkpt lat="45.08831" lon="6.14932">
        <ele>2002.8</ele>
        <time>2024-08-09T11:54:36Z</time>
      </trkpt>
      <trkpt lat="45.08831" lon="6.14932">
        <ele>2002.8</ele>
        <time>2024-08-09T11:54:37Z</time>
      </trkpt>
      <trkpt lat="45.08833" lon="6.14933">
        <ele>2002.6</ele>
        <time>2024-08-09T11:54:38Z</time>
      </trkpt>
      <trkpt lat="45.08833" lon="6.14933">
        <ele>2002.6</ele>
        <time>2024-08-09T11:54:39Z</time>
      </trkpt>
      <trkpt lat="45.08837" lon="6.14934">
        <ele>2002.4</ele>
        <time>2024-08-09T11:54:40Z</time>
      </trkpt>
      <trkpt lat="45.08838" lon="6.14934">
        <ele>2002</ele>
        <time>2024-08-09T11:54:41Z</time>
      </trkpt>
      <trkpt lat="45.08838" lon="6.14934">
        <ele>2002</ele>
        <time>2024-08-09T11:54:42Z</time>
      </trkpt>
      <trkpt lat="45.08841" lon="6.14935">
        <ele>2001.8</ele>
        <time>2024-08-09T11:54:43Z</time>
      </trkpt>
      <trkpt lat="45.08841" lon="6.14935">
        <ele>2001.6</ele>
        <time>2024-08-09T11:54:44Z</time>
      </trkpt>
      <trkpt lat="45.08844" lon="6.14936">
        <ele>2001.6</ele>
        <time>2024-08-09T11:54:45Z</time>
      </trkpt>
      <trkpt lat="45.08846" lon="6.14936">
        <ele>2001.4</ele>
        <time>2024-08-09T11:54:46Z</time>
      </trkpt>
      <trkpt lat="45.08846" lon="6.14936">
        <ele>2001.2</ele>
        <time>2024-08-09T11:54:47Z</time>
      </trkpt>
      <trkpt lat="45.08849" lon="6.14937">
        <ele>2000.8</ele>
        <time>2024-08-09T11:54:48Z</time>
      </trkpt>
      <trkpt lat="45.08849" lon="6.14937">
        <ele>2000.8</ele>
        <time>2024-08-09T11:54:49Z</time>
      </trkpt>
      <trkpt lat="45.08852" lon="6.14938">
        <ele>2000.6</ele>
        <time>2024-08-09T11:54:50Z</time>
      </trkpt>
      <trkpt lat="45.08852" lon="6.14938">
        <ele>2000.4</ele>
        <time>2024-08-09T11:54:51Z</time>
      </trkpt>
      <trkpt lat="45.08855" lon="6.14938">
        <ele>2000</ele>
        <time>2024-08-09T11:54:52Z</time>
      </trkpt>
      <trkpt lat="45.08855" lon="6.14938">
        <ele>2000</ele>
        <time>2024-08-09T11:54:53Z</time>
      </trkpt>
      <trkpt lat="45.08858" lon="6.14939">
        <ele>1999.8</ele>
        <time>2024-08-09T11:54:54Z</time>
      </trkpt>
      <trkpt lat="45.0886" lon="6.14939">
        <ele>1999.8</ele>
        <time>2024-08-09T11:54:55Z</time>
      </trkpt>
      <trkpt lat="45.0886" lon="6.14939">
        <ele>1999.8</ele>
        <time>2024-08-09T11:54:56Z</time>
      </trkpt>
      <trkpt lat="45.08863" lon="6.14938">
        <ele>1999.6</ele>
        <time>2024-08-09T11:54:57Z</time>
      </trkpt>
      <trkpt lat="45.08863" lon="6.14938">
        <ele>1999.4</ele>
        <time>2024-08-09T11:54:58Z</time>
      </trkpt>
      <trkpt lat="45.08866" lon="6.14939">
        <ele>1999.4</ele>
        <time>2024-08-09T11:54:59Z</time>
      </trkpt>
      <trkpt lat="45.08866" lon="6.14939">
        <ele>1999.2</ele>
        <time>2024-08-09T11:55:00Z</time>
      </trkpt>
      <trkpt lat="45.08869" lon="6.14939">
        <ele>1999</ele>
        <time>2024-08-09T11:55:01Z</time>
      </trkpt>
      <trkpt lat="45.08869" lon="6.14939">
        <ele>1999</ele>
        <time>2024-08-09T11:55:02Z</time>
      </trkpt>
      <trkpt lat="45.08872" lon="6.14939">
        <ele>1999</ele>
        <time>2024-08-09T11:55:03Z</time>
      </trkpt>
      <trkpt lat="45.08872" lon="6.14939">
        <ele>1999.2</ele>
        <time>2024-08-09T11:55:04Z</time>
      </trkpt>
      <trkpt lat="45.08875" lon="6.14937">
        <ele>1999.2</ele>
        <time>2024-08-09T11:55:05Z</time>
      </trkpt>
      <trkpt lat="45.08875" lon="6.14937">
        <ele>1998.6</ele>
        <time>2024-08-09T11:55:06Z</time>
      </trkpt>
      <trkpt lat="45.08877" lon="6.14936">
        <ele>1998.2</ele>
        <time>2024-08-09T11:55:07Z</time>
      </trkpt>
      <trkpt lat="45.08877" lon="6.14936">
        <ele>1998</ele>
        <time>2024-08-09T11:55:08Z</time>
      </trkpt>
      <trkpt lat="45.0888" lon="6.14935">
        <ele>1998</ele>
        <time>2024-08-09T11:55:09Z</time>
      </trkpt>
      <trkpt lat="45.0888" lon="6.14935">
        <ele>1998</ele>
        <time>2024-08-09T11:55:10Z</time>
      </trkpt>
      <trkpt lat="45.08883" lon="6.14933">
        <ele>1997.8</ele>
        <time>2024-08-09T11:55:11Z</time>
      </trkpt>
      <trkpt lat="45.08883" lon="6.14933">
        <ele>1997.8</ele>
        <time>2024-08-09T11:55:12Z</time>
      </trkpt>
      <trkpt lat="45.08885" lon="6.1493">
        <ele>1997.6</ele>
        <time>2024-08-09T11:55:13Z</time>
      </trkpt>
      <trkpt lat="45.08886" lon="6.14928">
        <ele>1997.6</ele>
        <time>2024-08-09T11:55:14Z</time>
      </trkpt>
      <trkpt lat="45.08886" lon="6.14928">
        <ele>1997.6</ele>
        <time>2024-08-09T11:55:15Z</time>
      </trkpt>
      <trkpt lat="45.08888" lon="6.14925">
        <ele>1997.6</ele>
        <time>2024-08-09T11:55:16Z</time>
      </trkpt>
      <trkpt lat="45.08888" lon="6.14925">
        <ele>1997.2</ele>
        <time>2024-08-09T11:55:17Z</time>
      </trkpt>
      <trkpt lat="45.08891" lon="6.14922">
        <ele>1997</ele>
        <time>2024-08-09T11:55:18Z</time>
      </trkpt>
      <trkpt lat="45.08891" lon="6.14922">
        <ele>1997</ele>
        <time>2024-08-09T11:55:19Z</time>
      </trkpt>
      <trkpt lat="45.08893" lon="6.1492">
        <ele>1997</ele>
        <time>2024-08-09T11:55:20Z</time>
      </trkpt>
      <trkpt lat="45.08893" lon="6.1492">
        <ele>1997</ele>
        <time>2024-08-09T11:55:21Z</time>
      </trkpt>
      <trkpt lat="45.08895" lon="6.1492">
        <ele>1996.6</ele>
        <time>2024-08-09T11:55:22Z</time>
      </trkpt>
      <trkpt lat="45.08895" lon="6.1492">
        <ele>1996.8</ele>
        <time>2024-08-09T11:55:23Z</time>
      </trkpt>
      <trkpt lat="45.08898" lon="6.1492">
        <ele>1996.8</ele>
        <time>2024-08-09T11:55:24Z</time>
      </trkpt>
      <trkpt lat="45.08898" lon="6.1492">
        <ele>1996.8</ele>
        <time>2024-08-09T11:55:25Z</time>
      </trkpt>
      <trkpt lat="45.08901" lon="6.14919">
        <ele>1996.8</ele>
        <time>2024-08-09T11:55:26Z</time>
      </trkpt>
      <trkpt lat="45.08903" lon="6.14918">
        <ele>1996.8</ele>
        <time>2024-08-09T11:55:27Z</time>
      </trkpt>
      <trkpt lat="45.08903" lon="6.14918">
        <ele>1996.8</ele>
        <time>2024-08-09T11:55:28Z</time>
      </trkpt>
      <trkpt lat="45.08905" lon="6.14918">
        <ele>1996.6</ele>
        <time>2024-08-09T11:55:29Z</time>
      </trkpt>
      <trkpt lat="45.08907" lon="6.14918">
        <ele>1996.4</ele>
        <time>2024-08-09T11:55:30Z</time>
      </trkpt>
      <trkpt lat="45.08907" lon="6.14918">
        <ele>1996</ele>
        <time>2024-08-09T11:55:31Z</time>
      </trkpt>
      <trkpt lat="45.0891" lon="6.14918">
        <ele>1995.8</ele>
        <time>2024-08-09T11:55:32Z</time>
      </trkpt>
      <trkpt lat="45.0891" lon="6.14918">
        <ele>1995.8</ele>
        <time>2024-08-09T11:55:33Z</time>
      </trkpt>
      <trkpt lat="45.08913" lon="6.14918">
        <ele>1995.8</ele>
        <time>2024-08-09T11:55:34Z</time>
      </trkpt>
      <trkpt lat="45.08913" lon="6.14918">
        <ele>1995.8</ele>
        <time>2024-08-09T11:55:35Z</time>
      </trkpt>
      <trkpt lat="45.08917" lon="6.14918">
        <ele>1995.6</ele>
        <time>2024-08-09T11:55:36Z</time>
      </trkpt>
      <trkpt lat="45.08917" lon="6.14918">
        <ele>1995.4</ele>
        <time>2024-08-09T11:55:37Z</time>
      </trkpt>
      <trkpt lat="45.0892" lon="6.14917">
        <ele>1995.2</ele>
        <time>2024-08-09T11:55:38Z</time>
      </trkpt>
      <trkpt lat="45.0892" lon="6.14917">
        <ele>1995</ele>
        <time>2024-08-09T11:55:39Z</time>
      </trkpt>
      <trkpt lat="45.08923" lon="6.14917">
        <ele>1995</ele>
        <time>2024-08-09T11:55:40Z</time>
      </trkpt>
      <trkpt lat="45.08923" lon="6.14917">
        <ele>1995</ele>
        <time>2024-08-09T11:55:41Z</time>
      </trkpt>
      <trkpt lat="45.08926" lon="6.14918">
        <ele>1994.8</ele>
        <time>2024-08-09T11:55:42Z</time>
      </trkpt>
      <trkpt lat="45.08926" lon="6.14918">
        <ele>1994.8</ele>
        <time>2024-08-09T11:55:43Z</time>
      </trkpt>
      <trkpt lat="45.08929" lon="6.1492">
        <ele>1994.6</ele>
        <time>2024-08-09T11:55:44Z</time>
      </trkpt>
      <trkpt lat="45.08929" lon="6.1492">
        <ele>1994.2</ele>
        <time>2024-08-09T11:55:45Z</time>
      </trkpt>
      <trkpt lat="45.08931" lon="6.14921">
        <ele>1994.2</ele>
        <time>2024-08-09T11:55:46Z</time>
      </trkpt>
      <trkpt lat="45.08931" lon="6.14921">
        <ele>1994.2</ele>
        <time>2024-08-09T11:55:47Z</time>
      </trkpt>
      <trkpt lat="45.08934" lon="6.14923">
        <ele>1994.2</ele>
        <time>2024-08-09T11:55:48Z</time>
      </trkpt>
      <trkpt lat="45.08934" lon="6.14923">
        <ele>1994.2</ele>
        <time>2024-08-09T11:55:49Z</time>
      </trkpt>
      <trkpt lat="45.08937" lon="6.14924">
        <ele>1994.2</ele>
        <time>2024-08-09T11:55:50Z</time>
      </trkpt>
      <trkpt lat="45.08937" lon="6.14924">
        <ele>1994.2</ele>
        <time>2024-08-09T11:55:51Z</time>
      </trkpt>
      <trkpt lat="45.0894" lon="6.14925">
        <ele>1994</ele>
        <time>2024-08-09T11:55:52Z</time>
      </trkpt>
      <trkpt lat="45.0894" lon="6.14925">
        <ele>1993.6</ele>
        <time>2024-08-09T11:55:53Z</time>
      </trkpt>
      <trkpt lat="45.08943" lon="6.14926">
        <ele>1993.6</ele>
        <time>2024-08-09T11:55:54Z</time>
      </trkpt>
      <trkpt lat="45.08943" lon="6.14926">
        <ele>1993.4</ele>
        <time>2024-08-09T11:55:55Z</time>
      </trkpt>
      <trkpt lat="45.08946" lon="6.14926">
        <ele>1993.2</ele>
        <time>2024-08-09T11:55:56Z</time>
      </trkpt>
      <trkpt lat="45.08948" lon="6.14926">
        <ele>1993.2</ele>
        <time>2024-08-09T11:55:57Z</time>
      </trkpt>
      <trkpt lat="45.08948" lon="6.14926">
        <ele>1993.2</ele>
        <time>2024-08-09T11:55:58Z</time>
      </trkpt>
      <trkpt lat="45.08951" lon="6.14927">
        <ele>1993.2</ele>
        <time>2024-08-09T11:55:59Z</time>
      </trkpt>
      <trkpt lat="45.08951" lon="6.14927">
        <ele>1993</ele>
        <time>2024-08-09T11:56:00Z</time>
      </trkpt>
      <trkpt lat="45.08954" lon="6.14927">
        <ele>1993</ele>
        <time>2024-08-09T11:56:01Z</time>
      </trkpt>
      <trkpt lat="45.08954" lon="6.14927">
        <ele>1993</ele>
        <time>2024-08-09T11:56:02Z</time>
      </trkpt>
      <trkpt lat="45.08957" lon="6.14926">
        <ele>1993</ele>
        <time>2024-08-09T11:56:03Z</time>
      </trkpt>
      <trkpt lat="45.08957" lon="6.14926">
        <ele>1993</ele>
        <time>2024-08-09T11:56:04Z</time>
      </trkpt>
      <trkpt lat="45.0896" lon="6.14924">
        <ele>1992.8</ele>
        <time>2024-08-09T11:56:05Z</time>
      </trkpt>
      <trkpt lat="45.0896" lon="6.14924">
        <ele>1992.2</ele>
        <time>2024-08-09T11:56:06Z</time>
      </trkpt>
      <trkpt lat="45.08963" lon="6.14922">
        <ele>1991.8</ele>
        <time>2024-08-09T11:56:07Z</time>
      </trkpt>
      <trkpt lat="45.08963" lon="6.14922">
        <ele>1991.6</ele>
        <time>2024-08-09T11:56:08Z</time>
      </trkpt>
      <trkpt lat="45.08966" lon="6.1492">
        <ele>1991.2</ele>
        <time>2024-08-09T11:56:09Z</time>
      </trkpt>
      <trkpt lat="45.08966" lon="6.1492">
        <ele>1991</ele>
        <time>2024-08-09T11:56:10Z</time>
      </trkpt>
      <trkpt lat="45.08968" lon="6.14917">
        <ele>1990.8</ele>
        <time>2024-08-09T11:56:11Z</time>
      </trkpt>
      <trkpt lat="45.08968" lon="6.14917">
        <ele>1990.6</ele>
        <time>2024-08-09T11:56:12Z</time>
      </trkpt>
      <trkpt lat="45.08971" lon="6.14914">
        <ele>1990.6</ele>
        <time>2024-08-09T11:56:13Z</time>
      </trkpt>
      <trkpt lat="45.08971" lon="6.14914">
        <ele>1990.6</ele>
        <time>2024-08-09T11:56:14Z</time>
      </trkpt>
      <trkpt lat="45.08973" lon="6.14911">
        <ele>1990.4</ele>
        <time>2024-08-09T11:56:15Z</time>
      </trkpt>
      <trkpt lat="45.08973" lon="6.14911">
        <ele>1990</ele>
        <time>2024-08-09T11:56:16Z</time>
      </trkpt>
      <trkpt lat="45.08976" lon="6.14908">
        <ele>1989.8</ele>
        <time>2024-08-09T11:56:17Z</time>
      </trkpt>
      <trkpt lat="45.08976" lon="6.14908">
        <ele>1989.8</ele>
        <time>2024-08-09T11:56:18Z</time>
      </trkpt>
      <trkpt lat="45.08978" lon="6.14905">
        <ele>1989.6</ele>
        <time>2024-08-09T11:56:19Z</time>
      </trkpt>
      <trkpt lat="45.0898" lon="6.14904">
        <ele>1989.2</ele>
        <time>2024-08-09T11:56:20Z</time>
      </trkpt>
      <trkpt lat="45.0898" lon="6.14904">
        <ele>1989.2</ele>
        <time>2024-08-09T11:56:21Z</time>
      </trkpt>
      <trkpt lat="45.08983" lon="6.14902">
        <ele>1989.8</ele>
        <time>2024-08-09T11:56:22Z</time>
      </trkpt>
      <trkpt lat="45.08983" lon="6.14902">
        <ele>1989.8</ele>
        <time>2024-08-09T11:56:23Z</time>
      </trkpt>
      <trkpt lat="45.08986" lon="6.14899">
        <ele>1989.2</ele>
        <time>2024-08-09T11:56:24Z</time>
      </trkpt>
      <trkpt lat="45.08986" lon="6.14899">
        <ele>1989.2</ele>
        <time>2024-08-09T11:56:25Z</time>
      </trkpt>
      <trkpt lat="45.08989" lon="6.14898">
        <ele>1989.2</ele>
        <time>2024-08-09T11:56:26Z</time>
      </trkpt>
      <trkpt lat="45.08989" lon="6.14898">
        <ele>1988.8</ele>
        <time>2024-08-09T11:56:27Z</time>
      </trkpt>
      <trkpt lat="45.08992" lon="6.14896">
        <ele>1988.2</ele>
        <time>2024-08-09T11:56:28Z</time>
      </trkpt>
      <trkpt lat="45.08992" lon="6.14896">
        <ele>1988</ele>
        <time>2024-08-09T11:56:29Z</time>
      </trkpt>
      <trkpt lat="45.08995" lon="6.14894">
        <ele>1988</ele>
        <time>2024-08-09T11:56:30Z</time>
      </trkpt>
      <trkpt lat="45.08995" lon="6.14894">
        <ele>1987.8</ele>
        <time>2024-08-09T11:56:31Z</time>
      </trkpt>
      <trkpt lat="45.08997" lon="6.14893">
        <ele>1987.8</ele>
        <time>2024-08-09T11:56:32Z</time>
      </trkpt>
      <trkpt lat="45.08999" lon="6.14891">
        <ele>1987.6</ele>
        <time>2024-08-09T11:56:33Z</time>
      </trkpt>
      <trkpt lat="45.09001" lon="6.1489">
        <ele>1987.4</ele>
        <time>2024-08-09T11:56:34Z</time>
      </trkpt>
      <trkpt lat="45.09001" lon="6.1489">
        <ele>1987.2</ele>
        <time>2024-08-09T11:56:35Z</time>
      </trkpt>
      <trkpt lat="45.09004" lon="6.14888">
        <ele>1987</ele>
        <time>2024-08-09T11:56:36Z</time>
      </trkpt>
      <trkpt lat="45.09006" lon="6.14887">
        <ele>1986.8</ele>
        <time>2024-08-09T11:56:37Z</time>
      </trkpt>
      <trkpt lat="45.09007" lon="6.14886">
        <ele>1986.8</ele>
        <time>2024-08-09T11:56:38Z</time>
      </trkpt>
      <trkpt lat="45.09007" lon="6.14886">
        <ele>1986.8</ele>
        <time>2024-08-09T11:56:39Z</time>
      </trkpt>
      <trkpt lat="45.0901" lon="6.14883">
        <ele>1986.6</ele>
        <time>2024-08-09T11:56:40Z</time>
      </trkpt>
      <trkpt lat="45.09012" lon="6.14882">
        <ele>1986.4</ele>
        <time>2024-08-09T11:56:41Z</time>
      </trkpt>
      <trkpt lat="45.09013" lon="6.14881">
        <ele>1986.2</ele>
        <time>2024-08-09T11:56:42Z</time>
      </trkpt>
      <trkpt lat="45.09013" lon="6.14881">
        <ele>1986.2</ele>
        <time>2024-08-09T11:56:43Z</time>
      </trkpt>
      <trkpt lat="45.09015" lon="6.14878">
        <ele>1986.2</ele>
        <time>2024-08-09T11:56:44Z</time>
      </trkpt>
      <trkpt lat="45.09015" lon="6.14878">
        <ele>1986</ele>
        <time>2024-08-09T11:56:45Z</time>
      </trkpt>
      <trkpt lat="45.09018" lon="6.14876">
        <ele>1985.8</ele>
        <time>2024-08-09T11:56:46Z</time>
      </trkpt>
      <trkpt lat="45.0902" lon="6.14875">
        <ele>1985.8</ele>
        <time>2024-08-09T11:56:47Z</time>
      </trkpt>
      <trkpt lat="45.0902" lon="6.14875">
        <ele>1985.6</ele>
        <time>2024-08-09T11:56:48Z</time>
      </trkpt>
      <trkpt lat="45.09022" lon="6.14873">
        <ele>1985.4</ele>
        <time>2024-08-09T11:56:49Z</time>
      </trkpt>
      <trkpt lat="45.09022" lon="6.14873">
        <ele>1985.2</ele>
        <time>2024-08-09T11:56:50Z</time>
      </trkpt>
      <trkpt lat="45.09026" lon="6.14871">
        <ele>1985.2</ele>
        <time>2024-08-09T11:56:51Z</time>
      </trkpt>
      <trkpt lat="45.09026" lon="6.14871">
        <ele>1985.4</ele>
        <time>2024-08-09T11:56:52Z</time>
      </trkpt>
      <trkpt lat="45.09029" lon="6.14869">
        <ele>1985.2</ele>
        <time>2024-08-09T11:56:53Z</time>
      </trkpt>
      <trkpt lat="45.09029" lon="6.14869">
        <ele>1985.2</ele>
        <time>2024-08-09T11:56:54Z</time>
      </trkpt>
      <trkpt lat="45.09032" lon="6.14867">
        <ele>1985</ele>
        <time>2024-08-09T11:56:55Z</time>
      </trkpt>
      <trkpt lat="45.09032" lon="6.14867">
        <ele>1985</ele>
        <time>2024-08-09T11:56:56Z</time>
      </trkpt>
      <trkpt lat="45.09034" lon="6.14866">
        <ele>1984.8</ele>
        <time>2024-08-09T11:56:57Z</time>
      </trkpt>
      <trkpt lat="45.09034" lon="6.14866">
        <ele>1984.4</ele>
        <time>2024-08-09T11:56:58Z</time>
      </trkpt>
      <trkpt lat="45.09037" lon="6.14865">
        <ele>1984.4</ele>
        <time>2024-08-09T11:56:59Z</time>
      </trkpt>
      <trkpt lat="45.09037" lon="6.14865">
        <ele>1984.4</ele>
        <time>2024-08-09T11:57:00Z</time>
      </trkpt>
      <trkpt lat="45.0904" lon="6.14867">
        <ele>1984.2</ele>
        <time>2024-08-09T11:57:01Z</time>
      </trkpt>
      <trkpt lat="45.09041" lon="6.14869">
        <ele>1983.8</ele>
        <time>2024-08-09T11:57:02Z</time>
      </trkpt>
      <trkpt lat="45.09041" lon="6.14869">
        <ele>1983.8</ele>
        <time>2024-08-09T11:57:03Z</time>
      </trkpt>
      <trkpt lat="45.0904" lon="6.14873">
        <ele>1983.8</ele>
        <time>2024-08-09T11:57:04Z</time>
      </trkpt>
      <trkpt lat="45.0904" lon="6.14873">
        <ele>1983.6</ele>
        <time>2024-08-09T11:57:05Z</time>
      </trkpt>
      <trkpt lat="45.09039" lon="6.14876">
        <ele>1983.4</ele>
        <time>2024-08-09T11:57:06Z</time>
      </trkpt>
      <trkpt lat="45.09037" lon="6.14878">
        <ele>1983</ele>
        <time>2024-08-09T11:57:07Z</time>
      </trkpt>
      <trkpt lat="45.09037" lon="6.14878">
        <ele>1983.2</ele>
        <time>2024-08-09T11:57:08Z</time>
      </trkpt>
      <trkpt lat="45.09035" lon="6.14881">
        <ele>1983</ele>
        <time>2024-08-09T11:57:09Z</time>
      </trkpt>
      <trkpt lat="45.09035" lon="6.14881">
        <ele>1982.8</ele>
        <time>2024-08-09T11:57:10Z</time>
      </trkpt>
      <trkpt lat="45.09032" lon="6.14883">
        <ele>1982.6</ele>
        <time>2024-08-09T11:57:11Z</time>
      </trkpt>
      <trkpt lat="45.09032" lon="6.14883">
        <ele>1982.4</ele>
        <time>2024-08-09T11:57:12Z</time>
      </trkpt>
      <trkpt lat="45.0903" lon="6.14886">
        <ele>1982.2</ele>
        <time>2024-08-09T11:57:13Z</time>
      </trkpt>
      <trkpt lat="45.09029" lon="6.14887">
        <ele>1982</ele>
        <time>2024-08-09T11:57:14Z</time>
      </trkpt>
      <trkpt lat="45.09029" lon="6.14887">
        <ele>1982</ele>
        <time>2024-08-09T11:57:15Z</time>
      </trkpt>
      <trkpt lat="45.09026" lon="6.14891">
        <ele>1981.6</ele>
        <time>2024-08-09T11:57:16Z</time>
      </trkpt>
      <trkpt lat="45.09026" lon="6.14891">
        <ele>1981.4</ele>
        <time>2024-08-09T11:57:17Z</time>
      </trkpt>
      <trkpt lat="45.09023" lon="6.14893">
        <ele>1981.4</ele>
        <time>2024-08-09T11:57:18Z</time>
      </trkpt>
      <trkpt lat="45.09022" lon="6.14895">
        <ele>1981.4</ele>
        <time>2024-08-09T11:57:19Z</time>
      </trkpt>
      <trkpt lat="45.09022" lon="6.14895">
        <ele>1981.2</ele>
        <time>2024-08-09T11:57:20Z</time>
      </trkpt>
      <trkpt lat="45.0902" lon="6.14898">
        <ele>1981</ele>
        <time>2024-08-09T11:57:21Z</time>
      </trkpt>
      <trkpt lat="45.0902" lon="6.14898">
        <ele>1980.6</ele>
        <time>2024-08-09T11:57:22Z</time>
      </trkpt>
      <trkpt lat="45.09017" lon="6.14901">
        <ele>1980.6</ele>
        <time>2024-08-09T11:57:23Z</time>
      </trkpt>
      <trkpt lat="45.09016" lon="6.14902">
        <ele>1980.4</ele>
        <time>2024-08-09T11:57:24Z</time>
      </trkpt>
      <trkpt lat="45.09016" lon="6.14902">
        <ele>1980.2</ele>
        <time>2024-08-09T11:57:25Z</time>
      </trkpt>
      <trkpt lat="45.09013" lon="6.14905">
        <ele>1980.2</ele>
        <time>2024-08-09T11:57:26Z</time>
      </trkpt>
      <trkpt lat="45.09013" lon="6.14905">
        <ele>1980.2</ele>
        <time>2024-08-09T11:57:27Z</time>
      </trkpt>
      <trkpt lat="45.0901" lon="6.14908">
        <ele>1980</ele>
        <time>2024-08-09T11:57:28Z</time>
      </trkpt>
      <trkpt lat="45.0901" lon="6.14908">
        <ele>1979.8</ele>
        <time>2024-08-09T11:57:29Z</time>
      </trkpt>
      <trkpt lat="45.09008" lon="6.14911">
        <ele>1979.6</ele>
        <time>2024-08-09T11:57:30Z</time>
      </trkpt>
      <trkpt lat="45.09008" lon="6.14911">
        <ele>1979.4</ele>
        <time>2024-08-09T11:57:31Z</time>
      </trkpt>
      <trkpt lat="45.09006" lon="6.14914">
        <ele>1979.2</ele>
        <time>2024-08-09T11:57:32Z</time>
      </trkpt>
      <trkpt lat="45.09006" lon="6.14914">
        <ele>1979</ele>
        <time>2024-08-09T11:57:33Z</time>
      </trkpt>
      <trkpt lat="45.09004" lon="6.14917">
        <ele>1978.8</ele>
        <time>2024-08-09T11:57:34Z</time>
      </trkpt>
      <trkpt lat="45.09002" lon="6.14919">
        <ele>1978.4</ele>
        <time>2024-08-09T11:57:35Z</time>
      </trkpt>
      <trkpt lat="45.09002" lon="6.14919">
        <ele>1978.4</ele>
        <time>2024-08-09T11:57:36Z</time>
      </trkpt>
      <trkpt lat="45.09" lon="6.14923">
        <ele>1978.2</ele>
        <time>2024-08-09T11:57:37Z</time>
      </trkpt>
      <trkpt lat="45.09" lon="6.14923">
        <ele>1977.8</ele>
        <time>2024-08-09T11:57:38Z</time>
      </trkpt>
      <trkpt lat="45.08998" lon="6.14926">
        <ele>1977.6</ele>
        <time>2024-08-09T11:57:39Z</time>
      </trkpt>
      <trkpt lat="45.08998" lon="6.14926">
        <ele>1977.4</ele>
        <time>2024-08-09T11:57:40Z</time>
      </trkpt>
      <trkpt lat="45.08997" lon="6.1493">
        <ele>1977.2</ele>
        <time>2024-08-09T11:57:41Z</time>
      </trkpt>
      <trkpt lat="45.08997" lon="6.1493">
        <ele>1977</ele>
        <time>2024-08-09T11:57:42Z</time>
      </trkpt>
      <trkpt lat="45.08996" lon="6.14934">
        <ele>1976.6</ele>
        <time>2024-08-09T11:57:43Z</time>
      </trkpt>
      <trkpt lat="45.08996" lon="6.14934">
        <ele>1976.4</ele>
        <time>2024-08-09T11:57:44Z</time>
      </trkpt>
      <trkpt lat="45.08995" lon="6.14938">
        <ele>1976.2</ele>
        <time>2024-08-09T11:57:45Z</time>
      </trkpt>
      <trkpt lat="45.08995" lon="6.14938">
        <ele>1976</ele>
        <time>2024-08-09T11:57:46Z</time>
      </trkpt>
      <trkpt lat="45.08995" lon="6.14943">
        <ele>1975.6</ele>
        <time>2024-08-09T11:57:47Z</time>
      </trkpt>
      <trkpt lat="45.08995" lon="6.14943">
        <ele>1975.4</ele>
        <time>2024-08-09T11:57:48Z</time>
      </trkpt>
      <trkpt lat="45.08995" lon="6.14949">
        <ele>1975.2</ele>
        <time>2024-08-09T11:57:49Z</time>
      </trkpt>
      <trkpt lat="45.08995" lon="6.14949">
        <ele>1975</ele>
        <time>2024-08-09T11:57:50Z</time>
      </trkpt>
      <trkpt lat="45.08996" lon="6.14952">
        <ele>1975</ele>
        <time>2024-08-09T11:57:51Z</time>
      </trkpt>
      <trkpt lat="45.08996" lon="6.14952">
        <ele>1974.6</ele>
        <time>2024-08-09T11:57:52Z</time>
      </trkpt>
      <trkpt lat="45.08998" lon="6.14955">
        <ele>1974.8</ele>
        <time>2024-08-09T11:57:53Z</time>
      </trkpt>
      <trkpt lat="45.08998" lon="6.14955">
        <ele>1974.6</ele>
        <time>2024-08-09T11:57:54Z</time>
      </trkpt>
      <trkpt lat="45.09001" lon="6.14957">
        <ele>1974.6</ele>
        <time>2024-08-09T11:57:55Z</time>
      </trkpt>
      <trkpt lat="45.09001" lon="6.14957">
        <ele>1974.6</ele>
        <time>2024-08-09T11:57:56Z</time>
      </trkpt>
      <trkpt lat="45.09004" lon="6.14958">
        <ele>1974.6</ele>
        <time>2024-08-09T11:57:57Z</time>
      </trkpt>
      <trkpt lat="45.09004" lon="6.14958">
        <ele>1974.6</ele>
        <time>2024-08-09T11:57:58Z</time>
      </trkpt>
      <trkpt lat="45.09007" lon="6.14957">
        <ele>1974.2</ele>
        <time>2024-08-09T11:57:59Z</time>
      </trkpt>
      <trkpt lat="45.09007" lon="6.14957">
        <ele>1974</ele>
        <time>2024-08-09T11:58:00Z</time>
      </trkpt>
      <trkpt lat="45.0901" lon="6.14956">
        <ele>1974</ele>
        <time>2024-08-09T11:58:01Z</time>
      </trkpt>
      <trkpt lat="45.09012" lon="6.14953">
        <ele>1973.4</ele>
        <time>2024-08-09T11:58:02Z</time>
      </trkpt>
      <trkpt lat="45.09012" lon="6.14949">
        <ele>1973.4</ele>
        <time>2024-08-09T11:58:03Z</time>
      </trkpt>
      <trkpt lat="45.09013" lon="6.14946">
        <ele>1973.4</ele>
        <time>2024-08-09T11:58:04Z</time>
      </trkpt>
      <trkpt lat="45.09013" lon="6.14944">
        <ele>1973.2</ele>
        <time>2024-08-09T11:58:05Z</time>
      </trkpt>
      <trkpt lat="45.09014" lon="6.14941">
        <ele>1973</ele>
        <time>2024-08-09T11:58:06Z</time>
      </trkpt>
      <trkpt lat="45.09016" lon="6.14939">
        <ele>1973</ele>
        <time>2024-08-09T11:58:07Z</time>
      </trkpt>
      <trkpt lat="45.09016" lon="6.14939">
        <ele>1972.6</ele>
        <time>2024-08-09T11:58:08Z</time>
      </trkpt>
      <trkpt lat="45.09018" lon="6.14936">
        <ele>1972.6</ele>
        <time>2024-08-09T11:58:09Z</time>
      </trkpt>
      <trkpt lat="45.09018" lon="6.14936">
        <ele>1972.6</ele>
        <time>2024-08-09T11:58:10Z</time>
      </trkpt>
      <trkpt lat="45.09019" lon="6.14932">
        <ele>1972.2</ele>
        <time>2024-08-09T11:58:11Z</time>
      </trkpt>
      <trkpt lat="45.09019" lon="6.14932">
        <ele>1972.2</ele>
        <time>2024-08-09T11:58:12Z</time>
      </trkpt>
      <trkpt lat="45.09021" lon="6.14928">
        <ele>1972.2</ele>
        <time>2024-08-09T11:58:13Z</time>
      </trkpt>
      <trkpt lat="45.09021" lon="6.14928">
        <ele>1971.6</ele>
        <time>2024-08-09T11:58:14Z</time>
      </trkpt>
      <trkpt lat="45.09022" lon="6.14924">
        <ele>1971.4</ele>
        <time>2024-08-09T11:58:15Z</time>
      </trkpt>
      <trkpt lat="45.09023" lon="6.14922">
        <ele>1971</ele>
        <time>2024-08-09T11:58:16Z</time>
      </trkpt>
      <trkpt lat="45.09023" lon="6.14922">
        <ele>1970.8</ele>
        <time>2024-08-09T11:58:17Z</time>
      </trkpt>
      <trkpt lat="45.09025" lon="6.14919">
        <ele>1970.6</ele>
        <time>2024-08-09T11:58:18Z</time>
      </trkpt>
      <trkpt lat="45.09025" lon="6.14919">
        <ele>1970.6</ele>
        <time>2024-08-09T11:58:19Z</time>
      </trkpt>
      <trkpt lat="45.09028" lon="6.14916">
        <ele>1970.4</ele>
        <time>2024-08-09T11:58:20Z</time>
      </trkpt>
      <trkpt lat="45.09028" lon="6.14916">
        <ele>1970.2</ele>
        <time>2024-08-09T11:58:21Z</time>
      </trkpt>
      <trkpt lat="45.0903" lon="6.14914">
        <ele>1970.2</ele>
        <time>2024-08-09T11:58:22Z</time>
      </trkpt>
      <trkpt lat="45.0903" lon="6.14914">
        <ele>1969.8</ele>
        <time>2024-08-09T11:58:23Z</time>
      </trkpt>
      <trkpt lat="45.09033" lon="6.14912">
        <ele>1969.8</ele>
        <time>2024-08-09T11:58:24Z</time>
      </trkpt>
      <trkpt lat="45.09033" lon="6.14912">
        <ele>1969.6</ele>
        <time>2024-08-09T11:58:25Z</time>
      </trkpt>
      <trkpt lat="45.09036" lon="6.14911">
        <ele>1969.4</ele>
        <time>2024-08-09T11:58:26Z</time>
      </trkpt>
      <trkpt lat="45.09036" lon="6.14911">
        <ele>1969</ele>
        <time>2024-08-09T11:58:27Z</time>
      </trkpt>
      <trkpt lat="45.09039" lon="6.14909">
        <ele>1969</ele>
        <time>2024-08-09T11:58:28Z</time>
      </trkpt>
      <trkpt lat="45.09039" lon="6.14909">
        <ele>1968.8</ele>
        <time>2024-08-09T11:58:29Z</time>
      </trkpt>
      <trkpt lat="45.09042" lon="6.14908">
        <ele>1968.8</ele>
        <time>2024-08-09T11:58:30Z</time>
      </trkpt>
      <trkpt lat="45.09043" lon="6.14907">
        <ele>1968.6</ele>
        <time>2024-08-09T11:58:31Z</time>
      </trkpt>
      <trkpt lat="45.09043" lon="6.14907">
        <ele>1968.6</ele>
        <time>2024-08-09T11:58:32Z</time>
      </trkpt>
      <trkpt lat="45.09046" lon="6.14906">
        <ele>1968.6</ele>
        <time>2024-08-09T11:58:33Z</time>
      </trkpt>
      <trkpt lat="45.09046" lon="6.14906">
        <ele>1968.4</ele>
        <time>2024-08-09T11:58:34Z</time>
      </trkpt>
      <trkpt lat="45.09049" lon="6.14905">
        <ele>1968</ele>
        <time>2024-08-09T11:58:35Z</time>
      </trkpt>
      <trkpt lat="45.09049" lon="6.14905">
        <ele>1968</ele>
        <time>2024-08-09T11:58:36Z</time>
      </trkpt>
      <trkpt lat="45.09052" lon="6.14904">
        <ele>1967.8</ele>
        <time>2024-08-09T11:58:37Z</time>
      </trkpt>
      <trkpt lat="45.09052" lon="6.14904">
        <ele>1967.6</ele>
        <time>2024-08-09T11:58:38Z</time>
      </trkpt>
      <trkpt lat="45.09055" lon="6.14903">
        <ele>1967.6</ele>
        <time>2024-08-09T11:58:39Z</time>
      </trkpt>
      <trkpt lat="45.09055" lon="6.14903">
        <ele>1967.4</ele>
        <time>2024-08-09T11:58:40Z</time>
      </trkpt>
      <trkpt lat="45.09058" lon="6.14903">
        <ele>1967.4</ele>
        <time>2024-08-09T11:58:41Z</time>
      </trkpt>
      <trkpt lat="45.09058" lon="6.14903">
        <ele>1967.4</ele>
        <time>2024-08-09T11:58:42Z</time>
      </trkpt>
      <trkpt lat="45.0906" lon="6.14902">
        <ele>1967.2</ele>
        <time>2024-08-09T11:58:43Z</time>
      </trkpt>
      <trkpt lat="45.0906" lon="6.14902">
        <ele>1967.2</ele>
        <time>2024-08-09T11:58:44Z</time>
      </trkpt>
      <trkpt lat="45.09063" lon="6.14902">
        <ele>1967</ele>
        <time>2024-08-09T11:58:45Z</time>
      </trkpt>
      <trkpt lat="45.09063" lon="6.14902">
        <ele>1966.8</ele>
        <time>2024-08-09T11:58:46Z</time>
      </trkpt>
      <trkpt lat="45.09066" lon="6.14901">
        <ele>1966.8</ele>
        <time>2024-08-09T11:58:47Z</time>
      </trkpt>
      <trkpt lat="45.09066" lon="6.14901">
        <ele>1966.4</ele>
        <time>2024-08-09T11:58:48Z</time>
      </trkpt>
      <trkpt lat="45.09069" lon="6.149">
        <ele>1966.4</ele>
        <time>2024-08-09T11:58:49Z</time>
      </trkpt>
      <trkpt lat="45.09071" lon="6.14899">
        <ele>1966.2</ele>
        <time>2024-08-09T11:58:50Z</time>
      </trkpt>
      <trkpt lat="45.09071" lon="6.14899">
        <ele>1965.8</ele>
        <time>2024-08-09T11:58:51Z</time>
      </trkpt>
      <trkpt lat="45.09074" lon="6.14897">
        <ele>1965.8</ele>
        <time>2024-08-09T11:58:52Z</time>
      </trkpt>
      <trkpt lat="45.09074" lon="6.14897">
        <ele>1965.8</ele>
        <time>2024-08-09T11:58:53Z</time>
      </trkpt>
      <trkpt lat="45.09077" lon="6.14895">
        <ele>1965.8</ele>
        <time>2024-08-09T11:58:54Z</time>
      </trkpt>
      <trkpt lat="45.09077" lon="6.14895">
        <ele>1965.6</ele>
        <time>2024-08-09T11:58:55Z</time>
      </trkpt>
      <trkpt lat="45.0908" lon="6.14894">
        <ele>1965.6</ele>
        <time>2024-08-09T11:58:56Z</time>
      </trkpt>
      <trkpt lat="45.0908" lon="6.14894">
        <ele>1965.2</ele>
        <time>2024-08-09T11:58:57Z</time>
      </trkpt>
      <trkpt lat="45.09083" lon="6.14892">
        <ele>1965.2</ele>
        <time>2024-08-09T11:58:58Z</time>
      </trkpt>
      <trkpt lat="45.09083" lon="6.14892">
        <ele>1965.2</ele>
        <time>2024-08-09T11:58:59Z</time>
      </trkpt>
      <trkpt lat="45.09086" lon="6.14891">
        <ele>1965.2</ele>
        <time>2024-08-09T11:59:00Z</time>
      </trkpt>
      <trkpt lat="45.09086" lon="6.14891">
        <ele>1965</ele>
        <time>2024-08-09T11:59:01Z</time>
      </trkpt>
      <trkpt lat="45.09089" lon="6.14891">
        <ele>1965</ele>
        <time>2024-08-09T11:59:02Z</time>
      </trkpt>
      <trkpt lat="45.09091" lon="6.14891">
        <ele>1965</ele>
        <time>2024-08-09T11:59:03Z</time>
      </trkpt>
      <trkpt lat="45.09091" lon="6.14891">
        <ele>1964.8</ele>
        <time>2024-08-09T11:59:04Z</time>
      </trkpt>
      <trkpt lat="45.09093" lon="6.14892">
        <ele>1964.6</ele>
        <time>2024-08-09T11:59:05Z</time>
      </trkpt>
      <trkpt lat="45.09093" lon="6.14892">
        <ele>1964.4</ele>
        <time>2024-08-09T11:59:06Z</time>
      </trkpt>
      <trkpt lat="45.09097" lon="6.14894">
        <ele>1964.4</ele>
        <time>2024-08-09T11:59:07Z</time>
      </trkpt>
      <trkpt lat="45.09097" lon="6.14894">
        <ele>1964.4</ele>
        <time>2024-08-09T11:59:08Z</time>
      </trkpt>
      <trkpt lat="45.091" lon="6.14895">
        <ele>1964.4</ele>
        <time>2024-08-09T11:59:09Z</time>
      </trkpt>
      <trkpt lat="45.091" lon="6.14895">
        <ele>1964.4</ele>
        <time>2024-08-09T11:59:10Z</time>
      </trkpt>
      <trkpt lat="45.09102" lon="6.14896">
        <ele>1964.4</ele>
        <time>2024-08-09T11:59:11Z</time>
      </trkpt>
      <trkpt lat="45.09102" lon="6.14896">
        <ele>1964.2</ele>
        <time>2024-08-09T11:59:12Z</time>
      </trkpt>
      <trkpt lat="45.09105" lon="6.14897">
        <ele>1964.2</ele>
        <time>2024-08-09T11:59:13Z</time>
      </trkpt>
      <trkpt lat="45.09107" lon="6.14899">
        <ele>1964</ele>
        <time>2024-08-09T11:59:14Z</time>
      </trkpt>
      <trkpt lat="45.09107" lon="6.14899">
        <ele>1964</ele>
        <time>2024-08-09T11:59:15Z</time>
      </trkpt>
      <trkpt lat="45.09109" lon="6.14901">
        <ele>1963.8</ele>
        <time>2024-08-09T11:59:16Z</time>
      </trkpt>
      <trkpt lat="45.09111" lon="6.14902">
        <ele>1963.6</ele>
        <time>2024-08-09T11:59:17Z</time>
      </trkpt>
      <trkpt lat="45.09112" lon="6.14903">
        <ele>1963.4</ele>
        <time>2024-08-09T11:59:18Z</time>
      </trkpt>
      <trkpt lat="45.09112" lon="6.14903">
        <ele>1963.2</ele>
        <time>2024-08-09T11:59:19Z</time>
      </trkpt>
      <trkpt lat="45.09115" lon="6.14906">
        <ele>1963</ele>
        <time>2024-08-09T11:59:20Z</time>
      </trkpt>
      <trkpt lat="45.09117" lon="6.14907">
        <ele>1963</ele>
        <time>2024-08-09T11:59:21Z</time>
      </trkpt>
      <trkpt lat="45.09117" lon="6.14907">
        <ele>1962.8</ele>
        <time>2024-08-09T11:59:22Z</time>
      </trkpt>
      <trkpt lat="45.09119" lon="6.14909">
        <ele>1962.6</ele>
        <time>2024-08-09T11:59:23Z</time>
      </trkpt>
      <trkpt lat="45.09119" lon="6.14909">
        <ele>1962.6</ele>
        <time>2024-08-09T11:59:24Z</time>
      </trkpt>
      <trkpt lat="45.09122" lon="6.14912">
        <ele>1962.6</ele>
        <time>2024-08-09T11:59:25Z</time>
      </trkpt>
      <trkpt lat="45.09122" lon="6.14912">
        <ele>1962.2</ele>
        <time>2024-08-09T11:59:26Z</time>
      </trkpt>
      <trkpt lat="45.09125" lon="6.14914">
        <ele>1961.8</ele>
        <time>2024-08-09T11:59:27Z</time>
      </trkpt>
      <trkpt lat="45.09125" lon="6.14914">
        <ele>1961.8</ele>
        <time>2024-08-09T11:59:28Z</time>
      </trkpt>
      <trkpt lat="45.09127" lon="6.14917">
        <ele>1961.6</ele>
        <time>2024-08-09T11:59:29Z</time>
      </trkpt>
      <trkpt lat="45.09127" lon="6.14917">
        <ele>1961.4</ele>
        <time>2024-08-09T11:59:30Z</time>
      </trkpt>
      <trkpt lat="45.09129" lon="6.14919">
        <ele>1961.4</ele>
        <time>2024-08-09T11:59:31Z</time>
      </trkpt>
      <trkpt lat="45.09131" lon="6.14921">
        <ele>1961.2</ele>
        <time>2024-08-09T11:59:32Z</time>
      </trkpt>
      <trkpt lat="45.09131" lon="6.14921">
        <ele>1961.2</ele>
        <time>2024-08-09T11:59:33Z</time>
      </trkpt>
      <trkpt lat="45.09133" lon="6.14924">
        <ele>1960.6</ele>
        <time>2024-08-09T11:59:34Z</time>
      </trkpt>
      <trkpt lat="45.09133" lon="6.14924">
        <ele>1960.2</ele>
        <time>2024-08-09T11:59:35Z</time>
      </trkpt>
      <trkpt lat="45.09135" lon="6.14928">
        <ele>1960.2</ele>
        <time>2024-08-09T11:59:36Z</time>
      </trkpt>
      <trkpt lat="45.09137" lon="6.1493">
        <ele>1960</ele>
        <time>2024-08-09T11:59:37Z</time>
      </trkpt>
      <trkpt lat="45.09137" lon="6.1493">
        <ele>1960</ele>
        <time>2024-08-09T11:59:38Z</time>
      </trkpt>
      <trkpt lat="45.09139" lon="6.14933">
        <ele>1959.8</ele>
        <time>2024-08-09T11:59:39Z</time>
      </trkpt>
      <trkpt lat="45.09139" lon="6.14933">
        <ele>1959.8</ele>
        <time>2024-08-09T11:59:40Z</time>
      </trkpt>
      <trkpt lat="45.09141" lon="6.14937">
        <ele>1959.2</ele>
        <time>2024-08-09T11:59:41Z</time>
      </trkpt>
      <trkpt lat="45.09141" lon="6.14937">
        <ele>1959</ele>
        <time>2024-08-09T11:59:42Z</time>
      </trkpt>
      <trkpt lat="45.09143" lon="6.1494">
        <ele>1959</ele>
        <time>2024-08-09T11:59:43Z</time>
      </trkpt>
      <trkpt lat="45.09143" lon="6.1494">
        <ele>1958.8</ele>
        <time>2024-08-09T11:59:44Z</time>
      </trkpt>
      <trkpt lat="45.09145" lon="6.14943">
        <ele>1958.8</ele>
        <time>2024-08-09T11:59:45Z</time>
      </trkpt>
      <trkpt lat="45.09145" lon="6.14943">
        <ele>1958.4</ele>
        <time>2024-08-09T11:59:46Z</time>
      </trkpt>
      <trkpt lat="45.09148" lon="6.14946">
        <ele>1958</ele>
        <time>2024-08-09T11:59:47Z</time>
      </trkpt>
      <trkpt lat="45.09148" lon="6.14946">
        <ele>1957.8</ele>
        <time>2024-08-09T11:59:48Z</time>
      </trkpt>
      <trkpt lat="45.0915" lon="6.14948">
        <ele>1957.6</ele>
        <time>2024-08-09T11:59:49Z</time>
      </trkpt>
      <trkpt lat="45.0915" lon="6.14948">
        <ele>1957.4</ele>
        <time>2024-08-09T11:59:50Z</time>
      </trkpt>
      <trkpt lat="45.09153" lon="6.1495">
        <ele>1957.2</ele>
        <time>2024-08-09T11:59:51Z</time>
      </trkpt>
      <trkpt lat="45.09155" lon="6.14951">
        <ele>1957</ele>
        <time>2024-08-09T11:59:52Z</time>
      </trkpt>
      <trkpt lat="45.09155" lon="6.14951">
        <ele>1956.8</ele>
        <time>2024-08-09T11:59:53Z</time>
      </trkpt>
      <trkpt lat="45.09157" lon="6.14953">
        <ele>1956.8</ele>
        <time>2024-08-09T11:59:54Z</time>
      </trkpt>
      <trkpt lat="45.09157" lon="6.14953">
        <ele>1956.4</ele>
        <time>2024-08-09T11:59:55Z</time>
      </trkpt>
      <trkpt lat="45.09159" lon="6.14956">
        <ele>1956.2</ele>
        <time>2024-08-09T11:59:56Z</time>
      </trkpt>
      <trkpt lat="45.09161" lon="6.14957">
        <ele>1955.8</ele>
        <time>2024-08-09T11:59:57Z</time>
      </trkpt>
      <trkpt lat="45.09163" lon="6.14959">
        <ele>1955.6</ele>
        <time>2024-08-09T11:59:58Z</time>
      </trkpt>
      <trkpt lat="45.09165" lon="6.1496">
        <ele>1955.2</ele>
        <time>2024-08-09T11:59:59Z</time>
      </trkpt>
      <trkpt lat="45.09167" lon="6.14962">
        <ele>1955.4</ele>
        <time>2024-08-09T12:00:01Z</time>
      </trkpt>
      <trkpt lat="45.09167" lon="6.14962">
        <ele>1954.8</ele>
        <time>2024-08-09T12:00:02Z</time>
      </trkpt>
      <trkpt lat="45.09169" lon="6.14965">
        <ele>1954.6</ele>
        <time>2024-08-09T12:00:03Z</time>
      </trkpt>
      <trkpt lat="45.09169" lon="6.14965">
        <ele>1954.4</ele>
        <time>2024-08-09T12:00:04Z</time>
      </trkpt>
      <trkpt lat="45.09172" lon="6.14969">
        <ele>1954.2</ele>
        <time>2024-08-09T12:00:05Z</time>
      </trkpt>
      <trkpt lat="45.09172" lon="6.14969">
        <ele>1954</ele>
        <time>2024-08-09T12:00:06Z</time>
      </trkpt>
      <trkpt lat="45.09173" lon="6.14972">
        <ele>1953.8</ele>
        <time>2024-08-09T12:00:07Z</time>
      </trkpt>
      <trkpt lat="45.09173" lon="6.14972">
        <ele>1953.6</ele>
        <time>2024-08-09T12:00:08Z</time>
      </trkpt>
      <trkpt lat="45.09175" lon="6.14975">
        <ele>1953.4</ele>
        <time>2024-08-09T12:00:09Z</time>
      </trkpt>
      <trkpt lat="45.09177" lon="6.14977">
        <ele>1953.4</ele>
        <time>2024-08-09T12:00:10Z</time>
      </trkpt>
      <trkpt lat="45.09177" lon="6.14977">
        <ele>1952.8</ele>
        <time>2024-08-09T12:00:11Z</time>
      </trkpt>
      <trkpt lat="45.09178" lon="6.14981">
        <ele>1952.6</ele>
        <time>2024-08-09T12:00:12Z</time>
      </trkpt>
      <trkpt lat="45.09178" lon="6.14981">
        <ele>1952.6</ele>
        <time>2024-08-09T12:00:13Z</time>
      </trkpt>
      <trkpt lat="45.09179" lon="6.14985">
        <ele>1952.4</ele>
        <time>2024-08-09T12:00:14Z</time>
      </trkpt>
      <trkpt lat="45.09179" lon="6.14985">
        <ele>1952.2</ele>
        <time>2024-08-09T12:00:15Z</time>
      </trkpt>
      <trkpt lat="45.09181" lon="6.14988">
        <ele>1952.2</ele>
        <time>2024-08-09T12:00:16Z</time>
      </trkpt>
      <trkpt lat="45.09181" lon="6.14988">
        <ele>1952</ele>
        <time>2024-08-09T12:00:17Z</time>
      </trkpt>
      <trkpt lat="45.09181" lon="6.14988">
        <ele>1951.6</ele>
        <time>2024-08-09T12:00:18Z</time>
      </trkpt>
      <trkpt lat="45.09182" lon="6.1499">
        <ele>1951.4</ele>
        <time>2024-08-09T12:00:19Z</time>
      </trkpt>
      <trkpt lat="45.09182" lon="6.1499">
        <ele>1951.2</ele>
        <time>2024-08-09T12:00:20Z</time>
      </trkpt>
      <trkpt lat="45.09182" lon="6.1499">
        <ele>1951.2</ele>
        <time>2024-08-09T12:00:21Z</time>
      </trkpt>
      <trkpt lat="45.09182" lon="6.1499">
        <ele>1951.2</ele>
        <time>2024-08-09T12:00:22Z</time>
      </trkpt>
      <trkpt lat="45.09182" lon="6.1499">
        <ele>1951.2</ele>
        <time>2024-08-09T12:00:23Z</time>
      </trkpt>
      <trkpt lat="45.09182" lon="6.1499">
        <ele>1951.2</ele>
        <time>2024-08-09T12:00:24Z</time>
      </trkpt>
      <trkpt lat="45.0918" lon="6.1499">
        <ele>1951</ele>
        <time>2024-08-09T12:00:25Z</time>
      </trkpt>
      <trkpt lat="45.0918" lon="6.1499">
        <ele>1950.8</ele>
        <time>2024-08-09T12:00:26Z</time>
      </trkpt>
      <trkpt lat="45.09177" lon="6.14988">
        <ele>1950.4</ele>
        <time>2024-08-09T12:00:27Z</time>
      </trkpt>
      <trkpt lat="45.09177" lon="6.14988">
        <ele>1950</ele>
        <time>2024-08-09T12:00:28Z</time>
      </trkpt>
      <trkpt lat="45.09175" lon="6.14987">
        <ele>1949.4</ele>
        <time>2024-08-09T12:00:29Z</time>
      </trkpt>
      <trkpt lat="45.09175" lon="6.14987">
        <ele>1949</ele>
        <time>2024-08-09T12:00:30Z</time>
      </trkpt>
      <trkpt lat="45.09173" lon="6.14986">
        <ele>1948.8</ele>
        <time>2024-08-09T12:00:31Z</time>
      </trkpt>
      <trkpt lat="45.09173" lon="6.14986">
        <ele>1948.2</ele>
        <time>2024-08-09T12:00:32Z</time>
      </trkpt>
      <trkpt lat="45.09171" lon="6.14984">
        <ele>1947.8</ele>
        <time>2024-08-09T12:00:33Z</time>
      </trkpt>
      <trkpt lat="45.09171" lon="6.14984">
        <ele>1947.4</ele>
        <time>2024-08-09T12:00:34Z</time>
      </trkpt>
      <trkpt lat="45.09171" lon="6.14984">
        <ele>1947.2</ele>
        <time>2024-08-09T12:00:35Z</time>
      </trkpt>
      <trkpt lat="45.09168" lon="6.14985">
        <ele>1947</ele>
        <time>2024-08-09T12:00:36Z</time>
      </trkpt>
      <trkpt lat="45.09168" lon="6.14985">
        <ele>1946.6</ele>
        <time>2024-08-09T12:00:37Z</time>
      </trkpt>
      <trkpt lat="45.09166" lon="6.14986">
        <ele>1946.2</ele>
        <time>2024-08-09T12:00:38Z</time>
      </trkpt>
      <trkpt lat="45.09166" lon="6.14986">
        <ele>1945.8</ele>
        <time>2024-08-09T12:00:39Z</time>
      </trkpt>
      <trkpt lat="45.09166" lon="6.14986">
        <ele>1945.6</ele>
        <time>2024-08-09T12:00:40Z</time>
      </trkpt>
      <trkpt lat="45.09164" lon="6.14986">
        <ele>1945.2</ele>
        <time>2024-08-09T12:00:41Z</time>
      </trkpt>
      <trkpt lat="45.09164" lon="6.14986">
        <ele>1944.6</ele>
        <time>2024-08-09T12:00:42Z</time>
      </trkpt>
      <trkpt lat="45.09164" lon="6.14986">
        <ele>1944.2</ele>
        <time>2024-08-09T12:00:43Z</time>
      </trkpt>
      <trkpt lat="45.09161" lon="6.14987">
        <ele>1943.6</ele>
        <time>2024-08-09T12:00:44Z</time>
      </trkpt>
      <trkpt lat="45.09161" lon="6.14987">
        <ele>1943.6</ele>
        <time>2024-08-09T12:00:45Z</time>
      </trkpt>
      <trkpt lat="45.09161" lon="6.14987">
        <ele>1943.2</ele>
        <time>2024-08-09T12:00:46Z</time>
      </trkpt>
      <trkpt lat="45.09159" lon="6.14989">
        <ele>1942.8</ele>
        <time>2024-08-09T12:00:47Z</time>
      </trkpt>
      <trkpt lat="45.09159" lon="6.14989">
        <ele>1942.2</ele>
        <time>2024-08-09T12:00:48Z</time>
      </trkpt>
      <trkpt lat="45.09157" lon="6.1499">
        <ele>1942</ele>
        <time>2024-08-09T12:00:49Z</time>
      </trkpt>
      <trkpt lat="45.09157" lon="6.1499">
        <ele>1941.8</ele>
        <time>2024-08-09T12:00:50Z</time>
      </trkpt>
      <trkpt lat="45.09155" lon="6.14988">
        <ele>1941.4</ele>
        <time>2024-08-09T12:00:51Z</time>
      </trkpt>
      <trkpt lat="45.09155" lon="6.14988">
        <ele>1941</ele>
        <time>2024-08-09T12:00:52Z</time>
      </trkpt>
      <trkpt lat="45.09153" lon="6.14987">
        <ele>1940.8</ele>
        <time>2024-08-09T12:00:53Z</time>
      </trkpt>
      <trkpt lat="45.09153" lon="6.14987">
        <ele>1940.4</ele>
        <time>2024-08-09T12:00:54Z</time>
      </trkpt>
      <trkpt lat="45.09151" lon="6.14987">
        <ele>1940.2</ele>
        <time>2024-08-09T12:00:55Z</time>
      </trkpt>
      <trkpt lat="45.09151" lon="6.14987">
        <ele>1940</ele>
        <time>2024-08-09T12:00:56Z</time>
      </trkpt>
      <trkpt lat="45.09149" lon="6.14987">
        <ele>1939.4</ele>
        <time>2024-08-09T12:00:57Z</time>
      </trkpt>
      <trkpt lat="45.09149" lon="6.14987">
        <ele>1938.8</ele>
        <time>2024-08-09T12:00:58Z</time>
      </trkpt>
      <trkpt lat="45.09146" lon="6.14986">
        <ele>1938.6</ele>
        <time>2024-08-09T12:00:59Z</time>
      </trkpt>
      <trkpt lat="45.09146" lon="6.14986">
        <ele>1938.2</ele>
        <time>2024-08-09T12:01:00Z</time>
      </trkpt>
      <trkpt lat="45.09144" lon="6.14986">
        <ele>1938</ele>
        <time>2024-08-09T12:01:01Z</time>
      </trkpt>
      <trkpt lat="45.09144" lon="6.14986">
        <ele>1937.4</ele>
        <time>2024-08-09T12:01:02Z</time>
      </trkpt>
      <trkpt lat="45.09141" lon="6.14985">
        <ele>1937</ele>
        <time>2024-08-09T12:01:03Z</time>
      </trkpt>
      <trkpt lat="45.09141" lon="6.14985">
        <ele>1936.8</ele>
        <time>2024-08-09T12:01:04Z</time>
      </trkpt>
      <trkpt lat="45.0914" lon="6.14985">
        <ele>1936.6</ele>
        <time>2024-08-09T12:01:05Z</time>
      </trkpt>
      <trkpt lat="45.0914" lon="6.14985">
        <ele>1936.4</ele>
        <time>2024-08-09T12:01:06Z</time>
      </trkpt>
      <trkpt lat="45.09138" lon="6.14985">
        <ele>1935.8</ele>
        <time>2024-08-09T12:01:07Z</time>
      </trkpt>
      <trkpt lat="45.09138" lon="6.14985">
        <ele>1935.6</ele>
        <time>2024-08-09T12:01:08Z</time>
      </trkpt>
      <trkpt lat="45.09138" lon="6.14985">
        <ele>1935.4</ele>
        <time>2024-08-09T12:01:09Z</time>
      </trkpt>
      <trkpt lat="45.09135" lon="6.14986">
        <ele>1935.2</ele>
        <time>2024-08-09T12:01:10Z</time>
      </trkpt>
      <trkpt lat="45.09135" lon="6.14986">
        <ele>1935</ele>
        <time>2024-08-09T12:01:11Z</time>
      </trkpt>
      <trkpt lat="45.09135" lon="6.14986">
        <ele>1935</ele>
        <time>2024-08-09T12:01:12Z</time>
      </trkpt>
      <trkpt lat="45.09134" lon="6.14988">
        <ele>1934.8</ele>
        <time>2024-08-09T12:01:13Z</time>
      </trkpt>
      <trkpt lat="45.09134" lon="6.14988">
        <ele>1934.4</ele>
        <time>2024-08-09T12:01:14Z</time>
      </trkpt>
      <trkpt lat="45.09134" lon="6.14988">
        <ele>1934.2</ele>
        <time>2024-08-09T12:01:15Z</time>
      </trkpt>
      <trkpt lat="45.09132" lon="6.14988">
        <ele>1934.2</ele>
        <time>2024-08-09T12:01:16Z</time>
      </trkpt>
      <trkpt lat="45.09132" lon="6.14988">
        <ele>1933.4</ele>
        <time>2024-08-09T12:01:17Z</time>
      </trkpt>
      <trkpt lat="45.09132" lon="6.14988">
        <ele>1933</ele>
        <time>2024-08-09T12:01:18Z</time>
      </trkpt>
      <trkpt lat="45.09132" lon="6.14988">
        <ele>1932.8</ele>
        <time>2024-08-09T12:01:19Z</time>
      </trkpt>
      <trkpt lat="45.09129" lon="6.14991">
        <ele>1932.4</ele>
        <time>2024-08-09T12:01:20Z</time>
      </trkpt>
      <trkpt lat="45.09129" lon="6.14991">
        <ele>1932</ele>
        <time>2024-08-09T12:01:21Z</time>
      </trkpt>
      <trkpt lat="45.09128" lon="6.14993">
        <ele>1931.8</ele>
        <time>2024-08-09T12:01:22Z</time>
      </trkpt>
      <trkpt lat="45.09128" lon="6.14993">
        <ele>1931.4</ele>
        <time>2024-08-09T12:01:23Z</time>
      </trkpt>
      <trkpt lat="45.09128" lon="6.14993">
        <ele>1930.8</ele>
        <time>2024-08-09T12:01:24Z</time>
      </trkpt>
      <trkpt lat="45.09127" lon="6.14995">
        <ele>1930.8</ele>
        <time>2024-08-09T12:01:25Z</time>
      </trkpt>
      <trkpt lat="45.09127" lon="6.14995">
        <ele>1930.6</ele>
        <time>2024-08-09T12:01:26Z</time>
      </trkpt>
      <trkpt lat="45.09127" lon="6.14995">
        <ele>1930.4</ele>
        <time>2024-08-09T12:01:27Z</time>
      </trkpt>
      <trkpt lat="45.09129" lon="6.14997">
        <ele>1930.2</ele>
        <time>2024-08-09T12:01:28Z</time>
      </trkpt>
      <trkpt lat="45.09129" lon="6.14997">
        <ele>1930</ele>
        <time>2024-08-09T12:01:29Z</time>
      </trkpt>
      <trkpt lat="45.0913" lon="6.14999">
        <ele>1929.8</ele>
        <time>2024-08-09T12:01:30Z</time>
      </trkpt>
      <trkpt lat="45.0913" lon="6.14999">
        <ele>1929.4</ele>
        <time>2024-08-09T12:01:31Z</time>
      </trkpt>
      <trkpt lat="45.09131" lon="6.15002">
        <ele>1929</ele>
        <time>2024-08-09T12:01:32Z</time>
      </trkpt>
      <trkpt lat="45.09131" lon="6.15002">
        <ele>1928.8</ele>
        <time>2024-08-09T12:01:33Z</time>
      </trkpt>
      <trkpt lat="45.09132" lon="6.15004">
        <ele>1928.4</ele>
        <time>2024-08-09T12:01:34Z</time>
      </trkpt>
      <trkpt lat="45.09132" lon="6.15004">
        <ele>1928.2</ele>
        <time>2024-08-09T12:01:35Z</time>
      </trkpt>
      <trkpt lat="45.09132" lon="6.15004">
        <ele>1928</ele>
        <time>2024-08-09T12:01:36Z</time>
      </trkpt>
      <trkpt lat="45.09133" lon="6.15006">
        <ele>1927.6</ele>
        <time>2024-08-09T12:01:37Z</time>
      </trkpt>
      <trkpt lat="45.09133" lon="6.15006">
        <ele>1927.4</ele>
        <time>2024-08-09T12:01:38Z</time>
      </trkpt>
      <trkpt lat="45.09136" lon="6.15006">
        <ele>1927.4</ele>
        <time>2024-08-09T12:01:39Z</time>
      </trkpt>
      <trkpt lat="45.09136" lon="6.15006">
        <ele>1927</ele>
        <time>2024-08-09T12:01:40Z</time>
      </trkpt>
      <trkpt lat="45.09137" lon="6.15009">
        <ele>1926.6</ele>
        <time>2024-08-09T12:01:41Z</time>
      </trkpt>
      <trkpt lat="45.09137" lon="6.15009">
        <ele>1926.6</ele>
        <time>2024-08-09T12:01:42Z</time>
      </trkpt>
      <trkpt lat="45.09137" lon="6.15009">
        <ele>1926.6</ele>
        <time>2024-08-09T12:01:43Z</time>
      </trkpt>
      <trkpt lat="45.09139" lon="6.15011">
        <ele>1926.2</ele>
        <time>2024-08-09T12:01:44Z</time>
      </trkpt>
      <trkpt lat="45.09139" lon="6.15011">
        <ele>1925.6</ele>
        <time>2024-08-09T12:01:45Z</time>
      </trkpt>
      <trkpt lat="45.0914" lon="6.15014">
        <ele>1925.4</ele>
        <time>2024-08-09T12:01:46Z</time>
      </trkpt>
      <trkpt lat="45.0914" lon="6.15014">
        <ele>1925.4</ele>
        <time>2024-08-09T12:01:47Z</time>
      </trkpt>
      <trkpt lat="45.09141" lon="6.15016">
        <ele>1925.4</ele>
        <time>2024-08-09T12:01:48Z</time>
      </trkpt>
      <trkpt lat="45.09141" lon="6.15016">
        <ele>1925.2</ele>
        <time>2024-08-09T12:01:49Z</time>
      </trkpt>
      <trkpt lat="45.09141" lon="6.1502">
        <ele>1925</ele>
        <time>2024-08-09T12:01:50Z</time>
      </trkpt>
      <trkpt lat="45.09141" lon="6.1502">
        <ele>1925</ele>
        <time>2024-08-09T12:01:51Z</time>
      </trkpt>
      <trkpt lat="45.09141" lon="6.15023">
        <ele>1924.2</ele>
        <time>2024-08-09T12:01:52Z</time>
      </trkpt>
      <trkpt lat="45.09141" lon="6.15023">
        <ele>1924</ele>
        <time>2024-08-09T12:01:53Z</time>
      </trkpt>
      <trkpt lat="45.09141" lon="6.15026">
        <ele>1923.4</ele>
        <time>2024-08-09T12:01:54Z</time>
      </trkpt>
      <trkpt lat="45.09141" lon="6.15026">
        <ele>1922.8</ele>
        <time>2024-08-09T12:01:55Z</time>
      </trkpt>
      <trkpt lat="45.09143" lon="6.15028">
        <ele>1922.4</ele>
        <time>2024-08-09T12:01:56Z</time>
      </trkpt>
      <trkpt lat="45.09143" lon="6.15028">
        <ele>1922.2</ele>
        <time>2024-08-09T12:01:57Z</time>
      </trkpt>
      <trkpt lat="45.09143" lon="6.15028">
        <ele>1921.8</ele>
        <time>2024-08-09T12:01:58Z</time>
      </trkpt>
      <trkpt lat="45.09145" lon="6.1503">
        <ele>1921.6</ele>
        <time>2024-08-09T12:01:59Z</time>
      </trkpt>
      <trkpt lat="45.09145" lon="6.1503">
        <ele>1921.6</ele>
        <time>2024-08-09T12:02:00Z</time>
      </trkpt>
      <trkpt lat="45.09147" lon="6.15032">
        <ele>1921.6</ele>
        <time>2024-08-09T12:02:01Z</time>
      </trkpt>
      <trkpt lat="45.09147" lon="6.15032">
        <ele>1921.4</ele>
        <time>2024-08-09T12:02:02Z</time>
      </trkpt>
      <trkpt lat="45.09147" lon="6.15032">
        <ele>1921.2</ele>
        <time>2024-08-09T12:02:03Z</time>
      </trkpt>
      <trkpt lat="45.09147" lon="6.15032">
        <ele>1921.2</ele>
        <time>2024-08-09T12:02:04Z</time>
      </trkpt>
      <trkpt lat="45.09147" lon="6.15035">
        <ele>1920.6</ele>
        <time>2024-08-09T12:02:05Z</time>
      </trkpt>
      <trkpt lat="45.09147" lon="6.15035">
        <ele>1920.2</ele>
        <time>2024-08-09T12:02:06Z</time>
      </trkpt>
      <trkpt lat="45.09147" lon="6.15035">
        <ele>1920.2</ele>
        <time>2024-08-09T12:02:07Z</time>
      </trkpt>
      <trkpt lat="45.09147" lon="6.15035">
        <ele>1920.2</ele>
        <time>2024-08-09T12:02:08Z</time>
      </trkpt>
      <trkpt lat="45.09146" lon="6.15039">
        <ele>1919.6</ele>
        <time>2024-08-09T12:02:09Z</time>
      </trkpt>
      <trkpt lat="45.09146" lon="6.15039">
        <ele>1919.2</ele>
        <time>2024-08-09T12:02:10Z</time>
      </trkpt>
      <trkpt lat="45.09147" lon="6.15041">
        <ele>1919</ele>
        <time>2024-08-09T12:02:11Z</time>
      </trkpt>
      <trkpt lat="45.09147" lon="6.15041">
        <ele>1918.6</ele>
        <time>2024-08-09T12:02:12Z</time>
      </trkpt>
      <trkpt lat="45.09148" lon="6.15044">
        <ele>1918.4</ele>
        <time>2024-08-09T12:02:13Z</time>
      </trkpt>
      <trkpt lat="45.09148" lon="6.15044">
        <ele>1918</ele>
        <time>2024-08-09T12:02:14Z</time>
      </trkpt>
      <trkpt lat="45.09149" lon="6.15047">
        <ele>1917.8</ele>
        <time>2024-08-09T12:02:15Z</time>
      </trkpt>
      <trkpt lat="45.09149" lon="6.15047">
        <ele>1917.4</ele>
        <time>2024-08-09T12:02:16Z</time>
      </trkpt>
      <trkpt lat="45.0915" lon="6.1505">
        <ele>1917.2</ele>
        <time>2024-08-09T12:02:17Z</time>
      </trkpt>
      <trkpt lat="45.0915" lon="6.1505">
        <ele>1916.8</ele>
        <time>2024-08-09T12:02:18Z</time>
      </trkpt>
      <trkpt lat="45.09151" lon="6.15053">
        <ele>1916.8</ele>
        <time>2024-08-09T12:02:19Z</time>
      </trkpt>
      <trkpt lat="45.09151" lon="6.15053">
        <ele>1916.4</ele>
        <time>2024-08-09T12:02:20Z</time>
      </trkpt>
      <trkpt lat="45.09152" lon="6.15056">
        <ele>1916</ele>
        <time>2024-08-09T12:02:21Z</time>
      </trkpt>
      <trkpt lat="45.09152" lon="6.15056">
        <ele>1915.8</ele>
        <time>2024-08-09T12:02:22Z</time>
      </trkpt>
      <trkpt lat="45.09152" lon="6.15059">
        <ele>1915.6</ele>
        <time>2024-08-09T12:02:23Z</time>
      </trkpt>
      <trkpt lat="45.09152" lon="6.15059">
        <ele>1915.4</ele>
        <time>2024-08-09T12:02:24Z</time>
      </trkpt>
      <trkpt lat="45.09152" lon="6.15062">
        <ele>1915.2</ele>
        <time>2024-08-09T12:02:25Z</time>
      </trkpt>
      <trkpt lat="45.09152" lon="6.15062">
        <ele>1915</ele>
        <time>2024-08-09T12:02:26Z</time>
      </trkpt>
      <trkpt lat="45.09153" lon="6.15066">
        <ele>1914.8</ele>
        <time>2024-08-09T12:02:27Z</time>
      </trkpt>
      <trkpt lat="45.09153" lon="6.15066">
        <ele>1914.2</ele>
        <time>2024-08-09T12:02:28Z</time>
      </trkpt>
      <trkpt lat="45.09153" lon="6.1507">
        <ele>1914</ele>
        <time>2024-08-09T12:02:29Z</time>
      </trkpt>
      <trkpt lat="45.09153" lon="6.1507">
        <ele>1913.6</ele>
        <time>2024-08-09T12:02:30Z</time>
      </trkpt>
      <trkpt lat="45.09154" lon="6.15073">
        <ele>1913.4</ele>
        <time>2024-08-09T12:02:31Z</time>
      </trkpt>
      <trkpt lat="45.09154" lon="6.15073">
        <ele>1913.2</ele>
        <time>2024-08-09T12:02:32Z</time>
      </trkpt>
      <trkpt lat="45.09155" lon="6.15077">
        <ele>1913</ele>
        <time>2024-08-09T12:02:33Z</time>
      </trkpt>
      <trkpt lat="45.09155" lon="6.15077">
        <ele>1912.8</ele>
        <time>2024-08-09T12:02:34Z</time>
      </trkpt>
      <trkpt lat="45.09155" lon="6.1508">
        <ele>1912.6</ele>
        <time>2024-08-09T12:02:35Z</time>
      </trkpt>
      <trkpt lat="45.09155" lon="6.1508">
        <ele>1912.4</ele>
        <time>2024-08-09T12:02:36Z</time>
      </trkpt>
      <trkpt lat="45.09155" lon="6.15084">
        <ele>1912.4</ele>
        <time>2024-08-09T12:02:37Z</time>
      </trkpt>
      <trkpt lat="45.09155" lon="6.15084">
        <ele>1912</ele>
        <time>2024-08-09T12:02:38Z</time>
      </trkpt>
      <trkpt lat="45.09155" lon="6.15087">
        <ele>1912</ele>
        <time>2024-08-09T12:02:39Z</time>
      </trkpt>
      <trkpt lat="45.09155" lon="6.15087">
        <ele>1912</ele>
        <time>2024-08-09T12:02:40Z</time>
      </trkpt>
      <trkpt lat="45.09155" lon="6.15091">
        <ele>1911.8</ele>
        <time>2024-08-09T12:02:41Z</time>
      </trkpt>
      <trkpt lat="45.09155" lon="6.15091">
        <ele>1911.4</ele>
        <time>2024-08-09T12:02:42Z</time>
      </trkpt>
      <trkpt lat="45.09156" lon="6.15094">
        <ele>1911.2</ele>
        <time>2024-08-09T12:02:43Z</time>
      </trkpt>
      <trkpt lat="45.09156" lon="6.15094">
        <ele>1910.8</ele>
        <time>2024-08-09T12:02:44Z</time>
      </trkpt>
      <trkpt lat="45.09157" lon="6.15098">
        <ele>1910.6</ele>
        <time>2024-08-09T12:02:45Z</time>
      </trkpt>
      <trkpt lat="45.09157" lon="6.15098">
        <ele>1910.4</ele>
        <time>2024-08-09T12:02:46Z</time>
      </trkpt>
      <trkpt lat="45.09157" lon="6.151">
        <ele>1910.2</ele>
        <time>2024-08-09T12:02:47Z</time>
      </trkpt>
      <trkpt lat="45.09157" lon="6.151">
        <ele>1910.2</ele>
        <time>2024-08-09T12:02:48Z</time>
      </trkpt>
      <trkpt lat="45.09159" lon="6.15103">
        <ele>1910</ele>
        <time>2024-08-09T12:02:49Z</time>
      </trkpt>
      <trkpt lat="45.09159" lon="6.15103">
        <ele>1909.8</ele>
        <time>2024-08-09T12:02:50Z</time>
      </trkpt>
      <trkpt lat="45.09161" lon="6.15104">
        <ele>1909.8</ele>
        <time>2024-08-09T12:02:51Z</time>
      </trkpt>
      <trkpt lat="45.09161" lon="6.15104">
        <ele>1909.6</ele>
        <time>2024-08-09T12:02:52Z</time>
      </trkpt>
      <trkpt lat="45.09163" lon="6.15104">
        <ele>1909.4</ele>
        <time>2024-08-09T12:02:53Z</time>
      </trkpt>
      <trkpt lat="45.09163" lon="6.15104">
        <ele>1909.4</ele>
        <time>2024-08-09T12:02:54Z</time>
      </trkpt>
      <trkpt lat="45.09165" lon="6.15106">
        <ele>1909</ele>
        <time>2024-08-09T12:02:55Z</time>
      </trkpt>
      <trkpt lat="45.09165" lon="6.15106">
        <ele>1909</ele>
        <time>2024-08-09T12:02:56Z</time>
      </trkpt>
      <trkpt lat="45.09166" lon="6.15108">
        <ele>1909</ele>
        <time>2024-08-09T12:02:57Z</time>
      </trkpt>
      <trkpt lat="45.09166" lon="6.15108">
        <ele>1908.6</ele>
        <time>2024-08-09T12:02:58Z</time>
      </trkpt>
      <trkpt lat="45.09168" lon="6.15109">
        <ele>1908</ele>
        <time>2024-08-09T12:02:59Z</time>
      </trkpt>
      <trkpt lat="45.09168" lon="6.15109">
        <ele>1907.6</ele>
        <time>2024-08-09T12:03:00Z</time>
      </trkpt>
      <trkpt lat="45.0917" lon="6.15111">
        <ele>1907.6</ele>
        <time>2024-08-09T12:03:01Z</time>
      </trkpt>
      <trkpt lat="45.0917" lon="6.15111">
        <ele>1907</ele>
        <time>2024-08-09T12:03:02Z</time>
      </trkpt>
      <trkpt lat="45.0917" lon="6.15111">
        <ele>1907</ele>
        <time>2024-08-09T12:03:03Z</time>
      </trkpt>
      <trkpt lat="45.09172" lon="6.15112">
        <ele>1907</ele>
        <time>2024-08-09T12:03:04Z</time>
      </trkpt>
      <trkpt lat="45.09172" lon="6.15112">
        <ele>1907</ele>
        <time>2024-08-09T12:03:05Z</time>
      </trkpt>
      <trkpt lat="45.09174" lon="6.15113">
        <ele>1906.6</ele>
        <time>2024-08-09T12:03:06Z</time>
      </trkpt>
      <trkpt lat="45.09174" lon="6.15113">
        <ele>1906.4</ele>
        <time>2024-08-09T12:03:07Z</time>
      </trkpt>
      <trkpt lat="45.09176" lon="6.15114">
        <ele>1905.8</ele>
        <time>2024-08-09T12:03:08Z</time>
      </trkpt>
      <trkpt lat="45.09176" lon="6.15114">
        <ele>1905.6</ele>
        <time>2024-08-09T12:03:09Z</time>
      </trkpt>
      <trkpt lat="45.09178" lon="6.15115">
        <ele>1905.2</ele>
        <time>2024-08-09T12:03:10Z</time>
      </trkpt>
      <trkpt lat="45.09178" lon="6.15115">
        <ele>1905</ele>
        <time>2024-08-09T12:03:11Z</time>
      </trkpt>
      <trkpt lat="45.09178" lon="6.15115">
        <ele>1904.8</ele>
        <time>2024-08-09T12:03:12Z</time>
      </trkpt>
      <trkpt lat="45.0918" lon="6.15116">
        <ele>1904.2</ele>
        <time>2024-08-09T12:03:13Z</time>
      </trkpt>
      <trkpt lat="45.0918" lon="6.15116">
        <ele>1904.2</ele>
        <time>2024-08-09T12:03:14Z</time>
      </trkpt>
      <trkpt lat="45.0918" lon="6.15116">
        <ele>1903.8</ele>
        <time>2024-08-09T12:03:15Z</time>
      </trkpt>
      <trkpt lat="45.09182" lon="6.15117">
        <ele>1903.6</ele>
        <time>2024-08-09T12:03:16Z</time>
      </trkpt>
      <trkpt lat="45.09182" lon="6.15117">
        <ele>1903.2</ele>
        <time>2024-08-09T12:03:17Z</time>
      </trkpt>
      <trkpt lat="45.09184" lon="6.15118">
        <ele>1903.2</ele>
        <time>2024-08-09T12:03:18Z</time>
      </trkpt>
      <trkpt lat="45.09184" lon="6.15118">
        <ele>1903</ele>
        <time>2024-08-09T12:03:19Z</time>
      </trkpt>
      <trkpt lat="45.09187" lon="6.15119">
        <ele>1902.4</ele>
        <time>2024-08-09T12:03:20Z</time>
      </trkpt>
      <trkpt lat="45.09187" lon="6.15119">
        <ele>1902.2</ele>
        <time>2024-08-09T12:03:21Z</time>
      </trkpt>
      <trkpt lat="45.09189" lon="6.1512">
        <ele>1902</ele>
        <time>2024-08-09T12:03:22Z</time>
      </trkpt>
      <trkpt lat="45.09189" lon="6.1512">
        <ele>1901.8</ele>
        <time>2024-08-09T12:03:23Z</time>
      </trkpt>
      <trkpt lat="45.09191" lon="6.15121">
        <ele>1901.6</ele>
        <time>2024-08-09T12:03:24Z</time>
      </trkpt>
      <trkpt lat="45.09191" lon="6.15121">
        <ele>1901.2</ele>
        <time>2024-08-09T12:03:25Z</time>
      </trkpt>
      <trkpt lat="45.09194" lon="6.15122">
        <ele>1900.6</ele>
        <time>2024-08-09T12:03:26Z</time>
      </trkpt>
      <trkpt lat="45.09196" lon="6.15123">
        <ele>1900.6</ele>
        <time>2024-08-09T12:03:27Z</time>
      </trkpt>
      <trkpt lat="45.09196" lon="6.15123">
        <ele>1900.2</ele>
        <time>2024-08-09T12:03:28Z</time>
      </trkpt>
      <trkpt lat="45.09198" lon="6.15123">
        <ele>1900.2</ele>
        <time>2024-08-09T12:03:29Z</time>
      </trkpt>
      <trkpt lat="45.09198" lon="6.15123">
        <ele>1900</ele>
        <time>2024-08-09T12:03:30Z</time>
      </trkpt>
      <trkpt lat="45.092" lon="6.15122">
        <ele>1899.6</ele>
        <time>2024-08-09T12:03:31Z</time>
      </trkpt>
      <trkpt lat="45.092" lon="6.15122">
        <ele>1899.4</ele>
        <time>2024-08-09T12:03:32Z</time>
      </trkpt>
      <trkpt lat="45.09202" lon="6.15123">
        <ele>1899.2</ele>
        <time>2024-08-09T12:03:33Z</time>
      </trkpt>
      <trkpt lat="45.09202" lon="6.15123">
        <ele>1898.8</ele>
        <time>2024-08-09T12:03:34Z</time>
      </trkpt>
      <trkpt lat="45.09204" lon="6.15125">
        <ele>1898.8</ele>
        <time>2024-08-09T12:03:35Z</time>
      </trkpt>
      <trkpt lat="45.09204" lon="6.15125">
        <ele>1898.6</ele>
        <time>2024-08-09T12:03:36Z</time>
      </trkpt>
      <trkpt lat="45.09206" lon="6.15127">
        <ele>1898.4</ele>
        <time>2024-08-09T12:03:37Z</time>
      </trkpt>
      <trkpt lat="45.09206" lon="6.15127">
        <ele>1898.4</ele>
        <time>2024-08-09T12:03:38Z</time>
      </trkpt>
      <trkpt lat="45.09206" lon="6.15127">
        <ele>1898.4</ele>
        <time>2024-08-09T12:03:39Z</time>
      </trkpt>
      <trkpt lat="45.09206" lon="6.15127">
        <ele>1898.2</ele>
        <time>2024-08-09T12:03:40Z</time>
      </trkpt>
      <trkpt lat="45.09207" lon="6.1513">
        <ele>1898</ele>
        <time>2024-08-09T12:03:41Z</time>
      </trkpt>
      <trkpt lat="45.09207" lon="6.1513">
        <ele>1897.4</ele>
        <time>2024-08-09T12:03:42Z</time>
      </trkpt>
      <trkpt lat="45.09207" lon="6.1513">
        <ele>1897.2</ele>
        <time>2024-08-09T12:03:43Z</time>
      </trkpt>
      <trkpt lat="45.09207" lon="6.1513">
        <ele>1897.2</ele>
        <time>2024-08-09T12:03:44Z</time>
      </trkpt>
      <trkpt lat="45.09209" lon="6.15131">
        <ele>1896.6</ele>
        <time>2024-08-09T12:03:45Z</time>
      </trkpt>
      <trkpt lat="45.09209" lon="6.15131">
        <ele>1896.4</ele>
        <time>2024-08-09T12:03:46Z</time>
      </trkpt>
      <trkpt lat="45.09209" lon="6.15131">
        <ele>1896.2</ele>
        <time>2024-08-09T12:03:47Z</time>
      </trkpt>
      <trkpt lat="45.0921" lon="6.15135">
        <ele>1895.8</ele>
        <time>2024-08-09T12:03:48Z</time>
      </trkpt>
      <trkpt lat="45.0921" lon="6.15135">
        <ele>1895.6</ele>
        <time>2024-08-09T12:03:49Z</time>
      </trkpt>
      <trkpt lat="45.0921" lon="6.15135">
        <ele>1894.8</ele>
        <time>2024-08-09T12:03:50Z</time>
      </trkpt>
      <trkpt lat="45.09207" lon="6.15136">
        <ele>1894.6</ele>
        <time>2024-08-09T12:03:51Z</time>
      </trkpt>
      <trkpt lat="45.09207" lon="6.15136">
        <ele>1894</ele>
        <time>2024-08-09T12:03:52Z</time>
      </trkpt>
      <trkpt lat="45.09205" lon="6.15137">
        <ele>1893.8</ele>
        <time>2024-08-09T12:03:53Z</time>
      </trkpt>
      <trkpt lat="45.09205" lon="6.15137">
        <ele>1893.8</ele>
        <time>2024-08-09T12:03:54Z</time>
      </trkpt>
      <trkpt lat="45.09203" lon="6.15139">
        <ele>1893.4</ele>
        <time>2024-08-09T12:03:55Z</time>
      </trkpt>
      <trkpt lat="45.09203" lon="6.15139">
        <ele>1893.2</ele>
        <time>2024-08-09T12:03:56Z</time>
      </trkpt>
      <trkpt lat="45.09201" lon="6.1514">
        <ele>1893.2</ele>
        <time>2024-08-09T12:03:57Z</time>
      </trkpt>
      <trkpt lat="45.09201" lon="6.1514">
        <ele>1892.6</ele>
        <time>2024-08-09T12:03:58Z</time>
      </trkpt>
      <trkpt lat="45.09199" lon="6.15143">
        <ele>1892.2</ele>
        <time>2024-08-09T12:03:59Z</time>
      </trkpt>
      <trkpt lat="45.09199" lon="6.15143">
        <ele>1892</ele>
        <time>2024-08-09T12:04:00Z</time>
      </trkpt>
      <trkpt lat="45.09199" lon="6.15143">
        <ele>1891.4</ele>
        <time>2024-08-09T12:04:01Z</time>
      </trkpt>
      <trkpt lat="45.09199" lon="6.15147">
        <ele>1891.6</ele>
        <time>2024-08-09T12:04:02Z</time>
      </trkpt>
      <trkpt lat="45.09199" lon="6.15147">
        <ele>1891.6</ele>
        <time>2024-08-09T12:04:03Z</time>
      </trkpt>
      <trkpt lat="45.09198" lon="6.15149">
        <ele>1891</ele>
        <time>2024-08-09T12:04:04Z</time>
      </trkpt>
      <trkpt lat="45.09198" lon="6.15149">
        <ele>1890.8</ele>
        <time>2024-08-09T12:04:05Z</time>
      </trkpt>
      <trkpt lat="45.09198" lon="6.15149">
        <ele>1890.6</ele>
        <time>2024-08-09T12:04:06Z</time>
      </trkpt>
      <trkpt lat="45.09196" lon="6.15151">
        <ele>1890.2</ele>
        <time>2024-08-09T12:04:07Z</time>
      </trkpt>
      <trkpt lat="45.09196" lon="6.15151">
        <ele>1890.2</ele>
        <time>2024-08-09T12:04:08Z</time>
      </trkpt>
      <trkpt lat="45.09194" lon="6.15152">
        <ele>1890</ele>
        <time>2024-08-09T12:04:09Z</time>
      </trkpt>
      <trkpt lat="45.09194" lon="6.15152">
        <ele>1889.2</ele>
        <time>2024-08-09T12:04:10Z</time>
      </trkpt>
      <trkpt lat="45.09192" lon="6.15154">
        <ele>1888.8</ele>
        <time>2024-08-09T12:04:11Z</time>
      </trkpt>
      <trkpt lat="45.09192" lon="6.15154">
        <ele>1888.6</ele>
        <time>2024-08-09T12:04:12Z</time>
      </trkpt>
      <trkpt lat="45.09191" lon="6.15155">
        <ele>1888.6</ele>
        <time>2024-08-09T12:04:13Z</time>
      </trkpt>
      <trkpt lat="45.09191" lon="6.15155">
        <ele>1888.4</ele>
        <time>2024-08-09T12:04:14Z</time>
      </trkpt>
      <trkpt lat="45.09189" lon="6.15157">
        <ele>1888.2</ele>
        <time>2024-08-09T12:04:15Z</time>
      </trkpt>
      <trkpt lat="45.09189" lon="6.15157">
        <ele>1887.8</ele>
        <time>2024-08-09T12:04:16Z</time>
      </trkpt>
      <trkpt lat="45.09189" lon="6.15157">
        <ele>1887.6</ele>
        <time>2024-08-09T12:04:17Z</time>
      </trkpt>
      <trkpt lat="45.09189" lon="6.15157">
        <ele>1886.8</ele>
        <time>2024-08-09T12:04:18Z</time>
      </trkpt>
      <trkpt lat="45.09189" lon="6.15157">
        <ele>1886.8</ele>
        <time>2024-08-09T12:04:19Z</time>
      </trkpt>
      <trkpt lat="45.09192" lon="6.15156">
        <ele>1886.8</ele>
        <time>2024-08-09T12:04:20Z</time>
      </trkpt>
      <trkpt lat="45.09192" lon="6.15156">
        <ele>1886.6</ele>
        <time>2024-08-09T12:04:21Z</time>
      </trkpt>
      <trkpt lat="45.09194" lon="6.15155">
        <ele>1886.4</ele>
        <time>2024-08-09T12:04:22Z</time>
      </trkpt>
      <trkpt lat="45.09194" lon="6.15155">
        <ele>1886.2</ele>
        <time>2024-08-09T12:04:23Z</time>
      </trkpt>
      <trkpt lat="45.09196" lon="6.15157">
        <ele>1885.8</ele>
        <time>2024-08-09T12:04:24Z</time>
      </trkpt>
      <trkpt lat="45.09196" lon="6.15157">
        <ele>1885.2</ele>
        <time>2024-08-09T12:04:25Z</time>
      </trkpt>
      <trkpt lat="45.09196" lon="6.15157">
        <ele>1885</ele>
        <time>2024-08-09T12:04:26Z</time>
      </trkpt>
      <trkpt lat="45.09194" lon="6.1516">
        <ele>1884.8</ele>
        <time>2024-08-09T12:04:27Z</time>
      </trkpt>
      <trkpt lat="45.09194" lon="6.1516">
        <ele>1884.4</ele>
        <time>2024-08-09T12:04:28Z</time>
      </trkpt>
      <trkpt lat="45.09193" lon="6.15163">
        <ele>1884.2</ele>
        <time>2024-08-09T12:04:29Z</time>
      </trkpt>
      <trkpt lat="45.09193" lon="6.15163">
        <ele>1884.2</ele>
        <time>2024-08-09T12:04:30Z</time>
      </trkpt>
      <trkpt lat="45.09191" lon="6.15166">
        <ele>1884</ele>
        <time>2024-08-09T12:04:31Z</time>
      </trkpt>
      <trkpt lat="45.09191" lon="6.15166">
        <ele>1883.6</ele>
        <time>2024-08-09T12:04:32Z</time>
      </trkpt>
      <trkpt lat="45.09191" lon="6.15166">
        <ele>1883.2</ele>
        <time>2024-08-09T12:04:33Z</time>
      </trkpt>
      <trkpt lat="45.09191" lon="6.15166">
        <ele>1883</ele>
        <time>2024-08-09T12:04:34Z</time>
      </trkpt>
      <trkpt lat="45.09191" lon="6.15166">
        <ele>1883</ele>
        <time>2024-08-09T12:04:35Z</time>
      </trkpt>
      <trkpt lat="45.09191" lon="6.15166">
        <ele>1883</ele>
        <time>2024-08-09T12:04:36Z</time>
      </trkpt>
      <trkpt lat="45.09191" lon="6.15166">
        <ele>1883.2</ele>
        <time>2024-08-09T12:04:37Z</time>
      </trkpt>
      <trkpt lat="45.09191" lon="6.15166">
        <ele>1883.2</ele>
        <time>2024-08-09T12:04:38Z</time>
      </trkpt>
      <trkpt lat="45.09191" lon="6.15166">
        <ele>1883</ele>
        <time>2024-08-09T12:04:39Z</time>
      </trkpt>
      <trkpt lat="45.09191" lon="6.15166">
        <ele>1882.8</ele>
        <time>2024-08-09T12:04:40Z</time>
      </trkpt>
      <trkpt lat="45.09191" lon="6.15166">
        <ele>1882.6</ele>
        <time>2024-08-09T12:04:41Z</time>
      </trkpt>
      <trkpt lat="45.09191" lon="6.15166">
        <ele>1882.4</ele>
        <time>2024-08-09T12:04:42Z</time>
      </trkpt>
      <trkpt lat="45.09191" lon="6.15166">
        <ele>1882.4</ele>
        <time>2024-08-09T12:04:43Z</time>
      </trkpt>
      <trkpt lat="45.09193" lon="6.15164">
        <ele>1882.2</ele>
        <time>2024-08-09T12:04:44Z</time>
      </trkpt>
      <trkpt lat="45.09193" lon="6.15164">
        <ele>1882</ele>
        <time>2024-08-09T12:04:45Z</time>
      </trkpt>
      <trkpt lat="45.09195" lon="6.15164">
        <ele>1881.8</ele>
        <time>2024-08-09T12:04:46Z</time>
      </trkpt>
      <trkpt lat="45.09195" lon="6.15164">
        <ele>1881.6</ele>
        <time>2024-08-09T12:04:47Z</time>
      </trkpt>
      <trkpt lat="45.09195" lon="6.15164">
        <ele>1881.4</ele>
        <time>2024-08-09T12:04:48Z</time>
      </trkpt>
      <trkpt lat="45.09197" lon="6.15163">
        <ele>1881.2</ele>
        <time>2024-08-09T12:04:49Z</time>
      </trkpt>
      <trkpt lat="45.09197" lon="6.15163">
        <ele>1881</ele>
        <time>2024-08-09T12:04:50Z</time>
      </trkpt>
      <trkpt lat="45.09197" lon="6.15163">
        <ele>1880.6</ele>
        <time>2024-08-09T12:04:51Z</time>
      </trkpt>
      <trkpt lat="45.09198" lon="6.15165">
        <ele>1880.2</ele>
        <time>2024-08-09T12:04:52Z</time>
      </trkpt>
      <trkpt lat="45.09198" lon="6.15165">
        <ele>1879.8</ele>
        <time>2024-08-09T12:04:53Z</time>
      </trkpt>
      <trkpt lat="45.09197" lon="6.15167">
        <ele>1879.4</ele>
        <time>2024-08-09T12:04:54Z</time>
      </trkpt>
      <trkpt lat="45.09197" lon="6.15167">
        <ele>1879</ele>
        <time>2024-08-09T12:04:55Z</time>
      </trkpt>
      <trkpt lat="45.09197" lon="6.15167">
        <ele>1878.6</ele>
        <time>2024-08-09T12:04:56Z</time>
      </trkpt>
      <trkpt lat="45.09196" lon="6.15172">
        <ele>1878.4</ele>
        <time>2024-08-09T12:04:57Z</time>
      </trkpt>
      <trkpt lat="45.09196" lon="6.15172">
        <ele>1878</ele>
        <time>2024-08-09T12:04:58Z</time>
      </trkpt>
      <trkpt lat="45.09195" lon="6.15174">
        <ele>1877.8</ele>
        <time>2024-08-09T12:04:59Z</time>
      </trkpt>
      <trkpt lat="45.09195" lon="6.15174">
        <ele>1877.2</ele>
        <time>2024-08-09T12:05:00Z</time>
      </trkpt>
      <trkpt lat="45.09194" lon="6.15177">
        <ele>1877</ele>
        <time>2024-08-09T12:05:01Z</time>
      </trkpt>
      <trkpt lat="45.09194" lon="6.15177">
        <ele>1876.4</ele>
        <time>2024-08-09T12:05:02Z</time>
      </trkpt>
      <trkpt lat="45.09192" lon="6.15178">
        <ele>1876.4</ele>
        <time>2024-08-09T12:05:03Z</time>
      </trkpt>
      <trkpt lat="45.09192" lon="6.15178">
        <ele>1876</ele>
        <time>2024-08-09T12:05:04Z</time>
      </trkpt>
      <trkpt lat="45.0919" lon="6.15179">
        <ele>1876</ele>
        <time>2024-08-09T12:05:05Z</time>
      </trkpt>
      <trkpt lat="45.0919" lon="6.15179">
        <ele>1875.8</ele>
        <time>2024-08-09T12:05:06Z</time>
      </trkpt>
      <trkpt lat="45.09188" lon="6.15182">
        <ele>1875.8</ele>
        <time>2024-08-09T12:05:07Z</time>
      </trkpt>
      <trkpt lat="45.09188" lon="6.15182">
        <ele>1875.6</ele>
        <time>2024-08-09T12:05:08Z</time>
      </trkpt>
      <trkpt lat="45.09188" lon="6.15182">
        <ele>1875.4</ele>
        <time>2024-08-09T12:05:09Z</time>
      </trkpt>
      <trkpt lat="45.09188" lon="6.15184">
        <ele>1875</ele>
        <time>2024-08-09T12:05:10Z</time>
      </trkpt>
      <trkpt lat="45.09188" lon="6.15184">
        <ele>1875</ele>
        <time>2024-08-09T12:05:11Z</time>
      </trkpt>
      <trkpt lat="45.09188" lon="6.15184">
        <ele>1874.8</ele>
        <time>2024-08-09T12:05:12Z</time>
      </trkpt>
      <trkpt lat="45.0919" lon="6.15185">
        <ele>1874.2</ele>
        <time>2024-08-09T12:05:13Z</time>
      </trkpt>
      <trkpt lat="45.0919" lon="6.15185">
        <ele>1873.8</ele>
        <time>2024-08-09T12:05:14Z</time>
      </trkpt>
      <trkpt lat="45.09192" lon="6.15185">
        <ele>1873.6</ele>
        <time>2024-08-09T12:05:15Z</time>
      </trkpt>
      <trkpt lat="45.09192" lon="6.15185">
        <ele>1873.4</ele>
        <time>2024-08-09T12:05:16Z</time>
      </trkpt>
      <trkpt lat="45.09194" lon="6.15184">
        <ele>1873.4</ele>
        <time>2024-08-09T12:05:17Z</time>
      </trkpt>
      <trkpt lat="45.09194" lon="6.15184">
        <ele>1873</ele>
        <time>2024-08-09T12:05:18Z</time>
      </trkpt>
      <trkpt lat="45.09196" lon="6.15184">
        <ele>1872.8</ele>
        <time>2024-08-09T12:05:19Z</time>
      </trkpt>
      <trkpt lat="45.09196" lon="6.15184">
        <ele>1872.8</ele>
        <time>2024-08-09T12:05:20Z</time>
      </trkpt>
      <trkpt lat="45.09198" lon="6.15185">
        <ele>1872.6</ele>
        <time>2024-08-09T12:05:21Z</time>
      </trkpt>
      <trkpt lat="45.09198" lon="6.15185">
        <ele>1872.6</ele>
        <time>2024-08-09T12:05:22Z</time>
      </trkpt>
      <trkpt lat="45.092" lon="6.15186">
        <ele>1872.6</ele>
        <time>2024-08-09T12:05:23Z</time>
      </trkpt>
      <trkpt lat="45.092" lon="6.15186">
        <ele>1872.6</ele>
        <time>2024-08-09T12:05:24Z</time>
      </trkpt>
      <trkpt lat="45.092" lon="6.15186">
        <ele>1872.4</ele>
        <time>2024-08-09T12:05:25Z</time>
      </trkpt>
      <trkpt lat="45.09202" lon="6.15187">
        <ele>1872.2</ele>
        <time>2024-08-09T12:05:26Z</time>
      </trkpt>
      <trkpt lat="45.09202" lon="6.15187">
        <ele>1871.6</ele>
        <time>2024-08-09T12:05:27Z</time>
      </trkpt>
      <trkpt lat="45.09204" lon="6.15187">
        <ele>1871</ele>
        <time>2024-08-09T12:05:28Z</time>
      </trkpt>
      <trkpt lat="45.09204" lon="6.15187">
        <ele>1871</ele>
        <time>2024-08-09T12:05:29Z</time>
      </trkpt>
      <trkpt lat="45.09206" lon="6.15187">
        <ele>1870.8</ele>
        <time>2024-08-09T12:05:30Z</time>
      </trkpt>
      <trkpt lat="45.09206" lon="6.15187">
        <ele>1870.6</ele>
        <time>2024-08-09T12:05:31Z</time>
      </trkpt>
      <trkpt lat="45.09208" lon="6.15187">
        <ele>1870.4</ele>
        <time>2024-08-09T12:05:32Z</time>
      </trkpt>
      <trkpt lat="45.09208" lon="6.15187">
        <ele>1870.2</ele>
        <time>2024-08-09T12:05:33Z</time>
      </trkpt>
      <trkpt lat="45.0921" lon="6.15187">
        <ele>1870</ele>
        <time>2024-08-09T12:05:34Z</time>
      </trkpt>
      <trkpt lat="45.0921" lon="6.15187">
        <ele>1869.8</ele>
        <time>2024-08-09T12:05:35Z</time>
      </trkpt>
      <trkpt lat="45.09212" lon="6.15188">
        <ele>1869.6</ele>
        <time>2024-08-09T12:05:36Z</time>
      </trkpt>
      <trkpt lat="45.09212" lon="6.15188">
        <ele>1869.6</ele>
        <time>2024-08-09T12:05:37Z</time>
      </trkpt>
      <trkpt lat="45.09214" lon="6.15189">
        <ele>1869.6</ele>
        <time>2024-08-09T12:05:38Z</time>
      </trkpt>
      <trkpt lat="45.09214" lon="6.15189">
        <ele>1869.2</ele>
        <time>2024-08-09T12:05:39Z</time>
      </trkpt>
      <trkpt lat="45.09214" lon="6.15189">
        <ele>1869</ele>
        <time>2024-08-09T12:05:40Z</time>
      </trkpt>
      <trkpt lat="45.09216" lon="6.15191">
        <ele>1869</ele>
        <time>2024-08-09T12:05:41Z</time>
      </trkpt>
      <trkpt lat="45.09216" lon="6.15191">
        <ele>1869</ele>
        <time>2024-08-09T12:05:42Z</time>
      </trkpt>
      <trkpt lat="45.09216" lon="6.15191">
        <ele>1869</ele>
        <time>2024-08-09T12:05:43Z</time>
      </trkpt>
      <trkpt lat="45.09218" lon="6.15194">
        <ele>1868.6</ele>
        <time>2024-08-09T12:05:44Z</time>
      </trkpt>
      <trkpt lat="45.09218" lon="6.15194">
        <ele>1868.4</ele>
        <time>2024-08-09T12:05:45Z</time>
      </trkpt>
      <trkpt lat="45.09218" lon="6.15194">
        <ele>1868</ele>
        <time>2024-08-09T12:05:46Z</time>
      </trkpt>
      <trkpt lat="45.09218" lon="6.15197">
        <ele>1867.8</ele>
        <time>2024-08-09T12:05:47Z</time>
      </trkpt>
      <trkpt lat="45.09218" lon="6.15197">
        <ele>1867.4</ele>
        <time>2024-08-09T12:05:48Z</time>
      </trkpt>
      <trkpt lat="45.09218" lon="6.15197">
        <ele>1867.4</ele>
        <time>2024-08-09T12:05:49Z</time>
      </trkpt>
      <trkpt lat="45.09219" lon="6.15199">
        <ele>1867.2</ele>
        <time>2024-08-09T12:05:50Z</time>
      </trkpt>
      <trkpt lat="45.09219" lon="6.15199">
        <ele>1866.8</ele>
        <time>2024-08-09T12:05:51Z</time>
      </trkpt>
      <trkpt lat="45.09219" lon="6.15199">
        <ele>1866.6</ele>
        <time>2024-08-09T12:05:52Z</time>
      </trkpt>
      <trkpt lat="45.09219" lon="6.15199">
        <ele>1866.2</ele>
        <time>2024-08-09T12:05:53Z</time>
      </trkpt>
      <trkpt lat="45.09219" lon="6.15203">
        <ele>1866.2</ele>
        <time>2024-08-09T12:05:54Z</time>
      </trkpt>
      <trkpt lat="45.09219" lon="6.15203">
        <ele>1866</ele>
        <time>2024-08-09T12:05:55Z</time>
      </trkpt>
      <trkpt lat="45.09219" lon="6.15203">
        <ele>1865.4</ele>
        <time>2024-08-09T12:05:56Z</time>
      </trkpt>
      <trkpt lat="45.0922" lon="6.15204">
        <ele>1864.6</ele>
        <time>2024-08-09T12:05:57Z</time>
      </trkpt>
      <trkpt lat="45.0922" lon="6.15204">
        <ele>1864.4</ele>
        <time>2024-08-09T12:05:58Z</time>
      </trkpt>
      <trkpt lat="45.0922" lon="6.15204">
        <ele>1864</ele>
        <time>2024-08-09T12:05:59Z</time>
      </trkpt>
      <trkpt lat="45.09221" lon="6.15207">
        <ele>1863.6</ele>
        <time>2024-08-09T12:06:00Z</time>
      </trkpt>
      <trkpt lat="45.09221" lon="6.15207">
        <ele>1863.4</ele>
        <time>2024-08-09T12:06:01Z</time>
      </trkpt>
      <trkpt lat="45.09221" lon="6.15207">
        <ele>1862.4</ele>
        <time>2024-08-09T12:06:02Z</time>
      </trkpt>
      <trkpt lat="45.09221" lon="6.15207">
        <ele>1862.4</ele>
        <time>2024-08-09T12:06:03Z</time>
      </trkpt>
      <trkpt lat="45.09221" lon="6.15207">
        <ele>1862.2</ele>
        <time>2024-08-09T12:06:04Z</time>
      </trkpt>
      <trkpt lat="45.09221" lon="6.15207">
        <ele>1862.2</ele>
        <time>2024-08-09T12:06:05Z</time>
      </trkpt>
      <trkpt lat="45.09221" lon="6.15207">
        <ele>1861.8</ele>
        <time>2024-08-09T12:06:06Z</time>
      </trkpt>
      <trkpt lat="45.09222" lon="6.15209">
        <ele>1861.2</ele>
        <time>2024-08-09T12:06:07Z</time>
      </trkpt>
      <trkpt lat="45.09222" lon="6.15209">
        <ele>1861</ele>
        <time>2024-08-09T12:06:08Z</time>
      </trkpt>
      <trkpt lat="45.09222" lon="6.15209">
        <ele>1860.8</ele>
        <time>2024-08-09T12:06:09Z</time>
      </trkpt>
      <trkpt lat="45.09224" lon="6.15212">
        <ele>1860.4</ele>
        <time>2024-08-09T12:06:10Z</time>
      </trkpt>
      <trkpt lat="45.09224" lon="6.15212">
        <ele>1860.2</ele>
        <time>2024-08-09T12:06:11Z</time>
      </trkpt>
      <trkpt lat="45.09224" lon="6.15212">
        <ele>1860</ele>
        <time>2024-08-09T12:06:12Z</time>
      </trkpt>
      <trkpt lat="45.09227" lon="6.15213">
        <ele>1859.6</ele>
        <time>2024-08-09T12:06:13Z</time>
      </trkpt>
      <trkpt lat="45.09229" lon="6.15212">
        <ele>1859.6</ele>
        <time>2024-08-09T12:06:14Z</time>
      </trkpt>
      <trkpt lat="45.09229" lon="6.15212">
        <ele>1859.4</ele>
        <time>2024-08-09T12:06:15Z</time>
      </trkpt>
      <trkpt lat="45.09229" lon="6.15212">
        <ele>1859.4</ele>
        <time>2024-08-09T12:06:16Z</time>
      </trkpt>
      <trkpt lat="45.09229" lon="6.15212">
        <ele>1858.8</ele>
        <time>2024-08-09T12:06:17Z</time>
      </trkpt>
      <trkpt lat="45.09229" lon="6.15212">
        <ele>1858.2</ele>
        <time>2024-08-09T12:06:18Z</time>
      </trkpt>
      <trkpt lat="45.09231" lon="6.15211">
        <ele>1858.2</ele>
        <time>2024-08-09T12:06:19Z</time>
      </trkpt>
      <trkpt lat="45.09231" lon="6.15211">
        <ele>1858.2</ele>
        <time>2024-08-09T12:06:20Z</time>
      </trkpt>
      <trkpt lat="45.09233" lon="6.15211">
        <ele>1857.8</ele>
        <time>2024-08-09T12:06:21Z</time>
      </trkpt>
      <trkpt lat="45.09233" lon="6.15211">
        <ele>1857</ele>
        <time>2024-08-09T12:06:23Z</time>
      </trkpt>
      <trkpt lat="45.09236" lon="6.15211">
        <ele>1856.6</ele>
        <time>2024-08-09T12:06:24Z</time>
      </trkpt>
      <trkpt lat="45.09236" lon="6.15211">
        <ele>1856.4</ele>
        <time>2024-08-09T12:06:25Z</time>
      </trkpt>
      <trkpt lat="45.09238" lon="6.15211">
        <ele>1856.4</ele>
        <time>2024-08-09T12:06:26Z</time>
      </trkpt>
      <trkpt lat="45.09238" lon="6.15211">
        <ele>1856</ele>
        <time>2024-08-09T12:06:27Z</time>
      </trkpt>
      <trkpt lat="45.09238" lon="6.15211">
        <ele>1855.8</ele>
        <time>2024-08-09T12:06:28Z</time>
      </trkpt>
      <trkpt lat="45.0924" lon="6.15213">
        <ele>1855.4</ele>
        <time>2024-08-09T12:06:29Z</time>
      </trkpt>
      <trkpt lat="45.0924" lon="6.15213">
        <ele>1854.8</ele>
        <time>2024-08-09T12:06:30Z</time>
      </trkpt>
      <trkpt lat="45.0924" lon="6.15213">
        <ele>1854.6</ele>
        <time>2024-08-09T12:06:31Z</time>
      </trkpt>
      <trkpt lat="45.09243" lon="6.15213">
        <ele>1854.4</ele>
        <time>2024-08-09T12:06:32Z</time>
      </trkpt>
      <trkpt lat="45.09243" lon="6.15213">
        <ele>1854.4</ele>
        <time>2024-08-09T12:06:33Z</time>
      </trkpt>
      <trkpt lat="45.09245" lon="6.15214">
        <ele>1854</ele>
        <time>2024-08-09T12:06:34Z</time>
      </trkpt>
      <trkpt lat="45.09245" lon="6.15214">
        <ele>1853.6</ele>
        <time>2024-08-09T12:06:35Z</time>
      </trkpt>
      <trkpt lat="45.09247" lon="6.15216">
        <ele>1853.6</ele>
        <time>2024-08-09T12:06:36Z</time>
      </trkpt>
      <trkpt lat="45.09247" lon="6.15216">
        <ele>1853.4</ele>
        <time>2024-08-09T12:06:37Z</time>
      </trkpt>
      <trkpt lat="45.09249" lon="6.15217">
        <ele>1853.2</ele>
        <time>2024-08-09T12:06:38Z</time>
      </trkpt>
      <trkpt lat="45.09249" lon="6.15217">
        <ele>1852.8</ele>
        <time>2024-08-09T12:06:39Z</time>
      </trkpt>
      <trkpt lat="45.09251" lon="6.15217">
        <ele>1852.6</ele>
        <time>2024-08-09T12:06:40Z</time>
      </trkpt>
      <trkpt lat="45.09251" lon="6.15217">
        <ele>1852.6</ele>
        <time>2024-08-09T12:06:41Z</time>
      </trkpt>
      <trkpt lat="45.09253" lon="6.15218">
        <ele>1852.2</ele>
        <time>2024-08-09T12:06:42Z</time>
      </trkpt>
      <trkpt lat="45.09253" lon="6.15218">
        <ele>1852</ele>
        <time>2024-08-09T12:06:43Z</time>
      </trkpt>
      <trkpt lat="45.09254" lon="6.15221">
        <ele>1852</ele>
        <time>2024-08-09T12:06:44Z</time>
      </trkpt>
      <trkpt lat="45.09254" lon="6.15221">
        <ele>1851.6</ele>
        <time>2024-08-09T12:06:45Z</time>
      </trkpt>
      <trkpt lat="45.09254" lon="6.15221">
        <ele>1851.2</ele>
        <time>2024-08-09T12:06:46Z</time>
      </trkpt>
      <trkpt lat="45.09255" lon="6.15224">
        <ele>1850.6</ele>
        <time>2024-08-09T12:06:47Z</time>
      </trkpt>
      <trkpt lat="45.09255" lon="6.15224">
        <ele>1850.6</ele>
        <time>2024-08-09T12:06:48Z</time>
      </trkpt>
      <trkpt lat="45.09255" lon="6.15224">
        <ele>1850.4</ele>
        <time>2024-08-09T12:06:49Z</time>
      </trkpt>
      <trkpt lat="45.09256" lon="6.15227">
        <ele>1850.2</ele>
        <time>2024-08-09T12:06:50Z</time>
      </trkpt>
      <trkpt lat="45.09256" lon="6.15227">
        <ele>1850</ele>
        <time>2024-08-09T12:06:51Z</time>
      </trkpt>
      <trkpt lat="45.09256" lon="6.15227">
        <ele>1849.8</ele>
        <time>2024-08-09T12:06:52Z</time>
      </trkpt>
      <trkpt lat="45.09258" lon="6.15229">
        <ele>1849.2</ele>
        <time>2024-08-09T12:06:53Z</time>
      </trkpt>
      <trkpt lat="45.09258" lon="6.15229">
        <ele>1848.8</ele>
        <time>2024-08-09T12:06:54Z</time>
      </trkpt>
      <trkpt lat="45.0926" lon="6.1523">
        <ele>1848.6</ele>
        <time>2024-08-09T12:06:55Z</time>
      </trkpt>
      <trkpt lat="45.0926" lon="6.1523">
        <ele>1848.2</ele>
        <time>2024-08-09T12:06:56Z</time>
      </trkpt>
      <trkpt lat="45.0926" lon="6.1523">
        <ele>1848</ele>
        <time>2024-08-09T12:06:57Z</time>
      </trkpt>
      <trkpt lat="45.09261" lon="6.15232">
        <ele>1847.6</ele>
        <time>2024-08-09T12:06:58Z</time>
      </trkpt>
      <trkpt lat="45.09261" lon="6.15232">
        <ele>1847.4</ele>
        <time>2024-08-09T12:06:59Z</time>
      </trkpt>
      <trkpt lat="45.09263" lon="6.15233">
        <ele>1847</ele>
        <time>2024-08-09T12:07:00Z</time>
      </trkpt>
      <trkpt lat="45.09263" lon="6.15233">
        <ele>1847</ele>
        <time>2024-08-09T12:07:01Z</time>
      </trkpt>
      <trkpt lat="45.09266" lon="6.15234">
        <ele>1846.6</ele>
        <time>2024-08-09T12:07:02Z</time>
      </trkpt>
      <trkpt lat="45.09266" lon="6.15234">
        <ele>1846.6</ele>
        <time>2024-08-09T12:07:03Z</time>
      </trkpt>
      <trkpt lat="45.09267" lon="6.15235">
        <ele>1846.4</ele>
        <time>2024-08-09T12:07:04Z</time>
      </trkpt>
      <trkpt lat="45.09267" lon="6.15235">
        <ele>1846.4</ele>
        <time>2024-08-09T12:07:05Z</time>
      </trkpt>
      <trkpt lat="45.09267" lon="6.15235">
        <ele>1846.2</ele>
        <time>2024-08-09T12:07:06Z</time>
      </trkpt>
      <trkpt lat="45.0927" lon="6.15236">
        <ele>1845.8</ele>
        <time>2024-08-09T12:07:07Z</time>
      </trkpt>
      <trkpt lat="45.0927" lon="6.15236">
        <ele>1845.4</ele>
        <time>2024-08-09T12:07:08Z</time>
      </trkpt>
      <trkpt lat="45.09271" lon="6.15238">
        <ele>1845.2</ele>
        <time>2024-08-09T12:07:09Z</time>
      </trkpt>
      <trkpt lat="45.09271" lon="6.15238">
        <ele>1844.8</ele>
        <time>2024-08-09T12:07:10Z</time>
      </trkpt>
      <trkpt lat="45.09271" lon="6.15238">
        <ele>1844.6</ele>
        <time>2024-08-09T12:07:11Z</time>
      </trkpt>
      <trkpt lat="45.09273" lon="6.1524">
        <ele>1844</ele>
        <time>2024-08-09T12:07:12Z</time>
      </trkpt>
      <trkpt lat="45.09273" lon="6.1524">
        <ele>1843.6</ele>
        <time>2024-08-09T12:07:13Z</time>
      </trkpt>
      <trkpt lat="45.09275" lon="6.15242">
        <ele>1843.4</ele>
        <time>2024-08-09T12:07:14Z</time>
      </trkpt>
      <trkpt lat="45.09275" lon="6.15242">
        <ele>1843.2</ele>
        <time>2024-08-09T12:07:15Z</time>
      </trkpt>
      <trkpt lat="45.09277" lon="6.15243">
        <ele>1843</ele>
        <time>2024-08-09T12:07:16Z</time>
      </trkpt>
      <trkpt lat="45.09277" lon="6.15243">
        <ele>1842.6</ele>
        <time>2024-08-09T12:07:17Z</time>
      </trkpt>
      <trkpt lat="45.09279" lon="6.15244">
        <ele>1842</ele>
        <time>2024-08-09T12:07:18Z</time>
      </trkpt>
      <trkpt lat="45.09279" lon="6.15244">
        <ele>1841.6</ele>
        <time>2024-08-09T12:07:19Z</time>
      </trkpt>
      <trkpt lat="45.0928" lon="6.15246">
        <ele>1841.4</ele>
        <time>2024-08-09T12:07:20Z</time>
      </trkpt>
      <trkpt lat="45.0928" lon="6.15246">
        <ele>1840.8</ele>
        <time>2024-08-09T12:07:21Z</time>
      </trkpt>
      <trkpt lat="45.09282" lon="6.15248">
        <ele>1840.2</ele>
        <time>2024-08-09T12:07:22Z</time>
      </trkpt>
      <trkpt lat="45.09282" lon="6.15248">
        <ele>1840</ele>
        <time>2024-08-09T12:07:23Z</time>
      </trkpt>
      <trkpt lat="45.09284" lon="6.15249">
        <ele>1839.6</ele>
        <time>2024-08-09T12:07:24Z</time>
      </trkpt>
      <trkpt lat="45.09284" lon="6.15249">
        <ele>1839.2</ele>
        <time>2024-08-09T12:07:25Z</time>
      </trkpt>
      <trkpt lat="45.09286" lon="6.1525">
        <ele>1838.8</ele>
        <time>2024-08-09T12:07:26Z</time>
      </trkpt>
      <trkpt lat="45.09286" lon="6.1525">
        <ele>1838.6</ele>
        <time>2024-08-09T12:07:27Z</time>
      </trkpt>
      <trkpt lat="45.09288" lon="6.15251">
        <ele>1838.2</ele>
        <time>2024-08-09T12:07:28Z</time>
      </trkpt>
      <trkpt lat="45.09288" lon="6.15251">
        <ele>1837.6</ele>
        <time>2024-08-09T12:07:29Z</time>
      </trkpt>
      <trkpt lat="45.09288" lon="6.15251">
        <ele>1837.6</ele>
        <time>2024-08-09T12:07:30Z</time>
      </trkpt>
      <trkpt lat="45.09289" lon="6.15255">
        <ele>1837.6</ele>
        <time>2024-08-09T12:07:31Z</time>
      </trkpt>
      <trkpt lat="45.09289" lon="6.15255">
        <ele>1837.6</ele>
        <time>2024-08-09T12:07:32Z</time>
      </trkpt>
      <trkpt lat="45.09289" lon="6.15255">
        <ele>1837</ele>
        <time>2024-08-09T12:07:33Z</time>
      </trkpt>
      <trkpt lat="45.0929" lon="6.15258">
        <ele>1836.8</ele>
        <time>2024-08-09T12:07:34Z</time>
      </trkpt>
      <trkpt lat="45.0929" lon="6.15258">
        <ele>1836.2</ele>
        <time>2024-08-09T12:07:35Z</time>
      </trkpt>
      <trkpt lat="45.0929" lon="6.15258">
        <ele>1836.2</ele>
        <time>2024-08-09T12:07:36Z</time>
      </trkpt>
      <trkpt lat="45.09292" lon="6.15261">
        <ele>1835.8</ele>
        <time>2024-08-09T12:07:37Z</time>
      </trkpt>
      <trkpt lat="45.09292" lon="6.15261">
        <ele>1835.4</ele>
        <time>2024-08-09T12:07:38Z</time>
      </trkpt>
      <trkpt lat="45.09292" lon="6.15261">
        <ele>1835.2</ele>
        <time>2024-08-09T12:07:39Z</time>
      </trkpt>
      <trkpt lat="45.09292" lon="6.15264">
        <ele>1835.2</ele>
        <time>2024-08-09T12:07:40Z</time>
      </trkpt>
      <trkpt lat="45.09292" lon="6.15264">
        <ele>1835</ele>
        <time>2024-08-09T12:07:41Z</time>
      </trkpt>
      <trkpt lat="45.09292" lon="6.15267">
        <ele>1834.6</ele>
        <time>2024-08-09T12:07:42Z</time>
      </trkpt>
      <trkpt lat="45.09292" lon="6.15267">
        <ele>1834.2</ele>
        <time>2024-08-09T12:07:43Z</time>
      </trkpt>
      <trkpt lat="45.09292" lon="6.1527">
        <ele>1834</ele>
        <time>2024-08-09T12:07:44Z</time>
      </trkpt>
      <trkpt lat="45.09292" lon="6.1527">
        <ele>1833.6</ele>
        <time>2024-08-09T12:07:45Z</time>
      </trkpt>
      <trkpt lat="45.09292" lon="6.1527">
        <ele>1833.2</ele>
        <time>2024-08-09T12:07:46Z</time>
      </trkpt>
      <trkpt lat="45.09292" lon="6.1527">
        <ele>1832.8</ele>
        <time>2024-08-09T12:07:47Z</time>
      </trkpt>
      <trkpt lat="45.09292" lon="6.1527">
        <ele>1832.8</ele>
        <time>2024-08-09T12:07:48Z</time>
      </trkpt>
      <trkpt lat="45.09292" lon="6.1527">
        <ele>1833</ele>
        <time>2024-08-09T12:07:49Z</time>
      </trkpt>
      <trkpt lat="45.09292" lon="6.1527">
        <ele>1833</ele>
        <time>2024-08-09T12:07:50Z</time>
      </trkpt>
      <trkpt lat="45.09292" lon="6.1527">
        <ele>1832.8</ele>
        <time>2024-08-09T12:07:51Z</time>
      </trkpt>
      <trkpt lat="45.09292" lon="6.1527">
        <ele>1832.4</ele>
        <time>2024-08-09T12:07:52Z</time>
      </trkpt>
      <trkpt lat="45.09292" lon="6.1527">
        <ele>1832.2</ele>
        <time>2024-08-09T12:07:53Z</time>
      </trkpt>
      <trkpt lat="45.09292" lon="6.1527">
        <ele>1832.2</ele>
        <time>2024-08-09T12:07:54Z</time>
      </trkpt>
      <trkpt lat="45.09292" lon="6.1527">
        <ele>1832.4</ele>
        <time>2024-08-09T12:07:55Z</time>
      </trkpt>
      <trkpt lat="45.09292" lon="6.1527">
        <ele>1832.6</ele>
        <time>2024-08-09T12:07:56Z</time>
      </trkpt>
      <trkpt lat="45.09292" lon="6.1527">
        <ele>1832.6</ele>
        <time>2024-08-09T12:07:57Z</time>
      </trkpt>
      <trkpt lat="45.09292" lon="6.1527">
        <ele>1832.6</ele>
        <time>2024-08-09T12:07:58Z</time>
      </trkpt>
      <trkpt lat="45.09292" lon="6.1527">
        <ele>1832.6</ele>
        <time>2024-08-09T12:07:59Z</time>
      </trkpt>
      <trkpt lat="45.09292" lon="6.1527">
        <ele>1832.6</ele>
        <time>2024-08-09T12:08:00Z</time>
      </trkpt>
      <trkpt lat="45.09292" lon="6.1527">
        <ele>1832.6</ele>
        <time>2024-08-09T12:08:01Z</time>
      </trkpt>
      <trkpt lat="45.09292" lon="6.1527">
        <ele>1832.6</ele>
        <time>2024-08-09T12:08:02Z</time>
      </trkpt>
      <trkpt lat="45.09292" lon="6.1527">
        <ele>1832.6</ele>
        <time>2024-08-09T12:08:03Z</time>
      </trkpt>
      <trkpt lat="45.09292" lon="6.1527">
        <ele>1832.8</ele>
        <time>2024-08-09T12:08:04Z</time>
      </trkpt>
      <trkpt lat="45.09292" lon="6.1527">
        <ele>1833</ele>
        <time>2024-08-09T12:08:05Z</time>
      </trkpt>
      <trkpt lat="45.09292" lon="6.1527">
        <ele>1833.2</ele>
        <time>2024-08-09T12:08:06Z</time>
      </trkpt>
      <trkpt lat="45.09292" lon="6.1527">
        <ele>1833.2</ele>
        <time>2024-08-09T12:08:07Z</time>
      </trkpt>
      <trkpt lat="45.09292" lon="6.1527">
        <ele>1833.4</ele>
        <time>2024-08-09T12:08:08Z</time>
      </trkpt>
      <trkpt lat="45.09292" lon="6.1527">
        <ele>1833.4</ele>
        <time>2024-08-09T12:08:09Z</time>
      </trkpt>
      <trkpt lat="45.09292" lon="6.1527">
        <ele>1833.2</ele>
        <time>2024-08-09T12:08:10Z</time>
      </trkpt>
      <trkpt lat="45.09292" lon="6.1527">
        <ele>1833.2</ele>
        <time>2024-08-09T12:08:11Z</time>
      </trkpt>
      <trkpt lat="45.09292" lon="6.1527">
        <ele>1833.6</ele>
        <time>2024-08-09T12:08:12Z</time>
      </trkpt>
      <trkpt lat="45.09292" lon="6.1527">
        <ele>1833.6</ele>
        <time>2024-08-09T12:08:13Z</time>
      </trkpt>
      <trkpt lat="45.09292" lon="6.1527">
        <ele>1833.4</ele>
        <time>2024-08-09T12:08:14Z</time>
      </trkpt>
      <trkpt lat="45.09292" lon="6.1527">
        <ele>1833.4</ele>
        <time>2024-08-09T12:08:15Z</time>
      </trkpt>
      <trkpt lat="45.09292" lon="6.1527">
        <ele>1833.6</ele>
        <time>2024-08-09T12:08:16Z</time>
      </trkpt>
      <trkpt lat="45.09292" lon="6.1527">
        <ele>1833.8</ele>
        <time>2024-08-09T12:08:17Z</time>
      </trkpt>
      <trkpt lat="45.09292" lon="6.1527">
        <ele>1833.8</ele>
        <time>2024-08-09T12:08:18Z</time>
      </trkpt>
      <trkpt lat="45.09292" lon="6.1527">
        <ele>1833.8</ele>
        <time>2024-08-09T12:08:19Z</time>
      </trkpt>
      <trkpt lat="45.0929" lon="6.15269">
        <ele>1833.6</ele>
        <time>2024-08-09T12:08:20Z</time>
      </trkpt>
      <trkpt lat="45.0929" lon="6.15269">
        <ele>1833.4</ele>
        <time>2024-08-09T12:08:21Z</time>
      </trkpt>
      <trkpt lat="45.09288" lon="6.15269">
        <ele>1833.2</ele>
        <time>2024-08-09T12:08:22Z</time>
      </trkpt>
      <trkpt lat="45.09288" lon="6.15269">
        <ele>1832.6</ele>
        <time>2024-08-09T12:08:23Z</time>
      </trkpt>
      <trkpt lat="45.09288" lon="6.15269">
        <ele>1832.4</ele>
        <time>2024-08-09T12:08:24Z</time>
      </trkpt>
      <trkpt lat="45.09286" lon="6.1527">
        <ele>1831.8</ele>
        <time>2024-08-09T12:08:25Z</time>
      </trkpt>
      <trkpt lat="45.09286" lon="6.1527">
        <ele>1831.6</ele>
        <time>2024-08-09T12:08:26Z</time>
      </trkpt>
      <trkpt lat="45.09285" lon="6.15273">
        <ele>1831.2</ele>
        <time>2024-08-09T12:08:27Z</time>
      </trkpt>
      <trkpt lat="45.09285" lon="6.15273">
        <ele>1830.8</ele>
        <time>2024-08-09T12:08:28Z</time>
      </trkpt>
      <trkpt lat="45.09284" lon="6.15275">
        <ele>1830.6</ele>
        <time>2024-08-09T12:08:29Z</time>
      </trkpt>
      <trkpt lat="45.09284" lon="6.15275">
        <ele>1830.4</ele>
        <time>2024-08-09T12:08:30Z</time>
      </trkpt>
      <trkpt lat="45.09282" lon="6.15277">
        <ele>1830.2</ele>
        <time>2024-08-09T12:08:31Z</time>
      </trkpt>
      <trkpt lat="45.09282" lon="6.15277">
        <ele>1829.8</ele>
        <time>2024-08-09T12:08:32Z</time>
      </trkpt>
      <trkpt lat="45.0928" lon="6.15278">
        <ele>1829.2</ele>
        <time>2024-08-09T12:08:33Z</time>
      </trkpt>
      <trkpt lat="45.0928" lon="6.15278">
        <ele>1829</ele>
        <time>2024-08-09T12:08:34Z</time>
      </trkpt>
      <trkpt lat="45.09279" lon="6.1528">
        <ele>1828.6</ele>
        <time>2024-08-09T12:08:35Z</time>
      </trkpt>
      <trkpt lat="45.09279" lon="6.1528">
        <ele>1828.2</ele>
        <time>2024-08-09T12:08:36Z</time>
      </trkpt>
      <trkpt lat="45.09277" lon="6.15281">
        <ele>1828</ele>
        <time>2024-08-09T12:08:37Z</time>
      </trkpt>
      <trkpt lat="45.09277" lon="6.15281">
        <ele>1827.8</ele>
        <time>2024-08-09T12:08:38Z</time>
      </trkpt>
      <trkpt lat="45.09275" lon="6.15283">
        <ele>1827.4</ele>
        <time>2024-08-09T12:08:39Z</time>
      </trkpt>
      <trkpt lat="45.09275" lon="6.15283">
        <ele>1827.2</ele>
        <time>2024-08-09T12:08:40Z</time>
      </trkpt>
      <trkpt lat="45.09275" lon="6.15283">
        <ele>1826.8</ele>
        <time>2024-08-09T12:08:41Z</time>
      </trkpt>
      <trkpt lat="45.09272" lon="6.15284">
        <ele>1826.4</ele>
        <time>2024-08-09T12:08:42Z</time>
      </trkpt>
      <trkpt lat="45.09272" lon="6.15284">
        <ele>1826.2</ele>
        <time>2024-08-09T12:08:43Z</time>
      </trkpt>
      <trkpt lat="45.09269" lon="6.15285">
        <ele>1826</ele>
        <time>2024-08-09T12:08:44Z</time>
      </trkpt>
      <trkpt lat="45.09269" lon="6.15285">
        <ele>1825.8</ele>
        <time>2024-08-09T12:08:45Z</time>
      </trkpt>
      <trkpt lat="45.09268" lon="6.15286">
        <ele>1825.6</ele>
        <time>2024-08-09T12:08:46Z</time>
      </trkpt>
      <trkpt lat="45.09268" lon="6.15286">
        <ele>1825.6</ele>
        <time>2024-08-09T12:08:47Z</time>
      </trkpt>
      <trkpt lat="45.09268" lon="6.15286">
        <ele>1825.4</ele>
        <time>2024-08-09T12:08:48Z</time>
      </trkpt>
      <trkpt lat="45.09265" lon="6.15287">
        <ele>1825.4</ele>
        <time>2024-08-09T12:08:49Z</time>
      </trkpt>
      <trkpt lat="45.09265" lon="6.15287">
        <ele>1825.2</ele>
        <time>2024-08-09T12:08:50Z</time>
      </trkpt>
      <trkpt lat="45.09263" lon="6.15288">
        <ele>1824.8</ele>
        <time>2024-08-09T12:08:51Z</time>
      </trkpt>
      <trkpt lat="45.09263" lon="6.15288">
        <ele>1824.4</ele>
        <time>2024-08-09T12:08:52Z</time>
      </trkpt>
      <trkpt lat="45.09261" lon="6.15289">
        <ele>1824</ele>
        <time>2024-08-09T12:08:53Z</time>
      </trkpt>
      <trkpt lat="45.09261" lon="6.15289">
        <ele>1823.6</ele>
        <time>2024-08-09T12:08:54Z</time>
      </trkpt>
      <trkpt lat="45.0926" lon="6.1529">
        <ele>1823.4</ele>
        <time>2024-08-09T12:08:55Z</time>
      </trkpt>
      <trkpt lat="45.0926" lon="6.1529">
        <ele>1823.2</ele>
        <time>2024-08-09T12:08:56Z</time>
      </trkpt>
      <trkpt lat="45.09258" lon="6.15291">
        <ele>1823</ele>
        <time>2024-08-09T12:08:57Z</time>
      </trkpt>
      <trkpt lat="45.09258" lon="6.15291">
        <ele>1822.6</ele>
        <time>2024-08-09T12:08:58Z</time>
      </trkpt>
      <trkpt lat="45.09258" lon="6.15291">
        <ele>1822.4</ele>
        <time>2024-08-09T12:08:59Z</time>
      </trkpt>
      <trkpt lat="45.09255" lon="6.15293">
        <ele>1822</ele>
        <time>2024-08-09T12:09:00Z</time>
      </trkpt>
      <trkpt lat="45.09255" lon="6.15293">
        <ele>1821.6</ele>
        <time>2024-08-09T12:09:01Z</time>
      </trkpt>
      <trkpt lat="45.09253" lon="6.15294">
        <ele>1821.4</ele>
        <time>2024-08-09T12:09:02Z</time>
      </trkpt>
      <trkpt lat="45.09253" lon="6.15294">
        <ele>1821.4</ele>
        <time>2024-08-09T12:09:03Z</time>
      </trkpt>
      <trkpt lat="45.09253" lon="6.15294">
        <ele>1820.8</ele>
        <time>2024-08-09T12:09:04Z</time>
      </trkpt>
      <trkpt lat="45.0925" lon="6.15296">
        <ele>1820.6</ele>
        <time>2024-08-09T12:09:05Z</time>
      </trkpt>
      <trkpt lat="45.0925" lon="6.15296">
        <ele>1820.6</ele>
        <time>2024-08-09T12:09:06Z</time>
      </trkpt>
      <trkpt lat="45.09248" lon="6.15298">
        <ele>1820.2</ele>
        <time>2024-08-09T12:09:07Z</time>
      </trkpt>
      <trkpt lat="45.09248" lon="6.15298">
        <ele>1820.2</ele>
        <time>2024-08-09T12:09:08Z</time>
      </trkpt>
      <trkpt lat="45.09246" lon="6.15298">
        <ele>1819.8</ele>
        <time>2024-08-09T12:09:09Z</time>
      </trkpt>
      <trkpt lat="45.09246" lon="6.15298">
        <ele>1819.6</ele>
        <time>2024-08-09T12:09:10Z</time>
      </trkpt>
      <trkpt lat="45.09244" lon="6.15299">
        <ele>1819</ele>
        <time>2024-08-09T12:09:11Z</time>
      </trkpt>
      <trkpt lat="45.09244" lon="6.15299">
        <ele>1818.8</ele>
        <time>2024-08-09T12:09:12Z</time>
      </trkpt>
      <trkpt lat="45.09242" lon="6.15299">
        <ele>1818.4</ele>
        <time>2024-08-09T12:09:13Z</time>
      </trkpt>
      <trkpt lat="45.09242" lon="6.15299">
        <ele>1818.2</ele>
        <time>2024-08-09T12:09:14Z</time>
      </trkpt>
      <trkpt lat="45.09239" lon="6.15298">
        <ele>1817.8</ele>
        <time>2024-08-09T12:09:15Z</time>
      </trkpt>
      <trkpt lat="45.09239" lon="6.15298">
        <ele>1817.6</ele>
        <time>2024-08-09T12:09:16Z</time>
      </trkpt>
      <trkpt lat="45.09237" lon="6.15298">
        <ele>1817.4</ele>
        <time>2024-08-09T12:09:17Z</time>
      </trkpt>
      <trkpt lat="45.09237" lon="6.15298">
        <ele>1817.4</ele>
        <time>2024-08-09T12:09:18Z</time>
      </trkpt>
      <trkpt lat="45.09234" lon="6.15299">
        <ele>1817.2</ele>
        <time>2024-08-09T12:09:19Z</time>
      </trkpt>
      <trkpt lat="45.09234" lon="6.15299">
        <ele>1817</ele>
        <time>2024-08-09T12:09:20Z</time>
      </trkpt>
      <trkpt lat="45.09232" lon="6.153">
        <ele>1817</ele>
        <time>2024-08-09T12:09:21Z</time>
      </trkpt>
      <trkpt lat="45.09232" lon="6.153">
        <ele>1816.6</ele>
        <time>2024-08-09T12:09:22Z</time>
      </trkpt>
      <trkpt lat="45.09229" lon="6.153">
        <ele>1816.6</ele>
        <time>2024-08-09T12:09:23Z</time>
      </trkpt>
      <trkpt lat="45.09229" lon="6.153">
        <ele>1816.4</ele>
        <time>2024-08-09T12:09:24Z</time>
      </trkpt>
      <trkpt lat="45.09229" lon="6.153">
        <ele>1816</ele>
        <time>2024-08-09T12:09:25Z</time>
      </trkpt>
      <trkpt lat="45.09226" lon="6.15301">
        <ele>1815.4</ele>
        <time>2024-08-09T12:09:26Z</time>
      </trkpt>
      <trkpt lat="45.09226" lon="6.15301">
        <ele>1815.4</ele>
        <time>2024-08-09T12:09:27Z</time>
      </trkpt>
      <trkpt lat="45.09224" lon="6.15301">
        <ele>1815.2</ele>
        <time>2024-08-09T12:09:28Z</time>
      </trkpt>
      <trkpt lat="45.09224" lon="6.15301">
        <ele>1814.8</ele>
        <time>2024-08-09T12:09:29Z</time>
      </trkpt>
      <trkpt lat="45.09221" lon="6.15301">
        <ele>1814.6</ele>
        <time>2024-08-09T12:09:30Z</time>
      </trkpt>
      <trkpt lat="45.09221" lon="6.15301">
        <ele>1814.6</ele>
        <time>2024-08-09T12:09:31Z</time>
      </trkpt>
      <trkpt lat="45.09218" lon="6.15301">
        <ele>1814.4</ele>
        <time>2024-08-09T12:09:32Z</time>
      </trkpt>
      <trkpt lat="45.09218" lon="6.15301">
        <ele>1814.2</ele>
        <time>2024-08-09T12:09:33Z</time>
      </trkpt>
      <trkpt lat="45.09216" lon="6.15301">
        <ele>1814.2</ele>
        <time>2024-08-09T12:09:34Z</time>
      </trkpt>
      <trkpt lat="45.09216" lon="6.15301">
        <ele>1813.8</ele>
        <time>2024-08-09T12:09:35Z</time>
      </trkpt>
      <trkpt lat="45.09213" lon="6.153">
        <ele>1813.4</ele>
        <time>2024-08-09T12:09:36Z</time>
      </trkpt>
      <trkpt lat="45.09213" lon="6.153">
        <ele>1813</ele>
        <time>2024-08-09T12:09:37Z</time>
      </trkpt>
      <trkpt lat="45.09211" lon="6.153">
        <ele>1813</ele>
        <time>2024-08-09T12:09:38Z</time>
      </trkpt>
      <trkpt lat="45.09211" lon="6.153">
        <ele>1813.2</ele>
        <time>2024-08-09T12:09:39Z</time>
      </trkpt>
      <trkpt lat="45.09209" lon="6.15298">
        <ele>1813.2</ele>
        <time>2024-08-09T12:09:40Z</time>
      </trkpt>
      <trkpt lat="45.09209" lon="6.15298">
        <ele>1813.2</ele>
        <time>2024-08-09T12:09:41Z</time>
      </trkpt>
      <trkpt lat="45.09209" lon="6.15298">
        <ele>1812.8</ele>
        <time>2024-08-09T12:09:42Z</time>
      </trkpt>
      <trkpt lat="45.09209" lon="6.15298">
        <ele>1812.8</ele>
        <time>2024-08-09T12:09:43Z</time>
      </trkpt>
      <trkpt lat="45.09208" lon="6.15296">
        <ele>1812.8</ele>
        <time>2024-08-09T12:09:44Z</time>
      </trkpt>
      <trkpt lat="45.09208" lon="6.15296">
        <ele>1812.8</ele>
        <time>2024-08-09T12:09:45Z</time>
      </trkpt>
      <trkpt lat="45.09208" lon="6.15296">
        <ele>1812.8</ele>
        <time>2024-08-09T12:09:46Z</time>
      </trkpt>
      <trkpt lat="45.09208" lon="6.15296">
        <ele>1812.8</ele>
        <time>2024-08-09T12:09:47Z</time>
      </trkpt>
      <trkpt lat="45.09208" lon="6.15296">
        <ele>1812.6</ele>
        <time>2024-08-09T12:09:48Z</time>
      </trkpt>
      <trkpt lat="45.09208" lon="6.15296">
        <ele>1812.2</ele>
        <time>2024-08-09T12:09:49Z</time>
      </trkpt>
      <trkpt lat="45.09208" lon="6.15296">
        <ele>1812.2</ele>
        <time>2024-08-09T12:09:50Z</time>
      </trkpt>
      <trkpt lat="45.09208" lon="6.15296">
        <ele>1812.2</ele>
        <time>2024-08-09T12:09:51Z</time>
      </trkpt>
      <trkpt lat="45.09208" lon="6.15296">
        <ele>1812.2</ele>
        <time>2024-08-09T12:09:52Z</time>
      </trkpt>
      <trkpt lat="45.09208" lon="6.15296">
        <ele>1812.2</ele>
        <time>2024-08-09T12:09:53Z</time>
      </trkpt>
      <trkpt lat="45.09208" lon="6.15296">
        <ele>1812.2</ele>
        <time>2024-08-09T12:09:54Z</time>
      </trkpt>
      <trkpt lat="45.09208" lon="6.15296">
        <ele>1812.2</ele>
        <time>2024-08-09T12:09:55Z</time>
      </trkpt>
      <trkpt lat="45.09208" lon="6.15296">
        <ele>1812</ele>
        <time>2024-08-09T12:09:56Z</time>
      </trkpt>
      <trkpt lat="45.0921" lon="6.15299">
        <ele>1811.6</ele>
        <time>2024-08-09T12:09:57Z</time>
      </trkpt>
      <trkpt lat="45.0921" lon="6.15299">
        <ele>1811.2</ele>
        <time>2024-08-09T12:09:58Z</time>
      </trkpt>
      <trkpt lat="45.09213" lon="6.15301">
        <ele>1811.2</ele>
        <time>2024-08-09T12:09:59Z</time>
      </trkpt>
      <trkpt lat="45.09215" lon="6.15303">
        <ele>1810.8</ele>
        <time>2024-08-09T12:10:01Z</time>
      </trkpt>
      <trkpt lat="45.09215" lon="6.15303">
        <ele>1810.4</ele>
        <time>2024-08-09T12:10:02Z</time>
      </trkpt>
      <trkpt lat="45.09216" lon="6.15305">
        <ele>1810.4</ele>
        <time>2024-08-09T12:10:03Z</time>
      </trkpt>
      <trkpt lat="45.09216" lon="6.15305">
        <ele>1810.4</ele>
        <time>2024-08-09T12:10:04Z</time>
      </trkpt>
      <trkpt lat="45.09218" lon="6.15306">
        <ele>1810.2</ele>
        <time>2024-08-09T12:10:05Z</time>
      </trkpt>
      <trkpt lat="45.09218" lon="6.15306">
        <ele>1809.6</ele>
        <time>2024-08-09T12:10:06Z</time>
      </trkpt>
      <trkpt lat="45.0922" lon="6.15308">
        <ele>1809.4</ele>
        <time>2024-08-09T12:10:07Z</time>
      </trkpt>
      <trkpt lat="45.0922" lon="6.15308">
        <ele>1809.4</ele>
        <time>2024-08-09T12:10:08Z</time>
      </trkpt>
      <trkpt lat="45.09222" lon="6.1531">
        <ele>1809.2</ele>
        <time>2024-08-09T12:10:09Z</time>
      </trkpt>
      <trkpt lat="45.09222" lon="6.1531">
        <ele>1809</ele>
        <time>2024-08-09T12:10:10Z</time>
      </trkpt>
      <trkpt lat="45.09222" lon="6.1531">
        <ele>1808.8</ele>
        <time>2024-08-09T12:10:11Z</time>
      </trkpt>
      <trkpt lat="45.09224" lon="6.15313">
        <ele>1808.6</ele>
        <time>2024-08-09T12:10:12Z</time>
      </trkpt>
      <trkpt lat="45.09224" lon="6.15313">
        <ele>1808.2</ele>
        <time>2024-08-09T12:10:13Z</time>
      </trkpt>
      <trkpt lat="45.09226" lon="6.15315">
        <ele>1808</ele>
        <time>2024-08-09T12:10:14Z</time>
      </trkpt>
      <trkpt lat="45.09226" lon="6.15315">
        <ele>1808</ele>
        <time>2024-08-09T12:10:15Z</time>
      </trkpt>
      <trkpt lat="45.09228" lon="6.15316">
        <ele>1808</ele>
        <time>2024-08-09T12:10:16Z</time>
      </trkpt>
      <trkpt lat="45.09228" lon="6.15316">
        <ele>1808</ele>
        <time>2024-08-09T12:10:17Z</time>
      </trkpt>
      <trkpt lat="45.09228" lon="6.15316">
        <ele>1807.6</ele>
        <time>2024-08-09T12:10:18Z</time>
      </trkpt>
      <trkpt lat="45.0923" lon="6.15319">
        <ele>1807.4</ele>
        <time>2024-08-09T12:10:19Z</time>
      </trkpt>
      <trkpt lat="45.0923" lon="6.15319">
        <ele>1807.2</ele>
        <time>2024-08-09T12:10:20Z</time>
      </trkpt>
      <trkpt lat="45.09232" lon="6.15321">
        <ele>1806.8</ele>
        <time>2024-08-09T12:10:21Z</time>
      </trkpt>
      <trkpt lat="45.09232" lon="6.15321">
        <ele>1806.6</ele>
        <time>2024-08-09T12:10:22Z</time>
      </trkpt>
      <trkpt lat="45.09234" lon="6.15323">
        <ele>1806.4</ele>
        <time>2024-08-09T12:10:23Z</time>
      </trkpt>
      <trkpt lat="45.09234" lon="6.15323">
        <ele>1806.2</ele>
        <time>2024-08-09T12:10:24Z</time>
      </trkpt>
      <trkpt lat="45.09234" lon="6.15323">
        <ele>1805.8</ele>
        <time>2024-08-09T12:10:25Z</time>
      </trkpt>
      <trkpt lat="45.09236" lon="6.15325">
        <ele>1805.8</ele>
        <time>2024-08-09T12:10:26Z</time>
      </trkpt>
      <trkpt lat="45.09236" lon="6.15325">
        <ele>1805.6</ele>
        <time>2024-08-09T12:10:27Z</time>
      </trkpt>
      <trkpt lat="45.09236" lon="6.15325">
        <ele>1805.2</ele>
        <time>2024-08-09T12:10:28Z</time>
      </trkpt>
      <trkpt lat="45.09238" lon="6.15328">
        <ele>1805</ele>
        <time>2024-08-09T12:10:29Z</time>
      </trkpt>
      <trkpt lat="45.09238" lon="6.15328">
        <ele>1804.6</ele>
        <time>2024-08-09T12:10:30Z</time>
      </trkpt>
      <trkpt lat="45.09238" lon="6.15328">
        <ele>1804.6</ele>
        <time>2024-08-09T12:10:31Z</time>
      </trkpt>
      <trkpt lat="45.09236" lon="6.15329">
        <ele>1804.4</ele>
        <time>2024-08-09T12:10:32Z</time>
      </trkpt>
      <trkpt lat="45.09236" lon="6.15329">
        <ele>1803.8</ele>
        <time>2024-08-09T12:10:33Z</time>
      </trkpt>
      <trkpt lat="45.09234" lon="6.1533">
        <ele>1803.4</ele>
        <time>2024-08-09T12:10:34Z</time>
      </trkpt>
      <trkpt lat="45.09234" lon="6.1533">
        <ele>1803.4</ele>
        <time>2024-08-09T12:10:35Z</time>
      </trkpt>
      <trkpt lat="45.09232" lon="6.15331">
        <ele>1802.8</ele>
        <time>2024-08-09T12:10:36Z</time>
      </trkpt>
      <trkpt lat="45.09232" lon="6.15331">
        <ele>1802.4</ele>
        <time>2024-08-09T12:10:37Z</time>
      </trkpt>
      <trkpt lat="45.09229" lon="6.15331">
        <ele>1802.2</ele>
        <time>2024-08-09T12:10:38Z</time>
      </trkpt>
      <trkpt lat="45.09229" lon="6.15331">
        <ele>1802</ele>
        <time>2024-08-09T12:10:39Z</time>
      </trkpt>
      <trkpt lat="45.09227" lon="6.15331">
        <ele>1801.8</ele>
        <time>2024-08-09T12:10:40Z</time>
      </trkpt>
      <trkpt lat="45.09227" lon="6.15331">
        <ele>1801.6</ele>
        <time>2024-08-09T12:10:41Z</time>
      </trkpt>
      <trkpt lat="45.09225" lon="6.1533">
        <ele>1801.4</ele>
        <time>2024-08-09T12:10:42Z</time>
      </trkpt>
      <trkpt lat="45.09225" lon="6.1533">
        <ele>1800.8</ele>
        <time>2024-08-09T12:10:43Z</time>
      </trkpt>
      <trkpt lat="45.09223" lon="6.1533">
        <ele>1800.6</ele>
        <time>2024-08-09T12:10:44Z</time>
      </trkpt>
      <trkpt lat="45.09223" lon="6.1533">
        <ele>1800.2</ele>
        <time>2024-08-09T12:10:45Z</time>
      </trkpt>
      <trkpt lat="45.09223" lon="6.1533">
        <ele>1799.8</ele>
        <time>2024-08-09T12:10:46Z</time>
      </trkpt>
      <trkpt lat="45.09221" lon="6.15332">
        <ele>1799.6</ele>
        <time>2024-08-09T12:10:47Z</time>
      </trkpt>
      <trkpt lat="45.09221" lon="6.15332">
        <ele>1799.4</ele>
        <time>2024-08-09T12:10:48Z</time>
      </trkpt>
      <trkpt lat="45.09222" lon="6.15334">
        <ele>1799.4</ele>
        <time>2024-08-09T12:10:49Z</time>
      </trkpt>
      <trkpt lat="45.09222" lon="6.15334">
        <ele>1799.4</ele>
        <time>2024-08-09T12:10:50Z</time>
      </trkpt>
      <trkpt lat="45.09224" lon="6.15336">
        <ele>1799.4</ele>
        <time>2024-08-09T12:10:51Z</time>
      </trkpt>
      <trkpt lat="45.09224" lon="6.15336">
        <ele>1799.2</ele>
        <time>2024-08-09T12:10:52Z</time>
      </trkpt>
      <trkpt lat="45.09226" lon="6.15337">
        <ele>1799</ele>
        <time>2024-08-09T12:10:53Z</time>
      </trkpt>
      <trkpt lat="45.09226" lon="6.15337">
        <ele>1798.8</ele>
        <time>2024-08-09T12:10:54Z</time>
      </trkpt>
      <trkpt lat="45.09226" lon="6.15337">
        <ele>1798.8</ele>
        <time>2024-08-09T12:10:55Z</time>
      </trkpt>
      <trkpt lat="45.09226" lon="6.15337">
        <ele>1798.6</ele>
        <time>2024-08-09T12:10:56Z</time>
      </trkpt>
      <trkpt lat="45.09226" lon="6.15337">
        <ele>1798.4</ele>
        <time>2024-08-09T12:10:57Z</time>
      </trkpt>
      <trkpt lat="45.09228" lon="6.15338">
        <ele>1798.4</ele>
        <time>2024-08-09T12:10:58Z</time>
      </trkpt>
      <trkpt lat="45.09228" lon="6.15338">
        <ele>1798.4</ele>
        <time>2024-08-09T12:10:59Z</time>
      </trkpt>
      <trkpt lat="45.0923" lon="6.1534">
        <ele>1798.4</ele>
        <time>2024-08-09T12:11:00Z</time>
      </trkpt>
      <trkpt lat="45.0923" lon="6.1534">
        <ele>1798.2</ele>
        <time>2024-08-09T12:11:01Z</time>
      </trkpt>
      <trkpt lat="45.09231" lon="6.15342">
        <ele>1797.6</ele>
        <time>2024-08-09T12:11:02Z</time>
      </trkpt>
      <trkpt lat="45.09231" lon="6.15342">
        <ele>1797.6</ele>
        <time>2024-08-09T12:11:03Z</time>
      </trkpt>
      <trkpt lat="45.09232" lon="6.15344">
        <ele>1797.6</ele>
        <time>2024-08-09T12:11:04Z</time>
      </trkpt>
      <trkpt lat="45.09232" lon="6.15344">
        <ele>1797.4</ele>
        <time>2024-08-09T12:11:05Z</time>
      </trkpt>
      <trkpt lat="45.09234" lon="6.15346">
        <ele>1797</ele>
        <time>2024-08-09T12:11:06Z</time>
      </trkpt>
      <trkpt lat="45.09234" lon="6.15346">
        <ele>1796.8</ele>
        <time>2024-08-09T12:11:07Z</time>
      </trkpt>
      <trkpt lat="45.09234" lon="6.15346">
        <ele>1796.8</ele>
        <time>2024-08-09T12:11:08Z</time>
      </trkpt>
      <trkpt lat="45.09235" lon="6.15348">
        <ele>1796.2</ele>
        <time>2024-08-09T12:11:09Z</time>
      </trkpt>
      <trkpt lat="45.09235" lon="6.15348">
        <ele>1796</ele>
        <time>2024-08-09T12:11:10Z</time>
      </trkpt>
      <trkpt lat="45.09235" lon="6.15348">
        <ele>1795.8</ele>
        <time>2024-08-09T12:11:11Z</time>
      </trkpt>
      <trkpt lat="45.09235" lon="6.15348">
        <ele>1795.2</ele>
        <time>2024-08-09T12:11:12Z</time>
      </trkpt>
      <trkpt lat="45.09234" lon="6.15352">
        <ele>1794.4</ele>
        <time>2024-08-09T12:11:13Z</time>
      </trkpt>
      <trkpt lat="45.09234" lon="6.15352">
        <ele>1794.2</ele>
        <time>2024-08-09T12:11:14Z</time>
      </trkpt>
      <trkpt lat="45.09232" lon="6.15353">
        <ele>1793.6</ele>
        <time>2024-08-09T12:11:15Z</time>
      </trkpt>
      <trkpt lat="45.09232" lon="6.15353">
        <ele>1793</ele>
        <time>2024-08-09T12:11:16Z</time>
      </trkpt>
      <trkpt lat="45.09232" lon="6.15353">
        <ele>1792.8</ele>
        <time>2024-08-09T12:11:17Z</time>
      </trkpt>
      <trkpt lat="45.0923" lon="6.15354">
        <ele>1792.4</ele>
        <time>2024-08-09T12:11:18Z</time>
      </trkpt>
      <trkpt lat="45.0923" lon="6.15354">
        <ele>1792.2</ele>
        <time>2024-08-09T12:11:19Z</time>
      </trkpt>
      <trkpt lat="45.0923" lon="6.15354">
        <ele>1792</ele>
        <time>2024-08-09T12:11:20Z</time>
      </trkpt>
      <trkpt lat="45.09229" lon="6.15356">
        <ele>1791.2</ele>
        <time>2024-08-09T12:11:21Z</time>
      </trkpt>
      <trkpt lat="45.09229" lon="6.15356">
        <ele>1791</ele>
        <time>2024-08-09T12:11:22Z</time>
      </trkpt>
      <trkpt lat="45.09229" lon="6.15356">
        <ele>1790.8</ele>
        <time>2024-08-09T12:11:23Z</time>
      </trkpt>
      <trkpt lat="45.09229" lon="6.15356">
        <ele>1790.2</ele>
        <time>2024-08-09T12:11:24Z</time>
      </trkpt>
      <trkpt lat="45.09227" lon="6.15358">
        <ele>1789.8</ele>
        <time>2024-08-09T12:11:25Z</time>
      </trkpt>
      <trkpt lat="45.09227" lon="6.15358">
        <ele>1789.8</ele>
        <time>2024-08-09T12:11:26Z</time>
      </trkpt>
      <trkpt lat="45.09227" lon="6.15358">
        <ele>1789.8</ele>
        <time>2024-08-09T12:11:27Z</time>
      </trkpt>
      <trkpt lat="45.09225" lon="6.1536">
        <ele>1789.2</ele>
        <time>2024-08-09T12:11:28Z</time>
      </trkpt>
      <trkpt lat="45.09225" lon="6.1536">
        <ele>1788.4</ele>
        <time>2024-08-09T12:11:29Z</time>
      </trkpt>
      <trkpt lat="45.09225" lon="6.1536">
        <ele>1787.8</ele>
        <time>2024-08-09T12:11:30Z</time>
      </trkpt>
      <trkpt lat="45.09223" lon="6.15361">
        <ele>1787.6</ele>
        <time>2024-08-09T12:11:31Z</time>
      </trkpt>
      <trkpt lat="45.09223" lon="6.15361">
        <ele>1787.2</ele>
        <time>2024-08-09T12:11:32Z</time>
      </trkpt>
      <trkpt lat="45.09223" lon="6.15361">
        <ele>1786.8</ele>
        <time>2024-08-09T12:11:33Z</time>
      </trkpt>
      <trkpt lat="45.09221" lon="6.15362">
        <ele>1786.6</ele>
        <time>2024-08-09T12:11:34Z</time>
      </trkpt>
      <trkpt lat="45.09221" lon="6.15362">
        <ele>1786.2</ele>
        <time>2024-08-09T12:11:35Z</time>
      </trkpt>
      <trkpt lat="45.09219" lon="6.15363">
        <ele>1785.8</ele>
        <time>2024-08-09T12:11:36Z</time>
      </trkpt>
      <trkpt lat="45.09219" lon="6.15363">
        <ele>1785.4</ele>
        <time>2024-08-09T12:11:37Z</time>
      </trkpt>
      <trkpt lat="45.09217" lon="6.15364">
        <ele>1785</ele>
        <time>2024-08-09T12:11:38Z</time>
      </trkpt>
      <trkpt lat="45.09217" lon="6.15364">
        <ele>1784.8</ele>
        <time>2024-08-09T12:11:39Z</time>
      </trkpt>
      <trkpt lat="45.09214" lon="6.15365">
        <ele>1784.6</ele>
        <time>2024-08-09T12:11:40Z</time>
      </trkpt>
      <trkpt lat="45.09214" lon="6.15365">
        <ele>1784.2</ele>
        <time>2024-08-09T12:11:41Z</time>
      </trkpt>
      <trkpt lat="45.09212" lon="6.15365">
        <ele>1783.4</ele>
        <time>2024-08-09T12:11:42Z</time>
      </trkpt>
      <trkpt lat="45.09212" lon="6.15365">
        <ele>1782.8</ele>
        <time>2024-08-09T12:11:43Z</time>
      </trkpt>
      <trkpt lat="45.0921" lon="6.15365">
        <ele>1782.6</ele>
        <time>2024-08-09T12:11:44Z</time>
      </trkpt>
      <trkpt lat="45.0921" lon="6.15365">
        <ele>1782.6</ele>
        <time>2024-08-09T12:11:45Z</time>
      </trkpt>
      <trkpt lat="45.09208" lon="6.15365">
        <ele>1782.2</ele>
        <time>2024-08-09T12:11:46Z</time>
      </trkpt>
      <trkpt lat="45.09208" lon="6.15365">
        <ele>1782</ele>
        <time>2024-08-09T12:11:47Z</time>
      </trkpt>
      <trkpt lat="45.09206" lon="6.15365">
        <ele>1781.6</ele>
        <time>2024-08-09T12:11:48Z</time>
      </trkpt>
      <trkpt lat="45.09206" lon="6.15365">
        <ele>1781.2</ele>
        <time>2024-08-09T12:11:49Z</time>
      </trkpt>
      <trkpt lat="45.09203" lon="6.15365">
        <ele>1781</ele>
        <time>2024-08-09T12:11:50Z</time>
      </trkpt>
      <trkpt lat="45.09203" lon="6.15365">
        <ele>1780.6</ele>
        <time>2024-08-09T12:11:51Z</time>
      </trkpt>
      <trkpt lat="45.09203" lon="6.15365">
        <ele>1780.4</ele>
        <time>2024-08-09T12:11:52Z</time>
      </trkpt>
      <trkpt lat="45.09203" lon="6.15365">
        <ele>1780.2</ele>
        <time>2024-08-09T12:11:53Z</time>
      </trkpt>
      <trkpt lat="45.09201" lon="6.15366">
        <ele>1779.8</ele>
        <time>2024-08-09T12:11:54Z</time>
      </trkpt>
      <trkpt lat="45.09201" lon="6.15366">
        <ele>1779.4</ele>
        <time>2024-08-09T12:11:55Z</time>
      </trkpt>
      <trkpt lat="45.09201" lon="6.15366">
        <ele>1779</ele>
        <time>2024-08-09T12:11:56Z</time>
      </trkpt>
      <trkpt lat="45.09199" lon="6.15368">
        <ele>1778.6</ele>
        <time>2024-08-09T12:11:57Z</time>
      </trkpt>
      <trkpt lat="45.09199" lon="6.15368">
        <ele>1778.6</ele>
        <time>2024-08-09T12:11:58Z</time>
      </trkpt>
      <trkpt lat="45.09197" lon="6.15369">
        <ele>1777.8</ele>
        <time>2024-08-09T12:11:59Z</time>
      </trkpt>
      <trkpt lat="45.09197" lon="6.15369">
        <ele>1777.8</ele>
        <time>2024-08-09T12:12:00Z</time>
      </trkpt>
      <trkpt lat="45.09197" lon="6.15369">
        <ele>1777.6</ele>
        <time>2024-08-09T12:12:01Z</time>
      </trkpt>
      <trkpt lat="45.09195" lon="6.15371">
        <ele>1776.6</ele>
        <time>2024-08-09T12:12:02Z</time>
      </trkpt>
      <trkpt lat="45.09195" lon="6.15371">
        <ele>1776.6</ele>
        <time>2024-08-09T12:12:03Z</time>
      </trkpt>
      <trkpt lat="45.09193" lon="6.15372">
        <ele>1776</ele>
        <time>2024-08-09T12:12:04Z</time>
      </trkpt>
      <trkpt lat="45.09193" lon="6.15372">
        <ele>1775.6</ele>
        <time>2024-08-09T12:12:05Z</time>
      </trkpt>
      <trkpt lat="45.09193" lon="6.15372">
        <ele>1775.2</ele>
        <time>2024-08-09T12:12:06Z</time>
      </trkpt>
      <trkpt lat="45.0919" lon="6.15373">
        <ele>1775</ele>
        <time>2024-08-09T12:12:07Z</time>
      </trkpt>
      <trkpt lat="45.0919" lon="6.15373">
        <ele>1774.6</ele>
        <time>2024-08-09T12:12:08Z</time>
      </trkpt>
      <trkpt lat="45.0919" lon="6.15373">
        <ele>1774.2</ele>
        <time>2024-08-09T12:12:09Z</time>
      </trkpt>
      <trkpt lat="45.09187" lon="6.15373">
        <ele>1774</ele>
        <time>2024-08-09T12:12:10Z</time>
      </trkpt>
      <trkpt lat="45.09187" lon="6.15373">
        <ele>1773.8</ele>
        <time>2024-08-09T12:12:11Z</time>
      </trkpt>
      <trkpt lat="45.09185" lon="6.15374">
        <ele>1773.8</ele>
        <time>2024-08-09T12:12:12Z</time>
      </trkpt>
      <trkpt lat="45.09185" lon="6.15374">
        <ele>1773</ele>
        <time>2024-08-09T12:12:13Z</time>
      </trkpt>
      <trkpt lat="45.09183" lon="6.15375">
        <ele>1772.4</ele>
        <time>2024-08-09T12:12:14Z</time>
      </trkpt>
      <trkpt lat="45.09183" lon="6.15375">
        <ele>1772.2</ele>
        <time>2024-08-09T12:12:15Z</time>
      </trkpt>
      <trkpt lat="45.09181" lon="6.15376">
        <ele>1772</ele>
        <time>2024-08-09T12:12:16Z</time>
      </trkpt>
      <trkpt lat="45.09181" lon="6.15376">
        <ele>1772</ele>
        <time>2024-08-09T12:12:17Z</time>
      </trkpt>
      <trkpt lat="45.09178" lon="6.15377">
        <ele>1771.6</ele>
        <time>2024-08-09T12:12:18Z</time>
      </trkpt>
      <trkpt lat="45.09178" lon="6.15377">
        <ele>1771.2</ele>
        <time>2024-08-09T12:12:19Z</time>
      </trkpt>
      <trkpt lat="45.09175" lon="6.15377">
        <ele>1771</ele>
        <time>2024-08-09T12:12:20Z</time>
      </trkpt>
      <trkpt lat="45.09175" lon="6.15377">
        <ele>1770.8</ele>
        <time>2024-08-09T12:12:21Z</time>
      </trkpt>
      <trkpt lat="45.09173" lon="6.15377">
        <ele>1770.8</ele>
        <time>2024-08-09T12:12:22Z</time>
      </trkpt>
      <trkpt lat="45.09173" lon="6.15377">
        <ele>1770.6</ele>
        <time>2024-08-09T12:12:23Z</time>
      </trkpt>
      <trkpt lat="45.09169" lon="6.15376">
        <ele>1770.2</ele>
        <time>2024-08-09T12:12:24Z</time>
      </trkpt>
      <trkpt lat="45.09169" lon="6.15376">
        <ele>1769.8</ele>
        <time>2024-08-09T12:12:25Z</time>
      </trkpt>
      <trkpt lat="45.09167" lon="6.15376">
        <ele>1769.6</ele>
        <time>2024-08-09T12:12:26Z</time>
      </trkpt>
      <trkpt lat="45.09167" lon="6.15376">
        <ele>1769.6</ele>
        <time>2024-08-09T12:12:27Z</time>
      </trkpt>
      <trkpt lat="45.09165" lon="6.15376">
        <ele>1769.6</ele>
        <time>2024-08-09T12:12:28Z</time>
      </trkpt>
      <trkpt lat="45.09165" lon="6.15376">
        <ele>1769.4</ele>
        <time>2024-08-09T12:12:29Z</time>
      </trkpt>
      <trkpt lat="45.09162" lon="6.15376">
        <ele>1768.8</ele>
        <time>2024-08-09T12:12:30Z</time>
      </trkpt>
      <trkpt lat="45.09162" lon="6.15376">
        <ele>1768.6</ele>
        <time>2024-08-09T12:12:31Z</time>
      </trkpt>
      <trkpt lat="45.0916" lon="6.15375">
        <ele>1768.4</ele>
        <time>2024-08-09T12:12:32Z</time>
      </trkpt>
      <trkpt lat="45.0916" lon="6.15375">
        <ele>1768</ele>
        <time>2024-08-09T12:12:33Z</time>
      </trkpt>
      <trkpt lat="45.09157" lon="6.15374">
        <ele>1767.6</ele>
        <time>2024-08-09T12:12:34Z</time>
      </trkpt>
      <trkpt lat="45.09157" lon="6.15374">
        <ele>1767</ele>
        <time>2024-08-09T12:12:35Z</time>
      </trkpt>
      <trkpt lat="45.09157" lon="6.15374">
        <ele>1767</ele>
        <time>2024-08-09T12:12:36Z</time>
      </trkpt>
      <trkpt lat="45.09155" lon="6.15373">
        <ele>1766.8</ele>
        <time>2024-08-09T12:12:37Z</time>
      </trkpt>
      <trkpt lat="45.09155" lon="6.15373">
        <ele>1766.8</ele>
        <time>2024-08-09T12:12:38Z</time>
      </trkpt>
      <trkpt lat="45.09153" lon="6.15374">
        <ele>1766.4</ele>
        <time>2024-08-09T12:12:39Z</time>
      </trkpt>
      <trkpt lat="45.09153" lon="6.15374">
        <ele>1766</ele>
        <time>2024-08-09T12:12:40Z</time>
      </trkpt>
      <trkpt lat="45.09151" lon="6.15375">
        <ele>1765.6</ele>
        <time>2024-08-09T12:12:41Z</time>
      </trkpt>
      <trkpt lat="45.09151" lon="6.15375">
        <ele>1765.6</ele>
        <time>2024-08-09T12:12:42Z</time>
      </trkpt>
      <trkpt lat="45.09149" lon="6.15374">
        <ele>1765.4</ele>
        <time>2024-08-09T12:12:43Z</time>
      </trkpt>
      <trkpt lat="45.09149" lon="6.15374">
        <ele>1764.6</ele>
        <time>2024-08-09T12:12:44Z</time>
      </trkpt>
      <trkpt lat="45.09149" lon="6.15374">
        <ele>1764.4</ele>
        <time>2024-08-09T12:12:45Z</time>
      </trkpt>
      <trkpt lat="45.09149" lon="6.15374">
        <ele>1764</ele>
        <time>2024-08-09T12:12:46Z</time>
      </trkpt>
      <trkpt lat="45.09148" lon="6.15376">
        <ele>1763.8</ele>
        <time>2024-08-09T12:12:47Z</time>
      </trkpt>
      <trkpt lat="45.09148" lon="6.15376">
        <ele>1763.6</ele>
        <time>2024-08-09T12:12:48Z</time>
      </trkpt>
      <trkpt lat="45.09149" lon="6.15378">
        <ele>1763.4</ele>
        <time>2024-08-09T12:12:49Z</time>
      </trkpt>
      <trkpt lat="45.09149" lon="6.15378">
        <ele>1763.2</ele>
        <time>2024-08-09T12:12:50Z</time>
      </trkpt>
      <trkpt lat="45.0915" lon="6.1538">
        <ele>1763</ele>
        <time>2024-08-09T12:12:51Z</time>
      </trkpt>
      <trkpt lat="45.0915" lon="6.1538">
        <ele>1763</ele>
        <time>2024-08-09T12:12:52Z</time>
      </trkpt>
      <trkpt lat="45.09151" lon="6.15383">
        <ele>1762.4</ele>
        <time>2024-08-09T12:12:53Z</time>
      </trkpt>
      <trkpt lat="45.09151" lon="6.15383">
        <ele>1761.8</ele>
        <time>2024-08-09T12:12:54Z</time>
      </trkpt>
      <trkpt lat="45.09152" lon="6.15385">
        <ele>1761.6</ele>
        <time>2024-08-09T12:12:55Z</time>
      </trkpt>
      <trkpt lat="45.09152" lon="6.15385">
        <ele>1761.4</ele>
        <time>2024-08-09T12:12:56Z</time>
      </trkpt>
      <trkpt lat="45.09152" lon="6.15385">
        <ele>1761.4</ele>
        <time>2024-08-09T12:12:57Z</time>
      </trkpt>
      <trkpt lat="45.09154" lon="6.15388">
        <ele>1761.2</ele>
        <time>2024-08-09T12:12:58Z</time>
      </trkpt>
      <trkpt lat="45.09154" lon="6.15388">
        <ele>1760.6</ele>
        <time>2024-08-09T12:12:59Z</time>
      </trkpt>
      <trkpt lat="45.09154" lon="6.15388">
        <ele>1760.4</ele>
        <time>2024-08-09T12:13:00Z</time>
      </trkpt>
      <trkpt lat="45.09156" lon="6.1539">
        <ele>1760.2</ele>
        <time>2024-08-09T12:13:01Z</time>
      </trkpt>
      <trkpt lat="45.09156" lon="6.1539">
        <ele>1759.8</ele>
        <time>2024-08-09T12:13:02Z</time>
      </trkpt>
      <trkpt lat="45.09156" lon="6.1539">
        <ele>1759.8</ele>
        <time>2024-08-09T12:13:03Z</time>
      </trkpt>
      <trkpt lat="45.09157" lon="6.15393">
        <ele>1759.6</ele>
        <time>2024-08-09T12:13:04Z</time>
      </trkpt>
      <trkpt lat="45.09157" lon="6.15393">
        <ele>1759.4</ele>
        <time>2024-08-09T12:13:05Z</time>
      </trkpt>
      <trkpt lat="45.09159" lon="6.15395">
        <ele>1759</ele>
        <time>2024-08-09T12:13:06Z</time>
      </trkpt>
      <trkpt lat="45.09159" lon="6.15395">
        <ele>1758.8</ele>
        <time>2024-08-09T12:13:07Z</time>
      </trkpt>
      <trkpt lat="45.0916" lon="6.15398">
        <ele>1758.2</ele>
        <time>2024-08-09T12:13:08Z</time>
      </trkpt>
      <trkpt lat="45.0916" lon="6.15398">
        <ele>1757.6</ele>
        <time>2024-08-09T12:13:09Z</time>
      </trkpt>
      <trkpt lat="45.09161" lon="6.154">
        <ele>1757.6</ele>
        <time>2024-08-09T12:13:10Z</time>
      </trkpt>
      <trkpt lat="45.09161" lon="6.154">
        <ele>1757.4</ele>
        <time>2024-08-09T12:13:11Z</time>
      </trkpt>
      <trkpt lat="45.09163" lon="6.15402">
        <ele>1756.8</ele>
        <time>2024-08-09T12:13:12Z</time>
      </trkpt>
      <trkpt lat="45.09163" lon="6.15402">
        <ele>1756.8</ele>
        <time>2024-08-09T12:13:13Z</time>
      </trkpt>
      <trkpt lat="45.09165" lon="6.15404">
        <ele>1756.6</ele>
        <time>2024-08-09T12:13:14Z</time>
      </trkpt>
      <trkpt lat="45.09165" lon="6.15404">
        <ele>1756.4</ele>
        <time>2024-08-09T12:13:15Z</time>
      </trkpt>
      <trkpt lat="45.09167" lon="6.15405">
        <ele>1756.2</ele>
        <time>2024-08-09T12:13:16Z</time>
      </trkpt>
      <trkpt lat="45.09167" lon="6.15405">
        <ele>1755.8</ele>
        <time>2024-08-09T12:13:17Z</time>
      </trkpt>
      <trkpt lat="45.09169" lon="6.15406">
        <ele>1755.6</ele>
        <time>2024-08-09T12:13:18Z</time>
      </trkpt>
      <trkpt lat="45.09169" lon="6.15406">
        <ele>1755</ele>
        <time>2024-08-09T12:13:19Z</time>
      </trkpt>
      <trkpt lat="45.09171" lon="6.15407">
        <ele>1755</ele>
        <time>2024-08-09T12:13:20Z</time>
      </trkpt>
      <trkpt lat="45.09171" lon="6.15407">
        <ele>1754.8</ele>
        <time>2024-08-09T12:13:21Z</time>
      </trkpt>
      <trkpt lat="45.09172" lon="6.1541">
        <ele>1754.4</ele>
        <time>2024-08-09T12:13:22Z</time>
      </trkpt>
      <trkpt lat="45.09172" lon="6.1541">
        <ele>1754.4</ele>
        <time>2024-08-09T12:13:23Z</time>
      </trkpt>
      <trkpt lat="45.09172" lon="6.1541">
        <ele>1754.2</ele>
        <time>2024-08-09T12:13:24Z</time>
      </trkpt>
      <trkpt lat="45.09173" lon="6.15413">
        <ele>1753.8</ele>
        <time>2024-08-09T12:13:25Z</time>
      </trkpt>
      <trkpt lat="45.09173" lon="6.15413">
        <ele>1753.4</ele>
        <time>2024-08-09T12:13:26Z</time>
      </trkpt>
      <trkpt lat="45.09174" lon="6.15415">
        <ele>1753.2</ele>
        <time>2024-08-09T12:13:27Z</time>
      </trkpt>
      <trkpt lat="45.09174" lon="6.15415">
        <ele>1753.2</ele>
        <time>2024-08-09T12:13:28Z</time>
      </trkpt>
      <trkpt lat="45.09176" lon="6.15417">
        <ele>1752.8</ele>
        <time>2024-08-09T12:13:29Z</time>
      </trkpt>
      <trkpt lat="45.09176" lon="6.15417">
        <ele>1752.4</ele>
        <time>2024-08-09T12:13:30Z</time>
      </trkpt>
      <trkpt lat="45.09178" lon="6.15418">
        <ele>1752</ele>
        <time>2024-08-09T12:13:31Z</time>
      </trkpt>
      <trkpt lat="45.09178" lon="6.15418">
        <ele>1751.6</ele>
        <time>2024-08-09T12:13:32Z</time>
      </trkpt>
      <trkpt lat="45.09178" lon="6.15418">
        <ele>1751.4</ele>
        <time>2024-08-09T12:13:33Z</time>
      </trkpt>
      <trkpt lat="45.09179" lon="6.15422">
        <ele>1751.2</ele>
        <time>2024-08-09T12:13:34Z</time>
      </trkpt>
      <trkpt lat="45.09179" lon="6.15422">
        <ele>1751</ele>
        <time>2024-08-09T12:13:35Z</time>
      </trkpt>
      <trkpt lat="45.09179" lon="6.15422">
        <ele>1750.8</ele>
        <time>2024-08-09T12:13:36Z</time>
      </trkpt>
      <trkpt lat="45.09181" lon="6.15424">
        <ele>1750.2</ele>
        <time>2024-08-09T12:13:37Z</time>
      </trkpt>
      <trkpt lat="45.09181" lon="6.15424">
        <ele>1750</ele>
        <time>2024-08-09T12:13:38Z</time>
      </trkpt>
      <trkpt lat="45.09182" lon="6.15426">
        <ele>1750</ele>
        <time>2024-08-09T12:13:39Z</time>
      </trkpt>
      <trkpt lat="45.09182" lon="6.15426">
        <ele>1749.6</ele>
        <time>2024-08-09T12:13:40Z</time>
      </trkpt>
      <trkpt lat="45.09184" lon="6.15427">
        <ele>1749.4</ele>
        <time>2024-08-09T12:13:41Z</time>
      </trkpt>
      <trkpt lat="45.09184" lon="6.15427">
        <ele>1749.4</ele>
        <time>2024-08-09T12:13:42Z</time>
      </trkpt>
      <trkpt lat="45.09185" lon="6.1543">
        <ele>1749</ele>
        <time>2024-08-09T12:13:43Z</time>
      </trkpt>
      <trkpt lat="45.09185" lon="6.1543">
        <ele>1748.8</ele>
        <time>2024-08-09T12:13:44Z</time>
      </trkpt>
      <trkpt lat="45.09185" lon="6.15432">
        <ele>1748.2</ele>
        <time>2024-08-09T12:13:45Z</time>
      </trkpt>
      <trkpt lat="45.09185" lon="6.15432">
        <ele>1747.6</ele>
        <time>2024-08-09T12:13:46Z</time>
      </trkpt>
      <trkpt lat="45.09187" lon="6.15435">
        <ele>1747.6</ele>
        <time>2024-08-09T12:13:47Z</time>
      </trkpt>
      <trkpt lat="45.09187" lon="6.15435">
        <ele>1747.2</ele>
        <time>2024-08-09T12:13:48Z</time>
      </trkpt>
      <trkpt lat="45.09189" lon="6.15437">
        <ele>1746.8</ele>
        <time>2024-08-09T12:13:49Z</time>
      </trkpt>
      <trkpt lat="45.09189" lon="6.15437">
        <ele>1746.2</ele>
        <time>2024-08-09T12:13:50Z</time>
      </trkpt>
      <trkpt lat="45.09191" lon="6.15439">
        <ele>1746.2</ele>
        <time>2024-08-09T12:13:51Z</time>
      </trkpt>
      <trkpt lat="45.09191" lon="6.15439">
        <ele>1746.2</ele>
        <time>2024-08-09T12:13:52Z</time>
      </trkpt>
      <trkpt lat="45.09193" lon="6.15441">
        <ele>1746.2</ele>
        <time>2024-08-09T12:13:53Z</time>
      </trkpt>
      <trkpt lat="45.09193" lon="6.15441">
        <ele>1746</ele>
        <time>2024-08-09T12:13:54Z</time>
      </trkpt>
      <trkpt lat="45.09195" lon="6.15444">
        <ele>1746</ele>
        <time>2024-08-09T12:13:55Z</time>
      </trkpt>
      <trkpt lat="45.09195" lon="6.15444">
        <ele>1745.8</ele>
        <time>2024-08-09T12:13:56Z</time>
      </trkpt>
      <trkpt lat="45.09197" lon="6.15446">
        <ele>1745.4</ele>
        <time>2024-08-09T12:13:57Z</time>
      </trkpt>
      <trkpt lat="45.09197" lon="6.15446">
        <ele>1744.6</ele>
        <time>2024-08-09T12:13:58Z</time>
      </trkpt>
      <trkpt lat="45.09198" lon="6.15448">
        <ele>1744.6</ele>
        <time>2024-08-09T12:13:59Z</time>
      </trkpt>
      <trkpt lat="45.09198" lon="6.15448">
        <ele>1744.4</ele>
        <time>2024-08-09T12:14:00Z</time>
      </trkpt>
      <trkpt lat="45.092" lon="6.1545">
        <ele>1744</ele>
        <time>2024-08-09T12:14:01Z</time>
      </trkpt>
      <trkpt lat="45.092" lon="6.1545">
        <ele>1743.2</ele>
        <time>2024-08-09T12:14:02Z</time>
      </trkpt>
      <trkpt lat="45.09202" lon="6.15453">
        <ele>1743.2</ele>
        <time>2024-08-09T12:14:03Z</time>
      </trkpt>
      <trkpt lat="45.09202" lon="6.15453">
        <ele>1743</ele>
        <time>2024-08-09T12:14:04Z</time>
      </trkpt>
      <trkpt lat="45.09204" lon="6.15455">
        <ele>1742.8</ele>
        <time>2024-08-09T12:14:05Z</time>
      </trkpt>
      <trkpt lat="45.09204" lon="6.15455">
        <ele>1742.4</ele>
        <time>2024-08-09T12:14:06Z</time>
      </trkpt>
      <trkpt lat="45.09206" lon="6.15457">
        <ele>1742.2</ele>
        <time>2024-08-09T12:14:07Z</time>
      </trkpt>
      <trkpt lat="45.09206" lon="6.15457">
        <ele>1742</ele>
        <time>2024-08-09T12:14:08Z</time>
      </trkpt>
      <trkpt lat="45.09208" lon="6.15459">
        <ele>1741.8</ele>
        <time>2024-08-09T12:14:09Z</time>
      </trkpt>
      <trkpt lat="45.09208" lon="6.15459">
        <ele>1741.4</ele>
        <time>2024-08-09T12:14:10Z</time>
      </trkpt>
      <trkpt lat="45.0921" lon="6.15461">
        <ele>1741</ele>
        <time>2024-08-09T12:14:11Z</time>
      </trkpt>
      <trkpt lat="45.0921" lon="6.15461">
        <ele>1740.8</ele>
        <time>2024-08-09T12:14:12Z</time>
      </trkpt>
      <trkpt lat="45.09211" lon="6.15464">
        <ele>1740.6</ele>
        <time>2024-08-09T12:14:13Z</time>
      </trkpt>
      <trkpt lat="45.09211" lon="6.15464">
        <ele>1740.6</ele>
        <time>2024-08-09T12:14:14Z</time>
      </trkpt>
      <trkpt lat="45.09211" lon="6.15464">
        <ele>1740.4</ele>
        <time>2024-08-09T12:14:15Z</time>
      </trkpt>
      <trkpt lat="45.09211" lon="6.15464">
        <ele>1740.4</ele>
        <time>2024-08-09T12:14:16Z</time>
      </trkpt>
      <trkpt lat="45.09211" lon="6.15464">
        <ele>1740.4</ele>
        <time>2024-08-09T12:14:17Z</time>
      </trkpt>
      <trkpt lat="45.09211" lon="6.15464">
        <ele>1740.8</ele>
        <time>2024-08-09T12:14:18Z</time>
      </trkpt>
      <trkpt lat="45.09211" lon="6.15464">
        <ele>1740.8</ele>
        <time>2024-08-09T12:14:19Z</time>
      </trkpt>
      <trkpt lat="45.09211" lon="6.15464">
        <ele>1741</ele>
        <time>2024-08-09T12:14:20Z</time>
      </trkpt>
      <trkpt lat="45.09211" lon="6.15464">
        <ele>1741.2</ele>
        <time>2024-08-09T12:14:21Z</time>
      </trkpt>
      <trkpt lat="45.09211" lon="6.15464">
        <ele>1741.2</ele>
        <time>2024-08-09T12:14:22Z</time>
      </trkpt>
      <trkpt lat="45.09211" lon="6.15464">
        <ele>1741.2</ele>
        <time>2024-08-09T12:14:23Z</time>
      </trkpt>
      <trkpt lat="45.09211" lon="6.15464">
        <ele>1741.4</ele>
        <time>2024-08-09T12:14:24Z</time>
      </trkpt>
      <trkpt lat="45.09211" lon="6.15464">
        <ele>1741.4</ele>
        <time>2024-08-09T12:14:25Z</time>
      </trkpt>
      <trkpt lat="45.09211" lon="6.15464">
        <ele>1741.6</ele>
        <time>2024-08-09T12:14:26Z</time>
      </trkpt>
      <trkpt lat="45.09211" lon="6.15464">
        <ele>1742</ele>
        <time>2024-08-09T12:14:27Z</time>
      </trkpt>
      <trkpt lat="45.09214" lon="6.15465">
        <ele>1742</ele>
        <time>2024-08-09T12:14:28Z</time>
      </trkpt>
      <trkpt lat="45.09214" lon="6.15465">
        <ele>1741.6</ele>
        <time>2024-08-09T12:14:29Z</time>
      </trkpt>
      <trkpt lat="45.09216" lon="6.15466">
        <ele>1741.2</ele>
        <time>2024-08-09T12:14:30Z</time>
      </trkpt>
      <trkpt lat="45.09216" lon="6.15466">
        <ele>1741</ele>
        <time>2024-08-09T12:14:31Z</time>
      </trkpt>
      <trkpt lat="45.09218" lon="6.15467">
        <ele>1740.6</ele>
        <time>2024-08-09T12:14:32Z</time>
      </trkpt>
      <trkpt lat="45.09218" lon="6.15467">
        <ele>1740.4</ele>
        <time>2024-08-09T12:14:33Z</time>
      </trkpt>
      <trkpt lat="45.09221" lon="6.15469">
        <ele>1740.4</ele>
        <time>2024-08-09T12:14:34Z</time>
      </trkpt>
      <trkpt lat="45.09221" lon="6.15469">
        <ele>1740.2</ele>
        <time>2024-08-09T12:14:35Z</time>
      </trkpt>
      <trkpt lat="45.09222" lon="6.15471">
        <ele>1739.8</ele>
        <time>2024-08-09T12:14:36Z</time>
      </trkpt>
      <trkpt lat="45.09222" lon="6.15471">
        <ele>1739.8</ele>
        <time>2024-08-09T12:14:37Z</time>
      </trkpt>
      <trkpt lat="45.09225" lon="6.15473">
        <ele>1739.6</ele>
        <time>2024-08-09T12:14:38Z</time>
      </trkpt>
      <trkpt lat="45.09225" lon="6.15473">
        <ele>1739.2</ele>
        <time>2024-08-09T12:14:39Z</time>
      </trkpt>
      <trkpt lat="45.09227" lon="6.15475">
        <ele>1739.2</ele>
        <time>2024-08-09T12:14:40Z</time>
      </trkpt>
      <trkpt lat="45.09227" lon="6.15475">
        <ele>1739.2</ele>
        <time>2024-08-09T12:14:41Z</time>
      </trkpt>
      <trkpt lat="45.09229" lon="6.15477">
        <ele>1738.8</ele>
        <time>2024-08-09T12:14:42Z</time>
      </trkpt>
      <trkpt lat="45.09229" lon="6.15477">
        <ele>1738.6</ele>
        <time>2024-08-09T12:14:43Z</time>
      </trkpt>
      <trkpt lat="45.09231" lon="6.15478">
        <ele>1738.6</ele>
        <time>2024-08-09T12:14:44Z</time>
      </trkpt>
      <trkpt lat="45.09231" lon="6.15478">
        <ele>1738.2</ele>
        <time>2024-08-09T12:14:45Z</time>
      </trkpt>
      <trkpt lat="45.09234" lon="6.15479">
        <ele>1738</ele>
        <time>2024-08-09T12:14:46Z</time>
      </trkpt>
      <trkpt lat="45.09234" lon="6.15479">
        <ele>1737.4</ele>
        <time>2024-08-09T12:14:47Z</time>
      </trkpt>
      <trkpt lat="45.09237" lon="6.1548">
        <ele>1737.4</ele>
        <time>2024-08-09T12:14:48Z</time>
      </trkpt>
      <trkpt lat="45.09237" lon="6.1548">
        <ele>1737.4</ele>
        <time>2024-08-09T12:14:49Z</time>
      </trkpt>
      <trkpt lat="45.09239" lon="6.15482">
        <ele>1737.4</ele>
        <time>2024-08-09T12:14:50Z</time>
      </trkpt>
      <trkpt lat="45.09239" lon="6.15482">
        <ele>1737.2</ele>
        <time>2024-08-09T12:14:51Z</time>
      </trkpt>
      <trkpt lat="45.09242" lon="6.15484">
        <ele>1737</ele>
        <time>2024-08-09T12:14:52Z</time>
      </trkpt>
      <trkpt lat="45.09242" lon="6.15484">
        <ele>1736.8</ele>
        <time>2024-08-09T12:14:53Z</time>
      </trkpt>
      <trkpt lat="45.09242" lon="6.15484">
        <ele>1736.8</ele>
        <time>2024-08-09T12:14:54Z</time>
      </trkpt>
      <trkpt lat="45.09244" lon="6.15486">
        <ele>1736.8</ele>
        <time>2024-08-09T12:14:55Z</time>
      </trkpt>
      <trkpt lat="45.09244" lon="6.15486">
        <ele>1736.8</ele>
        <time>2024-08-09T12:14:56Z</time>
      </trkpt>
      <trkpt lat="45.09244" lon="6.15486">
        <ele>1736.6</ele>
        <time>2024-08-09T12:14:57Z</time>
      </trkpt>
      <trkpt lat="45.09245" lon="6.15489">
        <ele>1736.2</ele>
        <time>2024-08-09T12:14:58Z</time>
      </trkpt>
      <trkpt lat="45.09245" lon="6.15489">
        <ele>1736</ele>
        <time>2024-08-09T12:14:59Z</time>
      </trkpt>
      <trkpt lat="45.09245" lon="6.15489">
        <ele>1735.8</ele>
        <time>2024-08-09T12:15:00Z</time>
      </trkpt>
      <trkpt lat="45.09244" lon="6.15491">
        <ele>1735.8</ele>
        <time>2024-08-09T12:15:01Z</time>
      </trkpt>
      <trkpt lat="45.09244" lon="6.15491">
        <ele>1734.8</ele>
        <time>2024-08-09T12:15:02Z</time>
      </trkpt>
      <trkpt lat="45.09242" lon="6.15492">
        <ele>1734.8</ele>
        <time>2024-08-09T12:15:03Z</time>
      </trkpt>
      <trkpt lat="45.09242" lon="6.15492">
        <ele>1734.6</ele>
        <time>2024-08-09T12:15:04Z</time>
      </trkpt>
      <trkpt lat="45.09242" lon="6.15492">
        <ele>1734.6</ele>
        <time>2024-08-09T12:15:05Z</time>
      </trkpt>
      <trkpt lat="45.0924" lon="6.15492">
        <ele>1734.4</ele>
        <time>2024-08-09T12:15:06Z</time>
      </trkpt>
      <trkpt lat="45.0924" lon="6.15492">
        <ele>1734.2</ele>
        <time>2024-08-09T12:15:07Z</time>
      </trkpt>
      <trkpt lat="45.0924" lon="6.15492">
        <ele>1734</ele>
        <time>2024-08-09T12:15:08Z</time>
      </trkpt>
      <trkpt lat="45.09238" lon="6.15491">
        <ele>1733.6</ele>
        <time>2024-08-09T12:15:09Z</time>
      </trkpt>
      <trkpt lat="45.09238" lon="6.15491">
        <ele>1733.4</ele>
        <time>2024-08-09T12:15:10Z</time>
      </trkpt>
      <trkpt lat="45.09236" lon="6.15491">
        <ele>1733.2</ele>
        <time>2024-08-09T12:15:11Z</time>
      </trkpt>
      <trkpt lat="45.09236" lon="6.15491">
        <ele>1733</ele>
        <time>2024-08-09T12:15:12Z</time>
      </trkpt>
      <trkpt lat="45.09234" lon="6.15492">
        <ele>1732.4</ele>
        <time>2024-08-09T12:15:13Z</time>
      </trkpt>
      <trkpt lat="45.09234" lon="6.15492">
        <ele>1732</ele>
        <time>2024-08-09T12:15:14Z</time>
      </trkpt>
      <trkpt lat="45.09231" lon="6.15491">
        <ele>1731.6</ele>
        <time>2024-08-09T12:15:15Z</time>
      </trkpt>
      <trkpt lat="45.09231" lon="6.15491">
        <ele>1731.6</ele>
        <time>2024-08-09T12:15:16Z</time>
      </trkpt>
      <trkpt lat="45.09229" lon="6.1549">
        <ele>1731.4</ele>
        <time>2024-08-09T12:15:17Z</time>
      </trkpt>
      <trkpt lat="45.09229" lon="6.1549">
        <ele>1731.2</ele>
        <time>2024-08-09T12:15:18Z</time>
      </trkpt>
      <trkpt lat="45.09227" lon="6.1549">
        <ele>1731.2</ele>
        <time>2024-08-09T12:15:19Z</time>
      </trkpt>
      <trkpt lat="45.09227" lon="6.1549">
        <ele>1731.2</ele>
        <time>2024-08-09T12:15:20Z</time>
      </trkpt>
      <trkpt lat="45.09224" lon="6.1549">
        <ele>1731.2</ele>
        <time>2024-08-09T12:15:21Z</time>
      </trkpt>
      <trkpt lat="45.09224" lon="6.1549">
        <ele>1731.2</ele>
        <time>2024-08-09T12:15:22Z</time>
      </trkpt>
      <trkpt lat="45.09222" lon="6.15491">
        <ele>1731</ele>
        <time>2024-08-09T12:15:23Z</time>
      </trkpt>
      <trkpt lat="45.09222" lon="6.15491">
        <ele>1730.8</ele>
        <time>2024-08-09T12:15:24Z</time>
      </trkpt>
      <trkpt lat="45.0922" lon="6.1549">
        <ele>1730.4</ele>
        <time>2024-08-09T12:15:25Z</time>
      </trkpt>
      <trkpt lat="45.0922" lon="6.1549">
        <ele>1730.4</ele>
        <time>2024-08-09T12:15:26Z</time>
      </trkpt>
      <trkpt lat="45.09217" lon="6.15488">
        <ele>1729.8</ele>
        <time>2024-08-09T12:15:27Z</time>
      </trkpt>
      <trkpt lat="45.09217" lon="6.15488">
        <ele>1729.6</ele>
        <time>2024-08-09T12:15:28Z</time>
      </trkpt>
      <trkpt lat="45.09215" lon="6.15488">
        <ele>1729.6</ele>
        <time>2024-08-09T12:15:29Z</time>
      </trkpt>
      <trkpt lat="45.09215" lon="6.15488">
        <ele>1729.4</ele>
        <time>2024-08-09T12:15:30Z</time>
      </trkpt>
      <trkpt lat="45.09213" lon="6.15489">
        <ele>1729.4</ele>
        <time>2024-08-09T12:15:31Z</time>
      </trkpt>
      <trkpt lat="45.09213" lon="6.15489">
        <ele>1729.4</ele>
        <time>2024-08-09T12:15:32Z</time>
      </trkpt>
      <trkpt lat="45.0921" lon="6.15489">
        <ele>1729</ele>
        <time>2024-08-09T12:15:33Z</time>
      </trkpt>
      <trkpt lat="45.0921" lon="6.15489">
        <ele>1728.8</ele>
        <time>2024-08-09T12:15:34Z</time>
      </trkpt>
      <trkpt lat="45.09208" lon="6.15489">
        <ele>1728.4</ele>
        <time>2024-08-09T12:15:35Z</time>
      </trkpt>
      <trkpt lat="45.09208" lon="6.15489">
        <ele>1728.2</ele>
        <time>2024-08-09T12:15:36Z</time>
      </trkpt>
      <trkpt lat="45.09206" lon="6.15489">
        <ele>1728.2</ele>
        <time>2024-08-09T12:15:37Z</time>
      </trkpt>
      <trkpt lat="45.09206" lon="6.15489">
        <ele>1727.8</ele>
        <time>2024-08-09T12:15:38Z</time>
      </trkpt>
      <trkpt lat="45.09203" lon="6.15489">
        <ele>1727.6</ele>
        <time>2024-08-09T12:15:39Z</time>
      </trkpt>
      <trkpt lat="45.09203" lon="6.15489">
        <ele>1727.4</ele>
        <time>2024-08-09T12:15:40Z</time>
      </trkpt>
      <trkpt lat="45.09201" lon="6.15488">
        <ele>1727.2</ele>
        <time>2024-08-09T12:15:41Z</time>
      </trkpt>
      <trkpt lat="45.09201" lon="6.15488">
        <ele>1726.8</ele>
        <time>2024-08-09T12:15:42Z</time>
      </trkpt>
      <trkpt lat="45.09198" lon="6.15487">
        <ele>1726.8</ele>
        <time>2024-08-09T12:15:43Z</time>
      </trkpt>
      <trkpt lat="45.09198" lon="6.15487">
        <ele>1727</ele>
        <time>2024-08-09T12:15:44Z</time>
      </trkpt>
      <trkpt lat="45.09198" lon="6.15487">
        <ele>1727</ele>
        <time>2024-08-09T12:15:45Z</time>
      </trkpt>
      <trkpt lat="45.09196" lon="6.15486">
        <ele>1727.2</ele>
        <time>2024-08-09T12:15:46Z</time>
      </trkpt>
      <trkpt lat="45.09196" lon="6.15486">
        <ele>1727.2</ele>
        <time>2024-08-09T12:15:47Z</time>
      </trkpt>
      <trkpt lat="45.09196" lon="6.15486">
        <ele>1727.2</ele>
        <time>2024-08-09T12:15:48Z</time>
      </trkpt>
      <trkpt lat="45.09193" lon="6.15484">
        <ele>1727.2</ele>
        <time>2024-08-09T12:15:49Z</time>
      </trkpt>
      <trkpt lat="45.09193" lon="6.15484">
        <ele>1726.6</ele>
        <time>2024-08-09T12:15:50Z</time>
      </trkpt>
      <trkpt lat="45.09193" lon="6.15484">
        <ele>1726</ele>
        <time>2024-08-09T12:15:51Z</time>
      </trkpt>
      <trkpt lat="45.09191" lon="6.15485">
        <ele>1725.6</ele>
        <time>2024-08-09T12:15:52Z</time>
      </trkpt>
      <trkpt lat="45.09191" lon="6.15485">
        <ele>1725.6</ele>
        <time>2024-08-09T12:15:53Z</time>
      </trkpt>
      <trkpt lat="45.09191" lon="6.15485">
        <ele>1725.6</ele>
        <time>2024-08-09T12:15:54Z</time>
      </trkpt>
      <trkpt lat="45.09191" lon="6.15488">
        <ele>1725.4</ele>
        <time>2024-08-09T12:15:55Z</time>
      </trkpt>
      <trkpt lat="45.09191" lon="6.15488">
        <ele>1725</ele>
        <time>2024-08-09T12:15:56Z</time>
      </trkpt>
      <trkpt lat="45.09192" lon="6.15491">
        <ele>1724.8</ele>
        <time>2024-08-09T12:15:57Z</time>
      </trkpt>
      <trkpt lat="45.09192" lon="6.15491">
        <ele>1724.6</ele>
        <time>2024-08-09T12:15:58Z</time>
      </trkpt>
      <trkpt lat="45.09192" lon="6.15491">
        <ele>1724.4</ele>
        <time>2024-08-09T12:15:59Z</time>
      </trkpt>
      <trkpt lat="45.09194" lon="6.15493">
        <ele>1724.2</ele>
        <time>2024-08-09T12:16:00Z</time>
      </trkpt>
      <trkpt lat="45.09194" lon="6.15493">
        <ele>1723.6</ele>
        <time>2024-08-09T12:16:01Z</time>
      </trkpt>
      <trkpt lat="45.09194" lon="6.15493">
        <ele>1722.8</ele>
        <time>2024-08-09T12:16:02Z</time>
      </trkpt>
      <trkpt lat="45.09196" lon="6.15495">
        <ele>1722.8</ele>
        <time>2024-08-09T12:16:03Z</time>
      </trkpt>
      <trkpt lat="45.09196" lon="6.15495">
        <ele>1722.4</ele>
        <time>2024-08-09T12:16:04Z</time>
      </trkpt>
      <trkpt lat="45.09196" lon="6.15495">
        <ele>1722.4</ele>
        <time>2024-08-09T12:16:05Z</time>
      </trkpt>
      <trkpt lat="45.09197" lon="6.15498">
        <ele>1722.2</ele>
        <time>2024-08-09T12:16:06Z</time>
      </trkpt>
      <trkpt lat="45.09197" lon="6.15498">
        <ele>1722.2</ele>
        <time>2024-08-09T12:16:07Z</time>
      </trkpt>
      <trkpt lat="45.09199" lon="6.155">
        <ele>1721.8</ele>
        <time>2024-08-09T12:16:08Z</time>
      </trkpt>
      <trkpt lat="45.09199" lon="6.155">
        <ele>1721.4</ele>
        <time>2024-08-09T12:16:09Z</time>
      </trkpt>
      <trkpt lat="45.09199" lon="6.155">
        <ele>1721</ele>
        <time>2024-08-09T12:16:10Z</time>
      </trkpt>
      <trkpt lat="45.092" lon="6.15503">
        <ele>1720.6</ele>
        <time>2024-08-09T12:16:11Z</time>
      </trkpt>
      <trkpt lat="45.092" lon="6.15503">
        <ele>1720.4</ele>
        <time>2024-08-09T12:16:12Z</time>
      </trkpt>
      <trkpt lat="45.092" lon="6.15503">
        <ele>1720.4</ele>
        <time>2024-08-09T12:16:13Z</time>
      </trkpt>
      <trkpt lat="45.09201" lon="6.15506">
        <ele>1720.2</ele>
        <time>2024-08-09T12:16:14Z</time>
      </trkpt>
      <trkpt lat="45.09201" lon="6.15506">
        <ele>1719.6</ele>
        <time>2024-08-09T12:16:15Z</time>
      </trkpt>
      <trkpt lat="45.09203" lon="6.15508">
        <ele>1719.4</ele>
        <time>2024-08-09T12:16:16Z</time>
      </trkpt>
      <trkpt lat="45.09203" lon="6.15508">
        <ele>1719.4</ele>
        <time>2024-08-09T12:16:17Z</time>
      </trkpt>
      <trkpt lat="45.09205" lon="6.15509">
        <ele>1719.2</ele>
        <time>2024-08-09T12:16:18Z</time>
      </trkpt>
      <trkpt lat="45.09205" lon="6.15509">
        <ele>1719</ele>
        <time>2024-08-09T12:16:19Z</time>
      </trkpt>
      <trkpt lat="45.09206" lon="6.15512">
        <ele>1718.8</ele>
        <time>2024-08-09T12:16:20Z</time>
      </trkpt>
      <trkpt lat="45.09206" lon="6.15512">
        <ele>1718.6</ele>
        <time>2024-08-09T12:16:21Z</time>
      </trkpt>
      <trkpt lat="45.09206" lon="6.15512">
        <ele>1718.6</ele>
        <time>2024-08-09T12:16:22Z</time>
      </trkpt>
      <trkpt lat="45.09208" lon="6.15514">
        <ele>1718</ele>
        <time>2024-08-09T12:16:23Z</time>
      </trkpt>
      <trkpt lat="45.09208" lon="6.15514">
        <ele>1717.6</ele>
        <time>2024-08-09T12:16:24Z</time>
      </trkpt>
      <trkpt lat="45.0921" lon="6.15515">
        <ele>1717.6</ele>
        <time>2024-08-09T12:16:25Z</time>
      </trkpt>
      <trkpt lat="45.0921" lon="6.15515">
        <ele>1717.6</ele>
        <time>2024-08-09T12:16:26Z</time>
      </trkpt>
      <trkpt lat="45.09211" lon="6.15517">
        <ele>1717.4</ele>
        <time>2024-08-09T12:16:27Z</time>
      </trkpt>
      <trkpt lat="45.09211" lon="6.15517">
        <ele>1717.2</ele>
        <time>2024-08-09T12:16:28Z</time>
      </trkpt>
      <trkpt lat="45.09213" lon="6.1552">
        <ele>1716.8</ele>
        <time>2024-08-09T12:16:29Z</time>
      </trkpt>
      <trkpt lat="45.09213" lon="6.1552">
        <ele>1716.6</ele>
        <time>2024-08-09T12:16:30Z</time>
      </trkpt>
      <trkpt lat="45.09213" lon="6.1552">
        <ele>1716.4</ele>
        <time>2024-08-09T12:16:31Z</time>
      </trkpt>
      <trkpt lat="45.09214" lon="6.15524">
        <ele>1716.4</ele>
        <time>2024-08-09T12:16:32Z</time>
      </trkpt>
      <trkpt lat="45.09214" lon="6.15524">
        <ele>1716.2</ele>
        <time>2024-08-09T12:16:33Z</time>
      </trkpt>
      <trkpt lat="45.09216" lon="6.15526">
        <ele>1716</ele>
        <time>2024-08-09T12:16:34Z</time>
      </trkpt>
      <trkpt lat="45.09216" lon="6.15526">
        <ele>1715.8</ele>
        <time>2024-08-09T12:16:35Z</time>
      </trkpt>
      <trkpt lat="45.09219" lon="6.15527">
        <ele>1715.2</ele>
        <time>2024-08-09T12:16:36Z</time>
      </trkpt>
      <trkpt lat="45.09219" lon="6.15527">
        <ele>1715</ele>
        <time>2024-08-09T12:16:37Z</time>
      </trkpt>
      <trkpt lat="45.09221" lon="6.15528">
        <ele>1714.8</ele>
        <time>2024-08-09T12:16:38Z</time>
      </trkpt>
      <trkpt lat="45.09221" lon="6.15528">
        <ele>1714.8</ele>
        <time>2024-08-09T12:16:39Z</time>
      </trkpt>
      <trkpt lat="45.09223" lon="6.15529">
        <ele>1714.6</ele>
        <time>2024-08-09T12:16:40Z</time>
      </trkpt>
      <trkpt lat="45.09223" lon="6.15529">
        <ele>1714.4</ele>
        <time>2024-08-09T12:16:41Z</time>
      </trkpt>
      <trkpt lat="45.09224" lon="6.15532">
        <ele>1714.2</ele>
        <time>2024-08-09T12:16:42Z</time>
      </trkpt>
      <trkpt lat="45.09224" lon="6.15532">
        <ele>1714.2</ele>
        <time>2024-08-09T12:16:43Z</time>
      </trkpt>
      <trkpt lat="45.09226" lon="6.15534">
        <ele>1714</ele>
        <time>2024-08-09T12:16:44Z</time>
      </trkpt>
      <trkpt lat="45.09226" lon="6.15534">
        <ele>1713.8</ele>
        <time>2024-08-09T12:16:45Z</time>
      </trkpt>
      <trkpt lat="45.09228" lon="6.15536">
        <ele>1713.8</ele>
        <time>2024-08-09T12:16:46Z</time>
      </trkpt>
      <trkpt lat="45.09228" lon="6.15536">
        <ele>1713.4</ele>
        <time>2024-08-09T12:16:47Z</time>
      </trkpt>
      <trkpt lat="45.0923" lon="6.15538">
        <ele>1713.2</ele>
        <time>2024-08-09T12:16:48Z</time>
      </trkpt>
      <trkpt lat="45.0923" lon="6.15538">
        <ele>1713</ele>
        <time>2024-08-09T12:16:49Z</time>
      </trkpt>
      <trkpt lat="45.0923" lon="6.15538">
        <ele>1712.8</ele>
        <time>2024-08-09T12:16:50Z</time>
      </trkpt>
      <trkpt lat="45.09232" lon="6.1554">
        <ele>1712.8</ele>
        <time>2024-08-09T12:16:51Z</time>
      </trkpt>
      <trkpt lat="45.09232" lon="6.1554">
        <ele>1712.4</ele>
        <time>2024-08-09T12:16:52Z</time>
      </trkpt>
      <trkpt lat="45.09234" lon="6.15542">
        <ele>1712.4</ele>
        <time>2024-08-09T12:16:53Z</time>
      </trkpt>
      <trkpt lat="45.09234" lon="6.15542">
        <ele>1712.4</ele>
        <time>2024-08-09T12:16:54Z</time>
      </trkpt>
      <trkpt lat="45.09235" lon="6.15544">
        <ele>1712.4</ele>
        <time>2024-08-09T12:16:55Z</time>
      </trkpt>
      <trkpt lat="45.09235" lon="6.15544">
        <ele>1712</ele>
        <time>2024-08-09T12:16:56Z</time>
      </trkpt>
      <trkpt lat="45.09236" lon="6.15546">
        <ele>1712</ele>
        <time>2024-08-09T12:16:57Z</time>
      </trkpt>
      <trkpt lat="45.09236" lon="6.15546">
        <ele>1711.8</ele>
        <time>2024-08-09T12:16:58Z</time>
      </trkpt>
      <trkpt lat="45.09238" lon="6.15549">
        <ele>1711.6</ele>
        <time>2024-08-09T12:16:59Z</time>
      </trkpt>
      <trkpt lat="45.09238" lon="6.15549">
        <ele>1711.4</ele>
        <time>2024-08-09T12:17:00Z</time>
      </trkpt>
      <trkpt lat="45.0924" lon="6.15551">
        <ele>1711.2</ele>
        <time>2024-08-09T12:17:01Z</time>
      </trkpt>
      <trkpt lat="45.0924" lon="6.15551">
        <ele>1710.8</ele>
        <time>2024-08-09T12:17:02Z</time>
      </trkpt>
      <trkpt lat="45.0924" lon="6.15551">
        <ele>1710.8</ele>
        <time>2024-08-09T12:17:03Z</time>
      </trkpt>
      <trkpt lat="45.0924" lon="6.15551">
        <ele>1710.4</ele>
        <time>2024-08-09T12:17:04Z</time>
      </trkpt>
      <trkpt lat="45.0924" lon="6.15551">
        <ele>1710.2</ele>
        <time>2024-08-09T12:17:05Z</time>
      </trkpt>
      <trkpt lat="45.0924" lon="6.15551">
        <ele>1710.2</ele>
        <time>2024-08-09T12:17:06Z</time>
      </trkpt>
      <trkpt lat="45.0924" lon="6.15551">
        <ele>1710.2</ele>
        <time>2024-08-09T12:17:07Z</time>
      </trkpt>
      <trkpt lat="45.0924" lon="6.15551">
        <ele>1710</ele>
        <time>2024-08-09T12:17:08Z</time>
      </trkpt>
      <trkpt lat="45.0924" lon="6.15551">
        <ele>1709.8</ele>
        <time>2024-08-09T12:17:09Z</time>
      </trkpt>
      <trkpt lat="45.0924" lon="6.15551">
        <ele>1709.4</ele>
        <time>2024-08-09T12:17:10Z</time>
      </trkpt>
      <trkpt lat="45.0924" lon="6.15551">
        <ele>1709.4</ele>
        <time>2024-08-09T12:17:11Z</time>
      </trkpt>
      <trkpt lat="45.0924" lon="6.15551">
        <ele>1709.4</ele>
        <time>2024-08-09T12:17:12Z</time>
      </trkpt>
      <trkpt lat="45.0924" lon="6.15551">
        <ele>1709.6</ele>
        <time>2024-08-09T12:17:13Z</time>
      </trkpt>
      <trkpt lat="45.0924" lon="6.15551">
        <ele>1709.6</ele>
        <time>2024-08-09T12:17:14Z</time>
      </trkpt>
      <trkpt lat="45.0924" lon="6.15551">
        <ele>1709.6</ele>
        <time>2024-08-09T12:17:15Z</time>
      </trkpt>
      <trkpt lat="45.0924" lon="6.15551">
        <ele>1709.8</ele>
        <time>2024-08-09T12:17:16Z</time>
      </trkpt>
      <trkpt lat="45.0924" lon="6.15551">
        <ele>1709.8</ele>
        <time>2024-08-09T12:17:17Z</time>
      </trkpt>
      <trkpt lat="45.09241" lon="6.15553">
        <ele>1710</ele>
        <time>2024-08-09T12:17:18Z</time>
      </trkpt>
      <trkpt lat="45.09241" lon="6.15553">
        <ele>1710</ele>
        <time>2024-08-09T12:17:19Z</time>
      </trkpt>
      <trkpt lat="45.09243" lon="6.15555">
        <ele>1710.2</ele>
        <time>2024-08-09T12:17:20Z</time>
      </trkpt>
      <trkpt lat="45.09243" lon="6.15555">
        <ele>1710.2</ele>
        <time>2024-08-09T12:17:21Z</time>
      </trkpt>
      <trkpt lat="45.09243" lon="6.15555">
        <ele>1710</ele>
        <time>2024-08-09T12:17:22Z</time>
      </trkpt>
      <trkpt lat="45.09244" lon="6.15559">
        <ele>1709.8</ele>
        <time>2024-08-09T12:17:23Z</time>
      </trkpt>
      <trkpt lat="45.09244" lon="6.15559">
        <ele>1709.4</ele>
        <time>2024-08-09T12:17:24Z</time>
      </trkpt>
      <trkpt lat="45.09244" lon="6.15559">
        <ele>1709.2</ele>
        <time>2024-08-09T12:17:25Z</time>
      </trkpt>
      <trkpt lat="45.09244" lon="6.15562">
        <ele>1709</ele>
        <time>2024-08-09T12:17:26Z</time>
      </trkpt>
      <trkpt lat="45.09244" lon="6.15562">
        <ele>1708.6</ele>
        <time>2024-08-09T12:17:27Z</time>
      </trkpt>
      <trkpt lat="45.09243" lon="6.15564">
        <ele>1708.6</ele>
        <time>2024-08-09T12:17:28Z</time>
      </trkpt>
      <trkpt lat="45.09243" lon="6.15564">
        <ele>1708.2</ele>
        <time>2024-08-09T12:17:29Z</time>
      </trkpt>
      <trkpt lat="45.09243" lon="6.15564">
        <ele>1708</ele>
        <time>2024-08-09T12:17:30Z</time>
      </trkpt>
      <trkpt lat="45.09242" lon="6.15567">
        <ele>1707.4</ele>
        <time>2024-08-09T12:17:31Z</time>
      </trkpt>
      <trkpt lat="45.09242" lon="6.15567">
        <ele>1707.2</ele>
        <time>2024-08-09T12:17:32Z</time>
      </trkpt>
      <trkpt lat="45.09242" lon="6.15567">
        <ele>1707</ele>
        <time>2024-08-09T12:17:33Z</time>
      </trkpt>
      <trkpt lat="45.09243" lon="6.15569">
        <ele>1706.6</ele>
        <time>2024-08-09T12:17:34Z</time>
      </trkpt>
      <trkpt lat="45.09243" lon="6.15569">
        <ele>1706.6</ele>
        <time>2024-08-09T12:17:35Z</time>
      </trkpt>
      <trkpt lat="45.09243" lon="6.15569">
        <ele>1706.6</ele>
        <time>2024-08-09T12:17:36Z</time>
      </trkpt>
      <trkpt lat="45.09243" lon="6.15573">
        <ele>1706</ele>
        <time>2024-08-09T12:17:37Z</time>
      </trkpt>
      <trkpt lat="45.09243" lon="6.15573">
        <ele>1705.4</ele>
        <time>2024-08-09T12:17:38Z</time>
      </trkpt>
      <trkpt lat="45.09243" lon="6.15573">
        <ele>1705.2</ele>
        <time>2024-08-09T12:17:39Z</time>
      </trkpt>
      <trkpt lat="45.09242" lon="6.15575">
        <ele>1705</ele>
        <time>2024-08-09T12:17:40Z</time>
      </trkpt>
      <trkpt lat="45.09242" lon="6.15575">
        <ele>1704.6</ele>
        <time>2024-08-09T12:17:41Z</time>
      </trkpt>
      <trkpt lat="45.09241" lon="6.15578">
        <ele>1704.4</ele>
        <time>2024-08-09T12:17:42Z</time>
      </trkpt>
      <trkpt lat="45.09241" lon="6.15578">
        <ele>1704.2</ele>
        <time>2024-08-09T12:17:43Z</time>
      </trkpt>
      <trkpt lat="45.09241" lon="6.15578">
        <ele>1704.2</ele>
        <time>2024-08-09T12:17:44Z</time>
      </trkpt>
      <trkpt lat="45.0924" lon="6.1558">
        <ele>1703.6</ele>
        <time>2024-08-09T12:17:45Z</time>
      </trkpt>
      <trkpt lat="45.0924" lon="6.1558">
        <ele>1703.4</ele>
        <time>2024-08-09T12:17:46Z</time>
      </trkpt>
      <trkpt lat="45.0924" lon="6.1558">
        <ele>1703.2</ele>
        <time>2024-08-09T12:17:47Z</time>
      </trkpt>
      <trkpt lat="45.09241" lon="6.15583">
        <ele>1702.8</ele>
        <time>2024-08-09T12:17:48Z</time>
      </trkpt>
      <trkpt lat="45.09241" lon="6.15583">
        <ele>1702.6</ele>
        <time>2024-08-09T12:17:49Z</time>
      </trkpt>
      <trkpt lat="45.09242" lon="6.15586">
        <ele>1702.4</ele>
        <time>2024-08-09T12:17:50Z</time>
      </trkpt>
      <trkpt lat="45.09242" lon="6.15586">
        <ele>1702</ele>
        <time>2024-08-09T12:17:51Z</time>
      </trkpt>
      <trkpt lat="45.09242" lon="6.15586">
        <ele>1701.8</ele>
        <time>2024-08-09T12:17:52Z</time>
      </trkpt>
      <trkpt lat="45.09242" lon="6.15586">
        <ele>1701.8</ele>
        <time>2024-08-09T12:17:53Z</time>
      </trkpt>
      <trkpt lat="45.0924" lon="6.15587">
        <ele>1701.6</ele>
        <time>2024-08-09T12:17:54Z</time>
      </trkpt>
      <trkpt lat="45.0924" lon="6.15587">
        <ele>1701.2</ele>
        <time>2024-08-09T12:17:55Z</time>
      </trkpt>
      <trkpt lat="45.0924" lon="6.15587">
        <ele>1701</ele>
        <time>2024-08-09T12:17:56Z</time>
      </trkpt>
      <trkpt lat="45.09239" lon="6.1559">
        <ele>1700.6</ele>
        <time>2024-08-09T12:17:57Z</time>
      </trkpt>
      <trkpt lat="45.09239" lon="6.1559">
        <ele>1700.4</ele>
        <time>2024-08-09T12:17:58Z</time>
      </trkpt>
      <trkpt lat="45.09239" lon="6.1559">
        <ele>1700.2</ele>
        <time>2024-08-09T12:17:59Z</time>
      </trkpt>
      <trkpt lat="45.09238" lon="6.15593">
        <ele>1699.8</ele>
        <time>2024-08-09T12:18:00Z</time>
      </trkpt>
      <trkpt lat="45.09238" lon="6.15593">
        <ele>1699.2</ele>
        <time>2024-08-09T12:18:01Z</time>
      </trkpt>
      <trkpt lat="45.09238" lon="6.15593">
        <ele>1698.6</ele>
        <time>2024-08-09T12:18:02Z</time>
      </trkpt>
      <trkpt lat="45.09237" lon="6.15595">
        <ele>1698.6</ele>
        <time>2024-08-09T12:18:03Z</time>
      </trkpt>
      <trkpt lat="45.09237" lon="6.15595">
        <ele>1698.4</ele>
        <time>2024-08-09T12:18:04Z</time>
      </trkpt>
      <trkpt lat="45.09237" lon="6.15595">
        <ele>1697.8</ele>
        <time>2024-08-09T12:18:05Z</time>
      </trkpt>
      <trkpt lat="45.09236" lon="6.15599">
        <ele>1697.4</ele>
        <time>2024-08-09T12:18:06Z</time>
      </trkpt>
      <trkpt lat="45.09236" lon="6.15599">
        <ele>1697.2</ele>
        <time>2024-08-09T12:18:07Z</time>
      </trkpt>
      <trkpt lat="45.09235" lon="6.15601">
        <ele>1697.2</ele>
        <time>2024-08-09T12:18:08Z</time>
      </trkpt>
      <trkpt lat="45.09235" lon="6.15601">
        <ele>1697</ele>
        <time>2024-08-09T12:18:09Z</time>
      </trkpt>
      <trkpt lat="45.09235" lon="6.15601">
        <ele>1696.4</ele>
        <time>2024-08-09T12:18:10Z</time>
      </trkpt>
      <trkpt lat="45.09234" lon="6.15603">
        <ele>1696.2</ele>
        <time>2024-08-09T12:18:11Z</time>
      </trkpt>
      <trkpt lat="45.09234" lon="6.15603">
        <ele>1696</ele>
        <time>2024-08-09T12:18:12Z</time>
      </trkpt>
      <trkpt lat="45.09234" lon="6.15603">
        <ele>1695.8</ele>
        <time>2024-08-09T12:18:13Z</time>
      </trkpt>
      <trkpt lat="45.09235" lon="6.15606">
        <ele>1695.4</ele>
        <time>2024-08-09T12:18:14Z</time>
      </trkpt>
      <trkpt lat="45.09235" lon="6.15606">
        <ele>1695.2</ele>
        <time>2024-08-09T12:18:15Z</time>
      </trkpt>
      <trkpt lat="45.09235" lon="6.15606">
        <ele>1695</ele>
        <time>2024-08-09T12:18:16Z</time>
      </trkpt>
      <trkpt lat="45.09234" lon="6.15609">
        <ele>1694.8</ele>
        <time>2024-08-09T12:18:17Z</time>
      </trkpt>
      <trkpt lat="45.09234" lon="6.15609">
        <ele>1694.6</ele>
        <time>2024-08-09T12:18:18Z</time>
      </trkpt>
      <trkpt lat="45.09234" lon="6.15609">
        <ele>1694.4</ele>
        <time>2024-08-09T12:18:19Z</time>
      </trkpt>
      <trkpt lat="45.09232" lon="6.15609">
        <ele>1693.8</ele>
        <time>2024-08-09T12:18:20Z</time>
      </trkpt>
      <trkpt lat="45.09232" lon="6.15609">
        <ele>1693.2</ele>
        <time>2024-08-09T12:18:21Z</time>
      </trkpt>
      <trkpt lat="45.09232" lon="6.15609">
        <ele>1693</ele>
        <time>2024-08-09T12:18:22Z</time>
      </trkpt>
      <trkpt lat="45.0923" lon="6.15611">
        <ele>1692.4</ele>
        <time>2024-08-09T12:18:23Z</time>
      </trkpt>
      <trkpt lat="45.0923" lon="6.15611">
        <ele>1692</ele>
        <time>2024-08-09T12:18:24Z</time>
      </trkpt>
      <trkpt lat="45.09229" lon="6.15613">
        <ele>1692</ele>
        <time>2024-08-09T12:18:25Z</time>
      </trkpt>
      <trkpt lat="45.09229" lon="6.15613">
        <ele>1692</ele>
        <time>2024-08-09T12:18:26Z</time>
      </trkpt>
      <trkpt lat="45.09229" lon="6.15613">
        <ele>1691.8</ele>
        <time>2024-08-09T12:18:27Z</time>
      </trkpt>
      <trkpt lat="45.09229" lon="6.15613">
        <ele>1691.6</ele>
        <time>2024-08-09T12:18:28Z</time>
      </trkpt>
      <trkpt lat="45.09228" lon="6.15616">
        <ele>1691.2</ele>
        <time>2024-08-09T12:18:29Z</time>
      </trkpt>
      <trkpt lat="45.09228" lon="6.15616">
        <ele>1691</ele>
        <time>2024-08-09T12:18:30Z</time>
      </trkpt>
      <trkpt lat="45.09227" lon="6.15619">
        <ele>1691</ele>
        <time>2024-08-09T12:18:31Z</time>
      </trkpt>
      <trkpt lat="45.09227" lon="6.15619">
        <ele>1690.4</ele>
        <time>2024-08-09T12:18:32Z</time>
      </trkpt>
      <trkpt lat="45.09227" lon="6.15619">
        <ele>1690.4</ele>
        <time>2024-08-09T12:18:33Z</time>
      </trkpt>
      <trkpt lat="45.09227" lon="6.15619">
        <ele>1690.2</ele>
        <time>2024-08-09T12:18:34Z</time>
      </trkpt>
      <trkpt lat="45.09227" lon="6.15619">
        <ele>1689.6</ele>
        <time>2024-08-09T12:18:35Z</time>
      </trkpt>
      <trkpt lat="45.09227" lon="6.15619">
        <ele>1689.4</ele>
        <time>2024-08-09T12:18:36Z</time>
      </trkpt>
      <trkpt lat="45.09227" lon="6.15619">
        <ele>1689.4</ele>
        <time>2024-08-09T12:18:37Z</time>
      </trkpt>
      <trkpt lat="45.09227" lon="6.15619">
        <ele>1689.4</ele>
        <time>2024-08-09T12:18:38Z</time>
      </trkpt>
      <trkpt lat="45.09227" lon="6.15619">
        <ele>1689.4</ele>
        <time>2024-08-09T12:18:39Z</time>
      </trkpt>
      <trkpt lat="45.09227" lon="6.15619">
        <ele>1689.2</ele>
        <time>2024-08-09T12:18:40Z</time>
      </trkpt>
      <trkpt lat="45.09227" lon="6.15619">
        <ele>1689.2</ele>
        <time>2024-08-09T12:18:41Z</time>
      </trkpt>
      <trkpt lat="45.09227" lon="6.15619">
        <ele>1689.2</ele>
        <time>2024-08-09T12:18:42Z</time>
      </trkpt>
      <trkpt lat="45.09227" lon="6.15619">
        <ele>1689.2</ele>
        <time>2024-08-09T12:18:43Z</time>
      </trkpt>
      <trkpt lat="45.09227" lon="6.15619">
        <ele>1689.2</ele>
        <time>2024-08-09T12:18:44Z</time>
      </trkpt>
      <trkpt lat="45.09227" lon="6.15619">
        <ele>1689.4</ele>
        <time>2024-08-09T12:18:45Z</time>
      </trkpt>
      <trkpt lat="45.09227" lon="6.15619">
        <ele>1689.4</ele>
        <time>2024-08-09T12:18:46Z</time>
      </trkpt>
      <trkpt lat="45.09227" lon="6.15619">
        <ele>1689.4</ele>
        <time>2024-08-09T12:18:47Z</time>
      </trkpt>
      <trkpt lat="45.09227" lon="6.15619">
        <ele>1689.4</ele>
        <time>2024-08-09T12:18:48Z</time>
      </trkpt>
      <trkpt lat="45.09227" lon="6.15619">
        <ele>1689.4</ele>
        <time>2024-08-09T12:18:49Z</time>
      </trkpt>
      <trkpt lat="45.09227" lon="6.15619">
        <ele>1689.6</ele>
        <time>2024-08-09T12:18:50Z</time>
      </trkpt>
      <trkpt lat="45.09227" lon="6.15619">
        <ele>1689.6</ele>
        <time>2024-08-09T12:18:51Z</time>
      </trkpt>
      <trkpt lat="45.09227" lon="6.15619">
        <ele>1689.6</ele>
        <time>2024-08-09T12:18:52Z</time>
      </trkpt>
      <trkpt lat="45.09227" lon="6.15619">
        <ele>1689.6</ele>
        <time>2024-08-09T12:18:53Z</time>
      </trkpt>
      <trkpt lat="45.09227" lon="6.15619">
        <ele>1689.6</ele>
        <time>2024-08-09T12:18:54Z</time>
      </trkpt>
      <trkpt lat="45.09227" lon="6.15619">
        <ele>1689.6</ele>
        <time>2024-08-09T12:18:55Z</time>
      </trkpt>
      <trkpt lat="45.09226" lon="6.15622">
        <ele>1689.2</ele>
        <time>2024-08-09T12:18:56Z</time>
      </trkpt>
      <trkpt lat="45.09226" lon="6.15622">
        <ele>1689.2</ele>
        <time>2024-08-09T12:18:57Z</time>
      </trkpt>
      <trkpt lat="45.09226" lon="6.15622">
        <ele>1689.2</ele>
        <time>2024-08-09T12:18:58Z</time>
      </trkpt>
      <trkpt lat="45.09224" lon="6.15625">
        <ele>1689</ele>
        <time>2024-08-09T12:18:59Z</time>
      </trkpt>
      <trkpt lat="45.09224" lon="6.15625">
        <ele>1688.6</ele>
        <time>2024-08-09T12:19:00Z</time>
      </trkpt>
      <trkpt lat="45.09223" lon="6.15627">
        <ele>1688</ele>
        <time>2024-08-09T12:19:01Z</time>
      </trkpt>
      <trkpt lat="45.09223" lon="6.15627">
        <ele>1687.6</ele>
        <time>2024-08-09T12:19:02Z</time>
      </trkpt>
      <trkpt lat="45.09223" lon="6.15627">
        <ele>1687.6</ele>
        <time>2024-08-09T12:19:03Z</time>
      </trkpt>
      <trkpt lat="45.09222" lon="6.1563">
        <ele>1686.8</ele>
        <time>2024-08-09T12:19:04Z</time>
      </trkpt>
      <trkpt lat="45.09222" lon="6.1563">
        <ele>1686.6</ele>
        <time>2024-08-09T12:19:05Z</time>
      </trkpt>
      <trkpt lat="45.09222" lon="6.1563">
        <ele>1686.4</ele>
        <time>2024-08-09T12:19:06Z</time>
      </trkpt>
      <trkpt lat="45.0922" lon="6.15632">
        <ele>1686.4</ele>
        <time>2024-08-09T12:19:07Z</time>
      </trkpt>
      <trkpt lat="45.0922" lon="6.15632">
        <ele>1686</ele>
        <time>2024-08-09T12:19:08Z</time>
      </trkpt>
      <trkpt lat="45.09218" lon="6.15633">
        <ele>1685.8</ele>
        <time>2024-08-09T12:19:09Z</time>
      </trkpt>
      <trkpt lat="45.09218" lon="6.15633">
        <ele>1685.8</ele>
        <time>2024-08-09T12:19:10Z</time>
      </trkpt>
      <trkpt lat="45.09218" lon="6.15633">
        <ele>1685.2</ele>
        <time>2024-08-09T12:19:11Z</time>
      </trkpt>
      <trkpt lat="45.09216" lon="6.15634">
        <ele>1684.8</ele>
        <time>2024-08-09T12:19:12Z</time>
      </trkpt>
      <trkpt lat="45.09216" lon="6.15634">
        <ele>1684.4</ele>
        <time>2024-08-09T12:19:13Z</time>
      </trkpt>
      <trkpt lat="45.09216" lon="6.15634">
        <ele>1684.4</ele>
        <time>2024-08-09T12:19:14Z</time>
      </trkpt>
      <trkpt lat="45.09214" lon="6.15636">
        <ele>1684.4</ele>
        <time>2024-08-09T12:19:15Z</time>
      </trkpt>
      <trkpt lat="45.09214" lon="6.15636">
        <ele>1684.2</ele>
        <time>2024-08-09T12:19:16Z</time>
      </trkpt>
      <trkpt lat="45.09214" lon="6.15636">
        <ele>1683.8</ele>
        <time>2024-08-09T12:19:17Z</time>
      </trkpt>
      <trkpt lat="45.09213" lon="6.15638">
        <ele>1683.6</ele>
        <time>2024-08-09T12:19:18Z</time>
      </trkpt>
      <trkpt lat="45.09213" lon="6.15638">
        <ele>1683.4</ele>
        <time>2024-08-09T12:19:19Z</time>
      </trkpt>
      <trkpt lat="45.09213" lon="6.15638">
        <ele>1683.2</ele>
        <time>2024-08-09T12:19:20Z</time>
      </trkpt>
      <trkpt lat="45.09213" lon="6.15638">
        <ele>1682.8</ele>
        <time>2024-08-09T12:19:21Z</time>
      </trkpt>
      <trkpt lat="45.09212" lon="6.15641">
        <ele>1682.4</ele>
        <time>2024-08-09T12:19:22Z</time>
      </trkpt>
      <trkpt lat="45.09212" lon="6.15641">
        <ele>1681.8</ele>
        <time>2024-08-09T12:19:23Z</time>
      </trkpt>
      <trkpt lat="45.09212" lon="6.15641">
        <ele>1681.8</ele>
        <time>2024-08-09T12:19:24Z</time>
      </trkpt>
      <trkpt lat="45.0921" lon="6.15643">
        <ele>1681.6</ele>
        <time>2024-08-09T12:19:25Z</time>
      </trkpt>
      <trkpt lat="45.0921" lon="6.15643">
        <ele>1681.2</ele>
        <time>2024-08-09T12:19:26Z</time>
      </trkpt>
      <trkpt lat="45.0921" lon="6.15643">
        <ele>1681</ele>
        <time>2024-08-09T12:19:27Z</time>
      </trkpt>
      <trkpt lat="45.09209" lon="6.15646">
        <ele>1680.6</ele>
        <time>2024-08-09T12:19:28Z</time>
      </trkpt>
      <trkpt lat="45.09209" lon="6.15646">
        <ele>1680.6</ele>
        <time>2024-08-09T12:19:29Z</time>
      </trkpt>
      <trkpt lat="45.09209" lon="6.15646">
        <ele>1680.2</ele>
        <time>2024-08-09T12:19:30Z</time>
      </trkpt>
      <trkpt lat="45.09209" lon="6.15646">
        <ele>1680</ele>
        <time>2024-08-09T12:19:31Z</time>
      </trkpt>
      <trkpt lat="45.09208" lon="6.15649">
        <ele>1679.6</ele>
        <time>2024-08-09T12:19:32Z</time>
      </trkpt>
      <trkpt lat="45.09208" lon="6.15649">
        <ele>1679</ele>
        <time>2024-08-09T12:19:33Z</time>
      </trkpt>
      <trkpt lat="45.09207" lon="6.15652">
        <ele>1678.8</ele>
        <time>2024-08-09T12:19:34Z</time>
      </trkpt>
      <trkpt lat="45.09207" lon="6.15652">
        <ele>1678.4</ele>
        <time>2024-08-09T12:19:35Z</time>
      </trkpt>
      <trkpt lat="45.09207" lon="6.15652">
        <ele>1678</ele>
        <time>2024-08-09T12:19:36Z</time>
      </trkpt>
      <trkpt lat="45.09205" lon="6.15654">
        <ele>1678</ele>
        <time>2024-08-09T12:19:37Z</time>
      </trkpt>
      <trkpt lat="45.09205" lon="6.15654">
        <ele>1677.8</ele>
        <time>2024-08-09T12:19:38Z</time>
      </trkpt>
      <trkpt lat="45.09204" lon="6.15656">
        <ele>1677.6</ele>
        <time>2024-08-09T12:19:39Z</time>
      </trkpt>
      <trkpt lat="45.09204" lon="6.15656">
        <ele>1677.2</ele>
        <time>2024-08-09T12:19:40Z</time>
      </trkpt>
      <trkpt lat="45.09204" lon="6.15656">
        <ele>1677</ele>
        <time>2024-08-09T12:19:41Z</time>
      </trkpt>
      <trkpt lat="45.09204" lon="6.15656">
        <ele>1676.8</ele>
        <time>2024-08-09T12:19:42Z</time>
      </trkpt>
      <trkpt lat="45.09204" lon="6.15656">
        <ele>1676.8</ele>
        <time>2024-08-09T12:19:43Z</time>
      </trkpt>
      <trkpt lat="45.09204" lon="6.15656">
        <ele>1676.4</ele>
        <time>2024-08-09T12:19:44Z</time>
      </trkpt>
      <trkpt lat="45.09204" lon="6.15656">
        <ele>1676.4</ele>
        <time>2024-08-09T12:19:45Z</time>
      </trkpt>
      <trkpt lat="45.09204" lon="6.15656">
        <ele>1676.6</ele>
        <time>2024-08-09T12:19:46Z</time>
      </trkpt>
      <trkpt lat="45.09204" lon="6.15656">
        <ele>1676.8</ele>
        <time>2024-08-09T12:19:47Z</time>
      </trkpt>
      <trkpt lat="45.09206" lon="6.15657">
        <ele>1676.8</ele>
        <time>2024-08-09T12:19:48Z</time>
      </trkpt>
      <trkpt lat="45.09206" lon="6.15657">
        <ele>1676.8</ele>
        <time>2024-08-09T12:19:49Z</time>
      </trkpt>
      <trkpt lat="45.09206" lon="6.15657">
        <ele>1676.8</ele>
        <time>2024-08-09T12:19:50Z</time>
      </trkpt>
      <trkpt lat="45.09206" lon="6.15657">
        <ele>1676.8</ele>
        <time>2024-08-09T12:19:51Z</time>
      </trkpt>
      <trkpt lat="45.09206" lon="6.15657">
        <ele>1677</ele>
        <time>2024-08-09T12:19:52Z</time>
      </trkpt>
      <trkpt lat="45.09206" lon="6.15657">
        <ele>1677.2</ele>
        <time>2024-08-09T12:19:53Z</time>
      </trkpt>
      <trkpt lat="45.09206" lon="6.15657">
        <ele>1677.2</ele>
        <time>2024-08-09T12:19:54Z</time>
      </trkpt>
      <trkpt lat="45.09206" lon="6.15657">
        <ele>1677.2</ele>
        <time>2024-08-09T12:19:55Z</time>
      </trkpt>
      <trkpt lat="45.09206" lon="6.15657">
        <ele>1677</ele>
        <time>2024-08-09T12:19:56Z</time>
      </trkpt>
      <trkpt lat="45.09206" lon="6.15657">
        <ele>1676.8</ele>
        <time>2024-08-09T12:19:57Z</time>
      </trkpt>
      <trkpt lat="45.09206" lon="6.15657">
        <ele>1676.6</ele>
        <time>2024-08-09T12:19:58Z</time>
      </trkpt>
      <trkpt lat="45.09206" lon="6.15657">
        <ele>1676.6</ele>
        <time>2024-08-09T12:19:59Z</time>
      </trkpt>
      <trkpt lat="45.09206" lon="6.15657">
        <ele>1676.8</ele>
        <time>2024-08-09T12:20:02Z</time>
      </trkpt>
      <trkpt lat="45.09206" lon="6.15657">
        <ele>1676.6</ele>
        <time>2024-08-09T12:20:03Z</time>
      </trkpt>
      <trkpt lat="45.09206" lon="6.15657">
        <ele>1676.6</ele>
        <time>2024-08-09T12:20:04Z</time>
      </trkpt>
      <trkpt lat="45.09206" lon="6.15657">
        <ele>1676.6</ele>
        <time>2024-08-09T12:20:05Z</time>
      </trkpt>
      <trkpt lat="45.09206" lon="6.15657">
        <ele>1676.6</ele>
        <time>2024-08-09T12:20:06Z</time>
      </trkpt>
      <trkpt lat="45.09206" lon="6.15657">
        <ele>1676.4</ele>
        <time>2024-08-09T12:20:07Z</time>
      </trkpt>
      <trkpt lat="45.09205" lon="6.1566">
        <ele>1676.2</ele>
        <time>2024-08-09T12:20:08Z</time>
      </trkpt>
      <trkpt lat="45.09205" lon="6.1566">
        <ele>1676</ele>
        <time>2024-08-09T12:20:09Z</time>
      </trkpt>
      <trkpt lat="45.09205" lon="6.15664">
        <ele>1675.6</ele>
        <time>2024-08-09T12:20:10Z</time>
      </trkpt>
      <trkpt lat="45.09205" lon="6.15664">
        <ele>1675.4</ele>
        <time>2024-08-09T12:20:11Z</time>
      </trkpt>
      <trkpt lat="45.09204" lon="6.15667">
        <ele>1675</ele>
        <time>2024-08-09T12:20:12Z</time>
      </trkpt>
      <trkpt lat="45.09204" lon="6.15667">
        <ele>1674.6</ele>
        <time>2024-08-09T12:20:13Z</time>
      </trkpt>
      <trkpt lat="45.09203" lon="6.15669">
        <ele>1674.2</ele>
        <time>2024-08-09T12:20:14Z</time>
      </trkpt>
      <trkpt lat="45.09203" lon="6.15669">
        <ele>1673.8</ele>
        <time>2024-08-09T12:20:15Z</time>
      </trkpt>
      <trkpt lat="45.09201" lon="6.15672">
        <ele>1673.4</ele>
        <time>2024-08-09T12:20:16Z</time>
      </trkpt>
      <trkpt lat="45.09201" lon="6.15672">
        <ele>1673</ele>
        <time>2024-08-09T12:20:17Z</time>
      </trkpt>
      <trkpt lat="45.09201" lon="6.15672">
        <ele>1673</ele>
        <time>2024-08-09T12:20:18Z</time>
      </trkpt>
      <trkpt lat="45.092" lon="6.15674">
        <ele>1672.8</ele>
        <time>2024-08-09T12:20:19Z</time>
      </trkpt>
      <trkpt lat="45.092" lon="6.15674">
        <ele>1672.8</ele>
        <time>2024-08-09T12:20:20Z</time>
      </trkpt>
      <trkpt lat="45.09198" lon="6.15676">
        <ele>1672.2</ele>
        <time>2024-08-09T12:20:21Z</time>
      </trkpt>
      <trkpt lat="45.09198" lon="6.15676">
        <ele>1672.2</ele>
        <time>2024-08-09T12:20:22Z</time>
      </trkpt>
      <trkpt lat="45.09198" lon="6.15679">
        <ele>1671.8</ele>
        <time>2024-08-09T12:20:23Z</time>
      </trkpt>
      <trkpt lat="45.09198" lon="6.15679">
        <ele>1671.6</ele>
        <time>2024-08-09T12:20:24Z</time>
      </trkpt>
      <trkpt lat="45.09197" lon="6.15682">
        <ele>1671.4</ele>
        <time>2024-08-09T12:20:25Z</time>
      </trkpt>
      <trkpt lat="45.09197" lon="6.15682">
        <ele>1671.2</ele>
        <time>2024-08-09T12:20:26Z</time>
      </trkpt>
      <trkpt lat="45.09196" lon="6.15684">
        <ele>1670.8</ele>
        <time>2024-08-09T12:20:27Z</time>
      </trkpt>
      <trkpt lat="45.09196" lon="6.15684">
        <ele>1670.2</ele>
        <time>2024-08-09T12:20:28Z</time>
      </trkpt>
      <trkpt lat="45.09196" lon="6.15684">
        <ele>1669.8</ele>
        <time>2024-08-09T12:20:29Z</time>
      </trkpt>
      <trkpt lat="45.09197" lon="6.15687">
        <ele>1669.6</ele>
        <time>2024-08-09T12:20:30Z</time>
      </trkpt>
      <trkpt lat="45.09197" lon="6.15687">
        <ele>1669.6</ele>
        <time>2024-08-09T12:20:31Z</time>
      </trkpt>
      <trkpt lat="45.09197" lon="6.15687">
        <ele>1669.2</ele>
        <time>2024-08-09T12:20:32Z</time>
      </trkpt>
      <trkpt lat="45.09195" lon="6.15691">
        <ele>1668.8</ele>
        <time>2024-08-09T12:20:33Z</time>
      </trkpt>
      <trkpt lat="45.09195" lon="6.15691">
        <ele>1668.4</ele>
        <time>2024-08-09T12:20:34Z</time>
      </trkpt>
      <trkpt lat="45.09194" lon="6.15693">
        <ele>1668</ele>
        <time>2024-08-09T12:20:35Z</time>
      </trkpt>
      <trkpt lat="45.09194" lon="6.15693">
        <ele>1667.8</ele>
        <time>2024-08-09T12:20:36Z</time>
      </trkpt>
      <trkpt lat="45.09193" lon="6.15695">
        <ele>1667.6</ele>
        <time>2024-08-09T12:20:37Z</time>
      </trkpt>
      <trkpt lat="45.09193" lon="6.15695">
        <ele>1667.6</ele>
        <time>2024-08-09T12:20:38Z</time>
      </trkpt>
      <trkpt lat="45.09191" lon="6.15697">
        <ele>1667.2</ele>
        <time>2024-08-09T12:20:39Z</time>
      </trkpt>
      <trkpt lat="45.09191" lon="6.15697">
        <ele>1666.8</ele>
        <time>2024-08-09T12:20:40Z</time>
      </trkpt>
      <trkpt lat="45.09191" lon="6.15697">
        <ele>1666.6</ele>
        <time>2024-08-09T12:20:41Z</time>
      </trkpt>
      <trkpt lat="45.0919" lon="6.15699">
        <ele>1666.6</ele>
        <time>2024-08-09T12:20:42Z</time>
      </trkpt>
      <trkpt lat="45.0919" lon="6.15699">
        <ele>1666</ele>
        <time>2024-08-09T12:20:43Z</time>
      </trkpt>
      <trkpt lat="45.0919" lon="6.15699">
        <ele>1665.4</ele>
        <time>2024-08-09T12:20:44Z</time>
      </trkpt>
      <trkpt lat="45.0919" lon="6.15702">
        <ele>1665.2</ele>
        <time>2024-08-09T12:20:45Z</time>
      </trkpt>
      <trkpt lat="45.0919" lon="6.15702">
        <ele>1665</ele>
        <time>2024-08-09T12:20:46Z</time>
      </trkpt>
      <trkpt lat="45.0919" lon="6.15702">
        <ele>1665</ele>
        <time>2024-08-09T12:20:47Z</time>
      </trkpt>
      <trkpt lat="45.09189" lon="6.15705">
        <ele>1664.8</ele>
        <time>2024-08-09T12:20:48Z</time>
      </trkpt>
      <trkpt lat="45.09189" lon="6.15705">
        <ele>1664</ele>
        <time>2024-08-09T12:20:49Z</time>
      </trkpt>
      <trkpt lat="45.09189" lon="6.15705">
        <ele>1664</ele>
        <time>2024-08-09T12:20:50Z</time>
      </trkpt>
      <trkpt lat="45.09189" lon="6.15708">
        <ele>1664</ele>
        <time>2024-08-09T12:20:51Z</time>
      </trkpt>
      <trkpt lat="45.09189" lon="6.15708">
        <ele>1663.8</ele>
        <time>2024-08-09T12:20:52Z</time>
      </trkpt>
      <trkpt lat="45.09188" lon="6.15711">
        <ele>1663.8</ele>
        <time>2024-08-09T12:20:53Z</time>
      </trkpt>
      <trkpt lat="45.09188" lon="6.15711">
        <ele>1663.4</ele>
        <time>2024-08-09T12:20:54Z</time>
      </trkpt>
      <trkpt lat="45.09187" lon="6.15714">
        <ele>1663</ele>
        <time>2024-08-09T12:20:55Z</time>
      </trkpt>
      <trkpt lat="45.09187" lon="6.15714">
        <ele>1662.4</ele>
        <time>2024-08-09T12:20:56Z</time>
      </trkpt>
      <trkpt lat="45.09185" lon="6.15717">
        <ele>1662</ele>
        <time>2024-08-09T12:20:57Z</time>
      </trkpt>
      <trkpt lat="45.09185" lon="6.15717">
        <ele>1661.4</ele>
        <time>2024-08-09T12:20:58Z</time>
      </trkpt>
      <trkpt lat="45.09184" lon="6.15719">
        <ele>1661.2</ele>
        <time>2024-08-09T12:20:59Z</time>
      </trkpt>
      <trkpt lat="45.09184" lon="6.15719">
        <ele>1661.2</ele>
        <time>2024-08-09T12:21:00Z</time>
      </trkpt>
      <trkpt lat="45.09182" lon="6.1572">
        <ele>1660.8</ele>
        <time>2024-08-09T12:21:01Z</time>
      </trkpt>
      <trkpt lat="45.09182" lon="6.1572">
        <ele>1660</ele>
        <time>2024-08-09T12:21:02Z</time>
      </trkpt>
      <trkpt lat="45.0918" lon="6.15721">
        <ele>1660</ele>
        <time>2024-08-09T12:21:03Z</time>
      </trkpt>
      <trkpt lat="45.0918" lon="6.15721">
        <ele>1660</ele>
        <time>2024-08-09T12:21:04Z</time>
      </trkpt>
      <trkpt lat="45.09178" lon="6.15723">
        <ele>1659.8</ele>
        <time>2024-08-09T12:21:05Z</time>
      </trkpt>
      <trkpt lat="45.09178" lon="6.15723">
        <ele>1659.6</ele>
        <time>2024-08-09T12:21:06Z</time>
      </trkpt>
      <trkpt lat="45.09176" lon="6.15726">
        <ele>1659.4</ele>
        <time>2024-08-09T12:21:07Z</time>
      </trkpt>
      <trkpt lat="45.09176" lon="6.15726">
        <ele>1659.4</ele>
        <time>2024-08-09T12:21:08Z</time>
      </trkpt>
      <trkpt lat="45.09174" lon="6.15727">
        <ele>1659.2</ele>
        <time>2024-08-09T12:21:09Z</time>
      </trkpt>
      <trkpt lat="45.09174" lon="6.15727">
        <ele>1658.8</ele>
        <time>2024-08-09T12:21:10Z</time>
      </trkpt>
      <trkpt lat="45.09173" lon="6.15729">
        <ele>1658.6</ele>
        <time>2024-08-09T12:21:11Z</time>
      </trkpt>
      <trkpt lat="45.09173" lon="6.15729">
        <ele>1658.6</ele>
        <time>2024-08-09T12:21:12Z</time>
      </trkpt>
      <trkpt lat="45.09171" lon="6.15732">
        <ele>1658.4</ele>
        <time>2024-08-09T12:21:13Z</time>
      </trkpt>
      <trkpt lat="45.09171" lon="6.15732">
        <ele>1658</ele>
        <time>2024-08-09T12:21:14Z</time>
      </trkpt>
      <trkpt lat="45.09169" lon="6.15735">
        <ele>1658</ele>
        <time>2024-08-09T12:21:15Z</time>
      </trkpt>
      <trkpt lat="45.09169" lon="6.15735">
        <ele>1657.4</ele>
        <time>2024-08-09T12:21:16Z</time>
      </trkpt>
      <trkpt lat="45.09167" lon="6.15737">
        <ele>1657.2</ele>
        <time>2024-08-09T12:21:17Z</time>
      </trkpt>
      <trkpt lat="45.09167" lon="6.15737">
        <ele>1657.2</ele>
        <time>2024-08-09T12:21:18Z</time>
      </trkpt>
      <trkpt lat="45.09165" lon="6.15739">
        <ele>1656.4</ele>
        <time>2024-08-09T12:21:19Z</time>
      </trkpt>
      <trkpt lat="45.09165" lon="6.15739">
        <ele>1655.8</ele>
        <time>2024-08-09T12:21:20Z</time>
      </trkpt>
      <trkpt lat="45.09163" lon="6.1574">
        <ele>1655.8</ele>
        <time>2024-08-09T12:21:21Z</time>
      </trkpt>
      <trkpt lat="45.09163" lon="6.1574">
        <ele>1655.6</ele>
        <time>2024-08-09T12:21:22Z</time>
      </trkpt>
      <trkpt lat="45.09161" lon="6.15742">
        <ele>1655.6</ele>
        <time>2024-08-09T12:21:23Z</time>
      </trkpt>
      <trkpt lat="45.09161" lon="6.15742">
        <ele>1655.2</ele>
        <time>2024-08-09T12:21:24Z</time>
      </trkpt>
      <trkpt lat="45.09161" lon="6.15742">
        <ele>1655.2</ele>
        <time>2024-08-09T12:21:25Z</time>
      </trkpt>
      <trkpt lat="45.09159" lon="6.15744">
        <ele>1655</ele>
        <time>2024-08-09T12:21:26Z</time>
      </trkpt>
      <trkpt lat="45.09159" lon="6.15744">
        <ele>1655</ele>
        <time>2024-08-09T12:21:27Z</time>
      </trkpt>
      <trkpt lat="45.09159" lon="6.15744">
        <ele>1654.6</ele>
        <time>2024-08-09T12:21:28Z</time>
      </trkpt>
      <trkpt lat="45.09159" lon="6.15744">
        <ele>1654.4</ele>
        <time>2024-08-09T12:21:29Z</time>
      </trkpt>
      <trkpt lat="45.09159" lon="6.15744">
        <ele>1654.4</ele>
        <time>2024-08-09T12:21:30Z</time>
      </trkpt>
      <trkpt lat="45.09159" lon="6.15744">
        <ele>1654.2</ele>
        <time>2024-08-09T12:21:31Z</time>
      </trkpt>
      <trkpt lat="45.09159" lon="6.15744">
        <ele>1654.2</ele>
        <time>2024-08-09T12:21:32Z</time>
      </trkpt>
      <trkpt lat="45.09159" lon="6.15748">
        <ele>1654.2</ele>
        <time>2024-08-09T12:21:33Z</time>
      </trkpt>
      <trkpt lat="45.09159" lon="6.15748">
        <ele>1654</ele>
        <time>2024-08-09T12:21:34Z</time>
      </trkpt>
      <trkpt lat="45.09159" lon="6.15748">
        <ele>1653.6</ele>
        <time>2024-08-09T12:21:35Z</time>
      </trkpt>
      <trkpt lat="45.09158" lon="6.15751">
        <ele>1653.4</ele>
        <time>2024-08-09T12:21:36Z</time>
      </trkpt>
      <trkpt lat="45.09158" lon="6.15751">
        <ele>1653.2</ele>
        <time>2024-08-09T12:21:37Z</time>
      </trkpt>
      <trkpt lat="45.09159" lon="6.15753">
        <ele>1653</ele>
        <time>2024-08-09T12:21:38Z</time>
      </trkpt>
      <trkpt lat="45.09159" lon="6.15753">
        <ele>1652.6</ele>
        <time>2024-08-09T12:21:39Z</time>
      </trkpt>
      <trkpt lat="45.0916" lon="6.15756">
        <ele>1652.2</ele>
        <time>2024-08-09T12:21:40Z</time>
      </trkpt>
      <trkpt lat="45.0916" lon="6.15756">
        <ele>1651.8</ele>
        <time>2024-08-09T12:21:41Z</time>
      </trkpt>
      <trkpt lat="45.0916" lon="6.15756">
        <ele>1651.6</ele>
        <time>2024-08-09T12:21:42Z</time>
      </trkpt>
      <trkpt lat="45.09163" lon="6.15758">
        <ele>1651.4</ele>
        <time>2024-08-09T12:21:43Z</time>
      </trkpt>
      <trkpt lat="45.09163" lon="6.15758">
        <ele>1650.8</ele>
        <time>2024-08-09T12:21:44Z</time>
      </trkpt>
      <trkpt lat="45.09165" lon="6.15759">
        <ele>1650.6</ele>
        <time>2024-08-09T12:21:45Z</time>
      </trkpt>
      <trkpt lat="45.09165" lon="6.15759">
        <ele>1650.4</ele>
        <time>2024-08-09T12:21:46Z</time>
      </trkpt>
      <trkpt lat="45.09166" lon="6.15762">
        <ele>1650</ele>
        <time>2024-08-09T12:21:47Z</time>
      </trkpt>
      <trkpt lat="45.09166" lon="6.15762">
        <ele>1649.8</ele>
        <time>2024-08-09T12:21:48Z</time>
      </trkpt>
      <trkpt lat="45.09165" lon="6.15764">
        <ele>1649.6</ele>
        <time>2024-08-09T12:21:49Z</time>
      </trkpt>
      <trkpt lat="45.09165" lon="6.15764">
        <ele>1649.2</ele>
        <time>2024-08-09T12:21:50Z</time>
      </trkpt>
      <trkpt lat="45.09164" lon="6.15766">
        <ele>1648.6</ele>
        <time>2024-08-09T12:21:51Z</time>
      </trkpt>
      <trkpt lat="45.09164" lon="6.15766">
        <ele>1648.2</ele>
        <time>2024-08-09T12:21:52Z</time>
      </trkpt>
      <trkpt lat="45.09162" lon="6.15769">
        <ele>1647.8</ele>
        <time>2024-08-09T12:21:53Z</time>
      </trkpt>
      <trkpt lat="45.09162" lon="6.15769">
        <ele>1647.4</ele>
        <time>2024-08-09T12:21:54Z</time>
      </trkpt>
      <trkpt lat="45.0916" lon="6.15771">
        <ele>1646.8</ele>
        <time>2024-08-09T12:21:55Z</time>
      </trkpt>
      <trkpt lat="45.0916" lon="6.15771">
        <ele>1646.6</ele>
        <time>2024-08-09T12:21:56Z</time>
      </trkpt>
      <trkpt lat="45.0916" lon="6.15771">
        <ele>1646.4</ele>
        <time>2024-08-09T12:21:57Z</time>
      </trkpt>
      <trkpt lat="45.0916" lon="6.15771">
        <ele>1646.2</ele>
        <time>2024-08-09T12:21:58Z</time>
      </trkpt>
      <trkpt lat="45.0916" lon="6.15771">
        <ele>1646</ele>
        <time>2024-08-09T12:21:59Z</time>
      </trkpt>
      <trkpt lat="45.09161" lon="6.15774">
        <ele>1646</ele>
        <time>2024-08-09T12:22:00Z</time>
      </trkpt>
      <trkpt lat="45.09161" lon="6.15774">
        <ele>1646</ele>
        <time>2024-08-09T12:22:01Z</time>
      </trkpt>
      <trkpt lat="45.09163" lon="6.15776">
        <ele>1645.6</ele>
        <time>2024-08-09T12:22:02Z</time>
      </trkpt>
      <trkpt lat="45.09163" lon="6.15776">
        <ele>1645.6</ele>
        <time>2024-08-09T12:22:03Z</time>
      </trkpt>
      <trkpt lat="45.09163" lon="6.15776">
        <ele>1645</ele>
        <time>2024-08-09T12:22:04Z</time>
      </trkpt>
      <trkpt lat="45.09165" lon="6.15777">
        <ele>1644.6</ele>
        <time>2024-08-09T12:22:05Z</time>
      </trkpt>
      <trkpt lat="45.09165" lon="6.15777">
        <ele>1644.2</ele>
        <time>2024-08-09T12:22:06Z</time>
      </trkpt>
      <trkpt lat="45.09167" lon="6.15776">
        <ele>1643.8</ele>
        <time>2024-08-09T12:22:07Z</time>
      </trkpt>
      <trkpt lat="45.09167" lon="6.15776">
        <ele>1643.6</ele>
        <time>2024-08-09T12:22:08Z</time>
      </trkpt>
      <trkpt lat="45.0917" lon="6.15776">
        <ele>1643.4</ele>
        <time>2024-08-09T12:22:09Z</time>
      </trkpt>
      <trkpt lat="45.0917" lon="6.15776">
        <ele>1643.2</ele>
        <time>2024-08-09T12:22:10Z</time>
      </trkpt>
      <trkpt lat="45.09172" lon="6.15775">
        <ele>1642.8</ele>
        <time>2024-08-09T12:22:11Z</time>
      </trkpt>
      <trkpt lat="45.09174" lon="6.15776">
        <ele>1642.6</ele>
        <time>2024-08-09T12:22:12Z</time>
      </trkpt>
      <trkpt lat="45.09174" lon="6.15776">
        <ele>1642.4</ele>
        <time>2024-08-09T12:22:13Z</time>
      </trkpt>
      <trkpt lat="45.09174" lon="6.15776">
        <ele>1642.2</ele>
        <time>2024-08-09T12:22:14Z</time>
      </trkpt>
      <trkpt lat="45.09175" lon="6.15779">
        <ele>1642</ele>
        <time>2024-08-09T12:22:15Z</time>
      </trkpt>
      <trkpt lat="45.09175" lon="6.15779">
        <ele>1641.8</ele>
        <time>2024-08-09T12:22:16Z</time>
      </trkpt>
      <trkpt lat="45.09174" lon="6.15782">
        <ele>1641.6</ele>
        <time>2024-08-09T12:22:17Z</time>
      </trkpt>
      <trkpt lat="45.09174" lon="6.15782">
        <ele>1641.2</ele>
        <time>2024-08-09T12:22:18Z</time>
      </trkpt>
      <trkpt lat="45.09173" lon="6.15783">
        <ele>1641</ele>
        <time>2024-08-09T12:22:19Z</time>
      </trkpt>
      <trkpt lat="45.09173" lon="6.15783">
        <ele>1640.8</ele>
        <time>2024-08-09T12:22:20Z</time>
      </trkpt>
      <trkpt lat="45.09171" lon="6.15785">
        <ele>1640.4</ele>
        <time>2024-08-09T12:22:21Z</time>
      </trkpt>
      <trkpt lat="45.09171" lon="6.15785">
        <ele>1640</ele>
        <time>2024-08-09T12:22:22Z</time>
      </trkpt>
      <trkpt lat="45.09171" lon="6.15785">
        <ele>1639.6</ele>
        <time>2024-08-09T12:22:23Z</time>
      </trkpt>
      <trkpt lat="45.0917" lon="6.15789">
        <ele>1639.4</ele>
        <time>2024-08-09T12:22:24Z</time>
      </trkpt>
      <trkpt lat="45.0917" lon="6.15789">
        <ele>1639.2</ele>
        <time>2024-08-09T12:22:25Z</time>
      </trkpt>
      <trkpt lat="45.09169" lon="6.15791">
        <ele>1639</ele>
        <time>2024-08-09T12:22:26Z</time>
      </trkpt>
      <trkpt lat="45.09169" lon="6.15791">
        <ele>1638.8</ele>
        <time>2024-08-09T12:22:27Z</time>
      </trkpt>
      <trkpt lat="45.09168" lon="6.15794">
        <ele>1638.4</ele>
        <time>2024-08-09T12:22:28Z</time>
      </trkpt>
      <trkpt lat="45.09168" lon="6.15794">
        <ele>1638</ele>
        <time>2024-08-09T12:22:29Z</time>
      </trkpt>
      <trkpt lat="45.09168" lon="6.15794">
        <ele>1638</ele>
        <time>2024-08-09T12:22:30Z</time>
      </trkpt>
      <trkpt lat="45.09167" lon="6.15797">
        <ele>1637.6</ele>
        <time>2024-08-09T12:22:31Z</time>
      </trkpt>
      <trkpt lat="45.09167" lon="6.15797">
        <ele>1637.4</ele>
        <time>2024-08-09T12:22:32Z</time>
      </trkpt>
      <trkpt lat="45.09167" lon="6.15797">
        <ele>1637</ele>
        <time>2024-08-09T12:22:33Z</time>
      </trkpt>
      <trkpt lat="45.09165" lon="6.158">
        <ele>1637</ele>
        <time>2024-08-09T12:22:34Z</time>
      </trkpt>
      <trkpt lat="45.09165" lon="6.158">
        <ele>1636.4</ele>
        <time>2024-08-09T12:22:35Z</time>
      </trkpt>
      <trkpt lat="45.09165" lon="6.158">
        <ele>1635.8</ele>
        <time>2024-08-09T12:22:36Z</time>
      </trkpt>
      <trkpt lat="45.09167" lon="6.15801">
        <ele>1635.8</ele>
        <time>2024-08-09T12:22:37Z</time>
      </trkpt>
      <trkpt lat="45.09167" lon="6.15801">
        <ele>1635.6</ele>
        <time>2024-08-09T12:22:38Z</time>
      </trkpt>
      <trkpt lat="45.09167" lon="6.15801">
        <ele>1635.2</ele>
        <time>2024-08-09T12:22:39Z</time>
      </trkpt>
      <trkpt lat="45.09167" lon="6.15805">
        <ele>1635.2</ele>
        <time>2024-08-09T12:22:40Z</time>
      </trkpt>
      <trkpt lat="45.09167" lon="6.15805">
        <ele>1635</ele>
        <time>2024-08-09T12:22:41Z</time>
      </trkpt>
      <trkpt lat="45.09166" lon="6.15806">
        <ele>1634.4</ele>
        <time>2024-08-09T12:22:42Z</time>
      </trkpt>
      <trkpt lat="45.09166" lon="6.15806">
        <ele>1634.4</ele>
        <time>2024-08-09T12:22:43Z</time>
      </trkpt>
      <trkpt lat="45.09166" lon="6.15806">
        <ele>1634.2</ele>
        <time>2024-08-09T12:22:44Z</time>
      </trkpt>
      <trkpt lat="45.09164" lon="6.15808">
        <ele>1634.2</ele>
        <time>2024-08-09T12:22:45Z</time>
      </trkpt>
      <trkpt lat="45.09164" lon="6.15808">
        <ele>1634.2</ele>
        <time>2024-08-09T12:22:46Z</time>
      </trkpt>
      <trkpt lat="45.09164" lon="6.15808">
        <ele>1634</ele>
        <time>2024-08-09T12:22:47Z</time>
      </trkpt>
      <trkpt lat="45.09163" lon="6.1581">
        <ele>1633.8</ele>
        <time>2024-08-09T12:22:48Z</time>
      </trkpt>
      <trkpt lat="45.09163" lon="6.1581">
        <ele>1633.4</ele>
        <time>2024-08-09T12:22:49Z</time>
      </trkpt>
      <trkpt lat="45.09163" lon="6.1581">
        <ele>1633.4</ele>
        <time>2024-08-09T12:22:50Z</time>
      </trkpt>
      <trkpt lat="45.09163" lon="6.1581">
        <ele>1633.4</ele>
        <time>2024-08-09T12:22:51Z</time>
      </trkpt>
      <trkpt lat="45.09163" lon="6.1581">
        <ele>1633.4</ele>
        <time>2024-08-09T12:22:52Z</time>
      </trkpt>
      <trkpt lat="45.09163" lon="6.1581">
        <ele>1633.2</ele>
        <time>2024-08-09T12:22:53Z</time>
      </trkpt>
      <trkpt lat="45.09163" lon="6.1581">
        <ele>1633.2</ele>
        <time>2024-08-09T12:22:54Z</time>
      </trkpt>
      <trkpt lat="45.09163" lon="6.1581">
        <ele>1633</ele>
        <time>2024-08-09T12:22:55Z</time>
      </trkpt>
      <trkpt lat="45.09163" lon="6.15814">
        <ele>1632.8</ele>
        <time>2024-08-09T12:22:56Z</time>
      </trkpt>
      <trkpt lat="45.09163" lon="6.15814">
        <ele>1632.4</ele>
        <time>2024-08-09T12:22:57Z</time>
      </trkpt>
      <trkpt lat="45.09163" lon="6.15818">
        <ele>1632.4</ele>
        <time>2024-08-09T12:22:58Z</time>
      </trkpt>
      <trkpt lat="45.09163" lon="6.15818">
        <ele>1632</ele>
        <time>2024-08-09T12:22:59Z</time>
      </trkpt>
      <trkpt lat="45.09163" lon="6.15822">
        <ele>1631.8</ele>
        <time>2024-08-09T12:23:00Z</time>
      </trkpt>
      <trkpt lat="45.09163" lon="6.15822">
        <ele>1631.6</ele>
        <time>2024-08-09T12:23:01Z</time>
      </trkpt>
      <trkpt lat="45.09163" lon="6.15825">
        <ele>1631</ele>
        <time>2024-08-09T12:23:02Z</time>
      </trkpt>
      <trkpt lat="45.09163" lon="6.15825">
        <ele>1631</ele>
        <time>2024-08-09T12:23:03Z</time>
      </trkpt>
      <trkpt lat="45.09165" lon="6.15827">
        <ele>1630.6</ele>
        <time>2024-08-09T12:23:04Z</time>
      </trkpt>
      <trkpt lat="45.09165" lon="6.15827">
        <ele>1630.2</ele>
        <time>2024-08-09T12:23:05Z</time>
      </trkpt>
      <trkpt lat="45.09166" lon="6.15829">
        <ele>1630.2</ele>
        <time>2024-08-09T12:23:06Z</time>
      </trkpt>
      <trkpt lat="45.09166" lon="6.15829">
        <ele>1630</ele>
        <time>2024-08-09T12:23:07Z</time>
      </trkpt>
      <trkpt lat="45.09167" lon="6.15831">
        <ele>1629.6</ele>
        <time>2024-08-09T12:23:08Z</time>
      </trkpt>
      <trkpt lat="45.09167" lon="6.15831">
        <ele>1629.6</ele>
        <time>2024-08-09T12:23:09Z</time>
      </trkpt>
      <trkpt lat="45.09167" lon="6.15831">
        <ele>1629.6</ele>
        <time>2024-08-09T12:23:10Z</time>
      </trkpt>
      <trkpt lat="45.09167" lon="6.15831">
        <ele>1629.6</ele>
        <time>2024-08-09T12:23:11Z</time>
      </trkpt>
      <trkpt lat="45.09168" lon="6.15834">
        <ele>1629.6</ele>
        <time>2024-08-09T12:23:12Z</time>
      </trkpt>
      <trkpt lat="45.09168" lon="6.15834">
        <ele>1629.6</ele>
        <time>2024-08-09T12:23:13Z</time>
      </trkpt>
      <trkpt lat="45.09169" lon="6.15837">
        <ele>1629.6</ele>
        <time>2024-08-09T12:23:14Z</time>
      </trkpt>
      <trkpt lat="45.09169" lon="6.15837">
        <ele>1629.8</ele>
        <time>2024-08-09T12:23:15Z</time>
      </trkpt>
      <trkpt lat="45.09169" lon="6.15839">
        <ele>1629.8</ele>
        <time>2024-08-09T12:23:16Z</time>
      </trkpt>
      <trkpt lat="45.09169" lon="6.15839">
        <ele>1629.4</ele>
        <time>2024-08-09T12:23:17Z</time>
      </trkpt>
      <trkpt lat="45.09169" lon="6.15839">
        <ele>1629</ele>
        <time>2024-08-09T12:23:18Z</time>
      </trkpt>
      <trkpt lat="45.09169" lon="6.15839">
        <ele>1628.8</ele>
        <time>2024-08-09T12:23:19Z</time>
      </trkpt>
      <trkpt lat="45.09169" lon="6.15839">
        <ele>1628.8</ele>
        <time>2024-08-09T12:23:20Z</time>
      </trkpt>
      <trkpt lat="45.09169" lon="6.15839">
        <ele>1628.8</ele>
        <time>2024-08-09T12:23:21Z</time>
      </trkpt>
      <trkpt lat="45.09169" lon="6.15839">
        <ele>1628.8</ele>
        <time>2024-08-09T12:23:22Z</time>
      </trkpt>
      <trkpt lat="45.09169" lon="6.15839">
        <ele>1628.8</ele>
        <time>2024-08-09T12:23:23Z</time>
      </trkpt>
      <trkpt lat="45.09169" lon="6.15839">
        <ele>1628.8</ele>
        <time>2024-08-09T12:23:24Z</time>
      </trkpt>
      <trkpt lat="45.09169" lon="6.15839">
        <ele>1628.8</ele>
        <time>2024-08-09T12:23:25Z</time>
      </trkpt>
      <trkpt lat="45.09169" lon="6.15839">
        <ele>1628.8</ele>
        <time>2024-08-09T12:23:26Z</time>
      </trkpt>
      <trkpt lat="45.09169" lon="6.15839">
        <ele>1628.8</ele>
        <time>2024-08-09T12:23:27Z</time>
      </trkpt>
      <trkpt lat="45.09169" lon="6.15839">
        <ele>1628.6</ele>
        <time>2024-08-09T12:23:28Z</time>
      </trkpt>
      <trkpt lat="45.09169" lon="6.15839">
        <ele>1628.8</ele>
        <time>2024-08-09T12:23:29Z</time>
      </trkpt>
      <trkpt lat="45.09169" lon="6.15839">
        <ele>1628.8</ele>
        <time>2024-08-09T12:23:30Z</time>
      </trkpt>
      <trkpt lat="45.09169" lon="6.15839">
        <ele>1628.8</ele>
        <time>2024-08-09T12:23:31Z</time>
      </trkpt>
      <trkpt lat="45.09169" lon="6.15839">
        <ele>1628.6</ele>
        <time>2024-08-09T12:23:32Z</time>
      </trkpt>
      <trkpt lat="45.09171" lon="6.15842">
        <ele>1628.6</ele>
        <time>2024-08-09T12:23:33Z</time>
      </trkpt>
      <trkpt lat="45.09171" lon="6.15842">
        <ele>1628.2</ele>
        <time>2024-08-09T12:23:34Z</time>
      </trkpt>
      <trkpt lat="45.09171" lon="6.15845">
        <ele>1627.8</ele>
        <time>2024-08-09T12:23:35Z</time>
      </trkpt>
      <trkpt lat="45.09171" lon="6.15845">
        <ele>1627.4</ele>
        <time>2024-08-09T12:23:36Z</time>
      </trkpt>
      <trkpt lat="45.0917" lon="6.15848">
        <ele>1627.4</ele>
        <time>2024-08-09T12:23:37Z</time>
      </trkpt>
      <trkpt lat="45.0917" lon="6.15848">
        <ele>1627</ele>
        <time>2024-08-09T12:23:38Z</time>
      </trkpt>
      <trkpt lat="45.0917" lon="6.15852">
        <ele>1627</ele>
        <time>2024-08-09T12:23:39Z</time>
      </trkpt>
      <trkpt lat="45.0917" lon="6.15852">
        <ele>1626.2</ele>
        <time>2024-08-09T12:23:40Z</time>
      </trkpt>
      <trkpt lat="45.09169" lon="6.15854">
        <ele>1625.8</ele>
        <time>2024-08-09T12:23:41Z</time>
      </trkpt>
      <trkpt lat="45.09169" lon="6.15854">
        <ele>1625.6</ele>
        <time>2024-08-09T12:23:42Z</time>
      </trkpt>
      <trkpt lat="45.09167" lon="6.15857">
        <ele>1625.4</ele>
        <time>2024-08-09T12:23:43Z</time>
      </trkpt>
      <trkpt lat="45.09167" lon="6.15857">
        <ele>1625</ele>
        <time>2024-08-09T12:23:44Z</time>
      </trkpt>
      <trkpt lat="45.09167" lon="6.1586">
        <ele>1625</ele>
        <time>2024-08-09T12:23:45Z</time>
      </trkpt>
      <trkpt lat="45.09167" lon="6.1586">
        <ele>1624.4</ele>
        <time>2024-08-09T12:23:46Z</time>
      </trkpt>
      <trkpt lat="45.09165" lon="6.15863">
        <ele>1624.2</ele>
        <time>2024-08-09T12:23:47Z</time>
      </trkpt>
      <trkpt lat="45.09165" lon="6.15863">
        <ele>1623.8</ele>
        <time>2024-08-09T12:23:48Z</time>
      </trkpt>
      <trkpt lat="45.09164" lon="6.15866">
        <ele>1623.8</ele>
        <time>2024-08-09T12:23:49Z</time>
      </trkpt>
      <trkpt lat="45.09164" lon="6.15866">
        <ele>1623.6</ele>
        <time>2024-08-09T12:23:50Z</time>
      </trkpt>
      <trkpt lat="45.09162" lon="6.15867">
        <ele>1623.6</ele>
        <time>2024-08-09T12:23:51Z</time>
      </trkpt>
      <trkpt lat="45.09162" lon="6.15867">
        <ele>1623.6</ele>
        <time>2024-08-09T12:23:52Z</time>
      </trkpt>
      <trkpt lat="45.09162" lon="6.15867">
        <ele>1623.4</ele>
        <time>2024-08-09T12:23:53Z</time>
      </trkpt>
      <trkpt lat="45.09158" lon="6.15869">
        <ele>1623.4</ele>
        <time>2024-08-09T12:23:54Z</time>
      </trkpt>
      <trkpt lat="45.09158" lon="6.15869">
        <ele>1623.2</ele>
        <time>2024-08-09T12:23:55Z</time>
      </trkpt>
      <trkpt lat="45.09158" lon="6.15869">
        <ele>1623</ele>
        <time>2024-08-09T12:23:56Z</time>
      </trkpt>
      <trkpt lat="45.09157" lon="6.15871">
        <ele>1622.8</ele>
        <time>2024-08-09T12:23:57Z</time>
      </trkpt>
      <trkpt lat="45.09157" lon="6.15871">
        <ele>1622.4</ele>
        <time>2024-08-09T12:23:58Z</time>
      </trkpt>
      <trkpt lat="45.09157" lon="6.15871">
        <ele>1622.2</ele>
        <time>2024-08-09T12:23:59Z</time>
      </trkpt>
      <trkpt lat="45.09157" lon="6.15871">
        <ele>1622.2</ele>
        <time>2024-08-09T12:24:00Z</time>
      </trkpt>
      <trkpt lat="45.09155" lon="6.15872">
        <ele>1622.2</ele>
        <time>2024-08-09T12:24:01Z</time>
      </trkpt>
      <trkpt lat="45.09155" lon="6.15872">
        <ele>1621.6</ele>
        <time>2024-08-09T12:24:02Z</time>
      </trkpt>
      <trkpt lat="45.09155" lon="6.15872">
        <ele>1621.6</ele>
        <time>2024-08-09T12:24:03Z</time>
      </trkpt>
      <trkpt lat="45.09153" lon="6.15874">
        <ele>1621.2</ele>
        <time>2024-08-09T12:24:04Z</time>
      </trkpt>
      <trkpt lat="45.09153" lon="6.15874">
        <ele>1621</ele>
        <time>2024-08-09T12:24:05Z</time>
      </trkpt>
      <trkpt lat="45.09153" lon="6.15874">
        <ele>1620.8</ele>
        <time>2024-08-09T12:24:06Z</time>
      </trkpt>
      <trkpt lat="45.09153" lon="6.15874">
        <ele>1620.4</ele>
        <time>2024-08-09T12:24:07Z</time>
      </trkpt>
      <trkpt lat="45.09153" lon="6.15874">
        <ele>1620.4</ele>
        <time>2024-08-09T12:24:08Z</time>
      </trkpt>
      <trkpt lat="45.09151" lon="6.15876">
        <ele>1621.2</ele>
        <time>2024-08-09T12:24:09Z</time>
      </trkpt>
      <trkpt lat="45.09151" lon="6.15876">
        <ele>1621.6</ele>
        <time>2024-08-09T12:24:10Z</time>
      </trkpt>
      <trkpt lat="45.09151" lon="6.15876">
        <ele>1621.6</ele>
        <time>2024-08-09T12:24:11Z</time>
      </trkpt>
      <trkpt lat="45.09149" lon="6.15878">
        <ele>1621.4</ele>
        <time>2024-08-09T12:24:12Z</time>
      </trkpt>
      <trkpt lat="45.09149" lon="6.15878">
        <ele>1621.4</ele>
        <time>2024-08-09T12:24:13Z</time>
      </trkpt>
      <trkpt lat="45.09149" lon="6.15878">
        <ele>1621.8</ele>
        <time>2024-08-09T12:24:14Z</time>
      </trkpt>
      <trkpt lat="45.0915" lon="6.15881">
        <ele>1621.8</ele>
        <time>2024-08-09T12:24:15Z</time>
      </trkpt>
      <trkpt lat="45.0915" lon="6.15881">
        <ele>1621.6</ele>
        <time>2024-08-09T12:24:16Z</time>
      </trkpt>
      <trkpt lat="45.0915" lon="6.15881">
        <ele>1621.6</ele>
        <time>2024-08-09T12:24:17Z</time>
      </trkpt>
      <trkpt lat="45.0915" lon="6.15884">
        <ele>1621.6</ele>
        <time>2024-08-09T12:24:18Z</time>
      </trkpt>
      <trkpt lat="45.0915" lon="6.15884">
        <ele>1621.2</ele>
        <time>2024-08-09T12:24:19Z</time>
      </trkpt>
      <trkpt lat="45.09149" lon="6.15886">
        <ele>1620.6</ele>
        <time>2024-08-09T12:24:20Z</time>
      </trkpt>
      <trkpt lat="45.09149" lon="6.15886">
        <ele>1620.6</ele>
        <time>2024-08-09T12:24:21Z</time>
      </trkpt>
      <trkpt lat="45.09149" lon="6.15886">
        <ele>1620.4</ele>
        <time>2024-08-09T12:24:22Z</time>
      </trkpt>
      <trkpt lat="45.09149" lon="6.15886">
        <ele>1620.2</ele>
        <time>2024-08-09T12:24:23Z</time>
      </trkpt>
      <trkpt lat="45.09149" lon="6.15889">
        <ele>1620.2</ele>
        <time>2024-08-09T12:24:24Z</time>
      </trkpt>
      <trkpt lat="45.09149" lon="6.15889">
        <ele>1620</ele>
        <time>2024-08-09T12:24:25Z</time>
      </trkpt>
      <trkpt lat="45.09149" lon="6.15889">
        <ele>1619.6</ele>
        <time>2024-08-09T12:24:26Z</time>
      </trkpt>
      <trkpt lat="45.0915" lon="6.15892">
        <ele>1619.2</ele>
        <time>2024-08-09T12:24:27Z</time>
      </trkpt>
      <trkpt lat="45.0915" lon="6.15892">
        <ele>1618.8</ele>
        <time>2024-08-09T12:24:28Z</time>
      </trkpt>
      <trkpt lat="45.0915" lon="6.15892">
        <ele>1618.8</ele>
        <time>2024-08-09T12:24:29Z</time>
      </trkpt>
      <trkpt lat="45.09149" lon="6.15894">
        <ele>1618.2</ele>
        <time>2024-08-09T12:24:30Z</time>
      </trkpt>
      <trkpt lat="45.09149" lon="6.15894">
        <ele>1618.2</ele>
        <time>2024-08-09T12:24:31Z</time>
      </trkpt>
      <trkpt lat="45.09149" lon="6.15894">
        <ele>1618</ele>
        <time>2024-08-09T12:24:32Z</time>
      </trkpt>
      <trkpt lat="45.09149" lon="6.15897">
        <ele>1617.6</ele>
        <time>2024-08-09T12:24:33Z</time>
      </trkpt>
      <trkpt lat="45.09149" lon="6.15897">
        <ele>1617.4</ele>
        <time>2024-08-09T12:24:34Z</time>
      </trkpt>
      <trkpt lat="45.09149" lon="6.15897">
        <ele>1617.4</ele>
        <time>2024-08-09T12:24:35Z</time>
      </trkpt>
      <trkpt lat="45.09149" lon="6.159">
        <ele>1617.2</ele>
        <time>2024-08-09T12:24:36Z</time>
      </trkpt>
      <trkpt lat="45.09149" lon="6.159">
        <ele>1616.8</ele>
        <time>2024-08-09T12:24:37Z</time>
      </trkpt>
      <trkpt lat="45.09149" lon="6.15903">
        <ele>1616.4</ele>
        <time>2024-08-09T12:24:38Z</time>
      </trkpt>
      <trkpt lat="45.09149" lon="6.15903">
        <ele>1616.2</ele>
        <time>2024-08-09T12:24:39Z</time>
      </trkpt>
      <trkpt lat="45.09149" lon="6.15906">
        <ele>1616.2</ele>
        <time>2024-08-09T12:24:40Z</time>
      </trkpt>
      <trkpt lat="45.09149" lon="6.15906">
        <ele>1616.2</ele>
        <time>2024-08-09T12:24:41Z</time>
      </trkpt>
      <trkpt lat="45.09149" lon="6.15909">
        <ele>1616</ele>
        <time>2024-08-09T12:24:42Z</time>
      </trkpt>
      <trkpt lat="45.09149" lon="6.15909">
        <ele>1615.8</ele>
        <time>2024-08-09T12:24:43Z</time>
      </trkpt>
      <trkpt lat="45.09149" lon="6.15912">
        <ele>1615.8</ele>
        <time>2024-08-09T12:24:44Z</time>
      </trkpt>
      <trkpt lat="45.09149" lon="6.15912">
        <ele>1615.6</ele>
        <time>2024-08-09T12:24:45Z</time>
      </trkpt>
      <trkpt lat="45.09149" lon="6.15912">
        <ele>1615.4</ele>
        <time>2024-08-09T12:24:46Z</time>
      </trkpt>
      <trkpt lat="45.09149" lon="6.15914">
        <ele>1615.2</ele>
        <time>2024-08-09T12:24:47Z</time>
      </trkpt>
      <trkpt lat="45.09149" lon="6.15914">
        <ele>1615.2</ele>
        <time>2024-08-09T12:24:48Z</time>
      </trkpt>
      <trkpt lat="45.09149" lon="6.15914">
        <ele>1615</ele>
        <time>2024-08-09T12:24:49Z</time>
      </trkpt>
      <trkpt lat="45.09148" lon="6.15918">
        <ele>1614.8</ele>
        <time>2024-08-09T12:24:50Z</time>
      </trkpt>
      <trkpt lat="45.09148" lon="6.15918">
        <ele>1614.6</ele>
        <time>2024-08-09T12:24:51Z</time>
      </trkpt>
      <trkpt lat="45.09147" lon="6.15921">
        <ele>1614.6</ele>
        <time>2024-08-09T12:24:52Z</time>
      </trkpt>
      <trkpt lat="45.09147" lon="6.15921">
        <ele>1614.2</ele>
        <time>2024-08-09T12:24:53Z</time>
      </trkpt>
      <trkpt lat="45.09147" lon="6.15921">
        <ele>1614</ele>
        <time>2024-08-09T12:24:54Z</time>
      </trkpt>
      <trkpt lat="45.09146" lon="6.15924">
        <ele>1613.8</ele>
        <time>2024-08-09T12:24:55Z</time>
      </trkpt>
      <trkpt lat="45.09146" lon="6.15924">
        <ele>1613.6</ele>
        <time>2024-08-09T12:24:56Z</time>
      </trkpt>
      <trkpt lat="45.09146" lon="6.15924">
        <ele>1613.4</ele>
        <time>2024-08-09T12:24:57Z</time>
      </trkpt>
      <trkpt lat="45.09145" lon="6.15927">
        <ele>1613.2</ele>
        <time>2024-08-09T12:24:58Z</time>
      </trkpt>
      <trkpt lat="45.09145" lon="6.15927">
        <ele>1613</ele>
        <time>2024-08-09T12:24:59Z</time>
      </trkpt>
      <trkpt lat="45.09144" lon="6.1593">
        <ele>1613</ele>
        <time>2024-08-09T12:25:00Z</time>
      </trkpt>
      <trkpt lat="45.09144" lon="6.1593">
        <ele>1612.8</ele>
        <time>2024-08-09T12:25:01Z</time>
      </trkpt>
      <trkpt lat="45.09144" lon="6.15933">
        <ele>1612.2</ele>
        <time>2024-08-09T12:25:02Z</time>
      </trkpt>
      <trkpt lat="45.09144" lon="6.15933">
        <ele>1612.2</ele>
        <time>2024-08-09T12:25:03Z</time>
      </trkpt>
      <trkpt lat="45.09143" lon="6.15935">
        <ele>1611.8</ele>
        <time>2024-08-09T12:25:04Z</time>
      </trkpt>
      <trkpt lat="45.09143" lon="6.15935">
        <ele>1611.6</ele>
        <time>2024-08-09T12:25:05Z</time>
      </trkpt>
      <trkpt lat="45.09142" lon="6.15938">
        <ele>1611.6</ele>
        <time>2024-08-09T12:25:06Z</time>
      </trkpt>
      <trkpt lat="45.09142" lon="6.15938">
        <ele>1611.4</ele>
        <time>2024-08-09T12:25:07Z</time>
      </trkpt>
      <trkpt lat="45.09142" lon="6.15938">
        <ele>1611.2</ele>
        <time>2024-08-09T12:25:08Z</time>
      </trkpt>
      <trkpt lat="45.09141" lon="6.15941">
        <ele>1610.8</ele>
        <time>2024-08-09T12:25:09Z</time>
      </trkpt>
      <trkpt lat="45.09141" lon="6.15941">
        <ele>1610.4</ele>
        <time>2024-08-09T12:25:10Z</time>
      </trkpt>
      <trkpt lat="45.09142" lon="6.15943">
        <ele>1610.2</ele>
        <time>2024-08-09T12:25:11Z</time>
      </trkpt>
      <trkpt lat="45.09142" lon="6.15943">
        <ele>1610.2</ele>
        <time>2024-08-09T12:25:12Z</time>
      </trkpt>
      <trkpt lat="45.09142" lon="6.15943">
        <ele>1609.6</ele>
        <time>2024-08-09T12:25:13Z</time>
      </trkpt>
      <trkpt lat="45.09141" lon="6.15946">
        <ele>1609.4</ele>
        <time>2024-08-09T12:25:14Z</time>
      </trkpt>
      <trkpt lat="45.09141" lon="6.15946">
        <ele>1609</ele>
        <time>2024-08-09T12:25:15Z</time>
      </trkpt>
      <trkpt lat="45.09141" lon="6.15949">
        <ele>1608.6</ele>
        <time>2024-08-09T12:25:16Z</time>
      </trkpt>
      <trkpt lat="45.09141" lon="6.15949">
        <ele>1608.4</ele>
        <time>2024-08-09T12:25:17Z</time>
      </trkpt>
      <trkpt lat="45.09141" lon="6.15949">
        <ele>1608.2</ele>
        <time>2024-08-09T12:25:18Z</time>
      </trkpt>
      <trkpt lat="45.0914" lon="6.15952">
        <ele>1607.6</ele>
        <time>2024-08-09T12:25:19Z</time>
      </trkpt>
      <trkpt lat="45.0914" lon="6.15952">
        <ele>1607.6</ele>
        <time>2024-08-09T12:25:20Z</time>
      </trkpt>
      <trkpt lat="45.0914" lon="6.15952">
        <ele>1607.4</ele>
        <time>2024-08-09T12:25:21Z</time>
      </trkpt>
      <trkpt lat="45.09139" lon="6.15955">
        <ele>1607.4</ele>
        <time>2024-08-09T12:25:22Z</time>
      </trkpt>
      <trkpt lat="45.09139" lon="6.15955">
        <ele>1607.4</ele>
        <time>2024-08-09T12:25:23Z</time>
      </trkpt>
      <trkpt lat="45.09139" lon="6.15955">
        <ele>1607.2</ele>
        <time>2024-08-09T12:25:24Z</time>
      </trkpt>
      <trkpt lat="45.09139" lon="6.15955">
        <ele>1606.6</ele>
        <time>2024-08-09T12:25:25Z</time>
      </trkpt>
      <trkpt lat="45.09139" lon="6.15958">
        <ele>1606.2</ele>
        <time>2024-08-09T12:25:26Z</time>
      </trkpt>
      <trkpt lat="45.09139" lon="6.15958">
        <ele>1606</ele>
        <time>2024-08-09T12:25:27Z</time>
      </trkpt>
      <trkpt lat="45.09137" lon="6.15961">
        <ele>1605.6</ele>
        <time>2024-08-09T12:25:28Z</time>
      </trkpt>
      <trkpt lat="45.09137" lon="6.15961">
        <ele>1605.6</ele>
        <time>2024-08-09T12:25:29Z</time>
      </trkpt>
      <trkpt lat="45.09137" lon="6.15961">
        <ele>1605.4</ele>
        <time>2024-08-09T12:25:30Z</time>
      </trkpt>
      <trkpt lat="45.09136" lon="6.15964">
        <ele>1605.2</ele>
        <time>2024-08-09T12:25:31Z</time>
      </trkpt>
      <trkpt lat="45.09136" lon="6.15964">
        <ele>1605</ele>
        <time>2024-08-09T12:25:32Z</time>
      </trkpt>
      <trkpt lat="45.09136" lon="6.15964">
        <ele>1604.6</ele>
        <time>2024-08-09T12:25:33Z</time>
      </trkpt>
      <trkpt lat="45.09135" lon="6.15967">
        <ele>1604.6</ele>
        <time>2024-08-09T12:25:34Z</time>
      </trkpt>
      <trkpt lat="45.09135" lon="6.15967">
        <ele>1604.4</ele>
        <time>2024-08-09T12:25:35Z</time>
      </trkpt>
      <trkpt lat="45.09135" lon="6.15969">
        <ele>1604.4</ele>
        <time>2024-08-09T12:25:36Z</time>
      </trkpt>
      <trkpt lat="45.09135" lon="6.15969">
        <ele>1604</ele>
        <time>2024-08-09T12:25:37Z</time>
      </trkpt>
      <trkpt lat="45.09135" lon="6.15972">
        <ele>1603.6</ele>
        <time>2024-08-09T12:25:38Z</time>
      </trkpt>
      <trkpt lat="45.09135" lon="6.15972">
        <ele>1603.4</ele>
        <time>2024-08-09T12:25:39Z</time>
      </trkpt>
      <trkpt lat="45.09135" lon="6.15972">
        <ele>1603</ele>
        <time>2024-08-09T12:25:40Z</time>
      </trkpt>
      <trkpt lat="45.09134" lon="6.15975">
        <ele>1602.6</ele>
        <time>2024-08-09T12:25:41Z</time>
      </trkpt>
      <trkpt lat="45.09134" lon="6.15975">
        <ele>1602.6</ele>
        <time>2024-08-09T12:25:42Z</time>
      </trkpt>
      <trkpt lat="45.09134" lon="6.15975">
        <ele>1602.4</ele>
        <time>2024-08-09T12:25:43Z</time>
      </trkpt>
      <trkpt lat="45.09134" lon="6.15975">
        <ele>1602</ele>
        <time>2024-08-09T12:25:44Z</time>
      </trkpt>
      <trkpt lat="45.09133" lon="6.15979">
        <ele>1601.6</ele>
        <time>2024-08-09T12:25:45Z</time>
      </trkpt>
      <trkpt lat="45.09133" lon="6.15979">
        <ele>1601.4</ele>
        <time>2024-08-09T12:25:46Z</time>
      </trkpt>
      <trkpt lat="45.09133" lon="6.15979">
        <ele>1601.2</ele>
        <time>2024-08-09T12:25:47Z</time>
      </trkpt>
      <trkpt lat="45.09132" lon="6.15982">
        <ele>1600.8</ele>
        <time>2024-08-09T12:25:48Z</time>
      </trkpt>
      <trkpt lat="45.09132" lon="6.15982">
        <ele>1600.8</ele>
        <time>2024-08-09T12:25:49Z</time>
      </trkpt>
      <trkpt lat="45.09132" lon="6.15982">
        <ele>1600.4</ele>
        <time>2024-08-09T12:25:50Z</time>
      </trkpt>
      <trkpt lat="45.09131" lon="6.15984">
        <ele>1600</ele>
        <time>2024-08-09T12:25:51Z</time>
      </trkpt>
      <trkpt lat="45.09131" lon="6.15984">
        <ele>1599.8</ele>
        <time>2024-08-09T12:25:52Z</time>
      </trkpt>
      <trkpt lat="45.09131" lon="6.15984">
        <ele>1599.6</ele>
        <time>2024-08-09T12:25:53Z</time>
      </trkpt>
      <trkpt lat="45.09131" lon="6.15984">
        <ele>1599.4</ele>
        <time>2024-08-09T12:25:54Z</time>
      </trkpt>
      <trkpt lat="45.09131" lon="6.15988">
        <ele>1599.4</ele>
        <time>2024-08-09T12:25:55Z</time>
      </trkpt>
      <trkpt lat="45.09131" lon="6.15988">
        <ele>1599</ele>
        <time>2024-08-09T12:25:56Z</time>
      </trkpt>
      <trkpt lat="45.09131" lon="6.15988">
        <ele>1598.8</ele>
        <time>2024-08-09T12:25:57Z</time>
      </trkpt>
      <trkpt lat="45.09131" lon="6.15991">
        <ele>1598.4</ele>
        <time>2024-08-09T12:25:58Z</time>
      </trkpt>
      <trkpt lat="45.09131" lon="6.15991">
        <ele>1598</ele>
        <time>2024-08-09T12:25:59Z</time>
      </trkpt>
      <trkpt lat="45.09131" lon="6.15991">
        <ele>1598</ele>
        <time>2024-08-09T12:26:00Z</time>
      </trkpt>
      <trkpt lat="45.09129" lon="6.15994">
        <ele>1597.4</ele>
        <time>2024-08-09T12:26:01Z</time>
      </trkpt>
      <trkpt lat="45.09129" lon="6.15994">
        <ele>1596.4</ele>
        <time>2024-08-09T12:26:02Z</time>
      </trkpt>
      <trkpt lat="45.09129" lon="6.15994">
        <ele>1596.4</ele>
        <time>2024-08-09T12:26:03Z</time>
      </trkpt>
      <trkpt lat="45.09128" lon="6.15997">
        <ele>1596.2</ele>
        <time>2024-08-09T12:26:04Z</time>
      </trkpt>
      <trkpt lat="45.09128" lon="6.15997">
        <ele>1596</ele>
        <time>2024-08-09T12:26:05Z</time>
      </trkpt>
      <trkpt lat="45.09127" lon="6.16">
        <ele>1595.8</ele>
        <time>2024-08-09T12:26:06Z</time>
      </trkpt>
      <trkpt lat="45.09127" lon="6.16">
        <ele>1595.4</ele>
        <time>2024-08-09T12:26:07Z</time>
      </trkpt>
      <trkpt lat="45.09127" lon="6.16">
        <ele>1595</ele>
        <time>2024-08-09T12:26:08Z</time>
      </trkpt>
      <trkpt lat="45.09126" lon="6.16003">
        <ele>1594.8</ele>
        <time>2024-08-09T12:26:09Z</time>
      </trkpt>
      <trkpt lat="45.09126" lon="6.16003">
        <ele>1594.6</ele>
        <time>2024-08-09T12:26:10Z</time>
      </trkpt>
      <trkpt lat="45.09126" lon="6.16003">
        <ele>1594</ele>
        <time>2024-08-09T12:26:11Z</time>
      </trkpt>
      <trkpt lat="45.09125" lon="6.16006">
        <ele>1593.8</ele>
        <time>2024-08-09T12:26:12Z</time>
      </trkpt>
      <trkpt lat="45.09125" lon="6.16006">
        <ele>1593.8</ele>
        <time>2024-08-09T12:26:13Z</time>
      </trkpt>
      <trkpt lat="45.09124" lon="6.16009">
        <ele>1593.6</ele>
        <time>2024-08-09T12:26:14Z</time>
      </trkpt>
      <trkpt lat="45.09124" lon="6.16009">
        <ele>1593.2</ele>
        <time>2024-08-09T12:26:15Z</time>
      </trkpt>
      <trkpt lat="45.09124" lon="6.16009">
        <ele>1592.8</ele>
        <time>2024-08-09T12:26:16Z</time>
      </trkpt>
      <trkpt lat="45.09122" lon="6.16012">
        <ele>1592.2</ele>
        <time>2024-08-09T12:26:17Z</time>
      </trkpt>
      <trkpt lat="45.09122" lon="6.16012">
        <ele>1592</ele>
        <time>2024-08-09T12:26:18Z</time>
      </trkpt>
      <trkpt lat="45.09122" lon="6.16012">
        <ele>1592</ele>
        <time>2024-08-09T12:26:19Z</time>
      </trkpt>
      <trkpt lat="45.09122" lon="6.16016">
        <ele>1591.6</ele>
        <time>2024-08-09T12:26:20Z</time>
      </trkpt>
      <trkpt lat="45.09122" lon="6.16016">
        <ele>1591.2</ele>
        <time>2024-08-09T12:26:21Z</time>
      </trkpt>
      <trkpt lat="45.09122" lon="6.16016">
        <ele>1591</ele>
        <time>2024-08-09T12:26:22Z</time>
      </trkpt>
      <trkpt lat="45.0912" lon="6.16019">
        <ele>1590.4</ele>
        <time>2024-08-09T12:26:23Z</time>
      </trkpt>
      <trkpt lat="45.0912" lon="6.16019">
        <ele>1590</ele>
        <time>2024-08-09T12:26:24Z</time>
      </trkpt>
      <trkpt lat="45.0912" lon="6.16019">
        <ele>1589.8</ele>
        <time>2024-08-09T12:26:25Z</time>
      </trkpt>
      <trkpt lat="45.09119" lon="6.16022">
        <ele>1589.4</ele>
        <time>2024-08-09T12:26:26Z</time>
      </trkpt>
      <trkpt lat="45.09119" lon="6.16022">
        <ele>1588.8</ele>
        <time>2024-08-09T12:26:27Z</time>
      </trkpt>
      <trkpt lat="45.09119" lon="6.16025">
        <ele>1588.4</ele>
        <time>2024-08-09T12:26:28Z</time>
      </trkpt>
      <trkpt lat="45.09119" lon="6.16025">
        <ele>1588.2</ele>
        <time>2024-08-09T12:26:29Z</time>
      </trkpt>
      <trkpt lat="45.09118" lon="6.16027">
        <ele>1587.8</ele>
        <time>2024-08-09T12:26:30Z</time>
      </trkpt>
      <trkpt lat="45.09118" lon="6.16027">
        <ele>1587.4</ele>
        <time>2024-08-09T12:26:31Z</time>
      </trkpt>
      <trkpt lat="45.09117" lon="6.16029">
        <ele>1587.4</ele>
        <time>2024-08-09T12:26:32Z</time>
      </trkpt>
      <trkpt lat="45.09117" lon="6.16029">
        <ele>1586.8</ele>
        <time>2024-08-09T12:26:33Z</time>
      </trkpt>
      <trkpt lat="45.09116" lon="6.16032">
        <ele>1586.4</ele>
        <time>2024-08-09T12:26:34Z</time>
      </trkpt>
      <trkpt lat="45.09116" lon="6.16032">
        <ele>1586</ele>
        <time>2024-08-09T12:26:35Z</time>
      </trkpt>
      <trkpt lat="45.09116" lon="6.16035">
        <ele>1585.8</ele>
        <time>2024-08-09T12:26:36Z</time>
      </trkpt>
      <trkpt lat="45.09116" lon="6.16035">
        <ele>1585.4</ele>
        <time>2024-08-09T12:26:37Z</time>
      </trkpt>
      <trkpt lat="45.09115" lon="6.16037">
        <ele>1585.2</ele>
        <time>2024-08-09T12:26:38Z</time>
      </trkpt>
      <trkpt lat="45.09115" lon="6.16037">
        <ele>1585</ele>
        <time>2024-08-09T12:26:39Z</time>
      </trkpt>
      <trkpt lat="45.09114" lon="6.1604">
        <ele>1584.6</ele>
        <time>2024-08-09T12:26:40Z</time>
      </trkpt>
      <trkpt lat="45.09114" lon="6.1604">
        <ele>1584.2</ele>
        <time>2024-08-09T12:26:41Z</time>
      </trkpt>
      <trkpt lat="45.09113" lon="6.16043">
        <ele>1584</ele>
        <time>2024-08-09T12:26:42Z</time>
      </trkpt>
      <trkpt lat="45.09113" lon="6.16043">
        <ele>1583.4</ele>
        <time>2024-08-09T12:26:43Z</time>
      </trkpt>
      <trkpt lat="45.09112" lon="6.16045">
        <ele>1583.2</ele>
        <time>2024-08-09T12:26:44Z</time>
      </trkpt>
      <trkpt lat="45.09112" lon="6.16045">
        <ele>1582.8</ele>
        <time>2024-08-09T12:26:45Z</time>
      </trkpt>
      <trkpt lat="45.09111" lon="6.16047">
        <ele>1582.6</ele>
        <time>2024-08-09T12:26:46Z</time>
      </trkpt>
      <trkpt lat="45.09111" lon="6.16047">
        <ele>1582.4</ele>
        <time>2024-08-09T12:26:47Z</time>
      </trkpt>
      <trkpt lat="45.0911" lon="6.16049">
        <ele>1582.4</ele>
        <time>2024-08-09T12:26:48Z</time>
      </trkpt>
      <trkpt lat="45.0911" lon="6.16049">
        <ele>1582</ele>
        <time>2024-08-09T12:26:49Z</time>
      </trkpt>
      <trkpt lat="45.09109" lon="6.16052">
        <ele>1581.8</ele>
        <time>2024-08-09T12:26:50Z</time>
      </trkpt>
      <trkpt lat="45.09109" lon="6.16052">
        <ele>1581.6</ele>
        <time>2024-08-09T12:26:51Z</time>
      </trkpt>
      <trkpt lat="45.09109" lon="6.16052">
        <ele>1580.8</ele>
        <time>2024-08-09T12:26:52Z</time>
      </trkpt>
      <trkpt lat="45.09109" lon="6.16052">
        <ele>1580.6</ele>
        <time>2024-08-09T12:26:53Z</time>
      </trkpt>
      <trkpt lat="45.09109" lon="6.16052">
        <ele>1580.6</ele>
        <time>2024-08-09T12:26:54Z</time>
      </trkpt>
      <trkpt lat="45.09109" lon="6.16052">
        <ele>1580.4</ele>
        <time>2024-08-09T12:26:55Z</time>
      </trkpt>
      <trkpt lat="45.09109" lon="6.16052">
        <ele>1580.4</ele>
        <time>2024-08-09T12:26:56Z</time>
      </trkpt>
      <trkpt lat="45.09109" lon="6.16052">
        <ele>1580.4</ele>
        <time>2024-08-09T12:26:57Z</time>
      </trkpt>
      <trkpt lat="45.09109" lon="6.16052">
        <ele>1580.2</ele>
        <time>2024-08-09T12:26:58Z</time>
      </trkpt>
      <trkpt lat="45.09109" lon="6.16052">
        <ele>1580.2</ele>
        <time>2024-08-09T12:26:59Z</time>
      </trkpt>
      <trkpt lat="45.09109" lon="6.16052">
        <ele>1580.4</ele>
        <time>2024-08-09T12:27:00Z</time>
      </trkpt>
      <trkpt lat="45.09109" lon="6.16052">
        <ele>1580.4</ele>
        <time>2024-08-09T12:27:01Z</time>
      </trkpt>
      <trkpt lat="45.09109" lon="6.16052">
        <ele>1580.6</ele>
        <time>2024-08-09T12:27:02Z</time>
      </trkpt>
      <trkpt lat="45.09109" lon="6.16052">
        <ele>1580.6</ele>
        <time>2024-08-09T12:27:03Z</time>
      </trkpt>
      <trkpt lat="45.09109" lon="6.16052">
        <ele>1580.6</ele>
        <time>2024-08-09T12:27:04Z</time>
      </trkpt>
      <trkpt lat="45.09109" lon="6.16052">
        <ele>1580.6</ele>
        <time>2024-08-09T12:27:05Z</time>
      </trkpt>
      <trkpt lat="45.09109" lon="6.16052">
        <ele>1580.6</ele>
        <time>2024-08-09T12:27:06Z</time>
      </trkpt>
      <trkpt lat="45.09109" lon="6.16052">
        <ele>1580.6</ele>
        <time>2024-08-09T12:27:07Z</time>
      </trkpt>
      <trkpt lat="45.09107" lon="6.16053">
        <ele>1580.2</ele>
        <time>2024-08-09T12:27:08Z</time>
      </trkpt>
      <trkpt lat="45.09107" lon="6.16053">
        <ele>1580</ele>
        <time>2024-08-09T12:27:09Z</time>
      </trkpt>
      <trkpt lat="45.09104" lon="6.16055">
        <ele>1580</ele>
        <time>2024-08-09T12:27:10Z</time>
      </trkpt>
      <trkpt lat="45.09104" lon="6.16055">
        <ele>1579.8</ele>
        <time>2024-08-09T12:27:11Z</time>
      </trkpt>
      <trkpt lat="45.09101" lon="6.16058">
        <ele>1579.8</ele>
        <time>2024-08-09T12:27:12Z</time>
      </trkpt>
      <trkpt lat="45.09101" lon="6.16058">
        <ele>1580.2</ele>
        <time>2024-08-09T12:27:13Z</time>
      </trkpt>
      <trkpt lat="45.091" lon="6.1606">
        <ele>1580.6</ele>
        <time>2024-08-09T12:27:14Z</time>
      </trkpt>
      <trkpt lat="45.091" lon="6.1606">
        <ele>1580.8</ele>
        <time>2024-08-09T12:27:15Z</time>
      </trkpt>
      <trkpt lat="45.091" lon="6.1606">
        <ele>1581</ele>
        <time>2024-08-09T12:27:16Z</time>
      </trkpt>
      <trkpt lat="45.09098" lon="6.16062">
        <ele>1581</ele>
        <time>2024-08-09T12:27:17Z</time>
      </trkpt>
      <trkpt lat="45.09098" lon="6.16062">
        <ele>1581.2</ele>
        <time>2024-08-09T12:27:18Z</time>
      </trkpt>
      <trkpt lat="45.09098" lon="6.16062">
        <ele>1581.4</ele>
        <time>2024-08-09T12:27:19Z</time>
      </trkpt>
      <trkpt lat="45.09096" lon="6.16064">
        <ele>1581.4</ele>
        <time>2024-08-09T12:27:20Z</time>
      </trkpt>
      <trkpt lat="45.09096" lon="6.16064">
        <ele>1581.4</ele>
        <time>2024-08-09T12:27:21Z</time>
      </trkpt>
      <trkpt lat="45.09096" lon="6.16064">
        <ele>1581.8</ele>
        <time>2024-08-09T12:27:22Z</time>
      </trkpt>
      <trkpt lat="45.09093" lon="6.16063">
        <ele>1582</ele>
        <time>2024-08-09T12:27:23Z</time>
      </trkpt>
      <trkpt lat="45.09093" lon="6.16063">
        <ele>1582.2</ele>
        <time>2024-08-09T12:27:24Z</time>
      </trkpt>
      <trkpt lat="45.09095" lon="6.16061">
        <ele>1582.2</ele>
        <time>2024-08-09T12:27:25Z</time>
      </trkpt>
      <trkpt lat="45.09095" lon="6.16061">
        <ele>1582.2</ele>
        <time>2024-08-09T12:27:26Z</time>
      </trkpt>
      <trkpt lat="45.09095" lon="6.16061">
        <ele>1582</ele>
        <time>2024-08-09T12:27:27Z</time>
      </trkpt>
      <trkpt lat="45.09096" lon="6.16057">
        <ele>1581.8</ele>
        <time>2024-08-09T12:27:28Z</time>
      </trkpt>
      <trkpt lat="45.09096" lon="6.16057">
        <ele>1581.4</ele>
        <time>2024-08-09T12:27:29Z</time>
      </trkpt>
      <trkpt lat="45.09098" lon="6.16055">
        <ele>1581.2</ele>
        <time>2024-08-09T12:27:30Z</time>
      </trkpt>
      <trkpt lat="45.09098" lon="6.16055">
        <ele>1581</ele>
        <time>2024-08-09T12:27:31Z</time>
      </trkpt>
      <trkpt lat="45.091" lon="6.16052">
        <ele>1580.4</ele>
        <time>2024-08-09T12:27:32Z</time>
      </trkpt>
      <trkpt lat="45.091" lon="6.16052">
        <ele>1580.2</ele>
        <time>2024-08-09T12:27:33Z</time>
      </trkpt>
      <trkpt lat="45.09101" lon="6.1605">
        <ele>1580</ele>
        <time>2024-08-09T12:27:34Z</time>
      </trkpt>
      <trkpt lat="45.09101" lon="6.1605">
        <ele>1580</ele>
        <time>2024-08-09T12:27:35Z</time>
      </trkpt>
      <trkpt lat="45.09101" lon="6.1605">
        <ele>1579.8</ele>
        <time>2024-08-09T12:27:36Z</time>
      </trkpt>
      <trkpt lat="45.09104" lon="6.1605">
        <ele>1579.8</ele>
        <time>2024-08-09T12:27:37Z</time>
      </trkpt>
      <trkpt lat="45.09104" lon="6.1605">
        <ele>1579.8</ele>
        <time>2024-08-09T12:27:38Z</time>
      </trkpt>
      <trkpt lat="45.09105" lon="6.16052">
        <ele>1579.4</ele>
        <time>2024-08-09T12:27:39Z</time>
      </trkpt>
      <trkpt lat="45.09105" lon="6.16052">
        <ele>1579</ele>
        <time>2024-08-09T12:27:40Z</time>
      </trkpt>
      <trkpt lat="45.09104" lon="6.16055">
        <ele>1579</ele>
        <time>2024-08-09T12:27:41Z</time>
      </trkpt>
      <trkpt lat="45.09104" lon="6.16055">
        <ele>1578.6</ele>
        <time>2024-08-09T12:27:42Z</time>
      </trkpt>
      <trkpt lat="45.09104" lon="6.16055">
        <ele>1578.4</ele>
        <time>2024-08-09T12:27:43Z</time>
      </trkpt>
      <trkpt lat="45.09104" lon="6.16058">
        <ele>1578</ele>
        <time>2024-08-09T12:27:44Z</time>
      </trkpt>
      <trkpt lat="45.09104" lon="6.16058">
        <ele>1577.6</ele>
        <time>2024-08-09T12:27:45Z</time>
      </trkpt>
      <trkpt lat="45.09103" lon="6.1606">
        <ele>1577.6</ele>
        <time>2024-08-09T12:27:46Z</time>
      </trkpt>
      <trkpt lat="45.09103" lon="6.1606">
        <ele>1577.2</ele>
        <time>2024-08-09T12:27:47Z</time>
      </trkpt>
      <trkpt lat="45.09103" lon="6.1606">
        <ele>1576.6</ele>
        <time>2024-08-09T12:27:48Z</time>
      </trkpt>
      <trkpt lat="45.09103" lon="6.1606">
        <ele>1576.4</ele>
        <time>2024-08-09T12:27:49Z</time>
      </trkpt>
      <trkpt lat="45.09103" lon="6.1606">
        <ele>1576</ele>
        <time>2024-08-09T12:27:50Z</time>
      </trkpt>
      <trkpt lat="45.09102" lon="6.16062">
        <ele>1576</ele>
        <time>2024-08-09T12:27:51Z</time>
      </trkpt>
      <trkpt lat="45.09102" lon="6.16062">
        <ele>1575.8</ele>
        <time>2024-08-09T12:27:52Z</time>
      </trkpt>
      <trkpt lat="45.09101" lon="6.16065">
        <ele>1575.4</ele>
        <time>2024-08-09T12:27:53Z</time>
      </trkpt>
      <trkpt lat="45.09101" lon="6.16065">
        <ele>1574.8</ele>
        <time>2024-08-09T12:27:54Z</time>
      </trkpt>
      <trkpt lat="45.09099" lon="6.16067">
        <ele>1574.6</ele>
        <time>2024-08-09T12:27:55Z</time>
      </trkpt>
      <trkpt lat="45.09099" lon="6.16067">
        <ele>1574.4</ele>
        <time>2024-08-09T12:27:56Z</time>
      </trkpt>
      <trkpt lat="45.09098" lon="6.16071">
        <ele>1574</ele>
        <time>2024-08-09T12:27:57Z</time>
      </trkpt>
      <trkpt lat="45.09098" lon="6.16071">
        <ele>1573.8</ele>
        <time>2024-08-09T12:27:58Z</time>
      </trkpt>
      <trkpt lat="45.09097" lon="6.16073">
        <ele>1573.8</ele>
        <time>2024-08-09T12:27:59Z</time>
      </trkpt>
      <trkpt lat="45.09097" lon="6.16073">
        <ele>1573.4</ele>
        <time>2024-08-09T12:28:00Z</time>
      </trkpt>
      <trkpt lat="45.09097" lon="6.16073">
        <ele>1572.8</ele>
        <time>2024-08-09T12:28:01Z</time>
      </trkpt>
      <trkpt lat="45.09097" lon="6.16077">
        <ele>1572.4</ele>
        <time>2024-08-09T12:28:02Z</time>
      </trkpt>
      <trkpt lat="45.09097" lon="6.16077">
        <ele>1572.4</ele>
        <time>2024-08-09T12:28:03Z</time>
      </trkpt>
      <trkpt lat="45.09097" lon="6.16077">
        <ele>1572.2</ele>
        <time>2024-08-09T12:28:04Z</time>
      </trkpt>
      <trkpt lat="45.09097" lon="6.16081">
        <ele>1571.6</ele>
        <time>2024-08-09T12:28:05Z</time>
      </trkpt>
      <trkpt lat="45.09097" lon="6.16081">
        <ele>1571.2</ele>
        <time>2024-08-09T12:28:06Z</time>
      </trkpt>
      <trkpt lat="45.09097" lon="6.16081">
        <ele>1570.6</ele>
        <time>2024-08-09T12:28:07Z</time>
      </trkpt>
      <trkpt lat="45.09097" lon="6.16084">
        <ele>1570.2</ele>
        <time>2024-08-09T12:28:08Z</time>
      </trkpt>
      <trkpt lat="45.09097" lon="6.16084">
        <ele>1570.2</ele>
        <time>2024-08-09T12:28:09Z</time>
      </trkpt>
      <trkpt lat="45.09097" lon="6.16084">
        <ele>1570</ele>
        <time>2024-08-09T12:28:10Z</time>
      </trkpt>
      <trkpt lat="45.09095" lon="6.16086">
        <ele>1569.6</ele>
        <time>2024-08-09T12:28:11Z</time>
      </trkpt>
      <trkpt lat="45.09095" lon="6.16086">
        <ele>1569.2</ele>
        <time>2024-08-09T12:28:12Z</time>
      </trkpt>
      <trkpt lat="45.09095" lon="6.16089">
        <ele>1568.8</ele>
        <time>2024-08-09T12:28:13Z</time>
      </trkpt>
      <trkpt lat="45.09095" lon="6.16089">
        <ele>1568.6</ele>
        <time>2024-08-09T12:28:14Z</time>
      </trkpt>
      <trkpt lat="45.09094" lon="6.16092">
        <ele>1568.6</ele>
        <time>2024-08-09T12:28:15Z</time>
      </trkpt>
      <trkpt lat="45.09094" lon="6.16092">
        <ele>1568</ele>
        <time>2024-08-09T12:28:16Z</time>
      </trkpt>
      <trkpt lat="45.09094" lon="6.16092">
        <ele>1567.6</ele>
        <time>2024-08-09T12:28:17Z</time>
      </trkpt>
      <trkpt lat="45.09093" lon="6.16096">
        <ele>1567.4</ele>
        <time>2024-08-09T12:28:18Z</time>
      </trkpt>
      <trkpt lat="45.09093" lon="6.16096">
        <ele>1567</ele>
        <time>2024-08-09T12:28:19Z</time>
      </trkpt>
      <trkpt lat="45.09093" lon="6.16098">
        <ele>1566.6</ele>
        <time>2024-08-09T12:28:20Z</time>
      </trkpt>
      <trkpt lat="45.09093" lon="6.16098">
        <ele>1566.4</ele>
        <time>2024-08-09T12:28:21Z</time>
      </trkpt>
      <trkpt lat="45.09093" lon="6.16101">
        <ele>1565.8</ele>
        <time>2024-08-09T12:28:22Z</time>
      </trkpt>
      <trkpt lat="45.09093" lon="6.16101">
        <ele>1565.4</ele>
        <time>2024-08-09T12:28:23Z</time>
      </trkpt>
      <trkpt lat="45.09093" lon="6.16101">
        <ele>1565.2</ele>
        <time>2024-08-09T12:28:24Z</time>
      </trkpt>
      <trkpt lat="45.09093" lon="6.16101">
        <ele>1565</ele>
        <time>2024-08-09T12:28:25Z</time>
      </trkpt>
      <trkpt lat="45.09093" lon="6.16101">
        <ele>1565</ele>
        <time>2024-08-09T12:28:26Z</time>
      </trkpt>
      <trkpt lat="45.09093" lon="6.16101">
        <ele>1565.2</ele>
        <time>2024-08-09T12:28:27Z</time>
      </trkpt>
      <trkpt lat="45.09093" lon="6.16101">
        <ele>1565.2</ele>
        <time>2024-08-09T12:28:28Z</time>
      </trkpt>
      <trkpt lat="45.09093" lon="6.16101">
        <ele>1565.2</ele>
        <time>2024-08-09T12:28:29Z</time>
      </trkpt>
      <trkpt lat="45.09093" lon="6.16101">
        <ele>1565.2</ele>
        <time>2024-08-09T12:28:30Z</time>
      </trkpt>
      <trkpt lat="45.09093" lon="6.16101">
        <ele>1564.8</ele>
        <time>2024-08-09T12:28:31Z</time>
      </trkpt>
      <trkpt lat="45.09093" lon="6.16101">
        <ele>1564.8</ele>
        <time>2024-08-09T12:28:32Z</time>
      </trkpt>
      <trkpt lat="45.09093" lon="6.16101">
        <ele>1564.6</ele>
        <time>2024-08-09T12:28:33Z</time>
      </trkpt>
      <trkpt lat="45.09093" lon="6.16101">
        <ele>1564.4</ele>
        <time>2024-08-09T12:28:34Z</time>
      </trkpt>
      <trkpt lat="45.09093" lon="6.16101">
        <ele>1564.4</ele>
        <time>2024-08-09T12:28:35Z</time>
      </trkpt>
      <trkpt lat="45.09093" lon="6.16101">
        <ele>1564.4</ele>
        <time>2024-08-09T12:28:36Z</time>
      </trkpt>
      <trkpt lat="45.09093" lon="6.16101">
        <ele>1564.4</ele>
        <time>2024-08-09T12:28:37Z</time>
      </trkpt>
      <trkpt lat="45.09093" lon="6.16101">
        <ele>1564.6</ele>
        <time>2024-08-09T12:28:38Z</time>
      </trkpt>
      <trkpt lat="45.09093" lon="6.16101">
        <ele>1564.6</ele>
        <time>2024-08-09T12:28:39Z</time>
      </trkpt>
      <trkpt lat="45.09093" lon="6.16101">
        <ele>1564.8</ele>
        <time>2024-08-09T12:28:40Z</time>
      </trkpt>
      <trkpt lat="45.09093" lon="6.16101">
        <ele>1564.6</ele>
        <time>2024-08-09T12:28:41Z</time>
      </trkpt>
      <trkpt lat="45.09093" lon="6.16101">
        <ele>1564.6</ele>
        <time>2024-08-09T12:28:42Z</time>
      </trkpt>
      <trkpt lat="45.09093" lon="6.16101">
        <ele>1564.6</ele>
        <time>2024-08-09T12:28:43Z</time>
      </trkpt>
      <trkpt lat="45.09093" lon="6.16101">
        <ele>1564.6</ele>
        <time>2024-08-09T12:28:44Z</time>
      </trkpt>
      <trkpt lat="45.09093" lon="6.16101">
        <ele>1564.6</ele>
        <time>2024-08-09T12:28:45Z</time>
      </trkpt>
      <trkpt lat="45.09093" lon="6.16101">
        <ele>1564.6</ele>
        <time>2024-08-09T12:28:46Z</time>
      </trkpt>
      <trkpt lat="45.09093" lon="6.16101">
        <ele>1564.6</ele>
        <time>2024-08-09T12:28:47Z</time>
      </trkpt>
      <trkpt lat="45.09093" lon="6.16101">
        <ele>1564.6</ele>
        <time>2024-08-09T12:28:48Z</time>
      </trkpt>
      <trkpt lat="45.09093" lon="6.16101">
        <ele>1564.6</ele>
        <time>2024-08-09T12:28:49Z</time>
      </trkpt>
      <trkpt lat="45.09093" lon="6.16101">
        <ele>1564.8</ele>
        <time>2024-08-09T12:28:50Z</time>
      </trkpt>
      <trkpt lat="45.09093" lon="6.16101">
        <ele>1564.8</ele>
        <time>2024-08-09T12:28:51Z</time>
      </trkpt>
      <trkpt lat="45.09093" lon="6.16101">
        <ele>1564.6</ele>
        <time>2024-08-09T12:28:52Z</time>
      </trkpt>
      <trkpt lat="45.09093" lon="6.16101">
        <ele>1564.6</ele>
        <time>2024-08-09T12:28:53Z</time>
      </trkpt>
      <trkpt lat="45.09093" lon="6.16101">
        <ele>1564.6</ele>
        <time>2024-08-09T12:28:54Z</time>
      </trkpt>
      <trkpt lat="45.09093" lon="6.16101">
        <ele>1564.6</ele>
        <time>2024-08-09T12:28:55Z</time>
      </trkpt>
      <trkpt lat="45.09093" lon="6.16101">
        <ele>1564.6</ele>
        <time>2024-08-09T12:28:56Z</time>
      </trkpt>
      <trkpt lat="45.09093" lon="6.16101">
        <ele>1564.6</ele>
        <time>2024-08-09T12:28:57Z</time>
      </trkpt>
      <trkpt lat="45.09093" lon="6.16101">
        <ele>1564.4</ele>
        <time>2024-08-09T12:28:58Z</time>
      </trkpt>
      <trkpt lat="45.09093" lon="6.16101">
        <ele>1564.6</ele>
        <time>2024-08-09T12:28:59Z</time>
      </trkpt>
      <trkpt lat="45.09093" lon="6.16101">
        <ele>1564.4</ele>
        <time>2024-08-09T12:29:00Z</time>
      </trkpt>
      <trkpt lat="45.09093" lon="6.16101">
        <ele>1564.4</ele>
        <time>2024-08-09T12:29:01Z</time>
      </trkpt>
      <trkpt lat="45.09093" lon="6.16101">
        <ele>1564.4</ele>
        <time>2024-08-09T12:29:02Z</time>
      </trkpt>
      <trkpt lat="45.09093" lon="6.16101">
        <ele>1564.4</ele>
        <time>2024-08-09T12:29:03Z</time>
      </trkpt>
      <trkpt lat="45.09093" lon="6.16101">
        <ele>1564.4</ele>
        <time>2024-08-09T12:29:04Z</time>
      </trkpt>
      <trkpt lat="45.09093" lon="6.16101">
        <ele>1564.2</ele>
        <time>2024-08-09T12:29:05Z</time>
      </trkpt>
      <trkpt lat="45.09093" lon="6.16101">
        <ele>1564</ele>
        <time>2024-08-09T12:29:06Z</time>
      </trkpt>
      <trkpt lat="45.09093" lon="6.16101">
        <ele>1564.2</ele>
        <time>2024-08-09T12:29:07Z</time>
      </trkpt>
      <trkpt lat="45.09093" lon="6.16101">
        <ele>1564.2</ele>
        <time>2024-08-09T12:29:08Z</time>
      </trkpt>
      <trkpt lat="45.09093" lon="6.16101">
        <ele>1564.2</ele>
        <time>2024-08-09T12:29:09Z</time>
      </trkpt>
      <trkpt lat="45.09093" lon="6.16101">
        <ele>1564.2</ele>
        <time>2024-08-09T12:29:10Z</time>
      </trkpt>
      <trkpt lat="45.09093" lon="6.16101">
        <ele>1564</ele>
        <time>2024-08-09T12:29:11Z</time>
      </trkpt>
      <trkpt lat="45.09093" lon="6.16101">
        <ele>1564</ele>
        <time>2024-08-09T12:29:12Z</time>
      </trkpt>
      <trkpt lat="45.09093" lon="6.16101">
        <ele>1564</ele>
        <time>2024-08-09T12:29:13Z</time>
      </trkpt>
      <trkpt lat="45.09093" lon="6.16101">
        <ele>1564</ele>
        <time>2024-08-09T12:29:14Z</time>
      </trkpt>
      <trkpt lat="45.09093" lon="6.16101">
        <ele>1564</ele>
        <time>2024-08-09T12:29:15Z</time>
      </trkpt>
      <trkpt lat="45.09093" lon="6.16101">
        <ele>1563.6</ele>
        <time>2024-08-09T12:29:16Z</time>
      </trkpt>
      <trkpt lat="45.09093" lon="6.16101">
        <ele>1563.6</ele>
        <time>2024-08-09T12:29:17Z</time>
      </trkpt>
      <trkpt lat="45.09093" lon="6.16101">
        <ele>1563.6</ele>
        <time>2024-08-09T12:29:18Z</time>
      </trkpt>
      <trkpt lat="45.09093" lon="6.16101">
        <ele>1563.6</ele>
        <time>2024-08-09T12:29:19Z</time>
      </trkpt>
      <trkpt lat="45.09093" lon="6.16101">
        <ele>1563.4</ele>
        <time>2024-08-09T12:29:20Z</time>
      </trkpt>
      <trkpt lat="45.09093" lon="6.16101">
        <ele>1563.2</ele>
        <time>2024-08-09T12:29:21Z</time>
      </trkpt>
      <trkpt lat="45.09093" lon="6.16101">
        <ele>1563.2</ele>
        <time>2024-08-09T12:29:22Z</time>
      </trkpt>
      <trkpt lat="45.09093" lon="6.16101">
        <ele>1563.2</ele>
        <time>2024-08-09T12:29:23Z</time>
      </trkpt>
      <trkpt lat="45.09093" lon="6.16101">
        <ele>1563.2</ele>
        <time>2024-08-09T12:29:24Z</time>
      </trkpt>
      <trkpt lat="45.09093" lon="6.16101">
        <ele>1563.2</ele>
        <time>2024-08-09T12:29:25Z</time>
      </trkpt>
      <trkpt lat="45.09093" lon="6.16101">
        <ele>1563</ele>
        <time>2024-08-09T12:29:26Z</time>
      </trkpt>
      <trkpt lat="45.09093" lon="6.16101">
        <ele>1562.8</ele>
        <time>2024-08-09T12:29:27Z</time>
      </trkpt>
      <trkpt lat="45.09093" lon="6.16101">
        <ele>1562.8</ele>
        <time>2024-08-09T12:29:28Z</time>
      </trkpt>
      <trkpt lat="45.09093" lon="6.16101">
        <ele>1563</ele>
        <time>2024-08-09T12:29:29Z</time>
      </trkpt>
      <trkpt lat="45.09093" lon="6.16101">
        <ele>1563</ele>
        <time>2024-08-09T12:29:30Z</time>
      </trkpt>
      <trkpt lat="45.09093" lon="6.16101">
        <ele>1563</ele>
        <time>2024-08-09T12:29:31Z</time>
      </trkpt>
      <trkpt lat="45.09093" lon="6.16101">
        <ele>1562.8</ele>
        <time>2024-08-09T12:29:32Z</time>
      </trkpt>
      <trkpt lat="45.09093" lon="6.16101">
        <ele>1562.6</ele>
        <time>2024-08-09T12:29:33Z</time>
      </trkpt>
      <trkpt lat="45.09093" lon="6.16101">
        <ele>1562.4</ele>
        <time>2024-08-09T12:29:34Z</time>
      </trkpt>
      <trkpt lat="45.09093" lon="6.16101">
        <ele>1562.4</ele>
        <time>2024-08-09T12:29:35Z</time>
      </trkpt>
      <trkpt lat="45.09093" lon="6.16101">
        <ele>1562.6</ele>
        <time>2024-08-09T12:29:36Z</time>
      </trkpt>
      <trkpt lat="45.09093" lon="6.16101">
        <ele>1562.6</ele>
        <time>2024-08-09T12:29:37Z</time>
      </trkpt>
      <trkpt lat="45.09093" lon="6.16101">
        <ele>1562.6</ele>
        <time>2024-08-09T12:29:38Z</time>
      </trkpt>
      <trkpt lat="45.09093" lon="6.16101">
        <ele>1562.6</ele>
        <time>2024-08-09T12:29:39Z</time>
      </trkpt>
      <trkpt lat="45.09093" lon="6.16101">
        <ele>1562.6</ele>
        <time>2024-08-09T12:29:40Z</time>
      </trkpt>
      <trkpt lat="45.09093" lon="6.16101">
        <ele>1562.8</ele>
        <time>2024-08-09T12:29:41Z</time>
      </trkpt>
      <trkpt lat="45.09093" lon="6.16101">
        <ele>1562.8</ele>
        <time>2024-08-09T12:29:42Z</time>
      </trkpt>
      <trkpt lat="45.09093" lon="6.16101">
        <ele>1562.8</ele>
        <time>2024-08-09T12:29:43Z</time>
      </trkpt>
      <trkpt lat="45.09093" lon="6.16101">
        <ele>1562.6</ele>
        <time>2024-08-09T12:29:44Z</time>
      </trkpt>
      <trkpt lat="45.09093" lon="6.16101">
        <ele>1562.6</ele>
        <time>2024-08-09T12:29:45Z</time>
      </trkpt>
      <trkpt lat="45.09093" lon="6.16101">
        <ele>1562.6</ele>
        <time>2024-08-09T12:29:46Z</time>
      </trkpt>
      <trkpt lat="45.09093" lon="6.16101">
        <ele>1562.8</ele>
        <time>2024-08-09T12:29:47Z</time>
      </trkpt>
      <trkpt lat="45.09093" lon="6.16101">
        <ele>1562.6</ele>
        <time>2024-08-09T12:29:48Z</time>
      </trkpt>
      <trkpt lat="45.09093" lon="6.16101">
        <ele>1562.8</ele>
        <time>2024-08-09T12:29:49Z</time>
      </trkpt>
      <trkpt lat="45.09093" lon="6.16101">
        <ele>1562.8</ele>
        <time>2024-08-09T12:29:50Z</time>
      </trkpt>
      <trkpt lat="45.09093" lon="6.16101">
        <ele>1562.6</ele>
        <time>2024-08-09T12:29:51Z</time>
      </trkpt>
      <trkpt lat="45.09093" lon="6.16101">
        <ele>1562.6</ele>
        <time>2024-08-09T12:29:52Z</time>
      </trkpt>
      <trkpt lat="45.09093" lon="6.16101">
        <ele>1562.6</ele>
        <time>2024-08-09T12:29:53Z</time>
      </trkpt>
      <trkpt lat="45.09093" lon="6.16101">
        <ele>1562.6</ele>
        <time>2024-08-09T12:29:54Z</time>
      </trkpt>
      <trkpt lat="45.09093" lon="6.16101">
        <ele>1562.6</ele>
        <time>2024-08-09T12:29:55Z</time>
      </trkpt>
      <trkpt lat="45.09093" lon="6.16101">
        <ele>1562.4</ele>
        <time>2024-08-09T12:29:56Z</time>
      </trkpt>
      <trkpt lat="45.09093" lon="6.16101">
        <ele>1562.4</ele>
        <time>2024-08-09T12:29:57Z</time>
      </trkpt>
      <trkpt lat="45.09093" lon="6.16101">
        <ele>1562.2</ele>
        <time>2024-08-09T12:29:58Z</time>
      </trkpt>
      <trkpt lat="45.09093" lon="6.16101">
        <ele>1562.2</ele>
        <time>2024-08-09T12:29:59Z</time>
      </trkpt>
      <trkpt lat="45.09093" lon="6.16101">
        <ele>1562</ele>
        <time>2024-08-09T12:30:00Z</time>
      </trkpt>
      <trkpt lat="45.09093" lon="6.16101">
        <ele>1562</ele>
        <time>2024-08-09T12:30:01Z</time>
      </trkpt>
      <trkpt lat="45.09093" lon="6.16101">
        <ele>1562</ele>
        <time>2024-08-09T12:30:02Z</time>
      </trkpt>
      <trkpt lat="45.09093" lon="6.16101">
        <ele>1562</ele>
        <time>2024-08-09T12:30:03Z</time>
      </trkpt>
      <trkpt lat="45.09093" lon="6.16101">
        <ele>1562</ele>
        <time>2024-08-09T12:30:04Z</time>
      </trkpt>
      <trkpt lat="45.09093" lon="6.16101">
        <ele>1562.2</ele>
        <time>2024-08-09T12:30:05Z</time>
      </trkpt>
      <trkpt lat="45.09093" lon="6.16101">
        <ele>1562.2</ele>
        <time>2024-08-09T12:30:06Z</time>
      </trkpt>
      <trkpt lat="45.09093" lon="6.16101">
        <ele>1562.2</ele>
        <time>2024-08-09T12:30:07Z</time>
      </trkpt>
      <trkpt lat="45.09093" lon="6.16101">
        <ele>1562</ele>
        <time>2024-08-09T12:30:08Z</time>
      </trkpt>
      <trkpt lat="45.09093" lon="6.16101">
        <ele>1561.8</ele>
        <time>2024-08-09T12:30:09Z</time>
      </trkpt>
      <trkpt lat="45.09093" lon="6.16101">
        <ele>1561.8</ele>
        <time>2024-08-09T12:30:10Z</time>
      </trkpt>
      <trkpt lat="45.09093" lon="6.16101">
        <ele>1561.6</ele>
        <time>2024-08-09T12:30:11Z</time>
      </trkpt>
      <trkpt lat="45.09093" lon="6.16101">
        <ele>1561.6</ele>
        <time>2024-08-09T12:30:12Z</time>
      </trkpt>
      <trkpt lat="45.09093" lon="6.16101">
        <ele>1561.8</ele>
        <time>2024-08-09T12:30:13Z</time>
      </trkpt>
      <trkpt lat="45.09093" lon="6.16101">
        <ele>1561.8</ele>
        <time>2024-08-09T12:30:14Z</time>
      </trkpt>
      <trkpt lat="45.09093" lon="6.16101">
        <ele>1561.8</ele>
        <time>2024-08-09T12:30:15Z</time>
      </trkpt>
      <trkpt lat="45.09093" lon="6.16101">
        <ele>1561.6</ele>
        <time>2024-08-09T12:30:16Z</time>
      </trkpt>
      <trkpt lat="45.09093" lon="6.16101">
        <ele>1561.6</ele>
        <time>2024-08-09T12:30:17Z</time>
      </trkpt>
      <trkpt lat="45.09093" lon="6.16101">
        <ele>1561.6</ele>
        <time>2024-08-09T12:30:18Z</time>
      </trkpt>
      <trkpt lat="45.09093" lon="6.16101">
        <ele>1561.6</ele>
        <time>2024-08-09T12:30:19Z</time>
      </trkpt>
      <trkpt lat="45.09093" lon="6.16101">
        <ele>1561.6</ele>
        <time>2024-08-09T12:30:20Z</time>
      </trkpt>
      <trkpt lat="45.09093" lon="6.16101">
        <ele>1561.6</ele>
        <time>2024-08-09T12:30:21Z</time>
      </trkpt>
      <trkpt lat="45.09093" lon="6.16101">
        <ele>1561.4</ele>
        <time>2024-08-09T12:30:22Z</time>
      </trkpt>
      <trkpt lat="45.09093" lon="6.16101">
        <ele>1561.4</ele>
        <time>2024-08-09T12:30:23Z</time>
      </trkpt>
      <trkpt lat="45.09093" lon="6.16101">
        <ele>1561.4</ele>
        <time>2024-08-09T12:30:24Z</time>
      </trkpt>
      <trkpt lat="45.09093" lon="6.16101">
        <ele>1561.4</ele>
        <time>2024-08-09T12:30:25Z</time>
      </trkpt>
      <trkpt lat="45.09093" lon="6.16101">
        <ele>1561.2</ele>
        <time>2024-08-09T12:30:26Z</time>
      </trkpt>
      <trkpt lat="45.09093" lon="6.16101">
        <ele>1561.2</ele>
        <time>2024-08-09T12:30:27Z</time>
      </trkpt>
      <trkpt lat="45.09093" lon="6.16101">
        <ele>1561.2</ele>
        <time>2024-08-09T12:30:28Z</time>
      </trkpt>
      <trkpt lat="45.09093" lon="6.16101">
        <ele>1561.4</ele>
        <time>2024-08-09T12:30:29Z</time>
      </trkpt>
      <trkpt lat="45.09093" lon="6.16101">
        <ele>1561.4</ele>
        <time>2024-08-09T12:30:30Z</time>
      </trkpt>
      <trkpt lat="45.09093" lon="6.16101">
        <ele>1561.4</ele>
        <time>2024-08-09T12:30:31Z</time>
      </trkpt>
      <trkpt lat="45.09093" lon="6.16101">
        <ele>1561.2</ele>
        <time>2024-08-09T12:30:32Z</time>
      </trkpt>
      <trkpt lat="45.09093" lon="6.16101">
        <ele>1561.2</ele>
        <time>2024-08-09T12:30:33Z</time>
      </trkpt>
      <trkpt lat="45.09093" lon="6.16101">
        <ele>1561.2</ele>
        <time>2024-08-09T12:30:34Z</time>
      </trkpt>
      <trkpt lat="45.09093" lon="6.16101">
        <ele>1561.2</ele>
        <time>2024-08-09T12:30:35Z</time>
      </trkpt>
      <trkpt lat="45.09093" lon="6.16101">
        <ele>1561.2</ele>
        <time>2024-08-09T12:30:36Z</time>
      </trkpt>
      <trkpt lat="45.09093" lon="6.16101">
        <ele>1561.2</ele>
        <time>2024-08-09T12:30:37Z</time>
      </trkpt>
      <trkpt lat="45.09093" lon="6.16101">
        <ele>1561.4</ele>
        <time>2024-08-09T12:30:38Z</time>
      </trkpt>
      <trkpt lat="45.09093" lon="6.16101">
        <ele>1561.2</ele>
        <time>2024-08-09T12:30:39Z</time>
      </trkpt>
      <trkpt lat="45.09093" lon="6.16101">
        <ele>1561.4</ele>
        <time>2024-08-09T12:30:40Z</time>
      </trkpt>
      <trkpt lat="45.09093" lon="6.16101">
        <ele>1561.2</ele>
        <time>2024-08-09T12:30:41Z</time>
      </trkpt>
      <trkpt lat="45.09093" lon="6.16101">
        <ele>1561.2</ele>
        <time>2024-08-09T12:30:42Z</time>
      </trkpt>
      <trkpt lat="45.09093" lon="6.16101">
        <ele>1561</ele>
        <time>2024-08-09T12:30:43Z</time>
      </trkpt>
      <trkpt lat="45.09093" lon="6.16101">
        <ele>1561</ele>
        <time>2024-08-09T12:30:44Z</time>
      </trkpt>
      <trkpt lat="45.09093" lon="6.16101">
        <ele>1561</ele>
        <time>2024-08-09T12:30:45Z</time>
      </trkpt>
      <trkpt lat="45.09093" lon="6.16101">
        <ele>1561</ele>
        <time>2024-08-09T12:30:46Z</time>
      </trkpt>
      <trkpt lat="45.09093" lon="6.16101">
        <ele>1561</ele>
        <time>2024-08-09T12:30:47Z</time>
      </trkpt>
      <trkpt lat="45.09093" lon="6.16101">
        <ele>1560.8</ele>
        <time>2024-08-09T12:30:48Z</time>
      </trkpt>
      <trkpt lat="45.09093" lon="6.16101">
        <ele>1560.8</ele>
        <time>2024-08-09T12:30:49Z</time>
      </trkpt>
      <trkpt lat="45.09093" lon="6.16101">
        <ele>1560.8</ele>
        <time>2024-08-09T12:30:50Z</time>
      </trkpt>
      <trkpt lat="45.09093" lon="6.16101">
        <ele>1560.8</ele>
        <time>2024-08-09T12:30:51Z</time>
      </trkpt>
      <trkpt lat="45.09093" lon="6.16101">
        <ele>1560.8</ele>
        <time>2024-08-09T12:30:52Z</time>
      </trkpt>
      <trkpt lat="45.09093" lon="6.16101">
        <ele>1560.8</ele>
        <time>2024-08-09T12:30:53Z</time>
      </trkpt>
      <trkpt lat="45.09093" lon="6.16101">
        <ele>1560.8</ele>
        <time>2024-08-09T12:30:54Z</time>
      </trkpt>
      <trkpt lat="45.09093" lon="6.16101">
        <ele>1560.6</ele>
        <time>2024-08-09T12:30:55Z</time>
      </trkpt>
      <trkpt lat="45.09093" lon="6.16101">
        <ele>1560.6</ele>
        <time>2024-08-09T12:30:56Z</time>
      </trkpt>
      <trkpt lat="45.09093" lon="6.16101">
        <ele>1560.6</ele>
        <time>2024-08-09T12:30:57Z</time>
      </trkpt>
      <trkpt lat="45.09093" lon="6.16101">
        <ele>1560.6</ele>
        <time>2024-08-09T12:30:58Z</time>
      </trkpt>
      <trkpt lat="45.09093" lon="6.16101">
        <ele>1560.6</ele>
        <time>2024-08-09T12:30:59Z</time>
      </trkpt>
      <trkpt lat="45.09093" lon="6.16101">
        <ele>1560.6</ele>
        <time>2024-08-09T12:31:00Z</time>
      </trkpt>
      <trkpt lat="45.09093" lon="6.16101">
        <ele>1560.6</ele>
        <time>2024-08-09T12:31:01Z</time>
      </trkpt>
      <trkpt lat="45.09093" lon="6.16101">
        <ele>1560.4</ele>
        <time>2024-08-09T12:31:02Z</time>
      </trkpt>
      <trkpt lat="45.09093" lon="6.16101">
        <ele>1560.4</ele>
        <time>2024-08-09T12:31:03Z</time>
      </trkpt>
      <trkpt lat="45.09093" lon="6.16101">
        <ele>1560.6</ele>
        <time>2024-08-09T12:31:04Z</time>
      </trkpt>
      <trkpt lat="45.09093" lon="6.16101">
        <ele>1560.6</ele>
        <time>2024-08-09T12:31:05Z</time>
      </trkpt>
      <trkpt lat="45.09093" lon="6.16101">
        <ele>1560.6</ele>
        <time>2024-08-09T12:31:06Z</time>
      </trkpt>
      <trkpt lat="45.09093" lon="6.16101">
        <ele>1560.4</ele>
        <time>2024-08-09T12:31:07Z</time>
      </trkpt>
      <trkpt lat="45.09093" lon="6.16101">
        <ele>1560.2</ele>
        <time>2024-08-09T12:31:08Z</time>
      </trkpt>
      <trkpt lat="45.09093" lon="6.16101">
        <ele>1560.2</ele>
        <time>2024-08-09T12:31:09Z</time>
      </trkpt>
      <trkpt lat="45.09093" lon="6.16101">
        <ele>1560.2</ele>
        <time>2024-08-09T12:31:10Z</time>
      </trkpt>
      <trkpt lat="45.09093" lon="6.16101">
        <ele>1560.2</ele>
        <time>2024-08-09T12:31:11Z</time>
      </trkpt>
      <trkpt lat="45.09093" lon="6.16101">
        <ele>1560.2</ele>
        <time>2024-08-09T12:31:12Z</time>
      </trkpt>
      <trkpt lat="45.09093" lon="6.16101">
        <ele>1560.2</ele>
        <time>2024-08-09T12:31:13Z</time>
      </trkpt>
      <trkpt lat="45.09093" lon="6.16101">
        <ele>1560.4</ele>
        <time>2024-08-09T12:31:14Z</time>
      </trkpt>
      <trkpt lat="45.09093" lon="6.16101">
        <ele>1560.4</ele>
        <time>2024-08-09T12:31:15Z</time>
      </trkpt>
      <trkpt lat="45.09093" lon="6.16101">
        <ele>1560.4</ele>
        <time>2024-08-09T12:31:16Z</time>
      </trkpt>
      <trkpt lat="45.09093" lon="6.16101">
        <ele>1560.2</ele>
        <time>2024-08-09T12:31:17Z</time>
      </trkpt>
      <trkpt lat="45.09093" lon="6.16101">
        <ele>1560.2</ele>
        <time>2024-08-09T12:31:18Z</time>
      </trkpt>
      <trkpt lat="45.09093" lon="6.16101">
        <ele>1560.2</ele>
        <time>2024-08-09T12:31:19Z</time>
      </trkpt>
      <trkpt lat="45.09093" lon="6.16101">
        <ele>1560.2</ele>
        <time>2024-08-09T12:31:20Z</time>
      </trkpt>
      <trkpt lat="45.09093" lon="6.16101">
        <ele>1560.2</ele>
        <time>2024-08-09T12:31:21Z</time>
      </trkpt>
      <trkpt lat="45.09093" lon="6.16101">
        <ele>1560.2</ele>
        <time>2024-08-09T12:31:22Z</time>
      </trkpt>
      <trkpt lat="45.09093" lon="6.16101">
        <ele>1560.2</ele>
        <time>2024-08-09T12:31:23Z</time>
      </trkpt>
      <trkpt lat="45.09093" lon="6.16101">
        <ele>1560.2</ele>
        <time>2024-08-09T12:31:24Z</time>
      </trkpt>
      <trkpt lat="45.09093" lon="6.16101">
        <ele>1560.2</ele>
        <time>2024-08-09T12:31:25Z</time>
      </trkpt>
      <trkpt lat="45.09093" lon="6.16101">
        <ele>1560.2</ele>
        <time>2024-08-09T12:31:26Z</time>
      </trkpt>
      <trkpt lat="45.09093" lon="6.16101">
        <ele>1560.2</ele>
        <time>2024-08-09T12:31:27Z</time>
      </trkpt>
      <trkpt lat="45.09093" lon="6.16101">
        <ele>1560.2</ele>
        <time>2024-08-09T12:31:28Z</time>
      </trkpt>
      <trkpt lat="45.09093" lon="6.16101">
        <ele>1560.2</ele>
        <time>2024-08-09T12:31:29Z</time>
      </trkpt>
      <trkpt lat="45.09093" lon="6.16101">
        <ele>1560</ele>
        <time>2024-08-09T12:31:30Z</time>
      </trkpt>
      <trkpt lat="45.09093" lon="6.16101">
        <ele>1559.8</ele>
        <time>2024-08-09T12:31:31Z</time>
      </trkpt>
      <trkpt lat="45.09093" lon="6.16101">
        <ele>1559.6</ele>
        <time>2024-08-09T12:31:32Z</time>
      </trkpt>
      <trkpt lat="45.09093" lon="6.16101">
        <ele>1559.8</ele>
        <time>2024-08-09T12:31:33Z</time>
      </trkpt>
      <trkpt lat="45.09093" lon="6.16101">
        <ele>1559.8</ele>
        <time>2024-08-09T12:31:34Z</time>
      </trkpt>
      <trkpt lat="45.09093" lon="6.16101">
        <ele>1559.8</ele>
        <time>2024-08-09T12:31:35Z</time>
      </trkpt>
      <trkpt lat="45.09093" lon="6.16101">
        <ele>1559.8</ele>
        <time>2024-08-09T12:31:36Z</time>
      </trkpt>
      <trkpt lat="45.09093" lon="6.16101">
        <ele>1559.8</ele>
        <time>2024-08-09T12:31:37Z</time>
      </trkpt>
      <trkpt lat="45.09093" lon="6.16101">
        <ele>1559.8</ele>
        <time>2024-08-09T12:31:38Z</time>
      </trkpt>
      <trkpt lat="45.09093" lon="6.16101">
        <ele>1560</ele>
        <time>2024-08-09T12:31:39Z</time>
      </trkpt>
      <trkpt lat="45.09093" lon="6.16101">
        <ele>1560</ele>
        <time>2024-08-09T12:31:40Z</time>
      </trkpt>
      <trkpt lat="45.09093" lon="6.16101">
        <ele>1560</ele>
        <time>2024-08-09T12:31:41Z</time>
      </trkpt>
      <trkpt lat="45.09093" lon="6.16101">
        <ele>1560</ele>
        <time>2024-08-09T12:31:42Z</time>
      </trkpt>
      <trkpt lat="45.09093" lon="6.16101">
        <ele>1560</ele>
        <time>2024-08-09T12:31:43Z</time>
      </trkpt>
      <trkpt lat="45.09093" lon="6.16101">
        <ele>1560</ele>
        <time>2024-08-09T12:31:44Z</time>
      </trkpt>
      <trkpt lat="45.09093" lon="6.16101">
        <ele>1559.8</ele>
        <time>2024-08-09T12:31:45Z</time>
      </trkpt>
      <trkpt lat="45.09093" lon="6.16101">
        <ele>1559.8</ele>
        <time>2024-08-09T12:31:46Z</time>
      </trkpt>
      <trkpt lat="45.09093" lon="6.16101">
        <ele>1559.6</ele>
        <time>2024-08-09T12:31:47Z</time>
      </trkpt>
      <trkpt lat="45.09093" lon="6.16101">
        <ele>1559.6</ele>
        <time>2024-08-09T12:31:48Z</time>
      </trkpt>
      <trkpt lat="45.09093" lon="6.16101">
        <ele>1559.8</ele>
        <time>2024-08-09T12:31:49Z</time>
      </trkpt>
      <trkpt lat="45.09093" lon="6.16101">
        <ele>1559.8</ele>
        <time>2024-08-09T12:31:50Z</time>
      </trkpt>
      <trkpt lat="45.09093" lon="6.16101">
        <ele>1559.8</ele>
        <time>2024-08-09T12:31:51Z</time>
      </trkpt>
      <trkpt lat="45.09093" lon="6.16101">
        <ele>1559.6</ele>
        <time>2024-08-09T12:31:52Z</time>
      </trkpt>
      <trkpt lat="45.09093" lon="6.16101">
        <ele>1559.6</ele>
        <time>2024-08-09T12:31:53Z</time>
      </trkpt>
      <trkpt lat="45.09093" lon="6.16101">
        <ele>1559.6</ele>
        <time>2024-08-09T12:31:54Z</time>
      </trkpt>
      <trkpt lat="45.09093" lon="6.16101">
        <ele>1560</ele>
        <time>2024-08-09T12:31:55Z</time>
      </trkpt>
      <trkpt lat="45.09093" lon="6.16101">
        <ele>1560</ele>
        <time>2024-08-09T12:31:56Z</time>
      </trkpt>
      <trkpt lat="45.09093" lon="6.16101">
        <ele>1560</ele>
        <time>2024-08-09T12:31:57Z</time>
      </trkpt>
      <trkpt lat="45.09093" lon="6.16101">
        <ele>1559.8</ele>
        <time>2024-08-09T12:31:58Z</time>
      </trkpt>
      <trkpt lat="45.09093" lon="6.16101">
        <ele>1559.6</ele>
        <time>2024-08-09T12:31:59Z</time>
      </trkpt>
      <trkpt lat="45.09093" lon="6.16101">
        <ele>1559.6</ele>
        <time>2024-08-09T12:32:00Z</time>
      </trkpt>
      <trkpt lat="45.09093" lon="6.16101">
        <ele>1559.6</ele>
        <time>2024-08-09T12:32:01Z</time>
      </trkpt>
      <trkpt lat="45.09093" lon="6.16101">
        <ele>1559.8</ele>
        <time>2024-08-09T12:32:02Z</time>
      </trkpt>
      <trkpt lat="45.09093" lon="6.16101">
        <ele>1559.8</ele>
        <time>2024-08-09T12:32:03Z</time>
      </trkpt>
      <trkpt lat="45.09093" lon="6.16101">
        <ele>1559.8</ele>
        <time>2024-08-09T12:32:04Z</time>
      </trkpt>
      <trkpt lat="45.09093" lon="6.16101">
        <ele>1559.8</ele>
        <time>2024-08-09T12:32:05Z</time>
      </trkpt>
      <trkpt lat="45.09093" lon="6.16101">
        <ele>1559.8</ele>
        <time>2024-08-09T12:32:06Z</time>
      </trkpt>
      <trkpt lat="45.09093" lon="6.16101">
        <ele>1559.8</ele>
        <time>2024-08-09T12:32:07Z</time>
      </trkpt>
      <trkpt lat="45.09093" lon="6.16101">
        <ele>1559.8</ele>
        <time>2024-08-09T12:32:08Z</time>
      </trkpt>
      <trkpt lat="45.09093" lon="6.16101">
        <ele>1559.8</ele>
        <time>2024-08-09T12:32:09Z</time>
      </trkpt>
      <trkpt lat="45.09093" lon="6.16101">
        <ele>1559.8</ele>
        <time>2024-08-09T12:32:10Z</time>
      </trkpt>
      <trkpt lat="45.09093" lon="6.16101">
        <ele>1559.6</ele>
        <time>2024-08-09T12:32:11Z</time>
      </trkpt>
      <trkpt lat="45.09093" lon="6.16101">
        <ele>1559.8</ele>
        <time>2024-08-09T12:32:12Z</time>
      </trkpt>
      <trkpt lat="45.09093" lon="6.16101">
        <ele>1559.8</ele>
        <time>2024-08-09T12:32:13Z</time>
      </trkpt>
      <trkpt lat="45.09093" lon="6.16101">
        <ele>1559.8</ele>
        <time>2024-08-09T12:32:14Z</time>
      </trkpt>
      <trkpt lat="45.09093" lon="6.16101">
        <ele>1559.8</ele>
        <time>2024-08-09T12:32:15Z</time>
      </trkpt>
      <trkpt lat="45.09093" lon="6.16101">
        <ele>1559.8</ele>
        <time>2024-08-09T12:32:16Z</time>
      </trkpt>
      <trkpt lat="45.09093" lon="6.16101">
        <ele>1559.6</ele>
        <time>2024-08-09T12:32:17Z</time>
      </trkpt>
      <trkpt lat="45.09093" lon="6.16101">
        <ele>1559.6</ele>
        <time>2024-08-09T12:32:18Z</time>
      </trkpt>
      <trkpt lat="45.09093" lon="6.16101">
        <ele>1559.6</ele>
        <time>2024-08-09T12:32:19Z</time>
      </trkpt>
      <trkpt lat="45.09093" lon="6.16101">
        <ele>1559.6</ele>
        <time>2024-08-09T12:32:20Z</time>
      </trkpt>
      <trkpt lat="45.09093" lon="6.16101">
        <ele>1559.6</ele>
        <time>2024-08-09T12:32:21Z</time>
      </trkpt>
      <trkpt lat="45.09093" lon="6.16101">
        <ele>1559.6</ele>
        <time>2024-08-09T12:32:22Z</time>
      </trkpt>
      <trkpt lat="45.09093" lon="6.16101">
        <ele>1559.6</ele>
        <time>2024-08-09T12:32:23Z</time>
      </trkpt>
      <trkpt lat="45.09093" lon="6.16101">
        <ele>1559.4</ele>
        <time>2024-08-09T12:32:24Z</time>
      </trkpt>
      <trkpt lat="45.09093" lon="6.16101">
        <ele>1559.4</ele>
        <time>2024-08-09T12:32:25Z</time>
      </trkpt>
      <trkpt lat="45.09093" lon="6.16101">
        <ele>1559.2</ele>
        <time>2024-08-09T12:32:26Z</time>
      </trkpt>
      <trkpt lat="45.09093" lon="6.16101">
        <ele>1559.2</ele>
        <time>2024-08-09T12:32:27Z</time>
      </trkpt>
      <trkpt lat="45.09093" lon="6.16101">
        <ele>1559.4</ele>
        <time>2024-08-09T12:32:28Z</time>
      </trkpt>
      <trkpt lat="45.09093" lon="6.16101">
        <ele>1559.4</ele>
        <time>2024-08-09T12:32:29Z</time>
      </trkpt>
      <trkpt lat="45.09093" lon="6.16101">
        <ele>1559.4</ele>
        <time>2024-08-09T12:32:30Z</time>
      </trkpt>
      <trkpt lat="45.09093" lon="6.16101">
        <ele>1559.4</ele>
        <time>2024-08-09T12:32:31Z</time>
      </trkpt>
      <trkpt lat="45.09093" lon="6.16101">
        <ele>1559.4</ele>
        <time>2024-08-09T12:32:32Z</time>
      </trkpt>
      <trkpt lat="45.09093" lon="6.16101">
        <ele>1559.4</ele>
        <time>2024-08-09T12:32:33Z</time>
      </trkpt>
      <trkpt lat="45.09093" lon="6.16101">
        <ele>1559.4</ele>
        <time>2024-08-09T12:32:34Z</time>
      </trkpt>
      <trkpt lat="45.09093" lon="6.16101">
        <ele>1559.4</ele>
        <time>2024-08-09T12:32:35Z</time>
      </trkpt>
      <trkpt lat="45.09093" lon="6.16101">
        <ele>1559.4</ele>
        <time>2024-08-09T12:32:36Z</time>
      </trkpt>
      <trkpt lat="45.09093" lon="6.16101">
        <ele>1559.2</ele>
        <time>2024-08-09T12:32:37Z</time>
      </trkpt>
      <trkpt lat="45.09093" lon="6.16101">
        <ele>1559</ele>
        <time>2024-08-09T12:32:38Z</time>
      </trkpt>
      <trkpt lat="45.09093" lon="6.16101">
        <ele>1559</ele>
        <time>2024-08-09T12:32:39Z</time>
      </trkpt>
      <trkpt lat="45.09093" lon="6.16101">
        <ele>1559</ele>
        <time>2024-08-09T12:32:40Z</time>
      </trkpt>
      <trkpt lat="45.09093" lon="6.16101">
        <ele>1559.4</ele>
        <time>2024-08-09T12:32:41Z</time>
      </trkpt>
      <trkpt lat="45.09093" lon="6.16101">
        <ele>1559.4</ele>
        <time>2024-08-09T12:32:42Z</time>
      </trkpt>
      <trkpt lat="45.09093" lon="6.16101">
        <ele>1559.4</ele>
        <time>2024-08-09T12:32:43Z</time>
      </trkpt>
      <trkpt lat="45.09093" lon="6.16101">
        <ele>1559.4</ele>
        <time>2024-08-09T12:32:44Z</time>
      </trkpt>
      <trkpt lat="45.09093" lon="6.16101">
        <ele>1559.4</ele>
        <time>2024-08-09T12:32:45Z</time>
      </trkpt>
      <trkpt lat="45.09093" lon="6.16101">
        <ele>1559.4</ele>
        <time>2024-08-09T12:32:46Z</time>
      </trkpt>
      <trkpt lat="45.09093" lon="6.16101">
        <ele>1559</ele>
        <time>2024-08-09T12:32:47Z</time>
      </trkpt>
      <trkpt lat="45.09093" lon="6.16101">
        <ele>1559</ele>
        <time>2024-08-09T12:32:48Z</time>
      </trkpt>
      <trkpt lat="45.09093" lon="6.16101">
        <ele>1559</ele>
        <time>2024-08-09T12:32:49Z</time>
      </trkpt>
      <trkpt lat="45.09093" lon="6.16101">
        <ele>1559</ele>
        <time>2024-08-09T12:32:50Z</time>
      </trkpt>
      <trkpt lat="45.09093" lon="6.16101">
        <ele>1558.8</ele>
        <time>2024-08-09T12:32:51Z</time>
      </trkpt>
      <trkpt lat="45.09093" lon="6.16101">
        <ele>1558.8</ele>
        <time>2024-08-09T12:32:52Z</time>
      </trkpt>
      <trkpt lat="45.09093" lon="6.16101">
        <ele>1558.8</ele>
        <time>2024-08-09T12:32:53Z</time>
      </trkpt>
      <trkpt lat="45.09093" lon="6.16101">
        <ele>1558.6</ele>
        <time>2024-08-09T12:32:54Z</time>
      </trkpt>
      <trkpt lat="45.09093" lon="6.16101">
        <ele>1558.6</ele>
        <time>2024-08-09T12:32:55Z</time>
      </trkpt>
      <trkpt lat="45.09093" lon="6.16101">
        <ele>1558.6</ele>
        <time>2024-08-09T12:32:56Z</time>
      </trkpt>
      <trkpt lat="45.09093" lon="6.16101">
        <ele>1558.6</ele>
        <time>2024-08-09T12:32:57Z</time>
      </trkpt>
      <trkpt lat="45.09093" lon="6.16101">
        <ele>1558.6</ele>
        <time>2024-08-09T12:32:58Z</time>
      </trkpt>
      <trkpt lat="45.09093" lon="6.16101">
        <ele>1558.8</ele>
        <time>2024-08-09T12:32:59Z</time>
      </trkpt>
      <trkpt lat="45.09093" lon="6.16101">
        <ele>1559</ele>
        <time>2024-08-09T12:33:00Z</time>
      </trkpt>
      <trkpt lat="45.09093" lon="6.16101">
        <ele>1559</ele>
        <time>2024-08-09T12:33:01Z</time>
      </trkpt>
      <trkpt lat="45.09093" lon="6.16101">
        <ele>1559</ele>
        <time>2024-08-09T12:33:02Z</time>
      </trkpt>
      <trkpt lat="45.09093" lon="6.16101">
        <ele>1559</ele>
        <time>2024-08-09T12:33:03Z</time>
      </trkpt>
      <trkpt lat="45.09093" lon="6.16101">
        <ele>1559.2</ele>
        <time>2024-08-09T12:33:04Z</time>
      </trkpt>
      <trkpt lat="45.09093" lon="6.16101">
        <ele>1559.2</ele>
        <time>2024-08-09T12:33:05Z</time>
      </trkpt>
      <trkpt lat="45.09093" lon="6.16101">
        <ele>1558.8</ele>
        <time>2024-08-09T12:33:06Z</time>
      </trkpt>
      <trkpt lat="45.09093" lon="6.16101">
        <ele>1558.4</ele>
        <time>2024-08-09T12:33:07Z</time>
      </trkpt>
      <trkpt lat="45.09093" lon="6.16101">
        <ele>1558.4</ele>
        <time>2024-08-09T12:33:08Z</time>
      </trkpt>
      <trkpt lat="45.09093" lon="6.16101">
        <ele>1558.4</ele>
        <time>2024-08-09T12:33:09Z</time>
      </trkpt>
      <trkpt lat="45.09093" lon="6.16101">
        <ele>1558.4</ele>
        <time>2024-08-09T12:33:10Z</time>
      </trkpt>
      <trkpt lat="45.09093" lon="6.16101">
        <ele>1558.8</ele>
        <time>2024-08-09T12:33:11Z</time>
      </trkpt>
      <trkpt lat="45.09093" lon="6.16101">
        <ele>1558.8</ele>
        <time>2024-08-09T12:33:12Z</time>
      </trkpt>
      <trkpt lat="45.09093" lon="6.16101">
        <ele>1558.6</ele>
        <time>2024-08-09T12:33:13Z</time>
      </trkpt>
      <trkpt lat="45.09093" lon="6.16101">
        <ele>1558.6</ele>
        <time>2024-08-09T12:33:14Z</time>
      </trkpt>
      <trkpt lat="45.09093" lon="6.16101">
        <ele>1558.6</ele>
        <time>2024-08-09T12:33:15Z</time>
      </trkpt>
      <trkpt lat="45.09093" lon="6.16101">
        <ele>1558.6</ele>
        <time>2024-08-09T12:33:16Z</time>
      </trkpt>
      <trkpt lat="45.09093" lon="6.16101">
        <ele>1558.4</ele>
        <time>2024-08-09T12:33:17Z</time>
      </trkpt>
      <trkpt lat="45.09093" lon="6.16101">
        <ele>1558.4</ele>
        <time>2024-08-09T12:33:18Z</time>
      </trkpt>
      <trkpt lat="45.09093" lon="6.16101">
        <ele>1558.4</ele>
        <time>2024-08-09T12:33:19Z</time>
      </trkpt>
      <trkpt lat="45.09093" lon="6.16101">
        <ele>1558.6</ele>
        <time>2024-08-09T12:33:20Z</time>
      </trkpt>
      <trkpt lat="45.09093" lon="6.16101">
        <ele>1558.4</ele>
        <time>2024-08-09T12:33:21Z</time>
      </trkpt>
      <trkpt lat="45.09093" lon="6.16101">
        <ele>1558.4</ele>
        <time>2024-08-09T12:33:22Z</time>
      </trkpt>
      <trkpt lat="45.09093" lon="6.16104">
        <ele>1558.4</ele>
        <time>2024-08-09T12:33:23Z</time>
      </trkpt>
      <trkpt lat="45.09093" lon="6.16104">
        <ele>1558.2</ele>
        <time>2024-08-09T12:33:24Z</time>
      </trkpt>
      <trkpt lat="45.09094" lon="6.16107">
        <ele>1558</ele>
        <time>2024-08-09T12:33:25Z</time>
      </trkpt>
      <trkpt lat="45.09094" lon="6.16107">
        <ele>1557.6</ele>
        <time>2024-08-09T12:33:26Z</time>
      </trkpt>
      <trkpt lat="45.09094" lon="6.1611">
        <ele>1557.6</ele>
        <time>2024-08-09T12:33:27Z</time>
      </trkpt>
      <trkpt lat="45.09094" lon="6.1611">
        <ele>1557.4</ele>
        <time>2024-08-09T12:33:28Z</time>
      </trkpt>
      <trkpt lat="45.09094" lon="6.1611">
        <ele>1557.2</ele>
        <time>2024-08-09T12:33:29Z</time>
      </trkpt>
      <trkpt lat="45.09094" lon="6.16113">
        <ele>1556.8</ele>
        <time>2024-08-09T12:33:30Z</time>
      </trkpt>
      <trkpt lat="45.09094" lon="6.16113">
        <ele>1556.6</ele>
        <time>2024-08-09T12:33:31Z</time>
      </trkpt>
      <trkpt lat="45.09094" lon="6.16113">
        <ele>1556.6</ele>
        <time>2024-08-09T12:33:32Z</time>
      </trkpt>
      <trkpt lat="45.09093" lon="6.16117">
        <ele>1556.4</ele>
        <time>2024-08-09T12:33:33Z</time>
      </trkpt>
      <trkpt lat="45.09093" lon="6.16117">
        <ele>1556.4</ele>
        <time>2024-08-09T12:33:34Z</time>
      </trkpt>
      <trkpt lat="45.09091" lon="6.16118">
        <ele>1556.2</ele>
        <time>2024-08-09T12:33:35Z</time>
      </trkpt>
      <trkpt lat="45.09091" lon="6.16118">
        <ele>1555.8</ele>
        <time>2024-08-09T12:33:36Z</time>
      </trkpt>
      <trkpt lat="45.09089" lon="6.1612">
        <ele>1555.4</ele>
        <time>2024-08-09T12:33:37Z</time>
      </trkpt>
      <trkpt lat="45.09089" lon="6.1612">
        <ele>1555.2</ele>
        <time>2024-08-09T12:33:38Z</time>
      </trkpt>
      <trkpt lat="45.09089" lon="6.1612">
        <ele>1555</ele>
        <time>2024-08-09T12:33:39Z</time>
      </trkpt>
      <trkpt lat="45.09089" lon="6.1612">
        <ele>1554.8</ele>
        <time>2024-08-09T12:33:40Z</time>
      </trkpt>
      <trkpt lat="45.09088" lon="6.16124">
        <ele>1554.4</ele>
        <time>2024-08-09T12:33:41Z</time>
      </trkpt>
      <trkpt lat="45.09088" lon="6.16124">
        <ele>1554</ele>
        <time>2024-08-09T12:33:42Z</time>
      </trkpt>
      <trkpt lat="45.09087" lon="6.16126">
        <ele>1554</ele>
        <time>2024-08-09T12:33:43Z</time>
      </trkpt>
      <trkpt lat="45.09087" lon="6.16126">
        <ele>1553.8</ele>
        <time>2024-08-09T12:33:44Z</time>
      </trkpt>
      <trkpt lat="45.09086" lon="6.16129">
        <ele>1553.8</ele>
        <time>2024-08-09T12:33:45Z</time>
      </trkpt>
      <trkpt lat="45.09086" lon="6.16129">
        <ele>1553.4</ele>
        <time>2024-08-09T12:33:46Z</time>
      </trkpt>
      <trkpt lat="45.09086" lon="6.16129">
        <ele>1553</ele>
        <time>2024-08-09T12:33:47Z</time>
      </trkpt>
      <trkpt lat="45.09085" lon="6.16133">
        <ele>1552.8</ele>
        <time>2024-08-09T12:33:48Z</time>
      </trkpt>
      <trkpt lat="45.09085" lon="6.16133">
        <ele>1552.8</ele>
        <time>2024-08-09T12:33:49Z</time>
      </trkpt>
      <trkpt lat="45.09085" lon="6.16136">
        <ele>1552.6</ele>
        <time>2024-08-09T12:33:50Z</time>
      </trkpt>
      <trkpt lat="45.09085" lon="6.16136">
        <ele>1552.6</ele>
        <time>2024-08-09T12:33:51Z</time>
      </trkpt>
      <trkpt lat="45.09085" lon="6.16139">
        <ele>1552.2</ele>
        <time>2024-08-09T12:33:52Z</time>
      </trkpt>
      <trkpt lat="45.09085" lon="6.16139">
        <ele>1552</ele>
        <time>2024-08-09T12:33:53Z</time>
      </trkpt>
      <trkpt lat="45.09085" lon="6.16142">
        <ele>1551.8</ele>
        <time>2024-08-09T12:33:54Z</time>
      </trkpt>
      <trkpt lat="45.09085" lon="6.16142">
        <ele>1551.8</ele>
        <time>2024-08-09T12:33:55Z</time>
      </trkpt>
      <trkpt lat="45.09085" lon="6.16144">
        <ele>1551.6</ele>
        <time>2024-08-09T12:33:56Z</time>
      </trkpt>
      <trkpt lat="45.09085" lon="6.16144">
        <ele>1551.4</ele>
        <time>2024-08-09T12:33:57Z</time>
      </trkpt>
      <trkpt lat="45.09085" lon="6.16147">
        <ele>1551</ele>
        <time>2024-08-09T12:33:58Z</time>
      </trkpt>
      <trkpt lat="45.09085" lon="6.16147">
        <ele>1550.8</ele>
        <time>2024-08-09T12:33:59Z</time>
      </trkpt>
      <trkpt lat="45.09085" lon="6.1615">
        <ele>1550.6</ele>
        <time>2024-08-09T12:34:00Z</time>
      </trkpt>
      <trkpt lat="45.09085" lon="6.1615">
        <ele>1550.2</ele>
        <time>2024-08-09T12:34:01Z</time>
      </trkpt>
      <trkpt lat="45.09085" lon="6.16153">
        <ele>1550.2</ele>
        <time>2024-08-09T12:34:02Z</time>
      </trkpt>
      <trkpt lat="45.09085" lon="6.16153">
        <ele>1550.2</ele>
        <time>2024-08-09T12:34:03Z</time>
      </trkpt>
      <trkpt lat="45.09085" lon="6.16156">
        <ele>1549.8</ele>
        <time>2024-08-09T12:34:04Z</time>
      </trkpt>
      <trkpt lat="45.09085" lon="6.16156">
        <ele>1549.4</ele>
        <time>2024-08-09T12:34:05Z</time>
      </trkpt>
      <trkpt lat="45.09085" lon="6.16159">
        <ele>1549</ele>
        <time>2024-08-09T12:34:06Z</time>
      </trkpt>
      <trkpt lat="45.09085" lon="6.16159">
        <ele>1548.6</ele>
        <time>2024-08-09T12:34:07Z</time>
      </trkpt>
      <trkpt lat="45.09085" lon="6.16163">
        <ele>1548.6</ele>
        <time>2024-08-09T12:34:08Z</time>
      </trkpt>
      <trkpt lat="45.09085" lon="6.16163">
        <ele>1548.6</ele>
        <time>2024-08-09T12:34:09Z</time>
      </trkpt>
      <trkpt lat="45.09085" lon="6.16166">
        <ele>1548.2</ele>
        <time>2024-08-09T12:34:10Z</time>
      </trkpt>
      <trkpt lat="45.09085" lon="6.16166">
        <ele>1547.6</ele>
        <time>2024-08-09T12:34:11Z</time>
      </trkpt>
      <trkpt lat="45.09084" lon="6.16168">
        <ele>1547.4</ele>
        <time>2024-08-09T12:34:12Z</time>
      </trkpt>
      <trkpt lat="45.09084" lon="6.16168">
        <ele>1547.2</ele>
        <time>2024-08-09T12:34:13Z</time>
      </trkpt>
      <trkpt lat="45.09083" lon="6.16172">
        <ele>1547.2</ele>
        <time>2024-08-09T12:34:14Z</time>
      </trkpt>
      <trkpt lat="45.09083" lon="6.16172">
        <ele>1547</ele>
        <time>2024-08-09T12:34:15Z</time>
      </trkpt>
      <trkpt lat="45.09081" lon="6.16173">
        <ele>1546.8</ele>
        <time>2024-08-09T12:34:16Z</time>
      </trkpt>
      <trkpt lat="45.09081" lon="6.16173">
        <ele>1546.4</ele>
        <time>2024-08-09T12:34:17Z</time>
      </trkpt>
      <trkpt lat="45.09079" lon="6.16175">
        <ele>1546.2</ele>
        <time>2024-08-09T12:34:18Z</time>
      </trkpt>
      <trkpt lat="45.09079" lon="6.16175">
        <ele>1545.8</ele>
        <time>2024-08-09T12:34:19Z</time>
      </trkpt>
      <trkpt lat="45.09077" lon="6.16177">
        <ele>1545.8</ele>
        <time>2024-08-09T12:34:20Z</time>
      </trkpt>
      <trkpt lat="45.09077" lon="6.16177">
        <ele>1545.6</ele>
        <time>2024-08-09T12:34:21Z</time>
      </trkpt>
      <trkpt lat="45.09077" lon="6.16177">
        <ele>1545.2</ele>
        <time>2024-08-09T12:34:22Z</time>
      </trkpt>
      <trkpt lat="45.09077" lon="6.16177">
        <ele>1545</ele>
        <time>2024-08-09T12:34:23Z</time>
      </trkpt>
      <trkpt lat="45.09076" lon="6.16179">
        <ele>1545</ele>
        <time>2024-08-09T12:34:24Z</time>
      </trkpt>
      <trkpt lat="45.09076" lon="6.16179">
        <ele>1544.8</ele>
        <time>2024-08-09T12:34:25Z</time>
      </trkpt>
      <trkpt lat="45.09076" lon="6.16182">
        <ele>1544.6</ele>
        <time>2024-08-09T12:34:26Z</time>
      </trkpt>
      <trkpt lat="45.09076" lon="6.16182">
        <ele>1544.6</ele>
        <time>2024-08-09T12:34:27Z</time>
      </trkpt>
      <trkpt lat="45.09074" lon="6.16184">
        <ele>1544.4</ele>
        <time>2024-08-09T12:34:28Z</time>
      </trkpt>
      <trkpt lat="45.09074" lon="6.16184">
        <ele>1544.2</ele>
        <time>2024-08-09T12:34:29Z</time>
      </trkpt>
      <trkpt lat="45.09074" lon="6.16184">
        <ele>1543.8</ele>
        <time>2024-08-09T12:34:30Z</time>
      </trkpt>
      <trkpt lat="45.09071" lon="6.16186">
        <ele>1543.8</ele>
        <time>2024-08-09T12:34:31Z</time>
      </trkpt>
      <trkpt lat="45.09071" lon="6.16186">
        <ele>1543.6</ele>
        <time>2024-08-09T12:34:32Z</time>
      </trkpt>
      <trkpt lat="45.0907" lon="6.16188">
        <ele>1543.4</ele>
        <time>2024-08-09T12:34:33Z</time>
      </trkpt>
      <trkpt lat="45.0907" lon="6.16188">
        <ele>1543.4</ele>
        <time>2024-08-09T12:34:34Z</time>
      </trkpt>
      <trkpt lat="45.0907" lon="6.16191">
        <ele>1543.2</ele>
        <time>2024-08-09T12:34:35Z</time>
      </trkpt>
      <trkpt lat="45.0907" lon="6.16191">
        <ele>1543.2</ele>
        <time>2024-08-09T12:34:36Z</time>
      </trkpt>
      <trkpt lat="45.0907" lon="6.16191">
        <ele>1542.8</ele>
        <time>2024-08-09T12:34:37Z</time>
      </trkpt>
      <trkpt lat="45.0907" lon="6.16191">
        <ele>1542.6</ele>
        <time>2024-08-09T12:34:38Z</time>
      </trkpt>
      <trkpt lat="45.09069" lon="6.16193">
        <ele>1542.6</ele>
        <time>2024-08-09T12:34:39Z</time>
      </trkpt>
      <trkpt lat="45.09069" lon="6.16193">
        <ele>1542.4</ele>
        <time>2024-08-09T12:34:40Z</time>
      </trkpt>
      <trkpt lat="45.0907" lon="6.16196">
        <ele>1542.4</ele>
        <time>2024-08-09T12:34:41Z</time>
      </trkpt>
      <trkpt lat="45.0907" lon="6.16196">
        <ele>1542.2</ele>
        <time>2024-08-09T12:34:42Z</time>
      </trkpt>
      <trkpt lat="45.0907" lon="6.16196">
        <ele>1541.8</ele>
        <time>2024-08-09T12:34:43Z</time>
      </trkpt>
      <trkpt lat="45.09069" lon="6.16199">
        <ele>1541.4</ele>
        <time>2024-08-09T12:34:44Z</time>
      </trkpt>
      <trkpt lat="45.09069" lon="6.16199">
        <ele>1541.4</ele>
        <time>2024-08-09T12:34:45Z</time>
      </trkpt>
      <trkpt lat="45.09067" lon="6.16201">
        <ele>1541</ele>
        <time>2024-08-09T12:34:46Z</time>
      </trkpt>
      <trkpt lat="45.09067" lon="6.16201">
        <ele>1540.4</ele>
        <time>2024-08-09T12:34:47Z</time>
      </trkpt>
      <trkpt lat="45.09067" lon="6.16201">
        <ele>1540.4</ele>
        <time>2024-08-09T12:34:48Z</time>
      </trkpt>
      <trkpt lat="45.09066" lon="6.16203">
        <ele>1540.2</ele>
        <time>2024-08-09T12:34:49Z</time>
      </trkpt>
      <trkpt lat="45.09066" lon="6.16203">
        <ele>1539.8</ele>
        <time>2024-08-09T12:34:50Z</time>
      </trkpt>
      <trkpt lat="45.09066" lon="6.16203">
        <ele>1539.6</ele>
        <time>2024-08-09T12:34:51Z</time>
      </trkpt>
      <trkpt lat="45.09064" lon="6.16206">
        <ele>1539.4</ele>
        <time>2024-08-09T12:34:52Z</time>
      </trkpt>
      <trkpt lat="45.09064" lon="6.16206">
        <ele>1539.2</ele>
        <time>2024-08-09T12:34:53Z</time>
      </trkpt>
      <trkpt lat="45.09064" lon="6.16206">
        <ele>1539</ele>
        <time>2024-08-09T12:34:54Z</time>
      </trkpt>
      <trkpt lat="45.09063" lon="6.16209">
        <ele>1538.8</ele>
        <time>2024-08-09T12:34:55Z</time>
      </trkpt>
      <trkpt lat="45.09063" lon="6.16209">
        <ele>1538.6</ele>
        <time>2024-08-09T12:34:56Z</time>
      </trkpt>
      <trkpt lat="45.09062" lon="6.16211">
        <ele>1538.6</ele>
        <time>2024-08-09T12:34:57Z</time>
      </trkpt>
      <trkpt lat="45.09062" lon="6.16211">
        <ele>1538.6</ele>
        <time>2024-08-09T12:34:58Z</time>
      </trkpt>
      <trkpt lat="45.09061" lon="6.16214">
        <ele>1538</ele>
        <time>2024-08-09T12:34:59Z</time>
      </trkpt>
      <trkpt lat="45.09061" lon="6.16214">
        <ele>1537.8</ele>
        <time>2024-08-09T12:35:00Z</time>
      </trkpt>
      <trkpt lat="45.0906" lon="6.16216">
        <ele>1537.6</ele>
        <time>2024-08-09T12:35:01Z</time>
      </trkpt>
      <trkpt lat="45.0906" lon="6.16216">
        <ele>1537.2</ele>
        <time>2024-08-09T12:35:02Z</time>
      </trkpt>
      <trkpt lat="45.09059" lon="6.16218">
        <ele>1537.2</ele>
        <time>2024-08-09T12:35:03Z</time>
      </trkpt>
      <trkpt lat="45.09059" lon="6.16218">
        <ele>1537.2</ele>
        <time>2024-08-09T12:35:04Z</time>
      </trkpt>
      <trkpt lat="45.09059" lon="6.16218">
        <ele>1537</ele>
        <time>2024-08-09T12:35:05Z</time>
      </trkpt>
      <trkpt lat="45.09058" lon="6.16222">
        <ele>1536.8</ele>
        <time>2024-08-09T12:35:06Z</time>
      </trkpt>
      <trkpt lat="45.09058" lon="6.16222">
        <ele>1536.6</ele>
        <time>2024-08-09T12:35:07Z</time>
      </trkpt>
      <trkpt lat="45.09058" lon="6.16222">
        <ele>1536.4</ele>
        <time>2024-08-09T12:35:08Z</time>
      </trkpt>
      <trkpt lat="45.09058" lon="6.16226">
        <ele>1536.4</ele>
        <time>2024-08-09T12:35:09Z</time>
      </trkpt>
      <trkpt lat="45.09058" lon="6.16226">
        <ele>1536</ele>
        <time>2024-08-09T12:35:10Z</time>
      </trkpt>
      <trkpt lat="45.09058" lon="6.16226">
        <ele>1535.6</ele>
        <time>2024-08-09T12:35:11Z</time>
      </trkpt>
      <trkpt lat="45.09056" lon="6.16228">
        <ele>1535.6</ele>
        <time>2024-08-09T12:35:12Z</time>
      </trkpt>
      <trkpt lat="45.09056" lon="6.16228">
        <ele>1535.6</ele>
        <time>2024-08-09T12:35:13Z</time>
      </trkpt>
      <trkpt lat="45.09056" lon="6.16228">
        <ele>1535.4</ele>
        <time>2024-08-09T12:35:14Z</time>
      </trkpt>
      <trkpt lat="45.09055" lon="6.16231">
        <ele>1535.2</ele>
        <time>2024-08-09T12:35:15Z</time>
      </trkpt>
      <trkpt lat="45.09055" lon="6.16231">
        <ele>1535</ele>
        <time>2024-08-09T12:35:16Z</time>
      </trkpt>
      <trkpt lat="45.09054" lon="6.16234">
        <ele>1534.4</ele>
        <time>2024-08-09T12:35:17Z</time>
      </trkpt>
      <trkpt lat="45.09054" lon="6.16234">
        <ele>1534.4</ele>
        <time>2024-08-09T12:35:18Z</time>
      </trkpt>
      <trkpt lat="45.09054" lon="6.16234">
        <ele>1534</ele>
        <time>2024-08-09T12:35:19Z</time>
      </trkpt>
      <trkpt lat="45.09054" lon="6.16237">
        <ele>1533.8</ele>
        <time>2024-08-09T12:35:20Z</time>
      </trkpt>
      <trkpt lat="45.09054" lon="6.16237">
        <ele>1533.6</ele>
        <time>2024-08-09T12:35:21Z</time>
      </trkpt>
      <trkpt lat="45.09054" lon="6.16237">
        <ele>1533.2</ele>
        <time>2024-08-09T12:35:22Z</time>
      </trkpt>
      <trkpt lat="45.09053" lon="6.1624">
        <ele>1533.2</ele>
        <time>2024-08-09T12:35:23Z</time>
      </trkpt>
      <trkpt lat="45.09053" lon="6.1624">
        <ele>1532.8</ele>
        <time>2024-08-09T12:35:24Z</time>
      </trkpt>
      <trkpt lat="45.09053" lon="6.1624">
        <ele>1532.6</ele>
        <time>2024-08-09T12:35:25Z</time>
      </trkpt>
      <trkpt lat="45.09053" lon="6.16243">
        <ele>1532.4</ele>
        <time>2024-08-09T12:35:26Z</time>
      </trkpt>
      <trkpt lat="45.09053" lon="6.16243">
        <ele>1532.2</ele>
        <time>2024-08-09T12:35:27Z</time>
      </trkpt>
      <trkpt lat="45.09053" lon="6.16243">
        <ele>1531.8</ele>
        <time>2024-08-09T12:35:28Z</time>
      </trkpt>
      <trkpt lat="45.09052" lon="6.16246">
        <ele>1531.2</ele>
        <time>2024-08-09T12:35:29Z</time>
      </trkpt>
      <trkpt lat="45.09052" lon="6.16246">
        <ele>1531</ele>
        <time>2024-08-09T12:35:30Z</time>
      </trkpt>
      <trkpt lat="45.09052" lon="6.16249">
        <ele>1530.8</ele>
        <time>2024-08-09T12:35:31Z</time>
      </trkpt>
      <trkpt lat="45.09052" lon="6.16249">
        <ele>1530.6</ele>
        <time>2024-08-09T12:35:32Z</time>
      </trkpt>
      <trkpt lat="45.0905" lon="6.16252">
        <ele>1530.4</ele>
        <time>2024-08-09T12:35:33Z</time>
      </trkpt>
      <trkpt lat="45.0905" lon="6.16252">
        <ele>1530</ele>
        <time>2024-08-09T12:35:34Z</time>
      </trkpt>
      <trkpt lat="45.0905" lon="6.16252">
        <ele>1530</ele>
        <time>2024-08-09T12:35:35Z</time>
      </trkpt>
      <trkpt lat="45.0905" lon="6.16255">
        <ele>1529.6</ele>
        <time>2024-08-09T12:35:36Z</time>
      </trkpt>
      <trkpt lat="45.0905" lon="6.16255">
        <ele>1529.4</ele>
        <time>2024-08-09T12:35:37Z</time>
      </trkpt>
      <trkpt lat="45.09051" lon="6.16258">
        <ele>1528.8</ele>
        <time>2024-08-09T12:35:38Z</time>
      </trkpt>
      <trkpt lat="45.09051" lon="6.16258">
        <ele>1528.8</ele>
        <time>2024-08-09T12:35:39Z</time>
      </trkpt>
      <trkpt lat="45.09051" lon="6.16258">
        <ele>1528.6</ele>
        <time>2024-08-09T12:35:40Z</time>
      </trkpt>
      <trkpt lat="45.09052" lon="6.16262">
        <ele>1528</ele>
        <time>2024-08-09T12:35:41Z</time>
      </trkpt>
      <trkpt lat="45.09052" lon="6.16262">
        <ele>1528</ele>
        <time>2024-08-09T12:35:42Z</time>
      </trkpt>
      <trkpt lat="45.09052" lon="6.16265">
        <ele>1527.6</ele>
        <time>2024-08-09T12:35:43Z</time>
      </trkpt>
      <trkpt lat="45.09052" lon="6.16265">
        <ele>1527</ele>
        <time>2024-08-09T12:35:44Z</time>
      </trkpt>
      <trkpt lat="45.09052" lon="6.16268">
        <ele>1527</ele>
        <time>2024-08-09T12:35:45Z</time>
      </trkpt>
      <trkpt lat="45.09052" lon="6.16268">
        <ele>1526.6</ele>
        <time>2024-08-09T12:35:46Z</time>
      </trkpt>
      <trkpt lat="45.09052" lon="6.16268">
        <ele>1526.2</ele>
        <time>2024-08-09T12:35:47Z</time>
      </trkpt>
      <trkpt lat="45.09052" lon="6.16271">
        <ele>1525.6</ele>
        <time>2024-08-09T12:35:48Z</time>
      </trkpt>
      <trkpt lat="45.09052" lon="6.16271">
        <ele>1525.6</ele>
        <time>2024-08-09T12:35:49Z</time>
      </trkpt>
      <trkpt lat="45.09053" lon="6.16274">
        <ele>1525.6</ele>
        <time>2024-08-09T12:35:50Z</time>
      </trkpt>
      <trkpt lat="45.09053" lon="6.16274">
        <ele>1525.2</ele>
        <time>2024-08-09T12:35:51Z</time>
      </trkpt>
      <trkpt lat="45.09053" lon="6.16276">
        <ele>1524.8</ele>
        <time>2024-08-09T12:35:52Z</time>
      </trkpt>
      <trkpt lat="45.09053" lon="6.16276">
        <ele>1524.6</ele>
        <time>2024-08-09T12:35:53Z</time>
      </trkpt>
      <trkpt lat="45.09053" lon="6.16276">
        <ele>1524.4</ele>
        <time>2024-08-09T12:35:54Z</time>
      </trkpt>
      <trkpt lat="45.09054" lon="6.16279">
        <ele>1524</ele>
        <time>2024-08-09T12:35:55Z</time>
      </trkpt>
      <trkpt lat="45.09054" lon="6.16279">
        <ele>1523.6</ele>
        <time>2024-08-09T12:35:56Z</time>
      </trkpt>
      <trkpt lat="45.09054" lon="6.16279">
        <ele>1523.4</ele>
        <time>2024-08-09T12:35:57Z</time>
      </trkpt>
      <trkpt lat="45.09053" lon="6.16282">
        <ele>1523.2</ele>
        <time>2024-08-09T12:35:58Z</time>
      </trkpt>
      <trkpt lat="45.09053" lon="6.16282">
        <ele>1523</ele>
        <time>2024-08-09T12:35:59Z</time>
      </trkpt>
      <trkpt lat="45.09053" lon="6.16282">
        <ele>1522.6</ele>
        <time>2024-08-09T12:36:00Z</time>
      </trkpt>
      <trkpt lat="45.09053" lon="6.16285">
        <ele>1522.4</ele>
        <time>2024-08-09T12:36:01Z</time>
      </trkpt>
      <trkpt lat="45.09053" lon="6.16285">
        <ele>1522.2</ele>
        <time>2024-08-09T12:36:02Z</time>
      </trkpt>
      <trkpt lat="45.09053" lon="6.16285">
        <ele>1522.2</ele>
        <time>2024-08-09T12:36:03Z</time>
      </trkpt>
      <trkpt lat="45.09054" lon="6.16288">
        <ele>1521.8</ele>
        <time>2024-08-09T12:36:04Z</time>
      </trkpt>
      <trkpt lat="45.09054" lon="6.16288">
        <ele>1521.4</ele>
        <time>2024-08-09T12:36:05Z</time>
      </trkpt>
      <trkpt lat="45.09053" lon="6.16292">
        <ele>1520.8</ele>
        <time>2024-08-09T12:36:06Z</time>
      </trkpt>
      <trkpt lat="45.09053" lon="6.16292">
        <ele>1520.4</ele>
        <time>2024-08-09T12:36:07Z</time>
      </trkpt>
      <trkpt lat="45.09053" lon="6.16295">
        <ele>1520.2</ele>
        <time>2024-08-09T12:36:08Z</time>
      </trkpt>
      <trkpt lat="45.09053" lon="6.16295">
        <ele>1520.2</ele>
        <time>2024-08-09T12:36:09Z</time>
      </trkpt>
      <trkpt lat="45.09052" lon="6.16298">
        <ele>1520.2</ele>
        <time>2024-08-09T12:36:10Z</time>
      </trkpt>
      <trkpt lat="45.09052" lon="6.16298">
        <ele>1520.2</ele>
        <time>2024-08-09T12:36:11Z</time>
      </trkpt>
      <trkpt lat="45.09051" lon="6.16302">
        <ele>1519.6</ele>
        <time>2024-08-09T12:36:12Z</time>
      </trkpt>
      <trkpt lat="45.09051" lon="6.16302">
        <ele>1519</ele>
        <time>2024-08-09T12:36:13Z</time>
      </trkpt>
      <trkpt lat="45.0905" lon="6.16305">
        <ele>1518.4</ele>
        <time>2024-08-09T12:36:14Z</time>
      </trkpt>
      <trkpt lat="45.0905" lon="6.16305">
        <ele>1518.2</ele>
        <time>2024-08-09T12:36:15Z</time>
      </trkpt>
      <trkpt lat="45.0905" lon="6.16308">
        <ele>1518</ele>
        <time>2024-08-09T12:36:16Z</time>
      </trkpt>
      <trkpt lat="45.0905" lon="6.16308">
        <ele>1517.8</ele>
        <time>2024-08-09T12:36:17Z</time>
      </trkpt>
      <trkpt lat="45.0905" lon="6.16311">
        <ele>1517.4</ele>
        <time>2024-08-09T12:36:18Z</time>
      </trkpt>
      <trkpt lat="45.0905" lon="6.16311">
        <ele>1517.4</ele>
        <time>2024-08-09T12:36:19Z</time>
      </trkpt>
      <trkpt lat="45.09049" lon="6.16315">
        <ele>1517.2</ele>
        <time>2024-08-09T12:36:20Z</time>
      </trkpt>
      <trkpt lat="45.09049" lon="6.16315">
        <ele>1517.2</ele>
        <time>2024-08-09T12:36:21Z</time>
      </trkpt>
      <trkpt lat="45.09049" lon="6.16318">
        <ele>1516.8</ele>
        <time>2024-08-09T12:36:22Z</time>
      </trkpt>
      <trkpt lat="45.09049" lon="6.16318">
        <ele>1516.6</ele>
        <time>2024-08-09T12:36:23Z</time>
      </trkpt>
      <trkpt lat="45.09048" lon="6.1632">
        <ele>1516.4</ele>
        <time>2024-08-09T12:36:24Z</time>
      </trkpt>
      <trkpt lat="45.09048" lon="6.1632">
        <ele>1516.2</ele>
        <time>2024-08-09T12:36:25Z</time>
      </trkpt>
      <trkpt lat="45.09048" lon="6.1632">
        <ele>1516.2</ele>
        <time>2024-08-09T12:36:26Z</time>
      </trkpt>
      <trkpt lat="45.09048" lon="6.1632">
        <ele>1516</ele>
        <time>2024-08-09T12:36:27Z</time>
      </trkpt>
      <trkpt lat="45.09048" lon="6.1632">
        <ele>1515.8</ele>
        <time>2024-08-09T12:36:28Z</time>
      </trkpt>
      <trkpt lat="45.09046" lon="6.16323">
        <ele>1515.8</ele>
        <time>2024-08-09T12:36:29Z</time>
      </trkpt>
      <trkpt lat="45.09046" lon="6.16323">
        <ele>1515.8</ele>
        <time>2024-08-09T12:36:30Z</time>
      </trkpt>
      <trkpt lat="45.09046" lon="6.16325">
        <ele>1515.8</ele>
        <time>2024-08-09T12:36:31Z</time>
      </trkpt>
      <trkpt lat="45.09046" lon="6.16325">
        <ele>1515.6</ele>
        <time>2024-08-09T12:36:32Z</time>
      </trkpt>
      <trkpt lat="45.09045" lon="6.16329">
        <ele>1515.4</ele>
        <time>2024-08-09T12:36:33Z</time>
      </trkpt>
      <trkpt lat="45.09045" lon="6.16329">
        <ele>1515.4</ele>
        <time>2024-08-09T12:36:34Z</time>
      </trkpt>
      <trkpt lat="45.09044" lon="6.16332">
        <ele>1515.4</ele>
        <time>2024-08-09T12:36:35Z</time>
      </trkpt>
      <trkpt lat="45.09044" lon="6.16332">
        <ele>1515.2</ele>
        <time>2024-08-09T12:36:36Z</time>
      </trkpt>
      <trkpt lat="45.09042" lon="6.16335">
        <ele>1514.8</ele>
        <time>2024-08-09T12:36:37Z</time>
      </trkpt>
      <trkpt lat="45.09042" lon="6.16335">
        <ele>1514.6</ele>
        <time>2024-08-09T12:36:38Z</time>
      </trkpt>
      <trkpt lat="45.0904" lon="6.16338">
        <ele>1514.4</ele>
        <time>2024-08-09T12:36:39Z</time>
      </trkpt>
      <trkpt lat="45.0904" lon="6.16338">
        <ele>1514.2</ele>
        <time>2024-08-09T12:36:40Z</time>
      </trkpt>
      <trkpt lat="45.09039" lon="6.16341">
        <ele>1514</ele>
        <time>2024-08-09T12:36:41Z</time>
      </trkpt>
      <trkpt lat="45.09039" lon="6.16341">
        <ele>1513.8</ele>
        <time>2024-08-09T12:36:42Z</time>
      </trkpt>
      <trkpt lat="45.09037" lon="6.16344">
        <ele>1513.8</ele>
        <time>2024-08-09T12:36:43Z</time>
      </trkpt>
      <trkpt lat="45.09037" lon="6.16344">
        <ele>1513.4</ele>
        <time>2024-08-09T12:36:44Z</time>
      </trkpt>
      <trkpt lat="45.09036" lon="6.16347">
        <ele>1513.2</ele>
        <time>2024-08-09T12:36:45Z</time>
      </trkpt>
      <trkpt lat="45.09036" lon="6.16347">
        <ele>1513</ele>
        <time>2024-08-09T12:36:46Z</time>
      </trkpt>
      <trkpt lat="45.09034" lon="6.1635">
        <ele>1512.8</ele>
        <time>2024-08-09T12:36:47Z</time>
      </trkpt>
      <trkpt lat="45.09034" lon="6.1635">
        <ele>1512.4</ele>
        <time>2024-08-09T12:36:48Z</time>
      </trkpt>
      <trkpt lat="45.09033" lon="6.16354">
        <ele>1512.4</ele>
        <time>2024-08-09T12:36:49Z</time>
      </trkpt>
      <trkpt lat="45.09033" lon="6.16354">
        <ele>1512</ele>
        <time>2024-08-09T12:36:50Z</time>
      </trkpt>
      <trkpt lat="45.09032" lon="6.16357">
        <ele>1511.8</ele>
        <time>2024-08-09T12:36:51Z</time>
      </trkpt>
      <trkpt lat="45.09032" lon="6.16357">
        <ele>1511.6</ele>
        <time>2024-08-09T12:36:52Z</time>
      </trkpt>
      <trkpt lat="45.0903" lon="6.16361">
        <ele>1511.4</ele>
        <time>2024-08-09T12:36:53Z</time>
      </trkpt>
      <trkpt lat="45.0903" lon="6.16361">
        <ele>1511</ele>
        <time>2024-08-09T12:36:54Z</time>
      </trkpt>
      <trkpt lat="45.09029" lon="6.16364">
        <ele>1510.8</ele>
        <time>2024-08-09T12:36:55Z</time>
      </trkpt>
      <trkpt lat="45.09029" lon="6.16364">
        <ele>1510.8</ele>
        <time>2024-08-09T12:36:56Z</time>
      </trkpt>
      <trkpt lat="45.09028" lon="6.16367">
        <ele>1510.8</ele>
        <time>2024-08-09T12:36:57Z</time>
      </trkpt>
      <trkpt lat="45.09028" lon="6.16367">
        <ele>1510.4</ele>
        <time>2024-08-09T12:36:58Z</time>
      </trkpt>
      <trkpt lat="45.09026" lon="6.1637">
        <ele>1509.8</ele>
        <time>2024-08-09T12:36:59Z</time>
      </trkpt>
      <trkpt lat="45.09026" lon="6.1637">
        <ele>1509.6</ele>
        <time>2024-08-09T12:37:00Z</time>
      </trkpt>
      <trkpt lat="45.09024" lon="6.16373">
        <ele>1509.6</ele>
        <time>2024-08-09T12:37:01Z</time>
      </trkpt>
      <trkpt lat="45.09024" lon="6.16373">
        <ele>1509.6</ele>
        <time>2024-08-09T12:37:02Z</time>
      </trkpt>
      <trkpt lat="45.09023" lon="6.16377">
        <ele>1509.6</ele>
        <time>2024-08-09T12:37:03Z</time>
      </trkpt>
      <trkpt lat="45.09023" lon="6.16377">
        <ele>1509.4</ele>
        <time>2024-08-09T12:37:04Z</time>
      </trkpt>
      <trkpt lat="45.09022" lon="6.16379">
        <ele>1509.4</ele>
        <time>2024-08-09T12:37:05Z</time>
      </trkpt>
      <trkpt lat="45.09022" lon="6.16379">
        <ele>1509.4</ele>
        <time>2024-08-09T12:37:06Z</time>
      </trkpt>
      <trkpt lat="45.09022" lon="6.16379">
        <ele>1509.2</ele>
        <time>2024-08-09T12:37:07Z</time>
      </trkpt>
      <trkpt lat="45.09021" lon="6.16382">
        <ele>1509.2</ele>
        <time>2024-08-09T12:37:08Z</time>
      </trkpt>
      <trkpt lat="45.09021" lon="6.16382">
        <ele>1509.2</ele>
        <time>2024-08-09T12:37:09Z</time>
      </trkpt>
      <trkpt lat="45.09021" lon="6.16382">
        <ele>1509.4</ele>
        <time>2024-08-09T12:37:10Z</time>
      </trkpt>
      <trkpt lat="45.09021" lon="6.16385">
        <ele>1509.4</ele>
        <time>2024-08-09T12:37:11Z</time>
      </trkpt>
      <trkpt lat="45.09021" lon="6.16385">
        <ele>1509.4</ele>
        <time>2024-08-09T12:37:12Z</time>
      </trkpt>
      <trkpt lat="45.09021" lon="6.16385">
        <ele>1509</ele>
        <time>2024-08-09T12:37:13Z</time>
      </trkpt>
      <trkpt lat="45.09022" lon="6.16389">
        <ele>1508.8</ele>
        <time>2024-08-09T12:37:14Z</time>
      </trkpt>
      <trkpt lat="45.09022" lon="6.16389">
        <ele>1508.6</ele>
        <time>2024-08-09T12:37:15Z</time>
      </trkpt>
      <trkpt lat="45.09022" lon="6.16392">
        <ele>1508.4</ele>
        <time>2024-08-09T12:37:16Z</time>
      </trkpt>
      <trkpt lat="45.09022" lon="6.16392">
        <ele>1508.2</ele>
        <time>2024-08-09T12:37:17Z</time>
      </trkpt>
      <trkpt lat="45.0902" lon="6.16395">
        <ele>1508</ele>
        <time>2024-08-09T12:37:18Z</time>
      </trkpt>
      <trkpt lat="45.0902" lon="6.16395">
        <ele>1507.6</ele>
        <time>2024-08-09T12:37:19Z</time>
      </trkpt>
      <trkpt lat="45.09019" lon="6.16397">
        <ele>1507.6</ele>
        <time>2024-08-09T12:37:20Z</time>
      </trkpt>
      <trkpt lat="45.09019" lon="6.16397">
        <ele>1506.8</ele>
        <time>2024-08-09T12:37:21Z</time>
      </trkpt>
      <trkpt lat="45.09018" lon="6.16399">
        <ele>1506.8</ele>
        <time>2024-08-09T12:37:22Z</time>
      </trkpt>
      <trkpt lat="45.09018" lon="6.16399">
        <ele>1506.4</ele>
        <time>2024-08-09T12:37:23Z</time>
      </trkpt>
      <trkpt lat="45.09016" lon="6.16401">
        <ele>1506</ele>
        <time>2024-08-09T12:37:24Z</time>
      </trkpt>
      <trkpt lat="45.09016" lon="6.16401">
        <ele>1505.8</ele>
        <time>2024-08-09T12:37:25Z</time>
      </trkpt>
      <trkpt lat="45.09014" lon="6.16403">
        <ele>1505.6</ele>
        <time>2024-08-09T12:37:26Z</time>
      </trkpt>
      <trkpt lat="45.09014" lon="6.16403">
        <ele>1505.4</ele>
        <time>2024-08-09T12:37:27Z</time>
      </trkpt>
      <trkpt lat="45.09012" lon="6.16404">
        <ele>1505.2</ele>
        <time>2024-08-09T12:37:28Z</time>
      </trkpt>
      <trkpt lat="45.09012" lon="6.16404">
        <ele>1504.8</ele>
        <time>2024-08-09T12:37:29Z</time>
      </trkpt>
      <trkpt lat="45.09011" lon="6.16405">
        <ele>1504.8</ele>
        <time>2024-08-09T12:37:30Z</time>
      </trkpt>
      <trkpt lat="45.09011" lon="6.16405">
        <ele>1504.6</ele>
        <time>2024-08-09T12:37:31Z</time>
      </trkpt>
      <trkpt lat="45.09011" lon="6.16405">
        <ele>1504.4</ele>
        <time>2024-08-09T12:37:32Z</time>
      </trkpt>
      <trkpt lat="45.09009" lon="6.16409">
        <ele>1503.8</ele>
        <time>2024-08-09T12:37:33Z</time>
      </trkpt>
      <trkpt lat="45.09009" lon="6.16409">
        <ele>1503.6</ele>
        <time>2024-08-09T12:37:34Z</time>
      </trkpt>
      <trkpt lat="45.09007" lon="6.16411">
        <ele>1503.2</ele>
        <time>2024-08-09T12:37:35Z</time>
      </trkpt>
      <trkpt lat="45.09007" lon="6.16411">
        <ele>1502.8</ele>
        <time>2024-08-09T12:37:36Z</time>
      </trkpt>
      <trkpt lat="45.09005" lon="6.16413">
        <ele>1502.4</ele>
        <time>2024-08-09T12:37:37Z</time>
      </trkpt>
      <trkpt lat="45.09005" lon="6.16413">
        <ele>1502.2</ele>
        <time>2024-08-09T12:37:38Z</time>
      </trkpt>
      <trkpt lat="45.09003" lon="6.16415">
        <ele>1501.6</ele>
        <time>2024-08-09T12:37:39Z</time>
      </trkpt>
      <trkpt lat="45.09003" lon="6.16415">
        <ele>1501.2</ele>
        <time>2024-08-09T12:37:40Z</time>
      </trkpt>
      <trkpt lat="45.09001" lon="6.16417">
        <ele>1501</ele>
        <time>2024-08-09T12:37:41Z</time>
      </trkpt>
      <trkpt lat="45.09001" lon="6.16417">
        <ele>1500.8</ele>
        <time>2024-08-09T12:37:42Z</time>
      </trkpt>
      <trkpt lat="45.08999" lon="6.16419">
        <ele>1500.8</ele>
        <time>2024-08-09T12:37:43Z</time>
      </trkpt>
      <trkpt lat="45.08999" lon="6.16419">
        <ele>1500.6</ele>
        <time>2024-08-09T12:37:44Z</time>
      </trkpt>
      <trkpt lat="45.08998" lon="6.16422">
        <ele>1500.4</ele>
        <time>2024-08-09T12:37:45Z</time>
      </trkpt>
      <trkpt lat="45.08998" lon="6.16422">
        <ele>1500.2</ele>
        <time>2024-08-09T12:37:46Z</time>
      </trkpt>
      <trkpt lat="45.08996" lon="6.16424">
        <ele>1500</ele>
        <time>2024-08-09T12:37:47Z</time>
      </trkpt>
      <trkpt lat="45.08996" lon="6.16424">
        <ele>1500</ele>
        <time>2024-08-09T12:37:48Z</time>
      </trkpt>
      <trkpt lat="45.08994" lon="6.16426">
        <ele>1499.4</ele>
        <time>2024-08-09T12:37:49Z</time>
      </trkpt>
      <trkpt lat="45.08994" lon="6.16426">
        <ele>1499.4</ele>
        <time>2024-08-09T12:37:50Z</time>
      </trkpt>
      <trkpt lat="45.08992" lon="6.16428">
        <ele>1499.4</ele>
        <time>2024-08-09T12:37:51Z</time>
      </trkpt>
      <trkpt lat="45.08992" lon="6.16428">
        <ele>1499.2</ele>
        <time>2024-08-09T12:37:52Z</time>
      </trkpt>
      <trkpt lat="45.0899" lon="6.16429">
        <ele>1498.8</ele>
        <time>2024-08-09T12:37:53Z</time>
      </trkpt>
      <trkpt lat="45.0899" lon="6.16429">
        <ele>1498.6</ele>
        <time>2024-08-09T12:37:54Z</time>
      </trkpt>
      <trkpt lat="45.08989" lon="6.16431">
        <ele>1498.2</ele>
        <time>2024-08-09T12:37:55Z</time>
      </trkpt>
      <trkpt lat="45.08989" lon="6.16431">
        <ele>1498</ele>
        <time>2024-08-09T12:37:56Z</time>
      </trkpt>
      <trkpt lat="45.08987" lon="6.16431">
        <ele>1497.8</ele>
        <time>2024-08-09T12:37:57Z</time>
      </trkpt>
      <trkpt lat="45.08987" lon="6.16431">
        <ele>1497.4</ele>
        <time>2024-08-09T12:37:58Z</time>
      </trkpt>
      <trkpt lat="45.08984" lon="6.16432">
        <ele>1497</ele>
        <time>2024-08-09T12:37:59Z</time>
      </trkpt>
      <trkpt lat="45.08984" lon="6.16432">
        <ele>1497</ele>
        <time>2024-08-09T12:38:00Z</time>
      </trkpt>
      <trkpt lat="45.08984" lon="6.16432">
        <ele>1496.6</ele>
        <time>2024-08-09T12:38:01Z</time>
      </trkpt>
      <trkpt lat="45.08981" lon="6.16431">
        <ele>1495.8</ele>
        <time>2024-08-09T12:38:02Z</time>
      </trkpt>
      <trkpt lat="45.08981" lon="6.16431">
        <ele>1495.8</ele>
        <time>2024-08-09T12:38:03Z</time>
      </trkpt>
      <trkpt lat="45.0898" lon="6.16433">
        <ele>1495.8</ele>
        <time>2024-08-09T12:38:04Z</time>
      </trkpt>
      <trkpt lat="45.0898" lon="6.16433">
        <ele>1495.4</ele>
        <time>2024-08-09T12:38:05Z</time>
      </trkpt>
      <trkpt lat="45.08978" lon="6.16436">
        <ele>1495.4</ele>
        <time>2024-08-09T12:38:06Z</time>
      </trkpt>
      <trkpt lat="45.08978" lon="6.16436">
        <ele>1495.2</ele>
        <time>2024-08-09T12:38:07Z</time>
      </trkpt>
      <trkpt lat="45.08976" lon="6.16437">
        <ele>1495.2</ele>
        <time>2024-08-09T12:38:08Z</time>
      </trkpt>
      <trkpt lat="45.08976" lon="6.16437">
        <ele>1494.8</ele>
        <time>2024-08-09T12:38:09Z</time>
      </trkpt>
      <trkpt lat="45.08975" lon="6.16439">
        <ele>1494.6</ele>
        <time>2024-08-09T12:38:10Z</time>
      </trkpt>
      <trkpt lat="45.08975" lon="6.16439">
        <ele>1494.4</ele>
        <time>2024-08-09T12:38:11Z</time>
      </trkpt>
      <trkpt lat="45.08975" lon="6.16439">
        <ele>1494.4</ele>
        <time>2024-08-09T12:38:12Z</time>
      </trkpt>
      <trkpt lat="45.08972" lon="6.1644">
        <ele>1494</ele>
        <time>2024-08-09T12:38:13Z</time>
      </trkpt>
      <trkpt lat="45.08972" lon="6.1644">
        <ele>1493.8</ele>
        <time>2024-08-09T12:38:14Z</time>
      </trkpt>
      <trkpt lat="45.0897" lon="6.16441">
        <ele>1493.6</ele>
        <time>2024-08-09T12:38:15Z</time>
      </trkpt>
      <trkpt lat="45.0897" lon="6.16441">
        <ele>1493.2</ele>
        <time>2024-08-09T12:38:16Z</time>
      </trkpt>
      <trkpt lat="45.08968" lon="6.16442">
        <ele>1492.8</ele>
        <time>2024-08-09T12:38:17Z</time>
      </trkpt>
      <trkpt lat="45.08968" lon="6.16442">
        <ele>1492.6</ele>
        <time>2024-08-09T12:38:18Z</time>
      </trkpt>
      <trkpt lat="45.08965" lon="6.16443">
        <ele>1492.2</ele>
        <time>2024-08-09T12:38:19Z</time>
      </trkpt>
      <trkpt lat="45.08965" lon="6.16443">
        <ele>1491.8</ele>
        <time>2024-08-09T12:38:20Z</time>
      </trkpt>
      <trkpt lat="45.08964" lon="6.16442">
        <ele>1491.6</ele>
        <time>2024-08-09T12:38:21Z</time>
      </trkpt>
      <trkpt lat="45.08964" lon="6.16442">
        <ele>1491.4</ele>
        <time>2024-08-09T12:38:22Z</time>
      </trkpt>
      <trkpt lat="45.08964" lon="6.16442">
        <ele>1491</ele>
        <time>2024-08-09T12:38:23Z</time>
      </trkpt>
      <trkpt lat="45.08962" lon="6.16442">
        <ele>1490.6</ele>
        <time>2024-08-09T12:38:24Z</time>
      </trkpt>
      <trkpt lat="45.08962" lon="6.16442">
        <ele>1490.6</ele>
        <time>2024-08-09T12:38:25Z</time>
      </trkpt>
      <trkpt lat="45.08962" lon="6.16442">
        <ele>1490.4</ele>
        <time>2024-08-09T12:38:26Z</time>
      </trkpt>
      <trkpt lat="45.0896" lon="6.16441">
        <ele>1490.2</ele>
        <time>2024-08-09T12:38:27Z</time>
      </trkpt>
      <trkpt lat="45.0896" lon="6.16441">
        <ele>1490.2</ele>
        <time>2024-08-09T12:38:28Z</time>
      </trkpt>
      <trkpt lat="45.0896" lon="6.16441">
        <ele>1489.8</ele>
        <time>2024-08-09T12:38:29Z</time>
      </trkpt>
      <trkpt lat="45.08957" lon="6.16441">
        <ele>1489.4</ele>
        <time>2024-08-09T12:38:30Z</time>
      </trkpt>
      <trkpt lat="45.08957" lon="6.16441">
        <ele>1488.8</ele>
        <time>2024-08-09T12:38:31Z</time>
      </trkpt>
      <trkpt lat="45.08955" lon="6.16439">
        <ele>1488.4</ele>
        <time>2024-08-09T12:38:32Z</time>
      </trkpt>
      <trkpt lat="45.08955" lon="6.16439">
        <ele>1488</ele>
        <time>2024-08-09T12:38:33Z</time>
      </trkpt>
      <trkpt lat="45.08952" lon="6.16438">
        <ele>1487.8</ele>
        <time>2024-08-09T12:38:34Z</time>
      </trkpt>
      <trkpt lat="45.08952" lon="6.16438">
        <ele>1487.6</ele>
        <time>2024-08-09T12:38:35Z</time>
      </trkpt>
      <trkpt lat="45.0895" lon="6.16436">
        <ele>1487.6</ele>
        <time>2024-08-09T12:38:36Z</time>
      </trkpt>
      <trkpt lat="45.0895" lon="6.16436">
        <ele>1487</ele>
        <time>2024-08-09T12:38:37Z</time>
      </trkpt>
      <trkpt lat="45.08948" lon="6.16434">
        <ele>1486.6</ele>
        <time>2024-08-09T12:38:38Z</time>
      </trkpt>
      <trkpt lat="45.08948" lon="6.16434">
        <ele>1486.2</ele>
        <time>2024-08-09T12:38:39Z</time>
      </trkpt>
      <trkpt lat="45.08946" lon="6.16432">
        <ele>1486.2</ele>
        <time>2024-08-09T12:38:40Z</time>
      </trkpt>
      <trkpt lat="45.08946" lon="6.16432">
        <ele>1486</ele>
        <time>2024-08-09T12:38:41Z</time>
      </trkpt>
      <trkpt lat="45.08944" lon="6.16431">
        <ele>1486</ele>
        <time>2024-08-09T12:38:42Z</time>
      </trkpt>
      <trkpt lat="45.08944" lon="6.16431">
        <ele>1486</ele>
        <time>2024-08-09T12:38:43Z</time>
      </trkpt>
      <trkpt lat="45.08942" lon="6.16429">
        <ele>1485.6</ele>
        <time>2024-08-09T12:38:44Z</time>
      </trkpt>
      <trkpt lat="45.08942" lon="6.16429">
        <ele>1485.2</ele>
        <time>2024-08-09T12:38:45Z</time>
      </trkpt>
      <trkpt lat="45.08941" lon="6.16427">
        <ele>1485</ele>
        <time>2024-08-09T12:38:46Z</time>
      </trkpt>
      <trkpt lat="45.08941" lon="6.16427">
        <ele>1484.8</ele>
        <time>2024-08-09T12:38:47Z</time>
      </trkpt>
      <trkpt lat="45.0894" lon="6.16426">
        <ele>1484.8</ele>
        <time>2024-08-09T12:38:48Z</time>
      </trkpt>
      <trkpt lat="45.0894" lon="6.16426">
        <ele>1484.4</ele>
        <time>2024-08-09T12:38:49Z</time>
      </trkpt>
      <trkpt lat="45.08937" lon="6.16424">
        <ele>1483.8</ele>
        <time>2024-08-09T12:38:50Z</time>
      </trkpt>
      <trkpt lat="45.08937" lon="6.16424">
        <ele>1483.8</ele>
        <time>2024-08-09T12:38:51Z</time>
      </trkpt>
      <trkpt lat="45.08935" lon="6.16423">
        <ele>1483.2</ele>
        <time>2024-08-09T12:38:52Z</time>
      </trkpt>
      <trkpt lat="45.08935" lon="6.16423">
        <ele>1482.8</ele>
        <time>2024-08-09T12:38:53Z</time>
      </trkpt>
      <trkpt lat="45.08933" lon="6.16421">
        <ele>1482.6</ele>
        <time>2024-08-09T12:38:54Z</time>
      </trkpt>
      <trkpt lat="45.08933" lon="6.16421">
        <ele>1482.4</ele>
        <time>2024-08-09T12:38:55Z</time>
      </trkpt>
      <trkpt lat="45.08932" lon="6.16419">
        <ele>1482</ele>
        <time>2024-08-09T12:38:56Z</time>
      </trkpt>
      <trkpt lat="45.08932" lon="6.16419">
        <ele>1481.8</ele>
        <time>2024-08-09T12:38:57Z</time>
      </trkpt>
      <trkpt lat="45.08931" lon="6.16417">
        <ele>1481.2</ele>
        <time>2024-08-09T12:38:58Z</time>
      </trkpt>
      <trkpt lat="45.08931" lon="6.16417">
        <ele>1481</ele>
        <time>2024-08-09T12:38:59Z</time>
      </trkpt>
      <trkpt lat="45.08931" lon="6.16417">
        <ele>1480.6</ele>
        <time>2024-08-09T12:39:00Z</time>
      </trkpt>
      <trkpt lat="45.08928" lon="6.16415">
        <ele>1480.6</ele>
        <time>2024-08-09T12:39:01Z</time>
      </trkpt>
      <trkpt lat="45.08928" lon="6.16415">
        <ele>1480</ele>
        <time>2024-08-09T12:39:02Z</time>
      </trkpt>
      <trkpt lat="45.08926" lon="6.16414">
        <ele>1480</ele>
        <time>2024-08-09T12:39:03Z</time>
      </trkpt>
      <trkpt lat="45.08924" lon="6.16413">
        <ele>1479.6</ele>
        <time>2024-08-09T12:39:04Z</time>
      </trkpt>
      <trkpt lat="45.08924" lon="6.16413">
        <ele>1479.4</ele>
        <time>2024-08-09T12:39:05Z</time>
      </trkpt>
      <trkpt lat="45.08921" lon="6.16411">
        <ele>1479.2</ele>
        <time>2024-08-09T12:39:06Z</time>
      </trkpt>
      <trkpt lat="45.08921" lon="6.16411">
        <ele>1479</ele>
        <time>2024-08-09T12:39:07Z</time>
      </trkpt>
      <trkpt lat="45.0892" lon="6.16408">
        <ele>1478.8</ele>
        <time>2024-08-09T12:39:08Z</time>
      </trkpt>
      <trkpt lat="45.0892" lon="6.16408">
        <ele>1478.8</ele>
        <time>2024-08-09T12:39:09Z</time>
      </trkpt>
      <trkpt lat="45.08918" lon="6.16405">
        <ele>1478.6</ele>
        <time>2024-08-09T12:39:10Z</time>
      </trkpt>
      <trkpt lat="45.08918" lon="6.16405">
        <ele>1478.6</ele>
        <time>2024-08-09T12:39:11Z</time>
      </trkpt>
      <trkpt lat="45.08916" lon="6.16402">
        <ele>1478.6</ele>
        <time>2024-08-09T12:39:12Z</time>
      </trkpt>
      <trkpt lat="45.08916" lon="6.16402">
        <ele>1478.6</ele>
        <time>2024-08-09T12:39:13Z</time>
      </trkpt>
      <trkpt lat="45.08914" lon="6.164">
        <ele>1478.4</ele>
        <time>2024-08-09T12:39:14Z</time>
      </trkpt>
      <trkpt lat="45.08914" lon="6.164">
        <ele>1478.2</ele>
        <time>2024-08-09T12:39:15Z</time>
      </trkpt>
      <trkpt lat="45.08911" lon="6.16398">
        <ele>1478.2</ele>
        <time>2024-08-09T12:39:16Z</time>
      </trkpt>
      <trkpt lat="45.08911" lon="6.16398">
        <ele>1478.2</ele>
        <time>2024-08-09T12:39:17Z</time>
      </trkpt>
      <trkpt lat="45.08909" lon="6.16395">
        <ele>1478.2</ele>
        <time>2024-08-09T12:39:18Z</time>
      </trkpt>
      <trkpt lat="45.08909" lon="6.16395">
        <ele>1478</ele>
        <time>2024-08-09T12:39:19Z</time>
      </trkpt>
      <trkpt lat="45.08907" lon="6.16393">
        <ele>1477.8</ele>
        <time>2024-08-09T12:39:20Z</time>
      </trkpt>
      <trkpt lat="45.08907" lon="6.16393">
        <ele>1477.8</ele>
        <time>2024-08-09T12:39:21Z</time>
      </trkpt>
      <trkpt lat="45.08905" lon="6.1639">
        <ele>1477.8</ele>
        <time>2024-08-09T12:39:22Z</time>
      </trkpt>
      <trkpt lat="45.08905" lon="6.1639">
        <ele>1478</ele>
        <time>2024-08-09T12:39:23Z</time>
      </trkpt>
      <trkpt lat="45.08902" lon="6.16388">
        <ele>1478.4</ele>
        <time>2024-08-09T12:39:24Z</time>
      </trkpt>
      <trkpt lat="45.08902" lon="6.16388">
        <ele>1478.4</ele>
        <time>2024-08-09T12:39:25Z</time>
      </trkpt>
      <trkpt lat="45.089" lon="6.16385">
        <ele>1478</ele>
        <time>2024-08-09T12:39:26Z</time>
      </trkpt>
      <trkpt lat="45.089" lon="6.16385">
        <ele>1477.8</ele>
        <time>2024-08-09T12:39:27Z</time>
      </trkpt>
      <trkpt lat="45.08897" lon="6.16384">
        <ele>1478</ele>
        <time>2024-08-09T12:39:28Z</time>
      </trkpt>
      <trkpt lat="45.08897" lon="6.16384">
        <ele>1478</ele>
        <time>2024-08-09T12:39:29Z</time>
      </trkpt>
      <trkpt lat="45.08895" lon="6.16383">
        <ele>1478</ele>
        <time>2024-08-09T12:39:30Z</time>
      </trkpt>
      <trkpt lat="45.08895" lon="6.16383">
        <ele>1477.6</ele>
        <time>2024-08-09T12:39:31Z</time>
      </trkpt>
      <trkpt lat="45.08893" lon="6.16382">
        <ele>1477.6</ele>
        <time>2024-08-09T12:39:32Z</time>
      </trkpt>
      <trkpt lat="45.08893" lon="6.16382">
        <ele>1477.8</ele>
        <time>2024-08-09T12:39:33Z</time>
      </trkpt>
      <trkpt lat="45.08893" lon="6.16382">
        <ele>1477.8</ele>
        <time>2024-08-09T12:39:34Z</time>
      </trkpt>
      <trkpt lat="45.08891" lon="6.16379">
        <ele>1478</ele>
        <time>2024-08-09T12:39:35Z</time>
      </trkpt>
      <trkpt lat="45.0889" lon="6.16376">
        <ele>1478</ele>
        <time>2024-08-09T12:39:36Z</time>
      </trkpt>
      <trkpt lat="45.0889" lon="6.16376">
        <ele>1478</ele>
        <time>2024-08-09T12:39:37Z</time>
      </trkpt>
      <trkpt lat="45.0889" lon="6.16376">
        <ele>1477.8</ele>
        <time>2024-08-09T12:39:38Z</time>
      </trkpt>
      <trkpt lat="45.08889" lon="6.16375">
        <ele>1477.8</ele>
        <time>2024-08-09T12:39:39Z</time>
      </trkpt>
      <trkpt lat="45.08889" lon="6.16375">
        <ele>1477.8</ele>
        <time>2024-08-09T12:39:40Z</time>
      </trkpt>
      <trkpt lat="45.08887" lon="6.16373">
        <ele>1477.8</ele>
        <time>2024-08-09T12:39:41Z</time>
      </trkpt>
      <trkpt lat="45.08887" lon="6.16373">
        <ele>1477.6</ele>
        <time>2024-08-09T12:39:42Z</time>
      </trkpt>
      <trkpt lat="45.08887" lon="6.1637">
        <ele>1477.2</ele>
        <time>2024-08-09T12:39:43Z</time>
      </trkpt>
      <trkpt lat="45.08887" lon="6.1637">
        <ele>1477.2</ele>
        <time>2024-08-09T12:39:44Z</time>
      </trkpt>
      <trkpt lat="45.08887" lon="6.16367">
        <ele>1477.2</ele>
        <time>2024-08-09T12:39:45Z</time>
      </trkpt>
      <trkpt lat="45.08887" lon="6.16367">
        <ele>1477.2</ele>
        <time>2024-08-09T12:39:46Z</time>
      </trkpt>
      <trkpt lat="45.08887" lon="6.16367">
        <ele>1477</ele>
        <time>2024-08-09T12:39:47Z</time>
      </trkpt>
      <trkpt lat="45.08887" lon="6.16367">
        <ele>1477</ele>
        <time>2024-08-09T12:39:48Z</time>
      </trkpt>
      <trkpt lat="45.08885" lon="6.16364">
        <ele>1476.6</ele>
        <time>2024-08-09T12:39:49Z</time>
      </trkpt>
      <trkpt lat="45.08885" lon="6.16364">
        <ele>1476.6</ele>
        <time>2024-08-09T12:39:50Z</time>
      </trkpt>
      <trkpt lat="45.08885" lon="6.16364">
        <ele>1476.6</ele>
        <time>2024-08-09T12:39:51Z</time>
      </trkpt>
      <trkpt lat="45.08885" lon="6.16364">
        <ele>1476.6</ele>
        <time>2024-08-09T12:39:52Z</time>
      </trkpt>
      <trkpt lat="45.08885" lon="6.16364">
        <ele>1476.6</ele>
        <time>2024-08-09T12:39:53Z</time>
      </trkpt>
      <trkpt lat="45.08885" lon="6.16364">
        <ele>1477</ele>
        <time>2024-08-09T12:39:54Z</time>
      </trkpt>
      <trkpt lat="45.08885" lon="6.16364">
        <ele>1477</ele>
        <time>2024-08-09T12:39:55Z</time>
      </trkpt>
      <trkpt lat="45.08885" lon="6.16364">
        <ele>1476.6</ele>
        <time>2024-08-09T12:39:56Z</time>
      </trkpt>
      <trkpt lat="45.08885" lon="6.16364">
        <ele>1476.6</ele>
        <time>2024-08-09T12:39:57Z</time>
      </trkpt>
      <trkpt lat="45.08885" lon="6.16364">
        <ele>1476.8</ele>
        <time>2024-08-09T12:39:58Z</time>
      </trkpt>
      <trkpt lat="45.08885" lon="6.16364">
        <ele>1476.8</ele>
        <time>2024-08-09T12:39:59Z</time>
      </trkpt>
      <trkpt lat="45.08883" lon="6.16364">
        <ele>1476.8</ele>
        <time>2024-08-09T12:40:00Z</time>
      </trkpt>
      <trkpt lat="45.08883" lon="6.16364">
        <ele>1477.2</ele>
        <time>2024-08-09T12:40:04Z</time>
      </trkpt>
      <trkpt lat="45.08883" lon="6.16364">
        <ele>1477</ele>
        <time>2024-08-09T12:40:05Z</time>
      </trkpt>
      <trkpt lat="45.08883" lon="6.16364">
        <ele>1476.8</ele>
        <time>2024-08-09T12:40:06Z</time>
      </trkpt>
      <trkpt lat="45.08883" lon="6.16364">
        <ele>1476.8</ele>
        <time>2024-08-09T12:40:07Z</time>
      </trkpt>
      <trkpt lat="45.08883" lon="6.16364">
        <ele>1476.8</ele>
        <time>2024-08-09T12:40:08Z</time>
      </trkpt>
      <trkpt lat="45.08883" lon="6.16364">
        <ele>1476.8</ele>
        <time>2024-08-09T12:40:09Z</time>
      </trkpt>
      <trkpt lat="45.08883" lon="6.16364">
        <ele>1476.8</ele>
        <time>2024-08-09T12:40:10Z</time>
      </trkpt>
      <trkpt lat="45.08883" lon="6.16364">
        <ele>1476.8</ele>
        <time>2024-08-09T12:40:11Z</time>
      </trkpt>
      <trkpt lat="45.08883" lon="6.16364">
        <ele>1477</ele>
        <time>2024-08-09T12:40:12Z</time>
      </trkpt>
      <trkpt lat="45.08883" lon="6.16364">
        <ele>1477</ele>
        <time>2024-08-09T12:40:13Z</time>
      </trkpt>
      <trkpt lat="45.08883" lon="6.16364">
        <ele>1476.8</ele>
        <time>2024-08-09T12:40:14Z</time>
      </trkpt>
      <trkpt lat="45.08883" lon="6.16364">
        <ele>1476.6</ele>
        <time>2024-08-09T12:40:15Z</time>
      </trkpt>
      <trkpt lat="45.08883" lon="6.16364">
        <ele>1476.6</ele>
        <time>2024-08-09T12:40:16Z</time>
      </trkpt>
      <trkpt lat="45.08883" lon="6.16364">
        <ele>1476.8</ele>
        <time>2024-08-09T12:40:17Z</time>
      </trkpt>
      <trkpt lat="45.08883" lon="6.16364">
        <ele>1476.8</ele>
        <time>2024-08-09T12:40:18Z</time>
      </trkpt>
      <trkpt lat="45.08883" lon="6.16364">
        <ele>1476.8</ele>
        <time>2024-08-09T12:40:19Z</time>
      </trkpt>
      <trkpt lat="45.08883" lon="6.16364">
        <ele>1476.8</ele>
        <time>2024-08-09T12:40:20Z</time>
      </trkpt>
      <trkpt lat="45.08883" lon="6.16364">
        <ele>1476.8</ele>
        <time>2024-08-09T12:40:21Z</time>
      </trkpt>
      <trkpt lat="45.08881" lon="6.16366">
        <ele>1477</ele>
        <time>2024-08-09T12:40:22Z</time>
      </trkpt>
      <trkpt lat="45.08881" lon="6.16366">
        <ele>1477</ele>
        <time>2024-08-09T12:40:23Z</time>
      </trkpt>
      <trkpt lat="45.08881" lon="6.16366">
        <ele>1476.6</ele>
        <time>2024-08-09T12:40:24Z</time>
      </trkpt>
      <trkpt lat="45.08881" lon="6.16366">
        <ele>1476.6</ele>
        <time>2024-08-09T12:40:25Z</time>
      </trkpt>
      <trkpt lat="45.08881" lon="6.16366">
        <ele>1476.6</ele>
        <time>2024-08-09T12:40:26Z</time>
      </trkpt>
      <trkpt lat="45.08881" lon="6.16366">
        <ele>1476.6</ele>
        <time>2024-08-09T12:40:27Z</time>
      </trkpt>
      <trkpt lat="45.08881" lon="6.16366">
        <ele>1476.4</ele>
        <time>2024-08-09T12:40:28Z</time>
      </trkpt>
      <trkpt lat="45.0888" lon="6.16368">
        <ele>1476.4</ele>
        <time>2024-08-09T12:40:29Z</time>
      </trkpt>
      <trkpt lat="45.0888" lon="6.16368">
        <ele>1476.6</ele>
        <time>2024-08-09T12:40:30Z</time>
      </trkpt>
      <trkpt lat="45.0888" lon="6.16368">
        <ele>1476.6</ele>
        <time>2024-08-09T12:40:31Z</time>
      </trkpt>
      <trkpt lat="45.0888" lon="6.16368">
        <ele>1476.8</ele>
        <time>2024-08-09T12:40:32Z</time>
      </trkpt>
      <trkpt lat="45.0888" lon="6.16368">
        <ele>1476.8</ele>
        <time>2024-08-09T12:40:33Z</time>
      </trkpt>
      <trkpt lat="45.0888" lon="6.16368">
        <ele>1476.8</ele>
        <time>2024-08-09T12:40:34Z</time>
      </trkpt>
      <trkpt lat="45.0888" lon="6.16368">
        <ele>1476.6</ele>
        <time>2024-08-09T12:40:38Z</time>
      </trkpt>
      <trkpt lat="45.0888" lon="6.16368">
        <ele>1476.6</ele>
        <time>2024-08-09T12:40:39Z</time>
      </trkpt>
      <trkpt lat="45.0888" lon="6.16368">
        <ele>1476.8</ele>
        <time>2024-08-09T12:40:40Z</time>
      </trkpt>
      <trkpt lat="45.0888" lon="6.16368">
        <ele>1476.8</ele>
        <time>2024-08-09T12:40:41Z</time>
      </trkpt>
      <trkpt lat="45.0888" lon="6.16368">
        <ele>1476.8</ele>
        <time>2024-08-09T12:40:42Z</time>
      </trkpt>
      <trkpt lat="45.0888" lon="6.16368">
        <ele>1476.8</ele>
        <time>2024-08-09T12:40:43Z</time>
      </trkpt>
      <trkpt lat="45.0888" lon="6.16368">
        <ele>1476.8</ele>
        <time>2024-08-09T12:40:44Z</time>
      </trkpt>
      <trkpt lat="45.0888" lon="6.16368">
        <ele>1476.8</ele>
        <time>2024-08-09T12:40:45Z</time>
      </trkpt>
      <trkpt lat="45.0888" lon="6.16368">
        <ele>1477</ele>
        <time>2024-08-09T12:40:46Z</time>
      </trkpt>
      <trkpt lat="45.0888" lon="6.16368">
        <ele>1476.8</ele>
        <time>2024-08-09T12:40:47Z</time>
      </trkpt>
      <trkpt lat="45.0888" lon="6.16368">
        <ele>1476.6</ele>
        <time>2024-08-09T12:40:48Z</time>
      </trkpt>
      <trkpt lat="45.0888" lon="6.16368">
        <ele>1476.6</ele>
        <time>2024-08-09T12:40:49Z</time>
      </trkpt>
      <trkpt lat="45.0888" lon="6.16368">
        <ele>1476.6</ele>
        <time>2024-08-09T12:40:50Z</time>
      </trkpt>
      <trkpt lat="45.0888" lon="6.16368">
        <ele>1476.6</ele>
        <time>2024-08-09T12:40:51Z</time>
      </trkpt>
      <trkpt lat="45.0888" lon="6.16368">
        <ele>1476.8</ele>
        <time>2024-08-09T12:40:52Z</time>
      </trkpt>
      <trkpt lat="45.0888" lon="6.16368">
        <ele>1476.8</ele>
        <time>2024-08-09T12:40:53Z</time>
      </trkpt>
      <trkpt lat="45.0888" lon="6.16368">
        <ele>1476.8</ele>
        <time>2024-08-09T12:40:54Z</time>
      </trkpt>
      <trkpt lat="45.0888" lon="6.16368">
        <ele>1476.8</ele>
        <time>2024-08-09T12:40:55Z</time>
      </trkpt>
      <trkpt lat="45.0888" lon="6.16368">
        <ele>1476.8</ele>
        <time>2024-08-09T12:40:56Z</time>
      </trkpt>
      <trkpt lat="45.0888" lon="6.16368">
        <ele>1476.8</ele>
        <time>2024-08-09T12:40:57Z</time>
      </trkpt>
      <trkpt lat="45.0888" lon="6.16368">
        <ele>1476.8</ele>
        <time>2024-08-09T12:40:58Z</time>
      </trkpt>
      <trkpt lat="45.0888" lon="6.16368">
        <ele>1476.8</ele>
        <time>2024-08-09T12:40:59Z</time>
      </trkpt>
      <trkpt lat="45.0888" lon="6.16368">
        <ele>1476.8</ele>
        <time>2024-08-09T12:41:00Z</time>
      </trkpt>
      <trkpt lat="45.0888" lon="6.16368">
        <ele>1476.8</ele>
        <time>2024-08-09T12:41:01Z</time>
      </trkpt>
      <trkpt lat="45.0888" lon="6.16368">
        <ele>1476.8</ele>
        <time>2024-08-09T12:41:02Z</time>
      </trkpt>
      <trkpt lat="45.0888" lon="6.16368">
        <ele>1476.8</ele>
        <time>2024-08-09T12:41:03Z</time>
      </trkpt>
      <trkpt lat="45.0888" lon="6.16368">
        <ele>1476.6</ele>
        <time>2024-08-09T12:41:04Z</time>
      </trkpt>
      <trkpt lat="45.0888" lon="6.16368">
        <ele>1476.6</ele>
        <time>2024-08-09T12:41:05Z</time>
      </trkpt>
      <trkpt lat="45.0888" lon="6.16368">
        <ele>1476.6</ele>
        <time>2024-08-09T12:41:06Z</time>
      </trkpt>
      <trkpt lat="45.0888" lon="6.16368">
        <ele>1476.6</ele>
        <time>2024-08-09T12:41:07Z</time>
      </trkpt>
      <trkpt lat="45.0888" lon="6.16368">
        <ele>1476.6</ele>
        <time>2024-08-09T12:41:08Z</time>
      </trkpt>
      <trkpt lat="45.0888" lon="6.16368">
        <ele>1476.6</ele>
        <time>2024-08-09T12:41:09Z</time>
      </trkpt>
      <trkpt lat="45.0888" lon="6.16368">
        <ele>1476.6</ele>
        <time>2024-08-09T12:41:10Z</time>
      </trkpt>
      <trkpt lat="45.0888" lon="6.16368">
        <ele>1476.6</ele>
        <time>2024-08-09T12:41:11Z</time>
      </trkpt>
      <trkpt lat="45.0888" lon="6.16368">
        <ele>1476.6</ele>
        <time>2024-08-09T12:41:12Z</time>
      </trkpt>
      <trkpt lat="45.0888" lon="6.16368">
        <ele>1476.6</ele>
        <time>2024-08-09T12:41:13Z</time>
      </trkpt>
      <trkpt lat="45.0888" lon="6.16368">
        <ele>1476.4</ele>
        <time>2024-08-09T12:41:14Z</time>
      </trkpt>
      <trkpt lat="45.0888" lon="6.16368">
        <ele>1476.4</ele>
        <time>2024-08-09T12:41:15Z</time>
      </trkpt>
      <trkpt lat="45.0888" lon="6.16368">
        <ele>1476.4</ele>
        <time>2024-08-09T12:41:16Z</time>
      </trkpt>
      <trkpt lat="45.0888" lon="6.16368">
        <ele>1476.4</ele>
        <time>2024-08-09T12:41:17Z</time>
      </trkpt>
      <trkpt lat="45.0888" lon="6.16368">
        <ele>1476.4</ele>
        <time>2024-08-09T12:41:18Z</time>
      </trkpt>
      <trkpt lat="45.0888" lon="6.16368">
        <ele>1476.6</ele>
        <time>2024-08-09T12:41:19Z</time>
      </trkpt>
      <trkpt lat="45.0888" lon="6.16368">
        <ele>1476.6</ele>
        <time>2024-08-09T12:41:20Z</time>
      </trkpt>
      <trkpt lat="45.0888" lon="6.16368">
        <ele>1476.6</ele>
        <time>2024-08-09T12:41:21Z</time>
      </trkpt>
      <trkpt lat="45.0888" lon="6.16368">
        <ele>1476.6</ele>
        <time>2024-08-09T12:41:22Z</time>
      </trkpt>
      <trkpt lat="45.0888" lon="6.16368">
        <ele>1476.6</ele>
        <time>2024-08-09T12:41:23Z</time>
      </trkpt>
      <trkpt lat="45.0888" lon="6.16368">
        <ele>1476.4</ele>
        <time>2024-08-09T12:41:24Z</time>
      </trkpt>
      <trkpt lat="45.0888" lon="6.16368">
        <ele>1476.4</ele>
        <time>2024-08-09T12:41:25Z</time>
      </trkpt>
      <trkpt lat="45.0888" lon="6.16368">
        <ele>1476.8</ele>
        <time>2024-08-09T12:41:26Z</time>
      </trkpt>
      <trkpt lat="45.0888" lon="6.16368">
        <ele>1476.8</ele>
        <time>2024-08-09T12:41:28Z</time>
      </trkpt>
      <trkpt lat="45.0888" lon="6.16368">
        <ele>1476.8</ele>
        <time>2024-08-09T12:41:29Z</time>
      </trkpt>
      <trkpt lat="45.0888" lon="6.16368">
        <ele>1476.6</ele>
        <time>2024-08-09T12:41:30Z</time>
      </trkpt>
      <trkpt lat="45.0888" lon="6.16368">
        <ele>1476.6</ele>
        <time>2024-08-09T12:41:31Z</time>
      </trkpt>
      <trkpt lat="45.0888" lon="6.16368">
        <ele>1476.6</ele>
        <time>2024-08-09T12:41:32Z</time>
      </trkpt>
      <trkpt lat="45.0888" lon="6.16368">
        <ele>1476.4</ele>
        <time>2024-08-09T12:41:33Z</time>
      </trkpt>
      <trkpt lat="45.0888" lon="6.16368">
        <ele>1476.4</ele>
        <time>2024-08-09T12:41:34Z</time>
      </trkpt>
      <trkpt lat="45.0888" lon="6.16368">
        <ele>1476.4</ele>
        <time>2024-08-09T12:41:35Z</time>
      </trkpt>
      <trkpt lat="45.0888" lon="6.16368">
        <ele>1476.4</ele>
        <time>2024-08-09T12:41:36Z</time>
      </trkpt>
      <trkpt lat="45.0888" lon="6.16368">
        <ele>1476.4</ele>
        <time>2024-08-09T12:41:37Z</time>
      </trkpt>
      <trkpt lat="45.0888" lon="6.16368">
        <ele>1476.4</ele>
        <time>2024-08-09T12:41:38Z</time>
      </trkpt>
      <trkpt lat="45.0888" lon="6.16368">
        <ele>1476.4</ele>
        <time>2024-08-09T12:41:39Z</time>
      </trkpt>
      <trkpt lat="45.0888" lon="6.16368">
        <ele>1476.4</ele>
        <time>2024-08-09T12:41:40Z</time>
      </trkpt>
      <trkpt lat="45.0888" lon="6.16368">
        <ele>1476.6</ele>
        <time>2024-08-09T12:41:41Z</time>
      </trkpt>
      <trkpt lat="45.0888" lon="6.16368">
        <ele>1476.6</ele>
        <time>2024-08-09T12:41:42Z</time>
      </trkpt>
      <trkpt lat="45.0888" lon="6.16368">
        <ele>1476.4</ele>
        <time>2024-08-09T12:41:43Z</time>
      </trkpt>
      <trkpt lat="45.0888" lon="6.16368">
        <ele>1476.4</ele>
        <time>2024-08-09T12:41:44Z</time>
      </trkpt>
      <trkpt lat="45.0888" lon="6.16368">
        <ele>1476.2</ele>
        <time>2024-08-09T12:41:45Z</time>
      </trkpt>
      <trkpt lat="45.0888" lon="6.16368">
        <ele>1476.2</ele>
        <time>2024-08-09T12:41:46Z</time>
      </trkpt>
      <trkpt lat="45.0888" lon="6.16368">
        <ele>1476</ele>
        <time>2024-08-09T12:41:47Z</time>
      </trkpt>
      <trkpt lat="45.0888" lon="6.16368">
        <ele>1476</ele>
        <time>2024-08-09T12:41:48Z</time>
      </trkpt>
      <trkpt lat="45.0888" lon="6.16368">
        <ele>1476</ele>
        <time>2024-08-09T12:41:49Z</time>
      </trkpt>
      <trkpt lat="45.0888" lon="6.16368">
        <ele>1476.2</ele>
        <time>2024-08-09T12:41:50Z</time>
      </trkpt>
      <trkpt lat="45.0888" lon="6.16368">
        <ele>1476.2</ele>
        <time>2024-08-09T12:41:51Z</time>
      </trkpt>
      <trkpt lat="45.0888" lon="6.16368">
        <ele>1476.4</ele>
        <time>2024-08-09T12:41:52Z</time>
      </trkpt>
      <trkpt lat="45.0888" lon="6.16368">
        <ele>1476.4</ele>
        <time>2024-08-09T12:41:53Z</time>
      </trkpt>
      <trkpt lat="45.0888" lon="6.16368">
        <ele>1476.4</ele>
        <time>2024-08-09T12:41:54Z</time>
      </trkpt>
      <trkpt lat="45.0888" lon="6.16368">
        <ele>1476.4</ele>
        <time>2024-08-09T12:41:55Z</time>
      </trkpt>
      <trkpt lat="45.0888" lon="6.16368">
        <ele>1476.4</ele>
        <time>2024-08-09T12:41:56Z</time>
      </trkpt>
      <trkpt lat="45.0888" lon="6.16368">
        <ele>1476.4</ele>
        <time>2024-08-09T12:41:57Z</time>
      </trkpt>
      <trkpt lat="45.0888" lon="6.16368">
        <ele>1476.4</ele>
        <time>2024-08-09T12:41:58Z</time>
      </trkpt>
      <trkpt lat="45.0888" lon="6.16368">
        <ele>1476.8</ele>
        <time>2024-08-09T12:41:59Z</time>
      </trkpt>
      <trkpt lat="45.0888" lon="6.16368">
        <ele>1476.8</ele>
        <time>2024-08-09T12:42:00Z</time>
      </trkpt>
      <trkpt lat="45.0888" lon="6.16368">
        <ele>1476.4</ele>
        <time>2024-08-09T12:42:01Z</time>
      </trkpt>
      <trkpt lat="45.0888" lon="6.16368">
        <ele>1476.2</ele>
        <time>2024-08-09T12:42:02Z</time>
      </trkpt>
      <trkpt lat="45.0888" lon="6.16368">
        <ele>1476.2</ele>
        <time>2024-08-09T12:42:03Z</time>
      </trkpt>
      <trkpt lat="45.0888" lon="6.16368">
        <ele>1476.2</ele>
        <time>2024-08-09T12:42:04Z</time>
      </trkpt>
      <trkpt lat="45.0888" lon="6.16368">
        <ele>1476.6</ele>
        <time>2024-08-09T12:42:05Z</time>
      </trkpt>
      <trkpt lat="45.0888" lon="6.16368">
        <ele>1476.8</ele>
        <time>2024-08-09T12:42:06Z</time>
      </trkpt>
      <trkpt lat="45.0888" lon="6.16368">
        <ele>1476.8</ele>
        <time>2024-08-09T12:42:07Z</time>
      </trkpt>
      <trkpt lat="45.0888" lon="6.16368">
        <ele>1476.2</ele>
        <time>2024-08-09T12:42:08Z</time>
      </trkpt>
      <trkpt lat="45.0888" lon="6.16368">
        <ele>1476</ele>
        <time>2024-08-09T12:42:09Z</time>
      </trkpt>
      <trkpt lat="45.0888" lon="6.16368">
        <ele>1476</ele>
        <time>2024-08-09T12:42:10Z</time>
      </trkpt>
      <trkpt lat="45.0888" lon="6.16368">
        <ele>1476.4</ele>
        <time>2024-08-09T12:42:11Z</time>
      </trkpt>
      <trkpt lat="45.0888" lon="6.16368">
        <ele>1476.6</ele>
        <time>2024-08-09T12:42:12Z</time>
      </trkpt>
      <trkpt lat="45.0888" lon="6.16368">
        <ele>1476.6</ele>
        <time>2024-08-09T12:42:13Z</time>
      </trkpt>
      <trkpt lat="45.0888" lon="6.16368">
        <ele>1476.6</ele>
        <time>2024-08-09T12:42:14Z</time>
      </trkpt>
      <trkpt lat="45.0888" lon="6.16368">
        <ele>1476.4</ele>
        <time>2024-08-09T12:42:15Z</time>
      </trkpt>
      <trkpt lat="45.0888" lon="6.16368">
        <ele>1476.4</ele>
        <time>2024-08-09T12:42:16Z</time>
      </trkpt>
      <trkpt lat="45.0888" lon="6.16368">
        <ele>1476.4</ele>
        <time>2024-08-09T12:42:17Z</time>
      </trkpt>
      <trkpt lat="45.0888" lon="6.16368">
        <ele>1476.4</ele>
        <time>2024-08-09T12:42:18Z</time>
      </trkpt>
      <trkpt lat="45.0888" lon="6.16368">
        <ele>1476.4</ele>
        <time>2024-08-09T12:42:19Z</time>
      </trkpt>
      <trkpt lat="45.0888" lon="6.16368">
        <ele>1476.4</ele>
        <time>2024-08-09T12:42:20Z</time>
      </trkpt>
      <trkpt lat="45.0888" lon="6.16368">
        <ele>1476.4</ele>
        <time>2024-08-09T12:42:21Z</time>
      </trkpt>
      <trkpt lat="45.0888" lon="6.16368">
        <ele>1476.4</ele>
        <time>2024-08-09T12:42:22Z</time>
      </trkpt>
      <trkpt lat="45.0888" lon="6.16368">
        <ele>1476.2</ele>
        <time>2024-08-09T12:42:23Z</time>
      </trkpt>
      <trkpt lat="45.0888" lon="6.16368">
        <ele>1476.2</ele>
        <time>2024-08-09T12:42:24Z</time>
      </trkpt>
      <trkpt lat="45.0888" lon="6.16368">
        <ele>1476.2</ele>
        <time>2024-08-09T12:42:25Z</time>
      </trkpt>
      <trkpt lat="45.0888" lon="6.16368">
        <ele>1476.2</ele>
        <time>2024-08-09T12:42:26Z</time>
      </trkpt>
      <trkpt lat="45.0888" lon="6.16368">
        <ele>1476.2</ele>
        <time>2024-08-09T12:42:27Z</time>
      </trkpt>
      <trkpt lat="45.0888" lon="6.16368">
        <ele>1476.2</ele>
        <time>2024-08-09T12:42:28Z</time>
      </trkpt>
      <trkpt lat="45.0888" lon="6.16368">
        <ele>1476</ele>
        <time>2024-08-09T12:42:29Z</time>
      </trkpt>
      <trkpt lat="45.0888" lon="6.16368">
        <ele>1476</ele>
        <time>2024-08-09T12:42:30Z</time>
      </trkpt>
      <trkpt lat="45.0888" lon="6.16368">
        <ele>1476</ele>
        <time>2024-08-09T12:42:31Z</time>
      </trkpt>
      <trkpt lat="45.0888" lon="6.16368">
        <ele>1476</ele>
        <time>2024-08-09T12:42:32Z</time>
      </trkpt>
      <trkpt lat="45.0888" lon="6.16368">
        <ele>1476</ele>
        <time>2024-08-09T12:42:33Z</time>
      </trkpt>
      <trkpt lat="45.0888" lon="6.16368">
        <ele>1476</ele>
        <time>2024-08-09T12:42:34Z</time>
      </trkpt>
      <trkpt lat="45.0888" lon="6.16368">
        <ele>1475.8</ele>
        <time>2024-08-09T12:42:35Z</time>
      </trkpt>
      <trkpt lat="45.0888" lon="6.16368">
        <ele>1475.8</ele>
        <time>2024-08-09T12:42:36Z</time>
      </trkpt>
      <trkpt lat="45.0888" lon="6.16368">
        <ele>1475.8</ele>
        <time>2024-08-09T12:42:37Z</time>
      </trkpt>
      <trkpt lat="45.0888" lon="6.16368">
        <ele>1475.8</ele>
        <time>2024-08-09T12:42:38Z</time>
      </trkpt>
      <trkpt lat="45.0888" lon="6.16368">
        <ele>1476</ele>
        <time>2024-08-09T12:42:39Z</time>
      </trkpt>
      <trkpt lat="45.0888" lon="6.16368">
        <ele>1476</ele>
        <time>2024-08-09T12:42:40Z</time>
      </trkpt>
      <trkpt lat="45.0888" lon="6.16368">
        <ele>1476</ele>
        <time>2024-08-09T12:42:41Z</time>
      </trkpt>
      <trkpt lat="45.0888" lon="6.16368">
        <ele>1476</ele>
        <time>2024-08-09T12:42:42Z</time>
      </trkpt>
      <trkpt lat="45.0888" lon="6.16368">
        <ele>1475.8</ele>
        <time>2024-08-09T12:42:43Z</time>
      </trkpt>
      <trkpt lat="45.0888" lon="6.16368">
        <ele>1475.8</ele>
        <time>2024-08-09T12:42:44Z</time>
      </trkpt>
      <trkpt lat="45.0888" lon="6.16368">
        <ele>1475.8</ele>
        <time>2024-08-09T12:42:45Z</time>
      </trkpt>
      <trkpt lat="45.0888" lon="6.16368">
        <ele>1476</ele>
        <time>2024-08-09T12:42:46Z</time>
      </trkpt>
      <trkpt lat="45.0888" lon="6.16368">
        <ele>1476</ele>
        <time>2024-08-09T12:42:47Z</time>
      </trkpt>
      <trkpt lat="45.0888" lon="6.16368">
        <ele>1475.8</ele>
        <time>2024-08-09T12:42:48Z</time>
      </trkpt>
      <trkpt lat="45.0888" lon="6.16368">
        <ele>1475.6</ele>
        <time>2024-08-09T12:42:49Z</time>
      </trkpt>
      <trkpt lat="45.0888" lon="6.16368">
        <ele>1475.6</ele>
        <time>2024-08-09T12:42:50Z</time>
      </trkpt>
      <trkpt lat="45.0888" lon="6.16368">
        <ele>1476</ele>
        <time>2024-08-09T12:42:51Z</time>
      </trkpt>
      <trkpt lat="45.0888" lon="6.16368">
        <ele>1476</ele>
        <time>2024-08-09T12:42:52Z</time>
      </trkpt>
      <trkpt lat="45.0888" lon="6.16368">
        <ele>1475.8</ele>
        <time>2024-08-09T12:42:53Z</time>
      </trkpt>
      <trkpt lat="45.0888" lon="6.16368">
        <ele>1475.8</ele>
        <time>2024-08-09T12:42:54Z</time>
      </trkpt>
      <trkpt lat="45.0888" lon="6.16368">
        <ele>1476</ele>
        <time>2024-08-09T12:42:55Z</time>
      </trkpt>
      <trkpt lat="45.0888" lon="6.16368">
        <ele>1476.2</ele>
        <time>2024-08-09T12:42:56Z</time>
      </trkpt>
      <trkpt lat="45.0888" lon="6.16368">
        <ele>1476.2</ele>
        <time>2024-08-09T12:42:57Z</time>
      </trkpt>
      <trkpt lat="45.0888" lon="6.16368">
        <ele>1476.2</ele>
        <time>2024-08-09T12:42:58Z</time>
      </trkpt>
      <trkpt lat="45.0888" lon="6.16368">
        <ele>1476</ele>
        <time>2024-08-09T12:42:59Z</time>
      </trkpt>
      <trkpt lat="45.0888" lon="6.16368">
        <ele>1475.8</ele>
        <time>2024-08-09T12:43:00Z</time>
      </trkpt>
      <trkpt lat="45.0888" lon="6.16368">
        <ele>1475.8</ele>
        <time>2024-08-09T12:43:01Z</time>
      </trkpt>
      <trkpt lat="45.0888" lon="6.16368">
        <ele>1476</ele>
        <time>2024-08-09T12:43:02Z</time>
      </trkpt>
      <trkpt lat="45.0888" lon="6.16368">
        <ele>1476</ele>
        <time>2024-08-09T12:43:03Z</time>
      </trkpt>
      <trkpt lat="45.0888" lon="6.16368">
        <ele>1476</ele>
        <time>2024-08-09T12:43:04Z</time>
      </trkpt>
      <trkpt lat="45.0888" lon="6.16368">
        <ele>1476</ele>
        <time>2024-08-09T12:43:05Z</time>
      </trkpt>
      <trkpt lat="45.0888" lon="6.16368">
        <ele>1476</ele>
        <time>2024-08-09T12:43:06Z</time>
      </trkpt>
      <trkpt lat="45.0888" lon="6.16368">
        <ele>1475.8</ele>
        <time>2024-08-09T12:43:07Z</time>
      </trkpt>
      <trkpt lat="45.0888" lon="6.16368">
        <ele>1475.8</ele>
        <time>2024-08-09T12:43:08Z</time>
      </trkpt>
      <trkpt lat="45.0888" lon="6.16368">
        <ele>1475.8</ele>
        <time>2024-08-09T12:43:09Z</time>
      </trkpt>
      <trkpt lat="45.0888" lon="6.16368">
        <ele>1475.6</ele>
        <time>2024-08-09T12:43:10Z</time>
      </trkpt>
      <trkpt lat="45.0888" lon="6.16368">
        <ele>1475.6</ele>
        <time>2024-08-09T12:43:11Z</time>
      </trkpt>
      <trkpt lat="45.0888" lon="6.16368">
        <ele>1475.6</ele>
        <time>2024-08-09T12:43:12Z</time>
      </trkpt>
      <trkpt lat="45.0888" lon="6.16368">
        <ele>1475.6</ele>
        <time>2024-08-09T12:43:13Z</time>
      </trkpt>
      <trkpt lat="45.0888" lon="6.16368">
        <ele>1475.6</ele>
        <time>2024-08-09T12:43:14Z</time>
      </trkpt>
      <trkpt lat="45.0888" lon="6.16368">
        <ele>1475.6</ele>
        <time>2024-08-09T12:43:15Z</time>
      </trkpt>
      <trkpt lat="45.0888" lon="6.16368">
        <ele>1475.6</ele>
        <time>2024-08-09T12:43:16Z</time>
      </trkpt>
      <trkpt lat="45.0888" lon="6.16368">
        <ele>1475.6</ele>
        <time>2024-08-09T12:43:17Z</time>
      </trkpt>
      <trkpt lat="45.0888" lon="6.16368">
        <ele>1475.8</ele>
        <time>2024-08-09T12:43:18Z</time>
      </trkpt>
      <trkpt lat="45.0888" lon="6.16368">
        <ele>1475.8</ele>
        <time>2024-08-09T12:43:19Z</time>
      </trkpt>
      <trkpt lat="45.0888" lon="6.16368">
        <ele>1475.8</ele>
        <time>2024-08-09T12:43:20Z</time>
      </trkpt>
      <trkpt lat="45.0888" lon="6.16368">
        <ele>1475.8</ele>
        <time>2024-08-09T12:43:21Z</time>
      </trkpt>
      <trkpt lat="45.0888" lon="6.16368">
        <ele>1476</ele>
        <time>2024-08-09T12:43:22Z</time>
      </trkpt>
      <trkpt lat="45.0888" lon="6.16368">
        <ele>1476</ele>
        <time>2024-08-09T12:43:23Z</time>
      </trkpt>
      <trkpt lat="45.0888" lon="6.16368">
        <ele>1475.8</ele>
        <time>2024-08-09T12:43:24Z</time>
      </trkpt>
      <trkpt lat="45.0888" lon="6.16368">
        <ele>1475.8</ele>
        <time>2024-08-09T12:43:25Z</time>
      </trkpt>
      <trkpt lat="45.0888" lon="6.16368">
        <ele>1476</ele>
        <time>2024-08-09T12:43:26Z</time>
      </trkpt>
      <trkpt lat="45.0888" lon="6.16368">
        <ele>1476</ele>
        <time>2024-08-09T12:43:27Z</time>
      </trkpt>
      <trkpt lat="45.0888" lon="6.16368">
        <ele>1476</ele>
        <time>2024-08-09T12:43:28Z</time>
      </trkpt>
      <trkpt lat="45.0888" lon="6.16368">
        <ele>1475.8</ele>
        <time>2024-08-09T12:43:29Z</time>
      </trkpt>
      <trkpt lat="45.0888" lon="6.16368">
        <ele>1475.8</ele>
        <time>2024-08-09T12:43:30Z</time>
      </trkpt>
      <trkpt lat="45.0888" lon="6.16368">
        <ele>1475.6</ele>
        <time>2024-08-09T12:43:31Z</time>
      </trkpt>
      <trkpt lat="45.0888" lon="6.16368">
        <ele>1475.8</ele>
        <time>2024-08-09T12:43:32Z</time>
      </trkpt>
      <trkpt lat="45.0888" lon="6.16368">
        <ele>1475.8</ele>
        <time>2024-08-09T12:43:33Z</time>
      </trkpt>
      <trkpt lat="45.0888" lon="6.16368">
        <ele>1475.8</ele>
        <time>2024-08-09T12:43:34Z</time>
      </trkpt>
      <trkpt lat="45.0888" lon="6.16368">
        <ele>1475.8</ele>
        <time>2024-08-09T12:43:35Z</time>
      </trkpt>
      <trkpt lat="45.0888" lon="6.16365">
        <ele>1475.6</ele>
        <time>2024-08-09T12:43:36Z</time>
      </trkpt>
      <trkpt lat="45.0888" lon="6.16365">
        <ele>1475.6</ele>
        <time>2024-08-09T12:43:37Z</time>
      </trkpt>
      <trkpt lat="45.08879" lon="6.16362">
        <ele>1475.4</ele>
        <time>2024-08-09T12:43:38Z</time>
      </trkpt>
      <trkpt lat="45.08879" lon="6.16362">
        <ele>1475.2</ele>
        <time>2024-08-09T12:43:39Z</time>
      </trkpt>
      <trkpt lat="45.08877" lon="6.1636">
        <ele>1475.2</ele>
        <time>2024-08-09T12:43:40Z</time>
      </trkpt>
      <trkpt lat="45.08877" lon="6.1636">
        <ele>1475.2</ele>
        <time>2024-08-09T12:43:41Z</time>
      </trkpt>
      <trkpt lat="45.08875" lon="6.16359">
        <ele>1475.2</ele>
        <time>2024-08-09T12:43:42Z</time>
      </trkpt>
      <trkpt lat="45.08875" lon="6.16359">
        <ele>1475.4</ele>
        <time>2024-08-09T12:43:43Z</time>
      </trkpt>
      <trkpt lat="45.08873" lon="6.16357">
        <ele>1475.4</ele>
        <time>2024-08-09T12:43:44Z</time>
      </trkpt>
      <trkpt lat="45.08873" lon="6.16357">
        <ele>1475.4</ele>
        <time>2024-08-09T12:43:45Z</time>
      </trkpt>
      <trkpt lat="45.08871" lon="6.16355">
        <ele>1475.4</ele>
        <time>2024-08-09T12:43:46Z</time>
      </trkpt>
      <trkpt lat="45.08871" lon="6.16355">
        <ele>1475.4</ele>
        <time>2024-08-09T12:43:47Z</time>
      </trkpt>
      <trkpt lat="45.08869" lon="6.16352">
        <ele>1475.2</ele>
        <time>2024-08-09T12:43:48Z</time>
      </trkpt>
      <trkpt lat="45.08869" lon="6.16352">
        <ele>1474.8</ele>
        <time>2024-08-09T12:43:49Z</time>
      </trkpt>
      <trkpt lat="45.08867" lon="6.16351">
        <ele>1474.8</ele>
        <time>2024-08-09T12:43:50Z</time>
      </trkpt>
      <trkpt lat="45.08867" lon="6.16351">
        <ele>1474.6</ele>
        <time>2024-08-09T12:43:51Z</time>
      </trkpt>
      <trkpt lat="45.08864" lon="6.16351">
        <ele>1474.4</ele>
        <time>2024-08-09T12:43:52Z</time>
      </trkpt>
      <trkpt lat="45.08864" lon="6.16351">
        <ele>1474.2</ele>
        <time>2024-08-09T12:43:53Z</time>
      </trkpt>
      <trkpt lat="45.08862" lon="6.1635">
        <ele>1474</ele>
        <time>2024-08-09T12:43:54Z</time>
      </trkpt>
      <trkpt lat="45.08862" lon="6.1635">
        <ele>1473.8</ele>
        <time>2024-08-09T12:43:55Z</time>
      </trkpt>
      <trkpt lat="45.0886" lon="6.16349">
        <ele>1473.6</ele>
        <time>2024-08-09T12:43:56Z</time>
      </trkpt>
      <trkpt lat="45.0886" lon="6.16349">
        <ele>1473.6</ele>
        <time>2024-08-09T12:43:57Z</time>
      </trkpt>
      <trkpt lat="45.0886" lon="6.16349">
        <ele>1473.4</ele>
        <time>2024-08-09T12:43:58Z</time>
      </trkpt>
      <trkpt lat="45.08858" lon="6.16348">
        <ele>1473.2</ele>
        <time>2024-08-09T12:43:59Z</time>
      </trkpt>
      <trkpt lat="45.08858" lon="6.16348">
        <ele>1473.2</ele>
        <time>2024-08-09T12:44:00Z</time>
      </trkpt>
      <trkpt lat="45.08855" lon="6.16348">
        <ele>1472.6</ele>
        <time>2024-08-09T12:44:01Z</time>
      </trkpt>
      <trkpt lat="45.08855" lon="6.16348">
        <ele>1472.4</ele>
        <time>2024-08-09T12:44:02Z</time>
      </trkpt>
      <trkpt lat="45.08853" lon="6.16348">
        <ele>1472.4</ele>
        <time>2024-08-09T12:44:03Z</time>
      </trkpt>
      <trkpt lat="45.08853" lon="6.16348">
        <ele>1472.4</ele>
        <time>2024-08-09T12:44:04Z</time>
      </trkpt>
      <trkpt lat="45.08851" lon="6.16347">
        <ele>1472.2</ele>
        <time>2024-08-09T12:44:05Z</time>
      </trkpt>
      <trkpt lat="45.08851" lon="6.16347">
        <ele>1472</ele>
        <time>2024-08-09T12:44:06Z</time>
      </trkpt>
      <trkpt lat="45.08849" lon="6.16348">
        <ele>1472</ele>
        <time>2024-08-09T12:44:07Z</time>
      </trkpt>
      <trkpt lat="45.08849" lon="6.16348">
        <ele>1471.8</ele>
        <time>2024-08-09T12:44:08Z</time>
      </trkpt>
      <trkpt lat="45.08846" lon="6.16349">
        <ele>1471.2</ele>
        <time>2024-08-09T12:44:09Z</time>
      </trkpt>
      <trkpt lat="45.08846" lon="6.16349">
        <ele>1471.2</ele>
        <time>2024-08-09T12:44:10Z</time>
      </trkpt>
      <trkpt lat="45.08844" lon="6.16349">
        <ele>1471.2</ele>
        <time>2024-08-09T12:44:11Z</time>
      </trkpt>
      <trkpt lat="45.08844" lon="6.16349">
        <ele>1470.8</ele>
        <time>2024-08-09T12:44:12Z</time>
      </trkpt>
      <trkpt lat="45.08841" lon="6.16349">
        <ele>1470.6</ele>
        <time>2024-08-09T12:44:13Z</time>
      </trkpt>
      <trkpt lat="45.08841" lon="6.16349">
        <ele>1470.6</ele>
        <time>2024-08-09T12:44:14Z</time>
      </trkpt>
      <trkpt lat="45.08838" lon="6.16348">
        <ele>1470.4</ele>
        <time>2024-08-09T12:44:15Z</time>
      </trkpt>
      <trkpt lat="45.08838" lon="6.16348">
        <ele>1470.4</ele>
        <time>2024-08-09T12:44:16Z</time>
      </trkpt>
      <trkpt lat="45.08835" lon="6.16348">
        <ele>1470.2</ele>
        <time>2024-08-09T12:44:17Z</time>
      </trkpt>
      <trkpt lat="45.08835" lon="6.16348">
        <ele>1470.2</ele>
        <time>2024-08-09T12:44:18Z</time>
      </trkpt>
      <trkpt lat="45.08833" lon="6.16347">
        <ele>1470</ele>
        <time>2024-08-09T12:44:19Z</time>
      </trkpt>
      <trkpt lat="45.08833" lon="6.16347">
        <ele>1469.8</ele>
        <time>2024-08-09T12:44:20Z</time>
      </trkpt>
      <trkpt lat="45.0883" lon="6.16346">
        <ele>1469.6</ele>
        <time>2024-08-09T12:44:21Z</time>
      </trkpt>
      <trkpt lat="45.0883" lon="6.16346">
        <ele>1469.6</ele>
        <time>2024-08-09T12:44:22Z</time>
      </trkpt>
      <trkpt lat="45.08828" lon="6.16346">
        <ele>1469.4</ele>
        <time>2024-08-09T12:44:23Z</time>
      </trkpt>
      <trkpt lat="45.08828" lon="6.16346">
        <ele>1469.4</ele>
        <time>2024-08-09T12:44:24Z</time>
      </trkpt>
      <trkpt lat="45.08825" lon="6.16345">
        <ele>1469.4</ele>
        <time>2024-08-09T12:44:25Z</time>
      </trkpt>
      <trkpt lat="45.08825" lon="6.16345">
        <ele>1469.2</ele>
        <time>2024-08-09T12:44:26Z</time>
      </trkpt>
      <trkpt lat="45.08822" lon="6.16345">
        <ele>1469.2</ele>
        <time>2024-08-09T12:44:27Z</time>
      </trkpt>
      <trkpt lat="45.08822" lon="6.16345">
        <ele>1469.2</ele>
        <time>2024-08-09T12:44:28Z</time>
      </trkpt>
      <trkpt lat="45.08819" lon="6.16345">
        <ele>1469</ele>
        <time>2024-08-09T12:44:29Z</time>
      </trkpt>
      <trkpt lat="45.08819" lon="6.16345">
        <ele>1469</ele>
        <time>2024-08-09T12:44:30Z</time>
      </trkpt>
      <trkpt lat="45.08817" lon="6.16343">
        <ele>1469</ele>
        <time>2024-08-09T12:44:31Z</time>
      </trkpt>
      <trkpt lat="45.08817" lon="6.16343">
        <ele>1468.8</ele>
        <time>2024-08-09T12:44:32Z</time>
      </trkpt>
      <trkpt lat="45.08814" lon="6.16341">
        <ele>1468.8</ele>
        <time>2024-08-09T12:44:33Z</time>
      </trkpt>
      <trkpt lat="45.08814" lon="6.16341">
        <ele>1468.8</ele>
        <time>2024-08-09T12:44:34Z</time>
      </trkpt>
      <trkpt lat="45.08812" lon="6.16341">
        <ele>1468.6</ele>
        <time>2024-08-09T12:44:35Z</time>
      </trkpt>
      <trkpt lat="45.08812" lon="6.16341">
        <ele>1468.6</ele>
        <time>2024-08-09T12:44:36Z</time>
      </trkpt>
      <trkpt lat="45.08809" lon="6.1634">
        <ele>1468.4</ele>
        <time>2024-08-09T12:44:37Z</time>
      </trkpt>
      <trkpt lat="45.08809" lon="6.1634">
        <ele>1468.4</ele>
        <time>2024-08-09T12:44:38Z</time>
      </trkpt>
      <trkpt lat="45.08806" lon="6.16339">
        <ele>1468.4</ele>
        <time>2024-08-09T12:44:39Z</time>
      </trkpt>
      <trkpt lat="45.08806" lon="6.16339">
        <ele>1468.2</ele>
        <time>2024-08-09T12:44:40Z</time>
      </trkpt>
      <trkpt lat="45.08804" lon="6.16336">
        <ele>1468.2</ele>
        <time>2024-08-09T12:44:41Z</time>
      </trkpt>
      <trkpt lat="45.08804" lon="6.16336">
        <ele>1468</ele>
        <time>2024-08-09T12:44:42Z</time>
      </trkpt>
      <trkpt lat="45.08803" lon="6.16333">
        <ele>1467.8</ele>
        <time>2024-08-09T12:44:43Z</time>
      </trkpt>
      <trkpt lat="45.08803" lon="6.16333">
        <ele>1467.6</ele>
        <time>2024-08-09T12:44:44Z</time>
      </trkpt>
      <trkpt lat="45.08801" lon="6.16332">
        <ele>1467.6</ele>
        <time>2024-08-09T12:44:45Z</time>
      </trkpt>
      <trkpt lat="45.08801" lon="6.16332">
        <ele>1467.6</ele>
        <time>2024-08-09T12:44:46Z</time>
      </trkpt>
      <trkpt lat="45.08798" lon="6.1633">
        <ele>1467.6</ele>
        <time>2024-08-09T12:44:47Z</time>
      </trkpt>
      <trkpt lat="45.08798" lon="6.1633">
        <ele>1467.4</ele>
        <time>2024-08-09T12:44:48Z</time>
      </trkpt>
      <trkpt lat="45.08796" lon="6.1633">
        <ele>1467.2</ele>
        <time>2024-08-09T12:44:49Z</time>
      </trkpt>
      <trkpt lat="45.08796" lon="6.1633">
        <ele>1467.2</ele>
        <time>2024-08-09T12:44:50Z</time>
      </trkpt>
      <trkpt lat="45.08794" lon="6.16329">
        <ele>1467.2</ele>
        <time>2024-08-09T12:44:51Z</time>
      </trkpt>
      <trkpt lat="45.08794" lon="6.16329">
        <ele>1466.8</ele>
        <time>2024-08-09T12:44:52Z</time>
      </trkpt>
      <trkpt lat="45.08792" lon="6.16328">
        <ele>1466.8</ele>
        <time>2024-08-09T12:44:53Z</time>
      </trkpt>
      <trkpt lat="45.08792" lon="6.16328">
        <ele>1466.6</ele>
        <time>2024-08-09T12:44:54Z</time>
      </trkpt>
      <trkpt lat="45.0879" lon="6.16325">
        <ele>1466.4</ele>
        <time>2024-08-09T12:44:55Z</time>
      </trkpt>
      <trkpt lat="45.0879" lon="6.16325">
        <ele>1466.2</ele>
        <time>2024-08-09T12:44:56Z</time>
      </trkpt>
      <trkpt lat="45.08788" lon="6.16323">
        <ele>1466.2</ele>
        <time>2024-08-09T12:44:57Z</time>
      </trkpt>
      <trkpt lat="45.08788" lon="6.16323">
        <ele>1466.2</ele>
        <time>2024-08-09T12:44:58Z</time>
      </trkpt>
      <trkpt lat="45.08786" lon="6.16321">
        <ele>1466</ele>
        <time>2024-08-09T12:44:59Z</time>
      </trkpt>
      <trkpt lat="45.08786" lon="6.16321">
        <ele>1465.8</ele>
        <time>2024-08-09T12:45:00Z</time>
      </trkpt>
      <trkpt lat="45.08785" lon="6.16318">
        <ele>1465.8</ele>
        <time>2024-08-09T12:45:01Z</time>
      </trkpt>
      <trkpt lat="45.08785" lon="6.16318">
        <ele>1465.4</ele>
        <time>2024-08-09T12:45:02Z</time>
      </trkpt>
      <trkpt lat="45.08782" lon="6.16315">
        <ele>1465.4</ele>
        <time>2024-08-09T12:45:03Z</time>
      </trkpt>
      <trkpt lat="45.08782" lon="6.16315">
        <ele>1465.4</ele>
        <time>2024-08-09T12:45:04Z</time>
      </trkpt>
      <trkpt lat="45.08779" lon="6.16312">
        <ele>1465.4</ele>
        <time>2024-08-09T12:45:05Z</time>
      </trkpt>
      <trkpt lat="45.08779" lon="6.16312">
        <ele>1465.2</ele>
        <time>2024-08-09T12:45:06Z</time>
      </trkpt>
      <trkpt lat="45.08777" lon="6.16311">
        <ele>1465</ele>
        <time>2024-08-09T12:45:07Z</time>
      </trkpt>
      <trkpt lat="45.08777" lon="6.16311">
        <ele>1464.8</ele>
        <time>2024-08-09T12:45:08Z</time>
      </trkpt>
      <trkpt lat="45.08775" lon="6.16309">
        <ele>1464.8</ele>
        <time>2024-08-09T12:45:09Z</time>
      </trkpt>
      <trkpt lat="45.08773" lon="6.16309">
        <ele>1464.6</ele>
        <time>2024-08-09T12:45:10Z</time>
      </trkpt>
      <trkpt lat="45.08773" lon="6.16309">
        <ele>1464.4</ele>
        <time>2024-08-09T12:45:11Z</time>
      </trkpt>
      <trkpt lat="45.0877" lon="6.16307">
        <ele>1464.4</ele>
        <time>2024-08-09T12:45:12Z</time>
      </trkpt>
      <trkpt lat="45.0877" lon="6.16307">
        <ele>1464.2</ele>
        <time>2024-08-09T12:45:13Z</time>
      </trkpt>
      <trkpt lat="45.08767" lon="6.16305">
        <ele>1464</ele>
        <time>2024-08-09T12:45:14Z</time>
      </trkpt>
      <trkpt lat="45.08767" lon="6.16305">
        <ele>1463.8</ele>
        <time>2024-08-09T12:45:15Z</time>
      </trkpt>
      <trkpt lat="45.08765" lon="6.16304">
        <ele>1463.6</ele>
        <time>2024-08-09T12:45:16Z</time>
      </trkpt>
      <trkpt lat="45.08765" lon="6.16304">
        <ele>1463.6</ele>
        <time>2024-08-09T12:45:17Z</time>
      </trkpt>
      <trkpt lat="45.08763" lon="6.16304">
        <ele>1463.6</ele>
        <time>2024-08-09T12:45:18Z</time>
      </trkpt>
      <trkpt lat="45.08763" lon="6.16304">
        <ele>1463.2</ele>
        <time>2024-08-09T12:45:19Z</time>
      </trkpt>
      <trkpt lat="45.0876" lon="6.16302">
        <ele>1463.2</ele>
        <time>2024-08-09T12:45:20Z</time>
      </trkpt>
      <trkpt lat="45.0876" lon="6.16302">
        <ele>1463.2</ele>
        <time>2024-08-09T12:45:21Z</time>
      </trkpt>
      <trkpt lat="45.08758" lon="6.16301">
        <ele>1463.2</ele>
        <time>2024-08-09T12:45:22Z</time>
      </trkpt>
      <trkpt lat="45.08756" lon="6.16301">
        <ele>1463</ele>
        <time>2024-08-09T12:45:23Z</time>
      </trkpt>
      <trkpt lat="45.08754" lon="6.163">
        <ele>1462.8</ele>
        <time>2024-08-09T12:45:24Z</time>
      </trkpt>
      <trkpt lat="45.08754" lon="6.163">
        <ele>1462.6</ele>
        <time>2024-08-09T12:45:25Z</time>
      </trkpt>
      <trkpt lat="45.08752" lon="6.16299">
        <ele>1462.4</ele>
        <time>2024-08-09T12:45:26Z</time>
      </trkpt>
      <trkpt lat="45.08752" lon="6.16299">
        <ele>1462.2</ele>
        <time>2024-08-09T12:45:27Z</time>
      </trkpt>
      <trkpt lat="45.08749" lon="6.16297">
        <ele>1462</ele>
        <time>2024-08-09T12:45:28Z</time>
      </trkpt>
      <trkpt lat="45.08749" lon="6.16297">
        <ele>1461.8</ele>
        <time>2024-08-09T12:45:29Z</time>
      </trkpt>
      <trkpt lat="45.08747" lon="6.16295">
        <ele>1461.6</ele>
        <time>2024-08-09T12:45:30Z</time>
      </trkpt>
      <trkpt lat="45.08747" lon="6.16295">
        <ele>1461.4</ele>
        <time>2024-08-09T12:45:31Z</time>
      </trkpt>
      <trkpt lat="45.08745" lon="6.16293">
        <ele>1461.2</ele>
        <time>2024-08-09T12:45:32Z</time>
      </trkpt>
      <trkpt lat="45.08745" lon="6.16293">
        <ele>1461.2</ele>
        <time>2024-08-09T12:45:33Z</time>
      </trkpt>
      <trkpt lat="45.08743" lon="6.16291">
        <ele>1461</ele>
        <time>2024-08-09T12:45:34Z</time>
      </trkpt>
      <trkpt lat="45.08741" lon="6.1629">
        <ele>1461</ele>
        <time>2024-08-09T12:45:35Z</time>
      </trkpt>
      <trkpt lat="45.08741" lon="6.1629">
        <ele>1461</ele>
        <time>2024-08-09T12:45:36Z</time>
      </trkpt>
      <trkpt lat="45.08738" lon="6.16289">
        <ele>1461</ele>
        <time>2024-08-09T12:45:37Z</time>
      </trkpt>
      <trkpt lat="45.08738" lon="6.16289">
        <ele>1460.8</ele>
        <time>2024-08-09T12:45:38Z</time>
      </trkpt>
      <trkpt lat="45.08736" lon="6.16288">
        <ele>1460.4</ele>
        <time>2024-08-09T12:45:39Z</time>
      </trkpt>
      <trkpt lat="45.08736" lon="6.16288">
        <ele>1460.4</ele>
        <time>2024-08-09T12:45:40Z</time>
      </trkpt>
      <trkpt lat="45.08733" lon="6.16286">
        <ele>1460.4</ele>
        <time>2024-08-09T12:45:41Z</time>
      </trkpt>
      <trkpt lat="45.08733" lon="6.16286">
        <ele>1460.2</ele>
        <time>2024-08-09T12:45:42Z</time>
      </trkpt>
      <trkpt lat="45.08731" lon="6.16286">
        <ele>1460.2</ele>
        <time>2024-08-09T12:45:43Z</time>
      </trkpt>
      <trkpt lat="45.08729" lon="6.16286">
        <ele>1460</ele>
        <time>2024-08-09T12:45:44Z</time>
      </trkpt>
      <trkpt lat="45.08729" lon="6.16286">
        <ele>1460</ele>
        <time>2024-08-09T12:45:45Z</time>
      </trkpt>
      <trkpt lat="45.08726" lon="6.16287">
        <ele>1459.8</ele>
        <time>2024-08-09T12:45:46Z</time>
      </trkpt>
      <trkpt lat="45.08726" lon="6.16287">
        <ele>1459.6</ele>
        <time>2024-08-09T12:45:47Z</time>
      </trkpt>
      <trkpt lat="45.08723" lon="6.16288">
        <ele>1459.6</ele>
        <time>2024-08-09T12:45:48Z</time>
      </trkpt>
      <trkpt lat="45.08721" lon="6.16288">
        <ele>1459.4</ele>
        <time>2024-08-09T12:45:49Z</time>
      </trkpt>
      <trkpt lat="45.08721" lon="6.16288">
        <ele>1459.4</ele>
        <time>2024-08-09T12:45:50Z</time>
      </trkpt>
      <trkpt lat="45.08719" lon="6.16289">
        <ele>1459.2</ele>
        <time>2024-08-09T12:45:51Z</time>
      </trkpt>
      <trkpt lat="45.08719" lon="6.16289">
        <ele>1458.8</ele>
        <time>2024-08-09T12:45:52Z</time>
      </trkpt>
      <trkpt lat="45.08716" lon="6.16289">
        <ele>1458.8</ele>
        <time>2024-08-09T12:45:53Z</time>
      </trkpt>
      <trkpt lat="45.08716" lon="6.16289">
        <ele>1458.8</ele>
        <time>2024-08-09T12:45:54Z</time>
      </trkpt>
      <trkpt lat="45.08714" lon="6.1629">
        <ele>1458.6</ele>
        <time>2024-08-09T12:45:55Z</time>
      </trkpt>
      <trkpt lat="45.08714" lon="6.1629">
        <ele>1458.4</ele>
        <time>2024-08-09T12:45:56Z</time>
      </trkpt>
      <trkpt lat="45.08712" lon="6.16292">
        <ele>1458.4</ele>
        <time>2024-08-09T12:45:57Z</time>
      </trkpt>
      <trkpt lat="45.08712" lon="6.16292">
        <ele>1458.4</ele>
        <time>2024-08-09T12:45:58Z</time>
      </trkpt>
      <trkpt lat="45.08709" lon="6.16294">
        <ele>1458.4</ele>
        <time>2024-08-09T12:45:59Z</time>
      </trkpt>
      <trkpt lat="45.08709" lon="6.16294">
        <ele>1458.2</ele>
        <time>2024-08-09T12:46:00Z</time>
      </trkpt>
      <trkpt lat="45.08707" lon="6.16297">
        <ele>1458</ele>
        <time>2024-08-09T12:46:01Z</time>
      </trkpt>
      <trkpt lat="45.08707" lon="6.16297">
        <ele>1457.4</ele>
        <time>2024-08-09T12:46:02Z</time>
      </trkpt>
      <trkpt lat="45.08705" lon="6.163">
        <ele>1457.4</ele>
        <time>2024-08-09T12:46:03Z</time>
      </trkpt>
      <trkpt lat="45.08705" lon="6.163">
        <ele>1457.2</ele>
        <time>2024-08-09T12:46:04Z</time>
      </trkpt>
      <trkpt lat="45.08704" lon="6.16304">
        <ele>1457.2</ele>
        <time>2024-08-09T12:46:05Z</time>
      </trkpt>
      <trkpt lat="45.08704" lon="6.16304">
        <ele>1457</ele>
        <time>2024-08-09T12:46:06Z</time>
      </trkpt>
      <trkpt lat="45.08703" lon="6.16308">
        <ele>1457</ele>
        <time>2024-08-09T12:46:07Z</time>
      </trkpt>
      <trkpt lat="45.08703" lon="6.16308">
        <ele>1456.6</ele>
        <time>2024-08-09T12:46:08Z</time>
      </trkpt>
      <trkpt lat="45.08702" lon="6.16311">
        <ele>1456.6</ele>
        <time>2024-08-09T12:46:09Z</time>
      </trkpt>
      <trkpt lat="45.08702" lon="6.16311">
        <ele>1456.2</ele>
        <time>2024-08-09T12:46:10Z</time>
      </trkpt>
      <trkpt lat="45.087" lon="6.16314">
        <ele>1456.2</ele>
        <time>2024-08-09T12:46:11Z</time>
      </trkpt>
      <trkpt lat="45.087" lon="6.16314">
        <ele>1455.8</ele>
        <time>2024-08-09T12:46:12Z</time>
      </trkpt>
      <trkpt lat="45.08698" lon="6.16317">
        <ele>1455.8</ele>
        <time>2024-08-09T12:46:13Z</time>
      </trkpt>
      <trkpt lat="45.08698" lon="6.16317">
        <ele>1455.8</ele>
        <time>2024-08-09T12:46:14Z</time>
      </trkpt>
      <trkpt lat="45.08697" lon="6.1632">
        <ele>1455.8</ele>
        <time>2024-08-09T12:46:15Z</time>
      </trkpt>
      <trkpt lat="45.08697" lon="6.1632">
        <ele>1455.4</ele>
        <time>2024-08-09T12:46:16Z</time>
      </trkpt>
      <trkpt lat="45.08695" lon="6.16323">
        <ele>1455</ele>
        <time>2024-08-09T12:46:17Z</time>
      </trkpt>
      <trkpt lat="45.08695" lon="6.16323">
        <ele>1455</ele>
        <time>2024-08-09T12:46:18Z</time>
      </trkpt>
      <trkpt lat="45.08694" lon="6.16325">
        <ele>1454.8</ele>
        <time>2024-08-09T12:46:19Z</time>
      </trkpt>
      <trkpt lat="45.08694" lon="6.16325">
        <ele>1454.8</ele>
        <time>2024-08-09T12:46:20Z</time>
      </trkpt>
      <trkpt lat="45.08694" lon="6.16325">
        <ele>1454.6</ele>
        <time>2024-08-09T12:46:21Z</time>
      </trkpt>
      <trkpt lat="45.08693" lon="6.16328">
        <ele>1454.2</ele>
        <time>2024-08-09T12:46:22Z</time>
      </trkpt>
      <trkpt lat="45.08691" lon="6.1633">
        <ele>1454</ele>
        <time>2024-08-09T12:46:23Z</time>
      </trkpt>
      <trkpt lat="45.08691" lon="6.1633">
        <ele>1453.6</ele>
        <time>2024-08-09T12:46:24Z</time>
      </trkpt>
      <trkpt lat="45.0869" lon="6.16333">
        <ele>1453.4</ele>
        <time>2024-08-09T12:46:25Z</time>
      </trkpt>
      <trkpt lat="45.0869" lon="6.16333">
        <ele>1453.4</ele>
        <time>2024-08-09T12:46:26Z</time>
      </trkpt>
      <trkpt lat="45.08689" lon="6.16335">
        <ele>1453</ele>
        <time>2024-08-09T12:46:27Z</time>
      </trkpt>
      <trkpt lat="45.08689" lon="6.16335">
        <ele>1452.4</ele>
        <time>2024-08-09T12:46:28Z</time>
      </trkpt>
      <trkpt lat="45.08688" lon="6.16337">
        <ele>1452.2</ele>
        <time>2024-08-09T12:46:29Z</time>
      </trkpt>
      <trkpt lat="45.08688" lon="6.16337">
        <ele>1452</ele>
        <time>2024-08-09T12:46:30Z</time>
      </trkpt>
      <trkpt lat="45.08688" lon="6.16337">
        <ele>1451.6</ele>
        <time>2024-08-09T12:46:31Z</time>
      </trkpt>
      <trkpt lat="45.08686" lon="6.16341">
        <ele>1451.4</ele>
        <time>2024-08-09T12:46:32Z</time>
      </trkpt>
      <trkpt lat="45.08686" lon="6.16341">
        <ele>1451.2</ele>
        <time>2024-08-09T12:46:33Z</time>
      </trkpt>
      <trkpt lat="45.08685" lon="6.16343">
        <ele>1451</ele>
        <time>2024-08-09T12:46:34Z</time>
      </trkpt>
      <trkpt lat="45.08685" lon="6.16343">
        <ele>1450.8</ele>
        <time>2024-08-09T12:46:35Z</time>
      </trkpt>
      <trkpt lat="45.08685" lon="6.16343">
        <ele>1450.6</ele>
        <time>2024-08-09T12:46:36Z</time>
      </trkpt>
      <trkpt lat="45.08683" lon="6.16346">
        <ele>1450.2</ele>
        <time>2024-08-09T12:46:37Z</time>
      </trkpt>
      <trkpt lat="45.08683" lon="6.16346">
        <ele>1449.8</ele>
        <time>2024-08-09T12:46:38Z</time>
      </trkpt>
      <trkpt lat="45.08683" lon="6.16346">
        <ele>1449.6</ele>
        <time>2024-08-09T12:46:39Z</time>
      </trkpt>
      <trkpt lat="45.08681" lon="6.16348">
        <ele>1449</ele>
        <time>2024-08-09T12:46:40Z</time>
      </trkpt>
      <trkpt lat="45.08681" lon="6.16348">
        <ele>1448.8</ele>
        <time>2024-08-09T12:46:41Z</time>
      </trkpt>
      <trkpt lat="45.08679" lon="6.16349">
        <ele>1448.6</ele>
        <time>2024-08-09T12:46:42Z</time>
      </trkpt>
      <trkpt lat="45.08679" lon="6.16349">
        <ele>1448.4</ele>
        <time>2024-08-09T12:46:43Z</time>
      </trkpt>
      <trkpt lat="45.08677" lon="6.1635">
        <ele>1448.2</ele>
        <time>2024-08-09T12:46:44Z</time>
      </trkpt>
      <trkpt lat="45.08677" lon="6.1635">
        <ele>1447.6</ele>
        <time>2024-08-09T12:46:45Z</time>
      </trkpt>
      <trkpt lat="45.08674" lon="6.16351">
        <ele>1447.4</ele>
        <time>2024-08-09T12:46:46Z</time>
      </trkpt>
      <trkpt lat="45.08674" lon="6.16351">
        <ele>1447.2</ele>
        <time>2024-08-09T12:46:47Z</time>
      </trkpt>
      <trkpt lat="45.08674" lon="6.16351">
        <ele>1446.8</ele>
        <time>2024-08-09T12:46:48Z</time>
      </trkpt>
      <trkpt lat="45.08671" lon="6.16352">
        <ele>1446.6</ele>
        <time>2024-08-09T12:46:49Z</time>
      </trkpt>
      <trkpt lat="45.08671" lon="6.16352">
        <ele>1446.4</ele>
        <time>2024-08-09T12:46:50Z</time>
      </trkpt>
      <trkpt lat="45.08668" lon="6.16352">
        <ele>1445.8</ele>
        <time>2024-08-09T12:46:51Z</time>
      </trkpt>
      <trkpt lat="45.08668" lon="6.16352">
        <ele>1445.4</ele>
        <time>2024-08-09T12:46:52Z</time>
      </trkpt>
      <trkpt lat="45.08666" lon="6.16351">
        <ele>1445.2</ele>
        <time>2024-08-09T12:46:53Z</time>
      </trkpt>
      <trkpt lat="45.08666" lon="6.16351">
        <ele>1445</ele>
        <time>2024-08-09T12:46:54Z</time>
      </trkpt>
      <trkpt lat="45.08663" lon="6.1635">
        <ele>1445</ele>
        <time>2024-08-09T12:46:55Z</time>
      </trkpt>
      <trkpt lat="45.08663" lon="6.1635">
        <ele>1444.6</ele>
        <time>2024-08-09T12:46:56Z</time>
      </trkpt>
      <trkpt lat="45.08661" lon="6.1635">
        <ele>1444.2</ele>
        <time>2024-08-09T12:46:57Z</time>
      </trkpt>
      <trkpt lat="45.08661" lon="6.1635">
        <ele>1444</ele>
        <time>2024-08-09T12:46:58Z</time>
      </trkpt>
      <trkpt lat="45.08659" lon="6.1635">
        <ele>1444</ele>
        <time>2024-08-09T12:46:59Z</time>
      </trkpt>
      <trkpt lat="45.08659" lon="6.1635">
        <ele>1444</ele>
        <time>2024-08-09T12:47:00Z</time>
      </trkpt>
      <trkpt lat="45.08659" lon="6.1635">
        <ele>1443.4</ele>
        <time>2024-08-09T12:47:01Z</time>
      </trkpt>
      <trkpt lat="45.08657" lon="6.16351">
        <ele>1443</ele>
        <time>2024-08-09T12:47:02Z</time>
      </trkpt>
      <trkpt lat="45.08657" lon="6.16351">
        <ele>1443</ele>
        <time>2024-08-09T12:47:03Z</time>
      </trkpt>
      <trkpt lat="45.08657" lon="6.16351">
        <ele>1442.6</ele>
        <time>2024-08-09T12:47:04Z</time>
      </trkpt>
      <trkpt lat="45.08654" lon="6.1635">
        <ele>1442.4</ele>
        <time>2024-08-09T12:47:05Z</time>
      </trkpt>
      <trkpt lat="45.08654" lon="6.1635">
        <ele>1442.2</ele>
        <time>2024-08-09T12:47:06Z</time>
      </trkpt>
      <trkpt lat="45.08652" lon="6.1635">
        <ele>1442</ele>
        <time>2024-08-09T12:47:07Z</time>
      </trkpt>
      <trkpt lat="45.08652" lon="6.1635">
        <ele>1441.8</ele>
        <time>2024-08-09T12:47:08Z</time>
      </trkpt>
      <trkpt lat="45.08649" lon="6.16349">
        <ele>1441.6</ele>
        <time>2024-08-09T12:47:09Z</time>
      </trkpt>
      <trkpt lat="45.08649" lon="6.16349">
        <ele>1441.2</ele>
        <time>2024-08-09T12:47:10Z</time>
      </trkpt>
      <trkpt lat="45.08646" lon="6.16347">
        <ele>1441</ele>
        <time>2024-08-09T12:47:11Z</time>
      </trkpt>
      <trkpt lat="45.08646" lon="6.16347">
        <ele>1441</ele>
        <time>2024-08-09T12:47:12Z</time>
      </trkpt>
      <trkpt lat="45.08644" lon="6.16345">
        <ele>1440.8</ele>
        <time>2024-08-09T12:47:13Z</time>
      </trkpt>
      <trkpt lat="45.08644" lon="6.16345">
        <ele>1440.6</ele>
        <time>2024-08-09T12:47:14Z</time>
      </trkpt>
      <trkpt lat="45.08642" lon="6.16342">
        <ele>1440.4</ele>
        <time>2024-08-09T12:47:15Z</time>
      </trkpt>
      <trkpt lat="45.08642" lon="6.16342">
        <ele>1440.2</ele>
        <time>2024-08-09T12:47:16Z</time>
      </trkpt>
      <trkpt lat="45.08639" lon="6.16341">
        <ele>1440</ele>
        <time>2024-08-09T12:47:17Z</time>
      </trkpt>
      <trkpt lat="45.08639" lon="6.16341">
        <ele>1440</ele>
        <time>2024-08-09T12:47:18Z</time>
      </trkpt>
      <trkpt lat="45.08637" lon="6.16338">
        <ele>1440</ele>
        <time>2024-08-09T12:47:19Z</time>
      </trkpt>
      <trkpt lat="45.08637" lon="6.16338">
        <ele>1439.6</ele>
        <time>2024-08-09T12:47:20Z</time>
      </trkpt>
      <trkpt lat="45.08636" lon="6.16335">
        <ele>1439</ele>
        <time>2024-08-09T12:47:21Z</time>
      </trkpt>
      <trkpt lat="45.08636" lon="6.16335">
        <ele>1439</ele>
        <time>2024-08-09T12:47:22Z</time>
      </trkpt>
      <trkpt lat="45.08634" lon="6.1633">
        <ele>1439</ele>
        <time>2024-08-09T12:47:23Z</time>
      </trkpt>
      <trkpt lat="45.08634" lon="6.1633">
        <ele>1438.6</ele>
        <time>2024-08-09T12:47:24Z</time>
      </trkpt>
      <trkpt lat="45.08632" lon="6.16326">
        <ele>1438.2</ele>
        <time>2024-08-09T12:47:25Z</time>
      </trkpt>
      <trkpt lat="45.08631" lon="6.16325">
        <ele>1438</ele>
        <time>2024-08-09T12:47:26Z</time>
      </trkpt>
      <trkpt lat="45.08631" lon="6.16325">
        <ele>1437.6</ele>
        <time>2024-08-09T12:47:27Z</time>
      </trkpt>
      <trkpt lat="45.08629" lon="6.16324">
        <ele>1437.4</ele>
        <time>2024-08-09T12:47:28Z</time>
      </trkpt>
      <trkpt lat="45.08629" lon="6.16324">
        <ele>1437.2</ele>
        <time>2024-08-09T12:47:29Z</time>
      </trkpt>
      <trkpt lat="45.08627" lon="6.16323">
        <ele>1437</ele>
        <time>2024-08-09T12:47:30Z</time>
      </trkpt>
      <trkpt lat="45.08627" lon="6.16323">
        <ele>1436.6</ele>
        <time>2024-08-09T12:47:31Z</time>
      </trkpt>
      <trkpt lat="45.08625" lon="6.16323">
        <ele>1436.2</ele>
        <time>2024-08-09T12:47:32Z</time>
      </trkpt>
      <trkpt lat="45.08625" lon="6.16323">
        <ele>1436</ele>
        <time>2024-08-09T12:47:33Z</time>
      </trkpt>
      <trkpt lat="45.08622" lon="6.16323">
        <ele>1435.8</ele>
        <time>2024-08-09T12:47:34Z</time>
      </trkpt>
      <trkpt lat="45.08622" lon="6.16323">
        <ele>1435.6</ele>
        <time>2024-08-09T12:47:35Z</time>
      </trkpt>
      <trkpt lat="45.08619" lon="6.16322">
        <ele>1435.4</ele>
        <time>2024-08-09T12:47:36Z</time>
      </trkpt>
      <trkpt lat="45.08619" lon="6.16322">
        <ele>1435.4</ele>
        <time>2024-08-09T12:47:37Z</time>
      </trkpt>
      <trkpt lat="45.08617" lon="6.16322">
        <ele>1435</ele>
        <time>2024-08-09T12:47:38Z</time>
      </trkpt>
      <trkpt lat="45.08617" lon="6.16322">
        <ele>1434.6</ele>
        <time>2024-08-09T12:47:39Z</time>
      </trkpt>
      <trkpt lat="45.08615" lon="6.16319">
        <ele>1434.4</ele>
        <time>2024-08-09T12:47:40Z</time>
      </trkpt>
      <trkpt lat="45.08615" lon="6.16319">
        <ele>1434.4</ele>
        <time>2024-08-09T12:47:41Z</time>
      </trkpt>
      <trkpt lat="45.08614" lon="6.16317">
        <ele>1434</ele>
        <time>2024-08-09T12:47:42Z</time>
      </trkpt>
      <trkpt lat="45.08614" lon="6.16317">
        <ele>1433.8</ele>
        <time>2024-08-09T12:47:43Z</time>
      </trkpt>
      <trkpt lat="45.08612" lon="6.16315">
        <ele>1433.4</ele>
        <time>2024-08-09T12:47:44Z</time>
      </trkpt>
      <trkpt lat="45.08612" lon="6.16315">
        <ele>1433</ele>
        <time>2024-08-09T12:47:45Z</time>
      </trkpt>
      <trkpt lat="45.08612" lon="6.16315">
        <ele>1432.6</ele>
        <time>2024-08-09T12:47:46Z</time>
      </trkpt>
      <trkpt lat="45.0861" lon="6.16313">
        <ele>1432.2</ele>
        <time>2024-08-09T12:47:47Z</time>
      </trkpt>
      <trkpt lat="45.0861" lon="6.16313">
        <ele>1432.2</ele>
        <time>2024-08-09T12:47:48Z</time>
      </trkpt>
      <trkpt lat="45.08608" lon="6.16312">
        <ele>1431.6</ele>
        <time>2024-08-09T12:47:49Z</time>
      </trkpt>
      <trkpt lat="45.08608" lon="6.16312">
        <ele>1431.4</ele>
        <time>2024-08-09T12:47:50Z</time>
      </trkpt>
      <trkpt lat="45.08607" lon="6.1631">
        <ele>1431.2</ele>
        <time>2024-08-09T12:47:51Z</time>
      </trkpt>
      <trkpt lat="45.08607" lon="6.1631">
        <ele>1431</ele>
        <time>2024-08-09T12:47:52Z</time>
      </trkpt>
      <trkpt lat="45.08607" lon="6.1631">
        <ele>1430.8</ele>
        <time>2024-08-09T12:47:53Z</time>
      </trkpt>
      <trkpt lat="45.08607" lon="6.1631">
        <ele>1430.6</ele>
        <time>2024-08-09T12:47:54Z</time>
      </trkpt>
      <trkpt lat="45.08607" lon="6.1631">
        <ele>1430.4</ele>
        <time>2024-08-09T12:47:55Z</time>
      </trkpt>
      <trkpt lat="45.08608" lon="6.16308">
        <ele>1430.4</ele>
        <time>2024-08-09T12:47:56Z</time>
      </trkpt>
      <trkpt lat="45.08608" lon="6.16308">
        <ele>1430.4</ele>
        <time>2024-08-09T12:47:57Z</time>
      </trkpt>
      <trkpt lat="45.08608" lon="6.16308">
        <ele>1430.4</ele>
        <time>2024-08-09T12:47:58Z</time>
      </trkpt>
      <trkpt lat="45.08608" lon="6.16308">
        <ele>1430.6</ele>
        <time>2024-08-09T12:47:59Z</time>
      </trkpt>
      <trkpt lat="45.08608" lon="6.16308">
        <ele>1430.6</ele>
        <time>2024-08-09T12:48:00Z</time>
      </trkpt>
      <trkpt lat="45.08608" lon="6.16308">
        <ele>1430.6</ele>
        <time>2024-08-09T12:48:01Z</time>
      </trkpt>
      <trkpt lat="45.08608" lon="6.16308">
        <ele>1430.4</ele>
        <time>2024-08-09T12:48:02Z</time>
      </trkpt>
      <trkpt lat="45.08608" lon="6.16308">
        <ele>1430.4</ele>
        <time>2024-08-09T12:48:03Z</time>
      </trkpt>
      <trkpt lat="45.08608" lon="6.16308">
        <ele>1430.4</ele>
        <time>2024-08-09T12:48:04Z</time>
      </trkpt>
      <trkpt lat="45.08608" lon="6.16308">
        <ele>1430.4</ele>
        <time>2024-08-09T12:48:05Z</time>
      </trkpt>
      <trkpt lat="45.08608" lon="6.16308">
        <ele>1430.8</ele>
        <time>2024-08-09T12:48:06Z</time>
      </trkpt>
      <trkpt lat="45.08605" lon="6.16307">
        <ele>1430.8</ele>
        <time>2024-08-09T12:48:07Z</time>
      </trkpt>
      <trkpt lat="45.08605" lon="6.16307">
        <ele>1430.2</ele>
        <time>2024-08-09T12:48:08Z</time>
      </trkpt>
      <trkpt lat="45.08603" lon="6.16305">
        <ele>1429.8</ele>
        <time>2024-08-09T12:48:09Z</time>
      </trkpt>
      <trkpt lat="45.08603" lon="6.16305">
        <ele>1429.6</ele>
        <time>2024-08-09T12:48:10Z</time>
      </trkpt>
      <trkpt lat="45.08601" lon="6.16303">
        <ele>1429.4</ele>
        <time>2024-08-09T12:48:11Z</time>
      </trkpt>
      <trkpt lat="45.08601" lon="6.16303">
        <ele>1429</ele>
        <time>2024-08-09T12:48:12Z</time>
      </trkpt>
      <trkpt lat="45.08601" lon="6.16303">
        <ele>1428.6</ele>
        <time>2024-08-09T12:48:13Z</time>
      </trkpt>
      <trkpt lat="45.08598" lon="6.16301">
        <ele>1428.4</ele>
        <time>2024-08-09T12:48:14Z</time>
      </trkpt>
      <trkpt lat="45.08598" lon="6.16301">
        <ele>1428</ele>
        <time>2024-08-09T12:48:15Z</time>
      </trkpt>
      <trkpt lat="45.08595" lon="6.163">
        <ele>1427.8</ele>
        <time>2024-08-09T12:48:16Z</time>
      </trkpt>
      <trkpt lat="45.08595" lon="6.163">
        <ele>1427.8</ele>
        <time>2024-08-09T12:48:17Z</time>
      </trkpt>
      <trkpt lat="45.08592" lon="6.16298">
        <ele>1427.8</ele>
        <time>2024-08-09T12:48:18Z</time>
      </trkpt>
      <trkpt lat="45.08592" lon="6.16298">
        <ele>1427.6</ele>
        <time>2024-08-09T12:48:19Z</time>
      </trkpt>
      <trkpt lat="45.0859" lon="6.16296">
        <ele>1427.6</ele>
        <time>2024-08-09T12:48:20Z</time>
      </trkpt>
      <trkpt lat="45.08589" lon="6.16295">
        <ele>1427.4</ele>
        <time>2024-08-09T12:48:21Z</time>
      </trkpt>
      <trkpt lat="45.08589" lon="6.16295">
        <ele>1427.4</ele>
        <time>2024-08-09T12:48:22Z</time>
      </trkpt>
      <trkpt lat="45.08586" lon="6.16293">
        <ele>1427.2</ele>
        <time>2024-08-09T12:48:23Z</time>
      </trkpt>
      <trkpt lat="45.08586" lon="6.16293">
        <ele>1427</ele>
        <time>2024-08-09T12:48:24Z</time>
      </trkpt>
      <trkpt lat="45.08583" lon="6.16291">
        <ele>1426.8</ele>
        <time>2024-08-09T12:48:25Z</time>
      </trkpt>
      <trkpt lat="45.08583" lon="6.16291">
        <ele>1426.8</ele>
        <time>2024-08-09T12:48:26Z</time>
      </trkpt>
      <trkpt lat="45.08581" lon="6.16292">
        <ele>1426.6</ele>
        <time>2024-08-09T12:48:27Z</time>
      </trkpt>
      <trkpt lat="45.08581" lon="6.16292">
        <ele>1426.6</ele>
        <time>2024-08-09T12:48:28Z</time>
      </trkpt>
      <trkpt lat="45.08579" lon="6.16293">
        <ele>1426.2</ele>
        <time>2024-08-09T12:48:29Z</time>
      </trkpt>
      <trkpt lat="45.08579" lon="6.16293">
        <ele>1426.2</ele>
        <time>2024-08-09T12:48:30Z</time>
      </trkpt>
      <trkpt lat="45.08576" lon="6.16295">
        <ele>1426.2</ele>
        <time>2024-08-09T12:48:31Z</time>
      </trkpt>
      <trkpt lat="45.08576" lon="6.16295">
        <ele>1426.2</ele>
        <time>2024-08-09T12:48:32Z</time>
      </trkpt>
      <trkpt lat="45.08573" lon="6.16295">
        <ele>1426</ele>
        <time>2024-08-09T12:48:33Z</time>
      </trkpt>
      <trkpt lat="45.08573" lon="6.16295">
        <ele>1425.8</ele>
        <time>2024-08-09T12:48:34Z</time>
      </trkpt>
      <trkpt lat="45.0857" lon="6.16296">
        <ele>1425.8</ele>
        <time>2024-08-09T12:48:35Z</time>
      </trkpt>
      <trkpt lat="45.0857" lon="6.16296">
        <ele>1425.6</ele>
        <time>2024-08-09T12:48:36Z</time>
      </trkpt>
      <trkpt lat="45.08568" lon="6.16296">
        <ele>1425.4</ele>
        <time>2024-08-09T12:48:37Z</time>
      </trkpt>
      <trkpt lat="45.08568" lon="6.16296">
        <ele>1425.4</ele>
        <time>2024-08-09T12:48:38Z</time>
      </trkpt>
      <trkpt lat="45.08565" lon="6.16297">
        <ele>1425.6</ele>
        <time>2024-08-09T12:48:39Z</time>
      </trkpt>
      <trkpt lat="45.08565" lon="6.16297">
        <ele>1425.6</ele>
        <time>2024-08-09T12:48:40Z</time>
      </trkpt>
      <trkpt lat="45.08562" lon="6.16297">
        <ele>1425.6</ele>
        <time>2024-08-09T12:48:41Z</time>
      </trkpt>
      <trkpt lat="45.08562" lon="6.16297">
        <ele>1425.6</ele>
        <time>2024-08-09T12:48:42Z</time>
      </trkpt>
      <trkpt lat="45.08559" lon="6.16298">
        <ele>1425.6</ele>
        <time>2024-08-09T12:48:43Z</time>
      </trkpt>
      <trkpt lat="45.08557" lon="6.16298">
        <ele>1425.6</ele>
        <time>2024-08-09T12:48:44Z</time>
      </trkpt>
      <trkpt lat="45.08557" lon="6.16298">
        <ele>1424.8</ele>
        <time>2024-08-09T12:48:45Z</time>
      </trkpt>
      <trkpt lat="45.08555" lon="6.16299">
        <ele>1424.6</ele>
        <time>2024-08-09T12:48:46Z</time>
      </trkpt>
      <trkpt lat="45.08553" lon="6.16299">
        <ele>1424.6</ele>
        <time>2024-08-09T12:48:47Z</time>
      </trkpt>
      <trkpt lat="45.08553" lon="6.16299">
        <ele>1424.4</ele>
        <time>2024-08-09T12:48:48Z</time>
      </trkpt>
      <trkpt lat="45.08549" lon="6.16298">
        <ele>1424.2</ele>
        <time>2024-08-09T12:48:49Z</time>
      </trkpt>
      <trkpt lat="45.08549" lon="6.16298">
        <ele>1424</ele>
        <time>2024-08-09T12:48:50Z</time>
      </trkpt>
      <trkpt lat="45.08547" lon="6.16298">
        <ele>1423.8</ele>
        <time>2024-08-09T12:48:51Z</time>
      </trkpt>
      <trkpt lat="45.08547" lon="6.16298">
        <ele>1423.6</ele>
        <time>2024-08-09T12:48:52Z</time>
      </trkpt>
      <trkpt lat="45.08544" lon="6.16298">
        <ele>1423.6</ele>
        <time>2024-08-09T12:48:53Z</time>
      </trkpt>
      <trkpt lat="45.08544" lon="6.16298">
        <ele>1423.6</ele>
        <time>2024-08-09T12:48:54Z</time>
      </trkpt>
      <trkpt lat="45.08541" lon="6.16299">
        <ele>1424</ele>
        <time>2024-08-09T12:48:55Z</time>
      </trkpt>
      <trkpt lat="45.08541" lon="6.16299">
        <ele>1424</ele>
        <time>2024-08-09T12:48:56Z</time>
      </trkpt>
      <trkpt lat="45.08538" lon="6.16299">
        <ele>1423.8</ele>
        <time>2024-08-09T12:48:57Z</time>
      </trkpt>
      <trkpt lat="45.08538" lon="6.16299">
        <ele>1423.4</ele>
        <time>2024-08-09T12:48:58Z</time>
      </trkpt>
      <trkpt lat="45.08535" lon="6.16299">
        <ele>1423</ele>
        <time>2024-08-09T12:48:59Z</time>
      </trkpt>
      <trkpt lat="45.08535" lon="6.16299">
        <ele>1423</ele>
        <time>2024-08-09T12:49:00Z</time>
      </trkpt>
      <trkpt lat="45.08532" lon="6.16298">
        <ele>1422.8</ele>
        <time>2024-08-09T12:49:01Z</time>
      </trkpt>
      <trkpt lat="45.08532" lon="6.16298">
        <ele>1422.4</ele>
        <time>2024-08-09T12:49:02Z</time>
      </trkpt>
      <trkpt lat="45.08529" lon="6.16298">
        <ele>1422.4</ele>
        <time>2024-08-09T12:49:03Z</time>
      </trkpt>
      <trkpt lat="45.08529" lon="6.16298">
        <ele>1422.4</ele>
        <time>2024-08-09T12:49:04Z</time>
      </trkpt>
      <trkpt lat="45.08526" lon="6.16298">
        <ele>1422.2</ele>
        <time>2024-08-09T12:49:05Z</time>
      </trkpt>
      <trkpt lat="45.08526" lon="6.16298">
        <ele>1422.2</ele>
        <time>2024-08-09T12:49:06Z</time>
      </trkpt>
      <trkpt lat="45.08523" lon="6.16298">
        <ele>1422</ele>
        <time>2024-08-09T12:49:07Z</time>
      </trkpt>
      <trkpt lat="45.08523" lon="6.16298">
        <ele>1422</ele>
        <time>2024-08-09T12:49:08Z</time>
      </trkpt>
      <trkpt lat="45.0852" lon="6.16298">
        <ele>1421.6</ele>
        <time>2024-08-09T12:49:09Z</time>
      </trkpt>
      <trkpt lat="45.0852" lon="6.16298">
        <ele>1421.4</ele>
        <time>2024-08-09T12:49:10Z</time>
      </trkpt>
      <trkpt lat="45.08517" lon="6.16298">
        <ele>1421.2</ele>
        <time>2024-08-09T12:49:11Z</time>
      </trkpt>
      <trkpt lat="45.08517" lon="6.16298">
        <ele>1421</ele>
        <time>2024-08-09T12:49:12Z</time>
      </trkpt>
      <trkpt lat="45.08514" lon="6.16297">
        <ele>1420.8</ele>
        <time>2024-08-09T12:49:13Z</time>
      </trkpt>
      <trkpt lat="45.08514" lon="6.16297">
        <ele>1420.6</ele>
        <time>2024-08-09T12:49:14Z</time>
      </trkpt>
      <trkpt lat="45.08511" lon="6.16296">
        <ele>1420.6</ele>
        <time>2024-08-09T12:49:15Z</time>
      </trkpt>
      <trkpt lat="45.08511" lon="6.16296">
        <ele>1420.6</ele>
        <time>2024-08-09T12:49:16Z</time>
      </trkpt>
      <trkpt lat="45.08509" lon="6.16296">
        <ele>1420.2</ele>
        <time>2024-08-09T12:49:17Z</time>
      </trkpt>
      <trkpt lat="45.08509" lon="6.16296">
        <ele>1420.2</ele>
        <time>2024-08-09T12:49:18Z</time>
      </trkpt>
      <trkpt lat="45.08506" lon="6.16296">
        <ele>1420</ele>
        <time>2024-08-09T12:49:19Z</time>
      </trkpt>
      <trkpt lat="45.08506" lon="6.16296">
        <ele>1419.8</ele>
        <time>2024-08-09T12:49:20Z</time>
      </trkpt>
      <trkpt lat="45.08503" lon="6.16295">
        <ele>1419.6</ele>
        <time>2024-08-09T12:49:21Z</time>
      </trkpt>
      <trkpt lat="45.08503" lon="6.16295">
        <ele>1419.2</ele>
        <time>2024-08-09T12:49:22Z</time>
      </trkpt>
      <trkpt lat="45.085" lon="6.16295">
        <ele>1419.2</ele>
        <time>2024-08-09T12:49:23Z</time>
      </trkpt>
      <trkpt lat="45.085" lon="6.16295">
        <ele>1418.8</ele>
        <time>2024-08-09T12:49:24Z</time>
      </trkpt>
      <trkpt lat="45.08498" lon="6.16295">
        <ele>1418.8</ele>
        <time>2024-08-09T12:49:25Z</time>
      </trkpt>
      <trkpt lat="45.08498" lon="6.16295">
        <ele>1418.8</ele>
        <time>2024-08-09T12:49:26Z</time>
      </trkpt>
      <trkpt lat="45.08495" lon="6.16295">
        <ele>1418.4</ele>
        <time>2024-08-09T12:49:27Z</time>
      </trkpt>
      <trkpt lat="45.08495" lon="6.16295">
        <ele>1418.4</ele>
        <time>2024-08-09T12:49:28Z</time>
      </trkpt>
      <trkpt lat="45.08492" lon="6.16295">
        <ele>1418.4</ele>
        <time>2024-08-09T12:49:29Z</time>
      </trkpt>
      <trkpt lat="45.08492" lon="6.16295">
        <ele>1418.4</ele>
        <time>2024-08-09T12:49:30Z</time>
      </trkpt>
      <trkpt lat="45.08489" lon="6.16295">
        <ele>1418.2</ele>
        <time>2024-08-09T12:49:31Z</time>
      </trkpt>
      <trkpt lat="45.08489" lon="6.16295">
        <ele>1418</ele>
        <time>2024-08-09T12:49:32Z</time>
      </trkpt>
      <trkpt lat="45.08486" lon="6.16295">
        <ele>1418</ele>
        <time>2024-08-09T12:49:33Z</time>
      </trkpt>
      <trkpt lat="45.08486" lon="6.16295">
        <ele>1417.8</ele>
        <time>2024-08-09T12:49:34Z</time>
      </trkpt>
      <trkpt lat="45.08483" lon="6.16295">
        <ele>1417.6</ele>
        <time>2024-08-09T12:49:35Z</time>
      </trkpt>
      <trkpt lat="45.08483" lon="6.16295">
        <ele>1417.4</ele>
        <time>2024-08-09T12:49:36Z</time>
      </trkpt>
      <trkpt lat="45.0848" lon="6.16295">
        <ele>1417.4</ele>
        <time>2024-08-09T12:49:37Z</time>
      </trkpt>
      <trkpt lat="45.0848" lon="6.16295">
        <ele>1417</ele>
        <time>2024-08-09T12:49:38Z</time>
      </trkpt>
      <trkpt lat="45.08477" lon="6.16294">
        <ele>1416.8</ele>
        <time>2024-08-09T12:49:39Z</time>
      </trkpt>
      <trkpt lat="45.08477" lon="6.16294">
        <ele>1416.8</ele>
        <time>2024-08-09T12:49:40Z</time>
      </trkpt>
      <trkpt lat="45.08474" lon="6.16294">
        <ele>1416.6</ele>
        <time>2024-08-09T12:49:41Z</time>
      </trkpt>
      <trkpt lat="45.08474" lon="6.16294">
        <ele>1416.6</ele>
        <time>2024-08-09T12:49:42Z</time>
      </trkpt>
      <trkpt lat="45.08471" lon="6.16295">
        <ele>1416.6</ele>
        <time>2024-08-09T12:49:43Z</time>
      </trkpt>
      <trkpt lat="45.08471" lon="6.16295">
        <ele>1416.6</ele>
        <time>2024-08-09T12:49:44Z</time>
      </trkpt>
      <trkpt lat="45.08469" lon="6.16294">
        <ele>1416.6</ele>
        <time>2024-08-09T12:49:45Z</time>
      </trkpt>
      <trkpt lat="45.08469" lon="6.16294">
        <ele>1416.6</ele>
        <time>2024-08-09T12:49:46Z</time>
      </trkpt>
      <trkpt lat="45.08466" lon="6.16294">
        <ele>1416.8</ele>
        <time>2024-08-09T12:49:47Z</time>
      </trkpt>
      <trkpt lat="45.08466" lon="6.16294">
        <ele>1416.8</ele>
        <time>2024-08-09T12:49:48Z</time>
      </trkpt>
      <trkpt lat="45.08463" lon="6.16294">
        <ele>1416.2</ele>
        <time>2024-08-09T12:49:49Z</time>
      </trkpt>
      <trkpt lat="45.08463" lon="6.16294">
        <ele>1415.8</ele>
        <time>2024-08-09T12:49:50Z</time>
      </trkpt>
      <trkpt lat="45.0846" lon="6.16294">
        <ele>1415.6</ele>
        <time>2024-08-09T12:49:51Z</time>
      </trkpt>
      <trkpt lat="45.0846" lon="6.16294">
        <ele>1415.6</ele>
        <time>2024-08-09T12:49:52Z</time>
      </trkpt>
      <trkpt lat="45.08457" lon="6.16293">
        <ele>1415.4</ele>
        <time>2024-08-09T12:49:53Z</time>
      </trkpt>
      <trkpt lat="45.08457" lon="6.16293">
        <ele>1415.4</ele>
        <time>2024-08-09T12:49:54Z</time>
      </trkpt>
      <trkpt lat="45.08455" lon="6.16292">
        <ele>1415</ele>
        <time>2024-08-09T12:49:55Z</time>
      </trkpt>
      <trkpt lat="45.08455" lon="6.16292">
        <ele>1414.8</ele>
        <time>2024-08-09T12:49:56Z</time>
      </trkpt>
      <trkpt lat="45.08452" lon="6.16291">
        <ele>1414.8</ele>
        <time>2024-08-09T12:49:57Z</time>
      </trkpt>
      <trkpt lat="45.08452" lon="6.16291">
        <ele>1414.6</ele>
        <time>2024-08-09T12:49:58Z</time>
      </trkpt>
      <trkpt lat="45.0845" lon="6.16292">
        <ele>1414.6</ele>
        <time>2024-08-09T12:49:59Z</time>
      </trkpt>
      <trkpt lat="45.08447" lon="6.16291">
        <ele>1414</ele>
        <time>2024-08-09T12:50:01Z</time>
      </trkpt>
      <trkpt lat="45.08445" lon="6.1629">
        <ele>1414</ele>
        <time>2024-08-09T12:50:02Z</time>
      </trkpt>
      <trkpt lat="45.08444" lon="6.1629">
        <ele>1413.8</ele>
        <time>2024-08-09T12:50:03Z</time>
      </trkpt>
      <trkpt lat="45.08443" lon="6.1629">
        <ele>1413.6</ele>
        <time>2024-08-09T12:50:04Z</time>
      </trkpt>
      <trkpt lat="45.08443" lon="6.1629">
        <ele>1413.6</ele>
        <time>2024-08-09T12:50:05Z</time>
      </trkpt>
      <trkpt lat="45.0844" lon="6.16289">
        <ele>1413.4</ele>
        <time>2024-08-09T12:50:06Z</time>
      </trkpt>
      <trkpt lat="45.0844" lon="6.16289">
        <ele>1413.4</ele>
        <time>2024-08-09T12:50:07Z</time>
      </trkpt>
      <trkpt lat="45.08437" lon="6.16289">
        <ele>1413.4</ele>
        <time>2024-08-09T12:50:08Z</time>
      </trkpt>
      <trkpt lat="45.08436" lon="6.16291">
        <ele>1413</ele>
        <time>2024-08-09T12:50:09Z</time>
      </trkpt>
      <trkpt lat="45.08436" lon="6.16291">
        <ele>1412.8</ele>
        <time>2024-08-09T12:50:10Z</time>
      </trkpt>
      <trkpt lat="45.08435" lon="6.16294">
        <ele>1412.4</ele>
        <time>2024-08-09T12:50:11Z</time>
      </trkpt>
      <trkpt lat="45.08435" lon="6.16294">
        <ele>1412.4</ele>
        <time>2024-08-09T12:50:12Z</time>
      </trkpt>
      <trkpt lat="45.08434" lon="6.16297">
        <ele>1412.8</ele>
        <time>2024-08-09T12:50:13Z</time>
      </trkpt>
      <trkpt lat="45.08434" lon="6.16297">
        <ele>1413</ele>
        <time>2024-08-09T12:50:14Z</time>
      </trkpt>
      <trkpt lat="45.08433" lon="6.163">
        <ele>1413</ele>
        <time>2024-08-09T12:50:15Z</time>
      </trkpt>
      <trkpt lat="45.08433" lon="6.163">
        <ele>1413</ele>
        <time>2024-08-09T12:50:16Z</time>
      </trkpt>
      <trkpt lat="45.08433" lon="6.16304">
        <ele>1413</ele>
        <time>2024-08-09T12:50:17Z</time>
      </trkpt>
      <trkpt lat="45.08433" lon="6.16304">
        <ele>1413</ele>
        <time>2024-08-09T12:50:18Z</time>
      </trkpt>
      <trkpt lat="45.08433" lon="6.16306">
        <ele>1413</ele>
        <time>2024-08-09T12:50:19Z</time>
      </trkpt>
      <trkpt lat="45.08433" lon="6.16306">
        <ele>1413</ele>
        <time>2024-08-09T12:50:20Z</time>
      </trkpt>
      <trkpt lat="45.08431" lon="6.16308">
        <ele>1412.8</ele>
        <time>2024-08-09T12:50:21Z</time>
      </trkpt>
      <trkpt lat="45.08429" lon="6.16309">
        <ele>1412.6</ele>
        <time>2024-08-09T12:50:22Z</time>
      </trkpt>
      <trkpt lat="45.08427" lon="6.1631">
        <ele>1412.6</ele>
        <time>2024-08-09T12:50:23Z</time>
      </trkpt>
      <trkpt lat="45.08425" lon="6.1631">
        <ele>1412.4</ele>
        <time>2024-08-09T12:50:24Z</time>
      </trkpt>
      <trkpt lat="45.08422" lon="6.1631">
        <ele>1412.4</ele>
        <time>2024-08-09T12:50:25Z</time>
      </trkpt>
      <trkpt lat="45.0842" lon="6.16309">
        <ele>1412.2</ele>
        <time>2024-08-09T12:50:26Z</time>
      </trkpt>
      <trkpt lat="45.0842" lon="6.16309">
        <ele>1412</ele>
        <time>2024-08-09T12:50:27Z</time>
      </trkpt>
      <trkpt lat="45.08418" lon="6.16308">
        <ele>1411.8</ele>
        <time>2024-08-09T12:50:28Z</time>
      </trkpt>
      <trkpt lat="45.08416" lon="6.16307">
        <ele>1411.8</ele>
        <time>2024-08-09T12:50:29Z</time>
      </trkpt>
      <trkpt lat="45.08416" lon="6.16307">
        <ele>1411.6</ele>
        <time>2024-08-09T12:50:30Z</time>
      </trkpt>
      <trkpt lat="45.08411" lon="6.16305">
        <ele>1411.6</ele>
        <time>2024-08-09T12:50:31Z</time>
      </trkpt>
      <trkpt lat="45.08409" lon="6.16305">
        <ele>1411.6</ele>
        <time>2024-08-09T12:50:33Z</time>
      </trkpt>
      <trkpt lat="45.08406" lon="6.16305">
        <ele>1411.6</ele>
        <time>2024-08-09T12:50:34Z</time>
      </trkpt>
      <trkpt lat="45.08406" lon="6.16305">
        <ele>1411.6</ele>
        <time>2024-08-09T12:50:35Z</time>
      </trkpt>
      <trkpt lat="45.08403" lon="6.16305">
        <ele>1411.6</ele>
        <time>2024-08-09T12:50:36Z</time>
      </trkpt>
      <trkpt lat="45.08403" lon="6.16305">
        <ele>1411.8</ele>
        <time>2024-08-09T12:50:37Z</time>
      </trkpt>
      <trkpt lat="45.084" lon="6.16304">
        <ele>1411.8</ele>
        <time>2024-08-09T12:50:38Z</time>
      </trkpt>
      <trkpt lat="45.084" lon="6.16304">
        <ele>1411.6</ele>
        <time>2024-08-09T12:50:39Z</time>
      </trkpt>
      <trkpt lat="45.08398" lon="6.16303">
        <ele>1411.6</ele>
        <time>2024-08-09T12:50:40Z</time>
      </trkpt>
      <trkpt lat="45.08398" lon="6.16303">
        <ele>1411.6</ele>
        <time>2024-08-09T12:50:41Z</time>
      </trkpt>
      <trkpt lat="45.08395" lon="6.16303">
        <ele>1411.2</ele>
        <time>2024-08-09T12:50:42Z</time>
      </trkpt>
      <trkpt lat="45.08395" lon="6.16303">
        <ele>1411</ele>
        <time>2024-08-09T12:50:43Z</time>
      </trkpt>
      <trkpt lat="45.08392" lon="6.16302">
        <ele>1410.8</ele>
        <time>2024-08-09T12:50:44Z</time>
      </trkpt>
      <trkpt lat="45.08392" lon="6.16302">
        <ele>1410.8</ele>
        <time>2024-08-09T12:50:45Z</time>
      </trkpt>
      <trkpt lat="45.08389" lon="6.16301">
        <ele>1411</ele>
        <time>2024-08-09T12:50:46Z</time>
      </trkpt>
      <trkpt lat="45.08389" lon="6.16301">
        <ele>1411</ele>
        <time>2024-08-09T12:50:47Z</time>
      </trkpt>
      <trkpt lat="45.08386" lon="6.16299">
        <ele>1411</ele>
        <time>2024-08-09T12:50:48Z</time>
      </trkpt>
      <trkpt lat="45.08386" lon="6.16299">
        <ele>1411.2</ele>
        <time>2024-08-09T12:50:49Z</time>
      </trkpt>
      <trkpt lat="45.08384" lon="6.16297">
        <ele>1411.4</ele>
        <time>2024-08-09T12:50:50Z</time>
      </trkpt>
      <trkpt lat="45.08384" lon="6.16297">
        <ele>1411.2</ele>
        <time>2024-08-09T12:50:51Z</time>
      </trkpt>
      <trkpt lat="45.08383" lon="6.16295">
        <ele>1411.4</ele>
        <time>2024-08-09T12:50:52Z</time>
      </trkpt>
      <trkpt lat="45.08383" lon="6.16295">
        <ele>1411.4</ele>
        <time>2024-08-09T12:50:53Z</time>
      </trkpt>
      <trkpt lat="45.08381" lon="6.16293">
        <ele>1411.4</ele>
        <time>2024-08-09T12:50:54Z</time>
      </trkpt>
      <trkpt lat="45.08381" lon="6.16293">
        <ele>1411.4</ele>
        <time>2024-08-09T12:50:55Z</time>
      </trkpt>
      <trkpt lat="45.0838" lon="6.16289">
        <ele>1411.4</ele>
        <time>2024-08-09T12:50:56Z</time>
      </trkpt>
      <trkpt lat="45.0838" lon="6.16289">
        <ele>1411.4</ele>
        <time>2024-08-09T12:50:57Z</time>
      </trkpt>
      <trkpt lat="45.0838" lon="6.16289">
        <ele>1411</ele>
        <time>2024-08-09T12:50:58Z</time>
      </trkpt>
      <trkpt lat="45.0838" lon="6.16289">
        <ele>1411</ele>
        <time>2024-08-09T12:50:59Z</time>
      </trkpt>
      <trkpt lat="45.0838" lon="6.16289">
        <ele>1411</ele>
        <time>2024-08-09T12:51:00Z</time>
      </trkpt>
      <trkpt lat="45.0838" lon="6.16286">
        <ele>1411</ele>
        <time>2024-08-09T12:51:01Z</time>
      </trkpt>
      <trkpt lat="45.0838" lon="6.16286">
        <ele>1410.6</ele>
        <time>2024-08-09T12:51:02Z</time>
      </trkpt>
      <trkpt lat="45.0838" lon="6.16286">
        <ele>1410.6</ele>
        <time>2024-08-09T12:51:03Z</time>
      </trkpt>
      <trkpt lat="45.0838" lon="6.16286">
        <ele>1410.4</ele>
        <time>2024-08-09T12:51:04Z</time>
      </trkpt>
      <trkpt lat="45.0838" lon="6.16286">
        <ele>1410.4</ele>
        <time>2024-08-09T12:51:05Z</time>
      </trkpt>
      <trkpt lat="45.0838" lon="6.16286">
        <ele>1410.6</ele>
        <time>2024-08-09T12:51:06Z</time>
      </trkpt>
      <trkpt lat="45.0838" lon="6.16286">
        <ele>1410.6</ele>
        <time>2024-08-09T12:51:07Z</time>
      </trkpt>
      <trkpt lat="45.0838" lon="6.16286">
        <ele>1410.6</ele>
        <time>2024-08-09T12:51:08Z</time>
      </trkpt>
      <trkpt lat="45.0838" lon="6.16286">
        <ele>1410.6</ele>
        <time>2024-08-09T12:51:09Z</time>
      </trkpt>
      <trkpt lat="45.0838" lon="6.16286">
        <ele>1410.6</ele>
        <time>2024-08-09T12:51:10Z</time>
      </trkpt>
      <trkpt lat="45.0838" lon="6.16286">
        <ele>1410.6</ele>
        <time>2024-08-09T12:51:11Z</time>
      </trkpt>
      <trkpt lat="45.0838" lon="6.16286">
        <ele>1410.6</ele>
        <time>2024-08-09T12:51:12Z</time>
      </trkpt>
      <trkpt lat="45.0838" lon="6.16286">
        <ele>1410.8</ele>
        <time>2024-08-09T12:51:13Z</time>
      </trkpt>
      <trkpt lat="45.0838" lon="6.16286">
        <ele>1410.8</ele>
        <time>2024-08-09T12:51:14Z</time>
      </trkpt>
      <trkpt lat="45.0838" lon="6.16286">
        <ele>1410.8</ele>
        <time>2024-08-09T12:51:15Z</time>
      </trkpt>
      <trkpt lat="45.0838" lon="6.16286">
        <ele>1410.6</ele>
        <time>2024-08-09T12:51:16Z</time>
      </trkpt>
      <trkpt lat="45.0838" lon="6.16286">
        <ele>1410.4</ele>
        <time>2024-08-09T12:51:17Z</time>
      </trkpt>
      <trkpt lat="45.0838" lon="6.16286">
        <ele>1410.4</ele>
        <time>2024-08-09T12:51:18Z</time>
      </trkpt>
      <trkpt lat="45.0838" lon="6.16286">
        <ele>1410.4</ele>
        <time>2024-08-09T12:51:19Z</time>
      </trkpt>
      <trkpt lat="45.0838" lon="6.16286">
        <ele>1410.4</ele>
        <time>2024-08-09T12:51:20Z</time>
      </trkpt>
      <trkpt lat="45.0838" lon="6.16286">
        <ele>1410.6</ele>
        <time>2024-08-09T12:51:21Z</time>
      </trkpt>
      <trkpt lat="45.0838" lon="6.16286">
        <ele>1410.6</ele>
        <time>2024-08-09T12:51:22Z</time>
      </trkpt>
      <trkpt lat="45.0838" lon="6.16286">
        <ele>1410.4</ele>
        <time>2024-08-09T12:51:23Z</time>
      </trkpt>
      <trkpt lat="45.0838" lon="6.16286">
        <ele>1410.4</ele>
        <time>2024-08-09T12:51:24Z</time>
      </trkpt>
      <trkpt lat="45.0838" lon="6.16286">
        <ele>1410.6</ele>
        <time>2024-08-09T12:51:25Z</time>
      </trkpt>
      <trkpt lat="45.0838" lon="6.16286">
        <ele>1410.6</ele>
        <time>2024-08-09T12:51:26Z</time>
      </trkpt>
      <trkpt lat="45.0838" lon="6.16286">
        <ele>1410.2</ele>
        <time>2024-08-09T12:51:27Z</time>
      </trkpt>
      <trkpt lat="45.0838" lon="6.16286">
        <ele>1410</ele>
        <time>2024-08-09T12:51:28Z</time>
      </trkpt>
      <trkpt lat="45.0838" lon="6.16286">
        <ele>1409.8</ele>
        <time>2024-08-09T12:51:29Z</time>
      </trkpt>
      <trkpt lat="45.0838" lon="6.16286">
        <ele>1409.8</ele>
        <time>2024-08-09T12:51:30Z</time>
      </trkpt>
      <trkpt lat="45.0838" lon="6.16286">
        <ele>1409.8</ele>
        <time>2024-08-09T12:51:31Z</time>
      </trkpt>
      <trkpt lat="45.0838" lon="6.16286">
        <ele>1409.6</ele>
        <time>2024-08-09T12:51:32Z</time>
      </trkpt>
      <trkpt lat="45.0838" lon="6.16286">
        <ele>1409.6</ele>
        <time>2024-08-09T12:51:33Z</time>
      </trkpt>
      <trkpt lat="45.0838" lon="6.16286">
        <ele>1409.8</ele>
        <time>2024-08-09T12:51:34Z</time>
      </trkpt>
      <trkpt lat="45.0838" lon="6.16286">
        <ele>1409.8</ele>
        <time>2024-08-09T12:51:35Z</time>
      </trkpt>
      <trkpt lat="45.0838" lon="6.16286">
        <ele>1409.8</ele>
        <time>2024-08-09T12:51:36Z</time>
      </trkpt>
      <trkpt lat="45.0838" lon="6.16286">
        <ele>1409.6</ele>
        <time>2024-08-09T12:51:37Z</time>
      </trkpt>
      <trkpt lat="45.0838" lon="6.16286">
        <ele>1409.6</ele>
        <time>2024-08-09T12:51:38Z</time>
      </trkpt>
      <trkpt lat="45.0838" lon="6.16286">
        <ele>1410</ele>
        <time>2024-08-09T12:51:39Z</time>
      </trkpt>
      <trkpt lat="45.0838" lon="6.16286">
        <ele>1410</ele>
        <time>2024-08-09T12:51:40Z</time>
      </trkpt>
      <trkpt lat="45.0838" lon="6.16286">
        <ele>1410.2</ele>
        <time>2024-08-09T12:51:41Z</time>
      </trkpt>
      <trkpt lat="45.0838" lon="6.16286">
        <ele>1410.2</ele>
        <time>2024-08-09T12:51:42Z</time>
      </trkpt>
      <trkpt lat="45.0838" lon="6.16286">
        <ele>1409.8</ele>
        <time>2024-08-09T12:51:43Z</time>
      </trkpt>
      <trkpt lat="45.0838" lon="6.16286">
        <ele>1409.8</ele>
        <time>2024-08-09T12:51:44Z</time>
      </trkpt>
      <trkpt lat="45.0838" lon="6.16286">
        <ele>1410</ele>
        <time>2024-08-09T12:51:45Z</time>
      </trkpt>
      <trkpt lat="45.0838" lon="6.16286">
        <ele>1410</ele>
        <time>2024-08-09T12:51:46Z</time>
      </trkpt>
      <trkpt lat="45.0838" lon="6.16286">
        <ele>1409.8</ele>
        <time>2024-08-09T12:51:47Z</time>
      </trkpt>
      <trkpt lat="45.0838" lon="6.16286">
        <ele>1409.8</ele>
        <time>2024-08-09T12:51:48Z</time>
      </trkpt>
      <trkpt lat="45.0838" lon="6.16286">
        <ele>1410.2</ele>
        <time>2024-08-09T12:51:49Z</time>
      </trkpt>
      <trkpt lat="45.08381" lon="6.16284">
        <ele>1410.2</ele>
        <time>2024-08-09T12:51:50Z</time>
      </trkpt>
      <trkpt lat="45.08381" lon="6.16284">
        <ele>1410</ele>
        <time>2024-08-09T12:51:51Z</time>
      </trkpt>
      <trkpt lat="45.08383" lon="6.16284">
        <ele>1409.8</ele>
        <time>2024-08-09T12:51:52Z</time>
      </trkpt>
      <trkpt lat="45.08383" lon="6.16284">
        <ele>1409.6</ele>
        <time>2024-08-09T12:51:53Z</time>
      </trkpt>
      <trkpt lat="45.08384" lon="6.16286">
        <ele>1409.6</ele>
        <time>2024-08-09T12:51:54Z</time>
      </trkpt>
      <trkpt lat="45.08384" lon="6.16286">
        <ele>1409.6</ele>
        <time>2024-08-09T12:51:55Z</time>
      </trkpt>
      <trkpt lat="45.08384" lon="6.16286">
        <ele>1409.6</ele>
        <time>2024-08-09T12:51:56Z</time>
      </trkpt>
      <trkpt lat="45.08384" lon="6.16286">
        <ele>1409.8</ele>
        <time>2024-08-09T12:51:57Z</time>
      </trkpt>
      <trkpt lat="45.08384" lon="6.16286">
        <ele>1409.8</ele>
        <time>2024-08-09T12:51:58Z</time>
      </trkpt>
      <trkpt lat="45.08384" lon="6.16286">
        <ele>1409.8</ele>
        <time>2024-08-09T12:51:59Z</time>
      </trkpt>
      <trkpt lat="45.08384" lon="6.16286">
        <ele>1409.6</ele>
        <time>2024-08-09T12:52:00Z</time>
      </trkpt>
      <trkpt lat="45.08384" lon="6.16286">
        <ele>1409.6</ele>
        <time>2024-08-09T12:52:01Z</time>
      </trkpt>
      <trkpt lat="45.08384" lon="6.16284">
        <ele>1409.4</ele>
        <time>2024-08-09T12:52:02Z</time>
      </trkpt>
      <trkpt lat="45.08384" lon="6.16284">
        <ele>1409.4</ele>
        <time>2024-08-09T12:52:03Z</time>
      </trkpt>
      <trkpt lat="45.08384" lon="6.16284">
        <ele>1409.4</ele>
        <time>2024-08-09T12:52:04Z</time>
      </trkpt>
      <trkpt lat="45.08384" lon="6.16284">
        <ele>1409.4</ele>
        <time>2024-08-09T12:52:05Z</time>
      </trkpt>
      <trkpt lat="45.08384" lon="6.16284">
        <ele>1409.4</ele>
        <time>2024-08-09T12:52:06Z</time>
      </trkpt>
      <trkpt lat="45.08384" lon="6.16284">
        <ele>1409.4</ele>
        <time>2024-08-09T12:52:07Z</time>
      </trkpt>
      <trkpt lat="45.08384" lon="6.16284">
        <ele>1409.6</ele>
        <time>2024-08-09T12:52:08Z</time>
      </trkpt>
      <trkpt lat="45.08384" lon="6.16284">
        <ele>1409.8</ele>
        <time>2024-08-09T12:52:09Z</time>
      </trkpt>
      <trkpt lat="45.08384" lon="6.16284">
        <ele>1410</ele>
        <time>2024-08-09T12:52:10Z</time>
      </trkpt>
      <trkpt lat="45.08384" lon="6.16284">
        <ele>1410</ele>
        <time>2024-08-09T12:52:11Z</time>
      </trkpt>
      <trkpt lat="45.08384" lon="6.16284">
        <ele>1409.8</ele>
        <time>2024-08-09T12:52:12Z</time>
      </trkpt>
      <trkpt lat="45.08384" lon="6.16284">
        <ele>1409.2</ele>
        <time>2024-08-09T12:52:13Z</time>
      </trkpt>
      <trkpt lat="45.08384" lon="6.16284">
        <ele>1409.2</ele>
        <time>2024-08-09T12:52:14Z</time>
      </trkpt>
      <trkpt lat="45.08384" lon="6.16284">
        <ele>1409.4</ele>
        <time>2024-08-09T12:52:15Z</time>
      </trkpt>
      <trkpt lat="45.08384" lon="6.16284">
        <ele>1409.6</ele>
        <time>2024-08-09T12:52:16Z</time>
      </trkpt>
      <trkpt lat="45.08384" lon="6.16284">
        <ele>1409.8</ele>
        <time>2024-08-09T12:52:17Z</time>
      </trkpt>
      <trkpt lat="45.08384" lon="6.16284">
        <ele>1409.6</ele>
        <time>2024-08-09T12:52:18Z</time>
      </trkpt>
      <trkpt lat="45.08384" lon="6.16284">
        <ele>1409.4</ele>
        <time>2024-08-09T12:52:19Z</time>
      </trkpt>
      <trkpt lat="45.08384" lon="6.16284">
        <ele>1409.4</ele>
        <time>2024-08-09T12:52:20Z</time>
      </trkpt>
      <trkpt lat="45.08384" lon="6.16284">
        <ele>1409.2</ele>
        <time>2024-08-09T12:52:21Z</time>
      </trkpt>
      <trkpt lat="45.08384" lon="6.16284">
        <ele>1409</ele>
        <time>2024-08-09T12:52:22Z</time>
      </trkpt>
      <trkpt lat="45.08384" lon="6.16284">
        <ele>1409</ele>
        <time>2024-08-09T12:52:23Z</time>
      </trkpt>
      <trkpt lat="45.08384" lon="6.16284">
        <ele>1409</ele>
        <time>2024-08-09T12:52:24Z</time>
      </trkpt>
      <trkpt lat="45.08384" lon="6.16284">
        <ele>1409</ele>
        <time>2024-08-09T12:52:25Z</time>
      </trkpt>
      <trkpt lat="45.08384" lon="6.16284">
        <ele>1409.2</ele>
        <time>2024-08-09T12:52:26Z</time>
      </trkpt>
      <trkpt lat="45.08383" lon="6.16281">
        <ele>1409.2</ele>
        <time>2024-08-09T12:52:27Z</time>
      </trkpt>
      <trkpt lat="45.08383" lon="6.16281">
        <ele>1409.2</ele>
        <time>2024-08-09T12:52:28Z</time>
      </trkpt>
      <trkpt lat="45.08383" lon="6.16281">
        <ele>1409.2</ele>
        <time>2024-08-09T12:52:29Z</time>
      </trkpt>
      <trkpt lat="45.08383" lon="6.16281">
        <ele>1409.2</ele>
        <time>2024-08-09T12:52:30Z</time>
      </trkpt>
      <trkpt lat="45.08383" lon="6.16281">
        <ele>1409.2</ele>
        <time>2024-08-09T12:52:31Z</time>
      </trkpt>
      <trkpt lat="45.08383" lon="6.16281">
        <ele>1409</ele>
        <time>2024-08-09T12:52:32Z</time>
      </trkpt>
      <trkpt lat="45.08383" lon="6.16281">
        <ele>1409</ele>
        <time>2024-08-09T12:52:33Z</time>
      </trkpt>
      <trkpt lat="45.08383" lon="6.16281">
        <ele>1409.2</ele>
        <time>2024-08-09T12:52:34Z</time>
      </trkpt>
      <trkpt lat="45.08383" lon="6.16281">
        <ele>1409.2</ele>
        <time>2024-08-09T12:52:35Z</time>
      </trkpt>
      <trkpt lat="45.08383" lon="6.16281">
        <ele>1409.2</ele>
        <time>2024-08-09T12:52:36Z</time>
      </trkpt>
      <trkpt lat="45.08383" lon="6.16281">
        <ele>1409.4</ele>
        <time>2024-08-09T12:52:37Z</time>
      </trkpt>
      <trkpt lat="45.08383" lon="6.16281">
        <ele>1409.4</ele>
        <time>2024-08-09T12:52:38Z</time>
      </trkpt>
      <trkpt lat="45.08383" lon="6.16281">
        <ele>1409.6</ele>
        <time>2024-08-09T12:52:39Z</time>
      </trkpt>
      <trkpt lat="45.08383" lon="6.16281">
        <ele>1410</ele>
        <time>2024-08-09T12:52:40Z</time>
      </trkpt>
      <trkpt lat="45.08383" lon="6.16281">
        <ele>1410.2</ele>
        <time>2024-08-09T12:52:41Z</time>
      </trkpt>
      <trkpt lat="45.08383" lon="6.16281">
        <ele>1410.2</ele>
        <time>2024-08-09T12:52:42Z</time>
      </trkpt>
      <trkpt lat="45.08383" lon="6.16281">
        <ele>1410.2</ele>
        <time>2024-08-09T12:52:43Z</time>
      </trkpt>
      <trkpt lat="45.08383" lon="6.16281">
        <ele>1410</ele>
        <time>2024-08-09T12:52:44Z</time>
      </trkpt>
      <trkpt lat="45.08383" lon="6.16281">
        <ele>1409.8</ele>
        <time>2024-08-09T12:52:45Z</time>
      </trkpt>
      <trkpt lat="45.08383" lon="6.16281">
        <ele>1409.6</ele>
        <time>2024-08-09T12:52:46Z</time>
      </trkpt>
      <trkpt lat="45.08383" lon="6.16281">
        <ele>1409.6</ele>
        <time>2024-08-09T12:52:47Z</time>
      </trkpt>
      <trkpt lat="45.08383" lon="6.16281">
        <ele>1409.8</ele>
        <time>2024-08-09T12:52:48Z</time>
      </trkpt>
      <trkpt lat="45.08383" lon="6.16281">
        <ele>1409.6</ele>
        <time>2024-08-09T12:52:49Z</time>
      </trkpt>
      <trkpt lat="45.08383" lon="6.16281">
        <ele>1409.4</ele>
        <time>2024-08-09T12:52:50Z</time>
      </trkpt>
      <trkpt lat="45.08383" lon="6.16281">
        <ele>1409.2</ele>
        <time>2024-08-09T12:52:51Z</time>
      </trkpt>
      <trkpt lat="45.08383" lon="6.16281">
        <ele>1409.2</ele>
        <time>2024-08-09T12:52:52Z</time>
      </trkpt>
      <trkpt lat="45.08383" lon="6.16281">
        <ele>1409.2</ele>
        <time>2024-08-09T12:52:53Z</time>
      </trkpt>
      <trkpt lat="45.08383" lon="6.16281">
        <ele>1409.2</ele>
        <time>2024-08-09T12:52:54Z</time>
      </trkpt>
      <trkpt lat="45.08383" lon="6.16281">
        <ele>1409.4</ele>
        <time>2024-08-09T12:52:55Z</time>
      </trkpt>
      <trkpt lat="45.08383" lon="6.16281">
        <ele>1409.6</ele>
        <time>2024-08-09T12:52:56Z</time>
      </trkpt>
      <trkpt lat="45.08383" lon="6.16281">
        <ele>1409.6</ele>
        <time>2024-08-09T12:52:57Z</time>
      </trkpt>
      <trkpt lat="45.08383" lon="6.16281">
        <ele>1409.6</ele>
        <time>2024-08-09T12:52:58Z</time>
      </trkpt>
      <trkpt lat="45.08383" lon="6.16281">
        <ele>1409.6</ele>
        <time>2024-08-09T12:52:59Z</time>
      </trkpt>
      <trkpt lat="45.08383" lon="6.16281">
        <ele>1409.6</ele>
        <time>2024-08-09T12:53:00Z</time>
      </trkpt>
      <trkpt lat="45.08383" lon="6.16281">
        <ele>1409.6</ele>
        <time>2024-08-09T12:53:01Z</time>
      </trkpt>
      <trkpt lat="45.08383" lon="6.16281">
        <ele>1409.6</ele>
        <time>2024-08-09T12:53:02Z</time>
      </trkpt>
      <trkpt lat="45.08383" lon="6.16281">
        <ele>1409.6</ele>
        <time>2024-08-09T12:53:03Z</time>
      </trkpt>
      <trkpt lat="45.08383" lon="6.16281">
        <ele>1409.6</ele>
        <time>2024-08-09T12:53:04Z</time>
      </trkpt>
      <trkpt lat="45.08383" lon="6.16281">
        <ele>1409.6</ele>
        <time>2024-08-09T12:53:05Z</time>
      </trkpt>
      <trkpt lat="45.08383" lon="6.16281">
        <ele>1409.4</ele>
        <time>2024-08-09T12:53:06Z</time>
      </trkpt>
      <trkpt lat="45.08383" lon="6.16281">
        <ele>1409.4</ele>
        <time>2024-08-09T12:53:07Z</time>
      </trkpt>
      <trkpt lat="45.08381" lon="6.16281">
        <ele>1409.6</ele>
        <time>2024-08-09T12:53:08Z</time>
      </trkpt>
      <trkpt lat="45.08381" lon="6.16281">
        <ele>1409.6</ele>
        <time>2024-08-09T12:53:09Z</time>
      </trkpt>
      <trkpt lat="45.08378" lon="6.16283">
        <ele>1409.8</ele>
        <time>2024-08-09T12:53:10Z</time>
      </trkpt>
      <trkpt lat="45.08378" lon="6.16283">
        <ele>1409.8</ele>
        <time>2024-08-09T12:53:11Z</time>
      </trkpt>
      <trkpt lat="45.08374" lon="6.16284">
        <ele>1409.8</ele>
        <time>2024-08-09T12:53:12Z</time>
      </trkpt>
      <trkpt lat="45.08373" lon="6.16284">
        <ele>1409.4</ele>
        <time>2024-08-09T12:53:13Z</time>
      </trkpt>
      <trkpt lat="45.0837" lon="6.16284">
        <ele>1409.4</ele>
        <time>2024-08-09T12:53:14Z</time>
      </trkpt>
      <trkpt lat="45.08368" lon="6.16283">
        <ele>1409.4</ele>
        <time>2024-08-09T12:53:15Z</time>
      </trkpt>
      <trkpt lat="45.08368" lon="6.16283">
        <ele>1409.6</ele>
        <time>2024-08-09T12:53:16Z</time>
      </trkpt>
      <trkpt lat="45.08366" lon="6.16282">
        <ele>1409.4</ele>
        <time>2024-08-09T12:53:17Z</time>
      </trkpt>
      <trkpt lat="45.08366" lon="6.16282">
        <ele>1409.4</ele>
        <time>2024-08-09T12:53:18Z</time>
      </trkpt>
      <trkpt lat="45.08363" lon="6.16281">
        <ele>1409.4</ele>
        <time>2024-08-09T12:53:19Z</time>
      </trkpt>
      <trkpt lat="45.08363" lon="6.16281">
        <ele>1409.4</ele>
        <time>2024-08-09T12:53:20Z</time>
      </trkpt>
      <trkpt lat="45.0836" lon="6.16279">
        <ele>1409.4</ele>
        <time>2024-08-09T12:53:21Z</time>
      </trkpt>
      <trkpt lat="45.0836" lon="6.16279">
        <ele>1409.2</ele>
        <time>2024-08-09T12:53:22Z</time>
      </trkpt>
      <trkpt lat="45.08358" lon="6.16277">
        <ele>1409.2</ele>
        <time>2024-08-09T12:53:23Z</time>
      </trkpt>
      <trkpt lat="45.08358" lon="6.16277">
        <ele>1409.2</ele>
        <time>2024-08-09T12:53:24Z</time>
      </trkpt>
      <trkpt lat="45.08355" lon="6.16274">
        <ele>1409.2</ele>
        <time>2024-08-09T12:53:25Z</time>
      </trkpt>
      <trkpt lat="45.08355" lon="6.16274">
        <ele>1409.2</ele>
        <time>2024-08-09T12:53:26Z</time>
      </trkpt>
      <trkpt lat="45.08354" lon="6.16271">
        <ele>1409.2</ele>
        <time>2024-08-09T12:53:27Z</time>
      </trkpt>
      <trkpt lat="45.08353" lon="6.16269">
        <ele>1409.2</ele>
        <time>2024-08-09T12:53:28Z</time>
      </trkpt>
      <trkpt lat="45.08353" lon="6.16269">
        <ele>1409.2</ele>
        <time>2024-08-09T12:53:29Z</time>
      </trkpt>
      <trkpt lat="45.0835" lon="6.16267">
        <ele>1409</ele>
        <time>2024-08-09T12:53:30Z</time>
      </trkpt>
      <trkpt lat="45.0835" lon="6.16267">
        <ele>1409.2</ele>
        <time>2024-08-09T12:53:31Z</time>
      </trkpt>
      <trkpt lat="45.08347" lon="6.16267">
        <ele>1409.2</ele>
        <time>2024-08-09T12:53:32Z</time>
      </trkpt>
      <trkpt lat="45.08347" lon="6.16267">
        <ele>1409.2</ele>
        <time>2024-08-09T12:53:33Z</time>
      </trkpt>
      <trkpt lat="45.08345" lon="6.16265">
        <ele>1409.2</ele>
        <time>2024-08-09T12:53:34Z</time>
      </trkpt>
      <trkpt lat="45.08345" lon="6.16265">
        <ele>1409.2</ele>
        <time>2024-08-09T12:53:35Z</time>
      </trkpt>
      <trkpt lat="45.08345" lon="6.16265">
        <ele>1409.2</ele>
        <time>2024-08-09T12:53:36Z</time>
      </trkpt>
      <trkpt lat="45.08342" lon="6.16263">
        <ele>1409.4</ele>
        <time>2024-08-09T12:53:37Z</time>
      </trkpt>
      <trkpt lat="45.0834" lon="6.16262">
        <ele>1409.6</ele>
        <time>2024-08-09T12:53:38Z</time>
      </trkpt>
      <trkpt lat="45.08338" lon="6.16261">
        <ele>1409.8</ele>
        <time>2024-08-09T12:53:39Z</time>
      </trkpt>
      <trkpt lat="45.08338" lon="6.16261">
        <ele>1410</ele>
        <time>2024-08-09T12:53:40Z</time>
      </trkpt>
      <trkpt lat="45.08336" lon="6.16258">
        <ele>1410</ele>
        <time>2024-08-09T12:53:41Z</time>
      </trkpt>
      <trkpt lat="45.08336" lon="6.16258">
        <ele>1410</ele>
        <time>2024-08-09T12:53:42Z</time>
      </trkpt>
      <trkpt lat="45.08334" lon="6.16256">
        <ele>1410</ele>
        <time>2024-08-09T12:53:43Z</time>
      </trkpt>
      <trkpt lat="45.08334" lon="6.16256">
        <ele>1410.2</ele>
        <time>2024-08-09T12:53:44Z</time>
      </trkpt>
      <trkpt lat="45.08333" lon="6.16254">
        <ele>1410.4</ele>
        <time>2024-08-09T12:53:45Z</time>
      </trkpt>
      <trkpt lat="45.08333" lon="6.16254">
        <ele>1410.6</ele>
        <time>2024-08-09T12:53:46Z</time>
      </trkpt>
      <trkpt lat="45.08332" lon="6.16251">
        <ele>1410.6</ele>
        <time>2024-08-09T12:53:47Z</time>
      </trkpt>
      <trkpt lat="45.08332" lon="6.16251">
        <ele>1410.6</ele>
        <time>2024-08-09T12:53:48Z</time>
      </trkpt>
      <trkpt lat="45.0833" lon="6.16248">
        <ele>1410.8</ele>
        <time>2024-08-09T12:53:49Z</time>
      </trkpt>
      <trkpt lat="45.0833" lon="6.16248">
        <ele>1410.8</ele>
        <time>2024-08-09T12:53:50Z</time>
      </trkpt>
      <trkpt lat="45.08328" lon="6.16246">
        <ele>1411.2</ele>
        <time>2024-08-09T12:53:51Z</time>
      </trkpt>
      <trkpt lat="45.08328" lon="6.16246">
        <ele>1411.6</ele>
        <time>2024-08-09T12:53:52Z</time>
      </trkpt>
      <trkpt lat="45.08325" lon="6.16244">
        <ele>1411.6</ele>
        <time>2024-08-09T12:53:53Z</time>
      </trkpt>
      <trkpt lat="45.08325" lon="6.16244">
        <ele>1411.6</ele>
        <time>2024-08-09T12:53:54Z</time>
      </trkpt>
      <trkpt lat="45.08323" lon="6.16241">
        <ele>1411.6</ele>
        <time>2024-08-09T12:53:55Z</time>
      </trkpt>
      <trkpt lat="45.08323" lon="6.16241">
        <ele>1411.6</ele>
        <time>2024-08-09T12:53:56Z</time>
      </trkpt>
      <trkpt lat="45.08322" lon="6.16239">
        <ele>1411.8</ele>
        <time>2024-08-09T12:53:57Z</time>
      </trkpt>
      <trkpt lat="45.08322" lon="6.16239">
        <ele>1411.8</ele>
        <time>2024-08-09T12:53:58Z</time>
      </trkpt>
      <trkpt lat="45.0832" lon="6.16236">
        <ele>1411.8</ele>
        <time>2024-08-09T12:53:59Z</time>
      </trkpt>
      <trkpt lat="45.0832" lon="6.16236">
        <ele>1411.2</ele>
        <time>2024-08-09T12:54:00Z</time>
      </trkpt>
      <trkpt lat="45.0832" lon="6.16236">
        <ele>1410.8</ele>
        <time>2024-08-09T12:54:01Z</time>
      </trkpt>
      <trkpt lat="45.08317" lon="6.16234">
        <ele>1410.4</ele>
        <time>2024-08-09T12:54:02Z</time>
      </trkpt>
      <trkpt lat="45.08317" lon="6.16234">
        <ele>1410.4</ele>
        <time>2024-08-09T12:54:03Z</time>
      </trkpt>
      <trkpt lat="45.08316" lon="6.16233">
        <ele>1410.8</ele>
        <time>2024-08-09T12:54:04Z</time>
      </trkpt>
      <trkpt lat="45.08316" lon="6.16233">
        <ele>1410.8</ele>
        <time>2024-08-09T12:54:05Z</time>
      </trkpt>
      <trkpt lat="45.08313" lon="6.16234">
        <ele>1411</ele>
        <time>2024-08-09T12:54:06Z</time>
      </trkpt>
      <trkpt lat="45.08313" lon="6.16234">
        <ele>1411</ele>
        <time>2024-08-09T12:54:07Z</time>
      </trkpt>
      <trkpt lat="45.08311" lon="6.16232">
        <ele>1411</ele>
        <time>2024-08-09T12:54:08Z</time>
      </trkpt>
      <trkpt lat="45.08311" lon="6.16232">
        <ele>1411</ele>
        <time>2024-08-09T12:54:09Z</time>
      </trkpt>
      <trkpt lat="45.08309" lon="6.1623">
        <ele>1411</ele>
        <time>2024-08-09T12:54:10Z</time>
      </trkpt>
      <trkpt lat="45.08309" lon="6.1623">
        <ele>1411.2</ele>
        <time>2024-08-09T12:54:11Z</time>
      </trkpt>
      <trkpt lat="45.08307" lon="6.16227">
        <ele>1411.4</ele>
        <time>2024-08-09T12:54:12Z</time>
      </trkpt>
      <trkpt lat="45.08307" lon="6.16227">
        <ele>1411.6</ele>
        <time>2024-08-09T12:54:13Z</time>
      </trkpt>
      <trkpt lat="45.08305" lon="6.16224">
        <ele>1411.6</ele>
        <time>2024-08-09T12:54:14Z</time>
      </trkpt>
      <trkpt lat="45.08305" lon="6.16224">
        <ele>1411.8</ele>
        <time>2024-08-09T12:54:15Z</time>
      </trkpt>
      <trkpt lat="45.08303" lon="6.16222">
        <ele>1411.8</ele>
        <time>2024-08-09T12:54:16Z</time>
      </trkpt>
      <trkpt lat="45.08303" lon="6.16222">
        <ele>1411.8</ele>
        <time>2024-08-09T12:54:17Z</time>
      </trkpt>
      <trkpt lat="45.08299" lon="6.16221">
        <ele>1411.8</ele>
        <time>2024-08-09T12:54:18Z</time>
      </trkpt>
      <trkpt lat="45.08299" lon="6.16221">
        <ele>1412</ele>
        <time>2024-08-09T12:54:19Z</time>
      </trkpt>
      <trkpt lat="45.08297" lon="6.16218">
        <ele>1411.8</ele>
        <time>2024-08-09T12:54:20Z</time>
      </trkpt>
      <trkpt lat="45.08297" lon="6.16218">
        <ele>1412</ele>
        <time>2024-08-09T12:54:21Z</time>
      </trkpt>
      <trkpt lat="45.08296" lon="6.16215">
        <ele>1412.2</ele>
        <time>2024-08-09T12:54:22Z</time>
      </trkpt>
      <trkpt lat="45.08296" lon="6.16215">
        <ele>1412.2</ele>
        <time>2024-08-09T12:54:23Z</time>
      </trkpt>
      <trkpt lat="45.08295" lon="6.1621">
        <ele>1412.2</ele>
        <time>2024-08-09T12:54:24Z</time>
      </trkpt>
      <trkpt lat="45.08295" lon="6.1621">
        <ele>1412.2</ele>
        <time>2024-08-09T12:54:25Z</time>
      </trkpt>
      <trkpt lat="45.08293" lon="6.16206">
        <ele>1412.2</ele>
        <time>2024-08-09T12:54:26Z</time>
      </trkpt>
      <trkpt lat="45.08293" lon="6.16206">
        <ele>1412.2</ele>
        <time>2024-08-09T12:54:27Z</time>
      </trkpt>
      <trkpt lat="45.08292" lon="6.16203">
        <ele>1412.2</ele>
        <time>2024-08-09T12:54:28Z</time>
      </trkpt>
      <trkpt lat="45.0829" lon="6.16203">
        <ele>1412</ele>
        <time>2024-08-09T12:54:29Z</time>
      </trkpt>
      <trkpt lat="45.0829" lon="6.16203">
        <ele>1412</ele>
        <time>2024-08-09T12:54:30Z</time>
      </trkpt>
      <trkpt lat="45.08288" lon="6.162">
        <ele>1412</ele>
        <time>2024-08-09T12:54:31Z</time>
      </trkpt>
      <trkpt lat="45.08288" lon="6.162">
        <ele>1412</ele>
        <time>2024-08-09T12:54:32Z</time>
      </trkpt>
      <trkpt lat="45.08286" lon="6.16198">
        <ele>1411.8</ele>
        <time>2024-08-09T12:54:33Z</time>
      </trkpt>
      <trkpt lat="45.08286" lon="6.16198">
        <ele>1411.8</ele>
        <time>2024-08-09T12:54:34Z</time>
      </trkpt>
      <trkpt lat="45.08284" lon="6.16196">
        <ele>1411.6</ele>
        <time>2024-08-09T12:54:35Z</time>
      </trkpt>
      <trkpt lat="45.08284" lon="6.16196">
        <ele>1411.6</ele>
        <time>2024-08-09T12:54:36Z</time>
      </trkpt>
      <trkpt lat="45.08282" lon="6.16193">
        <ele>1411.8</ele>
        <time>2024-08-09T12:54:37Z</time>
      </trkpt>
      <trkpt lat="45.08282" lon="6.16193">
        <ele>1411.8</ele>
        <time>2024-08-09T12:54:38Z</time>
      </trkpt>
      <trkpt lat="45.08279" lon="6.16191">
        <ele>1411.6</ele>
        <time>2024-08-09T12:54:39Z</time>
      </trkpt>
      <trkpt lat="45.08279" lon="6.16191">
        <ele>1411.4</ele>
        <time>2024-08-09T12:54:40Z</time>
      </trkpt>
      <trkpt lat="45.08278" lon="6.16188">
        <ele>1411.4</ele>
        <time>2024-08-09T12:54:41Z</time>
      </trkpt>
      <trkpt lat="45.08278" lon="6.16188">
        <ele>1411.4</ele>
        <time>2024-08-09T12:54:42Z</time>
      </trkpt>
      <trkpt lat="45.08276" lon="6.16185">
        <ele>1411.2</ele>
        <time>2024-08-09T12:54:43Z</time>
      </trkpt>
      <trkpt lat="45.08276" lon="6.16185">
        <ele>1411.2</ele>
        <time>2024-08-09T12:54:44Z</time>
      </trkpt>
      <trkpt lat="45.08274" lon="6.16182">
        <ele>1411.2</ele>
        <time>2024-08-09T12:54:45Z</time>
      </trkpt>
      <trkpt lat="45.08274" lon="6.16182">
        <ele>1411.2</ele>
        <time>2024-08-09T12:54:46Z</time>
      </trkpt>
      <trkpt lat="45.08271" lon="6.1618">
        <ele>1411</ele>
        <time>2024-08-09T12:54:47Z</time>
      </trkpt>
      <trkpt lat="45.08271" lon="6.1618">
        <ele>1410.8</ele>
        <time>2024-08-09T12:54:48Z</time>
      </trkpt>
      <trkpt lat="45.08269" lon="6.16179">
        <ele>1410.6</ele>
        <time>2024-08-09T12:54:49Z</time>
      </trkpt>
      <trkpt lat="45.08269" lon="6.16179">
        <ele>1410.6</ele>
        <time>2024-08-09T12:54:50Z</time>
      </trkpt>
      <trkpt lat="45.08267" lon="6.16178">
        <ele>1410.4</ele>
        <time>2024-08-09T12:54:51Z</time>
      </trkpt>
      <trkpt lat="45.08267" lon="6.16178">
        <ele>1410.4</ele>
        <time>2024-08-09T12:54:52Z</time>
      </trkpt>
      <trkpt lat="45.08264" lon="6.16176">
        <ele>1410.6</ele>
        <time>2024-08-09T12:54:53Z</time>
      </trkpt>
      <trkpt lat="45.08264" lon="6.16176">
        <ele>1410.6</ele>
        <time>2024-08-09T12:54:54Z</time>
      </trkpt>
      <trkpt lat="45.08261" lon="6.16174">
        <ele>1410.8</ele>
        <time>2024-08-09T12:54:55Z</time>
      </trkpt>
      <trkpt lat="45.08261" lon="6.16174">
        <ele>1410.8</ele>
        <time>2024-08-09T12:54:56Z</time>
      </trkpt>
      <trkpt lat="45.08259" lon="6.16172">
        <ele>1410.2</ele>
        <time>2024-08-09T12:54:57Z</time>
      </trkpt>
      <trkpt lat="45.08259" lon="6.16172">
        <ele>1410</ele>
        <time>2024-08-09T12:54:58Z</time>
      </trkpt>
      <trkpt lat="45.08258" lon="6.16169">
        <ele>1410</ele>
        <time>2024-08-09T12:54:59Z</time>
      </trkpt>
      <trkpt lat="45.08258" lon="6.16169">
        <ele>1410</ele>
        <time>2024-08-09T12:55:00Z</time>
      </trkpt>
      <trkpt lat="45.08256" lon="6.16167">
        <ele>1410</ele>
        <time>2024-08-09T12:55:01Z</time>
      </trkpt>
      <trkpt lat="45.08256" lon="6.16167">
        <ele>1409.8</ele>
        <time>2024-08-09T12:55:02Z</time>
      </trkpt>
      <trkpt lat="45.08254" lon="6.16164">
        <ele>1409.8</ele>
        <time>2024-08-09T12:55:03Z</time>
      </trkpt>
      <trkpt lat="45.08254" lon="6.16164">
        <ele>1409.8</ele>
        <time>2024-08-09T12:55:04Z</time>
      </trkpt>
      <trkpt lat="45.08252" lon="6.16162">
        <ele>1409.8</ele>
        <time>2024-08-09T12:55:05Z</time>
      </trkpt>
      <trkpt lat="45.08252" lon="6.16162">
        <ele>1409.6</ele>
        <time>2024-08-09T12:55:06Z</time>
      </trkpt>
      <trkpt lat="45.0825" lon="6.16159">
        <ele>1409.6</ele>
        <time>2024-08-09T12:55:07Z</time>
      </trkpt>
      <trkpt lat="45.0825" lon="6.16159">
        <ele>1409.6</ele>
        <time>2024-08-09T12:55:08Z</time>
      </trkpt>
      <trkpt lat="45.08247" lon="6.16157">
        <ele>1409.6</ele>
        <time>2024-08-09T12:55:09Z</time>
      </trkpt>
      <trkpt lat="45.08247" lon="6.16157">
        <ele>1409.6</ele>
        <time>2024-08-09T12:55:10Z</time>
      </trkpt>
      <trkpt lat="45.08245" lon="6.16155">
        <ele>1409.4</ele>
        <time>2024-08-09T12:55:11Z</time>
      </trkpt>
      <trkpt lat="45.08245" lon="6.16155">
        <ele>1409.4</ele>
        <time>2024-08-09T12:55:12Z</time>
      </trkpt>
      <trkpt lat="45.08243" lon="6.16153">
        <ele>1409.2</ele>
        <time>2024-08-09T12:55:13Z</time>
      </trkpt>
      <trkpt lat="45.08243" lon="6.16153">
        <ele>1409</ele>
        <time>2024-08-09T12:55:14Z</time>
      </trkpt>
      <trkpt lat="45.08241" lon="6.16152">
        <ele>1408.8</ele>
        <time>2024-08-09T12:55:15Z</time>
      </trkpt>
      <trkpt lat="45.08241" lon="6.16152">
        <ele>1408.8</ele>
        <time>2024-08-09T12:55:16Z</time>
      </trkpt>
      <trkpt lat="45.08239" lon="6.16153">
        <ele>1408.8</ele>
        <time>2024-08-09T12:55:17Z</time>
      </trkpt>
      <trkpt lat="45.08239" lon="6.16153">
        <ele>1408.8</ele>
        <time>2024-08-09T12:55:18Z</time>
      </trkpt>
      <trkpt lat="45.08237" lon="6.16154">
        <ele>1408.8</ele>
        <time>2024-08-09T12:55:19Z</time>
      </trkpt>
      <trkpt lat="45.08237" lon="6.16154">
        <ele>1408.4</ele>
        <time>2024-08-09T12:55:20Z</time>
      </trkpt>
      <trkpt lat="45.08235" lon="6.16154">
        <ele>1408.4</ele>
        <time>2024-08-09T12:55:21Z</time>
      </trkpt>
      <trkpt lat="45.08235" lon="6.16154">
        <ele>1408.4</ele>
        <time>2024-08-09T12:55:22Z</time>
      </trkpt>
      <trkpt lat="45.08233" lon="6.16153">
        <ele>1408.4</ele>
        <time>2024-08-09T12:55:23Z</time>
      </trkpt>
      <trkpt lat="45.08233" lon="6.16153">
        <ele>1408.4</ele>
        <time>2024-08-09T12:55:24Z</time>
      </trkpt>
      <trkpt lat="45.08233" lon="6.16153">
        <ele>1408</ele>
        <time>2024-08-09T12:55:25Z</time>
      </trkpt>
      <trkpt lat="45.08231" lon="6.16154">
        <ele>1408</ele>
        <time>2024-08-09T12:55:26Z</time>
      </trkpt>
      <trkpt lat="45.08231" lon="6.16154">
        <ele>1408</ele>
        <time>2024-08-09T12:55:27Z</time>
      </trkpt>
      <trkpt lat="45.08231" lon="6.16154">
        <ele>1408.2</ele>
        <time>2024-08-09T12:55:28Z</time>
      </trkpt>
      <trkpt lat="45.08231" lon="6.16154">
        <ele>1408</ele>
        <time>2024-08-09T12:55:29Z</time>
      </trkpt>
      <trkpt lat="45.08231" lon="6.16154">
        <ele>1408</ele>
        <time>2024-08-09T12:55:30Z</time>
      </trkpt>
      <trkpt lat="45.08231" lon="6.16154">
        <ele>1408</ele>
        <time>2024-08-09T12:55:31Z</time>
      </trkpt>
      <trkpt lat="45.08231" lon="6.16154">
        <ele>1407.8</ele>
        <time>2024-08-09T12:55:32Z</time>
      </trkpt>
      <trkpt lat="45.08231" lon="6.16154">
        <ele>1407.6</ele>
        <time>2024-08-09T12:55:33Z</time>
      </trkpt>
      <trkpt lat="45.08231" lon="6.16154">
        <ele>1407.6</ele>
        <time>2024-08-09T12:55:34Z</time>
      </trkpt>
      <trkpt lat="45.08231" lon="6.16154">
        <ele>1407.6</ele>
        <time>2024-08-09T12:55:35Z</time>
      </trkpt>
      <trkpt lat="45.08231" lon="6.16154">
        <ele>1407.6</ele>
        <time>2024-08-09T12:55:36Z</time>
      </trkpt>
      <trkpt lat="45.08231" lon="6.16154">
        <ele>1407.6</ele>
        <time>2024-08-09T12:55:37Z</time>
      </trkpt>
      <trkpt lat="45.08231" lon="6.16154">
        <ele>1407.6</ele>
        <time>2024-08-09T12:55:38Z</time>
      </trkpt>
      <trkpt lat="45.08231" lon="6.16154">
        <ele>1407.6</ele>
        <time>2024-08-09T12:55:39Z</time>
      </trkpt>
      <trkpt lat="45.08231" lon="6.16154">
        <ele>1407.8</ele>
        <time>2024-08-09T12:55:40Z</time>
      </trkpt>
      <trkpt lat="45.08231" lon="6.16154">
        <ele>1407.8</ele>
        <time>2024-08-09T12:55:41Z</time>
      </trkpt>
      <trkpt lat="45.08231" lon="6.16154">
        <ele>1407.8</ele>
        <time>2024-08-09T12:55:42Z</time>
      </trkpt>
      <trkpt lat="45.08231" lon="6.16154">
        <ele>1407.8</ele>
        <time>2024-08-09T12:55:43Z</time>
      </trkpt>
      <trkpt lat="45.08231" lon="6.16154">
        <ele>1407.6</ele>
        <time>2024-08-09T12:55:44Z</time>
      </trkpt>
      <trkpt lat="45.08231" lon="6.16154">
        <ele>1407.4</ele>
        <time>2024-08-09T12:55:45Z</time>
      </trkpt>
      <trkpt lat="45.08231" lon="6.16154">
        <ele>1407.4</ele>
        <time>2024-08-09T12:55:46Z</time>
      </trkpt>
      <trkpt lat="45.08231" lon="6.16154">
        <ele>1407.6</ele>
        <time>2024-08-09T12:55:47Z</time>
      </trkpt>
      <trkpt lat="45.08231" lon="6.16154">
        <ele>1407.6</ele>
        <time>2024-08-09T12:55:48Z</time>
      </trkpt>
      <trkpt lat="45.08231" lon="6.16154">
        <ele>1407.4</ele>
        <time>2024-08-09T12:55:49Z</time>
      </trkpt>
      <trkpt lat="45.08231" lon="6.16154">
        <ele>1407.4</ele>
        <time>2024-08-09T12:55:50Z</time>
      </trkpt>
      <trkpt lat="45.08231" lon="6.16154">
        <ele>1407.4</ele>
        <time>2024-08-09T12:55:51Z</time>
      </trkpt>
      <trkpt lat="45.08231" lon="6.16154">
        <ele>1407.4</ele>
        <time>2024-08-09T12:55:52Z</time>
      </trkpt>
      <trkpt lat="45.08231" lon="6.16154">
        <ele>1407.4</ele>
        <time>2024-08-09T12:55:53Z</time>
      </trkpt>
      <trkpt lat="45.08231" lon="6.16154">
        <ele>1407.6</ele>
        <time>2024-08-09T12:55:54Z</time>
      </trkpt>
      <trkpt lat="45.08231" lon="6.16154">
        <ele>1407.6</ele>
        <time>2024-08-09T12:55:55Z</time>
      </trkpt>
      <trkpt lat="45.08231" lon="6.16154">
        <ele>1407.6</ele>
        <time>2024-08-09T12:55:56Z</time>
      </trkpt>
      <trkpt lat="45.08231" lon="6.16154">
        <ele>1407.6</ele>
        <time>2024-08-09T12:55:57Z</time>
      </trkpt>
      <trkpt lat="45.08231" lon="6.16154">
        <ele>1407.6</ele>
        <time>2024-08-09T12:55:58Z</time>
      </trkpt>
      <trkpt lat="45.08231" lon="6.16154">
        <ele>1407.6</ele>
        <time>2024-08-09T12:55:59Z</time>
      </trkpt>
      <trkpt lat="45.08231" lon="6.16154">
        <ele>1407.6</ele>
        <time>2024-08-09T12:56:00Z</time>
      </trkpt>
      <trkpt lat="45.08231" lon="6.16154">
        <ele>1407.6</ele>
        <time>2024-08-09T12:56:01Z</time>
      </trkpt>
      <trkpt lat="45.08231" lon="6.16154">
        <ele>1407.6</ele>
        <time>2024-08-09T12:56:02Z</time>
      </trkpt>
      <trkpt lat="45.08231" lon="6.16154">
        <ele>1407.6</ele>
        <time>2024-08-09T12:56:03Z</time>
      </trkpt>
      <trkpt lat="45.08231" lon="6.16154">
        <ele>1407.6</ele>
        <time>2024-08-09T12:56:04Z</time>
      </trkpt>
      <trkpt lat="45.08231" lon="6.16154">
        <ele>1407.6</ele>
        <time>2024-08-09T12:56:05Z</time>
      </trkpt>
      <trkpt lat="45.08231" lon="6.16154">
        <ele>1407.4</ele>
        <time>2024-08-09T12:56:06Z</time>
      </trkpt>
      <trkpt lat="45.08231" lon="6.16154">
        <ele>1407.4</ele>
        <time>2024-08-09T12:56:07Z</time>
      </trkpt>
      <trkpt lat="45.08231" lon="6.16154">
        <ele>1407.4</ele>
        <time>2024-08-09T12:56:08Z</time>
      </trkpt>
      <trkpt lat="45.08231" lon="6.16154">
        <ele>1407.4</ele>
        <time>2024-08-09T12:56:09Z</time>
      </trkpt>
      <trkpt lat="45.08231" lon="6.16154">
        <ele>1407.6</ele>
        <time>2024-08-09T12:56:10Z</time>
      </trkpt>
      <trkpt lat="45.08231" lon="6.16154">
        <ele>1407.6</ele>
        <time>2024-08-09T12:56:11Z</time>
      </trkpt>
      <trkpt lat="45.08231" lon="6.16154">
        <ele>1407.6</ele>
        <time>2024-08-09T12:56:12Z</time>
      </trkpt>
      <trkpt lat="45.08231" lon="6.16154">
        <ele>1407.6</ele>
        <time>2024-08-09T12:56:13Z</time>
      </trkpt>
      <trkpt lat="45.08231" lon="6.16154">
        <ele>1407.6</ele>
        <time>2024-08-09T12:56:14Z</time>
      </trkpt>
      <trkpt lat="45.08231" lon="6.16154">
        <ele>1407.4</ele>
        <time>2024-08-09T12:56:15Z</time>
      </trkpt>
      <trkpt lat="45.08231" lon="6.16154">
        <ele>1407.4</ele>
        <time>2024-08-09T12:56:16Z</time>
      </trkpt>
      <trkpt lat="45.08231" lon="6.16154">
        <ele>1407.4</ele>
        <time>2024-08-09T12:56:17Z</time>
      </trkpt>
      <trkpt lat="45.08231" lon="6.16154">
        <ele>1407.4</ele>
        <time>2024-08-09T12:56:18Z</time>
      </trkpt>
      <trkpt lat="45.08231" lon="6.16154">
        <ele>1407.4</ele>
        <time>2024-08-09T12:56:19Z</time>
      </trkpt>
      <trkpt lat="45.08231" lon="6.16154">
        <ele>1407.2</ele>
        <time>2024-08-09T12:56:20Z</time>
      </trkpt>
      <trkpt lat="45.08231" lon="6.16154">
        <ele>1407.2</ele>
        <time>2024-08-09T12:56:21Z</time>
      </trkpt>
      <trkpt lat="45.08231" lon="6.16154">
        <ele>1407.2</ele>
        <time>2024-08-09T12:56:22Z</time>
      </trkpt>
      <trkpt lat="45.08231" lon="6.16154">
        <ele>1407.4</ele>
        <time>2024-08-09T12:56:23Z</time>
      </trkpt>
      <trkpt lat="45.08231" lon="6.16154">
        <ele>1407.4</ele>
        <time>2024-08-09T12:56:24Z</time>
      </trkpt>
      <trkpt lat="45.08231" lon="6.16154">
        <ele>1407.4</ele>
        <time>2024-08-09T12:56:25Z</time>
      </trkpt>
      <trkpt lat="45.08231" lon="6.16154">
        <ele>1407.2</ele>
        <time>2024-08-09T12:56:26Z</time>
      </trkpt>
      <trkpt lat="45.08231" lon="6.16154">
        <ele>1407.2</ele>
        <time>2024-08-09T12:56:27Z</time>
      </trkpt>
      <trkpt lat="45.08231" lon="6.16154">
        <ele>1407.2</ele>
        <time>2024-08-09T12:56:28Z</time>
      </trkpt>
      <trkpt lat="45.08231" lon="6.16154">
        <ele>1407.2</ele>
        <time>2024-08-09T12:56:29Z</time>
      </trkpt>
      <trkpt lat="45.08231" lon="6.16154">
        <ele>1407.2</ele>
        <time>2024-08-09T12:56:30Z</time>
      </trkpt>
      <trkpt lat="45.08231" lon="6.16154">
        <ele>1407.2</ele>
        <time>2024-08-09T12:56:31Z</time>
      </trkpt>
      <trkpt lat="45.08231" lon="6.16154">
        <ele>1407.2</ele>
        <time>2024-08-09T12:56:32Z</time>
      </trkpt>
      <trkpt lat="45.08231" lon="6.16154">
        <ele>1407</ele>
        <time>2024-08-09T12:56:33Z</time>
      </trkpt>
      <trkpt lat="45.08231" lon="6.16154">
        <ele>1407.2</ele>
        <time>2024-08-09T12:56:34Z</time>
      </trkpt>
      <trkpt lat="45.08231" lon="6.16154">
        <ele>1407.2</ele>
        <time>2024-08-09T12:56:35Z</time>
      </trkpt>
      <trkpt lat="45.08231" lon="6.16154">
        <ele>1407.2</ele>
        <time>2024-08-09T12:56:36Z</time>
      </trkpt>
      <trkpt lat="45.08231" lon="6.16154">
        <ele>1407.2</ele>
        <time>2024-08-09T12:56:37Z</time>
      </trkpt>
      <trkpt lat="45.0823" lon="6.16151">
        <ele>1407.2</ele>
        <time>2024-08-09T12:56:38Z</time>
      </trkpt>
      <trkpt lat="45.0823" lon="6.16151">
        <ele>1407.2</ele>
        <time>2024-08-09T12:56:39Z</time>
      </trkpt>
      <trkpt lat="45.08229" lon="6.16147">
        <ele>1407</ele>
        <time>2024-08-09T12:56:40Z</time>
      </trkpt>
      <trkpt lat="45.08228" lon="6.16145">
        <ele>1407</ele>
        <time>2024-08-09T12:56:41Z</time>
      </trkpt>
      <trkpt lat="45.08226" lon="6.16144">
        <ele>1407</ele>
        <time>2024-08-09T12:56:42Z</time>
      </trkpt>
      <trkpt lat="45.08226" lon="6.16144">
        <ele>1407</ele>
        <time>2024-08-09T12:56:43Z</time>
      </trkpt>
      <trkpt lat="45.08224" lon="6.16141">
        <ele>1407</ele>
        <time>2024-08-09T12:56:44Z</time>
      </trkpt>
      <trkpt lat="45.08224" lon="6.16141">
        <ele>1406.8</ele>
        <time>2024-08-09T12:56:45Z</time>
      </trkpt>
      <trkpt lat="45.08221" lon="6.16139">
        <ele>1406.8</ele>
        <time>2024-08-09T12:56:46Z</time>
      </trkpt>
      <trkpt lat="45.08221" lon="6.16139">
        <ele>1406.4</ele>
        <time>2024-08-09T12:56:47Z</time>
      </trkpt>
      <trkpt lat="45.08219" lon="6.16136">
        <ele>1406.4</ele>
        <time>2024-08-09T12:56:48Z</time>
      </trkpt>
      <trkpt lat="45.08219" lon="6.16136">
        <ele>1406.4</ele>
        <time>2024-08-09T12:56:49Z</time>
      </trkpt>
      <trkpt lat="45.08217" lon="6.16134">
        <ele>1406.4</ele>
        <time>2024-08-09T12:56:50Z</time>
      </trkpt>
      <trkpt lat="45.08217" lon="6.16134">
        <ele>1406.4</ele>
        <time>2024-08-09T12:56:51Z</time>
      </trkpt>
      <trkpt lat="45.08215" lon="6.16132">
        <ele>1406.2</ele>
        <time>2024-08-09T12:56:52Z</time>
      </trkpt>
      <trkpt lat="45.08215" lon="6.16132">
        <ele>1406.2</ele>
        <time>2024-08-09T12:56:53Z</time>
      </trkpt>
      <trkpt lat="45.08212" lon="6.16131">
        <ele>1406.2</ele>
        <time>2024-08-09T12:56:54Z</time>
      </trkpt>
      <trkpt lat="45.08212" lon="6.16131">
        <ele>1406.2</ele>
        <time>2024-08-09T12:56:55Z</time>
      </trkpt>
      <trkpt lat="45.0821" lon="6.16128">
        <ele>1406.2</ele>
        <time>2024-08-09T12:56:56Z</time>
      </trkpt>
      <trkpt lat="45.0821" lon="6.16128">
        <ele>1406.2</ele>
        <time>2024-08-09T12:56:57Z</time>
      </trkpt>
      <trkpt lat="45.08207" lon="6.16126">
        <ele>1406.2</ele>
        <time>2024-08-09T12:56:58Z</time>
      </trkpt>
      <trkpt lat="45.08207" lon="6.16126">
        <ele>1406.2</ele>
        <time>2024-08-09T12:56:59Z</time>
      </trkpt>
      <trkpt lat="45.08205" lon="6.16124">
        <ele>1406.2</ele>
        <time>2024-08-09T12:57:00Z</time>
      </trkpt>
      <trkpt lat="45.08205" lon="6.16124">
        <ele>1406</ele>
        <time>2024-08-09T12:57:01Z</time>
      </trkpt>
      <trkpt lat="45.08205" lon="6.16124">
        <ele>1406</ele>
        <time>2024-08-09T12:57:02Z</time>
      </trkpt>
      <trkpt lat="45.08205" lon="6.16124">
        <ele>1406</ele>
        <time>2024-08-09T12:57:03Z</time>
      </trkpt>
      <trkpt lat="45.08205" lon="6.16124">
        <ele>1406</ele>
        <time>2024-08-09T12:57:04Z</time>
      </trkpt>
      <trkpt lat="45.08205" lon="6.16124">
        <ele>1406</ele>
        <time>2024-08-09T12:57:05Z</time>
      </trkpt>
      <trkpt lat="45.08205" lon="6.16124">
        <ele>1406</ele>
        <time>2024-08-09T12:57:06Z</time>
      </trkpt>
      <trkpt lat="45.08205" lon="6.16124">
        <ele>1406.2</ele>
        <time>2024-08-09T12:57:07Z</time>
      </trkpt>
      <trkpt lat="45.08205" lon="6.16124">
        <ele>1406.2</ele>
        <time>2024-08-09T12:57:08Z</time>
      </trkpt>
      <trkpt lat="45.08205" lon="6.16124">
        <ele>1406</ele>
        <time>2024-08-09T12:57:09Z</time>
      </trkpt>
      <trkpt lat="45.08205" lon="6.16124">
        <ele>1406</ele>
        <time>2024-08-09T12:57:10Z</time>
      </trkpt>
      <trkpt lat="45.08205" lon="6.16124">
        <ele>1406</ele>
        <time>2024-08-09T12:57:11Z</time>
      </trkpt>
      <trkpt lat="45.08205" lon="6.16124">
        <ele>1406</ele>
        <time>2024-08-09T12:57:12Z</time>
      </trkpt>
      <trkpt lat="45.08205" lon="6.16124">
        <ele>1406</ele>
        <time>2024-08-09T12:57:13Z</time>
      </trkpt>
      <trkpt lat="45.08205" lon="6.16124">
        <ele>1406</ele>
        <time>2024-08-09T12:57:14Z</time>
      </trkpt>
      <trkpt lat="45.08205" lon="6.16124">
        <ele>1406</ele>
        <time>2024-08-09T12:57:15Z</time>
      </trkpt>
      <trkpt lat="45.08205" lon="6.16124">
        <ele>1406</ele>
        <time>2024-08-09T12:57:16Z</time>
      </trkpt>
      <trkpt lat="45.08205" lon="6.16124">
        <ele>1406</ele>
        <time>2024-08-09T12:57:17Z</time>
      </trkpt>
      <trkpt lat="45.08205" lon="6.16124">
        <ele>1405.8</ele>
        <time>2024-08-09T12:57:18Z</time>
      </trkpt>
      <trkpt lat="45.08205" lon="6.16124">
        <ele>1405.8</ele>
        <time>2024-08-09T12:57:19Z</time>
      </trkpt>
      <trkpt lat="45.08202" lon="6.16122">
        <ele>1405.6</ele>
        <time>2024-08-09T12:57:20Z</time>
      </trkpt>
      <trkpt lat="45.08202" lon="6.16122">
        <ele>1405.6</ele>
        <time>2024-08-09T12:57:21Z</time>
      </trkpt>
      <trkpt lat="45.08199" lon="6.16119">
        <ele>1405.4</ele>
        <time>2024-08-09T12:57:22Z</time>
      </trkpt>
      <trkpt lat="45.08197" lon="6.16117">
        <ele>1405.4</ele>
        <time>2024-08-09T12:57:23Z</time>
      </trkpt>
      <trkpt lat="45.08196" lon="6.16116">
        <ele>1405</ele>
        <time>2024-08-09T12:57:24Z</time>
      </trkpt>
      <trkpt lat="45.08196" lon="6.16116">
        <ele>1405</ele>
        <time>2024-08-09T12:57:25Z</time>
      </trkpt>
      <trkpt lat="45.08193" lon="6.16114">
        <ele>1404.8</ele>
        <time>2024-08-09T12:57:26Z</time>
      </trkpt>
      <trkpt lat="45.08193" lon="6.16114">
        <ele>1404.6</ele>
        <time>2024-08-09T12:57:27Z</time>
      </trkpt>
      <trkpt lat="45.08191" lon="6.16112">
        <ele>1404.4</ele>
        <time>2024-08-09T12:57:28Z</time>
      </trkpt>
      <trkpt lat="45.08191" lon="6.16112">
        <ele>1404.4</ele>
        <time>2024-08-09T12:57:29Z</time>
      </trkpt>
      <trkpt lat="45.08189" lon="6.1611">
        <ele>1404</ele>
        <time>2024-08-09T12:57:30Z</time>
      </trkpt>
      <trkpt lat="45.08188" lon="6.16109">
        <ele>1404</ele>
        <time>2024-08-09T12:57:31Z</time>
      </trkpt>
      <trkpt lat="45.08188" lon="6.16109">
        <ele>1404</ele>
        <time>2024-08-09T12:57:32Z</time>
      </trkpt>
      <trkpt lat="45.08186" lon="6.16107">
        <ele>1404</ele>
        <time>2024-08-09T12:57:33Z</time>
      </trkpt>
      <trkpt lat="45.08186" lon="6.16107">
        <ele>1404</ele>
        <time>2024-08-09T12:57:34Z</time>
      </trkpt>
      <trkpt lat="45.08184" lon="6.16105">
        <ele>1404</ele>
        <time>2024-08-09T12:57:35Z</time>
      </trkpt>
      <trkpt lat="45.08184" lon="6.16105">
        <ele>1404.2</ele>
        <time>2024-08-09T12:57:36Z</time>
      </trkpt>
      <trkpt lat="45.08184" lon="6.16105">
        <ele>1404.4</ele>
        <time>2024-08-09T12:57:37Z</time>
      </trkpt>
      <trkpt lat="45.08184" lon="6.16105">
        <ele>1404.4</ele>
        <time>2024-08-09T12:57:38Z</time>
      </trkpt>
      <trkpt lat="45.08182" lon="6.16104">
        <ele>1404.4</ele>
        <time>2024-08-09T12:57:39Z</time>
      </trkpt>
      <trkpt lat="45.08182" lon="6.16104">
        <ele>1404.2</ele>
        <time>2024-08-09T12:57:40Z</time>
      </trkpt>
      <trkpt lat="45.08182" lon="6.16104">
        <ele>1404</ele>
        <time>2024-08-09T12:57:41Z</time>
      </trkpt>
      <trkpt lat="45.08182" lon="6.16104">
        <ele>1404.2</ele>
        <time>2024-08-09T12:57:42Z</time>
      </trkpt>
      <trkpt lat="45.08182" lon="6.16104">
        <ele>1404.2</ele>
        <time>2024-08-09T12:57:43Z</time>
      </trkpt>
      <trkpt lat="45.08182" lon="6.16104">
        <ele>1404.2</ele>
        <time>2024-08-09T12:57:44Z</time>
      </trkpt>
      <trkpt lat="45.08183" lon="6.16107">
        <ele>1404.2</ele>
        <time>2024-08-09T12:57:45Z</time>
      </trkpt>
      <trkpt lat="45.08183" lon="6.16107">
        <ele>1404.2</ele>
        <time>2024-08-09T12:57:46Z</time>
      </trkpt>
      <trkpt lat="45.08185" lon="6.16108">
        <ele>1404</ele>
        <time>2024-08-09T12:57:47Z</time>
      </trkpt>
      <trkpt lat="45.08185" lon="6.16108">
        <ele>1404</ele>
        <time>2024-08-09T12:57:48Z</time>
      </trkpt>
      <trkpt lat="45.08188" lon="6.1611">
        <ele>1404</ele>
        <time>2024-08-09T12:57:49Z</time>
      </trkpt>
      <trkpt lat="45.08188" lon="6.1611">
        <ele>1403.8</ele>
        <time>2024-08-09T12:57:50Z</time>
      </trkpt>
      <trkpt lat="45.0819" lon="6.16112">
        <ele>1403.8</ele>
        <time>2024-08-09T12:57:51Z</time>
      </trkpt>
      <trkpt lat="45.08191" lon="6.16114">
        <ele>1403.8</ele>
        <time>2024-08-09T12:57:52Z</time>
      </trkpt>
      <trkpt lat="45.08191" lon="6.16114">
        <ele>1403.8</ele>
        <time>2024-08-09T12:57:53Z</time>
      </trkpt>
      <trkpt lat="45.08194" lon="6.16116">
        <ele>1403.8</ele>
        <time>2024-08-09T12:57:54Z</time>
      </trkpt>
      <trkpt lat="45.08194" lon="6.16116">
        <ele>1404</ele>
        <time>2024-08-09T12:57:55Z</time>
      </trkpt>
      <trkpt lat="45.08196" lon="6.16118">
        <ele>1404.2</ele>
        <time>2024-08-09T12:57:56Z</time>
      </trkpt>
      <trkpt lat="45.08198" lon="6.16119">
        <ele>1404.2</ele>
        <time>2024-08-09T12:57:57Z</time>
      </trkpt>
      <trkpt lat="45.08198" lon="6.16119">
        <ele>1404.2</ele>
        <time>2024-08-09T12:57:58Z</time>
      </trkpt>
      <trkpt lat="45.082" lon="6.16122">
        <ele>1404.4</ele>
        <time>2024-08-09T12:57:59Z</time>
      </trkpt>
      <trkpt lat="45.082" lon="6.16122">
        <ele>1404.4</ele>
        <time>2024-08-09T12:58:00Z</time>
      </trkpt>
      <trkpt lat="45.08202" lon="6.16125">
        <ele>1404.4</ele>
        <time>2024-08-09T12:58:01Z</time>
      </trkpt>
      <trkpt lat="45.08202" lon="6.16125">
        <ele>1404.6</ele>
        <time>2024-08-09T12:58:02Z</time>
      </trkpt>
      <trkpt lat="45.08204" lon="6.16126">
        <ele>1404.6</ele>
        <time>2024-08-09T12:58:03Z</time>
      </trkpt>
      <trkpt lat="45.08204" lon="6.16126">
        <ele>1404.6</ele>
        <time>2024-08-09T12:58:04Z</time>
      </trkpt>
      <trkpt lat="45.08206" lon="6.16128">
        <ele>1404.4</ele>
        <time>2024-08-09T12:58:05Z</time>
      </trkpt>
      <trkpt lat="45.08206" lon="6.16128">
        <ele>1404.4</ele>
        <time>2024-08-09T12:58:06Z</time>
      </trkpt>
      <trkpt lat="45.08209" lon="6.16129">
        <ele>1404.4</ele>
        <time>2024-08-09T12:58:07Z</time>
      </trkpt>
      <trkpt lat="45.08209" lon="6.16129">
        <ele>1404.4</ele>
        <time>2024-08-09T12:58:08Z</time>
      </trkpt>
      <trkpt lat="45.08212" lon="6.16131">
        <ele>1404.4</ele>
        <time>2024-08-09T12:58:09Z</time>
      </trkpt>
      <trkpt lat="45.08212" lon="6.16131">
        <ele>1404.4</ele>
        <time>2024-08-09T12:58:10Z</time>
      </trkpt>
      <trkpt lat="45.08214" lon="6.16133">
        <ele>1404.4</ele>
        <time>2024-08-09T12:58:11Z</time>
      </trkpt>
      <trkpt lat="45.08214" lon="6.16133">
        <ele>1404.4</ele>
        <time>2024-08-09T12:58:12Z</time>
      </trkpt>
      <trkpt lat="45.08216" lon="6.16135">
        <ele>1404.6</ele>
        <time>2024-08-09T12:58:13Z</time>
      </trkpt>
      <trkpt lat="45.08216" lon="6.16135">
        <ele>1404.6</ele>
        <time>2024-08-09T12:58:14Z</time>
      </trkpt>
      <trkpt lat="45.08219" lon="6.16136">
        <ele>1404.6</ele>
        <time>2024-08-09T12:58:15Z</time>
      </trkpt>
      <trkpt lat="45.08219" lon="6.16136">
        <ele>1404.6</ele>
        <time>2024-08-09T12:58:16Z</time>
      </trkpt>
      <trkpt lat="45.08222" lon="6.16137">
        <ele>1404.6</ele>
        <time>2024-08-09T12:58:17Z</time>
      </trkpt>
      <trkpt lat="45.08224" lon="6.16137">
        <ele>1404.8</ele>
        <time>2024-08-09T12:58:18Z</time>
      </trkpt>
      <trkpt lat="45.08224" lon="6.16137">
        <ele>1405</ele>
        <time>2024-08-09T12:58:19Z</time>
      </trkpt>
      <trkpt lat="45.08226" lon="6.16137">
        <ele>1405</ele>
        <time>2024-08-09T12:58:20Z</time>
      </trkpt>
      <trkpt lat="45.08226" lon="6.16137">
        <ele>1405</ele>
        <time>2024-08-09T12:58:21Z</time>
      </trkpt>
      <trkpt lat="45.08229" lon="6.16138">
        <ele>1405</ele>
        <time>2024-08-09T12:58:22Z</time>
      </trkpt>
      <trkpt lat="45.08229" lon="6.16138">
        <ele>1405</ele>
        <time>2024-08-09T12:58:23Z</time>
      </trkpt>
      <trkpt lat="45.0823" lon="6.16141">
        <ele>1405</ele>
        <time>2024-08-09T12:58:24Z</time>
      </trkpt>
      <trkpt lat="45.0823" lon="6.16141">
        <ele>1405</ele>
        <time>2024-08-09T12:58:25Z</time>
      </trkpt>
      <trkpt lat="45.08231" lon="6.16145">
        <ele>1405</ele>
        <time>2024-08-09T12:58:26Z</time>
      </trkpt>
      <trkpt lat="45.08231" lon="6.16145">
        <ele>1405</ele>
        <time>2024-08-09T12:58:27Z</time>
      </trkpt>
      <trkpt lat="45.08233" lon="6.16148">
        <ele>1405</ele>
        <time>2024-08-09T12:58:28Z</time>
      </trkpt>
      <trkpt lat="45.08233" lon="6.16148">
        <ele>1405</ele>
        <time>2024-08-09T12:58:29Z</time>
      </trkpt>
      <trkpt lat="45.08234" lon="6.16151">
        <ele>1405</ele>
        <time>2024-08-09T12:58:30Z</time>
      </trkpt>
      <trkpt lat="45.08234" lon="6.16151">
        <ele>1405</ele>
        <time>2024-08-09T12:58:31Z</time>
      </trkpt>
      <trkpt lat="45.08234" lon="6.16151">
        <ele>1405</ele>
        <time>2024-08-09T12:58:32Z</time>
      </trkpt>
      <trkpt lat="45.08234" lon="6.16151">
        <ele>1405</ele>
        <time>2024-08-09T12:58:33Z</time>
      </trkpt>
      <trkpt lat="45.08234" lon="6.16151">
        <ele>1405</ele>
        <time>2024-08-09T12:58:34Z</time>
      </trkpt>
      <trkpt lat="45.08236" lon="6.1615">
        <ele>1405.2</ele>
        <time>2024-08-09T12:58:35Z</time>
      </trkpt>
      <trkpt lat="45.08236" lon="6.1615">
        <ele>1405.4</ele>
        <time>2024-08-09T12:58:36Z</time>
      </trkpt>
      <trkpt lat="45.08236" lon="6.16147">
        <ele>1405.4</ele>
        <time>2024-08-09T12:58:37Z</time>
      </trkpt>
      <trkpt lat="45.08236" lon="6.16147">
        <ele>1404.8</ele>
        <time>2024-08-09T12:58:38Z</time>
      </trkpt>
      <trkpt lat="45.08237" lon="6.16143">
        <ele>1404.8</ele>
        <time>2024-08-09T12:58:39Z</time>
      </trkpt>
      <trkpt lat="45.08237" lon="6.16143">
        <ele>1404.8</ele>
        <time>2024-08-09T12:58:40Z</time>
      </trkpt>
      <trkpt lat="45.08237" lon="6.1614">
        <ele>1405</ele>
        <time>2024-08-09T12:58:41Z</time>
      </trkpt>
      <trkpt lat="45.08237" lon="6.1614">
        <ele>1405</ele>
        <time>2024-08-09T12:58:42Z</time>
      </trkpt>
      <trkpt lat="45.08237" lon="6.16136">
        <ele>1405.2</ele>
        <time>2024-08-09T12:58:43Z</time>
      </trkpt>
      <trkpt lat="45.08237" lon="6.16136">
        <ele>1405.4</ele>
        <time>2024-08-09T12:58:44Z</time>
      </trkpt>
      <trkpt lat="45.08236" lon="6.16132">
        <ele>1405.6</ele>
        <time>2024-08-09T12:58:45Z</time>
      </trkpt>
      <trkpt lat="45.08236" lon="6.16132">
        <ele>1405.6</ele>
        <time>2024-08-09T12:58:46Z</time>
      </trkpt>
      <trkpt lat="45.08235" lon="6.16129">
        <ele>1406.2</ele>
        <time>2024-08-09T12:58:47Z</time>
      </trkpt>
      <trkpt lat="45.08235" lon="6.16129">
        <ele>1406.2</ele>
        <time>2024-08-09T12:58:48Z</time>
      </trkpt>
      <trkpt lat="45.08233" lon="6.16125">
        <ele>1406.4</ele>
        <time>2024-08-09T12:58:49Z</time>
      </trkpt>
      <trkpt lat="45.08233" lon="6.16125">
        <ele>1406.8</ele>
        <time>2024-08-09T12:58:50Z</time>
      </trkpt>
      <trkpt lat="45.08231" lon="6.16122">
        <ele>1406.8</ele>
        <time>2024-08-09T12:58:51Z</time>
      </trkpt>
      <trkpt lat="45.08231" lon="6.16122">
        <ele>1407</ele>
        <time>2024-08-09T12:58:52Z</time>
      </trkpt>
      <trkpt lat="45.08229" lon="6.1612">
        <ele>1407</ele>
        <time>2024-08-09T12:58:53Z</time>
      </trkpt>
      <trkpt lat="45.08229" lon="6.1612">
        <ele>1407.2</ele>
        <time>2024-08-09T12:58:54Z</time>
      </trkpt>
      <trkpt lat="45.08227" lon="6.16119">
        <ele>1407.4</ele>
        <time>2024-08-09T12:58:55Z</time>
      </trkpt>
      <trkpt lat="45.08227" lon="6.16119">
        <ele>1407.4</ele>
        <time>2024-08-09T12:58:56Z</time>
      </trkpt>
      <trkpt lat="45.08225" lon="6.16118">
        <ele>1407.4</ele>
        <time>2024-08-09T12:58:57Z</time>
      </trkpt>
      <trkpt lat="45.08225" lon="6.16118">
        <ele>1407.6</ele>
        <time>2024-08-09T12:58:58Z</time>
      </trkpt>
      <trkpt lat="45.08223" lon="6.16117">
        <ele>1407.6</ele>
        <time>2024-08-09T12:58:59Z</time>
      </trkpt>
      <trkpt lat="45.08221" lon="6.16115">
        <ele>1407.6</ele>
        <time>2024-08-09T12:59:00Z</time>
      </trkpt>
      <trkpt lat="45.08221" lon="6.16115">
        <ele>1407.8</ele>
        <time>2024-08-09T12:59:01Z</time>
      </trkpt>
      <trkpt lat="45.0822" lon="6.16112">
        <ele>1408</ele>
        <time>2024-08-09T12:59:02Z</time>
      </trkpt>
      <trkpt lat="45.0822" lon="6.16112">
        <ele>1408</ele>
        <time>2024-08-09T12:59:03Z</time>
      </trkpt>
      <trkpt lat="45.08218" lon="6.16111">
        <ele>1408</ele>
        <time>2024-08-09T12:59:04Z</time>
      </trkpt>
      <trkpt lat="45.08218" lon="6.16111">
        <ele>1408</ele>
        <time>2024-08-09T12:59:05Z</time>
      </trkpt>
      <trkpt lat="45.08216" lon="6.16109">
        <ele>1408.2</ele>
        <time>2024-08-09T12:59:06Z</time>
      </trkpt>
      <trkpt lat="45.08216" lon="6.16109">
        <ele>1408.2</ele>
        <time>2024-08-09T12:59:07Z</time>
      </trkpt>
      <trkpt lat="45.08214" lon="6.16107">
        <ele>1408.2</ele>
        <time>2024-08-09T12:59:08Z</time>
      </trkpt>
      <trkpt lat="45.08214" lon="6.16107">
        <ele>1408.4</ele>
        <time>2024-08-09T12:59:09Z</time>
      </trkpt>
      <trkpt lat="45.08214" lon="6.16107">
        <ele>1408.4</ele>
        <time>2024-08-09T12:59:10Z</time>
      </trkpt>
      <trkpt lat="45.08211" lon="6.16107">
        <ele>1408.2</ele>
        <time>2024-08-09T12:59:11Z</time>
      </trkpt>
      <trkpt lat="45.08211" lon="6.16107">
        <ele>1408.2</ele>
        <time>2024-08-09T12:59:12Z</time>
      </trkpt>
      <trkpt lat="45.08209" lon="6.16108">
        <ele>1408</ele>
        <time>2024-08-09T12:59:13Z</time>
      </trkpt>
      <trkpt lat="45.08209" lon="6.16108">
        <ele>1408</ele>
        <time>2024-08-09T12:59:14Z</time>
      </trkpt>
      <trkpt lat="45.08206" lon="6.16107">
        <ele>1407.8</ele>
        <time>2024-08-09T12:59:15Z</time>
      </trkpt>
      <trkpt lat="45.08206" lon="6.16107">
        <ele>1407.8</ele>
        <time>2024-08-09T12:59:16Z</time>
      </trkpt>
      <trkpt lat="45.08206" lon="6.16104">
        <ele>1407.8</ele>
        <time>2024-08-09T12:59:17Z</time>
      </trkpt>
      <trkpt lat="45.08206" lon="6.16104">
        <ele>1407.8</ele>
        <time>2024-08-09T12:59:18Z</time>
      </trkpt>
      <trkpt lat="45.08204" lon="6.16101">
        <ele>1407.8</ele>
        <time>2024-08-09T12:59:19Z</time>
      </trkpt>
      <trkpt lat="45.08204" lon="6.16101">
        <ele>1407.8</ele>
        <time>2024-08-09T12:59:20Z</time>
      </trkpt>
      <trkpt lat="45.08202" lon="6.16099">
        <ele>1408</ele>
        <time>2024-08-09T12:59:21Z</time>
      </trkpt>
      <trkpt lat="45.08202" lon="6.16099">
        <ele>1408</ele>
        <time>2024-08-09T12:59:22Z</time>
      </trkpt>
      <trkpt lat="45.082" lon="6.16097">
        <ele>1408</ele>
        <time>2024-08-09T12:59:23Z</time>
      </trkpt>
      <trkpt lat="45.082" lon="6.16097">
        <ele>1408</ele>
        <time>2024-08-09T12:59:24Z</time>
      </trkpt>
      <trkpt lat="45.08198" lon="6.16095">
        <ele>1408.2</ele>
        <time>2024-08-09T12:59:25Z</time>
      </trkpt>
      <trkpt lat="45.08198" lon="6.16095">
        <ele>1408.2</ele>
        <time>2024-08-09T12:59:26Z</time>
      </trkpt>
      <trkpt lat="45.08196" lon="6.16093">
        <ele>1408.2</ele>
        <time>2024-08-09T12:59:27Z</time>
      </trkpt>
      <trkpt lat="45.08196" lon="6.16093">
        <ele>1408.6</ele>
        <time>2024-08-09T12:59:28Z</time>
      </trkpt>
      <trkpt lat="45.08194" lon="6.16091">
        <ele>1408.8</ele>
        <time>2024-08-09T12:59:29Z</time>
      </trkpt>
      <trkpt lat="45.08194" lon="6.16091">
        <ele>1409</ele>
        <time>2024-08-09T12:59:30Z</time>
      </trkpt>
      <trkpt lat="45.08192" lon="6.1609">
        <ele>1409</ele>
        <time>2024-08-09T12:59:31Z</time>
      </trkpt>
      <trkpt lat="45.08192" lon="6.1609">
        <ele>1409.2</ele>
        <time>2024-08-09T12:59:32Z</time>
      </trkpt>
      <trkpt lat="45.08192" lon="6.1609">
        <ele>1409.2</ele>
        <time>2024-08-09T12:59:33Z</time>
      </trkpt>
      <trkpt lat="45.08192" lon="6.1609">
        <ele>1409.2</ele>
        <time>2024-08-09T12:59:34Z</time>
      </trkpt>
      <trkpt lat="45.08192" lon="6.1609">
        <ele>1409.4</ele>
        <time>2024-08-09T12:59:35Z</time>
      </trkpt>
      <trkpt lat="45.08192" lon="6.1609">
        <ele>1409.6</ele>
        <time>2024-08-09T12:59:36Z</time>
      </trkpt>
      <trkpt lat="45.08192" lon="6.1609">
        <ele>1409.6</ele>
        <time>2024-08-09T12:59:37Z</time>
      </trkpt>
      <trkpt lat="45.08192" lon="6.1609">
        <ele>1409.4</ele>
        <time>2024-08-09T12:59:38Z</time>
      </trkpt>
      <trkpt lat="45.08192" lon="6.1609">
        <ele>1409.4</ele>
        <time>2024-08-09T12:59:39Z</time>
      </trkpt>
      <trkpt lat="45.08192" lon="6.1609">
        <ele>1409.4</ele>
        <time>2024-08-09T12:59:40Z</time>
      </trkpt>
      <trkpt lat="45.08192" lon="6.1609">
        <ele>1409.6</ele>
        <time>2024-08-09T12:59:41Z</time>
      </trkpt>
      <trkpt lat="45.08192" lon="6.1609">
        <ele>1409.6</ele>
        <time>2024-08-09T12:59:42Z</time>
      </trkpt>
      <trkpt lat="45.08192" lon="6.1609">
        <ele>1409.4</ele>
        <time>2024-08-09T12:59:43Z</time>
      </trkpt>
      <trkpt lat="45.08192" lon="6.1609">
        <ele>1409.4</ele>
        <time>2024-08-09T12:59:44Z</time>
      </trkpt>
      <trkpt lat="45.08192" lon="6.1609">
        <ele>1409.2</ele>
        <time>2024-08-09T12:59:45Z</time>
      </trkpt>
      <trkpt lat="45.08192" lon="6.1609">
        <ele>1409.4</ele>
        <time>2024-08-09T12:59:46Z</time>
      </trkpt>
      <trkpt lat="45.08192" lon="6.1609">
        <ele>1409.4</ele>
        <time>2024-08-09T12:59:47Z</time>
      </trkpt>
      <trkpt lat="45.08192" lon="6.1609">
        <ele>1409.4</ele>
        <time>2024-08-09T12:59:48Z</time>
      </trkpt>
      <trkpt lat="45.08192" lon="6.1609">
        <ele>1409.2</ele>
        <time>2024-08-09T12:59:49Z</time>
      </trkpt>
      <trkpt lat="45.08192" lon="6.1609">
        <ele>1409</ele>
        <time>2024-08-09T12:59:50Z</time>
      </trkpt>
      <trkpt lat="45.08192" lon="6.1609">
        <ele>1409</ele>
        <time>2024-08-09T12:59:51Z</time>
      </trkpt>
      <trkpt lat="45.08192" lon="6.1609">
        <ele>1409</ele>
        <time>2024-08-09T12:59:52Z</time>
      </trkpt>
      <trkpt lat="45.08192" lon="6.1609">
        <ele>1409</ele>
        <time>2024-08-09T12:59:53Z</time>
      </trkpt>
      <trkpt lat="45.08192" lon="6.1609">
        <ele>1409</ele>
        <time>2024-08-09T12:59:54Z</time>
      </trkpt>
      <trkpt lat="45.08192" lon="6.1609">
        <ele>1409</ele>
        <time>2024-08-09T12:59:55Z</time>
      </trkpt>
      <trkpt lat="45.08192" lon="6.1609">
        <ele>1409</ele>
        <time>2024-08-09T12:59:56Z</time>
      </trkpt>
      <trkpt lat="45.08192" lon="6.1609">
        <ele>1408.8</ele>
        <time>2024-08-09T12:59:57Z</time>
      </trkpt>
      <trkpt lat="45.08192" lon="6.1609">
        <ele>1408.8</ele>
        <time>2024-08-09T12:59:58Z</time>
      </trkpt>
      <trkpt lat="45.08192" lon="6.1609">
        <ele>1409</ele>
        <time>2024-08-09T12:59:59Z</time>
      </trkpt>
      <trkpt lat="45.08192" lon="6.1609">
        <ele>1409</ele>
        <time>2024-08-09T13:00:00Z</time>
      </trkpt>
      <trkpt lat="45.08192" lon="6.1609">
        <ele>1409</ele>
        <time>2024-08-09T13:00:01Z</time>
      </trkpt>
      <trkpt lat="45.08192" lon="6.1609">
        <ele>1409</ele>
        <time>2024-08-09T13:00:02Z</time>
      </trkpt>
      <trkpt lat="45.08192" lon="6.1609">
        <ele>1409</ele>
        <time>2024-08-09T13:00:03Z</time>
      </trkpt>
      <trkpt lat="45.08192" lon="6.1609">
        <ele>1409.2</ele>
        <time>2024-08-09T13:00:04Z</time>
      </trkpt>
      <trkpt lat="45.08192" lon="6.1609">
        <ele>1409.2</ele>
        <time>2024-08-09T13:00:05Z</time>
      </trkpt>
      <trkpt lat="45.08192" lon="6.1609">
        <ele>1409</ele>
        <time>2024-08-09T13:00:06Z</time>
      </trkpt>
      <trkpt lat="45.08192" lon="6.1609">
        <ele>1409</ele>
        <time>2024-08-09T13:00:07Z</time>
      </trkpt>
      <trkpt lat="45.08192" lon="6.1609">
        <ele>1409</ele>
        <time>2024-08-09T13:00:08Z</time>
      </trkpt>
      <trkpt lat="45.08192" lon="6.1609">
        <ele>1409</ele>
        <time>2024-08-09T13:00:09Z</time>
      </trkpt>
      <trkpt lat="45.08192" lon="6.1609">
        <ele>1409</ele>
        <time>2024-08-09T13:00:10Z</time>
      </trkpt>
      <trkpt lat="45.08192" lon="6.1609">
        <ele>1408.8</ele>
        <time>2024-08-09T13:00:11Z</time>
      </trkpt>
      <trkpt lat="45.08192" lon="6.1609">
        <ele>1408.8</ele>
        <time>2024-08-09T13:00:12Z</time>
      </trkpt>
      <trkpt lat="45.08192" lon="6.1609">
        <ele>1409</ele>
        <time>2024-08-09T13:00:13Z</time>
      </trkpt>
      <trkpt lat="45.08192" lon="6.1609">
        <ele>1409</ele>
        <time>2024-08-09T13:00:14Z</time>
      </trkpt>
      <trkpt lat="45.08192" lon="6.1609">
        <ele>1409</ele>
        <time>2024-08-09T13:00:15Z</time>
      </trkpt>
      <trkpt lat="45.08192" lon="6.1609">
        <ele>1409</ele>
        <time>2024-08-09T13:00:16Z</time>
      </trkpt>
      <trkpt lat="45.08192" lon="6.1609">
        <ele>1409</ele>
        <time>2024-08-09T13:00:17Z</time>
      </trkpt>
      <trkpt lat="45.08192" lon="6.1609">
        <ele>1409</ele>
        <time>2024-08-09T13:00:18Z</time>
      </trkpt>
      <trkpt lat="45.08192" lon="6.1609">
        <ele>1409</ele>
        <time>2024-08-09T13:00:19Z</time>
      </trkpt>
      <trkpt lat="45.08192" lon="6.1609">
        <ele>1409</ele>
        <time>2024-08-09T13:00:20Z</time>
      </trkpt>
      <trkpt lat="45.08192" lon="6.1609">
        <ele>1409</ele>
        <time>2024-08-09T13:00:21Z</time>
      </trkpt>
      <trkpt lat="45.08192" lon="6.1609">
        <ele>1409</ele>
        <time>2024-08-09T13:00:22Z</time>
      </trkpt>
      <trkpt lat="45.08192" lon="6.1609">
        <ele>1409</ele>
        <time>2024-08-09T13:00:23Z</time>
      </trkpt>
      <trkpt lat="45.08192" lon="6.1609">
        <ele>1409</ele>
        <time>2024-08-09T13:00:24Z</time>
      </trkpt>
      <trkpt lat="45.08192" lon="6.1609">
        <ele>1409.2</ele>
        <time>2024-08-09T13:00:25Z</time>
      </trkpt>
      <trkpt lat="45.08192" lon="6.1609">
        <ele>1409.2</ele>
        <time>2024-08-09T13:00:26Z</time>
      </trkpt>
      <trkpt lat="45.08192" lon="6.1609">
        <ele>1409.2</ele>
        <time>2024-08-09T13:00:27Z</time>
      </trkpt>
      <trkpt lat="45.08192" lon="6.1609">
        <ele>1409.2</ele>
        <time>2024-08-09T13:00:28Z</time>
      </trkpt>
      <trkpt lat="45.08192" lon="6.1609">
        <ele>1409.2</ele>
        <time>2024-08-09T13:00:29Z</time>
      </trkpt>
      <trkpt lat="45.08192" lon="6.1609">
        <ele>1409.4</ele>
        <time>2024-08-09T13:00:30Z</time>
      </trkpt>
      <trkpt lat="45.08192" lon="6.1609">
        <ele>1409.4</ele>
        <time>2024-08-09T13:00:31Z</time>
      </trkpt>
      <trkpt lat="45.08192" lon="6.1609">
        <ele>1409.2</ele>
        <time>2024-08-09T13:00:32Z</time>
      </trkpt>
      <trkpt lat="45.08192" lon="6.1609">
        <ele>1409.2</ele>
        <time>2024-08-09T13:00:34Z</time>
      </trkpt>
      <trkpt lat="45.08192" lon="6.1609">
        <ele>1409.2</ele>
        <time>2024-08-09T13:00:35Z</time>
      </trkpt>
      <trkpt lat="45.08192" lon="6.1609">
        <ele>1409.2</ele>
        <time>2024-08-09T13:00:36Z</time>
      </trkpt>
      <trkpt lat="45.08192" lon="6.1609">
        <ele>1409.2</ele>
        <time>2024-08-09T13:00:37Z</time>
      </trkpt>
      <trkpt lat="45.08192" lon="6.1609">
        <ele>1409.2</ele>
        <time>2024-08-09T13:00:38Z</time>
      </trkpt>
      <trkpt lat="45.08192" lon="6.1609">
        <ele>1409.2</ele>
        <time>2024-08-09T13:00:40Z</time>
      </trkpt>
      <trkpt lat="45.08192" lon="6.1609">
        <ele>1409</ele>
        <time>2024-08-09T13:00:41Z</time>
      </trkpt>
      <trkpt lat="45.08192" lon="6.1609">
        <ele>1409</ele>
        <time>2024-08-09T13:00:42Z</time>
      </trkpt>
      <trkpt lat="45.08192" lon="6.1609">
        <ele>1409</ele>
        <time>2024-08-09T13:00:43Z</time>
      </trkpt>
      <trkpt lat="45.08192" lon="6.1609">
        <ele>1409</ele>
        <time>2024-08-09T13:00:44Z</time>
      </trkpt>
      <trkpt lat="45.08192" lon="6.1609">
        <ele>1409</ele>
        <time>2024-08-09T13:00:45Z</time>
      </trkpt>
      <trkpt lat="45.08192" lon="6.1609">
        <ele>1409</ele>
        <time>2024-08-09T13:00:46Z</time>
      </trkpt>
      <trkpt lat="45.08192" lon="6.1609">
        <ele>1409</ele>
        <time>2024-08-09T13:00:47Z</time>
      </trkpt>
      <trkpt lat="45.08192" lon="6.1609">
        <ele>1409</ele>
        <time>2024-08-09T13:00:48Z</time>
      </trkpt>
      <trkpt lat="45.08192" lon="6.1609">
        <ele>1409.2</ele>
        <time>2024-08-09T13:00:49Z</time>
      </trkpt>
      <trkpt lat="45.08192" lon="6.1609">
        <ele>1409.2</ele>
        <time>2024-08-09T13:00:50Z</time>
      </trkpt>
      <trkpt lat="45.08192" lon="6.1609">
        <ele>1409</ele>
        <time>2024-08-09T13:00:51Z</time>
      </trkpt>
      <trkpt lat="45.08192" lon="6.1609">
        <ele>1409</ele>
        <time>2024-08-09T13:00:52Z</time>
      </trkpt>
      <trkpt lat="45.08192" lon="6.1609">
        <ele>1409</ele>
        <time>2024-08-09T13:00:53Z</time>
      </trkpt>
      <trkpt lat="45.08192" lon="6.1609">
        <ele>1409</ele>
        <time>2024-08-09T13:00:54Z</time>
      </trkpt>
      <trkpt lat="45.08192" lon="6.1609">
        <ele>1409</ele>
        <time>2024-08-09T13:00:55Z</time>
      </trkpt>
      <trkpt lat="45.08192" lon="6.1609">
        <ele>1409.2</ele>
        <time>2024-08-09T13:00:56Z</time>
      </trkpt>
      <trkpt lat="45.08192" lon="6.1609">
        <ele>1409.2</ele>
        <time>2024-08-09T13:00:57Z</time>
      </trkpt>
      <trkpt lat="45.08192" lon="6.1609">
        <ele>1409</ele>
        <time>2024-08-09T13:00:58Z</time>
      </trkpt>
      <trkpt lat="45.08192" lon="6.1609">
        <ele>1409</ele>
        <time>2024-08-09T13:00:59Z</time>
      </trkpt>
      <trkpt lat="45.08192" lon="6.1609">
        <ele>1409</ele>
        <time>2024-08-09T13:01:00Z</time>
      </trkpt>
      <trkpt lat="45.08192" lon="6.1609">
        <ele>1409</ele>
        <time>2024-08-09T13:01:01Z</time>
      </trkpt>
      <trkpt lat="45.08192" lon="6.1609">
        <ele>1409</ele>
        <time>2024-08-09T13:01:02Z</time>
      </trkpt>
      <trkpt lat="45.08192" lon="6.1609">
        <ele>1409</ele>
        <time>2024-08-09T13:01:03Z</time>
      </trkpt>
      <trkpt lat="45.08192" lon="6.1609">
        <ele>1409.2</ele>
        <time>2024-08-09T13:01:04Z</time>
      </trkpt>
      <trkpt lat="45.08192" lon="6.1609">
        <ele>1409.2</ele>
        <time>2024-08-09T13:01:05Z</time>
      </trkpt>
      <trkpt lat="45.08192" lon="6.1609">
        <ele>1409.2</ele>
        <time>2024-08-09T13:01:06Z</time>
      </trkpt>
      <trkpt lat="45.08192" lon="6.1609">
        <ele>1409.4</ele>
        <time>2024-08-09T13:01:07Z</time>
      </trkpt>
      <trkpt lat="45.08192" lon="6.1609">
        <ele>1409.4</ele>
        <time>2024-08-09T13:01:08Z</time>
      </trkpt>
      <trkpt lat="45.08192" lon="6.1609">
        <ele>1409.4</ele>
        <time>2024-08-09T13:01:09Z</time>
      </trkpt>
      <trkpt lat="45.08192" lon="6.1609">
        <ele>1409.4</ele>
        <time>2024-08-09T13:01:10Z</time>
      </trkpt>
      <trkpt lat="45.08192" lon="6.1609">
        <ele>1409.4</ele>
        <time>2024-08-09T13:01:11Z</time>
      </trkpt>
      <trkpt lat="45.08192" lon="6.1609">
        <ele>1409.6</ele>
        <time>2024-08-09T13:01:12Z</time>
      </trkpt>
      <trkpt lat="45.08192" lon="6.1609">
        <ele>1409.6</ele>
        <time>2024-08-09T13:01:13Z</time>
      </trkpt>
      <trkpt lat="45.08192" lon="6.1609">
        <ele>1409.4</ele>
        <time>2024-08-09T13:01:14Z</time>
      </trkpt>
      <trkpt lat="45.08192" lon="6.1609">
        <ele>1409.4</ele>
        <time>2024-08-09T13:01:15Z</time>
      </trkpt>
      <trkpt lat="45.08192" lon="6.1609">
        <ele>1409.4</ele>
        <time>2024-08-09T13:01:16Z</time>
      </trkpt>
      <trkpt lat="45.08192" lon="6.1609">
        <ele>1409.4</ele>
        <time>2024-08-09T13:01:17Z</time>
      </trkpt>
      <trkpt lat="45.08192" lon="6.1609">
        <ele>1409.4</ele>
        <time>2024-08-09T13:01:18Z</time>
      </trkpt>
      <trkpt lat="45.08192" lon="6.1609">
        <ele>1409.4</ele>
        <time>2024-08-09T13:01:19Z</time>
      </trkpt>
      <trkpt lat="45.08192" lon="6.1609">
        <ele>1409.4</ele>
        <time>2024-08-09T13:01:20Z</time>
      </trkpt>
      <trkpt lat="45.08192" lon="6.1609">
        <ele>1409.4</ele>
        <time>2024-08-09T13:01:21Z</time>
      </trkpt>
      <trkpt lat="45.08192" lon="6.1609">
        <ele>1409.4</ele>
        <time>2024-08-09T13:01:22Z</time>
      </trkpt>
      <trkpt lat="45.08192" lon="6.1609">
        <ele>1409.4</ele>
        <time>2024-08-09T13:01:23Z</time>
      </trkpt>
      <trkpt lat="45.08192" lon="6.1609">
        <ele>1409.4</ele>
        <time>2024-08-09T13:01:24Z</time>
      </trkpt>
      <trkpt lat="45.08192" lon="6.1609">
        <ele>1409.4</ele>
        <time>2024-08-09T13:01:25Z</time>
      </trkpt>
      <trkpt lat="45.08192" lon="6.1609">
        <ele>1409.4</ele>
        <time>2024-08-09T13:01:26Z</time>
      </trkpt>
      <trkpt lat="45.0819" lon="6.16091">
        <ele>1409.8</ele>
        <time>2024-08-09T13:01:27Z</time>
      </trkpt>
      <trkpt lat="45.0819" lon="6.16091">
        <ele>1409.8</ele>
        <time>2024-08-09T13:01:28Z</time>
      </trkpt>
      <trkpt lat="45.0819" lon="6.16091">
        <ele>1409.6</ele>
        <time>2024-08-09T13:01:29Z</time>
      </trkpt>
      <trkpt lat="45.0819" lon="6.16094">
        <ele>1409.4</ele>
        <time>2024-08-09T13:01:30Z</time>
      </trkpt>
      <trkpt lat="45.0819" lon="6.16094">
        <ele>1409.4</ele>
        <time>2024-08-09T13:01:31Z</time>
      </trkpt>
      <trkpt lat="45.08193" lon="6.16097">
        <ele>1409.4</ele>
        <time>2024-08-09T13:01:32Z</time>
      </trkpt>
      <trkpt lat="45.08195" lon="6.16098">
        <ele>1409.4</ele>
        <time>2024-08-09T13:01:33Z</time>
      </trkpt>
      <trkpt lat="45.08195" lon="6.16098">
        <ele>1409.2</ele>
        <time>2024-08-09T13:01:34Z</time>
      </trkpt>
      <trkpt lat="45.08198" lon="6.161">
        <ele>1409</ele>
        <time>2024-08-09T13:01:35Z</time>
      </trkpt>
      <trkpt lat="45.08199" lon="6.16101">
        <ele>1409</ele>
        <time>2024-08-09T13:01:36Z</time>
      </trkpt>
      <trkpt lat="45.08199" lon="6.16101">
        <ele>1408.8</ele>
        <time>2024-08-09T13:01:37Z</time>
      </trkpt>
      <trkpt lat="45.08202" lon="6.16103">
        <ele>1408.8</ele>
        <time>2024-08-09T13:01:38Z</time>
      </trkpt>
      <trkpt lat="45.08202" lon="6.16103">
        <ele>1408.6</ele>
        <time>2024-08-09T13:01:39Z</time>
      </trkpt>
      <trkpt lat="45.08205" lon="6.16105">
        <ele>1408.6</ele>
        <time>2024-08-09T13:01:40Z</time>
      </trkpt>
      <trkpt lat="45.08205" lon="6.16105">
        <ele>1408.6</ele>
        <time>2024-08-09T13:01:41Z</time>
      </trkpt>
      <trkpt lat="45.08207" lon="6.16107">
        <ele>1408.4</ele>
        <time>2024-08-09T13:01:42Z</time>
      </trkpt>
      <trkpt lat="45.08207" lon="6.16107">
        <ele>1408.4</ele>
        <time>2024-08-09T13:01:43Z</time>
      </trkpt>
      <trkpt lat="45.08209" lon="6.1611">
        <ele>1408.4</ele>
        <time>2024-08-09T13:01:44Z</time>
      </trkpt>
      <trkpt lat="45.08209" lon="6.1611">
        <ele>1408</ele>
        <time>2024-08-09T13:01:45Z</time>
      </trkpt>
      <trkpt lat="45.08211" lon="6.16112">
        <ele>1408</ele>
        <time>2024-08-09T13:01:46Z</time>
      </trkpt>
      <trkpt lat="45.08211" lon="6.16112">
        <ele>1408</ele>
        <time>2024-08-09T13:01:47Z</time>
      </trkpt>
      <trkpt lat="45.08213" lon="6.16113">
        <ele>1407.8</ele>
        <time>2024-08-09T13:01:48Z</time>
      </trkpt>
      <trkpt lat="45.08213" lon="6.16113">
        <ele>1407.8</ele>
        <time>2024-08-09T13:01:49Z</time>
      </trkpt>
      <trkpt lat="45.08213" lon="6.16113">
        <ele>1407.8</ele>
        <time>2024-08-09T13:01:50Z</time>
      </trkpt>
      <trkpt lat="45.08215" lon="6.16115">
        <ele>1407.8</ele>
        <time>2024-08-09T13:01:51Z</time>
      </trkpt>
      <trkpt lat="45.08215" lon="6.16115">
        <ele>1407.8</ele>
        <time>2024-08-09T13:01:52Z</time>
      </trkpt>
      <trkpt lat="45.08215" lon="6.16115">
        <ele>1407.8</ele>
        <time>2024-08-09T13:01:53Z</time>
      </trkpt>
      <trkpt lat="45.08215" lon="6.16115">
        <ele>1407.6</ele>
        <time>2024-08-09T13:01:54Z</time>
      </trkpt>
      <trkpt lat="45.08215" lon="6.16115">
        <ele>1407.6</ele>
        <time>2024-08-09T13:01:55Z</time>
      </trkpt>
      <trkpt lat="45.08215" lon="6.16115">
        <ele>1407.6</ele>
        <time>2024-08-09T13:01:56Z</time>
      </trkpt>
      <trkpt lat="45.08215" lon="6.16115">
        <ele>1407.6</ele>
        <time>2024-08-09T13:01:57Z</time>
      </trkpt>
      <trkpt lat="45.08215" lon="6.16115">
        <ele>1407.4</ele>
        <time>2024-08-09T13:01:58Z</time>
      </trkpt>
      <trkpt lat="45.08215" lon="6.16115">
        <ele>1407.4</ele>
        <time>2024-08-09T13:01:59Z</time>
      </trkpt>
      <trkpt lat="45.08215" lon="6.16115">
        <ele>1407.4</ele>
        <time>2024-08-09T13:02:00Z</time>
      </trkpt>
      <trkpt lat="45.08215" lon="6.16115">
        <ele>1407.6</ele>
        <time>2024-08-09T13:02:01Z</time>
      </trkpt>
      <trkpt lat="45.08215" lon="6.16115">
        <ele>1407.4</ele>
        <time>2024-08-09T13:02:02Z</time>
      </trkpt>
      <trkpt lat="45.08217" lon="6.16116">
        <ele>1407.4</ele>
        <time>2024-08-09T13:02:03Z</time>
      </trkpt>
      <trkpt lat="45.08217" lon="6.16116">
        <ele>1407.2</ele>
        <time>2024-08-09T13:02:04Z</time>
      </trkpt>
      <trkpt lat="45.08217" lon="6.16116">
        <ele>1407</ele>
        <time>2024-08-09T13:02:05Z</time>
      </trkpt>
      <trkpt lat="45.08217" lon="6.16116">
        <ele>1406.8</ele>
        <time>2024-08-09T13:02:06Z</time>
      </trkpt>
      <trkpt lat="45.08217" lon="6.16116">
        <ele>1406.8</ele>
        <time>2024-08-09T13:02:07Z</time>
      </trkpt>
      <trkpt lat="45.08217" lon="6.16116">
        <ele>1407</ele>
        <time>2024-08-09T13:02:08Z</time>
      </trkpt>
      <trkpt lat="45.08217" lon="6.16116">
        <ele>1407</ele>
        <time>2024-08-09T13:02:09Z</time>
      </trkpt>
      <trkpt lat="45.08217" lon="6.16116">
        <ele>1407</ele>
        <time>2024-08-09T13:02:10Z</time>
      </trkpt>
      <trkpt lat="45.08217" lon="6.16116">
        <ele>1407</ele>
        <time>2024-08-09T13:02:11Z</time>
      </trkpt>
      <trkpt lat="45.08217" lon="6.16116">
        <ele>1407.4</ele>
        <time>2024-08-09T13:02:12Z</time>
      </trkpt>
      <trkpt lat="45.08217" lon="6.16116">
        <ele>1407.4</ele>
        <time>2024-08-09T13:02:13Z</time>
      </trkpt>
      <trkpt lat="45.08217" lon="6.16116">
        <ele>1407.2</ele>
        <time>2024-08-09T13:02:14Z</time>
      </trkpt>
      <trkpt lat="45.08217" lon="6.16116">
        <ele>1407.2</ele>
        <time>2024-08-09T13:02:15Z</time>
      </trkpt>
      <trkpt lat="45.08217" lon="6.16116">
        <ele>1407.2</ele>
        <time>2024-08-09T13:02:16Z</time>
      </trkpt>
      <trkpt lat="45.08217" lon="6.16116">
        <ele>1407.2</ele>
        <time>2024-08-09T13:02:17Z</time>
      </trkpt>
      <trkpt lat="45.08217" lon="6.16116">
        <ele>1407.2</ele>
        <time>2024-08-09T13:02:18Z</time>
      </trkpt>
      <trkpt lat="45.08217" lon="6.16116">
        <ele>1407.2</ele>
        <time>2024-08-09T13:02:19Z</time>
      </trkpt>
      <trkpt lat="45.08217" lon="6.16116">
        <ele>1407.2</ele>
        <time>2024-08-09T13:02:20Z</time>
      </trkpt>
      <trkpt lat="45.08217" lon="6.16116">
        <ele>1407.2</ele>
        <time>2024-08-09T13:02:21Z</time>
      </trkpt>
      <trkpt lat="45.08217" lon="6.16116">
        <ele>1407.2</ele>
        <time>2024-08-09T13:02:22Z</time>
      </trkpt>
      <trkpt lat="45.08217" lon="6.16116">
        <ele>1407.2</ele>
        <time>2024-08-09T13:02:23Z</time>
      </trkpt>
      <trkpt lat="45.08217" lon="6.16116">
        <ele>1407</ele>
        <time>2024-08-09T13:02:24Z</time>
      </trkpt>
      <trkpt lat="45.08217" lon="6.16116">
        <ele>1407</ele>
        <time>2024-08-09T13:02:25Z</time>
      </trkpt>
      <trkpt lat="45.08217" lon="6.16116">
        <ele>1407</ele>
        <time>2024-08-09T13:02:26Z</time>
      </trkpt>
      <trkpt lat="45.08217" lon="6.16116">
        <ele>1407</ele>
        <time>2024-08-09T13:02:27Z</time>
      </trkpt>
      <trkpt lat="45.08217" lon="6.16116">
        <ele>1406.8</ele>
        <time>2024-08-09T13:02:28Z</time>
      </trkpt>
      <trkpt lat="45.08217" lon="6.16116">
        <ele>1406.8</ele>
        <time>2024-08-09T13:02:29Z</time>
      </trkpt>
      <trkpt lat="45.08217" lon="6.16116">
        <ele>1406.6</ele>
        <time>2024-08-09T13:02:30Z</time>
      </trkpt>
      <trkpt lat="45.0822" lon="6.16118">
        <ele>1406.2</ele>
        <time>2024-08-09T13:02:31Z</time>
      </trkpt>
      <trkpt lat="45.08222" lon="6.16119">
        <ele>1406.2</ele>
        <time>2024-08-09T13:02:32Z</time>
      </trkpt>
      <trkpt lat="45.08223" lon="6.16121">
        <ele>1406.2</ele>
        <time>2024-08-09T13:02:33Z</time>
      </trkpt>
      <trkpt lat="45.08225" lon="6.16122">
        <ele>1406</ele>
        <time>2024-08-09T13:02:34Z</time>
      </trkpt>
      <trkpt lat="45.08225" lon="6.16122">
        <ele>1406</ele>
        <time>2024-08-09T13:02:35Z</time>
      </trkpt>
      <trkpt lat="45.08228" lon="6.16125">
        <ele>1405.8</ele>
        <time>2024-08-09T13:02:36Z</time>
      </trkpt>
      <trkpt lat="45.08229" lon="6.16126">
        <ele>1405.8</ele>
        <time>2024-08-09T13:02:37Z</time>
      </trkpt>
      <trkpt lat="45.08229" lon="6.16126">
        <ele>1405.6</ele>
        <time>2024-08-09T13:02:38Z</time>
      </trkpt>
      <trkpt lat="45.08232" lon="6.16127">
        <ele>1405.4</ele>
        <time>2024-08-09T13:02:39Z</time>
      </trkpt>
      <trkpt lat="45.08232" lon="6.16127">
        <ele>1405.4</ele>
        <time>2024-08-09T13:02:40Z</time>
      </trkpt>
      <trkpt lat="45.08234" lon="6.1613">
        <ele>1405.4</ele>
        <time>2024-08-09T13:02:41Z</time>
      </trkpt>
      <trkpt lat="45.08234" lon="6.1613">
        <ele>1405.4</ele>
        <time>2024-08-09T13:02:42Z</time>
      </trkpt>
      <trkpt lat="45.08236" lon="6.16132">
        <ele>1405.4</ele>
        <time>2024-08-09T13:02:43Z</time>
      </trkpt>
      <trkpt lat="45.08236" lon="6.16132">
        <ele>1405.4</ele>
        <time>2024-08-09T13:02:44Z</time>
      </trkpt>
      <trkpt lat="45.08236" lon="6.16136">
        <ele>1405.2</ele>
        <time>2024-08-09T13:02:45Z</time>
      </trkpt>
      <trkpt lat="45.08236" lon="6.16136">
        <ele>1405</ele>
        <time>2024-08-09T13:02:46Z</time>
      </trkpt>
      <trkpt lat="45.08237" lon="6.1614">
        <ele>1405</ele>
        <time>2024-08-09T13:02:47Z</time>
      </trkpt>
      <trkpt lat="45.08237" lon="6.1614">
        <ele>1404.8</ele>
        <time>2024-08-09T13:02:48Z</time>
      </trkpt>
      <trkpt lat="45.08236" lon="6.16143">
        <ele>1404.8</ele>
        <time>2024-08-09T13:02:49Z</time>
      </trkpt>
      <trkpt lat="45.08236" lon="6.16143">
        <ele>1404.6</ele>
        <time>2024-08-09T13:02:50Z</time>
      </trkpt>
      <trkpt lat="45.08235" lon="6.16146">
        <ele>1404.4</ele>
        <time>2024-08-09T13:02:51Z</time>
      </trkpt>
      <trkpt lat="45.08235" lon="6.16146">
        <ele>1404.4</ele>
        <time>2024-08-09T13:02:52Z</time>
      </trkpt>
      <trkpt lat="45.08234" lon="6.16149">
        <ele>1404.4</ele>
        <time>2024-08-09T13:02:53Z</time>
      </trkpt>
      <trkpt lat="45.08234" lon="6.16149">
        <ele>1404.2</ele>
        <time>2024-08-09T13:02:54Z</time>
      </trkpt>
      <trkpt lat="45.08234" lon="6.16149">
        <ele>1404.2</ele>
        <time>2024-08-09T13:02:55Z</time>
      </trkpt>
      <trkpt lat="45.08235" lon="6.16152">
        <ele>1404</ele>
        <time>2024-08-09T13:02:56Z</time>
      </trkpt>
      <trkpt lat="45.08235" lon="6.16152">
        <ele>1404</ele>
        <time>2024-08-09T13:02:57Z</time>
      </trkpt>
      <trkpt lat="45.08235" lon="6.16152">
        <ele>1404</ele>
        <time>2024-08-09T13:02:58Z</time>
      </trkpt>
      <trkpt lat="45.08235" lon="6.16152">
        <ele>1404.2</ele>
        <time>2024-08-09T13:02:59Z</time>
      </trkpt>
      <trkpt lat="45.08235" lon="6.16152">
        <ele>1404.2</ele>
        <time>2024-08-09T13:03:00Z</time>
      </trkpt>
      <trkpt lat="45.08235" lon="6.16152">
        <ele>1404.2</ele>
        <time>2024-08-09T13:03:01Z</time>
      </trkpt>
      <trkpt lat="45.08234" lon="6.16154">
        <ele>1404</ele>
        <time>2024-08-09T13:03:02Z</time>
      </trkpt>
      <trkpt lat="45.08234" lon="6.16154">
        <ele>1404</ele>
        <time>2024-08-09T13:03:03Z</time>
      </trkpt>
      <trkpt lat="45.08234" lon="6.16154">
        <ele>1404</ele>
        <time>2024-08-09T13:03:04Z</time>
      </trkpt>
      <trkpt lat="45.08234" lon="6.16154">
        <ele>1404</ele>
        <time>2024-08-09T13:03:05Z</time>
      </trkpt>
      <trkpt lat="45.08234" lon="6.16154">
        <ele>1404</ele>
        <time>2024-08-09T13:03:06Z</time>
      </trkpt>
      <trkpt lat="45.08234" lon="6.16154">
        <ele>1404</ele>
        <time>2024-08-09T13:03:07Z</time>
      </trkpt>
      <trkpt lat="45.08234" lon="6.16154">
        <ele>1404</ele>
        <time>2024-08-09T13:03:08Z</time>
      </trkpt>
      <trkpt lat="45.08234" lon="6.16154">
        <ele>1404</ele>
        <time>2024-08-09T13:03:09Z</time>
      </trkpt>
      <trkpt lat="45.08234" lon="6.16154">
        <ele>1404</ele>
        <time>2024-08-09T13:03:10Z</time>
      </trkpt>
      <trkpt lat="45.08234" lon="6.16154">
        <ele>1404</ele>
        <time>2024-08-09T13:03:11Z</time>
      </trkpt>
      <trkpt lat="45.08231" lon="6.16154">
        <ele>1403.8</ele>
        <time>2024-08-09T13:03:12Z</time>
      </trkpt>
      <trkpt lat="45.08229" lon="6.16152">
        <ele>1403.8</ele>
        <time>2024-08-09T13:03:13Z</time>
      </trkpt>
      <trkpt lat="45.08228" lon="6.1615">
        <ele>1403.6</ele>
        <time>2024-08-09T13:03:14Z</time>
      </trkpt>
      <trkpt lat="45.08228" lon="6.1615">
        <ele>1403.6</ele>
        <time>2024-08-09T13:03:15Z</time>
      </trkpt>
      <trkpt lat="45.08226" lon="6.16146">
        <ele>1403.8</ele>
        <time>2024-08-09T13:03:16Z</time>
      </trkpt>
      <trkpt lat="45.08226" lon="6.16146">
        <ele>1403.8</ele>
        <time>2024-08-09T13:03:17Z</time>
      </trkpt>
      <trkpt lat="45.08226" lon="6.16146">
        <ele>1403.8</ele>
        <time>2024-08-09T13:03:18Z</time>
      </trkpt>
      <trkpt lat="45.08226" lon="6.16146">
        <ele>1403.4</ele>
        <time>2024-08-09T13:03:19Z</time>
      </trkpt>
      <trkpt lat="45.08226" lon="6.16146">
        <ele>1403.4</ele>
        <time>2024-08-09T13:03:20Z</time>
      </trkpt>
      <trkpt lat="45.08226" lon="6.16146">
        <ele>1403.8</ele>
        <time>2024-08-09T13:03:21Z</time>
      </trkpt>
      <trkpt lat="45.08226" lon="6.16146">
        <ele>1403.8</ele>
        <time>2024-08-09T13:03:22Z</time>
      </trkpt>
      <trkpt lat="45.08226" lon="6.16146">
        <ele>1403.8</ele>
        <time>2024-08-09T13:03:23Z</time>
      </trkpt>
      <trkpt lat="45.08226" lon="6.16146">
        <ele>1403.8</ele>
        <time>2024-08-09T13:03:24Z</time>
      </trkpt>
      <trkpt lat="45.08226" lon="6.16146">
        <ele>1403.8</ele>
        <time>2024-08-09T13:03:25Z</time>
      </trkpt>
      <trkpt lat="45.08226" lon="6.16146">
        <ele>1403.6</ele>
        <time>2024-08-09T13:03:26Z</time>
      </trkpt>
      <trkpt lat="45.08226" lon="6.16146">
        <ele>1403.8</ele>
        <time>2024-08-09T13:03:27Z</time>
      </trkpt>
      <trkpt lat="45.08226" lon="6.16146">
        <ele>1403.8</ele>
        <time>2024-08-09T13:03:28Z</time>
      </trkpt>
      <trkpt lat="45.08226" lon="6.16146">
        <ele>1403.6</ele>
        <time>2024-08-09T13:03:29Z</time>
      </trkpt>
      <trkpt lat="45.08226" lon="6.16146">
        <ele>1403.4</ele>
        <time>2024-08-09T13:03:30Z</time>
      </trkpt>
      <trkpt lat="45.08226" lon="6.16146">
        <ele>1403.4</ele>
        <time>2024-08-09T13:03:31Z</time>
      </trkpt>
      <trkpt lat="45.08226" lon="6.16146">
        <ele>1403.4</ele>
        <time>2024-08-09T13:03:32Z</time>
      </trkpt>
      <trkpt lat="45.08226" lon="6.16146">
        <ele>1403.2</ele>
        <time>2024-08-09T13:03:33Z</time>
      </trkpt>
      <trkpt lat="45.08226" lon="6.16146">
        <ele>1403.2</ele>
        <time>2024-08-09T13:03:34Z</time>
      </trkpt>
      <trkpt lat="45.08226" lon="6.16146">
        <ele>1403.2</ele>
        <time>2024-08-09T13:03:35Z</time>
      </trkpt>
      <trkpt lat="45.08227" lon="6.16144">
        <ele>1403.2</ele>
        <time>2024-08-09T13:03:36Z</time>
      </trkpt>
      <trkpt lat="45.08227" lon="6.16144">
        <ele>1403.2</ele>
        <time>2024-08-09T13:03:37Z</time>
      </trkpt>
      <trkpt lat="45.08226" lon="6.16141">
        <ele>1403.2</ele>
        <time>2024-08-09T13:03:38Z</time>
      </trkpt>
      <trkpt lat="45.08226" lon="6.16141">
        <ele>1403.4</ele>
        <time>2024-08-09T13:03:39Z</time>
      </trkpt>
      <trkpt lat="45.08224" lon="6.16137">
        <ele>1403.4</ele>
        <time>2024-08-09T13:03:40Z</time>
      </trkpt>
      <trkpt lat="45.08222" lon="6.16135">
        <ele>1403</ele>
        <time>2024-08-09T13:03:41Z</time>
      </trkpt>
      <trkpt lat="45.08221" lon="6.16133">
        <ele>1402.8</ele>
        <time>2024-08-09T13:03:42Z</time>
      </trkpt>
      <trkpt lat="45.08219" lon="6.16131">
        <ele>1402.8</ele>
        <time>2024-08-09T13:03:43Z</time>
      </trkpt>
      <trkpt lat="45.08218" lon="6.1613">
        <ele>1402.8</ele>
        <time>2024-08-09T13:03:44Z</time>
      </trkpt>
      <trkpt lat="45.08216" lon="6.16129">
        <ele>1402.8</ele>
        <time>2024-08-09T13:03:45Z</time>
      </trkpt>
      <trkpt lat="45.08216" lon="6.16129">
        <ele>1402.6</ele>
        <time>2024-08-09T13:03:46Z</time>
      </trkpt>
      <trkpt lat="45.08213" lon="6.16127">
        <ele>1402.6</ele>
        <time>2024-08-09T13:03:47Z</time>
      </trkpt>
      <trkpt lat="45.08213" lon="6.16127">
        <ele>1402.4</ele>
        <time>2024-08-09T13:03:48Z</time>
      </trkpt>
      <trkpt lat="45.08211" lon="6.16124">
        <ele>1402.4</ele>
        <time>2024-08-09T13:03:49Z</time>
      </trkpt>
      <trkpt lat="45.08211" lon="6.16124">
        <ele>1402</ele>
        <time>2024-08-09T13:03:50Z</time>
      </trkpt>
      <trkpt lat="45.08209" lon="6.16122">
        <ele>1402</ele>
        <time>2024-08-09T13:03:51Z</time>
      </trkpt>
      <trkpt lat="45.08209" lon="6.16122">
        <ele>1402.2</ele>
        <time>2024-08-09T13:03:52Z</time>
      </trkpt>
      <trkpt lat="45.08206" lon="6.1612">
        <ele>1402.2</ele>
        <time>2024-08-09T13:03:53Z</time>
      </trkpt>
      <trkpt lat="45.08206" lon="6.1612">
        <ele>1402.2</ele>
        <time>2024-08-09T13:03:54Z</time>
      </trkpt>
      <trkpt lat="45.08204" lon="6.16121">
        <ele>1402</ele>
        <time>2024-08-09T13:03:55Z</time>
      </trkpt>
      <trkpt lat="45.08204" lon="6.16121">
        <ele>1402</ele>
        <time>2024-08-09T13:03:56Z</time>
      </trkpt>
      <trkpt lat="45.08203" lon="6.16124">
        <ele>1402</ele>
        <time>2024-08-09T13:03:57Z</time>
      </trkpt>
      <trkpt lat="45.08203" lon="6.16124">
        <ele>1402</ele>
        <time>2024-08-09T13:03:58Z</time>
      </trkpt>
      <trkpt lat="45.08202" lon="6.16127">
        <ele>1401.6</ele>
        <time>2024-08-09T13:03:59Z</time>
      </trkpt>
      <trkpt lat="45.08202" lon="6.16127">
        <ele>1401.4</ele>
        <time>2024-08-09T13:04:00Z</time>
      </trkpt>
      <trkpt lat="45.082" lon="6.16131">
        <ele>1401</ele>
        <time>2024-08-09T13:04:01Z</time>
      </trkpt>
      <trkpt lat="45.082" lon="6.16131">
        <ele>1400.4</ele>
        <time>2024-08-09T13:04:02Z</time>
      </trkpt>
      <trkpt lat="45.08198" lon="6.16134">
        <ele>1400.4</ele>
        <time>2024-08-09T13:04:03Z</time>
      </trkpt>
      <trkpt lat="45.08198" lon="6.16134">
        <ele>1400</ele>
        <time>2024-08-09T13:04:04Z</time>
      </trkpt>
      <trkpt lat="45.08197" lon="6.16139">
        <ele>1399.4</ele>
        <time>2024-08-09T13:04:05Z</time>
      </trkpt>
      <trkpt lat="45.08197" lon="6.16139">
        <ele>1399.2</ele>
        <time>2024-08-09T13:04:06Z</time>
      </trkpt>
      <trkpt lat="45.08196" lon="6.16142">
        <ele>1398.8</ele>
        <time>2024-08-09T13:04:07Z</time>
      </trkpt>
      <trkpt lat="45.08196" lon="6.16142">
        <ele>1398.6</ele>
        <time>2024-08-09T13:04:08Z</time>
      </trkpt>
      <trkpt lat="45.08194" lon="6.16146">
        <ele>1398.4</ele>
        <time>2024-08-09T13:04:09Z</time>
      </trkpt>
      <trkpt lat="45.08194" lon="6.16146">
        <ele>1398.4</ele>
        <time>2024-08-09T13:04:10Z</time>
      </trkpt>
      <trkpt lat="45.08192" lon="6.1615">
        <ele>1398.2</ele>
        <time>2024-08-09T13:04:11Z</time>
      </trkpt>
      <trkpt lat="45.08192" lon="6.1615">
        <ele>1398</ele>
        <time>2024-08-09T13:04:12Z</time>
      </trkpt>
      <trkpt lat="45.08191" lon="6.16154">
        <ele>1398</ele>
        <time>2024-08-09T13:04:13Z</time>
      </trkpt>
      <trkpt lat="45.0819" lon="6.16156">
        <ele>1397.6</ele>
        <time>2024-08-09T13:04:14Z</time>
      </trkpt>
      <trkpt lat="45.0819" lon="6.16156">
        <ele>1397.4</ele>
        <time>2024-08-09T13:04:15Z</time>
      </trkpt>
      <trkpt lat="45.08188" lon="6.16159">
        <ele>1397</ele>
        <time>2024-08-09T13:04:16Z</time>
      </trkpt>
      <trkpt lat="45.08188" lon="6.16159">
        <ele>1397</ele>
        <time>2024-08-09T13:04:17Z</time>
      </trkpt>
      <trkpt lat="45.08186" lon="6.16162">
        <ele>1396.6</ele>
        <time>2024-08-09T13:04:18Z</time>
      </trkpt>
      <trkpt lat="45.08186" lon="6.16162">
        <ele>1396.4</ele>
        <time>2024-08-09T13:04:19Z</time>
      </trkpt>
      <trkpt lat="45.08184" lon="6.16163">
        <ele>1396.4</ele>
        <time>2024-08-09T13:04:20Z</time>
      </trkpt>
      <trkpt lat="45.08184" lon="6.16163">
        <ele>1396.2</ele>
        <time>2024-08-09T13:04:21Z</time>
      </trkpt>
      <trkpt lat="45.08181" lon="6.16162">
        <ele>1396</ele>
        <time>2024-08-09T13:04:22Z</time>
      </trkpt>
      <trkpt lat="45.08181" lon="6.16162">
        <ele>1396</ele>
        <time>2024-08-09T13:04:23Z</time>
      </trkpt>
      <trkpt lat="45.08179" lon="6.1616">
        <ele>1396</ele>
        <time>2024-08-09T13:04:24Z</time>
      </trkpt>
      <trkpt lat="45.08179" lon="6.1616">
        <ele>1396</ele>
        <time>2024-08-09T13:04:25Z</time>
      </trkpt>
      <trkpt lat="45.08177" lon="6.16158">
        <ele>1396</ele>
        <time>2024-08-09T13:04:26Z</time>
      </trkpt>
      <trkpt lat="45.08177" lon="6.16158">
        <ele>1395.6</ele>
        <time>2024-08-09T13:04:27Z</time>
      </trkpt>
      <trkpt lat="45.08174" lon="6.16157">
        <ele>1395.6</ele>
        <time>2024-08-09T13:04:28Z</time>
      </trkpt>
      <trkpt lat="45.08174" lon="6.16157">
        <ele>1395.6</ele>
        <time>2024-08-09T13:04:29Z</time>
      </trkpt>
      <trkpt lat="45.08172" lon="6.16156">
        <ele>1395.6</ele>
        <time>2024-08-09T13:04:30Z</time>
      </trkpt>
      <trkpt lat="45.08172" lon="6.16156">
        <ele>1395.6</ele>
        <time>2024-08-09T13:04:31Z</time>
      </trkpt>
      <trkpt lat="45.0817" lon="6.16156">
        <ele>1395.6</ele>
        <time>2024-08-09T13:04:32Z</time>
      </trkpt>
      <trkpt lat="45.0817" lon="6.16156">
        <ele>1395.4</ele>
        <time>2024-08-09T13:04:33Z</time>
      </trkpt>
      <trkpt lat="45.08167" lon="6.16159">
        <ele>1395.4</ele>
        <time>2024-08-09T13:04:34Z</time>
      </trkpt>
      <trkpt lat="45.08167" lon="6.16159">
        <ele>1395.2</ele>
        <time>2024-08-09T13:04:35Z</time>
      </trkpt>
      <trkpt lat="45.08165" lon="6.16161">
        <ele>1395.2</ele>
        <time>2024-08-09T13:04:36Z</time>
      </trkpt>
      <trkpt lat="45.08165" lon="6.16161">
        <ele>1395.4</ele>
        <time>2024-08-09T13:04:37Z</time>
      </trkpt>
      <trkpt lat="45.08163" lon="6.16164">
        <ele>1395.4</ele>
        <time>2024-08-09T13:04:38Z</time>
      </trkpt>
      <trkpt lat="45.08163" lon="6.16164">
        <ele>1395.2</ele>
        <time>2024-08-09T13:04:39Z</time>
      </trkpt>
      <trkpt lat="45.08161" lon="6.16167">
        <ele>1395.2</ele>
        <time>2024-08-09T13:04:40Z</time>
      </trkpt>
      <trkpt lat="45.08161" lon="6.16167">
        <ele>1395.2</ele>
        <time>2024-08-09T13:04:41Z</time>
      </trkpt>
      <trkpt lat="45.0816" lon="6.16171">
        <ele>1395.4</ele>
        <time>2024-08-09T13:04:42Z</time>
      </trkpt>
      <trkpt lat="45.0816" lon="6.16171">
        <ele>1395.4</ele>
        <time>2024-08-09T13:04:43Z</time>
      </trkpt>
      <trkpt lat="45.08158" lon="6.16175">
        <ele>1395.4</ele>
        <time>2024-08-09T13:04:44Z</time>
      </trkpt>
      <trkpt lat="45.08158" lon="6.16175">
        <ele>1395.2</ele>
        <time>2024-08-09T13:04:45Z</time>
      </trkpt>
      <trkpt lat="45.08156" lon="6.16178">
        <ele>1395.2</ele>
        <time>2024-08-09T13:04:46Z</time>
      </trkpt>
      <trkpt lat="45.08156" lon="6.16178">
        <ele>1395.2</ele>
        <time>2024-08-09T13:04:47Z</time>
      </trkpt>
      <trkpt lat="45.08156" lon="6.16178">
        <ele>1395</ele>
        <time>2024-08-09T13:04:48Z</time>
      </trkpt>
      <trkpt lat="45.08156" lon="6.16178">
        <ele>1395</ele>
        <time>2024-08-09T13:04:49Z</time>
      </trkpt>
      <trkpt lat="45.08156" lon="6.16178">
        <ele>1395.2</ele>
        <time>2024-08-09T13:04:50Z</time>
      </trkpt>
      <trkpt lat="45.08156" lon="6.16178">
        <ele>1395.4</ele>
        <time>2024-08-09T13:04:51Z</time>
      </trkpt>
      <trkpt lat="45.08156" lon="6.16178">
        <ele>1395.4</ele>
        <time>2024-08-09T13:04:52Z</time>
      </trkpt>
      <trkpt lat="45.08156" lon="6.16178">
        <ele>1395.4</ele>
        <time>2024-08-09T13:04:53Z</time>
      </trkpt>
      <trkpt lat="45.08156" lon="6.16178">
        <ele>1395.4</ele>
        <time>2024-08-09T13:04:54Z</time>
      </trkpt>
      <trkpt lat="45.08156" lon="6.16178">
        <ele>1395.6</ele>
        <time>2024-08-09T13:04:55Z</time>
      </trkpt>
      <trkpt lat="45.08156" lon="6.16178">
        <ele>1395.6</ele>
        <time>2024-08-09T13:04:56Z</time>
      </trkpt>
      <trkpt lat="45.08156" lon="6.16178">
        <ele>1395.6</ele>
        <time>2024-08-09T13:04:57Z</time>
      </trkpt>
      <trkpt lat="45.08156" lon="6.16178">
        <ele>1395.6</ele>
        <time>2024-08-09T13:04:58Z</time>
      </trkpt>
      <trkpt lat="45.08156" lon="6.16178">
        <ele>1395.6</ele>
        <time>2024-08-09T13:04:59Z</time>
      </trkpt>
      <trkpt lat="45.08156" lon="6.16178">
        <ele>1395.6</ele>
        <time>2024-08-09T13:05:00Z</time>
      </trkpt>
      <trkpt lat="45.08156" lon="6.16178">
        <ele>1395.6</ele>
        <time>2024-08-09T13:05:01Z</time>
      </trkpt>
      <trkpt lat="45.08156" lon="6.16178">
        <ele>1395.8</ele>
        <time>2024-08-09T13:05:02Z</time>
      </trkpt>
      <trkpt lat="45.08156" lon="6.16178">
        <ele>1395.8</ele>
        <time>2024-08-09T13:05:03Z</time>
      </trkpt>
      <trkpt lat="45.08156" lon="6.16178">
        <ele>1395.6</ele>
        <time>2024-08-09T13:05:04Z</time>
      </trkpt>
      <trkpt lat="45.08156" lon="6.16178">
        <ele>1395.6</ele>
        <time>2024-08-09T13:05:05Z</time>
      </trkpt>
      <trkpt lat="45.08156" lon="6.16178">
        <ele>1395.4</ele>
        <time>2024-08-09T13:05:06Z</time>
      </trkpt>
      <trkpt lat="45.08156" lon="6.16178">
        <ele>1395.4</ele>
        <time>2024-08-09T13:05:07Z</time>
      </trkpt>
      <trkpt lat="45.08156" lon="6.16178">
        <ele>1395.4</ele>
        <time>2024-08-09T13:05:08Z</time>
      </trkpt>
      <trkpt lat="45.08156" lon="6.16178">
        <ele>1395.6</ele>
        <time>2024-08-09T13:05:09Z</time>
      </trkpt>
      <trkpt lat="45.08156" lon="6.16178">
        <ele>1395.6</ele>
        <time>2024-08-09T13:05:10Z</time>
      </trkpt>
      <trkpt lat="45.08156" lon="6.16178">
        <ele>1395.6</ele>
        <time>2024-08-09T13:05:11Z</time>
      </trkpt>
      <trkpt lat="45.08156" lon="6.16178">
        <ele>1395.6</ele>
        <time>2024-08-09T13:05:12Z</time>
      </trkpt>
      <trkpt lat="45.08156" lon="6.16178">
        <ele>1395.6</ele>
        <time>2024-08-09T13:05:13Z</time>
      </trkpt>
      <trkpt lat="45.08156" lon="6.16178">
        <ele>1395.6</ele>
        <time>2024-08-09T13:05:14Z</time>
      </trkpt>
      <trkpt lat="45.08156" lon="6.16178">
        <ele>1395.8</ele>
        <time>2024-08-09T13:05:15Z</time>
      </trkpt>
      <trkpt lat="45.08156" lon="6.16178">
        <ele>1395.8</ele>
        <time>2024-08-09T13:05:16Z</time>
      </trkpt>
      <trkpt lat="45.08156" lon="6.16178">
        <ele>1396</ele>
        <time>2024-08-09T13:05:17Z</time>
      </trkpt>
      <trkpt lat="45.08156" lon="6.16178">
        <ele>1396</ele>
        <time>2024-08-09T13:05:18Z</time>
      </trkpt>
      <trkpt lat="45.08156" lon="6.16178">
        <ele>1396</ele>
        <time>2024-08-09T13:05:19Z</time>
      </trkpt>
      <trkpt lat="45.08156" lon="6.16178">
        <ele>1396</ele>
        <time>2024-08-09T13:05:20Z</time>
      </trkpt>
      <trkpt lat="45.08156" lon="6.16178">
        <ele>1396</ele>
        <time>2024-08-09T13:05:21Z</time>
      </trkpt>
      <trkpt lat="45.08155" lon="6.16179">
        <ele>1396</ele>
        <time>2024-08-09T13:05:22Z</time>
      </trkpt>
      <trkpt lat="45.08155" lon="6.16179">
        <ele>1396</ele>
        <time>2024-08-09T13:05:23Z</time>
      </trkpt>
      <trkpt lat="45.08155" lon="6.16176">
        <ele>1396</ele>
        <time>2024-08-09T13:05:24Z</time>
      </trkpt>
      <trkpt lat="45.08156" lon="6.16173">
        <ele>1395.8</ele>
        <time>2024-08-09T13:05:25Z</time>
      </trkpt>
      <trkpt lat="45.08157" lon="6.16169">
        <ele>1395.6</ele>
        <time>2024-08-09T13:05:26Z</time>
      </trkpt>
      <trkpt lat="45.08158" lon="6.16165">
        <ele>1395.6</ele>
        <time>2024-08-09T13:05:27Z</time>
      </trkpt>
      <trkpt lat="45.08159" lon="6.16164">
        <ele>1395.4</ele>
        <time>2024-08-09T13:05:28Z</time>
      </trkpt>
      <trkpt lat="45.0816" lon="6.16162">
        <ele>1395.6</ele>
        <time>2024-08-09T13:05:29Z</time>
      </trkpt>
      <trkpt lat="45.0816" lon="6.16162">
        <ele>1395.8</ele>
        <time>2024-08-09T13:05:30Z</time>
      </trkpt>
      <trkpt lat="45.08162" lon="6.16159">
        <ele>1396</ele>
        <time>2024-08-09T13:05:31Z</time>
      </trkpt>
      <trkpt lat="45.08162" lon="6.16159">
        <ele>1396.2</ele>
        <time>2024-08-09T13:05:32Z</time>
      </trkpt>
      <trkpt lat="45.08165" lon="6.16157">
        <ele>1396.2</ele>
        <time>2024-08-09T13:05:33Z</time>
      </trkpt>
      <trkpt lat="45.08165" lon="6.16157">
        <ele>1396.6</ele>
        <time>2024-08-09T13:05:34Z</time>
      </trkpt>
      <trkpt lat="45.08166" lon="6.16155">
        <ele>1396.6</ele>
        <time>2024-08-09T13:05:35Z</time>
      </trkpt>
      <trkpt lat="45.08166" lon="6.16155">
        <ele>1396.6</ele>
        <time>2024-08-09T13:05:36Z</time>
      </trkpt>
      <trkpt lat="45.08169" lon="6.16152">
        <ele>1396.6</ele>
        <time>2024-08-09T13:05:37Z</time>
      </trkpt>
      <trkpt lat="45.08169" lon="6.16152">
        <ele>1396.6</ele>
        <time>2024-08-09T13:05:38Z</time>
      </trkpt>
      <trkpt lat="45.08172" lon="6.16152">
        <ele>1396.6</ele>
        <time>2024-08-09T13:05:39Z</time>
      </trkpt>
      <trkpt lat="45.08172" lon="6.16152">
        <ele>1396.6</ele>
        <time>2024-08-09T13:05:40Z</time>
      </trkpt>
      <trkpt lat="45.08174" lon="6.16153">
        <ele>1396.6</ele>
        <time>2024-08-09T13:05:41Z</time>
      </trkpt>
      <trkpt lat="45.08174" lon="6.16153">
        <ele>1396.6</ele>
        <time>2024-08-09T13:05:42Z</time>
      </trkpt>
      <trkpt lat="45.08177" lon="6.16155">
        <ele>1396.6</ele>
        <time>2024-08-09T13:05:43Z</time>
      </trkpt>
      <trkpt lat="45.08177" lon="6.16155">
        <ele>1396.6</ele>
        <time>2024-08-09T13:05:44Z</time>
      </trkpt>
      <trkpt lat="45.08179" lon="6.16156">
        <ele>1396.8</ele>
        <time>2024-08-09T13:05:45Z</time>
      </trkpt>
      <trkpt lat="45.08179" lon="6.16156">
        <ele>1397</ele>
        <time>2024-08-09T13:05:46Z</time>
      </trkpt>
      <trkpt lat="45.08181" lon="6.16159">
        <ele>1397</ele>
        <time>2024-08-09T13:05:47Z</time>
      </trkpt>
      <trkpt lat="45.08181" lon="6.16159">
        <ele>1397</ele>
        <time>2024-08-09T13:05:48Z</time>
      </trkpt>
      <trkpt lat="45.08183" lon="6.1616">
        <ele>1397</ele>
        <time>2024-08-09T13:05:49Z</time>
      </trkpt>
      <trkpt lat="45.08183" lon="6.1616">
        <ele>1397</ele>
        <time>2024-08-09T13:05:50Z</time>
      </trkpt>
      <trkpt lat="45.08186" lon="6.1616">
        <ele>1397</ele>
        <time>2024-08-09T13:05:51Z</time>
      </trkpt>
      <trkpt lat="45.08186" lon="6.1616">
        <ele>1397</ele>
        <time>2024-08-09T13:05:52Z</time>
      </trkpt>
      <trkpt lat="45.08187" lon="6.16157">
        <ele>1397</ele>
        <time>2024-08-09T13:05:53Z</time>
      </trkpt>
      <trkpt lat="45.08187" lon="6.16157">
        <ele>1397.2</ele>
        <time>2024-08-09T13:05:54Z</time>
      </trkpt>
      <trkpt lat="45.08189" lon="6.16155">
        <ele>1397.6</ele>
        <time>2024-08-09T13:05:55Z</time>
      </trkpt>
      <trkpt lat="45.08189" lon="6.16155">
        <ele>1397.8</ele>
        <time>2024-08-09T13:05:56Z</time>
      </trkpt>
      <trkpt lat="45.0819" lon="6.16152">
        <ele>1397.8</ele>
        <time>2024-08-09T13:05:57Z</time>
      </trkpt>
      <trkpt lat="45.0819" lon="6.16152">
        <ele>1397.8</ele>
        <time>2024-08-09T13:05:58Z</time>
      </trkpt>
      <trkpt lat="45.08191" lon="6.16149">
        <ele>1397.8</ele>
        <time>2024-08-09T13:05:59Z</time>
      </trkpt>
      <trkpt lat="45.08191" lon="6.16149">
        <ele>1398.2</ele>
        <time>2024-08-09T13:06:00Z</time>
      </trkpt>
      <trkpt lat="45.08192" lon="6.16147">
        <ele>1398.4</ele>
        <time>2024-08-09T13:06:01Z</time>
      </trkpt>
      <trkpt lat="45.08192" lon="6.16147">
        <ele>1398.6</ele>
        <time>2024-08-09T13:06:02Z</time>
      </trkpt>
      <trkpt lat="45.08193" lon="6.16145">
        <ele>1398.6</ele>
        <time>2024-08-09T13:06:03Z</time>
      </trkpt>
      <trkpt lat="45.08193" lon="6.16145">
        <ele>1398.8</ele>
        <time>2024-08-09T13:06:04Z</time>
      </trkpt>
      <trkpt lat="45.08194" lon="6.16142">
        <ele>1398.8</ele>
        <time>2024-08-09T13:06:05Z</time>
      </trkpt>
      <trkpt lat="45.08194" lon="6.16142">
        <ele>1399.2</ele>
        <time>2024-08-09T13:06:06Z</time>
      </trkpt>
      <trkpt lat="45.08195" lon="6.16139">
        <ele>1399.4</ele>
        <time>2024-08-09T13:06:07Z</time>
      </trkpt>
      <trkpt lat="45.08195" lon="6.16139">
        <ele>1399.6</ele>
        <time>2024-08-09T13:06:08Z</time>
      </trkpt>
      <trkpt lat="45.08196" lon="6.16137">
        <ele>1399.6</ele>
        <time>2024-08-09T13:06:09Z</time>
      </trkpt>
      <trkpt lat="45.08196" lon="6.16137">
        <ele>1399.8</ele>
        <time>2024-08-09T13:06:10Z</time>
      </trkpt>
      <trkpt lat="45.08197" lon="6.16135">
        <ele>1399.8</ele>
        <time>2024-08-09T13:06:11Z</time>
      </trkpt>
      <trkpt lat="45.08197" lon="6.16135">
        <ele>1400</ele>
        <time>2024-08-09T13:06:12Z</time>
      </trkpt>
      <trkpt lat="45.08198" lon="6.16132">
        <ele>1400.2</ele>
        <time>2024-08-09T13:06:13Z</time>
      </trkpt>
      <trkpt lat="45.08198" lon="6.16132">
        <ele>1400.4</ele>
        <time>2024-08-09T13:06:14Z</time>
      </trkpt>
      <trkpt lat="45.08199" lon="6.1613">
        <ele>1400.4</ele>
        <time>2024-08-09T13:06:15Z</time>
      </trkpt>
      <trkpt lat="45.08199" lon="6.1613">
        <ele>1400.2</ele>
        <time>2024-08-09T13:06:16Z</time>
      </trkpt>
      <trkpt lat="45.08199" lon="6.1613">
        <ele>1400.4</ele>
        <time>2024-08-09T13:06:17Z</time>
      </trkpt>
      <trkpt lat="45.082" lon="6.16126">
        <ele>1400.8</ele>
        <time>2024-08-09T13:06:18Z</time>
      </trkpt>
      <trkpt lat="45.082" lon="6.16126">
        <ele>1401</ele>
        <time>2024-08-09T13:06:19Z</time>
      </trkpt>
      <trkpt lat="45.082" lon="6.16126">
        <ele>1401.2</ele>
        <time>2024-08-09T13:06:20Z</time>
      </trkpt>
      <trkpt lat="45.08201" lon="6.16125">
        <ele>1401.2</ele>
        <time>2024-08-09T13:06:21Z</time>
      </trkpt>
      <trkpt lat="45.08201" lon="6.16125">
        <ele>1401.2</ele>
        <time>2024-08-09T13:06:22Z</time>
      </trkpt>
      <trkpt lat="45.08201" lon="6.16125">
        <ele>1401.2</ele>
        <time>2024-08-09T13:06:23Z</time>
      </trkpt>
      <trkpt lat="45.08202" lon="6.16122">
        <ele>1401.4</ele>
        <time>2024-08-09T13:06:24Z</time>
      </trkpt>
      <trkpt lat="45.08202" lon="6.16122">
        <ele>1401.8</ele>
        <time>2024-08-09T13:06:25Z</time>
      </trkpt>
      <trkpt lat="45.08202" lon="6.16122">
        <ele>1402.2</ele>
        <time>2024-08-09T13:06:26Z</time>
      </trkpt>
      <trkpt lat="45.08202" lon="6.16122">
        <ele>1402.2</ele>
        <time>2024-08-09T13:06:27Z</time>
      </trkpt>
      <trkpt lat="45.08203" lon="6.1612">
        <ele>1402.4</ele>
        <time>2024-08-09T13:06:28Z</time>
      </trkpt>
      <trkpt lat="45.08203" lon="6.1612">
        <ele>1402.6</ele>
        <time>2024-08-09T13:06:29Z</time>
      </trkpt>
      <trkpt lat="45.08205" lon="6.16121">
        <ele>1402.8</ele>
        <time>2024-08-09T13:06:30Z</time>
      </trkpt>
      <trkpt lat="45.08205" lon="6.16121">
        <ele>1403.2</ele>
        <time>2024-08-09T13:06:31Z</time>
      </trkpt>
      <trkpt lat="45.08207" lon="6.16123">
        <ele>1403.4</ele>
        <time>2024-08-09T13:06:32Z</time>
      </trkpt>
      <trkpt lat="45.08207" lon="6.16123">
        <ele>1403.6</ele>
        <time>2024-08-09T13:06:33Z</time>
      </trkpt>
      <trkpt lat="45.08209" lon="6.16125">
        <ele>1403.4</ele>
        <time>2024-08-09T13:06:34Z</time>
      </trkpt>
      <trkpt lat="45.08209" lon="6.16125">
        <ele>1403.4</ele>
        <time>2024-08-09T13:06:35Z</time>
      </trkpt>
      <trkpt lat="45.08212" lon="6.16127">
        <ele>1403.4</ele>
        <time>2024-08-09T13:06:36Z</time>
      </trkpt>
      <trkpt lat="45.08212" lon="6.16127">
        <ele>1403.4</ele>
        <time>2024-08-09T13:06:37Z</time>
      </trkpt>
      <trkpt lat="45.08214" lon="6.16129">
        <ele>1403.6</ele>
        <time>2024-08-09T13:06:38Z</time>
      </trkpt>
      <trkpt lat="45.08214" lon="6.16129">
        <ele>1403.6</ele>
        <time>2024-08-09T13:06:39Z</time>
      </trkpt>
      <trkpt lat="45.08216" lon="6.16131">
        <ele>1403.6</ele>
        <time>2024-08-09T13:06:40Z</time>
      </trkpt>
      <trkpt lat="45.08216" lon="6.16131">
        <ele>1403.6</ele>
        <time>2024-08-09T13:06:41Z</time>
      </trkpt>
      <trkpt lat="45.08219" lon="6.16132">
        <ele>1403.6</ele>
        <time>2024-08-09T13:06:42Z</time>
      </trkpt>
      <trkpt lat="45.08219" lon="6.16132">
        <ele>1403.6</ele>
        <time>2024-08-09T13:06:43Z</time>
      </trkpt>
      <trkpt lat="45.08221" lon="6.16133">
        <ele>1403.6</ele>
        <time>2024-08-09T13:06:44Z</time>
      </trkpt>
      <trkpt lat="45.08221" lon="6.16133">
        <ele>1403.6</ele>
        <time>2024-08-09T13:06:45Z</time>
      </trkpt>
      <trkpt lat="45.08223" lon="6.16135">
        <ele>1403.6</ele>
        <time>2024-08-09T13:06:46Z</time>
      </trkpt>
      <trkpt lat="45.08223" lon="6.16135">
        <ele>1403.8</ele>
        <time>2024-08-09T13:06:47Z</time>
      </trkpt>
      <trkpt lat="45.08225" lon="6.16137">
        <ele>1403.8</ele>
        <time>2024-08-09T13:06:48Z</time>
      </trkpt>
      <trkpt lat="45.08225" lon="6.16137">
        <ele>1403.8</ele>
        <time>2024-08-09T13:06:49Z</time>
      </trkpt>
      <trkpt lat="45.08227" lon="6.16137">
        <ele>1403.8</ele>
        <time>2024-08-09T13:06:50Z</time>
      </trkpt>
      <trkpt lat="45.08227" lon="6.16137">
        <ele>1403.8</ele>
        <time>2024-08-09T13:06:51Z</time>
      </trkpt>
      <trkpt lat="45.0823" lon="6.16138">
        <ele>1404</ele>
        <time>2024-08-09T13:06:52Z</time>
      </trkpt>
      <trkpt lat="45.0823" lon="6.16138">
        <ele>1404.2</ele>
        <time>2024-08-09T13:06:53Z</time>
      </trkpt>
      <trkpt lat="45.08232" lon="6.16138">
        <ele>1404.2</ele>
        <time>2024-08-09T13:06:54Z</time>
      </trkpt>
      <trkpt lat="45.08232" lon="6.16138">
        <ele>1404.2</ele>
        <time>2024-08-09T13:06:55Z</time>
      </trkpt>
      <trkpt lat="45.08235" lon="6.16138">
        <ele>1404.2</ele>
        <time>2024-08-09T13:06:56Z</time>
      </trkpt>
      <trkpt lat="45.08235" lon="6.16138">
        <ele>1404.2</ele>
        <time>2024-08-09T13:06:57Z</time>
      </trkpt>
      <trkpt lat="45.08237" lon="6.16137">
        <ele>1404.2</ele>
        <time>2024-08-09T13:06:58Z</time>
      </trkpt>
      <trkpt lat="45.08237" lon="6.16137">
        <ele>1404.2</ele>
        <time>2024-08-09T13:06:59Z</time>
      </trkpt>
      <trkpt lat="45.08239" lon="6.16135">
        <ele>1404.4</ele>
        <time>2024-08-09T13:07:00Z</time>
      </trkpt>
      <trkpt lat="45.08239" lon="6.16135">
        <ele>1404.8</ele>
        <time>2024-08-09T13:07:01Z</time>
      </trkpt>
      <trkpt lat="45.08239" lon="6.16132">
        <ele>1405.2</ele>
        <time>2024-08-09T13:07:02Z</time>
      </trkpt>
      <trkpt lat="45.08239" lon="6.16132">
        <ele>1405.2</ele>
        <time>2024-08-09T13:07:03Z</time>
      </trkpt>
      <trkpt lat="45.08238" lon="6.16128">
        <ele>1405.2</ele>
        <time>2024-08-09T13:07:04Z</time>
      </trkpt>
      <trkpt lat="45.08238" lon="6.16128">
        <ele>1405</ele>
        <time>2024-08-09T13:07:05Z</time>
      </trkpt>
      <trkpt lat="45.08236" lon="6.16126">
        <ele>1405.2</ele>
        <time>2024-08-09T13:07:06Z</time>
      </trkpt>
      <trkpt lat="45.08236" lon="6.16126">
        <ele>1405.2</ele>
        <time>2024-08-09T13:07:07Z</time>
      </trkpt>
      <trkpt lat="45.08234" lon="6.16124">
        <ele>1405.2</ele>
        <time>2024-08-09T13:07:08Z</time>
      </trkpt>
      <trkpt lat="45.08234" lon="6.16124">
        <ele>1405.2</ele>
        <time>2024-08-09T13:07:09Z</time>
      </trkpt>
      <trkpt lat="45.08232" lon="6.16123">
        <ele>1405.2</ele>
        <time>2024-08-09T13:07:10Z</time>
      </trkpt>
      <trkpt lat="45.08232" lon="6.16123">
        <ele>1405.4</ele>
        <time>2024-08-09T13:07:11Z</time>
      </trkpt>
      <trkpt lat="45.08229" lon="6.16122">
        <ele>1405.4</ele>
        <time>2024-08-09T13:07:12Z</time>
      </trkpt>
      <trkpt lat="45.08229" lon="6.16122">
        <ele>1405.6</ele>
        <time>2024-08-09T13:07:13Z</time>
      </trkpt>
      <trkpt lat="45.08227" lon="6.16122">
        <ele>1405.6</ele>
        <time>2024-08-09T13:07:14Z</time>
      </trkpt>
      <trkpt lat="45.08227" lon="6.16122">
        <ele>1405.8</ele>
        <time>2024-08-09T13:07:15Z</time>
      </trkpt>
      <trkpt lat="45.08225" lon="6.1612">
        <ele>1406</ele>
        <time>2024-08-09T13:07:16Z</time>
      </trkpt>
      <trkpt lat="45.08225" lon="6.1612">
        <ele>1406</ele>
        <time>2024-08-09T13:07:17Z</time>
      </trkpt>
      <trkpt lat="45.08222" lon="6.1612">
        <ele>1406.2</ele>
        <time>2024-08-09T13:07:18Z</time>
      </trkpt>
      <trkpt lat="45.08222" lon="6.1612">
        <ele>1406.6</ele>
        <time>2024-08-09T13:07:19Z</time>
      </trkpt>
      <trkpt lat="45.0822" lon="6.16119">
        <ele>1407</ele>
        <time>2024-08-09T13:07:20Z</time>
      </trkpt>
      <trkpt lat="45.0822" lon="6.16119">
        <ele>1407</ele>
        <time>2024-08-09T13:07:21Z</time>
      </trkpt>
      <trkpt lat="45.08216" lon="6.16118">
        <ele>1407.2</ele>
        <time>2024-08-09T13:07:22Z</time>
      </trkpt>
      <trkpt lat="45.08216" lon="6.16118">
        <ele>1407.2</ele>
        <time>2024-08-09T13:07:23Z</time>
      </trkpt>
      <trkpt lat="45.08214" lon="6.16115">
        <ele>1407</ele>
        <time>2024-08-09T13:07:24Z</time>
      </trkpt>
      <trkpt lat="45.08214" lon="6.16115">
        <ele>1407</ele>
        <time>2024-08-09T13:07:25Z</time>
      </trkpt>
      <trkpt lat="45.08212" lon="6.16113">
        <ele>1407.2</ele>
        <time>2024-08-09T13:07:26Z</time>
      </trkpt>
      <trkpt lat="45.08212" lon="6.16113">
        <ele>1407.6</ele>
        <time>2024-08-09T13:07:27Z</time>
      </trkpt>
      <trkpt lat="45.0821" lon="6.16111">
        <ele>1407.6</ele>
        <time>2024-08-09T13:07:28Z</time>
      </trkpt>
      <trkpt lat="45.0821" lon="6.16111">
        <ele>1407.8</ele>
        <time>2024-08-09T13:07:29Z</time>
      </trkpt>
      <trkpt lat="45.08208" lon="6.16108">
        <ele>1407.8</ele>
        <time>2024-08-09T13:07:30Z</time>
      </trkpt>
      <trkpt lat="45.08208" lon="6.16108">
        <ele>1407.8</ele>
        <time>2024-08-09T13:07:31Z</time>
      </trkpt>
      <trkpt lat="45.08206" lon="6.16105">
        <ele>1408</ele>
        <time>2024-08-09T13:07:32Z</time>
      </trkpt>
      <trkpt lat="45.08206" lon="6.16105">
        <ele>1408</ele>
        <time>2024-08-09T13:07:33Z</time>
      </trkpt>
      <trkpt lat="45.08204" lon="6.16102">
        <ele>1408.2</ele>
        <time>2024-08-09T13:07:34Z</time>
      </trkpt>
      <trkpt lat="45.08204" lon="6.16102">
        <ele>1408.2</ele>
        <time>2024-08-09T13:07:35Z</time>
      </trkpt>
      <trkpt lat="45.08202" lon="6.16099">
        <ele>1408.4</ele>
        <time>2024-08-09T13:07:36Z</time>
      </trkpt>
      <trkpt lat="45.08202" lon="6.16099">
        <ele>1408.4</ele>
        <time>2024-08-09T13:07:37Z</time>
      </trkpt>
      <trkpt lat="45.082" lon="6.16097">
        <ele>1408.4</ele>
        <time>2024-08-09T13:07:38Z</time>
      </trkpt>
      <trkpt lat="45.082" lon="6.16097">
        <ele>1408.4</ele>
        <time>2024-08-09T13:07:39Z</time>
      </trkpt>
      <trkpt lat="45.08198" lon="6.16095">
        <ele>1408.6</ele>
        <time>2024-08-09T13:07:40Z</time>
      </trkpt>
      <trkpt lat="45.08198" lon="6.16095">
        <ele>1408.6</ele>
        <time>2024-08-09T13:07:41Z</time>
      </trkpt>
      <trkpt lat="45.08196" lon="6.16093">
        <ele>1408.6</ele>
        <time>2024-08-09T13:07:42Z</time>
      </trkpt>
      <trkpt lat="45.08196" lon="6.16093">
        <ele>1408.6</ele>
        <time>2024-08-09T13:07:43Z</time>
      </trkpt>
      <trkpt lat="45.08194" lon="6.16091">
        <ele>1408.8</ele>
        <time>2024-08-09T13:07:44Z</time>
      </trkpt>
      <trkpt lat="45.08194" lon="6.16091">
        <ele>1409</ele>
        <time>2024-08-09T13:07:45Z</time>
      </trkpt>
      <trkpt lat="45.08192" lon="6.16088">
        <ele>1409</ele>
        <time>2024-08-09T13:07:46Z</time>
      </trkpt>
      <trkpt lat="45.08192" lon="6.16088">
        <ele>1409</ele>
        <time>2024-08-09T13:07:47Z</time>
      </trkpt>
      <trkpt lat="45.08189" lon="6.16086">
        <ele>1409</ele>
        <time>2024-08-09T13:07:48Z</time>
      </trkpt>
      <trkpt lat="45.08189" lon="6.16086">
        <ele>1409</ele>
        <time>2024-08-09T13:07:49Z</time>
      </trkpt>
      <trkpt lat="45.08188" lon="6.16083">
        <ele>1409.2</ele>
        <time>2024-08-09T13:07:50Z</time>
      </trkpt>
      <trkpt lat="45.08188" lon="6.16083">
        <ele>1409.4</ele>
        <time>2024-08-09T13:07:51Z</time>
      </trkpt>
      <trkpt lat="45.08186" lon="6.1608">
        <ele>1409.4</ele>
        <time>2024-08-09T13:07:52Z</time>
      </trkpt>
      <trkpt lat="45.08186" lon="6.1608">
        <ele>1409.4</ele>
        <time>2024-08-09T13:07:53Z</time>
      </trkpt>
      <trkpt lat="45.08184" lon="6.16077">
        <ele>1409.4</ele>
        <time>2024-08-09T13:07:54Z</time>
      </trkpt>
      <trkpt lat="45.08184" lon="6.16077">
        <ele>1409.4</ele>
        <time>2024-08-09T13:07:55Z</time>
      </trkpt>
      <trkpt lat="45.08182" lon="6.16073">
        <ele>1409.6</ele>
        <time>2024-08-09T13:07:56Z</time>
      </trkpt>
      <trkpt lat="45.08182" lon="6.16073">
        <ele>1410</ele>
        <time>2024-08-09T13:07:57Z</time>
      </trkpt>
      <trkpt lat="45.08181" lon="6.1607">
        <ele>1410</ele>
        <time>2024-08-09T13:07:58Z</time>
      </trkpt>
      <trkpt lat="45.08181" lon="6.1607">
        <ele>1410</ele>
        <time>2024-08-09T13:07:59Z</time>
      </trkpt>
      <trkpt lat="45.08179" lon="6.16067">
        <ele>1410</ele>
        <time>2024-08-09T13:08:00Z</time>
      </trkpt>
      <trkpt lat="45.08179" lon="6.16067">
        <ele>1410</ele>
        <time>2024-08-09T13:08:01Z</time>
      </trkpt>
      <trkpt lat="45.08178" lon="6.16064">
        <ele>1410.2</ele>
        <time>2024-08-09T13:08:02Z</time>
      </trkpt>
      <trkpt lat="45.08178" lon="6.16064">
        <ele>1410.2</ele>
        <time>2024-08-09T13:08:03Z</time>
      </trkpt>
      <trkpt lat="45.08176" lon="6.16061">
        <ele>1410.4</ele>
        <time>2024-08-09T13:08:04Z</time>
      </trkpt>
      <trkpt lat="45.08176" lon="6.16061">
        <ele>1410.4</ele>
        <time>2024-08-09T13:08:05Z</time>
      </trkpt>
      <trkpt lat="45.08174" lon="6.16058">
        <ele>1410.6</ele>
        <time>2024-08-09T13:08:06Z</time>
      </trkpt>
      <trkpt lat="45.08174" lon="6.16058">
        <ele>1410.6</ele>
        <time>2024-08-09T13:08:07Z</time>
      </trkpt>
      <trkpt lat="45.08173" lon="6.16055">
        <ele>1410.8</ele>
        <time>2024-08-09T13:08:08Z</time>
      </trkpt>
      <trkpt lat="45.08173" lon="6.16055">
        <ele>1410.6</ele>
        <time>2024-08-09T13:08:09Z</time>
      </trkpt>
      <trkpt lat="45.08171" lon="6.16053">
        <ele>1411</ele>
        <time>2024-08-09T13:08:10Z</time>
      </trkpt>
      <trkpt lat="45.08171" lon="6.16053">
        <ele>1411</ele>
        <time>2024-08-09T13:08:11Z</time>
      </trkpt>
      <trkpt lat="45.08169" lon="6.1605">
        <ele>1411</ele>
        <time>2024-08-09T13:08:12Z</time>
      </trkpt>
      <trkpt lat="45.08169" lon="6.1605">
        <ele>1411</ele>
        <time>2024-08-09T13:08:13Z</time>
      </trkpt>
      <trkpt lat="45.08168" lon="6.16046">
        <ele>1411</ele>
        <time>2024-08-09T13:08:14Z</time>
      </trkpt>
      <trkpt lat="45.08168" lon="6.16046">
        <ele>1411.2</ele>
        <time>2024-08-09T13:08:15Z</time>
      </trkpt>
      <trkpt lat="45.08167" lon="6.16042">
        <ele>1411.4</ele>
        <time>2024-08-09T13:08:16Z</time>
      </trkpt>
      <trkpt lat="45.08167" lon="6.16042">
        <ele>1411.4</ele>
        <time>2024-08-09T13:08:17Z</time>
      </trkpt>
      <trkpt lat="45.08165" lon="6.16039">
        <ele>1411.6</ele>
        <time>2024-08-09T13:08:18Z</time>
      </trkpt>
      <trkpt lat="45.08165" lon="6.16039">
        <ele>1411.8</ele>
        <time>2024-08-09T13:08:19Z</time>
      </trkpt>
      <trkpt lat="45.08165" lon="6.16036">
        <ele>1411.6</ele>
        <time>2024-08-09T13:08:20Z</time>
      </trkpt>
      <trkpt lat="45.08165" lon="6.16036">
        <ele>1411.6</ele>
        <time>2024-08-09T13:08:21Z</time>
      </trkpt>
      <trkpt lat="45.08163" lon="6.16032">
        <ele>1411.8</ele>
        <time>2024-08-09T13:08:22Z</time>
      </trkpt>
      <trkpt lat="45.08163" lon="6.16032">
        <ele>1412</ele>
        <time>2024-08-09T13:08:23Z</time>
      </trkpt>
      <trkpt lat="45.08162" lon="6.16029">
        <ele>1412.2</ele>
        <time>2024-08-09T13:08:24Z</time>
      </trkpt>
      <trkpt lat="45.08162" lon="6.16029">
        <ele>1412.6</ele>
        <time>2024-08-09T13:08:25Z</time>
      </trkpt>
      <trkpt lat="45.0816" lon="6.16026">
        <ele>1412.6</ele>
        <time>2024-08-09T13:08:26Z</time>
      </trkpt>
      <trkpt lat="45.0816" lon="6.16026">
        <ele>1412.6</ele>
        <time>2024-08-09T13:08:27Z</time>
      </trkpt>
      <trkpt lat="45.0816" lon="6.16022">
        <ele>1412.8</ele>
        <time>2024-08-09T13:08:28Z</time>
      </trkpt>
      <trkpt lat="45.0816" lon="6.16022">
        <ele>1412.8</ele>
        <time>2024-08-09T13:08:29Z</time>
      </trkpt>
      <trkpt lat="45.08159" lon="6.16018">
        <ele>1412.8</ele>
        <time>2024-08-09T13:08:30Z</time>
      </trkpt>
      <trkpt lat="45.08159" lon="6.16018">
        <ele>1413</ele>
        <time>2024-08-09T13:08:31Z</time>
      </trkpt>
      <trkpt lat="45.08158" lon="6.16014">
        <ele>1413</ele>
        <time>2024-08-09T13:08:32Z</time>
      </trkpt>
      <trkpt lat="45.08158" lon="6.16014">
        <ele>1413</ele>
        <time>2024-08-09T13:08:33Z</time>
      </trkpt>
      <trkpt lat="45.08157" lon="6.16011">
        <ele>1413.2</ele>
        <time>2024-08-09T13:08:34Z</time>
      </trkpt>
      <trkpt lat="45.08157" lon="6.16011">
        <ele>1413.2</ele>
        <time>2024-08-09T13:08:35Z</time>
      </trkpt>
      <trkpt lat="45.08156" lon="6.16007">
        <ele>1413.2</ele>
        <time>2024-08-09T13:08:36Z</time>
      </trkpt>
      <trkpt lat="45.08156" lon="6.16007">
        <ele>1413.4</ele>
        <time>2024-08-09T13:08:37Z</time>
      </trkpt>
      <trkpt lat="45.08155" lon="6.16004">
        <ele>1413.4</ele>
        <time>2024-08-09T13:08:38Z</time>
      </trkpt>
      <trkpt lat="45.08155" lon="6.16004">
        <ele>1413.2</ele>
        <time>2024-08-09T13:08:39Z</time>
      </trkpt>
      <trkpt lat="45.08154" lon="6.16001">
        <ele>1413.4</ele>
        <time>2024-08-09T13:08:40Z</time>
      </trkpt>
      <trkpt lat="45.08154" lon="6.16001">
        <ele>1413.4</ele>
        <time>2024-08-09T13:08:41Z</time>
      </trkpt>
      <trkpt lat="45.08152" lon="6.15998">
        <ele>1413.4</ele>
        <time>2024-08-09T13:08:42Z</time>
      </trkpt>
      <trkpt lat="45.08152" lon="6.15998">
        <ele>1413.8</ele>
        <time>2024-08-09T13:08:43Z</time>
      </trkpt>
      <trkpt lat="45.08151" lon="6.15995">
        <ele>1413.8</ele>
        <time>2024-08-09T13:08:44Z</time>
      </trkpt>
      <trkpt lat="45.08151" lon="6.15995">
        <ele>1413.8</ele>
        <time>2024-08-09T13:08:45Z</time>
      </trkpt>
      <trkpt lat="45.0815" lon="6.15991">
        <ele>1414</ele>
        <time>2024-08-09T13:08:46Z</time>
      </trkpt>
      <trkpt lat="45.0815" lon="6.15991">
        <ele>1414</ele>
        <time>2024-08-09T13:08:47Z</time>
      </trkpt>
      <trkpt lat="45.08148" lon="6.15988">
        <ele>1413.8</ele>
        <time>2024-08-09T13:08:48Z</time>
      </trkpt>
      <trkpt lat="45.08148" lon="6.15988">
        <ele>1414.2</ele>
        <time>2024-08-09T13:08:49Z</time>
      </trkpt>
      <trkpt lat="45.08147" lon="6.15984">
        <ele>1414.4</ele>
        <time>2024-08-09T13:08:50Z</time>
      </trkpt>
      <trkpt lat="45.08147" lon="6.15984">
        <ele>1414.6</ele>
        <time>2024-08-09T13:08:51Z</time>
      </trkpt>
      <trkpt lat="45.08146" lon="6.1598">
        <ele>1414.8</ele>
        <time>2024-08-09T13:08:52Z</time>
      </trkpt>
      <trkpt lat="45.08146" lon="6.1598">
        <ele>1414.8</ele>
        <time>2024-08-09T13:08:53Z</time>
      </trkpt>
      <trkpt lat="45.08144" lon="6.15978">
        <ele>1415</ele>
        <time>2024-08-09T13:08:54Z</time>
      </trkpt>
      <trkpt lat="45.08144" lon="6.15978">
        <ele>1415</ele>
        <time>2024-08-09T13:08:55Z</time>
      </trkpt>
      <trkpt lat="45.08142" lon="6.15975">
        <ele>1415</ele>
        <time>2024-08-09T13:08:56Z</time>
      </trkpt>
      <trkpt lat="45.08142" lon="6.15975">
        <ele>1414.8</ele>
        <time>2024-08-09T13:08:57Z</time>
      </trkpt>
      <trkpt lat="45.0814" lon="6.15973">
        <ele>1414.8</ele>
        <time>2024-08-09T13:08:58Z</time>
      </trkpt>
      <trkpt lat="45.0814" lon="6.15973">
        <ele>1415</ele>
        <time>2024-08-09T13:08:59Z</time>
      </trkpt>
      <trkpt lat="45.08138" lon="6.15971">
        <ele>1415</ele>
        <time>2024-08-09T13:09:00Z</time>
      </trkpt>
      <trkpt lat="45.08138" lon="6.15971">
        <ele>1415.2</ele>
        <time>2024-08-09T13:09:01Z</time>
      </trkpt>
      <trkpt lat="45.08136" lon="6.15968">
        <ele>1415.4</ele>
        <time>2024-08-09T13:09:02Z</time>
      </trkpt>
      <trkpt lat="45.08136" lon="6.15968">
        <ele>1415.4</ele>
        <time>2024-08-09T13:09:03Z</time>
      </trkpt>
      <trkpt lat="45.08134" lon="6.15966">
        <ele>1415.6</ele>
        <time>2024-08-09T13:09:04Z</time>
      </trkpt>
      <trkpt lat="45.08134" lon="6.15966">
        <ele>1415.6</ele>
        <time>2024-08-09T13:09:05Z</time>
      </trkpt>
      <trkpt lat="45.08132" lon="6.15964">
        <ele>1415.6</ele>
        <time>2024-08-09T13:09:06Z</time>
      </trkpt>
      <trkpt lat="45.08132" lon="6.15964">
        <ele>1416</ele>
        <time>2024-08-09T13:09:07Z</time>
      </trkpt>
      <trkpt lat="45.0813" lon="6.15961">
        <ele>1416</ele>
        <time>2024-08-09T13:09:08Z</time>
      </trkpt>
      <trkpt lat="45.0813" lon="6.15961">
        <ele>1416</ele>
        <time>2024-08-09T13:09:09Z</time>
      </trkpt>
      <trkpt lat="45.08129" lon="6.15956">
        <ele>1416.2</ele>
        <time>2024-08-09T13:09:10Z</time>
      </trkpt>
      <trkpt lat="45.08129" lon="6.15956">
        <ele>1416.4</ele>
        <time>2024-08-09T13:09:11Z</time>
      </trkpt>
      <trkpt lat="45.08127" lon="6.15954">
        <ele>1416.6</ele>
        <time>2024-08-09T13:09:12Z</time>
      </trkpt>
      <trkpt lat="45.08127" lon="6.15954">
        <ele>1416.6</ele>
        <time>2024-08-09T13:09:13Z</time>
      </trkpt>
      <trkpt lat="45.08125" lon="6.15952">
        <ele>1416.6</ele>
        <time>2024-08-09T13:09:14Z</time>
      </trkpt>
      <trkpt lat="45.08125" lon="6.15952">
        <ele>1416.6</ele>
        <time>2024-08-09T13:09:15Z</time>
      </trkpt>
      <trkpt lat="45.08123" lon="6.1595">
        <ele>1416.6</ele>
        <time>2024-08-09T13:09:16Z</time>
      </trkpt>
      <trkpt lat="45.08123" lon="6.1595">
        <ele>1416.6</ele>
        <time>2024-08-09T13:09:17Z</time>
      </trkpt>
      <trkpt lat="45.08121" lon="6.15948">
        <ele>1416.4</ele>
        <time>2024-08-09T13:09:18Z</time>
      </trkpt>
      <trkpt lat="45.08121" lon="6.15948">
        <ele>1416.2</ele>
        <time>2024-08-09T13:09:19Z</time>
      </trkpt>
      <trkpt lat="45.08121" lon="6.15948">
        <ele>1416.2</ele>
        <time>2024-08-09T13:09:20Z</time>
      </trkpt>
      <trkpt lat="45.08118" lon="6.15945">
        <ele>1416.2</ele>
        <time>2024-08-09T13:09:21Z</time>
      </trkpt>
      <trkpt lat="45.08118" lon="6.15945">
        <ele>1416.4</ele>
        <time>2024-08-09T13:09:22Z</time>
      </trkpt>
      <trkpt lat="45.08117" lon="6.15943">
        <ele>1416.4</ele>
        <time>2024-08-09T13:09:23Z</time>
      </trkpt>
      <trkpt lat="45.08117" lon="6.15943">
        <ele>1416.4</ele>
        <time>2024-08-09T13:09:24Z</time>
      </trkpt>
      <trkpt lat="45.08115" lon="6.15941">
        <ele>1416.4</ele>
        <time>2024-08-09T13:09:25Z</time>
      </trkpt>
      <trkpt lat="45.08115" lon="6.15941">
        <ele>1416.8</ele>
        <time>2024-08-09T13:09:26Z</time>
      </trkpt>
      <trkpt lat="45.08113" lon="6.1594">
        <ele>1416.8</ele>
        <time>2024-08-09T13:09:27Z</time>
      </trkpt>
      <trkpt lat="45.08111" lon="6.15941">
        <ele>1416.8</ele>
        <time>2024-08-09T13:09:28Z</time>
      </trkpt>
      <trkpt lat="45.08111" lon="6.15941">
        <ele>1416.8</ele>
        <time>2024-08-09T13:09:29Z</time>
      </trkpt>
      <trkpt lat="45.08111" lon="6.15941">
        <ele>1416.6</ele>
        <time>2024-08-09T13:09:30Z</time>
      </trkpt>
      <trkpt lat="45.08109" lon="6.15939">
        <ele>1416.6</ele>
        <time>2024-08-09T13:09:31Z</time>
      </trkpt>
      <trkpt lat="45.08107" lon="6.15939">
        <ele>1416.6</ele>
        <time>2024-08-09T13:09:32Z</time>
      </trkpt>
      <trkpt lat="45.08107" lon="6.15939">
        <ele>1416.6</ele>
        <time>2024-08-09T13:09:33Z</time>
      </trkpt>
      <trkpt lat="45.08104" lon="6.15939">
        <ele>1416.6</ele>
        <time>2024-08-09T13:09:34Z</time>
      </trkpt>
      <trkpt lat="45.08104" lon="6.15939">
        <ele>1416.6</ele>
        <time>2024-08-09T13:09:35Z</time>
      </trkpt>
      <trkpt lat="45.08102" lon="6.15936">
        <ele>1416.8</ele>
        <time>2024-08-09T13:09:36Z</time>
      </trkpt>
      <trkpt lat="45.081" lon="6.15936">
        <ele>1417</ele>
        <time>2024-08-09T13:09:37Z</time>
      </trkpt>
      <trkpt lat="45.081" lon="6.15936">
        <ele>1417</ele>
        <time>2024-08-09T13:09:38Z</time>
      </trkpt>
      <trkpt lat="45.081" lon="6.15936">
        <ele>1417</ele>
        <time>2024-08-09T13:09:39Z</time>
      </trkpt>
      <trkpt lat="45.081" lon="6.15936">
        <ele>1417.2</ele>
        <time>2024-08-09T13:09:40Z</time>
      </trkpt>
      <trkpt lat="45.08098" lon="6.15934">
        <ele>1417.4</ele>
        <time>2024-08-09T13:09:41Z</time>
      </trkpt>
      <trkpt lat="45.08098" lon="6.15934">
        <ele>1417.6</ele>
        <time>2024-08-09T13:09:42Z</time>
      </trkpt>
      <trkpt lat="45.08095" lon="6.15933">
        <ele>1417.6</ele>
        <time>2024-08-09T13:09:43Z</time>
      </trkpt>
      <trkpt lat="45.08095" lon="6.15933">
        <ele>1417.8</ele>
        <time>2024-08-09T13:09:44Z</time>
      </trkpt>
      <trkpt lat="45.08092" lon="6.15933">
        <ele>1418.2</ele>
        <time>2024-08-09T13:09:45Z</time>
      </trkpt>
      <trkpt lat="45.0809" lon="6.15931">
        <ele>1418</ele>
        <time>2024-08-09T13:09:46Z</time>
      </trkpt>
      <trkpt lat="45.0809" lon="6.15931">
        <ele>1418</ele>
        <time>2024-08-09T13:09:47Z</time>
      </trkpt>
      <trkpt lat="45.08088" lon="6.15929">
        <ele>1418</ele>
        <time>2024-08-09T13:09:48Z</time>
      </trkpt>
      <trkpt lat="45.08088" lon="6.15929">
        <ele>1418</ele>
        <time>2024-08-09T13:09:49Z</time>
      </trkpt>
      <trkpt lat="45.08087" lon="6.15925">
        <ele>1418</ele>
        <time>2024-08-09T13:09:50Z</time>
      </trkpt>
      <trkpt lat="45.08087" lon="6.15925">
        <ele>1418</ele>
        <time>2024-08-09T13:09:51Z</time>
      </trkpt>
      <trkpt lat="45.08085" lon="6.15924">
        <ele>1418</ele>
        <time>2024-08-09T13:09:52Z</time>
      </trkpt>
      <trkpt lat="45.08082" lon="6.15924">
        <ele>1418.2</ele>
        <time>2024-08-09T13:09:53Z</time>
      </trkpt>
      <trkpt lat="45.08082" lon="6.15924">
        <ele>1418.4</ele>
        <time>2024-08-09T13:09:54Z</time>
      </trkpt>
      <trkpt lat="45.0808" lon="6.15922">
        <ele>1418.4</ele>
        <time>2024-08-09T13:09:55Z</time>
      </trkpt>
      <trkpt lat="45.08078" lon="6.15921">
        <ele>1418.6</ele>
        <time>2024-08-09T13:09:56Z</time>
      </trkpt>
      <trkpt lat="45.08076" lon="6.15919">
        <ele>1418.6</ele>
        <time>2024-08-09T13:09:57Z</time>
      </trkpt>
      <trkpt lat="45.08076" lon="6.15919">
        <ele>1418.8</ele>
        <time>2024-08-09T13:09:58Z</time>
      </trkpt>
      <trkpt lat="45.08074" lon="6.15917">
        <ele>1418.8</ele>
        <time>2024-08-09T13:09:59Z</time>
      </trkpt>
      <trkpt lat="45.08072" lon="6.15915">
        <ele>1419</ele>
        <time>2024-08-09T13:10:01Z</time>
      </trkpt>
      <trkpt lat="45.08072" lon="6.15915">
        <ele>1419.2</ele>
        <time>2024-08-09T13:10:02Z</time>
      </trkpt>
      <trkpt lat="45.0807" lon="6.15913">
        <ele>1419.2</ele>
        <time>2024-08-09T13:10:03Z</time>
      </trkpt>
      <trkpt lat="45.0807" lon="6.15913">
        <ele>1419</ele>
        <time>2024-08-09T13:10:04Z</time>
      </trkpt>
      <trkpt lat="45.08069" lon="6.1591">
        <ele>1419.4</ele>
        <time>2024-08-09T13:10:05Z</time>
      </trkpt>
      <trkpt lat="45.08069" lon="6.1591">
        <ele>1419.4</ele>
        <time>2024-08-09T13:10:06Z</time>
      </trkpt>
      <trkpt lat="45.08067" lon="6.15907">
        <ele>1419.4</ele>
        <time>2024-08-09T13:10:07Z</time>
      </trkpt>
      <trkpt lat="45.08065" lon="6.15906">
        <ele>1419.6</ele>
        <time>2024-08-09T13:10:08Z</time>
      </trkpt>
      <trkpt lat="45.08065" lon="6.15906">
        <ele>1419.8</ele>
        <time>2024-08-09T13:10:09Z</time>
      </trkpt>
      <trkpt lat="45.08063" lon="6.15905">
        <ele>1419.8</ele>
        <time>2024-08-09T13:10:10Z</time>
      </trkpt>
      <trkpt lat="45.08061" lon="6.15905">
        <ele>1420</ele>
        <time>2024-08-09T13:10:11Z</time>
      </trkpt>
      <trkpt lat="45.08061" lon="6.15905">
        <ele>1420</ele>
        <time>2024-08-09T13:10:12Z</time>
      </trkpt>
      <trkpt lat="45.08057" lon="6.15901">
        <ele>1420</ele>
        <time>2024-08-09T13:10:13Z</time>
      </trkpt>
      <trkpt lat="45.08057" lon="6.159">
        <ele>1420</ele>
        <time>2024-08-09T13:10:14Z</time>
      </trkpt>
      <trkpt lat="45.08057" lon="6.159">
        <ele>1419.8</ele>
        <time>2024-08-09T13:10:15Z</time>
      </trkpt>
      <trkpt lat="45.08055" lon="6.15896">
        <ele>1419.8</ele>
        <time>2024-08-09T13:10:16Z</time>
      </trkpt>
      <trkpt lat="45.08055" lon="6.15896">
        <ele>1420</ele>
        <time>2024-08-09T13:10:17Z</time>
      </trkpt>
      <trkpt lat="45.08053" lon="6.15893">
        <ele>1420.2</ele>
        <time>2024-08-09T13:10:18Z</time>
      </trkpt>
      <trkpt lat="45.08051" lon="6.15892">
        <ele>1420.4</ele>
        <time>2024-08-09T13:10:19Z</time>
      </trkpt>
      <trkpt lat="45.08051" lon="6.15892">
        <ele>1420.4</ele>
        <time>2024-08-09T13:10:20Z</time>
      </trkpt>
      <trkpt lat="45.08049" lon="6.1589">
        <ele>1420.4</ele>
        <time>2024-08-09T13:10:21Z</time>
      </trkpt>
      <trkpt lat="45.08049" lon="6.1589">
        <ele>1420.4</ele>
        <time>2024-08-09T13:10:22Z</time>
      </trkpt>
      <trkpt lat="45.08049" lon="6.1589">
        <ele>1420.6</ele>
        <time>2024-08-09T13:10:23Z</time>
      </trkpt>
      <trkpt lat="45.08046" lon="6.15889">
        <ele>1420.6</ele>
        <time>2024-08-09T13:10:24Z</time>
      </trkpt>
      <trkpt lat="45.08046" lon="6.15889">
        <ele>1420.6</ele>
        <time>2024-08-09T13:10:25Z</time>
      </trkpt>
      <trkpt lat="45.08044" lon="6.15885">
        <ele>1420.6</ele>
        <time>2024-08-09T13:10:26Z</time>
      </trkpt>
      <trkpt lat="45.08043" lon="6.15884">
        <ele>1420.6</ele>
        <time>2024-08-09T13:10:27Z</time>
      </trkpt>
      <trkpt lat="45.08043" lon="6.15884">
        <ele>1420.6</ele>
        <time>2024-08-09T13:10:28Z</time>
      </trkpt>
      <trkpt lat="45.08041" lon="6.15881">
        <ele>1420.6</ele>
        <time>2024-08-09T13:10:29Z</time>
      </trkpt>
      <trkpt lat="45.08041" lon="6.15881">
        <ele>1420.6</ele>
        <time>2024-08-09T13:10:30Z</time>
      </trkpt>
      <trkpt lat="45.08038" lon="6.15878">
        <ele>1420.6</ele>
        <time>2024-08-09T13:10:31Z</time>
      </trkpt>
      <trkpt lat="45.08038" lon="6.15878">
        <ele>1420.4</ele>
        <time>2024-08-09T13:10:32Z</time>
      </trkpt>
      <trkpt lat="45.08036" lon="6.15877">
        <ele>1420.4</ele>
        <time>2024-08-09T13:10:33Z</time>
      </trkpt>
      <trkpt lat="45.08036" lon="6.15877">
        <ele>1420.4</ele>
        <time>2024-08-09T13:10:34Z</time>
      </trkpt>
      <trkpt lat="45.08036" lon="6.15877">
        <ele>1420.4</ele>
        <time>2024-08-09T13:10:35Z</time>
      </trkpt>
      <trkpt lat="45.08033" lon="6.15876">
        <ele>1420.6</ele>
        <time>2024-08-09T13:10:36Z</time>
      </trkpt>
      <trkpt lat="45.08033" lon="6.15876">
        <ele>1420.6</ele>
        <time>2024-08-09T13:10:37Z</time>
      </trkpt>
      <trkpt lat="45.08033" lon="6.15876">
        <ele>1420.6</ele>
        <time>2024-08-09T13:10:38Z</time>
      </trkpt>
      <trkpt lat="45.08032" lon="6.15873">
        <ele>1420.6</ele>
        <time>2024-08-09T13:10:39Z</time>
      </trkpt>
      <trkpt lat="45.08032" lon="6.15873">
        <ele>1420.4</ele>
        <time>2024-08-09T13:10:40Z</time>
      </trkpt>
      <trkpt lat="45.0803" lon="6.15871">
        <ele>1420.4</ele>
        <time>2024-08-09T13:10:41Z</time>
      </trkpt>
      <trkpt lat="45.0803" lon="6.15871">
        <ele>1420.6</ele>
        <time>2024-08-09T13:10:42Z</time>
      </trkpt>
      <trkpt lat="45.08028" lon="6.15869">
        <ele>1420.6</ele>
        <time>2024-08-09T13:10:43Z</time>
      </trkpt>
      <trkpt lat="45.08028" lon="6.15869">
        <ele>1420.6</ele>
        <time>2024-08-09T13:10:44Z</time>
      </trkpt>
      <trkpt lat="45.08027" lon="6.15866">
        <ele>1420.6</ele>
        <time>2024-08-09T13:10:45Z</time>
      </trkpt>
      <trkpt lat="45.08027" lon="6.15866">
        <ele>1420.6</ele>
        <time>2024-08-09T13:10:46Z</time>
      </trkpt>
      <trkpt lat="45.08026" lon="6.15864">
        <ele>1420.6</ele>
        <time>2024-08-09T13:10:47Z</time>
      </trkpt>
      <trkpt lat="45.08026" lon="6.15864">
        <ele>1420.4</ele>
        <time>2024-08-09T13:10:48Z</time>
      </trkpt>
      <trkpt lat="45.08024" lon="6.15861">
        <ele>1420.4</ele>
        <time>2024-08-09T13:10:49Z</time>
      </trkpt>
      <trkpt lat="45.08024" lon="6.15861">
        <ele>1420.4</ele>
        <time>2024-08-09T13:10:50Z</time>
      </trkpt>
      <trkpt lat="45.08021" lon="6.1586">
        <ele>1420.2</ele>
        <time>2024-08-09T13:10:51Z</time>
      </trkpt>
      <trkpt lat="45.08021" lon="6.1586">
        <ele>1420.2</ele>
        <time>2024-08-09T13:10:52Z</time>
      </trkpt>
      <trkpt lat="45.0802" lon="6.15859">
        <ele>1420.2</ele>
        <time>2024-08-09T13:10:53Z</time>
      </trkpt>
      <trkpt lat="45.0802" lon="6.15859">
        <ele>1420.2</ele>
        <time>2024-08-09T13:10:54Z</time>
      </trkpt>
      <trkpt lat="45.08018" lon="6.15858">
        <ele>1420.2</ele>
        <time>2024-08-09T13:10:55Z</time>
      </trkpt>
      <trkpt lat="45.08018" lon="6.15858">
        <ele>1420.2</ele>
        <time>2024-08-09T13:10:56Z</time>
      </trkpt>
      <trkpt lat="45.08011" lon="6.15857">
        <ele>1420.2</ele>
        <time>2024-08-09T13:10:57Z</time>
      </trkpt>
      <trkpt lat="45.08009" lon="6.15857">
        <ele>1420.2</ele>
        <time>2024-08-09T13:10:58Z</time>
      </trkpt>
      <trkpt lat="45.08005" lon="6.15856">
        <ele>1420.2</ele>
        <time>2024-08-09T13:10:59Z</time>
      </trkpt>
      <trkpt lat="45.08005" lon="6.15856">
        <ele>1420.2</ele>
        <time>2024-08-09T13:11:00Z</time>
      </trkpt>
      <trkpt lat="45.08003" lon="6.15855">
        <ele>1420.2</ele>
        <time>2024-08-09T13:11:01Z</time>
      </trkpt>
      <trkpt lat="45.08003" lon="6.15855">
        <ele>1420.4</ele>
        <time>2024-08-09T13:11:02Z</time>
      </trkpt>
      <trkpt lat="45.08003" lon="6.15855">
        <ele>1420.4</ele>
        <time>2024-08-09T13:11:03Z</time>
      </trkpt>
      <trkpt lat="45.08003" lon="6.15855">
        <ele>1420.2</ele>
        <time>2024-08-09T13:11:04Z</time>
      </trkpt>
      <trkpt lat="45.08001" lon="6.15853">
        <ele>1420.2</ele>
        <time>2024-08-09T13:11:05Z</time>
      </trkpt>
      <trkpt lat="45.08001" lon="6.15853">
        <ele>1420.2</ele>
        <time>2024-08-09T13:11:06Z</time>
      </trkpt>
      <trkpt lat="45.07999" lon="6.15852">
        <ele>1420.6</ele>
        <time>2024-08-09T13:11:07Z</time>
      </trkpt>
      <trkpt lat="45.07999" lon="6.15852">
        <ele>1420.6</ele>
        <time>2024-08-09T13:11:08Z</time>
      </trkpt>
      <trkpt lat="45.07999" lon="6.15852">
        <ele>1420.6</ele>
        <time>2024-08-09T13:11:09Z</time>
      </trkpt>
      <trkpt lat="45.07997" lon="6.15849">
        <ele>1420.6</ele>
        <time>2024-08-09T13:11:10Z</time>
      </trkpt>
      <trkpt lat="45.07997" lon="6.15849">
        <ele>1420.6</ele>
        <time>2024-08-09T13:11:11Z</time>
      </trkpt>
      <trkpt lat="45.07996" lon="6.15847">
        <ele>1420.8</ele>
        <time>2024-08-09T13:11:12Z</time>
      </trkpt>
      <trkpt lat="45.07996" lon="6.15847">
        <ele>1420.8</ele>
        <time>2024-08-09T13:11:13Z</time>
      </trkpt>
      <trkpt lat="45.07993" lon="6.15846">
        <ele>1420.8</ele>
        <time>2024-08-09T13:11:14Z</time>
      </trkpt>
      <trkpt lat="45.07989" lon="6.15845">
        <ele>1420.8</ele>
        <time>2024-08-09T13:11:15Z</time>
      </trkpt>
      <trkpt lat="45.07986" lon="6.15845">
        <ele>1420.8</ele>
        <time>2024-08-09T13:11:16Z</time>
      </trkpt>
      <trkpt lat="45.07984" lon="6.15845">
        <ele>1421</ele>
        <time>2024-08-09T13:11:17Z</time>
      </trkpt>
      <trkpt lat="45.07981" lon="6.15844">
        <ele>1421.2</ele>
        <time>2024-08-09T13:11:18Z</time>
      </trkpt>
      <trkpt lat="45.0798" lon="6.15843">
        <ele>1421.2</ele>
        <time>2024-08-09T13:11:19Z</time>
      </trkpt>
      <trkpt lat="45.0798" lon="6.15843">
        <ele>1421.2</ele>
        <time>2024-08-09T13:11:20Z</time>
      </trkpt>
      <trkpt lat="45.07977" lon="6.15841">
        <ele>1421.2</ele>
        <time>2024-08-09T13:11:21Z</time>
      </trkpt>
      <trkpt lat="45.07977" lon="6.15841">
        <ele>1421.2</ele>
        <time>2024-08-09T13:11:22Z</time>
      </trkpt>
      <trkpt lat="45.07975" lon="6.15839">
        <ele>1421.2</ele>
        <time>2024-08-09T13:11:23Z</time>
      </trkpt>
      <trkpt lat="45.07975" lon="6.15839">
        <ele>1421.4</ele>
        <time>2024-08-09T13:11:24Z</time>
      </trkpt>
      <trkpt lat="45.07973" lon="6.15837">
        <ele>1421.4</ele>
        <time>2024-08-09T13:11:25Z</time>
      </trkpt>
      <trkpt lat="45.07973" lon="6.15837">
        <ele>1421.4</ele>
        <time>2024-08-09T13:11:26Z</time>
      </trkpt>
      <trkpt lat="45.07972" lon="6.15833">
        <ele>1421.4</ele>
        <time>2024-08-09T13:11:27Z</time>
      </trkpt>
      <trkpt lat="45.07972" lon="6.15833">
        <ele>1421.4</ele>
        <time>2024-08-09T13:11:28Z</time>
      </trkpt>
      <trkpt lat="45.07971" lon="6.15831">
        <ele>1421.4</ele>
        <time>2024-08-09T13:11:29Z</time>
      </trkpt>
      <trkpt lat="45.07971" lon="6.15831">
        <ele>1421.4</ele>
        <time>2024-08-09T13:11:30Z</time>
      </trkpt>
      <trkpt lat="45.07969" lon="6.15829">
        <ele>1421.4</ele>
        <time>2024-08-09T13:11:31Z</time>
      </trkpt>
      <trkpt lat="45.07969" lon="6.15829">
        <ele>1421.6</ele>
        <time>2024-08-09T13:11:32Z</time>
      </trkpt>
      <trkpt lat="45.07968" lon="6.15825">
        <ele>1421.6</ele>
        <time>2024-08-09T13:11:33Z</time>
      </trkpt>
      <trkpt lat="45.07968" lon="6.15825">
        <ele>1421.6</ele>
        <time>2024-08-09T13:11:34Z</time>
      </trkpt>
      <trkpt lat="45.07966" lon="6.15824">
        <ele>1421.6</ele>
        <time>2024-08-09T13:11:35Z</time>
      </trkpt>
      <trkpt lat="45.07966" lon="6.15824">
        <ele>1421.8</ele>
        <time>2024-08-09T13:11:36Z</time>
      </trkpt>
      <trkpt lat="45.07963" lon="6.15823">
        <ele>1421.8</ele>
        <time>2024-08-09T13:11:37Z</time>
      </trkpt>
      <trkpt lat="45.07963" lon="6.15823">
        <ele>1422</ele>
        <time>2024-08-09T13:11:38Z</time>
      </trkpt>
      <trkpt lat="45.07961" lon="6.1582">
        <ele>1422</ele>
        <time>2024-08-09T13:11:39Z</time>
      </trkpt>
      <trkpt lat="45.07961" lon="6.1582">
        <ele>1422.2</ele>
        <time>2024-08-09T13:11:40Z</time>
      </trkpt>
      <trkpt lat="45.07959" lon="6.15819">
        <ele>1422.2</ele>
        <time>2024-08-09T13:11:41Z</time>
      </trkpt>
      <trkpt lat="45.07959" lon="6.15819">
        <ele>1422.4</ele>
        <time>2024-08-09T13:11:42Z</time>
      </trkpt>
      <trkpt lat="45.07957" lon="6.15819">
        <ele>1422.6</ele>
        <time>2024-08-09T13:11:43Z</time>
      </trkpt>
      <trkpt lat="45.07957" lon="6.15819">
        <ele>1422.8</ele>
        <time>2024-08-09T13:11:44Z</time>
      </trkpt>
      <trkpt lat="45.07956" lon="6.15817">
        <ele>1422.8</ele>
        <time>2024-08-09T13:11:45Z</time>
      </trkpt>
      <trkpt lat="45.07956" lon="6.15817">
        <ele>1423</ele>
        <time>2024-08-09T13:11:46Z</time>
      </trkpt>
      <trkpt lat="45.07954" lon="6.15815">
        <ele>1423.2</ele>
        <time>2024-08-09T13:11:47Z</time>
      </trkpt>
      <trkpt lat="45.07953" lon="6.15813">
        <ele>1423.2</ele>
        <time>2024-08-09T13:11:48Z</time>
      </trkpt>
      <trkpt lat="45.07953" lon="6.15813">
        <ele>1423.2</ele>
        <time>2024-08-09T13:11:49Z</time>
      </trkpt>
      <trkpt lat="45.07951" lon="6.1581">
        <ele>1423.2</ele>
        <time>2024-08-09T13:11:50Z</time>
      </trkpt>
      <trkpt lat="45.07951" lon="6.1581">
        <ele>1423.4</ele>
        <time>2024-08-09T13:11:51Z</time>
      </trkpt>
      <trkpt lat="45.07948" lon="6.15808">
        <ele>1423.4</ele>
        <time>2024-08-09T13:11:52Z</time>
      </trkpt>
      <trkpt lat="45.07948" lon="6.15808">
        <ele>1423.2</ele>
        <time>2024-08-09T13:11:53Z</time>
      </trkpt>
      <trkpt lat="45.07947" lon="6.15805">
        <ele>1423.2</ele>
        <time>2024-08-09T13:11:54Z</time>
      </trkpt>
      <trkpt lat="45.07946" lon="6.15803">
        <ele>1423.4</ele>
        <time>2024-08-09T13:11:55Z</time>
      </trkpt>
      <trkpt lat="45.07946" lon="6.15803">
        <ele>1423.6</ele>
        <time>2024-08-09T13:11:56Z</time>
      </trkpt>
      <trkpt lat="45.07945" lon="6.158">
        <ele>1423.6</ele>
        <time>2024-08-09T13:11:57Z</time>
      </trkpt>
      <trkpt lat="45.07945" lon="6.158">
        <ele>1423.6</ele>
        <time>2024-08-09T13:11:58Z</time>
      </trkpt>
      <trkpt lat="45.07943" lon="6.15799">
        <ele>1423.8</ele>
        <time>2024-08-09T13:11:59Z</time>
      </trkpt>
      <trkpt lat="45.07943" lon="6.15799">
        <ele>1424.2</ele>
        <time>2024-08-09T13:12:00Z</time>
      </trkpt>
      <trkpt lat="45.07941" lon="6.15797">
        <ele>1424.2</ele>
        <time>2024-08-09T13:12:01Z</time>
      </trkpt>
      <trkpt lat="45.07941" lon="6.15797">
        <ele>1424</ele>
        <time>2024-08-09T13:12:02Z</time>
      </trkpt>
      <trkpt lat="45.07941" lon="6.15797">
        <ele>1424</ele>
        <time>2024-08-09T13:12:03Z</time>
      </trkpt>
      <trkpt lat="45.07938" lon="6.15796">
        <ele>1424</ele>
        <time>2024-08-09T13:12:04Z</time>
      </trkpt>
      <trkpt lat="45.07938" lon="6.15796">
        <ele>1424.2</ele>
        <time>2024-08-09T13:12:05Z</time>
      </trkpt>
      <trkpt lat="45.07936" lon="6.15794">
        <ele>1424.4</ele>
        <time>2024-08-09T13:12:06Z</time>
      </trkpt>
      <trkpt lat="45.07936" lon="6.15794">
        <ele>1424.4</ele>
        <time>2024-08-09T13:12:07Z</time>
      </trkpt>
      <trkpt lat="45.07934" lon="6.15793">
        <ele>1424.6</ele>
        <time>2024-08-09T13:12:08Z</time>
      </trkpt>
      <trkpt lat="45.07934" lon="6.15793">
        <ele>1424.8</ele>
        <time>2024-08-09T13:12:09Z</time>
      </trkpt>
      <trkpt lat="45.07934" lon="6.15793">
        <ele>1424.8</ele>
        <time>2024-08-09T13:12:10Z</time>
      </trkpt>
      <trkpt lat="45.07932" lon="6.15791">
        <ele>1425</ele>
        <time>2024-08-09T13:12:11Z</time>
      </trkpt>
      <trkpt lat="45.07932" lon="6.15791">
        <ele>1425.2</ele>
        <time>2024-08-09T13:12:12Z</time>
      </trkpt>
      <trkpt lat="45.07928" lon="6.15791">
        <ele>1425.2</ele>
        <time>2024-08-09T13:12:13Z</time>
      </trkpt>
      <trkpt lat="45.07926" lon="6.15791">
        <ele>1425.2</ele>
        <time>2024-08-09T13:12:14Z</time>
      </trkpt>
      <trkpt lat="45.07926" lon="6.15791">
        <ele>1425.2</ele>
        <time>2024-08-09T13:12:15Z</time>
      </trkpt>
      <trkpt lat="45.07924" lon="6.1579">
        <ele>1425.4</ele>
        <time>2024-08-09T13:12:16Z</time>
      </trkpt>
      <trkpt lat="45.07924" lon="6.1579">
        <ele>1425.6</ele>
        <time>2024-08-09T13:12:17Z</time>
      </trkpt>
      <trkpt lat="45.07921" lon="6.15789">
        <ele>1425.6</ele>
        <time>2024-08-09T13:12:18Z</time>
      </trkpt>
      <trkpt lat="45.07921" lon="6.15789">
        <ele>1425.4</ele>
        <time>2024-08-09T13:12:19Z</time>
      </trkpt>
      <trkpt lat="45.07918" lon="6.15789">
        <ele>1425.4</ele>
        <time>2024-08-09T13:12:20Z</time>
      </trkpt>
      <trkpt lat="45.07918" lon="6.15789">
        <ele>1425.4</ele>
        <time>2024-08-09T13:12:21Z</time>
      </trkpt>
      <trkpt lat="45.07918" lon="6.15789">
        <ele>1425.6</ele>
        <time>2024-08-09T13:12:22Z</time>
      </trkpt>
      <trkpt lat="45.07916" lon="6.15786">
        <ele>1425.6</ele>
        <time>2024-08-09T13:12:23Z</time>
      </trkpt>
      <trkpt lat="45.07916" lon="6.15786">
        <ele>1425.6</ele>
        <time>2024-08-09T13:12:24Z</time>
      </trkpt>
      <trkpt lat="45.07914" lon="6.15783">
        <ele>1425.6</ele>
        <time>2024-08-09T13:12:25Z</time>
      </trkpt>
      <trkpt lat="45.07914" lon="6.15783">
        <ele>1425.6</ele>
        <time>2024-08-09T13:12:26Z</time>
      </trkpt>
      <trkpt lat="45.07914" lon="6.15783">
        <ele>1425.6</ele>
        <time>2024-08-09T13:12:27Z</time>
      </trkpt>
      <trkpt lat="45.07912" lon="6.15782">
        <ele>1425.8</ele>
        <time>2024-08-09T13:12:28Z</time>
      </trkpt>
      <trkpt lat="45.07912" lon="6.15782">
        <ele>1425.8</ele>
        <time>2024-08-09T13:12:29Z</time>
      </trkpt>
      <trkpt lat="45.07912" lon="6.15782">
        <ele>1425.8</ele>
        <time>2024-08-09T13:12:30Z</time>
      </trkpt>
      <trkpt lat="45.07909" lon="6.1578">
        <ele>1425.6</ele>
        <time>2024-08-09T13:12:31Z</time>
      </trkpt>
      <trkpt lat="45.07909" lon="6.1578">
        <ele>1425.6</ele>
        <time>2024-08-09T13:12:32Z</time>
      </trkpt>
      <trkpt lat="45.07907" lon="6.15779">
        <ele>1425.8</ele>
        <time>2024-08-09T13:12:33Z</time>
      </trkpt>
      <trkpt lat="45.07907" lon="6.15779">
        <ele>1425.8</ele>
        <time>2024-08-09T13:12:34Z</time>
      </trkpt>
      <trkpt lat="45.07904" lon="6.15777">
        <ele>1425.8</ele>
        <time>2024-08-09T13:12:35Z</time>
      </trkpt>
      <trkpt lat="45.07904" lon="6.15777">
        <ele>1426</ele>
        <time>2024-08-09T13:12:36Z</time>
      </trkpt>
      <trkpt lat="45.07902" lon="6.15775">
        <ele>1426</ele>
        <time>2024-08-09T13:12:37Z</time>
      </trkpt>
      <trkpt lat="45.07902" lon="6.15775">
        <ele>1425.8</ele>
        <time>2024-08-09T13:12:38Z</time>
      </trkpt>
      <trkpt lat="45.07902" lon="6.15775">
        <ele>1425.8</ele>
        <time>2024-08-09T13:12:39Z</time>
      </trkpt>
      <trkpt lat="45.079" lon="6.15772">
        <ele>1425.8</ele>
        <time>2024-08-09T13:12:40Z</time>
      </trkpt>
      <trkpt lat="45.07898" lon="6.1577">
        <ele>1426</ele>
        <time>2024-08-09T13:12:41Z</time>
      </trkpt>
      <trkpt lat="45.07898" lon="6.1577">
        <ele>1426</ele>
        <time>2024-08-09T13:12:42Z</time>
      </trkpt>
      <trkpt lat="45.07895" lon="6.15768">
        <ele>1425.8</ele>
        <time>2024-08-09T13:12:43Z</time>
      </trkpt>
      <trkpt lat="45.07895" lon="6.15768">
        <ele>1425.8</ele>
        <time>2024-08-09T13:12:44Z</time>
      </trkpt>
      <trkpt lat="45.07892" lon="6.15766">
        <ele>1425.8</ele>
        <time>2024-08-09T13:12:45Z</time>
      </trkpt>
      <trkpt lat="45.07892" lon="6.15766">
        <ele>1426</ele>
        <time>2024-08-09T13:12:46Z</time>
      </trkpt>
      <trkpt lat="45.07889" lon="6.15764">
        <ele>1426</ele>
        <time>2024-08-09T13:12:47Z</time>
      </trkpt>
      <trkpt lat="45.07889" lon="6.15764">
        <ele>1425.8</ele>
        <time>2024-08-09T13:12:48Z</time>
      </trkpt>
      <trkpt lat="45.07886" lon="6.15762">
        <ele>1425.8</ele>
        <time>2024-08-09T13:12:49Z</time>
      </trkpt>
      <trkpt lat="45.07884" lon="6.15761">
        <ele>1425.8</ele>
        <time>2024-08-09T13:12:50Z</time>
      </trkpt>
      <trkpt lat="45.07884" lon="6.15761">
        <ele>1425.8</ele>
        <time>2024-08-09T13:12:51Z</time>
      </trkpt>
      <trkpt lat="45.07881" lon="6.1576">
        <ele>1425.4</ele>
        <time>2024-08-09T13:12:52Z</time>
      </trkpt>
      <trkpt lat="45.07878" lon="6.15759">
        <ele>1425.2</ele>
        <time>2024-08-09T13:12:53Z</time>
      </trkpt>
      <trkpt lat="45.07878" lon="6.15759">
        <ele>1425.2</ele>
        <time>2024-08-09T13:12:54Z</time>
      </trkpt>
      <trkpt lat="45.07875" lon="6.15758">
        <ele>1425.2</ele>
        <time>2024-08-09T13:12:55Z</time>
      </trkpt>
      <trkpt lat="45.07875" lon="6.15758">
        <ele>1425.2</ele>
        <time>2024-08-09T13:12:56Z</time>
      </trkpt>
      <trkpt lat="45.07872" lon="6.15757">
        <ele>1425</ele>
        <time>2024-08-09T13:12:57Z</time>
      </trkpt>
      <trkpt lat="45.07872" lon="6.15757">
        <ele>1425</ele>
        <time>2024-08-09T13:12:58Z</time>
      </trkpt>
      <trkpt lat="45.07868" lon="6.15755">
        <ele>1424.8</ele>
        <time>2024-08-09T13:12:59Z</time>
      </trkpt>
      <trkpt lat="45.07868" lon="6.15755">
        <ele>1424.6</ele>
        <time>2024-08-09T13:13:00Z</time>
      </trkpt>
      <trkpt lat="45.07865" lon="6.15754">
        <ele>1424.6</ele>
        <time>2024-08-09T13:13:01Z</time>
      </trkpt>
      <trkpt lat="45.07863" lon="6.15754">
        <ele>1424.6</ele>
        <time>2024-08-09T13:13:02Z</time>
      </trkpt>
      <trkpt lat="45.07861" lon="6.15753">
        <ele>1424.6</ele>
        <time>2024-08-09T13:13:03Z</time>
      </trkpt>
      <trkpt lat="45.07861" lon="6.15753">
        <ele>1424.6</ele>
        <time>2024-08-09T13:13:04Z</time>
      </trkpt>
      <trkpt lat="45.07859" lon="6.15753">
        <ele>1424.6</ele>
        <time>2024-08-09T13:13:05Z</time>
      </trkpt>
      <trkpt lat="45.07859" lon="6.15753">
        <ele>1424.4</ele>
        <time>2024-08-09T13:13:06Z</time>
      </trkpt>
      <trkpt lat="45.07857" lon="6.15752">
        <ele>1424.4</ele>
        <time>2024-08-09T13:13:07Z</time>
      </trkpt>
      <trkpt lat="45.07854" lon="6.1575">
        <ele>1424.4</ele>
        <time>2024-08-09T13:13:08Z</time>
      </trkpt>
      <trkpt lat="45.07854" lon="6.1575">
        <ele>1424.4</ele>
        <time>2024-08-09T13:13:09Z</time>
      </trkpt>
      <trkpt lat="45.07853" lon="6.15748">
        <ele>1424.4</ele>
        <time>2024-08-09T13:13:10Z</time>
      </trkpt>
      <trkpt lat="45.07853" lon="6.15748">
        <ele>1424.2</ele>
        <time>2024-08-09T13:13:11Z</time>
      </trkpt>
      <trkpt lat="45.0785" lon="6.15748">
        <ele>1424</ele>
        <time>2024-08-09T13:13:12Z</time>
      </trkpt>
      <trkpt lat="45.0785" lon="6.15748">
        <ele>1423.6</ele>
        <time>2024-08-09T13:13:13Z</time>
      </trkpt>
      <trkpt lat="45.07848" lon="6.15747">
        <ele>1423.4</ele>
        <time>2024-08-09T13:13:14Z</time>
      </trkpt>
      <trkpt lat="45.07846" lon="6.15746">
        <ele>1422.8</ele>
        <time>2024-08-09T13:13:15Z</time>
      </trkpt>
      <trkpt lat="45.07846" lon="6.15746">
        <ele>1422.4</ele>
        <time>2024-08-09T13:13:16Z</time>
      </trkpt>
      <trkpt lat="45.07844" lon="6.15747">
        <ele>1422.4</ele>
        <time>2024-08-09T13:13:17Z</time>
      </trkpt>
      <trkpt lat="45.07844" lon="6.15747">
        <ele>1422</ele>
        <time>2024-08-09T13:13:18Z</time>
      </trkpt>
      <trkpt lat="45.07842" lon="6.15748">
        <ele>1422</ele>
        <time>2024-08-09T13:13:19Z</time>
      </trkpt>
      <trkpt lat="45.07842" lon="6.15748">
        <ele>1421.8</ele>
        <time>2024-08-09T13:13:20Z</time>
      </trkpt>
      <trkpt lat="45.07839" lon="6.15748">
        <ele>1421.8</ele>
        <time>2024-08-09T13:13:21Z</time>
      </trkpt>
      <trkpt lat="45.07839" lon="6.15748">
        <ele>1421.8</ele>
        <time>2024-08-09T13:13:22Z</time>
      </trkpt>
      <trkpt lat="45.07837" lon="6.15748">
        <ele>1421.8</ele>
        <time>2024-08-09T13:13:23Z</time>
      </trkpt>
      <trkpt lat="45.07837" lon="6.15748">
        <ele>1422</ele>
        <time>2024-08-09T13:13:24Z</time>
      </trkpt>
      <trkpt lat="45.07837" lon="6.15748">
        <ele>1422</ele>
        <time>2024-08-09T13:13:25Z</time>
      </trkpt>
      <trkpt lat="45.07837" lon="6.15748">
        <ele>1422</ele>
        <time>2024-08-09T13:13:26Z</time>
      </trkpt>
      <trkpt lat="45.07836" lon="6.15749">
        <ele>1422</ele>
        <time>2024-08-09T13:13:27Z</time>
      </trkpt>
      <trkpt lat="45.07836" lon="6.15749">
        <ele>1422</ele>
        <time>2024-08-09T13:13:28Z</time>
      </trkpt>
      <trkpt lat="45.07836" lon="6.15749">
        <ele>1422</ele>
        <time>2024-08-09T13:13:29Z</time>
      </trkpt>
      <trkpt lat="45.07836" lon="6.15749">
        <ele>1422</ele>
        <time>2024-08-09T13:13:30Z</time>
      </trkpt>
      <trkpt lat="45.07836" lon="6.15749">
        <ele>1422</ele>
        <time>2024-08-09T13:13:31Z</time>
      </trkpt>
      <trkpt lat="45.07836" lon="6.15749">
        <ele>1422.2</ele>
        <time>2024-08-09T13:13:32Z</time>
      </trkpt>
      <trkpt lat="45.07836" lon="6.15749">
        <ele>1422.2</ele>
        <time>2024-08-09T13:13:33Z</time>
      </trkpt>
      <trkpt lat="45.07836" lon="6.15749">
        <ele>1422.2</ele>
        <time>2024-08-09T13:13:34Z</time>
      </trkpt>
      <trkpt lat="45.07836" lon="6.15749">
        <ele>1422.2</ele>
        <time>2024-08-09T13:13:35Z</time>
      </trkpt>
      <trkpt lat="45.07836" lon="6.15749">
        <ele>1422.2</ele>
        <time>2024-08-09T13:13:36Z</time>
      </trkpt>
      <trkpt lat="45.07836" lon="6.15749">
        <ele>1422.4</ele>
        <time>2024-08-09T13:13:37Z</time>
      </trkpt>
      <trkpt lat="45.07836" lon="6.15749">
        <ele>1422.4</ele>
        <time>2024-08-09T13:13:38Z</time>
      </trkpt>
      <trkpt lat="45.07836" lon="6.15749">
        <ele>1422.4</ele>
        <time>2024-08-09T13:13:39Z</time>
      </trkpt>
      <trkpt lat="45.07836" lon="6.15749">
        <ele>1422.4</ele>
        <time>2024-08-09T13:13:40Z</time>
      </trkpt>
      <trkpt lat="45.07836" lon="6.15749">
        <ele>1422.4</ele>
        <time>2024-08-09T13:13:41Z</time>
      </trkpt>
      <trkpt lat="45.07836" lon="6.15749">
        <ele>1422.4</ele>
        <time>2024-08-09T13:13:42Z</time>
      </trkpt>
      <trkpt lat="45.07836" lon="6.15749">
        <ele>1422.4</ele>
        <time>2024-08-09T13:13:43Z</time>
      </trkpt>
      <trkpt lat="45.07836" lon="6.15749">
        <ele>1422.4</ele>
        <time>2024-08-09T13:13:44Z</time>
      </trkpt>
      <trkpt lat="45.07836" lon="6.15749">
        <ele>1422.4</ele>
        <time>2024-08-09T13:13:45Z</time>
      </trkpt>
      <trkpt lat="45.07836" lon="6.15749">
        <ele>1422.4</ele>
        <time>2024-08-09T13:13:46Z</time>
      </trkpt>
      <trkpt lat="45.07836" lon="6.15749">
        <ele>1422.4</ele>
        <time>2024-08-09T13:13:47Z</time>
      </trkpt>
      <trkpt lat="45.07836" lon="6.15749">
        <ele>1422.2</ele>
        <time>2024-08-09T13:13:48Z</time>
      </trkpt>
      <trkpt lat="45.07836" lon="6.15749">
        <ele>1422.2</ele>
        <time>2024-08-09T13:13:49Z</time>
      </trkpt>
      <trkpt lat="45.07836" lon="6.15749">
        <ele>1422.4</ele>
        <time>2024-08-09T13:13:50Z</time>
      </trkpt>
      <trkpt lat="45.07836" lon="6.15749">
        <ele>1422.4</ele>
        <time>2024-08-09T13:13:51Z</time>
      </trkpt>
      <trkpt lat="45.07836" lon="6.15749">
        <ele>1422.4</ele>
        <time>2024-08-09T13:13:52Z</time>
      </trkpt>
      <trkpt lat="45.07836" lon="6.15749">
        <ele>1422.4</ele>
        <time>2024-08-09T13:13:53Z</time>
      </trkpt>
      <trkpt lat="45.07836" lon="6.15749">
        <ele>1422.4</ele>
        <time>2024-08-09T13:13:54Z</time>
      </trkpt>
      <trkpt lat="45.07836" lon="6.15749">
        <ele>1422</ele>
        <time>2024-08-09T13:13:55Z</time>
      </trkpt>
      <trkpt lat="45.07836" lon="6.15749">
        <ele>1421.8</ele>
        <time>2024-08-09T13:13:56Z</time>
      </trkpt>
      <trkpt lat="45.07836" lon="6.15749">
        <ele>1421.8</ele>
        <time>2024-08-09T13:13:57Z</time>
      </trkpt>
      <trkpt lat="45.07836" lon="6.15749">
        <ele>1421.8</ele>
        <time>2024-08-09T13:13:58Z</time>
      </trkpt>
      <trkpt lat="45.07836" lon="6.15749">
        <ele>1422</ele>
        <time>2024-08-09T13:13:59Z</time>
      </trkpt>
      <trkpt lat="45.07836" lon="6.15749">
        <ele>1422</ele>
        <time>2024-08-09T13:14:00Z</time>
      </trkpt>
      <trkpt lat="45.07836" lon="6.15749">
        <ele>1422.2</ele>
        <time>2024-08-09T13:14:01Z</time>
      </trkpt>
      <trkpt lat="45.07836" lon="6.15749">
        <ele>1422.2</ele>
        <time>2024-08-09T13:14:02Z</time>
      </trkpt>
      <trkpt lat="45.07836" lon="6.15749">
        <ele>1422.2</ele>
        <time>2024-08-09T13:14:03Z</time>
      </trkpt>
      <trkpt lat="45.07836" lon="6.15749">
        <ele>1422.2</ele>
        <time>2024-08-09T13:14:04Z</time>
      </trkpt>
      <trkpt lat="45.07836" lon="6.15749">
        <ele>1422.2</ele>
        <time>2024-08-09T13:14:05Z</time>
      </trkpt>
      <trkpt lat="45.07836" lon="6.15749">
        <ele>1422</ele>
        <time>2024-08-09T13:14:06Z</time>
      </trkpt>
      <trkpt lat="45.07836" lon="6.15749">
        <ele>1422</ele>
        <time>2024-08-09T13:14:07Z</time>
      </trkpt>
      <trkpt lat="45.07836" lon="6.15749">
        <ele>1422</ele>
        <time>2024-08-09T13:14:08Z</time>
      </trkpt>
      <trkpt lat="45.07836" lon="6.15749">
        <ele>1422</ele>
        <time>2024-08-09T13:14:09Z</time>
      </trkpt>
      <trkpt lat="45.07836" lon="6.15749">
        <ele>1422</ele>
        <time>2024-08-09T13:14:10Z</time>
      </trkpt>
      <trkpt lat="45.07836" lon="6.15749">
        <ele>1422</ele>
        <time>2024-08-09T13:14:11Z</time>
      </trkpt>
      <trkpt lat="45.07836" lon="6.15749">
        <ele>1422.2</ele>
        <time>2024-08-09T13:14:12Z</time>
      </trkpt>
      <trkpt lat="45.07836" lon="6.15749">
        <ele>1422.2</ele>
        <time>2024-08-09T13:14:13Z</time>
      </trkpt>
      <trkpt lat="45.07836" lon="6.15749">
        <ele>1422</ele>
        <time>2024-08-09T13:14:14Z</time>
      </trkpt>
      <trkpt lat="45.07836" lon="6.15749">
        <ele>1422</ele>
        <time>2024-08-09T13:14:15Z</time>
      </trkpt>
      <trkpt lat="45.07836" lon="6.15749">
        <ele>1421.8</ele>
        <time>2024-08-09T13:14:16Z</time>
      </trkpt>
      <trkpt lat="45.07836" lon="6.15749">
        <ele>1421.8</ele>
        <time>2024-08-09T13:14:17Z</time>
      </trkpt>
      <trkpt lat="45.07836" lon="6.15749">
        <ele>1421.8</ele>
        <time>2024-08-09T13:14:18Z</time>
      </trkpt>
      <trkpt lat="45.07836" lon="6.15749">
        <ele>1422</ele>
        <time>2024-08-09T13:14:19Z</time>
      </trkpt>
      <trkpt lat="45.07836" lon="6.15749">
        <ele>1422.2</ele>
        <time>2024-08-09T13:14:20Z</time>
      </trkpt>
      <trkpt lat="45.07836" lon="6.15749">
        <ele>1422</ele>
        <time>2024-08-09T13:14:21Z</time>
      </trkpt>
      <trkpt lat="45.07836" lon="6.15749">
        <ele>1422</ele>
        <time>2024-08-09T13:14:22Z</time>
      </trkpt>
      <trkpt lat="45.07836" lon="6.15749">
        <ele>1422</ele>
        <time>2024-08-09T13:14:23Z</time>
      </trkpt>
      <trkpt lat="45.07836" lon="6.15749">
        <ele>1422</ele>
        <time>2024-08-09T13:14:24Z</time>
      </trkpt>
      <trkpt lat="45.07836" lon="6.15749">
        <ele>1422</ele>
        <time>2024-08-09T13:14:25Z</time>
      </trkpt>
      <trkpt lat="45.07836" lon="6.15749">
        <ele>1422</ele>
        <time>2024-08-09T13:14:26Z</time>
      </trkpt>
      <trkpt lat="45.07836" lon="6.15749">
        <ele>1422</ele>
        <time>2024-08-09T13:14:27Z</time>
      </trkpt>
      <trkpt lat="45.07836" lon="6.15749">
        <ele>1421.8</ele>
        <time>2024-08-09T13:14:28Z</time>
      </trkpt>
      <trkpt lat="45.07836" lon="6.15749">
        <ele>1421.8</ele>
        <time>2024-08-09T13:14:29Z</time>
      </trkpt>
      <trkpt lat="45.07836" lon="6.15749">
        <ele>1421.8</ele>
        <time>2024-08-09T13:14:30Z</time>
      </trkpt>
      <trkpt lat="45.07836" lon="6.15749">
        <ele>1421.8</ele>
        <time>2024-08-09T13:14:31Z</time>
      </trkpt>
      <trkpt lat="45.07836" lon="6.15749">
        <ele>1421.8</ele>
        <time>2024-08-09T13:14:32Z</time>
      </trkpt>
      <trkpt lat="45.07836" lon="6.15749">
        <ele>1421.8</ele>
        <time>2024-08-09T13:14:33Z</time>
      </trkpt>
      <trkpt lat="45.07836" lon="6.15749">
        <ele>1421.8</ele>
        <time>2024-08-09T13:14:34Z</time>
      </trkpt>
      <trkpt lat="45.07836" lon="6.15749">
        <ele>1421.8</ele>
        <time>2024-08-09T13:14:35Z</time>
      </trkpt>
      <trkpt lat="45.07836" lon="6.15749">
        <ele>1421.8</ele>
        <time>2024-08-09T13:14:36Z</time>
      </trkpt>
      <trkpt lat="45.07836" lon="6.15749">
        <ele>1421.8</ele>
        <time>2024-08-09T13:14:37Z</time>
      </trkpt>
      <trkpt lat="45.07836" lon="6.15749">
        <ele>1421.8</ele>
        <time>2024-08-09T13:14:38Z</time>
      </trkpt>
      <trkpt lat="45.07836" lon="6.15749">
        <ele>1422.2</ele>
        <time>2024-08-09T13:14:39Z</time>
      </trkpt>
      <trkpt lat="45.07836" lon="6.15749">
        <ele>1422.4</ele>
        <time>2024-08-09T13:14:40Z</time>
      </trkpt>
      <trkpt lat="45.07836" lon="6.15749">
        <ele>1422.4</ele>
        <time>2024-08-09T13:14:41Z</time>
      </trkpt>
      <trkpt lat="45.07837" lon="6.15749">
        <ele>1422.2</ele>
        <time>2024-08-09T13:14:42Z</time>
      </trkpt>
      <trkpt lat="45.07837" lon="6.15749">
        <ele>1422.2</ele>
        <time>2024-08-09T13:14:43Z</time>
      </trkpt>
      <trkpt lat="45.07841" lon="6.15745">
        <ele>1422.2</ele>
        <time>2024-08-09T13:14:44Z</time>
      </trkpt>
      <trkpt lat="45.07842" lon="6.15743">
        <ele>1422</ele>
        <time>2024-08-09T13:14:45Z</time>
      </trkpt>
      <trkpt lat="45.07842" lon="6.15743">
        <ele>1422</ele>
        <time>2024-08-09T13:14:46Z</time>
      </trkpt>
      <trkpt lat="45.07842" lon="6.1574">
        <ele>1421.8</ele>
        <time>2024-08-09T13:14:47Z</time>
      </trkpt>
      <trkpt lat="45.07842" lon="6.1574">
        <ele>1421.6</ele>
        <time>2024-08-09T13:14:48Z</time>
      </trkpt>
      <trkpt lat="45.07839" lon="6.15739">
        <ele>1421.6</ele>
        <time>2024-08-09T13:14:49Z</time>
      </trkpt>
      <trkpt lat="45.07839" lon="6.15739">
        <ele>1421.4</ele>
        <time>2024-08-09T13:14:50Z</time>
      </trkpt>
      <trkpt lat="45.07836" lon="6.15738">
        <ele>1421.2</ele>
        <time>2024-08-09T13:14:51Z</time>
      </trkpt>
      <trkpt lat="45.07836" lon="6.15738">
        <ele>1420.6</ele>
        <time>2024-08-09T13:14:52Z</time>
      </trkpt>
      <trkpt lat="45.07834" lon="6.15737">
        <ele>1420.4</ele>
        <time>2024-08-09T13:14:53Z</time>
      </trkpt>
      <trkpt lat="45.07834" lon="6.15737">
        <ele>1420.2</ele>
        <time>2024-08-09T13:14:54Z</time>
      </trkpt>
      <trkpt lat="45.07831" lon="6.15736">
        <ele>1419.8</ele>
        <time>2024-08-09T13:14:55Z</time>
      </trkpt>
      <trkpt lat="45.07831" lon="6.15736">
        <ele>1419.4</ele>
        <time>2024-08-09T13:14:56Z</time>
      </trkpt>
      <trkpt lat="45.07828" lon="6.15735">
        <ele>1419.2</ele>
        <time>2024-08-09T13:14:57Z</time>
      </trkpt>
      <trkpt lat="45.07828" lon="6.15735">
        <ele>1419</ele>
        <time>2024-08-09T13:14:58Z</time>
      </trkpt>
      <trkpt lat="45.07826" lon="6.15735">
        <ele>1418.6</ele>
        <time>2024-08-09T13:14:59Z</time>
      </trkpt>
      <trkpt lat="45.07826" lon="6.15735">
        <ele>1418.2</ele>
        <time>2024-08-09T13:15:00Z</time>
      </trkpt>
      <trkpt lat="45.07823" lon="6.15734">
        <ele>1418</ele>
        <time>2024-08-09T13:15:01Z</time>
      </trkpt>
      <trkpt lat="45.07823" lon="6.15734">
        <ele>1417.4</ele>
        <time>2024-08-09T13:15:02Z</time>
      </trkpt>
      <trkpt lat="45.07821" lon="6.15734">
        <ele>1417.4</ele>
        <time>2024-08-09T13:15:03Z</time>
      </trkpt>
      <trkpt lat="45.07821" lon="6.15734">
        <ele>1417</ele>
        <time>2024-08-09T13:15:04Z</time>
      </trkpt>
      <trkpt lat="45.07819" lon="6.15734">
        <ele>1417</ele>
        <time>2024-08-09T13:15:05Z</time>
      </trkpt>
      <trkpt lat="45.07819" lon="6.15734">
        <ele>1416.6</ele>
        <time>2024-08-09T13:15:06Z</time>
      </trkpt>
      <trkpt lat="45.07819" lon="6.15734">
        <ele>1416.2</ele>
        <time>2024-08-09T13:15:07Z</time>
      </trkpt>
      <trkpt lat="45.07816" lon="6.15733">
        <ele>1416</ele>
        <time>2024-08-09T13:15:08Z</time>
      </trkpt>
      <trkpt lat="45.07816" lon="6.15733">
        <ele>1415.4</ele>
        <time>2024-08-09T13:15:09Z</time>
      </trkpt>
      <trkpt lat="45.07814" lon="6.15733">
        <ele>1415.2</ele>
        <time>2024-08-09T13:15:10Z</time>
      </trkpt>
      <trkpt lat="45.07814" lon="6.15733">
        <ele>1414.8</ele>
        <time>2024-08-09T13:15:11Z</time>
      </trkpt>
      <trkpt lat="45.07811" lon="6.15733">
        <ele>1414.4</ele>
        <time>2024-08-09T13:15:12Z</time>
      </trkpt>
      <trkpt lat="45.07811" lon="6.15733">
        <ele>1414.2</ele>
        <time>2024-08-09T13:15:13Z</time>
      </trkpt>
      <trkpt lat="45.07809" lon="6.15734">
        <ele>1414.2</ele>
        <time>2024-08-09T13:15:14Z</time>
      </trkpt>
      <trkpt lat="45.07809" lon="6.15734">
        <ele>1413.6</ele>
        <time>2024-08-09T13:15:15Z</time>
      </trkpt>
      <trkpt lat="45.07806" lon="6.15735">
        <ele>1413.2</ele>
        <time>2024-08-09T13:15:16Z</time>
      </trkpt>
      <trkpt lat="45.07806" lon="6.15735">
        <ele>1413</ele>
        <time>2024-08-09T13:15:17Z</time>
      </trkpt>
      <trkpt lat="45.07805" lon="6.15736">
        <ele>1412.4</ele>
        <time>2024-08-09T13:15:18Z</time>
      </trkpt>
      <trkpt lat="45.07805" lon="6.15736">
        <ele>1412.2</ele>
        <time>2024-08-09T13:15:19Z</time>
      </trkpt>
      <trkpt lat="45.07803" lon="6.15738">
        <ele>1411.6</ele>
        <time>2024-08-09T13:15:20Z</time>
      </trkpt>
      <trkpt lat="45.07803" lon="6.15738">
        <ele>1411.4</ele>
        <time>2024-08-09T13:15:21Z</time>
      </trkpt>
      <trkpt lat="45.07802" lon="6.1574">
        <ele>1411.4</ele>
        <time>2024-08-09T13:15:22Z</time>
      </trkpt>
      <trkpt lat="45.07802" lon="6.1574">
        <ele>1411</ele>
        <time>2024-08-09T13:15:23Z</time>
      </trkpt>
      <trkpt lat="45.078" lon="6.15741">
        <ele>1410.8</ele>
        <time>2024-08-09T13:15:24Z</time>
      </trkpt>
      <trkpt lat="45.078" lon="6.15741">
        <ele>1410.8</ele>
        <time>2024-08-09T13:15:25Z</time>
      </trkpt>
      <trkpt lat="45.07798" lon="6.15741">
        <ele>1410.4</ele>
        <time>2024-08-09T13:15:26Z</time>
      </trkpt>
      <trkpt lat="45.07798" lon="6.15741">
        <ele>1409.8</ele>
        <time>2024-08-09T13:15:27Z</time>
      </trkpt>
      <trkpt lat="45.07797" lon="6.1574">
        <ele>1409.4</ele>
        <time>2024-08-09T13:15:28Z</time>
      </trkpt>
      <trkpt lat="45.07797" lon="6.1574">
        <ele>1409</ele>
        <time>2024-08-09T13:15:29Z</time>
      </trkpt>
      <trkpt lat="45.07794" lon="6.1574">
        <ele>1408.8</ele>
        <time>2024-08-09T13:15:30Z</time>
      </trkpt>
      <trkpt lat="45.07792" lon="6.1574">
        <ele>1408.2</ele>
        <time>2024-08-09T13:15:31Z</time>
      </trkpt>
      <trkpt lat="45.07792" lon="6.1574">
        <ele>1408</ele>
        <time>2024-08-09T13:15:32Z</time>
      </trkpt>
      <trkpt lat="45.07789" lon="6.15741">
        <ele>1408</ele>
        <time>2024-08-09T13:15:33Z</time>
      </trkpt>
      <trkpt lat="45.07789" lon="6.15741">
        <ele>1407.8</ele>
        <time>2024-08-09T13:15:34Z</time>
      </trkpt>
      <trkpt lat="45.07787" lon="6.15743">
        <ele>1407.6</ele>
        <time>2024-08-09T13:15:35Z</time>
      </trkpt>
      <trkpt lat="45.07787" lon="6.15743">
        <ele>1407.6</ele>
        <time>2024-08-09T13:15:36Z</time>
      </trkpt>
      <trkpt lat="45.07785" lon="6.15746">
        <ele>1407.4</ele>
        <time>2024-08-09T13:15:37Z</time>
      </trkpt>
      <trkpt lat="45.07785" lon="6.15746">
        <ele>1407.4</ele>
        <time>2024-08-09T13:15:38Z</time>
      </trkpt>
      <trkpt lat="45.07782" lon="6.15748">
        <ele>1407.4</ele>
        <time>2024-08-09T13:15:39Z</time>
      </trkpt>
      <trkpt lat="45.07782" lon="6.15748">
        <ele>1407.4</ele>
        <time>2024-08-09T13:15:40Z</time>
      </trkpt>
      <trkpt lat="45.07781" lon="6.15749">
        <ele>1407.2</ele>
        <time>2024-08-09T13:15:41Z</time>
      </trkpt>
      <trkpt lat="45.07779" lon="6.1575">
        <ele>1407.2</ele>
        <time>2024-08-09T13:15:42Z</time>
      </trkpt>
      <trkpt lat="45.07777" lon="6.15751">
        <ele>1407</ele>
        <time>2024-08-09T13:15:43Z</time>
      </trkpt>
      <trkpt lat="45.07777" lon="6.15751">
        <ele>1406.8</ele>
        <time>2024-08-09T13:15:44Z</time>
      </trkpt>
      <trkpt lat="45.07774" lon="6.15751">
        <ele>1406.8</ele>
        <time>2024-08-09T13:15:45Z</time>
      </trkpt>
      <trkpt lat="45.07774" lon="6.15751">
        <ele>1406.6</ele>
        <time>2024-08-09T13:15:46Z</time>
      </trkpt>
      <trkpt lat="45.07772" lon="6.1575">
        <ele>1406.6</ele>
        <time>2024-08-09T13:15:47Z</time>
      </trkpt>
      <trkpt lat="45.07772" lon="6.1575">
        <ele>1406.6</ele>
        <time>2024-08-09T13:15:48Z</time>
      </trkpt>
      <trkpt lat="45.07769" lon="6.15751">
        <ele>1406.6</ele>
        <time>2024-08-09T13:15:49Z</time>
      </trkpt>
      <trkpt lat="45.07769" lon="6.15751">
        <ele>1406.6</ele>
        <time>2024-08-09T13:15:50Z</time>
      </trkpt>
      <trkpt lat="45.07767" lon="6.15751">
        <ele>1406.6</ele>
        <time>2024-08-09T13:15:51Z</time>
      </trkpt>
      <trkpt lat="45.07767" lon="6.15751">
        <ele>1406.6</ele>
        <time>2024-08-09T13:15:52Z</time>
      </trkpt>
      <trkpt lat="45.07764" lon="6.15751">
        <ele>1406.4</ele>
        <time>2024-08-09T13:15:53Z</time>
      </trkpt>
      <trkpt lat="45.07764" lon="6.15751">
        <ele>1406.4</ele>
        <time>2024-08-09T13:15:54Z</time>
      </trkpt>
      <trkpt lat="45.07761" lon="6.15751">
        <ele>1406.2</ele>
        <time>2024-08-09T13:15:55Z</time>
      </trkpt>
      <trkpt lat="45.07761" lon="6.15751">
        <ele>1406.2</ele>
        <time>2024-08-09T13:15:56Z</time>
      </trkpt>
      <trkpt lat="45.07758" lon="6.15752">
        <ele>1406.2</ele>
        <time>2024-08-09T13:15:57Z</time>
      </trkpt>
      <trkpt lat="45.07758" lon="6.15752">
        <ele>1406.6</ele>
        <time>2024-08-09T13:15:58Z</time>
      </trkpt>
      <trkpt lat="45.07757" lon="6.15753">
        <ele>1406.8</ele>
        <time>2024-08-09T13:15:59Z</time>
      </trkpt>
      <trkpt lat="45.07757" lon="6.15753">
        <ele>1407.2</ele>
        <time>2024-08-09T13:16:00Z</time>
      </trkpt>
      <trkpt lat="45.07753" lon="6.15754">
        <ele>1407.2</ele>
        <time>2024-08-09T13:16:01Z</time>
      </trkpt>
      <trkpt lat="45.07753" lon="6.15754">
        <ele>1406.8</ele>
        <time>2024-08-09T13:16:02Z</time>
      </trkpt>
      <trkpt lat="45.07751" lon="6.15754">
        <ele>1406.8</ele>
        <time>2024-08-09T13:16:03Z</time>
      </trkpt>
      <trkpt lat="45.07751" lon="6.15754">
        <ele>1406.8</ele>
        <time>2024-08-09T13:16:04Z</time>
      </trkpt>
      <trkpt lat="45.07748" lon="6.15754">
        <ele>1406.8</ele>
        <time>2024-08-09T13:16:05Z</time>
      </trkpt>
      <trkpt lat="45.07748" lon="6.15754">
        <ele>1406.6</ele>
        <time>2024-08-09T13:16:06Z</time>
      </trkpt>
      <trkpt lat="45.07746" lon="6.15755">
        <ele>1406.6</ele>
        <time>2024-08-09T13:16:07Z</time>
      </trkpt>
      <trkpt lat="45.07746" lon="6.15755">
        <ele>1406.6</ele>
        <time>2024-08-09T13:16:08Z</time>
      </trkpt>
      <trkpt lat="45.07743" lon="6.15754">
        <ele>1406.6</ele>
        <time>2024-08-09T13:16:09Z</time>
      </trkpt>
      <trkpt lat="45.07743" lon="6.15754">
        <ele>1406.6</ele>
        <time>2024-08-09T13:16:10Z</time>
      </trkpt>
      <trkpt lat="45.07741" lon="6.15754">
        <ele>1406.4</ele>
        <time>2024-08-09T13:16:11Z</time>
      </trkpt>
      <trkpt lat="45.07741" lon="6.15754">
        <ele>1406.2</ele>
        <time>2024-08-09T13:16:12Z</time>
      </trkpt>
      <trkpt lat="45.07739" lon="6.15754">
        <ele>1406.2</ele>
        <time>2024-08-09T13:16:13Z</time>
      </trkpt>
      <trkpt lat="45.07739" lon="6.15754">
        <ele>1406.2</ele>
        <time>2024-08-09T13:16:14Z</time>
      </trkpt>
      <trkpt lat="45.07735" lon="6.15754">
        <ele>1406.2</ele>
        <time>2024-08-09T13:16:15Z</time>
      </trkpt>
      <trkpt lat="45.07735" lon="6.15754">
        <ele>1406</ele>
        <time>2024-08-09T13:16:16Z</time>
      </trkpt>
      <trkpt lat="45.07733" lon="6.15753">
        <ele>1406</ele>
        <time>2024-08-09T13:16:17Z</time>
      </trkpt>
      <trkpt lat="45.07733" lon="6.15753">
        <ele>1406.2</ele>
        <time>2024-08-09T13:16:18Z</time>
      </trkpt>
      <trkpt lat="45.07731" lon="6.15753">
        <ele>1406.4</ele>
        <time>2024-08-09T13:16:19Z</time>
      </trkpt>
      <trkpt lat="45.07731" lon="6.15753">
        <ele>1406.4</ele>
        <time>2024-08-09T13:16:20Z</time>
      </trkpt>
      <trkpt lat="45.07728" lon="6.15751">
        <ele>1406.2</ele>
        <time>2024-08-09T13:16:21Z</time>
      </trkpt>
      <trkpt lat="45.07728" lon="6.15751">
        <ele>1406.2</ele>
        <time>2024-08-09T13:16:22Z</time>
      </trkpt>
      <trkpt lat="45.07725" lon="6.15751">
        <ele>1406.4</ele>
        <time>2024-08-09T13:16:23Z</time>
      </trkpt>
      <trkpt lat="45.07725" lon="6.15751">
        <ele>1406.4</ele>
        <time>2024-08-09T13:16:24Z</time>
      </trkpt>
      <trkpt lat="45.07723" lon="6.1575">
        <ele>1406.4</ele>
        <time>2024-08-09T13:16:25Z</time>
      </trkpt>
      <trkpt lat="45.07723" lon="6.1575">
        <ele>1406.4</ele>
        <time>2024-08-09T13:16:26Z</time>
      </trkpt>
      <trkpt lat="45.0772" lon="6.15751">
        <ele>1406.4</ele>
        <time>2024-08-09T13:16:27Z</time>
      </trkpt>
      <trkpt lat="45.0772" lon="6.15751">
        <ele>1406.4</ele>
        <time>2024-08-09T13:16:28Z</time>
      </trkpt>
      <trkpt lat="45.07717" lon="6.1575">
        <ele>1406.6</ele>
        <time>2024-08-09T13:16:29Z</time>
      </trkpt>
      <trkpt lat="45.07717" lon="6.1575">
        <ele>1406.6</ele>
        <time>2024-08-09T13:16:30Z</time>
      </trkpt>
      <trkpt lat="45.07715" lon="6.15751">
        <ele>1406.6</ele>
        <time>2024-08-09T13:16:31Z</time>
      </trkpt>
      <trkpt lat="45.07715" lon="6.15751">
        <ele>1406.6</ele>
        <time>2024-08-09T13:16:32Z</time>
      </trkpt>
      <trkpt lat="45.07713" lon="6.1575">
        <ele>1406.6</ele>
        <time>2024-08-09T13:16:33Z</time>
      </trkpt>
      <trkpt lat="45.07713" lon="6.1575">
        <ele>1406.6</ele>
        <time>2024-08-09T13:16:34Z</time>
      </trkpt>
      <trkpt lat="45.0771" lon="6.1575">
        <ele>1407</ele>
        <time>2024-08-09T13:16:35Z</time>
      </trkpt>
      <trkpt lat="45.0771" lon="6.1575">
        <ele>1407</ele>
        <time>2024-08-09T13:16:36Z</time>
      </trkpt>
      <trkpt lat="45.07707" lon="6.1575">
        <ele>1407</ele>
        <time>2024-08-09T13:16:37Z</time>
      </trkpt>
      <trkpt lat="45.07707" lon="6.1575">
        <ele>1407</ele>
        <time>2024-08-09T13:16:38Z</time>
      </trkpt>
      <trkpt lat="45.07705" lon="6.15749">
        <ele>1407.2</ele>
        <time>2024-08-09T13:16:39Z</time>
      </trkpt>
      <trkpt lat="45.07705" lon="6.15749">
        <ele>1407.4</ele>
        <time>2024-08-09T13:16:40Z</time>
      </trkpt>
      <trkpt lat="45.07702" lon="6.1575">
        <ele>1407.6</ele>
        <time>2024-08-09T13:16:41Z</time>
      </trkpt>
      <trkpt lat="45.07702" lon="6.1575">
        <ele>1407.8</ele>
        <time>2024-08-09T13:16:42Z</time>
      </trkpt>
      <trkpt lat="45.077" lon="6.1575">
        <ele>1407.8</ele>
        <time>2024-08-09T13:16:43Z</time>
      </trkpt>
      <trkpt lat="45.077" lon="6.1575">
        <ele>1408</ele>
        <time>2024-08-09T13:16:44Z</time>
      </trkpt>
      <trkpt lat="45.07698" lon="6.1575">
        <ele>1408</ele>
        <time>2024-08-09T13:16:45Z</time>
      </trkpt>
      <trkpt lat="45.07698" lon="6.1575">
        <ele>1408.2</ele>
        <time>2024-08-09T13:16:46Z</time>
      </trkpt>
      <trkpt lat="45.07695" lon="6.15749">
        <ele>1408.4</ele>
        <time>2024-08-09T13:16:47Z</time>
      </trkpt>
      <trkpt lat="45.07695" lon="6.15749">
        <ele>1408.6</ele>
        <time>2024-08-09T13:16:48Z</time>
      </trkpt>
      <trkpt lat="45.07693" lon="6.15749">
        <ele>1409</ele>
        <time>2024-08-09T13:16:49Z</time>
      </trkpt>
      <trkpt lat="45.07693" lon="6.15749">
        <ele>1409</ele>
        <time>2024-08-09T13:16:50Z</time>
      </trkpt>
      <trkpt lat="45.07692" lon="6.15749">
        <ele>1409.2</ele>
        <time>2024-08-09T13:16:51Z</time>
      </trkpt>
      <trkpt lat="45.07692" lon="6.15749">
        <ele>1409.4</ele>
        <time>2024-08-09T13:16:52Z</time>
      </trkpt>
      <trkpt lat="45.0769" lon="6.15749">
        <ele>1409.6</ele>
        <time>2024-08-09T13:16:53Z</time>
      </trkpt>
      <trkpt lat="45.0769" lon="6.15749">
        <ele>1409.6</ele>
        <time>2024-08-09T13:16:54Z</time>
      </trkpt>
      <trkpt lat="45.07688" lon="6.15748">
        <ele>1410</ele>
        <time>2024-08-09T13:16:55Z</time>
      </trkpt>
      <trkpt lat="45.07688" lon="6.15748">
        <ele>1410.2</ele>
        <time>2024-08-09T13:16:56Z</time>
      </trkpt>
      <trkpt lat="45.07688" lon="6.15748">
        <ele>1410.4</ele>
        <time>2024-08-09T13:16:57Z</time>
      </trkpt>
      <trkpt lat="45.07686" lon="6.15746">
        <ele>1410.4</ele>
        <time>2024-08-09T13:16:58Z</time>
      </trkpt>
      <trkpt lat="45.07686" lon="6.15746">
        <ele>1410.6</ele>
        <time>2024-08-09T13:16:59Z</time>
      </trkpt>
      <trkpt lat="45.07686" lon="6.15746">
        <ele>1410.6</ele>
        <time>2024-08-09T13:17:00Z</time>
      </trkpt>
      <trkpt lat="45.07684" lon="6.15744">
        <ele>1411</ele>
        <time>2024-08-09T13:17:01Z</time>
      </trkpt>
      <trkpt lat="45.07684" lon="6.15744">
        <ele>1411.2</ele>
        <time>2024-08-09T13:17:02Z</time>
      </trkpt>
      <trkpt lat="45.07681" lon="6.15744">
        <ele>1411.2</ele>
        <time>2024-08-09T13:17:03Z</time>
      </trkpt>
      <trkpt lat="45.07681" lon="6.15744">
        <ele>1411.4</ele>
        <time>2024-08-09T13:17:04Z</time>
      </trkpt>
      <trkpt lat="45.07679" lon="6.15744">
        <ele>1411.8</ele>
        <time>2024-08-09T13:17:05Z</time>
      </trkpt>
      <trkpt lat="45.07679" lon="6.15744">
        <ele>1411.8</ele>
        <time>2024-08-09T13:17:06Z</time>
      </trkpt>
      <trkpt lat="45.07676" lon="6.15744">
        <ele>1411.8</ele>
        <time>2024-08-09T13:17:07Z</time>
      </trkpt>
      <trkpt lat="45.07676" lon="6.15744">
        <ele>1412</ele>
        <time>2024-08-09T13:17:08Z</time>
      </trkpt>
      <trkpt lat="45.07676" lon="6.15744">
        <ele>1412</ele>
        <time>2024-08-09T13:17:09Z</time>
      </trkpt>
      <trkpt lat="45.07674" lon="6.15743">
        <ele>1412.2</ele>
        <time>2024-08-09T13:17:10Z</time>
      </trkpt>
      <trkpt lat="45.07674" lon="6.15743">
        <ele>1412.4</ele>
        <time>2024-08-09T13:17:11Z</time>
      </trkpt>
      <trkpt lat="45.07672" lon="6.15742">
        <ele>1412.6</ele>
        <time>2024-08-09T13:17:12Z</time>
      </trkpt>
      <trkpt lat="45.07672" lon="6.15742">
        <ele>1412.6</ele>
        <time>2024-08-09T13:17:13Z</time>
      </trkpt>
      <trkpt lat="45.07669" lon="6.15742">
        <ele>1412.8</ele>
        <time>2024-08-09T13:17:14Z</time>
      </trkpt>
      <trkpt lat="45.07669" lon="6.15742">
        <ele>1412.8</ele>
        <time>2024-08-09T13:17:15Z</time>
      </trkpt>
      <trkpt lat="45.07666" lon="6.15744">
        <ele>1413</ele>
        <time>2024-08-09T13:17:16Z</time>
      </trkpt>
      <trkpt lat="45.07666" lon="6.15744">
        <ele>1413.4</ele>
        <time>2024-08-09T13:17:17Z</time>
      </trkpt>
      <trkpt lat="45.07666" lon="6.15744">
        <ele>1413.4</ele>
        <time>2024-08-09T13:17:18Z</time>
      </trkpt>
      <trkpt lat="45.07664" lon="6.15744">
        <ele>1413.6</ele>
        <time>2024-08-09T13:17:19Z</time>
      </trkpt>
      <trkpt lat="45.07664" lon="6.15744">
        <ele>1413.6</ele>
        <time>2024-08-09T13:17:20Z</time>
      </trkpt>
      <trkpt lat="45.07662" lon="6.15743">
        <ele>1413.8</ele>
        <time>2024-08-09T13:17:21Z</time>
      </trkpt>
      <trkpt lat="45.07662" lon="6.15743">
        <ele>1414</ele>
        <time>2024-08-09T13:17:22Z</time>
      </trkpt>
      <trkpt lat="45.0766" lon="6.15743">
        <ele>1414.2</ele>
        <time>2024-08-09T13:17:23Z</time>
      </trkpt>
      <trkpt lat="45.0766" lon="6.15743">
        <ele>1414.2</ele>
        <time>2024-08-09T13:17:24Z</time>
      </trkpt>
      <trkpt lat="45.07658" lon="6.15743">
        <ele>1414.4</ele>
        <time>2024-08-09T13:17:25Z</time>
      </trkpt>
      <trkpt lat="45.07658" lon="6.15743">
        <ele>1414.6</ele>
        <time>2024-08-09T13:17:26Z</time>
      </trkpt>
      <trkpt lat="45.07655" lon="6.15742">
        <ele>1414.8</ele>
        <time>2024-08-09T13:17:27Z</time>
      </trkpt>
      <trkpt lat="45.07655" lon="6.15742">
        <ele>1414.8</ele>
        <time>2024-08-09T13:17:28Z</time>
      </trkpt>
      <trkpt lat="45.07653" lon="6.15742">
        <ele>1414.8</ele>
        <time>2024-08-09T13:17:29Z</time>
      </trkpt>
      <trkpt lat="45.07653" lon="6.15742">
        <ele>1415</ele>
        <time>2024-08-09T13:17:30Z</time>
      </trkpt>
      <trkpt lat="45.07651" lon="6.15742">
        <ele>1415</ele>
        <time>2024-08-09T13:17:31Z</time>
      </trkpt>
      <trkpt lat="45.07651" lon="6.15742">
        <ele>1415.2</ele>
        <time>2024-08-09T13:17:32Z</time>
      </trkpt>
      <trkpt lat="45.07649" lon="6.1574">
        <ele>1415.4</ele>
        <time>2024-08-09T13:17:33Z</time>
      </trkpt>
      <trkpt lat="45.07648" lon="6.15739">
        <ele>1415.4</ele>
        <time>2024-08-09T13:17:34Z</time>
      </trkpt>
      <trkpt lat="45.07648" lon="6.15739">
        <ele>1415.4</ele>
        <time>2024-08-09T13:17:35Z</time>
      </trkpt>
      <trkpt lat="45.07646" lon="6.15738">
        <ele>1415.4</ele>
        <time>2024-08-09T13:17:36Z</time>
      </trkpt>
      <trkpt lat="45.07646" lon="6.15738">
        <ele>1415.4</ele>
        <time>2024-08-09T13:17:37Z</time>
      </trkpt>
      <trkpt lat="45.07644" lon="6.15736">
        <ele>1415.4</ele>
        <time>2024-08-09T13:17:38Z</time>
      </trkpt>
      <trkpt lat="45.07644" lon="6.15736">
        <ele>1415.4</ele>
        <time>2024-08-09T13:17:39Z</time>
      </trkpt>
      <trkpt lat="45.07642" lon="6.15734">
        <ele>1415.4</ele>
        <time>2024-08-09T13:17:40Z</time>
      </trkpt>
      <trkpt lat="45.07642" lon="6.15734">
        <ele>1415.2</ele>
        <time>2024-08-09T13:17:41Z</time>
      </trkpt>
      <trkpt lat="45.0764" lon="6.15733">
        <ele>1415</ele>
        <time>2024-08-09T13:17:42Z</time>
      </trkpt>
      <trkpt lat="45.0764" lon="6.15733">
        <ele>1415</ele>
        <time>2024-08-09T13:17:43Z</time>
      </trkpt>
      <trkpt lat="45.07638" lon="6.15731">
        <ele>1415</ele>
        <time>2024-08-09T13:17:44Z</time>
      </trkpt>
      <trkpt lat="45.07638" lon="6.15731">
        <ele>1415.2</ele>
        <time>2024-08-09T13:17:45Z</time>
      </trkpt>
      <trkpt lat="45.07635" lon="6.1573">
        <ele>1415.2</ele>
        <time>2024-08-09T13:17:46Z</time>
      </trkpt>
      <trkpt lat="45.07635" lon="6.1573">
        <ele>1415.4</ele>
        <time>2024-08-09T13:17:47Z</time>
      </trkpt>
      <trkpt lat="45.07633" lon="6.15728">
        <ele>1415.4</ele>
        <time>2024-08-09T13:17:48Z</time>
      </trkpt>
      <trkpt lat="45.07633" lon="6.15728">
        <ele>1415.4</ele>
        <time>2024-08-09T13:17:49Z</time>
      </trkpt>
      <trkpt lat="45.0763" lon="6.15726">
        <ele>1415.4</ele>
        <time>2024-08-09T13:17:50Z</time>
      </trkpt>
      <trkpt lat="45.0763" lon="6.15726">
        <ele>1415.4</ele>
        <time>2024-08-09T13:17:51Z</time>
      </trkpt>
      <trkpt lat="45.07628" lon="6.15724">
        <ele>1415.6</ele>
        <time>2024-08-09T13:17:52Z</time>
      </trkpt>
      <trkpt lat="45.07628" lon="6.15724">
        <ele>1415.8</ele>
        <time>2024-08-09T13:17:53Z</time>
      </trkpt>
      <trkpt lat="45.07626" lon="6.15723">
        <ele>1416</ele>
        <time>2024-08-09T13:17:54Z</time>
      </trkpt>
      <trkpt lat="45.07626" lon="6.15723">
        <ele>1416</ele>
        <time>2024-08-09T13:17:55Z</time>
      </trkpt>
      <trkpt lat="45.07623" lon="6.1572">
        <ele>1416</ele>
        <time>2024-08-09T13:17:56Z</time>
      </trkpt>
      <trkpt lat="45.07623" lon="6.1572">
        <ele>1416</ele>
        <time>2024-08-09T13:17:57Z</time>
      </trkpt>
      <trkpt lat="45.07621" lon="6.1572">
        <ele>1416</ele>
        <time>2024-08-09T13:17:58Z</time>
      </trkpt>
      <trkpt lat="45.07621" lon="6.1572">
        <ele>1416</ele>
        <time>2024-08-09T13:17:59Z</time>
      </trkpt>
      <trkpt lat="45.07619" lon="6.15719">
        <ele>1416</ele>
        <time>2024-08-09T13:18:00Z</time>
      </trkpt>
      <trkpt lat="45.07619" lon="6.15719">
        <ele>1416.4</ele>
        <time>2024-08-09T13:18:01Z</time>
      </trkpt>
      <trkpt lat="45.07616" lon="6.15718">
        <ele>1416</ele>
        <time>2024-08-09T13:18:02Z</time>
      </trkpt>
      <trkpt lat="45.07616" lon="6.15718">
        <ele>1416</ele>
        <time>2024-08-09T13:18:03Z</time>
      </trkpt>
      <trkpt lat="45.07614" lon="6.15718">
        <ele>1416</ele>
        <time>2024-08-09T13:18:04Z</time>
      </trkpt>
      <trkpt lat="45.07614" lon="6.15718">
        <ele>1416</ele>
        <time>2024-08-09T13:18:05Z</time>
      </trkpt>
      <trkpt lat="45.07612" lon="6.15716">
        <ele>1416.2</ele>
        <time>2024-08-09T13:18:06Z</time>
      </trkpt>
      <trkpt lat="45.07612" lon="6.15716">
        <ele>1416.2</ele>
        <time>2024-08-09T13:18:07Z</time>
      </trkpt>
      <trkpt lat="45.07609" lon="6.15714">
        <ele>1416.2</ele>
        <time>2024-08-09T13:18:08Z</time>
      </trkpt>
      <trkpt lat="45.07609" lon="6.15714">
        <ele>1416</ele>
        <time>2024-08-09T13:18:09Z</time>
      </trkpt>
      <trkpt lat="45.07606" lon="6.15712">
        <ele>1415.8</ele>
        <time>2024-08-09T13:18:10Z</time>
      </trkpt>
      <trkpt lat="45.07606" lon="6.15712">
        <ele>1415.4</ele>
        <time>2024-08-09T13:18:11Z</time>
      </trkpt>
      <trkpt lat="45.07604" lon="6.15712">
        <ele>1415.4</ele>
        <time>2024-08-09T13:18:12Z</time>
      </trkpt>
      <trkpt lat="45.07604" lon="6.15712">
        <ele>1415.4</ele>
        <time>2024-08-09T13:18:13Z</time>
      </trkpt>
      <trkpt lat="45.07602" lon="6.15711">
        <ele>1415.4</ele>
        <time>2024-08-09T13:18:14Z</time>
      </trkpt>
      <trkpt lat="45.07602" lon="6.15711">
        <ele>1415.4</ele>
        <time>2024-08-09T13:18:15Z</time>
      </trkpt>
      <trkpt lat="45.07599" lon="6.15712">
        <ele>1415.4</ele>
        <time>2024-08-09T13:18:16Z</time>
      </trkpt>
      <trkpt lat="45.07599" lon="6.15712">
        <ele>1415.6</ele>
        <time>2024-08-09T13:18:17Z</time>
      </trkpt>
      <trkpt lat="45.07596" lon="6.15712">
        <ele>1415.6</ele>
        <time>2024-08-09T13:18:18Z</time>
      </trkpt>
      <trkpt lat="45.07596" lon="6.15712">
        <ele>1415.6</ele>
        <time>2024-08-09T13:18:19Z</time>
      </trkpt>
      <trkpt lat="45.07593" lon="6.15711">
        <ele>1415.4</ele>
        <time>2024-08-09T13:18:20Z</time>
      </trkpt>
      <trkpt lat="45.07593" lon="6.15711">
        <ele>1415.4</ele>
        <time>2024-08-09T13:18:21Z</time>
      </trkpt>
      <trkpt lat="45.07593" lon="6.15711">
        <ele>1415.4</ele>
        <time>2024-08-09T13:18:22Z</time>
      </trkpt>
      <trkpt lat="45.0759" lon="6.15711">
        <ele>1415.4</ele>
        <time>2024-08-09T13:18:23Z</time>
      </trkpt>
      <trkpt lat="45.0759" lon="6.15711">
        <ele>1415.8</ele>
        <time>2024-08-09T13:18:24Z</time>
      </trkpt>
      <trkpt lat="45.0759" lon="6.15711">
        <ele>1415.8</ele>
        <time>2024-08-09T13:18:25Z</time>
      </trkpt>
      <trkpt lat="45.07588" lon="6.1571">
        <ele>1415.8</ele>
        <time>2024-08-09T13:18:26Z</time>
      </trkpt>
      <trkpt lat="45.07586" lon="6.1571">
        <ele>1416.2</ele>
        <time>2024-08-09T13:18:27Z</time>
      </trkpt>
      <trkpt lat="45.07586" lon="6.1571">
        <ele>1416.2</ele>
        <time>2024-08-09T13:18:28Z</time>
      </trkpt>
      <trkpt lat="45.07583" lon="6.15709">
        <ele>1416.2</ele>
        <time>2024-08-09T13:18:29Z</time>
      </trkpt>
      <trkpt lat="45.07581" lon="6.15708">
        <ele>1416.2</ele>
        <time>2024-08-09T13:18:30Z</time>
      </trkpt>
      <trkpt lat="45.07581" lon="6.15708">
        <ele>1416.2</ele>
        <time>2024-08-09T13:18:31Z</time>
      </trkpt>
      <trkpt lat="45.07579" lon="6.15708">
        <ele>1416.2</ele>
        <time>2024-08-09T13:18:32Z</time>
      </trkpt>
      <trkpt lat="45.07576" lon="6.15708">
        <ele>1416.2</ele>
        <time>2024-08-09T13:18:33Z</time>
      </trkpt>
      <trkpt lat="45.07576" lon="6.15708">
        <ele>1416.2</ele>
        <time>2024-08-09T13:18:34Z</time>
      </trkpt>
      <trkpt lat="45.07574" lon="6.15706">
        <ele>1416.2</ele>
        <time>2024-08-09T13:18:35Z</time>
      </trkpt>
      <trkpt lat="45.07574" lon="6.15706">
        <ele>1416</ele>
        <time>2024-08-09T13:18:36Z</time>
      </trkpt>
      <trkpt lat="45.07571" lon="6.15706">
        <ele>1415.8</ele>
        <time>2024-08-09T13:18:37Z</time>
      </trkpt>
      <trkpt lat="45.07571" lon="6.15706">
        <ele>1415.6</ele>
        <time>2024-08-09T13:18:38Z</time>
      </trkpt>
      <trkpt lat="45.07568" lon="6.15707">
        <ele>1415.4</ele>
        <time>2024-08-09T13:18:39Z</time>
      </trkpt>
      <trkpt lat="45.07568" lon="6.15707">
        <ele>1415.4</ele>
        <time>2024-08-09T13:18:40Z</time>
      </trkpt>
      <trkpt lat="45.07565" lon="6.1571">
        <ele>1415.4</ele>
        <time>2024-08-09T13:18:41Z</time>
      </trkpt>
      <trkpt lat="45.07565" lon="6.1571">
        <ele>1415.4</ele>
        <time>2024-08-09T13:18:42Z</time>
      </trkpt>
      <trkpt lat="45.07563" lon="6.15711">
        <ele>1415.2</ele>
        <time>2024-08-09T13:18:43Z</time>
      </trkpt>
      <trkpt lat="45.07563" lon="6.15711">
        <ele>1415.2</ele>
        <time>2024-08-09T13:18:44Z</time>
      </trkpt>
      <trkpt lat="45.07561" lon="6.15713">
        <ele>1415.2</ele>
        <time>2024-08-09T13:18:45Z</time>
      </trkpt>
      <trkpt lat="45.07561" lon="6.15713">
        <ele>1415.2</ele>
        <time>2024-08-09T13:18:46Z</time>
      </trkpt>
      <trkpt lat="45.07558" lon="6.15714">
        <ele>1415.2</ele>
        <time>2024-08-09T13:18:47Z</time>
      </trkpt>
      <trkpt lat="45.07558" lon="6.15714">
        <ele>1415.2</ele>
        <time>2024-08-09T13:18:48Z</time>
      </trkpt>
      <trkpt lat="45.07556" lon="6.15715">
        <ele>1415.2</ele>
        <time>2024-08-09T13:18:49Z</time>
      </trkpt>
      <trkpt lat="45.07556" lon="6.15715">
        <ele>1415.2</ele>
        <time>2024-08-09T13:18:50Z</time>
      </trkpt>
      <trkpt lat="45.07554" lon="6.15716">
        <ele>1415.2</ele>
        <time>2024-08-09T13:18:51Z</time>
      </trkpt>
      <trkpt lat="45.07554" lon="6.15716">
        <ele>1415.4</ele>
        <time>2024-08-09T13:18:52Z</time>
      </trkpt>
      <trkpt lat="45.07552" lon="6.15718">
        <ele>1415.4</ele>
        <time>2024-08-09T13:18:53Z</time>
      </trkpt>
      <trkpt lat="45.07552" lon="6.15718">
        <ele>1415.2</ele>
        <time>2024-08-09T13:18:54Z</time>
      </trkpt>
      <trkpt lat="45.0755" lon="6.15719">
        <ele>1415.2</ele>
        <time>2024-08-09T13:18:55Z</time>
      </trkpt>
      <trkpt lat="45.07548" lon="6.15719">
        <ele>1415.2</ele>
        <time>2024-08-09T13:18:56Z</time>
      </trkpt>
      <trkpt lat="45.07546" lon="6.1572">
        <ele>1415</ele>
        <time>2024-08-09T13:18:57Z</time>
      </trkpt>
      <trkpt lat="45.07546" lon="6.1572">
        <ele>1415</ele>
        <time>2024-08-09T13:18:58Z</time>
      </trkpt>
      <trkpt lat="45.07543" lon="6.15722">
        <ele>1415</ele>
        <time>2024-08-09T13:18:59Z</time>
      </trkpt>
      <trkpt lat="45.07543" lon="6.15722">
        <ele>1415</ele>
        <time>2024-08-09T13:19:00Z</time>
      </trkpt>
      <trkpt lat="45.07541" lon="6.15724">
        <ele>1415</ele>
        <time>2024-08-09T13:19:01Z</time>
      </trkpt>
      <trkpt lat="45.07541" lon="6.15724">
        <ele>1414.6</ele>
        <time>2024-08-09T13:19:02Z</time>
      </trkpt>
      <trkpt lat="45.07539" lon="6.15727">
        <ele>1414.6</ele>
        <time>2024-08-09T13:19:03Z</time>
      </trkpt>
      <trkpt lat="45.07539" lon="6.15727">
        <ele>1414.4</ele>
        <time>2024-08-09T13:19:04Z</time>
      </trkpt>
      <trkpt lat="45.07536" lon="6.15729">
        <ele>1414.4</ele>
        <time>2024-08-09T13:19:05Z</time>
      </trkpt>
      <trkpt lat="45.07536" lon="6.15729">
        <ele>1414</ele>
        <time>2024-08-09T13:19:06Z</time>
      </trkpt>
      <trkpt lat="45.07534" lon="6.15732">
        <ele>1414</ele>
        <time>2024-08-09T13:19:07Z</time>
      </trkpt>
      <trkpt lat="45.07534" lon="6.15732">
        <ele>1413.8</ele>
        <time>2024-08-09T13:19:08Z</time>
      </trkpt>
      <trkpt lat="45.07532" lon="6.15734">
        <ele>1413.8</ele>
        <time>2024-08-09T13:19:09Z</time>
      </trkpt>
      <trkpt lat="45.07532" lon="6.15734">
        <ele>1413.2</ele>
        <time>2024-08-09T13:19:10Z</time>
      </trkpt>
      <trkpt lat="45.07531" lon="6.15737">
        <ele>1412.6</ele>
        <time>2024-08-09T13:19:11Z</time>
      </trkpt>
      <trkpt lat="45.07531" lon="6.15737">
        <ele>1412.4</ele>
        <time>2024-08-09T13:19:12Z</time>
      </trkpt>
      <trkpt lat="45.07529" lon="6.15739">
        <ele>1412.4</ele>
        <time>2024-08-09T13:19:13Z</time>
      </trkpt>
      <trkpt lat="45.07529" lon="6.15739">
        <ele>1412</ele>
        <time>2024-08-09T13:19:14Z</time>
      </trkpt>
      <trkpt lat="45.07526" lon="6.15741">
        <ele>1411.8</ele>
        <time>2024-08-09T13:19:15Z</time>
      </trkpt>
      <trkpt lat="45.07526" lon="6.15741">
        <ele>1411.6</ele>
        <time>2024-08-09T13:19:16Z</time>
      </trkpt>
      <trkpt lat="45.07525" lon="6.15744">
        <ele>1411.2</ele>
        <time>2024-08-09T13:19:17Z</time>
      </trkpt>
      <trkpt lat="45.07525" lon="6.15744">
        <ele>1411.2</ele>
        <time>2024-08-09T13:19:18Z</time>
      </trkpt>
      <trkpt lat="45.07525" lon="6.15744">
        <ele>1411.2</ele>
        <time>2024-08-09T13:19:19Z</time>
      </trkpt>
      <trkpt lat="45.07525" lon="6.15744">
        <ele>1411.2</ele>
        <time>2024-08-09T13:19:20Z</time>
      </trkpt>
      <trkpt lat="45.07524" lon="6.15746">
        <ele>1411.6</ele>
        <time>2024-08-09T13:19:21Z</time>
      </trkpt>
      <trkpt lat="45.07524" lon="6.15746">
        <ele>1411.6</ele>
        <time>2024-08-09T13:19:22Z</time>
      </trkpt>
      <trkpt lat="45.07524" lon="6.15746">
        <ele>1411.6</ele>
        <time>2024-08-09T13:19:23Z</time>
      </trkpt>
      <trkpt lat="45.07522" lon="6.15748">
        <ele>1411.4</ele>
        <time>2024-08-09T13:19:24Z</time>
      </trkpt>
      <trkpt lat="45.07522" lon="6.15748">
        <ele>1411.4</ele>
        <time>2024-08-09T13:19:25Z</time>
      </trkpt>
      <trkpt lat="45.0752" lon="6.15749">
        <ele>1411.2</ele>
        <time>2024-08-09T13:19:26Z</time>
      </trkpt>
      <trkpt lat="45.0752" lon="6.15749">
        <ele>1411.2</ele>
        <time>2024-08-09T13:19:27Z</time>
      </trkpt>
      <trkpt lat="45.07518" lon="6.1575">
        <ele>1411</ele>
        <time>2024-08-09T13:19:28Z</time>
      </trkpt>
      <trkpt lat="45.07518" lon="6.1575">
        <ele>1410.6</ele>
        <time>2024-08-09T13:19:29Z</time>
      </trkpt>
      <trkpt lat="45.07517" lon="6.15751">
        <ele>1410.4</ele>
        <time>2024-08-09T13:19:30Z</time>
      </trkpt>
      <trkpt lat="45.07515" lon="6.15751">
        <ele>1410.2</ele>
        <time>2024-08-09T13:19:31Z</time>
      </trkpt>
      <trkpt lat="45.07515" lon="6.15751">
        <ele>1409.8</ele>
        <time>2024-08-09T13:19:32Z</time>
      </trkpt>
      <trkpt lat="45.07512" lon="6.15753">
        <ele>1409.6</ele>
        <time>2024-08-09T13:19:33Z</time>
      </trkpt>
      <trkpt lat="45.07512" lon="6.15753">
        <ele>1409.4</ele>
        <time>2024-08-09T13:19:34Z</time>
      </trkpt>
      <trkpt lat="45.07509" lon="6.15753">
        <ele>1409</ele>
        <time>2024-08-09T13:19:35Z</time>
      </trkpt>
      <trkpt lat="45.07509" lon="6.15753">
        <ele>1408.6</ele>
        <time>2024-08-09T13:19:36Z</time>
      </trkpt>
      <trkpt lat="45.07506" lon="6.15754">
        <ele>1408.4</ele>
        <time>2024-08-09T13:19:37Z</time>
      </trkpt>
      <trkpt lat="45.07504" lon="6.15754">
        <ele>1408.4</ele>
        <time>2024-08-09T13:19:38Z</time>
      </trkpt>
      <trkpt lat="45.07504" lon="6.15754">
        <ele>1408</ele>
        <time>2024-08-09T13:19:39Z</time>
      </trkpt>
      <trkpt lat="45.07501" lon="6.15754">
        <ele>1407.6</ele>
        <time>2024-08-09T13:19:40Z</time>
      </trkpt>
      <trkpt lat="45.07501" lon="6.15754">
        <ele>1407.2</ele>
        <time>2024-08-09T13:19:41Z</time>
      </trkpt>
      <trkpt lat="45.07498" lon="6.15753">
        <ele>1406.8</ele>
        <time>2024-08-09T13:19:42Z</time>
      </trkpt>
      <trkpt lat="45.07498" lon="6.15753">
        <ele>1406.8</ele>
        <time>2024-08-09T13:19:43Z</time>
      </trkpt>
      <trkpt lat="45.07495" lon="6.15753">
        <ele>1406.4</ele>
        <time>2024-08-09T13:19:44Z</time>
      </trkpt>
      <trkpt lat="45.07495" lon="6.15753">
        <ele>1406.2</ele>
        <time>2024-08-09T13:19:45Z</time>
      </trkpt>
      <trkpt lat="45.07492" lon="6.15752">
        <ele>1406</ele>
        <time>2024-08-09T13:19:46Z</time>
      </trkpt>
      <trkpt lat="45.07492" lon="6.15752">
        <ele>1406</ele>
        <time>2024-08-09T13:19:47Z</time>
      </trkpt>
      <trkpt lat="45.07489" lon="6.15751">
        <ele>1405.8</ele>
        <time>2024-08-09T13:19:48Z</time>
      </trkpt>
      <trkpt lat="45.07489" lon="6.15751">
        <ele>1405.8</ele>
        <time>2024-08-09T13:19:49Z</time>
      </trkpt>
      <trkpt lat="45.07486" lon="6.15751">
        <ele>1406</ele>
        <time>2024-08-09T13:19:50Z</time>
      </trkpt>
      <trkpt lat="45.07486" lon="6.15751">
        <ele>1406</ele>
        <time>2024-08-09T13:19:51Z</time>
      </trkpt>
      <trkpt lat="45.07484" lon="6.1575">
        <ele>1405.8</ele>
        <time>2024-08-09T13:19:52Z</time>
      </trkpt>
      <trkpt lat="45.07484" lon="6.1575">
        <ele>1405.8</ele>
        <time>2024-08-09T13:19:53Z</time>
      </trkpt>
      <trkpt lat="45.07481" lon="6.15748">
        <ele>1405.8</ele>
        <time>2024-08-09T13:19:54Z</time>
      </trkpt>
      <trkpt lat="45.07481" lon="6.15748">
        <ele>1405.8</ele>
        <time>2024-08-09T13:19:55Z</time>
      </trkpt>
      <trkpt lat="45.07478" lon="6.15746">
        <ele>1405.6</ele>
        <time>2024-08-09T13:19:56Z</time>
      </trkpt>
      <trkpt lat="45.07478" lon="6.15746">
        <ele>1405.6</ele>
        <time>2024-08-09T13:19:57Z</time>
      </trkpt>
      <trkpt lat="45.07476" lon="6.15744">
        <ele>1405.6</ele>
        <time>2024-08-09T13:19:58Z</time>
      </trkpt>
      <trkpt lat="45.07476" lon="6.15744">
        <ele>1405.4</ele>
        <time>2024-08-09T13:19:59Z</time>
      </trkpt>
      <trkpt lat="45.07473" lon="6.15743">
        <ele>1405.4</ele>
        <time>2024-08-09T13:20:00Z</time>
      </trkpt>
      <trkpt lat="45.07473" lon="6.15743">
        <ele>1405.8</ele>
        <time>2024-08-09T13:20:01Z</time>
      </trkpt>
      <trkpt lat="45.0747" lon="6.15741">
        <ele>1406</ele>
        <time>2024-08-09T13:20:02Z</time>
      </trkpt>
      <trkpt lat="45.0747" lon="6.15741">
        <ele>1406</ele>
        <time>2024-08-09T13:20:03Z</time>
      </trkpt>
      <trkpt lat="45.07468" lon="6.15739">
        <ele>1405.8</ele>
        <time>2024-08-09T13:20:04Z</time>
      </trkpt>
      <trkpt lat="45.07468" lon="6.15739">
        <ele>1405.8</ele>
        <time>2024-08-09T13:20:05Z</time>
      </trkpt>
      <trkpt lat="45.07465" lon="6.15739">
        <ele>1405.8</ele>
        <time>2024-08-09T13:20:06Z</time>
      </trkpt>
      <trkpt lat="45.07465" lon="6.15739">
        <ele>1405.8</ele>
        <time>2024-08-09T13:20:07Z</time>
      </trkpt>
      <trkpt lat="45.07463" lon="6.15737">
        <ele>1405.8</ele>
        <time>2024-08-09T13:20:08Z</time>
      </trkpt>
      <trkpt lat="45.07463" lon="6.15737">
        <ele>1405.8</ele>
        <time>2024-08-09T13:20:09Z</time>
      </trkpt>
      <trkpt lat="45.0746" lon="6.15735">
        <ele>1405.6</ele>
        <time>2024-08-09T13:20:10Z</time>
      </trkpt>
      <trkpt lat="45.0746" lon="6.15735">
        <ele>1405.4</ele>
        <time>2024-08-09T13:20:11Z</time>
      </trkpt>
      <trkpt lat="45.07457" lon="6.15734">
        <ele>1405.2</ele>
        <time>2024-08-09T13:20:12Z</time>
      </trkpt>
      <trkpt lat="45.07457" lon="6.15734">
        <ele>1405</ele>
        <time>2024-08-09T13:20:13Z</time>
      </trkpt>
      <trkpt lat="45.07454" lon="6.15733">
        <ele>1404.8</ele>
        <time>2024-08-09T13:20:14Z</time>
      </trkpt>
      <trkpt lat="45.07454" lon="6.15733">
        <ele>1404.8</ele>
        <time>2024-08-09T13:20:15Z</time>
      </trkpt>
      <trkpt lat="45.07452" lon="6.15732">
        <ele>1404.8</ele>
        <time>2024-08-09T13:20:16Z</time>
      </trkpt>
      <trkpt lat="45.07452" lon="6.15732">
        <ele>1404.8</ele>
        <time>2024-08-09T13:20:17Z</time>
      </trkpt>
      <trkpt lat="45.07449" lon="6.15731">
        <ele>1404.6</ele>
        <time>2024-08-09T13:20:18Z</time>
      </trkpt>
      <trkpt lat="45.07447" lon="6.1573">
        <ele>1404.6</ele>
        <time>2024-08-09T13:20:19Z</time>
      </trkpt>
      <trkpt lat="45.07447" lon="6.1573">
        <ele>1404.4</ele>
        <time>2024-08-09T13:20:20Z</time>
      </trkpt>
      <trkpt lat="45.07445" lon="6.15728">
        <ele>1403.8</ele>
        <time>2024-08-09T13:20:21Z</time>
      </trkpt>
      <trkpt lat="45.07445" lon="6.15728">
        <ele>1403.8</ele>
        <time>2024-08-09T13:20:22Z</time>
      </trkpt>
      <trkpt lat="45.07442" lon="6.15727">
        <ele>1404</ele>
        <time>2024-08-09T13:20:23Z</time>
      </trkpt>
      <trkpt lat="45.07442" lon="6.15727">
        <ele>1404</ele>
        <time>2024-08-09T13:20:24Z</time>
      </trkpt>
      <trkpt lat="45.0744" lon="6.15725">
        <ele>1403.8</ele>
        <time>2024-08-09T13:20:25Z</time>
      </trkpt>
      <trkpt lat="45.07439" lon="6.15722">
        <ele>1403.4</ele>
        <time>2024-08-09T13:20:26Z</time>
      </trkpt>
      <trkpt lat="45.07439" lon="6.15722">
        <ele>1403.2</ele>
        <time>2024-08-09T13:20:27Z</time>
      </trkpt>
      <trkpt lat="45.07437" lon="6.1572">
        <ele>1403</ele>
        <time>2024-08-09T13:20:28Z</time>
      </trkpt>
      <trkpt lat="45.07437" lon="6.1572">
        <ele>1402.8</ele>
        <time>2024-08-09T13:20:29Z</time>
      </trkpt>
      <trkpt lat="45.07435" lon="6.15718">
        <ele>1402.8</ele>
        <time>2024-08-09T13:20:30Z</time>
      </trkpt>
      <trkpt lat="45.07435" lon="6.15718">
        <ele>1402.6</ele>
        <time>2024-08-09T13:20:31Z</time>
      </trkpt>
      <trkpt lat="45.07432" lon="6.15717">
        <ele>1402.2</ele>
        <time>2024-08-09T13:20:32Z</time>
      </trkpt>
      <trkpt lat="45.07432" lon="6.15717">
        <ele>1402</ele>
        <time>2024-08-09T13:20:33Z</time>
      </trkpt>
      <trkpt lat="45.07429" lon="6.15715">
        <ele>1401.8</ele>
        <time>2024-08-09T13:20:34Z</time>
      </trkpt>
      <trkpt lat="45.07429" lon="6.15715">
        <ele>1401.6</ele>
        <time>2024-08-09T13:20:35Z</time>
      </trkpt>
      <trkpt lat="45.07428" lon="6.15713">
        <ele>1401</ele>
        <time>2024-08-09T13:20:36Z</time>
      </trkpt>
      <trkpt lat="45.07428" lon="6.15713">
        <ele>1401</ele>
        <time>2024-08-09T13:20:37Z</time>
      </trkpt>
      <trkpt lat="45.07426" lon="6.15711">
        <ele>1400.8</ele>
        <time>2024-08-09T13:20:38Z</time>
      </trkpt>
      <trkpt lat="45.07426" lon="6.15711">
        <ele>1400.6</ele>
        <time>2024-08-09T13:20:39Z</time>
      </trkpt>
      <trkpt lat="45.07423" lon="6.15708">
        <ele>1400</ele>
        <time>2024-08-09T13:20:40Z</time>
      </trkpt>
      <trkpt lat="45.07423" lon="6.15708">
        <ele>1400</ele>
        <time>2024-08-09T13:20:41Z</time>
      </trkpt>
      <trkpt lat="45.07421" lon="6.15705">
        <ele>1400</ele>
        <time>2024-08-09T13:20:42Z</time>
      </trkpt>
      <trkpt lat="45.07421" lon="6.15705">
        <ele>1399.8</ele>
        <time>2024-08-09T13:20:43Z</time>
      </trkpt>
      <trkpt lat="45.07418" lon="6.15704">
        <ele>1399.4</ele>
        <time>2024-08-09T13:20:44Z</time>
      </trkpt>
      <trkpt lat="45.07418" lon="6.15704">
        <ele>1399.2</ele>
        <time>2024-08-09T13:20:45Z</time>
      </trkpt>
      <trkpt lat="45.07416" lon="6.15703">
        <ele>1399.2</ele>
        <time>2024-08-09T13:20:46Z</time>
      </trkpt>
      <trkpt lat="45.07416" lon="6.15703">
        <ele>1398.8</ele>
        <time>2024-08-09T13:20:47Z</time>
      </trkpt>
      <trkpt lat="45.07413" lon="6.15701">
        <ele>1398.4</ele>
        <time>2024-08-09T13:20:48Z</time>
      </trkpt>
      <trkpt lat="45.07413" lon="6.15701">
        <ele>1398.4</ele>
        <time>2024-08-09T13:20:49Z</time>
      </trkpt>
      <trkpt lat="45.0741" lon="6.157">
        <ele>1398.2</ele>
        <time>2024-08-09T13:20:50Z</time>
      </trkpt>
      <trkpt lat="45.0741" lon="6.157">
        <ele>1398</ele>
        <time>2024-08-09T13:20:51Z</time>
      </trkpt>
      <trkpt lat="45.07408" lon="6.15698">
        <ele>1397.8</ele>
        <time>2024-08-09T13:20:52Z</time>
      </trkpt>
      <trkpt lat="45.07408" lon="6.15698">
        <ele>1397.6</ele>
        <time>2024-08-09T13:20:53Z</time>
      </trkpt>
      <trkpt lat="45.07405" lon="6.15697">
        <ele>1397.4</ele>
        <time>2024-08-09T13:20:54Z</time>
      </trkpt>
      <trkpt lat="45.07405" lon="6.15697">
        <ele>1397.2</ele>
        <time>2024-08-09T13:20:55Z</time>
      </trkpt>
      <trkpt lat="45.07403" lon="6.15695">
        <ele>1397</ele>
        <time>2024-08-09T13:20:56Z</time>
      </trkpt>
      <trkpt lat="45.07403" lon="6.15695">
        <ele>1396.4</ele>
        <time>2024-08-09T13:20:57Z</time>
      </trkpt>
      <trkpt lat="45.074" lon="6.15693">
        <ele>1396.2</ele>
        <time>2024-08-09T13:20:58Z</time>
      </trkpt>
      <trkpt lat="45.074" lon="6.15693">
        <ele>1396</ele>
        <time>2024-08-09T13:20:59Z</time>
      </trkpt>
      <trkpt lat="45.07397" lon="6.15692">
        <ele>1395.8</ele>
        <time>2024-08-09T13:21:00Z</time>
      </trkpt>
      <trkpt lat="45.07397" lon="6.15692">
        <ele>1395.4</ele>
        <time>2024-08-09T13:21:01Z</time>
      </trkpt>
      <trkpt lat="45.07395" lon="6.15691">
        <ele>1395</ele>
        <time>2024-08-09T13:21:02Z</time>
      </trkpt>
      <trkpt lat="45.07395" lon="6.15691">
        <ele>1395</ele>
        <time>2024-08-09T13:21:03Z</time>
      </trkpt>
      <trkpt lat="45.07392" lon="6.1569">
        <ele>1394.6</ele>
        <time>2024-08-09T13:21:04Z</time>
      </trkpt>
      <trkpt lat="45.07392" lon="6.1569">
        <ele>1394.2</ele>
        <time>2024-08-09T13:21:05Z</time>
      </trkpt>
      <trkpt lat="45.07389" lon="6.15689">
        <ele>1393.6</ele>
        <time>2024-08-09T13:21:06Z</time>
      </trkpt>
      <trkpt lat="45.07389" lon="6.15689">
        <ele>1393.2</ele>
        <time>2024-08-09T13:21:07Z</time>
      </trkpt>
      <trkpt lat="45.07388" lon="6.15688">
        <ele>1393</ele>
        <time>2024-08-09T13:21:08Z</time>
      </trkpt>
      <trkpt lat="45.07388" lon="6.15688">
        <ele>1392.8</ele>
        <time>2024-08-09T13:21:09Z</time>
      </trkpt>
      <trkpt lat="45.07385" lon="6.15686">
        <ele>1392.6</ele>
        <time>2024-08-09T13:21:10Z</time>
      </trkpt>
      <trkpt lat="45.07385" lon="6.15686">
        <ele>1392.2</ele>
        <time>2024-08-09T13:21:11Z</time>
      </trkpt>
      <trkpt lat="45.07383" lon="6.15684">
        <ele>1392</ele>
        <time>2024-08-09T13:21:12Z</time>
      </trkpt>
      <trkpt lat="45.07383" lon="6.15684">
        <ele>1391.6</ele>
        <time>2024-08-09T13:21:13Z</time>
      </trkpt>
      <trkpt lat="45.0738" lon="6.15682">
        <ele>1391.4</ele>
        <time>2024-08-09T13:21:14Z</time>
      </trkpt>
      <trkpt lat="45.0738" lon="6.15682">
        <ele>1391.2</ele>
        <time>2024-08-09T13:21:15Z</time>
      </trkpt>
      <trkpt lat="45.07377" lon="6.1568">
        <ele>1391</ele>
        <time>2024-08-09T13:21:16Z</time>
      </trkpt>
      <trkpt lat="45.07377" lon="6.1568">
        <ele>1390.6</ele>
        <time>2024-08-09T13:21:17Z</time>
      </trkpt>
      <trkpt lat="45.07375" lon="6.15678">
        <ele>1390.4</ele>
        <time>2024-08-09T13:21:18Z</time>
      </trkpt>
      <trkpt lat="45.07373" lon="6.15677">
        <ele>1390.2</ele>
        <time>2024-08-09T13:21:19Z</time>
      </trkpt>
      <trkpt lat="45.07373" lon="6.15677">
        <ele>1390</ele>
        <time>2024-08-09T13:21:20Z</time>
      </trkpt>
      <trkpt lat="45.07371" lon="6.15676">
        <ele>1390</ele>
        <time>2024-08-09T13:21:21Z</time>
      </trkpt>
      <trkpt lat="45.07371" lon="6.15676">
        <ele>1389.6</ele>
        <time>2024-08-09T13:21:22Z</time>
      </trkpt>
      <trkpt lat="45.07369" lon="6.15675">
        <ele>1389.2</ele>
        <time>2024-08-09T13:21:23Z</time>
      </trkpt>
      <trkpt lat="45.07369" lon="6.15675">
        <ele>1389.2</ele>
        <time>2024-08-09T13:21:24Z</time>
      </trkpt>
      <trkpt lat="45.07366" lon="6.15675">
        <ele>1388.8</ele>
        <time>2024-08-09T13:21:25Z</time>
      </trkpt>
      <trkpt lat="45.07366" lon="6.15675">
        <ele>1388.8</ele>
        <time>2024-08-09T13:21:26Z</time>
      </trkpt>
      <trkpt lat="45.07364" lon="6.15675">
        <ele>1388.4</ele>
        <time>2024-08-09T13:21:27Z</time>
      </trkpt>
      <trkpt lat="45.07364" lon="6.15675">
        <ele>1388.4</ele>
        <time>2024-08-09T13:21:28Z</time>
      </trkpt>
      <trkpt lat="45.07361" lon="6.15674">
        <ele>1388.4</ele>
        <time>2024-08-09T13:21:29Z</time>
      </trkpt>
      <trkpt lat="45.07361" lon="6.15674">
        <ele>1388</ele>
        <time>2024-08-09T13:21:30Z</time>
      </trkpt>
      <trkpt lat="45.07358" lon="6.15674">
        <ele>1387.6</ele>
        <time>2024-08-09T13:21:31Z</time>
      </trkpt>
      <trkpt lat="45.07358" lon="6.15674">
        <ele>1387.4</ele>
        <time>2024-08-09T13:21:32Z</time>
      </trkpt>
      <trkpt lat="45.07355" lon="6.15674">
        <ele>1387.2</ele>
        <time>2024-08-09T13:21:33Z</time>
      </trkpt>
      <trkpt lat="45.07355" lon="6.15674">
        <ele>1386.8</ele>
        <time>2024-08-09T13:21:34Z</time>
      </trkpt>
      <trkpt lat="45.07352" lon="6.15675">
        <ele>1386.2</ele>
        <time>2024-08-09T13:21:35Z</time>
      </trkpt>
      <trkpt lat="45.07352" lon="6.15675">
        <ele>1386</ele>
        <time>2024-08-09T13:21:36Z</time>
      </trkpt>
      <trkpt lat="45.07349" lon="6.15675">
        <ele>1386</ele>
        <time>2024-08-09T13:21:37Z</time>
      </trkpt>
      <trkpt lat="45.07349" lon="6.15675">
        <ele>1386</ele>
        <time>2024-08-09T13:21:38Z</time>
      </trkpt>
      <trkpt lat="45.07346" lon="6.15676">
        <ele>1386</ele>
        <time>2024-08-09T13:21:39Z</time>
      </trkpt>
      <trkpt lat="45.07346" lon="6.15676">
        <ele>1386</ele>
        <time>2024-08-09T13:21:40Z</time>
      </trkpt>
      <trkpt lat="45.07343" lon="6.15676">
        <ele>1385.8</ele>
        <time>2024-08-09T13:21:41Z</time>
      </trkpt>
      <trkpt lat="45.07343" lon="6.15676">
        <ele>1385.8</ele>
        <time>2024-08-09T13:21:42Z</time>
      </trkpt>
      <trkpt lat="45.07341" lon="6.15677">
        <ele>1385.6</ele>
        <time>2024-08-09T13:21:43Z</time>
      </trkpt>
      <trkpt lat="45.07339" lon="6.15677">
        <ele>1385.4</ele>
        <time>2024-08-09T13:21:44Z</time>
      </trkpt>
      <trkpt lat="45.07339" lon="6.15677">
        <ele>1385.2</ele>
        <time>2024-08-09T13:21:45Z</time>
      </trkpt>
      <trkpt lat="45.07336" lon="6.15677">
        <ele>1385</ele>
        <time>2024-08-09T13:21:46Z</time>
      </trkpt>
      <trkpt lat="45.07336" lon="6.15677">
        <ele>1385</ele>
        <time>2024-08-09T13:21:47Z</time>
      </trkpt>
      <trkpt lat="45.07333" lon="6.15677">
        <ele>1385</ele>
        <time>2024-08-09T13:21:48Z</time>
      </trkpt>
      <trkpt lat="45.07333" lon="6.15677">
        <ele>1385</ele>
        <time>2024-08-09T13:21:49Z</time>
      </trkpt>
      <trkpt lat="45.0733" lon="6.15677">
        <ele>1384.6</ele>
        <time>2024-08-09T13:21:50Z</time>
      </trkpt>
      <trkpt lat="45.0733" lon="6.15677">
        <ele>1384.4</ele>
        <time>2024-08-09T13:21:51Z</time>
      </trkpt>
      <trkpt lat="45.07327" lon="6.15676">
        <ele>1384.2</ele>
        <time>2024-08-09T13:21:52Z</time>
      </trkpt>
      <trkpt lat="45.07327" lon="6.15676">
        <ele>1384.2</ele>
        <time>2024-08-09T13:21:53Z</time>
      </trkpt>
      <trkpt lat="45.07324" lon="6.15675">
        <ele>1384.2</ele>
        <time>2024-08-09T13:21:54Z</time>
      </trkpt>
      <trkpt lat="45.07324" lon="6.15675">
        <ele>1384</ele>
        <time>2024-08-09T13:21:55Z</time>
      </trkpt>
      <trkpt lat="45.07322" lon="6.15674">
        <ele>1383.8</ele>
        <time>2024-08-09T13:21:56Z</time>
      </trkpt>
      <trkpt lat="45.07322" lon="6.15674">
        <ele>1383.6</ele>
        <time>2024-08-09T13:21:57Z</time>
      </trkpt>
      <trkpt lat="45.07318" lon="6.15673">
        <ele>1383.6</ele>
        <time>2024-08-09T13:21:58Z</time>
      </trkpt>
      <trkpt lat="45.07318" lon="6.15673">
        <ele>1383.4</ele>
        <time>2024-08-09T13:21:59Z</time>
      </trkpt>
      <trkpt lat="45.07316" lon="6.15673">
        <ele>1383.2</ele>
        <time>2024-08-09T13:22:00Z</time>
      </trkpt>
      <trkpt lat="45.07316" lon="6.15673">
        <ele>1383.2</ele>
        <time>2024-08-09T13:22:01Z</time>
      </trkpt>
      <trkpt lat="45.07312" lon="6.15672">
        <ele>1383</ele>
        <time>2024-08-09T13:22:02Z</time>
      </trkpt>
      <trkpt lat="45.07312" lon="6.15672">
        <ele>1383</ele>
        <time>2024-08-09T13:22:03Z</time>
      </trkpt>
      <trkpt lat="45.0731" lon="6.15671">
        <ele>1382.8</ele>
        <time>2024-08-09T13:22:04Z</time>
      </trkpt>
      <trkpt lat="45.0731" lon="6.15671">
        <ele>1382.4</ele>
        <time>2024-08-09T13:22:05Z</time>
      </trkpt>
      <trkpt lat="45.07307" lon="6.1567">
        <ele>1382.2</ele>
        <time>2024-08-09T13:22:06Z</time>
      </trkpt>
      <trkpt lat="45.07307" lon="6.1567">
        <ele>1382</ele>
        <time>2024-08-09T13:22:07Z</time>
      </trkpt>
      <trkpt lat="45.07305" lon="6.15669">
        <ele>1381.8</ele>
        <time>2024-08-09T13:22:08Z</time>
      </trkpt>
      <trkpt lat="45.07303" lon="6.15669">
        <ele>1381.8</ele>
        <time>2024-08-09T13:22:09Z</time>
      </trkpt>
      <trkpt lat="45.07303" lon="6.15669">
        <ele>1381.4</ele>
        <time>2024-08-09T13:22:10Z</time>
      </trkpt>
      <trkpt lat="45.073" lon="6.15668">
        <ele>1381.4</ele>
        <time>2024-08-09T13:22:11Z</time>
      </trkpt>
      <trkpt lat="45.073" lon="6.15668">
        <ele>1381.2</ele>
        <time>2024-08-09T13:22:12Z</time>
      </trkpt>
      <trkpt lat="45.07297" lon="6.15667">
        <ele>1380.8</ele>
        <time>2024-08-09T13:22:13Z</time>
      </trkpt>
      <trkpt lat="45.07297" lon="6.15667">
        <ele>1380.8</ele>
        <time>2024-08-09T13:22:14Z</time>
      </trkpt>
      <trkpt lat="45.07294" lon="6.15665">
        <ele>1380.8</ele>
        <time>2024-08-09T13:22:15Z</time>
      </trkpt>
      <trkpt lat="45.07294" lon="6.15665">
        <ele>1380.8</ele>
        <time>2024-08-09T13:22:16Z</time>
      </trkpt>
      <trkpt lat="45.07292" lon="6.15663">
        <ele>1380.8</ele>
        <time>2024-08-09T13:22:17Z</time>
      </trkpt>
      <trkpt lat="45.07292" lon="6.15663">
        <ele>1380.6</ele>
        <time>2024-08-09T13:22:18Z</time>
      </trkpt>
      <trkpt lat="45.07289" lon="6.15661">
        <ele>1380.6</ele>
        <time>2024-08-09T13:22:19Z</time>
      </trkpt>
      <trkpt lat="45.07289" lon="6.15661">
        <ele>1380.4</ele>
        <time>2024-08-09T13:22:20Z</time>
      </trkpt>
      <trkpt lat="45.07287" lon="6.15659">
        <ele>1380.4</ele>
        <time>2024-08-09T13:22:21Z</time>
      </trkpt>
      <trkpt lat="45.07287" lon="6.15659">
        <ele>1380.4</ele>
        <time>2024-08-09T13:22:22Z</time>
      </trkpt>
      <trkpt lat="45.07284" lon="6.15657">
        <ele>1380.4</ele>
        <time>2024-08-09T13:22:23Z</time>
      </trkpt>
      <trkpt lat="45.07284" lon="6.15657">
        <ele>1380.4</ele>
        <time>2024-08-09T13:22:24Z</time>
      </trkpt>
      <trkpt lat="45.07282" lon="6.15656">
        <ele>1380.2</ele>
        <time>2024-08-09T13:22:25Z</time>
      </trkpt>
      <trkpt lat="45.07282" lon="6.15656">
        <ele>1380.2</ele>
        <time>2024-08-09T13:22:26Z</time>
      </trkpt>
      <trkpt lat="45.07279" lon="6.15654">
        <ele>1380.4</ele>
        <time>2024-08-09T13:22:27Z</time>
      </trkpt>
      <trkpt lat="45.07279" lon="6.15654">
        <ele>1380.4</ele>
        <time>2024-08-09T13:22:28Z</time>
      </trkpt>
      <trkpt lat="45.07277" lon="6.15652">
        <ele>1380.2</ele>
        <time>2024-08-09T13:22:29Z</time>
      </trkpt>
      <trkpt lat="45.07277" lon="6.15652">
        <ele>1380</ele>
        <time>2024-08-09T13:22:30Z</time>
      </trkpt>
      <trkpt lat="45.07274" lon="6.15651">
        <ele>1380</ele>
        <time>2024-08-09T13:22:31Z</time>
      </trkpt>
      <trkpt lat="45.07274" lon="6.15651">
        <ele>1380.2</ele>
        <time>2024-08-09T13:22:32Z</time>
      </trkpt>
      <trkpt lat="45.07272" lon="6.15649">
        <ele>1380.2</ele>
        <time>2024-08-09T13:22:33Z</time>
      </trkpt>
      <trkpt lat="45.07272" lon="6.15649">
        <ele>1380</ele>
        <time>2024-08-09T13:22:34Z</time>
      </trkpt>
      <trkpt lat="45.07269" lon="6.15646">
        <ele>1380</ele>
        <time>2024-08-09T13:22:35Z</time>
      </trkpt>
      <trkpt lat="45.07269" lon="6.15646">
        <ele>1379.8</ele>
        <time>2024-08-09T13:22:36Z</time>
      </trkpt>
      <trkpt lat="45.07267" lon="6.15644">
        <ele>1379.8</ele>
        <time>2024-08-09T13:22:37Z</time>
      </trkpt>
      <trkpt lat="45.07267" lon="6.15644">
        <ele>1379.6</ele>
        <time>2024-08-09T13:22:38Z</time>
      </trkpt>
      <trkpt lat="45.07265" lon="6.15641">
        <ele>1379.8</ele>
        <time>2024-08-09T13:22:39Z</time>
      </trkpt>
      <trkpt lat="45.07265" lon="6.15641">
        <ele>1379.8</ele>
        <time>2024-08-09T13:22:40Z</time>
      </trkpt>
      <trkpt lat="45.07262" lon="6.15639">
        <ele>1379.8</ele>
        <time>2024-08-09T13:22:41Z</time>
      </trkpt>
      <trkpt lat="45.07262" lon="6.15639">
        <ele>1379.8</ele>
        <time>2024-08-09T13:22:42Z</time>
      </trkpt>
      <trkpt lat="45.0726" lon="6.15637">
        <ele>1379.8</ele>
        <time>2024-08-09T13:22:43Z</time>
      </trkpt>
      <trkpt lat="45.0726" lon="6.15637">
        <ele>1379.6</ele>
        <time>2024-08-09T13:22:44Z</time>
      </trkpt>
      <trkpt lat="45.07257" lon="6.15635">
        <ele>1379.6</ele>
        <time>2024-08-09T13:22:45Z</time>
      </trkpt>
      <trkpt lat="45.07257" lon="6.15635">
        <ele>1379.2</ele>
        <time>2024-08-09T13:22:46Z</time>
      </trkpt>
      <trkpt lat="45.07255" lon="6.15633">
        <ele>1379.2</ele>
        <time>2024-08-09T13:22:47Z</time>
      </trkpt>
      <trkpt lat="45.07255" lon="6.15633">
        <ele>1379.2</ele>
        <time>2024-08-09T13:22:48Z</time>
      </trkpt>
      <trkpt lat="45.07252" lon="6.15631">
        <ele>1379.4</ele>
        <time>2024-08-09T13:22:49Z</time>
      </trkpt>
      <trkpt lat="45.07252" lon="6.15631">
        <ele>1379.6</ele>
        <time>2024-08-09T13:22:50Z</time>
      </trkpt>
      <trkpt lat="45.0725" lon="6.15628">
        <ele>1379.6</ele>
        <time>2024-08-09T13:22:51Z</time>
      </trkpt>
      <trkpt lat="45.0725" lon="6.15628">
        <ele>1379.4</ele>
        <time>2024-08-09T13:22:52Z</time>
      </trkpt>
      <trkpt lat="45.07247" lon="6.15626">
        <ele>1379</ele>
        <time>2024-08-09T13:22:53Z</time>
      </trkpt>
      <trkpt lat="45.07247" lon="6.15626">
        <ele>1379</ele>
        <time>2024-08-09T13:22:54Z</time>
      </trkpt>
      <trkpt lat="45.07245" lon="6.15624">
        <ele>1379</ele>
        <time>2024-08-09T13:22:55Z</time>
      </trkpt>
      <trkpt lat="45.07245" lon="6.15624">
        <ele>1379.2</ele>
        <time>2024-08-09T13:22:56Z</time>
      </trkpt>
      <trkpt lat="45.07243" lon="6.15621">
        <ele>1379.2</ele>
        <time>2024-08-09T13:22:57Z</time>
      </trkpt>
      <trkpt lat="45.07243" lon="6.15621">
        <ele>1379.2</ele>
        <time>2024-08-09T13:22:58Z</time>
      </trkpt>
      <trkpt lat="45.0724" lon="6.15619">
        <ele>1379.2</ele>
        <time>2024-08-09T13:22:59Z</time>
      </trkpt>
      <trkpt lat="45.0724" lon="6.15619">
        <ele>1379.2</ele>
        <time>2024-08-09T13:23:00Z</time>
      </trkpt>
      <trkpt lat="45.07238" lon="6.15616">
        <ele>1379.2</ele>
        <time>2024-08-09T13:23:01Z</time>
      </trkpt>
      <trkpt lat="45.07238" lon="6.15616">
        <ele>1378.6</ele>
        <time>2024-08-09T13:23:02Z</time>
      </trkpt>
      <trkpt lat="45.07235" lon="6.15614">
        <ele>1378.6</ele>
        <time>2024-08-09T13:23:03Z</time>
      </trkpt>
      <trkpt lat="45.07235" lon="6.15614">
        <ele>1378.6</ele>
        <time>2024-08-09T13:23:04Z</time>
      </trkpt>
      <trkpt lat="45.07233" lon="6.15612">
        <ele>1378.6</ele>
        <time>2024-08-09T13:23:05Z</time>
      </trkpt>
      <trkpt lat="45.07233" lon="6.15612">
        <ele>1378.6</ele>
        <time>2024-08-09T13:23:06Z</time>
      </trkpt>
      <trkpt lat="45.0723" lon="6.1561">
        <ele>1378.6</ele>
        <time>2024-08-09T13:23:07Z</time>
      </trkpt>
      <trkpt lat="45.0723" lon="6.1561">
        <ele>1378.4</ele>
        <time>2024-08-09T13:23:08Z</time>
      </trkpt>
      <trkpt lat="45.07228" lon="6.15609">
        <ele>1378.4</ele>
        <time>2024-08-09T13:23:09Z</time>
      </trkpt>
      <trkpt lat="45.07228" lon="6.15609">
        <ele>1378.4</ele>
        <time>2024-08-09T13:23:10Z</time>
      </trkpt>
      <trkpt lat="45.07225" lon="6.15606">
        <ele>1378.4</ele>
        <time>2024-08-09T13:23:11Z</time>
      </trkpt>
      <trkpt lat="45.07225" lon="6.15606">
        <ele>1378</ele>
        <time>2024-08-09T13:23:12Z</time>
      </trkpt>
      <trkpt lat="45.07223" lon="6.15604">
        <ele>1377.8</ele>
        <time>2024-08-09T13:23:13Z</time>
      </trkpt>
      <trkpt lat="45.07221" lon="6.15603">
        <ele>1377.8</ele>
        <time>2024-08-09T13:23:14Z</time>
      </trkpt>
      <trkpt lat="45.07221" lon="6.15603">
        <ele>1377.6</ele>
        <time>2024-08-09T13:23:15Z</time>
      </trkpt>
      <trkpt lat="45.07219" lon="6.15601">
        <ele>1377.6</ele>
        <time>2024-08-09T13:23:16Z</time>
      </trkpt>
      <trkpt lat="45.07217" lon="6.156">
        <ele>1377.6</ele>
        <time>2024-08-09T13:23:17Z</time>
      </trkpt>
      <trkpt lat="45.07217" lon="6.156">
        <ele>1377.4</ele>
        <time>2024-08-09T13:23:18Z</time>
      </trkpt>
      <trkpt lat="45.07215" lon="6.15597">
        <ele>1377.4</ele>
        <time>2024-08-09T13:23:19Z</time>
      </trkpt>
      <trkpt lat="45.07215" lon="6.15597">
        <ele>1377.4</ele>
        <time>2024-08-09T13:23:20Z</time>
      </trkpt>
      <trkpt lat="45.07213" lon="6.15595">
        <ele>1377.6</ele>
        <time>2024-08-09T13:23:21Z</time>
      </trkpt>
      <trkpt lat="45.07213" lon="6.15595">
        <ele>1377.8</ele>
        <time>2024-08-09T13:23:22Z</time>
      </trkpt>
      <trkpt lat="45.0721" lon="6.15592">
        <ele>1378</ele>
        <time>2024-08-09T13:23:23Z</time>
      </trkpt>
      <trkpt lat="45.07208" lon="6.15591">
        <ele>1378.2</ele>
        <time>2024-08-09T13:23:24Z</time>
      </trkpt>
      <trkpt lat="45.07208" lon="6.15591">
        <ele>1378.2</ele>
        <time>2024-08-09T13:23:25Z</time>
      </trkpt>
      <trkpt lat="45.07205" lon="6.15589">
        <ele>1378.4</ele>
        <time>2024-08-09T13:23:26Z</time>
      </trkpt>
      <trkpt lat="45.07205" lon="6.15589">
        <ele>1378.6</ele>
        <time>2024-08-09T13:23:27Z</time>
      </trkpt>
      <trkpt lat="45.07203" lon="6.15588">
        <ele>1378.4</ele>
        <time>2024-08-09T13:23:28Z</time>
      </trkpt>
      <trkpt lat="45.07203" lon="6.15588">
        <ele>1378.4</ele>
        <time>2024-08-09T13:23:29Z</time>
      </trkpt>
      <trkpt lat="45.072" lon="6.15586">
        <ele>1378.4</ele>
        <time>2024-08-09T13:23:30Z</time>
      </trkpt>
      <trkpt lat="45.072" lon="6.15586">
        <ele>1378.2</ele>
        <time>2024-08-09T13:23:31Z</time>
      </trkpt>
      <trkpt lat="45.07197" lon="6.15584">
        <ele>1378.2</ele>
        <time>2024-08-09T13:23:32Z</time>
      </trkpt>
      <trkpt lat="45.07197" lon="6.15584">
        <ele>1378.2</ele>
        <time>2024-08-09T13:23:33Z</time>
      </trkpt>
      <trkpt lat="45.07196" lon="6.15582">
        <ele>1378.2</ele>
        <time>2024-08-09T13:23:34Z</time>
      </trkpt>
      <trkpt lat="45.07196" lon="6.15582">
        <ele>1378.4</ele>
        <time>2024-08-09T13:23:35Z</time>
      </trkpt>
      <trkpt lat="45.07194" lon="6.15579">
        <ele>1378.2</ele>
        <time>2024-08-09T13:23:36Z</time>
      </trkpt>
      <trkpt lat="45.07194" lon="6.15579">
        <ele>1378.2</ele>
        <time>2024-08-09T13:23:37Z</time>
      </trkpt>
      <trkpt lat="45.07191" lon="6.15576">
        <ele>1378.2</ele>
        <time>2024-08-09T13:23:38Z</time>
      </trkpt>
      <trkpt lat="45.07191" lon="6.15576">
        <ele>1378.2</ele>
        <time>2024-08-09T13:23:39Z</time>
      </trkpt>
      <trkpt lat="45.07189" lon="6.15572">
        <ele>1378.2</ele>
        <time>2024-08-09T13:23:40Z</time>
      </trkpt>
      <trkpt lat="45.07189" lon="6.15572">
        <ele>1378</ele>
        <time>2024-08-09T13:23:41Z</time>
      </trkpt>
      <trkpt lat="45.07188" lon="6.15568">
        <ele>1378</ele>
        <time>2024-08-09T13:23:42Z</time>
      </trkpt>
      <trkpt lat="45.07188" lon="6.15568">
        <ele>1378</ele>
        <time>2024-08-09T13:23:43Z</time>
      </trkpt>
      <trkpt lat="45.07186" lon="6.15565">
        <ele>1378</ele>
        <time>2024-08-09T13:23:44Z</time>
      </trkpt>
      <trkpt lat="45.07186" lon="6.15565">
        <ele>1377.8</ele>
        <time>2024-08-09T13:23:45Z</time>
      </trkpt>
      <trkpt lat="45.07183" lon="6.15562">
        <ele>1377.4</ele>
        <time>2024-08-09T13:23:46Z</time>
      </trkpt>
      <trkpt lat="45.07183" lon="6.15562">
        <ele>1377.2</ele>
        <time>2024-08-09T13:23:47Z</time>
      </trkpt>
      <trkpt lat="45.0718" lon="6.15559">
        <ele>1377.2</ele>
        <time>2024-08-09T13:23:48Z</time>
      </trkpt>
      <trkpt lat="45.0718" lon="6.15559">
        <ele>1377</ele>
        <time>2024-08-09T13:23:49Z</time>
      </trkpt>
      <trkpt lat="45.07177" lon="6.15557">
        <ele>1377</ele>
        <time>2024-08-09T13:23:50Z</time>
      </trkpt>
      <trkpt lat="45.07176" lon="6.15556">
        <ele>1376.8</ele>
        <time>2024-08-09T13:23:51Z</time>
      </trkpt>
      <trkpt lat="45.07175" lon="6.15553">
        <ele>1376.6</ele>
        <time>2024-08-09T13:23:52Z</time>
      </trkpt>
      <trkpt lat="45.07175" lon="6.15553">
        <ele>1376.6</ele>
        <time>2024-08-09T13:23:53Z</time>
      </trkpt>
      <trkpt lat="45.07173" lon="6.1555">
        <ele>1376.6</ele>
        <time>2024-08-09T13:23:54Z</time>
      </trkpt>
      <trkpt lat="45.07172" lon="6.15547">
        <ele>1376.6</ele>
        <time>2024-08-09T13:23:55Z</time>
      </trkpt>
      <trkpt lat="45.07171" lon="6.15545">
        <ele>1376.6</ele>
        <time>2024-08-09T13:23:56Z</time>
      </trkpt>
      <trkpt lat="45.07171" lon="6.15545">
        <ele>1376.6</ele>
        <time>2024-08-09T13:23:57Z</time>
      </trkpt>
      <trkpt lat="45.07169" lon="6.15542">
        <ele>1376.6</ele>
        <time>2024-08-09T13:23:58Z</time>
      </trkpt>
      <trkpt lat="45.07169" lon="6.15542">
        <ele>1376.6</ele>
        <time>2024-08-09T13:23:59Z</time>
      </trkpt>
      <trkpt lat="45.07167" lon="6.1554">
        <ele>1376.4</ele>
        <time>2024-08-09T13:24:00Z</time>
      </trkpt>
      <trkpt lat="45.07167" lon="6.1554">
        <ele>1376.4</ele>
        <time>2024-08-09T13:24:01Z</time>
      </trkpt>
      <trkpt lat="45.07165" lon="6.15538">
        <ele>1375.8</ele>
        <time>2024-08-09T13:24:02Z</time>
      </trkpt>
      <trkpt lat="45.07165" lon="6.15538">
        <ele>1375.8</ele>
        <time>2024-08-09T13:24:03Z</time>
      </trkpt>
      <trkpt lat="45.07163" lon="6.15536">
        <ele>1375.6</ele>
        <time>2024-08-09T13:24:04Z</time>
      </trkpt>
      <trkpt lat="45.07163" lon="6.15536">
        <ele>1375.6</ele>
        <time>2024-08-09T13:24:05Z</time>
      </trkpt>
      <trkpt lat="45.07161" lon="6.15535">
        <ele>1375.4</ele>
        <time>2024-08-09T13:24:06Z</time>
      </trkpt>
      <trkpt lat="45.07161" lon="6.15535">
        <ele>1375.2</ele>
        <time>2024-08-09T13:24:07Z</time>
      </trkpt>
      <trkpt lat="45.07159" lon="6.15534">
        <ele>1375.2</ele>
        <time>2024-08-09T13:24:08Z</time>
      </trkpt>
      <trkpt lat="45.07159" lon="6.15534">
        <ele>1375.2</ele>
        <time>2024-08-09T13:24:09Z</time>
      </trkpt>
      <trkpt lat="45.07156" lon="6.15533">
        <ele>1375.2</ele>
        <time>2024-08-09T13:24:10Z</time>
      </trkpt>
      <trkpt lat="45.07156" lon="6.15533">
        <ele>1375.2</ele>
        <time>2024-08-09T13:24:11Z</time>
      </trkpt>
      <trkpt lat="45.07154" lon="6.1553">
        <ele>1375.2</ele>
        <time>2024-08-09T13:24:12Z</time>
      </trkpt>
      <trkpt lat="45.07154" lon="6.1553">
        <ele>1375.4</ele>
        <time>2024-08-09T13:24:13Z</time>
      </trkpt>
      <trkpt lat="45.07152" lon="6.15528">
        <ele>1375.4</ele>
        <time>2024-08-09T13:24:14Z</time>
      </trkpt>
      <trkpt lat="45.07152" lon="6.15528">
        <ele>1375</ele>
        <time>2024-08-09T13:24:15Z</time>
      </trkpt>
      <trkpt lat="45.0715" lon="6.15526">
        <ele>1374.8</ele>
        <time>2024-08-09T13:24:16Z</time>
      </trkpt>
      <trkpt lat="45.07151" lon="6.15523">
        <ele>1374.8</ele>
        <time>2024-08-09T13:24:17Z</time>
      </trkpt>
      <trkpt lat="45.07151" lon="6.15523">
        <ele>1375.2</ele>
        <time>2024-08-09T13:24:18Z</time>
      </trkpt>
      <trkpt lat="45.0715" lon="6.1552">
        <ele>1375.2</ele>
        <time>2024-08-09T13:24:19Z</time>
      </trkpt>
      <trkpt lat="45.0715" lon="6.1552">
        <ele>1375.4</ele>
        <time>2024-08-09T13:24:20Z</time>
      </trkpt>
      <trkpt lat="45.07149" lon="6.15517">
        <ele>1375.4</ele>
        <time>2024-08-09T13:24:21Z</time>
      </trkpt>
      <trkpt lat="45.07148" lon="6.15516">
        <ele>1375.6</ele>
        <time>2024-08-09T13:24:22Z</time>
      </trkpt>
      <trkpt lat="45.07148" lon="6.15516">
        <ele>1375.6</ele>
        <time>2024-08-09T13:24:23Z</time>
      </trkpt>
      <trkpt lat="45.07145" lon="6.15514">
        <ele>1375.8</ele>
        <time>2024-08-09T13:24:24Z</time>
      </trkpt>
      <trkpt lat="45.07145" lon="6.15514">
        <ele>1375.8</ele>
        <time>2024-08-09T13:24:25Z</time>
      </trkpt>
      <trkpt lat="45.07145" lon="6.15514">
        <ele>1375.8</ele>
        <time>2024-08-09T13:24:26Z</time>
      </trkpt>
      <trkpt lat="45.07145" lon="6.15514">
        <ele>1375.8</ele>
        <time>2024-08-09T13:24:27Z</time>
      </trkpt>
      <trkpt lat="45.07144" lon="6.15512">
        <ele>1376</ele>
        <time>2024-08-09T13:24:28Z</time>
      </trkpt>
      <trkpt lat="45.07144" lon="6.15512">
        <ele>1376</ele>
        <time>2024-08-09T13:24:29Z</time>
      </trkpt>
      <trkpt lat="45.07144" lon="6.15512">
        <ele>1376</ele>
        <time>2024-08-09T13:24:30Z</time>
      </trkpt>
      <trkpt lat="45.07144" lon="6.15512">
        <ele>1376</ele>
        <time>2024-08-09T13:24:31Z</time>
      </trkpt>
      <trkpt lat="45.07144" lon="6.15512">
        <ele>1376</ele>
        <time>2024-08-09T13:24:32Z</time>
      </trkpt>
      <trkpt lat="45.07143" lon="6.1551">
        <ele>1376</ele>
        <time>2024-08-09T13:24:33Z</time>
      </trkpt>
      <trkpt lat="45.07143" lon="6.1551">
        <ele>1376</ele>
        <time>2024-08-09T13:24:34Z</time>
      </trkpt>
      <trkpt lat="45.07141" lon="6.15508">
        <ele>1376</ele>
        <time>2024-08-09T13:24:35Z</time>
      </trkpt>
      <trkpt lat="45.07141" lon="6.15508">
        <ele>1376</ele>
        <time>2024-08-09T13:24:36Z</time>
      </trkpt>
      <trkpt lat="45.0714" lon="6.15506">
        <ele>1375.8</ele>
        <time>2024-08-09T13:24:37Z</time>
      </trkpt>
      <trkpt lat="45.0714" lon="6.15506">
        <ele>1375.4</ele>
        <time>2024-08-09T13:24:38Z</time>
      </trkpt>
      <trkpt lat="45.07137" lon="6.15505">
        <ele>1375.4</ele>
        <time>2024-08-09T13:24:39Z</time>
      </trkpt>
      <trkpt lat="45.07137" lon="6.15505">
        <ele>1375.4</ele>
        <time>2024-08-09T13:24:40Z</time>
      </trkpt>
      <trkpt lat="45.07135" lon="6.15503">
        <ele>1375.2</ele>
        <time>2024-08-09T13:24:41Z</time>
      </trkpt>
      <trkpt lat="45.07135" lon="6.15503">
        <ele>1375</ele>
        <time>2024-08-09T13:24:42Z</time>
      </trkpt>
      <trkpt lat="45.07131" lon="6.15505">
        <ele>1375</ele>
        <time>2024-08-09T13:24:43Z</time>
      </trkpt>
      <trkpt lat="45.07131" lon="6.15505">
        <ele>1374.6</ele>
        <time>2024-08-09T13:24:44Z</time>
      </trkpt>
      <trkpt lat="45.07129" lon="6.15505">
        <ele>1374</ele>
        <time>2024-08-09T13:24:45Z</time>
      </trkpt>
      <trkpt lat="45.07129" lon="6.15505">
        <ele>1374</ele>
        <time>2024-08-09T13:24:46Z</time>
      </trkpt>
      <trkpt lat="45.07127" lon="6.15505">
        <ele>1374.4</ele>
        <time>2024-08-09T13:24:47Z</time>
      </trkpt>
      <trkpt lat="45.07127" lon="6.15505">
        <ele>1374.4</ele>
        <time>2024-08-09T13:24:48Z</time>
      </trkpt>
      <trkpt lat="45.07123" lon="6.15505">
        <ele>1374.2</ele>
        <time>2024-08-09T13:24:49Z</time>
      </trkpt>
      <trkpt lat="45.07123" lon="6.15505">
        <ele>1374</ele>
        <time>2024-08-09T13:24:50Z</time>
      </trkpt>
      <trkpt lat="45.07119" lon="6.15505">
        <ele>1374</ele>
        <time>2024-08-09T13:24:51Z</time>
      </trkpt>
      <trkpt lat="45.07119" lon="6.15505">
        <ele>1374</ele>
        <time>2024-08-09T13:24:52Z</time>
      </trkpt>
      <trkpt lat="45.07116" lon="6.15505">
        <ele>1373.6</ele>
        <time>2024-08-09T13:24:53Z</time>
      </trkpt>
      <trkpt lat="45.07116" lon="6.15505">
        <ele>1373.6</ele>
        <time>2024-08-09T13:24:54Z</time>
      </trkpt>
      <trkpt lat="45.07116" lon="6.15505">
        <ele>1373.4</ele>
        <time>2024-08-09T13:24:55Z</time>
      </trkpt>
      <trkpt lat="45.07114" lon="6.15506">
        <ele>1373.2</ele>
        <time>2024-08-09T13:24:56Z</time>
      </trkpt>
      <trkpt lat="45.07114" lon="6.15506">
        <ele>1372.6</ele>
        <time>2024-08-09T13:24:57Z</time>
      </trkpt>
      <trkpt lat="45.07114" lon="6.15506">
        <ele>1372.4</ele>
        <time>2024-08-09T13:24:58Z</time>
      </trkpt>
      <trkpt lat="45.07111" lon="6.15507">
        <ele>1372</ele>
        <time>2024-08-09T13:24:59Z</time>
      </trkpt>
      <trkpt lat="45.07111" lon="6.15507">
        <ele>1371.8</ele>
        <time>2024-08-09T13:25:00Z</time>
      </trkpt>
      <trkpt lat="45.07109" lon="6.1551">
        <ele>1371.8</ele>
        <time>2024-08-09T13:25:01Z</time>
      </trkpt>
      <trkpt lat="45.07109" lon="6.1551">
        <ele>1371</ele>
        <time>2024-08-09T13:25:02Z</time>
      </trkpt>
      <trkpt lat="45.07108" lon="6.15515">
        <ele>1371</ele>
        <time>2024-08-09T13:25:03Z</time>
      </trkpt>
      <trkpt lat="45.07108" lon="6.15515">
        <ele>1370.4</ele>
        <time>2024-08-09T13:25:04Z</time>
      </trkpt>
      <trkpt lat="45.07107" lon="6.15519">
        <ele>1370.2</ele>
        <time>2024-08-09T13:25:05Z</time>
      </trkpt>
      <trkpt lat="45.07106" lon="6.15522">
        <ele>1370</ele>
        <time>2024-08-09T13:25:06Z</time>
      </trkpt>
      <trkpt lat="45.07106" lon="6.15522">
        <ele>1369.8</ele>
        <time>2024-08-09T13:25:07Z</time>
      </trkpt>
      <trkpt lat="45.07106" lon="6.15525">
        <ele>1369.8</ele>
        <time>2024-08-09T13:25:08Z</time>
      </trkpt>
      <trkpt lat="45.07106" lon="6.15525">
        <ele>1369.8</ele>
        <time>2024-08-09T13:25:09Z</time>
      </trkpt>
      <trkpt lat="45.07106" lon="6.15528">
        <ele>1369.8</ele>
        <time>2024-08-09T13:25:10Z</time>
      </trkpt>
      <trkpt lat="45.07106" lon="6.15528">
        <ele>1369.6</ele>
        <time>2024-08-09T13:25:11Z</time>
      </trkpt>
      <trkpt lat="45.07107" lon="6.15531">
        <ele>1369.6</ele>
        <time>2024-08-09T13:25:12Z</time>
      </trkpt>
      <trkpt lat="45.07107" lon="6.15531">
        <ele>1369.4</ele>
        <time>2024-08-09T13:25:13Z</time>
      </trkpt>
      <trkpt lat="45.07108" lon="6.15535">
        <ele>1369.4</ele>
        <time>2024-08-09T13:25:14Z</time>
      </trkpt>
      <trkpt lat="45.07108" lon="6.15535">
        <ele>1369.4</ele>
        <time>2024-08-09T13:25:15Z</time>
      </trkpt>
      <trkpt lat="45.07108" lon="6.15538">
        <ele>1369.4</ele>
        <time>2024-08-09T13:25:16Z</time>
      </trkpt>
      <trkpt lat="45.07108" lon="6.15538">
        <ele>1369.2</ele>
        <time>2024-08-09T13:25:17Z</time>
      </trkpt>
      <trkpt lat="45.0711" lon="6.15541">
        <ele>1369.2</ele>
        <time>2024-08-09T13:25:18Z</time>
      </trkpt>
      <trkpt lat="45.0711" lon="6.15544">
        <ele>1369</ele>
        <time>2024-08-09T13:25:19Z</time>
      </trkpt>
      <trkpt lat="45.0711" lon="6.15544">
        <ele>1368.8</ele>
        <time>2024-08-09T13:25:20Z</time>
      </trkpt>
      <trkpt lat="45.07112" lon="6.15546">
        <ele>1368.6</ele>
        <time>2024-08-09T13:25:21Z</time>
      </trkpt>
      <trkpt lat="45.07112" lon="6.15546">
        <ele>1368.4</ele>
        <time>2024-08-09T13:25:22Z</time>
      </trkpt>
      <trkpt lat="45.07114" lon="6.15548">
        <ele>1368.2</ele>
        <time>2024-08-09T13:25:23Z</time>
      </trkpt>
      <trkpt lat="45.07119" lon="6.15548">
        <ele>1368.2</ele>
        <time>2024-08-09T13:25:24Z</time>
      </trkpt>
      <trkpt lat="45.07119" lon="6.15548">
        <ele>1368.2</ele>
        <time>2024-08-09T13:25:25Z</time>
      </trkpt>
      <trkpt lat="45.0712" lon="6.1555">
        <ele>1368</ele>
        <time>2024-08-09T13:25:26Z</time>
      </trkpt>
      <trkpt lat="45.0712" lon="6.1555">
        <ele>1367.8</ele>
        <time>2024-08-09T13:25:27Z</time>
      </trkpt>
      <trkpt lat="45.0712" lon="6.1555">
        <ele>1367.4</ele>
        <time>2024-08-09T13:25:28Z</time>
      </trkpt>
      <trkpt lat="45.0712" lon="6.1555">
        <ele>1367.2</ele>
        <time>2024-08-09T13:25:29Z</time>
      </trkpt>
      <trkpt lat="45.07119" lon="6.15554">
        <ele>1367.2</ele>
        <time>2024-08-09T13:25:30Z</time>
      </trkpt>
      <trkpt lat="45.07119" lon="6.15554">
        <ele>1367</ele>
        <time>2024-08-09T13:25:31Z</time>
      </trkpt>
      <trkpt lat="45.07118" lon="6.15556">
        <ele>1366.6</ele>
        <time>2024-08-09T13:25:32Z</time>
      </trkpt>
      <trkpt lat="45.07118" lon="6.15556">
        <ele>1366</ele>
        <time>2024-08-09T13:25:33Z</time>
      </trkpt>
      <trkpt lat="45.07118" lon="6.15556">
        <ele>1365.8</ele>
        <time>2024-08-09T13:25:34Z</time>
      </trkpt>
      <trkpt lat="45.0712" lon="6.15558">
        <ele>1365.8</ele>
        <time>2024-08-09T13:25:35Z</time>
      </trkpt>
      <trkpt lat="45.07121" lon="6.1556">
        <ele>1365.4</ele>
        <time>2024-08-09T13:25:36Z</time>
      </trkpt>
      <trkpt lat="45.07121" lon="6.1556">
        <ele>1365</ele>
        <time>2024-08-09T13:25:37Z</time>
      </trkpt>
      <trkpt lat="45.07123" lon="6.15561">
        <ele>1365</ele>
        <time>2024-08-09T13:25:38Z</time>
      </trkpt>
      <trkpt lat="45.07123" lon="6.15561">
        <ele>1364.4</ele>
        <time>2024-08-09T13:25:39Z</time>
      </trkpt>
      <trkpt lat="45.07123" lon="6.15564">
        <ele>1364.2</ele>
        <time>2024-08-09T13:25:40Z</time>
      </trkpt>
      <trkpt lat="45.07123" lon="6.15564">
        <ele>1364</ele>
        <time>2024-08-09T13:25:41Z</time>
      </trkpt>
      <trkpt lat="45.07123" lon="6.15564">
        <ele>1363.6</ele>
        <time>2024-08-09T13:25:42Z</time>
      </trkpt>
      <trkpt lat="45.07123" lon="6.15567">
        <ele>1363.2</ele>
        <time>2024-08-09T13:25:43Z</time>
      </trkpt>
      <trkpt lat="45.07123" lon="6.15567">
        <ele>1363</ele>
        <time>2024-08-09T13:25:44Z</time>
      </trkpt>
      <trkpt lat="45.07123" lon="6.15567">
        <ele>1362.4</ele>
        <time>2024-08-09T13:25:45Z</time>
      </trkpt>
      <trkpt lat="45.07125" lon="6.15568">
        <ele>1362.4</ele>
        <time>2024-08-09T13:25:46Z</time>
      </trkpt>
      <trkpt lat="45.07125" lon="6.15568">
        <ele>1362.2</ele>
        <time>2024-08-09T13:25:47Z</time>
      </trkpt>
      <trkpt lat="45.07125" lon="6.15568">
        <ele>1361.8</ele>
        <time>2024-08-09T13:25:48Z</time>
      </trkpt>
      <trkpt lat="45.07126" lon="6.15571">
        <ele>1361.8</ele>
        <time>2024-08-09T13:25:49Z</time>
      </trkpt>
      <trkpt lat="45.07126" lon="6.15574">
        <ele>1361.4</ele>
        <time>2024-08-09T13:25:50Z</time>
      </trkpt>
      <trkpt lat="45.07127" lon="6.15577">
        <ele>1361</ele>
        <time>2024-08-09T13:25:51Z</time>
      </trkpt>
      <trkpt lat="45.07127" lon="6.15577">
        <ele>1360.8</ele>
        <time>2024-08-09T13:25:52Z</time>
      </trkpt>
      <trkpt lat="45.07128" lon="6.15582">
        <ele>1360.6</ele>
        <time>2024-08-09T13:25:53Z</time>
      </trkpt>
      <trkpt lat="45.07129" lon="6.15585">
        <ele>1360.2</ele>
        <time>2024-08-09T13:25:54Z</time>
      </trkpt>
      <trkpt lat="45.07129" lon="6.15585">
        <ele>1360</ele>
        <time>2024-08-09T13:25:55Z</time>
      </trkpt>
      <trkpt lat="45.07128" lon="6.15588">
        <ele>1359.6</ele>
        <time>2024-08-09T13:25:56Z</time>
      </trkpt>
      <trkpt lat="45.07128" lon="6.15588">
        <ele>1359.4</ele>
        <time>2024-08-09T13:25:57Z</time>
      </trkpt>
      <trkpt lat="45.07128" lon="6.15588">
        <ele>1359.4</ele>
        <time>2024-08-09T13:25:58Z</time>
      </trkpt>
      <trkpt lat="45.07128" lon="6.15588">
        <ele>1359.2</ele>
        <time>2024-08-09T13:25:59Z</time>
      </trkpt>
      <trkpt lat="45.07128" lon="6.15588">
        <ele>1359</ele>
        <time>2024-08-09T13:26:00Z</time>
      </trkpt>
      <trkpt lat="45.07127" lon="6.1559">
        <ele>1358.8</ele>
        <time>2024-08-09T13:26:01Z</time>
      </trkpt>
      <trkpt lat="45.07127" lon="6.1559">
        <ele>1358.2</ele>
        <time>2024-08-09T13:26:02Z</time>
      </trkpt>
      <trkpt lat="45.07125" lon="6.15591">
        <ele>1358.2</ele>
        <time>2024-08-09T13:26:03Z</time>
      </trkpt>
      <trkpt lat="45.07125" lon="6.15591">
        <ele>1358</ele>
        <time>2024-08-09T13:26:04Z</time>
      </trkpt>
      <trkpt lat="45.07123" lon="6.1559">
        <ele>1357.6</ele>
        <time>2024-08-09T13:26:05Z</time>
      </trkpt>
      <trkpt lat="45.07123" lon="6.1559">
        <ele>1357.4</ele>
        <time>2024-08-09T13:26:06Z</time>
      </trkpt>
      <trkpt lat="45.0712" lon="6.15591">
        <ele>1357.2</ele>
        <time>2024-08-09T13:26:07Z</time>
      </trkpt>
      <trkpt lat="45.0712" lon="6.15591">
        <ele>1357.2</ele>
        <time>2024-08-09T13:26:08Z</time>
      </trkpt>
      <trkpt lat="45.07118" lon="6.15592">
        <ele>1357</ele>
        <time>2024-08-09T13:26:09Z</time>
      </trkpt>
      <trkpt lat="45.07116" lon="6.15593">
        <ele>1356.4</ele>
        <time>2024-08-09T13:26:10Z</time>
      </trkpt>
      <trkpt lat="45.07116" lon="6.15593">
        <ele>1356.2</ele>
        <time>2024-08-09T13:26:11Z</time>
      </trkpt>
      <trkpt lat="45.07116" lon="6.15593">
        <ele>1356.2</ele>
        <time>2024-08-09T13:26:12Z</time>
      </trkpt>
      <trkpt lat="45.07115" lon="6.15595">
        <ele>1356</ele>
        <time>2024-08-09T13:26:13Z</time>
      </trkpt>
      <trkpt lat="45.07115" lon="6.15595">
        <ele>1356</ele>
        <time>2024-08-09T13:26:14Z</time>
      </trkpt>
      <trkpt lat="45.07113" lon="6.15596">
        <ele>1355.6</ele>
        <time>2024-08-09T13:26:15Z</time>
      </trkpt>
      <trkpt lat="45.07113" lon="6.15596">
        <ele>1355.2</ele>
        <time>2024-08-09T13:26:16Z</time>
      </trkpt>
      <trkpt lat="45.07113" lon="6.15596">
        <ele>1354.6</ele>
        <time>2024-08-09T13:26:17Z</time>
      </trkpt>
      <trkpt lat="45.07113" lon="6.15596">
        <ele>1354.2</ele>
        <time>2024-08-09T13:26:18Z</time>
      </trkpt>
      <trkpt lat="45.0711" lon="6.15596">
        <ele>1354.4</ele>
        <time>2024-08-09T13:26:19Z</time>
      </trkpt>
      <trkpt lat="45.0711" lon="6.15596">
        <ele>1354.2</ele>
        <time>2024-08-09T13:26:20Z</time>
      </trkpt>
      <trkpt lat="45.07108" lon="6.15596">
        <ele>1354</ele>
        <time>2024-08-09T13:26:21Z</time>
      </trkpt>
      <trkpt lat="45.07108" lon="6.15596">
        <ele>1353.8</ele>
        <time>2024-08-09T13:26:22Z</time>
      </trkpt>
      <trkpt lat="45.07106" lon="6.15597">
        <ele>1353.4</ele>
        <time>2024-08-09T13:26:23Z</time>
      </trkpt>
      <trkpt lat="45.07106" lon="6.15597">
        <ele>1352.6</ele>
        <time>2024-08-09T13:26:24Z</time>
      </trkpt>
      <trkpt lat="45.07106" lon="6.15597">
        <ele>1352.4</ele>
        <time>2024-08-09T13:26:25Z</time>
      </trkpt>
      <trkpt lat="45.07104" lon="6.15599">
        <ele>1352.2</ele>
        <time>2024-08-09T13:26:26Z</time>
      </trkpt>
      <trkpt lat="45.07104" lon="6.15599">
        <ele>1352</ele>
        <time>2024-08-09T13:26:27Z</time>
      </trkpt>
      <trkpt lat="45.07102" lon="6.156">
        <ele>1351.8</ele>
        <time>2024-08-09T13:26:28Z</time>
      </trkpt>
      <trkpt lat="45.07102" lon="6.156">
        <ele>1351.8</ele>
        <time>2024-08-09T13:26:29Z</time>
      </trkpt>
      <trkpt lat="45.07099" lon="6.15601">
        <ele>1351.4</ele>
        <time>2024-08-09T13:26:30Z</time>
      </trkpt>
      <trkpt lat="45.07099" lon="6.15601">
        <ele>1351</ele>
        <time>2024-08-09T13:26:31Z</time>
      </trkpt>
      <trkpt lat="45.07097" lon="6.15601">
        <ele>1350.6</ele>
        <time>2024-08-09T13:26:32Z</time>
      </trkpt>
      <trkpt lat="45.07094" lon="6.156">
        <ele>1350.4</ele>
        <time>2024-08-09T13:26:33Z</time>
      </trkpt>
      <trkpt lat="45.07094" lon="6.156">
        <ele>1350.2</ele>
        <time>2024-08-09T13:26:34Z</time>
      </trkpt>
      <trkpt lat="45.07092" lon="6.15601">
        <ele>1349.6</ele>
        <time>2024-08-09T13:26:35Z</time>
      </trkpt>
      <trkpt lat="45.07092" lon="6.15601">
        <ele>1349.4</ele>
        <time>2024-08-09T13:26:36Z</time>
      </trkpt>
      <trkpt lat="45.07089" lon="6.15601">
        <ele>1349.2</ele>
        <time>2024-08-09T13:26:37Z</time>
      </trkpt>
      <trkpt lat="45.07089" lon="6.15601">
        <ele>1349</ele>
        <time>2024-08-09T13:26:38Z</time>
      </trkpt>
      <trkpt lat="45.07087" lon="6.15601">
        <ele>1348.8</ele>
        <time>2024-08-09T13:26:39Z</time>
      </trkpt>
      <trkpt lat="45.07087" lon="6.15601">
        <ele>1348.4</ele>
        <time>2024-08-09T13:26:40Z</time>
      </trkpt>
      <trkpt lat="45.07085" lon="6.156">
        <ele>1348.2</ele>
        <time>2024-08-09T13:26:41Z</time>
      </trkpt>
      <trkpt lat="45.07085" lon="6.156">
        <ele>1348.2</ele>
        <time>2024-08-09T13:26:42Z</time>
      </trkpt>
      <trkpt lat="45.07085" lon="6.156">
        <ele>1347.6</ele>
        <time>2024-08-09T13:26:43Z</time>
      </trkpt>
      <trkpt lat="45.07083" lon="6.156">
        <ele>1347</ele>
        <time>2024-08-09T13:26:44Z</time>
      </trkpt>
      <trkpt lat="45.07083" lon="6.156">
        <ele>1346.8</ele>
        <time>2024-08-09T13:26:45Z</time>
      </trkpt>
      <trkpt lat="45.07083" lon="6.156">
        <ele>1346.6</ele>
        <time>2024-08-09T13:26:46Z</time>
      </trkpt>
      <trkpt lat="45.07082" lon="6.15603">
        <ele>1346</ele>
        <time>2024-08-09T13:26:47Z</time>
      </trkpt>
      <trkpt lat="45.07082" lon="6.15603">
        <ele>1346</ele>
        <time>2024-08-09T13:26:48Z</time>
      </trkpt>
      <trkpt lat="45.07082" lon="6.15603">
        <ele>1346</ele>
        <time>2024-08-09T13:26:49Z</time>
      </trkpt>
      <trkpt lat="45.07082" lon="6.15603">
        <ele>1345.4</ele>
        <time>2024-08-09T13:26:50Z</time>
      </trkpt>
      <trkpt lat="45.0708" lon="6.15604">
        <ele>1345.2</ele>
        <time>2024-08-09T13:26:51Z</time>
      </trkpt>
      <trkpt lat="45.0708" lon="6.15604">
        <ele>1344.8</ele>
        <time>2024-08-09T13:26:52Z</time>
      </trkpt>
      <trkpt lat="45.07079" lon="6.15607">
        <ele>1344.4</ele>
        <time>2024-08-09T13:26:53Z</time>
      </trkpt>
      <trkpt lat="45.07079" lon="6.15607">
        <ele>1343.8</ele>
        <time>2024-08-09T13:26:54Z</time>
      </trkpt>
      <trkpt lat="45.07078" lon="6.15609">
        <ele>1343.4</ele>
        <time>2024-08-09T13:26:55Z</time>
      </trkpt>
      <trkpt lat="45.07078" lon="6.15609">
        <ele>1343.2</ele>
        <time>2024-08-09T13:26:56Z</time>
      </trkpt>
      <trkpt lat="45.07076" lon="6.15609">
        <ele>1343</ele>
        <time>2024-08-09T13:26:57Z</time>
      </trkpt>
      <trkpt lat="45.07074" lon="6.15609">
        <ele>1342.4</ele>
        <time>2024-08-09T13:26:58Z</time>
      </trkpt>
      <trkpt lat="45.07074" lon="6.15609">
        <ele>1342.2</ele>
        <time>2024-08-09T13:26:59Z</time>
      </trkpt>
      <trkpt lat="45.0707" lon="6.15609">
        <ele>1341.8</ele>
        <time>2024-08-09T13:27:00Z</time>
      </trkpt>
      <trkpt lat="45.0707" lon="6.15609">
        <ele>1341.4</ele>
        <time>2024-08-09T13:27:01Z</time>
      </trkpt>
      <trkpt lat="45.07068" lon="6.15609">
        <ele>1340.8</ele>
        <time>2024-08-09T13:27:02Z</time>
      </trkpt>
      <trkpt lat="45.07066" lon="6.1561">
        <ele>1340.8</ele>
        <time>2024-08-09T13:27:03Z</time>
      </trkpt>
      <trkpt lat="45.07066" lon="6.1561">
        <ele>1340.6</ele>
        <time>2024-08-09T13:27:04Z</time>
      </trkpt>
      <trkpt lat="45.07064" lon="6.1561">
        <ele>1340.2</ele>
        <time>2024-08-09T13:27:05Z</time>
      </trkpt>
      <trkpt lat="45.07064" lon="6.1561">
        <ele>1340</ele>
        <time>2024-08-09T13:27:06Z</time>
      </trkpt>
      <trkpt lat="45.07062" lon="6.15612">
        <ele>1339.6</ele>
        <time>2024-08-09T13:27:07Z</time>
      </trkpt>
      <trkpt lat="45.07062" lon="6.15612">
        <ele>1339.6</ele>
        <time>2024-08-09T13:27:08Z</time>
      </trkpt>
      <trkpt lat="45.07062" lon="6.15612">
        <ele>1339.4</ele>
        <time>2024-08-09T13:27:09Z</time>
      </trkpt>
      <trkpt lat="45.07061" lon="6.15613">
        <ele>1339.2</ele>
        <time>2024-08-09T13:27:10Z</time>
      </trkpt>
      <trkpt lat="45.07061" lon="6.15613">
        <ele>1338.6</ele>
        <time>2024-08-09T13:27:11Z</time>
      </trkpt>
      <trkpt lat="45.07061" lon="6.15613">
        <ele>1338.6</ele>
        <time>2024-08-09T13:27:12Z</time>
      </trkpt>
      <trkpt lat="45.07058" lon="6.15614">
        <ele>1338.4</ele>
        <time>2024-08-09T13:27:13Z</time>
      </trkpt>
      <trkpt lat="45.07058" lon="6.15614">
        <ele>1338.2</ele>
        <time>2024-08-09T13:27:14Z</time>
      </trkpt>
      <trkpt lat="45.07058" lon="6.15614">
        <ele>1337.8</ele>
        <time>2024-08-09T13:27:15Z</time>
      </trkpt>
      <trkpt lat="45.07057" lon="6.15616">
        <ele>1337.6</ele>
        <time>2024-08-09T13:27:16Z</time>
      </trkpt>
      <trkpt lat="45.07057" lon="6.15616">
        <ele>1337</ele>
        <time>2024-08-09T13:27:17Z</time>
      </trkpt>
      <trkpt lat="45.07057" lon="6.15616">
        <ele>1336.6</ele>
        <time>2024-08-09T13:27:18Z</time>
      </trkpt>
      <trkpt lat="45.07055" lon="6.15618">
        <ele>1336.6</ele>
        <time>2024-08-09T13:27:19Z</time>
      </trkpt>
      <trkpt lat="45.07055" lon="6.15618">
        <ele>1336.2</ele>
        <time>2024-08-09T13:27:20Z</time>
      </trkpt>
      <trkpt lat="45.07055" lon="6.15618">
        <ele>1336</ele>
        <time>2024-08-09T13:27:21Z</time>
      </trkpt>
      <trkpt lat="45.07053" lon="6.15618">
        <ele>1335.8</ele>
        <time>2024-08-09T13:27:22Z</time>
      </trkpt>
      <trkpt lat="45.07053" lon="6.15618">
        <ele>1335.8</ele>
        <time>2024-08-09T13:27:23Z</time>
      </trkpt>
      <trkpt lat="45.07052" lon="6.1562">
        <ele>1335.2</ele>
        <time>2024-08-09T13:27:24Z</time>
      </trkpt>
      <trkpt lat="45.07052" lon="6.1562">
        <ele>1335</ele>
        <time>2024-08-09T13:27:25Z</time>
      </trkpt>
      <trkpt lat="45.07053" lon="6.15623">
        <ele>1334.8</ele>
        <time>2024-08-09T13:27:26Z</time>
      </trkpt>
      <trkpt lat="45.07053" lon="6.15623">
        <ele>1334.6</ele>
        <time>2024-08-09T13:27:27Z</time>
      </trkpt>
      <trkpt lat="45.07053" lon="6.15626">
        <ele>1334.2</ele>
        <time>2024-08-09T13:27:28Z</time>
      </trkpt>
      <trkpt lat="45.07053" lon="6.15626">
        <ele>1334</ele>
        <time>2024-08-09T13:27:29Z</time>
      </trkpt>
      <trkpt lat="45.07053" lon="6.15626">
        <ele>1333.6</ele>
        <time>2024-08-09T13:27:30Z</time>
      </trkpt>
      <trkpt lat="45.07052" lon="6.15629">
        <ele>1333.4</ele>
        <time>2024-08-09T13:27:31Z</time>
      </trkpt>
      <trkpt lat="45.07052" lon="6.15629">
        <ele>1333.2</ele>
        <time>2024-08-09T13:27:32Z</time>
      </trkpt>
      <trkpt lat="45.07054" lon="6.1563">
        <ele>1332.8</ele>
        <time>2024-08-09T13:27:33Z</time>
      </trkpt>
      <trkpt lat="45.07054" lon="6.1563">
        <ele>1332.6</ele>
        <time>2024-08-09T13:27:34Z</time>
      </trkpt>
      <trkpt lat="45.07056" lon="6.15632">
        <ele>1332.2</ele>
        <time>2024-08-09T13:27:35Z</time>
      </trkpt>
      <trkpt lat="45.07056" lon="6.15632">
        <ele>1332</ele>
        <time>2024-08-09T13:27:36Z</time>
      </trkpt>
      <trkpt lat="45.07059" lon="6.15633">
        <ele>1331.8</ele>
        <time>2024-08-09T13:27:37Z</time>
      </trkpt>
      <trkpt lat="45.07061" lon="6.15634">
        <ele>1331.2</ele>
        <time>2024-08-09T13:27:38Z</time>
      </trkpt>
      <trkpt lat="45.07061" lon="6.15634">
        <ele>1330.8</ele>
        <time>2024-08-09T13:27:39Z</time>
      </trkpt>
      <trkpt lat="45.07062" lon="6.15636">
        <ele>1330.8</ele>
        <time>2024-08-09T13:27:40Z</time>
      </trkpt>
      <trkpt lat="45.07062" lon="6.15636">
        <ele>1330.4</ele>
        <time>2024-08-09T13:27:41Z</time>
      </trkpt>
      <trkpt lat="45.07065" lon="6.15637">
        <ele>1330.4</ele>
        <time>2024-08-09T13:27:42Z</time>
      </trkpt>
      <trkpt lat="45.07066" lon="6.15639">
        <ele>1330</ele>
        <time>2024-08-09T13:27:43Z</time>
      </trkpt>
      <trkpt lat="45.07068" lon="6.15641">
        <ele>1329.8</ele>
        <time>2024-08-09T13:27:44Z</time>
      </trkpt>
      <trkpt lat="45.0707" lon="6.15641">
        <ele>1329.4</ele>
        <time>2024-08-09T13:27:45Z</time>
      </trkpt>
      <trkpt lat="45.0707" lon="6.15641">
        <ele>1329.4</ele>
        <time>2024-08-09T13:27:46Z</time>
      </trkpt>
      <trkpt lat="45.07072" lon="6.15644">
        <ele>1329.4</ele>
        <time>2024-08-09T13:27:47Z</time>
      </trkpt>
      <trkpt lat="45.07072" lon="6.15644">
        <ele>1329.2</ele>
        <time>2024-08-09T13:27:48Z</time>
      </trkpt>
      <trkpt lat="45.07073" lon="6.15647">
        <ele>1329.2</ele>
        <time>2024-08-09T13:27:49Z</time>
      </trkpt>
      <trkpt lat="45.07073" lon="6.15647">
        <ele>1329.2</ele>
        <time>2024-08-09T13:27:50Z</time>
      </trkpt>
      <trkpt lat="45.07074" lon="6.15651">
        <ele>1329.2</ele>
        <time>2024-08-09T13:27:51Z</time>
      </trkpt>
      <trkpt lat="45.07074" lon="6.15651">
        <ele>1329.4</ele>
        <time>2024-08-09T13:27:52Z</time>
      </trkpt>
      <trkpt lat="45.07076" lon="6.15655">
        <ele>1329.4</ele>
        <time>2024-08-09T13:27:53Z</time>
      </trkpt>
      <trkpt lat="45.07076" lon="6.15655">
        <ele>1329.2</ele>
        <time>2024-08-09T13:27:54Z</time>
      </trkpt>
      <trkpt lat="45.07076" lon="6.15655">
        <ele>1329</ele>
        <time>2024-08-09T13:27:55Z</time>
      </trkpt>
      <trkpt lat="45.07076" lon="6.15658">
        <ele>1328.6</ele>
        <time>2024-08-09T13:27:56Z</time>
      </trkpt>
      <trkpt lat="45.07076" lon="6.15658">
        <ele>1328.8</ele>
        <time>2024-08-09T13:27:57Z</time>
      </trkpt>
      <trkpt lat="45.07074" lon="6.15659">
        <ele>1328.6</ele>
        <time>2024-08-09T13:27:58Z</time>
      </trkpt>
      <trkpt lat="45.07074" lon="6.15659">
        <ele>1328.4</ele>
        <time>2024-08-09T13:27:59Z</time>
      </trkpt>
      <trkpt lat="45.07074" lon="6.15659">
        <ele>1328.2</ele>
        <time>2024-08-09T13:28:00Z</time>
      </trkpt>
      <trkpt lat="45.07072" lon="6.15662">
        <ele>1327.8</ele>
        <time>2024-08-09T13:28:01Z</time>
      </trkpt>
      <trkpt lat="45.07072" lon="6.15662">
        <ele>1327.8</ele>
        <time>2024-08-09T13:28:02Z</time>
      </trkpt>
      <trkpt lat="45.0707" lon="6.15664">
        <ele>1327.8</ele>
        <time>2024-08-09T13:28:03Z</time>
      </trkpt>
      <trkpt lat="45.0707" lon="6.15664">
        <ele>1327.6</ele>
        <time>2024-08-09T13:28:04Z</time>
      </trkpt>
      <trkpt lat="45.07068" lon="6.15663">
        <ele>1327.4</ele>
        <time>2024-08-09T13:28:05Z</time>
      </trkpt>
      <trkpt lat="45.07068" lon="6.15663">
        <ele>1327.2</ele>
        <time>2024-08-09T13:28:06Z</time>
      </trkpt>
      <trkpt lat="45.07065" lon="6.15662">
        <ele>1327</ele>
        <time>2024-08-09T13:28:07Z</time>
      </trkpt>
      <trkpt lat="45.07065" lon="6.15662">
        <ele>1327</ele>
        <time>2024-08-09T13:28:08Z</time>
      </trkpt>
      <trkpt lat="45.07062" lon="6.15662">
        <ele>1326.8</ele>
        <time>2024-08-09T13:28:09Z</time>
      </trkpt>
      <trkpt lat="45.07062" lon="6.15662">
        <ele>1326.8</ele>
        <time>2024-08-09T13:28:10Z</time>
      </trkpt>
      <trkpt lat="45.07061" lon="6.15665">
        <ele>1326.6</ele>
        <time>2024-08-09T13:28:11Z</time>
      </trkpt>
      <trkpt lat="45.07061" lon="6.15665">
        <ele>1326.6</ele>
        <time>2024-08-09T13:28:12Z</time>
      </trkpt>
      <trkpt lat="45.07059" lon="6.15666">
        <ele>1326.6</ele>
        <time>2024-08-09T13:28:13Z</time>
      </trkpt>
      <trkpt lat="45.07059" lon="6.15666">
        <ele>1326</ele>
        <time>2024-08-09T13:28:14Z</time>
      </trkpt>
      <trkpt lat="45.07056" lon="6.15667">
        <ele>1325.6</ele>
        <time>2024-08-09T13:28:15Z</time>
      </trkpt>
      <trkpt lat="45.07056" lon="6.15667">
        <ele>1325.6</ele>
        <time>2024-08-09T13:28:16Z</time>
      </trkpt>
      <trkpt lat="45.07054" lon="6.15668">
        <ele>1325.2</ele>
        <time>2024-08-09T13:28:17Z</time>
      </trkpt>
      <trkpt lat="45.07054" lon="6.15668">
        <ele>1325</ele>
        <time>2024-08-09T13:28:18Z</time>
      </trkpt>
      <trkpt lat="45.07051" lon="6.15668">
        <ele>1325</ele>
        <time>2024-08-09T13:28:19Z</time>
      </trkpt>
      <trkpt lat="45.07051" lon="6.15668">
        <ele>1324.6</ele>
        <time>2024-08-09T13:28:20Z</time>
      </trkpt>
      <trkpt lat="45.07049" lon="6.15668">
        <ele>1324.2</ele>
        <time>2024-08-09T13:28:21Z</time>
      </trkpt>
      <trkpt lat="45.07049" lon="6.15668">
        <ele>1324</ele>
        <time>2024-08-09T13:28:22Z</time>
      </trkpt>
      <trkpt lat="45.07046" lon="6.15667">
        <ele>1323.6</ele>
        <time>2024-08-09T13:28:23Z</time>
      </trkpt>
      <trkpt lat="45.07046" lon="6.15667">
        <ele>1323.6</ele>
        <time>2024-08-09T13:28:24Z</time>
      </trkpt>
      <trkpt lat="45.07044" lon="6.15667">
        <ele>1323.2</ele>
        <time>2024-08-09T13:28:25Z</time>
      </trkpt>
      <trkpt lat="45.07044" lon="6.15667">
        <ele>1322.8</ele>
        <time>2024-08-09T13:28:26Z</time>
      </trkpt>
      <trkpt lat="45.07042" lon="6.15667">
        <ele>1322.8</ele>
        <time>2024-08-09T13:28:27Z</time>
      </trkpt>
      <trkpt lat="45.07042" lon="6.15667">
        <ele>1322.4</ele>
        <time>2024-08-09T13:28:28Z</time>
      </trkpt>
      <trkpt lat="45.07039" lon="6.15666">
        <ele>1322.2</ele>
        <time>2024-08-09T13:28:29Z</time>
      </trkpt>
      <trkpt lat="45.07039" lon="6.15666">
        <ele>1322</ele>
        <time>2024-08-09T13:28:30Z</time>
      </trkpt>
      <trkpt lat="45.07037" lon="6.15665">
        <ele>1321.8</ele>
        <time>2024-08-09T13:28:31Z</time>
      </trkpt>
      <trkpt lat="45.07037" lon="6.15665">
        <ele>1321.4</ele>
        <time>2024-08-09T13:28:32Z</time>
      </trkpt>
      <trkpt lat="45.07035" lon="6.15665">
        <ele>1321.4</ele>
        <time>2024-08-09T13:28:33Z</time>
      </trkpt>
      <trkpt lat="45.07035" lon="6.15665">
        <ele>1320.8</ele>
        <time>2024-08-09T13:28:34Z</time>
      </trkpt>
      <trkpt lat="45.07035" lon="6.15665">
        <ele>1320.4</ele>
        <time>2024-08-09T13:28:35Z</time>
      </trkpt>
      <trkpt lat="45.07032" lon="6.15665">
        <ele>1320.2</ele>
        <time>2024-08-09T13:28:36Z</time>
      </trkpt>
      <trkpt lat="45.07032" lon="6.15665">
        <ele>1320.2</ele>
        <time>2024-08-09T13:28:37Z</time>
      </trkpt>
      <trkpt lat="45.0703" lon="6.15666">
        <ele>1320</ele>
        <time>2024-08-09T13:28:38Z</time>
      </trkpt>
      <trkpt lat="45.0703" lon="6.15666">
        <ele>1319.6</ele>
        <time>2024-08-09T13:28:39Z</time>
      </trkpt>
      <trkpt lat="45.07028" lon="6.15667">
        <ele>1319.2</ele>
        <time>2024-08-09T13:28:40Z</time>
      </trkpt>
      <trkpt lat="45.07028" lon="6.15667">
        <ele>1319</ele>
        <time>2024-08-09T13:28:41Z</time>
      </trkpt>
      <trkpt lat="45.07026" lon="6.15668">
        <ele>1318.6</ele>
        <time>2024-08-09T13:28:42Z</time>
      </trkpt>
      <trkpt lat="45.07026" lon="6.15668">
        <ele>1318.4</ele>
        <time>2024-08-09T13:28:43Z</time>
      </trkpt>
      <trkpt lat="45.07024" lon="6.15669">
        <ele>1318.2</ele>
        <time>2024-08-09T13:28:44Z</time>
      </trkpt>
      <trkpt lat="45.07024" lon="6.15669">
        <ele>1317.8</ele>
        <time>2024-08-09T13:28:45Z</time>
      </trkpt>
      <trkpt lat="45.07023" lon="6.1567">
        <ele>1317.6</ele>
        <time>2024-08-09T13:28:46Z</time>
      </trkpt>
      <trkpt lat="45.07023" lon="6.1567">
        <ele>1317.4</ele>
        <time>2024-08-09T13:28:47Z</time>
      </trkpt>
      <trkpt lat="45.07021" lon="6.15673">
        <ele>1317</ele>
        <time>2024-08-09T13:28:48Z</time>
      </trkpt>
      <trkpt lat="45.07021" lon="6.15673">
        <ele>1316.6</ele>
        <time>2024-08-09T13:28:49Z</time>
      </trkpt>
      <trkpt lat="45.07018" lon="6.15675">
        <ele>1316.4</ele>
        <time>2024-08-09T13:28:50Z</time>
      </trkpt>
      <trkpt lat="45.07018" lon="6.15675">
        <ele>1316.2</ele>
        <time>2024-08-09T13:28:51Z</time>
      </trkpt>
      <trkpt lat="45.07016" lon="6.15678">
        <ele>1315.8</ele>
        <time>2024-08-09T13:28:52Z</time>
      </trkpt>
      <trkpt lat="45.07016" lon="6.15678">
        <ele>1315.6</ele>
        <time>2024-08-09T13:28:53Z</time>
      </trkpt>
      <trkpt lat="45.07013" lon="6.1568">
        <ele>1315</ele>
        <time>2024-08-09T13:28:54Z</time>
      </trkpt>
      <trkpt lat="45.07013" lon="6.1568">
        <ele>1314.8</ele>
        <time>2024-08-09T13:28:55Z</time>
      </trkpt>
      <trkpt lat="45.0701" lon="6.15681">
        <ele>1314.6</ele>
        <time>2024-08-09T13:28:56Z</time>
      </trkpt>
      <trkpt lat="45.0701" lon="6.15681">
        <ele>1314.4</ele>
        <time>2024-08-09T13:28:57Z</time>
      </trkpt>
      <trkpt lat="45.07007" lon="6.15682">
        <ele>1314</ele>
        <time>2024-08-09T13:28:58Z</time>
      </trkpt>
      <trkpt lat="45.07007" lon="6.15682">
        <ele>1313.6</ele>
        <time>2024-08-09T13:28:59Z</time>
      </trkpt>
      <trkpt lat="45.07005" lon="6.15683">
        <ele>1313.6</ele>
        <time>2024-08-09T13:29:00Z</time>
      </trkpt>
      <trkpt lat="45.07005" lon="6.15683">
        <ele>1313.2</ele>
        <time>2024-08-09T13:29:01Z</time>
      </trkpt>
      <trkpt lat="45.07005" lon="6.15683">
        <ele>1312.4</ele>
        <time>2024-08-09T13:29:02Z</time>
      </trkpt>
      <trkpt lat="45.07002" lon="6.15685">
        <ele>1312.4</ele>
        <time>2024-08-09T13:29:03Z</time>
      </trkpt>
      <trkpt lat="45.07002" lon="6.15685">
        <ele>1312.4</ele>
        <time>2024-08-09T13:29:04Z</time>
      </trkpt>
      <trkpt lat="45.07" lon="6.15685">
        <ele>1312.2</ele>
        <time>2024-08-09T13:29:05Z</time>
      </trkpt>
      <trkpt lat="45.06998" lon="6.15686">
        <ele>1311.8</ele>
        <time>2024-08-09T13:29:06Z</time>
      </trkpt>
      <trkpt lat="45.06998" lon="6.15686">
        <ele>1311.8</ele>
        <time>2024-08-09T13:29:07Z</time>
      </trkpt>
      <trkpt lat="45.06995" lon="6.15686">
        <ele>1311.4</ele>
        <time>2024-08-09T13:29:08Z</time>
      </trkpt>
      <trkpt lat="45.06995" lon="6.15686">
        <ele>1311.2</ele>
        <time>2024-08-09T13:29:09Z</time>
      </trkpt>
      <trkpt lat="45.06992" lon="6.15687">
        <ele>1311</ele>
        <time>2024-08-09T13:29:10Z</time>
      </trkpt>
      <trkpt lat="45.06992" lon="6.15687">
        <ele>1310.6</ele>
        <time>2024-08-09T13:29:11Z</time>
      </trkpt>
      <trkpt lat="45.0699" lon="6.15686">
        <ele>1310.6</ele>
        <time>2024-08-09T13:29:12Z</time>
      </trkpt>
      <trkpt lat="45.06988" lon="6.15687">
        <ele>1310.2</ele>
        <time>2024-08-09T13:29:13Z</time>
      </trkpt>
      <trkpt lat="45.06988" lon="6.15687">
        <ele>1310</ele>
        <time>2024-08-09T13:29:14Z</time>
      </trkpt>
      <trkpt lat="45.06986" lon="6.15686">
        <ele>1310</ele>
        <time>2024-08-09T13:29:15Z</time>
      </trkpt>
      <trkpt lat="45.06986" lon="6.15686">
        <ele>1309.6</ele>
        <time>2024-08-09T13:29:16Z</time>
      </trkpt>
      <trkpt lat="45.06982" lon="6.15686">
        <ele>1309.2</ele>
        <time>2024-08-09T13:29:17Z</time>
      </trkpt>
      <trkpt lat="45.06981" lon="6.15684">
        <ele>1309</ele>
        <time>2024-08-09T13:29:18Z</time>
      </trkpt>
      <trkpt lat="45.06979" lon="6.15683">
        <ele>1308.8</ele>
        <time>2024-08-09T13:29:19Z</time>
      </trkpt>
      <trkpt lat="45.06978" lon="6.15682">
        <ele>1308.6</ele>
        <time>2024-08-09T13:29:20Z</time>
      </trkpt>
      <trkpt lat="45.06977" lon="6.15681">
        <ele>1308.6</ele>
        <time>2024-08-09T13:29:21Z</time>
      </trkpt>
      <trkpt lat="45.06977" lon="6.1568">
        <ele>1308.4</ele>
        <time>2024-08-09T13:29:22Z</time>
      </trkpt>
      <trkpt lat="45.06974" lon="6.15679">
        <ele>1308.4</ele>
        <time>2024-08-09T13:29:23Z</time>
      </trkpt>
      <trkpt lat="45.06974" lon="6.15679">
        <ele>1308.4</ele>
        <time>2024-08-09T13:29:24Z</time>
      </trkpt>
      <trkpt lat="45.06972" lon="6.15676">
        <ele>1308.2</ele>
        <time>2024-08-09T13:29:25Z</time>
      </trkpt>
      <trkpt lat="45.06972" lon="6.15676">
        <ele>1308.2</ele>
        <time>2024-08-09T13:29:26Z</time>
      </trkpt>
      <trkpt lat="45.0697" lon="6.15675">
        <ele>1308.2</ele>
        <time>2024-08-09T13:29:27Z</time>
      </trkpt>
      <trkpt lat="45.0697" lon="6.15675">
        <ele>1308</ele>
        <time>2024-08-09T13:29:28Z</time>
      </trkpt>
      <trkpt lat="45.06968" lon="6.15674">
        <ele>1307.8</ele>
        <time>2024-08-09T13:29:29Z</time>
      </trkpt>
      <trkpt lat="45.06968" lon="6.15674">
        <ele>1307.6</ele>
        <time>2024-08-09T13:29:30Z</time>
      </trkpt>
      <trkpt lat="45.06966" lon="6.15673">
        <ele>1307.4</ele>
        <time>2024-08-09T13:29:31Z</time>
      </trkpt>
      <trkpt lat="45.06966" lon="6.15673">
        <ele>1307.4</ele>
        <time>2024-08-09T13:29:32Z</time>
      </trkpt>
      <trkpt lat="45.06963" lon="6.15673">
        <ele>1307</ele>
        <time>2024-08-09T13:29:33Z</time>
      </trkpt>
      <trkpt lat="45.06961" lon="6.15672">
        <ele>1307</ele>
        <time>2024-08-09T13:29:34Z</time>
      </trkpt>
      <trkpt lat="45.06961" lon="6.15672">
        <ele>1307</ele>
        <time>2024-08-09T13:29:35Z</time>
      </trkpt>
      <trkpt lat="45.06958" lon="6.15673">
        <ele>1307</ele>
        <time>2024-08-09T13:29:36Z</time>
      </trkpt>
      <trkpt lat="45.06958" lon="6.15673">
        <ele>1306.8</ele>
        <time>2024-08-09T13:29:37Z</time>
      </trkpt>
      <trkpt lat="45.06955" lon="6.15673">
        <ele>1306.8</ele>
        <time>2024-08-09T13:29:38Z</time>
      </trkpt>
      <trkpt lat="45.06953" lon="6.15672">
        <ele>1306.6</ele>
        <time>2024-08-09T13:29:39Z</time>
      </trkpt>
      <trkpt lat="45.06953" lon="6.15672">
        <ele>1306.4</ele>
        <time>2024-08-09T13:29:40Z</time>
      </trkpt>
      <trkpt lat="45.0695" lon="6.1567">
        <ele>1306.2</ele>
        <time>2024-08-09T13:29:41Z</time>
      </trkpt>
      <trkpt lat="45.06949" lon="6.15669">
        <ele>1306</ele>
        <time>2024-08-09T13:29:42Z</time>
      </trkpt>
      <trkpt lat="45.06949" lon="6.15669">
        <ele>1305.6</ele>
        <time>2024-08-09T13:29:43Z</time>
      </trkpt>
      <trkpt lat="45.06946" lon="6.15668">
        <ele>1305.4</ele>
        <time>2024-08-09T13:29:44Z</time>
      </trkpt>
      <trkpt lat="45.06946" lon="6.15668">
        <ele>1305.4</ele>
        <time>2024-08-09T13:29:45Z</time>
      </trkpt>
      <trkpt lat="45.06943" lon="6.15668">
        <ele>1305.2</ele>
        <time>2024-08-09T13:29:46Z</time>
      </trkpt>
      <trkpt lat="45.06943" lon="6.15668">
        <ele>1305</ele>
        <time>2024-08-09T13:29:47Z</time>
      </trkpt>
      <trkpt lat="45.06941" lon="6.15667">
        <ele>1305</ele>
        <time>2024-08-09T13:29:48Z</time>
      </trkpt>
      <trkpt lat="45.06941" lon="6.15667">
        <ele>1304.8</ele>
        <time>2024-08-09T13:29:49Z</time>
      </trkpt>
      <trkpt lat="45.06938" lon="6.15666">
        <ele>1304.8</ele>
        <time>2024-08-09T13:29:50Z</time>
      </trkpt>
      <trkpt lat="45.06938" lon="6.15666">
        <ele>1304.6</ele>
        <time>2024-08-09T13:29:51Z</time>
      </trkpt>
      <trkpt lat="45.06936" lon="6.15665">
        <ele>1304.4</ele>
        <time>2024-08-09T13:29:52Z</time>
      </trkpt>
      <trkpt lat="45.06936" lon="6.15665">
        <ele>1304.2</ele>
        <time>2024-08-09T13:29:53Z</time>
      </trkpt>
      <trkpt lat="45.06933" lon="6.15664">
        <ele>1304.4</ele>
        <time>2024-08-09T13:29:54Z</time>
      </trkpt>
      <trkpt lat="45.06933" lon="6.15664">
        <ele>1304.2</ele>
        <time>2024-08-09T13:29:55Z</time>
      </trkpt>
      <trkpt lat="45.06931" lon="6.15662">
        <ele>1304.2</ele>
        <time>2024-08-09T13:29:56Z</time>
      </trkpt>
      <trkpt lat="45.06931" lon="6.15662">
        <ele>1304.2</ele>
        <time>2024-08-09T13:29:57Z</time>
      </trkpt>
      <trkpt lat="45.06929" lon="6.1566">
        <ele>1304.2</ele>
        <time>2024-08-09T13:29:58Z</time>
      </trkpt>
      <trkpt lat="45.06929" lon="6.1566">
        <ele>1304.2</ele>
        <time>2024-08-09T13:29:59Z</time>
      </trkpt>
      <trkpt lat="45.06927" lon="6.15657">
        <ele>1303.8</ele>
        <time>2024-08-09T13:30:00Z</time>
      </trkpt>
      <trkpt lat="45.06927" lon="6.15657">
        <ele>1303.8</ele>
        <time>2024-08-09T13:30:01Z</time>
      </trkpt>
      <trkpt lat="45.06925" lon="6.15653">
        <ele>1303.8</ele>
        <time>2024-08-09T13:30:02Z</time>
      </trkpt>
      <trkpt lat="45.06923" lon="6.15651">
        <ele>1303.8</ele>
        <time>2024-08-09T13:30:03Z</time>
      </trkpt>
      <trkpt lat="45.06923" lon="6.15651">
        <ele>1303.8</ele>
        <time>2024-08-09T13:30:04Z</time>
      </trkpt>
      <trkpt lat="45.06921" lon="6.15649">
        <ele>1303.8</ele>
        <time>2024-08-09T13:30:05Z</time>
      </trkpt>
      <trkpt lat="45.06921" lon="6.15649">
        <ele>1303.8</ele>
        <time>2024-08-09T13:30:06Z</time>
      </trkpt>
      <trkpt lat="45.06918" lon="6.15647">
        <ele>1303.8</ele>
        <time>2024-08-09T13:30:07Z</time>
      </trkpt>
      <trkpt lat="45.06918" lon="6.15647">
        <ele>1303.6</ele>
        <time>2024-08-09T13:30:08Z</time>
      </trkpt>
      <trkpt lat="45.06916" lon="6.15644">
        <ele>1303.4</ele>
        <time>2024-08-09T13:30:09Z</time>
      </trkpt>
      <trkpt lat="45.06916" lon="6.15644">
        <ele>1303.4</ele>
        <time>2024-08-09T13:30:10Z</time>
      </trkpt>
      <trkpt lat="45.06912" lon="6.15642">
        <ele>1303.4</ele>
        <time>2024-08-09T13:30:11Z</time>
      </trkpt>
      <trkpt lat="45.06912" lon="6.15642">
        <ele>1303.4</ele>
        <time>2024-08-09T13:30:12Z</time>
      </trkpt>
      <trkpt lat="45.0691" lon="6.15641">
        <ele>1303.4</ele>
        <time>2024-08-09T13:30:13Z</time>
      </trkpt>
      <trkpt lat="45.06909" lon="6.15641">
        <ele>1303.6</ele>
        <time>2024-08-09T13:30:14Z</time>
      </trkpt>
      <trkpt lat="45.06909" lon="6.15641">
        <ele>1303.6</ele>
        <time>2024-08-09T13:30:15Z</time>
      </trkpt>
      <trkpt lat="45.06909" lon="6.15641">
        <ele>1303.2</ele>
        <time>2024-08-09T13:30:16Z</time>
      </trkpt>
      <trkpt lat="45.06907" lon="6.15641">
        <ele>1302.8</ele>
        <time>2024-08-09T13:30:17Z</time>
      </trkpt>
      <trkpt lat="45.06907" lon="6.15641">
        <ele>1302.6</ele>
        <time>2024-08-09T13:30:18Z</time>
      </trkpt>
      <trkpt lat="45.06907" lon="6.15641">
        <ele>1302.2</ele>
        <time>2024-08-09T13:30:19Z</time>
      </trkpt>
      <trkpt lat="45.06904" lon="6.15642">
        <ele>1302.2</ele>
        <time>2024-08-09T13:30:20Z</time>
      </trkpt>
      <trkpt lat="45.06904" lon="6.15642">
        <ele>1301.8</ele>
        <time>2024-08-09T13:30:21Z</time>
      </trkpt>
      <trkpt lat="45.06904" lon="6.15642">
        <ele>1301.6</ele>
        <time>2024-08-09T13:30:22Z</time>
      </trkpt>
      <trkpt lat="45.06901" lon="6.15642">
        <ele>1301.2</ele>
        <time>2024-08-09T13:30:23Z</time>
      </trkpt>
      <trkpt lat="45.06901" lon="6.15642">
        <ele>1301</ele>
        <time>2024-08-09T13:30:24Z</time>
      </trkpt>
      <trkpt lat="45.06898" lon="6.15643">
        <ele>1300.8</ele>
        <time>2024-08-09T13:30:25Z</time>
      </trkpt>
      <trkpt lat="45.06898" lon="6.15643">
        <ele>1300.6</ele>
        <time>2024-08-09T13:30:26Z</time>
      </trkpt>
      <trkpt lat="45.06894" lon="6.15642">
        <ele>1300.2</ele>
        <time>2024-08-09T13:30:27Z</time>
      </trkpt>
      <trkpt lat="45.06894" lon="6.15642">
        <ele>1300</ele>
        <time>2024-08-09T13:30:28Z</time>
      </trkpt>
      <trkpt lat="45.06892" lon="6.15642">
        <ele>1300</ele>
        <time>2024-08-09T13:30:29Z</time>
      </trkpt>
      <trkpt lat="45.06892" lon="6.15642">
        <ele>1300</ele>
        <time>2024-08-09T13:30:30Z</time>
      </trkpt>
      <trkpt lat="45.06889" lon="6.1564">
        <ele>1300</ele>
        <time>2024-08-09T13:30:31Z</time>
      </trkpt>
      <trkpt lat="45.06889" lon="6.1564">
        <ele>1300</ele>
        <time>2024-08-09T13:30:32Z</time>
      </trkpt>
      <trkpt lat="45.06887" lon="6.15637">
        <ele>1299.8</ele>
        <time>2024-08-09T13:30:33Z</time>
      </trkpt>
      <trkpt lat="45.06887" lon="6.15637">
        <ele>1299.8</ele>
        <time>2024-08-09T13:30:34Z</time>
      </trkpt>
      <trkpt lat="45.06885" lon="6.15634">
        <ele>1299.8</ele>
        <time>2024-08-09T13:30:35Z</time>
      </trkpt>
      <trkpt lat="45.06885" lon="6.15634">
        <ele>1299.4</ele>
        <time>2024-08-09T13:30:36Z</time>
      </trkpt>
      <trkpt lat="45.06882" lon="6.15633">
        <ele>1299</ele>
        <time>2024-08-09T13:30:37Z</time>
      </trkpt>
      <trkpt lat="45.06882" lon="6.15633">
        <ele>1298.4</ele>
        <time>2024-08-09T13:30:38Z</time>
      </trkpt>
      <trkpt lat="45.06879" lon="6.15632">
        <ele>1298.2</ele>
        <time>2024-08-09T13:30:39Z</time>
      </trkpt>
      <trkpt lat="45.06879" lon="6.15632">
        <ele>1298</ele>
        <time>2024-08-09T13:30:40Z</time>
      </trkpt>
      <trkpt lat="45.06877" lon="6.15631">
        <ele>1297.8</ele>
        <time>2024-08-09T13:30:41Z</time>
      </trkpt>
      <trkpt lat="45.06877" lon="6.15631">
        <ele>1297.6</ele>
        <time>2024-08-09T13:30:42Z</time>
      </trkpt>
      <trkpt lat="45.06874" lon="6.15631">
        <ele>1297.4</ele>
        <time>2024-08-09T13:30:43Z</time>
      </trkpt>
      <trkpt lat="45.06874" lon="6.15631">
        <ele>1297.4</ele>
        <time>2024-08-09T13:30:44Z</time>
      </trkpt>
      <trkpt lat="45.06871" lon="6.15627">
        <ele>1297</ele>
        <time>2024-08-09T13:30:45Z</time>
      </trkpt>
      <trkpt lat="45.06871" lon="6.15627">
        <ele>1297</ele>
        <time>2024-08-09T13:30:46Z</time>
      </trkpt>
      <trkpt lat="45.06869" lon="6.15626">
        <ele>1296.6</ele>
        <time>2024-08-09T13:30:47Z</time>
      </trkpt>
      <trkpt lat="45.06869" lon="6.15626">
        <ele>1296.2</ele>
        <time>2024-08-09T13:30:48Z</time>
      </trkpt>
      <trkpt lat="45.06866" lon="6.15623">
        <ele>1295.8</ele>
        <time>2024-08-09T13:30:49Z</time>
      </trkpt>
      <trkpt lat="45.06866" lon="6.15623">
        <ele>1295.6</ele>
        <time>2024-08-09T13:30:50Z</time>
      </trkpt>
      <trkpt lat="45.06866" lon="6.15623">
        <ele>1295.6</ele>
        <time>2024-08-09T13:30:51Z</time>
      </trkpt>
      <trkpt lat="45.06865" lon="6.15621">
        <ele>1295.4</ele>
        <time>2024-08-09T13:30:52Z</time>
      </trkpt>
      <trkpt lat="45.06865" lon="6.15621">
        <ele>1295.2</ele>
        <time>2024-08-09T13:30:53Z</time>
      </trkpt>
      <trkpt lat="45.06863" lon="6.15618">
        <ele>1294.8</ele>
        <time>2024-08-09T13:30:54Z</time>
      </trkpt>
      <trkpt lat="45.06861" lon="6.15617">
        <ele>1294.8</ele>
        <time>2024-08-09T13:30:55Z</time>
      </trkpt>
      <trkpt lat="45.06861" lon="6.15617">
        <ele>1294.8</ele>
        <time>2024-08-09T13:30:56Z</time>
      </trkpt>
      <trkpt lat="45.0686" lon="6.15615">
        <ele>1294.4</ele>
        <time>2024-08-09T13:30:57Z</time>
      </trkpt>
      <trkpt lat="45.0686" lon="6.15615">
        <ele>1294.4</ele>
        <time>2024-08-09T13:30:58Z</time>
      </trkpt>
      <trkpt lat="45.06858" lon="6.15613">
        <ele>1294.4</ele>
        <time>2024-08-09T13:30:59Z</time>
      </trkpt>
      <trkpt lat="45.06858" lon="6.15613">
        <ele>1294.2</ele>
        <time>2024-08-09T13:31:00Z</time>
      </trkpt>
      <trkpt lat="45.06855" lon="6.15612">
        <ele>1294</ele>
        <time>2024-08-09T13:31:01Z</time>
      </trkpt>
      <trkpt lat="45.06855" lon="6.15612">
        <ele>1293.6</ele>
        <time>2024-08-09T13:31:02Z</time>
      </trkpt>
      <trkpt lat="45.06853" lon="6.15611">
        <ele>1293.6</ele>
        <time>2024-08-09T13:31:03Z</time>
      </trkpt>
      <trkpt lat="45.06853" lon="6.15611">
        <ele>1293.4</ele>
        <time>2024-08-09T13:31:04Z</time>
      </trkpt>
      <trkpt lat="45.06851" lon="6.15609">
        <ele>1293</ele>
        <time>2024-08-09T13:31:05Z</time>
      </trkpt>
      <trkpt lat="45.06851" lon="6.15609">
        <ele>1292.6</ele>
        <time>2024-08-09T13:31:06Z</time>
      </trkpt>
      <trkpt lat="45.06849" lon="6.15607">
        <ele>1292.4</ele>
        <time>2024-08-09T13:31:07Z</time>
      </trkpt>
      <trkpt lat="45.06849" lon="6.15607">
        <ele>1292.4</ele>
        <time>2024-08-09T13:31:08Z</time>
      </trkpt>
      <trkpt lat="45.06848" lon="6.15604">
        <ele>1292</ele>
        <time>2024-08-09T13:31:09Z</time>
      </trkpt>
      <trkpt lat="45.06848" lon="6.15604">
        <ele>1291.8</ele>
        <time>2024-08-09T13:31:10Z</time>
      </trkpt>
      <trkpt lat="45.06848" lon="6.15604">
        <ele>1291.8</ele>
        <time>2024-08-09T13:31:11Z</time>
      </trkpt>
      <trkpt lat="45.06848" lon="6.15604">
        <ele>1291.6</ele>
        <time>2024-08-09T13:31:12Z</time>
      </trkpt>
      <trkpt lat="45.06848" lon="6.15604">
        <ele>1291.6</ele>
        <time>2024-08-09T13:31:13Z</time>
      </trkpt>
      <trkpt lat="45.06848" lon="6.15604">
        <ele>1291.6</ele>
        <time>2024-08-09T13:31:14Z</time>
      </trkpt>
      <trkpt lat="45.06848" lon="6.15604">
        <ele>1291.6</ele>
        <time>2024-08-09T13:31:15Z</time>
      </trkpt>
      <trkpt lat="45.06848" lon="6.15604">
        <ele>1291.4</ele>
        <time>2024-08-09T13:31:16Z</time>
      </trkpt>
      <trkpt lat="45.06848" lon="6.15604">
        <ele>1291.4</ele>
        <time>2024-08-09T13:31:17Z</time>
      </trkpt>
      <trkpt lat="45.06848" lon="6.15604">
        <ele>1291.4</ele>
        <time>2024-08-09T13:31:18Z</time>
      </trkpt>
      <trkpt lat="45.06848" lon="6.15604">
        <ele>1291.2</ele>
        <time>2024-08-09T13:31:19Z</time>
      </trkpt>
      <trkpt lat="45.06848" lon="6.15604">
        <ele>1291.4</ele>
        <time>2024-08-09T13:31:20Z</time>
      </trkpt>
      <trkpt lat="45.06848" lon="6.15604">
        <ele>1291.4</ele>
        <time>2024-08-09T13:31:21Z</time>
      </trkpt>
      <trkpt lat="45.06847" lon="6.15608">
        <ele>1291.4</ele>
        <time>2024-08-09T13:31:22Z</time>
      </trkpt>
      <trkpt lat="45.06847" lon="6.15611">
        <ele>1291.2</ele>
        <time>2024-08-09T13:31:23Z</time>
      </trkpt>
      <trkpt lat="45.06847" lon="6.15614">
        <ele>1291.2</ele>
        <time>2024-08-09T13:31:24Z</time>
      </trkpt>
      <trkpt lat="45.06847" lon="6.15614">
        <ele>1291.2</ele>
        <time>2024-08-09T13:31:25Z</time>
      </trkpt>
      <trkpt lat="45.06848" lon="6.15618">
        <ele>1291.2</ele>
        <time>2024-08-09T13:31:26Z</time>
      </trkpt>
      <trkpt lat="45.06848" lon="6.15618">
        <ele>1291.2</ele>
        <time>2024-08-09T13:31:27Z</time>
      </trkpt>
      <trkpt lat="45.06851" lon="6.15621">
        <ele>1291.2</ele>
        <time>2024-08-09T13:31:28Z</time>
      </trkpt>
      <trkpt lat="45.06851" lon="6.15621">
        <ele>1291.2</ele>
        <time>2024-08-09T13:31:29Z</time>
      </trkpt>
      <trkpt lat="45.06853" lon="6.15623">
        <ele>1291.4</ele>
        <time>2024-08-09T13:31:30Z</time>
      </trkpt>
      <trkpt lat="45.06853" lon="6.15623">
        <ele>1291.4</ele>
        <time>2024-08-09T13:31:31Z</time>
      </trkpt>
      <trkpt lat="45.06854" lon="6.15627">
        <ele>1291.2</ele>
        <time>2024-08-09T13:31:32Z</time>
      </trkpt>
      <trkpt lat="45.06854" lon="6.15627">
        <ele>1291</ele>
        <time>2024-08-09T13:31:33Z</time>
      </trkpt>
      <trkpt lat="45.06856" lon="6.15629">
        <ele>1290.8</ele>
        <time>2024-08-09T13:31:34Z</time>
      </trkpt>
      <trkpt lat="45.06858" lon="6.15631">
        <ele>1290.8</ele>
        <time>2024-08-09T13:31:35Z</time>
      </trkpt>
      <trkpt lat="45.0686" lon="6.15632">
        <ele>1291</ele>
        <time>2024-08-09T13:31:36Z</time>
      </trkpt>
      <trkpt lat="45.0686" lon="6.15632">
        <ele>1291</ele>
        <time>2024-08-09T13:31:37Z</time>
      </trkpt>
      <trkpt lat="45.06862" lon="6.15634">
        <ele>1290.8</ele>
        <time>2024-08-09T13:31:38Z</time>
      </trkpt>
      <trkpt lat="45.06862" lon="6.15634">
        <ele>1290.6</ele>
        <time>2024-08-09T13:31:39Z</time>
      </trkpt>
      <trkpt lat="45.06865" lon="6.15637">
        <ele>1290.6</ele>
        <time>2024-08-09T13:31:40Z</time>
      </trkpt>
      <trkpt lat="45.06865" lon="6.15637">
        <ele>1290.6</ele>
        <time>2024-08-09T13:31:41Z</time>
      </trkpt>
      <trkpt lat="45.06867" lon="6.15639">
        <ele>1290.6</ele>
        <time>2024-08-09T13:31:42Z</time>
      </trkpt>
      <trkpt lat="45.06867" lon="6.15639">
        <ele>1290.6</ele>
        <time>2024-08-09T13:31:43Z</time>
      </trkpt>
      <trkpt lat="45.0687" lon="6.15641">
        <ele>1290.6</ele>
        <time>2024-08-09T13:31:44Z</time>
      </trkpt>
      <trkpt lat="45.0687" lon="6.15641">
        <ele>1290.6</ele>
        <time>2024-08-09T13:31:45Z</time>
      </trkpt>
      <trkpt lat="45.06872" lon="6.15644">
        <ele>1290.6</ele>
        <time>2024-08-09T13:31:46Z</time>
      </trkpt>
      <trkpt lat="45.06872" lon="6.15644">
        <ele>1290.2</ele>
        <time>2024-08-09T13:31:47Z</time>
      </trkpt>
      <trkpt lat="45.06875" lon="6.15645">
        <ele>1290.2</ele>
        <time>2024-08-09T13:31:48Z</time>
      </trkpt>
      <trkpt lat="45.06875" lon="6.15645">
        <ele>1290.2</ele>
        <time>2024-08-09T13:31:49Z</time>
      </trkpt>
      <trkpt lat="45.06877" lon="6.15646">
        <ele>1290</ele>
        <time>2024-08-09T13:31:50Z</time>
      </trkpt>
      <trkpt lat="45.06877" lon="6.15646">
        <ele>1289.6</ele>
        <time>2024-08-09T13:31:51Z</time>
      </trkpt>
      <trkpt lat="45.06877" lon="6.1565">
        <ele>1289.6</ele>
        <time>2024-08-09T13:31:52Z</time>
      </trkpt>
      <trkpt lat="45.06877" lon="6.1565">
        <ele>1289.6</ele>
        <time>2024-08-09T13:31:53Z</time>
      </trkpt>
      <trkpt lat="45.06879" lon="6.15652">
        <ele>1289.6</ele>
        <time>2024-08-09T13:31:54Z</time>
      </trkpt>
      <trkpt lat="45.06879" lon="6.15652">
        <ele>1289.4</ele>
        <time>2024-08-09T13:31:55Z</time>
      </trkpt>
      <trkpt lat="45.0688" lon="6.15654">
        <ele>1289.4</ele>
        <time>2024-08-09T13:31:56Z</time>
      </trkpt>
      <trkpt lat="45.0688" lon="6.15654">
        <ele>1289.4</ele>
        <time>2024-08-09T13:31:57Z</time>
      </trkpt>
      <trkpt lat="45.06883" lon="6.15656">
        <ele>1289.2</ele>
        <time>2024-08-09T13:31:58Z</time>
      </trkpt>
      <trkpt lat="45.06883" lon="6.15656">
        <ele>1289.2</ele>
        <time>2024-08-09T13:31:59Z</time>
      </trkpt>
      <trkpt lat="45.06885" lon="6.15657">
        <ele>1289.2</ele>
        <time>2024-08-09T13:32:00Z</time>
      </trkpt>
      <trkpt lat="45.06885" lon="6.15657">
        <ele>1289.2</ele>
        <time>2024-08-09T13:32:01Z</time>
      </trkpt>
      <trkpt lat="45.06887" lon="6.15659">
        <ele>1289.2</ele>
        <time>2024-08-09T13:32:02Z</time>
      </trkpt>
      <trkpt lat="45.06887" lon="6.15659">
        <ele>1289.2</ele>
        <time>2024-08-09T13:32:03Z</time>
      </trkpt>
      <trkpt lat="45.06889" lon="6.15661">
        <ele>1289.2</ele>
        <time>2024-08-09T13:32:04Z</time>
      </trkpt>
      <trkpt lat="45.06889" lon="6.15661">
        <ele>1289.4</ele>
        <time>2024-08-09T13:32:05Z</time>
      </trkpt>
      <trkpt lat="45.06892" lon="6.15663">
        <ele>1289.4</ele>
        <time>2024-08-09T13:32:06Z</time>
      </trkpt>
      <trkpt lat="45.06894" lon="6.15663">
        <ele>1289.4</ele>
        <time>2024-08-09T13:32:07Z</time>
      </trkpt>
      <trkpt lat="45.06894" lon="6.15663">
        <ele>1289.2</ele>
        <time>2024-08-09T13:32:08Z</time>
      </trkpt>
      <trkpt lat="45.06897" lon="6.15664">
        <ele>1289.2</ele>
        <time>2024-08-09T13:32:09Z</time>
      </trkpt>
      <trkpt lat="45.06897" lon="6.15664">
        <ele>1289.2</ele>
        <time>2024-08-09T13:32:10Z</time>
      </trkpt>
      <trkpt lat="45.069" lon="6.15664">
        <ele>1289.4</ele>
        <time>2024-08-09T13:32:11Z</time>
      </trkpt>
      <trkpt lat="45.069" lon="6.15664">
        <ele>1289.4</ele>
        <time>2024-08-09T13:32:12Z</time>
      </trkpt>
      <trkpt lat="45.06903" lon="6.15667">
        <ele>1289.4</ele>
        <time>2024-08-09T13:32:13Z</time>
      </trkpt>
      <trkpt lat="45.06903" lon="6.15667">
        <ele>1289.4</ele>
        <time>2024-08-09T13:32:14Z</time>
      </trkpt>
      <trkpt lat="45.06905" lon="6.15669">
        <ele>1289.6</ele>
        <time>2024-08-09T13:32:15Z</time>
      </trkpt>
      <trkpt lat="45.06905" lon="6.15669">
        <ele>1289.6</ele>
        <time>2024-08-09T13:32:16Z</time>
      </trkpt>
      <trkpt lat="45.06907" lon="6.15672">
        <ele>1289.6</ele>
        <time>2024-08-09T13:32:17Z</time>
      </trkpt>
      <trkpt lat="45.06907" lon="6.15672">
        <ele>1289.6</ele>
        <time>2024-08-09T13:32:18Z</time>
      </trkpt>
      <trkpt lat="45.06909" lon="6.15675">
        <ele>1289.8</ele>
        <time>2024-08-09T13:32:19Z</time>
      </trkpt>
      <trkpt lat="45.06909" lon="6.15675">
        <ele>1289.8</ele>
        <time>2024-08-09T13:32:20Z</time>
      </trkpt>
      <trkpt lat="45.0691" lon="6.15679">
        <ele>1289.8</ele>
        <time>2024-08-09T13:32:21Z</time>
      </trkpt>
      <trkpt lat="45.0691" lon="6.15679">
        <ele>1289.8</ele>
        <time>2024-08-09T13:32:22Z</time>
      </trkpt>
      <trkpt lat="45.06911" lon="6.15683">
        <ele>1289.8</ele>
        <time>2024-08-09T13:32:23Z</time>
      </trkpt>
      <trkpt lat="45.06911" lon="6.15683">
        <ele>1290.2</ele>
        <time>2024-08-09T13:32:24Z</time>
      </trkpt>
      <trkpt lat="45.06911" lon="6.15687">
        <ele>1290.6</ele>
        <time>2024-08-09T13:32:25Z</time>
      </trkpt>
      <trkpt lat="45.06911" lon="6.15687">
        <ele>1290.6</ele>
        <time>2024-08-09T13:32:26Z</time>
      </trkpt>
      <trkpt lat="45.0691" lon="6.15691">
        <ele>1290.6</ele>
        <time>2024-08-09T13:32:27Z</time>
      </trkpt>
      <trkpt lat="45.0691" lon="6.15691">
        <ele>1290.6</ele>
        <time>2024-08-09T13:32:28Z</time>
      </trkpt>
      <trkpt lat="45.0691" lon="6.15695">
        <ele>1290.2</ele>
        <time>2024-08-09T13:32:29Z</time>
      </trkpt>
      <trkpt lat="45.0691" lon="6.15695">
        <ele>1290</ele>
        <time>2024-08-09T13:32:30Z</time>
      </trkpt>
      <trkpt lat="45.06909" lon="6.15699">
        <ele>1290</ele>
        <time>2024-08-09T13:32:31Z</time>
      </trkpt>
      <trkpt lat="45.06909" lon="6.15699">
        <ele>1290</ele>
        <time>2024-08-09T13:32:32Z</time>
      </trkpt>
      <trkpt lat="45.06909" lon="6.15702">
        <ele>1290.2</ele>
        <time>2024-08-09T13:32:33Z</time>
      </trkpt>
      <trkpt lat="45.06909" lon="6.15702">
        <ele>1290.6</ele>
        <time>2024-08-09T13:32:34Z</time>
      </trkpt>
      <trkpt lat="45.06908" lon="6.15706">
        <ele>1290.6</ele>
        <time>2024-08-09T13:32:35Z</time>
      </trkpt>
      <trkpt lat="45.06908" lon="6.15706">
        <ele>1290.4</ele>
        <time>2024-08-09T13:32:36Z</time>
      </trkpt>
      <trkpt lat="45.06907" lon="6.15709">
        <ele>1290.2</ele>
        <time>2024-08-09T13:32:37Z</time>
      </trkpt>
      <trkpt lat="45.06907" lon="6.15709">
        <ele>1290.2</ele>
        <time>2024-08-09T13:32:38Z</time>
      </trkpt>
      <trkpt lat="45.06907" lon="6.15712">
        <ele>1290.2</ele>
        <time>2024-08-09T13:32:39Z</time>
      </trkpt>
      <trkpt lat="45.06907" lon="6.15712">
        <ele>1290.4</ele>
        <time>2024-08-09T13:32:40Z</time>
      </trkpt>
      <trkpt lat="45.06905" lon="6.15715">
        <ele>1290.4</ele>
        <time>2024-08-09T13:32:41Z</time>
      </trkpt>
      <trkpt lat="45.06905" lon="6.15715">
        <ele>1290.6</ele>
        <time>2024-08-09T13:32:42Z</time>
      </trkpt>
      <trkpt lat="45.06905" lon="6.15719">
        <ele>1291</ele>
        <time>2024-08-09T13:32:43Z</time>
      </trkpt>
      <trkpt lat="45.06905" lon="6.15719">
        <ele>1291.2</ele>
        <time>2024-08-09T13:32:44Z</time>
      </trkpt>
      <trkpt lat="45.06905" lon="6.15722">
        <ele>1291.2</ele>
        <time>2024-08-09T13:32:45Z</time>
      </trkpt>
      <trkpt lat="45.06905" lon="6.15722">
        <ele>1291.4</ele>
        <time>2024-08-09T13:32:46Z</time>
      </trkpt>
      <trkpt lat="45.06904" lon="6.15726">
        <ele>1291.6</ele>
        <time>2024-08-09T13:32:47Z</time>
      </trkpt>
      <trkpt lat="45.06904" lon="6.15726">
        <ele>1291.6</ele>
        <time>2024-08-09T13:32:48Z</time>
      </trkpt>
      <trkpt lat="45.06904" lon="6.15729">
        <ele>1291.6</ele>
        <time>2024-08-09T13:32:49Z</time>
      </trkpt>
      <trkpt lat="45.06904" lon="6.15729">
        <ele>1291.8</ele>
        <time>2024-08-09T13:32:50Z</time>
      </trkpt>
      <trkpt lat="45.06903" lon="6.15733">
        <ele>1291.8</ele>
        <time>2024-08-09T13:32:51Z</time>
      </trkpt>
      <trkpt lat="45.06903" lon="6.15733">
        <ele>1291.8</ele>
        <time>2024-08-09T13:32:52Z</time>
      </trkpt>
      <trkpt lat="45.06902" lon="6.15736">
        <ele>1291.8</ele>
        <time>2024-08-09T13:32:53Z</time>
      </trkpt>
      <trkpt lat="45.06902" lon="6.15736">
        <ele>1292</ele>
        <time>2024-08-09T13:32:54Z</time>
      </trkpt>
      <trkpt lat="45.06902" lon="6.1574">
        <ele>1292.2</ele>
        <time>2024-08-09T13:32:55Z</time>
      </trkpt>
      <trkpt lat="45.06902" lon="6.1574">
        <ele>1292.2</ele>
        <time>2024-08-09T13:32:56Z</time>
      </trkpt>
      <trkpt lat="45.06902" lon="6.15744">
        <ele>1292.4</ele>
        <time>2024-08-09T13:32:57Z</time>
      </trkpt>
      <trkpt lat="45.06902" lon="6.15744">
        <ele>1292.6</ele>
        <time>2024-08-09T13:32:58Z</time>
      </trkpt>
      <trkpt lat="45.06904" lon="6.15748">
        <ele>1292.8</ele>
        <time>2024-08-09T13:32:59Z</time>
      </trkpt>
      <trkpt lat="45.06904" lon="6.15748">
        <ele>1292.8</ele>
        <time>2024-08-09T13:33:00Z</time>
      </trkpt>
      <trkpt lat="45.06905" lon="6.15751">
        <ele>1292.4</ele>
        <time>2024-08-09T13:33:01Z</time>
      </trkpt>
      <trkpt lat="45.06905" lon="6.15751">
        <ele>1292.4</ele>
        <time>2024-08-09T13:33:02Z</time>
      </trkpt>
      <trkpt lat="45.06905" lon="6.15751">
        <ele>1292.4</ele>
        <time>2024-08-09T13:33:03Z</time>
      </trkpt>
      <trkpt lat="45.06906" lon="6.15754">
        <ele>1293</ele>
        <time>2024-08-09T13:33:04Z</time>
      </trkpt>
      <trkpt lat="45.06906" lon="6.15754">
        <ele>1293</ele>
        <time>2024-08-09T13:33:05Z</time>
      </trkpt>
      <trkpt lat="45.06906" lon="6.15754">
        <ele>1293</ele>
        <time>2024-08-09T13:33:06Z</time>
      </trkpt>
      <trkpt lat="45.06907" lon="6.15752">
        <ele>1293</ele>
        <time>2024-08-09T13:33:07Z</time>
      </trkpt>
      <trkpt lat="45.06907" lon="6.15752">
        <ele>1293</ele>
        <time>2024-08-09T13:33:08Z</time>
      </trkpt>
      <trkpt lat="45.06907" lon="6.15752">
        <ele>1293</ele>
        <time>2024-08-09T13:33:09Z</time>
      </trkpt>
      <trkpt lat="45.06907" lon="6.15752">
        <ele>1293.2</ele>
        <time>2024-08-09T13:33:10Z</time>
      </trkpt>
      <trkpt lat="45.06908" lon="6.15749">
        <ele>1293.4</ele>
        <time>2024-08-09T13:33:11Z</time>
      </trkpt>
      <trkpt lat="45.06908" lon="6.15749">
        <ele>1293.8</ele>
        <time>2024-08-09T13:33:12Z</time>
      </trkpt>
      <trkpt lat="45.06908" lon="6.15749">
        <ele>1294.2</ele>
        <time>2024-08-09T13:33:13Z</time>
      </trkpt>
      <trkpt lat="45.06908" lon="6.15749">
        <ele>1294.4</ele>
        <time>2024-08-09T13:33:14Z</time>
      </trkpt>
      <trkpt lat="45.06908" lon="6.15749">
        <ele>1294.6</ele>
        <time>2024-08-09T13:33:15Z</time>
      </trkpt>
      <trkpt lat="45.0691" lon="6.15746">
        <ele>1294.8</ele>
        <time>2024-08-09T13:33:16Z</time>
      </trkpt>
      <trkpt lat="45.0691" lon="6.15746">
        <ele>1295.2</ele>
        <time>2024-08-09T13:33:17Z</time>
      </trkpt>
      <trkpt lat="45.0691" lon="6.15746">
        <ele>1295.2</ele>
        <time>2024-08-09T13:33:18Z</time>
      </trkpt>
      <trkpt lat="45.0691" lon="6.15746">
        <ele>1295.4</ele>
        <time>2024-08-09T13:33:19Z</time>
      </trkpt>
      <trkpt lat="45.06911" lon="6.15742">
        <ele>1295.4</ele>
        <time>2024-08-09T13:33:20Z</time>
      </trkpt>
      <trkpt lat="45.06911" lon="6.15742">
        <ele>1295.4</ele>
        <time>2024-08-09T13:33:21Z</time>
      </trkpt>
      <trkpt lat="45.06911" lon="6.15739">
        <ele>1295.8</ele>
        <time>2024-08-09T13:33:22Z</time>
      </trkpt>
      <trkpt lat="45.06911" lon="6.15739">
        <ele>1296.2</ele>
        <time>2024-08-09T13:33:23Z</time>
      </trkpt>
      <trkpt lat="45.06912" lon="6.15737">
        <ele>1296.2</ele>
        <time>2024-08-09T13:33:24Z</time>
      </trkpt>
      <trkpt lat="45.06912" lon="6.15737">
        <ele>1296.4</ele>
        <time>2024-08-09T13:33:25Z</time>
      </trkpt>
      <trkpt lat="45.06912" lon="6.15737">
        <ele>1296.4</ele>
        <time>2024-08-09T13:33:26Z</time>
      </trkpt>
      <trkpt lat="45.06913" lon="6.15733">
        <ele>1296.6</ele>
        <time>2024-08-09T13:33:27Z</time>
      </trkpt>
      <trkpt lat="45.06913" lon="6.15733">
        <ele>1296.6</ele>
        <time>2024-08-09T13:33:28Z</time>
      </trkpt>
      <trkpt lat="45.06913" lon="6.15733">
        <ele>1296.6</ele>
        <time>2024-08-09T13:33:29Z</time>
      </trkpt>
      <trkpt lat="45.06914" lon="6.1573">
        <ele>1296.6</ele>
        <time>2024-08-09T13:33:30Z</time>
      </trkpt>
      <trkpt lat="45.06914" lon="6.1573">
        <ele>1297</ele>
        <time>2024-08-09T13:33:31Z</time>
      </trkpt>
      <trkpt lat="45.06915" lon="6.15728">
        <ele>1297.2</ele>
        <time>2024-08-09T13:33:32Z</time>
      </trkpt>
      <trkpt lat="45.06915" lon="6.15728">
        <ele>1297.2</ele>
        <time>2024-08-09T13:33:33Z</time>
      </trkpt>
      <trkpt lat="45.06915" lon="6.15728">
        <ele>1297.6</ele>
        <time>2024-08-09T13:33:34Z</time>
      </trkpt>
      <trkpt lat="45.06916" lon="6.15725">
        <ele>1297.8</ele>
        <time>2024-08-09T13:33:35Z</time>
      </trkpt>
      <trkpt lat="45.06916" lon="6.15725">
        <ele>1298</ele>
        <time>2024-08-09T13:33:36Z</time>
      </trkpt>
      <trkpt lat="45.06916" lon="6.15725">
        <ele>1298.4</ele>
        <time>2024-08-09T13:33:37Z</time>
      </trkpt>
      <trkpt lat="45.06916" lon="6.15725">
        <ele>1298.8</ele>
        <time>2024-08-09T13:33:38Z</time>
      </trkpt>
      <trkpt lat="45.06917" lon="6.15723">
        <ele>1299</ele>
        <time>2024-08-09T13:33:39Z</time>
      </trkpt>
      <trkpt lat="45.06917" lon="6.15723">
        <ele>1299.4</ele>
        <time>2024-08-09T13:33:40Z</time>
      </trkpt>
      <trkpt lat="45.06918" lon="6.15721">
        <ele>1299.8</ele>
        <time>2024-08-09T13:33:41Z</time>
      </trkpt>
      <trkpt lat="45.06918" lon="6.15721">
        <ele>1299.8</ele>
        <time>2024-08-09T13:33:42Z</time>
      </trkpt>
      <trkpt lat="45.06918" lon="6.15721">
        <ele>1300</ele>
        <time>2024-08-09T13:33:43Z</time>
      </trkpt>
      <trkpt lat="45.06921" lon="6.15722">
        <ele>1300</ele>
        <time>2024-08-09T13:33:44Z</time>
      </trkpt>
      <trkpt lat="45.06921" lon="6.15722">
        <ele>1300</ele>
        <time>2024-08-09T13:33:45Z</time>
      </trkpt>
      <trkpt lat="45.06921" lon="6.15722">
        <ele>1300.4</ele>
        <time>2024-08-09T13:33:46Z</time>
      </trkpt>
      <trkpt lat="45.06921" lon="6.15722">
        <ele>1300.4</ele>
        <time>2024-08-09T13:33:47Z</time>
      </trkpt>
      <trkpt lat="45.06921" lon="6.15722">
        <ele>1300.6</ele>
        <time>2024-08-09T13:33:48Z</time>
      </trkpt>
      <trkpt lat="45.06923" lon="6.15722">
        <ele>1300.8</ele>
        <time>2024-08-09T13:33:49Z</time>
      </trkpt>
      <trkpt lat="45.06923" lon="6.15722">
        <ele>1301</ele>
        <time>2024-08-09T13:33:50Z</time>
      </trkpt>
      <trkpt lat="45.06923" lon="6.15722">
        <ele>1301.4</ele>
        <time>2024-08-09T13:33:51Z</time>
      </trkpt>
      <trkpt lat="45.06923" lon="6.15722">
        <ele>1301.8</ele>
        <time>2024-08-09T13:33:52Z</time>
      </trkpt>
      <trkpt lat="45.06925" lon="6.15723">
        <ele>1301.8</ele>
        <time>2024-08-09T13:33:53Z</time>
      </trkpt>
      <trkpt lat="45.06925" lon="6.15723">
        <ele>1302</ele>
        <time>2024-08-09T13:33:54Z</time>
      </trkpt>
      <trkpt lat="45.06925" lon="6.15723">
        <ele>1302</ele>
        <time>2024-08-09T13:33:55Z</time>
      </trkpt>
      <trkpt lat="45.06925" lon="6.15723">
        <ele>1302.2</ele>
        <time>2024-08-09T13:33:56Z</time>
      </trkpt>
      <trkpt lat="45.06927" lon="6.15724">
        <ele>1302.6</ele>
        <time>2024-08-09T13:33:57Z</time>
      </trkpt>
      <trkpt lat="45.06927" lon="6.15724">
        <ele>1303</ele>
        <time>2024-08-09T13:33:58Z</time>
      </trkpt>
      <trkpt lat="45.06927" lon="6.15724">
        <ele>1303</ele>
        <time>2024-08-09T13:33:59Z</time>
      </trkpt>
      <trkpt lat="45.06929" lon="6.15724">
        <ele>1303</ele>
        <time>2024-08-09T13:34:00Z</time>
      </trkpt>
      <trkpt lat="45.06929" lon="6.15724">
        <ele>1303.2</ele>
        <time>2024-08-09T13:34:01Z</time>
      </trkpt>
      <trkpt lat="45.0693" lon="6.15725">
        <ele>1303.2</ele>
        <time>2024-08-09T13:34:02Z</time>
      </trkpt>
      <trkpt lat="45.0693" lon="6.15725">
        <ele>1303.2</ele>
        <time>2024-08-09T13:34:03Z</time>
      </trkpt>
      <trkpt lat="45.0693" lon="6.15725">
        <ele>1303.2</ele>
        <time>2024-08-09T13:34:04Z</time>
      </trkpt>
      <trkpt lat="45.0693" lon="6.15725">
        <ele>1303.4</ele>
        <time>2024-08-09T13:34:05Z</time>
      </trkpt>
      <trkpt lat="45.06932" lon="6.15726">
        <ele>1303.8</ele>
        <time>2024-08-09T13:34:06Z</time>
      </trkpt>
      <trkpt lat="45.06932" lon="6.15726">
        <ele>1303.8</ele>
        <time>2024-08-09T13:34:07Z</time>
      </trkpt>
      <trkpt lat="45.06932" lon="6.15726">
        <ele>1304</ele>
        <time>2024-08-09T13:34:08Z</time>
      </trkpt>
      <trkpt lat="45.06932" lon="6.15726">
        <ele>1304.2</ele>
        <time>2024-08-09T13:34:09Z</time>
      </trkpt>
      <trkpt lat="45.06932" lon="6.15726">
        <ele>1304.4</ele>
        <time>2024-08-09T13:34:10Z</time>
      </trkpt>
      <trkpt lat="45.06932" lon="6.15726">
        <ele>1304.6</ele>
        <time>2024-08-09T13:34:11Z</time>
      </trkpt>
      <trkpt lat="45.06933" lon="6.15728">
        <ele>1304.8</ele>
        <time>2024-08-09T13:34:12Z</time>
      </trkpt>
      <trkpt lat="45.06933" lon="6.15728">
        <ele>1305.2</ele>
        <time>2024-08-09T13:34:13Z</time>
      </trkpt>
      <trkpt lat="45.06933" lon="6.15728">
        <ele>1305.4</ele>
        <time>2024-08-09T13:34:14Z</time>
      </trkpt>
      <trkpt lat="45.06933" lon="6.15728">
        <ele>1305.8</ele>
        <time>2024-08-09T13:34:15Z</time>
      </trkpt>
      <trkpt lat="45.06932" lon="6.1573">
        <ele>1306</ele>
        <time>2024-08-09T13:34:16Z</time>
      </trkpt>
      <trkpt lat="45.06932" lon="6.1573">
        <ele>1305.8</ele>
        <time>2024-08-09T13:34:17Z</time>
      </trkpt>
      <trkpt lat="45.06932" lon="6.1573">
        <ele>1306</ele>
        <time>2024-08-09T13:34:18Z</time>
      </trkpt>
      <trkpt lat="45.06932" lon="6.1573">
        <ele>1306.4</ele>
        <time>2024-08-09T13:34:19Z</time>
      </trkpt>
      <trkpt lat="45.06932" lon="6.1573">
        <ele>1306.8</ele>
        <time>2024-08-09T13:34:20Z</time>
      </trkpt>
      <trkpt lat="45.06932" lon="6.1573">
        <ele>1307</ele>
        <time>2024-08-09T13:34:21Z</time>
      </trkpt>
      <trkpt lat="45.06932" lon="6.1573">
        <ele>1307</ele>
        <time>2024-08-09T13:34:22Z</time>
      </trkpt>
      <trkpt lat="45.06932" lon="6.1573">
        <ele>1307</ele>
        <time>2024-08-09T13:34:23Z</time>
      </trkpt>
      <trkpt lat="45.06932" lon="6.1573">
        <ele>1307</ele>
        <time>2024-08-09T13:34:24Z</time>
      </trkpt>
      <trkpt lat="45.06932" lon="6.1573">
        <ele>1307.2</ele>
        <time>2024-08-09T13:34:25Z</time>
      </trkpt>
      <trkpt lat="45.06932" lon="6.1573">
        <ele>1307.2</ele>
        <time>2024-08-09T13:34:26Z</time>
      </trkpt>
      <trkpt lat="45.06932" lon="6.1573">
        <ele>1307.2</ele>
        <time>2024-08-09T13:34:27Z</time>
      </trkpt>
      <trkpt lat="45.06932" lon="6.1573">
        <ele>1307.4</ele>
        <time>2024-08-09T13:34:28Z</time>
      </trkpt>
      <trkpt lat="45.06929" lon="6.1573">
        <ele>1307.8</ele>
        <time>2024-08-09T13:34:29Z</time>
      </trkpt>
      <trkpt lat="45.06929" lon="6.1573">
        <ele>1308.2</ele>
        <time>2024-08-09T13:34:30Z</time>
      </trkpt>
      <trkpt lat="45.06927" lon="6.15732">
        <ele>1308.2</ele>
        <time>2024-08-09T13:34:31Z</time>
      </trkpt>
      <trkpt lat="45.06927" lon="6.15732">
        <ele>1308.2</ele>
        <time>2024-08-09T13:34:32Z</time>
      </trkpt>
      <trkpt lat="45.06927" lon="6.15732">
        <ele>1308.4</ele>
        <time>2024-08-09T13:34:33Z</time>
      </trkpt>
      <trkpt lat="45.06927" lon="6.15732">
        <ele>1308.2</ele>
        <time>2024-08-09T13:34:34Z</time>
      </trkpt>
      <trkpt lat="45.06928" lon="6.15735">
        <ele>1308</ele>
        <time>2024-08-09T13:34:35Z</time>
      </trkpt>
      <trkpt lat="45.06928" lon="6.15735">
        <ele>1308</ele>
        <time>2024-08-09T13:34:36Z</time>
      </trkpt>
      <trkpt lat="45.06928" lon="6.15735">
        <ele>1308</ele>
        <time>2024-08-09T13:34:37Z</time>
      </trkpt>
      <trkpt lat="45.0693" lon="6.15734">
        <ele>1308.4</ele>
        <time>2024-08-09T13:34:38Z</time>
      </trkpt>
      <trkpt lat="45.0693" lon="6.15734">
        <ele>1308.8</ele>
        <time>2024-08-09T13:34:39Z</time>
      </trkpt>
      <trkpt lat="45.0693" lon="6.15734">
        <ele>1309.2</ele>
        <time>2024-08-09T13:34:40Z</time>
      </trkpt>
      <trkpt lat="45.06933" lon="6.15734">
        <ele>1309.6</ele>
        <time>2024-08-09T13:34:41Z</time>
      </trkpt>
      <trkpt lat="45.06933" lon="6.15734">
        <ele>1310</ele>
        <time>2024-08-09T13:34:42Z</time>
      </trkpt>
      <trkpt lat="45.06933" lon="6.15734">
        <ele>1310.4</ele>
        <time>2024-08-09T13:34:43Z</time>
      </trkpt>
      <trkpt lat="45.06935" lon="6.15735">
        <ele>1310.2</ele>
        <time>2024-08-09T13:34:44Z</time>
      </trkpt>
      <trkpt lat="45.06935" lon="6.15735">
        <ele>1310.4</ele>
        <time>2024-08-09T13:34:45Z</time>
      </trkpt>
      <trkpt lat="45.06935" lon="6.15735">
        <ele>1310.2</ele>
        <time>2024-08-09T13:34:46Z</time>
      </trkpt>
      <trkpt lat="45.06938" lon="6.15735">
        <ele>1310.2</ele>
        <time>2024-08-09T13:34:47Z</time>
      </trkpt>
      <trkpt lat="45.06938" lon="6.15735">
        <ele>1310.2</ele>
        <time>2024-08-09T13:34:48Z</time>
      </trkpt>
      <trkpt lat="45.06938" lon="6.15735">
        <ele>1310.6</ele>
        <time>2024-08-09T13:34:49Z</time>
      </trkpt>
      <trkpt lat="45.06938" lon="6.15735">
        <ele>1311.2</ele>
        <time>2024-08-09T13:34:50Z</time>
      </trkpt>
      <trkpt lat="45.0694" lon="6.15735">
        <ele>1311.2</ele>
        <time>2024-08-09T13:34:51Z</time>
      </trkpt>
      <trkpt lat="45.0694" lon="6.15735">
        <ele>1311.4</ele>
        <time>2024-08-09T13:34:52Z</time>
      </trkpt>
      <trkpt lat="45.0694" lon="6.15735">
        <ele>1311.6</ele>
        <time>2024-08-09T13:34:53Z</time>
      </trkpt>
      <trkpt lat="45.0694" lon="6.15735">
        <ele>1312</ele>
        <time>2024-08-09T13:34:54Z</time>
      </trkpt>
      <trkpt lat="45.06942" lon="6.15737">
        <ele>1312.4</ele>
        <time>2024-08-09T13:34:55Z</time>
      </trkpt>
      <trkpt lat="45.06942" lon="6.15737">
        <ele>1312.6</ele>
        <time>2024-08-09T13:34:56Z</time>
      </trkpt>
      <trkpt lat="45.06942" lon="6.15737">
        <ele>1312.8</ele>
        <time>2024-08-09T13:34:57Z</time>
      </trkpt>
      <trkpt lat="45.06942" lon="6.15739">
        <ele>1313.2</ele>
        <time>2024-08-09T13:34:58Z</time>
      </trkpt>
      <trkpt lat="45.06942" lon="6.15739">
        <ele>1313.2</ele>
        <time>2024-08-09T13:34:59Z</time>
      </trkpt>
      <trkpt lat="45.06942" lon="6.15739">
        <ele>1313.6</ele>
        <time>2024-08-09T13:35:00Z</time>
      </trkpt>
      <trkpt lat="45.06942" lon="6.15739">
        <ele>1313.6</ele>
        <time>2024-08-09T13:35:01Z</time>
      </trkpt>
      <trkpt lat="45.06941" lon="6.15742">
        <ele>1314.2</ele>
        <time>2024-08-09T13:35:02Z</time>
      </trkpt>
      <trkpt lat="45.06941" lon="6.15742">
        <ele>1314.2</ele>
        <time>2024-08-09T13:35:03Z</time>
      </trkpt>
      <trkpt lat="45.06941" lon="6.15742">
        <ele>1314</ele>
        <time>2024-08-09T13:35:04Z</time>
      </trkpt>
      <trkpt lat="45.06939" lon="6.15743">
        <ele>1314.2</ele>
        <time>2024-08-09T13:35:05Z</time>
      </trkpt>
      <trkpt lat="45.06939" lon="6.15743">
        <ele>1314.4</ele>
        <time>2024-08-09T13:35:06Z</time>
      </trkpt>
      <trkpt lat="45.06939" lon="6.15743">
        <ele>1314.6</ele>
        <time>2024-08-09T13:35:07Z</time>
      </trkpt>
      <trkpt lat="45.06939" lon="6.15743">
        <ele>1314.8</ele>
        <time>2024-08-09T13:35:08Z</time>
      </trkpt>
      <trkpt lat="45.06937" lon="6.15743">
        <ele>1315</ele>
        <time>2024-08-09T13:35:09Z</time>
      </trkpt>
      <trkpt lat="45.06937" lon="6.15743">
        <ele>1315</ele>
        <time>2024-08-09T13:35:10Z</time>
      </trkpt>
      <trkpt lat="45.06937" lon="6.15743">
        <ele>1315.2</ele>
        <time>2024-08-09T13:35:11Z</time>
      </trkpt>
      <trkpt lat="45.06937" lon="6.15743">
        <ele>1315.6</ele>
        <time>2024-08-09T13:35:12Z</time>
      </trkpt>
      <trkpt lat="45.06937" lon="6.15743">
        <ele>1315.8</ele>
        <time>2024-08-09T13:35:13Z</time>
      </trkpt>
      <trkpt lat="45.06937" lon="6.15743">
        <ele>1316</ele>
        <time>2024-08-09T13:35:14Z</time>
      </trkpt>
      <trkpt lat="45.06937" lon="6.15743">
        <ele>1315.8</ele>
        <time>2024-08-09T13:35:15Z</time>
      </trkpt>
      <trkpt lat="45.06937" lon="6.15743">
        <ele>1315.6</ele>
        <time>2024-08-09T13:35:16Z</time>
      </trkpt>
      <trkpt lat="45.06937" lon="6.15743">
        <ele>1315.6</ele>
        <time>2024-08-09T13:35:17Z</time>
      </trkpt>
      <trkpt lat="45.06937" lon="6.15743">
        <ele>1316</ele>
        <time>2024-08-09T13:35:18Z</time>
      </trkpt>
      <trkpt lat="45.06937" lon="6.15743">
        <ele>1316.4</ele>
        <time>2024-08-09T13:35:19Z</time>
      </trkpt>
      <trkpt lat="45.06937" lon="6.15743">
        <ele>1316.6</ele>
        <time>2024-08-09T13:35:20Z</time>
      </trkpt>
      <trkpt lat="45.06937" lon="6.15743">
        <ele>1316.8</ele>
        <time>2024-08-09T13:35:21Z</time>
      </trkpt>
      <trkpt lat="45.06937" lon="6.15743">
        <ele>1317</ele>
        <time>2024-08-09T13:35:22Z</time>
      </trkpt>
      <trkpt lat="45.06938" lon="6.15746">
        <ele>1317</ele>
        <time>2024-08-09T13:35:23Z</time>
      </trkpt>
      <trkpt lat="45.06938" lon="6.15746">
        <ele>1317.4</ele>
        <time>2024-08-09T13:35:24Z</time>
      </trkpt>
      <trkpt lat="45.06941" lon="6.15747">
        <ele>1317.4</ele>
        <time>2024-08-09T13:35:25Z</time>
      </trkpt>
      <trkpt lat="45.06941" lon="6.15747">
        <ele>1317.4</ele>
        <time>2024-08-09T13:35:26Z</time>
      </trkpt>
      <trkpt lat="45.06943" lon="6.15748">
        <ele>1317.6</ele>
        <time>2024-08-09T13:35:27Z</time>
      </trkpt>
      <trkpt lat="45.06943" lon="6.15748">
        <ele>1317.6</ele>
        <time>2024-08-09T13:35:28Z</time>
      </trkpt>
      <trkpt lat="45.06945" lon="6.15749">
        <ele>1317.8</ele>
        <time>2024-08-09T13:35:29Z</time>
      </trkpt>
      <trkpt lat="45.06945" lon="6.15749">
        <ele>1317.6</ele>
        <time>2024-08-09T13:35:30Z</time>
      </trkpt>
      <trkpt lat="45.06946" lon="6.1575">
        <ele>1318</ele>
        <time>2024-08-09T13:35:31Z</time>
      </trkpt>
      <trkpt lat="45.06946" lon="6.1575">
        <ele>1318.2</ele>
        <time>2024-08-09T13:35:32Z</time>
      </trkpt>
      <trkpt lat="45.06946" lon="6.1575">
        <ele>1318.4</ele>
        <time>2024-08-09T13:35:33Z</time>
      </trkpt>
      <trkpt lat="45.06949" lon="6.1575">
        <ele>1318.4</ele>
        <time>2024-08-09T13:35:34Z</time>
      </trkpt>
      <trkpt lat="45.06949" lon="6.1575">
        <ele>1318.8</ele>
        <time>2024-08-09T13:35:35Z</time>
      </trkpt>
      <trkpt lat="45.06949" lon="6.1575">
        <ele>1319</ele>
        <time>2024-08-09T13:35:36Z</time>
      </trkpt>
      <trkpt lat="45.06949" lon="6.1575">
        <ele>1319.2</ele>
        <time>2024-08-09T13:35:37Z</time>
      </trkpt>
      <trkpt lat="45.06949" lon="6.15754">
        <ele>1319.2</ele>
        <time>2024-08-09T13:35:38Z</time>
      </trkpt>
      <trkpt lat="45.06949" lon="6.15754">
        <ele>1319.4</ele>
        <time>2024-08-09T13:35:39Z</time>
      </trkpt>
      <trkpt lat="45.06949" lon="6.15754">
        <ele>1319.6</ele>
        <time>2024-08-09T13:35:40Z</time>
      </trkpt>
      <trkpt lat="45.06947" lon="6.15756">
        <ele>1319.6</ele>
        <time>2024-08-09T13:35:41Z</time>
      </trkpt>
      <trkpt lat="45.06947" lon="6.15756">
        <ele>1319.8</ele>
        <time>2024-08-09T13:35:42Z</time>
      </trkpt>
      <trkpt lat="45.06947" lon="6.15756">
        <ele>1320.2</ele>
        <time>2024-08-09T13:35:43Z</time>
      </trkpt>
      <trkpt lat="45.06947" lon="6.15756">
        <ele>1320.2</ele>
        <time>2024-08-09T13:35:44Z</time>
      </trkpt>
      <trkpt lat="45.06946" lon="6.15759">
        <ele>1320.6</ele>
        <time>2024-08-09T13:35:45Z</time>
      </trkpt>
      <trkpt lat="45.06946" lon="6.15759">
        <ele>1320.8</ele>
        <time>2024-08-09T13:35:46Z</time>
      </trkpt>
      <trkpt lat="45.06946" lon="6.15759">
        <ele>1320.8</ele>
        <time>2024-08-09T13:35:47Z</time>
      </trkpt>
      <trkpt lat="45.06944" lon="6.15759">
        <ele>1321</ele>
        <time>2024-08-09T13:35:48Z</time>
      </trkpt>
      <trkpt lat="45.06944" lon="6.15759">
        <ele>1321</ele>
        <time>2024-08-09T13:35:49Z</time>
      </trkpt>
      <trkpt lat="45.06944" lon="6.15759">
        <ele>1321.2</ele>
        <time>2024-08-09T13:35:50Z</time>
      </trkpt>
      <trkpt lat="45.06942" lon="6.15761">
        <ele>1321.2</ele>
        <time>2024-08-09T13:35:51Z</time>
      </trkpt>
      <trkpt lat="45.06942" lon="6.15761">
        <ele>1321.4</ele>
        <time>2024-08-09T13:35:52Z</time>
      </trkpt>
      <trkpt lat="45.0694" lon="6.15761">
        <ele>1321.4</ele>
        <time>2024-08-09T13:35:53Z</time>
      </trkpt>
      <trkpt lat="45.0694" lon="6.15761">
        <ele>1321.8</ele>
        <time>2024-08-09T13:35:54Z</time>
      </trkpt>
      <trkpt lat="45.0694" lon="6.15761">
        <ele>1321.8</ele>
        <time>2024-08-09T13:35:55Z</time>
      </trkpt>
      <trkpt lat="45.0694" lon="6.15761">
        <ele>1321.8</ele>
        <time>2024-08-09T13:35:56Z</time>
      </trkpt>
      <trkpt lat="45.06939" lon="6.15763">
        <ele>1322</ele>
        <time>2024-08-09T13:35:57Z</time>
      </trkpt>
      <trkpt lat="45.06939" lon="6.15763">
        <ele>1321.8</ele>
        <time>2024-08-09T13:35:58Z</time>
      </trkpt>
      <trkpt lat="45.06939" lon="6.15763">
        <ele>1322</ele>
        <time>2024-08-09T13:35:59Z</time>
      </trkpt>
      <trkpt lat="45.06939" lon="6.15766">
        <ele>1322</ele>
        <time>2024-08-09T13:36:00Z</time>
      </trkpt>
      <trkpt lat="45.06939" lon="6.15766">
        <ele>1322.4</ele>
        <time>2024-08-09T13:36:01Z</time>
      </trkpt>
      <trkpt lat="45.06941" lon="6.15767">
        <ele>1322.4</ele>
        <time>2024-08-09T13:36:02Z</time>
      </trkpt>
      <trkpt lat="45.06941" lon="6.15767">
        <ele>1322.4</ele>
        <time>2024-08-09T13:36:03Z</time>
      </trkpt>
      <trkpt lat="45.06941" lon="6.15767">
        <ele>1322.6</ele>
        <time>2024-08-09T13:36:04Z</time>
      </trkpt>
      <trkpt lat="45.06943" lon="6.15769">
        <ele>1323</ele>
        <time>2024-08-09T13:36:05Z</time>
      </trkpt>
      <trkpt lat="45.06943" lon="6.15769">
        <ele>1323</ele>
        <time>2024-08-09T13:36:06Z</time>
      </trkpt>
      <trkpt lat="45.06945" lon="6.1577">
        <ele>1323.2</ele>
        <time>2024-08-09T13:36:07Z</time>
      </trkpt>
      <trkpt lat="45.06945" lon="6.1577">
        <ele>1323.4</ele>
        <time>2024-08-09T13:36:08Z</time>
      </trkpt>
      <trkpt lat="45.06947" lon="6.15771">
        <ele>1323.6</ele>
        <time>2024-08-09T13:36:09Z</time>
      </trkpt>
      <trkpt lat="45.06947" lon="6.15771">
        <ele>1323.6</ele>
        <time>2024-08-09T13:36:10Z</time>
      </trkpt>
      <trkpt lat="45.06949" lon="6.15773">
        <ele>1323.4</ele>
        <time>2024-08-09T13:36:11Z</time>
      </trkpt>
      <trkpt lat="45.06949" lon="6.15773">
        <ele>1323.6</ele>
        <time>2024-08-09T13:36:12Z</time>
      </trkpt>
      <trkpt lat="45.0695" lon="6.15774">
        <ele>1324</ele>
        <time>2024-08-09T13:36:13Z</time>
      </trkpt>
      <trkpt lat="45.0695" lon="6.15774">
        <ele>1324.2</ele>
        <time>2024-08-09T13:36:14Z</time>
      </trkpt>
      <trkpt lat="45.0695" lon="6.15774">
        <ele>1324.2</ele>
        <time>2024-08-09T13:36:15Z</time>
      </trkpt>
      <trkpt lat="45.06953" lon="6.15775">
        <ele>1324.4</ele>
        <time>2024-08-09T13:36:16Z</time>
      </trkpt>
      <trkpt lat="45.06953" lon="6.15775">
        <ele>1324.2</ele>
        <time>2024-08-09T13:36:17Z</time>
      </trkpt>
      <trkpt lat="45.06955" lon="6.15776">
        <ele>1324.2</ele>
        <time>2024-08-09T13:36:18Z</time>
      </trkpt>
      <trkpt lat="45.06955" lon="6.15776">
        <ele>1324.2</ele>
        <time>2024-08-09T13:36:19Z</time>
      </trkpt>
      <trkpt lat="45.06957" lon="6.15776">
        <ele>1324.4</ele>
        <time>2024-08-09T13:36:20Z</time>
      </trkpt>
      <trkpt lat="45.06957" lon="6.15776">
        <ele>1324.8</ele>
        <time>2024-08-09T13:36:21Z</time>
      </trkpt>
      <trkpt lat="45.06959" lon="6.15777">
        <ele>1324.8</ele>
        <time>2024-08-09T13:36:22Z</time>
      </trkpt>
      <trkpt lat="45.06959" lon="6.15777">
        <ele>1324.6</ele>
        <time>2024-08-09T13:36:23Z</time>
      </trkpt>
      <trkpt lat="45.06959" lon="6.15777">
        <ele>1325</ele>
        <time>2024-08-09T13:36:24Z</time>
      </trkpt>
      <trkpt lat="45.06961" lon="6.15778">
        <ele>1325.2</ele>
        <time>2024-08-09T13:36:25Z</time>
      </trkpt>
      <trkpt lat="45.06961" lon="6.15778">
        <ele>1325.4</ele>
        <time>2024-08-09T13:36:26Z</time>
      </trkpt>
      <trkpt lat="45.06961" lon="6.15778">
        <ele>1325.4</ele>
        <time>2024-08-09T13:36:27Z</time>
      </trkpt>
      <trkpt lat="45.06963" lon="6.15779">
        <ele>1325.4</ele>
        <time>2024-08-09T13:36:28Z</time>
      </trkpt>
      <trkpt lat="45.06963" lon="6.15779">
        <ele>1325.6</ele>
        <time>2024-08-09T13:36:29Z</time>
      </trkpt>
      <trkpt lat="45.06963" lon="6.15779">
        <ele>1325.6</ele>
        <time>2024-08-09T13:36:30Z</time>
      </trkpt>
      <trkpt lat="45.06965" lon="6.1578">
        <ele>1326.2</ele>
        <time>2024-08-09T13:36:31Z</time>
      </trkpt>
      <trkpt lat="45.06965" lon="6.1578">
        <ele>1326.4</ele>
        <time>2024-08-09T13:36:32Z</time>
      </trkpt>
      <trkpt lat="45.06965" lon="6.1578">
        <ele>1326.2</ele>
        <time>2024-08-09T13:36:33Z</time>
      </trkpt>
      <trkpt lat="45.06967" lon="6.1578">
        <ele>1326.4</ele>
        <time>2024-08-09T13:36:34Z</time>
      </trkpt>
      <trkpt lat="45.06967" lon="6.1578">
        <ele>1326.4</ele>
        <time>2024-08-09T13:36:35Z</time>
      </trkpt>
      <trkpt lat="45.06969" lon="6.1578">
        <ele>1326.6</ele>
        <time>2024-08-09T13:36:36Z</time>
      </trkpt>
      <trkpt lat="45.06969" lon="6.1578">
        <ele>1326.8</ele>
        <time>2024-08-09T13:36:37Z</time>
      </trkpt>
      <trkpt lat="45.06969" lon="6.1578">
        <ele>1326.8</ele>
        <time>2024-08-09T13:36:38Z</time>
      </trkpt>
      <trkpt lat="45.06971" lon="6.15781">
        <ele>1327</ele>
        <time>2024-08-09T13:36:39Z</time>
      </trkpt>
      <trkpt lat="45.06971" lon="6.15781">
        <ele>1327.2</ele>
        <time>2024-08-09T13:36:40Z</time>
      </trkpt>
      <trkpt lat="45.06971" lon="6.15781">
        <ele>1327.2</ele>
        <time>2024-08-09T13:36:41Z</time>
      </trkpt>
      <trkpt lat="45.06971" lon="6.15781">
        <ele>1327.4</ele>
        <time>2024-08-09T13:36:42Z</time>
      </trkpt>
      <trkpt lat="45.06973" lon="6.15782">
        <ele>1327.6</ele>
        <time>2024-08-09T13:36:43Z</time>
      </trkpt>
      <trkpt lat="45.06973" lon="6.15782">
        <ele>1327.8</ele>
        <time>2024-08-09T13:36:44Z</time>
      </trkpt>
      <trkpt lat="45.06973" lon="6.15782">
        <ele>1328</ele>
        <time>2024-08-09T13:36:45Z</time>
      </trkpt>
      <trkpt lat="45.06975" lon="6.15782">
        <ele>1328.4</ele>
        <time>2024-08-09T13:36:46Z</time>
      </trkpt>
      <trkpt lat="45.06975" lon="6.15782">
        <ele>1328.6</ele>
        <time>2024-08-09T13:36:47Z</time>
      </trkpt>
      <trkpt lat="45.06977" lon="6.15784">
        <ele>1328.6</ele>
        <time>2024-08-09T13:36:48Z</time>
      </trkpt>
      <trkpt lat="45.06977" lon="6.15784">
        <ele>1328.8</ele>
        <time>2024-08-09T13:36:49Z</time>
      </trkpt>
      <trkpt lat="45.06978" lon="6.15786">
        <ele>1328.8</ele>
        <time>2024-08-09T13:36:50Z</time>
      </trkpt>
      <trkpt lat="45.06978" lon="6.15786">
        <ele>1329</ele>
        <time>2024-08-09T13:36:51Z</time>
      </trkpt>
      <trkpt lat="45.06978" lon="6.15786">
        <ele>1329</ele>
        <time>2024-08-09T13:36:52Z</time>
      </trkpt>
      <trkpt lat="45.06978" lon="6.15786">
        <ele>1329.2</ele>
        <time>2024-08-09T13:36:53Z</time>
      </trkpt>
      <trkpt lat="45.0698" lon="6.15788">
        <ele>1329.2</ele>
        <time>2024-08-09T13:36:54Z</time>
      </trkpt>
      <trkpt lat="45.0698" lon="6.15788">
        <ele>1329.6</ele>
        <time>2024-08-09T13:36:55Z</time>
      </trkpt>
      <trkpt lat="45.0698" lon="6.15788">
        <ele>1329.6</ele>
        <time>2024-08-09T13:36:56Z</time>
      </trkpt>
      <trkpt lat="45.06982" lon="6.15789">
        <ele>1330</ele>
        <time>2024-08-09T13:36:57Z</time>
      </trkpt>
      <trkpt lat="45.06982" lon="6.15789">
        <ele>1330.4</ele>
        <time>2024-08-09T13:36:58Z</time>
      </trkpt>
      <trkpt lat="45.06982" lon="6.15789">
        <ele>1330.4</ele>
        <time>2024-08-09T13:36:59Z</time>
      </trkpt>
      <trkpt lat="45.06984" lon="6.1579">
        <ele>1330.4</ele>
        <time>2024-08-09T13:37:00Z</time>
      </trkpt>
      <trkpt lat="45.06984" lon="6.1579">
        <ele>1330.4</ele>
        <time>2024-08-09T13:37:01Z</time>
      </trkpt>
      <trkpt lat="45.06984" lon="6.1579">
        <ele>1331</ele>
        <time>2024-08-09T13:37:02Z</time>
      </trkpt>
      <trkpt lat="45.06986" lon="6.1579">
        <ele>1331</ele>
        <time>2024-08-09T13:37:03Z</time>
      </trkpt>
      <trkpt lat="45.06986" lon="6.1579">
        <ele>1331</ele>
        <time>2024-08-09T13:37:04Z</time>
      </trkpt>
      <trkpt lat="45.06986" lon="6.1579">
        <ele>1331.2</ele>
        <time>2024-08-09T13:37:05Z</time>
      </trkpt>
      <trkpt lat="45.06988" lon="6.1579">
        <ele>1331.4</ele>
        <time>2024-08-09T13:37:06Z</time>
      </trkpt>
      <trkpt lat="45.06988" lon="6.1579">
        <ele>1331.6</ele>
        <time>2024-08-09T13:37:07Z</time>
      </trkpt>
      <trkpt lat="45.06988" lon="6.1579">
        <ele>1332</ele>
        <time>2024-08-09T13:37:08Z</time>
      </trkpt>
      <trkpt lat="45.06988" lon="6.1579">
        <ele>1332.2</ele>
        <time>2024-08-09T13:37:09Z</time>
      </trkpt>
      <trkpt lat="45.0699" lon="6.15788">
        <ele>1332.4</ele>
        <time>2024-08-09T13:37:10Z</time>
      </trkpt>
      <trkpt lat="45.0699" lon="6.15788">
        <ele>1332.4</ele>
        <time>2024-08-09T13:37:11Z</time>
      </trkpt>
      <trkpt lat="45.0699" lon="6.15788">
        <ele>1332.6</ele>
        <time>2024-08-09T13:37:12Z</time>
      </trkpt>
      <trkpt lat="45.0699" lon="6.15788">
        <ele>1332.8</ele>
        <time>2024-08-09T13:37:13Z</time>
      </trkpt>
      <trkpt lat="45.06992" lon="6.15788">
        <ele>1332.8</ele>
        <time>2024-08-09T13:37:14Z</time>
      </trkpt>
      <trkpt lat="45.06992" lon="6.15788">
        <ele>1332.8</ele>
        <time>2024-08-09T13:37:15Z</time>
      </trkpt>
      <trkpt lat="45.06994" lon="6.15788">
        <ele>1333.2</ele>
        <time>2024-08-09T13:37:16Z</time>
      </trkpt>
      <trkpt lat="45.06994" lon="6.15788">
        <ele>1333.4</ele>
        <time>2024-08-09T13:37:17Z</time>
      </trkpt>
      <trkpt lat="45.06994" lon="6.15788">
        <ele>1333.4</ele>
        <time>2024-08-09T13:37:18Z</time>
      </trkpt>
      <trkpt lat="45.06997" lon="6.15787">
        <ele>1333.6</ele>
        <time>2024-08-09T13:37:19Z</time>
      </trkpt>
      <trkpt lat="45.06997" lon="6.15787">
        <ele>1333.8</ele>
        <time>2024-08-09T13:37:20Z</time>
      </trkpt>
      <trkpt lat="45.06997" lon="6.15787">
        <ele>1334.2</ele>
        <time>2024-08-09T13:37:21Z</time>
      </trkpt>
      <trkpt lat="45.06999" lon="6.15788">
        <ele>1334.4</ele>
        <time>2024-08-09T13:37:22Z</time>
      </trkpt>
      <trkpt lat="45.06999" lon="6.15788">
        <ele>1334.4</ele>
        <time>2024-08-09T13:37:23Z</time>
      </trkpt>
      <trkpt lat="45.06999" lon="6.15788">
        <ele>1334.4</ele>
        <time>2024-08-09T13:37:24Z</time>
      </trkpt>
      <trkpt lat="45.06999" lon="6.15788">
        <ele>1334.4</ele>
        <time>2024-08-09T13:37:25Z</time>
      </trkpt>
      <trkpt lat="45.07001" lon="6.15786">
        <ele>1334.8</ele>
        <time>2024-08-09T13:37:26Z</time>
      </trkpt>
      <trkpt lat="45.07001" lon="6.15786">
        <ele>1334.8</ele>
        <time>2024-08-09T13:37:27Z</time>
      </trkpt>
      <trkpt lat="45.07001" lon="6.15786">
        <ele>1335</ele>
        <time>2024-08-09T13:37:28Z</time>
      </trkpt>
      <trkpt lat="45.07003" lon="6.15788">
        <ele>1335</ele>
        <time>2024-08-09T13:37:29Z</time>
      </trkpt>
      <trkpt lat="45.07003" lon="6.15788">
        <ele>1335.2</ele>
        <time>2024-08-09T13:37:30Z</time>
      </trkpt>
      <trkpt lat="45.07003" lon="6.15788">
        <ele>1335.6</ele>
        <time>2024-08-09T13:37:31Z</time>
      </trkpt>
      <trkpt lat="45.07003" lon="6.15788">
        <ele>1335.6</ele>
        <time>2024-08-09T13:37:32Z</time>
      </trkpt>
      <trkpt lat="45.07003" lon="6.15788">
        <ele>1336</ele>
        <time>2024-08-09T13:37:33Z</time>
      </trkpt>
      <trkpt lat="45.07003" lon="6.15788">
        <ele>1336.2</ele>
        <time>2024-08-09T13:37:34Z</time>
      </trkpt>
      <trkpt lat="45.07005" lon="6.1579">
        <ele>1336.2</ele>
        <time>2024-08-09T13:37:35Z</time>
      </trkpt>
      <trkpt lat="45.07005" lon="6.1579">
        <ele>1336.4</ele>
        <time>2024-08-09T13:37:36Z</time>
      </trkpt>
      <trkpt lat="45.07005" lon="6.1579">
        <ele>1336.4</ele>
        <time>2024-08-09T13:37:37Z</time>
      </trkpt>
      <trkpt lat="45.07005" lon="6.1579">
        <ele>1336.2</ele>
        <time>2024-08-09T13:37:38Z</time>
      </trkpt>
      <trkpt lat="45.07005" lon="6.1579">
        <ele>1336.2</ele>
        <time>2024-08-09T13:37:39Z</time>
      </trkpt>
      <trkpt lat="45.07005" lon="6.1579">
        <ele>1336.2</ele>
        <time>2024-08-09T13:37:40Z</time>
      </trkpt>
      <trkpt lat="45.07005" lon="6.1579">
        <ele>1336</ele>
        <time>2024-08-09T13:37:41Z</time>
      </trkpt>
      <trkpt lat="45.07005" lon="6.1579">
        <ele>1335.8</ele>
        <time>2024-08-09T13:37:42Z</time>
      </trkpt>
      <trkpt lat="45.07005" lon="6.1579">
        <ele>1335.8</ele>
        <time>2024-08-09T13:37:43Z</time>
      </trkpt>
      <trkpt lat="45.07005" lon="6.1579">
        <ele>1336</ele>
        <time>2024-08-09T13:37:44Z</time>
      </trkpt>
      <trkpt lat="45.07005" lon="6.1579">
        <ele>1336</ele>
        <time>2024-08-09T13:37:45Z</time>
      </trkpt>
      <trkpt lat="45.07005" lon="6.1579">
        <ele>1336</ele>
        <time>2024-08-09T13:37:46Z</time>
      </trkpt>
      <trkpt lat="45.07005" lon="6.1579">
        <ele>1336</ele>
        <time>2024-08-09T13:37:47Z</time>
      </trkpt>
      <trkpt lat="45.07005" lon="6.1579">
        <ele>1336</ele>
        <time>2024-08-09T13:37:48Z</time>
      </trkpt>
      <trkpt lat="45.07005" lon="6.1579">
        <ele>1336</ele>
        <time>2024-08-09T13:37:49Z</time>
      </trkpt>
      <trkpt lat="45.07005" lon="6.1579">
        <ele>1336</ele>
        <time>2024-08-09T13:37:50Z</time>
      </trkpt>
      <trkpt lat="45.07005" lon="6.1579">
        <ele>1335.8</ele>
        <time>2024-08-09T13:37:51Z</time>
      </trkpt>
      <trkpt lat="45.07005" lon="6.1579">
        <ele>1335.8</ele>
        <time>2024-08-09T13:37:52Z</time>
      </trkpt>
      <trkpt lat="45.07005" lon="6.1579">
        <ele>1335.6</ele>
        <time>2024-08-09T13:37:53Z</time>
      </trkpt>
      <trkpt lat="45.07005" lon="6.1579">
        <ele>1335.6</ele>
        <time>2024-08-09T13:37:54Z</time>
      </trkpt>
      <trkpt lat="45.07005" lon="6.1579">
        <ele>1335.8</ele>
        <time>2024-08-09T13:37:55Z</time>
      </trkpt>
      <trkpt lat="45.07005" lon="6.1579">
        <ele>1336</ele>
        <time>2024-08-09T13:37:56Z</time>
      </trkpt>
      <trkpt lat="45.07005" lon="6.1579">
        <ele>1336</ele>
        <time>2024-08-09T13:37:57Z</time>
      </trkpt>
      <trkpt lat="45.07005" lon="6.1579">
        <ele>1336</ele>
        <time>2024-08-09T13:37:58Z</time>
      </trkpt>
      <trkpt lat="45.07005" lon="6.1579">
        <ele>1336</ele>
        <time>2024-08-09T13:37:59Z</time>
      </trkpt>
      <trkpt lat="45.07005" lon="6.1579">
        <ele>1335.8</ele>
        <time>2024-08-09T13:38:00Z</time>
      </trkpt>
      <trkpt lat="45.07005" lon="6.1579">
        <ele>1335.8</ele>
        <time>2024-08-09T13:38:01Z</time>
      </trkpt>
      <trkpt lat="45.07005" lon="6.1579">
        <ele>1336.2</ele>
        <time>2024-08-09T13:38:02Z</time>
      </trkpt>
      <trkpt lat="45.07005" lon="6.1579">
        <ele>1336.2</ele>
        <time>2024-08-09T13:38:03Z</time>
      </trkpt>
      <trkpt lat="45.07005" lon="6.1579">
        <ele>1336.4</ele>
        <time>2024-08-09T13:38:04Z</time>
      </trkpt>
      <trkpt lat="45.07005" lon="6.1579">
        <ele>1336.6</ele>
        <time>2024-08-09T13:38:05Z</time>
      </trkpt>
      <trkpt lat="45.07005" lon="6.1579">
        <ele>1336.6</ele>
        <time>2024-08-09T13:38:06Z</time>
      </trkpt>
      <trkpt lat="45.07005" lon="6.1579">
        <ele>1336.2</ele>
        <time>2024-08-09T13:38:07Z</time>
      </trkpt>
      <trkpt lat="45.07005" lon="6.1579">
        <ele>1336</ele>
        <time>2024-08-09T13:38:08Z</time>
      </trkpt>
      <trkpt lat="45.07005" lon="6.1579">
        <ele>1336</ele>
        <time>2024-08-09T13:38:09Z</time>
      </trkpt>
      <trkpt lat="45.07005" lon="6.1579">
        <ele>1335.8</ele>
        <time>2024-08-09T13:38:10Z</time>
      </trkpt>
      <trkpt lat="45.07005" lon="6.1579">
        <ele>1335.8</ele>
        <time>2024-08-09T13:38:11Z</time>
      </trkpt>
      <trkpt lat="45.07005" lon="6.1579">
        <ele>1336</ele>
        <time>2024-08-09T13:38:12Z</time>
      </trkpt>
      <trkpt lat="45.07005" lon="6.1579">
        <ele>1336</ele>
        <time>2024-08-09T13:38:13Z</time>
      </trkpt>
      <trkpt lat="45.07005" lon="6.1579">
        <ele>1336</ele>
        <time>2024-08-09T13:38:14Z</time>
      </trkpt>
      <trkpt lat="45.07005" lon="6.1579">
        <ele>1336</ele>
        <time>2024-08-09T13:38:15Z</time>
      </trkpt>
      <trkpt lat="45.07005" lon="6.1579">
        <ele>1336</ele>
        <time>2024-08-09T13:38:16Z</time>
      </trkpt>
      <trkpt lat="45.07005" lon="6.1579">
        <ele>1335.8</ele>
        <time>2024-08-09T13:38:17Z</time>
      </trkpt>
      <trkpt lat="45.07005" lon="6.1579">
        <ele>1335.8</ele>
        <time>2024-08-09T13:38:18Z</time>
      </trkpt>
      <trkpt lat="45.07006" lon="6.15792">
        <ele>1336</ele>
        <time>2024-08-09T13:38:19Z</time>
      </trkpt>
      <trkpt lat="45.07006" lon="6.15792">
        <ele>1336</ele>
        <time>2024-08-09T13:38:20Z</time>
      </trkpt>
      <trkpt lat="45.07006" lon="6.15795">
        <ele>1336</ele>
        <time>2024-08-09T13:38:21Z</time>
      </trkpt>
      <trkpt lat="45.07006" lon="6.15795">
        <ele>1336</ele>
        <time>2024-08-09T13:38:22Z</time>
      </trkpt>
      <trkpt lat="45.07006" lon="6.15799">
        <ele>1336.2</ele>
        <time>2024-08-09T13:38:23Z</time>
      </trkpt>
      <trkpt lat="45.07006" lon="6.15799">
        <ele>1336.2</ele>
        <time>2024-08-09T13:38:24Z</time>
      </trkpt>
      <trkpt lat="45.07006" lon="6.15799">
        <ele>1336.2</ele>
        <time>2024-08-09T13:38:25Z</time>
      </trkpt>
      <trkpt lat="45.07005" lon="6.15802">
        <ele>1336.6</ele>
        <time>2024-08-09T13:38:26Z</time>
      </trkpt>
      <trkpt lat="45.07005" lon="6.15802">
        <ele>1336.8</ele>
        <time>2024-08-09T13:38:27Z</time>
      </trkpt>
      <trkpt lat="45.07003" lon="6.15805">
        <ele>1337</ele>
        <time>2024-08-09T13:38:28Z</time>
      </trkpt>
      <trkpt lat="45.07003" lon="6.15805">
        <ele>1337.2</ele>
        <time>2024-08-09T13:38:29Z</time>
      </trkpt>
      <trkpt lat="45.07001" lon="6.15805">
        <ele>1337.4</ele>
        <time>2024-08-09T13:38:30Z</time>
      </trkpt>
      <trkpt lat="45.07001" lon="6.15805">
        <ele>1337.6</ele>
        <time>2024-08-09T13:38:31Z</time>
      </trkpt>
      <trkpt lat="45.06999" lon="6.15805">
        <ele>1337.8</ele>
        <time>2024-08-09T13:38:32Z</time>
      </trkpt>
      <trkpt lat="45.06999" lon="6.15805">
        <ele>1338</ele>
        <time>2024-08-09T13:38:33Z</time>
      </trkpt>
      <trkpt lat="45.06999" lon="6.15805">
        <ele>1338.2</ele>
        <time>2024-08-09T13:38:34Z</time>
      </trkpt>
      <trkpt lat="45.06998" lon="6.15808">
        <ele>1338.4</ele>
        <time>2024-08-09T13:38:35Z</time>
      </trkpt>
      <trkpt lat="45.06998" lon="6.15808">
        <ele>1338.6</ele>
        <time>2024-08-09T13:38:36Z</time>
      </trkpt>
      <trkpt lat="45.06998" lon="6.15808">
        <ele>1339</ele>
        <time>2024-08-09T13:38:37Z</time>
      </trkpt>
      <trkpt lat="45.06998" lon="6.15811">
        <ele>1339.2</ele>
        <time>2024-08-09T13:38:38Z</time>
      </trkpt>
      <trkpt lat="45.06998" lon="6.15811">
        <ele>1339.2</ele>
        <time>2024-08-09T13:38:39Z</time>
      </trkpt>
      <trkpt lat="45.06998" lon="6.15811">
        <ele>1339.4</ele>
        <time>2024-08-09T13:38:40Z</time>
      </trkpt>
      <trkpt lat="45.07" lon="6.15813">
        <ele>1339.4</ele>
        <time>2024-08-09T13:38:41Z</time>
      </trkpt>
      <trkpt lat="45.07" lon="6.15813">
        <ele>1339.8</ele>
        <time>2024-08-09T13:38:42Z</time>
      </trkpt>
      <trkpt lat="45.07" lon="6.15813">
        <ele>1340.2</ele>
        <time>2024-08-09T13:38:43Z</time>
      </trkpt>
      <trkpt lat="45.07002" lon="6.15813">
        <ele>1340.4</ele>
        <time>2024-08-09T13:38:44Z</time>
      </trkpt>
      <trkpt lat="45.07002" lon="6.15813">
        <ele>1340.4</ele>
        <time>2024-08-09T13:38:45Z</time>
      </trkpt>
      <trkpt lat="45.07004" lon="6.15814">
        <ele>1340.6</ele>
        <time>2024-08-09T13:38:46Z</time>
      </trkpt>
      <trkpt lat="45.07004" lon="6.15814">
        <ele>1341</ele>
        <time>2024-08-09T13:38:47Z</time>
      </trkpt>
      <trkpt lat="45.07004" lon="6.15814">
        <ele>1341</ele>
        <time>2024-08-09T13:38:48Z</time>
      </trkpt>
      <trkpt lat="45.07006" lon="6.15813">
        <ele>1341.2</ele>
        <time>2024-08-09T13:38:49Z</time>
      </trkpt>
      <trkpt lat="45.07006" lon="6.15813">
        <ele>1341.6</ele>
        <time>2024-08-09T13:38:50Z</time>
      </trkpt>
      <trkpt lat="45.07006" lon="6.15813">
        <ele>1341.6</ele>
        <time>2024-08-09T13:38:51Z</time>
      </trkpt>
      <trkpt lat="45.07008" lon="6.15812">
        <ele>1342</ele>
        <time>2024-08-09T13:38:52Z</time>
      </trkpt>
      <trkpt lat="45.07008" lon="6.15812">
        <ele>1342.4</ele>
        <time>2024-08-09T13:38:53Z</time>
      </trkpt>
      <trkpt lat="45.07008" lon="6.15812">
        <ele>1342.4</ele>
        <time>2024-08-09T13:38:54Z</time>
      </trkpt>
      <trkpt lat="45.07008" lon="6.15812">
        <ele>1342.4</ele>
        <time>2024-08-09T13:38:55Z</time>
      </trkpt>
      <trkpt lat="45.0701" lon="6.15813">
        <ele>1342.6</ele>
        <time>2024-08-09T13:38:56Z</time>
      </trkpt>
      <trkpt lat="45.0701" lon="6.15813">
        <ele>1343</ele>
        <time>2024-08-09T13:38:57Z</time>
      </trkpt>
      <trkpt lat="45.0701" lon="6.15813">
        <ele>1343.2</ele>
        <time>2024-08-09T13:38:58Z</time>
      </trkpt>
      <trkpt lat="45.07012" lon="6.15813">
        <ele>1343.4</ele>
        <time>2024-08-09T13:38:59Z</time>
      </trkpt>
      <trkpt lat="45.07012" lon="6.15813">
        <ele>1343.6</ele>
        <time>2024-08-09T13:39:00Z</time>
      </trkpt>
      <trkpt lat="45.07012" lon="6.15813">
        <ele>1343.8</ele>
        <time>2024-08-09T13:39:01Z</time>
      </trkpt>
      <trkpt lat="45.07012" lon="6.15813">
        <ele>1344.2</ele>
        <time>2024-08-09T13:39:02Z</time>
      </trkpt>
      <trkpt lat="45.07014" lon="6.15814">
        <ele>1344.2</ele>
        <time>2024-08-09T13:39:03Z</time>
      </trkpt>
      <trkpt lat="45.07014" lon="6.15814">
        <ele>1344.2</ele>
        <time>2024-08-09T13:39:04Z</time>
      </trkpt>
      <trkpt lat="45.07014" lon="6.15814">
        <ele>1344.4</ele>
        <time>2024-08-09T13:39:05Z</time>
      </trkpt>
      <trkpt lat="45.07014" lon="6.15814">
        <ele>1344.4</ele>
        <time>2024-08-09T13:39:06Z</time>
      </trkpt>
      <trkpt lat="45.07014" lon="6.15814">
        <ele>1345</ele>
        <time>2024-08-09T13:39:07Z</time>
      </trkpt>
      <trkpt lat="45.07014" lon="6.15814">
        <ele>1345.2</ele>
        <time>2024-08-09T13:39:08Z</time>
      </trkpt>
      <trkpt lat="45.07014" lon="6.15814">
        <ele>1345.2</ele>
        <time>2024-08-09T13:39:09Z</time>
      </trkpt>
      <trkpt lat="45.07014" lon="6.15814">
        <ele>1345.2</ele>
        <time>2024-08-09T13:39:10Z</time>
      </trkpt>
      <trkpt lat="45.07014" lon="6.15814">
        <ele>1345.2</ele>
        <time>2024-08-09T13:39:11Z</time>
      </trkpt>
      <trkpt lat="45.07014" lon="6.15814">
        <ele>1345.6</ele>
        <time>2024-08-09T13:39:12Z</time>
      </trkpt>
      <trkpt lat="45.07014" lon="6.15814">
        <ele>1345.6</ele>
        <time>2024-08-09T13:39:13Z</time>
      </trkpt>
      <trkpt lat="45.07014" lon="6.15814">
        <ele>1345.8</ele>
        <time>2024-08-09T13:39:14Z</time>
      </trkpt>
      <trkpt lat="45.07014" lon="6.15814">
        <ele>1346</ele>
        <time>2024-08-09T13:39:15Z</time>
      </trkpt>
      <trkpt lat="45.07014" lon="6.15814">
        <ele>1346</ele>
        <time>2024-08-09T13:39:16Z</time>
      </trkpt>
      <trkpt lat="45.07014" lon="6.15814">
        <ele>1346.4</ele>
        <time>2024-08-09T13:39:17Z</time>
      </trkpt>
      <trkpt lat="45.07013" lon="6.15816">
        <ele>1346.6</ele>
        <time>2024-08-09T13:39:18Z</time>
      </trkpt>
      <trkpt lat="45.07013" lon="6.15816">
        <ele>1347</ele>
        <time>2024-08-09T13:39:19Z</time>
      </trkpt>
      <trkpt lat="45.0701" lon="6.15817">
        <ele>1347.2</ele>
        <time>2024-08-09T13:39:20Z</time>
      </trkpt>
      <trkpt lat="45.07008" lon="6.15818">
        <ele>1347.2</ele>
        <time>2024-08-09T13:39:21Z</time>
      </trkpt>
      <trkpt lat="45.07008" lon="6.15818">
        <ele>1347.4</ele>
        <time>2024-08-09T13:39:22Z</time>
      </trkpt>
      <trkpt lat="45.07006" lon="6.15822">
        <ele>1347.6</ele>
        <time>2024-08-09T13:39:23Z</time>
      </trkpt>
      <trkpt lat="45.07006" lon="6.15822">
        <ele>1347.8</ele>
        <time>2024-08-09T13:39:24Z</time>
      </trkpt>
      <trkpt lat="45.07006" lon="6.15825">
        <ele>1347.8</ele>
        <time>2024-08-09T13:39:25Z</time>
      </trkpt>
      <trkpt lat="45.07006" lon="6.15825">
        <ele>1348</ele>
        <time>2024-08-09T13:39:26Z</time>
      </trkpt>
      <trkpt lat="45.07008" lon="6.15826">
        <ele>1348.2</ele>
        <time>2024-08-09T13:39:27Z</time>
      </trkpt>
      <trkpt lat="45.07008" lon="6.15826">
        <ele>1348.4</ele>
        <time>2024-08-09T13:39:28Z</time>
      </trkpt>
      <trkpt lat="45.07008" lon="6.15826">
        <ele>1348.6</ele>
        <time>2024-08-09T13:39:29Z</time>
      </trkpt>
      <trkpt lat="45.0701" lon="6.15828">
        <ele>1348.6</ele>
        <time>2024-08-09T13:39:30Z</time>
      </trkpt>
      <trkpt lat="45.0701" lon="6.15828">
        <ele>1348.8</ele>
        <time>2024-08-09T13:39:31Z</time>
      </trkpt>
      <trkpt lat="45.0701" lon="6.15828">
        <ele>1349.4</ele>
        <time>2024-08-09T13:39:32Z</time>
      </trkpt>
      <trkpt lat="45.07012" lon="6.15829">
        <ele>1349.6</ele>
        <time>2024-08-09T13:39:33Z</time>
      </trkpt>
      <trkpt lat="45.07012" lon="6.15829">
        <ele>1349.6</ele>
        <time>2024-08-09T13:39:34Z</time>
      </trkpt>
      <trkpt lat="45.07012" lon="6.15829">
        <ele>1349.8</ele>
        <time>2024-08-09T13:39:35Z</time>
      </trkpt>
      <trkpt lat="45.07012" lon="6.15829">
        <ele>1350</ele>
        <time>2024-08-09T13:39:36Z</time>
      </trkpt>
      <trkpt lat="45.07015" lon="6.1583">
        <ele>1350.4</ele>
        <time>2024-08-09T13:39:37Z</time>
      </trkpt>
      <trkpt lat="45.07015" lon="6.1583">
        <ele>1350.4</ele>
        <time>2024-08-09T13:39:38Z</time>
      </trkpt>
      <trkpt lat="45.07015" lon="6.1583">
        <ele>1350.4</ele>
        <time>2024-08-09T13:39:39Z</time>
      </trkpt>
      <trkpt lat="45.07017" lon="6.15831">
        <ele>1350.6</ele>
        <time>2024-08-09T13:39:40Z</time>
      </trkpt>
      <trkpt lat="45.07017" lon="6.15831">
        <ele>1350.8</ele>
        <time>2024-08-09T13:39:41Z</time>
      </trkpt>
      <trkpt lat="45.07017" lon="6.15831">
        <ele>1350.8</ele>
        <time>2024-08-09T13:39:42Z</time>
      </trkpt>
      <trkpt lat="45.07019" lon="6.15833">
        <ele>1351.2</ele>
        <time>2024-08-09T13:39:43Z</time>
      </trkpt>
      <trkpt lat="45.07019" lon="6.15833">
        <ele>1351.6</ele>
        <time>2024-08-09T13:39:44Z</time>
      </trkpt>
      <trkpt lat="45.07019" lon="6.15833">
        <ele>1351.8</ele>
        <time>2024-08-09T13:39:45Z</time>
      </trkpt>
      <trkpt lat="45.07019" lon="6.15833">
        <ele>1352</ele>
        <time>2024-08-09T13:39:46Z</time>
      </trkpt>
      <trkpt lat="45.07021" lon="6.15835">
        <ele>1352.2</ele>
        <time>2024-08-09T13:39:47Z</time>
      </trkpt>
      <trkpt lat="45.07021" lon="6.15835">
        <ele>1352.2</ele>
        <time>2024-08-09T13:39:48Z</time>
      </trkpt>
      <trkpt lat="45.07021" lon="6.15835">
        <ele>1352.6</ele>
        <time>2024-08-09T13:39:49Z</time>
      </trkpt>
      <trkpt lat="45.07023" lon="6.15836">
        <ele>1352.8</ele>
        <time>2024-08-09T13:39:50Z</time>
      </trkpt>
      <trkpt lat="45.07023" lon="6.15836">
        <ele>1352.8</ele>
        <time>2024-08-09T13:39:51Z</time>
      </trkpt>
      <trkpt lat="45.07026" lon="6.15837">
        <ele>1352.8</ele>
        <time>2024-08-09T13:39:52Z</time>
      </trkpt>
      <trkpt lat="45.07026" lon="6.15837">
        <ele>1353</ele>
        <time>2024-08-09T13:39:53Z</time>
      </trkpt>
      <trkpt lat="45.07027" lon="6.15839">
        <ele>1353.6</ele>
        <time>2024-08-09T13:39:54Z</time>
      </trkpt>
      <trkpt lat="45.07027" lon="6.15839">
        <ele>1353.8</ele>
        <time>2024-08-09T13:39:55Z</time>
      </trkpt>
      <trkpt lat="45.07027" lon="6.15839">
        <ele>1353.8</ele>
        <time>2024-08-09T13:39:56Z</time>
      </trkpt>
      <trkpt lat="45.07029" lon="6.1584">
        <ele>1354</ele>
        <time>2024-08-09T13:39:57Z</time>
      </trkpt>
      <trkpt lat="45.07029" lon="6.1584">
        <ele>1354.2</ele>
        <time>2024-08-09T13:39:58Z</time>
      </trkpt>
      <trkpt lat="45.07029" lon="6.1584">
        <ele>1354.2</ele>
        <time>2024-08-09T13:39:59Z</time>
      </trkpt>
      <trkpt lat="45.07031" lon="6.15843">
        <ele>1354.6</ele>
        <time>2024-08-09T13:40:01Z</time>
      </trkpt>
      <trkpt lat="45.07031" lon="6.15843">
        <ele>1355</ele>
        <time>2024-08-09T13:40:02Z</time>
      </trkpt>
      <trkpt lat="45.07032" lon="6.15844">
        <ele>1355.2</ele>
        <time>2024-08-09T13:40:03Z</time>
      </trkpt>
      <trkpt lat="45.07032" lon="6.15844">
        <ele>1355.4</ele>
        <time>2024-08-09T13:40:04Z</time>
      </trkpt>
      <trkpt lat="45.07032" lon="6.15844">
        <ele>1355.6</ele>
        <time>2024-08-09T13:40:05Z</time>
      </trkpt>
      <trkpt lat="45.07034" lon="6.15846">
        <ele>1355.8</ele>
        <time>2024-08-09T13:40:06Z</time>
      </trkpt>
      <trkpt lat="45.07034" lon="6.15846">
        <ele>1356</ele>
        <time>2024-08-09T13:40:07Z</time>
      </trkpt>
      <trkpt lat="45.07034" lon="6.15846">
        <ele>1356.4</ele>
        <time>2024-08-09T13:40:08Z</time>
      </trkpt>
      <trkpt lat="45.07036" lon="6.15848">
        <ele>1356.6</ele>
        <time>2024-08-09T13:40:09Z</time>
      </trkpt>
      <trkpt lat="45.07036" lon="6.15848">
        <ele>1356.8</ele>
        <time>2024-08-09T13:40:10Z</time>
      </trkpt>
      <trkpt lat="45.07036" lon="6.15848">
        <ele>1357</ele>
        <time>2024-08-09T13:40:11Z</time>
      </trkpt>
      <trkpt lat="45.07036" lon="6.15848">
        <ele>1357</ele>
        <time>2024-08-09T13:40:12Z</time>
      </trkpt>
      <trkpt lat="45.07033" lon="6.1585">
        <ele>1357.4</ele>
        <time>2024-08-09T13:40:13Z</time>
      </trkpt>
      <trkpt lat="45.07033" lon="6.1585">
        <ele>1357.6</ele>
        <time>2024-08-09T13:40:14Z</time>
      </trkpt>
      <trkpt lat="45.07033" lon="6.1585">
        <ele>1357.6</ele>
        <time>2024-08-09T13:40:15Z</time>
      </trkpt>
      <trkpt lat="45.07031" lon="6.1585">
        <ele>1357.6</ele>
        <time>2024-08-09T13:40:16Z</time>
      </trkpt>
      <trkpt lat="45.07031" lon="6.1585">
        <ele>1357.8</ele>
        <time>2024-08-09T13:40:17Z</time>
      </trkpt>
      <trkpt lat="45.07031" lon="6.1585">
        <ele>1357.8</ele>
        <time>2024-08-09T13:40:18Z</time>
      </trkpt>
      <trkpt lat="45.07031" lon="6.1585">
        <ele>1357.8</ele>
        <time>2024-08-09T13:40:19Z</time>
      </trkpt>
      <trkpt lat="45.07031" lon="6.1585">
        <ele>1357.6</ele>
        <time>2024-08-09T13:40:20Z</time>
      </trkpt>
      <trkpt lat="45.07031" lon="6.1585">
        <ele>1357.8</ele>
        <time>2024-08-09T13:40:21Z</time>
      </trkpt>
      <trkpt lat="45.07031" lon="6.1585">
        <ele>1357.8</ele>
        <time>2024-08-09T13:40:22Z</time>
      </trkpt>
      <trkpt lat="45.07031" lon="6.1585">
        <ele>1358.2</ele>
        <time>2024-08-09T13:40:23Z</time>
      </trkpt>
      <trkpt lat="45.07031" lon="6.1585">
        <ele>1358.2</ele>
        <time>2024-08-09T13:40:24Z</time>
      </trkpt>
      <trkpt lat="45.07031" lon="6.1585">
        <ele>1358.8</ele>
        <time>2024-08-09T13:40:25Z</time>
      </trkpt>
      <trkpt lat="45.07031" lon="6.1585">
        <ele>1359</ele>
        <time>2024-08-09T13:40:26Z</time>
      </trkpt>
      <trkpt lat="45.07028" lon="6.1585">
        <ele>1359.2</ele>
        <time>2024-08-09T13:40:27Z</time>
      </trkpt>
      <trkpt lat="45.07028" lon="6.1585">
        <ele>1359.4</ele>
        <time>2024-08-09T13:40:28Z</time>
      </trkpt>
      <trkpt lat="45.07028" lon="6.1585">
        <ele>1359.6</ele>
        <time>2024-08-09T13:40:29Z</time>
      </trkpt>
      <trkpt lat="45.07029" lon="6.15853">
        <ele>1359.8</ele>
        <time>2024-08-09T13:40:30Z</time>
      </trkpt>
      <trkpt lat="45.07029" lon="6.15853">
        <ele>1360</ele>
        <time>2024-08-09T13:40:31Z</time>
      </trkpt>
      <trkpt lat="45.0703" lon="6.15855">
        <ele>1360.2</ele>
        <time>2024-08-09T13:40:32Z</time>
      </trkpt>
      <trkpt lat="45.0703" lon="6.15855">
        <ele>1360.6</ele>
        <time>2024-08-09T13:40:33Z</time>
      </trkpt>
      <trkpt lat="45.0703" lon="6.15855">
        <ele>1360.6</ele>
        <time>2024-08-09T13:40:34Z</time>
      </trkpt>
      <trkpt lat="45.07032" lon="6.15857">
        <ele>1360.8</ele>
        <time>2024-08-09T13:40:35Z</time>
      </trkpt>
      <trkpt lat="45.07032" lon="6.15857">
        <ele>1361</ele>
        <time>2024-08-09T13:40:36Z</time>
      </trkpt>
      <trkpt lat="45.07032" lon="6.15857">
        <ele>1361.4</ele>
        <time>2024-08-09T13:40:37Z</time>
      </trkpt>
      <trkpt lat="45.07034" lon="6.15859">
        <ele>1361.8</ele>
        <time>2024-08-09T13:40:38Z</time>
      </trkpt>
      <trkpt lat="45.07034" lon="6.15859">
        <ele>1361.8</ele>
        <time>2024-08-09T13:40:39Z</time>
      </trkpt>
      <trkpt lat="45.07034" lon="6.15859">
        <ele>1362</ele>
        <time>2024-08-09T13:40:40Z</time>
      </trkpt>
      <trkpt lat="45.07036" lon="6.1586">
        <ele>1362</ele>
        <time>2024-08-09T13:40:41Z</time>
      </trkpt>
      <trkpt lat="45.07036" lon="6.1586">
        <ele>1362.2</ele>
        <time>2024-08-09T13:40:42Z</time>
      </trkpt>
      <trkpt lat="45.07038" lon="6.15862">
        <ele>1362.4</ele>
        <time>2024-08-09T13:40:43Z</time>
      </trkpt>
      <trkpt lat="45.07038" lon="6.15862">
        <ele>1362.6</ele>
        <time>2024-08-09T13:40:44Z</time>
      </trkpt>
      <trkpt lat="45.0704" lon="6.15863">
        <ele>1362.8</ele>
        <time>2024-08-09T13:40:45Z</time>
      </trkpt>
      <trkpt lat="45.0704" lon="6.15863">
        <ele>1363</ele>
        <time>2024-08-09T13:40:46Z</time>
      </trkpt>
      <trkpt lat="45.0704" lon="6.15863">
        <ele>1363.4</ele>
        <time>2024-08-09T13:40:47Z</time>
      </trkpt>
      <trkpt lat="45.07042" lon="6.15864">
        <ele>1363.6</ele>
        <time>2024-08-09T13:40:48Z</time>
      </trkpt>
      <trkpt lat="45.07042" lon="6.15864">
        <ele>1363.6</ele>
        <time>2024-08-09T13:40:49Z</time>
      </trkpt>
      <trkpt lat="45.07042" lon="6.15864">
        <ele>1363.6</ele>
        <time>2024-08-09T13:40:50Z</time>
      </trkpt>
      <trkpt lat="45.07044" lon="6.15865">
        <ele>1363.6</ele>
        <time>2024-08-09T13:40:51Z</time>
      </trkpt>
      <trkpt lat="45.07044" lon="6.15865">
        <ele>1363.8</ele>
        <time>2024-08-09T13:40:52Z</time>
      </trkpt>
      <trkpt lat="45.07044" lon="6.15865">
        <ele>1363.8</ele>
        <time>2024-08-09T13:40:53Z</time>
      </trkpt>
      <trkpt lat="45.07044" lon="6.15865">
        <ele>1364</ele>
        <time>2024-08-09T13:40:54Z</time>
      </trkpt>
      <trkpt lat="45.07045" lon="6.15868">
        <ele>1364.4</ele>
        <time>2024-08-09T13:40:55Z</time>
      </trkpt>
      <trkpt lat="45.07045" lon="6.15868">
        <ele>1364.4</ele>
        <time>2024-08-09T13:40:56Z</time>
      </trkpt>
      <trkpt lat="45.07045" lon="6.15868">
        <ele>1364.8</ele>
        <time>2024-08-09T13:40:57Z</time>
      </trkpt>
      <trkpt lat="45.07046" lon="6.1587">
        <ele>1364.8</ele>
        <time>2024-08-09T13:40:58Z</time>
      </trkpt>
      <trkpt lat="45.07046" lon="6.1587">
        <ele>1365</ele>
        <time>2024-08-09T13:40:59Z</time>
      </trkpt>
      <trkpt lat="45.07046" lon="6.1587">
        <ele>1365.4</ele>
        <time>2024-08-09T13:41:00Z</time>
      </trkpt>
      <trkpt lat="45.07047" lon="6.15872">
        <ele>1365.6</ele>
        <time>2024-08-09T13:41:01Z</time>
      </trkpt>
      <trkpt lat="45.07047" lon="6.15872">
        <ele>1366</ele>
        <time>2024-08-09T13:41:02Z</time>
      </trkpt>
      <trkpt lat="45.07047" lon="6.15872">
        <ele>1366</ele>
        <time>2024-08-09T13:41:03Z</time>
      </trkpt>
      <trkpt lat="45.0705" lon="6.15874">
        <ele>1366</ele>
        <time>2024-08-09T13:41:04Z</time>
      </trkpt>
      <trkpt lat="45.0705" lon="6.15874">
        <ele>1366.2</ele>
        <time>2024-08-09T13:41:05Z</time>
      </trkpt>
      <trkpt lat="45.0705" lon="6.15874">
        <ele>1366.4</ele>
        <time>2024-08-09T13:41:06Z</time>
      </trkpt>
      <trkpt lat="45.0705" lon="6.15874">
        <ele>1366.6</ele>
        <time>2024-08-09T13:41:07Z</time>
      </trkpt>
      <trkpt lat="45.07051" lon="6.15875">
        <ele>1366.8</ele>
        <time>2024-08-09T13:41:08Z</time>
      </trkpt>
      <trkpt lat="45.07051" lon="6.15875">
        <ele>1367.2</ele>
        <time>2024-08-09T13:41:09Z</time>
      </trkpt>
      <trkpt lat="45.07051" lon="6.15875">
        <ele>1367.4</ele>
        <time>2024-08-09T13:41:10Z</time>
      </trkpt>
      <trkpt lat="45.07051" lon="6.15875">
        <ele>1367.6</ele>
        <time>2024-08-09T13:41:11Z</time>
      </trkpt>
      <trkpt lat="45.07053" lon="6.15876">
        <ele>1367.6</ele>
        <time>2024-08-09T13:41:12Z</time>
      </trkpt>
      <trkpt lat="45.07053" lon="6.15876">
        <ele>1367.8</ele>
        <time>2024-08-09T13:41:13Z</time>
      </trkpt>
      <trkpt lat="45.07053" lon="6.15876">
        <ele>1367.8</ele>
        <time>2024-08-09T13:41:14Z</time>
      </trkpt>
      <trkpt lat="45.07053" lon="6.15876">
        <ele>1368.2</ele>
        <time>2024-08-09T13:41:15Z</time>
      </trkpt>
      <trkpt lat="45.07053" lon="6.15876">
        <ele>1368.2</ele>
        <time>2024-08-09T13:41:16Z</time>
      </trkpt>
      <trkpt lat="45.07055" lon="6.15877">
        <ele>1368.4</ele>
        <time>2024-08-09T13:41:17Z</time>
      </trkpt>
      <trkpt lat="45.07055" lon="6.15877">
        <ele>1368.6</ele>
        <time>2024-08-09T13:41:18Z</time>
      </trkpt>
      <trkpt lat="45.07055" lon="6.15877">
        <ele>1368.8</ele>
        <time>2024-08-09T13:41:19Z</time>
      </trkpt>
      <trkpt lat="45.07057" lon="6.15878">
        <ele>1369</ele>
        <time>2024-08-09T13:41:20Z</time>
      </trkpt>
      <trkpt lat="45.07057" lon="6.15878">
        <ele>1369.2</ele>
        <time>2024-08-09T13:41:21Z</time>
      </trkpt>
      <trkpt lat="45.07057" lon="6.15878">
        <ele>1369.6</ele>
        <time>2024-08-09T13:41:22Z</time>
      </trkpt>
      <trkpt lat="45.07057" lon="6.15878">
        <ele>1369.6</ele>
        <time>2024-08-09T13:41:23Z</time>
      </trkpt>
      <trkpt lat="45.07059" lon="6.15878">
        <ele>1369.8</ele>
        <time>2024-08-09T13:41:24Z</time>
      </trkpt>
      <trkpt lat="45.07059" lon="6.15878">
        <ele>1370</ele>
        <time>2024-08-09T13:41:25Z</time>
      </trkpt>
      <trkpt lat="45.07059" lon="6.15878">
        <ele>1370.2</ele>
        <time>2024-08-09T13:41:26Z</time>
      </trkpt>
      <trkpt lat="45.07059" lon="6.15878">
        <ele>1370.6</ele>
        <time>2024-08-09T13:41:27Z</time>
      </trkpt>
      <trkpt lat="45.07059" lon="6.15878">
        <ele>1370.6</ele>
        <time>2024-08-09T13:41:28Z</time>
      </trkpt>
      <trkpt lat="45.07059" lon="6.15878">
        <ele>1370.8</ele>
        <time>2024-08-09T13:41:29Z</time>
      </trkpt>
      <trkpt lat="45.07059" lon="6.15878">
        <ele>1371</ele>
        <time>2024-08-09T13:41:30Z</time>
      </trkpt>
      <trkpt lat="45.07059" lon="6.15878">
        <ele>1371</ele>
        <time>2024-08-09T13:41:31Z</time>
      </trkpt>
      <trkpt lat="45.07059" lon="6.15878">
        <ele>1371.4</ele>
        <time>2024-08-09T13:41:32Z</time>
      </trkpt>
      <trkpt lat="45.07059" lon="6.15878">
        <ele>1371.4</ele>
        <time>2024-08-09T13:41:33Z</time>
      </trkpt>
      <trkpt lat="45.07059" lon="6.15878">
        <ele>1371.4</ele>
        <time>2024-08-09T13:41:34Z</time>
      </trkpt>
      <trkpt lat="45.07059" lon="6.15878">
        <ele>1371.4</ele>
        <time>2024-08-09T13:41:35Z</time>
      </trkpt>
      <trkpt lat="45.07059" lon="6.15878">
        <ele>1371.4</ele>
        <time>2024-08-09T13:41:36Z</time>
      </trkpt>
      <trkpt lat="45.07059" lon="6.15878">
        <ele>1371.6</ele>
        <time>2024-08-09T13:41:37Z</time>
      </trkpt>
      <trkpt lat="45.07059" lon="6.15878">
        <ele>1371.6</ele>
        <time>2024-08-09T13:41:38Z</time>
      </trkpt>
      <trkpt lat="45.07059" lon="6.15878">
        <ele>1371.8</ele>
        <time>2024-08-09T13:41:39Z</time>
      </trkpt>
      <trkpt lat="45.07059" lon="6.15878">
        <ele>1372.2</ele>
        <time>2024-08-09T13:41:40Z</time>
      </trkpt>
      <trkpt lat="45.07058" lon="6.15882">
        <ele>1372.4</ele>
        <time>2024-08-09T13:41:41Z</time>
      </trkpt>
      <trkpt lat="45.07058" lon="6.15882">
        <ele>1372.6</ele>
        <time>2024-08-09T13:41:42Z</time>
      </trkpt>
      <trkpt lat="45.07056" lon="6.15885">
        <ele>1372.6</ele>
        <time>2024-08-09T13:41:43Z</time>
      </trkpt>
      <trkpt lat="45.07056" lon="6.15885">
        <ele>1373</ele>
        <time>2024-08-09T13:41:44Z</time>
      </trkpt>
      <trkpt lat="45.07056" lon="6.15885">
        <ele>1373.2</ele>
        <time>2024-08-09T13:41:45Z</time>
      </trkpt>
      <trkpt lat="45.07056" lon="6.15885">
        <ele>1373.2</ele>
        <time>2024-08-09T13:41:46Z</time>
      </trkpt>
      <trkpt lat="45.07058" lon="6.15887">
        <ele>1373</ele>
        <time>2024-08-09T13:41:47Z</time>
      </trkpt>
      <trkpt lat="45.07058" lon="6.15887">
        <ele>1373</ele>
        <time>2024-08-09T13:41:48Z</time>
      </trkpt>
      <trkpt lat="45.07058" lon="6.15887">
        <ele>1373.4</ele>
        <time>2024-08-09T13:41:49Z</time>
      </trkpt>
      <trkpt lat="45.07058" lon="6.15887">
        <ele>1373.8</ele>
        <time>2024-08-09T13:41:50Z</time>
      </trkpt>
      <trkpt lat="45.0706" lon="6.15888">
        <ele>1373.8</ele>
        <time>2024-08-09T13:41:51Z</time>
      </trkpt>
      <trkpt lat="45.0706" lon="6.15888">
        <ele>1374</ele>
        <time>2024-08-09T13:41:52Z</time>
      </trkpt>
      <trkpt lat="45.0706" lon="6.15888">
        <ele>1374</ele>
        <time>2024-08-09T13:41:53Z</time>
      </trkpt>
      <trkpt lat="45.0706" lon="6.15888">
        <ele>1374.2</ele>
        <time>2024-08-09T13:41:54Z</time>
      </trkpt>
      <trkpt lat="45.0706" lon="6.15888">
        <ele>1374.4</ele>
        <time>2024-08-09T13:41:55Z</time>
      </trkpt>
      <trkpt lat="45.0706" lon="6.15888">
        <ele>1374.6</ele>
        <time>2024-08-09T13:41:56Z</time>
      </trkpt>
      <trkpt lat="45.07061" lon="6.1589">
        <ele>1374.8</ele>
        <time>2024-08-09T13:41:57Z</time>
      </trkpt>
      <trkpt lat="45.07061" lon="6.1589">
        <ele>1374.8</ele>
        <time>2024-08-09T13:41:58Z</time>
      </trkpt>
      <trkpt lat="45.07064" lon="6.1589">
        <ele>1375</ele>
        <time>2024-08-09T13:41:59Z</time>
      </trkpt>
      <trkpt lat="45.07064" lon="6.1589">
        <ele>1375.4</ele>
        <time>2024-08-09T13:42:00Z</time>
      </trkpt>
      <trkpt lat="45.07066" lon="6.1589">
        <ele>1375.4</ele>
        <time>2024-08-09T13:42:01Z</time>
      </trkpt>
      <trkpt lat="45.07066" lon="6.1589">
        <ele>1375.6</ele>
        <time>2024-08-09T13:42:03Z</time>
      </trkpt>
      <trkpt lat="45.07068" lon="6.15892">
        <ele>1375.8</ele>
        <time>2024-08-09T13:42:04Z</time>
      </trkpt>
      <trkpt lat="45.07068" lon="6.15892">
        <ele>1376.2</ele>
        <time>2024-08-09T13:42:05Z</time>
      </trkpt>
      <trkpt lat="45.07068" lon="6.15892">
        <ele>1376.4</ele>
        <time>2024-08-09T13:42:07Z</time>
      </trkpt>
      <trkpt lat="45.0707" lon="6.15893">
        <ele>1376.6</ele>
        <time>2024-08-09T13:42:08Z</time>
      </trkpt>
      <trkpt lat="45.0707" lon="6.15893">
        <ele>1376.8</ele>
        <time>2024-08-09T13:42:09Z</time>
      </trkpt>
      <trkpt lat="45.07072" lon="6.15894">
        <ele>1377</ele>
        <time>2024-08-09T13:42:10Z</time>
      </trkpt>
      <trkpt lat="45.07072" lon="6.15894">
        <ele>1377.2</ele>
        <time>2024-08-09T13:42:11Z</time>
      </trkpt>
      <trkpt lat="45.07072" lon="6.15894">
        <ele>1377.4</ele>
        <time>2024-08-09T13:42:12Z</time>
      </trkpt>
      <trkpt lat="45.07074" lon="6.15896">
        <ele>1377.6</ele>
        <time>2024-08-09T13:42:13Z</time>
      </trkpt>
      <trkpt lat="45.07074" lon="6.15896">
        <ele>1378.2</ele>
        <time>2024-08-09T13:42:14Z</time>
      </trkpt>
      <trkpt lat="45.07074" lon="6.15896">
        <ele>1378.2</ele>
        <time>2024-08-09T13:42:15Z</time>
      </trkpt>
      <trkpt lat="45.07074" lon="6.15896">
        <ele>1378.2</ele>
        <time>2024-08-09T13:42:16Z</time>
      </trkpt>
      <trkpt lat="45.07076" lon="6.15898">
        <ele>1378.2</ele>
        <time>2024-08-09T13:42:17Z</time>
      </trkpt>
      <trkpt lat="45.07076" lon="6.15898">
        <ele>1378.4</ele>
        <time>2024-08-09T13:42:18Z</time>
      </trkpt>
      <trkpt lat="45.07076" lon="6.15898">
        <ele>1378.8</ele>
        <time>2024-08-09T13:42:19Z</time>
      </trkpt>
      <trkpt lat="45.07076" lon="6.15898">
        <ele>1378.8</ele>
        <time>2024-08-09T13:42:20Z</time>
      </trkpt>
      <trkpt lat="45.07076" lon="6.15898">
        <ele>1378.8</ele>
        <time>2024-08-09T13:42:21Z</time>
      </trkpt>
      <trkpt lat="45.07076" lon="6.15898">
        <ele>1379</ele>
        <time>2024-08-09T13:42:22Z</time>
      </trkpt>
      <trkpt lat="45.07076" lon="6.15898">
        <ele>1379</ele>
        <time>2024-08-09T13:42:23Z</time>
      </trkpt>
      <trkpt lat="45.07076" lon="6.15898">
        <ele>1379</ele>
        <time>2024-08-09T13:42:24Z</time>
      </trkpt>
      <trkpt lat="45.07078" lon="6.15899">
        <ele>1379.2</ele>
        <time>2024-08-09T13:42:25Z</time>
      </trkpt>
      <trkpt lat="45.07078" lon="6.15899">
        <ele>1379.2</ele>
        <time>2024-08-09T13:42:26Z</time>
      </trkpt>
      <trkpt lat="45.07078" lon="6.15899">
        <ele>1379.2</ele>
        <time>2024-08-09T13:42:27Z</time>
      </trkpt>
      <trkpt lat="45.0708" lon="6.15899">
        <ele>1379.4</ele>
        <time>2024-08-09T13:42:28Z</time>
      </trkpt>
      <trkpt lat="45.0708" lon="6.15899">
        <ele>1379.4</ele>
        <time>2024-08-09T13:42:29Z</time>
      </trkpt>
      <trkpt lat="45.0708" lon="6.15899">
        <ele>1379.4</ele>
        <time>2024-08-09T13:42:30Z</time>
      </trkpt>
      <trkpt lat="45.07082" lon="6.15898">
        <ele>1379.8</ele>
        <time>2024-08-09T13:42:31Z</time>
      </trkpt>
      <trkpt lat="45.07082" lon="6.15898">
        <ele>1380</ele>
        <time>2024-08-09T13:42:32Z</time>
      </trkpt>
      <trkpt lat="45.07082" lon="6.15898">
        <ele>1380</ele>
        <time>2024-08-09T13:42:33Z</time>
      </trkpt>
      <trkpt lat="45.07084" lon="6.15898">
        <ele>1380.4</ele>
        <time>2024-08-09T13:42:34Z</time>
      </trkpt>
      <trkpt lat="45.07084" lon="6.15898">
        <ele>1380.8</ele>
        <time>2024-08-09T13:42:35Z</time>
      </trkpt>
      <trkpt lat="45.07084" lon="6.15898">
        <ele>1381</ele>
        <time>2024-08-09T13:42:36Z</time>
      </trkpt>
      <trkpt lat="45.07084" lon="6.15898">
        <ele>1381</ele>
        <time>2024-08-09T13:42:37Z</time>
      </trkpt>
      <trkpt lat="45.07084" lon="6.15898">
        <ele>1381.2</ele>
        <time>2024-08-09T13:42:38Z</time>
      </trkpt>
      <trkpt lat="45.07086" lon="6.15899">
        <ele>1381.4</ele>
        <time>2024-08-09T13:42:39Z</time>
      </trkpt>
      <trkpt lat="45.07086" lon="6.15899">
        <ele>1381.6</ele>
        <time>2024-08-09T13:42:40Z</time>
      </trkpt>
      <trkpt lat="45.07086" lon="6.15899">
        <ele>1382</ele>
        <time>2024-08-09T13:42:41Z</time>
      </trkpt>
      <trkpt lat="45.07088" lon="6.159">
        <ele>1382.4</ele>
        <time>2024-08-09T13:42:42Z</time>
      </trkpt>
      <trkpt lat="45.07088" lon="6.159">
        <ele>1382.6</ele>
        <time>2024-08-09T13:42:43Z</time>
      </trkpt>
      <trkpt lat="45.07089" lon="6.15902">
        <ele>1382.8</ele>
        <time>2024-08-09T13:42:44Z</time>
      </trkpt>
      <trkpt lat="45.07089" lon="6.15902">
        <ele>1383</ele>
        <time>2024-08-09T13:42:45Z</time>
      </trkpt>
      <trkpt lat="45.07089" lon="6.15902">
        <ele>1383.4</ele>
        <time>2024-08-09T13:42:46Z</time>
      </trkpt>
      <trkpt lat="45.07088" lon="6.15904">
        <ele>1383.4</ele>
        <time>2024-08-09T13:42:47Z</time>
      </trkpt>
      <trkpt lat="45.07088" lon="6.15904">
        <ele>1383.6</ele>
        <time>2024-08-09T13:42:48Z</time>
      </trkpt>
      <trkpt lat="45.07086" lon="6.15905">
        <ele>1383.8</ele>
        <time>2024-08-09T13:42:49Z</time>
      </trkpt>
      <trkpt lat="45.07086" lon="6.15905">
        <ele>1383.8</ele>
        <time>2024-08-09T13:42:50Z</time>
      </trkpt>
      <trkpt lat="45.07084" lon="6.15905">
        <ele>1384</ele>
        <time>2024-08-09T13:42:51Z</time>
      </trkpt>
      <trkpt lat="45.07084" lon="6.15905">
        <ele>1384.2</ele>
        <time>2024-08-09T13:42:52Z</time>
      </trkpt>
      <trkpt lat="45.07084" lon="6.15905">
        <ele>1384.4</ele>
        <time>2024-08-09T13:42:53Z</time>
      </trkpt>
      <trkpt lat="45.07082" lon="6.15906">
        <ele>1384.6</ele>
        <time>2024-08-09T13:42:54Z</time>
      </trkpt>
      <trkpt lat="45.07082" lon="6.15906">
        <ele>1384.8</ele>
        <time>2024-08-09T13:42:55Z</time>
      </trkpt>
      <trkpt lat="45.07079" lon="6.15907">
        <ele>1384.8</ele>
        <time>2024-08-09T13:42:56Z</time>
      </trkpt>
      <trkpt lat="45.07079" lon="6.15907">
        <ele>1384.8</ele>
        <time>2024-08-09T13:42:57Z</time>
      </trkpt>
      <trkpt lat="45.07077" lon="6.15908">
        <ele>1385.2</ele>
        <time>2024-08-09T13:42:58Z</time>
      </trkpt>
      <trkpt lat="45.07077" lon="6.15908">
        <ele>1385.4</ele>
        <time>2024-08-09T13:42:59Z</time>
      </trkpt>
      <trkpt lat="45.07076" lon="6.15908">
        <ele>1385.6</ele>
        <time>2024-08-09T13:43:00Z</time>
      </trkpt>
      <trkpt lat="45.07076" lon="6.15908">
        <ele>1385.6</ele>
        <time>2024-08-09T13:43:01Z</time>
      </trkpt>
      <trkpt lat="45.07076" lon="6.15908">
        <ele>1385.6</ele>
        <time>2024-08-09T13:43:02Z</time>
      </trkpt>
      <trkpt lat="45.07073" lon="6.15909">
        <ele>1385.6</ele>
        <time>2024-08-09T13:43:03Z</time>
      </trkpt>
      <trkpt lat="45.07073" lon="6.15909">
        <ele>1386</ele>
        <time>2024-08-09T13:43:04Z</time>
      </trkpt>
      <trkpt lat="45.07073" lon="6.15909">
        <ele>1386.2</ele>
        <time>2024-08-09T13:43:05Z</time>
      </trkpt>
      <trkpt lat="45.07073" lon="6.15909">
        <ele>1386.4</ele>
        <time>2024-08-09T13:43:06Z</time>
      </trkpt>
      <trkpt lat="45.07072" lon="6.1591">
        <ele>1386.6</ele>
        <time>2024-08-09T13:43:07Z</time>
      </trkpt>
      <trkpt lat="45.07072" lon="6.1591">
        <ele>1386.6</ele>
        <time>2024-08-09T13:43:08Z</time>
      </trkpt>
      <trkpt lat="45.07072" lon="6.1591">
        <ele>1386.8</ele>
        <time>2024-08-09T13:43:09Z</time>
      </trkpt>
      <trkpt lat="45.07072" lon="6.1591">
        <ele>1387</ele>
        <time>2024-08-09T13:43:10Z</time>
      </trkpt>
      <trkpt lat="45.07074" lon="6.15912">
        <ele>1387.2</ele>
        <time>2024-08-09T13:43:11Z</time>
      </trkpt>
      <trkpt lat="45.07074" lon="6.15912">
        <ele>1387.4</ele>
        <time>2024-08-09T13:43:12Z</time>
      </trkpt>
      <trkpt lat="45.07077" lon="6.15912">
        <ele>1387.4</ele>
        <time>2024-08-09T13:43:14Z</time>
      </trkpt>
      <trkpt lat="45.07077" lon="6.15912">
        <ele>1387.4</ele>
        <time>2024-08-09T13:43:15Z</time>
      </trkpt>
      <trkpt lat="45.07077" lon="6.15912">
        <ele>1387.4</ele>
        <time>2024-08-09T13:43:16Z</time>
      </trkpt>
      <trkpt lat="45.07077" lon="6.15912">
        <ele>1387.8</ele>
        <time>2024-08-09T13:43:17Z</time>
      </trkpt>
      <trkpt lat="45.07077" lon="6.15912">
        <ele>1388</ele>
        <time>2024-08-09T13:43:18Z</time>
      </trkpt>
      <trkpt lat="45.07077" lon="6.15912">
        <ele>1388</ele>
        <time>2024-08-09T13:43:19Z</time>
      </trkpt>
      <trkpt lat="45.07077" lon="6.15912">
        <ele>1388.2</ele>
        <time>2024-08-09T13:43:20Z</time>
      </trkpt>
      <trkpt lat="45.07079" lon="6.15913">
        <ele>1388.6</ele>
        <time>2024-08-09T13:43:21Z</time>
      </trkpt>
      <trkpt lat="45.07079" lon="6.15913">
        <ele>1389</ele>
        <time>2024-08-09T13:43:22Z</time>
      </trkpt>
      <trkpt lat="45.07081" lon="6.15914">
        <ele>1389</ele>
        <time>2024-08-09T13:43:23Z</time>
      </trkpt>
      <trkpt lat="45.07081" lon="6.15914">
        <ele>1388.8</ele>
        <time>2024-08-09T13:43:24Z</time>
      </trkpt>
      <trkpt lat="45.07084" lon="6.15915">
        <ele>1388.8</ele>
        <time>2024-08-09T13:43:25Z</time>
      </trkpt>
      <trkpt lat="45.07084" lon="6.15915">
        <ele>1389.2</ele>
        <time>2024-08-09T13:43:26Z</time>
      </trkpt>
      <trkpt lat="45.07087" lon="6.15916">
        <ele>1389.6</ele>
        <time>2024-08-09T13:43:27Z</time>
      </trkpt>
      <trkpt lat="45.07087" lon="6.15916">
        <ele>1389.8</ele>
        <time>2024-08-09T13:43:28Z</time>
      </trkpt>
      <trkpt lat="45.07087" lon="6.15916">
        <ele>1389.8</ele>
        <time>2024-08-09T13:43:29Z</time>
      </trkpt>
      <trkpt lat="45.07089" lon="6.15917">
        <ele>1390</ele>
        <time>2024-08-09T13:43:30Z</time>
      </trkpt>
      <trkpt lat="45.07089" lon="6.15917">
        <ele>1390.2</ele>
        <time>2024-08-09T13:43:31Z</time>
      </trkpt>
      <trkpt lat="45.07089" lon="6.15917">
        <ele>1390.4</ele>
        <time>2024-08-09T13:43:32Z</time>
      </trkpt>
      <trkpt lat="45.07091" lon="6.15917">
        <ele>1390.4</ele>
        <time>2024-08-09T13:43:33Z</time>
      </trkpt>
      <trkpt lat="45.07091" lon="6.15917">
        <ele>1390.4</ele>
        <time>2024-08-09T13:43:34Z</time>
      </trkpt>
      <trkpt lat="45.07091" lon="6.15917">
        <ele>1390.4</ele>
        <time>2024-08-09T13:43:35Z</time>
      </trkpt>
      <trkpt lat="45.07093" lon="6.15919">
        <ele>1390.8</ele>
        <time>2024-08-09T13:43:36Z</time>
      </trkpt>
      <trkpt lat="45.07093" lon="6.15919">
        <ele>1391</ele>
        <time>2024-08-09T13:43:37Z</time>
      </trkpt>
      <trkpt lat="45.07093" lon="6.15919">
        <ele>1391.2</ele>
        <time>2024-08-09T13:43:38Z</time>
      </trkpt>
      <trkpt lat="45.07093" lon="6.15922">
        <ele>1391.4</ele>
        <time>2024-08-09T13:43:39Z</time>
      </trkpt>
      <trkpt lat="45.07093" lon="6.15922">
        <ele>1391.4</ele>
        <time>2024-08-09T13:43:40Z</time>
      </trkpt>
      <trkpt lat="45.07092" lon="6.15923">
        <ele>1391.6</ele>
        <time>2024-08-09T13:43:41Z</time>
      </trkpt>
      <trkpt lat="45.07092" lon="6.15923">
        <ele>1391.8</ele>
        <time>2024-08-09T13:43:42Z</time>
      </trkpt>
      <trkpt lat="45.07089" lon="6.15925">
        <ele>1392.2</ele>
        <time>2024-08-09T13:43:43Z</time>
      </trkpt>
      <trkpt lat="45.07089" lon="6.15925">
        <ele>1392.2</ele>
        <time>2024-08-09T13:43:44Z</time>
      </trkpt>
      <trkpt lat="45.07087" lon="6.15926">
        <ele>1392.6</ele>
        <time>2024-08-09T13:43:45Z</time>
      </trkpt>
      <trkpt lat="45.07087" lon="6.15926">
        <ele>1392.6</ele>
        <time>2024-08-09T13:43:46Z</time>
      </trkpt>
      <trkpt lat="45.07087" lon="6.15926">
        <ele>1392.6</ele>
        <time>2024-08-09T13:43:47Z</time>
      </trkpt>
      <trkpt lat="45.07085" lon="6.15926">
        <ele>1392.8</ele>
        <time>2024-08-09T13:43:48Z</time>
      </trkpt>
      <trkpt lat="45.07085" lon="6.15926">
        <ele>1393.2</ele>
        <time>2024-08-09T13:43:49Z</time>
      </trkpt>
      <trkpt lat="45.07085" lon="6.15926">
        <ele>1393.4</ele>
        <time>2024-08-09T13:43:50Z</time>
      </trkpt>
      <trkpt lat="45.07083" lon="6.15927">
        <ele>1393.6</ele>
        <time>2024-08-09T13:43:51Z</time>
      </trkpt>
      <trkpt lat="45.07083" lon="6.15927">
        <ele>1393.8</ele>
        <time>2024-08-09T13:43:52Z</time>
      </trkpt>
      <trkpt lat="45.07083" lon="6.15927">
        <ele>1394</ele>
        <time>2024-08-09T13:43:53Z</time>
      </trkpt>
      <trkpt lat="45.07083" lon="6.15927">
        <ele>1394.4</ele>
        <time>2024-08-09T13:43:54Z</time>
      </trkpt>
      <trkpt lat="45.07081" lon="6.15929">
        <ele>1394.6</ele>
        <time>2024-08-09T13:43:55Z</time>
      </trkpt>
      <trkpt lat="45.07081" lon="6.15929">
        <ele>1394.8</ele>
        <time>2024-08-09T13:43:56Z</time>
      </trkpt>
      <trkpt lat="45.07082" lon="6.15931">
        <ele>1394.8</ele>
        <time>2024-08-09T13:43:57Z</time>
      </trkpt>
      <trkpt lat="45.07082" lon="6.15931">
        <ele>1394.8</ele>
        <time>2024-08-09T13:43:58Z</time>
      </trkpt>
      <trkpt lat="45.07083" lon="6.15934">
        <ele>1394.8</ele>
        <time>2024-08-09T13:43:59Z</time>
      </trkpt>
      <trkpt lat="45.07083" lon="6.15934">
        <ele>1395</ele>
        <time>2024-08-09T13:44:00Z</time>
      </trkpt>
      <trkpt lat="45.07084" lon="6.15936">
        <ele>1395.4</ele>
        <time>2024-08-09T13:44:01Z</time>
      </trkpt>
      <trkpt lat="45.07084" lon="6.15936">
        <ele>1395.6</ele>
        <time>2024-08-09T13:44:02Z</time>
      </trkpt>
      <trkpt lat="45.07085" lon="6.15938">
        <ele>1395.6</ele>
        <time>2024-08-09T13:44:03Z</time>
      </trkpt>
      <trkpt lat="45.07085" lon="6.15938">
        <ele>1395.8</ele>
        <time>2024-08-09T13:44:04Z</time>
      </trkpt>
      <trkpt lat="45.07085" lon="6.15938">
        <ele>1396</ele>
        <time>2024-08-09T13:44:05Z</time>
      </trkpt>
      <trkpt lat="45.07085" lon="6.15941">
        <ele>1396</ele>
        <time>2024-08-09T13:44:06Z</time>
      </trkpt>
      <trkpt lat="45.07085" lon="6.15941">
        <ele>1396.2</ele>
        <time>2024-08-09T13:44:07Z</time>
      </trkpt>
      <trkpt lat="45.07085" lon="6.15941">
        <ele>1396.4</ele>
        <time>2024-08-09T13:44:08Z</time>
      </trkpt>
      <trkpt lat="45.07085" lon="6.15945">
        <ele>1396.8</ele>
        <time>2024-08-09T13:44:09Z</time>
      </trkpt>
      <trkpt lat="45.07085" lon="6.15945">
        <ele>1396.8</ele>
        <time>2024-08-09T13:44:10Z</time>
      </trkpt>
      <trkpt lat="45.07085" lon="6.15945">
        <ele>1396.8</ele>
        <time>2024-08-09T13:44:11Z</time>
      </trkpt>
      <trkpt lat="45.07083" lon="6.15947">
        <ele>1397.4</ele>
        <time>2024-08-09T13:44:12Z</time>
      </trkpt>
      <trkpt lat="45.07083" lon="6.15947">
        <ele>1397.6</ele>
        <time>2024-08-09T13:44:13Z</time>
      </trkpt>
      <trkpt lat="45.07083" lon="6.15947">
        <ele>1397.8</ele>
        <time>2024-08-09T13:44:14Z</time>
      </trkpt>
      <trkpt lat="45.07083" lon="6.15947">
        <ele>1398</ele>
        <time>2024-08-09T13:44:15Z</time>
      </trkpt>
      <trkpt lat="45.0708" lon="6.15946">
        <ele>1398.2</ele>
        <time>2024-08-09T13:44:16Z</time>
      </trkpt>
      <trkpt lat="45.0708" lon="6.15946">
        <ele>1398.2</ele>
        <time>2024-08-09T13:44:17Z</time>
      </trkpt>
      <trkpt lat="45.0708" lon="6.15946">
        <ele>1398.6</ele>
        <time>2024-08-09T13:44:18Z</time>
      </trkpt>
      <trkpt lat="45.07078" lon="6.15944">
        <ele>1399</ele>
        <time>2024-08-09T13:44:19Z</time>
      </trkpt>
      <trkpt lat="45.07078" lon="6.15944">
        <ele>1399</ele>
        <time>2024-08-09T13:44:20Z</time>
      </trkpt>
      <trkpt lat="45.07077" lon="6.15945">
        <ele>1399.2</ele>
        <time>2024-08-09T13:44:21Z</time>
      </trkpt>
      <trkpt lat="45.07077" lon="6.15945">
        <ele>1399.2</ele>
        <time>2024-08-09T13:44:22Z</time>
      </trkpt>
      <trkpt lat="45.07077" lon="6.15945">
        <ele>1399.2</ele>
        <time>2024-08-09T13:44:23Z</time>
      </trkpt>
      <trkpt lat="45.07077" lon="6.15945">
        <ele>1399.6</ele>
        <time>2024-08-09T13:44:24Z</time>
      </trkpt>
      <trkpt lat="45.07077" lon="6.15945">
        <ele>1400</ele>
        <time>2024-08-09T13:44:25Z</time>
      </trkpt>
      <trkpt lat="45.07077" lon="6.15945">
        <ele>1400.2</ele>
        <time>2024-08-09T13:44:26Z</time>
      </trkpt>
      <trkpt lat="45.07077" lon="6.15945">
        <ele>1400.4</ele>
        <time>2024-08-09T13:44:27Z</time>
      </trkpt>
      <trkpt lat="45.07074" lon="6.15945">
        <ele>1400.6</ele>
        <time>2024-08-09T13:44:28Z</time>
      </trkpt>
      <trkpt lat="45.07074" lon="6.15945">
        <ele>1401</ele>
        <time>2024-08-09T13:44:29Z</time>
      </trkpt>
      <trkpt lat="45.07072" lon="6.15945">
        <ele>1401</ele>
        <time>2024-08-09T13:44:30Z</time>
      </trkpt>
      <trkpt lat="45.07072" lon="6.15945">
        <ele>1401.2</ele>
        <time>2024-08-09T13:44:31Z</time>
      </trkpt>
      <trkpt lat="45.07069" lon="6.15945">
        <ele>1401.4</ele>
        <time>2024-08-09T13:44:32Z</time>
      </trkpt>
      <trkpt lat="45.07069" lon="6.15945">
        <ele>1401.4</ele>
        <time>2024-08-09T13:44:33Z</time>
      </trkpt>
      <trkpt lat="45.07069" lon="6.15945">
        <ele>1401.8</ele>
        <time>2024-08-09T13:44:34Z</time>
      </trkpt>
      <trkpt lat="45.07069" lon="6.15945">
        <ele>1401.8</ele>
        <time>2024-08-09T13:44:35Z</time>
      </trkpt>
      <trkpt lat="45.07067" lon="6.15946">
        <ele>1402.2</ele>
        <time>2024-08-09T13:44:36Z</time>
      </trkpt>
      <trkpt lat="45.07067" lon="6.15946">
        <ele>1402.4</ele>
        <time>2024-08-09T13:44:37Z</time>
      </trkpt>
      <trkpt lat="45.07067" lon="6.15946">
        <ele>1402.4</ele>
        <time>2024-08-09T13:44:38Z</time>
      </trkpt>
      <trkpt lat="45.07066" lon="6.15948">
        <ele>1402.4</ele>
        <time>2024-08-09T13:44:39Z</time>
      </trkpt>
      <trkpt lat="45.07066" lon="6.15948">
        <ele>1402.8</ele>
        <time>2024-08-09T13:44:40Z</time>
      </trkpt>
      <trkpt lat="45.07066" lon="6.15948">
        <ele>1403</ele>
        <time>2024-08-09T13:44:41Z</time>
      </trkpt>
      <trkpt lat="45.07064" lon="6.1595">
        <ele>1403.2</ele>
        <time>2024-08-09T13:44:42Z</time>
      </trkpt>
      <trkpt lat="45.07064" lon="6.1595">
        <ele>1403.2</ele>
        <time>2024-08-09T13:44:43Z</time>
      </trkpt>
      <trkpt lat="45.07064" lon="6.1595">
        <ele>1403.6</ele>
        <time>2024-08-09T13:44:44Z</time>
      </trkpt>
      <trkpt lat="45.07063" lon="6.15953">
        <ele>1403.8</ele>
        <time>2024-08-09T13:44:45Z</time>
      </trkpt>
      <trkpt lat="45.07063" lon="6.15953">
        <ele>1404</ele>
        <time>2024-08-09T13:44:46Z</time>
      </trkpt>
      <trkpt lat="45.07063" lon="6.15953">
        <ele>1404.2</ele>
        <time>2024-08-09T13:44:47Z</time>
      </trkpt>
      <trkpt lat="45.07063" lon="6.15953">
        <ele>1404.4</ele>
        <time>2024-08-09T13:44:48Z</time>
      </trkpt>
      <trkpt lat="45.07062" lon="6.15955">
        <ele>1404.4</ele>
        <time>2024-08-09T13:44:49Z</time>
      </trkpt>
      <trkpt lat="45.07062" lon="6.15955">
        <ele>1404.6</ele>
        <time>2024-08-09T13:44:50Z</time>
      </trkpt>
      <trkpt lat="45.07062" lon="6.15955">
        <ele>1405</ele>
        <time>2024-08-09T13:44:51Z</time>
      </trkpt>
      <trkpt lat="45.07062" lon="6.15958">
        <ele>1405.4</ele>
        <time>2024-08-09T13:44:52Z</time>
      </trkpt>
      <trkpt lat="45.07062" lon="6.15958">
        <ele>1405.4</ele>
        <time>2024-08-09T13:44:53Z</time>
      </trkpt>
      <trkpt lat="45.07062" lon="6.15958">
        <ele>1405.4</ele>
        <time>2024-08-09T13:44:54Z</time>
      </trkpt>
      <trkpt lat="45.07062" lon="6.15958">
        <ele>1405.4</ele>
        <time>2024-08-09T13:44:55Z</time>
      </trkpt>
      <trkpt lat="45.07062" lon="6.15958">
        <ele>1405.4</ele>
        <time>2024-08-09T13:44:56Z</time>
      </trkpt>
      <trkpt lat="45.07062" lon="6.15958">
        <ele>1405.4</ele>
        <time>2024-08-09T13:44:57Z</time>
      </trkpt>
      <trkpt lat="45.07063" lon="6.1596">
        <ele>1405.6</ele>
        <time>2024-08-09T13:44:58Z</time>
      </trkpt>
      <trkpt lat="45.07063" lon="6.1596">
        <ele>1405.6</ele>
        <time>2024-08-09T13:44:59Z</time>
      </trkpt>
      <trkpt lat="45.07063" lon="6.1596">
        <ele>1405.8</ele>
        <time>2024-08-09T13:45:00Z</time>
      </trkpt>
      <trkpt lat="45.07063" lon="6.1596">
        <ele>1405.8</ele>
        <time>2024-08-09T13:45:01Z</time>
      </trkpt>
      <trkpt lat="45.07063" lon="6.1596">
        <ele>1406.6</ele>
        <time>2024-08-09T13:45:02Z</time>
      </trkpt>
      <trkpt lat="45.07063" lon="6.1596">
        <ele>1406.6</ele>
        <time>2024-08-09T13:45:03Z</time>
      </trkpt>
      <trkpt lat="45.07063" lon="6.1596">
        <ele>1406.6</ele>
        <time>2024-08-09T13:45:04Z</time>
      </trkpt>
      <trkpt lat="45.07063" lon="6.1596">
        <ele>1406</ele>
        <time>2024-08-09T13:45:05Z</time>
      </trkpt>
      <trkpt lat="45.07063" lon="6.1596">
        <ele>1405.8</ele>
        <time>2024-08-09T13:45:06Z</time>
      </trkpt>
      <trkpt lat="45.07063" lon="6.1596">
        <ele>1405.6</ele>
        <time>2024-08-09T13:45:07Z</time>
      </trkpt>
      <trkpt lat="45.07063" lon="6.1596">
        <ele>1405.6</ele>
        <time>2024-08-09T13:45:08Z</time>
      </trkpt>
      <trkpt lat="45.07063" lon="6.1596">
        <ele>1405.8</ele>
        <time>2024-08-09T13:45:09Z</time>
      </trkpt>
      <trkpt lat="45.07063" lon="6.1596">
        <ele>1405.8</ele>
        <time>2024-08-09T13:45:10Z</time>
      </trkpt>
      <trkpt lat="45.07063" lon="6.1596">
        <ele>1405.8</ele>
        <time>2024-08-09T13:45:11Z</time>
      </trkpt>
      <trkpt lat="45.07063" lon="6.1596">
        <ele>1405.8</ele>
        <time>2024-08-09T13:45:12Z</time>
      </trkpt>
      <trkpt lat="45.07063" lon="6.1596">
        <ele>1406</ele>
        <time>2024-08-09T13:45:13Z</time>
      </trkpt>
      <trkpt lat="45.07063" lon="6.1596">
        <ele>1406</ele>
        <time>2024-08-09T13:45:14Z</time>
      </trkpt>
      <trkpt lat="45.07063" lon="6.1596">
        <ele>1405.8</ele>
        <time>2024-08-09T13:45:15Z</time>
      </trkpt>
      <trkpt lat="45.07063" lon="6.1596">
        <ele>1405.8</ele>
        <time>2024-08-09T13:45:16Z</time>
      </trkpt>
      <trkpt lat="45.07063" lon="6.1596">
        <ele>1405.6</ele>
        <time>2024-08-09T13:45:17Z</time>
      </trkpt>
      <trkpt lat="45.07063" lon="6.1596">
        <ele>1405.6</ele>
        <time>2024-08-09T13:45:18Z</time>
      </trkpt>
      <trkpt lat="45.07063" lon="6.1596">
        <ele>1405.6</ele>
        <time>2024-08-09T13:45:19Z</time>
      </trkpt>
      <trkpt lat="45.07063" lon="6.1596">
        <ele>1405.6</ele>
        <time>2024-08-09T13:45:20Z</time>
      </trkpt>
      <trkpt lat="45.07063" lon="6.1596">
        <ele>1405.6</ele>
        <time>2024-08-09T13:45:21Z</time>
      </trkpt>
      <trkpt lat="45.07063" lon="6.1596">
        <ele>1405.6</ele>
        <time>2024-08-09T13:45:22Z</time>
      </trkpt>
      <trkpt lat="45.07063" lon="6.1596">
        <ele>1405.6</ele>
        <time>2024-08-09T13:45:23Z</time>
      </trkpt>
      <trkpt lat="45.07063" lon="6.1596">
        <ele>1405.8</ele>
        <time>2024-08-09T13:45:24Z</time>
      </trkpt>
      <trkpt lat="45.07063" lon="6.1596">
        <ele>1405.8</ele>
        <time>2024-08-09T13:45:25Z</time>
      </trkpt>
      <trkpt lat="45.07063" lon="6.1596">
        <ele>1406</ele>
        <time>2024-08-09T13:45:26Z</time>
      </trkpt>
      <trkpt lat="45.07063" lon="6.1596">
        <ele>1406</ele>
        <time>2024-08-09T13:45:27Z</time>
      </trkpt>
      <trkpt lat="45.07063" lon="6.1596">
        <ele>1405.8</ele>
        <time>2024-08-09T13:45:28Z</time>
      </trkpt>
      <trkpt lat="45.07063" lon="6.1596">
        <ele>1406</ele>
        <time>2024-08-09T13:45:29Z</time>
      </trkpt>
      <trkpt lat="45.07063" lon="6.1596">
        <ele>1406</ele>
        <time>2024-08-09T13:45:30Z</time>
      </trkpt>
      <trkpt lat="45.07063" lon="6.1596">
        <ele>1406</ele>
        <time>2024-08-09T13:45:31Z</time>
      </trkpt>
      <trkpt lat="45.07063" lon="6.1596">
        <ele>1406</ele>
        <time>2024-08-09T13:45:32Z</time>
      </trkpt>
      <trkpt lat="45.07063" lon="6.1596">
        <ele>1406</ele>
        <time>2024-08-09T13:45:33Z</time>
      </trkpt>
      <trkpt lat="45.07063" lon="6.1596">
        <ele>1406</ele>
        <time>2024-08-09T13:45:34Z</time>
      </trkpt>
      <trkpt lat="45.07063" lon="6.1596">
        <ele>1406.2</ele>
        <time>2024-08-09T13:45:35Z</time>
      </trkpt>
      <trkpt lat="45.07063" lon="6.1596">
        <ele>1406.2</ele>
        <time>2024-08-09T13:45:36Z</time>
      </trkpt>
      <trkpt lat="45.07063" lon="6.1596">
        <ele>1406.2</ele>
        <time>2024-08-09T13:45:37Z</time>
      </trkpt>
      <trkpt lat="45.07063" lon="6.1596">
        <ele>1406.4</ele>
        <time>2024-08-09T13:45:38Z</time>
      </trkpt>
      <trkpt lat="45.07063" lon="6.1596">
        <ele>1406.4</ele>
        <time>2024-08-09T13:45:39Z</time>
      </trkpt>
      <trkpt lat="45.07063" lon="6.1596">
        <ele>1406.4</ele>
        <time>2024-08-09T13:45:40Z</time>
      </trkpt>
      <trkpt lat="45.07063" lon="6.1596">
        <ele>1406.4</ele>
        <time>2024-08-09T13:45:41Z</time>
      </trkpt>
      <trkpt lat="45.07063" lon="6.1596">
        <ele>1406.4</ele>
        <time>2024-08-09T13:45:42Z</time>
      </trkpt>
      <trkpt lat="45.07063" lon="6.1596">
        <ele>1406.4</ele>
        <time>2024-08-09T13:45:43Z</time>
      </trkpt>
      <trkpt lat="45.07063" lon="6.1596">
        <ele>1406.4</ele>
        <time>2024-08-09T13:45:44Z</time>
      </trkpt>
      <trkpt lat="45.07063" lon="6.1596">
        <ele>1406.4</ele>
        <time>2024-08-09T13:45:45Z</time>
      </trkpt>
      <trkpt lat="45.07063" lon="6.1596">
        <ele>1406.4</ele>
        <time>2024-08-09T13:45:46Z</time>
      </trkpt>
      <trkpt lat="45.07063" lon="6.1596">
        <ele>1406.4</ele>
        <time>2024-08-09T13:45:47Z</time>
      </trkpt>
      <trkpt lat="45.07063" lon="6.1596">
        <ele>1406.6</ele>
        <time>2024-08-09T13:45:48Z</time>
      </trkpt>
      <trkpt lat="45.07063" lon="6.1596">
        <ele>1406.6</ele>
        <time>2024-08-09T13:45:49Z</time>
      </trkpt>
      <trkpt lat="45.07063" lon="6.1596">
        <ele>1406.6</ele>
        <time>2024-08-09T13:45:50Z</time>
      </trkpt>
      <trkpt lat="45.07063" lon="6.1596">
        <ele>1406.4</ele>
        <time>2024-08-09T13:45:51Z</time>
      </trkpt>
      <trkpt lat="45.07063" lon="6.1596">
        <ele>1406.4</ele>
        <time>2024-08-09T13:45:52Z</time>
      </trkpt>
      <trkpt lat="45.07063" lon="6.1596">
        <ele>1406.6</ele>
        <time>2024-08-09T13:45:53Z</time>
      </trkpt>
      <trkpt lat="45.07063" lon="6.1596">
        <ele>1406.8</ele>
        <time>2024-08-09T13:45:54Z</time>
      </trkpt>
      <trkpt lat="45.07063" lon="6.1596">
        <ele>1406.8</ele>
        <time>2024-08-09T13:45:55Z</time>
      </trkpt>
      <trkpt lat="45.07063" lon="6.1596">
        <ele>1406.8</ele>
        <time>2024-08-09T13:45:56Z</time>
      </trkpt>
      <trkpt lat="45.07063" lon="6.1596">
        <ele>1406.8</ele>
        <time>2024-08-09T13:45:57Z</time>
      </trkpt>
      <trkpt lat="45.07063" lon="6.1596">
        <ele>1406.8</ele>
        <time>2024-08-09T13:45:58Z</time>
      </trkpt>
      <trkpt lat="45.07063" lon="6.1596">
        <ele>1407</ele>
        <time>2024-08-09T13:45:59Z</time>
      </trkpt>
      <trkpt lat="45.07063" lon="6.1596">
        <ele>1407</ele>
        <time>2024-08-09T13:46:00Z</time>
      </trkpt>
      <trkpt lat="45.07063" lon="6.1596">
        <ele>1406.8</ele>
        <time>2024-08-09T13:46:01Z</time>
      </trkpt>
      <trkpt lat="45.07063" lon="6.1596">
        <ele>1406.8</ele>
        <time>2024-08-09T13:46:02Z</time>
      </trkpt>
      <trkpt lat="45.07063" lon="6.1596">
        <ele>1406.8</ele>
        <time>2024-08-09T13:46:03Z</time>
      </trkpt>
      <trkpt lat="45.07063" lon="6.1596">
        <ele>1406.6</ele>
        <time>2024-08-09T13:46:04Z</time>
      </trkpt>
      <trkpt lat="45.07063" lon="6.1596">
        <ele>1406.6</ele>
        <time>2024-08-09T13:46:05Z</time>
      </trkpt>
      <trkpt lat="45.07063" lon="6.1596">
        <ele>1406.6</ele>
        <time>2024-08-09T13:46:06Z</time>
      </trkpt>
      <trkpt lat="45.07063" lon="6.1596">
        <ele>1406.6</ele>
        <time>2024-08-09T13:46:07Z</time>
      </trkpt>
      <trkpt lat="45.07063" lon="6.1596">
        <ele>1406.8</ele>
        <time>2024-08-09T13:46:08Z</time>
      </trkpt>
      <trkpt lat="45.07063" lon="6.1596">
        <ele>1406.8</ele>
        <time>2024-08-09T13:46:09Z</time>
      </trkpt>
      <trkpt lat="45.07063" lon="6.1596">
        <ele>1406.6</ele>
        <time>2024-08-09T13:46:10Z</time>
      </trkpt>
      <trkpt lat="45.07063" lon="6.1596">
        <ele>1406.6</ele>
        <time>2024-08-09T13:46:11Z</time>
      </trkpt>
      <trkpt lat="45.07063" lon="6.1596">
        <ele>1406.6</ele>
        <time>2024-08-09T13:46:12Z</time>
      </trkpt>
      <trkpt lat="45.07063" lon="6.1596">
        <ele>1406.6</ele>
        <time>2024-08-09T13:46:13Z</time>
      </trkpt>
      <trkpt lat="45.07063" lon="6.1596">
        <ele>1406.4</ele>
        <time>2024-08-09T13:46:14Z</time>
      </trkpt>
      <trkpt lat="45.07063" lon="6.1596">
        <ele>1406.4</ele>
        <time>2024-08-09T13:46:15Z</time>
      </trkpt>
      <trkpt lat="45.07063" lon="6.1596">
        <ele>1406.4</ele>
        <time>2024-08-09T13:46:16Z</time>
      </trkpt>
      <trkpt lat="45.07063" lon="6.1596">
        <ele>1406.4</ele>
        <time>2024-08-09T13:46:17Z</time>
      </trkpt>
      <trkpt lat="45.07063" lon="6.1596">
        <ele>1406.4</ele>
        <time>2024-08-09T13:46:18Z</time>
      </trkpt>
      <trkpt lat="45.07063" lon="6.1596">
        <ele>1406.4</ele>
        <time>2024-08-09T13:46:19Z</time>
      </trkpt>
      <trkpt lat="45.07063" lon="6.1596">
        <ele>1406.4</ele>
        <time>2024-08-09T13:46:20Z</time>
      </trkpt>
      <trkpt lat="45.07063" lon="6.1596">
        <ele>1406.4</ele>
        <time>2024-08-09T13:46:22Z</time>
      </trkpt>
      <trkpt lat="45.07063" lon="6.1596">
        <ele>1406.4</ele>
        <time>2024-08-09T13:46:23Z</time>
      </trkpt>
      <trkpt lat="45.07063" lon="6.1596">
        <ele>1406.4</ele>
        <time>2024-08-09T13:46:24Z</time>
      </trkpt>
      <trkpt lat="45.07063" lon="6.1596">
        <ele>1406.4</ele>
        <time>2024-08-09T13:46:25Z</time>
      </trkpt>
      <trkpt lat="45.07063" lon="6.1596">
        <ele>1406.2</ele>
        <time>2024-08-09T13:46:26Z</time>
      </trkpt>
      <trkpt lat="45.07063" lon="6.1596">
        <ele>1406.4</ele>
        <time>2024-08-09T13:46:27Z</time>
      </trkpt>
      <trkpt lat="45.07063" lon="6.1596">
        <ele>1406.2</ele>
        <time>2024-08-09T13:46:28Z</time>
      </trkpt>
      <trkpt lat="45.07063" lon="6.1596">
        <ele>1406.4</ele>
        <time>2024-08-09T13:46:29Z</time>
      </trkpt>
      <trkpt lat="45.07063" lon="6.1596">
        <ele>1406.2</ele>
        <time>2024-08-09T13:46:30Z</time>
      </trkpt>
      <trkpt lat="45.07063" lon="6.1596">
        <ele>1406.2</ele>
        <time>2024-08-09T13:46:31Z</time>
      </trkpt>
      <trkpt lat="45.07063" lon="6.1596">
        <ele>1406.2</ele>
        <time>2024-08-09T13:46:32Z</time>
      </trkpt>
      <trkpt lat="45.07063" lon="6.1596">
        <ele>1406.2</ele>
        <time>2024-08-09T13:46:33Z</time>
      </trkpt>
      <trkpt lat="45.07063" lon="6.1596">
        <ele>1406.2</ele>
        <time>2024-08-09T13:46:34Z</time>
      </trkpt>
      <trkpt lat="45.07063" lon="6.1596">
        <ele>1406.2</ele>
        <time>2024-08-09T13:46:35Z</time>
      </trkpt>
      <trkpt lat="45.07063" lon="6.1596">
        <ele>1406</ele>
        <time>2024-08-09T13:46:36Z</time>
      </trkpt>
      <trkpt lat="45.07063" lon="6.1596">
        <ele>1406</ele>
        <time>2024-08-09T13:46:37Z</time>
      </trkpt>
      <trkpt lat="45.07063" lon="6.1596">
        <ele>1406</ele>
        <time>2024-08-09T13:46:38Z</time>
      </trkpt>
      <trkpt lat="45.07063" lon="6.1596">
        <ele>1406</ele>
        <time>2024-08-09T13:46:39Z</time>
      </trkpt>
      <trkpt lat="45.07063" lon="6.1596">
        <ele>1406</ele>
        <time>2024-08-09T13:46:40Z</time>
      </trkpt>
      <trkpt lat="45.07063" lon="6.1596">
        <ele>1406.2</ele>
        <time>2024-08-09T13:46:41Z</time>
      </trkpt>
      <trkpt lat="45.07063" lon="6.1596">
        <ele>1406</ele>
        <time>2024-08-09T13:46:42Z</time>
      </trkpt>
      <trkpt lat="45.07063" lon="6.1596">
        <ele>1406</ele>
        <time>2024-08-09T13:46:43Z</time>
      </trkpt>
      <trkpt lat="45.07063" lon="6.1596">
        <ele>1406</ele>
        <time>2024-08-09T13:46:44Z</time>
      </trkpt>
      <trkpt lat="45.07063" lon="6.1596">
        <ele>1406</ele>
        <time>2024-08-09T13:46:45Z</time>
      </trkpt>
      <trkpt lat="45.07063" lon="6.1596">
        <ele>1406</ele>
        <time>2024-08-09T13:46:46Z</time>
      </trkpt>
      <trkpt lat="45.07063" lon="6.1596">
        <ele>1406</ele>
        <time>2024-08-09T13:46:47Z</time>
      </trkpt>
      <trkpt lat="45.07063" lon="6.1596">
        <ele>1406</ele>
        <time>2024-08-09T13:46:48Z</time>
      </trkpt>
      <trkpt lat="45.07063" lon="6.1596">
        <ele>1406</ele>
        <time>2024-08-09T13:46:49Z</time>
      </trkpt>
      <trkpt lat="45.07063" lon="6.1596">
        <ele>1406</ele>
        <time>2024-08-09T13:46:50Z</time>
      </trkpt>
      <trkpt lat="45.07063" lon="6.1596">
        <ele>1406</ele>
        <time>2024-08-09T13:46:51Z</time>
      </trkpt>
      <trkpt lat="45.07063" lon="6.1596">
        <ele>1406</ele>
        <time>2024-08-09T13:46:52Z</time>
      </trkpt>
      <trkpt lat="45.07063" lon="6.1596">
        <ele>1406.2</ele>
        <time>2024-08-09T13:46:53Z</time>
      </trkpt>
      <trkpt lat="45.07063" lon="6.1596">
        <ele>1406.2</ele>
        <time>2024-08-09T13:46:54Z</time>
      </trkpt>
      <trkpt lat="45.07063" lon="6.1596">
        <ele>1406.2</ele>
        <time>2024-08-09T13:46:55Z</time>
      </trkpt>
      <trkpt lat="45.07063" lon="6.1596">
        <ele>1406.2</ele>
        <time>2024-08-09T13:46:56Z</time>
      </trkpt>
      <trkpt lat="45.07063" lon="6.1596">
        <ele>1406</ele>
        <time>2024-08-09T13:46:57Z</time>
      </trkpt>
      <trkpt lat="45.07063" lon="6.1596">
        <ele>1406</ele>
        <time>2024-08-09T13:46:58Z</time>
      </trkpt>
      <trkpt lat="45.07063" lon="6.1596">
        <ele>1406</ele>
        <time>2024-08-09T13:46:59Z</time>
      </trkpt>
      <trkpt lat="45.07063" lon="6.1596">
        <ele>1406</ele>
        <time>2024-08-09T13:47:00Z</time>
      </trkpt>
      <trkpt lat="45.07063" lon="6.1596">
        <ele>1406.2</ele>
        <time>2024-08-09T13:47:01Z</time>
      </trkpt>
      <trkpt lat="45.07063" lon="6.1596">
        <ele>1406.4</ele>
        <time>2024-08-09T13:47:02Z</time>
      </trkpt>
      <trkpt lat="45.07063" lon="6.1596">
        <ele>1406.4</ele>
        <time>2024-08-09T13:47:03Z</time>
      </trkpt>
      <trkpt lat="45.07063" lon="6.1596">
        <ele>1406.4</ele>
        <time>2024-08-09T13:47:04Z</time>
      </trkpt>
      <trkpt lat="45.07063" lon="6.1596">
        <ele>1406.4</ele>
        <time>2024-08-09T13:47:05Z</time>
      </trkpt>
      <trkpt lat="45.07063" lon="6.1596">
        <ele>1406.2</ele>
        <time>2024-08-09T13:47:06Z</time>
      </trkpt>
      <trkpt lat="45.07063" lon="6.1596">
        <ele>1406.2</ele>
        <time>2024-08-09T13:47:07Z</time>
      </trkpt>
      <trkpt lat="45.07063" lon="6.1596">
        <ele>1406.4</ele>
        <time>2024-08-09T13:47:08Z</time>
      </trkpt>
      <trkpt lat="45.07063" lon="6.1596">
        <ele>1406.4</ele>
        <time>2024-08-09T13:47:09Z</time>
      </trkpt>
      <trkpt lat="45.07063" lon="6.1596">
        <ele>1406.4</ele>
        <time>2024-08-09T13:47:10Z</time>
      </trkpt>
      <trkpt lat="45.07063" lon="6.1596">
        <ele>1406.6</ele>
        <time>2024-08-09T13:47:11Z</time>
      </trkpt>
      <trkpt lat="45.07063" lon="6.1596">
        <ele>1406.6</ele>
        <time>2024-08-09T13:47:12Z</time>
      </trkpt>
      <trkpt lat="45.07063" lon="6.1596">
        <ele>1406.6</ele>
        <time>2024-08-09T13:47:13Z</time>
      </trkpt>
      <trkpt lat="45.07063" lon="6.1596">
        <ele>1406.8</ele>
        <time>2024-08-09T13:47:14Z</time>
      </trkpt>
      <trkpt lat="45.07063" lon="6.1596">
        <ele>1406.8</ele>
        <time>2024-08-09T13:47:15Z</time>
      </trkpt>
      <trkpt lat="45.07063" lon="6.1596">
        <ele>1406.8</ele>
        <time>2024-08-09T13:47:16Z</time>
      </trkpt>
      <trkpt lat="45.07063" lon="6.1596">
        <ele>1406.8</ele>
        <time>2024-08-09T13:47:17Z</time>
      </trkpt>
      <trkpt lat="45.07063" lon="6.1596">
        <ele>1406.8</ele>
        <time>2024-08-09T13:47:18Z</time>
      </trkpt>
      <trkpt lat="45.07063" lon="6.1596">
        <ele>1406.8</ele>
        <time>2024-08-09T13:47:19Z</time>
      </trkpt>
      <trkpt lat="45.07063" lon="6.1596">
        <ele>1406.8</ele>
        <time>2024-08-09T13:47:20Z</time>
      </trkpt>
      <trkpt lat="45.07063" lon="6.1596">
        <ele>1406.8</ele>
        <time>2024-08-09T13:47:21Z</time>
      </trkpt>
      <trkpt lat="45.07063" lon="6.1596">
        <ele>1406.8</ele>
        <time>2024-08-09T13:47:22Z</time>
      </trkpt>
      <trkpt lat="45.07063" lon="6.1596">
        <ele>1406.8</ele>
        <time>2024-08-09T13:47:23Z</time>
      </trkpt>
      <trkpt lat="45.07065" lon="6.15962">
        <ele>1406.8</ele>
        <time>2024-08-09T13:47:24Z</time>
      </trkpt>
      <trkpt lat="45.07065" lon="6.15962">
        <ele>1406.8</ele>
        <time>2024-08-09T13:47:25Z</time>
      </trkpt>
      <trkpt lat="45.07065" lon="6.15962">
        <ele>1406.8</ele>
        <time>2024-08-09T13:47:26Z</time>
      </trkpt>
      <trkpt lat="45.07065" lon="6.15962">
        <ele>1406.8</ele>
        <time>2024-08-09T13:47:27Z</time>
      </trkpt>
      <trkpt lat="45.07065" lon="6.15962">
        <ele>1406.8</ele>
        <time>2024-08-09T13:47:28Z</time>
      </trkpt>
      <trkpt lat="45.07065" lon="6.15962">
        <ele>1406.8</ele>
        <time>2024-08-09T13:47:29Z</time>
      </trkpt>
      <trkpt lat="45.07065" lon="6.15962">
        <ele>1406.6</ele>
        <time>2024-08-09T13:47:30Z</time>
      </trkpt>
      <trkpt lat="45.07065" lon="6.15962">
        <ele>1406.6</ele>
        <time>2024-08-09T13:47:31Z</time>
      </trkpt>
      <trkpt lat="45.07065" lon="6.15962">
        <ele>1406.6</ele>
        <time>2024-08-09T13:47:32Z</time>
      </trkpt>
      <trkpt lat="45.07065" lon="6.15962">
        <ele>1406.8</ele>
        <time>2024-08-09T13:47:33Z</time>
      </trkpt>
      <trkpt lat="45.07065" lon="6.15962">
        <ele>1407</ele>
        <time>2024-08-09T13:47:34Z</time>
      </trkpt>
      <trkpt lat="45.07065" lon="6.15962">
        <ele>1407</ele>
        <time>2024-08-09T13:47:35Z</time>
      </trkpt>
      <trkpt lat="45.07065" lon="6.15962">
        <ele>1407</ele>
        <time>2024-08-09T13:47:36Z</time>
      </trkpt>
      <trkpt lat="45.07065" lon="6.15962">
        <ele>1407</ele>
        <time>2024-08-09T13:47:37Z</time>
      </trkpt>
      <trkpt lat="45.07065" lon="6.15962">
        <ele>1407.2</ele>
        <time>2024-08-09T13:47:38Z</time>
      </trkpt>
      <trkpt lat="45.07065" lon="6.15962">
        <ele>1407.2</ele>
        <time>2024-08-09T13:47:39Z</time>
      </trkpt>
      <trkpt lat="45.07065" lon="6.15962">
        <ele>1407.2</ele>
        <time>2024-08-09T13:47:40Z</time>
      </trkpt>
      <trkpt lat="45.07067" lon="6.15962">
        <ele>1407.4</ele>
        <time>2024-08-09T13:47:41Z</time>
      </trkpt>
      <trkpt lat="45.07067" lon="6.15962">
        <ele>1407.8</ele>
        <time>2024-08-09T13:47:42Z</time>
      </trkpt>
      <trkpt lat="45.07067" lon="6.15962">
        <ele>1408</ele>
        <time>2024-08-09T13:47:43Z</time>
      </trkpt>
      <trkpt lat="45.07067" lon="6.15962">
        <ele>1408</ele>
        <time>2024-08-09T13:47:44Z</time>
      </trkpt>
      <trkpt lat="45.07069" lon="6.15965">
        <ele>1408.2</ele>
        <time>2024-08-09T13:47:45Z</time>
      </trkpt>
      <trkpt lat="45.07069" lon="6.15965">
        <ele>1408.2</ele>
        <time>2024-08-09T13:47:46Z</time>
      </trkpt>
      <trkpt lat="45.0707" lon="6.15967">
        <ele>1408.4</ele>
        <time>2024-08-09T13:47:47Z</time>
      </trkpt>
      <trkpt lat="45.07072" lon="6.15969">
        <ele>1408.6</ele>
        <time>2024-08-09T13:47:48Z</time>
      </trkpt>
      <trkpt lat="45.07072" lon="6.15969">
        <ele>1408.8</ele>
        <time>2024-08-09T13:47:49Z</time>
      </trkpt>
      <trkpt lat="45.07073" lon="6.15971">
        <ele>1408.8</ele>
        <time>2024-08-09T13:47:50Z</time>
      </trkpt>
      <trkpt lat="45.07073" lon="6.15971">
        <ele>1409.2</ele>
        <time>2024-08-09T13:47:51Z</time>
      </trkpt>
      <trkpt lat="45.07073" lon="6.15971">
        <ele>1409.4</ele>
        <time>2024-08-09T13:47:52Z</time>
      </trkpt>
      <trkpt lat="45.07074" lon="6.15974">
        <ele>1409.4</ele>
        <time>2024-08-09T13:47:53Z</time>
      </trkpt>
      <trkpt lat="45.07074" lon="6.15974">
        <ele>1409.8</ele>
        <time>2024-08-09T13:47:54Z</time>
      </trkpt>
      <trkpt lat="45.07074" lon="6.15974">
        <ele>1409.8</ele>
        <time>2024-08-09T13:47:55Z</time>
      </trkpt>
      <trkpt lat="45.07074" lon="6.15974">
        <ele>1410</ele>
        <time>2024-08-09T13:47:56Z</time>
      </trkpt>
      <trkpt lat="45.07074" lon="6.15974">
        <ele>1410.2</ele>
        <time>2024-08-09T13:47:57Z</time>
      </trkpt>
      <trkpt lat="45.07074" lon="6.15974">
        <ele>1410.4</ele>
        <time>2024-08-09T13:47:58Z</time>
      </trkpt>
      <trkpt lat="45.07077" lon="6.15976">
        <ele>1410.6</ele>
        <time>2024-08-09T13:47:59Z</time>
      </trkpt>
      <trkpt lat="45.07077" lon="6.15976">
        <ele>1410.8</ele>
        <time>2024-08-09T13:48:00Z</time>
      </trkpt>
      <trkpt lat="45.07077" lon="6.15976">
        <ele>1411</ele>
        <time>2024-08-09T13:48:01Z</time>
      </trkpt>
      <trkpt lat="45.07077" lon="6.15976">
        <ele>1411.4</ele>
        <time>2024-08-09T13:48:02Z</time>
      </trkpt>
      <trkpt lat="45.07078" lon="6.15978">
        <ele>1411.4</ele>
        <time>2024-08-09T13:48:03Z</time>
      </trkpt>
      <trkpt lat="45.07078" lon="6.15978">
        <ele>1411.8</ele>
        <time>2024-08-09T13:48:04Z</time>
      </trkpt>
      <trkpt lat="45.07079" lon="6.15981">
        <ele>1412</ele>
        <time>2024-08-09T13:48:05Z</time>
      </trkpt>
      <trkpt lat="45.07079" lon="6.15981">
        <ele>1412.2</ele>
        <time>2024-08-09T13:48:06Z</time>
      </trkpt>
      <trkpt lat="45.07079" lon="6.15981">
        <ele>1412.2</ele>
        <time>2024-08-09T13:48:07Z</time>
      </trkpt>
      <trkpt lat="45.07079" lon="6.15981">
        <ele>1412.2</ele>
        <time>2024-08-09T13:48:08Z</time>
      </trkpt>
      <trkpt lat="45.0708" lon="6.15983">
        <ele>1412.6</ele>
        <time>2024-08-09T13:48:09Z</time>
      </trkpt>
      <trkpt lat="45.0708" lon="6.15983">
        <ele>1412.6</ele>
        <time>2024-08-09T13:48:10Z</time>
      </trkpt>
      <trkpt lat="45.0708" lon="6.15983">
        <ele>1412.6</ele>
        <time>2024-08-09T13:48:11Z</time>
      </trkpt>
      <trkpt lat="45.07082" lon="6.15985">
        <ele>1413</ele>
        <time>2024-08-09T13:48:12Z</time>
      </trkpt>
      <trkpt lat="45.07082" lon="6.15985">
        <ele>1413</ele>
        <time>2024-08-09T13:48:13Z</time>
      </trkpt>
      <trkpt lat="45.07082" lon="6.15985">
        <ele>1413.4</ele>
        <time>2024-08-09T13:48:14Z</time>
      </trkpt>
      <trkpt lat="45.07082" lon="6.15985">
        <ele>1413.6</ele>
        <time>2024-08-09T13:48:15Z</time>
      </trkpt>
      <trkpt lat="45.07083" lon="6.15988">
        <ele>1413.6</ele>
        <time>2024-08-09T13:48:16Z</time>
      </trkpt>
      <trkpt lat="45.07083" lon="6.15988">
        <ele>1413.8</ele>
        <time>2024-08-09T13:48:17Z</time>
      </trkpt>
      <trkpt lat="45.07083" lon="6.15988">
        <ele>1414</ele>
        <time>2024-08-09T13:48:18Z</time>
      </trkpt>
      <trkpt lat="45.07083" lon="6.15988">
        <ele>1414.4</ele>
        <time>2024-08-09T13:48:19Z</time>
      </trkpt>
      <trkpt lat="45.07084" lon="6.1599">
        <ele>1414.6</ele>
        <time>2024-08-09T13:48:20Z</time>
      </trkpt>
      <trkpt lat="45.07084" lon="6.1599">
        <ele>1414.8</ele>
        <time>2024-08-09T13:48:21Z</time>
      </trkpt>
      <trkpt lat="45.07084" lon="6.1599">
        <ele>1415</ele>
        <time>2024-08-09T13:48:22Z</time>
      </trkpt>
      <trkpt lat="45.07084" lon="6.1599">
        <ele>1415.2</ele>
        <time>2024-08-09T13:48:23Z</time>
      </trkpt>
      <trkpt lat="45.07085" lon="6.15993">
        <ele>1415.4</ele>
        <time>2024-08-09T13:48:24Z</time>
      </trkpt>
      <trkpt lat="45.07085" lon="6.15993">
        <ele>1415.6</ele>
        <time>2024-08-09T13:48:25Z</time>
      </trkpt>
      <trkpt lat="45.07085" lon="6.15993">
        <ele>1415.6</ele>
        <time>2024-08-09T13:48:26Z</time>
      </trkpt>
      <trkpt lat="45.07087" lon="6.15993">
        <ele>1415.8</ele>
        <time>2024-08-09T13:48:27Z</time>
      </trkpt>
      <trkpt lat="45.07087" lon="6.15993">
        <ele>1415.8</ele>
        <time>2024-08-09T13:48:28Z</time>
      </trkpt>
      <trkpt lat="45.07087" lon="6.15993">
        <ele>1416</ele>
        <time>2024-08-09T13:48:29Z</time>
      </trkpt>
      <trkpt lat="45.07088" lon="6.15996">
        <ele>1416</ele>
        <time>2024-08-09T13:48:30Z</time>
      </trkpt>
      <trkpt lat="45.07088" lon="6.15996">
        <ele>1416</ele>
        <time>2024-08-09T13:48:31Z</time>
      </trkpt>
      <trkpt lat="45.07088" lon="6.15996">
        <ele>1416.2</ele>
        <time>2024-08-09T13:48:32Z</time>
      </trkpt>
      <trkpt lat="45.07087" lon="6.15998">
        <ele>1416.4</ele>
        <time>2024-08-09T13:48:33Z</time>
      </trkpt>
      <trkpt lat="45.07087" lon="6.15998">
        <ele>1416.6</ele>
        <time>2024-08-09T13:48:34Z</time>
      </trkpt>
      <trkpt lat="45.07086" lon="6.16001">
        <ele>1416.8</ele>
        <time>2024-08-09T13:48:35Z</time>
      </trkpt>
      <trkpt lat="45.07086" lon="6.16001">
        <ele>1417.2</ele>
        <time>2024-08-09T13:48:36Z</time>
      </trkpt>
      <trkpt lat="45.07086" lon="6.16001">
        <ele>1417.4</ele>
        <time>2024-08-09T13:48:37Z</time>
      </trkpt>
      <trkpt lat="45.07086" lon="6.16001">
        <ele>1417.4</ele>
        <time>2024-08-09T13:48:38Z</time>
      </trkpt>
      <trkpt lat="45.07086" lon="6.16004">
        <ele>1417.4</ele>
        <time>2024-08-09T13:48:39Z</time>
      </trkpt>
      <trkpt lat="45.07086" lon="6.16004">
        <ele>1417.6</ele>
        <time>2024-08-09T13:48:40Z</time>
      </trkpt>
      <trkpt lat="45.07086" lon="6.16004">
        <ele>1418.2</ele>
        <time>2024-08-09T13:48:41Z</time>
      </trkpt>
      <trkpt lat="45.07085" lon="6.16006">
        <ele>1418.4</ele>
        <time>2024-08-09T13:48:42Z</time>
      </trkpt>
      <trkpt lat="45.07085" lon="6.16006">
        <ele>1418.4</ele>
        <time>2024-08-09T13:48:43Z</time>
      </trkpt>
      <trkpt lat="45.07085" lon="6.16006">
        <ele>1418.6</ele>
        <time>2024-08-09T13:48:44Z</time>
      </trkpt>
      <trkpt lat="45.07085" lon="6.16006">
        <ele>1418.8</ele>
        <time>2024-08-09T13:48:45Z</time>
      </trkpt>
      <trkpt lat="45.07085" lon="6.16009">
        <ele>1419</ele>
        <time>2024-08-09T13:48:46Z</time>
      </trkpt>
      <trkpt lat="45.07085" lon="6.16009">
        <ele>1419</ele>
        <time>2024-08-09T13:48:47Z</time>
      </trkpt>
      <trkpt lat="45.07085" lon="6.16009">
        <ele>1419</ele>
        <time>2024-08-09T13:48:48Z</time>
      </trkpt>
      <trkpt lat="45.07085" lon="6.16012">
        <ele>1419.4</ele>
        <time>2024-08-09T13:48:49Z</time>
      </trkpt>
      <trkpt lat="45.07085" lon="6.16012">
        <ele>1419.4</ele>
        <time>2024-08-09T13:48:50Z</time>
      </trkpt>
      <trkpt lat="45.07085" lon="6.16012">
        <ele>1419.6</ele>
        <time>2024-08-09T13:48:51Z</time>
      </trkpt>
      <trkpt lat="45.07086" lon="6.16015">
        <ele>1419.6</ele>
        <time>2024-08-09T13:48:52Z</time>
      </trkpt>
      <trkpt lat="45.07086" lon="6.16015">
        <ele>1419.8</ele>
        <time>2024-08-09T13:48:53Z</time>
      </trkpt>
      <trkpt lat="45.07086" lon="6.16015">
        <ele>1419.8</ele>
        <time>2024-08-09T13:48:54Z</time>
      </trkpt>
      <trkpt lat="45.07087" lon="6.16017">
        <ele>1419.8</ele>
        <time>2024-08-09T13:48:55Z</time>
      </trkpt>
      <trkpt lat="45.07087" lon="6.16017">
        <ele>1420</ele>
        <time>2024-08-09T13:48:56Z</time>
      </trkpt>
      <trkpt lat="45.07087" lon="6.16017">
        <ele>1420.4</ele>
        <time>2024-08-09T13:48:57Z</time>
      </trkpt>
      <trkpt lat="45.07088" lon="6.1602">
        <ele>1420.8</ele>
        <time>2024-08-09T13:48:58Z</time>
      </trkpt>
      <trkpt lat="45.07088" lon="6.1602">
        <ele>1421</ele>
        <time>2024-08-09T13:48:59Z</time>
      </trkpt>
      <trkpt lat="45.07088" lon="6.1602">
        <ele>1421</ele>
        <time>2024-08-09T13:49:00Z</time>
      </trkpt>
      <trkpt lat="45.07088" lon="6.1602">
        <ele>1421.4</ele>
        <time>2024-08-09T13:49:01Z</time>
      </trkpt>
      <trkpt lat="45.07088" lon="6.1602">
        <ele>1421.6</ele>
        <time>2024-08-09T13:49:02Z</time>
      </trkpt>
      <trkpt lat="45.07088" lon="6.16023">
        <ele>1421.6</ele>
        <time>2024-08-09T13:49:03Z</time>
      </trkpt>
      <trkpt lat="45.07088" lon="6.16023">
        <ele>1421.6</ele>
        <time>2024-08-09T13:49:04Z</time>
      </trkpt>
      <trkpt lat="45.07088" lon="6.16023">
        <ele>1422</ele>
        <time>2024-08-09T13:49:05Z</time>
      </trkpt>
      <trkpt lat="45.07088" lon="6.16023">
        <ele>1422</ele>
        <time>2024-08-09T13:49:06Z</time>
      </trkpt>
      <trkpt lat="45.07088" lon="6.16023">
        <ele>1422.2</ele>
        <time>2024-08-09T13:49:07Z</time>
      </trkpt>
      <trkpt lat="45.07088" lon="6.16023">
        <ele>1422.2</ele>
        <time>2024-08-09T13:49:08Z</time>
      </trkpt>
      <trkpt lat="45.07086" lon="6.16024">
        <ele>1422.4</ele>
        <time>2024-08-09T13:49:09Z</time>
      </trkpt>
      <trkpt lat="45.07086" lon="6.16024">
        <ele>1422.6</ele>
        <time>2024-08-09T13:49:10Z</time>
      </trkpt>
      <trkpt lat="45.07086" lon="6.16024">
        <ele>1423</ele>
        <time>2024-08-09T13:49:11Z</time>
      </trkpt>
      <trkpt lat="45.07084" lon="6.16023">
        <ele>1423</ele>
        <time>2024-08-09T13:49:12Z</time>
      </trkpt>
      <trkpt lat="45.07084" lon="6.16023">
        <ele>1423.2</ele>
        <time>2024-08-09T13:49:13Z</time>
      </trkpt>
      <trkpt lat="45.07084" lon="6.16023">
        <ele>1423.2</ele>
        <time>2024-08-09T13:49:14Z</time>
      </trkpt>
      <trkpt lat="45.07084" lon="6.16023">
        <ele>1423.4</ele>
        <time>2024-08-09T13:49:15Z</time>
      </trkpt>
      <trkpt lat="45.07082" lon="6.16022">
        <ele>1423.8</ele>
        <time>2024-08-09T13:49:16Z</time>
      </trkpt>
      <trkpt lat="45.07082" lon="6.16022">
        <ele>1424</ele>
        <time>2024-08-09T13:49:17Z</time>
      </trkpt>
      <trkpt lat="45.07082" lon="6.16022">
        <ele>1424.2</ele>
        <time>2024-08-09T13:49:18Z</time>
      </trkpt>
      <trkpt lat="45.0708" lon="6.16019">
        <ele>1424.2</ele>
        <time>2024-08-09T13:49:19Z</time>
      </trkpt>
      <trkpt lat="45.0708" lon="6.16019">
        <ele>1424.6</ele>
        <time>2024-08-09T13:49:20Z</time>
      </trkpt>
      <trkpt lat="45.07078" lon="6.16019">
        <ele>1424.6</ele>
        <time>2024-08-09T13:49:21Z</time>
      </trkpt>
      <trkpt lat="45.07078" lon="6.16019">
        <ele>1424.6</ele>
        <time>2024-08-09T13:49:22Z</time>
      </trkpt>
      <trkpt lat="45.07078" lon="6.16019">
        <ele>1424.6</ele>
        <time>2024-08-09T13:49:23Z</time>
      </trkpt>
      <trkpt lat="45.07078" lon="6.16022">
        <ele>1424.8</ele>
        <time>2024-08-09T13:49:24Z</time>
      </trkpt>
      <trkpt lat="45.07078" lon="6.16022">
        <ele>1425</ele>
        <time>2024-08-09T13:49:25Z</time>
      </trkpt>
      <trkpt lat="45.07078" lon="6.16022">
        <ele>1425.2</ele>
        <time>2024-08-09T13:49:26Z</time>
      </trkpt>
      <trkpt lat="45.07079" lon="6.16025">
        <ele>1425.4</ele>
        <time>2024-08-09T13:49:27Z</time>
      </trkpt>
      <trkpt lat="45.07079" lon="6.16025">
        <ele>1425.6</ele>
        <time>2024-08-09T13:49:28Z</time>
      </trkpt>
      <trkpt lat="45.07079" lon="6.16025">
        <ele>1425.6</ele>
        <time>2024-08-09T13:49:29Z</time>
      </trkpt>
      <trkpt lat="45.07079" lon="6.16025">
        <ele>1425.8</ele>
        <time>2024-08-09T13:49:30Z</time>
      </trkpt>
      <trkpt lat="45.07079" lon="6.16028">
        <ele>1426</ele>
        <time>2024-08-09T13:49:31Z</time>
      </trkpt>
      <trkpt lat="45.07079" lon="6.16028">
        <ele>1426.2</ele>
        <time>2024-08-09T13:49:32Z</time>
      </trkpt>
      <trkpt lat="45.07079" lon="6.16028">
        <ele>1426.4</ele>
        <time>2024-08-09T13:49:33Z</time>
      </trkpt>
      <trkpt lat="45.07079" lon="6.16031">
        <ele>1426.6</ele>
        <time>2024-08-09T13:49:34Z</time>
      </trkpt>
      <trkpt lat="45.07079" lon="6.16031">
        <ele>1427</ele>
        <time>2024-08-09T13:49:35Z</time>
      </trkpt>
      <trkpt lat="45.07079" lon="6.16034">
        <ele>1427.2</ele>
        <time>2024-08-09T13:49:36Z</time>
      </trkpt>
      <trkpt lat="45.07079" lon="6.16034">
        <ele>1427.4</ele>
        <time>2024-08-09T13:49:37Z</time>
      </trkpt>
      <trkpt lat="45.07079" lon="6.16037">
        <ele>1427.6</ele>
        <time>2024-08-09T13:49:38Z</time>
      </trkpt>
      <trkpt lat="45.07079" lon="6.16037">
        <ele>1427.8</ele>
        <time>2024-08-09T13:49:39Z</time>
      </trkpt>
      <trkpt lat="45.07078" lon="6.16039">
        <ele>1427.8</ele>
        <time>2024-08-09T13:49:40Z</time>
      </trkpt>
      <trkpt lat="45.07078" lon="6.16039">
        <ele>1427.8</ele>
        <time>2024-08-09T13:49:41Z</time>
      </trkpt>
      <trkpt lat="45.07078" lon="6.16042">
        <ele>1428.2</ele>
        <time>2024-08-09T13:49:42Z</time>
      </trkpt>
      <trkpt lat="45.07078" lon="6.16042">
        <ele>1428.4</ele>
        <time>2024-08-09T13:49:43Z</time>
      </trkpt>
      <trkpt lat="45.07078" lon="6.16045">
        <ele>1428.4</ele>
        <time>2024-08-09T13:49:44Z</time>
      </trkpt>
      <trkpt lat="45.07078" lon="6.16045">
        <ele>1428.4</ele>
        <time>2024-08-09T13:49:45Z</time>
      </trkpt>
      <trkpt lat="45.07078" lon="6.16045">
        <ele>1428.6</ele>
        <time>2024-08-09T13:49:46Z</time>
      </trkpt>
      <trkpt lat="45.07078" lon="6.16049">
        <ele>1428.8</ele>
        <time>2024-08-09T13:49:47Z</time>
      </trkpt>
      <trkpt lat="45.07078" lon="6.16049">
        <ele>1429</ele>
        <time>2024-08-09T13:49:48Z</time>
      </trkpt>
      <trkpt lat="45.07078" lon="6.16049">
        <ele>1429.2</ele>
        <time>2024-08-09T13:49:49Z</time>
      </trkpt>
      <trkpt lat="45.07078" lon="6.16049">
        <ele>1429.4</ele>
        <time>2024-08-09T13:49:50Z</time>
      </trkpt>
      <trkpt lat="45.07077" lon="6.16052">
        <ele>1429.6</ele>
        <time>2024-08-09T13:49:51Z</time>
      </trkpt>
      <trkpt lat="45.07077" lon="6.16052">
        <ele>1429.8</ele>
        <time>2024-08-09T13:49:52Z</time>
      </trkpt>
      <trkpt lat="45.07077" lon="6.16052">
        <ele>1430</ele>
        <time>2024-08-09T13:49:53Z</time>
      </trkpt>
      <trkpt lat="45.07077" lon="6.16055">
        <ele>1430.2</ele>
        <time>2024-08-09T13:49:54Z</time>
      </trkpt>
      <trkpt lat="45.07077" lon="6.16055">
        <ele>1430.4</ele>
        <time>2024-08-09T13:49:55Z</time>
      </trkpt>
      <trkpt lat="45.07077" lon="6.16055">
        <ele>1431</ele>
        <time>2024-08-09T13:49:56Z</time>
      </trkpt>
      <trkpt lat="45.07077" lon="6.16058">
        <ele>1431.2</ele>
        <time>2024-08-09T13:49:57Z</time>
      </trkpt>
      <trkpt lat="45.07077" lon="6.16058">
        <ele>1431.2</ele>
        <time>2024-08-09T13:49:58Z</time>
      </trkpt>
      <trkpt lat="45.07077" lon="6.16058">
        <ele>1431.2</ele>
        <time>2024-08-09T13:49:59Z</time>
      </trkpt>
      <trkpt lat="45.07077" lon="6.16061">
        <ele>1431.2</ele>
        <time>2024-08-09T13:50:00Z</time>
      </trkpt>
      <trkpt lat="45.07077" lon="6.16061">
        <ele>1431.8</ele>
        <time>2024-08-09T13:50:01Z</time>
      </trkpt>
      <trkpt lat="45.07077" lon="6.16061">
        <ele>1432</ele>
        <time>2024-08-09T13:50:02Z</time>
      </trkpt>
      <trkpt lat="45.07076" lon="6.16065">
        <ele>1432.2</ele>
        <time>2024-08-09T13:50:03Z</time>
      </trkpt>
      <trkpt lat="45.07076" lon="6.16065">
        <ele>1432.4</ele>
        <time>2024-08-09T13:50:04Z</time>
      </trkpt>
      <trkpt lat="45.07076" lon="6.16068">
        <ele>1432.6</ele>
        <time>2024-08-09T13:50:05Z</time>
      </trkpt>
      <trkpt lat="45.07076" lon="6.16068">
        <ele>1432.6</ele>
        <time>2024-08-09T13:50:06Z</time>
      </trkpt>
      <trkpt lat="45.07076" lon="6.16068">
        <ele>1432.8</ele>
        <time>2024-08-09T13:50:07Z</time>
      </trkpt>
      <trkpt lat="45.07075" lon="6.16071">
        <ele>1433</ele>
        <time>2024-08-09T13:50:08Z</time>
      </trkpt>
      <trkpt lat="45.07075" lon="6.16071">
        <ele>1433.2</ele>
        <time>2024-08-09T13:50:09Z</time>
      </trkpt>
      <trkpt lat="45.07075" lon="6.16071">
        <ele>1433.4</ele>
        <time>2024-08-09T13:50:10Z</time>
      </trkpt>
      <trkpt lat="45.07074" lon="6.16074">
        <ele>1433.6</ele>
        <time>2024-08-09T13:50:11Z</time>
      </trkpt>
      <trkpt lat="45.07074" lon="6.16074">
        <ele>1433.8</ele>
        <time>2024-08-09T13:50:12Z</time>
      </trkpt>
      <trkpt lat="45.07074" lon="6.16074">
        <ele>1434</ele>
        <time>2024-08-09T13:50:13Z</time>
      </trkpt>
      <trkpt lat="45.07073" lon="6.16077">
        <ele>1434.2</ele>
        <time>2024-08-09T13:50:14Z</time>
      </trkpt>
      <trkpt lat="45.07073" lon="6.16077">
        <ele>1434.4</ele>
        <time>2024-08-09T13:50:15Z</time>
      </trkpt>
      <trkpt lat="45.07073" lon="6.16077">
        <ele>1434.6</ele>
        <time>2024-08-09T13:50:16Z</time>
      </trkpt>
      <trkpt lat="45.07073" lon="6.1608">
        <ele>1434.8</ele>
        <time>2024-08-09T13:50:17Z</time>
      </trkpt>
      <trkpt lat="45.07073" lon="6.1608">
        <ele>1435</ele>
        <time>2024-08-09T13:50:18Z</time>
      </trkpt>
      <trkpt lat="45.07073" lon="6.1608">
        <ele>1435.2</ele>
        <time>2024-08-09T13:50:19Z</time>
      </trkpt>
      <trkpt lat="45.07074" lon="6.16082">
        <ele>1435.4</ele>
        <time>2024-08-09T13:50:20Z</time>
      </trkpt>
      <trkpt lat="45.07074" lon="6.16082">
        <ele>1435.8</ele>
        <time>2024-08-09T13:50:21Z</time>
      </trkpt>
      <trkpt lat="45.07076" lon="6.16084">
        <ele>1435.8</ele>
        <time>2024-08-09T13:50:22Z</time>
      </trkpt>
      <trkpt lat="45.07076" lon="6.16084">
        <ele>1436.2</ele>
        <time>2024-08-09T13:50:23Z</time>
      </trkpt>
      <trkpt lat="45.07077" lon="6.16086">
        <ele>1436.4</ele>
        <time>2024-08-09T13:50:24Z</time>
      </trkpt>
      <trkpt lat="45.07077" lon="6.16086">
        <ele>1436.4</ele>
        <time>2024-08-09T13:50:25Z</time>
      </trkpt>
      <trkpt lat="45.07079" lon="6.16088">
        <ele>1436.4</ele>
        <time>2024-08-09T13:50:26Z</time>
      </trkpt>
      <trkpt lat="45.07079" lon="6.16088">
        <ele>1436.4</ele>
        <time>2024-08-09T13:50:27Z</time>
      </trkpt>
      <trkpt lat="45.07081" lon="6.1609">
        <ele>1436.4</ele>
        <time>2024-08-09T13:50:28Z</time>
      </trkpt>
      <trkpt lat="45.07081" lon="6.1609">
        <ele>1436.4</ele>
        <time>2024-08-09T13:50:29Z</time>
      </trkpt>
      <trkpt lat="45.07081" lon="6.1609">
        <ele>1436.4</ele>
        <time>2024-08-09T13:50:30Z</time>
      </trkpt>
      <trkpt lat="45.07083" lon="6.16093">
        <ele>1436.6</ele>
        <time>2024-08-09T13:50:31Z</time>
      </trkpt>
      <trkpt lat="45.07083" lon="6.16093">
        <ele>1436.6</ele>
        <time>2024-08-09T13:50:32Z</time>
      </trkpt>
      <trkpt lat="45.07083" lon="6.16093">
        <ele>1436.8</ele>
        <time>2024-08-09T13:50:33Z</time>
      </trkpt>
      <trkpt lat="45.07083" lon="6.16095">
        <ele>1437</ele>
        <time>2024-08-09T13:50:34Z</time>
      </trkpt>
      <trkpt lat="45.07083" lon="6.16095">
        <ele>1437.2</ele>
        <time>2024-08-09T13:50:35Z</time>
      </trkpt>
      <trkpt lat="45.07083" lon="6.16095">
        <ele>1437.4</ele>
        <time>2024-08-09T13:50:36Z</time>
      </trkpt>
      <trkpt lat="45.07083" lon="6.16095">
        <ele>1437.6</ele>
        <time>2024-08-09T13:50:37Z</time>
      </trkpt>
      <trkpt lat="45.07084" lon="6.16099">
        <ele>1437.6</ele>
        <time>2024-08-09T13:50:38Z</time>
      </trkpt>
      <trkpt lat="45.07084" lon="6.16099">
        <ele>1438</ele>
        <time>2024-08-09T13:50:39Z</time>
      </trkpt>
      <trkpt lat="45.07084" lon="6.16099">
        <ele>1438.2</ele>
        <time>2024-08-09T13:50:40Z</time>
      </trkpt>
      <trkpt lat="45.07086" lon="6.16101">
        <ele>1438.2</ele>
        <time>2024-08-09T13:50:41Z</time>
      </trkpt>
      <trkpt lat="45.07086" lon="6.16101">
        <ele>1438.4</ele>
        <time>2024-08-09T13:50:42Z</time>
      </trkpt>
      <trkpt lat="45.07087" lon="6.16103">
        <ele>1438.4</ele>
        <time>2024-08-09T13:50:43Z</time>
      </trkpt>
      <trkpt lat="45.07087" lon="6.16103">
        <ele>1438.8</ele>
        <time>2024-08-09T13:50:44Z</time>
      </trkpt>
      <trkpt lat="45.07087" lon="6.16103">
        <ele>1438.8</ele>
        <time>2024-08-09T13:50:45Z</time>
      </trkpt>
      <trkpt lat="45.07087" lon="6.16106">
        <ele>1438.8</ele>
        <time>2024-08-09T13:50:46Z</time>
      </trkpt>
      <trkpt lat="45.07087" lon="6.16106">
        <ele>1439.4</ele>
        <time>2024-08-09T13:50:47Z</time>
      </trkpt>
      <trkpt lat="45.07087" lon="6.16106">
        <ele>1439.8</ele>
        <time>2024-08-09T13:50:48Z</time>
      </trkpt>
      <trkpt lat="45.07088" lon="6.16109">
        <ele>1439.8</ele>
        <time>2024-08-09T13:50:49Z</time>
      </trkpt>
      <trkpt lat="45.07088" lon="6.16109">
        <ele>1439.8</ele>
        <time>2024-08-09T13:50:50Z</time>
      </trkpt>
      <trkpt lat="45.07089" lon="6.16111">
        <ele>1440</ele>
        <time>2024-08-09T13:50:51Z</time>
      </trkpt>
      <trkpt lat="45.07089" lon="6.16111">
        <ele>1440.4</ele>
        <time>2024-08-09T13:50:52Z</time>
      </trkpt>
      <trkpt lat="45.07089" lon="6.16111">
        <ele>1440.6</ele>
        <time>2024-08-09T13:50:53Z</time>
      </trkpt>
      <trkpt lat="45.07089" lon="6.16111">
        <ele>1440.8</ele>
        <time>2024-08-09T13:50:54Z</time>
      </trkpt>
      <trkpt lat="45.0709" lon="6.16114">
        <ele>1441</ele>
        <time>2024-08-09T13:50:55Z</time>
      </trkpt>
      <trkpt lat="45.0709" lon="6.16114">
        <ele>1441.2</ele>
        <time>2024-08-09T13:50:56Z</time>
      </trkpt>
      <trkpt lat="45.0709" lon="6.16114">
        <ele>1441.4</ele>
        <time>2024-08-09T13:50:57Z</time>
      </trkpt>
      <trkpt lat="45.0709" lon="6.16117">
        <ele>1441.8</ele>
        <time>2024-08-09T13:50:58Z</time>
      </trkpt>
      <trkpt lat="45.0709" lon="6.16117">
        <ele>1442</ele>
        <time>2024-08-09T13:50:59Z</time>
      </trkpt>
      <trkpt lat="45.0709" lon="6.16117">
        <ele>1442</ele>
        <time>2024-08-09T13:51:00Z</time>
      </trkpt>
      <trkpt lat="45.0709" lon="6.1612">
        <ele>1442.2</ele>
        <time>2024-08-09T13:51:01Z</time>
      </trkpt>
      <trkpt lat="45.0709" lon="6.1612">
        <ele>1442.6</ele>
        <time>2024-08-09T13:51:02Z</time>
      </trkpt>
      <trkpt lat="45.0709" lon="6.16123">
        <ele>1442.6</ele>
        <time>2024-08-09T13:51:03Z</time>
      </trkpt>
      <trkpt lat="45.0709" lon="6.16123">
        <ele>1442.8</ele>
        <time>2024-08-09T13:51:04Z</time>
      </trkpt>
      <trkpt lat="45.0709" lon="6.16123">
        <ele>1442.8</ele>
        <time>2024-08-09T13:51:05Z</time>
      </trkpt>
      <trkpt lat="45.07092" lon="6.16126">
        <ele>1442.8</ele>
        <time>2024-08-09T13:51:06Z</time>
      </trkpt>
      <trkpt lat="45.07092" lon="6.16126">
        <ele>1443</ele>
        <time>2024-08-09T13:51:07Z</time>
      </trkpt>
      <trkpt lat="45.07092" lon="6.16126">
        <ele>1443.2</ele>
        <time>2024-08-09T13:51:08Z</time>
      </trkpt>
      <trkpt lat="45.07093" lon="6.16129">
        <ele>1443.4</ele>
        <time>2024-08-09T13:51:09Z</time>
      </trkpt>
      <trkpt lat="45.07093" lon="6.16129">
        <ele>1443.6</ele>
        <time>2024-08-09T13:51:10Z</time>
      </trkpt>
      <trkpt lat="45.07093" lon="6.16129">
        <ele>1443.6</ele>
        <time>2024-08-09T13:51:11Z</time>
      </trkpt>
      <trkpt lat="45.07094" lon="6.16132">
        <ele>1444</ele>
        <time>2024-08-09T13:51:12Z</time>
      </trkpt>
      <trkpt lat="45.07094" lon="6.16132">
        <ele>1444</ele>
        <time>2024-08-09T13:51:13Z</time>
      </trkpt>
      <trkpt lat="45.07094" lon="6.16132">
        <ele>1444.2</ele>
        <time>2024-08-09T13:51:14Z</time>
      </trkpt>
      <trkpt lat="45.07095" lon="6.16135">
        <ele>1444.4</ele>
        <time>2024-08-09T13:51:15Z</time>
      </trkpt>
      <trkpt lat="45.07095" lon="6.16135">
        <ele>1444.6</ele>
        <time>2024-08-09T13:51:16Z</time>
      </trkpt>
      <trkpt lat="45.07095" lon="6.16135">
        <ele>1444.8</ele>
        <time>2024-08-09T13:51:17Z</time>
      </trkpt>
      <trkpt lat="45.07097" lon="6.16138">
        <ele>1444.8</ele>
        <time>2024-08-09T13:51:18Z</time>
      </trkpt>
      <trkpt lat="45.07097" lon="6.16138">
        <ele>1445</ele>
        <time>2024-08-09T13:51:19Z</time>
      </trkpt>
      <trkpt lat="45.07097" lon="6.16138">
        <ele>1445.2</ele>
        <time>2024-08-09T13:51:20Z</time>
      </trkpt>
      <trkpt lat="45.07097" lon="6.16141">
        <ele>1445.6</ele>
        <time>2024-08-09T13:51:21Z</time>
      </trkpt>
      <trkpt lat="45.07097" lon="6.16141">
        <ele>1445.6</ele>
        <time>2024-08-09T13:51:22Z</time>
      </trkpt>
      <trkpt lat="45.07097" lon="6.16141">
        <ele>1446</ele>
        <time>2024-08-09T13:51:23Z</time>
      </trkpt>
      <trkpt lat="45.07098" lon="6.16143">
        <ele>1446</ele>
        <time>2024-08-09T13:51:24Z</time>
      </trkpt>
      <trkpt lat="45.07098" lon="6.16143">
        <ele>1446.2</ele>
        <time>2024-08-09T13:51:25Z</time>
      </trkpt>
      <trkpt lat="45.07098" lon="6.16143">
        <ele>1446.6</ele>
        <time>2024-08-09T13:51:26Z</time>
      </trkpt>
      <trkpt lat="45.071" lon="6.16145">
        <ele>1446.6</ele>
        <time>2024-08-09T13:51:27Z</time>
      </trkpt>
      <trkpt lat="45.071" lon="6.16145">
        <ele>1446.8</ele>
        <time>2024-08-09T13:51:28Z</time>
      </trkpt>
      <trkpt lat="45.07101" lon="6.16146">
        <ele>1447</ele>
        <time>2024-08-09T13:51:29Z</time>
      </trkpt>
      <trkpt lat="45.07101" lon="6.16146">
        <ele>1447</ele>
        <time>2024-08-09T13:51:30Z</time>
      </trkpt>
      <trkpt lat="45.07101" lon="6.16146">
        <ele>1447.4</ele>
        <time>2024-08-09T13:51:31Z</time>
      </trkpt>
      <trkpt lat="45.07101" lon="6.16149">
        <ele>1447.6</ele>
        <time>2024-08-09T13:51:32Z</time>
      </trkpt>
      <trkpt lat="45.07101" lon="6.16149">
        <ele>1447.8</ele>
        <time>2024-08-09T13:51:33Z</time>
      </trkpt>
      <trkpt lat="45.07101" lon="6.16149">
        <ele>1448</ele>
        <time>2024-08-09T13:51:34Z</time>
      </trkpt>
      <trkpt lat="45.071" lon="6.16151">
        <ele>1448</ele>
        <time>2024-08-09T13:51:35Z</time>
      </trkpt>
      <trkpt lat="45.071" lon="6.16151">
        <ele>1448.4</ele>
        <time>2024-08-09T13:51:36Z</time>
      </trkpt>
      <trkpt lat="45.071" lon="6.16151">
        <ele>1448.6</ele>
        <time>2024-08-09T13:51:37Z</time>
      </trkpt>
      <trkpt lat="45.071" lon="6.16154">
        <ele>1448.8</ele>
        <time>2024-08-09T13:51:38Z</time>
      </trkpt>
      <trkpt lat="45.071" lon="6.16154">
        <ele>1449</ele>
        <time>2024-08-09T13:51:39Z</time>
      </trkpt>
      <trkpt lat="45.071" lon="6.16154">
        <ele>1449.2</ele>
        <time>2024-08-09T13:51:40Z</time>
      </trkpt>
      <trkpt lat="45.071" lon="6.16154">
        <ele>1449.4</ele>
        <time>2024-08-09T13:51:41Z</time>
      </trkpt>
      <trkpt lat="45.071" lon="6.16158">
        <ele>1449.6</ele>
        <time>2024-08-09T13:51:42Z</time>
      </trkpt>
      <trkpt lat="45.071" lon="6.16158">
        <ele>1449.8</ele>
        <time>2024-08-09T13:51:43Z</time>
      </trkpt>
      <trkpt lat="45.071" lon="6.16158">
        <ele>1450</ele>
        <time>2024-08-09T13:51:44Z</time>
      </trkpt>
      <trkpt lat="45.071" lon="6.16158">
        <ele>1450</ele>
        <time>2024-08-09T13:51:45Z</time>
      </trkpt>
      <trkpt lat="45.07099" lon="6.16161">
        <ele>1450.2</ele>
        <time>2024-08-09T13:51:46Z</time>
      </trkpt>
      <trkpt lat="45.07099" lon="6.16161">
        <ele>1450.4</ele>
        <time>2024-08-09T13:51:47Z</time>
      </trkpt>
      <trkpt lat="45.07099" lon="6.16161">
        <ele>1450.8</ele>
        <time>2024-08-09T13:51:48Z</time>
      </trkpt>
      <trkpt lat="45.07098" lon="6.16163">
        <ele>1451</ele>
        <time>2024-08-09T13:51:49Z</time>
      </trkpt>
      <trkpt lat="45.07098" lon="6.16163">
        <ele>1451.4</ele>
        <time>2024-08-09T13:51:50Z</time>
      </trkpt>
      <trkpt lat="45.07098" lon="6.16163">
        <ele>1451.6</ele>
        <time>2024-08-09T13:51:51Z</time>
      </trkpt>
      <trkpt lat="45.07098" lon="6.16166">
        <ele>1451.8</ele>
        <time>2024-08-09T13:51:52Z</time>
      </trkpt>
      <trkpt lat="45.07098" lon="6.16166">
        <ele>1451.8</ele>
        <time>2024-08-09T13:51:53Z</time>
      </trkpt>
      <trkpt lat="45.07098" lon="6.16166">
        <ele>1452.2</ele>
        <time>2024-08-09T13:51:54Z</time>
      </trkpt>
      <trkpt lat="45.07098" lon="6.1617">
        <ele>1452.4</ele>
        <time>2024-08-09T13:51:55Z</time>
      </trkpt>
      <trkpt lat="45.07098" lon="6.1617">
        <ele>1452.4</ele>
        <time>2024-08-09T13:51:56Z</time>
      </trkpt>
      <trkpt lat="45.071" lon="6.16172">
        <ele>1452.6</ele>
        <time>2024-08-09T13:51:57Z</time>
      </trkpt>
      <trkpt lat="45.071" lon="6.16172">
        <ele>1453.2</ele>
        <time>2024-08-09T13:51:58Z</time>
      </trkpt>
      <trkpt lat="45.071" lon="6.16172">
        <ele>1453.4</ele>
        <time>2024-08-09T13:51:59Z</time>
      </trkpt>
      <trkpt lat="45.07101" lon="6.16175">
        <ele>1453.8</ele>
        <time>2024-08-09T13:52:00Z</time>
      </trkpt>
      <trkpt lat="45.07101" lon="6.16175">
        <ele>1454.2</ele>
        <time>2024-08-09T13:52:01Z</time>
      </trkpt>
      <trkpt lat="45.07101" lon="6.16175">
        <ele>1454.4</ele>
        <time>2024-08-09T13:52:02Z</time>
      </trkpt>
      <trkpt lat="45.07103" lon="6.16178">
        <ele>1454.4</ele>
        <time>2024-08-09T13:52:03Z</time>
      </trkpt>
      <trkpt lat="45.07103" lon="6.16178">
        <ele>1454.6</ele>
        <time>2024-08-09T13:52:04Z</time>
      </trkpt>
      <trkpt lat="45.07104" lon="6.16181">
        <ele>1454.6</ele>
        <time>2024-08-09T13:52:05Z</time>
      </trkpt>
      <trkpt lat="45.07104" lon="6.16181">
        <ele>1454.8</ele>
        <time>2024-08-09T13:52:06Z</time>
      </trkpt>
      <trkpt lat="45.07106" lon="6.16182">
        <ele>1455.2</ele>
        <time>2024-08-09T13:52:07Z</time>
      </trkpt>
      <trkpt lat="45.07106" lon="6.16182">
        <ele>1455.4</ele>
        <time>2024-08-09T13:52:08Z</time>
      </trkpt>
      <trkpt lat="45.07106" lon="6.16182">
        <ele>1455.4</ele>
        <time>2024-08-09T13:52:09Z</time>
      </trkpt>
      <trkpt lat="45.07107" lon="6.16185">
        <ele>1455.6</ele>
        <time>2024-08-09T13:52:10Z</time>
      </trkpt>
      <trkpt lat="45.07107" lon="6.16185">
        <ele>1455.6</ele>
        <time>2024-08-09T13:52:11Z</time>
      </trkpt>
      <trkpt lat="45.07108" lon="6.16187">
        <ele>1455.8</ele>
        <time>2024-08-09T13:52:12Z</time>
      </trkpt>
      <trkpt lat="45.07108" lon="6.16187">
        <ele>1456</ele>
        <time>2024-08-09T13:52:13Z</time>
      </trkpt>
      <trkpt lat="45.07108" lon="6.16187">
        <ele>1456.2</ele>
        <time>2024-08-09T13:52:14Z</time>
      </trkpt>
      <trkpt lat="45.07109" lon="6.1619">
        <ele>1456.2</ele>
        <time>2024-08-09T13:52:15Z</time>
      </trkpt>
      <trkpt lat="45.07109" lon="6.1619">
        <ele>1456.4</ele>
        <time>2024-08-09T13:52:16Z</time>
      </trkpt>
      <trkpt lat="45.0711" lon="6.16193">
        <ele>1456.8</ele>
        <time>2024-08-09T13:52:17Z</time>
      </trkpt>
      <trkpt lat="45.0711" lon="6.16193">
        <ele>1456.8</ele>
        <time>2024-08-09T13:52:18Z</time>
      </trkpt>
      <trkpt lat="45.07109" lon="6.16195">
        <ele>1456.8</ele>
        <time>2024-08-09T13:52:19Z</time>
      </trkpt>
      <trkpt lat="45.07109" lon="6.16195">
        <ele>1457.2</ele>
        <time>2024-08-09T13:52:20Z</time>
      </trkpt>
      <trkpt lat="45.07109" lon="6.16195">
        <ele>1457.2</ele>
        <time>2024-08-09T13:52:21Z</time>
      </trkpt>
      <trkpt lat="45.07109" lon="6.16198">
        <ele>1457.2</ele>
        <time>2024-08-09T13:52:22Z</time>
      </trkpt>
      <trkpt lat="45.07109" lon="6.16198">
        <ele>1457.2</ele>
        <time>2024-08-09T13:52:23Z</time>
      </trkpt>
      <trkpt lat="45.07109" lon="6.16198">
        <ele>1457.6</ele>
        <time>2024-08-09T13:52:24Z</time>
      </trkpt>
      <trkpt lat="45.07111" lon="6.16201">
        <ele>1457.8</ele>
        <time>2024-08-09T13:52:25Z</time>
      </trkpt>
      <trkpt lat="45.07111" lon="6.16201">
        <ele>1457.8</ele>
        <time>2024-08-09T13:52:26Z</time>
      </trkpt>
      <trkpt lat="45.07111" lon="6.16204">
        <ele>1458</ele>
        <time>2024-08-09T13:52:27Z</time>
      </trkpt>
      <trkpt lat="45.07111" lon="6.16204">
        <ele>1458.2</ele>
        <time>2024-08-09T13:52:28Z</time>
      </trkpt>
      <trkpt lat="45.0711" lon="6.16207">
        <ele>1458.6</ele>
        <time>2024-08-09T13:52:29Z</time>
      </trkpt>
      <trkpt lat="45.0711" lon="6.16207">
        <ele>1458.6</ele>
        <time>2024-08-09T13:52:30Z</time>
      </trkpt>
      <trkpt lat="45.07109" lon="6.1621">
        <ele>1458.8</ele>
        <time>2024-08-09T13:52:31Z</time>
      </trkpt>
      <trkpt lat="45.07109" lon="6.1621">
        <ele>1458.8</ele>
        <time>2024-08-09T13:52:32Z</time>
      </trkpt>
      <trkpt lat="45.07108" lon="6.16214">
        <ele>1459</ele>
        <time>2024-08-09T13:52:33Z</time>
      </trkpt>
      <trkpt lat="45.07108" lon="6.16214">
        <ele>1459.2</ele>
        <time>2024-08-09T13:52:34Z</time>
      </trkpt>
      <trkpt lat="45.07108" lon="6.16217">
        <ele>1459.2</ele>
        <time>2024-08-09T13:52:35Z</time>
      </trkpt>
      <trkpt lat="45.07108" lon="6.16217">
        <ele>1459.2</ele>
        <time>2024-08-09T13:52:36Z</time>
      </trkpt>
      <trkpt lat="45.07107" lon="6.1622">
        <ele>1459.4</ele>
        <time>2024-08-09T13:52:37Z</time>
      </trkpt>
      <trkpt lat="45.07107" lon="6.1622">
        <ele>1459.6</ele>
        <time>2024-08-09T13:52:38Z</time>
      </trkpt>
      <trkpt lat="45.07106" lon="6.16224">
        <ele>1459.8</ele>
        <time>2024-08-09T13:52:39Z</time>
      </trkpt>
      <trkpt lat="45.07106" lon="6.16224">
        <ele>1460</ele>
        <time>2024-08-09T13:52:40Z</time>
      </trkpt>
      <trkpt lat="45.07106" lon="6.16227">
        <ele>1460</ele>
        <time>2024-08-09T13:52:41Z</time>
      </trkpt>
      <trkpt lat="45.07106" lon="6.16227">
        <ele>1460</ele>
        <time>2024-08-09T13:52:42Z</time>
      </trkpt>
      <trkpt lat="45.07106" lon="6.1623">
        <ele>1460.4</ele>
        <time>2024-08-09T13:52:43Z</time>
      </trkpt>
      <trkpt lat="45.07106" lon="6.1623">
        <ele>1460.6</ele>
        <time>2024-08-09T13:52:44Z</time>
      </trkpt>
      <trkpt lat="45.07106" lon="6.16234">
        <ele>1460.8</ele>
        <time>2024-08-09T13:52:45Z</time>
      </trkpt>
      <trkpt lat="45.07106" lon="6.16234">
        <ele>1460.8</ele>
        <time>2024-08-09T13:52:46Z</time>
      </trkpt>
      <trkpt lat="45.07106" lon="6.16237">
        <ele>1460.8</ele>
        <time>2024-08-09T13:52:47Z</time>
      </trkpt>
      <trkpt lat="45.07106" lon="6.16237">
        <ele>1461</ele>
        <time>2024-08-09T13:52:48Z</time>
      </trkpt>
      <trkpt lat="45.07105" lon="6.1624">
        <ele>1461.2</ele>
        <time>2024-08-09T13:52:49Z</time>
      </trkpt>
      <trkpt lat="45.07105" lon="6.1624">
        <ele>1461.2</ele>
        <time>2024-08-09T13:52:50Z</time>
      </trkpt>
      <trkpt lat="45.07105" lon="6.16243">
        <ele>1461.4</ele>
        <time>2024-08-09T13:52:51Z</time>
      </trkpt>
      <trkpt lat="45.07105" lon="6.16243">
        <ele>1461.8</ele>
        <time>2024-08-09T13:52:52Z</time>
      </trkpt>
      <trkpt lat="45.07105" lon="6.16246">
        <ele>1462.2</ele>
        <time>2024-08-09T13:52:53Z</time>
      </trkpt>
      <trkpt lat="45.07105" lon="6.16246">
        <ele>1462.2</ele>
        <time>2024-08-09T13:52:54Z</time>
      </trkpt>
      <trkpt lat="45.07104" lon="6.16249">
        <ele>1462.4</ele>
        <time>2024-08-09T13:52:55Z</time>
      </trkpt>
      <trkpt lat="45.07104" lon="6.16249">
        <ele>1462.4</ele>
        <time>2024-08-09T13:52:56Z</time>
      </trkpt>
      <trkpt lat="45.07104" lon="6.16252">
        <ele>1462.6</ele>
        <time>2024-08-09T13:52:57Z</time>
      </trkpt>
      <trkpt lat="45.07104" lon="6.16252">
        <ele>1462.6</ele>
        <time>2024-08-09T13:52:58Z</time>
      </trkpt>
      <trkpt lat="45.07104" lon="6.16255">
        <ele>1462.6</ele>
        <time>2024-08-09T13:52:59Z</time>
      </trkpt>
      <trkpt lat="45.07104" lon="6.16255">
        <ele>1462.8</ele>
        <time>2024-08-09T13:53:00Z</time>
      </trkpt>
      <trkpt lat="45.07103" lon="6.16259">
        <ele>1463</ele>
        <time>2024-08-09T13:53:01Z</time>
      </trkpt>
      <trkpt lat="45.07103" lon="6.16259">
        <ele>1463.4</ele>
        <time>2024-08-09T13:53:02Z</time>
      </trkpt>
      <trkpt lat="45.07103" lon="6.16262">
        <ele>1463.4</ele>
        <time>2024-08-09T13:53:03Z</time>
      </trkpt>
      <trkpt lat="45.07103" lon="6.16262">
        <ele>1463.4</ele>
        <time>2024-08-09T13:53:04Z</time>
      </trkpt>
      <trkpt lat="45.07103" lon="6.16264">
        <ele>1463.4</ele>
        <time>2024-08-09T13:53:05Z</time>
      </trkpt>
      <trkpt lat="45.07103" lon="6.16264">
        <ele>1463.4</ele>
        <time>2024-08-09T13:53:06Z</time>
      </trkpt>
      <trkpt lat="45.07103" lon="6.16267">
        <ele>1463.4</ele>
        <time>2024-08-09T13:53:07Z</time>
      </trkpt>
      <trkpt lat="45.07103" lon="6.16267">
        <ele>1463.8</ele>
        <time>2024-08-09T13:53:08Z</time>
      </trkpt>
      <trkpt lat="45.07103" lon="6.1627">
        <ele>1464</ele>
        <time>2024-08-09T13:53:09Z</time>
      </trkpt>
      <trkpt lat="45.07103" lon="6.1627">
        <ele>1464</ele>
        <time>2024-08-09T13:53:10Z</time>
      </trkpt>
      <trkpt lat="45.07105" lon="6.16272">
        <ele>1464.2</ele>
        <time>2024-08-09T13:53:11Z</time>
      </trkpt>
      <trkpt lat="45.07105" lon="6.16272">
        <ele>1464.6</ele>
        <time>2024-08-09T13:53:12Z</time>
      </trkpt>
      <trkpt lat="45.07106" lon="6.16275">
        <ele>1464.6</ele>
        <time>2024-08-09T13:53:13Z</time>
      </trkpt>
      <trkpt lat="45.07106" lon="6.16275">
        <ele>1464.6</ele>
        <time>2024-08-09T13:53:14Z</time>
      </trkpt>
      <trkpt lat="45.07107" lon="6.16278">
        <ele>1464.6</ele>
        <time>2024-08-09T13:53:15Z</time>
      </trkpt>
      <trkpt lat="45.07107" lon="6.16278">
        <ele>1464.8</ele>
        <time>2024-08-09T13:53:16Z</time>
      </trkpt>
      <trkpt lat="45.07106" lon="6.16281">
        <ele>1464.8</ele>
        <time>2024-08-09T13:53:17Z</time>
      </trkpt>
      <trkpt lat="45.07106" lon="6.16281">
        <ele>1464.8</ele>
        <time>2024-08-09T13:53:18Z</time>
      </trkpt>
      <trkpt lat="45.07106" lon="6.16284">
        <ele>1465</ele>
        <time>2024-08-09T13:53:19Z</time>
      </trkpt>
      <trkpt lat="45.07106" lon="6.16284">
        <ele>1465</ele>
        <time>2024-08-09T13:53:20Z</time>
      </trkpt>
      <trkpt lat="45.07106" lon="6.16287">
        <ele>1465</ele>
        <time>2024-08-09T13:53:21Z</time>
      </trkpt>
      <trkpt lat="45.07106" lon="6.16287">
        <ele>1465.2</ele>
        <time>2024-08-09T13:53:22Z</time>
      </trkpt>
      <trkpt lat="45.07105" lon="6.16291">
        <ele>1465.2</ele>
        <time>2024-08-09T13:53:23Z</time>
      </trkpt>
      <trkpt lat="45.07105" lon="6.16291">
        <ele>1465.4</ele>
        <time>2024-08-09T13:53:24Z</time>
      </trkpt>
      <trkpt lat="45.07105" lon="6.16294">
        <ele>1465.8</ele>
        <time>2024-08-09T13:53:25Z</time>
      </trkpt>
      <trkpt lat="45.07105" lon="6.16294">
        <ele>1466</ele>
        <time>2024-08-09T13:53:26Z</time>
      </trkpt>
      <trkpt lat="45.07105" lon="6.16294">
        <ele>1466</ele>
        <time>2024-08-09T13:53:27Z</time>
      </trkpt>
      <trkpt lat="45.07106" lon="6.16297">
        <ele>1466</ele>
        <time>2024-08-09T13:53:28Z</time>
      </trkpt>
      <trkpt lat="45.07106" lon="6.16297">
        <ele>1466.4</ele>
        <time>2024-08-09T13:53:29Z</time>
      </trkpt>
      <trkpt lat="45.07107" lon="6.16299">
        <ele>1466.4</ele>
        <time>2024-08-09T13:53:30Z</time>
      </trkpt>
      <trkpt lat="45.07107" lon="6.16299">
        <ele>1466.4</ele>
        <time>2024-08-09T13:53:31Z</time>
      </trkpt>
      <trkpt lat="45.07107" lon="6.16299">
        <ele>1466.6</ele>
        <time>2024-08-09T13:53:32Z</time>
      </trkpt>
      <trkpt lat="45.07107" lon="6.16299">
        <ele>1466.6</ele>
        <time>2024-08-09T13:53:33Z</time>
      </trkpt>
      <trkpt lat="45.07108" lon="6.16303">
        <ele>1466.6</ele>
        <time>2024-08-09T13:53:34Z</time>
      </trkpt>
      <trkpt lat="45.07108" lon="6.16303">
        <ele>1466.8</ele>
        <time>2024-08-09T13:53:35Z</time>
      </trkpt>
      <trkpt lat="45.07108" lon="6.16303">
        <ele>1466.8</ele>
        <time>2024-08-09T13:53:36Z</time>
      </trkpt>
      <trkpt lat="45.07109" lon="6.16306">
        <ele>1467.2</ele>
        <time>2024-08-09T13:53:37Z</time>
      </trkpt>
      <trkpt lat="45.07109" lon="6.16306">
        <ele>1467.2</ele>
        <time>2024-08-09T13:53:38Z</time>
      </trkpt>
      <trkpt lat="45.07109" lon="6.16306">
        <ele>1467.6</ele>
        <time>2024-08-09T13:53:39Z</time>
      </trkpt>
      <trkpt lat="45.07109" lon="6.16309">
        <ele>1467.8</ele>
        <time>2024-08-09T13:53:40Z</time>
      </trkpt>
      <trkpt lat="45.07109" lon="6.16309">
        <ele>1468</ele>
        <time>2024-08-09T13:53:41Z</time>
      </trkpt>
      <trkpt lat="45.07109" lon="6.16309">
        <ele>1468</ele>
        <time>2024-08-09T13:53:42Z</time>
      </trkpt>
      <trkpt lat="45.0711" lon="6.16312">
        <ele>1468.4</ele>
        <time>2024-08-09T13:53:43Z</time>
      </trkpt>
      <trkpt lat="45.0711" lon="6.16312">
        <ele>1468.8</ele>
        <time>2024-08-09T13:53:44Z</time>
      </trkpt>
      <trkpt lat="45.0711" lon="6.16312">
        <ele>1469</ele>
        <time>2024-08-09T13:53:45Z</time>
      </trkpt>
      <trkpt lat="45.0711" lon="6.16316">
        <ele>1469.2</ele>
        <time>2024-08-09T13:53:46Z</time>
      </trkpt>
      <trkpt lat="45.0711" lon="6.16316">
        <ele>1469.4</ele>
        <time>2024-08-09T13:53:47Z</time>
      </trkpt>
      <trkpt lat="45.07111" lon="6.16318">
        <ele>1469.6</ele>
        <time>2024-08-09T13:53:48Z</time>
      </trkpt>
      <trkpt lat="45.07111" lon="6.16318">
        <ele>1469.8</ele>
        <time>2024-08-09T13:53:49Z</time>
      </trkpt>
      <trkpt lat="45.07112" lon="6.16321">
        <ele>1470</ele>
        <time>2024-08-09T13:53:50Z</time>
      </trkpt>
      <trkpt lat="45.07112" lon="6.16321">
        <ele>1470.2</ele>
        <time>2024-08-09T13:53:51Z</time>
      </trkpt>
      <trkpt lat="45.07113" lon="6.16324">
        <ele>1470.2</ele>
        <time>2024-08-09T13:53:52Z</time>
      </trkpt>
      <trkpt lat="45.07113" lon="6.16324">
        <ele>1470.4</ele>
        <time>2024-08-09T13:53:53Z</time>
      </trkpt>
      <trkpt lat="45.07113" lon="6.16324">
        <ele>1470.6</ele>
        <time>2024-08-09T13:53:54Z</time>
      </trkpt>
      <trkpt lat="45.07114" lon="6.16327">
        <ele>1470.6</ele>
        <time>2024-08-09T13:53:55Z</time>
      </trkpt>
      <trkpt lat="45.07114" lon="6.16327">
        <ele>1470.8</ele>
        <time>2024-08-09T13:53:56Z</time>
      </trkpt>
      <trkpt lat="45.07115" lon="6.16329">
        <ele>1471.2</ele>
        <time>2024-08-09T13:53:57Z</time>
      </trkpt>
      <trkpt lat="45.07115" lon="6.16329">
        <ele>1471.4</ele>
        <time>2024-08-09T13:53:58Z</time>
      </trkpt>
      <trkpt lat="45.07115" lon="6.16329">
        <ele>1471.6</ele>
        <time>2024-08-09T13:53:59Z</time>
      </trkpt>
      <trkpt lat="45.07115" lon="6.16333">
        <ele>1471.6</ele>
        <time>2024-08-09T13:54:00Z</time>
      </trkpt>
      <trkpt lat="45.07115" lon="6.16333">
        <ele>1471.6</ele>
        <time>2024-08-09T13:54:01Z</time>
      </trkpt>
      <trkpt lat="45.07116" lon="6.16336">
        <ele>1472</ele>
        <time>2024-08-09T13:54:02Z</time>
      </trkpt>
      <trkpt lat="45.07116" lon="6.16336">
        <ele>1472</ele>
        <time>2024-08-09T13:54:03Z</time>
      </trkpt>
      <trkpt lat="45.07116" lon="6.16338">
        <ele>1472</ele>
        <time>2024-08-09T13:54:04Z</time>
      </trkpt>
      <trkpt lat="45.07116" lon="6.16338">
        <ele>1472.2</ele>
        <time>2024-08-09T13:54:05Z</time>
      </trkpt>
      <trkpt lat="45.07116" lon="6.16338">
        <ele>1472.2</ele>
        <time>2024-08-09T13:54:06Z</time>
      </trkpt>
      <trkpt lat="45.07117" lon="6.16341">
        <ele>1472.4</ele>
        <time>2024-08-09T13:54:07Z</time>
      </trkpt>
      <trkpt lat="45.07117" lon="6.16341">
        <ele>1472.6</ele>
        <time>2024-08-09T13:54:08Z</time>
      </trkpt>
      <trkpt lat="45.07117" lon="6.16341">
        <ele>1472.8</ele>
        <time>2024-08-09T13:54:09Z</time>
      </trkpt>
      <trkpt lat="45.07118" lon="6.16344">
        <ele>1473.2</ele>
        <time>2024-08-09T13:54:10Z</time>
      </trkpt>
      <trkpt lat="45.07118" lon="6.16344">
        <ele>1473.4</ele>
        <time>2024-08-09T13:54:11Z</time>
      </trkpt>
      <trkpt lat="45.07118" lon="6.16344">
        <ele>1473.4</ele>
        <time>2024-08-09T13:54:12Z</time>
      </trkpt>
      <trkpt lat="45.07118" lon="6.16348">
        <ele>1473.6</ele>
        <time>2024-08-09T13:54:13Z</time>
      </trkpt>
      <trkpt lat="45.07118" lon="6.16348">
        <ele>1473.8</ele>
        <time>2024-08-09T13:54:14Z</time>
      </trkpt>
      <trkpt lat="45.07118" lon="6.16348">
        <ele>1474</ele>
        <time>2024-08-09T13:54:15Z</time>
      </trkpt>
      <trkpt lat="45.07117" lon="6.16351">
        <ele>1474.2</ele>
        <time>2024-08-09T13:54:16Z</time>
      </trkpt>
      <trkpt lat="45.07119" lon="6.16353">
        <ele>1474.4</ele>
        <time>2024-08-09T13:54:17Z</time>
      </trkpt>
      <trkpt lat="45.07119" lon="6.16353">
        <ele>1474.4</ele>
        <time>2024-08-09T13:54:18Z</time>
      </trkpt>
      <trkpt lat="45.07119" lon="6.16353">
        <ele>1474.6</ele>
        <time>2024-08-09T13:54:19Z</time>
      </trkpt>
      <trkpt lat="45.07119" lon="6.16356">
        <ele>1474.8</ele>
        <time>2024-08-09T13:54:20Z</time>
      </trkpt>
      <trkpt lat="45.07119" lon="6.16356">
        <ele>1474.8</ele>
        <time>2024-08-09T13:54:21Z</time>
      </trkpt>
      <trkpt lat="45.07119" lon="6.16359">
        <ele>1475</ele>
        <time>2024-08-09T13:54:22Z</time>
      </trkpt>
      <trkpt lat="45.07119" lon="6.16359">
        <ele>1475</ele>
        <time>2024-08-09T13:54:23Z</time>
      </trkpt>
      <trkpt lat="45.07119" lon="6.16359">
        <ele>1475.4</ele>
        <time>2024-08-09T13:54:24Z</time>
      </trkpt>
      <trkpt lat="45.07119" lon="6.16362">
        <ele>1475.8</ele>
        <time>2024-08-09T13:54:25Z</time>
      </trkpt>
      <trkpt lat="45.07119" lon="6.16362">
        <ele>1476</ele>
        <time>2024-08-09T13:54:26Z</time>
      </trkpt>
      <trkpt lat="45.07119" lon="6.16362">
        <ele>1476</ele>
        <time>2024-08-09T13:54:27Z</time>
      </trkpt>
      <trkpt lat="45.0712" lon="6.16365">
        <ele>1476</ele>
        <time>2024-08-09T13:54:28Z</time>
      </trkpt>
      <trkpt lat="45.0712" lon="6.16365">
        <ele>1476.4</ele>
        <time>2024-08-09T13:54:29Z</time>
      </trkpt>
      <trkpt lat="45.0712" lon="6.16365">
        <ele>1476.4</ele>
        <time>2024-08-09T13:54:30Z</time>
      </trkpt>
      <trkpt lat="45.07119" lon="6.16368">
        <ele>1476.6</ele>
        <time>2024-08-09T13:54:31Z</time>
      </trkpt>
      <trkpt lat="45.07119" lon="6.16368">
        <ele>1476.8</ele>
        <time>2024-08-09T13:54:32Z</time>
      </trkpt>
      <trkpt lat="45.07119" lon="6.16368">
        <ele>1476.8</ele>
        <time>2024-08-09T13:54:33Z</time>
      </trkpt>
      <trkpt lat="45.07119" lon="6.16372">
        <ele>1477.2</ele>
        <time>2024-08-09T13:54:34Z</time>
      </trkpt>
      <trkpt lat="45.07119" lon="6.16372">
        <ele>1477.4</ele>
        <time>2024-08-09T13:54:35Z</time>
      </trkpt>
      <trkpt lat="45.07118" lon="6.16375">
        <ele>1477.4</ele>
        <time>2024-08-09T13:54:36Z</time>
      </trkpt>
      <trkpt lat="45.0712" lon="6.16376">
        <ele>1477.6</ele>
        <time>2024-08-09T13:54:37Z</time>
      </trkpt>
      <trkpt lat="45.0712" lon="6.16376">
        <ele>1477.8</ele>
        <time>2024-08-09T13:54:38Z</time>
      </trkpt>
      <trkpt lat="45.0712" lon="6.16379">
        <ele>1478.2</ele>
        <time>2024-08-09T13:54:39Z</time>
      </trkpt>
      <trkpt lat="45.0712" lon="6.16379">
        <ele>1478.2</ele>
        <time>2024-08-09T13:54:40Z</time>
      </trkpt>
      <trkpt lat="45.0712" lon="6.16379">
        <ele>1478.4</ele>
        <time>2024-08-09T13:54:41Z</time>
      </trkpt>
      <trkpt lat="45.07119" lon="6.16382">
        <ele>1478.4</ele>
        <time>2024-08-09T13:54:42Z</time>
      </trkpt>
      <trkpt lat="45.07119" lon="6.16382">
        <ele>1478.8</ele>
        <time>2024-08-09T13:54:43Z</time>
      </trkpt>
      <trkpt lat="45.07118" lon="6.16386">
        <ele>1478.8</ele>
        <time>2024-08-09T13:54:44Z</time>
      </trkpt>
      <trkpt lat="45.07118" lon="6.16386">
        <ele>1478.8</ele>
        <time>2024-08-09T13:54:45Z</time>
      </trkpt>
      <trkpt lat="45.07118" lon="6.16386">
        <ele>1479</ele>
        <time>2024-08-09T13:54:46Z</time>
      </trkpt>
      <trkpt lat="45.07117" lon="6.16389">
        <ele>1479.4</ele>
        <time>2024-08-09T13:54:47Z</time>
      </trkpt>
      <trkpt lat="45.07117" lon="6.16389">
        <ele>1480.2</ele>
        <time>2024-08-09T13:54:48Z</time>
      </trkpt>
      <trkpt lat="45.07116" lon="6.16393">
        <ele>1480.6</ele>
        <time>2024-08-09T13:54:49Z</time>
      </trkpt>
      <trkpt lat="45.07116" lon="6.16393">
        <ele>1480.6</ele>
        <time>2024-08-09T13:54:50Z</time>
      </trkpt>
      <trkpt lat="45.07115" lon="6.16395">
        <ele>1480.8</ele>
        <time>2024-08-09T13:54:51Z</time>
      </trkpt>
      <trkpt lat="45.07115" lon="6.16395">
        <ele>1480.8</ele>
        <time>2024-08-09T13:54:52Z</time>
      </trkpt>
      <trkpt lat="45.07115" lon="6.16395">
        <ele>1481</ele>
        <time>2024-08-09T13:54:53Z</time>
      </trkpt>
      <trkpt lat="45.07115" lon="6.16398">
        <ele>1481.2</ele>
        <time>2024-08-09T13:54:54Z</time>
      </trkpt>
      <trkpt lat="45.07115" lon="6.16398">
        <ele>1481.4</ele>
        <time>2024-08-09T13:54:55Z</time>
      </trkpt>
      <trkpt lat="45.07115" lon="6.16398">
        <ele>1481.6</ele>
        <time>2024-08-09T13:54:56Z</time>
      </trkpt>
      <trkpt lat="45.07113" lon="6.16402">
        <ele>1481.6</ele>
        <time>2024-08-09T13:54:57Z</time>
      </trkpt>
      <trkpt lat="45.07113" lon="6.16402">
        <ele>1481.6</ele>
        <time>2024-08-09T13:54:58Z</time>
      </trkpt>
      <trkpt lat="45.07112" lon="6.16405">
        <ele>1481.4</ele>
        <time>2024-08-09T13:54:59Z</time>
      </trkpt>
      <trkpt lat="45.07112" lon="6.16405">
        <ele>1481.4</ele>
        <time>2024-08-09T13:55:00Z</time>
      </trkpt>
      <trkpt lat="45.07111" lon="6.16407">
        <ele>1481.4</ele>
        <time>2024-08-09T13:55:01Z</time>
      </trkpt>
      <trkpt lat="45.07111" lon="6.16407">
        <ele>1481.4</ele>
        <time>2024-08-09T13:55:02Z</time>
      </trkpt>
      <trkpt lat="45.07111" lon="6.1641">
        <ele>1481.4</ele>
        <time>2024-08-09T13:55:03Z</time>
      </trkpt>
      <trkpt lat="45.07111" lon="6.1641">
        <ele>1481.4</ele>
        <time>2024-08-09T13:55:04Z</time>
      </trkpt>
      <trkpt lat="45.0711" lon="6.16413">
        <ele>1481.4</ele>
        <time>2024-08-09T13:55:05Z</time>
      </trkpt>
      <trkpt lat="45.0711" lon="6.16413">
        <ele>1481.4</ele>
        <time>2024-08-09T13:55:06Z</time>
      </trkpt>
      <trkpt lat="45.07109" lon="6.16416">
        <ele>1481.6</ele>
        <time>2024-08-09T13:55:07Z</time>
      </trkpt>
      <trkpt lat="45.07109" lon="6.16416">
        <ele>1481.6</ele>
        <time>2024-08-09T13:55:08Z</time>
      </trkpt>
      <trkpt lat="45.07109" lon="6.16419">
        <ele>1481.6</ele>
        <time>2024-08-09T13:55:09Z</time>
      </trkpt>
      <trkpt lat="45.07109" lon="6.16419">
        <ele>1481.6</ele>
        <time>2024-08-09T13:55:10Z</time>
      </trkpt>
      <trkpt lat="45.07109" lon="6.16422">
        <ele>1481.8</ele>
        <time>2024-08-09T13:55:11Z</time>
      </trkpt>
      <trkpt lat="45.07109" lon="6.16422">
        <ele>1481.8</ele>
        <time>2024-08-09T13:55:12Z</time>
      </trkpt>
      <trkpt lat="45.0711" lon="6.16426">
        <ele>1481.8</ele>
        <time>2024-08-09T13:55:13Z</time>
      </trkpt>
      <trkpt lat="45.0711" lon="6.16426">
        <ele>1482</ele>
        <time>2024-08-09T13:55:14Z</time>
      </trkpt>
      <trkpt lat="45.07109" lon="6.1643">
        <ele>1481.8</ele>
        <time>2024-08-09T13:55:15Z</time>
      </trkpt>
      <trkpt lat="45.07109" lon="6.1643">
        <ele>1481.8</ele>
        <time>2024-08-09T13:55:16Z</time>
      </trkpt>
      <trkpt lat="45.07109" lon="6.16434">
        <ele>1481.8</ele>
        <time>2024-08-09T13:55:17Z</time>
      </trkpt>
      <trkpt lat="45.07109" lon="6.16434">
        <ele>1481.8</ele>
        <time>2024-08-09T13:55:18Z</time>
      </trkpt>
      <trkpt lat="45.07108" lon="6.16438">
        <ele>1481.8</ele>
        <time>2024-08-09T13:55:19Z</time>
      </trkpt>
      <trkpt lat="45.07108" lon="6.16438">
        <ele>1482</ele>
        <time>2024-08-09T13:55:20Z</time>
      </trkpt>
      <trkpt lat="45.07107" lon="6.1644">
        <ele>1482</ele>
        <time>2024-08-09T13:55:21Z</time>
      </trkpt>
      <trkpt lat="45.07107" lon="6.1644">
        <ele>1482</ele>
        <time>2024-08-09T13:55:22Z</time>
      </trkpt>
      <trkpt lat="45.07108" lon="6.16444">
        <ele>1482</ele>
        <time>2024-08-09T13:55:23Z</time>
      </trkpt>
      <trkpt lat="45.07108" lon="6.16444">
        <ele>1482.2</ele>
        <time>2024-08-09T13:55:24Z</time>
      </trkpt>
      <trkpt lat="45.07108" lon="6.16448">
        <ele>1482.2</ele>
        <time>2024-08-09T13:55:25Z</time>
      </trkpt>
      <trkpt lat="45.07108" lon="6.16448">
        <ele>1482.2</ele>
        <time>2024-08-09T13:55:26Z</time>
      </trkpt>
      <trkpt lat="45.07108" lon="6.16451">
        <ele>1482.2</ele>
        <time>2024-08-09T13:55:27Z</time>
      </trkpt>
      <trkpt lat="45.07108" lon="6.16451">
        <ele>1482.2</ele>
        <time>2024-08-09T13:55:28Z</time>
      </trkpt>
      <trkpt lat="45.07108" lon="6.16454">
        <ele>1482.2</ele>
        <time>2024-08-09T13:55:29Z</time>
      </trkpt>
      <trkpt lat="45.07108" lon="6.16454">
        <ele>1482</ele>
        <time>2024-08-09T13:55:30Z</time>
      </trkpt>
      <trkpt lat="45.0711" lon="6.16457">
        <ele>1482</ele>
        <time>2024-08-09T13:55:31Z</time>
      </trkpt>
      <trkpt lat="45.0711" lon="6.16457">
        <ele>1481.6</ele>
        <time>2024-08-09T13:55:32Z</time>
      </trkpt>
      <trkpt lat="45.07109" lon="6.1646">
        <ele>1481.6</ele>
        <time>2024-08-09T13:55:33Z</time>
      </trkpt>
      <trkpt lat="45.07109" lon="6.1646">
        <ele>1481.4</ele>
        <time>2024-08-09T13:55:34Z</time>
      </trkpt>
      <trkpt lat="45.07109" lon="6.16463">
        <ele>1481.2</ele>
        <time>2024-08-09T13:55:35Z</time>
      </trkpt>
      <trkpt lat="45.07109" lon="6.16463">
        <ele>1481</ele>
        <time>2024-08-09T13:55:36Z</time>
      </trkpt>
      <trkpt lat="45.07109" lon="6.16467">
        <ele>1481</ele>
        <time>2024-08-09T13:55:37Z</time>
      </trkpt>
      <trkpt lat="45.07109" lon="6.16467">
        <ele>1481.2</ele>
        <time>2024-08-09T13:55:38Z</time>
      </trkpt>
      <trkpt lat="45.07109" lon="6.1647">
        <ele>1481.2</ele>
        <time>2024-08-09T13:55:39Z</time>
      </trkpt>
      <trkpt lat="45.07111" lon="6.16471">
        <ele>1481.4</ele>
        <time>2024-08-09T13:55:40Z</time>
      </trkpt>
      <trkpt lat="45.07111" lon="6.16471">
        <ele>1481.4</ele>
        <time>2024-08-09T13:55:41Z</time>
      </trkpt>
      <trkpt lat="45.07111" lon="6.16471">
        <ele>1481.8</ele>
        <time>2024-08-09T13:55:42Z</time>
      </trkpt>
      <trkpt lat="45.07112" lon="6.16474">
        <ele>1481.8</ele>
        <time>2024-08-09T13:55:43Z</time>
      </trkpt>
      <trkpt lat="45.07112" lon="6.16474">
        <ele>1481.8</ele>
        <time>2024-08-09T13:55:44Z</time>
      </trkpt>
      <trkpt lat="45.07114" lon="6.16476">
        <ele>1482.2</ele>
        <time>2024-08-09T13:55:45Z</time>
      </trkpt>
      <trkpt lat="45.07114" lon="6.16476">
        <ele>1482.4</ele>
        <time>2024-08-09T13:55:46Z</time>
      </trkpt>
      <trkpt lat="45.07116" lon="6.16479">
        <ele>1482.6</ele>
        <time>2024-08-09T13:55:47Z</time>
      </trkpt>
      <trkpt lat="45.07116" lon="6.16479">
        <ele>1482.8</ele>
        <time>2024-08-09T13:55:48Z</time>
      </trkpt>
      <trkpt lat="45.07117" lon="6.16481">
        <ele>1483</ele>
        <time>2024-08-09T13:55:49Z</time>
      </trkpt>
      <trkpt lat="45.07117" lon="6.16481">
        <ele>1483.4</ele>
        <time>2024-08-09T13:55:50Z</time>
      </trkpt>
      <trkpt lat="45.07118" lon="6.16483">
        <ele>1483.4</ele>
        <time>2024-08-09T13:55:51Z</time>
      </trkpt>
      <trkpt lat="45.07118" lon="6.16483">
        <ele>1483.6</ele>
        <time>2024-08-09T13:55:52Z</time>
      </trkpt>
      <trkpt lat="45.07119" lon="6.16485">
        <ele>1483.6</ele>
        <time>2024-08-09T13:55:53Z</time>
      </trkpt>
      <trkpt lat="45.07119" lon="6.16485">
        <ele>1483.8</ele>
        <time>2024-08-09T13:55:54Z</time>
      </trkpt>
      <trkpt lat="45.07121" lon="6.16487">
        <ele>1483.8</ele>
        <time>2024-08-09T13:55:55Z</time>
      </trkpt>
      <trkpt lat="45.07121" lon="6.16487">
        <ele>1483.8</ele>
        <time>2024-08-09T13:55:56Z</time>
      </trkpt>
      <trkpt lat="45.07124" lon="6.16489">
        <ele>1483.8</ele>
        <time>2024-08-09T13:55:57Z</time>
      </trkpt>
      <trkpt lat="45.07124" lon="6.16489">
        <ele>1483.8</ele>
        <time>2024-08-09T13:55:58Z</time>
      </trkpt>
      <trkpt lat="45.07126" lon="6.16491">
        <ele>1484</ele>
        <time>2024-08-09T13:55:59Z</time>
      </trkpt>
      <trkpt lat="45.07126" lon="6.16491">
        <ele>1484</ele>
        <time>2024-08-09T13:56:00Z</time>
      </trkpt>
      <trkpt lat="45.07128" lon="6.16494">
        <ele>1484</ele>
        <time>2024-08-09T13:56:01Z</time>
      </trkpt>
      <trkpt lat="45.07128" lon="6.16494">
        <ele>1484.2</ele>
        <time>2024-08-09T13:56:02Z</time>
      </trkpt>
      <trkpt lat="45.0713" lon="6.16496">
        <ele>1484.2</ele>
        <time>2024-08-09T13:56:03Z</time>
      </trkpt>
      <trkpt lat="45.0713" lon="6.16496">
        <ele>1484.4</ele>
        <time>2024-08-09T13:56:04Z</time>
      </trkpt>
      <trkpt lat="45.07131" lon="6.16498">
        <ele>1484.4</ele>
        <time>2024-08-09T13:56:05Z</time>
      </trkpt>
      <trkpt lat="45.07131" lon="6.16498">
        <ele>1484.6</ele>
        <time>2024-08-09T13:56:06Z</time>
      </trkpt>
      <trkpt lat="45.07133" lon="6.16501">
        <ele>1484.6</ele>
        <time>2024-08-09T13:56:07Z</time>
      </trkpt>
      <trkpt lat="45.07133" lon="6.16501">
        <ele>1484.6</ele>
        <time>2024-08-09T13:56:08Z</time>
      </trkpt>
      <trkpt lat="45.07134" lon="6.16504">
        <ele>1484.8</ele>
        <time>2024-08-09T13:56:09Z</time>
      </trkpt>
      <trkpt lat="45.07134" lon="6.16504">
        <ele>1484.8</ele>
        <time>2024-08-09T13:56:10Z</time>
      </trkpt>
      <trkpt lat="45.07136" lon="6.16507">
        <ele>1484.8</ele>
        <time>2024-08-09T13:56:11Z</time>
      </trkpt>
      <trkpt lat="45.07136" lon="6.16507">
        <ele>1485</ele>
        <time>2024-08-09T13:56:12Z</time>
      </trkpt>
      <trkpt lat="45.07137" lon="6.16509">
        <ele>1485.2</ele>
        <time>2024-08-09T13:56:13Z</time>
      </trkpt>
      <trkpt lat="45.07137" lon="6.16509">
        <ele>1485.4</ele>
        <time>2024-08-09T13:56:14Z</time>
      </trkpt>
      <trkpt lat="45.07138" lon="6.16512">
        <ele>1485.6</ele>
        <time>2024-08-09T13:56:15Z</time>
      </trkpt>
      <trkpt lat="45.07138" lon="6.16512">
        <ele>1485.6</ele>
        <time>2024-08-09T13:56:16Z</time>
      </trkpt>
      <trkpt lat="45.07139" lon="6.16515">
        <ele>1485.8</ele>
        <time>2024-08-09T13:56:17Z</time>
      </trkpt>
      <trkpt lat="45.07139" lon="6.16515">
        <ele>1485.8</ele>
        <time>2024-08-09T13:56:18Z</time>
      </trkpt>
      <trkpt lat="45.0714" lon="6.16517">
        <ele>1486</ele>
        <time>2024-08-09T13:56:19Z</time>
      </trkpt>
      <trkpt lat="45.0714" lon="6.16517">
        <ele>1486</ele>
        <time>2024-08-09T13:56:20Z</time>
      </trkpt>
      <trkpt lat="45.0714" lon="6.16517">
        <ele>1486</ele>
        <time>2024-08-09T13:56:21Z</time>
      </trkpt>
      <trkpt lat="45.07141" lon="6.16521">
        <ele>1486.2</ele>
        <time>2024-08-09T13:56:22Z</time>
      </trkpt>
      <trkpt lat="45.07141" lon="6.16521">
        <ele>1486.4</ele>
        <time>2024-08-09T13:56:23Z</time>
      </trkpt>
      <trkpt lat="45.07141" lon="6.16524">
        <ele>1486.4</ele>
        <time>2024-08-09T13:56:24Z</time>
      </trkpt>
      <trkpt lat="45.07141" lon="6.16524">
        <ele>1486.6</ele>
        <time>2024-08-09T13:56:25Z</time>
      </trkpt>
      <trkpt lat="45.07141" lon="6.16527">
        <ele>1486.8</ele>
        <time>2024-08-09T13:56:26Z</time>
      </trkpt>
      <trkpt lat="45.07141" lon="6.16527">
        <ele>1487</ele>
        <time>2024-08-09T13:56:27Z</time>
      </trkpt>
      <trkpt lat="45.07141" lon="6.1653">
        <ele>1487</ele>
        <time>2024-08-09T13:56:28Z</time>
      </trkpt>
      <trkpt lat="45.07141" lon="6.1653">
        <ele>1487.4</ele>
        <time>2024-08-09T13:56:29Z</time>
      </trkpt>
      <trkpt lat="45.07142" lon="6.16533">
        <ele>1487.6</ele>
        <time>2024-08-09T13:56:30Z</time>
      </trkpt>
      <trkpt lat="45.07142" lon="6.16533">
        <ele>1487.6</ele>
        <time>2024-08-09T13:56:31Z</time>
      </trkpt>
      <trkpt lat="45.07144" lon="6.16536">
        <ele>1487.8</ele>
        <time>2024-08-09T13:56:32Z</time>
      </trkpt>
      <trkpt lat="45.07144" lon="6.16536">
        <ele>1488</ele>
        <time>2024-08-09T13:56:33Z</time>
      </trkpt>
      <trkpt lat="45.07146" lon="6.16538">
        <ele>1488.4</ele>
        <time>2024-08-09T13:56:34Z</time>
      </trkpt>
      <trkpt lat="45.07146" lon="6.16538">
        <ele>1488.6</ele>
        <time>2024-08-09T13:56:35Z</time>
      </trkpt>
      <trkpt lat="45.07147" lon="6.1654">
        <ele>1488.6</ele>
        <time>2024-08-09T13:56:36Z</time>
      </trkpt>
      <trkpt lat="45.07147" lon="6.1654">
        <ele>1488.8</ele>
        <time>2024-08-09T13:56:37Z</time>
      </trkpt>
      <trkpt lat="45.07148" lon="6.16543">
        <ele>1489</ele>
        <time>2024-08-09T13:56:38Z</time>
      </trkpt>
      <trkpt lat="45.07148" lon="6.16543">
        <ele>1489</ele>
        <time>2024-08-09T13:56:39Z</time>
      </trkpt>
      <trkpt lat="45.07149" lon="6.16546">
        <ele>1489</ele>
        <time>2024-08-09T13:56:40Z</time>
      </trkpt>
      <trkpt lat="45.07149" lon="6.16546">
        <ele>1489.4</ele>
        <time>2024-08-09T13:56:41Z</time>
      </trkpt>
      <trkpt lat="45.07152" lon="6.16548">
        <ele>1489.6</ele>
        <time>2024-08-09T13:56:42Z</time>
      </trkpt>
      <trkpt lat="45.07152" lon="6.16548">
        <ele>1489.6</ele>
        <time>2024-08-09T13:56:43Z</time>
      </trkpt>
      <trkpt lat="45.07152" lon="6.16548">
        <ele>1489.6</ele>
        <time>2024-08-09T13:56:44Z</time>
      </trkpt>
      <trkpt lat="45.07152" lon="6.16548">
        <ele>1489.6</ele>
        <time>2024-08-09T13:56:45Z</time>
      </trkpt>
      <trkpt lat="45.07152" lon="6.16548">
        <ele>1489.6</ele>
        <time>2024-08-09T13:56:46Z</time>
      </trkpt>
      <trkpt lat="45.07152" lon="6.16548">
        <ele>1489.6</ele>
        <time>2024-08-09T13:56:47Z</time>
      </trkpt>
      <trkpt lat="45.07152" lon="6.16548">
        <ele>1489.6</ele>
        <time>2024-08-09T13:56:48Z</time>
      </trkpt>
      <trkpt lat="45.07152" lon="6.16548">
        <ele>1489.6</ele>
        <time>2024-08-09T13:56:49Z</time>
      </trkpt>
      <trkpt lat="45.07152" lon="6.16548">
        <ele>1489.6</ele>
        <time>2024-08-09T13:56:50Z</time>
      </trkpt>
      <trkpt lat="45.07153" lon="6.1655">
        <ele>1489.6</ele>
        <time>2024-08-09T13:56:51Z</time>
      </trkpt>
      <trkpt lat="45.07153" lon="6.1655">
        <ele>1489.6</ele>
        <time>2024-08-09T13:56:52Z</time>
      </trkpt>
      <trkpt lat="45.07156" lon="6.16551">
        <ele>1489.6</ele>
        <time>2024-08-09T13:56:53Z</time>
      </trkpt>
      <trkpt lat="45.07156" lon="6.16551">
        <ele>1489.8</ele>
        <time>2024-08-09T13:56:54Z</time>
      </trkpt>
      <trkpt lat="45.07156" lon="6.16551">
        <ele>1490</ele>
        <time>2024-08-09T13:56:55Z</time>
      </trkpt>
      <trkpt lat="45.07158" lon="6.16552">
        <ele>1490.2</ele>
        <time>2024-08-09T13:56:56Z</time>
      </trkpt>
      <trkpt lat="45.07158" lon="6.16552">
        <ele>1490.4</ele>
        <time>2024-08-09T13:56:57Z</time>
      </trkpt>
      <trkpt lat="45.07158" lon="6.16552">
        <ele>1490.6</ele>
        <time>2024-08-09T13:56:58Z</time>
      </trkpt>
      <trkpt lat="45.07158" lon="6.16552">
        <ele>1490.6</ele>
        <time>2024-08-09T13:56:59Z</time>
      </trkpt>
      <trkpt lat="45.07158" lon="6.16552">
        <ele>1490.8</ele>
        <time>2024-08-09T13:57:00Z</time>
      </trkpt>
      <trkpt lat="45.07158" lon="6.16552">
        <ele>1490.8</ele>
        <time>2024-08-09T13:57:01Z</time>
      </trkpt>
      <trkpt lat="45.07158" lon="6.16552">
        <ele>1490.6</ele>
        <time>2024-08-09T13:57:02Z</time>
      </trkpt>
      <trkpt lat="45.07158" lon="6.16552">
        <ele>1490.6</ele>
        <time>2024-08-09T13:57:03Z</time>
      </trkpt>
      <trkpt lat="45.07158" lon="6.16552">
        <ele>1490.8</ele>
        <time>2024-08-09T13:57:04Z</time>
      </trkpt>
      <trkpt lat="45.07158" lon="6.16552">
        <ele>1491</ele>
        <time>2024-08-09T13:57:05Z</time>
      </trkpt>
      <trkpt lat="45.07158" lon="6.16552">
        <ele>1491.2</ele>
        <time>2024-08-09T13:57:06Z</time>
      </trkpt>
      <trkpt lat="45.07158" lon="6.16552">
        <ele>1491.2</ele>
        <time>2024-08-09T13:57:07Z</time>
      </trkpt>
      <trkpt lat="45.07158" lon="6.16555">
        <ele>1491.2</ele>
        <time>2024-08-09T13:57:08Z</time>
      </trkpt>
      <trkpt lat="45.07158" lon="6.16555">
        <ele>1491.2</ele>
        <time>2024-08-09T13:57:09Z</time>
      </trkpt>
      <trkpt lat="45.07158" lon="6.16555">
        <ele>1491.2</ele>
        <time>2024-08-09T13:57:10Z</time>
      </trkpt>
      <trkpt lat="45.07158" lon="6.16555">
        <ele>1491.2</ele>
        <time>2024-08-09T13:57:11Z</time>
      </trkpt>
      <trkpt lat="45.07158" lon="6.16555">
        <ele>1491.2</ele>
        <time>2024-08-09T13:57:12Z</time>
      </trkpt>
      <trkpt lat="45.07158" lon="6.16555">
        <ele>1491.2</ele>
        <time>2024-08-09T13:57:13Z</time>
      </trkpt>
      <trkpt lat="45.07158" lon="6.16555">
        <ele>1491.2</ele>
        <time>2024-08-09T13:57:14Z</time>
      </trkpt>
      <trkpt lat="45.07158" lon="6.16555">
        <ele>1491.2</ele>
        <time>2024-08-09T13:57:15Z</time>
      </trkpt>
      <trkpt lat="45.07158" lon="6.16555">
        <ele>1491</ele>
        <time>2024-08-09T13:57:16Z</time>
      </trkpt>
      <trkpt lat="45.07158" lon="6.16555">
        <ele>1490.8</ele>
        <time>2024-08-09T13:57:17Z</time>
      </trkpt>
      <trkpt lat="45.07158" lon="6.16555">
        <ele>1490.8</ele>
        <time>2024-08-09T13:57:18Z</time>
      </trkpt>
      <trkpt lat="45.07158" lon="6.16555">
        <ele>1490.8</ele>
        <time>2024-08-09T13:57:19Z</time>
      </trkpt>
      <trkpt lat="45.07158" lon="6.16555">
        <ele>1491</ele>
        <time>2024-08-09T13:57:20Z</time>
      </trkpt>
      <trkpt lat="45.07158" lon="6.16555">
        <ele>1491</ele>
        <time>2024-08-09T13:57:21Z</time>
      </trkpt>
      <trkpt lat="45.07158" lon="6.16555">
        <ele>1491</ele>
        <time>2024-08-09T13:57:22Z</time>
      </trkpt>
      <trkpt lat="45.07158" lon="6.16555">
        <ele>1491</ele>
        <time>2024-08-09T13:57:23Z</time>
      </trkpt>
      <trkpt lat="45.07158" lon="6.16555">
        <ele>1491.2</ele>
        <time>2024-08-09T13:57:24Z</time>
      </trkpt>
      <trkpt lat="45.07158" lon="6.16555">
        <ele>1491</ele>
        <time>2024-08-09T13:57:25Z</time>
      </trkpt>
      <trkpt lat="45.07158" lon="6.16555">
        <ele>1491</ele>
        <time>2024-08-09T13:57:26Z</time>
      </trkpt>
      <trkpt lat="45.07158" lon="6.16555">
        <ele>1491</ele>
        <time>2024-08-09T13:57:27Z</time>
      </trkpt>
      <trkpt lat="45.07158" lon="6.16555">
        <ele>1491</ele>
        <time>2024-08-09T13:57:28Z</time>
      </trkpt>
      <trkpt lat="45.07158" lon="6.16555">
        <ele>1491.4</ele>
        <time>2024-08-09T13:57:29Z</time>
      </trkpt>
      <trkpt lat="45.07158" lon="6.16555">
        <ele>1491.4</ele>
        <time>2024-08-09T13:57:30Z</time>
      </trkpt>
      <trkpt lat="45.07158" lon="6.16555">
        <ele>1491.4</ele>
        <time>2024-08-09T13:57:31Z</time>
      </trkpt>
      <trkpt lat="45.07158" lon="6.16555">
        <ele>1491.4</ele>
        <time>2024-08-09T13:57:32Z</time>
      </trkpt>
      <trkpt lat="45.07157" lon="6.16558">
        <ele>1491.4</ele>
        <time>2024-08-09T13:57:33Z</time>
      </trkpt>
      <trkpt lat="45.07157" lon="6.16558">
        <ele>1491.2</ele>
        <time>2024-08-09T13:57:34Z</time>
      </trkpt>
      <trkpt lat="45.07158" lon="6.1656">
        <ele>1490.8</ele>
        <time>2024-08-09T13:57:35Z</time>
      </trkpt>
      <trkpt lat="45.07158" lon="6.1656">
        <ele>1490.6</ele>
        <time>2024-08-09T13:57:36Z</time>
      </trkpt>
      <trkpt lat="45.07158" lon="6.1656">
        <ele>1490.6</ele>
        <time>2024-08-09T13:57:37Z</time>
      </trkpt>
      <trkpt lat="45.07158" lon="6.16563">
        <ele>1490.6</ele>
        <time>2024-08-09T13:57:38Z</time>
      </trkpt>
      <trkpt lat="45.07158" lon="6.16563">
        <ele>1491</ele>
        <time>2024-08-09T13:57:39Z</time>
      </trkpt>
      <trkpt lat="45.07157" lon="6.16566">
        <ele>1491.4</ele>
        <time>2024-08-09T13:57:40Z</time>
      </trkpt>
      <trkpt lat="45.07157" lon="6.16566">
        <ele>1491.8</ele>
        <time>2024-08-09T13:57:41Z</time>
      </trkpt>
      <trkpt lat="45.07157" lon="6.16566">
        <ele>1492</ele>
        <time>2024-08-09T13:57:42Z</time>
      </trkpt>
      <trkpt lat="45.07157" lon="6.16568">
        <ele>1492</ele>
        <time>2024-08-09T13:57:43Z</time>
      </trkpt>
      <trkpt lat="45.07157" lon="6.16568">
        <ele>1492</ele>
        <time>2024-08-09T13:57:44Z</time>
      </trkpt>
      <trkpt lat="45.07157" lon="6.16568">
        <ele>1492</ele>
        <time>2024-08-09T13:57:45Z</time>
      </trkpt>
      <trkpt lat="45.07157" lon="6.16568">
        <ele>1492.4</ele>
        <time>2024-08-09T13:57:46Z</time>
      </trkpt>
      <trkpt lat="45.07157" lon="6.16568">
        <ele>1492.8</ele>
        <time>2024-08-09T13:57:47Z</time>
      </trkpt>
      <trkpt lat="45.07155" lon="6.1657">
        <ele>1493.2</ele>
        <time>2024-08-09T13:57:48Z</time>
      </trkpt>
      <trkpt lat="45.07155" lon="6.1657">
        <ele>1493.2</ele>
        <time>2024-08-09T13:57:49Z</time>
      </trkpt>
      <trkpt lat="45.07153" lon="6.16573">
        <ele>1493.2</ele>
        <time>2024-08-09T13:57:50Z</time>
      </trkpt>
      <trkpt lat="45.07153" lon="6.16573">
        <ele>1493.2</ele>
        <time>2024-08-09T13:57:51Z</time>
      </trkpt>
      <trkpt lat="45.07152" lon="6.16575">
        <ele>1493.2</ele>
        <time>2024-08-09T13:57:52Z</time>
      </trkpt>
      <trkpt lat="45.07152" lon="6.16575">
        <ele>1493.2</ele>
        <time>2024-08-09T13:57:53Z</time>
      </trkpt>
      <trkpt lat="45.0715" lon="6.16578">
        <ele>1493.2</ele>
        <time>2024-08-09T13:57:54Z</time>
      </trkpt>
      <trkpt lat="45.0715" lon="6.16578">
        <ele>1493.4</ele>
        <time>2024-08-09T13:57:55Z</time>
      </trkpt>
      <trkpt lat="45.07149" lon="6.1658">
        <ele>1493.8</ele>
        <time>2024-08-09T13:57:56Z</time>
      </trkpt>
      <trkpt lat="45.07149" lon="6.1658">
        <ele>1494</ele>
        <time>2024-08-09T13:57:57Z</time>
      </trkpt>
      <trkpt lat="45.07148" lon="6.16583">
        <ele>1494</ele>
        <time>2024-08-09T13:57:58Z</time>
      </trkpt>
      <trkpt lat="45.07148" lon="6.16583">
        <ele>1494.2</ele>
        <time>2024-08-09T13:57:59Z</time>
      </trkpt>
      <trkpt lat="45.07147" lon="6.16586">
        <ele>1494.4</ele>
        <time>2024-08-09T13:58:00Z</time>
      </trkpt>
      <trkpt lat="45.07147" lon="6.16586">
        <ele>1494.4</ele>
        <time>2024-08-09T13:58:01Z</time>
      </trkpt>
      <trkpt lat="45.07145" lon="6.1659">
        <ele>1494.6</ele>
        <time>2024-08-09T13:58:02Z</time>
      </trkpt>
      <trkpt lat="45.07145" lon="6.1659">
        <ele>1494.6</ele>
        <time>2024-08-09T13:58:03Z</time>
      </trkpt>
      <trkpt lat="45.07144" lon="6.16593">
        <ele>1495</ele>
        <time>2024-08-09T13:58:04Z</time>
      </trkpt>
      <trkpt lat="45.07144" lon="6.16593">
        <ele>1495</ele>
        <time>2024-08-09T13:58:05Z</time>
      </trkpt>
      <trkpt lat="45.07143" lon="6.16596">
        <ele>1495</ele>
        <time>2024-08-09T13:58:06Z</time>
      </trkpt>
      <trkpt lat="45.07143" lon="6.16596">
        <ele>1495.2</ele>
        <time>2024-08-09T13:58:07Z</time>
      </trkpt>
      <trkpt lat="45.07142" lon="6.16598">
        <ele>1495.6</ele>
        <time>2024-08-09T13:58:08Z</time>
      </trkpt>
      <trkpt lat="45.07142" lon="6.16598">
        <ele>1495.8</ele>
        <time>2024-08-09T13:58:09Z</time>
      </trkpt>
      <trkpt lat="45.07141" lon="6.16601">
        <ele>1495.8</ele>
        <time>2024-08-09T13:58:10Z</time>
      </trkpt>
      <trkpt lat="45.07141" lon="6.16601">
        <ele>1495.8</ele>
        <time>2024-08-09T13:58:11Z</time>
      </trkpt>
      <trkpt lat="45.07141" lon="6.16604">
        <ele>1495.8</ele>
        <time>2024-08-09T13:58:12Z</time>
      </trkpt>
      <trkpt lat="45.07141" lon="6.16604">
        <ele>1495.8</ele>
        <time>2024-08-09T13:58:13Z</time>
      </trkpt>
      <trkpt lat="45.07141" lon="6.16607">
        <ele>1496</ele>
        <time>2024-08-09T13:58:14Z</time>
      </trkpt>
      <trkpt lat="45.07141" lon="6.16607">
        <ele>1496</ele>
        <time>2024-08-09T13:58:15Z</time>
      </trkpt>
      <trkpt lat="45.07141" lon="6.16609">
        <ele>1496</ele>
        <time>2024-08-09T13:58:16Z</time>
      </trkpt>
      <trkpt lat="45.07141" lon="6.16609">
        <ele>1496.2</ele>
        <time>2024-08-09T13:58:17Z</time>
      </trkpt>
      <trkpt lat="45.07141" lon="6.16612">
        <ele>1496.6</ele>
        <time>2024-08-09T13:58:18Z</time>
      </trkpt>
      <trkpt lat="45.07141" lon="6.16612">
        <ele>1496.8</ele>
        <time>2024-08-09T13:58:19Z</time>
      </trkpt>
      <trkpt lat="45.07139" lon="6.16615">
        <ele>1496.8</ele>
        <time>2024-08-09T13:58:20Z</time>
      </trkpt>
      <trkpt lat="45.07139" lon="6.16615">
        <ele>1496.8</ele>
        <time>2024-08-09T13:58:21Z</time>
      </trkpt>
      <trkpt lat="45.0714" lon="6.16618">
        <ele>1497</ele>
        <time>2024-08-09T13:58:22Z</time>
      </trkpt>
      <trkpt lat="45.0714" lon="6.16618">
        <ele>1497</ele>
        <time>2024-08-09T13:58:23Z</time>
      </trkpt>
      <trkpt lat="45.0714" lon="6.16618">
        <ele>1497</ele>
        <time>2024-08-09T13:58:24Z</time>
      </trkpt>
      <trkpt lat="45.0714" lon="6.16622">
        <ele>1497.2</ele>
        <time>2024-08-09T13:58:25Z</time>
      </trkpt>
      <trkpt lat="45.0714" lon="6.16622">
        <ele>1497.4</ele>
        <time>2024-08-09T13:58:26Z</time>
      </trkpt>
      <trkpt lat="45.07139" lon="6.16626">
        <ele>1497.6</ele>
        <time>2024-08-09T13:58:27Z</time>
      </trkpt>
      <trkpt lat="45.07139" lon="6.16626">
        <ele>1497.6</ele>
        <time>2024-08-09T13:58:28Z</time>
      </trkpt>
      <trkpt lat="45.07141" lon="6.16629">
        <ele>1498</ele>
        <time>2024-08-09T13:58:29Z</time>
      </trkpt>
      <trkpt lat="45.07141" lon="6.16629">
        <ele>1498.2</ele>
        <time>2024-08-09T13:58:30Z</time>
      </trkpt>
      <trkpt lat="45.07141" lon="6.16633">
        <ele>1498.2</ele>
        <time>2024-08-09T13:58:31Z</time>
      </trkpt>
      <trkpt lat="45.07141" lon="6.16633">
        <ele>1498.4</ele>
        <time>2024-08-09T13:58:32Z</time>
      </trkpt>
      <trkpt lat="45.07141" lon="6.16635">
        <ele>1498.4</ele>
        <time>2024-08-09T13:58:33Z</time>
      </trkpt>
      <trkpt lat="45.07141" lon="6.16635">
        <ele>1498.4</ele>
        <time>2024-08-09T13:58:34Z</time>
      </trkpt>
      <trkpt lat="45.07141" lon="6.16638">
        <ele>1498.6</ele>
        <time>2024-08-09T13:58:35Z</time>
      </trkpt>
      <trkpt lat="45.07141" lon="6.16638">
        <ele>1498.8</ele>
        <time>2024-08-09T13:58:36Z</time>
      </trkpt>
      <trkpt lat="45.07141" lon="6.16641">
        <ele>1498.8</ele>
        <time>2024-08-09T13:58:37Z</time>
      </trkpt>
      <trkpt lat="45.07141" lon="6.16641">
        <ele>1499.2</ele>
        <time>2024-08-09T13:58:38Z</time>
      </trkpt>
      <trkpt lat="45.0714" lon="6.16644">
        <ele>1499.4</ele>
        <time>2024-08-09T13:58:39Z</time>
      </trkpt>
      <trkpt lat="45.0714" lon="6.16644">
        <ele>1499.6</ele>
        <time>2024-08-09T13:58:40Z</time>
      </trkpt>
      <trkpt lat="45.0714" lon="6.16644">
        <ele>1499.6</ele>
        <time>2024-08-09T13:58:41Z</time>
      </trkpt>
      <trkpt lat="45.0714" lon="6.16644">
        <ele>1499.8</ele>
        <time>2024-08-09T13:58:42Z</time>
      </trkpt>
      <trkpt lat="45.0714" lon="6.16646">
        <ele>1500.2</ele>
        <time>2024-08-09T13:58:43Z</time>
      </trkpt>
      <trkpt lat="45.0714" lon="6.16646">
        <ele>1500.4</ele>
        <time>2024-08-09T13:58:44Z</time>
      </trkpt>
      <trkpt lat="45.0714" lon="6.16646">
        <ele>1500.4</ele>
        <time>2024-08-09T13:58:45Z</time>
      </trkpt>
      <trkpt lat="45.07141" lon="6.16649">
        <ele>1500.8</ele>
        <time>2024-08-09T13:58:46Z</time>
      </trkpt>
      <trkpt lat="45.07141" lon="6.16649">
        <ele>1500.8</ele>
        <time>2024-08-09T13:58:47Z</time>
      </trkpt>
      <trkpt lat="45.07141" lon="6.16649">
        <ele>1500.8</ele>
        <time>2024-08-09T13:58:48Z</time>
      </trkpt>
      <trkpt lat="45.07141" lon="6.16649">
        <ele>1500.8</ele>
        <time>2024-08-09T13:58:49Z</time>
      </trkpt>
      <trkpt lat="45.07141" lon="6.16651">
        <ele>1501.2</ele>
        <time>2024-08-09T13:58:50Z</time>
      </trkpt>
      <trkpt lat="45.07141" lon="6.16651">
        <ele>1501.6</ele>
        <time>2024-08-09T13:58:51Z</time>
      </trkpt>
      <trkpt lat="45.07141" lon="6.16651">
        <ele>1501.6</ele>
        <time>2024-08-09T13:58:52Z</time>
      </trkpt>
      <trkpt lat="45.07141" lon="6.16651">
        <ele>1501.8</ele>
        <time>2024-08-09T13:58:53Z</time>
      </trkpt>
      <trkpt lat="45.07141" lon="6.16651">
        <ele>1502</ele>
        <time>2024-08-09T13:58:54Z</time>
      </trkpt>
      <trkpt lat="45.07141" lon="6.16651">
        <ele>1502.2</ele>
        <time>2024-08-09T13:58:55Z</time>
      </trkpt>
      <trkpt lat="45.07141" lon="6.16654">
        <ele>1502.4</ele>
        <time>2024-08-09T13:58:56Z</time>
      </trkpt>
      <trkpt lat="45.07141" lon="6.16654">
        <ele>1502.6</ele>
        <time>2024-08-09T13:58:57Z</time>
      </trkpt>
      <trkpt lat="45.07141" lon="6.16654">
        <ele>1502.8</ele>
        <time>2024-08-09T13:58:58Z</time>
      </trkpt>
      <trkpt lat="45.07141" lon="6.16658">
        <ele>1503</ele>
        <time>2024-08-09T13:58:59Z</time>
      </trkpt>
      <trkpt lat="45.07141" lon="6.16658">
        <ele>1503.2</ele>
        <time>2024-08-09T13:59:00Z</time>
      </trkpt>
      <trkpt lat="45.07141" lon="6.16658">
        <ele>1503.2</ele>
        <time>2024-08-09T13:59:01Z</time>
      </trkpt>
      <trkpt lat="45.07141" lon="6.16658">
        <ele>1503.4</ele>
        <time>2024-08-09T13:59:02Z</time>
      </trkpt>
      <trkpt lat="45.07141" lon="6.16662">
        <ele>1503.6</ele>
        <time>2024-08-09T13:59:03Z</time>
      </trkpt>
      <trkpt lat="45.07141" lon="6.16662">
        <ele>1503.6</ele>
        <time>2024-08-09T13:59:04Z</time>
      </trkpt>
      <trkpt lat="45.07141" lon="6.16662">
        <ele>1503.8</ele>
        <time>2024-08-09T13:59:05Z</time>
      </trkpt>
      <trkpt lat="45.07141" lon="6.16666">
        <ele>1504.2</ele>
        <time>2024-08-09T13:59:06Z</time>
      </trkpt>
      <trkpt lat="45.07141" lon="6.16666">
        <ele>1504.2</ele>
        <time>2024-08-09T13:59:07Z</time>
      </trkpt>
      <trkpt lat="45.07138" lon="6.16669">
        <ele>1504.4</ele>
        <time>2024-08-09T13:59:08Z</time>
      </trkpt>
      <trkpt lat="45.07138" lon="6.16669">
        <ele>1504.6</ele>
        <time>2024-08-09T13:59:09Z</time>
      </trkpt>
      <trkpt lat="45.07138" lon="6.16669">
        <ele>1504.8</ele>
        <time>2024-08-09T13:59:10Z</time>
      </trkpt>
      <trkpt lat="45.07137" lon="6.16671">
        <ele>1505</ele>
        <time>2024-08-09T13:59:11Z</time>
      </trkpt>
      <trkpt lat="45.07137" lon="6.16671">
        <ele>1505.4</ele>
        <time>2024-08-09T13:59:12Z</time>
      </trkpt>
      <trkpt lat="45.07137" lon="6.16671">
        <ele>1505.4</ele>
        <time>2024-08-09T13:59:13Z</time>
      </trkpt>
      <trkpt lat="45.07137" lon="6.16671">
        <ele>1505.6</ele>
        <time>2024-08-09T13:59:14Z</time>
      </trkpt>
      <trkpt lat="45.07136" lon="6.16674">
        <ele>1505.6</ele>
        <time>2024-08-09T13:59:15Z</time>
      </trkpt>
      <trkpt lat="45.07136" lon="6.16674">
        <ele>1505.8</ele>
        <time>2024-08-09T13:59:16Z</time>
      </trkpt>
      <trkpt lat="45.07136" lon="6.16674">
        <ele>1506</ele>
        <time>2024-08-09T13:59:17Z</time>
      </trkpt>
      <trkpt lat="45.07137" lon="6.16677">
        <ele>1506.2</ele>
        <time>2024-08-09T13:59:18Z</time>
      </trkpt>
      <trkpt lat="45.07137" lon="6.16677">
        <ele>1506.2</ele>
        <time>2024-08-09T13:59:19Z</time>
      </trkpt>
      <trkpt lat="45.07137" lon="6.16677">
        <ele>1506.6</ele>
        <time>2024-08-09T13:59:20Z</time>
      </trkpt>
      <trkpt lat="45.07137" lon="6.1668">
        <ele>1506.8</ele>
        <time>2024-08-09T13:59:21Z</time>
      </trkpt>
      <trkpt lat="45.07137" lon="6.1668">
        <ele>1506.8</ele>
        <time>2024-08-09T13:59:22Z</time>
      </trkpt>
      <trkpt lat="45.07137" lon="6.1668">
        <ele>1507</ele>
        <time>2024-08-09T13:59:23Z</time>
      </trkpt>
      <trkpt lat="45.07137" lon="6.16684">
        <ele>1507.2</ele>
        <time>2024-08-09T13:59:24Z</time>
      </trkpt>
      <trkpt lat="45.07137" lon="6.16684">
        <ele>1507.4</ele>
        <time>2024-08-09T13:59:25Z</time>
      </trkpt>
      <trkpt lat="45.07137" lon="6.16687">
        <ele>1507.6</ele>
        <time>2024-08-09T13:59:26Z</time>
      </trkpt>
      <trkpt lat="45.07137" lon="6.16687">
        <ele>1507.8</ele>
        <time>2024-08-09T13:59:27Z</time>
      </trkpt>
      <trkpt lat="45.07136" lon="6.16689">
        <ele>1508</ele>
        <time>2024-08-09T13:59:28Z</time>
      </trkpt>
      <trkpt lat="45.07136" lon="6.16689">
        <ele>1508</ele>
        <time>2024-08-09T13:59:29Z</time>
      </trkpt>
      <trkpt lat="45.07136" lon="6.16689">
        <ele>1508.4</ele>
        <time>2024-08-09T13:59:30Z</time>
      </trkpt>
      <trkpt lat="45.07136" lon="6.16689">
        <ele>1508.6</ele>
        <time>2024-08-09T13:59:31Z</time>
      </trkpt>
      <trkpt lat="45.07137" lon="6.16693">
        <ele>1508.6</ele>
        <time>2024-08-09T13:59:32Z</time>
      </trkpt>
      <trkpt lat="45.07137" lon="6.16693">
        <ele>1509</ele>
        <time>2024-08-09T13:59:33Z</time>
      </trkpt>
      <trkpt lat="45.07137" lon="6.16693">
        <ele>1509.2</ele>
        <time>2024-08-09T13:59:34Z</time>
      </trkpt>
      <trkpt lat="45.07138" lon="6.16695">
        <ele>1509.2</ele>
        <time>2024-08-09T13:59:35Z</time>
      </trkpt>
      <trkpt lat="45.07138" lon="6.16695">
        <ele>1509.6</ele>
        <time>2024-08-09T13:59:36Z</time>
      </trkpt>
      <trkpt lat="45.07138" lon="6.16695">
        <ele>1509.6</ele>
        <time>2024-08-09T13:59:37Z</time>
      </trkpt>
      <trkpt lat="45.07138" lon="6.16695">
        <ele>1509.6</ele>
        <time>2024-08-09T13:59:38Z</time>
      </trkpt>
      <trkpt lat="45.07138" lon="6.16695">
        <ele>1510</ele>
        <time>2024-08-09T13:59:39Z</time>
      </trkpt>
      <trkpt lat="45.07138" lon="6.16695">
        <ele>1510.2</ele>
        <time>2024-08-09T13:59:40Z</time>
      </trkpt>
      <trkpt lat="45.07139" lon="6.16697">
        <ele>1510.4</ele>
        <time>2024-08-09T13:59:41Z</time>
      </trkpt>
      <trkpt lat="45.07139" lon="6.16697">
        <ele>1510.4</ele>
        <time>2024-08-09T13:59:42Z</time>
      </trkpt>
      <trkpt lat="45.07139" lon="6.16697">
        <ele>1510.6</ele>
        <time>2024-08-09T13:59:43Z</time>
      </trkpt>
      <trkpt lat="45.07139" lon="6.16697">
        <ele>1510.8</ele>
        <time>2024-08-09T13:59:44Z</time>
      </trkpt>
      <trkpt lat="45.07139" lon="6.16697">
        <ele>1510.8</ele>
        <time>2024-08-09T13:59:45Z</time>
      </trkpt>
      <trkpt lat="45.07139" lon="6.16697">
        <ele>1511.2</ele>
        <time>2024-08-09T13:59:46Z</time>
      </trkpt>
      <trkpt lat="45.07139" lon="6.16697">
        <ele>1511.4</ele>
        <time>2024-08-09T13:59:47Z</time>
      </trkpt>
      <trkpt lat="45.07139" lon="6.16697">
        <ele>1511.6</ele>
        <time>2024-08-09T13:59:48Z</time>
      </trkpt>
      <trkpt lat="45.07139" lon="6.16697">
        <ele>1511.8</ele>
        <time>2024-08-09T13:59:49Z</time>
      </trkpt>
      <trkpt lat="45.07139" lon="6.16697">
        <ele>1512.2</ele>
        <time>2024-08-09T13:59:50Z</time>
      </trkpt>
      <trkpt lat="45.07139" lon="6.16697">
        <ele>1512.2</ele>
        <time>2024-08-09T13:59:51Z</time>
      </trkpt>
      <trkpt lat="45.07139" lon="6.16697">
        <ele>1512.4</ele>
        <time>2024-08-09T13:59:52Z</time>
      </trkpt>
      <trkpt lat="45.07139" lon="6.16697">
        <ele>1512.8</ele>
        <time>2024-08-09T13:59:53Z</time>
      </trkpt>
      <trkpt lat="45.07139" lon="6.167">
        <ele>1512.8</ele>
        <time>2024-08-09T13:59:54Z</time>
      </trkpt>
      <trkpt lat="45.07139" lon="6.167">
        <ele>1513</ele>
        <time>2024-08-09T13:59:55Z</time>
      </trkpt>
      <trkpt lat="45.07138" lon="6.16705">
        <ele>1513.2</ele>
        <time>2024-08-09T13:59:56Z</time>
      </trkpt>
      <trkpt lat="45.07137" lon="6.16708">
        <ele>1513.2</ele>
        <time>2024-08-09T13:59:57Z</time>
      </trkpt>
      <trkpt lat="45.07136" lon="6.1671">
        <ele>1513.2</ele>
        <time>2024-08-09T13:59:58Z</time>
      </trkpt>
      <trkpt lat="45.07136" lon="6.1671">
        <ele>1513.2</ele>
        <time>2024-08-09T13:59:59Z</time>
      </trkpt>
      <trkpt lat="45.07136" lon="6.16714">
        <ele>1513.2</ele>
        <time>2024-08-09T14:00:00Z</time>
      </trkpt>
      <trkpt lat="45.07136" lon="6.16714">
        <ele>1513.8</ele>
        <time>2024-08-09T14:00:01Z</time>
      </trkpt>
      <trkpt lat="45.07136" lon="6.16714">
        <ele>1514.4</ele>
        <time>2024-08-09T14:00:02Z</time>
      </trkpt>
      <trkpt lat="45.07136" lon="6.16714">
        <ele>1514.6</ele>
        <time>2024-08-09T14:00:03Z</time>
      </trkpt>
      <trkpt lat="45.07134" lon="6.16716">
        <ele>1514.6</ele>
        <time>2024-08-09T14:00:04Z</time>
      </trkpt>
      <trkpt lat="45.07134" lon="6.16716">
        <ele>1514.8</ele>
        <time>2024-08-09T14:00:05Z</time>
      </trkpt>
      <trkpt lat="45.07134" lon="6.16716">
        <ele>1515</ele>
        <time>2024-08-09T14:00:06Z</time>
      </trkpt>
      <trkpt lat="45.07134" lon="6.16716">
        <ele>1515.2</ele>
        <time>2024-08-09T14:00:07Z</time>
      </trkpt>
      <trkpt lat="45.07134" lon="6.16716">
        <ele>1515.4</ele>
        <time>2024-08-09T14:00:08Z</time>
      </trkpt>
      <trkpt lat="45.07134" lon="6.16719">
        <ele>1515.4</ele>
        <time>2024-08-09T14:00:09Z</time>
      </trkpt>
      <trkpt lat="45.07134" lon="6.16719">
        <ele>1515.8</ele>
        <time>2024-08-09T14:00:10Z</time>
      </trkpt>
      <trkpt lat="45.07135" lon="6.16722">
        <ele>1515.8</ele>
        <time>2024-08-09T14:00:11Z</time>
      </trkpt>
      <trkpt lat="45.07135" lon="6.16722">
        <ele>1516</ele>
        <time>2024-08-09T14:00:12Z</time>
      </trkpt>
      <trkpt lat="45.07136" lon="6.16725">
        <ele>1516</ele>
        <time>2024-08-09T14:00:13Z</time>
      </trkpt>
      <trkpt lat="45.07136" lon="6.16725">
        <ele>1516.4</ele>
        <time>2024-08-09T14:00:14Z</time>
      </trkpt>
      <trkpt lat="45.07137" lon="6.16728">
        <ele>1516.6</ele>
        <time>2024-08-09T14:00:15Z</time>
      </trkpt>
      <trkpt lat="45.07137" lon="6.16728">
        <ele>1516.6</ele>
        <time>2024-08-09T14:00:16Z</time>
      </trkpt>
      <trkpt lat="45.07138" lon="6.16731">
        <ele>1516.8</ele>
        <time>2024-08-09T14:00:17Z</time>
      </trkpt>
      <trkpt lat="45.07138" lon="6.16731">
        <ele>1517</ele>
        <time>2024-08-09T14:00:18Z</time>
      </trkpt>
      <trkpt lat="45.07138" lon="6.16731">
        <ele>1517.2</ele>
        <time>2024-08-09T14:00:19Z</time>
      </trkpt>
      <trkpt lat="45.07138" lon="6.16731">
        <ele>1517.4</ele>
        <time>2024-08-09T14:00:20Z</time>
      </trkpt>
      <trkpt lat="45.07137" lon="6.16734">
        <ele>1517.8</ele>
        <time>2024-08-09T14:00:21Z</time>
      </trkpt>
      <trkpt lat="45.07137" lon="6.16734">
        <ele>1518</ele>
        <time>2024-08-09T14:00:22Z</time>
      </trkpt>
      <trkpt lat="45.07137" lon="6.16737">
        <ele>1518</ele>
        <time>2024-08-09T14:00:23Z</time>
      </trkpt>
      <trkpt lat="45.07137" lon="6.16737">
        <ele>1518</ele>
        <time>2024-08-09T14:00:24Z</time>
      </trkpt>
      <trkpt lat="45.07137" lon="6.16737">
        <ele>1518.2</ele>
        <time>2024-08-09T14:00:25Z</time>
      </trkpt>
      <trkpt lat="45.07138" lon="6.1674">
        <ele>1518.4</ele>
        <time>2024-08-09T14:00:26Z</time>
      </trkpt>
      <trkpt lat="45.07138" lon="6.1674">
        <ele>1518.4</ele>
        <time>2024-08-09T14:00:27Z</time>
      </trkpt>
      <trkpt lat="45.07138" lon="6.16743">
        <ele>1518.4</ele>
        <time>2024-08-09T14:00:28Z</time>
      </trkpt>
      <trkpt lat="45.07138" lon="6.16743">
        <ele>1518.4</ele>
        <time>2024-08-09T14:00:29Z</time>
      </trkpt>
      <trkpt lat="45.07138" lon="6.16746">
        <ele>1518.6</ele>
        <time>2024-08-09T14:00:30Z</time>
      </trkpt>
      <trkpt lat="45.07138" lon="6.16746">
        <ele>1518.8</ele>
        <time>2024-08-09T14:00:31Z</time>
      </trkpt>
      <trkpt lat="45.07138" lon="6.16746">
        <ele>1519</ele>
        <time>2024-08-09T14:00:32Z</time>
      </trkpt>
      <trkpt lat="45.07137" lon="6.16749">
        <ele>1519.4</ele>
        <time>2024-08-09T14:00:33Z</time>
      </trkpt>
      <trkpt lat="45.07137" lon="6.16749">
        <ele>1519.4</ele>
        <time>2024-08-09T14:00:34Z</time>
      </trkpt>
      <trkpt lat="45.07137" lon="6.16752">
        <ele>1519.4</ele>
        <time>2024-08-09T14:00:35Z</time>
      </trkpt>
      <trkpt lat="45.07137" lon="6.16752">
        <ele>1519.6</ele>
        <time>2024-08-09T14:00:36Z</time>
      </trkpt>
      <trkpt lat="45.07136" lon="6.16755">
        <ele>1520</ele>
        <time>2024-08-09T14:00:37Z</time>
      </trkpt>
      <trkpt lat="45.07136" lon="6.16755">
        <ele>1520</ele>
        <time>2024-08-09T14:00:38Z</time>
      </trkpt>
      <trkpt lat="45.07135" lon="6.16757">
        <ele>1520.2</ele>
        <time>2024-08-09T14:00:39Z</time>
      </trkpt>
      <trkpt lat="45.07135" lon="6.16757">
        <ele>1520.4</ele>
        <time>2024-08-09T14:00:40Z</time>
      </trkpt>
      <trkpt lat="45.07135" lon="6.1676">
        <ele>1520.4</ele>
        <time>2024-08-09T14:00:41Z</time>
      </trkpt>
      <trkpt lat="45.07133" lon="6.1676">
        <ele>1520.4</ele>
        <time>2024-08-09T14:00:42Z</time>
      </trkpt>
      <trkpt lat="45.07133" lon="6.1676">
        <ele>1520.8</ele>
        <time>2024-08-09T14:00:43Z</time>
      </trkpt>
      <trkpt lat="45.07131" lon="6.16762">
        <ele>1520.8</ele>
        <time>2024-08-09T14:00:44Z</time>
      </trkpt>
      <trkpt lat="45.07131" lon="6.16762">
        <ele>1521</ele>
        <time>2024-08-09T14:00:45Z</time>
      </trkpt>
      <trkpt lat="45.0713" lon="6.16765">
        <ele>1521.2</ele>
        <time>2024-08-09T14:00:46Z</time>
      </trkpt>
      <trkpt lat="45.0713" lon="6.16765">
        <ele>1521.2</ele>
        <time>2024-08-09T14:00:47Z</time>
      </trkpt>
      <trkpt lat="45.07129" lon="6.16768">
        <ele>1521.6</ele>
        <time>2024-08-09T14:00:48Z</time>
      </trkpt>
      <trkpt lat="45.07129" lon="6.16768">
        <ele>1521.6</ele>
        <time>2024-08-09T14:00:49Z</time>
      </trkpt>
      <trkpt lat="45.07129" lon="6.16768">
        <ele>1521.6</ele>
        <time>2024-08-09T14:00:50Z</time>
      </trkpt>
      <trkpt lat="45.07128" lon="6.16772">
        <ele>1522</ele>
        <time>2024-08-09T14:00:51Z</time>
      </trkpt>
      <trkpt lat="45.07128" lon="6.16772">
        <ele>1522.2</ele>
        <time>2024-08-09T14:00:52Z</time>
      </trkpt>
      <trkpt lat="45.07128" lon="6.16772">
        <ele>1522.2</ele>
        <time>2024-08-09T14:00:53Z</time>
      </trkpt>
      <trkpt lat="45.07126" lon="6.16775">
        <ele>1522.2</ele>
        <time>2024-08-09T14:00:54Z</time>
      </trkpt>
      <trkpt lat="45.07126" lon="6.16775">
        <ele>1522.2</ele>
        <time>2024-08-09T14:00:55Z</time>
      </trkpt>
      <trkpt lat="45.07126" lon="6.16778">
        <ele>1522.2</ele>
        <time>2024-08-09T14:00:56Z</time>
      </trkpt>
      <trkpt lat="45.07126" lon="6.16778">
        <ele>1522.2</ele>
        <time>2024-08-09T14:00:57Z</time>
      </trkpt>
      <trkpt lat="45.07127" lon="6.16781">
        <ele>1522.4</ele>
        <time>2024-08-09T14:00:58Z</time>
      </trkpt>
      <trkpt lat="45.07127" lon="6.16781">
        <ele>1522.6</ele>
        <time>2024-08-09T14:00:59Z</time>
      </trkpt>
      <trkpt lat="45.07126" lon="6.16784">
        <ele>1522.8</ele>
        <time>2024-08-09T14:01:00Z</time>
      </trkpt>
      <trkpt lat="45.07126" lon="6.16784">
        <ele>1522.8</ele>
        <time>2024-08-09T14:01:01Z</time>
      </trkpt>
      <trkpt lat="45.07125" lon="6.16786">
        <ele>1523.4</ele>
        <time>2024-08-09T14:01:02Z</time>
      </trkpt>
      <trkpt lat="45.07125" lon="6.16786">
        <ele>1523.4</ele>
        <time>2024-08-09T14:01:03Z</time>
      </trkpt>
      <trkpt lat="45.07125" lon="6.16789">
        <ele>1523.6</ele>
        <time>2024-08-09T14:01:04Z</time>
      </trkpt>
      <trkpt lat="45.07125" lon="6.16789">
        <ele>1523.6</ele>
        <time>2024-08-09T14:01:05Z</time>
      </trkpt>
      <trkpt lat="45.07127" lon="6.16792">
        <ele>1523.6</ele>
        <time>2024-08-09T14:01:06Z</time>
      </trkpt>
      <trkpt lat="45.07127" lon="6.16792">
        <ele>1523.6</ele>
        <time>2024-08-09T14:01:07Z</time>
      </trkpt>
      <trkpt lat="45.07127" lon="6.16792">
        <ele>1523.8</ele>
        <time>2024-08-09T14:01:08Z</time>
      </trkpt>
      <trkpt lat="45.07127" lon="6.16796">
        <ele>1524</ele>
        <time>2024-08-09T14:01:09Z</time>
      </trkpt>
      <trkpt lat="45.07127" lon="6.16796">
        <ele>1524.2</ele>
        <time>2024-08-09T14:01:10Z</time>
      </trkpt>
      <trkpt lat="45.07127" lon="6.16796">
        <ele>1524.4</ele>
        <time>2024-08-09T14:01:11Z</time>
      </trkpt>
      <trkpt lat="45.07125" lon="6.16799">
        <ele>1524.6</ele>
        <time>2024-08-09T14:01:12Z</time>
      </trkpt>
      <trkpt lat="45.07125" lon="6.16799">
        <ele>1524.6</ele>
        <time>2024-08-09T14:01:13Z</time>
      </trkpt>
      <trkpt lat="45.07123" lon="6.168">
        <ele>1524.8</ele>
        <time>2024-08-09T14:01:14Z</time>
      </trkpt>
      <trkpt lat="45.07123" lon="6.168">
        <ele>1525</ele>
        <time>2024-08-09T14:01:15Z</time>
      </trkpt>
      <trkpt lat="45.07121" lon="6.16802">
        <ele>1525.2</ele>
        <time>2024-08-09T14:01:16Z</time>
      </trkpt>
      <trkpt lat="45.07121" lon="6.16802">
        <ele>1525.2</ele>
        <time>2024-08-09T14:01:17Z</time>
      </trkpt>
      <trkpt lat="45.0712" lon="6.16805">
        <ele>1525.2</ele>
        <time>2024-08-09T14:01:18Z</time>
      </trkpt>
      <trkpt lat="45.0712" lon="6.16805">
        <ele>1525.6</ele>
        <time>2024-08-09T14:01:19Z</time>
      </trkpt>
      <trkpt lat="45.0712" lon="6.16805">
        <ele>1525.8</ele>
        <time>2024-08-09T14:01:20Z</time>
      </trkpt>
      <trkpt lat="45.07118" lon="6.16807">
        <ele>1526</ele>
        <time>2024-08-09T14:01:21Z</time>
      </trkpt>
      <trkpt lat="45.07118" lon="6.16807">
        <ele>1526.2</ele>
        <time>2024-08-09T14:01:22Z</time>
      </trkpt>
      <trkpt lat="45.07118" lon="6.16807">
        <ele>1526.6</ele>
        <time>2024-08-09T14:01:23Z</time>
      </trkpt>
      <trkpt lat="45.07117" lon="6.16809">
        <ele>1526.6</ele>
        <time>2024-08-09T14:01:24Z</time>
      </trkpt>
      <trkpt lat="45.07117" lon="6.16809">
        <ele>1527</ele>
        <time>2024-08-09T14:01:25Z</time>
      </trkpt>
      <trkpt lat="45.07115" lon="6.16811">
        <ele>1527</ele>
        <time>2024-08-09T14:01:26Z</time>
      </trkpt>
      <trkpt lat="45.07115" lon="6.16811">
        <ele>1527.2</ele>
        <time>2024-08-09T14:01:27Z</time>
      </trkpt>
      <trkpt lat="45.07115" lon="6.16811">
        <ele>1527.6</ele>
        <time>2024-08-09T14:01:28Z</time>
      </trkpt>
      <trkpt lat="45.07115" lon="6.16813">
        <ele>1527.6</ele>
        <time>2024-08-09T14:01:29Z</time>
      </trkpt>
      <trkpt lat="45.07115" lon="6.16813">
        <ele>1527.8</ele>
        <time>2024-08-09T14:01:30Z</time>
      </trkpt>
      <trkpt lat="45.07115" lon="6.16813">
        <ele>1528</ele>
        <time>2024-08-09T14:01:31Z</time>
      </trkpt>
      <trkpt lat="45.07115" lon="6.16813">
        <ele>1528.2</ele>
        <time>2024-08-09T14:01:32Z</time>
      </trkpt>
      <trkpt lat="45.07115" lon="6.16813">
        <ele>1528.2</ele>
        <time>2024-08-09T14:01:33Z</time>
      </trkpt>
      <trkpt lat="45.07115" lon="6.16813">
        <ele>1528.4</ele>
        <time>2024-08-09T14:01:34Z</time>
      </trkpt>
      <trkpt lat="45.07116" lon="6.16816">
        <ele>1528.4</ele>
        <time>2024-08-09T14:01:35Z</time>
      </trkpt>
      <trkpt lat="45.07116" lon="6.16816">
        <ele>1528.4</ele>
        <time>2024-08-09T14:01:36Z</time>
      </trkpt>
      <trkpt lat="45.07116" lon="6.16819">
        <ele>1528.4</ele>
        <time>2024-08-09T14:01:37Z</time>
      </trkpt>
      <trkpt lat="45.07116" lon="6.16819">
        <ele>1528.4</ele>
        <time>2024-08-09T14:01:38Z</time>
      </trkpt>
      <trkpt lat="45.07116" lon="6.16823">
        <ele>1528.6</ele>
        <time>2024-08-09T14:01:39Z</time>
      </trkpt>
      <trkpt lat="45.07116" lon="6.16823">
        <ele>1528.6</ele>
        <time>2024-08-09T14:01:40Z</time>
      </trkpt>
      <trkpt lat="45.07117" lon="6.16826">
        <ele>1528.6</ele>
        <time>2024-08-09T14:01:41Z</time>
      </trkpt>
      <trkpt lat="45.07117" lon="6.16826">
        <ele>1528.4</ele>
        <time>2024-08-09T14:01:42Z</time>
      </trkpt>
      <trkpt lat="45.07118" lon="6.16828">
        <ele>1528.4</ele>
        <time>2024-08-09T14:01:43Z</time>
      </trkpt>
      <trkpt lat="45.07118" lon="6.16828">
        <ele>1528.4</ele>
        <time>2024-08-09T14:01:44Z</time>
      </trkpt>
      <trkpt lat="45.07117" lon="6.16831">
        <ele>1528.4</ele>
        <time>2024-08-09T14:01:45Z</time>
      </trkpt>
      <trkpt lat="45.07117" lon="6.16831">
        <ele>1528.6</ele>
        <time>2024-08-09T14:01:46Z</time>
      </trkpt>
      <trkpt lat="45.07116" lon="6.16834">
        <ele>1528.8</ele>
        <time>2024-08-09T14:01:47Z</time>
      </trkpt>
      <trkpt lat="45.07116" lon="6.16834">
        <ele>1528.8</ele>
        <time>2024-08-09T14:01:48Z</time>
      </trkpt>
      <trkpt lat="45.07115" lon="6.16836">
        <ele>1529.2</ele>
        <time>2024-08-09T14:01:49Z</time>
      </trkpt>
      <trkpt lat="45.07115" lon="6.16836">
        <ele>1529.2</ele>
        <time>2024-08-09T14:01:50Z</time>
      </trkpt>
      <trkpt lat="45.07113" lon="6.16839">
        <ele>1529.4</ele>
        <time>2024-08-09T14:01:51Z</time>
      </trkpt>
      <trkpt lat="45.07113" lon="6.16839">
        <ele>1529.4</ele>
        <time>2024-08-09T14:01:52Z</time>
      </trkpt>
      <trkpt lat="45.07112" lon="6.16842">
        <ele>1529.4</ele>
        <time>2024-08-09T14:01:53Z</time>
      </trkpt>
      <trkpt lat="45.07112" lon="6.16842">
        <ele>1529.4</ele>
        <time>2024-08-09T14:01:54Z</time>
      </trkpt>
      <trkpt lat="45.07111" lon="6.16845">
        <ele>1529.8</ele>
        <time>2024-08-09T14:01:55Z</time>
      </trkpt>
      <trkpt lat="45.07111" lon="6.16845">
        <ele>1530</ele>
        <time>2024-08-09T14:01:56Z</time>
      </trkpt>
      <trkpt lat="45.07111" lon="6.16848">
        <ele>1530.4</ele>
        <time>2024-08-09T14:01:57Z</time>
      </trkpt>
      <trkpt lat="45.07111" lon="6.16848">
        <ele>1530.4</ele>
        <time>2024-08-09T14:01:58Z</time>
      </trkpt>
      <trkpt lat="45.07111" lon="6.16851">
        <ele>1530.6</ele>
        <time>2024-08-09T14:01:59Z</time>
      </trkpt>
      <trkpt lat="45.07111" lon="6.16851">
        <ele>1530.8</ele>
        <time>2024-08-09T14:02:00Z</time>
      </trkpt>
      <trkpt lat="45.07111" lon="6.16854">
        <ele>1531.4</ele>
        <time>2024-08-09T14:02:01Z</time>
      </trkpt>
      <trkpt lat="45.07111" lon="6.16854">
        <ele>1531.6</ele>
        <time>2024-08-09T14:02:02Z</time>
      </trkpt>
      <trkpt lat="45.07111" lon="6.16854">
        <ele>1531.6</ele>
        <time>2024-08-09T14:02:03Z</time>
      </trkpt>
      <trkpt lat="45.0711" lon="6.16857">
        <ele>1531.4</ele>
        <time>2024-08-09T14:02:04Z</time>
      </trkpt>
      <trkpt lat="45.0711" lon="6.16857">
        <ele>1531.4</ele>
        <time>2024-08-09T14:02:05Z</time>
      </trkpt>
      <trkpt lat="45.0711" lon="6.1686">
        <ele>1531.8</ele>
        <time>2024-08-09T14:02:06Z</time>
      </trkpt>
      <trkpt lat="45.0711" lon="6.1686">
        <ele>1532</ele>
        <time>2024-08-09T14:02:07Z</time>
      </trkpt>
      <trkpt lat="45.0711" lon="6.1686">
        <ele>1532</ele>
        <time>2024-08-09T14:02:08Z</time>
      </trkpt>
      <trkpt lat="45.07109" lon="6.16864">
        <ele>1532.2</ele>
        <time>2024-08-09T14:02:09Z</time>
      </trkpt>
      <trkpt lat="45.07109" lon="6.16864">
        <ele>1532.2</ele>
        <time>2024-08-09T14:02:10Z</time>
      </trkpt>
      <trkpt lat="45.07109" lon="6.16864">
        <ele>1532.6</ele>
        <time>2024-08-09T14:02:11Z</time>
      </trkpt>
      <trkpt lat="45.07108" lon="6.16867">
        <ele>1532.6</ele>
        <time>2024-08-09T14:02:12Z</time>
      </trkpt>
      <trkpt lat="45.07108" lon="6.16867">
        <ele>1533</ele>
        <time>2024-08-09T14:02:13Z</time>
      </trkpt>
      <trkpt lat="45.07108" lon="6.1687">
        <ele>1533.2</ele>
        <time>2024-08-09T14:02:14Z</time>
      </trkpt>
      <trkpt lat="45.07108" lon="6.1687">
        <ele>1533.4</ele>
        <time>2024-08-09T14:02:15Z</time>
      </trkpt>
      <trkpt lat="45.07107" lon="6.16872">
        <ele>1533.6</ele>
        <time>2024-08-09T14:02:16Z</time>
      </trkpt>
      <trkpt lat="45.07107" lon="6.16872">
        <ele>1533.6</ele>
        <time>2024-08-09T14:02:17Z</time>
      </trkpt>
      <trkpt lat="45.07107" lon="6.16875">
        <ele>1533.6</ele>
        <time>2024-08-09T14:02:18Z</time>
      </trkpt>
      <trkpt lat="45.07107" lon="6.16875">
        <ele>1533.8</ele>
        <time>2024-08-09T14:02:19Z</time>
      </trkpt>
      <trkpt lat="45.07107" lon="6.16878">
        <ele>1534</ele>
        <time>2024-08-09T14:02:20Z</time>
      </trkpt>
      <trkpt lat="45.07107" lon="6.16878">
        <ele>1534</ele>
        <time>2024-08-09T14:02:21Z</time>
      </trkpt>
      <trkpt lat="45.07106" lon="6.16881">
        <ele>1534</ele>
        <time>2024-08-09T14:02:22Z</time>
      </trkpt>
      <trkpt lat="45.07106" lon="6.16881">
        <ele>1534.2</ele>
        <time>2024-08-09T14:02:23Z</time>
      </trkpt>
      <trkpt lat="45.07106" lon="6.16881">
        <ele>1534.4</ele>
        <time>2024-08-09T14:02:24Z</time>
      </trkpt>
      <trkpt lat="45.07105" lon="6.16884">
        <ele>1534.6</ele>
        <time>2024-08-09T14:02:25Z</time>
      </trkpt>
      <trkpt lat="45.07105" lon="6.16884">
        <ele>1534.8</ele>
        <time>2024-08-09T14:02:26Z</time>
      </trkpt>
      <trkpt lat="45.07105" lon="6.16884">
        <ele>1535.2</ele>
        <time>2024-08-09T14:02:27Z</time>
      </trkpt>
      <trkpt lat="45.07104" lon="6.16887">
        <ele>1535.6</ele>
        <time>2024-08-09T14:02:28Z</time>
      </trkpt>
      <trkpt lat="45.07104" lon="6.16887">
        <ele>1535.6</ele>
        <time>2024-08-09T14:02:29Z</time>
      </trkpt>
      <trkpt lat="45.07104" lon="6.16887">
        <ele>1535.8</ele>
        <time>2024-08-09T14:02:30Z</time>
      </trkpt>
      <trkpt lat="45.07104" lon="6.16887">
        <ele>1536</ele>
        <time>2024-08-09T14:02:31Z</time>
      </trkpt>
      <trkpt lat="45.07104" lon="6.16887">
        <ele>1536</ele>
        <time>2024-08-09T14:02:32Z</time>
      </trkpt>
      <trkpt lat="45.07104" lon="6.16887">
        <ele>1536</ele>
        <time>2024-08-09T14:02:33Z</time>
      </trkpt>
      <trkpt lat="45.07104" lon="6.16887">
        <ele>1536</ele>
        <time>2024-08-09T14:02:34Z</time>
      </trkpt>
      <trkpt lat="45.07104" lon="6.16887">
        <ele>1536</ele>
        <time>2024-08-09T14:02:35Z</time>
      </trkpt>
      <trkpt lat="45.07104" lon="6.16887">
        <ele>1536.2</ele>
        <time>2024-08-09T14:02:36Z</time>
      </trkpt>
      <trkpt lat="45.07104" lon="6.16887">
        <ele>1536.4</ele>
        <time>2024-08-09T14:02:37Z</time>
      </trkpt>
      <trkpt lat="45.07104" lon="6.16887">
        <ele>1536.4</ele>
        <time>2024-08-09T14:02:38Z</time>
      </trkpt>
      <trkpt lat="45.07104" lon="6.16887">
        <ele>1535.8</ele>
        <time>2024-08-09T14:02:39Z</time>
      </trkpt>
      <trkpt lat="45.07104" lon="6.16887">
        <ele>1535.8</ele>
        <time>2024-08-09T14:02:40Z</time>
      </trkpt>
      <trkpt lat="45.07104" lon="6.16887">
        <ele>1535.8</ele>
        <time>2024-08-09T14:02:41Z</time>
      </trkpt>
      <trkpt lat="45.07104" lon="6.16887">
        <ele>1535.8</ele>
        <time>2024-08-09T14:02:42Z</time>
      </trkpt>
      <trkpt lat="45.07104" lon="6.16887">
        <ele>1536.4</ele>
        <time>2024-08-09T14:02:43Z</time>
      </trkpt>
      <trkpt lat="45.07104" lon="6.16887">
        <ele>1536.6</ele>
        <time>2024-08-09T14:02:44Z</time>
      </trkpt>
      <trkpt lat="45.07105" lon="6.16889">
        <ele>1537</ele>
        <time>2024-08-09T14:02:45Z</time>
      </trkpt>
      <trkpt lat="45.07105" lon="6.16889">
        <ele>1537</ele>
        <time>2024-08-09T14:02:46Z</time>
      </trkpt>
      <trkpt lat="45.07106" lon="6.16893">
        <ele>1537.2</ele>
        <time>2024-08-09T14:02:47Z</time>
      </trkpt>
      <trkpt lat="45.07108" lon="6.16895">
        <ele>1537.4</ele>
        <time>2024-08-09T14:02:48Z</time>
      </trkpt>
      <trkpt lat="45.07108" lon="6.16895">
        <ele>1537.4</ele>
        <time>2024-08-09T14:02:49Z</time>
      </trkpt>
      <trkpt lat="45.0711" lon="6.16898">
        <ele>1537.4</ele>
        <time>2024-08-09T14:02:50Z</time>
      </trkpt>
      <trkpt lat="45.0711" lon="6.16898">
        <ele>1537.6</ele>
        <time>2024-08-09T14:02:51Z</time>
      </trkpt>
      <trkpt lat="45.07112" lon="6.169">
        <ele>1538</ele>
        <time>2024-08-09T14:02:52Z</time>
      </trkpt>
      <trkpt lat="45.07112" lon="6.169">
        <ele>1538</ele>
        <time>2024-08-09T14:02:53Z</time>
      </trkpt>
      <trkpt lat="45.07114" lon="6.16903">
        <ele>1538</ele>
        <time>2024-08-09T14:02:54Z</time>
      </trkpt>
      <trkpt lat="45.07114" lon="6.16903">
        <ele>1538.4</ele>
        <time>2024-08-09T14:02:55Z</time>
      </trkpt>
      <trkpt lat="45.07116" lon="6.16905">
        <ele>1538.6</ele>
        <time>2024-08-09T14:02:56Z</time>
      </trkpt>
      <trkpt lat="45.07116" lon="6.16905">
        <ele>1538.8</ele>
        <time>2024-08-09T14:02:57Z</time>
      </trkpt>
      <trkpt lat="45.07117" lon="6.16907">
        <ele>1539.2</ele>
        <time>2024-08-09T14:02:58Z</time>
      </trkpt>
      <trkpt lat="45.07117" lon="6.16907">
        <ele>1539.6</ele>
        <time>2024-08-09T14:02:59Z</time>
      </trkpt>
      <trkpt lat="45.07117" lon="6.16907">
        <ele>1539.6</ele>
        <time>2024-08-09T14:03:00Z</time>
      </trkpt>
      <trkpt lat="45.07119" lon="6.1691">
        <ele>1539.6</ele>
        <time>2024-08-09T14:03:01Z</time>
      </trkpt>
      <trkpt lat="45.07119" lon="6.1691">
        <ele>1539.8</ele>
        <time>2024-08-09T14:03:02Z</time>
      </trkpt>
      <trkpt lat="45.07119" lon="6.1691">
        <ele>1539.8</ele>
        <time>2024-08-09T14:03:03Z</time>
      </trkpt>
      <trkpt lat="45.07121" lon="6.16913">
        <ele>1539.8</ele>
        <time>2024-08-09T14:03:04Z</time>
      </trkpt>
      <trkpt lat="45.07121" lon="6.16913">
        <ele>1539.8</ele>
        <time>2024-08-09T14:03:05Z</time>
      </trkpt>
      <trkpt lat="45.07121" lon="6.16913">
        <ele>1540.2</ele>
        <time>2024-08-09T14:03:06Z</time>
      </trkpt>
      <trkpt lat="45.07122" lon="6.16916">
        <ele>1540.4</ele>
        <time>2024-08-09T14:03:07Z</time>
      </trkpt>
      <trkpt lat="45.07122" lon="6.16916">
        <ele>1540.8</ele>
        <time>2024-08-09T14:03:08Z</time>
      </trkpt>
      <trkpt lat="45.07123" lon="6.16918">
        <ele>1541</ele>
        <time>2024-08-09T14:03:09Z</time>
      </trkpt>
      <trkpt lat="45.07123" lon="6.16918">
        <ele>1541</ele>
        <time>2024-08-09T14:03:10Z</time>
      </trkpt>
      <trkpt lat="45.07123" lon="6.16918">
        <ele>1541.2</ele>
        <time>2024-08-09T14:03:11Z</time>
      </trkpt>
      <trkpt lat="45.07125" lon="6.16919">
        <ele>1541.6</ele>
        <time>2024-08-09T14:03:12Z</time>
      </trkpt>
      <trkpt lat="45.07125" lon="6.16919">
        <ele>1541.8</ele>
        <time>2024-08-09T14:03:13Z</time>
      </trkpt>
      <trkpt lat="45.07125" lon="6.16919">
        <ele>1541.8</ele>
        <time>2024-08-09T14:03:14Z</time>
      </trkpt>
      <trkpt lat="45.07126" lon="6.16922">
        <ele>1542</ele>
        <time>2024-08-09T14:03:15Z</time>
      </trkpt>
      <trkpt lat="45.07126" lon="6.16922">
        <ele>1542</ele>
        <time>2024-08-09T14:03:16Z</time>
      </trkpt>
      <trkpt lat="45.07126" lon="6.16922">
        <ele>1542</ele>
        <time>2024-08-09T14:03:17Z</time>
      </trkpt>
      <trkpt lat="45.07127" lon="6.16925">
        <ele>1542.2</ele>
        <time>2024-08-09T14:03:18Z</time>
      </trkpt>
      <trkpt lat="45.07127" lon="6.16925">
        <ele>1542.4</ele>
        <time>2024-08-09T14:03:19Z</time>
      </trkpt>
      <trkpt lat="45.07129" lon="6.16927">
        <ele>1542.6</ele>
        <time>2024-08-09T14:03:20Z</time>
      </trkpt>
      <trkpt lat="45.07129" lon="6.16927">
        <ele>1542.8</ele>
        <time>2024-08-09T14:03:21Z</time>
      </trkpt>
      <trkpt lat="45.07129" lon="6.1693">
        <ele>1543</ele>
        <time>2024-08-09T14:03:22Z</time>
      </trkpt>
      <trkpt lat="45.07129" lon="6.1693">
        <ele>1543.2</ele>
        <time>2024-08-09T14:03:23Z</time>
      </trkpt>
      <trkpt lat="45.07129" lon="6.16933">
        <ele>1543.4</ele>
        <time>2024-08-09T14:03:24Z</time>
      </trkpt>
      <trkpt lat="45.07129" lon="6.16933">
        <ele>1543.6</ele>
        <time>2024-08-09T14:03:25Z</time>
      </trkpt>
      <trkpt lat="45.07129" lon="6.16936">
        <ele>1543.8</ele>
        <time>2024-08-09T14:03:26Z</time>
      </trkpt>
      <trkpt lat="45.07129" lon="6.16936">
        <ele>1544</ele>
        <time>2024-08-09T14:03:27Z</time>
      </trkpt>
      <trkpt lat="45.07131" lon="6.16939">
        <ele>1544</ele>
        <time>2024-08-09T14:03:28Z</time>
      </trkpt>
      <trkpt lat="45.07131" lon="6.16939">
        <ele>1544.2</ele>
        <time>2024-08-09T14:03:29Z</time>
      </trkpt>
      <trkpt lat="45.07131" lon="6.16939">
        <ele>1544.4</ele>
        <time>2024-08-09T14:03:30Z</time>
      </trkpt>
      <trkpt lat="45.07131" lon="6.16941">
        <ele>1544.6</ele>
        <time>2024-08-09T14:03:31Z</time>
      </trkpt>
      <trkpt lat="45.07131" lon="6.16941">
        <ele>1544.8</ele>
        <time>2024-08-09T14:03:32Z</time>
      </trkpt>
      <trkpt lat="45.07131" lon="6.16941">
        <ele>1544.8</ele>
        <time>2024-08-09T14:03:33Z</time>
      </trkpt>
      <trkpt lat="45.0713" lon="6.16945">
        <ele>1545</ele>
        <time>2024-08-09T14:03:34Z</time>
      </trkpt>
      <trkpt lat="45.0713" lon="6.16945">
        <ele>1545.2</ele>
        <time>2024-08-09T14:03:35Z</time>
      </trkpt>
      <trkpt lat="45.0713" lon="6.16949">
        <ele>1545.4</ele>
        <time>2024-08-09T14:03:36Z</time>
      </trkpt>
      <trkpt lat="45.0713" lon="6.16949">
        <ele>1545.6</ele>
        <time>2024-08-09T14:03:37Z</time>
      </trkpt>
      <trkpt lat="45.07132" lon="6.16951">
        <ele>1545.6</ele>
        <time>2024-08-09T14:03:38Z</time>
      </trkpt>
      <trkpt lat="45.07132" lon="6.16951">
        <ele>1545.8</ele>
        <time>2024-08-09T14:03:39Z</time>
      </trkpt>
      <trkpt lat="45.07133" lon="6.16954">
        <ele>1546</ele>
        <time>2024-08-09T14:03:40Z</time>
      </trkpt>
      <trkpt lat="45.07133" lon="6.16954">
        <ele>1546</ele>
        <time>2024-08-09T14:03:41Z</time>
      </trkpt>
      <trkpt lat="45.07135" lon="6.16956">
        <ele>1546.2</ele>
        <time>2024-08-09T14:03:42Z</time>
      </trkpt>
      <trkpt lat="45.07135" lon="6.16956">
        <ele>1546.8</ele>
        <time>2024-08-09T14:03:43Z</time>
      </trkpt>
      <trkpt lat="45.07138" lon="6.16956">
        <ele>1547</ele>
        <time>2024-08-09T14:03:44Z</time>
      </trkpt>
      <trkpt lat="45.07138" lon="6.16956">
        <ele>1547.2</ele>
        <time>2024-08-09T14:03:45Z</time>
      </trkpt>
      <trkpt lat="45.0714" lon="6.16957">
        <ele>1547.2</ele>
        <time>2024-08-09T14:03:46Z</time>
      </trkpt>
      <trkpt lat="45.0714" lon="6.16957">
        <ele>1547.6</ele>
        <time>2024-08-09T14:03:47Z</time>
      </trkpt>
      <trkpt lat="45.07141" lon="6.1696">
        <ele>1547.6</ele>
        <time>2024-08-09T14:03:48Z</time>
      </trkpt>
      <trkpt lat="45.07141" lon="6.1696">
        <ele>1547.8</ele>
        <time>2024-08-09T14:03:49Z</time>
      </trkpt>
      <trkpt lat="45.07141" lon="6.16963">
        <ele>1548</ele>
        <time>2024-08-09T14:03:50Z</time>
      </trkpt>
      <trkpt lat="45.07143" lon="6.16965">
        <ele>1548.2</ele>
        <time>2024-08-09T14:03:51Z</time>
      </trkpt>
      <trkpt lat="45.07143" lon="6.16965">
        <ele>1548.4</ele>
        <time>2024-08-09T14:03:52Z</time>
      </trkpt>
      <trkpt lat="45.07143" lon="6.16965">
        <ele>1548.8</ele>
        <time>2024-08-09T14:03:53Z</time>
      </trkpt>
      <trkpt lat="45.07144" lon="6.16967">
        <ele>1548.8</ele>
        <time>2024-08-09T14:03:54Z</time>
      </trkpt>
      <trkpt lat="45.07144" lon="6.16967">
        <ele>1549</ele>
        <time>2024-08-09T14:03:55Z</time>
      </trkpt>
      <trkpt lat="45.07144" lon="6.16967">
        <ele>1549.2</ele>
        <time>2024-08-09T14:03:56Z</time>
      </trkpt>
      <trkpt lat="45.07146" lon="6.16969">
        <ele>1549.2</ele>
        <time>2024-08-09T14:03:57Z</time>
      </trkpt>
      <trkpt lat="45.07146" lon="6.16969">
        <ele>1549.6</ele>
        <time>2024-08-09T14:03:58Z</time>
      </trkpt>
      <trkpt lat="45.07148" lon="6.1697">
        <ele>1549.8</ele>
        <time>2024-08-09T14:03:59Z</time>
      </trkpt>
      <trkpt lat="45.07148" lon="6.1697">
        <ele>1549.8</ele>
        <time>2024-08-09T14:04:00Z</time>
      </trkpt>
      <trkpt lat="45.07148" lon="6.1697">
        <ele>1550</ele>
        <time>2024-08-09T14:04:01Z</time>
      </trkpt>
      <trkpt lat="45.07149" lon="6.16973">
        <ele>1550.6</ele>
        <time>2024-08-09T14:04:02Z</time>
      </trkpt>
      <trkpt lat="45.07149" lon="6.16973">
        <ele>1550.6</ele>
        <time>2024-08-09T14:04:03Z</time>
      </trkpt>
      <trkpt lat="45.07151" lon="6.16975">
        <ele>1550.6</ele>
        <time>2024-08-09T14:04:04Z</time>
      </trkpt>
      <trkpt lat="45.07151" lon="6.16975">
        <ele>1550.6</ele>
        <time>2024-08-09T14:04:05Z</time>
      </trkpt>
      <trkpt lat="45.07153" lon="6.16977">
        <ele>1550.8</ele>
        <time>2024-08-09T14:04:06Z</time>
      </trkpt>
      <trkpt lat="45.07153" lon="6.16977">
        <ele>1551</ele>
        <time>2024-08-09T14:04:07Z</time>
      </trkpt>
      <trkpt lat="45.07155" lon="6.16981">
        <ele>1551</ele>
        <time>2024-08-09T14:04:08Z</time>
      </trkpt>
      <trkpt lat="45.07155" lon="6.16981">
        <ele>1551</ele>
        <time>2024-08-09T14:04:09Z</time>
      </trkpt>
      <trkpt lat="45.07155" lon="6.16985">
        <ele>1551.2</ele>
        <time>2024-08-09T14:04:10Z</time>
      </trkpt>
      <trkpt lat="45.07155" lon="6.16985">
        <ele>1551.2</ele>
        <time>2024-08-09T14:04:11Z</time>
      </trkpt>
      <trkpt lat="45.07155" lon="6.16988">
        <ele>1551.4</ele>
        <time>2024-08-09T14:04:12Z</time>
      </trkpt>
      <trkpt lat="45.07155" lon="6.16988">
        <ele>1551.4</ele>
        <time>2024-08-09T14:04:13Z</time>
      </trkpt>
      <trkpt lat="45.07157" lon="6.16991">
        <ele>1551.4</ele>
        <time>2024-08-09T14:04:14Z</time>
      </trkpt>
      <trkpt lat="45.07157" lon="6.16991">
        <ele>1551.4</ele>
        <time>2024-08-09T14:04:15Z</time>
      </trkpt>
      <trkpt lat="45.07158" lon="6.16993">
        <ele>1551.6</ele>
        <time>2024-08-09T14:04:16Z</time>
      </trkpt>
      <trkpt lat="45.07158" lon="6.16993">
        <ele>1551.6</ele>
        <time>2024-08-09T14:04:17Z</time>
      </trkpt>
      <trkpt lat="45.07159" lon="6.16996">
        <ele>1551.6</ele>
        <time>2024-08-09T14:04:18Z</time>
      </trkpt>
      <trkpt lat="45.07159" lon="6.16996">
        <ele>1551.6</ele>
        <time>2024-08-09T14:04:19Z</time>
      </trkpt>
      <trkpt lat="45.07159" lon="6.16998">
        <ele>1551.6</ele>
        <time>2024-08-09T14:04:20Z</time>
      </trkpt>
      <trkpt lat="45.07159" lon="6.16998">
        <ele>1552</ele>
        <time>2024-08-09T14:04:21Z</time>
      </trkpt>
      <trkpt lat="45.0716" lon="6.17001">
        <ele>1552</ele>
        <time>2024-08-09T14:04:22Z</time>
      </trkpt>
      <trkpt lat="45.0716" lon="6.17001">
        <ele>1552.2</ele>
        <time>2024-08-09T14:04:23Z</time>
      </trkpt>
      <trkpt lat="45.07162" lon="6.17003">
        <ele>1552.6</ele>
        <time>2024-08-09T14:04:24Z</time>
      </trkpt>
      <trkpt lat="45.07162" lon="6.17003">
        <ele>1552.8</ele>
        <time>2024-08-09T14:04:25Z</time>
      </trkpt>
      <trkpt lat="45.07162" lon="6.17006">
        <ele>1552.8</ele>
        <time>2024-08-09T14:04:26Z</time>
      </trkpt>
      <trkpt lat="45.07162" lon="6.17006">
        <ele>1552.8</ele>
        <time>2024-08-09T14:04:27Z</time>
      </trkpt>
      <trkpt lat="45.07162" lon="6.17009">
        <ele>1553</ele>
        <time>2024-08-09T14:04:28Z</time>
      </trkpt>
      <trkpt lat="45.07162" lon="6.17009">
        <ele>1553.2</ele>
        <time>2024-08-09T14:04:29Z</time>
      </trkpt>
      <trkpt lat="45.07163" lon="6.17012">
        <ele>1553.2</ele>
        <time>2024-08-09T14:04:30Z</time>
      </trkpt>
      <trkpt lat="45.07163" lon="6.17012">
        <ele>1553.2</ele>
        <time>2024-08-09T14:04:31Z</time>
      </trkpt>
      <trkpt lat="45.07164" lon="6.17016">
        <ele>1553.2</ele>
        <time>2024-08-09T14:04:32Z</time>
      </trkpt>
      <trkpt lat="45.07164" lon="6.17016">
        <ele>1553.2</ele>
        <time>2024-08-09T14:04:33Z</time>
      </trkpt>
      <trkpt lat="45.07165" lon="6.17019">
        <ele>1553.2</ele>
        <time>2024-08-09T14:04:34Z</time>
      </trkpt>
      <trkpt lat="45.07165" lon="6.17019">
        <ele>1553.2</ele>
        <time>2024-08-09T14:04:35Z</time>
      </trkpt>
      <trkpt lat="45.07165" lon="6.17023">
        <ele>1553.4</ele>
        <time>2024-08-09T14:04:36Z</time>
      </trkpt>
      <trkpt lat="45.07165" lon="6.17023">
        <ele>1553.6</ele>
        <time>2024-08-09T14:04:37Z</time>
      </trkpt>
      <trkpt lat="45.07165" lon="6.17026">
        <ele>1553.6</ele>
        <time>2024-08-09T14:04:38Z</time>
      </trkpt>
      <trkpt lat="45.07165" lon="6.17026">
        <ele>1553.8</ele>
        <time>2024-08-09T14:04:39Z</time>
      </trkpt>
      <trkpt lat="45.07167" lon="6.1703">
        <ele>1554</ele>
        <time>2024-08-09T14:04:40Z</time>
      </trkpt>
      <trkpt lat="45.07167" lon="6.1703">
        <ele>1554.2</ele>
        <time>2024-08-09T14:04:41Z</time>
      </trkpt>
      <trkpt lat="45.07168" lon="6.17032">
        <ele>1554.2</ele>
        <time>2024-08-09T14:04:42Z</time>
      </trkpt>
      <trkpt lat="45.07168" lon="6.17032">
        <ele>1554.4</ele>
        <time>2024-08-09T14:04:43Z</time>
      </trkpt>
      <trkpt lat="45.0717" lon="6.17036">
        <ele>1554.6</ele>
        <time>2024-08-09T14:04:44Z</time>
      </trkpt>
      <trkpt lat="45.0717" lon="6.17036">
        <ele>1554.6</ele>
        <time>2024-08-09T14:04:45Z</time>
      </trkpt>
      <trkpt lat="45.07171" lon="6.17039">
        <ele>1554.6</ele>
        <time>2024-08-09T14:04:46Z</time>
      </trkpt>
      <trkpt lat="45.07171" lon="6.17039">
        <ele>1555</ele>
        <time>2024-08-09T14:04:47Z</time>
      </trkpt>
      <trkpt lat="45.07173" lon="6.17042">
        <ele>1555</ele>
        <time>2024-08-09T14:04:48Z</time>
      </trkpt>
      <trkpt lat="45.07173" lon="6.17042">
        <ele>1555</ele>
        <time>2024-08-09T14:04:49Z</time>
      </trkpt>
      <trkpt lat="45.07173" lon="6.17045">
        <ele>1555.2</ele>
        <time>2024-08-09T14:04:50Z</time>
      </trkpt>
      <trkpt lat="45.07173" lon="6.17045">
        <ele>1555.4</ele>
        <time>2024-08-09T14:04:51Z</time>
      </trkpt>
      <trkpt lat="45.07175" lon="6.17049">
        <ele>1555.6</ele>
        <time>2024-08-09T14:04:52Z</time>
      </trkpt>
      <trkpt lat="45.07175" lon="6.17049">
        <ele>1556</ele>
        <time>2024-08-09T14:04:53Z</time>
      </trkpt>
      <trkpt lat="45.07177" lon="6.17051">
        <ele>1556.2</ele>
        <time>2024-08-09T14:04:54Z</time>
      </trkpt>
      <trkpt lat="45.07177" lon="6.17051">
        <ele>1555.8</ele>
        <time>2024-08-09T14:04:55Z</time>
      </trkpt>
      <trkpt lat="45.07178" lon="6.17054">
        <ele>1555.4</ele>
        <time>2024-08-09T14:04:56Z</time>
      </trkpt>
      <trkpt lat="45.07178" lon="6.17054">
        <ele>1555.2</ele>
        <time>2024-08-09T14:04:57Z</time>
      </trkpt>
      <trkpt lat="45.07178" lon="6.17058">
        <ele>1555.2</ele>
        <time>2024-08-09T14:04:58Z</time>
      </trkpt>
      <trkpt lat="45.07177" lon="6.17061">
        <ele>1555</ele>
        <time>2024-08-09T14:04:59Z</time>
      </trkpt>
      <trkpt lat="45.07177" lon="6.17061">
        <ele>1555</ele>
        <time>2024-08-09T14:05:00Z</time>
      </trkpt>
      <trkpt lat="45.07177" lon="6.17065">
        <ele>1555</ele>
        <time>2024-08-09T14:05:01Z</time>
      </trkpt>
      <trkpt lat="45.07176" lon="6.17067">
        <ele>1554.4</ele>
        <time>2024-08-09T14:05:02Z</time>
      </trkpt>
      <trkpt lat="45.07176" lon="6.17067">
        <ele>1554.4</ele>
        <time>2024-08-09T14:05:03Z</time>
      </trkpt>
      <trkpt lat="45.07177" lon="6.17072">
        <ele>1554.2</ele>
        <time>2024-08-09T14:05:04Z</time>
      </trkpt>
      <trkpt lat="45.07177" lon="6.17072">
        <ele>1554.2</ele>
        <time>2024-08-09T14:05:05Z</time>
      </trkpt>
      <trkpt lat="45.07177" lon="6.17075">
        <ele>1554.4</ele>
        <time>2024-08-09T14:05:06Z</time>
      </trkpt>
      <trkpt lat="45.07177" lon="6.17075">
        <ele>1554</ele>
        <time>2024-08-09T14:05:07Z</time>
      </trkpt>
      <trkpt lat="45.07178" lon="6.17079">
        <ele>1553.8</ele>
        <time>2024-08-09T14:05:08Z</time>
      </trkpt>
      <trkpt lat="45.07178" lon="6.17079">
        <ele>1553.8</ele>
        <time>2024-08-09T14:05:09Z</time>
      </trkpt>
      <trkpt lat="45.07179" lon="6.17081">
        <ele>1553.8</ele>
        <time>2024-08-09T14:05:10Z</time>
      </trkpt>
      <trkpt lat="45.07179" lon="6.17081">
        <ele>1553.8</ele>
        <time>2024-08-09T14:05:11Z</time>
      </trkpt>
      <trkpt lat="45.07179" lon="6.17085">
        <ele>1554</ele>
        <time>2024-08-09T14:05:12Z</time>
      </trkpt>
      <trkpt lat="45.07179" lon="6.17085">
        <ele>1553.8</ele>
        <time>2024-08-09T14:05:13Z</time>
      </trkpt>
      <trkpt lat="45.07178" lon="6.17088">
        <ele>1553.8</ele>
        <time>2024-08-09T14:05:14Z</time>
      </trkpt>
      <trkpt lat="45.07178" lon="6.17088">
        <ele>1553.8</ele>
        <time>2024-08-09T14:05:15Z</time>
      </trkpt>
      <trkpt lat="45.07178" lon="6.17091">
        <ele>1554</ele>
        <time>2024-08-09T14:05:16Z</time>
      </trkpt>
      <trkpt lat="45.07178" lon="6.17091">
        <ele>1554</ele>
        <time>2024-08-09T14:05:17Z</time>
      </trkpt>
      <trkpt lat="45.07179" lon="6.17094">
        <ele>1554</ele>
        <time>2024-08-09T14:05:18Z</time>
      </trkpt>
      <trkpt lat="45.07179" lon="6.17094">
        <ele>1554</ele>
        <time>2024-08-09T14:05:19Z</time>
      </trkpt>
      <trkpt lat="45.0718" lon="6.17097">
        <ele>1554</ele>
        <time>2024-08-09T14:05:20Z</time>
      </trkpt>
      <trkpt lat="45.0718" lon="6.17097">
        <ele>1554.2</ele>
        <time>2024-08-09T14:05:21Z</time>
      </trkpt>
      <trkpt lat="45.0718" lon="6.17101">
        <ele>1554</ele>
        <time>2024-08-09T14:05:22Z</time>
      </trkpt>
      <trkpt lat="45.0718" lon="6.17101">
        <ele>1554</ele>
        <time>2024-08-09T14:05:23Z</time>
      </trkpt>
      <trkpt lat="45.07181" lon="6.17104">
        <ele>1554</ele>
        <time>2024-08-09T14:05:24Z</time>
      </trkpt>
      <trkpt lat="45.07181" lon="6.17104">
        <ele>1553.8</ele>
        <time>2024-08-09T14:05:25Z</time>
      </trkpt>
      <trkpt lat="45.07181" lon="6.17108">
        <ele>1553.8</ele>
        <time>2024-08-09T14:05:26Z</time>
      </trkpt>
      <trkpt lat="45.07181" lon="6.17108">
        <ele>1553.8</ele>
        <time>2024-08-09T14:05:27Z</time>
      </trkpt>
      <trkpt lat="45.07183" lon="6.17111">
        <ele>1553.8</ele>
        <time>2024-08-09T14:05:28Z</time>
      </trkpt>
      <trkpt lat="45.07184" lon="6.17113">
        <ele>1553.8</ele>
        <time>2024-08-09T14:05:29Z</time>
      </trkpt>
      <trkpt lat="45.07184" lon="6.17113">
        <ele>1553.8</ele>
        <time>2024-08-09T14:05:30Z</time>
      </trkpt>
      <trkpt lat="45.07186" lon="6.17117">
        <ele>1553.6</ele>
        <time>2024-08-09T14:05:31Z</time>
      </trkpt>
      <trkpt lat="45.07186" lon="6.17117">
        <ele>1553.6</ele>
        <time>2024-08-09T14:05:32Z</time>
      </trkpt>
      <trkpt lat="45.07186" lon="6.1712">
        <ele>1553.6</ele>
        <time>2024-08-09T14:05:33Z</time>
      </trkpt>
      <trkpt lat="45.07186" lon="6.1712">
        <ele>1553.6</ele>
        <time>2024-08-09T14:05:34Z</time>
      </trkpt>
      <trkpt lat="45.07185" lon="6.17123">
        <ele>1553.4</ele>
        <time>2024-08-09T14:05:35Z</time>
      </trkpt>
      <trkpt lat="45.07185" lon="6.17123">
        <ele>1553.4</ele>
        <time>2024-08-09T14:05:36Z</time>
      </trkpt>
      <trkpt lat="45.07185" lon="6.17127">
        <ele>1553.4</ele>
        <time>2024-08-09T14:05:37Z</time>
      </trkpt>
      <trkpt lat="45.07185" lon="6.17127">
        <ele>1553.4</ele>
        <time>2024-08-09T14:05:38Z</time>
      </trkpt>
      <trkpt lat="45.07185" lon="6.1713">
        <ele>1553.4</ele>
        <time>2024-08-09T14:05:39Z</time>
      </trkpt>
      <trkpt lat="45.07185" lon="6.1713">
        <ele>1553.4</ele>
        <time>2024-08-09T14:05:40Z</time>
      </trkpt>
      <trkpt lat="45.07185" lon="6.17133">
        <ele>1553.4</ele>
        <time>2024-08-09T14:05:41Z</time>
      </trkpt>
      <trkpt lat="45.07185" lon="6.17133">
        <ele>1553.4</ele>
        <time>2024-08-09T14:05:42Z</time>
      </trkpt>
      <trkpt lat="45.07185" lon="6.17133">
        <ele>1553.4</ele>
        <time>2024-08-09T14:05:43Z</time>
      </trkpt>
      <trkpt lat="45.07185" lon="6.17137">
        <ele>1553.6</ele>
        <time>2024-08-09T14:05:44Z</time>
      </trkpt>
      <trkpt lat="45.07185" lon="6.17137">
        <ele>1553.6</ele>
        <time>2024-08-09T14:05:45Z</time>
      </trkpt>
      <trkpt lat="45.07185" lon="6.17137">
        <ele>1553.8</ele>
        <time>2024-08-09T14:05:46Z</time>
      </trkpt>
      <trkpt lat="45.07183" lon="6.17138">
        <ele>1553.8</ele>
        <time>2024-08-09T14:05:47Z</time>
      </trkpt>
      <trkpt lat="45.07183" lon="6.17138">
        <ele>1554</ele>
        <time>2024-08-09T14:05:48Z</time>
      </trkpt>
      <trkpt lat="45.07183" lon="6.17138">
        <ele>1554</ele>
        <time>2024-08-09T14:05:49Z</time>
      </trkpt>
      <trkpt lat="45.07181" lon="6.1714">
        <ele>1553.8</ele>
        <time>2024-08-09T14:05:50Z</time>
      </trkpt>
      <trkpt lat="45.07181" lon="6.1714">
        <ele>1553.8</ele>
        <time>2024-08-09T14:05:51Z</time>
      </trkpt>
      <trkpt lat="45.07181" lon="6.1714">
        <ele>1553.8</ele>
        <time>2024-08-09T14:05:52Z</time>
      </trkpt>
      <trkpt lat="45.07181" lon="6.1714">
        <ele>1553.8</ele>
        <time>2024-08-09T14:05:53Z</time>
      </trkpt>
      <trkpt lat="45.07181" lon="6.1714">
        <ele>1554</ele>
        <time>2024-08-09T14:05:54Z</time>
      </trkpt>
      <trkpt lat="45.07179" lon="6.17141">
        <ele>1554</ele>
        <time>2024-08-09T14:05:55Z</time>
      </trkpt>
    </trkseg>
      <trkpt lat="45.07176" lon="6.17137">
        <ele>1555</ele>
        <time>2024-08-10T05:49:53Z</time>
      </trkpt>
      <trkpt lat="45.07176" lon="6.17137">
        <ele>1555</ele>
        <time>2024-08-10T05:49:54Z</time>
      </trkpt>
      <trkpt lat="45.07176" lon="6.17137">
        <ele>1555</ele>
        <time>2024-08-10T05:49:55Z</time>
      </trkpt>
      <trkpt lat="45.07178" lon="6.17134">
        <ele>1555</ele>
        <time>2024-08-10T05:49:58Z</time>
      </trkpt>
      <trkpt lat="45.0718" lon="6.17131">
        <ele>1555</ele>
        <time>2024-08-10T05:50:00Z</time>
      </trkpt>
      <trkpt lat="45.07183" lon="6.1713">
        <ele>1555</ele>
        <time>2024-08-10T05:50:02Z</time>
      </trkpt>
      <trkpt lat="45.07183" lon="6.1713">
        <ele>1555.2</ele>
        <time>2024-08-10T05:50:03Z</time>
      </trkpt>
      <trkpt lat="45.07185" lon="6.17132">
        <ele>1555.2</ele>
        <time>2024-08-10T05:50:04Z</time>
      </trkpt>
      <trkpt lat="45.07186" lon="6.17134">
        <ele>1555.2</ele>
        <time>2024-08-10T05:50:05Z</time>
      </trkpt>
      <trkpt lat="45.07186" lon="6.17134">
        <ele>1555.2</ele>
        <time>2024-08-10T05:50:06Z</time>
      </trkpt>
      <trkpt lat="45.07188" lon="6.17137">
        <ele>1555.2</ele>
        <time>2024-08-10T05:50:07Z</time>
      </trkpt>
      <trkpt lat="45.07188" lon="6.17137">
        <ele>1555.2</ele>
        <time>2024-08-10T05:50:08Z</time>
      </trkpt>
      <trkpt lat="45.07189" lon="6.1714">
        <ele>1555.2</ele>
        <time>2024-08-10T05:50:09Z</time>
      </trkpt>
      <trkpt lat="45.07189" lon="6.1714">
        <ele>1555.2</ele>
        <time>2024-08-10T05:50:10Z</time>
      </trkpt>
      <trkpt lat="45.0719" lon="6.17144">
        <ele>1555.2</ele>
        <time>2024-08-10T05:50:11Z</time>
      </trkpt>
      <trkpt lat="45.0719" lon="6.17144">
        <ele>1555.6</ele>
        <time>2024-08-10T05:50:12Z</time>
      </trkpt>
      <trkpt lat="45.07191" lon="6.17148">
        <ele>1555.8</ele>
        <time>2024-08-10T05:50:13Z</time>
      </trkpt>
      <trkpt lat="45.07191" lon="6.17148">
        <ele>1556</ele>
        <time>2024-08-10T05:50:14Z</time>
      </trkpt>
      <trkpt lat="45.07192" lon="6.17151">
        <ele>1556.2</ele>
        <time>2024-08-10T05:50:15Z</time>
      </trkpt>
      <trkpt lat="45.07192" lon="6.17151">
        <ele>1556.2</ele>
        <time>2024-08-10T05:50:16Z</time>
      </trkpt>
      <trkpt lat="45.07193" lon="6.17155">
        <ele>1556.2</ele>
        <time>2024-08-10T05:50:17Z</time>
      </trkpt>
      <trkpt lat="45.07193" lon="6.17155">
        <ele>1556.4</ele>
        <time>2024-08-10T05:50:18Z</time>
      </trkpt>
      <trkpt lat="45.07193" lon="6.17157">
        <ele>1556.6</ele>
        <time>2024-08-10T05:50:19Z</time>
      </trkpt>
      <trkpt lat="45.07193" lon="6.17157">
        <ele>1557</ele>
        <time>2024-08-10T05:50:20Z</time>
      </trkpt>
      <trkpt lat="45.07193" lon="6.17161">
        <ele>1557</ele>
        <time>2024-08-10T05:50:21Z</time>
      </trkpt>
      <trkpt lat="45.07195" lon="6.17162">
        <ele>1557.2</ele>
        <time>2024-08-10T05:50:22Z</time>
      </trkpt>
      <trkpt lat="45.07195" lon="6.17162">
        <ele>1557.4</ele>
        <time>2024-08-10T05:50:23Z</time>
      </trkpt>
      <trkpt lat="45.07196" lon="6.17166">
        <ele>1557.4</ele>
        <time>2024-08-10T05:50:24Z</time>
      </trkpt>
      <trkpt lat="45.07196" lon="6.17166">
        <ele>1557.4</ele>
        <time>2024-08-10T05:50:25Z</time>
      </trkpt>
      <trkpt lat="45.07196" lon="6.17169">
        <ele>1557.4</ele>
        <time>2024-08-10T05:50:26Z</time>
      </trkpt>
      <trkpt lat="45.07196" lon="6.17169">
        <ele>1557.6</ele>
        <time>2024-08-10T05:50:27Z</time>
      </trkpt>
      <trkpt lat="45.07196" lon="6.17173">
        <ele>1557.8</ele>
        <time>2024-08-10T05:50:28Z</time>
      </trkpt>
      <trkpt lat="45.07196" lon="6.17173">
        <ele>1558</ele>
        <time>2024-08-10T05:50:29Z</time>
      </trkpt>
      <trkpt lat="45.07196" lon="6.17176">
        <ele>1558.2</ele>
        <time>2024-08-10T05:50:30Z</time>
      </trkpt>
      <trkpt lat="45.07196" lon="6.17176">
        <ele>1558.4</ele>
        <time>2024-08-10T05:50:31Z</time>
      </trkpt>
      <trkpt lat="45.07196" lon="6.17179">
        <ele>1558.6</ele>
        <time>2024-08-10T05:50:32Z</time>
      </trkpt>
      <trkpt lat="45.07196" lon="6.17179">
        <ele>1558.6</ele>
        <time>2024-08-10T05:50:33Z</time>
      </trkpt>
      <trkpt lat="45.07195" lon="6.17183">
        <ele>1558.6</ele>
        <time>2024-08-10T05:50:34Z</time>
      </trkpt>
      <trkpt lat="45.07195" lon="6.17183">
        <ele>1558.6</ele>
        <time>2024-08-10T05:50:35Z</time>
      </trkpt>
      <trkpt lat="45.07195" lon="6.17187">
        <ele>1558.6</ele>
        <time>2024-08-10T05:50:36Z</time>
      </trkpt>
      <trkpt lat="45.07195" lon="6.17187">
        <ele>1558.8</ele>
        <time>2024-08-10T05:50:37Z</time>
      </trkpt>
      <trkpt lat="45.07193" lon="6.1719">
        <ele>1559</ele>
        <time>2024-08-10T05:50:38Z</time>
      </trkpt>
      <trkpt lat="45.07193" lon="6.1719">
        <ele>1559.2</ele>
        <time>2024-08-10T05:50:39Z</time>
      </trkpt>
      <trkpt lat="45.07193" lon="6.17193">
        <ele>1559.4</ele>
        <time>2024-08-10T05:50:40Z</time>
      </trkpt>
      <trkpt lat="45.07195" lon="6.17195">
        <ele>1559.8</ele>
        <time>2024-08-10T05:50:41Z</time>
      </trkpt>
      <trkpt lat="45.07195" lon="6.17195">
        <ele>1559.8</ele>
        <time>2024-08-10T05:50:42Z</time>
      </trkpt>
      <trkpt lat="45.07195" lon="6.17198">
        <ele>1559.8</ele>
        <time>2024-08-10T05:50:43Z</time>
      </trkpt>
      <trkpt lat="45.07195" lon="6.17198">
        <ele>1559.8</ele>
        <time>2024-08-10T05:50:44Z</time>
      </trkpt>
      <trkpt lat="45.07196" lon="6.17201">
        <ele>1559.8</ele>
        <time>2024-08-10T05:50:45Z</time>
      </trkpt>
      <trkpt lat="45.07196" lon="6.17201">
        <ele>1559.8</ele>
        <time>2024-08-10T05:50:46Z</time>
      </trkpt>
      <trkpt lat="45.07197" lon="6.17205">
        <ele>1559.8</ele>
        <time>2024-08-10T05:50:47Z</time>
      </trkpt>
      <trkpt lat="45.07197" lon="6.17205">
        <ele>1559.4</ele>
        <time>2024-08-10T05:50:48Z</time>
      </trkpt>
      <trkpt lat="45.07198" lon="6.17209">
        <ele>1559.4</ele>
        <time>2024-08-10T05:50:49Z</time>
      </trkpt>
      <trkpt lat="45.07198" lon="6.17209">
        <ele>1559.4</ele>
        <time>2024-08-10T05:50:50Z</time>
      </trkpt>
      <trkpt lat="45.07199" lon="6.17213">
        <ele>1559.4</ele>
        <time>2024-08-10T05:50:51Z</time>
      </trkpt>
      <trkpt lat="45.07199" lon="6.17213">
        <ele>1559</ele>
        <time>2024-08-10T05:50:52Z</time>
      </trkpt>
      <trkpt lat="45.07201" lon="6.17216">
        <ele>1559</ele>
        <time>2024-08-10T05:50:53Z</time>
      </trkpt>
      <trkpt lat="45.07201" lon="6.17216">
        <ele>1559</ele>
        <time>2024-08-10T05:50:54Z</time>
      </trkpt>
      <trkpt lat="45.07201" lon="6.1722">
        <ele>1558.8</ele>
        <time>2024-08-10T05:50:55Z</time>
      </trkpt>
      <trkpt lat="45.07201" lon="6.1722">
        <ele>1558.6</ele>
        <time>2024-08-10T05:50:56Z</time>
      </trkpt>
      <trkpt lat="45.07203" lon="6.17223">
        <ele>1558.6</ele>
        <time>2024-08-10T05:50:57Z</time>
      </trkpt>
      <trkpt lat="45.07203" lon="6.17223">
        <ele>1558.6</ele>
        <time>2024-08-10T05:50:58Z</time>
      </trkpt>
      <trkpt lat="45.07204" lon="6.17226">
        <ele>1558.6</ele>
        <time>2024-08-10T05:50:59Z</time>
      </trkpt>
      <trkpt lat="45.07204" lon="6.17226">
        <ele>1558.6</ele>
        <time>2024-08-10T05:51:00Z</time>
      </trkpt>
      <trkpt lat="45.07205" lon="6.1723">
        <ele>1558.6</ele>
        <time>2024-08-10T05:51:01Z</time>
      </trkpt>
      <trkpt lat="45.07205" lon="6.1723">
        <ele>1558.6</ele>
        <time>2024-08-10T05:51:02Z</time>
      </trkpt>
      <trkpt lat="45.07205" lon="6.17234">
        <ele>1558.6</ele>
        <time>2024-08-10T05:51:03Z</time>
      </trkpt>
      <trkpt lat="45.07205" lon="6.17234">
        <ele>1558.4</ele>
        <time>2024-08-10T05:51:04Z</time>
      </trkpt>
      <trkpt lat="45.07207" lon="6.17237">
        <ele>1558.6</ele>
        <time>2024-08-10T05:51:05Z</time>
      </trkpt>
      <trkpt lat="45.07207" lon="6.17237">
        <ele>1558.6</ele>
        <time>2024-08-10T05:51:06Z</time>
      </trkpt>
      <trkpt lat="45.07207" lon="6.17241">
        <ele>1558.6</ele>
        <time>2024-08-10T05:51:07Z</time>
      </trkpt>
      <trkpt lat="45.07207" lon="6.17241">
        <ele>1558.6</ele>
        <time>2024-08-10T05:51:08Z</time>
      </trkpt>
      <trkpt lat="45.07209" lon="6.17244">
        <ele>1558.4</ele>
        <time>2024-08-10T05:51:09Z</time>
      </trkpt>
      <trkpt lat="45.0721" lon="6.17246">
        <ele>1558.4</ele>
        <time>2024-08-10T05:51:10Z</time>
      </trkpt>
      <trkpt lat="45.0721" lon="6.17246">
        <ele>1558.4</ele>
        <time>2024-08-10T05:51:11Z</time>
      </trkpt>
      <trkpt lat="45.07212" lon="6.1725">
        <ele>1558.6</ele>
        <time>2024-08-10T05:51:12Z</time>
      </trkpt>
      <trkpt lat="45.07214" lon="6.17249">
        <ele>1558.6</ele>
        <time>2024-08-10T05:51:13Z</time>
      </trkpt>
      <trkpt lat="45.07214" lon="6.17249">
        <ele>1558.6</ele>
        <time>2024-08-10T05:51:14Z</time>
      </trkpt>
      <trkpt lat="45.07216" lon="6.17252">
        <ele>1558.6</ele>
        <time>2024-08-10T05:51:15Z</time>
      </trkpt>
      <trkpt lat="45.07216" lon="6.17252">
        <ele>1558.6</ele>
        <time>2024-08-10T05:51:16Z</time>
      </trkpt>
      <trkpt lat="45.07218" lon="6.17254">
        <ele>1558.6</ele>
        <time>2024-08-10T05:51:17Z</time>
      </trkpt>
      <trkpt lat="45.07218" lon="6.17254">
        <ele>1558.8</ele>
        <time>2024-08-10T05:51:18Z</time>
      </trkpt>
      <trkpt lat="45.07221" lon="6.17255">
        <ele>1558.8</ele>
        <time>2024-08-10T05:51:19Z</time>
      </trkpt>
      <trkpt lat="45.07221" lon="6.17255">
        <ele>1558.8</ele>
        <time>2024-08-10T05:51:20Z</time>
      </trkpt>
      <trkpt lat="45.07223" lon="6.17257">
        <ele>1558.8</ele>
        <time>2024-08-10T05:51:21Z</time>
      </trkpt>
      <trkpt lat="45.07223" lon="6.17257">
        <ele>1559</ele>
        <time>2024-08-10T05:51:22Z</time>
      </trkpt>
      <trkpt lat="45.07225" lon="6.1726">
        <ele>1559.4</ele>
        <time>2024-08-10T05:51:23Z</time>
      </trkpt>
      <trkpt lat="45.07225" lon="6.1726">
        <ele>1559.6</ele>
        <time>2024-08-10T05:51:24Z</time>
      </trkpt>
      <trkpt lat="45.07226" lon="6.17263">
        <ele>1559.6</ele>
        <time>2024-08-10T05:51:25Z</time>
      </trkpt>
      <trkpt lat="45.07226" lon="6.17263">
        <ele>1559.6</ele>
        <time>2024-08-10T05:51:26Z</time>
      </trkpt>
      <trkpt lat="45.07228" lon="6.17265">
        <ele>1559.6</ele>
        <time>2024-08-10T05:51:27Z</time>
      </trkpt>
      <trkpt lat="45.0723" lon="6.17267">
        <ele>1559.8</ele>
        <time>2024-08-10T05:51:28Z</time>
      </trkpt>
      <trkpt lat="45.0723" lon="6.17267">
        <ele>1560</ele>
        <time>2024-08-10T05:51:29Z</time>
      </trkpt>
      <trkpt lat="45.07232" lon="6.17271">
        <ele>1560</ele>
        <time>2024-08-10T05:51:30Z</time>
      </trkpt>
      <trkpt lat="45.07232" lon="6.17271">
        <ele>1560.2</ele>
        <time>2024-08-10T05:51:31Z</time>
      </trkpt>
      <trkpt lat="45.07232" lon="6.17275">
        <ele>1560.4</ele>
        <time>2024-08-10T05:51:32Z</time>
      </trkpt>
      <trkpt lat="45.07232" lon="6.17275">
        <ele>1560.4</ele>
        <time>2024-08-10T05:51:33Z</time>
      </trkpt>
      <trkpt lat="45.07233" lon="6.17278">
        <ele>1560.6</ele>
        <time>2024-08-10T05:51:34Z</time>
      </trkpt>
      <trkpt lat="45.07233" lon="6.17278">
        <ele>1560.6</ele>
        <time>2024-08-10T05:51:35Z</time>
      </trkpt>
      <trkpt lat="45.07235" lon="6.1728">
        <ele>1560.6</ele>
        <time>2024-08-10T05:51:36Z</time>
      </trkpt>
      <trkpt lat="45.07235" lon="6.1728">
        <ele>1560.8</ele>
        <time>2024-08-10T05:51:37Z</time>
      </trkpt>
      <trkpt lat="45.07237" lon="6.17281">
        <ele>1560.8</ele>
        <time>2024-08-10T05:51:38Z</time>
      </trkpt>
      <trkpt lat="45.07237" lon="6.17281">
        <ele>1560.8</ele>
        <time>2024-08-10T05:51:39Z</time>
      </trkpt>
      <trkpt lat="45.07239" lon="6.17281">
        <ele>1560.8</ele>
        <time>2024-08-10T05:51:40Z</time>
      </trkpt>
      <trkpt lat="45.07239" lon="6.17281">
        <ele>1561</ele>
        <time>2024-08-10T05:51:41Z</time>
      </trkpt>
      <trkpt lat="45.07241" lon="6.17284">
        <ele>1561.2</ele>
        <time>2024-08-10T05:51:42Z</time>
      </trkpt>
      <trkpt lat="45.07241" lon="6.17284">
        <ele>1561.4</ele>
        <time>2024-08-10T05:51:43Z</time>
      </trkpt>
      <trkpt lat="45.07242" lon="6.17287">
        <ele>1561.4</ele>
        <time>2024-08-10T05:51:44Z</time>
      </trkpt>
      <trkpt lat="45.07242" lon="6.17287">
        <ele>1561.6</ele>
        <time>2024-08-10T05:51:45Z</time>
      </trkpt>
      <trkpt lat="45.07243" lon="6.17289">
        <ele>1561.8</ele>
        <time>2024-08-10T05:51:46Z</time>
      </trkpt>
      <trkpt lat="45.07243" lon="6.17289">
        <ele>1561.8</ele>
        <time>2024-08-10T05:51:47Z</time>
      </trkpt>
      <trkpt lat="45.07245" lon="6.17292">
        <ele>1561.8</ele>
        <time>2024-08-10T05:51:48Z</time>
      </trkpt>
      <trkpt lat="45.07245" lon="6.17292">
        <ele>1562</ele>
        <time>2024-08-10T05:51:49Z</time>
      </trkpt>
      <trkpt lat="45.07243" lon="6.17295">
        <ele>1562.2</ele>
        <time>2024-08-10T05:51:50Z</time>
      </trkpt>
      <trkpt lat="45.07243" lon="6.17295">
        <ele>1562.2</ele>
        <time>2024-08-10T05:51:51Z</time>
      </trkpt>
      <trkpt lat="45.07241" lon="6.17298">
        <ele>1562.2</ele>
        <time>2024-08-10T05:51:52Z</time>
      </trkpt>
      <trkpt lat="45.07243" lon="6.17301">
        <ele>1562.4</ele>
        <time>2024-08-10T05:51:53Z</time>
      </trkpt>
      <trkpt lat="45.07243" lon="6.17301">
        <ele>1562.8</ele>
        <time>2024-08-10T05:51:54Z</time>
      </trkpt>
      <trkpt lat="45.07243" lon="6.17304">
        <ele>1562.8</ele>
        <time>2024-08-10T05:51:55Z</time>
      </trkpt>
      <trkpt lat="45.07243" lon="6.17304">
        <ele>1562.8</ele>
        <time>2024-08-10T05:51:56Z</time>
      </trkpt>
      <trkpt lat="45.07244" lon="6.17306">
        <ele>1563</ele>
        <time>2024-08-10T05:51:57Z</time>
      </trkpt>
      <trkpt lat="45.07244" lon="6.17306">
        <ele>1563</ele>
        <time>2024-08-10T05:51:58Z</time>
      </trkpt>
      <trkpt lat="45.07243" lon="6.17309">
        <ele>1563</ele>
        <time>2024-08-10T05:51:59Z</time>
      </trkpt>
      <trkpt lat="45.07243" lon="6.17309">
        <ele>1563.2</ele>
        <time>2024-08-10T05:52:00Z</time>
      </trkpt>
      <trkpt lat="45.07248" lon="6.17312">
        <ele>1563.2</ele>
        <time>2024-08-10T05:52:01Z</time>
      </trkpt>
      <trkpt lat="45.07248" lon="6.17312">
        <ele>1563.2</ele>
        <time>2024-08-10T05:52:02Z</time>
      </trkpt>
      <trkpt lat="45.07248" lon="6.17312">
        <ele>1563.4</ele>
        <time>2024-08-10T05:52:03Z</time>
      </trkpt>
      <trkpt lat="45.07249" lon="6.17314">
        <ele>1563.4</ele>
        <time>2024-08-10T05:52:04Z</time>
      </trkpt>
      <trkpt lat="45.07249" lon="6.17314">
        <ele>1563.4</ele>
        <time>2024-08-10T05:52:05Z</time>
      </trkpt>
      <trkpt lat="45.07249" lon="6.17318">
        <ele>1563.4</ele>
        <time>2024-08-10T05:52:06Z</time>
      </trkpt>
      <trkpt lat="45.0725" lon="6.1732">
        <ele>1563.6</ele>
        <time>2024-08-10T05:52:07Z</time>
      </trkpt>
      <trkpt lat="45.0725" lon="6.1732">
        <ele>1563.8</ele>
        <time>2024-08-10T05:52:08Z</time>
      </trkpt>
      <trkpt lat="45.07252" lon="6.17323">
        <ele>1563.8</ele>
        <time>2024-08-10T05:52:09Z</time>
      </trkpt>
      <trkpt lat="45.07252" lon="6.17323">
        <ele>1564</ele>
        <time>2024-08-10T05:52:10Z</time>
      </trkpt>
      <trkpt lat="45.07253" lon="6.17327">
        <ele>1563.8</ele>
        <time>2024-08-10T05:52:11Z</time>
      </trkpt>
      <trkpt lat="45.07253" lon="6.17327">
        <ele>1563.8</ele>
        <time>2024-08-10T05:52:12Z</time>
      </trkpt>
      <trkpt lat="45.07253" lon="6.17331">
        <ele>1563.8</ele>
        <time>2024-08-10T05:52:13Z</time>
      </trkpt>
      <trkpt lat="45.07253" lon="6.17331">
        <ele>1564.2</ele>
        <time>2024-08-10T05:52:14Z</time>
      </trkpt>
      <trkpt lat="45.07254" lon="6.17334">
        <ele>1564.2</ele>
        <time>2024-08-10T05:52:15Z</time>
      </trkpt>
      <trkpt lat="45.07254" lon="6.17334">
        <ele>1564.4</ele>
        <time>2024-08-10T05:52:16Z</time>
      </trkpt>
      <trkpt lat="45.07256" lon="6.17338">
        <ele>1564.4</ele>
        <time>2024-08-10T05:52:17Z</time>
      </trkpt>
      <trkpt lat="45.07256" lon="6.17338">
        <ele>1564.6</ele>
        <time>2024-08-10T05:52:18Z</time>
      </trkpt>
      <trkpt lat="45.07259" lon="6.17342">
        <ele>1564.6</ele>
        <time>2024-08-10T05:52:19Z</time>
      </trkpt>
      <trkpt lat="45.07259" lon="6.17342">
        <ele>1564.8</ele>
        <time>2024-08-10T05:52:20Z</time>
      </trkpt>
      <trkpt lat="45.07259" lon="6.17345">
        <ele>1564.8</ele>
        <time>2024-08-10T05:52:21Z</time>
      </trkpt>
      <trkpt lat="45.07259" lon="6.17345">
        <ele>1564.8</ele>
        <time>2024-08-10T05:52:22Z</time>
      </trkpt>
      <trkpt lat="45.0726" lon="6.17349">
        <ele>1564.8</ele>
        <time>2024-08-10T05:52:23Z</time>
      </trkpt>
      <trkpt lat="45.0726" lon="6.17349">
        <ele>1564.6</ele>
        <time>2024-08-10T05:52:24Z</time>
      </trkpt>
      <trkpt lat="45.0726" lon="6.17349">
        <ele>1564.8</ele>
        <time>2024-08-10T05:52:25Z</time>
      </trkpt>
      <trkpt lat="45.0726" lon="6.17353">
        <ele>1564.8</ele>
        <time>2024-08-10T05:52:26Z</time>
      </trkpt>
      <trkpt lat="45.0726" lon="6.17353">
        <ele>1564.8</ele>
        <time>2024-08-10T05:52:27Z</time>
      </trkpt>
      <trkpt lat="45.07264" lon="6.17354">
        <ele>1564.8</ele>
        <time>2024-08-10T05:52:28Z</time>
      </trkpt>
      <trkpt lat="45.07264" lon="6.17354">
        <ele>1565</ele>
        <time>2024-08-10T05:52:29Z</time>
      </trkpt>
      <trkpt lat="45.07267" lon="6.17355">
        <ele>1565</ele>
        <time>2024-08-10T05:52:30Z</time>
      </trkpt>
      <trkpt lat="45.07267" lon="6.17355">
        <ele>1565.4</ele>
        <time>2024-08-10T05:52:31Z</time>
      </trkpt>
      <trkpt lat="45.07269" lon="6.17357">
        <ele>1565.4</ele>
        <time>2024-08-10T05:52:32Z</time>
      </trkpt>
      <trkpt lat="45.07269" lon="6.17357">
        <ele>1565.4</ele>
        <time>2024-08-10T05:52:33Z</time>
      </trkpt>
      <trkpt lat="45.0727" lon="6.17359">
        <ele>1565.4</ele>
        <time>2024-08-10T05:52:34Z</time>
      </trkpt>
      <trkpt lat="45.0727" lon="6.17359">
        <ele>1565.4</ele>
        <time>2024-08-10T05:52:35Z</time>
      </trkpt>
      <trkpt lat="45.0727" lon="6.17359">
        <ele>1565.4</ele>
        <time>2024-08-10T05:52:36Z</time>
      </trkpt>
      <trkpt lat="45.07271" lon="6.17362">
        <ele>1565.6</ele>
        <time>2024-08-10T05:52:37Z</time>
      </trkpt>
      <trkpt lat="45.07271" lon="6.17362">
        <ele>1565.6</ele>
        <time>2024-08-10T05:52:38Z</time>
      </trkpt>
      <trkpt lat="45.07272" lon="6.17366">
        <ele>1565.6</ele>
        <time>2024-08-10T05:52:39Z</time>
      </trkpt>
      <trkpt lat="45.07272" lon="6.17366">
        <ele>1565.6</ele>
        <time>2024-08-10T05:52:40Z</time>
      </trkpt>
      <trkpt lat="45.07275" lon="6.17369">
        <ele>1565.8</ele>
        <time>2024-08-10T05:52:41Z</time>
      </trkpt>
      <trkpt lat="45.07275" lon="6.17369">
        <ele>1566</ele>
        <time>2024-08-10T05:52:42Z</time>
      </trkpt>
      <trkpt lat="45.07277" lon="6.17372">
        <ele>1566</ele>
        <time>2024-08-10T05:52:43Z</time>
      </trkpt>
      <trkpt lat="45.07277" lon="6.17372">
        <ele>1566</ele>
        <time>2024-08-10T05:52:44Z</time>
      </trkpt>
      <trkpt lat="45.07279" lon="6.17375">
        <ele>1566</ele>
        <time>2024-08-10T05:52:45Z</time>
      </trkpt>
      <trkpt lat="45.07279" lon="6.17375">
        <ele>1566</ele>
        <time>2024-08-10T05:52:46Z</time>
      </trkpt>
      <trkpt lat="45.07279" lon="6.17379">
        <ele>1566.2</ele>
        <time>2024-08-10T05:52:47Z</time>
      </trkpt>
      <trkpt lat="45.07279" lon="6.17379">
        <ele>1566.4</ele>
        <time>2024-08-10T05:52:48Z</time>
      </trkpt>
      <trkpt lat="45.0728" lon="6.17383">
        <ele>1566.6</ele>
        <time>2024-08-10T05:52:49Z</time>
      </trkpt>
      <trkpt lat="45.0728" lon="6.17383">
        <ele>1566.6</ele>
        <time>2024-08-10T05:52:50Z</time>
      </trkpt>
      <trkpt lat="45.07282" lon="6.17386">
        <ele>1566.6</ele>
        <time>2024-08-10T05:52:51Z</time>
      </trkpt>
      <trkpt lat="45.07282" lon="6.17388">
        <ele>1566.6</ele>
        <time>2024-08-10T05:52:52Z</time>
      </trkpt>
      <trkpt lat="45.07282" lon="6.17388">
        <ele>1566.6</ele>
        <time>2024-08-10T05:52:53Z</time>
      </trkpt>
      <trkpt lat="45.07284" lon="6.1739">
        <ele>1566.8</ele>
        <time>2024-08-10T05:52:54Z</time>
      </trkpt>
      <trkpt lat="45.07284" lon="6.1739">
        <ele>1566.8</ele>
        <time>2024-08-10T05:52:55Z</time>
      </trkpt>
      <trkpt lat="45.07285" lon="6.17391">
        <ele>1567</ele>
        <time>2024-08-10T05:52:56Z</time>
      </trkpt>
      <trkpt lat="45.07285" lon="6.17391">
        <ele>1567</ele>
        <time>2024-08-10T05:52:57Z</time>
      </trkpt>
      <trkpt lat="45.07285" lon="6.17391">
        <ele>1567</ele>
        <time>2024-08-10T05:52:58Z</time>
      </trkpt>
      <trkpt lat="45.07288" lon="6.17394">
        <ele>1567.2</ele>
        <time>2024-08-10T05:52:59Z</time>
      </trkpt>
      <trkpt lat="45.07288" lon="6.17394">
        <ele>1567.2</ele>
        <time>2024-08-10T05:53:00Z</time>
      </trkpt>
      <trkpt lat="45.0729" lon="6.17397">
        <ele>1567.4</ele>
        <time>2024-08-10T05:53:01Z</time>
      </trkpt>
      <trkpt lat="45.0729" lon="6.17397">
        <ele>1567.4</ele>
        <time>2024-08-10T05:53:02Z</time>
      </trkpt>
      <trkpt lat="45.0729" lon="6.174">
        <ele>1567.4</ele>
        <time>2024-08-10T05:53:03Z</time>
      </trkpt>
      <trkpt lat="45.0729" lon="6.174">
        <ele>1567.6</ele>
        <time>2024-08-10T05:53:04Z</time>
      </trkpt>
      <trkpt lat="45.07291" lon="6.17403">
        <ele>1567.8</ele>
        <time>2024-08-10T05:53:05Z</time>
      </trkpt>
      <trkpt lat="45.07291" lon="6.17403">
        <ele>1567.8</ele>
        <time>2024-08-10T05:53:06Z</time>
      </trkpt>
      <trkpt lat="45.07291" lon="6.17405">
        <ele>1567.8</ele>
        <time>2024-08-10T05:53:07Z</time>
      </trkpt>
      <trkpt lat="45.07291" lon="6.17405">
        <ele>1567.8</ele>
        <time>2024-08-10T05:53:08Z</time>
      </trkpt>
      <trkpt lat="45.07292" lon="6.17408">
        <ele>1567.8</ele>
        <time>2024-08-10T05:53:09Z</time>
      </trkpt>
      <trkpt lat="45.07292" lon="6.17408">
        <ele>1568</ele>
        <time>2024-08-10T05:53:10Z</time>
      </trkpt>
      <trkpt lat="45.07293" lon="6.17411">
        <ele>1568</ele>
        <time>2024-08-10T05:53:11Z</time>
      </trkpt>
      <trkpt lat="45.07293" lon="6.17411">
        <ele>1568.2</ele>
        <time>2024-08-10T05:53:12Z</time>
      </trkpt>
      <trkpt lat="45.07294" lon="6.17414">
        <ele>1568.4</ele>
        <time>2024-08-10T05:53:13Z</time>
      </trkpt>
      <trkpt lat="45.07294" lon="6.17414">
        <ele>1568.4</ele>
        <time>2024-08-10T05:53:14Z</time>
      </trkpt>
      <trkpt lat="45.07295" lon="6.17417">
        <ele>1568.4</ele>
        <time>2024-08-10T05:53:15Z</time>
      </trkpt>
      <trkpt lat="45.07295" lon="6.17417">
        <ele>1568.4</ele>
        <time>2024-08-10T05:53:16Z</time>
      </trkpt>
      <trkpt lat="45.07296" lon="6.1742">
        <ele>1568.6</ele>
        <time>2024-08-10T05:53:17Z</time>
      </trkpt>
      <trkpt lat="45.07296" lon="6.1742">
        <ele>1568.8</ele>
        <time>2024-08-10T05:53:18Z</time>
      </trkpt>
      <trkpt lat="45.07298" lon="6.17423">
        <ele>1568.8</ele>
        <time>2024-08-10T05:53:19Z</time>
      </trkpt>
      <trkpt lat="45.07298" lon="6.17423">
        <ele>1569</ele>
        <time>2024-08-10T05:53:20Z</time>
      </trkpt>
      <trkpt lat="45.073" lon="6.17426">
        <ele>1569</ele>
        <time>2024-08-10T05:53:21Z</time>
      </trkpt>
      <trkpt lat="45.073" lon="6.17426">
        <ele>1568.8</ele>
        <time>2024-08-10T05:53:22Z</time>
      </trkpt>
      <trkpt lat="45.07301" lon="6.17428">
        <ele>1568.8</ele>
        <time>2024-08-10T05:53:23Z</time>
      </trkpt>
      <trkpt lat="45.07301" lon="6.17428">
        <ele>1569</ele>
        <time>2024-08-10T05:53:24Z</time>
      </trkpt>
      <trkpt lat="45.07302" lon="6.17431">
        <ele>1569</ele>
        <time>2024-08-10T05:53:25Z</time>
      </trkpt>
      <trkpt lat="45.07304" lon="6.17432">
        <ele>1569</ele>
        <time>2024-08-10T05:53:26Z</time>
      </trkpt>
      <trkpt lat="45.07304" lon="6.17432">
        <ele>1569.2</ele>
        <time>2024-08-10T05:53:27Z</time>
      </trkpt>
      <trkpt lat="45.07305" lon="6.17435">
        <ele>1569.4</ele>
        <time>2024-08-10T05:53:28Z</time>
      </trkpt>
      <trkpt lat="45.07305" lon="6.17435">
        <ele>1569.4</ele>
        <time>2024-08-10T05:53:29Z</time>
      </trkpt>
      <trkpt lat="45.07307" lon="6.17438">
        <ele>1569.6</ele>
        <time>2024-08-10T05:53:30Z</time>
      </trkpt>
      <trkpt lat="45.07307" lon="6.17438">
        <ele>1569.6</ele>
        <time>2024-08-10T05:53:31Z</time>
      </trkpt>
      <trkpt lat="45.07309" lon="6.17441">
        <ele>1569.6</ele>
        <time>2024-08-10T05:53:32Z</time>
      </trkpt>
      <trkpt lat="45.07309" lon="6.17441">
        <ele>1569.6</ele>
        <time>2024-08-10T05:53:33Z</time>
      </trkpt>
      <trkpt lat="45.07309" lon="6.17444">
        <ele>1569.6</ele>
        <time>2024-08-10T05:53:34Z</time>
      </trkpt>
      <trkpt lat="45.07309" lon="6.17444">
        <ele>1569.4</ele>
        <time>2024-08-10T05:53:35Z</time>
      </trkpt>
      <trkpt lat="45.07309" lon="6.17448">
        <ele>1569.6</ele>
        <time>2024-08-10T05:53:36Z</time>
      </trkpt>
      <trkpt lat="45.07309" lon="6.17448">
        <ele>1569.6</ele>
        <time>2024-08-10T05:53:37Z</time>
      </trkpt>
      <trkpt lat="45.0731" lon="6.17451">
        <ele>1569.8</ele>
        <time>2024-08-10T05:53:38Z</time>
      </trkpt>
      <trkpt lat="45.0731" lon="6.17451">
        <ele>1569.8</ele>
        <time>2024-08-10T05:53:39Z</time>
      </trkpt>
      <trkpt lat="45.07312" lon="6.17454">
        <ele>1569.8</ele>
        <time>2024-08-10T05:53:40Z</time>
      </trkpt>
      <trkpt lat="45.07312" lon="6.17454">
        <ele>1569.8</ele>
        <time>2024-08-10T05:53:41Z</time>
      </trkpt>
      <trkpt lat="45.07315" lon="6.17457">
        <ele>1570</ele>
        <time>2024-08-10T05:53:42Z</time>
      </trkpt>
      <trkpt lat="45.07315" lon="6.17457">
        <ele>1570.2</ele>
        <time>2024-08-10T05:53:43Z</time>
      </trkpt>
      <trkpt lat="45.07317" lon="6.1746">
        <ele>1570.2</ele>
        <time>2024-08-10T05:53:44Z</time>
      </trkpt>
      <trkpt lat="45.07317" lon="6.1746">
        <ele>1570.4</ele>
        <time>2024-08-10T05:53:45Z</time>
      </trkpt>
      <trkpt lat="45.07319" lon="6.17464">
        <ele>1570.4</ele>
        <time>2024-08-10T05:53:46Z</time>
      </trkpt>
      <trkpt lat="45.07319" lon="6.17464">
        <ele>1570.6</ele>
        <time>2024-08-10T05:53:47Z</time>
      </trkpt>
      <trkpt lat="45.0732" lon="6.17467">
        <ele>1570.6</ele>
        <time>2024-08-10T05:53:48Z</time>
      </trkpt>
      <trkpt lat="45.0732" lon="6.17467">
        <ele>1570.6</ele>
        <time>2024-08-10T05:53:49Z</time>
      </trkpt>
      <trkpt lat="45.07323" lon="6.1747">
        <ele>1570.6</ele>
        <time>2024-08-10T05:53:50Z</time>
      </trkpt>
      <trkpt lat="45.07323" lon="6.1747">
        <ele>1570.8</ele>
        <time>2024-08-10T05:53:51Z</time>
      </trkpt>
      <trkpt lat="45.07325" lon="6.17472">
        <ele>1571</ele>
        <time>2024-08-10T05:53:52Z</time>
      </trkpt>
      <trkpt lat="45.07325" lon="6.17472">
        <ele>1571</ele>
        <time>2024-08-10T05:53:53Z</time>
      </trkpt>
      <trkpt lat="45.07326" lon="6.17474">
        <ele>1571.2</ele>
        <time>2024-08-10T05:53:54Z</time>
      </trkpt>
      <trkpt lat="45.07328" lon="6.17475">
        <ele>1571.2</ele>
        <time>2024-08-10T05:53:55Z</time>
      </trkpt>
      <trkpt lat="45.07328" lon="6.17475">
        <ele>1571.2</ele>
        <time>2024-08-10T05:53:56Z</time>
      </trkpt>
      <trkpt lat="45.07331" lon="6.17477">
        <ele>1571</ele>
        <time>2024-08-10T05:53:57Z</time>
      </trkpt>
      <trkpt lat="45.07331" lon="6.17477">
        <ele>1571</ele>
        <time>2024-08-10T05:53:58Z</time>
      </trkpt>
      <trkpt lat="45.07332" lon="6.17479">
        <ele>1570.8</ele>
        <time>2024-08-10T05:53:59Z</time>
      </trkpt>
      <trkpt lat="45.07332" lon="6.17479">
        <ele>1570.8</ele>
        <time>2024-08-10T05:54:00Z</time>
      </trkpt>
      <trkpt lat="45.07334" lon="6.17482">
        <ele>1571</ele>
        <time>2024-08-10T05:54:01Z</time>
      </trkpt>
      <trkpt lat="45.07334" lon="6.17482">
        <ele>1571</ele>
        <time>2024-08-10T05:54:02Z</time>
      </trkpt>
      <trkpt lat="45.07335" lon="6.17485">
        <ele>1571</ele>
        <time>2024-08-10T05:54:03Z</time>
      </trkpt>
      <trkpt lat="45.07335" lon="6.17485">
        <ele>1570.8</ele>
        <time>2024-08-10T05:54:04Z</time>
      </trkpt>
      <trkpt lat="45.07337" lon="6.17488">
        <ele>1570.8</ele>
        <time>2024-08-10T05:54:05Z</time>
      </trkpt>
      <trkpt lat="45.07337" lon="6.17488">
        <ele>1570.6</ele>
        <time>2024-08-10T05:54:06Z</time>
      </trkpt>
      <trkpt lat="45.07338" lon="6.17492">
        <ele>1570.6</ele>
        <time>2024-08-10T05:54:07Z</time>
      </trkpt>
      <trkpt lat="45.07338" lon="6.17492">
        <ele>1570.6</ele>
        <time>2024-08-10T05:54:08Z</time>
      </trkpt>
      <trkpt lat="45.07338" lon="6.17495">
        <ele>1570.6</ele>
        <time>2024-08-10T05:54:09Z</time>
      </trkpt>
      <trkpt lat="45.07338" lon="6.17495">
        <ele>1570.8</ele>
        <time>2024-08-10T05:54:10Z</time>
      </trkpt>
      <trkpt lat="45.0734" lon="6.17498">
        <ele>1571</ele>
        <time>2024-08-10T05:54:11Z</time>
      </trkpt>
      <trkpt lat="45.0734" lon="6.17498">
        <ele>1571</ele>
        <time>2024-08-10T05:54:12Z</time>
      </trkpt>
      <trkpt lat="45.07342" lon="6.17501">
        <ele>1571</ele>
        <time>2024-08-10T05:54:13Z</time>
      </trkpt>
      <trkpt lat="45.07342" lon="6.17501">
        <ele>1570.8</ele>
        <time>2024-08-10T05:54:14Z</time>
      </trkpt>
      <trkpt lat="45.07345" lon="6.17505">
        <ele>1570.8</ele>
        <time>2024-08-10T05:54:15Z</time>
      </trkpt>
      <trkpt lat="45.07345" lon="6.17505">
        <ele>1570.8</ele>
        <time>2024-08-10T05:54:16Z</time>
      </trkpt>
      <trkpt lat="45.07347" lon="6.17507">
        <ele>1570.8</ele>
        <time>2024-08-10T05:54:17Z</time>
      </trkpt>
      <trkpt lat="45.07347" lon="6.17507">
        <ele>1570.8</ele>
        <time>2024-08-10T05:54:18Z</time>
      </trkpt>
      <trkpt lat="45.07349" lon="6.17509">
        <ele>1570.8</ele>
        <time>2024-08-10T05:54:19Z</time>
      </trkpt>
      <trkpt lat="45.07349" lon="6.17509">
        <ele>1570.8</ele>
        <time>2024-08-10T05:54:20Z</time>
      </trkpt>
      <trkpt lat="45.07351" lon="6.17512">
        <ele>1570.8</ele>
        <time>2024-08-10T05:54:21Z</time>
      </trkpt>
      <trkpt lat="45.07351" lon="6.17512">
        <ele>1570.8</ele>
        <time>2024-08-10T05:54:22Z</time>
      </trkpt>
      <trkpt lat="45.07354" lon="6.17515">
        <ele>1570.8</ele>
        <time>2024-08-10T05:54:23Z</time>
      </trkpt>
      <trkpt lat="45.07354" lon="6.17515">
        <ele>1571</ele>
        <time>2024-08-10T05:54:24Z</time>
      </trkpt>
      <trkpt lat="45.07356" lon="6.17517">
        <ele>1571</ele>
        <time>2024-08-10T05:54:25Z</time>
      </trkpt>
      <trkpt lat="45.07356" lon="6.17517">
        <ele>1571</ele>
        <time>2024-08-10T05:54:26Z</time>
      </trkpt>
      <trkpt lat="45.07357" lon="6.17521">
        <ele>1570.8</ele>
        <time>2024-08-10T05:54:27Z</time>
      </trkpt>
      <trkpt lat="45.07357" lon="6.17521">
        <ele>1570.8</ele>
        <time>2024-08-10T05:54:28Z</time>
      </trkpt>
      <trkpt lat="45.0736" lon="6.17523">
        <ele>1571</ele>
        <time>2024-08-10T05:54:29Z</time>
      </trkpt>
      <trkpt lat="45.0736" lon="6.17523">
        <ele>1571</ele>
        <time>2024-08-10T05:54:30Z</time>
      </trkpt>
      <trkpt lat="45.07362" lon="6.17525">
        <ele>1570.8</ele>
        <time>2024-08-10T05:54:31Z</time>
      </trkpt>
      <trkpt lat="45.07362" lon="6.17525">
        <ele>1570.8</ele>
        <time>2024-08-10T05:54:32Z</time>
      </trkpt>
      <trkpt lat="45.07364" lon="6.17528">
        <ele>1570.8</ele>
        <time>2024-08-10T05:54:33Z</time>
      </trkpt>
      <trkpt lat="45.07364" lon="6.17528">
        <ele>1570.8</ele>
        <time>2024-08-10T05:54:34Z</time>
      </trkpt>
      <trkpt lat="45.07366" lon="6.1753">
        <ele>1570.6</ele>
        <time>2024-08-10T05:54:35Z</time>
      </trkpt>
      <trkpt lat="45.07366" lon="6.1753">
        <ele>1570.6</ele>
        <time>2024-08-10T05:54:36Z</time>
      </trkpt>
      <trkpt lat="45.07368" lon="6.17533">
        <ele>1570.8</ele>
        <time>2024-08-10T05:54:37Z</time>
      </trkpt>
      <trkpt lat="45.07368" lon="6.17533">
        <ele>1570.8</ele>
        <time>2024-08-10T05:54:38Z</time>
      </trkpt>
      <trkpt lat="45.0737" lon="6.17536">
        <ele>1570.8</ele>
        <time>2024-08-10T05:54:39Z</time>
      </trkpt>
      <trkpt lat="45.0737" lon="6.17536">
        <ele>1570.8</ele>
        <time>2024-08-10T05:54:40Z</time>
      </trkpt>
      <trkpt lat="45.07372" lon="6.17539">
        <ele>1570.8</ele>
        <time>2024-08-10T05:54:41Z</time>
      </trkpt>
      <trkpt lat="45.07372" lon="6.17539">
        <ele>1570.8</ele>
        <time>2024-08-10T05:54:42Z</time>
      </trkpt>
      <trkpt lat="45.07373" lon="6.17542">
        <ele>1570.8</ele>
        <time>2024-08-10T05:54:43Z</time>
      </trkpt>
      <trkpt lat="45.07373" lon="6.17542">
        <ele>1570.8</ele>
        <time>2024-08-10T05:54:44Z</time>
      </trkpt>
      <trkpt lat="45.07375" lon="6.17545">
        <ele>1570.8</ele>
        <time>2024-08-10T05:54:45Z</time>
      </trkpt>
      <trkpt lat="45.07375" lon="6.17545">
        <ele>1570.8</ele>
        <time>2024-08-10T05:54:46Z</time>
      </trkpt>
      <trkpt lat="45.07377" lon="6.17548">
        <ele>1570.8</ele>
        <time>2024-08-10T05:54:47Z</time>
      </trkpt>
      <trkpt lat="45.07377" lon="6.17548">
        <ele>1570.8</ele>
        <time>2024-08-10T05:54:48Z</time>
      </trkpt>
      <trkpt lat="45.07379" lon="6.17552">
        <ele>1570.8</ele>
        <time>2024-08-10T05:54:49Z</time>
      </trkpt>
      <trkpt lat="45.07379" lon="6.17552">
        <ele>1570.8</ele>
        <time>2024-08-10T05:54:50Z</time>
      </trkpt>
      <trkpt lat="45.0738" lon="6.17555">
        <ele>1570.8</ele>
        <time>2024-08-10T05:54:51Z</time>
      </trkpt>
      <trkpt lat="45.07381" lon="6.17556">
        <ele>1570.8</ele>
        <time>2024-08-10T05:54:52Z</time>
      </trkpt>
      <trkpt lat="45.07381" lon="6.17556">
        <ele>1570.8</ele>
        <time>2024-08-10T05:54:53Z</time>
      </trkpt>
      <trkpt lat="45.07384" lon="6.17559">
        <ele>1570.6</ele>
        <time>2024-08-10T05:54:54Z</time>
      </trkpt>
      <trkpt lat="45.07384" lon="6.17559">
        <ele>1570.8</ele>
        <time>2024-08-10T05:54:55Z</time>
      </trkpt>
      <trkpt lat="45.07385" lon="6.17562">
        <ele>1570.8</ele>
        <time>2024-08-10T05:54:56Z</time>
      </trkpt>
      <trkpt lat="45.07387" lon="6.17563">
        <ele>1570.8</ele>
        <time>2024-08-10T05:54:57Z</time>
      </trkpt>
      <trkpt lat="45.07387" lon="6.17563">
        <ele>1570.8</ele>
        <time>2024-08-10T05:54:58Z</time>
      </trkpt>
      <trkpt lat="45.07389" lon="6.17566">
        <ele>1570.8</ele>
        <time>2024-08-10T05:54:59Z</time>
      </trkpt>
      <trkpt lat="45.07389" lon="6.17566">
        <ele>1570.8</ele>
        <time>2024-08-10T05:55:00Z</time>
      </trkpt>
      <trkpt lat="45.07392" lon="6.17568">
        <ele>1571</ele>
        <time>2024-08-10T05:55:01Z</time>
      </trkpt>
      <trkpt lat="45.07392" lon="6.17568">
        <ele>1571</ele>
        <time>2024-08-10T05:55:02Z</time>
      </trkpt>
      <trkpt lat="45.07393" lon="6.17572">
        <ele>1571</ele>
        <time>2024-08-10T05:55:03Z</time>
      </trkpt>
      <trkpt lat="45.07393" lon="6.17572">
        <ele>1571</ele>
        <time>2024-08-10T05:55:04Z</time>
      </trkpt>
      <trkpt lat="45.07395" lon="6.17575">
        <ele>1571</ele>
        <time>2024-08-10T05:55:05Z</time>
      </trkpt>
      <trkpt lat="45.07395" lon="6.17575">
        <ele>1571</ele>
        <time>2024-08-10T05:55:06Z</time>
      </trkpt>
      <trkpt lat="45.07398" lon="6.17577">
        <ele>1571.2</ele>
        <time>2024-08-10T05:55:07Z</time>
      </trkpt>
      <trkpt lat="45.07398" lon="6.17577">
        <ele>1571.2</ele>
        <time>2024-08-10T05:55:08Z</time>
      </trkpt>
      <trkpt lat="45.074" lon="6.1758">
        <ele>1571.2</ele>
        <time>2024-08-10T05:55:09Z</time>
      </trkpt>
      <trkpt lat="45.074" lon="6.1758">
        <ele>1571.2</ele>
        <time>2024-08-10T05:55:10Z</time>
      </trkpt>
      <trkpt lat="45.07402" lon="6.17583">
        <ele>1571</ele>
        <time>2024-08-10T05:55:11Z</time>
      </trkpt>
      <trkpt lat="45.07402" lon="6.17583">
        <ele>1571</ele>
        <time>2024-08-10T05:55:12Z</time>
      </trkpt>
      <trkpt lat="45.07405" lon="6.17586">
        <ele>1571.2</ele>
        <time>2024-08-10T05:55:13Z</time>
      </trkpt>
      <trkpt lat="45.07405" lon="6.17586">
        <ele>1571.2</ele>
        <time>2024-08-10T05:55:14Z</time>
      </trkpt>
      <trkpt lat="45.07407" lon="6.17589">
        <ele>1571.2</ele>
        <time>2024-08-10T05:55:15Z</time>
      </trkpt>
      <trkpt lat="45.07407" lon="6.17589">
        <ele>1571</ele>
        <time>2024-08-10T05:55:16Z</time>
      </trkpt>
      <trkpt lat="45.07409" lon="6.17592">
        <ele>1571</ele>
        <time>2024-08-10T05:55:17Z</time>
      </trkpt>
      <trkpt lat="45.07409" lon="6.17592">
        <ele>1571</ele>
        <time>2024-08-10T05:55:18Z</time>
      </trkpt>
      <trkpt lat="45.0741" lon="6.17594">
        <ele>1571</ele>
        <time>2024-08-10T05:55:19Z</time>
      </trkpt>
      <trkpt lat="45.0741" lon="6.17594">
        <ele>1571</ele>
        <time>2024-08-10T05:55:20Z</time>
      </trkpt>
      <trkpt lat="45.07412" lon="6.17596">
        <ele>1571</ele>
        <time>2024-08-10T05:55:21Z</time>
      </trkpt>
      <trkpt lat="45.07413" lon="6.17598">
        <ele>1571</ele>
        <time>2024-08-10T05:55:22Z</time>
      </trkpt>
      <trkpt lat="45.07413" lon="6.17598">
        <ele>1571</ele>
        <time>2024-08-10T05:55:23Z</time>
      </trkpt>
      <trkpt lat="45.07416" lon="6.17601">
        <ele>1571</ele>
        <time>2024-08-10T05:55:24Z</time>
      </trkpt>
      <trkpt lat="45.07416" lon="6.17601">
        <ele>1571.2</ele>
        <time>2024-08-10T05:55:25Z</time>
      </trkpt>
      <trkpt lat="45.07417" lon="6.17603">
        <ele>1571.2</ele>
        <time>2024-08-10T05:55:26Z</time>
      </trkpt>
      <trkpt lat="45.07417" lon="6.17603">
        <ele>1571.2</ele>
        <time>2024-08-10T05:55:27Z</time>
      </trkpt>
      <trkpt lat="45.07419" lon="6.17606">
        <ele>1571.2</ele>
        <time>2024-08-10T05:55:28Z</time>
      </trkpt>
      <trkpt lat="45.07419" lon="6.17606">
        <ele>1571.2</ele>
        <time>2024-08-10T05:55:29Z</time>
      </trkpt>
      <trkpt lat="45.07421" lon="6.17608">
        <ele>1571.2</ele>
        <time>2024-08-10T05:55:30Z</time>
      </trkpt>
      <trkpt lat="45.07423" lon="6.17609">
        <ele>1571.2</ele>
        <time>2024-08-10T05:55:31Z</time>
      </trkpt>
      <trkpt lat="45.07426" lon="6.1761">
        <ele>1571.2</ele>
        <time>2024-08-10T05:55:32Z</time>
      </trkpt>
      <trkpt lat="45.07428" lon="6.17611">
        <ele>1571.2</ele>
        <time>2024-08-10T05:55:33Z</time>
      </trkpt>
      <trkpt lat="45.07429" lon="6.17612">
        <ele>1571.2</ele>
        <time>2024-08-10T05:55:34Z</time>
      </trkpt>
      <trkpt lat="45.07431" lon="6.17614">
        <ele>1571.2</ele>
        <time>2024-08-10T05:55:35Z</time>
      </trkpt>
      <trkpt lat="45.07431" lon="6.17614">
        <ele>1570.8</ele>
        <time>2024-08-10T05:55:36Z</time>
      </trkpt>
      <trkpt lat="45.07432" lon="6.17617">
        <ele>1570.8</ele>
        <time>2024-08-10T05:55:37Z</time>
      </trkpt>
      <trkpt lat="45.07432" lon="6.17617">
        <ele>1571</ele>
        <time>2024-08-10T05:55:38Z</time>
      </trkpt>
      <trkpt lat="45.07435" lon="6.1762">
        <ele>1571</ele>
        <time>2024-08-10T05:55:39Z</time>
      </trkpt>
      <trkpt lat="45.07436" lon="6.17622">
        <ele>1571</ele>
        <time>2024-08-10T05:55:40Z</time>
      </trkpt>
      <trkpt lat="45.07436" lon="6.17622">
        <ele>1571</ele>
        <time>2024-08-10T05:55:41Z</time>
      </trkpt>
      <trkpt lat="45.07438" lon="6.17626">
        <ele>1571.2</ele>
        <time>2024-08-10T05:55:42Z</time>
      </trkpt>
      <trkpt lat="45.07439" lon="6.17628">
        <ele>1571.2</ele>
        <time>2024-08-10T05:55:43Z</time>
      </trkpt>
      <trkpt lat="45.07439" lon="6.17628">
        <ele>1571.2</ele>
        <time>2024-08-10T05:55:44Z</time>
      </trkpt>
      <trkpt lat="45.07441" lon="6.1763">
        <ele>1570.8</ele>
        <time>2024-08-10T05:55:45Z</time>
      </trkpt>
      <trkpt lat="45.07441" lon="6.1763">
        <ele>1570.8</ele>
        <time>2024-08-10T05:55:46Z</time>
      </trkpt>
      <trkpt lat="45.07441" lon="6.1763">
        <ele>1571</ele>
        <time>2024-08-10T05:55:47Z</time>
      </trkpt>
      <trkpt lat="45.07443" lon="6.17632">
        <ele>1571.2</ele>
        <time>2024-08-10T05:55:48Z</time>
      </trkpt>
      <trkpt lat="45.07443" lon="6.17632">
        <ele>1571.2</ele>
        <time>2024-08-10T05:55:49Z</time>
      </trkpt>
      <trkpt lat="45.07446" lon="6.17634">
        <ele>1571.2</ele>
        <time>2024-08-10T05:55:50Z</time>
      </trkpt>
      <trkpt lat="45.07447" lon="6.17635">
        <ele>1571.2</ele>
        <time>2024-08-10T05:55:51Z</time>
      </trkpt>
      <trkpt lat="45.07449" lon="6.17635">
        <ele>1571.2</ele>
        <time>2024-08-10T05:55:52Z</time>
      </trkpt>
      <trkpt lat="45.07449" lon="6.17635">
        <ele>1571.2</ele>
        <time>2024-08-10T05:55:53Z</time>
      </trkpt>
      <trkpt lat="45.07453" lon="6.17637">
        <ele>1571.2</ele>
        <time>2024-08-10T05:55:54Z</time>
      </trkpt>
      <trkpt lat="45.07453" lon="6.17637">
        <ele>1571.2</ele>
        <time>2024-08-10T05:55:55Z</time>
      </trkpt>
      <trkpt lat="45.07454" lon="6.1764">
        <ele>1571.2</ele>
        <time>2024-08-10T05:55:56Z</time>
      </trkpt>
      <trkpt lat="45.07454" lon="6.1764">
        <ele>1571.2</ele>
        <time>2024-08-10T05:55:57Z</time>
      </trkpt>
      <trkpt lat="45.07455" lon="6.17642">
        <ele>1571.2</ele>
        <time>2024-08-10T05:55:58Z</time>
      </trkpt>
      <trkpt lat="45.07455" lon="6.17642">
        <ele>1571.2</ele>
        <time>2024-08-10T05:55:59Z</time>
      </trkpt>
      <trkpt lat="45.07455" lon="6.17642">
        <ele>1571.2</ele>
        <time>2024-08-10T05:56:00Z</time>
      </trkpt>
      <trkpt lat="45.07457" lon="6.17644">
        <ele>1571.2</ele>
        <time>2024-08-10T05:56:01Z</time>
      </trkpt>
      <trkpt lat="45.07457" lon="6.17644">
        <ele>1571.2</ele>
        <time>2024-08-10T05:56:02Z</time>
      </trkpt>
      <trkpt lat="45.07459" lon="6.17646">
        <ele>1571.2</ele>
        <time>2024-08-10T05:56:03Z</time>
      </trkpt>
      <trkpt lat="45.07459" lon="6.17646">
        <ele>1571.2</ele>
        <time>2024-08-10T05:56:04Z</time>
      </trkpt>
      <trkpt lat="45.07462" lon="6.17648">
        <ele>1571.2</ele>
        <time>2024-08-10T05:56:05Z</time>
      </trkpt>
      <trkpt lat="45.07462" lon="6.17648">
        <ele>1571.2</ele>
        <time>2024-08-10T05:56:06Z</time>
      </trkpt>
      <trkpt lat="45.07465" lon="6.1765">
        <ele>1571.2</ele>
        <time>2024-08-10T05:56:07Z</time>
      </trkpt>
      <trkpt lat="45.07465" lon="6.1765">
        <ele>1571.2</ele>
        <time>2024-08-10T05:56:08Z</time>
      </trkpt>
      <trkpt lat="45.07468" lon="6.17652">
        <ele>1571.2</ele>
        <time>2024-08-10T05:56:09Z</time>
      </trkpt>
      <trkpt lat="45.0747" lon="6.17652">
        <ele>1571.2</ele>
        <time>2024-08-10T05:56:10Z</time>
      </trkpt>
      <trkpt lat="45.0747" lon="6.17652">
        <ele>1571.2</ele>
        <time>2024-08-10T05:56:11Z</time>
      </trkpt>
      <trkpt lat="45.07473" lon="6.17655">
        <ele>1571.2</ele>
        <time>2024-08-10T05:56:12Z</time>
      </trkpt>
      <trkpt lat="45.07473" lon="6.17655">
        <ele>1571.2</ele>
        <time>2024-08-10T05:56:13Z</time>
      </trkpt>
      <trkpt lat="45.07476" lon="6.17659">
        <ele>1571.2</ele>
        <time>2024-08-10T05:56:14Z</time>
      </trkpt>
      <trkpt lat="45.07477" lon="6.17661">
        <ele>1571.2</ele>
        <time>2024-08-10T05:56:15Z</time>
      </trkpt>
      <trkpt lat="45.07477" lon="6.17663">
        <ele>1571.2</ele>
        <time>2024-08-10T05:56:16Z</time>
      </trkpt>
      <trkpt lat="45.07477" lon="6.17663">
        <ele>1571.2</ele>
        <time>2024-08-10T05:56:17Z</time>
      </trkpt>
      <trkpt lat="45.07479" lon="6.17665">
        <ele>1571.2</ele>
        <time>2024-08-10T05:56:18Z</time>
      </trkpt>
      <trkpt lat="45.07479" lon="6.17665">
        <ele>1571.2</ele>
        <time>2024-08-10T05:56:19Z</time>
      </trkpt>
      <trkpt lat="45.07481" lon="6.17666">
        <ele>1571.2</ele>
        <time>2024-08-10T05:56:20Z</time>
      </trkpt>
      <trkpt lat="45.07481" lon="6.17666">
        <ele>1571.2</ele>
        <time>2024-08-10T05:56:21Z</time>
      </trkpt>
      <trkpt lat="45.07483" lon="6.17669">
        <ele>1571.2</ele>
        <time>2024-08-10T05:56:22Z</time>
      </trkpt>
      <trkpt lat="45.07483" lon="6.17669">
        <ele>1571.2</ele>
        <time>2024-08-10T05:56:23Z</time>
      </trkpt>
      <trkpt lat="45.07485" lon="6.17671">
        <ele>1571.2</ele>
        <time>2024-08-10T05:56:24Z</time>
      </trkpt>
      <trkpt lat="45.07485" lon="6.17671">
        <ele>1571.2</ele>
        <time>2024-08-10T05:56:25Z</time>
      </trkpt>
      <trkpt lat="45.07487" lon="6.17673">
        <ele>1571.2</ele>
        <time>2024-08-10T05:56:26Z</time>
      </trkpt>
      <trkpt lat="45.07487" lon="6.17673">
        <ele>1571.4</ele>
        <time>2024-08-10T05:56:27Z</time>
      </trkpt>
      <trkpt lat="45.0749" lon="6.17676">
        <ele>1571.4</ele>
        <time>2024-08-10T05:56:28Z</time>
      </trkpt>
      <trkpt lat="45.0749" lon="6.17676">
        <ele>1571.4</ele>
        <time>2024-08-10T05:56:29Z</time>
      </trkpt>
      <trkpt lat="45.07492" lon="6.17679">
        <ele>1571.4</ele>
        <time>2024-08-10T05:56:30Z</time>
      </trkpt>
      <trkpt lat="45.07492" lon="6.17679">
        <ele>1571.4</ele>
        <time>2024-08-10T05:56:31Z</time>
      </trkpt>
      <trkpt lat="45.07494" lon="6.17681">
        <ele>1571.4</ele>
        <time>2024-08-10T05:56:32Z</time>
      </trkpt>
      <trkpt lat="45.07494" lon="6.17681">
        <ele>1571.4</ele>
        <time>2024-08-10T05:56:33Z</time>
      </trkpt>
      <trkpt lat="45.07495" lon="6.17685">
        <ele>1571.4</ele>
        <time>2024-08-10T05:56:34Z</time>
      </trkpt>
      <trkpt lat="45.07495" lon="6.17685">
        <ele>1571.4</ele>
        <time>2024-08-10T05:56:35Z</time>
      </trkpt>
      <trkpt lat="45.07497" lon="6.17689">
        <ele>1571.4</ele>
        <time>2024-08-10T05:56:36Z</time>
      </trkpt>
      <trkpt lat="45.07497" lon="6.17689">
        <ele>1571.6</ele>
        <time>2024-08-10T05:56:37Z</time>
      </trkpt>
      <trkpt lat="45.07498" lon="6.17692">
        <ele>1571.6</ele>
        <time>2024-08-10T05:56:38Z</time>
      </trkpt>
      <trkpt lat="45.07498" lon="6.17692">
        <ele>1571.6</ele>
        <time>2024-08-10T05:56:39Z</time>
      </trkpt>
      <trkpt lat="45.075" lon="6.17695">
        <ele>1571.6</ele>
        <time>2024-08-10T05:56:40Z</time>
      </trkpt>
      <trkpt lat="45.075" lon="6.17695">
        <ele>1571.8</ele>
        <time>2024-08-10T05:56:41Z</time>
      </trkpt>
      <trkpt lat="45.07502" lon="6.17698">
        <ele>1571.8</ele>
        <time>2024-08-10T05:56:42Z</time>
      </trkpt>
      <trkpt lat="45.07502" lon="6.17698">
        <ele>1571.8</ele>
        <time>2024-08-10T05:56:43Z</time>
      </trkpt>
      <trkpt lat="45.07503" lon="6.17701">
        <ele>1571.8</ele>
        <time>2024-08-10T05:56:44Z</time>
      </trkpt>
      <trkpt lat="45.07503" lon="6.17701">
        <ele>1571.8</ele>
        <time>2024-08-10T05:56:45Z</time>
      </trkpt>
      <trkpt lat="45.07505" lon="6.17705">
        <ele>1572</ele>
        <time>2024-08-10T05:56:46Z</time>
      </trkpt>
      <trkpt lat="45.07505" lon="6.17705">
        <ele>1572.2</ele>
        <time>2024-08-10T05:56:47Z</time>
      </trkpt>
      <trkpt lat="45.07506" lon="6.17708">
        <ele>1572.2</ele>
        <time>2024-08-10T05:56:48Z</time>
      </trkpt>
      <trkpt lat="45.07506" lon="6.17708">
        <ele>1572.2</ele>
        <time>2024-08-10T05:56:49Z</time>
      </trkpt>
      <trkpt lat="45.07508" lon="6.17711">
        <ele>1572</ele>
        <time>2024-08-10T05:56:50Z</time>
      </trkpt>
      <trkpt lat="45.07508" lon="6.17711">
        <ele>1572</ele>
        <time>2024-08-10T05:56:51Z</time>
      </trkpt>
      <trkpt lat="45.07509" lon="6.17714">
        <ele>1572</ele>
        <time>2024-08-10T05:56:52Z</time>
      </trkpt>
      <trkpt lat="45.07509" lon="6.17714">
        <ele>1572</ele>
        <time>2024-08-10T05:56:53Z</time>
      </trkpt>
      <trkpt lat="45.07511" lon="6.17717">
        <ele>1571.8</ele>
        <time>2024-08-10T05:56:54Z</time>
      </trkpt>
      <trkpt lat="45.07511" lon="6.17717">
        <ele>1571.8</ele>
        <time>2024-08-10T05:56:55Z</time>
      </trkpt>
      <trkpt lat="45.07513" lon="6.1772">
        <ele>1571.8</ele>
        <time>2024-08-10T05:56:56Z</time>
      </trkpt>
      <trkpt lat="45.07513" lon="6.1772">
        <ele>1571.8</ele>
        <time>2024-08-10T05:56:57Z</time>
      </trkpt>
      <trkpt lat="45.07515" lon="6.17723">
        <ele>1571.8</ele>
        <time>2024-08-10T05:56:58Z</time>
      </trkpt>
      <trkpt lat="45.07515" lon="6.17723">
        <ele>1571.8</ele>
        <time>2024-08-10T05:56:59Z</time>
      </trkpt>
      <trkpt lat="45.07517" lon="6.17725">
        <ele>1571.6</ele>
        <time>2024-08-10T05:57:00Z</time>
      </trkpt>
      <trkpt lat="45.07517" lon="6.17725">
        <ele>1571.4</ele>
        <time>2024-08-10T05:57:01Z</time>
      </trkpt>
      <trkpt lat="45.07517" lon="6.17725">
        <ele>1571.4</ele>
        <time>2024-08-10T05:57:02Z</time>
      </trkpt>
      <trkpt lat="45.07517" lon="6.17725">
        <ele>1571.4</ele>
        <time>2024-08-10T05:57:03Z</time>
      </trkpt>
      <trkpt lat="45.07517" lon="6.17725">
        <ele>1571.4</ele>
        <time>2024-08-10T05:57:04Z</time>
      </trkpt>
      <trkpt lat="45.07517" lon="6.17725">
        <ele>1571.4</ele>
        <time>2024-08-10T05:57:05Z</time>
      </trkpt>
      <trkpt lat="45.07519" lon="6.17727">
        <ele>1571.4</ele>
        <time>2024-08-10T05:57:06Z</time>
      </trkpt>
      <trkpt lat="45.07519" lon="6.17727">
        <ele>1571.6</ele>
        <time>2024-08-10T05:57:07Z</time>
      </trkpt>
      <trkpt lat="45.0752" lon="6.17731">
        <ele>1571.4</ele>
        <time>2024-08-10T05:57:08Z</time>
      </trkpt>
      <trkpt lat="45.0752" lon="6.17731">
        <ele>1571.4</ele>
        <time>2024-08-10T05:57:09Z</time>
      </trkpt>
      <trkpt lat="45.07522" lon="6.17734">
        <ele>1571.4</ele>
        <time>2024-08-10T05:57:10Z</time>
      </trkpt>
      <trkpt lat="45.07522" lon="6.17734">
        <ele>1571.4</ele>
        <time>2024-08-10T05:57:11Z</time>
      </trkpt>
      <trkpt lat="45.07524" lon="6.17737">
        <ele>1571.4</ele>
        <time>2024-08-10T05:57:12Z</time>
      </trkpt>
      <trkpt lat="45.07524" lon="6.17737">
        <ele>1571.4</ele>
        <time>2024-08-10T05:57:13Z</time>
      </trkpt>
      <trkpt lat="45.07526" lon="6.1774">
        <ele>1571.4</ele>
        <time>2024-08-10T05:57:14Z</time>
      </trkpt>
      <trkpt lat="45.07528" lon="6.17742">
        <ele>1571.2</ele>
        <time>2024-08-10T05:57:15Z</time>
      </trkpt>
      <trkpt lat="45.07528" lon="6.17742">
        <ele>1571.2</ele>
        <time>2024-08-10T05:57:16Z</time>
      </trkpt>
      <trkpt lat="45.07528" lon="6.17742">
        <ele>1571</ele>
        <time>2024-08-10T05:57:17Z</time>
      </trkpt>
      <trkpt lat="45.07528" lon="6.17742">
        <ele>1571.2</ele>
        <time>2024-08-10T05:57:18Z</time>
      </trkpt>
      <trkpt lat="45.0753" lon="6.17744">
        <ele>1571.2</ele>
        <time>2024-08-10T05:57:19Z</time>
      </trkpt>
      <trkpt lat="45.0753" lon="6.17744">
        <ele>1571.2</ele>
        <time>2024-08-10T05:57:20Z</time>
      </trkpt>
      <trkpt lat="45.07531" lon="6.17747">
        <ele>1571.2</ele>
        <time>2024-08-10T05:57:21Z</time>
      </trkpt>
      <trkpt lat="45.07531" lon="6.17747">
        <ele>1571.2</ele>
        <time>2024-08-10T05:57:22Z</time>
      </trkpt>
      <trkpt lat="45.07533" lon="6.17751">
        <ele>1571</ele>
        <time>2024-08-10T05:57:23Z</time>
      </trkpt>
      <trkpt lat="45.07533" lon="6.17751">
        <ele>1571</ele>
        <time>2024-08-10T05:57:24Z</time>
      </trkpt>
      <trkpt lat="45.07534" lon="6.17754">
        <ele>1571</ele>
        <time>2024-08-10T05:57:25Z</time>
      </trkpt>
      <trkpt lat="45.07534" lon="6.17754">
        <ele>1571</ele>
        <time>2024-08-10T05:57:26Z</time>
      </trkpt>
      <trkpt lat="45.07536" lon="6.17757">
        <ele>1571</ele>
        <time>2024-08-10T05:57:27Z</time>
      </trkpt>
      <trkpt lat="45.07536" lon="6.17757">
        <ele>1571.2</ele>
        <time>2024-08-10T05:57:28Z</time>
      </trkpt>
      <trkpt lat="45.07538" lon="6.1776">
        <ele>1571.2</ele>
        <time>2024-08-10T05:57:29Z</time>
      </trkpt>
      <trkpt lat="45.07538" lon="6.1776">
        <ele>1571.2</ele>
        <time>2024-08-10T05:57:30Z</time>
      </trkpt>
      <trkpt lat="45.0754" lon="6.17763">
        <ele>1571</ele>
        <time>2024-08-10T05:57:31Z</time>
      </trkpt>
      <trkpt lat="45.0754" lon="6.17763">
        <ele>1571</ele>
        <time>2024-08-10T05:57:32Z</time>
      </trkpt>
      <trkpt lat="45.07542" lon="6.17767">
        <ele>1571</ele>
        <time>2024-08-10T05:57:33Z</time>
      </trkpt>
      <trkpt lat="45.07542" lon="6.17767">
        <ele>1571.2</ele>
        <time>2024-08-10T05:57:34Z</time>
      </trkpt>
      <trkpt lat="45.07543" lon="6.1777">
        <ele>1571.2</ele>
        <time>2024-08-10T05:57:35Z</time>
      </trkpt>
      <trkpt lat="45.07543" lon="6.1777">
        <ele>1571.2</ele>
        <time>2024-08-10T05:57:36Z</time>
      </trkpt>
      <trkpt lat="45.07545" lon="6.17773">
        <ele>1571.2</ele>
        <time>2024-08-10T05:57:37Z</time>
      </trkpt>
      <trkpt lat="45.07546" lon="6.17775">
        <ele>1571.2</ele>
        <time>2024-08-10T05:57:38Z</time>
      </trkpt>
      <trkpt lat="45.07546" lon="6.17775">
        <ele>1571.2</ele>
        <time>2024-08-10T05:57:39Z</time>
      </trkpt>
      <trkpt lat="45.07549" lon="6.17778">
        <ele>1571.2</ele>
        <time>2024-08-10T05:57:40Z</time>
      </trkpt>
      <trkpt lat="45.07549" lon="6.17781">
        <ele>1571.2</ele>
        <time>2024-08-10T05:57:41Z</time>
      </trkpt>
      <trkpt lat="45.07549" lon="6.17781">
        <ele>1571.2</ele>
        <time>2024-08-10T05:57:42Z</time>
      </trkpt>
      <trkpt lat="45.0755" lon="6.17784">
        <ele>1571</ele>
        <time>2024-08-10T05:57:43Z</time>
      </trkpt>
      <trkpt lat="45.0755" lon="6.17784">
        <ele>1570.8</ele>
        <time>2024-08-10T05:57:44Z</time>
      </trkpt>
      <trkpt lat="45.07552" lon="6.17787">
        <ele>1570.6</ele>
        <time>2024-08-10T05:57:45Z</time>
      </trkpt>
      <trkpt lat="45.07552" lon="6.17787">
        <ele>1570.6</ele>
        <time>2024-08-10T05:57:46Z</time>
      </trkpt>
      <trkpt lat="45.07554" lon="6.17789">
        <ele>1570.6</ele>
        <time>2024-08-10T05:57:47Z</time>
      </trkpt>
      <trkpt lat="45.07554" lon="6.17789">
        <ele>1571</ele>
        <time>2024-08-10T05:57:48Z</time>
      </trkpt>
      <trkpt lat="45.07558" lon="6.17791">
        <ele>1571.2</ele>
        <time>2024-08-10T05:57:49Z</time>
      </trkpt>
      <trkpt lat="45.0756" lon="6.17792">
        <ele>1571.2</ele>
        <time>2024-08-10T05:57:50Z</time>
      </trkpt>
      <trkpt lat="45.07562" lon="6.17793">
        <ele>1571.2</ele>
        <time>2024-08-10T05:57:51Z</time>
      </trkpt>
      <trkpt lat="45.07562" lon="6.17793">
        <ele>1571.2</ele>
        <time>2024-08-10T05:57:52Z</time>
      </trkpt>
      <trkpt lat="45.07564" lon="6.17796">
        <ele>1571.2</ele>
        <time>2024-08-10T05:57:53Z</time>
      </trkpt>
      <trkpt lat="45.07564" lon="6.17796">
        <ele>1571.2</ele>
        <time>2024-08-10T05:57:54Z</time>
      </trkpt>
      <trkpt lat="45.07567" lon="6.17798">
        <ele>1571.2</ele>
        <time>2024-08-10T05:57:55Z</time>
      </trkpt>
      <trkpt lat="45.07571" lon="6.17801">
        <ele>1571.2</ele>
        <time>2024-08-10T05:57:56Z</time>
      </trkpt>
      <trkpt lat="45.07572" lon="6.17801">
        <ele>1571.2</ele>
        <time>2024-08-10T05:57:57Z</time>
      </trkpt>
      <trkpt lat="45.07572" lon="6.17801">
        <ele>1571.2</ele>
        <time>2024-08-10T05:57:58Z</time>
      </trkpt>
      <trkpt lat="45.07574" lon="6.17805">
        <ele>1571.2</ele>
        <time>2024-08-10T05:57:59Z</time>
      </trkpt>
      <trkpt lat="45.07574" lon="6.17805">
        <ele>1571.2</ele>
        <time>2024-08-10T05:58:00Z</time>
      </trkpt>
      <trkpt lat="45.07576" lon="6.17808">
        <ele>1571</ele>
        <time>2024-08-10T05:58:01Z</time>
      </trkpt>
      <trkpt lat="45.07578" lon="6.17809">
        <ele>1571</ele>
        <time>2024-08-10T05:58:02Z</time>
      </trkpt>
      <trkpt lat="45.07579" lon="6.1781">
        <ele>1571</ele>
        <time>2024-08-10T05:58:03Z</time>
      </trkpt>
      <trkpt lat="45.07579" lon="6.1781">
        <ele>1571</ele>
        <time>2024-08-10T05:58:04Z</time>
      </trkpt>
      <trkpt lat="45.07582" lon="6.17813">
        <ele>1571</ele>
        <time>2024-08-10T05:58:05Z</time>
      </trkpt>
      <trkpt lat="45.07582" lon="6.17813">
        <ele>1571</ele>
        <time>2024-08-10T05:58:06Z</time>
      </trkpt>
      <trkpt lat="45.07584" lon="6.17816">
        <ele>1571</ele>
        <time>2024-08-10T05:58:07Z</time>
      </trkpt>
      <trkpt lat="45.07584" lon="6.17816">
        <ele>1570.8</ele>
        <time>2024-08-10T05:58:08Z</time>
      </trkpt>
      <trkpt lat="45.07586" lon="6.17818">
        <ele>1570.8</ele>
        <time>2024-08-10T05:58:09Z</time>
      </trkpt>
      <trkpt lat="45.07586" lon="6.17818">
        <ele>1571</ele>
        <time>2024-08-10T05:58:10Z</time>
      </trkpt>
      <trkpt lat="45.07588" lon="6.17821">
        <ele>1571</ele>
        <time>2024-08-10T05:58:11Z</time>
      </trkpt>
      <trkpt lat="45.07588" lon="6.17821">
        <ele>1570.8</ele>
        <time>2024-08-10T05:58:12Z</time>
      </trkpt>
      <trkpt lat="45.0759" lon="6.17824">
        <ele>1570.8</ele>
        <time>2024-08-10T05:58:13Z</time>
      </trkpt>
      <trkpt lat="45.07592" lon="6.17826">
        <ele>1570.8</ele>
        <time>2024-08-10T05:58:14Z</time>
      </trkpt>
      <trkpt lat="45.07594" lon="6.17828">
        <ele>1570.8</ele>
        <time>2024-08-10T05:58:15Z</time>
      </trkpt>
      <trkpt lat="45.07594" lon="6.17828">
        <ele>1570.8</ele>
        <time>2024-08-10T05:58:16Z</time>
      </trkpt>
      <trkpt lat="45.07596" lon="6.1783">
        <ele>1570.8</ele>
        <time>2024-08-10T05:58:17Z</time>
      </trkpt>
      <trkpt lat="45.07596" lon="6.1783">
        <ele>1570.8</ele>
        <time>2024-08-10T05:58:18Z</time>
      </trkpt>
      <trkpt lat="45.07598" lon="6.17832">
        <ele>1570.6</ele>
        <time>2024-08-10T05:58:19Z</time>
      </trkpt>
      <trkpt lat="45.07598" lon="6.17832">
        <ele>1570.6</ele>
        <time>2024-08-10T05:58:20Z</time>
      </trkpt>
      <trkpt lat="45.076" lon="6.17834">
        <ele>1570.6</ele>
        <time>2024-08-10T05:58:21Z</time>
      </trkpt>
      <trkpt lat="45.076" lon="6.17834">
        <ele>1570.6</ele>
        <time>2024-08-10T05:58:22Z</time>
      </trkpt>
      <trkpt lat="45.07602" lon="6.17837">
        <ele>1570.6</ele>
        <time>2024-08-10T05:58:23Z</time>
      </trkpt>
      <trkpt lat="45.07602" lon="6.17837">
        <ele>1570.6</ele>
        <time>2024-08-10T05:58:24Z</time>
      </trkpt>
      <trkpt lat="45.07605" lon="6.17839">
        <ele>1570.6</ele>
        <time>2024-08-10T05:58:25Z</time>
      </trkpt>
      <trkpt lat="45.07605" lon="6.17839">
        <ele>1570.6</ele>
        <time>2024-08-10T05:58:26Z</time>
      </trkpt>
      <trkpt lat="45.07607" lon="6.17841">
        <ele>1570.6</ele>
        <time>2024-08-10T05:58:27Z</time>
      </trkpt>
      <trkpt lat="45.07607" lon="6.17841">
        <ele>1570.6</ele>
        <time>2024-08-10T05:58:28Z</time>
      </trkpt>
      <trkpt lat="45.0761" lon="6.17843">
        <ele>1570.6</ele>
        <time>2024-08-10T05:58:29Z</time>
      </trkpt>
      <trkpt lat="45.07611" lon="6.17845">
        <ele>1570.6</ele>
        <time>2024-08-10T05:58:30Z</time>
      </trkpt>
      <trkpt lat="45.07611" lon="6.17845">
        <ele>1570.6</ele>
        <time>2024-08-10T05:58:31Z</time>
      </trkpt>
      <trkpt lat="45.07613" lon="6.17847">
        <ele>1570.4</ele>
        <time>2024-08-10T05:58:32Z</time>
      </trkpt>
      <trkpt lat="45.07613" lon="6.17847">
        <ele>1570.2</ele>
        <time>2024-08-10T05:58:33Z</time>
      </trkpt>
      <trkpt lat="45.07614" lon="6.17849">
        <ele>1570.2</ele>
        <time>2024-08-10T05:58:34Z</time>
      </trkpt>
      <trkpt lat="45.07614" lon="6.17849">
        <ele>1570.2</ele>
        <time>2024-08-10T05:58:35Z</time>
      </trkpt>
      <trkpt lat="45.07616" lon="6.17852">
        <ele>1570.2</ele>
        <time>2024-08-10T05:58:36Z</time>
      </trkpt>
      <trkpt lat="45.07617" lon="6.17853">
        <ele>1570.4</ele>
        <time>2024-08-10T05:58:37Z</time>
      </trkpt>
      <trkpt lat="45.07617" lon="6.17853">
        <ele>1570.4</ele>
        <time>2024-08-10T05:58:38Z</time>
      </trkpt>
      <trkpt lat="45.0762" lon="6.17856">
        <ele>1570.4</ele>
        <time>2024-08-10T05:58:39Z</time>
      </trkpt>
      <trkpt lat="45.07621" lon="6.17858">
        <ele>1570.4</ele>
        <time>2024-08-10T05:58:40Z</time>
      </trkpt>
      <trkpt lat="45.07623" lon="6.17859">
        <ele>1570.4</ele>
        <time>2024-08-10T05:58:41Z</time>
      </trkpt>
      <trkpt lat="45.07623" lon="6.17859">
        <ele>1570.4</ele>
        <time>2024-08-10T05:58:42Z</time>
      </trkpt>
      <trkpt lat="45.07626" lon="6.17862">
        <ele>1570.2</ele>
        <time>2024-08-10T05:58:43Z</time>
      </trkpt>
      <trkpt lat="45.07626" lon="6.17862">
        <ele>1570</ele>
        <time>2024-08-10T05:58:44Z</time>
      </trkpt>
      <trkpt lat="45.07629" lon="6.17861">
        <ele>1570</ele>
        <time>2024-08-10T05:58:45Z</time>
      </trkpt>
      <trkpt lat="45.07629" lon="6.17861">
        <ele>1570</ele>
        <time>2024-08-10T05:58:46Z</time>
      </trkpt>
      <trkpt lat="45.07631" lon="6.17862">
        <ele>1569.6</ele>
        <time>2024-08-10T05:58:47Z</time>
      </trkpt>
      <trkpt lat="45.07631" lon="6.17862">
        <ele>1569.6</ele>
        <time>2024-08-10T05:58:48Z</time>
      </trkpt>
      <trkpt lat="45.07633" lon="6.17863">
        <ele>1569.4</ele>
        <time>2024-08-10T05:58:49Z</time>
      </trkpt>
      <trkpt lat="45.07633" lon="6.17863">
        <ele>1569.4</ele>
        <time>2024-08-10T05:58:50Z</time>
      </trkpt>
      <trkpt lat="45.07635" lon="6.17863">
        <ele>1569.4</ele>
        <time>2024-08-10T05:58:51Z</time>
      </trkpt>
      <trkpt lat="45.07635" lon="6.17863">
        <ele>1569.4</ele>
        <time>2024-08-10T05:58:52Z</time>
      </trkpt>
      <trkpt lat="45.07635" lon="6.17863">
        <ele>1569.4</ele>
        <time>2024-08-10T05:58:53Z</time>
      </trkpt>
      <trkpt lat="45.07635" lon="6.17863">
        <ele>1569.4</ele>
        <time>2024-08-10T05:58:54Z</time>
      </trkpt>
      <trkpt lat="45.07635" lon="6.17863">
        <ele>1569.2</ele>
        <time>2024-08-10T05:58:55Z</time>
      </trkpt>
      <trkpt lat="45.07635" lon="6.17863">
        <ele>1569.2</ele>
        <time>2024-08-10T05:58:56Z</time>
      </trkpt>
      <trkpt lat="45.07635" lon="6.17863">
        <ele>1569.2</ele>
        <time>2024-08-10T05:58:57Z</time>
      </trkpt>
      <trkpt lat="45.07635" lon="6.17863">
        <ele>1569.2</ele>
        <time>2024-08-10T05:58:58Z</time>
      </trkpt>
      <trkpt lat="45.07635" lon="6.17863">
        <ele>1569.2</ele>
        <time>2024-08-10T05:58:59Z</time>
      </trkpt>
      <trkpt lat="45.07635" lon="6.17863">
        <ele>1569.4</ele>
        <time>2024-08-10T05:59:00Z</time>
      </trkpt>
      <trkpt lat="45.07635" lon="6.17863">
        <ele>1569.4</ele>
        <time>2024-08-10T05:59:01Z</time>
      </trkpt>
      <trkpt lat="45.07635" lon="6.17863">
        <ele>1569.4</ele>
        <time>2024-08-10T05:59:02Z</time>
      </trkpt>
      <trkpt lat="45.07635" lon="6.17863">
        <ele>1569.4</ele>
        <time>2024-08-10T05:59:03Z</time>
      </trkpt>
      <trkpt lat="45.07635" lon="6.17863">
        <ele>1569.4</ele>
        <time>2024-08-10T05:59:04Z</time>
      </trkpt>
      <trkpt lat="45.07635" lon="6.17863">
        <ele>1569.4</ele>
        <time>2024-08-10T05:59:05Z</time>
      </trkpt>
      <trkpt lat="45.07635" lon="6.17863">
        <ele>1569.4</ele>
        <time>2024-08-10T05:59:06Z</time>
      </trkpt>
      <trkpt lat="45.07635" lon="6.17863">
        <ele>1569.4</ele>
        <time>2024-08-10T05:59:07Z</time>
      </trkpt>
      <trkpt lat="45.07638" lon="6.17863">
        <ele>1569.2</ele>
        <time>2024-08-10T05:59:08Z</time>
      </trkpt>
      <trkpt lat="45.0764" lon="6.17864">
        <ele>1569.2</ele>
        <time>2024-08-10T05:59:09Z</time>
      </trkpt>
      <trkpt lat="45.07642" lon="6.17865">
        <ele>1569.2</ele>
        <time>2024-08-10T05:59:10Z</time>
      </trkpt>
      <trkpt lat="45.07644" lon="6.17866">
        <ele>1569.2</ele>
        <time>2024-08-10T05:59:11Z</time>
      </trkpt>
      <trkpt lat="45.07646" lon="6.17868">
        <ele>1569.2</ele>
        <time>2024-08-10T05:59:12Z</time>
      </trkpt>
      <trkpt lat="45.07647" lon="6.17869">
        <ele>1569</ele>
        <time>2024-08-10T05:59:13Z</time>
      </trkpt>
      <trkpt lat="45.07647" lon="6.17869">
        <ele>1568.8</ele>
        <time>2024-08-10T05:59:14Z</time>
      </trkpt>
      <trkpt lat="45.0765" lon="6.17871">
        <ele>1568.8</ele>
        <time>2024-08-10T05:59:15Z</time>
      </trkpt>
      <trkpt lat="45.07652" lon="6.17872">
        <ele>1568.8</ele>
        <time>2024-08-10T05:59:16Z</time>
      </trkpt>
      <trkpt lat="45.07652" lon="6.17872">
        <ele>1568.8</ele>
        <time>2024-08-10T05:59:17Z</time>
      </trkpt>
      <trkpt lat="45.07655" lon="6.17874">
        <ele>1568.8</ele>
        <time>2024-08-10T05:59:18Z</time>
      </trkpt>
      <trkpt lat="45.07655" lon="6.17874">
        <ele>1568.8</ele>
        <time>2024-08-10T05:59:19Z</time>
      </trkpt>
      <trkpt lat="45.07656" lon="6.17876">
        <ele>1568.6</ele>
        <time>2024-08-10T05:59:20Z</time>
      </trkpt>
      <trkpt lat="45.07656" lon="6.17876">
        <ele>1568.6</ele>
        <time>2024-08-10T05:59:21Z</time>
      </trkpt>
      <trkpt lat="45.07659" lon="6.17878">
        <ele>1569</ele>
        <time>2024-08-10T05:59:22Z</time>
      </trkpt>
      <trkpt lat="45.07659" lon="6.17878">
        <ele>1569.2</ele>
        <time>2024-08-10T05:59:23Z</time>
      </trkpt>
      <trkpt lat="45.07661" lon="6.1788">
        <ele>1569.2</ele>
        <time>2024-08-10T05:59:24Z</time>
      </trkpt>
      <trkpt lat="45.07661" lon="6.1788">
        <ele>1569.2</ele>
        <time>2024-08-10T05:59:25Z</time>
      </trkpt>
      <trkpt lat="45.07663" lon="6.17883">
        <ele>1569.2</ele>
        <time>2024-08-10T05:59:26Z</time>
      </trkpt>
      <trkpt lat="45.07663" lon="6.17883">
        <ele>1569</ele>
        <time>2024-08-10T05:59:27Z</time>
      </trkpt>
      <trkpt lat="45.07665" lon="6.17886">
        <ele>1569</ele>
        <time>2024-08-10T05:59:28Z</time>
      </trkpt>
      <trkpt lat="45.07665" lon="6.17886">
        <ele>1569</ele>
        <time>2024-08-10T05:59:29Z</time>
      </trkpt>
      <trkpt lat="45.07668" lon="6.17889">
        <ele>1569</ele>
        <time>2024-08-10T05:59:30Z</time>
      </trkpt>
      <trkpt lat="45.07668" lon="6.17889">
        <ele>1569</ele>
        <time>2024-08-10T05:59:31Z</time>
      </trkpt>
      <trkpt lat="45.0767" lon="6.17891">
        <ele>1569</ele>
        <time>2024-08-10T05:59:32Z</time>
      </trkpt>
      <trkpt lat="45.07671" lon="6.17892">
        <ele>1568.8</ele>
        <time>2024-08-10T05:59:33Z</time>
      </trkpt>
      <trkpt lat="45.07671" lon="6.17892">
        <ele>1568.6</ele>
        <time>2024-08-10T05:59:34Z</time>
      </trkpt>
      <trkpt lat="45.07673" lon="6.17894">
        <ele>1568.6</ele>
        <time>2024-08-10T05:59:35Z</time>
      </trkpt>
      <trkpt lat="45.07673" lon="6.17894">
        <ele>1568.6</ele>
        <time>2024-08-10T05:59:36Z</time>
      </trkpt>
      <trkpt lat="45.07675" lon="6.17896">
        <ele>1568.6</ele>
        <time>2024-08-10T05:59:37Z</time>
      </trkpt>
      <trkpt lat="45.07675" lon="6.17896">
        <ele>1568.6</ele>
        <time>2024-08-10T05:59:38Z</time>
      </trkpt>
      <trkpt lat="45.07677" lon="6.17899">
        <ele>1568.6</ele>
        <time>2024-08-10T05:59:39Z</time>
      </trkpt>
      <trkpt lat="45.07677" lon="6.17899">
        <ele>1568.6</ele>
        <time>2024-08-10T05:59:40Z</time>
      </trkpt>
      <trkpt lat="45.0768" lon="6.179">
        <ele>1568.6</ele>
        <time>2024-08-10T05:59:41Z</time>
      </trkpt>
      <trkpt lat="45.07682" lon="6.17901">
        <ele>1568.4</ele>
        <time>2024-08-10T05:59:42Z</time>
      </trkpt>
      <trkpt lat="45.07682" lon="6.17901">
        <ele>1568.4</ele>
        <time>2024-08-10T05:59:43Z</time>
      </trkpt>
      <trkpt lat="45.07685" lon="6.17903">
        <ele>1568.4</ele>
        <time>2024-08-10T05:59:44Z</time>
      </trkpt>
      <trkpt lat="45.07685" lon="6.17903">
        <ele>1568.4</ele>
        <time>2024-08-10T05:59:45Z</time>
      </trkpt>
      <trkpt lat="45.07687" lon="6.17905">
        <ele>1568.4</ele>
        <time>2024-08-10T05:59:46Z</time>
      </trkpt>
      <trkpt lat="45.07687" lon="6.17905">
        <ele>1568.4</ele>
        <time>2024-08-10T05:59:47Z</time>
      </trkpt>
      <trkpt lat="45.07691" lon="6.17906">
        <ele>1568.4</ele>
        <time>2024-08-10T05:59:48Z</time>
      </trkpt>
      <trkpt lat="45.07691" lon="6.17906">
        <ele>1568.2</ele>
        <time>2024-08-10T05:59:49Z</time>
      </trkpt>
      <trkpt lat="45.07693" lon="6.17907">
        <ele>1568.2</ele>
        <time>2024-08-10T05:59:50Z</time>
      </trkpt>
      <trkpt lat="45.07694" lon="6.17908">
        <ele>1568</ele>
        <time>2024-08-10T05:59:51Z</time>
      </trkpt>
      <trkpt lat="45.07694" lon="6.17908">
        <ele>1568</ele>
        <time>2024-08-10T05:59:52Z</time>
      </trkpt>
      <trkpt lat="45.07697" lon="6.1791">
        <ele>1568</ele>
        <time>2024-08-10T05:59:53Z</time>
      </trkpt>
      <trkpt lat="45.07697" lon="6.1791">
        <ele>1568</ele>
        <time>2024-08-10T05:59:54Z</time>
      </trkpt>
      <trkpt lat="45.07699" lon="6.17912">
        <ele>1567.8</ele>
        <time>2024-08-10T05:59:55Z</time>
      </trkpt>
      <trkpt lat="45.07699" lon="6.17912">
        <ele>1567.6</ele>
        <time>2024-08-10T05:59:56Z</time>
      </trkpt>
      <trkpt lat="45.07701" lon="6.17913">
        <ele>1567.6</ele>
        <time>2024-08-10T05:59:57Z</time>
      </trkpt>
      <trkpt lat="45.07701" lon="6.17913">
        <ele>1567.6</ele>
        <time>2024-08-10T05:59:58Z</time>
      </trkpt>
      <trkpt lat="45.07704" lon="6.17914">
        <ele>1567.6</ele>
        <time>2024-08-10T05:59:59Z</time>
      </trkpt>
      <trkpt lat="45.07704" lon="6.17914">
        <ele>1567.6</ele>
        <time>2024-08-10T06:00:00Z</time>
      </trkpt>
      <trkpt lat="45.07707" lon="6.17915">
        <ele>1567.6</ele>
        <time>2024-08-10T06:00:01Z</time>
      </trkpt>
      <trkpt lat="45.07707" lon="6.17915">
        <ele>1567.6</ele>
        <time>2024-08-10T06:00:02Z</time>
      </trkpt>
      <trkpt lat="45.07709" lon="6.17918">
        <ele>1567.4</ele>
        <time>2024-08-10T06:00:03Z</time>
      </trkpt>
      <trkpt lat="45.07709" lon="6.17918">
        <ele>1567.4</ele>
        <time>2024-08-10T06:00:04Z</time>
      </trkpt>
      <trkpt lat="45.07711" lon="6.1792">
        <ele>1567.2</ele>
        <time>2024-08-10T06:00:05Z</time>
      </trkpt>
      <trkpt lat="45.07711" lon="6.1792">
        <ele>1567.2</ele>
        <time>2024-08-10T06:00:06Z</time>
      </trkpt>
      <trkpt lat="45.07714" lon="6.17921">
        <ele>1567.2</ele>
        <time>2024-08-10T06:00:07Z</time>
      </trkpt>
      <trkpt lat="45.07714" lon="6.17921">
        <ele>1567.2</ele>
        <time>2024-08-10T06:00:08Z</time>
      </trkpt>
      <trkpt lat="45.07716" lon="6.17923">
        <ele>1567.2</ele>
        <time>2024-08-10T06:00:09Z</time>
      </trkpt>
      <trkpt lat="45.07716" lon="6.17923">
        <ele>1567</ele>
        <time>2024-08-10T06:00:10Z</time>
      </trkpt>
      <trkpt lat="45.07718" lon="6.17925">
        <ele>1567</ele>
        <time>2024-08-10T06:00:11Z</time>
      </trkpt>
      <trkpt lat="45.07718" lon="6.17925">
        <ele>1567</ele>
        <time>2024-08-10T06:00:12Z</time>
      </trkpt>
      <trkpt lat="45.0772" lon="6.17927">
        <ele>1567</ele>
        <time>2024-08-10T06:00:13Z</time>
      </trkpt>
      <trkpt lat="45.0772" lon="6.17927">
        <ele>1567.2</ele>
        <time>2024-08-10T06:00:14Z</time>
      </trkpt>
      <trkpt lat="45.07723" lon="6.17929">
        <ele>1567</ele>
        <time>2024-08-10T06:00:15Z</time>
      </trkpt>
      <trkpt lat="45.07723" lon="6.17929">
        <ele>1567</ele>
        <time>2024-08-10T06:00:16Z</time>
      </trkpt>
      <trkpt lat="45.07725" lon="6.17931">
        <ele>1567</ele>
        <time>2024-08-10T06:00:17Z</time>
      </trkpt>
      <trkpt lat="45.07725" lon="6.17931">
        <ele>1567</ele>
        <time>2024-08-10T06:00:18Z</time>
      </trkpt>
      <trkpt lat="45.07725" lon="6.17934">
        <ele>1567.2</ele>
        <time>2024-08-10T06:00:19Z</time>
      </trkpt>
      <trkpt lat="45.07725" lon="6.17934">
        <ele>1567.2</ele>
        <time>2024-08-10T06:00:20Z</time>
      </trkpt>
      <trkpt lat="45.07727" lon="6.17937">
        <ele>1567.2</ele>
        <time>2024-08-10T06:00:21Z</time>
      </trkpt>
      <trkpt lat="45.07728" lon="6.17939">
        <ele>1567</ele>
        <time>2024-08-10T06:00:22Z</time>
      </trkpt>
      <trkpt lat="45.07728" lon="6.17939">
        <ele>1567</ele>
        <time>2024-08-10T06:00:23Z</time>
      </trkpt>
      <trkpt lat="45.07731" lon="6.17943">
        <ele>1566.8</ele>
        <time>2024-08-10T06:00:24Z</time>
      </trkpt>
      <trkpt lat="45.07732" lon="6.17944">
        <ele>1566.8</ele>
        <time>2024-08-10T06:00:25Z</time>
      </trkpt>
      <trkpt lat="45.07733" lon="6.17945">
        <ele>1566.8</ele>
        <time>2024-08-10T06:00:26Z</time>
      </trkpt>
      <trkpt lat="45.07733" lon="6.17945">
        <ele>1566.6</ele>
        <time>2024-08-10T06:00:27Z</time>
      </trkpt>
      <trkpt lat="45.07735" lon="6.17947">
        <ele>1566.6</ele>
        <time>2024-08-10T06:00:28Z</time>
      </trkpt>
      <trkpt lat="45.07735" lon="6.17947">
        <ele>1566.4</ele>
        <time>2024-08-10T06:00:29Z</time>
      </trkpt>
      <trkpt lat="45.07738" lon="6.1795">
        <ele>1566.4</ele>
        <time>2024-08-10T06:00:30Z</time>
      </trkpt>
      <trkpt lat="45.0774" lon="6.17951">
        <ele>1566.2</ele>
        <time>2024-08-10T06:00:31Z</time>
      </trkpt>
      <trkpt lat="45.0774" lon="6.17951">
        <ele>1566.2</ele>
        <time>2024-08-10T06:00:32Z</time>
      </trkpt>
      <trkpt lat="45.07742" lon="6.17953">
        <ele>1566.2</ele>
        <time>2024-08-10T06:00:33Z</time>
      </trkpt>
      <trkpt lat="45.07742" lon="6.17953">
        <ele>1566.2</ele>
        <time>2024-08-10T06:00:34Z</time>
      </trkpt>
      <trkpt lat="45.07742" lon="6.17953">
        <ele>1566.2</ele>
        <time>2024-08-10T06:00:35Z</time>
      </trkpt>
      <trkpt lat="45.07745" lon="6.17955">
        <ele>1566.2</ele>
        <time>2024-08-10T06:00:36Z</time>
      </trkpt>
      <trkpt lat="45.07745" lon="6.17955">
        <ele>1566.2</ele>
        <time>2024-08-10T06:00:37Z</time>
      </trkpt>
      <trkpt lat="45.07747" lon="6.17958">
        <ele>1566</ele>
        <time>2024-08-10T06:00:38Z</time>
      </trkpt>
      <trkpt lat="45.07747" lon="6.17958">
        <ele>1566</ele>
        <time>2024-08-10T06:00:39Z</time>
      </trkpt>
      <trkpt lat="45.07749" lon="6.1796">
        <ele>1566</ele>
        <time>2024-08-10T06:00:40Z</time>
      </trkpt>
      <trkpt lat="45.07749" lon="6.1796">
        <ele>1565.8</ele>
        <time>2024-08-10T06:00:41Z</time>
      </trkpt>
      <trkpt lat="45.07752" lon="6.17962">
        <ele>1565.6</ele>
        <time>2024-08-10T06:00:42Z</time>
      </trkpt>
      <trkpt lat="45.07752" lon="6.17962">
        <ele>1565.6</ele>
        <time>2024-08-10T06:00:43Z</time>
      </trkpt>
      <trkpt lat="45.07755" lon="6.17964">
        <ele>1565.6</ele>
        <time>2024-08-10T06:00:44Z</time>
      </trkpt>
      <trkpt lat="45.07755" lon="6.17964">
        <ele>1565.6</ele>
        <time>2024-08-10T06:00:45Z</time>
      </trkpt>
      <trkpt lat="45.07757" lon="6.17966">
        <ele>1565.4</ele>
        <time>2024-08-10T06:00:46Z</time>
      </trkpt>
      <trkpt lat="45.07757" lon="6.17966">
        <ele>1565.2</ele>
        <time>2024-08-10T06:00:47Z</time>
      </trkpt>
      <trkpt lat="45.07761" lon="6.17967">
        <ele>1565.2</ele>
        <time>2024-08-10T06:00:48Z</time>
      </trkpt>
      <trkpt lat="45.07761" lon="6.17967">
        <ele>1565</ele>
        <time>2024-08-10T06:00:49Z</time>
      </trkpt>
      <trkpt lat="45.07764" lon="6.1797">
        <ele>1565</ele>
        <time>2024-08-10T06:00:50Z</time>
      </trkpt>
      <trkpt lat="45.07765" lon="6.17971">
        <ele>1565.2</ele>
        <time>2024-08-10T06:00:51Z</time>
      </trkpt>
      <trkpt lat="45.07767" lon="6.17973">
        <ele>1565.2</ele>
        <time>2024-08-10T06:00:52Z</time>
      </trkpt>
      <trkpt lat="45.07769" lon="6.17975">
        <ele>1565.2</ele>
        <time>2024-08-10T06:00:53Z</time>
      </trkpt>
      <trkpt lat="45.07771" lon="6.17976">
        <ele>1565</ele>
        <time>2024-08-10T06:00:54Z</time>
      </trkpt>
      <trkpt lat="45.07771" lon="6.17976">
        <ele>1565</ele>
        <time>2024-08-10T06:00:55Z</time>
      </trkpt>
      <trkpt lat="45.07773" lon="6.17978">
        <ele>1565</ele>
        <time>2024-08-10T06:00:56Z</time>
      </trkpt>
      <trkpt lat="45.07773" lon="6.17978">
        <ele>1565</ele>
        <time>2024-08-10T06:00:57Z</time>
      </trkpt>
      <trkpt lat="45.07775" lon="6.17979">
        <ele>1564.8</ele>
        <time>2024-08-10T06:00:58Z</time>
      </trkpt>
      <trkpt lat="45.07775" lon="6.17979">
        <ele>1564.8</ele>
        <time>2024-08-10T06:00:59Z</time>
      </trkpt>
      <trkpt lat="45.07777" lon="6.17979">
        <ele>1564.8</ele>
        <time>2024-08-10T06:01:00Z</time>
      </trkpt>
      <trkpt lat="45.07777" lon="6.17979">
        <ele>1564.8</ele>
        <time>2024-08-10T06:01:01Z</time>
      </trkpt>
      <trkpt lat="45.0778" lon="6.17979">
        <ele>1564.8</ele>
        <time>2024-08-10T06:01:02Z</time>
      </trkpt>
      <trkpt lat="45.07782" lon="6.17979">
        <ele>1564.8</ele>
        <time>2024-08-10T06:01:03Z</time>
      </trkpt>
      <trkpt lat="45.07782" lon="6.17979">
        <ele>1564.8</ele>
        <time>2024-08-10T06:01:04Z</time>
      </trkpt>
      <trkpt lat="45.07785" lon="6.17979">
        <ele>1564.6</ele>
        <time>2024-08-10T06:01:05Z</time>
      </trkpt>
      <trkpt lat="45.07787" lon="6.17979">
        <ele>1564.6</ele>
        <time>2024-08-10T06:01:06Z</time>
      </trkpt>
      <trkpt lat="45.07787" lon="6.17979">
        <ele>1564.2</ele>
        <time>2024-08-10T06:01:07Z</time>
      </trkpt>
      <trkpt lat="45.0779" lon="6.17978">
        <ele>1564.2</ele>
        <time>2024-08-10T06:01:08Z</time>
      </trkpt>
      <trkpt lat="45.0779" lon="6.17978">
        <ele>1564.4</ele>
        <time>2024-08-10T06:01:09Z</time>
      </trkpt>
      <trkpt lat="45.0779" lon="6.17978">
        <ele>1564.4</ele>
        <time>2024-08-10T06:01:10Z</time>
      </trkpt>
      <trkpt lat="45.07792" lon="6.17977">
        <ele>1564</ele>
        <time>2024-08-10T06:01:11Z</time>
      </trkpt>
      <trkpt lat="45.07792" lon="6.17977">
        <ele>1564</ele>
        <time>2024-08-10T06:01:12Z</time>
      </trkpt>
      <trkpt lat="45.07796" lon="6.17978">
        <ele>1564</ele>
        <time>2024-08-10T06:01:13Z</time>
      </trkpt>
      <trkpt lat="45.07798" lon="6.17978">
        <ele>1564</ele>
        <time>2024-08-10T06:01:14Z</time>
      </trkpt>
      <trkpt lat="45.07798" lon="6.17978">
        <ele>1564</ele>
        <time>2024-08-10T06:01:15Z</time>
      </trkpt>
      <trkpt lat="45.07801" lon="6.17977">
        <ele>1563.8</ele>
        <time>2024-08-10T06:01:16Z</time>
      </trkpt>
      <trkpt lat="45.07801" lon="6.17977">
        <ele>1563.8</ele>
        <time>2024-08-10T06:01:17Z</time>
      </trkpt>
      <trkpt lat="45.07803" lon="6.17977">
        <ele>1563.6</ele>
        <time>2024-08-10T06:01:18Z</time>
      </trkpt>
      <trkpt lat="45.07803" lon="6.17977">
        <ele>1563.6</ele>
        <time>2024-08-10T06:01:19Z</time>
      </trkpt>
      <trkpt lat="45.07806" lon="6.17977">
        <ele>1563.6</ele>
        <time>2024-08-10T06:01:20Z</time>
      </trkpt>
      <trkpt lat="45.07806" lon="6.17977">
        <ele>1563.6</ele>
        <time>2024-08-10T06:01:21Z</time>
      </trkpt>
      <trkpt lat="45.07809" lon="6.17976">
        <ele>1563.4</ele>
        <time>2024-08-10T06:01:22Z</time>
      </trkpt>
      <trkpt lat="45.07809" lon="6.17976">
        <ele>1563.4</ele>
        <time>2024-08-10T06:01:23Z</time>
      </trkpt>
      <trkpt lat="45.07811" lon="6.17976">
        <ele>1563.4</ele>
        <time>2024-08-10T06:01:24Z</time>
      </trkpt>
      <trkpt lat="45.07811" lon="6.17976">
        <ele>1563.4</ele>
        <time>2024-08-10T06:01:25Z</time>
      </trkpt>
      <trkpt lat="45.07814" lon="6.17976">
        <ele>1563.2</ele>
        <time>2024-08-10T06:01:26Z</time>
      </trkpt>
      <trkpt lat="45.07814" lon="6.17976">
        <ele>1563.4</ele>
        <time>2024-08-10T06:01:27Z</time>
      </trkpt>
      <trkpt lat="45.07817" lon="6.17976">
        <ele>1563.2</ele>
        <time>2024-08-10T06:01:28Z</time>
      </trkpt>
      <trkpt lat="45.07819" lon="6.17977">
        <ele>1563.2</ele>
        <time>2024-08-10T06:01:29Z</time>
      </trkpt>
      <trkpt lat="45.07819" lon="6.17977">
        <ele>1563.2</ele>
        <time>2024-08-10T06:01:30Z</time>
      </trkpt>
      <trkpt lat="45.07822" lon="6.17979">
        <ele>1563</ele>
        <time>2024-08-10T06:01:31Z</time>
      </trkpt>
      <trkpt lat="45.07822" lon="6.17979">
        <ele>1563</ele>
        <time>2024-08-10T06:01:32Z</time>
      </trkpt>
      <trkpt lat="45.07826" lon="6.17981">
        <ele>1563</ele>
        <time>2024-08-10T06:01:33Z</time>
      </trkpt>
      <trkpt lat="45.07826" lon="6.17981">
        <ele>1563.2</ele>
        <time>2024-08-10T06:01:34Z</time>
      </trkpt>
      <trkpt lat="45.07829" lon="6.17981">
        <ele>1563.2</ele>
        <time>2024-08-10T06:01:35Z</time>
      </trkpt>
      <trkpt lat="45.07829" lon="6.17981">
        <ele>1563.2</ele>
        <time>2024-08-10T06:01:36Z</time>
      </trkpt>
      <trkpt lat="45.07832" lon="6.17981">
        <ele>1563</ele>
        <time>2024-08-10T06:01:37Z</time>
      </trkpt>
      <trkpt lat="45.07832" lon="6.17981">
        <ele>1562.8</ele>
        <time>2024-08-10T06:01:38Z</time>
      </trkpt>
      <trkpt lat="45.07835" lon="6.17981">
        <ele>1562.6</ele>
        <time>2024-08-10T06:01:39Z</time>
      </trkpt>
      <trkpt lat="45.07835" lon="6.17981">
        <ele>1562.6</ele>
        <time>2024-08-10T06:01:40Z</time>
      </trkpt>
      <trkpt lat="45.07837" lon="6.17981">
        <ele>1562.6</ele>
        <time>2024-08-10T06:01:41Z</time>
      </trkpt>
      <trkpt lat="45.07837" lon="6.17981">
        <ele>1562.6</ele>
        <time>2024-08-10T06:01:42Z</time>
      </trkpt>
      <trkpt lat="45.0784" lon="6.17982">
        <ele>1562.6</ele>
        <time>2024-08-10T06:01:43Z</time>
      </trkpt>
      <trkpt lat="45.0784" lon="6.17982">
        <ele>1562.6</ele>
        <time>2024-08-10T06:01:44Z</time>
      </trkpt>
      <trkpt lat="45.07842" lon="6.17984">
        <ele>1562.6</ele>
        <time>2024-08-10T06:01:45Z</time>
      </trkpt>
      <trkpt lat="45.07842" lon="6.17984">
        <ele>1562.6</ele>
        <time>2024-08-10T06:01:46Z</time>
      </trkpt>
      <trkpt lat="45.07845" lon="6.17986">
        <ele>1562.6</ele>
        <time>2024-08-10T06:01:47Z</time>
      </trkpt>
      <trkpt lat="45.07846" lon="6.17988">
        <ele>1562.6</ele>
        <time>2024-08-10T06:01:48Z</time>
      </trkpt>
      <trkpt lat="45.07846" lon="6.17988">
        <ele>1562.6</ele>
        <time>2024-08-10T06:01:49Z</time>
      </trkpt>
      <trkpt lat="45.07847" lon="6.17992">
        <ele>1562.4</ele>
        <time>2024-08-10T06:01:50Z</time>
      </trkpt>
      <trkpt lat="45.07848" lon="6.17994">
        <ele>1562.6</ele>
        <time>2024-08-10T06:01:51Z</time>
      </trkpt>
      <trkpt lat="45.07848" lon="6.17994">
        <ele>1562.6</ele>
        <time>2024-08-10T06:01:52Z</time>
      </trkpt>
      <trkpt lat="45.07849" lon="6.17998">
        <ele>1562.6</ele>
        <time>2024-08-10T06:01:53Z</time>
      </trkpt>
      <trkpt lat="45.07849" lon="6.17998">
        <ele>1562.8</ele>
        <time>2024-08-10T06:01:54Z</time>
      </trkpt>
      <trkpt lat="45.07849" lon="6.18001">
        <ele>1562.8</ele>
        <time>2024-08-10T06:01:55Z</time>
      </trkpt>
      <trkpt lat="45.07849" lon="6.18001">
        <ele>1562.8</ele>
        <time>2024-08-10T06:01:56Z</time>
      </trkpt>
      <trkpt lat="45.07849" lon="6.18005">
        <ele>1562.8</ele>
        <time>2024-08-10T06:01:57Z</time>
      </trkpt>
      <trkpt lat="45.07849" lon="6.18005">
        <ele>1562.6</ele>
        <time>2024-08-10T06:01:58Z</time>
      </trkpt>
      <trkpt lat="45.07848" lon="6.18009">
        <ele>1562.6</ele>
        <time>2024-08-10T06:01:59Z</time>
      </trkpt>
      <trkpt lat="45.07848" lon="6.18009">
        <ele>1562.6</ele>
        <time>2024-08-10T06:02:00Z</time>
      </trkpt>
      <trkpt lat="45.07846" lon="6.18012">
        <ele>1562.8</ele>
        <time>2024-08-10T06:02:01Z</time>
      </trkpt>
      <trkpt lat="45.07846" lon="6.18012">
        <ele>1562.8</ele>
        <time>2024-08-10T06:02:02Z</time>
      </trkpt>
      <trkpt lat="45.07845" lon="6.18015">
        <ele>1562.6</ele>
        <time>2024-08-10T06:02:03Z</time>
      </trkpt>
      <trkpt lat="45.07845" lon="6.18015">
        <ele>1562.6</ele>
        <time>2024-08-10T06:02:04Z</time>
      </trkpt>
      <trkpt lat="45.07843" lon="6.18018">
        <ele>1562.8</ele>
        <time>2024-08-10T06:02:05Z</time>
      </trkpt>
      <trkpt lat="45.07843" lon="6.18018">
        <ele>1562.8</ele>
        <time>2024-08-10T06:02:06Z</time>
      </trkpt>
      <trkpt lat="45.07841" lon="6.18019">
        <ele>1562.8</ele>
        <time>2024-08-10T06:02:07Z</time>
      </trkpt>
      <trkpt lat="45.07841" lon="6.18019">
        <ele>1562.8</ele>
        <time>2024-08-10T06:02:08Z</time>
      </trkpt>
      <trkpt lat="45.07841" lon="6.18019">
        <ele>1562.8</ele>
        <time>2024-08-10T06:02:09Z</time>
      </trkpt>
      <trkpt lat="45.07839" lon="6.1802">
        <ele>1563</ele>
        <time>2024-08-10T06:02:10Z</time>
      </trkpt>
      <trkpt lat="45.07839" lon="6.1802">
        <ele>1563</ele>
        <time>2024-08-10T06:02:11Z</time>
      </trkpt>
      <trkpt lat="45.07839" lon="6.1802">
        <ele>1563.2</ele>
        <time>2024-08-10T06:02:12Z</time>
      </trkpt>
      <trkpt lat="45.07839" lon="6.1802">
        <ele>1563.2</ele>
        <time>2024-08-10T06:02:13Z</time>
      </trkpt>
      <trkpt lat="45.07839" lon="6.1802">
        <ele>1563</ele>
        <time>2024-08-10T06:02:14Z</time>
      </trkpt>
      <trkpt lat="45.07839" lon="6.1802">
        <ele>1563</ele>
        <time>2024-08-10T06:02:15Z</time>
      </trkpt>
      <trkpt lat="45.07839" lon="6.1802">
        <ele>1563</ele>
        <time>2024-08-10T06:02:16Z</time>
      </trkpt>
      <trkpt lat="45.07839" lon="6.1802">
        <ele>1563</ele>
        <time>2024-08-10T06:02:17Z</time>
      </trkpt>
      <trkpt lat="45.07839" lon="6.1802">
        <ele>1563</ele>
        <time>2024-08-10T06:02:18Z</time>
      </trkpt>
      <trkpt lat="45.07839" lon="6.1802">
        <ele>1563</ele>
        <time>2024-08-10T06:02:19Z</time>
      </trkpt>
      <trkpt lat="45.07839" lon="6.1802">
        <ele>1562.8</ele>
        <time>2024-08-10T06:02:20Z</time>
      </trkpt>
      <trkpt lat="45.07839" lon="6.1802">
        <ele>1562.8</ele>
        <time>2024-08-10T06:02:21Z</time>
      </trkpt>
      <trkpt lat="45.07839" lon="6.1802">
        <ele>1563</ele>
        <time>2024-08-10T06:02:22Z</time>
      </trkpt>
      <trkpt lat="45.07839" lon="6.1802">
        <ele>1563</ele>
        <time>2024-08-10T06:02:23Z</time>
      </trkpt>
      <trkpt lat="45.07839" lon="6.1802">
        <ele>1563</ele>
        <time>2024-08-10T06:02:24Z</time>
      </trkpt>
      <trkpt lat="45.07839" lon="6.1802">
        <ele>1563</ele>
        <time>2024-08-10T06:02:25Z</time>
      </trkpt>
      <trkpt lat="45.07839" lon="6.1802">
        <ele>1563.2</ele>
        <time>2024-08-10T06:02:26Z</time>
      </trkpt>
      <trkpt lat="45.07839" lon="6.1802">
        <ele>1563.2</ele>
        <time>2024-08-10T06:02:27Z</time>
      </trkpt>
      <trkpt lat="45.07839" lon="6.18023">
        <ele>1563.2</ele>
        <time>2024-08-10T06:02:28Z</time>
      </trkpt>
      <trkpt lat="45.07839" lon="6.18023">
        <ele>1563.2</ele>
        <time>2024-08-10T06:02:29Z</time>
      </trkpt>
      <trkpt lat="45.0784" lon="6.18027">
        <ele>1563.2</ele>
        <time>2024-08-10T06:02:30Z</time>
      </trkpt>
      <trkpt lat="45.07841" lon="6.1803">
        <ele>1563.2</ele>
        <time>2024-08-10T06:02:31Z</time>
      </trkpt>
      <trkpt lat="45.07842" lon="6.18032">
        <ele>1563.2</ele>
        <time>2024-08-10T06:02:32Z</time>
      </trkpt>
      <trkpt lat="45.07842" lon="6.18032">
        <ele>1563.2</ele>
        <time>2024-08-10T06:02:33Z</time>
      </trkpt>
      <trkpt lat="45.07844" lon="6.18037">
        <ele>1563.2</ele>
        <time>2024-08-10T06:02:34Z</time>
      </trkpt>
      <trkpt lat="45.07844" lon="6.18037">
        <ele>1563.6</ele>
        <time>2024-08-10T06:02:35Z</time>
      </trkpt>
      <trkpt lat="45.07845" lon="6.1804">
        <ele>1563.6</ele>
        <time>2024-08-10T06:02:36Z</time>
      </trkpt>
      <trkpt lat="45.07845" lon="6.1804">
        <ele>1563.8</ele>
        <time>2024-08-10T06:02:37Z</time>
      </trkpt>
      <trkpt lat="45.07846" lon="6.18043">
        <ele>1564</ele>
        <time>2024-08-10T06:02:38Z</time>
      </trkpt>
      <trkpt lat="45.07846" lon="6.18043">
        <ele>1564</ele>
        <time>2024-08-10T06:02:39Z</time>
      </trkpt>
      <trkpt lat="45.07846" lon="6.18046">
        <ele>1564</ele>
        <time>2024-08-10T06:02:40Z</time>
      </trkpt>
      <trkpt lat="45.07846" lon="6.18046">
        <ele>1564.2</ele>
        <time>2024-08-10T06:02:41Z</time>
      </trkpt>
      <trkpt lat="45.07847" lon="6.18048">
        <ele>1564.4</ele>
        <time>2024-08-10T06:02:42Z</time>
      </trkpt>
      <trkpt lat="45.07847" lon="6.18048">
        <ele>1564.6</ele>
        <time>2024-08-10T06:02:43Z</time>
      </trkpt>
      <trkpt lat="45.07848" lon="6.18051">
        <ele>1564.8</ele>
        <time>2024-08-10T06:02:44Z</time>
      </trkpt>
      <trkpt lat="45.07848" lon="6.18051">
        <ele>1564.8</ele>
        <time>2024-08-10T06:02:45Z</time>
      </trkpt>
      <trkpt lat="45.0785" lon="6.18054">
        <ele>1564.6</ele>
        <time>2024-08-10T06:02:46Z</time>
      </trkpt>
      <trkpt lat="45.0785" lon="6.18054">
        <ele>1564.6</ele>
        <time>2024-08-10T06:02:47Z</time>
      </trkpt>
      <trkpt lat="45.07851" lon="6.18057">
        <ele>1564.8</ele>
        <time>2024-08-10T06:02:48Z</time>
      </trkpt>
      <trkpt lat="45.07851" lon="6.18057">
        <ele>1564.8</ele>
        <time>2024-08-10T06:02:49Z</time>
      </trkpt>
      <trkpt lat="45.07853" lon="6.1806">
        <ele>1565.2</ele>
        <time>2024-08-10T06:02:50Z</time>
      </trkpt>
      <trkpt lat="45.07853" lon="6.1806">
        <ele>1565.2</ele>
        <time>2024-08-10T06:02:51Z</time>
      </trkpt>
      <trkpt lat="45.07853" lon="6.18063">
        <ele>1565.2</ele>
        <time>2024-08-10T06:02:52Z</time>
      </trkpt>
      <trkpt lat="45.07853" lon="6.18063">
        <ele>1565.2</ele>
        <time>2024-08-10T06:02:53Z</time>
      </trkpt>
      <trkpt lat="45.07853" lon="6.18066">
        <ele>1565.4</ele>
        <time>2024-08-10T06:02:54Z</time>
      </trkpt>
      <trkpt lat="45.07853" lon="6.18066">
        <ele>1565.6</ele>
        <time>2024-08-10T06:02:55Z</time>
      </trkpt>
      <trkpt lat="45.07853" lon="6.18066">
        <ele>1565.8</ele>
        <time>2024-08-10T06:02:56Z</time>
      </trkpt>
      <trkpt lat="45.07853" lon="6.18066">
        <ele>1565.8</ele>
        <time>2024-08-10T06:02:57Z</time>
      </trkpt>
      <trkpt lat="45.07853" lon="6.18066">
        <ele>1566</ele>
        <time>2024-08-10T06:02:58Z</time>
      </trkpt>
      <trkpt lat="45.07853" lon="6.18066">
        <ele>1566</ele>
        <time>2024-08-10T06:02:59Z</time>
      </trkpt>
      <trkpt lat="45.07853" lon="6.18066">
        <ele>1566</ele>
        <time>2024-08-10T06:03:00Z</time>
      </trkpt>
      <trkpt lat="45.07853" lon="6.18066">
        <ele>1566.2</ele>
        <time>2024-08-10T06:03:01Z</time>
      </trkpt>
      <trkpt lat="45.07853" lon="6.18066">
        <ele>1566.2</ele>
        <time>2024-08-10T06:03:02Z</time>
      </trkpt>
      <trkpt lat="45.07853" lon="6.18066">
        <ele>1566.2</ele>
        <time>2024-08-10T06:03:03Z</time>
      </trkpt>
      <trkpt lat="45.07853" lon="6.18066">
        <ele>1566.2</ele>
        <time>2024-08-10T06:03:04Z</time>
      </trkpt>
      <trkpt lat="45.07853" lon="6.18066">
        <ele>1566.2</ele>
        <time>2024-08-10T06:03:05Z</time>
      </trkpt>
      <trkpt lat="45.07853" lon="6.18066">
        <ele>1566.2</ele>
        <time>2024-08-10T06:03:06Z</time>
      </trkpt>
      <trkpt lat="45.07853" lon="6.18066">
        <ele>1566.2</ele>
        <time>2024-08-10T06:03:07Z</time>
      </trkpt>
      <trkpt lat="45.07853" lon="6.18066">
        <ele>1566.2</ele>
        <time>2024-08-10T06:03:08Z</time>
      </trkpt>
      <trkpt lat="45.07853" lon="6.18066">
        <ele>1566</ele>
        <time>2024-08-10T06:03:09Z</time>
      </trkpt>
      <trkpt lat="45.07853" lon="6.18066">
        <ele>1566</ele>
        <time>2024-08-10T06:03:10Z</time>
      </trkpt>
      <trkpt lat="45.07853" lon="6.18066">
        <ele>1566</ele>
        <time>2024-08-10T06:03:11Z</time>
      </trkpt>
      <trkpt lat="45.07853" lon="6.18066">
        <ele>1566</ele>
        <time>2024-08-10T06:03:12Z</time>
      </trkpt>
      <trkpt lat="45.07853" lon="6.18066">
        <ele>1566</ele>
        <time>2024-08-10T06:03:13Z</time>
      </trkpt>
      <trkpt lat="45.07853" lon="6.18066">
        <ele>1566</ele>
        <time>2024-08-10T06:03:14Z</time>
      </trkpt>
      <trkpt lat="45.07853" lon="6.18066">
        <ele>1566.2</ele>
        <time>2024-08-10T06:03:15Z</time>
      </trkpt>
      <trkpt lat="45.07853" lon="6.18066">
        <ele>1566.2</ele>
        <time>2024-08-10T06:03:16Z</time>
      </trkpt>
      <trkpt lat="45.07853" lon="6.18066">
        <ele>1566.2</ele>
        <time>2024-08-10T06:03:17Z</time>
      </trkpt>
      <trkpt lat="45.07853" lon="6.18066">
        <ele>1566.2</ele>
        <time>2024-08-10T06:03:18Z</time>
      </trkpt>
      <trkpt lat="45.07853" lon="6.18066">
        <ele>1566</ele>
        <time>2024-08-10T06:03:19Z</time>
      </trkpt>
      <trkpt lat="45.07853" lon="6.18066">
        <ele>1566</ele>
        <time>2024-08-10T06:03:20Z</time>
      </trkpt>
      <trkpt lat="45.07853" lon="6.18066">
        <ele>1566</ele>
        <time>2024-08-10T06:03:21Z</time>
      </trkpt>
      <trkpt lat="45.07853" lon="6.18066">
        <ele>1566</ele>
        <time>2024-08-10T06:03:22Z</time>
      </trkpt>
      <trkpt lat="45.07853" lon="6.18066">
        <ele>1566</ele>
        <time>2024-08-10T06:03:23Z</time>
      </trkpt>
      <trkpt lat="45.07853" lon="6.18066">
        <ele>1566</ele>
        <time>2024-08-10T06:03:24Z</time>
      </trkpt>
      <trkpt lat="45.07853" lon="6.18066">
        <ele>1566</ele>
        <time>2024-08-10T06:03:25Z</time>
      </trkpt>
      <trkpt lat="45.07853" lon="6.18066">
        <ele>1566.4</ele>
        <time>2024-08-10T06:03:26Z</time>
      </trkpt>
      <trkpt lat="45.07853" lon="6.18066">
        <ele>1566.4</ele>
        <time>2024-08-10T06:03:27Z</time>
      </trkpt>
      <trkpt lat="45.07853" lon="6.18066">
        <ele>1566.6</ele>
        <time>2024-08-10T06:03:28Z</time>
      </trkpt>
      <trkpt lat="45.07853" lon="6.18066">
        <ele>1566.8</ele>
        <time>2024-08-10T06:03:29Z</time>
      </trkpt>
      <trkpt lat="45.07853" lon="6.18066">
        <ele>1567</ele>
        <time>2024-08-10T06:03:30Z</time>
      </trkpt>
      <trkpt lat="45.07853" lon="6.18066">
        <ele>1567</ele>
        <time>2024-08-10T06:03:31Z</time>
      </trkpt>
      <trkpt lat="45.07853" lon="6.18066">
        <ele>1567</ele>
        <time>2024-08-10T06:03:32Z</time>
      </trkpt>
      <trkpt lat="45.07853" lon="6.18066">
        <ele>1567</ele>
        <time>2024-08-10T06:03:33Z</time>
      </trkpt>
      <trkpt lat="45.07853" lon="6.18066">
        <ele>1567</ele>
        <time>2024-08-10T06:03:34Z</time>
      </trkpt>
      <trkpt lat="45.07853" lon="6.18066">
        <ele>1567.2</ele>
        <time>2024-08-10T06:03:35Z</time>
      </trkpt>
      <trkpt lat="45.07853" lon="6.18066">
        <ele>1567.2</ele>
        <time>2024-08-10T06:03:36Z</time>
      </trkpt>
      <trkpt lat="45.07853" lon="6.18066">
        <ele>1567.4</ele>
        <time>2024-08-10T06:03:37Z</time>
      </trkpt>
      <trkpt lat="45.07853" lon="6.18066">
        <ele>1567.2</ele>
        <time>2024-08-10T06:03:38Z</time>
      </trkpt>
      <trkpt lat="45.07854" lon="6.18069">
        <ele>1567</ele>
        <time>2024-08-10T06:03:39Z</time>
      </trkpt>
      <trkpt lat="45.07854" lon="6.18069">
        <ele>1567</ele>
        <time>2024-08-10T06:03:40Z</time>
      </trkpt>
      <trkpt lat="45.07855" lon="6.18073">
        <ele>1567</ele>
        <time>2024-08-10T06:03:41Z</time>
      </trkpt>
      <trkpt lat="45.07856" lon="6.18075">
        <ele>1567.4</ele>
        <time>2024-08-10T06:03:42Z</time>
      </trkpt>
      <trkpt lat="45.07856" lon="6.18075">
        <ele>1567.6</ele>
        <time>2024-08-10T06:03:43Z</time>
      </trkpt>
      <trkpt lat="45.07856" lon="6.1808">
        <ele>1567.6</ele>
        <time>2024-08-10T06:03:44Z</time>
      </trkpt>
      <trkpt lat="45.07856" lon="6.1808">
        <ele>1567.6</ele>
        <time>2024-08-10T06:03:45Z</time>
      </trkpt>
      <trkpt lat="45.07858" lon="6.18083">
        <ele>1567.6</ele>
        <time>2024-08-10T06:03:46Z</time>
      </trkpt>
      <trkpt lat="45.07858" lon="6.18083">
        <ele>1567.8</ele>
        <time>2024-08-10T06:03:47Z</time>
      </trkpt>
      <trkpt lat="45.07859" lon="6.18086">
        <ele>1567.8</ele>
        <time>2024-08-10T06:03:48Z</time>
      </trkpt>
      <trkpt lat="45.07859" lon="6.18086">
        <ele>1568.4</ele>
        <time>2024-08-10T06:03:49Z</time>
      </trkpt>
      <trkpt lat="45.0786" lon="6.1809">
        <ele>1568.8</ele>
        <time>2024-08-10T06:03:50Z</time>
      </trkpt>
      <trkpt lat="45.0786" lon="6.1809">
        <ele>1568.8</ele>
        <time>2024-08-10T06:03:51Z</time>
      </trkpt>
      <trkpt lat="45.07861" lon="6.18093">
        <ele>1568.8</ele>
        <time>2024-08-10T06:03:52Z</time>
      </trkpt>
      <trkpt lat="45.07861" lon="6.18093">
        <ele>1568.8</ele>
        <time>2024-08-10T06:03:53Z</time>
      </trkpt>
      <trkpt lat="45.07862" lon="6.18096">
        <ele>1568.8</ele>
        <time>2024-08-10T06:03:54Z</time>
      </trkpt>
      <trkpt lat="45.07862" lon="6.18096">
        <ele>1568.8</ele>
        <time>2024-08-10T06:03:55Z</time>
      </trkpt>
      <trkpt lat="45.07864" lon="6.18099">
        <ele>1569</ele>
        <time>2024-08-10T06:03:56Z</time>
      </trkpt>
      <trkpt lat="45.07864" lon="6.18099">
        <ele>1569</ele>
        <time>2024-08-10T06:03:57Z</time>
      </trkpt>
      <trkpt lat="45.07865" lon="6.18102">
        <ele>1569.2</ele>
        <time>2024-08-10T06:03:58Z</time>
      </trkpt>
      <trkpt lat="45.07865" lon="6.18102">
        <ele>1569.8</ele>
        <time>2024-08-10T06:03:59Z</time>
      </trkpt>
      <trkpt lat="45.07867" lon="6.18105">
        <ele>1570</ele>
        <time>2024-08-10T06:04:00Z</time>
      </trkpt>
      <trkpt lat="45.07867" lon="6.18105">
        <ele>1570</ele>
        <time>2024-08-10T06:04:01Z</time>
      </trkpt>
      <trkpt lat="45.07869" lon="6.18107">
        <ele>1570.2</ele>
        <time>2024-08-10T06:04:02Z</time>
      </trkpt>
      <trkpt lat="45.07869" lon="6.18107">
        <ele>1570.2</ele>
        <time>2024-08-10T06:04:03Z</time>
      </trkpt>
      <trkpt lat="45.0787" lon="6.1811">
        <ele>1570.2</ele>
        <time>2024-08-10T06:04:04Z</time>
      </trkpt>
      <trkpt lat="45.0787" lon="6.1811">
        <ele>1570.2</ele>
        <time>2024-08-10T06:04:05Z</time>
      </trkpt>
      <trkpt lat="45.07872" lon="6.18113">
        <ele>1570.4</ele>
        <time>2024-08-10T06:04:06Z</time>
      </trkpt>
      <trkpt lat="45.07872" lon="6.18113">
        <ele>1570.4</ele>
        <time>2024-08-10T06:04:07Z</time>
      </trkpt>
      <trkpt lat="45.07874" lon="6.18115">
        <ele>1570.6</ele>
        <time>2024-08-10T06:04:08Z</time>
      </trkpt>
      <trkpt lat="45.07874" lon="6.18115">
        <ele>1571</ele>
        <time>2024-08-10T06:04:09Z</time>
      </trkpt>
      <trkpt lat="45.07876" lon="6.18118">
        <ele>1571</ele>
        <time>2024-08-10T06:04:10Z</time>
      </trkpt>
      <trkpt lat="45.07876" lon="6.18118">
        <ele>1571.2</ele>
        <time>2024-08-10T06:04:11Z</time>
      </trkpt>
      <trkpt lat="45.07877" lon="6.1812">
        <ele>1571.4</ele>
        <time>2024-08-10T06:04:12Z</time>
      </trkpt>
      <trkpt lat="45.07877" lon="6.1812">
        <ele>1571.4</ele>
        <time>2024-08-10T06:04:13Z</time>
      </trkpt>
      <trkpt lat="45.07879" lon="6.18122">
        <ele>1571.6</ele>
        <time>2024-08-10T06:04:14Z</time>
      </trkpt>
      <trkpt lat="45.07879" lon="6.18122">
        <ele>1571.8</ele>
        <time>2024-08-10T06:04:15Z</time>
      </trkpt>
      <trkpt lat="45.07881" lon="6.18124">
        <ele>1572.4</ele>
        <time>2024-08-10T06:04:16Z</time>
      </trkpt>
      <trkpt lat="45.07881" lon="6.18124">
        <ele>1572.4</ele>
        <time>2024-08-10T06:04:17Z</time>
      </trkpt>
      <trkpt lat="45.07882" lon="6.18127">
        <ele>1572.4</ele>
        <time>2024-08-10T06:04:18Z</time>
      </trkpt>
      <trkpt lat="45.07882" lon="6.18127">
        <ele>1572.4</ele>
        <time>2024-08-10T06:04:19Z</time>
      </trkpt>
      <trkpt lat="45.07884" lon="6.18129">
        <ele>1572.8</ele>
        <time>2024-08-10T06:04:20Z</time>
      </trkpt>
      <trkpt lat="45.07884" lon="6.18129">
        <ele>1573</ele>
        <time>2024-08-10T06:04:21Z</time>
      </trkpt>
      <trkpt lat="45.07886" lon="6.18131">
        <ele>1573.2</ele>
        <time>2024-08-10T06:04:22Z</time>
      </trkpt>
      <trkpt lat="45.07886" lon="6.18131">
        <ele>1573.4</ele>
        <time>2024-08-10T06:04:23Z</time>
      </trkpt>
      <trkpt lat="45.07887" lon="6.18134">
        <ele>1573.4</ele>
        <time>2024-08-10T06:04:24Z</time>
      </trkpt>
      <trkpt lat="45.07887" lon="6.18134">
        <ele>1573.4</ele>
        <time>2024-08-10T06:04:25Z</time>
      </trkpt>
      <trkpt lat="45.07888" lon="6.18137">
        <ele>1573.8</ele>
        <time>2024-08-10T06:04:26Z</time>
      </trkpt>
      <trkpt lat="45.07888" lon="6.18137">
        <ele>1573.8</ele>
        <time>2024-08-10T06:04:27Z</time>
      </trkpt>
      <trkpt lat="45.0789" lon="6.18139">
        <ele>1574.2</ele>
        <time>2024-08-10T06:04:28Z</time>
      </trkpt>
      <trkpt lat="45.0789" lon="6.18139">
        <ele>1574.4</ele>
        <time>2024-08-10T06:04:29Z</time>
      </trkpt>
      <trkpt lat="45.07891" lon="6.18141">
        <ele>1574.4</ele>
        <time>2024-08-10T06:04:30Z</time>
      </trkpt>
      <trkpt lat="45.07891" lon="6.18141">
        <ele>1574.4</ele>
        <time>2024-08-10T06:04:31Z</time>
      </trkpt>
      <trkpt lat="45.07893" lon="6.18144">
        <ele>1574.8</ele>
        <time>2024-08-10T06:04:32Z</time>
      </trkpt>
      <trkpt lat="45.07893" lon="6.18144">
        <ele>1575</ele>
        <time>2024-08-10T06:04:33Z</time>
      </trkpt>
      <trkpt lat="45.07894" lon="6.18147">
        <ele>1575</ele>
        <time>2024-08-10T06:04:34Z</time>
      </trkpt>
      <trkpt lat="45.07894" lon="6.18147">
        <ele>1575.2</ele>
        <time>2024-08-10T06:04:35Z</time>
      </trkpt>
      <trkpt lat="45.07895" lon="6.1815">
        <ele>1575.2</ele>
        <time>2024-08-10T06:04:36Z</time>
      </trkpt>
      <trkpt lat="45.07895" lon="6.1815">
        <ele>1575.4</ele>
        <time>2024-08-10T06:04:37Z</time>
      </trkpt>
      <trkpt lat="45.07897" lon="6.18153">
        <ele>1575.8</ele>
        <time>2024-08-10T06:04:38Z</time>
      </trkpt>
      <trkpt lat="45.07897" lon="6.18153">
        <ele>1575.8</ele>
        <time>2024-08-10T06:04:39Z</time>
      </trkpt>
      <trkpt lat="45.07899" lon="6.18155">
        <ele>1576</ele>
        <time>2024-08-10T06:04:40Z</time>
      </trkpt>
      <trkpt lat="45.07899" lon="6.18155">
        <ele>1576.2</ele>
        <time>2024-08-10T06:04:41Z</time>
      </trkpt>
      <trkpt lat="45.07901" lon="6.18157">
        <ele>1576.2</ele>
        <time>2024-08-10T06:04:42Z</time>
      </trkpt>
      <trkpt lat="45.07901" lon="6.18157">
        <ele>1576.4</ele>
        <time>2024-08-10T06:04:43Z</time>
      </trkpt>
      <trkpt lat="45.07902" lon="6.18159">
        <ele>1576.4</ele>
        <time>2024-08-10T06:04:44Z</time>
      </trkpt>
      <trkpt lat="45.07902" lon="6.18159">
        <ele>1576.6</ele>
        <time>2024-08-10T06:04:45Z</time>
      </trkpt>
      <trkpt lat="45.07905" lon="6.18161">
        <ele>1576.8</ele>
        <time>2024-08-10T06:04:46Z</time>
      </trkpt>
      <trkpt lat="45.07905" lon="6.18161">
        <ele>1577</ele>
        <time>2024-08-10T06:04:47Z</time>
      </trkpt>
      <trkpt lat="45.07907" lon="6.18164">
        <ele>1577.2</ele>
        <time>2024-08-10T06:04:48Z</time>
      </trkpt>
      <trkpt lat="45.07907" lon="6.18164">
        <ele>1577.2</ele>
        <time>2024-08-10T06:04:49Z</time>
      </trkpt>
      <trkpt lat="45.07908" lon="6.18166">
        <ele>1577.2</ele>
        <time>2024-08-10T06:04:50Z</time>
      </trkpt>
      <trkpt lat="45.07908" lon="6.18166">
        <ele>1577.4</ele>
        <time>2024-08-10T06:04:51Z</time>
      </trkpt>
      <trkpt lat="45.0791" lon="6.18168">
        <ele>1577.4</ele>
        <time>2024-08-10T06:04:52Z</time>
      </trkpt>
      <trkpt lat="45.0791" lon="6.18168">
        <ele>1577.4</ele>
        <time>2024-08-10T06:04:53Z</time>
      </trkpt>
      <trkpt lat="45.07912" lon="6.1817">
        <ele>1577.8</ele>
        <time>2024-08-10T06:04:54Z</time>
      </trkpt>
      <trkpt lat="45.07912" lon="6.1817">
        <ele>1578.2</ele>
        <time>2024-08-10T06:04:55Z</time>
      </trkpt>
      <trkpt lat="45.07914" lon="6.18172">
        <ele>1578.2</ele>
        <time>2024-08-10T06:04:56Z</time>
      </trkpt>
      <trkpt lat="45.07914" lon="6.18172">
        <ele>1578.2</ele>
        <time>2024-08-10T06:04:57Z</time>
      </trkpt>
      <trkpt lat="45.07916" lon="6.18175">
        <ele>1578.4</ele>
        <time>2024-08-10T06:04:58Z</time>
      </trkpt>
      <trkpt lat="45.07916" lon="6.18175">
        <ele>1578.6</ele>
        <time>2024-08-10T06:04:59Z</time>
      </trkpt>
      <trkpt lat="45.07916" lon="6.18175">
        <ele>1578.6</ele>
        <time>2024-08-10T06:05:00Z</time>
      </trkpt>
      <trkpt lat="45.07916" lon="6.18175">
        <ele>1578.8</ele>
        <time>2024-08-10T06:05:01Z</time>
      </trkpt>
      <trkpt lat="45.07916" lon="6.18175">
        <ele>1579.2</ele>
        <time>2024-08-10T06:05:02Z</time>
      </trkpt>
      <trkpt lat="45.07916" lon="6.18175">
        <ele>1579.8</ele>
        <time>2024-08-10T06:05:03Z</time>
      </trkpt>
      <trkpt lat="45.07916" lon="6.18175">
        <ele>1579.8</ele>
        <time>2024-08-10T06:05:04Z</time>
      </trkpt>
      <trkpt lat="45.07916" lon="6.18175">
        <ele>1579.8</ele>
        <time>2024-08-10T06:05:05Z</time>
      </trkpt>
      <trkpt lat="45.07916" lon="6.18175">
        <ele>1579.8</ele>
        <time>2024-08-10T06:05:06Z</time>
      </trkpt>
      <trkpt lat="45.07917" lon="6.18177">
        <ele>1579.8</ele>
        <time>2024-08-10T06:05:07Z</time>
      </trkpt>
      <trkpt lat="45.07917" lon="6.18177">
        <ele>1579.6</ele>
        <time>2024-08-10T06:05:08Z</time>
      </trkpt>
      <trkpt lat="45.07919" lon="6.1818">
        <ele>1579.6</ele>
        <time>2024-08-10T06:05:09Z</time>
      </trkpt>
      <trkpt lat="45.07919" lon="6.1818">
        <ele>1579.6</ele>
        <time>2024-08-10T06:05:10Z</time>
      </trkpt>
      <trkpt lat="45.07921" lon="6.18183">
        <ele>1579.8</ele>
        <time>2024-08-10T06:05:11Z</time>
      </trkpt>
      <trkpt lat="45.07921" lon="6.18183">
        <ele>1579.8</ele>
        <time>2024-08-10T06:05:12Z</time>
      </trkpt>
      <trkpt lat="45.07923" lon="6.18186">
        <ele>1579.6</ele>
        <time>2024-08-10T06:05:13Z</time>
      </trkpt>
      <trkpt lat="45.07923" lon="6.18186">
        <ele>1579.6</ele>
        <time>2024-08-10T06:05:14Z</time>
      </trkpt>
      <trkpt lat="45.07924" lon="6.18189">
        <ele>1579.8</ele>
        <time>2024-08-10T06:05:15Z</time>
      </trkpt>
      <trkpt lat="45.07924" lon="6.18189">
        <ele>1579.8</ele>
        <time>2024-08-10T06:05:16Z</time>
      </trkpt>
      <trkpt lat="45.07925" lon="6.18192">
        <ele>1580.2</ele>
        <time>2024-08-10T06:05:17Z</time>
      </trkpt>
      <trkpt lat="45.07925" lon="6.18192">
        <ele>1580.4</ele>
        <time>2024-08-10T06:05:18Z</time>
      </trkpt>
      <trkpt lat="45.07926" lon="6.18194">
        <ele>1580.4</ele>
        <time>2024-08-10T06:05:19Z</time>
      </trkpt>
      <trkpt lat="45.07926" lon="6.18194">
        <ele>1580.4</ele>
        <time>2024-08-10T06:05:20Z</time>
      </trkpt>
      <trkpt lat="45.07927" lon="6.18197">
        <ele>1580.8</ele>
        <time>2024-08-10T06:05:21Z</time>
      </trkpt>
      <trkpt lat="45.07927" lon="6.18197">
        <ele>1580.8</ele>
        <time>2024-08-10T06:05:22Z</time>
      </trkpt>
      <trkpt lat="45.07928" lon="6.18199">
        <ele>1581</ele>
        <time>2024-08-10T06:05:23Z</time>
      </trkpt>
      <trkpt lat="45.07928" lon="6.18199">
        <ele>1581.2</ele>
        <time>2024-08-10T06:05:24Z</time>
      </trkpt>
      <trkpt lat="45.07929" lon="6.18202">
        <ele>1581.2</ele>
        <time>2024-08-10T06:05:25Z</time>
      </trkpt>
      <trkpt lat="45.07929" lon="6.18202">
        <ele>1581.2</ele>
        <time>2024-08-10T06:05:26Z</time>
      </trkpt>
      <trkpt lat="45.07929" lon="6.18205">
        <ele>1581.8</ele>
        <time>2024-08-10T06:05:27Z</time>
      </trkpt>
      <trkpt lat="45.07929" lon="6.18205">
        <ele>1582</ele>
        <time>2024-08-10T06:05:28Z</time>
      </trkpt>
      <trkpt lat="45.07929" lon="6.18205">
        <ele>1582</ele>
        <time>2024-08-10T06:05:29Z</time>
      </trkpt>
      <trkpt lat="45.07929" lon="6.18209">
        <ele>1582.2</ele>
        <time>2024-08-10T06:05:30Z</time>
      </trkpt>
      <trkpt lat="45.07929" lon="6.18209">
        <ele>1582.4</ele>
        <time>2024-08-10T06:05:31Z</time>
      </trkpt>
      <trkpt lat="45.07929" lon="6.18212">
        <ele>1582.6</ele>
        <time>2024-08-10T06:05:32Z</time>
      </trkpt>
      <trkpt lat="45.07929" lon="6.18212">
        <ele>1582.8</ele>
        <time>2024-08-10T06:05:33Z</time>
      </trkpt>
      <trkpt lat="45.07929" lon="6.18214">
        <ele>1583</ele>
        <time>2024-08-10T06:05:34Z</time>
      </trkpt>
      <trkpt lat="45.07929" lon="6.18214">
        <ele>1583</ele>
        <time>2024-08-10T06:05:35Z</time>
      </trkpt>
      <trkpt lat="45.0793" lon="6.18217">
        <ele>1583.2</ele>
        <time>2024-08-10T06:05:36Z</time>
      </trkpt>
      <trkpt lat="45.0793" lon="6.18217">
        <ele>1583.4</ele>
        <time>2024-08-10T06:05:37Z</time>
      </trkpt>
      <trkpt lat="45.07931" lon="6.1822">
        <ele>1583.8</ele>
        <time>2024-08-10T06:05:38Z</time>
      </trkpt>
      <trkpt lat="45.07931" lon="6.1822">
        <ele>1583.8</ele>
        <time>2024-08-10T06:05:39Z</time>
      </trkpt>
      <trkpt lat="45.07933" lon="6.18222">
        <ele>1584</ele>
        <time>2024-08-10T06:05:40Z</time>
      </trkpt>
      <trkpt lat="45.07933" lon="6.18222">
        <ele>1584.2</ele>
        <time>2024-08-10T06:05:41Z</time>
      </trkpt>
      <trkpt lat="45.07934" lon="6.18224">
        <ele>1584.2</ele>
        <time>2024-08-10T06:05:42Z</time>
      </trkpt>
      <trkpt lat="45.07934" lon="6.18224">
        <ele>1584.6</ele>
        <time>2024-08-10T06:05:43Z</time>
      </trkpt>
      <trkpt lat="45.07935" lon="6.18226">
        <ele>1584.8</ele>
        <time>2024-08-10T06:05:44Z</time>
      </trkpt>
      <trkpt lat="45.07935" lon="6.18226">
        <ele>1585.2</ele>
        <time>2024-08-10T06:05:45Z</time>
      </trkpt>
      <trkpt lat="45.07937" lon="6.18228">
        <ele>1585.4</ele>
        <time>2024-08-10T06:05:46Z</time>
      </trkpt>
      <trkpt lat="45.07937" lon="6.18228">
        <ele>1585.4</ele>
        <time>2024-08-10T06:05:47Z</time>
      </trkpt>
      <trkpt lat="45.07938" lon="6.18231">
        <ele>1585.6</ele>
        <time>2024-08-10T06:05:48Z</time>
      </trkpt>
      <trkpt lat="45.07938" lon="6.18231">
        <ele>1585.8</ele>
        <time>2024-08-10T06:05:49Z</time>
      </trkpt>
      <trkpt lat="45.07939" lon="6.18233">
        <ele>1585.8</ele>
        <time>2024-08-10T06:05:50Z</time>
      </trkpt>
      <trkpt lat="45.07939" lon="6.18233">
        <ele>1585.8</ele>
        <time>2024-08-10T06:05:51Z</time>
      </trkpt>
      <trkpt lat="45.07939" lon="6.18236">
        <ele>1585.8</ele>
        <time>2024-08-10T06:05:52Z</time>
      </trkpt>
      <trkpt lat="45.07939" lon="6.18236">
        <ele>1586.2</ele>
        <time>2024-08-10T06:05:53Z</time>
      </trkpt>
      <trkpt lat="45.07939" lon="6.18236">
        <ele>1586.4</ele>
        <time>2024-08-10T06:05:54Z</time>
      </trkpt>
      <trkpt lat="45.0794" lon="6.18239">
        <ele>1586.8</ele>
        <time>2024-08-10T06:05:55Z</time>
      </trkpt>
      <trkpt lat="45.0794" lon="6.18239">
        <ele>1587.2</ele>
        <time>2024-08-10T06:05:56Z</time>
      </trkpt>
      <trkpt lat="45.07941" lon="6.18241">
        <ele>1587.4</ele>
        <time>2024-08-10T06:05:57Z</time>
      </trkpt>
      <trkpt lat="45.07941" lon="6.18241">
        <ele>1587.4</ele>
        <time>2024-08-10T06:05:58Z</time>
      </trkpt>
      <trkpt lat="45.07943" lon="6.18243">
        <ele>1587.4</ele>
        <time>2024-08-10T06:05:59Z</time>
      </trkpt>
      <trkpt lat="45.07943" lon="6.18243">
        <ele>1587.6</ele>
        <time>2024-08-10T06:06:00Z</time>
      </trkpt>
      <trkpt lat="45.07943" lon="6.18243">
        <ele>1587.8</ele>
        <time>2024-08-10T06:06:01Z</time>
      </trkpt>
      <trkpt lat="45.07945" lon="6.18246">
        <ele>1588</ele>
        <time>2024-08-10T06:06:02Z</time>
      </trkpt>
      <trkpt lat="45.07945" lon="6.18246">
        <ele>1588.2</ele>
        <time>2024-08-10T06:06:03Z</time>
      </trkpt>
      <trkpt lat="45.07946" lon="6.18249">
        <ele>1588.2</ele>
        <time>2024-08-10T06:06:04Z</time>
      </trkpt>
      <trkpt lat="45.07946" lon="6.18249">
        <ele>1588.4</ele>
        <time>2024-08-10T06:06:05Z</time>
      </trkpt>
      <trkpt lat="45.07946" lon="6.18249">
        <ele>1588.6</ele>
        <time>2024-08-10T06:06:06Z</time>
      </trkpt>
      <trkpt lat="45.07947" lon="6.18252">
        <ele>1588.6</ele>
        <time>2024-08-10T06:06:07Z</time>
      </trkpt>
      <trkpt lat="45.07947" lon="6.18252">
        <ele>1588.8</ele>
        <time>2024-08-10T06:06:08Z</time>
      </trkpt>
      <trkpt lat="45.07947" lon="6.18252">
        <ele>1589.2</ele>
        <time>2024-08-10T06:06:09Z</time>
      </trkpt>
      <trkpt lat="45.07947" lon="6.18256">
        <ele>1589.4</ele>
        <time>2024-08-10T06:06:10Z</time>
      </trkpt>
      <trkpt lat="45.07947" lon="6.18256">
        <ele>1589.4</ele>
        <time>2024-08-10T06:06:11Z</time>
      </trkpt>
      <trkpt lat="45.07947" lon="6.18256">
        <ele>1589.8</ele>
        <time>2024-08-10T06:06:12Z</time>
      </trkpt>
      <trkpt lat="45.07947" lon="6.18259">
        <ele>1589.8</ele>
        <time>2024-08-10T06:06:13Z</time>
      </trkpt>
      <trkpt lat="45.07947" lon="6.18259">
        <ele>1590</ele>
        <time>2024-08-10T06:06:14Z</time>
      </trkpt>
      <trkpt lat="45.07948" lon="6.18261">
        <ele>1590.2</ele>
        <time>2024-08-10T06:06:15Z</time>
      </trkpt>
      <trkpt lat="45.07948" lon="6.18261">
        <ele>1590.6</ele>
        <time>2024-08-10T06:06:16Z</time>
      </trkpt>
      <trkpt lat="45.07949" lon="6.18264">
        <ele>1590.8</ele>
        <time>2024-08-10T06:06:17Z</time>
      </trkpt>
      <trkpt lat="45.07949" lon="6.18264">
        <ele>1591</ele>
        <time>2024-08-10T06:06:18Z</time>
      </trkpt>
      <trkpt lat="45.0795" lon="6.18267">
        <ele>1591</ele>
        <time>2024-08-10T06:06:19Z</time>
      </trkpt>
      <trkpt lat="45.0795" lon="6.18267">
        <ele>1591.2</ele>
        <time>2024-08-10T06:06:20Z</time>
      </trkpt>
      <trkpt lat="45.07951" lon="6.18269">
        <ele>1591.4</ele>
        <time>2024-08-10T06:06:21Z</time>
      </trkpt>
      <trkpt lat="45.07951" lon="6.18269">
        <ele>1591.6</ele>
        <time>2024-08-10T06:06:22Z</time>
      </trkpt>
      <trkpt lat="45.07952" lon="6.18272">
        <ele>1591.6</ele>
        <time>2024-08-10T06:06:23Z</time>
      </trkpt>
      <trkpt lat="45.07952" lon="6.18272">
        <ele>1591.6</ele>
        <time>2024-08-10T06:06:24Z</time>
      </trkpt>
      <trkpt lat="45.07953" lon="6.18275">
        <ele>1591.8</ele>
        <time>2024-08-10T06:06:25Z</time>
      </trkpt>
      <trkpt lat="45.07953" lon="6.18275">
        <ele>1591.8</ele>
        <time>2024-08-10T06:06:26Z</time>
      </trkpt>
      <trkpt lat="45.07953" lon="6.18277">
        <ele>1591.8</ele>
        <time>2024-08-10T06:06:27Z</time>
      </trkpt>
      <trkpt lat="45.07953" lon="6.18277">
        <ele>1592</ele>
        <time>2024-08-10T06:06:28Z</time>
      </trkpt>
      <trkpt lat="45.07953" lon="6.18277">
        <ele>1592</ele>
        <time>2024-08-10T06:06:29Z</time>
      </trkpt>
      <trkpt lat="45.07954" lon="6.18281">
        <ele>1592.4</ele>
        <time>2024-08-10T06:06:30Z</time>
      </trkpt>
      <trkpt lat="45.07954" lon="6.18281">
        <ele>1592.8</ele>
        <time>2024-08-10T06:06:31Z</time>
      </trkpt>
      <trkpt lat="45.07954" lon="6.18283">
        <ele>1592.8</ele>
        <time>2024-08-10T06:06:32Z</time>
      </trkpt>
      <trkpt lat="45.07954" lon="6.18283">
        <ele>1593</ele>
        <time>2024-08-10T06:06:33Z</time>
      </trkpt>
      <trkpt lat="45.07954" lon="6.18283">
        <ele>1593.2</ele>
        <time>2024-08-10T06:06:34Z</time>
      </trkpt>
      <trkpt lat="45.07955" lon="6.18287">
        <ele>1593.2</ele>
        <time>2024-08-10T06:06:35Z</time>
      </trkpt>
      <trkpt lat="45.07955" lon="6.18287">
        <ele>1593.4</ele>
        <time>2024-08-10T06:06:36Z</time>
      </trkpt>
      <trkpt lat="45.07955" lon="6.18287">
        <ele>1593.8</ele>
        <time>2024-08-10T06:06:37Z</time>
      </trkpt>
      <trkpt lat="45.07955" lon="6.1829">
        <ele>1594</ele>
        <time>2024-08-10T06:06:38Z</time>
      </trkpt>
      <trkpt lat="45.07955" lon="6.1829">
        <ele>1594.2</ele>
        <time>2024-08-10T06:06:39Z</time>
      </trkpt>
      <trkpt lat="45.07955" lon="6.1829">
        <ele>1594.4</ele>
        <time>2024-08-10T06:06:40Z</time>
      </trkpt>
      <trkpt lat="45.07955" lon="6.18294">
        <ele>1594.4</ele>
        <time>2024-08-10T06:06:41Z</time>
      </trkpt>
      <trkpt lat="45.07955" lon="6.18294">
        <ele>1594.6</ele>
        <time>2024-08-10T06:06:42Z</time>
      </trkpt>
      <trkpt lat="45.07955" lon="6.18294">
        <ele>1594.8</ele>
        <time>2024-08-10T06:06:43Z</time>
      </trkpt>
      <trkpt lat="45.07955" lon="6.18297">
        <ele>1594.8</ele>
        <time>2024-08-10T06:06:44Z</time>
      </trkpt>
      <trkpt lat="45.07955" lon="6.18297">
        <ele>1595.2</ele>
        <time>2024-08-10T06:06:45Z</time>
      </trkpt>
      <trkpt lat="45.07955" lon="6.18297">
        <ele>1595.4</ele>
        <time>2024-08-10T06:06:46Z</time>
      </trkpt>
      <trkpt lat="45.07956" lon="6.18299">
        <ele>1595.6</ele>
        <time>2024-08-10T06:06:47Z</time>
      </trkpt>
      <trkpt lat="45.07956" lon="6.18299">
        <ele>1596</ele>
        <time>2024-08-10T06:06:48Z</time>
      </trkpt>
      <trkpt lat="45.07956" lon="6.18299">
        <ele>1596</ele>
        <time>2024-08-10T06:06:49Z</time>
      </trkpt>
      <trkpt lat="45.07956" lon="6.18302">
        <ele>1596.4</ele>
        <time>2024-08-10T06:06:50Z</time>
      </trkpt>
      <trkpt lat="45.07956" lon="6.18302">
        <ele>1596.4</ele>
        <time>2024-08-10T06:06:51Z</time>
      </trkpt>
      <trkpt lat="45.07955" lon="6.18304">
        <ele>1596.6</ele>
        <time>2024-08-10T06:06:52Z</time>
      </trkpt>
      <trkpt lat="45.07955" lon="6.18304">
        <ele>1597</ele>
        <time>2024-08-10T06:06:53Z</time>
      </trkpt>
      <trkpt lat="45.07955" lon="6.18304">
        <ele>1597.2</ele>
        <time>2024-08-10T06:06:54Z</time>
      </trkpt>
      <trkpt lat="45.07955" lon="6.18308">
        <ele>1597.4</ele>
        <time>2024-08-10T06:06:55Z</time>
      </trkpt>
      <trkpt lat="45.07955" lon="6.18308">
        <ele>1597.4</ele>
        <time>2024-08-10T06:06:56Z</time>
      </trkpt>
      <trkpt lat="45.07955" lon="6.18308">
        <ele>1597.4</ele>
        <time>2024-08-10T06:06:57Z</time>
      </trkpt>
      <trkpt lat="45.07955" lon="6.18311">
        <ele>1597.6</ele>
        <time>2024-08-10T06:06:58Z</time>
      </trkpt>
      <trkpt lat="45.07955" lon="6.18311">
        <ele>1597.8</ele>
        <time>2024-08-10T06:06:59Z</time>
      </trkpt>
      <trkpt lat="45.07955" lon="6.18311">
        <ele>1597.8</ele>
        <time>2024-08-10T06:07:00Z</time>
      </trkpt>
      <trkpt lat="45.07955" lon="6.18314">
        <ele>1598</ele>
        <time>2024-08-10T06:07:01Z</time>
      </trkpt>
      <trkpt lat="45.07955" lon="6.18314">
        <ele>1598.2</ele>
        <time>2024-08-10T06:07:02Z</time>
      </trkpt>
      <trkpt lat="45.07955" lon="6.18314">
        <ele>1598.4</ele>
        <time>2024-08-10T06:07:03Z</time>
      </trkpt>
      <trkpt lat="45.07955" lon="6.18317">
        <ele>1598.4</ele>
        <time>2024-08-10T06:07:04Z</time>
      </trkpt>
      <trkpt lat="45.07955" lon="6.18317">
        <ele>1598.8</ele>
        <time>2024-08-10T06:07:05Z</time>
      </trkpt>
      <trkpt lat="45.07955" lon="6.18317">
        <ele>1598.8</ele>
        <time>2024-08-10T06:07:06Z</time>
      </trkpt>
      <trkpt lat="45.07955" lon="6.1832">
        <ele>1598.8</ele>
        <time>2024-08-10T06:07:07Z</time>
      </trkpt>
      <trkpt lat="45.07955" lon="6.1832">
        <ele>1599.4</ele>
        <time>2024-08-10T06:07:08Z</time>
      </trkpt>
      <trkpt lat="45.07955" lon="6.1832">
        <ele>1599.6</ele>
        <time>2024-08-10T06:07:09Z</time>
      </trkpt>
      <trkpt lat="45.07955" lon="6.18322">
        <ele>1599.6</ele>
        <time>2024-08-10T06:07:10Z</time>
      </trkpt>
      <trkpt lat="45.07955" lon="6.18322">
        <ele>1600.2</ele>
        <time>2024-08-10T06:07:11Z</time>
      </trkpt>
      <trkpt lat="45.07955" lon="6.18322">
        <ele>1600.2</ele>
        <time>2024-08-10T06:07:12Z</time>
      </trkpt>
      <trkpt lat="45.07955" lon="6.18322">
        <ele>1600.4</ele>
        <time>2024-08-10T06:07:13Z</time>
      </trkpt>
      <trkpt lat="45.07955" lon="6.18325">
        <ele>1600.6</ele>
        <time>2024-08-10T06:07:14Z</time>
      </trkpt>
      <trkpt lat="45.07955" lon="6.18325">
        <ele>1600.6</ele>
        <time>2024-08-10T06:07:15Z</time>
      </trkpt>
      <trkpt lat="45.07955" lon="6.18325">
        <ele>1600.8</ele>
        <time>2024-08-10T06:07:16Z</time>
      </trkpt>
      <trkpt lat="45.07955" lon="6.18325">
        <ele>1601.2</ele>
        <time>2024-08-10T06:07:17Z</time>
      </trkpt>
      <trkpt lat="45.07955" lon="6.18325">
        <ele>1601.2</ele>
        <time>2024-08-10T06:07:18Z</time>
      </trkpt>
      <trkpt lat="45.07955" lon="6.18325">
        <ele>1601.2</ele>
        <time>2024-08-10T06:07:19Z</time>
      </trkpt>
      <trkpt lat="45.07957" lon="6.18327">
        <ele>1601.2</ele>
        <time>2024-08-10T06:07:20Z</time>
      </trkpt>
      <trkpt lat="45.07959" lon="6.18329">
        <ele>1601.4</ele>
        <time>2024-08-10T06:07:21Z</time>
      </trkpt>
      <trkpt lat="45.07961" lon="6.1833">
        <ele>1601.4</ele>
        <time>2024-08-10T06:07:22Z</time>
      </trkpt>
      <trkpt lat="45.07961" lon="6.1833">
        <ele>1601.4</ele>
        <time>2024-08-10T06:07:23Z</time>
      </trkpt>
      <trkpt lat="45.07963" lon="6.18332">
        <ele>1601.8</ele>
        <time>2024-08-10T06:07:24Z</time>
      </trkpt>
      <trkpt lat="45.07963" lon="6.18332">
        <ele>1601.8</ele>
        <time>2024-08-10T06:07:25Z</time>
      </trkpt>
      <trkpt lat="45.07965" lon="6.18335">
        <ele>1601.8</ele>
        <time>2024-08-10T06:07:26Z</time>
      </trkpt>
      <trkpt lat="45.07965" lon="6.18335">
        <ele>1601.6</ele>
        <time>2024-08-10T06:07:27Z</time>
      </trkpt>
      <trkpt lat="45.07967" lon="6.18337">
        <ele>1601.6</ele>
        <time>2024-08-10T06:07:28Z</time>
      </trkpt>
      <trkpt lat="45.07967" lon="6.18337">
        <ele>1601.6</ele>
        <time>2024-08-10T06:07:29Z</time>
      </trkpt>
      <trkpt lat="45.07969" lon="6.1834">
        <ele>1602</ele>
        <time>2024-08-10T06:07:30Z</time>
      </trkpt>
      <trkpt lat="45.07969" lon="6.1834">
        <ele>1602</ele>
        <time>2024-08-10T06:07:31Z</time>
      </trkpt>
      <trkpt lat="45.07971" lon="6.18342">
        <ele>1602</ele>
        <time>2024-08-10T06:07:32Z</time>
      </trkpt>
      <trkpt lat="45.07971" lon="6.18342">
        <ele>1602</ele>
        <time>2024-08-10T06:07:33Z</time>
      </trkpt>
      <trkpt lat="45.07973" lon="6.18344">
        <ele>1601.6</ele>
        <time>2024-08-10T06:07:34Z</time>
      </trkpt>
      <trkpt lat="45.07973" lon="6.18344">
        <ele>1601.6</ele>
        <time>2024-08-10T06:07:35Z</time>
      </trkpt>
      <trkpt lat="45.07973" lon="6.18347">
        <ele>1601.8</ele>
        <time>2024-08-10T06:07:36Z</time>
      </trkpt>
      <trkpt lat="45.07973" lon="6.18347">
        <ele>1601.8</ele>
        <time>2024-08-10T06:07:37Z</time>
      </trkpt>
      <trkpt lat="45.07973" lon="6.18347">
        <ele>1601.8</ele>
        <time>2024-08-10T06:07:38Z</time>
      </trkpt>
      <trkpt lat="45.07972" lon="6.18349">
        <ele>1602</ele>
        <time>2024-08-10T06:07:39Z</time>
      </trkpt>
      <trkpt lat="45.07972" lon="6.18349">
        <ele>1602</ele>
        <time>2024-08-10T06:07:40Z</time>
      </trkpt>
      <trkpt lat="45.0797" lon="6.18349">
        <ele>1602.4</ele>
        <time>2024-08-10T06:07:41Z</time>
      </trkpt>
      <trkpt lat="45.0797" lon="6.18349">
        <ele>1602.4</ele>
        <time>2024-08-10T06:07:42Z</time>
      </trkpt>
      <trkpt lat="45.0797" lon="6.18349">
        <ele>1602.6</ele>
        <time>2024-08-10T06:07:43Z</time>
      </trkpt>
      <trkpt lat="45.07967" lon="6.18348">
        <ele>1602.6</ele>
        <time>2024-08-10T06:07:44Z</time>
      </trkpt>
      <trkpt lat="45.07967" lon="6.18348">
        <ele>1603</ele>
        <time>2024-08-10T06:07:45Z</time>
      </trkpt>
      <trkpt lat="45.07967" lon="6.18348">
        <ele>1603.2</ele>
        <time>2024-08-10T06:07:46Z</time>
      </trkpt>
      <trkpt lat="45.07965" lon="6.18348">
        <ele>1603.2</ele>
        <time>2024-08-10T06:07:47Z</time>
      </trkpt>
      <trkpt lat="45.07965" lon="6.18348">
        <ele>1603.4</ele>
        <time>2024-08-10T06:07:48Z</time>
      </trkpt>
      <trkpt lat="45.07965" lon="6.18348">
        <ele>1603.8</ele>
        <time>2024-08-10T06:07:49Z</time>
      </trkpt>
      <trkpt lat="45.07965" lon="6.18348">
        <ele>1603.8</ele>
        <time>2024-08-10T06:07:50Z</time>
      </trkpt>
      <trkpt lat="45.07963" lon="6.18348">
        <ele>1603.8</ele>
        <time>2024-08-10T06:07:51Z</time>
      </trkpt>
      <trkpt lat="45.07963" lon="6.18348">
        <ele>1603.8</ele>
        <time>2024-08-10T06:07:52Z</time>
      </trkpt>
      <trkpt lat="45.07963" lon="6.18348">
        <ele>1603.8</ele>
        <time>2024-08-10T06:07:53Z</time>
      </trkpt>
      <trkpt lat="45.07963" lon="6.18348">
        <ele>1604.4</ele>
        <time>2024-08-10T06:07:54Z</time>
      </trkpt>
      <trkpt lat="45.0796" lon="6.18346">
        <ele>1604.6</ele>
        <time>2024-08-10T06:07:55Z</time>
      </trkpt>
      <trkpt lat="45.0796" lon="6.18346">
        <ele>1605</ele>
        <time>2024-08-10T06:07:56Z</time>
      </trkpt>
      <trkpt lat="45.07958" lon="6.18346">
        <ele>1605</ele>
        <time>2024-08-10T06:07:57Z</time>
      </trkpt>
      <trkpt lat="45.07958" lon="6.18346">
        <ele>1605.2</ele>
        <time>2024-08-10T06:07:58Z</time>
      </trkpt>
      <trkpt lat="45.07958" lon="6.18346">
        <ele>1605.4</ele>
        <time>2024-08-10T06:07:59Z</time>
      </trkpt>
      <trkpt lat="45.07956" lon="6.18346">
        <ele>1605.6</ele>
        <time>2024-08-10T06:08:00Z</time>
      </trkpt>
      <trkpt lat="45.07956" lon="6.18346">
        <ele>1605.8</ele>
        <time>2024-08-10T06:08:01Z</time>
      </trkpt>
      <trkpt lat="45.07956" lon="6.18346">
        <ele>1606.2</ele>
        <time>2024-08-10T06:08:02Z</time>
      </trkpt>
      <trkpt lat="45.07954" lon="6.18348">
        <ele>1606.4</ele>
        <time>2024-08-10T06:08:03Z</time>
      </trkpt>
      <trkpt lat="45.07954" lon="6.18348">
        <ele>1606.4</ele>
        <time>2024-08-10T06:08:04Z</time>
      </trkpt>
      <trkpt lat="45.07954" lon="6.18348">
        <ele>1606.6</ele>
        <time>2024-08-10T06:08:05Z</time>
      </trkpt>
      <trkpt lat="45.07953" lon="6.1835">
        <ele>1606.6</ele>
        <time>2024-08-10T06:08:06Z</time>
      </trkpt>
      <trkpt lat="45.07953" lon="6.1835">
        <ele>1606.8</ele>
        <time>2024-08-10T06:08:07Z</time>
      </trkpt>
      <trkpt lat="45.07953" lon="6.1835">
        <ele>1607</ele>
        <time>2024-08-10T06:08:08Z</time>
      </trkpt>
      <trkpt lat="45.07953" lon="6.1835">
        <ele>1607.2</ele>
        <time>2024-08-10T06:08:09Z</time>
      </trkpt>
      <trkpt lat="45.07955" lon="6.18353">
        <ele>1607.6</ele>
        <time>2024-08-10T06:08:10Z</time>
      </trkpt>
      <trkpt lat="45.07955" lon="6.18353">
        <ele>1607.6</ele>
        <time>2024-08-10T06:08:11Z</time>
      </trkpt>
      <trkpt lat="45.07955" lon="6.18353">
        <ele>1607.6</ele>
        <time>2024-08-10T06:08:12Z</time>
      </trkpt>
      <trkpt lat="45.07956" lon="6.18355">
        <ele>1607.6</ele>
        <time>2024-08-10T06:08:13Z</time>
      </trkpt>
      <trkpt lat="45.07956" lon="6.18355">
        <ele>1607.8</ele>
        <time>2024-08-10T06:08:14Z</time>
      </trkpt>
      <trkpt lat="45.07956" lon="6.18355">
        <ele>1608</ele>
        <time>2024-08-10T06:08:15Z</time>
      </trkpt>
      <trkpt lat="45.07956" lon="6.18358">
        <ele>1608</ele>
        <time>2024-08-10T06:08:16Z</time>
      </trkpt>
      <trkpt lat="45.07956" lon="6.18358">
        <ele>1608.2</ele>
        <time>2024-08-10T06:08:17Z</time>
      </trkpt>
      <trkpt lat="45.07956" lon="6.18358">
        <ele>1608.4</ele>
        <time>2024-08-10T06:08:18Z</time>
      </trkpt>
      <trkpt lat="45.07955" lon="6.1836">
        <ele>1609</ele>
        <time>2024-08-10T06:08:19Z</time>
      </trkpt>
      <trkpt lat="45.07955" lon="6.1836">
        <ele>1609.2</ele>
        <time>2024-08-10T06:08:20Z</time>
      </trkpt>
      <trkpt lat="45.07955" lon="6.1836">
        <ele>1609.4</ele>
        <time>2024-08-10T06:08:21Z</time>
      </trkpt>
      <trkpt lat="45.07953" lon="6.1836">
        <ele>1609.6</ele>
        <time>2024-08-10T06:08:22Z</time>
      </trkpt>
      <trkpt lat="45.07953" lon="6.1836">
        <ele>1609.6</ele>
        <time>2024-08-10T06:08:23Z</time>
      </trkpt>
      <trkpt lat="45.07953" lon="6.1836">
        <ele>1610</ele>
        <time>2024-08-10T06:08:24Z</time>
      </trkpt>
      <trkpt lat="45.07951" lon="6.18359">
        <ele>1610</ele>
        <time>2024-08-10T06:08:25Z</time>
      </trkpt>
      <trkpt lat="45.07951" lon="6.18359">
        <ele>1610.4</ele>
        <time>2024-08-10T06:08:26Z</time>
      </trkpt>
      <trkpt lat="45.07951" lon="6.18359">
        <ele>1610.4</ele>
        <time>2024-08-10T06:08:27Z</time>
      </trkpt>
      <trkpt lat="45.07951" lon="6.18359">
        <ele>1610.8</ele>
        <time>2024-08-10T06:08:28Z</time>
      </trkpt>
      <trkpt lat="45.07951" lon="6.18359">
        <ele>1611</ele>
        <time>2024-08-10T06:08:29Z</time>
      </trkpt>
      <trkpt lat="45.07951" lon="6.18359">
        <ele>1611</ele>
        <time>2024-08-10T06:08:30Z</time>
      </trkpt>
      <trkpt lat="45.07949" lon="6.18358">
        <ele>1611.4</ele>
        <time>2024-08-10T06:08:31Z</time>
      </trkpt>
      <trkpt lat="45.07949" lon="6.18358">
        <ele>1611.6</ele>
        <time>2024-08-10T06:08:32Z</time>
      </trkpt>
      <trkpt lat="45.07946" lon="6.18357">
        <ele>1611.8</ele>
        <time>2024-08-10T06:08:33Z</time>
      </trkpt>
      <trkpt lat="45.07946" lon="6.18357">
        <ele>1611.8</ele>
        <time>2024-08-10T06:08:34Z</time>
      </trkpt>
      <trkpt lat="45.07944" lon="6.18356">
        <ele>1612</ele>
        <time>2024-08-10T06:08:35Z</time>
      </trkpt>
      <trkpt lat="45.07944" lon="6.18356">
        <ele>1612.2</ele>
        <time>2024-08-10T06:08:36Z</time>
      </trkpt>
      <trkpt lat="45.07942" lon="6.18354">
        <ele>1612.2</ele>
        <time>2024-08-10T06:08:37Z</time>
      </trkpt>
      <trkpt lat="45.07942" lon="6.18354">
        <ele>1612.6</ele>
        <time>2024-08-10T06:08:38Z</time>
      </trkpt>
      <trkpt lat="45.0794" lon="6.18353">
        <ele>1612.8</ele>
        <time>2024-08-10T06:08:39Z</time>
      </trkpt>
      <trkpt lat="45.0794" lon="6.18353">
        <ele>1612.8</ele>
        <time>2024-08-10T06:08:40Z</time>
      </trkpt>
      <trkpt lat="45.0794" lon="6.18353">
        <ele>1612.8</ele>
        <time>2024-08-10T06:08:41Z</time>
      </trkpt>
      <trkpt lat="45.07938" lon="6.18353">
        <ele>1613</ele>
        <time>2024-08-10T06:08:42Z</time>
      </trkpt>
      <trkpt lat="45.07938" lon="6.18353">
        <ele>1613.2</ele>
        <time>2024-08-10T06:08:43Z</time>
      </trkpt>
      <trkpt lat="45.07938" lon="6.18353">
        <ele>1613.2</ele>
        <time>2024-08-10T06:08:44Z</time>
      </trkpt>
      <trkpt lat="45.07938" lon="6.18353">
        <ele>1613.2</ele>
        <time>2024-08-10T06:08:45Z</time>
      </trkpt>
      <trkpt lat="45.07938" lon="6.18356">
        <ele>1613.8</ele>
        <time>2024-08-10T06:08:46Z</time>
      </trkpt>
      <trkpt lat="45.07938" lon="6.18356">
        <ele>1614.2</ele>
        <time>2024-08-10T06:08:47Z</time>
      </trkpt>
      <trkpt lat="45.07938" lon="6.18356">
        <ele>1614.4</ele>
        <time>2024-08-10T06:08:48Z</time>
      </trkpt>
      <trkpt lat="45.07939" lon="6.18359">
        <ele>1614.6</ele>
        <time>2024-08-10T06:08:49Z</time>
      </trkpt>
      <trkpt lat="45.07939" lon="6.18359">
        <ele>1614.6</ele>
        <time>2024-08-10T06:08:50Z</time>
      </trkpt>
      <trkpt lat="45.07939" lon="6.18359">
        <ele>1615</ele>
        <time>2024-08-10T06:08:51Z</time>
      </trkpt>
      <trkpt lat="45.07939" lon="6.18359">
        <ele>1615.2</ele>
        <time>2024-08-10T06:08:52Z</time>
      </trkpt>
      <trkpt lat="45.07939" lon="6.18359">
        <ele>1615.4</ele>
        <time>2024-08-10T06:08:53Z</time>
      </trkpt>
      <trkpt lat="45.0794" lon="6.18362">
        <ele>1615.8</ele>
        <time>2024-08-10T06:08:54Z</time>
      </trkpt>
      <trkpt lat="45.0794" lon="6.18362">
        <ele>1615.8</ele>
        <time>2024-08-10T06:08:55Z</time>
      </trkpt>
      <trkpt lat="45.0794" lon="6.18362">
        <ele>1615.8</ele>
        <time>2024-08-10T06:08:56Z</time>
      </trkpt>
      <trkpt lat="45.0794" lon="6.18366">
        <ele>1616</ele>
        <time>2024-08-10T06:08:57Z</time>
      </trkpt>
      <trkpt lat="45.0794" lon="6.18366">
        <ele>1616.2</ele>
        <time>2024-08-10T06:08:58Z</time>
      </trkpt>
      <trkpt lat="45.07941" lon="6.18369">
        <ele>1616.4</ele>
        <time>2024-08-10T06:08:59Z</time>
      </trkpt>
      <trkpt lat="45.07941" lon="6.18369">
        <ele>1616.8</ele>
        <time>2024-08-10T06:09:00Z</time>
      </trkpt>
      <trkpt lat="45.07941" lon="6.18369">
        <ele>1616.8</ele>
        <time>2024-08-10T06:09:01Z</time>
      </trkpt>
      <trkpt lat="45.07941" lon="6.18372">
        <ele>1617.2</ele>
        <time>2024-08-10T06:09:02Z</time>
      </trkpt>
      <trkpt lat="45.07941" lon="6.18372">
        <ele>1617.4</ele>
        <time>2024-08-10T06:09:03Z</time>
      </trkpt>
      <trkpt lat="45.07941" lon="6.18372">
        <ele>1617.4</ele>
        <time>2024-08-10T06:09:04Z</time>
      </trkpt>
      <trkpt lat="45.07942" lon="6.18375">
        <ele>1617.6</ele>
        <time>2024-08-10T06:09:05Z</time>
      </trkpt>
      <trkpt lat="45.07942" lon="6.18375">
        <ele>1617.8</ele>
        <time>2024-08-10T06:09:06Z</time>
      </trkpt>
      <trkpt lat="45.07942" lon="6.18375">
        <ele>1618.2</ele>
        <time>2024-08-10T06:09:07Z</time>
      </trkpt>
      <trkpt lat="45.07942" lon="6.18378">
        <ele>1618.4</ele>
        <time>2024-08-10T06:09:08Z</time>
      </trkpt>
      <trkpt lat="45.07942" lon="6.18378">
        <ele>1618.4</ele>
        <time>2024-08-10T06:09:09Z</time>
      </trkpt>
      <trkpt lat="45.07942" lon="6.18378">
        <ele>1618.6</ele>
        <time>2024-08-10T06:09:10Z</time>
      </trkpt>
      <trkpt lat="45.07941" lon="6.18381">
        <ele>1619</ele>
        <time>2024-08-10T06:09:11Z</time>
      </trkpt>
      <trkpt lat="45.07941" lon="6.18381">
        <ele>1619</ele>
        <time>2024-08-10T06:09:12Z</time>
      </trkpt>
      <trkpt lat="45.07941" lon="6.18381">
        <ele>1619.2</ele>
        <time>2024-08-10T06:09:13Z</time>
      </trkpt>
      <trkpt lat="45.07943" lon="6.18383">
        <ele>1620</ele>
        <time>2024-08-10T06:09:14Z</time>
      </trkpt>
      <trkpt lat="45.07943" lon="6.18383">
        <ele>1620</ele>
        <time>2024-08-10T06:09:15Z</time>
      </trkpt>
      <trkpt lat="45.07943" lon="6.18383">
        <ele>1620.2</ele>
        <time>2024-08-10T06:09:16Z</time>
      </trkpt>
      <trkpt lat="45.07943" lon="6.18383">
        <ele>1620.2</ele>
        <time>2024-08-10T06:09:17Z</time>
      </trkpt>
      <trkpt lat="45.07944" lon="6.18386">
        <ele>1620.6</ele>
        <time>2024-08-10T06:09:18Z</time>
      </trkpt>
      <trkpt lat="45.07944" lon="6.18386">
        <ele>1620.6</ele>
        <time>2024-08-10T06:09:19Z</time>
      </trkpt>
      <trkpt lat="45.07944" lon="6.18386">
        <ele>1620.8</ele>
        <time>2024-08-10T06:09:20Z</time>
      </trkpt>
      <trkpt lat="45.07945" lon="6.18389">
        <ele>1621.2</ele>
        <time>2024-08-10T06:09:21Z</time>
      </trkpt>
      <trkpt lat="45.07945" lon="6.18389">
        <ele>1621.2</ele>
        <time>2024-08-10T06:09:22Z</time>
      </trkpt>
      <trkpt lat="45.07945" lon="6.18389">
        <ele>1621.4</ele>
        <time>2024-08-10T06:09:23Z</time>
      </trkpt>
      <trkpt lat="45.07946" lon="6.18392">
        <ele>1621.6</ele>
        <time>2024-08-10T06:09:24Z</time>
      </trkpt>
      <trkpt lat="45.07946" lon="6.18392">
        <ele>1621.8</ele>
        <time>2024-08-10T06:09:25Z</time>
      </trkpt>
      <trkpt lat="45.07947" lon="6.18394">
        <ele>1621.8</ele>
        <time>2024-08-10T06:09:26Z</time>
      </trkpt>
      <trkpt lat="45.07947" lon="6.18394">
        <ele>1621.8</ele>
        <time>2024-08-10T06:09:27Z</time>
      </trkpt>
      <trkpt lat="45.07947" lon="6.18394">
        <ele>1622.4</ele>
        <time>2024-08-10T06:09:28Z</time>
      </trkpt>
      <trkpt lat="45.07947" lon="6.18397">
        <ele>1622.4</ele>
        <time>2024-08-10T06:09:29Z</time>
      </trkpt>
      <trkpt lat="45.07947" lon="6.18397">
        <ele>1622.6</ele>
        <time>2024-08-10T06:09:30Z</time>
      </trkpt>
      <trkpt lat="45.07947" lon="6.18397">
        <ele>1622.8</ele>
        <time>2024-08-10T06:09:31Z</time>
      </trkpt>
      <trkpt lat="45.07947" lon="6.184">
        <ele>1623</ele>
        <time>2024-08-10T06:09:32Z</time>
      </trkpt>
      <trkpt lat="45.07947" lon="6.184">
        <ele>1623.4</ele>
        <time>2024-08-10T06:09:33Z</time>
      </trkpt>
      <trkpt lat="45.07947" lon="6.184">
        <ele>1623.4</ele>
        <time>2024-08-10T06:09:34Z</time>
      </trkpt>
      <trkpt lat="45.07948" lon="6.18403">
        <ele>1623.6</ele>
        <time>2024-08-10T06:09:35Z</time>
      </trkpt>
      <trkpt lat="45.07948" lon="6.18403">
        <ele>1623.8</ele>
        <time>2024-08-10T06:09:36Z</time>
      </trkpt>
      <trkpt lat="45.07948" lon="6.18403">
        <ele>1624</ele>
        <time>2024-08-10T06:09:37Z</time>
      </trkpt>
      <trkpt lat="45.07949" lon="6.18405">
        <ele>1624.4</ele>
        <time>2024-08-10T06:09:38Z</time>
      </trkpt>
      <trkpt lat="45.07949" lon="6.18405">
        <ele>1624.6</ele>
        <time>2024-08-10T06:09:39Z</time>
      </trkpt>
      <trkpt lat="45.07949" lon="6.18405">
        <ele>1625</ele>
        <time>2024-08-10T06:09:40Z</time>
      </trkpt>
      <trkpt lat="45.07949" lon="6.18408">
        <ele>1625</ele>
        <time>2024-08-10T06:09:41Z</time>
      </trkpt>
      <trkpt lat="45.07949" lon="6.18408">
        <ele>1625.4</ele>
        <time>2024-08-10T06:09:42Z</time>
      </trkpt>
      <trkpt lat="45.07949" lon="6.18408">
        <ele>1625.4</ele>
        <time>2024-08-10T06:09:43Z</time>
      </trkpt>
      <trkpt lat="45.0795" lon="6.18411">
        <ele>1625.6</ele>
        <time>2024-08-10T06:09:44Z</time>
      </trkpt>
      <trkpt lat="45.0795" lon="6.18411">
        <ele>1625.8</ele>
        <time>2024-08-10T06:09:45Z</time>
      </trkpt>
      <trkpt lat="45.07951" lon="6.18414">
        <ele>1626</ele>
        <time>2024-08-10T06:09:46Z</time>
      </trkpt>
      <trkpt lat="45.07951" lon="6.18414">
        <ele>1626.2</ele>
        <time>2024-08-10T06:09:47Z</time>
      </trkpt>
      <trkpt lat="45.07951" lon="6.18414">
        <ele>1626.4</ele>
        <time>2024-08-10T06:09:48Z</time>
      </trkpt>
      <trkpt lat="45.07951" lon="6.18417">
        <ele>1626.6</ele>
        <time>2024-08-10T06:09:49Z</time>
      </trkpt>
      <trkpt lat="45.07951" lon="6.18417">
        <ele>1626.8</ele>
        <time>2024-08-10T06:09:50Z</time>
      </trkpt>
      <trkpt lat="45.0795" lon="6.1842">
        <ele>1626.8</ele>
        <time>2024-08-10T06:09:51Z</time>
      </trkpt>
      <trkpt lat="45.0795" lon="6.1842">
        <ele>1627</ele>
        <time>2024-08-10T06:09:52Z</time>
      </trkpt>
      <trkpt lat="45.0795" lon="6.1842">
        <ele>1627</ele>
        <time>2024-08-10T06:09:53Z</time>
      </trkpt>
      <trkpt lat="45.0795" lon="6.18423">
        <ele>1627.2</ele>
        <time>2024-08-10T06:09:54Z</time>
      </trkpt>
      <trkpt lat="45.0795" lon="6.18423">
        <ele>1627.4</ele>
        <time>2024-08-10T06:09:55Z</time>
      </trkpt>
      <trkpt lat="45.0795" lon="6.18423">
        <ele>1627.4</ele>
        <time>2024-08-10T06:09:56Z</time>
      </trkpt>
      <trkpt lat="45.07949" lon="6.18426">
        <ele>1627.8</ele>
        <time>2024-08-10T06:09:57Z</time>
      </trkpt>
      <trkpt lat="45.07949" lon="6.18426">
        <ele>1627.8</ele>
        <time>2024-08-10T06:09:58Z</time>
      </trkpt>
      <trkpt lat="45.07949" lon="6.18426">
        <ele>1628</ele>
        <time>2024-08-10T06:09:59Z</time>
      </trkpt>
      <trkpt lat="45.07949" lon="6.18429">
        <ele>1628.2</ele>
        <time>2024-08-10T06:10:00Z</time>
      </trkpt>
      <trkpt lat="45.07949" lon="6.18429">
        <ele>1628.6</ele>
        <time>2024-08-10T06:10:01Z</time>
      </trkpt>
      <trkpt lat="45.07949" lon="6.18429">
        <ele>1628.8</ele>
        <time>2024-08-10T06:10:02Z</time>
      </trkpt>
      <trkpt lat="45.07949" lon="6.18432">
        <ele>1629.4</ele>
        <time>2024-08-10T06:10:03Z</time>
      </trkpt>
      <trkpt lat="45.07949" lon="6.18432">
        <ele>1629.4</ele>
        <time>2024-08-10T06:10:04Z</time>
      </trkpt>
      <trkpt lat="45.07949" lon="6.18432">
        <ele>1629.4</ele>
        <time>2024-08-10T06:10:05Z</time>
      </trkpt>
      <trkpt lat="45.07949" lon="6.18434">
        <ele>1629.6</ele>
        <time>2024-08-10T06:10:06Z</time>
      </trkpt>
      <trkpt lat="45.07949" lon="6.18434">
        <ele>1629.8</ele>
        <time>2024-08-10T06:10:07Z</time>
      </trkpt>
      <trkpt lat="45.07951" lon="6.18436">
        <ele>1630</ele>
        <time>2024-08-10T06:10:08Z</time>
      </trkpt>
      <trkpt lat="45.07951" lon="6.18436">
        <ele>1630.2</ele>
        <time>2024-08-10T06:10:09Z</time>
      </trkpt>
      <trkpt lat="45.07951" lon="6.18436">
        <ele>1630.4</ele>
        <time>2024-08-10T06:10:10Z</time>
      </trkpt>
      <trkpt lat="45.07953" lon="6.18439">
        <ele>1630.8</ele>
        <time>2024-08-10T06:10:11Z</time>
      </trkpt>
      <trkpt lat="45.07953" lon="6.18439">
        <ele>1630.8</ele>
        <time>2024-08-10T06:10:12Z</time>
      </trkpt>
      <trkpt lat="45.07953" lon="6.18439">
        <ele>1631</ele>
        <time>2024-08-10T06:10:13Z</time>
      </trkpt>
      <trkpt lat="45.07953" lon="6.18442">
        <ele>1631.2</ele>
        <time>2024-08-10T06:10:14Z</time>
      </trkpt>
      <trkpt lat="45.07953" lon="6.18442">
        <ele>1631.2</ele>
        <time>2024-08-10T06:10:15Z</time>
      </trkpt>
      <trkpt lat="45.07953" lon="6.18442">
        <ele>1631.6</ele>
        <time>2024-08-10T06:10:16Z</time>
      </trkpt>
      <trkpt lat="45.07954" lon="6.18446">
        <ele>1631.6</ele>
        <time>2024-08-10T06:10:17Z</time>
      </trkpt>
      <trkpt lat="45.07954" lon="6.18446">
        <ele>1631.8</ele>
        <time>2024-08-10T06:10:18Z</time>
      </trkpt>
      <trkpt lat="45.07954" lon="6.18446">
        <ele>1632.2</ele>
        <time>2024-08-10T06:10:19Z</time>
      </trkpt>
      <trkpt lat="45.07954" lon="6.18449">
        <ele>1632.6</ele>
        <time>2024-08-10T06:10:20Z</time>
      </trkpt>
      <trkpt lat="45.07954" lon="6.18449">
        <ele>1633</ele>
        <time>2024-08-10T06:10:21Z</time>
      </trkpt>
      <trkpt lat="45.07954" lon="6.18449">
        <ele>1633</ele>
        <time>2024-08-10T06:10:22Z</time>
      </trkpt>
      <trkpt lat="45.07955" lon="6.18452">
        <ele>1633.2</ele>
        <time>2024-08-10T06:10:23Z</time>
      </trkpt>
      <trkpt lat="45.07955" lon="6.18452">
        <ele>1633.6</ele>
        <time>2024-08-10T06:10:24Z</time>
      </trkpt>
      <trkpt lat="45.07955" lon="6.18452">
        <ele>1633.8</ele>
        <time>2024-08-10T06:10:25Z</time>
      </trkpt>
      <trkpt lat="45.07956" lon="6.18455">
        <ele>1634</ele>
        <time>2024-08-10T06:10:26Z</time>
      </trkpt>
      <trkpt lat="45.07956" lon="6.18455">
        <ele>1634</ele>
        <time>2024-08-10T06:10:27Z</time>
      </trkpt>
      <trkpt lat="45.07956" lon="6.18455">
        <ele>1634.4</ele>
        <time>2024-08-10T06:10:28Z</time>
      </trkpt>
      <trkpt lat="45.07956" lon="6.18458">
        <ele>1634.6</ele>
        <time>2024-08-10T06:10:29Z</time>
      </trkpt>
      <trkpt lat="45.07956" lon="6.18458">
        <ele>1634.6</ele>
        <time>2024-08-10T06:10:30Z</time>
      </trkpt>
      <trkpt lat="45.07956" lon="6.18458">
        <ele>1634.8</ele>
        <time>2024-08-10T06:10:31Z</time>
      </trkpt>
      <trkpt lat="45.07957" lon="6.18461">
        <ele>1635</ele>
        <time>2024-08-10T06:10:32Z</time>
      </trkpt>
      <trkpt lat="45.07957" lon="6.18461">
        <ele>1635.2</ele>
        <time>2024-08-10T06:10:33Z</time>
      </trkpt>
      <trkpt lat="45.07957" lon="6.18461">
        <ele>1635.4</ele>
        <time>2024-08-10T06:10:34Z</time>
      </trkpt>
      <trkpt lat="45.07958" lon="6.18464">
        <ele>1635.4</ele>
        <time>2024-08-10T06:10:35Z</time>
      </trkpt>
      <trkpt lat="45.07958" lon="6.18464">
        <ele>1636</ele>
        <time>2024-08-10T06:10:36Z</time>
      </trkpt>
      <trkpt lat="45.07958" lon="6.18466">
        <ele>1636.2</ele>
        <time>2024-08-10T06:10:37Z</time>
      </trkpt>
      <trkpt lat="45.07958" lon="6.18466">
        <ele>1636.2</ele>
        <time>2024-08-10T06:10:38Z</time>
      </trkpt>
      <trkpt lat="45.07958" lon="6.18466">
        <ele>1636.2</ele>
        <time>2024-08-10T06:10:39Z</time>
      </trkpt>
      <trkpt lat="45.07959" lon="6.1847">
        <ele>1637</ele>
        <time>2024-08-10T06:10:40Z</time>
      </trkpt>
      <trkpt lat="45.07959" lon="6.1847">
        <ele>1637.4</ele>
        <time>2024-08-10T06:10:41Z</time>
      </trkpt>
      <trkpt lat="45.07959" lon="6.1847">
        <ele>1637.4</ele>
        <time>2024-08-10T06:10:42Z</time>
      </trkpt>
      <trkpt lat="45.07959" lon="6.18473">
        <ele>1637.6</ele>
        <time>2024-08-10T06:10:43Z</time>
      </trkpt>
      <trkpt lat="45.07959" lon="6.18473">
        <ele>1637.8</ele>
        <time>2024-08-10T06:10:44Z</time>
      </trkpt>
      <trkpt lat="45.07959" lon="6.18473">
        <ele>1637.8</ele>
        <time>2024-08-10T06:10:45Z</time>
      </trkpt>
      <trkpt lat="45.0796" lon="6.18476">
        <ele>1638</ele>
        <time>2024-08-10T06:10:46Z</time>
      </trkpt>
      <trkpt lat="45.0796" lon="6.18476">
        <ele>1638.4</ele>
        <time>2024-08-10T06:10:47Z</time>
      </trkpt>
      <trkpt lat="45.0796" lon="6.18476">
        <ele>1638.6</ele>
        <time>2024-08-10T06:10:48Z</time>
      </trkpt>
      <trkpt lat="45.07961" lon="6.1848">
        <ele>1638.8</ele>
        <time>2024-08-10T06:10:49Z</time>
      </trkpt>
      <trkpt lat="45.07961" lon="6.1848">
        <ele>1638.8</ele>
        <time>2024-08-10T06:10:50Z</time>
      </trkpt>
      <trkpt lat="45.07961" lon="6.1848">
        <ele>1638.8</ele>
        <time>2024-08-10T06:10:51Z</time>
      </trkpt>
      <trkpt lat="45.07961" lon="6.18483">
        <ele>1639</ele>
        <time>2024-08-10T06:10:52Z</time>
      </trkpt>
      <trkpt lat="45.07961" lon="6.18483">
        <ele>1639.2</ele>
        <time>2024-08-10T06:10:53Z</time>
      </trkpt>
      <trkpt lat="45.07961" lon="6.18483">
        <ele>1639.6</ele>
        <time>2024-08-10T06:10:54Z</time>
      </trkpt>
      <trkpt lat="45.07962" lon="6.18486">
        <ele>1639.8</ele>
        <time>2024-08-10T06:10:55Z</time>
      </trkpt>
      <trkpt lat="45.07962" lon="6.18486">
        <ele>1640.2</ele>
        <time>2024-08-10T06:10:56Z</time>
      </trkpt>
      <trkpt lat="45.07962" lon="6.18486">
        <ele>1640.4</ele>
        <time>2024-08-10T06:10:57Z</time>
      </trkpt>
      <trkpt lat="45.07962" lon="6.18489">
        <ele>1640.4</ele>
        <time>2024-08-10T06:10:58Z</time>
      </trkpt>
      <trkpt lat="45.07962" lon="6.18489">
        <ele>1640.6</ele>
        <time>2024-08-10T06:10:59Z</time>
      </trkpt>
      <trkpt lat="45.07962" lon="6.18489">
        <ele>1641</ele>
        <time>2024-08-10T06:11:00Z</time>
      </trkpt>
      <trkpt lat="45.07963" lon="6.18492">
        <ele>1641.2</ele>
        <time>2024-08-10T06:11:01Z</time>
      </trkpt>
      <trkpt lat="45.07963" lon="6.18492">
        <ele>1641.2</ele>
        <time>2024-08-10T06:11:02Z</time>
      </trkpt>
      <trkpt lat="45.07963" lon="6.18492">
        <ele>1641.6</ele>
        <time>2024-08-10T06:11:03Z</time>
      </trkpt>
      <trkpt lat="45.07963" lon="6.18495">
        <ele>1641.6</ele>
        <time>2024-08-10T06:11:04Z</time>
      </trkpt>
      <trkpt lat="45.07963" lon="6.18495">
        <ele>1641.8</ele>
        <time>2024-08-10T06:11:05Z</time>
      </trkpt>
      <trkpt lat="45.07963" lon="6.18495">
        <ele>1642.2</ele>
        <time>2024-08-10T06:11:06Z</time>
      </trkpt>
      <trkpt lat="45.07963" lon="6.18498">
        <ele>1642.4</ele>
        <time>2024-08-10T06:11:07Z</time>
      </trkpt>
      <trkpt lat="45.07963" lon="6.18498">
        <ele>1642.4</ele>
        <time>2024-08-10T06:11:08Z</time>
      </trkpt>
      <trkpt lat="45.07963" lon="6.18498">
        <ele>1642.6</ele>
        <time>2024-08-10T06:11:09Z</time>
      </trkpt>
      <trkpt lat="45.07964" lon="6.18501">
        <ele>1643</ele>
        <time>2024-08-10T06:11:10Z</time>
      </trkpt>
      <trkpt lat="45.07964" lon="6.18501">
        <ele>1643</ele>
        <time>2024-08-10T06:11:11Z</time>
      </trkpt>
      <trkpt lat="45.07964" lon="6.18501">
        <ele>1643.2</ele>
        <time>2024-08-10T06:11:12Z</time>
      </trkpt>
      <trkpt lat="45.07965" lon="6.18504">
        <ele>1643.4</ele>
        <time>2024-08-10T06:11:13Z</time>
      </trkpt>
      <trkpt lat="45.07965" lon="6.18504">
        <ele>1643.6</ele>
        <time>2024-08-10T06:11:14Z</time>
      </trkpt>
      <trkpt lat="45.07965" lon="6.18504">
        <ele>1643.8</ele>
        <time>2024-08-10T06:11:15Z</time>
      </trkpt>
      <trkpt lat="45.07965" lon="6.18507">
        <ele>1644</ele>
        <time>2024-08-10T06:11:16Z</time>
      </trkpt>
      <trkpt lat="45.07965" lon="6.18507">
        <ele>1644.4</ele>
        <time>2024-08-10T06:11:17Z</time>
      </trkpt>
      <trkpt lat="45.07965" lon="6.18507">
        <ele>1644.4</ele>
        <time>2024-08-10T06:11:18Z</time>
      </trkpt>
      <trkpt lat="45.07965" lon="6.1851">
        <ele>1644.8</ele>
        <time>2024-08-10T06:11:19Z</time>
      </trkpt>
      <trkpt lat="45.07965" lon="6.1851">
        <ele>1645</ele>
        <time>2024-08-10T06:11:20Z</time>
      </trkpt>
      <trkpt lat="45.07965" lon="6.1851">
        <ele>1645</ele>
        <time>2024-08-10T06:11:21Z</time>
      </trkpt>
      <trkpt lat="45.07966" lon="6.18513">
        <ele>1645.4</ele>
        <time>2024-08-10T06:11:22Z</time>
      </trkpt>
      <trkpt lat="45.07966" lon="6.18513">
        <ele>1645.4</ele>
        <time>2024-08-10T06:11:23Z</time>
      </trkpt>
      <trkpt lat="45.07966" lon="6.18513">
        <ele>1645.6</ele>
        <time>2024-08-10T06:11:24Z</time>
      </trkpt>
      <trkpt lat="45.07966" lon="6.18516">
        <ele>1645.6</ele>
        <time>2024-08-10T06:11:25Z</time>
      </trkpt>
      <trkpt lat="45.07966" lon="6.18516">
        <ele>1646</ele>
        <time>2024-08-10T06:11:26Z</time>
      </trkpt>
      <trkpt lat="45.07966" lon="6.18516">
        <ele>1646.2</ele>
        <time>2024-08-10T06:11:27Z</time>
      </trkpt>
      <trkpt lat="45.07967" lon="6.18519">
        <ele>1646.2</ele>
        <time>2024-08-10T06:11:28Z</time>
      </trkpt>
      <trkpt lat="45.07967" lon="6.18519">
        <ele>1646.4</ele>
        <time>2024-08-10T06:11:29Z</time>
      </trkpt>
      <trkpt lat="45.07967" lon="6.18519">
        <ele>1646.8</ele>
        <time>2024-08-10T06:11:30Z</time>
      </trkpt>
      <trkpt lat="45.07967" lon="6.18523">
        <ele>1647</ele>
        <time>2024-08-10T06:11:31Z</time>
      </trkpt>
      <trkpt lat="45.07967" lon="6.18523">
        <ele>1647.2</ele>
        <time>2024-08-10T06:11:32Z</time>
      </trkpt>
      <trkpt lat="45.07967" lon="6.18523">
        <ele>1647.2</ele>
        <time>2024-08-10T06:11:33Z</time>
      </trkpt>
      <trkpt lat="45.07967" lon="6.18526">
        <ele>1647.4</ele>
        <time>2024-08-10T06:11:34Z</time>
      </trkpt>
      <trkpt lat="45.07967" lon="6.18526">
        <ele>1647.6</ele>
        <time>2024-08-10T06:11:35Z</time>
      </trkpt>
      <trkpt lat="45.07967" lon="6.18526">
        <ele>1647.8</ele>
        <time>2024-08-10T06:11:36Z</time>
      </trkpt>
      <trkpt lat="45.07968" lon="6.1853">
        <ele>1648</ele>
        <time>2024-08-10T06:11:37Z</time>
      </trkpt>
      <trkpt lat="45.07968" lon="6.1853">
        <ele>1648.2</ele>
        <time>2024-08-10T06:11:38Z</time>
      </trkpt>
      <trkpt lat="45.07968" lon="6.1853">
        <ele>1648.2</ele>
        <time>2024-08-10T06:11:39Z</time>
      </trkpt>
      <trkpt lat="45.07969" lon="6.18533">
        <ele>1648.6</ele>
        <time>2024-08-10T06:11:40Z</time>
      </trkpt>
      <trkpt lat="45.07969" lon="6.18533">
        <ele>1648.8</ele>
        <time>2024-08-10T06:11:41Z</time>
      </trkpt>
      <trkpt lat="45.07969" lon="6.18533">
        <ele>1649</ele>
        <time>2024-08-10T06:11:42Z</time>
      </trkpt>
      <trkpt lat="45.0797" lon="6.18536">
        <ele>1649</ele>
        <time>2024-08-10T06:11:43Z</time>
      </trkpt>
      <trkpt lat="45.0797" lon="6.18536">
        <ele>1649.6</ele>
        <time>2024-08-10T06:11:44Z</time>
      </trkpt>
      <trkpt lat="45.0797" lon="6.18536">
        <ele>1649.8</ele>
        <time>2024-08-10T06:11:45Z</time>
      </trkpt>
      <trkpt lat="45.07969" lon="6.18539">
        <ele>1650.2</ele>
        <time>2024-08-10T06:11:46Z</time>
      </trkpt>
      <trkpt lat="45.07969" lon="6.18539">
        <ele>1650.4</ele>
        <time>2024-08-10T06:11:47Z</time>
      </trkpt>
      <trkpt lat="45.07969" lon="6.18539">
        <ele>1650.4</ele>
        <time>2024-08-10T06:11:48Z</time>
      </trkpt>
      <trkpt lat="45.07969" lon="6.18543">
        <ele>1650.4</ele>
        <time>2024-08-10T06:11:49Z</time>
      </trkpt>
      <trkpt lat="45.07969" lon="6.18543">
        <ele>1650.4</ele>
        <time>2024-08-10T06:11:50Z</time>
      </trkpt>
      <trkpt lat="45.07969" lon="6.18543">
        <ele>1650.6</ele>
        <time>2024-08-10T06:11:51Z</time>
      </trkpt>
      <trkpt lat="45.07969" lon="6.18546">
        <ele>1650.8</ele>
        <time>2024-08-10T06:11:52Z</time>
      </trkpt>
      <trkpt lat="45.07969" lon="6.18546">
        <ele>1651.2</ele>
        <time>2024-08-10T06:11:53Z</time>
      </trkpt>
      <trkpt lat="45.07969" lon="6.18546">
        <ele>1651.4</ele>
        <time>2024-08-10T06:11:54Z</time>
      </trkpt>
      <trkpt lat="45.07969" lon="6.18549">
        <ele>1651.4</ele>
        <time>2024-08-10T06:11:55Z</time>
      </trkpt>
      <trkpt lat="45.07969" lon="6.18549">
        <ele>1651.4</ele>
        <time>2024-08-10T06:11:56Z</time>
      </trkpt>
      <trkpt lat="45.07969" lon="6.18549">
        <ele>1651.4</ele>
        <time>2024-08-10T06:11:57Z</time>
      </trkpt>
      <trkpt lat="45.07969" lon="6.18553">
        <ele>1652</ele>
        <time>2024-08-10T06:11:58Z</time>
      </trkpt>
      <trkpt lat="45.07969" lon="6.18553">
        <ele>1652.4</ele>
        <time>2024-08-10T06:11:59Z</time>
      </trkpt>
      <trkpt lat="45.07969" lon="6.18553">
        <ele>1652.6</ele>
        <time>2024-08-10T06:12:00Z</time>
      </trkpt>
      <trkpt lat="45.0797" lon="6.18555">
        <ele>1652.8</ele>
        <time>2024-08-10T06:12:01Z</time>
      </trkpt>
      <trkpt lat="45.0797" lon="6.18555">
        <ele>1653</ele>
        <time>2024-08-10T06:12:02Z</time>
      </trkpt>
      <trkpt lat="45.0797" lon="6.18555">
        <ele>1653.4</ele>
        <time>2024-08-10T06:12:03Z</time>
      </trkpt>
      <trkpt lat="45.0797" lon="6.18558">
        <ele>1653.4</ele>
        <time>2024-08-10T06:12:04Z</time>
      </trkpt>
      <trkpt lat="45.0797" lon="6.18558">
        <ele>1653.6</ele>
        <time>2024-08-10T06:12:05Z</time>
      </trkpt>
      <trkpt lat="45.0797" lon="6.18558">
        <ele>1653.8</ele>
        <time>2024-08-10T06:12:06Z</time>
      </trkpt>
      <trkpt lat="45.0797" lon="6.18562">
        <ele>1654.2</ele>
        <time>2024-08-10T06:12:07Z</time>
      </trkpt>
      <trkpt lat="45.0797" lon="6.18562">
        <ele>1654.2</ele>
        <time>2024-08-10T06:12:08Z</time>
      </trkpt>
      <trkpt lat="45.0797" lon="6.18562">
        <ele>1654.4</ele>
        <time>2024-08-10T06:12:09Z</time>
      </trkpt>
      <trkpt lat="45.0797" lon="6.18565">
        <ele>1654.6</ele>
        <time>2024-08-10T06:12:10Z</time>
      </trkpt>
      <trkpt lat="45.0797" lon="6.18565">
        <ele>1654.6</ele>
        <time>2024-08-10T06:12:11Z</time>
      </trkpt>
      <trkpt lat="45.0797" lon="6.18565">
        <ele>1654.6</ele>
        <time>2024-08-10T06:12:12Z</time>
      </trkpt>
      <trkpt lat="45.0797" lon="6.18568">
        <ele>1655</ele>
        <time>2024-08-10T06:12:13Z</time>
      </trkpt>
      <trkpt lat="45.0797" lon="6.18568">
        <ele>1655.2</ele>
        <time>2024-08-10T06:12:14Z</time>
      </trkpt>
      <trkpt lat="45.0797" lon="6.18568">
        <ele>1655.2</ele>
        <time>2024-08-10T06:12:15Z</time>
      </trkpt>
      <trkpt lat="45.0797" lon="6.18572">
        <ele>1655.4</ele>
        <time>2024-08-10T06:12:16Z</time>
      </trkpt>
      <trkpt lat="45.0797" lon="6.18572">
        <ele>1655.4</ele>
        <time>2024-08-10T06:12:17Z</time>
      </trkpt>
      <trkpt lat="45.0797" lon="6.18572">
        <ele>1656</ele>
        <time>2024-08-10T06:12:18Z</time>
      </trkpt>
      <trkpt lat="45.0797" lon="6.18575">
        <ele>1656.2</ele>
        <time>2024-08-10T06:12:19Z</time>
      </trkpt>
      <trkpt lat="45.0797" lon="6.18575">
        <ele>1656.4</ele>
        <time>2024-08-10T06:12:20Z</time>
      </trkpt>
      <trkpt lat="45.0797" lon="6.18575">
        <ele>1656.6</ele>
        <time>2024-08-10T06:12:21Z</time>
      </trkpt>
      <trkpt lat="45.07969" lon="6.18579">
        <ele>1656.8</ele>
        <time>2024-08-10T06:12:22Z</time>
      </trkpt>
      <trkpt lat="45.07969" lon="6.18579">
        <ele>1657</ele>
        <time>2024-08-10T06:12:23Z</time>
      </trkpt>
      <trkpt lat="45.07969" lon="6.18579">
        <ele>1657</ele>
        <time>2024-08-10T06:12:24Z</time>
      </trkpt>
      <trkpt lat="45.07969" lon="6.18582">
        <ele>1657.2</ele>
        <time>2024-08-10T06:12:25Z</time>
      </trkpt>
      <trkpt lat="45.07969" lon="6.18582">
        <ele>1657.4</ele>
        <time>2024-08-10T06:12:26Z</time>
      </trkpt>
      <trkpt lat="45.07969" lon="6.18582">
        <ele>1657.4</ele>
        <time>2024-08-10T06:12:27Z</time>
      </trkpt>
      <trkpt lat="45.07969" lon="6.18585">
        <ele>1657.8</ele>
        <time>2024-08-10T06:12:28Z</time>
      </trkpt>
      <trkpt lat="45.07969" lon="6.18585">
        <ele>1658.2</ele>
        <time>2024-08-10T06:12:29Z</time>
      </trkpt>
      <trkpt lat="45.07969" lon="6.18585">
        <ele>1658.4</ele>
        <time>2024-08-10T06:12:30Z</time>
      </trkpt>
      <trkpt lat="45.07969" lon="6.18588">
        <ele>1658.4</ele>
        <time>2024-08-10T06:12:31Z</time>
      </trkpt>
      <trkpt lat="45.07969" lon="6.18588">
        <ele>1658.6</ele>
        <time>2024-08-10T06:12:32Z</time>
      </trkpt>
      <trkpt lat="45.07969" lon="6.18588">
        <ele>1658.8</ele>
        <time>2024-08-10T06:12:33Z</time>
      </trkpt>
      <trkpt lat="45.0797" lon="6.18591">
        <ele>1659</ele>
        <time>2024-08-10T06:12:34Z</time>
      </trkpt>
      <trkpt lat="45.0797" lon="6.18591">
        <ele>1659.2</ele>
        <time>2024-08-10T06:12:35Z</time>
      </trkpt>
      <trkpt lat="45.0797" lon="6.18591">
        <ele>1659.4</ele>
        <time>2024-08-10T06:12:36Z</time>
      </trkpt>
      <trkpt lat="45.0797" lon="6.18594">
        <ele>1659.4</ele>
        <time>2024-08-10T06:12:37Z</time>
      </trkpt>
      <trkpt lat="45.0797" lon="6.18594">
        <ele>1659.6</ele>
        <time>2024-08-10T06:12:38Z</time>
      </trkpt>
      <trkpt lat="45.0797" lon="6.18594">
        <ele>1660</ele>
        <time>2024-08-10T06:12:39Z</time>
      </trkpt>
      <trkpt lat="45.0797" lon="6.18598">
        <ele>1660.2</ele>
        <time>2024-08-10T06:12:40Z</time>
      </trkpt>
      <trkpt lat="45.0797" lon="6.18598">
        <ele>1660.4</ele>
        <time>2024-08-10T06:12:41Z</time>
      </trkpt>
      <trkpt lat="45.07971" lon="6.186">
        <ele>1660.4</ele>
        <time>2024-08-10T06:12:42Z</time>
      </trkpt>
      <trkpt lat="45.07971" lon="6.186">
        <ele>1660.8</ele>
        <time>2024-08-10T06:12:43Z</time>
      </trkpt>
      <trkpt lat="45.07971" lon="6.186">
        <ele>1661</ele>
        <time>2024-08-10T06:12:44Z</time>
      </trkpt>
      <trkpt lat="45.07971" lon="6.18604">
        <ele>1661.4</ele>
        <time>2024-08-10T06:12:45Z</time>
      </trkpt>
      <trkpt lat="45.07971" lon="6.18604">
        <ele>1661.6</ele>
        <time>2024-08-10T06:12:46Z</time>
      </trkpt>
      <trkpt lat="45.07971" lon="6.18604">
        <ele>1661.6</ele>
        <time>2024-08-10T06:12:47Z</time>
      </trkpt>
      <trkpt lat="45.07971" lon="6.18607">
        <ele>1661.8</ele>
        <time>2024-08-10T06:12:48Z</time>
      </trkpt>
      <trkpt lat="45.07971" lon="6.18607">
        <ele>1661.8</ele>
        <time>2024-08-10T06:12:49Z</time>
      </trkpt>
      <trkpt lat="45.07971" lon="6.18607">
        <ele>1662</ele>
        <time>2024-08-10T06:12:50Z</time>
      </trkpt>
      <trkpt lat="45.07971" lon="6.1861">
        <ele>1662.2</ele>
        <time>2024-08-10T06:12:51Z</time>
      </trkpt>
      <trkpt lat="45.07971" lon="6.1861">
        <ele>1662.6</ele>
        <time>2024-08-10T06:12:52Z</time>
      </trkpt>
      <trkpt lat="45.07971" lon="6.1861">
        <ele>1662.6</ele>
        <time>2024-08-10T06:12:53Z</time>
      </trkpt>
      <trkpt lat="45.07971" lon="6.18612">
        <ele>1662.6</ele>
        <time>2024-08-10T06:12:54Z</time>
      </trkpt>
      <trkpt lat="45.07971" lon="6.18612">
        <ele>1663</ele>
        <time>2024-08-10T06:12:55Z</time>
      </trkpt>
      <trkpt lat="45.07971" lon="6.18612">
        <ele>1663</ele>
        <time>2024-08-10T06:12:56Z</time>
      </trkpt>
      <trkpt lat="45.07971" lon="6.18615">
        <ele>1663.2</ele>
        <time>2024-08-10T06:12:57Z</time>
      </trkpt>
      <trkpt lat="45.07971" lon="6.18615">
        <ele>1663.6</ele>
        <time>2024-08-10T06:12:58Z</time>
      </trkpt>
      <trkpt lat="45.07971" lon="6.18615">
        <ele>1663.6</ele>
        <time>2024-08-10T06:12:59Z</time>
      </trkpt>
      <trkpt lat="45.07971" lon="6.18618">
        <ele>1664</ele>
        <time>2024-08-10T06:13:00Z</time>
      </trkpt>
      <trkpt lat="45.07971" lon="6.18618">
        <ele>1664.2</ele>
        <time>2024-08-10T06:13:01Z</time>
      </trkpt>
      <trkpt lat="45.07971" lon="6.18618">
        <ele>1664.2</ele>
        <time>2024-08-10T06:13:02Z</time>
      </trkpt>
      <trkpt lat="45.07971" lon="6.18621">
        <ele>1664.8</ele>
        <time>2024-08-10T06:13:03Z</time>
      </trkpt>
      <trkpt lat="45.07971" lon="6.18621">
        <ele>1664.8</ele>
        <time>2024-08-10T06:13:04Z</time>
      </trkpt>
      <trkpt lat="45.07971" lon="6.18621">
        <ele>1665.2</ele>
        <time>2024-08-10T06:13:05Z</time>
      </trkpt>
      <trkpt lat="45.07971" lon="6.18624">
        <ele>1665.4</ele>
        <time>2024-08-10T06:13:06Z</time>
      </trkpt>
      <trkpt lat="45.07971" lon="6.18624">
        <ele>1665.4</ele>
        <time>2024-08-10T06:13:07Z</time>
      </trkpt>
      <trkpt lat="45.07971" lon="6.18624">
        <ele>1665.6</ele>
        <time>2024-08-10T06:13:08Z</time>
      </trkpt>
      <trkpt lat="45.07971" lon="6.18627">
        <ele>1665.8</ele>
        <time>2024-08-10T06:13:09Z</time>
      </trkpt>
      <trkpt lat="45.07971" lon="6.18627">
        <ele>1665.8</ele>
        <time>2024-08-10T06:13:10Z</time>
      </trkpt>
      <trkpt lat="45.07971" lon="6.18627">
        <ele>1666</ele>
        <time>2024-08-10T06:13:11Z</time>
      </trkpt>
      <trkpt lat="45.07971" lon="6.1863">
        <ele>1666.4</ele>
        <time>2024-08-10T06:13:12Z</time>
      </trkpt>
      <trkpt lat="45.07971" lon="6.1863">
        <ele>1667</ele>
        <time>2024-08-10T06:13:13Z</time>
      </trkpt>
      <trkpt lat="45.07971" lon="6.1863">
        <ele>1667</ele>
        <time>2024-08-10T06:13:14Z</time>
      </trkpt>
      <trkpt lat="45.07971" lon="6.18633">
        <ele>1667.4</ele>
        <time>2024-08-10T06:13:15Z</time>
      </trkpt>
      <trkpt lat="45.07971" lon="6.18633">
        <ele>1667.6</ele>
        <time>2024-08-10T06:13:16Z</time>
      </trkpt>
      <trkpt lat="45.07971" lon="6.18633">
        <ele>1667.8</ele>
        <time>2024-08-10T06:13:17Z</time>
      </trkpt>
      <trkpt lat="45.07972" lon="6.18636">
        <ele>1667.8</ele>
        <time>2024-08-10T06:13:18Z</time>
      </trkpt>
      <trkpt lat="45.07972" lon="6.18636">
        <ele>1668</ele>
        <time>2024-08-10T06:13:19Z</time>
      </trkpt>
      <trkpt lat="45.07972" lon="6.18636">
        <ele>1668</ele>
        <time>2024-08-10T06:13:20Z</time>
      </trkpt>
      <trkpt lat="45.07972" lon="6.18636">
        <ele>1668.6</ele>
        <time>2024-08-10T06:13:21Z</time>
      </trkpt>
      <trkpt lat="45.07972" lon="6.18639">
        <ele>1669</ele>
        <time>2024-08-10T06:13:22Z</time>
      </trkpt>
      <trkpt lat="45.07972" lon="6.18639">
        <ele>1669.2</ele>
        <time>2024-08-10T06:13:23Z</time>
      </trkpt>
      <trkpt lat="45.07972" lon="6.18639">
        <ele>1669.4</ele>
        <time>2024-08-10T06:13:24Z</time>
      </trkpt>
      <trkpt lat="45.07971" lon="6.18641">
        <ele>1669.6</ele>
        <time>2024-08-10T06:13:25Z</time>
      </trkpt>
      <trkpt lat="45.07971" lon="6.18641">
        <ele>1669.8</ele>
        <time>2024-08-10T06:13:26Z</time>
      </trkpt>
      <trkpt lat="45.07971" lon="6.18641">
        <ele>1670.2</ele>
        <time>2024-08-10T06:13:27Z</time>
      </trkpt>
      <trkpt lat="45.07971" lon="6.18641">
        <ele>1670.2</ele>
        <time>2024-08-10T06:13:28Z</time>
      </trkpt>
      <trkpt lat="45.0797" lon="6.18644">
        <ele>1670.4</ele>
        <time>2024-08-10T06:13:29Z</time>
      </trkpt>
      <trkpt lat="45.0797" lon="6.18644">
        <ele>1670.6</ele>
        <time>2024-08-10T06:13:30Z</time>
      </trkpt>
      <trkpt lat="45.0797" lon="6.18644">
        <ele>1670.8</ele>
        <time>2024-08-10T06:13:31Z</time>
      </trkpt>
      <trkpt lat="45.0797" lon="6.18644">
        <ele>1671</ele>
        <time>2024-08-10T06:13:32Z</time>
      </trkpt>
      <trkpt lat="45.07969" lon="6.18647">
        <ele>1671.2</ele>
        <time>2024-08-10T06:13:33Z</time>
      </trkpt>
      <trkpt lat="45.07969" lon="6.18647">
        <ele>1671.2</ele>
        <time>2024-08-10T06:13:34Z</time>
      </trkpt>
      <trkpt lat="45.07969" lon="6.18647">
        <ele>1671.6</ele>
        <time>2024-08-10T06:13:35Z</time>
      </trkpt>
      <trkpt lat="45.07969" lon="6.18647">
        <ele>1672.2</ele>
        <time>2024-08-10T06:13:36Z</time>
      </trkpt>
      <trkpt lat="45.07969" lon="6.18647">
        <ele>1672.2</ele>
        <time>2024-08-10T06:13:37Z</time>
      </trkpt>
      <trkpt lat="45.0797" lon="6.1865">
        <ele>1672.8</ele>
        <time>2024-08-10T06:13:38Z</time>
      </trkpt>
      <trkpt lat="45.0797" lon="6.1865">
        <ele>1673</ele>
        <time>2024-08-10T06:13:39Z</time>
      </trkpt>
      <trkpt lat="45.0797" lon="6.1865">
        <ele>1673.2</ele>
        <time>2024-08-10T06:13:40Z</time>
      </trkpt>
      <trkpt lat="45.07969" lon="6.18654">
        <ele>1673.2</ele>
        <time>2024-08-10T06:13:41Z</time>
      </trkpt>
      <trkpt lat="45.07969" lon="6.18654">
        <ele>1673.4</ele>
        <time>2024-08-10T06:13:42Z</time>
      </trkpt>
      <trkpt lat="45.07969" lon="6.18654">
        <ele>1673.6</ele>
        <time>2024-08-10T06:13:43Z</time>
      </trkpt>
      <trkpt lat="45.07969" lon="6.18657">
        <ele>1673.6</ele>
        <time>2024-08-10T06:13:44Z</time>
      </trkpt>
      <trkpt lat="45.07969" lon="6.18657">
        <ele>1673.8</ele>
        <time>2024-08-10T06:13:45Z</time>
      </trkpt>
      <trkpt lat="45.07969" lon="6.18657">
        <ele>1674</ele>
        <time>2024-08-10T06:13:46Z</time>
      </trkpt>
      <trkpt lat="45.07969" lon="6.1866">
        <ele>1674.4</ele>
        <time>2024-08-10T06:13:47Z</time>
      </trkpt>
      <trkpt lat="45.07969" lon="6.1866">
        <ele>1674.6</ele>
        <time>2024-08-10T06:13:48Z</time>
      </trkpt>
      <trkpt lat="45.07969" lon="6.1866">
        <ele>1674.6</ele>
        <time>2024-08-10T06:13:49Z</time>
      </trkpt>
      <trkpt lat="45.07969" lon="6.18664">
        <ele>1674.8</ele>
        <time>2024-08-10T06:13:50Z</time>
      </trkpt>
      <trkpt lat="45.07969" lon="6.18664">
        <ele>1675.2</ele>
        <time>2024-08-10T06:13:51Z</time>
      </trkpt>
      <trkpt lat="45.07969" lon="6.18664">
        <ele>1675.4</ele>
        <time>2024-08-10T06:13:52Z</time>
      </trkpt>
      <trkpt lat="45.07969" lon="6.18667">
        <ele>1675.6</ele>
        <time>2024-08-10T06:13:53Z</time>
      </trkpt>
      <trkpt lat="45.07969" lon="6.18667">
        <ele>1675.6</ele>
        <time>2024-08-10T06:13:54Z</time>
      </trkpt>
      <trkpt lat="45.07969" lon="6.18667">
        <ele>1675.8</ele>
        <time>2024-08-10T06:13:55Z</time>
      </trkpt>
      <trkpt lat="45.07969" lon="6.1867">
        <ele>1676</ele>
        <time>2024-08-10T06:13:56Z</time>
      </trkpt>
      <trkpt lat="45.07969" lon="6.1867">
        <ele>1676</ele>
        <time>2024-08-10T06:13:57Z</time>
      </trkpt>
      <trkpt lat="45.07969" lon="6.1867">
        <ele>1676.6</ele>
        <time>2024-08-10T06:13:58Z</time>
      </trkpt>
      <trkpt lat="45.07969" lon="6.18673">
        <ele>1676.8</ele>
        <time>2024-08-10T06:13:59Z</time>
      </trkpt>
      <trkpt lat="45.07969" lon="6.18673">
        <ele>1677</ele>
        <time>2024-08-10T06:14:00Z</time>
      </trkpt>
      <trkpt lat="45.07969" lon="6.18673">
        <ele>1677.2</ele>
        <time>2024-08-10T06:14:01Z</time>
      </trkpt>
      <trkpt lat="45.07968" lon="6.18676">
        <ele>1677.6</ele>
        <time>2024-08-10T06:14:02Z</time>
      </trkpt>
      <trkpt lat="45.07968" lon="6.18676">
        <ele>1677.8</ele>
        <time>2024-08-10T06:14:03Z</time>
      </trkpt>
      <trkpt lat="45.07968" lon="6.18676">
        <ele>1677.8</ele>
        <time>2024-08-10T06:14:04Z</time>
      </trkpt>
      <trkpt lat="45.07967" lon="6.18679">
        <ele>1677.8</ele>
        <time>2024-08-10T06:14:05Z</time>
      </trkpt>
      <trkpt lat="45.07967" lon="6.18679">
        <ele>1678.4</ele>
        <time>2024-08-10T06:14:06Z</time>
      </trkpt>
      <trkpt lat="45.07967" lon="6.18679">
        <ele>1678.8</ele>
        <time>2024-08-10T06:14:07Z</time>
      </trkpt>
      <trkpt lat="45.07966" lon="6.18681">
        <ele>1678.8</ele>
        <time>2024-08-10T06:14:08Z</time>
      </trkpt>
      <trkpt lat="45.07966" lon="6.18681">
        <ele>1679.2</ele>
        <time>2024-08-10T06:14:09Z</time>
      </trkpt>
      <trkpt lat="45.07966" lon="6.18681">
        <ele>1679.2</ele>
        <time>2024-08-10T06:14:10Z</time>
      </trkpt>
      <trkpt lat="45.07965" lon="6.18685">
        <ele>1679.2</ele>
        <time>2024-08-10T06:14:11Z</time>
      </trkpt>
      <trkpt lat="45.07965" lon="6.18685">
        <ele>1679.4</ele>
        <time>2024-08-10T06:14:12Z</time>
      </trkpt>
      <trkpt lat="45.07965" lon="6.18685">
        <ele>1679.6</ele>
        <time>2024-08-10T06:14:13Z</time>
      </trkpt>
      <trkpt lat="45.07965" lon="6.18688">
        <ele>1679.8</ele>
        <time>2024-08-10T06:14:14Z</time>
      </trkpt>
      <trkpt lat="45.07965" lon="6.18688">
        <ele>1680.2</ele>
        <time>2024-08-10T06:14:15Z</time>
      </trkpt>
      <trkpt lat="45.07965" lon="6.1869">
        <ele>1680.4</ele>
        <time>2024-08-10T06:14:16Z</time>
      </trkpt>
      <trkpt lat="45.07965" lon="6.1869">
        <ele>1680.6</ele>
        <time>2024-08-10T06:14:17Z</time>
      </trkpt>
      <trkpt lat="45.07965" lon="6.1869">
        <ele>1680.6</ele>
        <time>2024-08-10T06:14:18Z</time>
      </trkpt>
      <trkpt lat="45.07965" lon="6.18694">
        <ele>1680.8</ele>
        <time>2024-08-10T06:14:19Z</time>
      </trkpt>
      <trkpt lat="45.07965" lon="6.18694">
        <ele>1680.8</ele>
        <time>2024-08-10T06:14:20Z</time>
      </trkpt>
      <trkpt lat="45.07965" lon="6.18694">
        <ele>1681</ele>
        <time>2024-08-10T06:14:21Z</time>
      </trkpt>
      <trkpt lat="45.07965" lon="6.18697">
        <ele>1681.2</ele>
        <time>2024-08-10T06:14:22Z</time>
      </trkpt>
      <trkpt lat="45.07965" lon="6.18697">
        <ele>1681.2</ele>
        <time>2024-08-10T06:14:23Z</time>
      </trkpt>
      <trkpt lat="45.07965" lon="6.18697">
        <ele>1681.2</ele>
        <time>2024-08-10T06:14:24Z</time>
      </trkpt>
      <trkpt lat="45.07965" lon="6.18697">
        <ele>1681.4</ele>
        <time>2024-08-10T06:14:25Z</time>
      </trkpt>
      <trkpt lat="45.07963" lon="6.18697">
        <ele>1681.8</ele>
        <time>2024-08-10T06:14:26Z</time>
      </trkpt>
      <trkpt lat="45.07963" lon="6.18697">
        <ele>1682</ele>
        <time>2024-08-10T06:14:27Z</time>
      </trkpt>
      <trkpt lat="45.07961" lon="6.18695">
        <ele>1682.2</ele>
        <time>2024-08-10T06:14:28Z</time>
      </trkpt>
      <trkpt lat="45.07961" lon="6.18695">
        <ele>1682.2</ele>
        <time>2024-08-10T06:14:29Z</time>
      </trkpt>
      <trkpt lat="45.07961" lon="6.18695">
        <ele>1682.2</ele>
        <time>2024-08-10T06:14:30Z</time>
      </trkpt>
      <trkpt lat="45.0796" lon="6.18691">
        <ele>1682.2</ele>
        <time>2024-08-10T06:14:31Z</time>
      </trkpt>
      <trkpt lat="45.0796" lon="6.18691">
        <ele>1682.6</ele>
        <time>2024-08-10T06:14:32Z</time>
      </trkpt>
      <trkpt lat="45.07959" lon="6.18689">
        <ele>1682.8</ele>
        <time>2024-08-10T06:14:33Z</time>
      </trkpt>
      <trkpt lat="45.07959" lon="6.18689">
        <ele>1682.8</ele>
        <time>2024-08-10T06:14:34Z</time>
      </trkpt>
      <trkpt lat="45.07959" lon="6.18686">
        <ele>1682.8</ele>
        <time>2024-08-10T06:14:35Z</time>
      </trkpt>
      <trkpt lat="45.07959" lon="6.18686">
        <ele>1682.8</ele>
        <time>2024-08-10T06:14:36Z</time>
      </trkpt>
      <trkpt lat="45.07958" lon="6.18684">
        <ele>1683.2</ele>
        <time>2024-08-10T06:14:37Z</time>
      </trkpt>
      <trkpt lat="45.07958" lon="6.18684">
        <ele>1683.2</ele>
        <time>2024-08-10T06:14:38Z</time>
      </trkpt>
      <trkpt lat="45.07956" lon="6.18681">
        <ele>1683.4</ele>
        <time>2024-08-10T06:14:39Z</time>
      </trkpt>
      <trkpt lat="45.07956" lon="6.18681">
        <ele>1683.6</ele>
        <time>2024-08-10T06:14:40Z</time>
      </trkpt>
      <trkpt lat="45.07956" lon="6.18681">
        <ele>1683.8</ele>
        <time>2024-08-10T06:14:41Z</time>
      </trkpt>
      <trkpt lat="45.07955" lon="6.18678">
        <ele>1683.8</ele>
        <time>2024-08-10T06:14:42Z</time>
      </trkpt>
      <trkpt lat="45.07955" lon="6.18678">
        <ele>1684</ele>
        <time>2024-08-10T06:14:43Z</time>
      </trkpt>
      <trkpt lat="45.07953" lon="6.18676">
        <ele>1684</ele>
        <time>2024-08-10T06:14:44Z</time>
      </trkpt>
      <trkpt lat="45.07953" lon="6.18676">
        <ele>1684.2</ele>
        <time>2024-08-10T06:14:45Z</time>
      </trkpt>
      <trkpt lat="45.07953" lon="6.18676">
        <ele>1684.2</ele>
        <time>2024-08-10T06:14:46Z</time>
      </trkpt>
      <trkpt lat="45.07953" lon="6.18676">
        <ele>1684.4</ele>
        <time>2024-08-10T06:14:47Z</time>
      </trkpt>
      <trkpt lat="45.07953" lon="6.18676">
        <ele>1684.6</ele>
        <time>2024-08-10T06:14:48Z</time>
      </trkpt>
      <trkpt lat="45.07951" lon="6.18677">
        <ele>1684.8</ele>
        <time>2024-08-10T06:14:49Z</time>
      </trkpt>
      <trkpt lat="45.07951" lon="6.18677">
        <ele>1685</ele>
        <time>2024-08-10T06:14:50Z</time>
      </trkpt>
      <trkpt lat="45.07951" lon="6.18677">
        <ele>1685.2</ele>
        <time>2024-08-10T06:14:51Z</time>
      </trkpt>
      <trkpt lat="45.07952" lon="6.18681">
        <ele>1685.4</ele>
        <time>2024-08-10T06:14:52Z</time>
      </trkpt>
      <trkpt lat="45.07952" lon="6.18681">
        <ele>1685.4</ele>
        <time>2024-08-10T06:14:53Z</time>
      </trkpt>
      <trkpt lat="45.07952" lon="6.18681">
        <ele>1686</ele>
        <time>2024-08-10T06:14:54Z</time>
      </trkpt>
      <trkpt lat="45.07952" lon="6.18684">
        <ele>1686.2</ele>
        <time>2024-08-10T06:14:55Z</time>
      </trkpt>
      <trkpt lat="45.07952" lon="6.18684">
        <ele>1686.4</ele>
        <time>2024-08-10T06:14:56Z</time>
      </trkpt>
      <trkpt lat="45.07952" lon="6.18684">
        <ele>1686.4</ele>
        <time>2024-08-10T06:14:57Z</time>
      </trkpt>
      <trkpt lat="45.07952" lon="6.18684">
        <ele>1687</ele>
        <time>2024-08-10T06:14:58Z</time>
      </trkpt>
      <trkpt lat="45.07952" lon="6.18687">
        <ele>1687</ele>
        <time>2024-08-10T06:14:59Z</time>
      </trkpt>
      <trkpt lat="45.07952" lon="6.18687">
        <ele>1687.4</ele>
        <time>2024-08-10T06:15:00Z</time>
      </trkpt>
      <trkpt lat="45.07952" lon="6.18687">
        <ele>1687.6</ele>
        <time>2024-08-10T06:15:01Z</time>
      </trkpt>
      <trkpt lat="45.07952" lon="6.1869">
        <ele>1687.6</ele>
        <time>2024-08-10T06:15:02Z</time>
      </trkpt>
      <trkpt lat="45.07952" lon="6.1869">
        <ele>1688</ele>
        <time>2024-08-10T06:15:03Z</time>
      </trkpt>
      <trkpt lat="45.07952" lon="6.18693">
        <ele>1688</ele>
        <time>2024-08-10T06:15:04Z</time>
      </trkpt>
      <trkpt lat="45.07952" lon="6.18693">
        <ele>1688.2</ele>
        <time>2024-08-10T06:15:05Z</time>
      </trkpt>
      <trkpt lat="45.07952" lon="6.18697">
        <ele>1688.4</ele>
        <time>2024-08-10T06:15:06Z</time>
      </trkpt>
      <trkpt lat="45.07952" lon="6.18697">
        <ele>1688.4</ele>
        <time>2024-08-10T06:15:07Z</time>
      </trkpt>
      <trkpt lat="45.07952" lon="6.18697">
        <ele>1688.6</ele>
        <time>2024-08-10T06:15:08Z</time>
      </trkpt>
      <trkpt lat="45.07951" lon="6.187">
        <ele>1688.8</ele>
        <time>2024-08-10T06:15:09Z</time>
      </trkpt>
      <trkpt lat="45.07951" lon="6.187">
        <ele>1689</ele>
        <time>2024-08-10T06:15:10Z</time>
      </trkpt>
      <trkpt lat="45.07951" lon="6.187">
        <ele>1689.2</ele>
        <time>2024-08-10T06:15:11Z</time>
      </trkpt>
      <trkpt lat="45.07951" lon="6.18704">
        <ele>1689.4</ele>
        <time>2024-08-10T06:15:12Z</time>
      </trkpt>
      <trkpt lat="45.07951" lon="6.18704">
        <ele>1689.6</ele>
        <time>2024-08-10T06:15:13Z</time>
      </trkpt>
      <trkpt lat="45.07951" lon="6.18706">
        <ele>1689.8</ele>
        <time>2024-08-10T06:15:14Z</time>
      </trkpt>
      <trkpt lat="45.07951" lon="6.18706">
        <ele>1690</ele>
        <time>2024-08-10T06:15:15Z</time>
      </trkpt>
      <trkpt lat="45.07951" lon="6.18706">
        <ele>1690</ele>
        <time>2024-08-10T06:15:16Z</time>
      </trkpt>
      <trkpt lat="45.0795" lon="6.1871">
        <ele>1690</ele>
        <time>2024-08-10T06:15:17Z</time>
      </trkpt>
      <trkpt lat="45.0795" lon="6.1871">
        <ele>1690.6</ele>
        <time>2024-08-10T06:15:18Z</time>
      </trkpt>
      <trkpt lat="45.0795" lon="6.1871">
        <ele>1690.8</ele>
        <time>2024-08-10T06:15:19Z</time>
      </trkpt>
      <trkpt lat="45.0795" lon="6.18713">
        <ele>1690.8</ele>
        <time>2024-08-10T06:15:20Z</time>
      </trkpt>
      <trkpt lat="45.0795" lon="6.18713">
        <ele>1691</ele>
        <time>2024-08-10T06:15:21Z</time>
      </trkpt>
      <trkpt lat="45.0795" lon="6.18713">
        <ele>1691.4</ele>
        <time>2024-08-10T06:15:22Z</time>
      </trkpt>
      <trkpt lat="45.07949" lon="6.18717">
        <ele>1691.8</ele>
        <time>2024-08-10T06:15:23Z</time>
      </trkpt>
      <trkpt lat="45.07949" lon="6.18717">
        <ele>1691.8</ele>
        <time>2024-08-10T06:15:24Z</time>
      </trkpt>
      <trkpt lat="45.07949" lon="6.18717">
        <ele>1692</ele>
        <time>2024-08-10T06:15:25Z</time>
      </trkpt>
      <trkpt lat="45.07949" lon="6.1872">
        <ele>1692</ele>
        <time>2024-08-10T06:15:26Z</time>
      </trkpt>
      <trkpt lat="45.07949" lon="6.1872">
        <ele>1692</ele>
        <time>2024-08-10T06:15:27Z</time>
      </trkpt>
      <trkpt lat="45.07949" lon="6.1872">
        <ele>1692.4</ele>
        <time>2024-08-10T06:15:28Z</time>
      </trkpt>
      <trkpt lat="45.07949" lon="6.18723">
        <ele>1692.6</ele>
        <time>2024-08-10T06:15:29Z</time>
      </trkpt>
      <trkpt lat="45.07949" lon="6.18723">
        <ele>1693</ele>
        <time>2024-08-10T06:15:30Z</time>
      </trkpt>
      <trkpt lat="45.07949" lon="6.18723">
        <ele>1693.2</ele>
        <time>2024-08-10T06:15:31Z</time>
      </trkpt>
      <trkpt lat="45.07948" lon="6.18726">
        <ele>1693.2</ele>
        <time>2024-08-10T06:15:32Z</time>
      </trkpt>
      <trkpt lat="45.07948" lon="6.18726">
        <ele>1693.4</ele>
        <time>2024-08-10T06:15:33Z</time>
      </trkpt>
      <trkpt lat="45.07948" lon="6.18726">
        <ele>1693.6</ele>
        <time>2024-08-10T06:15:34Z</time>
      </trkpt>
      <trkpt lat="45.07948" lon="6.1873">
        <ele>1693.8</ele>
        <time>2024-08-10T06:15:35Z</time>
      </trkpt>
      <trkpt lat="45.07948" lon="6.1873">
        <ele>1693.8</ele>
        <time>2024-08-10T06:15:36Z</time>
      </trkpt>
      <trkpt lat="45.07948" lon="6.1873">
        <ele>1694</ele>
        <time>2024-08-10T06:15:37Z</time>
      </trkpt>
      <trkpt lat="45.07947" lon="6.18733">
        <ele>1694</ele>
        <time>2024-08-10T06:15:38Z</time>
      </trkpt>
      <trkpt lat="45.07947" lon="6.18733">
        <ele>1694.4</ele>
        <time>2024-08-10T06:15:39Z</time>
      </trkpt>
      <trkpt lat="45.07947" lon="6.18736">
        <ele>1694.6</ele>
        <time>2024-08-10T06:15:40Z</time>
      </trkpt>
      <trkpt lat="45.07947" lon="6.18736">
        <ele>1694.8</ele>
        <time>2024-08-10T06:15:41Z</time>
      </trkpt>
      <trkpt lat="45.07946" lon="6.18738">
        <ele>1695</ele>
        <time>2024-08-10T06:15:42Z</time>
      </trkpt>
      <trkpt lat="45.07946" lon="6.18738">
        <ele>1695.4</ele>
        <time>2024-08-10T06:15:43Z</time>
      </trkpt>
      <trkpt lat="45.07946" lon="6.18741">
        <ele>1695.4</ele>
        <time>2024-08-10T06:15:44Z</time>
      </trkpt>
      <trkpt lat="45.07946" lon="6.18741">
        <ele>1695.6</ele>
        <time>2024-08-10T06:15:45Z</time>
      </trkpt>
      <trkpt lat="45.07946" lon="6.18741">
        <ele>1695.6</ele>
        <time>2024-08-10T06:15:46Z</time>
      </trkpt>
      <trkpt lat="45.07945" lon="6.18745">
        <ele>1696</ele>
        <time>2024-08-10T06:15:47Z</time>
      </trkpt>
      <trkpt lat="45.07945" lon="6.18745">
        <ele>1696.2</ele>
        <time>2024-08-10T06:15:48Z</time>
      </trkpt>
      <trkpt lat="45.07945" lon="6.18747">
        <ele>1696.2</ele>
        <time>2024-08-10T06:15:49Z</time>
      </trkpt>
      <trkpt lat="45.07945" lon="6.18747">
        <ele>1696.4</ele>
        <time>2024-08-10T06:15:50Z</time>
      </trkpt>
      <trkpt lat="45.07945" lon="6.1875">
        <ele>1696.4</ele>
        <time>2024-08-10T06:15:51Z</time>
      </trkpt>
      <trkpt lat="45.07945" lon="6.1875">
        <ele>1696.8</ele>
        <time>2024-08-10T06:15:52Z</time>
      </trkpt>
      <trkpt lat="45.07945" lon="6.18753">
        <ele>1697.2</ele>
        <time>2024-08-10T06:15:53Z</time>
      </trkpt>
      <trkpt lat="45.07945" lon="6.18753">
        <ele>1697.4</ele>
        <time>2024-08-10T06:15:54Z</time>
      </trkpt>
      <trkpt lat="45.07945" lon="6.18756">
        <ele>1697.4</ele>
        <time>2024-08-10T06:15:55Z</time>
      </trkpt>
      <trkpt lat="45.07945" lon="6.18756">
        <ele>1697.4</ele>
        <time>2024-08-10T06:15:56Z</time>
      </trkpt>
      <trkpt lat="45.07945" lon="6.1876">
        <ele>1697.2</ele>
        <time>2024-08-10T06:15:57Z</time>
      </trkpt>
      <trkpt lat="45.07945" lon="6.1876">
        <ele>1697.2</ele>
        <time>2024-08-10T06:15:58Z</time>
      </trkpt>
      <trkpt lat="45.07946" lon="6.18764">
        <ele>1697</ele>
        <time>2024-08-10T06:15:59Z</time>
      </trkpt>
      <trkpt lat="45.07946" lon="6.18764">
        <ele>1697</ele>
        <time>2024-08-10T06:16:00Z</time>
      </trkpt>
      <trkpt lat="45.07946" lon="6.18768">
        <ele>1696.8</ele>
        <time>2024-08-10T06:16:01Z</time>
      </trkpt>
      <trkpt lat="45.07946" lon="6.18768">
        <ele>1696.4</ele>
        <time>2024-08-10T06:16:02Z</time>
      </trkpt>
      <trkpt lat="45.07946" lon="6.18772">
        <ele>1696.2</ele>
        <time>2024-08-10T06:16:03Z</time>
      </trkpt>
      <trkpt lat="45.07946" lon="6.18772">
        <ele>1696.2</ele>
        <time>2024-08-10T06:16:04Z</time>
      </trkpt>
      <trkpt lat="45.07946" lon="6.18776">
        <ele>1696.4</ele>
        <time>2024-08-10T06:16:05Z</time>
      </trkpt>
      <trkpt lat="45.07946" lon="6.18776">
        <ele>1696.4</ele>
        <time>2024-08-10T06:16:06Z</time>
      </trkpt>
      <trkpt lat="45.07946" lon="6.1878">
        <ele>1696.2</ele>
        <time>2024-08-10T06:16:07Z</time>
      </trkpt>
      <trkpt lat="45.07946" lon="6.1878">
        <ele>1696</ele>
        <time>2024-08-10T06:16:08Z</time>
      </trkpt>
      <trkpt lat="45.07945" lon="6.18783">
        <ele>1696</ele>
        <time>2024-08-10T06:16:09Z</time>
      </trkpt>
      <trkpt lat="45.07945" lon="6.18783">
        <ele>1696</ele>
        <time>2024-08-10T06:16:10Z</time>
      </trkpt>
      <trkpt lat="45.07945" lon="6.18787">
        <ele>1696</ele>
        <time>2024-08-10T06:16:11Z</time>
      </trkpt>
      <trkpt lat="45.07945" lon="6.18787">
        <ele>1696</ele>
        <time>2024-08-10T06:16:12Z</time>
      </trkpt>
      <trkpt lat="45.07946" lon="6.18791">
        <ele>1696.2</ele>
        <time>2024-08-10T06:16:13Z</time>
      </trkpt>
      <trkpt lat="45.07946" lon="6.18791">
        <ele>1696.2</ele>
        <time>2024-08-10T06:16:14Z</time>
      </trkpt>
      <trkpt lat="45.07946" lon="6.18794">
        <ele>1696.2</ele>
        <time>2024-08-10T06:16:15Z</time>
      </trkpt>
      <trkpt lat="45.07946" lon="6.18794">
        <ele>1696.2</ele>
        <time>2024-08-10T06:16:16Z</time>
      </trkpt>
      <trkpt lat="45.07946" lon="6.18798">
        <ele>1696.6</ele>
        <time>2024-08-10T06:16:17Z</time>
      </trkpt>
      <trkpt lat="45.07946" lon="6.18798">
        <ele>1696.8</ele>
        <time>2024-08-10T06:16:18Z</time>
      </trkpt>
      <trkpt lat="45.07946" lon="6.18802">
        <ele>1696.8</ele>
        <time>2024-08-10T06:16:19Z</time>
      </trkpt>
      <trkpt lat="45.07946" lon="6.18802">
        <ele>1696.8</ele>
        <time>2024-08-10T06:16:20Z</time>
      </trkpt>
      <trkpt lat="45.07946" lon="6.18806">
        <ele>1696.4</ele>
        <time>2024-08-10T06:16:21Z</time>
      </trkpt>
      <trkpt lat="45.07946" lon="6.18806">
        <ele>1696.4</ele>
        <time>2024-08-10T06:16:22Z</time>
      </trkpt>
      <trkpt lat="45.07946" lon="6.1881">
        <ele>1696.4</ele>
        <time>2024-08-10T06:16:23Z</time>
      </trkpt>
      <trkpt lat="45.07946" lon="6.1881">
        <ele>1696.2</ele>
        <time>2024-08-10T06:16:24Z</time>
      </trkpt>
      <trkpt lat="45.07946" lon="6.18813">
        <ele>1696.2</ele>
        <time>2024-08-10T06:16:25Z</time>
      </trkpt>
      <trkpt lat="45.07946" lon="6.18813">
        <ele>1696.4</ele>
        <time>2024-08-10T06:16:26Z</time>
      </trkpt>
      <trkpt lat="45.07946" lon="6.18817">
        <ele>1696.4</ele>
        <time>2024-08-10T06:16:27Z</time>
      </trkpt>
      <trkpt lat="45.07946" lon="6.18817">
        <ele>1696.4</ele>
        <time>2024-08-10T06:16:28Z</time>
      </trkpt>
      <trkpt lat="45.07946" lon="6.18821">
        <ele>1696.2</ele>
        <time>2024-08-10T06:16:29Z</time>
      </trkpt>
      <trkpt lat="45.07946" lon="6.18821">
        <ele>1696.2</ele>
        <time>2024-08-10T06:16:30Z</time>
      </trkpt>
      <trkpt lat="45.07946" lon="6.18825">
        <ele>1696.2</ele>
        <time>2024-08-10T06:16:31Z</time>
      </trkpt>
      <trkpt lat="45.07946" lon="6.18825">
        <ele>1696.2</ele>
        <time>2024-08-10T06:16:32Z</time>
      </trkpt>
      <trkpt lat="45.07947" lon="6.18829">
        <ele>1696.2</ele>
        <time>2024-08-10T06:16:33Z</time>
      </trkpt>
      <trkpt lat="45.07947" lon="6.18829">
        <ele>1696.2</ele>
        <time>2024-08-10T06:16:34Z</time>
      </trkpt>
      <trkpt lat="45.07947" lon="6.18832">
        <ele>1696.4</ele>
        <time>2024-08-10T06:16:35Z</time>
      </trkpt>
      <trkpt lat="45.07947" lon="6.18832">
        <ele>1696.4</ele>
        <time>2024-08-10T06:16:36Z</time>
      </trkpt>
      <trkpt lat="45.07946" lon="6.18836">
        <ele>1696.6</ele>
        <time>2024-08-10T06:16:37Z</time>
      </trkpt>
      <trkpt lat="45.07946" lon="6.18836">
        <ele>1696.6</ele>
        <time>2024-08-10T06:16:38Z</time>
      </trkpt>
      <trkpt lat="45.07946" lon="6.1884">
        <ele>1696.8</ele>
        <time>2024-08-10T06:16:39Z</time>
      </trkpt>
      <trkpt lat="45.07946" lon="6.1884">
        <ele>1696.8</ele>
        <time>2024-08-10T06:16:40Z</time>
      </trkpt>
      <trkpt lat="45.07946" lon="6.18843">
        <ele>1697.2</ele>
        <time>2024-08-10T06:16:41Z</time>
      </trkpt>
      <trkpt lat="45.07946" lon="6.18843">
        <ele>1697.2</ele>
        <time>2024-08-10T06:16:42Z</time>
      </trkpt>
      <trkpt lat="45.07946" lon="6.18847">
        <ele>1697.4</ele>
        <time>2024-08-10T06:16:43Z</time>
      </trkpt>
      <trkpt lat="45.07946" lon="6.18847">
        <ele>1697.6</ele>
        <time>2024-08-10T06:16:44Z</time>
      </trkpt>
      <trkpt lat="45.07946" lon="6.1885">
        <ele>1697.6</ele>
        <time>2024-08-10T06:16:45Z</time>
      </trkpt>
      <trkpt lat="45.07946" lon="6.1885">
        <ele>1697.6</ele>
        <time>2024-08-10T06:16:46Z</time>
      </trkpt>
      <trkpt lat="45.07947" lon="6.18853">
        <ele>1697.8</ele>
        <time>2024-08-10T06:16:47Z</time>
      </trkpt>
      <trkpt lat="45.07947" lon="6.18853">
        <ele>1697.6</ele>
        <time>2024-08-10T06:16:48Z</time>
      </trkpt>
      <trkpt lat="45.07947" lon="6.18857">
        <ele>1697.6</ele>
        <time>2024-08-10T06:16:49Z</time>
      </trkpt>
      <trkpt lat="45.07947" lon="6.18857">
        <ele>1697.6</ele>
        <time>2024-08-10T06:16:50Z</time>
      </trkpt>
      <trkpt lat="45.07947" lon="6.18861">
        <ele>1698</ele>
        <time>2024-08-10T06:16:51Z</time>
      </trkpt>
      <trkpt lat="45.07947" lon="6.18861">
        <ele>1698.2</ele>
        <time>2024-08-10T06:16:52Z</time>
      </trkpt>
      <trkpt lat="45.07946" lon="6.18865">
        <ele>1698.2</ele>
        <time>2024-08-10T06:16:53Z</time>
      </trkpt>
      <trkpt lat="45.07946" lon="6.18865">
        <ele>1698</ele>
        <time>2024-08-10T06:16:54Z</time>
      </trkpt>
      <trkpt lat="45.07946" lon="6.18868">
        <ele>1698</ele>
        <time>2024-08-10T06:16:55Z</time>
      </trkpt>
      <trkpt lat="45.07946" lon="6.18868">
        <ele>1698</ele>
        <time>2024-08-10T06:16:56Z</time>
      </trkpt>
      <trkpt lat="45.07946" lon="6.18872">
        <ele>1698.2</ele>
        <time>2024-08-10T06:16:57Z</time>
      </trkpt>
      <trkpt lat="45.07946" lon="6.18872">
        <ele>1698.2</ele>
        <time>2024-08-10T06:16:58Z</time>
      </trkpt>
      <trkpt lat="45.07946" lon="6.18875">
        <ele>1698</ele>
        <time>2024-08-10T06:16:59Z</time>
      </trkpt>
      <trkpt lat="45.07946" lon="6.18875">
        <ele>1698</ele>
        <time>2024-08-10T06:17:00Z</time>
      </trkpt>
      <trkpt lat="45.07946" lon="6.18878">
        <ele>1698</ele>
        <time>2024-08-10T06:17:01Z</time>
      </trkpt>
      <trkpt lat="45.07946" lon="6.18878">
        <ele>1698</ele>
        <time>2024-08-10T06:17:02Z</time>
      </trkpt>
      <trkpt lat="45.07946" lon="6.18881">
        <ele>1698.2</ele>
        <time>2024-08-10T06:17:03Z</time>
      </trkpt>
      <trkpt lat="45.07946" lon="6.18881">
        <ele>1698.2</ele>
        <time>2024-08-10T06:17:04Z</time>
      </trkpt>
      <trkpt lat="45.07946" lon="6.18885">
        <ele>1698.2</ele>
        <time>2024-08-10T06:17:05Z</time>
      </trkpt>
      <trkpt lat="45.07946" lon="6.18885">
        <ele>1698.4</ele>
        <time>2024-08-10T06:17:06Z</time>
      </trkpt>
      <trkpt lat="45.07947" lon="6.18888">
        <ele>1698.4</ele>
        <time>2024-08-10T06:17:07Z</time>
      </trkpt>
      <trkpt lat="45.07947" lon="6.18888">
        <ele>1698.6</ele>
        <time>2024-08-10T06:17:08Z</time>
      </trkpt>
      <trkpt lat="45.07947" lon="6.18891">
        <ele>1698.6</ele>
        <time>2024-08-10T06:17:09Z</time>
      </trkpt>
      <trkpt lat="45.07947" lon="6.18891">
        <ele>1698.4</ele>
        <time>2024-08-10T06:17:10Z</time>
      </trkpt>
      <trkpt lat="45.07947" lon="6.18895">
        <ele>1698.4</ele>
        <time>2024-08-10T06:17:11Z</time>
      </trkpt>
      <trkpt lat="45.07947" lon="6.18895">
        <ele>1698.4</ele>
        <time>2024-08-10T06:17:12Z</time>
      </trkpt>
      <trkpt lat="45.07947" lon="6.18898">
        <ele>1698.4</ele>
        <time>2024-08-10T06:17:13Z</time>
      </trkpt>
      <trkpt lat="45.07947" lon="6.18898">
        <ele>1698.4</ele>
        <time>2024-08-10T06:17:14Z</time>
      </trkpt>
      <trkpt lat="45.07947" lon="6.18902">
        <ele>1698.6</ele>
        <time>2024-08-10T06:17:15Z</time>
      </trkpt>
      <trkpt lat="45.07947" lon="6.18902">
        <ele>1698.6</ele>
        <time>2024-08-10T06:17:16Z</time>
      </trkpt>
      <trkpt lat="45.07947" lon="6.18905">
        <ele>1698.4</ele>
        <time>2024-08-10T06:17:17Z</time>
      </trkpt>
      <trkpt lat="45.07948" lon="6.18907">
        <ele>1698.4</ele>
        <time>2024-08-10T06:17:18Z</time>
      </trkpt>
      <trkpt lat="45.07948" lon="6.18907">
        <ele>1698.6</ele>
        <time>2024-08-10T06:17:19Z</time>
      </trkpt>
      <trkpt lat="45.07949" lon="6.18912">
        <ele>1698.6</ele>
        <time>2024-08-10T06:17:20Z</time>
      </trkpt>
      <trkpt lat="45.07949" lon="6.18912">
        <ele>1698.4</ele>
        <time>2024-08-10T06:17:21Z</time>
      </trkpt>
      <trkpt lat="45.07948" lon="6.18915">
        <ele>1698.4</ele>
        <time>2024-08-10T06:17:22Z</time>
      </trkpt>
      <trkpt lat="45.07948" lon="6.18915">
        <ele>1698.4</ele>
        <time>2024-08-10T06:17:23Z</time>
      </trkpt>
      <trkpt lat="45.07947" lon="6.18919">
        <ele>1698.6</ele>
        <time>2024-08-10T06:17:24Z</time>
      </trkpt>
      <trkpt lat="45.07947" lon="6.18919">
        <ele>1698.6</ele>
        <time>2024-08-10T06:17:25Z</time>
      </trkpt>
      <trkpt lat="45.07946" lon="6.18922">
        <ele>1698.6</ele>
        <time>2024-08-10T06:17:26Z</time>
      </trkpt>
      <trkpt lat="45.07946" lon="6.18922">
        <ele>1698.6</ele>
        <time>2024-08-10T06:17:27Z</time>
      </trkpt>
      <trkpt lat="45.07946" lon="6.18926">
        <ele>1699</ele>
        <time>2024-08-10T06:17:28Z</time>
      </trkpt>
      <trkpt lat="45.07946" lon="6.18926">
        <ele>1699</ele>
        <time>2024-08-10T06:17:29Z</time>
      </trkpt>
      <trkpt lat="45.07946" lon="6.18929">
        <ele>1699</ele>
        <time>2024-08-10T06:17:30Z</time>
      </trkpt>
      <trkpt lat="45.07946" lon="6.18929">
        <ele>1699.2</ele>
        <time>2024-08-10T06:17:31Z</time>
      </trkpt>
      <trkpt lat="45.07945" lon="6.18932">
        <ele>1699.4</ele>
        <time>2024-08-10T06:17:32Z</time>
      </trkpt>
      <trkpt lat="45.07945" lon="6.18932">
        <ele>1699.4</ele>
        <time>2024-08-10T06:17:33Z</time>
      </trkpt>
      <trkpt lat="45.07945" lon="6.18936">
        <ele>1699.6</ele>
        <time>2024-08-10T06:17:34Z</time>
      </trkpt>
      <trkpt lat="45.07945" lon="6.18936">
        <ele>1699.6</ele>
        <time>2024-08-10T06:17:35Z</time>
      </trkpt>
      <trkpt lat="45.07945" lon="6.18939">
        <ele>1699.6</ele>
        <time>2024-08-10T06:17:36Z</time>
      </trkpt>
      <trkpt lat="45.07945" lon="6.18939">
        <ele>1699.6</ele>
        <time>2024-08-10T06:17:37Z</time>
      </trkpt>
      <trkpt lat="45.07945" lon="6.18942">
        <ele>1699.8</ele>
        <time>2024-08-10T06:17:38Z</time>
      </trkpt>
      <trkpt lat="45.07945" lon="6.18942">
        <ele>1699.8</ele>
        <time>2024-08-10T06:17:39Z</time>
      </trkpt>
      <trkpt lat="45.07945" lon="6.18944">
        <ele>1700</ele>
        <time>2024-08-10T06:17:40Z</time>
      </trkpt>
      <trkpt lat="45.07945" lon="6.18944">
        <ele>1700.4</ele>
        <time>2024-08-10T06:17:41Z</time>
      </trkpt>
      <trkpt lat="45.07945" lon="6.18947">
        <ele>1700.6</ele>
        <time>2024-08-10T06:17:42Z</time>
      </trkpt>
      <trkpt lat="45.07945" lon="6.18947">
        <ele>1700.8</ele>
        <time>2024-08-10T06:17:43Z</time>
      </trkpt>
      <trkpt lat="45.07945" lon="6.1895">
        <ele>1700.8</ele>
        <time>2024-08-10T06:17:44Z</time>
      </trkpt>
      <trkpt lat="45.07945" lon="6.1895">
        <ele>1701</ele>
        <time>2024-08-10T06:17:45Z</time>
      </trkpt>
      <trkpt lat="45.07945" lon="6.1895">
        <ele>1701.2</ele>
        <time>2024-08-10T06:17:46Z</time>
      </trkpt>
      <trkpt lat="45.07945" lon="6.18954">
        <ele>1701.4</ele>
        <time>2024-08-10T06:17:47Z</time>
      </trkpt>
      <trkpt lat="45.07945" lon="6.18954">
        <ele>1701.6</ele>
        <time>2024-08-10T06:17:48Z</time>
      </trkpt>
      <trkpt lat="45.07945" lon="6.18956">
        <ele>1701.8</ele>
        <time>2024-08-10T06:17:49Z</time>
      </trkpt>
      <trkpt lat="45.07945" lon="6.18956">
        <ele>1702.2</ele>
        <time>2024-08-10T06:17:50Z</time>
      </trkpt>
      <trkpt lat="45.07945" lon="6.18956">
        <ele>1702.4</ele>
        <time>2024-08-10T06:17:51Z</time>
      </trkpt>
      <trkpt lat="45.07944" lon="6.1896">
        <ele>1702.4</ele>
        <time>2024-08-10T06:17:52Z</time>
      </trkpt>
      <trkpt lat="45.07944" lon="6.1896">
        <ele>1702.6</ele>
        <time>2024-08-10T06:17:53Z</time>
      </trkpt>
      <trkpt lat="45.07944" lon="6.1896">
        <ele>1702.8</ele>
        <time>2024-08-10T06:17:54Z</time>
      </trkpt>
      <trkpt lat="45.07945" lon="6.18964">
        <ele>1703</ele>
        <time>2024-08-10T06:17:55Z</time>
      </trkpt>
      <trkpt lat="45.07945" lon="6.18964">
        <ele>1703</ele>
        <time>2024-08-10T06:17:56Z</time>
      </trkpt>
      <trkpt lat="45.07945" lon="6.18967">
        <ele>1703.4</ele>
        <time>2024-08-10T06:17:57Z</time>
      </trkpt>
      <trkpt lat="45.07945" lon="6.18967">
        <ele>1703.6</ele>
        <time>2024-08-10T06:17:58Z</time>
      </trkpt>
      <trkpt lat="45.07944" lon="6.18969">
        <ele>1703.8</ele>
        <time>2024-08-10T06:17:59Z</time>
      </trkpt>
      <trkpt lat="45.07944" lon="6.18969">
        <ele>1703.8</ele>
        <time>2024-08-10T06:18:00Z</time>
      </trkpt>
      <trkpt lat="45.07944" lon="6.18972">
        <ele>1704</ele>
        <time>2024-08-10T06:18:01Z</time>
      </trkpt>
      <trkpt lat="45.07944" lon="6.18972">
        <ele>1704</ele>
        <time>2024-08-10T06:18:02Z</time>
      </trkpt>
      <trkpt lat="45.07944" lon="6.18972">
        <ele>1704.4</ele>
        <time>2024-08-10T06:18:03Z</time>
      </trkpt>
      <trkpt lat="45.07943" lon="6.18976">
        <ele>1704.4</ele>
        <time>2024-08-10T06:18:04Z</time>
      </trkpt>
      <trkpt lat="45.07943" lon="6.18976">
        <ele>1704.6</ele>
        <time>2024-08-10T06:18:05Z</time>
      </trkpt>
      <trkpt lat="45.07943" lon="6.18976">
        <ele>1704.8</ele>
        <time>2024-08-10T06:18:06Z</time>
      </trkpt>
      <trkpt lat="45.07943" lon="6.1898">
        <ele>1705</ele>
        <time>2024-08-10T06:18:07Z</time>
      </trkpt>
      <trkpt lat="45.07943" lon="6.1898">
        <ele>1705</ele>
        <time>2024-08-10T06:18:08Z</time>
      </trkpt>
      <trkpt lat="45.07943" lon="6.18983">
        <ele>1705.2</ele>
        <time>2024-08-10T06:18:09Z</time>
      </trkpt>
      <trkpt lat="45.07943" lon="6.18983">
        <ele>1705.2</ele>
        <time>2024-08-10T06:18:10Z</time>
      </trkpt>
      <trkpt lat="45.07943" lon="6.18986">
        <ele>1705.6</ele>
        <time>2024-08-10T06:18:11Z</time>
      </trkpt>
      <trkpt lat="45.07943" lon="6.18986">
        <ele>1705.8</ele>
        <time>2024-08-10T06:18:12Z</time>
      </trkpt>
      <trkpt lat="45.07943" lon="6.18989">
        <ele>1706</ele>
        <time>2024-08-10T06:18:13Z</time>
      </trkpt>
      <trkpt lat="45.07943" lon="6.18989">
        <ele>1706</ele>
        <time>2024-08-10T06:18:14Z</time>
      </trkpt>
      <trkpt lat="45.07943" lon="6.18992">
        <ele>1706.4</ele>
        <time>2024-08-10T06:18:15Z</time>
      </trkpt>
      <trkpt lat="45.07943" lon="6.18992">
        <ele>1706.8</ele>
        <time>2024-08-10T06:18:16Z</time>
      </trkpt>
      <trkpt lat="45.07943" lon="6.18995">
        <ele>1706.8</ele>
        <time>2024-08-10T06:18:17Z</time>
      </trkpt>
      <trkpt lat="45.07943" lon="6.18995">
        <ele>1706.8</ele>
        <time>2024-08-10T06:18:18Z</time>
      </trkpt>
      <trkpt lat="45.07943" lon="6.18998">
        <ele>1706.8</ele>
        <time>2024-08-10T06:18:19Z</time>
      </trkpt>
      <trkpt lat="45.07943" lon="6.18998">
        <ele>1707.2</ele>
        <time>2024-08-10T06:18:20Z</time>
      </trkpt>
      <trkpt lat="45.07943" lon="6.19001">
        <ele>1707.6</ele>
        <time>2024-08-10T06:18:21Z</time>
      </trkpt>
      <trkpt lat="45.07943" lon="6.19001">
        <ele>1707.6</ele>
        <time>2024-08-10T06:18:22Z</time>
      </trkpt>
      <trkpt lat="45.07943" lon="6.19004">
        <ele>1707.6</ele>
        <time>2024-08-10T06:18:23Z</time>
      </trkpt>
      <trkpt lat="45.07943" lon="6.19004">
        <ele>1708</ele>
        <time>2024-08-10T06:18:24Z</time>
      </trkpt>
      <trkpt lat="45.07943" lon="6.19006">
        <ele>1708.2</ele>
        <time>2024-08-10T06:18:25Z</time>
      </trkpt>
      <trkpt lat="45.07943" lon="6.19006">
        <ele>1708.4</ele>
        <time>2024-08-10T06:18:26Z</time>
      </trkpt>
      <trkpt lat="45.07943" lon="6.19006">
        <ele>1708.4</ele>
        <time>2024-08-10T06:18:27Z</time>
      </trkpt>
      <trkpt lat="45.07943" lon="6.1901">
        <ele>1708.6</ele>
        <time>2024-08-10T06:18:28Z</time>
      </trkpt>
      <trkpt lat="45.07943" lon="6.1901">
        <ele>1708.8</ele>
        <time>2024-08-10T06:18:29Z</time>
      </trkpt>
      <trkpt lat="45.07943" lon="6.19013">
        <ele>1708.8</ele>
        <time>2024-08-10T06:18:30Z</time>
      </trkpt>
      <trkpt lat="45.07943" lon="6.19013">
        <ele>1709</ele>
        <time>2024-08-10T06:18:31Z</time>
      </trkpt>
      <trkpt lat="45.07943" lon="6.19015">
        <ele>1709.2</ele>
        <time>2024-08-10T06:18:32Z</time>
      </trkpt>
      <trkpt lat="45.07943" lon="6.19015">
        <ele>1709.2</ele>
        <time>2024-08-10T06:18:33Z</time>
      </trkpt>
      <trkpt lat="45.07942" lon="6.19018">
        <ele>1709.6</ele>
        <time>2024-08-10T06:18:34Z</time>
      </trkpt>
      <trkpt lat="45.07942" lon="6.19018">
        <ele>1709.8</ele>
        <time>2024-08-10T06:18:35Z</time>
      </trkpt>
      <trkpt lat="45.07941" lon="6.19021">
        <ele>1709.8</ele>
        <time>2024-08-10T06:18:36Z</time>
      </trkpt>
      <trkpt lat="45.07941" lon="6.19021">
        <ele>1710</ele>
        <time>2024-08-10T06:18:37Z</time>
      </trkpt>
      <trkpt lat="45.0794" lon="6.19023">
        <ele>1710</ele>
        <time>2024-08-10T06:18:38Z</time>
      </trkpt>
      <trkpt lat="45.0794" lon="6.19023">
        <ele>1710.4</ele>
        <time>2024-08-10T06:18:39Z</time>
      </trkpt>
      <trkpt lat="45.0794" lon="6.19023">
        <ele>1710.6</ele>
        <time>2024-08-10T06:18:40Z</time>
      </trkpt>
      <trkpt lat="45.0794" lon="6.19026">
        <ele>1710.8</ele>
        <time>2024-08-10T06:18:41Z</time>
      </trkpt>
      <trkpt lat="45.0794" lon="6.19026">
        <ele>1710.8</ele>
        <time>2024-08-10T06:18:42Z</time>
      </trkpt>
      <trkpt lat="45.0794" lon="6.19026">
        <ele>1711</ele>
        <time>2024-08-10T06:18:43Z</time>
      </trkpt>
      <trkpt lat="45.07938" lon="6.19029">
        <ele>1711.2</ele>
        <time>2024-08-10T06:18:44Z</time>
      </trkpt>
      <trkpt lat="45.07938" lon="6.19029">
        <ele>1711.2</ele>
        <time>2024-08-10T06:18:45Z</time>
      </trkpt>
      <trkpt lat="45.07938" lon="6.19029">
        <ele>1711.2</ele>
        <time>2024-08-10T06:18:46Z</time>
      </trkpt>
      <trkpt lat="45.07938" lon="6.19033">
        <ele>1711.4</ele>
        <time>2024-08-10T06:18:47Z</time>
      </trkpt>
      <trkpt lat="45.07938" lon="6.19033">
        <ele>1711.8</ele>
        <time>2024-08-10T06:18:48Z</time>
      </trkpt>
      <trkpt lat="45.07938" lon="6.19033">
        <ele>1712</ele>
        <time>2024-08-10T06:18:49Z</time>
      </trkpt>
      <trkpt lat="45.07938" lon="6.19036">
        <ele>1712.4</ele>
        <time>2024-08-10T06:18:50Z</time>
      </trkpt>
      <trkpt lat="45.07938" lon="6.19036">
        <ele>1712.6</ele>
        <time>2024-08-10T06:18:51Z</time>
      </trkpt>
      <trkpt lat="45.07938" lon="6.19036">
        <ele>1712.8</ele>
        <time>2024-08-10T06:18:52Z</time>
      </trkpt>
      <trkpt lat="45.07938" lon="6.19039">
        <ele>1712.8</ele>
        <time>2024-08-10T06:18:53Z</time>
      </trkpt>
      <trkpt lat="45.07938" lon="6.19039">
        <ele>1713</ele>
        <time>2024-08-10T06:18:54Z</time>
      </trkpt>
      <trkpt lat="45.07938" lon="6.19039">
        <ele>1713.4</ele>
        <time>2024-08-10T06:18:55Z</time>
      </trkpt>
      <trkpt lat="45.07937" lon="6.19043">
        <ele>1713.6</ele>
        <time>2024-08-10T06:18:56Z</time>
      </trkpt>
      <trkpt lat="45.07937" lon="6.19043">
        <ele>1713.8</ele>
        <time>2024-08-10T06:18:57Z</time>
      </trkpt>
      <trkpt lat="45.07937" lon="6.19043">
        <ele>1714</ele>
        <time>2024-08-10T06:18:58Z</time>
      </trkpt>
      <trkpt lat="45.07937" lon="6.19046">
        <ele>1714.2</ele>
        <time>2024-08-10T06:18:59Z</time>
      </trkpt>
      <trkpt lat="45.07937" lon="6.19046">
        <ele>1714.2</ele>
        <time>2024-08-10T06:19:00Z</time>
      </trkpt>
      <trkpt lat="45.07937" lon="6.19046">
        <ele>1714.6</ele>
        <time>2024-08-10T06:19:01Z</time>
      </trkpt>
      <trkpt lat="45.07937" lon="6.19049">
        <ele>1714.6</ele>
        <time>2024-08-10T06:19:02Z</time>
      </trkpt>
      <trkpt lat="45.07937" lon="6.19049">
        <ele>1714.8</ele>
        <time>2024-08-10T06:19:03Z</time>
      </trkpt>
      <trkpt lat="45.07937" lon="6.19049">
        <ele>1715</ele>
        <time>2024-08-10T06:19:04Z</time>
      </trkpt>
      <trkpt lat="45.07937" lon="6.19052">
        <ele>1715.2</ele>
        <time>2024-08-10T06:19:05Z</time>
      </trkpt>
      <trkpt lat="45.07937" lon="6.19052">
        <ele>1715.2</ele>
        <time>2024-08-10T06:19:06Z</time>
      </trkpt>
      <trkpt lat="45.07937" lon="6.19052">
        <ele>1715.4</ele>
        <time>2024-08-10T06:19:07Z</time>
      </trkpt>
      <trkpt lat="45.07937" lon="6.19056">
        <ele>1715.6</ele>
        <time>2024-08-10T06:19:08Z</time>
      </trkpt>
      <trkpt lat="45.07937" lon="6.19056">
        <ele>1715.8</ele>
        <time>2024-08-10T06:19:09Z</time>
      </trkpt>
      <trkpt lat="45.07937" lon="6.19058">
        <ele>1716</ele>
        <time>2024-08-10T06:19:10Z</time>
      </trkpt>
      <trkpt lat="45.07937" lon="6.19058">
        <ele>1716.2</ele>
        <time>2024-08-10T06:19:11Z</time>
      </trkpt>
      <trkpt lat="45.07937" lon="6.19058">
        <ele>1716.4</ele>
        <time>2024-08-10T06:19:12Z</time>
      </trkpt>
      <trkpt lat="45.07937" lon="6.19062">
        <ele>1716.4</ele>
        <time>2024-08-10T06:19:13Z</time>
      </trkpt>
      <trkpt lat="45.07937" lon="6.19062">
        <ele>1716.8</ele>
        <time>2024-08-10T06:19:14Z</time>
      </trkpt>
      <trkpt lat="45.07937" lon="6.19062">
        <ele>1716.8</ele>
        <time>2024-08-10T06:19:15Z</time>
      </trkpt>
      <trkpt lat="45.07936" lon="6.19064">
        <ele>1717</ele>
        <time>2024-08-10T06:19:16Z</time>
      </trkpt>
      <trkpt lat="45.07936" lon="6.19064">
        <ele>1717</ele>
        <time>2024-08-10T06:19:17Z</time>
      </trkpt>
      <trkpt lat="45.07936" lon="6.19064">
        <ele>1717.2</ele>
        <time>2024-08-10T06:19:18Z</time>
      </trkpt>
      <trkpt lat="45.07936" lon="6.19067">
        <ele>1717.4</ele>
        <time>2024-08-10T06:19:19Z</time>
      </trkpt>
      <trkpt lat="45.07936" lon="6.19067">
        <ele>1717.8</ele>
        <time>2024-08-10T06:19:20Z</time>
      </trkpt>
      <trkpt lat="45.07936" lon="6.19067">
        <ele>1718</ele>
        <time>2024-08-10T06:19:21Z</time>
      </trkpt>
      <trkpt lat="45.07936" lon="6.19071">
        <ele>1718.2</ele>
        <time>2024-08-10T06:19:22Z</time>
      </trkpt>
      <trkpt lat="45.07936" lon="6.19071">
        <ele>1718.4</ele>
        <time>2024-08-10T06:19:23Z</time>
      </trkpt>
      <trkpt lat="45.07936" lon="6.19073">
        <ele>1718.6</ele>
        <time>2024-08-10T06:19:24Z</time>
      </trkpt>
      <trkpt lat="45.07936" lon="6.19073">
        <ele>1718.6</ele>
        <time>2024-08-10T06:19:25Z</time>
      </trkpt>
      <trkpt lat="45.07936" lon="6.19073">
        <ele>1718.8</ele>
        <time>2024-08-10T06:19:26Z</time>
      </trkpt>
      <trkpt lat="45.07935" lon="6.19076">
        <ele>1718.8</ele>
        <time>2024-08-10T06:19:27Z</time>
      </trkpt>
      <trkpt lat="45.07935" lon="6.19076">
        <ele>1719.2</ele>
        <time>2024-08-10T06:19:28Z</time>
      </trkpt>
      <trkpt lat="45.07935" lon="6.19076">
        <ele>1719.4</ele>
        <time>2024-08-10T06:19:29Z</time>
      </trkpt>
      <trkpt lat="45.07934" lon="6.19079">
        <ele>1719.4</ele>
        <time>2024-08-10T06:19:30Z</time>
      </trkpt>
      <trkpt lat="45.07934" lon="6.19079">
        <ele>1720</ele>
        <time>2024-08-10T06:19:31Z</time>
      </trkpt>
      <trkpt lat="45.07934" lon="6.19079">
        <ele>1720.2</ele>
        <time>2024-08-10T06:19:32Z</time>
      </trkpt>
      <trkpt lat="45.07933" lon="6.19082">
        <ele>1720.2</ele>
        <time>2024-08-10T06:19:33Z</time>
      </trkpt>
      <trkpt lat="45.07933" lon="6.19082">
        <ele>1720.6</ele>
        <time>2024-08-10T06:19:34Z</time>
      </trkpt>
      <trkpt lat="45.07933" lon="6.19082">
        <ele>1720.8</ele>
        <time>2024-08-10T06:19:35Z</time>
      </trkpt>
      <trkpt lat="45.07933" lon="6.19085">
        <ele>1720.8</ele>
        <time>2024-08-10T06:19:36Z</time>
      </trkpt>
      <trkpt lat="45.07933" lon="6.19085">
        <ele>1721.2</ele>
        <time>2024-08-10T06:19:37Z</time>
      </trkpt>
      <trkpt lat="45.07933" lon="6.19085">
        <ele>1721.4</ele>
        <time>2024-08-10T06:19:38Z</time>
      </trkpt>
      <trkpt lat="45.07933" lon="6.19088">
        <ele>1721.6</ele>
        <time>2024-08-10T06:19:39Z</time>
      </trkpt>
      <trkpt lat="45.07933" lon="6.19088">
        <ele>1722</ele>
        <time>2024-08-10T06:19:40Z</time>
      </trkpt>
      <trkpt lat="45.07933" lon="6.19088">
        <ele>1722</ele>
        <time>2024-08-10T06:19:41Z</time>
      </trkpt>
      <trkpt lat="45.07933" lon="6.19091">
        <ele>1722.2</ele>
        <time>2024-08-10T06:19:42Z</time>
      </trkpt>
      <trkpt lat="45.07933" lon="6.19091">
        <ele>1722.6</ele>
        <time>2024-08-10T06:19:43Z</time>
      </trkpt>
      <trkpt lat="45.07933" lon="6.19091">
        <ele>1722.8</ele>
        <time>2024-08-10T06:19:44Z</time>
      </trkpt>
      <trkpt lat="45.07933" lon="6.19094">
        <ele>1722.8</ele>
        <time>2024-08-10T06:19:45Z</time>
      </trkpt>
      <trkpt lat="45.07933" lon="6.19094">
        <ele>1723</ele>
        <time>2024-08-10T06:19:46Z</time>
      </trkpt>
      <trkpt lat="45.07933" lon="6.19094">
        <ele>1723.2</ele>
        <time>2024-08-10T06:19:47Z</time>
      </trkpt>
      <trkpt lat="45.07932" lon="6.19097">
        <ele>1723.4</ele>
        <time>2024-08-10T06:19:48Z</time>
      </trkpt>
      <trkpt lat="45.07932" lon="6.19097">
        <ele>1723.4</ele>
        <time>2024-08-10T06:19:49Z</time>
      </trkpt>
      <trkpt lat="45.07932" lon="6.19097">
        <ele>1723.6</ele>
        <time>2024-08-10T06:19:50Z</time>
      </trkpt>
      <trkpt lat="45.07932" lon="6.19101">
        <ele>1723.8</ele>
        <time>2024-08-10T06:19:51Z</time>
      </trkpt>
      <trkpt lat="45.07932" lon="6.19101">
        <ele>1723.8</ele>
        <time>2024-08-10T06:19:52Z</time>
      </trkpt>
      <trkpt lat="45.07932" lon="6.19101">
        <ele>1724</ele>
        <time>2024-08-10T06:19:53Z</time>
      </trkpt>
      <trkpt lat="45.07931" lon="6.19104">
        <ele>1724.2</ele>
        <time>2024-08-10T06:19:54Z</time>
      </trkpt>
      <trkpt lat="45.07931" lon="6.19104">
        <ele>1724.4</ele>
        <time>2024-08-10T06:19:55Z</time>
      </trkpt>
      <trkpt lat="45.07931" lon="6.19104">
        <ele>1724.4</ele>
        <time>2024-08-10T06:19:56Z</time>
      </trkpt>
      <trkpt lat="45.07931" lon="6.19107">
        <ele>1724.4</ele>
        <time>2024-08-10T06:19:57Z</time>
      </trkpt>
      <trkpt lat="45.07931" lon="6.19107">
        <ele>1724.8</ele>
        <time>2024-08-10T06:19:58Z</time>
      </trkpt>
      <trkpt lat="45.07931" lon="6.19107">
        <ele>1725</ele>
        <time>2024-08-10T06:19:59Z</time>
      </trkpt>
      <trkpt lat="45.07931" lon="6.19111">
        <ele>1725.2</ele>
        <time>2024-08-10T06:20:00Z</time>
      </trkpt>
      <trkpt lat="45.07931" lon="6.19111">
        <ele>1725.4</ele>
        <time>2024-08-10T06:20:01Z</time>
      </trkpt>
      <trkpt lat="45.0793" lon="6.19113">
        <ele>1725.8</ele>
        <time>2024-08-10T06:20:02Z</time>
      </trkpt>
      <trkpt lat="45.0793" lon="6.19113">
        <ele>1726</ele>
        <time>2024-08-10T06:20:03Z</time>
      </trkpt>
      <trkpt lat="45.0793" lon="6.19113">
        <ele>1726.2</ele>
        <time>2024-08-10T06:20:04Z</time>
      </trkpt>
      <trkpt lat="45.07929" lon="6.19116">
        <ele>1726.4</ele>
        <time>2024-08-10T06:20:05Z</time>
      </trkpt>
      <trkpt lat="45.07929" lon="6.19116">
        <ele>1726.4</ele>
        <time>2024-08-10T06:20:06Z</time>
      </trkpt>
      <trkpt lat="45.07928" lon="6.19118">
        <ele>1726.4</ele>
        <time>2024-08-10T06:20:07Z</time>
      </trkpt>
      <trkpt lat="45.07928" lon="6.19118">
        <ele>1726.4</ele>
        <time>2024-08-10T06:20:08Z</time>
      </trkpt>
      <trkpt lat="45.07928" lon="6.19118">
        <ele>1726.8</ele>
        <time>2024-08-10T06:20:09Z</time>
      </trkpt>
      <trkpt lat="45.07927" lon="6.19122">
        <ele>1727</ele>
        <time>2024-08-10T06:20:10Z</time>
      </trkpt>
      <trkpt lat="45.07927" lon="6.19122">
        <ele>1727.4</ele>
        <time>2024-08-10T06:20:11Z</time>
      </trkpt>
      <trkpt lat="45.07927" lon="6.19122">
        <ele>1727.6</ele>
        <time>2024-08-10T06:20:12Z</time>
      </trkpt>
      <trkpt lat="45.07927" lon="6.19125">
        <ele>1727.6</ele>
        <time>2024-08-10T06:20:13Z</time>
      </trkpt>
      <trkpt lat="45.07927" lon="6.19125">
        <ele>1727.6</ele>
        <time>2024-08-10T06:20:14Z</time>
      </trkpt>
      <trkpt lat="45.07927" lon="6.19125">
        <ele>1727.8</ele>
        <time>2024-08-10T06:20:15Z</time>
      </trkpt>
      <trkpt lat="45.07927" lon="6.19129">
        <ele>1728</ele>
        <time>2024-08-10T06:20:16Z</time>
      </trkpt>
      <trkpt lat="45.07927" lon="6.19129">
        <ele>1728.2</ele>
        <time>2024-08-10T06:20:17Z</time>
      </trkpt>
      <trkpt lat="45.07927" lon="6.19129">
        <ele>1728.4</ele>
        <time>2024-08-10T06:20:18Z</time>
      </trkpt>
      <trkpt lat="45.07928" lon="6.19132">
        <ele>1728.6</ele>
        <time>2024-08-10T06:20:19Z</time>
      </trkpt>
      <trkpt lat="45.07928" lon="6.19132">
        <ele>1728.8</ele>
        <time>2024-08-10T06:20:20Z</time>
      </trkpt>
      <trkpt lat="45.07927" lon="6.19135">
        <ele>1728.8</ele>
        <time>2024-08-10T06:20:21Z</time>
      </trkpt>
      <trkpt lat="45.07927" lon="6.19135">
        <ele>1728.8</ele>
        <time>2024-08-10T06:20:22Z</time>
      </trkpt>
      <trkpt lat="45.07927" lon="6.19135">
        <ele>1729</ele>
        <time>2024-08-10T06:20:23Z</time>
      </trkpt>
      <trkpt lat="45.07927" lon="6.19138">
        <ele>1729.4</ele>
        <time>2024-08-10T06:20:24Z</time>
      </trkpt>
      <trkpt lat="45.07927" lon="6.19138">
        <ele>1729.6</ele>
        <time>2024-08-10T06:20:25Z</time>
      </trkpt>
      <trkpt lat="45.07927" lon="6.19138">
        <ele>1729.6</ele>
        <time>2024-08-10T06:20:26Z</time>
      </trkpt>
      <trkpt lat="45.07925" lon="6.1914">
        <ele>1729.6</ele>
        <time>2024-08-10T06:20:27Z</time>
      </trkpt>
      <trkpt lat="45.07925" lon="6.1914">
        <ele>1729.8</ele>
        <time>2024-08-10T06:20:28Z</time>
      </trkpt>
      <trkpt lat="45.07925" lon="6.1914">
        <ele>1730.2</ele>
        <time>2024-08-10T06:20:29Z</time>
      </trkpt>
      <trkpt lat="45.07924" lon="6.19138">
        <ele>1730.4</ele>
        <time>2024-08-10T06:20:30Z</time>
      </trkpt>
      <trkpt lat="45.07924" lon="6.19138">
        <ele>1731</ele>
        <time>2024-08-10T06:20:31Z</time>
      </trkpt>
      <trkpt lat="45.07924" lon="6.19138">
        <ele>1731.2</ele>
        <time>2024-08-10T06:20:32Z</time>
      </trkpt>
      <trkpt lat="45.07924" lon="6.19138">
        <ele>1731.4</ele>
        <time>2024-08-10T06:20:33Z</time>
      </trkpt>
      <trkpt lat="45.07921" lon="6.19137">
        <ele>1731.6</ele>
        <time>2024-08-10T06:20:34Z</time>
      </trkpt>
      <trkpt lat="45.07921" lon="6.19137">
        <ele>1731.6</ele>
        <time>2024-08-10T06:20:35Z</time>
      </trkpt>
      <trkpt lat="45.07921" lon="6.19137">
        <ele>1731.8</ele>
        <time>2024-08-10T06:20:36Z</time>
      </trkpt>
      <trkpt lat="45.0792" lon="6.19139">
        <ele>1732</ele>
        <time>2024-08-10T06:20:37Z</time>
      </trkpt>
      <trkpt lat="45.0792" lon="6.19139">
        <ele>1732</ele>
        <time>2024-08-10T06:20:38Z</time>
      </trkpt>
      <trkpt lat="45.0792" lon="6.19139">
        <ele>1732.2</ele>
        <time>2024-08-10T06:20:39Z</time>
      </trkpt>
      <trkpt lat="45.0792" lon="6.19142">
        <ele>1732.6</ele>
        <time>2024-08-10T06:20:40Z</time>
      </trkpt>
      <trkpt lat="45.0792" lon="6.19142">
        <ele>1732.8</ele>
        <time>2024-08-10T06:20:41Z</time>
      </trkpt>
      <trkpt lat="45.0792" lon="6.19142">
        <ele>1732.8</ele>
        <time>2024-08-10T06:20:42Z</time>
      </trkpt>
      <trkpt lat="45.0792" lon="6.19142">
        <ele>1733.2</ele>
        <time>2024-08-10T06:20:43Z</time>
      </trkpt>
      <trkpt lat="45.0792" lon="6.19146">
        <ele>1733.2</ele>
        <time>2024-08-10T06:20:44Z</time>
      </trkpt>
      <trkpt lat="45.0792" lon="6.19146">
        <ele>1733.4</ele>
        <time>2024-08-10T06:20:45Z</time>
      </trkpt>
      <trkpt lat="45.0792" lon="6.19146">
        <ele>1734</ele>
        <time>2024-08-10T06:20:46Z</time>
      </trkpt>
      <trkpt lat="45.0792" lon="6.19149">
        <ele>1734.2</ele>
        <time>2024-08-10T06:20:47Z</time>
      </trkpt>
      <trkpt lat="45.0792" lon="6.19149">
        <ele>1734.2</ele>
        <time>2024-08-10T06:20:48Z</time>
      </trkpt>
      <trkpt lat="45.0792" lon="6.19149">
        <ele>1734.4</ele>
        <time>2024-08-10T06:20:49Z</time>
      </trkpt>
      <trkpt lat="45.0792" lon="6.19152">
        <ele>1734.4</ele>
        <time>2024-08-10T06:20:50Z</time>
      </trkpt>
      <trkpt lat="45.0792" lon="6.19152">
        <ele>1734.4</ele>
        <time>2024-08-10T06:20:51Z</time>
      </trkpt>
      <trkpt lat="45.0792" lon="6.19152">
        <ele>1734.6</ele>
        <time>2024-08-10T06:20:52Z</time>
      </trkpt>
      <trkpt lat="45.0792" lon="6.19155">
        <ele>1734.8</ele>
        <time>2024-08-10T06:20:53Z</time>
      </trkpt>
      <trkpt lat="45.0792" lon="6.19155">
        <ele>1735.2</ele>
        <time>2024-08-10T06:20:54Z</time>
      </trkpt>
      <trkpt lat="45.0792" lon="6.19155">
        <ele>1735.2</ele>
        <time>2024-08-10T06:20:55Z</time>
      </trkpt>
      <trkpt lat="45.07919" lon="6.19158">
        <ele>1735.4</ele>
        <time>2024-08-10T06:20:56Z</time>
      </trkpt>
      <trkpt lat="45.07919" lon="6.19158">
        <ele>1735.6</ele>
        <time>2024-08-10T06:20:57Z</time>
      </trkpt>
      <trkpt lat="45.07919" lon="6.19158">
        <ele>1735.8</ele>
        <time>2024-08-10T06:20:58Z</time>
      </trkpt>
      <trkpt lat="45.07918" lon="6.1916">
        <ele>1736</ele>
        <time>2024-08-10T06:20:59Z</time>
      </trkpt>
      <trkpt lat="45.07918" lon="6.1916">
        <ele>1736</ele>
        <time>2024-08-10T06:21:00Z</time>
      </trkpt>
      <trkpt lat="45.07919" lon="6.19163">
        <ele>1736.4</ele>
        <time>2024-08-10T06:21:01Z</time>
      </trkpt>
      <trkpt lat="45.07919" lon="6.19163">
        <ele>1736.4</ele>
        <time>2024-08-10T06:21:02Z</time>
      </trkpt>
      <trkpt lat="45.07919" lon="6.19163">
        <ele>1737</ele>
        <time>2024-08-10T06:21:03Z</time>
      </trkpt>
      <trkpt lat="45.07918" lon="6.19166">
        <ele>1737</ele>
        <time>2024-08-10T06:21:04Z</time>
      </trkpt>
      <trkpt lat="45.07918" lon="6.19166">
        <ele>1737.2</ele>
        <time>2024-08-10T06:21:05Z</time>
      </trkpt>
      <trkpt lat="45.07918" lon="6.19166">
        <ele>1737.4</ele>
        <time>2024-08-10T06:21:06Z</time>
      </trkpt>
      <trkpt lat="45.07918" lon="6.19169">
        <ele>1737.4</ele>
        <time>2024-08-10T06:21:07Z</time>
      </trkpt>
      <trkpt lat="45.07918" lon="6.19169">
        <ele>1737.4</ele>
        <time>2024-08-10T06:21:08Z</time>
      </trkpt>
      <trkpt lat="45.07917" lon="6.19172">
        <ele>1737.4</ele>
        <time>2024-08-10T06:21:09Z</time>
      </trkpt>
      <trkpt lat="45.07917" lon="6.19172">
        <ele>1737.8</ele>
        <time>2024-08-10T06:21:10Z</time>
      </trkpt>
      <trkpt lat="45.07916" lon="6.19174">
        <ele>1737.8</ele>
        <time>2024-08-10T06:21:11Z</time>
      </trkpt>
      <trkpt lat="45.07916" lon="6.19174">
        <ele>1738</ele>
        <time>2024-08-10T06:21:12Z</time>
      </trkpt>
      <trkpt lat="45.07916" lon="6.19176">
        <ele>1738</ele>
        <time>2024-08-10T06:21:13Z</time>
      </trkpt>
      <trkpt lat="45.07916" lon="6.19176">
        <ele>1738.2</ele>
        <time>2024-08-10T06:21:14Z</time>
      </trkpt>
      <trkpt lat="45.07916" lon="6.19176">
        <ele>1738.4</ele>
        <time>2024-08-10T06:21:15Z</time>
      </trkpt>
      <trkpt lat="45.07916" lon="6.1918">
        <ele>1738.4</ele>
        <time>2024-08-10T06:21:16Z</time>
      </trkpt>
      <trkpt lat="45.07916" lon="6.1918">
        <ele>1738.8</ele>
        <time>2024-08-10T06:21:17Z</time>
      </trkpt>
      <trkpt lat="45.07916" lon="6.1918">
        <ele>1739</ele>
        <time>2024-08-10T06:21:18Z</time>
      </trkpt>
      <trkpt lat="45.07914" lon="6.19183">
        <ele>1739.2</ele>
        <time>2024-08-10T06:21:19Z</time>
      </trkpt>
      <trkpt lat="45.07914" lon="6.19183">
        <ele>1739.4</ele>
        <time>2024-08-10T06:21:20Z</time>
      </trkpt>
      <trkpt lat="45.07914" lon="6.19183">
        <ele>1739.4</ele>
        <time>2024-08-10T06:21:21Z</time>
      </trkpt>
      <trkpt lat="45.07913" lon="6.19185">
        <ele>1739.6</ele>
        <time>2024-08-10T06:21:22Z</time>
      </trkpt>
      <trkpt lat="45.07913" lon="6.19185">
        <ele>1739.8</ele>
        <time>2024-08-10T06:21:23Z</time>
      </trkpt>
      <trkpt lat="45.07913" lon="6.19185">
        <ele>1740.2</ele>
        <time>2024-08-10T06:21:24Z</time>
      </trkpt>
      <trkpt lat="45.07912" lon="6.19187">
        <ele>1740.6</ele>
        <time>2024-08-10T06:21:25Z</time>
      </trkpt>
      <trkpt lat="45.07912" lon="6.19187">
        <ele>1740.8</ele>
        <time>2024-08-10T06:21:26Z</time>
      </trkpt>
      <trkpt lat="45.07912" lon="6.19187">
        <ele>1741</ele>
        <time>2024-08-10T06:21:27Z</time>
      </trkpt>
      <trkpt lat="45.07912" lon="6.19191">
        <ele>1741.2</ele>
        <time>2024-08-10T06:21:28Z</time>
      </trkpt>
      <trkpt lat="45.07912" lon="6.19191">
        <ele>1741.2</ele>
        <time>2024-08-10T06:21:29Z</time>
      </trkpt>
      <trkpt lat="45.07912" lon="6.19191">
        <ele>1741.2</ele>
        <time>2024-08-10T06:21:30Z</time>
      </trkpt>
      <trkpt lat="45.07912" lon="6.19194">
        <ele>1741.4</ele>
        <time>2024-08-10T06:21:31Z</time>
      </trkpt>
      <trkpt lat="45.07912" lon="6.19194">
        <ele>1741.6</ele>
        <time>2024-08-10T06:21:32Z</time>
      </trkpt>
      <trkpt lat="45.07912" lon="6.19197">
        <ele>1741.6</ele>
        <time>2024-08-10T06:21:33Z</time>
      </trkpt>
      <trkpt lat="45.07912" lon="6.19197">
        <ele>1741.8</ele>
        <time>2024-08-10T06:21:34Z</time>
      </trkpt>
      <trkpt lat="45.07912" lon="6.19197">
        <ele>1742</ele>
        <time>2024-08-10T06:21:35Z</time>
      </trkpt>
      <trkpt lat="45.07911" lon="6.19201">
        <ele>1742.2</ele>
        <time>2024-08-10T06:21:36Z</time>
      </trkpt>
      <trkpt lat="45.07911" lon="6.19201">
        <ele>1742.4</ele>
        <time>2024-08-10T06:21:37Z</time>
      </trkpt>
      <trkpt lat="45.07911" lon="6.19201">
        <ele>1742.4</ele>
        <time>2024-08-10T06:21:38Z</time>
      </trkpt>
      <trkpt lat="45.0791" lon="6.19205">
        <ele>1742.6</ele>
        <time>2024-08-10T06:21:39Z</time>
      </trkpt>
      <trkpt lat="45.0791" lon="6.19205">
        <ele>1742.6</ele>
        <time>2024-08-10T06:21:40Z</time>
      </trkpt>
      <trkpt lat="45.0791" lon="6.19205">
        <ele>1743</ele>
        <time>2024-08-10T06:21:41Z</time>
      </trkpt>
      <trkpt lat="45.07909" lon="6.19207">
        <ele>1743.2</ele>
        <time>2024-08-10T06:21:42Z</time>
      </trkpt>
      <trkpt lat="45.07909" lon="6.19207">
        <ele>1743.2</ele>
        <time>2024-08-10T06:21:43Z</time>
      </trkpt>
      <trkpt lat="45.07909" lon="6.19207">
        <ele>1743.6</ele>
        <time>2024-08-10T06:21:44Z</time>
      </trkpt>
      <trkpt lat="45.07909" lon="6.1921">
        <ele>1743.6</ele>
        <time>2024-08-10T06:21:45Z</time>
      </trkpt>
      <trkpt lat="45.07909" lon="6.1921">
        <ele>1743.8</ele>
        <time>2024-08-10T06:21:46Z</time>
      </trkpt>
      <trkpt lat="45.07909" lon="6.1921">
        <ele>1744</ele>
        <time>2024-08-10T06:21:47Z</time>
      </trkpt>
      <trkpt lat="45.07909" lon="6.19213">
        <ele>1744.4</ele>
        <time>2024-08-10T06:21:48Z</time>
      </trkpt>
      <trkpt lat="45.07909" lon="6.19213">
        <ele>1745.2</ele>
        <time>2024-08-10T06:21:49Z</time>
      </trkpt>
      <trkpt lat="45.07909" lon="6.19216">
        <ele>1745.2</ele>
        <time>2024-08-10T06:21:50Z</time>
      </trkpt>
      <trkpt lat="45.07909" lon="6.19216">
        <ele>1745.2</ele>
        <time>2024-08-10T06:21:51Z</time>
      </trkpt>
      <trkpt lat="45.07909" lon="6.19216">
        <ele>1745.4</ele>
        <time>2024-08-10T06:21:52Z</time>
      </trkpt>
      <trkpt lat="45.07909" lon="6.1922">
        <ele>1745.4</ele>
        <time>2024-08-10T06:21:53Z</time>
      </trkpt>
      <trkpt lat="45.07909" lon="6.1922">
        <ele>1745.4</ele>
        <time>2024-08-10T06:21:54Z</time>
      </trkpt>
      <trkpt lat="45.07909" lon="6.1922">
        <ele>1745.6</ele>
        <time>2024-08-10T06:21:55Z</time>
      </trkpt>
      <trkpt lat="45.07908" lon="6.19223">
        <ele>1745.8</ele>
        <time>2024-08-10T06:21:56Z</time>
      </trkpt>
      <trkpt lat="45.07908" lon="6.19223">
        <ele>1745.8</ele>
        <time>2024-08-10T06:21:57Z</time>
      </trkpt>
      <trkpt lat="45.07908" lon="6.19223">
        <ele>1746.2</ele>
        <time>2024-08-10T06:21:58Z</time>
      </trkpt>
      <trkpt lat="45.07907" lon="6.19227">
        <ele>1746.4</ele>
        <time>2024-08-10T06:21:59Z</time>
      </trkpt>
      <trkpt lat="45.07907" lon="6.19227">
        <ele>1746.4</ele>
        <time>2024-08-10T06:22:00Z</time>
      </trkpt>
      <trkpt lat="45.07907" lon="6.1923">
        <ele>1746.6</ele>
        <time>2024-08-10T06:22:01Z</time>
      </trkpt>
      <trkpt lat="45.07907" lon="6.1923">
        <ele>1746.6</ele>
        <time>2024-08-10T06:22:02Z</time>
      </trkpt>
      <trkpt lat="45.07906" lon="6.19232">
        <ele>1746.8</ele>
        <time>2024-08-10T06:22:03Z</time>
      </trkpt>
      <trkpt lat="45.07906" lon="6.19232">
        <ele>1747</ele>
        <time>2024-08-10T06:22:04Z</time>
      </trkpt>
      <trkpt lat="45.07906" lon="6.19235">
        <ele>1747.2</ele>
        <time>2024-08-10T06:22:05Z</time>
      </trkpt>
      <trkpt lat="45.07906" lon="6.19235">
        <ele>1747.4</ele>
        <time>2024-08-10T06:22:06Z</time>
      </trkpt>
      <trkpt lat="45.07906" lon="6.19238">
        <ele>1747.4</ele>
        <time>2024-08-10T06:22:07Z</time>
      </trkpt>
      <trkpt lat="45.07906" lon="6.19238">
        <ele>1747.6</ele>
        <time>2024-08-10T06:22:08Z</time>
      </trkpt>
      <trkpt lat="45.07907" lon="6.19241">
        <ele>1747.8</ele>
        <time>2024-08-10T06:22:09Z</time>
      </trkpt>
      <trkpt lat="45.07907" lon="6.19241">
        <ele>1748</ele>
        <time>2024-08-10T06:22:10Z</time>
      </trkpt>
      <trkpt lat="45.07907" lon="6.19244">
        <ele>1748.2</ele>
        <time>2024-08-10T06:22:11Z</time>
      </trkpt>
      <trkpt lat="45.07907" lon="6.19244">
        <ele>1748.2</ele>
        <time>2024-08-10T06:22:12Z</time>
      </trkpt>
      <trkpt lat="45.07907" lon="6.19247">
        <ele>1748.2</ele>
        <time>2024-08-10T06:22:13Z</time>
      </trkpt>
      <trkpt lat="45.07907" lon="6.19247">
        <ele>1748.4</ele>
        <time>2024-08-10T06:22:14Z</time>
      </trkpt>
      <trkpt lat="45.07907" lon="6.1925">
        <ele>1748.6</ele>
        <time>2024-08-10T06:22:15Z</time>
      </trkpt>
      <trkpt lat="45.07907" lon="6.1925">
        <ele>1748.8</ele>
        <time>2024-08-10T06:22:16Z</time>
      </trkpt>
      <trkpt lat="45.07907" lon="6.19253">
        <ele>1748.8</ele>
        <time>2024-08-10T06:22:17Z</time>
      </trkpt>
      <trkpt lat="45.07907" lon="6.19253">
        <ele>1748.8</ele>
        <time>2024-08-10T06:22:18Z</time>
      </trkpt>
      <trkpt lat="45.07907" lon="6.19255">
        <ele>1749.2</ele>
        <time>2024-08-10T06:22:19Z</time>
      </trkpt>
      <trkpt lat="45.07907" lon="6.19255">
        <ele>1749.2</ele>
        <time>2024-08-10T06:22:20Z</time>
      </trkpt>
      <trkpt lat="45.07907" lon="6.19259">
        <ele>1749.2</ele>
        <time>2024-08-10T06:22:21Z</time>
      </trkpt>
      <trkpt lat="45.07907" lon="6.19259">
        <ele>1749.4</ele>
        <time>2024-08-10T06:22:22Z</time>
      </trkpt>
      <trkpt lat="45.07907" lon="6.19261">
        <ele>1749.6</ele>
        <time>2024-08-10T06:22:23Z</time>
      </trkpt>
      <trkpt lat="45.07907" lon="6.19261">
        <ele>1750</ele>
        <time>2024-08-10T06:22:24Z</time>
      </trkpt>
      <trkpt lat="45.07908" lon="6.19264">
        <ele>1750</ele>
        <time>2024-08-10T06:22:25Z</time>
      </trkpt>
      <trkpt lat="45.07908" lon="6.19264">
        <ele>1750</ele>
        <time>2024-08-10T06:22:26Z</time>
      </trkpt>
      <trkpt lat="45.07907" lon="6.19267">
        <ele>1750.2</ele>
        <time>2024-08-10T06:22:27Z</time>
      </trkpt>
      <trkpt lat="45.07907" lon="6.19267">
        <ele>1750.2</ele>
        <time>2024-08-10T06:22:28Z</time>
      </trkpt>
      <trkpt lat="45.07907" lon="6.1927">
        <ele>1750.2</ele>
        <time>2024-08-10T06:22:29Z</time>
      </trkpt>
      <trkpt lat="45.07907" lon="6.1927">
        <ele>1750.6</ele>
        <time>2024-08-10T06:22:30Z</time>
      </trkpt>
      <trkpt lat="45.07907" lon="6.19273">
        <ele>1750.6</ele>
        <time>2024-08-10T06:22:31Z</time>
      </trkpt>
      <trkpt lat="45.07907" lon="6.19273">
        <ele>1750.6</ele>
        <time>2024-08-10T06:22:32Z</time>
      </trkpt>
      <trkpt lat="45.07906" lon="6.19276">
        <ele>1750.6</ele>
        <time>2024-08-10T06:22:33Z</time>
      </trkpt>
      <trkpt lat="45.07906" lon="6.19276">
        <ele>1750.8</ele>
        <time>2024-08-10T06:22:34Z</time>
      </trkpt>
      <trkpt lat="45.07906" lon="6.19276">
        <ele>1751</ele>
        <time>2024-08-10T06:22:35Z</time>
      </trkpt>
      <trkpt lat="45.07906" lon="6.1928">
        <ele>1751.2</ele>
        <time>2024-08-10T06:22:36Z</time>
      </trkpt>
      <trkpt lat="45.07906" lon="6.1928">
        <ele>1751.2</ele>
        <time>2024-08-10T06:22:37Z</time>
      </trkpt>
      <trkpt lat="45.07906" lon="6.19283">
        <ele>1751.6</ele>
        <time>2024-08-10T06:22:38Z</time>
      </trkpt>
      <trkpt lat="45.07906" lon="6.19283">
        <ele>1751.6</ele>
        <time>2024-08-10T06:22:39Z</time>
      </trkpt>
      <trkpt lat="45.07906" lon="6.19285">
        <ele>1751.6</ele>
        <time>2024-08-10T06:22:40Z</time>
      </trkpt>
      <trkpt lat="45.07906" lon="6.19285">
        <ele>1751.8</ele>
        <time>2024-08-10T06:22:41Z</time>
      </trkpt>
      <trkpt lat="45.07906" lon="6.19288">
        <ele>1752</ele>
        <time>2024-08-10T06:22:42Z</time>
      </trkpt>
      <trkpt lat="45.07906" lon="6.19288">
        <ele>1752.4</ele>
        <time>2024-08-10T06:22:43Z</time>
      </trkpt>
      <trkpt lat="45.07906" lon="6.19292">
        <ele>1752.4</ele>
        <time>2024-08-10T06:22:44Z</time>
      </trkpt>
      <trkpt lat="45.07906" lon="6.19292">
        <ele>1752.6</ele>
        <time>2024-08-10T06:22:45Z</time>
      </trkpt>
      <trkpt lat="45.07907" lon="6.19294">
        <ele>1752.6</ele>
        <time>2024-08-10T06:22:46Z</time>
      </trkpt>
      <trkpt lat="45.07907" lon="6.19294">
        <ele>1752.8</ele>
        <time>2024-08-10T06:22:47Z</time>
      </trkpt>
      <trkpt lat="45.07907" lon="6.19294">
        <ele>1753</ele>
        <time>2024-08-10T06:22:48Z</time>
      </trkpt>
      <trkpt lat="45.07908" lon="6.19298">
        <ele>1753.2</ele>
        <time>2024-08-10T06:22:49Z</time>
      </trkpt>
      <trkpt lat="45.07908" lon="6.19298">
        <ele>1753.4</ele>
        <time>2024-08-10T06:22:50Z</time>
      </trkpt>
      <trkpt lat="45.07908" lon="6.19301">
        <ele>1753.4</ele>
        <time>2024-08-10T06:22:51Z</time>
      </trkpt>
      <trkpt lat="45.07908" lon="6.19301">
        <ele>1753.6</ele>
        <time>2024-08-10T06:22:52Z</time>
      </trkpt>
      <trkpt lat="45.07907" lon="6.19304">
        <ele>1754</ele>
        <time>2024-08-10T06:22:53Z</time>
      </trkpt>
      <trkpt lat="45.07907" lon="6.19304">
        <ele>1754.2</ele>
        <time>2024-08-10T06:22:54Z</time>
      </trkpt>
      <trkpt lat="45.07907" lon="6.19307">
        <ele>1754.4</ele>
        <time>2024-08-10T06:22:55Z</time>
      </trkpt>
      <trkpt lat="45.07907" lon="6.19307">
        <ele>1754.4</ele>
        <time>2024-08-10T06:22:56Z</time>
      </trkpt>
      <trkpt lat="45.07906" lon="6.1931">
        <ele>1754.4</ele>
        <time>2024-08-10T06:22:57Z</time>
      </trkpt>
      <trkpt lat="45.07906" lon="6.1931">
        <ele>1754.8</ele>
        <time>2024-08-10T06:22:58Z</time>
      </trkpt>
      <trkpt lat="45.07906" lon="6.19312">
        <ele>1754.8</ele>
        <time>2024-08-10T06:22:59Z</time>
      </trkpt>
      <trkpt lat="45.07906" lon="6.19312">
        <ele>1755</ele>
        <time>2024-08-10T06:23:00Z</time>
      </trkpt>
      <trkpt lat="45.07906" lon="6.19315">
        <ele>1755</ele>
        <time>2024-08-10T06:23:01Z</time>
      </trkpt>
      <trkpt lat="45.07906" lon="6.19315">
        <ele>1755.2</ele>
        <time>2024-08-10T06:23:02Z</time>
      </trkpt>
      <trkpt lat="45.07906" lon="6.19318">
        <ele>1755.6</ele>
        <time>2024-08-10T06:23:03Z</time>
      </trkpt>
      <trkpt lat="45.07906" lon="6.19318">
        <ele>1755.6</ele>
        <time>2024-08-10T06:23:04Z</time>
      </trkpt>
      <trkpt lat="45.07906" lon="6.19321">
        <ele>1756</ele>
        <time>2024-08-10T06:23:05Z</time>
      </trkpt>
      <trkpt lat="45.07906" lon="6.19321">
        <ele>1756</ele>
        <time>2024-08-10T06:23:06Z</time>
      </trkpt>
      <trkpt lat="45.07906" lon="6.19324">
        <ele>1756</ele>
        <time>2024-08-10T06:23:07Z</time>
      </trkpt>
      <trkpt lat="45.07906" lon="6.19324">
        <ele>1756</ele>
        <time>2024-08-10T06:23:08Z</time>
      </trkpt>
      <trkpt lat="45.07906" lon="6.19327">
        <ele>1756.2</ele>
        <time>2024-08-10T06:23:09Z</time>
      </trkpt>
      <trkpt lat="45.07906" lon="6.19327">
        <ele>1756.4</ele>
        <time>2024-08-10T06:23:10Z</time>
      </trkpt>
      <trkpt lat="45.07906" lon="6.19327">
        <ele>1756.6</ele>
        <time>2024-08-10T06:23:11Z</time>
      </trkpt>
      <trkpt lat="45.07906" lon="6.19327">
        <ele>1756.8</ele>
        <time>2024-08-10T06:23:12Z</time>
      </trkpt>
      <trkpt lat="45.07906" lon="6.19327">
        <ele>1756.8</ele>
        <time>2024-08-10T06:23:13Z</time>
      </trkpt>
      <trkpt lat="45.07906" lon="6.19327">
        <ele>1756.8</ele>
        <time>2024-08-10T06:23:14Z</time>
      </trkpt>
      <trkpt lat="45.07906" lon="6.19327">
        <ele>1757</ele>
        <time>2024-08-10T06:23:15Z</time>
      </trkpt>
      <trkpt lat="45.07906" lon="6.19327">
        <ele>1756.8</ele>
        <time>2024-08-10T06:23:16Z</time>
      </trkpt>
      <trkpt lat="45.07904" lon="6.19329">
        <ele>1757</ele>
        <time>2024-08-10T06:23:17Z</time>
      </trkpt>
      <trkpt lat="45.07904" lon="6.19329">
        <ele>1757.2</ele>
        <time>2024-08-10T06:23:18Z</time>
      </trkpt>
      <trkpt lat="45.07904" lon="6.19332">
        <ele>1757.4</ele>
        <time>2024-08-10T06:23:19Z</time>
      </trkpt>
      <trkpt lat="45.07904" lon="6.19332">
        <ele>1757.4</ele>
        <time>2024-08-10T06:23:20Z</time>
      </trkpt>
      <trkpt lat="45.07902" lon="6.19335">
        <ele>1757.4</ele>
        <time>2024-08-10T06:23:21Z</time>
      </trkpt>
      <trkpt lat="45.07902" lon="6.19335">
        <ele>1757.8</ele>
        <time>2024-08-10T06:23:22Z</time>
      </trkpt>
      <trkpt lat="45.07902" lon="6.19335">
        <ele>1758.2</ele>
        <time>2024-08-10T06:23:23Z</time>
      </trkpt>
      <trkpt lat="45.07902" lon="6.19338">
        <ele>1758.2</ele>
        <time>2024-08-10T06:23:24Z</time>
      </trkpt>
      <trkpt lat="45.07902" lon="6.19338">
        <ele>1758.4</ele>
        <time>2024-08-10T06:23:25Z</time>
      </trkpt>
      <trkpt lat="45.07902" lon="6.19338">
        <ele>1758.6</ele>
        <time>2024-08-10T06:23:26Z</time>
      </trkpt>
      <trkpt lat="45.07902" lon="6.19341">
        <ele>1758.6</ele>
        <time>2024-08-10T06:23:27Z</time>
      </trkpt>
      <trkpt lat="45.07902" lon="6.19341">
        <ele>1758.6</ele>
        <time>2024-08-10T06:23:28Z</time>
      </trkpt>
      <trkpt lat="45.07902" lon="6.19341">
        <ele>1758.6</ele>
        <time>2024-08-10T06:23:29Z</time>
      </trkpt>
      <trkpt lat="45.07901" lon="6.19344">
        <ele>1759</ele>
        <time>2024-08-10T06:23:30Z</time>
      </trkpt>
      <trkpt lat="45.07901" lon="6.19344">
        <ele>1759</ele>
        <time>2024-08-10T06:23:31Z</time>
      </trkpt>
      <trkpt lat="45.079" lon="6.19346">
        <ele>1759.2</ele>
        <time>2024-08-10T06:23:32Z</time>
      </trkpt>
      <trkpt lat="45.079" lon="6.19346">
        <ele>1759.4</ele>
        <time>2024-08-10T06:23:33Z</time>
      </trkpt>
      <trkpt lat="45.079" lon="6.19346">
        <ele>1759.8</ele>
        <time>2024-08-10T06:23:34Z</time>
      </trkpt>
      <trkpt lat="45.079" lon="6.1935">
        <ele>1759.8</ele>
        <time>2024-08-10T06:23:35Z</time>
      </trkpt>
      <trkpt lat="45.079" lon="6.1935">
        <ele>1760</ele>
        <time>2024-08-10T06:23:36Z</time>
      </trkpt>
      <trkpt lat="45.079" lon="6.1935">
        <ele>1760</ele>
        <time>2024-08-10T06:23:37Z</time>
      </trkpt>
      <trkpt lat="45.079" lon="6.19353">
        <ele>1760.2</ele>
        <time>2024-08-10T06:23:38Z</time>
      </trkpt>
      <trkpt lat="45.079" lon="6.19353">
        <ele>1760.8</ele>
        <time>2024-08-10T06:23:39Z</time>
      </trkpt>
      <trkpt lat="45.079" lon="6.19353">
        <ele>1760.8</ele>
        <time>2024-08-10T06:23:40Z</time>
      </trkpt>
      <trkpt lat="45.079" lon="6.19353">
        <ele>1760.8</ele>
        <time>2024-08-10T06:23:41Z</time>
      </trkpt>
      <trkpt lat="45.07899" lon="6.19357">
        <ele>1760.8</ele>
        <time>2024-08-10T06:23:42Z</time>
      </trkpt>
      <trkpt lat="45.07899" lon="6.19357">
        <ele>1761.2</ele>
        <time>2024-08-10T06:23:43Z</time>
      </trkpt>
      <trkpt lat="45.07899" lon="6.19357">
        <ele>1761.4</ele>
        <time>2024-08-10T06:23:44Z</time>
      </trkpt>
      <trkpt lat="45.07899" lon="6.1936">
        <ele>1761.6</ele>
        <time>2024-08-10T06:23:45Z</time>
      </trkpt>
      <trkpt lat="45.07899" lon="6.1936">
        <ele>1761.8</ele>
        <time>2024-08-10T06:23:46Z</time>
      </trkpt>
      <trkpt lat="45.07899" lon="6.1936">
        <ele>1762</ele>
        <time>2024-08-10T06:23:47Z</time>
      </trkpt>
      <trkpt lat="45.07899" lon="6.19363">
        <ele>1762.4</ele>
        <time>2024-08-10T06:23:48Z</time>
      </trkpt>
      <trkpt lat="45.07899" lon="6.19363">
        <ele>1762.4</ele>
        <time>2024-08-10T06:23:49Z</time>
      </trkpt>
      <trkpt lat="45.07899" lon="6.19363">
        <ele>1762.8</ele>
        <time>2024-08-10T06:23:50Z</time>
      </trkpt>
      <trkpt lat="45.07899" lon="6.19365">
        <ele>1763</ele>
        <time>2024-08-10T06:23:51Z</time>
      </trkpt>
      <trkpt lat="45.07899" lon="6.19365">
        <ele>1763.2</ele>
        <time>2024-08-10T06:23:52Z</time>
      </trkpt>
      <trkpt lat="45.07899" lon="6.19365">
        <ele>1763.6</ele>
        <time>2024-08-10T06:23:53Z</time>
      </trkpt>
      <trkpt lat="45.07899" lon="6.19368">
        <ele>1763.8</ele>
        <time>2024-08-10T06:23:54Z</time>
      </trkpt>
      <trkpt lat="45.07899" lon="6.19368">
        <ele>1764</ele>
        <time>2024-08-10T06:23:55Z</time>
      </trkpt>
      <trkpt lat="45.07899" lon="6.19368">
        <ele>1764.2</ele>
        <time>2024-08-10T06:23:56Z</time>
      </trkpt>
      <trkpt lat="45.07899" lon="6.19372">
        <ele>1764.4</ele>
        <time>2024-08-10T06:23:57Z</time>
      </trkpt>
      <trkpt lat="45.07899" lon="6.19372">
        <ele>1764.4</ele>
        <time>2024-08-10T06:23:58Z</time>
      </trkpt>
      <trkpt lat="45.07899" lon="6.19372">
        <ele>1764.4</ele>
        <time>2024-08-10T06:23:59Z</time>
      </trkpt>
      <trkpt lat="45.07899" lon="6.19375">
        <ele>1764.6</ele>
        <time>2024-08-10T06:24:00Z</time>
      </trkpt>
      <trkpt lat="45.07899" lon="6.19375">
        <ele>1764.8</ele>
        <time>2024-08-10T06:24:01Z</time>
      </trkpt>
      <trkpt lat="45.07899" lon="6.19375">
        <ele>1765</ele>
        <time>2024-08-10T06:24:02Z</time>
      </trkpt>
      <trkpt lat="45.079" lon="6.19378">
        <ele>1765.6</ele>
        <time>2024-08-10T06:24:03Z</time>
      </trkpt>
      <trkpt lat="45.079" lon="6.19378">
        <ele>1765.6</ele>
        <time>2024-08-10T06:24:04Z</time>
      </trkpt>
      <trkpt lat="45.079" lon="6.19378">
        <ele>1765.6</ele>
        <time>2024-08-10T06:24:05Z</time>
      </trkpt>
      <trkpt lat="45.079" lon="6.1938">
        <ele>1765.8</ele>
        <time>2024-08-10T06:24:06Z</time>
      </trkpt>
      <trkpt lat="45.079" lon="6.1938">
        <ele>1766.2</ele>
        <time>2024-08-10T06:24:07Z</time>
      </trkpt>
      <trkpt lat="45.079" lon="6.1938">
        <ele>1766.4</ele>
        <time>2024-08-10T06:24:08Z</time>
      </trkpt>
      <trkpt lat="45.079" lon="6.19384">
        <ele>1766.4</ele>
        <time>2024-08-10T06:24:09Z</time>
      </trkpt>
      <trkpt lat="45.079" lon="6.19384">
        <ele>1766.6</ele>
        <time>2024-08-10T06:24:10Z</time>
      </trkpt>
      <trkpt lat="45.079" lon="6.19384">
        <ele>1766.8</ele>
        <time>2024-08-10T06:24:11Z</time>
      </trkpt>
      <trkpt lat="45.079" lon="6.19386">
        <ele>1767.2</ele>
        <time>2024-08-10T06:24:12Z</time>
      </trkpt>
      <trkpt lat="45.079" lon="6.19386">
        <ele>1767.6</ele>
        <time>2024-08-10T06:24:13Z</time>
      </trkpt>
      <trkpt lat="45.079" lon="6.19386">
        <ele>1767.8</ele>
        <time>2024-08-10T06:24:14Z</time>
      </trkpt>
      <trkpt lat="45.079" lon="6.19386">
        <ele>1768</ele>
        <time>2024-08-10T06:24:15Z</time>
      </trkpt>
      <trkpt lat="45.079" lon="6.19386">
        <ele>1768</ele>
        <time>2024-08-10T06:24:16Z</time>
      </trkpt>
      <trkpt lat="45.079" lon="6.19386">
        <ele>1768.2</ele>
        <time>2024-08-10T06:24:17Z</time>
      </trkpt>
      <trkpt lat="45.079" lon="6.19386">
        <ele>1768.2</ele>
        <time>2024-08-10T06:24:18Z</time>
      </trkpt>
      <trkpt lat="45.079" lon="6.19386">
        <ele>1768.4</ele>
        <time>2024-08-10T06:24:19Z</time>
      </trkpt>
      <trkpt lat="45.079" lon="6.19386">
        <ele>1768.4</ele>
        <time>2024-08-10T06:24:20Z</time>
      </trkpt>
      <trkpt lat="45.079" lon="6.19386">
        <ele>1768.4</ele>
        <time>2024-08-10T06:24:21Z</time>
      </trkpt>
      <trkpt lat="45.079" lon="6.19386">
        <ele>1768.4</ele>
        <time>2024-08-10T06:24:22Z</time>
      </trkpt>
      <trkpt lat="45.079" lon="6.19386">
        <ele>1768.2</ele>
        <time>2024-08-10T06:24:23Z</time>
      </trkpt>
      <trkpt lat="45.079" lon="6.19386">
        <ele>1768.2</ele>
        <time>2024-08-10T06:24:24Z</time>
      </trkpt>
      <trkpt lat="45.079" lon="6.19386">
        <ele>1768.4</ele>
        <time>2024-08-10T06:24:25Z</time>
      </trkpt>
      <trkpt lat="45.079" lon="6.19386">
        <ele>1768.4</ele>
        <time>2024-08-10T06:24:26Z</time>
      </trkpt>
      <trkpt lat="45.079" lon="6.19386">
        <ele>1768.4</ele>
        <time>2024-08-10T06:24:27Z</time>
      </trkpt>
      <trkpt lat="45.079" lon="6.19386">
        <ele>1768.4</ele>
        <time>2024-08-10T06:24:28Z</time>
      </trkpt>
      <trkpt lat="45.079" lon="6.19389">
        <ele>1768.4</ele>
        <time>2024-08-10T06:24:29Z</time>
      </trkpt>
      <trkpt lat="45.079" lon="6.19389">
        <ele>1768.4</ele>
        <time>2024-08-10T06:24:30Z</time>
      </trkpt>
      <trkpt lat="45.079" lon="6.19393">
        <ele>1768.6</ele>
        <time>2024-08-10T06:24:31Z</time>
      </trkpt>
      <trkpt lat="45.079" lon="6.19393">
        <ele>1768.8</ele>
        <time>2024-08-10T06:24:32Z</time>
      </trkpt>
      <trkpt lat="45.07899" lon="6.19396">
        <ele>1769.2</ele>
        <time>2024-08-10T06:24:33Z</time>
      </trkpt>
      <trkpt lat="45.07899" lon="6.19396">
        <ele>1769.2</ele>
        <time>2024-08-10T06:24:34Z</time>
      </trkpt>
      <trkpt lat="45.07899" lon="6.194">
        <ele>1769.2</ele>
        <time>2024-08-10T06:24:35Z</time>
      </trkpt>
      <trkpt lat="45.07899" lon="6.194">
        <ele>1769.2</ele>
        <time>2024-08-10T06:24:36Z</time>
      </trkpt>
      <trkpt lat="45.07899" lon="6.19402">
        <ele>1769.4</ele>
        <time>2024-08-10T06:24:37Z</time>
      </trkpt>
      <trkpt lat="45.07899" lon="6.19402">
        <ele>1769.6</ele>
        <time>2024-08-10T06:24:38Z</time>
      </trkpt>
      <trkpt lat="45.07899" lon="6.19402">
        <ele>1770.2</ele>
        <time>2024-08-10T06:24:39Z</time>
      </trkpt>
      <trkpt lat="45.07898" lon="6.19406">
        <ele>1770.2</ele>
        <time>2024-08-10T06:24:40Z</time>
      </trkpt>
      <trkpt lat="45.07898" lon="6.19406">
        <ele>1770.4</ele>
        <time>2024-08-10T06:24:41Z</time>
      </trkpt>
      <trkpt lat="45.07898" lon="6.19406">
        <ele>1770.4</ele>
        <time>2024-08-10T06:24:42Z</time>
      </trkpt>
      <trkpt lat="45.07898" lon="6.19409">
        <ele>1770.6</ele>
        <time>2024-08-10T06:24:43Z</time>
      </trkpt>
      <trkpt lat="45.07898" lon="6.19409">
        <ele>1770.6</ele>
        <time>2024-08-10T06:24:44Z</time>
      </trkpt>
      <trkpt lat="45.07898" lon="6.19409">
        <ele>1770.6</ele>
        <time>2024-08-10T06:24:45Z</time>
      </trkpt>
      <trkpt lat="45.07897" lon="6.19413">
        <ele>1771</ele>
        <time>2024-08-10T06:24:46Z</time>
      </trkpt>
      <trkpt lat="45.07897" lon="6.19413">
        <ele>1771.4</ele>
        <time>2024-08-10T06:24:47Z</time>
      </trkpt>
      <trkpt lat="45.07897" lon="6.19413">
        <ele>1771.4</ele>
        <time>2024-08-10T06:24:48Z</time>
      </trkpt>
      <trkpt lat="45.07897" lon="6.19416">
        <ele>1771.6</ele>
        <time>2024-08-10T06:24:49Z</time>
      </trkpt>
      <trkpt lat="45.07897" lon="6.19416">
        <ele>1771.8</ele>
        <time>2024-08-10T06:24:50Z</time>
      </trkpt>
      <trkpt lat="45.07897" lon="6.19416">
        <ele>1772</ele>
        <time>2024-08-10T06:24:51Z</time>
      </trkpt>
      <trkpt lat="45.07896" lon="6.19418">
        <ele>1772.2</ele>
        <time>2024-08-10T06:24:52Z</time>
      </trkpt>
      <trkpt lat="45.07896" lon="6.19418">
        <ele>1772.4</ele>
        <time>2024-08-10T06:24:53Z</time>
      </trkpt>
      <trkpt lat="45.07896" lon="6.19418">
        <ele>1772.6</ele>
        <time>2024-08-10T06:24:54Z</time>
      </trkpt>
      <trkpt lat="45.07895" lon="6.19421">
        <ele>1773</ele>
        <time>2024-08-10T06:24:55Z</time>
      </trkpt>
      <trkpt lat="45.07895" lon="6.19421">
        <ele>1773.2</ele>
        <time>2024-08-10T06:24:56Z</time>
      </trkpt>
      <trkpt lat="45.07895" lon="6.19421">
        <ele>1773.4</ele>
        <time>2024-08-10T06:24:57Z</time>
      </trkpt>
      <trkpt lat="45.07894" lon="6.19423">
        <ele>1773.4</ele>
        <time>2024-08-10T06:24:58Z</time>
      </trkpt>
      <trkpt lat="45.07894" lon="6.19423">
        <ele>1773.4</ele>
        <time>2024-08-10T06:24:59Z</time>
      </trkpt>
      <trkpt lat="45.07894" lon="6.19423">
        <ele>1773.6</ele>
        <time>2024-08-10T06:25:00Z</time>
      </trkpt>
      <trkpt lat="45.07894" lon="6.19426">
        <ele>1774</ele>
        <time>2024-08-10T06:25:01Z</time>
      </trkpt>
      <trkpt lat="45.07894" lon="6.19426">
        <ele>1774.6</ele>
        <time>2024-08-10T06:25:02Z</time>
      </trkpt>
      <trkpt lat="45.07894" lon="6.19426">
        <ele>1775.2</ele>
        <time>2024-08-10T06:25:03Z</time>
      </trkpt>
      <trkpt lat="45.07894" lon="6.19429">
        <ele>1775.2</ele>
        <time>2024-08-10T06:25:04Z</time>
      </trkpt>
      <trkpt lat="45.07894" lon="6.19429">
        <ele>1775.2</ele>
        <time>2024-08-10T06:25:05Z</time>
      </trkpt>
      <trkpt lat="45.07894" lon="6.19429">
        <ele>1775.4</ele>
        <time>2024-08-10T06:25:06Z</time>
      </trkpt>
      <trkpt lat="45.07894" lon="6.19429">
        <ele>1775.6</ele>
        <time>2024-08-10T06:25:07Z</time>
      </trkpt>
      <trkpt lat="45.07893" lon="6.19432">
        <ele>1775.6</ele>
        <time>2024-08-10T06:25:08Z</time>
      </trkpt>
      <trkpt lat="45.07893" lon="6.19432">
        <ele>1775.8</ele>
        <time>2024-08-10T06:25:09Z</time>
      </trkpt>
      <trkpt lat="45.07893" lon="6.19432">
        <ele>1776.2</ele>
        <time>2024-08-10T06:25:10Z</time>
      </trkpt>
      <trkpt lat="45.07893" lon="6.19432">
        <ele>1776.8</ele>
        <time>2024-08-10T06:25:11Z</time>
      </trkpt>
      <trkpt lat="45.07892" lon="6.19435">
        <ele>1776.8</ele>
        <time>2024-08-10T06:25:12Z</time>
      </trkpt>
      <trkpt lat="45.07892" lon="6.19435">
        <ele>1776.8</ele>
        <time>2024-08-10T06:25:13Z</time>
      </trkpt>
      <trkpt lat="45.07892" lon="6.19435">
        <ele>1776.8</ele>
        <time>2024-08-10T06:25:14Z</time>
      </trkpt>
      <trkpt lat="45.07892" lon="6.19435">
        <ele>1777.2</ele>
        <time>2024-08-10T06:25:15Z</time>
      </trkpt>
      <trkpt lat="45.07892" lon="6.19437">
        <ele>1777.6</ele>
        <time>2024-08-10T06:25:16Z</time>
      </trkpt>
      <trkpt lat="45.07892" lon="6.19437">
        <ele>1778.2</ele>
        <time>2024-08-10T06:25:17Z</time>
      </trkpt>
      <trkpt lat="45.07893" lon="6.1944">
        <ele>1778.2</ele>
        <time>2024-08-10T06:25:18Z</time>
      </trkpt>
      <trkpt lat="45.07893" lon="6.1944">
        <ele>1778.2</ele>
        <time>2024-08-10T06:25:19Z</time>
      </trkpt>
      <trkpt lat="45.07893" lon="6.19442">
        <ele>1778.4</ele>
        <time>2024-08-10T06:25:20Z</time>
      </trkpt>
      <trkpt lat="45.07893" lon="6.19442">
        <ele>1778.8</ele>
        <time>2024-08-10T06:25:21Z</time>
      </trkpt>
      <trkpt lat="45.07894" lon="6.19445">
        <ele>1778.8</ele>
        <time>2024-08-10T06:25:22Z</time>
      </trkpt>
      <trkpt lat="45.07894" lon="6.19445">
        <ele>1779</ele>
        <time>2024-08-10T06:25:23Z</time>
      </trkpt>
      <trkpt lat="45.07894" lon="6.19445">
        <ele>1779</ele>
        <time>2024-08-10T06:25:24Z</time>
      </trkpt>
      <trkpt lat="45.07894" lon="6.19449">
        <ele>1779</ele>
        <time>2024-08-10T06:25:25Z</time>
      </trkpt>
      <trkpt lat="45.07894" lon="6.19449">
        <ele>1779.4</ele>
        <time>2024-08-10T06:25:26Z</time>
      </trkpt>
      <trkpt lat="45.07894" lon="6.19449">
        <ele>1779.4</ele>
        <time>2024-08-10T06:25:27Z</time>
      </trkpt>
      <trkpt lat="45.07894" lon="6.19452">
        <ele>1779.4</ele>
        <time>2024-08-10T06:25:28Z</time>
      </trkpt>
      <trkpt lat="45.07894" lon="6.19452">
        <ele>1779.6</ele>
        <time>2024-08-10T06:25:29Z</time>
      </trkpt>
      <trkpt lat="45.07894" lon="6.19452">
        <ele>1779.8</ele>
        <time>2024-08-10T06:25:30Z</time>
      </trkpt>
      <trkpt lat="45.07894" lon="6.19455">
        <ele>1779.8</ele>
        <time>2024-08-10T06:25:31Z</time>
      </trkpt>
      <trkpt lat="45.07894" lon="6.19455">
        <ele>1780</ele>
        <time>2024-08-10T06:25:32Z</time>
      </trkpt>
      <trkpt lat="45.07894" lon="6.19455">
        <ele>1780</ele>
        <time>2024-08-10T06:25:33Z</time>
      </trkpt>
      <trkpt lat="45.07893" lon="6.19458">
        <ele>1780.6</ele>
        <time>2024-08-10T06:25:34Z</time>
      </trkpt>
      <trkpt lat="45.07893" lon="6.19458">
        <ele>1780.6</ele>
        <time>2024-08-10T06:25:35Z</time>
      </trkpt>
      <trkpt lat="45.07893" lon="6.19458">
        <ele>1780.8</ele>
        <time>2024-08-10T06:25:36Z</time>
      </trkpt>
      <trkpt lat="45.07893" lon="6.19462">
        <ele>1781.4</ele>
        <time>2024-08-10T06:25:37Z</time>
      </trkpt>
      <trkpt lat="45.07893" lon="6.19462">
        <ele>1781.4</ele>
        <time>2024-08-10T06:25:38Z</time>
      </trkpt>
      <trkpt lat="45.07893" lon="6.19462">
        <ele>1781.4</ele>
        <time>2024-08-10T06:25:39Z</time>
      </trkpt>
      <trkpt lat="45.07893" lon="6.19465">
        <ele>1782.2</ele>
        <time>2024-08-10T06:25:40Z</time>
      </trkpt>
      <trkpt lat="45.07893" lon="6.19465">
        <ele>1782.6</ele>
        <time>2024-08-10T06:25:41Z</time>
      </trkpt>
      <trkpt lat="45.07893" lon="6.19465">
        <ele>1782.6</ele>
        <time>2024-08-10T06:25:42Z</time>
      </trkpt>
      <trkpt lat="45.07893" lon="6.19469">
        <ele>1782.6</ele>
        <time>2024-08-10T06:25:43Z</time>
      </trkpt>
      <trkpt lat="45.07893" lon="6.19469">
        <ele>1782.6</ele>
        <time>2024-08-10T06:25:44Z</time>
      </trkpt>
      <trkpt lat="45.07893" lon="6.19469">
        <ele>1782.6</ele>
        <time>2024-08-10T06:25:45Z</time>
      </trkpt>
      <trkpt lat="45.07893" lon="6.19472">
        <ele>1782.8</ele>
        <time>2024-08-10T06:25:46Z</time>
      </trkpt>
      <trkpt lat="45.07893" lon="6.19472">
        <ele>1783</ele>
        <time>2024-08-10T06:25:47Z</time>
      </trkpt>
      <trkpt lat="45.07893" lon="6.19472">
        <ele>1783.2</ele>
        <time>2024-08-10T06:25:48Z</time>
      </trkpt>
      <trkpt lat="45.07892" lon="6.19474">
        <ele>1783.4</ele>
        <time>2024-08-10T06:25:49Z</time>
      </trkpt>
      <trkpt lat="45.07892" lon="6.19474">
        <ele>1783.6</ele>
        <time>2024-08-10T06:25:50Z</time>
      </trkpt>
      <trkpt lat="45.07892" lon="6.19474">
        <ele>1783.8</ele>
        <time>2024-08-10T06:25:51Z</time>
      </trkpt>
      <trkpt lat="45.07892" lon="6.19477">
        <ele>1784</ele>
        <time>2024-08-10T06:25:52Z</time>
      </trkpt>
      <trkpt lat="45.07892" lon="6.19477">
        <ele>1784</ele>
        <time>2024-08-10T06:25:53Z</time>
      </trkpt>
      <trkpt lat="45.07892" lon="6.19477">
        <ele>1784.4</ele>
        <time>2024-08-10T06:25:54Z</time>
      </trkpt>
      <trkpt lat="45.07892" lon="6.1948">
        <ele>1784.8</ele>
        <time>2024-08-10T06:25:55Z</time>
      </trkpt>
      <trkpt lat="45.07892" lon="6.1948">
        <ele>1784.8</ele>
        <time>2024-08-10T06:25:56Z</time>
      </trkpt>
      <trkpt lat="45.07892" lon="6.1948">
        <ele>1785</ele>
        <time>2024-08-10T06:25:57Z</time>
      </trkpt>
      <trkpt lat="45.07892" lon="6.19483">
        <ele>1785.2</ele>
        <time>2024-08-10T06:25:58Z</time>
      </trkpt>
      <trkpt lat="45.07892" lon="6.19483">
        <ele>1785.4</ele>
        <time>2024-08-10T06:25:59Z</time>
      </trkpt>
      <trkpt lat="45.07892" lon="6.19483">
        <ele>1785.8</ele>
        <time>2024-08-10T06:26:00Z</time>
      </trkpt>
      <trkpt lat="45.07891" lon="6.19486">
        <ele>1786</ele>
        <time>2024-08-10T06:26:01Z</time>
      </trkpt>
      <trkpt lat="45.07891" lon="6.19486">
        <ele>1786</ele>
        <time>2024-08-10T06:26:02Z</time>
      </trkpt>
      <trkpt lat="45.07891" lon="6.19486">
        <ele>1786.6</ele>
        <time>2024-08-10T06:26:03Z</time>
      </trkpt>
      <trkpt lat="45.0789" lon="6.19489">
        <ele>1786.6</ele>
        <time>2024-08-10T06:26:04Z</time>
      </trkpt>
      <trkpt lat="45.0789" lon="6.19489">
        <ele>1786.8</ele>
        <time>2024-08-10T06:26:05Z</time>
      </trkpt>
      <trkpt lat="45.0789" lon="6.19489">
        <ele>1787</ele>
        <time>2024-08-10T06:26:06Z</time>
      </trkpt>
      <trkpt lat="45.07889" lon="6.19492">
        <ele>1787.2</ele>
        <time>2024-08-10T06:26:07Z</time>
      </trkpt>
      <trkpt lat="45.07889" lon="6.19492">
        <ele>1787.4</ele>
        <time>2024-08-10T06:26:08Z</time>
      </trkpt>
      <trkpt lat="45.07889" lon="6.19492">
        <ele>1787.6</ele>
        <time>2024-08-10T06:26:09Z</time>
      </trkpt>
      <trkpt lat="45.07889" lon="6.19495">
        <ele>1787.8</ele>
        <time>2024-08-10T06:26:10Z</time>
      </trkpt>
      <trkpt lat="45.07889" lon="6.19495">
        <ele>1788</ele>
        <time>2024-08-10T06:26:11Z</time>
      </trkpt>
      <trkpt lat="45.07889" lon="6.19495">
        <ele>1788.2</ele>
        <time>2024-08-10T06:26:12Z</time>
      </trkpt>
      <trkpt lat="45.0789" lon="6.19499">
        <ele>1788.4</ele>
        <time>2024-08-10T06:26:13Z</time>
      </trkpt>
      <trkpt lat="45.0789" lon="6.19499">
        <ele>1788.8</ele>
        <time>2024-08-10T06:26:14Z</time>
      </trkpt>
      <trkpt lat="45.0789" lon="6.19499">
        <ele>1788.8</ele>
        <time>2024-08-10T06:26:15Z</time>
      </trkpt>
      <trkpt lat="45.07889" lon="6.19501">
        <ele>1788.8</ele>
        <time>2024-08-10T06:26:16Z</time>
      </trkpt>
      <trkpt lat="45.07889" lon="6.19501">
        <ele>1789</ele>
        <time>2024-08-10T06:26:17Z</time>
      </trkpt>
      <trkpt lat="45.07888" lon="6.19504">
        <ele>1789</ele>
        <time>2024-08-10T06:26:18Z</time>
      </trkpt>
      <trkpt lat="45.07888" lon="6.19504">
        <ele>1789.2</ele>
        <time>2024-08-10T06:26:19Z</time>
      </trkpt>
      <trkpt lat="45.07888" lon="6.19507">
        <ele>1789.6</ele>
        <time>2024-08-10T06:26:20Z</time>
      </trkpt>
      <trkpt lat="45.07888" lon="6.19507">
        <ele>1789.8</ele>
        <time>2024-08-10T06:26:21Z</time>
      </trkpt>
      <trkpt lat="45.07888" lon="6.19507">
        <ele>1790</ele>
        <time>2024-08-10T06:26:22Z</time>
      </trkpt>
      <trkpt lat="45.07887" lon="6.1951">
        <ele>1790</ele>
        <time>2024-08-10T06:26:23Z</time>
      </trkpt>
      <trkpt lat="45.07887" lon="6.1951">
        <ele>1790</ele>
        <time>2024-08-10T06:26:24Z</time>
      </trkpt>
      <trkpt lat="45.07887" lon="6.1951">
        <ele>1790.2</ele>
        <time>2024-08-10T06:26:25Z</time>
      </trkpt>
      <trkpt lat="45.07887" lon="6.1951">
        <ele>1790.6</ele>
        <time>2024-08-10T06:26:26Z</time>
      </trkpt>
      <trkpt lat="45.07886" lon="6.19513">
        <ele>1790.8</ele>
        <time>2024-08-10T06:26:27Z</time>
      </trkpt>
      <trkpt lat="45.07886" lon="6.19513">
        <ele>1790.8</ele>
        <time>2024-08-10T06:26:28Z</time>
      </trkpt>
      <trkpt lat="45.07886" lon="6.19513">
        <ele>1791</ele>
        <time>2024-08-10T06:26:29Z</time>
      </trkpt>
      <trkpt lat="45.07885" lon="6.19516">
        <ele>1791.2</ele>
        <time>2024-08-10T06:26:30Z</time>
      </trkpt>
      <trkpt lat="45.07885" lon="6.19516">
        <ele>1791.4</ele>
        <time>2024-08-10T06:26:31Z</time>
      </trkpt>
      <trkpt lat="45.07885" lon="6.19516">
        <ele>1791.8</ele>
        <time>2024-08-10T06:26:32Z</time>
      </trkpt>
      <trkpt lat="45.07885" lon="6.19519">
        <ele>1792</ele>
        <time>2024-08-10T06:26:33Z</time>
      </trkpt>
      <trkpt lat="45.07885" lon="6.19519">
        <ele>1792</ele>
        <time>2024-08-10T06:26:34Z</time>
      </trkpt>
      <trkpt lat="45.07885" lon="6.19519">
        <ele>1792</ele>
        <time>2024-08-10T06:26:35Z</time>
      </trkpt>
      <trkpt lat="45.07884" lon="6.19521">
        <ele>1792.4</ele>
        <time>2024-08-10T06:26:36Z</time>
      </trkpt>
      <trkpt lat="45.07884" lon="6.19521">
        <ele>1792.6</ele>
        <time>2024-08-10T06:26:37Z</time>
      </trkpt>
      <trkpt lat="45.07884" lon="6.19521">
        <ele>1792.6</ele>
        <time>2024-08-10T06:26:38Z</time>
      </trkpt>
      <trkpt lat="45.07882" lon="6.19523">
        <ele>1793</ele>
        <time>2024-08-10T06:26:39Z</time>
      </trkpt>
      <trkpt lat="45.07882" lon="6.19523">
        <ele>1793.2</ele>
        <time>2024-08-10T06:26:40Z</time>
      </trkpt>
      <trkpt lat="45.07882" lon="6.19523">
        <ele>1793.4</ele>
        <time>2024-08-10T06:26:41Z</time>
      </trkpt>
      <trkpt lat="45.0788" lon="6.19524">
        <ele>1793.6</ele>
        <time>2024-08-10T06:26:42Z</time>
      </trkpt>
      <trkpt lat="45.0788" lon="6.19524">
        <ele>1793.6</ele>
        <time>2024-08-10T06:26:43Z</time>
      </trkpt>
      <trkpt lat="45.0788" lon="6.19524">
        <ele>1793.6</ele>
        <time>2024-08-10T06:26:44Z</time>
      </trkpt>
      <trkpt lat="45.07879" lon="6.19527">
        <ele>1794.2</ele>
        <time>2024-08-10T06:26:45Z</time>
      </trkpt>
      <trkpt lat="45.07879" lon="6.19527">
        <ele>1794.6</ele>
        <time>2024-08-10T06:26:46Z</time>
      </trkpt>
      <trkpt lat="45.07879" lon="6.19527">
        <ele>1794.8</ele>
        <time>2024-08-10T06:26:47Z</time>
      </trkpt>
      <trkpt lat="45.07877" lon="6.19529">
        <ele>1795</ele>
        <time>2024-08-10T06:26:48Z</time>
      </trkpt>
      <trkpt lat="45.07877" lon="6.19529">
        <ele>1795.2</ele>
        <time>2024-08-10T06:26:49Z</time>
      </trkpt>
      <trkpt lat="45.07877" lon="6.19532">
        <ele>1795.4</ele>
        <time>2024-08-10T06:26:50Z</time>
      </trkpt>
      <trkpt lat="45.07877" lon="6.19532">
        <ele>1795.4</ele>
        <time>2024-08-10T06:26:51Z</time>
      </trkpt>
      <trkpt lat="45.07877" lon="6.19535">
        <ele>1795.4</ele>
        <time>2024-08-10T06:26:52Z</time>
      </trkpt>
      <trkpt lat="45.07877" lon="6.19535">
        <ele>1795.6</ele>
        <time>2024-08-10T06:26:53Z</time>
      </trkpt>
      <trkpt lat="45.07877" lon="6.19538">
        <ele>1795.6</ele>
        <time>2024-08-10T06:26:54Z</time>
      </trkpt>
      <trkpt lat="45.07877" lon="6.19538">
        <ele>1795.8</ele>
        <time>2024-08-10T06:26:55Z</time>
      </trkpt>
      <trkpt lat="45.07877" lon="6.19538">
        <ele>1795.8</ele>
        <time>2024-08-10T06:26:56Z</time>
      </trkpt>
      <trkpt lat="45.07878" lon="6.19541">
        <ele>1796</ele>
        <time>2024-08-10T06:26:57Z</time>
      </trkpt>
      <trkpt lat="45.07878" lon="6.19541">
        <ele>1796.2</ele>
        <time>2024-08-10T06:26:58Z</time>
      </trkpt>
      <trkpt lat="45.07878" lon="6.19541">
        <ele>1796.2</ele>
        <time>2024-08-10T06:26:59Z</time>
      </trkpt>
      <trkpt lat="45.0788" lon="6.19543">
        <ele>1796.4</ele>
        <time>2024-08-10T06:27:00Z</time>
      </trkpt>
      <trkpt lat="45.0788" lon="6.19543">
        <ele>1796.6</ele>
        <time>2024-08-10T06:27:01Z</time>
      </trkpt>
      <trkpt lat="45.07882" lon="6.19545">
        <ele>1797</ele>
        <time>2024-08-10T06:27:02Z</time>
      </trkpt>
      <trkpt lat="45.07882" lon="6.19545">
        <ele>1797</ele>
        <time>2024-08-10T06:27:03Z</time>
      </trkpt>
      <trkpt lat="45.07884" lon="6.19547">
        <ele>1797</ele>
        <time>2024-08-10T06:27:04Z</time>
      </trkpt>
      <trkpt lat="45.07884" lon="6.19547">
        <ele>1797.2</ele>
        <time>2024-08-10T06:27:05Z</time>
      </trkpt>
      <trkpt lat="45.07885" lon="6.19549">
        <ele>1797.4</ele>
        <time>2024-08-10T06:27:06Z</time>
      </trkpt>
      <trkpt lat="45.07885" lon="6.19549">
        <ele>1797.4</ele>
        <time>2024-08-10T06:27:07Z</time>
      </trkpt>
      <trkpt lat="45.07886" lon="6.19552">
        <ele>1797.4</ele>
        <time>2024-08-10T06:27:08Z</time>
      </trkpt>
      <trkpt lat="45.07886" lon="6.19552">
        <ele>1797.4</ele>
        <time>2024-08-10T06:27:09Z</time>
      </trkpt>
      <trkpt lat="45.07887" lon="6.19555">
        <ele>1797.4</ele>
        <time>2024-08-10T06:27:10Z</time>
      </trkpt>
      <trkpt lat="45.07887" lon="6.19555">
        <ele>1797.4</ele>
        <time>2024-08-10T06:27:11Z</time>
      </trkpt>
      <trkpt lat="45.07888" lon="6.19558">
        <ele>1797.4</ele>
        <time>2024-08-10T06:27:12Z</time>
      </trkpt>
      <trkpt lat="45.07888" lon="6.19558">
        <ele>1797.4</ele>
        <time>2024-08-10T06:27:13Z</time>
      </trkpt>
      <trkpt lat="45.07888" lon="6.19561">
        <ele>1797.6</ele>
        <time>2024-08-10T06:27:14Z</time>
      </trkpt>
      <trkpt lat="45.07888" lon="6.19561">
        <ele>1797.6</ele>
        <time>2024-08-10T06:27:15Z</time>
      </trkpt>
      <trkpt lat="45.07888" lon="6.19563">
        <ele>1797.6</ele>
        <time>2024-08-10T06:27:16Z</time>
      </trkpt>
      <trkpt lat="45.07888" lon="6.19563">
        <ele>1797.6</ele>
        <time>2024-08-10T06:27:17Z</time>
      </trkpt>
      <trkpt lat="45.07888" lon="6.19563">
        <ele>1797.4</ele>
        <time>2024-08-10T06:27:18Z</time>
      </trkpt>
      <trkpt lat="45.07888" lon="6.19567">
        <ele>1797.4</ele>
        <time>2024-08-10T06:27:19Z</time>
      </trkpt>
      <trkpt lat="45.07888" lon="6.19567">
        <ele>1797.6</ele>
        <time>2024-08-10T06:27:20Z</time>
      </trkpt>
      <trkpt lat="45.07888" lon="6.19567">
        <ele>1798</ele>
        <time>2024-08-10T06:27:21Z</time>
      </trkpt>
      <trkpt lat="45.07888" lon="6.1957">
        <ele>1798</ele>
        <time>2024-08-10T06:27:22Z</time>
      </trkpt>
      <trkpt lat="45.07888" lon="6.1957">
        <ele>1798.2</ele>
        <time>2024-08-10T06:27:23Z</time>
      </trkpt>
      <trkpt lat="45.07888" lon="6.1957">
        <ele>1798.6</ele>
        <time>2024-08-10T06:27:24Z</time>
      </trkpt>
      <trkpt lat="45.07888" lon="6.19574">
        <ele>1798.6</ele>
        <time>2024-08-10T06:27:25Z</time>
      </trkpt>
      <trkpt lat="45.07888" lon="6.19574">
        <ele>1798.8</ele>
        <time>2024-08-10T06:27:26Z</time>
      </trkpt>
      <trkpt lat="45.07889" lon="6.19577">
        <ele>1798.8</ele>
        <time>2024-08-10T06:27:27Z</time>
      </trkpt>
      <trkpt lat="45.07889" lon="6.19577">
        <ele>1799.2</ele>
        <time>2024-08-10T06:27:28Z</time>
      </trkpt>
      <trkpt lat="45.0789" lon="6.19579">
        <ele>1799.8</ele>
        <time>2024-08-10T06:27:29Z</time>
      </trkpt>
      <trkpt lat="45.0789" lon="6.19579">
        <ele>1799.8</ele>
        <time>2024-08-10T06:27:30Z</time>
      </trkpt>
      <trkpt lat="45.0789" lon="6.19582">
        <ele>1800</ele>
        <time>2024-08-10T06:27:31Z</time>
      </trkpt>
      <trkpt lat="45.0789" lon="6.19582">
        <ele>1800.4</ele>
        <time>2024-08-10T06:27:32Z</time>
      </trkpt>
      <trkpt lat="45.07891" lon="6.19584">
        <ele>1800.4</ele>
        <time>2024-08-10T06:27:33Z</time>
      </trkpt>
      <trkpt lat="45.07891" lon="6.19584">
        <ele>1799.8</ele>
        <time>2024-08-10T06:27:34Z</time>
      </trkpt>
      <trkpt lat="45.07892" lon="6.19587">
        <ele>1799.8</ele>
        <time>2024-08-10T06:27:35Z</time>
      </trkpt>
      <trkpt lat="45.07892" lon="6.19587">
        <ele>1800.2</ele>
        <time>2024-08-10T06:27:36Z</time>
      </trkpt>
      <trkpt lat="45.07892" lon="6.19589">
        <ele>1800.4</ele>
        <time>2024-08-10T06:27:37Z</time>
      </trkpt>
      <trkpt lat="45.07892" lon="6.19589">
        <ele>1800.6</ele>
        <time>2024-08-10T06:27:38Z</time>
      </trkpt>
      <trkpt lat="45.07892" lon="6.19589">
        <ele>1801</ele>
        <time>2024-08-10T06:27:39Z</time>
      </trkpt>
      <trkpt lat="45.07893" lon="6.19593">
        <ele>1801.2</ele>
        <time>2024-08-10T06:27:40Z</time>
      </trkpt>
      <trkpt lat="45.07893" lon="6.19593">
        <ele>1801.2</ele>
        <time>2024-08-10T06:27:41Z</time>
      </trkpt>
      <trkpt lat="45.07893" lon="6.19593">
        <ele>1801.2</ele>
        <time>2024-08-10T06:27:42Z</time>
      </trkpt>
      <trkpt lat="45.07893" lon="6.19597">
        <ele>1801.6</ele>
        <time>2024-08-10T06:27:43Z</time>
      </trkpt>
      <trkpt lat="45.07893" lon="6.19597">
        <ele>1801.8</ele>
        <time>2024-08-10T06:27:44Z</time>
      </trkpt>
      <trkpt lat="45.07893" lon="6.19597">
        <ele>1801.8</ele>
        <time>2024-08-10T06:27:45Z</time>
      </trkpt>
      <trkpt lat="45.0789" lon="6.19599">
        <ele>1801.8</ele>
        <time>2024-08-10T06:27:46Z</time>
      </trkpt>
      <trkpt lat="45.0789" lon="6.19599">
        <ele>1802.2</ele>
        <time>2024-08-10T06:27:47Z</time>
      </trkpt>
      <trkpt lat="45.07888" lon="6.19598">
        <ele>1802.2</ele>
        <time>2024-08-10T06:27:48Z</time>
      </trkpt>
      <trkpt lat="45.07888" lon="6.19598">
        <ele>1802.2</ele>
        <time>2024-08-10T06:27:49Z</time>
      </trkpt>
      <trkpt lat="45.07888" lon="6.19598">
        <ele>1802.6</ele>
        <time>2024-08-10T06:27:50Z</time>
      </trkpt>
      <trkpt lat="45.07886" lon="6.19596">
        <ele>1802.6</ele>
        <time>2024-08-10T06:27:51Z</time>
      </trkpt>
      <trkpt lat="45.07886" lon="6.19596">
        <ele>1802.8</ele>
        <time>2024-08-10T06:27:52Z</time>
      </trkpt>
      <trkpt lat="45.07886" lon="6.19596">
        <ele>1802.8</ele>
        <time>2024-08-10T06:27:53Z</time>
      </trkpt>
      <trkpt lat="45.07884" lon="6.19593">
        <ele>1803.4</ele>
        <time>2024-08-10T06:27:54Z</time>
      </trkpt>
      <trkpt lat="45.07884" lon="6.19593">
        <ele>1803.4</ele>
        <time>2024-08-10T06:27:55Z</time>
      </trkpt>
      <trkpt lat="45.07884" lon="6.19593">
        <ele>1803.6</ele>
        <time>2024-08-10T06:27:56Z</time>
      </trkpt>
      <trkpt lat="45.07883" lon="6.19591">
        <ele>1804.2</ele>
        <time>2024-08-10T06:27:57Z</time>
      </trkpt>
      <trkpt lat="45.07883" lon="6.19591">
        <ele>1804.2</ele>
        <time>2024-08-10T06:27:58Z</time>
      </trkpt>
      <trkpt lat="45.07883" lon="6.19591">
        <ele>1804.2</ele>
        <time>2024-08-10T06:27:59Z</time>
      </trkpt>
      <trkpt lat="45.07883" lon="6.19591">
        <ele>1804.2</ele>
        <time>2024-08-10T06:28:00Z</time>
      </trkpt>
      <trkpt lat="45.07883" lon="6.19591">
        <ele>1804.6</ele>
        <time>2024-08-10T06:28:01Z</time>
      </trkpt>
      <trkpt lat="45.07881" lon="6.19593">
        <ele>1804.8</ele>
        <time>2024-08-10T06:28:02Z</time>
      </trkpt>
      <trkpt lat="45.07881" lon="6.19593">
        <ele>1805.2</ele>
        <time>2024-08-10T06:28:03Z</time>
      </trkpt>
      <trkpt lat="45.07881" lon="6.19593">
        <ele>1805.2</ele>
        <time>2024-08-10T06:28:04Z</time>
      </trkpt>
      <trkpt lat="45.07881" lon="6.19593">
        <ele>1805.2</ele>
        <time>2024-08-10T06:28:05Z</time>
      </trkpt>
      <trkpt lat="45.07882" lon="6.19595">
        <ele>1805.8</ele>
        <time>2024-08-10T06:28:06Z</time>
      </trkpt>
      <trkpt lat="45.07882" lon="6.19595">
        <ele>1805.8</ele>
        <time>2024-08-10T06:28:07Z</time>
      </trkpt>
      <trkpt lat="45.07882" lon="6.19595">
        <ele>1805.8</ele>
        <time>2024-08-10T06:28:08Z</time>
      </trkpt>
      <trkpt lat="45.07882" lon="6.19598">
        <ele>1806</ele>
        <time>2024-08-10T06:28:09Z</time>
      </trkpt>
      <trkpt lat="45.07882" lon="6.19598">
        <ele>1806</ele>
        <time>2024-08-10T06:28:10Z</time>
      </trkpt>
      <trkpt lat="45.07882" lon="6.19598">
        <ele>1806.4</ele>
        <time>2024-08-10T06:28:11Z</time>
      </trkpt>
      <trkpt lat="45.07884" lon="6.19601">
        <ele>1806.8</ele>
        <time>2024-08-10T06:28:12Z</time>
      </trkpt>
      <trkpt lat="45.07884" lon="6.19601">
        <ele>1807.2</ele>
        <time>2024-08-10T06:28:13Z</time>
      </trkpt>
      <trkpt lat="45.07884" lon="6.19601">
        <ele>1807.2</ele>
        <time>2024-08-10T06:28:14Z</time>
      </trkpt>
      <trkpt lat="45.07884" lon="6.19605">
        <ele>1807.2</ele>
        <time>2024-08-10T06:28:15Z</time>
      </trkpt>
      <trkpt lat="45.07884" lon="6.19605">
        <ele>1807.2</ele>
        <time>2024-08-10T06:28:16Z</time>
      </trkpt>
      <trkpt lat="45.07884" lon="6.19605">
        <ele>1807.6</ele>
        <time>2024-08-10T06:28:17Z</time>
      </trkpt>
      <trkpt lat="45.07885" lon="6.19609">
        <ele>1808</ele>
        <time>2024-08-10T06:28:18Z</time>
      </trkpt>
      <trkpt lat="45.07885" lon="6.19609">
        <ele>1808</ele>
        <time>2024-08-10T06:28:19Z</time>
      </trkpt>
      <trkpt lat="45.07885" lon="6.19609">
        <ele>1808</ele>
        <time>2024-08-10T06:28:20Z</time>
      </trkpt>
      <trkpt lat="45.07885" lon="6.19612">
        <ele>1808</ele>
        <time>2024-08-10T06:28:21Z</time>
      </trkpt>
      <trkpt lat="45.07885" lon="6.19612">
        <ele>1808.2</ele>
        <time>2024-08-10T06:28:22Z</time>
      </trkpt>
      <trkpt lat="45.07885" lon="6.19612">
        <ele>1808.4</ele>
        <time>2024-08-10T06:28:23Z</time>
      </trkpt>
      <trkpt lat="45.07885" lon="6.19612">
        <ele>1808.6</ele>
        <time>2024-08-10T06:28:24Z</time>
      </trkpt>
      <trkpt lat="45.07885" lon="6.19616">
        <ele>1808.8</ele>
        <time>2024-08-10T06:28:25Z</time>
      </trkpt>
      <trkpt lat="45.07885" lon="6.19616">
        <ele>1809.2</ele>
        <time>2024-08-10T06:28:26Z</time>
      </trkpt>
      <trkpt lat="45.07885" lon="6.19616">
        <ele>1809.2</ele>
        <time>2024-08-10T06:28:27Z</time>
      </trkpt>
      <trkpt lat="45.07886" lon="6.19619">
        <ele>1809.2</ele>
        <time>2024-08-10T06:28:28Z</time>
      </trkpt>
      <trkpt lat="45.07886" lon="6.19619">
        <ele>1809.2</ele>
        <time>2024-08-10T06:28:29Z</time>
      </trkpt>
      <trkpt lat="45.07886" lon="6.19619">
        <ele>1809.6</ele>
        <time>2024-08-10T06:28:30Z</time>
      </trkpt>
      <trkpt lat="45.07886" lon="6.19622">
        <ele>1809.8</ele>
        <time>2024-08-10T06:28:31Z</time>
      </trkpt>
      <trkpt lat="45.07886" lon="6.19622">
        <ele>1810</ele>
        <time>2024-08-10T06:28:32Z</time>
      </trkpt>
      <trkpt lat="45.07887" lon="6.19625">
        <ele>1810.2</ele>
        <time>2024-08-10T06:28:33Z</time>
      </trkpt>
      <trkpt lat="45.07887" lon="6.19625">
        <ele>1810.2</ele>
        <time>2024-08-10T06:28:34Z</time>
      </trkpt>
      <trkpt lat="45.07887" lon="6.19625">
        <ele>1810.4</ele>
        <time>2024-08-10T06:28:35Z</time>
      </trkpt>
      <trkpt lat="45.07888" lon="6.19628">
        <ele>1810.6</ele>
        <time>2024-08-10T06:28:36Z</time>
      </trkpt>
      <trkpt lat="45.07888" lon="6.19628">
        <ele>1810.6</ele>
        <time>2024-08-10T06:28:37Z</time>
      </trkpt>
      <trkpt lat="45.07888" lon="6.19628">
        <ele>1811</ele>
        <time>2024-08-10T06:28:38Z</time>
      </trkpt>
      <trkpt lat="45.07888" lon="6.19631">
        <ele>1811.2</ele>
        <time>2024-08-10T06:28:39Z</time>
      </trkpt>
      <trkpt lat="45.07888" lon="6.19631">
        <ele>1811.4</ele>
        <time>2024-08-10T06:28:40Z</time>
      </trkpt>
      <trkpt lat="45.07888" lon="6.19631">
        <ele>1811.6</ele>
        <time>2024-08-10T06:28:41Z</time>
      </trkpt>
      <trkpt lat="45.07888" lon="6.19633">
        <ele>1811.8</ele>
        <time>2024-08-10T06:28:42Z</time>
      </trkpt>
      <trkpt lat="45.07888" lon="6.19633">
        <ele>1812.2</ele>
        <time>2024-08-10T06:28:43Z</time>
      </trkpt>
      <trkpt lat="45.07888" lon="6.19633">
        <ele>1812.4</ele>
        <time>2024-08-10T06:28:44Z</time>
      </trkpt>
      <trkpt lat="45.07888" lon="6.19637">
        <ele>1812.6</ele>
        <time>2024-08-10T06:28:45Z</time>
      </trkpt>
      <trkpt lat="45.07888" lon="6.19637">
        <ele>1812.8</ele>
        <time>2024-08-10T06:28:46Z</time>
      </trkpt>
      <trkpt lat="45.07888" lon="6.19637">
        <ele>1812.8</ele>
        <time>2024-08-10T06:28:47Z</time>
      </trkpt>
      <trkpt lat="45.07888" lon="6.1964">
        <ele>1812.8</ele>
        <time>2024-08-10T06:28:48Z</time>
      </trkpt>
      <trkpt lat="45.07888" lon="6.1964">
        <ele>1813.2</ele>
        <time>2024-08-10T06:28:49Z</time>
      </trkpt>
      <trkpt lat="45.07888" lon="6.1964">
        <ele>1813.4</ele>
        <time>2024-08-10T06:28:50Z</time>
      </trkpt>
      <trkpt lat="45.07888" lon="6.19643">
        <ele>1813.6</ele>
        <time>2024-08-10T06:28:51Z</time>
      </trkpt>
      <trkpt lat="45.07888" lon="6.19643">
        <ele>1813.6</ele>
        <time>2024-08-10T06:28:52Z</time>
      </trkpt>
      <trkpt lat="45.07888" lon="6.19643">
        <ele>1813.6</ele>
        <time>2024-08-10T06:28:53Z</time>
      </trkpt>
      <trkpt lat="45.07888" lon="6.19643">
        <ele>1814.2</ele>
        <time>2024-08-10T06:28:54Z</time>
      </trkpt>
      <trkpt lat="45.07888" lon="6.19646">
        <ele>1814.4</ele>
        <time>2024-08-10T06:28:55Z</time>
      </trkpt>
      <trkpt lat="45.07888" lon="6.19646">
        <ele>1814.6</ele>
        <time>2024-08-10T06:28:56Z</time>
      </trkpt>
      <trkpt lat="45.07888" lon="6.19646">
        <ele>1814.8</ele>
        <time>2024-08-10T06:28:57Z</time>
      </trkpt>
      <trkpt lat="45.07888" lon="6.19649">
        <ele>1815.2</ele>
        <time>2024-08-10T06:28:58Z</time>
      </trkpt>
      <trkpt lat="45.07888" lon="6.19649">
        <ele>1815.2</ele>
        <time>2024-08-10T06:28:59Z</time>
      </trkpt>
      <trkpt lat="45.07888" lon="6.19649">
        <ele>1815.2</ele>
        <time>2024-08-10T06:29:00Z</time>
      </trkpt>
      <trkpt lat="45.07888" lon="6.19649">
        <ele>1815.4</ele>
        <time>2024-08-10T06:29:01Z</time>
      </trkpt>
      <trkpt lat="45.07888" lon="6.19652">
        <ele>1815.4</ele>
        <time>2024-08-10T06:29:02Z</time>
      </trkpt>
      <trkpt lat="45.07888" lon="6.19652">
        <ele>1816.6</ele>
        <time>2024-08-10T06:29:03Z</time>
      </trkpt>
      <trkpt lat="45.07888" lon="6.19652">
        <ele>1816.6</ele>
        <time>2024-08-10T06:29:04Z</time>
      </trkpt>
      <trkpt lat="45.07888" lon="6.19652">
        <ele>1816.6</ele>
        <time>2024-08-10T06:29:05Z</time>
      </trkpt>
      <trkpt lat="45.07886" lon="6.19654">
        <ele>1816.6</ele>
        <time>2024-08-10T06:29:06Z</time>
      </trkpt>
      <trkpt lat="45.07886" lon="6.19654">
        <ele>1816.8</ele>
        <time>2024-08-10T06:29:07Z</time>
      </trkpt>
      <trkpt lat="45.07886" lon="6.19654">
        <ele>1816.8</ele>
        <time>2024-08-10T06:29:08Z</time>
      </trkpt>
      <trkpt lat="45.07885" lon="6.19654">
        <ele>1816.8</ele>
        <time>2024-08-10T06:29:09Z</time>
      </trkpt>
      <trkpt lat="45.07885" lon="6.19654">
        <ele>1817.4</ele>
        <time>2024-08-10T06:29:10Z</time>
      </trkpt>
      <trkpt lat="45.07885" lon="6.19654">
        <ele>1817.8</ele>
        <time>2024-08-10T06:29:11Z</time>
      </trkpt>
      <trkpt lat="45.07885" lon="6.19654">
        <ele>1817.8</ele>
        <time>2024-08-10T06:29:12Z</time>
      </trkpt>
      <trkpt lat="45.07883" lon="6.19651">
        <ele>1818.2</ele>
        <time>2024-08-10T06:29:13Z</time>
      </trkpt>
      <trkpt lat="45.07883" lon="6.19651">
        <ele>1818.4</ele>
        <time>2024-08-10T06:29:14Z</time>
      </trkpt>
      <trkpt lat="45.07883" lon="6.19651">
        <ele>1818.6</ele>
        <time>2024-08-10T06:29:15Z</time>
      </trkpt>
      <trkpt lat="45.07881" lon="6.19649">
        <ele>1818.8</ele>
        <time>2024-08-10T06:29:16Z</time>
      </trkpt>
      <trkpt lat="45.07881" lon="6.19649">
        <ele>1818.8</ele>
        <time>2024-08-10T06:29:17Z</time>
      </trkpt>
      <trkpt lat="45.07881" lon="6.19649">
        <ele>1819.2</ele>
        <time>2024-08-10T06:29:18Z</time>
      </trkpt>
      <trkpt lat="45.0788" lon="6.19648">
        <ele>1819.2</ele>
        <time>2024-08-10T06:29:19Z</time>
      </trkpt>
      <trkpt lat="45.0788" lon="6.19648">
        <ele>1819.2</ele>
        <time>2024-08-10T06:29:20Z</time>
      </trkpt>
      <trkpt lat="45.0788" lon="6.19648">
        <ele>1819.8</ele>
        <time>2024-08-10T06:29:21Z</time>
      </trkpt>
      <trkpt lat="45.07877" lon="6.19647">
        <ele>1819.8</ele>
        <time>2024-08-10T06:29:22Z</time>
      </trkpt>
      <trkpt lat="45.07877" lon="6.19647">
        <ele>1819.8</ele>
        <time>2024-08-10T06:29:23Z</time>
      </trkpt>
      <trkpt lat="45.07877" lon="6.19647">
        <ele>1819.8</ele>
        <time>2024-08-10T06:29:24Z</time>
      </trkpt>
      <trkpt lat="45.07877" lon="6.19647">
        <ele>1820.6</ele>
        <time>2024-08-10T06:29:25Z</time>
      </trkpt>
      <trkpt lat="45.07875" lon="6.19646">
        <ele>1820.8</ele>
        <time>2024-08-10T06:29:26Z</time>
      </trkpt>
      <trkpt lat="45.07875" lon="6.19646">
        <ele>1820.8</ele>
        <time>2024-08-10T06:29:27Z</time>
      </trkpt>
      <trkpt lat="45.07875" lon="6.19646">
        <ele>1821.2</ele>
        <time>2024-08-10T06:29:28Z</time>
      </trkpt>
      <trkpt lat="45.07873" lon="6.19644">
        <ele>1821.4</ele>
        <time>2024-08-10T06:29:29Z</time>
      </trkpt>
      <trkpt lat="45.07873" lon="6.19644">
        <ele>1821.4</ele>
        <time>2024-08-10T06:29:30Z</time>
      </trkpt>
      <trkpt lat="45.07873" lon="6.19644">
        <ele>1821.4</ele>
        <time>2024-08-10T06:29:31Z</time>
      </trkpt>
      <trkpt lat="45.07872" lon="6.19641">
        <ele>1821.6</ele>
        <time>2024-08-10T06:29:32Z</time>
      </trkpt>
      <trkpt lat="45.07872" lon="6.19641">
        <ele>1821.8</ele>
        <time>2024-08-10T06:29:33Z</time>
      </trkpt>
      <trkpt lat="45.07872" lon="6.19641">
        <ele>1822</ele>
        <time>2024-08-10T06:29:34Z</time>
      </trkpt>
      <trkpt lat="45.0787" lon="6.19639">
        <ele>1822.4</ele>
        <time>2024-08-10T06:29:35Z</time>
      </trkpt>
      <trkpt lat="45.0787" lon="6.19639">
        <ele>1822.4</ele>
        <time>2024-08-10T06:29:36Z</time>
      </trkpt>
      <trkpt lat="45.0787" lon="6.19639">
        <ele>1822.4</ele>
        <time>2024-08-10T06:29:37Z</time>
      </trkpt>
      <trkpt lat="45.07869" lon="6.19637">
        <ele>1822.4</ele>
        <time>2024-08-10T06:29:38Z</time>
      </trkpt>
      <trkpt lat="45.07869" lon="6.19637">
        <ele>1822.6</ele>
        <time>2024-08-10T06:29:39Z</time>
      </trkpt>
      <trkpt lat="45.07869" lon="6.19637">
        <ele>1823</ele>
        <time>2024-08-10T06:29:40Z</time>
      </trkpt>
      <trkpt lat="45.07869" lon="6.19637">
        <ele>1823</ele>
        <time>2024-08-10T06:29:41Z</time>
      </trkpt>
      <trkpt lat="45.07867" lon="6.19634">
        <ele>1823</ele>
        <time>2024-08-10T06:29:42Z</time>
      </trkpt>
      <trkpt lat="45.07867" lon="6.19634">
        <ele>1823.2</ele>
        <time>2024-08-10T06:29:43Z</time>
      </trkpt>
      <trkpt lat="45.07867" lon="6.19634">
        <ele>1823.6</ele>
        <time>2024-08-10T06:29:44Z</time>
      </trkpt>
      <trkpt lat="45.07865" lon="6.19633">
        <ele>1823.6</ele>
        <time>2024-08-10T06:29:45Z</time>
      </trkpt>
      <trkpt lat="45.07865" lon="6.19633">
        <ele>1823.8</ele>
        <time>2024-08-10T06:29:46Z</time>
      </trkpt>
      <trkpt lat="45.07865" lon="6.19633">
        <ele>1824</ele>
        <time>2024-08-10T06:29:47Z</time>
      </trkpt>
      <trkpt lat="45.07864" lon="6.19632">
        <ele>1824.2</ele>
        <time>2024-08-10T06:29:48Z</time>
      </trkpt>
      <trkpt lat="45.07864" lon="6.19632">
        <ele>1824.6</ele>
        <time>2024-08-10T06:29:49Z</time>
      </trkpt>
      <trkpt lat="45.07864" lon="6.19632">
        <ele>1824.8</ele>
        <time>2024-08-10T06:29:50Z</time>
      </trkpt>
      <trkpt lat="45.07864" lon="6.19632">
        <ele>1824.8</ele>
        <time>2024-08-10T06:29:51Z</time>
      </trkpt>
      <trkpt lat="45.07862" lon="6.1963">
        <ele>1825.2</ele>
        <time>2024-08-10T06:29:52Z</time>
      </trkpt>
      <trkpt lat="45.07862" lon="6.1963">
        <ele>1825.4</ele>
        <time>2024-08-10T06:29:53Z</time>
      </trkpt>
      <trkpt lat="45.07862" lon="6.1963">
        <ele>1825.4</ele>
        <time>2024-08-10T06:29:54Z</time>
      </trkpt>
      <trkpt lat="45.07862" lon="6.1963">
        <ele>1825.8</ele>
        <time>2024-08-10T06:29:55Z</time>
      </trkpt>
      <trkpt lat="45.0786" lon="6.19628">
        <ele>1826.4</ele>
        <time>2024-08-10T06:29:56Z</time>
      </trkpt>
      <trkpt lat="45.0786" lon="6.19628">
        <ele>1826.6</ele>
        <time>2024-08-10T06:29:57Z</time>
      </trkpt>
      <trkpt lat="45.0786" lon="6.19628">
        <ele>1826.8</ele>
        <time>2024-08-10T06:29:58Z</time>
      </trkpt>
      <trkpt lat="45.07859" lon="6.19626">
        <ele>1826.8</ele>
        <time>2024-08-10T06:29:59Z</time>
      </trkpt>
      <trkpt lat="45.07859" lon="6.19626">
        <ele>1827</ele>
        <time>2024-08-10T06:30:00Z</time>
      </trkpt>
      <trkpt lat="45.07859" lon="6.19626">
        <ele>1827</ele>
        <time>2024-08-10T06:30:01Z</time>
      </trkpt>
      <trkpt lat="45.07858" lon="6.19624">
        <ele>1827.2</ele>
        <time>2024-08-10T06:30:02Z</time>
      </trkpt>
      <trkpt lat="45.07858" lon="6.19624">
        <ele>1827.4</ele>
        <time>2024-08-10T06:30:03Z</time>
      </trkpt>
      <trkpt lat="45.07858" lon="6.19624">
        <ele>1827.4</ele>
        <time>2024-08-10T06:30:04Z</time>
      </trkpt>
      <trkpt lat="45.07856" lon="6.19622">
        <ele>1827.8</ele>
        <time>2024-08-10T06:30:05Z</time>
      </trkpt>
      <trkpt lat="45.07856" lon="6.19622">
        <ele>1827.8</ele>
        <time>2024-08-10T06:30:06Z</time>
      </trkpt>
      <trkpt lat="45.07856" lon="6.19622">
        <ele>1828</ele>
        <time>2024-08-10T06:30:07Z</time>
      </trkpt>
      <trkpt lat="45.07855" lon="6.1962">
        <ele>1828.2</ele>
        <time>2024-08-10T06:30:08Z</time>
      </trkpt>
      <trkpt lat="45.07855" lon="6.1962">
        <ele>1828.2</ele>
        <time>2024-08-10T06:30:09Z</time>
      </trkpt>
      <trkpt lat="45.07855" lon="6.1962">
        <ele>1828.4</ele>
        <time>2024-08-10T06:30:10Z</time>
      </trkpt>
      <trkpt lat="45.07853" lon="6.19618">
        <ele>1828.4</ele>
        <time>2024-08-10T06:30:11Z</time>
      </trkpt>
      <trkpt lat="45.07853" lon="6.19618">
        <ele>1828.6</ele>
        <time>2024-08-10T06:30:12Z</time>
      </trkpt>
      <trkpt lat="45.07853" lon="6.19618">
        <ele>1829</ele>
        <time>2024-08-10T06:30:13Z</time>
      </trkpt>
      <trkpt lat="45.07853" lon="6.19618">
        <ele>1829.6</ele>
        <time>2024-08-10T06:30:14Z</time>
      </trkpt>
      <trkpt lat="45.07852" lon="6.19616">
        <ele>1829.8</ele>
        <time>2024-08-10T06:30:15Z</time>
      </trkpt>
      <trkpt lat="45.07852" lon="6.19616">
        <ele>1830</ele>
        <time>2024-08-10T06:30:16Z</time>
      </trkpt>
      <trkpt lat="45.07852" lon="6.19616">
        <ele>1830</ele>
        <time>2024-08-10T06:30:17Z</time>
      </trkpt>
      <trkpt lat="45.0785" lon="6.19614">
        <ele>1830.2</ele>
        <time>2024-08-10T06:30:18Z</time>
      </trkpt>
      <trkpt lat="45.0785" lon="6.19614">
        <ele>1830.4</ele>
        <time>2024-08-10T06:30:19Z</time>
      </trkpt>
      <trkpt lat="45.0785" lon="6.19614">
        <ele>1830.6</ele>
        <time>2024-08-10T06:30:20Z</time>
      </trkpt>
      <trkpt lat="45.07848" lon="6.19611">
        <ele>1830.8</ele>
        <time>2024-08-10T06:30:21Z</time>
      </trkpt>
      <trkpt lat="45.07848" lon="6.19611">
        <ele>1831</ele>
        <time>2024-08-10T06:30:22Z</time>
      </trkpt>
      <trkpt lat="45.07848" lon="6.19611">
        <ele>1831</ele>
        <time>2024-08-10T06:30:23Z</time>
      </trkpt>
      <trkpt lat="45.07847" lon="6.19609">
        <ele>1831.2</ele>
        <time>2024-08-10T06:30:24Z</time>
      </trkpt>
      <trkpt lat="45.07847" lon="6.19609">
        <ele>1831.4</ele>
        <time>2024-08-10T06:30:25Z</time>
      </trkpt>
      <trkpt lat="45.07847" lon="6.19609">
        <ele>1831.4</ele>
        <time>2024-08-10T06:30:26Z</time>
      </trkpt>
      <trkpt lat="45.07845" lon="6.19606">
        <ele>1831.6</ele>
        <time>2024-08-10T06:30:27Z</time>
      </trkpt>
      <trkpt lat="45.07845" lon="6.19606">
        <ele>1831.8</ele>
        <time>2024-08-10T06:30:28Z</time>
      </trkpt>
      <trkpt lat="45.07844" lon="6.19604">
        <ele>1832</ele>
        <time>2024-08-10T06:30:29Z</time>
      </trkpt>
      <trkpt lat="45.07844" lon="6.19604">
        <ele>1832.2</ele>
        <time>2024-08-10T06:30:30Z</time>
      </trkpt>
      <trkpt lat="45.07844" lon="6.19604">
        <ele>1832.6</ele>
        <time>2024-08-10T06:30:31Z</time>
      </trkpt>
      <trkpt lat="45.07843" lon="6.196">
        <ele>1832.6</ele>
        <time>2024-08-10T06:30:32Z</time>
      </trkpt>
      <trkpt lat="45.07843" lon="6.196">
        <ele>1832.6</ele>
        <time>2024-08-10T06:30:33Z</time>
      </trkpt>
      <trkpt lat="45.07843" lon="6.196">
        <ele>1833</ele>
        <time>2024-08-10T06:30:34Z</time>
      </trkpt>
      <trkpt lat="45.07843" lon="6.19597">
        <ele>1833</ele>
        <time>2024-08-10T06:30:35Z</time>
      </trkpt>
      <trkpt lat="45.07843" lon="6.19597">
        <ele>1833.2</ele>
        <time>2024-08-10T06:30:36Z</time>
      </trkpt>
      <trkpt lat="45.07842" lon="6.19594">
        <ele>1833.6</ele>
        <time>2024-08-10T06:30:37Z</time>
      </trkpt>
      <trkpt lat="45.07842" lon="6.19594">
        <ele>1833.8</ele>
        <time>2024-08-10T06:30:38Z</time>
      </trkpt>
      <trkpt lat="45.07842" lon="6.19594">
        <ele>1834</ele>
        <time>2024-08-10T06:30:39Z</time>
      </trkpt>
      <trkpt lat="45.07841" lon="6.19591">
        <ele>1834.2</ele>
        <time>2024-08-10T06:30:40Z</time>
      </trkpt>
      <trkpt lat="45.07841" lon="6.19591">
        <ele>1834.6</ele>
        <time>2024-08-10T06:30:41Z</time>
      </trkpt>
      <trkpt lat="45.07841" lon="6.19591">
        <ele>1834.8</ele>
        <time>2024-08-10T06:30:42Z</time>
      </trkpt>
      <trkpt lat="45.0784" lon="6.19588">
        <ele>1834.8</ele>
        <time>2024-08-10T06:30:43Z</time>
      </trkpt>
      <trkpt lat="45.0784" lon="6.19588">
        <ele>1835</ele>
        <time>2024-08-10T06:30:44Z</time>
      </trkpt>
      <trkpt lat="45.0784" lon="6.19588">
        <ele>1835.2</ele>
        <time>2024-08-10T06:30:45Z</time>
      </trkpt>
      <trkpt lat="45.0784" lon="6.19585">
        <ele>1835.4</ele>
        <time>2024-08-10T06:30:46Z</time>
      </trkpt>
      <trkpt lat="45.0784" lon="6.19585">
        <ele>1835.4</ele>
        <time>2024-08-10T06:30:47Z</time>
      </trkpt>
      <trkpt lat="45.0784" lon="6.19585">
        <ele>1835.8</ele>
        <time>2024-08-10T06:30:48Z</time>
      </trkpt>
      <trkpt lat="45.07838" lon="6.19582">
        <ele>1835.8</ele>
        <time>2024-08-10T06:30:49Z</time>
      </trkpt>
      <trkpt lat="45.07838" lon="6.19582">
        <ele>1836</ele>
        <time>2024-08-10T06:30:50Z</time>
      </trkpt>
      <trkpt lat="45.07838" lon="6.19582">
        <ele>1836.2</ele>
        <time>2024-08-10T06:30:51Z</time>
      </trkpt>
      <trkpt lat="45.07838" lon="6.19582">
        <ele>1836.4</ele>
        <time>2024-08-10T06:30:52Z</time>
      </trkpt>
      <trkpt lat="45.07837" lon="6.19582">
        <ele>1836.4</ele>
        <time>2024-08-10T06:30:53Z</time>
      </trkpt>
      <trkpt lat="45.07837" lon="6.19582">
        <ele>1836.4</ele>
        <time>2024-08-10T06:30:54Z</time>
      </trkpt>
      <trkpt lat="45.07837" lon="6.19582">
        <ele>1836.8</ele>
        <time>2024-08-10T06:30:55Z</time>
      </trkpt>
      <trkpt lat="45.07837" lon="6.19582">
        <ele>1837.4</ele>
        <time>2024-08-10T06:30:56Z</time>
      </trkpt>
      <trkpt lat="45.07837" lon="6.19582">
        <ele>1837.4</ele>
        <time>2024-08-10T06:30:57Z</time>
      </trkpt>
      <trkpt lat="45.07836" lon="6.19585">
        <ele>1837.6</ele>
        <time>2024-08-10T06:30:58Z</time>
      </trkpt>
      <trkpt lat="45.07836" lon="6.19585">
        <ele>1838</ele>
        <time>2024-08-10T06:30:59Z</time>
      </trkpt>
      <trkpt lat="45.07836" lon="6.19585">
        <ele>1838.2</ele>
        <time>2024-08-10T06:31:00Z</time>
      </trkpt>
      <trkpt lat="45.07836" lon="6.19585">
        <ele>1838.2</ele>
        <time>2024-08-10T06:31:01Z</time>
      </trkpt>
      <trkpt lat="45.07836" lon="6.19585">
        <ele>1838.2</ele>
        <time>2024-08-10T06:31:02Z</time>
      </trkpt>
      <trkpt lat="45.07836" lon="6.19585">
        <ele>1838.8</ele>
        <time>2024-08-10T06:31:03Z</time>
      </trkpt>
      <trkpt lat="45.07836" lon="6.19585">
        <ele>1838.8</ele>
        <time>2024-08-10T06:31:04Z</time>
      </trkpt>
      <trkpt lat="45.07834" lon="6.19585">
        <ele>1839</ele>
        <time>2024-08-10T06:31:05Z</time>
      </trkpt>
      <trkpt lat="45.07834" lon="6.19585">
        <ele>1839</ele>
        <time>2024-08-10T06:31:06Z</time>
      </trkpt>
      <trkpt lat="45.07834" lon="6.19585">
        <ele>1839.4</ele>
        <time>2024-08-10T06:31:07Z</time>
      </trkpt>
      <trkpt lat="45.07834" lon="6.19585">
        <ele>1839.6</ele>
        <time>2024-08-10T06:31:08Z</time>
      </trkpt>
      <trkpt lat="45.07834" lon="6.19585">
        <ele>1839.8</ele>
        <time>2024-08-10T06:31:09Z</time>
      </trkpt>
      <trkpt lat="45.07834" lon="6.19585">
        <ele>1840.2</ele>
        <time>2024-08-10T06:31:10Z</time>
      </trkpt>
      <trkpt lat="45.07834" lon="6.19585">
        <ele>1840.2</ele>
        <time>2024-08-10T06:31:11Z</time>
      </trkpt>
      <trkpt lat="45.07834" lon="6.19585">
        <ele>1840.6</ele>
        <time>2024-08-10T06:31:12Z</time>
      </trkpt>
      <trkpt lat="45.07834" lon="6.19585">
        <ele>1840.8</ele>
        <time>2024-08-10T06:31:13Z</time>
      </trkpt>
      <trkpt lat="45.07832" lon="6.19584">
        <ele>1840.8</ele>
        <time>2024-08-10T06:31:14Z</time>
      </trkpt>
      <trkpt lat="45.07832" lon="6.19584">
        <ele>1840.8</ele>
        <time>2024-08-10T06:31:15Z</time>
      </trkpt>
      <trkpt lat="45.0783" lon="6.1958">
        <ele>1841</ele>
        <time>2024-08-10T06:31:16Z</time>
      </trkpt>
      <trkpt lat="45.07828" lon="6.19578">
        <ele>1841.2</ele>
        <time>2024-08-10T06:31:17Z</time>
      </trkpt>
      <trkpt lat="45.07828" lon="6.19578">
        <ele>1841.2</ele>
        <time>2024-08-10T06:31:18Z</time>
      </trkpt>
      <trkpt lat="45.07827" lon="6.19575">
        <ele>1841.2</ele>
        <time>2024-08-10T06:31:19Z</time>
      </trkpt>
      <trkpt lat="45.07827" lon="6.19575">
        <ele>1841.8</ele>
        <time>2024-08-10T06:31:20Z</time>
      </trkpt>
      <trkpt lat="45.07826" lon="6.19572">
        <ele>1842</ele>
        <time>2024-08-10T06:31:21Z</time>
      </trkpt>
      <trkpt lat="45.07826" lon="6.19572">
        <ele>1842.2</ele>
        <time>2024-08-10T06:31:22Z</time>
      </trkpt>
      <trkpt lat="45.07826" lon="6.1957">
        <ele>1842.4</ele>
        <time>2024-08-10T06:31:23Z</time>
      </trkpt>
      <trkpt lat="45.07826" lon="6.1957">
        <ele>1842.6</ele>
        <time>2024-08-10T06:31:24Z</time>
      </trkpt>
      <trkpt lat="45.07826" lon="6.1957">
        <ele>1842.8</ele>
        <time>2024-08-10T06:31:25Z</time>
      </trkpt>
      <trkpt lat="45.07825" lon="6.19567">
        <ele>1843</ele>
        <time>2024-08-10T06:31:26Z</time>
      </trkpt>
      <trkpt lat="45.07825" lon="6.19567">
        <ele>1843</ele>
        <time>2024-08-10T06:31:27Z</time>
      </trkpt>
      <trkpt lat="45.07825" lon="6.19567">
        <ele>1843.2</ele>
        <time>2024-08-10T06:31:28Z</time>
      </trkpt>
      <trkpt lat="45.07823" lon="6.19563">
        <ele>1843.2</ele>
        <time>2024-08-10T06:31:29Z</time>
      </trkpt>
      <trkpt lat="45.07823" lon="6.19563">
        <ele>1843.6</ele>
        <time>2024-08-10T06:31:30Z</time>
      </trkpt>
      <trkpt lat="45.07823" lon="6.19563">
        <ele>1843.8</ele>
        <time>2024-08-10T06:31:31Z</time>
      </trkpt>
      <trkpt lat="45.07821" lon="6.19561">
        <ele>1843.8</ele>
        <time>2024-08-10T06:31:32Z</time>
      </trkpt>
      <trkpt lat="45.07821" lon="6.19561">
        <ele>1843.8</ele>
        <time>2024-08-10T06:31:33Z</time>
      </trkpt>
      <trkpt lat="45.07821" lon="6.19561">
        <ele>1843.8</ele>
        <time>2024-08-10T06:31:34Z</time>
      </trkpt>
      <trkpt lat="45.07819" lon="6.1956">
        <ele>1843.8</ele>
        <time>2024-08-10T06:31:35Z</time>
      </trkpt>
      <trkpt lat="45.07819" lon="6.1956">
        <ele>1844</ele>
        <time>2024-08-10T06:31:36Z</time>
      </trkpt>
      <trkpt lat="45.07819" lon="6.1956">
        <ele>1844.2</ele>
        <time>2024-08-10T06:31:37Z</time>
      </trkpt>
      <trkpt lat="45.07817" lon="6.19558">
        <ele>1844.4</ele>
        <time>2024-08-10T06:31:38Z</time>
      </trkpt>
      <trkpt lat="45.07817" lon="6.19558">
        <ele>1844.6</ele>
        <time>2024-08-10T06:31:39Z</time>
      </trkpt>
      <trkpt lat="45.07815" lon="6.19557">
        <ele>1844.6</ele>
        <time>2024-08-10T06:31:40Z</time>
      </trkpt>
      <trkpt lat="45.07815" lon="6.19557">
        <ele>1845</ele>
        <time>2024-08-10T06:31:41Z</time>
      </trkpt>
      <trkpt lat="45.07815" lon="6.19557">
        <ele>1845</ele>
        <time>2024-08-10T06:31:42Z</time>
      </trkpt>
      <trkpt lat="45.07813" lon="6.19555">
        <ele>1845.4</ele>
        <time>2024-08-10T06:31:43Z</time>
      </trkpt>
      <trkpt lat="45.07813" lon="6.19555">
        <ele>1845.8</ele>
        <time>2024-08-10T06:31:44Z</time>
      </trkpt>
      <trkpt lat="45.07813" lon="6.19555">
        <ele>1845.8</ele>
        <time>2024-08-10T06:31:45Z</time>
      </trkpt>
      <trkpt lat="45.07811" lon="6.19553">
        <ele>1845.8</ele>
        <time>2024-08-10T06:31:46Z</time>
      </trkpt>
      <trkpt lat="45.07811" lon="6.19553">
        <ele>1846</ele>
        <time>2024-08-10T06:31:47Z</time>
      </trkpt>
      <trkpt lat="45.07811" lon="6.19553">
        <ele>1846.2</ele>
        <time>2024-08-10T06:31:48Z</time>
      </trkpt>
      <trkpt lat="45.0781" lon="6.19551">
        <ele>1846.4</ele>
        <time>2024-08-10T06:31:49Z</time>
      </trkpt>
      <trkpt lat="45.0781" lon="6.19551">
        <ele>1846.6</ele>
        <time>2024-08-10T06:31:50Z</time>
      </trkpt>
      <trkpt lat="45.0781" lon="6.19551">
        <ele>1846.8</ele>
        <time>2024-08-10T06:31:51Z</time>
      </trkpt>
      <trkpt lat="45.07809" lon="6.19548">
        <ele>1847</ele>
        <time>2024-08-10T06:31:52Z</time>
      </trkpt>
      <trkpt lat="45.07809" lon="6.19548">
        <ele>1847</ele>
        <time>2024-08-10T06:31:53Z</time>
      </trkpt>
      <trkpt lat="45.07807" lon="6.19546">
        <ele>1847.2</ele>
        <time>2024-08-10T06:31:54Z</time>
      </trkpt>
      <trkpt lat="45.07807" lon="6.19546">
        <ele>1847.4</ele>
        <time>2024-08-10T06:31:55Z</time>
      </trkpt>
      <trkpt lat="45.07806" lon="6.19544">
        <ele>1847.4</ele>
        <time>2024-08-10T06:31:56Z</time>
      </trkpt>
      <trkpt lat="45.07806" lon="6.19544">
        <ele>1847.8</ele>
        <time>2024-08-10T06:31:57Z</time>
      </trkpt>
      <trkpt lat="45.07806" lon="6.19541">
        <ele>1847.8</ele>
        <time>2024-08-10T06:31:58Z</time>
      </trkpt>
      <trkpt lat="45.07806" lon="6.19541">
        <ele>1848</ele>
        <time>2024-08-10T06:31:59Z</time>
      </trkpt>
      <trkpt lat="45.07807" lon="6.19538">
        <ele>1848.2</ele>
        <time>2024-08-10T06:32:00Z</time>
      </trkpt>
      <trkpt lat="45.07807" lon="6.19538">
        <ele>1848.2</ele>
        <time>2024-08-10T06:32:01Z</time>
      </trkpt>
      <trkpt lat="45.07807" lon="6.19538">
        <ele>1848.6</ele>
        <time>2024-08-10T06:32:02Z</time>
      </trkpt>
      <trkpt lat="45.07807" lon="6.19534">
        <ele>1848.8</ele>
        <time>2024-08-10T06:32:03Z</time>
      </trkpt>
      <trkpt lat="45.07807" lon="6.19534">
        <ele>1848.8</ele>
        <time>2024-08-10T06:32:04Z</time>
      </trkpt>
      <trkpt lat="45.07807" lon="6.19534">
        <ele>1848.8</ele>
        <time>2024-08-10T06:32:05Z</time>
      </trkpt>
      <trkpt lat="45.07806" lon="6.19531">
        <ele>1849.2</ele>
        <time>2024-08-10T06:32:06Z</time>
      </trkpt>
      <trkpt lat="45.07806" lon="6.19531">
        <ele>1849.8</ele>
        <time>2024-08-10T06:32:07Z</time>
      </trkpt>
      <trkpt lat="45.07806" lon="6.19531">
        <ele>1849.8</ele>
        <time>2024-08-10T06:32:08Z</time>
      </trkpt>
      <trkpt lat="45.07806" lon="6.19529">
        <ele>1850</ele>
        <time>2024-08-10T06:32:09Z</time>
      </trkpt>
      <trkpt lat="45.07806" lon="6.19529">
        <ele>1850</ele>
        <time>2024-08-10T06:32:10Z</time>
      </trkpt>
      <trkpt lat="45.07806" lon="6.19526">
        <ele>1850.2</ele>
        <time>2024-08-10T06:32:11Z</time>
      </trkpt>
      <trkpt lat="45.07806" lon="6.19526">
        <ele>1850.6</ele>
        <time>2024-08-10T06:32:12Z</time>
      </trkpt>
      <trkpt lat="45.07805" lon="6.19524">
        <ele>1850.8</ele>
        <time>2024-08-10T06:32:13Z</time>
      </trkpt>
      <trkpt lat="45.07805" lon="6.19524">
        <ele>1850.8</ele>
        <time>2024-08-10T06:32:14Z</time>
      </trkpt>
      <trkpt lat="45.07805" lon="6.19524">
        <ele>1851</ele>
        <time>2024-08-10T06:32:15Z</time>
      </trkpt>
      <trkpt lat="45.07805" lon="6.1952">
        <ele>1851.2</ele>
        <time>2024-08-10T06:32:16Z</time>
      </trkpt>
      <trkpt lat="45.07805" lon="6.1952">
        <ele>1851.4</ele>
        <time>2024-08-10T06:32:17Z</time>
      </trkpt>
      <trkpt lat="45.07805" lon="6.1952">
        <ele>1851.4</ele>
        <time>2024-08-10T06:32:18Z</time>
      </trkpt>
      <trkpt lat="45.07805" lon="6.19517">
        <ele>1851.8</ele>
        <time>2024-08-10T06:32:19Z</time>
      </trkpt>
      <trkpt lat="45.07805" lon="6.19517">
        <ele>1851.8</ele>
        <time>2024-08-10T06:32:20Z</time>
      </trkpt>
      <trkpt lat="45.07805" lon="6.19514">
        <ele>1852</ele>
        <time>2024-08-10T06:32:21Z</time>
      </trkpt>
      <trkpt lat="45.07805" lon="6.19514">
        <ele>1852.4</ele>
        <time>2024-08-10T06:32:22Z</time>
      </trkpt>
      <trkpt lat="45.07805" lon="6.19514">
        <ele>1852.4</ele>
        <time>2024-08-10T06:32:23Z</time>
      </trkpt>
      <trkpt lat="45.07805" lon="6.19511">
        <ele>1852.6</ele>
        <time>2024-08-10T06:32:24Z</time>
      </trkpt>
      <trkpt lat="45.07805" lon="6.19511">
        <ele>1852.8</ele>
        <time>2024-08-10T06:32:25Z</time>
      </trkpt>
      <trkpt lat="45.07803" lon="6.19509">
        <ele>1852.8</ele>
        <time>2024-08-10T06:32:26Z</time>
      </trkpt>
      <trkpt lat="45.07803" lon="6.19509">
        <ele>1853</ele>
        <time>2024-08-10T06:32:27Z</time>
      </trkpt>
      <trkpt lat="45.07803" lon="6.19509">
        <ele>1853.2</ele>
        <time>2024-08-10T06:32:28Z</time>
      </trkpt>
      <trkpt lat="45.07803" lon="6.19509">
        <ele>1853.6</ele>
        <time>2024-08-10T06:32:29Z</time>
      </trkpt>
      <trkpt lat="45.07801" lon="6.19508">
        <ele>1853.6</ele>
        <time>2024-08-10T06:32:30Z</time>
      </trkpt>
      <trkpt lat="45.07801" lon="6.19508">
        <ele>1854</ele>
        <time>2024-08-10T06:32:31Z</time>
      </trkpt>
      <trkpt lat="45.07801" lon="6.19508">
        <ele>1854</ele>
        <time>2024-08-10T06:32:32Z</time>
      </trkpt>
      <trkpt lat="45.078" lon="6.1951">
        <ele>1854</ele>
        <time>2024-08-10T06:32:33Z</time>
      </trkpt>
      <trkpt lat="45.078" lon="6.1951">
        <ele>1854.2</ele>
        <time>2024-08-10T06:32:34Z</time>
      </trkpt>
      <trkpt lat="45.078" lon="6.1951">
        <ele>1854.4</ele>
        <time>2024-08-10T06:32:35Z</time>
      </trkpt>
      <trkpt lat="45.07799" lon="6.19513">
        <ele>1854.8</ele>
        <time>2024-08-10T06:32:36Z</time>
      </trkpt>
      <trkpt lat="45.07799" lon="6.19513">
        <ele>1855.2</ele>
        <time>2024-08-10T06:32:37Z</time>
      </trkpt>
      <trkpt lat="45.07799" lon="6.19513">
        <ele>1855.4</ele>
        <time>2024-08-10T06:32:38Z</time>
      </trkpt>
      <trkpt lat="45.07799" lon="6.19516">
        <ele>1855.4</ele>
        <time>2024-08-10T06:32:39Z</time>
      </trkpt>
      <trkpt lat="45.07799" lon="6.19516">
        <ele>1855.4</ele>
        <time>2024-08-10T06:32:40Z</time>
      </trkpt>
      <trkpt lat="45.07799" lon="6.19516">
        <ele>1855.8</ele>
        <time>2024-08-10T06:32:41Z</time>
      </trkpt>
      <trkpt lat="45.07798" lon="6.19519">
        <ele>1855.8</ele>
        <time>2024-08-10T06:32:42Z</time>
      </trkpt>
      <trkpt lat="45.07798" lon="6.19519">
        <ele>1856</ele>
        <time>2024-08-10T06:32:43Z</time>
      </trkpt>
      <trkpt lat="45.07798" lon="6.19519">
        <ele>1856</ele>
        <time>2024-08-10T06:32:44Z</time>
      </trkpt>
      <trkpt lat="45.07797" lon="6.19522">
        <ele>1856.6</ele>
        <time>2024-08-10T06:32:45Z</time>
      </trkpt>
      <trkpt lat="45.07797" lon="6.19522">
        <ele>1856.8</ele>
        <time>2024-08-10T06:32:46Z</time>
      </trkpt>
      <trkpt lat="45.07797" lon="6.19522">
        <ele>1857</ele>
        <time>2024-08-10T06:32:47Z</time>
      </trkpt>
      <trkpt lat="45.07795" lon="6.19524">
        <ele>1857.2</ele>
        <time>2024-08-10T06:32:48Z</time>
      </trkpt>
      <trkpt lat="45.07795" lon="6.19524">
        <ele>1857.4</ele>
        <time>2024-08-10T06:32:49Z</time>
      </trkpt>
      <trkpt lat="45.07795" lon="6.19524">
        <ele>1857.6</ele>
        <time>2024-08-10T06:32:50Z</time>
      </trkpt>
      <trkpt lat="45.07795" lon="6.19524">
        <ele>1857.8</ele>
        <time>2024-08-10T06:32:51Z</time>
      </trkpt>
      <trkpt lat="45.07793" lon="6.19527">
        <ele>1857.8</ele>
        <time>2024-08-10T06:32:52Z</time>
      </trkpt>
      <trkpt lat="45.07793" lon="6.19527">
        <ele>1858</ele>
        <time>2024-08-10T06:32:53Z</time>
      </trkpt>
      <trkpt lat="45.07793" lon="6.19527">
        <ele>1858.2</ele>
        <time>2024-08-10T06:32:54Z</time>
      </trkpt>
      <trkpt lat="45.07793" lon="6.19527">
        <ele>1858.4</ele>
        <time>2024-08-10T06:32:55Z</time>
      </trkpt>
      <trkpt lat="45.07791" lon="6.19528">
        <ele>1858.6</ele>
        <time>2024-08-10T06:32:56Z</time>
      </trkpt>
      <trkpt lat="45.07791" lon="6.19528">
        <ele>1858.8</ele>
        <time>2024-08-10T06:32:57Z</time>
      </trkpt>
      <trkpt lat="45.07791" lon="6.19528">
        <ele>1859</ele>
        <time>2024-08-10T06:32:58Z</time>
      </trkpt>
      <trkpt lat="45.07791" lon="6.19528">
        <ele>1859</ele>
        <time>2024-08-10T06:32:59Z</time>
      </trkpt>
      <trkpt lat="45.07789" lon="6.1953">
        <ele>1859.4</ele>
        <time>2024-08-10T06:33:00Z</time>
      </trkpt>
      <trkpt lat="45.07789" lon="6.1953">
        <ele>1859.8</ele>
        <time>2024-08-10T06:33:01Z</time>
      </trkpt>
      <trkpt lat="45.07789" lon="6.1953">
        <ele>1859.8</ele>
        <time>2024-08-10T06:33:02Z</time>
      </trkpt>
      <trkpt lat="45.07787" lon="6.1953">
        <ele>1860.4</ele>
        <time>2024-08-10T06:33:03Z</time>
      </trkpt>
      <trkpt lat="45.07787" lon="6.1953">
        <ele>1860.4</ele>
        <time>2024-08-10T06:33:04Z</time>
      </trkpt>
      <trkpt lat="45.07787" lon="6.1953">
        <ele>1860.4</ele>
        <time>2024-08-10T06:33:05Z</time>
      </trkpt>
      <trkpt lat="45.07787" lon="6.1953">
        <ele>1860.4</ele>
        <time>2024-08-10T06:33:06Z</time>
      </trkpt>
      <trkpt lat="45.07786" lon="6.19527">
        <ele>1860.6</ele>
        <time>2024-08-10T06:33:07Z</time>
      </trkpt>
      <trkpt lat="45.07786" lon="6.19527">
        <ele>1861.2</ele>
        <time>2024-08-10T06:33:08Z</time>
      </trkpt>
      <trkpt lat="45.07786" lon="6.19527">
        <ele>1861.2</ele>
        <time>2024-08-10T06:33:09Z</time>
      </trkpt>
      <trkpt lat="45.07787" lon="6.19524">
        <ele>1861.2</ele>
        <time>2024-08-10T06:33:10Z</time>
      </trkpt>
      <trkpt lat="45.07787" lon="6.19524">
        <ele>1861.6</ele>
        <time>2024-08-10T06:33:11Z</time>
      </trkpt>
      <trkpt lat="45.07788" lon="6.19523">
        <ele>1861.6</ele>
        <time>2024-08-10T06:33:12Z</time>
      </trkpt>
      <trkpt lat="45.07788" lon="6.19523">
        <ele>1862.2</ele>
        <time>2024-08-10T06:33:13Z</time>
      </trkpt>
      <trkpt lat="45.07788" lon="6.19523">
        <ele>1862.2</ele>
        <time>2024-08-10T06:33:14Z</time>
      </trkpt>
      <trkpt lat="45.07788" lon="6.19523">
        <ele>1862.2</ele>
        <time>2024-08-10T06:33:15Z</time>
      </trkpt>
      <trkpt lat="45.07788" lon="6.19523">
        <ele>1862.6</ele>
        <time>2024-08-10T06:33:16Z</time>
      </trkpt>
      <trkpt lat="45.07789" lon="6.19519">
        <ele>1862.8</ele>
        <time>2024-08-10T06:33:17Z</time>
      </trkpt>
      <trkpt lat="45.07789" lon="6.19519">
        <ele>1863.2</ele>
        <time>2024-08-10T06:33:18Z</time>
      </trkpt>
      <trkpt lat="45.07789" lon="6.19517">
        <ele>1863.2</ele>
        <time>2024-08-10T06:33:19Z</time>
      </trkpt>
      <trkpt lat="45.07789" lon="6.19517">
        <ele>1863.6</ele>
        <time>2024-08-10T06:33:20Z</time>
      </trkpt>
      <trkpt lat="45.07789" lon="6.19513">
        <ele>1863.6</ele>
        <time>2024-08-10T06:33:21Z</time>
      </trkpt>
      <trkpt lat="45.07789" lon="6.19513">
        <ele>1863.6</ele>
        <time>2024-08-10T06:33:22Z</time>
      </trkpt>
      <trkpt lat="45.07789" lon="6.1951">
        <ele>1863.8</ele>
        <time>2024-08-10T06:33:23Z</time>
      </trkpt>
      <trkpt lat="45.07789" lon="6.1951">
        <ele>1864</ele>
        <time>2024-08-10T06:33:24Z</time>
      </trkpt>
      <trkpt lat="45.07788" lon="6.19507">
        <ele>1864</ele>
        <time>2024-08-10T06:33:25Z</time>
      </trkpt>
      <trkpt lat="45.07788" lon="6.19507">
        <ele>1864.2</ele>
        <time>2024-08-10T06:33:26Z</time>
      </trkpt>
      <trkpt lat="45.07788" lon="6.19507">
        <ele>1864.2</ele>
        <time>2024-08-10T06:33:27Z</time>
      </trkpt>
      <trkpt lat="45.07788" lon="6.19504">
        <ele>1864.2</ele>
        <time>2024-08-10T06:33:28Z</time>
      </trkpt>
      <trkpt lat="45.07788" lon="6.19504">
        <ele>1864.2</ele>
        <time>2024-08-10T06:33:29Z</time>
      </trkpt>
      <trkpt lat="45.07787" lon="6.19501">
        <ele>1864.6</ele>
        <time>2024-08-10T06:33:30Z</time>
      </trkpt>
      <trkpt lat="45.07787" lon="6.19501">
        <ele>1864.6</ele>
        <time>2024-08-10T06:33:31Z</time>
      </trkpt>
      <trkpt lat="45.07787" lon="6.19501">
        <ele>1864.8</ele>
        <time>2024-08-10T06:33:32Z</time>
      </trkpt>
      <trkpt lat="45.07787" lon="6.19497">
        <ele>1865</ele>
        <time>2024-08-10T06:33:33Z</time>
      </trkpt>
      <trkpt lat="45.07787" lon="6.19497">
        <ele>1865.2</ele>
        <time>2024-08-10T06:33:34Z</time>
      </trkpt>
      <trkpt lat="45.07787" lon="6.19497">
        <ele>1865.4</ele>
        <time>2024-08-10T06:33:35Z</time>
      </trkpt>
      <trkpt lat="45.07786" lon="6.19493">
        <ele>1865.4</ele>
        <time>2024-08-10T06:33:36Z</time>
      </trkpt>
      <trkpt lat="45.07786" lon="6.19493">
        <ele>1865.4</ele>
        <time>2024-08-10T06:33:37Z</time>
      </trkpt>
      <trkpt lat="45.07785" lon="6.19491">
        <ele>1865.6</ele>
        <time>2024-08-10T06:33:38Z</time>
      </trkpt>
      <trkpt lat="45.07785" lon="6.19491">
        <ele>1865.8</ele>
        <time>2024-08-10T06:33:39Z</time>
      </trkpt>
      <trkpt lat="45.07785" lon="6.19491">
        <ele>1865.8</ele>
        <time>2024-08-10T06:33:40Z</time>
      </trkpt>
      <trkpt lat="45.07784" lon="6.19488">
        <ele>1866.2</ele>
        <time>2024-08-10T06:33:41Z</time>
      </trkpt>
      <trkpt lat="45.07784" lon="6.19488">
        <ele>1866.4</ele>
        <time>2024-08-10T06:33:42Z</time>
      </trkpt>
      <trkpt lat="45.07783" lon="6.19486">
        <ele>1866.4</ele>
        <time>2024-08-10T06:33:43Z</time>
      </trkpt>
      <trkpt lat="45.07783" lon="6.19486">
        <ele>1867</ele>
        <time>2024-08-10T06:33:44Z</time>
      </trkpt>
      <trkpt lat="45.07783" lon="6.19486">
        <ele>1867</ele>
        <time>2024-08-10T06:33:45Z</time>
      </trkpt>
      <trkpt lat="45.07783" lon="6.19482">
        <ele>1867.2</ele>
        <time>2024-08-10T06:33:46Z</time>
      </trkpt>
      <trkpt lat="45.07783" lon="6.19482">
        <ele>1867.4</ele>
        <time>2024-08-10T06:33:47Z</time>
      </trkpt>
      <trkpt lat="45.07783" lon="6.19482">
        <ele>1867.4</ele>
        <time>2024-08-10T06:33:48Z</time>
      </trkpt>
      <trkpt lat="45.07783" lon="6.19479">
        <ele>1867.6</ele>
        <time>2024-08-10T06:33:49Z</time>
      </trkpt>
      <trkpt lat="45.07783" lon="6.19479">
        <ele>1867.8</ele>
        <time>2024-08-10T06:33:50Z</time>
      </trkpt>
      <trkpt lat="45.07783" lon="6.19479">
        <ele>1867.8</ele>
        <time>2024-08-10T06:33:51Z</time>
      </trkpt>
      <trkpt lat="45.07783" lon="6.19475">
        <ele>1867.8</ele>
        <time>2024-08-10T06:33:52Z</time>
      </trkpt>
      <trkpt lat="45.07783" lon="6.19475">
        <ele>1867.8</ele>
        <time>2024-08-10T06:33:53Z</time>
      </trkpt>
      <trkpt lat="45.07783" lon="6.19475">
        <ele>1867.8</ele>
        <time>2024-08-10T06:33:54Z</time>
      </trkpt>
      <trkpt lat="45.07782" lon="6.19472">
        <ele>1868</ele>
        <time>2024-08-10T06:33:55Z</time>
      </trkpt>
      <trkpt lat="45.07782" lon="6.19472">
        <ele>1868.2</ele>
        <time>2024-08-10T06:33:56Z</time>
      </trkpt>
      <trkpt lat="45.07782" lon="6.19472">
        <ele>1868.6</ele>
        <time>2024-08-10T06:33:57Z</time>
      </trkpt>
      <trkpt lat="45.0778" lon="6.19472">
        <ele>1868.6</ele>
        <time>2024-08-10T06:33:58Z</time>
      </trkpt>
      <trkpt lat="45.0778" lon="6.19472">
        <ele>1868.8</ele>
        <time>2024-08-10T06:33:59Z</time>
      </trkpt>
      <trkpt lat="45.0778" lon="6.19472">
        <ele>1868.8</ele>
        <time>2024-08-10T06:34:00Z</time>
      </trkpt>
      <trkpt lat="45.07778" lon="6.19474">
        <ele>1869</ele>
        <time>2024-08-10T06:34:01Z</time>
      </trkpt>
      <trkpt lat="45.07778" lon="6.19474">
        <ele>1869.2</ele>
        <time>2024-08-10T06:34:02Z</time>
      </trkpt>
      <trkpt lat="45.07778" lon="6.19474">
        <ele>1870</ele>
        <time>2024-08-10T06:34:03Z</time>
      </trkpt>
      <trkpt lat="45.07778" lon="6.19476">
        <ele>1870</ele>
        <time>2024-08-10T06:34:04Z</time>
      </trkpt>
      <trkpt lat="45.07778" lon="6.19476">
        <ele>1870</ele>
        <time>2024-08-10T06:34:05Z</time>
      </trkpt>
      <trkpt lat="45.07778" lon="6.19476">
        <ele>1870.2</ele>
        <time>2024-08-10T06:34:06Z</time>
      </trkpt>
      <trkpt lat="45.07777" lon="6.19479">
        <ele>1870.2</ele>
        <time>2024-08-10T06:34:07Z</time>
      </trkpt>
      <trkpt lat="45.07777" lon="6.19479">
        <ele>1870.2</ele>
        <time>2024-08-10T06:34:08Z</time>
      </trkpt>
      <trkpt lat="45.07777" lon="6.19479">
        <ele>1870.8</ele>
        <time>2024-08-10T06:34:09Z</time>
      </trkpt>
      <trkpt lat="45.07777" lon="6.19484">
        <ele>1870.8</ele>
        <time>2024-08-10T06:34:10Z</time>
      </trkpt>
      <trkpt lat="45.07777" lon="6.19484">
        <ele>1870.8</ele>
        <time>2024-08-10T06:34:11Z</time>
      </trkpt>
      <trkpt lat="45.07777" lon="6.19484">
        <ele>1871</ele>
        <time>2024-08-10T06:34:12Z</time>
      </trkpt>
      <trkpt lat="45.07777" lon="6.19487">
        <ele>1871</ele>
        <time>2024-08-10T06:34:13Z</time>
      </trkpt>
      <trkpt lat="45.07777" lon="6.19487">
        <ele>1871.4</ele>
        <time>2024-08-10T06:34:14Z</time>
      </trkpt>
      <trkpt lat="45.07777" lon="6.1949">
        <ele>1871.6</ele>
        <time>2024-08-10T06:34:15Z</time>
      </trkpt>
      <trkpt lat="45.07777" lon="6.1949">
        <ele>1871.6</ele>
        <time>2024-08-10T06:34:16Z</time>
      </trkpt>
      <trkpt lat="45.07777" lon="6.19493">
        <ele>1871.4</ele>
        <time>2024-08-10T06:34:17Z</time>
      </trkpt>
      <trkpt lat="45.07777" lon="6.19493">
        <ele>1871.4</ele>
        <time>2024-08-10T06:34:18Z</time>
      </trkpt>
      <trkpt lat="45.07777" lon="6.19493">
        <ele>1871.4</ele>
        <time>2024-08-10T06:34:19Z</time>
      </trkpt>
      <trkpt lat="45.07776" lon="6.19496">
        <ele>1872</ele>
        <time>2024-08-10T06:34:20Z</time>
      </trkpt>
      <trkpt lat="45.07776" lon="6.19496">
        <ele>1872</ele>
        <time>2024-08-10T06:34:21Z</time>
      </trkpt>
      <trkpt lat="45.07776" lon="6.19496">
        <ele>1872.4</ele>
        <time>2024-08-10T06:34:22Z</time>
      </trkpt>
      <trkpt lat="45.07775" lon="6.19499">
        <ele>1872.4</ele>
        <time>2024-08-10T06:34:23Z</time>
      </trkpt>
      <trkpt lat="45.07775" lon="6.19499">
        <ele>1872.4</ele>
        <time>2024-08-10T06:34:24Z</time>
      </trkpt>
      <trkpt lat="45.07775" lon="6.19499">
        <ele>1872.4</ele>
        <time>2024-08-10T06:34:25Z</time>
      </trkpt>
      <trkpt lat="45.07775" lon="6.19503">
        <ele>1872.6</ele>
        <time>2024-08-10T06:34:26Z</time>
      </trkpt>
      <trkpt lat="45.07775" lon="6.19503">
        <ele>1873</ele>
        <time>2024-08-10T06:34:27Z</time>
      </trkpt>
      <trkpt lat="45.07774" lon="6.19505">
        <ele>1873</ele>
        <time>2024-08-10T06:34:28Z</time>
      </trkpt>
      <trkpt lat="45.07774" lon="6.19505">
        <ele>1873</ele>
        <time>2024-08-10T06:34:29Z</time>
      </trkpt>
      <trkpt lat="45.07774" lon="6.19505">
        <ele>1873.2</ele>
        <time>2024-08-10T06:34:30Z</time>
      </trkpt>
      <trkpt lat="45.07774" lon="6.19508">
        <ele>1873.4</ele>
        <time>2024-08-10T06:34:31Z</time>
      </trkpt>
      <trkpt lat="45.07774" lon="6.19508">
        <ele>1874</ele>
        <time>2024-08-10T06:34:32Z</time>
      </trkpt>
      <trkpt lat="45.07774" lon="6.19508">
        <ele>1874.2</ele>
        <time>2024-08-10T06:34:33Z</time>
      </trkpt>
      <trkpt lat="45.07772" lon="6.19507">
        <ele>1874.2</ele>
        <time>2024-08-10T06:34:34Z</time>
      </trkpt>
      <trkpt lat="45.07772" lon="6.19507">
        <ele>1874.6</ele>
        <time>2024-08-10T06:34:35Z</time>
      </trkpt>
      <trkpt lat="45.07771" lon="6.19505">
        <ele>1874.8</ele>
        <time>2024-08-10T06:34:36Z</time>
      </trkpt>
      <trkpt lat="45.07771" lon="6.19505">
        <ele>1874.8</ele>
        <time>2024-08-10T06:34:37Z</time>
      </trkpt>
      <trkpt lat="45.07771" lon="6.19503">
        <ele>1875.2</ele>
        <time>2024-08-10T06:34:38Z</time>
      </trkpt>
      <trkpt lat="45.07771" lon="6.19503">
        <ele>1875.4</ele>
        <time>2024-08-10T06:34:39Z</time>
      </trkpt>
      <trkpt lat="45.07771" lon="6.19503">
        <ele>1875.4</ele>
        <time>2024-08-10T06:34:40Z</time>
      </trkpt>
      <trkpt lat="45.07771" lon="6.19499">
        <ele>1875.4</ele>
        <time>2024-08-10T06:34:41Z</time>
      </trkpt>
      <trkpt lat="45.07771" lon="6.19499">
        <ele>1875.6</ele>
        <time>2024-08-10T06:34:42Z</time>
      </trkpt>
      <trkpt lat="45.07771" lon="6.19499">
        <ele>1875.6</ele>
        <time>2024-08-10T06:34:43Z</time>
      </trkpt>
      <trkpt lat="45.07771" lon="6.19499">
        <ele>1876.2</ele>
        <time>2024-08-10T06:34:44Z</time>
      </trkpt>
      <trkpt lat="45.0777" lon="6.19496">
        <ele>1876.4</ele>
        <time>2024-08-10T06:34:45Z</time>
      </trkpt>
      <trkpt lat="45.0777" lon="6.19496">
        <ele>1876.8</ele>
        <time>2024-08-10T06:34:46Z</time>
      </trkpt>
      <trkpt lat="45.0777" lon="6.19496">
        <ele>1877</ele>
        <time>2024-08-10T06:34:47Z</time>
      </trkpt>
      <trkpt lat="45.0777" lon="6.19496">
        <ele>1877</ele>
        <time>2024-08-10T06:34:48Z</time>
      </trkpt>
      <trkpt lat="45.0777" lon="6.19496">
        <ele>1877.4</ele>
        <time>2024-08-10T06:34:49Z</time>
      </trkpt>
      <trkpt lat="45.0777" lon="6.19496">
        <ele>1877.4</ele>
        <time>2024-08-10T06:34:50Z</time>
      </trkpt>
      <trkpt lat="45.0777" lon="6.19496">
        <ele>1877.4</ele>
        <time>2024-08-10T06:34:51Z</time>
      </trkpt>
      <trkpt lat="45.0777" lon="6.19496">
        <ele>1877.4</ele>
        <time>2024-08-10T06:34:52Z</time>
      </trkpt>
      <trkpt lat="45.0777" lon="6.19496">
        <ele>1877.8</ele>
        <time>2024-08-10T06:34:53Z</time>
      </trkpt>
      <trkpt lat="45.0777" lon="6.19496">
        <ele>1878</ele>
        <time>2024-08-10T06:34:54Z</time>
      </trkpt>
      <trkpt lat="45.0777" lon="6.19496">
        <ele>1878</ele>
        <time>2024-08-10T06:34:55Z</time>
      </trkpt>
      <trkpt lat="45.07768" lon="6.19498">
        <ele>1878</ele>
        <time>2024-08-10T06:34:56Z</time>
      </trkpt>
      <trkpt lat="45.07768" lon="6.19498">
        <ele>1878.2</ele>
        <time>2024-08-10T06:34:57Z</time>
      </trkpt>
      <trkpt lat="45.07767" lon="6.19502">
        <ele>1878.4</ele>
        <time>2024-08-10T06:34:58Z</time>
      </trkpt>
      <trkpt lat="45.07767" lon="6.19502">
        <ele>1878.4</ele>
        <time>2024-08-10T06:34:59Z</time>
      </trkpt>
      <trkpt lat="45.07766" lon="6.19505">
        <ele>1878.6</ele>
        <time>2024-08-10T06:35:00Z</time>
      </trkpt>
      <trkpt lat="45.07766" lon="6.19505">
        <ele>1878.8</ele>
        <time>2024-08-10T06:35:01Z</time>
      </trkpt>
      <trkpt lat="45.07765" lon="6.19507">
        <ele>1879</ele>
        <time>2024-08-10T06:35:02Z</time>
      </trkpt>
      <trkpt lat="45.07765" lon="6.19507">
        <ele>1879</ele>
        <time>2024-08-10T06:35:03Z</time>
      </trkpt>
      <trkpt lat="45.07765" lon="6.19507">
        <ele>1879</ele>
        <time>2024-08-10T06:35:04Z</time>
      </trkpt>
      <trkpt lat="45.07762" lon="6.19506">
        <ele>1879.4</ele>
        <time>2024-08-10T06:35:05Z</time>
      </trkpt>
      <trkpt lat="45.07762" lon="6.19506">
        <ele>1879.6</ele>
        <time>2024-08-10T06:35:06Z</time>
      </trkpt>
      <trkpt lat="45.07762" lon="6.19506">
        <ele>1879.6</ele>
        <time>2024-08-10T06:35:07Z</time>
      </trkpt>
      <trkpt lat="45.07762" lon="6.19503">
        <ele>1880</ele>
        <time>2024-08-10T06:35:08Z</time>
      </trkpt>
      <trkpt lat="45.07762" lon="6.19503">
        <ele>1880.4</ele>
        <time>2024-08-10T06:35:09Z</time>
      </trkpt>
      <trkpt lat="45.07762" lon="6.195">
        <ele>1880.8</ele>
        <time>2024-08-10T06:35:10Z</time>
      </trkpt>
      <trkpt lat="45.07762" lon="6.195">
        <ele>1880.8</ele>
        <time>2024-08-10T06:35:11Z</time>
      </trkpt>
      <trkpt lat="45.07762" lon="6.195">
        <ele>1880.8</ele>
        <time>2024-08-10T06:35:12Z</time>
      </trkpt>
      <trkpt lat="45.07762" lon="6.19496">
        <ele>1881.2</ele>
        <time>2024-08-10T06:35:13Z</time>
      </trkpt>
      <trkpt lat="45.07762" lon="6.19496">
        <ele>1881.4</ele>
        <time>2024-08-10T06:35:14Z</time>
      </trkpt>
      <trkpt lat="45.07762" lon="6.19493">
        <ele>1881.6</ele>
        <time>2024-08-10T06:35:15Z</time>
      </trkpt>
      <trkpt lat="45.07762" lon="6.19493">
        <ele>1881.6</ele>
        <time>2024-08-10T06:35:16Z</time>
      </trkpt>
      <trkpt lat="45.07762" lon="6.19493">
        <ele>1881.6</ele>
        <time>2024-08-10T06:35:17Z</time>
      </trkpt>
      <trkpt lat="45.07762" lon="6.19493">
        <ele>1881.8</ele>
        <time>2024-08-10T06:35:18Z</time>
      </trkpt>
      <trkpt lat="45.07762" lon="6.1949">
        <ele>1881.8</ele>
        <time>2024-08-10T06:35:19Z</time>
      </trkpt>
      <trkpt lat="45.07762" lon="6.1949">
        <ele>1882.2</ele>
        <time>2024-08-10T06:35:20Z</time>
      </trkpt>
      <trkpt lat="45.07762" lon="6.1949">
        <ele>1882.2</ele>
        <time>2024-08-10T06:35:21Z</time>
      </trkpt>
      <trkpt lat="45.0776" lon="6.19487">
        <ele>1882.4</ele>
        <time>2024-08-10T06:35:22Z</time>
      </trkpt>
      <trkpt lat="45.0776" lon="6.19487">
        <ele>1882.6</ele>
        <time>2024-08-10T06:35:23Z</time>
      </trkpt>
      <trkpt lat="45.0776" lon="6.19487">
        <ele>1883</ele>
        <time>2024-08-10T06:35:24Z</time>
      </trkpt>
      <trkpt lat="45.0776" lon="6.19487">
        <ele>1883</ele>
        <time>2024-08-10T06:35:25Z</time>
      </trkpt>
      <trkpt lat="45.07758" lon="6.19489">
        <ele>1883</ele>
        <time>2024-08-10T06:35:26Z</time>
      </trkpt>
      <trkpt lat="45.07758" lon="6.19489">
        <ele>1883.2</ele>
        <time>2024-08-10T06:35:27Z</time>
      </trkpt>
      <trkpt lat="45.07757" lon="6.19492">
        <ele>1883.2</ele>
        <time>2024-08-10T06:35:28Z</time>
      </trkpt>
      <trkpt lat="45.07757" lon="6.19492">
        <ele>1883.4</ele>
        <time>2024-08-10T06:35:29Z</time>
      </trkpt>
      <trkpt lat="45.07757" lon="6.19492">
        <ele>1883.8</ele>
        <time>2024-08-10T06:35:30Z</time>
      </trkpt>
      <trkpt lat="45.07756" lon="6.19496">
        <ele>1883.8</ele>
        <time>2024-08-10T06:35:31Z</time>
      </trkpt>
      <trkpt lat="45.07756" lon="6.19496">
        <ele>1883.8</ele>
        <time>2024-08-10T06:35:32Z</time>
      </trkpt>
      <trkpt lat="45.07756" lon="6.19496">
        <ele>1884</ele>
        <time>2024-08-10T06:35:33Z</time>
      </trkpt>
      <trkpt lat="45.07755" lon="6.19499">
        <ele>1884</ele>
        <time>2024-08-10T06:35:34Z</time>
      </trkpt>
      <trkpt lat="45.07755" lon="6.19499">
        <ele>1884.4</ele>
        <time>2024-08-10T06:35:35Z</time>
      </trkpt>
      <trkpt lat="45.07755" lon="6.19499">
        <ele>1884.6</ele>
        <time>2024-08-10T06:35:36Z</time>
      </trkpt>
      <trkpt lat="45.07754" lon="6.19502">
        <ele>1884.6</ele>
        <time>2024-08-10T06:35:37Z</time>
      </trkpt>
      <trkpt lat="45.07754" lon="6.19502">
        <ele>1885</ele>
        <time>2024-08-10T06:35:38Z</time>
      </trkpt>
      <trkpt lat="45.07753" lon="6.19505">
        <ele>1885</ele>
        <time>2024-08-10T06:35:39Z</time>
      </trkpt>
      <trkpt lat="45.07753" lon="6.19505">
        <ele>1885.2</ele>
        <time>2024-08-10T06:35:40Z</time>
      </trkpt>
      <trkpt lat="45.07753" lon="6.19505">
        <ele>1885.4</ele>
        <time>2024-08-10T06:35:41Z</time>
      </trkpt>
      <trkpt lat="45.07752" lon="6.19507">
        <ele>1885.4</ele>
        <time>2024-08-10T06:35:42Z</time>
      </trkpt>
      <trkpt lat="45.07752" lon="6.19507">
        <ele>1885.4</ele>
        <time>2024-08-10T06:35:43Z</time>
      </trkpt>
      <trkpt lat="45.07752" lon="6.19507">
        <ele>1885.6</ele>
        <time>2024-08-10T06:35:44Z</time>
      </trkpt>
      <trkpt lat="45.07751" lon="6.19505">
        <ele>1885.8</ele>
        <time>2024-08-10T06:35:45Z</time>
      </trkpt>
      <trkpt lat="45.07751" lon="6.19505">
        <ele>1886</ele>
        <time>2024-08-10T06:35:46Z</time>
      </trkpt>
      <trkpt lat="45.07751" lon="6.19505">
        <ele>1886.2</ele>
        <time>2024-08-10T06:35:47Z</time>
      </trkpt>
      <trkpt lat="45.0775" lon="6.19502">
        <ele>1886.6</ele>
        <time>2024-08-10T06:35:48Z</time>
      </trkpt>
      <trkpt lat="45.0775" lon="6.19502">
        <ele>1887</ele>
        <time>2024-08-10T06:35:49Z</time>
      </trkpt>
      <trkpt lat="45.0775" lon="6.19502">
        <ele>1887.2</ele>
        <time>2024-08-10T06:35:50Z</time>
      </trkpt>
      <trkpt lat="45.0775" lon="6.19498">
        <ele>1887.4</ele>
        <time>2024-08-10T06:35:51Z</time>
      </trkpt>
      <trkpt lat="45.0775" lon="6.19498">
        <ele>1887.8</ele>
        <time>2024-08-10T06:35:52Z</time>
      </trkpt>
      <trkpt lat="45.0775" lon="6.19498">
        <ele>1887.8</ele>
        <time>2024-08-10T06:35:53Z</time>
      </trkpt>
      <trkpt lat="45.0775" lon="6.19498">
        <ele>1887.8</ele>
        <time>2024-08-10T06:35:54Z</time>
      </trkpt>
      <trkpt lat="45.0775" lon="6.19498">
        <ele>1887.8</ele>
        <time>2024-08-10T06:35:55Z</time>
      </trkpt>
      <trkpt lat="45.0775" lon="6.19498">
        <ele>1888.2</ele>
        <time>2024-08-10T06:35:56Z</time>
      </trkpt>
      <trkpt lat="45.0775" lon="6.19498">
        <ele>1888.4</ele>
        <time>2024-08-10T06:35:57Z</time>
      </trkpt>
      <trkpt lat="45.0775" lon="6.19498">
        <ele>1888.8</ele>
        <time>2024-08-10T06:35:58Z</time>
      </trkpt>
      <trkpt lat="45.07749" lon="6.19496">
        <ele>1889</ele>
        <time>2024-08-10T06:35:59Z</time>
      </trkpt>
      <trkpt lat="45.07749" lon="6.19496">
        <ele>1889.2</ele>
        <time>2024-08-10T06:36:00Z</time>
      </trkpt>
      <trkpt lat="45.07749" lon="6.19493">
        <ele>1889.4</ele>
        <time>2024-08-10T06:36:01Z</time>
      </trkpt>
      <trkpt lat="45.07749" lon="6.19493">
        <ele>1889.6</ele>
        <time>2024-08-10T06:36:02Z</time>
      </trkpt>
      <trkpt lat="45.07749" lon="6.19488">
        <ele>1890</ele>
        <time>2024-08-10T06:36:03Z</time>
      </trkpt>
      <trkpt lat="45.07749" lon="6.19488">
        <ele>1890</ele>
        <time>2024-08-10T06:36:04Z</time>
      </trkpt>
      <trkpt lat="45.07749" lon="6.19484">
        <ele>1890</ele>
        <time>2024-08-10T06:36:05Z</time>
      </trkpt>
      <trkpt lat="45.07749" lon="6.19484">
        <ele>1890.4</ele>
        <time>2024-08-10T06:36:06Z</time>
      </trkpt>
      <trkpt lat="45.07749" lon="6.19481">
        <ele>1890.6</ele>
        <time>2024-08-10T06:36:07Z</time>
      </trkpt>
      <trkpt lat="45.07749" lon="6.19481">
        <ele>1890.6</ele>
        <time>2024-08-10T06:36:08Z</time>
      </trkpt>
      <trkpt lat="45.07748" lon="6.19479">
        <ele>1890.8</ele>
        <time>2024-08-10T06:36:09Z</time>
      </trkpt>
      <trkpt lat="45.07748" lon="6.19479">
        <ele>1890.8</ele>
        <time>2024-08-10T06:36:10Z</time>
      </trkpt>
      <trkpt lat="45.07748" lon="6.19479">
        <ele>1891.2</ele>
        <time>2024-08-10T06:36:11Z</time>
      </trkpt>
      <trkpt lat="45.07747" lon="6.19476">
        <ele>1891.4</ele>
        <time>2024-08-10T06:36:12Z</time>
      </trkpt>
      <trkpt lat="45.07747" lon="6.19476">
        <ele>1891.6</ele>
        <time>2024-08-10T06:36:13Z</time>
      </trkpt>
      <trkpt lat="45.07747" lon="6.19476">
        <ele>1892</ele>
        <time>2024-08-10T06:36:14Z</time>
      </trkpt>
      <trkpt lat="45.07746" lon="6.19473">
        <ele>1892.4</ele>
        <time>2024-08-10T06:36:15Z</time>
      </trkpt>
      <trkpt lat="45.07746" lon="6.19473">
        <ele>1892.6</ele>
        <time>2024-08-10T06:36:16Z</time>
      </trkpt>
      <trkpt lat="45.07746" lon="6.19473">
        <ele>1893</ele>
        <time>2024-08-10T06:36:17Z</time>
      </trkpt>
      <trkpt lat="45.07745" lon="6.19471">
        <ele>1893</ele>
        <time>2024-08-10T06:36:18Z</time>
      </trkpt>
      <trkpt lat="45.07745" lon="6.19471">
        <ele>1893</ele>
        <time>2024-08-10T06:36:19Z</time>
      </trkpt>
      <trkpt lat="45.07745" lon="6.19471">
        <ele>1893.2</ele>
        <time>2024-08-10T06:36:20Z</time>
      </trkpt>
      <trkpt lat="45.07743" lon="6.19469">
        <ele>1893.4</ele>
        <time>2024-08-10T06:36:21Z</time>
      </trkpt>
      <trkpt lat="45.07743" lon="6.19469">
        <ele>1893.8</ele>
        <time>2024-08-10T06:36:22Z</time>
      </trkpt>
      <trkpt lat="45.07743" lon="6.19469">
        <ele>1894</ele>
        <time>2024-08-10T06:36:23Z</time>
      </trkpt>
      <trkpt lat="45.07743" lon="6.19469">
        <ele>1894.2</ele>
        <time>2024-08-10T06:36:24Z</time>
      </trkpt>
      <trkpt lat="45.07741" lon="6.19469">
        <ele>1894.4</ele>
        <time>2024-08-10T06:36:25Z</time>
      </trkpt>
      <trkpt lat="45.07741" lon="6.19469">
        <ele>1895</ele>
        <time>2024-08-10T06:36:26Z</time>
      </trkpt>
      <trkpt lat="45.07741" lon="6.19469">
        <ele>1895</ele>
        <time>2024-08-10T06:36:27Z</time>
      </trkpt>
      <trkpt lat="45.0774" lon="6.19471">
        <ele>1895</ele>
        <time>2024-08-10T06:36:28Z</time>
      </trkpt>
      <trkpt lat="45.0774" lon="6.19471">
        <ele>1895</ele>
        <time>2024-08-10T06:36:29Z</time>
      </trkpt>
      <trkpt lat="45.0774" lon="6.19471">
        <ele>1895.8</ele>
        <time>2024-08-10T06:36:30Z</time>
      </trkpt>
      <trkpt lat="45.0774" lon="6.19475">
        <ele>1895.8</ele>
        <time>2024-08-10T06:36:31Z</time>
      </trkpt>
      <trkpt lat="45.0774" lon="6.19475">
        <ele>1896</ele>
        <time>2024-08-10T06:36:32Z</time>
      </trkpt>
      <trkpt lat="45.07739" lon="6.19478">
        <ele>1896.4</ele>
        <time>2024-08-10T06:36:33Z</time>
      </trkpt>
      <trkpt lat="45.07739" lon="6.19478">
        <ele>1896.6</ele>
        <time>2024-08-10T06:36:34Z</time>
      </trkpt>
      <trkpt lat="45.07739" lon="6.19481">
        <ele>1896.6</ele>
        <time>2024-08-10T06:36:35Z</time>
      </trkpt>
      <trkpt lat="45.07739" lon="6.19481">
        <ele>1896.6</ele>
        <time>2024-08-10T06:36:36Z</time>
      </trkpt>
      <trkpt lat="45.07738" lon="6.19483">
        <ele>1896.8</ele>
        <time>2024-08-10T06:36:37Z</time>
      </trkpt>
      <trkpt lat="45.07738" lon="6.19483">
        <ele>1896.8</ele>
        <time>2024-08-10T06:36:38Z</time>
      </trkpt>
      <trkpt lat="45.07737" lon="6.19486">
        <ele>1896.8</ele>
        <time>2024-08-10T06:36:39Z</time>
      </trkpt>
      <trkpt lat="45.07737" lon="6.19486">
        <ele>1897</ele>
        <time>2024-08-10T06:36:40Z</time>
      </trkpt>
      <trkpt lat="45.07736" lon="6.19488">
        <ele>1897</ele>
        <time>2024-08-10T06:36:41Z</time>
      </trkpt>
      <trkpt lat="45.07736" lon="6.19488">
        <ele>1897.2</ele>
        <time>2024-08-10T06:36:42Z</time>
      </trkpt>
      <trkpt lat="45.07735" lon="6.19491">
        <ele>1897.6</ele>
        <time>2024-08-10T06:36:43Z</time>
      </trkpt>
      <trkpt lat="45.07735" lon="6.19491">
        <ele>1897.6</ele>
        <time>2024-08-10T06:36:44Z</time>
      </trkpt>
      <trkpt lat="45.07735" lon="6.19491">
        <ele>1897.6</ele>
        <time>2024-08-10T06:36:45Z</time>
      </trkpt>
      <trkpt lat="45.07733" lon="6.19492">
        <ele>1897.8</ele>
        <time>2024-08-10T06:36:46Z</time>
      </trkpt>
      <trkpt lat="45.07733" lon="6.19492">
        <ele>1898</ele>
        <time>2024-08-10T06:36:47Z</time>
      </trkpt>
      <trkpt lat="45.07733" lon="6.19492">
        <ele>1898</ele>
        <time>2024-08-10T06:36:48Z</time>
      </trkpt>
      <trkpt lat="45.07731" lon="6.19489">
        <ele>1898.2</ele>
        <time>2024-08-10T06:36:49Z</time>
      </trkpt>
      <trkpt lat="45.07731" lon="6.19489">
        <ele>1898.2</ele>
        <time>2024-08-10T06:36:50Z</time>
      </trkpt>
      <trkpt lat="45.07731" lon="6.19489">
        <ele>1898.6</ele>
        <time>2024-08-10T06:36:51Z</time>
      </trkpt>
      <trkpt lat="45.07731" lon="6.19486">
        <ele>1898.6</ele>
        <time>2024-08-10T06:36:52Z</time>
      </trkpt>
      <trkpt lat="45.07731" lon="6.19486">
        <ele>1898.8</ele>
        <time>2024-08-10T06:36:53Z</time>
      </trkpt>
      <trkpt lat="45.07731" lon="6.19486">
        <ele>1899.4</ele>
        <time>2024-08-10T06:36:54Z</time>
      </trkpt>
      <trkpt lat="45.07729" lon="6.19485">
        <ele>1899.6</ele>
        <time>2024-08-10T06:36:55Z</time>
      </trkpt>
      <trkpt lat="45.07729" lon="6.19485">
        <ele>1899.8</ele>
        <time>2024-08-10T06:36:56Z</time>
      </trkpt>
      <trkpt lat="45.07729" lon="6.19485">
        <ele>1899.8</ele>
        <time>2024-08-10T06:36:57Z</time>
      </trkpt>
      <trkpt lat="45.07727" lon="6.19488">
        <ele>1900.2</ele>
        <time>2024-08-10T06:36:58Z</time>
      </trkpt>
      <trkpt lat="45.07727" lon="6.19488">
        <ele>1900.2</ele>
        <time>2024-08-10T06:36:59Z</time>
      </trkpt>
      <trkpt lat="45.07727" lon="6.19488">
        <ele>1900.4</ele>
        <time>2024-08-10T06:37:00Z</time>
      </trkpt>
      <trkpt lat="45.07726" lon="6.19491">
        <ele>1901</ele>
        <time>2024-08-10T06:37:01Z</time>
      </trkpt>
      <trkpt lat="45.07726" lon="6.19491">
        <ele>1901.2</ele>
        <time>2024-08-10T06:37:02Z</time>
      </trkpt>
      <trkpt lat="45.07726" lon="6.19491">
        <ele>1901.4</ele>
        <time>2024-08-10T06:37:03Z</time>
      </trkpt>
      <trkpt lat="45.07724" lon="6.19494">
        <ele>1901.4</ele>
        <time>2024-08-10T06:37:04Z</time>
      </trkpt>
      <trkpt lat="45.07724" lon="6.19494">
        <ele>1901.6</ele>
        <time>2024-08-10T06:37:05Z</time>
      </trkpt>
      <trkpt lat="45.07724" lon="6.19494">
        <ele>1901.8</ele>
        <time>2024-08-10T06:37:06Z</time>
      </trkpt>
      <trkpt lat="45.07722" lon="6.19495">
        <ele>1901.8</ele>
        <time>2024-08-10T06:37:07Z</time>
      </trkpt>
      <trkpt lat="45.07722" lon="6.19495">
        <ele>1902.2</ele>
        <time>2024-08-10T06:37:08Z</time>
      </trkpt>
      <trkpt lat="45.07722" lon="6.19495">
        <ele>1902.4</ele>
        <time>2024-08-10T06:37:09Z</time>
      </trkpt>
      <trkpt lat="45.07719" lon="6.19497">
        <ele>1902.6</ele>
        <time>2024-08-10T06:37:10Z</time>
      </trkpt>
      <trkpt lat="45.07719" lon="6.19497">
        <ele>1903</ele>
        <time>2024-08-10T06:37:11Z</time>
      </trkpt>
      <trkpt lat="45.07719" lon="6.19497">
        <ele>1903.4</ele>
        <time>2024-08-10T06:37:12Z</time>
      </trkpt>
      <trkpt lat="45.07717" lon="6.19499">
        <ele>1903.6</ele>
        <time>2024-08-10T06:37:13Z</time>
      </trkpt>
      <trkpt lat="45.07717" lon="6.19499">
        <ele>1903.6</ele>
        <time>2024-08-10T06:37:14Z</time>
      </trkpt>
      <trkpt lat="45.07717" lon="6.19499">
        <ele>1904</ele>
        <time>2024-08-10T06:37:15Z</time>
      </trkpt>
      <trkpt lat="45.07715" lon="6.195">
        <ele>1904.2</ele>
        <time>2024-08-10T06:37:16Z</time>
      </trkpt>
      <trkpt lat="45.07715" lon="6.195">
        <ele>1904.4</ele>
        <time>2024-08-10T06:37:17Z</time>
      </trkpt>
      <trkpt lat="45.07713" lon="6.19501">
        <ele>1904.6</ele>
        <time>2024-08-10T06:37:18Z</time>
      </trkpt>
      <trkpt lat="45.07713" lon="6.19501">
        <ele>1904.8</ele>
        <time>2024-08-10T06:37:19Z</time>
      </trkpt>
      <trkpt lat="45.07713" lon="6.19501">
        <ele>1905</ele>
        <time>2024-08-10T06:37:20Z</time>
      </trkpt>
      <trkpt lat="45.07711" lon="6.19502">
        <ele>1905.2</ele>
        <time>2024-08-10T06:37:21Z</time>
      </trkpt>
      <trkpt lat="45.07711" lon="6.19502">
        <ele>1905.4</ele>
        <time>2024-08-10T06:37:22Z</time>
      </trkpt>
      <trkpt lat="45.07711" lon="6.19502">
        <ele>1905.8</ele>
        <time>2024-08-10T06:37:23Z</time>
      </trkpt>
      <trkpt lat="45.07711" lon="6.19502">
        <ele>1905.8</ele>
        <time>2024-08-10T06:37:24Z</time>
      </trkpt>
      <trkpt lat="45.07711" lon="6.19502">
        <ele>1905.8</ele>
        <time>2024-08-10T06:37:25Z</time>
      </trkpt>
      <trkpt lat="45.07711" lon="6.19502">
        <ele>1906.2</ele>
        <time>2024-08-10T06:37:26Z</time>
      </trkpt>
      <trkpt lat="45.07711" lon="6.19502">
        <ele>1906.4</ele>
        <time>2024-08-10T06:37:27Z</time>
      </trkpt>
      <trkpt lat="45.07711" lon="6.19502">
        <ele>1906.4</ele>
        <time>2024-08-10T06:37:28Z</time>
      </trkpt>
      <trkpt lat="45.07711" lon="6.19502">
        <ele>1906.4</ele>
        <time>2024-08-10T06:37:29Z</time>
      </trkpt>
      <trkpt lat="45.07709" lon="6.19501">
        <ele>1906.4</ele>
        <time>2024-08-10T06:37:30Z</time>
      </trkpt>
      <trkpt lat="45.07709" lon="6.19501">
        <ele>1906.6</ele>
        <time>2024-08-10T06:37:31Z</time>
      </trkpt>
      <trkpt lat="45.07709" lon="6.19501">
        <ele>1906.8</ele>
        <time>2024-08-10T06:37:32Z</time>
      </trkpt>
      <trkpt lat="45.07709" lon="6.19501">
        <ele>1907</ele>
        <time>2024-08-10T06:37:33Z</time>
      </trkpt>
      <trkpt lat="45.07709" lon="6.19501">
        <ele>1907.4</ele>
        <time>2024-08-10T06:37:34Z</time>
      </trkpt>
      <trkpt lat="45.07709" lon="6.19501">
        <ele>1907.6</ele>
        <time>2024-08-10T06:37:35Z</time>
      </trkpt>
      <trkpt lat="45.07709" lon="6.19501">
        <ele>1907.8</ele>
        <time>2024-08-10T06:37:36Z</time>
      </trkpt>
      <trkpt lat="45.07709" lon="6.19501">
        <ele>1908</ele>
        <time>2024-08-10T06:37:37Z</time>
      </trkpt>
      <trkpt lat="45.07709" lon="6.19501">
        <ele>1908</ele>
        <time>2024-08-10T06:37:38Z</time>
      </trkpt>
      <trkpt lat="45.07709" lon="6.19501">
        <ele>1908</ele>
        <time>2024-08-10T06:37:39Z</time>
      </trkpt>
      <trkpt lat="45.07709" lon="6.19501">
        <ele>1908</ele>
        <time>2024-08-10T06:37:40Z</time>
      </trkpt>
      <trkpt lat="45.07709" lon="6.19501">
        <ele>1908</ele>
        <time>2024-08-10T06:37:41Z</time>
      </trkpt>
      <trkpt lat="45.07709" lon="6.19501">
        <ele>1908</ele>
        <time>2024-08-10T06:37:42Z</time>
      </trkpt>
      <trkpt lat="45.07709" lon="6.19501">
        <ele>1908</ele>
        <time>2024-08-10T06:37:43Z</time>
      </trkpt>
      <trkpt lat="45.07709" lon="6.19501">
        <ele>1908.2</ele>
        <time>2024-08-10T06:37:44Z</time>
      </trkpt>
      <trkpt lat="45.07709" lon="6.19501">
        <ele>1908.2</ele>
        <time>2024-08-10T06:37:45Z</time>
      </trkpt>
      <trkpt lat="45.07709" lon="6.19501">
        <ele>1908.2</ele>
        <time>2024-08-10T06:37:46Z</time>
      </trkpt>
      <trkpt lat="45.07709" lon="6.19501">
        <ele>1908.4</ele>
        <time>2024-08-10T06:37:47Z</time>
      </trkpt>
      <trkpt lat="45.07709" lon="6.19501">
        <ele>1908.4</ele>
        <time>2024-08-10T06:37:48Z</time>
      </trkpt>
      <trkpt lat="45.07709" lon="6.19501">
        <ele>1908.2</ele>
        <time>2024-08-10T06:37:49Z</time>
      </trkpt>
      <trkpt lat="45.07709" lon="6.19501">
        <ele>1908.2</ele>
        <time>2024-08-10T06:37:50Z</time>
      </trkpt>
      <trkpt lat="45.07709" lon="6.19501">
        <ele>1908</ele>
        <time>2024-08-10T06:37:51Z</time>
      </trkpt>
      <trkpt lat="45.07709" lon="6.19501">
        <ele>1908</ele>
        <time>2024-08-10T06:37:52Z</time>
      </trkpt>
      <trkpt lat="45.07709" lon="6.19501">
        <ele>1908</ele>
        <time>2024-08-10T06:37:53Z</time>
      </trkpt>
      <trkpt lat="45.07709" lon="6.19501">
        <ele>1908</ele>
        <time>2024-08-10T06:37:54Z</time>
      </trkpt>
      <trkpt lat="45.07709" lon="6.19501">
        <ele>1908</ele>
        <time>2024-08-10T06:37:55Z</time>
      </trkpt>
      <trkpt lat="45.07709" lon="6.19501">
        <ele>1908</ele>
        <time>2024-08-10T06:37:56Z</time>
      </trkpt>
      <trkpt lat="45.07709" lon="6.19501">
        <ele>1908</ele>
        <time>2024-08-10T06:37:57Z</time>
      </trkpt>
      <trkpt lat="45.07709" lon="6.19501">
        <ele>1908</ele>
        <time>2024-08-10T06:37:58Z</time>
      </trkpt>
      <trkpt lat="45.07709" lon="6.19501">
        <ele>1908</ele>
        <time>2024-08-10T06:37:59Z</time>
      </trkpt>
      <trkpt lat="45.07709" lon="6.19501">
        <ele>1908</ele>
        <time>2024-08-10T06:38:00Z</time>
      </trkpt>
      <trkpt lat="45.07709" lon="6.19501">
        <ele>1908</ele>
        <time>2024-08-10T06:38:01Z</time>
      </trkpt>
      <trkpt lat="45.07709" lon="6.19501">
        <ele>1908</ele>
        <time>2024-08-10T06:38:02Z</time>
      </trkpt>
      <trkpt lat="45.07709" lon="6.19501">
        <ele>1907.6</ele>
        <time>2024-08-10T06:38:03Z</time>
      </trkpt>
      <trkpt lat="45.07709" lon="6.19501">
        <ele>1907.6</ele>
        <time>2024-08-10T06:38:04Z</time>
      </trkpt>
      <trkpt lat="45.07709" lon="6.19501">
        <ele>1907.6</ele>
        <time>2024-08-10T06:38:05Z</time>
      </trkpt>
      <trkpt lat="45.07709" lon="6.19501">
        <ele>1907.6</ele>
        <time>2024-08-10T06:38:06Z</time>
      </trkpt>
      <trkpt lat="45.07709" lon="6.19501">
        <ele>1907.6</ele>
        <time>2024-08-10T06:38:07Z</time>
      </trkpt>
      <trkpt lat="45.07709" lon="6.19501">
        <ele>1907.6</ele>
        <time>2024-08-10T06:38:08Z</time>
      </trkpt>
      <trkpt lat="45.07709" lon="6.19501">
        <ele>1907.8</ele>
        <time>2024-08-10T06:38:09Z</time>
      </trkpt>
      <trkpt lat="45.07709" lon="6.19501">
        <ele>1907.8</ele>
        <time>2024-08-10T06:38:10Z</time>
      </trkpt>
      <trkpt lat="45.07709" lon="6.19501">
        <ele>1907.6</ele>
        <time>2024-08-10T06:38:11Z</time>
      </trkpt>
      <trkpt lat="45.07709" lon="6.19501">
        <ele>1907.4</ele>
        <time>2024-08-10T06:38:12Z</time>
      </trkpt>
      <trkpt lat="45.07709" lon="6.19501">
        <ele>1907.4</ele>
        <time>2024-08-10T06:38:13Z</time>
      </trkpt>
      <trkpt lat="45.07709" lon="6.19501">
        <ele>1907.6</ele>
        <time>2024-08-10T06:38:14Z</time>
      </trkpt>
      <trkpt lat="45.07709" lon="6.19501">
        <ele>1908</ele>
        <time>2024-08-10T06:38:15Z</time>
      </trkpt>
      <trkpt lat="45.07709" lon="6.19501">
        <ele>1908</ele>
        <time>2024-08-10T06:38:16Z</time>
      </trkpt>
      <trkpt lat="45.07709" lon="6.19501">
        <ele>1907.8</ele>
        <time>2024-08-10T06:38:17Z</time>
      </trkpt>
      <trkpt lat="45.07709" lon="6.19501">
        <ele>1907.6</ele>
        <time>2024-08-10T06:38:18Z</time>
      </trkpt>
      <trkpt lat="45.07709" lon="6.19501">
        <ele>1907.6</ele>
        <time>2024-08-10T06:38:19Z</time>
      </trkpt>
      <trkpt lat="45.07709" lon="6.19501">
        <ele>1907.6</ele>
        <time>2024-08-10T06:38:20Z</time>
      </trkpt>
      <trkpt lat="45.07709" lon="6.19501">
        <ele>1907.4</ele>
        <time>2024-08-10T06:38:21Z</time>
      </trkpt>
      <trkpt lat="45.07709" lon="6.19501">
        <ele>1907.4</ele>
        <time>2024-08-10T06:38:22Z</time>
      </trkpt>
      <trkpt lat="45.07709" lon="6.19501">
        <ele>1907.4</ele>
        <time>2024-08-10T06:38:23Z</time>
      </trkpt>
      <trkpt lat="45.07709" lon="6.19501">
        <ele>1907.6</ele>
        <time>2024-08-10T06:38:24Z</time>
      </trkpt>
      <trkpt lat="45.07709" lon="6.19501">
        <ele>1907.6</ele>
        <time>2024-08-10T06:38:25Z</time>
      </trkpt>
      <trkpt lat="45.07709" lon="6.19501">
        <ele>1907.6</ele>
        <time>2024-08-10T06:38:26Z</time>
      </trkpt>
      <trkpt lat="45.07709" lon="6.19501">
        <ele>1907.6</ele>
        <time>2024-08-10T06:38:27Z</time>
      </trkpt>
      <trkpt lat="45.07709" lon="6.19501">
        <ele>1907.6</ele>
        <time>2024-08-10T06:38:28Z</time>
      </trkpt>
      <trkpt lat="45.07709" lon="6.19501">
        <ele>1907.8</ele>
        <time>2024-08-10T06:38:29Z</time>
      </trkpt>
      <trkpt lat="45.07709" lon="6.19501">
        <ele>1907.8</ele>
        <time>2024-08-10T06:38:30Z</time>
      </trkpt>
      <trkpt lat="45.07709" lon="6.19501">
        <ele>1907.6</ele>
        <time>2024-08-10T06:38:31Z</time>
      </trkpt>
      <trkpt lat="45.07709" lon="6.19501">
        <ele>1907.6</ele>
        <time>2024-08-10T06:38:32Z</time>
      </trkpt>
      <trkpt lat="45.07709" lon="6.19501">
        <ele>1908</ele>
        <time>2024-08-10T06:38:33Z</time>
      </trkpt>
      <trkpt lat="45.07709" lon="6.19501">
        <ele>1908</ele>
        <time>2024-08-10T06:38:34Z</time>
      </trkpt>
      <trkpt lat="45.07709" lon="6.19501">
        <ele>1907.8</ele>
        <time>2024-08-10T06:38:35Z</time>
      </trkpt>
      <trkpt lat="45.07709" lon="6.19501">
        <ele>1907.8</ele>
        <time>2024-08-10T06:38:36Z</time>
      </trkpt>
      <trkpt lat="45.07709" lon="6.19501">
        <ele>1907.6</ele>
        <time>2024-08-10T06:38:37Z</time>
      </trkpt>
      <trkpt lat="45.07709" lon="6.19501">
        <ele>1907.6</ele>
        <time>2024-08-10T06:38:38Z</time>
      </trkpt>
      <trkpt lat="45.07709" lon="6.19501">
        <ele>1908</ele>
        <time>2024-08-10T06:38:39Z</time>
      </trkpt>
      <trkpt lat="45.07709" lon="6.19501">
        <ele>1908</ele>
        <time>2024-08-10T06:38:40Z</time>
      </trkpt>
      <trkpt lat="45.07709" lon="6.19501">
        <ele>1907.8</ele>
        <time>2024-08-10T06:38:41Z</time>
      </trkpt>
      <trkpt lat="45.07709" lon="6.19501">
        <ele>1907.8</ele>
        <time>2024-08-10T06:38:42Z</time>
      </trkpt>
      <trkpt lat="45.07709" lon="6.19501">
        <ele>1907.8</ele>
        <time>2024-08-10T06:38:43Z</time>
      </trkpt>
      <trkpt lat="45.07709" lon="6.19501">
        <ele>1908</ele>
        <time>2024-08-10T06:38:44Z</time>
      </trkpt>
      <trkpt lat="45.07709" lon="6.19501">
        <ele>1908</ele>
        <time>2024-08-10T06:38:45Z</time>
      </trkpt>
      <trkpt lat="45.07709" lon="6.19501">
        <ele>1908.2</ele>
        <time>2024-08-10T06:38:46Z</time>
      </trkpt>
      <trkpt lat="45.07709" lon="6.19501">
        <ele>1908.4</ele>
        <time>2024-08-10T06:38:47Z</time>
      </trkpt>
      <trkpt lat="45.07709" lon="6.19501">
        <ele>1908.2</ele>
        <time>2024-08-10T06:38:48Z</time>
      </trkpt>
      <trkpt lat="45.07709" lon="6.19501">
        <ele>1908</ele>
        <time>2024-08-10T06:38:49Z</time>
      </trkpt>
      <trkpt lat="45.07709" lon="6.19501">
        <ele>1907.8</ele>
        <time>2024-08-10T06:38:50Z</time>
      </trkpt>
      <trkpt lat="45.07709" lon="6.19501">
        <ele>1907.8</ele>
        <time>2024-08-10T06:38:51Z</time>
      </trkpt>
      <trkpt lat="45.07709" lon="6.19501">
        <ele>1907.8</ele>
        <time>2024-08-10T06:38:52Z</time>
      </trkpt>
      <trkpt lat="45.07709" lon="6.19501">
        <ele>1907.8</ele>
        <time>2024-08-10T06:38:53Z</time>
      </trkpt>
      <trkpt lat="45.07709" lon="6.19501">
        <ele>1907.8</ele>
        <time>2024-08-10T06:38:54Z</time>
      </trkpt>
      <trkpt lat="45.07709" lon="6.19501">
        <ele>1908</ele>
        <time>2024-08-10T06:38:55Z</time>
      </trkpt>
      <trkpt lat="45.07709" lon="6.19501">
        <ele>1908.4</ele>
        <time>2024-08-10T06:38:56Z</time>
      </trkpt>
      <trkpt lat="45.07709" lon="6.19501">
        <ele>1908.6</ele>
        <time>2024-08-10T06:38:57Z</time>
      </trkpt>
      <trkpt lat="45.07709" lon="6.19501">
        <ele>1908.8</ele>
        <time>2024-08-10T06:38:58Z</time>
      </trkpt>
      <trkpt lat="45.07709" lon="6.19501">
        <ele>1908.8</ele>
        <time>2024-08-10T06:38:59Z</time>
      </trkpt>
      <trkpt lat="45.07709" lon="6.19501">
        <ele>1909</ele>
        <time>2024-08-10T06:39:00Z</time>
      </trkpt>
      <trkpt lat="45.07709" lon="6.19501">
        <ele>1909.2</ele>
        <time>2024-08-10T06:39:01Z</time>
      </trkpt>
      <trkpt lat="45.07709" lon="6.19501">
        <ele>1909.2</ele>
        <time>2024-08-10T06:39:02Z</time>
      </trkpt>
      <trkpt lat="45.07709" lon="6.19501">
        <ele>1909.2</ele>
        <time>2024-08-10T06:39:03Z</time>
      </trkpt>
      <trkpt lat="45.07709" lon="6.19501">
        <ele>1909.2</ele>
        <time>2024-08-10T06:39:04Z</time>
      </trkpt>
      <trkpt lat="45.07709" lon="6.19501">
        <ele>1909.2</ele>
        <time>2024-08-10T06:39:05Z</time>
      </trkpt>
      <trkpt lat="45.07709" lon="6.19501">
        <ele>1909</ele>
        <time>2024-08-10T06:39:06Z</time>
      </trkpt>
      <trkpt lat="45.07709" lon="6.19501">
        <ele>1908.8</ele>
        <time>2024-08-10T06:39:07Z</time>
      </trkpt>
      <trkpt lat="45.07709" lon="6.19501">
        <ele>1908.8</ele>
        <time>2024-08-10T06:39:08Z</time>
      </trkpt>
      <trkpt lat="45.07709" lon="6.19501">
        <ele>1909.2</ele>
        <time>2024-08-10T06:39:09Z</time>
      </trkpt>
      <trkpt lat="45.07709" lon="6.19501">
        <ele>1909.2</ele>
        <time>2024-08-10T06:39:10Z</time>
      </trkpt>
      <trkpt lat="45.07709" lon="6.19501">
        <ele>1909.2</ele>
        <time>2024-08-10T06:39:11Z</time>
      </trkpt>
      <trkpt lat="45.07709" lon="6.19501">
        <ele>1909.2</ele>
        <time>2024-08-10T06:39:12Z</time>
      </trkpt>
      <trkpt lat="45.07709" lon="6.19501">
        <ele>1909</ele>
        <time>2024-08-10T06:39:13Z</time>
      </trkpt>
      <trkpt lat="45.07709" lon="6.19501">
        <ele>1909</ele>
        <time>2024-08-10T06:39:14Z</time>
      </trkpt>
      <trkpt lat="45.07709" lon="6.19501">
        <ele>1909</ele>
        <time>2024-08-10T06:39:15Z</time>
      </trkpt>
      <trkpt lat="45.07709" lon="6.19501">
        <ele>1909</ele>
        <time>2024-08-10T06:39:16Z</time>
      </trkpt>
      <trkpt lat="45.07709" lon="6.19501">
        <ele>1909</ele>
        <time>2024-08-10T06:39:17Z</time>
      </trkpt>
      <trkpt lat="45.07709" lon="6.19501">
        <ele>1908.8</ele>
        <time>2024-08-10T06:39:18Z</time>
      </trkpt>
      <trkpt lat="45.07709" lon="6.19501">
        <ele>1908.6</ele>
        <time>2024-08-10T06:39:19Z</time>
      </trkpt>
      <trkpt lat="45.07709" lon="6.19501">
        <ele>1908.2</ele>
        <time>2024-08-10T06:39:20Z</time>
      </trkpt>
      <trkpt lat="45.07709" lon="6.19501">
        <ele>1908.2</ele>
        <time>2024-08-10T06:39:21Z</time>
      </trkpt>
      <trkpt lat="45.07709" lon="6.19501">
        <ele>1908.2</ele>
        <time>2024-08-10T06:39:22Z</time>
      </trkpt>
      <trkpt lat="45.07709" lon="6.19501">
        <ele>1908.2</ele>
        <time>2024-08-10T06:39:23Z</time>
      </trkpt>
      <trkpt lat="45.07709" lon="6.19501">
        <ele>1907.8</ele>
        <time>2024-08-10T06:39:24Z</time>
      </trkpt>
      <trkpt lat="45.07709" lon="6.19501">
        <ele>1908</ele>
        <time>2024-08-10T06:39:25Z</time>
      </trkpt>
      <trkpt lat="45.07709" lon="6.19501">
        <ele>1908.4</ele>
        <time>2024-08-10T06:39:26Z</time>
      </trkpt>
      <trkpt lat="45.07709" lon="6.19501">
        <ele>1908.4</ele>
        <time>2024-08-10T06:39:27Z</time>
      </trkpt>
      <trkpt lat="45.07709" lon="6.19501">
        <ele>1908.2</ele>
        <time>2024-08-10T06:39:28Z</time>
      </trkpt>
      <trkpt lat="45.07709" lon="6.19501">
        <ele>1908</ele>
        <time>2024-08-10T06:39:29Z</time>
      </trkpt>
      <trkpt lat="45.07709" lon="6.19501">
        <ele>1908</ele>
        <time>2024-08-10T06:39:30Z</time>
      </trkpt>
      <trkpt lat="45.07709" lon="6.19501">
        <ele>1908</ele>
        <time>2024-08-10T06:39:31Z</time>
      </trkpt>
      <trkpt lat="45.07709" lon="6.19501">
        <ele>1908</ele>
        <time>2024-08-10T06:39:32Z</time>
      </trkpt>
      <trkpt lat="45.07709" lon="6.19501">
        <ele>1908.2</ele>
        <time>2024-08-10T06:39:33Z</time>
      </trkpt>
      <trkpt lat="45.07709" lon="6.19501">
        <ele>1908.4</ele>
        <time>2024-08-10T06:39:34Z</time>
      </trkpt>
      <trkpt lat="45.07709" lon="6.19501">
        <ele>1908.4</ele>
        <time>2024-08-10T06:39:35Z</time>
      </trkpt>
      <trkpt lat="45.07709" lon="6.19501">
        <ele>1908.4</ele>
        <time>2024-08-10T06:39:36Z</time>
      </trkpt>
      <trkpt lat="45.07709" lon="6.19501">
        <ele>1908.2</ele>
        <time>2024-08-10T06:39:37Z</time>
      </trkpt>
      <trkpt lat="45.07709" lon="6.19501">
        <ele>1908.2</ele>
        <time>2024-08-10T06:39:38Z</time>
      </trkpt>
      <trkpt lat="45.07709" lon="6.19501">
        <ele>1908.2</ele>
        <time>2024-08-10T06:39:39Z</time>
      </trkpt>
      <trkpt lat="45.07709" lon="6.19501">
        <ele>1908.4</ele>
        <time>2024-08-10T06:39:40Z</time>
      </trkpt>
      <trkpt lat="45.07709" lon="6.19501">
        <ele>1908.6</ele>
        <time>2024-08-10T06:39:41Z</time>
      </trkpt>
      <trkpt lat="45.07709" lon="6.19501">
        <ele>1909</ele>
        <time>2024-08-10T06:39:42Z</time>
      </trkpt>
      <trkpt lat="45.07709" lon="6.19501">
        <ele>1909</ele>
        <time>2024-08-10T06:39:43Z</time>
      </trkpt>
      <trkpt lat="45.07709" lon="6.19501">
        <ele>1909</ele>
        <time>2024-08-10T06:39:44Z</time>
      </trkpt>
      <trkpt lat="45.07709" lon="6.19501">
        <ele>1908.6</ele>
        <time>2024-08-10T06:39:45Z</time>
      </trkpt>
      <trkpt lat="45.07709" lon="6.19501">
        <ele>1908.2</ele>
        <time>2024-08-10T06:39:46Z</time>
      </trkpt>
      <trkpt lat="45.07709" lon="6.19501">
        <ele>1908.4</ele>
        <time>2024-08-10T06:39:47Z</time>
      </trkpt>
      <trkpt lat="45.07709" lon="6.19501">
        <ele>1908.4</ele>
        <time>2024-08-10T06:39:48Z</time>
      </trkpt>
      <trkpt lat="45.07709" lon="6.19501">
        <ele>1908.4</ele>
        <time>2024-08-10T06:39:49Z</time>
      </trkpt>
      <trkpt lat="45.07709" lon="6.19501">
        <ele>1908.2</ele>
        <time>2024-08-10T06:39:50Z</time>
      </trkpt>
      <trkpt lat="45.07709" lon="6.19501">
        <ele>1908</ele>
        <time>2024-08-10T06:39:51Z</time>
      </trkpt>
      <trkpt lat="45.07709" lon="6.19501">
        <ele>1908</ele>
        <time>2024-08-10T06:39:52Z</time>
      </trkpt>
      <trkpt lat="45.07709" lon="6.19501">
        <ele>1908.2</ele>
        <time>2024-08-10T06:39:53Z</time>
      </trkpt>
      <trkpt lat="45.07709" lon="6.19501">
        <ele>1908.2</ele>
        <time>2024-08-10T06:39:54Z</time>
      </trkpt>
      <trkpt lat="45.07709" lon="6.19501">
        <ele>1908.2</ele>
        <time>2024-08-10T06:39:55Z</time>
      </trkpt>
      <trkpt lat="45.07709" lon="6.19501">
        <ele>1908.4</ele>
        <time>2024-08-10T06:39:56Z</time>
      </trkpt>
      <trkpt lat="45.07709" lon="6.19501">
        <ele>1908.4</ele>
        <time>2024-08-10T06:39:57Z</time>
      </trkpt>
      <trkpt lat="45.07709" lon="6.19501">
        <ele>1908.4</ele>
        <time>2024-08-10T06:39:58Z</time>
      </trkpt>
      <trkpt lat="45.07709" lon="6.19501">
        <ele>1908.4</ele>
        <time>2024-08-10T06:39:59Z</time>
      </trkpt>
      <trkpt lat="45.07709" lon="6.19501">
        <ele>1908.4</ele>
        <time>2024-08-10T06:40:00Z</time>
      </trkpt>
      <trkpt lat="45.07709" lon="6.19501">
        <ele>1908.2</ele>
        <time>2024-08-10T06:40:01Z</time>
      </trkpt>
      <trkpt lat="45.07709" lon="6.19501">
        <ele>1908.2</ele>
        <time>2024-08-10T06:40:02Z</time>
      </trkpt>
      <trkpt lat="45.07709" lon="6.19501">
        <ele>1908.2</ele>
        <time>2024-08-10T06:40:03Z</time>
      </trkpt>
      <trkpt lat="45.07709" lon="6.19501">
        <ele>1908.2</ele>
        <time>2024-08-10T06:40:04Z</time>
      </trkpt>
      <trkpt lat="45.07709" lon="6.19501">
        <ele>1908.4</ele>
        <time>2024-08-10T06:40:05Z</time>
      </trkpt>
      <trkpt lat="45.07709" lon="6.19501">
        <ele>1908.4</ele>
        <time>2024-08-10T06:40:06Z</time>
      </trkpt>
      <trkpt lat="45.07709" lon="6.19501">
        <ele>1908.4</ele>
        <time>2024-08-10T06:40:07Z</time>
      </trkpt>
      <trkpt lat="45.07709" lon="6.19501">
        <ele>1908.4</ele>
        <time>2024-08-10T06:40:08Z</time>
      </trkpt>
      <trkpt lat="45.07709" lon="6.19501">
        <ele>1908.2</ele>
        <time>2024-08-10T06:40:09Z</time>
      </trkpt>
      <trkpt lat="45.07709" lon="6.19501">
        <ele>1908.2</ele>
        <time>2024-08-10T06:40:10Z</time>
      </trkpt>
      <trkpt lat="45.07709" lon="6.19501">
        <ele>1908.4</ele>
        <time>2024-08-10T06:40:11Z</time>
      </trkpt>
      <trkpt lat="45.07709" lon="6.19501">
        <ele>1908.4</ele>
        <time>2024-08-10T06:40:12Z</time>
      </trkpt>
      <trkpt lat="45.07709" lon="6.19501">
        <ele>1908.4</ele>
        <time>2024-08-10T06:40:13Z</time>
      </trkpt>
      <trkpt lat="45.07709" lon="6.19501">
        <ele>1908.4</ele>
        <time>2024-08-10T06:40:14Z</time>
      </trkpt>
      <trkpt lat="45.07709" lon="6.19501">
        <ele>1908.2</ele>
        <time>2024-08-10T06:40:15Z</time>
      </trkpt>
      <trkpt lat="45.07709" lon="6.19501">
        <ele>1908.2</ele>
        <time>2024-08-10T06:40:16Z</time>
      </trkpt>
      <trkpt lat="45.07709" lon="6.19501">
        <ele>1908.4</ele>
        <time>2024-08-10T06:40:17Z</time>
      </trkpt>
      <trkpt lat="45.07709" lon="6.19501">
        <ele>1908.4</ele>
        <time>2024-08-10T06:40:18Z</time>
      </trkpt>
      <trkpt lat="45.07709" lon="6.19501">
        <ele>1908.4</ele>
        <time>2024-08-10T06:40:19Z</time>
      </trkpt>
      <trkpt lat="45.07709" lon="6.19501">
        <ele>1908.4</ele>
        <time>2024-08-10T06:40:20Z</time>
      </trkpt>
      <trkpt lat="45.07709" lon="6.19501">
        <ele>1908.4</ele>
        <time>2024-08-10T06:40:21Z</time>
      </trkpt>
      <trkpt lat="45.07709" lon="6.19501">
        <ele>1908.4</ele>
        <time>2024-08-10T06:40:22Z</time>
      </trkpt>
      <trkpt lat="45.07709" lon="6.19501">
        <ele>1908.4</ele>
        <time>2024-08-10T06:40:23Z</time>
      </trkpt>
      <trkpt lat="45.07709" lon="6.19501">
        <ele>1908.4</ele>
        <time>2024-08-10T06:40:24Z</time>
      </trkpt>
      <trkpt lat="45.07709" lon="6.19501">
        <ele>1908.2</ele>
        <time>2024-08-10T06:40:25Z</time>
      </trkpt>
      <trkpt lat="45.07709" lon="6.19501">
        <ele>1908.2</ele>
        <time>2024-08-10T06:40:26Z</time>
      </trkpt>
      <trkpt lat="45.07709" lon="6.19501">
        <ele>1908.2</ele>
        <time>2024-08-10T06:40:27Z</time>
      </trkpt>
      <trkpt lat="45.07709" lon="6.19501">
        <ele>1908.4</ele>
        <time>2024-08-10T06:40:28Z</time>
      </trkpt>
      <trkpt lat="45.07709" lon="6.19501">
        <ele>1908.4</ele>
        <time>2024-08-10T06:40:29Z</time>
      </trkpt>
      <trkpt lat="45.07709" lon="6.19501">
        <ele>1908.4</ele>
        <time>2024-08-10T06:40:30Z</time>
      </trkpt>
      <trkpt lat="45.07709" lon="6.19501">
        <ele>1908.4</ele>
        <time>2024-08-10T06:40:31Z</time>
      </trkpt>
      <trkpt lat="45.07707" lon="6.195">
        <ele>1908.4</ele>
        <time>2024-08-10T06:40:32Z</time>
      </trkpt>
      <trkpt lat="45.07707" lon="6.195">
        <ele>1908.4</ele>
        <time>2024-08-10T06:40:33Z</time>
      </trkpt>
      <trkpt lat="45.07704" lon="6.19502">
        <ele>1908.4</ele>
        <time>2024-08-10T06:40:34Z</time>
      </trkpt>
      <trkpt lat="45.07704" lon="6.19502">
        <ele>1908.4</ele>
        <time>2024-08-10T06:40:35Z</time>
      </trkpt>
      <trkpt lat="45.07702" lon="6.19504">
        <ele>1908.4</ele>
        <time>2024-08-10T06:40:36Z</time>
      </trkpt>
      <trkpt lat="45.07702" lon="6.19504">
        <ele>1908.6</ele>
        <time>2024-08-10T06:40:37Z</time>
      </trkpt>
      <trkpt lat="45.077" lon="6.19506">
        <ele>1908.6</ele>
        <time>2024-08-10T06:40:38Z</time>
      </trkpt>
      <trkpt lat="45.077" lon="6.19506">
        <ele>1909</ele>
        <time>2024-08-10T06:40:39Z</time>
      </trkpt>
      <trkpt lat="45.07698" lon="6.19508">
        <ele>1909</ele>
        <time>2024-08-10T06:40:40Z</time>
      </trkpt>
      <trkpt lat="45.07698" lon="6.19508">
        <ele>1909</ele>
        <time>2024-08-10T06:40:41Z</time>
      </trkpt>
      <trkpt lat="45.07696" lon="6.1951">
        <ele>1909.2</ele>
        <time>2024-08-10T06:40:42Z</time>
      </trkpt>
      <trkpt lat="45.07696" lon="6.1951">
        <ele>1909.6</ele>
        <time>2024-08-10T06:40:43Z</time>
      </trkpt>
      <trkpt lat="45.07696" lon="6.1951">
        <ele>1909.6</ele>
        <time>2024-08-10T06:40:44Z</time>
      </trkpt>
      <trkpt lat="45.07694" lon="6.19512">
        <ele>1909.6</ele>
        <time>2024-08-10T06:40:45Z</time>
      </trkpt>
      <trkpt lat="45.07694" lon="6.19512">
        <ele>1910</ele>
        <time>2024-08-10T06:40:46Z</time>
      </trkpt>
      <trkpt lat="45.07693" lon="6.19514">
        <ele>1910.2</ele>
        <time>2024-08-10T06:40:47Z</time>
      </trkpt>
      <trkpt lat="45.07693" lon="6.19514">
        <ele>1910.2</ele>
        <time>2024-08-10T06:40:48Z</time>
      </trkpt>
      <trkpt lat="45.07691" lon="6.19516">
        <ele>1910.2</ele>
        <time>2024-08-10T06:40:49Z</time>
      </trkpt>
      <trkpt lat="45.07691" lon="6.19516">
        <ele>1910.4</ele>
        <time>2024-08-10T06:40:50Z</time>
      </trkpt>
      <trkpt lat="45.07691" lon="6.19516">
        <ele>1910.6</ele>
        <time>2024-08-10T06:40:51Z</time>
      </trkpt>
      <trkpt lat="45.07689" lon="6.19518">
        <ele>1910.8</ele>
        <time>2024-08-10T06:40:52Z</time>
      </trkpt>
      <trkpt lat="45.07689" lon="6.19518">
        <ele>1911</ele>
        <time>2024-08-10T06:40:53Z</time>
      </trkpt>
      <trkpt lat="45.07687" lon="6.19519">
        <ele>1911</ele>
        <time>2024-08-10T06:40:54Z</time>
      </trkpt>
      <trkpt lat="45.07687" lon="6.19519">
        <ele>1911.2</ele>
        <time>2024-08-10T06:40:55Z</time>
      </trkpt>
      <trkpt lat="45.07686" lon="6.19521">
        <ele>1911.4</ele>
        <time>2024-08-10T06:40:56Z</time>
      </trkpt>
      <trkpt lat="45.07686" lon="6.19521">
        <ele>1911.6</ele>
        <time>2024-08-10T06:40:57Z</time>
      </trkpt>
      <trkpt lat="45.07686" lon="6.19521">
        <ele>1912.2</ele>
        <time>2024-08-10T06:40:58Z</time>
      </trkpt>
      <trkpt lat="45.07684" lon="6.19524">
        <ele>1912.6</ele>
        <time>2024-08-10T06:40:59Z</time>
      </trkpt>
      <trkpt lat="45.07684" lon="6.19524">
        <ele>1912.6</ele>
        <time>2024-08-10T06:41:00Z</time>
      </trkpt>
      <trkpt lat="45.07684" lon="6.19524">
        <ele>1912.4</ele>
        <time>2024-08-10T06:41:01Z</time>
      </trkpt>
      <trkpt lat="45.07682" lon="6.19526">
        <ele>1912.4</ele>
        <time>2024-08-10T06:41:02Z</time>
      </trkpt>
      <trkpt lat="45.07682" lon="6.19526">
        <ele>1912.6</ele>
        <time>2024-08-10T06:41:03Z</time>
      </trkpt>
      <trkpt lat="45.07682" lon="6.19526">
        <ele>1912.6</ele>
        <time>2024-08-10T06:41:04Z</time>
      </trkpt>
      <trkpt lat="45.07681" lon="6.19529">
        <ele>1912.6</ele>
        <time>2024-08-10T06:41:05Z</time>
      </trkpt>
      <trkpt lat="45.07681" lon="6.19529">
        <ele>1912.6</ele>
        <time>2024-08-10T06:41:06Z</time>
      </trkpt>
      <trkpt lat="45.07679" lon="6.19532">
        <ele>1913</ele>
        <time>2024-08-10T06:41:07Z</time>
      </trkpt>
      <trkpt lat="45.07679" lon="6.19532">
        <ele>1913.2</ele>
        <time>2024-08-10T06:41:08Z</time>
      </trkpt>
      <trkpt lat="45.07678" lon="6.19534">
        <ele>1913.4</ele>
        <time>2024-08-10T06:41:09Z</time>
      </trkpt>
      <trkpt lat="45.07678" lon="6.19534">
        <ele>1913.8</ele>
        <time>2024-08-10T06:41:10Z</time>
      </trkpt>
      <trkpt lat="45.07676" lon="6.19536">
        <ele>1914</ele>
        <time>2024-08-10T06:41:11Z</time>
      </trkpt>
      <trkpt lat="45.07676" lon="6.19536">
        <ele>1914.2</ele>
        <time>2024-08-10T06:41:12Z</time>
      </trkpt>
      <trkpt lat="45.07676" lon="6.19536">
        <ele>1914.4</ele>
        <time>2024-08-10T06:41:13Z</time>
      </trkpt>
      <trkpt lat="45.07674" lon="6.19538">
        <ele>1914.4</ele>
        <time>2024-08-10T06:41:14Z</time>
      </trkpt>
      <trkpt lat="45.07674" lon="6.19538">
        <ele>1914.4</ele>
        <time>2024-08-10T06:41:15Z</time>
      </trkpt>
      <trkpt lat="45.07674" lon="6.19538">
        <ele>1914.4</ele>
        <time>2024-08-10T06:41:16Z</time>
      </trkpt>
      <trkpt lat="45.07672" lon="6.1954">
        <ele>1914.6</ele>
        <time>2024-08-10T06:41:17Z</time>
      </trkpt>
      <trkpt lat="45.07672" lon="6.1954">
        <ele>1914.8</ele>
        <time>2024-08-10T06:41:18Z</time>
      </trkpt>
      <trkpt lat="45.07672" lon="6.1954">
        <ele>1914.8</ele>
        <time>2024-08-10T06:41:19Z</time>
      </trkpt>
      <trkpt lat="45.0767" lon="6.19542">
        <ele>1915.4</ele>
        <time>2024-08-10T06:41:20Z</time>
      </trkpt>
      <trkpt lat="45.0767" lon="6.19542">
        <ele>1915.6</ele>
        <time>2024-08-10T06:41:21Z</time>
      </trkpt>
      <trkpt lat="45.0767" lon="6.19542">
        <ele>1915.6</ele>
        <time>2024-08-10T06:41:22Z</time>
      </trkpt>
      <trkpt lat="45.07669" lon="6.19545">
        <ele>1915.6</ele>
        <time>2024-08-10T06:41:23Z</time>
      </trkpt>
      <trkpt lat="45.07669" lon="6.19545">
        <ele>1915.8</ele>
        <time>2024-08-10T06:41:24Z</time>
      </trkpt>
      <trkpt lat="45.07667" lon="6.19546">
        <ele>1916</ele>
        <time>2024-08-10T06:41:25Z</time>
      </trkpt>
      <trkpt lat="45.07667" lon="6.19546">
        <ele>1916</ele>
        <time>2024-08-10T06:41:26Z</time>
      </trkpt>
      <trkpt lat="45.07667" lon="6.19546">
        <ele>1916.2</ele>
        <time>2024-08-10T06:41:27Z</time>
      </trkpt>
      <trkpt lat="45.07665" lon="6.19548">
        <ele>1916.6</ele>
        <time>2024-08-10T06:41:28Z</time>
      </trkpt>
      <trkpt lat="45.07665" lon="6.19548">
        <ele>1916.6</ele>
        <time>2024-08-10T06:41:29Z</time>
      </trkpt>
      <trkpt lat="45.07665" lon="6.19548">
        <ele>1916.8</ele>
        <time>2024-08-10T06:41:30Z</time>
      </trkpt>
      <trkpt lat="45.07663" lon="6.19549">
        <ele>1917.2</ele>
        <time>2024-08-10T06:41:31Z</time>
      </trkpt>
      <trkpt lat="45.07663" lon="6.19549">
        <ele>1917.4</ele>
        <time>2024-08-10T06:41:32Z</time>
      </trkpt>
      <trkpt lat="45.07663" lon="6.19549">
        <ele>1917.6</ele>
        <time>2024-08-10T06:41:33Z</time>
      </trkpt>
      <trkpt lat="45.07661" lon="6.1955">
        <ele>1918</ele>
        <time>2024-08-10T06:41:34Z</time>
      </trkpt>
      <trkpt lat="45.07661" lon="6.1955">
        <ele>1918</ele>
        <time>2024-08-10T06:41:35Z</time>
      </trkpt>
      <trkpt lat="45.07659" lon="6.19551">
        <ele>1918</ele>
        <time>2024-08-10T06:41:36Z</time>
      </trkpt>
      <trkpt lat="45.07659" lon="6.19551">
        <ele>1918.4</ele>
        <time>2024-08-10T06:41:37Z</time>
      </trkpt>
      <trkpt lat="45.07658" lon="6.19553">
        <ele>1918.6</ele>
        <time>2024-08-10T06:41:38Z</time>
      </trkpt>
      <trkpt lat="45.07658" lon="6.19553">
        <ele>1918.8</ele>
        <time>2024-08-10T06:41:39Z</time>
      </trkpt>
      <trkpt lat="45.07656" lon="6.19554">
        <ele>1919</ele>
        <time>2024-08-10T06:41:40Z</time>
      </trkpt>
      <trkpt lat="45.07656" lon="6.19554">
        <ele>1919</ele>
        <time>2024-08-10T06:41:41Z</time>
      </trkpt>
      <trkpt lat="45.07656" lon="6.19554">
        <ele>1919.4</ele>
        <time>2024-08-10T06:41:42Z</time>
      </trkpt>
      <trkpt lat="45.07654" lon="6.19557">
        <ele>1919.6</ele>
        <time>2024-08-10T06:41:43Z</time>
      </trkpt>
      <trkpt lat="45.07654" lon="6.19557">
        <ele>1919.8</ele>
        <time>2024-08-10T06:41:44Z</time>
      </trkpt>
      <trkpt lat="45.07654" lon="6.19557">
        <ele>1920</ele>
        <time>2024-08-10T06:41:45Z</time>
      </trkpt>
      <trkpt lat="45.07654" lon="6.19557">
        <ele>1920.2</ele>
        <time>2024-08-10T06:41:46Z</time>
      </trkpt>
      <trkpt lat="45.07652" lon="6.19559">
        <ele>1920.4</ele>
        <time>2024-08-10T06:41:47Z</time>
      </trkpt>
      <trkpt lat="45.07652" lon="6.19559">
        <ele>1920.8</ele>
        <time>2024-08-10T06:41:48Z</time>
      </trkpt>
      <trkpt lat="45.07652" lon="6.19559">
        <ele>1921</ele>
        <time>2024-08-10T06:41:49Z</time>
      </trkpt>
      <trkpt lat="45.0765" lon="6.19559">
        <ele>1921</ele>
        <time>2024-08-10T06:41:50Z</time>
      </trkpt>
      <trkpt lat="45.0765" lon="6.19559">
        <ele>1921</ele>
        <time>2024-08-10T06:41:51Z</time>
      </trkpt>
      <trkpt lat="45.07648" lon="6.19558">
        <ele>1921.2</ele>
        <time>2024-08-10T06:41:52Z</time>
      </trkpt>
      <trkpt lat="45.07648" lon="6.19558">
        <ele>1921.2</ele>
        <time>2024-08-10T06:41:53Z</time>
      </trkpt>
      <trkpt lat="45.07648" lon="6.19558">
        <ele>1921.8</ele>
        <time>2024-08-10T06:41:54Z</time>
      </trkpt>
      <trkpt lat="45.07646" lon="6.19556">
        <ele>1922.2</ele>
        <time>2024-08-10T06:41:55Z</time>
      </trkpt>
      <trkpt lat="45.07646" lon="6.19556">
        <ele>1922.2</ele>
        <time>2024-08-10T06:41:56Z</time>
      </trkpt>
      <trkpt lat="45.07646" lon="6.19556">
        <ele>1922.2</ele>
        <time>2024-08-10T06:41:57Z</time>
      </trkpt>
      <trkpt lat="45.07646" lon="6.19556">
        <ele>1922.4</ele>
        <time>2024-08-10T06:41:58Z</time>
      </trkpt>
      <trkpt lat="45.07644" lon="6.19556">
        <ele>1922.4</ele>
        <time>2024-08-10T06:41:59Z</time>
      </trkpt>
      <trkpt lat="45.07644" lon="6.19556">
        <ele>1923</ele>
        <time>2024-08-10T06:42:00Z</time>
      </trkpt>
      <trkpt lat="45.07644" lon="6.19556">
        <ele>1923</ele>
        <time>2024-08-10T06:42:01Z</time>
      </trkpt>
      <trkpt lat="45.07642" lon="6.19558">
        <ele>1923.4</ele>
        <time>2024-08-10T06:42:02Z</time>
      </trkpt>
      <trkpt lat="45.07642" lon="6.19558">
        <ele>1923.8</ele>
        <time>2024-08-10T06:42:03Z</time>
      </trkpt>
      <trkpt lat="45.07642" lon="6.19558">
        <ele>1923.8</ele>
        <time>2024-08-10T06:42:04Z</time>
      </trkpt>
      <trkpt lat="45.0764" lon="6.19559">
        <ele>1924</ele>
        <time>2024-08-10T06:42:05Z</time>
      </trkpt>
      <trkpt lat="45.0764" lon="6.19559">
        <ele>1924</ele>
        <time>2024-08-10T06:42:06Z</time>
      </trkpt>
      <trkpt lat="45.0764" lon="6.19559">
        <ele>1924</ele>
        <time>2024-08-10T06:42:07Z</time>
      </trkpt>
      <trkpt lat="45.07638" lon="6.1956">
        <ele>1924</ele>
        <time>2024-08-10T06:42:08Z</time>
      </trkpt>
      <trkpt lat="45.07638" lon="6.1956">
        <ele>1924.6</ele>
        <time>2024-08-10T06:42:09Z</time>
      </trkpt>
      <trkpt lat="45.07638" lon="6.1956">
        <ele>1924.6</ele>
        <time>2024-08-10T06:42:10Z</time>
      </trkpt>
      <trkpt lat="45.07638" lon="6.1956">
        <ele>1925</ele>
        <time>2024-08-10T06:42:11Z</time>
      </trkpt>
      <trkpt lat="45.07637" lon="6.19562">
        <ele>1925</ele>
        <time>2024-08-10T06:42:12Z</time>
      </trkpt>
      <trkpt lat="45.07637" lon="6.19562">
        <ele>1925.2</ele>
        <time>2024-08-10T06:42:13Z</time>
      </trkpt>
      <trkpt lat="45.07637" lon="6.19562">
        <ele>1925.2</ele>
        <time>2024-08-10T06:42:14Z</time>
      </trkpt>
      <trkpt lat="45.07636" lon="6.19565">
        <ele>1925.6</ele>
        <time>2024-08-10T06:42:15Z</time>
      </trkpt>
      <trkpt lat="45.07636" lon="6.19565">
        <ele>1925.8</ele>
        <time>2024-08-10T06:42:16Z</time>
      </trkpt>
      <trkpt lat="45.07636" lon="6.19565">
        <ele>1926</ele>
        <time>2024-08-10T06:42:17Z</time>
      </trkpt>
      <trkpt lat="45.07636" lon="6.19568">
        <ele>1926</ele>
        <time>2024-08-10T06:42:18Z</time>
      </trkpt>
      <trkpt lat="45.07636" lon="6.19568">
        <ele>1926</ele>
        <time>2024-08-10T06:42:19Z</time>
      </trkpt>
      <trkpt lat="45.07636" lon="6.19568">
        <ele>1926.2</ele>
        <time>2024-08-10T06:42:20Z</time>
      </trkpt>
      <trkpt lat="45.07636" lon="6.19571">
        <ele>1926.6</ele>
        <time>2024-08-10T06:42:21Z</time>
      </trkpt>
      <trkpt lat="45.07636" lon="6.19571">
        <ele>1927</ele>
        <time>2024-08-10T06:42:22Z</time>
      </trkpt>
      <trkpt lat="45.07636" lon="6.19571">
        <ele>1927</ele>
        <time>2024-08-10T06:42:23Z</time>
      </trkpt>
      <trkpt lat="45.07635" lon="6.19574">
        <ele>1927.6</ele>
        <time>2024-08-10T06:42:24Z</time>
      </trkpt>
      <trkpt lat="45.07635" lon="6.19574">
        <ele>1927.8</ele>
        <time>2024-08-10T06:42:25Z</time>
      </trkpt>
      <trkpt lat="45.07635" lon="6.19574">
        <ele>1927.8</ele>
        <time>2024-08-10T06:42:26Z</time>
      </trkpt>
      <trkpt lat="45.07634" lon="6.19577">
        <ele>1928</ele>
        <time>2024-08-10T06:42:27Z</time>
      </trkpt>
      <trkpt lat="45.07634" lon="6.19577">
        <ele>1928</ele>
        <time>2024-08-10T06:42:28Z</time>
      </trkpt>
      <trkpt lat="45.07632" lon="6.19577">
        <ele>1928</ele>
        <time>2024-08-10T06:42:29Z</time>
      </trkpt>
      <trkpt lat="45.07632" lon="6.19577">
        <ele>1928.2</ele>
        <time>2024-08-10T06:42:30Z</time>
      </trkpt>
      <trkpt lat="45.07632" lon="6.19577">
        <ele>1928.6</ele>
        <time>2024-08-10T06:42:31Z</time>
      </trkpt>
      <trkpt lat="45.07629" lon="6.19577">
        <ele>1928.8</ele>
        <time>2024-08-10T06:42:32Z</time>
      </trkpt>
      <trkpt lat="45.07629" lon="6.19577">
        <ele>1929</ele>
        <time>2024-08-10T06:42:33Z</time>
      </trkpt>
      <trkpt lat="45.07629" lon="6.19577">
        <ele>1929.4</ele>
        <time>2024-08-10T06:42:34Z</time>
      </trkpt>
      <trkpt lat="45.07629" lon="6.19577">
        <ele>1929.4</ele>
        <time>2024-08-10T06:42:35Z</time>
      </trkpt>
      <trkpt lat="45.07627" lon="6.19577">
        <ele>1929.4</ele>
        <time>2024-08-10T06:42:36Z</time>
      </trkpt>
      <trkpt lat="45.07627" lon="6.19577">
        <ele>1930</ele>
        <time>2024-08-10T06:42:37Z</time>
      </trkpt>
      <trkpt lat="45.07627" lon="6.19577">
        <ele>1930.4</ele>
        <time>2024-08-10T06:42:38Z</time>
      </trkpt>
      <trkpt lat="45.07624" lon="6.19577">
        <ele>1930.4</ele>
        <time>2024-08-10T06:42:39Z</time>
      </trkpt>
      <trkpt lat="45.07624" lon="6.19577">
        <ele>1930.8</ele>
        <time>2024-08-10T06:42:40Z</time>
      </trkpt>
      <trkpt lat="45.07624" lon="6.19577">
        <ele>1930.8</ele>
        <time>2024-08-10T06:42:41Z</time>
      </trkpt>
      <trkpt lat="45.07624" lon="6.19577">
        <ele>1931</ele>
        <time>2024-08-10T06:42:42Z</time>
      </trkpt>
      <trkpt lat="45.07624" lon="6.19577">
        <ele>1931</ele>
        <time>2024-08-10T06:42:43Z</time>
      </trkpt>
      <trkpt lat="45.07624" lon="6.19577">
        <ele>1931.4</ele>
        <time>2024-08-10T06:42:44Z</time>
      </trkpt>
      <trkpt lat="45.07624" lon="6.19577">
        <ele>1931.4</ele>
        <time>2024-08-10T06:42:45Z</time>
      </trkpt>
      <trkpt lat="45.07623" lon="6.19581">
        <ele>1931.6</ele>
        <time>2024-08-10T06:42:46Z</time>
      </trkpt>
      <trkpt lat="45.07623" lon="6.19581">
        <ele>1931.6</ele>
        <time>2024-08-10T06:42:47Z</time>
      </trkpt>
      <trkpt lat="45.07622" lon="6.19584">
        <ele>1931.6</ele>
        <time>2024-08-10T06:42:48Z</time>
      </trkpt>
      <trkpt lat="45.07622" lon="6.19584">
        <ele>1931.6</ele>
        <time>2024-08-10T06:42:49Z</time>
      </trkpt>
      <trkpt lat="45.07622" lon="6.19584">
        <ele>1932.2</ele>
        <time>2024-08-10T06:42:50Z</time>
      </trkpt>
      <trkpt lat="45.0762" lon="6.19586">
        <ele>1932.4</ele>
        <time>2024-08-10T06:42:51Z</time>
      </trkpt>
      <trkpt lat="45.0762" lon="6.19586">
        <ele>1932.6</ele>
        <time>2024-08-10T06:42:52Z</time>
      </trkpt>
      <trkpt lat="45.0762" lon="6.19586">
        <ele>1932.6</ele>
        <time>2024-08-10T06:42:53Z</time>
      </trkpt>
      <trkpt lat="45.07618" lon="6.19588">
        <ele>1932.8</ele>
        <time>2024-08-10T06:42:54Z</time>
      </trkpt>
      <trkpt lat="45.07618" lon="6.19588">
        <ele>1933.2</ele>
        <time>2024-08-10T06:42:55Z</time>
      </trkpt>
      <trkpt lat="45.07616" lon="6.19588">
        <ele>1933.2</ele>
        <time>2024-08-10T06:42:56Z</time>
      </trkpt>
      <trkpt lat="45.07616" lon="6.19588">
        <ele>1933.2</ele>
        <time>2024-08-10T06:42:57Z</time>
      </trkpt>
      <trkpt lat="45.07616" lon="6.19588">
        <ele>1933.6</ele>
        <time>2024-08-10T06:42:58Z</time>
      </trkpt>
      <trkpt lat="45.07614" lon="6.1959">
        <ele>1933.6</ele>
        <time>2024-08-10T06:42:59Z</time>
      </trkpt>
      <trkpt lat="45.07614" lon="6.1959">
        <ele>1933.8</ele>
        <time>2024-08-10T06:43:00Z</time>
      </trkpt>
      <trkpt lat="45.07614" lon="6.1959">
        <ele>1934</ele>
        <time>2024-08-10T06:43:01Z</time>
      </trkpt>
      <trkpt lat="45.07612" lon="6.19592">
        <ele>1934.2</ele>
        <time>2024-08-10T06:43:02Z</time>
      </trkpt>
      <trkpt lat="45.07612" lon="6.19592">
        <ele>1934.8</ele>
        <time>2024-08-10T06:43:03Z</time>
      </trkpt>
      <trkpt lat="45.07612" lon="6.19592">
        <ele>1934.8</ele>
        <time>2024-08-10T06:43:04Z</time>
      </trkpt>
      <trkpt lat="45.07612" lon="6.19592">
        <ele>1935</ele>
        <time>2024-08-10T06:43:05Z</time>
      </trkpt>
      <trkpt lat="45.07613" lon="6.19595">
        <ele>1935.2</ele>
        <time>2024-08-10T06:43:06Z</time>
      </trkpt>
      <trkpt lat="45.07613" lon="6.19595">
        <ele>1935.2</ele>
        <time>2024-08-10T06:43:07Z</time>
      </trkpt>
      <trkpt lat="45.07615" lon="6.19595">
        <ele>1935.4</ele>
        <time>2024-08-10T06:43:08Z</time>
      </trkpt>
      <trkpt lat="45.07615" lon="6.19595">
        <ele>1935.6</ele>
        <time>2024-08-10T06:43:09Z</time>
      </trkpt>
      <trkpt lat="45.07617" lon="6.19595">
        <ele>1936</ele>
        <time>2024-08-10T06:43:10Z</time>
      </trkpt>
      <trkpt lat="45.07617" lon="6.19595">
        <ele>1936.2</ele>
        <time>2024-08-10T06:43:11Z</time>
      </trkpt>
      <trkpt lat="45.07617" lon="6.19595">
        <ele>1936.6</ele>
        <time>2024-08-10T06:43:12Z</time>
      </trkpt>
      <trkpt lat="45.07619" lon="6.19597">
        <ele>1936.6</ele>
        <time>2024-08-10T06:43:13Z</time>
      </trkpt>
      <trkpt lat="45.07619" lon="6.19597">
        <ele>1936.6</ele>
        <time>2024-08-10T06:43:14Z</time>
      </trkpt>
      <trkpt lat="45.07619" lon="6.19597">
        <ele>1937</ele>
        <time>2024-08-10T06:43:15Z</time>
      </trkpt>
      <trkpt lat="45.07619" lon="6.19597">
        <ele>1937.4</ele>
        <time>2024-08-10T06:43:16Z</time>
      </trkpt>
      <trkpt lat="45.07619" lon="6.19597">
        <ele>1937.4</ele>
        <time>2024-08-10T06:43:17Z</time>
      </trkpt>
      <trkpt lat="45.07619" lon="6.19597">
        <ele>1937.6</ele>
        <time>2024-08-10T06:43:18Z</time>
      </trkpt>
      <trkpt lat="45.07621" lon="6.19599">
        <ele>1937.8</ele>
        <time>2024-08-10T06:43:19Z</time>
      </trkpt>
      <trkpt lat="45.07621" lon="6.19599">
        <ele>1938</ele>
        <time>2024-08-10T06:43:20Z</time>
      </trkpt>
      <trkpt lat="45.07622" lon="6.19601">
        <ele>1938</ele>
        <time>2024-08-10T06:43:21Z</time>
      </trkpt>
      <trkpt lat="45.07622" lon="6.19601">
        <ele>1938.2</ele>
        <time>2024-08-10T06:43:22Z</time>
      </trkpt>
      <trkpt lat="45.07624" lon="6.19603">
        <ele>1938.8</ele>
        <time>2024-08-10T06:43:23Z</time>
      </trkpt>
      <trkpt lat="45.07624" lon="6.19603">
        <ele>1938.8</ele>
        <time>2024-08-10T06:43:24Z</time>
      </trkpt>
      <trkpt lat="45.07624" lon="6.19603">
        <ele>1938.8</ele>
        <time>2024-08-10T06:43:25Z</time>
      </trkpt>
      <trkpt lat="45.07624" lon="6.19607">
        <ele>1939.2</ele>
        <time>2024-08-10T06:43:26Z</time>
      </trkpt>
      <trkpt lat="45.07624" lon="6.19607">
        <ele>1939.2</ele>
        <time>2024-08-10T06:43:27Z</time>
      </trkpt>
      <trkpt lat="45.07624" lon="6.19607">
        <ele>1939.4</ele>
        <time>2024-08-10T06:43:28Z</time>
      </trkpt>
      <trkpt lat="45.07622" lon="6.19609">
        <ele>1939.6</ele>
        <time>2024-08-10T06:43:29Z</time>
      </trkpt>
      <trkpt lat="45.07622" lon="6.19609">
        <ele>1939.6</ele>
        <time>2024-08-10T06:43:30Z</time>
      </trkpt>
      <trkpt lat="45.07622" lon="6.19609">
        <ele>1940</ele>
        <time>2024-08-10T06:43:31Z</time>
      </trkpt>
      <trkpt lat="45.07622" lon="6.19611">
        <ele>1940.4</ele>
        <time>2024-08-10T06:43:32Z</time>
      </trkpt>
      <trkpt lat="45.07622" lon="6.19611">
        <ele>1940.4</ele>
        <time>2024-08-10T06:43:33Z</time>
      </trkpt>
      <trkpt lat="45.07622" lon="6.19611">
        <ele>1940.6</ele>
        <time>2024-08-10T06:43:34Z</time>
      </trkpt>
      <trkpt lat="45.07621" lon="6.19614">
        <ele>1940.8</ele>
        <time>2024-08-10T06:43:35Z</time>
      </trkpt>
      <trkpt lat="45.07621" lon="6.19614">
        <ele>1940.8</ele>
        <time>2024-08-10T06:43:36Z</time>
      </trkpt>
      <trkpt lat="45.07621" lon="6.19614">
        <ele>1940.8</ele>
        <time>2024-08-10T06:43:37Z</time>
      </trkpt>
      <trkpt lat="45.07621" lon="6.19617">
        <ele>1941.4</ele>
        <time>2024-08-10T06:43:38Z</time>
      </trkpt>
      <trkpt lat="45.07621" lon="6.19617">
        <ele>1941.6</ele>
        <time>2024-08-10T06:43:39Z</time>
      </trkpt>
      <trkpt lat="45.07621" lon="6.19617">
        <ele>1941.8</ele>
        <time>2024-08-10T06:43:40Z</time>
      </trkpt>
      <trkpt lat="45.07622" lon="6.1962">
        <ele>1942</ele>
        <time>2024-08-10T06:43:41Z</time>
      </trkpt>
      <trkpt lat="45.07622" lon="6.1962">
        <ele>1942</ele>
        <time>2024-08-10T06:43:42Z</time>
      </trkpt>
      <trkpt lat="45.07622" lon="6.1962">
        <ele>1942.2</ele>
        <time>2024-08-10T06:43:43Z</time>
      </trkpt>
      <trkpt lat="45.07624" lon="6.1962">
        <ele>1942.6</ele>
        <time>2024-08-10T06:43:44Z</time>
      </trkpt>
      <trkpt lat="45.07624" lon="6.1962">
        <ele>1943</ele>
        <time>2024-08-10T06:43:45Z</time>
      </trkpt>
      <trkpt lat="45.07624" lon="6.1962">
        <ele>1943</ele>
        <time>2024-08-10T06:43:46Z</time>
      </trkpt>
      <trkpt lat="45.07626" lon="6.19622">
        <ele>1943.4</ele>
        <time>2024-08-10T06:43:47Z</time>
      </trkpt>
      <trkpt lat="45.07626" lon="6.19622">
        <ele>1943.4</ele>
        <time>2024-08-10T06:43:48Z</time>
      </trkpt>
      <trkpt lat="45.07626" lon="6.19622">
        <ele>1943.6</ele>
        <time>2024-08-10T06:43:49Z</time>
      </trkpt>
      <trkpt lat="45.07628" lon="6.19623">
        <ele>1944</ele>
        <time>2024-08-10T06:43:50Z</time>
      </trkpt>
      <trkpt lat="45.07628" lon="6.19623">
        <ele>1944.4</ele>
        <time>2024-08-10T06:43:51Z</time>
      </trkpt>
      <trkpt lat="45.07629" lon="6.19624">
        <ele>1944.6</ele>
        <time>2024-08-10T06:43:52Z</time>
      </trkpt>
      <trkpt lat="45.07629" lon="6.19624">
        <ele>1944.8</ele>
        <time>2024-08-10T06:43:53Z</time>
      </trkpt>
      <trkpt lat="45.07629" lon="6.19624">
        <ele>1944.8</ele>
        <time>2024-08-10T06:43:54Z</time>
      </trkpt>
      <trkpt lat="45.0763" lon="6.19627">
        <ele>1945.2</ele>
        <time>2024-08-10T06:43:55Z</time>
      </trkpt>
      <trkpt lat="45.0763" lon="6.19627">
        <ele>1945.2</ele>
        <time>2024-08-10T06:43:56Z</time>
      </trkpt>
      <trkpt lat="45.0763" lon="6.19627">
        <ele>1945.2</ele>
        <time>2024-08-10T06:43:57Z</time>
      </trkpt>
      <trkpt lat="45.07631" lon="6.1963">
        <ele>1945.4</ele>
        <time>2024-08-10T06:43:58Z</time>
      </trkpt>
      <trkpt lat="45.07631" lon="6.1963">
        <ele>1945.8</ele>
        <time>2024-08-10T06:43:59Z</time>
      </trkpt>
      <trkpt lat="45.07631" lon="6.1963">
        <ele>1945.8</ele>
        <time>2024-08-10T06:44:00Z</time>
      </trkpt>
      <trkpt lat="45.07632" lon="6.19632">
        <ele>1946</ele>
        <time>2024-08-10T06:44:01Z</time>
      </trkpt>
      <trkpt lat="45.07632" lon="6.19632">
        <ele>1946.4</ele>
        <time>2024-08-10T06:44:02Z</time>
      </trkpt>
      <trkpt lat="45.07632" lon="6.19632">
        <ele>1946.8</ele>
        <time>2024-08-10T06:44:03Z</time>
      </trkpt>
      <trkpt lat="45.07634" lon="6.19634">
        <ele>1946.8</ele>
        <time>2024-08-10T06:44:04Z</time>
      </trkpt>
      <trkpt lat="45.07634" lon="6.19634">
        <ele>1947</ele>
        <time>2024-08-10T06:44:05Z</time>
      </trkpt>
      <trkpt lat="45.07635" lon="6.19636">
        <ele>1947.2</ele>
        <time>2024-08-10T06:44:06Z</time>
      </trkpt>
      <trkpt lat="45.07635" lon="6.19636">
        <ele>1947.4</ele>
        <time>2024-08-10T06:44:07Z</time>
      </trkpt>
      <trkpt lat="45.07635" lon="6.19636">
        <ele>1947.6</ele>
        <time>2024-08-10T06:44:08Z</time>
      </trkpt>
      <trkpt lat="45.07637" lon="6.19638">
        <ele>1947.8</ele>
        <time>2024-08-10T06:44:09Z</time>
      </trkpt>
      <trkpt lat="45.07637" lon="6.19638">
        <ele>1948</ele>
        <time>2024-08-10T06:44:10Z</time>
      </trkpt>
      <trkpt lat="45.07637" lon="6.19638">
        <ele>1948.2</ele>
        <time>2024-08-10T06:44:11Z</time>
      </trkpt>
      <trkpt lat="45.07637" lon="6.19638">
        <ele>1948.2</ele>
        <time>2024-08-10T06:44:12Z</time>
      </trkpt>
      <trkpt lat="45.07637" lon="6.19642">
        <ele>1948.8</ele>
        <time>2024-08-10T06:44:13Z</time>
      </trkpt>
      <trkpt lat="45.07637" lon="6.19642">
        <ele>1948.8</ele>
        <time>2024-08-10T06:44:14Z</time>
      </trkpt>
      <trkpt lat="45.07637" lon="6.19642">
        <ele>1949</ele>
        <time>2024-08-10T06:44:15Z</time>
      </trkpt>
      <trkpt lat="45.07637" lon="6.19645">
        <ele>1949.2</ele>
        <time>2024-08-10T06:44:16Z</time>
      </trkpt>
      <trkpt lat="45.07637" lon="6.19645">
        <ele>1949.2</ele>
        <time>2024-08-10T06:44:17Z</time>
      </trkpt>
      <trkpt lat="45.07636" lon="6.19646">
        <ele>1949.6</ele>
        <time>2024-08-10T06:44:18Z</time>
      </trkpt>
      <trkpt lat="45.07636" lon="6.19646">
        <ele>1949.8</ele>
        <time>2024-08-10T06:44:19Z</time>
      </trkpt>
      <trkpt lat="45.07634" lon="6.19647">
        <ele>1950</ele>
        <time>2024-08-10T06:44:20Z</time>
      </trkpt>
      <trkpt lat="45.07634" lon="6.19647">
        <ele>1950</ele>
        <time>2024-08-10T06:44:21Z</time>
      </trkpt>
      <trkpt lat="45.07634" lon="6.19647">
        <ele>1950.2</ele>
        <time>2024-08-10T06:44:22Z</time>
      </trkpt>
      <trkpt lat="45.07632" lon="6.19649">
        <ele>1950.2</ele>
        <time>2024-08-10T06:44:23Z</time>
      </trkpt>
      <trkpt lat="45.07632" lon="6.19649">
        <ele>1950.4</ele>
        <time>2024-08-10T06:44:24Z</time>
      </trkpt>
      <trkpt lat="45.07632" lon="6.19649">
        <ele>1950.6</ele>
        <time>2024-08-10T06:44:25Z</time>
      </trkpt>
      <trkpt lat="45.07632" lon="6.19649">
        <ele>1950.8</ele>
        <time>2024-08-10T06:44:26Z</time>
      </trkpt>
      <trkpt lat="45.07632" lon="6.19649">
        <ele>1950.8</ele>
        <time>2024-08-10T06:44:27Z</time>
      </trkpt>
      <trkpt lat="45.07632" lon="6.19652">
        <ele>1951.2</ele>
        <time>2024-08-10T06:44:28Z</time>
      </trkpt>
      <trkpt lat="45.07632" lon="6.19652">
        <ele>1951.6</ele>
        <time>2024-08-10T06:44:29Z</time>
      </trkpt>
      <trkpt lat="45.07632" lon="6.19652">
        <ele>1951.8</ele>
        <time>2024-08-10T06:44:30Z</time>
      </trkpt>
      <trkpt lat="45.07634" lon="6.19653">
        <ele>1951.8</ele>
        <time>2024-08-10T06:44:31Z</time>
      </trkpt>
      <trkpt lat="45.07634" lon="6.19653">
        <ele>1952</ele>
        <time>2024-08-10T06:44:32Z</time>
      </trkpt>
      <trkpt lat="45.07634" lon="6.19653">
        <ele>1952.2</ele>
        <time>2024-08-10T06:44:33Z</time>
      </trkpt>
      <trkpt lat="45.07637" lon="6.19654">
        <ele>1952.6</ele>
        <time>2024-08-10T06:44:34Z</time>
      </trkpt>
      <trkpt lat="45.07637" lon="6.19654">
        <ele>1952.6</ele>
        <time>2024-08-10T06:44:35Z</time>
      </trkpt>
      <trkpt lat="45.07637" lon="6.19654">
        <ele>1952.8</ele>
        <time>2024-08-10T06:44:36Z</time>
      </trkpt>
      <trkpt lat="45.07639" lon="6.19656">
        <ele>1953</ele>
        <time>2024-08-10T06:44:37Z</time>
      </trkpt>
      <trkpt lat="45.07639" lon="6.19656">
        <ele>1953.2</ele>
        <time>2024-08-10T06:44:38Z</time>
      </trkpt>
      <trkpt lat="45.07641" lon="6.19658">
        <ele>1953.4</ele>
        <time>2024-08-10T06:44:39Z</time>
      </trkpt>
      <trkpt lat="45.07641" lon="6.19658">
        <ele>1953.6</ele>
        <time>2024-08-10T06:44:40Z</time>
      </trkpt>
      <trkpt lat="45.07641" lon="6.19658">
        <ele>1953.6</ele>
        <time>2024-08-10T06:44:41Z</time>
      </trkpt>
      <trkpt lat="45.07642" lon="6.19661">
        <ele>1953.8</ele>
        <time>2024-08-10T06:44:42Z</time>
      </trkpt>
      <trkpt lat="45.07642" lon="6.19661">
        <ele>1953.8</ele>
        <time>2024-08-10T06:44:43Z</time>
      </trkpt>
      <trkpt lat="45.07644" lon="6.19663">
        <ele>1954.2</ele>
        <time>2024-08-10T06:44:44Z</time>
      </trkpt>
      <trkpt lat="45.07644" lon="6.19663">
        <ele>1954.2</ele>
        <time>2024-08-10T06:44:45Z</time>
      </trkpt>
      <trkpt lat="45.07645" lon="6.19665">
        <ele>1954.4</ele>
        <time>2024-08-10T06:44:46Z</time>
      </trkpt>
      <trkpt lat="45.07645" lon="6.19665">
        <ele>1954.6</ele>
        <time>2024-08-10T06:44:47Z</time>
      </trkpt>
      <trkpt lat="45.07645" lon="6.19665">
        <ele>1954.6</ele>
        <time>2024-08-10T06:44:48Z</time>
      </trkpt>
      <trkpt lat="45.07645" lon="6.19668">
        <ele>1954.8</ele>
        <time>2024-08-10T06:44:49Z</time>
      </trkpt>
      <trkpt lat="45.07645" lon="6.19668">
        <ele>1954.8</ele>
        <time>2024-08-10T06:44:50Z</time>
      </trkpt>
      <trkpt lat="45.07645" lon="6.19668">
        <ele>1954.8</ele>
        <time>2024-08-10T06:44:51Z</time>
      </trkpt>
      <trkpt lat="45.07645" lon="6.19668">
        <ele>1954.8</ele>
        <time>2024-08-10T06:44:52Z</time>
      </trkpt>
      <trkpt lat="45.07646" lon="6.19672">
        <ele>1955.2</ele>
        <time>2024-08-10T06:44:53Z</time>
      </trkpt>
      <trkpt lat="45.07646" lon="6.19672">
        <ele>1955.6</ele>
        <time>2024-08-10T06:44:54Z</time>
      </trkpt>
      <trkpt lat="45.07646" lon="6.19672">
        <ele>1955.8</ele>
        <time>2024-08-10T06:44:55Z</time>
      </trkpt>
      <trkpt lat="45.07646" lon="6.19675">
        <ele>1955.8</ele>
        <time>2024-08-10T06:44:56Z</time>
      </trkpt>
      <trkpt lat="45.07646" lon="6.19675">
        <ele>1956.4</ele>
        <time>2024-08-10T06:44:57Z</time>
      </trkpt>
      <trkpt lat="45.07646" lon="6.19675">
        <ele>1956.4</ele>
        <time>2024-08-10T06:44:58Z</time>
      </trkpt>
      <trkpt lat="45.07646" lon="6.19675">
        <ele>1956.4</ele>
        <time>2024-08-10T06:44:59Z</time>
      </trkpt>
      <trkpt lat="45.07647" lon="6.19678">
        <ele>1956.6</ele>
        <time>2024-08-10T06:45:00Z</time>
      </trkpt>
      <trkpt lat="45.07647" lon="6.19678">
        <ele>1956.6</ele>
        <time>2024-08-10T06:45:01Z</time>
      </trkpt>
      <trkpt lat="45.07647" lon="6.19678">
        <ele>1957</ele>
        <time>2024-08-10T06:45:02Z</time>
      </trkpt>
      <trkpt lat="45.07647" lon="6.19681">
        <ele>1957.4</ele>
        <time>2024-08-10T06:45:03Z</time>
      </trkpt>
      <trkpt lat="45.07647" lon="6.19681">
        <ele>1957.4</ele>
        <time>2024-08-10T06:45:04Z</time>
      </trkpt>
      <trkpt lat="45.07647" lon="6.19681">
        <ele>1957.8</ele>
        <time>2024-08-10T06:45:05Z</time>
      </trkpt>
      <trkpt lat="45.07647" lon="6.19684">
        <ele>1957.8</ele>
        <time>2024-08-10T06:45:06Z</time>
      </trkpt>
      <trkpt lat="45.07647" lon="6.19684">
        <ele>1957.8</ele>
        <time>2024-08-10T06:45:07Z</time>
      </trkpt>
      <trkpt lat="45.07647" lon="6.19684">
        <ele>1958</ele>
        <time>2024-08-10T06:45:08Z</time>
      </trkpt>
      <trkpt lat="45.07649" lon="6.19686">
        <ele>1958</ele>
        <time>2024-08-10T06:45:09Z</time>
      </trkpt>
      <trkpt lat="45.07649" lon="6.19686">
        <ele>1958</ele>
        <time>2024-08-10T06:45:10Z</time>
      </trkpt>
      <trkpt lat="45.07649" lon="6.19686">
        <ele>1958.4</ele>
        <time>2024-08-10T06:45:11Z</time>
      </trkpt>
      <trkpt lat="45.07649" lon="6.19689">
        <ele>1959</ele>
        <time>2024-08-10T06:45:12Z</time>
      </trkpt>
      <trkpt lat="45.07649" lon="6.19689">
        <ele>1959</ele>
        <time>2024-08-10T06:45:13Z</time>
      </trkpt>
      <trkpt lat="45.07649" lon="6.19689">
        <ele>1959.2</ele>
        <time>2024-08-10T06:45:14Z</time>
      </trkpt>
      <trkpt lat="45.0765" lon="6.19692">
        <ele>1959.2</ele>
        <time>2024-08-10T06:45:15Z</time>
      </trkpt>
      <trkpt lat="45.0765" lon="6.19692">
        <ele>1959.2</ele>
        <time>2024-08-10T06:45:16Z</time>
      </trkpt>
      <trkpt lat="45.0765" lon="6.19692">
        <ele>1959.4</ele>
        <time>2024-08-10T06:45:17Z</time>
      </trkpt>
      <trkpt lat="45.07652" lon="6.19693">
        <ele>1959.6</ele>
        <time>2024-08-10T06:45:18Z</time>
      </trkpt>
      <trkpt lat="45.07652" lon="6.19693">
        <ele>1959.8</ele>
        <time>2024-08-10T06:45:19Z</time>
      </trkpt>
      <trkpt lat="45.07653" lon="6.19695">
        <ele>1960.2</ele>
        <time>2024-08-10T06:45:20Z</time>
      </trkpt>
      <trkpt lat="45.07653" lon="6.19695">
        <ele>1960.2</ele>
        <time>2024-08-10T06:45:21Z</time>
      </trkpt>
      <trkpt lat="45.07653" lon="6.19695">
        <ele>1960.4</ele>
        <time>2024-08-10T06:45:22Z</time>
      </trkpt>
      <trkpt lat="45.07654" lon="6.19698">
        <ele>1960.4</ele>
        <time>2024-08-10T06:45:23Z</time>
      </trkpt>
      <trkpt lat="45.07654" lon="6.19698">
        <ele>1961</ele>
        <time>2024-08-10T06:45:24Z</time>
      </trkpt>
      <trkpt lat="45.07654" lon="6.19698">
        <ele>1961.2</ele>
        <time>2024-08-10T06:45:25Z</time>
      </trkpt>
      <trkpt lat="45.07655" lon="6.197">
        <ele>1961.4</ele>
        <time>2024-08-10T06:45:26Z</time>
      </trkpt>
      <trkpt lat="45.07655" lon="6.197">
        <ele>1961.4</ele>
        <time>2024-08-10T06:45:27Z</time>
      </trkpt>
      <trkpt lat="45.07655" lon="6.197">
        <ele>1961.4</ele>
        <time>2024-08-10T06:45:28Z</time>
      </trkpt>
      <trkpt lat="45.07657" lon="6.19703">
        <ele>1961.8</ele>
        <time>2024-08-10T06:45:29Z</time>
      </trkpt>
      <trkpt lat="45.07657" lon="6.19703">
        <ele>1962.2</ele>
        <time>2024-08-10T06:45:30Z</time>
      </trkpt>
      <trkpt lat="45.07658" lon="6.19705">
        <ele>1962.4</ele>
        <time>2024-08-10T06:45:31Z</time>
      </trkpt>
      <trkpt lat="45.07658" lon="6.19705">
        <ele>1962.6</ele>
        <time>2024-08-10T06:45:32Z</time>
      </trkpt>
      <trkpt lat="45.07658" lon="6.19705">
        <ele>1962.8</ele>
        <time>2024-08-10T06:45:33Z</time>
      </trkpt>
      <trkpt lat="45.07659" lon="6.19708">
        <ele>1962.8</ele>
        <time>2024-08-10T06:45:34Z</time>
      </trkpt>
      <trkpt lat="45.07659" lon="6.19708">
        <ele>1962.8</ele>
        <time>2024-08-10T06:45:35Z</time>
      </trkpt>
      <trkpt lat="45.07659" lon="6.19708">
        <ele>1963.2</ele>
        <time>2024-08-10T06:45:36Z</time>
      </trkpt>
      <trkpt lat="45.07659" lon="6.19708">
        <ele>1963.4</ele>
        <time>2024-08-10T06:45:37Z</time>
      </trkpt>
      <trkpt lat="45.07661" lon="6.19712">
        <ele>1963.8</ele>
        <time>2024-08-10T06:45:38Z</time>
      </trkpt>
      <trkpt lat="45.07661" lon="6.19712">
        <ele>1963.8</ele>
        <time>2024-08-10T06:45:39Z</time>
      </trkpt>
      <trkpt lat="45.07661" lon="6.19712">
        <ele>1963.8</ele>
        <time>2024-08-10T06:45:40Z</time>
      </trkpt>
      <trkpt lat="45.0766" lon="6.19715">
        <ele>1964</ele>
        <time>2024-08-10T06:45:41Z</time>
      </trkpt>
      <trkpt lat="45.0766" lon="6.19715">
        <ele>1964.4</ele>
        <time>2024-08-10T06:45:42Z</time>
      </trkpt>
      <trkpt lat="45.0766" lon="6.19715">
        <ele>1964.4</ele>
        <time>2024-08-10T06:45:43Z</time>
      </trkpt>
      <trkpt lat="45.0766" lon="6.19715">
        <ele>1964.4</ele>
        <time>2024-08-10T06:45:44Z</time>
      </trkpt>
      <trkpt lat="45.0766" lon="6.19718">
        <ele>1965</ele>
        <time>2024-08-10T06:45:45Z</time>
      </trkpt>
      <trkpt lat="45.0766" lon="6.19718">
        <ele>1965.2</ele>
        <time>2024-08-10T06:45:46Z</time>
      </trkpt>
      <trkpt lat="45.0766" lon="6.19718">
        <ele>1965.4</ele>
        <time>2024-08-10T06:45:47Z</time>
      </trkpt>
      <trkpt lat="45.07659" lon="6.19721">
        <ele>1965.8</ele>
        <time>2024-08-10T06:45:48Z</time>
      </trkpt>
      <trkpt lat="45.07659" lon="6.19721">
        <ele>1965.8</ele>
        <time>2024-08-10T06:45:49Z</time>
      </trkpt>
      <trkpt lat="45.07659" lon="6.19721">
        <ele>1965.8</ele>
        <time>2024-08-10T06:45:50Z</time>
      </trkpt>
      <trkpt lat="45.07659" lon="6.19721">
        <ele>1965.8</ele>
        <time>2024-08-10T06:45:51Z</time>
      </trkpt>
      <trkpt lat="45.07658" lon="6.19723">
        <ele>1966.2</ele>
        <time>2024-08-10T06:45:52Z</time>
      </trkpt>
      <trkpt lat="45.07658" lon="6.19723">
        <ele>1966.6</ele>
        <time>2024-08-10T06:45:53Z</time>
      </trkpt>
      <trkpt lat="45.07658" lon="6.19723">
        <ele>1966.6</ele>
        <time>2024-08-10T06:45:54Z</time>
      </trkpt>
      <trkpt lat="45.07658" lon="6.19723">
        <ele>1966.6</ele>
        <time>2024-08-10T06:45:55Z</time>
      </trkpt>
      <trkpt lat="45.07657" lon="6.19726">
        <ele>1967</ele>
        <time>2024-08-10T06:45:56Z</time>
      </trkpt>
      <trkpt lat="45.07657" lon="6.19726">
        <ele>1967</ele>
        <time>2024-08-10T06:45:57Z</time>
      </trkpt>
      <trkpt lat="45.07657" lon="6.19726">
        <ele>1967.4</ele>
        <time>2024-08-10T06:45:58Z</time>
      </trkpt>
      <trkpt lat="45.07657" lon="6.19729">
        <ele>1967.8</ele>
        <time>2024-08-10T06:45:59Z</time>
      </trkpt>
      <trkpt lat="45.07657" lon="6.19729">
        <ele>1968.2</ele>
        <time>2024-08-10T06:46:00Z</time>
      </trkpt>
      <trkpt lat="45.07657" lon="6.19729">
        <ele>1968.2</ele>
        <time>2024-08-10T06:46:01Z</time>
      </trkpt>
      <trkpt lat="45.07657" lon="6.19731">
        <ele>1968.4</ele>
        <time>2024-08-10T06:46:02Z</time>
      </trkpt>
      <trkpt lat="45.07657" lon="6.19731">
        <ele>1968.8</ele>
        <time>2024-08-10T06:46:03Z</time>
      </trkpt>
      <trkpt lat="45.07657" lon="6.19731">
        <ele>1968.8</ele>
        <time>2024-08-10T06:46:04Z</time>
      </trkpt>
      <trkpt lat="45.07658" lon="6.19734">
        <ele>1969</ele>
        <time>2024-08-10T06:46:05Z</time>
      </trkpt>
      <trkpt lat="45.07658" lon="6.19734">
        <ele>1969.2</ele>
        <time>2024-08-10T06:46:06Z</time>
      </trkpt>
      <trkpt lat="45.07658" lon="6.19734">
        <ele>1969.4</ele>
        <time>2024-08-10T06:46:07Z</time>
      </trkpt>
      <trkpt lat="45.07657" lon="6.19736">
        <ele>1969.8</ele>
        <time>2024-08-10T06:46:08Z</time>
      </trkpt>
      <trkpt lat="45.07657" lon="6.19736">
        <ele>1970</ele>
        <time>2024-08-10T06:46:09Z</time>
      </trkpt>
      <trkpt lat="45.07655" lon="6.19737">
        <ele>1970</ele>
        <time>2024-08-10T06:46:10Z</time>
      </trkpt>
      <trkpt lat="45.07655" lon="6.19737">
        <ele>1970</ele>
        <time>2024-08-10T06:46:11Z</time>
      </trkpt>
      <trkpt lat="45.07655" lon="6.19737">
        <ele>1970.4</ele>
        <time>2024-08-10T06:46:12Z</time>
      </trkpt>
      <trkpt lat="45.07653" lon="6.19736">
        <ele>1970.4</ele>
        <time>2024-08-10T06:46:13Z</time>
      </trkpt>
      <trkpt lat="45.07653" lon="6.19736">
        <ele>1970.6</ele>
        <time>2024-08-10T06:46:14Z</time>
      </trkpt>
      <trkpt lat="45.07653" lon="6.19736">
        <ele>1970.8</ele>
        <time>2024-08-10T06:46:15Z</time>
      </trkpt>
      <trkpt lat="45.07652" lon="6.19735">
        <ele>1970.8</ele>
        <time>2024-08-10T06:46:16Z</time>
      </trkpt>
      <trkpt lat="45.07652" lon="6.19735">
        <ele>1971</ele>
        <time>2024-08-10T06:46:17Z</time>
      </trkpt>
      <trkpt lat="45.07652" lon="6.19735">
        <ele>1971</ele>
        <time>2024-08-10T06:46:18Z</time>
      </trkpt>
      <trkpt lat="45.0765" lon="6.19734">
        <ele>1971</ele>
        <time>2024-08-10T06:46:19Z</time>
      </trkpt>
      <trkpt lat="45.0765" lon="6.19734">
        <ele>1971.6</ele>
        <time>2024-08-10T06:46:20Z</time>
      </trkpt>
      <trkpt lat="45.0765" lon="6.19734">
        <ele>1972</ele>
        <time>2024-08-10T06:46:21Z</time>
      </trkpt>
      <trkpt lat="45.07647" lon="6.19734">
        <ele>1972</ele>
        <time>2024-08-10T06:46:22Z</time>
      </trkpt>
      <trkpt lat="45.07647" lon="6.19734">
        <ele>1972</ele>
        <time>2024-08-10T06:46:23Z</time>
      </trkpt>
      <trkpt lat="45.07647" lon="6.19734">
        <ele>1972.4</ele>
        <time>2024-08-10T06:46:24Z</time>
      </trkpt>
      <trkpt lat="45.07645" lon="6.19733">
        <ele>1972.4</ele>
        <time>2024-08-10T06:46:25Z</time>
      </trkpt>
      <trkpt lat="45.07645" lon="6.19733">
        <ele>1973</ele>
        <time>2024-08-10T06:46:26Z</time>
      </trkpt>
      <trkpt lat="45.07645" lon="6.19733">
        <ele>1973</ele>
        <time>2024-08-10T06:46:27Z</time>
      </trkpt>
      <trkpt lat="45.07643" lon="6.19732">
        <ele>1973</ele>
        <time>2024-08-10T06:46:28Z</time>
      </trkpt>
      <trkpt lat="45.07643" lon="6.19732">
        <ele>1973</ele>
        <time>2024-08-10T06:46:29Z</time>
      </trkpt>
      <trkpt lat="45.07643" lon="6.19732">
        <ele>1973.4</ele>
        <time>2024-08-10T06:46:30Z</time>
      </trkpt>
      <trkpt lat="45.07643" lon="6.19732">
        <ele>1974</ele>
        <time>2024-08-10T06:46:31Z</time>
      </trkpt>
      <trkpt lat="45.07641" lon="6.19731">
        <ele>1974</ele>
        <time>2024-08-10T06:46:32Z</time>
      </trkpt>
      <trkpt lat="45.07641" lon="6.19731">
        <ele>1974</ele>
        <time>2024-08-10T06:46:33Z</time>
      </trkpt>
      <trkpt lat="45.07641" lon="6.19731">
        <ele>1974.2</ele>
        <time>2024-08-10T06:46:34Z</time>
      </trkpt>
      <trkpt lat="45.07639" lon="6.19731">
        <ele>1974.6</ele>
        <time>2024-08-10T06:46:35Z</time>
      </trkpt>
      <trkpt lat="45.07639" lon="6.19731">
        <ele>1975</ele>
        <time>2024-08-10T06:46:36Z</time>
      </trkpt>
      <trkpt lat="45.07639" lon="6.19731">
        <ele>1975</ele>
        <time>2024-08-10T06:46:37Z</time>
      </trkpt>
      <trkpt lat="45.07637" lon="6.19732">
        <ele>1975.2</ele>
        <time>2024-08-10T06:46:38Z</time>
      </trkpt>
      <trkpt lat="45.07637" lon="6.19732">
        <ele>1975.4</ele>
        <time>2024-08-10T06:46:39Z</time>
      </trkpt>
      <trkpt lat="45.07637" lon="6.19732">
        <ele>1976.2</ele>
        <time>2024-08-10T06:46:40Z</time>
      </trkpt>
      <trkpt lat="45.07635" lon="6.19733">
        <ele>1976.2</ele>
        <time>2024-08-10T06:46:41Z</time>
      </trkpt>
      <trkpt lat="45.07635" lon="6.19733">
        <ele>1976.2</ele>
        <time>2024-08-10T06:46:42Z</time>
      </trkpt>
      <trkpt lat="45.07633" lon="6.19732">
        <ele>1976.2</ele>
        <time>2024-08-10T06:46:43Z</time>
      </trkpt>
      <trkpt lat="45.07633" lon="6.19732">
        <ele>1976.6</ele>
        <time>2024-08-10T06:46:44Z</time>
      </trkpt>
      <trkpt lat="45.07633" lon="6.19732">
        <ele>1976.8</ele>
        <time>2024-08-10T06:46:45Z</time>
      </trkpt>
      <trkpt lat="45.07631" lon="6.19731">
        <ele>1977</ele>
        <time>2024-08-10T06:46:46Z</time>
      </trkpt>
      <trkpt lat="45.07631" lon="6.19731">
        <ele>1977.4</ele>
        <time>2024-08-10T06:46:47Z</time>
      </trkpt>
      <trkpt lat="45.07631" lon="6.19731">
        <ele>1977.6</ele>
        <time>2024-08-10T06:46:48Z</time>
      </trkpt>
      <trkpt lat="45.07629" lon="6.19731">
        <ele>1977.6</ele>
        <time>2024-08-10T06:46:49Z</time>
      </trkpt>
      <trkpt lat="45.07629" lon="6.19731">
        <ele>1977.8</ele>
        <time>2024-08-10T06:46:50Z</time>
      </trkpt>
      <trkpt lat="45.07629" lon="6.19731">
        <ele>1978</ele>
        <time>2024-08-10T06:46:51Z</time>
      </trkpt>
      <trkpt lat="45.07628" lon="6.1973">
        <ele>1978</ele>
        <time>2024-08-10T06:46:52Z</time>
      </trkpt>
      <trkpt lat="45.07628" lon="6.1973">
        <ele>1978.2</ele>
        <time>2024-08-10T06:46:53Z</time>
      </trkpt>
      <trkpt lat="45.07628" lon="6.1973">
        <ele>1978.4</ele>
        <time>2024-08-10T06:46:54Z</time>
      </trkpt>
      <trkpt lat="45.07628" lon="6.1973">
        <ele>1978.6</ele>
        <time>2024-08-10T06:46:55Z</time>
      </trkpt>
      <trkpt lat="45.07626" lon="6.19729">
        <ele>1978.8</ele>
        <time>2024-08-10T06:46:56Z</time>
      </trkpt>
      <trkpt lat="45.07626" lon="6.19729">
        <ele>1979.2</ele>
        <time>2024-08-10T06:46:57Z</time>
      </trkpt>
      <trkpt lat="45.07626" lon="6.19729">
        <ele>1979.4</ele>
        <time>2024-08-10T06:46:58Z</time>
      </trkpt>
      <trkpt lat="45.07626" lon="6.19729">
        <ele>1979.6</ele>
        <time>2024-08-10T06:46:59Z</time>
      </trkpt>
      <trkpt lat="45.07623" lon="6.19728">
        <ele>1979.6</ele>
        <time>2024-08-10T06:47:00Z</time>
      </trkpt>
      <trkpt lat="45.07623" lon="6.19728">
        <ele>1979.8</ele>
        <time>2024-08-10T06:47:01Z</time>
      </trkpt>
      <trkpt lat="45.07623" lon="6.19728">
        <ele>1979.8</ele>
        <time>2024-08-10T06:47:02Z</time>
      </trkpt>
      <trkpt lat="45.07621" lon="6.19728">
        <ele>1980.2</ele>
        <time>2024-08-10T06:47:03Z</time>
      </trkpt>
      <trkpt lat="45.07621" lon="6.19728">
        <ele>1980.2</ele>
        <time>2024-08-10T06:47:04Z</time>
      </trkpt>
      <trkpt lat="45.07621" lon="6.19728">
        <ele>1980.4</ele>
        <time>2024-08-10T06:47:05Z</time>
      </trkpt>
      <trkpt lat="45.07619" lon="6.19729">
        <ele>1980.6</ele>
        <time>2024-08-10T06:47:06Z</time>
      </trkpt>
      <trkpt lat="45.07619" lon="6.19729">
        <ele>1980.8</ele>
        <time>2024-08-10T06:47:07Z</time>
      </trkpt>
      <trkpt lat="45.07619" lon="6.19729">
        <ele>1981.2</ele>
        <time>2024-08-10T06:47:08Z</time>
      </trkpt>
      <trkpt lat="45.07617" lon="6.1973">
        <ele>1981.4</ele>
        <time>2024-08-10T06:47:09Z</time>
      </trkpt>
      <trkpt lat="45.07617" lon="6.1973">
        <ele>1981.6</ele>
        <time>2024-08-10T06:47:10Z</time>
      </trkpt>
      <trkpt lat="45.07617" lon="6.1973">
        <ele>1981.8</ele>
        <time>2024-08-10T06:47:11Z</time>
      </trkpt>
      <trkpt lat="45.07617" lon="6.1973">
        <ele>1982</ele>
        <time>2024-08-10T06:47:12Z</time>
      </trkpt>
      <trkpt lat="45.07615" lon="6.19731">
        <ele>1982</ele>
        <time>2024-08-10T06:47:13Z</time>
      </trkpt>
      <trkpt lat="45.07615" lon="6.19731">
        <ele>1982.4</ele>
        <time>2024-08-10T06:47:14Z</time>
      </trkpt>
      <trkpt lat="45.07615" lon="6.19731">
        <ele>1982.4</ele>
        <time>2024-08-10T06:47:15Z</time>
      </trkpt>
      <trkpt lat="45.07615" lon="6.19731">
        <ele>1982.8</ele>
        <time>2024-08-10T06:47:16Z</time>
      </trkpt>
      <trkpt lat="45.07613" lon="6.19731">
        <ele>1983.2</ele>
        <time>2024-08-10T06:47:17Z</time>
      </trkpt>
      <trkpt lat="45.07613" lon="6.19731">
        <ele>1983.2</ele>
        <time>2024-08-10T06:47:18Z</time>
      </trkpt>
      <trkpt lat="45.07613" lon="6.19731">
        <ele>1983.6</ele>
        <time>2024-08-10T06:47:19Z</time>
      </trkpt>
      <trkpt lat="45.07613" lon="6.19731">
        <ele>1983.6</ele>
        <time>2024-08-10T06:47:20Z</time>
      </trkpt>
      <trkpt lat="45.07611" lon="6.19731">
        <ele>1984</ele>
        <time>2024-08-10T06:47:21Z</time>
      </trkpt>
      <trkpt lat="45.07611" lon="6.19731">
        <ele>1984.2</ele>
        <time>2024-08-10T06:47:22Z</time>
      </trkpt>
      <trkpt lat="45.07611" lon="6.19731">
        <ele>1984.6</ele>
        <time>2024-08-10T06:47:23Z</time>
      </trkpt>
      <trkpt lat="45.07609" lon="6.19731">
        <ele>1984.6</ele>
        <time>2024-08-10T06:47:24Z</time>
      </trkpt>
      <trkpt lat="45.07609" lon="6.19731">
        <ele>1984.8</ele>
        <time>2024-08-10T06:47:25Z</time>
      </trkpt>
      <trkpt lat="45.07609" lon="6.19731">
        <ele>1985.2</ele>
        <time>2024-08-10T06:47:26Z</time>
      </trkpt>
      <trkpt lat="45.07606" lon="6.1973">
        <ele>1985.4</ele>
        <time>2024-08-10T06:47:27Z</time>
      </trkpt>
      <trkpt lat="45.07606" lon="6.1973">
        <ele>1985.8</ele>
        <time>2024-08-10T06:47:28Z</time>
      </trkpt>
      <trkpt lat="45.07606" lon="6.1973">
        <ele>1986</ele>
        <time>2024-08-10T06:47:29Z</time>
      </trkpt>
      <trkpt lat="45.07605" lon="6.1973">
        <ele>1986</ele>
        <time>2024-08-10T06:47:30Z</time>
      </trkpt>
      <trkpt lat="45.07605" lon="6.1973">
        <ele>1986</ele>
        <time>2024-08-10T06:47:31Z</time>
      </trkpt>
      <trkpt lat="45.07605" lon="6.1973">
        <ele>1986.4</ele>
        <time>2024-08-10T06:47:32Z</time>
      </trkpt>
      <trkpt lat="45.07602" lon="6.1973">
        <ele>1986.8</ele>
        <time>2024-08-10T06:47:33Z</time>
      </trkpt>
      <trkpt lat="45.07602" lon="6.1973">
        <ele>1987</ele>
        <time>2024-08-10T06:47:34Z</time>
      </trkpt>
      <trkpt lat="45.07602" lon="6.1973">
        <ele>1987.2</ele>
        <time>2024-08-10T06:47:35Z</time>
      </trkpt>
      <trkpt lat="45.07602" lon="6.1973">
        <ele>1987.4</ele>
        <time>2024-08-10T06:47:36Z</time>
      </trkpt>
      <trkpt lat="45.076" lon="6.19729">
        <ele>1987.8</ele>
        <time>2024-08-10T06:47:37Z</time>
      </trkpt>
      <trkpt lat="45.076" lon="6.19729">
        <ele>1988</ele>
        <time>2024-08-10T06:47:38Z</time>
      </trkpt>
      <trkpt lat="45.076" lon="6.19729">
        <ele>1988</ele>
        <time>2024-08-10T06:47:39Z</time>
      </trkpt>
      <trkpt lat="45.07598" lon="6.19729">
        <ele>1988.2</ele>
        <time>2024-08-10T06:47:40Z</time>
      </trkpt>
      <trkpt lat="45.07598" lon="6.19729">
        <ele>1988.6</ele>
        <time>2024-08-10T06:47:41Z</time>
      </trkpt>
      <trkpt lat="45.07598" lon="6.19729">
        <ele>1988.6</ele>
        <time>2024-08-10T06:47:42Z</time>
      </trkpt>
      <trkpt lat="45.07596" lon="6.19728">
        <ele>1989</ele>
        <time>2024-08-10T06:47:43Z</time>
      </trkpt>
      <trkpt lat="45.07596" lon="6.19728">
        <ele>1989</ele>
        <time>2024-08-10T06:47:44Z</time>
      </trkpt>
      <trkpt lat="45.07596" lon="6.19728">
        <ele>1989.2</ele>
        <time>2024-08-10T06:47:45Z</time>
      </trkpt>
      <trkpt lat="45.07593" lon="6.19727">
        <ele>1989.4</ele>
        <time>2024-08-10T06:47:46Z</time>
      </trkpt>
      <trkpt lat="45.07593" lon="6.19727">
        <ele>1989.4</ele>
        <time>2024-08-10T06:47:47Z</time>
      </trkpt>
      <trkpt lat="45.07593" lon="6.19727">
        <ele>1989.4</ele>
        <time>2024-08-10T06:47:48Z</time>
      </trkpt>
      <trkpt lat="45.07591" lon="6.19727">
        <ele>1990</ele>
        <time>2024-08-10T06:47:49Z</time>
      </trkpt>
      <trkpt lat="45.07591" lon="6.19727">
        <ele>1990.2</ele>
        <time>2024-08-10T06:47:50Z</time>
      </trkpt>
      <trkpt lat="45.07591" lon="6.19727">
        <ele>1990.4</ele>
        <time>2024-08-10T06:47:51Z</time>
      </trkpt>
      <trkpt lat="45.07589" lon="6.19726">
        <ele>1990.4</ele>
        <time>2024-08-10T06:47:52Z</time>
      </trkpt>
      <trkpt lat="45.07589" lon="6.19726">
        <ele>1990.6</ele>
        <time>2024-08-10T06:47:53Z</time>
      </trkpt>
      <trkpt lat="45.07589" lon="6.19726">
        <ele>1991.2</ele>
        <time>2024-08-10T06:47:54Z</time>
      </trkpt>
      <trkpt lat="45.07587" lon="6.19726">
        <ele>1991.2</ele>
        <time>2024-08-10T06:47:55Z</time>
      </trkpt>
      <trkpt lat="45.07587" lon="6.19726">
        <ele>1991.6</ele>
        <time>2024-08-10T06:47:56Z</time>
      </trkpt>
      <trkpt lat="45.07587" lon="6.19726">
        <ele>1991.6</ele>
        <time>2024-08-10T06:47:57Z</time>
      </trkpt>
      <trkpt lat="45.07584" lon="6.19726">
        <ele>1991.6</ele>
        <time>2024-08-10T06:47:58Z</time>
      </trkpt>
      <trkpt lat="45.07584" lon="6.19726">
        <ele>1992.2</ele>
        <time>2024-08-10T06:47:59Z</time>
      </trkpt>
      <trkpt lat="45.07584" lon="6.19726">
        <ele>1992.2</ele>
        <time>2024-08-10T06:48:00Z</time>
      </trkpt>
      <trkpt lat="45.07581" lon="6.19725">
        <ele>1992.4</ele>
        <time>2024-08-10T06:48:01Z</time>
      </trkpt>
      <trkpt lat="45.07581" lon="6.19725">
        <ele>1992.4</ele>
        <time>2024-08-10T06:48:02Z</time>
      </trkpt>
      <trkpt lat="45.07581" lon="6.19725">
        <ele>1993</ele>
        <time>2024-08-10T06:48:03Z</time>
      </trkpt>
      <trkpt lat="45.07579" lon="6.19725">
        <ele>1993</ele>
        <time>2024-08-10T06:48:04Z</time>
      </trkpt>
      <trkpt lat="45.07579" lon="6.19725">
        <ele>1993</ele>
        <time>2024-08-10T06:48:05Z</time>
      </trkpt>
      <trkpt lat="45.07577" lon="6.19725">
        <ele>1993</ele>
        <time>2024-08-10T06:48:06Z</time>
      </trkpt>
      <trkpt lat="45.07577" lon="6.19725">
        <ele>1993.2</ele>
        <time>2024-08-10T06:48:07Z</time>
      </trkpt>
      <trkpt lat="45.07577" lon="6.19725">
        <ele>1993.2</ele>
        <time>2024-08-10T06:48:08Z</time>
      </trkpt>
      <trkpt lat="45.07575" lon="6.19725">
        <ele>1993.4</ele>
        <time>2024-08-10T06:48:09Z</time>
      </trkpt>
      <trkpt lat="45.07575" lon="6.19725">
        <ele>1993.6</ele>
        <time>2024-08-10T06:48:10Z</time>
      </trkpt>
      <trkpt lat="45.07575" lon="6.19725">
        <ele>1994.2</ele>
        <time>2024-08-10T06:48:11Z</time>
      </trkpt>
      <trkpt lat="45.07573" lon="6.19724">
        <ele>1994.2</ele>
        <time>2024-08-10T06:48:12Z</time>
      </trkpt>
      <trkpt lat="45.07573" lon="6.19724">
        <ele>1994.6</ele>
        <time>2024-08-10T06:48:13Z</time>
      </trkpt>
      <trkpt lat="45.07571" lon="6.19723">
        <ele>1994.6</ele>
        <time>2024-08-10T06:48:14Z</time>
      </trkpt>
      <trkpt lat="45.07571" lon="6.19723">
        <ele>1994.6</ele>
        <time>2024-08-10T06:48:15Z</time>
      </trkpt>
      <trkpt lat="45.07569" lon="6.19722">
        <ele>1994.8</ele>
        <time>2024-08-10T06:48:16Z</time>
      </trkpt>
      <trkpt lat="45.07569" lon="6.19722">
        <ele>1994.8</ele>
        <time>2024-08-10T06:48:17Z</time>
      </trkpt>
      <trkpt lat="45.07567" lon="6.19722">
        <ele>1995.2</ele>
        <time>2024-08-10T06:48:18Z</time>
      </trkpt>
      <trkpt lat="45.07567" lon="6.19722">
        <ele>1995.6</ele>
        <time>2024-08-10T06:48:19Z</time>
      </trkpt>
      <trkpt lat="45.07565" lon="6.19721">
        <ele>1995.6</ele>
        <time>2024-08-10T06:48:20Z</time>
      </trkpt>
      <trkpt lat="45.07565" lon="6.19721">
        <ele>1995.6</ele>
        <time>2024-08-10T06:48:21Z</time>
      </trkpt>
      <trkpt lat="45.07563" lon="6.19721">
        <ele>1995.6</ele>
        <time>2024-08-10T06:48:22Z</time>
      </trkpt>
      <trkpt lat="45.07563" lon="6.19721">
        <ele>1995.6</ele>
        <time>2024-08-10T06:48:23Z</time>
      </trkpt>
      <trkpt lat="45.07561" lon="6.19721">
        <ele>1995.6</ele>
        <time>2024-08-10T06:48:24Z</time>
      </trkpt>
      <trkpt lat="45.07561" lon="6.19721">
        <ele>1995.8</ele>
        <time>2024-08-10T06:48:25Z</time>
      </trkpt>
      <trkpt lat="45.07559" lon="6.19721">
        <ele>1996.4</ele>
        <time>2024-08-10T06:48:26Z</time>
      </trkpt>
      <trkpt lat="45.07559" lon="6.19721">
        <ele>1996.4</ele>
        <time>2024-08-10T06:48:27Z</time>
      </trkpt>
      <trkpt lat="45.07559" lon="6.19721">
        <ele>1996.4</ele>
        <time>2024-08-10T06:48:28Z</time>
      </trkpt>
      <trkpt lat="45.07556" lon="6.1972">
        <ele>1996.4</ele>
        <time>2024-08-10T06:48:29Z</time>
      </trkpt>
      <trkpt lat="45.07556" lon="6.1972">
        <ele>1996.6</ele>
        <time>2024-08-10T06:48:30Z</time>
      </trkpt>
      <trkpt lat="45.07556" lon="6.1972">
        <ele>1996.8</ele>
        <time>2024-08-10T06:48:31Z</time>
      </trkpt>
      <trkpt lat="45.07554" lon="6.1972">
        <ele>1996.8</ele>
        <time>2024-08-10T06:48:32Z</time>
      </trkpt>
      <trkpt lat="45.07554" lon="6.1972">
        <ele>1997</ele>
        <time>2024-08-10T06:48:33Z</time>
      </trkpt>
      <trkpt lat="45.07554" lon="6.1972">
        <ele>1997</ele>
        <time>2024-08-10T06:48:34Z</time>
      </trkpt>
      <trkpt lat="45.07554" lon="6.1972">
        <ele>1997.4</ele>
        <time>2024-08-10T06:48:35Z</time>
      </trkpt>
      <trkpt lat="45.07554" lon="6.1972">
        <ele>1997.6</ele>
        <time>2024-08-10T06:48:36Z</time>
      </trkpt>
      <trkpt lat="45.07554" lon="6.1972">
        <ele>1997.8</ele>
        <time>2024-08-10T06:48:37Z</time>
      </trkpt>
      <trkpt lat="45.07555" lon="6.19723">
        <ele>1997.8</ele>
        <time>2024-08-10T06:48:38Z</time>
      </trkpt>
      <trkpt lat="45.07555" lon="6.19723">
        <ele>1998</ele>
        <time>2024-08-10T06:48:39Z</time>
      </trkpt>
      <trkpt lat="45.07555" lon="6.19723">
        <ele>1998.2</ele>
        <time>2024-08-10T06:48:40Z</time>
      </trkpt>
      <trkpt lat="45.07555" lon="6.19723">
        <ele>1998.4</ele>
        <time>2024-08-10T06:48:41Z</time>
      </trkpt>
      <trkpt lat="45.07557" lon="6.19725">
        <ele>1998.4</ele>
        <time>2024-08-10T06:48:42Z</time>
      </trkpt>
      <trkpt lat="45.07557" lon="6.19725">
        <ele>1998.4</ele>
        <time>2024-08-10T06:48:43Z</time>
      </trkpt>
      <trkpt lat="45.07557" lon="6.19725">
        <ele>1998.8</ele>
        <time>2024-08-10T06:48:44Z</time>
      </trkpt>
      <trkpt lat="45.07557" lon="6.19725">
        <ele>1999</ele>
        <time>2024-08-10T06:48:45Z</time>
      </trkpt>
      <trkpt lat="45.07557" lon="6.19725">
        <ele>1999.2</ele>
        <time>2024-08-10T06:48:46Z</time>
      </trkpt>
      <trkpt lat="45.07557" lon="6.19725">
        <ele>1999.4</ele>
        <time>2024-08-10T06:48:47Z</time>
      </trkpt>
      <trkpt lat="45.07557" lon="6.19725">
        <ele>1999.4</ele>
        <time>2024-08-10T06:48:48Z</time>
      </trkpt>
      <trkpt lat="45.07557" lon="6.19725">
        <ele>1999.8</ele>
        <time>2024-08-10T06:48:49Z</time>
      </trkpt>
      <trkpt lat="45.07558" lon="6.19726">
        <ele>2000</ele>
        <time>2024-08-10T06:48:50Z</time>
      </trkpt>
      <trkpt lat="45.07558" lon="6.19726">
        <ele>2000</ele>
        <time>2024-08-10T06:48:51Z</time>
      </trkpt>
      <trkpt lat="45.07561" lon="6.19728">
        <ele>2000.4</ele>
        <time>2024-08-10T06:48:52Z</time>
      </trkpt>
      <trkpt lat="45.07562" lon="6.19729">
        <ele>2000.4</ele>
        <time>2024-08-10T06:48:53Z</time>
      </trkpt>
      <trkpt lat="45.07562" lon="6.19729">
        <ele>2000.8</ele>
        <time>2024-08-10T06:48:54Z</time>
      </trkpt>
      <trkpt lat="45.07563" lon="6.19732">
        <ele>2001</ele>
        <time>2024-08-10T06:48:55Z</time>
      </trkpt>
      <trkpt lat="45.07563" lon="6.19732">
        <ele>2001.2</ele>
        <time>2024-08-10T06:48:56Z</time>
      </trkpt>
      <trkpt lat="45.07561" lon="6.19733">
        <ele>2001.2</ele>
        <time>2024-08-10T06:48:57Z</time>
      </trkpt>
      <trkpt lat="45.07561" lon="6.19733">
        <ele>2001.2</ele>
        <time>2024-08-10T06:48:58Z</time>
      </trkpt>
      <trkpt lat="45.07561" lon="6.19733">
        <ele>2001.2</ele>
        <time>2024-08-10T06:48:59Z</time>
      </trkpt>
      <trkpt lat="45.07558" lon="6.19733">
        <ele>2001.4</ele>
        <time>2024-08-10T06:49:00Z</time>
      </trkpt>
      <trkpt lat="45.07558" lon="6.19733">
        <ele>2001.8</ele>
        <time>2024-08-10T06:49:01Z</time>
      </trkpt>
      <trkpt lat="45.07558" lon="6.19733">
        <ele>2002</ele>
        <time>2024-08-10T06:49:02Z</time>
      </trkpt>
      <trkpt lat="45.07556" lon="6.19734">
        <ele>2002.6</ele>
        <time>2024-08-10T06:49:03Z</time>
      </trkpt>
      <trkpt lat="45.07556" lon="6.19734">
        <ele>2002.6</ele>
        <time>2024-08-10T06:49:04Z</time>
      </trkpt>
      <trkpt lat="45.07556" lon="6.19734">
        <ele>2003</ele>
        <time>2024-08-10T06:49:05Z</time>
      </trkpt>
      <trkpt lat="45.07556" lon="6.19734">
        <ele>2003</ele>
        <time>2024-08-10T06:49:06Z</time>
      </trkpt>
      <trkpt lat="45.07556" lon="6.19734">
        <ele>2003.2</ele>
        <time>2024-08-10T06:49:07Z</time>
      </trkpt>
      <trkpt lat="45.07554" lon="6.19735">
        <ele>2003.6</ele>
        <time>2024-08-10T06:49:08Z</time>
      </trkpt>
      <trkpt lat="45.07554" lon="6.19735">
        <ele>2003.6</ele>
        <time>2024-08-10T06:49:09Z</time>
      </trkpt>
      <trkpt lat="45.07552" lon="6.19736">
        <ele>2003.6</ele>
        <time>2024-08-10T06:49:10Z</time>
      </trkpt>
      <trkpt lat="45.07552" lon="6.19736">
        <ele>2003.8</ele>
        <time>2024-08-10T06:49:11Z</time>
      </trkpt>
      <trkpt lat="45.0755" lon="6.19737">
        <ele>2003.8</ele>
        <time>2024-08-10T06:49:12Z</time>
      </trkpt>
      <trkpt lat="45.0755" lon="6.19737">
        <ele>2004</ele>
        <time>2024-08-10T06:49:13Z</time>
      </trkpt>
      <trkpt lat="45.0755" lon="6.19737">
        <ele>2004</ele>
        <time>2024-08-10T06:49:14Z</time>
      </trkpt>
      <trkpt lat="45.07548" lon="6.19739">
        <ele>2004.2</ele>
        <time>2024-08-10T06:49:15Z</time>
      </trkpt>
      <trkpt lat="45.07548" lon="6.19739">
        <ele>2004.4</ele>
        <time>2024-08-10T06:49:16Z</time>
      </trkpt>
      <trkpt lat="45.07548" lon="6.19739">
        <ele>2004.6</ele>
        <time>2024-08-10T06:49:17Z</time>
      </trkpt>
      <trkpt lat="45.07546" lon="6.1974">
        <ele>2005</ele>
        <time>2024-08-10T06:49:18Z</time>
      </trkpt>
      <trkpt lat="45.07546" lon="6.1974">
        <ele>2005</ele>
        <time>2024-08-10T06:49:19Z</time>
      </trkpt>
      <trkpt lat="45.07546" lon="6.1974">
        <ele>2005.2</ele>
        <time>2024-08-10T06:49:20Z</time>
      </trkpt>
      <trkpt lat="45.07545" lon="6.19741">
        <ele>2005.6</ele>
        <time>2024-08-10T06:49:21Z</time>
      </trkpt>
      <trkpt lat="45.07545" lon="6.19741">
        <ele>2006</ele>
        <time>2024-08-10T06:49:22Z</time>
      </trkpt>
      <trkpt lat="45.07545" lon="6.19741">
        <ele>2006</ele>
        <time>2024-08-10T06:49:23Z</time>
      </trkpt>
      <trkpt lat="45.07542" lon="6.19742">
        <ele>2006.2</ele>
        <time>2024-08-10T06:49:24Z</time>
      </trkpt>
      <trkpt lat="45.07542" lon="6.19742">
        <ele>2006.6</ele>
        <time>2024-08-10T06:49:25Z</time>
      </trkpt>
      <trkpt lat="45.07542" lon="6.19742">
        <ele>2006.6</ele>
        <time>2024-08-10T06:49:26Z</time>
      </trkpt>
      <trkpt lat="45.0754" lon="6.19742">
        <ele>2006.8</ele>
        <time>2024-08-10T06:49:27Z</time>
      </trkpt>
      <trkpt lat="45.0754" lon="6.19742">
        <ele>2006.8</ele>
        <time>2024-08-10T06:49:28Z</time>
      </trkpt>
      <trkpt lat="45.0754" lon="6.19742">
        <ele>2007</ele>
        <time>2024-08-10T06:49:29Z</time>
      </trkpt>
      <trkpt lat="45.07538" lon="6.19742">
        <ele>2007.4</ele>
        <time>2024-08-10T06:49:30Z</time>
      </trkpt>
      <trkpt lat="45.07538" lon="6.19742">
        <ele>2007.6</ele>
        <time>2024-08-10T06:49:31Z</time>
      </trkpt>
      <trkpt lat="45.07536" lon="6.19742">
        <ele>2007.6</ele>
        <time>2024-08-10T06:49:32Z</time>
      </trkpt>
      <trkpt lat="45.07536" lon="6.19742">
        <ele>2007.8</ele>
        <time>2024-08-10T06:49:33Z</time>
      </trkpt>
      <trkpt lat="45.07536" lon="6.19742">
        <ele>2008</ele>
        <time>2024-08-10T06:49:34Z</time>
      </trkpt>
      <trkpt lat="45.07534" lon="6.19744">
        <ele>2008.4</ele>
        <time>2024-08-10T06:49:35Z</time>
      </trkpt>
      <trkpt lat="45.07534" lon="6.19744">
        <ele>2008.6</ele>
        <time>2024-08-10T06:49:36Z</time>
      </trkpt>
      <trkpt lat="45.07532" lon="6.19745">
        <ele>2008.6</ele>
        <time>2024-08-10T06:49:37Z</time>
      </trkpt>
      <trkpt lat="45.07532" lon="6.19745">
        <ele>2008.8</ele>
        <time>2024-08-10T06:49:38Z</time>
      </trkpt>
      <trkpt lat="45.07531" lon="6.19746">
        <ele>2008.8</ele>
        <time>2024-08-10T06:49:39Z</time>
      </trkpt>
      <trkpt lat="45.07531" lon="6.19746">
        <ele>2009.2</ele>
        <time>2024-08-10T06:49:40Z</time>
      </trkpt>
      <trkpt lat="45.07531" lon="6.19746">
        <ele>2009.2</ele>
        <time>2024-08-10T06:49:41Z</time>
      </trkpt>
      <trkpt lat="45.07531" lon="6.19746">
        <ele>2009.2</ele>
        <time>2024-08-10T06:49:42Z</time>
      </trkpt>
      <trkpt lat="45.0753" lon="6.19749">
        <ele>2009.4</ele>
        <time>2024-08-10T06:49:43Z</time>
      </trkpt>
      <trkpt lat="45.0753" lon="6.19749">
        <ele>2009.4</ele>
        <time>2024-08-10T06:49:44Z</time>
      </trkpt>
      <trkpt lat="45.0753" lon="6.19749">
        <ele>2009.6</ele>
        <time>2024-08-10T06:49:45Z</time>
      </trkpt>
      <trkpt lat="45.07532" lon="6.19752">
        <ele>2010</ele>
        <time>2024-08-10T06:49:46Z</time>
      </trkpt>
      <trkpt lat="45.07532" lon="6.19752">
        <ele>2010.2</ele>
        <time>2024-08-10T06:49:47Z</time>
      </trkpt>
      <trkpt lat="45.07534" lon="6.19753">
        <ele>2010.6</ele>
        <time>2024-08-10T06:49:48Z</time>
      </trkpt>
      <trkpt lat="45.07534" lon="6.19753">
        <ele>2010.8</ele>
        <time>2024-08-10T06:49:49Z</time>
      </trkpt>
      <trkpt lat="45.07536" lon="6.19753">
        <ele>2010.8</ele>
        <time>2024-08-10T06:49:50Z</time>
      </trkpt>
      <trkpt lat="45.07536" lon="6.19753">
        <ele>2011</ele>
        <time>2024-08-10T06:49:51Z</time>
      </trkpt>
      <trkpt lat="45.07538" lon="6.19754">
        <ele>2011.2</ele>
        <time>2024-08-10T06:49:52Z</time>
      </trkpt>
      <trkpt lat="45.07538" lon="6.19754">
        <ele>2011.2</ele>
        <time>2024-08-10T06:49:53Z</time>
      </trkpt>
      <trkpt lat="45.07538" lon="6.19754">
        <ele>2011.4</ele>
        <time>2024-08-10T06:49:54Z</time>
      </trkpt>
      <trkpt lat="45.07539" lon="6.19756">
        <ele>2011.4</ele>
        <time>2024-08-10T06:49:55Z</time>
      </trkpt>
      <trkpt lat="45.07539" lon="6.19756">
        <ele>2011.4</ele>
        <time>2024-08-10T06:49:56Z</time>
      </trkpt>
      <trkpt lat="45.07539" lon="6.19756">
        <ele>2011.8</ele>
        <time>2024-08-10T06:49:57Z</time>
      </trkpt>
      <trkpt lat="45.07536" lon="6.19759">
        <ele>2012</ele>
        <time>2024-08-10T06:49:58Z</time>
      </trkpt>
      <trkpt lat="45.07536" lon="6.19759">
        <ele>2012</ele>
        <time>2024-08-10T06:49:59Z</time>
      </trkpt>
      <trkpt lat="45.07535" lon="6.1976">
        <ele>2012.2</ele>
        <time>2024-08-10T06:50:00Z</time>
      </trkpt>
      <trkpt lat="45.07535" lon="6.1976">
        <ele>2012.4</ele>
        <time>2024-08-10T06:50:01Z</time>
      </trkpt>
      <trkpt lat="45.07533" lon="6.19762">
        <ele>2012.6</ele>
        <time>2024-08-10T06:50:02Z</time>
      </trkpt>
      <trkpt lat="45.07533" lon="6.19762">
        <ele>2013.6</ele>
        <time>2024-08-10T06:50:03Z</time>
      </trkpt>
      <trkpt lat="45.07531" lon="6.19764">
        <ele>2013.6</ele>
        <time>2024-08-10T06:50:04Z</time>
      </trkpt>
      <trkpt lat="45.07531" lon="6.19764">
        <ele>2013.6</ele>
        <time>2024-08-10T06:50:05Z</time>
      </trkpt>
      <trkpt lat="45.07531" lon="6.19764">
        <ele>2013.6</ele>
        <time>2024-08-10T06:50:06Z</time>
      </trkpt>
      <trkpt lat="45.0753" lon="6.19766">
        <ele>2013.8</ele>
        <time>2024-08-10T06:50:07Z</time>
      </trkpt>
      <trkpt lat="45.0753" lon="6.19766">
        <ele>2013.8</ele>
        <time>2024-08-10T06:50:08Z</time>
      </trkpt>
      <trkpt lat="45.07528" lon="6.19767">
        <ele>2014.2</ele>
        <time>2024-08-10T06:50:09Z</time>
      </trkpt>
      <trkpt lat="45.07528" lon="6.19767">
        <ele>2014.4</ele>
        <time>2024-08-10T06:50:10Z</time>
      </trkpt>
      <trkpt lat="45.07526" lon="6.19768">
        <ele>2014.6</ele>
        <time>2024-08-10T06:50:11Z</time>
      </trkpt>
      <trkpt lat="45.07526" lon="6.19768">
        <ele>2014.8</ele>
        <time>2024-08-10T06:50:12Z</time>
      </trkpt>
      <trkpt lat="45.07526" lon="6.19768">
        <ele>2015.2</ele>
        <time>2024-08-10T06:50:13Z</time>
      </trkpt>
      <trkpt lat="45.07523" lon="6.19769">
        <ele>2015.2</ele>
        <time>2024-08-10T06:50:14Z</time>
      </trkpt>
      <trkpt lat="45.07523" lon="6.19769">
        <ele>2015.2</ele>
        <time>2024-08-10T06:50:15Z</time>
      </trkpt>
      <trkpt lat="45.07523" lon="6.19769">
        <ele>2015.8</ele>
        <time>2024-08-10T06:50:16Z</time>
      </trkpt>
      <trkpt lat="45.07523" lon="6.19769">
        <ele>2015.8</ele>
        <time>2024-08-10T06:50:17Z</time>
      </trkpt>
      <trkpt lat="45.07522" lon="6.19771">
        <ele>2015.8</ele>
        <time>2024-08-10T06:50:18Z</time>
      </trkpt>
      <trkpt lat="45.07522" lon="6.19771">
        <ele>2016</ele>
        <time>2024-08-10T06:50:19Z</time>
      </trkpt>
      <trkpt lat="45.07522" lon="6.19771">
        <ele>2016.4</ele>
        <time>2024-08-10T06:50:20Z</time>
      </trkpt>
      <trkpt lat="45.07525" lon="6.19774">
        <ele>2016.6</ele>
        <time>2024-08-10T06:50:21Z</time>
      </trkpt>
      <trkpt lat="45.07525" lon="6.19774">
        <ele>2016.6</ele>
        <time>2024-08-10T06:50:22Z</time>
      </trkpt>
      <trkpt lat="45.07526" lon="6.19774">
        <ele>2016.8</ele>
        <time>2024-08-10T06:50:23Z</time>
      </trkpt>
      <trkpt lat="45.07526" lon="6.19774">
        <ele>2017.2</ele>
        <time>2024-08-10T06:50:24Z</time>
      </trkpt>
      <trkpt lat="45.07528" lon="6.19774">
        <ele>2017.4</ele>
        <time>2024-08-10T06:50:25Z</time>
      </trkpt>
      <trkpt lat="45.07528" lon="6.19774">
        <ele>2017.4</ele>
        <time>2024-08-10T06:50:26Z</time>
      </trkpt>
      <trkpt lat="45.07528" lon="6.19774">
        <ele>2017.6</ele>
        <time>2024-08-10T06:50:27Z</time>
      </trkpt>
      <trkpt lat="45.07531" lon="6.19775">
        <ele>2017.8</ele>
        <time>2024-08-10T06:50:28Z</time>
      </trkpt>
      <trkpt lat="45.07531" lon="6.19775">
        <ele>2018</ele>
        <time>2024-08-10T06:50:29Z</time>
      </trkpt>
      <trkpt lat="45.07533" lon="6.19775">
        <ele>2018</ele>
        <time>2024-08-10T06:50:30Z</time>
      </trkpt>
      <trkpt lat="45.07533" lon="6.19775">
        <ele>2018.2</ele>
        <time>2024-08-10T06:50:31Z</time>
      </trkpt>
      <trkpt lat="45.07535" lon="6.19776">
        <ele>2018.6</ele>
        <time>2024-08-10T06:50:32Z</time>
      </trkpt>
      <trkpt lat="45.07535" lon="6.19776">
        <ele>2018.6</ele>
        <time>2024-08-10T06:50:33Z</time>
      </trkpt>
      <trkpt lat="45.07537" lon="6.19776">
        <ele>2018.8</ele>
        <time>2024-08-10T06:50:34Z</time>
      </trkpt>
      <trkpt lat="45.07537" lon="6.19776">
        <ele>2019</ele>
        <time>2024-08-10T06:50:35Z</time>
      </trkpt>
      <trkpt lat="45.07539" lon="6.19777">
        <ele>2019.2</ele>
        <time>2024-08-10T06:50:36Z</time>
      </trkpt>
      <trkpt lat="45.07539" lon="6.19777">
        <ele>2019.2</ele>
        <time>2024-08-10T06:50:37Z</time>
      </trkpt>
      <trkpt lat="45.07541" lon="6.19778">
        <ele>2019.2</ele>
        <time>2024-08-10T06:50:38Z</time>
      </trkpt>
      <trkpt lat="45.07541" lon="6.19778">
        <ele>2019.4</ele>
        <time>2024-08-10T06:50:39Z</time>
      </trkpt>
      <trkpt lat="45.07541" lon="6.19778">
        <ele>2019.4</ele>
        <time>2024-08-10T06:50:40Z</time>
      </trkpt>
      <trkpt lat="45.0754" lon="6.19781">
        <ele>2019.6</ele>
        <time>2024-08-10T06:50:41Z</time>
      </trkpt>
      <trkpt lat="45.0754" lon="6.19781">
        <ele>2019.6</ele>
        <time>2024-08-10T06:50:42Z</time>
      </trkpt>
      <trkpt lat="45.0754" lon="6.19781">
        <ele>2019.8</ele>
        <time>2024-08-10T06:50:43Z</time>
      </trkpt>
      <trkpt lat="45.07538" lon="6.19783">
        <ele>2019.8</ele>
        <time>2024-08-10T06:50:44Z</time>
      </trkpt>
      <trkpt lat="45.07538" lon="6.19783">
        <ele>2019.8</ele>
        <time>2024-08-10T06:50:45Z</time>
      </trkpt>
      <trkpt lat="45.07538" lon="6.19783">
        <ele>2020</ele>
        <time>2024-08-10T06:50:46Z</time>
      </trkpt>
      <trkpt lat="45.07536" lon="6.19784">
        <ele>2020.2</ele>
        <time>2024-08-10T06:50:47Z</time>
      </trkpt>
      <trkpt lat="45.07536" lon="6.19784">
        <ele>2020.6</ele>
        <time>2024-08-10T06:50:48Z</time>
      </trkpt>
      <trkpt lat="45.07536" lon="6.19784">
        <ele>2021.4</ele>
        <time>2024-08-10T06:50:49Z</time>
      </trkpt>
      <trkpt lat="45.07534" lon="6.19785">
        <ele>2021.4</ele>
        <time>2024-08-10T06:50:50Z</time>
      </trkpt>
      <trkpt lat="45.07534" lon="6.19785">
        <ele>2021.4</ele>
        <time>2024-08-10T06:50:51Z</time>
      </trkpt>
      <trkpt lat="45.07534" lon="6.19785">
        <ele>2021.4</ele>
        <time>2024-08-10T06:50:52Z</time>
      </trkpt>
      <trkpt lat="45.07533" lon="6.19788">
        <ele>2021.8</ele>
        <time>2024-08-10T06:50:53Z</time>
      </trkpt>
      <trkpt lat="45.07533" lon="6.19788">
        <ele>2022</ele>
        <time>2024-08-10T06:50:54Z</time>
      </trkpt>
      <trkpt lat="45.07533" lon="6.19788">
        <ele>2022.4</ele>
        <time>2024-08-10T06:50:55Z</time>
      </trkpt>
      <trkpt lat="45.07534" lon="6.1979">
        <ele>2022.4</ele>
        <time>2024-08-10T06:50:56Z</time>
      </trkpt>
      <trkpt lat="45.07534" lon="6.1979">
        <ele>2022.4</ele>
        <time>2024-08-10T06:50:57Z</time>
      </trkpt>
      <trkpt lat="45.07534" lon="6.1979">
        <ele>2022.6</ele>
        <time>2024-08-10T06:50:58Z</time>
      </trkpt>
      <trkpt lat="45.07536" lon="6.19792">
        <ele>2023</ele>
        <time>2024-08-10T06:50:59Z</time>
      </trkpt>
      <trkpt lat="45.07536" lon="6.19792">
        <ele>2023.4</ele>
        <time>2024-08-10T06:51:00Z</time>
      </trkpt>
      <trkpt lat="45.07536" lon="6.19792">
        <ele>2023.8</ele>
        <time>2024-08-10T06:51:01Z</time>
      </trkpt>
      <trkpt lat="45.07538" lon="6.19794">
        <ele>2023.8</ele>
        <time>2024-08-10T06:51:02Z</time>
      </trkpt>
      <trkpt lat="45.07538" lon="6.19794">
        <ele>2024.2</ele>
        <time>2024-08-10T06:51:03Z</time>
      </trkpt>
      <trkpt lat="45.0754" lon="6.19795">
        <ele>2024.2</ele>
        <time>2024-08-10T06:51:04Z</time>
      </trkpt>
      <trkpt lat="45.0754" lon="6.19795">
        <ele>2024.2</ele>
        <time>2024-08-10T06:51:05Z</time>
      </trkpt>
      <trkpt lat="45.0754" lon="6.19795">
        <ele>2024.6</ele>
        <time>2024-08-10T06:51:06Z</time>
      </trkpt>
      <trkpt lat="45.07542" lon="6.19797">
        <ele>2024.8</ele>
        <time>2024-08-10T06:51:07Z</time>
      </trkpt>
      <trkpt lat="45.07542" lon="6.19797">
        <ele>2024.8</ele>
        <time>2024-08-10T06:51:08Z</time>
      </trkpt>
      <trkpt lat="45.07542" lon="6.19797">
        <ele>2025</ele>
        <time>2024-08-10T06:51:09Z</time>
      </trkpt>
      <trkpt lat="45.07544" lon="6.19799">
        <ele>2025.2</ele>
        <time>2024-08-10T06:51:10Z</time>
      </trkpt>
      <trkpt lat="45.07544" lon="6.19799">
        <ele>2025.4</ele>
        <time>2024-08-10T06:51:11Z</time>
      </trkpt>
      <trkpt lat="45.07544" lon="6.19799">
        <ele>2025.6</ele>
        <time>2024-08-10T06:51:12Z</time>
      </trkpt>
      <trkpt lat="45.07545" lon="6.19801">
        <ele>2025.8</ele>
        <time>2024-08-10T06:51:13Z</time>
      </trkpt>
      <trkpt lat="45.07545" lon="6.19801">
        <ele>2025.8</ele>
        <time>2024-08-10T06:51:14Z</time>
      </trkpt>
      <trkpt lat="45.07545" lon="6.19801">
        <ele>2026.2</ele>
        <time>2024-08-10T06:51:15Z</time>
      </trkpt>
      <trkpt lat="45.07546" lon="6.19804">
        <ele>2026.4</ele>
        <time>2024-08-10T06:51:16Z</time>
      </trkpt>
      <trkpt lat="45.07546" lon="6.19804">
        <ele>2026.8</ele>
        <time>2024-08-10T06:51:17Z</time>
      </trkpt>
      <trkpt lat="45.07546" lon="6.19804">
        <ele>2026.8</ele>
        <time>2024-08-10T06:51:18Z</time>
      </trkpt>
      <trkpt lat="45.07546" lon="6.19807">
        <ele>2027</ele>
        <time>2024-08-10T06:51:19Z</time>
      </trkpt>
      <trkpt lat="45.07546" lon="6.19807">
        <ele>2027.2</ele>
        <time>2024-08-10T06:51:20Z</time>
      </trkpt>
      <trkpt lat="45.07546" lon="6.19807">
        <ele>2027.2</ele>
        <time>2024-08-10T06:51:21Z</time>
      </trkpt>
      <trkpt lat="45.07545" lon="6.19809">
        <ele>2027.6</ele>
        <time>2024-08-10T06:51:22Z</time>
      </trkpt>
      <trkpt lat="45.07545" lon="6.19809">
        <ele>2027.8</ele>
        <time>2024-08-10T06:51:23Z</time>
      </trkpt>
      <trkpt lat="45.07545" lon="6.19809">
        <ele>2027.8</ele>
        <time>2024-08-10T06:51:24Z</time>
      </trkpt>
      <trkpt lat="45.07543" lon="6.19812">
        <ele>2028</ele>
        <time>2024-08-10T06:51:25Z</time>
      </trkpt>
      <trkpt lat="45.07543" lon="6.19812">
        <ele>2028.4</ele>
        <time>2024-08-10T06:51:26Z</time>
      </trkpt>
      <trkpt lat="45.07543" lon="6.19812">
        <ele>2028.6</ele>
        <time>2024-08-10T06:51:27Z</time>
      </trkpt>
      <trkpt lat="45.07541" lon="6.19813">
        <ele>2028.6</ele>
        <time>2024-08-10T06:51:28Z</time>
      </trkpt>
      <trkpt lat="45.07541" lon="6.19813">
        <ele>2028.8</ele>
        <time>2024-08-10T06:51:29Z</time>
      </trkpt>
      <trkpt lat="45.07541" lon="6.19813">
        <ele>2029.2</ele>
        <time>2024-08-10T06:51:30Z</time>
      </trkpt>
      <trkpt lat="45.07539" lon="6.19815">
        <ele>2029.2</ele>
        <time>2024-08-10T06:51:31Z</time>
      </trkpt>
      <trkpt lat="45.07539" lon="6.19815">
        <ele>2029.4</ele>
        <time>2024-08-10T06:51:32Z</time>
      </trkpt>
      <trkpt lat="45.07539" lon="6.19815">
        <ele>2029.6</ele>
        <time>2024-08-10T06:51:33Z</time>
      </trkpt>
      <trkpt lat="45.07537" lon="6.19816">
        <ele>2029.8</ele>
        <time>2024-08-10T06:51:34Z</time>
      </trkpt>
      <trkpt lat="45.07537" lon="6.19816">
        <ele>2030.6</ele>
        <time>2024-08-10T06:51:35Z</time>
      </trkpt>
      <trkpt lat="45.07537" lon="6.19816">
        <ele>2030.6</ele>
        <time>2024-08-10T06:51:36Z</time>
      </trkpt>
      <trkpt lat="45.07535" lon="6.19818">
        <ele>2030.8</ele>
        <time>2024-08-10T06:51:37Z</time>
      </trkpt>
      <trkpt lat="45.07535" lon="6.19818">
        <ele>2030.8</ele>
        <time>2024-08-10T06:51:38Z</time>
      </trkpt>
      <trkpt lat="45.07535" lon="6.19818">
        <ele>2031</ele>
        <time>2024-08-10T06:51:39Z</time>
      </trkpt>
      <trkpt lat="45.07534" lon="6.1982">
        <ele>2031</ele>
        <time>2024-08-10T06:51:40Z</time>
      </trkpt>
      <trkpt lat="45.07534" lon="6.1982">
        <ele>2031.4</ele>
        <time>2024-08-10T06:51:41Z</time>
      </trkpt>
      <trkpt lat="45.07534" lon="6.1982">
        <ele>2031.6</ele>
        <time>2024-08-10T06:51:42Z</time>
      </trkpt>
      <trkpt lat="45.07533" lon="6.19822">
        <ele>2031.8</ele>
        <time>2024-08-10T06:51:43Z</time>
      </trkpt>
      <trkpt lat="45.07533" lon="6.19822">
        <ele>2032</ele>
        <time>2024-08-10T06:51:44Z</time>
      </trkpt>
      <trkpt lat="45.07533" lon="6.19822">
        <ele>2032.2</ele>
        <time>2024-08-10T06:51:45Z</time>
      </trkpt>
      <trkpt lat="45.07532" lon="6.19825">
        <ele>2032.2</ele>
        <time>2024-08-10T06:51:46Z</time>
      </trkpt>
      <trkpt lat="45.07532" lon="6.19825">
        <ele>2032.6</ele>
        <time>2024-08-10T06:51:47Z</time>
      </trkpt>
      <trkpt lat="45.07532" lon="6.19825">
        <ele>2032.8</ele>
        <time>2024-08-10T06:51:48Z</time>
      </trkpt>
      <trkpt lat="45.07533" lon="6.19828">
        <ele>2032.8</ele>
        <time>2024-08-10T06:51:49Z</time>
      </trkpt>
      <trkpt lat="45.07533" lon="6.19828">
        <ele>2033</ele>
        <time>2024-08-10T06:51:50Z</time>
      </trkpt>
      <trkpt lat="45.07533" lon="6.19828">
        <ele>2033.2</ele>
        <time>2024-08-10T06:51:51Z</time>
      </trkpt>
      <trkpt lat="45.07535" lon="6.1983">
        <ele>2033.4</ele>
        <time>2024-08-10T06:51:52Z</time>
      </trkpt>
      <trkpt lat="45.07535" lon="6.1983">
        <ele>2033.8</ele>
        <time>2024-08-10T06:51:53Z</time>
      </trkpt>
      <trkpt lat="45.07535" lon="6.1983">
        <ele>2033.8</ele>
        <time>2024-08-10T06:51:54Z</time>
      </trkpt>
      <trkpt lat="45.07537" lon="6.19833">
        <ele>2034.2</ele>
        <time>2024-08-10T06:51:55Z</time>
      </trkpt>
      <trkpt lat="45.07537" lon="6.19833">
        <ele>2034.4</ele>
        <time>2024-08-10T06:51:56Z</time>
      </trkpt>
      <trkpt lat="45.07537" lon="6.19833">
        <ele>2034.4</ele>
        <time>2024-08-10T06:51:57Z</time>
      </trkpt>
      <trkpt lat="45.07537" lon="6.19836">
        <ele>2034.6</ele>
        <time>2024-08-10T06:51:58Z</time>
      </trkpt>
      <trkpt lat="45.07537" lon="6.19836">
        <ele>2034.8</ele>
        <time>2024-08-10T06:51:59Z</time>
      </trkpt>
      <trkpt lat="45.07537" lon="6.19836">
        <ele>2034.8</ele>
        <time>2024-08-10T06:52:00Z</time>
      </trkpt>
      <trkpt lat="45.07538" lon="6.19838">
        <ele>2035.4</ele>
        <time>2024-08-10T06:52:01Z</time>
      </trkpt>
      <trkpt lat="45.07538" lon="6.19838">
        <ele>2035.4</ele>
        <time>2024-08-10T06:52:02Z</time>
      </trkpt>
      <trkpt lat="45.07538" lon="6.19838">
        <ele>2035.6</ele>
        <time>2024-08-10T06:52:03Z</time>
      </trkpt>
      <trkpt lat="45.0754" lon="6.1984">
        <ele>2035.6</ele>
        <time>2024-08-10T06:52:04Z</time>
      </trkpt>
      <trkpt lat="45.0754" lon="6.1984">
        <ele>2035.8</ele>
        <time>2024-08-10T06:52:05Z</time>
      </trkpt>
      <trkpt lat="45.0754" lon="6.1984">
        <ele>2036.2</ele>
        <time>2024-08-10T06:52:06Z</time>
      </trkpt>
      <trkpt lat="45.07542" lon="6.1984">
        <ele>2036.4</ele>
        <time>2024-08-10T06:52:07Z</time>
      </trkpt>
      <trkpt lat="45.07542" lon="6.1984">
        <ele>2036.6</ele>
        <time>2024-08-10T06:52:08Z</time>
      </trkpt>
      <trkpt lat="45.07542" lon="6.1984">
        <ele>2036.6</ele>
        <time>2024-08-10T06:52:09Z</time>
      </trkpt>
      <trkpt lat="45.07543" lon="6.19842">
        <ele>2037</ele>
        <time>2024-08-10T06:52:10Z</time>
      </trkpt>
      <trkpt lat="45.07543" lon="6.19842">
        <ele>2037.4</ele>
        <time>2024-08-10T06:52:11Z</time>
      </trkpt>
      <trkpt lat="45.07543" lon="6.19842">
        <ele>2037.4</ele>
        <time>2024-08-10T06:52:12Z</time>
      </trkpt>
      <trkpt lat="45.07543" lon="6.19846">
        <ele>2037.4</ele>
        <time>2024-08-10T06:52:13Z</time>
      </trkpt>
      <trkpt lat="45.07543" lon="6.19846">
        <ele>2038</ele>
        <time>2024-08-10T06:52:14Z</time>
      </trkpt>
      <trkpt lat="45.07541" lon="6.19847">
        <ele>2038</ele>
        <time>2024-08-10T06:52:15Z</time>
      </trkpt>
      <trkpt lat="45.07541" lon="6.19847">
        <ele>2037.8</ele>
        <time>2024-08-10T06:52:16Z</time>
      </trkpt>
      <trkpt lat="45.07539" lon="6.19848">
        <ele>2037.8</ele>
        <time>2024-08-10T06:52:17Z</time>
      </trkpt>
      <trkpt lat="45.07539" lon="6.19848">
        <ele>2038</ele>
        <time>2024-08-10T06:52:18Z</time>
      </trkpt>
      <trkpt lat="45.07539" lon="6.19848">
        <ele>2038.2</ele>
        <time>2024-08-10T06:52:19Z</time>
      </trkpt>
      <trkpt lat="45.07537" lon="6.19849">
        <ele>2038.4</ele>
        <time>2024-08-10T06:52:20Z</time>
      </trkpt>
      <trkpt lat="45.07537" lon="6.19849">
        <ele>2038.4</ele>
        <time>2024-08-10T06:52:21Z</time>
      </trkpt>
      <trkpt lat="45.07537" lon="6.19849">
        <ele>2038.6</ele>
        <time>2024-08-10T06:52:22Z</time>
      </trkpt>
      <trkpt lat="45.07534" lon="6.1985">
        <ele>2038.8</ele>
        <time>2024-08-10T06:52:23Z</time>
      </trkpt>
      <trkpt lat="45.07534" lon="6.1985">
        <ele>2039</ele>
        <time>2024-08-10T06:52:24Z</time>
      </trkpt>
      <trkpt lat="45.07534" lon="6.1985">
        <ele>2039.2</ele>
        <time>2024-08-10T06:52:25Z</time>
      </trkpt>
      <trkpt lat="45.07534" lon="6.1985">
        <ele>2039.4</ele>
        <time>2024-08-10T06:52:26Z</time>
      </trkpt>
      <trkpt lat="45.07534" lon="6.1985">
        <ele>2039.6</ele>
        <time>2024-08-10T06:52:27Z</time>
      </trkpt>
      <trkpt lat="45.07534" lon="6.19852">
        <ele>2039.8</ele>
        <time>2024-08-10T06:52:28Z</time>
      </trkpt>
      <trkpt lat="45.07534" lon="6.19852">
        <ele>2039.8</ele>
        <time>2024-08-10T06:52:29Z</time>
      </trkpt>
      <trkpt lat="45.07536" lon="6.19853">
        <ele>2040</ele>
        <time>2024-08-10T06:52:30Z</time>
      </trkpt>
      <trkpt lat="45.07536" lon="6.19853">
        <ele>2040.4</ele>
        <time>2024-08-10T06:52:31Z</time>
      </trkpt>
      <trkpt lat="45.07536" lon="6.19853">
        <ele>2040.8</ele>
        <time>2024-08-10T06:52:32Z</time>
      </trkpt>
      <trkpt lat="45.07538" lon="6.19855">
        <ele>2040.8</ele>
        <time>2024-08-10T06:52:33Z</time>
      </trkpt>
      <trkpt lat="45.07538" lon="6.19855">
        <ele>2040.8</ele>
        <time>2024-08-10T06:52:34Z</time>
      </trkpt>
      <trkpt lat="45.07538" lon="6.19855">
        <ele>2041.2</ele>
        <time>2024-08-10T06:52:35Z</time>
      </trkpt>
      <trkpt lat="45.0754" lon="6.19858">
        <ele>2041.6</ele>
        <time>2024-08-10T06:52:36Z</time>
      </trkpt>
      <trkpt lat="45.0754" lon="6.19858">
        <ele>2041.6</ele>
        <time>2024-08-10T06:52:37Z</time>
      </trkpt>
      <trkpt lat="45.07541" lon="6.1986">
        <ele>2041.8</ele>
        <time>2024-08-10T06:52:38Z</time>
      </trkpt>
      <trkpt lat="45.07541" lon="6.1986">
        <ele>2041.8</ele>
        <time>2024-08-10T06:52:39Z</time>
      </trkpt>
      <trkpt lat="45.07542" lon="6.19861">
        <ele>2042</ele>
        <time>2024-08-10T06:52:40Z</time>
      </trkpt>
      <trkpt lat="45.07542" lon="6.19861">
        <ele>2042</ele>
        <time>2024-08-10T06:52:41Z</time>
      </trkpt>
      <trkpt lat="45.07542" lon="6.19861">
        <ele>2042</ele>
        <time>2024-08-10T06:52:42Z</time>
      </trkpt>
      <trkpt lat="45.07542" lon="6.19861">
        <ele>2042.6</ele>
        <time>2024-08-10T06:52:43Z</time>
      </trkpt>
      <trkpt lat="45.07544" lon="6.19863">
        <ele>2042.6</ele>
        <time>2024-08-10T06:52:44Z</time>
      </trkpt>
      <trkpt lat="45.07544" lon="6.19863">
        <ele>2043</ele>
        <time>2024-08-10T06:52:45Z</time>
      </trkpt>
      <trkpt lat="45.07546" lon="6.19864">
        <ele>2043</ele>
        <time>2024-08-10T06:52:46Z</time>
      </trkpt>
      <trkpt lat="45.07546" lon="6.19864">
        <ele>2043.2</ele>
        <time>2024-08-10T06:52:47Z</time>
      </trkpt>
      <trkpt lat="45.07546" lon="6.19864">
        <ele>2043.4</ele>
        <time>2024-08-10T06:52:48Z</time>
      </trkpt>
      <trkpt lat="45.07548" lon="6.19866">
        <ele>2043.8</ele>
        <time>2024-08-10T06:52:49Z</time>
      </trkpt>
      <trkpt lat="45.07548" lon="6.19866">
        <ele>2044</ele>
        <time>2024-08-10T06:52:50Z</time>
      </trkpt>
      <trkpt lat="45.07548" lon="6.19866">
        <ele>2044.4</ele>
        <time>2024-08-10T06:52:51Z</time>
      </trkpt>
      <trkpt lat="45.0755" lon="6.19866">
        <ele>2044.4</ele>
        <time>2024-08-10T06:52:52Z</time>
      </trkpt>
      <trkpt lat="45.0755" lon="6.19866">
        <ele>2044.4</ele>
        <time>2024-08-10T06:52:53Z</time>
      </trkpt>
      <trkpt lat="45.0755" lon="6.19866">
        <ele>2044.6</ele>
        <time>2024-08-10T06:52:54Z</time>
      </trkpt>
      <trkpt lat="45.07552" lon="6.19866">
        <ele>2045</ele>
        <time>2024-08-10T06:52:55Z</time>
      </trkpt>
      <trkpt lat="45.07552" lon="6.19866">
        <ele>2045.2</ele>
        <time>2024-08-10T06:52:56Z</time>
      </trkpt>
      <trkpt lat="45.07552" lon="6.19866">
        <ele>2045.2</ele>
        <time>2024-08-10T06:52:57Z</time>
      </trkpt>
      <trkpt lat="45.07555" lon="6.19867">
        <ele>2045.2</ele>
        <time>2024-08-10T06:52:58Z</time>
      </trkpt>
      <trkpt lat="45.07555" lon="6.19867">
        <ele>2045.6</ele>
        <time>2024-08-10T06:52:59Z</time>
      </trkpt>
      <trkpt lat="45.07555" lon="6.19867">
        <ele>2046</ele>
        <time>2024-08-10T06:53:00Z</time>
      </trkpt>
      <trkpt lat="45.07556" lon="6.1987">
        <ele>2046</ele>
        <time>2024-08-10T06:53:01Z</time>
      </trkpt>
      <trkpt lat="45.07556" lon="6.1987">
        <ele>2046.2</ele>
        <time>2024-08-10T06:53:02Z</time>
      </trkpt>
      <trkpt lat="45.07556" lon="6.1987">
        <ele>2046.2</ele>
        <time>2024-08-10T06:53:03Z</time>
      </trkpt>
      <trkpt lat="45.07557" lon="6.19873">
        <ele>2046.2</ele>
        <time>2024-08-10T06:53:04Z</time>
      </trkpt>
      <trkpt lat="45.07557" lon="6.19873">
        <ele>2046.6</ele>
        <time>2024-08-10T06:53:05Z</time>
      </trkpt>
      <trkpt lat="45.07557" lon="6.19873">
        <ele>2046.8</ele>
        <time>2024-08-10T06:53:06Z</time>
      </trkpt>
      <trkpt lat="45.07556" lon="6.19876">
        <ele>2046.8</ele>
        <time>2024-08-10T06:53:07Z</time>
      </trkpt>
      <trkpt lat="45.07556" lon="6.19876">
        <ele>2046.8</ele>
        <time>2024-08-10T06:53:08Z</time>
      </trkpt>
      <trkpt lat="45.07556" lon="6.19876">
        <ele>2047</ele>
        <time>2024-08-10T06:53:09Z</time>
      </trkpt>
      <trkpt lat="45.07555" lon="6.19878">
        <ele>2047.4</ele>
        <time>2024-08-10T06:53:10Z</time>
      </trkpt>
      <trkpt lat="45.07555" lon="6.19878">
        <ele>2047.4</ele>
        <time>2024-08-10T06:53:11Z</time>
      </trkpt>
      <trkpt lat="45.07555" lon="6.19878">
        <ele>2047.6</ele>
        <time>2024-08-10T06:53:12Z</time>
      </trkpt>
      <trkpt lat="45.07553" lon="6.1988">
        <ele>2047.6</ele>
        <time>2024-08-10T06:53:13Z</time>
      </trkpt>
      <trkpt lat="45.07553" lon="6.1988">
        <ele>2047.8</ele>
        <time>2024-08-10T06:53:14Z</time>
      </trkpt>
      <trkpt lat="45.07553" lon="6.1988">
        <ele>2048.2</ele>
        <time>2024-08-10T06:53:15Z</time>
      </trkpt>
      <trkpt lat="45.07551" lon="6.19881">
        <ele>2048.6</ele>
        <time>2024-08-10T06:53:16Z</time>
      </trkpt>
      <trkpt lat="45.07551" lon="6.19881">
        <ele>2048.8</ele>
        <time>2024-08-10T06:53:17Z</time>
      </trkpt>
      <trkpt lat="45.07551" lon="6.19881">
        <ele>2049</ele>
        <time>2024-08-10T06:53:18Z</time>
      </trkpt>
      <trkpt lat="45.07551" lon="6.19881">
        <ele>2049.2</ele>
        <time>2024-08-10T06:53:19Z</time>
      </trkpt>
      <trkpt lat="45.07549" lon="6.19883">
        <ele>2049.6</ele>
        <time>2024-08-10T06:53:20Z</time>
      </trkpt>
      <trkpt lat="45.07549" lon="6.19883">
        <ele>2049.6</ele>
        <time>2024-08-10T06:53:21Z</time>
      </trkpt>
      <trkpt lat="45.07549" lon="6.19883">
        <ele>2049.8</ele>
        <time>2024-08-10T06:53:22Z</time>
      </trkpt>
      <trkpt lat="45.07547" lon="6.19885">
        <ele>2049.8</ele>
        <time>2024-08-10T06:53:23Z</time>
      </trkpt>
      <trkpt lat="45.07547" lon="6.19885">
        <ele>2050</ele>
        <time>2024-08-10T06:53:24Z</time>
      </trkpt>
      <trkpt lat="45.07547" lon="6.19885">
        <ele>2050.2</ele>
        <time>2024-08-10T06:53:25Z</time>
      </trkpt>
      <trkpt lat="45.07545" lon="6.19886">
        <ele>2050.4</ele>
        <time>2024-08-10T06:53:26Z</time>
      </trkpt>
      <trkpt lat="45.07545" lon="6.19886">
        <ele>2050.4</ele>
        <time>2024-08-10T06:53:27Z</time>
      </trkpt>
      <trkpt lat="45.07545" lon="6.19886">
        <ele>2050.8</ele>
        <time>2024-08-10T06:53:28Z</time>
      </trkpt>
      <trkpt lat="45.07545" lon="6.19886">
        <ele>2050.8</ele>
        <time>2024-08-10T06:53:29Z</time>
      </trkpt>
      <trkpt lat="45.07542" lon="6.19887">
        <ele>2051</ele>
        <time>2024-08-10T06:53:30Z</time>
      </trkpt>
      <trkpt lat="45.07542" lon="6.19887">
        <ele>2051.4</ele>
        <time>2024-08-10T06:53:31Z</time>
      </trkpt>
      <trkpt lat="45.07542" lon="6.19887">
        <ele>2051.4</ele>
        <time>2024-08-10T06:53:32Z</time>
      </trkpt>
      <trkpt lat="45.07542" lon="6.19887">
        <ele>2051.4</ele>
        <time>2024-08-10T06:53:33Z</time>
      </trkpt>
      <trkpt lat="45.07543" lon="6.19891">
        <ele>2051.8</ele>
        <time>2024-08-10T06:53:34Z</time>
      </trkpt>
      <trkpt lat="45.07543" lon="6.19891">
        <ele>2051.8</ele>
        <time>2024-08-10T06:53:35Z</time>
      </trkpt>
      <trkpt lat="45.07543" lon="6.19891">
        <ele>2052.2</ele>
        <time>2024-08-10T06:53:36Z</time>
      </trkpt>
      <trkpt lat="45.07543" lon="6.19891">
        <ele>2052.4</ele>
        <time>2024-08-10T06:53:37Z</time>
      </trkpt>
      <trkpt lat="45.07544" lon="6.19893">
        <ele>2052.4</ele>
        <time>2024-08-10T06:53:38Z</time>
      </trkpt>
      <trkpt lat="45.07544" lon="6.19893">
        <ele>2052.8</ele>
        <time>2024-08-10T06:53:39Z</time>
      </trkpt>
      <trkpt lat="45.07544" lon="6.19893">
        <ele>2053.2</ele>
        <time>2024-08-10T06:53:40Z</time>
      </trkpt>
      <trkpt lat="45.07546" lon="6.19894">
        <ele>2053.4</ele>
        <time>2024-08-10T06:53:41Z</time>
      </trkpt>
      <trkpt lat="45.07546" lon="6.19894">
        <ele>2053.4</ele>
        <time>2024-08-10T06:53:42Z</time>
      </trkpt>
      <trkpt lat="45.07546" lon="6.19894">
        <ele>2053.6</ele>
        <time>2024-08-10T06:53:43Z</time>
      </trkpt>
      <trkpt lat="45.07546" lon="6.19894">
        <ele>2054</ele>
        <time>2024-08-10T06:53:44Z</time>
      </trkpt>
      <trkpt lat="45.07546" lon="6.19894">
        <ele>2054</ele>
        <time>2024-08-10T06:53:45Z</time>
      </trkpt>
      <trkpt lat="45.07546" lon="6.19898">
        <ele>2054</ele>
        <time>2024-08-10T06:53:46Z</time>
      </trkpt>
      <trkpt lat="45.07546" lon="6.19898">
        <ele>2054</ele>
        <time>2024-08-10T06:53:47Z</time>
      </trkpt>
      <trkpt lat="45.07546" lon="6.19898">
        <ele>2054.4</ele>
        <time>2024-08-10T06:53:48Z</time>
      </trkpt>
      <trkpt lat="45.07546" lon="6.19898">
        <ele>2054.6</ele>
        <time>2024-08-10T06:53:49Z</time>
      </trkpt>
      <trkpt lat="45.07548" lon="6.19901">
        <ele>2054.8</ele>
        <time>2024-08-10T06:53:50Z</time>
      </trkpt>
      <trkpt lat="45.07548" lon="6.19901">
        <ele>2055</ele>
        <time>2024-08-10T06:53:51Z</time>
      </trkpt>
      <trkpt lat="45.07548" lon="6.19901">
        <ele>2055.4</ele>
        <time>2024-08-10T06:53:52Z</time>
      </trkpt>
      <trkpt lat="45.07548" lon="6.19901">
        <ele>2055.4</ele>
        <time>2024-08-10T06:53:53Z</time>
      </trkpt>
      <trkpt lat="45.07549" lon="6.19903">
        <ele>2055.8</ele>
        <time>2024-08-10T06:53:54Z</time>
      </trkpt>
      <trkpt lat="45.07549" lon="6.19903">
        <ele>2055.8</ele>
        <time>2024-08-10T06:53:55Z</time>
      </trkpt>
      <trkpt lat="45.07549" lon="6.19903">
        <ele>2056.2</ele>
        <time>2024-08-10T06:53:56Z</time>
      </trkpt>
      <trkpt lat="45.07551" lon="6.19904">
        <ele>2056.2</ele>
        <time>2024-08-10T06:53:57Z</time>
      </trkpt>
      <trkpt lat="45.07551" lon="6.19904">
        <ele>2056.4</ele>
        <time>2024-08-10T06:53:58Z</time>
      </trkpt>
      <trkpt lat="45.07551" lon="6.19904">
        <ele>2056.6</ele>
        <time>2024-08-10T06:53:59Z</time>
      </trkpt>
      <trkpt lat="45.07553" lon="6.19904">
        <ele>2056.8</ele>
        <time>2024-08-10T06:54:00Z</time>
      </trkpt>
      <trkpt lat="45.07553" lon="6.19904">
        <ele>2057</ele>
        <time>2024-08-10T06:54:01Z</time>
      </trkpt>
      <trkpt lat="45.07553" lon="6.19904">
        <ele>2057.2</ele>
        <time>2024-08-10T06:54:02Z</time>
      </trkpt>
      <trkpt lat="45.07554" lon="6.19906">
        <ele>2057.4</ele>
        <time>2024-08-10T06:54:03Z</time>
      </trkpt>
      <trkpt lat="45.07554" lon="6.19906">
        <ele>2057.4</ele>
        <time>2024-08-10T06:54:04Z</time>
      </trkpt>
      <trkpt lat="45.07554" lon="6.19906">
        <ele>2058</ele>
        <time>2024-08-10T06:54:05Z</time>
      </trkpt>
      <trkpt lat="45.07553" lon="6.19909">
        <ele>2058.2</ele>
        <time>2024-08-10T06:54:06Z</time>
      </trkpt>
      <trkpt lat="45.07553" lon="6.19909">
        <ele>2058.2</ele>
        <time>2024-08-10T06:54:07Z</time>
      </trkpt>
      <trkpt lat="45.07553" lon="6.19909">
        <ele>2058.2</ele>
        <time>2024-08-10T06:54:08Z</time>
      </trkpt>
      <trkpt lat="45.07553" lon="6.19909">
        <ele>2058.4</ele>
        <time>2024-08-10T06:54:09Z</time>
      </trkpt>
      <trkpt lat="45.07552" lon="6.19912">
        <ele>2058.8</ele>
        <time>2024-08-10T06:54:10Z</time>
      </trkpt>
      <trkpt lat="45.07552" lon="6.19912">
        <ele>2058.8</ele>
        <time>2024-08-10T06:54:11Z</time>
      </trkpt>
      <trkpt lat="45.07552" lon="6.19912">
        <ele>2059.2</ele>
        <time>2024-08-10T06:54:12Z</time>
      </trkpt>
      <trkpt lat="45.07552" lon="6.19912">
        <ele>2059.4</ele>
        <time>2024-08-10T06:54:13Z</time>
      </trkpt>
      <trkpt lat="45.07554" lon="6.19912">
        <ele>2059.4</ele>
        <time>2024-08-10T06:54:14Z</time>
      </trkpt>
      <trkpt lat="45.07554" lon="6.19912">
        <ele>2059.6</ele>
        <time>2024-08-10T06:54:15Z</time>
      </trkpt>
      <trkpt lat="45.07554" lon="6.19912">
        <ele>2060.2</ele>
        <time>2024-08-10T06:54:16Z</time>
      </trkpt>
      <trkpt lat="45.07556" lon="6.19912">
        <ele>2060.4</ele>
        <time>2024-08-10T06:54:17Z</time>
      </trkpt>
      <trkpt lat="45.07556" lon="6.19912">
        <ele>2060.6</ele>
        <time>2024-08-10T06:54:18Z</time>
      </trkpt>
      <trkpt lat="45.07556" lon="6.19912">
        <ele>2060.8</ele>
        <time>2024-08-10T06:54:19Z</time>
      </trkpt>
      <trkpt lat="45.07556" lon="6.19912">
        <ele>2061</ele>
        <time>2024-08-10T06:54:20Z</time>
      </trkpt>
      <trkpt lat="45.07558" lon="6.19913">
        <ele>2061.2</ele>
        <time>2024-08-10T06:54:21Z</time>
      </trkpt>
      <trkpt lat="45.07558" lon="6.19913">
        <ele>2061.4</ele>
        <time>2024-08-10T06:54:22Z</time>
      </trkpt>
      <trkpt lat="45.07558" lon="6.19913">
        <ele>2061.4</ele>
        <time>2024-08-10T06:54:23Z</time>
      </trkpt>
      <trkpt lat="45.07558" lon="6.19913">
        <ele>2062</ele>
        <time>2024-08-10T06:54:24Z</time>
      </trkpt>
      <trkpt lat="45.07558" lon="6.19913">
        <ele>2062.2</ele>
        <time>2024-08-10T06:54:25Z</time>
      </trkpt>
      <trkpt lat="45.0756" lon="6.19916">
        <ele>2062.4</ele>
        <time>2024-08-10T06:54:26Z</time>
      </trkpt>
      <trkpt lat="45.0756" lon="6.19916">
        <ele>2062.6</ele>
        <time>2024-08-10T06:54:27Z</time>
      </trkpt>
      <trkpt lat="45.07562" lon="6.19919">
        <ele>2062.8</ele>
        <time>2024-08-10T06:54:28Z</time>
      </trkpt>
      <trkpt lat="45.07562" lon="6.19919">
        <ele>2062.8</ele>
        <time>2024-08-10T06:54:29Z</time>
      </trkpt>
      <trkpt lat="45.07564" lon="6.19921">
        <ele>2063.2</ele>
        <time>2024-08-10T06:54:30Z</time>
      </trkpt>
      <trkpt lat="45.07564" lon="6.19921">
        <ele>2063.2</ele>
        <time>2024-08-10T06:54:31Z</time>
      </trkpt>
      <trkpt lat="45.07564" lon="6.19921">
        <ele>2063.2</ele>
        <time>2024-08-10T06:54:32Z</time>
      </trkpt>
      <trkpt lat="45.07565" lon="6.19924">
        <ele>2063.6</ele>
        <time>2024-08-10T06:54:33Z</time>
      </trkpt>
      <trkpt lat="45.07565" lon="6.19924">
        <ele>2063.6</ele>
        <time>2024-08-10T06:54:34Z</time>
      </trkpt>
      <trkpt lat="45.07565" lon="6.19924">
        <ele>2064</ele>
        <time>2024-08-10T06:54:35Z</time>
      </trkpt>
      <trkpt lat="45.07566" lon="6.19926">
        <ele>2064.2</ele>
        <time>2024-08-10T06:54:36Z</time>
      </trkpt>
      <trkpt lat="45.07566" lon="6.19926">
        <ele>2064.2</ele>
        <time>2024-08-10T06:54:37Z</time>
      </trkpt>
      <trkpt lat="45.07568" lon="6.19928">
        <ele>2064.2</ele>
        <time>2024-08-10T06:54:38Z</time>
      </trkpt>
      <trkpt lat="45.07568" lon="6.19928">
        <ele>2064.2</ele>
        <time>2024-08-10T06:54:39Z</time>
      </trkpt>
      <trkpt lat="45.07569" lon="6.1993">
        <ele>2065</ele>
        <time>2024-08-10T06:54:40Z</time>
      </trkpt>
      <trkpt lat="45.07569" lon="6.1993">
        <ele>2065.2</ele>
        <time>2024-08-10T06:54:41Z</time>
      </trkpt>
      <trkpt lat="45.07569" lon="6.1993">
        <ele>2065.2</ele>
        <time>2024-08-10T06:54:42Z</time>
      </trkpt>
      <trkpt lat="45.0757" lon="6.19933">
        <ele>2065.2</ele>
        <time>2024-08-10T06:54:43Z</time>
      </trkpt>
      <trkpt lat="45.0757" lon="6.19933">
        <ele>2065.6</ele>
        <time>2024-08-10T06:54:44Z</time>
      </trkpt>
      <trkpt lat="45.0757" lon="6.19933">
        <ele>2065.6</ele>
        <time>2024-08-10T06:54:45Z</time>
      </trkpt>
      <trkpt lat="45.0757" lon="6.19933">
        <ele>2065.8</ele>
        <time>2024-08-10T06:54:46Z</time>
      </trkpt>
      <trkpt lat="45.0757" lon="6.19936">
        <ele>2065.8</ele>
        <time>2024-08-10T06:54:47Z</time>
      </trkpt>
      <trkpt lat="45.0757" lon="6.19936">
        <ele>2066.2</ele>
        <time>2024-08-10T06:54:48Z</time>
      </trkpt>
      <trkpt lat="45.0757" lon="6.19936">
        <ele>2066.2</ele>
        <time>2024-08-10T06:54:49Z</time>
      </trkpt>
      <trkpt lat="45.0757" lon="6.19939">
        <ele>2066.4</ele>
        <time>2024-08-10T06:54:50Z</time>
      </trkpt>
      <trkpt lat="45.0757" lon="6.19939">
        <ele>2066.6</ele>
        <time>2024-08-10T06:54:51Z</time>
      </trkpt>
      <trkpt lat="45.0757" lon="6.19939">
        <ele>2067</ele>
        <time>2024-08-10T06:54:52Z</time>
      </trkpt>
      <trkpt lat="45.07571" lon="6.19942">
        <ele>2067.2</ele>
        <time>2024-08-10T06:54:53Z</time>
      </trkpt>
      <trkpt lat="45.07571" lon="6.19942">
        <ele>2067.4</ele>
        <time>2024-08-10T06:54:54Z</time>
      </trkpt>
      <trkpt lat="45.07571" lon="6.19942">
        <ele>2067.4</ele>
        <time>2024-08-10T06:54:55Z</time>
      </trkpt>
      <trkpt lat="45.07572" lon="6.19944">
        <ele>2067.4</ele>
        <time>2024-08-10T06:54:56Z</time>
      </trkpt>
      <trkpt lat="45.07572" lon="6.19944">
        <ele>2067.8</ele>
        <time>2024-08-10T06:54:57Z</time>
      </trkpt>
      <trkpt lat="45.07572" lon="6.19944">
        <ele>2068</ele>
        <time>2024-08-10T06:54:58Z</time>
      </trkpt>
      <trkpt lat="45.07573" lon="6.19947">
        <ele>2068.2</ele>
        <time>2024-08-10T06:54:59Z</time>
      </trkpt>
      <trkpt lat="45.07573" lon="6.19947">
        <ele>2068.4</ele>
        <time>2024-08-10T06:55:00Z</time>
      </trkpt>
      <trkpt lat="45.07573" lon="6.19947">
        <ele>2068.4</ele>
        <time>2024-08-10T06:55:01Z</time>
      </trkpt>
      <trkpt lat="45.07574" lon="6.1995">
        <ele>2068.8</ele>
        <time>2024-08-10T06:55:02Z</time>
      </trkpt>
      <trkpt lat="45.07574" lon="6.1995">
        <ele>2068.8</ele>
        <time>2024-08-10T06:55:03Z</time>
      </trkpt>
      <trkpt lat="45.07574" lon="6.1995">
        <ele>2068.8</ele>
        <time>2024-08-10T06:55:04Z</time>
      </trkpt>
      <trkpt lat="45.07576" lon="6.19952">
        <ele>2069.2</ele>
        <time>2024-08-10T06:55:05Z</time>
      </trkpt>
      <trkpt lat="45.07576" lon="6.19952">
        <ele>2069.4</ele>
        <time>2024-08-10T06:55:06Z</time>
      </trkpt>
      <trkpt lat="45.07576" lon="6.19952">
        <ele>2069.8</ele>
        <time>2024-08-10T06:55:07Z</time>
      </trkpt>
      <trkpt lat="45.07577" lon="6.19954">
        <ele>2069.8</ele>
        <time>2024-08-10T06:55:08Z</time>
      </trkpt>
      <trkpt lat="45.07577" lon="6.19954">
        <ele>2070.2</ele>
        <time>2024-08-10T06:55:09Z</time>
      </trkpt>
      <trkpt lat="45.07577" lon="6.19954">
        <ele>2070.6</ele>
        <time>2024-08-10T06:55:10Z</time>
      </trkpt>
      <trkpt lat="45.07579" lon="6.19957">
        <ele>2070.8</ele>
        <time>2024-08-10T06:55:11Z</time>
      </trkpt>
      <trkpt lat="45.07579" lon="6.19957">
        <ele>2070.8</ele>
        <time>2024-08-10T06:55:12Z</time>
      </trkpt>
      <trkpt lat="45.07579" lon="6.19957">
        <ele>2071</ele>
        <time>2024-08-10T06:55:13Z</time>
      </trkpt>
      <trkpt lat="45.07581" lon="6.19959">
        <ele>2071</ele>
        <time>2024-08-10T06:55:14Z</time>
      </trkpt>
      <trkpt lat="45.07581" lon="6.19959">
        <ele>2071</ele>
        <time>2024-08-10T06:55:15Z</time>
      </trkpt>
      <trkpt lat="45.07581" lon="6.19959">
        <ele>2071</ele>
        <time>2024-08-10T06:55:16Z</time>
      </trkpt>
      <trkpt lat="45.07583" lon="6.19962">
        <ele>2071</ele>
        <time>2024-08-10T06:55:17Z</time>
      </trkpt>
      <trkpt lat="45.07583" lon="6.19962">
        <ele>2071.4</ele>
        <time>2024-08-10T06:55:18Z</time>
      </trkpt>
      <trkpt lat="45.07583" lon="6.19962">
        <ele>2072</ele>
        <time>2024-08-10T06:55:19Z</time>
      </trkpt>
      <trkpt lat="45.07584" lon="6.19965">
        <ele>2072</ele>
        <time>2024-08-10T06:55:20Z</time>
      </trkpt>
      <trkpt lat="45.07584" lon="6.19965">
        <ele>2072.4</ele>
        <time>2024-08-10T06:55:21Z</time>
      </trkpt>
      <trkpt lat="45.07584" lon="6.19965">
        <ele>2072.6</ele>
        <time>2024-08-10T06:55:22Z</time>
      </trkpt>
      <trkpt lat="45.07586" lon="6.19966">
        <ele>2072.6</ele>
        <time>2024-08-10T06:55:23Z</time>
      </trkpt>
      <trkpt lat="45.07586" lon="6.19966">
        <ele>2072.6</ele>
        <time>2024-08-10T06:55:24Z</time>
      </trkpt>
      <trkpt lat="45.07588" lon="6.19968">
        <ele>2072.8</ele>
        <time>2024-08-10T06:55:25Z</time>
      </trkpt>
      <trkpt lat="45.07588" lon="6.19968">
        <ele>2073</ele>
        <time>2024-08-10T06:55:26Z</time>
      </trkpt>
      <trkpt lat="45.07589" lon="6.1997">
        <ele>2073.4</ele>
        <time>2024-08-10T06:55:27Z</time>
      </trkpt>
      <trkpt lat="45.07589" lon="6.1997">
        <ele>2074</ele>
        <time>2024-08-10T06:55:28Z</time>
      </trkpt>
      <trkpt lat="45.07591" lon="6.19971">
        <ele>2074</ele>
        <time>2024-08-10T06:55:29Z</time>
      </trkpt>
      <trkpt lat="45.07591" lon="6.19971">
        <ele>2073.8</ele>
        <time>2024-08-10T06:55:30Z</time>
      </trkpt>
      <trkpt lat="45.07591" lon="6.19971">
        <ele>2073.8</ele>
        <time>2024-08-10T06:55:31Z</time>
      </trkpt>
      <trkpt lat="45.07594" lon="6.19974">
        <ele>2074</ele>
        <time>2024-08-10T06:55:32Z</time>
      </trkpt>
      <trkpt lat="45.07594" lon="6.19974">
        <ele>2074</ele>
        <time>2024-08-10T06:55:33Z</time>
      </trkpt>
      <trkpt lat="45.07595" lon="6.19976">
        <ele>2074.2</ele>
        <time>2024-08-10T06:55:34Z</time>
      </trkpt>
      <trkpt lat="45.07595" lon="6.19976">
        <ele>2074.2</ele>
        <time>2024-08-10T06:55:35Z</time>
      </trkpt>
      <trkpt lat="45.07596" lon="6.19979">
        <ele>2074.4</ele>
        <time>2024-08-10T06:55:36Z</time>
      </trkpt>
      <trkpt lat="45.07596" lon="6.19979">
        <ele>2074.6</ele>
        <time>2024-08-10T06:55:37Z</time>
      </trkpt>
      <trkpt lat="45.07596" lon="6.19979">
        <ele>2074.8</ele>
        <time>2024-08-10T06:55:38Z</time>
      </trkpt>
      <trkpt lat="45.07597" lon="6.19982">
        <ele>2074.8</ele>
        <time>2024-08-10T06:55:39Z</time>
      </trkpt>
      <trkpt lat="45.07597" lon="6.19982">
        <ele>2075</ele>
        <time>2024-08-10T06:55:40Z</time>
      </trkpt>
      <trkpt lat="45.07598" lon="6.19984">
        <ele>2075</ele>
        <time>2024-08-10T06:55:41Z</time>
      </trkpt>
      <trkpt lat="45.07598" lon="6.19984">
        <ele>2075</ele>
        <time>2024-08-10T06:55:42Z</time>
      </trkpt>
      <trkpt lat="45.07599" lon="6.19987">
        <ele>2075.2</ele>
        <time>2024-08-10T06:55:43Z</time>
      </trkpt>
      <trkpt lat="45.07599" lon="6.19987">
        <ele>2075.4</ele>
        <time>2024-08-10T06:55:44Z</time>
      </trkpt>
      <trkpt lat="45.076" lon="6.19989">
        <ele>2075.8</ele>
        <time>2024-08-10T06:55:45Z</time>
      </trkpt>
      <trkpt lat="45.076" lon="6.19989">
        <ele>2076</ele>
        <time>2024-08-10T06:55:46Z</time>
      </trkpt>
      <trkpt lat="45.076" lon="6.19989">
        <ele>2076.2</ele>
        <time>2024-08-10T06:55:47Z</time>
      </trkpt>
      <trkpt lat="45.07601" lon="6.19992">
        <ele>2076.2</ele>
        <time>2024-08-10T06:55:48Z</time>
      </trkpt>
      <trkpt lat="45.07601" lon="6.19992">
        <ele>2076.4</ele>
        <time>2024-08-10T06:55:49Z</time>
      </trkpt>
      <trkpt lat="45.07601" lon="6.19992">
        <ele>2076.4</ele>
        <time>2024-08-10T06:55:50Z</time>
      </trkpt>
      <trkpt lat="45.07602" lon="6.19995">
        <ele>2076.4</ele>
        <time>2024-08-10T06:55:51Z</time>
      </trkpt>
      <trkpt lat="45.07602" lon="6.19995">
        <ele>2076.6</ele>
        <time>2024-08-10T06:55:52Z</time>
      </trkpt>
      <trkpt lat="45.07602" lon="6.19995">
        <ele>2076.8</ele>
        <time>2024-08-10T06:55:53Z</time>
      </trkpt>
      <trkpt lat="45.07602" lon="6.19998">
        <ele>2077.2</ele>
        <time>2024-08-10T06:55:54Z</time>
      </trkpt>
      <trkpt lat="45.07602" lon="6.19998">
        <ele>2077.2</ele>
        <time>2024-08-10T06:55:55Z</time>
      </trkpt>
      <trkpt lat="45.07602" lon="6.19998">
        <ele>2077.6</ele>
        <time>2024-08-10T06:55:56Z</time>
      </trkpt>
      <trkpt lat="45.07602" lon="6.19998">
        <ele>2078</ele>
        <time>2024-08-10T06:55:57Z</time>
      </trkpt>
      <trkpt lat="45.07602" lon="6.20001">
        <ele>2078.4</ele>
        <time>2024-08-10T06:55:58Z</time>
      </trkpt>
      <trkpt lat="45.07602" lon="6.20001">
        <ele>2078.4</ele>
        <time>2024-08-10T06:55:59Z</time>
      </trkpt>
      <trkpt lat="45.07602" lon="6.20001">
        <ele>2078.4</ele>
        <time>2024-08-10T06:56:00Z</time>
      </trkpt>
      <trkpt lat="45.07604" lon="6.20004">
        <ele>2078.6</ele>
        <time>2024-08-10T06:56:01Z</time>
      </trkpt>
      <trkpt lat="45.07604" lon="6.20004">
        <ele>2078.8</ele>
        <time>2024-08-10T06:56:02Z</time>
      </trkpt>
      <trkpt lat="45.07604" lon="6.20004">
        <ele>2079.4</ele>
        <time>2024-08-10T06:56:03Z</time>
      </trkpt>
      <trkpt lat="45.07605" lon="6.20007">
        <ele>2079.4</ele>
        <time>2024-08-10T06:56:04Z</time>
      </trkpt>
      <trkpt lat="45.07605" lon="6.20007">
        <ele>2079.4</ele>
        <time>2024-08-10T06:56:05Z</time>
      </trkpt>
      <trkpt lat="45.07605" lon="6.20007">
        <ele>2079.4</ele>
        <time>2024-08-10T06:56:06Z</time>
      </trkpt>
      <trkpt lat="45.07606" lon="6.2001">
        <ele>2079.8</ele>
        <time>2024-08-10T06:56:07Z</time>
      </trkpt>
      <trkpt lat="45.07606" lon="6.2001">
        <ele>2080.2</ele>
        <time>2024-08-10T06:56:08Z</time>
      </trkpt>
      <trkpt lat="45.07607" lon="6.20012">
        <ele>2080.4</ele>
        <time>2024-08-10T06:56:09Z</time>
      </trkpt>
      <trkpt lat="45.07607" lon="6.20012">
        <ele>2080.4</ele>
        <time>2024-08-10T06:56:10Z</time>
      </trkpt>
      <trkpt lat="45.07607" lon="6.20012">
        <ele>2080.4</ele>
        <time>2024-08-10T06:56:11Z</time>
      </trkpt>
      <trkpt lat="45.07608" lon="6.20015">
        <ele>2080.6</ele>
        <time>2024-08-10T06:56:12Z</time>
      </trkpt>
      <trkpt lat="45.07608" lon="6.20015">
        <ele>2080.6</ele>
        <time>2024-08-10T06:56:13Z</time>
      </trkpt>
      <trkpt lat="45.0761" lon="6.20017">
        <ele>2080.8</ele>
        <time>2024-08-10T06:56:14Z</time>
      </trkpt>
      <trkpt lat="45.0761" lon="6.20017">
        <ele>2081.4</ele>
        <time>2024-08-10T06:56:15Z</time>
      </trkpt>
      <trkpt lat="45.07612" lon="6.20018">
        <ele>2081.4</ele>
        <time>2024-08-10T06:56:16Z</time>
      </trkpt>
      <trkpt lat="45.07612" lon="6.20018">
        <ele>2081.4</ele>
        <time>2024-08-10T06:56:17Z</time>
      </trkpt>
      <trkpt lat="45.07613" lon="6.20019">
        <ele>2081.4</ele>
        <time>2024-08-10T06:56:18Z</time>
      </trkpt>
      <trkpt lat="45.07613" lon="6.20019">
        <ele>2081.4</ele>
        <time>2024-08-10T06:56:19Z</time>
      </trkpt>
      <trkpt lat="45.07613" lon="6.20019">
        <ele>2081.6</ele>
        <time>2024-08-10T06:56:20Z</time>
      </trkpt>
      <trkpt lat="45.07615" lon="6.20022">
        <ele>2082</ele>
        <time>2024-08-10T06:56:21Z</time>
      </trkpt>
      <trkpt lat="45.07615" lon="6.20022">
        <ele>2082.2</ele>
        <time>2024-08-10T06:56:22Z</time>
      </trkpt>
      <trkpt lat="45.07616" lon="6.20024">
        <ele>2082.2</ele>
        <time>2024-08-10T06:56:23Z</time>
      </trkpt>
      <trkpt lat="45.07616" lon="6.20024">
        <ele>2082.4</ele>
        <time>2024-08-10T06:56:24Z</time>
      </trkpt>
      <trkpt lat="45.07616" lon="6.20024">
        <ele>2082.6</ele>
        <time>2024-08-10T06:56:25Z</time>
      </trkpt>
      <trkpt lat="45.07617" lon="6.20028">
        <ele>2082.6</ele>
        <time>2024-08-10T06:56:26Z</time>
      </trkpt>
      <trkpt lat="45.07617" lon="6.20028">
        <ele>2082.6</ele>
        <time>2024-08-10T06:56:27Z</time>
      </trkpt>
      <trkpt lat="45.07617" lon="6.20031">
        <ele>2082.8</ele>
        <time>2024-08-10T06:56:28Z</time>
      </trkpt>
      <trkpt lat="45.07617" lon="6.20031">
        <ele>2082.8</ele>
        <time>2024-08-10T06:56:29Z</time>
      </trkpt>
      <trkpt lat="45.07617" lon="6.20031">
        <ele>2082.8</ele>
        <time>2024-08-10T06:56:30Z</time>
      </trkpt>
      <trkpt lat="45.07618" lon="6.20034">
        <ele>2082.8</ele>
        <time>2024-08-10T06:56:31Z</time>
      </trkpt>
      <trkpt lat="45.07618" lon="6.20034">
        <ele>2083</ele>
        <time>2024-08-10T06:56:32Z</time>
      </trkpt>
      <trkpt lat="45.07618" lon="6.20034">
        <ele>2083</ele>
        <time>2024-08-10T06:56:33Z</time>
      </trkpt>
      <trkpt lat="45.07618" lon="6.20037">
        <ele>2083.2</ele>
        <time>2024-08-10T06:56:34Z</time>
      </trkpt>
      <trkpt lat="45.07618" lon="6.20037">
        <ele>2083.4</ele>
        <time>2024-08-10T06:56:35Z</time>
      </trkpt>
      <trkpt lat="45.07618" lon="6.20037">
        <ele>2083.8</ele>
        <time>2024-08-10T06:56:36Z</time>
      </trkpt>
      <trkpt lat="45.07619" lon="6.2004">
        <ele>2084.2</ele>
        <time>2024-08-10T06:56:37Z</time>
      </trkpt>
      <trkpt lat="45.07619" lon="6.2004">
        <ele>2084.2</ele>
        <time>2024-08-10T06:56:38Z</time>
      </trkpt>
      <trkpt lat="45.07619" lon="6.2004">
        <ele>2084.4</ele>
        <time>2024-08-10T06:56:39Z</time>
      </trkpt>
      <trkpt lat="45.0762" lon="6.20042">
        <ele>2084.6</ele>
        <time>2024-08-10T06:56:40Z</time>
      </trkpt>
      <trkpt lat="45.0762" lon="6.20042">
        <ele>2084.8</ele>
        <time>2024-08-10T06:56:41Z</time>
      </trkpt>
      <trkpt lat="45.0762" lon="6.20042">
        <ele>2085</ele>
        <time>2024-08-10T06:56:42Z</time>
      </trkpt>
      <trkpt lat="45.07621" lon="6.20045">
        <ele>2085.2</ele>
        <time>2024-08-10T06:56:43Z</time>
      </trkpt>
      <trkpt lat="45.07621" lon="6.20045">
        <ele>2085.4</ele>
        <time>2024-08-10T06:56:44Z</time>
      </trkpt>
      <trkpt lat="45.07622" lon="6.20047">
        <ele>2085.4</ele>
        <time>2024-08-10T06:56:45Z</time>
      </trkpt>
      <trkpt lat="45.07622" lon="6.20047">
        <ele>2085.6</ele>
        <time>2024-08-10T06:56:46Z</time>
      </trkpt>
      <trkpt lat="45.07622" lon="6.20047">
        <ele>2085.8</ele>
        <time>2024-08-10T06:56:47Z</time>
      </trkpt>
      <trkpt lat="45.07623" lon="6.2005">
        <ele>2086</ele>
        <time>2024-08-10T06:56:48Z</time>
      </trkpt>
      <trkpt lat="45.07623" lon="6.2005">
        <ele>2086.2</ele>
        <time>2024-08-10T06:56:49Z</time>
      </trkpt>
      <trkpt lat="45.07623" lon="6.2005">
        <ele>2086.4</ele>
        <time>2024-08-10T06:56:50Z</time>
      </trkpt>
      <trkpt lat="45.07624" lon="6.20053">
        <ele>2086.6</ele>
        <time>2024-08-10T06:56:51Z</time>
      </trkpt>
      <trkpt lat="45.07624" lon="6.20053">
        <ele>2086.8</ele>
        <time>2024-08-10T06:56:52Z</time>
      </trkpt>
      <trkpt lat="45.07624" lon="6.20053">
        <ele>2086.8</ele>
        <time>2024-08-10T06:56:53Z</time>
      </trkpt>
      <trkpt lat="45.07624" lon="6.20056">
        <ele>2086.8</ele>
        <time>2024-08-10T06:56:54Z</time>
      </trkpt>
      <trkpt lat="45.07624" lon="6.20056">
        <ele>2086.8</ele>
        <time>2024-08-10T06:56:55Z</time>
      </trkpt>
      <trkpt lat="45.07625" lon="6.20058">
        <ele>2087.2</ele>
        <time>2024-08-10T06:56:56Z</time>
      </trkpt>
      <trkpt lat="45.07625" lon="6.20058">
        <ele>2087.6</ele>
        <time>2024-08-10T06:56:57Z</time>
      </trkpt>
      <trkpt lat="45.07625" lon="6.20058">
        <ele>2087.6</ele>
        <time>2024-08-10T06:56:58Z</time>
      </trkpt>
      <trkpt lat="45.07626" lon="6.20061">
        <ele>2087.6</ele>
        <time>2024-08-10T06:56:59Z</time>
      </trkpt>
      <trkpt lat="45.07626" lon="6.20061">
        <ele>2087.8</ele>
        <time>2024-08-10T06:57:00Z</time>
      </trkpt>
      <trkpt lat="45.07628" lon="6.20063">
        <ele>2088</ele>
        <time>2024-08-10T06:57:01Z</time>
      </trkpt>
      <trkpt lat="45.07628" lon="6.20063">
        <ele>2088</ele>
        <time>2024-08-10T06:57:02Z</time>
      </trkpt>
      <trkpt lat="45.07629" lon="6.20065">
        <ele>2088.4</ele>
        <time>2024-08-10T06:57:03Z</time>
      </trkpt>
      <trkpt lat="45.07629" lon="6.20065">
        <ele>2088.4</ele>
        <time>2024-08-10T06:57:04Z</time>
      </trkpt>
      <trkpt lat="45.0763" lon="6.20067">
        <ele>2088.4</ele>
        <time>2024-08-10T06:57:05Z</time>
      </trkpt>
      <trkpt lat="45.0763" lon="6.20067">
        <ele>2088.6</ele>
        <time>2024-08-10T06:57:06Z</time>
      </trkpt>
      <trkpt lat="45.07631" lon="6.2007">
        <ele>2088.8</ele>
        <time>2024-08-10T06:57:07Z</time>
      </trkpt>
      <trkpt lat="45.07631" lon="6.2007">
        <ele>2088.8</ele>
        <time>2024-08-10T06:57:08Z</time>
      </trkpt>
      <trkpt lat="45.07632" lon="6.20073">
        <ele>2089</ele>
        <time>2024-08-10T06:57:09Z</time>
      </trkpt>
      <trkpt lat="45.07632" lon="6.20073">
        <ele>2089.2</ele>
        <time>2024-08-10T06:57:10Z</time>
      </trkpt>
      <trkpt lat="45.07633" lon="6.20075">
        <ele>2089.2</ele>
        <time>2024-08-10T06:57:11Z</time>
      </trkpt>
      <trkpt lat="45.07633" lon="6.20075">
        <ele>2089</ele>
        <time>2024-08-10T06:57:12Z</time>
      </trkpt>
      <trkpt lat="45.07633" lon="6.20075">
        <ele>2089</ele>
        <time>2024-08-10T06:57:13Z</time>
      </trkpt>
      <trkpt lat="45.07634" lon="6.20079">
        <ele>2089.2</ele>
        <time>2024-08-10T06:57:14Z</time>
      </trkpt>
      <trkpt lat="45.07634" lon="6.20079">
        <ele>2089.2</ele>
        <time>2024-08-10T06:57:15Z</time>
      </trkpt>
      <trkpt lat="45.07636" lon="6.20081">
        <ele>2089.6</ele>
        <time>2024-08-10T06:57:16Z</time>
      </trkpt>
      <trkpt lat="45.07636" lon="6.20081">
        <ele>2089.8</ele>
        <time>2024-08-10T06:57:17Z</time>
      </trkpt>
      <trkpt lat="45.07637" lon="6.20083">
        <ele>2089.8</ele>
        <time>2024-08-10T06:57:18Z</time>
      </trkpt>
      <trkpt lat="45.07637" lon="6.20083">
        <ele>2089.8</ele>
        <time>2024-08-10T06:57:19Z</time>
      </trkpt>
      <trkpt lat="45.07638" lon="6.20086">
        <ele>2090</ele>
        <time>2024-08-10T06:57:20Z</time>
      </trkpt>
      <trkpt lat="45.07638" lon="6.20086">
        <ele>2090.2</ele>
        <time>2024-08-10T06:57:21Z</time>
      </trkpt>
      <trkpt lat="45.07638" lon="6.20086">
        <ele>2090.2</ele>
        <time>2024-08-10T06:57:22Z</time>
      </trkpt>
      <trkpt lat="45.07639" lon="6.20089">
        <ele>2090.2</ele>
        <time>2024-08-10T06:57:23Z</time>
      </trkpt>
      <trkpt lat="45.07639" lon="6.20089">
        <ele>2090.4</ele>
        <time>2024-08-10T06:57:24Z</time>
      </trkpt>
      <trkpt lat="45.07639" lon="6.20092">
        <ele>2090.4</ele>
        <time>2024-08-10T06:57:25Z</time>
      </trkpt>
      <trkpt lat="45.07639" lon="6.20092">
        <ele>2090.6</ele>
        <time>2024-08-10T06:57:26Z</time>
      </trkpt>
      <trkpt lat="45.07638" lon="6.20093">
        <ele>2090.8</ele>
        <time>2024-08-10T06:57:27Z</time>
      </trkpt>
      <trkpt lat="45.07638" lon="6.20093">
        <ele>2090.8</ele>
        <time>2024-08-10T06:57:28Z</time>
      </trkpt>
      <trkpt lat="45.07636" lon="6.20094">
        <ele>2090.8</ele>
        <time>2024-08-10T06:57:29Z</time>
      </trkpt>
      <trkpt lat="45.07636" lon="6.20094">
        <ele>2091</ele>
        <time>2024-08-10T06:57:30Z</time>
      </trkpt>
      <trkpt lat="45.07636" lon="6.20094">
        <ele>2091.4</ele>
        <time>2024-08-10T06:57:31Z</time>
      </trkpt>
      <trkpt lat="45.07633" lon="6.20092">
        <ele>2091.6</ele>
        <time>2024-08-10T06:57:32Z</time>
      </trkpt>
      <trkpt lat="45.07633" lon="6.20092">
        <ele>2091.8</ele>
        <time>2024-08-10T06:57:33Z</time>
      </trkpt>
      <trkpt lat="45.07633" lon="6.20092">
        <ele>2091.8</ele>
        <time>2024-08-10T06:57:34Z</time>
      </trkpt>
      <trkpt lat="45.0763" lon="6.20091">
        <ele>2091.8</ele>
        <time>2024-08-10T06:57:35Z</time>
      </trkpt>
      <trkpt lat="45.0763" lon="6.20091">
        <ele>2091.8</ele>
        <time>2024-08-10T06:57:36Z</time>
      </trkpt>
      <trkpt lat="45.07629" lon="6.2009">
        <ele>2092</ele>
        <time>2024-08-10T06:57:37Z</time>
      </trkpt>
      <trkpt lat="45.07629" lon="6.2009">
        <ele>2092.2</ele>
        <time>2024-08-10T06:57:38Z</time>
      </trkpt>
      <trkpt lat="45.07629" lon="6.2009">
        <ele>2092.2</ele>
        <time>2024-08-10T06:57:39Z</time>
      </trkpt>
      <trkpt lat="45.07627" lon="6.20087">
        <ele>2092.6</ele>
        <time>2024-08-10T06:57:40Z</time>
      </trkpt>
      <trkpt lat="45.07627" lon="6.20087">
        <ele>2092.8</ele>
        <time>2024-08-10T06:57:41Z</time>
      </trkpt>
      <trkpt lat="45.07627" lon="6.20087">
        <ele>2093.4</ele>
        <time>2024-08-10T06:57:42Z</time>
      </trkpt>
      <trkpt lat="45.07626" lon="6.20084">
        <ele>2093.8</ele>
        <time>2024-08-10T06:57:43Z</time>
      </trkpt>
      <trkpt lat="45.07626" lon="6.20084">
        <ele>2094</ele>
        <time>2024-08-10T06:57:44Z</time>
      </trkpt>
      <trkpt lat="45.07625" lon="6.20082">
        <ele>2094.2</ele>
        <time>2024-08-10T06:57:45Z</time>
      </trkpt>
      <trkpt lat="45.07625" lon="6.20082">
        <ele>2094.2</ele>
        <time>2024-08-10T06:57:46Z</time>
      </trkpt>
      <trkpt lat="45.07622" lon="6.2008">
        <ele>2094.2</ele>
        <time>2024-08-10T06:57:47Z</time>
      </trkpt>
      <trkpt lat="45.07622" lon="6.2008">
        <ele>2094.2</ele>
        <time>2024-08-10T06:57:48Z</time>
      </trkpt>
      <trkpt lat="45.07622" lon="6.2008">
        <ele>2094</ele>
        <time>2024-08-10T06:57:49Z</time>
      </trkpt>
      <trkpt lat="45.07621" lon="6.20082">
        <ele>2094</ele>
        <time>2024-08-10T06:57:50Z</time>
      </trkpt>
      <trkpt lat="45.07621" lon="6.20082">
        <ele>2094</ele>
        <time>2024-08-10T06:57:51Z</time>
      </trkpt>
      <trkpt lat="45.07621" lon="6.20082">
        <ele>2094.2</ele>
        <time>2024-08-10T06:57:52Z</time>
      </trkpt>
      <trkpt lat="45.07621" lon="6.20085">
        <ele>2094.4</ele>
        <time>2024-08-10T06:57:53Z</time>
      </trkpt>
      <trkpt lat="45.07621" lon="6.20085">
        <ele>2094.6</ele>
        <time>2024-08-10T06:57:54Z</time>
      </trkpt>
      <trkpt lat="45.07621" lon="6.20085">
        <ele>2095.2</ele>
        <time>2024-08-10T06:57:55Z</time>
      </trkpt>
      <trkpt lat="45.07621" lon="6.20088">
        <ele>2095.2</ele>
        <time>2024-08-10T06:57:56Z</time>
      </trkpt>
      <trkpt lat="45.07621" lon="6.20088">
        <ele>2095.4</ele>
        <time>2024-08-10T06:57:57Z</time>
      </trkpt>
      <trkpt lat="45.07621" lon="6.20088">
        <ele>2096</ele>
        <time>2024-08-10T06:57:58Z</time>
      </trkpt>
      <trkpt lat="45.07622" lon="6.20091">
        <ele>2096.6</ele>
        <time>2024-08-10T06:57:59Z</time>
      </trkpt>
      <trkpt lat="45.07622" lon="6.20091">
        <ele>2096.6</ele>
        <time>2024-08-10T06:58:00Z</time>
      </trkpt>
      <trkpt lat="45.07623" lon="6.20093">
        <ele>2096.8</ele>
        <time>2024-08-10T06:58:01Z</time>
      </trkpt>
      <trkpt lat="45.07623" lon="6.20093">
        <ele>2097</ele>
        <time>2024-08-10T06:58:02Z</time>
      </trkpt>
      <trkpt lat="45.07623" lon="6.20093">
        <ele>2097.4</ele>
        <time>2024-08-10T06:58:03Z</time>
      </trkpt>
      <trkpt lat="45.07625" lon="6.20096">
        <ele>2097.4</ele>
        <time>2024-08-10T06:58:04Z</time>
      </trkpt>
      <trkpt lat="45.07625" lon="6.20096">
        <ele>2097.4</ele>
        <time>2024-08-10T06:58:05Z</time>
      </trkpt>
      <trkpt lat="45.07626" lon="6.20098">
        <ele>2097.4</ele>
        <time>2024-08-10T06:58:06Z</time>
      </trkpt>
      <trkpt lat="45.07626" lon="6.20098">
        <ele>2097.6</ele>
        <time>2024-08-10T06:58:07Z</time>
      </trkpt>
      <trkpt lat="45.07626" lon="6.20098">
        <ele>2097.8</ele>
        <time>2024-08-10T06:58:08Z</time>
      </trkpt>
      <trkpt lat="45.07626" lon="6.20102">
        <ele>2097.8</ele>
        <time>2024-08-10T06:58:09Z</time>
      </trkpt>
      <trkpt lat="45.07626" lon="6.20102">
        <ele>2098</ele>
        <time>2024-08-10T06:58:10Z</time>
      </trkpt>
      <trkpt lat="45.07626" lon="6.20102">
        <ele>2098.2</ele>
        <time>2024-08-10T06:58:11Z</time>
      </trkpt>
      <trkpt lat="45.07625" lon="6.20105">
        <ele>2098.4</ele>
        <time>2024-08-10T06:58:12Z</time>
      </trkpt>
      <trkpt lat="45.07625" lon="6.20105">
        <ele>2098.6</ele>
        <time>2024-08-10T06:58:13Z</time>
      </trkpt>
      <trkpt lat="45.07623" lon="6.20105">
        <ele>2098.6</ele>
        <time>2024-08-10T06:58:14Z</time>
      </trkpt>
      <trkpt lat="45.07623" lon="6.20105">
        <ele>2099</ele>
        <time>2024-08-10T06:58:15Z</time>
      </trkpt>
      <trkpt lat="45.07623" lon="6.20105">
        <ele>2099.4</ele>
        <time>2024-08-10T06:58:16Z</time>
      </trkpt>
      <trkpt lat="45.07621" lon="6.20104">
        <ele>2099.4</ele>
        <time>2024-08-10T06:58:17Z</time>
      </trkpt>
      <trkpt lat="45.07621" lon="6.20104">
        <ele>2100</ele>
        <time>2024-08-10T06:58:18Z</time>
      </trkpt>
      <trkpt lat="45.07619" lon="6.20104">
        <ele>2100</ele>
        <time>2024-08-10T06:58:19Z</time>
      </trkpt>
      <trkpt lat="45.07619" lon="6.20104">
        <ele>2100</ele>
        <time>2024-08-10T06:58:20Z</time>
      </trkpt>
      <trkpt lat="45.07617" lon="6.20103">
        <ele>2100.4</ele>
        <time>2024-08-10T06:58:21Z</time>
      </trkpt>
      <trkpt lat="45.07617" lon="6.20103">
        <ele>2100.6</ele>
        <time>2024-08-10T06:58:22Z</time>
      </trkpt>
      <trkpt lat="45.07616" lon="6.20101">
        <ele>2100.8</ele>
        <time>2024-08-10T06:58:23Z</time>
      </trkpt>
      <trkpt lat="45.07616" lon="6.20101">
        <ele>2101</ele>
        <time>2024-08-10T06:58:24Z</time>
      </trkpt>
      <trkpt lat="45.07616" lon="6.20101">
        <ele>2101.2</ele>
        <time>2024-08-10T06:58:25Z</time>
      </trkpt>
      <trkpt lat="45.07614" lon="6.20099">
        <ele>2101.2</ele>
        <time>2024-08-10T06:58:26Z</time>
      </trkpt>
      <trkpt lat="45.07614" lon="6.20099">
        <ele>2101.4</ele>
        <time>2024-08-10T06:58:27Z</time>
      </trkpt>
      <trkpt lat="45.07614" lon="6.20099">
        <ele>2101.6</ele>
        <time>2024-08-10T06:58:28Z</time>
      </trkpt>
      <trkpt lat="45.07612" lon="6.20097">
        <ele>2101.6</ele>
        <time>2024-08-10T06:58:29Z</time>
      </trkpt>
      <trkpt lat="45.07612" lon="6.20097">
        <ele>2102</ele>
        <time>2024-08-10T06:58:30Z</time>
      </trkpt>
      <trkpt lat="45.07612" lon="6.20097">
        <ele>2102.4</ele>
        <time>2024-08-10T06:58:31Z</time>
      </trkpt>
      <trkpt lat="45.0761" lon="6.20095">
        <ele>2102.6</ele>
        <time>2024-08-10T06:58:32Z</time>
      </trkpt>
      <trkpt lat="45.0761" lon="6.20095">
        <ele>2102.8</ele>
        <time>2024-08-10T06:58:33Z</time>
      </trkpt>
      <trkpt lat="45.0761" lon="6.20095">
        <ele>2103.4</ele>
        <time>2024-08-10T06:58:34Z</time>
      </trkpt>
      <trkpt lat="45.07608" lon="6.20094">
        <ele>2103.4</ele>
        <time>2024-08-10T06:58:35Z</time>
      </trkpt>
      <trkpt lat="45.07608" lon="6.20094">
        <ele>2103.4</ele>
        <time>2024-08-10T06:58:36Z</time>
      </trkpt>
      <trkpt lat="45.07608" lon="6.20094">
        <ele>2103.8</ele>
        <time>2024-08-10T06:58:37Z</time>
      </trkpt>
      <trkpt lat="45.07606" lon="6.20092">
        <ele>2103.8</ele>
        <time>2024-08-10T06:58:38Z</time>
      </trkpt>
      <trkpt lat="45.07606" lon="6.20092">
        <ele>2104</ele>
        <time>2024-08-10T06:58:39Z</time>
      </trkpt>
      <trkpt lat="45.07605" lon="6.20091">
        <ele>2104.2</ele>
        <time>2024-08-10T06:58:40Z</time>
      </trkpt>
      <trkpt lat="45.07605" lon="6.20091">
        <ele>2104.6</ele>
        <time>2024-08-10T06:58:41Z</time>
      </trkpt>
      <trkpt lat="45.07605" lon="6.20091">
        <ele>2104.6</ele>
        <time>2024-08-10T06:58:42Z</time>
      </trkpt>
      <trkpt lat="45.07602" lon="6.20088">
        <ele>2104.6</ele>
        <time>2024-08-10T06:58:43Z</time>
      </trkpt>
      <trkpt lat="45.07602" lon="6.20088">
        <ele>2104.8</ele>
        <time>2024-08-10T06:58:44Z</time>
      </trkpt>
      <trkpt lat="45.07602" lon="6.20088">
        <ele>2105</ele>
        <time>2024-08-10T06:58:45Z</time>
      </trkpt>
      <trkpt lat="45.076" lon="6.20087">
        <ele>2105</ele>
        <time>2024-08-10T06:58:46Z</time>
      </trkpt>
      <trkpt lat="45.076" lon="6.20087">
        <ele>2105.2</ele>
        <time>2024-08-10T06:58:47Z</time>
      </trkpt>
      <trkpt lat="45.076" lon="6.20087">
        <ele>2105.4</ele>
        <time>2024-08-10T06:58:48Z</time>
      </trkpt>
      <trkpt lat="45.076" lon="6.20087">
        <ele>2105.6</ele>
        <time>2024-08-10T06:58:49Z</time>
      </trkpt>
      <trkpt lat="45.076" lon="6.20087">
        <ele>2105.8</ele>
        <time>2024-08-10T06:58:50Z</time>
      </trkpt>
      <trkpt lat="45.076" lon="6.20087">
        <ele>2106.2</ele>
        <time>2024-08-10T06:58:51Z</time>
      </trkpt>
      <trkpt lat="45.076" lon="6.20091">
        <ele>2106.2</ele>
        <time>2024-08-10T06:58:52Z</time>
      </trkpt>
      <trkpt lat="45.076" lon="6.20091">
        <ele>2106.2</ele>
        <time>2024-08-10T06:58:53Z</time>
      </trkpt>
      <trkpt lat="45.07601" lon="6.20092">
        <ele>2106.4</ele>
        <time>2024-08-10T06:58:54Z</time>
      </trkpt>
      <trkpt lat="45.07601" lon="6.20092">
        <ele>2106.6</ele>
        <time>2024-08-10T06:58:55Z</time>
      </trkpt>
      <trkpt lat="45.07601" lon="6.20092">
        <ele>2107.2</ele>
        <time>2024-08-10T06:58:56Z</time>
      </trkpt>
      <trkpt lat="45.07603" lon="6.20096">
        <ele>2107.2</ele>
        <time>2024-08-10T06:58:57Z</time>
      </trkpt>
      <trkpt lat="45.07603" lon="6.20096">
        <ele>2107</ele>
        <time>2024-08-10T06:58:58Z</time>
      </trkpt>
      <trkpt lat="45.07604" lon="6.20098">
        <ele>2107</ele>
        <time>2024-08-10T06:58:59Z</time>
      </trkpt>
      <trkpt lat="45.07604" lon="6.20098">
        <ele>2107.2</ele>
        <time>2024-08-10T06:59:00Z</time>
      </trkpt>
      <trkpt lat="45.07605" lon="6.201">
        <ele>2107.4</ele>
        <time>2024-08-10T06:59:01Z</time>
      </trkpt>
      <trkpt lat="45.07605" lon="6.201">
        <ele>2107.6</ele>
        <time>2024-08-10T06:59:02Z</time>
      </trkpt>
      <trkpt lat="45.07605" lon="6.201">
        <ele>2107.6</ele>
        <time>2024-08-10T06:59:03Z</time>
      </trkpt>
      <trkpt lat="45.07605" lon="6.20103">
        <ele>2107.6</ele>
        <time>2024-08-10T06:59:04Z</time>
      </trkpt>
      <trkpt lat="45.07605" lon="6.20103">
        <ele>2107.6</ele>
        <time>2024-08-10T06:59:05Z</time>
      </trkpt>
      <trkpt lat="45.07605" lon="6.20103">
        <ele>2107.8</ele>
        <time>2024-08-10T06:59:06Z</time>
      </trkpt>
      <trkpt lat="45.07605" lon="6.20103">
        <ele>2107.8</ele>
        <time>2024-08-10T06:59:07Z</time>
      </trkpt>
      <trkpt lat="45.07606" lon="6.20106">
        <ele>2108.4</ele>
        <time>2024-08-10T06:59:08Z</time>
      </trkpt>
      <trkpt lat="45.07606" lon="6.20106">
        <ele>2108.4</ele>
        <time>2024-08-10T06:59:09Z</time>
      </trkpt>
      <trkpt lat="45.07606" lon="6.20106">
        <ele>2108.4</ele>
        <time>2024-08-10T06:59:10Z</time>
      </trkpt>
      <trkpt lat="45.07605" lon="6.20108">
        <ele>2108.4</ele>
        <time>2024-08-10T06:59:11Z</time>
      </trkpt>
      <trkpt lat="45.07605" lon="6.20108">
        <ele>2108.8</ele>
        <time>2024-08-10T06:59:12Z</time>
      </trkpt>
      <trkpt lat="45.07603" lon="6.20109">
        <ele>2109</ele>
        <time>2024-08-10T06:59:13Z</time>
      </trkpt>
      <trkpt lat="45.07603" lon="6.20109">
        <ele>2109.2</ele>
        <time>2024-08-10T06:59:14Z</time>
      </trkpt>
      <trkpt lat="45.07601" lon="6.20107">
        <ele>2109.4</ele>
        <time>2024-08-10T06:59:15Z</time>
      </trkpt>
      <trkpt lat="45.07601" lon="6.20107">
        <ele>2109.6</ele>
        <time>2024-08-10T06:59:16Z</time>
      </trkpt>
      <trkpt lat="45.076" lon="6.20106">
        <ele>2109.6</ele>
        <time>2024-08-10T06:59:17Z</time>
      </trkpt>
      <trkpt lat="45.076" lon="6.20106">
        <ele>2109.6</ele>
        <time>2024-08-10T06:59:18Z</time>
      </trkpt>
      <trkpt lat="45.07598" lon="6.20104">
        <ele>2109.6</ele>
        <time>2024-08-10T06:59:19Z</time>
      </trkpt>
      <trkpt lat="45.07598" lon="6.20104">
        <ele>2109.8</ele>
        <time>2024-08-10T06:59:20Z</time>
      </trkpt>
      <trkpt lat="45.07597" lon="6.20102">
        <ele>2110</ele>
        <time>2024-08-10T06:59:21Z</time>
      </trkpt>
      <trkpt lat="45.07597" lon="6.20102">
        <ele>2110</ele>
        <time>2024-08-10T06:59:22Z</time>
      </trkpt>
      <trkpt lat="45.07595" lon="6.201">
        <ele>2110.4</ele>
        <time>2024-08-10T06:59:23Z</time>
      </trkpt>
      <trkpt lat="45.07595" lon="6.201">
        <ele>2110.8</ele>
        <time>2024-08-10T06:59:24Z</time>
      </trkpt>
      <trkpt lat="45.07594" lon="6.20097">
        <ele>2110.8</ele>
        <time>2024-08-10T06:59:25Z</time>
      </trkpt>
      <trkpt lat="45.07594" lon="6.20097">
        <ele>2110.8</ele>
        <time>2024-08-10T06:59:26Z</time>
      </trkpt>
      <trkpt lat="45.07592" lon="6.20095">
        <ele>2110.8</ele>
        <time>2024-08-10T06:59:27Z</time>
      </trkpt>
      <trkpt lat="45.07592" lon="6.20095">
        <ele>2111</ele>
        <time>2024-08-10T06:59:28Z</time>
      </trkpt>
      <trkpt lat="45.0759" lon="6.20093">
        <ele>2111.2</ele>
        <time>2024-08-10T06:59:29Z</time>
      </trkpt>
      <trkpt lat="45.0759" lon="6.20093">
        <ele>2111.4</ele>
        <time>2024-08-10T06:59:30Z</time>
      </trkpt>
      <trkpt lat="45.07589" lon="6.20091">
        <ele>2111.6</ele>
        <time>2024-08-10T06:59:31Z</time>
      </trkpt>
      <trkpt lat="45.07589" lon="6.20091">
        <ele>2111.6</ele>
        <time>2024-08-10T06:59:32Z</time>
      </trkpt>
      <trkpt lat="45.07588" lon="6.20089">
        <ele>2112</ele>
        <time>2024-08-10T06:59:33Z</time>
      </trkpt>
      <trkpt lat="45.07588" lon="6.20089">
        <ele>2112.2</ele>
        <time>2024-08-10T06:59:34Z</time>
      </trkpt>
      <trkpt lat="45.07586" lon="6.20087">
        <ele>2112.2</ele>
        <time>2024-08-10T06:59:35Z</time>
      </trkpt>
      <trkpt lat="45.07586" lon="6.20087">
        <ele>2112.4</ele>
        <time>2024-08-10T06:59:36Z</time>
      </trkpt>
      <trkpt lat="45.07584" lon="6.20085">
        <ele>2112.6</ele>
        <time>2024-08-10T06:59:37Z</time>
      </trkpt>
      <trkpt lat="45.07584" lon="6.20085">
        <ele>2112.8</ele>
        <time>2024-08-10T06:59:38Z</time>
      </trkpt>
      <trkpt lat="45.07582" lon="6.20084">
        <ele>2112.8</ele>
        <time>2024-08-10T06:59:39Z</time>
      </trkpt>
      <trkpt lat="45.07582" lon="6.20084">
        <ele>2112.8</ele>
        <time>2024-08-10T06:59:40Z</time>
      </trkpt>
      <trkpt lat="45.0758" lon="6.20082">
        <ele>2113</ele>
        <time>2024-08-10T06:59:41Z</time>
      </trkpt>
      <trkpt lat="45.0758" lon="6.20082">
        <ele>2113</ele>
        <time>2024-08-10T06:59:42Z</time>
      </trkpt>
      <trkpt lat="45.07578" lon="6.2008">
        <ele>2113</ele>
        <time>2024-08-10T06:59:43Z</time>
      </trkpt>
      <trkpt lat="45.07578" lon="6.2008">
        <ele>2113.4</ele>
        <time>2024-08-10T06:59:44Z</time>
      </trkpt>
      <trkpt lat="45.07577" lon="6.20078">
        <ele>2113.6</ele>
        <time>2024-08-10T06:59:45Z</time>
      </trkpt>
      <trkpt lat="45.07577" lon="6.20078">
        <ele>2113.8</ele>
        <time>2024-08-10T06:59:46Z</time>
      </trkpt>
      <trkpt lat="45.07575" lon="6.20076">
        <ele>2113.8</ele>
        <time>2024-08-10T06:59:47Z</time>
      </trkpt>
      <trkpt lat="45.07575" lon="6.20076">
        <ele>2114</ele>
        <time>2024-08-10T06:59:48Z</time>
      </trkpt>
      <trkpt lat="45.07574" lon="6.20074">
        <ele>2114</ele>
        <time>2024-08-10T06:59:49Z</time>
      </trkpt>
      <trkpt lat="45.07574" lon="6.20074">
        <ele>2114.2</ele>
        <time>2024-08-10T06:59:50Z</time>
      </trkpt>
      <trkpt lat="45.07574" lon="6.20074">
        <ele>2114.2</ele>
        <time>2024-08-10T06:59:51Z</time>
      </trkpt>
      <trkpt lat="45.07571" lon="6.20074">
        <ele>2114.4</ele>
        <time>2024-08-10T06:59:52Z</time>
      </trkpt>
      <trkpt lat="45.07571" lon="6.20074">
        <ele>2114.4</ele>
        <time>2024-08-10T06:59:53Z</time>
      </trkpt>
      <trkpt lat="45.07571" lon="6.20074">
        <ele>2114.4</ele>
        <time>2024-08-10T06:59:54Z</time>
      </trkpt>
      <trkpt lat="45.07571" lon="6.20074">
        <ele>2114.6</ele>
        <time>2024-08-10T06:59:55Z</time>
      </trkpt>
      <trkpt lat="45.07571" lon="6.20074">
        <ele>2114.8</ele>
        <time>2024-08-10T06:59:56Z</time>
      </trkpt>
      <trkpt lat="45.07572" lon="6.20077">
        <ele>2115.2</ele>
        <time>2024-08-10T06:59:57Z</time>
      </trkpt>
      <trkpt lat="45.07572" lon="6.20077">
        <ele>2115.4</ele>
        <time>2024-08-10T06:59:58Z</time>
      </trkpt>
      <trkpt lat="45.07572" lon="6.20077">
        <ele>2115.4</ele>
        <time>2024-08-10T06:59:59Z</time>
      </trkpt>
      <trkpt lat="45.07573" lon="6.20081">
        <ele>2115.6</ele>
        <time>2024-08-10T07:00:00Z</time>
      </trkpt>
      <trkpt lat="45.07573" lon="6.20081">
        <ele>2115.8</ele>
        <time>2024-08-10T07:00:01Z</time>
      </trkpt>
      <trkpt lat="45.07573" lon="6.20081">
        <ele>2116.2</ele>
        <time>2024-08-10T07:00:02Z</time>
      </trkpt>
      <trkpt lat="45.07574" lon="6.20083">
        <ele>2116.4</ele>
        <time>2024-08-10T07:00:03Z</time>
      </trkpt>
      <trkpt lat="45.07574" lon="6.20083">
        <ele>2116.8</ele>
        <time>2024-08-10T07:00:04Z</time>
      </trkpt>
      <trkpt lat="45.07574" lon="6.20083">
        <ele>2116.8</ele>
        <time>2024-08-10T07:00:05Z</time>
      </trkpt>
      <trkpt lat="45.07574" lon="6.20083">
        <ele>2116.8</ele>
        <time>2024-08-10T07:00:06Z</time>
      </trkpt>
      <trkpt lat="45.07574" lon="6.20083">
        <ele>2117</ele>
        <time>2024-08-10T07:00:07Z</time>
      </trkpt>
      <trkpt lat="45.07573" lon="6.20086">
        <ele>2117.2</ele>
        <time>2024-08-10T07:00:08Z</time>
      </trkpt>
      <trkpt lat="45.07573" lon="6.20086">
        <ele>2117.4</ele>
        <time>2024-08-10T07:00:09Z</time>
      </trkpt>
      <trkpt lat="45.07573" lon="6.20089">
        <ele>2117.4</ele>
        <time>2024-08-10T07:00:10Z</time>
      </trkpt>
      <trkpt lat="45.07573" lon="6.20089">
        <ele>2118</ele>
        <time>2024-08-10T07:00:11Z</time>
      </trkpt>
      <trkpt lat="45.07574" lon="6.20092">
        <ele>2118</ele>
        <time>2024-08-10T07:00:12Z</time>
      </trkpt>
      <trkpt lat="45.07574" lon="6.20092">
        <ele>2118</ele>
        <time>2024-08-10T07:00:13Z</time>
      </trkpt>
      <trkpt lat="45.07574" lon="6.20092">
        <ele>2118</ele>
        <time>2024-08-10T07:00:14Z</time>
      </trkpt>
      <trkpt lat="45.07574" lon="6.20095">
        <ele>2118.2</ele>
        <time>2024-08-10T07:00:15Z</time>
      </trkpt>
      <trkpt lat="45.07574" lon="6.20095">
        <ele>2118.4</ele>
        <time>2024-08-10T07:00:16Z</time>
      </trkpt>
      <trkpt lat="45.07574" lon="6.20095">
        <ele>2118.8</ele>
        <time>2024-08-10T07:00:17Z</time>
      </trkpt>
      <trkpt lat="45.07574" lon="6.20095">
        <ele>2119</ele>
        <time>2024-08-10T07:00:18Z</time>
      </trkpt>
      <trkpt lat="45.07573" lon="6.20099">
        <ele>2119</ele>
        <time>2024-08-10T07:00:19Z</time>
      </trkpt>
      <trkpt lat="45.07573" lon="6.20099">
        <ele>2119.4</ele>
        <time>2024-08-10T07:00:20Z</time>
      </trkpt>
      <trkpt lat="45.07573" lon="6.20099">
        <ele>2119.4</ele>
        <time>2024-08-10T07:00:21Z</time>
      </trkpt>
      <trkpt lat="45.07571" lon="6.201">
        <ele>2119.4</ele>
        <time>2024-08-10T07:00:22Z</time>
      </trkpt>
      <trkpt lat="45.07571" lon="6.201">
        <ele>2119.6</ele>
        <time>2024-08-10T07:00:23Z</time>
      </trkpt>
      <trkpt lat="45.07571" lon="6.201">
        <ele>2120.2</ele>
        <time>2024-08-10T07:00:24Z</time>
      </trkpt>
      <trkpt lat="45.07569" lon="6.20099">
        <ele>2120.4</ele>
        <time>2024-08-10T07:00:25Z</time>
      </trkpt>
      <trkpt lat="45.07569" lon="6.20099">
        <ele>2120.6</ele>
        <time>2024-08-10T07:00:26Z</time>
      </trkpt>
      <trkpt lat="45.07569" lon="6.20099">
        <ele>2120.6</ele>
        <time>2024-08-10T07:00:27Z</time>
      </trkpt>
      <trkpt lat="45.07567" lon="6.20096">
        <ele>2121</ele>
        <time>2024-08-10T07:00:28Z</time>
      </trkpt>
      <trkpt lat="45.07567" lon="6.20096">
        <ele>2121.2</ele>
        <time>2024-08-10T07:00:29Z</time>
      </trkpt>
      <trkpt lat="45.07567" lon="6.20096">
        <ele>2121.2</ele>
        <time>2024-08-10T07:00:30Z</time>
      </trkpt>
      <trkpt lat="45.07565" lon="6.20095">
        <ele>2121.4</ele>
        <time>2024-08-10T07:00:31Z</time>
      </trkpt>
      <trkpt lat="45.07565" lon="6.20095">
        <ele>2121.6</ele>
        <time>2024-08-10T07:00:32Z</time>
      </trkpt>
      <trkpt lat="45.07565" lon="6.20095">
        <ele>2121.6</ele>
        <time>2024-08-10T07:00:33Z</time>
      </trkpt>
      <trkpt lat="45.07563" lon="6.20093">
        <ele>2121.8</ele>
        <time>2024-08-10T07:00:34Z</time>
      </trkpt>
      <trkpt lat="45.07563" lon="6.20093">
        <ele>2122.2</ele>
        <time>2024-08-10T07:00:35Z</time>
      </trkpt>
      <trkpt lat="45.07561" lon="6.20092">
        <ele>2122.6</ele>
        <time>2024-08-10T07:00:36Z</time>
      </trkpt>
      <trkpt lat="45.07561" lon="6.20092">
        <ele>2122.6</ele>
        <time>2024-08-10T07:00:37Z</time>
      </trkpt>
      <trkpt lat="45.07561" lon="6.20092">
        <ele>2122.6</ele>
        <time>2024-08-10T07:00:38Z</time>
      </trkpt>
      <trkpt lat="45.07561" lon="6.20092">
        <ele>2122.6</ele>
        <time>2024-08-10T07:00:39Z</time>
      </trkpt>
      <trkpt lat="45.07558" lon="6.20091">
        <ele>2123.2</ele>
        <time>2024-08-10T07:00:40Z</time>
      </trkpt>
      <trkpt lat="45.07558" lon="6.20091">
        <ele>2123.4</ele>
        <time>2024-08-10T07:00:41Z</time>
      </trkpt>
      <trkpt lat="45.07558" lon="6.20091">
        <ele>2123.8</ele>
        <time>2024-08-10T07:00:42Z</time>
      </trkpt>
      <trkpt lat="45.07558" lon="6.20091">
        <ele>2124.2</ele>
        <time>2024-08-10T07:00:43Z</time>
      </trkpt>
      <trkpt lat="45.07557" lon="6.20092">
        <ele>2124.2</ele>
        <time>2024-08-10T07:00:44Z</time>
      </trkpt>
      <trkpt lat="45.07557" lon="6.20092">
        <ele>2124.2</ele>
        <time>2024-08-10T07:00:45Z</time>
      </trkpt>
      <trkpt lat="45.07557" lon="6.20092">
        <ele>2124.8</ele>
        <time>2024-08-10T07:00:46Z</time>
      </trkpt>
      <trkpt lat="45.07557" lon="6.20092">
        <ele>2124.8</ele>
        <time>2024-08-10T07:00:47Z</time>
      </trkpt>
      <trkpt lat="45.07556" lon="6.20095">
        <ele>2124.8</ele>
        <time>2024-08-10T07:00:48Z</time>
      </trkpt>
      <trkpt lat="45.07556" lon="6.20095">
        <ele>2125</ele>
        <time>2024-08-10T07:00:49Z</time>
      </trkpt>
      <trkpt lat="45.07554" lon="6.20095">
        <ele>2125.8</ele>
        <time>2024-08-10T07:00:50Z</time>
      </trkpt>
      <trkpt lat="45.07554" lon="6.20095">
        <ele>2125.8</ele>
        <time>2024-08-10T07:00:51Z</time>
      </trkpt>
      <trkpt lat="45.07554" lon="6.20095">
        <ele>2126</ele>
        <time>2024-08-10T07:00:52Z</time>
      </trkpt>
      <trkpt lat="45.07552" lon="6.20094">
        <ele>2126.4</ele>
        <time>2024-08-10T07:00:53Z</time>
      </trkpt>
      <trkpt lat="45.07552" lon="6.20094">
        <ele>2126.4</ele>
        <time>2024-08-10T07:00:54Z</time>
      </trkpt>
      <trkpt lat="45.0755" lon="6.20093">
        <ele>2126.4</ele>
        <time>2024-08-10T07:00:55Z</time>
      </trkpt>
      <trkpt lat="45.0755" lon="6.20093">
        <ele>2126.4</ele>
        <time>2024-08-10T07:00:56Z</time>
      </trkpt>
      <trkpt lat="45.07549" lon="6.20092">
        <ele>2126.8</ele>
        <time>2024-08-10T07:00:57Z</time>
      </trkpt>
      <trkpt lat="45.07549" lon="6.20092">
        <ele>2126.8</ele>
        <time>2024-08-10T07:00:58Z</time>
      </trkpt>
      <trkpt lat="45.07549" lon="6.20092">
        <ele>2127.2</ele>
        <time>2024-08-10T07:00:59Z</time>
      </trkpt>
      <trkpt lat="45.07547" lon="6.20089">
        <ele>2127.4</ele>
        <time>2024-08-10T07:01:00Z</time>
      </trkpt>
      <trkpt lat="45.07547" lon="6.20089">
        <ele>2127.8</ele>
        <time>2024-08-10T07:01:01Z</time>
      </trkpt>
      <trkpt lat="45.07547" lon="6.20089">
        <ele>2127.8</ele>
        <time>2024-08-10T07:01:02Z</time>
      </trkpt>
      <trkpt lat="45.07544" lon="6.20087">
        <ele>2128.2</ele>
        <time>2024-08-10T07:01:03Z</time>
      </trkpt>
      <trkpt lat="45.07544" lon="6.20087">
        <ele>2128.2</ele>
        <time>2024-08-10T07:01:04Z</time>
      </trkpt>
      <trkpt lat="45.07544" lon="6.20087">
        <ele>2128.4</ele>
        <time>2024-08-10T07:01:05Z</time>
      </trkpt>
      <trkpt lat="45.07544" lon="6.20087">
        <ele>2128.4</ele>
        <time>2024-08-10T07:01:06Z</time>
      </trkpt>
      <trkpt lat="45.07542" lon="6.20085">
        <ele>2128.6</ele>
        <time>2024-08-10T07:01:07Z</time>
      </trkpt>
      <trkpt lat="45.07542" lon="6.20085">
        <ele>2128.8</ele>
        <time>2024-08-10T07:01:08Z</time>
      </trkpt>
      <trkpt lat="45.07542" lon="6.20085">
        <ele>2129.2</ele>
        <time>2024-08-10T07:01:09Z</time>
      </trkpt>
      <trkpt lat="45.07541" lon="6.20084">
        <ele>2129.6</ele>
        <time>2024-08-10T07:01:10Z</time>
      </trkpt>
      <trkpt lat="45.07541" lon="6.20084">
        <ele>2129.8</ele>
        <time>2024-08-10T07:01:11Z</time>
      </trkpt>
      <trkpt lat="45.07541" lon="6.20084">
        <ele>2130</ele>
        <time>2024-08-10T07:01:12Z</time>
      </trkpt>
      <trkpt lat="45.07539" lon="6.20084">
        <ele>2130</ele>
        <time>2024-08-10T07:01:13Z</time>
      </trkpt>
      <trkpt lat="45.07539" lon="6.20084">
        <ele>2130</ele>
        <time>2024-08-10T07:01:14Z</time>
      </trkpt>
      <trkpt lat="45.07539" lon="6.20084">
        <ele>2130.4</ele>
        <time>2024-08-10T07:01:15Z</time>
      </trkpt>
      <trkpt lat="45.07536" lon="6.20084">
        <ele>2130.4</ele>
        <time>2024-08-10T07:01:16Z</time>
      </trkpt>
      <trkpt lat="45.07536" lon="6.20084">
        <ele>2130.4</ele>
        <time>2024-08-10T07:01:17Z</time>
      </trkpt>
      <trkpt lat="45.07536" lon="6.20084">
        <ele>2130.8</ele>
        <time>2024-08-10T07:01:18Z</time>
      </trkpt>
      <trkpt lat="45.07534" lon="6.20084">
        <ele>2131.2</ele>
        <time>2024-08-10T07:01:19Z</time>
      </trkpt>
      <trkpt lat="45.07534" lon="6.20084">
        <ele>2131.2</ele>
        <time>2024-08-10T07:01:20Z</time>
      </trkpt>
      <trkpt lat="45.07534" lon="6.20084">
        <ele>2131.2</ele>
        <time>2024-08-10T07:01:21Z</time>
      </trkpt>
      <trkpt lat="45.07532" lon="6.20084">
        <ele>2131.2</ele>
        <time>2024-08-10T07:01:22Z</time>
      </trkpt>
      <trkpt lat="45.07532" lon="6.20084">
        <ele>2131.4</ele>
        <time>2024-08-10T07:01:23Z</time>
      </trkpt>
      <trkpt lat="45.07532" lon="6.20084">
        <ele>2131.4</ele>
        <time>2024-08-10T07:01:24Z</time>
      </trkpt>
      <trkpt lat="45.0753" lon="6.20084">
        <ele>2131.8</ele>
        <time>2024-08-10T07:01:25Z</time>
      </trkpt>
      <trkpt lat="45.0753" lon="6.20084">
        <ele>2131.8</ele>
        <time>2024-08-10T07:01:26Z</time>
      </trkpt>
      <trkpt lat="45.0753" lon="6.20084">
        <ele>2132.2</ele>
        <time>2024-08-10T07:01:27Z</time>
      </trkpt>
      <trkpt lat="45.0753" lon="6.20084">
        <ele>2132.6</ele>
        <time>2024-08-10T07:01:28Z</time>
      </trkpt>
      <trkpt lat="45.0753" lon="6.20084">
        <ele>2132.8</ele>
        <time>2024-08-10T07:01:29Z</time>
      </trkpt>
      <trkpt lat="45.0753" lon="6.20084">
        <ele>2133.2</ele>
        <time>2024-08-10T07:01:30Z</time>
      </trkpt>
      <trkpt lat="45.0753" lon="6.20084">
        <ele>2133.2</ele>
        <time>2024-08-10T07:01:31Z</time>
      </trkpt>
      <trkpt lat="45.07528" lon="6.20082">
        <ele>2133</ele>
        <time>2024-08-10T07:01:32Z</time>
      </trkpt>
      <trkpt lat="45.07528" lon="6.20082">
        <ele>2133</ele>
        <time>2024-08-10T07:01:33Z</time>
      </trkpt>
      <trkpt lat="45.07526" lon="6.20081">
        <ele>2132.8</ele>
        <time>2024-08-10T07:01:34Z</time>
      </trkpt>
      <trkpt lat="45.07526" lon="6.20081">
        <ele>2132.8</ele>
        <time>2024-08-10T07:01:35Z</time>
      </trkpt>
      <trkpt lat="45.07523" lon="6.2008">
        <ele>2133.2</ele>
        <time>2024-08-10T07:01:36Z</time>
      </trkpt>
      <trkpt lat="45.07523" lon="6.2008">
        <ele>2133.8</ele>
        <time>2024-08-10T07:01:37Z</time>
      </trkpt>
      <trkpt lat="45.07521" lon="6.2008">
        <ele>2134</ele>
        <time>2024-08-10T07:01:38Z</time>
      </trkpt>
      <trkpt lat="45.07521" lon="6.2008">
        <ele>2134</ele>
        <time>2024-08-10T07:01:39Z</time>
      </trkpt>
      <trkpt lat="45.07521" lon="6.2008">
        <ele>2134.4</ele>
        <time>2024-08-10T07:01:40Z</time>
      </trkpt>
      <trkpt lat="45.07519" lon="6.20079">
        <ele>2135</ele>
        <time>2024-08-10T07:01:41Z</time>
      </trkpt>
      <trkpt lat="45.07519" lon="6.20079">
        <ele>2135.2</ele>
        <time>2024-08-10T07:01:42Z</time>
      </trkpt>
      <trkpt lat="45.07517" lon="6.20079">
        <ele>2135.2</ele>
        <time>2024-08-10T07:01:43Z</time>
      </trkpt>
      <trkpt lat="45.07517" lon="6.20079">
        <ele>2135.2</ele>
        <time>2024-08-10T07:01:44Z</time>
      </trkpt>
      <trkpt lat="45.07517" lon="6.20079">
        <ele>2135.4</ele>
        <time>2024-08-10T07:01:45Z</time>
      </trkpt>
      <trkpt lat="45.07515" lon="6.20079">
        <ele>2135.4</ele>
        <time>2024-08-10T07:01:46Z</time>
      </trkpt>
      <trkpt lat="45.07515" lon="6.20079">
        <ele>2135.4</ele>
        <time>2024-08-10T07:01:47Z</time>
      </trkpt>
      <trkpt lat="45.07515" lon="6.20079">
        <ele>2135.6</ele>
        <time>2024-08-10T07:01:48Z</time>
      </trkpt>
      <trkpt lat="45.07513" lon="6.20081">
        <ele>2135.6</ele>
        <time>2024-08-10T07:01:49Z</time>
      </trkpt>
      <trkpt lat="45.07513" lon="6.20081">
        <ele>2136</ele>
        <time>2024-08-10T07:01:50Z</time>
      </trkpt>
      <trkpt lat="45.07513" lon="6.20081">
        <ele>2136.4</ele>
        <time>2024-08-10T07:01:51Z</time>
      </trkpt>
      <trkpt lat="45.07513" lon="6.20084">
        <ele>2136.6</ele>
        <time>2024-08-10T07:01:52Z</time>
      </trkpt>
      <trkpt lat="45.07513" lon="6.20084">
        <ele>2136.8</ele>
        <time>2024-08-10T07:01:53Z</time>
      </trkpt>
      <trkpt lat="45.07513" lon="6.20084">
        <ele>2137</ele>
        <time>2024-08-10T07:01:54Z</time>
      </trkpt>
      <trkpt lat="45.07514" lon="6.20086">
        <ele>2137.4</ele>
        <time>2024-08-10T07:01:55Z</time>
      </trkpt>
      <trkpt lat="45.07514" lon="6.20086">
        <ele>2137.4</ele>
        <time>2024-08-10T07:01:56Z</time>
      </trkpt>
      <trkpt lat="45.07514" lon="6.20086">
        <ele>2137.4</ele>
        <time>2024-08-10T07:01:57Z</time>
      </trkpt>
      <trkpt lat="45.07515" lon="6.20089">
        <ele>2137.4</ele>
        <time>2024-08-10T07:01:58Z</time>
      </trkpt>
      <trkpt lat="45.07515" lon="6.20089">
        <ele>2137.4</ele>
        <time>2024-08-10T07:01:59Z</time>
      </trkpt>
      <trkpt lat="45.07515" lon="6.20089">
        <ele>2137.8</ele>
        <time>2024-08-10T07:02:00Z</time>
      </trkpt>
      <trkpt lat="45.07515" lon="6.20092">
        <ele>2138</ele>
        <time>2024-08-10T07:02:01Z</time>
      </trkpt>
      <trkpt lat="45.07515" lon="6.20092">
        <ele>2138.2</ele>
        <time>2024-08-10T07:02:02Z</time>
      </trkpt>
      <trkpt lat="45.07513" lon="6.20093">
        <ele>2138.8</ele>
        <time>2024-08-10T07:02:03Z</time>
      </trkpt>
      <trkpt lat="45.07513" lon="6.20093">
        <ele>2138.8</ele>
        <time>2024-08-10T07:02:04Z</time>
      </trkpt>
      <trkpt lat="45.07513" lon="6.20093">
        <ele>2139</ele>
        <time>2024-08-10T07:02:05Z</time>
      </trkpt>
      <trkpt lat="45.07511" lon="6.20094">
        <ele>2139</ele>
        <time>2024-08-10T07:02:06Z</time>
      </trkpt>
      <trkpt lat="45.07511" lon="6.20094">
        <ele>2139</ele>
        <time>2024-08-10T07:02:07Z</time>
      </trkpt>
      <trkpt lat="45.07511" lon="6.20094">
        <ele>2139.2</ele>
        <time>2024-08-10T07:02:08Z</time>
      </trkpt>
      <trkpt lat="45.07509" lon="6.20094">
        <ele>2139.2</ele>
        <time>2024-08-10T07:02:09Z</time>
      </trkpt>
      <trkpt lat="45.07509" lon="6.20094">
        <ele>2140</ele>
        <time>2024-08-10T07:02:10Z</time>
      </trkpt>
      <trkpt lat="45.07509" lon="6.20094">
        <ele>2140</ele>
        <time>2024-08-10T07:02:11Z</time>
      </trkpt>
      <trkpt lat="45.07506" lon="6.20094">
        <ele>2140</ele>
        <time>2024-08-10T07:02:12Z</time>
      </trkpt>
      <trkpt lat="45.07506" lon="6.20094">
        <ele>2140.4</ele>
        <time>2024-08-10T07:02:13Z</time>
      </trkpt>
      <trkpt lat="45.07506" lon="6.20094">
        <ele>2140.6</ele>
        <time>2024-08-10T07:02:14Z</time>
      </trkpt>
      <trkpt lat="45.07504" lon="6.20094">
        <ele>2140.8</ele>
        <time>2024-08-10T07:02:15Z</time>
      </trkpt>
      <trkpt lat="45.07504" lon="6.20094">
        <ele>2140.8</ele>
        <time>2024-08-10T07:02:16Z</time>
      </trkpt>
      <trkpt lat="45.07504" lon="6.20094">
        <ele>2141.4</ele>
        <time>2024-08-10T07:02:17Z</time>
      </trkpt>
      <trkpt lat="45.07501" lon="6.20093">
        <ele>2141.6</ele>
        <time>2024-08-10T07:02:18Z</time>
      </trkpt>
      <trkpt lat="45.07501" lon="6.20093">
        <ele>2141.6</ele>
        <time>2024-08-10T07:02:19Z</time>
      </trkpt>
      <trkpt lat="45.07501" lon="6.20093">
        <ele>2142</ele>
        <time>2024-08-10T07:02:20Z</time>
      </trkpt>
      <trkpt lat="45.07499" lon="6.20092">
        <ele>2142.2</ele>
        <time>2024-08-10T07:02:21Z</time>
      </trkpt>
      <trkpt lat="45.07499" lon="6.20092">
        <ele>2142.4</ele>
        <time>2024-08-10T07:02:22Z</time>
      </trkpt>
      <trkpt lat="45.07497" lon="6.20091">
        <ele>2142.8</ele>
        <time>2024-08-10T07:02:23Z</time>
      </trkpt>
      <trkpt lat="45.07497" lon="6.20091">
        <ele>2142.8</ele>
        <time>2024-08-10T07:02:24Z</time>
      </trkpt>
      <trkpt lat="45.07497" lon="6.20091">
        <ele>2143</ele>
        <time>2024-08-10T07:02:25Z</time>
      </trkpt>
      <trkpt lat="45.07495" lon="6.2009">
        <ele>2142.8</ele>
        <time>2024-08-10T07:02:26Z</time>
      </trkpt>
      <trkpt lat="45.07495" lon="6.2009">
        <ele>2143.2</ele>
        <time>2024-08-10T07:02:27Z</time>
      </trkpt>
      <trkpt lat="45.07495" lon="6.2009">
        <ele>2143.2</ele>
        <time>2024-08-10T07:02:28Z</time>
      </trkpt>
      <trkpt lat="45.07493" lon="6.2009">
        <ele>2143.8</ele>
        <time>2024-08-10T07:02:29Z</time>
      </trkpt>
      <trkpt lat="45.07493" lon="6.2009">
        <ele>2143.8</ele>
        <time>2024-08-10T07:02:30Z</time>
      </trkpt>
      <trkpt lat="45.07493" lon="6.2009">
        <ele>2143.8</ele>
        <time>2024-08-10T07:02:31Z</time>
      </trkpt>
      <trkpt lat="45.07491" lon="6.20089">
        <ele>2144</ele>
        <time>2024-08-10T07:02:32Z</time>
      </trkpt>
      <trkpt lat="45.07491" lon="6.20089">
        <ele>2144.2</ele>
        <time>2024-08-10T07:02:33Z</time>
      </trkpt>
      <trkpt lat="45.07491" lon="6.20089">
        <ele>2144.6</ele>
        <time>2024-08-10T07:02:34Z</time>
      </trkpt>
      <trkpt lat="45.07488" lon="6.2009">
        <ele>2144.8</ele>
        <time>2024-08-10T07:02:35Z</time>
      </trkpt>
      <trkpt lat="45.07488" lon="6.2009">
        <ele>2144.8</ele>
        <time>2024-08-10T07:02:36Z</time>
      </trkpt>
      <trkpt lat="45.07488" lon="6.2009">
        <ele>2145.4</ele>
        <time>2024-08-10T07:02:37Z</time>
      </trkpt>
      <trkpt lat="45.07486" lon="6.20091">
        <ele>2145.6</ele>
        <time>2024-08-10T07:02:38Z</time>
      </trkpt>
      <trkpt lat="45.07486" lon="6.20091">
        <ele>2145.6</ele>
        <time>2024-08-10T07:02:39Z</time>
      </trkpt>
      <trkpt lat="45.07486" lon="6.20091">
        <ele>2146</ele>
        <time>2024-08-10T07:02:40Z</time>
      </trkpt>
      <trkpt lat="45.07484" lon="6.20092">
        <ele>2146.4</ele>
        <time>2024-08-10T07:02:41Z</time>
      </trkpt>
      <trkpt lat="45.07484" lon="6.20092">
        <ele>2146.6</ele>
        <time>2024-08-10T07:02:42Z</time>
      </trkpt>
      <trkpt lat="45.07482" lon="6.20092">
        <ele>2146.6</ele>
        <time>2024-08-10T07:02:43Z</time>
      </trkpt>
      <trkpt lat="45.07482" lon="6.20092">
        <ele>2146.8</ele>
        <time>2024-08-10T07:02:44Z</time>
      </trkpt>
      <trkpt lat="45.07482" lon="6.20092">
        <ele>2147</ele>
        <time>2024-08-10T07:02:45Z</time>
      </trkpt>
      <trkpt lat="45.0748" lon="6.20093">
        <ele>2147.2</ele>
        <time>2024-08-10T07:02:46Z</time>
      </trkpt>
      <trkpt lat="45.0748" lon="6.20093">
        <ele>2147.4</ele>
        <time>2024-08-10T07:02:47Z</time>
      </trkpt>
      <trkpt lat="45.0748" lon="6.20093">
        <ele>2147.6</ele>
        <time>2024-08-10T07:02:48Z</time>
      </trkpt>
      <trkpt lat="45.07478" lon="6.20094">
        <ele>2148</ele>
        <time>2024-08-10T07:02:49Z</time>
      </trkpt>
      <trkpt lat="45.07478" lon="6.20094">
        <ele>2148</ele>
        <time>2024-08-10T07:02:50Z</time>
      </trkpt>
      <trkpt lat="45.07478" lon="6.20094">
        <ele>2148</ele>
        <time>2024-08-10T07:02:51Z</time>
      </trkpt>
      <trkpt lat="45.07476" lon="6.20095">
        <ele>2148.4</ele>
        <time>2024-08-10T07:02:52Z</time>
      </trkpt>
      <trkpt lat="45.07476" lon="6.20095">
        <ele>2148.4</ele>
        <time>2024-08-10T07:02:53Z</time>
      </trkpt>
      <trkpt lat="45.07476" lon="6.20095">
        <ele>2148.8</ele>
        <time>2024-08-10T07:02:54Z</time>
      </trkpt>
      <trkpt lat="45.07475" lon="6.20096">
        <ele>2149</ele>
        <time>2024-08-10T07:02:55Z</time>
      </trkpt>
      <trkpt lat="45.07475" lon="6.20096">
        <ele>2149.2</ele>
        <time>2024-08-10T07:02:56Z</time>
      </trkpt>
      <trkpt lat="45.07475" lon="6.20096">
        <ele>2150.2</ele>
        <time>2024-08-10T07:02:57Z</time>
      </trkpt>
      <trkpt lat="45.07473" lon="6.20098">
        <ele>2150.2</ele>
        <time>2024-08-10T07:02:58Z</time>
      </trkpt>
      <trkpt lat="45.07473" lon="6.20098">
        <ele>2150.4</ele>
        <time>2024-08-10T07:02:59Z</time>
      </trkpt>
      <trkpt lat="45.07473" lon="6.20098">
        <ele>2150.6</ele>
        <time>2024-08-10T07:03:00Z</time>
      </trkpt>
      <trkpt lat="45.07473" lon="6.20101">
        <ele>2150.6</ele>
        <time>2024-08-10T07:03:01Z</time>
      </trkpt>
      <trkpt lat="45.07473" lon="6.20101">
        <ele>2151.2</ele>
        <time>2024-08-10T07:03:02Z</time>
      </trkpt>
      <trkpt lat="45.07473" lon="6.20101">
        <ele>2151.2</ele>
        <time>2024-08-10T07:03:03Z</time>
      </trkpt>
      <trkpt lat="45.07474" lon="6.20105">
        <ele>2151.2</ele>
        <time>2024-08-10T07:03:04Z</time>
      </trkpt>
      <trkpt lat="45.07474" lon="6.20105">
        <ele>2151.4</ele>
        <time>2024-08-10T07:03:05Z</time>
      </trkpt>
      <trkpt lat="45.07476" lon="6.20107">
        <ele>2152</ele>
        <time>2024-08-10T07:03:06Z</time>
      </trkpt>
      <trkpt lat="45.07476" lon="6.20107">
        <ele>2152.2</ele>
        <time>2024-08-10T07:03:07Z</time>
      </trkpt>
      <trkpt lat="45.07477" lon="6.20108">
        <ele>2152.2</ele>
        <time>2024-08-10T07:03:08Z</time>
      </trkpt>
      <trkpt lat="45.07477" lon="6.20108">
        <ele>2152.2</ele>
        <time>2024-08-10T07:03:09Z</time>
      </trkpt>
      <trkpt lat="45.07479" lon="6.20109">
        <ele>2152.2</ele>
        <time>2024-08-10T07:03:10Z</time>
      </trkpt>
      <trkpt lat="45.07479" lon="6.20109">
        <ele>2152</ele>
        <time>2024-08-10T07:03:11Z</time>
      </trkpt>
      <trkpt lat="45.07481" lon="6.20112">
        <ele>2152</ele>
        <time>2024-08-10T07:03:12Z</time>
      </trkpt>
      <trkpt lat="45.07481" lon="6.20112">
        <ele>2152.4</ele>
        <time>2024-08-10T07:03:13Z</time>
      </trkpt>
      <trkpt lat="45.07481" lon="6.20112">
        <ele>2152.8</ele>
        <time>2024-08-10T07:03:14Z</time>
      </trkpt>
      <trkpt lat="45.07481" lon="6.20115">
        <ele>2153</ele>
        <time>2024-08-10T07:03:15Z</time>
      </trkpt>
      <trkpt lat="45.07481" lon="6.20115">
        <ele>2153</ele>
        <time>2024-08-10T07:03:16Z</time>
      </trkpt>
      <trkpt lat="45.07481" lon="6.20115">
        <ele>2153</ele>
        <time>2024-08-10T07:03:17Z</time>
      </trkpt>
      <trkpt lat="45.07483" lon="6.20118">
        <ele>2153.2</ele>
        <time>2024-08-10T07:03:18Z</time>
      </trkpt>
      <trkpt lat="45.07483" lon="6.20118">
        <ele>2153.4</ele>
        <time>2024-08-10T07:03:19Z</time>
      </trkpt>
      <trkpt lat="45.07484" lon="6.20119">
        <ele>2154</ele>
        <time>2024-08-10T07:03:20Z</time>
      </trkpt>
      <trkpt lat="45.07484" lon="6.20119">
        <ele>2154.6</ele>
        <time>2024-08-10T07:03:21Z</time>
      </trkpt>
      <trkpt lat="45.07484" lon="6.20119">
        <ele>2154.6</ele>
        <time>2024-08-10T07:03:22Z</time>
      </trkpt>
      <trkpt lat="45.07486" lon="6.20121">
        <ele>2154.6</ele>
        <time>2024-08-10T07:03:23Z</time>
      </trkpt>
      <trkpt lat="45.07486" lon="6.20121">
        <ele>2155</ele>
        <time>2024-08-10T07:03:24Z</time>
      </trkpt>
      <trkpt lat="45.07488" lon="6.20123">
        <ele>2155.2</ele>
        <time>2024-08-10T07:03:25Z</time>
      </trkpt>
      <trkpt lat="45.07488" lon="6.20123">
        <ele>2155.2</ele>
        <time>2024-08-10T07:03:26Z</time>
      </trkpt>
      <trkpt lat="45.07488" lon="6.20123">
        <ele>2155.2</ele>
        <time>2024-08-10T07:03:27Z</time>
      </trkpt>
      <trkpt lat="45.0749" lon="6.20125">
        <ele>2155.4</ele>
        <time>2024-08-10T07:03:28Z</time>
      </trkpt>
      <trkpt lat="45.0749" lon="6.20125">
        <ele>2155.6</ele>
        <time>2024-08-10T07:03:29Z</time>
      </trkpt>
      <trkpt lat="45.07492" lon="6.20126">
        <ele>2156</ele>
        <time>2024-08-10T07:03:30Z</time>
      </trkpt>
      <trkpt lat="45.07492" lon="6.20126">
        <ele>2156</ele>
        <time>2024-08-10T07:03:31Z</time>
      </trkpt>
      <trkpt lat="45.07492" lon="6.20126">
        <ele>2156.2</ele>
        <time>2024-08-10T07:03:32Z</time>
      </trkpt>
      <trkpt lat="45.07494" lon="6.20129">
        <ele>2156.4</ele>
        <time>2024-08-10T07:03:33Z</time>
      </trkpt>
      <trkpt lat="45.07494" lon="6.20129">
        <ele>2156.4</ele>
        <time>2024-08-10T07:03:34Z</time>
      </trkpt>
      <trkpt lat="45.07494" lon="6.20129">
        <ele>2157.2</ele>
        <time>2024-08-10T07:03:35Z</time>
      </trkpt>
      <trkpt lat="45.07496" lon="6.20131">
        <ele>2157.4</ele>
        <time>2024-08-10T07:03:36Z</time>
      </trkpt>
      <trkpt lat="45.07496" lon="6.20131">
        <ele>2157.6</ele>
        <time>2024-08-10T07:03:37Z</time>
      </trkpt>
      <trkpt lat="45.07496" lon="6.20131">
        <ele>2157.8</ele>
        <time>2024-08-10T07:03:38Z</time>
      </trkpt>
      <trkpt lat="45.07498" lon="6.20135">
        <ele>2157.8</ele>
        <time>2024-08-10T07:03:39Z</time>
      </trkpt>
      <trkpt lat="45.07498" lon="6.20135">
        <ele>2157.8</ele>
        <time>2024-08-10T07:03:40Z</time>
      </trkpt>
      <trkpt lat="45.07498" lon="6.20135">
        <ele>2158.2</ele>
        <time>2024-08-10T07:03:41Z</time>
      </trkpt>
      <trkpt lat="45.07499" lon="6.20138">
        <ele>2158.2</ele>
        <time>2024-08-10T07:03:42Z</time>
      </trkpt>
      <trkpt lat="45.07499" lon="6.20138">
        <ele>2158.4</ele>
        <time>2024-08-10T07:03:43Z</time>
      </trkpt>
      <trkpt lat="45.07501" lon="6.2014">
        <ele>2158.8</ele>
        <time>2024-08-10T07:03:44Z</time>
      </trkpt>
      <trkpt lat="45.07501" lon="6.2014">
        <ele>2159</ele>
        <time>2024-08-10T07:03:45Z</time>
      </trkpt>
      <trkpt lat="45.07502" lon="6.20142">
        <ele>2159</ele>
        <time>2024-08-10T07:03:46Z</time>
      </trkpt>
      <trkpt lat="45.07502" lon="6.20142">
        <ele>2159.4</ele>
        <time>2024-08-10T07:03:47Z</time>
      </trkpt>
      <trkpt lat="45.07503" lon="6.20144">
        <ele>2159.4</ele>
        <time>2024-08-10T07:03:48Z</time>
      </trkpt>
      <trkpt lat="45.07503" lon="6.20144">
        <ele>2159.6</ele>
        <time>2024-08-10T07:03:49Z</time>
      </trkpt>
      <trkpt lat="45.07504" lon="6.20146">
        <ele>2160</ele>
        <time>2024-08-10T07:03:50Z</time>
      </trkpt>
      <trkpt lat="45.07504" lon="6.20146">
        <ele>2160</ele>
        <time>2024-08-10T07:03:51Z</time>
      </trkpt>
      <trkpt lat="45.07506" lon="6.20148">
        <ele>2160.2</ele>
        <time>2024-08-10T07:03:52Z</time>
      </trkpt>
      <trkpt lat="45.07506" lon="6.20148">
        <ele>2160.2</ele>
        <time>2024-08-10T07:03:53Z</time>
      </trkpt>
      <trkpt lat="45.07508" lon="6.20149">
        <ele>2160.6</ele>
        <time>2024-08-10T07:03:54Z</time>
      </trkpt>
      <trkpt lat="45.07508" lon="6.20149">
        <ele>2160.6</ele>
        <time>2024-08-10T07:03:55Z</time>
      </trkpt>
      <trkpt lat="45.0751" lon="6.2015">
        <ele>2160.8</ele>
        <time>2024-08-10T07:03:56Z</time>
      </trkpt>
      <trkpt lat="45.0751" lon="6.2015">
        <ele>2160.8</ele>
        <time>2024-08-10T07:03:57Z</time>
      </trkpt>
      <trkpt lat="45.07512" lon="6.20151">
        <ele>2161.2</ele>
        <time>2024-08-10T07:03:58Z</time>
      </trkpt>
      <trkpt lat="45.07512" lon="6.20151">
        <ele>2161.2</ele>
        <time>2024-08-10T07:03:59Z</time>
      </trkpt>
      <trkpt lat="45.07514" lon="6.20153">
        <ele>2161.2</ele>
        <time>2024-08-10T07:04:00Z</time>
      </trkpt>
      <trkpt lat="45.07514" lon="6.20153">
        <ele>2161.2</ele>
        <time>2024-08-10T07:04:01Z</time>
      </trkpt>
      <trkpt lat="45.07516" lon="6.20154">
        <ele>2161.2</ele>
        <time>2024-08-10T07:04:02Z</time>
      </trkpt>
      <trkpt lat="45.07516" lon="6.20154">
        <ele>2161.4</ele>
        <time>2024-08-10T07:04:03Z</time>
      </trkpt>
      <trkpt lat="45.07517" lon="6.20156">
        <ele>2161.4</ele>
        <time>2024-08-10T07:04:04Z</time>
      </trkpt>
      <trkpt lat="45.07517" lon="6.20156">
        <ele>2161.4</ele>
        <time>2024-08-10T07:04:05Z</time>
      </trkpt>
      <trkpt lat="45.07519" lon="6.20159">
        <ele>2161.4</ele>
        <time>2024-08-10T07:04:06Z</time>
      </trkpt>
      <trkpt lat="45.07519" lon="6.20159">
        <ele>2161.4</ele>
        <time>2024-08-10T07:04:07Z</time>
      </trkpt>
      <trkpt lat="45.0752" lon="6.20161">
        <ele>2161.4</ele>
        <time>2024-08-10T07:04:08Z</time>
      </trkpt>
      <trkpt lat="45.0752" lon="6.20161">
        <ele>2161.4</ele>
        <time>2024-08-10T07:04:09Z</time>
      </trkpt>
      <trkpt lat="45.07521" lon="6.20164">
        <ele>2161.6</ele>
        <time>2024-08-10T07:04:10Z</time>
      </trkpt>
      <trkpt lat="45.07521" lon="6.20164">
        <ele>2161.6</ele>
        <time>2024-08-10T07:04:11Z</time>
      </trkpt>
      <trkpt lat="45.07522" lon="6.20166">
        <ele>2161.6</ele>
        <time>2024-08-10T07:04:12Z</time>
      </trkpt>
      <trkpt lat="45.07522" lon="6.20166">
        <ele>2161.6</ele>
        <time>2024-08-10T07:04:13Z</time>
      </trkpt>
      <trkpt lat="45.07524" lon="6.20168">
        <ele>2161.8</ele>
        <time>2024-08-10T07:04:14Z</time>
      </trkpt>
      <trkpt lat="45.07524" lon="6.20168">
        <ele>2162</ele>
        <time>2024-08-10T07:04:15Z</time>
      </trkpt>
      <trkpt lat="45.07524" lon="6.20168">
        <ele>2162.6</ele>
        <time>2024-08-10T07:04:16Z</time>
      </trkpt>
      <trkpt lat="45.07526" lon="6.20172">
        <ele>2162.6</ele>
        <time>2024-08-10T07:04:17Z</time>
      </trkpt>
      <trkpt lat="45.07526" lon="6.20172">
        <ele>2162.6</ele>
        <time>2024-08-10T07:04:18Z</time>
      </trkpt>
      <trkpt lat="45.07526" lon="6.20172">
        <ele>2162.8</ele>
        <time>2024-08-10T07:04:19Z</time>
      </trkpt>
      <trkpt lat="45.07527" lon="6.20175">
        <ele>2162.8</ele>
        <time>2024-08-10T07:04:20Z</time>
      </trkpt>
      <trkpt lat="45.07527" lon="6.20175">
        <ele>2162.8</ele>
        <time>2024-08-10T07:04:21Z</time>
      </trkpt>
      <trkpt lat="45.07529" lon="6.20176">
        <ele>2163</ele>
        <time>2024-08-10T07:04:22Z</time>
      </trkpt>
      <trkpt lat="45.07529" lon="6.20176">
        <ele>2163.2</ele>
        <time>2024-08-10T07:04:23Z</time>
      </trkpt>
      <trkpt lat="45.0753" lon="6.20178">
        <ele>2163.6</ele>
        <time>2024-08-10T07:04:24Z</time>
      </trkpt>
      <trkpt lat="45.0753" lon="6.20178">
        <ele>2163.8</ele>
        <time>2024-08-10T07:04:25Z</time>
      </trkpt>
      <trkpt lat="45.0753" lon="6.20178">
        <ele>2164</ele>
        <time>2024-08-10T07:04:26Z</time>
      </trkpt>
      <trkpt lat="45.07532" lon="6.20181">
        <ele>2164.2</ele>
        <time>2024-08-10T07:04:27Z</time>
      </trkpt>
      <trkpt lat="45.07532" lon="6.20181">
        <ele>2164.4</ele>
        <time>2024-08-10T07:04:28Z</time>
      </trkpt>
      <trkpt lat="45.07533" lon="6.20183">
        <ele>2164.4</ele>
        <time>2024-08-10T07:04:29Z</time>
      </trkpt>
      <trkpt lat="45.07533" lon="6.20183">
        <ele>2164.6</ele>
        <time>2024-08-10T07:04:30Z</time>
      </trkpt>
      <trkpt lat="45.07535" lon="6.20185">
        <ele>2164.8</ele>
        <time>2024-08-10T07:04:31Z</time>
      </trkpt>
      <trkpt lat="45.07535" lon="6.20185">
        <ele>2165</ele>
        <time>2024-08-10T07:04:32Z</time>
      </trkpt>
      <trkpt lat="45.07537" lon="6.20187">
        <ele>2165</ele>
        <time>2024-08-10T07:04:33Z</time>
      </trkpt>
      <trkpt lat="45.07537" lon="6.20187">
        <ele>2165.2</ele>
        <time>2024-08-10T07:04:34Z</time>
      </trkpt>
      <trkpt lat="45.07539" lon="6.20189">
        <ele>2165.6</ele>
        <time>2024-08-10T07:04:35Z</time>
      </trkpt>
      <trkpt lat="45.07539" lon="6.20189">
        <ele>2165.6</ele>
        <time>2024-08-10T07:04:36Z</time>
      </trkpt>
      <trkpt lat="45.0754" lon="6.20192">
        <ele>2166</ele>
        <time>2024-08-10T07:04:37Z</time>
      </trkpt>
      <trkpt lat="45.0754" lon="6.20192">
        <ele>2166.2</ele>
        <time>2024-08-10T07:04:38Z</time>
      </trkpt>
      <trkpt lat="45.07541" lon="6.20194">
        <ele>2166.2</ele>
        <time>2024-08-10T07:04:39Z</time>
      </trkpt>
      <trkpt lat="45.07541" lon="6.20194">
        <ele>2166.2</ele>
        <time>2024-08-10T07:04:40Z</time>
      </trkpt>
      <trkpt lat="45.07543" lon="6.20196">
        <ele>2166.2</ele>
        <time>2024-08-10T07:04:41Z</time>
      </trkpt>
      <trkpt lat="45.07543" lon="6.20196">
        <ele>2166.4</ele>
        <time>2024-08-10T07:04:42Z</time>
      </trkpt>
      <trkpt lat="45.07543" lon="6.20196">
        <ele>2166.4</ele>
        <time>2024-08-10T07:04:43Z</time>
      </trkpt>
      <trkpt lat="45.07545" lon="6.20199">
        <ele>2166.4</ele>
        <time>2024-08-10T07:04:44Z</time>
      </trkpt>
      <trkpt lat="45.07545" lon="6.20199">
        <ele>2166.4</ele>
        <time>2024-08-10T07:04:45Z</time>
      </trkpt>
      <trkpt lat="45.07546" lon="6.20202">
        <ele>2166.8</ele>
        <time>2024-08-10T07:04:46Z</time>
      </trkpt>
      <trkpt lat="45.07546" lon="6.20202">
        <ele>2166.8</ele>
        <time>2024-08-10T07:04:47Z</time>
      </trkpt>
      <trkpt lat="45.07546" lon="6.20202">
        <ele>2166.8</ele>
        <time>2024-08-10T07:04:48Z</time>
      </trkpt>
      <trkpt lat="45.07548" lon="6.20205">
        <ele>2167</ele>
        <time>2024-08-10T07:04:49Z</time>
      </trkpt>
      <trkpt lat="45.07548" lon="6.20205">
        <ele>2167.2</ele>
        <time>2024-08-10T07:04:50Z</time>
      </trkpt>
      <trkpt lat="45.07549" lon="6.20207">
        <ele>2167.4</ele>
        <time>2024-08-10T07:04:51Z</time>
      </trkpt>
      <trkpt lat="45.07549" lon="6.20207">
        <ele>2167.6</ele>
        <time>2024-08-10T07:04:52Z</time>
      </trkpt>
      <trkpt lat="45.07549" lon="6.2021">
        <ele>2167.8</ele>
        <time>2024-08-10T07:04:53Z</time>
      </trkpt>
      <trkpt lat="45.07549" lon="6.2021">
        <ele>2167.8</ele>
        <time>2024-08-10T07:04:54Z</time>
      </trkpt>
      <trkpt lat="45.07549" lon="6.2021">
        <ele>2167.8</ele>
        <time>2024-08-10T07:04:55Z</time>
      </trkpt>
      <trkpt lat="45.0755" lon="6.20212">
        <ele>2168</ele>
        <time>2024-08-10T07:04:56Z</time>
      </trkpt>
      <trkpt lat="45.0755" lon="6.20212">
        <ele>2168.8</ele>
        <time>2024-08-10T07:04:57Z</time>
      </trkpt>
      <trkpt lat="45.0755" lon="6.20212">
        <ele>2168.8</ele>
        <time>2024-08-10T07:04:58Z</time>
      </trkpt>
      <trkpt lat="45.07551" lon="6.20214">
        <ele>2169</ele>
        <time>2024-08-10T07:04:59Z</time>
      </trkpt>
      <trkpt lat="45.07551" lon="6.20214">
        <ele>2169.2</ele>
        <time>2024-08-10T07:05:00Z</time>
      </trkpt>
      <trkpt lat="45.07551" lon="6.20214">
        <ele>2169.6</ele>
        <time>2024-08-10T07:05:01Z</time>
      </trkpt>
      <trkpt lat="45.07553" lon="6.20216">
        <ele>2169.6</ele>
        <time>2024-08-10T07:05:02Z</time>
      </trkpt>
      <trkpt lat="45.07553" lon="6.20216">
        <ele>2170.2</ele>
        <time>2024-08-10T07:05:03Z</time>
      </trkpt>
      <trkpt lat="45.07553" lon="6.20216">
        <ele>2170.2</ele>
        <time>2024-08-10T07:05:04Z</time>
      </trkpt>
      <trkpt lat="45.07554" lon="6.20219">
        <ele>2170.2</ele>
        <time>2024-08-10T07:05:05Z</time>
      </trkpt>
      <trkpt lat="45.07554" lon="6.20219">
        <ele>2170.4</ele>
        <time>2024-08-10T07:05:06Z</time>
      </trkpt>
      <trkpt lat="45.07554" lon="6.20219">
        <ele>2170.6</ele>
        <time>2024-08-10T07:05:07Z</time>
      </trkpt>
      <trkpt lat="45.07555" lon="6.20222">
        <ele>2170.8</ele>
        <time>2024-08-10T07:05:08Z</time>
      </trkpt>
      <trkpt lat="45.07555" lon="6.20222">
        <ele>2171</ele>
        <time>2024-08-10T07:05:09Z</time>
      </trkpt>
      <trkpt lat="45.07556" lon="6.20224">
        <ele>2171</ele>
        <time>2024-08-10T07:05:10Z</time>
      </trkpt>
      <trkpt lat="45.07556" lon="6.20224">
        <ele>2171.4</ele>
        <time>2024-08-10T07:05:11Z</time>
      </trkpt>
      <trkpt lat="45.07556" lon="6.20224">
        <ele>2171.4</ele>
        <time>2024-08-10T07:05:12Z</time>
      </trkpt>
      <trkpt lat="45.07556" lon="6.20226">
        <ele>2171.4</ele>
        <time>2024-08-10T07:05:13Z</time>
      </trkpt>
      <trkpt lat="45.07556" lon="6.20226">
        <ele>2171.8</ele>
        <time>2024-08-10T07:05:14Z</time>
      </trkpt>
      <trkpt lat="45.07556" lon="6.20226">
        <ele>2171.8</ele>
        <time>2024-08-10T07:05:15Z</time>
      </trkpt>
      <trkpt lat="45.07557" lon="6.20229">
        <ele>2172.2</ele>
        <time>2024-08-10T07:05:16Z</time>
      </trkpt>
      <trkpt lat="45.07557" lon="6.20229">
        <ele>2172.4</ele>
        <time>2024-08-10T07:05:17Z</time>
      </trkpt>
      <trkpt lat="45.07559" lon="6.20231">
        <ele>2172.6</ele>
        <time>2024-08-10T07:05:18Z</time>
      </trkpt>
      <trkpt lat="45.07559" lon="6.20231">
        <ele>2172.6</ele>
        <time>2024-08-10T07:05:19Z</time>
      </trkpt>
      <trkpt lat="45.07559" lon="6.20231">
        <ele>2172.6</ele>
        <time>2024-08-10T07:05:20Z</time>
      </trkpt>
      <trkpt lat="45.0756" lon="6.20233">
        <ele>2173.2</ele>
        <time>2024-08-10T07:05:21Z</time>
      </trkpt>
      <trkpt lat="45.0756" lon="6.20233">
        <ele>2173.4</ele>
        <time>2024-08-10T07:05:22Z</time>
      </trkpt>
      <trkpt lat="45.0756" lon="6.20233">
        <ele>2173.4</ele>
        <time>2024-08-10T07:05:23Z</time>
      </trkpt>
      <trkpt lat="45.0756" lon="6.20233">
        <ele>2173.4</ele>
        <time>2024-08-10T07:05:24Z</time>
      </trkpt>
      <trkpt lat="45.07561" lon="6.20236">
        <ele>2173.6</ele>
        <time>2024-08-10T07:05:25Z</time>
      </trkpt>
      <trkpt lat="45.07561" lon="6.20236">
        <ele>2173.6</ele>
        <time>2024-08-10T07:05:26Z</time>
      </trkpt>
      <trkpt lat="45.07561" lon="6.20236">
        <ele>2174</ele>
        <time>2024-08-10T07:05:27Z</time>
      </trkpt>
      <trkpt lat="45.07562" lon="6.20239">
        <ele>2174.6</ele>
        <time>2024-08-10T07:05:28Z</time>
      </trkpt>
      <trkpt lat="45.07562" lon="6.20239">
        <ele>2174.6</ele>
        <time>2024-08-10T07:05:29Z</time>
      </trkpt>
      <trkpt lat="45.07564" lon="6.20241">
        <ele>2174.6</ele>
        <time>2024-08-10T07:05:30Z</time>
      </trkpt>
      <trkpt lat="45.07564" lon="6.20241">
        <ele>2174.8</ele>
        <time>2024-08-10T07:05:31Z</time>
      </trkpt>
      <trkpt lat="45.07564" lon="6.20241">
        <ele>2175</ele>
        <time>2024-08-10T07:05:32Z</time>
      </trkpt>
      <trkpt lat="45.07564" lon="6.20243">
        <ele>2175</ele>
        <time>2024-08-10T07:05:33Z</time>
      </trkpt>
      <trkpt lat="45.07564" lon="6.20243">
        <ele>2175.4</ele>
        <time>2024-08-10T07:05:34Z</time>
      </trkpt>
      <trkpt lat="45.07564" lon="6.20243">
        <ele>2175.6</ele>
        <time>2024-08-10T07:05:35Z</time>
      </trkpt>
      <trkpt lat="45.07564" lon="6.20243">
        <ele>2175.6</ele>
        <time>2024-08-10T07:05:36Z</time>
      </trkpt>
      <trkpt lat="45.07564" lon="6.20246">
        <ele>2175.6</ele>
        <time>2024-08-10T07:05:37Z</time>
      </trkpt>
      <trkpt lat="45.07564" lon="6.20246">
        <ele>2175.8</ele>
        <time>2024-08-10T07:05:38Z</time>
      </trkpt>
      <trkpt lat="45.07564" lon="6.20246">
        <ele>2176</ele>
        <time>2024-08-10T07:05:39Z</time>
      </trkpt>
      <trkpt lat="45.07563" lon="6.20248">
        <ele>2176.2</ele>
        <time>2024-08-10T07:05:40Z</time>
      </trkpt>
      <trkpt lat="45.07563" lon="6.20248">
        <ele>2176.4</ele>
        <time>2024-08-10T07:05:41Z</time>
      </trkpt>
      <trkpt lat="45.07561" lon="6.20248">
        <ele>2176.4</ele>
        <time>2024-08-10T07:05:42Z</time>
      </trkpt>
      <trkpt lat="45.07561" lon="6.20248">
        <ele>2176.8</ele>
        <time>2024-08-10T07:05:43Z</time>
      </trkpt>
      <trkpt lat="45.07561" lon="6.20248">
        <ele>2177.2</ele>
        <time>2024-08-10T07:05:44Z</time>
      </trkpt>
      <trkpt lat="45.07559" lon="6.20246">
        <ele>2177.2</ele>
        <time>2024-08-10T07:05:45Z</time>
      </trkpt>
      <trkpt lat="45.07559" lon="6.20246">
        <ele>2177.4</ele>
        <time>2024-08-10T07:05:46Z</time>
      </trkpt>
      <trkpt lat="45.07559" lon="6.20246">
        <ele>2177.6</ele>
        <time>2024-08-10T07:05:47Z</time>
      </trkpt>
      <trkpt lat="45.07559" lon="6.20246">
        <ele>2177.6</ele>
        <time>2024-08-10T07:05:48Z</time>
      </trkpt>
      <trkpt lat="45.07559" lon="6.20246">
        <ele>2177.6</ele>
        <time>2024-08-10T07:05:49Z</time>
      </trkpt>
      <trkpt lat="45.07557" lon="6.20244">
        <ele>2177.6</ele>
        <time>2024-08-10T07:05:50Z</time>
      </trkpt>
      <trkpt lat="45.07557" lon="6.20244">
        <ele>2178.2</ele>
        <time>2024-08-10T07:05:51Z</time>
      </trkpt>
      <trkpt lat="45.07557" lon="6.20244">
        <ele>2178.2</ele>
        <time>2024-08-10T07:05:52Z</time>
      </trkpt>
      <trkpt lat="45.07557" lon="6.20244">
        <ele>2178.2</ele>
        <time>2024-08-10T07:05:53Z</time>
      </trkpt>
      <trkpt lat="45.07554" lon="6.20245">
        <ele>2178.8</ele>
        <time>2024-08-10T07:05:54Z</time>
      </trkpt>
      <trkpt lat="45.07554" lon="6.20245">
        <ele>2179.2</ele>
        <time>2024-08-10T07:05:55Z</time>
      </trkpt>
      <trkpt lat="45.07554" lon="6.20245">
        <ele>2179.6</ele>
        <time>2024-08-10T07:05:56Z</time>
      </trkpt>
      <trkpt lat="45.07555" lon="6.20248">
        <ele>2179.6</ele>
        <time>2024-08-10T07:05:57Z</time>
      </trkpt>
      <trkpt lat="45.07555" lon="6.20248">
        <ele>2179.6</ele>
        <time>2024-08-10T07:05:58Z</time>
      </trkpt>
      <trkpt lat="45.07557" lon="6.20249">
        <ele>2179.8</ele>
        <time>2024-08-10T07:05:59Z</time>
      </trkpt>
      <trkpt lat="45.07557" lon="6.20249">
        <ele>2180</ele>
        <time>2024-08-10T07:06:00Z</time>
      </trkpt>
      <trkpt lat="45.07557" lon="6.20249">
        <ele>2180</ele>
        <time>2024-08-10T07:06:01Z</time>
      </trkpt>
      <trkpt lat="45.07558" lon="6.20251">
        <ele>2180.6</ele>
        <time>2024-08-10T07:06:02Z</time>
      </trkpt>
      <trkpt lat="45.07558" lon="6.20251">
        <ele>2180.8</ele>
        <time>2024-08-10T07:06:03Z</time>
      </trkpt>
      <trkpt lat="45.07558" lon="6.20251">
        <ele>2180.8</ele>
        <time>2024-08-10T07:06:04Z</time>
      </trkpt>
      <trkpt lat="45.0756" lon="6.20253">
        <ele>2180.8</ele>
        <time>2024-08-10T07:06:05Z</time>
      </trkpt>
      <trkpt lat="45.0756" lon="6.20253">
        <ele>2180.8</ele>
        <time>2024-08-10T07:06:06Z</time>
      </trkpt>
      <trkpt lat="45.07563" lon="6.20255">
        <ele>2181</ele>
        <time>2024-08-10T07:06:07Z</time>
      </trkpt>
      <trkpt lat="45.07563" lon="6.20255">
        <ele>2181</ele>
        <time>2024-08-10T07:06:08Z</time>
      </trkpt>
      <trkpt lat="45.07565" lon="6.20257">
        <ele>2181</ele>
        <time>2024-08-10T07:06:09Z</time>
      </trkpt>
      <trkpt lat="45.07565" lon="6.20257">
        <ele>2181</ele>
        <time>2024-08-10T07:06:10Z</time>
      </trkpt>
      <trkpt lat="45.07568" lon="6.2026">
        <ele>2181</ele>
        <time>2024-08-10T07:06:11Z</time>
      </trkpt>
      <trkpt lat="45.07568" lon="6.2026">
        <ele>2181.2</ele>
        <time>2024-08-10T07:06:12Z</time>
      </trkpt>
      <trkpt lat="45.07569" lon="6.20261">
        <ele>2181.2</ele>
        <time>2024-08-10T07:06:13Z</time>
      </trkpt>
      <trkpt lat="45.07569" lon="6.20261">
        <ele>2181.2</ele>
        <time>2024-08-10T07:06:14Z</time>
      </trkpt>
      <trkpt lat="45.0757" lon="6.20263">
        <ele>2181</ele>
        <time>2024-08-10T07:06:15Z</time>
      </trkpt>
      <trkpt lat="45.0757" lon="6.20263">
        <ele>2181</ele>
        <time>2024-08-10T07:06:16Z</time>
      </trkpt>
      <trkpt lat="45.0757" lon="6.20263">
        <ele>2181</ele>
        <time>2024-08-10T07:06:17Z</time>
      </trkpt>
      <trkpt lat="45.07569" lon="6.20266">
        <ele>2181.4</ele>
        <time>2024-08-10T07:06:18Z</time>
      </trkpt>
      <trkpt lat="45.07569" lon="6.20266">
        <ele>2181.4</ele>
        <time>2024-08-10T07:06:19Z</time>
      </trkpt>
      <trkpt lat="45.07567" lon="6.20265">
        <ele>2181.4</ele>
        <time>2024-08-10T07:06:20Z</time>
      </trkpt>
      <trkpt lat="45.07567" lon="6.20265">
        <ele>2181.8</ele>
        <time>2024-08-10T07:06:21Z</time>
      </trkpt>
      <trkpt lat="45.07567" lon="6.20265">
        <ele>2182</ele>
        <time>2024-08-10T07:06:22Z</time>
      </trkpt>
      <trkpt lat="45.07565" lon="6.20264">
        <ele>2182</ele>
        <time>2024-08-10T07:06:23Z</time>
      </trkpt>
      <trkpt lat="45.07565" lon="6.20264">
        <ele>2182.2</ele>
        <time>2024-08-10T07:06:24Z</time>
      </trkpt>
      <trkpt lat="45.07563" lon="6.20264">
        <ele>2182.4</ele>
        <time>2024-08-10T07:06:25Z</time>
      </trkpt>
      <trkpt lat="45.07563" lon="6.20264">
        <ele>2182.6</ele>
        <time>2024-08-10T07:06:26Z</time>
      </trkpt>
      <trkpt lat="45.07563" lon="6.20264">
        <ele>2182.6</ele>
        <time>2024-08-10T07:06:27Z</time>
      </trkpt>
      <trkpt lat="45.07563" lon="6.20264">
        <ele>2182.8</ele>
        <time>2024-08-10T07:06:28Z</time>
      </trkpt>
      <trkpt lat="45.07563" lon="6.20264">
        <ele>2183.2</ele>
        <time>2024-08-10T07:06:29Z</time>
      </trkpt>
      <trkpt lat="45.07563" lon="6.20264">
        <ele>2183.2</ele>
        <time>2024-08-10T07:06:30Z</time>
      </trkpt>
      <trkpt lat="45.07563" lon="6.20264">
        <ele>2183.2</ele>
        <time>2024-08-10T07:06:31Z</time>
      </trkpt>
      <trkpt lat="45.07563" lon="6.20264">
        <ele>2183.2</ele>
        <time>2024-08-10T07:06:32Z</time>
      </trkpt>
      <trkpt lat="45.07563" lon="6.20264">
        <ele>2183.8</ele>
        <time>2024-08-10T07:06:33Z</time>
      </trkpt>
      <trkpt lat="45.0756" lon="6.20264">
        <ele>2184</ele>
        <time>2024-08-10T07:06:34Z</time>
      </trkpt>
      <trkpt lat="45.0756" lon="6.20264">
        <ele>2184.4</ele>
        <time>2024-08-10T07:06:35Z</time>
      </trkpt>
      <trkpt lat="45.07558" lon="6.20264">
        <ele>2184.4</ele>
        <time>2024-08-10T07:06:36Z</time>
      </trkpt>
      <trkpt lat="45.07558" lon="6.20264">
        <ele>2184.6</ele>
        <time>2024-08-10T07:06:37Z</time>
      </trkpt>
      <trkpt lat="45.07555" lon="6.20264">
        <ele>2184.6</ele>
        <time>2024-08-10T07:06:38Z</time>
      </trkpt>
      <trkpt lat="45.07555" lon="6.20264">
        <ele>2185</ele>
        <time>2024-08-10T07:06:39Z</time>
      </trkpt>
      <trkpt lat="45.07552" lon="6.20264">
        <ele>2185</ele>
        <time>2024-08-10T07:06:40Z</time>
      </trkpt>
      <trkpt lat="45.07552" lon="6.20264">
        <ele>2185.2</ele>
        <time>2024-08-10T07:06:41Z</time>
      </trkpt>
      <trkpt lat="45.0755" lon="6.20262">
        <ele>2185.6</ele>
        <time>2024-08-10T07:06:42Z</time>
      </trkpt>
      <trkpt lat="45.0755" lon="6.20262">
        <ele>2185.8</ele>
        <time>2024-08-10T07:06:43Z</time>
      </trkpt>
      <trkpt lat="45.07549" lon="6.20261">
        <ele>2186</ele>
        <time>2024-08-10T07:06:44Z</time>
      </trkpt>
      <trkpt lat="45.07549" lon="6.20261">
        <ele>2186.2</ele>
        <time>2024-08-10T07:06:45Z</time>
      </trkpt>
      <trkpt lat="45.07549" lon="6.20261">
        <ele>2186.4</ele>
        <time>2024-08-10T07:06:46Z</time>
      </trkpt>
      <trkpt lat="45.07547" lon="6.20258">
        <ele>2186.4</ele>
        <time>2024-08-10T07:06:47Z</time>
      </trkpt>
      <trkpt lat="45.07547" lon="6.20258">
        <ele>2186.4</ele>
        <time>2024-08-10T07:06:48Z</time>
      </trkpt>
      <trkpt lat="45.07547" lon="6.20258">
        <ele>2186.6</ele>
        <time>2024-08-10T07:06:49Z</time>
      </trkpt>
      <trkpt lat="45.07545" lon="6.20256">
        <ele>2187</ele>
        <time>2024-08-10T07:06:50Z</time>
      </trkpt>
      <trkpt lat="45.07545" lon="6.20256">
        <ele>2187</ele>
        <time>2024-08-10T07:06:51Z</time>
      </trkpt>
      <trkpt lat="45.07545" lon="6.20256">
        <ele>2187.2</ele>
        <time>2024-08-10T07:06:52Z</time>
      </trkpt>
      <trkpt lat="45.07543" lon="6.20255">
        <ele>2187.2</ele>
        <time>2024-08-10T07:06:53Z</time>
      </trkpt>
      <trkpt lat="45.07543" lon="6.20255">
        <ele>2187.4</ele>
        <time>2024-08-10T07:06:54Z</time>
      </trkpt>
      <trkpt lat="45.07543" lon="6.20255">
        <ele>2187.6</ele>
        <time>2024-08-10T07:06:55Z</time>
      </trkpt>
      <trkpt lat="45.0754" lon="6.20255">
        <ele>2187.6</ele>
        <time>2024-08-10T07:06:56Z</time>
      </trkpt>
      <trkpt lat="45.0754" lon="6.20255">
        <ele>2187.6</ele>
        <time>2024-08-10T07:06:57Z</time>
      </trkpt>
      <trkpt lat="45.0754" lon="6.20255">
        <ele>2188</ele>
        <time>2024-08-10T07:06:58Z</time>
      </trkpt>
      <trkpt lat="45.07538" lon="6.20254">
        <ele>2188.4</ele>
        <time>2024-08-10T07:06:59Z</time>
      </trkpt>
      <trkpt lat="45.07538" lon="6.20254">
        <ele>2188.4</ele>
        <time>2024-08-10T07:07:00Z</time>
      </trkpt>
      <trkpt lat="45.07538" lon="6.20254">
        <ele>2188.8</ele>
        <time>2024-08-10T07:07:01Z</time>
      </trkpt>
      <trkpt lat="45.07536" lon="6.20253">
        <ele>2189.2</ele>
        <time>2024-08-10T07:07:02Z</time>
      </trkpt>
      <trkpt lat="45.07536" lon="6.20253">
        <ele>2189.4</ele>
        <time>2024-08-10T07:07:03Z</time>
      </trkpt>
      <trkpt lat="45.07536" lon="6.20253">
        <ele>2189.4</ele>
        <time>2024-08-10T07:07:04Z</time>
      </trkpt>
      <trkpt lat="45.07534" lon="6.20253">
        <ele>2189.4</ele>
        <time>2024-08-10T07:07:05Z</time>
      </trkpt>
      <trkpt lat="45.07534" lon="6.20253">
        <ele>2189.8</ele>
        <time>2024-08-10T07:07:06Z</time>
      </trkpt>
      <trkpt lat="45.07534" lon="6.20253">
        <ele>2190.4</ele>
        <time>2024-08-10T07:07:07Z</time>
      </trkpt>
      <trkpt lat="45.07532" lon="6.20252">
        <ele>2190.6</ele>
        <time>2024-08-10T07:07:08Z</time>
      </trkpt>
      <trkpt lat="45.07532" lon="6.20252">
        <ele>2190.8</ele>
        <time>2024-08-10T07:07:09Z</time>
      </trkpt>
      <trkpt lat="45.07532" lon="6.20252">
        <ele>2191</ele>
        <time>2024-08-10T07:07:10Z</time>
      </trkpt>
      <trkpt lat="45.0753" lon="6.20251">
        <ele>2191</ele>
        <time>2024-08-10T07:07:11Z</time>
      </trkpt>
      <trkpt lat="45.0753" lon="6.20251">
        <ele>2191.4</ele>
        <time>2024-08-10T07:07:12Z</time>
      </trkpt>
      <trkpt lat="45.0753" lon="6.20251">
        <ele>2191.6</ele>
        <time>2024-08-10T07:07:13Z</time>
      </trkpt>
      <trkpt lat="45.07528" lon="6.20251">
        <ele>2191.6</ele>
        <time>2024-08-10T07:07:14Z</time>
      </trkpt>
      <trkpt lat="45.07528" lon="6.20251">
        <ele>2191.8</ele>
        <time>2024-08-10T07:07:15Z</time>
      </trkpt>
      <trkpt lat="45.07528" lon="6.20251">
        <ele>2192</ele>
        <time>2024-08-10T07:07:16Z</time>
      </trkpt>
      <trkpt lat="45.07526" lon="6.2025">
        <ele>2192</ele>
        <time>2024-08-10T07:07:17Z</time>
      </trkpt>
      <trkpt lat="45.07526" lon="6.2025">
        <ele>2192.2</ele>
        <time>2024-08-10T07:07:18Z</time>
      </trkpt>
      <trkpt lat="45.07526" lon="6.2025">
        <ele>2192.2</ele>
        <time>2024-08-10T07:07:19Z</time>
      </trkpt>
      <trkpt lat="45.07525" lon="6.2025">
        <ele>2192.6</ele>
        <time>2024-08-10T07:07:20Z</time>
      </trkpt>
      <trkpt lat="45.07525" lon="6.2025">
        <ele>2192.6</ele>
        <time>2024-08-10T07:07:21Z</time>
      </trkpt>
      <trkpt lat="45.07525" lon="6.2025">
        <ele>2193</ele>
        <time>2024-08-10T07:07:22Z</time>
      </trkpt>
      <trkpt lat="45.07522" lon="6.20249">
        <ele>2193.2</ele>
        <time>2024-08-10T07:07:23Z</time>
      </trkpt>
      <trkpt lat="45.07522" lon="6.20249">
        <ele>2193.4</ele>
        <time>2024-08-10T07:07:24Z</time>
      </trkpt>
      <trkpt lat="45.07522" lon="6.20249">
        <ele>2193.8</ele>
        <time>2024-08-10T07:07:25Z</time>
      </trkpt>
      <trkpt lat="45.07522" lon="6.20249">
        <ele>2193.8</ele>
        <time>2024-08-10T07:07:26Z</time>
      </trkpt>
      <trkpt lat="45.0752" lon="6.20247">
        <ele>2194</ele>
        <time>2024-08-10T07:07:27Z</time>
      </trkpt>
      <trkpt lat="45.0752" lon="6.20247">
        <ele>2194.4</ele>
        <time>2024-08-10T07:07:28Z</time>
      </trkpt>
      <trkpt lat="45.07518" lon="6.20246">
        <ele>2194.4</ele>
        <time>2024-08-10T07:07:29Z</time>
      </trkpt>
      <trkpt lat="45.07518" lon="6.20246">
        <ele>2194.6</ele>
        <time>2024-08-10T07:07:30Z</time>
      </trkpt>
      <trkpt lat="45.07518" lon="6.20246">
        <ele>2194.8</ele>
        <time>2024-08-10T07:07:31Z</time>
      </trkpt>
      <trkpt lat="45.07518" lon="6.20246">
        <ele>2195.2</ele>
        <time>2024-08-10T07:07:32Z</time>
      </trkpt>
      <trkpt lat="45.07518" lon="6.20246">
        <ele>2195.2</ele>
        <time>2024-08-10T07:07:33Z</time>
      </trkpt>
      <trkpt lat="45.07518" lon="6.20246">
        <ele>2195.2</ele>
        <time>2024-08-10T07:07:34Z</time>
      </trkpt>
      <trkpt lat="45.07518" lon="6.20246">
        <ele>2195.4</ele>
        <time>2024-08-10T07:07:35Z</time>
      </trkpt>
      <trkpt lat="45.07518" lon="6.20246">
        <ele>2195.6</ele>
        <time>2024-08-10T07:07:36Z</time>
      </trkpt>
      <trkpt lat="45.07518" lon="6.20246">
        <ele>2195.6</ele>
        <time>2024-08-10T07:07:37Z</time>
      </trkpt>
      <trkpt lat="45.07518" lon="6.20246">
        <ele>2195.6</ele>
        <time>2024-08-10T07:07:38Z</time>
      </trkpt>
      <trkpt lat="45.07518" lon="6.20246">
        <ele>2195.6</ele>
        <time>2024-08-10T07:07:39Z</time>
      </trkpt>
      <trkpt lat="45.07518" lon="6.20246">
        <ele>2195.4</ele>
        <time>2024-08-10T07:07:40Z</time>
      </trkpt>
      <trkpt lat="45.07518" lon="6.20246">
        <ele>2195.4</ele>
        <time>2024-08-10T07:07:41Z</time>
      </trkpt>
      <trkpt lat="45.07518" lon="6.20246">
        <ele>2195.4</ele>
        <time>2024-08-10T07:07:42Z</time>
      </trkpt>
      <trkpt lat="45.07518" lon="6.20246">
        <ele>2195.4</ele>
        <time>2024-08-10T07:07:43Z</time>
      </trkpt>
      <trkpt lat="45.07517" lon="6.20244">
        <ele>2195.4</ele>
        <time>2024-08-10T07:07:44Z</time>
      </trkpt>
      <trkpt lat="45.07517" lon="6.20244">
        <ele>2195.4</ele>
        <time>2024-08-10T07:07:45Z</time>
      </trkpt>
      <trkpt lat="45.07515" lon="6.20242">
        <ele>2195.4</ele>
        <time>2024-08-10T07:07:46Z</time>
      </trkpt>
      <trkpt lat="45.07515" lon="6.20242">
        <ele>2195.4</ele>
        <time>2024-08-10T07:07:47Z</time>
      </trkpt>
      <trkpt lat="45.07512" lon="6.20241">
        <ele>2195.4</ele>
        <time>2024-08-10T07:07:48Z</time>
      </trkpt>
      <trkpt lat="45.07512" lon="6.20241">
        <ele>2195.6</ele>
        <time>2024-08-10T07:07:49Z</time>
      </trkpt>
      <trkpt lat="45.0751" lon="6.2024">
        <ele>2195.8</ele>
        <time>2024-08-10T07:07:50Z</time>
      </trkpt>
      <trkpt lat="45.0751" lon="6.2024">
        <ele>2196</ele>
        <time>2024-08-10T07:07:51Z</time>
      </trkpt>
      <trkpt lat="45.0751" lon="6.2024">
        <ele>2196.2</ele>
        <time>2024-08-10T07:07:52Z</time>
      </trkpt>
      <trkpt lat="45.07507" lon="6.20238">
        <ele>2196.2</ele>
        <time>2024-08-10T07:07:53Z</time>
      </trkpt>
      <trkpt lat="45.07507" lon="6.20238">
        <ele>2196.2</ele>
        <time>2024-08-10T07:07:54Z</time>
      </trkpt>
      <trkpt lat="45.07505" lon="6.20237">
        <ele>2196.4</ele>
        <time>2024-08-10T07:07:55Z</time>
      </trkpt>
      <trkpt lat="45.07505" lon="6.20237">
        <ele>2196.8</ele>
        <time>2024-08-10T07:07:56Z</time>
      </trkpt>
      <trkpt lat="45.07503" lon="6.20237">
        <ele>2197</ele>
        <time>2024-08-10T07:07:57Z</time>
      </trkpt>
      <trkpt lat="45.07503" lon="6.20237">
        <ele>2197</ele>
        <time>2024-08-10T07:07:58Z</time>
      </trkpt>
      <trkpt lat="45.07501" lon="6.20235">
        <ele>2197.2</ele>
        <time>2024-08-10T07:07:59Z</time>
      </trkpt>
      <trkpt lat="45.07501" lon="6.20235">
        <ele>2197.2</ele>
        <time>2024-08-10T07:08:00Z</time>
      </trkpt>
      <trkpt lat="45.07501" lon="6.20235">
        <ele>2197.2</ele>
        <time>2024-08-10T07:08:01Z</time>
      </trkpt>
      <trkpt lat="45.07499" lon="6.20234">
        <ele>2197.2</ele>
        <time>2024-08-10T07:08:02Z</time>
      </trkpt>
      <trkpt lat="45.07499" lon="6.20234">
        <ele>2197.8</ele>
        <time>2024-08-10T07:08:03Z</time>
      </trkpt>
      <trkpt lat="45.07499" lon="6.20234">
        <ele>2197.8</ele>
        <time>2024-08-10T07:08:04Z</time>
      </trkpt>
      <trkpt lat="45.07497" lon="6.20233">
        <ele>2197.8</ele>
        <time>2024-08-10T07:08:05Z</time>
      </trkpt>
      <trkpt lat="45.07497" lon="6.20233">
        <ele>2198.2</ele>
        <time>2024-08-10T07:08:06Z</time>
      </trkpt>
      <trkpt lat="45.07497" lon="6.20233">
        <ele>2198.4</ele>
        <time>2024-08-10T07:08:07Z</time>
      </trkpt>
      <trkpt lat="45.07494" lon="6.20233">
        <ele>2198.6</ele>
        <time>2024-08-10T07:08:08Z</time>
      </trkpt>
      <trkpt lat="45.07494" lon="6.20233">
        <ele>2198.8</ele>
        <time>2024-08-10T07:08:09Z</time>
      </trkpt>
      <trkpt lat="45.07494" lon="6.20233">
        <ele>2199</ele>
        <time>2024-08-10T07:08:10Z</time>
      </trkpt>
      <trkpt lat="45.07493" lon="6.20233">
        <ele>2199.2</ele>
        <time>2024-08-10T07:08:11Z</time>
      </trkpt>
      <trkpt lat="45.07493" lon="6.20233">
        <ele>2199.4</ele>
        <time>2024-08-10T07:08:12Z</time>
      </trkpt>
      <trkpt lat="45.07493" lon="6.20233">
        <ele>2199.4</ele>
        <time>2024-08-10T07:08:13Z</time>
      </trkpt>
      <trkpt lat="45.0749" lon="6.20233">
        <ele>2199.4</ele>
        <time>2024-08-10T07:08:14Z</time>
      </trkpt>
      <trkpt lat="45.0749" lon="6.20233">
        <ele>2199.6</ele>
        <time>2024-08-10T07:08:15Z</time>
      </trkpt>
      <trkpt lat="45.0749" lon="6.20233">
        <ele>2199.8</ele>
        <time>2024-08-10T07:08:16Z</time>
      </trkpt>
      <trkpt lat="45.07488" lon="6.20233">
        <ele>2200</ele>
        <time>2024-08-10T07:08:17Z</time>
      </trkpt>
      <trkpt lat="45.07488" lon="6.20233">
        <ele>2200.4</ele>
        <time>2024-08-10T07:08:18Z</time>
      </trkpt>
      <trkpt lat="45.07488" lon="6.20233">
        <ele>2200.6</ele>
        <time>2024-08-10T07:08:19Z</time>
      </trkpt>
      <trkpt lat="45.07485" lon="6.20232">
        <ele>2200.8</ele>
        <time>2024-08-10T07:08:20Z</time>
      </trkpt>
      <trkpt lat="45.07485" lon="6.20232">
        <ele>2201</ele>
        <time>2024-08-10T07:08:21Z</time>
      </trkpt>
      <trkpt lat="45.07485" lon="6.20232">
        <ele>2201</ele>
        <time>2024-08-10T07:08:22Z</time>
      </trkpt>
      <trkpt lat="45.07484" lon="6.20232">
        <ele>2201.4</ele>
        <time>2024-08-10T07:08:23Z</time>
      </trkpt>
      <trkpt lat="45.07484" lon="6.20232">
        <ele>2201.4</ele>
        <time>2024-08-10T07:08:24Z</time>
      </trkpt>
      <trkpt lat="45.07484" lon="6.20232">
        <ele>2201.8</ele>
        <time>2024-08-10T07:08:25Z</time>
      </trkpt>
      <trkpt lat="45.07481" lon="6.20232">
        <ele>2202</ele>
        <time>2024-08-10T07:08:26Z</time>
      </trkpt>
      <trkpt lat="45.07481" lon="6.20232">
        <ele>2202</ele>
        <time>2024-08-10T07:08:27Z</time>
      </trkpt>
      <trkpt lat="45.07481" lon="6.20232">
        <ele>2202.2</ele>
        <time>2024-08-10T07:08:28Z</time>
      </trkpt>
      <trkpt lat="45.07479" lon="6.20231">
        <ele>2202.4</ele>
        <time>2024-08-10T07:08:29Z</time>
      </trkpt>
      <trkpt lat="45.07479" lon="6.20231">
        <ele>2202.6</ele>
        <time>2024-08-10T07:08:30Z</time>
      </trkpt>
      <trkpt lat="45.07479" lon="6.20231">
        <ele>2202.8</ele>
        <time>2024-08-10T07:08:31Z</time>
      </trkpt>
      <trkpt lat="45.07476" lon="6.20232">
        <ele>2202.8</ele>
        <time>2024-08-10T07:08:32Z</time>
      </trkpt>
      <trkpt lat="45.07476" lon="6.20232">
        <ele>2203.2</ele>
        <time>2024-08-10T07:08:33Z</time>
      </trkpt>
      <trkpt lat="45.07476" lon="6.20232">
        <ele>2203.2</ele>
        <time>2024-08-10T07:08:34Z</time>
      </trkpt>
      <trkpt lat="45.07474" lon="6.20232">
        <ele>2203.4</ele>
        <time>2024-08-10T07:08:35Z</time>
      </trkpt>
      <trkpt lat="45.07474" lon="6.20232">
        <ele>2203.6</ele>
        <time>2024-08-10T07:08:36Z</time>
      </trkpt>
      <trkpt lat="45.07474" lon="6.20232">
        <ele>2203.8</ele>
        <time>2024-08-10T07:08:37Z</time>
      </trkpt>
      <trkpt lat="45.07472" lon="6.20232">
        <ele>2204</ele>
        <time>2024-08-10T07:08:38Z</time>
      </trkpt>
      <trkpt lat="45.07472" lon="6.20232">
        <ele>2204</ele>
        <time>2024-08-10T07:08:39Z</time>
      </trkpt>
      <trkpt lat="45.07472" lon="6.20232">
        <ele>2204.2</ele>
        <time>2024-08-10T07:08:40Z</time>
      </trkpt>
      <trkpt lat="45.07469" lon="6.20232">
        <ele>2204.4</ele>
        <time>2024-08-10T07:08:41Z</time>
      </trkpt>
      <trkpt lat="45.07469" lon="6.20232">
        <ele>2204.4</ele>
        <time>2024-08-10T07:08:42Z</time>
      </trkpt>
      <trkpt lat="45.07468" lon="6.20231">
        <ele>2205</ele>
        <time>2024-08-10T07:08:43Z</time>
      </trkpt>
      <trkpt lat="45.07468" lon="6.20231">
        <ele>2205.2</ele>
        <time>2024-08-10T07:08:44Z</time>
      </trkpt>
      <trkpt lat="45.07465" lon="6.2023">
        <ele>2205.8</ele>
        <time>2024-08-10T07:08:45Z</time>
      </trkpt>
      <trkpt lat="45.07465" lon="6.2023">
        <ele>2206</ele>
        <time>2024-08-10T07:08:46Z</time>
      </trkpt>
      <trkpt lat="45.07463" lon="6.20229">
        <ele>2206</ele>
        <time>2024-08-10T07:08:47Z</time>
      </trkpt>
      <trkpt lat="45.07463" lon="6.20229">
        <ele>2206</ele>
        <time>2024-08-10T07:08:48Z</time>
      </trkpt>
      <trkpt lat="45.07461" lon="6.20228">
        <ele>2206.2</ele>
        <time>2024-08-10T07:08:49Z</time>
      </trkpt>
      <trkpt lat="45.07461" lon="6.20228">
        <ele>2206.4</ele>
        <time>2024-08-10T07:08:50Z</time>
      </trkpt>
      <trkpt lat="45.07461" lon="6.20228">
        <ele>2206.4</ele>
        <time>2024-08-10T07:08:51Z</time>
      </trkpt>
      <trkpt lat="45.07461" lon="6.20228">
        <ele>2206.4</ele>
        <time>2024-08-10T07:08:52Z</time>
      </trkpt>
      <trkpt lat="45.07461" lon="6.20228">
        <ele>2206.6</ele>
        <time>2024-08-10T07:08:53Z</time>
      </trkpt>
      <trkpt lat="45.07461" lon="6.20228">
        <ele>2207</ele>
        <time>2024-08-10T07:08:54Z</time>
      </trkpt>
      <trkpt lat="45.07461" lon="6.20228">
        <ele>2207</ele>
        <time>2024-08-10T07:08:55Z</time>
      </trkpt>
      <trkpt lat="45.07461" lon="6.20228">
        <ele>2206.6</ele>
        <time>2024-08-10T07:08:56Z</time>
      </trkpt>
      <trkpt lat="45.07461" lon="6.20228">
        <ele>2206.6</ele>
        <time>2024-08-10T07:08:57Z</time>
      </trkpt>
      <trkpt lat="45.07461" lon="6.20228">
        <ele>2206.6</ele>
        <time>2024-08-10T07:08:58Z</time>
      </trkpt>
      <trkpt lat="45.07461" lon="6.20228">
        <ele>2206.6</ele>
        <time>2024-08-10T07:08:59Z</time>
      </trkpt>
      <trkpt lat="45.07461" lon="6.20228">
        <ele>2206.6</ele>
        <time>2024-08-10T07:09:00Z</time>
      </trkpt>
      <trkpt lat="45.07461" lon="6.20228">
        <ele>2206.6</ele>
        <time>2024-08-10T07:09:01Z</time>
      </trkpt>
      <trkpt lat="45.07461" lon="6.20228">
        <ele>2207</ele>
        <time>2024-08-10T07:09:02Z</time>
      </trkpt>
      <trkpt lat="45.07463" lon="6.2023">
        <ele>2207.2</ele>
        <time>2024-08-10T07:09:03Z</time>
      </trkpt>
      <trkpt lat="45.07463" lon="6.2023">
        <ele>2207.2</ele>
        <time>2024-08-10T07:09:04Z</time>
      </trkpt>
      <trkpt lat="45.07463" lon="6.2023">
        <ele>2207.4</ele>
        <time>2024-08-10T07:09:05Z</time>
      </trkpt>
      <trkpt lat="45.07463" lon="6.2023">
        <ele>2207.6</ele>
        <time>2024-08-10T07:09:06Z</time>
      </trkpt>
      <trkpt lat="45.07463" lon="6.2023">
        <ele>2207.6</ele>
        <time>2024-08-10T07:09:07Z</time>
      </trkpt>
      <trkpt lat="45.07463" lon="6.2023">
        <ele>2207.8</ele>
        <time>2024-08-10T07:09:08Z</time>
      </trkpt>
      <trkpt lat="45.07463" lon="6.2023">
        <ele>2207.8</ele>
        <time>2024-08-10T07:09:09Z</time>
      </trkpt>
      <trkpt lat="45.07464" lon="6.20232">
        <ele>2208</ele>
        <time>2024-08-10T07:09:10Z</time>
      </trkpt>
      <trkpt lat="45.07464" lon="6.20232">
        <ele>2208.2</ele>
        <time>2024-08-10T07:09:11Z</time>
      </trkpt>
      <trkpt lat="45.07467" lon="6.20236">
        <ele>2208.6</ele>
        <time>2024-08-10T07:09:12Z</time>
      </trkpt>
      <trkpt lat="45.07468" lon="6.20237">
        <ele>2209</ele>
        <time>2024-08-10T07:09:13Z</time>
      </trkpt>
      <trkpt lat="45.07468" lon="6.20237">
        <ele>2209.6</ele>
        <time>2024-08-10T07:09:14Z</time>
      </trkpt>
      <trkpt lat="45.07468" lon="6.20237">
        <ele>2209.8</ele>
        <time>2024-08-10T07:09:15Z</time>
      </trkpt>
      <trkpt lat="45.07469" lon="6.2024">
        <ele>2209.8</ele>
        <time>2024-08-10T07:09:16Z</time>
      </trkpt>
      <trkpt lat="45.07469" lon="6.2024">
        <ele>2209.8</ele>
        <time>2024-08-10T07:09:17Z</time>
      </trkpt>
      <trkpt lat="45.07469" lon="6.2024">
        <ele>2209.8</ele>
        <time>2024-08-10T07:09:18Z</time>
      </trkpt>
      <trkpt lat="45.07471" lon="6.20242">
        <ele>2210.2</ele>
        <time>2024-08-10T07:09:19Z</time>
      </trkpt>
      <trkpt lat="45.07471" lon="6.20242">
        <ele>2210.4</ele>
        <time>2024-08-10T07:09:20Z</time>
      </trkpt>
      <trkpt lat="45.07471" lon="6.20242">
        <ele>2210.6</ele>
        <time>2024-08-10T07:09:21Z</time>
      </trkpt>
      <trkpt lat="45.07473" lon="6.20244">
        <ele>2210.6</ele>
        <time>2024-08-10T07:09:22Z</time>
      </trkpt>
      <trkpt lat="45.07473" lon="6.20244">
        <ele>2211</ele>
        <time>2024-08-10T07:09:23Z</time>
      </trkpt>
      <trkpt lat="45.07473" lon="6.20244">
        <ele>2211.2</ele>
        <time>2024-08-10T07:09:24Z</time>
      </trkpt>
      <trkpt lat="45.07474" lon="6.20246">
        <ele>2211.2</ele>
        <time>2024-08-10T07:09:25Z</time>
      </trkpt>
      <trkpt lat="45.07474" lon="6.20246">
        <ele>2211.2</ele>
        <time>2024-08-10T07:09:26Z</time>
      </trkpt>
      <trkpt lat="45.07476" lon="6.20248">
        <ele>2211.6</ele>
        <time>2024-08-10T07:09:27Z</time>
      </trkpt>
      <trkpt lat="45.07476" lon="6.20248">
        <ele>2211.6</ele>
        <time>2024-08-10T07:09:28Z</time>
      </trkpt>
      <trkpt lat="45.07477" lon="6.2025">
        <ele>2211.6</ele>
        <time>2024-08-10T07:09:29Z</time>
      </trkpt>
      <trkpt lat="45.07477" lon="6.2025">
        <ele>2211.8</ele>
        <time>2024-08-10T07:09:30Z</time>
      </trkpt>
      <trkpt lat="45.07477" lon="6.2025">
        <ele>2212</ele>
        <time>2024-08-10T07:09:31Z</time>
      </trkpt>
      <trkpt lat="45.07475" lon="6.20253">
        <ele>2212.4</ele>
        <time>2024-08-10T07:09:32Z</time>
      </trkpt>
      <trkpt lat="45.07475" lon="6.20253">
        <ele>2212.6</ele>
        <time>2024-08-10T07:09:33Z</time>
      </trkpt>
      <trkpt lat="45.07475" lon="6.20253">
        <ele>2212.6</ele>
        <time>2024-08-10T07:09:34Z</time>
      </trkpt>
      <trkpt lat="45.07472" lon="6.20251">
        <ele>2212.8</ele>
        <time>2024-08-10T07:09:35Z</time>
      </trkpt>
      <trkpt lat="45.07472" lon="6.20251">
        <ele>2212.8</ele>
        <time>2024-08-10T07:09:36Z</time>
      </trkpt>
      <trkpt lat="45.0747" lon="6.20252">
        <ele>2213</ele>
        <time>2024-08-10T07:09:37Z</time>
      </trkpt>
      <trkpt lat="45.0747" lon="6.20252">
        <ele>2213</ele>
        <time>2024-08-10T07:09:38Z</time>
      </trkpt>
      <trkpt lat="45.07468" lon="6.20252">
        <ele>2213.4</ele>
        <time>2024-08-10T07:09:39Z</time>
      </trkpt>
      <trkpt lat="45.07468" lon="6.20252">
        <ele>2213.4</ele>
        <time>2024-08-10T07:09:40Z</time>
      </trkpt>
      <trkpt lat="45.07468" lon="6.20252">
        <ele>2213.6</ele>
        <time>2024-08-10T07:09:41Z</time>
      </trkpt>
      <trkpt lat="45.07465" lon="6.20252">
        <ele>2213.6</ele>
        <time>2024-08-10T07:09:42Z</time>
      </trkpt>
      <trkpt lat="45.07465" lon="6.20252">
        <ele>2213.6</ele>
        <time>2024-08-10T07:09:43Z</time>
      </trkpt>
      <trkpt lat="45.07465" lon="6.20252">
        <ele>2213.8</ele>
        <time>2024-08-10T07:09:44Z</time>
      </trkpt>
      <trkpt lat="45.07463" lon="6.20252">
        <ele>2214</ele>
        <time>2024-08-10T07:09:45Z</time>
      </trkpt>
      <trkpt lat="45.07463" lon="6.20252">
        <ele>2214.6</ele>
        <time>2024-08-10T07:09:46Z</time>
      </trkpt>
      <trkpt lat="45.07463" lon="6.20252">
        <ele>2214.6</ele>
        <time>2024-08-10T07:09:47Z</time>
      </trkpt>
      <trkpt lat="45.07461" lon="6.20252">
        <ele>2214.8</ele>
        <time>2024-08-10T07:09:48Z</time>
      </trkpt>
      <trkpt lat="45.07461" lon="6.20252">
        <ele>2215.6</ele>
        <time>2024-08-10T07:09:49Z</time>
      </trkpt>
      <trkpt lat="45.07461" lon="6.20252">
        <ele>2215.8</ele>
        <time>2024-08-10T07:09:50Z</time>
      </trkpt>
      <trkpt lat="45.07459" lon="6.20251">
        <ele>2215.8</ele>
        <time>2024-08-10T07:09:51Z</time>
      </trkpt>
      <trkpt lat="45.07459" lon="6.20251">
        <ele>2215.8</ele>
        <time>2024-08-10T07:09:52Z</time>
      </trkpt>
      <trkpt lat="45.07459" lon="6.20251">
        <ele>2216</ele>
        <time>2024-08-10T07:09:53Z</time>
      </trkpt>
      <trkpt lat="45.07457" lon="6.2025">
        <ele>2216</ele>
        <time>2024-08-10T07:09:54Z</time>
      </trkpt>
      <trkpt lat="45.07457" lon="6.2025">
        <ele>2216</ele>
        <time>2024-08-10T07:09:55Z</time>
      </trkpt>
      <trkpt lat="45.07455" lon="6.20249">
        <ele>2216.4</ele>
        <time>2024-08-10T07:09:56Z</time>
      </trkpt>
      <trkpt lat="45.07455" lon="6.20249">
        <ele>2216.4</ele>
        <time>2024-08-10T07:09:57Z</time>
      </trkpt>
      <trkpt lat="45.07455" lon="6.20249">
        <ele>2216.4</ele>
        <time>2024-08-10T07:09:58Z</time>
      </trkpt>
      <trkpt lat="45.07453" lon="6.20249">
        <ele>2216.4</ele>
        <time>2024-08-10T07:09:59Z</time>
      </trkpt>
      <trkpt lat="45.07453" lon="6.20249">
        <ele>2216.4</ele>
        <time>2024-08-10T07:10:00Z</time>
      </trkpt>
      <trkpt lat="45.07453" lon="6.20249">
        <ele>2216.8</ele>
        <time>2024-08-10T07:10:01Z</time>
      </trkpt>
      <trkpt lat="45.07451" lon="6.20249">
        <ele>2217.2</ele>
        <time>2024-08-10T07:10:02Z</time>
      </trkpt>
      <trkpt lat="45.07451" lon="6.20249">
        <ele>2217.4</ele>
        <time>2024-08-10T07:10:03Z</time>
      </trkpt>
      <trkpt lat="45.07451" lon="6.20249">
        <ele>2217.4</ele>
        <time>2024-08-10T07:10:04Z</time>
      </trkpt>
      <trkpt lat="45.07449" lon="6.20249">
        <ele>2217.6</ele>
        <time>2024-08-10T07:10:05Z</time>
      </trkpt>
      <trkpt lat="45.07449" lon="6.20249">
        <ele>2217.8</ele>
        <time>2024-08-10T07:10:06Z</time>
      </trkpt>
      <trkpt lat="45.07449" lon="6.20249">
        <ele>2218.2</ele>
        <time>2024-08-10T07:10:07Z</time>
      </trkpt>
      <trkpt lat="45.07447" lon="6.20249">
        <ele>2218.4</ele>
        <time>2024-08-10T07:10:08Z</time>
      </trkpt>
      <trkpt lat="45.07447" lon="6.20249">
        <ele>2218.4</ele>
        <time>2024-08-10T07:10:09Z</time>
      </trkpt>
      <trkpt lat="45.07447" lon="6.20249">
        <ele>2218.6</ele>
        <time>2024-08-10T07:10:10Z</time>
      </trkpt>
      <trkpt lat="45.07445" lon="6.20248">
        <ele>2219</ele>
        <time>2024-08-10T07:10:11Z</time>
      </trkpt>
      <trkpt lat="45.07445" lon="6.20248">
        <ele>2219.2</ele>
        <time>2024-08-10T07:10:12Z</time>
      </trkpt>
      <trkpt lat="45.07445" lon="6.20248">
        <ele>2219.6</ele>
        <time>2024-08-10T07:10:13Z</time>
      </trkpt>
      <trkpt lat="45.07442" lon="6.20248">
        <ele>2219.8</ele>
        <time>2024-08-10T07:10:14Z</time>
      </trkpt>
      <trkpt lat="45.07442" lon="6.20248">
        <ele>2220</ele>
        <time>2024-08-10T07:10:15Z</time>
      </trkpt>
      <trkpt lat="45.07442" lon="6.20248">
        <ele>2220</ele>
        <time>2024-08-10T07:10:16Z</time>
      </trkpt>
      <trkpt lat="45.0744" lon="6.20247">
        <ele>2220.2</ele>
        <time>2024-08-10T07:10:17Z</time>
      </trkpt>
      <trkpt lat="45.0744" lon="6.20247">
        <ele>2220.4</ele>
        <time>2024-08-10T07:10:18Z</time>
      </trkpt>
      <trkpt lat="45.07438" lon="6.20245">
        <ele>2220.4</ele>
        <time>2024-08-10T07:10:19Z</time>
      </trkpt>
      <trkpt lat="45.07438" lon="6.20245">
        <ele>2220.6</ele>
        <time>2024-08-10T07:10:20Z</time>
      </trkpt>
      <trkpt lat="45.07437" lon="6.20244">
        <ele>2221</ele>
        <time>2024-08-10T07:10:21Z</time>
      </trkpt>
      <trkpt lat="45.07437" lon="6.20244">
        <ele>2221.2</ele>
        <time>2024-08-10T07:10:22Z</time>
      </trkpt>
      <trkpt lat="45.07437" lon="6.20244">
        <ele>2221.2</ele>
        <time>2024-08-10T07:10:23Z</time>
      </trkpt>
      <trkpt lat="45.07433" lon="6.20243">
        <ele>2221.2</ele>
        <time>2024-08-10T07:10:24Z</time>
      </trkpt>
      <trkpt lat="45.07433" lon="6.20243">
        <ele>2221.2</ele>
        <time>2024-08-10T07:10:25Z</time>
      </trkpt>
      <trkpt lat="45.07433" lon="6.20243">
        <ele>2221.2</ele>
        <time>2024-08-10T07:10:26Z</time>
      </trkpt>
      <trkpt lat="45.07431" lon="6.20244">
        <ele>2221.4</ele>
        <time>2024-08-10T07:10:27Z</time>
      </trkpt>
      <trkpt lat="45.07431" lon="6.20244">
        <ele>2221.4</ele>
        <time>2024-08-10T07:10:28Z</time>
      </trkpt>
      <trkpt lat="45.07431" lon="6.20244">
        <ele>2221.6</ele>
        <time>2024-08-10T07:10:29Z</time>
      </trkpt>
      <trkpt lat="45.07428" lon="6.20244">
        <ele>2221.8</ele>
        <time>2024-08-10T07:10:30Z</time>
      </trkpt>
      <trkpt lat="45.07428" lon="6.20244">
        <ele>2221.8</ele>
        <time>2024-08-10T07:10:31Z</time>
      </trkpt>
      <trkpt lat="45.07426" lon="6.20243">
        <ele>2222</ele>
        <time>2024-08-10T07:10:32Z</time>
      </trkpt>
      <trkpt lat="45.07426" lon="6.20243">
        <ele>2222.2</ele>
        <time>2024-08-10T07:10:33Z</time>
      </trkpt>
      <trkpt lat="45.07426" lon="6.20243">
        <ele>2222.4</ele>
        <time>2024-08-10T07:10:34Z</time>
      </trkpt>
      <trkpt lat="45.07423" lon="6.20243">
        <ele>2222.4</ele>
        <time>2024-08-10T07:10:35Z</time>
      </trkpt>
      <trkpt lat="45.07423" lon="6.20243">
        <ele>2222.6</ele>
        <time>2024-08-10T07:10:36Z</time>
      </trkpt>
      <trkpt lat="45.07421" lon="6.20243">
        <ele>2222.6</ele>
        <time>2024-08-10T07:10:37Z</time>
      </trkpt>
      <trkpt lat="45.07421" lon="6.20243">
        <ele>2222.6</ele>
        <time>2024-08-10T07:10:38Z</time>
      </trkpt>
      <trkpt lat="45.0742" lon="6.20243">
        <ele>2222.8</ele>
        <time>2024-08-10T07:10:39Z</time>
      </trkpt>
      <trkpt lat="45.0742" lon="6.20243">
        <ele>2223.2</ele>
        <time>2024-08-10T07:10:40Z</time>
      </trkpt>
      <trkpt lat="45.0742" lon="6.20243">
        <ele>2223.2</ele>
        <time>2024-08-10T07:10:41Z</time>
      </trkpt>
      <trkpt lat="45.07417" lon="6.20243">
        <ele>2223.2</ele>
        <time>2024-08-10T07:10:42Z</time>
      </trkpt>
      <trkpt lat="45.07417" lon="6.20243">
        <ele>2224</ele>
        <time>2024-08-10T07:10:43Z</time>
      </trkpt>
      <trkpt lat="45.07415" lon="6.20244">
        <ele>2224</ele>
        <time>2024-08-10T07:10:44Z</time>
      </trkpt>
      <trkpt lat="45.07415" lon="6.20244">
        <ele>2223.8</ele>
        <time>2024-08-10T07:10:45Z</time>
      </trkpt>
      <trkpt lat="45.07415" lon="6.20244">
        <ele>2223.8</ele>
        <time>2024-08-10T07:10:46Z</time>
      </trkpt>
      <trkpt lat="45.07413" lon="6.20245">
        <ele>2223.8</ele>
        <time>2024-08-10T07:10:47Z</time>
      </trkpt>
      <trkpt lat="45.07413" lon="6.20245">
        <ele>2224</ele>
        <time>2024-08-10T07:10:48Z</time>
      </trkpt>
      <trkpt lat="45.07413" lon="6.20245">
        <ele>2224.2</ele>
        <time>2024-08-10T07:10:49Z</time>
      </trkpt>
      <trkpt lat="45.0741" lon="6.20247">
        <ele>2224.4</ele>
        <time>2024-08-10T07:10:50Z</time>
      </trkpt>
      <trkpt lat="45.0741" lon="6.20247">
        <ele>2224.4</ele>
        <time>2024-08-10T07:10:51Z</time>
      </trkpt>
      <trkpt lat="45.07409" lon="6.20249">
        <ele>2224.4</ele>
        <time>2024-08-10T07:10:52Z</time>
      </trkpt>
      <trkpt lat="45.07409" lon="6.20249">
        <ele>2224.6</ele>
        <time>2024-08-10T07:10:53Z</time>
      </trkpt>
      <trkpt lat="45.07407" lon="6.2025">
        <ele>2224.6</ele>
        <time>2024-08-10T07:10:54Z</time>
      </trkpt>
      <trkpt lat="45.07407" lon="6.2025">
        <ele>2224.8</ele>
        <time>2024-08-10T07:10:55Z</time>
      </trkpt>
      <trkpt lat="45.07405" lon="6.20251">
        <ele>2224.8</ele>
        <time>2024-08-10T07:10:56Z</time>
      </trkpt>
      <trkpt lat="45.07405" lon="6.20251">
        <ele>2224.8</ele>
        <time>2024-08-10T07:10:57Z</time>
      </trkpt>
      <trkpt lat="45.07403" lon="6.20252">
        <ele>2225.2</ele>
        <time>2024-08-10T07:10:58Z</time>
      </trkpt>
      <trkpt lat="45.07403" lon="6.20252">
        <ele>2225.4</ele>
        <time>2024-08-10T07:10:59Z</time>
      </trkpt>
      <trkpt lat="45.07401" lon="6.20254">
        <ele>2225.6</ele>
        <time>2024-08-10T07:11:00Z</time>
      </trkpt>
      <trkpt lat="45.07401" lon="6.20254">
        <ele>2225.6</ele>
        <time>2024-08-10T07:11:01Z</time>
      </trkpt>
      <trkpt lat="45.07399" lon="6.20255">
        <ele>2225.6</ele>
        <time>2024-08-10T07:11:02Z</time>
      </trkpt>
      <trkpt lat="45.07399" lon="6.20255">
        <ele>2226</ele>
        <time>2024-08-10T07:11:03Z</time>
      </trkpt>
      <trkpt lat="45.07397" lon="6.20257">
        <ele>2226</ele>
        <time>2024-08-10T07:11:04Z</time>
      </trkpt>
      <trkpt lat="45.07397" lon="6.20257">
        <ele>2226</ele>
        <time>2024-08-10T07:11:05Z</time>
      </trkpt>
      <trkpt lat="45.07396" lon="6.20259">
        <ele>2226</ele>
        <time>2024-08-10T07:11:06Z</time>
      </trkpt>
      <trkpt lat="45.07396" lon="6.20259">
        <ele>2226.2</ele>
        <time>2024-08-10T07:11:07Z</time>
      </trkpt>
      <trkpt lat="45.07394" lon="6.2026">
        <ele>2226.2</ele>
        <time>2024-08-10T07:11:08Z</time>
      </trkpt>
      <trkpt lat="45.07394" lon="6.2026">
        <ele>2226.2</ele>
        <time>2024-08-10T07:11:09Z</time>
      </trkpt>
      <trkpt lat="45.07392" lon="6.20262">
        <ele>2226.4</ele>
        <time>2024-08-10T07:11:10Z</time>
      </trkpt>
      <trkpt lat="45.07392" lon="6.20262">
        <ele>2226.4</ele>
        <time>2024-08-10T07:11:11Z</time>
      </trkpt>
      <trkpt lat="45.07392" lon="6.20262">
        <ele>2226.6</ele>
        <time>2024-08-10T07:11:12Z</time>
      </trkpt>
      <trkpt lat="45.0739" lon="6.20263">
        <ele>2226.6</ele>
        <time>2024-08-10T07:11:13Z</time>
      </trkpt>
      <trkpt lat="45.0739" lon="6.20263">
        <ele>2226.6</ele>
        <time>2024-08-10T07:11:14Z</time>
      </trkpt>
      <trkpt lat="45.07389" lon="6.20265">
        <ele>2226.6</ele>
        <time>2024-08-10T07:11:15Z</time>
      </trkpt>
      <trkpt lat="45.07389" lon="6.20265">
        <ele>2226.8</ele>
        <time>2024-08-10T07:11:16Z</time>
      </trkpt>
      <trkpt lat="45.07387" lon="6.20267">
        <ele>2227.2</ele>
        <time>2024-08-10T07:11:17Z</time>
      </trkpt>
      <trkpt lat="45.07387" lon="6.20267">
        <ele>2227.2</ele>
        <time>2024-08-10T07:11:18Z</time>
      </trkpt>
      <trkpt lat="45.07385" lon="6.20269">
        <ele>2227.2</ele>
        <time>2024-08-10T07:11:19Z</time>
      </trkpt>
      <trkpt lat="45.07385" lon="6.20269">
        <ele>2227.2</ele>
        <time>2024-08-10T07:11:20Z</time>
      </trkpt>
      <trkpt lat="45.07384" lon="6.20271">
        <ele>2227.4</ele>
        <time>2024-08-10T07:11:21Z</time>
      </trkpt>
      <trkpt lat="45.07384" lon="6.20271">
        <ele>2227.4</ele>
        <time>2024-08-10T07:11:22Z</time>
      </trkpt>
      <trkpt lat="45.07384" lon="6.20271">
        <ele>2227.4</ele>
        <time>2024-08-10T07:11:23Z</time>
      </trkpt>
      <trkpt lat="45.07382" lon="6.20274">
        <ele>2227.8</ele>
        <time>2024-08-10T07:11:24Z</time>
      </trkpt>
      <trkpt lat="45.07382" lon="6.20274">
        <ele>2228</ele>
        <time>2024-08-10T07:11:25Z</time>
      </trkpt>
      <trkpt lat="45.07381" lon="6.20276">
        <ele>2228</ele>
        <time>2024-08-10T07:11:26Z</time>
      </trkpt>
      <trkpt lat="45.07381" lon="6.20276">
        <ele>2228.2</ele>
        <time>2024-08-10T07:11:27Z</time>
      </trkpt>
      <trkpt lat="45.0738" lon="6.20278">
        <ele>2228.2</ele>
        <time>2024-08-10T07:11:28Z</time>
      </trkpt>
      <trkpt lat="45.0738" lon="6.20278">
        <ele>2228.2</ele>
        <time>2024-08-10T07:11:29Z</time>
      </trkpt>
      <trkpt lat="45.0738" lon="6.20278">
        <ele>2228.4</ele>
        <time>2024-08-10T07:11:30Z</time>
      </trkpt>
      <trkpt lat="45.07378" lon="6.2028">
        <ele>2228.6</ele>
        <time>2024-08-10T07:11:31Z</time>
      </trkpt>
      <trkpt lat="45.07378" lon="6.2028">
        <ele>2228.8</ele>
        <time>2024-08-10T07:11:32Z</time>
      </trkpt>
      <trkpt lat="45.07376" lon="6.20282">
        <ele>2229</ele>
        <time>2024-08-10T07:11:33Z</time>
      </trkpt>
      <trkpt lat="45.07376" lon="6.20282">
        <ele>2229.4</ele>
        <time>2024-08-10T07:11:34Z</time>
      </trkpt>
      <trkpt lat="45.07374" lon="6.20284">
        <ele>2229.4</ele>
        <time>2024-08-10T07:11:35Z</time>
      </trkpt>
      <trkpt lat="45.07374" lon="6.20284">
        <ele>2229.6</ele>
        <time>2024-08-10T07:11:36Z</time>
      </trkpt>
      <trkpt lat="45.07374" lon="6.20284">
        <ele>2229.8</ele>
        <time>2024-08-10T07:11:37Z</time>
      </trkpt>
      <trkpt lat="45.07372" lon="6.20286">
        <ele>2230</ele>
        <time>2024-08-10T07:11:38Z</time>
      </trkpt>
      <trkpt lat="45.07372" lon="6.20286">
        <ele>2230</ele>
        <time>2024-08-10T07:11:39Z</time>
      </trkpt>
      <trkpt lat="45.07372" lon="6.20286">
        <ele>2230.2</ele>
        <time>2024-08-10T07:11:40Z</time>
      </trkpt>
      <trkpt lat="45.0737" lon="6.20289">
        <ele>2230.2</ele>
        <time>2024-08-10T07:11:41Z</time>
      </trkpt>
      <trkpt lat="45.0737" lon="6.20289">
        <ele>2230.8</ele>
        <time>2024-08-10T07:11:42Z</time>
      </trkpt>
      <trkpt lat="45.0737" lon="6.20289">
        <ele>2230.8</ele>
        <time>2024-08-10T07:11:43Z</time>
      </trkpt>
      <trkpt lat="45.07368" lon="6.20291">
        <ele>2231</ele>
        <time>2024-08-10T07:11:44Z</time>
      </trkpt>
      <trkpt lat="45.07368" lon="6.20291">
        <ele>2231.2</ele>
        <time>2024-08-10T07:11:45Z</time>
      </trkpt>
      <trkpt lat="45.07368" lon="6.20291">
        <ele>2231.4</ele>
        <time>2024-08-10T07:11:46Z</time>
      </trkpt>
      <trkpt lat="45.07367" lon="6.20294">
        <ele>2231.4</ele>
        <time>2024-08-10T07:11:47Z</time>
      </trkpt>
      <trkpt lat="45.07367" lon="6.20294">
        <ele>2231.6</ele>
        <time>2024-08-10T07:11:48Z</time>
      </trkpt>
      <trkpt lat="45.07365" lon="6.20295">
        <ele>2231.8</ele>
        <time>2024-08-10T07:11:49Z</time>
      </trkpt>
      <trkpt lat="45.07365" lon="6.20295">
        <ele>2232</ele>
        <time>2024-08-10T07:11:50Z</time>
      </trkpt>
      <trkpt lat="45.07365" lon="6.20295">
        <ele>2232.4</ele>
        <time>2024-08-10T07:11:51Z</time>
      </trkpt>
      <trkpt lat="45.07364" lon="6.20297">
        <ele>2232.4</ele>
        <time>2024-08-10T07:11:52Z</time>
      </trkpt>
      <trkpt lat="45.07364" lon="6.20297">
        <ele>2232.8</ele>
        <time>2024-08-10T07:11:53Z</time>
      </trkpt>
      <trkpt lat="45.07364" lon="6.20297">
        <ele>2232.8</ele>
        <time>2024-08-10T07:11:54Z</time>
      </trkpt>
      <trkpt lat="45.07362" lon="6.20299">
        <ele>2233</ele>
        <time>2024-08-10T07:11:55Z</time>
      </trkpt>
      <trkpt lat="45.07362" lon="6.20299">
        <ele>2233</ele>
        <time>2024-08-10T07:11:56Z</time>
      </trkpt>
      <trkpt lat="45.07362" lon="6.20299">
        <ele>2233.2</ele>
        <time>2024-08-10T07:11:57Z</time>
      </trkpt>
      <trkpt lat="45.07362" lon="6.20299">
        <ele>2233.4</ele>
        <time>2024-08-10T07:11:58Z</time>
      </trkpt>
      <trkpt lat="45.0736" lon="6.20301">
        <ele>2233.8</ele>
        <time>2024-08-10T07:11:59Z</time>
      </trkpt>
      <trkpt lat="45.0736" lon="6.20301">
        <ele>2233.8</ele>
        <time>2024-08-10T07:12:00Z</time>
      </trkpt>
      <trkpt lat="45.07358" lon="6.20303">
        <ele>2233.8</ele>
        <time>2024-08-10T07:12:01Z</time>
      </trkpt>
      <trkpt lat="45.07358" lon="6.20303">
        <ele>2234.2</ele>
        <time>2024-08-10T07:12:02Z</time>
      </trkpt>
      <trkpt lat="45.07358" lon="6.20303">
        <ele>2234.4</ele>
        <time>2024-08-10T07:12:03Z</time>
      </trkpt>
      <trkpt lat="45.07357" lon="6.20306">
        <ele>2234.4</ele>
        <time>2024-08-10T07:12:04Z</time>
      </trkpt>
      <trkpt lat="45.07357" lon="6.20306">
        <ele>2234.8</ele>
        <time>2024-08-10T07:12:05Z</time>
      </trkpt>
      <trkpt lat="45.07356" lon="6.20308">
        <ele>2235</ele>
        <time>2024-08-10T07:12:06Z</time>
      </trkpt>
      <trkpt lat="45.07356" lon="6.20308">
        <ele>2235.2</ele>
        <time>2024-08-10T07:12:07Z</time>
      </trkpt>
      <trkpt lat="45.07354" lon="6.20309">
        <ele>2235.6</ele>
        <time>2024-08-10T07:12:08Z</time>
      </trkpt>
      <trkpt lat="45.07354" lon="6.20309">
        <ele>2235.8</ele>
        <time>2024-08-10T07:12:09Z</time>
      </trkpt>
      <trkpt lat="45.07354" lon="6.20309">
        <ele>2235.8</ele>
        <time>2024-08-10T07:12:10Z</time>
      </trkpt>
      <trkpt lat="45.07353" lon="6.20311">
        <ele>2235.8</ele>
        <time>2024-08-10T07:12:11Z</time>
      </trkpt>
      <trkpt lat="45.07353" lon="6.20311">
        <ele>2236.2</ele>
        <time>2024-08-10T07:12:12Z</time>
      </trkpt>
      <trkpt lat="45.07353" lon="6.20311">
        <ele>2236.6</ele>
        <time>2024-08-10T07:12:13Z</time>
      </trkpt>
      <trkpt lat="45.07352" lon="6.20314">
        <ele>2236.8</ele>
        <time>2024-08-10T07:12:14Z</time>
      </trkpt>
      <trkpt lat="45.07352" lon="6.20314">
        <ele>2237.2</ele>
        <time>2024-08-10T07:12:15Z</time>
      </trkpt>
      <trkpt lat="45.07352" lon="6.20314">
        <ele>2237.2</ele>
        <time>2024-08-10T07:12:16Z</time>
      </trkpt>
      <trkpt lat="45.0735" lon="6.20318">
        <ele>2237.4</ele>
        <time>2024-08-10T07:12:17Z</time>
      </trkpt>
      <trkpt lat="45.0735" lon="6.20318">
        <ele>2237.4</ele>
        <time>2024-08-10T07:12:18Z</time>
      </trkpt>
      <trkpt lat="45.0735" lon="6.20318">
        <ele>2238.2</ele>
        <time>2024-08-10T07:12:19Z</time>
      </trkpt>
      <trkpt lat="45.07349" lon="6.2032">
        <ele>2238.2</ele>
        <time>2024-08-10T07:12:20Z</time>
      </trkpt>
      <trkpt lat="45.07349" lon="6.2032">
        <ele>2238.4</ele>
        <time>2024-08-10T07:12:21Z</time>
      </trkpt>
      <trkpt lat="45.07349" lon="6.2032">
        <ele>2238.6</ele>
        <time>2024-08-10T07:12:22Z</time>
      </trkpt>
      <trkpt lat="45.07347" lon="6.20323">
        <ele>2238.6</ele>
        <time>2024-08-10T07:12:23Z</time>
      </trkpt>
      <trkpt lat="45.07347" lon="6.20323">
        <ele>2239</ele>
        <time>2024-08-10T07:12:24Z</time>
      </trkpt>
      <trkpt lat="45.07347" lon="6.20323">
        <ele>2239.2</ele>
        <time>2024-08-10T07:12:25Z</time>
      </trkpt>
      <trkpt lat="45.07346" lon="6.20326">
        <ele>2239.2</ele>
        <time>2024-08-10T07:12:26Z</time>
      </trkpt>
      <trkpt lat="45.07346" lon="6.20326">
        <ele>2239.2</ele>
        <time>2024-08-10T07:12:27Z</time>
      </trkpt>
      <trkpt lat="45.07346" lon="6.20326">
        <ele>2239.6</ele>
        <time>2024-08-10T07:12:28Z</time>
      </trkpt>
      <trkpt lat="45.07344" lon="6.20329">
        <ele>2240</ele>
        <time>2024-08-10T07:12:29Z</time>
      </trkpt>
      <trkpt lat="45.07344" lon="6.20329">
        <ele>2240.2</ele>
        <time>2024-08-10T07:12:30Z</time>
      </trkpt>
      <trkpt lat="45.07344" lon="6.20329">
        <ele>2240.2</ele>
        <time>2024-08-10T07:12:31Z</time>
      </trkpt>
      <trkpt lat="45.07343" lon="6.20332">
        <ele>2240.6</ele>
        <time>2024-08-10T07:12:32Z</time>
      </trkpt>
      <trkpt lat="45.07343" lon="6.20332">
        <ele>2240.6</ele>
        <time>2024-08-10T07:12:33Z</time>
      </trkpt>
      <trkpt lat="45.07342" lon="6.20335">
        <ele>2241</ele>
        <time>2024-08-10T07:12:34Z</time>
      </trkpt>
      <trkpt lat="45.07342" lon="6.20335">
        <ele>2241</ele>
        <time>2024-08-10T07:12:35Z</time>
      </trkpt>
      <trkpt lat="45.07342" lon="6.20335">
        <ele>2241.2</ele>
        <time>2024-08-10T07:12:36Z</time>
      </trkpt>
      <trkpt lat="45.07341" lon="6.20339">
        <ele>2241.2</ele>
        <time>2024-08-10T07:12:37Z</time>
      </trkpt>
      <trkpt lat="45.07341" lon="6.20339">
        <ele>2241.4</ele>
        <time>2024-08-10T07:12:38Z</time>
      </trkpt>
      <trkpt lat="45.07341" lon="6.20341">
        <ele>2242</ele>
        <time>2024-08-10T07:12:39Z</time>
      </trkpt>
      <trkpt lat="45.07341" lon="6.20341">
        <ele>2242</ele>
        <time>2024-08-10T07:12:40Z</time>
      </trkpt>
      <trkpt lat="45.0734" lon="6.20344">
        <ele>2242</ele>
        <time>2024-08-10T07:12:41Z</time>
      </trkpt>
      <trkpt lat="45.0734" lon="6.20344">
        <ele>2242.2</ele>
        <time>2024-08-10T07:12:42Z</time>
      </trkpt>
      <trkpt lat="45.0734" lon="6.20347">
        <ele>2242.2</ele>
        <time>2024-08-10T07:12:43Z</time>
      </trkpt>
      <trkpt lat="45.0734" lon="6.20347">
        <ele>2242.4</ele>
        <time>2024-08-10T07:12:44Z</time>
      </trkpt>
      <trkpt lat="45.07339" lon="6.20349">
        <ele>2242.6</ele>
        <time>2024-08-10T07:12:45Z</time>
      </trkpt>
      <trkpt lat="45.07339" lon="6.20349">
        <ele>2242.6</ele>
        <time>2024-08-10T07:12:46Z</time>
      </trkpt>
      <trkpt lat="45.07338" lon="6.20352">
        <ele>2243.2</ele>
        <time>2024-08-10T07:12:47Z</time>
      </trkpt>
      <trkpt lat="45.07338" lon="6.20352">
        <ele>2243.4</ele>
        <time>2024-08-10T07:12:48Z</time>
      </trkpt>
      <trkpt lat="45.07338" lon="6.20352">
        <ele>2243.4</ele>
        <time>2024-08-10T07:12:49Z</time>
      </trkpt>
      <trkpt lat="45.07336" lon="6.20355">
        <ele>2243.4</ele>
        <time>2024-08-10T07:12:50Z</time>
      </trkpt>
      <trkpt lat="45.07336" lon="6.20355">
        <ele>2244</ele>
        <time>2024-08-10T07:12:51Z</time>
      </trkpt>
      <trkpt lat="45.07336" lon="6.20358">
        <ele>2244.4</ele>
        <time>2024-08-10T07:12:52Z</time>
      </trkpt>
      <trkpt lat="45.07336" lon="6.20358">
        <ele>2244.4</ele>
        <time>2024-08-10T07:12:53Z</time>
      </trkpt>
      <trkpt lat="45.07335" lon="6.20361">
        <ele>2244.4</ele>
        <time>2024-08-10T07:12:54Z</time>
      </trkpt>
      <trkpt lat="45.07335" lon="6.20361">
        <ele>2244.8</ele>
        <time>2024-08-10T07:12:55Z</time>
      </trkpt>
      <trkpt lat="45.07334" lon="6.20364">
        <ele>2244.8</ele>
        <time>2024-08-10T07:12:56Z</time>
      </trkpt>
      <trkpt lat="45.07334" lon="6.20364">
        <ele>2244.8</ele>
        <time>2024-08-10T07:12:57Z</time>
      </trkpt>
      <trkpt lat="45.07334" lon="6.20367">
        <ele>2244.8</ele>
        <time>2024-08-10T07:12:58Z</time>
      </trkpt>
      <trkpt lat="45.07334" lon="6.20367">
        <ele>2244.8</ele>
        <time>2024-08-10T07:12:59Z</time>
      </trkpt>
      <trkpt lat="45.07334" lon="6.2037">
        <ele>2245.2</ele>
        <time>2024-08-10T07:13:00Z</time>
      </trkpt>
      <trkpt lat="45.07334" lon="6.2037">
        <ele>2245.2</ele>
        <time>2024-08-10T07:13:01Z</time>
      </trkpt>
      <trkpt lat="45.07334" lon="6.20373">
        <ele>2245.2</ele>
        <time>2024-08-10T07:13:02Z</time>
      </trkpt>
      <trkpt lat="45.07334" lon="6.20373">
        <ele>2245.4</ele>
        <time>2024-08-10T07:13:03Z</time>
      </trkpt>
      <trkpt lat="45.07334" lon="6.20376">
        <ele>2245.4</ele>
        <time>2024-08-10T07:13:04Z</time>
      </trkpt>
      <trkpt lat="45.07334" lon="6.20376">
        <ele>2245.6</ele>
        <time>2024-08-10T07:13:05Z</time>
      </trkpt>
      <trkpt lat="45.07335" lon="6.2038">
        <ele>2245.8</ele>
        <time>2024-08-10T07:13:06Z</time>
      </trkpt>
      <trkpt lat="45.07335" lon="6.2038">
        <ele>2246</ele>
        <time>2024-08-10T07:13:07Z</time>
      </trkpt>
      <trkpt lat="45.07335" lon="6.20383">
        <ele>2246.2</ele>
        <time>2024-08-10T07:13:08Z</time>
      </trkpt>
      <trkpt lat="45.07335" lon="6.20383">
        <ele>2246.2</ele>
        <time>2024-08-10T07:13:09Z</time>
      </trkpt>
      <trkpt lat="45.07335" lon="6.20387">
        <ele>2246.2</ele>
        <time>2024-08-10T07:13:10Z</time>
      </trkpt>
      <trkpt lat="45.07335" lon="6.20387">
        <ele>2246.4</ele>
        <time>2024-08-10T07:13:11Z</time>
      </trkpt>
      <trkpt lat="45.07336" lon="6.2039">
        <ele>2246.4</ele>
        <time>2024-08-10T07:13:12Z</time>
      </trkpt>
      <trkpt lat="45.07336" lon="6.2039">
        <ele>2246.4</ele>
        <time>2024-08-10T07:13:13Z</time>
      </trkpt>
      <trkpt lat="45.07336" lon="6.20393">
        <ele>2246.6</ele>
        <time>2024-08-10T07:13:14Z</time>
      </trkpt>
      <trkpt lat="45.07336" lon="6.20393">
        <ele>2246.6</ele>
        <time>2024-08-10T07:13:15Z</time>
      </trkpt>
      <trkpt lat="45.07336" lon="6.20396">
        <ele>2246.8</ele>
        <time>2024-08-10T07:13:16Z</time>
      </trkpt>
      <trkpt lat="45.07336" lon="6.20396">
        <ele>2246.8</ele>
        <time>2024-08-10T07:13:17Z</time>
      </trkpt>
      <trkpt lat="45.07336" lon="6.204">
        <ele>2246.8</ele>
        <time>2024-08-10T07:13:18Z</time>
      </trkpt>
      <trkpt lat="45.07336" lon="6.204">
        <ele>2247.2</ele>
        <time>2024-08-10T07:13:19Z</time>
      </trkpt>
      <trkpt lat="45.07337" lon="6.20403">
        <ele>2247.2</ele>
        <time>2024-08-10T07:13:20Z</time>
      </trkpt>
      <trkpt lat="45.07337" lon="6.20403">
        <ele>2247.4</ele>
        <time>2024-08-10T07:13:21Z</time>
      </trkpt>
      <trkpt lat="45.07338" lon="6.20406">
        <ele>2247.6</ele>
        <time>2024-08-10T07:13:22Z</time>
      </trkpt>
      <trkpt lat="45.07338" lon="6.20406">
        <ele>2248</ele>
        <time>2024-08-10T07:13:23Z</time>
      </trkpt>
      <trkpt lat="45.07338" lon="6.20409">
        <ele>2248.2</ele>
        <time>2024-08-10T07:13:24Z</time>
      </trkpt>
      <trkpt lat="45.07338" lon="6.20409">
        <ele>2248.2</ele>
        <time>2024-08-10T07:13:25Z</time>
      </trkpt>
      <trkpt lat="45.07339" lon="6.20412">
        <ele>2248.2</ele>
        <time>2024-08-10T07:13:26Z</time>
      </trkpt>
      <trkpt lat="45.07339" lon="6.20412">
        <ele>2248.6</ele>
        <time>2024-08-10T07:13:27Z</time>
      </trkpt>
      <trkpt lat="45.0734" lon="6.20415">
        <ele>2248.6</ele>
        <time>2024-08-10T07:13:28Z</time>
      </trkpt>
      <trkpt lat="45.0734" lon="6.20415">
        <ele>2249</ele>
        <time>2024-08-10T07:13:29Z</time>
      </trkpt>
      <trkpt lat="45.07341" lon="6.20418">
        <ele>2249.4</ele>
        <time>2024-08-10T07:13:30Z</time>
      </trkpt>
      <trkpt lat="45.07341" lon="6.20418">
        <ele>2249.6</ele>
        <time>2024-08-10T07:13:31Z</time>
      </trkpt>
      <trkpt lat="45.07342" lon="6.20422">
        <ele>2249.6</ele>
        <time>2024-08-10T07:13:32Z</time>
      </trkpt>
      <trkpt lat="45.07342" lon="6.20422">
        <ele>2249.6</ele>
        <time>2024-08-10T07:13:33Z</time>
      </trkpt>
      <trkpt lat="45.07343" lon="6.20425">
        <ele>2249.8</ele>
        <time>2024-08-10T07:13:34Z</time>
      </trkpt>
      <trkpt lat="45.07343" lon="6.20425">
        <ele>2249.8</ele>
        <time>2024-08-10T07:13:35Z</time>
      </trkpt>
      <trkpt lat="45.07344" lon="6.20428">
        <ele>2250</ele>
        <time>2024-08-10T07:13:36Z</time>
      </trkpt>
      <trkpt lat="45.07344" lon="6.20428">
        <ele>2250</ele>
        <time>2024-08-10T07:13:37Z</time>
      </trkpt>
      <trkpt lat="45.07344" lon="6.20431">
        <ele>2250.6</ele>
        <time>2024-08-10T07:13:38Z</time>
      </trkpt>
      <trkpt lat="45.07344" lon="6.20431">
        <ele>2250.6</ele>
        <time>2024-08-10T07:13:39Z</time>
      </trkpt>
      <trkpt lat="45.07344" lon="6.20435">
        <ele>2250.6</ele>
        <time>2024-08-10T07:13:40Z</time>
      </trkpt>
      <trkpt lat="45.07344" lon="6.20435">
        <ele>2250.6</ele>
        <time>2024-08-10T07:13:41Z</time>
      </trkpt>
      <trkpt lat="45.07345" lon="6.20438">
        <ele>2250.8</ele>
        <time>2024-08-10T07:13:42Z</time>
      </trkpt>
      <trkpt lat="45.07345" lon="6.20438">
        <ele>2250.8</ele>
        <time>2024-08-10T07:13:43Z</time>
      </trkpt>
      <trkpt lat="45.07346" lon="6.20441">
        <ele>2250.8</ele>
        <time>2024-08-10T07:13:44Z</time>
      </trkpt>
      <trkpt lat="45.07346" lon="6.20441">
        <ele>2250.8</ele>
        <time>2024-08-10T07:13:45Z</time>
      </trkpt>
      <trkpt lat="45.07346" lon="6.20445">
        <ele>2251.2</ele>
        <time>2024-08-10T07:13:46Z</time>
      </trkpt>
      <trkpt lat="45.07346" lon="6.20445">
        <ele>2251.4</ele>
        <time>2024-08-10T07:13:47Z</time>
      </trkpt>
      <trkpt lat="45.07347" lon="6.20448">
        <ele>2251.6</ele>
        <time>2024-08-10T07:13:48Z</time>
      </trkpt>
      <trkpt lat="45.07347" lon="6.20448">
        <ele>2251.6</ele>
        <time>2024-08-10T07:13:49Z</time>
      </trkpt>
      <trkpt lat="45.07348" lon="6.20451">
        <ele>2251.8</ele>
        <time>2024-08-10T07:13:50Z</time>
      </trkpt>
      <trkpt lat="45.07348" lon="6.20451">
        <ele>2251.8</ele>
        <time>2024-08-10T07:13:51Z</time>
      </trkpt>
      <trkpt lat="45.07349" lon="6.20454">
        <ele>2252.2</ele>
        <time>2024-08-10T07:13:52Z</time>
      </trkpt>
      <trkpt lat="45.07349" lon="6.20454">
        <ele>2252.2</ele>
        <time>2024-08-10T07:13:53Z</time>
      </trkpt>
      <trkpt lat="45.0735" lon="6.20457">
        <ele>2252.4</ele>
        <time>2024-08-10T07:13:54Z</time>
      </trkpt>
      <trkpt lat="45.0735" lon="6.20457">
        <ele>2252.4</ele>
        <time>2024-08-10T07:13:55Z</time>
      </trkpt>
      <trkpt lat="45.07351" lon="6.2046">
        <ele>2252.4</ele>
        <time>2024-08-10T07:13:56Z</time>
      </trkpt>
      <trkpt lat="45.07351" lon="6.2046">
        <ele>2252.6</ele>
        <time>2024-08-10T07:13:57Z</time>
      </trkpt>
      <trkpt lat="45.07352" lon="6.20463">
        <ele>2252.6</ele>
        <time>2024-08-10T07:13:58Z</time>
      </trkpt>
      <trkpt lat="45.07352" lon="6.20463">
        <ele>2252.8</ele>
        <time>2024-08-10T07:13:59Z</time>
      </trkpt>
      <trkpt lat="45.07352" lon="6.20467">
        <ele>2253.2</ele>
        <time>2024-08-10T07:14:00Z</time>
      </trkpt>
      <trkpt lat="45.07352" lon="6.20467">
        <ele>2253.4</ele>
        <time>2024-08-10T07:14:01Z</time>
      </trkpt>
      <trkpt lat="45.07353" lon="6.2047">
        <ele>2253.4</ele>
        <time>2024-08-10T07:14:02Z</time>
      </trkpt>
      <trkpt lat="45.07353" lon="6.2047">
        <ele>2253.6</ele>
        <time>2024-08-10T07:14:03Z</time>
      </trkpt>
      <trkpt lat="45.07353" lon="6.20474">
        <ele>2253.6</ele>
        <time>2024-08-10T07:14:04Z</time>
      </trkpt>
      <trkpt lat="45.07353" lon="6.20474">
        <ele>2253.8</ele>
        <time>2024-08-10T07:14:05Z</time>
      </trkpt>
      <trkpt lat="45.07354" lon="6.20477">
        <ele>2253.8</ele>
        <time>2024-08-10T07:14:06Z</time>
      </trkpt>
      <trkpt lat="45.07354" lon="6.20477">
        <ele>2254</ele>
        <time>2024-08-10T07:14:07Z</time>
      </trkpt>
      <trkpt lat="45.07354" lon="6.20481">
        <ele>2254.2</ele>
        <time>2024-08-10T07:14:08Z</time>
      </trkpt>
      <trkpt lat="45.07354" lon="6.20481">
        <ele>2254.2</ele>
        <time>2024-08-10T07:14:09Z</time>
      </trkpt>
      <trkpt lat="45.07354" lon="6.20484">
        <ele>2254.4</ele>
        <time>2024-08-10T07:14:10Z</time>
      </trkpt>
      <trkpt lat="45.07354" lon="6.20484">
        <ele>2254.4</ele>
        <time>2024-08-10T07:14:11Z</time>
      </trkpt>
      <trkpt lat="45.07356" lon="6.20487">
        <ele>2254.8</ele>
        <time>2024-08-10T07:14:12Z</time>
      </trkpt>
      <trkpt lat="45.07356" lon="6.20487">
        <ele>2255</ele>
        <time>2024-08-10T07:14:13Z</time>
      </trkpt>
      <trkpt lat="45.07357" lon="6.2049">
        <ele>2255.2</ele>
        <time>2024-08-10T07:14:14Z</time>
      </trkpt>
      <trkpt lat="45.07357" lon="6.2049">
        <ele>2255.4</ele>
        <time>2024-08-10T07:14:15Z</time>
      </trkpt>
      <trkpt lat="45.07357" lon="6.20493">
        <ele>2255.4</ele>
        <time>2024-08-10T07:14:16Z</time>
      </trkpt>
      <trkpt lat="45.07357" lon="6.20493">
        <ele>2255.2</ele>
        <time>2024-08-10T07:14:17Z</time>
      </trkpt>
      <trkpt lat="45.07358" lon="6.20496">
        <ele>2255.2</ele>
        <time>2024-08-10T07:14:18Z</time>
      </trkpt>
      <trkpt lat="45.07358" lon="6.20496">
        <ele>2255.2</ele>
        <time>2024-08-10T07:14:19Z</time>
      </trkpt>
      <trkpt lat="45.07358" lon="6.20496">
        <ele>2255.6</ele>
        <time>2024-08-10T07:14:20Z</time>
      </trkpt>
      <trkpt lat="45.07358" lon="6.20496">
        <ele>2256</ele>
        <time>2024-08-10T07:14:21Z</time>
      </trkpt>
      <trkpt lat="45.07358" lon="6.20496">
        <ele>2256</ele>
        <time>2024-08-10T07:14:22Z</time>
      </trkpt>
      <trkpt lat="45.07358" lon="6.20496">
        <ele>2256.2</ele>
        <time>2024-08-10T07:14:23Z</time>
      </trkpt>
      <trkpt lat="45.07358" lon="6.20496">
        <ele>2256.6</ele>
        <time>2024-08-10T07:14:24Z</time>
      </trkpt>
      <trkpt lat="45.07358" lon="6.20496">
        <ele>2256.6</ele>
        <time>2024-08-10T07:14:25Z</time>
      </trkpt>
      <trkpt lat="45.07358" lon="6.20496">
        <ele>2256.6</ele>
        <time>2024-08-10T07:14:26Z</time>
      </trkpt>
      <trkpt lat="45.07358" lon="6.205">
        <ele>2256.8</ele>
        <time>2024-08-10T07:14:27Z</time>
      </trkpt>
      <trkpt lat="45.07358" lon="6.205">
        <ele>2257</ele>
        <time>2024-08-10T07:14:28Z</time>
      </trkpt>
      <trkpt lat="45.0736" lon="6.20503">
        <ele>2257.4</ele>
        <time>2024-08-10T07:14:29Z</time>
      </trkpt>
      <trkpt lat="45.07361" lon="6.20505">
        <ele>2257.4</ele>
        <time>2024-08-10T07:14:30Z</time>
      </trkpt>
      <trkpt lat="45.07361" lon="6.20505">
        <ele>2257.6</ele>
        <time>2024-08-10T07:14:31Z</time>
      </trkpt>
      <trkpt lat="45.07362" lon="6.20508">
        <ele>2257.8</ele>
        <time>2024-08-10T07:14:32Z</time>
      </trkpt>
      <trkpt lat="45.07362" lon="6.20508">
        <ele>2258.2</ele>
        <time>2024-08-10T07:14:33Z</time>
      </trkpt>
      <trkpt lat="45.07364" lon="6.2051">
        <ele>2258.2</ele>
        <time>2024-08-10T07:14:34Z</time>
      </trkpt>
      <trkpt lat="45.07364" lon="6.2051">
        <ele>2258.2</ele>
        <time>2024-08-10T07:14:35Z</time>
      </trkpt>
      <trkpt lat="45.07365" lon="6.20512">
        <ele>2258</ele>
        <time>2024-08-10T07:14:36Z</time>
      </trkpt>
      <trkpt lat="45.07365" lon="6.20512">
        <ele>2258</ele>
        <time>2024-08-10T07:14:37Z</time>
      </trkpt>
      <trkpt lat="45.07367" lon="6.20514">
        <ele>2258.4</ele>
        <time>2024-08-10T07:14:38Z</time>
      </trkpt>
      <trkpt lat="45.07367" lon="6.20514">
        <ele>2258.4</ele>
        <time>2024-08-10T07:14:39Z</time>
      </trkpt>
      <trkpt lat="45.07366" lon="6.20516">
        <ele>2258.4</ele>
        <time>2024-08-10T07:14:40Z</time>
      </trkpt>
      <trkpt lat="45.07366" lon="6.20516">
        <ele>2258.4</ele>
        <time>2024-08-10T07:14:41Z</time>
      </trkpt>
      <trkpt lat="45.07364" lon="6.20517">
        <ele>2258.4</ele>
        <time>2024-08-10T07:14:42Z</time>
      </trkpt>
      <trkpt lat="45.07364" lon="6.20517">
        <ele>2258.6</ele>
        <time>2024-08-10T07:14:43Z</time>
      </trkpt>
      <trkpt lat="45.07361" lon="6.20517">
        <ele>2258.6</ele>
        <time>2024-08-10T07:14:44Z</time>
      </trkpt>
      <trkpt lat="45.07361" lon="6.20517">
        <ele>2258.4</ele>
        <time>2024-08-10T07:14:45Z</time>
      </trkpt>
      <trkpt lat="45.07359" lon="6.20517">
        <ele>2258.2</ele>
        <time>2024-08-10T07:14:46Z</time>
      </trkpt>
      <trkpt lat="45.07359" lon="6.20517">
        <ele>2258.2</ele>
        <time>2024-08-10T07:14:47Z</time>
      </trkpt>
      <trkpt lat="45.07357" lon="6.20519">
        <ele>2258.4</ele>
        <time>2024-08-10T07:14:48Z</time>
      </trkpt>
      <trkpt lat="45.07357" lon="6.20519">
        <ele>2258.6</ele>
        <time>2024-08-10T07:14:49Z</time>
      </trkpt>
      <trkpt lat="45.07356" lon="6.2052">
        <ele>2259</ele>
        <time>2024-08-10T07:14:50Z</time>
      </trkpt>
      <trkpt lat="45.07356" lon="6.2052">
        <ele>2259</ele>
        <time>2024-08-10T07:14:51Z</time>
      </trkpt>
      <trkpt lat="45.07354" lon="6.20521">
        <ele>2259.4</ele>
        <time>2024-08-10T07:14:52Z</time>
      </trkpt>
      <trkpt lat="45.07354" lon="6.20521">
        <ele>2259.6</ele>
        <time>2024-08-10T07:14:53Z</time>
      </trkpt>
      <trkpt lat="45.07352" lon="6.20523">
        <ele>2260</ele>
        <time>2024-08-10T07:14:54Z</time>
      </trkpt>
      <trkpt lat="45.07352" lon="6.20523">
        <ele>2260</ele>
        <time>2024-08-10T07:14:55Z</time>
      </trkpt>
      <trkpt lat="45.07352" lon="6.20523">
        <ele>2260.2</ele>
        <time>2024-08-10T07:14:56Z</time>
      </trkpt>
      <trkpt lat="45.07351" lon="6.20525">
        <ele>2260.2</ele>
        <time>2024-08-10T07:14:57Z</time>
      </trkpt>
      <trkpt lat="45.07351" lon="6.20525">
        <ele>2260.4</ele>
        <time>2024-08-10T07:14:58Z</time>
      </trkpt>
      <trkpt lat="45.07351" lon="6.20525">
        <ele>2260.8</ele>
        <time>2024-08-10T07:14:59Z</time>
      </trkpt>
      <trkpt lat="45.07351" lon="6.20525">
        <ele>2261</ele>
        <time>2024-08-10T07:15:00Z</time>
      </trkpt>
      <trkpt lat="45.07351" lon="6.20525">
        <ele>2261</ele>
        <time>2024-08-10T07:15:01Z</time>
      </trkpt>
      <trkpt lat="45.07351" lon="6.20525">
        <ele>2261</ele>
        <time>2024-08-10T07:15:02Z</time>
      </trkpt>
      <trkpt lat="45.07351" lon="6.20525">
        <ele>2261.2</ele>
        <time>2024-08-10T07:15:03Z</time>
      </trkpt>
      <trkpt lat="45.07351" lon="6.20525">
        <ele>2261.2</ele>
        <time>2024-08-10T07:15:04Z</time>
      </trkpt>
      <trkpt lat="45.07351" lon="6.20525">
        <ele>2261.2</ele>
        <time>2024-08-10T07:15:05Z</time>
      </trkpt>
      <trkpt lat="45.07351" lon="6.20525">
        <ele>2261.2</ele>
        <time>2024-08-10T07:15:06Z</time>
      </trkpt>
      <trkpt lat="45.07351" lon="6.20525">
        <ele>2261.2</ele>
        <time>2024-08-10T07:15:07Z</time>
      </trkpt>
      <trkpt lat="45.07351" lon="6.20525">
        <ele>2261.2</ele>
        <time>2024-08-10T07:15:08Z</time>
      </trkpt>
      <trkpt lat="45.07351" lon="6.20525">
        <ele>2261</ele>
        <time>2024-08-10T07:15:09Z</time>
      </trkpt>
      <trkpt lat="45.07351" lon="6.20525">
        <ele>2261</ele>
        <time>2024-08-10T07:15:10Z</time>
      </trkpt>
      <trkpt lat="45.07351" lon="6.20525">
        <ele>2261</ele>
        <time>2024-08-10T07:15:11Z</time>
      </trkpt>
      <trkpt lat="45.0735" lon="6.20528">
        <ele>2261</ele>
        <time>2024-08-10T07:15:12Z</time>
      </trkpt>
      <trkpt lat="45.0735" lon="6.20528">
        <ele>2261</ele>
        <time>2024-08-10T07:15:13Z</time>
      </trkpt>
      <trkpt lat="45.0735" lon="6.20531">
        <ele>2261</ele>
        <time>2024-08-10T07:15:14Z</time>
      </trkpt>
      <trkpt lat="45.0735" lon="6.20531">
        <ele>2261.2</ele>
        <time>2024-08-10T07:15:15Z</time>
      </trkpt>
      <trkpt lat="45.07348" lon="6.20535">
        <ele>2261.2</ele>
        <time>2024-08-10T07:15:16Z</time>
      </trkpt>
      <trkpt lat="45.07348" lon="6.20535">
        <ele>2261</ele>
        <time>2024-08-10T07:15:17Z</time>
      </trkpt>
      <trkpt lat="45.07347" lon="6.2054">
        <ele>2260.8</ele>
        <time>2024-08-10T07:15:18Z</time>
      </trkpt>
      <trkpt lat="45.07347" lon="6.2054">
        <ele>2260.4</ele>
        <time>2024-08-10T07:15:19Z</time>
      </trkpt>
      <trkpt lat="45.07345" lon="6.20542">
        <ele>2260.2</ele>
        <time>2024-08-10T07:15:20Z</time>
      </trkpt>
      <trkpt lat="45.07345" lon="6.20542">
        <ele>2260</ele>
        <time>2024-08-10T07:15:21Z</time>
      </trkpt>
      <trkpt lat="45.07343" lon="6.20543">
        <ele>2260</ele>
        <time>2024-08-10T07:15:22Z</time>
      </trkpt>
      <trkpt lat="45.07343" lon="6.20543">
        <ele>2260</ele>
        <time>2024-08-10T07:15:23Z</time>
      </trkpt>
      <trkpt lat="45.07341" lon="6.20544">
        <ele>2260</ele>
        <time>2024-08-10T07:15:24Z</time>
      </trkpt>
      <trkpt lat="45.07341" lon="6.20544">
        <ele>2260</ele>
        <time>2024-08-10T07:15:25Z</time>
      </trkpt>
      <trkpt lat="45.07338" lon="6.20545">
        <ele>2259.6</ele>
        <time>2024-08-10T07:15:26Z</time>
      </trkpt>
      <trkpt lat="45.07338" lon="6.20545">
        <ele>2259.6</ele>
        <time>2024-08-10T07:15:27Z</time>
      </trkpt>
      <trkpt lat="45.07336" lon="6.20545">
        <ele>2259.6</ele>
        <time>2024-08-10T07:15:28Z</time>
      </trkpt>
      <trkpt lat="45.07336" lon="6.20545">
        <ele>2259.6</ele>
        <time>2024-08-10T07:15:29Z</time>
      </trkpt>
      <trkpt lat="45.07333" lon="6.20545">
        <ele>2259.6</ele>
        <time>2024-08-10T07:15:30Z</time>
      </trkpt>
      <trkpt lat="45.07333" lon="6.20545">
        <ele>2259.4</ele>
        <time>2024-08-10T07:15:31Z</time>
      </trkpt>
      <trkpt lat="45.07332" lon="6.20545">
        <ele>2259.6</ele>
        <time>2024-08-10T07:15:32Z</time>
      </trkpt>
      <trkpt lat="45.07332" lon="6.20545">
        <ele>2259.8</ele>
        <time>2024-08-10T07:15:33Z</time>
      </trkpt>
      <trkpt lat="45.0733" lon="6.20546">
        <ele>2260</ele>
        <time>2024-08-10T07:15:34Z</time>
      </trkpt>
      <trkpt lat="45.0733" lon="6.20546">
        <ele>2260</ele>
        <time>2024-08-10T07:15:35Z</time>
      </trkpt>
      <trkpt lat="45.07327" lon="6.20547">
        <ele>2259.8</ele>
        <time>2024-08-10T07:15:36Z</time>
      </trkpt>
      <trkpt lat="45.07327" lon="6.20547">
        <ele>2259.6</ele>
        <time>2024-08-10T07:15:37Z</time>
      </trkpt>
      <trkpt lat="45.07325" lon="6.20548">
        <ele>2259.6</ele>
        <time>2024-08-10T07:15:38Z</time>
      </trkpt>
      <trkpt lat="45.07325" lon="6.20548">
        <ele>2259.4</ele>
        <time>2024-08-10T07:15:39Z</time>
      </trkpt>
      <trkpt lat="45.07322" lon="6.20549">
        <ele>2259.4</ele>
        <time>2024-08-10T07:15:40Z</time>
      </trkpt>
      <trkpt lat="45.07322" lon="6.20549">
        <ele>2259.8</ele>
        <time>2024-08-10T07:15:41Z</time>
      </trkpt>
      <trkpt lat="45.0732" lon="6.2055">
        <ele>2260.2</ele>
        <time>2024-08-10T07:15:42Z</time>
      </trkpt>
      <trkpt lat="45.0732" lon="6.2055">
        <ele>2260.2</ele>
        <time>2024-08-10T07:15:43Z</time>
      </trkpt>
      <trkpt lat="45.07318" lon="6.20551">
        <ele>2260.2</ele>
        <time>2024-08-10T07:15:44Z</time>
      </trkpt>
      <trkpt lat="45.07318" lon="6.20551">
        <ele>2260.6</ele>
        <time>2024-08-10T07:15:45Z</time>
      </trkpt>
      <trkpt lat="45.07316" lon="6.20552">
        <ele>2260.6</ele>
        <time>2024-08-10T07:15:46Z</time>
      </trkpt>
      <trkpt lat="45.07316" lon="6.20552">
        <ele>2260.6</ele>
        <time>2024-08-10T07:15:47Z</time>
      </trkpt>
      <trkpt lat="45.07316" lon="6.20552">
        <ele>2260.4</ele>
        <time>2024-08-10T07:15:48Z</time>
      </trkpt>
      <trkpt lat="45.07316" lon="6.20552">
        <ele>2260.2</ele>
        <time>2024-08-10T07:15:49Z</time>
      </trkpt>
      <trkpt lat="45.07316" lon="6.20552">
        <ele>2260.2</ele>
        <time>2024-08-10T07:15:50Z</time>
      </trkpt>
      <trkpt lat="45.07316" lon="6.20552">
        <ele>2260.2</ele>
        <time>2024-08-10T07:15:51Z</time>
      </trkpt>
      <trkpt lat="45.07316" lon="6.20552">
        <ele>2260.6</ele>
        <time>2024-08-10T07:15:52Z</time>
      </trkpt>
      <trkpt lat="45.07316" lon="6.20552">
        <ele>2260.6</ele>
        <time>2024-08-10T07:15:53Z</time>
      </trkpt>
      <trkpt lat="45.07316" lon="6.20552">
        <ele>2260.6</ele>
        <time>2024-08-10T07:15:54Z</time>
      </trkpt>
      <trkpt lat="45.07316" lon="6.20552">
        <ele>2260.6</ele>
        <time>2024-08-10T07:15:55Z</time>
      </trkpt>
      <trkpt lat="45.07316" lon="6.20552">
        <ele>2260.4</ele>
        <time>2024-08-10T07:15:56Z</time>
      </trkpt>
      <trkpt lat="45.07316" lon="6.20552">
        <ele>2260.4</ele>
        <time>2024-08-10T07:15:57Z</time>
      </trkpt>
      <trkpt lat="45.07316" lon="6.20552">
        <ele>2260.4</ele>
        <time>2024-08-10T07:15:58Z</time>
      </trkpt>
      <trkpt lat="45.07316" lon="6.20552">
        <ele>2260.4</ele>
        <time>2024-08-10T07:15:59Z</time>
      </trkpt>
      <trkpt lat="45.07316" lon="6.20552">
        <ele>2260.4</ele>
        <time>2024-08-10T07:16:00Z</time>
      </trkpt>
      <trkpt lat="45.07316" lon="6.20552">
        <ele>2260.4</ele>
        <time>2024-08-10T07:16:01Z</time>
      </trkpt>
      <trkpt lat="45.07316" lon="6.20552">
        <ele>2260.4</ele>
        <time>2024-08-10T07:16:02Z</time>
      </trkpt>
      <trkpt lat="45.07316" lon="6.20552">
        <ele>2260.8</ele>
        <time>2024-08-10T07:16:03Z</time>
      </trkpt>
      <trkpt lat="45.07316" lon="6.20552">
        <ele>2260.8</ele>
        <time>2024-08-10T07:16:04Z</time>
      </trkpt>
      <trkpt lat="45.07316" lon="6.20552">
        <ele>2261.2</ele>
        <time>2024-08-10T07:16:05Z</time>
      </trkpt>
      <trkpt lat="45.07316" lon="6.20552">
        <ele>2261.2</ele>
        <time>2024-08-10T07:16:06Z</time>
      </trkpt>
      <trkpt lat="45.07316" lon="6.20552">
        <ele>2261.4</ele>
        <time>2024-08-10T07:16:07Z</time>
      </trkpt>
      <trkpt lat="45.07316" lon="6.20552">
        <ele>2261.4</ele>
        <time>2024-08-10T07:16:08Z</time>
      </trkpt>
      <trkpt lat="45.07316" lon="6.20552">
        <ele>2261.4</ele>
        <time>2024-08-10T07:16:09Z</time>
      </trkpt>
      <trkpt lat="45.07316" lon="6.20552">
        <ele>2261.2</ele>
        <time>2024-08-10T07:16:10Z</time>
      </trkpt>
      <trkpt lat="45.07316" lon="6.20552">
        <ele>2261.2</ele>
        <time>2024-08-10T07:16:11Z</time>
      </trkpt>
      <trkpt lat="45.07316" lon="6.20552">
        <ele>2261.4</ele>
        <time>2024-08-10T07:16:12Z</time>
      </trkpt>
      <trkpt lat="45.07316" lon="6.20552">
        <ele>2261.6</ele>
        <time>2024-08-10T07:16:13Z</time>
      </trkpt>
      <trkpt lat="45.07316" lon="6.20552">
        <ele>2261.6</ele>
        <time>2024-08-10T07:16:14Z</time>
      </trkpt>
      <trkpt lat="45.07316" lon="6.20552">
        <ele>2261.4</ele>
        <time>2024-08-10T07:16:15Z</time>
      </trkpt>
      <trkpt lat="45.07316" lon="6.20552">
        <ele>2261.4</ele>
        <time>2024-08-10T07:16:16Z</time>
      </trkpt>
      <trkpt lat="45.07316" lon="6.20552">
        <ele>2261.6</ele>
        <time>2024-08-10T07:16:17Z</time>
      </trkpt>
      <trkpt lat="45.07316" lon="6.20552">
        <ele>2261.8</ele>
        <time>2024-08-10T07:16:18Z</time>
      </trkpt>
      <trkpt lat="45.07316" lon="6.20552">
        <ele>2262</ele>
        <time>2024-08-10T07:16:19Z</time>
      </trkpt>
      <trkpt lat="45.07316" lon="6.20552">
        <ele>2262</ele>
        <time>2024-08-10T07:16:20Z</time>
      </trkpt>
      <trkpt lat="45.07316" lon="6.20552">
        <ele>2261.6</ele>
        <time>2024-08-10T07:16:21Z</time>
      </trkpt>
      <trkpt lat="45.07316" lon="6.20552">
        <ele>2261.6</ele>
        <time>2024-08-10T07:16:22Z</time>
      </trkpt>
      <trkpt lat="45.07316" lon="6.20552">
        <ele>2261.6</ele>
        <time>2024-08-10T07:16:23Z</time>
      </trkpt>
      <trkpt lat="45.07316" lon="6.20552">
        <ele>2261.4</ele>
        <time>2024-08-10T07:16:24Z</time>
      </trkpt>
      <trkpt lat="45.07316" lon="6.20552">
        <ele>2261.2</ele>
        <time>2024-08-10T07:16:25Z</time>
      </trkpt>
      <trkpt lat="45.07316" lon="6.20552">
        <ele>2261.2</ele>
        <time>2024-08-10T07:16:26Z</time>
      </trkpt>
      <trkpt lat="45.07316" lon="6.20552">
        <ele>2261.4</ele>
        <time>2024-08-10T07:16:27Z</time>
      </trkpt>
      <trkpt lat="45.07316" lon="6.20552">
        <ele>2261.8</ele>
        <time>2024-08-10T07:16:28Z</time>
      </trkpt>
      <trkpt lat="45.07316" lon="6.20552">
        <ele>2261.8</ele>
        <time>2024-08-10T07:16:29Z</time>
      </trkpt>
      <trkpt lat="45.07316" lon="6.20552">
        <ele>2261.8</ele>
        <time>2024-08-10T07:16:30Z</time>
      </trkpt>
      <trkpt lat="45.07316" lon="6.20552">
        <ele>2261.8</ele>
        <time>2024-08-10T07:16:31Z</time>
      </trkpt>
      <trkpt lat="45.07316" lon="6.20552">
        <ele>2261.6</ele>
        <time>2024-08-10T07:16:32Z</time>
      </trkpt>
      <trkpt lat="45.07316" lon="6.20552">
        <ele>2261.4</ele>
        <time>2024-08-10T07:16:33Z</time>
      </trkpt>
      <trkpt lat="45.07316" lon="6.20552">
        <ele>2261.4</ele>
        <time>2024-08-10T07:16:34Z</time>
      </trkpt>
      <trkpt lat="45.07316" lon="6.20552">
        <ele>2261.2</ele>
        <time>2024-08-10T07:16:35Z</time>
      </trkpt>
      <trkpt lat="45.07316" lon="6.20552">
        <ele>2261</ele>
        <time>2024-08-10T07:16:36Z</time>
      </trkpt>
      <trkpt lat="45.07316" lon="6.20552">
        <ele>2261</ele>
        <time>2024-08-10T07:16:37Z</time>
      </trkpt>
      <trkpt lat="45.07316" lon="6.20552">
        <ele>2260.8</ele>
        <time>2024-08-10T07:16:38Z</time>
      </trkpt>
      <trkpt lat="45.07316" lon="6.20552">
        <ele>2261</ele>
        <time>2024-08-10T07:16:39Z</time>
      </trkpt>
      <trkpt lat="45.07316" lon="6.20552">
        <ele>2261</ele>
        <time>2024-08-10T07:16:40Z</time>
      </trkpt>
      <trkpt lat="45.07316" lon="6.20552">
        <ele>2261</ele>
        <time>2024-08-10T07:16:41Z</time>
      </trkpt>
      <trkpt lat="45.07316" lon="6.20552">
        <ele>2261.2</ele>
        <time>2024-08-10T07:16:42Z</time>
      </trkpt>
      <trkpt lat="45.07316" lon="6.20552">
        <ele>2261.2</ele>
        <time>2024-08-10T07:16:43Z</time>
      </trkpt>
      <trkpt lat="45.07316" lon="6.20552">
        <ele>2260.8</ele>
        <time>2024-08-10T07:16:44Z</time>
      </trkpt>
      <trkpt lat="45.07316" lon="6.20552">
        <ele>2260.8</ele>
        <time>2024-08-10T07:16:45Z</time>
      </trkpt>
      <trkpt lat="45.07316" lon="6.20552">
        <ele>2261.2</ele>
        <time>2024-08-10T07:16:46Z</time>
      </trkpt>
      <trkpt lat="45.07316" lon="6.20552">
        <ele>2261.4</ele>
        <time>2024-08-10T07:16:47Z</time>
      </trkpt>
      <trkpt lat="45.07316" lon="6.20552">
        <ele>2261.6</ele>
        <time>2024-08-10T07:16:48Z</time>
      </trkpt>
      <trkpt lat="45.07316" lon="6.20552">
        <ele>2261.6</ele>
        <time>2024-08-10T07:16:49Z</time>
      </trkpt>
      <trkpt lat="45.07316" lon="6.20552">
        <ele>2261.4</ele>
        <time>2024-08-10T07:16:50Z</time>
      </trkpt>
      <trkpt lat="45.07316" lon="6.20552">
        <ele>2261.4</ele>
        <time>2024-08-10T07:16:51Z</time>
      </trkpt>
      <trkpt lat="45.07316" lon="6.20552">
        <ele>2261.6</ele>
        <time>2024-08-10T07:16:52Z</time>
      </trkpt>
      <trkpt lat="45.07316" lon="6.20552">
        <ele>2261.8</ele>
        <time>2024-08-10T07:16:53Z</time>
      </trkpt>
      <trkpt lat="45.07316" lon="6.20552">
        <ele>2261.8</ele>
        <time>2024-08-10T07:16:54Z</time>
      </trkpt>
      <trkpt lat="45.07316" lon="6.20552">
        <ele>2261.8</ele>
        <time>2024-08-10T07:16:55Z</time>
      </trkpt>
      <trkpt lat="45.07316" lon="6.20552">
        <ele>2261.8</ele>
        <time>2024-08-10T07:16:56Z</time>
      </trkpt>
      <trkpt lat="45.07314" lon="6.20553">
        <ele>2261.8</ele>
        <time>2024-08-10T07:16:57Z</time>
      </trkpt>
      <trkpt lat="45.07314" lon="6.20553">
        <ele>2262</ele>
        <time>2024-08-10T07:16:58Z</time>
      </trkpt>
      <trkpt lat="45.07311" lon="6.20553">
        <ele>2262</ele>
        <time>2024-08-10T07:16:59Z</time>
      </trkpt>
      <trkpt lat="45.07309" lon="6.20554">
        <ele>2261.6</ele>
        <time>2024-08-10T07:17:00Z</time>
      </trkpt>
      <trkpt lat="45.07309" lon="6.20554">
        <ele>2261.6</ele>
        <time>2024-08-10T07:17:01Z</time>
      </trkpt>
      <trkpt lat="45.07306" lon="6.20554">
        <ele>2261.8</ele>
        <time>2024-08-10T07:17:02Z</time>
      </trkpt>
      <trkpt lat="45.07304" lon="6.20555">
        <ele>2261.6</ele>
        <time>2024-08-10T07:17:03Z</time>
      </trkpt>
      <trkpt lat="45.07304" lon="6.20555">
        <ele>2261.6</ele>
        <time>2024-08-10T07:17:04Z</time>
      </trkpt>
      <trkpt lat="45.07301" lon="6.20554">
        <ele>2261.6</ele>
        <time>2024-08-10T07:17:05Z</time>
      </trkpt>
      <trkpt lat="45.07301" lon="6.20554">
        <ele>2261.4</ele>
        <time>2024-08-10T07:17:06Z</time>
      </trkpt>
      <trkpt lat="45.07298" lon="6.20554">
        <ele>2261.2</ele>
        <time>2024-08-10T07:17:07Z</time>
      </trkpt>
      <trkpt lat="45.07298" lon="6.20554">
        <ele>2260.8</ele>
        <time>2024-08-10T07:17:08Z</time>
      </trkpt>
      <trkpt lat="45.07296" lon="6.20555">
        <ele>2261</ele>
        <time>2024-08-10T07:17:09Z</time>
      </trkpt>
      <trkpt lat="45.07296" lon="6.20555">
        <ele>2260.8</ele>
        <time>2024-08-10T07:17:10Z</time>
      </trkpt>
      <trkpt lat="45.07293" lon="6.20556">
        <ele>2260.8</ele>
        <time>2024-08-10T07:17:11Z</time>
      </trkpt>
      <trkpt lat="45.07293" lon="6.20556">
        <ele>2260.4</ele>
        <time>2024-08-10T07:17:12Z</time>
      </trkpt>
      <trkpt lat="45.07291" lon="6.20558">
        <ele>2260.4</ele>
        <time>2024-08-10T07:17:13Z</time>
      </trkpt>
      <trkpt lat="45.07291" lon="6.20558">
        <ele>2260.2</ele>
        <time>2024-08-10T07:17:14Z</time>
      </trkpt>
      <trkpt lat="45.07289" lon="6.20558">
        <ele>2260</ele>
        <time>2024-08-10T07:17:15Z</time>
      </trkpt>
      <trkpt lat="45.07289" lon="6.20558">
        <ele>2259.8</ele>
        <time>2024-08-10T07:17:16Z</time>
      </trkpt>
      <trkpt lat="45.07286" lon="6.20558">
        <ele>2259.8</ele>
        <time>2024-08-10T07:17:17Z</time>
      </trkpt>
      <trkpt lat="45.07286" lon="6.20558">
        <ele>2259.4</ele>
        <time>2024-08-10T07:17:18Z</time>
      </trkpt>
      <trkpt lat="45.07284" lon="6.20558">
        <ele>2259.2</ele>
        <time>2024-08-10T07:17:19Z</time>
      </trkpt>
      <trkpt lat="45.07284" lon="6.20558">
        <ele>2259</ele>
        <time>2024-08-10T07:17:20Z</time>
      </trkpt>
      <trkpt lat="45.07281" lon="6.20558">
        <ele>2259</ele>
        <time>2024-08-10T07:17:21Z</time>
      </trkpt>
      <trkpt lat="45.07281" lon="6.20558">
        <ele>2258.6</ele>
        <time>2024-08-10T07:17:22Z</time>
      </trkpt>
      <trkpt lat="45.07278" lon="6.20559">
        <ele>2258.6</ele>
        <time>2024-08-10T07:17:23Z</time>
      </trkpt>
      <trkpt lat="45.07278" lon="6.20559">
        <ele>2258.2</ele>
        <time>2024-08-10T07:17:24Z</time>
      </trkpt>
      <trkpt lat="45.07276" lon="6.2056">
        <ele>2258</ele>
        <time>2024-08-10T07:17:25Z</time>
      </trkpt>
      <trkpt lat="45.07276" lon="6.2056">
        <ele>2257.8</ele>
        <time>2024-08-10T07:17:26Z</time>
      </trkpt>
      <trkpt lat="45.07273" lon="6.20561">
        <ele>2257.6</ele>
        <time>2024-08-10T07:17:27Z</time>
      </trkpt>
      <trkpt lat="45.07273" lon="6.20561">
        <ele>2257.2</ele>
        <time>2024-08-10T07:17:28Z</time>
      </trkpt>
      <trkpt lat="45.0727" lon="6.20561">
        <ele>2257.2</ele>
        <time>2024-08-10T07:17:29Z</time>
      </trkpt>
      <trkpt lat="45.0727" lon="6.20561">
        <ele>2257.2</ele>
        <time>2024-08-10T07:17:30Z</time>
      </trkpt>
      <trkpt lat="45.07268" lon="6.20562">
        <ele>2257.2</ele>
        <time>2024-08-10T07:17:31Z</time>
      </trkpt>
      <trkpt lat="45.07268" lon="6.20562">
        <ele>2257.2</ele>
        <time>2024-08-10T07:17:32Z</time>
      </trkpt>
      <trkpt lat="45.07265" lon="6.20562">
        <ele>2257</ele>
        <time>2024-08-10T07:17:33Z</time>
      </trkpt>
      <trkpt lat="45.07265" lon="6.20562">
        <ele>2256.8</ele>
        <time>2024-08-10T07:17:34Z</time>
      </trkpt>
      <trkpt lat="45.07263" lon="6.20564">
        <ele>2256.6</ele>
        <time>2024-08-10T07:17:35Z</time>
      </trkpt>
      <trkpt lat="45.07263" lon="6.20564">
        <ele>2256.6</ele>
        <time>2024-08-10T07:17:36Z</time>
      </trkpt>
      <trkpt lat="45.07261" lon="6.20565">
        <ele>2256.4</ele>
        <time>2024-08-10T07:17:37Z</time>
      </trkpt>
      <trkpt lat="45.07261" lon="6.20565">
        <ele>2256.4</ele>
        <time>2024-08-10T07:17:38Z</time>
      </trkpt>
      <trkpt lat="45.07258" lon="6.20566">
        <ele>2256</ele>
        <time>2024-08-10T07:17:39Z</time>
      </trkpt>
      <trkpt lat="45.07258" lon="6.20566">
        <ele>2256</ele>
        <time>2024-08-10T07:17:40Z</time>
      </trkpt>
      <trkpt lat="45.07255" lon="6.20567">
        <ele>2256.2</ele>
        <time>2024-08-10T07:17:41Z</time>
      </trkpt>
      <trkpt lat="45.07255" lon="6.20567">
        <ele>2256</ele>
        <time>2024-08-10T07:17:42Z</time>
      </trkpt>
      <trkpt lat="45.07253" lon="6.20567">
        <ele>2255.8</ele>
        <time>2024-08-10T07:17:43Z</time>
      </trkpt>
      <trkpt lat="45.07253" lon="6.20567">
        <ele>2255.8</ele>
        <time>2024-08-10T07:17:44Z</time>
      </trkpt>
      <trkpt lat="45.07251" lon="6.20568">
        <ele>2256</ele>
        <time>2024-08-10T07:17:45Z</time>
      </trkpt>
      <trkpt lat="45.07251" lon="6.20568">
        <ele>2256</ele>
        <time>2024-08-10T07:17:46Z</time>
      </trkpt>
      <trkpt lat="45.07248" lon="6.20568">
        <ele>2255.8</ele>
        <time>2024-08-10T07:17:47Z</time>
      </trkpt>
      <trkpt lat="45.07248" lon="6.20568">
        <ele>2255.4</ele>
        <time>2024-08-10T07:17:48Z</time>
      </trkpt>
      <trkpt lat="45.07245" lon="6.20569">
        <ele>2255.2</ele>
        <time>2024-08-10T07:17:49Z</time>
      </trkpt>
      <trkpt lat="45.07245" lon="6.20569">
        <ele>2255</ele>
        <time>2024-08-10T07:17:50Z</time>
      </trkpt>
      <trkpt lat="45.07243" lon="6.20569">
        <ele>2255</ele>
        <time>2024-08-10T07:17:51Z</time>
      </trkpt>
      <trkpt lat="45.07243" lon="6.20569">
        <ele>2255</ele>
        <time>2024-08-10T07:17:52Z</time>
      </trkpt>
      <trkpt lat="45.0724" lon="6.2057">
        <ele>2254.8</ele>
        <time>2024-08-10T07:17:53Z</time>
      </trkpt>
      <trkpt lat="45.0724" lon="6.2057">
        <ele>2254.6</ele>
        <time>2024-08-10T07:17:54Z</time>
      </trkpt>
      <trkpt lat="45.07237" lon="6.2057">
        <ele>2254.2</ele>
        <time>2024-08-10T07:17:55Z</time>
      </trkpt>
      <trkpt lat="45.07237" lon="6.2057">
        <ele>2254.2</ele>
        <time>2024-08-10T07:17:56Z</time>
      </trkpt>
      <trkpt lat="45.07235" lon="6.20571">
        <ele>2254.2</ele>
        <time>2024-08-10T07:17:57Z</time>
      </trkpt>
      <trkpt lat="45.07235" lon="6.20571">
        <ele>2253.8</ele>
        <time>2024-08-10T07:17:58Z</time>
      </trkpt>
      <trkpt lat="45.07232" lon="6.20572">
        <ele>2253.8</ele>
        <time>2024-08-10T07:17:59Z</time>
      </trkpt>
      <trkpt lat="45.07232" lon="6.20572">
        <ele>2253.6</ele>
        <time>2024-08-10T07:18:00Z</time>
      </trkpt>
      <trkpt lat="45.0723" lon="6.20573">
        <ele>2253.6</ele>
        <time>2024-08-10T07:18:01Z</time>
      </trkpt>
      <trkpt lat="45.0723" lon="6.20573">
        <ele>2253.2</ele>
        <time>2024-08-10T07:18:02Z</time>
      </trkpt>
      <trkpt lat="45.07227" lon="6.20574">
        <ele>2252.8</ele>
        <time>2024-08-10T07:18:03Z</time>
      </trkpt>
      <trkpt lat="45.07227" lon="6.20574">
        <ele>2252.8</ele>
        <time>2024-08-10T07:18:04Z</time>
      </trkpt>
      <trkpt lat="45.07224" lon="6.20575">
        <ele>2252.8</ele>
        <time>2024-08-10T07:18:05Z</time>
      </trkpt>
      <trkpt lat="45.07224" lon="6.20575">
        <ele>2252.8</ele>
        <time>2024-08-10T07:18:06Z</time>
      </trkpt>
      <trkpt lat="45.07222" lon="6.20577">
        <ele>2252.8</ele>
        <time>2024-08-10T07:18:07Z</time>
      </trkpt>
      <trkpt lat="45.07222" lon="6.20577">
        <ele>2252.8</ele>
        <time>2024-08-10T07:18:08Z</time>
      </trkpt>
      <trkpt lat="45.07219" lon="6.20578">
        <ele>2252.4</ele>
        <time>2024-08-10T07:18:09Z</time>
      </trkpt>
      <trkpt lat="45.07219" lon="6.20578">
        <ele>2252.4</ele>
        <time>2024-08-10T07:18:10Z</time>
      </trkpt>
      <trkpt lat="45.07217" lon="6.20579">
        <ele>2252.4</ele>
        <time>2024-08-10T07:18:11Z</time>
      </trkpt>
      <trkpt lat="45.07217" lon="6.20579">
        <ele>2252.6</ele>
        <time>2024-08-10T07:18:12Z</time>
      </trkpt>
      <trkpt lat="45.07214" lon="6.2058">
        <ele>2252.8</ele>
        <time>2024-08-10T07:18:13Z</time>
      </trkpt>
      <trkpt lat="45.07214" lon="6.2058">
        <ele>2252.8</ele>
        <time>2024-08-10T07:18:14Z</time>
      </trkpt>
      <trkpt lat="45.07212" lon="6.2058">
        <ele>2252.4</ele>
        <time>2024-08-10T07:18:15Z</time>
      </trkpt>
      <trkpt lat="45.07212" lon="6.2058">
        <ele>2251.8</ele>
        <time>2024-08-10T07:18:16Z</time>
      </trkpt>
      <trkpt lat="45.07209" lon="6.20581">
        <ele>2251.6</ele>
        <time>2024-08-10T07:18:17Z</time>
      </trkpt>
      <trkpt lat="45.07209" lon="6.20581">
        <ele>2251.6</ele>
        <time>2024-08-10T07:18:18Z</time>
      </trkpt>
      <trkpt lat="45.07206" lon="6.20581">
        <ele>2251.6</ele>
        <time>2024-08-10T07:18:19Z</time>
      </trkpt>
      <trkpt lat="45.07206" lon="6.20581">
        <ele>2251.6</ele>
        <time>2024-08-10T07:18:20Z</time>
      </trkpt>
      <trkpt lat="45.07204" lon="6.20581">
        <ele>2251.6</ele>
        <time>2024-08-10T07:18:21Z</time>
      </trkpt>
      <trkpt lat="45.07204" lon="6.20581">
        <ele>2251.4</ele>
        <time>2024-08-10T07:18:22Z</time>
      </trkpt>
      <trkpt lat="45.07201" lon="6.20581">
        <ele>2251.2</ele>
        <time>2024-08-10T07:18:23Z</time>
      </trkpt>
      <trkpt lat="45.07201" lon="6.20581">
        <ele>2251.2</ele>
        <time>2024-08-10T07:18:24Z</time>
      </trkpt>
      <trkpt lat="45.07198" lon="6.20582">
        <ele>2251.4</ele>
        <time>2024-08-10T07:18:25Z</time>
      </trkpt>
      <trkpt lat="45.07198" lon="6.20582">
        <ele>2251.4</ele>
        <time>2024-08-10T07:18:26Z</time>
      </trkpt>
      <trkpt lat="45.07196" lon="6.20582">
        <ele>2251.4</ele>
        <time>2024-08-10T07:18:27Z</time>
      </trkpt>
      <trkpt lat="45.07196" lon="6.20582">
        <ele>2251.2</ele>
        <time>2024-08-10T07:18:28Z</time>
      </trkpt>
      <trkpt lat="45.07193" lon="6.20582">
        <ele>2251.2</ele>
        <time>2024-08-10T07:18:29Z</time>
      </trkpt>
      <trkpt lat="45.07193" lon="6.20582">
        <ele>2251.2</ele>
        <time>2024-08-10T07:18:30Z</time>
      </trkpt>
      <trkpt lat="45.07191" lon="6.20582">
        <ele>2251.2</ele>
        <time>2024-08-10T07:18:31Z</time>
      </trkpt>
      <trkpt lat="45.07191" lon="6.20582">
        <ele>2251.2</ele>
        <time>2024-08-10T07:18:32Z</time>
      </trkpt>
      <trkpt lat="45.07189" lon="6.20582">
        <ele>2251.4</ele>
        <time>2024-08-10T07:18:33Z</time>
      </trkpt>
      <trkpt lat="45.07189" lon="6.20582">
        <ele>2251.8</ele>
        <time>2024-08-10T07:18:34Z</time>
      </trkpt>
      <trkpt lat="45.07187" lon="6.20581">
        <ele>2252</ele>
        <time>2024-08-10T07:18:35Z</time>
      </trkpt>
      <trkpt lat="45.07187" lon="6.20581">
        <ele>2252</ele>
        <time>2024-08-10T07:18:36Z</time>
      </trkpt>
      <trkpt lat="45.07187" lon="6.20581">
        <ele>2252.2</ele>
        <time>2024-08-10T07:18:37Z</time>
      </trkpt>
      <trkpt lat="45.07185" lon="6.20581">
        <ele>2252.6</ele>
        <time>2024-08-10T07:18:38Z</time>
      </trkpt>
      <trkpt lat="45.07185" lon="6.20581">
        <ele>2252.8</ele>
        <time>2024-08-10T07:18:39Z</time>
      </trkpt>
      <trkpt lat="45.07185" lon="6.20581">
        <ele>2253</ele>
        <time>2024-08-10T07:18:40Z</time>
      </trkpt>
      <trkpt lat="45.07182" lon="6.20581">
        <ele>2253.2</ele>
        <time>2024-08-10T07:18:41Z</time>
      </trkpt>
      <trkpt lat="45.07182" lon="6.20581">
        <ele>2253.8</ele>
        <time>2024-08-10T07:18:42Z</time>
      </trkpt>
      <trkpt lat="45.0718" lon="6.20581">
        <ele>2254</ele>
        <time>2024-08-10T07:18:43Z</time>
      </trkpt>
      <trkpt lat="45.0718" lon="6.20581">
        <ele>2254</ele>
        <time>2024-08-10T07:18:44Z</time>
      </trkpt>
      <trkpt lat="45.07178" lon="6.20582">
        <ele>2254.2</ele>
        <time>2024-08-10T07:18:45Z</time>
      </trkpt>
      <trkpt lat="45.07178" lon="6.20582">
        <ele>2254.2</ele>
        <time>2024-08-10T07:18:46Z</time>
      </trkpt>
      <trkpt lat="45.07178" lon="6.20582">
        <ele>2254.2</ele>
        <time>2024-08-10T07:18:47Z</time>
      </trkpt>
      <trkpt lat="45.07178" lon="6.20582">
        <ele>2254.2</ele>
        <time>2024-08-10T07:18:48Z</time>
      </trkpt>
      <trkpt lat="45.07178" lon="6.20582">
        <ele>2254.4</ele>
        <time>2024-08-10T07:18:49Z</time>
      </trkpt>
      <trkpt lat="45.07178" lon="6.20582">
        <ele>2254.4</ele>
        <time>2024-08-10T07:18:50Z</time>
      </trkpt>
      <trkpt lat="45.07178" lon="6.20582">
        <ele>2254.4</ele>
        <time>2024-08-10T07:18:51Z</time>
      </trkpt>
      <trkpt lat="45.07178" lon="6.20582">
        <ele>2254.6</ele>
        <time>2024-08-10T07:18:52Z</time>
      </trkpt>
      <trkpt lat="45.07178" lon="6.20582">
        <ele>2254.6</ele>
        <time>2024-08-10T07:18:53Z</time>
      </trkpt>
      <trkpt lat="45.07178" lon="6.20582">
        <ele>2254.6</ele>
        <time>2024-08-10T07:18:54Z</time>
      </trkpt>
      <trkpt lat="45.07176" lon="6.20583">
        <ele>2254.6</ele>
        <time>2024-08-10T07:18:55Z</time>
      </trkpt>
      <trkpt lat="45.07176" lon="6.20583">
        <ele>2254.6</ele>
        <time>2024-08-10T07:18:56Z</time>
      </trkpt>
      <trkpt lat="45.07176" lon="6.20583">
        <ele>2254.6</ele>
        <time>2024-08-10T07:18:57Z</time>
      </trkpt>
      <trkpt lat="45.07174" lon="6.20585">
        <ele>2254.6</ele>
        <time>2024-08-10T07:18:58Z</time>
      </trkpt>
      <trkpt lat="45.07174" lon="6.20585">
        <ele>2254.6</ele>
        <time>2024-08-10T07:18:59Z</time>
      </trkpt>
      <trkpt lat="45.07172" lon="6.20586">
        <ele>2254.8</ele>
        <time>2024-08-10T07:19:00Z</time>
      </trkpt>
      <trkpt lat="45.07172" lon="6.20586">
        <ele>2254.8</ele>
        <time>2024-08-10T07:19:01Z</time>
      </trkpt>
      <trkpt lat="45.07169" lon="6.20586">
        <ele>2254.4</ele>
        <time>2024-08-10T07:19:02Z</time>
      </trkpt>
      <trkpt lat="45.07169" lon="6.20586">
        <ele>2254.4</ele>
        <time>2024-08-10T07:19:03Z</time>
      </trkpt>
      <trkpt lat="45.07167" lon="6.20588">
        <ele>2254.4</ele>
        <time>2024-08-10T07:19:04Z</time>
      </trkpt>
      <trkpt lat="45.07167" lon="6.20588">
        <ele>2254.2</ele>
        <time>2024-08-10T07:19:05Z</time>
      </trkpt>
      <trkpt lat="45.07165" lon="6.20589">
        <ele>2254</ele>
        <time>2024-08-10T07:19:06Z</time>
      </trkpt>
      <trkpt lat="45.07165" lon="6.20589">
        <ele>2253.8</ele>
        <time>2024-08-10T07:19:07Z</time>
      </trkpt>
      <trkpt lat="45.07163" lon="6.20589">
        <ele>2253.6</ele>
        <time>2024-08-10T07:19:08Z</time>
      </trkpt>
      <trkpt lat="45.07163" lon="6.20589">
        <ele>2253.4</ele>
        <time>2024-08-10T07:19:09Z</time>
      </trkpt>
      <trkpt lat="45.07161" lon="6.2059">
        <ele>2253</ele>
        <time>2024-08-10T07:19:10Z</time>
      </trkpt>
      <trkpt lat="45.07161" lon="6.2059">
        <ele>2253</ele>
        <time>2024-08-10T07:19:11Z</time>
      </trkpt>
      <trkpt lat="45.07159" lon="6.20591">
        <ele>2253.2</ele>
        <time>2024-08-10T07:19:12Z</time>
      </trkpt>
      <trkpt lat="45.07159" lon="6.20591">
        <ele>2252.8</ele>
        <time>2024-08-10T07:19:13Z</time>
      </trkpt>
      <trkpt lat="45.07157" lon="6.20592">
        <ele>2252.4</ele>
        <time>2024-08-10T07:19:14Z</time>
      </trkpt>
      <trkpt lat="45.07157" lon="6.20592">
        <ele>2252.2</ele>
        <time>2024-08-10T07:19:15Z</time>
      </trkpt>
      <trkpt lat="45.07156" lon="6.20594">
        <ele>2252</ele>
        <time>2024-08-10T07:19:16Z</time>
      </trkpt>
      <trkpt lat="45.07156" lon="6.20594">
        <ele>2252</ele>
        <time>2024-08-10T07:19:17Z</time>
      </trkpt>
      <trkpt lat="45.07153" lon="6.20594">
        <ele>2251.8</ele>
        <time>2024-08-10T07:19:18Z</time>
      </trkpt>
      <trkpt lat="45.07153" lon="6.20594">
        <ele>2251.4</ele>
        <time>2024-08-10T07:19:19Z</time>
      </trkpt>
      <trkpt lat="45.07152" lon="6.20596">
        <ele>2251</ele>
        <time>2024-08-10T07:19:20Z</time>
      </trkpt>
      <trkpt lat="45.07152" lon="6.20596">
        <ele>2250.6</ele>
        <time>2024-08-10T07:19:21Z</time>
      </trkpt>
      <trkpt lat="45.0715" lon="6.20598">
        <ele>2250.4</ele>
        <time>2024-08-10T07:19:22Z</time>
      </trkpt>
      <trkpt lat="45.0715" lon="6.20598">
        <ele>2250.2</ele>
        <time>2024-08-10T07:19:23Z</time>
      </trkpt>
      <trkpt lat="45.07148" lon="6.20599">
        <ele>2250</ele>
        <time>2024-08-10T07:19:24Z</time>
      </trkpt>
      <trkpt lat="45.07148" lon="6.20599">
        <ele>2249.4</ele>
        <time>2024-08-10T07:19:25Z</time>
      </trkpt>
      <trkpt lat="45.07148" lon="6.20599">
        <ele>2249.2</ele>
        <time>2024-08-10T07:19:26Z</time>
      </trkpt>
      <trkpt lat="45.07148" lon="6.20599">
        <ele>2249</ele>
        <time>2024-08-10T07:19:27Z</time>
      </trkpt>
      <trkpt lat="45.07148" lon="6.20599">
        <ele>2248.8</ele>
        <time>2024-08-10T07:19:28Z</time>
      </trkpt>
      <trkpt lat="45.07148" lon="6.20599">
        <ele>2248.8</ele>
        <time>2024-08-10T07:19:29Z</time>
      </trkpt>
      <trkpt lat="45.07148" lon="6.20599">
        <ele>2248.8</ele>
        <time>2024-08-10T07:19:30Z</time>
      </trkpt>
      <trkpt lat="45.07148" lon="6.20599">
        <ele>2248.8</ele>
        <time>2024-08-10T07:19:31Z</time>
      </trkpt>
      <trkpt lat="45.07148" lon="6.20599">
        <ele>2248.8</ele>
        <time>2024-08-10T07:19:32Z</time>
      </trkpt>
      <trkpt lat="45.07148" lon="6.20599">
        <ele>2248.8</ele>
        <time>2024-08-10T07:19:33Z</time>
      </trkpt>
      <trkpt lat="45.07148" lon="6.20599">
        <ele>2249</ele>
        <time>2024-08-10T07:19:34Z</time>
      </trkpt>
      <trkpt lat="45.07148" lon="6.20599">
        <ele>2249.2</ele>
        <time>2024-08-10T07:19:35Z</time>
      </trkpt>
      <trkpt lat="45.07148" lon="6.20599">
        <ele>2249.2</ele>
        <time>2024-08-10T07:19:36Z</time>
      </trkpt>
      <trkpt lat="45.07148" lon="6.20599">
        <ele>2249</ele>
        <time>2024-08-10T07:19:37Z</time>
      </trkpt>
      <trkpt lat="45.07148" lon="6.20599">
        <ele>2249</ele>
        <time>2024-08-10T07:19:38Z</time>
      </trkpt>
      <trkpt lat="45.07148" lon="6.20599">
        <ele>2249</ele>
        <time>2024-08-10T07:19:39Z</time>
      </trkpt>
      <trkpt lat="45.07148" lon="6.20599">
        <ele>2248.8</ele>
        <time>2024-08-10T07:19:40Z</time>
      </trkpt>
      <trkpt lat="45.07148" lon="6.20599">
        <ele>2248.8</ele>
        <time>2024-08-10T07:19:41Z</time>
      </trkpt>
      <trkpt lat="45.07148" lon="6.20599">
        <ele>2248.8</ele>
        <time>2024-08-10T07:19:42Z</time>
      </trkpt>
      <trkpt lat="45.07148" lon="6.20599">
        <ele>2248.8</ele>
        <time>2024-08-10T07:19:43Z</time>
      </trkpt>
      <trkpt lat="45.07148" lon="6.20599">
        <ele>2248.8</ele>
        <time>2024-08-10T07:19:44Z</time>
      </trkpt>
      <trkpt lat="45.07148" lon="6.20599">
        <ele>2248.6</ele>
        <time>2024-08-10T07:19:45Z</time>
      </trkpt>
      <trkpt lat="45.07148" lon="6.20599">
        <ele>2248.6</ele>
        <time>2024-08-10T07:19:46Z</time>
      </trkpt>
      <trkpt lat="45.07148" lon="6.20599">
        <ele>2248.6</ele>
        <time>2024-08-10T07:19:47Z</time>
      </trkpt>
      <trkpt lat="45.07148" lon="6.20599">
        <ele>2248.6</ele>
        <time>2024-08-10T07:19:48Z</time>
      </trkpt>
      <trkpt lat="45.07148" lon="6.20599">
        <ele>2248.8</ele>
        <time>2024-08-10T07:19:49Z</time>
      </trkpt>
      <trkpt lat="45.07148" lon="6.20599">
        <ele>2248.8</ele>
        <time>2024-08-10T07:19:50Z</time>
      </trkpt>
      <trkpt lat="45.07148" lon="6.20599">
        <ele>2248.8</ele>
        <time>2024-08-10T07:19:51Z</time>
      </trkpt>
      <trkpt lat="45.07148" lon="6.20599">
        <ele>2248.8</ele>
        <time>2024-08-10T07:19:52Z</time>
      </trkpt>
      <trkpt lat="45.07148" lon="6.20599">
        <ele>2249.2</ele>
        <time>2024-08-10T07:19:53Z</time>
      </trkpt>
      <trkpt lat="45.07148" lon="6.20599">
        <ele>2249.2</ele>
        <time>2024-08-10T07:19:54Z</time>
      </trkpt>
      <trkpt lat="45.07148" lon="6.20599">
        <ele>2249.2</ele>
        <time>2024-08-10T07:19:55Z</time>
      </trkpt>
      <trkpt lat="45.07148" lon="6.20599">
        <ele>2249.2</ele>
        <time>2024-08-10T07:19:56Z</time>
      </trkpt>
      <trkpt lat="45.07148" lon="6.20599">
        <ele>2249.2</ele>
        <time>2024-08-10T07:19:57Z</time>
      </trkpt>
      <trkpt lat="45.07148" lon="6.20599">
        <ele>2249.6</ele>
        <time>2024-08-10T07:19:58Z</time>
      </trkpt>
      <trkpt lat="45.07148" lon="6.20599">
        <ele>2249.6</ele>
        <time>2024-08-10T07:19:59Z</time>
      </trkpt>
      <trkpt lat="45.07148" lon="6.20599">
        <ele>2249.6</ele>
        <time>2024-08-10T07:20:00Z</time>
      </trkpt>
      <trkpt lat="45.07148" lon="6.20599">
        <ele>2249.4</ele>
        <time>2024-08-10T07:20:01Z</time>
      </trkpt>
      <trkpt lat="45.07148" lon="6.20599">
        <ele>2249.2</ele>
        <time>2024-08-10T07:20:02Z</time>
      </trkpt>
      <trkpt lat="45.07148" lon="6.20599">
        <ele>2249.2</ele>
        <time>2024-08-10T07:20:03Z</time>
      </trkpt>
      <trkpt lat="45.07148" lon="6.20599">
        <ele>2249.2</ele>
        <time>2024-08-10T07:20:04Z</time>
      </trkpt>
      <trkpt lat="45.07148" lon="6.20599">
        <ele>2249.2</ele>
        <time>2024-08-10T07:20:05Z</time>
      </trkpt>
      <trkpt lat="45.07148" lon="6.20599">
        <ele>2249.2</ele>
        <time>2024-08-10T07:20:06Z</time>
      </trkpt>
      <trkpt lat="45.07148" lon="6.20599">
        <ele>2249.2</ele>
        <time>2024-08-10T07:20:07Z</time>
      </trkpt>
      <trkpt lat="45.07148" lon="6.20599">
        <ele>2249.4</ele>
        <time>2024-08-10T07:20:08Z</time>
      </trkpt>
      <trkpt lat="45.07148" lon="6.20599">
        <ele>2249.4</ele>
        <time>2024-08-10T07:20:09Z</time>
      </trkpt>
      <trkpt lat="45.07148" lon="6.20599">
        <ele>2249.4</ele>
        <time>2024-08-10T07:20:10Z</time>
      </trkpt>
      <trkpt lat="45.07148" lon="6.20599">
        <ele>2249.2</ele>
        <time>2024-08-10T07:20:11Z</time>
      </trkpt>
      <trkpt lat="45.07148" lon="6.20599">
        <ele>2249</ele>
        <time>2024-08-10T07:20:12Z</time>
      </trkpt>
      <trkpt lat="45.07148" lon="6.20599">
        <ele>2249</ele>
        <time>2024-08-10T07:20:13Z</time>
      </trkpt>
      <trkpt lat="45.07148" lon="6.20599">
        <ele>2249.4</ele>
        <time>2024-08-10T07:20:14Z</time>
      </trkpt>
      <trkpt lat="45.07148" lon="6.20599">
        <ele>2249.4</ele>
        <time>2024-08-10T07:20:15Z</time>
      </trkpt>
      <trkpt lat="45.07148" lon="6.20599">
        <ele>2249.4</ele>
        <time>2024-08-10T07:20:16Z</time>
      </trkpt>
      <trkpt lat="45.07148" lon="6.20599">
        <ele>2249.4</ele>
        <time>2024-08-10T07:20:17Z</time>
      </trkpt>
      <trkpt lat="45.07148" lon="6.20599">
        <ele>2249</ele>
        <time>2024-08-10T07:20:18Z</time>
      </trkpt>
      <trkpt lat="45.07148" lon="6.20599">
        <ele>2248.8</ele>
        <time>2024-08-10T07:20:19Z</time>
      </trkpt>
      <trkpt lat="45.07148" lon="6.20599">
        <ele>2248.6</ele>
        <time>2024-08-10T07:20:20Z</time>
      </trkpt>
      <trkpt lat="45.07148" lon="6.20599">
        <ele>2248.6</ele>
        <time>2024-08-10T07:20:21Z</time>
      </trkpt>
      <trkpt lat="45.07148" lon="6.20599">
        <ele>2248.4</ele>
        <time>2024-08-10T07:20:22Z</time>
      </trkpt>
      <trkpt lat="45.07148" lon="6.20599">
        <ele>2248.6</ele>
        <time>2024-08-10T07:20:23Z</time>
      </trkpt>
      <trkpt lat="45.07148" lon="6.20599">
        <ele>2248.6</ele>
        <time>2024-08-10T07:20:24Z</time>
      </trkpt>
      <trkpt lat="45.07146" lon="6.206">
        <ele>2248.8</ele>
        <time>2024-08-10T07:20:25Z</time>
      </trkpt>
      <trkpt lat="45.07144" lon="6.20601">
        <ele>2248.8</ele>
        <time>2024-08-10T07:20:26Z</time>
      </trkpt>
      <trkpt lat="45.07144" lon="6.20601">
        <ele>2248.8</ele>
        <time>2024-08-10T07:20:27Z</time>
      </trkpt>
      <trkpt lat="45.07144" lon="6.20601">
        <ele>2248.8</ele>
        <time>2024-08-10T07:20:28Z</time>
      </trkpt>
      <trkpt lat="45.07144" lon="6.20601">
        <ele>2248.4</ele>
        <time>2024-08-10T07:20:29Z</time>
      </trkpt>
      <trkpt lat="45.07144" lon="6.20601">
        <ele>2248</ele>
        <time>2024-08-10T07:20:30Z</time>
      </trkpt>
      <trkpt lat="45.07144" lon="6.20601">
        <ele>2248</ele>
        <time>2024-08-10T07:20:31Z</time>
      </trkpt>
      <trkpt lat="45.07144" lon="6.20601">
        <ele>2248</ele>
        <time>2024-08-10T07:20:32Z</time>
      </trkpt>
      <trkpt lat="45.07144" lon="6.20601">
        <ele>2247.8</ele>
        <time>2024-08-10T07:20:33Z</time>
      </trkpt>
      <trkpt lat="45.07144" lon="6.20601">
        <ele>2247.8</ele>
        <time>2024-08-10T07:20:34Z</time>
      </trkpt>
      <trkpt lat="45.07144" lon="6.20601">
        <ele>2247.6</ele>
        <time>2024-08-10T07:20:35Z</time>
      </trkpt>
      <trkpt lat="45.07144" lon="6.20601">
        <ele>2247.6</ele>
        <time>2024-08-10T07:20:36Z</time>
      </trkpt>
      <trkpt lat="45.07144" lon="6.20601">
        <ele>2247.8</ele>
        <time>2024-08-10T07:20:37Z</time>
      </trkpt>
      <trkpt lat="45.07144" lon="6.20601">
        <ele>2247.8</ele>
        <time>2024-08-10T07:20:38Z</time>
      </trkpt>
      <trkpt lat="45.07144" lon="6.20601">
        <ele>2247.8</ele>
        <time>2024-08-10T07:20:39Z</time>
      </trkpt>
      <trkpt lat="45.07144" lon="6.20601">
        <ele>2247.8</ele>
        <time>2024-08-10T07:20:40Z</time>
      </trkpt>
      <trkpt lat="45.07144" lon="6.20601">
        <ele>2247.8</ele>
        <time>2024-08-10T07:20:41Z</time>
      </trkpt>
      <trkpt lat="45.07141" lon="6.20602">
        <ele>2247.8</ele>
        <time>2024-08-10T07:20:42Z</time>
      </trkpt>
      <trkpt lat="45.07141" lon="6.20602">
        <ele>2247.8</ele>
        <time>2024-08-10T07:20:43Z</time>
      </trkpt>
      <trkpt lat="45.07139" lon="6.20604">
        <ele>2247.8</ele>
        <time>2024-08-10T07:20:44Z</time>
      </trkpt>
      <trkpt lat="45.07137" lon="6.20605">
        <ele>2247.6</ele>
        <time>2024-08-10T07:20:45Z</time>
      </trkpt>
      <trkpt lat="45.07135" lon="6.20606">
        <ele>2247.4</ele>
        <time>2024-08-10T07:20:46Z</time>
      </trkpt>
      <trkpt lat="45.07133" lon="6.20607">
        <ele>2247</ele>
        <time>2024-08-10T07:20:47Z</time>
      </trkpt>
      <trkpt lat="45.07132" lon="6.20608">
        <ele>2247</ele>
        <time>2024-08-10T07:20:48Z</time>
      </trkpt>
      <trkpt lat="45.07132" lon="6.20608">
        <ele>2246.6</ele>
        <time>2024-08-10T07:20:49Z</time>
      </trkpt>
      <trkpt lat="45.07129" lon="6.2061">
        <ele>2246.4</ele>
        <time>2024-08-10T07:20:50Z</time>
      </trkpt>
      <trkpt lat="45.07129" lon="6.2061">
        <ele>2246.2</ele>
        <time>2024-08-10T07:20:51Z</time>
      </trkpt>
      <trkpt lat="45.07127" lon="6.20612">
        <ele>2246.2</ele>
        <time>2024-08-10T07:20:52Z</time>
      </trkpt>
      <trkpt lat="45.07127" lon="6.20612">
        <ele>2246</ele>
        <time>2024-08-10T07:20:53Z</time>
      </trkpt>
      <trkpt lat="45.07125" lon="6.20615">
        <ele>2245.6</ele>
        <time>2024-08-10T07:20:54Z</time>
      </trkpt>
      <trkpt lat="45.07125" lon="6.20615">
        <ele>2245.4</ele>
        <time>2024-08-10T07:20:55Z</time>
      </trkpt>
      <trkpt lat="45.07122" lon="6.20617">
        <ele>2245.2</ele>
        <time>2024-08-10T07:20:56Z</time>
      </trkpt>
      <trkpt lat="45.07122" lon="6.20617">
        <ele>2245</ele>
        <time>2024-08-10T07:20:57Z</time>
      </trkpt>
      <trkpt lat="45.07119" lon="6.20619">
        <ele>2244.8</ele>
        <time>2024-08-10T07:20:58Z</time>
      </trkpt>
      <trkpt lat="45.07118" lon="6.2062">
        <ele>2244.4</ele>
        <time>2024-08-10T07:20:59Z</time>
      </trkpt>
      <trkpt lat="45.07118" lon="6.2062">
        <ele>2244.2</ele>
        <time>2024-08-10T07:21:00Z</time>
      </trkpt>
      <trkpt lat="45.07116" lon="6.20623">
        <ele>2244</ele>
        <time>2024-08-10T07:21:01Z</time>
      </trkpt>
      <trkpt lat="45.07116" lon="6.20623">
        <ele>2243.8</ele>
        <time>2024-08-10T07:21:02Z</time>
      </trkpt>
      <trkpt lat="45.07113" lon="6.20625">
        <ele>2243.4</ele>
        <time>2024-08-10T07:21:03Z</time>
      </trkpt>
      <trkpt lat="45.07113" lon="6.20625">
        <ele>2243.4</ele>
        <time>2024-08-10T07:21:04Z</time>
      </trkpt>
      <trkpt lat="45.07111" lon="6.20627">
        <ele>2243</ele>
        <time>2024-08-10T07:21:05Z</time>
      </trkpt>
      <trkpt lat="45.07111" lon="6.20627">
        <ele>2242.8</ele>
        <time>2024-08-10T07:21:06Z</time>
      </trkpt>
      <trkpt lat="45.07109" lon="6.2063">
        <ele>2242.6</ele>
        <time>2024-08-10T07:21:07Z</time>
      </trkpt>
      <trkpt lat="45.07109" lon="6.2063">
        <ele>2242.6</ele>
        <time>2024-08-10T07:21:08Z</time>
      </trkpt>
      <trkpt lat="45.07106" lon="6.20632">
        <ele>2242.4</ele>
        <time>2024-08-10T07:21:09Z</time>
      </trkpt>
      <trkpt lat="45.07106" lon="6.20632">
        <ele>2242</ele>
        <time>2024-08-10T07:21:10Z</time>
      </trkpt>
      <trkpt lat="45.07104" lon="6.20634">
        <ele>2241.8</ele>
        <time>2024-08-10T07:21:11Z</time>
      </trkpt>
      <trkpt lat="45.07104" lon="6.20634">
        <ele>2241.6</ele>
        <time>2024-08-10T07:21:12Z</time>
      </trkpt>
      <trkpt lat="45.07102" lon="6.20637">
        <ele>2241.6</ele>
        <time>2024-08-10T07:21:13Z</time>
      </trkpt>
      <trkpt lat="45.07102" lon="6.20637">
        <ele>2241.4</ele>
        <time>2024-08-10T07:21:14Z</time>
      </trkpt>
      <trkpt lat="45.071" lon="6.20639">
        <ele>2241.2</ele>
        <time>2024-08-10T07:21:15Z</time>
      </trkpt>
      <trkpt lat="45.071" lon="6.20639">
        <ele>2241</ele>
        <time>2024-08-10T07:21:16Z</time>
      </trkpt>
      <trkpt lat="45.07098" lon="6.20642">
        <ele>2240.8</ele>
        <time>2024-08-10T07:21:17Z</time>
      </trkpt>
      <trkpt lat="45.07098" lon="6.20642">
        <ele>2240.8</ele>
        <time>2024-08-10T07:21:18Z</time>
      </trkpt>
      <trkpt lat="45.07097" lon="6.20645">
        <ele>2240.4</ele>
        <time>2024-08-10T07:21:19Z</time>
      </trkpt>
      <trkpt lat="45.07097" lon="6.20645">
        <ele>2240.4</ele>
        <time>2024-08-10T07:21:20Z</time>
      </trkpt>
      <trkpt lat="45.07095" lon="6.20648">
        <ele>2240.4</ele>
        <time>2024-08-10T07:21:21Z</time>
      </trkpt>
      <trkpt lat="45.07095" lon="6.20648">
        <ele>2240.4</ele>
        <time>2024-08-10T07:21:22Z</time>
      </trkpt>
      <trkpt lat="45.07093" lon="6.20652">
        <ele>2240.2</ele>
        <time>2024-08-10T07:21:23Z</time>
      </trkpt>
      <trkpt lat="45.07093" lon="6.20652">
        <ele>2240</ele>
        <time>2024-08-10T07:21:24Z</time>
      </trkpt>
      <trkpt lat="45.07092" lon="6.20655">
        <ele>2240</ele>
        <time>2024-08-10T07:21:25Z</time>
      </trkpt>
      <trkpt lat="45.07092" lon="6.20655">
        <ele>2239.8</ele>
        <time>2024-08-10T07:21:26Z</time>
      </trkpt>
      <trkpt lat="45.0709" lon="6.20659">
        <ele>2239.6</ele>
        <time>2024-08-10T07:21:27Z</time>
      </trkpt>
      <trkpt lat="45.0709" lon="6.20659">
        <ele>2239.4</ele>
        <time>2024-08-10T07:21:28Z</time>
      </trkpt>
      <trkpt lat="45.07089" lon="6.20662">
        <ele>2239.2</ele>
        <time>2024-08-10T07:21:29Z</time>
      </trkpt>
      <trkpt lat="45.07089" lon="6.20662">
        <ele>2238.8</ele>
        <time>2024-08-10T07:21:30Z</time>
      </trkpt>
      <trkpt lat="45.07087" lon="6.20665">
        <ele>2238.6</ele>
        <time>2024-08-10T07:21:31Z</time>
      </trkpt>
      <trkpt lat="45.07087" lon="6.20665">
        <ele>2238.4</ele>
        <time>2024-08-10T07:21:32Z</time>
      </trkpt>
      <trkpt lat="45.07085" lon="6.20668">
        <ele>2238.2</ele>
        <time>2024-08-10T07:21:33Z</time>
      </trkpt>
      <trkpt lat="45.07085" lon="6.20668">
        <ele>2238</ele>
        <time>2024-08-10T07:21:34Z</time>
      </trkpt>
      <trkpt lat="45.07084" lon="6.20671">
        <ele>2237.6</ele>
        <time>2024-08-10T07:21:35Z</time>
      </trkpt>
      <trkpt lat="45.07084" lon="6.20671">
        <ele>2237.6</ele>
        <time>2024-08-10T07:21:36Z</time>
      </trkpt>
      <trkpt lat="45.07084" lon="6.20675">
        <ele>2237.4</ele>
        <time>2024-08-10T07:21:37Z</time>
      </trkpt>
      <trkpt lat="45.07084" lon="6.20675">
        <ele>2237.2</ele>
        <time>2024-08-10T07:21:38Z</time>
      </trkpt>
      <trkpt lat="45.07082" lon="6.20678">
        <ele>2237</ele>
        <time>2024-08-10T07:21:39Z</time>
      </trkpt>
      <trkpt lat="45.07082" lon="6.20678">
        <ele>2236.8</ele>
        <time>2024-08-10T07:21:40Z</time>
      </trkpt>
      <trkpt lat="45.07082" lon="6.20682">
        <ele>2236.6</ele>
        <time>2024-08-10T07:21:41Z</time>
      </trkpt>
      <trkpt lat="45.07082" lon="6.20682">
        <ele>2236.4</ele>
        <time>2024-08-10T07:21:42Z</time>
      </trkpt>
      <trkpt lat="45.0708" lon="6.20686">
        <ele>2235.6</ele>
        <time>2024-08-10T07:21:43Z</time>
      </trkpt>
      <trkpt lat="45.0708" lon="6.20686">
        <ele>2235.4</ele>
        <time>2024-08-10T07:21:44Z</time>
      </trkpt>
      <trkpt lat="45.0708" lon="6.2069">
        <ele>2235.4</ele>
        <time>2024-08-10T07:21:45Z</time>
      </trkpt>
      <trkpt lat="45.0708" lon="6.2069">
        <ele>2235.2</ele>
        <time>2024-08-10T07:21:46Z</time>
      </trkpt>
      <trkpt lat="45.0708" lon="6.20694">
        <ele>2235</ele>
        <time>2024-08-10T07:21:47Z</time>
      </trkpt>
      <trkpt lat="45.0708" lon="6.20694">
        <ele>2234.6</ele>
        <time>2024-08-10T07:21:48Z</time>
      </trkpt>
      <trkpt lat="45.0708" lon="6.20697">
        <ele>2234.4</ele>
        <time>2024-08-10T07:21:49Z</time>
      </trkpt>
      <trkpt lat="45.0708" lon="6.20697">
        <ele>2234.2</ele>
        <time>2024-08-10T07:21:50Z</time>
      </trkpt>
      <trkpt lat="45.0708" lon="6.20697">
        <ele>2234.2</ele>
        <time>2024-08-10T07:21:51Z</time>
      </trkpt>
      <trkpt lat="45.0708" lon="6.20697">
        <ele>2234.2</ele>
        <time>2024-08-10T07:21:52Z</time>
      </trkpt>
      <trkpt lat="45.0708" lon="6.20697">
        <ele>2234</ele>
        <time>2024-08-10T07:21:53Z</time>
      </trkpt>
      <trkpt lat="45.0708" lon="6.20697">
        <ele>2234.2</ele>
        <time>2024-08-10T07:21:54Z</time>
      </trkpt>
      <trkpt lat="45.0708" lon="6.20697">
        <ele>2234.2</ele>
        <time>2024-08-10T07:21:55Z</time>
      </trkpt>
      <trkpt lat="45.07081" lon="6.207">
        <ele>2234.2</ele>
        <time>2024-08-10T07:21:56Z</time>
      </trkpt>
      <trkpt lat="45.07081" lon="6.207">
        <ele>2234.2</ele>
        <time>2024-08-10T07:21:57Z</time>
      </trkpt>
      <trkpt lat="45.07081" lon="6.20705">
        <ele>2234.2</ele>
        <time>2024-08-10T07:21:58Z</time>
      </trkpt>
      <trkpt lat="45.07081" lon="6.20705">
        <ele>2234.2</ele>
        <time>2024-08-10T07:21:59Z</time>
      </trkpt>
      <trkpt lat="45.07081" lon="6.20709">
        <ele>2234</ele>
        <time>2024-08-10T07:22:00Z</time>
      </trkpt>
      <trkpt lat="45.07081" lon="6.20709">
        <ele>2233.8</ele>
        <time>2024-08-10T07:22:01Z</time>
      </trkpt>
      <trkpt lat="45.07082" lon="6.20714">
        <ele>2233.6</ele>
        <time>2024-08-10T07:22:02Z</time>
      </trkpt>
      <trkpt lat="45.07082" lon="6.20714">
        <ele>2233</ele>
        <time>2024-08-10T07:22:03Z</time>
      </trkpt>
      <trkpt lat="45.07081" lon="6.20718">
        <ele>2233</ele>
        <time>2024-08-10T07:22:04Z</time>
      </trkpt>
      <trkpt lat="45.07081" lon="6.20718">
        <ele>2232.6</ele>
        <time>2024-08-10T07:22:05Z</time>
      </trkpt>
      <trkpt lat="45.07081" lon="6.20722">
        <ele>2232.6</ele>
        <time>2024-08-10T07:22:06Z</time>
      </trkpt>
      <trkpt lat="45.07081" lon="6.20722">
        <ele>2232.6</ele>
        <time>2024-08-10T07:22:07Z</time>
      </trkpt>
      <trkpt lat="45.07081" lon="6.20726">
        <ele>2232.4</ele>
        <time>2024-08-10T07:22:08Z</time>
      </trkpt>
      <trkpt lat="45.07081" lon="6.20726">
        <ele>2232.4</ele>
        <time>2024-08-10T07:22:09Z</time>
      </trkpt>
      <trkpt lat="45.0708" lon="6.2073">
        <ele>2232.4</ele>
        <time>2024-08-10T07:22:10Z</time>
      </trkpt>
      <trkpt lat="45.0708" lon="6.2073">
        <ele>2232.2</ele>
        <time>2024-08-10T07:22:11Z</time>
      </trkpt>
      <trkpt lat="45.0708" lon="6.20734">
        <ele>2232</ele>
        <time>2024-08-10T07:22:12Z</time>
      </trkpt>
      <trkpt lat="45.0708" lon="6.20734">
        <ele>2232</ele>
        <time>2024-08-10T07:22:13Z</time>
      </trkpt>
      <trkpt lat="45.07079" lon="6.20738">
        <ele>2231.8</ele>
        <time>2024-08-10T07:22:14Z</time>
      </trkpt>
      <trkpt lat="45.07079" lon="6.20738">
        <ele>2231.8</ele>
        <time>2024-08-10T07:22:15Z</time>
      </trkpt>
      <trkpt lat="45.07079" lon="6.20742">
        <ele>2231.6</ele>
        <time>2024-08-10T07:22:16Z</time>
      </trkpt>
      <trkpt lat="45.07079" lon="6.20742">
        <ele>2231.4</ele>
        <time>2024-08-10T07:22:17Z</time>
      </trkpt>
      <trkpt lat="45.07079" lon="6.20746">
        <ele>2231.4</ele>
        <time>2024-08-10T07:22:18Z</time>
      </trkpt>
      <trkpt lat="45.07079" lon="6.20746">
        <ele>2231.6</ele>
        <time>2024-08-10T07:22:19Z</time>
      </trkpt>
      <trkpt lat="45.07078" lon="6.20751">
        <ele>2231.6</ele>
        <time>2024-08-10T07:22:20Z</time>
      </trkpt>
      <trkpt lat="45.07078" lon="6.20751">
        <ele>2231.4</ele>
        <time>2024-08-10T07:22:21Z</time>
      </trkpt>
      <trkpt lat="45.07078" lon="6.20755">
        <ele>2231.2</ele>
        <time>2024-08-10T07:22:22Z</time>
      </trkpt>
      <trkpt lat="45.07078" lon="6.20755">
        <ele>2231.2</ele>
        <time>2024-08-10T07:22:23Z</time>
      </trkpt>
      <trkpt lat="45.07078" lon="6.20759">
        <ele>2231</ele>
        <time>2024-08-10T07:22:24Z</time>
      </trkpt>
      <trkpt lat="45.07078" lon="6.20759">
        <ele>2231</ele>
        <time>2024-08-10T07:22:25Z</time>
      </trkpt>
      <trkpt lat="45.07077" lon="6.20763">
        <ele>2230.8</ele>
        <time>2024-08-10T07:22:26Z</time>
      </trkpt>
      <trkpt lat="45.07077" lon="6.20763">
        <ele>2230.8</ele>
        <time>2024-08-10T07:22:27Z</time>
      </trkpt>
      <trkpt lat="45.07077" lon="6.20767">
        <ele>2230.8</ele>
        <time>2024-08-10T07:22:28Z</time>
      </trkpt>
      <trkpt lat="45.07077" lon="6.20767">
        <ele>2230.8</ele>
        <time>2024-08-10T07:22:29Z</time>
      </trkpt>
      <trkpt lat="45.07076" lon="6.20771">
        <ele>2230.8</ele>
        <time>2024-08-10T07:22:30Z</time>
      </trkpt>
      <trkpt lat="45.07076" lon="6.20771">
        <ele>2230.6</ele>
        <time>2024-08-10T07:22:31Z</time>
      </trkpt>
      <trkpt lat="45.07075" lon="6.20774">
        <ele>2230.6</ele>
        <time>2024-08-10T07:22:32Z</time>
      </trkpt>
      <trkpt lat="45.07075" lon="6.20774">
        <ele>2230.6</ele>
        <time>2024-08-10T07:22:33Z</time>
      </trkpt>
      <trkpt lat="45.07074" lon="6.20778">
        <ele>2230.6</ele>
        <time>2024-08-10T07:22:34Z</time>
      </trkpt>
      <trkpt lat="45.07074" lon="6.20778">
        <ele>2230.4</ele>
        <time>2024-08-10T07:22:35Z</time>
      </trkpt>
      <trkpt lat="45.07074" lon="6.20782">
        <ele>2230.4</ele>
        <time>2024-08-10T07:22:36Z</time>
      </trkpt>
      <trkpt lat="45.07074" lon="6.20782">
        <ele>2230.4</ele>
        <time>2024-08-10T07:22:37Z</time>
      </trkpt>
      <trkpt lat="45.07074" lon="6.20786">
        <ele>2230.2</ele>
        <time>2024-08-10T07:22:38Z</time>
      </trkpt>
      <trkpt lat="45.07074" lon="6.20786">
        <ele>2230.2</ele>
        <time>2024-08-10T07:22:39Z</time>
      </trkpt>
      <trkpt lat="45.07073" lon="6.2079">
        <ele>2230</ele>
        <time>2024-08-10T07:22:40Z</time>
      </trkpt>
      <trkpt lat="45.07073" lon="6.2079">
        <ele>2229.8</ele>
        <time>2024-08-10T07:22:41Z</time>
      </trkpt>
      <trkpt lat="45.07073" lon="6.20794">
        <ele>2229.6</ele>
        <time>2024-08-10T07:22:42Z</time>
      </trkpt>
      <trkpt lat="45.07073" lon="6.20794">
        <ele>2229.4</ele>
        <time>2024-08-10T07:22:43Z</time>
      </trkpt>
      <trkpt lat="45.07072" lon="6.20797">
        <ele>2229.4</ele>
        <time>2024-08-10T07:22:44Z</time>
      </trkpt>
      <trkpt lat="45.07072" lon="6.20797">
        <ele>2229.2</ele>
        <time>2024-08-10T07:22:45Z</time>
      </trkpt>
      <trkpt lat="45.07071" lon="6.20801">
        <ele>2228.8</ele>
        <time>2024-08-10T07:22:46Z</time>
      </trkpt>
      <trkpt lat="45.07071" lon="6.20801">
        <ele>2228.8</ele>
        <time>2024-08-10T07:22:47Z</time>
      </trkpt>
      <trkpt lat="45.0707" lon="6.20805">
        <ele>2228.6</ele>
        <time>2024-08-10T07:22:48Z</time>
      </trkpt>
      <trkpt lat="45.0707" lon="6.20805">
        <ele>2228.6</ele>
        <time>2024-08-10T07:22:49Z</time>
      </trkpt>
      <trkpt lat="45.0707" lon="6.20809">
        <ele>2228.6</ele>
        <time>2024-08-10T07:22:50Z</time>
      </trkpt>
      <trkpt lat="45.0707" lon="6.20809">
        <ele>2228.4</ele>
        <time>2024-08-10T07:22:51Z</time>
      </trkpt>
      <trkpt lat="45.07069" lon="6.20813">
        <ele>2228.2</ele>
        <time>2024-08-10T07:22:52Z</time>
      </trkpt>
      <trkpt lat="45.07069" lon="6.20813">
        <ele>2228.2</ele>
        <time>2024-08-10T07:22:53Z</time>
      </trkpt>
      <trkpt lat="45.07068" lon="6.20816">
        <ele>2228</ele>
        <time>2024-08-10T07:22:54Z</time>
      </trkpt>
      <trkpt lat="45.07068" lon="6.20816">
        <ele>2227.8</ele>
        <time>2024-08-10T07:22:55Z</time>
      </trkpt>
      <trkpt lat="45.07067" lon="6.2082">
        <ele>2227.8</ele>
        <time>2024-08-10T07:22:56Z</time>
      </trkpt>
      <trkpt lat="45.07067" lon="6.2082">
        <ele>2227.6</ele>
        <time>2024-08-10T07:22:57Z</time>
      </trkpt>
      <trkpt lat="45.07066" lon="6.20823">
        <ele>2227.6</ele>
        <time>2024-08-10T07:22:58Z</time>
      </trkpt>
      <trkpt lat="45.07066" lon="6.20823">
        <ele>2227.6</ele>
        <time>2024-08-10T07:22:59Z</time>
      </trkpt>
      <trkpt lat="45.07064" lon="6.20826">
        <ele>2227.8</ele>
        <time>2024-08-10T07:23:00Z</time>
      </trkpt>
      <trkpt lat="45.07064" lon="6.20826">
        <ele>2227.8</ele>
        <time>2024-08-10T07:23:01Z</time>
      </trkpt>
      <trkpt lat="45.07063" lon="6.2083">
        <ele>2227.8</ele>
        <time>2024-08-10T07:23:02Z</time>
      </trkpt>
      <trkpt lat="45.07063" lon="6.2083">
        <ele>2227.8</ele>
        <time>2024-08-10T07:23:03Z</time>
      </trkpt>
      <trkpt lat="45.07062" lon="6.20833">
        <ele>2227.8</ele>
        <time>2024-08-10T07:23:04Z</time>
      </trkpt>
      <trkpt lat="45.07062" lon="6.20833">
        <ele>2227.8</ele>
        <time>2024-08-10T07:23:05Z</time>
      </trkpt>
      <trkpt lat="45.07061" lon="6.20836">
        <ele>2227.8</ele>
        <time>2024-08-10T07:23:06Z</time>
      </trkpt>
      <trkpt lat="45.07061" lon="6.20836">
        <ele>2227.8</ele>
        <time>2024-08-10T07:23:07Z</time>
      </trkpt>
      <trkpt lat="45.0706" lon="6.2084">
        <ele>2228</ele>
        <time>2024-08-10T07:23:08Z</time>
      </trkpt>
      <trkpt lat="45.0706" lon="6.2084">
        <ele>2228.2</ele>
        <time>2024-08-10T07:23:09Z</time>
      </trkpt>
      <trkpt lat="45.07059" lon="6.20843">
        <ele>2228.2</ele>
        <time>2024-08-10T07:23:10Z</time>
      </trkpt>
      <trkpt lat="45.07059" lon="6.20843">
        <ele>2228.2</ele>
        <time>2024-08-10T07:23:11Z</time>
      </trkpt>
      <trkpt lat="45.07058" lon="6.20846">
        <ele>2228.2</ele>
        <time>2024-08-10T07:23:12Z</time>
      </trkpt>
      <trkpt lat="45.07058" lon="6.20846">
        <ele>2228.6</ele>
        <time>2024-08-10T07:23:13Z</time>
      </trkpt>
      <trkpt lat="45.07057" lon="6.2085">
        <ele>2228.6</ele>
        <time>2024-08-10T07:23:14Z</time>
      </trkpt>
      <trkpt lat="45.07057" lon="6.2085">
        <ele>2228.6</ele>
        <time>2024-08-10T07:23:15Z</time>
      </trkpt>
      <trkpt lat="45.07056" lon="6.20854">
        <ele>2228.4</ele>
        <time>2024-08-10T07:23:16Z</time>
      </trkpt>
      <trkpt lat="45.07056" lon="6.20854">
        <ele>2228.4</ele>
        <time>2024-08-10T07:23:17Z</time>
      </trkpt>
      <trkpt lat="45.07054" lon="6.20857">
        <ele>2228.2</ele>
        <time>2024-08-10T07:23:18Z</time>
      </trkpt>
      <trkpt lat="45.07054" lon="6.20857">
        <ele>2227.8</ele>
        <time>2024-08-10T07:23:19Z</time>
      </trkpt>
      <trkpt lat="45.07052" lon="6.2086">
        <ele>2227.4</ele>
        <time>2024-08-10T07:23:20Z</time>
      </trkpt>
      <trkpt lat="45.07052" lon="6.2086">
        <ele>2227.2</ele>
        <time>2024-08-10T07:23:21Z</time>
      </trkpt>
      <trkpt lat="45.0705" lon="6.20863">
        <ele>2227</ele>
        <time>2024-08-10T07:23:22Z</time>
      </trkpt>
      <trkpt lat="45.0705" lon="6.20863">
        <ele>2226.8</ele>
        <time>2024-08-10T07:23:23Z</time>
      </trkpt>
      <trkpt lat="45.07048" lon="6.20866">
        <ele>2226.8</ele>
        <time>2024-08-10T07:23:24Z</time>
      </trkpt>
      <trkpt lat="45.07048" lon="6.20866">
        <ele>2226.6</ele>
        <time>2024-08-10T07:23:25Z</time>
      </trkpt>
      <trkpt lat="45.07046" lon="6.20869">
        <ele>2226.6</ele>
        <time>2024-08-10T07:23:26Z</time>
      </trkpt>
      <trkpt lat="45.07046" lon="6.20869">
        <ele>2226.6</ele>
        <time>2024-08-10T07:23:27Z</time>
      </trkpt>
      <trkpt lat="45.07045" lon="6.20872">
        <ele>2226.6</ele>
        <time>2024-08-10T07:23:28Z</time>
      </trkpt>
      <trkpt lat="45.07045" lon="6.20872">
        <ele>2226.6</ele>
        <time>2024-08-10T07:23:29Z</time>
      </trkpt>
      <trkpt lat="45.07044" lon="6.20876">
        <ele>2226.6</ele>
        <time>2024-08-10T07:23:30Z</time>
      </trkpt>
      <trkpt lat="45.07044" lon="6.20876">
        <ele>2226.6</ele>
        <time>2024-08-10T07:23:31Z</time>
      </trkpt>
      <trkpt lat="45.07043" lon="6.2088">
        <ele>2226.6</ele>
        <time>2024-08-10T07:23:32Z</time>
      </trkpt>
      <trkpt lat="45.07043" lon="6.2088">
        <ele>2226.6</ele>
        <time>2024-08-10T07:23:33Z</time>
      </trkpt>
      <trkpt lat="45.07042" lon="6.20883">
        <ele>2226.6</ele>
        <time>2024-08-10T07:23:34Z</time>
      </trkpt>
      <trkpt lat="45.07042" lon="6.20883">
        <ele>2226.6</ele>
        <time>2024-08-10T07:23:35Z</time>
      </trkpt>
      <trkpt lat="45.07041" lon="6.20887">
        <ele>2226.6</ele>
        <time>2024-08-10T07:23:36Z</time>
      </trkpt>
      <trkpt lat="45.07041" lon="6.20887">
        <ele>2226.6</ele>
        <time>2024-08-10T07:23:37Z</time>
      </trkpt>
      <trkpt lat="45.0704" lon="6.20891">
        <ele>2226.6</ele>
        <time>2024-08-10T07:23:38Z</time>
      </trkpt>
      <trkpt lat="45.0704" lon="6.20891">
        <ele>2226.6</ele>
        <time>2024-08-10T07:23:39Z</time>
      </trkpt>
      <trkpt lat="45.07039" lon="6.20895">
        <ele>2226.6</ele>
        <time>2024-08-10T07:23:40Z</time>
      </trkpt>
      <trkpt lat="45.07039" lon="6.20895">
        <ele>2226.6</ele>
        <time>2024-08-10T07:23:41Z</time>
      </trkpt>
      <trkpt lat="45.07039" lon="6.20899">
        <ele>2226.6</ele>
        <time>2024-08-10T07:23:42Z</time>
      </trkpt>
      <trkpt lat="45.07039" lon="6.20899">
        <ele>2226.8</ele>
        <time>2024-08-10T07:23:43Z</time>
      </trkpt>
      <trkpt lat="45.07039" lon="6.20903">
        <ele>2226.8</ele>
        <time>2024-08-10T07:23:44Z</time>
      </trkpt>
      <trkpt lat="45.07039" lon="6.20903">
        <ele>2226.8</ele>
        <time>2024-08-10T07:23:45Z</time>
      </trkpt>
      <trkpt lat="45.07038" lon="6.20907">
        <ele>2227</ele>
        <time>2024-08-10T07:23:46Z</time>
      </trkpt>
      <trkpt lat="45.07038" lon="6.20907">
        <ele>2227</ele>
        <time>2024-08-10T07:23:47Z</time>
      </trkpt>
      <trkpt lat="45.07038" lon="6.2091">
        <ele>2227</ele>
        <time>2024-08-10T07:23:48Z</time>
      </trkpt>
      <trkpt lat="45.07038" lon="6.2091">
        <ele>2227</ele>
        <time>2024-08-10T07:23:49Z</time>
      </trkpt>
      <trkpt lat="45.07037" lon="6.20914">
        <ele>2227</ele>
        <time>2024-08-10T07:23:50Z</time>
      </trkpt>
      <trkpt lat="45.07037" lon="6.20914">
        <ele>2227</ele>
        <time>2024-08-10T07:23:51Z</time>
      </trkpt>
      <trkpt lat="45.07037" lon="6.20918">
        <ele>2227</ele>
        <time>2024-08-10T07:23:52Z</time>
      </trkpt>
      <trkpt lat="45.07037" lon="6.20918">
        <ele>2227</ele>
        <time>2024-08-10T07:23:53Z</time>
      </trkpt>
      <trkpt lat="45.07036" lon="6.20921">
        <ele>2227.2</ele>
        <time>2024-08-10T07:23:54Z</time>
      </trkpt>
      <trkpt lat="45.07036" lon="6.20921">
        <ele>2227.4</ele>
        <time>2024-08-10T07:23:55Z</time>
      </trkpt>
      <trkpt lat="45.07034" lon="6.20924">
        <ele>2227.4</ele>
        <time>2024-08-10T07:23:56Z</time>
      </trkpt>
      <trkpt lat="45.07034" lon="6.20924">
        <ele>2227.2</ele>
        <time>2024-08-10T07:23:57Z</time>
      </trkpt>
      <trkpt lat="45.07032" lon="6.20927">
        <ele>2227.2</ele>
        <time>2024-08-10T07:23:58Z</time>
      </trkpt>
      <trkpt lat="45.07032" lon="6.20927">
        <ele>2227.4</ele>
        <time>2024-08-10T07:23:59Z</time>
      </trkpt>
      <trkpt lat="45.07031" lon="6.2093">
        <ele>2227.4</ele>
        <time>2024-08-10T07:24:00Z</time>
      </trkpt>
      <trkpt lat="45.07031" lon="6.2093">
        <ele>2227.2</ele>
        <time>2024-08-10T07:24:01Z</time>
      </trkpt>
      <trkpt lat="45.0703" lon="6.20933">
        <ele>2227.2</ele>
        <time>2024-08-10T07:24:02Z</time>
      </trkpt>
      <trkpt lat="45.0703" lon="6.20933">
        <ele>2226.8</ele>
        <time>2024-08-10T07:24:03Z</time>
      </trkpt>
      <trkpt lat="45.07029" lon="6.20937">
        <ele>2226.8</ele>
        <time>2024-08-10T07:24:04Z</time>
      </trkpt>
      <trkpt lat="45.07029" lon="6.20937">
        <ele>2226.8</ele>
        <time>2024-08-10T07:24:05Z</time>
      </trkpt>
      <trkpt lat="45.07028" lon="6.20941">
        <ele>2226.8</ele>
        <time>2024-08-10T07:24:06Z</time>
      </trkpt>
      <trkpt lat="45.07028" lon="6.20941">
        <ele>2227</ele>
        <time>2024-08-10T07:24:07Z</time>
      </trkpt>
      <trkpt lat="45.07027" lon="6.20945">
        <ele>2227</ele>
        <time>2024-08-10T07:24:08Z</time>
      </trkpt>
      <trkpt lat="45.07027" lon="6.20945">
        <ele>2227</ele>
        <time>2024-08-10T07:24:09Z</time>
      </trkpt>
      <trkpt lat="45.07026" lon="6.20948">
        <ele>2226.8</ele>
        <time>2024-08-10T07:24:10Z</time>
      </trkpt>
      <trkpt lat="45.07026" lon="6.20948">
        <ele>2226.8</ele>
        <time>2024-08-10T07:24:11Z</time>
      </trkpt>
      <trkpt lat="45.07025" lon="6.20952">
        <ele>2226.6</ele>
        <time>2024-08-10T07:24:12Z</time>
      </trkpt>
      <trkpt lat="45.07025" lon="6.20952">
        <ele>2226.6</ele>
        <time>2024-08-10T07:24:13Z</time>
      </trkpt>
      <trkpt lat="45.07024" lon="6.20956">
        <ele>2226.6</ele>
        <time>2024-08-10T07:24:14Z</time>
      </trkpt>
      <trkpt lat="45.07024" lon="6.20956">
        <ele>2226.8</ele>
        <time>2024-08-10T07:24:15Z</time>
      </trkpt>
      <trkpt lat="45.07024" lon="6.2096">
        <ele>2226.8</ele>
        <time>2024-08-10T07:24:16Z</time>
      </trkpt>
      <trkpt lat="45.07024" lon="6.2096">
        <ele>2226.8</ele>
        <time>2024-08-10T07:24:17Z</time>
      </trkpt>
      <trkpt lat="45.07022" lon="6.20964">
        <ele>2226.8</ele>
        <time>2024-08-10T07:24:18Z</time>
      </trkpt>
      <trkpt lat="45.07022" lon="6.20964">
        <ele>2226.8</ele>
        <time>2024-08-10T07:24:19Z</time>
      </trkpt>
      <trkpt lat="45.07021" lon="6.20967">
        <ele>2226.8</ele>
        <time>2024-08-10T07:24:20Z</time>
      </trkpt>
      <trkpt lat="45.07021" lon="6.20967">
        <ele>2226.8</ele>
        <time>2024-08-10T07:24:21Z</time>
      </trkpt>
      <trkpt lat="45.0702" lon="6.2097">
        <ele>2226.8</ele>
        <time>2024-08-10T07:24:22Z</time>
      </trkpt>
      <trkpt lat="45.0702" lon="6.2097">
        <ele>2226.8</ele>
        <time>2024-08-10T07:24:23Z</time>
      </trkpt>
      <trkpt lat="45.07018" lon="6.20974">
        <ele>2226.8</ele>
        <time>2024-08-10T07:24:24Z</time>
      </trkpt>
      <trkpt lat="45.07018" lon="6.20974">
        <ele>2226.8</ele>
        <time>2024-08-10T07:24:25Z</time>
      </trkpt>
      <trkpt lat="45.07017" lon="6.20977">
        <ele>2226.6</ele>
        <time>2024-08-10T07:24:26Z</time>
      </trkpt>
      <trkpt lat="45.07017" lon="6.20977">
        <ele>2226.6</ele>
        <time>2024-08-10T07:24:27Z</time>
      </trkpt>
      <trkpt lat="45.07016" lon="6.2098">
        <ele>2226.6</ele>
        <time>2024-08-10T07:24:28Z</time>
      </trkpt>
      <trkpt lat="45.07016" lon="6.2098">
        <ele>2226.6</ele>
        <time>2024-08-10T07:24:29Z</time>
      </trkpt>
      <trkpt lat="45.07015" lon="6.20983">
        <ele>2226.6</ele>
        <time>2024-08-10T07:24:30Z</time>
      </trkpt>
      <trkpt lat="45.07015" lon="6.20983">
        <ele>2226.6</ele>
        <time>2024-08-10T07:24:31Z</time>
      </trkpt>
      <trkpt lat="45.07013" lon="6.20987">
        <ele>2226.6</ele>
        <time>2024-08-10T07:24:32Z</time>
      </trkpt>
      <trkpt lat="45.07013" lon="6.20987">
        <ele>2226.6</ele>
        <time>2024-08-10T07:24:33Z</time>
      </trkpt>
      <trkpt lat="45.07012" lon="6.2099">
        <ele>2226.6</ele>
        <time>2024-08-10T07:24:34Z</time>
      </trkpt>
      <trkpt lat="45.07012" lon="6.2099">
        <ele>2226.4</ele>
        <time>2024-08-10T07:24:35Z</time>
      </trkpt>
      <trkpt lat="45.07011" lon="6.20993">
        <ele>2226.6</ele>
        <time>2024-08-10T07:24:36Z</time>
      </trkpt>
      <trkpt lat="45.07011" lon="6.20993">
        <ele>2226.6</ele>
        <time>2024-08-10T07:24:37Z</time>
      </trkpt>
      <trkpt lat="45.0701" lon="6.20996">
        <ele>2226.6</ele>
        <time>2024-08-10T07:24:38Z</time>
      </trkpt>
      <trkpt lat="45.0701" lon="6.20996">
        <ele>2226.8</ele>
        <time>2024-08-10T07:24:39Z</time>
      </trkpt>
      <trkpt lat="45.07008" lon="6.20999">
        <ele>2227</ele>
        <time>2024-08-10T07:24:40Z</time>
      </trkpt>
      <trkpt lat="45.07008" lon="6.20999">
        <ele>2227</ele>
        <time>2024-08-10T07:24:41Z</time>
      </trkpt>
      <trkpt lat="45.07006" lon="6.21002">
        <ele>2227.2</ele>
        <time>2024-08-10T07:24:42Z</time>
      </trkpt>
      <trkpt lat="45.07006" lon="6.21002">
        <ele>2227.2</ele>
        <time>2024-08-10T07:24:43Z</time>
      </trkpt>
      <trkpt lat="45.07005" lon="6.21006">
        <ele>2227.2</ele>
        <time>2024-08-10T07:24:44Z</time>
      </trkpt>
      <trkpt lat="45.07005" lon="6.21006">
        <ele>2227.2</ele>
        <time>2024-08-10T07:24:45Z</time>
      </trkpt>
      <trkpt lat="45.07003" lon="6.21009">
        <ele>2226.8</ele>
        <time>2024-08-10T07:24:46Z</time>
      </trkpt>
      <trkpt lat="45.07003" lon="6.21009">
        <ele>2226.8</ele>
        <time>2024-08-10T07:24:47Z</time>
      </trkpt>
      <trkpt lat="45.07001" lon="6.21011">
        <ele>2226.8</ele>
        <time>2024-08-10T07:24:48Z</time>
      </trkpt>
      <trkpt lat="45.07001" lon="6.21011">
        <ele>2226.6</ele>
        <time>2024-08-10T07:24:49Z</time>
      </trkpt>
      <trkpt lat="45.06999" lon="6.21014">
        <ele>2226.6</ele>
        <time>2024-08-10T07:24:50Z</time>
      </trkpt>
      <trkpt lat="45.06999" lon="6.21014">
        <ele>2226.4</ele>
        <time>2024-08-10T07:24:51Z</time>
      </trkpt>
      <trkpt lat="45.06997" lon="6.21017">
        <ele>2226.2</ele>
        <time>2024-08-10T07:24:52Z</time>
      </trkpt>
      <trkpt lat="45.06997" lon="6.21017">
        <ele>2226.2</ele>
        <time>2024-08-10T07:24:53Z</time>
      </trkpt>
      <trkpt lat="45.06995" lon="6.2102">
        <ele>2226.2</ele>
        <time>2024-08-10T07:24:54Z</time>
      </trkpt>
      <trkpt lat="45.06995" lon="6.2102">
        <ele>2226.2</ele>
        <time>2024-08-10T07:24:55Z</time>
      </trkpt>
      <trkpt lat="45.06993" lon="6.21022">
        <ele>2226</ele>
        <time>2024-08-10T07:24:56Z</time>
      </trkpt>
      <trkpt lat="45.06993" lon="6.21022">
        <ele>2225.6</ele>
        <time>2024-08-10T07:24:57Z</time>
      </trkpt>
      <trkpt lat="45.06991" lon="6.21025">
        <ele>2225.6</ele>
        <time>2024-08-10T07:24:58Z</time>
      </trkpt>
      <trkpt lat="45.06991" lon="6.21025">
        <ele>2225.2</ele>
        <time>2024-08-10T07:24:59Z</time>
      </trkpt>
      <trkpt lat="45.06989" lon="6.21028">
        <ele>2224.8</ele>
        <time>2024-08-10T07:25:00Z</time>
      </trkpt>
      <trkpt lat="45.06989" lon="6.21028">
        <ele>2224.8</ele>
        <time>2024-08-10T07:25:01Z</time>
      </trkpt>
      <trkpt lat="45.06987" lon="6.21031">
        <ele>2224.6</ele>
        <time>2024-08-10T07:25:02Z</time>
      </trkpt>
      <trkpt lat="45.06987" lon="6.21031">
        <ele>2224.2</ele>
        <time>2024-08-10T07:25:03Z</time>
      </trkpt>
      <trkpt lat="45.06985" lon="6.21034">
        <ele>2224.2</ele>
        <time>2024-08-10T07:25:04Z</time>
      </trkpt>
      <trkpt lat="45.06985" lon="6.21034">
        <ele>2224.2</ele>
        <time>2024-08-10T07:25:05Z</time>
      </trkpt>
      <trkpt lat="45.06983" lon="6.21036">
        <ele>2224</ele>
        <time>2024-08-10T07:25:06Z</time>
      </trkpt>
      <trkpt lat="45.06983" lon="6.21036">
        <ele>2223.8</ele>
        <time>2024-08-10T07:25:07Z</time>
      </trkpt>
      <trkpt lat="45.06981" lon="6.21039">
        <ele>2223.6</ele>
        <time>2024-08-10T07:25:08Z</time>
      </trkpt>
      <trkpt lat="45.06981" lon="6.21039">
        <ele>2223.6</ele>
        <time>2024-08-10T07:25:09Z</time>
      </trkpt>
      <trkpt lat="45.06979" lon="6.21042">
        <ele>2223.4</ele>
        <time>2024-08-10T07:25:10Z</time>
      </trkpt>
      <trkpt lat="45.06979" lon="6.21042">
        <ele>2223.2</ele>
        <time>2024-08-10T07:25:11Z</time>
      </trkpt>
      <trkpt lat="45.06976" lon="6.21044">
        <ele>2223.2</ele>
        <time>2024-08-10T07:25:12Z</time>
      </trkpt>
      <trkpt lat="45.06976" lon="6.21044">
        <ele>2223</ele>
        <time>2024-08-10T07:25:13Z</time>
      </trkpt>
      <trkpt lat="45.06974" lon="6.21047">
        <ele>2222.8</ele>
        <time>2024-08-10T07:25:14Z</time>
      </trkpt>
      <trkpt lat="45.06974" lon="6.21047">
        <ele>2222.4</ele>
        <time>2024-08-10T07:25:15Z</time>
      </trkpt>
      <trkpt lat="45.06972" lon="6.2105">
        <ele>2222.4</ele>
        <time>2024-08-10T07:25:16Z</time>
      </trkpt>
      <trkpt lat="45.06972" lon="6.2105">
        <ele>2222</ele>
        <time>2024-08-10T07:25:17Z</time>
      </trkpt>
      <trkpt lat="45.06971" lon="6.21054">
        <ele>2222</ele>
        <time>2024-08-10T07:25:18Z</time>
      </trkpt>
      <trkpt lat="45.06971" lon="6.21054">
        <ele>2222</ele>
        <time>2024-08-10T07:25:19Z</time>
      </trkpt>
      <trkpt lat="45.06969" lon="6.21057">
        <ele>2221.8</ele>
        <time>2024-08-10T07:25:20Z</time>
      </trkpt>
      <trkpt lat="45.06969" lon="6.21057">
        <ele>2221.6</ele>
        <time>2024-08-10T07:25:21Z</time>
      </trkpt>
      <trkpt lat="45.06968" lon="6.2106">
        <ele>2221.6</ele>
        <time>2024-08-10T07:25:22Z</time>
      </trkpt>
      <trkpt lat="45.06968" lon="6.2106">
        <ele>2221.4</ele>
        <time>2024-08-10T07:25:23Z</time>
      </trkpt>
      <trkpt lat="45.06966" lon="6.21063">
        <ele>2221.4</ele>
        <time>2024-08-10T07:25:24Z</time>
      </trkpt>
      <trkpt lat="45.06966" lon="6.21063">
        <ele>2221.2</ele>
        <time>2024-08-10T07:25:25Z</time>
      </trkpt>
      <trkpt lat="45.06965" lon="6.21067">
        <ele>2221.2</ele>
        <time>2024-08-10T07:25:26Z</time>
      </trkpt>
      <trkpt lat="45.06965" lon="6.21067">
        <ele>2221.2</ele>
        <time>2024-08-10T07:25:27Z</time>
      </trkpt>
      <trkpt lat="45.06963" lon="6.2107">
        <ele>2221.2</ele>
        <time>2024-08-10T07:25:28Z</time>
      </trkpt>
      <trkpt lat="45.06963" lon="6.2107">
        <ele>2221</ele>
        <time>2024-08-10T07:25:29Z</time>
      </trkpt>
      <trkpt lat="45.06962" lon="6.21073">
        <ele>2220.8</ele>
        <time>2024-08-10T07:25:30Z</time>
      </trkpt>
      <trkpt lat="45.06962" lon="6.21073">
        <ele>2220.8</ele>
        <time>2024-08-10T07:25:31Z</time>
      </trkpt>
      <trkpt lat="45.06961" lon="6.21076">
        <ele>2220.8</ele>
        <time>2024-08-10T07:25:32Z</time>
      </trkpt>
      <trkpt lat="45.06961" lon="6.21076">
        <ele>2220.8</ele>
        <time>2024-08-10T07:25:33Z</time>
      </trkpt>
      <trkpt lat="45.06959" lon="6.2108">
        <ele>2220.8</ele>
        <time>2024-08-10T07:25:34Z</time>
      </trkpt>
      <trkpt lat="45.06959" lon="6.2108">
        <ele>2220.8</ele>
        <time>2024-08-10T07:25:35Z</time>
      </trkpt>
      <trkpt lat="45.06958" lon="6.21083">
        <ele>2220.6</ele>
        <time>2024-08-10T07:25:36Z</time>
      </trkpt>
      <trkpt lat="45.06958" lon="6.21083">
        <ele>2220.6</ele>
        <time>2024-08-10T07:25:37Z</time>
      </trkpt>
      <trkpt lat="45.06957" lon="6.21087">
        <ele>2220.6</ele>
        <time>2024-08-10T07:25:38Z</time>
      </trkpt>
      <trkpt lat="45.06957" lon="6.21087">
        <ele>2220.6</ele>
        <time>2024-08-10T07:25:39Z</time>
      </trkpt>
      <trkpt lat="45.06956" lon="6.2109">
        <ele>2220.6</ele>
        <time>2024-08-10T07:25:40Z</time>
      </trkpt>
      <trkpt lat="45.06956" lon="6.2109">
        <ele>2220.6</ele>
        <time>2024-08-10T07:25:41Z</time>
      </trkpt>
      <trkpt lat="45.06955" lon="6.21094">
        <ele>2220.6</ele>
        <time>2024-08-10T07:25:42Z</time>
      </trkpt>
      <trkpt lat="45.06955" lon="6.21094">
        <ele>2220.6</ele>
        <time>2024-08-10T07:25:43Z</time>
      </trkpt>
      <trkpt lat="45.06954" lon="6.21097">
        <ele>2220.6</ele>
        <time>2024-08-10T07:25:44Z</time>
      </trkpt>
      <trkpt lat="45.06954" lon="6.21097">
        <ele>2220.6</ele>
        <time>2024-08-10T07:25:45Z</time>
      </trkpt>
      <trkpt lat="45.06952" lon="6.211">
        <ele>2220.6</ele>
        <time>2024-08-10T07:25:46Z</time>
      </trkpt>
      <trkpt lat="45.06952" lon="6.211">
        <ele>2220.8</ele>
        <time>2024-08-10T07:25:47Z</time>
      </trkpt>
      <trkpt lat="45.0695" lon="6.21103">
        <ele>2220.8</ele>
        <time>2024-08-10T07:25:48Z</time>
      </trkpt>
      <trkpt lat="45.0695" lon="6.21103">
        <ele>2220.6</ele>
        <time>2024-08-10T07:25:49Z</time>
      </trkpt>
      <trkpt lat="45.06948" lon="6.21105">
        <ele>2220.6</ele>
        <time>2024-08-10T07:25:50Z</time>
      </trkpt>
      <trkpt lat="45.06948" lon="6.21105">
        <ele>2220.6</ele>
        <time>2024-08-10T07:25:51Z</time>
      </trkpt>
      <trkpt lat="45.06946" lon="6.21108">
        <ele>2220.6</ele>
        <time>2024-08-10T07:25:52Z</time>
      </trkpt>
      <trkpt lat="45.06946" lon="6.21108">
        <ele>2220.4</ele>
        <time>2024-08-10T07:25:53Z</time>
      </trkpt>
      <trkpt lat="45.06944" lon="6.21111">
        <ele>2220.4</ele>
        <time>2024-08-10T07:25:54Z</time>
      </trkpt>
      <trkpt lat="45.06944" lon="6.21111">
        <ele>2220.4</ele>
        <time>2024-08-10T07:25:55Z</time>
      </trkpt>
      <trkpt lat="45.06942" lon="6.21114">
        <ele>2220.8</ele>
        <time>2024-08-10T07:25:56Z</time>
      </trkpt>
      <trkpt lat="45.06942" lon="6.21114">
        <ele>2221</ele>
        <time>2024-08-10T07:25:57Z</time>
      </trkpt>
      <trkpt lat="45.06941" lon="6.21117">
        <ele>2221.2</ele>
        <time>2024-08-10T07:25:58Z</time>
      </trkpt>
      <trkpt lat="45.06941" lon="6.21117">
        <ele>2221.2</ele>
        <time>2024-08-10T07:25:59Z</time>
      </trkpt>
      <trkpt lat="45.0694" lon="6.2112">
        <ele>2221.6</ele>
        <time>2024-08-10T07:26:00Z</time>
      </trkpt>
      <trkpt lat="45.06939" lon="6.21122">
        <ele>2221.6</ele>
        <time>2024-08-10T07:26:01Z</time>
      </trkpt>
      <trkpt lat="45.06939" lon="6.21122">
        <ele>2221.8</ele>
        <time>2024-08-10T07:26:02Z</time>
      </trkpt>
      <trkpt lat="45.06937" lon="6.21125">
        <ele>2221.8</ele>
        <time>2024-08-10T07:26:03Z</time>
      </trkpt>
      <trkpt lat="45.06937" lon="6.21125">
        <ele>2221.8</ele>
        <time>2024-08-10T07:26:04Z</time>
      </trkpt>
      <trkpt lat="45.06936" lon="6.21127">
        <ele>2222.2</ele>
        <time>2024-08-10T07:26:05Z</time>
      </trkpt>
      <trkpt lat="45.06936" lon="6.21127">
        <ele>2222.4</ele>
        <time>2024-08-10T07:26:06Z</time>
      </trkpt>
      <trkpt lat="45.06935" lon="6.2113">
        <ele>2222.6</ele>
        <time>2024-08-10T07:26:07Z</time>
      </trkpt>
      <trkpt lat="45.06935" lon="6.2113">
        <ele>2222.6</ele>
        <time>2024-08-10T07:26:08Z</time>
      </trkpt>
      <trkpt lat="45.06934" lon="6.21133">
        <ele>2222.8</ele>
        <time>2024-08-10T07:26:09Z</time>
      </trkpt>
      <trkpt lat="45.06934" lon="6.21133">
        <ele>2223</ele>
        <time>2024-08-10T07:26:10Z</time>
      </trkpt>
      <trkpt lat="45.06932" lon="6.21136">
        <ele>2223</ele>
        <time>2024-08-10T07:26:11Z</time>
      </trkpt>
      <trkpt lat="45.06932" lon="6.21136">
        <ele>2223.2</ele>
        <time>2024-08-10T07:26:12Z</time>
      </trkpt>
      <trkpt lat="45.0693" lon="6.21139">
        <ele>2223.2</ele>
        <time>2024-08-10T07:26:13Z</time>
      </trkpt>
      <trkpt lat="45.0693" lon="6.21139">
        <ele>2223.2</ele>
        <time>2024-08-10T07:26:14Z</time>
      </trkpt>
      <trkpt lat="45.06929" lon="6.21141">
        <ele>2223.2</ele>
        <time>2024-08-10T07:26:15Z</time>
      </trkpt>
      <trkpt lat="45.06929" lon="6.21141">
        <ele>2223.2</ele>
        <time>2024-08-10T07:26:16Z</time>
      </trkpt>
      <trkpt lat="45.06927" lon="6.21144">
        <ele>2223.2</ele>
        <time>2024-08-10T07:26:17Z</time>
      </trkpt>
      <trkpt lat="45.06927" lon="6.21144">
        <ele>2223</ele>
        <time>2024-08-10T07:26:18Z</time>
      </trkpt>
      <trkpt lat="45.06925" lon="6.21149">
        <ele>2223</ele>
        <time>2024-08-10T07:26:19Z</time>
      </trkpt>
      <trkpt lat="45.06925" lon="6.21149">
        <ele>2223</ele>
        <time>2024-08-10T07:26:20Z</time>
      </trkpt>
      <trkpt lat="45.06925" lon="6.21153">
        <ele>2223</ele>
        <time>2024-08-10T07:26:21Z</time>
      </trkpt>
      <trkpt lat="45.06924" lon="6.21156">
        <ele>2223</ele>
        <time>2024-08-10T07:26:22Z</time>
      </trkpt>
      <trkpt lat="45.06923" lon="6.21158">
        <ele>2223</ele>
        <time>2024-08-10T07:26:23Z</time>
      </trkpt>
      <trkpt lat="45.06923" lon="6.21158">
        <ele>2223.4</ele>
        <time>2024-08-10T07:26:24Z</time>
      </trkpt>
      <trkpt lat="45.06921" lon="6.21162">
        <ele>2223.4</ele>
        <time>2024-08-10T07:26:25Z</time>
      </trkpt>
      <trkpt lat="45.06921" lon="6.21162">
        <ele>2223.2</ele>
        <time>2024-08-10T07:26:26Z</time>
      </trkpt>
      <trkpt lat="45.06919" lon="6.21166">
        <ele>2222.8</ele>
        <time>2024-08-10T07:26:27Z</time>
      </trkpt>
      <trkpt lat="45.06919" lon="6.21166">
        <ele>2222.4</ele>
        <time>2024-08-10T07:26:28Z</time>
      </trkpt>
      <trkpt lat="45.06919" lon="6.2117">
        <ele>2222.2</ele>
        <time>2024-08-10T07:26:29Z</time>
      </trkpt>
      <trkpt lat="45.06919" lon="6.2117">
        <ele>2221.8</ele>
        <time>2024-08-10T07:26:30Z</time>
      </trkpt>
      <trkpt lat="45.06918" lon="6.21174">
        <ele>2221.8</ele>
        <time>2024-08-10T07:26:31Z</time>
      </trkpt>
      <trkpt lat="45.06918" lon="6.21174">
        <ele>2222</ele>
        <time>2024-08-10T07:26:32Z</time>
      </trkpt>
      <trkpt lat="45.06917" lon="6.21178">
        <ele>2222.2</ele>
        <time>2024-08-10T07:26:33Z</time>
      </trkpt>
      <trkpt lat="45.06917" lon="6.21178">
        <ele>2222.2</ele>
        <time>2024-08-10T07:26:34Z</time>
      </trkpt>
      <trkpt lat="45.06916" lon="6.21181">
        <ele>2222.2</ele>
        <time>2024-08-10T07:26:35Z</time>
      </trkpt>
      <trkpt lat="45.06916" lon="6.21181">
        <ele>2222</ele>
        <time>2024-08-10T07:26:36Z</time>
      </trkpt>
      <trkpt lat="45.06915" lon="6.21183">
        <ele>2222.2</ele>
        <time>2024-08-10T07:26:37Z</time>
      </trkpt>
      <trkpt lat="45.06915" lon="6.21183">
        <ele>2222.2</ele>
        <time>2024-08-10T07:26:38Z</time>
      </trkpt>
      <trkpt lat="45.06915" lon="6.21187">
        <ele>2222.4</ele>
        <time>2024-08-10T07:26:39Z</time>
      </trkpt>
      <trkpt lat="45.06914" lon="6.21189">
        <ele>2222.4</ele>
        <time>2024-08-10T07:26:40Z</time>
      </trkpt>
      <trkpt lat="45.06914" lon="6.21189">
        <ele>2222.4</ele>
        <time>2024-08-10T07:26:41Z</time>
      </trkpt>
      <trkpt lat="45.06912" lon="6.21193">
        <ele>2222.6</ele>
        <time>2024-08-10T07:26:42Z</time>
      </trkpt>
      <trkpt lat="45.06912" lon="6.21193">
        <ele>2222.6</ele>
        <time>2024-08-10T07:26:43Z</time>
      </trkpt>
      <trkpt lat="45.0691" lon="6.21196">
        <ele>2222.6</ele>
        <time>2024-08-10T07:26:44Z</time>
      </trkpt>
      <trkpt lat="45.0691" lon="6.21196">
        <ele>2222.8</ele>
        <time>2024-08-10T07:26:45Z</time>
      </trkpt>
      <trkpt lat="45.06909" lon="6.212">
        <ele>2223.2</ele>
        <time>2024-08-10T07:26:46Z</time>
      </trkpt>
      <trkpt lat="45.06909" lon="6.212">
        <ele>2223.2</ele>
        <time>2024-08-10T07:26:47Z</time>
      </trkpt>
      <trkpt lat="45.06908" lon="6.21203">
        <ele>2223.2</ele>
        <time>2024-08-10T07:26:48Z</time>
      </trkpt>
      <trkpt lat="45.06908" lon="6.21203">
        <ele>2223.2</ele>
        <time>2024-08-10T07:26:49Z</time>
      </trkpt>
      <trkpt lat="45.06907" lon="6.21207">
        <ele>2223.4</ele>
        <time>2024-08-10T07:26:50Z</time>
      </trkpt>
      <trkpt lat="45.06907" lon="6.21207">
        <ele>2223.6</ele>
        <time>2024-08-10T07:26:51Z</time>
      </trkpt>
      <trkpt lat="45.06905" lon="6.2121">
        <ele>2223.6</ele>
        <time>2024-08-10T07:26:52Z</time>
      </trkpt>
      <trkpt lat="45.06903" lon="6.21212">
        <ele>2223.6</ele>
        <time>2024-08-10T07:26:53Z</time>
      </trkpt>
      <trkpt lat="45.06903" lon="6.21212">
        <ele>2223.6</ele>
        <time>2024-08-10T07:26:54Z</time>
      </trkpt>
      <trkpt lat="45.06901" lon="6.21216">
        <ele>2223.8</ele>
        <time>2024-08-10T07:26:55Z</time>
      </trkpt>
      <trkpt lat="45.06901" lon="6.21216">
        <ele>2223.8</ele>
        <time>2024-08-10T07:26:56Z</time>
      </trkpt>
      <trkpt lat="45.06901" lon="6.21219">
        <ele>2223.8</ele>
        <time>2024-08-10T07:26:57Z</time>
      </trkpt>
      <trkpt lat="45.06901" lon="6.21219">
        <ele>2223.8</ele>
        <time>2024-08-10T07:26:58Z</time>
      </trkpt>
      <trkpt lat="45.069" lon="6.21223">
        <ele>2223.8</ele>
        <time>2024-08-10T07:26:59Z</time>
      </trkpt>
      <trkpt lat="45.069" lon="6.21223">
        <ele>2223.8</ele>
        <time>2024-08-10T07:27:00Z</time>
      </trkpt>
      <trkpt lat="45.06899" lon="6.21227">
        <ele>2224</ele>
        <time>2024-08-10T07:27:01Z</time>
      </trkpt>
      <trkpt lat="45.06899" lon="6.21227">
        <ele>2224</ele>
        <time>2024-08-10T07:27:02Z</time>
      </trkpt>
      <trkpt lat="45.06897" lon="6.21231">
        <ele>2223.8</ele>
        <time>2024-08-10T07:27:03Z</time>
      </trkpt>
      <trkpt lat="45.06897" lon="6.21231">
        <ele>2223.8</ele>
        <time>2024-08-10T07:27:04Z</time>
      </trkpt>
      <trkpt lat="45.06897" lon="6.21235">
        <ele>2223.8</ele>
        <time>2024-08-10T07:27:05Z</time>
      </trkpt>
      <trkpt lat="45.06896" lon="6.21238">
        <ele>2224</ele>
        <time>2024-08-10T07:27:06Z</time>
      </trkpt>
      <trkpt lat="45.06896" lon="6.21238">
        <ele>2224</ele>
        <time>2024-08-10T07:27:07Z</time>
      </trkpt>
      <trkpt lat="45.06896" lon="6.21241">
        <ele>2224</ele>
        <time>2024-08-10T07:27:08Z</time>
      </trkpt>
      <trkpt lat="45.06896" lon="6.21241">
        <ele>2224</ele>
        <time>2024-08-10T07:27:09Z</time>
      </trkpt>
      <trkpt lat="45.06895" lon="6.21245">
        <ele>2223.8</ele>
        <time>2024-08-10T07:27:10Z</time>
      </trkpt>
      <trkpt lat="45.06895" lon="6.21245">
        <ele>2224</ele>
        <time>2024-08-10T07:27:11Z</time>
      </trkpt>
      <trkpt lat="45.06894" lon="6.21248">
        <ele>2224</ele>
        <time>2024-08-10T07:27:12Z</time>
      </trkpt>
      <trkpt lat="45.06894" lon="6.21248">
        <ele>2224</ele>
        <time>2024-08-10T07:27:13Z</time>
      </trkpt>
      <trkpt lat="45.06893" lon="6.21252">
        <ele>2224.2</ele>
        <time>2024-08-10T07:27:14Z</time>
      </trkpt>
      <trkpt lat="45.06893" lon="6.21252">
        <ele>2224.4</ele>
        <time>2024-08-10T07:27:15Z</time>
      </trkpt>
      <trkpt lat="45.06893" lon="6.21256">
        <ele>2224.4</ele>
        <time>2024-08-10T07:27:16Z</time>
      </trkpt>
      <trkpt lat="45.06893" lon="6.21256">
        <ele>2224.4</ele>
        <time>2024-08-10T07:27:17Z</time>
      </trkpt>
      <trkpt lat="45.06893" lon="6.21259">
        <ele>2224.2</ele>
        <time>2024-08-10T07:27:18Z</time>
      </trkpt>
      <trkpt lat="45.06893" lon="6.21259">
        <ele>2224.2</ele>
        <time>2024-08-10T07:27:19Z</time>
      </trkpt>
      <trkpt lat="45.06891" lon="6.21263">
        <ele>2224.2</ele>
        <time>2024-08-10T07:27:20Z</time>
      </trkpt>
      <trkpt lat="45.06891" lon="6.21263">
        <ele>2224.2</ele>
        <time>2024-08-10T07:27:21Z</time>
      </trkpt>
      <trkpt lat="45.0689" lon="6.21266">
        <ele>2224.2</ele>
        <time>2024-08-10T07:27:22Z</time>
      </trkpt>
      <trkpt lat="45.0689" lon="6.21266">
        <ele>2224.2</ele>
        <time>2024-08-10T07:27:23Z</time>
      </trkpt>
      <trkpt lat="45.06888" lon="6.21269">
        <ele>2224.2</ele>
        <time>2024-08-10T07:27:24Z</time>
      </trkpt>
      <trkpt lat="45.06888" lon="6.21269">
        <ele>2224.4</ele>
        <time>2024-08-10T07:27:25Z</time>
      </trkpt>
      <trkpt lat="45.06887" lon="6.21272">
        <ele>2224.6</ele>
        <time>2024-08-10T07:27:26Z</time>
      </trkpt>
      <trkpt lat="45.06887" lon="6.21272">
        <ele>2224.6</ele>
        <time>2024-08-10T07:27:27Z</time>
      </trkpt>
      <trkpt lat="45.06886" lon="6.21276">
        <ele>2224.6</ele>
        <time>2024-08-10T07:27:28Z</time>
      </trkpt>
      <trkpt lat="45.06886" lon="6.21276">
        <ele>2224.6</ele>
        <time>2024-08-10T07:27:29Z</time>
      </trkpt>
      <trkpt lat="45.06885" lon="6.21279">
        <ele>2224.2</ele>
        <time>2024-08-10T07:27:30Z</time>
      </trkpt>
      <trkpt lat="45.06885" lon="6.21279">
        <ele>2224.2</ele>
        <time>2024-08-10T07:27:31Z</time>
      </trkpt>
      <trkpt lat="45.06884" lon="6.21283">
        <ele>2224.2</ele>
        <time>2024-08-10T07:27:32Z</time>
      </trkpt>
      <trkpt lat="45.06884" lon="6.21283">
        <ele>2224.6</ele>
        <time>2024-08-10T07:27:33Z</time>
      </trkpt>
      <trkpt lat="45.06883" lon="6.21287">
        <ele>2224.6</ele>
        <time>2024-08-10T07:27:34Z</time>
      </trkpt>
      <trkpt lat="45.06883" lon="6.21287">
        <ele>2224.6</ele>
        <time>2024-08-10T07:27:35Z</time>
      </trkpt>
      <trkpt lat="45.06883" lon="6.21291">
        <ele>2224.6</ele>
        <time>2024-08-10T07:27:36Z</time>
      </trkpt>
      <trkpt lat="45.06883" lon="6.21291">
        <ele>2224.6</ele>
        <time>2024-08-10T07:27:37Z</time>
      </trkpt>
      <trkpt lat="45.06883" lon="6.21296">
        <ele>2224.6</ele>
        <time>2024-08-10T07:27:38Z</time>
      </trkpt>
      <trkpt lat="45.06883" lon="6.21296">
        <ele>2224.6</ele>
        <time>2024-08-10T07:27:39Z</time>
      </trkpt>
      <trkpt lat="45.06883" lon="6.21299">
        <ele>2224.6</ele>
        <time>2024-08-10T07:27:40Z</time>
      </trkpt>
      <trkpt lat="45.06883" lon="6.21299">
        <ele>2224.8</ele>
        <time>2024-08-10T07:27:41Z</time>
      </trkpt>
      <trkpt lat="45.06882" lon="6.21303">
        <ele>2224.8</ele>
        <time>2024-08-10T07:27:42Z</time>
      </trkpt>
      <trkpt lat="45.06882" lon="6.21303">
        <ele>2224.8</ele>
        <time>2024-08-10T07:27:43Z</time>
      </trkpt>
      <trkpt lat="45.06881" lon="6.21306">
        <ele>2224.6</ele>
        <time>2024-08-10T07:27:44Z</time>
      </trkpt>
      <trkpt lat="45.06881" lon="6.21306">
        <ele>2224.6</ele>
        <time>2024-08-10T07:27:45Z</time>
      </trkpt>
      <trkpt lat="45.0688" lon="6.2131">
        <ele>2224.6</ele>
        <time>2024-08-10T07:27:46Z</time>
      </trkpt>
      <trkpt lat="45.0688" lon="6.2131">
        <ele>2224.6</ele>
        <time>2024-08-10T07:27:47Z</time>
      </trkpt>
      <trkpt lat="45.06878" lon="6.21314">
        <ele>2224.6</ele>
        <time>2024-08-10T07:27:48Z</time>
      </trkpt>
      <trkpt lat="45.06878" lon="6.21314">
        <ele>2224.6</ele>
        <time>2024-08-10T07:27:49Z</time>
      </trkpt>
      <trkpt lat="45.06876" lon="6.21317">
        <ele>2224.6</ele>
        <time>2024-08-10T07:27:50Z</time>
      </trkpt>
      <trkpt lat="45.06876" lon="6.21317">
        <ele>2224.8</ele>
        <time>2024-08-10T07:27:51Z</time>
      </trkpt>
      <trkpt lat="45.06875" lon="6.2132">
        <ele>2224.8</ele>
        <time>2024-08-10T07:27:52Z</time>
      </trkpt>
      <trkpt lat="45.06875" lon="6.2132">
        <ele>2224.6</ele>
        <time>2024-08-10T07:27:53Z</time>
      </trkpt>
      <trkpt lat="45.06873" lon="6.21323">
        <ele>2224.6</ele>
        <time>2024-08-10T07:27:54Z</time>
      </trkpt>
      <trkpt lat="45.06873" lon="6.21323">
        <ele>2224.8</ele>
        <time>2024-08-10T07:27:55Z</time>
      </trkpt>
      <trkpt lat="45.06871" lon="6.21326">
        <ele>2224.8</ele>
        <time>2024-08-10T07:27:56Z</time>
      </trkpt>
      <trkpt lat="45.06871" lon="6.21326">
        <ele>2224.8</ele>
        <time>2024-08-10T07:27:57Z</time>
      </trkpt>
      <trkpt lat="45.06869" lon="6.21328">
        <ele>2224.6</ele>
        <time>2024-08-10T07:27:58Z</time>
      </trkpt>
      <trkpt lat="45.06869" lon="6.21328">
        <ele>2224.6</ele>
        <time>2024-08-10T07:27:59Z</time>
      </trkpt>
      <trkpt lat="45.06868" lon="6.21331">
        <ele>2224.6</ele>
        <time>2024-08-10T07:28:00Z</time>
      </trkpt>
      <trkpt lat="45.06868" lon="6.21331">
        <ele>2224.6</ele>
        <time>2024-08-10T07:28:01Z</time>
      </trkpt>
      <trkpt lat="45.06865" lon="6.21334">
        <ele>2224.6</ele>
        <time>2024-08-10T07:28:02Z</time>
      </trkpt>
      <trkpt lat="45.06865" lon="6.21334">
        <ele>2224.8</ele>
        <time>2024-08-10T07:28:03Z</time>
      </trkpt>
      <trkpt lat="45.06864" lon="6.21337">
        <ele>2224.8</ele>
        <time>2024-08-10T07:28:04Z</time>
      </trkpt>
      <trkpt lat="45.06864" lon="6.21337">
        <ele>2225</ele>
        <time>2024-08-10T07:28:05Z</time>
      </trkpt>
      <trkpt lat="45.06862" lon="6.2134">
        <ele>2225</ele>
        <time>2024-08-10T07:28:06Z</time>
      </trkpt>
      <trkpt lat="45.06862" lon="6.2134">
        <ele>2225</ele>
        <time>2024-08-10T07:28:07Z</time>
      </trkpt>
      <trkpt lat="45.06861" lon="6.21343">
        <ele>2225</ele>
        <time>2024-08-10T07:28:08Z</time>
      </trkpt>
      <trkpt lat="45.06861" lon="6.21343">
        <ele>2225.2</ele>
        <time>2024-08-10T07:28:09Z</time>
      </trkpt>
      <trkpt lat="45.06858" lon="6.21346">
        <ele>2225.4</ele>
        <time>2024-08-10T07:28:10Z</time>
      </trkpt>
      <trkpt lat="45.06858" lon="6.21346">
        <ele>2225.4</ele>
        <time>2024-08-10T07:28:11Z</time>
      </trkpt>
      <trkpt lat="45.06857" lon="6.21348">
        <ele>2225.4</ele>
        <time>2024-08-10T07:28:12Z</time>
      </trkpt>
      <trkpt lat="45.06857" lon="6.21348">
        <ele>2225.4</ele>
        <time>2024-08-10T07:28:13Z</time>
      </trkpt>
      <trkpt lat="45.06855" lon="6.21351">
        <ele>2225.6</ele>
        <time>2024-08-10T07:28:14Z</time>
      </trkpt>
      <trkpt lat="45.06855" lon="6.21351">
        <ele>2225.6</ele>
        <time>2024-08-10T07:28:15Z</time>
      </trkpt>
      <trkpt lat="45.06853" lon="6.21352">
        <ele>2225.4</ele>
        <time>2024-08-10T07:28:16Z</time>
      </trkpt>
      <trkpt lat="45.06853" lon="6.21352">
        <ele>2225.4</ele>
        <time>2024-08-10T07:28:17Z</time>
      </trkpt>
      <trkpt lat="45.06851" lon="6.21356">
        <ele>2225.6</ele>
        <time>2024-08-10T07:28:18Z</time>
      </trkpt>
      <trkpt lat="45.0685" lon="6.21358">
        <ele>2225.6</ele>
        <time>2024-08-10T07:28:19Z</time>
      </trkpt>
      <trkpt lat="45.0685" lon="6.21358">
        <ele>2225.8</ele>
        <time>2024-08-10T07:28:20Z</time>
      </trkpt>
      <trkpt lat="45.06848" lon="6.21362">
        <ele>2226</ele>
        <time>2024-08-10T07:28:21Z</time>
      </trkpt>
      <trkpt lat="45.06848" lon="6.21362">
        <ele>2226</ele>
        <time>2024-08-10T07:28:22Z</time>
      </trkpt>
      <trkpt lat="45.06847" lon="6.21365">
        <ele>2225.8</ele>
        <time>2024-08-10T07:28:23Z</time>
      </trkpt>
      <trkpt lat="45.06847" lon="6.21365">
        <ele>2225.8</ele>
        <time>2024-08-10T07:28:24Z</time>
      </trkpt>
      <trkpt lat="45.06845" lon="6.21368">
        <ele>2225.8</ele>
        <time>2024-08-10T07:28:25Z</time>
      </trkpt>
      <trkpt lat="45.06845" lon="6.21368">
        <ele>2225.8</ele>
        <time>2024-08-10T07:28:26Z</time>
      </trkpt>
      <trkpt lat="45.06843" lon="6.21371">
        <ele>2225.8</ele>
        <time>2024-08-10T07:28:27Z</time>
      </trkpt>
      <trkpt lat="45.06843" lon="6.21371">
        <ele>2225.8</ele>
        <time>2024-08-10T07:28:28Z</time>
      </trkpt>
      <trkpt lat="45.06841" lon="6.21374">
        <ele>2225.8</ele>
        <time>2024-08-10T07:28:29Z</time>
      </trkpt>
      <trkpt lat="45.06841" lon="6.21374">
        <ele>2225.8</ele>
        <time>2024-08-10T07:28:30Z</time>
      </trkpt>
      <trkpt lat="45.06839" lon="6.21378">
        <ele>2225.8</ele>
        <time>2024-08-10T07:28:31Z</time>
      </trkpt>
      <trkpt lat="45.06839" lon="6.21378">
        <ele>2225.8</ele>
        <time>2024-08-10T07:28:32Z</time>
      </trkpt>
      <trkpt lat="45.06838" lon="6.21382">
        <ele>2225.8</ele>
        <time>2024-08-10T07:28:33Z</time>
      </trkpt>
      <trkpt lat="45.06838" lon="6.21382">
        <ele>2225.8</ele>
        <time>2024-08-10T07:28:34Z</time>
      </trkpt>
      <trkpt lat="45.06836" lon="6.21385">
        <ele>2225.6</ele>
        <time>2024-08-10T07:28:35Z</time>
      </trkpt>
      <trkpt lat="45.06836" lon="6.21385">
        <ele>2225.6</ele>
        <time>2024-08-10T07:28:36Z</time>
      </trkpt>
      <trkpt lat="45.06834" lon="6.21388">
        <ele>2225.6</ele>
        <time>2024-08-10T07:28:37Z</time>
      </trkpt>
      <trkpt lat="45.06834" lon="6.21388">
        <ele>2225.4</ele>
        <time>2024-08-10T07:28:38Z</time>
      </trkpt>
      <trkpt lat="45.06831" lon="6.2139">
        <ele>2225.4</ele>
        <time>2024-08-10T07:28:39Z</time>
      </trkpt>
      <trkpt lat="45.06831" lon="6.2139">
        <ele>2225.4</ele>
        <time>2024-08-10T07:28:40Z</time>
      </trkpt>
      <trkpt lat="45.06829" lon="6.21393">
        <ele>2225.4</ele>
        <time>2024-08-10T07:28:41Z</time>
      </trkpt>
      <trkpt lat="45.06829" lon="6.21393">
        <ele>2225.2</ele>
        <time>2024-08-10T07:28:42Z</time>
      </trkpt>
      <trkpt lat="45.06827" lon="6.21395">
        <ele>2225</ele>
        <time>2024-08-10T07:28:43Z</time>
      </trkpt>
      <trkpt lat="45.06827" lon="6.21395">
        <ele>2225</ele>
        <time>2024-08-10T07:28:44Z</time>
      </trkpt>
      <trkpt lat="45.06824" lon="6.21398">
        <ele>2225</ele>
        <time>2024-08-10T07:28:45Z</time>
      </trkpt>
      <trkpt lat="45.06824" lon="6.21398">
        <ele>2224.8</ele>
        <time>2024-08-10T07:28:46Z</time>
      </trkpt>
      <trkpt lat="45.06822" lon="6.214">
        <ele>2224.8</ele>
        <time>2024-08-10T07:28:47Z</time>
      </trkpt>
      <trkpt lat="45.06822" lon="6.214">
        <ele>2224.8</ele>
        <time>2024-08-10T07:28:48Z</time>
      </trkpt>
      <trkpt lat="45.06819" lon="6.21402">
        <ele>2224.6</ele>
        <time>2024-08-10T07:28:49Z</time>
      </trkpt>
      <trkpt lat="45.06819" lon="6.21402">
        <ele>2224.6</ele>
        <time>2024-08-10T07:28:50Z</time>
      </trkpt>
      <trkpt lat="45.06817" lon="6.21404">
        <ele>2224.4</ele>
        <time>2024-08-10T07:28:51Z</time>
      </trkpt>
      <trkpt lat="45.06817" lon="6.21404">
        <ele>2224.4</ele>
        <time>2024-08-10T07:28:52Z</time>
      </trkpt>
      <trkpt lat="45.06814" lon="6.21405">
        <ele>2224.2</ele>
        <time>2024-08-10T07:28:53Z</time>
      </trkpt>
      <trkpt lat="45.06814" lon="6.21405">
        <ele>2224.2</ele>
        <time>2024-08-10T07:28:54Z</time>
      </trkpt>
      <trkpt lat="45.06812" lon="6.21407">
        <ele>2224.2</ele>
        <time>2024-08-10T07:28:55Z</time>
      </trkpt>
      <trkpt lat="45.06812" lon="6.21407">
        <ele>2224.2</ele>
        <time>2024-08-10T07:28:56Z</time>
      </trkpt>
      <trkpt lat="45.0681" lon="6.21411">
        <ele>2224.2</ele>
        <time>2024-08-10T07:28:57Z</time>
      </trkpt>
      <trkpt lat="45.06808" lon="6.21413">
        <ele>2223.8</ele>
        <time>2024-08-10T07:28:58Z</time>
      </trkpt>
      <trkpt lat="45.06808" lon="6.21413">
        <ele>2223.8</ele>
        <time>2024-08-10T07:28:59Z</time>
      </trkpt>
      <trkpt lat="45.06806" lon="6.21416">
        <ele>2223.6</ele>
        <time>2024-08-10T07:29:00Z</time>
      </trkpt>
      <trkpt lat="45.06806" lon="6.21416">
        <ele>2223.6</ele>
        <time>2024-08-10T07:29:01Z</time>
      </trkpt>
      <trkpt lat="45.06805" lon="6.21419">
        <ele>2223.6</ele>
        <time>2024-08-10T07:29:02Z</time>
      </trkpt>
      <trkpt lat="45.06805" lon="6.21419">
        <ele>2223.4</ele>
        <time>2024-08-10T07:29:03Z</time>
      </trkpt>
      <trkpt lat="45.06803" lon="6.21422">
        <ele>2223.4</ele>
        <time>2024-08-10T07:29:04Z</time>
      </trkpt>
      <trkpt lat="45.06803" lon="6.21422">
        <ele>2223.6</ele>
        <time>2024-08-10T07:29:05Z</time>
      </trkpt>
      <trkpt lat="45.06802" lon="6.21426">
        <ele>2223.6</ele>
        <time>2024-08-10T07:29:06Z</time>
      </trkpt>
      <trkpt lat="45.06802" lon="6.21426">
        <ele>2223.6</ele>
        <time>2024-08-10T07:29:07Z</time>
      </trkpt>
      <trkpt lat="45.06801" lon="6.21429">
        <ele>2223.4</ele>
        <time>2024-08-10T07:29:08Z</time>
      </trkpt>
      <trkpt lat="45.06801" lon="6.21429">
        <ele>2223.4</ele>
        <time>2024-08-10T07:29:09Z</time>
      </trkpt>
      <trkpt lat="45.068" lon="6.21433">
        <ele>2223.6</ele>
        <time>2024-08-10T07:29:10Z</time>
      </trkpt>
      <trkpt lat="45.068" lon="6.21433">
        <ele>2223.6</ele>
        <time>2024-08-10T07:29:11Z</time>
      </trkpt>
      <trkpt lat="45.06798" lon="6.21436">
        <ele>2223.6</ele>
        <time>2024-08-10T07:29:12Z</time>
      </trkpt>
      <trkpt lat="45.06798" lon="6.21436">
        <ele>2223.8</ele>
        <time>2024-08-10T07:29:13Z</time>
      </trkpt>
      <trkpt lat="45.06797" lon="6.21439">
        <ele>2223.8</ele>
        <time>2024-08-10T07:29:14Z</time>
      </trkpt>
      <trkpt lat="45.06797" lon="6.21439">
        <ele>2223.8</ele>
        <time>2024-08-10T07:29:15Z</time>
      </trkpt>
      <trkpt lat="45.06796" lon="6.21443">
        <ele>2223.8</ele>
        <time>2024-08-10T07:29:16Z</time>
      </trkpt>
      <trkpt lat="45.06796" lon="6.21443">
        <ele>2224</ele>
        <time>2024-08-10T07:29:17Z</time>
      </trkpt>
      <trkpt lat="45.06794" lon="6.21446">
        <ele>2224.2</ele>
        <time>2024-08-10T07:29:18Z</time>
      </trkpt>
      <trkpt lat="45.06794" lon="6.21446">
        <ele>2224.2</ele>
        <time>2024-08-10T07:29:19Z</time>
      </trkpt>
      <trkpt lat="45.06792" lon="6.21449">
        <ele>2224.2</ele>
        <time>2024-08-10T07:29:20Z</time>
      </trkpt>
      <trkpt lat="45.06792" lon="6.21449">
        <ele>2224.2</ele>
        <time>2024-08-10T07:29:21Z</time>
      </trkpt>
      <trkpt lat="45.0679" lon="6.21452">
        <ele>2224.2</ele>
        <time>2024-08-10T07:29:22Z</time>
      </trkpt>
      <trkpt lat="45.06789" lon="6.21453">
        <ele>2224.2</ele>
        <time>2024-08-10T07:29:23Z</time>
      </trkpt>
      <trkpt lat="45.06789" lon="6.21453">
        <ele>2224.4</ele>
        <time>2024-08-10T07:29:24Z</time>
      </trkpt>
      <trkpt lat="45.06786" lon="6.21456">
        <ele>2224.4</ele>
        <time>2024-08-10T07:29:25Z</time>
      </trkpt>
      <trkpt lat="45.06786" lon="6.21456">
        <ele>2224.4</ele>
        <time>2024-08-10T07:29:26Z</time>
      </trkpt>
      <trkpt lat="45.06785" lon="6.21458">
        <ele>2224.4</ele>
        <time>2024-08-10T07:29:27Z</time>
      </trkpt>
      <trkpt lat="45.06785" lon="6.21458">
        <ele>2224</ele>
        <time>2024-08-10T07:29:28Z</time>
      </trkpt>
      <trkpt lat="45.06782" lon="6.2146">
        <ele>2224</ele>
        <time>2024-08-10T07:29:29Z</time>
      </trkpt>
      <trkpt lat="45.06782" lon="6.2146">
        <ele>2224</ele>
        <time>2024-08-10T07:29:30Z</time>
      </trkpt>
      <trkpt lat="45.06781" lon="6.21463">
        <ele>2224</ele>
        <time>2024-08-10T07:29:31Z</time>
      </trkpt>
      <trkpt lat="45.06781" lon="6.21463">
        <ele>2224</ele>
        <time>2024-08-10T07:29:32Z</time>
      </trkpt>
      <trkpt lat="45.06778" lon="6.21465">
        <ele>2224</ele>
        <time>2024-08-10T07:29:33Z</time>
      </trkpt>
      <trkpt lat="45.06778" lon="6.21465">
        <ele>2224.4</ele>
        <time>2024-08-10T07:29:34Z</time>
      </trkpt>
      <trkpt lat="45.06775" lon="6.21468">
        <ele>2224.4</ele>
        <time>2024-08-10T07:29:35Z</time>
      </trkpt>
      <trkpt lat="45.06775" lon="6.21468">
        <ele>2224.4</ele>
        <time>2024-08-10T07:29:36Z</time>
      </trkpt>
      <trkpt lat="45.06773" lon="6.2147">
        <ele>2224.6</ele>
        <time>2024-08-10T07:29:37Z</time>
      </trkpt>
      <trkpt lat="45.06773" lon="6.2147">
        <ele>2224.6</ele>
        <time>2024-08-10T07:29:38Z</time>
      </trkpt>
      <trkpt lat="45.06771" lon="6.21472">
        <ele>2224.8</ele>
        <time>2024-08-10T07:29:39Z</time>
      </trkpt>
      <trkpt lat="45.06771" lon="6.21472">
        <ele>2224.8</ele>
        <time>2024-08-10T07:29:40Z</time>
      </trkpt>
      <trkpt lat="45.06769" lon="6.21475">
        <ele>2225</ele>
        <time>2024-08-10T07:29:41Z</time>
      </trkpt>
      <trkpt lat="45.06769" lon="6.21475">
        <ele>2225</ele>
        <time>2024-08-10T07:29:42Z</time>
      </trkpt>
      <trkpt lat="45.06768" lon="6.21478">
        <ele>2224.2</ele>
        <time>2024-08-10T07:29:43Z</time>
      </trkpt>
      <trkpt lat="45.06768" lon="6.21478">
        <ele>2223.8</ele>
        <time>2024-08-10T07:29:44Z</time>
      </trkpt>
      <trkpt lat="45.06766" lon="6.21482">
        <ele>2223.6</ele>
        <time>2024-08-10T07:29:45Z</time>
      </trkpt>
      <trkpt lat="45.06765" lon="6.21485">
        <ele>2223.6</ele>
        <time>2024-08-10T07:29:46Z</time>
      </trkpt>
      <trkpt lat="45.06765" lon="6.21485">
        <ele>2223.4</ele>
        <time>2024-08-10T07:29:47Z</time>
      </trkpt>
      <trkpt lat="45.06764" lon="6.21488">
        <ele>2222.8</ele>
        <time>2024-08-10T07:29:48Z</time>
      </trkpt>
      <trkpt lat="45.06764" lon="6.21488">
        <ele>2222.2</ele>
        <time>2024-08-10T07:29:49Z</time>
      </trkpt>
      <trkpt lat="45.06762" lon="6.21491">
        <ele>2222.2</ele>
        <time>2024-08-10T07:29:50Z</time>
      </trkpt>
      <trkpt lat="45.06762" lon="6.21491">
        <ele>2222.4</ele>
        <time>2024-08-10T07:29:51Z</time>
      </trkpt>
      <trkpt lat="45.0676" lon="6.21495">
        <ele>2222.8</ele>
        <time>2024-08-10T07:29:52Z</time>
      </trkpt>
      <trkpt lat="45.0676" lon="6.21495">
        <ele>2223</ele>
        <time>2024-08-10T07:29:53Z</time>
      </trkpt>
      <trkpt lat="45.06759" lon="6.21499">
        <ele>2223</ele>
        <time>2024-08-10T07:29:54Z</time>
      </trkpt>
      <trkpt lat="45.06759" lon="6.21499">
        <ele>2223</ele>
        <time>2024-08-10T07:29:55Z</time>
      </trkpt>
      <trkpt lat="45.06758" lon="6.21502">
        <ele>2223.2</ele>
        <time>2024-08-10T07:29:56Z</time>
      </trkpt>
      <trkpt lat="45.06758" lon="6.21502">
        <ele>2223.2</ele>
        <time>2024-08-10T07:29:57Z</time>
      </trkpt>
      <trkpt lat="45.06756" lon="6.21505">
        <ele>2223.4</ele>
        <time>2024-08-10T07:29:58Z</time>
      </trkpt>
      <trkpt lat="45.06756" lon="6.21505">
        <ele>2223.4</ele>
        <time>2024-08-10T07:29:59Z</time>
      </trkpt>
      <trkpt lat="45.06756" lon="6.21505">
        <ele>2223.6</ele>
        <time>2024-08-10T07:30:00Z</time>
      </trkpt>
      <trkpt lat="45.06754" lon="6.21509">
        <ele>2223.6</ele>
        <time>2024-08-10T07:30:01Z</time>
      </trkpt>
      <trkpt lat="45.06752" lon="6.21512">
        <ele>2223.4</ele>
        <time>2024-08-10T07:30:03Z</time>
      </trkpt>
      <trkpt lat="45.06752" lon="6.21512">
        <ele>2223.4</ele>
        <time>2024-08-10T07:30:04Z</time>
      </trkpt>
      <trkpt lat="45.06751" lon="6.21516">
        <ele>2223.4</ele>
        <time>2024-08-10T07:30:05Z</time>
      </trkpt>
      <trkpt lat="45.06751" lon="6.21516">
        <ele>2223.4</ele>
        <time>2024-08-10T07:30:06Z</time>
      </trkpt>
      <trkpt lat="45.06749" lon="6.21519">
        <ele>2223.4</ele>
        <time>2024-08-10T07:30:07Z</time>
      </trkpt>
      <trkpt lat="45.06749" lon="6.21519">
        <ele>2223.4</ele>
        <time>2024-08-10T07:30:08Z</time>
      </trkpt>
      <trkpt lat="45.06748" lon="6.21522">
        <ele>2223.4</ele>
        <time>2024-08-10T07:30:09Z</time>
      </trkpt>
      <trkpt lat="45.06748" lon="6.21522">
        <ele>2223.4</ele>
        <time>2024-08-10T07:30:10Z</time>
      </trkpt>
      <trkpt lat="45.06747" lon="6.21525">
        <ele>2223.6</ele>
        <time>2024-08-10T07:30:11Z</time>
      </trkpt>
      <trkpt lat="45.06747" lon="6.21525">
        <ele>2223.8</ele>
        <time>2024-08-10T07:30:12Z</time>
      </trkpt>
      <trkpt lat="45.06746" lon="6.21529">
        <ele>2223.8</ele>
        <time>2024-08-10T07:30:13Z</time>
      </trkpt>
      <trkpt lat="45.06746" lon="6.21529">
        <ele>2223.8</ele>
        <time>2024-08-10T07:30:14Z</time>
      </trkpt>
      <trkpt lat="45.06745" lon="6.21533">
        <ele>2223.6</ele>
        <time>2024-08-10T07:30:15Z</time>
      </trkpt>
      <trkpt lat="45.06744" lon="6.21535">
        <ele>2223.6</ele>
        <time>2024-08-10T07:30:16Z</time>
      </trkpt>
      <trkpt lat="45.06744" lon="6.21535">
        <ele>2223.6</ele>
        <time>2024-08-10T07:30:17Z</time>
      </trkpt>
      <trkpt lat="45.06742" lon="6.21539">
        <ele>2223.6</ele>
        <time>2024-08-10T07:30:18Z</time>
      </trkpt>
      <trkpt lat="45.06742" lon="6.21539">
        <ele>2223.6</ele>
        <time>2024-08-10T07:30:19Z</time>
      </trkpt>
      <trkpt lat="45.0674" lon="6.21542">
        <ele>2223.6</ele>
        <time>2024-08-10T07:30:20Z</time>
      </trkpt>
      <trkpt lat="45.0674" lon="6.21542">
        <ele>2223.6</ele>
        <time>2024-08-10T07:30:21Z</time>
      </trkpt>
      <trkpt lat="45.06739" lon="6.21545">
        <ele>2223.6</ele>
        <time>2024-08-10T07:30:22Z</time>
      </trkpt>
      <trkpt lat="45.06739" lon="6.21545">
        <ele>2223.2</ele>
        <time>2024-08-10T07:30:23Z</time>
      </trkpt>
      <trkpt lat="45.06736" lon="6.21548">
        <ele>2223.2</ele>
        <time>2024-08-10T07:30:24Z</time>
      </trkpt>
      <trkpt lat="45.06736" lon="6.21548">
        <ele>2223.2</ele>
        <time>2024-08-10T07:30:25Z</time>
      </trkpt>
      <trkpt lat="45.06734" lon="6.21551">
        <ele>2223</ele>
        <time>2024-08-10T07:30:26Z</time>
      </trkpt>
      <trkpt lat="45.06734" lon="6.21551">
        <ele>2222.8</ele>
        <time>2024-08-10T07:30:27Z</time>
      </trkpt>
      <trkpt lat="45.06732" lon="6.21553">
        <ele>2222.8</ele>
        <time>2024-08-10T07:30:28Z</time>
      </trkpt>
      <trkpt lat="45.06732" lon="6.21553">
        <ele>2222.8</ele>
        <time>2024-08-10T07:30:29Z</time>
      </trkpt>
      <trkpt lat="45.0673" lon="6.21555">
        <ele>2222.8</ele>
        <time>2024-08-10T07:30:30Z</time>
      </trkpt>
      <trkpt lat="45.0673" lon="6.21555">
        <ele>2222.8</ele>
        <time>2024-08-10T07:30:31Z</time>
      </trkpt>
      <trkpt lat="45.06728" lon="6.21558">
        <ele>2223</ele>
        <time>2024-08-10T07:30:32Z</time>
      </trkpt>
      <trkpt lat="45.06728" lon="6.21558">
        <ele>2222.8</ele>
        <time>2024-08-10T07:30:33Z</time>
      </trkpt>
      <trkpt lat="45.06726" lon="6.2156">
        <ele>2222.6</ele>
        <time>2024-08-10T07:30:34Z</time>
      </trkpt>
      <trkpt lat="45.06726" lon="6.2156">
        <ele>2222.6</ele>
        <time>2024-08-10T07:30:35Z</time>
      </trkpt>
      <trkpt lat="45.06724" lon="6.21563">
        <ele>2222.2</ele>
        <time>2024-08-10T07:30:36Z</time>
      </trkpt>
      <trkpt lat="45.06724" lon="6.21563">
        <ele>2222</ele>
        <time>2024-08-10T07:30:37Z</time>
      </trkpt>
      <trkpt lat="45.06721" lon="6.21565">
        <ele>2221.8</ele>
        <time>2024-08-10T07:30:38Z</time>
      </trkpt>
      <trkpt lat="45.06721" lon="6.21565">
        <ele>2221.8</ele>
        <time>2024-08-10T07:30:39Z</time>
      </trkpt>
      <trkpt lat="45.06719" lon="6.21567">
        <ele>2221.6</ele>
        <time>2024-08-10T07:30:40Z</time>
      </trkpt>
      <trkpt lat="45.06719" lon="6.21567">
        <ele>2221.6</ele>
        <time>2024-08-10T07:30:41Z</time>
      </trkpt>
      <trkpt lat="45.06717" lon="6.21569">
        <ele>2221</ele>
        <time>2024-08-10T07:30:42Z</time>
      </trkpt>
      <trkpt lat="45.06717" lon="6.21569">
        <ele>2221</ele>
        <time>2024-08-10T07:30:43Z</time>
      </trkpt>
      <trkpt lat="45.06715" lon="6.21572">
        <ele>2221</ele>
        <time>2024-08-10T07:30:44Z</time>
      </trkpt>
      <trkpt lat="45.06713" lon="6.21574">
        <ele>2221</ele>
        <time>2024-08-10T07:30:46Z</time>
      </trkpt>
      <trkpt lat="45.06713" lon="6.21574">
        <ele>2220.6</ele>
        <time>2024-08-10T07:30:47Z</time>
      </trkpt>
      <trkpt lat="45.06711" lon="6.21577">
        <ele>2220.6</ele>
        <time>2024-08-10T07:30:48Z</time>
      </trkpt>
      <trkpt lat="45.06711" lon="6.21577">
        <ele>2220.6</ele>
        <time>2024-08-10T07:30:49Z</time>
      </trkpt>
      <trkpt lat="45.0671" lon="6.2158">
        <ele>2220.2</ele>
        <time>2024-08-10T07:30:50Z</time>
      </trkpt>
      <trkpt lat="45.0671" lon="6.2158">
        <ele>2220</ele>
        <time>2024-08-10T07:30:51Z</time>
      </trkpt>
      <trkpt lat="45.06709" lon="6.21584">
        <ele>2220</ele>
        <time>2024-08-10T07:30:52Z</time>
      </trkpt>
      <trkpt lat="45.06709" lon="6.21584">
        <ele>2220</ele>
        <time>2024-08-10T07:30:53Z</time>
      </trkpt>
      <trkpt lat="45.06707" lon="6.21587">
        <ele>2219.8</ele>
        <time>2024-08-10T07:30:54Z</time>
      </trkpt>
      <trkpt lat="45.06707" lon="6.21587">
        <ele>2219.8</ele>
        <time>2024-08-10T07:30:55Z</time>
      </trkpt>
      <trkpt lat="45.06705" lon="6.2159">
        <ele>2219.8</ele>
        <time>2024-08-10T07:30:56Z</time>
      </trkpt>
      <trkpt lat="45.06705" lon="6.2159">
        <ele>2219.8</ele>
        <time>2024-08-10T07:30:57Z</time>
      </trkpt>
      <trkpt lat="45.06704" lon="6.21593">
        <ele>2220</ele>
        <time>2024-08-10T07:30:58Z</time>
      </trkpt>
      <trkpt lat="45.06704" lon="6.21593">
        <ele>2220.2</ele>
        <time>2024-08-10T07:30:59Z</time>
      </trkpt>
      <trkpt lat="45.06702" lon="6.21597">
        <ele>2220.2</ele>
        <time>2024-08-10T07:31:00Z</time>
      </trkpt>
      <trkpt lat="45.06702" lon="6.21597">
        <ele>2220.2</ele>
        <time>2024-08-10T07:31:01Z</time>
      </trkpt>
      <trkpt lat="45.06701" lon="6.216">
        <ele>2220.4</ele>
        <time>2024-08-10T07:31:02Z</time>
      </trkpt>
      <trkpt lat="45.06701" lon="6.216">
        <ele>2220.6</ele>
        <time>2024-08-10T07:31:03Z</time>
      </trkpt>
      <trkpt lat="45.067" lon="6.21604">
        <ele>2220.6</ele>
        <time>2024-08-10T07:31:04Z</time>
      </trkpt>
      <trkpt lat="45.06699" lon="6.21606">
        <ele>2220.6</ele>
        <time>2024-08-10T07:31:05Z</time>
      </trkpt>
      <trkpt lat="45.06699" lon="6.21606">
        <ele>2220.6</ele>
        <time>2024-08-10T07:31:06Z</time>
      </trkpt>
      <trkpt lat="45.06698" lon="6.21609">
        <ele>2220.6</ele>
        <time>2024-08-10T07:31:07Z</time>
      </trkpt>
      <trkpt lat="45.06698" lon="6.21609">
        <ele>2220.6</ele>
        <time>2024-08-10T07:31:08Z</time>
      </trkpt>
      <trkpt lat="45.06696" lon="6.21613">
        <ele>2220.4</ele>
        <time>2024-08-10T07:31:09Z</time>
      </trkpt>
      <trkpt lat="45.06696" lon="6.21613">
        <ele>2220.4</ele>
        <time>2024-08-10T07:31:10Z</time>
      </trkpt>
      <trkpt lat="45.06695" lon="6.21616">
        <ele>2220.4</ele>
        <time>2024-08-10T07:31:11Z</time>
      </trkpt>
      <trkpt lat="45.06695" lon="6.21616">
        <ele>2220.4</ele>
        <time>2024-08-10T07:31:12Z</time>
      </trkpt>
      <trkpt lat="45.06693" lon="6.21619">
        <ele>2220.4</ele>
        <time>2024-08-10T07:31:13Z</time>
      </trkpt>
      <trkpt lat="45.06691" lon="6.21621">
        <ele>2220.4</ele>
        <time>2024-08-10T07:31:14Z</time>
      </trkpt>
      <trkpt lat="45.06691" lon="6.21621">
        <ele>2220.4</ele>
        <time>2024-08-10T07:31:15Z</time>
      </trkpt>
      <trkpt lat="45.06688" lon="6.21623">
        <ele>2220.4</ele>
        <time>2024-08-10T07:31:16Z</time>
      </trkpt>
      <trkpt lat="45.06688" lon="6.21623">
        <ele>2220.6</ele>
        <time>2024-08-10T07:31:17Z</time>
      </trkpt>
      <trkpt lat="45.06686" lon="6.21626">
        <ele>2220.6</ele>
        <time>2024-08-10T07:31:18Z</time>
      </trkpt>
      <trkpt lat="45.06686" lon="6.21626">
        <ele>2220.6</ele>
        <time>2024-08-10T07:31:19Z</time>
      </trkpt>
      <trkpt lat="45.06684" lon="6.2163">
        <ele>2220.4</ele>
        <time>2024-08-10T07:31:20Z</time>
      </trkpt>
      <trkpt lat="45.06684" lon="6.2163">
        <ele>2220.2</ele>
        <time>2024-08-10T07:31:21Z</time>
      </trkpt>
      <trkpt lat="45.06682" lon="6.21633">
        <ele>2220.2</ele>
        <time>2024-08-10T07:31:22Z</time>
      </trkpt>
      <trkpt lat="45.06682" lon="6.21633">
        <ele>2220.2</ele>
        <time>2024-08-10T07:31:23Z</time>
      </trkpt>
      <trkpt lat="45.0668" lon="6.21636">
        <ele>2220.2</ele>
        <time>2024-08-10T07:31:24Z</time>
      </trkpt>
      <trkpt lat="45.0668" lon="6.21636">
        <ele>2220.2</ele>
        <time>2024-08-10T07:31:25Z</time>
      </trkpt>
      <trkpt lat="45.06677" lon="6.21638">
        <ele>2220.2</ele>
        <time>2024-08-10T07:31:26Z</time>
      </trkpt>
      <trkpt lat="45.06677" lon="6.21638">
        <ele>2220.2</ele>
        <time>2024-08-10T07:31:27Z</time>
      </trkpt>
      <trkpt lat="45.06676" lon="6.2164">
        <ele>2220.2</ele>
        <time>2024-08-10T07:31:28Z</time>
      </trkpt>
      <trkpt lat="45.06676" lon="6.2164">
        <ele>2220</ele>
        <time>2024-08-10T07:31:29Z</time>
      </trkpt>
      <trkpt lat="45.06675" lon="6.21643">
        <ele>2219.8</ele>
        <time>2024-08-10T07:31:30Z</time>
      </trkpt>
      <trkpt lat="45.06675" lon="6.21643">
        <ele>2219.8</ele>
        <time>2024-08-10T07:31:31Z</time>
      </trkpt>
      <trkpt lat="45.06673" lon="6.21646">
        <ele>2219.8</ele>
        <time>2024-08-10T07:31:32Z</time>
      </trkpt>
      <trkpt lat="45.06673" lon="6.21646">
        <ele>2219.8</ele>
        <time>2024-08-10T07:31:33Z</time>
      </trkpt>
      <trkpt lat="45.06671" lon="6.2165">
        <ele>2219.8</ele>
        <time>2024-08-10T07:31:34Z</time>
      </trkpt>
      <trkpt lat="45.06671" lon="6.2165">
        <ele>2219.8</ele>
        <time>2024-08-10T07:31:35Z</time>
      </trkpt>
      <trkpt lat="45.06669" lon="6.21652">
        <ele>2219.8</ele>
        <time>2024-08-10T07:31:36Z</time>
      </trkpt>
      <trkpt lat="45.06669" lon="6.21652">
        <ele>2219.8</ele>
        <time>2024-08-10T07:31:37Z</time>
      </trkpt>
      <trkpt lat="45.06667" lon="6.21655">
        <ele>2219.8</ele>
        <time>2024-08-10T07:31:38Z</time>
      </trkpt>
      <trkpt lat="45.06667" lon="6.21655">
        <ele>2219.8</ele>
        <time>2024-08-10T07:31:39Z</time>
      </trkpt>
      <trkpt lat="45.06666" lon="6.21658">
        <ele>2219.8</ele>
        <time>2024-08-10T07:31:40Z</time>
      </trkpt>
      <trkpt lat="45.06666" lon="6.21658">
        <ele>2219.8</ele>
        <time>2024-08-10T07:31:41Z</time>
      </trkpt>
      <trkpt lat="45.06664" lon="6.21661">
        <ele>2219.8</ele>
        <time>2024-08-10T07:31:42Z</time>
      </trkpt>
      <trkpt lat="45.06664" lon="6.21661">
        <ele>2219.8</ele>
        <time>2024-08-10T07:31:43Z</time>
      </trkpt>
      <trkpt lat="45.06663" lon="6.21663">
        <ele>2219.8</ele>
        <time>2024-08-10T07:31:44Z</time>
      </trkpt>
      <trkpt lat="45.06663" lon="6.21663">
        <ele>2219.8</ele>
        <time>2024-08-10T07:31:45Z</time>
      </trkpt>
      <trkpt lat="45.0666" lon="6.21666">
        <ele>2219.8</ele>
        <time>2024-08-10T07:31:46Z</time>
      </trkpt>
      <trkpt lat="45.0666" lon="6.21666">
        <ele>2219.8</ele>
        <time>2024-08-10T07:31:47Z</time>
      </trkpt>
      <trkpt lat="45.06657" lon="6.21668">
        <ele>2219.8</ele>
        <time>2024-08-10T07:31:48Z</time>
      </trkpt>
      <trkpt lat="45.06657" lon="6.21668">
        <ele>2220</ele>
        <time>2024-08-10T07:31:49Z</time>
      </trkpt>
      <trkpt lat="45.06655" lon="6.21671">
        <ele>2220</ele>
        <time>2024-08-10T07:31:50Z</time>
      </trkpt>
      <trkpt lat="45.06655" lon="6.21671">
        <ele>2220</ele>
        <time>2024-08-10T07:31:51Z</time>
      </trkpt>
      <trkpt lat="45.06653" lon="6.21674">
        <ele>2219.8</ele>
        <time>2024-08-10T07:31:52Z</time>
      </trkpt>
      <trkpt lat="45.06653" lon="6.21674">
        <ele>2219.8</ele>
        <time>2024-08-10T07:31:53Z</time>
      </trkpt>
      <trkpt lat="45.06652" lon="6.21676">
        <ele>2219.8</ele>
        <time>2024-08-10T07:31:54Z</time>
      </trkpt>
      <trkpt lat="45.06652" lon="6.21676">
        <ele>2220</ele>
        <time>2024-08-10T07:31:55Z</time>
      </trkpt>
      <trkpt lat="45.0665" lon="6.21679">
        <ele>2220</ele>
        <time>2024-08-10T07:31:56Z</time>
      </trkpt>
      <trkpt lat="45.0665" lon="6.21679">
        <ele>2220</ele>
        <time>2024-08-10T07:31:57Z</time>
      </trkpt>
      <trkpt lat="45.06647" lon="6.21682">
        <ele>2220</ele>
        <time>2024-08-10T07:31:58Z</time>
      </trkpt>
      <trkpt lat="45.06647" lon="6.21682">
        <ele>2220.2</ele>
        <time>2024-08-10T07:31:59Z</time>
      </trkpt>
      <trkpt lat="45.06645" lon="6.21685">
        <ele>2220.2</ele>
        <time>2024-08-10T07:32:00Z</time>
      </trkpt>
      <trkpt lat="45.06645" lon="6.21685">
        <ele>2220.2</ele>
        <time>2024-08-10T07:32:01Z</time>
      </trkpt>
      <trkpt lat="45.06644" lon="6.21687">
        <ele>2220.2</ele>
        <time>2024-08-10T07:32:02Z</time>
      </trkpt>
      <trkpt lat="45.06644" lon="6.21687">
        <ele>2220.2</ele>
        <time>2024-08-10T07:32:03Z</time>
      </trkpt>
      <trkpt lat="45.06643" lon="6.2169">
        <ele>2220.2</ele>
        <time>2024-08-10T07:32:04Z</time>
      </trkpt>
      <trkpt lat="45.06643" lon="6.2169">
        <ele>2220.2</ele>
        <time>2024-08-10T07:32:05Z</time>
      </trkpt>
      <trkpt lat="45.06641" lon="6.21693">
        <ele>2220.2</ele>
        <time>2024-08-10T07:32:06Z</time>
      </trkpt>
      <trkpt lat="45.06641" lon="6.21693">
        <ele>2220</ele>
        <time>2024-08-10T07:32:07Z</time>
      </trkpt>
      <trkpt lat="45.0664" lon="6.21697">
        <ele>2220</ele>
        <time>2024-08-10T07:32:08Z</time>
      </trkpt>
      <trkpt lat="45.0664" lon="6.21697">
        <ele>2220</ele>
        <time>2024-08-10T07:32:09Z</time>
      </trkpt>
      <trkpt lat="45.06638" lon="6.217">
        <ele>2220</ele>
        <time>2024-08-10T07:32:10Z</time>
      </trkpt>
      <trkpt lat="45.06638" lon="6.217">
        <ele>2220.2</ele>
        <time>2024-08-10T07:32:11Z</time>
      </trkpt>
      <trkpt lat="45.06637" lon="6.21702">
        <ele>2220.2</ele>
        <time>2024-08-10T07:32:12Z</time>
      </trkpt>
      <trkpt lat="45.06637" lon="6.21702">
        <ele>2220.2</ele>
        <time>2024-08-10T07:32:13Z</time>
      </trkpt>
      <trkpt lat="45.06635" lon="6.21704">
        <ele>2220.4</ele>
        <time>2024-08-10T07:32:14Z</time>
      </trkpt>
      <trkpt lat="45.06635" lon="6.21704">
        <ele>2220.4</ele>
        <time>2024-08-10T07:32:15Z</time>
      </trkpt>
      <trkpt lat="45.06633" lon="6.21706">
        <ele>2220.4</ele>
        <time>2024-08-10T07:32:16Z</time>
      </trkpt>
      <trkpt lat="45.06633" lon="6.21706">
        <ele>2220.6</ele>
        <time>2024-08-10T07:32:17Z</time>
      </trkpt>
      <trkpt lat="45.06631" lon="6.21708">
        <ele>2220.6</ele>
        <time>2024-08-10T07:32:18Z</time>
      </trkpt>
      <trkpt lat="45.06631" lon="6.21708">
        <ele>2220.6</ele>
        <time>2024-08-10T07:32:19Z</time>
      </trkpt>
      <trkpt lat="45.06629" lon="6.2171">
        <ele>2220.6</ele>
        <time>2024-08-10T07:32:20Z</time>
      </trkpt>
      <trkpt lat="45.06629" lon="6.2171">
        <ele>2221</ele>
        <time>2024-08-10T07:32:21Z</time>
      </trkpt>
      <trkpt lat="45.06628" lon="6.21713">
        <ele>2221</ele>
        <time>2024-08-10T07:32:22Z</time>
      </trkpt>
      <trkpt lat="45.06628" lon="6.21713">
        <ele>2221.2</ele>
        <time>2024-08-10T07:32:23Z</time>
      </trkpt>
      <trkpt lat="45.06627" lon="6.21715">
        <ele>2221.2</ele>
        <time>2024-08-10T07:32:24Z</time>
      </trkpt>
      <trkpt lat="45.06627" lon="6.21715">
        <ele>2221.6</ele>
        <time>2024-08-10T07:32:25Z</time>
      </trkpt>
      <trkpt lat="45.06625" lon="6.21717">
        <ele>2221.6</ele>
        <time>2024-08-10T07:32:26Z</time>
      </trkpt>
      <trkpt lat="45.06625" lon="6.21717">
        <ele>2221.8</ele>
        <time>2024-08-10T07:32:27Z</time>
      </trkpt>
      <trkpt lat="45.06623" lon="6.2172">
        <ele>2221.8</ele>
        <time>2024-08-10T07:32:28Z</time>
      </trkpt>
      <trkpt lat="45.06623" lon="6.2172">
        <ele>2222</ele>
        <time>2024-08-10T07:32:29Z</time>
      </trkpt>
      <trkpt lat="45.0662" lon="6.21722">
        <ele>2222.2</ele>
        <time>2024-08-10T07:32:30Z</time>
      </trkpt>
      <trkpt lat="45.0662" lon="6.21722">
        <ele>2222.4</ele>
        <time>2024-08-10T07:32:31Z</time>
      </trkpt>
      <trkpt lat="45.06619" lon="6.21724">
        <ele>2222.4</ele>
        <time>2024-08-10T07:32:32Z</time>
      </trkpt>
      <trkpt lat="45.06619" lon="6.21724">
        <ele>2222.6</ele>
        <time>2024-08-10T07:32:33Z</time>
      </trkpt>
      <trkpt lat="45.06617" lon="6.21727">
        <ele>2222.6</ele>
        <time>2024-08-10T07:32:34Z</time>
      </trkpt>
      <trkpt lat="45.06617" lon="6.21727">
        <ele>2222.6</ele>
        <time>2024-08-10T07:32:35Z</time>
      </trkpt>
      <trkpt lat="45.06615" lon="6.21729">
        <ele>2223</ele>
        <time>2024-08-10T07:32:36Z</time>
      </trkpt>
      <trkpt lat="45.06615" lon="6.21729">
        <ele>2223</ele>
        <time>2024-08-10T07:32:37Z</time>
      </trkpt>
      <trkpt lat="45.06614" lon="6.21732">
        <ele>2223</ele>
        <time>2024-08-10T07:32:38Z</time>
      </trkpt>
      <trkpt lat="45.06614" lon="6.21732">
        <ele>2223.2</ele>
        <time>2024-08-10T07:32:39Z</time>
      </trkpt>
      <trkpt lat="45.06613" lon="6.21735">
        <ele>2223.4</ele>
        <time>2024-08-10T07:32:40Z</time>
      </trkpt>
      <trkpt lat="45.06613" lon="6.21735">
        <ele>2223.6</ele>
        <time>2024-08-10T07:32:41Z</time>
      </trkpt>
      <trkpt lat="45.06612" lon="6.21737">
        <ele>2223.6</ele>
        <time>2024-08-10T07:32:42Z</time>
      </trkpt>
      <trkpt lat="45.06612" lon="6.21737">
        <ele>2223.8</ele>
        <time>2024-08-10T07:32:43Z</time>
      </trkpt>
      <trkpt lat="45.0661" lon="6.2174">
        <ele>2224</ele>
        <time>2024-08-10T07:32:44Z</time>
      </trkpt>
      <trkpt lat="45.0661" lon="6.2174">
        <ele>2224.2</ele>
        <time>2024-08-10T07:32:45Z</time>
      </trkpt>
      <trkpt lat="45.06609" lon="6.21742">
        <ele>2224.2</ele>
        <time>2024-08-10T07:32:46Z</time>
      </trkpt>
      <trkpt lat="45.06609" lon="6.21742">
        <ele>2224.4</ele>
        <time>2024-08-10T07:32:47Z</time>
      </trkpt>
      <trkpt lat="45.06607" lon="6.21745">
        <ele>2224.6</ele>
        <time>2024-08-10T07:32:48Z</time>
      </trkpt>
      <trkpt lat="45.06607" lon="6.21745">
        <ele>2224.4</ele>
        <time>2024-08-10T07:32:49Z</time>
      </trkpt>
      <trkpt lat="45.06605" lon="6.21747">
        <ele>2224.6</ele>
        <time>2024-08-10T07:32:50Z</time>
      </trkpt>
      <trkpt lat="45.06605" lon="6.21747">
        <ele>2224.8</ele>
        <time>2024-08-10T07:32:51Z</time>
      </trkpt>
      <trkpt lat="45.06603" lon="6.21751">
        <ele>2224.8</ele>
        <time>2024-08-10T07:32:52Z</time>
      </trkpt>
      <trkpt lat="45.06603" lon="6.21751">
        <ele>2224.8</ele>
        <time>2024-08-10T07:32:53Z</time>
      </trkpt>
      <trkpt lat="45.06601" lon="6.21753">
        <ele>2225</ele>
        <time>2024-08-10T07:32:54Z</time>
      </trkpt>
      <trkpt lat="45.06601" lon="6.21753">
        <ele>2225</ele>
        <time>2024-08-10T07:32:55Z</time>
      </trkpt>
      <trkpt lat="45.06599" lon="6.21756">
        <ele>2225</ele>
        <time>2024-08-10T07:32:56Z</time>
      </trkpt>
      <trkpt lat="45.06599" lon="6.21756">
        <ele>2224.8</ele>
        <time>2024-08-10T07:32:57Z</time>
      </trkpt>
      <trkpt lat="45.06598" lon="6.2176">
        <ele>2224.6</ele>
        <time>2024-08-10T07:32:58Z</time>
      </trkpt>
      <trkpt lat="45.06598" lon="6.2176">
        <ele>2224.6</ele>
        <time>2024-08-10T07:32:59Z</time>
      </trkpt>
      <trkpt lat="45.06597" lon="6.21763">
        <ele>2224.6</ele>
        <time>2024-08-10T07:33:00Z</time>
      </trkpt>
      <trkpt lat="45.06597" lon="6.21763">
        <ele>2224.4</ele>
        <time>2024-08-10T07:33:01Z</time>
      </trkpt>
      <trkpt lat="45.06595" lon="6.21766">
        <ele>2224.2</ele>
        <time>2024-08-10T07:33:02Z</time>
      </trkpt>
      <trkpt lat="45.06595" lon="6.21766">
        <ele>2223.8</ele>
        <time>2024-08-10T07:33:03Z</time>
      </trkpt>
      <trkpt lat="45.06594" lon="6.21769">
        <ele>2223.8</ele>
        <time>2024-08-10T07:33:04Z</time>
      </trkpt>
      <trkpt lat="45.06594" lon="6.21769">
        <ele>2223.6</ele>
        <time>2024-08-10T07:33:05Z</time>
      </trkpt>
      <trkpt lat="45.06592" lon="6.21772">
        <ele>2223.4</ele>
        <time>2024-08-10T07:33:06Z</time>
      </trkpt>
      <trkpt lat="45.06592" lon="6.21772">
        <ele>2222.8</ele>
        <time>2024-08-10T07:33:07Z</time>
      </trkpt>
      <trkpt lat="45.06591" lon="6.21776">
        <ele>2222.6</ele>
        <time>2024-08-10T07:33:08Z</time>
      </trkpt>
      <trkpt lat="45.06591" lon="6.21776">
        <ele>2222.4</ele>
        <time>2024-08-10T07:33:09Z</time>
      </trkpt>
      <trkpt lat="45.0659" lon="6.2178">
        <ele>2222</ele>
        <time>2024-08-10T07:33:10Z</time>
      </trkpt>
      <trkpt lat="45.0659" lon="6.2178">
        <ele>2222</ele>
        <time>2024-08-10T07:33:11Z</time>
      </trkpt>
      <trkpt lat="45.06589" lon="6.21784">
        <ele>2222</ele>
        <time>2024-08-10T07:33:12Z</time>
      </trkpt>
      <trkpt lat="45.06589" lon="6.21784">
        <ele>2221.4</ele>
        <time>2024-08-10T07:33:13Z</time>
      </trkpt>
      <trkpt lat="45.06588" lon="6.21787">
        <ele>2221.4</ele>
        <time>2024-08-10T07:33:14Z</time>
      </trkpt>
      <trkpt lat="45.06588" lon="6.21787">
        <ele>2221.2</ele>
        <time>2024-08-10T07:33:15Z</time>
      </trkpt>
      <trkpt lat="45.06587" lon="6.21791">
        <ele>2221.2</ele>
        <time>2024-08-10T07:33:16Z</time>
      </trkpt>
      <trkpt lat="45.06587" lon="6.21791">
        <ele>2221</ele>
        <time>2024-08-10T07:33:17Z</time>
      </trkpt>
      <trkpt lat="45.06587" lon="6.21795">
        <ele>2221</ele>
        <time>2024-08-10T07:33:18Z</time>
      </trkpt>
      <trkpt lat="45.06587" lon="6.21795">
        <ele>2220.8</ele>
        <time>2024-08-10T07:33:19Z</time>
      </trkpt>
      <trkpt lat="45.06587" lon="6.21798">
        <ele>2220.6</ele>
        <time>2024-08-10T07:33:20Z</time>
      </trkpt>
      <trkpt lat="45.06587" lon="6.21798">
        <ele>2220.4</ele>
        <time>2024-08-10T07:33:21Z</time>
      </trkpt>
      <trkpt lat="45.06587" lon="6.21802">
        <ele>2220.4</ele>
        <time>2024-08-10T07:33:22Z</time>
      </trkpt>
      <trkpt lat="45.06587" lon="6.21802">
        <ele>2220.4</ele>
        <time>2024-08-10T07:33:23Z</time>
      </trkpt>
      <trkpt lat="45.06586" lon="6.21806">
        <ele>2220.2</ele>
        <time>2024-08-10T07:33:24Z</time>
      </trkpt>
      <trkpt lat="45.06586" lon="6.21806">
        <ele>2219.8</ele>
        <time>2024-08-10T07:33:25Z</time>
      </trkpt>
      <trkpt lat="45.06585" lon="6.21809">
        <ele>2219.6</ele>
        <time>2024-08-10T07:33:26Z</time>
      </trkpt>
      <trkpt lat="45.06585" lon="6.21809">
        <ele>2219.4</ele>
        <time>2024-08-10T07:33:27Z</time>
      </trkpt>
      <trkpt lat="45.06584" lon="6.21813">
        <ele>2219.4</ele>
        <time>2024-08-10T07:33:28Z</time>
      </trkpt>
      <trkpt lat="45.06584" lon="6.21813">
        <ele>2219.2</ele>
        <time>2024-08-10T07:33:29Z</time>
      </trkpt>
      <trkpt lat="45.06583" lon="6.21816">
        <ele>2219</ele>
        <time>2024-08-10T07:33:30Z</time>
      </trkpt>
      <trkpt lat="45.06583" lon="6.21816">
        <ele>2219</ele>
        <time>2024-08-10T07:33:31Z</time>
      </trkpt>
      <trkpt lat="45.06583" lon="6.21819">
        <ele>2218.8</ele>
        <time>2024-08-10T07:33:32Z</time>
      </trkpt>
      <trkpt lat="45.06583" lon="6.21819">
        <ele>2218.8</ele>
        <time>2024-08-10T07:33:33Z</time>
      </trkpt>
      <trkpt lat="45.06581" lon="6.21823">
        <ele>2218.8</ele>
        <time>2024-08-10T07:33:34Z</time>
      </trkpt>
      <trkpt lat="45.06581" lon="6.21823">
        <ele>2218.4</ele>
        <time>2024-08-10T07:33:35Z</time>
      </trkpt>
      <trkpt lat="45.06581" lon="6.21827">
        <ele>2218.4</ele>
        <time>2024-08-10T07:33:36Z</time>
      </trkpt>
      <trkpt lat="45.06581" lon="6.21827">
        <ele>2218.2</ele>
        <time>2024-08-10T07:33:37Z</time>
      </trkpt>
      <trkpt lat="45.06581" lon="6.21831">
        <ele>2218</ele>
        <time>2024-08-10T07:33:38Z</time>
      </trkpt>
      <trkpt lat="45.06581" lon="6.21831">
        <ele>2218</ele>
        <time>2024-08-10T07:33:39Z</time>
      </trkpt>
      <trkpt lat="45.06581" lon="6.21834">
        <ele>2217.4</ele>
        <time>2024-08-10T07:33:40Z</time>
      </trkpt>
      <trkpt lat="45.06581" lon="6.21834">
        <ele>2217.2</ele>
        <time>2024-08-10T07:33:41Z</time>
      </trkpt>
      <trkpt lat="45.06581" lon="6.21838">
        <ele>2217</ele>
        <time>2024-08-10T07:33:42Z</time>
      </trkpt>
      <trkpt lat="45.06581" lon="6.21838">
        <ele>2216.8</ele>
        <time>2024-08-10T07:33:43Z</time>
      </trkpt>
      <trkpt lat="45.06581" lon="6.21841">
        <ele>2216.8</ele>
        <time>2024-08-10T07:33:44Z</time>
      </trkpt>
      <trkpt lat="45.06581" lon="6.21841">
        <ele>2216.8</ele>
        <time>2024-08-10T07:33:45Z</time>
      </trkpt>
      <trkpt lat="45.0658" lon="6.21845">
        <ele>2216.6</ele>
        <time>2024-08-10T07:33:46Z</time>
      </trkpt>
      <trkpt lat="45.0658" lon="6.21845">
        <ele>2216.6</ele>
        <time>2024-08-10T07:33:47Z</time>
      </trkpt>
      <trkpt lat="45.0658" lon="6.21848">
        <ele>2216.4</ele>
        <time>2024-08-10T07:33:48Z</time>
      </trkpt>
      <trkpt lat="45.0658" lon="6.21848">
        <ele>2215.8</ele>
        <time>2024-08-10T07:33:49Z</time>
      </trkpt>
      <trkpt lat="45.0658" lon="6.21852">
        <ele>2215.6</ele>
        <time>2024-08-10T07:33:50Z</time>
      </trkpt>
      <trkpt lat="45.0658" lon="6.21852">
        <ele>2215.4</ele>
        <time>2024-08-10T07:33:51Z</time>
      </trkpt>
      <trkpt lat="45.0658" lon="6.21856">
        <ele>2215</ele>
        <time>2024-08-10T07:33:52Z</time>
      </trkpt>
      <trkpt lat="45.0658" lon="6.21856">
        <ele>2214.8</ele>
        <time>2024-08-10T07:33:53Z</time>
      </trkpt>
      <trkpt lat="45.0658" lon="6.21859">
        <ele>2214.8</ele>
        <time>2024-08-10T07:33:54Z</time>
      </trkpt>
      <trkpt lat="45.0658" lon="6.21859">
        <ele>2214.6</ele>
        <time>2024-08-10T07:33:55Z</time>
      </trkpt>
      <trkpt lat="45.06581" lon="6.21863">
        <ele>2214.4</ele>
        <time>2024-08-10T07:33:56Z</time>
      </trkpt>
      <trkpt lat="45.06581" lon="6.21863">
        <ele>2214.4</ele>
        <time>2024-08-10T07:33:57Z</time>
      </trkpt>
      <trkpt lat="45.0658" lon="6.21867">
        <ele>2214</ele>
        <time>2024-08-10T07:33:58Z</time>
      </trkpt>
      <trkpt lat="45.0658" lon="6.21867">
        <ele>2214</ele>
        <time>2024-08-10T07:33:59Z</time>
      </trkpt>
      <trkpt lat="45.0658" lon="6.21871">
        <ele>2214</ele>
        <time>2024-08-10T07:34:00Z</time>
      </trkpt>
      <trkpt lat="45.0658" lon="6.21871">
        <ele>2214</ele>
        <time>2024-08-10T07:34:01Z</time>
      </trkpt>
      <trkpt lat="45.06579" lon="6.21875">
        <ele>2213.6</ele>
        <time>2024-08-10T07:34:02Z</time>
      </trkpt>
      <trkpt lat="45.06579" lon="6.21875">
        <ele>2213.4</ele>
        <time>2024-08-10T07:34:03Z</time>
      </trkpt>
      <trkpt lat="45.06578" lon="6.2188">
        <ele>2213.4</ele>
        <time>2024-08-10T07:34:04Z</time>
      </trkpt>
      <trkpt lat="45.06578" lon="6.2188">
        <ele>2213.4</ele>
        <time>2024-08-10T07:34:05Z</time>
      </trkpt>
      <trkpt lat="45.06578" lon="6.21883">
        <ele>2213.2</ele>
        <time>2024-08-10T07:34:06Z</time>
      </trkpt>
      <trkpt lat="45.06578" lon="6.21883">
        <ele>2213.2</ele>
        <time>2024-08-10T07:34:07Z</time>
      </trkpt>
      <trkpt lat="45.06577" lon="6.21887">
        <ele>2213</ele>
        <time>2024-08-10T07:34:08Z</time>
      </trkpt>
      <trkpt lat="45.06577" lon="6.21887">
        <ele>2213</ele>
        <time>2024-08-10T07:34:09Z</time>
      </trkpt>
      <trkpt lat="45.06577" lon="6.21891">
        <ele>2212.8</ele>
        <time>2024-08-10T07:34:10Z</time>
      </trkpt>
      <trkpt lat="45.06577" lon="6.21891">
        <ele>2212.6</ele>
        <time>2024-08-10T07:34:11Z</time>
      </trkpt>
      <trkpt lat="45.06575" lon="6.21895">
        <ele>2212.6</ele>
        <time>2024-08-10T07:34:12Z</time>
      </trkpt>
      <trkpt lat="45.06575" lon="6.21895">
        <ele>2212.8</ele>
        <time>2024-08-10T07:34:13Z</time>
      </trkpt>
      <trkpt lat="45.06574" lon="6.21899">
        <ele>2212.8</ele>
        <time>2024-08-10T07:34:14Z</time>
      </trkpt>
      <trkpt lat="45.06574" lon="6.21899">
        <ele>2212.4</ele>
        <time>2024-08-10T07:34:15Z</time>
      </trkpt>
      <trkpt lat="45.06573" lon="6.21902">
        <ele>2212.2</ele>
        <time>2024-08-10T07:34:16Z</time>
      </trkpt>
      <trkpt lat="45.06573" lon="6.21902">
        <ele>2212.2</ele>
        <time>2024-08-10T07:34:17Z</time>
      </trkpt>
      <trkpt lat="45.06573" lon="6.21906">
        <ele>2212.2</ele>
        <time>2024-08-10T07:34:18Z</time>
      </trkpt>
      <trkpt lat="45.06573" lon="6.21906">
        <ele>2212</ele>
        <time>2024-08-10T07:34:19Z</time>
      </trkpt>
      <trkpt lat="45.06572" lon="6.2191">
        <ele>2212</ele>
        <time>2024-08-10T07:34:20Z</time>
      </trkpt>
      <trkpt lat="45.06573" lon="6.21912">
        <ele>2212</ele>
        <time>2024-08-10T07:34:21Z</time>
      </trkpt>
      <trkpt lat="45.06573" lon="6.21912">
        <ele>2211.8</ele>
        <time>2024-08-10T07:34:22Z</time>
      </trkpt>
      <trkpt lat="45.06572" lon="6.21916">
        <ele>2211.6</ele>
        <time>2024-08-10T07:34:23Z</time>
      </trkpt>
      <trkpt lat="45.06572" lon="6.21916">
        <ele>2211.6</ele>
        <time>2024-08-10T07:34:24Z</time>
      </trkpt>
      <trkpt lat="45.06572" lon="6.21921">
        <ele>2211.6</ele>
        <time>2024-08-10T07:34:25Z</time>
      </trkpt>
      <trkpt lat="45.06572" lon="6.21921">
        <ele>2211.2</ele>
        <time>2024-08-10T07:34:26Z</time>
      </trkpt>
      <trkpt lat="45.06572" lon="6.21925">
        <ele>2211.2</ele>
        <time>2024-08-10T07:34:27Z</time>
      </trkpt>
      <trkpt lat="45.06572" lon="6.21925">
        <ele>2211.2</ele>
        <time>2024-08-10T07:34:28Z</time>
      </trkpt>
      <trkpt lat="45.06573" lon="6.21928">
        <ele>2211.2</ele>
        <time>2024-08-10T07:34:29Z</time>
      </trkpt>
      <trkpt lat="45.06573" lon="6.21928">
        <ele>2210.8</ele>
        <time>2024-08-10T07:34:30Z</time>
      </trkpt>
      <trkpt lat="45.06573" lon="6.21932">
        <ele>2210.8</ele>
        <time>2024-08-10T07:34:31Z</time>
      </trkpt>
      <trkpt lat="45.06573" lon="6.21932">
        <ele>2210.6</ele>
        <time>2024-08-10T07:34:32Z</time>
      </trkpt>
      <trkpt lat="45.06574" lon="6.21935">
        <ele>2210.6</ele>
        <time>2024-08-10T07:34:33Z</time>
      </trkpt>
      <trkpt lat="45.06574" lon="6.21935">
        <ele>2210.2</ele>
        <time>2024-08-10T07:34:34Z</time>
      </trkpt>
      <trkpt lat="45.06575" lon="6.21938">
        <ele>2210.2</ele>
        <time>2024-08-10T07:34:35Z</time>
      </trkpt>
      <trkpt lat="45.06575" lon="6.21938">
        <ele>2210.2</ele>
        <time>2024-08-10T07:34:36Z</time>
      </trkpt>
      <trkpt lat="45.06576" lon="6.21941">
        <ele>2210</ele>
        <time>2024-08-10T07:34:37Z</time>
      </trkpt>
      <trkpt lat="45.06576" lon="6.21941">
        <ele>2209.8</ele>
        <time>2024-08-10T07:34:38Z</time>
      </trkpt>
      <trkpt lat="45.06577" lon="6.21944">
        <ele>2209.6</ele>
        <time>2024-08-10T07:34:39Z</time>
      </trkpt>
      <trkpt lat="45.06577" lon="6.21944">
        <ele>2209.4</ele>
        <time>2024-08-10T07:34:40Z</time>
      </trkpt>
      <trkpt lat="45.06577" lon="6.21948">
        <ele>2209.2</ele>
        <time>2024-08-10T07:34:41Z</time>
      </trkpt>
      <trkpt lat="45.06577" lon="6.21948">
        <ele>2209</ele>
        <time>2024-08-10T07:34:42Z</time>
      </trkpt>
      <trkpt lat="45.06577" lon="6.21951">
        <ele>2208.8</ele>
        <time>2024-08-10T07:34:43Z</time>
      </trkpt>
      <trkpt lat="45.06577" lon="6.21951">
        <ele>2208.6</ele>
        <time>2024-08-10T07:34:44Z</time>
      </trkpt>
      <trkpt lat="45.06577" lon="6.21954">
        <ele>2208.2</ele>
        <time>2024-08-10T07:34:45Z</time>
      </trkpt>
      <trkpt lat="45.06577" lon="6.21954">
        <ele>2207.8</ele>
        <time>2024-08-10T07:34:46Z</time>
      </trkpt>
      <trkpt lat="45.06577" lon="6.21957">
        <ele>2207.6</ele>
        <time>2024-08-10T07:34:47Z</time>
      </trkpt>
      <trkpt lat="45.06577" lon="6.21957">
        <ele>2207.2</ele>
        <time>2024-08-10T07:34:48Z</time>
      </trkpt>
      <trkpt lat="45.06577" lon="6.2196">
        <ele>2207</ele>
        <time>2024-08-10T07:34:49Z</time>
      </trkpt>
      <trkpt lat="45.06577" lon="6.2196">
        <ele>2206.6</ele>
        <time>2024-08-10T07:34:50Z</time>
      </trkpt>
      <trkpt lat="45.06577" lon="6.21963">
        <ele>2206</ele>
        <time>2024-08-10T07:34:51Z</time>
      </trkpt>
      <trkpt lat="45.06577" lon="6.21963">
        <ele>2205.8</ele>
        <time>2024-08-10T07:34:52Z</time>
      </trkpt>
      <trkpt lat="45.06577" lon="6.21967">
        <ele>2205.6</ele>
        <time>2024-08-10T07:34:53Z</time>
      </trkpt>
      <trkpt lat="45.06577" lon="6.21967">
        <ele>2205.2</ele>
        <time>2024-08-10T07:34:54Z</time>
      </trkpt>
      <trkpt lat="45.06578" lon="6.21971">
        <ele>2204.6</ele>
        <time>2024-08-10T07:34:55Z</time>
      </trkpt>
      <trkpt lat="45.06578" lon="6.21971">
        <ele>2204</ele>
        <time>2024-08-10T07:34:56Z</time>
      </trkpt>
      <trkpt lat="45.06578" lon="6.21974">
        <ele>2204</ele>
        <time>2024-08-10T07:34:57Z</time>
      </trkpt>
      <trkpt lat="45.06578" lon="6.21974">
        <ele>2203.8</ele>
        <time>2024-08-10T07:34:58Z</time>
      </trkpt>
      <trkpt lat="45.06578" lon="6.21974">
        <ele>2203.8</ele>
        <time>2024-08-10T07:34:59Z</time>
      </trkpt>
      <trkpt lat="45.06578" lon="6.21977">
        <ele>2203.8</ele>
        <time>2024-08-10T07:35:00Z</time>
      </trkpt>
      <trkpt lat="45.06578" lon="6.21977">
        <ele>2203.6</ele>
        <time>2024-08-10T07:35:01Z</time>
      </trkpt>
      <trkpt lat="45.06578" lon="6.21977">
        <ele>2203.6</ele>
        <time>2024-08-10T07:35:02Z</time>
      </trkpt>
      <trkpt lat="45.06578" lon="6.21977">
        <ele>2203.4</ele>
        <time>2024-08-10T07:35:03Z</time>
      </trkpt>
      <trkpt lat="45.06576" lon="6.2198">
        <ele>2203.4</ele>
        <time>2024-08-10T07:35:04Z</time>
      </trkpt>
      <trkpt lat="45.06576" lon="6.2198">
        <ele>2203.6</ele>
        <time>2024-08-10T07:35:05Z</time>
      </trkpt>
      <trkpt lat="45.06576" lon="6.2198">
        <ele>2203.6</ele>
        <time>2024-08-10T07:35:06Z</time>
      </trkpt>
      <trkpt lat="45.06576" lon="6.21983">
        <ele>2203.6</ele>
        <time>2024-08-10T07:35:07Z</time>
      </trkpt>
      <trkpt lat="45.06576" lon="6.21983">
        <ele>2203.6</ele>
        <time>2024-08-10T07:35:08Z</time>
      </trkpt>
      <trkpt lat="45.06576" lon="6.21987">
        <ele>2203.6</ele>
        <time>2024-08-10T07:35:09Z</time>
      </trkpt>
      <trkpt lat="45.06576" lon="6.21987">
        <ele>2203.6</ele>
        <time>2024-08-10T07:35:10Z</time>
      </trkpt>
      <trkpt lat="45.06576" lon="6.2199">
        <ele>2203.6</ele>
        <time>2024-08-10T07:35:11Z</time>
      </trkpt>
      <trkpt lat="45.06576" lon="6.2199">
        <ele>2203.6</ele>
        <time>2024-08-10T07:35:12Z</time>
      </trkpt>
      <trkpt lat="45.06575" lon="6.21993">
        <ele>2203.6</ele>
        <time>2024-08-10T07:35:13Z</time>
      </trkpt>
      <trkpt lat="45.06575" lon="6.21993">
        <ele>2203.8</ele>
        <time>2024-08-10T07:35:14Z</time>
      </trkpt>
      <trkpt lat="45.06575" lon="6.21996">
        <ele>2203.8</ele>
        <time>2024-08-10T07:35:15Z</time>
      </trkpt>
      <trkpt lat="45.06575" lon="6.21996">
        <ele>2204</ele>
        <time>2024-08-10T07:35:16Z</time>
      </trkpt>
      <trkpt lat="45.06575" lon="6.21996">
        <ele>2204.2</ele>
        <time>2024-08-10T07:35:17Z</time>
      </trkpt>
      <trkpt lat="45.06575" lon="6.22">
        <ele>2204.6</ele>
        <time>2024-08-10T07:35:18Z</time>
      </trkpt>
      <trkpt lat="45.06575" lon="6.22">
        <ele>2204.6</ele>
        <time>2024-08-10T07:35:19Z</time>
      </trkpt>
      <trkpt lat="45.06575" lon="6.22">
        <ele>2204.8</ele>
        <time>2024-08-10T07:35:20Z</time>
      </trkpt>
      <trkpt lat="45.06575" lon="6.22003">
        <ele>2205.2</ele>
        <time>2024-08-10T07:35:21Z</time>
      </trkpt>
      <trkpt lat="45.06575" lon="6.22003">
        <ele>2205.2</ele>
        <time>2024-08-10T07:35:22Z</time>
      </trkpt>
      <trkpt lat="45.06573" lon="6.22006">
        <ele>2205.4</ele>
        <time>2024-08-10T07:35:23Z</time>
      </trkpt>
      <trkpt lat="45.06573" lon="6.22006">
        <ele>2205.6</ele>
        <time>2024-08-10T07:35:24Z</time>
      </trkpt>
      <trkpt lat="45.06573" lon="6.22009">
        <ele>2205.6</ele>
        <time>2024-08-10T07:35:25Z</time>
      </trkpt>
      <trkpt lat="45.06573" lon="6.22009">
        <ele>2205.6</ele>
        <time>2024-08-10T07:35:26Z</time>
      </trkpt>
      <trkpt lat="45.06571" lon="6.22013">
        <ele>2205.6</ele>
        <time>2024-08-10T07:35:27Z</time>
      </trkpt>
      <trkpt lat="45.06571" lon="6.22013">
        <ele>2205.6</ele>
        <time>2024-08-10T07:35:28Z</time>
      </trkpt>
      <trkpt lat="45.06569" lon="6.22016">
        <ele>2205.6</ele>
        <time>2024-08-10T07:35:29Z</time>
      </trkpt>
      <trkpt lat="45.06569" lon="6.22016">
        <ele>2205.4</ele>
        <time>2024-08-10T07:35:30Z</time>
      </trkpt>
      <trkpt lat="45.06568" lon="6.2202">
        <ele>2205</ele>
        <time>2024-08-10T07:35:31Z</time>
      </trkpt>
      <trkpt lat="45.06568" lon="6.2202">
        <ele>2205</ele>
        <time>2024-08-10T07:35:32Z</time>
      </trkpt>
      <trkpt lat="45.06567" lon="6.22023">
        <ele>2204.8</ele>
        <time>2024-08-10T07:35:33Z</time>
      </trkpt>
      <trkpt lat="45.06565" lon="6.22025">
        <ele>2204.8</ele>
        <time>2024-08-10T07:35:34Z</time>
      </trkpt>
      <trkpt lat="45.06565" lon="6.22025">
        <ele>2204.8</ele>
        <time>2024-08-10T07:35:35Z</time>
      </trkpt>
      <trkpt lat="45.06565" lon="6.22029">
        <ele>2204.8</ele>
        <time>2024-08-10T07:35:36Z</time>
      </trkpt>
      <trkpt lat="45.06565" lon="6.22029">
        <ele>2204.8</ele>
        <time>2024-08-10T07:35:37Z</time>
      </trkpt>
      <trkpt lat="45.06563" lon="6.22032">
        <ele>2204.8</ele>
        <time>2024-08-10T07:35:38Z</time>
      </trkpt>
      <trkpt lat="45.06563" lon="6.22032">
        <ele>2204.8</ele>
        <time>2024-08-10T07:35:39Z</time>
      </trkpt>
      <trkpt lat="45.06561" lon="6.22034">
        <ele>2204.8</ele>
        <time>2024-08-10T07:35:40Z</time>
      </trkpt>
      <trkpt lat="45.06561" lon="6.22034">
        <ele>2204.8</ele>
        <time>2024-08-10T07:35:41Z</time>
      </trkpt>
      <trkpt lat="45.06561" lon="6.22034">
        <ele>2204.4</ele>
        <time>2024-08-10T07:35:42Z</time>
      </trkpt>
      <trkpt lat="45.0656" lon="6.22036">
        <ele>2204.2</ele>
        <time>2024-08-10T07:35:43Z</time>
      </trkpt>
      <trkpt lat="45.0656" lon="6.22036">
        <ele>2204.4</ele>
        <time>2024-08-10T07:35:44Z</time>
      </trkpt>
      <trkpt lat="45.06558" lon="6.22037">
        <ele>2204.2</ele>
        <time>2024-08-10T07:35:45Z</time>
      </trkpt>
      <trkpt lat="45.06558" lon="6.22037">
        <ele>2204.2</ele>
        <time>2024-08-10T07:35:46Z</time>
      </trkpt>
      <trkpt lat="45.06558" lon="6.22037">
        <ele>2204.2</ele>
        <time>2024-08-10T07:35:47Z</time>
      </trkpt>
      <trkpt lat="45.06558" lon="6.22037">
        <ele>2204.2</ele>
        <time>2024-08-10T07:35:48Z</time>
      </trkpt>
      <trkpt lat="45.06558" lon="6.22037">
        <ele>2204.4</ele>
        <time>2024-08-10T07:35:49Z</time>
      </trkpt>
      <trkpt lat="45.06558" lon="6.22037">
        <ele>2204.8</ele>
        <time>2024-08-10T07:35:50Z</time>
      </trkpt>
      <trkpt lat="45.06558" lon="6.22037">
        <ele>2205</ele>
        <time>2024-08-10T07:35:51Z</time>
      </trkpt>
      <trkpt lat="45.06558" lon="6.22037">
        <ele>2205</ele>
        <time>2024-08-10T07:35:52Z</time>
      </trkpt>
      <trkpt lat="45.06558" lon="6.22037">
        <ele>2205</ele>
        <time>2024-08-10T07:35:53Z</time>
      </trkpt>
      <trkpt lat="45.06558" lon="6.22037">
        <ele>2205.2</ele>
        <time>2024-08-10T07:35:54Z</time>
      </trkpt>
      <trkpt lat="45.06558" lon="6.22037">
        <ele>2205.2</ele>
        <time>2024-08-10T07:35:55Z</time>
      </trkpt>
      <trkpt lat="45.06558" lon="6.22037">
        <ele>2205.2</ele>
        <time>2024-08-10T07:35:56Z</time>
      </trkpt>
      <trkpt lat="45.06558" lon="6.22037">
        <ele>2205.2</ele>
        <time>2024-08-10T07:35:57Z</time>
      </trkpt>
      <trkpt lat="45.06558" lon="6.22037">
        <ele>2205.2</ele>
        <time>2024-08-10T07:35:58Z</time>
      </trkpt>
      <trkpt lat="45.06558" lon="6.22037">
        <ele>2204.8</ele>
        <time>2024-08-10T07:35:59Z</time>
      </trkpt>
      <trkpt lat="45.06558" lon="6.22037">
        <ele>2204.8</ele>
        <time>2024-08-10T07:36:00Z</time>
      </trkpt>
      <trkpt lat="45.06558" lon="6.22037">
        <ele>2204.8</ele>
        <time>2024-08-10T07:36:01Z</time>
      </trkpt>
      <trkpt lat="45.06558" lon="6.22037">
        <ele>2205</ele>
        <time>2024-08-10T07:36:02Z</time>
      </trkpt>
      <trkpt lat="45.06558" lon="6.22037">
        <ele>2205</ele>
        <time>2024-08-10T07:36:03Z</time>
      </trkpt>
      <trkpt lat="45.06558" lon="6.22037">
        <ele>2205</ele>
        <time>2024-08-10T07:36:04Z</time>
      </trkpt>
      <trkpt lat="45.06558" lon="6.22037">
        <ele>2204.6</ele>
        <time>2024-08-10T07:36:05Z</time>
      </trkpt>
      <trkpt lat="45.06558" lon="6.22037">
        <ele>2204.4</ele>
        <time>2024-08-10T07:36:06Z</time>
      </trkpt>
      <trkpt lat="45.06558" lon="6.22037">
        <ele>2204.4</ele>
        <time>2024-08-10T07:36:07Z</time>
      </trkpt>
      <trkpt lat="45.06557" lon="6.22041">
        <ele>2204.4</ele>
        <time>2024-08-10T07:36:08Z</time>
      </trkpt>
      <trkpt lat="45.06557" lon="6.22041">
        <ele>2203.8</ele>
        <time>2024-08-10T07:36:09Z</time>
      </trkpt>
      <trkpt lat="45.06557" lon="6.22045">
        <ele>2203.6</ele>
        <time>2024-08-10T07:36:10Z</time>
      </trkpt>
      <trkpt lat="45.06557" lon="6.22045">
        <ele>2203.4</ele>
        <time>2024-08-10T07:36:11Z</time>
      </trkpt>
      <trkpt lat="45.06556" lon="6.22048">
        <ele>2203.2</ele>
        <time>2024-08-10T07:36:12Z</time>
      </trkpt>
      <trkpt lat="45.06556" lon="6.22048">
        <ele>2202.8</ele>
        <time>2024-08-10T07:36:13Z</time>
      </trkpt>
      <trkpt lat="45.06556" lon="6.22048">
        <ele>2202.8</ele>
        <time>2024-08-10T07:36:14Z</time>
      </trkpt>
      <trkpt lat="45.06556" lon="6.22048">
        <ele>2202.8</ele>
        <time>2024-08-10T07:36:15Z</time>
      </trkpt>
      <trkpt lat="45.06554" lon="6.22051">
        <ele>2202.8</ele>
        <time>2024-08-10T07:36:16Z</time>
      </trkpt>
      <trkpt lat="45.06554" lon="6.22051">
        <ele>2203.2</ele>
        <time>2024-08-10T07:36:17Z</time>
      </trkpt>
      <trkpt lat="45.06553" lon="6.22054">
        <ele>2203.4</ele>
        <time>2024-08-10T07:36:18Z</time>
      </trkpt>
      <trkpt lat="45.06553" lon="6.22054">
        <ele>2203.4</ele>
        <time>2024-08-10T07:36:19Z</time>
      </trkpt>
      <trkpt lat="45.06553" lon="6.22057">
        <ele>2203.4</ele>
        <time>2024-08-10T07:36:20Z</time>
      </trkpt>
      <trkpt lat="45.06553" lon="6.22057">
        <ele>2203.2</ele>
        <time>2024-08-10T07:36:21Z</time>
      </trkpt>
      <trkpt lat="45.06553" lon="6.22061">
        <ele>2203.2</ele>
        <time>2024-08-10T07:36:22Z</time>
      </trkpt>
      <trkpt lat="45.06553" lon="6.22061">
        <ele>2203.4</ele>
        <time>2024-08-10T07:36:23Z</time>
      </trkpt>
      <trkpt lat="45.06551" lon="6.22062">
        <ele>2203.8</ele>
        <time>2024-08-10T07:36:24Z</time>
      </trkpt>
      <trkpt lat="45.06551" lon="6.22062">
        <ele>2204</ele>
        <time>2024-08-10T07:36:25Z</time>
      </trkpt>
      <trkpt lat="45.0655" lon="6.22065">
        <ele>2204</ele>
        <time>2024-08-10T07:36:26Z</time>
      </trkpt>
      <trkpt lat="45.0655" lon="6.22065">
        <ele>2204</ele>
        <time>2024-08-10T07:36:27Z</time>
      </trkpt>
      <trkpt lat="45.06548" lon="6.22067">
        <ele>2204.2</ele>
        <time>2024-08-10T07:36:28Z</time>
      </trkpt>
      <trkpt lat="45.06548" lon="6.22067">
        <ele>2204.2</ele>
        <time>2024-08-10T07:36:29Z</time>
      </trkpt>
      <trkpt lat="45.06548" lon="6.22067">
        <ele>2204.2</ele>
        <time>2024-08-10T07:36:30Z</time>
      </trkpt>
      <trkpt lat="45.06546" lon="6.22069">
        <ele>2204.6</ele>
        <time>2024-08-10T07:36:31Z</time>
      </trkpt>
      <trkpt lat="45.06546" lon="6.22069">
        <ele>2204.6</ele>
        <time>2024-08-10T07:36:32Z</time>
      </trkpt>
      <trkpt lat="45.06545" lon="6.22071">
        <ele>2204.8</ele>
        <time>2024-08-10T07:36:33Z</time>
      </trkpt>
      <trkpt lat="45.06545" lon="6.22071">
        <ele>2204.8</ele>
        <time>2024-08-10T07:36:34Z</time>
      </trkpt>
      <trkpt lat="45.06543" lon="6.22073">
        <ele>2205.2</ele>
        <time>2024-08-10T07:36:35Z</time>
      </trkpt>
      <trkpt lat="45.06543" lon="6.22073">
        <ele>2205.2</ele>
        <time>2024-08-10T07:36:36Z</time>
      </trkpt>
      <trkpt lat="45.06542" lon="6.22075">
        <ele>2205.2</ele>
        <time>2024-08-10T07:36:37Z</time>
      </trkpt>
      <trkpt lat="45.06542" lon="6.22075">
        <ele>2205.2</ele>
        <time>2024-08-10T07:36:38Z</time>
      </trkpt>
      <trkpt lat="45.06541" lon="6.22078">
        <ele>2205.2</ele>
        <time>2024-08-10T07:36:39Z</time>
      </trkpt>
      <trkpt lat="45.06541" lon="6.22078">
        <ele>2205.2</ele>
        <time>2024-08-10T07:36:40Z</time>
      </trkpt>
      <trkpt lat="45.0654" lon="6.2208">
        <ele>2205.6</ele>
        <time>2024-08-10T07:36:41Z</time>
      </trkpt>
      <trkpt lat="45.0654" lon="6.2208">
        <ele>2205.8</ele>
        <time>2024-08-10T07:36:42Z</time>
      </trkpt>
      <trkpt lat="45.06538" lon="6.22082">
        <ele>2205.8</ele>
        <time>2024-08-10T07:36:43Z</time>
      </trkpt>
      <trkpt lat="45.06538" lon="6.22082">
        <ele>2206</ele>
        <time>2024-08-10T07:36:44Z</time>
      </trkpt>
      <trkpt lat="45.06537" lon="6.22084">
        <ele>2206.2</ele>
        <time>2024-08-10T07:36:45Z</time>
      </trkpt>
      <trkpt lat="45.06537" lon="6.22084">
        <ele>2206.4</ele>
        <time>2024-08-10T07:36:46Z</time>
      </trkpt>
      <trkpt lat="45.06535" lon="6.22086">
        <ele>2206.2</ele>
        <time>2024-08-10T07:36:47Z</time>
      </trkpt>
      <trkpt lat="45.06535" lon="6.22086">
        <ele>2206.4</ele>
        <time>2024-08-10T07:36:48Z</time>
      </trkpt>
      <trkpt lat="45.06535" lon="6.22086">
        <ele>2206.4</ele>
        <time>2024-08-10T07:36:49Z</time>
      </trkpt>
      <trkpt lat="45.06533" lon="6.22089">
        <ele>2206.4</ele>
        <time>2024-08-10T07:36:50Z</time>
      </trkpt>
      <trkpt lat="45.06533" lon="6.22089">
        <ele>2206.6</ele>
        <time>2024-08-10T07:36:51Z</time>
      </trkpt>
      <trkpt lat="45.06532" lon="6.22091">
        <ele>2206.6</ele>
        <time>2024-08-10T07:36:52Z</time>
      </trkpt>
      <trkpt lat="45.06532" lon="6.22091">
        <ele>2206.8</ele>
        <time>2024-08-10T07:36:53Z</time>
      </trkpt>
      <trkpt lat="45.0653" lon="6.22092">
        <ele>2207.2</ele>
        <time>2024-08-10T07:36:54Z</time>
      </trkpt>
      <trkpt lat="45.0653" lon="6.22092">
        <ele>2207.2</ele>
        <time>2024-08-10T07:36:55Z</time>
      </trkpt>
      <trkpt lat="45.0653" lon="6.22092">
        <ele>2207.2</ele>
        <time>2024-08-10T07:36:56Z</time>
      </trkpt>
      <trkpt lat="45.06529" lon="6.22095">
        <ele>2207.4</ele>
        <time>2024-08-10T07:36:57Z</time>
      </trkpt>
      <trkpt lat="45.06529" lon="6.22095">
        <ele>2207.6</ele>
        <time>2024-08-10T07:36:58Z</time>
      </trkpt>
      <trkpt lat="45.06527" lon="6.22096">
        <ele>2208</ele>
        <time>2024-08-10T07:36:59Z</time>
      </trkpt>
      <trkpt lat="45.06527" lon="6.22096">
        <ele>2208</ele>
        <time>2024-08-10T07:37:00Z</time>
      </trkpt>
      <trkpt lat="45.06526" lon="6.22098">
        <ele>2208.4</ele>
        <time>2024-08-10T07:37:01Z</time>
      </trkpt>
      <trkpt lat="45.06526" lon="6.22098">
        <ele>2208.6</ele>
        <time>2024-08-10T07:37:02Z</time>
      </trkpt>
      <trkpt lat="45.06526" lon="6.22098">
        <ele>2208.6</ele>
        <time>2024-08-10T07:37:03Z</time>
      </trkpt>
      <trkpt lat="45.06524" lon="6.221">
        <ele>2208.6</ele>
        <time>2024-08-10T07:37:04Z</time>
      </trkpt>
      <trkpt lat="45.06524" lon="6.221">
        <ele>2208.6</ele>
        <time>2024-08-10T07:37:05Z</time>
      </trkpt>
      <trkpt lat="45.06522" lon="6.22102">
        <ele>2209</ele>
        <time>2024-08-10T07:37:06Z</time>
      </trkpt>
      <trkpt lat="45.06522" lon="6.22102">
        <ele>2209.4</ele>
        <time>2024-08-10T07:37:07Z</time>
      </trkpt>
      <trkpt lat="45.06522" lon="6.22102">
        <ele>2209.4</ele>
        <time>2024-08-10T07:37:08Z</time>
      </trkpt>
      <trkpt lat="45.0652" lon="6.22106">
        <ele>2209.4</ele>
        <time>2024-08-10T07:37:09Z</time>
      </trkpt>
      <trkpt lat="45.0652" lon="6.22106">
        <ele>2209.6</ele>
        <time>2024-08-10T07:37:10Z</time>
      </trkpt>
      <trkpt lat="45.0652" lon="6.22106">
        <ele>2209.8</ele>
        <time>2024-08-10T07:37:11Z</time>
      </trkpt>
      <trkpt lat="45.06519" lon="6.22109">
        <ele>2210</ele>
        <time>2024-08-10T07:37:12Z</time>
      </trkpt>
      <trkpt lat="45.06519" lon="6.22109">
        <ele>2210</ele>
        <time>2024-08-10T07:37:13Z</time>
      </trkpt>
      <trkpt lat="45.06519" lon="6.22109">
        <ele>2210.2</ele>
        <time>2024-08-10T07:37:14Z</time>
      </trkpt>
      <trkpt lat="45.06518" lon="6.22112">
        <ele>2210.4</ele>
        <time>2024-08-10T07:37:15Z</time>
      </trkpt>
      <trkpt lat="45.06518" lon="6.22112">
        <ele>2210.6</ele>
        <time>2024-08-10T07:37:16Z</time>
      </trkpt>
      <trkpt lat="45.06518" lon="6.22112">
        <ele>2210.6</ele>
        <time>2024-08-10T07:37:17Z</time>
      </trkpt>
      <trkpt lat="45.06517" lon="6.22116">
        <ele>2210.6</ele>
        <time>2024-08-10T07:37:18Z</time>
      </trkpt>
      <trkpt lat="45.06517" lon="6.22116">
        <ele>2211</ele>
        <time>2024-08-10T07:37:19Z</time>
      </trkpt>
      <trkpt lat="45.06517" lon="6.22116">
        <ele>2211.2</ele>
        <time>2024-08-10T07:37:20Z</time>
      </trkpt>
      <trkpt lat="45.06517" lon="6.2212">
        <ele>2211.4</ele>
        <time>2024-08-10T07:37:21Z</time>
      </trkpt>
      <trkpt lat="45.06517" lon="6.2212">
        <ele>2212</ele>
        <time>2024-08-10T07:37:22Z</time>
      </trkpt>
      <trkpt lat="45.06517" lon="6.2212">
        <ele>2212.2</ele>
        <time>2024-08-10T07:37:23Z</time>
      </trkpt>
      <trkpt lat="45.06517" lon="6.22123">
        <ele>2212.2</ele>
        <time>2024-08-10T07:37:24Z</time>
      </trkpt>
      <trkpt lat="45.06517" lon="6.22123">
        <ele>2212.4</ele>
        <time>2024-08-10T07:37:25Z</time>
      </trkpt>
      <trkpt lat="45.06517" lon="6.22123">
        <ele>2212.6</ele>
        <time>2024-08-10T07:37:26Z</time>
      </trkpt>
      <trkpt lat="45.06516" lon="6.22126">
        <ele>2212.6</ele>
        <time>2024-08-10T07:37:27Z</time>
      </trkpt>
      <trkpt lat="45.06516" lon="6.22126">
        <ele>2212.6</ele>
        <time>2024-08-10T07:37:28Z</time>
      </trkpt>
      <trkpt lat="45.06516" lon="6.22129">
        <ele>2212.8</ele>
        <time>2024-08-10T07:37:29Z</time>
      </trkpt>
      <trkpt lat="45.06516" lon="6.22129">
        <ele>2213.4</ele>
        <time>2024-08-10T07:37:30Z</time>
      </trkpt>
      <trkpt lat="45.06516" lon="6.22129">
        <ele>2213.4</ele>
        <time>2024-08-10T07:37:31Z</time>
      </trkpt>
      <trkpt lat="45.06515" lon="6.22133">
        <ele>2213.4</ele>
        <time>2024-08-10T07:37:32Z</time>
      </trkpt>
      <trkpt lat="45.06515" lon="6.22133">
        <ele>2213.2</ele>
        <time>2024-08-10T07:37:33Z</time>
      </trkpt>
      <trkpt lat="45.06514" lon="6.22136">
        <ele>2213.2</ele>
        <time>2024-08-10T07:37:34Z</time>
      </trkpt>
      <trkpt lat="45.06514" lon="6.22136">
        <ele>2213.6</ele>
        <time>2024-08-10T07:37:35Z</time>
      </trkpt>
      <trkpt lat="45.06514" lon="6.22139">
        <ele>2213.8</ele>
        <time>2024-08-10T07:37:36Z</time>
      </trkpt>
      <trkpt lat="45.06514" lon="6.22139">
        <ele>2213.8</ele>
        <time>2024-08-10T07:37:37Z</time>
      </trkpt>
      <trkpt lat="45.06513" lon="6.22142">
        <ele>2214</ele>
        <time>2024-08-10T07:37:38Z</time>
      </trkpt>
      <trkpt lat="45.06513" lon="6.22142">
        <ele>2214.4</ele>
        <time>2024-08-10T07:37:39Z</time>
      </trkpt>
      <trkpt lat="45.06512" lon="6.22144">
        <ele>2214.4</ele>
        <time>2024-08-10T07:37:40Z</time>
      </trkpt>
      <trkpt lat="45.06512" lon="6.22144">
        <ele>2214.6</ele>
        <time>2024-08-10T07:37:41Z</time>
      </trkpt>
      <trkpt lat="45.06512" lon="6.22147">
        <ele>2214.6</ele>
        <time>2024-08-10T07:37:42Z</time>
      </trkpt>
      <trkpt lat="45.06512" lon="6.22147">
        <ele>2214.6</ele>
        <time>2024-08-10T07:37:43Z</time>
      </trkpt>
      <trkpt lat="45.06512" lon="6.2215">
        <ele>2214.8</ele>
        <time>2024-08-10T07:37:44Z</time>
      </trkpt>
      <trkpt lat="45.06512" lon="6.2215">
        <ele>2215</ele>
        <time>2024-08-10T07:37:45Z</time>
      </trkpt>
      <trkpt lat="45.06512" lon="6.22152">
        <ele>2215.2</ele>
        <time>2024-08-10T07:37:46Z</time>
      </trkpt>
      <trkpt lat="45.06512" lon="6.22152">
        <ele>2215.4</ele>
        <time>2024-08-10T07:37:47Z</time>
      </trkpt>
      <trkpt lat="45.06511" lon="6.22155">
        <ele>2215.6</ele>
        <time>2024-08-10T07:37:48Z</time>
      </trkpt>
      <trkpt lat="45.06511" lon="6.22155">
        <ele>2215.4</ele>
        <time>2024-08-10T07:37:49Z</time>
      </trkpt>
      <trkpt lat="45.06511" lon="6.22158">
        <ele>2215.6</ele>
        <time>2024-08-10T07:37:50Z</time>
      </trkpt>
      <trkpt lat="45.06511" lon="6.22158">
        <ele>2215.6</ele>
        <time>2024-08-10T07:37:51Z</time>
      </trkpt>
      <trkpt lat="45.0651" lon="6.22161">
        <ele>2215.8</ele>
        <time>2024-08-10T07:37:52Z</time>
      </trkpt>
      <trkpt lat="45.0651" lon="6.22161">
        <ele>2216.2</ele>
        <time>2024-08-10T07:37:53Z</time>
      </trkpt>
      <trkpt lat="45.0651" lon="6.22164">
        <ele>2216.4</ele>
        <time>2024-08-10T07:37:54Z</time>
      </trkpt>
      <trkpt lat="45.0651" lon="6.22164">
        <ele>2216.4</ele>
        <time>2024-08-10T07:37:55Z</time>
      </trkpt>
      <trkpt lat="45.0651" lon="6.22164">
        <ele>2216.6</ele>
        <time>2024-08-10T07:37:56Z</time>
      </trkpt>
      <trkpt lat="45.0651" lon="6.22168">
        <ele>2216.6</ele>
        <time>2024-08-10T07:37:57Z</time>
      </trkpt>
      <trkpt lat="45.0651" lon="6.22168">
        <ele>2216.8</ele>
        <time>2024-08-10T07:37:58Z</time>
      </trkpt>
      <trkpt lat="45.0651" lon="6.22168">
        <ele>2216.8</ele>
        <time>2024-08-10T07:37:59Z</time>
      </trkpt>
      <trkpt lat="45.0651" lon="6.22171">
        <ele>2217.2</ele>
        <time>2024-08-10T07:38:00Z</time>
      </trkpt>
      <trkpt lat="45.0651" lon="6.22171">
        <ele>2217.2</ele>
        <time>2024-08-10T07:38:01Z</time>
      </trkpt>
      <trkpt lat="45.0651" lon="6.22171">
        <ele>2217.4</ele>
        <time>2024-08-10T07:38:02Z</time>
      </trkpt>
      <trkpt lat="45.0651" lon="6.22174">
        <ele>2217.6</ele>
        <time>2024-08-10T07:38:03Z</time>
      </trkpt>
      <trkpt lat="45.0651" lon="6.22174">
        <ele>2217.6</ele>
        <time>2024-08-10T07:38:04Z</time>
      </trkpt>
      <trkpt lat="45.06509" lon="6.22177">
        <ele>2218</ele>
        <time>2024-08-10T07:38:05Z</time>
      </trkpt>
      <trkpt lat="45.06509" lon="6.22177">
        <ele>2218.2</ele>
        <time>2024-08-10T07:38:06Z</time>
      </trkpt>
      <trkpt lat="45.06509" lon="6.22177">
        <ele>2218.2</ele>
        <time>2024-08-10T07:38:07Z</time>
      </trkpt>
      <trkpt lat="45.0651" lon="6.22181">
        <ele>2218.4</ele>
        <time>2024-08-10T07:38:08Z</time>
      </trkpt>
      <trkpt lat="45.0651" lon="6.22181">
        <ele>2218.6</ele>
        <time>2024-08-10T07:38:09Z</time>
      </trkpt>
      <trkpt lat="45.0651" lon="6.22181">
        <ele>2218.6</ele>
        <time>2024-08-10T07:38:10Z</time>
      </trkpt>
      <trkpt lat="45.0651" lon="6.22185">
        <ele>2219</ele>
        <time>2024-08-10T07:38:11Z</time>
      </trkpt>
      <trkpt lat="45.0651" lon="6.22185">
        <ele>2219</ele>
        <time>2024-08-10T07:38:12Z</time>
      </trkpt>
      <trkpt lat="45.0651" lon="6.22187">
        <ele>2219</ele>
        <time>2024-08-10T07:38:13Z</time>
      </trkpt>
      <trkpt lat="45.0651" lon="6.22187">
        <ele>2219.4</ele>
        <time>2024-08-10T07:38:14Z</time>
      </trkpt>
      <trkpt lat="45.0651" lon="6.2219">
        <ele>2219.6</ele>
        <time>2024-08-10T07:38:15Z</time>
      </trkpt>
      <trkpt lat="45.0651" lon="6.2219">
        <ele>2219.8</ele>
        <time>2024-08-10T07:38:16Z</time>
      </trkpt>
      <trkpt lat="45.0651" lon="6.22193">
        <ele>2220</ele>
        <time>2024-08-10T07:38:17Z</time>
      </trkpt>
      <trkpt lat="45.0651" lon="6.22193">
        <ele>2220</ele>
        <time>2024-08-10T07:38:18Z</time>
      </trkpt>
      <trkpt lat="45.0651" lon="6.22196">
        <ele>2220.4</ele>
        <time>2024-08-10T07:38:19Z</time>
      </trkpt>
      <trkpt lat="45.0651" lon="6.22196">
        <ele>2220.6</ele>
        <time>2024-08-10T07:38:20Z</time>
      </trkpt>
      <trkpt lat="45.0651" lon="6.22199">
        <ele>2220.6</ele>
        <time>2024-08-10T07:38:21Z</time>
      </trkpt>
      <trkpt lat="45.0651" lon="6.22199">
        <ele>2220.8</ele>
        <time>2024-08-10T07:38:22Z</time>
      </trkpt>
      <trkpt lat="45.0651" lon="6.22202">
        <ele>2221</ele>
        <time>2024-08-10T07:38:23Z</time>
      </trkpt>
      <trkpt lat="45.0651" lon="6.22202">
        <ele>2221</ele>
        <time>2024-08-10T07:38:24Z</time>
      </trkpt>
      <trkpt lat="45.0651" lon="6.22205">
        <ele>2221</ele>
        <time>2024-08-10T07:38:25Z</time>
      </trkpt>
      <trkpt lat="45.0651" lon="6.22205">
        <ele>2221</ele>
        <time>2024-08-10T07:38:26Z</time>
      </trkpt>
      <trkpt lat="45.0651" lon="6.22208">
        <ele>2221.2</ele>
        <time>2024-08-10T07:38:27Z</time>
      </trkpt>
      <trkpt lat="45.0651" lon="6.22208">
        <ele>2221.4</ele>
        <time>2024-08-10T07:38:28Z</time>
      </trkpt>
      <trkpt lat="45.0651" lon="6.2221">
        <ele>2221.8</ele>
        <time>2024-08-10T07:38:29Z</time>
      </trkpt>
      <trkpt lat="45.0651" lon="6.2221">
        <ele>2221.8</ele>
        <time>2024-08-10T07:38:30Z</time>
      </trkpt>
      <trkpt lat="45.0651" lon="6.22213">
        <ele>2222</ele>
        <time>2024-08-10T07:38:31Z</time>
      </trkpt>
      <trkpt lat="45.0651" lon="6.22213">
        <ele>2222.2</ele>
        <time>2024-08-10T07:38:32Z</time>
      </trkpt>
      <trkpt lat="45.0651" lon="6.22213">
        <ele>2222.2</ele>
        <time>2024-08-10T07:38:33Z</time>
      </trkpt>
      <trkpt lat="45.0651" lon="6.22216">
        <ele>2222.2</ele>
        <time>2024-08-10T07:38:34Z</time>
      </trkpt>
      <trkpt lat="45.0651" lon="6.22216">
        <ele>2222.6</ele>
        <time>2024-08-10T07:38:35Z</time>
      </trkpt>
      <trkpt lat="45.0651" lon="6.22219">
        <ele>2222.8</ele>
        <time>2024-08-10T07:38:36Z</time>
      </trkpt>
      <trkpt lat="45.0651" lon="6.22219">
        <ele>2223.2</ele>
        <time>2024-08-10T07:38:37Z</time>
      </trkpt>
      <trkpt lat="45.0651" lon="6.22222">
        <ele>2223.4</ele>
        <time>2024-08-10T07:38:38Z</time>
      </trkpt>
      <trkpt lat="45.0651" lon="6.22222">
        <ele>2223.4</ele>
        <time>2024-08-10T07:38:39Z</time>
      </trkpt>
      <trkpt lat="45.0651" lon="6.22222">
        <ele>2223.8</ele>
        <time>2024-08-10T07:38:40Z</time>
      </trkpt>
      <trkpt lat="45.06509" lon="6.22225">
        <ele>2224</ele>
        <time>2024-08-10T07:38:41Z</time>
      </trkpt>
      <trkpt lat="45.06509" lon="6.22225">
        <ele>2224.2</ele>
        <time>2024-08-10T07:38:42Z</time>
      </trkpt>
      <trkpt lat="45.0651" lon="6.22228">
        <ele>2224.2</ele>
        <time>2024-08-10T07:38:43Z</time>
      </trkpt>
      <trkpt lat="45.0651" lon="6.22228">
        <ele>2224.6</ele>
        <time>2024-08-10T07:38:44Z</time>
      </trkpt>
      <trkpt lat="45.0651" lon="6.22231">
        <ele>2224.6</ele>
        <time>2024-08-10T07:38:45Z</time>
      </trkpt>
      <trkpt lat="45.0651" lon="6.22231">
        <ele>2225</ele>
        <time>2024-08-10T07:38:46Z</time>
      </trkpt>
      <trkpt lat="45.0651" lon="6.22234">
        <ele>2225</ele>
        <time>2024-08-10T07:38:47Z</time>
      </trkpt>
      <trkpt lat="45.0651" lon="6.22234">
        <ele>2225.4</ele>
        <time>2024-08-10T07:38:48Z</time>
      </trkpt>
      <trkpt lat="45.0651" lon="6.22234">
        <ele>2225.6</ele>
        <time>2024-08-10T07:38:49Z</time>
      </trkpt>
      <trkpt lat="45.0651" lon="6.22237">
        <ele>2225.6</ele>
        <time>2024-08-10T07:38:50Z</time>
      </trkpt>
      <trkpt lat="45.0651" lon="6.22237">
        <ele>2225.8</ele>
        <time>2024-08-10T07:38:51Z</time>
      </trkpt>
      <trkpt lat="45.0651" lon="6.22237">
        <ele>2226.2</ele>
        <time>2024-08-10T07:38:52Z</time>
      </trkpt>
      <trkpt lat="45.06509" lon="6.22241">
        <ele>2226.6</ele>
        <time>2024-08-10T07:38:53Z</time>
      </trkpt>
      <trkpt lat="45.06509" lon="6.22241">
        <ele>2226.6</ele>
        <time>2024-08-10T07:38:54Z</time>
      </trkpt>
      <trkpt lat="45.06509" lon="6.22241">
        <ele>2226.8</ele>
        <time>2024-08-10T07:38:55Z</time>
      </trkpt>
      <trkpt lat="45.06509" lon="6.22244">
        <ele>2226.8</ele>
        <time>2024-08-10T07:38:56Z</time>
      </trkpt>
      <trkpt lat="45.06509" lon="6.22244">
        <ele>2227.2</ele>
        <time>2024-08-10T07:38:57Z</time>
      </trkpt>
      <trkpt lat="45.06509" lon="6.22244">
        <ele>2227.4</ele>
        <time>2024-08-10T07:38:58Z</time>
      </trkpt>
      <trkpt lat="45.06509" lon="6.22244">
        <ele>2227.4</ele>
        <time>2024-08-10T07:38:59Z</time>
      </trkpt>
      <trkpt lat="45.06509" lon="6.22244">
        <ele>2228.2</ele>
        <time>2024-08-10T07:39:00Z</time>
      </trkpt>
      <trkpt lat="45.06509" lon="6.22247">
        <ele>2228.2</ele>
        <time>2024-08-10T07:39:01Z</time>
      </trkpt>
      <trkpt lat="45.06509" lon="6.22247">
        <ele>2228.4</ele>
        <time>2024-08-10T07:39:02Z</time>
      </trkpt>
      <trkpt lat="45.06508" lon="6.2225">
        <ele>2228.4</ele>
        <time>2024-08-10T07:39:03Z</time>
      </trkpt>
      <trkpt lat="45.06508" lon="6.2225">
        <ele>2228.4</ele>
        <time>2024-08-10T07:39:04Z</time>
      </trkpt>
      <trkpt lat="45.06509" lon="6.22253">
        <ele>2228.4</ele>
        <time>2024-08-10T07:39:05Z</time>
      </trkpt>
      <trkpt lat="45.06509" lon="6.22253">
        <ele>2228.6</ele>
        <time>2024-08-10T07:39:06Z</time>
      </trkpt>
      <trkpt lat="45.06509" lon="6.22255">
        <ele>2228.6</ele>
        <time>2024-08-10T07:39:07Z</time>
      </trkpt>
      <trkpt lat="45.06509" lon="6.22255">
        <ele>2228.8</ele>
        <time>2024-08-10T07:39:08Z</time>
      </trkpt>
      <trkpt lat="45.06509" lon="6.22258">
        <ele>2228.8</ele>
        <time>2024-08-10T07:39:09Z</time>
      </trkpt>
      <trkpt lat="45.06509" lon="6.22258">
        <ele>2229</ele>
        <time>2024-08-10T07:39:10Z</time>
      </trkpt>
      <trkpt lat="45.06509" lon="6.22258">
        <ele>2229.2</ele>
        <time>2024-08-10T07:39:11Z</time>
      </trkpt>
      <trkpt lat="45.06507" lon="6.22261">
        <ele>2229.2</ele>
        <time>2024-08-10T07:39:12Z</time>
      </trkpt>
      <trkpt lat="45.06507" lon="6.22261">
        <ele>2229.4</ele>
        <time>2024-08-10T07:39:13Z</time>
      </trkpt>
      <trkpt lat="45.06507" lon="6.22261">
        <ele>2229.6</ele>
        <time>2024-08-10T07:39:14Z</time>
      </trkpt>
      <trkpt lat="45.06506" lon="6.22264">
        <ele>2229.6</ele>
        <time>2024-08-10T07:39:15Z</time>
      </trkpt>
      <trkpt lat="45.06506" lon="6.22264">
        <ele>2229.8</ele>
        <time>2024-08-10T07:39:16Z</time>
      </trkpt>
      <trkpt lat="45.06506" lon="6.22264">
        <ele>2230.2</ele>
        <time>2024-08-10T07:39:17Z</time>
      </trkpt>
      <trkpt lat="45.06505" lon="6.22267">
        <ele>2230.4</ele>
        <time>2024-08-10T07:39:18Z</time>
      </trkpt>
      <trkpt lat="45.06505" lon="6.22267">
        <ele>2230.6</ele>
        <time>2024-08-10T07:39:19Z</time>
      </trkpt>
      <trkpt lat="45.06505" lon="6.22267">
        <ele>2230.6</ele>
        <time>2024-08-10T07:39:20Z</time>
      </trkpt>
      <trkpt lat="45.06505" lon="6.22269">
        <ele>2230.6</ele>
        <time>2024-08-10T07:39:21Z</time>
      </trkpt>
      <trkpt lat="45.06505" lon="6.22269">
        <ele>2230.6</ele>
        <time>2024-08-10T07:39:22Z</time>
      </trkpt>
      <trkpt lat="45.06505" lon="6.22269">
        <ele>2231</ele>
        <time>2024-08-10T07:39:23Z</time>
      </trkpt>
      <trkpt lat="45.06504" lon="6.22273">
        <ele>2231.2</ele>
        <time>2024-08-10T07:39:24Z</time>
      </trkpt>
      <trkpt lat="45.06504" lon="6.22273">
        <ele>2231.4</ele>
        <time>2024-08-10T07:39:25Z</time>
      </trkpt>
      <trkpt lat="45.06504" lon="6.22275">
        <ele>2231.4</ele>
        <time>2024-08-10T07:39:26Z</time>
      </trkpt>
      <trkpt lat="45.06504" lon="6.22275">
        <ele>2232</ele>
        <time>2024-08-10T07:39:27Z</time>
      </trkpt>
      <trkpt lat="45.06504" lon="6.22275">
        <ele>2232.2</ele>
        <time>2024-08-10T07:39:28Z</time>
      </trkpt>
      <trkpt lat="45.06503" lon="6.22278">
        <ele>2232.2</ele>
        <time>2024-08-10T07:39:29Z</time>
      </trkpt>
      <trkpt lat="45.06503" lon="6.22278">
        <ele>2232.2</ele>
        <time>2024-08-10T07:39:30Z</time>
      </trkpt>
      <trkpt lat="45.06503" lon="6.22278">
        <ele>2232.6</ele>
        <time>2024-08-10T07:39:31Z</time>
      </trkpt>
      <trkpt lat="45.06502" lon="6.22281">
        <ele>2232.6</ele>
        <time>2024-08-10T07:39:32Z</time>
      </trkpt>
      <trkpt lat="45.06502" lon="6.22281">
        <ele>2232.6</ele>
        <time>2024-08-10T07:39:33Z</time>
      </trkpt>
      <trkpt lat="45.06502" lon="6.22281">
        <ele>2232.8</ele>
        <time>2024-08-10T07:39:34Z</time>
      </trkpt>
      <trkpt lat="45.06501" lon="6.22284">
        <ele>2233</ele>
        <time>2024-08-10T07:39:35Z</time>
      </trkpt>
      <trkpt lat="45.06501" lon="6.22284">
        <ele>2233.4</ele>
        <time>2024-08-10T07:39:36Z</time>
      </trkpt>
      <trkpt lat="45.06501" lon="6.22284">
        <ele>2233.4</ele>
        <time>2024-08-10T07:39:37Z</time>
      </trkpt>
      <trkpt lat="45.065" lon="6.22287">
        <ele>2233.4</ele>
        <time>2024-08-10T07:39:38Z</time>
      </trkpt>
      <trkpt lat="45.065" lon="6.22287">
        <ele>2233.4</ele>
        <time>2024-08-10T07:39:39Z</time>
      </trkpt>
      <trkpt lat="45.06499" lon="6.22289">
        <ele>2233.6</ele>
        <time>2024-08-10T07:39:40Z</time>
      </trkpt>
      <trkpt lat="45.06499" lon="6.22289">
        <ele>2233.8</ele>
        <time>2024-08-10T07:39:41Z</time>
      </trkpt>
      <trkpt lat="45.06499" lon="6.22289">
        <ele>2234.2</ele>
        <time>2024-08-10T07:39:42Z</time>
      </trkpt>
      <trkpt lat="45.06498" lon="6.22292">
        <ele>2234.2</ele>
        <time>2024-08-10T07:39:43Z</time>
      </trkpt>
      <trkpt lat="45.06498" lon="6.22292">
        <ele>2234.4</ele>
        <time>2024-08-10T07:39:44Z</time>
      </trkpt>
      <trkpt lat="45.06498" lon="6.22292">
        <ele>2234.4</ele>
        <time>2024-08-10T07:39:45Z</time>
      </trkpt>
      <trkpt lat="45.06497" lon="6.22295">
        <ele>2234.4</ele>
        <time>2024-08-10T07:39:46Z</time>
      </trkpt>
      <trkpt lat="45.06497" lon="6.22295">
        <ele>2234.6</ele>
        <time>2024-08-10T07:39:47Z</time>
      </trkpt>
      <trkpt lat="45.06497" lon="6.22298">
        <ele>2235.2</ele>
        <time>2024-08-10T07:39:48Z</time>
      </trkpt>
      <trkpt lat="45.06497" lon="6.22298">
        <ele>2235.2</ele>
        <time>2024-08-10T07:39:49Z</time>
      </trkpt>
      <trkpt lat="45.06496" lon="6.22301">
        <ele>2235.4</ele>
        <time>2024-08-10T07:39:50Z</time>
      </trkpt>
      <trkpt lat="45.06496" lon="6.22301">
        <ele>2235.4</ele>
        <time>2024-08-10T07:39:51Z</time>
      </trkpt>
      <trkpt lat="45.06496" lon="6.22304">
        <ele>2235.6</ele>
        <time>2024-08-10T07:39:52Z</time>
      </trkpt>
      <trkpt lat="45.06496" lon="6.22304">
        <ele>2235.6</ele>
        <time>2024-08-10T07:39:53Z</time>
      </trkpt>
      <trkpt lat="45.06496" lon="6.22304">
        <ele>2235.6</ele>
        <time>2024-08-10T07:39:54Z</time>
      </trkpt>
      <trkpt lat="45.06495" lon="6.22307">
        <ele>2235.6</ele>
        <time>2024-08-10T07:39:55Z</time>
      </trkpt>
      <trkpt lat="45.06495" lon="6.22307">
        <ele>2235.6</ele>
        <time>2024-08-10T07:39:56Z</time>
      </trkpt>
      <trkpt lat="45.06495" lon="6.22307">
        <ele>2236</ele>
        <time>2024-08-10T07:39:57Z</time>
      </trkpt>
      <trkpt lat="45.06494" lon="6.22311">
        <ele>2236.2</ele>
        <time>2024-08-10T07:39:58Z</time>
      </trkpt>
      <trkpt lat="45.06494" lon="6.22311">
        <ele>2236.4</ele>
        <time>2024-08-10T07:39:59Z</time>
      </trkpt>
      <trkpt lat="45.06494" lon="6.22311">
        <ele>2237</ele>
        <time>2024-08-10T07:40:00Z</time>
      </trkpt>
      <trkpt lat="45.06494" lon="6.22311">
        <ele>2237</ele>
        <time>2024-08-10T07:40:01Z</time>
      </trkpt>
      <trkpt lat="45.06494" lon="6.22311">
        <ele>2237</ele>
        <time>2024-08-10T07:40:02Z</time>
      </trkpt>
      <trkpt lat="45.06494" lon="6.22311">
        <ele>2237.4</ele>
        <time>2024-08-10T07:40:03Z</time>
      </trkpt>
      <trkpt lat="45.06494" lon="6.22311">
        <ele>2237.4</ele>
        <time>2024-08-10T07:40:04Z</time>
      </trkpt>
      <trkpt lat="45.06494" lon="6.22311">
        <ele>2237.4</ele>
        <time>2024-08-10T07:40:05Z</time>
      </trkpt>
      <trkpt lat="45.06494" lon="6.22311">
        <ele>2237.4</ele>
        <time>2024-08-10T07:40:06Z</time>
      </trkpt>
      <trkpt lat="45.06494" lon="6.22311">
        <ele>2237.4</ele>
        <time>2024-08-10T07:40:07Z</time>
      </trkpt>
      <trkpt lat="45.06494" lon="6.22311">
        <ele>2237.6</ele>
        <time>2024-08-10T07:40:08Z</time>
      </trkpt>
      <trkpt lat="45.06493" lon="6.22314">
        <ele>2237.4</ele>
        <time>2024-08-10T07:40:09Z</time>
      </trkpt>
      <trkpt lat="45.06493" lon="6.22314">
        <ele>2237.6</ele>
        <time>2024-08-10T07:40:10Z</time>
      </trkpt>
      <trkpt lat="45.06492" lon="6.22316">
        <ele>2237.4</ele>
        <time>2024-08-10T07:40:11Z</time>
      </trkpt>
      <trkpt lat="45.06492" lon="6.22316">
        <ele>2237.4</ele>
        <time>2024-08-10T07:40:12Z</time>
      </trkpt>
      <trkpt lat="45.06491" lon="6.22319">
        <ele>2237.4</ele>
        <time>2024-08-10T07:40:13Z</time>
      </trkpt>
      <trkpt lat="45.06491" lon="6.22319">
        <ele>2237.4</ele>
        <time>2024-08-10T07:40:14Z</time>
      </trkpt>
      <trkpt lat="45.06489" lon="6.22321">
        <ele>2237.4</ele>
        <time>2024-08-10T07:40:15Z</time>
      </trkpt>
      <trkpt lat="45.06489" lon="6.22321">
        <ele>2237.6</ele>
        <time>2024-08-10T07:40:16Z</time>
      </trkpt>
      <trkpt lat="45.06488" lon="6.22324">
        <ele>2238</ele>
        <time>2024-08-10T07:40:17Z</time>
      </trkpt>
      <trkpt lat="45.06488" lon="6.22324">
        <ele>2238</ele>
        <time>2024-08-10T07:40:18Z</time>
      </trkpt>
      <trkpt lat="45.06486" lon="6.22327">
        <ele>2238.2</ele>
        <time>2024-08-10T07:40:19Z</time>
      </trkpt>
      <trkpt lat="45.06486" lon="6.22327">
        <ele>2238.2</ele>
        <time>2024-08-10T07:40:20Z</time>
      </trkpt>
      <trkpt lat="45.06485" lon="6.22329">
        <ele>2238.4</ele>
        <time>2024-08-10T07:40:21Z</time>
      </trkpt>
      <trkpt lat="45.06485" lon="6.22329">
        <ele>2238.6</ele>
        <time>2024-08-10T07:40:22Z</time>
      </trkpt>
      <trkpt lat="45.06484" lon="6.22331">
        <ele>2239</ele>
        <time>2024-08-10T07:40:23Z</time>
      </trkpt>
      <trkpt lat="45.06484" lon="6.22331">
        <ele>2239.2</ele>
        <time>2024-08-10T07:40:24Z</time>
      </trkpt>
      <trkpt lat="45.06482" lon="6.22333">
        <ele>2239.4</ele>
        <time>2024-08-10T07:40:25Z</time>
      </trkpt>
      <trkpt lat="45.06482" lon="6.22333">
        <ele>2239.4</ele>
        <time>2024-08-10T07:40:26Z</time>
      </trkpt>
      <trkpt lat="45.06482" lon="6.22333">
        <ele>2239.4</ele>
        <time>2024-08-10T07:40:27Z</time>
      </trkpt>
      <trkpt lat="45.06481" lon="6.22336">
        <ele>2239.6</ele>
        <time>2024-08-10T07:40:28Z</time>
      </trkpt>
      <trkpt lat="45.06481" lon="6.22336">
        <ele>2239.6</ele>
        <time>2024-08-10T07:40:29Z</time>
      </trkpt>
      <trkpt lat="45.06481" lon="6.22336">
        <ele>2239.8</ele>
        <time>2024-08-10T07:40:30Z</time>
      </trkpt>
      <trkpt lat="45.0648" lon="6.22338">
        <ele>2240</ele>
        <time>2024-08-10T07:40:31Z</time>
      </trkpt>
      <trkpt lat="45.0648" lon="6.22338">
        <ele>2240.6</ele>
        <time>2024-08-10T07:40:32Z</time>
      </trkpt>
      <trkpt lat="45.06478" lon="6.2234">
        <ele>2240.8</ele>
        <time>2024-08-10T07:40:33Z</time>
      </trkpt>
      <trkpt lat="45.06478" lon="6.2234">
        <ele>2240.8</ele>
        <time>2024-08-10T07:40:34Z</time>
      </trkpt>
      <trkpt lat="45.06478" lon="6.2234">
        <ele>2240.8</ele>
        <time>2024-08-10T07:40:35Z</time>
      </trkpt>
      <trkpt lat="45.06477" lon="6.22342">
        <ele>2241</ele>
        <time>2024-08-10T07:40:36Z</time>
      </trkpt>
      <trkpt lat="45.06477" lon="6.22342">
        <ele>2241.2</ele>
        <time>2024-08-10T07:40:37Z</time>
      </trkpt>
      <trkpt lat="45.06477" lon="6.22342">
        <ele>2241.8</ele>
        <time>2024-08-10T07:40:38Z</time>
      </trkpt>
      <trkpt lat="45.06476" lon="6.22345">
        <ele>2242</ele>
        <time>2024-08-10T07:40:39Z</time>
      </trkpt>
      <trkpt lat="45.06476" lon="6.22345">
        <ele>2242</ele>
        <time>2024-08-10T07:40:40Z</time>
      </trkpt>
      <trkpt lat="45.06475" lon="6.22348">
        <ele>2242</ele>
        <time>2024-08-10T07:40:41Z</time>
      </trkpt>
      <trkpt lat="45.06475" lon="6.22348">
        <ele>2242.2</ele>
        <time>2024-08-10T07:40:42Z</time>
      </trkpt>
      <trkpt lat="45.06475" lon="6.22348">
        <ele>2242.4</ele>
        <time>2024-08-10T07:40:43Z</time>
      </trkpt>
      <trkpt lat="45.06473" lon="6.2235">
        <ele>2242.4</ele>
        <time>2024-08-10T07:40:44Z</time>
      </trkpt>
      <trkpt lat="45.06473" lon="6.2235">
        <ele>2242.6</ele>
        <time>2024-08-10T07:40:45Z</time>
      </trkpt>
      <trkpt lat="45.06473" lon="6.2235">
        <ele>2242.8</ele>
        <time>2024-08-10T07:40:46Z</time>
      </trkpt>
      <trkpt lat="45.06472" lon="6.22352">
        <ele>2242.8</ele>
        <time>2024-08-10T07:40:47Z</time>
      </trkpt>
      <trkpt lat="45.06472" lon="6.22352">
        <ele>2243</ele>
        <time>2024-08-10T07:40:48Z</time>
      </trkpt>
      <trkpt lat="45.06471" lon="6.22355">
        <ele>2243.4</ele>
        <time>2024-08-10T07:40:49Z</time>
      </trkpt>
      <trkpt lat="45.06471" lon="6.22355">
        <ele>2243.8</ele>
        <time>2024-08-10T07:40:50Z</time>
      </trkpt>
      <trkpt lat="45.06471" lon="6.22355">
        <ele>2243.8</ele>
        <time>2024-08-10T07:40:51Z</time>
      </trkpt>
      <trkpt lat="45.0647" lon="6.22357">
        <ele>2244</ele>
        <time>2024-08-10T07:40:52Z</time>
      </trkpt>
      <trkpt lat="45.0647" lon="6.22357">
        <ele>2244.2</ele>
        <time>2024-08-10T07:40:53Z</time>
      </trkpt>
      <trkpt lat="45.0647" lon="6.22357">
        <ele>2244.4</ele>
        <time>2024-08-10T07:40:54Z</time>
      </trkpt>
      <trkpt lat="45.06469" lon="6.22359">
        <ele>2244.4</ele>
        <time>2024-08-10T07:40:55Z</time>
      </trkpt>
      <trkpt lat="45.06469" lon="6.22359">
        <ele>2244.8</ele>
        <time>2024-08-10T07:40:56Z</time>
      </trkpt>
      <trkpt lat="45.06467" lon="6.22361">
        <ele>2245.2</ele>
        <time>2024-08-10T07:40:57Z</time>
      </trkpt>
      <trkpt lat="45.06467" lon="6.22361">
        <ele>2245.2</ele>
        <time>2024-08-10T07:40:58Z</time>
      </trkpt>
      <trkpt lat="45.06467" lon="6.22361">
        <ele>2245.4</ele>
        <time>2024-08-10T07:40:59Z</time>
      </trkpt>
      <trkpt lat="45.06467" lon="6.22365">
        <ele>2245.4</ele>
        <time>2024-08-10T07:41:00Z</time>
      </trkpt>
      <trkpt lat="45.06467" lon="6.22365">
        <ele>2245.4</ele>
        <time>2024-08-10T07:41:01Z</time>
      </trkpt>
      <trkpt lat="45.06467" lon="6.22365">
        <ele>2245.8</ele>
        <time>2024-08-10T07:41:02Z</time>
      </trkpt>
      <trkpt lat="45.06466" lon="6.22369">
        <ele>2246</ele>
        <time>2024-08-10T07:41:03Z</time>
      </trkpt>
      <trkpt lat="45.06466" lon="6.22369">
        <ele>2246</ele>
        <time>2024-08-10T07:41:04Z</time>
      </trkpt>
      <trkpt lat="45.06465" lon="6.22372">
        <ele>2246.4</ele>
        <time>2024-08-10T07:41:05Z</time>
      </trkpt>
      <trkpt lat="45.06465" lon="6.22372">
        <ele>2246.6</ele>
        <time>2024-08-10T07:41:06Z</time>
      </trkpt>
      <trkpt lat="45.06465" lon="6.22375">
        <ele>2246.6</ele>
        <time>2024-08-10T07:41:07Z</time>
      </trkpt>
      <trkpt lat="45.06465" lon="6.22375">
        <ele>2246.6</ele>
        <time>2024-08-10T07:41:08Z</time>
      </trkpt>
      <trkpt lat="45.06465" lon="6.22375">
        <ele>2246.8</ele>
        <time>2024-08-10T07:41:09Z</time>
      </trkpt>
      <trkpt lat="45.06464" lon="6.22378">
        <ele>2246.8</ele>
        <time>2024-08-10T07:41:10Z</time>
      </trkpt>
      <trkpt lat="45.06464" lon="6.22378">
        <ele>2247.4</ele>
        <time>2024-08-10T07:41:11Z</time>
      </trkpt>
      <trkpt lat="45.06464" lon="6.22381">
        <ele>2247.4</ele>
        <time>2024-08-10T07:41:12Z</time>
      </trkpt>
      <trkpt lat="45.06464" lon="6.22381">
        <ele>2247.4</ele>
        <time>2024-08-10T07:41:13Z</time>
      </trkpt>
      <trkpt lat="45.06463" lon="6.22384">
        <ele>2247.6</ele>
        <time>2024-08-10T07:41:14Z</time>
      </trkpt>
      <trkpt lat="45.06463" lon="6.22384">
        <ele>2247.6</ele>
        <time>2024-08-10T07:41:15Z</time>
      </trkpt>
      <trkpt lat="45.06463" lon="6.22387">
        <ele>2248</ele>
        <time>2024-08-10T07:41:16Z</time>
      </trkpt>
      <trkpt lat="45.06463" lon="6.22387">
        <ele>2248</ele>
        <time>2024-08-10T07:41:17Z</time>
      </trkpt>
      <trkpt lat="45.06463" lon="6.2239">
        <ele>2248</ele>
        <time>2024-08-10T07:41:18Z</time>
      </trkpt>
      <trkpt lat="45.06463" lon="6.2239">
        <ele>2248</ele>
        <time>2024-08-10T07:41:19Z</time>
      </trkpt>
      <trkpt lat="45.06462" lon="6.22393">
        <ele>2248.6</ele>
        <time>2024-08-10T07:41:20Z</time>
      </trkpt>
      <trkpt lat="45.06462" lon="6.22393">
        <ele>2248.6</ele>
        <time>2024-08-10T07:41:21Z</time>
      </trkpt>
      <trkpt lat="45.06462" lon="6.22396">
        <ele>2248.6</ele>
        <time>2024-08-10T07:41:22Z</time>
      </trkpt>
      <trkpt lat="45.06462" lon="6.22396">
        <ele>2248.6</ele>
        <time>2024-08-10T07:41:23Z</time>
      </trkpt>
      <trkpt lat="45.06462" lon="6.22396">
        <ele>2248.6</ele>
        <time>2024-08-10T07:41:24Z</time>
      </trkpt>
      <trkpt lat="45.06462" lon="6.224">
        <ele>2249</ele>
        <time>2024-08-10T07:41:25Z</time>
      </trkpt>
      <trkpt lat="45.06462" lon="6.224">
        <ele>2249</ele>
        <time>2024-08-10T07:41:26Z</time>
      </trkpt>
      <trkpt lat="45.06462" lon="6.22403">
        <ele>2249</ele>
        <time>2024-08-10T07:41:27Z</time>
      </trkpt>
      <trkpt lat="45.06462" lon="6.22403">
        <ele>2249.2</ele>
        <time>2024-08-10T07:41:28Z</time>
      </trkpt>
      <trkpt lat="45.06462" lon="6.22406">
        <ele>2249.8</ele>
        <time>2024-08-10T07:41:29Z</time>
      </trkpt>
      <trkpt lat="45.06462" lon="6.22406">
        <ele>2250</ele>
        <time>2024-08-10T07:41:30Z</time>
      </trkpt>
      <trkpt lat="45.06461" lon="6.22409">
        <ele>2250</ele>
        <time>2024-08-10T07:41:31Z</time>
      </trkpt>
      <trkpt lat="45.06461" lon="6.22409">
        <ele>2250.4</ele>
        <time>2024-08-10T07:41:32Z</time>
      </trkpt>
      <trkpt lat="45.06461" lon="6.22412">
        <ele>2250.4</ele>
        <time>2024-08-10T07:41:33Z</time>
      </trkpt>
      <trkpt lat="45.06461" lon="6.22412">
        <ele>2250.4</ele>
        <time>2024-08-10T07:41:34Z</time>
      </trkpt>
      <trkpt lat="45.06461" lon="6.22415">
        <ele>2250.6</ele>
        <time>2024-08-10T07:41:35Z</time>
      </trkpt>
      <trkpt lat="45.06461" lon="6.22415">
        <ele>2250.8</ele>
        <time>2024-08-10T07:41:36Z</time>
      </trkpt>
      <trkpt lat="45.06461" lon="6.22415">
        <ele>2250.8</ele>
        <time>2024-08-10T07:41:37Z</time>
      </trkpt>
      <trkpt lat="45.0646" lon="6.22418">
        <ele>2250.8</ele>
        <time>2024-08-10T07:41:38Z</time>
      </trkpt>
      <trkpt lat="45.0646" lon="6.22418">
        <ele>2251.2</ele>
        <time>2024-08-10T07:41:39Z</time>
      </trkpt>
      <trkpt lat="45.0646" lon="6.22418">
        <ele>2251.4</ele>
        <time>2024-08-10T07:41:40Z</time>
      </trkpt>
      <trkpt lat="45.06459" lon="6.22422">
        <ele>2251.4</ele>
        <time>2024-08-10T07:41:41Z</time>
      </trkpt>
      <trkpt lat="45.06459" lon="6.22422">
        <ele>2251.8</ele>
        <time>2024-08-10T07:41:42Z</time>
      </trkpt>
      <trkpt lat="45.06458" lon="6.22425">
        <ele>2251.8</ele>
        <time>2024-08-10T07:41:43Z</time>
      </trkpt>
      <trkpt lat="45.06458" lon="6.22425">
        <ele>2252.4</ele>
        <time>2024-08-10T07:41:44Z</time>
      </trkpt>
      <trkpt lat="45.06458" lon="6.22428">
        <ele>2252.4</ele>
        <time>2024-08-10T07:41:45Z</time>
      </trkpt>
      <trkpt lat="45.06458" lon="6.22428">
        <ele>2252.8</ele>
        <time>2024-08-10T07:41:46Z</time>
      </trkpt>
      <trkpt lat="45.06458" lon="6.22431">
        <ele>2252.8</ele>
        <time>2024-08-10T07:41:47Z</time>
      </trkpt>
      <trkpt lat="45.06458" lon="6.22431">
        <ele>2253</ele>
        <time>2024-08-10T07:41:48Z</time>
      </trkpt>
      <trkpt lat="45.06458" lon="6.22431">
        <ele>2253.2</ele>
        <time>2024-08-10T07:41:49Z</time>
      </trkpt>
      <trkpt lat="45.06458" lon="6.22431">
        <ele>2253.2</ele>
        <time>2024-08-10T07:41:50Z</time>
      </trkpt>
      <trkpt lat="45.06458" lon="6.22431">
        <ele>2253.2</ele>
        <time>2024-08-10T07:41:51Z</time>
      </trkpt>
      <trkpt lat="45.06458" lon="6.22431">
        <ele>2253.2</ele>
        <time>2024-08-10T07:41:52Z</time>
      </trkpt>
      <trkpt lat="45.06458" lon="6.22431">
        <ele>2253.4</ele>
        <time>2024-08-10T07:41:53Z</time>
      </trkpt>
      <trkpt lat="45.06458" lon="6.22431">
        <ele>2254</ele>
        <time>2024-08-10T07:41:54Z</time>
      </trkpt>
      <trkpt lat="45.06458" lon="6.22431">
        <ele>2254</ele>
        <time>2024-08-10T07:41:55Z</time>
      </trkpt>
      <trkpt lat="45.06458" lon="6.22431">
        <ele>2254</ele>
        <time>2024-08-10T07:41:56Z</time>
      </trkpt>
      <trkpt lat="45.06458" lon="6.22431">
        <ele>2254</ele>
        <time>2024-08-10T07:41:57Z</time>
      </trkpt>
      <trkpt lat="45.06458" lon="6.22431">
        <ele>2254</ele>
        <time>2024-08-10T07:41:58Z</time>
      </trkpt>
      <trkpt lat="45.06458" lon="6.22431">
        <ele>2254</ele>
        <time>2024-08-10T07:41:59Z</time>
      </trkpt>
      <trkpt lat="45.06458" lon="6.22431">
        <ele>2254</ele>
        <time>2024-08-10T07:42:00Z</time>
      </trkpt>
      <trkpt lat="45.06458" lon="6.22431">
        <ele>2254.2</ele>
        <time>2024-08-10T07:42:01Z</time>
      </trkpt>
      <trkpt lat="45.06458" lon="6.22431">
        <ele>2254.2</ele>
        <time>2024-08-10T07:42:02Z</time>
      </trkpt>
      <trkpt lat="45.06458" lon="6.22431">
        <ele>2254.2</ele>
        <time>2024-08-10T07:42:03Z</time>
      </trkpt>
      <trkpt lat="45.06458" lon="6.22431">
        <ele>2254.2</ele>
        <time>2024-08-10T07:42:04Z</time>
      </trkpt>
      <trkpt lat="45.06458" lon="6.22431">
        <ele>2254.2</ele>
        <time>2024-08-10T07:42:05Z</time>
      </trkpt>
      <trkpt lat="45.06458" lon="6.22431">
        <ele>2254.8</ele>
        <time>2024-08-10T07:42:06Z</time>
      </trkpt>
      <trkpt lat="45.06458" lon="6.22431">
        <ele>2254.8</ele>
        <time>2024-08-10T07:42:07Z</time>
      </trkpt>
      <trkpt lat="45.06458" lon="6.22434">
        <ele>2254.8</ele>
        <time>2024-08-10T07:42:08Z</time>
      </trkpt>
      <trkpt lat="45.06458" lon="6.22434">
        <ele>2254.2</ele>
        <time>2024-08-10T07:42:09Z</time>
      </trkpt>
      <trkpt lat="45.06456" lon="6.22437">
        <ele>2254.2</ele>
        <time>2024-08-10T07:42:10Z</time>
      </trkpt>
      <trkpt lat="45.06456" lon="6.22437">
        <ele>2254.4</ele>
        <time>2024-08-10T07:42:11Z</time>
      </trkpt>
      <trkpt lat="45.06456" lon="6.22441">
        <ele>2254.8</ele>
        <time>2024-08-10T07:42:12Z</time>
      </trkpt>
      <trkpt lat="45.06456" lon="6.22441">
        <ele>2254.8</ele>
        <time>2024-08-10T07:42:13Z</time>
      </trkpt>
      <trkpt lat="45.06455" lon="6.22444">
        <ele>2254.8</ele>
        <time>2024-08-10T07:42:14Z</time>
      </trkpt>
      <trkpt lat="45.06455" lon="6.22444">
        <ele>2255</ele>
        <time>2024-08-10T07:42:15Z</time>
      </trkpt>
      <trkpt lat="45.06454" lon="6.22447">
        <ele>2255.2</ele>
        <time>2024-08-10T07:42:16Z</time>
      </trkpt>
      <trkpt lat="45.06454" lon="6.22447">
        <ele>2255.4</ele>
        <time>2024-08-10T07:42:17Z</time>
      </trkpt>
      <trkpt lat="45.06454" lon="6.2245">
        <ele>2255.4</ele>
        <time>2024-08-10T07:42:18Z</time>
      </trkpt>
      <trkpt lat="45.06454" lon="6.2245">
        <ele>2255.8</ele>
        <time>2024-08-10T07:42:19Z</time>
      </trkpt>
      <trkpt lat="45.06454" lon="6.22453">
        <ele>2256</ele>
        <time>2024-08-10T07:42:20Z</time>
      </trkpt>
      <trkpt lat="45.06454" lon="6.22453">
        <ele>2256</ele>
        <time>2024-08-10T07:42:21Z</time>
      </trkpt>
      <trkpt lat="45.06453" lon="6.22456">
        <ele>2256.6</ele>
        <time>2024-08-10T07:42:22Z</time>
      </trkpt>
      <trkpt lat="45.06453" lon="6.22456">
        <ele>2256.8</ele>
        <time>2024-08-10T07:42:23Z</time>
      </trkpt>
      <trkpt lat="45.06452" lon="6.22459">
        <ele>2257</ele>
        <time>2024-08-10T07:42:24Z</time>
      </trkpt>
      <trkpt lat="45.06452" lon="6.22459">
        <ele>2257</ele>
        <time>2024-08-10T07:42:25Z</time>
      </trkpt>
      <trkpt lat="45.06452" lon="6.22462">
        <ele>2257.2</ele>
        <time>2024-08-10T07:42:26Z</time>
      </trkpt>
      <trkpt lat="45.06452" lon="6.22462">
        <ele>2257.4</ele>
        <time>2024-08-10T07:42:27Z</time>
      </trkpt>
      <trkpt lat="45.06451" lon="6.22464">
        <ele>2257.4</ele>
        <time>2024-08-10T07:42:28Z</time>
      </trkpt>
      <trkpt lat="45.06451" lon="6.22464">
        <ele>2257.6</ele>
        <time>2024-08-10T07:42:29Z</time>
      </trkpt>
      <trkpt lat="45.0645" lon="6.22467">
        <ele>2257.8</ele>
        <time>2024-08-10T07:42:30Z</time>
      </trkpt>
      <trkpt lat="45.0645" lon="6.22467">
        <ele>2257.8</ele>
        <time>2024-08-10T07:42:31Z</time>
      </trkpt>
      <trkpt lat="45.06449" lon="6.2247">
        <ele>2258.2</ele>
        <time>2024-08-10T07:42:32Z</time>
      </trkpt>
      <trkpt lat="45.06449" lon="6.2247">
        <ele>2258.4</ele>
        <time>2024-08-10T07:42:33Z</time>
      </trkpt>
      <trkpt lat="45.06449" lon="6.22473">
        <ele>2258.4</ele>
        <time>2024-08-10T07:42:34Z</time>
      </trkpt>
      <trkpt lat="45.06449" lon="6.22473">
        <ele>2258.6</ele>
        <time>2024-08-10T07:42:35Z</time>
      </trkpt>
      <trkpt lat="45.06448" lon="6.22476">
        <ele>2258.6</ele>
        <time>2024-08-10T07:42:36Z</time>
      </trkpt>
      <trkpt lat="45.06448" lon="6.22476">
        <ele>2259.2</ele>
        <time>2024-08-10T07:42:37Z</time>
      </trkpt>
      <trkpt lat="45.06448" lon="6.22479">
        <ele>2259.4</ele>
        <time>2024-08-10T07:42:38Z</time>
      </trkpt>
      <trkpt lat="45.06448" lon="6.22479">
        <ele>2259.4</ele>
        <time>2024-08-10T07:42:39Z</time>
      </trkpt>
      <trkpt lat="45.06447" lon="6.22482">
        <ele>2259.6</ele>
        <time>2024-08-10T07:42:40Z</time>
      </trkpt>
      <trkpt lat="45.06447" lon="6.22482">
        <ele>2259.6</ele>
        <time>2024-08-10T07:42:41Z</time>
      </trkpt>
      <trkpt lat="45.06446" lon="6.22485">
        <ele>2259.6</ele>
        <time>2024-08-10T07:42:42Z</time>
      </trkpt>
      <trkpt lat="45.06446" lon="6.22485">
        <ele>2259.6</ele>
        <time>2024-08-10T07:42:43Z</time>
      </trkpt>
      <trkpt lat="45.06445" lon="6.22488">
        <ele>2260.2</ele>
        <time>2024-08-10T07:42:44Z</time>
      </trkpt>
      <trkpt lat="45.06445" lon="6.22488">
        <ele>2260.2</ele>
        <time>2024-08-10T07:42:45Z</time>
      </trkpt>
      <trkpt lat="45.06444" lon="6.2249">
        <ele>2260.2</ele>
        <time>2024-08-10T07:42:46Z</time>
      </trkpt>
      <trkpt lat="45.06444" lon="6.2249">
        <ele>2260.2</ele>
        <time>2024-08-10T07:42:47Z</time>
      </trkpt>
      <trkpt lat="45.06443" lon="6.22493">
        <ele>2260.4</ele>
        <time>2024-08-10T07:42:48Z</time>
      </trkpt>
      <trkpt lat="45.06443" lon="6.22493">
        <ele>2260.4</ele>
        <time>2024-08-10T07:42:49Z</time>
      </trkpt>
      <trkpt lat="45.06442" lon="6.22496">
        <ele>2260.6</ele>
        <time>2024-08-10T07:42:50Z</time>
      </trkpt>
      <trkpt lat="45.06442" lon="6.22496">
        <ele>2261.2</ele>
        <time>2024-08-10T07:42:51Z</time>
      </trkpt>
      <trkpt lat="45.06441" lon="6.22499">
        <ele>2261.2</ele>
        <time>2024-08-10T07:42:52Z</time>
      </trkpt>
      <trkpt lat="45.06441" lon="6.22499">
        <ele>2261.2</ele>
        <time>2024-08-10T07:42:53Z</time>
      </trkpt>
      <trkpt lat="45.0644" lon="6.22502">
        <ele>2261.4</ele>
        <time>2024-08-10T07:42:54Z</time>
      </trkpt>
      <trkpt lat="45.0644" lon="6.22502">
        <ele>2261.4</ele>
        <time>2024-08-10T07:42:55Z</time>
      </trkpt>
      <trkpt lat="45.06439" lon="6.22504">
        <ele>2261.8</ele>
        <time>2024-08-10T07:42:56Z</time>
      </trkpt>
      <trkpt lat="45.06439" lon="6.22504">
        <ele>2261.8</ele>
        <time>2024-08-10T07:42:57Z</time>
      </trkpt>
      <trkpt lat="45.06438" lon="6.22508">
        <ele>2261.8</ele>
        <time>2024-08-10T07:42:58Z</time>
      </trkpt>
      <trkpt lat="45.06438" lon="6.22508">
        <ele>2262</ele>
        <time>2024-08-10T07:42:59Z</time>
      </trkpt>
      <trkpt lat="45.06438" lon="6.22511">
        <ele>2262.2</ele>
        <time>2024-08-10T07:43:00Z</time>
      </trkpt>
      <trkpt lat="45.06438" lon="6.22511">
        <ele>2262.2</ele>
        <time>2024-08-10T07:43:01Z</time>
      </trkpt>
      <trkpt lat="45.06437" lon="6.22513">
        <ele>2262.2</ele>
        <time>2024-08-10T07:43:02Z</time>
      </trkpt>
      <trkpt lat="45.06437" lon="6.22513">
        <ele>2262.6</ele>
        <time>2024-08-10T07:43:03Z</time>
      </trkpt>
      <trkpt lat="45.06437" lon="6.22516">
        <ele>2262.6</ele>
        <time>2024-08-10T07:43:04Z</time>
      </trkpt>
      <trkpt lat="45.06437" lon="6.22516">
        <ele>2263.2</ele>
        <time>2024-08-10T07:43:05Z</time>
      </trkpt>
      <trkpt lat="45.06436" lon="6.22519">
        <ele>2263.2</ele>
        <time>2024-08-10T07:43:06Z</time>
      </trkpt>
      <trkpt lat="45.06436" lon="6.22519">
        <ele>2263.2</ele>
        <time>2024-08-10T07:43:07Z</time>
      </trkpt>
      <trkpt lat="45.06436" lon="6.22522">
        <ele>2263.4</ele>
        <time>2024-08-10T07:43:08Z</time>
      </trkpt>
      <trkpt lat="45.06436" lon="6.22522">
        <ele>2263.4</ele>
        <time>2024-08-10T07:43:09Z</time>
      </trkpt>
      <trkpt lat="45.06435" lon="6.22525">
        <ele>2263.4</ele>
        <time>2024-08-10T07:43:10Z</time>
      </trkpt>
      <trkpt lat="45.06435" lon="6.22525">
        <ele>2263.4</ele>
        <time>2024-08-10T07:43:11Z</time>
      </trkpt>
      <trkpt lat="45.06434" lon="6.22528">
        <ele>2263.6</ele>
        <time>2024-08-10T07:43:12Z</time>
      </trkpt>
      <trkpt lat="45.06434" lon="6.22528">
        <ele>2263.8</ele>
        <time>2024-08-10T07:43:13Z</time>
      </trkpt>
      <trkpt lat="45.06432" lon="6.22531">
        <ele>2263.8</ele>
        <time>2024-08-10T07:43:14Z</time>
      </trkpt>
      <trkpt lat="45.06432" lon="6.22531">
        <ele>2263.8</ele>
        <time>2024-08-10T07:43:15Z</time>
      </trkpt>
      <trkpt lat="45.06432" lon="6.22534">
        <ele>2263.8</ele>
        <time>2024-08-10T07:43:16Z</time>
      </trkpt>
      <trkpt lat="45.06432" lon="6.22534">
        <ele>2264.2</ele>
        <time>2024-08-10T07:43:17Z</time>
      </trkpt>
      <trkpt lat="45.0643" lon="6.22537">
        <ele>2264.2</ele>
        <time>2024-08-10T07:43:18Z</time>
      </trkpt>
      <trkpt lat="45.0643" lon="6.22537">
        <ele>2264.4</ele>
        <time>2024-08-10T07:43:19Z</time>
      </trkpt>
      <trkpt lat="45.0643" lon="6.22539">
        <ele>2264.6</ele>
        <time>2024-08-10T07:43:20Z</time>
      </trkpt>
      <trkpt lat="45.0643" lon="6.22539">
        <ele>2264.6</ele>
        <time>2024-08-10T07:43:21Z</time>
      </trkpt>
      <trkpt lat="45.06429" lon="6.22542">
        <ele>2264.6</ele>
        <time>2024-08-10T07:43:22Z</time>
      </trkpt>
      <trkpt lat="45.06429" lon="6.22542">
        <ele>2264.8</ele>
        <time>2024-08-10T07:43:23Z</time>
      </trkpt>
      <trkpt lat="45.06428" lon="6.22545">
        <ele>2264.8</ele>
        <time>2024-08-10T07:43:24Z</time>
      </trkpt>
      <trkpt lat="45.06428" lon="6.22545">
        <ele>2265</ele>
        <time>2024-08-10T07:43:25Z</time>
      </trkpt>
      <trkpt lat="45.06427" lon="6.22548">
        <ele>2265</ele>
        <time>2024-08-10T07:43:26Z</time>
      </trkpt>
      <trkpt lat="45.06427" lon="6.22548">
        <ele>2265</ele>
        <time>2024-08-10T07:43:27Z</time>
      </trkpt>
      <trkpt lat="45.06426" lon="6.22552">
        <ele>2265.2</ele>
        <time>2024-08-10T07:43:28Z</time>
      </trkpt>
      <trkpt lat="45.06426" lon="6.22552">
        <ele>2265.2</ele>
        <time>2024-08-10T07:43:29Z</time>
      </trkpt>
      <trkpt lat="45.06424" lon="6.22554">
        <ele>2265.2</ele>
        <time>2024-08-10T07:43:30Z</time>
      </trkpt>
      <trkpt lat="45.06424" lon="6.22554">
        <ele>2265.4</ele>
        <time>2024-08-10T07:43:31Z</time>
      </trkpt>
      <trkpt lat="45.06423" lon="6.22557">
        <ele>2265.4</ele>
        <time>2024-08-10T07:43:32Z</time>
      </trkpt>
      <trkpt lat="45.06423" lon="6.22557">
        <ele>2265.4</ele>
        <time>2024-08-10T07:43:33Z</time>
      </trkpt>
      <trkpt lat="45.06422" lon="6.2256">
        <ele>2265.4</ele>
        <time>2024-08-10T07:43:34Z</time>
      </trkpt>
      <trkpt lat="45.06422" lon="6.2256">
        <ele>2266</ele>
        <time>2024-08-10T07:43:35Z</time>
      </trkpt>
      <trkpt lat="45.06422" lon="6.22563">
        <ele>2266</ele>
        <time>2024-08-10T07:43:36Z</time>
      </trkpt>
      <trkpt lat="45.06422" lon="6.22563">
        <ele>2266</ele>
        <time>2024-08-10T07:43:37Z</time>
      </trkpt>
      <trkpt lat="45.06422" lon="6.22566">
        <ele>2266</ele>
        <time>2024-08-10T07:43:38Z</time>
      </trkpt>
      <trkpt lat="45.06422" lon="6.22566">
        <ele>2266.2</ele>
        <time>2024-08-10T07:43:39Z</time>
      </trkpt>
      <trkpt lat="45.06421" lon="6.22569">
        <ele>2266.4</ele>
        <time>2024-08-10T07:43:40Z</time>
      </trkpt>
      <trkpt lat="45.06421" lon="6.22569">
        <ele>2266.6</ele>
        <time>2024-08-10T07:43:41Z</time>
      </trkpt>
      <trkpt lat="45.06421" lon="6.22573">
        <ele>2267</ele>
        <time>2024-08-10T07:43:42Z</time>
      </trkpt>
      <trkpt lat="45.06421" lon="6.22573">
        <ele>2267</ele>
        <time>2024-08-10T07:43:43Z</time>
      </trkpt>
      <trkpt lat="45.06421" lon="6.22576">
        <ele>2266.6</ele>
        <time>2024-08-10T07:43:44Z</time>
      </trkpt>
      <trkpt lat="45.06421" lon="6.22576">
        <ele>2266.4</ele>
        <time>2024-08-10T07:43:45Z</time>
      </trkpt>
      <trkpt lat="45.0642" lon="6.2258">
        <ele>2266.4</ele>
        <time>2024-08-10T07:43:46Z</time>
      </trkpt>
      <trkpt lat="45.0642" lon="6.2258">
        <ele>2266.6</ele>
        <time>2024-08-10T07:43:47Z</time>
      </trkpt>
      <trkpt lat="45.0642" lon="6.22583">
        <ele>2266.8</ele>
        <time>2024-08-10T07:43:48Z</time>
      </trkpt>
      <trkpt lat="45.0642" lon="6.22583">
        <ele>2267.2</ele>
        <time>2024-08-10T07:43:49Z</time>
      </trkpt>
      <trkpt lat="45.06419" lon="6.22586">
        <ele>2267.2</ele>
        <time>2024-08-10T07:43:50Z</time>
      </trkpt>
      <trkpt lat="45.06419" lon="6.22586">
        <ele>2267.2</ele>
        <time>2024-08-10T07:43:51Z</time>
      </trkpt>
      <trkpt lat="45.06419" lon="6.2259">
        <ele>2267.2</ele>
        <time>2024-08-10T07:43:52Z</time>
      </trkpt>
      <trkpt lat="45.06419" lon="6.2259">
        <ele>2267.4</ele>
        <time>2024-08-10T07:43:53Z</time>
      </trkpt>
      <trkpt lat="45.06419" lon="6.22593">
        <ele>2267.6</ele>
        <time>2024-08-10T07:43:54Z</time>
      </trkpt>
      <trkpt lat="45.06419" lon="6.22593">
        <ele>2268</ele>
        <time>2024-08-10T07:43:55Z</time>
      </trkpt>
      <trkpt lat="45.06419" lon="6.22597">
        <ele>2268</ele>
        <time>2024-08-10T07:43:56Z</time>
      </trkpt>
      <trkpt lat="45.06419" lon="6.22597">
        <ele>2268</ele>
        <time>2024-08-10T07:43:57Z</time>
      </trkpt>
      <trkpt lat="45.06418" lon="6.226">
        <ele>2267.8</ele>
        <time>2024-08-10T07:43:58Z</time>
      </trkpt>
      <trkpt lat="45.06418" lon="6.226">
        <ele>2267.8</ele>
        <time>2024-08-10T07:43:59Z</time>
      </trkpt>
      <trkpt lat="45.06417" lon="6.22603">
        <ele>2267.8</ele>
        <time>2024-08-10T07:44:00Z</time>
      </trkpt>
      <trkpt lat="45.06417" lon="6.22603">
        <ele>2267.8</ele>
        <time>2024-08-10T07:44:01Z</time>
      </trkpt>
      <trkpt lat="45.06416" lon="6.22606">
        <ele>2268</ele>
        <time>2024-08-10T07:44:02Z</time>
      </trkpt>
      <trkpt lat="45.06416" lon="6.22606">
        <ele>2268.2</ele>
        <time>2024-08-10T07:44:03Z</time>
      </trkpt>
      <trkpt lat="45.06416" lon="6.22609">
        <ele>2268.4</ele>
        <time>2024-08-10T07:44:04Z</time>
      </trkpt>
      <trkpt lat="45.06416" lon="6.22609">
        <ele>2268.2</ele>
        <time>2024-08-10T07:44:05Z</time>
      </trkpt>
      <trkpt lat="45.06415" lon="6.22612">
        <ele>2268.2</ele>
        <time>2024-08-10T07:44:06Z</time>
      </trkpt>
      <trkpt lat="45.06415" lon="6.22612">
        <ele>2268.4</ele>
        <time>2024-08-10T07:44:07Z</time>
      </trkpt>
      <trkpt lat="45.06414" lon="6.22616">
        <ele>2268.8</ele>
        <time>2024-08-10T07:44:08Z</time>
      </trkpt>
      <trkpt lat="45.06414" lon="6.22616">
        <ele>2268.8</ele>
        <time>2024-08-10T07:44:09Z</time>
      </trkpt>
      <trkpt lat="45.06413" lon="6.22619">
        <ele>2268.8</ele>
        <time>2024-08-10T07:44:10Z</time>
      </trkpt>
      <trkpt lat="45.06413" lon="6.22619">
        <ele>2269</ele>
        <time>2024-08-10T07:44:11Z</time>
      </trkpt>
      <trkpt lat="45.06412" lon="6.22622">
        <ele>2269.2</ele>
        <time>2024-08-10T07:44:12Z</time>
      </trkpt>
      <trkpt lat="45.06412" lon="6.22622">
        <ele>2269.2</ele>
        <time>2024-08-10T07:44:13Z</time>
      </trkpt>
      <trkpt lat="45.06411" lon="6.22625">
        <ele>2269.2</ele>
        <time>2024-08-10T07:44:14Z</time>
      </trkpt>
      <trkpt lat="45.06411" lon="6.22625">
        <ele>2269.2</ele>
        <time>2024-08-10T07:44:15Z</time>
      </trkpt>
      <trkpt lat="45.0641" lon="6.22628">
        <ele>2269.2</ele>
        <time>2024-08-10T07:44:16Z</time>
      </trkpt>
      <trkpt lat="45.0641" lon="6.22628">
        <ele>2269.4</ele>
        <time>2024-08-10T07:44:17Z</time>
      </trkpt>
      <trkpt lat="45.0641" lon="6.22631">
        <ele>2269.4</ele>
        <time>2024-08-10T07:44:18Z</time>
      </trkpt>
      <trkpt lat="45.0641" lon="6.22631">
        <ele>2269.8</ele>
        <time>2024-08-10T07:44:19Z</time>
      </trkpt>
      <trkpt lat="45.06409" lon="6.22634">
        <ele>2269.8</ele>
        <time>2024-08-10T07:44:20Z</time>
      </trkpt>
      <trkpt lat="45.06409" lon="6.22634">
        <ele>2270</ele>
        <time>2024-08-10T07:44:21Z</time>
      </trkpt>
      <trkpt lat="45.06408" lon="6.22637">
        <ele>2270</ele>
        <time>2024-08-10T07:44:22Z</time>
      </trkpt>
      <trkpt lat="45.06408" lon="6.22637">
        <ele>2270</ele>
        <time>2024-08-10T07:44:23Z</time>
      </trkpt>
      <trkpt lat="45.06408" lon="6.22639">
        <ele>2270</ele>
        <time>2024-08-10T07:44:24Z</time>
      </trkpt>
      <trkpt lat="45.06408" lon="6.22639">
        <ele>2270.4</ele>
        <time>2024-08-10T07:44:25Z</time>
      </trkpt>
      <trkpt lat="45.06406" lon="6.22642">
        <ele>2270.6</ele>
        <time>2024-08-10T07:44:26Z</time>
      </trkpt>
      <trkpt lat="45.06406" lon="6.22642">
        <ele>2270.8</ele>
        <time>2024-08-10T07:44:27Z</time>
      </trkpt>
      <trkpt lat="45.06405" lon="6.22645">
        <ele>2270.8</ele>
        <time>2024-08-10T07:44:28Z</time>
      </trkpt>
      <trkpt lat="45.06405" lon="6.22645">
        <ele>2270.8</ele>
        <time>2024-08-10T07:44:29Z</time>
      </trkpt>
      <trkpt lat="45.06404" lon="6.22648">
        <ele>2270.6</ele>
        <time>2024-08-10T07:44:30Z</time>
      </trkpt>
      <trkpt lat="45.06404" lon="6.22648">
        <ele>2270.8</ele>
        <time>2024-08-10T07:44:31Z</time>
      </trkpt>
      <trkpt lat="45.06403" lon="6.2265">
        <ele>2271</ele>
        <time>2024-08-10T07:44:32Z</time>
      </trkpt>
      <trkpt lat="45.06403" lon="6.2265">
        <ele>2271</ele>
        <time>2024-08-10T07:44:33Z</time>
      </trkpt>
      <trkpt lat="45.06402" lon="6.22653">
        <ele>2271</ele>
        <time>2024-08-10T07:44:34Z</time>
      </trkpt>
      <trkpt lat="45.06402" lon="6.22653">
        <ele>2271.2</ele>
        <time>2024-08-10T07:44:35Z</time>
      </trkpt>
      <trkpt lat="45.06401" lon="6.22656">
        <ele>2271.4</ele>
        <time>2024-08-10T07:44:36Z</time>
      </trkpt>
      <trkpt lat="45.06401" lon="6.22656">
        <ele>2271.4</ele>
        <time>2024-08-10T07:44:37Z</time>
      </trkpt>
      <trkpt lat="45.064" lon="6.22659">
        <ele>2271.8</ele>
        <time>2024-08-10T07:44:38Z</time>
      </trkpt>
      <trkpt lat="45.064" lon="6.22659">
        <ele>2272</ele>
        <time>2024-08-10T07:44:39Z</time>
      </trkpt>
      <trkpt lat="45.06399" lon="6.22662">
        <ele>2272</ele>
        <time>2024-08-10T07:44:40Z</time>
      </trkpt>
      <trkpt lat="45.06399" lon="6.22662">
        <ele>2272</ele>
        <time>2024-08-10T07:44:41Z</time>
      </trkpt>
      <trkpt lat="45.06398" lon="6.22665">
        <ele>2272</ele>
        <time>2024-08-10T07:44:42Z</time>
      </trkpt>
      <trkpt lat="45.06398" lon="6.22665">
        <ele>2272.4</ele>
        <time>2024-08-10T07:44:43Z</time>
      </trkpt>
      <trkpt lat="45.06397" lon="6.22668">
        <ele>2272.4</ele>
        <time>2024-08-10T07:44:44Z</time>
      </trkpt>
      <trkpt lat="45.06397" lon="6.22668">
        <ele>2272.6</ele>
        <time>2024-08-10T07:44:45Z</time>
      </trkpt>
      <trkpt lat="45.06397" lon="6.22671">
        <ele>2273</ele>
        <time>2024-08-10T07:44:46Z</time>
      </trkpt>
      <trkpt lat="45.06397" lon="6.22671">
        <ele>2273</ele>
        <time>2024-08-10T07:44:47Z</time>
      </trkpt>
      <trkpt lat="45.06395" lon="6.22674">
        <ele>2273</ele>
        <time>2024-08-10T07:44:48Z</time>
      </trkpt>
      <trkpt lat="45.06395" lon="6.22674">
        <ele>2273.2</ele>
        <time>2024-08-10T07:44:49Z</time>
      </trkpt>
      <trkpt lat="45.06395" lon="6.22677">
        <ele>2273.2</ele>
        <time>2024-08-10T07:44:50Z</time>
      </trkpt>
      <trkpt lat="45.06395" lon="6.22677">
        <ele>2273.2</ele>
        <time>2024-08-10T07:44:51Z</time>
      </trkpt>
      <trkpt lat="45.06393" lon="6.2268">
        <ele>2273.4</ele>
        <time>2024-08-10T07:44:52Z</time>
      </trkpt>
      <trkpt lat="45.06393" lon="6.2268">
        <ele>2273.6</ele>
        <time>2024-08-10T07:44:53Z</time>
      </trkpt>
      <trkpt lat="45.06393" lon="6.22683">
        <ele>2273.8</ele>
        <time>2024-08-10T07:44:54Z</time>
      </trkpt>
      <trkpt lat="45.06393" lon="6.22683">
        <ele>2274</ele>
        <time>2024-08-10T07:44:55Z</time>
      </trkpt>
      <trkpt lat="45.06392" lon="6.22686">
        <ele>2274</ele>
        <time>2024-08-10T07:44:56Z</time>
      </trkpt>
      <trkpt lat="45.06392" lon="6.22686">
        <ele>2274</ele>
        <time>2024-08-10T07:44:57Z</time>
      </trkpt>
      <trkpt lat="45.06392" lon="6.22689">
        <ele>2274</ele>
        <time>2024-08-10T07:44:58Z</time>
      </trkpt>
      <trkpt lat="45.06392" lon="6.22689">
        <ele>2274.2</ele>
        <time>2024-08-10T07:44:59Z</time>
      </trkpt>
      <trkpt lat="45.0639" lon="6.22692">
        <ele>2274.4</ele>
        <time>2024-08-10T07:45:00Z</time>
      </trkpt>
      <trkpt lat="45.0639" lon="6.22692">
        <ele>2274.6</ele>
        <time>2024-08-10T07:45:01Z</time>
      </trkpt>
      <trkpt lat="45.06389" lon="6.22695">
        <ele>2275</ele>
        <time>2024-08-10T07:45:02Z</time>
      </trkpt>
      <trkpt lat="45.06389" lon="6.22695">
        <ele>2275.2</ele>
        <time>2024-08-10T07:45:03Z</time>
      </trkpt>
      <trkpt lat="45.06388" lon="6.22698">
        <ele>2275.2</ele>
        <time>2024-08-10T07:45:04Z</time>
      </trkpt>
      <trkpt lat="45.06388" lon="6.22698">
        <ele>2275</ele>
        <time>2024-08-10T07:45:05Z</time>
      </trkpt>
      <trkpt lat="45.06387" lon="6.22701">
        <ele>2275</ele>
        <time>2024-08-10T07:45:06Z</time>
      </trkpt>
      <trkpt lat="45.06387" lon="6.22701">
        <ele>2275</ele>
        <time>2024-08-10T07:45:07Z</time>
      </trkpt>
      <trkpt lat="45.06387" lon="6.22704">
        <ele>2275.4</ele>
        <time>2024-08-10T07:45:08Z</time>
      </trkpt>
      <trkpt lat="45.06387" lon="6.22704">
        <ele>2275.6</ele>
        <time>2024-08-10T07:45:09Z</time>
      </trkpt>
      <trkpt lat="45.06385" lon="6.22707">
        <ele>2275.6</ele>
        <time>2024-08-10T07:45:10Z</time>
      </trkpt>
      <trkpt lat="45.06385" lon="6.22707">
        <ele>2275.8</ele>
        <time>2024-08-10T07:45:11Z</time>
      </trkpt>
      <trkpt lat="45.06384" lon="6.2271">
        <ele>2276</ele>
        <time>2024-08-10T07:45:12Z</time>
      </trkpt>
      <trkpt lat="45.06384" lon="6.2271">
        <ele>2276</ele>
        <time>2024-08-10T07:45:13Z</time>
      </trkpt>
      <trkpt lat="45.06383" lon="6.22712">
        <ele>2276</ele>
        <time>2024-08-10T07:45:14Z</time>
      </trkpt>
      <trkpt lat="45.06383" lon="6.22712">
        <ele>2275.8</ele>
        <time>2024-08-10T07:45:15Z</time>
      </trkpt>
      <trkpt lat="45.06382" lon="6.22714">
        <ele>2275.8</ele>
        <time>2024-08-10T07:45:16Z</time>
      </trkpt>
      <trkpt lat="45.06382" lon="6.22714">
        <ele>2276.2</ele>
        <time>2024-08-10T07:45:17Z</time>
      </trkpt>
      <trkpt lat="45.0638" lon="6.22717">
        <ele>2276.8</ele>
        <time>2024-08-10T07:45:18Z</time>
      </trkpt>
      <trkpt lat="45.0638" lon="6.22717">
        <ele>2276.8</ele>
        <time>2024-08-10T07:45:19Z</time>
      </trkpt>
      <trkpt lat="45.06378" lon="6.22719">
        <ele>2277</ele>
        <time>2024-08-10T07:45:20Z</time>
      </trkpt>
      <trkpt lat="45.06378" lon="6.22719">
        <ele>2277</ele>
        <time>2024-08-10T07:45:21Z</time>
      </trkpt>
      <trkpt lat="45.06376" lon="6.22721">
        <ele>2276.8</ele>
        <time>2024-08-10T07:45:22Z</time>
      </trkpt>
      <trkpt lat="45.06376" lon="6.22721">
        <ele>2276.8</ele>
        <time>2024-08-10T07:45:23Z</time>
      </trkpt>
      <trkpt lat="45.06374" lon="6.22723">
        <ele>2276.8</ele>
        <time>2024-08-10T07:45:24Z</time>
      </trkpt>
      <trkpt lat="45.06374" lon="6.22723">
        <ele>2277</ele>
        <time>2024-08-10T07:45:25Z</time>
      </trkpt>
      <trkpt lat="45.06373" lon="6.22725">
        <ele>2277.2</ele>
        <time>2024-08-10T07:45:26Z</time>
      </trkpt>
      <trkpt lat="45.06373" lon="6.22725">
        <ele>2277.4</ele>
        <time>2024-08-10T07:45:27Z</time>
      </trkpt>
      <trkpt lat="45.06371" lon="6.22727">
        <ele>2277.4</ele>
        <time>2024-08-10T07:45:28Z</time>
      </trkpt>
      <trkpt lat="45.06371" lon="6.22727">
        <ele>2277.6</ele>
        <time>2024-08-10T07:45:29Z</time>
      </trkpt>
      <trkpt lat="45.06369" lon="6.22729">
        <ele>2277.4</ele>
        <time>2024-08-10T07:45:30Z</time>
      </trkpt>
      <trkpt lat="45.06369" lon="6.22729">
        <ele>2277.4</ele>
        <time>2024-08-10T07:45:31Z</time>
      </trkpt>
      <trkpt lat="45.06366" lon="6.22731">
        <ele>2277.4</ele>
        <time>2024-08-10T07:45:32Z</time>
      </trkpt>
      <trkpt lat="45.06366" lon="6.22731">
        <ele>2277.4</ele>
        <time>2024-08-10T07:45:33Z</time>
      </trkpt>
      <trkpt lat="45.06364" lon="6.22733">
        <ele>2277.6</ele>
        <time>2024-08-10T07:45:34Z</time>
      </trkpt>
      <trkpt lat="45.06364" lon="6.22733">
        <ele>2277.6</ele>
        <time>2024-08-10T07:45:35Z</time>
      </trkpt>
      <trkpt lat="45.06362" lon="6.22736">
        <ele>2277.6</ele>
        <time>2024-08-10T07:45:36Z</time>
      </trkpt>
      <trkpt lat="45.06362" lon="6.22736">
        <ele>2277.6</ele>
        <time>2024-08-10T07:45:37Z</time>
      </trkpt>
      <trkpt lat="45.0636" lon="6.22738">
        <ele>2277.4</ele>
        <time>2024-08-10T07:45:38Z</time>
      </trkpt>
      <trkpt lat="45.0636" lon="6.22738">
        <ele>2277.4</ele>
        <time>2024-08-10T07:45:39Z</time>
      </trkpt>
      <trkpt lat="45.06358" lon="6.2274">
        <ele>2277.4</ele>
        <time>2024-08-10T07:45:40Z</time>
      </trkpt>
      <trkpt lat="45.06358" lon="6.2274">
        <ele>2277.4</ele>
        <time>2024-08-10T07:45:41Z</time>
      </trkpt>
      <trkpt lat="45.06357" lon="6.22743">
        <ele>2278</ele>
        <time>2024-08-10T07:45:42Z</time>
      </trkpt>
      <trkpt lat="45.06357" lon="6.22743">
        <ele>2278</ele>
        <time>2024-08-10T07:45:43Z</time>
      </trkpt>
      <trkpt lat="45.06355" lon="6.22746">
        <ele>2278</ele>
        <time>2024-08-10T07:45:44Z</time>
      </trkpt>
      <trkpt lat="45.06355" lon="6.22746">
        <ele>2278.2</ele>
        <time>2024-08-10T07:45:45Z</time>
      </trkpt>
      <trkpt lat="45.06353" lon="6.22749">
        <ele>2278.2</ele>
        <time>2024-08-10T07:45:46Z</time>
      </trkpt>
      <trkpt lat="45.06353" lon="6.22749">
        <ele>2278.2</ele>
        <time>2024-08-10T07:45:47Z</time>
      </trkpt>
      <trkpt lat="45.06352" lon="6.22752">
        <ele>2278.2</ele>
        <time>2024-08-10T07:45:48Z</time>
      </trkpt>
      <trkpt lat="45.06352" lon="6.22752">
        <ele>2278.2</ele>
        <time>2024-08-10T07:45:49Z</time>
      </trkpt>
      <trkpt lat="45.06351" lon="6.22754">
        <ele>2278.2</ele>
        <time>2024-08-10T07:45:50Z</time>
      </trkpt>
      <trkpt lat="45.06351" lon="6.22754">
        <ele>2278.4</ele>
        <time>2024-08-10T07:45:51Z</time>
      </trkpt>
      <trkpt lat="45.06349" lon="6.22758">
        <ele>2278.6</ele>
        <time>2024-08-10T07:45:52Z</time>
      </trkpt>
      <trkpt lat="45.06349" lon="6.22758">
        <ele>2278.6</ele>
        <time>2024-08-10T07:45:53Z</time>
      </trkpt>
      <trkpt lat="45.06348" lon="6.22761">
        <ele>2278.6</ele>
        <time>2024-08-10T07:45:54Z</time>
      </trkpt>
      <trkpt lat="45.06348" lon="6.22761">
        <ele>2278.4</ele>
        <time>2024-08-10T07:45:55Z</time>
      </trkpt>
      <trkpt lat="45.06347" lon="6.22764">
        <ele>2278.4</ele>
        <time>2024-08-10T07:45:56Z</time>
      </trkpt>
      <trkpt lat="45.06347" lon="6.22764">
        <ele>2278.6</ele>
        <time>2024-08-10T07:45:57Z</time>
      </trkpt>
      <trkpt lat="45.06346" lon="6.22766">
        <ele>2279</ele>
        <time>2024-08-10T07:45:58Z</time>
      </trkpt>
      <trkpt lat="45.06346" lon="6.22766">
        <ele>2279.2</ele>
        <time>2024-08-10T07:45:59Z</time>
      </trkpt>
      <trkpt lat="45.06346" lon="6.22766">
        <ele>2279.2</ele>
        <time>2024-08-10T07:46:00Z</time>
      </trkpt>
      <trkpt lat="45.06346" lon="6.22766">
        <ele>2279.4</ele>
        <time>2024-08-10T07:46:01Z</time>
      </trkpt>
      <trkpt lat="45.06346" lon="6.22766">
        <ele>2279.2</ele>
        <time>2024-08-10T07:46:02Z</time>
      </trkpt>
      <trkpt lat="45.06346" lon="6.22766">
        <ele>2279.6</ele>
        <time>2024-08-10T07:46:03Z</time>
      </trkpt>
      <trkpt lat="45.06346" lon="6.22766">
        <ele>2279.6</ele>
        <time>2024-08-10T07:46:04Z</time>
      </trkpt>
      <trkpt lat="45.06346" lon="6.22766">
        <ele>2279.4</ele>
        <time>2024-08-10T07:46:05Z</time>
      </trkpt>
      <trkpt lat="45.06344" lon="6.22769">
        <ele>2279.2</ele>
        <time>2024-08-10T07:46:06Z</time>
      </trkpt>
      <trkpt lat="45.06344" lon="6.22769">
        <ele>2279.2</ele>
        <time>2024-08-10T07:46:07Z</time>
      </trkpt>
      <trkpt lat="45.06342" lon="6.22773">
        <ele>2279.8</ele>
        <time>2024-08-10T07:46:08Z</time>
      </trkpt>
      <trkpt lat="45.06341" lon="6.22775">
        <ele>2279.8</ele>
        <time>2024-08-10T07:46:09Z</time>
      </trkpt>
      <trkpt lat="45.06341" lon="6.22775">
        <ele>2279.6</ele>
        <time>2024-08-10T07:46:10Z</time>
      </trkpt>
      <trkpt lat="45.0634" lon="6.22779">
        <ele>2279.4</ele>
        <time>2024-08-10T07:46:11Z</time>
      </trkpt>
      <trkpt lat="45.0634" lon="6.22779">
        <ele>2279.4</ele>
        <time>2024-08-10T07:46:12Z</time>
      </trkpt>
      <trkpt lat="45.06339" lon="6.22783">
        <ele>2279.4</ele>
        <time>2024-08-10T07:46:13Z</time>
      </trkpt>
      <trkpt lat="45.06339" lon="6.22783">
        <ele>2279.4</ele>
        <time>2024-08-10T07:46:14Z</time>
      </trkpt>
      <trkpt lat="45.06337" lon="6.22786">
        <ele>2279.4</ele>
        <time>2024-08-10T07:46:15Z</time>
      </trkpt>
      <trkpt lat="45.06337" lon="6.22786">
        <ele>2279.6</ele>
        <time>2024-08-10T07:46:16Z</time>
      </trkpt>
      <trkpt lat="45.06336" lon="6.22789">
        <ele>2279.8</ele>
        <time>2024-08-10T07:46:17Z</time>
      </trkpt>
      <trkpt lat="45.06336" lon="6.22789">
        <ele>2279.8</ele>
        <time>2024-08-10T07:46:18Z</time>
      </trkpt>
      <trkpt lat="45.06335" lon="6.22792">
        <ele>2279.8</ele>
        <time>2024-08-10T07:46:19Z</time>
      </trkpt>
      <trkpt lat="45.06335" lon="6.22792">
        <ele>2279.8</ele>
        <time>2024-08-10T07:46:20Z</time>
      </trkpt>
      <trkpt lat="45.06333" lon="6.22795">
        <ele>2279.8</ele>
        <time>2024-08-10T07:46:21Z</time>
      </trkpt>
      <trkpt lat="45.06333" lon="6.22795">
        <ele>2279.8</ele>
        <time>2024-08-10T07:46:22Z</time>
      </trkpt>
      <trkpt lat="45.06332" lon="6.22798">
        <ele>2279.8</ele>
        <time>2024-08-10T07:46:23Z</time>
      </trkpt>
      <trkpt lat="45.06332" lon="6.22798">
        <ele>2280</ele>
        <time>2024-08-10T07:46:24Z</time>
      </trkpt>
      <trkpt lat="45.06331" lon="6.22802">
        <ele>2280.6</ele>
        <time>2024-08-10T07:46:25Z</time>
      </trkpt>
      <trkpt lat="45.06331" lon="6.22802">
        <ele>2280.8</ele>
        <time>2024-08-10T07:46:26Z</time>
      </trkpt>
      <trkpt lat="45.06331" lon="6.22805">
        <ele>2281</ele>
        <time>2024-08-10T07:46:27Z</time>
      </trkpt>
      <trkpt lat="45.06331" lon="6.22805">
        <ele>2281</ele>
        <time>2024-08-10T07:46:28Z</time>
      </trkpt>
      <trkpt lat="45.0633" lon="6.22808">
        <ele>2281</ele>
        <time>2024-08-10T07:46:29Z</time>
      </trkpt>
      <trkpt lat="45.0633" lon="6.22808">
        <ele>2281</ele>
        <time>2024-08-10T07:46:30Z</time>
      </trkpt>
      <trkpt lat="45.06328" lon="6.22811">
        <ele>2281.4</ele>
        <time>2024-08-10T07:46:31Z</time>
      </trkpt>
      <trkpt lat="45.06328" lon="6.22811">
        <ele>2281.4</ele>
        <time>2024-08-10T07:46:32Z</time>
      </trkpt>
      <trkpt lat="45.06327" lon="6.22813">
        <ele>2281.6</ele>
        <time>2024-08-10T07:46:33Z</time>
      </trkpt>
      <trkpt lat="45.06327" lon="6.22813">
        <ele>2281.6</ele>
        <time>2024-08-10T07:46:34Z</time>
      </trkpt>
      <trkpt lat="45.06325" lon="6.22815">
        <ele>2281.4</ele>
        <time>2024-08-10T07:46:35Z</time>
      </trkpt>
      <trkpt lat="45.06325" lon="6.22815">
        <ele>2281.4</ele>
        <time>2024-08-10T07:46:36Z</time>
      </trkpt>
      <trkpt lat="45.06323" lon="6.22816">
        <ele>2281.4</ele>
        <time>2024-08-10T07:46:37Z</time>
      </trkpt>
      <trkpt lat="45.06323" lon="6.22816">
        <ele>2281.6</ele>
        <time>2024-08-10T07:46:38Z</time>
      </trkpt>
      <trkpt lat="45.06321" lon="6.22818">
        <ele>2281.6</ele>
        <time>2024-08-10T07:46:39Z</time>
      </trkpt>
      <trkpt lat="45.06321" lon="6.22818">
        <ele>2281.4</ele>
        <time>2024-08-10T07:46:40Z</time>
      </trkpt>
      <trkpt lat="45.06321" lon="6.2282">
        <ele>2281.4</ele>
        <time>2024-08-10T07:46:41Z</time>
      </trkpt>
      <trkpt lat="45.06321" lon="6.2282">
        <ele>2281.6</ele>
        <time>2024-08-10T07:46:42Z</time>
      </trkpt>
      <trkpt lat="45.0632" lon="6.22824">
        <ele>2281.8</ele>
        <time>2024-08-10T07:46:43Z</time>
      </trkpt>
      <trkpt lat="45.0632" lon="6.22824">
        <ele>2281.8</ele>
        <time>2024-08-10T07:46:44Z</time>
      </trkpt>
      <trkpt lat="45.06319" lon="6.22826">
        <ele>2281.6</ele>
        <time>2024-08-10T07:46:45Z</time>
      </trkpt>
      <trkpt lat="45.06319" lon="6.22826">
        <ele>2281.4</ele>
        <time>2024-08-10T07:46:46Z</time>
      </trkpt>
      <trkpt lat="45.06318" lon="6.22828">
        <ele>2281.4</ele>
        <time>2024-08-10T07:46:47Z</time>
      </trkpt>
      <trkpt lat="45.06318" lon="6.22828">
        <ele>2281.4</ele>
        <time>2024-08-10T07:46:48Z</time>
      </trkpt>
      <trkpt lat="45.06318" lon="6.22828">
        <ele>2281.4</ele>
        <time>2024-08-10T07:46:49Z</time>
      </trkpt>
      <trkpt lat="45.06318" lon="6.22832">
        <ele>2281.6</ele>
        <time>2024-08-10T07:46:50Z</time>
      </trkpt>
      <trkpt lat="45.06318" lon="6.22832">
        <ele>2282</ele>
        <time>2024-08-10T07:46:51Z</time>
      </trkpt>
      <trkpt lat="45.06318" lon="6.22835">
        <ele>2283</ele>
        <time>2024-08-10T07:46:52Z</time>
      </trkpt>
      <trkpt lat="45.06318" lon="6.22835">
        <ele>2283.2</ele>
        <time>2024-08-10T07:46:53Z</time>
      </trkpt>
      <trkpt lat="45.06317" lon="6.22838">
        <ele>2283.2</ele>
        <time>2024-08-10T07:46:54Z</time>
      </trkpt>
      <trkpt lat="45.06317" lon="6.22838">
        <ele>2282.6</ele>
        <time>2024-08-10T07:46:55Z</time>
      </trkpt>
      <trkpt lat="45.06317" lon="6.22838">
        <ele>2282.4</ele>
        <time>2024-08-10T07:46:56Z</time>
      </trkpt>
      <trkpt lat="45.06317" lon="6.22841">
        <ele>2282.2</ele>
        <time>2024-08-10T07:46:57Z</time>
      </trkpt>
      <trkpt lat="45.06317" lon="6.22841">
        <ele>2282.2</ele>
        <time>2024-08-10T07:46:58Z</time>
      </trkpt>
      <trkpt lat="45.06317" lon="6.22841">
        <ele>2282.6</ele>
        <time>2024-08-10T07:46:59Z</time>
      </trkpt>
      <trkpt lat="45.06317" lon="6.22841">
        <ele>2282.6</ele>
        <time>2024-08-10T07:47:00Z</time>
      </trkpt>
      <trkpt lat="45.06317" lon="6.22844">
        <ele>2282.8</ele>
        <time>2024-08-10T07:47:01Z</time>
      </trkpt>
      <trkpt lat="45.06317" lon="6.22844">
        <ele>2283</ele>
        <time>2024-08-10T07:47:02Z</time>
      </trkpt>
      <trkpt lat="45.06317" lon="6.22847">
        <ele>2283.2</ele>
        <time>2024-08-10T07:47:03Z</time>
      </trkpt>
      <trkpt lat="45.06317" lon="6.22847">
        <ele>2283.2</ele>
        <time>2024-08-10T07:47:04Z</time>
      </trkpt>
      <trkpt lat="45.06317" lon="6.22847">
        <ele>2283.4</ele>
        <time>2024-08-10T07:47:05Z</time>
      </trkpt>
      <trkpt lat="45.06318" lon="6.2285">
        <ele>2283.6</ele>
        <time>2024-08-10T07:47:06Z</time>
      </trkpt>
      <trkpt lat="45.06318" lon="6.2285">
        <ele>2283.8</ele>
        <time>2024-08-10T07:47:07Z</time>
      </trkpt>
      <trkpt lat="45.06319" lon="6.22853">
        <ele>2284.2</ele>
        <time>2024-08-10T07:47:08Z</time>
      </trkpt>
      <trkpt lat="45.06319" lon="6.22853">
        <ele>2284.2</ele>
        <time>2024-08-10T07:47:09Z</time>
      </trkpt>
      <trkpt lat="45.06319" lon="6.22855">
        <ele>2284.2</ele>
        <time>2024-08-10T07:47:10Z</time>
      </trkpt>
      <trkpt lat="45.06319" lon="6.22855">
        <ele>2284.4</ele>
        <time>2024-08-10T07:47:11Z</time>
      </trkpt>
      <trkpt lat="45.0632" lon="6.22858">
        <ele>2284.4</ele>
        <time>2024-08-10T07:47:12Z</time>
      </trkpt>
      <trkpt lat="45.0632" lon="6.22858">
        <ele>2284.8</ele>
        <time>2024-08-10T07:47:13Z</time>
      </trkpt>
      <trkpt lat="45.06321" lon="6.22861">
        <ele>2285.2</ele>
        <time>2024-08-10T07:47:14Z</time>
      </trkpt>
      <trkpt lat="45.06321" lon="6.22861">
        <ele>2285.2</ele>
        <time>2024-08-10T07:47:15Z</time>
      </trkpt>
      <trkpt lat="45.06321" lon="6.22864">
        <ele>2285.2</ele>
        <time>2024-08-10T07:47:16Z</time>
      </trkpt>
      <trkpt lat="45.06321" lon="6.22864">
        <ele>2285.4</ele>
        <time>2024-08-10T07:47:17Z</time>
      </trkpt>
      <trkpt lat="45.06321" lon="6.22867">
        <ele>2285.4</ele>
        <time>2024-08-10T07:47:18Z</time>
      </trkpt>
      <trkpt lat="45.06321" lon="6.22867">
        <ele>2285.6</ele>
        <time>2024-08-10T07:47:19Z</time>
      </trkpt>
      <trkpt lat="45.06321" lon="6.2287">
        <ele>2285.6</ele>
        <time>2024-08-10T07:47:20Z</time>
      </trkpt>
      <trkpt lat="45.06321" lon="6.2287">
        <ele>2285.8</ele>
        <time>2024-08-10T07:47:21Z</time>
      </trkpt>
      <trkpt lat="45.06321" lon="6.22873">
        <ele>2285.8</ele>
        <time>2024-08-10T07:47:22Z</time>
      </trkpt>
      <trkpt lat="45.06321" lon="6.22873">
        <ele>2285.8</ele>
        <time>2024-08-10T07:47:23Z</time>
      </trkpt>
      <trkpt lat="45.06321" lon="6.22876">
        <ele>2286.4</ele>
        <time>2024-08-10T07:47:24Z</time>
      </trkpt>
      <trkpt lat="45.06321" lon="6.22876">
        <ele>2286.4</ele>
        <time>2024-08-10T07:47:25Z</time>
      </trkpt>
      <trkpt lat="45.06321" lon="6.22879">
        <ele>2286.4</ele>
        <time>2024-08-10T07:47:26Z</time>
      </trkpt>
      <trkpt lat="45.06321" lon="6.22879">
        <ele>2286.6</ele>
        <time>2024-08-10T07:47:27Z</time>
      </trkpt>
      <trkpt lat="45.06321" lon="6.22882">
        <ele>2286.6</ele>
        <time>2024-08-10T07:47:28Z</time>
      </trkpt>
      <trkpt lat="45.06321" lon="6.22882">
        <ele>2286.8</ele>
        <time>2024-08-10T07:47:29Z</time>
      </trkpt>
      <trkpt lat="45.06321" lon="6.22885">
        <ele>2287</ele>
        <time>2024-08-10T07:47:30Z</time>
      </trkpt>
      <trkpt lat="45.06321" lon="6.22885">
        <ele>2287</ele>
        <time>2024-08-10T07:47:31Z</time>
      </trkpt>
      <trkpt lat="45.06321" lon="6.22889">
        <ele>2287</ele>
        <time>2024-08-10T07:47:32Z</time>
      </trkpt>
      <trkpt lat="45.06321" lon="6.22889">
        <ele>2287</ele>
        <time>2024-08-10T07:47:33Z</time>
      </trkpt>
      <trkpt lat="45.0632" lon="6.22892">
        <ele>2287.8</ele>
        <time>2024-08-10T07:47:34Z</time>
      </trkpt>
      <trkpt lat="45.0632" lon="6.22892">
        <ele>2287.8</ele>
        <time>2024-08-10T07:47:35Z</time>
      </trkpt>
      <trkpt lat="45.0632" lon="6.22895">
        <ele>2287.8</ele>
        <time>2024-08-10T07:47:36Z</time>
      </trkpt>
      <trkpt lat="45.0632" lon="6.22895">
        <ele>2288</ele>
        <time>2024-08-10T07:47:37Z</time>
      </trkpt>
      <trkpt lat="45.06319" lon="6.22898">
        <ele>2288.2</ele>
        <time>2024-08-10T07:47:38Z</time>
      </trkpt>
      <trkpt lat="45.06319" lon="6.22898">
        <ele>2288.2</ele>
        <time>2024-08-10T07:47:39Z</time>
      </trkpt>
      <trkpt lat="45.06319" lon="6.22902">
        <ele>2287.8</ele>
        <time>2024-08-10T07:47:40Z</time>
      </trkpt>
      <trkpt lat="45.06319" lon="6.22902">
        <ele>2287.8</ele>
        <time>2024-08-10T07:47:41Z</time>
      </trkpt>
      <trkpt lat="45.06319" lon="6.22905">
        <ele>2288</ele>
        <time>2024-08-10T07:47:42Z</time>
      </trkpt>
      <trkpt lat="45.06319" lon="6.22905">
        <ele>2288</ele>
        <time>2024-08-10T07:47:43Z</time>
      </trkpt>
      <trkpt lat="45.06319" lon="6.22909">
        <ele>2288.4</ele>
        <time>2024-08-10T07:47:44Z</time>
      </trkpt>
      <trkpt lat="45.06319" lon="6.22909">
        <ele>2288.6</ele>
        <time>2024-08-10T07:47:45Z</time>
      </trkpt>
      <trkpt lat="45.06319" lon="6.22912">
        <ele>2288.8</ele>
        <time>2024-08-10T07:47:46Z</time>
      </trkpt>
      <trkpt lat="45.06319" lon="6.22912">
        <ele>2288.8</ele>
        <time>2024-08-10T07:47:47Z</time>
      </trkpt>
      <trkpt lat="45.06319" lon="6.22915">
        <ele>2288.8</ele>
        <time>2024-08-10T07:47:48Z</time>
      </trkpt>
      <trkpt lat="45.06319" lon="6.22915">
        <ele>2289.4</ele>
        <time>2024-08-10T07:47:49Z</time>
      </trkpt>
      <trkpt lat="45.06318" lon="6.22919">
        <ele>2289.4</ele>
        <time>2024-08-10T07:47:50Z</time>
      </trkpt>
      <trkpt lat="45.06318" lon="6.22919">
        <ele>2289.4</ele>
        <time>2024-08-10T07:47:51Z</time>
      </trkpt>
      <trkpt lat="45.06319" lon="6.22922">
        <ele>2289.8</ele>
        <time>2024-08-10T07:47:52Z</time>
      </trkpt>
      <trkpt lat="45.06319" lon="6.22922">
        <ele>2289.8</ele>
        <time>2024-08-10T07:47:53Z</time>
      </trkpt>
      <trkpt lat="45.06319" lon="6.22925">
        <ele>2289.8</ele>
        <time>2024-08-10T07:47:54Z</time>
      </trkpt>
      <trkpt lat="45.06319" lon="6.22925">
        <ele>2290</ele>
        <time>2024-08-10T07:47:55Z</time>
      </trkpt>
      <trkpt lat="45.06319" lon="6.22928">
        <ele>2290.4</ele>
        <time>2024-08-10T07:47:56Z</time>
      </trkpt>
      <trkpt lat="45.06319" lon="6.22928">
        <ele>2290.4</ele>
        <time>2024-08-10T07:47:57Z</time>
      </trkpt>
      <trkpt lat="45.06319" lon="6.22932">
        <ele>2290</ele>
        <time>2024-08-10T07:47:58Z</time>
      </trkpt>
      <trkpt lat="45.06319" lon="6.22932">
        <ele>2290</ele>
        <time>2024-08-10T07:47:59Z</time>
      </trkpt>
      <trkpt lat="45.06319" lon="6.22935">
        <ele>2290</ele>
        <time>2024-08-10T07:48:00Z</time>
      </trkpt>
      <trkpt lat="45.06319" lon="6.22935">
        <ele>2290</ele>
        <time>2024-08-10T07:48:01Z</time>
      </trkpt>
      <trkpt lat="45.06319" lon="6.22938">
        <ele>2289.8</ele>
        <time>2024-08-10T07:48:02Z</time>
      </trkpt>
      <trkpt lat="45.06319" lon="6.22938">
        <ele>2290.2</ele>
        <time>2024-08-10T07:48:03Z</time>
      </trkpt>
      <trkpt lat="45.06319" lon="6.2294">
        <ele>2290.2</ele>
        <time>2024-08-10T07:48:04Z</time>
      </trkpt>
      <trkpt lat="45.06319" lon="6.2294">
        <ele>2290.6</ele>
        <time>2024-08-10T07:48:05Z</time>
      </trkpt>
      <trkpt lat="45.06319" lon="6.22944">
        <ele>2290.8</ele>
        <time>2024-08-10T07:48:06Z</time>
      </trkpt>
      <trkpt lat="45.06319" lon="6.22944">
        <ele>2291</ele>
        <time>2024-08-10T07:48:07Z</time>
      </trkpt>
      <trkpt lat="45.06319" lon="6.22946">
        <ele>2291.4</ele>
        <time>2024-08-10T07:48:08Z</time>
      </trkpt>
      <trkpt lat="45.06319" lon="6.22946">
        <ele>2291.6</ele>
        <time>2024-08-10T07:48:09Z</time>
      </trkpt>
      <trkpt lat="45.06319" lon="6.22949">
        <ele>2291.6</ele>
        <time>2024-08-10T07:48:10Z</time>
      </trkpt>
      <trkpt lat="45.06319" lon="6.22949">
        <ele>2291.6</ele>
        <time>2024-08-10T07:48:11Z</time>
      </trkpt>
      <trkpt lat="45.0632" lon="6.22952">
        <ele>2292</ele>
        <time>2024-08-10T07:48:12Z</time>
      </trkpt>
      <trkpt lat="45.0632" lon="6.22952">
        <ele>2292</ele>
        <time>2024-08-10T07:48:13Z</time>
      </trkpt>
      <trkpt lat="45.06321" lon="6.22955">
        <ele>2292</ele>
        <time>2024-08-10T07:48:14Z</time>
      </trkpt>
      <trkpt lat="45.06321" lon="6.22955">
        <ele>2292.4</ele>
        <time>2024-08-10T07:48:15Z</time>
      </trkpt>
      <trkpt lat="45.06322" lon="6.22958">
        <ele>2292.4</ele>
        <time>2024-08-10T07:48:16Z</time>
      </trkpt>
      <trkpt lat="45.06322" lon="6.22958">
        <ele>2292.2</ele>
        <time>2024-08-10T07:48:17Z</time>
      </trkpt>
      <trkpt lat="45.06323" lon="6.22961">
        <ele>2292.2</ele>
        <time>2024-08-10T07:48:18Z</time>
      </trkpt>
      <trkpt lat="45.06323" lon="6.22961">
        <ele>2292.8</ele>
        <time>2024-08-10T07:48:19Z</time>
      </trkpt>
      <trkpt lat="45.06323" lon="6.22963">
        <ele>2292.8</ele>
        <time>2024-08-10T07:48:20Z</time>
      </trkpt>
      <trkpt lat="45.06323" lon="6.22963">
        <ele>2293.2</ele>
        <time>2024-08-10T07:48:21Z</time>
      </trkpt>
      <trkpt lat="45.06324" lon="6.22966">
        <ele>2293.4</ele>
        <time>2024-08-10T07:48:22Z</time>
      </trkpt>
      <trkpt lat="45.06324" lon="6.22966">
        <ele>2293.6</ele>
        <time>2024-08-10T07:48:23Z</time>
      </trkpt>
      <trkpt lat="45.06324" lon="6.22966">
        <ele>2293.6</ele>
        <time>2024-08-10T07:48:24Z</time>
      </trkpt>
      <trkpt lat="45.06325" lon="6.22969">
        <ele>2293.8</ele>
        <time>2024-08-10T07:48:25Z</time>
      </trkpt>
      <trkpt lat="45.06325" lon="6.22969">
        <ele>2294.4</ele>
        <time>2024-08-10T07:48:26Z</time>
      </trkpt>
      <trkpt lat="45.06325" lon="6.22972">
        <ele>2294.8</ele>
        <time>2024-08-10T07:48:27Z</time>
      </trkpt>
      <trkpt lat="45.06325" lon="6.22972">
        <ele>2294.8</ele>
        <time>2024-08-10T07:48:28Z</time>
      </trkpt>
      <trkpt lat="45.06325" lon="6.22975">
        <ele>2294.8</ele>
        <time>2024-08-10T07:48:29Z</time>
      </trkpt>
      <trkpt lat="45.06325" lon="6.22975">
        <ele>2294.6</ele>
        <time>2024-08-10T07:48:30Z</time>
      </trkpt>
      <trkpt lat="45.06325" lon="6.22978">
        <ele>2294.6</ele>
        <time>2024-08-10T07:48:31Z</time>
      </trkpt>
      <trkpt lat="45.06325" lon="6.22978">
        <ele>2295</ele>
        <time>2024-08-10T07:48:32Z</time>
      </trkpt>
      <trkpt lat="45.06326" lon="6.22981">
        <ele>2295.4</ele>
        <time>2024-08-10T07:48:33Z</time>
      </trkpt>
      <trkpt lat="45.06326" lon="6.22981">
        <ele>2295.4</ele>
        <time>2024-08-10T07:48:34Z</time>
      </trkpt>
      <trkpt lat="45.06326" lon="6.22984">
        <ele>2295.4</ele>
        <time>2024-08-10T07:48:35Z</time>
      </trkpt>
      <trkpt lat="45.06326" lon="6.22984">
        <ele>2295.6</ele>
        <time>2024-08-10T07:48:36Z</time>
      </trkpt>
      <trkpt lat="45.06326" lon="6.22988">
        <ele>2295.8</ele>
        <time>2024-08-10T07:48:37Z</time>
      </trkpt>
      <trkpt lat="45.06326" lon="6.22988">
        <ele>2295.8</ele>
        <time>2024-08-10T07:48:38Z</time>
      </trkpt>
      <trkpt lat="45.06326" lon="6.22988">
        <ele>2295.8</ele>
        <time>2024-08-10T07:48:39Z</time>
      </trkpt>
      <trkpt lat="45.06325" lon="6.22991">
        <ele>2295.8</ele>
        <time>2024-08-10T07:48:40Z</time>
      </trkpt>
      <trkpt lat="45.06325" lon="6.22991">
        <ele>2296</ele>
        <time>2024-08-10T07:48:41Z</time>
      </trkpt>
      <trkpt lat="45.06326" lon="6.22994">
        <ele>2296</ele>
        <time>2024-08-10T07:48:42Z</time>
      </trkpt>
      <trkpt lat="45.06326" lon="6.22994">
        <ele>2296.8</ele>
        <time>2024-08-10T07:48:43Z</time>
      </trkpt>
      <trkpt lat="45.06326" lon="6.22997">
        <ele>2297</ele>
        <time>2024-08-10T07:48:44Z</time>
      </trkpt>
      <trkpt lat="45.06326" lon="6.22997">
        <ele>2297</ele>
        <time>2024-08-10T07:48:45Z</time>
      </trkpt>
      <trkpt lat="45.06327" lon="6.23">
        <ele>2297.2</ele>
        <time>2024-08-10T07:48:46Z</time>
      </trkpt>
      <trkpt lat="45.06327" lon="6.23">
        <ele>2297.4</ele>
        <time>2024-08-10T07:48:47Z</time>
      </trkpt>
      <trkpt lat="45.06328" lon="6.23003">
        <ele>2297.6</ele>
        <time>2024-08-10T07:48:48Z</time>
      </trkpt>
      <trkpt lat="45.06328" lon="6.23003">
        <ele>2297.8</ele>
        <time>2024-08-10T07:48:49Z</time>
      </trkpt>
      <trkpt lat="45.06329" lon="6.23005">
        <ele>2298</ele>
        <time>2024-08-10T07:48:50Z</time>
      </trkpt>
      <trkpt lat="45.06329" lon="6.23005">
        <ele>2298</ele>
        <time>2024-08-10T07:48:51Z</time>
      </trkpt>
      <trkpt lat="45.06329" lon="6.23009">
        <ele>2298.2</ele>
        <time>2024-08-10T07:48:52Z</time>
      </trkpt>
      <trkpt lat="45.06329" lon="6.23009">
        <ele>2298.2</ele>
        <time>2024-08-10T07:48:53Z</time>
      </trkpt>
      <trkpt lat="45.06329" lon="6.23011">
        <ele>2298.2</ele>
        <time>2024-08-10T07:48:54Z</time>
      </trkpt>
      <trkpt lat="45.06329" lon="6.23011">
        <ele>2298.4</ele>
        <time>2024-08-10T07:48:55Z</time>
      </trkpt>
      <trkpt lat="45.06329" lon="6.23015">
        <ele>2298.4</ele>
        <time>2024-08-10T07:48:56Z</time>
      </trkpt>
      <trkpt lat="45.06329" lon="6.23015">
        <ele>2298.4</ele>
        <time>2024-08-10T07:48:57Z</time>
      </trkpt>
      <trkpt lat="45.06329" lon="6.23018">
        <ele>2298.4</ele>
        <time>2024-08-10T07:48:58Z</time>
      </trkpt>
      <trkpt lat="45.06329" lon="6.23018">
        <ele>2298.4</ele>
        <time>2024-08-10T07:48:59Z</time>
      </trkpt>
      <trkpt lat="45.06329" lon="6.2302">
        <ele>2298.8</ele>
        <time>2024-08-10T07:49:00Z</time>
      </trkpt>
      <trkpt lat="45.06329" lon="6.2302">
        <ele>2299.4</ele>
        <time>2024-08-10T07:49:01Z</time>
      </trkpt>
      <trkpt lat="45.06329" lon="6.23024">
        <ele>2299.6</ele>
        <time>2024-08-10T07:49:02Z</time>
      </trkpt>
      <trkpt lat="45.06329" lon="6.23024">
        <ele>2299.4</ele>
        <time>2024-08-10T07:49:03Z</time>
      </trkpt>
      <trkpt lat="45.06329" lon="6.23027">
        <ele>2299.4</ele>
        <time>2024-08-10T07:49:04Z</time>
      </trkpt>
      <trkpt lat="45.06329" lon="6.23027">
        <ele>2299.4</ele>
        <time>2024-08-10T07:49:05Z</time>
      </trkpt>
      <trkpt lat="45.06328" lon="6.2303">
        <ele>2299.6</ele>
        <time>2024-08-10T07:49:06Z</time>
      </trkpt>
      <trkpt lat="45.06328" lon="6.2303">
        <ele>2299.6</ele>
        <time>2024-08-10T07:49:07Z</time>
      </trkpt>
      <trkpt lat="45.06327" lon="6.23033">
        <ele>2299.8</ele>
        <time>2024-08-10T07:49:08Z</time>
      </trkpt>
      <trkpt lat="45.06327" lon="6.23033">
        <ele>2299.8</ele>
        <time>2024-08-10T07:49:09Z</time>
      </trkpt>
      <trkpt lat="45.06326" lon="6.23036">
        <ele>2300.2</ele>
        <time>2024-08-10T07:49:10Z</time>
      </trkpt>
      <trkpt lat="45.06326" lon="6.23036">
        <ele>2300.2</ele>
        <time>2024-08-10T07:49:11Z</time>
      </trkpt>
      <trkpt lat="45.06325" lon="6.23039">
        <ele>2300.2</ele>
        <time>2024-08-10T07:49:12Z</time>
      </trkpt>
      <trkpt lat="45.06325" lon="6.23039">
        <ele>2300.4</ele>
        <time>2024-08-10T07:49:13Z</time>
      </trkpt>
      <trkpt lat="45.06324" lon="6.23041">
        <ele>2300.4</ele>
        <time>2024-08-10T07:49:14Z</time>
      </trkpt>
      <trkpt lat="45.06324" lon="6.23041">
        <ele>2300.4</ele>
        <time>2024-08-10T07:49:15Z</time>
      </trkpt>
      <trkpt lat="45.06324" lon="6.23044">
        <ele>2300.4</ele>
        <time>2024-08-10T07:49:16Z</time>
      </trkpt>
      <trkpt lat="45.06324" lon="6.23044">
        <ele>2300.8</ele>
        <time>2024-08-10T07:49:17Z</time>
      </trkpt>
      <trkpt lat="45.06323" lon="6.23048">
        <ele>2301</ele>
        <time>2024-08-10T07:49:18Z</time>
      </trkpt>
      <trkpt lat="45.06323" lon="6.23048">
        <ele>2301.4</ele>
        <time>2024-08-10T07:49:19Z</time>
      </trkpt>
      <trkpt lat="45.06323" lon="6.23048">
        <ele>2301.4</ele>
        <time>2024-08-10T07:49:20Z</time>
      </trkpt>
      <trkpt lat="45.06323" lon="6.23051">
        <ele>2301.4</ele>
        <time>2024-08-10T07:49:21Z</time>
      </trkpt>
      <trkpt lat="45.06323" lon="6.23051">
        <ele>2301.6</ele>
        <time>2024-08-10T07:49:22Z</time>
      </trkpt>
      <trkpt lat="45.06323" lon="6.23055">
        <ele>2302.2</ele>
        <time>2024-08-10T07:49:23Z</time>
      </trkpt>
      <trkpt lat="45.06323" lon="6.23055">
        <ele>2302.2</ele>
        <time>2024-08-10T07:49:24Z</time>
      </trkpt>
      <trkpt lat="45.06323" lon="6.23058">
        <ele>2302.8</ele>
        <time>2024-08-10T07:49:25Z</time>
      </trkpt>
      <trkpt lat="45.06323" lon="6.23058">
        <ele>2302.8</ele>
        <time>2024-08-10T07:49:26Z</time>
      </trkpt>
      <trkpt lat="45.06323" lon="6.23061">
        <ele>2302.6</ele>
        <time>2024-08-10T07:49:27Z</time>
      </trkpt>
      <trkpt lat="45.06323" lon="6.23061">
        <ele>2302.6</ele>
        <time>2024-08-10T07:49:28Z</time>
      </trkpt>
      <trkpt lat="45.06322" lon="6.23064">
        <ele>2302.4</ele>
        <time>2024-08-10T07:49:29Z</time>
      </trkpt>
      <trkpt lat="45.06322" lon="6.23064">
        <ele>2302.6</ele>
        <time>2024-08-10T07:49:30Z</time>
      </trkpt>
      <trkpt lat="45.06321" lon="6.23067">
        <ele>2303.2</ele>
        <time>2024-08-10T07:49:31Z</time>
      </trkpt>
      <trkpt lat="45.06321" lon="6.23067">
        <ele>2303.2</ele>
        <time>2024-08-10T07:49:32Z</time>
      </trkpt>
      <trkpt lat="45.06321" lon="6.23069">
        <ele>2303.2</ele>
        <time>2024-08-10T07:49:33Z</time>
      </trkpt>
      <trkpt lat="45.06321" lon="6.23069">
        <ele>2303.4</ele>
        <time>2024-08-10T07:49:34Z</time>
      </trkpt>
      <trkpt lat="45.06321" lon="6.23072">
        <ele>2303.4</ele>
        <time>2024-08-10T07:49:35Z</time>
      </trkpt>
      <trkpt lat="45.06321" lon="6.23072">
        <ele>2303.8</ele>
        <time>2024-08-10T07:49:36Z</time>
      </trkpt>
      <trkpt lat="45.06321" lon="6.23075">
        <ele>2303.8</ele>
        <time>2024-08-10T07:49:37Z</time>
      </trkpt>
      <trkpt lat="45.06321" lon="6.23075">
        <ele>2304</ele>
        <time>2024-08-10T07:49:38Z</time>
      </trkpt>
      <trkpt lat="45.06321" lon="6.23078">
        <ele>2304.2</ele>
        <time>2024-08-10T07:49:39Z</time>
      </trkpt>
      <trkpt lat="45.06321" lon="6.23078">
        <ele>2304.4</ele>
        <time>2024-08-10T07:49:40Z</time>
      </trkpt>
      <trkpt lat="45.06321" lon="6.23082">
        <ele>2304.4</ele>
        <time>2024-08-10T07:49:41Z</time>
      </trkpt>
      <trkpt lat="45.06321" lon="6.23082">
        <ele>2304.6</ele>
        <time>2024-08-10T07:49:42Z</time>
      </trkpt>
      <trkpt lat="45.0632" lon="6.23084">
        <ele>2304.6</ele>
        <time>2024-08-10T07:49:43Z</time>
      </trkpt>
      <trkpt lat="45.0632" lon="6.23084">
        <ele>2304.6</ele>
        <time>2024-08-10T07:49:44Z</time>
      </trkpt>
      <trkpt lat="45.06319" lon="6.23087">
        <ele>2304.6</ele>
        <time>2024-08-10T07:49:45Z</time>
      </trkpt>
      <trkpt lat="45.06319" lon="6.23087">
        <ele>2305.2</ele>
        <time>2024-08-10T07:49:46Z</time>
      </trkpt>
      <trkpt lat="45.06319" lon="6.23087">
        <ele>2305.4</ele>
        <time>2024-08-10T07:49:47Z</time>
      </trkpt>
      <trkpt lat="45.06318" lon="6.2309">
        <ele>2305.4</ele>
        <time>2024-08-10T07:49:48Z</time>
      </trkpt>
      <trkpt lat="45.06318" lon="6.2309">
        <ele>2305.8</ele>
        <time>2024-08-10T07:49:49Z</time>
      </trkpt>
      <trkpt lat="45.06318" lon="6.2309">
        <ele>2305.8</ele>
        <time>2024-08-10T07:49:50Z</time>
      </trkpt>
      <trkpt lat="45.06316" lon="6.23093">
        <ele>2305.8</ele>
        <time>2024-08-10T07:49:51Z</time>
      </trkpt>
      <trkpt lat="45.06316" lon="6.23093">
        <ele>2305.8</ele>
        <time>2024-08-10T07:49:52Z</time>
      </trkpt>
      <trkpt lat="45.06315" lon="6.23095">
        <ele>2306</ele>
        <time>2024-08-10T07:49:53Z</time>
      </trkpt>
      <trkpt lat="45.06315" lon="6.23095">
        <ele>2306.2</ele>
        <time>2024-08-10T07:49:54Z</time>
      </trkpt>
      <trkpt lat="45.06313" lon="6.23098">
        <ele>2306.2</ele>
        <time>2024-08-10T07:49:55Z</time>
      </trkpt>
      <trkpt lat="45.06313" lon="6.23098">
        <ele>2306.4</ele>
        <time>2024-08-10T07:49:56Z</time>
      </trkpt>
      <trkpt lat="45.06312" lon="6.23101">
        <ele>2306.4</ele>
        <time>2024-08-10T07:49:57Z</time>
      </trkpt>
      <trkpt lat="45.06312" lon="6.23101">
        <ele>2306.6</ele>
        <time>2024-08-10T07:49:58Z</time>
      </trkpt>
      <trkpt lat="45.06311" lon="6.23104">
        <ele>2306.6</ele>
        <time>2024-08-10T07:49:59Z</time>
      </trkpt>
      <trkpt lat="45.06311" lon="6.23104">
        <ele>2306.8</ele>
        <time>2024-08-10T07:50:00Z</time>
      </trkpt>
      <trkpt lat="45.0631" lon="6.23107">
        <ele>2306.8</ele>
        <time>2024-08-10T07:50:01Z</time>
      </trkpt>
      <trkpt lat="45.0631" lon="6.23107">
        <ele>2306.8</ele>
        <time>2024-08-10T07:50:02Z</time>
      </trkpt>
      <trkpt lat="45.06309" lon="6.23109">
        <ele>2306.8</ele>
        <time>2024-08-10T07:50:03Z</time>
      </trkpt>
      <trkpt lat="45.06309" lon="6.23109">
        <ele>2306.8</ele>
        <time>2024-08-10T07:50:04Z</time>
      </trkpt>
      <trkpt lat="45.06308" lon="6.23112">
        <ele>2306.8</ele>
        <time>2024-08-10T07:50:05Z</time>
      </trkpt>
      <trkpt lat="45.06308" lon="6.23112">
        <ele>2307.4</ele>
        <time>2024-08-10T07:50:06Z</time>
      </trkpt>
      <trkpt lat="45.06307" lon="6.23116">
        <ele>2307.6</ele>
        <time>2024-08-10T07:50:07Z</time>
      </trkpt>
      <trkpt lat="45.06307" lon="6.23116">
        <ele>2307.6</ele>
        <time>2024-08-10T07:50:08Z</time>
      </trkpt>
      <trkpt lat="45.06307" lon="6.2312">
        <ele>2307.8</ele>
        <time>2024-08-10T07:50:09Z</time>
      </trkpt>
      <trkpt lat="45.06307" lon="6.2312">
        <ele>2307.8</ele>
        <time>2024-08-10T07:50:10Z</time>
      </trkpt>
      <trkpt lat="45.06307" lon="6.23123">
        <ele>2307.8</ele>
        <time>2024-08-10T07:50:11Z</time>
      </trkpt>
      <trkpt lat="45.06307" lon="6.23123">
        <ele>2307.8</ele>
        <time>2024-08-10T07:50:12Z</time>
      </trkpt>
      <trkpt lat="45.06307" lon="6.23123">
        <ele>2307.8</ele>
        <time>2024-08-10T07:50:13Z</time>
      </trkpt>
      <trkpt lat="45.06307" lon="6.23126">
        <ele>2307.8</ele>
        <time>2024-08-10T07:50:14Z</time>
      </trkpt>
      <trkpt lat="45.06307" lon="6.23126">
        <ele>2307.8</ele>
        <time>2024-08-10T07:50:15Z</time>
      </trkpt>
      <trkpt lat="45.06307" lon="6.23126">
        <ele>2307.8</ele>
        <time>2024-08-10T07:50:16Z</time>
      </trkpt>
      <trkpt lat="45.06307" lon="6.2313">
        <ele>2308</ele>
        <time>2024-08-10T07:50:17Z</time>
      </trkpt>
      <trkpt lat="45.06307" lon="6.2313">
        <ele>2308.2</ele>
        <time>2024-08-10T07:50:18Z</time>
      </trkpt>
      <trkpt lat="45.06306" lon="6.23133">
        <ele>2308.4</ele>
        <time>2024-08-10T07:50:19Z</time>
      </trkpt>
      <trkpt lat="45.06306" lon="6.23133">
        <ele>2308.4</ele>
        <time>2024-08-10T07:50:20Z</time>
      </trkpt>
      <trkpt lat="45.06306" lon="6.23137">
        <ele>2308.4</ele>
        <time>2024-08-10T07:50:21Z</time>
      </trkpt>
      <trkpt lat="45.06306" lon="6.23137">
        <ele>2308.4</ele>
        <time>2024-08-10T07:50:22Z</time>
      </trkpt>
      <trkpt lat="45.06305" lon="6.2314">
        <ele>2308.6</ele>
        <time>2024-08-10T07:50:23Z</time>
      </trkpt>
      <trkpt lat="45.06305" lon="6.2314">
        <ele>2308.8</ele>
        <time>2024-08-10T07:50:24Z</time>
      </trkpt>
      <trkpt lat="45.06305" lon="6.23143">
        <ele>2308.8</ele>
        <time>2024-08-10T07:50:25Z</time>
      </trkpt>
      <trkpt lat="45.06305" lon="6.23143">
        <ele>2309.2</ele>
        <time>2024-08-10T07:50:26Z</time>
      </trkpt>
      <trkpt lat="45.06305" lon="6.23146">
        <ele>2309.2</ele>
        <time>2024-08-10T07:50:27Z</time>
      </trkpt>
      <trkpt lat="45.06305" lon="6.23146">
        <ele>2309.6</ele>
        <time>2024-08-10T07:50:28Z</time>
      </trkpt>
      <trkpt lat="45.06304" lon="6.23149">
        <ele>2310</ele>
        <time>2024-08-10T07:50:29Z</time>
      </trkpt>
      <trkpt lat="45.06304" lon="6.23149">
        <ele>2310.2</ele>
        <time>2024-08-10T07:50:30Z</time>
      </trkpt>
      <trkpt lat="45.06304" lon="6.23151">
        <ele>2310.2</ele>
        <time>2024-08-10T07:50:31Z</time>
      </trkpt>
      <trkpt lat="45.06304" lon="6.23151">
        <ele>2310</ele>
        <time>2024-08-10T07:50:32Z</time>
      </trkpt>
      <trkpt lat="45.06303" lon="6.23155">
        <ele>2310.2</ele>
        <time>2024-08-10T07:50:33Z</time>
      </trkpt>
      <trkpt lat="45.06303" lon="6.23155">
        <ele>2310.2</ele>
        <time>2024-08-10T07:50:34Z</time>
      </trkpt>
      <trkpt lat="45.06303" lon="6.23157">
        <ele>2310.4</ele>
        <time>2024-08-10T07:50:35Z</time>
      </trkpt>
      <trkpt lat="45.06303" lon="6.23157">
        <ele>2310.6</ele>
        <time>2024-08-10T07:50:36Z</time>
      </trkpt>
      <trkpt lat="45.06301" lon="6.2316">
        <ele>2310.6</ele>
        <time>2024-08-10T07:50:37Z</time>
      </trkpt>
      <trkpt lat="45.06301" lon="6.2316">
        <ele>2310.6</ele>
        <time>2024-08-10T07:50:38Z</time>
      </trkpt>
      <trkpt lat="45.06301" lon="6.23163">
        <ele>2310.8</ele>
        <time>2024-08-10T07:50:39Z</time>
      </trkpt>
      <trkpt lat="45.06301" lon="6.23163">
        <ele>2311.2</ele>
        <time>2024-08-10T07:50:40Z</time>
      </trkpt>
      <trkpt lat="45.063" lon="6.23166">
        <ele>2311.6</ele>
        <time>2024-08-10T07:50:41Z</time>
      </trkpt>
      <trkpt lat="45.063" lon="6.23166">
        <ele>2311.6</ele>
        <time>2024-08-10T07:50:42Z</time>
      </trkpt>
      <trkpt lat="45.063" lon="6.23166">
        <ele>2311.6</ele>
        <time>2024-08-10T07:50:43Z</time>
      </trkpt>
      <trkpt lat="45.06298" lon="6.2317">
        <ele>2311.6</ele>
        <time>2024-08-10T07:50:44Z</time>
      </trkpt>
      <trkpt lat="45.06298" lon="6.2317">
        <ele>2311.6</ele>
        <time>2024-08-10T07:50:45Z</time>
      </trkpt>
      <trkpt lat="45.06297" lon="6.23172">
        <ele>2311.8</ele>
        <time>2024-08-10T07:50:46Z</time>
      </trkpt>
      <trkpt lat="45.06297" lon="6.23172">
        <ele>2311.8</ele>
        <time>2024-08-10T07:50:47Z</time>
      </trkpt>
      <trkpt lat="45.06296" lon="6.23175">
        <ele>2312</ele>
        <time>2024-08-10T07:50:48Z</time>
      </trkpt>
      <trkpt lat="45.06296" lon="6.23175">
        <ele>2312</ele>
        <time>2024-08-10T07:50:49Z</time>
      </trkpt>
      <trkpt lat="45.06295" lon="6.23179">
        <ele>2312.2</ele>
        <time>2024-08-10T07:50:50Z</time>
      </trkpt>
      <trkpt lat="45.06295" lon="6.23179">
        <ele>2313</ele>
        <time>2024-08-10T07:50:51Z</time>
      </trkpt>
      <trkpt lat="45.06294" lon="6.23182">
        <ele>2313.4</ele>
        <time>2024-08-10T07:50:52Z</time>
      </trkpt>
      <trkpt lat="45.06294" lon="6.23182">
        <ele>2313.4</ele>
        <time>2024-08-10T07:50:53Z</time>
      </trkpt>
      <trkpt lat="45.06293" lon="6.23186">
        <ele>2313</ele>
        <time>2024-08-10T07:50:54Z</time>
      </trkpt>
      <trkpt lat="45.06293" lon="6.23186">
        <ele>2313</ele>
        <time>2024-08-10T07:50:55Z</time>
      </trkpt>
      <trkpt lat="45.06292" lon="6.23189">
        <ele>2312.8</ele>
        <time>2024-08-10T07:50:56Z</time>
      </trkpt>
      <trkpt lat="45.06292" lon="6.23189">
        <ele>2312.6</ele>
        <time>2024-08-10T07:50:57Z</time>
      </trkpt>
      <trkpt lat="45.06291" lon="6.23193">
        <ele>2312.6</ele>
        <time>2024-08-10T07:50:58Z</time>
      </trkpt>
      <trkpt lat="45.06291" lon="6.23193">
        <ele>2312.4</ele>
        <time>2024-08-10T07:50:59Z</time>
      </trkpt>
      <trkpt lat="45.0629" lon="6.23195">
        <ele>2312.4</ele>
        <time>2024-08-10T07:51:00Z</time>
      </trkpt>
      <trkpt lat="45.0629" lon="6.23195">
        <ele>2312.4</ele>
        <time>2024-08-10T07:51:01Z</time>
      </trkpt>
      <trkpt lat="45.06288" lon="6.23198">
        <ele>2312.4</ele>
        <time>2024-08-10T07:51:02Z</time>
      </trkpt>
      <trkpt lat="45.06288" lon="6.23198">
        <ele>2312.2</ele>
        <time>2024-08-10T07:51:03Z</time>
      </trkpt>
      <trkpt lat="45.06287" lon="6.232">
        <ele>2312.2</ele>
        <time>2024-08-10T07:51:04Z</time>
      </trkpt>
      <trkpt lat="45.06287" lon="6.232">
        <ele>2312.2</ele>
        <time>2024-08-10T07:51:05Z</time>
      </trkpt>
      <trkpt lat="45.06286" lon="6.23203">
        <ele>2312.4</ele>
        <time>2024-08-10T07:51:06Z</time>
      </trkpt>
      <trkpt lat="45.06286" lon="6.23203">
        <ele>2312.8</ele>
        <time>2024-08-10T07:51:07Z</time>
      </trkpt>
      <trkpt lat="45.06287" lon="6.23206">
        <ele>2312.8</ele>
        <time>2024-08-10T07:51:08Z</time>
      </trkpt>
      <trkpt lat="45.06287" lon="6.23206">
        <ele>2313</ele>
        <time>2024-08-10T07:51:09Z</time>
      </trkpt>
      <trkpt lat="45.06286" lon="6.23209">
        <ele>2313</ele>
        <time>2024-08-10T07:51:10Z</time>
      </trkpt>
      <trkpt lat="45.06286" lon="6.23209">
        <ele>2313</ele>
        <time>2024-08-10T07:51:11Z</time>
      </trkpt>
      <trkpt lat="45.06285" lon="6.23211">
        <ele>2312.6</ele>
        <time>2024-08-10T07:51:12Z</time>
      </trkpt>
      <trkpt lat="45.06285" lon="6.23211">
        <ele>2312.6</ele>
        <time>2024-08-10T07:51:13Z</time>
      </trkpt>
      <trkpt lat="45.06283" lon="6.23214">
        <ele>2312.6</ele>
        <time>2024-08-10T07:51:14Z</time>
      </trkpt>
      <trkpt lat="45.06283" lon="6.23214">
        <ele>2312.6</ele>
        <time>2024-08-10T07:51:15Z</time>
      </trkpt>
      <trkpt lat="45.06282" lon="6.23217">
        <ele>2312.8</ele>
        <time>2024-08-10T07:51:16Z</time>
      </trkpt>
      <trkpt lat="45.06282" lon="6.23217">
        <ele>2312.8</ele>
        <time>2024-08-10T07:51:17Z</time>
      </trkpt>
      <trkpt lat="45.06281" lon="6.2322">
        <ele>2312.8</ele>
        <time>2024-08-10T07:51:18Z</time>
      </trkpt>
      <trkpt lat="45.06281" lon="6.2322">
        <ele>2312.8</ele>
        <time>2024-08-10T07:51:19Z</time>
      </trkpt>
      <trkpt lat="45.06281" lon="6.23224">
        <ele>2313</ele>
        <time>2024-08-10T07:51:20Z</time>
      </trkpt>
      <trkpt lat="45.06281" lon="6.23224">
        <ele>2313.4</ele>
        <time>2024-08-10T07:51:21Z</time>
      </trkpt>
      <trkpt lat="45.06281" lon="6.23226">
        <ele>2313.4</ele>
        <time>2024-08-10T07:51:22Z</time>
      </trkpt>
      <trkpt lat="45.06281" lon="6.23226">
        <ele>2313.6</ele>
        <time>2024-08-10T07:51:23Z</time>
      </trkpt>
      <trkpt lat="45.06281" lon="6.23229">
        <ele>2313.8</ele>
        <time>2024-08-10T07:51:24Z</time>
      </trkpt>
      <trkpt lat="45.06281" lon="6.23229">
        <ele>2314.2</ele>
        <time>2024-08-10T07:51:25Z</time>
      </trkpt>
      <trkpt lat="45.0628" lon="6.23232">
        <ele>2314.2</ele>
        <time>2024-08-10T07:51:26Z</time>
      </trkpt>
      <trkpt lat="45.0628" lon="6.23232">
        <ele>2314.2</ele>
        <time>2024-08-10T07:51:27Z</time>
      </trkpt>
      <trkpt lat="45.0628" lon="6.23235">
        <ele>2314.2</ele>
        <time>2024-08-10T07:51:28Z</time>
      </trkpt>
      <trkpt lat="45.0628" lon="6.23235">
        <ele>2314.2</ele>
        <time>2024-08-10T07:51:29Z</time>
      </trkpt>
      <trkpt lat="45.0628" lon="6.23235">
        <ele>2314.2</ele>
        <time>2024-08-10T07:51:30Z</time>
      </trkpt>
      <trkpt lat="45.0628" lon="6.23239">
        <ele>2314.4</ele>
        <time>2024-08-10T07:51:31Z</time>
      </trkpt>
      <trkpt lat="45.0628" lon="6.23239">
        <ele>2314.4</ele>
        <time>2024-08-10T07:51:32Z</time>
      </trkpt>
      <trkpt lat="45.06279" lon="6.23241">
        <ele>2314.6</ele>
        <time>2024-08-10T07:51:33Z</time>
      </trkpt>
      <trkpt lat="45.06279" lon="6.23241">
        <ele>2315</ele>
        <time>2024-08-10T07:51:34Z</time>
      </trkpt>
      <trkpt lat="45.06279" lon="6.23241">
        <ele>2315.2</ele>
        <time>2024-08-10T07:51:35Z</time>
      </trkpt>
      <trkpt lat="45.06278" lon="6.23245">
        <ele>2315.2</ele>
        <time>2024-08-10T07:51:36Z</time>
      </trkpt>
      <trkpt lat="45.06278" lon="6.23245">
        <ele>2315.4</ele>
        <time>2024-08-10T07:51:37Z</time>
      </trkpt>
      <trkpt lat="45.06278" lon="6.23245">
        <ele>2315.6</ele>
        <time>2024-08-10T07:51:38Z</time>
      </trkpt>
      <trkpt lat="45.06278" lon="6.23249">
        <ele>2315.6</ele>
        <time>2024-08-10T07:51:39Z</time>
      </trkpt>
      <trkpt lat="45.06278" lon="6.23249">
        <ele>2316</ele>
        <time>2024-08-10T07:51:40Z</time>
      </trkpt>
      <trkpt lat="45.06278" lon="6.23252">
        <ele>2316.4</ele>
        <time>2024-08-10T07:51:41Z</time>
      </trkpt>
      <trkpt lat="45.06278" lon="6.23252">
        <ele>2316.6</ele>
        <time>2024-08-10T07:51:42Z</time>
      </trkpt>
      <trkpt lat="45.06278" lon="6.23252">
        <ele>2316.8</ele>
        <time>2024-08-10T07:51:43Z</time>
      </trkpt>
      <trkpt lat="45.06278" lon="6.23256">
        <ele>2316.8</ele>
        <time>2024-08-10T07:51:44Z</time>
      </trkpt>
      <trkpt lat="45.06278" lon="6.23256">
        <ele>2316.6</ele>
        <time>2024-08-10T07:51:45Z</time>
      </trkpt>
      <trkpt lat="45.06279" lon="6.23259">
        <ele>2316.6</ele>
        <time>2024-08-10T07:51:46Z</time>
      </trkpt>
      <trkpt lat="45.06279" lon="6.23259">
        <ele>2316.6</ele>
        <time>2024-08-10T07:51:47Z</time>
      </trkpt>
      <trkpt lat="45.06281" lon="6.23262">
        <ele>2317</ele>
        <time>2024-08-10T07:51:48Z</time>
      </trkpt>
      <trkpt lat="45.06281" lon="6.23262">
        <ele>2317</ele>
        <time>2024-08-10T07:51:49Z</time>
      </trkpt>
      <trkpt lat="45.06282" lon="6.23264">
        <ele>2317</ele>
        <time>2024-08-10T07:51:50Z</time>
      </trkpt>
      <trkpt lat="45.06282" lon="6.23264">
        <ele>2317</ele>
        <time>2024-08-10T07:51:51Z</time>
      </trkpt>
      <trkpt lat="45.06282" lon="6.23267">
        <ele>2316.8</ele>
        <time>2024-08-10T07:51:52Z</time>
      </trkpt>
      <trkpt lat="45.06282" lon="6.23267">
        <ele>2316.8</ele>
        <time>2024-08-10T07:51:53Z</time>
      </trkpt>
      <trkpt lat="45.06283" lon="6.23271">
        <ele>2317.2</ele>
        <time>2024-08-10T07:51:54Z</time>
      </trkpt>
      <trkpt lat="45.06283" lon="6.23271">
        <ele>2317.2</ele>
        <time>2024-08-10T07:51:55Z</time>
      </trkpt>
      <trkpt lat="45.06284" lon="6.23274">
        <ele>2317.2</ele>
        <time>2024-08-10T07:51:56Z</time>
      </trkpt>
      <trkpt lat="45.06284" lon="6.23274">
        <ele>2317.2</ele>
        <time>2024-08-10T07:51:57Z</time>
      </trkpt>
      <trkpt lat="45.06285" lon="6.23278">
        <ele>2317</ele>
        <time>2024-08-10T07:51:58Z</time>
      </trkpt>
      <trkpt lat="45.06285" lon="6.23278">
        <ele>2317</ele>
        <time>2024-08-10T07:51:59Z</time>
      </trkpt>
      <trkpt lat="45.06287" lon="6.23281">
        <ele>2317</ele>
        <time>2024-08-10T07:52:00Z</time>
      </trkpt>
      <trkpt lat="45.06287" lon="6.23281">
        <ele>2317</ele>
        <time>2024-08-10T07:52:01Z</time>
      </trkpt>
      <trkpt lat="45.06288" lon="6.23285">
        <ele>2316.8</ele>
        <time>2024-08-10T07:52:02Z</time>
      </trkpt>
      <trkpt lat="45.06288" lon="6.23285">
        <ele>2316.2</ele>
        <time>2024-08-10T07:52:03Z</time>
      </trkpt>
      <trkpt lat="45.06289" lon="6.23288">
        <ele>2316.2</ele>
        <time>2024-08-10T07:52:04Z</time>
      </trkpt>
      <trkpt lat="45.06289" lon="6.23288">
        <ele>2316</ele>
        <time>2024-08-10T07:52:05Z</time>
      </trkpt>
      <trkpt lat="45.0629" lon="6.23292">
        <ele>2316</ele>
        <time>2024-08-10T07:52:06Z</time>
      </trkpt>
      <trkpt lat="45.0629" lon="6.23292">
        <ele>2315.8</ele>
        <time>2024-08-10T07:52:07Z</time>
      </trkpt>
      <trkpt lat="45.06291" lon="6.23296">
        <ele>2315.6</ele>
        <time>2024-08-10T07:52:08Z</time>
      </trkpt>
      <trkpt lat="45.06291" lon="6.23296">
        <ele>2315.4</ele>
        <time>2024-08-10T07:52:09Z</time>
      </trkpt>
      <trkpt lat="45.06291" lon="6.233">
        <ele>2315.2</ele>
        <time>2024-08-10T07:52:10Z</time>
      </trkpt>
      <trkpt lat="45.06291" lon="6.233">
        <ele>2315</ele>
        <time>2024-08-10T07:52:11Z</time>
      </trkpt>
      <trkpt lat="45.06291" lon="6.23304">
        <ele>2314.8</ele>
        <time>2024-08-10T07:52:12Z</time>
      </trkpt>
      <trkpt lat="45.06291" lon="6.23304">
        <ele>2314.8</ele>
        <time>2024-08-10T07:52:13Z</time>
      </trkpt>
      <trkpt lat="45.06291" lon="6.23308">
        <ele>2314.8</ele>
        <time>2024-08-10T07:52:14Z</time>
      </trkpt>
      <trkpt lat="45.06291" lon="6.23308">
        <ele>2314.6</ele>
        <time>2024-08-10T07:52:15Z</time>
      </trkpt>
      <trkpt lat="45.06292" lon="6.23311">
        <ele>2314.6</ele>
        <time>2024-08-10T07:52:16Z</time>
      </trkpt>
      <trkpt lat="45.06292" lon="6.23311">
        <ele>2314.6</ele>
        <time>2024-08-10T07:52:17Z</time>
      </trkpt>
      <trkpt lat="45.06293" lon="6.23315">
        <ele>2314.6</ele>
        <time>2024-08-10T07:52:18Z</time>
      </trkpt>
      <trkpt lat="45.06293" lon="6.23315">
        <ele>2315</ele>
        <time>2024-08-10T07:52:19Z</time>
      </trkpt>
      <trkpt lat="45.06293" lon="6.23318">
        <ele>2315</ele>
        <time>2024-08-10T07:52:20Z</time>
      </trkpt>
      <trkpt lat="45.06293" lon="6.23318">
        <ele>2314.6</ele>
        <time>2024-08-10T07:52:21Z</time>
      </trkpt>
      <trkpt lat="45.06295" lon="6.23322">
        <ele>2314.6</ele>
        <time>2024-08-10T07:52:22Z</time>
      </trkpt>
      <trkpt lat="45.06295" lon="6.23322">
        <ele>2314.6</ele>
        <time>2024-08-10T07:52:23Z</time>
      </trkpt>
      <trkpt lat="45.06295" lon="6.23325">
        <ele>2314.6</ele>
        <time>2024-08-10T07:52:24Z</time>
      </trkpt>
      <trkpt lat="45.06295" lon="6.23325">
        <ele>2314.6</ele>
        <time>2024-08-10T07:52:25Z</time>
      </trkpt>
      <trkpt lat="45.06297" lon="6.23329">
        <ele>2314.6</ele>
        <time>2024-08-10T07:52:26Z</time>
      </trkpt>
      <trkpt lat="45.06297" lon="6.23329">
        <ele>2314.6</ele>
        <time>2024-08-10T07:52:27Z</time>
      </trkpt>
      <trkpt lat="45.06298" lon="6.23332">
        <ele>2314.6</ele>
        <time>2024-08-10T07:52:28Z</time>
      </trkpt>
      <trkpt lat="45.06298" lon="6.23332">
        <ele>2314.6</ele>
        <time>2024-08-10T07:52:29Z</time>
      </trkpt>
      <trkpt lat="45.06299" lon="6.23336">
        <ele>2314.8</ele>
        <time>2024-08-10T07:52:30Z</time>
      </trkpt>
      <trkpt lat="45.06299" lon="6.23336">
        <ele>2314.8</ele>
        <time>2024-08-10T07:52:31Z</time>
      </trkpt>
      <trkpt lat="45.063" lon="6.23339">
        <ele>2314.8</ele>
        <time>2024-08-10T07:52:32Z</time>
      </trkpt>
      <trkpt lat="45.063" lon="6.23339">
        <ele>2314.8</ele>
        <time>2024-08-10T07:52:33Z</time>
      </trkpt>
      <trkpt lat="45.063" lon="6.23343">
        <ele>2315.4</ele>
        <time>2024-08-10T07:52:34Z</time>
      </trkpt>
      <trkpt lat="45.063" lon="6.23343">
        <ele>2315.4</ele>
        <time>2024-08-10T07:52:35Z</time>
      </trkpt>
      <trkpt lat="45.063" lon="6.23347">
        <ele>2315.6</ele>
        <time>2024-08-10T07:52:36Z</time>
      </trkpt>
      <trkpt lat="45.063" lon="6.23347">
        <ele>2315.4</ele>
        <time>2024-08-10T07:52:37Z</time>
      </trkpt>
      <trkpt lat="45.063" lon="6.2335">
        <ele>2315.4</ele>
        <time>2024-08-10T07:52:38Z</time>
      </trkpt>
      <trkpt lat="45.063" lon="6.2335">
        <ele>2315.2</ele>
        <time>2024-08-10T07:52:39Z</time>
      </trkpt>
      <trkpt lat="45.063" lon="6.23354">
        <ele>2315</ele>
        <time>2024-08-10T07:52:40Z</time>
      </trkpt>
      <trkpt lat="45.063" lon="6.23354">
        <ele>2315</ele>
        <time>2024-08-10T07:52:41Z</time>
      </trkpt>
      <trkpt lat="45.06299" lon="6.23358">
        <ele>2315.2</ele>
        <time>2024-08-10T07:52:42Z</time>
      </trkpt>
      <trkpt lat="45.06299" lon="6.23358">
        <ele>2315.2</ele>
        <time>2024-08-10T07:52:43Z</time>
      </trkpt>
      <trkpt lat="45.06299" lon="6.23361">
        <ele>2315.2</ele>
        <time>2024-08-10T07:52:44Z</time>
      </trkpt>
      <trkpt lat="45.06299" lon="6.23361">
        <ele>2315.4</ele>
        <time>2024-08-10T07:52:45Z</time>
      </trkpt>
      <trkpt lat="45.06299" lon="6.23364">
        <ele>2315.4</ele>
        <time>2024-08-10T07:52:46Z</time>
      </trkpt>
      <trkpt lat="45.06299" lon="6.23364">
        <ele>2315.4</ele>
        <time>2024-08-10T07:52:47Z</time>
      </trkpt>
      <trkpt lat="45.06298" lon="6.23368">
        <ele>2315.6</ele>
        <time>2024-08-10T07:52:48Z</time>
      </trkpt>
      <trkpt lat="45.06298" lon="6.23368">
        <ele>2315.6</ele>
        <time>2024-08-10T07:52:49Z</time>
      </trkpt>
      <trkpt lat="45.06297" lon="6.23371">
        <ele>2316</ele>
        <time>2024-08-10T07:52:50Z</time>
      </trkpt>
      <trkpt lat="45.06297" lon="6.23371">
        <ele>2316</ele>
        <time>2024-08-10T07:52:51Z</time>
      </trkpt>
      <trkpt lat="45.06295" lon="6.23373">
        <ele>2316</ele>
        <time>2024-08-10T07:52:52Z</time>
      </trkpt>
      <trkpt lat="45.06295" lon="6.23373">
        <ele>2316.2</ele>
        <time>2024-08-10T07:52:53Z</time>
      </trkpt>
      <trkpt lat="45.06295" lon="6.23376">
        <ele>2316.4</ele>
        <time>2024-08-10T07:52:54Z</time>
      </trkpt>
      <trkpt lat="45.06295" lon="6.23376">
        <ele>2316.4</ele>
        <time>2024-08-10T07:52:55Z</time>
      </trkpt>
      <trkpt lat="45.06293" lon="6.23379">
        <ele>2316.6</ele>
        <time>2024-08-10T07:52:56Z</time>
      </trkpt>
      <trkpt lat="45.06293" lon="6.23379">
        <ele>2316.8</ele>
        <time>2024-08-10T07:52:57Z</time>
      </trkpt>
      <trkpt lat="45.06293" lon="6.23382">
        <ele>2317</ele>
        <time>2024-08-10T07:52:58Z</time>
      </trkpt>
      <trkpt lat="45.06293" lon="6.23382">
        <ele>2317</ele>
        <time>2024-08-10T07:52:59Z</time>
      </trkpt>
      <trkpt lat="45.06291" lon="6.23386">
        <ele>2317</ele>
        <time>2024-08-10T07:53:00Z</time>
      </trkpt>
      <trkpt lat="45.06291" lon="6.23386">
        <ele>2317</ele>
        <time>2024-08-10T07:53:01Z</time>
      </trkpt>
      <trkpt lat="45.06291" lon="6.23389">
        <ele>2316.8</ele>
        <time>2024-08-10T07:53:02Z</time>
      </trkpt>
      <trkpt lat="45.06291" lon="6.23389">
        <ele>2317.4</ele>
        <time>2024-08-10T07:53:03Z</time>
      </trkpt>
      <trkpt lat="45.06289" lon="6.23393">
        <ele>2317.4</ele>
        <time>2024-08-10T07:53:04Z</time>
      </trkpt>
      <trkpt lat="45.06289" lon="6.23393">
        <ele>2317.8</ele>
        <time>2024-08-10T07:53:05Z</time>
      </trkpt>
      <trkpt lat="45.06288" lon="6.23396">
        <ele>2317.8</ele>
        <time>2024-08-10T07:53:06Z</time>
      </trkpt>
      <trkpt lat="45.06288" lon="6.23396">
        <ele>2317.8</ele>
        <time>2024-08-10T07:53:07Z</time>
      </trkpt>
      <trkpt lat="45.06287" lon="6.23399">
        <ele>2317.6</ele>
        <time>2024-08-10T07:53:08Z</time>
      </trkpt>
      <trkpt lat="45.06287" lon="6.23399">
        <ele>2317.4</ele>
        <time>2024-08-10T07:53:09Z</time>
      </trkpt>
      <trkpt lat="45.06286" lon="6.23402">
        <ele>2317.4</ele>
        <time>2024-08-10T07:53:10Z</time>
      </trkpt>
      <trkpt lat="45.06286" lon="6.23402">
        <ele>2317.4</ele>
        <time>2024-08-10T07:53:11Z</time>
      </trkpt>
      <trkpt lat="45.06285" lon="6.23406">
        <ele>2317.4</ele>
        <time>2024-08-10T07:53:12Z</time>
      </trkpt>
      <trkpt lat="45.06285" lon="6.23406">
        <ele>2317.4</ele>
        <time>2024-08-10T07:53:13Z</time>
      </trkpt>
      <trkpt lat="45.06285" lon="6.23409">
        <ele>2317.4</ele>
        <time>2024-08-10T07:53:14Z</time>
      </trkpt>
      <trkpt lat="45.06285" lon="6.23409">
        <ele>2317.4</ele>
        <time>2024-08-10T07:53:15Z</time>
      </trkpt>
      <trkpt lat="45.06285" lon="6.23412">
        <ele>2318.2</ele>
        <time>2024-08-10T07:53:16Z</time>
      </trkpt>
      <trkpt lat="45.06285" lon="6.23412">
        <ele>2318.2</ele>
        <time>2024-08-10T07:53:17Z</time>
      </trkpt>
      <trkpt lat="45.06284" lon="6.23415">
        <ele>2318.2</ele>
        <time>2024-08-10T07:53:18Z</time>
      </trkpt>
      <trkpt lat="45.06284" lon="6.23415">
        <ele>2318.2</ele>
        <time>2024-08-10T07:53:19Z</time>
      </trkpt>
      <trkpt lat="45.06283" lon="6.23418">
        <ele>2318.2</ele>
        <time>2024-08-10T07:53:20Z</time>
      </trkpt>
      <trkpt lat="45.06283" lon="6.23418">
        <ele>2318.2</ele>
        <time>2024-08-10T07:53:21Z</time>
      </trkpt>
      <trkpt lat="45.06283" lon="6.23422">
        <ele>2318.2</ele>
        <time>2024-08-10T07:53:22Z</time>
      </trkpt>
      <trkpt lat="45.06283" lon="6.23422">
        <ele>2318.8</ele>
        <time>2024-08-10T07:53:23Z</time>
      </trkpt>
      <trkpt lat="45.06282" lon="6.23425">
        <ele>2319</ele>
        <time>2024-08-10T07:53:24Z</time>
      </trkpt>
      <trkpt lat="45.06282" lon="6.23425">
        <ele>2319</ele>
        <time>2024-08-10T07:53:25Z</time>
      </trkpt>
      <trkpt lat="45.06283" lon="6.23429">
        <ele>2319</ele>
        <time>2024-08-10T07:53:26Z</time>
      </trkpt>
      <trkpt lat="45.06283" lon="6.23429">
        <ele>2319</ele>
        <time>2024-08-10T07:53:27Z</time>
      </trkpt>
      <trkpt lat="45.06284" lon="6.23431">
        <ele>2319</ele>
        <time>2024-08-10T07:53:28Z</time>
      </trkpt>
      <trkpt lat="45.06284" lon="6.23431">
        <ele>2319</ele>
        <time>2024-08-10T07:53:29Z</time>
      </trkpt>
      <trkpt lat="45.06284" lon="6.23434">
        <ele>2319</ele>
        <time>2024-08-10T07:53:30Z</time>
      </trkpt>
      <trkpt lat="45.06284" lon="6.23434">
        <ele>2319.2</ele>
        <time>2024-08-10T07:53:31Z</time>
      </trkpt>
      <trkpt lat="45.06285" lon="6.23437">
        <ele>2319.2</ele>
        <time>2024-08-10T07:53:32Z</time>
      </trkpt>
      <trkpt lat="45.06285" lon="6.23437">
        <ele>2319.2</ele>
        <time>2024-08-10T07:53:33Z</time>
      </trkpt>
      <trkpt lat="45.06285" lon="6.23437">
        <ele>2319</ele>
        <time>2024-08-10T07:53:34Z</time>
      </trkpt>
      <trkpt lat="45.06286" lon="6.2344">
        <ele>2319.2</ele>
        <time>2024-08-10T07:53:35Z</time>
      </trkpt>
      <trkpt lat="45.06286" lon="6.2344">
        <ele>2319.4</ele>
        <time>2024-08-10T07:53:36Z</time>
      </trkpt>
      <trkpt lat="45.06287" lon="6.23442">
        <ele>2320.2</ele>
        <time>2024-08-10T07:53:37Z</time>
      </trkpt>
      <trkpt lat="45.06287" lon="6.23442">
        <ele>2320.2</ele>
        <time>2024-08-10T07:53:38Z</time>
      </trkpt>
      <trkpt lat="45.06287" lon="6.23445">
        <ele>2320.2</ele>
        <time>2024-08-10T07:53:39Z</time>
      </trkpt>
      <trkpt lat="45.06287" lon="6.23445">
        <ele>2320.6</ele>
        <time>2024-08-10T07:53:40Z</time>
      </trkpt>
      <trkpt lat="45.06287" lon="6.23448">
        <ele>2320.8</ele>
        <time>2024-08-10T07:53:41Z</time>
      </trkpt>
      <trkpt lat="45.06287" lon="6.23448">
        <ele>2321</ele>
        <time>2024-08-10T07:53:42Z</time>
      </trkpt>
      <trkpt lat="45.06287" lon="6.23452">
        <ele>2321</ele>
        <time>2024-08-10T07:53:43Z</time>
      </trkpt>
      <trkpt lat="45.06287" lon="6.23452">
        <ele>2321</ele>
        <time>2024-08-10T07:53:44Z</time>
      </trkpt>
      <trkpt lat="45.06288" lon="6.23455">
        <ele>2321.2</ele>
        <time>2024-08-10T07:53:45Z</time>
      </trkpt>
      <trkpt lat="45.06288" lon="6.23455">
        <ele>2321.2</ele>
        <time>2024-08-10T07:53:46Z</time>
      </trkpt>
      <trkpt lat="45.06288" lon="6.23459">
        <ele>2321.4</ele>
        <time>2024-08-10T07:53:47Z</time>
      </trkpt>
      <trkpt lat="45.06288" lon="6.23459">
        <ele>2321.8</ele>
        <time>2024-08-10T07:53:48Z</time>
      </trkpt>
      <trkpt lat="45.06289" lon="6.23462">
        <ele>2321.8</ele>
        <time>2024-08-10T07:53:49Z</time>
      </trkpt>
      <trkpt lat="45.06289" lon="6.23462">
        <ele>2321.8</ele>
        <time>2024-08-10T07:53:50Z</time>
      </trkpt>
      <trkpt lat="45.06289" lon="6.23465">
        <ele>2321.8</ele>
        <time>2024-08-10T07:53:51Z</time>
      </trkpt>
      <trkpt lat="45.06289" lon="6.23465">
        <ele>2322.2</ele>
        <time>2024-08-10T07:53:52Z</time>
      </trkpt>
      <trkpt lat="45.06289" lon="6.23469">
        <ele>2322.2</ele>
        <time>2024-08-10T07:53:53Z</time>
      </trkpt>
      <trkpt lat="45.06289" lon="6.23469">
        <ele>2322.2</ele>
        <time>2024-08-10T07:53:54Z</time>
      </trkpt>
      <trkpt lat="45.06289" lon="6.23472">
        <ele>2322</ele>
        <time>2024-08-10T07:53:55Z</time>
      </trkpt>
      <trkpt lat="45.06289" lon="6.23472">
        <ele>2321.6</ele>
        <time>2024-08-10T07:53:56Z</time>
      </trkpt>
      <trkpt lat="45.0629" lon="6.23476">
        <ele>2321.6</ele>
        <time>2024-08-10T07:53:57Z</time>
      </trkpt>
      <trkpt lat="45.0629" lon="6.23476">
        <ele>2322</ele>
        <time>2024-08-10T07:53:58Z</time>
      </trkpt>
      <trkpt lat="45.0629" lon="6.23479">
        <ele>2322.2</ele>
        <time>2024-08-10T07:53:59Z</time>
      </trkpt>
      <trkpt lat="45.0629" lon="6.23479">
        <ele>2322.2</ele>
        <time>2024-08-10T07:54:00Z</time>
      </trkpt>
      <trkpt lat="45.06289" lon="6.23483">
        <ele>2322.2</ele>
        <time>2024-08-10T07:54:01Z</time>
      </trkpt>
      <trkpt lat="45.06289" lon="6.23483">
        <ele>2322</ele>
        <time>2024-08-10T07:54:02Z</time>
      </trkpt>
      <trkpt lat="45.06288" lon="6.23486">
        <ele>2322</ele>
        <time>2024-08-10T07:54:03Z</time>
      </trkpt>
      <trkpt lat="45.06288" lon="6.23486">
        <ele>2322.2</ele>
        <time>2024-08-10T07:54:04Z</time>
      </trkpt>
      <trkpt lat="45.06287" lon="6.2349">
        <ele>2322.2</ele>
        <time>2024-08-10T07:54:05Z</time>
      </trkpt>
      <trkpt lat="45.06287" lon="6.2349">
        <ele>2322.2</ele>
        <time>2024-08-10T07:54:06Z</time>
      </trkpt>
      <trkpt lat="45.06287" lon="6.23493">
        <ele>2322.6</ele>
        <time>2024-08-10T07:54:07Z</time>
      </trkpt>
      <trkpt lat="45.06287" lon="6.23493">
        <ele>2322.6</ele>
        <time>2024-08-10T07:54:08Z</time>
      </trkpt>
      <trkpt lat="45.06286" lon="6.23497">
        <ele>2322.6</ele>
        <time>2024-08-10T07:54:09Z</time>
      </trkpt>
      <trkpt lat="45.06286" lon="6.23497">
        <ele>2322.6</ele>
        <time>2024-08-10T07:54:10Z</time>
      </trkpt>
      <trkpt lat="45.06286" lon="6.235">
        <ele>2322.6</ele>
        <time>2024-08-10T07:54:11Z</time>
      </trkpt>
      <trkpt lat="45.06286" lon="6.235">
        <ele>2322.6</ele>
        <time>2024-08-10T07:54:12Z</time>
      </trkpt>
      <trkpt lat="45.06286" lon="6.23503">
        <ele>2323.2</ele>
        <time>2024-08-10T07:54:13Z</time>
      </trkpt>
      <trkpt lat="45.06286" lon="6.23503">
        <ele>2323.2</ele>
        <time>2024-08-10T07:54:14Z</time>
      </trkpt>
      <trkpt lat="45.06287" lon="6.23506">
        <ele>2323.2</ele>
        <time>2024-08-10T07:54:15Z</time>
      </trkpt>
      <trkpt lat="45.06287" lon="6.23506">
        <ele>2323.2</ele>
        <time>2024-08-10T07:54:16Z</time>
      </trkpt>
      <trkpt lat="45.06287" lon="6.2351">
        <ele>2323.2</ele>
        <time>2024-08-10T07:54:17Z</time>
      </trkpt>
      <trkpt lat="45.06287" lon="6.2351">
        <ele>2323.2</ele>
        <time>2024-08-10T07:54:18Z</time>
      </trkpt>
      <trkpt lat="45.06288" lon="6.23512">
        <ele>2323.4</ele>
        <time>2024-08-10T07:54:19Z</time>
      </trkpt>
      <trkpt lat="45.06288" lon="6.23512">
        <ele>2323.4</ele>
        <time>2024-08-10T07:54:20Z</time>
      </trkpt>
      <trkpt lat="45.06288" lon="6.23516">
        <ele>2323.8</ele>
        <time>2024-08-10T07:54:21Z</time>
      </trkpt>
      <trkpt lat="45.06288" lon="6.23516">
        <ele>2324.2</ele>
        <time>2024-08-10T07:54:22Z</time>
      </trkpt>
      <trkpt lat="45.06289" lon="6.23519">
        <ele>2324.2</ele>
        <time>2024-08-10T07:54:23Z</time>
      </trkpt>
      <trkpt lat="45.06289" lon="6.23519">
        <ele>2324.2</ele>
        <time>2024-08-10T07:54:24Z</time>
      </trkpt>
      <trkpt lat="45.06289" lon="6.23523">
        <ele>2324.2</ele>
        <time>2024-08-10T07:54:25Z</time>
      </trkpt>
      <trkpt lat="45.06289" lon="6.23523">
        <ele>2324</ele>
        <time>2024-08-10T07:54:26Z</time>
      </trkpt>
      <trkpt lat="45.06289" lon="6.23526">
        <ele>2323.8</ele>
        <time>2024-08-10T07:54:27Z</time>
      </trkpt>
      <trkpt lat="45.06289" lon="6.23526">
        <ele>2323.6</ele>
        <time>2024-08-10T07:54:28Z</time>
      </trkpt>
      <trkpt lat="45.0629" lon="6.23529">
        <ele>2323.6</ele>
        <time>2024-08-10T07:54:29Z</time>
      </trkpt>
      <trkpt lat="45.0629" lon="6.23529">
        <ele>2323.6</ele>
        <time>2024-08-10T07:54:30Z</time>
      </trkpt>
      <trkpt lat="45.06291" lon="6.23533">
        <ele>2323.6</ele>
        <time>2024-08-10T07:54:31Z</time>
      </trkpt>
      <trkpt lat="45.06291" lon="6.23533">
        <ele>2323.6</ele>
        <time>2024-08-10T07:54:32Z</time>
      </trkpt>
      <trkpt lat="45.06291" lon="6.23537">
        <ele>2323.6</ele>
        <time>2024-08-10T07:54:33Z</time>
      </trkpt>
      <trkpt lat="45.06291" lon="6.23537">
        <ele>2323.6</ele>
        <time>2024-08-10T07:54:34Z</time>
      </trkpt>
      <trkpt lat="45.06291" lon="6.2354">
        <ele>2323.6</ele>
        <time>2024-08-10T07:54:35Z</time>
      </trkpt>
      <trkpt lat="45.06291" lon="6.2354">
        <ele>2323.6</ele>
        <time>2024-08-10T07:54:36Z</time>
      </trkpt>
      <trkpt lat="45.06292" lon="6.23544">
        <ele>2323.6</ele>
        <time>2024-08-10T07:54:37Z</time>
      </trkpt>
      <trkpt lat="45.06292" lon="6.23544">
        <ele>2323.8</ele>
        <time>2024-08-10T07:54:38Z</time>
      </trkpt>
      <trkpt lat="45.06292" lon="6.23548">
        <ele>2323.8</ele>
        <time>2024-08-10T07:54:39Z</time>
      </trkpt>
      <trkpt lat="45.06292" lon="6.23548">
        <ele>2323.8</ele>
        <time>2024-08-10T07:54:40Z</time>
      </trkpt>
      <trkpt lat="45.06292" lon="6.23551">
        <ele>2323.4</ele>
        <time>2024-08-10T07:54:41Z</time>
      </trkpt>
      <trkpt lat="45.06292" lon="6.23551">
        <ele>2323.4</ele>
        <time>2024-08-10T07:54:42Z</time>
      </trkpt>
      <trkpt lat="45.06291" lon="6.23554">
        <ele>2323.8</ele>
        <time>2024-08-10T07:54:43Z</time>
      </trkpt>
      <trkpt lat="45.06291" lon="6.23554">
        <ele>2323.8</ele>
        <time>2024-08-10T07:54:44Z</time>
      </trkpt>
      <trkpt lat="45.0629" lon="6.23558">
        <ele>2324</ele>
        <time>2024-08-10T07:54:45Z</time>
      </trkpt>
      <trkpt lat="45.0629" lon="6.23558">
        <ele>2324</ele>
        <time>2024-08-10T07:54:46Z</time>
      </trkpt>
      <trkpt lat="45.06289" lon="6.2356">
        <ele>2324</ele>
        <time>2024-08-10T07:54:47Z</time>
      </trkpt>
      <trkpt lat="45.06289" lon="6.2356">
        <ele>2324.4</ele>
        <time>2024-08-10T07:54:48Z</time>
      </trkpt>
      <trkpt lat="45.06289" lon="6.2356">
        <ele>2324.6</ele>
        <time>2024-08-10T07:54:49Z</time>
      </trkpt>
      <trkpt lat="45.06288" lon="6.23563">
        <ele>2324.6</ele>
        <time>2024-08-10T07:54:50Z</time>
      </trkpt>
      <trkpt lat="45.06288" lon="6.23563">
        <ele>2324.6</ele>
        <time>2024-08-10T07:54:51Z</time>
      </trkpt>
      <trkpt lat="45.06287" lon="6.23566">
        <ele>2325.4</ele>
        <time>2024-08-10T07:54:52Z</time>
      </trkpt>
      <trkpt lat="45.06287" lon="6.23566">
        <ele>2325.4</ele>
        <time>2024-08-10T07:54:53Z</time>
      </trkpt>
      <trkpt lat="45.06287" lon="6.23569">
        <ele>2325.4</ele>
        <time>2024-08-10T07:54:54Z</time>
      </trkpt>
      <trkpt lat="45.06287" lon="6.23569">
        <ele>2325.4</ele>
        <time>2024-08-10T07:54:55Z</time>
      </trkpt>
      <trkpt lat="45.06286" lon="6.23572">
        <ele>2325.4</ele>
        <time>2024-08-10T07:54:56Z</time>
      </trkpt>
      <trkpt lat="45.06286" lon="6.23572">
        <ele>2325.8</ele>
        <time>2024-08-10T07:54:57Z</time>
      </trkpt>
      <trkpt lat="45.06286" lon="6.23575">
        <ele>2326.2</ele>
        <time>2024-08-10T07:54:58Z</time>
      </trkpt>
      <trkpt lat="45.06286" lon="6.23575">
        <ele>2326.2</ele>
        <time>2024-08-10T07:54:59Z</time>
      </trkpt>
      <trkpt lat="45.06285" lon="6.23578">
        <ele>2326.4</ele>
        <time>2024-08-10T07:55:00Z</time>
      </trkpt>
      <trkpt lat="45.06285" lon="6.23578">
        <ele>2326.4</ele>
        <time>2024-08-10T07:55:01Z</time>
      </trkpt>
      <trkpt lat="45.06285" lon="6.23581">
        <ele>2326.6</ele>
        <time>2024-08-10T07:55:02Z</time>
      </trkpt>
      <trkpt lat="45.06285" lon="6.23581">
        <ele>2326.8</ele>
        <time>2024-08-10T07:55:03Z</time>
      </trkpt>
      <trkpt lat="45.06285" lon="6.23584">
        <ele>2326.8</ele>
        <time>2024-08-10T07:55:04Z</time>
      </trkpt>
      <trkpt lat="45.06285" lon="6.23584">
        <ele>2327</ele>
        <time>2024-08-10T07:55:05Z</time>
      </trkpt>
      <trkpt lat="45.06285" lon="6.23584">
        <ele>2327</ele>
        <time>2024-08-10T07:55:06Z</time>
      </trkpt>
      <trkpt lat="45.06284" lon="6.23588">
        <ele>2327</ele>
        <time>2024-08-10T07:55:07Z</time>
      </trkpt>
      <trkpt lat="45.06284" lon="6.23588">
        <ele>2327</ele>
        <time>2024-08-10T07:55:08Z</time>
      </trkpt>
      <trkpt lat="45.06284" lon="6.23588">
        <ele>2327</ele>
        <time>2024-08-10T07:55:09Z</time>
      </trkpt>
      <trkpt lat="45.06282" lon="6.23591">
        <ele>2327.2</ele>
        <time>2024-08-10T07:55:10Z</time>
      </trkpt>
      <trkpt lat="45.06282" lon="6.23591">
        <ele>2327.4</ele>
        <time>2024-08-10T07:55:11Z</time>
      </trkpt>
      <trkpt lat="45.06282" lon="6.23591">
        <ele>2327.4</ele>
        <time>2024-08-10T07:55:12Z</time>
      </trkpt>
      <trkpt lat="45.06281" lon="6.23594">
        <ele>2327.4</ele>
        <time>2024-08-10T07:55:13Z</time>
      </trkpt>
      <trkpt lat="45.06281" lon="6.23594">
        <ele>2327.6</ele>
        <time>2024-08-10T07:55:14Z</time>
      </trkpt>
      <trkpt lat="45.0628" lon="6.23596">
        <ele>2328.6</ele>
        <time>2024-08-10T07:55:15Z</time>
      </trkpt>
      <trkpt lat="45.0628" lon="6.23596">
        <ele>2328.6</ele>
        <time>2024-08-10T07:55:16Z</time>
      </trkpt>
      <trkpt lat="45.06279" lon="6.23599">
        <ele>2328.6</ele>
        <time>2024-08-10T07:55:17Z</time>
      </trkpt>
      <trkpt lat="45.06279" lon="6.23599">
        <ele>2328.6</ele>
        <time>2024-08-10T07:55:18Z</time>
      </trkpt>
      <trkpt lat="45.06278" lon="6.23602">
        <ele>2328.6</ele>
        <time>2024-08-10T07:55:19Z</time>
      </trkpt>
      <trkpt lat="45.06278" lon="6.23602">
        <ele>2328.8</ele>
        <time>2024-08-10T07:55:20Z</time>
      </trkpt>
      <trkpt lat="45.06277" lon="6.23604">
        <ele>2329.2</ele>
        <time>2024-08-10T07:55:21Z</time>
      </trkpt>
      <trkpt lat="45.06277" lon="6.23604">
        <ele>2329.2</ele>
        <time>2024-08-10T07:55:22Z</time>
      </trkpt>
      <trkpt lat="45.06277" lon="6.23607">
        <ele>2329.6</ele>
        <time>2024-08-10T07:55:23Z</time>
      </trkpt>
      <trkpt lat="45.06277" lon="6.23607">
        <ele>2329.8</ele>
        <time>2024-08-10T07:55:24Z</time>
      </trkpt>
      <trkpt lat="45.06276" lon="6.2361">
        <ele>2330</ele>
        <time>2024-08-10T07:55:25Z</time>
      </trkpt>
      <trkpt lat="45.06276" lon="6.2361">
        <ele>2330</ele>
        <time>2024-08-10T07:55:26Z</time>
      </trkpt>
      <trkpt lat="45.06275" lon="6.23613">
        <ele>2330</ele>
        <time>2024-08-10T07:55:27Z</time>
      </trkpt>
      <trkpt lat="45.06275" lon="6.23613">
        <ele>2330.2</ele>
        <time>2024-08-10T07:55:28Z</time>
      </trkpt>
      <trkpt lat="45.06273" lon="6.23616">
        <ele>2330.6</ele>
        <time>2024-08-10T07:55:29Z</time>
      </trkpt>
      <trkpt lat="45.06273" lon="6.23616">
        <ele>2330.6</ele>
        <time>2024-08-10T07:55:30Z</time>
      </trkpt>
      <trkpt lat="45.06273" lon="6.23618">
        <ele>2330.6</ele>
        <time>2024-08-10T07:55:31Z</time>
      </trkpt>
      <trkpt lat="45.06273" lon="6.23618">
        <ele>2330.6</ele>
        <time>2024-08-10T07:55:32Z</time>
      </trkpt>
      <trkpt lat="45.06271" lon="6.23621">
        <ele>2330.6</ele>
        <time>2024-08-10T07:55:33Z</time>
      </trkpt>
      <trkpt lat="45.06271" lon="6.23621">
        <ele>2330.8</ele>
        <time>2024-08-10T07:55:34Z</time>
      </trkpt>
      <trkpt lat="45.06271" lon="6.23621">
        <ele>2330.8</ele>
        <time>2024-08-10T07:55:35Z</time>
      </trkpt>
      <trkpt lat="45.06269" lon="6.23624">
        <ele>2330.8</ele>
        <time>2024-08-10T07:55:36Z</time>
      </trkpt>
      <trkpt lat="45.06269" lon="6.23624">
        <ele>2331</ele>
        <time>2024-08-10T07:55:37Z</time>
      </trkpt>
      <trkpt lat="45.06268" lon="6.23626">
        <ele>2331</ele>
        <time>2024-08-10T07:55:38Z</time>
      </trkpt>
      <trkpt lat="45.06268" lon="6.23626">
        <ele>2331</ele>
        <time>2024-08-10T07:55:39Z</time>
      </trkpt>
      <trkpt lat="45.06267" lon="6.23628">
        <ele>2331.2</ele>
        <time>2024-08-10T07:55:40Z</time>
      </trkpt>
      <trkpt lat="45.06267" lon="6.23628">
        <ele>2331.4</ele>
        <time>2024-08-10T07:55:41Z</time>
      </trkpt>
      <trkpt lat="45.06266" lon="6.2363">
        <ele>2331.6</ele>
        <time>2024-08-10T07:55:42Z</time>
      </trkpt>
      <trkpt lat="45.06266" lon="6.2363">
        <ele>2332</ele>
        <time>2024-08-10T07:55:43Z</time>
      </trkpt>
      <trkpt lat="45.06265" lon="6.23633">
        <ele>2332</ele>
        <time>2024-08-10T07:55:44Z</time>
      </trkpt>
      <trkpt lat="45.06265" lon="6.23633">
        <ele>2332.4</ele>
        <time>2024-08-10T07:55:45Z</time>
      </trkpt>
      <trkpt lat="45.06263" lon="6.23636">
        <ele>2332.4</ele>
        <time>2024-08-10T07:55:46Z</time>
      </trkpt>
      <trkpt lat="45.06263" lon="6.23636">
        <ele>2332.4</ele>
        <time>2024-08-10T07:55:47Z</time>
      </trkpt>
      <trkpt lat="45.06262" lon="6.23638">
        <ele>2332.4</ele>
        <time>2024-08-10T07:55:48Z</time>
      </trkpt>
      <trkpt lat="45.06262" lon="6.23638">
        <ele>2332.8</ele>
        <time>2024-08-10T07:55:49Z</time>
      </trkpt>
      <trkpt lat="45.06261" lon="6.23641">
        <ele>2332.8</ele>
        <time>2024-08-10T07:55:50Z</time>
      </trkpt>
      <trkpt lat="45.06261" lon="6.23641">
        <ele>2332.6</ele>
        <time>2024-08-10T07:55:51Z</time>
      </trkpt>
      <trkpt lat="45.0626" lon="6.23643">
        <ele>2332.6</ele>
        <time>2024-08-10T07:55:52Z</time>
      </trkpt>
      <trkpt lat="45.0626" lon="6.23643">
        <ele>2333</ele>
        <time>2024-08-10T07:55:53Z</time>
      </trkpt>
      <trkpt lat="45.06259" lon="6.23646">
        <ele>2333</ele>
        <time>2024-08-10T07:55:54Z</time>
      </trkpt>
      <trkpt lat="45.06259" lon="6.23646">
        <ele>2333</ele>
        <time>2024-08-10T07:55:55Z</time>
      </trkpt>
      <trkpt lat="45.06258" lon="6.23648">
        <ele>2333.2</ele>
        <time>2024-08-10T07:55:56Z</time>
      </trkpt>
      <trkpt lat="45.06258" lon="6.23648">
        <ele>2333.6</ele>
        <time>2024-08-10T07:55:57Z</time>
      </trkpt>
      <trkpt lat="45.06257" lon="6.2365">
        <ele>2333.8</ele>
        <time>2024-08-10T07:55:58Z</time>
      </trkpt>
      <trkpt lat="45.06257" lon="6.2365">
        <ele>2334</ele>
        <time>2024-08-10T07:55:59Z</time>
      </trkpt>
      <trkpt lat="45.06255" lon="6.23652">
        <ele>2334.2</ele>
        <time>2024-08-10T07:56:00Z</time>
      </trkpt>
      <trkpt lat="45.06255" lon="6.23652">
        <ele>2334.2</ele>
        <time>2024-08-10T07:56:01Z</time>
      </trkpt>
      <trkpt lat="45.06255" lon="6.23652">
        <ele>2334.4</ele>
        <time>2024-08-10T07:56:02Z</time>
      </trkpt>
      <trkpt lat="45.06255" lon="6.23655">
        <ele>2334.6</ele>
        <time>2024-08-10T07:56:03Z</time>
      </trkpt>
      <trkpt lat="45.06255" lon="6.23655">
        <ele>2334.6</ele>
        <time>2024-08-10T07:56:04Z</time>
      </trkpt>
      <trkpt lat="45.06255" lon="6.23655">
        <ele>2334.6</ele>
        <time>2024-08-10T07:56:05Z</time>
      </trkpt>
      <trkpt lat="45.06254" lon="6.23658">
        <ele>2334.8</ele>
        <time>2024-08-10T07:56:06Z</time>
      </trkpt>
      <trkpt lat="45.06254" lon="6.23658">
        <ele>2335.2</ele>
        <time>2024-08-10T07:56:07Z</time>
      </trkpt>
      <trkpt lat="45.06254" lon="6.23658">
        <ele>2335.8</ele>
        <time>2024-08-10T07:56:08Z</time>
      </trkpt>
      <trkpt lat="45.06254" lon="6.23662">
        <ele>2335.8</ele>
        <time>2024-08-10T07:56:09Z</time>
      </trkpt>
      <trkpt lat="45.06254" lon="6.23662">
        <ele>2336</ele>
        <time>2024-08-10T07:56:10Z</time>
      </trkpt>
      <trkpt lat="45.06254" lon="6.23662">
        <ele>2336</ele>
        <time>2024-08-10T07:56:11Z</time>
      </trkpt>
      <trkpt lat="45.06253" lon="6.23665">
        <ele>2336.2</ele>
        <time>2024-08-10T07:56:12Z</time>
      </trkpt>
      <trkpt lat="45.06253" lon="6.23665">
        <ele>2336.6</ele>
        <time>2024-08-10T07:56:13Z</time>
      </trkpt>
      <trkpt lat="45.06253" lon="6.23665">
        <ele>2336.6</ele>
        <time>2024-08-10T07:56:14Z</time>
      </trkpt>
      <trkpt lat="45.06252" lon="6.23669">
        <ele>2336.8</ele>
        <time>2024-08-10T07:56:15Z</time>
      </trkpt>
      <trkpt lat="45.06252" lon="6.23669">
        <ele>2336.8</ele>
        <time>2024-08-10T07:56:16Z</time>
      </trkpt>
      <trkpt lat="45.06252" lon="6.23672">
        <ele>2336.8</ele>
        <time>2024-08-10T07:56:17Z</time>
      </trkpt>
      <trkpt lat="45.06252" lon="6.23672">
        <ele>2337.4</ele>
        <time>2024-08-10T07:56:18Z</time>
      </trkpt>
      <trkpt lat="45.06251" lon="6.23675">
        <ele>2337.4</ele>
        <time>2024-08-10T07:56:19Z</time>
      </trkpt>
      <trkpt lat="45.06251" lon="6.23675">
        <ele>2337.4</ele>
        <time>2024-08-10T07:56:20Z</time>
      </trkpt>
      <trkpt lat="45.0625" lon="6.23677">
        <ele>2337.6</ele>
        <time>2024-08-10T07:56:21Z</time>
      </trkpt>
      <trkpt lat="45.0625" lon="6.23677">
        <ele>2337.8</ele>
        <time>2024-08-10T07:56:22Z</time>
      </trkpt>
      <trkpt lat="45.0625" lon="6.23677">
        <ele>2337.8</ele>
        <time>2024-08-10T07:56:23Z</time>
      </trkpt>
      <trkpt lat="45.0625" lon="6.23681">
        <ele>2337.8</ele>
        <time>2024-08-10T07:56:24Z</time>
      </trkpt>
      <trkpt lat="45.0625" lon="6.23681">
        <ele>2338.2</ele>
        <time>2024-08-10T07:56:25Z</time>
      </trkpt>
      <trkpt lat="45.0625" lon="6.23681">
        <ele>2338.4</ele>
        <time>2024-08-10T07:56:26Z</time>
      </trkpt>
      <trkpt lat="45.0625" lon="6.23681">
        <ele>2338.4</ele>
        <time>2024-08-10T07:56:27Z</time>
      </trkpt>
      <trkpt lat="45.0625" lon="6.23681">
        <ele>2338.2</ele>
        <time>2024-08-10T07:56:28Z</time>
      </trkpt>
      <trkpt lat="45.0625" lon="6.23681">
        <ele>2338.2</ele>
        <time>2024-08-10T07:56:29Z</time>
      </trkpt>
      <trkpt lat="45.0625" lon="6.23681">
        <ele>2338.2</ele>
        <time>2024-08-10T07:56:30Z</time>
      </trkpt>
      <trkpt lat="45.0625" lon="6.23681">
        <ele>2338.8</ele>
        <time>2024-08-10T07:56:31Z</time>
      </trkpt>
      <trkpt lat="45.0625" lon="6.23681">
        <ele>2338.8</ele>
        <time>2024-08-10T07:56:32Z</time>
      </trkpt>
      <trkpt lat="45.0625" lon="6.23681">
        <ele>2339</ele>
        <time>2024-08-10T07:56:33Z</time>
      </trkpt>
      <trkpt lat="45.0625" lon="6.23681">
        <ele>2339</ele>
        <time>2024-08-10T07:56:34Z</time>
      </trkpt>
      <trkpt lat="45.0625" lon="6.23681">
        <ele>2339</ele>
        <time>2024-08-10T07:56:35Z</time>
      </trkpt>
      <trkpt lat="45.0625" lon="6.23681">
        <ele>2339</ele>
        <time>2024-08-10T07:56:36Z</time>
      </trkpt>
      <trkpt lat="45.0625" lon="6.23681">
        <ele>2339</ele>
        <time>2024-08-10T07:56:37Z</time>
      </trkpt>
      <trkpt lat="45.0625" lon="6.23681">
        <ele>2339</ele>
        <time>2024-08-10T07:56:38Z</time>
      </trkpt>
      <trkpt lat="45.0625" lon="6.23681">
        <ele>2338.8</ele>
        <time>2024-08-10T07:56:39Z</time>
      </trkpt>
      <trkpt lat="45.0625" lon="6.23681">
        <ele>2338.8</ele>
        <time>2024-08-10T07:56:40Z</time>
      </trkpt>
      <trkpt lat="45.0625" lon="6.23681">
        <ele>2338.6</ele>
        <time>2024-08-10T07:56:41Z</time>
      </trkpt>
      <trkpt lat="45.0625" lon="6.23681">
        <ele>2338.6</ele>
        <time>2024-08-10T07:56:42Z</time>
      </trkpt>
      <trkpt lat="45.06248" lon="6.23684">
        <ele>2338.4</ele>
        <time>2024-08-10T07:56:43Z</time>
      </trkpt>
      <trkpt lat="45.06248" lon="6.23684">
        <ele>2338.4</ele>
        <time>2024-08-10T07:56:44Z</time>
      </trkpt>
      <trkpt lat="45.06246" lon="6.23686">
        <ele>2338.6</ele>
        <time>2024-08-10T07:56:45Z</time>
      </trkpt>
      <trkpt lat="45.06246" lon="6.23686">
        <ele>2338.8</ele>
        <time>2024-08-10T07:56:46Z</time>
      </trkpt>
      <trkpt lat="45.06245" lon="6.23688">
        <ele>2338.8</ele>
        <time>2024-08-10T07:56:47Z</time>
      </trkpt>
      <trkpt lat="45.06245" lon="6.23688">
        <ele>2339</ele>
        <time>2024-08-10T07:56:48Z</time>
      </trkpt>
      <trkpt lat="45.06243" lon="6.23691">
        <ele>2339.2</ele>
        <time>2024-08-10T07:56:49Z</time>
      </trkpt>
      <trkpt lat="45.06243" lon="6.23691">
        <ele>2339.6</ele>
        <time>2024-08-10T07:56:50Z</time>
      </trkpt>
      <trkpt lat="45.06243" lon="6.23691">
        <ele>2339.6</ele>
        <time>2024-08-10T07:56:51Z</time>
      </trkpt>
      <trkpt lat="45.06241" lon="6.23692">
        <ele>2339.6</ele>
        <time>2024-08-10T07:56:52Z</time>
      </trkpt>
      <trkpt lat="45.06241" lon="6.23692">
        <ele>2340</ele>
        <time>2024-08-10T07:56:53Z</time>
      </trkpt>
      <trkpt lat="45.06239" lon="6.23694">
        <ele>2340</ele>
        <time>2024-08-10T07:56:54Z</time>
      </trkpt>
      <trkpt lat="45.06239" lon="6.23694">
        <ele>2340.4</ele>
        <time>2024-08-10T07:56:55Z</time>
      </trkpt>
      <trkpt lat="45.06239" lon="6.23694">
        <ele>2340.4</ele>
        <time>2024-08-10T07:56:56Z</time>
      </trkpt>
      <trkpt lat="45.06238" lon="6.23696">
        <ele>2340.6</ele>
        <time>2024-08-10T07:56:57Z</time>
      </trkpt>
      <trkpt lat="45.06238" lon="6.23696">
        <ele>2340.6</ele>
        <time>2024-08-10T07:56:58Z</time>
      </trkpt>
      <trkpt lat="45.06238" lon="6.23696">
        <ele>2341</ele>
        <time>2024-08-10T07:56:59Z</time>
      </trkpt>
      <trkpt lat="45.06236" lon="6.23698">
        <ele>2341</ele>
        <time>2024-08-10T07:57:00Z</time>
      </trkpt>
      <trkpt lat="45.06236" lon="6.23698">
        <ele>2341</ele>
        <time>2024-08-10T07:57:01Z</time>
      </trkpt>
      <trkpt lat="45.06234" lon="6.237">
        <ele>2341.2</ele>
        <time>2024-08-10T07:57:02Z</time>
      </trkpt>
      <trkpt lat="45.06234" lon="6.237">
        <ele>2341.2</ele>
        <time>2024-08-10T07:57:03Z</time>
      </trkpt>
      <trkpt lat="45.06232" lon="6.23701">
        <ele>2341.2</ele>
        <time>2024-08-10T07:57:04Z</time>
      </trkpt>
      <trkpt lat="45.06232" lon="6.23701">
        <ele>2341.4</ele>
        <time>2024-08-10T07:57:05Z</time>
      </trkpt>
      <trkpt lat="45.0623" lon="6.23702">
        <ele>2341.8</ele>
        <time>2024-08-10T07:57:06Z</time>
      </trkpt>
      <trkpt lat="45.0623" lon="6.23702">
        <ele>2341.8</ele>
        <time>2024-08-10T07:57:07Z</time>
      </trkpt>
      <trkpt lat="45.0623" lon="6.23702">
        <ele>2342</ele>
        <time>2024-08-10T07:57:08Z</time>
      </trkpt>
      <trkpt lat="45.06228" lon="6.23703">
        <ele>2342.2</ele>
        <time>2024-08-10T07:57:09Z</time>
      </trkpt>
      <trkpt lat="45.06228" lon="6.23703">
        <ele>2342.4</ele>
        <time>2024-08-10T07:57:10Z</time>
      </trkpt>
      <trkpt lat="45.06228" lon="6.23703">
        <ele>2342.6</ele>
        <time>2024-08-10T07:57:11Z</time>
      </trkpt>
      <trkpt lat="45.06225" lon="6.23702">
        <ele>2342.6</ele>
        <time>2024-08-10T07:57:12Z</time>
      </trkpt>
      <trkpt lat="45.06225" lon="6.23702">
        <ele>2342.8</ele>
        <time>2024-08-10T07:57:13Z</time>
      </trkpt>
      <trkpt lat="45.06225" lon="6.23702">
        <ele>2342.8</ele>
        <time>2024-08-10T07:57:14Z</time>
      </trkpt>
      <trkpt lat="45.06224" lon="6.23705">
        <ele>2343.4</ele>
        <time>2024-08-10T07:57:15Z</time>
      </trkpt>
      <trkpt lat="45.06224" lon="6.23705">
        <ele>2343.8</ele>
        <time>2024-08-10T07:57:16Z</time>
      </trkpt>
      <trkpt lat="45.06223" lon="6.23708">
        <ele>2343.8</ele>
        <time>2024-08-10T07:57:17Z</time>
      </trkpt>
      <trkpt lat="45.06223" lon="6.23708">
        <ele>2343.8</ele>
        <time>2024-08-10T07:57:18Z</time>
      </trkpt>
      <trkpt lat="45.06222" lon="6.23711">
        <ele>2343.8</ele>
        <time>2024-08-10T07:57:19Z</time>
      </trkpt>
      <trkpt lat="45.06222" lon="6.23711">
        <ele>2343.8</ele>
        <time>2024-08-10T07:57:20Z</time>
      </trkpt>
      <trkpt lat="45.06222" lon="6.23713">
        <ele>2343.8</ele>
        <time>2024-08-10T07:57:21Z</time>
      </trkpt>
      <trkpt lat="45.06222" lon="6.23713">
        <ele>2343.8</ele>
        <time>2024-08-10T07:57:22Z</time>
      </trkpt>
      <trkpt lat="45.0622" lon="6.23715">
        <ele>2344</ele>
        <time>2024-08-10T07:57:23Z</time>
      </trkpt>
      <trkpt lat="45.0622" lon="6.23715">
        <ele>2344</ele>
        <time>2024-08-10T07:57:24Z</time>
      </trkpt>
      <trkpt lat="45.06219" lon="6.23717">
        <ele>2344</ele>
        <time>2024-08-10T07:57:25Z</time>
      </trkpt>
      <trkpt lat="45.06219" lon="6.23717">
        <ele>2344</ele>
        <time>2024-08-10T07:57:26Z</time>
      </trkpt>
      <trkpt lat="45.06217" lon="6.23719">
        <ele>2344.2</ele>
        <time>2024-08-10T07:57:27Z</time>
      </trkpt>
      <trkpt lat="45.06217" lon="6.23719">
        <ele>2344.4</ele>
        <time>2024-08-10T07:57:28Z</time>
      </trkpt>
      <trkpt lat="45.06217" lon="6.23719">
        <ele>2344.8</ele>
        <time>2024-08-10T07:57:29Z</time>
      </trkpt>
      <trkpt lat="45.06215" lon="6.2372">
        <ele>2344.8</ele>
        <time>2024-08-10T07:57:30Z</time>
      </trkpt>
      <trkpt lat="45.06215" lon="6.2372">
        <ele>2345.2</ele>
        <time>2024-08-10T07:57:31Z</time>
      </trkpt>
      <trkpt lat="45.06214" lon="6.23722">
        <ele>2345.2</ele>
        <time>2024-08-10T07:57:32Z</time>
      </trkpt>
      <trkpt lat="45.06214" lon="6.23722">
        <ele>2345.2</ele>
        <time>2024-08-10T07:57:33Z</time>
      </trkpt>
      <trkpt lat="45.06212" lon="6.23724">
        <ele>2345.2</ele>
        <time>2024-08-10T07:57:34Z</time>
      </trkpt>
      <trkpt lat="45.06212" lon="6.23724">
        <ele>2345.2</ele>
        <time>2024-08-10T07:57:35Z</time>
      </trkpt>
      <trkpt lat="45.06212" lon="6.23724">
        <ele>2345.4</ele>
        <time>2024-08-10T07:57:36Z</time>
      </trkpt>
      <trkpt lat="45.0621" lon="6.23725">
        <ele>2346.2</ele>
        <time>2024-08-10T07:57:37Z</time>
      </trkpt>
      <trkpt lat="45.0621" lon="6.23725">
        <ele>2346.2</ele>
        <time>2024-08-10T07:57:38Z</time>
      </trkpt>
      <trkpt lat="45.06208" lon="6.23727">
        <ele>2346.2</ele>
        <time>2024-08-10T07:57:39Z</time>
      </trkpt>
      <trkpt lat="45.06208" lon="6.23727">
        <ele>2347</ele>
        <time>2024-08-10T07:57:40Z</time>
      </trkpt>
      <trkpt lat="45.06208" lon="6.23727">
        <ele>2347</ele>
        <time>2024-08-10T07:57:41Z</time>
      </trkpt>
      <trkpt lat="45.06206" lon="6.23729">
        <ele>2347</ele>
        <time>2024-08-10T07:57:42Z</time>
      </trkpt>
      <trkpt lat="45.06206" lon="6.23729">
        <ele>2347.4</ele>
        <time>2024-08-10T07:57:43Z</time>
      </trkpt>
      <trkpt lat="45.06204" lon="6.2373">
        <ele>2347.6</ele>
        <time>2024-08-10T07:57:44Z</time>
      </trkpt>
      <trkpt lat="45.06204" lon="6.2373">
        <ele>2347.6</ele>
        <time>2024-08-10T07:57:45Z</time>
      </trkpt>
      <trkpt lat="45.06202" lon="6.2373">
        <ele>2347.6</ele>
        <time>2024-08-10T07:57:46Z</time>
      </trkpt>
      <trkpt lat="45.06202" lon="6.2373">
        <ele>2347.6</ele>
        <time>2024-08-10T07:57:47Z</time>
      </trkpt>
      <trkpt lat="45.062" lon="6.23731">
        <ele>2347.6</ele>
        <time>2024-08-10T07:57:48Z</time>
      </trkpt>
      <trkpt lat="45.062" lon="6.23731">
        <ele>2348</ele>
        <time>2024-08-10T07:57:49Z</time>
      </trkpt>
      <trkpt lat="45.06198" lon="6.23732">
        <ele>2348.2</ele>
        <time>2024-08-10T07:57:50Z</time>
      </trkpt>
      <trkpt lat="45.06198" lon="6.23732">
        <ele>2348.4</ele>
        <time>2024-08-10T07:57:51Z</time>
      </trkpt>
      <trkpt lat="45.06198" lon="6.23732">
        <ele>2348.6</ele>
        <time>2024-08-10T07:57:52Z</time>
      </trkpt>
      <trkpt lat="45.06196" lon="6.23734">
        <ele>2348.6</ele>
        <time>2024-08-10T07:57:53Z</time>
      </trkpt>
      <trkpt lat="45.06196" lon="6.23734">
        <ele>2348.6</ele>
        <time>2024-08-10T07:57:54Z</time>
      </trkpt>
      <trkpt lat="45.06196" lon="6.23734">
        <ele>2348.6</ele>
        <time>2024-08-10T07:57:55Z</time>
      </trkpt>
      <trkpt lat="45.06195" lon="6.23737">
        <ele>2349</ele>
        <time>2024-08-10T07:57:56Z</time>
      </trkpt>
      <trkpt lat="45.06195" lon="6.23737">
        <ele>2349</ele>
        <time>2024-08-10T07:57:57Z</time>
      </trkpt>
      <trkpt lat="45.06195" lon="6.23737">
        <ele>2349.4</ele>
        <time>2024-08-10T07:57:58Z</time>
      </trkpt>
      <trkpt lat="45.06192" lon="6.23739">
        <ele>2349.4</ele>
        <time>2024-08-10T07:57:59Z</time>
      </trkpt>
      <trkpt lat="45.06192" lon="6.23739">
        <ele>2349.4</ele>
        <time>2024-08-10T07:58:00Z</time>
      </trkpt>
      <trkpt lat="45.0619" lon="6.2374">
        <ele>2349.6</ele>
        <time>2024-08-10T07:58:01Z</time>
      </trkpt>
      <trkpt lat="45.0619" lon="6.2374">
        <ele>2349.6</ele>
        <time>2024-08-10T07:58:02Z</time>
      </trkpt>
      <trkpt lat="45.06189" lon="6.23741">
        <ele>2349.6</ele>
        <time>2024-08-10T07:58:03Z</time>
      </trkpt>
      <trkpt lat="45.06189" lon="6.23741">
        <ele>2349.6</ele>
        <time>2024-08-10T07:58:04Z</time>
      </trkpt>
      <trkpt lat="45.06187" lon="6.23743">
        <ele>2349.8</ele>
        <time>2024-08-10T07:58:05Z</time>
      </trkpt>
      <trkpt lat="45.06187" lon="6.23743">
        <ele>2350</ele>
        <time>2024-08-10T07:58:06Z</time>
      </trkpt>
      <trkpt lat="45.06187" lon="6.23743">
        <ele>2350.2</ele>
        <time>2024-08-10T07:58:07Z</time>
      </trkpt>
      <trkpt lat="45.06185" lon="6.23745">
        <ele>2350.2</ele>
        <time>2024-08-10T07:58:08Z</time>
      </trkpt>
      <trkpt lat="45.06185" lon="6.23745">
        <ele>2350.2</ele>
        <time>2024-08-10T07:58:09Z</time>
      </trkpt>
      <trkpt lat="45.06183" lon="6.23747">
        <ele>2350.2</ele>
        <time>2024-08-10T07:58:10Z</time>
      </trkpt>
      <trkpt lat="45.06183" lon="6.23747">
        <ele>2351</ele>
        <time>2024-08-10T07:58:11Z</time>
      </trkpt>
      <trkpt lat="45.06183" lon="6.23747">
        <ele>2351.2</ele>
        <time>2024-08-10T07:58:12Z</time>
      </trkpt>
      <trkpt lat="45.06183" lon="6.23747">
        <ele>2351.4</ele>
        <time>2024-08-10T07:58:13Z</time>
      </trkpt>
      <trkpt lat="45.06182" lon="6.23749">
        <ele>2351.4</ele>
        <time>2024-08-10T07:58:14Z</time>
      </trkpt>
      <trkpt lat="45.06182" lon="6.23749">
        <ele>2351.6</ele>
        <time>2024-08-10T07:58:15Z</time>
      </trkpt>
      <trkpt lat="45.06182" lon="6.23749">
        <ele>2351.6</ele>
        <time>2024-08-10T07:58:16Z</time>
      </trkpt>
      <trkpt lat="45.06182" lon="6.23749">
        <ele>2351.4</ele>
        <time>2024-08-10T07:58:17Z</time>
      </trkpt>
      <trkpt lat="45.06182" lon="6.23749">
        <ele>2351.2</ele>
        <time>2024-08-10T07:58:18Z</time>
      </trkpt>
      <trkpt lat="45.06182" lon="6.23749">
        <ele>2351.2</ele>
        <time>2024-08-10T07:58:19Z</time>
      </trkpt>
      <trkpt lat="45.06181" lon="6.23751">
        <ele>2351.6</ele>
        <time>2024-08-10T07:58:20Z</time>
      </trkpt>
      <trkpt lat="45.06181" lon="6.23751">
        <ele>2351.6</ele>
        <time>2024-08-10T07:58:21Z</time>
      </trkpt>
      <trkpt lat="45.0618" lon="6.23754">
        <ele>2351.8</ele>
        <time>2024-08-10T07:58:22Z</time>
      </trkpt>
      <trkpt lat="45.0618" lon="6.23754">
        <ele>2352</ele>
        <time>2024-08-10T07:58:23Z</time>
      </trkpt>
      <trkpt lat="45.0618" lon="6.23754">
        <ele>2352</ele>
        <time>2024-08-10T07:58:24Z</time>
      </trkpt>
      <trkpt lat="45.06179" lon="6.23757">
        <ele>2352</ele>
        <time>2024-08-10T07:58:25Z</time>
      </trkpt>
      <trkpt lat="45.06179" lon="6.23757">
        <ele>2352.2</ele>
        <time>2024-08-10T07:58:26Z</time>
      </trkpt>
      <trkpt lat="45.06179" lon="6.23757">
        <ele>2352.4</ele>
        <time>2024-08-10T07:58:27Z</time>
      </trkpt>
      <trkpt lat="45.06177" lon="6.23759">
        <ele>2352.4</ele>
        <time>2024-08-10T07:58:28Z</time>
      </trkpt>
      <trkpt lat="45.06177" lon="6.23759">
        <ele>2352.6</ele>
        <time>2024-08-10T07:58:29Z</time>
      </trkpt>
      <trkpt lat="45.06177" lon="6.23759">
        <ele>2353</ele>
        <time>2024-08-10T07:58:30Z</time>
      </trkpt>
      <trkpt lat="45.06174" lon="6.23761">
        <ele>2353.2</ele>
        <time>2024-08-10T07:58:31Z</time>
      </trkpt>
      <trkpt lat="45.06174" lon="6.23761">
        <ele>2353.2</ele>
        <time>2024-08-10T07:58:32Z</time>
      </trkpt>
      <trkpt lat="45.06174" lon="6.23761">
        <ele>2353.4</ele>
        <time>2024-08-10T07:58:33Z</time>
      </trkpt>
      <trkpt lat="45.06173" lon="6.23762">
        <ele>2353.6</ele>
        <time>2024-08-10T07:58:34Z</time>
      </trkpt>
      <trkpt lat="45.06173" lon="6.23762">
        <ele>2353.6</ele>
        <time>2024-08-10T07:58:35Z</time>
      </trkpt>
      <trkpt lat="45.06173" lon="6.23762">
        <ele>2354.2</ele>
        <time>2024-08-10T07:58:36Z</time>
      </trkpt>
      <trkpt lat="45.06172" lon="6.23764">
        <ele>2354.2</ele>
        <time>2024-08-10T07:58:37Z</time>
      </trkpt>
      <trkpt lat="45.06172" lon="6.23764">
        <ele>2354.2</ele>
        <time>2024-08-10T07:58:38Z</time>
      </trkpt>
      <trkpt lat="45.06172" lon="6.23764">
        <ele>2354.4</ele>
        <time>2024-08-10T07:58:39Z</time>
      </trkpt>
      <trkpt lat="45.0617" lon="6.23766">
        <ele>2354.6</ele>
        <time>2024-08-10T07:58:40Z</time>
      </trkpt>
      <trkpt lat="45.0617" lon="6.23766">
        <ele>2354.8</ele>
        <time>2024-08-10T07:58:41Z</time>
      </trkpt>
      <trkpt lat="45.06168" lon="6.23769">
        <ele>2355.2</ele>
        <time>2024-08-10T07:58:42Z</time>
      </trkpt>
      <trkpt lat="45.06168" lon="6.23769">
        <ele>2355.4</ele>
        <time>2024-08-10T07:58:43Z</time>
      </trkpt>
      <trkpt lat="45.06168" lon="6.23769">
        <ele>2355.6</ele>
        <time>2024-08-10T07:58:44Z</time>
      </trkpt>
      <trkpt lat="45.06167" lon="6.23771">
        <ele>2355.8</ele>
        <time>2024-08-10T07:58:45Z</time>
      </trkpt>
      <trkpt lat="45.06167" lon="6.23771">
        <ele>2355.8</ele>
        <time>2024-08-10T07:58:46Z</time>
      </trkpt>
      <trkpt lat="45.06167" lon="6.23771">
        <ele>2356</ele>
        <time>2024-08-10T07:58:47Z</time>
      </trkpt>
      <trkpt lat="45.06165" lon="6.23774">
        <ele>2356</ele>
        <time>2024-08-10T07:58:48Z</time>
      </trkpt>
      <trkpt lat="45.06165" lon="6.23774">
        <ele>2356.2</ele>
        <time>2024-08-10T07:58:49Z</time>
      </trkpt>
      <trkpt lat="45.06165" lon="6.23774">
        <ele>2356.6</ele>
        <time>2024-08-10T07:58:50Z</time>
      </trkpt>
      <trkpt lat="45.06163" lon="6.23775">
        <ele>2356.8</ele>
        <time>2024-08-10T07:58:51Z</time>
      </trkpt>
      <trkpt lat="45.06163" lon="6.23775">
        <ele>2357</ele>
        <time>2024-08-10T07:58:52Z</time>
      </trkpt>
      <trkpt lat="45.06163" lon="6.23775">
        <ele>2357.2</ele>
        <time>2024-08-10T07:58:53Z</time>
      </trkpt>
      <trkpt lat="45.0616" lon="6.23777">
        <ele>2357.4</ele>
        <time>2024-08-10T07:58:54Z</time>
      </trkpt>
      <trkpt lat="45.0616" lon="6.23777">
        <ele>2357.8</ele>
        <time>2024-08-10T07:58:55Z</time>
      </trkpt>
      <trkpt lat="45.06158" lon="6.23777">
        <ele>2357.8</ele>
        <time>2024-08-10T07:58:56Z</time>
      </trkpt>
      <trkpt lat="45.06158" lon="6.23777">
        <ele>2358</ele>
        <time>2024-08-10T07:58:57Z</time>
      </trkpt>
      <trkpt lat="45.06157" lon="6.23778">
        <ele>2358.2</ele>
        <time>2024-08-10T07:58:58Z</time>
      </trkpt>
      <trkpt lat="45.06157" lon="6.23778">
        <ele>2358.6</ele>
        <time>2024-08-10T07:58:59Z</time>
      </trkpt>
      <trkpt lat="45.06155" lon="6.23779">
        <ele>2358.6</ele>
        <time>2024-08-10T07:59:00Z</time>
      </trkpt>
      <trkpt lat="45.06155" lon="6.23779">
        <ele>2358.6</ele>
        <time>2024-08-10T07:59:01Z</time>
      </trkpt>
      <trkpt lat="45.06155" lon="6.23779">
        <ele>2358.8</ele>
        <time>2024-08-10T07:59:02Z</time>
      </trkpt>
      <trkpt lat="45.06153" lon="6.23782">
        <ele>2359.2</ele>
        <time>2024-08-10T07:59:03Z</time>
      </trkpt>
      <trkpt lat="45.06153" lon="6.23782">
        <ele>2359.2</ele>
        <time>2024-08-10T07:59:04Z</time>
      </trkpt>
      <trkpt lat="45.06153" lon="6.23782">
        <ele>2359.2</ele>
        <time>2024-08-10T07:59:05Z</time>
      </trkpt>
      <trkpt lat="45.06151" lon="6.23784">
        <ele>2359.4</ele>
        <time>2024-08-10T07:59:06Z</time>
      </trkpt>
      <trkpt lat="45.06151" lon="6.23784">
        <ele>2359.6</ele>
        <time>2024-08-10T07:59:07Z</time>
      </trkpt>
      <trkpt lat="45.06151" lon="6.23784">
        <ele>2359.8</ele>
        <time>2024-08-10T07:59:08Z</time>
      </trkpt>
      <trkpt lat="45.06148" lon="6.23786">
        <ele>2359.8</ele>
        <time>2024-08-10T07:59:09Z</time>
      </trkpt>
      <trkpt lat="45.06148" lon="6.23786">
        <ele>2359.8</ele>
        <time>2024-08-10T07:59:10Z</time>
      </trkpt>
      <trkpt lat="45.06147" lon="6.23788">
        <ele>2360.2</ele>
        <time>2024-08-10T07:59:11Z</time>
      </trkpt>
      <trkpt lat="45.06147" lon="6.23788">
        <ele>2360.6</ele>
        <time>2024-08-10T07:59:12Z</time>
      </trkpt>
      <trkpt lat="45.06145" lon="6.23789">
        <ele>2361</ele>
        <time>2024-08-10T07:59:13Z</time>
      </trkpt>
      <trkpt lat="45.06145" lon="6.23789">
        <ele>2361</ele>
        <time>2024-08-10T07:59:14Z</time>
      </trkpt>
      <trkpt lat="45.06143" lon="6.23791">
        <ele>2361</ele>
        <time>2024-08-10T07:59:15Z</time>
      </trkpt>
      <trkpt lat="45.06143" lon="6.23791">
        <ele>2361</ele>
        <time>2024-08-10T07:59:16Z</time>
      </trkpt>
      <trkpt lat="45.06143" lon="6.23791">
        <ele>2361.4</ele>
        <time>2024-08-10T07:59:17Z</time>
      </trkpt>
      <trkpt lat="45.06141" lon="6.23793">
        <ele>2361.4</ele>
        <time>2024-08-10T07:59:18Z</time>
      </trkpt>
      <trkpt lat="45.06141" lon="6.23793">
        <ele>2361.8</ele>
        <time>2024-08-10T07:59:19Z</time>
      </trkpt>
      <trkpt lat="45.0614" lon="6.23795">
        <ele>2362</ele>
        <time>2024-08-10T07:59:20Z</time>
      </trkpt>
      <trkpt lat="45.0614" lon="6.23795">
        <ele>2362</ele>
        <time>2024-08-10T07:59:21Z</time>
      </trkpt>
      <trkpt lat="45.0614" lon="6.23795">
        <ele>2362</ele>
        <time>2024-08-10T07:59:22Z</time>
      </trkpt>
      <trkpt lat="45.06137" lon="6.23796">
        <ele>2362.2</ele>
        <time>2024-08-10T07:59:23Z</time>
      </trkpt>
      <trkpt lat="45.06137" lon="6.23796">
        <ele>2362.8</ele>
        <time>2024-08-10T07:59:24Z</time>
      </trkpt>
      <trkpt lat="45.06135" lon="6.23797">
        <ele>2363</ele>
        <time>2024-08-10T07:59:25Z</time>
      </trkpt>
      <trkpt lat="45.06135" lon="6.23797">
        <ele>2363.2</ele>
        <time>2024-08-10T07:59:26Z</time>
      </trkpt>
      <trkpt lat="45.06135" lon="6.23797">
        <ele>2363.2</ele>
        <time>2024-08-10T07:59:27Z</time>
      </trkpt>
      <trkpt lat="45.06133" lon="6.23799">
        <ele>2363.2</ele>
        <time>2024-08-10T07:59:28Z</time>
      </trkpt>
      <trkpt lat="45.06133" lon="6.23799">
        <ele>2363.4</ele>
        <time>2024-08-10T07:59:29Z</time>
      </trkpt>
      <trkpt lat="45.06131" lon="6.238">
        <ele>2363.6</ele>
        <time>2024-08-10T07:59:30Z</time>
      </trkpt>
      <trkpt lat="45.06131" lon="6.238">
        <ele>2363.6</ele>
        <time>2024-08-10T07:59:31Z</time>
      </trkpt>
      <trkpt lat="45.06129" lon="6.23801">
        <ele>2363.6</ele>
        <time>2024-08-10T07:59:32Z</time>
      </trkpt>
      <trkpt lat="45.06129" lon="6.23801">
        <ele>2364</ele>
        <time>2024-08-10T07:59:33Z</time>
      </trkpt>
      <trkpt lat="45.06127" lon="6.23803">
        <ele>2364.2</ele>
        <time>2024-08-10T07:59:34Z</time>
      </trkpt>
      <trkpt lat="45.06127" lon="6.23803">
        <ele>2364.2</ele>
        <time>2024-08-10T07:59:35Z</time>
      </trkpt>
      <trkpt lat="45.06125" lon="6.23803">
        <ele>2364.2</ele>
        <time>2024-08-10T07:59:36Z</time>
      </trkpt>
      <trkpt lat="45.06125" lon="6.23803">
        <ele>2364.2</ele>
        <time>2024-08-10T07:59:37Z</time>
      </trkpt>
      <trkpt lat="45.06123" lon="6.23804">
        <ele>2364.6</ele>
        <time>2024-08-10T07:59:38Z</time>
      </trkpt>
      <trkpt lat="45.06123" lon="6.23804">
        <ele>2365.2</ele>
        <time>2024-08-10T07:59:39Z</time>
      </trkpt>
      <trkpt lat="45.06121" lon="6.23805">
        <ele>2365.2</ele>
        <time>2024-08-10T07:59:40Z</time>
      </trkpt>
      <trkpt lat="45.06121" lon="6.23805">
        <ele>2365.2</ele>
        <time>2024-08-10T07:59:41Z</time>
      </trkpt>
      <trkpt lat="45.06119" lon="6.23806">
        <ele>2365.2</ele>
        <time>2024-08-10T07:59:42Z</time>
      </trkpt>
      <trkpt lat="45.06119" lon="6.23806">
        <ele>2365.4</ele>
        <time>2024-08-10T07:59:43Z</time>
      </trkpt>
      <trkpt lat="45.06119" lon="6.23806">
        <ele>2365.6</ele>
        <time>2024-08-10T07:59:44Z</time>
      </trkpt>
      <trkpt lat="45.06117" lon="6.23807">
        <ele>2365.8</ele>
        <time>2024-08-10T07:59:45Z</time>
      </trkpt>
      <trkpt lat="45.06117" lon="6.23807">
        <ele>2366</ele>
        <time>2024-08-10T07:59:46Z</time>
      </trkpt>
      <trkpt lat="45.06117" lon="6.23807">
        <ele>2366.2</ele>
        <time>2024-08-10T07:59:47Z</time>
      </trkpt>
      <trkpt lat="45.06117" lon="6.23807">
        <ele>2366.2</ele>
        <time>2024-08-10T07:59:48Z</time>
      </trkpt>
      <trkpt lat="45.06115" lon="6.23807">
        <ele>2366.2</ele>
        <time>2024-08-10T07:59:49Z</time>
      </trkpt>
      <trkpt lat="45.06115" lon="6.23807">
        <ele>2366.2</ele>
        <time>2024-08-10T07:59:50Z</time>
      </trkpt>
      <trkpt lat="45.06112" lon="6.23808">
        <ele>2366.6</ele>
        <time>2024-08-10T07:59:51Z</time>
      </trkpt>
      <trkpt lat="45.06112" lon="6.23808">
        <ele>2366.6</ele>
        <time>2024-08-10T07:59:52Z</time>
      </trkpt>
      <trkpt lat="45.0611" lon="6.23809">
        <ele>2366.6</ele>
        <time>2024-08-10T07:59:53Z</time>
      </trkpt>
      <trkpt lat="45.0611" lon="6.23809">
        <ele>2366.8</ele>
        <time>2024-08-10T07:59:54Z</time>
      </trkpt>
      <trkpt lat="45.06108" lon="6.23809">
        <ele>2366.8</ele>
        <time>2024-08-10T07:59:55Z</time>
      </trkpt>
      <trkpt lat="45.06108" lon="6.23809">
        <ele>2367</ele>
        <time>2024-08-10T07:59:56Z</time>
      </trkpt>
      <trkpt lat="45.06106" lon="6.23811">
        <ele>2367.2</ele>
        <time>2024-08-10T07:59:57Z</time>
      </trkpt>
      <trkpt lat="45.06106" lon="6.23811">
        <ele>2367.2</ele>
        <time>2024-08-10T07:59:58Z</time>
      </trkpt>
      <trkpt lat="45.06104" lon="6.23813">
        <ele>2367.4</ele>
        <time>2024-08-10T07:59:59Z</time>
      </trkpt>
      <trkpt lat="45.06104" lon="6.23813">
        <ele>2367.4</ele>
        <time>2024-08-10T08:00:00Z</time>
      </trkpt>
      <trkpt lat="45.06102" lon="6.23815">
        <ele>2367.6</ele>
        <time>2024-08-10T08:00:01Z</time>
      </trkpt>
      <trkpt lat="45.06102" lon="6.23815">
        <ele>2367.8</ele>
        <time>2024-08-10T08:00:02Z</time>
      </trkpt>
      <trkpt lat="45.061" lon="6.23816">
        <ele>2367.8</ele>
        <time>2024-08-10T08:00:03Z</time>
      </trkpt>
      <trkpt lat="45.061" lon="6.23816">
        <ele>2367.8</ele>
        <time>2024-08-10T08:00:04Z</time>
      </trkpt>
      <trkpt lat="45.06098" lon="6.23818">
        <ele>2368</ele>
        <time>2024-08-10T08:00:05Z</time>
      </trkpt>
      <trkpt lat="45.06098" lon="6.23818">
        <ele>2368</ele>
        <time>2024-08-10T08:00:06Z</time>
      </trkpt>
      <trkpt lat="45.06098" lon="6.23818">
        <ele>2368</ele>
        <time>2024-08-10T08:00:07Z</time>
      </trkpt>
      <trkpt lat="45.06097" lon="6.23821">
        <ele>2368</ele>
        <time>2024-08-10T08:00:08Z</time>
      </trkpt>
      <trkpt lat="45.06097" lon="6.23821">
        <ele>2368.2</ele>
        <time>2024-08-10T08:00:09Z</time>
      </trkpt>
      <trkpt lat="45.06095" lon="6.23822">
        <ele>2368.4</ele>
        <time>2024-08-10T08:00:10Z</time>
      </trkpt>
      <trkpt lat="45.06095" lon="6.23822">
        <ele>2368.6</ele>
        <time>2024-08-10T08:00:11Z</time>
      </trkpt>
      <trkpt lat="45.06093" lon="6.23824">
        <ele>2368.8</ele>
        <time>2024-08-10T08:00:12Z</time>
      </trkpt>
      <trkpt lat="45.06093" lon="6.23824">
        <ele>2369.2</ele>
        <time>2024-08-10T08:00:13Z</time>
      </trkpt>
      <trkpt lat="45.06091" lon="6.23826">
        <ele>2369.4</ele>
        <time>2024-08-10T08:00:14Z</time>
      </trkpt>
      <trkpt lat="45.06091" lon="6.23826">
        <ele>2369.6</ele>
        <time>2024-08-10T08:00:15Z</time>
      </trkpt>
      <trkpt lat="45.06089" lon="6.23828">
        <ele>2369.8</ele>
        <time>2024-08-10T08:00:16Z</time>
      </trkpt>
      <trkpt lat="45.06089" lon="6.23828">
        <ele>2369.8</ele>
        <time>2024-08-10T08:00:17Z</time>
      </trkpt>
      <trkpt lat="45.06087" lon="6.23829">
        <ele>2370</ele>
        <time>2024-08-10T08:00:18Z</time>
      </trkpt>
      <trkpt lat="45.06087" lon="6.23829">
        <ele>2370</ele>
        <time>2024-08-10T08:00:19Z</time>
      </trkpt>
      <trkpt lat="45.06085" lon="6.23831">
        <ele>2370</ele>
        <time>2024-08-10T08:00:20Z</time>
      </trkpt>
      <trkpt lat="45.06085" lon="6.23831">
        <ele>2370</ele>
        <time>2024-08-10T08:00:21Z</time>
      </trkpt>
      <trkpt lat="45.06083" lon="6.23833">
        <ele>2370.2</ele>
        <time>2024-08-10T08:00:22Z</time>
      </trkpt>
      <trkpt lat="45.06083" lon="6.23833">
        <ele>2370.4</ele>
        <time>2024-08-10T08:00:23Z</time>
      </trkpt>
      <trkpt lat="45.06081" lon="6.23834">
        <ele>2370.6</ele>
        <time>2024-08-10T08:00:24Z</time>
      </trkpt>
      <trkpt lat="45.06081" lon="6.23834">
        <ele>2370.8</ele>
        <time>2024-08-10T08:00:25Z</time>
      </trkpt>
      <trkpt lat="45.06078" lon="6.23835">
        <ele>2371.2</ele>
        <time>2024-08-10T08:00:26Z</time>
      </trkpt>
      <trkpt lat="45.06078" lon="6.23835">
        <ele>2371.2</ele>
        <time>2024-08-10T08:00:27Z</time>
      </trkpt>
      <trkpt lat="45.06076" lon="6.23836">
        <ele>2371</ele>
        <time>2024-08-10T08:00:28Z</time>
      </trkpt>
      <trkpt lat="45.06076" lon="6.23836">
        <ele>2371</ele>
        <time>2024-08-10T08:00:29Z</time>
      </trkpt>
      <trkpt lat="45.06073" lon="6.23837">
        <ele>2371</ele>
        <time>2024-08-10T08:00:30Z</time>
      </trkpt>
      <trkpt lat="45.06073" lon="6.23837">
        <ele>2371</ele>
        <time>2024-08-10T08:00:31Z</time>
      </trkpt>
      <trkpt lat="45.06071" lon="6.23837">
        <ele>2371</ele>
        <time>2024-08-10T08:00:32Z</time>
      </trkpt>
      <trkpt lat="45.06071" lon="6.23837">
        <ele>2371</ele>
        <time>2024-08-10T08:00:33Z</time>
      </trkpt>
      <trkpt lat="45.06069" lon="6.23838">
        <ele>2371</ele>
        <time>2024-08-10T08:00:34Z</time>
      </trkpt>
      <trkpt lat="45.06069" lon="6.23838">
        <ele>2371</ele>
        <time>2024-08-10T08:00:35Z</time>
      </trkpt>
      <trkpt lat="45.06067" lon="6.23838">
        <ele>2371.2</ele>
        <time>2024-08-10T08:00:36Z</time>
      </trkpt>
      <trkpt lat="45.06067" lon="6.23838">
        <ele>2371.2</ele>
        <time>2024-08-10T08:00:37Z</time>
      </trkpt>
      <trkpt lat="45.06063" lon="6.23839">
        <ele>2371.2</ele>
        <time>2024-08-10T08:00:38Z</time>
      </trkpt>
      <trkpt lat="45.06063" lon="6.23839">
        <ele>2371.6</ele>
        <time>2024-08-10T08:00:39Z</time>
      </trkpt>
      <trkpt lat="45.06061" lon="6.23839">
        <ele>2371.6</ele>
        <time>2024-08-10T08:00:40Z</time>
      </trkpt>
      <trkpt lat="45.06061" lon="6.23839">
        <ele>2371.4</ele>
        <time>2024-08-10T08:00:41Z</time>
      </trkpt>
      <trkpt lat="45.06059" lon="6.2384">
        <ele>2371.4</ele>
        <time>2024-08-10T08:00:42Z</time>
      </trkpt>
      <trkpt lat="45.06059" lon="6.2384">
        <ele>2371.8</ele>
        <time>2024-08-10T08:00:43Z</time>
      </trkpt>
      <trkpt lat="45.06056" lon="6.2384">
        <ele>2371.8</ele>
        <time>2024-08-10T08:00:44Z</time>
      </trkpt>
      <trkpt lat="45.06056" lon="6.2384">
        <ele>2371.8</ele>
        <time>2024-08-10T08:00:45Z</time>
      </trkpt>
      <trkpt lat="45.06053" lon="6.23841">
        <ele>2371.8</ele>
        <time>2024-08-10T08:00:46Z</time>
      </trkpt>
      <trkpt lat="45.06053" lon="6.23841">
        <ele>2372</ele>
        <time>2024-08-10T08:00:47Z</time>
      </trkpt>
      <trkpt lat="45.06051" lon="6.23841">
        <ele>2372</ele>
        <time>2024-08-10T08:00:48Z</time>
      </trkpt>
      <trkpt lat="45.06051" lon="6.23841">
        <ele>2372</ele>
        <time>2024-08-10T08:00:49Z</time>
      </trkpt>
      <trkpt lat="45.06049" lon="6.23841">
        <ele>2372</ele>
        <time>2024-08-10T08:00:50Z</time>
      </trkpt>
      <trkpt lat="45.06049" lon="6.23841">
        <ele>2372</ele>
        <time>2024-08-10T08:00:51Z</time>
      </trkpt>
      <trkpt lat="45.06047" lon="6.23842">
        <ele>2372.2</ele>
        <time>2024-08-10T08:00:52Z</time>
      </trkpt>
      <trkpt lat="45.06047" lon="6.23842">
        <ele>2372.2</ele>
        <time>2024-08-10T08:00:53Z</time>
      </trkpt>
      <trkpt lat="45.06045" lon="6.23844">
        <ele>2372.4</ele>
        <time>2024-08-10T08:00:54Z</time>
      </trkpt>
      <trkpt lat="45.06045" lon="6.23844">
        <ele>2372.4</ele>
        <time>2024-08-10T08:00:55Z</time>
      </trkpt>
      <trkpt lat="45.06042" lon="6.23845">
        <ele>2372.4</ele>
        <time>2024-08-10T08:00:56Z</time>
      </trkpt>
      <trkpt lat="45.06042" lon="6.23845">
        <ele>2372.6</ele>
        <time>2024-08-10T08:00:57Z</time>
      </trkpt>
      <trkpt lat="45.06039" lon="6.23846">
        <ele>2372.8</ele>
        <time>2024-08-10T08:00:58Z</time>
      </trkpt>
      <trkpt lat="45.06039" lon="6.23846">
        <ele>2373</ele>
        <time>2024-08-10T08:00:59Z</time>
      </trkpt>
      <trkpt lat="45.06037" lon="6.23848">
        <ele>2373.2</ele>
        <time>2024-08-10T08:01:00Z</time>
      </trkpt>
      <trkpt lat="45.06037" lon="6.23848">
        <ele>2373.2</ele>
        <time>2024-08-10T08:01:01Z</time>
      </trkpt>
      <trkpt lat="45.06035" lon="6.23849">
        <ele>2373.2</ele>
        <time>2024-08-10T08:01:02Z</time>
      </trkpt>
      <trkpt lat="45.06035" lon="6.23849">
        <ele>2373.4</ele>
        <time>2024-08-10T08:01:03Z</time>
      </trkpt>
      <trkpt lat="45.06032" lon="6.23851">
        <ele>2373.4</ele>
        <time>2024-08-10T08:01:04Z</time>
      </trkpt>
      <trkpt lat="45.06032" lon="6.23851">
        <ele>2373.2</ele>
        <time>2024-08-10T08:01:05Z</time>
      </trkpt>
      <trkpt lat="45.06029" lon="6.23852">
        <ele>2373.2</ele>
        <time>2024-08-10T08:01:06Z</time>
      </trkpt>
      <trkpt lat="45.06029" lon="6.23852">
        <ele>2373</ele>
        <time>2024-08-10T08:01:07Z</time>
      </trkpt>
      <trkpt lat="45.06027" lon="6.23854">
        <ele>2372.6</ele>
        <time>2024-08-10T08:01:08Z</time>
      </trkpt>
      <trkpt lat="45.06027" lon="6.23854">
        <ele>2372</ele>
        <time>2024-08-10T08:01:09Z</time>
      </trkpt>
      <trkpt lat="45.06025" lon="6.23856">
        <ele>2372</ele>
        <time>2024-08-10T08:01:10Z</time>
      </trkpt>
      <trkpt lat="45.06025" lon="6.23856">
        <ele>2372.6</ele>
        <time>2024-08-10T08:01:11Z</time>
      </trkpt>
      <trkpt lat="45.06023" lon="6.23858">
        <ele>2372.6</ele>
        <time>2024-08-10T08:01:12Z</time>
      </trkpt>
      <trkpt lat="45.06023" lon="6.23858">
        <ele>2371.8</ele>
        <time>2024-08-10T08:01:13Z</time>
      </trkpt>
      <trkpt lat="45.06023" lon="6.23858">
        <ele>2371.6</ele>
        <time>2024-08-10T08:01:14Z</time>
      </trkpt>
      <trkpt lat="45.06021" lon="6.23859">
        <ele>2371.2</ele>
        <time>2024-08-10T08:01:15Z</time>
      </trkpt>
      <trkpt lat="45.06021" lon="6.23859">
        <ele>2371</ele>
        <time>2024-08-10T08:01:16Z</time>
      </trkpt>
      <trkpt lat="45.06021" lon="6.23859">
        <ele>2371</ele>
        <time>2024-08-10T08:01:17Z</time>
      </trkpt>
      <trkpt lat="45.06021" lon="6.23859">
        <ele>2371</ele>
        <time>2024-08-10T08:01:18Z</time>
      </trkpt>
      <trkpt lat="45.06021" lon="6.23859">
        <ele>2371</ele>
        <time>2024-08-10T08:01:19Z</time>
      </trkpt>
      <trkpt lat="45.06021" lon="6.23859">
        <ele>2371.4</ele>
        <time>2024-08-10T08:01:20Z</time>
      </trkpt>
      <trkpt lat="45.06021" lon="6.23859">
        <ele>2371.4</ele>
        <time>2024-08-10T08:01:21Z</time>
      </trkpt>
      <trkpt lat="45.06021" lon="6.23859">
        <ele>2371.6</ele>
        <time>2024-08-10T08:01:22Z</time>
      </trkpt>
      <trkpt lat="45.06021" lon="6.23859">
        <ele>2371.6</ele>
        <time>2024-08-10T08:01:23Z</time>
      </trkpt>
      <trkpt lat="45.06021" lon="6.23859">
        <ele>2371.6</ele>
        <time>2024-08-10T08:01:24Z</time>
      </trkpt>
      <trkpt lat="45.06021" lon="6.23859">
        <ele>2371.6</ele>
        <time>2024-08-10T08:01:25Z</time>
      </trkpt>
      <trkpt lat="45.06021" lon="6.23859">
        <ele>2371.6</ele>
        <time>2024-08-10T08:01:26Z</time>
      </trkpt>
      <trkpt lat="45.06021" lon="6.23859">
        <ele>2371.6</ele>
        <time>2024-08-10T08:01:27Z</time>
      </trkpt>
      <trkpt lat="45.06021" lon="6.23859">
        <ele>2371.6</ele>
        <time>2024-08-10T08:01:28Z</time>
      </trkpt>
      <trkpt lat="45.06021" lon="6.23859">
        <ele>2371.6</ele>
        <time>2024-08-10T08:01:29Z</time>
      </trkpt>
      <trkpt lat="45.06021" lon="6.23859">
        <ele>2371.4</ele>
        <time>2024-08-10T08:01:30Z</time>
      </trkpt>
      <trkpt lat="45.06021" lon="6.23859">
        <ele>2371.4</ele>
        <time>2024-08-10T08:01:31Z</time>
      </trkpt>
      <trkpt lat="45.06021" lon="6.23859">
        <ele>2371.4</ele>
        <time>2024-08-10T08:01:32Z</time>
      </trkpt>
      <trkpt lat="45.06021" lon="6.23859">
        <ele>2371.4</ele>
        <time>2024-08-10T08:01:33Z</time>
      </trkpt>
      <trkpt lat="45.06021" lon="6.23859">
        <ele>2371.4</ele>
        <time>2024-08-10T08:01:34Z</time>
      </trkpt>
      <trkpt lat="45.06021" lon="6.23859">
        <ele>2371.4</ele>
        <time>2024-08-10T08:01:35Z</time>
      </trkpt>
      <trkpt lat="45.06021" lon="6.23859">
        <ele>2371.4</ele>
        <time>2024-08-10T08:01:36Z</time>
      </trkpt>
      <trkpt lat="45.06021" lon="6.23859">
        <ele>2371.2</ele>
        <time>2024-08-10T08:01:37Z</time>
      </trkpt>
      <trkpt lat="45.06021" lon="6.23859">
        <ele>2371</ele>
        <time>2024-08-10T08:01:38Z</time>
      </trkpt>
      <trkpt lat="45.06021" lon="6.23859">
        <ele>2371</ele>
        <time>2024-08-10T08:01:39Z</time>
      </trkpt>
      <trkpt lat="45.06021" lon="6.23859">
        <ele>2371.2</ele>
        <time>2024-08-10T08:01:40Z</time>
      </trkpt>
      <trkpt lat="45.06021" lon="6.23859">
        <ele>2372</ele>
        <time>2024-08-10T08:01:41Z</time>
      </trkpt>
      <trkpt lat="45.06021" lon="6.23859">
        <ele>2372</ele>
        <time>2024-08-10T08:01:42Z</time>
      </trkpt>
      <trkpt lat="45.06021" lon="6.23859">
        <ele>2372</ele>
        <time>2024-08-10T08:01:43Z</time>
      </trkpt>
      <trkpt lat="45.06021" lon="6.23859">
        <ele>2372.2</ele>
        <time>2024-08-10T08:01:44Z</time>
      </trkpt>
      <trkpt lat="45.06021" lon="6.23859">
        <ele>2372.2</ele>
        <time>2024-08-10T08:01:45Z</time>
      </trkpt>
      <trkpt lat="45.06021" lon="6.23859">
        <ele>2372</ele>
        <time>2024-08-10T08:01:46Z</time>
      </trkpt>
      <trkpt lat="45.06021" lon="6.23859">
        <ele>2372</ele>
        <time>2024-08-10T08:01:47Z</time>
      </trkpt>
      <trkpt lat="45.06021" lon="6.23859">
        <ele>2372</ele>
        <time>2024-08-10T08:01:48Z</time>
      </trkpt>
      <trkpt lat="45.06021" lon="6.23859">
        <ele>2372</ele>
        <time>2024-08-10T08:01:49Z</time>
      </trkpt>
      <trkpt lat="45.06021" lon="6.23859">
        <ele>2371.8</ele>
        <time>2024-08-10T08:01:50Z</time>
      </trkpt>
      <trkpt lat="45.06021" lon="6.23859">
        <ele>2371.4</ele>
        <time>2024-08-10T08:01:51Z</time>
      </trkpt>
      <trkpt lat="45.06021" lon="6.23859">
        <ele>2371</ele>
        <time>2024-08-10T08:01:52Z</time>
      </trkpt>
      <trkpt lat="45.06021" lon="6.23859">
        <ele>2371</ele>
        <time>2024-08-10T08:01:53Z</time>
      </trkpt>
      <trkpt lat="45.06021" lon="6.23859">
        <ele>2370.8</ele>
        <time>2024-08-10T08:01:54Z</time>
      </trkpt>
      <trkpt lat="45.06021" lon="6.23859">
        <ele>2370.8</ele>
        <time>2024-08-10T08:01:55Z</time>
      </trkpt>
      <trkpt lat="45.06021" lon="6.23859">
        <ele>2370.8</ele>
        <time>2024-08-10T08:01:56Z</time>
      </trkpt>
      <trkpt lat="45.06021" lon="6.23859">
        <ele>2371.4</ele>
        <time>2024-08-10T08:01:57Z</time>
      </trkpt>
      <trkpt lat="45.06021" lon="6.23859">
        <ele>2371.4</ele>
        <time>2024-08-10T08:01:58Z</time>
      </trkpt>
      <trkpt lat="45.06021" lon="6.23859">
        <ele>2371.4</ele>
        <time>2024-08-10T08:01:59Z</time>
      </trkpt>
      <trkpt lat="45.06021" lon="6.23859">
        <ele>2371.4</ele>
        <time>2024-08-10T08:02:00Z</time>
      </trkpt>
      <trkpt lat="45.06021" lon="6.23859">
        <ele>2371.6</ele>
        <time>2024-08-10T08:02:01Z</time>
      </trkpt>
      <trkpt lat="45.06021" lon="6.23859">
        <ele>2371.6</ele>
        <time>2024-08-10T08:02:02Z</time>
      </trkpt>
      <trkpt lat="45.06021" lon="6.23859">
        <ele>2371.6</ele>
        <time>2024-08-10T08:02:03Z</time>
      </trkpt>
      <trkpt lat="45.06021" lon="6.23859">
        <ele>2371.6</ele>
        <time>2024-08-10T08:02:04Z</time>
      </trkpt>
      <trkpt lat="45.06021" lon="6.23859">
        <ele>2372.2</ele>
        <time>2024-08-10T08:02:05Z</time>
      </trkpt>
      <trkpt lat="45.06021" lon="6.23859">
        <ele>2372.2</ele>
        <time>2024-08-10T08:02:06Z</time>
      </trkpt>
      <trkpt lat="45.06021" lon="6.23859">
        <ele>2372.4</ele>
        <time>2024-08-10T08:02:07Z</time>
      </trkpt>
      <trkpt lat="45.06021" lon="6.23859">
        <ele>2372.4</ele>
        <time>2024-08-10T08:02:08Z</time>
      </trkpt>
      <trkpt lat="45.06021" lon="6.23859">
        <ele>2372.6</ele>
        <time>2024-08-10T08:02:09Z</time>
      </trkpt>
      <trkpt lat="45.06021" lon="6.23859">
        <ele>2372.8</ele>
        <time>2024-08-10T08:02:10Z</time>
      </trkpt>
      <trkpt lat="45.06021" lon="6.23859">
        <ele>2373</ele>
        <time>2024-08-10T08:02:11Z</time>
      </trkpt>
      <trkpt lat="45.06021" lon="6.23859">
        <ele>2373</ele>
        <time>2024-08-10T08:02:12Z</time>
      </trkpt>
      <trkpt lat="45.06021" lon="6.23859">
        <ele>2373</ele>
        <time>2024-08-10T08:02:13Z</time>
      </trkpt>
      <trkpt lat="45.06021" lon="6.23859">
        <ele>2372.8</ele>
        <time>2024-08-10T08:02:14Z</time>
      </trkpt>
      <trkpt lat="45.06021" lon="6.23859">
        <ele>2373</ele>
        <time>2024-08-10T08:02:15Z</time>
      </trkpt>
      <trkpt lat="45.06021" lon="6.23859">
        <ele>2372.8</ele>
        <time>2024-08-10T08:02:16Z</time>
      </trkpt>
      <trkpt lat="45.06021" lon="6.23859">
        <ele>2372.8</ele>
        <time>2024-08-10T08:02:17Z</time>
      </trkpt>
      <trkpt lat="45.06021" lon="6.23859">
        <ele>2372.8</ele>
        <time>2024-08-10T08:02:18Z</time>
      </trkpt>
      <trkpt lat="45.06021" lon="6.23859">
        <ele>2373</ele>
        <time>2024-08-10T08:02:19Z</time>
      </trkpt>
      <trkpt lat="45.06021" lon="6.23859">
        <ele>2373</ele>
        <time>2024-08-10T08:02:20Z</time>
      </trkpt>
      <trkpt lat="45.06021" lon="6.23859">
        <ele>2373</ele>
        <time>2024-08-10T08:02:21Z</time>
      </trkpt>
      <trkpt lat="45.06021" lon="6.23859">
        <ele>2373</ele>
        <time>2024-08-10T08:02:22Z</time>
      </trkpt>
      <trkpt lat="45.06021" lon="6.23859">
        <ele>2372.4</ele>
        <time>2024-08-10T08:02:23Z</time>
      </trkpt>
      <trkpt lat="45.06021" lon="6.23859">
        <ele>2372.4</ele>
        <time>2024-08-10T08:02:24Z</time>
      </trkpt>
      <trkpt lat="45.06021" lon="6.23859">
        <ele>2372.2</ele>
        <time>2024-08-10T08:02:25Z</time>
      </trkpt>
      <trkpt lat="45.06021" lon="6.23859">
        <ele>2372</ele>
        <time>2024-08-10T08:02:26Z</time>
      </trkpt>
      <trkpt lat="45.06021" lon="6.23859">
        <ele>2371.8</ele>
        <time>2024-08-10T08:02:27Z</time>
      </trkpt>
      <trkpt lat="45.06021" lon="6.23859">
        <ele>2371.6</ele>
        <time>2024-08-10T08:02:28Z</time>
      </trkpt>
      <trkpt lat="45.06021" lon="6.23859">
        <ele>2371.4</ele>
        <time>2024-08-10T08:02:29Z</time>
      </trkpt>
      <trkpt lat="45.06021" lon="6.23859">
        <ele>2371.4</ele>
        <time>2024-08-10T08:02:30Z</time>
      </trkpt>
      <trkpt lat="45.06021" lon="6.23859">
        <ele>2371.6</ele>
        <time>2024-08-10T08:02:31Z</time>
      </trkpt>
      <trkpt lat="45.06021" lon="6.23859">
        <ele>2371.6</ele>
        <time>2024-08-10T08:02:32Z</time>
      </trkpt>
      <trkpt lat="45.06021" lon="6.23859">
        <ele>2371.2</ele>
        <time>2024-08-10T08:02:33Z</time>
      </trkpt>
      <trkpt lat="45.06021" lon="6.23859">
        <ele>2371</ele>
        <time>2024-08-10T08:02:34Z</time>
      </trkpt>
      <trkpt lat="45.06021" lon="6.23859">
        <ele>2371</ele>
        <time>2024-08-10T08:02:35Z</time>
      </trkpt>
      <trkpt lat="45.06021" lon="6.23859">
        <ele>2371.2</ele>
        <time>2024-08-10T08:02:36Z</time>
      </trkpt>
      <trkpt lat="45.06021" lon="6.23859">
        <ele>2371.8</ele>
        <time>2024-08-10T08:02:37Z</time>
      </trkpt>
      <trkpt lat="45.06021" lon="6.23859">
        <ele>2372</ele>
        <time>2024-08-10T08:02:38Z</time>
      </trkpt>
      <trkpt lat="45.06021" lon="6.23859">
        <ele>2372.2</ele>
        <time>2024-08-10T08:02:39Z</time>
      </trkpt>
      <trkpt lat="45.06021" lon="6.23859">
        <ele>2372.2</ele>
        <time>2024-08-10T08:02:40Z</time>
      </trkpt>
      <trkpt lat="45.06021" lon="6.23859">
        <ele>2372</ele>
        <time>2024-08-10T08:02:41Z</time>
      </trkpt>
      <trkpt lat="45.06021" lon="6.23859">
        <ele>2372</ele>
        <time>2024-08-10T08:02:42Z</time>
      </trkpt>
      <trkpt lat="45.06021" lon="6.23859">
        <ele>2371.8</ele>
        <time>2024-08-10T08:02:43Z</time>
      </trkpt>
      <trkpt lat="45.06021" lon="6.23859">
        <ele>2371.8</ele>
        <time>2024-08-10T08:02:44Z</time>
      </trkpt>
      <trkpt lat="45.06021" lon="6.23859">
        <ele>2371.8</ele>
        <time>2024-08-10T08:02:45Z</time>
      </trkpt>
      <trkpt lat="45.0602" lon="6.23861">
        <ele>2372</ele>
        <time>2024-08-10T08:02:46Z</time>
      </trkpt>
      <trkpt lat="45.0602" lon="6.23861">
        <ele>2372.2</ele>
        <time>2024-08-10T08:02:47Z</time>
      </trkpt>
      <trkpt lat="45.06019" lon="6.23866">
        <ele>2372.2</ele>
        <time>2024-08-10T08:02:48Z</time>
      </trkpt>
      <trkpt lat="45.06019" lon="6.2387">
        <ele>2372.2</ele>
        <time>2024-08-10T08:02:49Z</time>
      </trkpt>
      <trkpt lat="45.06018" lon="6.23873">
        <ele>2372.2</ele>
        <time>2024-08-10T08:02:50Z</time>
      </trkpt>
      <trkpt lat="45.06018" lon="6.23873">
        <ele>2372.4</ele>
        <time>2024-08-10T08:02:51Z</time>
      </trkpt>
      <trkpt lat="45.06017" lon="6.23876">
        <ele>2372.8</ele>
        <time>2024-08-10T08:02:52Z</time>
      </trkpt>
      <trkpt lat="45.06017" lon="6.23876">
        <ele>2372.8</ele>
        <time>2024-08-10T08:02:53Z</time>
      </trkpt>
      <trkpt lat="45.06019" lon="6.23877">
        <ele>2372.4</ele>
        <time>2024-08-10T08:02:54Z</time>
      </trkpt>
      <trkpt lat="45.06021" lon="6.2388">
        <ele>2372.4</ele>
        <time>2024-08-10T08:02:55Z</time>
      </trkpt>
      <trkpt lat="45.06021" lon="6.23882">
        <ele>2373</ele>
        <time>2024-08-10T08:02:56Z</time>
      </trkpt>
      <trkpt lat="45.06022" lon="6.23885">
        <ele>2373.2</ele>
        <time>2024-08-10T08:02:57Z</time>
      </trkpt>
      <trkpt lat="45.06023" lon="6.23888">
        <ele>2373.4</ele>
        <time>2024-08-10T08:02:58Z</time>
      </trkpt>
      <trkpt lat="45.06023" lon="6.23891">
        <ele>2373.6</ele>
        <time>2024-08-10T08:02:59Z</time>
      </trkpt>
      <trkpt lat="45.06024" lon="6.23893">
        <ele>2373.4</ele>
        <time>2024-08-10T08:03:00Z</time>
      </trkpt>
      <trkpt lat="45.06024" lon="6.23893">
        <ele>2373.4</ele>
        <time>2024-08-10T08:03:01Z</time>
      </trkpt>
      <trkpt lat="45.06026" lon="6.23895">
        <ele>2373.4</ele>
        <time>2024-08-10T08:03:02Z</time>
      </trkpt>
      <trkpt lat="45.06026" lon="6.23895">
        <ele>2373.6</ele>
        <time>2024-08-10T08:03:03Z</time>
      </trkpt>
      <trkpt lat="45.06026" lon="6.23895">
        <ele>2373.6</ele>
        <time>2024-08-10T08:03:04Z</time>
      </trkpt>
      <trkpt lat="45.06026" lon="6.23895">
        <ele>2373.6</ele>
        <time>2024-08-10T08:03:05Z</time>
      </trkpt>
      <trkpt lat="45.06026" lon="6.23895">
        <ele>2373.8</ele>
        <time>2024-08-10T08:03:06Z</time>
      </trkpt>
      <trkpt lat="45.06024" lon="6.23894">
        <ele>2373.8</ele>
        <time>2024-08-10T08:03:07Z</time>
      </trkpt>
      <trkpt lat="45.06024" lon="6.23894">
        <ele>2373.8</ele>
        <time>2024-08-10T08:03:08Z</time>
      </trkpt>
      <trkpt lat="45.06024" lon="6.23894">
        <ele>2373.6</ele>
        <time>2024-08-10T08:03:09Z</time>
      </trkpt>
      <trkpt lat="45.06024" lon="6.23894">
        <ele>2373.8</ele>
        <time>2024-08-10T08:03:10Z</time>
      </trkpt>
      <trkpt lat="45.06024" lon="6.23894">
        <ele>2374</ele>
        <time>2024-08-10T08:03:11Z</time>
      </trkpt>
      <trkpt lat="45.06024" lon="6.23894">
        <ele>2374</ele>
        <time>2024-08-10T08:03:12Z</time>
      </trkpt>
      <trkpt lat="45.06024" lon="6.23894">
        <ele>2373.8</ele>
        <time>2024-08-10T08:03:13Z</time>
      </trkpt>
      <trkpt lat="45.06024" lon="6.23894">
        <ele>2373.8</ele>
        <time>2024-08-10T08:03:14Z</time>
      </trkpt>
      <trkpt lat="45.06024" lon="6.23894">
        <ele>2373.8</ele>
        <time>2024-08-10T08:03:15Z</time>
      </trkpt>
      <trkpt lat="45.06024" lon="6.23894">
        <ele>2373.8</ele>
        <time>2024-08-10T08:03:16Z</time>
      </trkpt>
      <trkpt lat="45.06024" lon="6.23894">
        <ele>2373.8</ele>
        <time>2024-08-10T08:03:17Z</time>
      </trkpt>
      <trkpt lat="45.06024" lon="6.23894">
        <ele>2374</ele>
        <time>2024-08-10T08:03:18Z</time>
      </trkpt>
      <trkpt lat="45.06024" lon="6.23894">
        <ele>2374.2</ele>
        <time>2024-08-10T08:03:19Z</time>
      </trkpt>
      <trkpt lat="45.06024" lon="6.23894">
        <ele>2374.2</ele>
        <time>2024-08-10T08:03:20Z</time>
      </trkpt>
      <trkpt lat="45.06024" lon="6.23894">
        <ele>2373.8</ele>
        <time>2024-08-10T08:03:21Z</time>
      </trkpt>
      <trkpt lat="45.06024" lon="6.23894">
        <ele>2373.8</ele>
        <time>2024-08-10T08:03:22Z</time>
      </trkpt>
      <trkpt lat="45.06024" lon="6.23894">
        <ele>2374</ele>
        <time>2024-08-10T08:03:23Z</time>
      </trkpt>
      <trkpt lat="45.06024" lon="6.23894">
        <ele>2374</ele>
        <time>2024-08-10T08:03:24Z</time>
      </trkpt>
      <trkpt lat="45.06024" lon="6.23894">
        <ele>2374</ele>
        <time>2024-08-10T08:03:25Z</time>
      </trkpt>
      <trkpt lat="45.06024" lon="6.23894">
        <ele>2374</ele>
        <time>2024-08-10T08:03:26Z</time>
      </trkpt>
      <trkpt lat="45.06024" lon="6.23894">
        <ele>2373.8</ele>
        <time>2024-08-10T08:03:27Z</time>
      </trkpt>
      <trkpt lat="45.06024" lon="6.23894">
        <ele>2374</ele>
        <time>2024-08-10T08:03:28Z</time>
      </trkpt>
      <trkpt lat="45.06024" lon="6.23894">
        <ele>2374</ele>
        <time>2024-08-10T08:03:29Z</time>
      </trkpt>
      <trkpt lat="45.06023" lon="6.23892">
        <ele>2374</ele>
        <time>2024-08-10T08:03:30Z</time>
      </trkpt>
      <trkpt lat="45.06023" lon="6.23892">
        <ele>2374</ele>
        <time>2024-08-10T08:03:31Z</time>
      </trkpt>
      <trkpt lat="45.06022" lon="6.23888">
        <ele>2374</ele>
        <time>2024-08-10T08:03:32Z</time>
      </trkpt>
      <trkpt lat="45.06022" lon="6.23888">
        <ele>2374</ele>
        <time>2024-08-10T08:03:33Z</time>
      </trkpt>
      <trkpt lat="45.06021" lon="6.23885">
        <ele>2374</ele>
        <time>2024-08-10T08:03:34Z</time>
      </trkpt>
      <trkpt lat="45.06021" lon="6.23885">
        <ele>2374</ele>
        <time>2024-08-10T08:03:35Z</time>
      </trkpt>
      <trkpt lat="45.06021" lon="6.23882">
        <ele>2374</ele>
        <time>2024-08-10T08:03:36Z</time>
      </trkpt>
      <trkpt lat="45.06021" lon="6.23882">
        <ele>2374</ele>
        <time>2024-08-10T08:03:37Z</time>
      </trkpt>
      <trkpt lat="45.06021" lon="6.23882">
        <ele>2373.8</ele>
        <time>2024-08-10T08:03:38Z</time>
      </trkpt>
      <trkpt lat="45.06021" lon="6.23878">
        <ele>2373.8</ele>
        <time>2024-08-10T08:03:39Z</time>
      </trkpt>
      <trkpt lat="45.06021" lon="6.23878">
        <ele>2373.8</ele>
        <time>2024-08-10T08:03:40Z</time>
      </trkpt>
      <trkpt lat="45.06021" lon="6.23878">
        <ele>2373.8</ele>
        <time>2024-08-10T08:03:41Z</time>
      </trkpt>
      <trkpt lat="45.0602" lon="6.23875">
        <ele>2373.8</ele>
        <time>2024-08-10T08:03:42Z</time>
      </trkpt>
      <trkpt lat="45.0602" lon="6.23875">
        <ele>2373.8</ele>
        <time>2024-08-10T08:03:43Z</time>
      </trkpt>
      <trkpt lat="45.0602" lon="6.23872">
        <ele>2374</ele>
        <time>2024-08-10T08:03:44Z</time>
      </trkpt>
      <trkpt lat="45.0602" lon="6.23872">
        <ele>2374</ele>
        <time>2024-08-10T08:03:45Z</time>
      </trkpt>
      <trkpt lat="45.0602" lon="6.23872">
        <ele>2374</ele>
        <time>2024-08-10T08:03:46Z</time>
      </trkpt>
      <trkpt lat="45.06019" lon="6.23869">
        <ele>2374</ele>
        <time>2024-08-10T08:03:47Z</time>
      </trkpt>
      <trkpt lat="45.06019" lon="6.23869">
        <ele>2374</ele>
        <time>2024-08-10T08:03:48Z</time>
      </trkpt>
      <trkpt lat="45.06019" lon="6.23869">
        <ele>2374.2</ele>
        <time>2024-08-10T08:03:49Z</time>
      </trkpt>
      <trkpt lat="45.06019" lon="6.23869">
        <ele>2374.2</ele>
        <time>2024-08-10T08:03:50Z</time>
      </trkpt>
      <trkpt lat="45.06019" lon="6.23869">
        <ele>2374.2</ele>
        <time>2024-08-10T08:03:51Z</time>
      </trkpt>
      <trkpt lat="45.06019" lon="6.23869">
        <ele>2374</ele>
        <time>2024-08-10T08:03:52Z</time>
      </trkpt>
      <trkpt lat="45.06019" lon="6.23869">
        <ele>2374</ele>
        <time>2024-08-10T08:03:53Z</time>
      </trkpt>
      <trkpt lat="45.06019" lon="6.23869">
        <ele>2374</ele>
        <time>2024-08-10T08:03:54Z</time>
      </trkpt>
      <trkpt lat="45.06019" lon="6.23869">
        <ele>2374.2</ele>
        <time>2024-08-10T08:03:55Z</time>
      </trkpt>
      <trkpt lat="45.06019" lon="6.23869">
        <ele>2374.2</ele>
        <time>2024-08-10T08:03:56Z</time>
      </trkpt>
      <trkpt lat="45.06019" lon="6.23869">
        <ele>2374.2</ele>
        <time>2024-08-10T08:03:57Z</time>
      </trkpt>
      <trkpt lat="45.06019" lon="6.23869">
        <ele>2374</ele>
        <time>2024-08-10T08:03:58Z</time>
      </trkpt>
      <trkpt lat="45.06019" lon="6.23869">
        <ele>2373.8</ele>
        <time>2024-08-10T08:03:59Z</time>
      </trkpt>
      <trkpt lat="45.06019" lon="6.23869">
        <ele>2373.8</ele>
        <time>2024-08-10T08:04:00Z</time>
      </trkpt>
      <trkpt lat="45.06019" lon="6.23869">
        <ele>2373.8</ele>
        <time>2024-08-10T08:04:01Z</time>
      </trkpt>
      <trkpt lat="45.06019" lon="6.23869">
        <ele>2374</ele>
        <time>2024-08-10T08:04:02Z</time>
      </trkpt>
      <trkpt lat="45.06019" lon="6.23869">
        <ele>2374.2</ele>
        <time>2024-08-10T08:04:03Z</time>
      </trkpt>
      <trkpt lat="45.06019" lon="6.23869">
        <ele>2374.2</ele>
        <time>2024-08-10T08:04:04Z</time>
      </trkpt>
      <trkpt lat="45.06019" lon="6.23869">
        <ele>2374.2</ele>
        <time>2024-08-10T08:04:05Z</time>
      </trkpt>
      <trkpt lat="45.06019" lon="6.23869">
        <ele>2374.2</ele>
        <time>2024-08-10T08:04:06Z</time>
      </trkpt>
      <trkpt lat="45.06019" lon="6.23869">
        <ele>2374.2</ele>
        <time>2024-08-10T08:04:07Z</time>
      </trkpt>
      <trkpt lat="45.06019" lon="6.23869">
        <ele>2374.2</ele>
        <time>2024-08-10T08:04:08Z</time>
      </trkpt>
      <trkpt lat="45.06019" lon="6.23869">
        <ele>2374</ele>
        <time>2024-08-10T08:04:09Z</time>
      </trkpt>
      <trkpt lat="45.06019" lon="6.23869">
        <ele>2374</ele>
        <time>2024-08-10T08:04:10Z</time>
      </trkpt>
      <trkpt lat="45.06019" lon="6.23869">
        <ele>2373.8</ele>
        <time>2024-08-10T08:04:11Z</time>
      </trkpt>
      <trkpt lat="45.06019" lon="6.23869">
        <ele>2373.8</ele>
        <time>2024-08-10T08:04:12Z</time>
      </trkpt>
      <trkpt lat="45.06019" lon="6.23869">
        <ele>2373.8</ele>
        <time>2024-08-10T08:04:13Z</time>
      </trkpt>
      <trkpt lat="45.06019" lon="6.23869">
        <ele>2374</ele>
        <time>2024-08-10T08:04:14Z</time>
      </trkpt>
      <trkpt lat="45.06019" lon="6.23869">
        <ele>2374</ele>
        <time>2024-08-10T08:04:15Z</time>
      </trkpt>
      <trkpt lat="45.06019" lon="6.23869">
        <ele>2374.4</ele>
        <time>2024-08-10T08:04:16Z</time>
      </trkpt>
      <trkpt lat="45.06019" lon="6.23869">
        <ele>2374.4</ele>
        <time>2024-08-10T08:04:17Z</time>
      </trkpt>
      <trkpt lat="45.06019" lon="6.23869">
        <ele>2374.4</ele>
        <time>2024-08-10T08:04:18Z</time>
      </trkpt>
      <trkpt lat="45.06019" lon="6.23869">
        <ele>2374.4</ele>
        <time>2024-08-10T08:04:19Z</time>
      </trkpt>
      <trkpt lat="45.06019" lon="6.23869">
        <ele>2374.4</ele>
        <time>2024-08-10T08:04:20Z</time>
      </trkpt>
      <trkpt lat="45.06019" lon="6.23869">
        <ele>2374.4</ele>
        <time>2024-08-10T08:04:21Z</time>
      </trkpt>
      <trkpt lat="45.06019" lon="6.23869">
        <ele>2374.4</ele>
        <time>2024-08-10T08:04:22Z</time>
      </trkpt>
      <trkpt lat="45.06019" lon="6.23869">
        <ele>2374.4</ele>
        <time>2024-08-10T08:04:23Z</time>
      </trkpt>
      <trkpt lat="45.06019" lon="6.23869">
        <ele>2374.4</ele>
        <time>2024-08-10T08:04:24Z</time>
      </trkpt>
      <trkpt lat="45.06019" lon="6.23869">
        <ele>2374.4</ele>
        <time>2024-08-10T08:04:25Z</time>
      </trkpt>
      <trkpt lat="45.06019" lon="6.23869">
        <ele>2374.4</ele>
        <time>2024-08-10T08:04:26Z</time>
      </trkpt>
      <trkpt lat="45.06019" lon="6.23869">
        <ele>2374.4</ele>
        <time>2024-08-10T08:04:27Z</time>
      </trkpt>
      <trkpt lat="45.06019" lon="6.23869">
        <ele>2374.4</ele>
        <time>2024-08-10T08:04:28Z</time>
      </trkpt>
      <trkpt lat="45.06019" lon="6.23869">
        <ele>2374.4</ele>
        <time>2024-08-10T08:04:29Z</time>
      </trkpt>
      <trkpt lat="45.06019" lon="6.23869">
        <ele>2374.4</ele>
        <time>2024-08-10T08:04:30Z</time>
      </trkpt>
      <trkpt lat="45.06019" lon="6.23869">
        <ele>2374.4</ele>
        <time>2024-08-10T08:04:31Z</time>
      </trkpt>
      <trkpt lat="45.06019" lon="6.23869">
        <ele>2374.2</ele>
        <time>2024-08-10T08:04:32Z</time>
      </trkpt>
      <trkpt lat="45.06019" lon="6.23869">
        <ele>2374</ele>
        <time>2024-08-10T08:04:33Z</time>
      </trkpt>
      <trkpt lat="45.06019" lon="6.23869">
        <ele>2373.8</ele>
        <time>2024-08-10T08:04:34Z</time>
      </trkpt>
      <trkpt lat="45.06019" lon="6.23869">
        <ele>2373.8</ele>
        <time>2024-08-10T08:04:35Z</time>
      </trkpt>
      <trkpt lat="45.06019" lon="6.23869">
        <ele>2373.8</ele>
        <time>2024-08-10T08:04:36Z</time>
      </trkpt>
      <trkpt lat="45.06019" lon="6.23869">
        <ele>2373.8</ele>
        <time>2024-08-10T08:04:37Z</time>
      </trkpt>
      <trkpt lat="45.06019" lon="6.23869">
        <ele>2374</ele>
        <time>2024-08-10T08:04:38Z</time>
      </trkpt>
      <trkpt lat="45.06019" lon="6.23869">
        <ele>2374</ele>
        <time>2024-08-10T08:04:39Z</time>
      </trkpt>
      <trkpt lat="45.06019" lon="6.23869">
        <ele>2374</ele>
        <time>2024-08-10T08:04:40Z</time>
      </trkpt>
      <trkpt lat="45.06019" lon="6.23869">
        <ele>2374</ele>
        <time>2024-08-10T08:04:41Z</time>
      </trkpt>
      <trkpt lat="45.06019" lon="6.23869">
        <ele>2374</ele>
        <time>2024-08-10T08:04:42Z</time>
      </trkpt>
      <trkpt lat="45.06019" lon="6.23869">
        <ele>2374</ele>
        <time>2024-08-10T08:04:43Z</time>
      </trkpt>
      <trkpt lat="45.06019" lon="6.23869">
        <ele>2374</ele>
        <time>2024-08-10T08:04:44Z</time>
      </trkpt>
      <trkpt lat="45.06019" lon="6.23869">
        <ele>2374</ele>
        <time>2024-08-10T08:04:45Z</time>
      </trkpt>
      <trkpt lat="45.06019" lon="6.23869">
        <ele>2374</ele>
        <time>2024-08-10T08:04:46Z</time>
      </trkpt>
      <trkpt lat="45.06019" lon="6.23869">
        <ele>2373.8</ele>
        <time>2024-08-10T08:04:47Z</time>
      </trkpt>
      <trkpt lat="45.06019" lon="6.23869">
        <ele>2373.6</ele>
        <time>2024-08-10T08:04:48Z</time>
      </trkpt>
      <trkpt lat="45.06019" lon="6.23869">
        <ele>2373.6</ele>
        <time>2024-08-10T08:04:49Z</time>
      </trkpt>
      <trkpt lat="45.06019" lon="6.23869">
        <ele>2373.8</ele>
        <time>2024-08-10T08:04:50Z</time>
      </trkpt>
      <trkpt lat="45.06019" lon="6.23869">
        <ele>2373.8</ele>
        <time>2024-08-10T08:04:51Z</time>
      </trkpt>
      <trkpt lat="45.06019" lon="6.23869">
        <ele>2373.8</ele>
        <time>2024-08-10T08:04:52Z</time>
      </trkpt>
      <trkpt lat="45.06019" lon="6.23869">
        <ele>2373.8</ele>
        <time>2024-08-10T08:04:53Z</time>
      </trkpt>
      <trkpt lat="45.06019" lon="6.23869">
        <ele>2373.8</ele>
        <time>2024-08-10T08:04:54Z</time>
      </trkpt>
      <trkpt lat="45.06019" lon="6.23869">
        <ele>2373.8</ele>
        <time>2024-08-10T08:04:55Z</time>
      </trkpt>
      <trkpt lat="45.06019" lon="6.23869">
        <ele>2373.6</ele>
        <time>2024-08-10T08:04:56Z</time>
      </trkpt>
      <trkpt lat="45.06019" lon="6.23869">
        <ele>2373.6</ele>
        <time>2024-08-10T08:04:57Z</time>
      </trkpt>
      <trkpt lat="45.06019" lon="6.23869">
        <ele>2373.8</ele>
        <time>2024-08-10T08:04:58Z</time>
      </trkpt>
      <trkpt lat="45.06019" lon="6.23869">
        <ele>2373.8</ele>
        <time>2024-08-10T08:04:59Z</time>
      </trkpt>
      <trkpt lat="45.06019" lon="6.23869">
        <ele>2373.8</ele>
        <time>2024-08-10T08:05:00Z</time>
      </trkpt>
      <trkpt lat="45.06019" lon="6.23869">
        <ele>2374</ele>
        <time>2024-08-10T08:05:01Z</time>
      </trkpt>
      <trkpt lat="45.06019" lon="6.23869">
        <ele>2374</ele>
        <time>2024-08-10T08:05:02Z</time>
      </trkpt>
      <trkpt lat="45.06019" lon="6.23869">
        <ele>2373.8</ele>
        <time>2024-08-10T08:05:03Z</time>
      </trkpt>
      <trkpt lat="45.06019" lon="6.23869">
        <ele>2373.8</ele>
        <time>2024-08-10T08:05:04Z</time>
      </trkpt>
      <trkpt lat="45.06019" lon="6.23869">
        <ele>2373.8</ele>
        <time>2024-08-10T08:05:05Z</time>
      </trkpt>
      <trkpt lat="45.06019" lon="6.23869">
        <ele>2374</ele>
        <time>2024-08-10T08:05:06Z</time>
      </trkpt>
      <trkpt lat="45.06019" lon="6.23869">
        <ele>2374</ele>
        <time>2024-08-10T08:05:07Z</time>
      </trkpt>
      <trkpt lat="45.06019" lon="6.23869">
        <ele>2374</ele>
        <time>2024-08-10T08:05:08Z</time>
      </trkpt>
      <trkpt lat="45.06019" lon="6.23869">
        <ele>2374</ele>
        <time>2024-08-10T08:05:09Z</time>
      </trkpt>
      <trkpt lat="45.06019" lon="6.23869">
        <ele>2374</ele>
        <time>2024-08-10T08:05:10Z</time>
      </trkpt>
      <trkpt lat="45.06019" lon="6.23869">
        <ele>2374.2</ele>
        <time>2024-08-10T08:05:11Z</time>
      </trkpt>
      <trkpt lat="45.06019" lon="6.23869">
        <ele>2374.2</ele>
        <time>2024-08-10T08:05:12Z</time>
      </trkpt>
      <trkpt lat="45.06019" lon="6.23869">
        <ele>2374.2</ele>
        <time>2024-08-10T08:05:13Z</time>
      </trkpt>
      <trkpt lat="45.06019" lon="6.23869">
        <ele>2374.2</ele>
        <time>2024-08-10T08:05:14Z</time>
      </trkpt>
      <trkpt lat="45.06019" lon="6.23869">
        <ele>2374</ele>
        <time>2024-08-10T08:05:15Z</time>
      </trkpt>
      <trkpt lat="45.06019" lon="6.23869">
        <ele>2374</ele>
        <time>2024-08-10T08:05:16Z</time>
      </trkpt>
      <trkpt lat="45.06019" lon="6.23869">
        <ele>2374</ele>
        <time>2024-08-10T08:05:17Z</time>
      </trkpt>
      <trkpt lat="45.06019" lon="6.23869">
        <ele>2374</ele>
        <time>2024-08-10T08:05:18Z</time>
      </trkpt>
      <trkpt lat="45.06019" lon="6.23869">
        <ele>2374</ele>
        <time>2024-08-10T08:05:19Z</time>
      </trkpt>
      <trkpt lat="45.06019" lon="6.23869">
        <ele>2374</ele>
        <time>2024-08-10T08:05:20Z</time>
      </trkpt>
      <trkpt lat="45.06019" lon="6.23869">
        <ele>2374</ele>
        <time>2024-08-10T08:05:21Z</time>
      </trkpt>
      <trkpt lat="45.06019" lon="6.23869">
        <ele>2374</ele>
        <time>2024-08-10T08:05:22Z</time>
      </trkpt>
      <trkpt lat="45.06019" lon="6.23869">
        <ele>2374</ele>
        <time>2024-08-10T08:05:23Z</time>
      </trkpt>
      <trkpt lat="45.06019" lon="6.23869">
        <ele>2374</ele>
        <time>2024-08-10T08:05:24Z</time>
      </trkpt>
      <trkpt lat="45.06019" lon="6.23869">
        <ele>2374</ele>
        <time>2024-08-10T08:05:25Z</time>
      </trkpt>
      <trkpt lat="45.06019" lon="6.23869">
        <ele>2374</ele>
        <time>2024-08-10T08:05:26Z</time>
      </trkpt>
      <trkpt lat="45.06019" lon="6.23869">
        <ele>2374.2</ele>
        <time>2024-08-10T08:05:27Z</time>
      </trkpt>
      <trkpt lat="45.06019" lon="6.23869">
        <ele>2374.4</ele>
        <time>2024-08-10T08:05:28Z</time>
      </trkpt>
      <trkpt lat="45.06019" lon="6.23869">
        <ele>2374.4</ele>
        <time>2024-08-10T08:05:29Z</time>
      </trkpt>
      <trkpt lat="45.06019" lon="6.23869">
        <ele>2374.2</ele>
        <time>2024-08-10T08:05:30Z</time>
      </trkpt>
      <trkpt lat="45.06019" lon="6.23869">
        <ele>2374.2</ele>
        <time>2024-08-10T08:05:31Z</time>
      </trkpt>
      <trkpt lat="45.06019" lon="6.23869">
        <ele>2374.2</ele>
        <time>2024-08-10T08:05:32Z</time>
      </trkpt>
      <trkpt lat="45.06019" lon="6.23869">
        <ele>2374</ele>
        <time>2024-08-10T08:05:33Z</time>
      </trkpt>
      <trkpt lat="45.06019" lon="6.23869">
        <ele>2374</ele>
        <time>2024-08-10T08:05:34Z</time>
      </trkpt>
      <trkpt lat="45.06019" lon="6.23869">
        <ele>2374</ele>
        <time>2024-08-10T08:05:35Z</time>
      </trkpt>
      <trkpt lat="45.06019" lon="6.23869">
        <ele>2374</ele>
        <time>2024-08-10T08:05:36Z</time>
      </trkpt>
      <trkpt lat="45.06019" lon="6.23869">
        <ele>2373.8</ele>
        <time>2024-08-10T08:05:37Z</time>
      </trkpt>
      <trkpt lat="45.06019" lon="6.23869">
        <ele>2373.8</ele>
        <time>2024-08-10T08:05:38Z</time>
      </trkpt>
      <trkpt lat="45.06019" lon="6.23869">
        <ele>2373.8</ele>
        <time>2024-08-10T08:05:39Z</time>
      </trkpt>
      <trkpt lat="45.06019" lon="6.23869">
        <ele>2373.8</ele>
        <time>2024-08-10T08:05:40Z</time>
      </trkpt>
      <trkpt lat="45.06019" lon="6.23869">
        <ele>2373.8</ele>
        <time>2024-08-10T08:05:41Z</time>
      </trkpt>
      <trkpt lat="45.06019" lon="6.23869">
        <ele>2373.8</ele>
        <time>2024-08-10T08:05:42Z</time>
      </trkpt>
      <trkpt lat="45.06019" lon="6.23869">
        <ele>2373.8</ele>
        <time>2024-08-10T08:05:43Z</time>
      </trkpt>
      <trkpt lat="45.06019" lon="6.23869">
        <ele>2374</ele>
        <time>2024-08-10T08:05:44Z</time>
      </trkpt>
      <trkpt lat="45.06019" lon="6.23869">
        <ele>2374.2</ele>
        <time>2024-08-10T08:05:45Z</time>
      </trkpt>
      <trkpt lat="45.06019" lon="6.23869">
        <ele>2374.2</ele>
        <time>2024-08-10T08:05:46Z</time>
      </trkpt>
      <trkpt lat="45.06019" lon="6.23869">
        <ele>2374.2</ele>
        <time>2024-08-10T08:05:47Z</time>
      </trkpt>
      <trkpt lat="45.06019" lon="6.23869">
        <ele>2374.2</ele>
        <time>2024-08-10T08:05:48Z</time>
      </trkpt>
      <trkpt lat="45.06019" lon="6.23869">
        <ele>2374.2</ele>
        <time>2024-08-10T08:05:49Z</time>
      </trkpt>
      <trkpt lat="45.06019" lon="6.23869">
        <ele>2374.2</ele>
        <time>2024-08-10T08:05:50Z</time>
      </trkpt>
      <trkpt lat="45.06019" lon="6.23869">
        <ele>2374</ele>
        <time>2024-08-10T08:05:51Z</time>
      </trkpt>
      <trkpt lat="45.06019" lon="6.23869">
        <ele>2373.8</ele>
        <time>2024-08-10T08:05:52Z</time>
      </trkpt>
      <trkpt lat="45.06019" lon="6.23869">
        <ele>2373.8</ele>
        <time>2024-08-10T08:05:53Z</time>
      </trkpt>
      <trkpt lat="45.06019" lon="6.23869">
        <ele>2373.8</ele>
        <time>2024-08-10T08:05:54Z</time>
      </trkpt>
      <trkpt lat="45.06019" lon="6.23869">
        <ele>2373.8</ele>
        <time>2024-08-10T08:05:55Z</time>
      </trkpt>
      <trkpt lat="45.06019" lon="6.23869">
        <ele>2373.8</ele>
        <time>2024-08-10T08:05:56Z</time>
      </trkpt>
      <trkpt lat="45.06019" lon="6.23869">
        <ele>2373.8</ele>
        <time>2024-08-10T08:05:57Z</time>
      </trkpt>
      <trkpt lat="45.06019" lon="6.23869">
        <ele>2373.8</ele>
        <time>2024-08-10T08:05:58Z</time>
      </trkpt>
      <trkpt lat="45.06019" lon="6.23869">
        <ele>2373.8</ele>
        <time>2024-08-10T08:05:59Z</time>
      </trkpt>
      <trkpt lat="45.06019" lon="6.23869">
        <ele>2374</ele>
        <time>2024-08-10T08:06:00Z</time>
      </trkpt>
      <trkpt lat="45.06019" lon="6.23869">
        <ele>2374</ele>
        <time>2024-08-10T08:06:01Z</time>
      </trkpt>
      <trkpt lat="45.06019" lon="6.23869">
        <ele>2374.2</ele>
        <time>2024-08-10T08:06:02Z</time>
      </trkpt>
      <trkpt lat="45.06019" lon="6.23869">
        <ele>2374.2</ele>
        <time>2024-08-10T08:06:03Z</time>
      </trkpt>
      <trkpt lat="45.06019" lon="6.23869">
        <ele>2374.2</ele>
        <time>2024-08-10T08:06:04Z</time>
      </trkpt>
      <trkpt lat="45.06019" lon="6.23869">
        <ele>2374</ele>
        <time>2024-08-10T08:06:05Z</time>
      </trkpt>
      <trkpt lat="45.06019" lon="6.23869">
        <ele>2373.8</ele>
        <time>2024-08-10T08:06:06Z</time>
      </trkpt>
      <trkpt lat="45.06019" lon="6.23869">
        <ele>2373.8</ele>
        <time>2024-08-10T08:06:07Z</time>
      </trkpt>
      <trkpt lat="45.06019" lon="6.23869">
        <ele>2374</ele>
        <time>2024-08-10T08:06:08Z</time>
      </trkpt>
      <trkpt lat="45.06019" lon="6.23869">
        <ele>2374</ele>
        <time>2024-08-10T08:06:09Z</time>
      </trkpt>
      <trkpt lat="45.06019" lon="6.23869">
        <ele>2374</ele>
        <time>2024-08-10T08:06:10Z</time>
      </trkpt>
      <trkpt lat="45.06019" lon="6.23869">
        <ele>2374</ele>
        <time>2024-08-10T08:06:11Z</time>
      </trkpt>
      <trkpt lat="45.06019" lon="6.23869">
        <ele>2374</ele>
        <time>2024-08-10T08:06:12Z</time>
      </trkpt>
      <trkpt lat="45.06019" lon="6.23869">
        <ele>2374</ele>
        <time>2024-08-10T08:06:13Z</time>
      </trkpt>
      <trkpt lat="45.06019" lon="6.23869">
        <ele>2374.2</ele>
        <time>2024-08-10T08:06:14Z</time>
      </trkpt>
      <trkpt lat="45.06019" lon="6.23869">
        <ele>2374.2</ele>
        <time>2024-08-10T08:06:15Z</time>
      </trkpt>
      <trkpt lat="45.06019" lon="6.23869">
        <ele>2374.2</ele>
        <time>2024-08-10T08:06:16Z</time>
      </trkpt>
      <trkpt lat="45.06019" lon="6.23869">
        <ele>2374</ele>
        <time>2024-08-10T08:06:17Z</time>
      </trkpt>
      <trkpt lat="45.06019" lon="6.23869">
        <ele>2374</ele>
        <time>2024-08-10T08:06:18Z</time>
      </trkpt>
      <trkpt lat="45.06019" lon="6.23869">
        <ele>2374</ele>
        <time>2024-08-10T08:06:19Z</time>
      </trkpt>
      <trkpt lat="45.06019" lon="6.23869">
        <ele>2374</ele>
        <time>2024-08-10T08:06:20Z</time>
      </trkpt>
      <trkpt lat="45.06019" lon="6.23869">
        <ele>2374.2</ele>
        <time>2024-08-10T08:06:21Z</time>
      </trkpt>
      <trkpt lat="45.06019" lon="6.23869">
        <ele>2374</ele>
        <time>2024-08-10T08:06:22Z</time>
      </trkpt>
      <trkpt lat="45.06019" lon="6.23869">
        <ele>2374.2</ele>
        <time>2024-08-10T08:06:23Z</time>
      </trkpt>
      <trkpt lat="45.06019" lon="6.23869">
        <ele>2374.2</ele>
        <time>2024-08-10T08:06:24Z</time>
      </trkpt>
      <trkpt lat="45.06019" lon="6.23869">
        <ele>2374.4</ele>
        <time>2024-08-10T08:06:25Z</time>
      </trkpt>
      <trkpt lat="45.06019" lon="6.23869">
        <ele>2374.6</ele>
        <time>2024-08-10T08:06:26Z</time>
      </trkpt>
      <trkpt lat="45.06019" lon="6.23869">
        <ele>2374.6</ele>
        <time>2024-08-10T08:06:27Z</time>
      </trkpt>
      <trkpt lat="45.06019" lon="6.23869">
        <ele>2374.6</ele>
        <time>2024-08-10T08:06:28Z</time>
      </trkpt>
      <trkpt lat="45.06019" lon="6.23869">
        <ele>2374.6</ele>
        <time>2024-08-10T08:06:29Z</time>
      </trkpt>
      <trkpt lat="45.06019" lon="6.23869">
        <ele>2374.6</ele>
        <time>2024-08-10T08:06:30Z</time>
      </trkpt>
      <trkpt lat="45.06019" lon="6.23869">
        <ele>2374.6</ele>
        <time>2024-08-10T08:06:31Z</time>
      </trkpt>
      <trkpt lat="45.06019" lon="6.23869">
        <ele>2374.6</ele>
        <time>2024-08-10T08:06:32Z</time>
      </trkpt>
      <trkpt lat="45.06019" lon="6.23869">
        <ele>2374.6</ele>
        <time>2024-08-10T08:06:33Z</time>
      </trkpt>
      <trkpt lat="45.06019" lon="6.23869">
        <ele>2374.6</ele>
        <time>2024-08-10T08:06:34Z</time>
      </trkpt>
      <trkpt lat="45.06019" lon="6.23869">
        <ele>2374.6</ele>
        <time>2024-08-10T08:06:35Z</time>
      </trkpt>
      <trkpt lat="45.06019" lon="6.23869">
        <ele>2374.6</ele>
        <time>2024-08-10T08:06:36Z</time>
      </trkpt>
      <trkpt lat="45.06019" lon="6.23869">
        <ele>2374.6</ele>
        <time>2024-08-10T08:06:37Z</time>
      </trkpt>
      <trkpt lat="45.06019" lon="6.23869">
        <ele>2374.6</ele>
        <time>2024-08-10T08:06:38Z</time>
      </trkpt>
      <trkpt lat="45.06019" lon="6.23869">
        <ele>2374.6</ele>
        <time>2024-08-10T08:06:39Z</time>
      </trkpt>
      <trkpt lat="45.06019" lon="6.23869">
        <ele>2374.8</ele>
        <time>2024-08-10T08:06:40Z</time>
      </trkpt>
      <trkpt lat="45.06019" lon="6.23869">
        <ele>2374.8</ele>
        <time>2024-08-10T08:06:41Z</time>
      </trkpt>
      <trkpt lat="45.06019" lon="6.23869">
        <ele>2374.8</ele>
        <time>2024-08-10T08:06:42Z</time>
      </trkpt>
      <trkpt lat="45.06019" lon="6.23869">
        <ele>2374.8</ele>
        <time>2024-08-10T08:06:43Z</time>
      </trkpt>
      <trkpt lat="45.06019" lon="6.23869">
        <ele>2374.8</ele>
        <time>2024-08-10T08:06:44Z</time>
      </trkpt>
      <trkpt lat="45.06019" lon="6.23869">
        <ele>2374.6</ele>
        <time>2024-08-10T08:06:45Z</time>
      </trkpt>
      <trkpt lat="45.06019" lon="6.23869">
        <ele>2374.6</ele>
        <time>2024-08-10T08:06:46Z</time>
      </trkpt>
      <trkpt lat="45.06019" lon="6.23869">
        <ele>2374.6</ele>
        <time>2024-08-10T08:06:47Z</time>
      </trkpt>
      <trkpt lat="45.06019" lon="6.23869">
        <ele>2374.4</ele>
        <time>2024-08-10T08:06:48Z</time>
      </trkpt>
      <trkpt lat="45.06019" lon="6.23869">
        <ele>2374.4</ele>
        <time>2024-08-10T08:06:49Z</time>
      </trkpt>
      <trkpt lat="45.06019" lon="6.23869">
        <ele>2374.4</ele>
        <time>2024-08-10T08:06:50Z</time>
      </trkpt>
      <trkpt lat="45.06019" lon="6.23869">
        <ele>2374.4</ele>
        <time>2024-08-10T08:06:51Z</time>
      </trkpt>
      <trkpt lat="45.06019" lon="6.23869">
        <ele>2374.4</ele>
        <time>2024-08-10T08:06:52Z</time>
      </trkpt>
      <trkpt lat="45.06019" lon="6.23869">
        <ele>2374.6</ele>
        <time>2024-08-10T08:06:53Z</time>
      </trkpt>
      <trkpt lat="45.06019" lon="6.23869">
        <ele>2374.6</ele>
        <time>2024-08-10T08:06:54Z</time>
      </trkpt>
      <trkpt lat="45.06019" lon="6.23869">
        <ele>2374.6</ele>
        <time>2024-08-10T08:06:55Z</time>
      </trkpt>
      <trkpt lat="45.06019" lon="6.23869">
        <ele>2374.8</ele>
        <time>2024-08-10T08:06:56Z</time>
      </trkpt>
      <trkpt lat="45.06019" lon="6.23869">
        <ele>2375</ele>
        <time>2024-08-10T08:06:57Z</time>
      </trkpt>
      <trkpt lat="45.06019" lon="6.23869">
        <ele>2375</ele>
        <time>2024-08-10T08:06:58Z</time>
      </trkpt>
      <trkpt lat="45.06019" lon="6.23869">
        <ele>2375</ele>
        <time>2024-08-10T08:06:59Z</time>
      </trkpt>
      <trkpt lat="45.06019" lon="6.23869">
        <ele>2375</ele>
        <time>2024-08-10T08:07:00Z</time>
      </trkpt>
      <trkpt lat="45.06019" lon="6.23869">
        <ele>2374.8</ele>
        <time>2024-08-10T08:07:01Z</time>
      </trkpt>
      <trkpt lat="45.06019" lon="6.23869">
        <ele>2374.8</ele>
        <time>2024-08-10T08:07:02Z</time>
      </trkpt>
      <trkpt lat="45.06019" lon="6.23869">
        <ele>2375.2</ele>
        <time>2024-08-10T08:07:03Z</time>
      </trkpt>
      <trkpt lat="45.06019" lon="6.23869">
        <ele>2375.2</ele>
        <time>2024-08-10T08:07:04Z</time>
      </trkpt>
      <trkpt lat="45.06019" lon="6.23869">
        <ele>2375.2</ele>
        <time>2024-08-10T08:07:05Z</time>
      </trkpt>
      <trkpt lat="45.06019" lon="6.23869">
        <ele>2375.2</ele>
        <time>2024-08-10T08:07:06Z</time>
      </trkpt>
      <trkpt lat="45.06019" lon="6.23869">
        <ele>2375.2</ele>
        <time>2024-08-10T08:07:07Z</time>
      </trkpt>
      <trkpt lat="45.06019" lon="6.23869">
        <ele>2375</ele>
        <time>2024-08-10T08:07:08Z</time>
      </trkpt>
      <trkpt lat="45.06019" lon="6.23869">
        <ele>2375.2</ele>
        <time>2024-08-10T08:07:09Z</time>
      </trkpt>
      <trkpt lat="45.06019" lon="6.23869">
        <ele>2375</ele>
        <time>2024-08-10T08:07:10Z</time>
      </trkpt>
      <trkpt lat="45.06019" lon="6.23869">
        <ele>2375</ele>
        <time>2024-08-10T08:07:11Z</time>
      </trkpt>
      <trkpt lat="45.06019" lon="6.23869">
        <ele>2375</ele>
        <time>2024-08-10T08:07:12Z</time>
      </trkpt>
      <trkpt lat="45.06019" lon="6.23869">
        <ele>2375</ele>
        <time>2024-08-10T08:07:13Z</time>
      </trkpt>
      <trkpt lat="45.06019" lon="6.23869">
        <ele>2375</ele>
        <time>2024-08-10T08:07:14Z</time>
      </trkpt>
      <trkpt lat="45.06019" lon="6.23869">
        <ele>2375.2</ele>
        <time>2024-08-10T08:07:15Z</time>
      </trkpt>
      <trkpt lat="45.06019" lon="6.23869">
        <ele>2375.4</ele>
        <time>2024-08-10T08:07:16Z</time>
      </trkpt>
      <trkpt lat="45.06019" lon="6.23869">
        <ele>2375.4</ele>
        <time>2024-08-10T08:07:17Z</time>
      </trkpt>
      <trkpt lat="45.06019" lon="6.23869">
        <ele>2375.6</ele>
        <time>2024-08-10T08:07:18Z</time>
      </trkpt>
      <trkpt lat="45.06019" lon="6.23869">
        <ele>2376</ele>
        <time>2024-08-10T08:07:19Z</time>
      </trkpt>
      <trkpt lat="45.06019" lon="6.23869">
        <ele>2376</ele>
        <time>2024-08-10T08:07:20Z</time>
      </trkpt>
      <trkpt lat="45.06019" lon="6.23869">
        <ele>2375.8</ele>
        <time>2024-08-10T08:07:21Z</time>
      </trkpt>
      <trkpt lat="45.06019" lon="6.23869">
        <ele>2375.6</ele>
        <time>2024-08-10T08:07:22Z</time>
      </trkpt>
      <trkpt lat="45.06019" lon="6.23869">
        <ele>2375.4</ele>
        <time>2024-08-10T08:07:23Z</time>
      </trkpt>
      <trkpt lat="45.06019" lon="6.23869">
        <ele>2375.2</ele>
        <time>2024-08-10T08:07:24Z</time>
      </trkpt>
      <trkpt lat="45.06019" lon="6.23869">
        <ele>2374.6</ele>
        <time>2024-08-10T08:07:25Z</time>
      </trkpt>
      <trkpt lat="45.06019" lon="6.23869">
        <ele>2374.8</ele>
        <time>2024-08-10T08:07:26Z</time>
      </trkpt>
      <trkpt lat="45.06019" lon="6.23869">
        <ele>2375</ele>
        <time>2024-08-10T08:07:27Z</time>
      </trkpt>
      <trkpt lat="45.06019" lon="6.23869">
        <ele>2375.4</ele>
        <time>2024-08-10T08:07:28Z</time>
      </trkpt>
      <trkpt lat="45.06019" lon="6.23869">
        <ele>2375.4</ele>
        <time>2024-08-10T08:07:29Z</time>
      </trkpt>
      <trkpt lat="45.06019" lon="6.23869">
        <ele>2375.8</ele>
        <time>2024-08-10T08:07:30Z</time>
      </trkpt>
      <trkpt lat="45.06019" lon="6.23869">
        <ele>2376</ele>
        <time>2024-08-10T08:07:31Z</time>
      </trkpt>
      <trkpt lat="45.06019" lon="6.23869">
        <ele>2376</ele>
        <time>2024-08-10T08:07:32Z</time>
      </trkpt>
      <trkpt lat="45.06019" lon="6.23869">
        <ele>2376</ele>
        <time>2024-08-10T08:07:33Z</time>
      </trkpt>
      <trkpt lat="45.06019" lon="6.23869">
        <ele>2375.8</ele>
        <time>2024-08-10T08:07:34Z</time>
      </trkpt>
      <trkpt lat="45.06019" lon="6.23869">
        <ele>2375.8</ele>
        <time>2024-08-10T08:07:35Z</time>
      </trkpt>
      <trkpt lat="45.06019" lon="6.23869">
        <ele>2375.8</ele>
        <time>2024-08-10T08:07:36Z</time>
      </trkpt>
      <trkpt lat="45.06019" lon="6.23869">
        <ele>2375.8</ele>
        <time>2024-08-10T08:07:37Z</time>
      </trkpt>
      <trkpt lat="45.06019" lon="6.23869">
        <ele>2376</ele>
        <time>2024-08-10T08:07:38Z</time>
      </trkpt>
      <trkpt lat="45.06019" lon="6.23869">
        <ele>2376.2</ele>
        <time>2024-08-10T08:07:39Z</time>
      </trkpt>
      <trkpt lat="45.06019" lon="6.23869">
        <ele>2376.2</ele>
        <time>2024-08-10T08:07:40Z</time>
      </trkpt>
      <trkpt lat="45.06019" lon="6.23869">
        <ele>2376.2</ele>
        <time>2024-08-10T08:07:41Z</time>
      </trkpt>
      <trkpt lat="45.06019" lon="6.23869">
        <ele>2376.2</ele>
        <time>2024-08-10T08:07:42Z</time>
      </trkpt>
      <trkpt lat="45.06019" lon="6.23869">
        <ele>2376.2</ele>
        <time>2024-08-10T08:07:43Z</time>
      </trkpt>
      <trkpt lat="45.06019" lon="6.23869">
        <ele>2376.2</ele>
        <time>2024-08-10T08:07:44Z</time>
      </trkpt>
      <trkpt lat="45.06019" lon="6.23869">
        <ele>2376.2</ele>
        <time>2024-08-10T08:07:45Z</time>
      </trkpt>
      <trkpt lat="45.06019" lon="6.23869">
        <ele>2376</ele>
        <time>2024-08-10T08:07:46Z</time>
      </trkpt>
      <trkpt lat="45.06019" lon="6.23869">
        <ele>2375.8</ele>
        <time>2024-08-10T08:07:47Z</time>
      </trkpt>
      <trkpt lat="45.06019" lon="6.23869">
        <ele>2375.8</ele>
        <time>2024-08-10T08:07:48Z</time>
      </trkpt>
      <trkpt lat="45.06019" lon="6.23869">
        <ele>2375.8</ele>
        <time>2024-08-10T08:07:49Z</time>
      </trkpt>
      <trkpt lat="45.06019" lon="6.23869">
        <ele>2375.6</ele>
        <time>2024-08-10T08:07:50Z</time>
      </trkpt>
      <trkpt lat="45.06019" lon="6.23869">
        <ele>2375.4</ele>
        <time>2024-08-10T08:07:51Z</time>
      </trkpt>
      <trkpt lat="45.06019" lon="6.23866">
        <ele>2375.4</ele>
        <time>2024-08-10T08:07:52Z</time>
      </trkpt>
      <trkpt lat="45.06019" lon="6.23866">
        <ele>2375.8</ele>
        <time>2024-08-10T08:07:53Z</time>
      </trkpt>
      <trkpt lat="45.06017" lon="6.23864">
        <ele>2375.8</ele>
        <time>2024-08-10T08:07:54Z</time>
      </trkpt>
      <trkpt lat="45.06017" lon="6.23864">
        <ele>2375.8</ele>
        <time>2024-08-10T08:07:55Z</time>
      </trkpt>
      <trkpt lat="45.06014" lon="6.23863">
        <ele>2375.8</ele>
        <time>2024-08-10T08:07:56Z</time>
      </trkpt>
      <trkpt lat="45.06013" lon="6.23863">
        <ele>2375.8</ele>
        <time>2024-08-10T08:07:57Z</time>
      </trkpt>
      <trkpt lat="45.06013" lon="6.23863">
        <ele>2375.8</ele>
        <time>2024-08-10T08:07:58Z</time>
      </trkpt>
      <trkpt lat="45.06013" lon="6.23863">
        <ele>2375.6</ele>
        <time>2024-08-10T08:07:59Z</time>
      </trkpt>
      <trkpt lat="45.06013" lon="6.23863">
        <ele>2375.4</ele>
        <time>2024-08-10T08:08:00Z</time>
      </trkpt>
      <trkpt lat="45.06013" lon="6.23863">
        <ele>2375.4</ele>
        <time>2024-08-10T08:08:01Z</time>
      </trkpt>
      <trkpt lat="45.06013" lon="6.23863">
        <ele>2375.6</ele>
        <time>2024-08-10T08:08:02Z</time>
      </trkpt>
      <trkpt lat="45.06013" lon="6.23863">
        <ele>2375.8</ele>
        <time>2024-08-10T08:08:03Z</time>
      </trkpt>
      <trkpt lat="45.06013" lon="6.23863">
        <ele>2375.8</ele>
        <time>2024-08-10T08:08:04Z</time>
      </trkpt>
      <trkpt lat="45.06013" lon="6.23863">
        <ele>2375.8</ele>
        <time>2024-08-10T08:08:05Z</time>
      </trkpt>
      <trkpt lat="45.06013" lon="6.23863">
        <ele>2375.6</ele>
        <time>2024-08-10T08:08:06Z</time>
      </trkpt>
      <trkpt lat="45.06013" lon="6.23863">
        <ele>2375.6</ele>
        <time>2024-08-10T08:08:07Z</time>
      </trkpt>
      <trkpt lat="45.06013" lon="6.23863">
        <ele>2375.6</ele>
        <time>2024-08-10T08:08:08Z</time>
      </trkpt>
      <trkpt lat="45.06013" lon="6.23863">
        <ele>2375.6</ele>
        <time>2024-08-10T08:08:09Z</time>
      </trkpt>
      <trkpt lat="45.06013" lon="6.23863">
        <ele>2375.6</ele>
        <time>2024-08-10T08:08:10Z</time>
      </trkpt>
      <trkpt lat="45.06013" lon="6.23863">
        <ele>2375.4</ele>
        <time>2024-08-10T08:08:11Z</time>
      </trkpt>
      <trkpt lat="45.06013" lon="6.23863">
        <ele>2375.4</ele>
        <time>2024-08-10T08:08:12Z</time>
      </trkpt>
      <trkpt lat="45.0601" lon="6.23863">
        <ele>2375.6</ele>
        <time>2024-08-10T08:08:13Z</time>
      </trkpt>
      <trkpt lat="45.0601" lon="6.23863">
        <ele>2375.6</ele>
        <time>2024-08-10T08:08:14Z</time>
      </trkpt>
      <trkpt lat="45.06008" lon="6.23863">
        <ele>2376</ele>
        <time>2024-08-10T08:08:15Z</time>
      </trkpt>
      <trkpt lat="45.06006" lon="6.23863">
        <ele>2376</ele>
        <time>2024-08-10T08:08:16Z</time>
      </trkpt>
      <trkpt lat="45.06004" lon="6.23863">
        <ele>2375.6</ele>
        <time>2024-08-10T08:08:17Z</time>
      </trkpt>
      <trkpt lat="45.06002" lon="6.23862">
        <ele>2375.6</ele>
        <time>2024-08-10T08:08:18Z</time>
      </trkpt>
      <trkpt lat="45.06002" lon="6.23862">
        <ele>2375.4</ele>
        <time>2024-08-10T08:08:19Z</time>
      </trkpt>
      <trkpt lat="45.06" lon="6.23862">
        <ele>2375.2</ele>
        <time>2024-08-10T08:08:20Z</time>
      </trkpt>
      <trkpt lat="45.06" lon="6.23862">
        <ele>2375.2</ele>
        <time>2024-08-10T08:08:21Z</time>
      </trkpt>
      <trkpt lat="45.05998" lon="6.23863">
        <ele>2375.2</ele>
        <time>2024-08-10T08:08:22Z</time>
      </trkpt>
      <trkpt lat="45.05998" lon="6.23863">
        <ele>2375.2</ele>
        <time>2024-08-10T08:08:23Z</time>
      </trkpt>
      <trkpt lat="45.05998" lon="6.23863">
        <ele>2375.2</ele>
        <time>2024-08-10T08:08:24Z</time>
      </trkpt>
      <trkpt lat="45.05995" lon="6.23864">
        <ele>2375.2</ele>
        <time>2024-08-10T08:08:25Z</time>
      </trkpt>
      <trkpt lat="45.05995" lon="6.23864">
        <ele>2375</ele>
        <time>2024-08-10T08:08:26Z</time>
      </trkpt>
      <trkpt lat="45.05993" lon="6.23864">
        <ele>2374.6</ele>
        <time>2024-08-10T08:08:27Z</time>
      </trkpt>
      <trkpt lat="45.05993" lon="6.23864">
        <ele>2374.4</ele>
        <time>2024-08-10T08:08:28Z</time>
      </trkpt>
      <trkpt lat="45.0599" lon="6.23863">
        <ele>2374.4</ele>
        <time>2024-08-10T08:08:29Z</time>
      </trkpt>
      <trkpt lat="45.0599" lon="6.23863">
        <ele>2374.4</ele>
        <time>2024-08-10T08:08:30Z</time>
      </trkpt>
      <trkpt lat="45.05988" lon="6.23862">
        <ele>2374.4</ele>
        <time>2024-08-10T08:08:31Z</time>
      </trkpt>
      <trkpt lat="45.05988" lon="6.23862">
        <ele>2374.2</ele>
        <time>2024-08-10T08:08:32Z</time>
      </trkpt>
      <trkpt lat="45.05986" lon="6.2386">
        <ele>2374.2</ele>
        <time>2024-08-10T08:08:33Z</time>
      </trkpt>
      <trkpt lat="45.05986" lon="6.2386">
        <ele>2374.4</ele>
        <time>2024-08-10T08:08:34Z</time>
      </trkpt>
      <trkpt lat="45.05983" lon="6.2386">
        <ele>2374.4</ele>
        <time>2024-08-10T08:08:35Z</time>
      </trkpt>
      <trkpt lat="45.05983" lon="6.2386">
        <ele>2374.4</ele>
        <time>2024-08-10T08:08:36Z</time>
      </trkpt>
      <trkpt lat="45.05981" lon="6.2386">
        <ele>2374.4</ele>
        <time>2024-08-10T08:08:37Z</time>
      </trkpt>
      <trkpt lat="45.05981" lon="6.2386">
        <ele>2374.4</ele>
        <time>2024-08-10T08:08:38Z</time>
      </trkpt>
      <trkpt lat="45.05978" lon="6.2386">
        <ele>2374.2</ele>
        <time>2024-08-10T08:08:39Z</time>
      </trkpt>
      <trkpt lat="45.05978" lon="6.2386">
        <ele>2374.2</ele>
        <time>2024-08-10T08:08:40Z</time>
      </trkpt>
      <trkpt lat="45.05975" lon="6.23859">
        <ele>2373.8</ele>
        <time>2024-08-10T08:08:41Z</time>
      </trkpt>
      <trkpt lat="45.05975" lon="6.23859">
        <ele>2373.8</ele>
        <time>2024-08-10T08:08:42Z</time>
      </trkpt>
      <trkpt lat="45.05972" lon="6.23858">
        <ele>2373.6</ele>
        <time>2024-08-10T08:08:43Z</time>
      </trkpt>
      <trkpt lat="45.05972" lon="6.23858">
        <ele>2373.6</ele>
        <time>2024-08-10T08:08:44Z</time>
      </trkpt>
      <trkpt lat="45.05969" lon="6.23858">
        <ele>2373.6</ele>
        <time>2024-08-10T08:08:45Z</time>
      </trkpt>
      <trkpt lat="45.05969" lon="6.23858">
        <ele>2373.8</ele>
        <time>2024-08-10T08:08:46Z</time>
      </trkpt>
      <trkpt lat="45.05967" lon="6.23858">
        <ele>2373.2</ele>
        <time>2024-08-10T08:08:47Z</time>
      </trkpt>
      <trkpt lat="45.05967" lon="6.23858">
        <ele>2373.2</ele>
        <time>2024-08-10T08:08:48Z</time>
      </trkpt>
      <trkpt lat="45.05964" lon="6.23857">
        <ele>2373.4</ele>
        <time>2024-08-10T08:08:49Z</time>
      </trkpt>
      <trkpt lat="45.05964" lon="6.23857">
        <ele>2373.6</ele>
        <time>2024-08-10T08:08:50Z</time>
      </trkpt>
      <trkpt lat="45.05961" lon="6.23857">
        <ele>2373.6</ele>
        <time>2024-08-10T08:08:51Z</time>
      </trkpt>
      <trkpt lat="45.05961" lon="6.23857">
        <ele>2373.4</ele>
        <time>2024-08-10T08:08:52Z</time>
      </trkpt>
      <trkpt lat="45.05958" lon="6.23858">
        <ele>2373</ele>
        <time>2024-08-10T08:08:53Z</time>
      </trkpt>
      <trkpt lat="45.05958" lon="6.23858">
        <ele>2373</ele>
        <time>2024-08-10T08:08:54Z</time>
      </trkpt>
      <trkpt lat="45.05956" lon="6.23858">
        <ele>2373</ele>
        <time>2024-08-10T08:08:55Z</time>
      </trkpt>
      <trkpt lat="45.05956" lon="6.23858">
        <ele>2372.8</ele>
        <time>2024-08-10T08:08:56Z</time>
      </trkpt>
      <trkpt lat="45.05953" lon="6.23857">
        <ele>2372.6</ele>
        <time>2024-08-10T08:08:57Z</time>
      </trkpt>
      <trkpt lat="45.05953" lon="6.23857">
        <ele>2372.6</ele>
        <time>2024-08-10T08:08:58Z</time>
      </trkpt>
      <trkpt lat="45.0595" lon="6.23858">
        <ele>2372.6</ele>
        <time>2024-08-10T08:08:59Z</time>
      </trkpt>
      <trkpt lat="45.0595" lon="6.23858">
        <ele>2372.4</ele>
        <time>2024-08-10T08:09:00Z</time>
      </trkpt>
      <trkpt lat="45.05947" lon="6.23858">
        <ele>2372.2</ele>
        <time>2024-08-10T08:09:01Z</time>
      </trkpt>
      <trkpt lat="45.05947" lon="6.23858">
        <ele>2372</ele>
        <time>2024-08-10T08:09:02Z</time>
      </trkpt>
      <trkpt lat="45.05944" lon="6.23858">
        <ele>2371.8</ele>
        <time>2024-08-10T08:09:03Z</time>
      </trkpt>
      <trkpt lat="45.05944" lon="6.23858">
        <ele>2371.8</ele>
        <time>2024-08-10T08:09:04Z</time>
      </trkpt>
      <trkpt lat="45.05942" lon="6.23859">
        <ele>2371.8</ele>
        <time>2024-08-10T08:09:05Z</time>
      </trkpt>
      <trkpt lat="45.05942" lon="6.23859">
        <ele>2371.8</ele>
        <time>2024-08-10T08:09:06Z</time>
      </trkpt>
      <trkpt lat="45.0594" lon="6.23859">
        <ele>2371.6</ele>
        <time>2024-08-10T08:09:07Z</time>
      </trkpt>
      <trkpt lat="45.0594" lon="6.23859">
        <ele>2371.6</ele>
        <time>2024-08-10T08:09:08Z</time>
      </trkpt>
      <trkpt lat="45.05937" lon="6.23857">
        <ele>2371.4</ele>
        <time>2024-08-10T08:09:09Z</time>
      </trkpt>
      <trkpt lat="45.05937" lon="6.23857">
        <ele>2371.4</ele>
        <time>2024-08-10T08:09:10Z</time>
      </trkpt>
      <trkpt lat="45.05934" lon="6.23858">
        <ele>2371.2</ele>
        <time>2024-08-10T08:09:11Z</time>
      </trkpt>
      <trkpt lat="45.05934" lon="6.23858">
        <ele>2371</ele>
        <time>2024-08-10T08:09:12Z</time>
      </trkpt>
      <trkpt lat="45.05933" lon="6.2386">
        <ele>2371</ele>
        <time>2024-08-10T08:09:13Z</time>
      </trkpt>
      <trkpt lat="45.05933" lon="6.2386">
        <ele>2371</ele>
        <time>2024-08-10T08:09:14Z</time>
      </trkpt>
      <trkpt lat="45.05932" lon="6.23862">
        <ele>2371</ele>
        <time>2024-08-10T08:09:15Z</time>
      </trkpt>
      <trkpt lat="45.05932" lon="6.23862">
        <ele>2371</ele>
        <time>2024-08-10T08:09:16Z</time>
      </trkpt>
      <trkpt lat="45.0593" lon="6.23864">
        <ele>2370.6</ele>
        <time>2024-08-10T08:09:17Z</time>
      </trkpt>
      <trkpt lat="45.0593" lon="6.23864">
        <ele>2370.4</ele>
        <time>2024-08-10T08:09:18Z</time>
      </trkpt>
      <trkpt lat="45.05928" lon="6.23865">
        <ele>2370</ele>
        <time>2024-08-10T08:09:19Z</time>
      </trkpt>
      <trkpt lat="45.05928" lon="6.23865">
        <ele>2370</ele>
        <time>2024-08-10T08:09:20Z</time>
      </trkpt>
      <trkpt lat="45.05928" lon="6.23865">
        <ele>2369.8</ele>
        <time>2024-08-10T08:09:21Z</time>
      </trkpt>
      <trkpt lat="45.05926" lon="6.23867">
        <ele>2369.8</ele>
        <time>2024-08-10T08:09:22Z</time>
      </trkpt>
      <trkpt lat="45.05926" lon="6.23867">
        <ele>2369.4</ele>
        <time>2024-08-10T08:09:23Z</time>
      </trkpt>
      <trkpt lat="45.05926" lon="6.23867">
        <ele>2369.2</ele>
        <time>2024-08-10T08:09:24Z</time>
      </trkpt>
      <trkpt lat="45.05926" lon="6.23867">
        <ele>2368.8</ele>
        <time>2024-08-10T08:09:25Z</time>
      </trkpt>
      <trkpt lat="45.05925" lon="6.23869">
        <ele>2368.6</ele>
        <time>2024-08-10T08:09:26Z</time>
      </trkpt>
      <trkpt lat="45.05925" lon="6.23869">
        <ele>2368.6</ele>
        <time>2024-08-10T08:09:27Z</time>
      </trkpt>
      <trkpt lat="45.05923" lon="6.23869">
        <ele>2368.6</ele>
        <time>2024-08-10T08:09:28Z</time>
      </trkpt>
      <trkpt lat="45.05923" lon="6.23869">
        <ele>2368.4</ele>
        <time>2024-08-10T08:09:29Z</time>
      </trkpt>
      <trkpt lat="45.05921" lon="6.2387">
        <ele>2368.2</ele>
        <time>2024-08-10T08:09:30Z</time>
      </trkpt>
      <trkpt lat="45.05921" lon="6.2387">
        <ele>2367.8</ele>
        <time>2024-08-10T08:09:31Z</time>
      </trkpt>
      <trkpt lat="45.05918" lon="6.23872">
        <ele>2367.4</ele>
        <time>2024-08-10T08:09:32Z</time>
      </trkpt>
      <trkpt lat="45.05918" lon="6.23872">
        <ele>2367</ele>
        <time>2024-08-10T08:09:33Z</time>
      </trkpt>
      <trkpt lat="45.05917" lon="6.23874">
        <ele>2366.6</ele>
        <time>2024-08-10T08:09:34Z</time>
      </trkpt>
      <trkpt lat="45.05917" lon="6.23874">
        <ele>2366.4</ele>
        <time>2024-08-10T08:09:35Z</time>
      </trkpt>
      <trkpt lat="45.05915" lon="6.23876">
        <ele>2366</ele>
        <time>2024-08-10T08:09:36Z</time>
      </trkpt>
      <trkpt lat="45.05915" lon="6.23876">
        <ele>2366</ele>
        <time>2024-08-10T08:09:37Z</time>
      </trkpt>
      <trkpt lat="45.05912" lon="6.23877">
        <ele>2366</ele>
        <time>2024-08-10T08:09:38Z</time>
      </trkpt>
      <trkpt lat="45.05912" lon="6.23877">
        <ele>2365.6</ele>
        <time>2024-08-10T08:09:39Z</time>
      </trkpt>
      <trkpt lat="45.0591" lon="6.23877">
        <ele>2365.6</ele>
        <time>2024-08-10T08:09:40Z</time>
      </trkpt>
      <trkpt lat="45.0591" lon="6.23877">
        <ele>2365.4</ele>
        <time>2024-08-10T08:09:41Z</time>
      </trkpt>
      <trkpt lat="45.05908" lon="6.23877">
        <ele>2365</ele>
        <time>2024-08-10T08:09:42Z</time>
      </trkpt>
      <trkpt lat="45.05908" lon="6.23877">
        <ele>2364.8</ele>
        <time>2024-08-10T08:09:43Z</time>
      </trkpt>
      <trkpt lat="45.05905" lon="6.23877">
        <ele>2364.6</ele>
        <time>2024-08-10T08:09:44Z</time>
      </trkpt>
      <trkpt lat="45.05905" lon="6.23877">
        <ele>2364</ele>
        <time>2024-08-10T08:09:45Z</time>
      </trkpt>
      <trkpt lat="45.05902" lon="6.23877">
        <ele>2363.4</ele>
        <time>2024-08-10T08:09:46Z</time>
      </trkpt>
      <trkpt lat="45.05902" lon="6.23877">
        <ele>2363</ele>
        <time>2024-08-10T08:09:47Z</time>
      </trkpt>
      <trkpt lat="45.059" lon="6.23877">
        <ele>2362.8</ele>
        <time>2024-08-10T08:09:48Z</time>
      </trkpt>
      <trkpt lat="45.059" lon="6.23877">
        <ele>2362.8</ele>
        <time>2024-08-10T08:09:49Z</time>
      </trkpt>
      <trkpt lat="45.05897" lon="6.23877">
        <ele>2362.4</ele>
        <time>2024-08-10T08:09:50Z</time>
      </trkpt>
      <trkpt lat="45.05897" lon="6.23877">
        <ele>2361.8</ele>
        <time>2024-08-10T08:09:51Z</time>
      </trkpt>
      <trkpt lat="45.05894" lon="6.23877">
        <ele>2361.6</ele>
        <time>2024-08-10T08:09:52Z</time>
      </trkpt>
      <trkpt lat="45.05894" lon="6.23877">
        <ele>2361.6</ele>
        <time>2024-08-10T08:09:53Z</time>
      </trkpt>
      <trkpt lat="45.05892" lon="6.23877">
        <ele>2361.4</ele>
        <time>2024-08-10T08:09:54Z</time>
      </trkpt>
      <trkpt lat="45.05892" lon="6.23877">
        <ele>2360.8</ele>
        <time>2024-08-10T08:09:55Z</time>
      </trkpt>
      <trkpt lat="45.0589" lon="6.23878">
        <ele>2360.6</ele>
        <time>2024-08-10T08:09:56Z</time>
      </trkpt>
      <trkpt lat="45.0589" lon="6.23878">
        <ele>2360.6</ele>
        <time>2024-08-10T08:09:57Z</time>
      </trkpt>
      <trkpt lat="45.05888" lon="6.23878">
        <ele>2360.6</ele>
        <time>2024-08-10T08:09:58Z</time>
      </trkpt>
      <trkpt lat="45.05888" lon="6.23878">
        <ele>2360.2</ele>
        <time>2024-08-10T08:09:59Z</time>
      </trkpt>
      <trkpt lat="45.05886" lon="6.23878">
        <ele>2360</ele>
        <time>2024-08-10T08:10:00Z</time>
      </trkpt>
      <trkpt lat="45.05886" lon="6.23878">
        <ele>2359.8</ele>
        <time>2024-08-10T08:10:01Z</time>
      </trkpt>
      <trkpt lat="45.05883" lon="6.23877">
        <ele>2359.8</ele>
        <time>2024-08-10T08:10:02Z</time>
      </trkpt>
      <trkpt lat="45.05883" lon="6.23877">
        <ele>2359.4</ele>
        <time>2024-08-10T08:10:03Z</time>
      </trkpt>
      <trkpt lat="45.0588" lon="6.23877">
        <ele>2359.4</ele>
        <time>2024-08-10T08:10:04Z</time>
      </trkpt>
      <trkpt lat="45.0588" lon="6.23877">
        <ele>2359</ele>
        <time>2024-08-10T08:10:05Z</time>
      </trkpt>
      <trkpt lat="45.05877" lon="6.23878">
        <ele>2358.8</ele>
        <time>2024-08-10T08:10:06Z</time>
      </trkpt>
      <trkpt lat="45.05877" lon="6.23878">
        <ele>2358.6</ele>
        <time>2024-08-10T08:10:07Z</time>
      </trkpt>
      <trkpt lat="45.05874" lon="6.23879">
        <ele>2358.4</ele>
        <time>2024-08-10T08:10:08Z</time>
      </trkpt>
      <trkpt lat="45.05874" lon="6.23879">
        <ele>2358.2</ele>
        <time>2024-08-10T08:10:09Z</time>
      </trkpt>
      <trkpt lat="45.05872" lon="6.2388">
        <ele>2358</ele>
        <time>2024-08-10T08:10:10Z</time>
      </trkpt>
      <trkpt lat="45.05872" lon="6.2388">
        <ele>2357.8</ele>
        <time>2024-08-10T08:10:11Z</time>
      </trkpt>
      <trkpt lat="45.05869" lon="6.23882">
        <ele>2357.6</ele>
        <time>2024-08-10T08:10:12Z</time>
      </trkpt>
      <trkpt lat="45.05869" lon="6.23882">
        <ele>2357.2</ele>
        <time>2024-08-10T08:10:13Z</time>
      </trkpt>
      <trkpt lat="45.05866" lon="6.23882">
        <ele>2356.8</ele>
        <time>2024-08-10T08:10:14Z</time>
      </trkpt>
      <trkpt lat="45.05866" lon="6.23882">
        <ele>2356.6</ele>
        <time>2024-08-10T08:10:15Z</time>
      </trkpt>
      <trkpt lat="45.05864" lon="6.23883">
        <ele>2356.4</ele>
        <time>2024-08-10T08:10:16Z</time>
      </trkpt>
      <trkpt lat="45.05864" lon="6.23883">
        <ele>2356.2</ele>
        <time>2024-08-10T08:10:17Z</time>
      </trkpt>
      <trkpt lat="45.05861" lon="6.23884">
        <ele>2356</ele>
        <time>2024-08-10T08:10:18Z</time>
      </trkpt>
      <trkpt lat="45.05861" lon="6.23884">
        <ele>2355.8</ele>
        <time>2024-08-10T08:10:19Z</time>
      </trkpt>
      <trkpt lat="45.05858" lon="6.23885">
        <ele>2355.6</ele>
        <time>2024-08-10T08:10:20Z</time>
      </trkpt>
      <trkpt lat="45.05858" lon="6.23885">
        <ele>2355.4</ele>
        <time>2024-08-10T08:10:21Z</time>
      </trkpt>
      <trkpt lat="45.05855" lon="6.23886">
        <ele>2355.2</ele>
        <time>2024-08-10T08:10:22Z</time>
      </trkpt>
      <trkpt lat="45.05855" lon="6.23886">
        <ele>2355.2</ele>
        <time>2024-08-10T08:10:23Z</time>
      </trkpt>
      <trkpt lat="45.05853" lon="6.23887">
        <ele>2355.2</ele>
        <time>2024-08-10T08:10:24Z</time>
      </trkpt>
      <trkpt lat="45.05853" lon="6.23887">
        <ele>2355</ele>
        <time>2024-08-10T08:10:25Z</time>
      </trkpt>
      <trkpt lat="45.0585" lon="6.23889">
        <ele>2354.8</ele>
        <time>2024-08-10T08:10:26Z</time>
      </trkpt>
      <trkpt lat="45.0585" lon="6.23889">
        <ele>2354.4</ele>
        <time>2024-08-10T08:10:27Z</time>
      </trkpt>
      <trkpt lat="45.05848" lon="6.23891">
        <ele>2354</ele>
        <time>2024-08-10T08:10:28Z</time>
      </trkpt>
      <trkpt lat="45.05848" lon="6.23891">
        <ele>2354</ele>
        <time>2024-08-10T08:10:29Z</time>
      </trkpt>
      <trkpt lat="45.05845" lon="6.23894">
        <ele>2354</ele>
        <time>2024-08-10T08:10:30Z</time>
      </trkpt>
      <trkpt lat="45.05845" lon="6.23894">
        <ele>2354</ele>
        <time>2024-08-10T08:10:31Z</time>
      </trkpt>
      <trkpt lat="45.05843" lon="6.23897">
        <ele>2353.8</ele>
        <time>2024-08-10T08:10:32Z</time>
      </trkpt>
      <trkpt lat="45.05843" lon="6.23897">
        <ele>2353.8</ele>
        <time>2024-08-10T08:10:33Z</time>
      </trkpt>
      <trkpt lat="45.05841" lon="6.23897">
        <ele>2353.4</ele>
        <time>2024-08-10T08:10:34Z</time>
      </trkpt>
      <trkpt lat="45.05841" lon="6.23897">
        <ele>2353.4</ele>
        <time>2024-08-10T08:10:35Z</time>
      </trkpt>
      <trkpt lat="45.05838" lon="6.23897">
        <ele>2353</ele>
        <time>2024-08-10T08:10:36Z</time>
      </trkpt>
      <trkpt lat="45.05838" lon="6.23897">
        <ele>2352.6</ele>
        <time>2024-08-10T08:10:37Z</time>
      </trkpt>
      <trkpt lat="45.05836" lon="6.23898">
        <ele>2352.6</ele>
        <time>2024-08-10T08:10:38Z</time>
      </trkpt>
      <trkpt lat="45.05836" lon="6.23898">
        <ele>2352.4</ele>
        <time>2024-08-10T08:10:39Z</time>
      </trkpt>
      <trkpt lat="45.05834" lon="6.23899">
        <ele>2352.2</ele>
        <time>2024-08-10T08:10:40Z</time>
      </trkpt>
      <trkpt lat="45.05834" lon="6.23899">
        <ele>2352</ele>
        <time>2024-08-10T08:10:41Z</time>
      </trkpt>
      <trkpt lat="45.05834" lon="6.23899">
        <ele>2351.2</ele>
        <time>2024-08-10T08:10:42Z</time>
      </trkpt>
      <trkpt lat="45.05832" lon="6.239">
        <ele>2350.6</ele>
        <time>2024-08-10T08:10:43Z</time>
      </trkpt>
      <trkpt lat="45.05832" lon="6.239">
        <ele>2350.6</ele>
        <time>2024-08-10T08:10:44Z</time>
      </trkpt>
      <trkpt lat="45.05829" lon="6.23902">
        <ele>2350.6</ele>
        <time>2024-08-10T08:10:45Z</time>
      </trkpt>
      <trkpt lat="45.05829" lon="6.23902">
        <ele>2350.6</ele>
        <time>2024-08-10T08:10:46Z</time>
      </trkpt>
      <trkpt lat="45.05826" lon="6.23902">
        <ele>2350</ele>
        <time>2024-08-10T08:10:47Z</time>
      </trkpt>
      <trkpt lat="45.05826" lon="6.23902">
        <ele>2349.6</ele>
        <time>2024-08-10T08:10:48Z</time>
      </trkpt>
      <trkpt lat="45.05823" lon="6.23902">
        <ele>2349.2</ele>
        <time>2024-08-10T08:10:49Z</time>
      </trkpt>
      <trkpt lat="45.05823" lon="6.23902">
        <ele>2349.2</ele>
        <time>2024-08-10T08:10:50Z</time>
      </trkpt>
      <trkpt lat="45.05821" lon="6.23904">
        <ele>2349.4</ele>
        <time>2024-08-10T08:10:51Z</time>
      </trkpt>
      <trkpt lat="45.05821" lon="6.23904">
        <ele>2349.4</ele>
        <time>2024-08-10T08:10:52Z</time>
      </trkpt>
      <trkpt lat="45.05819" lon="6.23906">
        <ele>2349.6</ele>
        <time>2024-08-10T08:10:53Z</time>
      </trkpt>
      <trkpt lat="45.05819" lon="6.23906">
        <ele>2349.6</ele>
        <time>2024-08-10T08:10:54Z</time>
      </trkpt>
      <trkpt lat="45.05816" lon="6.23907">
        <ele>2349.6</ele>
        <time>2024-08-10T08:10:55Z</time>
      </trkpt>
      <trkpt lat="45.05816" lon="6.23907">
        <ele>2349.6</ele>
        <time>2024-08-10T08:10:56Z</time>
      </trkpt>
      <trkpt lat="45.05813" lon="6.23908">
        <ele>2349.4</ele>
        <time>2024-08-10T08:10:57Z</time>
      </trkpt>
      <trkpt lat="45.05813" lon="6.23908">
        <ele>2349.2</ele>
        <time>2024-08-10T08:10:58Z</time>
      </trkpt>
      <trkpt lat="45.05811" lon="6.23911">
        <ele>2349.2</ele>
        <time>2024-08-10T08:10:59Z</time>
      </trkpt>
      <trkpt lat="45.05811" lon="6.23911">
        <ele>2348.8</ele>
        <time>2024-08-10T08:11:00Z</time>
      </trkpt>
      <trkpt lat="45.05808" lon="6.23912">
        <ele>2348.6</ele>
        <time>2024-08-10T08:11:01Z</time>
      </trkpt>
      <trkpt lat="45.05808" lon="6.23912">
        <ele>2348.6</ele>
        <time>2024-08-10T08:11:02Z</time>
      </trkpt>
      <trkpt lat="45.05805" lon="6.23913">
        <ele>2348.2</ele>
        <time>2024-08-10T08:11:03Z</time>
      </trkpt>
      <trkpt lat="45.05805" lon="6.23913">
        <ele>2348</ele>
        <time>2024-08-10T08:11:04Z</time>
      </trkpt>
      <trkpt lat="45.05803" lon="6.23914">
        <ele>2347.8</ele>
        <time>2024-08-10T08:11:05Z</time>
      </trkpt>
      <trkpt lat="45.05803" lon="6.23914">
        <ele>2347.6</ele>
        <time>2024-08-10T08:11:06Z</time>
      </trkpt>
      <trkpt lat="45.058" lon="6.23916">
        <ele>2347.6</ele>
        <time>2024-08-10T08:11:07Z</time>
      </trkpt>
      <trkpt lat="45.058" lon="6.23916">
        <ele>2347.4</ele>
        <time>2024-08-10T08:11:08Z</time>
      </trkpt>
      <trkpt lat="45.05798" lon="6.23918">
        <ele>2347.4</ele>
        <time>2024-08-10T08:11:09Z</time>
      </trkpt>
      <trkpt lat="45.05798" lon="6.23918">
        <ele>2347.4</ele>
        <time>2024-08-10T08:11:10Z</time>
      </trkpt>
      <trkpt lat="45.05795" lon="6.23919">
        <ele>2347.4</ele>
        <time>2024-08-10T08:11:11Z</time>
      </trkpt>
      <trkpt lat="45.05795" lon="6.23919">
        <ele>2347.2</ele>
        <time>2024-08-10T08:11:12Z</time>
      </trkpt>
      <trkpt lat="45.05793" lon="6.23921">
        <ele>2347.2</ele>
        <time>2024-08-10T08:11:13Z</time>
      </trkpt>
      <trkpt lat="45.05793" lon="6.23921">
        <ele>2347.4</ele>
        <time>2024-08-10T08:11:14Z</time>
      </trkpt>
      <trkpt lat="45.05791" lon="6.23924">
        <ele>2347.4</ele>
        <time>2024-08-10T08:11:15Z</time>
      </trkpt>
      <trkpt lat="45.05791" lon="6.23924">
        <ele>2347.2</ele>
        <time>2024-08-10T08:11:16Z</time>
      </trkpt>
      <trkpt lat="45.05789" lon="6.23927">
        <ele>2346.8</ele>
        <time>2024-08-10T08:11:17Z</time>
      </trkpt>
      <trkpt lat="45.05789" lon="6.23927">
        <ele>2346.6</ele>
        <time>2024-08-10T08:11:18Z</time>
      </trkpt>
      <trkpt lat="45.05787" lon="6.2393">
        <ele>2346.4</ele>
        <time>2024-08-10T08:11:19Z</time>
      </trkpt>
      <trkpt lat="45.05787" lon="6.2393">
        <ele>2346.2</ele>
        <time>2024-08-10T08:11:20Z</time>
      </trkpt>
      <trkpt lat="45.05785" lon="6.23933">
        <ele>2346.2</ele>
        <time>2024-08-10T08:11:21Z</time>
      </trkpt>
      <trkpt lat="45.05783" lon="6.23935">
        <ele>2346</ele>
        <time>2024-08-10T08:11:22Z</time>
      </trkpt>
      <trkpt lat="45.05783" lon="6.23935">
        <ele>2346</ele>
        <time>2024-08-10T08:11:23Z</time>
      </trkpt>
      <trkpt lat="45.05781" lon="6.23937">
        <ele>2346</ele>
        <time>2024-08-10T08:11:24Z</time>
      </trkpt>
      <trkpt lat="45.05781" lon="6.23937">
        <ele>2345.6</ele>
        <time>2024-08-10T08:11:25Z</time>
      </trkpt>
      <trkpt lat="45.05779" lon="6.23938">
        <ele>2345.6</ele>
        <time>2024-08-10T08:11:26Z</time>
      </trkpt>
      <trkpt lat="45.05779" lon="6.23938">
        <ele>2345.4</ele>
        <time>2024-08-10T08:11:27Z</time>
      </trkpt>
      <trkpt lat="45.05777" lon="6.23941">
        <ele>2345.4</ele>
        <time>2024-08-10T08:11:28Z</time>
      </trkpt>
      <trkpt lat="45.05777" lon="6.23941">
        <ele>2345.4</ele>
        <time>2024-08-10T08:11:29Z</time>
      </trkpt>
      <trkpt lat="45.05776" lon="6.23943">
        <ele>2345.6</ele>
        <time>2024-08-10T08:11:30Z</time>
      </trkpt>
      <trkpt lat="45.05776" lon="6.23943">
        <ele>2345.6</ele>
        <time>2024-08-10T08:11:31Z</time>
      </trkpt>
      <trkpt lat="45.05775" lon="6.23946">
        <ele>2345.2</ele>
        <time>2024-08-10T08:11:32Z</time>
      </trkpt>
      <trkpt lat="45.05775" lon="6.23946">
        <ele>2345</ele>
        <time>2024-08-10T08:11:33Z</time>
      </trkpt>
      <trkpt lat="45.05774" lon="6.23949">
        <ele>2344.8</ele>
        <time>2024-08-10T08:11:34Z</time>
      </trkpt>
      <trkpt lat="45.05774" lon="6.23949">
        <ele>2344.4</ele>
        <time>2024-08-10T08:11:35Z</time>
      </trkpt>
      <trkpt lat="45.05773" lon="6.23951">
        <ele>2344.4</ele>
        <time>2024-08-10T08:11:36Z</time>
      </trkpt>
      <trkpt lat="45.05773" lon="6.23951">
        <ele>2344</ele>
        <time>2024-08-10T08:11:37Z</time>
      </trkpt>
      <trkpt lat="45.05771" lon="6.23953">
        <ele>2343.8</ele>
        <time>2024-08-10T08:11:38Z</time>
      </trkpt>
      <trkpt lat="45.05771" lon="6.23953">
        <ele>2343.4</ele>
        <time>2024-08-10T08:11:39Z</time>
      </trkpt>
      <trkpt lat="45.05769" lon="6.23954">
        <ele>2342.2</ele>
        <time>2024-08-10T08:11:40Z</time>
      </trkpt>
      <trkpt lat="45.05769" lon="6.23954">
        <ele>2341.8</ele>
        <time>2024-08-10T08:11:41Z</time>
      </trkpt>
      <trkpt lat="45.05769" lon="6.23954">
        <ele>2341</ele>
        <time>2024-08-10T08:11:42Z</time>
      </trkpt>
      <trkpt lat="45.05767" lon="6.23957">
        <ele>2340.2</ele>
        <time>2024-08-10T08:11:43Z</time>
      </trkpt>
      <trkpt lat="45.05767" lon="6.23957">
        <ele>2339.6</ele>
        <time>2024-08-10T08:11:44Z</time>
      </trkpt>
      <trkpt lat="45.05765" lon="6.23959">
        <ele>2339.2</ele>
        <time>2024-08-10T08:11:45Z</time>
      </trkpt>
      <trkpt lat="45.05765" lon="6.23959">
        <ele>2338.8</ele>
        <time>2024-08-10T08:11:46Z</time>
      </trkpt>
      <trkpt lat="45.05765" lon="6.23959">
        <ele>2338.2</ele>
        <time>2024-08-10T08:11:47Z</time>
      </trkpt>
      <trkpt lat="45.05763" lon="6.23962">
        <ele>2337.6</ele>
        <time>2024-08-10T08:11:48Z</time>
      </trkpt>
      <trkpt lat="45.05763" lon="6.23962">
        <ele>2336.8</ele>
        <time>2024-08-10T08:11:49Z</time>
      </trkpt>
      <trkpt lat="45.05762" lon="6.23964">
        <ele>2336.4</ele>
        <time>2024-08-10T08:11:50Z</time>
      </trkpt>
      <trkpt lat="45.05762" lon="6.23964">
        <ele>2336</ele>
        <time>2024-08-10T08:11:51Z</time>
      </trkpt>
      <trkpt lat="45.05762" lon="6.23964">
        <ele>2335.6</ele>
        <time>2024-08-10T08:11:52Z</time>
      </trkpt>
      <trkpt lat="45.05762" lon="6.23968">
        <ele>2335.2</ele>
        <time>2024-08-10T08:11:53Z</time>
      </trkpt>
      <trkpt lat="45.05762" lon="6.23968">
        <ele>2335</ele>
        <time>2024-08-10T08:11:54Z</time>
      </trkpt>
      <trkpt lat="45.05762" lon="6.23971">
        <ele>2335</ele>
        <time>2024-08-10T08:11:55Z</time>
      </trkpt>
      <trkpt lat="45.05762" lon="6.23971">
        <ele>2334.2</ele>
        <time>2024-08-10T08:11:56Z</time>
      </trkpt>
      <trkpt lat="45.05761" lon="6.23974">
        <ele>2334</ele>
        <time>2024-08-10T08:11:57Z</time>
      </trkpt>
      <trkpt lat="45.05761" lon="6.23974">
        <ele>2334</ele>
        <time>2024-08-10T08:11:58Z</time>
      </trkpt>
      <trkpt lat="45.05761" lon="6.23974">
        <ele>2333.6</ele>
        <time>2024-08-10T08:11:59Z</time>
      </trkpt>
      <trkpt lat="45.0576" lon="6.23977">
        <ele>2333.2</ele>
        <time>2024-08-10T08:12:00Z</time>
      </trkpt>
      <trkpt lat="45.0576" lon="6.23977">
        <ele>2333</ele>
        <time>2024-08-10T08:12:01Z</time>
      </trkpt>
      <trkpt lat="45.05759" lon="6.2398">
        <ele>2332.8</ele>
        <time>2024-08-10T08:12:02Z</time>
      </trkpt>
      <trkpt lat="45.05759" lon="6.2398">
        <ele>2331.8</ele>
        <time>2024-08-10T08:12:03Z</time>
      </trkpt>
      <trkpt lat="45.05758" lon="6.23983">
        <ele>2331.8</ele>
        <time>2024-08-10T08:12:04Z</time>
      </trkpt>
      <trkpt lat="45.05758" lon="6.23983">
        <ele>2331.4</ele>
        <time>2024-08-10T08:12:05Z</time>
      </trkpt>
      <trkpt lat="45.05757" lon="6.23986">
        <ele>2330.8</ele>
        <time>2024-08-10T08:12:06Z</time>
      </trkpt>
      <trkpt lat="45.05757" lon="6.23986">
        <ele>2330.4</ele>
        <time>2024-08-10T08:12:07Z</time>
      </trkpt>
      <trkpt lat="45.05757" lon="6.23986">
        <ele>2330.2</ele>
        <time>2024-08-10T08:12:08Z</time>
      </trkpt>
      <trkpt lat="45.05757" lon="6.23986">
        <ele>2329.8</ele>
        <time>2024-08-10T08:12:09Z</time>
      </trkpt>
      <trkpt lat="45.05757" lon="6.23986">
        <ele>2329.6</ele>
        <time>2024-08-10T08:12:10Z</time>
      </trkpt>
      <trkpt lat="45.05757" lon="6.23986">
        <ele>2329.4</ele>
        <time>2024-08-10T08:12:11Z</time>
      </trkpt>
      <trkpt lat="45.05757" lon="6.23989">
        <ele>2329.2</ele>
        <time>2024-08-10T08:12:12Z</time>
      </trkpt>
      <trkpt lat="45.05757" lon="6.23989">
        <ele>2329</ele>
        <time>2024-08-10T08:12:13Z</time>
      </trkpt>
      <trkpt lat="45.05757" lon="6.23989">
        <ele>2329.2</ele>
        <time>2024-08-10T08:12:14Z</time>
      </trkpt>
      <trkpt lat="45.05757" lon="6.23992">
        <ele>2329.2</ele>
        <time>2024-08-10T08:12:15Z</time>
      </trkpt>
      <trkpt lat="45.05757" lon="6.23992">
        <ele>2329.2</ele>
        <time>2024-08-10T08:12:16Z</time>
      </trkpt>
      <trkpt lat="45.05755" lon="6.23996">
        <ele>2329</ele>
        <time>2024-08-10T08:12:17Z</time>
      </trkpt>
      <trkpt lat="45.05755" lon="6.23996">
        <ele>2328.4</ele>
        <time>2024-08-10T08:12:18Z</time>
      </trkpt>
      <trkpt lat="45.05754" lon="6.23999">
        <ele>2328</ele>
        <time>2024-08-10T08:12:19Z</time>
      </trkpt>
      <trkpt lat="45.05754" lon="6.23999">
        <ele>2327.8</ele>
        <time>2024-08-10T08:12:20Z</time>
      </trkpt>
      <trkpt lat="45.05752" lon="6.24002">
        <ele>2327.4</ele>
        <time>2024-08-10T08:12:21Z</time>
      </trkpt>
      <trkpt lat="45.05752" lon="6.24002">
        <ele>2327.2</ele>
        <time>2024-08-10T08:12:22Z</time>
      </trkpt>
      <trkpt lat="45.05751" lon="6.24005">
        <ele>2327</ele>
        <time>2024-08-10T08:12:23Z</time>
      </trkpt>
      <trkpt lat="45.05751" lon="6.24005">
        <ele>2326.6</ele>
        <time>2024-08-10T08:12:24Z</time>
      </trkpt>
      <trkpt lat="45.05749" lon="6.24007">
        <ele>2326.2</ele>
        <time>2024-08-10T08:12:25Z</time>
      </trkpt>
      <trkpt lat="45.05749" lon="6.24007">
        <ele>2325.6</ele>
        <time>2024-08-10T08:12:26Z</time>
      </trkpt>
      <trkpt lat="45.05749" lon="6.2401">
        <ele>2325.6</ele>
        <time>2024-08-10T08:12:27Z</time>
      </trkpt>
      <trkpt lat="45.05749" lon="6.2401">
        <ele>2325.6</ele>
        <time>2024-08-10T08:12:28Z</time>
      </trkpt>
      <trkpt lat="45.05748" lon="6.24014">
        <ele>2325.4</ele>
        <time>2024-08-10T08:12:29Z</time>
      </trkpt>
      <trkpt lat="45.05748" lon="6.24014">
        <ele>2325.2</ele>
        <time>2024-08-10T08:12:30Z</time>
      </trkpt>
      <trkpt lat="45.05748" lon="6.24017">
        <ele>2324.4</ele>
        <time>2024-08-10T08:12:31Z</time>
      </trkpt>
      <trkpt lat="45.05748" lon="6.24017">
        <ele>2324.2</ele>
        <time>2024-08-10T08:12:32Z</time>
      </trkpt>
      <trkpt lat="45.05747" lon="6.24021">
        <ele>2324</ele>
        <time>2024-08-10T08:12:33Z</time>
      </trkpt>
      <trkpt lat="45.05747" lon="6.24021">
        <ele>2323.6</ele>
        <time>2024-08-10T08:12:34Z</time>
      </trkpt>
      <trkpt lat="45.05747" lon="6.24024">
        <ele>2323.4</ele>
        <time>2024-08-10T08:12:35Z</time>
      </trkpt>
      <trkpt lat="45.05747" lon="6.24024">
        <ele>2323.2</ele>
        <time>2024-08-10T08:12:36Z</time>
      </trkpt>
      <trkpt lat="45.05746" lon="6.24028">
        <ele>2322.8</ele>
        <time>2024-08-10T08:12:37Z</time>
      </trkpt>
      <trkpt lat="45.05746" lon="6.24028">
        <ele>2322.8</ele>
        <time>2024-08-10T08:12:38Z</time>
      </trkpt>
      <trkpt lat="45.05745" lon="6.24032">
        <ele>2322.6</ele>
        <time>2024-08-10T08:12:39Z</time>
      </trkpt>
      <trkpt lat="45.05745" lon="6.24032">
        <ele>2322.2</ele>
        <time>2024-08-10T08:12:40Z</time>
      </trkpt>
      <trkpt lat="45.05744" lon="6.24036">
        <ele>2322.2</ele>
        <time>2024-08-10T08:12:41Z</time>
      </trkpt>
      <trkpt lat="45.05744" lon="6.24036">
        <ele>2321.8</ele>
        <time>2024-08-10T08:12:42Z</time>
      </trkpt>
      <trkpt lat="45.05743" lon="6.24039">
        <ele>2321.6</ele>
        <time>2024-08-10T08:12:43Z</time>
      </trkpt>
      <trkpt lat="45.05743" lon="6.24039">
        <ele>2321.4</ele>
        <time>2024-08-10T08:12:44Z</time>
      </trkpt>
      <trkpt lat="45.05741" lon="6.24043">
        <ele>2321.2</ele>
        <time>2024-08-10T08:12:45Z</time>
      </trkpt>
      <trkpt lat="45.05741" lon="6.24043">
        <ele>2320.8</ele>
        <time>2024-08-10T08:12:46Z</time>
      </trkpt>
      <trkpt lat="45.05741" lon="6.24047">
        <ele>2320.8</ele>
        <time>2024-08-10T08:12:47Z</time>
      </trkpt>
      <trkpt lat="45.05741" lon="6.24047">
        <ele>2320.4</ele>
        <time>2024-08-10T08:12:48Z</time>
      </trkpt>
      <trkpt lat="45.05739" lon="6.2405">
        <ele>2320.2</ele>
        <time>2024-08-10T08:12:49Z</time>
      </trkpt>
      <trkpt lat="45.05739" lon="6.2405">
        <ele>2320</ele>
        <time>2024-08-10T08:12:50Z</time>
      </trkpt>
      <trkpt lat="45.05738" lon="6.24054">
        <ele>2319.8</ele>
        <time>2024-08-10T08:12:51Z</time>
      </trkpt>
      <trkpt lat="45.05738" lon="6.24054">
        <ele>2319.8</ele>
        <time>2024-08-10T08:12:52Z</time>
      </trkpt>
      <trkpt lat="45.05737" lon="6.24058">
        <ele>2319.6</ele>
        <time>2024-08-10T08:12:53Z</time>
      </trkpt>
      <trkpt lat="45.05737" lon="6.24058">
        <ele>2319.6</ele>
        <time>2024-08-10T08:12:54Z</time>
      </trkpt>
      <trkpt lat="45.05736" lon="6.24061">
        <ele>2319.4</ele>
        <time>2024-08-10T08:12:55Z</time>
      </trkpt>
      <trkpt lat="45.05736" lon="6.24061">
        <ele>2319.2</ele>
        <time>2024-08-10T08:12:56Z</time>
      </trkpt>
      <trkpt lat="45.05734" lon="6.24065">
        <ele>2319.2</ele>
        <time>2024-08-10T08:12:57Z</time>
      </trkpt>
      <trkpt lat="45.05734" lon="6.24065">
        <ele>2318.8</ele>
        <time>2024-08-10T08:12:58Z</time>
      </trkpt>
      <trkpt lat="45.05733" lon="6.24068">
        <ele>2318.8</ele>
        <time>2024-08-10T08:12:59Z</time>
      </trkpt>
      <trkpt lat="45.05733" lon="6.24068">
        <ele>2318.6</ele>
        <time>2024-08-10T08:13:00Z</time>
      </trkpt>
      <trkpt lat="45.05732" lon="6.24071">
        <ele>2318.6</ele>
        <time>2024-08-10T08:13:01Z</time>
      </trkpt>
      <trkpt lat="45.05732" lon="6.24071">
        <ele>2318.4</ele>
        <time>2024-08-10T08:13:02Z</time>
      </trkpt>
      <trkpt lat="45.0573" lon="6.24074">
        <ele>2317.8</ele>
        <time>2024-08-10T08:13:03Z</time>
      </trkpt>
      <trkpt lat="45.0573" lon="6.24074">
        <ele>2317.8</ele>
        <time>2024-08-10T08:13:04Z</time>
      </trkpt>
      <trkpt lat="45.05729" lon="6.24078">
        <ele>2317.6</ele>
        <time>2024-08-10T08:13:05Z</time>
      </trkpt>
      <trkpt lat="45.05729" lon="6.24078">
        <ele>2317.6</ele>
        <time>2024-08-10T08:13:06Z</time>
      </trkpt>
      <trkpt lat="45.05727" lon="6.24081">
        <ele>2317.4</ele>
        <time>2024-08-10T08:13:07Z</time>
      </trkpt>
      <trkpt lat="45.05727" lon="6.24081">
        <ele>2317.2</ele>
        <time>2024-08-10T08:13:08Z</time>
      </trkpt>
      <trkpt lat="45.05727" lon="6.24085">
        <ele>2317</ele>
        <time>2024-08-10T08:13:09Z</time>
      </trkpt>
      <trkpt lat="45.05727" lon="6.24085">
        <ele>2316.8</ele>
        <time>2024-08-10T08:13:10Z</time>
      </trkpt>
      <trkpt lat="45.05727" lon="6.24089">
        <ele>2316.4</ele>
        <time>2024-08-10T08:13:11Z</time>
      </trkpt>
      <trkpt lat="45.05727" lon="6.24089">
        <ele>2316.4</ele>
        <time>2024-08-10T08:13:12Z</time>
      </trkpt>
      <trkpt lat="45.05727" lon="6.24093">
        <ele>2316.4</ele>
        <time>2024-08-10T08:13:13Z</time>
      </trkpt>
      <trkpt lat="45.05727" lon="6.24093">
        <ele>2316.4</ele>
        <time>2024-08-10T08:13:14Z</time>
      </trkpt>
      <trkpt lat="45.05727" lon="6.24097">
        <ele>2316.4</ele>
        <time>2024-08-10T08:13:15Z</time>
      </trkpt>
      <trkpt lat="45.05727" lon="6.24097">
        <ele>2316.4</ele>
        <time>2024-08-10T08:13:16Z</time>
      </trkpt>
      <trkpt lat="45.05728" lon="6.24101">
        <ele>2316.2</ele>
        <time>2024-08-10T08:13:17Z</time>
      </trkpt>
      <trkpt lat="45.05728" lon="6.24101">
        <ele>2316.2</ele>
        <time>2024-08-10T08:13:18Z</time>
      </trkpt>
      <trkpt lat="45.05729" lon="6.24105">
        <ele>2316</ele>
        <time>2024-08-10T08:13:19Z</time>
      </trkpt>
      <trkpt lat="45.05729" lon="6.24105">
        <ele>2316</ele>
        <time>2024-08-10T08:13:20Z</time>
      </trkpt>
      <trkpt lat="45.05729" lon="6.24109">
        <ele>2316</ele>
        <time>2024-08-10T08:13:21Z</time>
      </trkpt>
      <trkpt lat="45.05729" lon="6.24109">
        <ele>2316</ele>
        <time>2024-08-10T08:13:22Z</time>
      </trkpt>
      <trkpt lat="45.0573" lon="6.24113">
        <ele>2316</ele>
        <time>2024-08-10T08:13:23Z</time>
      </trkpt>
      <trkpt lat="45.0573" lon="6.24113">
        <ele>2316</ele>
        <time>2024-08-10T08:13:24Z</time>
      </trkpt>
      <trkpt lat="45.05729" lon="6.24117">
        <ele>2315.8</ele>
        <time>2024-08-10T08:13:25Z</time>
      </trkpt>
      <trkpt lat="45.05729" lon="6.24117">
        <ele>2315.8</ele>
        <time>2024-08-10T08:13:26Z</time>
      </trkpt>
      <trkpt lat="45.05728" lon="6.24121">
        <ele>2315.6</ele>
        <time>2024-08-10T08:13:27Z</time>
      </trkpt>
      <trkpt lat="45.05728" lon="6.24121">
        <ele>2315.6</ele>
        <time>2024-08-10T08:13:28Z</time>
      </trkpt>
      <trkpt lat="45.05728" lon="6.24125">
        <ele>2315.6</ele>
        <time>2024-08-10T08:13:29Z</time>
      </trkpt>
      <trkpt lat="45.05728" lon="6.24125">
        <ele>2315.6</ele>
        <time>2024-08-10T08:13:30Z</time>
      </trkpt>
      <trkpt lat="45.05727" lon="6.24129">
        <ele>2315.2</ele>
        <time>2024-08-10T08:13:31Z</time>
      </trkpt>
      <trkpt lat="45.05727" lon="6.24129">
        <ele>2315</ele>
        <time>2024-08-10T08:13:32Z</time>
      </trkpt>
      <trkpt lat="45.05727" lon="6.24133">
        <ele>2315</ele>
        <time>2024-08-10T08:13:33Z</time>
      </trkpt>
      <trkpt lat="45.05727" lon="6.24133">
        <ele>2315</ele>
        <time>2024-08-10T08:13:34Z</time>
      </trkpt>
      <trkpt lat="45.05727" lon="6.24136">
        <ele>2315.2</ele>
        <time>2024-08-10T08:13:35Z</time>
      </trkpt>
      <trkpt lat="45.05727" lon="6.24136">
        <ele>2315.2</ele>
        <time>2024-08-10T08:13:36Z</time>
      </trkpt>
      <trkpt lat="45.05727" lon="6.2414">
        <ele>2315</ele>
        <time>2024-08-10T08:13:37Z</time>
      </trkpt>
      <trkpt lat="45.05727" lon="6.2414">
        <ele>2315</ele>
        <time>2024-08-10T08:13:38Z</time>
      </trkpt>
      <trkpt lat="45.05726" lon="6.24144">
        <ele>2314.6</ele>
        <time>2024-08-10T08:13:39Z</time>
      </trkpt>
      <trkpt lat="45.05726" lon="6.24144">
        <ele>2314.2</ele>
        <time>2024-08-10T08:13:40Z</time>
      </trkpt>
      <trkpt lat="45.05725" lon="6.24148">
        <ele>2314</ele>
        <time>2024-08-10T08:13:41Z</time>
      </trkpt>
      <trkpt lat="45.05725" lon="6.24148">
        <ele>2314</ele>
        <time>2024-08-10T08:13:42Z</time>
      </trkpt>
      <trkpt lat="45.05724" lon="6.24151">
        <ele>2313.8</ele>
        <time>2024-08-10T08:13:43Z</time>
      </trkpt>
      <trkpt lat="45.05724" lon="6.24151">
        <ele>2313.8</ele>
        <time>2024-08-10T08:13:44Z</time>
      </trkpt>
      <trkpt lat="45.05722" lon="6.24155">
        <ele>2313.8</ele>
        <time>2024-08-10T08:13:45Z</time>
      </trkpt>
      <trkpt lat="45.05722" lon="6.24155">
        <ele>2313.4</ele>
        <time>2024-08-10T08:13:46Z</time>
      </trkpt>
      <trkpt lat="45.05721" lon="6.24159">
        <ele>2313.4</ele>
        <time>2024-08-10T08:13:47Z</time>
      </trkpt>
      <trkpt lat="45.05721" lon="6.24159">
        <ele>2313.2</ele>
        <time>2024-08-10T08:13:48Z</time>
      </trkpt>
      <trkpt lat="45.05719" lon="6.24162">
        <ele>2312.8</ele>
        <time>2024-08-10T08:13:49Z</time>
      </trkpt>
      <trkpt lat="45.05719" lon="6.24162">
        <ele>2312.8</ele>
        <time>2024-08-10T08:13:50Z</time>
      </trkpt>
      <trkpt lat="45.05717" lon="6.24165">
        <ele>2312.8</ele>
        <time>2024-08-10T08:13:51Z</time>
      </trkpt>
      <trkpt lat="45.05717" lon="6.24165">
        <ele>2313.2</ele>
        <time>2024-08-10T08:13:52Z</time>
      </trkpt>
      <trkpt lat="45.05717" lon="6.24169">
        <ele>2313.4</ele>
        <time>2024-08-10T08:13:53Z</time>
      </trkpt>
      <trkpt lat="45.05717" lon="6.24169">
        <ele>2313.4</ele>
        <time>2024-08-10T08:13:54Z</time>
      </trkpt>
      <trkpt lat="45.05716" lon="6.24173">
        <ele>2313.2</ele>
        <time>2024-08-10T08:13:55Z</time>
      </trkpt>
      <trkpt lat="45.05716" lon="6.24173">
        <ele>2313.2</ele>
        <time>2024-08-10T08:13:56Z</time>
      </trkpt>
      <trkpt lat="45.05715" lon="6.24176">
        <ele>2313.2</ele>
        <time>2024-08-10T08:13:57Z</time>
      </trkpt>
      <trkpt lat="45.05715" lon="6.24176">
        <ele>2313</ele>
        <time>2024-08-10T08:13:58Z</time>
      </trkpt>
      <trkpt lat="45.05713" lon="6.2418">
        <ele>2312.8</ele>
        <time>2024-08-10T08:13:59Z</time>
      </trkpt>
      <trkpt lat="45.05713" lon="6.2418">
        <ele>2312.6</ele>
        <time>2024-08-10T08:14:00Z</time>
      </trkpt>
      <trkpt lat="45.05711" lon="6.24183">
        <ele>2312.4</ele>
        <time>2024-08-10T08:14:01Z</time>
      </trkpt>
      <trkpt lat="45.05711" lon="6.24183">
        <ele>2312.4</ele>
        <time>2024-08-10T08:14:02Z</time>
      </trkpt>
      <trkpt lat="45.05711" lon="6.24186">
        <ele>2312.2</ele>
        <time>2024-08-10T08:14:03Z</time>
      </trkpt>
      <trkpt lat="45.0571" lon="6.24189">
        <ele>2312.2</ele>
        <time>2024-08-10T08:14:04Z</time>
      </trkpt>
      <trkpt lat="45.0571" lon="6.24189">
        <ele>2311.8</ele>
        <time>2024-08-10T08:14:05Z</time>
      </trkpt>
      <trkpt lat="45.0571" lon="6.24192">
        <ele>2311.8</ele>
        <time>2024-08-10T08:14:06Z</time>
      </trkpt>
      <trkpt lat="45.0571" lon="6.24192">
        <ele>2312</ele>
        <time>2024-08-10T08:14:07Z</time>
      </trkpt>
      <trkpt lat="45.0571" lon="6.24196">
        <ele>2312</ele>
        <time>2024-08-10T08:14:08Z</time>
      </trkpt>
      <trkpt lat="45.0571" lon="6.24196">
        <ele>2312</ele>
        <time>2024-08-10T08:14:09Z</time>
      </trkpt>
      <trkpt lat="45.0571" lon="6.24201">
        <ele>2311.8</ele>
        <time>2024-08-10T08:14:10Z</time>
      </trkpt>
      <trkpt lat="45.0571" lon="6.24201">
        <ele>2311.4</ele>
        <time>2024-08-10T08:14:11Z</time>
      </trkpt>
      <trkpt lat="45.0571" lon="6.24205">
        <ele>2311.2</ele>
        <time>2024-08-10T08:14:12Z</time>
      </trkpt>
      <trkpt lat="45.0571" lon="6.24205">
        <ele>2311.2</ele>
        <time>2024-08-10T08:14:13Z</time>
      </trkpt>
      <trkpt lat="45.05709" lon="6.24209">
        <ele>2310.8</ele>
        <time>2024-08-10T08:14:14Z</time>
      </trkpt>
      <trkpt lat="45.05709" lon="6.24209">
        <ele>2310.2</ele>
        <time>2024-08-10T08:14:15Z</time>
      </trkpt>
      <trkpt lat="45.05709" lon="6.24213">
        <ele>2310.2</ele>
        <time>2024-08-10T08:14:16Z</time>
      </trkpt>
      <trkpt lat="45.05709" lon="6.24213">
        <ele>2310</ele>
        <time>2024-08-10T08:14:17Z</time>
      </trkpt>
      <trkpt lat="45.05709" lon="6.24217">
        <ele>2310</ele>
        <time>2024-08-10T08:14:18Z</time>
      </trkpt>
      <trkpt lat="45.05709" lon="6.24217">
        <ele>2309.8</ele>
        <time>2024-08-10T08:14:19Z</time>
      </trkpt>
      <trkpt lat="45.05709" lon="6.24221">
        <ele>2309.8</ele>
        <time>2024-08-10T08:14:20Z</time>
      </trkpt>
      <trkpt lat="45.05709" lon="6.24221">
        <ele>2309.8</ele>
        <time>2024-08-10T08:14:21Z</time>
      </trkpt>
      <trkpt lat="45.0571" lon="6.24224">
        <ele>2310</ele>
        <time>2024-08-10T08:14:22Z</time>
      </trkpt>
      <trkpt lat="45.0571" lon="6.24224">
        <ele>2310</ele>
        <time>2024-08-10T08:14:23Z</time>
      </trkpt>
      <trkpt lat="45.05709" lon="6.24227">
        <ele>2309.8</ele>
        <time>2024-08-10T08:14:24Z</time>
      </trkpt>
      <trkpt lat="45.05709" lon="6.24227">
        <ele>2309.6</ele>
        <time>2024-08-10T08:14:25Z</time>
      </trkpt>
      <trkpt lat="45.0571" lon="6.24231">
        <ele>2309.6</ele>
        <time>2024-08-10T08:14:26Z</time>
      </trkpt>
      <trkpt lat="45.0571" lon="6.24231">
        <ele>2309.4</ele>
        <time>2024-08-10T08:14:27Z</time>
      </trkpt>
      <trkpt lat="45.05711" lon="6.24235">
        <ele>2309.4</ele>
        <time>2024-08-10T08:14:28Z</time>
      </trkpt>
      <trkpt lat="45.05711" lon="6.24235">
        <ele>2308.8</ele>
        <time>2024-08-10T08:14:29Z</time>
      </trkpt>
      <trkpt lat="45.05712" lon="6.24238">
        <ele>2308.6</ele>
        <time>2024-08-10T08:14:30Z</time>
      </trkpt>
      <trkpt lat="45.05712" lon="6.24238">
        <ele>2308.6</ele>
        <time>2024-08-10T08:14:31Z</time>
      </trkpt>
      <trkpt lat="45.05713" lon="6.24241">
        <ele>2308.6</ele>
        <time>2024-08-10T08:14:32Z</time>
      </trkpt>
      <trkpt lat="45.05713" lon="6.24241">
        <ele>2308.4</ele>
        <time>2024-08-10T08:14:33Z</time>
      </trkpt>
      <trkpt lat="45.05713" lon="6.24244">
        <ele>2308.2</ele>
        <time>2024-08-10T08:14:34Z</time>
      </trkpt>
      <trkpt lat="45.05713" lon="6.24244">
        <ele>2308</ele>
        <time>2024-08-10T08:14:35Z</time>
      </trkpt>
      <trkpt lat="45.05713" lon="6.24249">
        <ele>2307.8</ele>
        <time>2024-08-10T08:14:36Z</time>
      </trkpt>
      <trkpt lat="45.05713" lon="6.24249">
        <ele>2307.6</ele>
        <time>2024-08-10T08:14:37Z</time>
      </trkpt>
      <trkpt lat="45.05713" lon="6.24254">
        <ele>2307.4</ele>
        <time>2024-08-10T08:14:38Z</time>
      </trkpt>
      <trkpt lat="45.05712" lon="6.24256">
        <ele>2307.4</ele>
        <time>2024-08-10T08:14:39Z</time>
      </trkpt>
      <trkpt lat="45.05712" lon="6.24256">
        <ele>2307</ele>
        <time>2024-08-10T08:14:40Z</time>
      </trkpt>
      <trkpt lat="45.05713" lon="6.24261">
        <ele>2306.8</ele>
        <time>2024-08-10T08:14:41Z</time>
      </trkpt>
      <trkpt lat="45.05713" lon="6.24262">
        <ele>2306.8</ele>
        <time>2024-08-10T08:14:42Z</time>
      </trkpt>
      <trkpt lat="45.05713" lon="6.24263">
        <ele>2306.8</ele>
        <time>2024-08-10T08:14:43Z</time>
      </trkpt>
      <trkpt lat="45.05713" lon="6.24263">
        <ele>2306.4</ele>
        <time>2024-08-10T08:14:44Z</time>
      </trkpt>
      <trkpt lat="45.05714" lon="6.24266">
        <ele>2306.2</ele>
        <time>2024-08-10T08:14:45Z</time>
      </trkpt>
      <trkpt lat="45.05714" lon="6.24266">
        <ele>2305.8</ele>
        <time>2024-08-10T08:14:46Z</time>
      </trkpt>
      <trkpt lat="45.05715" lon="6.24269">
        <ele>2305.4</ele>
        <time>2024-08-10T08:14:47Z</time>
      </trkpt>
      <trkpt lat="45.05715" lon="6.24269">
        <ele>2305.2</ele>
        <time>2024-08-10T08:14:48Z</time>
      </trkpt>
      <trkpt lat="45.05715" lon="6.24273">
        <ele>2304.8</ele>
        <time>2024-08-10T08:14:49Z</time>
      </trkpt>
      <trkpt lat="45.05715" lon="6.24273">
        <ele>2304.8</ele>
        <time>2024-08-10T08:14:50Z</time>
      </trkpt>
      <trkpt lat="45.05715" lon="6.24276">
        <ele>2304.4</ele>
        <time>2024-08-10T08:14:51Z</time>
      </trkpt>
      <trkpt lat="45.05715" lon="6.24276">
        <ele>2304.2</ele>
        <time>2024-08-10T08:14:52Z</time>
      </trkpt>
      <trkpt lat="45.05714" lon="6.2428">
        <ele>2304</ele>
        <time>2024-08-10T08:14:53Z</time>
      </trkpt>
      <trkpt lat="45.05714" lon="6.2428">
        <ele>2303.4</ele>
        <time>2024-08-10T08:14:54Z</time>
      </trkpt>
      <trkpt lat="45.05713" lon="6.24283">
        <ele>2303.4</ele>
        <time>2024-08-10T08:14:55Z</time>
      </trkpt>
      <trkpt lat="45.05713" lon="6.24283">
        <ele>2303.4</ele>
        <time>2024-08-10T08:14:56Z</time>
      </trkpt>
      <trkpt lat="45.05713" lon="6.24286">
        <ele>2303.4</ele>
        <time>2024-08-10T08:14:57Z</time>
      </trkpt>
      <trkpt lat="45.05713" lon="6.24286">
        <ele>2303.2</ele>
        <time>2024-08-10T08:14:58Z</time>
      </trkpt>
      <trkpt lat="45.05713" lon="6.24289">
        <ele>2303</ele>
        <time>2024-08-10T08:14:59Z</time>
      </trkpt>
      <trkpt lat="45.05713" lon="6.24289">
        <ele>2302.4</ele>
        <time>2024-08-10T08:15:00Z</time>
      </trkpt>
      <trkpt lat="45.05713" lon="6.24293">
        <ele>2302.2</ele>
        <time>2024-08-10T08:15:01Z</time>
      </trkpt>
      <trkpt lat="45.05713" lon="6.24293">
        <ele>2302</ele>
        <time>2024-08-10T08:15:02Z</time>
      </trkpt>
      <trkpt lat="45.05713" lon="6.24296">
        <ele>2301</ele>
        <time>2024-08-10T08:15:03Z</time>
      </trkpt>
      <trkpt lat="45.05713" lon="6.24296">
        <ele>2301</ele>
        <time>2024-08-10T08:15:04Z</time>
      </trkpt>
      <trkpt lat="45.05711" lon="6.243">
        <ele>2300.8</ele>
        <time>2024-08-10T08:15:05Z</time>
      </trkpt>
      <trkpt lat="45.05711" lon="6.243">
        <ele>2300.6</ele>
        <time>2024-08-10T08:15:06Z</time>
      </trkpt>
      <trkpt lat="45.05711" lon="6.24303">
        <ele>2300.6</ele>
        <time>2024-08-10T08:15:07Z</time>
      </trkpt>
      <trkpt lat="45.05711" lon="6.24303">
        <ele>2300</ele>
        <time>2024-08-10T08:15:08Z</time>
      </trkpt>
      <trkpt lat="45.05711" lon="6.24306">
        <ele>2299.6</ele>
        <time>2024-08-10T08:15:09Z</time>
      </trkpt>
      <trkpt lat="45.05711" lon="6.24306">
        <ele>2299.2</ele>
        <time>2024-08-10T08:15:10Z</time>
      </trkpt>
      <trkpt lat="45.0571" lon="6.24309">
        <ele>2299</ele>
        <time>2024-08-10T08:15:11Z</time>
      </trkpt>
      <trkpt lat="45.0571" lon="6.24309">
        <ele>2298.6</ele>
        <time>2024-08-10T08:15:12Z</time>
      </trkpt>
      <trkpt lat="45.05709" lon="6.24313">
        <ele>2298.6</ele>
        <time>2024-08-10T08:15:13Z</time>
      </trkpt>
      <trkpt lat="45.05709" lon="6.24313">
        <ele>2298.6</ele>
        <time>2024-08-10T08:15:14Z</time>
      </trkpt>
      <trkpt lat="45.05709" lon="6.24316">
        <ele>2297.8</ele>
        <time>2024-08-10T08:15:15Z</time>
      </trkpt>
      <trkpt lat="45.05709" lon="6.24316">
        <ele>2297.4</ele>
        <time>2024-08-10T08:15:16Z</time>
      </trkpt>
      <trkpt lat="45.0571" lon="6.2432">
        <ele>2297</ele>
        <time>2024-08-10T08:15:17Z</time>
      </trkpt>
      <trkpt lat="45.0571" lon="6.2432">
        <ele>2296.6</ele>
        <time>2024-08-10T08:15:18Z</time>
      </trkpt>
      <trkpt lat="45.05711" lon="6.24322">
        <ele>2296.2</ele>
        <time>2024-08-10T08:15:19Z</time>
      </trkpt>
      <trkpt lat="45.05711" lon="6.24322">
        <ele>2295.8</ele>
        <time>2024-08-10T08:15:20Z</time>
      </trkpt>
      <trkpt lat="45.05713" lon="6.24325">
        <ele>2295.8</ele>
        <time>2024-08-10T08:15:21Z</time>
      </trkpt>
      <trkpt lat="45.05713" lon="6.24325">
        <ele>2295.4</ele>
        <time>2024-08-10T08:15:22Z</time>
      </trkpt>
      <trkpt lat="45.05713" lon="6.24328">
        <ele>2294.8</ele>
        <time>2024-08-10T08:15:23Z</time>
      </trkpt>
      <trkpt lat="45.05713" lon="6.24328">
        <ele>2294.6</ele>
        <time>2024-08-10T08:15:24Z</time>
      </trkpt>
      <trkpt lat="45.05715" lon="6.24332">
        <ele>2294.4</ele>
        <time>2024-08-10T08:15:25Z</time>
      </trkpt>
      <trkpt lat="45.05715" lon="6.24332">
        <ele>2294</ele>
        <time>2024-08-10T08:15:26Z</time>
      </trkpt>
      <trkpt lat="45.05715" lon="6.24336">
        <ele>2294</ele>
        <time>2024-08-10T08:15:27Z</time>
      </trkpt>
      <trkpt lat="45.05715" lon="6.24336">
        <ele>2293.8</ele>
        <time>2024-08-10T08:15:28Z</time>
      </trkpt>
      <trkpt lat="45.05715" lon="6.2434">
        <ele>2293.6</ele>
        <time>2024-08-10T08:15:29Z</time>
      </trkpt>
      <trkpt lat="45.05715" lon="6.2434">
        <ele>2293.6</ele>
        <time>2024-08-10T08:15:30Z</time>
      </trkpt>
      <trkpt lat="45.05716" lon="6.24345">
        <ele>2293.4</ele>
        <time>2024-08-10T08:15:31Z</time>
      </trkpt>
      <trkpt lat="45.05717" lon="6.24348">
        <ele>2293.2</ele>
        <time>2024-08-10T08:15:32Z</time>
      </trkpt>
      <trkpt lat="45.05717" lon="6.24348">
        <ele>2292.8</ele>
        <time>2024-08-10T08:15:33Z</time>
      </trkpt>
      <trkpt lat="45.05717" lon="6.24352">
        <ele>2292.8</ele>
        <time>2024-08-10T08:15:34Z</time>
      </trkpt>
      <trkpt lat="45.05717" lon="6.24352">
        <ele>2292.4</ele>
        <time>2024-08-10T08:15:35Z</time>
      </trkpt>
      <trkpt lat="45.05719" lon="6.24356">
        <ele>2292.2</ele>
        <time>2024-08-10T08:15:36Z</time>
      </trkpt>
      <trkpt lat="45.05719" lon="6.24356">
        <ele>2291.6</ele>
        <time>2024-08-10T08:15:37Z</time>
      </trkpt>
      <trkpt lat="45.0572" lon="6.2436">
        <ele>2291.6</ele>
        <time>2024-08-10T08:15:38Z</time>
      </trkpt>
      <trkpt lat="45.0572" lon="6.2436">
        <ele>2291.4</ele>
        <time>2024-08-10T08:15:39Z</time>
      </trkpt>
      <trkpt lat="45.05721" lon="6.24364">
        <ele>2291.2</ele>
        <time>2024-08-10T08:15:40Z</time>
      </trkpt>
      <trkpt lat="45.05721" lon="6.24364">
        <ele>2291.2</ele>
        <time>2024-08-10T08:15:41Z</time>
      </trkpt>
      <trkpt lat="45.05721" lon="6.24369">
        <ele>2291</ele>
        <time>2024-08-10T08:15:42Z</time>
      </trkpt>
      <trkpt lat="45.05721" lon="6.24371">
        <ele>2291</ele>
        <time>2024-08-10T08:15:43Z</time>
      </trkpt>
      <trkpt lat="45.05721" lon="6.24371">
        <ele>2291</ele>
        <time>2024-08-10T08:15:44Z</time>
      </trkpt>
      <trkpt lat="45.05721" lon="6.24375">
        <ele>2291</ele>
        <time>2024-08-10T08:15:45Z</time>
      </trkpt>
      <trkpt lat="45.05721" lon="6.24375">
        <ele>2290.8</ele>
        <time>2024-08-10T08:15:46Z</time>
      </trkpt>
      <trkpt lat="45.05722" lon="6.24379">
        <ele>2290.8</ele>
        <time>2024-08-10T08:15:47Z</time>
      </trkpt>
      <trkpt lat="45.05722" lon="6.24379">
        <ele>2290.8</ele>
        <time>2024-08-10T08:15:48Z</time>
      </trkpt>
      <trkpt lat="45.05722" lon="6.24383">
        <ele>2290.8</ele>
        <time>2024-08-10T08:15:49Z</time>
      </trkpt>
      <trkpt lat="45.05722" lon="6.24383">
        <ele>2290.8</ele>
        <time>2024-08-10T08:15:50Z</time>
      </trkpt>
      <trkpt lat="45.05723" lon="6.24387">
        <ele>2290.8</ele>
        <time>2024-08-10T08:15:51Z</time>
      </trkpt>
      <trkpt lat="45.05723" lon="6.24387">
        <ele>2290.4</ele>
        <time>2024-08-10T08:15:52Z</time>
      </trkpt>
      <trkpt lat="45.05724" lon="6.2439">
        <ele>2290.2</ele>
        <time>2024-08-10T08:15:53Z</time>
      </trkpt>
      <trkpt lat="45.05724" lon="6.2439">
        <ele>2290.2</ele>
        <time>2024-08-10T08:15:54Z</time>
      </trkpt>
      <trkpt lat="45.05725" lon="6.24395">
        <ele>2290.2</ele>
        <time>2024-08-10T08:15:55Z</time>
      </trkpt>
      <trkpt lat="45.05725" lon="6.24395">
        <ele>2290.2</ele>
        <time>2024-08-10T08:15:56Z</time>
      </trkpt>
      <trkpt lat="45.05726" lon="6.24399">
        <ele>2290</ele>
        <time>2024-08-10T08:15:57Z</time>
      </trkpt>
      <trkpt lat="45.05726" lon="6.24399">
        <ele>2290</ele>
        <time>2024-08-10T08:15:58Z</time>
      </trkpt>
      <trkpt lat="45.05727" lon="6.24403">
        <ele>2290</ele>
        <time>2024-08-10T08:15:59Z</time>
      </trkpt>
      <trkpt lat="45.05727" lon="6.24403">
        <ele>2290</ele>
        <time>2024-08-10T08:16:00Z</time>
      </trkpt>
      <trkpt lat="45.05728" lon="6.24407">
        <ele>2289.8</ele>
        <time>2024-08-10T08:16:01Z</time>
      </trkpt>
      <trkpt lat="45.05728" lon="6.24407">
        <ele>2289.8</ele>
        <time>2024-08-10T08:16:02Z</time>
      </trkpt>
      <trkpt lat="45.05728" lon="6.24411">
        <ele>2289.8</ele>
        <time>2024-08-10T08:16:03Z</time>
      </trkpt>
      <trkpt lat="45.05728" lon="6.24411">
        <ele>2289.8</ele>
        <time>2024-08-10T08:16:04Z</time>
      </trkpt>
      <trkpt lat="45.05728" lon="6.24415">
        <ele>2289.8</ele>
        <time>2024-08-10T08:16:05Z</time>
      </trkpt>
      <trkpt lat="45.05728" lon="6.24415">
        <ele>2289.6</ele>
        <time>2024-08-10T08:16:06Z</time>
      </trkpt>
      <trkpt lat="45.05729" lon="6.24418">
        <ele>2289.4</ele>
        <time>2024-08-10T08:16:07Z</time>
      </trkpt>
      <trkpt lat="45.05729" lon="6.24418">
        <ele>2289.2</ele>
        <time>2024-08-10T08:16:08Z</time>
      </trkpt>
      <trkpt lat="45.05727" lon="6.24422">
        <ele>2289.2</ele>
        <time>2024-08-10T08:16:09Z</time>
      </trkpt>
      <trkpt lat="45.05727" lon="6.24422">
        <ele>2289</ele>
        <time>2024-08-10T08:16:10Z</time>
      </trkpt>
      <trkpt lat="45.05725" lon="6.24426">
        <ele>2288.8</ele>
        <time>2024-08-10T08:16:11Z</time>
      </trkpt>
      <trkpt lat="45.05725" lon="6.24426">
        <ele>2288.4</ele>
        <time>2024-08-10T08:16:12Z</time>
      </trkpt>
      <trkpt lat="45.05725" lon="6.2443">
        <ele>2287.6</ele>
        <time>2024-08-10T08:16:13Z</time>
      </trkpt>
      <trkpt lat="45.05725" lon="6.2443">
        <ele>2286.8</ele>
        <time>2024-08-10T08:16:14Z</time>
      </trkpt>
      <trkpt lat="45.05725" lon="6.24435">
        <ele>2286.4</ele>
        <time>2024-08-10T08:16:15Z</time>
      </trkpt>
      <trkpt lat="45.05725" lon="6.24435">
        <ele>2285.8</ele>
        <time>2024-08-10T08:16:16Z</time>
      </trkpt>
      <trkpt lat="45.05725" lon="6.24439">
        <ele>2285.4</ele>
        <time>2024-08-10T08:16:17Z</time>
      </trkpt>
      <trkpt lat="45.05725" lon="6.24439">
        <ele>2285.4</ele>
        <time>2024-08-10T08:16:18Z</time>
      </trkpt>
      <trkpt lat="45.05725" lon="6.24443">
        <ele>2285.2</ele>
        <time>2024-08-10T08:16:19Z</time>
      </trkpt>
      <trkpt lat="45.05725" lon="6.24443">
        <ele>2285.2</ele>
        <time>2024-08-10T08:16:20Z</time>
      </trkpt>
      <trkpt lat="45.05726" lon="6.24448">
        <ele>2285.2</ele>
        <time>2024-08-10T08:16:21Z</time>
      </trkpt>
      <trkpt lat="45.05726" lon="6.24448">
        <ele>2285.2</ele>
        <time>2024-08-10T08:16:22Z</time>
      </trkpt>
      <trkpt lat="45.05727" lon="6.24452">
        <ele>2285</ele>
        <time>2024-08-10T08:16:23Z</time>
      </trkpt>
      <trkpt lat="45.05727" lon="6.24455">
        <ele>2284.8</ele>
        <time>2024-08-10T08:16:24Z</time>
      </trkpt>
      <trkpt lat="45.05727" lon="6.24455">
        <ele>2284.4</ele>
        <time>2024-08-10T08:16:25Z</time>
      </trkpt>
      <trkpt lat="45.05727" lon="6.24459">
        <ele>2284.4</ele>
        <time>2024-08-10T08:16:26Z</time>
      </trkpt>
      <trkpt lat="45.05727" lon="6.24459">
        <ele>2284.4</ele>
        <time>2024-08-10T08:16:27Z</time>
      </trkpt>
      <trkpt lat="45.05727" lon="6.24463">
        <ele>2284.2</ele>
        <time>2024-08-10T08:16:28Z</time>
      </trkpt>
      <trkpt lat="45.05727" lon="6.24463">
        <ele>2284</ele>
        <time>2024-08-10T08:16:29Z</time>
      </trkpt>
      <trkpt lat="45.05729" lon="6.24466">
        <ele>2284</ele>
        <time>2024-08-10T08:16:30Z</time>
      </trkpt>
      <trkpt lat="45.05729" lon="6.24466">
        <ele>2283.6</ele>
        <time>2024-08-10T08:16:31Z</time>
      </trkpt>
      <trkpt lat="45.0573" lon="6.24468">
        <ele>2283.6</ele>
        <time>2024-08-10T08:16:32Z</time>
      </trkpt>
      <trkpt lat="45.0573" lon="6.24468">
        <ele>2283.6</ele>
        <time>2024-08-10T08:16:33Z</time>
      </trkpt>
      <trkpt lat="45.05731" lon="6.24471">
        <ele>2283.2</ele>
        <time>2024-08-10T08:16:34Z</time>
      </trkpt>
      <trkpt lat="45.05731" lon="6.24471">
        <ele>2283</ele>
        <time>2024-08-10T08:16:35Z</time>
      </trkpt>
      <trkpt lat="45.05732" lon="6.24474">
        <ele>2282.4</ele>
        <time>2024-08-10T08:16:36Z</time>
      </trkpt>
      <trkpt lat="45.05732" lon="6.24474">
        <ele>2282</ele>
        <time>2024-08-10T08:16:37Z</time>
      </trkpt>
      <trkpt lat="45.05732" lon="6.24477">
        <ele>2281.8</ele>
        <time>2024-08-10T08:16:38Z</time>
      </trkpt>
      <trkpt lat="45.05732" lon="6.24477">
        <ele>2281.6</ele>
        <time>2024-08-10T08:16:39Z</time>
      </trkpt>
      <trkpt lat="45.05733" lon="6.2448">
        <ele>2281.2</ele>
        <time>2024-08-10T08:16:40Z</time>
      </trkpt>
      <trkpt lat="45.05733" lon="6.2448">
        <ele>2280.6</ele>
        <time>2024-08-10T08:16:41Z</time>
      </trkpt>
      <trkpt lat="45.05733" lon="6.24483">
        <ele>2280.6</ele>
        <time>2024-08-10T08:16:42Z</time>
      </trkpt>
      <trkpt lat="45.05733" lon="6.24483">
        <ele>2280.4</ele>
        <time>2024-08-10T08:16:43Z</time>
      </trkpt>
      <trkpt lat="45.05733" lon="6.24487">
        <ele>2280.4</ele>
        <time>2024-08-10T08:16:44Z</time>
      </trkpt>
      <trkpt lat="45.05733" lon="6.24487">
        <ele>2280.2</ele>
        <time>2024-08-10T08:16:45Z</time>
      </trkpt>
      <trkpt lat="45.05733" lon="6.24491">
        <ele>2280</ele>
        <time>2024-08-10T08:16:46Z</time>
      </trkpt>
      <trkpt lat="45.05733" lon="6.24491">
        <ele>2279.6</ele>
        <time>2024-08-10T08:16:47Z</time>
      </trkpt>
      <trkpt lat="45.05733" lon="6.24493">
        <ele>2279</ele>
        <time>2024-08-10T08:16:48Z</time>
      </trkpt>
      <trkpt lat="45.05733" lon="6.24493">
        <ele>2278.6</ele>
        <time>2024-08-10T08:16:49Z</time>
      </trkpt>
      <trkpt lat="45.05731" lon="6.24496">
        <ele>2278.2</ele>
        <time>2024-08-10T08:16:50Z</time>
      </trkpt>
      <trkpt lat="45.05731" lon="6.24496">
        <ele>2278.2</ele>
        <time>2024-08-10T08:16:51Z</time>
      </trkpt>
      <trkpt lat="45.0573" lon="6.24499">
        <ele>2278.2</ele>
        <time>2024-08-10T08:16:52Z</time>
      </trkpt>
      <trkpt lat="45.0573" lon="6.24499">
        <ele>2278</ele>
        <time>2024-08-10T08:16:53Z</time>
      </trkpt>
      <trkpt lat="45.05729" lon="6.24503">
        <ele>2277.6</ele>
        <time>2024-08-10T08:16:54Z</time>
      </trkpt>
      <trkpt lat="45.05729" lon="6.24503">
        <ele>2277.2</ele>
        <time>2024-08-10T08:16:55Z</time>
      </trkpt>
      <trkpt lat="45.05729" lon="6.24503">
        <ele>2277</ele>
        <time>2024-08-10T08:16:56Z</time>
      </trkpt>
      <trkpt lat="45.05729" lon="6.24506">
        <ele>2277</ele>
        <time>2024-08-10T08:16:57Z</time>
      </trkpt>
      <trkpt lat="45.05729" lon="6.24506">
        <ele>2277</ele>
        <time>2024-08-10T08:16:58Z</time>
      </trkpt>
      <trkpt lat="45.05729" lon="6.24506">
        <ele>2277.2</ele>
        <time>2024-08-10T08:16:59Z</time>
      </trkpt>
      <trkpt lat="45.05728" lon="6.24509">
        <ele>2277.4</ele>
        <time>2024-08-10T08:17:00Z</time>
      </trkpt>
      <trkpt lat="45.05728" lon="6.24509">
        <ele>2277.8</ele>
        <time>2024-08-10T08:17:01Z</time>
      </trkpt>
      <trkpt lat="45.05727" lon="6.24512">
        <ele>2278.2</ele>
        <time>2024-08-10T08:17:02Z</time>
      </trkpt>
      <trkpt lat="45.05727" lon="6.24512">
        <ele>2278.8</ele>
        <time>2024-08-10T08:17:03Z</time>
      </trkpt>
      <trkpt lat="45.05727" lon="6.24515">
        <ele>2278.8</ele>
        <time>2024-08-10T08:17:04Z</time>
      </trkpt>
      <trkpt lat="45.05727" lon="6.24515">
        <ele>2278.8</ele>
        <time>2024-08-10T08:17:05Z</time>
      </trkpt>
      <trkpt lat="45.05726" lon="6.24519">
        <ele>2278.4</ele>
        <time>2024-08-10T08:17:06Z</time>
      </trkpt>
      <trkpt lat="45.05726" lon="6.24519">
        <ele>2278</ele>
        <time>2024-08-10T08:17:07Z</time>
      </trkpt>
      <trkpt lat="45.05725" lon="6.24523">
        <ele>2277.6</ele>
        <time>2024-08-10T08:17:08Z</time>
      </trkpt>
      <trkpt lat="45.05725" lon="6.24523">
        <ele>2276.8</ele>
        <time>2024-08-10T08:17:09Z</time>
      </trkpt>
      <trkpt lat="45.05725" lon="6.24526">
        <ele>2276.6</ele>
        <time>2024-08-10T08:17:10Z</time>
      </trkpt>
      <trkpt lat="45.05725" lon="6.24526">
        <ele>2276.4</ele>
        <time>2024-08-10T08:17:11Z</time>
      </trkpt>
      <trkpt lat="45.05723" lon="6.24529">
        <ele>2275.8</ele>
        <time>2024-08-10T08:17:12Z</time>
      </trkpt>
      <trkpt lat="45.05723" lon="6.24529">
        <ele>2275.6</ele>
        <time>2024-08-10T08:17:13Z</time>
      </trkpt>
      <trkpt lat="45.05723" lon="6.24533">
        <ele>2275.4</ele>
        <time>2024-08-10T08:17:14Z</time>
      </trkpt>
      <trkpt lat="45.05723" lon="6.24533">
        <ele>2274.8</ele>
        <time>2024-08-10T08:17:15Z</time>
      </trkpt>
      <trkpt lat="45.05723" lon="6.24537">
        <ele>2274.6</ele>
        <time>2024-08-10T08:17:16Z</time>
      </trkpt>
      <trkpt lat="45.05723" lon="6.24537">
        <ele>2274.2</ele>
        <time>2024-08-10T08:17:17Z</time>
      </trkpt>
      <trkpt lat="45.05722" lon="6.24541">
        <ele>2274.2</ele>
        <time>2024-08-10T08:17:18Z</time>
      </trkpt>
      <trkpt lat="45.05722" lon="6.24541">
        <ele>2274.2</ele>
        <time>2024-08-10T08:17:19Z</time>
      </trkpt>
      <trkpt lat="45.05723" lon="6.24545">
        <ele>2274.2</ele>
        <time>2024-08-10T08:17:20Z</time>
      </trkpt>
      <trkpt lat="45.05723" lon="6.24545">
        <ele>2274.2</ele>
        <time>2024-08-10T08:17:21Z</time>
      </trkpt>
      <trkpt lat="45.05722" lon="6.24549">
        <ele>2274.2</ele>
        <time>2024-08-10T08:17:22Z</time>
      </trkpt>
      <trkpt lat="45.05722" lon="6.24549">
        <ele>2274.2</ele>
        <time>2024-08-10T08:17:23Z</time>
      </trkpt>
      <trkpt lat="45.05722" lon="6.24553">
        <ele>2273.8</ele>
        <time>2024-08-10T08:17:24Z</time>
      </trkpt>
      <trkpt lat="45.05722" lon="6.24553">
        <ele>2273.8</ele>
        <time>2024-08-10T08:17:25Z</time>
      </trkpt>
      <trkpt lat="45.05722" lon="6.24556">
        <ele>2273.8</ele>
        <time>2024-08-10T08:17:26Z</time>
      </trkpt>
      <trkpt lat="45.05722" lon="6.24556">
        <ele>2273.4</ele>
        <time>2024-08-10T08:17:27Z</time>
      </trkpt>
      <trkpt lat="45.05721" lon="6.2456">
        <ele>2273.2</ele>
        <time>2024-08-10T08:17:28Z</time>
      </trkpt>
      <trkpt lat="45.05721" lon="6.2456">
        <ele>2273.2</ele>
        <time>2024-08-10T08:17:29Z</time>
      </trkpt>
      <trkpt lat="45.05721" lon="6.24565">
        <ele>2273</ele>
        <time>2024-08-10T08:17:30Z</time>
      </trkpt>
      <trkpt lat="45.05721" lon="6.24565">
        <ele>2273</ele>
        <time>2024-08-10T08:17:31Z</time>
      </trkpt>
      <trkpt lat="45.0572" lon="6.2457">
        <ele>2272.6</ele>
        <time>2024-08-10T08:17:32Z</time>
      </trkpt>
      <trkpt lat="45.0572" lon="6.2457">
        <ele>2272.4</ele>
        <time>2024-08-10T08:17:33Z</time>
      </trkpt>
      <trkpt lat="45.05719" lon="6.24573">
        <ele>2272.2</ele>
        <time>2024-08-10T08:17:34Z</time>
      </trkpt>
      <trkpt lat="45.05719" lon="6.24573">
        <ele>2272.2</ele>
        <time>2024-08-10T08:17:35Z</time>
      </trkpt>
      <trkpt lat="45.05718" lon="6.24577">
        <ele>2272</ele>
        <time>2024-08-10T08:17:36Z</time>
      </trkpt>
      <trkpt lat="45.05718" lon="6.24577">
        <ele>2271.8</ele>
        <time>2024-08-10T08:17:37Z</time>
      </trkpt>
      <trkpt lat="45.05717" lon="6.24581">
        <ele>2271.8</ele>
        <time>2024-08-10T08:17:38Z</time>
      </trkpt>
      <trkpt lat="45.05717" lon="6.24581">
        <ele>2271.6</ele>
        <time>2024-08-10T08:17:39Z</time>
      </trkpt>
      <trkpt lat="45.05715" lon="6.24584">
        <ele>2271.4</ele>
        <time>2024-08-10T08:17:40Z</time>
      </trkpt>
      <trkpt lat="45.05715" lon="6.24584">
        <ele>2271.4</ele>
        <time>2024-08-10T08:17:41Z</time>
      </trkpt>
      <trkpt lat="45.05714" lon="6.24587">
        <ele>2271.2</ele>
        <time>2024-08-10T08:17:42Z</time>
      </trkpt>
      <trkpt lat="45.05714" lon="6.24587">
        <ele>2271</ele>
        <time>2024-08-10T08:17:43Z</time>
      </trkpt>
      <trkpt lat="45.05713" lon="6.24592">
        <ele>2270.8</ele>
        <time>2024-08-10T08:17:44Z</time>
      </trkpt>
      <trkpt lat="45.05713" lon="6.24592">
        <ele>2270.8</ele>
        <time>2024-08-10T08:17:45Z</time>
      </trkpt>
      <trkpt lat="45.05712" lon="6.24597">
        <ele>2270.6</ele>
        <time>2024-08-10T08:17:46Z</time>
      </trkpt>
      <trkpt lat="45.05712" lon="6.24597">
        <ele>2270.4</ele>
        <time>2024-08-10T08:17:47Z</time>
      </trkpt>
      <trkpt lat="45.05711" lon="6.246">
        <ele>2270</ele>
        <time>2024-08-10T08:17:48Z</time>
      </trkpt>
      <trkpt lat="45.05711" lon="6.246">
        <ele>2269.8</ele>
        <time>2024-08-10T08:17:49Z</time>
      </trkpt>
      <trkpt lat="45.05711" lon="6.24604">
        <ele>2269.8</ele>
        <time>2024-08-10T08:17:50Z</time>
      </trkpt>
      <trkpt lat="45.05711" lon="6.24604">
        <ele>2269.8</ele>
        <time>2024-08-10T08:17:51Z</time>
      </trkpt>
      <trkpt lat="45.05711" lon="6.24608">
        <ele>2270</ele>
        <time>2024-08-10T08:17:52Z</time>
      </trkpt>
      <trkpt lat="45.05711" lon="6.24608">
        <ele>2270</ele>
        <time>2024-08-10T08:17:53Z</time>
      </trkpt>
      <trkpt lat="45.0571" lon="6.24612">
        <ele>2270</ele>
        <time>2024-08-10T08:17:54Z</time>
      </trkpt>
      <trkpt lat="45.0571" lon="6.24612">
        <ele>2269.8</ele>
        <time>2024-08-10T08:17:55Z</time>
      </trkpt>
      <trkpt lat="45.05709" lon="6.24616">
        <ele>2269.6</ele>
        <time>2024-08-10T08:17:56Z</time>
      </trkpt>
      <trkpt lat="45.05709" lon="6.24616">
        <ele>2269.2</ele>
        <time>2024-08-10T08:17:57Z</time>
      </trkpt>
      <trkpt lat="45.05708" lon="6.24621">
        <ele>2269</ele>
        <time>2024-08-10T08:17:58Z</time>
      </trkpt>
      <trkpt lat="45.05708" lon="6.24621">
        <ele>2269</ele>
        <time>2024-08-10T08:17:59Z</time>
      </trkpt>
      <trkpt lat="45.05708" lon="6.24625">
        <ele>2268.8</ele>
        <time>2024-08-10T08:18:00Z</time>
      </trkpt>
      <trkpt lat="45.05708" lon="6.24625">
        <ele>2268.8</ele>
        <time>2024-08-10T08:18:01Z</time>
      </trkpt>
      <trkpt lat="45.05707" lon="6.24628">
        <ele>2268.6</ele>
        <time>2024-08-10T08:18:02Z</time>
      </trkpt>
      <trkpt lat="45.05707" lon="6.24628">
        <ele>2267.8</ele>
        <time>2024-08-10T08:18:03Z</time>
      </trkpt>
      <trkpt lat="45.05707" lon="6.24632">
        <ele>2267.8</ele>
        <time>2024-08-10T08:18:04Z</time>
      </trkpt>
      <trkpt lat="45.05707" lon="6.24632">
        <ele>2267.8</ele>
        <time>2024-08-10T08:18:05Z</time>
      </trkpt>
      <trkpt lat="45.05706" lon="6.24636">
        <ele>2267.6</ele>
        <time>2024-08-10T08:18:06Z</time>
      </trkpt>
      <trkpt lat="45.05706" lon="6.24636">
        <ele>2267.4</ele>
        <time>2024-08-10T08:18:07Z</time>
      </trkpt>
      <trkpt lat="45.05707" lon="6.24639">
        <ele>2267.2</ele>
        <time>2024-08-10T08:18:08Z</time>
      </trkpt>
      <trkpt lat="45.05707" lon="6.24639">
        <ele>2267</ele>
        <time>2024-08-10T08:18:09Z</time>
      </trkpt>
      <trkpt lat="45.05708" lon="6.24643">
        <ele>2267</ele>
        <time>2024-08-10T08:18:10Z</time>
      </trkpt>
      <trkpt lat="45.05708" lon="6.24643">
        <ele>2266.8</ele>
        <time>2024-08-10T08:18:11Z</time>
      </trkpt>
      <trkpt lat="45.05707" lon="6.24647">
        <ele>2266.6</ele>
        <time>2024-08-10T08:18:12Z</time>
      </trkpt>
      <trkpt lat="45.05707" lon="6.24647">
        <ele>2266.4</ele>
        <time>2024-08-10T08:18:13Z</time>
      </trkpt>
      <trkpt lat="45.05708" lon="6.24651">
        <ele>2266.2</ele>
        <time>2024-08-10T08:18:14Z</time>
      </trkpt>
      <trkpt lat="45.05708" lon="6.24651">
        <ele>2266</ele>
        <time>2024-08-10T08:18:15Z</time>
      </trkpt>
      <trkpt lat="45.05708" lon="6.24655">
        <ele>2265.8</ele>
        <time>2024-08-10T08:18:16Z</time>
      </trkpt>
      <trkpt lat="45.05708" lon="6.24655">
        <ele>2265.8</ele>
        <time>2024-08-10T08:18:17Z</time>
      </trkpt>
      <trkpt lat="45.05708" lon="6.24659">
        <ele>2265.4</ele>
        <time>2024-08-10T08:18:18Z</time>
      </trkpt>
      <trkpt lat="45.05708" lon="6.24659">
        <ele>2265.2</ele>
        <time>2024-08-10T08:18:19Z</time>
      </trkpt>
      <trkpt lat="45.05708" lon="6.24663">
        <ele>2264.8</ele>
        <time>2024-08-10T08:18:20Z</time>
      </trkpt>
      <trkpt lat="45.05708" lon="6.24663">
        <ele>2264.8</ele>
        <time>2024-08-10T08:18:21Z</time>
      </trkpt>
      <trkpt lat="45.05709" lon="6.24667">
        <ele>2264.8</ele>
        <time>2024-08-10T08:18:22Z</time>
      </trkpt>
      <trkpt lat="45.05709" lon="6.24667">
        <ele>2264.8</ele>
        <time>2024-08-10T08:18:23Z</time>
      </trkpt>
      <trkpt lat="45.05709" lon="6.24671">
        <ele>2264.6</ele>
        <time>2024-08-10T08:18:24Z</time>
      </trkpt>
      <trkpt lat="45.05709" lon="6.24671">
        <ele>2264.4</ele>
        <time>2024-08-10T08:18:25Z</time>
      </trkpt>
      <trkpt lat="45.05708" lon="6.24675">
        <ele>2264</ele>
        <time>2024-08-10T08:18:26Z</time>
      </trkpt>
      <trkpt lat="45.05708" lon="6.24675">
        <ele>2264</ele>
        <time>2024-08-10T08:18:27Z</time>
      </trkpt>
      <trkpt lat="45.05708" lon="6.24678">
        <ele>2263.8</ele>
        <time>2024-08-10T08:18:28Z</time>
      </trkpt>
      <trkpt lat="45.05708" lon="6.24678">
        <ele>2263.8</ele>
        <time>2024-08-10T08:18:29Z</time>
      </trkpt>
      <trkpt lat="45.05708" lon="6.24682">
        <ele>2263.6</ele>
        <time>2024-08-10T08:18:30Z</time>
      </trkpt>
      <trkpt lat="45.05708" lon="6.24682">
        <ele>2263.4</ele>
        <time>2024-08-10T08:18:31Z</time>
      </trkpt>
      <trkpt lat="45.05708" lon="6.24686">
        <ele>2263.4</ele>
        <time>2024-08-10T08:18:32Z</time>
      </trkpt>
      <trkpt lat="45.05708" lon="6.24686">
        <ele>2263.2</ele>
        <time>2024-08-10T08:18:33Z</time>
      </trkpt>
      <trkpt lat="45.05708" lon="6.2469">
        <ele>2262.4</ele>
        <time>2024-08-10T08:18:34Z</time>
      </trkpt>
      <trkpt lat="45.05708" lon="6.2469">
        <ele>2262</ele>
        <time>2024-08-10T08:18:35Z</time>
      </trkpt>
      <trkpt lat="45.05709" lon="6.24694">
        <ele>2261.8</ele>
        <time>2024-08-10T08:18:36Z</time>
      </trkpt>
      <trkpt lat="45.05709" lon="6.24694">
        <ele>2261.8</ele>
        <time>2024-08-10T08:18:37Z</time>
      </trkpt>
      <trkpt lat="45.05709" lon="6.24698">
        <ele>2261.8</ele>
        <time>2024-08-10T08:18:38Z</time>
      </trkpt>
      <trkpt lat="45.05709" lon="6.24698">
        <ele>2261.6</ele>
        <time>2024-08-10T08:18:39Z</time>
      </trkpt>
      <trkpt lat="45.05707" lon="6.24702">
        <ele>2261.6</ele>
        <time>2024-08-10T08:18:40Z</time>
      </trkpt>
      <trkpt lat="45.05707" lon="6.24702">
        <ele>2261.4</ele>
        <time>2024-08-10T08:18:41Z</time>
      </trkpt>
      <trkpt lat="45.05706" lon="6.24706">
        <ele>2261.4</ele>
        <time>2024-08-10T08:18:42Z</time>
      </trkpt>
      <trkpt lat="45.05706" lon="6.24706">
        <ele>2261.2</ele>
        <time>2024-08-10T08:18:43Z</time>
      </trkpt>
      <trkpt lat="45.05705" lon="6.2471">
        <ele>2261.2</ele>
        <time>2024-08-10T08:18:44Z</time>
      </trkpt>
      <trkpt lat="45.05705" lon="6.2471">
        <ele>2260.6</ele>
        <time>2024-08-10T08:18:45Z</time>
      </trkpt>
      <trkpt lat="45.05705" lon="6.24714">
        <ele>2260.4</ele>
        <time>2024-08-10T08:18:46Z</time>
      </trkpt>
      <trkpt lat="45.05705" lon="6.24714">
        <ele>2260.2</ele>
        <time>2024-08-10T08:18:47Z</time>
      </trkpt>
      <trkpt lat="45.05704" lon="6.24719">
        <ele>2260.2</ele>
        <time>2024-08-10T08:18:48Z</time>
      </trkpt>
      <trkpt lat="45.05704" lon="6.24719">
        <ele>2260.2</ele>
        <time>2024-08-10T08:18:49Z</time>
      </trkpt>
      <trkpt lat="45.05703" lon="6.24723">
        <ele>2260.2</ele>
        <time>2024-08-10T08:18:50Z</time>
      </trkpt>
      <trkpt lat="45.05703" lon="6.24723">
        <ele>2260.2</ele>
        <time>2024-08-10T08:18:51Z</time>
      </trkpt>
      <trkpt lat="45.05702" lon="6.24727">
        <ele>2260</ele>
        <time>2024-08-10T08:18:52Z</time>
      </trkpt>
      <trkpt lat="45.05702" lon="6.24727">
        <ele>2260</ele>
        <time>2024-08-10T08:18:53Z</time>
      </trkpt>
      <trkpt lat="45.05701" lon="6.24731">
        <ele>2259.8</ele>
        <time>2024-08-10T08:18:54Z</time>
      </trkpt>
      <trkpt lat="45.05701" lon="6.24731">
        <ele>2259.8</ele>
        <time>2024-08-10T08:18:55Z</time>
      </trkpt>
      <trkpt lat="45.05701" lon="6.24735">
        <ele>2259.8</ele>
        <time>2024-08-10T08:18:56Z</time>
      </trkpt>
      <trkpt lat="45.05701" lon="6.24735">
        <ele>2259.6</ele>
        <time>2024-08-10T08:18:57Z</time>
      </trkpt>
      <trkpt lat="45.057" lon="6.24739">
        <ele>2259.4</ele>
        <time>2024-08-10T08:18:58Z</time>
      </trkpt>
      <trkpt lat="45.057" lon="6.24739">
        <ele>2259.2</ele>
        <time>2024-08-10T08:18:59Z</time>
      </trkpt>
      <trkpt lat="45.05699" lon="6.24743">
        <ele>2259.2</ele>
        <time>2024-08-10T08:19:00Z</time>
      </trkpt>
      <trkpt lat="45.05699" lon="6.24743">
        <ele>2259.2</ele>
        <time>2024-08-10T08:19:01Z</time>
      </trkpt>
      <trkpt lat="45.05698" lon="6.24746">
        <ele>2259.2</ele>
        <time>2024-08-10T08:19:02Z</time>
      </trkpt>
      <trkpt lat="45.05698" lon="6.24746">
        <ele>2258.8</ele>
        <time>2024-08-10T08:19:03Z</time>
      </trkpt>
      <trkpt lat="45.05698" lon="6.2475">
        <ele>2258.8</ele>
        <time>2024-08-10T08:19:04Z</time>
      </trkpt>
      <trkpt lat="45.05698" lon="6.2475">
        <ele>2258.4</ele>
        <time>2024-08-10T08:19:05Z</time>
      </trkpt>
      <trkpt lat="45.05696" lon="6.24753">
        <ele>2258.4</ele>
        <time>2024-08-10T08:19:06Z</time>
      </trkpt>
      <trkpt lat="45.05696" lon="6.24753">
        <ele>2258.2</ele>
        <time>2024-08-10T08:19:07Z</time>
      </trkpt>
      <trkpt lat="45.05695" lon="6.24756">
        <ele>2258</ele>
        <time>2024-08-10T08:19:08Z</time>
      </trkpt>
      <trkpt lat="45.05695" lon="6.24756">
        <ele>2257.8</ele>
        <time>2024-08-10T08:19:09Z</time>
      </trkpt>
      <trkpt lat="45.05694" lon="6.24761">
        <ele>2257.8</ele>
        <time>2024-08-10T08:19:10Z</time>
      </trkpt>
      <trkpt lat="45.05693" lon="6.24763">
        <ele>2258.2</ele>
        <time>2024-08-10T08:19:11Z</time>
      </trkpt>
      <trkpt lat="45.05693" lon="6.24763">
        <ele>2258.6</ele>
        <time>2024-08-10T08:19:12Z</time>
      </trkpt>
      <trkpt lat="45.05693" lon="6.24767">
        <ele>2258.6</ele>
        <time>2024-08-10T08:19:13Z</time>
      </trkpt>
      <trkpt lat="45.05693" lon="6.24767">
        <ele>2258.4</ele>
        <time>2024-08-10T08:19:14Z</time>
      </trkpt>
      <trkpt lat="45.05693" lon="6.24771">
        <ele>2258.2</ele>
        <time>2024-08-10T08:19:15Z</time>
      </trkpt>
      <trkpt lat="45.05693" lon="6.24771">
        <ele>2258.2</ele>
        <time>2024-08-10T08:19:16Z</time>
      </trkpt>
      <trkpt lat="45.05693" lon="6.24775">
        <ele>2258</ele>
        <time>2024-08-10T08:19:17Z</time>
      </trkpt>
      <trkpt lat="45.05693" lon="6.24777">
        <ele>2258</ele>
        <time>2024-08-10T08:19:18Z</time>
      </trkpt>
      <trkpt lat="45.05693" lon="6.24777">
        <ele>2258</ele>
        <time>2024-08-10T08:19:19Z</time>
      </trkpt>
      <trkpt lat="45.05692" lon="6.24781">
        <ele>2258</ele>
        <time>2024-08-10T08:19:20Z</time>
      </trkpt>
      <trkpt lat="45.05692" lon="6.24781">
        <ele>2258</ele>
        <time>2024-08-10T08:19:21Z</time>
      </trkpt>
      <trkpt lat="45.05691" lon="6.24785">
        <ele>2257.8</ele>
        <time>2024-08-10T08:19:22Z</time>
      </trkpt>
      <trkpt lat="45.05691" lon="6.24785">
        <ele>2257.8</ele>
        <time>2024-08-10T08:19:23Z</time>
      </trkpt>
      <trkpt lat="45.05691" lon="6.24789">
        <ele>2257.8</ele>
        <time>2024-08-10T08:19:24Z</time>
      </trkpt>
      <trkpt lat="45.05691" lon="6.24789">
        <ele>2257.8</ele>
        <time>2024-08-10T08:19:25Z</time>
      </trkpt>
      <trkpt lat="45.05691" lon="6.24793">
        <ele>2257.8</ele>
        <time>2024-08-10T08:19:26Z</time>
      </trkpt>
      <trkpt lat="45.05691" lon="6.24793">
        <ele>2257.8</ele>
        <time>2024-08-10T08:19:27Z</time>
      </trkpt>
      <trkpt lat="45.0569" lon="6.24797">
        <ele>2256.6</ele>
        <time>2024-08-10T08:19:28Z</time>
      </trkpt>
      <trkpt lat="45.0569" lon="6.24797">
        <ele>2255.4</ele>
        <time>2024-08-10T08:19:29Z</time>
      </trkpt>
      <trkpt lat="45.0569" lon="6.248">
        <ele>2255</ele>
        <time>2024-08-10T08:19:30Z</time>
      </trkpt>
      <trkpt lat="45.0569" lon="6.248">
        <ele>2254.6</ele>
        <time>2024-08-10T08:19:31Z</time>
      </trkpt>
      <trkpt lat="45.0569" lon="6.24804">
        <ele>2254.2</ele>
        <time>2024-08-10T08:19:32Z</time>
      </trkpt>
      <trkpt lat="45.0569" lon="6.24804">
        <ele>2254.2</ele>
        <time>2024-08-10T08:19:33Z</time>
      </trkpt>
      <trkpt lat="45.0569" lon="6.24808">
        <ele>2255</ele>
        <time>2024-08-10T08:19:34Z</time>
      </trkpt>
      <trkpt lat="45.05689" lon="6.24811">
        <ele>2255</ele>
        <time>2024-08-10T08:19:35Z</time>
      </trkpt>
      <trkpt lat="45.05689" lon="6.24811">
        <ele>2255</ele>
        <time>2024-08-10T08:19:36Z</time>
      </trkpt>
      <trkpt lat="45.05689" lon="6.24815">
        <ele>2254.6</ele>
        <time>2024-08-10T08:19:37Z</time>
      </trkpt>
      <trkpt lat="45.05689" lon="6.24815">
        <ele>2254.6</ele>
        <time>2024-08-10T08:19:38Z</time>
      </trkpt>
      <trkpt lat="45.05688" lon="6.24819">
        <ele>2254.2</ele>
        <time>2024-08-10T08:19:39Z</time>
      </trkpt>
      <trkpt lat="45.05688" lon="6.24819">
        <ele>2254</ele>
        <time>2024-08-10T08:19:40Z</time>
      </trkpt>
      <trkpt lat="45.05688" lon="6.24823">
        <ele>2253.8</ele>
        <time>2024-08-10T08:19:41Z</time>
      </trkpt>
      <trkpt lat="45.05688" lon="6.24823">
        <ele>2253.6</ele>
        <time>2024-08-10T08:19:42Z</time>
      </trkpt>
      <trkpt lat="45.05687" lon="6.24827">
        <ele>2253.4</ele>
        <time>2024-08-10T08:19:43Z</time>
      </trkpt>
      <trkpt lat="45.05687" lon="6.24827">
        <ele>2253</ele>
        <time>2024-08-10T08:19:44Z</time>
      </trkpt>
      <trkpt lat="45.05687" lon="6.24831">
        <ele>2252.8</ele>
        <time>2024-08-10T08:19:45Z</time>
      </trkpt>
      <trkpt lat="45.05687" lon="6.24831">
        <ele>2252.8</ele>
        <time>2024-08-10T08:19:46Z</time>
      </trkpt>
      <trkpt lat="45.05686" lon="6.24835">
        <ele>2252.6</ele>
        <time>2024-08-10T08:19:47Z</time>
      </trkpt>
      <trkpt lat="45.05686" lon="6.24835">
        <ele>2252.2</ele>
        <time>2024-08-10T08:19:48Z</time>
      </trkpt>
      <trkpt lat="45.05685" lon="6.24839">
        <ele>2251.8</ele>
        <time>2024-08-10T08:19:49Z</time>
      </trkpt>
      <trkpt lat="45.05685" lon="6.24839">
        <ele>2251.8</ele>
        <time>2024-08-10T08:19:50Z</time>
      </trkpt>
      <trkpt lat="45.05684" lon="6.24842">
        <ele>2251.6</ele>
        <time>2024-08-10T08:19:51Z</time>
      </trkpt>
      <trkpt lat="45.05684" lon="6.24842">
        <ele>2251.2</ele>
        <time>2024-08-10T08:19:52Z</time>
      </trkpt>
      <trkpt lat="45.05684" lon="6.24847">
        <ele>2251.2</ele>
        <time>2024-08-10T08:19:53Z</time>
      </trkpt>
      <trkpt lat="45.05684" lon="6.24847">
        <ele>2251</ele>
        <time>2024-08-10T08:19:54Z</time>
      </trkpt>
      <trkpt lat="45.05684" lon="6.24851">
        <ele>2250.4</ele>
        <time>2024-08-10T08:19:55Z</time>
      </trkpt>
      <trkpt lat="45.05684" lon="6.24851">
        <ele>2250.2</ele>
        <time>2024-08-10T08:19:56Z</time>
      </trkpt>
      <trkpt lat="45.05683" lon="6.24854">
        <ele>2250.2</ele>
        <time>2024-08-10T08:19:57Z</time>
      </trkpt>
      <trkpt lat="45.05683" lon="6.24854">
        <ele>2249.4</ele>
        <time>2024-08-10T08:19:58Z</time>
      </trkpt>
      <trkpt lat="45.05682" lon="6.24858">
        <ele>2249.2</ele>
        <time>2024-08-10T08:19:59Z</time>
      </trkpt>
      <trkpt lat="45.05682" lon="6.24858">
        <ele>2249</ele>
        <time>2024-08-10T08:20:00Z</time>
      </trkpt>
      <trkpt lat="45.05682" lon="6.24862">
        <ele>2248.8</ele>
        <time>2024-08-10T08:20:01Z</time>
      </trkpt>
      <trkpt lat="45.05682" lon="6.24862">
        <ele>2248.4</ele>
        <time>2024-08-10T08:20:02Z</time>
      </trkpt>
      <trkpt lat="45.05682" lon="6.24865">
        <ele>2247.8</ele>
        <time>2024-08-10T08:20:03Z</time>
      </trkpt>
      <trkpt lat="45.05682" lon="6.24865">
        <ele>2247.4</ele>
        <time>2024-08-10T08:20:04Z</time>
      </trkpt>
      <trkpt lat="45.05682" lon="6.24869">
        <ele>2247</ele>
        <time>2024-08-10T08:20:05Z</time>
      </trkpt>
      <trkpt lat="45.05682" lon="6.24869">
        <ele>2247</ele>
        <time>2024-08-10T08:20:06Z</time>
      </trkpt>
      <trkpt lat="45.05682" lon="6.24872">
        <ele>2246.8</ele>
        <time>2024-08-10T08:20:07Z</time>
      </trkpt>
      <trkpt lat="45.05681" lon="6.24875">
        <ele>2246.4</ele>
        <time>2024-08-10T08:20:08Z</time>
      </trkpt>
      <trkpt lat="45.05681" lon="6.24875">
        <ele>2246.4</ele>
        <time>2024-08-10T08:20:09Z</time>
      </trkpt>
      <trkpt lat="45.05682" lon="6.2488">
        <ele>2246.4</ele>
        <time>2024-08-10T08:20:10Z</time>
      </trkpt>
      <trkpt lat="45.05682" lon="6.2488">
        <ele>2246.2</ele>
        <time>2024-08-10T08:20:11Z</time>
      </trkpt>
      <trkpt lat="45.05682" lon="6.24884">
        <ele>2246</ele>
        <time>2024-08-10T08:20:12Z</time>
      </trkpt>
      <trkpt lat="45.05682" lon="6.24884">
        <ele>2245.8</ele>
        <time>2024-08-10T08:20:13Z</time>
      </trkpt>
      <trkpt lat="45.05682" lon="6.24888">
        <ele>2245.4</ele>
        <time>2024-08-10T08:20:14Z</time>
      </trkpt>
      <trkpt lat="45.05682" lon="6.24888">
        <ele>2245.4</ele>
        <time>2024-08-10T08:20:15Z</time>
      </trkpt>
      <trkpt lat="45.05682" lon="6.24893">
        <ele>2245.2</ele>
        <time>2024-08-10T08:20:16Z</time>
      </trkpt>
      <trkpt lat="45.05682" lon="6.24893">
        <ele>2245.2</ele>
        <time>2024-08-10T08:20:17Z</time>
      </trkpt>
      <trkpt lat="45.05684" lon="6.24896">
        <ele>2244.8</ele>
        <time>2024-08-10T08:20:18Z</time>
      </trkpt>
      <trkpt lat="45.05684" lon="6.24896">
        <ele>2244.4</ele>
        <time>2024-08-10T08:20:19Z</time>
      </trkpt>
      <trkpt lat="45.05685" lon="6.249">
        <ele>2244.2</ele>
        <time>2024-08-10T08:20:20Z</time>
      </trkpt>
      <trkpt lat="45.05685" lon="6.249">
        <ele>2243.8</ele>
        <time>2024-08-10T08:20:21Z</time>
      </trkpt>
      <trkpt lat="45.05686" lon="6.24904">
        <ele>2243.6</ele>
        <time>2024-08-10T08:20:22Z</time>
      </trkpt>
      <trkpt lat="45.05686" lon="6.24904">
        <ele>2243.4</ele>
        <time>2024-08-10T08:20:23Z</time>
      </trkpt>
      <trkpt lat="45.05687" lon="6.24907">
        <ele>2243.2</ele>
        <time>2024-08-10T08:20:24Z</time>
      </trkpt>
      <trkpt lat="45.05687" lon="6.24907">
        <ele>2243.2</ele>
        <time>2024-08-10T08:20:25Z</time>
      </trkpt>
      <trkpt lat="45.05689" lon="6.24909">
        <ele>2243</ele>
        <time>2024-08-10T08:20:26Z</time>
      </trkpt>
      <trkpt lat="45.05689" lon="6.24909">
        <ele>2243</ele>
        <time>2024-08-10T08:20:27Z</time>
      </trkpt>
      <trkpt lat="45.0569" lon="6.24912">
        <ele>2242.6</ele>
        <time>2024-08-10T08:20:28Z</time>
      </trkpt>
      <trkpt lat="45.0569" lon="6.24912">
        <ele>2242.2</ele>
        <time>2024-08-10T08:20:29Z</time>
      </trkpt>
      <trkpt lat="45.05691" lon="6.24915">
        <ele>2242.2</ele>
        <time>2024-08-10T08:20:30Z</time>
      </trkpt>
      <trkpt lat="45.05691" lon="6.24915">
        <ele>2242</ele>
        <time>2024-08-10T08:20:31Z</time>
      </trkpt>
      <trkpt lat="45.05691" lon="6.24918">
        <ele>2241.6</ele>
        <time>2024-08-10T08:20:32Z</time>
      </trkpt>
      <trkpt lat="45.05691" lon="6.24918">
        <ele>2241.4</ele>
        <time>2024-08-10T08:20:33Z</time>
      </trkpt>
      <trkpt lat="45.05692" lon="6.24921">
        <ele>2241.4</ele>
        <time>2024-08-10T08:20:34Z</time>
      </trkpt>
      <trkpt lat="45.05692" lon="6.24921">
        <ele>2241.2</ele>
        <time>2024-08-10T08:20:35Z</time>
      </trkpt>
      <trkpt lat="45.05693" lon="6.24925">
        <ele>2240.8</ele>
        <time>2024-08-10T08:20:36Z</time>
      </trkpt>
      <trkpt lat="45.05693" lon="6.24925">
        <ele>2240.8</ele>
        <time>2024-08-10T08:20:37Z</time>
      </trkpt>
      <trkpt lat="45.05693" lon="6.24928">
        <ele>2240.4</ele>
        <time>2024-08-10T08:20:38Z</time>
      </trkpt>
      <trkpt lat="45.05693" lon="6.24928">
        <ele>2240.2</ele>
        <time>2024-08-10T08:20:39Z</time>
      </trkpt>
      <trkpt lat="45.05695" lon="6.24932">
        <ele>2240</ele>
        <time>2024-08-10T08:20:40Z</time>
      </trkpt>
      <trkpt lat="45.05695" lon="6.24932">
        <ele>2240</ele>
        <time>2024-08-10T08:20:41Z</time>
      </trkpt>
      <trkpt lat="45.05696" lon="6.24935">
        <ele>2239.6</ele>
        <time>2024-08-10T08:20:42Z</time>
      </trkpt>
      <trkpt lat="45.05696" lon="6.24935">
        <ele>2239.2</ele>
        <time>2024-08-10T08:20:43Z</time>
      </trkpt>
      <trkpt lat="45.05697" lon="6.24938">
        <ele>2239.2</ele>
        <time>2024-08-10T08:20:44Z</time>
      </trkpt>
      <trkpt lat="45.05697" lon="6.24938">
        <ele>2239.2</ele>
        <time>2024-08-10T08:20:45Z</time>
      </trkpt>
      <trkpt lat="45.05698" lon="6.24942">
        <ele>2239.2</ele>
        <time>2024-08-10T08:20:46Z</time>
      </trkpt>
      <trkpt lat="45.05698" lon="6.24942">
        <ele>2238.8</ele>
        <time>2024-08-10T08:20:47Z</time>
      </trkpt>
      <trkpt lat="45.05699" lon="6.24945">
        <ele>2238.2</ele>
        <time>2024-08-10T08:20:48Z</time>
      </trkpt>
      <trkpt lat="45.05699" lon="6.24945">
        <ele>2238.2</ele>
        <time>2024-08-10T08:20:49Z</time>
      </trkpt>
      <trkpt lat="45.05699" lon="6.24949">
        <ele>2238.2</ele>
        <time>2024-08-10T08:20:50Z</time>
      </trkpt>
      <trkpt lat="45.05699" lon="6.24949">
        <ele>2238.4</ele>
        <time>2024-08-10T08:20:51Z</time>
      </trkpt>
      <trkpt lat="45.05699" lon="6.24953">
        <ele>2238.8</ele>
        <time>2024-08-10T08:20:52Z</time>
      </trkpt>
      <trkpt lat="45.05699" lon="6.24953">
        <ele>2238.8</ele>
        <time>2024-08-10T08:20:53Z</time>
      </trkpt>
      <trkpt lat="45.057" lon="6.24957">
        <ele>2239</ele>
        <time>2024-08-10T08:20:54Z</time>
      </trkpt>
      <trkpt lat="45.057" lon="6.24957">
        <ele>2239</ele>
        <time>2024-08-10T08:20:55Z</time>
      </trkpt>
      <trkpt lat="45.05699" lon="6.2496">
        <ele>2239</ele>
        <time>2024-08-10T08:20:56Z</time>
      </trkpt>
      <trkpt lat="45.05699" lon="6.2496">
        <ele>2239</ele>
        <time>2024-08-10T08:20:57Z</time>
      </trkpt>
      <trkpt lat="45.05699" lon="6.24964">
        <ele>2238.8</ele>
        <time>2024-08-10T08:20:58Z</time>
      </trkpt>
      <trkpt lat="45.05699" lon="6.24964">
        <ele>2238.8</ele>
        <time>2024-08-10T08:20:59Z</time>
      </trkpt>
      <trkpt lat="45.05698" lon="6.24967">
        <ele>2238.8</ele>
        <time>2024-08-10T08:21:00Z</time>
      </trkpt>
      <trkpt lat="45.05698" lon="6.24967">
        <ele>2238.8</ele>
        <time>2024-08-10T08:21:01Z</time>
      </trkpt>
      <trkpt lat="45.05696" lon="6.2497">
        <ele>2238.8</ele>
        <time>2024-08-10T08:21:02Z</time>
      </trkpt>
      <trkpt lat="45.05696" lon="6.2497">
        <ele>2238.6</ele>
        <time>2024-08-10T08:21:03Z</time>
      </trkpt>
      <trkpt lat="45.05694" lon="6.24974">
        <ele>2238.6</ele>
        <time>2024-08-10T08:21:04Z</time>
      </trkpt>
      <trkpt lat="45.05694" lon="6.24974">
        <ele>2238.6</ele>
        <time>2024-08-10T08:21:05Z</time>
      </trkpt>
      <trkpt lat="45.05693" lon="6.24977">
        <ele>2238.4</ele>
        <time>2024-08-10T08:21:06Z</time>
      </trkpt>
      <trkpt lat="45.05693" lon="6.24977">
        <ele>2238.4</ele>
        <time>2024-08-10T08:21:07Z</time>
      </trkpt>
      <trkpt lat="45.05691" lon="6.24981">
        <ele>2238.4</ele>
        <time>2024-08-10T08:21:08Z</time>
      </trkpt>
      <trkpt lat="45.05691" lon="6.24981">
        <ele>2238.2</ele>
        <time>2024-08-10T08:21:09Z</time>
      </trkpt>
      <trkpt lat="45.0569" lon="6.24985">
        <ele>2238.2</ele>
        <time>2024-08-10T08:21:10Z</time>
      </trkpt>
      <trkpt lat="45.0569" lon="6.24985">
        <ele>2238.2</ele>
        <time>2024-08-10T08:21:11Z</time>
      </trkpt>
      <trkpt lat="45.05689" lon="6.24989">
        <ele>2238</ele>
        <time>2024-08-10T08:21:12Z</time>
      </trkpt>
      <trkpt lat="45.05689" lon="6.24989">
        <ele>2237.8</ele>
        <time>2024-08-10T08:21:13Z</time>
      </trkpt>
      <trkpt lat="45.05689" lon="6.24993">
        <ele>2237.8</ele>
        <time>2024-08-10T08:21:14Z</time>
      </trkpt>
      <trkpt lat="45.05689" lon="6.24993">
        <ele>2237.6</ele>
        <time>2024-08-10T08:21:15Z</time>
      </trkpt>
      <trkpt lat="45.0569" lon="6.24997">
        <ele>2237.6</ele>
        <time>2024-08-10T08:21:16Z</time>
      </trkpt>
      <trkpt lat="45.0569" lon="6.24997">
        <ele>2237.6</ele>
        <time>2024-08-10T08:21:17Z</time>
      </trkpt>
      <trkpt lat="45.05689" lon="6.25001">
        <ele>2237.6</ele>
        <time>2024-08-10T08:21:18Z</time>
      </trkpt>
      <trkpt lat="45.05689" lon="6.25001">
        <ele>2237.6</ele>
        <time>2024-08-10T08:21:19Z</time>
      </trkpt>
      <trkpt lat="45.05688" lon="6.25005">
        <ele>2237.6</ele>
        <time>2024-08-10T08:21:20Z</time>
      </trkpt>
      <trkpt lat="45.05688" lon="6.25005">
        <ele>2237.6</ele>
        <time>2024-08-10T08:21:21Z</time>
      </trkpt>
      <trkpt lat="45.05689" lon="6.2501">
        <ele>2237.6</ele>
        <time>2024-08-10T08:21:22Z</time>
      </trkpt>
      <trkpt lat="45.05689" lon="6.2501">
        <ele>2237.6</ele>
        <time>2024-08-10T08:21:23Z</time>
      </trkpt>
      <trkpt lat="45.0569" lon="6.25014">
        <ele>2237.6</ele>
        <time>2024-08-10T08:21:24Z</time>
      </trkpt>
      <trkpt lat="45.0569" lon="6.25014">
        <ele>2237.6</ele>
        <time>2024-08-10T08:21:25Z</time>
      </trkpt>
      <trkpt lat="45.05691" lon="6.25018">
        <ele>2237.2</ele>
        <time>2024-08-10T08:21:26Z</time>
      </trkpt>
      <trkpt lat="45.05691" lon="6.25018">
        <ele>2236.8</ele>
        <time>2024-08-10T08:21:27Z</time>
      </trkpt>
      <trkpt lat="45.05691" lon="6.25022">
        <ele>2236.8</ele>
        <time>2024-08-10T08:21:28Z</time>
      </trkpt>
      <trkpt lat="45.05691" lon="6.25022">
        <ele>2236.8</ele>
        <time>2024-08-10T08:21:29Z</time>
      </trkpt>
      <trkpt lat="45.05692" lon="6.25025">
        <ele>2236.8</ele>
        <time>2024-08-10T08:21:30Z</time>
      </trkpt>
      <trkpt lat="45.05692" lon="6.25025">
        <ele>2236.2</ele>
        <time>2024-08-10T08:21:31Z</time>
      </trkpt>
      <trkpt lat="45.05693" lon="6.25028">
        <ele>2235.6</ele>
        <time>2024-08-10T08:21:32Z</time>
      </trkpt>
      <trkpt lat="45.05693" lon="6.25028">
        <ele>2235.2</ele>
        <time>2024-08-10T08:21:33Z</time>
      </trkpt>
      <trkpt lat="45.05693" lon="6.25031">
        <ele>2235</ele>
        <time>2024-08-10T08:21:34Z</time>
      </trkpt>
      <trkpt lat="45.05693" lon="6.25031">
        <ele>2234.8</ele>
        <time>2024-08-10T08:21:35Z</time>
      </trkpt>
      <trkpt lat="45.05694" lon="6.25034">
        <ele>2234.6</ele>
        <time>2024-08-10T08:21:36Z</time>
      </trkpt>
      <trkpt lat="45.05694" lon="6.25034">
        <ele>2234.4</ele>
        <time>2024-08-10T08:21:37Z</time>
      </trkpt>
      <trkpt lat="45.05694" lon="6.25038">
        <ele>2234</ele>
        <time>2024-08-10T08:21:38Z</time>
      </trkpt>
      <trkpt lat="45.05694" lon="6.25038">
        <ele>2233.8</ele>
        <time>2024-08-10T08:21:39Z</time>
      </trkpt>
      <trkpt lat="45.05695" lon="6.25042">
        <ele>2233.4</ele>
        <time>2024-08-10T08:21:40Z</time>
      </trkpt>
      <trkpt lat="45.05695" lon="6.25042">
        <ele>2232.8</ele>
        <time>2024-08-10T08:21:41Z</time>
      </trkpt>
      <trkpt lat="45.05696" lon="6.25045">
        <ele>2232.6</ele>
        <time>2024-08-10T08:21:42Z</time>
      </trkpt>
      <trkpt lat="45.05696" lon="6.25045">
        <ele>2232.6</ele>
        <time>2024-08-10T08:21:43Z</time>
      </trkpt>
      <trkpt lat="45.05697" lon="6.25049">
        <ele>2232.2</ele>
        <time>2024-08-10T08:21:44Z</time>
      </trkpt>
      <trkpt lat="45.05697" lon="6.25049">
        <ele>2232.2</ele>
        <time>2024-08-10T08:21:45Z</time>
      </trkpt>
      <trkpt lat="45.05698" lon="6.25052">
        <ele>2232</ele>
        <time>2024-08-10T08:21:46Z</time>
      </trkpt>
      <trkpt lat="45.05698" lon="6.25052">
        <ele>2232</ele>
        <time>2024-08-10T08:21:47Z</time>
      </trkpt>
      <trkpt lat="45.057" lon="6.25055">
        <ele>2231.8</ele>
        <time>2024-08-10T08:21:48Z</time>
      </trkpt>
      <trkpt lat="45.057" lon="6.25055">
        <ele>2231.8</ele>
        <time>2024-08-10T08:21:49Z</time>
      </trkpt>
      <trkpt lat="45.05701" lon="6.25059">
        <ele>2231.6</ele>
        <time>2024-08-10T08:21:50Z</time>
      </trkpt>
      <trkpt lat="45.05701" lon="6.25059">
        <ele>2231.4</ele>
        <time>2024-08-10T08:21:51Z</time>
      </trkpt>
      <trkpt lat="45.05703" lon="6.25061">
        <ele>2231.2</ele>
        <time>2024-08-10T08:21:52Z</time>
      </trkpt>
      <trkpt lat="45.05703" lon="6.25061">
        <ele>2231.2</ele>
        <time>2024-08-10T08:21:53Z</time>
      </trkpt>
      <trkpt lat="45.05705" lon="6.25065">
        <ele>2231.2</ele>
        <time>2024-08-10T08:21:54Z</time>
      </trkpt>
      <trkpt lat="45.05705" lon="6.25065">
        <ele>2231</ele>
        <time>2024-08-10T08:21:55Z</time>
      </trkpt>
      <trkpt lat="45.05706" lon="6.25069">
        <ele>2231</ele>
        <time>2024-08-10T08:21:56Z</time>
      </trkpt>
      <trkpt lat="45.05706" lon="6.25069">
        <ele>2230.8</ele>
        <time>2024-08-10T08:21:57Z</time>
      </trkpt>
      <trkpt lat="45.05706" lon="6.25072">
        <ele>2230.8</ele>
        <time>2024-08-10T08:21:58Z</time>
      </trkpt>
      <trkpt lat="45.05706" lon="6.25072">
        <ele>2230.4</ele>
        <time>2024-08-10T08:21:59Z</time>
      </trkpt>
      <trkpt lat="45.05706" lon="6.25072">
        <ele>2230.2</ele>
        <time>2024-08-10T08:22:00Z</time>
      </trkpt>
      <trkpt lat="45.05706" lon="6.25072">
        <ele>2229.6</ele>
        <time>2024-08-10T08:22:01Z</time>
      </trkpt>
      <trkpt lat="45.05706" lon="6.25072">
        <ele>2229.2</ele>
        <time>2024-08-10T08:22:02Z</time>
      </trkpt>
      <trkpt lat="45.05706" lon="6.25072">
        <ele>2229.2</ele>
        <time>2024-08-10T08:22:03Z</time>
      </trkpt>
      <trkpt lat="45.05706" lon="6.25072">
        <ele>2229.2</ele>
        <time>2024-08-10T08:22:04Z</time>
      </trkpt>
      <trkpt lat="45.05706" lon="6.25072">
        <ele>2229.2</ele>
        <time>2024-08-10T08:22:05Z</time>
      </trkpt>
      <trkpt lat="45.05706" lon="6.25072">
        <ele>2229</ele>
        <time>2024-08-10T08:22:06Z</time>
      </trkpt>
      <trkpt lat="45.05706" lon="6.25072">
        <ele>2229</ele>
        <time>2024-08-10T08:22:07Z</time>
      </trkpt>
      <trkpt lat="45.05706" lon="6.25072">
        <ele>2228.8</ele>
        <time>2024-08-10T08:22:08Z</time>
      </trkpt>
      <trkpt lat="45.05706" lon="6.25072">
        <ele>2228.8</ele>
        <time>2024-08-10T08:22:09Z</time>
      </trkpt>
      <trkpt lat="45.05706" lon="6.25072">
        <ele>2228.8</ele>
        <time>2024-08-10T08:22:10Z</time>
      </trkpt>
      <trkpt lat="45.05706" lon="6.25072">
        <ele>2228.8</ele>
        <time>2024-08-10T08:22:11Z</time>
      </trkpt>
      <trkpt lat="45.05706" lon="6.25072">
        <ele>2228.8</ele>
        <time>2024-08-10T08:22:12Z</time>
      </trkpt>
      <trkpt lat="45.05706" lon="6.25072">
        <ele>2228.4</ele>
        <time>2024-08-10T08:22:13Z</time>
      </trkpt>
      <trkpt lat="45.05706" lon="6.25072">
        <ele>2228.4</ele>
        <time>2024-08-10T08:22:14Z</time>
      </trkpt>
      <trkpt lat="45.05706" lon="6.25072">
        <ele>2228.4</ele>
        <time>2024-08-10T08:22:15Z</time>
      </trkpt>
      <trkpt lat="45.05706" lon="6.25072">
        <ele>2228.4</ele>
        <time>2024-08-10T08:22:16Z</time>
      </trkpt>
      <trkpt lat="45.05706" lon="6.25072">
        <ele>2228.2</ele>
        <time>2024-08-10T08:22:17Z</time>
      </trkpt>
      <trkpt lat="45.05706" lon="6.25072">
        <ele>2228.2</ele>
        <time>2024-08-10T08:22:18Z</time>
      </trkpt>
      <trkpt lat="45.05706" lon="6.25072">
        <ele>2228.4</ele>
        <time>2024-08-10T08:22:19Z</time>
      </trkpt>
      <trkpt lat="45.05706" lon="6.25072">
        <ele>2228.4</ele>
        <time>2024-08-10T08:22:20Z</time>
      </trkpt>
      <trkpt lat="45.05706" lon="6.25072">
        <ele>2228.6</ele>
        <time>2024-08-10T08:22:21Z</time>
      </trkpt>
      <trkpt lat="45.05706" lon="6.25072">
        <ele>2228.4</ele>
        <time>2024-08-10T08:22:22Z</time>
      </trkpt>
      <trkpt lat="45.05706" lon="6.25072">
        <ele>2228.4</ele>
        <time>2024-08-10T08:22:23Z</time>
      </trkpt>
      <trkpt lat="45.05706" lon="6.25072">
        <ele>2228.4</ele>
        <time>2024-08-10T08:22:24Z</time>
      </trkpt>
      <trkpt lat="45.05706" lon="6.25072">
        <ele>2228.6</ele>
        <time>2024-08-10T08:22:25Z</time>
      </trkpt>
      <trkpt lat="45.05706" lon="6.25072">
        <ele>2228.6</ele>
        <time>2024-08-10T08:22:26Z</time>
      </trkpt>
      <trkpt lat="45.05706" lon="6.25072">
        <ele>2228.6</ele>
        <time>2024-08-10T08:22:27Z</time>
      </trkpt>
      <trkpt lat="45.05706" lon="6.25072">
        <ele>2228.8</ele>
        <time>2024-08-10T08:22:28Z</time>
      </trkpt>
      <trkpt lat="45.05707" lon="6.25074">
        <ele>2228.8</ele>
        <time>2024-08-10T08:22:29Z</time>
      </trkpt>
      <trkpt lat="45.05707" lon="6.25074">
        <ele>2228.8</ele>
        <time>2024-08-10T08:22:30Z</time>
      </trkpt>
      <trkpt lat="45.05707" lon="6.25078">
        <ele>2228.8</ele>
        <time>2024-08-10T08:22:31Z</time>
      </trkpt>
      <trkpt lat="45.05706" lon="6.2508">
        <ele>2228.6</ele>
        <time>2024-08-10T08:22:32Z</time>
      </trkpt>
      <trkpt lat="45.05706" lon="6.2508">
        <ele>2228.6</ele>
        <time>2024-08-10T08:22:33Z</time>
      </trkpt>
      <trkpt lat="45.05706" lon="6.25085">
        <ele>2228.6</ele>
        <time>2024-08-10T08:22:34Z</time>
      </trkpt>
      <trkpt lat="45.05706" lon="6.25085">
        <ele>2228.4</ele>
        <time>2024-08-10T08:22:35Z</time>
      </trkpt>
      <trkpt lat="45.05705" lon="6.25089">
        <ele>2228.4</ele>
        <time>2024-08-10T08:22:36Z</time>
      </trkpt>
      <trkpt lat="45.05705" lon="6.25089">
        <ele>2228.2</ele>
        <time>2024-08-10T08:22:37Z</time>
      </trkpt>
      <trkpt lat="45.05705" lon="6.25093">
        <ele>2228.2</ele>
        <time>2024-08-10T08:22:38Z</time>
      </trkpt>
      <trkpt lat="45.05705" lon="6.25093">
        <ele>2228</ele>
        <time>2024-08-10T08:22:39Z</time>
      </trkpt>
      <trkpt lat="45.05706" lon="6.25097">
        <ele>2227.8</ele>
        <time>2024-08-10T08:22:40Z</time>
      </trkpt>
      <trkpt lat="45.05706" lon="6.25097">
        <ele>2227.8</ele>
        <time>2024-08-10T08:22:41Z</time>
      </trkpt>
      <trkpt lat="45.05706" lon="6.25101">
        <ele>2227.8</ele>
        <time>2024-08-10T08:22:42Z</time>
      </trkpt>
      <trkpt lat="45.05706" lon="6.25101">
        <ele>2227.8</ele>
        <time>2024-08-10T08:22:43Z</time>
      </trkpt>
      <trkpt lat="45.05707" lon="6.25104">
        <ele>2227.6</ele>
        <time>2024-08-10T08:22:44Z</time>
      </trkpt>
      <trkpt lat="45.05707" lon="6.25104">
        <ele>2227.2</ele>
        <time>2024-08-10T08:22:45Z</time>
      </trkpt>
      <trkpt lat="45.05707" lon="6.25108">
        <ele>2227.2</ele>
        <time>2024-08-10T08:22:46Z</time>
      </trkpt>
      <trkpt lat="45.05707" lon="6.25108">
        <ele>2227</ele>
        <time>2024-08-10T08:22:47Z</time>
      </trkpt>
      <trkpt lat="45.05708" lon="6.25111">
        <ele>2226.8</ele>
        <time>2024-08-10T08:22:48Z</time>
      </trkpt>
      <trkpt lat="45.05708" lon="6.25111">
        <ele>2226.4</ele>
        <time>2024-08-10T08:22:49Z</time>
      </trkpt>
      <trkpt lat="45.05709" lon="6.25114">
        <ele>2226</ele>
        <time>2024-08-10T08:22:50Z</time>
      </trkpt>
      <trkpt lat="45.05709" lon="6.25114">
        <ele>2225.8</ele>
        <time>2024-08-10T08:22:51Z</time>
      </trkpt>
      <trkpt lat="45.0571" lon="6.25118">
        <ele>2225.6</ele>
        <time>2024-08-10T08:22:52Z</time>
      </trkpt>
      <trkpt lat="45.0571" lon="6.25118">
        <ele>2225.2</ele>
        <time>2024-08-10T08:22:53Z</time>
      </trkpt>
      <trkpt lat="45.05711" lon="6.25121">
        <ele>2225.2</ele>
        <time>2024-08-10T08:22:54Z</time>
      </trkpt>
      <trkpt lat="45.05711" lon="6.25121">
        <ele>2225.2</ele>
        <time>2024-08-10T08:22:55Z</time>
      </trkpt>
      <trkpt lat="45.05711" lon="6.25125">
        <ele>2225.2</ele>
        <time>2024-08-10T08:22:56Z</time>
      </trkpt>
      <trkpt lat="45.05711" lon="6.25125">
        <ele>2224.8</ele>
        <time>2024-08-10T08:22:57Z</time>
      </trkpt>
      <trkpt lat="45.05711" lon="6.2513">
        <ele>2224.8</ele>
        <time>2024-08-10T08:22:58Z</time>
      </trkpt>
      <trkpt lat="45.05711" lon="6.2513">
        <ele>2225</ele>
        <time>2024-08-10T08:22:59Z</time>
      </trkpt>
      <trkpt lat="45.05711" lon="6.25133">
        <ele>2225</ele>
        <time>2024-08-10T08:23:00Z</time>
      </trkpt>
      <trkpt lat="45.05711" lon="6.25133">
        <ele>2224.8</ele>
        <time>2024-08-10T08:23:01Z</time>
      </trkpt>
      <trkpt lat="45.05711" lon="6.25137">
        <ele>2224.8</ele>
        <time>2024-08-10T08:23:02Z</time>
      </trkpt>
      <trkpt lat="45.05711" lon="6.25137">
        <ele>2224.6</ele>
        <time>2024-08-10T08:23:03Z</time>
      </trkpt>
      <trkpt lat="45.05711" lon="6.25141">
        <ele>2224.6</ele>
        <time>2024-08-10T08:23:04Z</time>
      </trkpt>
      <trkpt lat="45.05711" lon="6.25141">
        <ele>2224.4</ele>
        <time>2024-08-10T08:23:05Z</time>
      </trkpt>
      <trkpt lat="45.05712" lon="6.25145">
        <ele>2224.4</ele>
        <time>2024-08-10T08:23:06Z</time>
      </trkpt>
      <trkpt lat="45.05712" lon="6.25145">
        <ele>2224.2</ele>
        <time>2024-08-10T08:23:07Z</time>
      </trkpt>
      <trkpt lat="45.05712" lon="6.25149">
        <ele>2224.2</ele>
        <time>2024-08-10T08:23:08Z</time>
      </trkpt>
      <trkpt lat="45.05712" lon="6.25149">
        <ele>2223.8</ele>
        <time>2024-08-10T08:23:09Z</time>
      </trkpt>
      <trkpt lat="45.05712" lon="6.25152">
        <ele>2223.4</ele>
        <time>2024-08-10T08:23:10Z</time>
      </trkpt>
      <trkpt lat="45.05712" lon="6.25152">
        <ele>2223.4</ele>
        <time>2024-08-10T08:23:11Z</time>
      </trkpt>
      <trkpt lat="45.05711" lon="6.25156">
        <ele>2223.2</ele>
        <time>2024-08-10T08:23:12Z</time>
      </trkpt>
      <trkpt lat="45.05711" lon="6.25156">
        <ele>2223</ele>
        <time>2024-08-10T08:23:13Z</time>
      </trkpt>
      <trkpt lat="45.05711" lon="6.2516">
        <ele>2223</ele>
        <time>2024-08-10T08:23:14Z</time>
      </trkpt>
      <trkpt lat="45.05711" lon="6.2516">
        <ele>2222.8</ele>
        <time>2024-08-10T08:23:15Z</time>
      </trkpt>
      <trkpt lat="45.05712" lon="6.25163">
        <ele>2222.6</ele>
        <time>2024-08-10T08:23:16Z</time>
      </trkpt>
      <trkpt lat="45.05712" lon="6.25163">
        <ele>2222.6</ele>
        <time>2024-08-10T08:23:17Z</time>
      </trkpt>
      <trkpt lat="45.05713" lon="6.25166">
        <ele>2222.6</ele>
        <time>2024-08-10T08:23:18Z</time>
      </trkpt>
      <trkpt lat="45.05713" lon="6.25166">
        <ele>2222</ele>
        <time>2024-08-10T08:23:19Z</time>
      </trkpt>
      <trkpt lat="45.05715" lon="6.25168">
        <ele>2221.8</ele>
        <time>2024-08-10T08:23:20Z</time>
      </trkpt>
      <trkpt lat="45.05715" lon="6.25168">
        <ele>2221.4</ele>
        <time>2024-08-10T08:23:21Z</time>
      </trkpt>
      <trkpt lat="45.05716" lon="6.25166">
        <ele>2221.2</ele>
        <time>2024-08-10T08:23:22Z</time>
      </trkpt>
      <trkpt lat="45.05716" lon="6.25166">
        <ele>2221.2</ele>
        <time>2024-08-10T08:23:23Z</time>
      </trkpt>
      <trkpt lat="45.05718" lon="6.25164">
        <ele>2221</ele>
        <time>2024-08-10T08:23:24Z</time>
      </trkpt>
      <trkpt lat="45.05718" lon="6.25164">
        <ele>2220.8</ele>
        <time>2024-08-10T08:23:25Z</time>
      </trkpt>
      <trkpt lat="45.0572" lon="6.25162">
        <ele>2220.4</ele>
        <time>2024-08-10T08:23:26Z</time>
      </trkpt>
      <trkpt lat="45.0572" lon="6.25162">
        <ele>2220.2</ele>
        <time>2024-08-10T08:23:27Z</time>
      </trkpt>
      <trkpt lat="45.05722" lon="6.25162">
        <ele>2220</ele>
        <time>2024-08-10T08:23:28Z</time>
      </trkpt>
      <trkpt lat="45.05722" lon="6.25162">
        <ele>2219.8</ele>
        <time>2024-08-10T08:23:29Z</time>
      </trkpt>
      <trkpt lat="45.05725" lon="6.25163">
        <ele>2219.6</ele>
        <time>2024-08-10T08:23:30Z</time>
      </trkpt>
      <trkpt lat="45.05725" lon="6.25163">
        <ele>2219.6</ele>
        <time>2024-08-10T08:23:31Z</time>
      </trkpt>
      <trkpt lat="45.05727" lon="6.25165">
        <ele>2219.4</ele>
        <time>2024-08-10T08:23:32Z</time>
      </trkpt>
      <trkpt lat="45.05727" lon="6.25165">
        <ele>2219.2</ele>
        <time>2024-08-10T08:23:33Z</time>
      </trkpt>
      <trkpt lat="45.05728" lon="6.25169">
        <ele>2219</ele>
        <time>2024-08-10T08:23:34Z</time>
      </trkpt>
      <trkpt lat="45.05728" lon="6.25169">
        <ele>2219</ele>
        <time>2024-08-10T08:23:35Z</time>
      </trkpt>
      <trkpt lat="45.05727" lon="6.25172">
        <ele>2218.8</ele>
        <time>2024-08-10T08:23:36Z</time>
      </trkpt>
      <trkpt lat="45.05727" lon="6.25172">
        <ele>2218.6</ele>
        <time>2024-08-10T08:23:37Z</time>
      </trkpt>
      <trkpt lat="45.05727" lon="6.25176">
        <ele>2218.6</ele>
        <time>2024-08-10T08:23:38Z</time>
      </trkpt>
      <trkpt lat="45.05727" lon="6.25176">
        <ele>2218.6</ele>
        <time>2024-08-10T08:23:39Z</time>
      </trkpt>
      <trkpt lat="45.05727" lon="6.2518">
        <ele>2218.6</ele>
        <time>2024-08-10T08:23:40Z</time>
      </trkpt>
      <trkpt lat="45.05727" lon="6.2518">
        <ele>2219</ele>
        <time>2024-08-10T08:23:41Z</time>
      </trkpt>
      <trkpt lat="45.05727" lon="6.25183">
        <ele>2219.2</ele>
        <time>2024-08-10T08:23:42Z</time>
      </trkpt>
      <trkpt lat="45.05727" lon="6.25183">
        <ele>2219.2</ele>
        <time>2024-08-10T08:23:43Z</time>
      </trkpt>
      <trkpt lat="45.05727" lon="6.25186">
        <ele>2219</ele>
        <time>2024-08-10T08:23:44Z</time>
      </trkpt>
      <trkpt lat="45.05727" lon="6.25186">
        <ele>2219</ele>
        <time>2024-08-10T08:23:45Z</time>
      </trkpt>
      <trkpt lat="45.05728" lon="6.25189">
        <ele>2219</ele>
        <time>2024-08-10T08:23:46Z</time>
      </trkpt>
      <trkpt lat="45.05728" lon="6.25189">
        <ele>2219</ele>
        <time>2024-08-10T08:23:47Z</time>
      </trkpt>
      <trkpt lat="45.05729" lon="6.25193">
        <ele>2219</ele>
        <time>2024-08-10T08:23:48Z</time>
      </trkpt>
      <trkpt lat="45.05729" lon="6.25193">
        <ele>2219</ele>
        <time>2024-08-10T08:23:49Z</time>
      </trkpt>
      <trkpt lat="45.0573" lon="6.25195">
        <ele>2219.2</ele>
        <time>2024-08-10T08:23:50Z</time>
      </trkpt>
      <trkpt lat="45.0573" lon="6.25195">
        <ele>2219.2</ele>
        <time>2024-08-10T08:23:51Z</time>
      </trkpt>
      <trkpt lat="45.05731" lon="6.25198">
        <ele>2219.2</ele>
        <time>2024-08-10T08:23:52Z</time>
      </trkpt>
      <trkpt lat="45.05731" lon="6.25198">
        <ele>2219.4</ele>
        <time>2024-08-10T08:23:53Z</time>
      </trkpt>
      <trkpt lat="45.05732" lon="6.25201">
        <ele>2219.4</ele>
        <time>2024-08-10T08:23:54Z</time>
      </trkpt>
      <trkpt lat="45.05732" lon="6.25201">
        <ele>2219.4</ele>
        <time>2024-08-10T08:23:55Z</time>
      </trkpt>
      <trkpt lat="45.05733" lon="6.25204">
        <ele>2219.6</ele>
        <time>2024-08-10T08:23:56Z</time>
      </trkpt>
      <trkpt lat="45.05733" lon="6.25204">
        <ele>2219.6</ele>
        <time>2024-08-10T08:23:57Z</time>
      </trkpt>
      <trkpt lat="45.05735" lon="6.25206">
        <ele>2219.6</ele>
        <time>2024-08-10T08:23:58Z</time>
      </trkpt>
      <trkpt lat="45.05735" lon="6.25206">
        <ele>2219.4</ele>
        <time>2024-08-10T08:23:59Z</time>
      </trkpt>
      <trkpt lat="45.05735" lon="6.25206">
        <ele>2219.4</ele>
        <time>2024-08-10T08:24:00Z</time>
      </trkpt>
      <trkpt lat="45.05736" lon="6.25209">
        <ele>2219.4</ele>
        <time>2024-08-10T08:24:01Z</time>
      </trkpt>
      <trkpt lat="45.05736" lon="6.25209">
        <ele>2219.4</ele>
        <time>2024-08-10T08:24:02Z</time>
      </trkpt>
      <trkpt lat="45.05738" lon="6.25211">
        <ele>2219</ele>
        <time>2024-08-10T08:24:03Z</time>
      </trkpt>
      <trkpt lat="45.05738" lon="6.25211">
        <ele>2219</ele>
        <time>2024-08-10T08:24:04Z</time>
      </trkpt>
      <trkpt lat="45.05738" lon="6.25214">
        <ele>2218.6</ele>
        <time>2024-08-10T08:24:05Z</time>
      </trkpt>
      <trkpt lat="45.05738" lon="6.25214">
        <ele>2218.6</ele>
        <time>2024-08-10T08:24:06Z</time>
      </trkpt>
      <trkpt lat="45.05738" lon="6.25214">
        <ele>2218.4</ele>
        <time>2024-08-10T08:24:07Z</time>
      </trkpt>
      <trkpt lat="45.05739" lon="6.25217">
        <ele>2218.2</ele>
        <time>2024-08-10T08:24:08Z</time>
      </trkpt>
      <trkpt lat="45.05739" lon="6.25217">
        <ele>2218.2</ele>
        <time>2024-08-10T08:24:09Z</time>
      </trkpt>
      <trkpt lat="45.05739" lon="6.25217">
        <ele>2217.8</ele>
        <time>2024-08-10T08:24:10Z</time>
      </trkpt>
      <trkpt lat="45.05739" lon="6.2522">
        <ele>2217.6</ele>
        <time>2024-08-10T08:24:11Z</time>
      </trkpt>
      <trkpt lat="45.05739" lon="6.2522">
        <ele>2217.4</ele>
        <time>2024-08-10T08:24:12Z</time>
      </trkpt>
      <trkpt lat="45.05739" lon="6.2522">
        <ele>2217</ele>
        <time>2024-08-10T08:24:13Z</time>
      </trkpt>
      <trkpt lat="45.05741" lon="6.25222">
        <ele>2216.8</ele>
        <time>2024-08-10T08:24:14Z</time>
      </trkpt>
      <trkpt lat="45.05741" lon="6.25222">
        <ele>2216.6</ele>
        <time>2024-08-10T08:24:15Z</time>
      </trkpt>
      <trkpt lat="45.05739" lon="6.25225">
        <ele>2216.2</ele>
        <time>2024-08-10T08:24:16Z</time>
      </trkpt>
      <trkpt lat="45.05739" lon="6.25225">
        <ele>2216.2</ele>
        <time>2024-08-10T08:24:17Z</time>
      </trkpt>
      <trkpt lat="45.05739" lon="6.25227">
        <ele>2216</ele>
        <time>2024-08-10T08:24:18Z</time>
      </trkpt>
      <trkpt lat="45.05739" lon="6.25227">
        <ele>2216</ele>
        <time>2024-08-10T08:24:19Z</time>
      </trkpt>
      <trkpt lat="45.05739" lon="6.25227">
        <ele>2215.4</ele>
        <time>2024-08-10T08:24:20Z</time>
      </trkpt>
      <trkpt lat="45.05738" lon="6.2523">
        <ele>2215</ele>
        <time>2024-08-10T08:24:21Z</time>
      </trkpt>
      <trkpt lat="45.05738" lon="6.2523">
        <ele>2214.6</ele>
        <time>2024-08-10T08:24:22Z</time>
      </trkpt>
      <trkpt lat="45.05738" lon="6.2523">
        <ele>2214.4</ele>
        <time>2024-08-10T08:24:23Z</time>
      </trkpt>
      <trkpt lat="45.05738" lon="6.25234">
        <ele>2214.4</ele>
        <time>2024-08-10T08:24:24Z</time>
      </trkpt>
      <trkpt lat="45.05738" lon="6.25234">
        <ele>2213.8</ele>
        <time>2024-08-10T08:24:25Z</time>
      </trkpt>
      <trkpt lat="45.05737" lon="6.25236">
        <ele>2213.8</ele>
        <time>2024-08-10T08:24:26Z</time>
      </trkpt>
      <trkpt lat="45.05737" lon="6.25236">
        <ele>2213.6</ele>
        <time>2024-08-10T08:24:27Z</time>
      </trkpt>
      <trkpt lat="45.05737" lon="6.25236">
        <ele>2213.2</ele>
        <time>2024-08-10T08:24:28Z</time>
      </trkpt>
      <trkpt lat="45.05737" lon="6.25236">
        <ele>2213</ele>
        <time>2024-08-10T08:24:29Z</time>
      </trkpt>
      <trkpt lat="45.05737" lon="6.25236">
        <ele>2212.6</ele>
        <time>2024-08-10T08:24:30Z</time>
      </trkpt>
      <trkpt lat="45.05737" lon="6.25236">
        <ele>2212.4</ele>
        <time>2024-08-10T08:24:31Z</time>
      </trkpt>
      <trkpt lat="45.05737" lon="6.25236">
        <ele>2212.4</ele>
        <time>2024-08-10T08:24:32Z</time>
      </trkpt>
      <trkpt lat="45.05737" lon="6.25236">
        <ele>2212.4</ele>
        <time>2024-08-10T08:24:33Z</time>
      </trkpt>
      <trkpt lat="45.05737" lon="6.25239">
        <ele>2212.2</ele>
        <time>2024-08-10T08:24:34Z</time>
      </trkpt>
      <trkpt lat="45.05737" lon="6.25239">
        <ele>2212</ele>
        <time>2024-08-10T08:24:35Z</time>
      </trkpt>
      <trkpt lat="45.05737" lon="6.25239">
        <ele>2212</ele>
        <time>2024-08-10T08:24:36Z</time>
      </trkpt>
      <trkpt lat="45.05737" lon="6.25239">
        <ele>2212</ele>
        <time>2024-08-10T08:24:37Z</time>
      </trkpt>
      <trkpt lat="45.05737" lon="6.25242">
        <ele>2212.2</ele>
        <time>2024-08-10T08:24:38Z</time>
      </trkpt>
      <trkpt lat="45.05737" lon="6.25242">
        <ele>2212.6</ele>
        <time>2024-08-10T08:24:39Z</time>
      </trkpt>
      <trkpt lat="45.05737" lon="6.25242">
        <ele>2212.6</ele>
        <time>2024-08-10T08:24:40Z</time>
      </trkpt>
      <trkpt lat="45.05737" lon="6.25242">
        <ele>2212.6</ele>
        <time>2024-08-10T08:24:41Z</time>
      </trkpt>
      <trkpt lat="45.05737" lon="6.25242">
        <ele>2212.6</ele>
        <time>2024-08-10T08:24:42Z</time>
      </trkpt>
      <trkpt lat="45.05737" lon="6.25242">
        <ele>2212.6</ele>
        <time>2024-08-10T08:24:43Z</time>
      </trkpt>
      <trkpt lat="45.05737" lon="6.25242">
        <ele>2213</ele>
        <time>2024-08-10T08:24:44Z</time>
      </trkpt>
      <trkpt lat="45.05737" lon="6.25242">
        <ele>2213.6</ele>
        <time>2024-08-10T08:24:45Z</time>
      </trkpt>
      <trkpt lat="45.05737" lon="6.25242">
        <ele>2213.6</ele>
        <time>2024-08-10T08:24:46Z</time>
      </trkpt>
      <trkpt lat="45.05737" lon="6.25242">
        <ele>2213.8</ele>
        <time>2024-08-10T08:24:47Z</time>
      </trkpt>
      <trkpt lat="45.05737" lon="6.25242">
        <ele>2213.8</ele>
        <time>2024-08-10T08:24:48Z</time>
      </trkpt>
      <trkpt lat="45.05735" lon="6.25243">
        <ele>2214.4</ele>
        <time>2024-08-10T08:24:49Z</time>
      </trkpt>
      <trkpt lat="45.05735" lon="6.25243">
        <ele>2214.4</ele>
        <time>2024-08-10T08:24:50Z</time>
      </trkpt>
      <trkpt lat="45.05733" lon="6.25245">
        <ele>2214.6</ele>
        <time>2024-08-10T08:24:51Z</time>
      </trkpt>
      <trkpt lat="45.05731" lon="6.25246">
        <ele>2215</ele>
        <time>2024-08-10T08:24:52Z</time>
      </trkpt>
      <trkpt lat="45.05731" lon="6.25246">
        <ele>2215.2</ele>
        <time>2024-08-10T08:24:53Z</time>
      </trkpt>
      <trkpt lat="45.05728" lon="6.25246">
        <ele>2215.2</ele>
        <time>2024-08-10T08:24:54Z</time>
      </trkpt>
      <trkpt lat="45.05728" lon="6.25246">
        <ele>2215.4</ele>
        <time>2024-08-10T08:24:55Z</time>
      </trkpt>
      <trkpt lat="45.05725" lon="6.25246">
        <ele>2215.4</ele>
        <time>2024-08-10T08:24:56Z</time>
      </trkpt>
      <trkpt lat="45.05725" lon="6.25246">
        <ele>2215.8</ele>
        <time>2024-08-10T08:24:57Z</time>
      </trkpt>
      <trkpt lat="45.05723" lon="6.25246">
        <ele>2215.8</ele>
        <time>2024-08-10T08:24:58Z</time>
      </trkpt>
      <trkpt lat="45.05723" lon="6.25246">
        <ele>2215.6</ele>
        <time>2024-08-10T08:24:59Z</time>
      </trkpt>
      <trkpt lat="45.05721" lon="6.25246">
        <ele>2215.2</ele>
        <time>2024-08-10T08:25:00Z</time>
      </trkpt>
      <trkpt lat="45.05721" lon="6.25246">
        <ele>2215.2</ele>
        <time>2024-08-10T08:25:01Z</time>
      </trkpt>
      <trkpt lat="45.05718" lon="6.25247">
        <ele>2215.2</ele>
        <time>2024-08-10T08:25:02Z</time>
      </trkpt>
      <trkpt lat="45.05718" lon="6.25247">
        <ele>2215.4</ele>
        <time>2024-08-10T08:25:03Z</time>
      </trkpt>
      <trkpt lat="45.05715" lon="6.25247">
        <ele>2215.4</ele>
        <time>2024-08-10T08:25:04Z</time>
      </trkpt>
      <trkpt lat="45.05715" lon="6.25247">
        <ele>2215.8</ele>
        <time>2024-08-10T08:25:05Z</time>
      </trkpt>
      <trkpt lat="45.05713" lon="6.25247">
        <ele>2215.8</ele>
        <time>2024-08-10T08:25:06Z</time>
      </trkpt>
      <trkpt lat="45.05713" lon="6.25247">
        <ele>2215.6</ele>
        <time>2024-08-10T08:25:07Z</time>
      </trkpt>
      <trkpt lat="45.05711" lon="6.25247">
        <ele>2215.6</ele>
        <time>2024-08-10T08:25:08Z</time>
      </trkpt>
      <trkpt lat="45.05711" lon="6.25247">
        <ele>2215.6</ele>
        <time>2024-08-10T08:25:09Z</time>
      </trkpt>
      <trkpt lat="45.05708" lon="6.25248">
        <ele>2215.6</ele>
        <time>2024-08-10T08:25:10Z</time>
      </trkpt>
      <trkpt lat="45.05708" lon="6.25248">
        <ele>2215.6</ele>
        <time>2024-08-10T08:25:11Z</time>
      </trkpt>
      <trkpt lat="45.05706" lon="6.25248">
        <ele>2215.8</ele>
        <time>2024-08-10T08:25:12Z</time>
      </trkpt>
      <trkpt lat="45.05706" lon="6.25248">
        <ele>2215.8</ele>
        <time>2024-08-10T08:25:13Z</time>
      </trkpt>
      <trkpt lat="45.05703" lon="6.25249">
        <ele>2215.8</ele>
        <time>2024-08-10T08:25:14Z</time>
      </trkpt>
      <trkpt lat="45.05703" lon="6.25249">
        <ele>2215.8</ele>
        <time>2024-08-10T08:25:15Z</time>
      </trkpt>
      <trkpt lat="45.05701" lon="6.25249">
        <ele>2215.8</ele>
        <time>2024-08-10T08:25:16Z</time>
      </trkpt>
      <trkpt lat="45.05701" lon="6.25249">
        <ele>2215.8</ele>
        <time>2024-08-10T08:25:17Z</time>
      </trkpt>
      <trkpt lat="45.05698" lon="6.2525">
        <ele>2216</ele>
        <time>2024-08-10T08:25:18Z</time>
      </trkpt>
      <trkpt lat="45.05698" lon="6.2525">
        <ele>2216.2</ele>
        <time>2024-08-10T08:25:19Z</time>
      </trkpt>
      <trkpt lat="45.05696" lon="6.25252">
        <ele>2216.2</ele>
        <time>2024-08-10T08:25:20Z</time>
      </trkpt>
      <trkpt lat="45.05696" lon="6.25252">
        <ele>2216.4</ele>
        <time>2024-08-10T08:25:21Z</time>
      </trkpt>
      <trkpt lat="45.05694" lon="6.25253">
        <ele>2216.4</ele>
        <time>2024-08-10T08:25:22Z</time>
      </trkpt>
      <trkpt lat="45.05694" lon="6.25253">
        <ele>2216.2</ele>
        <time>2024-08-10T08:25:23Z</time>
      </trkpt>
      <trkpt lat="45.05692" lon="6.25255">
        <ele>2216.2</ele>
        <time>2024-08-10T08:25:24Z</time>
      </trkpt>
      <trkpt lat="45.05692" lon="6.25255">
        <ele>2216.4</ele>
        <time>2024-08-10T08:25:25Z</time>
      </trkpt>
      <trkpt lat="45.05689" lon="6.25257">
        <ele>2216.6</ele>
        <time>2024-08-10T08:25:26Z</time>
      </trkpt>
      <trkpt lat="45.05689" lon="6.25257">
        <ele>2217</ele>
        <time>2024-08-10T08:25:27Z</time>
      </trkpt>
      <trkpt lat="45.05687" lon="6.25258">
        <ele>2217.2</ele>
        <time>2024-08-10T08:25:28Z</time>
      </trkpt>
      <trkpt lat="45.05687" lon="6.25258">
        <ele>2217.4</ele>
        <time>2024-08-10T08:25:29Z</time>
      </trkpt>
      <trkpt lat="45.05685" lon="6.2526">
        <ele>2217.4</ele>
        <time>2024-08-10T08:25:30Z</time>
      </trkpt>
      <trkpt lat="45.05685" lon="6.2526">
        <ele>2217.4</ele>
        <time>2024-08-10T08:25:31Z</time>
      </trkpt>
      <trkpt lat="45.05684" lon="6.25261">
        <ele>2217.4</ele>
        <time>2024-08-10T08:25:32Z</time>
      </trkpt>
      <trkpt lat="45.05684" lon="6.25261">
        <ele>2217.4</ele>
        <time>2024-08-10T08:25:33Z</time>
      </trkpt>
      <trkpt lat="45.05682" lon="6.25264">
        <ele>2217.6</ele>
        <time>2024-08-10T08:25:34Z</time>
      </trkpt>
      <trkpt lat="45.05682" lon="6.25264">
        <ele>2218</ele>
        <time>2024-08-10T08:25:35Z</time>
      </trkpt>
      <trkpt lat="45.05679" lon="6.25266">
        <ele>2218</ele>
        <time>2024-08-10T08:25:36Z</time>
      </trkpt>
      <trkpt lat="45.05679" lon="6.25266">
        <ele>2218.2</ele>
        <time>2024-08-10T08:25:37Z</time>
      </trkpt>
      <trkpt lat="45.05677" lon="6.25267">
        <ele>2218.2</ele>
        <time>2024-08-10T08:25:38Z</time>
      </trkpt>
      <trkpt lat="45.05677" lon="6.25267">
        <ele>2218.2</ele>
        <time>2024-08-10T08:25:39Z</time>
      </trkpt>
      <trkpt lat="45.05675" lon="6.25269">
        <ele>2218.4</ele>
        <time>2024-08-10T08:25:40Z</time>
      </trkpt>
      <trkpt lat="45.05675" lon="6.25269">
        <ele>2218.4</ele>
        <time>2024-08-10T08:25:41Z</time>
      </trkpt>
      <trkpt lat="45.05673" lon="6.25271">
        <ele>2218.6</ele>
        <time>2024-08-10T08:25:42Z</time>
      </trkpt>
      <trkpt lat="45.05673" lon="6.25271">
        <ele>2218.4</ele>
        <time>2024-08-10T08:25:43Z</time>
      </trkpt>
      <trkpt lat="45.0567" lon="6.25273">
        <ele>2218.6</ele>
        <time>2024-08-10T08:25:44Z</time>
      </trkpt>
      <trkpt lat="45.0567" lon="6.25273">
        <ele>2218.6</ele>
        <time>2024-08-10T08:25:45Z</time>
      </trkpt>
      <trkpt lat="45.05668" lon="6.25275">
        <ele>2218.6</ele>
        <time>2024-08-10T08:25:46Z</time>
      </trkpt>
      <trkpt lat="45.05668" lon="6.25275">
        <ele>2218.6</ele>
        <time>2024-08-10T08:25:47Z</time>
      </trkpt>
      <trkpt lat="45.05666" lon="6.25276">
        <ele>2218.6</ele>
        <time>2024-08-10T08:25:48Z</time>
      </trkpt>
      <trkpt lat="45.05666" lon="6.25276">
        <ele>2218.6</ele>
        <time>2024-08-10T08:25:49Z</time>
      </trkpt>
      <trkpt lat="45.05663" lon="6.25278">
        <ele>2218.8</ele>
        <time>2024-08-10T08:25:50Z</time>
      </trkpt>
      <trkpt lat="45.05663" lon="6.25278">
        <ele>2218.8</ele>
        <time>2024-08-10T08:25:51Z</time>
      </trkpt>
      <trkpt lat="45.05661" lon="6.2528">
        <ele>2218.6</ele>
        <time>2024-08-10T08:25:52Z</time>
      </trkpt>
      <trkpt lat="45.05661" lon="6.2528">
        <ele>2218.6</ele>
        <time>2024-08-10T08:25:53Z</time>
      </trkpt>
      <trkpt lat="45.05658" lon="6.25282">
        <ele>2218.6</ele>
        <time>2024-08-10T08:25:54Z</time>
      </trkpt>
      <trkpt lat="45.05658" lon="6.25282">
        <ele>2218.6</ele>
        <time>2024-08-10T08:25:55Z</time>
      </trkpt>
      <trkpt lat="45.05656" lon="6.25284">
        <ele>2218.8</ele>
        <time>2024-08-10T08:25:56Z</time>
      </trkpt>
      <trkpt lat="45.05656" lon="6.25284">
        <ele>2219</ele>
        <time>2024-08-10T08:25:57Z</time>
      </trkpt>
      <trkpt lat="45.05653" lon="6.25285">
        <ele>2219</ele>
        <time>2024-08-10T08:25:58Z</time>
      </trkpt>
      <trkpt lat="45.05653" lon="6.25285">
        <ele>2219</ele>
        <time>2024-08-10T08:25:59Z</time>
      </trkpt>
      <trkpt lat="45.05651" lon="6.25286">
        <ele>2219.2</ele>
        <time>2024-08-10T08:26:00Z</time>
      </trkpt>
      <trkpt lat="45.05651" lon="6.25286">
        <ele>2219.2</ele>
        <time>2024-08-10T08:26:01Z</time>
      </trkpt>
      <trkpt lat="45.05648" lon="6.25287">
        <ele>2219.2</ele>
        <time>2024-08-10T08:26:02Z</time>
      </trkpt>
      <trkpt lat="45.05648" lon="6.25287">
        <ele>2219.4</ele>
        <time>2024-08-10T08:26:03Z</time>
      </trkpt>
      <trkpt lat="45.05646" lon="6.25289">
        <ele>2219.4</ele>
        <time>2024-08-10T08:26:04Z</time>
      </trkpt>
      <trkpt lat="45.05646" lon="6.25289">
        <ele>2219.2</ele>
        <time>2024-08-10T08:26:05Z</time>
      </trkpt>
      <trkpt lat="45.05644" lon="6.25291">
        <ele>2219.2</ele>
        <time>2024-08-10T08:26:06Z</time>
      </trkpt>
      <trkpt lat="45.05644" lon="6.25291">
        <ele>2219.4</ele>
        <time>2024-08-10T08:26:07Z</time>
      </trkpt>
      <trkpt lat="45.05641" lon="6.25293">
        <ele>2219.4</ele>
        <time>2024-08-10T08:26:08Z</time>
      </trkpt>
      <trkpt lat="45.05641" lon="6.25293">
        <ele>2219.4</ele>
        <time>2024-08-10T08:26:09Z</time>
      </trkpt>
      <trkpt lat="45.05639" lon="6.25295">
        <ele>2219.6</ele>
        <time>2024-08-10T08:26:10Z</time>
      </trkpt>
      <trkpt lat="45.05639" lon="6.25295">
        <ele>2219.6</ele>
        <time>2024-08-10T08:26:11Z</time>
      </trkpt>
      <trkpt lat="45.05637" lon="6.25296">
        <ele>2219.6</ele>
        <time>2024-08-10T08:26:12Z</time>
      </trkpt>
      <trkpt lat="45.05637" lon="6.25296">
        <ele>2219.6</ele>
        <time>2024-08-10T08:26:13Z</time>
      </trkpt>
      <trkpt lat="45.05634" lon="6.25298">
        <ele>2219.6</ele>
        <time>2024-08-10T08:26:14Z</time>
      </trkpt>
      <trkpt lat="45.05634" lon="6.25298">
        <ele>2219.8</ele>
        <time>2024-08-10T08:26:15Z</time>
      </trkpt>
      <trkpt lat="45.05632" lon="6.253">
        <ele>2220</ele>
        <time>2024-08-10T08:26:16Z</time>
      </trkpt>
      <trkpt lat="45.05632" lon="6.253">
        <ele>2220</ele>
        <time>2024-08-10T08:26:17Z</time>
      </trkpt>
      <trkpt lat="45.05629" lon="6.25302">
        <ele>2219.8</ele>
        <time>2024-08-10T08:26:18Z</time>
      </trkpt>
      <trkpt lat="45.05629" lon="6.25302">
        <ele>2219.6</ele>
        <time>2024-08-10T08:26:19Z</time>
      </trkpt>
      <trkpt lat="45.05627" lon="6.25304">
        <ele>2219.8</ele>
        <time>2024-08-10T08:26:20Z</time>
      </trkpt>
      <trkpt lat="45.05627" lon="6.25304">
        <ele>2219.8</ele>
        <time>2024-08-10T08:26:21Z</time>
      </trkpt>
      <trkpt lat="45.05624" lon="6.25306">
        <ele>2219.8</ele>
        <time>2024-08-10T08:26:22Z</time>
      </trkpt>
      <trkpt lat="45.05624" lon="6.25306">
        <ele>2219.8</ele>
        <time>2024-08-10T08:26:23Z</time>
      </trkpt>
      <trkpt lat="45.05622" lon="6.25308">
        <ele>2219.6</ele>
        <time>2024-08-10T08:26:24Z</time>
      </trkpt>
      <trkpt lat="45.05622" lon="6.25308">
        <ele>2219.6</ele>
        <time>2024-08-10T08:26:25Z</time>
      </trkpt>
      <trkpt lat="45.0562" lon="6.25311">
        <ele>2219.6</ele>
        <time>2024-08-10T08:26:26Z</time>
      </trkpt>
      <trkpt lat="45.0562" lon="6.25311">
        <ele>2219.4</ele>
        <time>2024-08-10T08:26:27Z</time>
      </trkpt>
      <trkpt lat="45.05618" lon="6.25313">
        <ele>2219.4</ele>
        <time>2024-08-10T08:26:28Z</time>
      </trkpt>
      <trkpt lat="45.05618" lon="6.25313">
        <ele>2219.2</ele>
        <time>2024-08-10T08:26:29Z</time>
      </trkpt>
      <trkpt lat="45.05615" lon="6.25315">
        <ele>2219.4</ele>
        <time>2024-08-10T08:26:30Z</time>
      </trkpt>
      <trkpt lat="45.05615" lon="6.25315">
        <ele>2219.2</ele>
        <time>2024-08-10T08:26:31Z</time>
      </trkpt>
      <trkpt lat="45.05613" lon="6.25318">
        <ele>2219.2</ele>
        <time>2024-08-10T08:26:32Z</time>
      </trkpt>
      <trkpt lat="45.05613" lon="6.25318">
        <ele>2218.8</ele>
        <time>2024-08-10T08:26:33Z</time>
      </trkpt>
      <trkpt lat="45.0561" lon="6.25319">
        <ele>2218.8</ele>
        <time>2024-08-10T08:26:34Z</time>
      </trkpt>
      <trkpt lat="45.0561" lon="6.25319">
        <ele>2218.8</ele>
        <time>2024-08-10T08:26:35Z</time>
      </trkpt>
      <trkpt lat="45.05607" lon="6.2532">
        <ele>2218.8</ele>
        <time>2024-08-10T08:26:36Z</time>
      </trkpt>
      <trkpt lat="45.05607" lon="6.2532">
        <ele>2218.8</ele>
        <time>2024-08-10T08:26:37Z</time>
      </trkpt>
      <trkpt lat="45.05605" lon="6.2532">
        <ele>2218.6</ele>
        <time>2024-08-10T08:26:38Z</time>
      </trkpt>
      <trkpt lat="45.05605" lon="6.2532">
        <ele>2218.6</ele>
        <time>2024-08-10T08:26:39Z</time>
      </trkpt>
      <trkpt lat="45.05602" lon="6.25322">
        <ele>2218.8</ele>
        <time>2024-08-10T08:26:40Z</time>
      </trkpt>
      <trkpt lat="45.05602" lon="6.25322">
        <ele>2219</ele>
        <time>2024-08-10T08:26:41Z</time>
      </trkpt>
      <trkpt lat="45.056" lon="6.25324">
        <ele>2219</ele>
        <time>2024-08-10T08:26:42Z</time>
      </trkpt>
      <trkpt lat="45.056" lon="6.25324">
        <ele>2219.2</ele>
        <time>2024-08-10T08:26:43Z</time>
      </trkpt>
      <trkpt lat="45.05597" lon="6.25325">
        <ele>2219.4</ele>
        <time>2024-08-10T08:26:44Z</time>
      </trkpt>
      <trkpt lat="45.05597" lon="6.25325">
        <ele>2219.4</ele>
        <time>2024-08-10T08:26:45Z</time>
      </trkpt>
      <trkpt lat="45.05594" lon="6.25327">
        <ele>2219.6</ele>
        <time>2024-08-10T08:26:46Z</time>
      </trkpt>
      <trkpt lat="45.05594" lon="6.25327">
        <ele>2219.6</ele>
        <time>2024-08-10T08:26:47Z</time>
      </trkpt>
      <trkpt lat="45.05592" lon="6.25329">
        <ele>2219.2</ele>
        <time>2024-08-10T08:26:48Z</time>
      </trkpt>
      <trkpt lat="45.05592" lon="6.25329">
        <ele>2219</ele>
        <time>2024-08-10T08:26:49Z</time>
      </trkpt>
      <trkpt lat="45.05589" lon="6.25331">
        <ele>2219</ele>
        <time>2024-08-10T08:26:50Z</time>
      </trkpt>
      <trkpt lat="45.05589" lon="6.25331">
        <ele>2219</ele>
        <time>2024-08-10T08:26:51Z</time>
      </trkpt>
      <trkpt lat="45.05587" lon="6.25334">
        <ele>2219</ele>
        <time>2024-08-10T08:26:52Z</time>
      </trkpt>
      <trkpt lat="45.05587" lon="6.25334">
        <ele>2218.8</ele>
        <time>2024-08-10T08:26:53Z</time>
      </trkpt>
      <trkpt lat="45.05585" lon="6.25336">
        <ele>2218.8</ele>
        <time>2024-08-10T08:26:54Z</time>
      </trkpt>
      <trkpt lat="45.05585" lon="6.25336">
        <ele>2218.8</ele>
        <time>2024-08-10T08:26:55Z</time>
      </trkpt>
      <trkpt lat="45.05583" lon="6.25339">
        <ele>2218.6</ele>
        <time>2024-08-10T08:26:56Z</time>
      </trkpt>
      <trkpt lat="45.05583" lon="6.25339">
        <ele>2218.6</ele>
        <time>2024-08-10T08:26:57Z</time>
      </trkpt>
      <trkpt lat="45.05581" lon="6.25342">
        <ele>2218.6</ele>
        <time>2024-08-10T08:26:58Z</time>
      </trkpt>
      <trkpt lat="45.05581" lon="6.25342">
        <ele>2218.6</ele>
        <time>2024-08-10T08:26:59Z</time>
      </trkpt>
      <trkpt lat="45.05578" lon="6.25343">
        <ele>2218.4</ele>
        <time>2024-08-10T08:27:00Z</time>
      </trkpt>
      <trkpt lat="45.05578" lon="6.25343">
        <ele>2218.4</ele>
        <time>2024-08-10T08:27:01Z</time>
      </trkpt>
      <trkpt lat="45.05575" lon="6.25345">
        <ele>2218.2</ele>
        <time>2024-08-10T08:27:02Z</time>
      </trkpt>
      <trkpt lat="45.05575" lon="6.25345">
        <ele>2218.4</ele>
        <time>2024-08-10T08:27:03Z</time>
      </trkpt>
      <trkpt lat="45.05573" lon="6.25347">
        <ele>2218.4</ele>
        <time>2024-08-10T08:27:04Z</time>
      </trkpt>
      <trkpt lat="45.05573" lon="6.25347">
        <ele>2218.2</ele>
        <time>2024-08-10T08:27:05Z</time>
      </trkpt>
      <trkpt lat="45.0557" lon="6.25349">
        <ele>2218</ele>
        <time>2024-08-10T08:27:06Z</time>
      </trkpt>
      <trkpt lat="45.0557" lon="6.25349">
        <ele>2218</ele>
        <time>2024-08-10T08:27:07Z</time>
      </trkpt>
      <trkpt lat="45.05568" lon="6.25351">
        <ele>2218</ele>
        <time>2024-08-10T08:27:08Z</time>
      </trkpt>
      <trkpt lat="45.05568" lon="6.25351">
        <ele>2218</ele>
        <time>2024-08-10T08:27:09Z</time>
      </trkpt>
      <trkpt lat="45.05565" lon="6.25353">
        <ele>2218</ele>
        <time>2024-08-10T08:27:10Z</time>
      </trkpt>
      <trkpt lat="45.05565" lon="6.25353">
        <ele>2217.8</ele>
        <time>2024-08-10T08:27:11Z</time>
      </trkpt>
      <trkpt lat="45.05563" lon="6.25356">
        <ele>2217.6</ele>
        <time>2024-08-10T08:27:12Z</time>
      </trkpt>
      <trkpt lat="45.05563" lon="6.25356">
        <ele>2217.4</ele>
        <time>2024-08-10T08:27:13Z</time>
      </trkpt>
      <trkpt lat="45.05561" lon="6.25359">
        <ele>2217.4</ele>
        <time>2024-08-10T08:27:14Z</time>
      </trkpt>
      <trkpt lat="45.05561" lon="6.25359">
        <ele>2217.4</ele>
        <time>2024-08-10T08:27:15Z</time>
      </trkpt>
      <trkpt lat="45.05558" lon="6.25362">
        <ele>2217.4</ele>
        <time>2024-08-10T08:27:16Z</time>
      </trkpt>
      <trkpt lat="45.05558" lon="6.25362">
        <ele>2217.2</ele>
        <time>2024-08-10T08:27:17Z</time>
      </trkpt>
      <trkpt lat="45.05556" lon="6.25364">
        <ele>2217</ele>
        <time>2024-08-10T08:27:18Z</time>
      </trkpt>
      <trkpt lat="45.05556" lon="6.25364">
        <ele>2216.8</ele>
        <time>2024-08-10T08:27:19Z</time>
      </trkpt>
      <trkpt lat="45.05554" lon="6.25366">
        <ele>2216.8</ele>
        <time>2024-08-10T08:27:20Z</time>
      </trkpt>
      <trkpt lat="45.05554" lon="6.25366">
        <ele>2216.8</ele>
        <time>2024-08-10T08:27:21Z</time>
      </trkpt>
      <trkpt lat="45.05552" lon="6.25368">
        <ele>2216.8</ele>
        <time>2024-08-10T08:27:22Z</time>
      </trkpt>
      <trkpt lat="45.05552" lon="6.25368">
        <ele>2216.8</ele>
        <time>2024-08-10T08:27:23Z</time>
      </trkpt>
      <trkpt lat="45.0555" lon="6.2537">
        <ele>2216.8</ele>
        <time>2024-08-10T08:27:24Z</time>
      </trkpt>
      <trkpt lat="45.0555" lon="6.2537">
        <ele>2217</ele>
        <time>2024-08-10T08:27:25Z</time>
      </trkpt>
      <trkpt lat="45.05548" lon="6.25371">
        <ele>2217</ele>
        <time>2024-08-10T08:27:26Z</time>
      </trkpt>
      <trkpt lat="45.05548" lon="6.25371">
        <ele>2217.2</ele>
        <time>2024-08-10T08:27:27Z</time>
      </trkpt>
      <trkpt lat="45.05545" lon="6.25372">
        <ele>2217.2</ele>
        <time>2024-08-10T08:27:28Z</time>
      </trkpt>
      <trkpt lat="45.05545" lon="6.25372">
        <ele>2217.2</ele>
        <time>2024-08-10T08:27:29Z</time>
      </trkpt>
      <trkpt lat="45.05543" lon="6.25372">
        <ele>2217.4</ele>
        <time>2024-08-10T08:27:30Z</time>
      </trkpt>
      <trkpt lat="45.05543" lon="6.25372">
        <ele>2217.4</ele>
        <time>2024-08-10T08:27:31Z</time>
      </trkpt>
      <trkpt lat="45.05541" lon="6.25373">
        <ele>2217.6</ele>
        <time>2024-08-10T08:27:32Z</time>
      </trkpt>
      <trkpt lat="45.05541" lon="6.25373">
        <ele>2217.6</ele>
        <time>2024-08-10T08:27:33Z</time>
      </trkpt>
      <trkpt lat="45.05539" lon="6.25374">
        <ele>2217.8</ele>
        <time>2024-08-10T08:27:34Z</time>
      </trkpt>
      <trkpt lat="45.05539" lon="6.25374">
        <ele>2218.4</ele>
        <time>2024-08-10T08:27:35Z</time>
      </trkpt>
      <trkpt lat="45.05537" lon="6.25376">
        <ele>2218.4</ele>
        <time>2024-08-10T08:27:36Z</time>
      </trkpt>
      <trkpt lat="45.05537" lon="6.25376">
        <ele>2218.6</ele>
        <time>2024-08-10T08:27:37Z</time>
      </trkpt>
      <trkpt lat="45.05534" lon="6.25377">
        <ele>2218.6</ele>
        <time>2024-08-10T08:27:38Z</time>
      </trkpt>
      <trkpt lat="45.05534" lon="6.25377">
        <ele>2219</ele>
        <time>2024-08-10T08:27:39Z</time>
      </trkpt>
      <trkpt lat="45.05533" lon="6.25378">
        <ele>2219.2</ele>
        <time>2024-08-10T08:27:40Z</time>
      </trkpt>
      <trkpt lat="45.05533" lon="6.25378">
        <ele>2219.2</ele>
        <time>2024-08-10T08:27:41Z</time>
      </trkpt>
      <trkpt lat="45.0553" lon="6.25378">
        <ele>2219.6</ele>
        <time>2024-08-10T08:27:42Z</time>
      </trkpt>
      <trkpt lat="45.0553" lon="6.25378">
        <ele>2219.8</ele>
        <time>2024-08-10T08:27:43Z</time>
      </trkpt>
      <trkpt lat="45.05528" lon="6.2538">
        <ele>2219.8</ele>
        <time>2024-08-10T08:27:44Z</time>
      </trkpt>
      <trkpt lat="45.05528" lon="6.2538">
        <ele>2220</ele>
        <time>2024-08-10T08:27:45Z</time>
      </trkpt>
      <trkpt lat="45.05525" lon="6.25381">
        <ele>2220</ele>
        <time>2024-08-10T08:27:46Z</time>
      </trkpt>
      <trkpt lat="45.05525" lon="6.25381">
        <ele>2220</ele>
        <time>2024-08-10T08:27:47Z</time>
      </trkpt>
      <trkpt lat="45.05523" lon="6.25384">
        <ele>2220.2</ele>
        <time>2024-08-10T08:27:48Z</time>
      </trkpt>
      <trkpt lat="45.05523" lon="6.25384">
        <ele>2220.4</ele>
        <time>2024-08-10T08:27:49Z</time>
      </trkpt>
      <trkpt lat="45.05521" lon="6.25386">
        <ele>2220.6</ele>
        <time>2024-08-10T08:27:50Z</time>
      </trkpt>
      <trkpt lat="45.05521" lon="6.25386">
        <ele>2220.6</ele>
        <time>2024-08-10T08:27:51Z</time>
      </trkpt>
      <trkpt lat="45.05519" lon="6.25389">
        <ele>2220.6</ele>
        <time>2024-08-10T08:27:52Z</time>
      </trkpt>
      <trkpt lat="45.05519" lon="6.25389">
        <ele>2220.6</ele>
        <time>2024-08-10T08:27:53Z</time>
      </trkpt>
      <trkpt lat="45.05517" lon="6.25391">
        <ele>2220.6</ele>
        <time>2024-08-10T08:27:54Z</time>
      </trkpt>
      <trkpt lat="45.05517" lon="6.25391">
        <ele>2220.6</ele>
        <time>2024-08-10T08:27:55Z</time>
      </trkpt>
      <trkpt lat="45.05516" lon="6.25394">
        <ele>2220.4</ele>
        <time>2024-08-10T08:27:56Z</time>
      </trkpt>
      <trkpt lat="45.05516" lon="6.25394">
        <ele>2220.2</ele>
        <time>2024-08-10T08:27:57Z</time>
      </trkpt>
      <trkpt lat="45.05513" lon="6.25396">
        <ele>2220.2</ele>
        <time>2024-08-10T08:27:58Z</time>
      </trkpt>
      <trkpt lat="45.05513" lon="6.25396">
        <ele>2220.2</ele>
        <time>2024-08-10T08:27:59Z</time>
      </trkpt>
      <trkpt lat="45.05511" lon="6.25396">
        <ele>2220</ele>
        <time>2024-08-10T08:28:00Z</time>
      </trkpt>
      <trkpt lat="45.05511" lon="6.25396">
        <ele>2219.8</ele>
        <time>2024-08-10T08:28:01Z</time>
      </trkpt>
      <trkpt lat="45.05509" lon="6.25396">
        <ele>2219.8</ele>
        <time>2024-08-10T08:28:02Z</time>
      </trkpt>
      <trkpt lat="45.05509" lon="6.25396">
        <ele>2220</ele>
        <time>2024-08-10T08:28:03Z</time>
      </trkpt>
      <trkpt lat="45.05506" lon="6.25396">
        <ele>2220</ele>
        <time>2024-08-10T08:28:04Z</time>
      </trkpt>
      <trkpt lat="45.05506" lon="6.25396">
        <ele>2219.8</ele>
        <time>2024-08-10T08:28:05Z</time>
      </trkpt>
      <trkpt lat="45.05504" lon="6.25396">
        <ele>2219.8</ele>
        <time>2024-08-10T08:28:06Z</time>
      </trkpt>
      <trkpt lat="45.05504" lon="6.25396">
        <ele>2219.8</ele>
        <time>2024-08-10T08:28:07Z</time>
      </trkpt>
      <trkpt lat="45.05501" lon="6.25396">
        <ele>2220</ele>
        <time>2024-08-10T08:28:08Z</time>
      </trkpt>
      <trkpt lat="45.05501" lon="6.25396">
        <ele>2220.2</ele>
        <time>2024-08-10T08:28:09Z</time>
      </trkpt>
      <trkpt lat="45.05499" lon="6.25396">
        <ele>2220.4</ele>
        <time>2024-08-10T08:28:10Z</time>
      </trkpt>
      <trkpt lat="45.05499" lon="6.25396">
        <ele>2220.4</ele>
        <time>2024-08-10T08:28:11Z</time>
      </trkpt>
      <trkpt lat="45.05497" lon="6.25396">
        <ele>2220.4</ele>
        <time>2024-08-10T08:28:12Z</time>
      </trkpt>
      <trkpt lat="45.05497" lon="6.25396">
        <ele>2220.6</ele>
        <time>2024-08-10T08:28:13Z</time>
      </trkpt>
      <trkpt lat="45.05494" lon="6.25397">
        <ele>2220.8</ele>
        <time>2024-08-10T08:28:14Z</time>
      </trkpt>
      <trkpt lat="45.05494" lon="6.25397">
        <ele>2221</ele>
        <time>2024-08-10T08:28:15Z</time>
      </trkpt>
      <trkpt lat="45.05491" lon="6.25398">
        <ele>2221</ele>
        <time>2024-08-10T08:28:16Z</time>
      </trkpt>
      <trkpt lat="45.05491" lon="6.25398">
        <ele>2220.8</ele>
        <time>2024-08-10T08:28:17Z</time>
      </trkpt>
      <trkpt lat="45.05489" lon="6.25399">
        <ele>2220.4</ele>
        <time>2024-08-10T08:28:18Z</time>
      </trkpt>
      <trkpt lat="45.05489" lon="6.25399">
        <ele>2220.2</ele>
        <time>2024-08-10T08:28:19Z</time>
      </trkpt>
      <trkpt lat="45.05486" lon="6.254">
        <ele>2220.2</ele>
        <time>2024-08-10T08:28:20Z</time>
      </trkpt>
      <trkpt lat="45.05486" lon="6.254">
        <ele>2220.2</ele>
        <time>2024-08-10T08:28:21Z</time>
      </trkpt>
      <trkpt lat="45.05484" lon="6.254">
        <ele>2220.4</ele>
        <time>2024-08-10T08:28:22Z</time>
      </trkpt>
      <trkpt lat="45.05484" lon="6.254">
        <ele>2220.8</ele>
        <time>2024-08-10T08:28:23Z</time>
      </trkpt>
      <trkpt lat="45.05481" lon="6.25401">
        <ele>2220.8</ele>
        <time>2024-08-10T08:28:24Z</time>
      </trkpt>
      <trkpt lat="45.05481" lon="6.25401">
        <ele>2220.8</ele>
        <time>2024-08-10T08:28:25Z</time>
      </trkpt>
      <trkpt lat="45.05479" lon="6.25402">
        <ele>2220.8</ele>
        <time>2024-08-10T08:28:26Z</time>
      </trkpt>
      <trkpt lat="45.05479" lon="6.25402">
        <ele>2220.8</ele>
        <time>2024-08-10T08:28:27Z</time>
      </trkpt>
      <trkpt lat="45.05476" lon="6.25403">
        <ele>2220.8</ele>
        <time>2024-08-10T08:28:28Z</time>
      </trkpt>
      <trkpt lat="45.05476" lon="6.25403">
        <ele>2220.6</ele>
        <time>2024-08-10T08:28:29Z</time>
      </trkpt>
      <trkpt lat="45.05473" lon="6.25404">
        <ele>2220.4</ele>
        <time>2024-08-10T08:28:30Z</time>
      </trkpt>
      <trkpt lat="45.05473" lon="6.25404">
        <ele>2220.4</ele>
        <time>2024-08-10T08:28:31Z</time>
      </trkpt>
      <trkpt lat="45.05471" lon="6.25406">
        <ele>2220.4</ele>
        <time>2024-08-10T08:28:32Z</time>
      </trkpt>
      <trkpt lat="45.05471" lon="6.25406">
        <ele>2220.6</ele>
        <time>2024-08-10T08:28:33Z</time>
      </trkpt>
      <trkpt lat="45.05469" lon="6.25408">
        <ele>2220.6</ele>
        <time>2024-08-10T08:28:34Z</time>
      </trkpt>
      <trkpt lat="45.05469" lon="6.25408">
        <ele>2220.6</ele>
        <time>2024-08-10T08:28:35Z</time>
      </trkpt>
      <trkpt lat="45.05466" lon="6.25408">
        <ele>2220.4</ele>
        <time>2024-08-10T08:28:36Z</time>
      </trkpt>
      <trkpt lat="45.05466" lon="6.25408">
        <ele>2220.2</ele>
        <time>2024-08-10T08:28:37Z</time>
      </trkpt>
      <trkpt lat="45.05464" lon="6.25409">
        <ele>2220</ele>
        <time>2024-08-10T08:28:38Z</time>
      </trkpt>
      <trkpt lat="45.05464" lon="6.25409">
        <ele>2220</ele>
        <time>2024-08-10T08:28:39Z</time>
      </trkpt>
      <trkpt lat="45.05461" lon="6.2541">
        <ele>2219.8</ele>
        <time>2024-08-10T08:28:40Z</time>
      </trkpt>
      <trkpt lat="45.05461" lon="6.2541">
        <ele>2219.8</ele>
        <time>2024-08-10T08:28:41Z</time>
      </trkpt>
      <trkpt lat="45.05459" lon="6.25411">
        <ele>2219.8</ele>
        <time>2024-08-10T08:28:42Z</time>
      </trkpt>
      <trkpt lat="45.05459" lon="6.25411">
        <ele>2220</ele>
        <time>2024-08-10T08:28:43Z</time>
      </trkpt>
      <trkpt lat="45.05459" lon="6.25411">
        <ele>2220</ele>
        <time>2024-08-10T08:28:44Z</time>
      </trkpt>
      <trkpt lat="45.05459" lon="6.25411">
        <ele>2220</ele>
        <time>2024-08-10T08:28:45Z</time>
      </trkpt>
      <trkpt lat="45.05459" lon="6.25411">
        <ele>2220</ele>
        <time>2024-08-10T08:28:46Z</time>
      </trkpt>
      <trkpt lat="45.05459" lon="6.25411">
        <ele>2220.2</ele>
        <time>2024-08-10T08:28:47Z</time>
      </trkpt>
      <trkpt lat="45.05459" lon="6.25411">
        <ele>2220.6</ele>
        <time>2024-08-10T08:28:48Z</time>
      </trkpt>
      <trkpt lat="45.05459" lon="6.25411">
        <ele>2220.6</ele>
        <time>2024-08-10T08:28:49Z</time>
      </trkpt>
      <trkpt lat="45.05457" lon="6.25412">
        <ele>2220.6</ele>
        <time>2024-08-10T08:28:50Z</time>
      </trkpt>
      <trkpt lat="45.05457" lon="6.25412">
        <ele>2220.6</ele>
        <time>2024-08-10T08:28:51Z</time>
      </trkpt>
      <trkpt lat="45.05455" lon="6.25412">
        <ele>2220.8</ele>
        <time>2024-08-10T08:28:52Z</time>
      </trkpt>
      <trkpt lat="45.05455" lon="6.25412">
        <ele>2220.8</ele>
        <time>2024-08-10T08:28:53Z</time>
      </trkpt>
      <trkpt lat="45.05453" lon="6.25413">
        <ele>2220.8</ele>
        <time>2024-08-10T08:28:54Z</time>
      </trkpt>
      <trkpt lat="45.05453" lon="6.25413">
        <ele>2220.8</ele>
        <time>2024-08-10T08:28:55Z</time>
      </trkpt>
      <trkpt lat="45.05453" lon="6.25413">
        <ele>2221.2</ele>
        <time>2024-08-10T08:28:56Z</time>
      </trkpt>
      <trkpt lat="45.05451" lon="6.25415">
        <ele>2221.4</ele>
        <time>2024-08-10T08:28:57Z</time>
      </trkpt>
      <trkpt lat="45.05451" lon="6.25415">
        <ele>2221.4</ele>
        <time>2024-08-10T08:28:58Z</time>
      </trkpt>
      <trkpt lat="45.05451" lon="6.25415">
        <ele>2221.6</ele>
        <time>2024-08-10T08:28:59Z</time>
      </trkpt>
      <trkpt lat="45.05449" lon="6.25417">
        <ele>2221.8</ele>
        <time>2024-08-10T08:29:00Z</time>
      </trkpt>
      <trkpt lat="45.05449" lon="6.25417">
        <ele>2222</ele>
        <time>2024-08-10T08:29:01Z</time>
      </trkpt>
      <trkpt lat="45.05447" lon="6.25417">
        <ele>2222.2</ele>
        <time>2024-08-10T08:29:02Z</time>
      </trkpt>
      <trkpt lat="45.05447" lon="6.25417">
        <ele>2222.8</ele>
        <time>2024-08-10T08:29:03Z</time>
      </trkpt>
      <trkpt lat="45.05445" lon="6.25418">
        <ele>2222.8</ele>
        <time>2024-08-10T08:29:04Z</time>
      </trkpt>
      <trkpt lat="45.05445" lon="6.25418">
        <ele>2222.8</ele>
        <time>2024-08-10T08:29:05Z</time>
      </trkpt>
      <trkpt lat="45.05445" lon="6.25418">
        <ele>2222.8</ele>
        <time>2024-08-10T08:29:06Z</time>
      </trkpt>
      <trkpt lat="45.05443" lon="6.25418">
        <ele>2222.8</ele>
        <time>2024-08-10T08:29:07Z</time>
      </trkpt>
      <trkpt lat="45.05443" lon="6.25418">
        <ele>2223</ele>
        <time>2024-08-10T08:29:08Z</time>
      </trkpt>
      <trkpt lat="45.05441" lon="6.25419">
        <ele>2223.2</ele>
        <time>2024-08-10T08:29:09Z</time>
      </trkpt>
      <trkpt lat="45.05441" lon="6.25419">
        <ele>2223.8</ele>
        <time>2024-08-10T08:29:10Z</time>
      </trkpt>
      <trkpt lat="45.05441" lon="6.25419">
        <ele>2223.8</ele>
        <time>2024-08-10T08:29:11Z</time>
      </trkpt>
      <trkpt lat="45.05438" lon="6.2542">
        <ele>2224</ele>
        <time>2024-08-10T08:29:12Z</time>
      </trkpt>
      <trkpt lat="45.05438" lon="6.2542">
        <ele>2224.2</ele>
        <time>2024-08-10T08:29:13Z</time>
      </trkpt>
      <trkpt lat="45.05437" lon="6.25422">
        <ele>2224.4</ele>
        <time>2024-08-10T08:29:14Z</time>
      </trkpt>
      <trkpt lat="45.05437" lon="6.25422">
        <ele>2224.4</ele>
        <time>2024-08-10T08:29:15Z</time>
      </trkpt>
      <trkpt lat="45.05435" lon="6.25423">
        <ele>2224.4</ele>
        <time>2024-08-10T08:29:16Z</time>
      </trkpt>
      <trkpt lat="45.05435" lon="6.25423">
        <ele>2224.4</ele>
        <time>2024-08-10T08:29:17Z</time>
      </trkpt>
      <trkpt lat="45.05433" lon="6.25424">
        <ele>2225</ele>
        <time>2024-08-10T08:29:18Z</time>
      </trkpt>
      <trkpt lat="45.05433" lon="6.25424">
        <ele>2225</ele>
        <time>2024-08-10T08:29:19Z</time>
      </trkpt>
      <trkpt lat="45.05431" lon="6.25425">
        <ele>2224.8</ele>
        <time>2024-08-10T08:29:20Z</time>
      </trkpt>
      <trkpt lat="45.05431" lon="6.25425">
        <ele>2224.8</ele>
        <time>2024-08-10T08:29:21Z</time>
      </trkpt>
      <trkpt lat="45.05428" lon="6.25425">
        <ele>2225</ele>
        <time>2024-08-10T08:29:22Z</time>
      </trkpt>
      <trkpt lat="45.05428" lon="6.25425">
        <ele>2225</ele>
        <time>2024-08-10T08:29:23Z</time>
      </trkpt>
      <trkpt lat="45.05428" lon="6.25425">
        <ele>2225.2</ele>
        <time>2024-08-10T08:29:24Z</time>
      </trkpt>
      <trkpt lat="45.05426" lon="6.25427">
        <ele>2225.2</ele>
        <time>2024-08-10T08:29:25Z</time>
      </trkpt>
      <trkpt lat="45.05426" lon="6.25427">
        <ele>2225.4</ele>
        <time>2024-08-10T08:29:26Z</time>
      </trkpt>
      <trkpt lat="45.05423" lon="6.25428">
        <ele>2225.4</ele>
        <time>2024-08-10T08:29:27Z</time>
      </trkpt>
      <trkpt lat="45.05423" lon="6.25428">
        <ele>2225.6</ele>
        <time>2024-08-10T08:29:28Z</time>
      </trkpt>
      <trkpt lat="45.05421" lon="6.25429">
        <ele>2225.6</ele>
        <time>2024-08-10T08:29:29Z</time>
      </trkpt>
      <trkpt lat="45.05421" lon="6.25429">
        <ele>2226</ele>
        <time>2024-08-10T08:29:30Z</time>
      </trkpt>
      <trkpt lat="45.05419" lon="6.25428">
        <ele>2226</ele>
        <time>2024-08-10T08:29:31Z</time>
      </trkpt>
      <trkpt lat="45.05419" lon="6.25428">
        <ele>2225.8</ele>
        <time>2024-08-10T08:29:32Z</time>
      </trkpt>
      <trkpt lat="45.05417" lon="6.25427">
        <ele>2225.8</ele>
        <time>2024-08-10T08:29:33Z</time>
      </trkpt>
      <trkpt lat="45.05417" lon="6.25427">
        <ele>2225.8</ele>
        <time>2024-08-10T08:29:34Z</time>
      </trkpt>
      <trkpt lat="45.05415" lon="6.25426">
        <ele>2226</ele>
        <time>2024-08-10T08:29:35Z</time>
      </trkpt>
      <trkpt lat="45.05415" lon="6.25426">
        <ele>2226</ele>
        <time>2024-08-10T08:29:36Z</time>
      </trkpt>
      <trkpt lat="45.05413" lon="6.25426">
        <ele>2226</ele>
        <time>2024-08-10T08:29:37Z</time>
      </trkpt>
      <trkpt lat="45.05413" lon="6.25426">
        <ele>2226.2</ele>
        <time>2024-08-10T08:29:38Z</time>
      </trkpt>
      <trkpt lat="45.0541" lon="6.25426">
        <ele>2226.4</ele>
        <time>2024-08-10T08:29:39Z</time>
      </trkpt>
      <trkpt lat="45.0541" lon="6.25426">
        <ele>2226.6</ele>
        <time>2024-08-10T08:29:40Z</time>
      </trkpt>
      <trkpt lat="45.05408" lon="6.25427">
        <ele>2226.8</ele>
        <time>2024-08-10T08:29:41Z</time>
      </trkpt>
      <trkpt lat="45.05408" lon="6.25427">
        <ele>2227</ele>
        <time>2024-08-10T08:29:42Z</time>
      </trkpt>
      <trkpt lat="45.05406" lon="6.25428">
        <ele>2227</ele>
        <time>2024-08-10T08:29:43Z</time>
      </trkpt>
      <trkpt lat="45.05406" lon="6.25428">
        <ele>2226.8</ele>
        <time>2024-08-10T08:29:44Z</time>
      </trkpt>
      <trkpt lat="45.05404" lon="6.25429">
        <ele>2226.8</ele>
        <time>2024-08-10T08:29:45Z</time>
      </trkpt>
      <trkpt lat="45.05404" lon="6.25429">
        <ele>2227.2</ele>
        <time>2024-08-10T08:29:46Z</time>
      </trkpt>
      <trkpt lat="45.05402" lon="6.25431">
        <ele>2227.2</ele>
        <time>2024-08-10T08:29:47Z</time>
      </trkpt>
      <trkpt lat="45.05402" lon="6.25431">
        <ele>2227.2</ele>
        <time>2024-08-10T08:29:48Z</time>
      </trkpt>
      <trkpt lat="45.05399" lon="6.25432">
        <ele>2227.4</ele>
        <time>2024-08-10T08:29:49Z</time>
      </trkpt>
      <trkpt lat="45.05399" lon="6.25432">
        <ele>2228</ele>
        <time>2024-08-10T08:29:50Z</time>
      </trkpt>
      <trkpt lat="45.05398" lon="6.25433">
        <ele>2228.2</ele>
        <time>2024-08-10T08:29:51Z</time>
      </trkpt>
      <trkpt lat="45.05398" lon="6.25433">
        <ele>2228.2</ele>
        <time>2024-08-10T08:29:52Z</time>
      </trkpt>
      <trkpt lat="45.05396" lon="6.25435">
        <ele>2228.2</ele>
        <time>2024-08-10T08:29:53Z</time>
      </trkpt>
      <trkpt lat="45.05396" lon="6.25435">
        <ele>2228.6</ele>
        <time>2024-08-10T08:29:54Z</time>
      </trkpt>
      <trkpt lat="45.05396" lon="6.25435">
        <ele>2228.6</ele>
        <time>2024-08-10T08:29:55Z</time>
      </trkpt>
      <trkpt lat="45.05393" lon="6.25437">
        <ele>2228.6</ele>
        <time>2024-08-10T08:29:56Z</time>
      </trkpt>
      <trkpt lat="45.05393" lon="6.25437">
        <ele>2228.6</ele>
        <time>2024-08-10T08:29:57Z</time>
      </trkpt>
      <trkpt lat="45.05393" lon="6.25437">
        <ele>2229.2</ele>
        <time>2024-08-10T08:29:58Z</time>
      </trkpt>
      <trkpt lat="45.0539" lon="6.25439">
        <ele>2229.2</ele>
        <time>2024-08-10T08:29:59Z</time>
      </trkpt>
      <trkpt lat="45.0539" lon="6.25439">
        <ele>2229.4</ele>
        <time>2024-08-10T08:30:00Z</time>
      </trkpt>
      <trkpt lat="45.0539" lon="6.25439">
        <ele>2229.6</ele>
        <time>2024-08-10T08:30:01Z</time>
      </trkpt>
      <trkpt lat="45.05388" lon="6.2544">
        <ele>2229.6</ele>
        <time>2024-08-10T08:30:02Z</time>
      </trkpt>
      <trkpt lat="45.05388" lon="6.2544">
        <ele>2229.4</ele>
        <time>2024-08-10T08:30:03Z</time>
      </trkpt>
      <trkpt lat="45.05385" lon="6.25441">
        <ele>2229.6</ele>
        <time>2024-08-10T08:30:04Z</time>
      </trkpt>
      <trkpt lat="45.05385" lon="6.25441">
        <ele>2229.6</ele>
        <time>2024-08-10T08:30:05Z</time>
      </trkpt>
      <trkpt lat="45.05383" lon="6.25443">
        <ele>2229.8</ele>
        <time>2024-08-10T08:30:06Z</time>
      </trkpt>
      <trkpt lat="45.05383" lon="6.25443">
        <ele>2229.8</ele>
        <time>2024-08-10T08:30:07Z</time>
      </trkpt>
      <trkpt lat="45.05381" lon="6.25444">
        <ele>2230</ele>
        <time>2024-08-10T08:30:08Z</time>
      </trkpt>
      <trkpt lat="45.05381" lon="6.25444">
        <ele>2230</ele>
        <time>2024-08-10T08:30:09Z</time>
      </trkpt>
      <trkpt lat="45.0538" lon="6.25446">
        <ele>2230</ele>
        <time>2024-08-10T08:30:10Z</time>
      </trkpt>
      <trkpt lat="45.0538" lon="6.25446">
        <ele>2230.2</ele>
        <time>2024-08-10T08:30:11Z</time>
      </trkpt>
      <trkpt lat="45.05377" lon="6.25448">
        <ele>2230.4</ele>
        <time>2024-08-10T08:30:12Z</time>
      </trkpt>
      <trkpt lat="45.05377" lon="6.25448">
        <ele>2230.8</ele>
        <time>2024-08-10T08:30:13Z</time>
      </trkpt>
      <trkpt lat="45.05376" lon="6.25449">
        <ele>2231</ele>
        <time>2024-08-10T08:30:14Z</time>
      </trkpt>
      <trkpt lat="45.05376" lon="6.25449">
        <ele>2231</ele>
        <time>2024-08-10T08:30:15Z</time>
      </trkpt>
      <trkpt lat="45.05373" lon="6.25452">
        <ele>2231.4</ele>
        <time>2024-08-10T08:30:16Z</time>
      </trkpt>
      <trkpt lat="45.05373" lon="6.25452">
        <ele>2232</ele>
        <time>2024-08-10T08:30:17Z</time>
      </trkpt>
      <trkpt lat="45.05372" lon="6.25454">
        <ele>2232</ele>
        <time>2024-08-10T08:30:18Z</time>
      </trkpt>
      <trkpt lat="45.05372" lon="6.25454">
        <ele>2232</ele>
        <time>2024-08-10T08:30:19Z</time>
      </trkpt>
      <trkpt lat="45.0537" lon="6.25455">
        <ele>2232</ele>
        <time>2024-08-10T08:30:20Z</time>
      </trkpt>
      <trkpt lat="45.0537" lon="6.25455">
        <ele>2232.2</ele>
        <time>2024-08-10T08:30:21Z</time>
      </trkpt>
      <trkpt lat="45.05367" lon="6.25456">
        <ele>2232.4</ele>
        <time>2024-08-10T08:30:22Z</time>
      </trkpt>
      <trkpt lat="45.05367" lon="6.25456">
        <ele>2232.6</ele>
        <time>2024-08-10T08:30:23Z</time>
      </trkpt>
      <trkpt lat="45.05365" lon="6.25457">
        <ele>2232.8</ele>
        <time>2024-08-10T08:30:24Z</time>
      </trkpt>
      <trkpt lat="45.05365" lon="6.25457">
        <ele>2232.8</ele>
        <time>2024-08-10T08:30:25Z</time>
      </trkpt>
      <trkpt lat="45.05362" lon="6.25459">
        <ele>2233</ele>
        <time>2024-08-10T08:30:26Z</time>
      </trkpt>
      <trkpt lat="45.05362" lon="6.25459">
        <ele>2233.2</ele>
        <time>2024-08-10T08:30:27Z</time>
      </trkpt>
      <trkpt lat="45.0536" lon="6.2546">
        <ele>2233.2</ele>
        <time>2024-08-10T08:30:28Z</time>
      </trkpt>
      <trkpt lat="45.0536" lon="6.2546">
        <ele>2233.2</ele>
        <time>2024-08-10T08:30:29Z</time>
      </trkpt>
      <trkpt lat="45.05357" lon="6.25462">
        <ele>2233</ele>
        <time>2024-08-10T08:30:30Z</time>
      </trkpt>
      <trkpt lat="45.05357" lon="6.25462">
        <ele>2233</ele>
        <time>2024-08-10T08:30:31Z</time>
      </trkpt>
      <trkpt lat="45.05355" lon="6.25463">
        <ele>2233.2</ele>
        <time>2024-08-10T08:30:32Z</time>
      </trkpt>
      <trkpt lat="45.05355" lon="6.25463">
        <ele>2233.2</ele>
        <time>2024-08-10T08:30:33Z</time>
      </trkpt>
      <trkpt lat="45.05353" lon="6.25465">
        <ele>2233.2</ele>
        <time>2024-08-10T08:30:34Z</time>
      </trkpt>
      <trkpt lat="45.05353" lon="6.25465">
        <ele>2233.6</ele>
        <time>2024-08-10T08:30:35Z</time>
      </trkpt>
      <trkpt lat="45.0535" lon="6.25466">
        <ele>2233.8</ele>
        <time>2024-08-10T08:30:36Z</time>
      </trkpt>
      <trkpt lat="45.0535" lon="6.25466">
        <ele>2233.8</ele>
        <time>2024-08-10T08:30:37Z</time>
      </trkpt>
      <trkpt lat="45.05348" lon="6.25468">
        <ele>2233.8</ele>
        <time>2024-08-10T08:30:38Z</time>
      </trkpt>
      <trkpt lat="45.05348" lon="6.25468">
        <ele>2233.8</ele>
        <time>2024-08-10T08:30:39Z</time>
      </trkpt>
      <trkpt lat="45.05346" lon="6.25471">
        <ele>2233.6</ele>
        <time>2024-08-10T08:30:40Z</time>
      </trkpt>
      <trkpt lat="45.05346" lon="6.25471">
        <ele>2233.6</ele>
        <time>2024-08-10T08:30:41Z</time>
      </trkpt>
      <trkpt lat="45.05344" lon="6.25473">
        <ele>2233.8</ele>
        <time>2024-08-10T08:30:42Z</time>
      </trkpt>
      <trkpt lat="45.05342" lon="6.25474">
        <ele>2233.8</ele>
        <time>2024-08-10T08:30:43Z</time>
      </trkpt>
      <trkpt lat="45.05342" lon="6.25474">
        <ele>2233.8</ele>
        <time>2024-08-10T08:30:44Z</time>
      </trkpt>
      <trkpt lat="45.05341" lon="6.25476">
        <ele>2234</ele>
        <time>2024-08-10T08:30:45Z</time>
      </trkpt>
      <trkpt lat="45.05341" lon="6.25476">
        <ele>2234</ele>
        <time>2024-08-10T08:30:46Z</time>
      </trkpt>
      <trkpt lat="45.05338" lon="6.25478">
        <ele>2234.6</ele>
        <time>2024-08-10T08:30:47Z</time>
      </trkpt>
      <trkpt lat="45.05338" lon="6.25478">
        <ele>2235.2</ele>
        <time>2024-08-10T08:30:48Z</time>
      </trkpt>
      <trkpt lat="45.05336" lon="6.2548">
        <ele>2235.2</ele>
        <time>2024-08-10T08:30:49Z</time>
      </trkpt>
      <trkpt lat="45.05336" lon="6.2548">
        <ele>2235.2</ele>
        <time>2024-08-10T08:30:50Z</time>
      </trkpt>
      <trkpt lat="45.05333" lon="6.25482">
        <ele>2235</ele>
        <time>2024-08-10T08:30:51Z</time>
      </trkpt>
      <trkpt lat="45.05333" lon="6.25482">
        <ele>2234.6</ele>
        <time>2024-08-10T08:30:52Z</time>
      </trkpt>
      <trkpt lat="45.05331" lon="6.25484">
        <ele>2234.6</ele>
        <time>2024-08-10T08:30:53Z</time>
      </trkpt>
      <trkpt lat="45.05331" lon="6.25484">
        <ele>2234.6</ele>
        <time>2024-08-10T08:30:54Z</time>
      </trkpt>
      <trkpt lat="45.05329" lon="6.25487">
        <ele>2234.6</ele>
        <time>2024-08-10T08:30:55Z</time>
      </trkpt>
      <trkpt lat="45.05329" lon="6.25487">
        <ele>2234.8</ele>
        <time>2024-08-10T08:30:56Z</time>
      </trkpt>
      <trkpt lat="45.05327" lon="6.25488">
        <ele>2234.8</ele>
        <time>2024-08-10T08:30:57Z</time>
      </trkpt>
      <trkpt lat="45.05327" lon="6.25488">
        <ele>2235</ele>
        <time>2024-08-10T08:30:58Z</time>
      </trkpt>
      <trkpt lat="45.05325" lon="6.25491">
        <ele>2235</ele>
        <time>2024-08-10T08:30:59Z</time>
      </trkpt>
      <trkpt lat="45.05325" lon="6.25491">
        <ele>2234.8</ele>
        <time>2024-08-10T08:31:00Z</time>
      </trkpt>
      <trkpt lat="45.05323" lon="6.25494">
        <ele>2234.8</ele>
        <time>2024-08-10T08:31:01Z</time>
      </trkpt>
      <trkpt lat="45.05323" lon="6.25494">
        <ele>2234.8</ele>
        <time>2024-08-10T08:31:02Z</time>
      </trkpt>
      <trkpt lat="45.05321" lon="6.25496">
        <ele>2234.6</ele>
        <time>2024-08-10T08:31:03Z</time>
      </trkpt>
      <trkpt lat="45.05321" lon="6.25496">
        <ele>2234.6</ele>
        <time>2024-08-10T08:31:04Z</time>
      </trkpt>
      <trkpt lat="45.0532" lon="6.25499">
        <ele>2234.6</ele>
        <time>2024-08-10T08:31:05Z</time>
      </trkpt>
      <trkpt lat="45.0532" lon="6.25499">
        <ele>2234.8</ele>
        <time>2024-08-10T08:31:06Z</time>
      </trkpt>
      <trkpt lat="45.05318" lon="6.25501">
        <ele>2234.8</ele>
        <time>2024-08-10T08:31:07Z</time>
      </trkpt>
      <trkpt lat="45.05318" lon="6.25501">
        <ele>2235.2</ele>
        <time>2024-08-10T08:31:08Z</time>
      </trkpt>
      <trkpt lat="45.05316" lon="6.25503">
        <ele>2235.2</ele>
        <time>2024-08-10T08:31:09Z</time>
      </trkpt>
      <trkpt lat="45.05314" lon="6.25504">
        <ele>2235.6</ele>
        <time>2024-08-10T08:31:10Z</time>
      </trkpt>
      <trkpt lat="45.05314" lon="6.25504">
        <ele>2235.6</ele>
        <time>2024-08-10T08:31:11Z</time>
      </trkpt>
      <trkpt lat="45.05312" lon="6.25506">
        <ele>2235.8</ele>
        <time>2024-08-10T08:31:12Z</time>
      </trkpt>
      <trkpt lat="45.05312" lon="6.25506">
        <ele>2235.8</ele>
        <time>2024-08-10T08:31:13Z</time>
      </trkpt>
      <trkpt lat="45.0531" lon="6.25509">
        <ele>2235.8</ele>
        <time>2024-08-10T08:31:14Z</time>
      </trkpt>
      <trkpt lat="45.0531" lon="6.25509">
        <ele>2235.6</ele>
        <time>2024-08-10T08:31:15Z</time>
      </trkpt>
      <trkpt lat="45.05308" lon="6.25511">
        <ele>2235.6</ele>
        <time>2024-08-10T08:31:16Z</time>
      </trkpt>
      <trkpt lat="45.05308" lon="6.25511">
        <ele>2235.8</ele>
        <time>2024-08-10T08:31:17Z</time>
      </trkpt>
      <trkpt lat="45.05306" lon="6.25514">
        <ele>2236</ele>
        <time>2024-08-10T08:31:18Z</time>
      </trkpt>
      <trkpt lat="45.05306" lon="6.25514">
        <ele>2236</ele>
        <time>2024-08-10T08:31:19Z</time>
      </trkpt>
      <trkpt lat="45.05304" lon="6.25516">
        <ele>2236</ele>
        <time>2024-08-10T08:31:20Z</time>
      </trkpt>
      <trkpt lat="45.05304" lon="6.25516">
        <ele>2236</ele>
        <time>2024-08-10T08:31:21Z</time>
      </trkpt>
      <trkpt lat="45.05302" lon="6.25519">
        <ele>2236</ele>
        <time>2024-08-10T08:31:22Z</time>
      </trkpt>
      <trkpt lat="45.05302" lon="6.25519">
        <ele>2236.2</ele>
        <time>2024-08-10T08:31:23Z</time>
      </trkpt>
      <trkpt lat="45.053" lon="6.25521">
        <ele>2236.4</ele>
        <time>2024-08-10T08:31:24Z</time>
      </trkpt>
      <trkpt lat="45.053" lon="6.25521">
        <ele>2236.4</ele>
        <time>2024-08-10T08:31:25Z</time>
      </trkpt>
      <trkpt lat="45.05298" lon="6.25523">
        <ele>2236.8</ele>
        <time>2024-08-10T08:31:26Z</time>
      </trkpt>
      <trkpt lat="45.05298" lon="6.25523">
        <ele>2236.8</ele>
        <time>2024-08-10T08:31:27Z</time>
      </trkpt>
      <trkpt lat="45.05295" lon="6.25525">
        <ele>2237</ele>
        <time>2024-08-10T08:31:28Z</time>
      </trkpt>
      <trkpt lat="45.05295" lon="6.25525">
        <ele>2237.2</ele>
        <time>2024-08-10T08:31:29Z</time>
      </trkpt>
      <trkpt lat="45.05293" lon="6.25527">
        <ele>2237.2</ele>
        <time>2024-08-10T08:31:30Z</time>
      </trkpt>
      <trkpt lat="45.05293" lon="6.25527">
        <ele>2237.2</ele>
        <time>2024-08-10T08:31:31Z</time>
      </trkpt>
      <trkpt lat="45.05291" lon="6.25529">
        <ele>2237.4</ele>
        <time>2024-08-10T08:31:32Z</time>
      </trkpt>
      <trkpt lat="45.05291" lon="6.25529">
        <ele>2237.6</ele>
        <time>2024-08-10T08:31:33Z</time>
      </trkpt>
      <trkpt lat="45.05288" lon="6.25531">
        <ele>2237.6</ele>
        <time>2024-08-10T08:31:34Z</time>
      </trkpt>
      <trkpt lat="45.05288" lon="6.25531">
        <ele>2237.6</ele>
        <time>2024-08-10T08:31:35Z</time>
      </trkpt>
      <trkpt lat="45.05286" lon="6.25533">
        <ele>2237.6</ele>
        <time>2024-08-10T08:31:36Z</time>
      </trkpt>
      <trkpt lat="45.05286" lon="6.25533">
        <ele>2238</ele>
        <time>2024-08-10T08:31:37Z</time>
      </trkpt>
      <trkpt lat="45.05284" lon="6.25534">
        <ele>2238.2</ele>
        <time>2024-08-10T08:31:38Z</time>
      </trkpt>
      <trkpt lat="45.05284" lon="6.25534">
        <ele>2238.4</ele>
        <time>2024-08-10T08:31:39Z</time>
      </trkpt>
      <trkpt lat="45.05282" lon="6.25537">
        <ele>2238.4</ele>
        <time>2024-08-10T08:31:40Z</time>
      </trkpt>
      <trkpt lat="45.05282" lon="6.25537">
        <ele>2238.8</ele>
        <time>2024-08-10T08:31:41Z</time>
      </trkpt>
      <trkpt lat="45.0528" lon="6.2554">
        <ele>2238.8</ele>
        <time>2024-08-10T08:31:42Z</time>
      </trkpt>
      <trkpt lat="45.0528" lon="6.2554">
        <ele>2238.8</ele>
        <time>2024-08-10T08:31:43Z</time>
      </trkpt>
      <trkpt lat="45.05278" lon="6.25543">
        <ele>2239</ele>
        <time>2024-08-10T08:31:44Z</time>
      </trkpt>
      <trkpt lat="45.05278" lon="6.25543">
        <ele>2239</ele>
        <time>2024-08-10T08:31:45Z</time>
      </trkpt>
      <trkpt lat="45.05275" lon="6.25545">
        <ele>2239.2</ele>
        <time>2024-08-10T08:31:46Z</time>
      </trkpt>
      <trkpt lat="45.05275" lon="6.25545">
        <ele>2239.4</ele>
        <time>2024-08-10T08:31:47Z</time>
      </trkpt>
      <trkpt lat="45.05273" lon="6.25549">
        <ele>2239.4</ele>
        <time>2024-08-10T08:31:48Z</time>
      </trkpt>
      <trkpt lat="45.05273" lon="6.25549">
        <ele>2239.8</ele>
        <time>2024-08-10T08:31:49Z</time>
      </trkpt>
      <trkpt lat="45.05272" lon="6.25552">
        <ele>2239.8</ele>
        <time>2024-08-10T08:31:50Z</time>
      </trkpt>
      <trkpt lat="45.05272" lon="6.25552">
        <ele>2239.8</ele>
        <time>2024-08-10T08:31:51Z</time>
      </trkpt>
      <trkpt lat="45.0527" lon="6.25555">
        <ele>2239.8</ele>
        <time>2024-08-10T08:31:52Z</time>
      </trkpt>
      <trkpt lat="45.0527" lon="6.25555">
        <ele>2239.8</ele>
        <time>2024-08-10T08:31:53Z</time>
      </trkpt>
      <trkpt lat="45.05268" lon="6.25559">
        <ele>2240</ele>
        <time>2024-08-10T08:31:54Z</time>
      </trkpt>
      <trkpt lat="45.05268" lon="6.25559">
        <ele>2240.4</ele>
        <time>2024-08-10T08:31:55Z</time>
      </trkpt>
      <trkpt lat="45.05266" lon="6.25561">
        <ele>2240.4</ele>
        <time>2024-08-10T08:31:56Z</time>
      </trkpt>
      <trkpt lat="45.05266" lon="6.25561">
        <ele>2240.4</ele>
        <time>2024-08-10T08:31:57Z</time>
      </trkpt>
      <trkpt lat="45.05265" lon="6.25564">
        <ele>2240.4</ele>
        <time>2024-08-10T08:31:58Z</time>
      </trkpt>
      <trkpt lat="45.05265" lon="6.25564">
        <ele>2240.6</ele>
        <time>2024-08-10T08:31:59Z</time>
      </trkpt>
      <trkpt lat="45.05263" lon="6.25568">
        <ele>2240.6</ele>
        <time>2024-08-10T08:32:00Z</time>
      </trkpt>
      <trkpt lat="45.05263" lon="6.25568">
        <ele>2241.4</ele>
        <time>2024-08-10T08:32:01Z</time>
      </trkpt>
      <trkpt lat="45.05261" lon="6.25571">
        <ele>2241.6</ele>
        <time>2024-08-10T08:32:02Z</time>
      </trkpt>
      <trkpt lat="45.05261" lon="6.25571">
        <ele>2241.8</ele>
        <time>2024-08-10T08:32:03Z</time>
      </trkpt>
      <trkpt lat="45.05259" lon="6.25574">
        <ele>2241.8</ele>
        <time>2024-08-10T08:32:04Z</time>
      </trkpt>
      <trkpt lat="45.05259" lon="6.25574">
        <ele>2241.8</ele>
        <time>2024-08-10T08:32:05Z</time>
      </trkpt>
      <trkpt lat="45.05257" lon="6.25577">
        <ele>2241.4</ele>
        <time>2024-08-10T08:32:06Z</time>
      </trkpt>
      <trkpt lat="45.05257" lon="6.25577">
        <ele>2240.8</ele>
        <time>2024-08-10T08:32:07Z</time>
      </trkpt>
      <trkpt lat="45.05255" lon="6.25579">
        <ele>2240.8</ele>
        <time>2024-08-10T08:32:08Z</time>
      </trkpt>
      <trkpt lat="45.05255" lon="6.25579">
        <ele>2241</ele>
        <time>2024-08-10T08:32:09Z</time>
      </trkpt>
      <trkpt lat="45.05253" lon="6.25583">
        <ele>2241</ele>
        <time>2024-08-10T08:32:10Z</time>
      </trkpt>
      <trkpt lat="45.05253" lon="6.25583">
        <ele>2241.2</ele>
        <time>2024-08-10T08:32:11Z</time>
      </trkpt>
      <trkpt lat="45.05251" lon="6.25587">
        <ele>2241</ele>
        <time>2024-08-10T08:32:12Z</time>
      </trkpt>
      <trkpt lat="45.05251" lon="6.25587">
        <ele>2241.2</ele>
        <time>2024-08-10T08:32:13Z</time>
      </trkpt>
      <trkpt lat="45.0525" lon="6.25591">
        <ele>2241.2</ele>
        <time>2024-08-10T08:32:14Z</time>
      </trkpt>
      <trkpt lat="45.0525" lon="6.25591">
        <ele>2241.4</ele>
        <time>2024-08-10T08:32:15Z</time>
      </trkpt>
      <trkpt lat="45.05249" lon="6.25594">
        <ele>2241.6</ele>
        <time>2024-08-10T08:32:16Z</time>
      </trkpt>
      <trkpt lat="45.05249" lon="6.25594">
        <ele>2241.8</ele>
        <time>2024-08-10T08:32:17Z</time>
      </trkpt>
      <trkpt lat="45.05247" lon="6.25598">
        <ele>2241.8</ele>
        <time>2024-08-10T08:32:18Z</time>
      </trkpt>
      <trkpt lat="45.05247" lon="6.25598">
        <ele>2241.8</ele>
        <time>2024-08-10T08:32:19Z</time>
      </trkpt>
      <trkpt lat="45.05245" lon="6.25601">
        <ele>2241.8</ele>
        <time>2024-08-10T08:32:20Z</time>
      </trkpt>
      <trkpt lat="45.05245" lon="6.25601">
        <ele>2242</ele>
        <time>2024-08-10T08:32:21Z</time>
      </trkpt>
      <trkpt lat="45.05243" lon="6.25603">
        <ele>2242</ele>
        <time>2024-08-10T08:32:22Z</time>
      </trkpt>
      <trkpt lat="45.05243" lon="6.25603">
        <ele>2242</ele>
        <time>2024-08-10T08:32:23Z</time>
      </trkpt>
      <trkpt lat="45.05241" lon="6.25606">
        <ele>2242</ele>
        <time>2024-08-10T08:32:24Z</time>
      </trkpt>
      <trkpt lat="45.05241" lon="6.25606">
        <ele>2242</ele>
        <time>2024-08-10T08:32:25Z</time>
      </trkpt>
      <trkpt lat="45.05239" lon="6.25609">
        <ele>2242</ele>
        <time>2024-08-10T08:32:26Z</time>
      </trkpt>
      <trkpt lat="45.05239" lon="6.25609">
        <ele>2242.2</ele>
        <time>2024-08-10T08:32:27Z</time>
      </trkpt>
      <trkpt lat="45.05237" lon="6.25612">
        <ele>2242.2</ele>
        <time>2024-08-10T08:32:28Z</time>
      </trkpt>
      <trkpt lat="45.05237" lon="6.25612">
        <ele>2241.8</ele>
        <time>2024-08-10T08:32:29Z</time>
      </trkpt>
      <trkpt lat="45.05234" lon="6.25615">
        <ele>2241.4</ele>
        <time>2024-08-10T08:32:30Z</time>
      </trkpt>
      <trkpt lat="45.05234" lon="6.25615">
        <ele>2241.4</ele>
        <time>2024-08-10T08:32:31Z</time>
      </trkpt>
      <trkpt lat="45.05232" lon="6.25619">
        <ele>2241.4</ele>
        <time>2024-08-10T08:32:32Z</time>
      </trkpt>
      <trkpt lat="45.05232" lon="6.25619">
        <ele>2241.4</ele>
        <time>2024-08-10T08:32:33Z</time>
      </trkpt>
      <trkpt lat="45.0523" lon="6.25622">
        <ele>2241.4</ele>
        <time>2024-08-10T08:32:34Z</time>
      </trkpt>
      <trkpt lat="45.05229" lon="6.25624">
        <ele>2241.6</ele>
        <time>2024-08-10T08:32:35Z</time>
      </trkpt>
      <trkpt lat="45.05229" lon="6.25624">
        <ele>2241.6</ele>
        <time>2024-08-10T08:32:36Z</time>
      </trkpt>
      <trkpt lat="45.05228" lon="6.25628">
        <ele>2241.6</ele>
        <time>2024-08-10T08:32:37Z</time>
      </trkpt>
      <trkpt lat="45.05228" lon="6.25628">
        <ele>2241.6</ele>
        <time>2024-08-10T08:32:38Z</time>
      </trkpt>
      <trkpt lat="45.05227" lon="6.25632">
        <ele>2241.6</ele>
        <time>2024-08-10T08:32:39Z</time>
      </trkpt>
      <trkpt lat="45.05227" lon="6.25632">
        <ele>2241.6</ele>
        <time>2024-08-10T08:32:40Z</time>
      </trkpt>
      <trkpt lat="45.05225" lon="6.25635">
        <ele>2241.6</ele>
        <time>2024-08-10T08:32:41Z</time>
      </trkpt>
      <trkpt lat="45.05225" lon="6.25635">
        <ele>2241.4</ele>
        <time>2024-08-10T08:32:42Z</time>
      </trkpt>
      <trkpt lat="45.05223" lon="6.25638">
        <ele>2241.4</ele>
        <time>2024-08-10T08:32:43Z</time>
      </trkpt>
      <trkpt lat="45.05223" lon="6.25638">
        <ele>2241.2</ele>
        <time>2024-08-10T08:32:44Z</time>
      </trkpt>
      <trkpt lat="45.05221" lon="6.25642">
        <ele>2241.2</ele>
        <time>2024-08-10T08:32:45Z</time>
      </trkpt>
      <trkpt lat="45.05221" lon="6.25642">
        <ele>2241.6</ele>
        <time>2024-08-10T08:32:46Z</time>
      </trkpt>
      <trkpt lat="45.0522" lon="6.25645">
        <ele>2241.6</ele>
        <time>2024-08-10T08:32:47Z</time>
      </trkpt>
      <trkpt lat="45.0522" lon="6.25645">
        <ele>2241.6</ele>
        <time>2024-08-10T08:32:48Z</time>
      </trkpt>
      <trkpt lat="45.05218" lon="6.25649">
        <ele>2241.6</ele>
        <time>2024-08-10T08:32:49Z</time>
      </trkpt>
      <trkpt lat="45.05218" lon="6.25649">
        <ele>2241.6</ele>
        <time>2024-08-10T08:32:50Z</time>
      </trkpt>
      <trkpt lat="45.05216" lon="6.25652">
        <ele>2241.6</ele>
        <time>2024-08-10T08:32:51Z</time>
      </trkpt>
      <trkpt lat="45.05216" lon="6.25652">
        <ele>2242</ele>
        <time>2024-08-10T08:32:52Z</time>
      </trkpt>
      <trkpt lat="45.05215" lon="6.25655">
        <ele>2242</ele>
        <time>2024-08-10T08:32:53Z</time>
      </trkpt>
      <trkpt lat="45.05215" lon="6.25655">
        <ele>2242</ele>
        <time>2024-08-10T08:32:54Z</time>
      </trkpt>
      <trkpt lat="45.05213" lon="6.25658">
        <ele>2241.8</ele>
        <time>2024-08-10T08:32:55Z</time>
      </trkpt>
      <trkpt lat="45.05213" lon="6.25658">
        <ele>2241.8</ele>
        <time>2024-08-10T08:32:56Z</time>
      </trkpt>
      <trkpt lat="45.05211" lon="6.25661">
        <ele>2241.8</ele>
        <time>2024-08-10T08:32:57Z</time>
      </trkpt>
      <trkpt lat="45.05211" lon="6.25661">
        <ele>2241.8</ele>
        <time>2024-08-10T08:32:58Z</time>
      </trkpt>
      <trkpt lat="45.05208" lon="6.25664">
        <ele>2241.8</ele>
        <time>2024-08-10T08:32:59Z</time>
      </trkpt>
      <trkpt lat="45.05208" lon="6.25664">
        <ele>2241.8</ele>
        <time>2024-08-10T08:33:00Z</time>
      </trkpt>
      <trkpt lat="45.05207" lon="6.25667">
        <ele>2241.8</ele>
        <time>2024-08-10T08:33:01Z</time>
      </trkpt>
      <trkpt lat="45.05207" lon="6.25667">
        <ele>2241.8</ele>
        <time>2024-08-10T08:33:02Z</time>
      </trkpt>
      <trkpt lat="45.05207" lon="6.25671">
        <ele>2241.8</ele>
        <time>2024-08-10T08:33:03Z</time>
      </trkpt>
      <trkpt lat="45.05207" lon="6.25671">
        <ele>2241.8</ele>
        <time>2024-08-10T08:33:04Z</time>
      </trkpt>
      <trkpt lat="45.05205" lon="6.25674">
        <ele>2241.8</ele>
        <time>2024-08-10T08:33:05Z</time>
      </trkpt>
      <trkpt lat="45.05205" lon="6.25674">
        <ele>2241.8</ele>
        <time>2024-08-10T08:33:06Z</time>
      </trkpt>
      <trkpt lat="45.05203" lon="6.25677">
        <ele>2241.8</ele>
        <time>2024-08-10T08:33:07Z</time>
      </trkpt>
      <trkpt lat="45.05203" lon="6.25677">
        <ele>2241.6</ele>
        <time>2024-08-10T08:33:08Z</time>
      </trkpt>
      <trkpt lat="45.05202" lon="6.25681">
        <ele>2241.6</ele>
        <time>2024-08-10T08:33:09Z</time>
      </trkpt>
      <trkpt lat="45.05202" lon="6.25681">
        <ele>2241.4</ele>
        <time>2024-08-10T08:33:10Z</time>
      </trkpt>
      <trkpt lat="45.05201" lon="6.25684">
        <ele>2241.4</ele>
        <time>2024-08-10T08:33:11Z</time>
      </trkpt>
      <trkpt lat="45.05201" lon="6.25684">
        <ele>2241.4</ele>
        <time>2024-08-10T08:33:12Z</time>
      </trkpt>
      <trkpt lat="45.05201" lon="6.25689">
        <ele>2241.6</ele>
        <time>2024-08-10T08:33:13Z</time>
      </trkpt>
      <trkpt lat="45.05201" lon="6.25689">
        <ele>2241.6</ele>
        <time>2024-08-10T08:33:14Z</time>
      </trkpt>
      <trkpt lat="45.052" lon="6.25693">
        <ele>2241.4</ele>
        <time>2024-08-10T08:33:15Z</time>
      </trkpt>
      <trkpt lat="45.052" lon="6.25693">
        <ele>2241.2</ele>
        <time>2024-08-10T08:33:16Z</time>
      </trkpt>
      <trkpt lat="45.05199" lon="6.25697">
        <ele>2241.2</ele>
        <time>2024-08-10T08:33:17Z</time>
      </trkpt>
      <trkpt lat="45.05199" lon="6.25697">
        <ele>2241.2</ele>
        <time>2024-08-10T08:33:18Z</time>
      </trkpt>
      <trkpt lat="45.05197" lon="6.25701">
        <ele>2241.2</ele>
        <time>2024-08-10T08:33:19Z</time>
      </trkpt>
      <trkpt lat="45.05197" lon="6.25701">
        <ele>2241</ele>
        <time>2024-08-10T08:33:20Z</time>
      </trkpt>
      <trkpt lat="45.05196" lon="6.25705">
        <ele>2241</ele>
        <time>2024-08-10T08:33:21Z</time>
      </trkpt>
      <trkpt lat="45.05196" lon="6.25705">
        <ele>2241</ele>
        <time>2024-08-10T08:33:22Z</time>
      </trkpt>
      <trkpt lat="45.05195" lon="6.25709">
        <ele>2240.8</ele>
        <time>2024-08-10T08:33:23Z</time>
      </trkpt>
      <trkpt lat="45.05195" lon="6.25709">
        <ele>2240.8</ele>
        <time>2024-08-10T08:33:24Z</time>
      </trkpt>
      <trkpt lat="45.05194" lon="6.25713">
        <ele>2241</ele>
        <time>2024-08-10T08:33:25Z</time>
      </trkpt>
      <trkpt lat="45.05193" lon="6.25716">
        <ele>2240.8</ele>
        <time>2024-08-10T08:33:26Z</time>
      </trkpt>
      <trkpt lat="45.05193" lon="6.25716">
        <ele>2240.6</ele>
        <time>2024-08-10T08:33:27Z</time>
      </trkpt>
      <trkpt lat="45.05191" lon="6.25719">
        <ele>2240.6</ele>
        <time>2024-08-10T08:33:28Z</time>
      </trkpt>
      <trkpt lat="45.05189" lon="6.25721">
        <ele>2240.6</ele>
        <time>2024-08-10T08:33:29Z</time>
      </trkpt>
      <trkpt lat="45.05189" lon="6.25721">
        <ele>2240.6</ele>
        <time>2024-08-10T08:33:30Z</time>
      </trkpt>
      <trkpt lat="45.05189" lon="6.25724">
        <ele>2240.4</ele>
        <time>2024-08-10T08:33:31Z</time>
      </trkpt>
      <trkpt lat="45.05189" lon="6.25724">
        <ele>2240.4</ele>
        <time>2024-08-10T08:33:32Z</time>
      </trkpt>
      <trkpt lat="45.05187" lon="6.25728">
        <ele>2240</ele>
        <time>2024-08-10T08:33:33Z</time>
      </trkpt>
      <trkpt lat="45.05187" lon="6.25728">
        <ele>2240</ele>
        <time>2024-08-10T08:33:34Z</time>
      </trkpt>
      <trkpt lat="45.05186" lon="6.25732">
        <ele>2240</ele>
        <time>2024-08-10T08:33:35Z</time>
      </trkpt>
      <trkpt lat="45.05186" lon="6.25732">
        <ele>2240</ele>
        <time>2024-08-10T08:33:36Z</time>
      </trkpt>
      <trkpt lat="45.05185" lon="6.25736">
        <ele>2239.8</ele>
        <time>2024-08-10T08:33:37Z</time>
      </trkpt>
      <trkpt lat="45.05185" lon="6.25736">
        <ele>2239.6</ele>
        <time>2024-08-10T08:33:38Z</time>
      </trkpt>
      <trkpt lat="45.05186" lon="6.2574">
        <ele>2239.6</ele>
        <time>2024-08-10T08:33:39Z</time>
      </trkpt>
      <trkpt lat="45.05186" lon="6.2574">
        <ele>2239.6</ele>
        <time>2024-08-10T08:33:40Z</time>
      </trkpt>
      <trkpt lat="45.05186" lon="6.25743">
        <ele>2239.6</ele>
        <time>2024-08-10T08:33:41Z</time>
      </trkpt>
      <trkpt lat="45.05186" lon="6.25743">
        <ele>2239.6</ele>
        <time>2024-08-10T08:33:42Z</time>
      </trkpt>
      <trkpt lat="45.05187" lon="6.25747">
        <ele>2239.6</ele>
        <time>2024-08-10T08:33:43Z</time>
      </trkpt>
      <trkpt lat="45.05187" lon="6.25747">
        <ele>2239.6</ele>
        <time>2024-08-10T08:33:44Z</time>
      </trkpt>
      <trkpt lat="45.05187" lon="6.25751">
        <ele>2239.6</ele>
        <time>2024-08-10T08:33:45Z</time>
      </trkpt>
      <trkpt lat="45.05187" lon="6.25751">
        <ele>2239.6</ele>
        <time>2024-08-10T08:33:46Z</time>
      </trkpt>
      <trkpt lat="45.05187" lon="6.25756">
        <ele>2238.8</ele>
        <time>2024-08-10T08:33:47Z</time>
      </trkpt>
      <trkpt lat="45.05187" lon="6.25756">
        <ele>2238.6</ele>
        <time>2024-08-10T08:33:48Z</time>
      </trkpt>
      <trkpt lat="45.05187" lon="6.2576">
        <ele>2238.6</ele>
        <time>2024-08-10T08:33:49Z</time>
      </trkpt>
      <trkpt lat="45.05187" lon="6.2576">
        <ele>2238.6</ele>
        <time>2024-08-10T08:33:50Z</time>
      </trkpt>
      <trkpt lat="45.05186" lon="6.25764">
        <ele>2238.6</ele>
        <time>2024-08-10T08:33:51Z</time>
      </trkpt>
      <trkpt lat="45.05186" lon="6.25764">
        <ele>2238.4</ele>
        <time>2024-08-10T08:33:52Z</time>
      </trkpt>
      <trkpt lat="45.05185" lon="6.25768">
        <ele>2238.4</ele>
        <time>2024-08-10T08:33:53Z</time>
      </trkpt>
      <trkpt lat="45.05185" lon="6.25768">
        <ele>2238</ele>
        <time>2024-08-10T08:33:54Z</time>
      </trkpt>
      <trkpt lat="45.05185" lon="6.25772">
        <ele>2238</ele>
        <time>2024-08-10T08:33:55Z</time>
      </trkpt>
      <trkpt lat="45.05185" lon="6.25772">
        <ele>2238</ele>
        <time>2024-08-10T08:33:56Z</time>
      </trkpt>
      <trkpt lat="45.05185" lon="6.25777">
        <ele>2238</ele>
        <time>2024-08-10T08:33:57Z</time>
      </trkpt>
      <trkpt lat="45.05185" lon="6.25777">
        <ele>2237.8</ele>
        <time>2024-08-10T08:33:58Z</time>
      </trkpt>
      <trkpt lat="45.05186" lon="6.25779">
        <ele>2237.6</ele>
        <time>2024-08-10T08:33:59Z</time>
      </trkpt>
      <trkpt lat="45.05186" lon="6.25779">
        <ele>2237.4</ele>
        <time>2024-08-10T08:34:00Z</time>
      </trkpt>
      <trkpt lat="45.05186" lon="6.25779">
        <ele>2237.2</ele>
        <time>2024-08-10T08:34:01Z</time>
      </trkpt>
      <trkpt lat="45.05186" lon="6.25779">
        <ele>2237</ele>
        <time>2024-08-10T08:34:02Z</time>
      </trkpt>
      <trkpt lat="45.05186" lon="6.25779">
        <ele>2236.8</ele>
        <time>2024-08-10T08:34:03Z</time>
      </trkpt>
      <trkpt lat="45.05186" lon="6.25779">
        <ele>2236.6</ele>
        <time>2024-08-10T08:34:04Z</time>
      </trkpt>
      <trkpt lat="45.05186" lon="6.25779">
        <ele>2236.6</ele>
        <time>2024-08-10T08:34:05Z</time>
      </trkpt>
      <trkpt lat="45.05186" lon="6.25779">
        <ele>2236.6</ele>
        <time>2024-08-10T08:34:06Z</time>
      </trkpt>
      <trkpt lat="45.05186" lon="6.25779">
        <ele>2236.6</ele>
        <time>2024-08-10T08:34:07Z</time>
      </trkpt>
      <trkpt lat="45.05187" lon="6.25782">
        <ele>2236.6</ele>
        <time>2024-08-10T08:34:08Z</time>
      </trkpt>
      <trkpt lat="45.05187" lon="6.25782">
        <ele>2236.6</ele>
        <time>2024-08-10T08:34:09Z</time>
      </trkpt>
      <trkpt lat="45.05188" lon="6.25786">
        <ele>2236.6</ele>
        <time>2024-08-10T08:34:10Z</time>
      </trkpt>
      <trkpt lat="45.05188" lon="6.25789">
        <ele>2236.6</ele>
        <time>2024-08-10T08:34:11Z</time>
      </trkpt>
      <trkpt lat="45.05189" lon="6.25792">
        <ele>2236</ele>
        <time>2024-08-10T08:34:12Z</time>
      </trkpt>
      <trkpt lat="45.05189" lon="6.25794">
        <ele>2236</ele>
        <time>2024-08-10T08:34:13Z</time>
      </trkpt>
      <trkpt lat="45.05189" lon="6.25794">
        <ele>2235.8</ele>
        <time>2024-08-10T08:34:14Z</time>
      </trkpt>
      <trkpt lat="45.05189" lon="6.25799">
        <ele>2235.8</ele>
        <time>2024-08-10T08:34:15Z</time>
      </trkpt>
      <trkpt lat="45.05189" lon="6.25799">
        <ele>2235.8</ele>
        <time>2024-08-10T08:34:16Z</time>
      </trkpt>
      <trkpt lat="45.0519" lon="6.25803">
        <ele>2235.8</ele>
        <time>2024-08-10T08:34:17Z</time>
      </trkpt>
      <trkpt lat="45.0519" lon="6.25803">
        <ele>2235.8</ele>
        <time>2024-08-10T08:34:18Z</time>
      </trkpt>
      <trkpt lat="45.0519" lon="6.25807">
        <ele>2235.6</ele>
        <time>2024-08-10T08:34:19Z</time>
      </trkpt>
      <trkpt lat="45.0519" lon="6.25807">
        <ele>2235.4</ele>
        <time>2024-08-10T08:34:20Z</time>
      </trkpt>
      <trkpt lat="45.0519" lon="6.25811">
        <ele>2235.2</ele>
        <time>2024-08-10T08:34:21Z</time>
      </trkpt>
      <trkpt lat="45.0519" lon="6.25811">
        <ele>2234.8</ele>
        <time>2024-08-10T08:34:22Z</time>
      </trkpt>
      <trkpt lat="45.05191" lon="6.25814">
        <ele>2234.6</ele>
        <time>2024-08-10T08:34:23Z</time>
      </trkpt>
      <trkpt lat="45.05191" lon="6.25814">
        <ele>2234.4</ele>
        <time>2024-08-10T08:34:24Z</time>
      </trkpt>
      <trkpt lat="45.05192" lon="6.25818">
        <ele>2234.4</ele>
        <time>2024-08-10T08:34:25Z</time>
      </trkpt>
      <trkpt lat="45.05192" lon="6.25818">
        <ele>2234</ele>
        <time>2024-08-10T08:34:26Z</time>
      </trkpt>
      <trkpt lat="45.05193" lon="6.25822">
        <ele>2233.6</ele>
        <time>2024-08-10T08:34:27Z</time>
      </trkpt>
      <trkpt lat="45.05193" lon="6.25822">
        <ele>2233.6</ele>
        <time>2024-08-10T08:34:28Z</time>
      </trkpt>
      <trkpt lat="45.05195" lon="6.25826">
        <ele>2233.4</ele>
        <time>2024-08-10T08:34:29Z</time>
      </trkpt>
      <trkpt lat="45.05195" lon="6.25826">
        <ele>2233.2</ele>
        <time>2024-08-10T08:34:30Z</time>
      </trkpt>
      <trkpt lat="45.05195" lon="6.2583">
        <ele>2233.2</ele>
        <time>2024-08-10T08:34:31Z</time>
      </trkpt>
      <trkpt lat="45.05195" lon="6.2583">
        <ele>2233.2</ele>
        <time>2024-08-10T08:34:32Z</time>
      </trkpt>
      <trkpt lat="45.05195" lon="6.25835">
        <ele>2233</ele>
        <time>2024-08-10T08:34:33Z</time>
      </trkpt>
      <trkpt lat="45.05195" lon="6.25835">
        <ele>2232.8</ele>
        <time>2024-08-10T08:34:34Z</time>
      </trkpt>
      <trkpt lat="45.05195" lon="6.25839">
        <ele>2232.8</ele>
        <time>2024-08-10T08:34:35Z</time>
      </trkpt>
      <trkpt lat="45.05195" lon="6.25839">
        <ele>2232</ele>
        <time>2024-08-10T08:34:36Z</time>
      </trkpt>
      <trkpt lat="45.05197" lon="6.25844">
        <ele>2231.6</ele>
        <time>2024-08-10T08:34:37Z</time>
      </trkpt>
      <trkpt lat="45.05197" lon="6.25844">
        <ele>2231.4</ele>
        <time>2024-08-10T08:34:38Z</time>
      </trkpt>
      <trkpt lat="45.05197" lon="6.25848">
        <ele>2230.8</ele>
        <time>2024-08-10T08:34:39Z</time>
      </trkpt>
      <trkpt lat="45.05197" lon="6.25848">
        <ele>2230.4</ele>
        <time>2024-08-10T08:34:40Z</time>
      </trkpt>
      <trkpt lat="45.05197" lon="6.25852">
        <ele>2230.2</ele>
        <time>2024-08-10T08:34:41Z</time>
      </trkpt>
      <trkpt lat="45.05197" lon="6.25852">
        <ele>2229.8</ele>
        <time>2024-08-10T08:34:42Z</time>
      </trkpt>
      <trkpt lat="45.05198" lon="6.25856">
        <ele>2229.4</ele>
        <time>2024-08-10T08:34:43Z</time>
      </trkpt>
      <trkpt lat="45.05198" lon="6.25856">
        <ele>2229.4</ele>
        <time>2024-08-10T08:34:44Z</time>
      </trkpt>
      <trkpt lat="45.05199" lon="6.2586">
        <ele>2229.6</ele>
        <time>2024-08-10T08:34:45Z</time>
      </trkpt>
      <trkpt lat="45.05199" lon="6.2586">
        <ele>2229.6</ele>
        <time>2024-08-10T08:34:46Z</time>
      </trkpt>
      <trkpt lat="45.052" lon="6.25863">
        <ele>2229.6</ele>
        <time>2024-08-10T08:34:47Z</time>
      </trkpt>
      <trkpt lat="45.052" lon="6.25863">
        <ele>2229.6</ele>
        <time>2024-08-10T08:34:48Z</time>
      </trkpt>
      <trkpt lat="45.05201" lon="6.25867">
        <ele>2229.6</ele>
        <time>2024-08-10T08:34:49Z</time>
      </trkpt>
      <trkpt lat="45.05201" lon="6.25867">
        <ele>2229.6</ele>
        <time>2024-08-10T08:34:50Z</time>
      </trkpt>
      <trkpt lat="45.05201" lon="6.25871">
        <ele>2229.6</ele>
        <time>2024-08-10T08:34:51Z</time>
      </trkpt>
      <trkpt lat="45.05201" lon="6.25871">
        <ele>2229.6</ele>
        <time>2024-08-10T08:34:52Z</time>
      </trkpt>
      <trkpt lat="45.05201" lon="6.25875">
        <ele>2229.4</ele>
        <time>2024-08-10T08:34:53Z</time>
      </trkpt>
      <trkpt lat="45.05201" lon="6.25875">
        <ele>2229.4</ele>
        <time>2024-08-10T08:34:54Z</time>
      </trkpt>
      <trkpt lat="45.05201" lon="6.25879">
        <ele>2229.2</ele>
        <time>2024-08-10T08:34:55Z</time>
      </trkpt>
      <trkpt lat="45.05201" lon="6.25879">
        <ele>2229</ele>
        <time>2024-08-10T08:34:56Z</time>
      </trkpt>
      <trkpt lat="45.05201" lon="6.25884">
        <ele>2229</ele>
        <time>2024-08-10T08:34:57Z</time>
      </trkpt>
      <trkpt lat="45.05201" lon="6.25884">
        <ele>2229</ele>
        <time>2024-08-10T08:34:58Z</time>
      </trkpt>
      <trkpt lat="45.05201" lon="6.25884">
        <ele>2228.4</ele>
        <time>2024-08-10T08:34:59Z</time>
      </trkpt>
      <trkpt lat="45.05201" lon="6.25884">
        <ele>2228.2</ele>
        <time>2024-08-10T08:35:00Z</time>
      </trkpt>
      <trkpt lat="45.05201" lon="6.25884">
        <ele>2228.2</ele>
        <time>2024-08-10T08:35:01Z</time>
      </trkpt>
      <trkpt lat="45.05201" lon="6.25886">
        <ele>2228</ele>
        <time>2024-08-10T08:35:02Z</time>
      </trkpt>
      <trkpt lat="45.05201" lon="6.25886">
        <ele>2227.8</ele>
        <time>2024-08-10T08:35:03Z</time>
      </trkpt>
      <trkpt lat="45.05202" lon="6.25889">
        <ele>2227.8</ele>
        <time>2024-08-10T08:35:04Z</time>
      </trkpt>
      <trkpt lat="45.05202" lon="6.25889">
        <ele>2227.6</ele>
        <time>2024-08-10T08:35:05Z</time>
      </trkpt>
      <trkpt lat="45.05203" lon="6.25894">
        <ele>2227.6</ele>
        <time>2024-08-10T08:35:06Z</time>
      </trkpt>
      <trkpt lat="45.05203" lon="6.25894">
        <ele>2227.8</ele>
        <time>2024-08-10T08:35:07Z</time>
      </trkpt>
      <trkpt lat="45.05204" lon="6.25898">
        <ele>2228</ele>
        <time>2024-08-10T08:35:08Z</time>
      </trkpt>
      <trkpt lat="45.05204" lon="6.25898">
        <ele>2228</ele>
        <time>2024-08-10T08:35:09Z</time>
      </trkpt>
      <trkpt lat="45.05205" lon="6.25902">
        <ele>2227.8</ele>
        <time>2024-08-10T08:35:10Z</time>
      </trkpt>
      <trkpt lat="45.05205" lon="6.25902">
        <ele>2227.6</ele>
        <time>2024-08-10T08:35:11Z</time>
      </trkpt>
      <trkpt lat="45.05207" lon="6.25906">
        <ele>2227.4</ele>
        <time>2024-08-10T08:35:12Z</time>
      </trkpt>
      <trkpt lat="45.05207" lon="6.25906">
        <ele>2227.2</ele>
        <time>2024-08-10T08:35:13Z</time>
      </trkpt>
      <trkpt lat="45.05207" lon="6.25909">
        <ele>2227</ele>
        <time>2024-08-10T08:35:14Z</time>
      </trkpt>
      <trkpt lat="45.05207" lon="6.25909">
        <ele>2226.8</ele>
        <time>2024-08-10T08:35:15Z</time>
      </trkpt>
      <trkpt lat="45.05209" lon="6.25913">
        <ele>2226.8</ele>
        <time>2024-08-10T08:35:16Z</time>
      </trkpt>
      <trkpt lat="45.05209" lon="6.25913">
        <ele>2226.6</ele>
        <time>2024-08-10T08:35:17Z</time>
      </trkpt>
      <trkpt lat="45.05211" lon="6.25917">
        <ele>2226.4</ele>
        <time>2024-08-10T08:35:18Z</time>
      </trkpt>
      <trkpt lat="45.05211" lon="6.25917">
        <ele>2226</ele>
        <time>2024-08-10T08:35:19Z</time>
      </trkpt>
      <trkpt lat="45.05212" lon="6.25921">
        <ele>2225.8</ele>
        <time>2024-08-10T08:35:20Z</time>
      </trkpt>
      <trkpt lat="45.05212" lon="6.25921">
        <ele>2225.6</ele>
        <time>2024-08-10T08:35:21Z</time>
      </trkpt>
      <trkpt lat="45.05212" lon="6.25925">
        <ele>2225.4</ele>
        <time>2024-08-10T08:35:22Z</time>
      </trkpt>
      <trkpt lat="45.05212" lon="6.25925">
        <ele>2225</ele>
        <time>2024-08-10T08:35:23Z</time>
      </trkpt>
      <trkpt lat="45.05212" lon="6.25929">
        <ele>2225</ele>
        <time>2024-08-10T08:35:24Z</time>
      </trkpt>
      <trkpt lat="45.05212" lon="6.25929">
        <ele>2224.8</ele>
        <time>2024-08-10T08:35:25Z</time>
      </trkpt>
      <trkpt lat="45.05213" lon="6.25933">
        <ele>2224.4</ele>
        <time>2024-08-10T08:35:26Z</time>
      </trkpt>
      <trkpt lat="45.05213" lon="6.25933">
        <ele>2224.2</ele>
        <time>2024-08-10T08:35:27Z</time>
      </trkpt>
      <trkpt lat="45.05213" lon="6.25937">
        <ele>2224</ele>
        <time>2024-08-10T08:35:28Z</time>
      </trkpt>
      <trkpt lat="45.05213" lon="6.25937">
        <ele>2223.6</ele>
        <time>2024-08-10T08:35:29Z</time>
      </trkpt>
      <trkpt lat="45.05213" lon="6.25941">
        <ele>2222.8</ele>
        <time>2024-08-10T08:35:30Z</time>
      </trkpt>
      <trkpt lat="45.05213" lon="6.25941">
        <ele>2222.8</ele>
        <time>2024-08-10T08:35:31Z</time>
      </trkpt>
      <trkpt lat="45.05213" lon="6.25945">
        <ele>2222.6</ele>
        <time>2024-08-10T08:35:32Z</time>
      </trkpt>
      <trkpt lat="45.05213" lon="6.25945">
        <ele>2222.6</ele>
        <time>2024-08-10T08:35:33Z</time>
      </trkpt>
      <trkpt lat="45.05213" lon="6.25949">
        <ele>2222.2</ele>
        <time>2024-08-10T08:35:34Z</time>
      </trkpt>
      <trkpt lat="45.05213" lon="6.25949">
        <ele>2222.2</ele>
        <time>2024-08-10T08:35:35Z</time>
      </trkpt>
      <trkpt lat="45.05213" lon="6.25954">
        <ele>2222</ele>
        <time>2024-08-10T08:35:36Z</time>
      </trkpt>
      <trkpt lat="45.05213" lon="6.25954">
        <ele>2221.8</ele>
        <time>2024-08-10T08:35:37Z</time>
      </trkpt>
      <trkpt lat="45.05213" lon="6.25958">
        <ele>2221.8</ele>
        <time>2024-08-10T08:35:38Z</time>
      </trkpt>
      <trkpt lat="45.05213" lon="6.25958">
        <ele>2221.8</ele>
        <time>2024-08-10T08:35:39Z</time>
      </trkpt>
      <trkpt lat="45.05214" lon="6.25962">
        <ele>2221.6</ele>
        <time>2024-08-10T08:35:40Z</time>
      </trkpt>
      <trkpt lat="45.05214" lon="6.25962">
        <ele>2221.2</ele>
        <time>2024-08-10T08:35:41Z</time>
      </trkpt>
      <trkpt lat="45.05215" lon="6.25965">
        <ele>2221</ele>
        <time>2024-08-10T08:35:42Z</time>
      </trkpt>
      <trkpt lat="45.05215" lon="6.25965">
        <ele>2221</ele>
        <time>2024-08-10T08:35:43Z</time>
      </trkpt>
      <trkpt lat="45.05216" lon="6.2597">
        <ele>2220.8</ele>
        <time>2024-08-10T08:35:44Z</time>
      </trkpt>
      <trkpt lat="45.05216" lon="6.2597">
        <ele>2220.8</ele>
        <time>2024-08-10T08:35:45Z</time>
      </trkpt>
      <trkpt lat="45.05217" lon="6.25973">
        <ele>2220.8</ele>
        <time>2024-08-10T08:35:46Z</time>
      </trkpt>
      <trkpt lat="45.05217" lon="6.25973">
        <ele>2220.6</ele>
        <time>2024-08-10T08:35:47Z</time>
      </trkpt>
      <trkpt lat="45.05218" lon="6.25977">
        <ele>2220.4</ele>
        <time>2024-08-10T08:35:48Z</time>
      </trkpt>
      <trkpt lat="45.05218" lon="6.25977">
        <ele>2220</ele>
        <time>2024-08-10T08:35:49Z</time>
      </trkpt>
      <trkpt lat="45.05218" lon="6.25981">
        <ele>2219.8</ele>
        <time>2024-08-10T08:35:50Z</time>
      </trkpt>
      <trkpt lat="45.05218" lon="6.25981">
        <ele>2219.8</ele>
        <time>2024-08-10T08:35:51Z</time>
      </trkpt>
      <trkpt lat="45.05219" lon="6.25986">
        <ele>2219.8</ele>
        <time>2024-08-10T08:35:52Z</time>
      </trkpt>
      <trkpt lat="45.05219" lon="6.25986">
        <ele>2219.6</ele>
        <time>2024-08-10T08:35:53Z</time>
      </trkpt>
      <trkpt lat="45.05219" lon="6.25989">
        <ele>2219</ele>
        <time>2024-08-10T08:35:54Z</time>
      </trkpt>
      <trkpt lat="45.05219" lon="6.25989">
        <ele>2219</ele>
        <time>2024-08-10T08:35:55Z</time>
      </trkpt>
      <trkpt lat="45.0522" lon="6.25993">
        <ele>2218.8</ele>
        <time>2024-08-10T08:35:56Z</time>
      </trkpt>
      <trkpt lat="45.0522" lon="6.25993">
        <ele>2218.8</ele>
        <time>2024-08-10T08:35:57Z</time>
      </trkpt>
      <trkpt lat="45.05221" lon="6.25997">
        <ele>2218.4</ele>
        <time>2024-08-10T08:35:58Z</time>
      </trkpt>
      <trkpt lat="45.05221" lon="6.25997">
        <ele>2218</ele>
        <time>2024-08-10T08:35:59Z</time>
      </trkpt>
      <trkpt lat="45.05222" lon="6.26001">
        <ele>2218</ele>
        <time>2024-08-10T08:36:00Z</time>
      </trkpt>
      <trkpt lat="45.05222" lon="6.26001">
        <ele>2217.8</ele>
        <time>2024-08-10T08:36:01Z</time>
      </trkpt>
      <trkpt lat="45.05222" lon="6.26006">
        <ele>2217.8</ele>
        <time>2024-08-10T08:36:02Z</time>
      </trkpt>
      <trkpt lat="45.05222" lon="6.26006">
        <ele>2217.4</ele>
        <time>2024-08-10T08:36:03Z</time>
      </trkpt>
      <trkpt lat="45.05222" lon="6.26009">
        <ele>2217.4</ele>
        <time>2024-08-10T08:36:04Z</time>
      </trkpt>
      <trkpt lat="45.05222" lon="6.26009">
        <ele>2217.2</ele>
        <time>2024-08-10T08:36:05Z</time>
      </trkpt>
      <trkpt lat="45.05222" lon="6.26013">
        <ele>2217.2</ele>
        <time>2024-08-10T08:36:06Z</time>
      </trkpt>
      <trkpt lat="45.05222" lon="6.26013">
        <ele>2217.4</ele>
        <time>2024-08-10T08:36:07Z</time>
      </trkpt>
      <trkpt lat="45.05221" lon="6.26017">
        <ele>2217.6</ele>
        <time>2024-08-10T08:36:08Z</time>
      </trkpt>
      <trkpt lat="45.05221" lon="6.26017">
        <ele>2217.6</ele>
        <time>2024-08-10T08:36:09Z</time>
      </trkpt>
      <trkpt lat="45.05221" lon="6.26021">
        <ele>2217.6</ele>
        <time>2024-08-10T08:36:10Z</time>
      </trkpt>
      <trkpt lat="45.05221" lon="6.26021">
        <ele>2217.4</ele>
        <time>2024-08-10T08:36:11Z</time>
      </trkpt>
      <trkpt lat="45.05222" lon="6.26026">
        <ele>2217.2</ele>
        <time>2024-08-10T08:36:12Z</time>
      </trkpt>
      <trkpt lat="45.05222" lon="6.26026">
        <ele>2216.8</ele>
        <time>2024-08-10T08:36:13Z</time>
      </trkpt>
      <trkpt lat="45.05223" lon="6.26029">
        <ele>2216.4</ele>
        <time>2024-08-10T08:36:14Z</time>
      </trkpt>
      <trkpt lat="45.05223" lon="6.26029">
        <ele>2216.2</ele>
        <time>2024-08-10T08:36:15Z</time>
      </trkpt>
      <trkpt lat="45.05224" lon="6.26033">
        <ele>2216</ele>
        <time>2024-08-10T08:36:16Z</time>
      </trkpt>
      <trkpt lat="45.05224" lon="6.26033">
        <ele>2215.6</ele>
        <time>2024-08-10T08:36:17Z</time>
      </trkpt>
      <trkpt lat="45.05225" lon="6.26037">
        <ele>2215.6</ele>
        <time>2024-08-10T08:36:18Z</time>
      </trkpt>
      <trkpt lat="45.05225" lon="6.26037">
        <ele>2215.6</ele>
        <time>2024-08-10T08:36:19Z</time>
      </trkpt>
      <trkpt lat="45.05226" lon="6.26041">
        <ele>2215.4</ele>
        <time>2024-08-10T08:36:20Z</time>
      </trkpt>
      <trkpt lat="45.05226" lon="6.26041">
        <ele>2215</ele>
        <time>2024-08-10T08:36:21Z</time>
      </trkpt>
      <trkpt lat="45.05227" lon="6.26044">
        <ele>2214.8</ele>
        <time>2024-08-10T08:36:22Z</time>
      </trkpt>
      <trkpt lat="45.05227" lon="6.26044">
        <ele>2214.6</ele>
        <time>2024-08-10T08:36:23Z</time>
      </trkpt>
      <trkpt lat="45.05227" lon="6.26048">
        <ele>2214.2</ele>
        <time>2024-08-10T08:36:24Z</time>
      </trkpt>
      <trkpt lat="45.05227" lon="6.26048">
        <ele>2214.2</ele>
        <time>2024-08-10T08:36:25Z</time>
      </trkpt>
      <trkpt lat="45.05228" lon="6.26052">
        <ele>2214</ele>
        <time>2024-08-10T08:36:26Z</time>
      </trkpt>
      <trkpt lat="45.05228" lon="6.26052">
        <ele>2213.8</ele>
        <time>2024-08-10T08:36:27Z</time>
      </trkpt>
      <trkpt lat="45.05228" lon="6.26056">
        <ele>2213.6</ele>
        <time>2024-08-10T08:36:28Z</time>
      </trkpt>
      <trkpt lat="45.05228" lon="6.26056">
        <ele>2213.6</ele>
        <time>2024-08-10T08:36:29Z</time>
      </trkpt>
      <trkpt lat="45.05229" lon="6.2606">
        <ele>2213.2</ele>
        <time>2024-08-10T08:36:30Z</time>
      </trkpt>
      <trkpt lat="45.05229" lon="6.2606">
        <ele>2213</ele>
        <time>2024-08-10T08:36:31Z</time>
      </trkpt>
      <trkpt lat="45.0523" lon="6.26063">
        <ele>2213</ele>
        <time>2024-08-10T08:36:32Z</time>
      </trkpt>
      <trkpt lat="45.0523" lon="6.26063">
        <ele>2212.6</ele>
        <time>2024-08-10T08:36:33Z</time>
      </trkpt>
      <trkpt lat="45.05232" lon="6.26067">
        <ele>2212.2</ele>
        <time>2024-08-10T08:36:34Z</time>
      </trkpt>
      <trkpt lat="45.05232" lon="6.26067">
        <ele>2212.2</ele>
        <time>2024-08-10T08:36:35Z</time>
      </trkpt>
      <trkpt lat="45.05233" lon="6.26071">
        <ele>2212</ele>
        <time>2024-08-10T08:36:36Z</time>
      </trkpt>
      <trkpt lat="45.05233" lon="6.26071">
        <ele>2211.6</ele>
        <time>2024-08-10T08:36:37Z</time>
      </trkpt>
      <trkpt lat="45.05233" lon="6.26075">
        <ele>2211.4</ele>
        <time>2024-08-10T08:36:38Z</time>
      </trkpt>
      <trkpt lat="45.05233" lon="6.26075">
        <ele>2211.4</ele>
        <time>2024-08-10T08:36:39Z</time>
      </trkpt>
      <trkpt lat="45.05234" lon="6.26078">
        <ele>2211.2</ele>
        <time>2024-08-10T08:36:40Z</time>
      </trkpt>
      <trkpt lat="45.05234" lon="6.26078">
        <ele>2211</ele>
        <time>2024-08-10T08:36:41Z</time>
      </trkpt>
      <trkpt lat="45.05234" lon="6.26083">
        <ele>2210.8</ele>
        <time>2024-08-10T08:36:42Z</time>
      </trkpt>
      <trkpt lat="45.05234" lon="6.26083">
        <ele>2210.6</ele>
        <time>2024-08-10T08:36:43Z</time>
      </trkpt>
      <trkpt lat="45.05235" lon="6.26087">
        <ele>2210.4</ele>
        <time>2024-08-10T08:36:44Z</time>
      </trkpt>
      <trkpt lat="45.05235" lon="6.26087">
        <ele>2210.4</ele>
        <time>2024-08-10T08:36:45Z</time>
      </trkpt>
      <trkpt lat="45.05235" lon="6.26091">
        <ele>2210.2</ele>
        <time>2024-08-10T08:36:46Z</time>
      </trkpt>
      <trkpt lat="45.05235" lon="6.26091">
        <ele>2210.2</ele>
        <time>2024-08-10T08:36:47Z</time>
      </trkpt>
      <trkpt lat="45.05236" lon="6.26095">
        <ele>2210</ele>
        <time>2024-08-10T08:36:48Z</time>
      </trkpt>
      <trkpt lat="45.05236" lon="6.26095">
        <ele>2209.8</ele>
        <time>2024-08-10T08:36:49Z</time>
      </trkpt>
      <trkpt lat="45.05237" lon="6.26099">
        <ele>2209.4</ele>
        <time>2024-08-10T08:36:50Z</time>
      </trkpt>
      <trkpt lat="45.05237" lon="6.26099">
        <ele>2209.2</ele>
        <time>2024-08-10T08:36:51Z</time>
      </trkpt>
      <trkpt lat="45.05238" lon="6.26103">
        <ele>2209.2</ele>
        <time>2024-08-10T08:36:52Z</time>
      </trkpt>
      <trkpt lat="45.05238" lon="6.26103">
        <ele>2209.2</ele>
        <time>2024-08-10T08:36:53Z</time>
      </trkpt>
      <trkpt lat="45.05239" lon="6.26106">
        <ele>2209</ele>
        <time>2024-08-10T08:36:54Z</time>
      </trkpt>
      <trkpt lat="45.05239" lon="6.26106">
        <ele>2208.6</ele>
        <time>2024-08-10T08:36:55Z</time>
      </trkpt>
      <trkpt lat="45.0524" lon="6.2611">
        <ele>2208.6</ele>
        <time>2024-08-10T08:36:56Z</time>
      </trkpt>
      <trkpt lat="45.0524" lon="6.2611">
        <ele>2208.4</ele>
        <time>2024-08-10T08:36:57Z</time>
      </trkpt>
      <trkpt lat="45.05242" lon="6.26112">
        <ele>2208.2</ele>
        <time>2024-08-10T08:36:58Z</time>
      </trkpt>
      <trkpt lat="45.05242" lon="6.26112">
        <ele>2208.2</ele>
        <time>2024-08-10T08:36:59Z</time>
      </trkpt>
      <trkpt lat="45.05244" lon="6.26115">
        <ele>2208</ele>
        <time>2024-08-10T08:37:00Z</time>
      </trkpt>
      <trkpt lat="45.05244" lon="6.26115">
        <ele>2207.6</ele>
        <time>2024-08-10T08:37:01Z</time>
      </trkpt>
      <trkpt lat="45.05245" lon="6.26119">
        <ele>2207.4</ele>
        <time>2024-08-10T08:37:02Z</time>
      </trkpt>
      <trkpt lat="45.05245" lon="6.26119">
        <ele>2207</ele>
        <time>2024-08-10T08:37:03Z</time>
      </trkpt>
      <trkpt lat="45.05247" lon="6.26122">
        <ele>2207</ele>
        <time>2024-08-10T08:37:04Z</time>
      </trkpt>
      <trkpt lat="45.05247" lon="6.26122">
        <ele>2207</ele>
        <time>2024-08-10T08:37:05Z</time>
      </trkpt>
      <trkpt lat="45.05249" lon="6.26124">
        <ele>2206.6</ele>
        <time>2024-08-10T08:37:06Z</time>
      </trkpt>
      <trkpt lat="45.05249" lon="6.26124">
        <ele>2206.2</ele>
        <time>2024-08-10T08:37:07Z</time>
      </trkpt>
      <trkpt lat="45.0525" lon="6.26126">
        <ele>2206.2</ele>
        <time>2024-08-10T08:37:08Z</time>
      </trkpt>
      <trkpt lat="45.0525" lon="6.26126">
        <ele>2206</ele>
        <time>2024-08-10T08:37:09Z</time>
      </trkpt>
      <trkpt lat="45.05252" lon="6.26128">
        <ele>2206</ele>
        <time>2024-08-10T08:37:10Z</time>
      </trkpt>
      <trkpt lat="45.05252" lon="6.26128">
        <ele>2205.8</ele>
        <time>2024-08-10T08:37:11Z</time>
      </trkpt>
      <trkpt lat="45.05254" lon="6.26131">
        <ele>2205.6</ele>
        <time>2024-08-10T08:37:12Z</time>
      </trkpt>
      <trkpt lat="45.05254" lon="6.26131">
        <ele>2205.2</ele>
        <time>2024-08-10T08:37:13Z</time>
      </trkpt>
      <trkpt lat="45.05254" lon="6.26134">
        <ele>2205.2</ele>
        <time>2024-08-10T08:37:14Z</time>
      </trkpt>
      <trkpt lat="45.05254" lon="6.26134">
        <ele>2205</ele>
        <time>2024-08-10T08:37:15Z</time>
      </trkpt>
      <trkpt lat="45.05254" lon="6.26137">
        <ele>2204.4</ele>
        <time>2024-08-10T08:37:16Z</time>
      </trkpt>
      <trkpt lat="45.05254" lon="6.26137">
        <ele>2204.2</ele>
        <time>2024-08-10T08:37:17Z</time>
      </trkpt>
      <trkpt lat="45.05255" lon="6.2614">
        <ele>2203.8</ele>
        <time>2024-08-10T08:37:18Z</time>
      </trkpt>
      <trkpt lat="45.05255" lon="6.2614">
        <ele>2203.2</ele>
        <time>2024-08-10T08:37:19Z</time>
      </trkpt>
      <trkpt lat="45.05256" lon="6.26143">
        <ele>2203.2</ele>
        <time>2024-08-10T08:37:20Z</time>
      </trkpt>
      <trkpt lat="45.05256" lon="6.26143">
        <ele>2203</ele>
        <time>2024-08-10T08:37:21Z</time>
      </trkpt>
      <trkpt lat="45.05257" lon="6.26146">
        <ele>2202.6</ele>
        <time>2024-08-10T08:37:22Z</time>
      </trkpt>
      <trkpt lat="45.05257" lon="6.26146">
        <ele>2202.6</ele>
        <time>2024-08-10T08:37:23Z</time>
      </trkpt>
      <trkpt lat="45.05258" lon="6.2615">
        <ele>2202.2</ele>
        <time>2024-08-10T08:37:24Z</time>
      </trkpt>
      <trkpt lat="45.05258" lon="6.2615">
        <ele>2202</ele>
        <time>2024-08-10T08:37:25Z</time>
      </trkpt>
      <trkpt lat="45.0526" lon="6.26153">
        <ele>2201.8</ele>
        <time>2024-08-10T08:37:26Z</time>
      </trkpt>
      <trkpt lat="45.0526" lon="6.26153">
        <ele>2201.2</ele>
        <time>2024-08-10T08:37:27Z</time>
      </trkpt>
      <trkpt lat="45.05261" lon="6.26156">
        <ele>2201</ele>
        <time>2024-08-10T08:37:28Z</time>
      </trkpt>
      <trkpt lat="45.05261" lon="6.26156">
        <ele>2200.4</ele>
        <time>2024-08-10T08:37:29Z</time>
      </trkpt>
      <trkpt lat="45.05261" lon="6.26159">
        <ele>2200.2</ele>
        <time>2024-08-10T08:37:30Z</time>
      </trkpt>
      <trkpt lat="45.05262" lon="6.26161">
        <ele>2200.2</ele>
        <time>2024-08-10T08:37:31Z</time>
      </trkpt>
      <trkpt lat="45.05262" lon="6.26161">
        <ele>2200.2</ele>
        <time>2024-08-10T08:37:32Z</time>
      </trkpt>
      <trkpt lat="45.05263" lon="6.26164">
        <ele>2200.2</ele>
        <time>2024-08-10T08:37:33Z</time>
      </trkpt>
      <trkpt lat="45.05263" lon="6.26164">
        <ele>2199.8</ele>
        <time>2024-08-10T08:37:34Z</time>
      </trkpt>
      <trkpt lat="45.05265" lon="6.26168">
        <ele>2199.4</ele>
        <time>2024-08-10T08:37:35Z</time>
      </trkpt>
      <trkpt lat="45.05265" lon="6.26168">
        <ele>2199.2</ele>
        <time>2024-08-10T08:37:36Z</time>
      </trkpt>
      <trkpt lat="45.05265" lon="6.26172">
        <ele>2199.2</ele>
        <time>2024-08-10T08:37:37Z</time>
      </trkpt>
      <trkpt lat="45.05265" lon="6.26172">
        <ele>2199</ele>
        <time>2024-08-10T08:37:38Z</time>
      </trkpt>
      <trkpt lat="45.05264" lon="6.26176">
        <ele>2199</ele>
        <time>2024-08-10T08:37:39Z</time>
      </trkpt>
      <trkpt lat="45.05264" lon="6.26176">
        <ele>2199</ele>
        <time>2024-08-10T08:37:40Z</time>
      </trkpt>
      <trkpt lat="45.05263" lon="6.2618">
        <ele>2199</ele>
        <time>2024-08-10T08:37:41Z</time>
      </trkpt>
      <trkpt lat="45.05263" lon="6.2618">
        <ele>2199</ele>
        <time>2024-08-10T08:37:42Z</time>
      </trkpt>
      <trkpt lat="45.05262" lon="6.26184">
        <ele>2198.8</ele>
        <time>2024-08-10T08:37:43Z</time>
      </trkpt>
      <trkpt lat="45.05262" lon="6.26184">
        <ele>2198.8</ele>
        <time>2024-08-10T08:37:44Z</time>
      </trkpt>
      <trkpt lat="45.05261" lon="6.26188">
        <ele>2198.8</ele>
        <time>2024-08-10T08:37:45Z</time>
      </trkpt>
      <trkpt lat="45.05261" lon="6.26188">
        <ele>2198.8</ele>
        <time>2024-08-10T08:37:46Z</time>
      </trkpt>
      <trkpt lat="45.05261" lon="6.26192">
        <ele>2198.6</ele>
        <time>2024-08-10T08:37:47Z</time>
      </trkpt>
      <trkpt lat="45.05261" lon="6.26192">
        <ele>2198.6</ele>
        <time>2024-08-10T08:37:48Z</time>
      </trkpt>
      <trkpt lat="45.0526" lon="6.26195">
        <ele>2198.6</ele>
        <time>2024-08-10T08:37:49Z</time>
      </trkpt>
      <trkpt lat="45.0526" lon="6.26195">
        <ele>2198.6</ele>
        <time>2024-08-10T08:37:50Z</time>
      </trkpt>
      <trkpt lat="45.0526" lon="6.26199">
        <ele>2198.4</ele>
        <time>2024-08-10T08:37:51Z</time>
      </trkpt>
      <trkpt lat="45.0526" lon="6.26199">
        <ele>2198.2</ele>
        <time>2024-08-10T08:37:52Z</time>
      </trkpt>
      <trkpt lat="45.05259" lon="6.26203">
        <ele>2198.2</ele>
        <time>2024-08-10T08:37:53Z</time>
      </trkpt>
      <trkpt lat="45.05259" lon="6.26203">
        <ele>2198.2</ele>
        <time>2024-08-10T08:37:54Z</time>
      </trkpt>
      <trkpt lat="45.05259" lon="6.26206">
        <ele>2198.6</ele>
        <time>2024-08-10T08:37:55Z</time>
      </trkpt>
      <trkpt lat="45.05259" lon="6.26206">
        <ele>2198.6</ele>
        <time>2024-08-10T08:37:56Z</time>
      </trkpt>
      <trkpt lat="45.05259" lon="6.2621">
        <ele>2198.4</ele>
        <time>2024-08-10T08:37:57Z</time>
      </trkpt>
      <trkpt lat="45.05259" lon="6.2621">
        <ele>2198.2</ele>
        <time>2024-08-10T08:37:58Z</time>
      </trkpt>
      <trkpt lat="45.05259" lon="6.26214">
        <ele>2198</ele>
        <time>2024-08-10T08:37:59Z</time>
      </trkpt>
      <trkpt lat="45.05259" lon="6.26214">
        <ele>2197.6</ele>
        <time>2024-08-10T08:38:00Z</time>
      </trkpt>
      <trkpt lat="45.05259" lon="6.26219">
        <ele>2197.6</ele>
        <time>2024-08-10T08:38:01Z</time>
      </trkpt>
      <trkpt lat="45.05259" lon="6.26219">
        <ele>2197.6</ele>
        <time>2024-08-10T08:38:02Z</time>
      </trkpt>
      <trkpt lat="45.0526" lon="6.26223">
        <ele>2197.4</ele>
        <time>2024-08-10T08:38:03Z</time>
      </trkpt>
      <trkpt lat="45.0526" lon="6.26223">
        <ele>2197.4</ele>
        <time>2024-08-10T08:38:04Z</time>
      </trkpt>
      <trkpt lat="45.0526" lon="6.26226">
        <ele>2197.4</ele>
        <time>2024-08-10T08:38:05Z</time>
      </trkpt>
      <trkpt lat="45.0526" lon="6.26226">
        <ele>2197.4</ele>
        <time>2024-08-10T08:38:06Z</time>
      </trkpt>
      <trkpt lat="45.05261" lon="6.2623">
        <ele>2197.4</ele>
        <time>2024-08-10T08:38:07Z</time>
      </trkpt>
      <trkpt lat="45.05261" lon="6.2623">
        <ele>2197.2</ele>
        <time>2024-08-10T08:38:08Z</time>
      </trkpt>
      <trkpt lat="45.05261" lon="6.26234">
        <ele>2197.2</ele>
        <time>2024-08-10T08:38:09Z</time>
      </trkpt>
      <trkpt lat="45.05261" lon="6.26234">
        <ele>2197</ele>
        <time>2024-08-10T08:38:10Z</time>
      </trkpt>
      <trkpt lat="45.05261" lon="6.26237">
        <ele>2197</ele>
        <time>2024-08-10T08:38:11Z</time>
      </trkpt>
      <trkpt lat="45.05261" lon="6.26237">
        <ele>2197</ele>
        <time>2024-08-10T08:38:12Z</time>
      </trkpt>
      <trkpt lat="45.05262" lon="6.26241">
        <ele>2197.2</ele>
        <time>2024-08-10T08:38:13Z</time>
      </trkpt>
      <trkpt lat="45.05262" lon="6.26241">
        <ele>2197.2</ele>
        <time>2024-08-10T08:38:14Z</time>
      </trkpt>
      <trkpt lat="45.05262" lon="6.26245">
        <ele>2197.4</ele>
        <time>2024-08-10T08:38:15Z</time>
      </trkpt>
      <trkpt lat="45.05262" lon="6.26245">
        <ele>2197.4</ele>
        <time>2024-08-10T08:38:16Z</time>
      </trkpt>
      <trkpt lat="45.05262" lon="6.26249">
        <ele>2197.2</ele>
        <time>2024-08-10T08:38:17Z</time>
      </trkpt>
      <trkpt lat="45.05262" lon="6.26249">
        <ele>2197.2</ele>
        <time>2024-08-10T08:38:18Z</time>
      </trkpt>
      <trkpt lat="45.05262" lon="6.26253">
        <ele>2197</ele>
        <time>2024-08-10T08:38:19Z</time>
      </trkpt>
      <trkpt lat="45.05262" lon="6.26253">
        <ele>2197</ele>
        <time>2024-08-10T08:38:20Z</time>
      </trkpt>
      <trkpt lat="45.05262" lon="6.26257">
        <ele>2196.8</ele>
        <time>2024-08-10T08:38:21Z</time>
      </trkpt>
      <trkpt lat="45.05262" lon="6.26257">
        <ele>2196.8</ele>
        <time>2024-08-10T08:38:22Z</time>
      </trkpt>
      <trkpt lat="45.05262" lon="6.26261">
        <ele>2196.6</ele>
        <time>2024-08-10T08:38:23Z</time>
      </trkpt>
      <trkpt lat="45.05262" lon="6.26261">
        <ele>2196.6</ele>
        <time>2024-08-10T08:38:24Z</time>
      </trkpt>
      <trkpt lat="45.05263" lon="6.26265">
        <ele>2196.6</ele>
        <time>2024-08-10T08:38:25Z</time>
      </trkpt>
      <trkpt lat="45.05263" lon="6.26265">
        <ele>2196.6</ele>
        <time>2024-08-10T08:38:26Z</time>
      </trkpt>
      <trkpt lat="45.05263" lon="6.26268">
        <ele>2196.6</ele>
        <time>2024-08-10T08:38:27Z</time>
      </trkpt>
      <trkpt lat="45.05263" lon="6.26268">
        <ele>2196.6</ele>
        <time>2024-08-10T08:38:28Z</time>
      </trkpt>
      <trkpt lat="45.05265" lon="6.26272">
        <ele>2196.6</ele>
        <time>2024-08-10T08:38:29Z</time>
      </trkpt>
      <trkpt lat="45.05265" lon="6.26274">
        <ele>2196.6</ele>
        <time>2024-08-10T08:38:30Z</time>
      </trkpt>
      <trkpt lat="45.05265" lon="6.26274">
        <ele>2196.6</ele>
        <time>2024-08-10T08:38:31Z</time>
      </trkpt>
      <trkpt lat="45.05266" lon="6.26278">
        <ele>2196.6</ele>
        <time>2024-08-10T08:38:32Z</time>
      </trkpt>
      <trkpt lat="45.05266" lon="6.26278">
        <ele>2196.6</ele>
        <time>2024-08-10T08:38:33Z</time>
      </trkpt>
      <trkpt lat="45.05266" lon="6.26282">
        <ele>2196.4</ele>
        <time>2024-08-10T08:38:34Z</time>
      </trkpt>
      <trkpt lat="45.05266" lon="6.26282">
        <ele>2195.8</ele>
        <time>2024-08-10T08:38:35Z</time>
      </trkpt>
      <trkpt lat="45.05266" lon="6.26285">
        <ele>2195.8</ele>
        <time>2024-08-10T08:38:36Z</time>
      </trkpt>
      <trkpt lat="45.05266" lon="6.26285">
        <ele>2195.8</ele>
        <time>2024-08-10T08:38:37Z</time>
      </trkpt>
      <trkpt lat="45.05266" lon="6.26289">
        <ele>2195.4</ele>
        <time>2024-08-10T08:38:38Z</time>
      </trkpt>
      <trkpt lat="45.05266" lon="6.26289">
        <ele>2195.2</ele>
        <time>2024-08-10T08:38:39Z</time>
      </trkpt>
      <trkpt lat="45.05267" lon="6.26292">
        <ele>2195</ele>
        <time>2024-08-10T08:38:40Z</time>
      </trkpt>
      <trkpt lat="45.05267" lon="6.26292">
        <ele>2195</ele>
        <time>2024-08-10T08:38:41Z</time>
      </trkpt>
      <trkpt lat="45.05268" lon="6.26296">
        <ele>2195</ele>
        <time>2024-08-10T08:38:42Z</time>
      </trkpt>
      <trkpt lat="45.05268" lon="6.26296">
        <ele>2195</ele>
        <time>2024-08-10T08:38:43Z</time>
      </trkpt>
      <trkpt lat="45.05268" lon="6.26299">
        <ele>2195</ele>
        <time>2024-08-10T08:38:44Z</time>
      </trkpt>
      <trkpt lat="45.05268" lon="6.26299">
        <ele>2195</ele>
        <time>2024-08-10T08:38:45Z</time>
      </trkpt>
      <trkpt lat="45.05268" lon="6.26303">
        <ele>2194.6</ele>
        <time>2024-08-10T08:38:46Z</time>
      </trkpt>
      <trkpt lat="45.05268" lon="6.26303">
        <ele>2194.6</ele>
        <time>2024-08-10T08:38:47Z</time>
      </trkpt>
      <trkpt lat="45.05268" lon="6.26305">
        <ele>2194.6</ele>
        <time>2024-08-10T08:38:48Z</time>
      </trkpt>
      <trkpt lat="45.05268" lon="6.26305">
        <ele>2194.2</ele>
        <time>2024-08-10T08:38:49Z</time>
      </trkpt>
      <trkpt lat="45.05269" lon="6.26308">
        <ele>2194</ele>
        <time>2024-08-10T08:38:50Z</time>
      </trkpt>
      <trkpt lat="45.05269" lon="6.26308">
        <ele>2194</ele>
        <time>2024-08-10T08:38:51Z</time>
      </trkpt>
      <trkpt lat="45.05269" lon="6.26311">
        <ele>2194</ele>
        <time>2024-08-10T08:38:52Z</time>
      </trkpt>
      <trkpt lat="45.05269" lon="6.26311">
        <ele>2193.8</ele>
        <time>2024-08-10T08:38:53Z</time>
      </trkpt>
      <trkpt lat="45.05269" lon="6.26315">
        <ele>2193.8</ele>
        <time>2024-08-10T08:38:54Z</time>
      </trkpt>
      <trkpt lat="45.05269" lon="6.26315">
        <ele>2193.4</ele>
        <time>2024-08-10T08:38:55Z</time>
      </trkpt>
      <trkpt lat="45.05269" lon="6.26318">
        <ele>2192.8</ele>
        <time>2024-08-10T08:38:56Z</time>
      </trkpt>
      <trkpt lat="45.05269" lon="6.26318">
        <ele>2192.4</ele>
        <time>2024-08-10T08:38:57Z</time>
      </trkpt>
      <trkpt lat="45.05269" lon="6.26318">
        <ele>2192</ele>
        <time>2024-08-10T08:38:58Z</time>
      </trkpt>
      <trkpt lat="45.0527" lon="6.26321">
        <ele>2192</ele>
        <time>2024-08-10T08:38:59Z</time>
      </trkpt>
      <trkpt lat="45.0527" lon="6.26321">
        <ele>2191.6</ele>
        <time>2024-08-10T08:39:00Z</time>
      </trkpt>
      <trkpt lat="45.0527" lon="6.26324">
        <ele>2191.2</ele>
        <time>2024-08-10T08:39:01Z</time>
      </trkpt>
      <trkpt lat="45.0527" lon="6.26324">
        <ele>2191.2</ele>
        <time>2024-08-10T08:39:02Z</time>
      </trkpt>
      <trkpt lat="45.05272" lon="6.26327">
        <ele>2190.2</ele>
        <time>2024-08-10T08:39:03Z</time>
      </trkpt>
      <trkpt lat="45.05272" lon="6.26327">
        <ele>2190.2</ele>
        <time>2024-08-10T08:39:04Z</time>
      </trkpt>
      <trkpt lat="45.05274" lon="6.2633">
        <ele>2190.2</ele>
        <time>2024-08-10T08:39:05Z</time>
      </trkpt>
      <trkpt lat="45.05274" lon="6.2633">
        <ele>2190.2</ele>
        <time>2024-08-10T08:39:06Z</time>
      </trkpt>
      <trkpt lat="45.05275" lon="6.26332">
        <ele>2190.2</ele>
        <time>2024-08-10T08:39:07Z</time>
      </trkpt>
      <trkpt lat="45.05275" lon="6.26332">
        <ele>2189.8</ele>
        <time>2024-08-10T08:39:08Z</time>
      </trkpt>
      <trkpt lat="45.05277" lon="6.26334">
        <ele>2189.6</ele>
        <time>2024-08-10T08:39:09Z</time>
      </trkpt>
      <trkpt lat="45.05277" lon="6.26334">
        <ele>2189.4</ele>
        <time>2024-08-10T08:39:10Z</time>
      </trkpt>
      <trkpt lat="45.05278" lon="6.26337">
        <ele>2189.2</ele>
        <time>2024-08-10T08:39:11Z</time>
      </trkpt>
      <trkpt lat="45.05278" lon="6.26337">
        <ele>2189.2</ele>
        <time>2024-08-10T08:39:12Z</time>
      </trkpt>
      <trkpt lat="45.0528" lon="6.26339">
        <ele>2188.8</ele>
        <time>2024-08-10T08:39:13Z</time>
      </trkpt>
      <trkpt lat="45.0528" lon="6.26339">
        <ele>2188.6</ele>
        <time>2024-08-10T08:39:14Z</time>
      </trkpt>
      <trkpt lat="45.05283" lon="6.26341">
        <ele>2188.4</ele>
        <time>2024-08-10T08:39:15Z</time>
      </trkpt>
      <trkpt lat="45.05283" lon="6.26341">
        <ele>2188.2</ele>
        <time>2024-08-10T08:39:16Z</time>
      </trkpt>
      <trkpt lat="45.05285" lon="6.26343">
        <ele>2188.2</ele>
        <time>2024-08-10T08:39:17Z</time>
      </trkpt>
      <trkpt lat="45.05285" lon="6.26343">
        <ele>2188.2</ele>
        <time>2024-08-10T08:39:18Z</time>
      </trkpt>
      <trkpt lat="45.05287" lon="6.26345">
        <ele>2188.2</ele>
        <time>2024-08-10T08:39:19Z</time>
      </trkpt>
      <trkpt lat="45.05287" lon="6.26345">
        <ele>2188.2</ele>
        <time>2024-08-10T08:39:20Z</time>
      </trkpt>
      <trkpt lat="45.05289" lon="6.26347">
        <ele>2188.2</ele>
        <time>2024-08-10T08:39:21Z</time>
      </trkpt>
      <trkpt lat="45.05289" lon="6.26347">
        <ele>2187.6</ele>
        <time>2024-08-10T08:39:22Z</time>
      </trkpt>
      <trkpt lat="45.05292" lon="6.2635">
        <ele>2187.6</ele>
        <time>2024-08-10T08:39:23Z</time>
      </trkpt>
      <trkpt lat="45.05292" lon="6.2635">
        <ele>2187.8</ele>
        <time>2024-08-10T08:39:24Z</time>
      </trkpt>
      <trkpt lat="45.05293" lon="6.26353">
        <ele>2187.8</ele>
        <time>2024-08-10T08:39:25Z</time>
      </trkpt>
      <trkpt lat="45.05293" lon="6.26353">
        <ele>2187.8</ele>
        <time>2024-08-10T08:39:26Z</time>
      </trkpt>
      <trkpt lat="45.05295" lon="6.26356">
        <ele>2187.8</ele>
        <time>2024-08-10T08:39:27Z</time>
      </trkpt>
      <trkpt lat="45.05295" lon="6.26356">
        <ele>2187.8</ele>
        <time>2024-08-10T08:39:28Z</time>
      </trkpt>
      <trkpt lat="45.05296" lon="6.26359">
        <ele>2187.8</ele>
        <time>2024-08-10T08:39:29Z</time>
      </trkpt>
      <trkpt lat="45.05298" lon="6.26361">
        <ele>2187.8</ele>
        <time>2024-08-10T08:39:30Z</time>
      </trkpt>
      <trkpt lat="45.05298" lon="6.26361">
        <ele>2188</ele>
        <time>2024-08-10T08:39:31Z</time>
      </trkpt>
      <trkpt lat="45.05299" lon="6.26364">
        <ele>2188</ele>
        <time>2024-08-10T08:39:32Z</time>
      </trkpt>
      <trkpt lat="45.05299" lon="6.26364">
        <ele>2188</ele>
        <time>2024-08-10T08:39:33Z</time>
      </trkpt>
      <trkpt lat="45.053" lon="6.26368">
        <ele>2188</ele>
        <time>2024-08-10T08:39:34Z</time>
      </trkpt>
      <trkpt lat="45.053" lon="6.26368">
        <ele>2188</ele>
        <time>2024-08-10T08:39:35Z</time>
      </trkpt>
      <trkpt lat="45.05301" lon="6.26373">
        <ele>2188</ele>
        <time>2024-08-10T08:39:36Z</time>
      </trkpt>
      <trkpt lat="45.05301" lon="6.26373">
        <ele>2187.8</ele>
        <time>2024-08-10T08:39:37Z</time>
      </trkpt>
      <trkpt lat="45.05301" lon="6.26377">
        <ele>2187.8</ele>
        <time>2024-08-10T08:39:38Z</time>
      </trkpt>
      <trkpt lat="45.05301" lon="6.26377">
        <ele>2187.4</ele>
        <time>2024-08-10T08:39:39Z</time>
      </trkpt>
      <trkpt lat="45.053" lon="6.26381">
        <ele>2187.2</ele>
        <time>2024-08-10T08:39:40Z</time>
      </trkpt>
      <trkpt lat="45.053" lon="6.26381">
        <ele>2187</ele>
        <time>2024-08-10T08:39:41Z</time>
      </trkpt>
      <trkpt lat="45.05299" lon="6.26385">
        <ele>2187</ele>
        <time>2024-08-10T08:39:42Z</time>
      </trkpt>
      <trkpt lat="45.05299" lon="6.26385">
        <ele>2187.4</ele>
        <time>2024-08-10T08:39:43Z</time>
      </trkpt>
      <trkpt lat="45.053" lon="6.26389">
        <ele>2187.4</ele>
        <time>2024-08-10T08:39:44Z</time>
      </trkpt>
      <trkpt lat="45.053" lon="6.26389">
        <ele>2187.2</ele>
        <time>2024-08-10T08:39:45Z</time>
      </trkpt>
      <trkpt lat="45.053" lon="6.26393">
        <ele>2187</ele>
        <time>2024-08-10T08:39:46Z</time>
      </trkpt>
      <trkpt lat="45.053" lon="6.26393">
        <ele>2187</ele>
        <time>2024-08-10T08:39:47Z</time>
      </trkpt>
      <trkpt lat="45.05299" lon="6.26397">
        <ele>2186.8</ele>
        <time>2024-08-10T08:39:48Z</time>
      </trkpt>
      <trkpt lat="45.05299" lon="6.26397">
        <ele>2186.8</ele>
        <time>2024-08-10T08:39:49Z</time>
      </trkpt>
      <trkpt lat="45.05299" lon="6.264">
        <ele>2186.8</ele>
        <time>2024-08-10T08:39:50Z</time>
      </trkpt>
      <trkpt lat="45.05299" lon="6.264">
        <ele>2186.8</ele>
        <time>2024-08-10T08:39:51Z</time>
      </trkpt>
      <trkpt lat="45.05299" lon="6.26404">
        <ele>2186.8</ele>
        <time>2024-08-10T08:39:52Z</time>
      </trkpt>
      <trkpt lat="45.05299" lon="6.26404">
        <ele>2186.6</ele>
        <time>2024-08-10T08:39:53Z</time>
      </trkpt>
      <trkpt lat="45.05299" lon="6.26408">
        <ele>2186.4</ele>
        <time>2024-08-10T08:39:54Z</time>
      </trkpt>
      <trkpt lat="45.05299" lon="6.26408">
        <ele>2186.2</ele>
        <time>2024-08-10T08:39:55Z</time>
      </trkpt>
      <trkpt lat="45.053" lon="6.26412">
        <ele>2186.2</ele>
        <time>2024-08-10T08:39:56Z</time>
      </trkpt>
      <trkpt lat="45.053" lon="6.26412">
        <ele>2186.2</ele>
        <time>2024-08-10T08:39:57Z</time>
      </trkpt>
      <trkpt lat="45.053" lon="6.26416">
        <ele>2186.2</ele>
        <time>2024-08-10T08:39:58Z</time>
      </trkpt>
      <trkpt lat="45.053" lon="6.26416">
        <ele>2186.2</ele>
        <time>2024-08-10T08:39:59Z</time>
      </trkpt>
      <trkpt lat="45.05301" lon="6.2642">
        <ele>2186.2</ele>
        <time>2024-08-10T08:40:00Z</time>
      </trkpt>
      <trkpt lat="45.05301" lon="6.2642">
        <ele>2186.2</ele>
        <time>2024-08-10T08:40:01Z</time>
      </trkpt>
      <trkpt lat="45.05301" lon="6.26424">
        <ele>2186</ele>
        <time>2024-08-10T08:40:02Z</time>
      </trkpt>
      <trkpt lat="45.05301" lon="6.26424">
        <ele>2185.8</ele>
        <time>2024-08-10T08:40:03Z</time>
      </trkpt>
      <trkpt lat="45.05302" lon="6.26428">
        <ele>2185.8</ele>
        <time>2024-08-10T08:40:04Z</time>
      </trkpt>
      <trkpt lat="45.05302" lon="6.26428">
        <ele>2185.8</ele>
        <time>2024-08-10T08:40:05Z</time>
      </trkpt>
      <trkpt lat="45.05303" lon="6.26431">
        <ele>2185.6</ele>
        <time>2024-08-10T08:40:06Z</time>
      </trkpt>
      <trkpt lat="45.05303" lon="6.26431">
        <ele>2185.6</ele>
        <time>2024-08-10T08:40:07Z</time>
      </trkpt>
      <trkpt lat="45.05305" lon="6.26434">
        <ele>2185.6</ele>
        <time>2024-08-10T08:40:08Z</time>
      </trkpt>
      <trkpt lat="45.05305" lon="6.26434">
        <ele>2185.6</ele>
        <time>2024-08-10T08:40:09Z</time>
      </trkpt>
      <trkpt lat="45.05307" lon="6.26436">
        <ele>2185.4</ele>
        <time>2024-08-10T08:40:10Z</time>
      </trkpt>
      <trkpt lat="45.05308" lon="6.26438">
        <ele>2185.4</ele>
        <time>2024-08-10T08:40:11Z</time>
      </trkpt>
      <trkpt lat="45.05308" lon="6.26438">
        <ele>2185.2</ele>
        <time>2024-08-10T08:40:12Z</time>
      </trkpt>
      <trkpt lat="45.05309" lon="6.26442">
        <ele>2185.2</ele>
        <time>2024-08-10T08:40:13Z</time>
      </trkpt>
      <trkpt lat="45.05309" lon="6.26442">
        <ele>2185.2</ele>
        <time>2024-08-10T08:40:14Z</time>
      </trkpt>
      <trkpt lat="45.0531" lon="6.26446">
        <ele>2185.2</ele>
        <time>2024-08-10T08:40:15Z</time>
      </trkpt>
      <trkpt lat="45.0531" lon="6.26446">
        <ele>2185.4</ele>
        <time>2024-08-10T08:40:16Z</time>
      </trkpt>
      <trkpt lat="45.0531" lon="6.2645">
        <ele>2185.4</ele>
        <time>2024-08-10T08:40:17Z</time>
      </trkpt>
      <trkpt lat="45.0531" lon="6.2645">
        <ele>2185</ele>
        <time>2024-08-10T08:40:18Z</time>
      </trkpt>
      <trkpt lat="45.05311" lon="6.26455">
        <ele>2184.6</ele>
        <time>2024-08-10T08:40:19Z</time>
      </trkpt>
      <trkpt lat="45.05311" lon="6.26455">
        <ele>2184.4</ele>
        <time>2024-08-10T08:40:20Z</time>
      </trkpt>
      <trkpt lat="45.05312" lon="6.26459">
        <ele>2184.2</ele>
        <time>2024-08-10T08:40:21Z</time>
      </trkpt>
      <trkpt lat="45.05312" lon="6.26459">
        <ele>2183.6</ele>
        <time>2024-08-10T08:40:22Z</time>
      </trkpt>
      <trkpt lat="45.05312" lon="6.26463">
        <ele>2183.6</ele>
        <time>2024-08-10T08:40:23Z</time>
      </trkpt>
      <trkpt lat="45.05312" lon="6.26463">
        <ele>2184</ele>
        <time>2024-08-10T08:40:24Z</time>
      </trkpt>
      <trkpt lat="45.05312" lon="6.26465">
        <ele>2184</ele>
        <time>2024-08-10T08:40:25Z</time>
      </trkpt>
      <trkpt lat="45.05312" lon="6.26465">
        <ele>2183.8</ele>
        <time>2024-08-10T08:40:26Z</time>
      </trkpt>
      <trkpt lat="45.05312" lon="6.26465">
        <ele>2183.8</ele>
        <time>2024-08-10T08:40:27Z</time>
      </trkpt>
      <trkpt lat="45.05312" lon="6.26465">
        <ele>2183.4</ele>
        <time>2024-08-10T08:40:28Z</time>
      </trkpt>
      <trkpt lat="45.05312" lon="6.26465">
        <ele>2183</ele>
        <time>2024-08-10T08:40:29Z</time>
      </trkpt>
      <trkpt lat="45.05312" lon="6.26465">
        <ele>2181.6</ele>
        <time>2024-08-10T08:40:30Z</time>
      </trkpt>
      <trkpt lat="45.05312" lon="6.26465">
        <ele>2181.6</ele>
        <time>2024-08-10T08:40:31Z</time>
      </trkpt>
      <trkpt lat="45.05312" lon="6.26465">
        <ele>2181.2</ele>
        <time>2024-08-10T08:40:32Z</time>
      </trkpt>
      <trkpt lat="45.05314" lon="6.26469">
        <ele>2181.2</ele>
        <time>2024-08-10T08:40:33Z</time>
      </trkpt>
      <trkpt lat="45.05314" lon="6.26469">
        <ele>2181.6</ele>
        <time>2024-08-10T08:40:34Z</time>
      </trkpt>
      <trkpt lat="45.05315" lon="6.26473">
        <ele>2181.6</ele>
        <time>2024-08-10T08:40:35Z</time>
      </trkpt>
      <trkpt lat="45.05315" lon="6.26473">
        <ele>2181.4</ele>
        <time>2024-08-10T08:40:36Z</time>
      </trkpt>
      <trkpt lat="45.05316" lon="6.26478">
        <ele>2181.4</ele>
        <time>2024-08-10T08:40:37Z</time>
      </trkpt>
      <trkpt lat="45.05316" lon="6.26478">
        <ele>2181.4</ele>
        <time>2024-08-10T08:40:38Z</time>
      </trkpt>
      <trkpt lat="45.05317" lon="6.26482">
        <ele>2181.2</ele>
        <time>2024-08-10T08:40:39Z</time>
      </trkpt>
      <trkpt lat="45.05317" lon="6.26482">
        <ele>2181</ele>
        <time>2024-08-10T08:40:40Z</time>
      </trkpt>
      <trkpt lat="45.05318" lon="6.26485">
        <ele>2180.6</ele>
        <time>2024-08-10T08:40:41Z</time>
      </trkpt>
      <trkpt lat="45.05318" lon="6.26485">
        <ele>2180.6</ele>
        <time>2024-08-10T08:40:42Z</time>
      </trkpt>
      <trkpt lat="45.0532" lon="6.26488">
        <ele>2180.6</ele>
        <time>2024-08-10T08:40:43Z</time>
      </trkpt>
      <trkpt lat="45.0532" lon="6.26488">
        <ele>2180.6</ele>
        <time>2024-08-10T08:40:44Z</time>
      </trkpt>
      <trkpt lat="45.05321" lon="6.26493">
        <ele>2180.2</ele>
        <time>2024-08-10T08:40:45Z</time>
      </trkpt>
      <trkpt lat="45.05321" lon="6.26493">
        <ele>2180.2</ele>
        <time>2024-08-10T08:40:46Z</time>
      </trkpt>
      <trkpt lat="45.05322" lon="6.26496">
        <ele>2179.8</ele>
        <time>2024-08-10T08:40:47Z</time>
      </trkpt>
      <trkpt lat="45.05322" lon="6.26496">
        <ele>2179.8</ele>
        <time>2024-08-10T08:40:48Z</time>
      </trkpt>
      <trkpt lat="45.05324" lon="6.26499">
        <ele>2179.8</ele>
        <time>2024-08-10T08:40:49Z</time>
      </trkpt>
      <trkpt lat="45.05324" lon="6.26499">
        <ele>2180</ele>
        <time>2024-08-10T08:40:50Z</time>
      </trkpt>
      <trkpt lat="45.05324" lon="6.26504">
        <ele>2180</ele>
        <time>2024-08-10T08:40:51Z</time>
      </trkpt>
      <trkpt lat="45.05324" lon="6.26504">
        <ele>2180</ele>
        <time>2024-08-10T08:40:52Z</time>
      </trkpt>
      <trkpt lat="45.05324" lon="6.26508">
        <ele>2179.8</ele>
        <time>2024-08-10T08:40:53Z</time>
      </trkpt>
      <trkpt lat="45.05324" lon="6.26508">
        <ele>2179.8</ele>
        <time>2024-08-10T08:40:54Z</time>
      </trkpt>
      <trkpt lat="45.05324" lon="6.26512">
        <ele>2179.8</ele>
        <time>2024-08-10T08:40:55Z</time>
      </trkpt>
      <trkpt lat="45.05324" lon="6.26512">
        <ele>2179.8</ele>
        <time>2024-08-10T08:40:56Z</time>
      </trkpt>
      <trkpt lat="45.05325" lon="6.26515">
        <ele>2179.8</ele>
        <time>2024-08-10T08:40:57Z</time>
      </trkpt>
      <trkpt lat="45.05325" lon="6.26515">
        <ele>2179.8</ele>
        <time>2024-08-10T08:40:58Z</time>
      </trkpt>
      <trkpt lat="45.05325" lon="6.26519">
        <ele>2179.8</ele>
        <time>2024-08-10T08:40:59Z</time>
      </trkpt>
      <trkpt lat="45.05325" lon="6.26519">
        <ele>2179.8</ele>
        <time>2024-08-10T08:41:00Z</time>
      </trkpt>
      <trkpt lat="45.05325" lon="6.26523">
        <ele>2179.8</ele>
        <time>2024-08-10T08:41:01Z</time>
      </trkpt>
      <trkpt lat="45.05325" lon="6.26523">
        <ele>2179.8</ele>
        <time>2024-08-10T08:41:02Z</time>
      </trkpt>
      <trkpt lat="45.05326" lon="6.26527">
        <ele>2179.8</ele>
        <time>2024-08-10T08:41:03Z</time>
      </trkpt>
      <trkpt lat="45.05326" lon="6.26527">
        <ele>2179.6</ele>
        <time>2024-08-10T08:41:04Z</time>
      </trkpt>
      <trkpt lat="45.05327" lon="6.26531">
        <ele>2179.2</ele>
        <time>2024-08-10T08:41:05Z</time>
      </trkpt>
      <trkpt lat="45.05327" lon="6.26531">
        <ele>2179</ele>
        <time>2024-08-10T08:41:06Z</time>
      </trkpt>
      <trkpt lat="45.05328" lon="6.26534">
        <ele>2179</ele>
        <time>2024-08-10T08:41:07Z</time>
      </trkpt>
      <trkpt lat="45.05328" lon="6.26534">
        <ele>2179</ele>
        <time>2024-08-10T08:41:08Z</time>
      </trkpt>
      <trkpt lat="45.05328" lon="6.26538">
        <ele>2179</ele>
        <time>2024-08-10T08:41:09Z</time>
      </trkpt>
      <trkpt lat="45.05328" lon="6.26538">
        <ele>2179</ele>
        <time>2024-08-10T08:41:10Z</time>
      </trkpt>
      <trkpt lat="45.0533" lon="6.26541">
        <ele>2178.8</ele>
        <time>2024-08-10T08:41:11Z</time>
      </trkpt>
      <trkpt lat="45.0533" lon="6.26541">
        <ele>2178.8</ele>
        <time>2024-08-10T08:41:12Z</time>
      </trkpt>
      <trkpt lat="45.05331" lon="6.26545">
        <ele>2178.8</ele>
        <time>2024-08-10T08:41:13Z</time>
      </trkpt>
      <trkpt lat="45.05331" lon="6.26545">
        <ele>2179</ele>
        <time>2024-08-10T08:41:14Z</time>
      </trkpt>
      <trkpt lat="45.05332" lon="6.26549">
        <ele>2179</ele>
        <time>2024-08-10T08:41:15Z</time>
      </trkpt>
      <trkpt lat="45.05332" lon="6.26549">
        <ele>2179</ele>
        <time>2024-08-10T08:41:16Z</time>
      </trkpt>
      <trkpt lat="45.05333" lon="6.26553">
        <ele>2179</ele>
        <time>2024-08-10T08:41:17Z</time>
      </trkpt>
      <trkpt lat="45.05333" lon="6.26553">
        <ele>2179.2</ele>
        <time>2024-08-10T08:41:18Z</time>
      </trkpt>
      <trkpt lat="45.05333" lon="6.26557">
        <ele>2179.2</ele>
        <time>2024-08-10T08:41:19Z</time>
      </trkpt>
      <trkpt lat="45.05333" lon="6.26557">
        <ele>2179</ele>
        <time>2024-08-10T08:41:20Z</time>
      </trkpt>
      <trkpt lat="45.05334" lon="6.26561">
        <ele>2179</ele>
        <time>2024-08-10T08:41:21Z</time>
      </trkpt>
      <trkpt lat="45.05334" lon="6.26561">
        <ele>2178.8</ele>
        <time>2024-08-10T08:41:22Z</time>
      </trkpt>
      <trkpt lat="45.05334" lon="6.26564">
        <ele>2178.8</ele>
        <time>2024-08-10T08:41:23Z</time>
      </trkpt>
      <trkpt lat="45.05334" lon="6.26564">
        <ele>2179</ele>
        <time>2024-08-10T08:41:24Z</time>
      </trkpt>
      <trkpt lat="45.05335" lon="6.26568">
        <ele>2179</ele>
        <time>2024-08-10T08:41:25Z</time>
      </trkpt>
      <trkpt lat="45.05335" lon="6.26568">
        <ele>2179</ele>
        <time>2024-08-10T08:41:26Z</time>
      </trkpt>
      <trkpt lat="45.05335" lon="6.26571">
        <ele>2179</ele>
        <time>2024-08-10T08:41:27Z</time>
      </trkpt>
      <trkpt lat="45.05335" lon="6.26571">
        <ele>2179</ele>
        <time>2024-08-10T08:41:28Z</time>
      </trkpt>
      <trkpt lat="45.05335" lon="6.26575">
        <ele>2179</ele>
        <time>2024-08-10T08:41:29Z</time>
      </trkpt>
      <trkpt lat="45.05335" lon="6.26575">
        <ele>2179</ele>
        <time>2024-08-10T08:41:30Z</time>
      </trkpt>
      <trkpt lat="45.05334" lon="6.26579">
        <ele>2179</ele>
        <time>2024-08-10T08:41:31Z</time>
      </trkpt>
      <trkpt lat="45.05334" lon="6.26579">
        <ele>2179</ele>
        <time>2024-08-10T08:41:32Z</time>
      </trkpt>
      <trkpt lat="45.05333" lon="6.26583">
        <ele>2179</ele>
        <time>2024-08-10T08:41:33Z</time>
      </trkpt>
      <trkpt lat="45.05333" lon="6.26583">
        <ele>2179</ele>
        <time>2024-08-10T08:41:34Z</time>
      </trkpt>
      <trkpt lat="45.05332" lon="6.26587">
        <ele>2179.2</ele>
        <time>2024-08-10T08:41:35Z</time>
      </trkpt>
      <trkpt lat="45.05332" lon="6.26587">
        <ele>2179.2</ele>
        <time>2024-08-10T08:41:36Z</time>
      </trkpt>
      <trkpt lat="45.05332" lon="6.26591">
        <ele>2179.6</ele>
        <time>2024-08-10T08:41:37Z</time>
      </trkpt>
      <trkpt lat="45.05332" lon="6.26591">
        <ele>2179.6</ele>
        <time>2024-08-10T08:41:38Z</time>
      </trkpt>
      <trkpt lat="45.05332" lon="6.26594">
        <ele>2179.6</ele>
        <time>2024-08-10T08:41:39Z</time>
      </trkpt>
      <trkpt lat="45.05332" lon="6.26594">
        <ele>2179.6</ele>
        <time>2024-08-10T08:41:40Z</time>
      </trkpt>
      <trkpt lat="45.0533" lon="6.26599">
        <ele>2179.8</ele>
        <time>2024-08-10T08:41:41Z</time>
      </trkpt>
      <trkpt lat="45.0533" lon="6.26599">
        <ele>2179.6</ele>
        <time>2024-08-10T08:41:42Z</time>
      </trkpt>
      <trkpt lat="45.05329" lon="6.26602">
        <ele>2179.4</ele>
        <time>2024-08-10T08:41:43Z</time>
      </trkpt>
      <trkpt lat="45.05328" lon="6.26604">
        <ele>2179.4</ele>
        <time>2024-08-10T08:41:44Z</time>
      </trkpt>
      <trkpt lat="45.05328" lon="6.26604">
        <ele>2179.4</ele>
        <time>2024-08-10T08:41:45Z</time>
      </trkpt>
      <trkpt lat="45.05327" lon="6.26608">
        <ele>2179.6</ele>
        <time>2024-08-10T08:41:46Z</time>
      </trkpt>
      <trkpt lat="45.05327" lon="6.26608">
        <ele>2179.8</ele>
        <time>2024-08-10T08:41:47Z</time>
      </trkpt>
      <trkpt lat="45.05325" lon="6.26612">
        <ele>2179.8</ele>
        <time>2024-08-10T08:41:48Z</time>
      </trkpt>
      <trkpt lat="45.05325" lon="6.26612">
        <ele>2179.6</ele>
        <time>2024-08-10T08:41:49Z</time>
      </trkpt>
      <trkpt lat="45.05326" lon="6.26615">
        <ele>2179.6</ele>
        <time>2024-08-10T08:41:50Z</time>
      </trkpt>
      <trkpt lat="45.05326" lon="6.26615">
        <ele>2179.8</ele>
        <time>2024-08-10T08:41:51Z</time>
      </trkpt>
      <trkpt lat="45.05326" lon="6.26619">
        <ele>2180</ele>
        <time>2024-08-10T08:41:52Z</time>
      </trkpt>
      <trkpt lat="45.05326" lon="6.26619">
        <ele>2180</ele>
        <time>2024-08-10T08:41:53Z</time>
      </trkpt>
      <trkpt lat="45.05326" lon="6.26623">
        <ele>2180.2</ele>
        <time>2024-08-10T08:41:54Z</time>
      </trkpt>
      <trkpt lat="45.05326" lon="6.26623">
        <ele>2180.6</ele>
        <time>2024-08-10T08:41:55Z</time>
      </trkpt>
      <trkpt lat="45.05326" lon="6.26623">
        <ele>2180.6</ele>
        <time>2024-08-10T08:41:56Z</time>
      </trkpt>
      <trkpt lat="45.05327" lon="6.26626">
        <ele>2180.6</ele>
        <time>2024-08-10T08:41:57Z</time>
      </trkpt>
      <trkpt lat="45.05327" lon="6.26626">
        <ele>2180.4</ele>
        <time>2024-08-10T08:41:58Z</time>
      </trkpt>
      <trkpt lat="45.05327" lon="6.26629">
        <ele>2180</ele>
        <time>2024-08-10T08:41:59Z</time>
      </trkpt>
      <trkpt lat="45.05327" lon="6.26629">
        <ele>2180</ele>
        <time>2024-08-10T08:42:00Z</time>
      </trkpt>
      <trkpt lat="45.05327" lon="6.26629">
        <ele>2180</ele>
        <time>2024-08-10T08:42:01Z</time>
      </trkpt>
      <trkpt lat="45.05326" lon="6.26632">
        <ele>2180</ele>
        <time>2024-08-10T08:42:02Z</time>
      </trkpt>
      <trkpt lat="45.05326" lon="6.26632">
        <ele>2180</ele>
        <time>2024-08-10T08:42:03Z</time>
      </trkpt>
      <trkpt lat="45.05327" lon="6.26635">
        <ele>2179.8</ele>
        <time>2024-08-10T08:42:04Z</time>
      </trkpt>
      <trkpt lat="45.05327" lon="6.26635">
        <ele>2179.4</ele>
        <time>2024-08-10T08:42:05Z</time>
      </trkpt>
      <trkpt lat="45.05327" lon="6.26637">
        <ele>2179.2</ele>
        <time>2024-08-10T08:42:06Z</time>
      </trkpt>
      <trkpt lat="45.05327" lon="6.26637">
        <ele>2179.2</ele>
        <time>2024-08-10T08:42:07Z</time>
      </trkpt>
      <trkpt lat="45.05327" lon="6.26637">
        <ele>2179.2</ele>
        <time>2024-08-10T08:42:08Z</time>
      </trkpt>
      <trkpt lat="45.05325" lon="6.2664">
        <ele>2178.8</ele>
        <time>2024-08-10T08:42:09Z</time>
      </trkpt>
      <trkpt lat="45.05325" lon="6.2664">
        <ele>2178.6</ele>
        <time>2024-08-10T08:42:10Z</time>
      </trkpt>
      <trkpt lat="45.05325" lon="6.2664">
        <ele>2178.6</ele>
        <time>2024-08-10T08:42:11Z</time>
      </trkpt>
      <trkpt lat="45.05325" lon="6.2664">
        <ele>2178.6</ele>
        <time>2024-08-10T08:42:12Z</time>
      </trkpt>
      <trkpt lat="45.05325" lon="6.2664">
        <ele>2178.4</ele>
        <time>2024-08-10T08:42:13Z</time>
      </trkpt>
      <trkpt lat="45.05325" lon="6.2664">
        <ele>2178.4</ele>
        <time>2024-08-10T08:42:14Z</time>
      </trkpt>
      <trkpt lat="45.05325" lon="6.2664">
        <ele>2178.4</ele>
        <time>2024-08-10T08:42:15Z</time>
      </trkpt>
      <trkpt lat="45.05325" lon="6.2664">
        <ele>2178.4</ele>
        <time>2024-08-10T08:42:16Z</time>
      </trkpt>
      <trkpt lat="45.05325" lon="6.2664">
        <ele>2178.4</ele>
        <time>2024-08-10T08:42:17Z</time>
      </trkpt>
      <trkpt lat="45.05325" lon="6.2664">
        <ele>2178.4</ele>
        <time>2024-08-10T08:42:18Z</time>
      </trkpt>
      <trkpt lat="45.05325" lon="6.26643">
        <ele>2178.4</ele>
        <time>2024-08-10T08:42:19Z</time>
      </trkpt>
      <trkpt lat="45.05325" lon="6.26643">
        <ele>2178.2</ele>
        <time>2024-08-10T08:42:20Z</time>
      </trkpt>
      <trkpt lat="45.05324" lon="6.26647">
        <ele>2178.2</ele>
        <time>2024-08-10T08:42:21Z</time>
      </trkpt>
      <trkpt lat="45.05324" lon="6.26647">
        <ele>2178.2</ele>
        <time>2024-08-10T08:42:22Z</time>
      </trkpt>
      <trkpt lat="45.05324" lon="6.26647">
        <ele>2177.2</ele>
        <time>2024-08-10T08:42:23Z</time>
      </trkpt>
      <trkpt lat="45.05324" lon="6.26647">
        <ele>2177</ele>
        <time>2024-08-10T08:42:24Z</time>
      </trkpt>
      <trkpt lat="45.05324" lon="6.2665">
        <ele>2176.6</ele>
        <time>2024-08-10T08:42:25Z</time>
      </trkpt>
      <trkpt lat="45.05324" lon="6.2665">
        <ele>2176.6</ele>
        <time>2024-08-10T08:42:26Z</time>
      </trkpt>
      <trkpt lat="45.05324" lon="6.2665">
        <ele>2176.6</ele>
        <time>2024-08-10T08:42:27Z</time>
      </trkpt>
      <trkpt lat="45.05324" lon="6.2665">
        <ele>2176.6</ele>
        <time>2024-08-10T08:42:28Z</time>
      </trkpt>
      <trkpt lat="45.05324" lon="6.2665">
        <ele>2176.8</ele>
        <time>2024-08-10T08:42:29Z</time>
      </trkpt>
      <trkpt lat="45.05324" lon="6.2665">
        <ele>2177</ele>
        <time>2024-08-10T08:42:30Z</time>
      </trkpt>
      <trkpt lat="45.05324" lon="6.2665">
        <ele>2177</ele>
        <time>2024-08-10T08:42:31Z</time>
      </trkpt>
      <trkpt lat="45.05324" lon="6.2665">
        <ele>2177</ele>
        <time>2024-08-10T08:42:32Z</time>
      </trkpt>
      <trkpt lat="45.05324" lon="6.2665">
        <ele>2177.4</ele>
        <time>2024-08-10T08:42:33Z</time>
      </trkpt>
      <trkpt lat="45.05324" lon="6.2665">
        <ele>2177.4</ele>
        <time>2024-08-10T08:42:34Z</time>
      </trkpt>
      <trkpt lat="45.05324" lon="6.2665">
        <ele>2177</ele>
        <time>2024-08-10T08:42:35Z</time>
      </trkpt>
      <trkpt lat="45.05324" lon="6.26653">
        <ele>2176.2</ele>
        <time>2024-08-10T08:42:36Z</time>
      </trkpt>
      <trkpt lat="45.05324" lon="6.26653">
        <ele>2176.2</ele>
        <time>2024-08-10T08:42:37Z</time>
      </trkpt>
      <trkpt lat="45.05322" lon="6.26656">
        <ele>2176.2</ele>
        <time>2024-08-10T08:42:38Z</time>
      </trkpt>
      <trkpt lat="45.05322" lon="6.26656">
        <ele>2176.2</ele>
        <time>2024-08-10T08:42:39Z</time>
      </trkpt>
      <trkpt lat="45.05322" lon="6.2666">
        <ele>2175.6</ele>
        <time>2024-08-10T08:42:40Z</time>
      </trkpt>
      <trkpt lat="45.05322" lon="6.2666">
        <ele>2175.6</ele>
        <time>2024-08-10T08:42:41Z</time>
      </trkpt>
      <trkpt lat="45.05321" lon="6.26662">
        <ele>2175.4</ele>
        <time>2024-08-10T08:42:42Z</time>
      </trkpt>
      <trkpt lat="45.05321" lon="6.26662">
        <ele>2175.2</ele>
        <time>2024-08-10T08:42:43Z</time>
      </trkpt>
      <trkpt lat="45.05321" lon="6.26662">
        <ele>2174.8</ele>
        <time>2024-08-10T08:42:44Z</time>
      </trkpt>
      <trkpt lat="45.0532" lon="6.26666">
        <ele>2174.6</ele>
        <time>2024-08-10T08:42:45Z</time>
      </trkpt>
      <trkpt lat="45.0532" lon="6.26666">
        <ele>2174.4</ele>
        <time>2024-08-10T08:42:46Z</time>
      </trkpt>
      <trkpt lat="45.0532" lon="6.26669">
        <ele>2174.2</ele>
        <time>2024-08-10T08:42:47Z</time>
      </trkpt>
      <trkpt lat="45.0532" lon="6.26669">
        <ele>2173.8</ele>
        <time>2024-08-10T08:42:48Z</time>
      </trkpt>
      <trkpt lat="45.05319" lon="6.26672">
        <ele>2173.8</ele>
        <time>2024-08-10T08:42:49Z</time>
      </trkpt>
      <trkpt lat="45.05319" lon="6.26672">
        <ele>2173.4</ele>
        <time>2024-08-10T08:42:50Z</time>
      </trkpt>
      <trkpt lat="45.05318" lon="6.26675">
        <ele>2173</ele>
        <time>2024-08-10T08:42:51Z</time>
      </trkpt>
      <trkpt lat="45.05318" lon="6.26675">
        <ele>2172.8</ele>
        <time>2024-08-10T08:42:52Z</time>
      </trkpt>
      <trkpt lat="45.05317" lon="6.26678">
        <ele>2172.8</ele>
        <time>2024-08-10T08:42:53Z</time>
      </trkpt>
      <trkpt lat="45.05317" lon="6.26678">
        <ele>2172.4</ele>
        <time>2024-08-10T08:42:54Z</time>
      </trkpt>
      <trkpt lat="45.05317" lon="6.26681">
        <ele>2172</ele>
        <time>2024-08-10T08:42:55Z</time>
      </trkpt>
      <trkpt lat="45.05317" lon="6.26681">
        <ele>2172</ele>
        <time>2024-08-10T08:42:56Z</time>
      </trkpt>
      <trkpt lat="45.05316" lon="6.26684">
        <ele>2171.6</ele>
        <time>2024-08-10T08:42:57Z</time>
      </trkpt>
      <trkpt lat="45.05316" lon="6.26684">
        <ele>2171.4</ele>
        <time>2024-08-10T08:42:58Z</time>
      </trkpt>
      <trkpt lat="45.05316" lon="6.26687">
        <ele>2171.2</ele>
        <time>2024-08-10T08:42:59Z</time>
      </trkpt>
      <trkpt lat="45.05316" lon="6.26687">
        <ele>2171</ele>
        <time>2024-08-10T08:43:00Z</time>
      </trkpt>
      <trkpt lat="45.05315" lon="6.2669">
        <ele>2170.8</ele>
        <time>2024-08-10T08:43:01Z</time>
      </trkpt>
      <trkpt lat="45.05315" lon="6.2669">
        <ele>2170.4</ele>
        <time>2024-08-10T08:43:02Z</time>
      </trkpt>
      <trkpt lat="45.05314" lon="6.26693">
        <ele>2169.8</ele>
        <time>2024-08-10T08:43:03Z</time>
      </trkpt>
      <trkpt lat="45.05314" lon="6.26693">
        <ele>2169.8</ele>
        <time>2024-08-10T08:43:04Z</time>
      </trkpt>
      <trkpt lat="45.05313" lon="6.26697">
        <ele>2169.2</ele>
        <time>2024-08-10T08:43:05Z</time>
      </trkpt>
      <trkpt lat="45.05313" lon="6.26697">
        <ele>2168.8</ele>
        <time>2024-08-10T08:43:06Z</time>
      </trkpt>
      <trkpt lat="45.05314" lon="6.267">
        <ele>2168.8</ele>
        <time>2024-08-10T08:43:07Z</time>
      </trkpt>
      <trkpt lat="45.05314" lon="6.267">
        <ele>2168.4</ele>
        <time>2024-08-10T08:43:08Z</time>
      </trkpt>
      <trkpt lat="45.05314" lon="6.26704">
        <ele>2168</ele>
        <time>2024-08-10T08:43:09Z</time>
      </trkpt>
      <trkpt lat="45.05314" lon="6.26704">
        <ele>2167.6</ele>
        <time>2024-08-10T08:43:10Z</time>
      </trkpt>
      <trkpt lat="45.05314" lon="6.26707">
        <ele>2167</ele>
        <time>2024-08-10T08:43:11Z</time>
      </trkpt>
      <trkpt lat="45.05314" lon="6.26707">
        <ele>2166.8</ele>
        <time>2024-08-10T08:43:12Z</time>
      </trkpt>
      <trkpt lat="45.05314" lon="6.26711">
        <ele>2166</ele>
        <time>2024-08-10T08:43:13Z</time>
      </trkpt>
      <trkpt lat="45.05314" lon="6.26711">
        <ele>2166</ele>
        <time>2024-08-10T08:43:14Z</time>
      </trkpt>
      <trkpt lat="45.05312" lon="6.26714">
        <ele>2165.4</ele>
        <time>2024-08-10T08:43:15Z</time>
      </trkpt>
      <trkpt lat="45.05312" lon="6.26714">
        <ele>2165.2</ele>
        <time>2024-08-10T08:43:16Z</time>
      </trkpt>
      <trkpt lat="45.05312" lon="6.26717">
        <ele>2164.8</ele>
        <time>2024-08-10T08:43:17Z</time>
      </trkpt>
      <trkpt lat="45.05312" lon="6.26717">
        <ele>2164.2</ele>
        <time>2024-08-10T08:43:18Z</time>
      </trkpt>
      <trkpt lat="45.05312" lon="6.26721">
        <ele>2164</ele>
        <time>2024-08-10T08:43:19Z</time>
      </trkpt>
      <trkpt lat="45.05312" lon="6.26721">
        <ele>2163.8</ele>
        <time>2024-08-10T08:43:20Z</time>
      </trkpt>
      <trkpt lat="45.05311" lon="6.26724">
        <ele>2163.6</ele>
        <time>2024-08-10T08:43:21Z</time>
      </trkpt>
      <trkpt lat="45.05311" lon="6.26724">
        <ele>2163.4</ele>
        <time>2024-08-10T08:43:22Z</time>
      </trkpt>
      <trkpt lat="45.05311" lon="6.26727">
        <ele>2163</ele>
        <time>2024-08-10T08:43:23Z</time>
      </trkpt>
      <trkpt lat="45.05311" lon="6.26727">
        <ele>2162.8</ele>
        <time>2024-08-10T08:43:24Z</time>
      </trkpt>
      <trkpt lat="45.05311" lon="6.2673">
        <ele>2162.4</ele>
        <time>2024-08-10T08:43:25Z</time>
      </trkpt>
      <trkpt lat="45.05311" lon="6.2673">
        <ele>2161.8</ele>
        <time>2024-08-10T08:43:26Z</time>
      </trkpt>
      <trkpt lat="45.05311" lon="6.26733">
        <ele>2161.6</ele>
        <time>2024-08-10T08:43:27Z</time>
      </trkpt>
      <trkpt lat="45.05311" lon="6.26733">
        <ele>2161.6</ele>
        <time>2024-08-10T08:43:28Z</time>
      </trkpt>
      <trkpt lat="45.0531" lon="6.26737">
        <ele>2161</ele>
        <time>2024-08-10T08:43:29Z</time>
      </trkpt>
      <trkpt lat="45.0531" lon="6.26737">
        <ele>2160.4</ele>
        <time>2024-08-10T08:43:30Z</time>
      </trkpt>
      <trkpt lat="45.0531" lon="6.2674">
        <ele>2159.8</ele>
        <time>2024-08-10T08:43:31Z</time>
      </trkpt>
      <trkpt lat="45.0531" lon="6.2674">
        <ele>2159.8</ele>
        <time>2024-08-10T08:43:32Z</time>
      </trkpt>
      <trkpt lat="45.0531" lon="6.26743">
        <ele>2159.6</ele>
        <time>2024-08-10T08:43:33Z</time>
      </trkpt>
      <trkpt lat="45.0531" lon="6.26743">
        <ele>2159.4</ele>
        <time>2024-08-10T08:43:34Z</time>
      </trkpt>
      <trkpt lat="45.05309" lon="6.26746">
        <ele>2159.4</ele>
        <time>2024-08-10T08:43:35Z</time>
      </trkpt>
      <trkpt lat="45.05309" lon="6.26746">
        <ele>2159</ele>
        <time>2024-08-10T08:43:36Z</time>
      </trkpt>
      <trkpt lat="45.05309" lon="6.26746">
        <ele>2158.8</ele>
        <time>2024-08-10T08:43:37Z</time>
      </trkpt>
      <trkpt lat="45.0531" lon="6.26749">
        <ele>2158.4</ele>
        <time>2024-08-10T08:43:38Z</time>
      </trkpt>
      <trkpt lat="45.0531" lon="6.26749">
        <ele>2158.2</ele>
        <time>2024-08-10T08:43:39Z</time>
      </trkpt>
      <trkpt lat="45.0531" lon="6.26749">
        <ele>2158</ele>
        <time>2024-08-10T08:43:40Z</time>
      </trkpt>
      <trkpt lat="45.05313" lon="6.26751">
        <ele>2157.8</ele>
        <time>2024-08-10T08:43:41Z</time>
      </trkpt>
      <trkpt lat="45.05313" lon="6.26751">
        <ele>2157.6</ele>
        <time>2024-08-10T08:43:42Z</time>
      </trkpt>
      <trkpt lat="45.05315" lon="6.26753">
        <ele>2157.2</ele>
        <time>2024-08-10T08:43:43Z</time>
      </trkpt>
      <trkpt lat="45.05315" lon="6.26753">
        <ele>2156.8</ele>
        <time>2024-08-10T08:43:44Z</time>
      </trkpt>
      <trkpt lat="45.05316" lon="6.26756">
        <ele>2156.6</ele>
        <time>2024-08-10T08:43:45Z</time>
      </trkpt>
      <trkpt lat="45.05318" lon="6.26757">
        <ele>2156.4</ele>
        <time>2024-08-10T08:43:46Z</time>
      </trkpt>
      <trkpt lat="45.05318" lon="6.26757">
        <ele>2156.4</ele>
        <time>2024-08-10T08:43:47Z</time>
      </trkpt>
      <trkpt lat="45.0532" lon="6.26759">
        <ele>2156.4</ele>
        <time>2024-08-10T08:43:48Z</time>
      </trkpt>
      <trkpt lat="45.0532" lon="6.26759">
        <ele>2156</ele>
        <time>2024-08-10T08:43:49Z</time>
      </trkpt>
      <trkpt lat="45.05319" lon="6.26762">
        <ele>2155.4</ele>
        <time>2024-08-10T08:43:50Z</time>
      </trkpt>
      <trkpt lat="45.05319" lon="6.26762">
        <ele>2155</ele>
        <time>2024-08-10T08:43:51Z</time>
      </trkpt>
      <trkpt lat="45.05317" lon="6.26765">
        <ele>2154.8</ele>
        <time>2024-08-10T08:43:52Z</time>
      </trkpt>
      <trkpt lat="45.05317" lon="6.26765">
        <ele>2154.4</ele>
        <time>2024-08-10T08:43:53Z</time>
      </trkpt>
      <trkpt lat="45.05314" lon="6.26767">
        <ele>2154.2</ele>
        <time>2024-08-10T08:43:54Z</time>
      </trkpt>
      <trkpt lat="45.05314" lon="6.26767">
        <ele>2153.8</ele>
        <time>2024-08-10T08:43:55Z</time>
      </trkpt>
      <trkpt lat="45.05312" lon="6.2677">
        <ele>2153.8</ele>
        <time>2024-08-10T08:43:56Z</time>
      </trkpt>
      <trkpt lat="45.05312" lon="6.2677">
        <ele>2153.4</ele>
        <time>2024-08-10T08:43:57Z</time>
      </trkpt>
      <trkpt lat="45.05311" lon="6.26773">
        <ele>2153.4</ele>
        <time>2024-08-10T08:43:58Z</time>
      </trkpt>
      <trkpt lat="45.05311" lon="6.26773">
        <ele>2153.2</ele>
        <time>2024-08-10T08:43:59Z</time>
      </trkpt>
      <trkpt lat="45.05309" lon="6.26776">
        <ele>2153</ele>
        <time>2024-08-10T08:44:00Z</time>
      </trkpt>
      <trkpt lat="45.05309" lon="6.26776">
        <ele>2152.6</ele>
        <time>2024-08-10T08:44:01Z</time>
      </trkpt>
      <trkpt lat="45.05308" lon="6.26778">
        <ele>2152.6</ele>
        <time>2024-08-10T08:44:02Z</time>
      </trkpt>
      <trkpt lat="45.05308" lon="6.26778">
        <ele>2152</ele>
        <time>2024-08-10T08:44:03Z</time>
      </trkpt>
      <trkpt lat="45.05307" lon="6.26781">
        <ele>2152</ele>
        <time>2024-08-10T08:44:04Z</time>
      </trkpt>
      <trkpt lat="45.05307" lon="6.26781">
        <ele>2152</ele>
        <time>2024-08-10T08:44:05Z</time>
      </trkpt>
      <trkpt lat="45.05306" lon="6.26784">
        <ele>2152</ele>
        <time>2024-08-10T08:44:06Z</time>
      </trkpt>
      <trkpt lat="45.05306" lon="6.26784">
        <ele>2151.8</ele>
        <time>2024-08-10T08:44:07Z</time>
      </trkpt>
      <trkpt lat="45.05304" lon="6.26787">
        <ele>2151.4</ele>
        <time>2024-08-10T08:44:08Z</time>
      </trkpt>
      <trkpt lat="45.05304" lon="6.26787">
        <ele>2151.2</ele>
        <time>2024-08-10T08:44:09Z</time>
      </trkpt>
      <trkpt lat="45.05302" lon="6.26789">
        <ele>2151</ele>
        <time>2024-08-10T08:44:10Z</time>
      </trkpt>
      <trkpt lat="45.05302" lon="6.26789">
        <ele>2150.8</ele>
        <time>2024-08-10T08:44:11Z</time>
      </trkpt>
      <trkpt lat="45.053" lon="6.26791">
        <ele>2150.6</ele>
        <time>2024-08-10T08:44:12Z</time>
      </trkpt>
      <trkpt lat="45.053" lon="6.26791">
        <ele>2150.2</ele>
        <time>2024-08-10T08:44:13Z</time>
      </trkpt>
      <trkpt lat="45.05298" lon="6.26794">
        <ele>2149.8</ele>
        <time>2024-08-10T08:44:14Z</time>
      </trkpt>
      <trkpt lat="45.05298" lon="6.26794">
        <ele>2149.6</ele>
        <time>2024-08-10T08:44:15Z</time>
      </trkpt>
      <trkpt lat="45.05297" lon="6.26797">
        <ele>2149.2</ele>
        <time>2024-08-10T08:44:16Z</time>
      </trkpt>
      <trkpt lat="45.05297" lon="6.26797">
        <ele>2148.8</ele>
        <time>2024-08-10T08:44:17Z</time>
      </trkpt>
      <trkpt lat="45.05295" lon="6.268">
        <ele>2148.6</ele>
        <time>2024-08-10T08:44:18Z</time>
      </trkpt>
      <trkpt lat="45.05295" lon="6.268">
        <ele>2148.4</ele>
        <time>2024-08-10T08:44:19Z</time>
      </trkpt>
      <trkpt lat="45.05294" lon="6.26803">
        <ele>2148</ele>
        <time>2024-08-10T08:44:20Z</time>
      </trkpt>
      <trkpt lat="45.05294" lon="6.26803">
        <ele>2147.8</ele>
        <time>2024-08-10T08:44:21Z</time>
      </trkpt>
      <trkpt lat="45.05293" lon="6.26806">
        <ele>2147.6</ele>
        <time>2024-08-10T08:44:22Z</time>
      </trkpt>
      <trkpt lat="45.05293" lon="6.26806">
        <ele>2147.6</ele>
        <time>2024-08-10T08:44:23Z</time>
      </trkpt>
      <trkpt lat="45.05293" lon="6.2681">
        <ele>2147.6</ele>
        <time>2024-08-10T08:44:24Z</time>
      </trkpt>
      <trkpt lat="45.05293" lon="6.2681">
        <ele>2147.4</ele>
        <time>2024-08-10T08:44:25Z</time>
      </trkpt>
      <trkpt lat="45.05292" lon="6.26813">
        <ele>2147.2</ele>
        <time>2024-08-10T08:44:26Z</time>
      </trkpt>
      <trkpt lat="45.05292" lon="6.26813">
        <ele>2146.8</ele>
        <time>2024-08-10T08:44:27Z</time>
      </trkpt>
      <trkpt lat="45.05291" lon="6.26817">
        <ele>2146.8</ele>
        <time>2024-08-10T08:44:28Z</time>
      </trkpt>
      <trkpt lat="45.05291" lon="6.26817">
        <ele>2146.6</ele>
        <time>2024-08-10T08:44:29Z</time>
      </trkpt>
      <trkpt lat="45.05291" lon="6.26821">
        <ele>2146.4</ele>
        <time>2024-08-10T08:44:30Z</time>
      </trkpt>
      <trkpt lat="45.05291" lon="6.26821">
        <ele>2146</ele>
        <time>2024-08-10T08:44:31Z</time>
      </trkpt>
      <trkpt lat="45.05291" lon="6.26825">
        <ele>2145.8</ele>
        <time>2024-08-10T08:44:32Z</time>
      </trkpt>
      <trkpt lat="45.05291" lon="6.26825">
        <ele>2145.6</ele>
        <time>2024-08-10T08:44:33Z</time>
      </trkpt>
      <trkpt lat="45.0529" lon="6.2683">
        <ele>2145.4</ele>
        <time>2024-08-10T08:44:34Z</time>
      </trkpt>
      <trkpt lat="45.05289" lon="6.26832">
        <ele>2145</ele>
        <time>2024-08-10T08:44:35Z</time>
      </trkpt>
      <trkpt lat="45.05289" lon="6.26832">
        <ele>2144.8</ele>
        <time>2024-08-10T08:44:36Z</time>
      </trkpt>
      <trkpt lat="45.05288" lon="6.26835">
        <ele>2144.8</ele>
        <time>2024-08-10T08:44:37Z</time>
      </trkpt>
      <trkpt lat="45.05288" lon="6.26835">
        <ele>2144.4</ele>
        <time>2024-08-10T08:44:38Z</time>
      </trkpt>
      <trkpt lat="45.05288" lon="6.26839">
        <ele>2144</ele>
        <time>2024-08-10T08:44:39Z</time>
      </trkpt>
      <trkpt lat="45.05288" lon="6.26839">
        <ele>2143.8</ele>
        <time>2024-08-10T08:44:40Z</time>
      </trkpt>
      <trkpt lat="45.05288" lon="6.26843">
        <ele>2143.6</ele>
        <time>2024-08-10T08:44:41Z</time>
      </trkpt>
      <trkpt lat="45.05288" lon="6.26843">
        <ele>2143.6</ele>
        <time>2024-08-10T08:44:42Z</time>
      </trkpt>
      <trkpt lat="45.05288" lon="6.26847">
        <ele>2143.2</ele>
        <time>2024-08-10T08:44:43Z</time>
      </trkpt>
      <trkpt lat="45.05288" lon="6.26847">
        <ele>2142.4</ele>
        <time>2024-08-10T08:44:44Z</time>
      </trkpt>
      <trkpt lat="45.05288" lon="6.26851">
        <ele>2142.2</ele>
        <time>2024-08-10T08:44:45Z</time>
      </trkpt>
      <trkpt lat="45.05288" lon="6.26851">
        <ele>2142</ele>
        <time>2024-08-10T08:44:46Z</time>
      </trkpt>
      <trkpt lat="45.05288" lon="6.26855">
        <ele>2142</ele>
        <time>2024-08-10T08:44:47Z</time>
      </trkpt>
      <trkpt lat="45.05288" lon="6.26855">
        <ele>2141.8</ele>
        <time>2024-08-10T08:44:48Z</time>
      </trkpt>
      <trkpt lat="45.05288" lon="6.26859">
        <ele>2141.8</ele>
        <time>2024-08-10T08:44:49Z</time>
      </trkpt>
      <trkpt lat="45.05288" lon="6.26859">
        <ele>2141.8</ele>
        <time>2024-08-10T08:44:50Z</time>
      </trkpt>
      <trkpt lat="45.05288" lon="6.26863">
        <ele>2141.6</ele>
        <time>2024-08-10T08:44:51Z</time>
      </trkpt>
      <trkpt lat="45.05288" lon="6.26863">
        <ele>2141.2</ele>
        <time>2024-08-10T08:44:52Z</time>
      </trkpt>
      <trkpt lat="45.05288" lon="6.26867">
        <ele>2141.2</ele>
        <time>2024-08-10T08:44:53Z</time>
      </trkpt>
      <trkpt lat="45.05288" lon="6.26867">
        <ele>2141.2</ele>
        <time>2024-08-10T08:44:54Z</time>
      </trkpt>
      <trkpt lat="45.05287" lon="6.2687">
        <ele>2141.2</ele>
        <time>2024-08-10T08:44:55Z</time>
      </trkpt>
      <trkpt lat="45.05287" lon="6.2687">
        <ele>2141</ele>
        <time>2024-08-10T08:44:56Z</time>
      </trkpt>
      <trkpt lat="45.05288" lon="6.26874">
        <ele>2141</ele>
        <time>2024-08-10T08:44:57Z</time>
      </trkpt>
      <trkpt lat="45.05288" lon="6.26874">
        <ele>2141</ele>
        <time>2024-08-10T08:44:58Z</time>
      </trkpt>
      <trkpt lat="45.05288" lon="6.26877">
        <ele>2140.8</ele>
        <time>2024-08-10T08:44:59Z</time>
      </trkpt>
      <trkpt lat="45.05288" lon="6.26877">
        <ele>2140.6</ele>
        <time>2024-08-10T08:45:00Z</time>
      </trkpt>
      <trkpt lat="45.05287" lon="6.2688">
        <ele>2140.6</ele>
        <time>2024-08-10T08:45:01Z</time>
      </trkpt>
      <trkpt lat="45.05287" lon="6.2688">
        <ele>2140.2</ele>
        <time>2024-08-10T08:45:02Z</time>
      </trkpt>
      <trkpt lat="45.05286" lon="6.26885">
        <ele>2140</ele>
        <time>2024-08-10T08:45:03Z</time>
      </trkpt>
      <trkpt lat="45.05286" lon="6.26885">
        <ele>2140</ele>
        <time>2024-08-10T08:45:04Z</time>
      </trkpt>
      <trkpt lat="45.05285" lon="6.26887">
        <ele>2139.8</ele>
        <time>2024-08-10T08:45:05Z</time>
      </trkpt>
      <trkpt lat="45.05285" lon="6.26887">
        <ele>2139.8</ele>
        <time>2024-08-10T08:45:06Z</time>
      </trkpt>
      <trkpt lat="45.05283" lon="6.26889">
        <ele>2139.8</ele>
        <time>2024-08-10T08:45:07Z</time>
      </trkpt>
      <trkpt lat="45.05283" lon="6.26889">
        <ele>2139.4</ele>
        <time>2024-08-10T08:45:08Z</time>
      </trkpt>
      <trkpt lat="45.05282" lon="6.26893">
        <ele>2139.4</ele>
        <time>2024-08-10T08:45:09Z</time>
      </trkpt>
      <trkpt lat="45.05282" lon="6.26893">
        <ele>2139.2</ele>
        <time>2024-08-10T08:45:10Z</time>
      </trkpt>
      <trkpt lat="45.05282" lon="6.26896">
        <ele>2139.2</ele>
        <time>2024-08-10T08:45:11Z</time>
      </trkpt>
      <trkpt lat="45.05282" lon="6.26896">
        <ele>2138.8</ele>
        <time>2024-08-10T08:45:12Z</time>
      </trkpt>
      <trkpt lat="45.0528" lon="6.26899">
        <ele>2138.6</ele>
        <time>2024-08-10T08:45:13Z</time>
      </trkpt>
      <trkpt lat="45.0528" lon="6.26899">
        <ele>2138.4</ele>
        <time>2024-08-10T08:45:14Z</time>
      </trkpt>
      <trkpt lat="45.0528" lon="6.26903">
        <ele>2137.6</ele>
        <time>2024-08-10T08:45:15Z</time>
      </trkpt>
      <trkpt lat="45.0528" lon="6.26903">
        <ele>2137.4</ele>
        <time>2024-08-10T08:45:16Z</time>
      </trkpt>
      <trkpt lat="45.05279" lon="6.26907">
        <ele>2137.4</ele>
        <time>2024-08-10T08:45:17Z</time>
      </trkpt>
      <trkpt lat="45.05279" lon="6.26907">
        <ele>2137.2</ele>
        <time>2024-08-10T08:45:18Z</time>
      </trkpt>
      <trkpt lat="45.05278" lon="6.2691">
        <ele>2137</ele>
        <time>2024-08-10T08:45:19Z</time>
      </trkpt>
      <trkpt lat="45.05278" lon="6.2691">
        <ele>2136.6</ele>
        <time>2024-08-10T08:45:20Z</time>
      </trkpt>
      <trkpt lat="45.05277" lon="6.26912">
        <ele>2135.6</ele>
        <time>2024-08-10T08:45:21Z</time>
      </trkpt>
      <trkpt lat="45.05277" lon="6.26912">
        <ele>2135.2</ele>
        <time>2024-08-10T08:45:22Z</time>
      </trkpt>
      <trkpt lat="45.05277" lon="6.26912">
        <ele>2135</ele>
        <time>2024-08-10T08:45:23Z</time>
      </trkpt>
      <trkpt lat="45.05277" lon="6.26915">
        <ele>2134.8</ele>
        <time>2024-08-10T08:45:24Z</time>
      </trkpt>
      <trkpt lat="45.05277" lon="6.26915">
        <ele>2134.4</ele>
        <time>2024-08-10T08:45:25Z</time>
      </trkpt>
      <trkpt lat="45.05279" lon="6.26918">
        <ele>2134</ele>
        <time>2024-08-10T08:45:26Z</time>
      </trkpt>
      <trkpt lat="45.05279" lon="6.26918">
        <ele>2133.6</ele>
        <time>2024-08-10T08:45:27Z</time>
      </trkpt>
      <trkpt lat="45.05279" lon="6.26921">
        <ele>2133.4</ele>
        <time>2024-08-10T08:45:28Z</time>
      </trkpt>
      <trkpt lat="45.05279" lon="6.26921">
        <ele>2133</ele>
        <time>2024-08-10T08:45:29Z</time>
      </trkpt>
      <trkpt lat="45.05278" lon="6.26925">
        <ele>2132.4</ele>
        <time>2024-08-10T08:45:30Z</time>
      </trkpt>
      <trkpt lat="45.05278" lon="6.26925">
        <ele>2132</ele>
        <time>2024-08-10T08:45:31Z</time>
      </trkpt>
      <trkpt lat="45.05277" lon="6.26929">
        <ele>2131.6</ele>
        <time>2024-08-10T08:45:32Z</time>
      </trkpt>
      <trkpt lat="45.05277" lon="6.26929">
        <ele>2130.8</ele>
        <time>2024-08-10T08:45:33Z</time>
      </trkpt>
      <trkpt lat="45.05276" lon="6.26932">
        <ele>2130.4</ele>
        <time>2024-08-10T08:45:34Z</time>
      </trkpt>
      <trkpt lat="45.05275" lon="6.26934">
        <ele>2129.8</ele>
        <time>2024-08-10T08:45:35Z</time>
      </trkpt>
      <trkpt lat="45.05275" lon="6.26934">
        <ele>2129.6</ele>
        <time>2024-08-10T08:45:36Z</time>
      </trkpt>
      <trkpt lat="45.05273" lon="6.26938">
        <ele>2129.4</ele>
        <time>2024-08-10T08:45:37Z</time>
      </trkpt>
      <trkpt lat="45.05273" lon="6.26938">
        <ele>2129.2</ele>
        <time>2024-08-10T08:45:38Z</time>
      </trkpt>
      <trkpt lat="45.05272" lon="6.26941">
        <ele>2128.8</ele>
        <time>2024-08-10T08:45:39Z</time>
      </trkpt>
      <trkpt lat="45.05272" lon="6.26941">
        <ele>2128.8</ele>
        <time>2024-08-10T08:45:40Z</time>
      </trkpt>
      <trkpt lat="45.0527" lon="6.26944">
        <ele>2128.4</ele>
        <time>2024-08-10T08:45:41Z</time>
      </trkpt>
      <trkpt lat="45.0527" lon="6.26944">
        <ele>2128</ele>
        <time>2024-08-10T08:45:42Z</time>
      </trkpt>
      <trkpt lat="45.05267" lon="6.26947">
        <ele>2127.8</ele>
        <time>2024-08-10T08:45:43Z</time>
      </trkpt>
      <trkpt lat="45.05267" lon="6.26947">
        <ele>2127.8</ele>
        <time>2024-08-10T08:45:44Z</time>
      </trkpt>
      <trkpt lat="45.05265" lon="6.26949">
        <ele>2127.8</ele>
        <time>2024-08-10T08:45:45Z</time>
      </trkpt>
      <trkpt lat="45.05265" lon="6.26949">
        <ele>2127.6</ele>
        <time>2024-08-10T08:45:46Z</time>
      </trkpt>
      <trkpt lat="45.05262" lon="6.2695">
        <ele>2127.4</ele>
        <time>2024-08-10T08:45:47Z</time>
      </trkpt>
      <trkpt lat="45.05262" lon="6.2695">
        <ele>2127</ele>
        <time>2024-08-10T08:45:48Z</time>
      </trkpt>
      <trkpt lat="45.0526" lon="6.26952">
        <ele>2126.8</ele>
        <time>2024-08-10T08:45:49Z</time>
      </trkpt>
      <trkpt lat="45.0526" lon="6.26952">
        <ele>2126.8</ele>
        <time>2024-08-10T08:45:50Z</time>
      </trkpt>
      <trkpt lat="45.05259" lon="6.26955">
        <ele>2126.8</ele>
        <time>2024-08-10T08:45:51Z</time>
      </trkpt>
      <trkpt lat="45.05259" lon="6.26955">
        <ele>2126.6</ele>
        <time>2024-08-10T08:45:52Z</time>
      </trkpt>
      <trkpt lat="45.05257" lon="6.26958">
        <ele>2126.4</ele>
        <time>2024-08-10T08:45:53Z</time>
      </trkpt>
      <trkpt lat="45.05257" lon="6.26958">
        <ele>2126.2</ele>
        <time>2024-08-10T08:45:54Z</time>
      </trkpt>
      <trkpt lat="45.05255" lon="6.26962">
        <ele>2125.8</ele>
        <time>2024-08-10T08:45:55Z</time>
      </trkpt>
      <trkpt lat="45.05255" lon="6.26962">
        <ele>2125.6</ele>
        <time>2024-08-10T08:45:56Z</time>
      </trkpt>
      <trkpt lat="45.05253" lon="6.26965">
        <ele>2125</ele>
        <time>2024-08-10T08:45:57Z</time>
      </trkpt>
      <trkpt lat="45.05253" lon="6.26965">
        <ele>2124.6</ele>
        <time>2024-08-10T08:45:58Z</time>
      </trkpt>
      <trkpt lat="45.05251" lon="6.26967">
        <ele>2124.4</ele>
        <time>2024-08-10T08:45:59Z</time>
      </trkpt>
      <trkpt lat="45.05251" lon="6.26967">
        <ele>2124.2</ele>
        <time>2024-08-10T08:46:00Z</time>
      </trkpt>
      <trkpt lat="45.0525" lon="6.2697">
        <ele>2123.8</ele>
        <time>2024-08-10T08:46:01Z</time>
      </trkpt>
      <trkpt lat="45.0525" lon="6.2697">
        <ele>2123.8</ele>
        <time>2024-08-10T08:46:02Z</time>
      </trkpt>
      <trkpt lat="45.05248" lon="6.26973">
        <ele>2123</ele>
        <time>2024-08-10T08:46:03Z</time>
      </trkpt>
      <trkpt lat="45.05248" lon="6.26973">
        <ele>2123</ele>
        <time>2024-08-10T08:46:04Z</time>
      </trkpt>
      <trkpt lat="45.05246" lon="6.26976">
        <ele>2123</ele>
        <time>2024-08-10T08:46:05Z</time>
      </trkpt>
      <trkpt lat="45.05246" lon="6.26976">
        <ele>2122.8</ele>
        <time>2024-08-10T08:46:06Z</time>
      </trkpt>
      <trkpt lat="45.05245" lon="6.2698">
        <ele>2122.6</ele>
        <time>2024-08-10T08:46:07Z</time>
      </trkpt>
      <trkpt lat="45.05245" lon="6.2698">
        <ele>2122.4</ele>
        <time>2024-08-10T08:46:08Z</time>
      </trkpt>
      <trkpt lat="45.05243" lon="6.26983">
        <ele>2122.2</ele>
        <time>2024-08-10T08:46:09Z</time>
      </trkpt>
      <trkpt lat="45.05243" lon="6.26983">
        <ele>2122.2</ele>
        <time>2024-08-10T08:46:10Z</time>
      </trkpt>
      <trkpt lat="45.05242" lon="6.26986">
        <ele>2122</ele>
        <time>2024-08-10T08:46:11Z</time>
      </trkpt>
      <trkpt lat="45.05242" lon="6.26986">
        <ele>2121.8</ele>
        <time>2024-08-10T08:46:12Z</time>
      </trkpt>
      <trkpt lat="45.05242" lon="6.26989">
        <ele>2121.4</ele>
        <time>2024-08-10T08:46:13Z</time>
      </trkpt>
      <trkpt lat="45.05242" lon="6.26989">
        <ele>2121.2</ele>
        <time>2024-08-10T08:46:14Z</time>
      </trkpt>
      <trkpt lat="45.0524" lon="6.26992">
        <ele>2121</ele>
        <time>2024-08-10T08:46:15Z</time>
      </trkpt>
      <trkpt lat="45.0524" lon="6.26992">
        <ele>2120.6</ele>
        <time>2024-08-10T08:46:16Z</time>
      </trkpt>
      <trkpt lat="45.05238" lon="6.26995">
        <ele>2120.2</ele>
        <time>2024-08-10T08:46:17Z</time>
      </trkpt>
      <trkpt lat="45.05238" lon="6.26995">
        <ele>2120</ele>
        <time>2024-08-10T08:46:18Z</time>
      </trkpt>
      <trkpt lat="45.05236" lon="6.26996">
        <ele>2119.8</ele>
        <time>2024-08-10T08:46:19Z</time>
      </trkpt>
      <trkpt lat="45.05236" lon="6.26996">
        <ele>2119.6</ele>
        <time>2024-08-10T08:46:20Z</time>
      </trkpt>
      <trkpt lat="45.05233" lon="6.26999">
        <ele>2119.4</ele>
        <time>2024-08-10T08:46:21Z</time>
      </trkpt>
      <trkpt lat="45.05231" lon="6.27">
        <ele>2119.4</ele>
        <time>2024-08-10T08:46:22Z</time>
      </trkpt>
      <trkpt lat="45.05231" lon="6.27">
        <ele>2119.2</ele>
        <time>2024-08-10T08:46:23Z</time>
      </trkpt>
      <trkpt lat="45.0523" lon="6.27003">
        <ele>2118.8</ele>
        <time>2024-08-10T08:46:24Z</time>
      </trkpt>
      <trkpt lat="45.0523" lon="6.27003">
        <ele>2118.6</ele>
        <time>2024-08-10T08:46:25Z</time>
      </trkpt>
      <trkpt lat="45.05228" lon="6.27005">
        <ele>2118.6</ele>
        <time>2024-08-10T08:46:26Z</time>
      </trkpt>
      <trkpt lat="45.05228" lon="6.27005">
        <ele>2118.8</ele>
        <time>2024-08-10T08:46:27Z</time>
      </trkpt>
      <trkpt lat="45.05227" lon="6.27008">
        <ele>2118.8</ele>
        <time>2024-08-10T08:46:28Z</time>
      </trkpt>
      <trkpt lat="45.05227" lon="6.27008">
        <ele>2118.8</ele>
        <time>2024-08-10T08:46:29Z</time>
      </trkpt>
      <trkpt lat="45.05225" lon="6.27011">
        <ele>2118.4</ele>
        <time>2024-08-10T08:46:30Z</time>
      </trkpt>
      <trkpt lat="45.05225" lon="6.27011">
        <ele>2118.2</ele>
        <time>2024-08-10T08:46:31Z</time>
      </trkpt>
      <trkpt lat="45.05223" lon="6.27015">
        <ele>2118.2</ele>
        <time>2024-08-10T08:46:32Z</time>
      </trkpt>
      <trkpt lat="45.05223" lon="6.27015">
        <ele>2117.6</ele>
        <time>2024-08-10T08:46:33Z</time>
      </trkpt>
      <trkpt lat="45.05221" lon="6.27018">
        <ele>2117.4</ele>
        <time>2024-08-10T08:46:34Z</time>
      </trkpt>
      <trkpt lat="45.05221" lon="6.27018">
        <ele>2117.4</ele>
        <time>2024-08-10T08:46:35Z</time>
      </trkpt>
      <trkpt lat="45.05221" lon="6.27022">
        <ele>2117.2</ele>
        <time>2024-08-10T08:46:36Z</time>
      </trkpt>
      <trkpt lat="45.05221" lon="6.27022">
        <ele>2117.2</ele>
        <time>2024-08-10T08:46:37Z</time>
      </trkpt>
      <trkpt lat="45.0522" lon="6.27026">
        <ele>2116.6</ele>
        <time>2024-08-10T08:46:38Z</time>
      </trkpt>
      <trkpt lat="45.0522" lon="6.27026">
        <ele>2116.4</ele>
        <time>2024-08-10T08:46:39Z</time>
      </trkpt>
      <trkpt lat="45.05219" lon="6.27029">
        <ele>2116.2</ele>
        <time>2024-08-10T08:46:40Z</time>
      </trkpt>
      <trkpt lat="45.05219" lon="6.27029">
        <ele>2116</ele>
        <time>2024-08-10T08:46:41Z</time>
      </trkpt>
      <trkpt lat="45.05218" lon="6.27033">
        <ele>2115.8</ele>
        <time>2024-08-10T08:46:42Z</time>
      </trkpt>
      <trkpt lat="45.05218" lon="6.27033">
        <ele>2115.8</ele>
        <time>2024-08-10T08:46:43Z</time>
      </trkpt>
      <trkpt lat="45.05216" lon="6.27036">
        <ele>2115.6</ele>
        <time>2024-08-10T08:46:44Z</time>
      </trkpt>
      <trkpt lat="45.05216" lon="6.27036">
        <ele>2115.4</ele>
        <time>2024-08-10T08:46:45Z</time>
      </trkpt>
      <trkpt lat="45.05215" lon="6.27039">
        <ele>2115.4</ele>
        <time>2024-08-10T08:46:46Z</time>
      </trkpt>
      <trkpt lat="45.05215" lon="6.27039">
        <ele>2115.2</ele>
        <time>2024-08-10T08:46:47Z</time>
      </trkpt>
      <trkpt lat="45.05214" lon="6.27043">
        <ele>2115.2</ele>
        <time>2024-08-10T08:46:48Z</time>
      </trkpt>
      <trkpt lat="45.05214" lon="6.27043">
        <ele>2115</ele>
        <time>2024-08-10T08:46:49Z</time>
      </trkpt>
      <trkpt lat="45.05213" lon="6.27046">
        <ele>2115</ele>
        <time>2024-08-10T08:46:50Z</time>
      </trkpt>
      <trkpt lat="45.05213" lon="6.27046">
        <ele>2115</ele>
        <time>2024-08-10T08:46:51Z</time>
      </trkpt>
      <trkpt lat="45.05211" lon="6.27049">
        <ele>2115</ele>
        <time>2024-08-10T08:46:52Z</time>
      </trkpt>
      <trkpt lat="45.05211" lon="6.27049">
        <ele>2115</ele>
        <time>2024-08-10T08:46:53Z</time>
      </trkpt>
      <trkpt lat="45.05211" lon="6.27049">
        <ele>2115</ele>
        <time>2024-08-10T08:46:54Z</time>
      </trkpt>
      <trkpt lat="45.05211" lon="6.27053">
        <ele>2114.6</ele>
        <time>2024-08-10T08:46:55Z</time>
      </trkpt>
      <trkpt lat="45.05211" lon="6.27053">
        <ele>2114.6</ele>
        <time>2024-08-10T08:46:56Z</time>
      </trkpt>
      <trkpt lat="45.05211" lon="6.27053">
        <ele>2114.4</ele>
        <time>2024-08-10T08:46:57Z</time>
      </trkpt>
      <trkpt lat="45.05211" lon="6.27056">
        <ele>2114.2</ele>
        <time>2024-08-10T08:46:58Z</time>
      </trkpt>
      <trkpt lat="45.05211" lon="6.27056">
        <ele>2114.2</ele>
        <time>2024-08-10T08:46:59Z</time>
      </trkpt>
      <trkpt lat="45.05211" lon="6.2706">
        <ele>2114</ele>
        <time>2024-08-10T08:47:00Z</time>
      </trkpt>
      <trkpt lat="45.05211" lon="6.2706">
        <ele>2113.8</ele>
        <time>2024-08-10T08:47:01Z</time>
      </trkpt>
      <trkpt lat="45.05212" lon="6.27063">
        <ele>2113.4</ele>
        <time>2024-08-10T08:47:02Z</time>
      </trkpt>
      <trkpt lat="45.05212" lon="6.27063">
        <ele>2112.8</ele>
        <time>2024-08-10T08:47:03Z</time>
      </trkpt>
      <trkpt lat="45.05212" lon="6.27067">
        <ele>2112.8</ele>
        <time>2024-08-10T08:47:04Z</time>
      </trkpt>
      <trkpt lat="45.05212" lon="6.27067">
        <ele>2112.8</ele>
        <time>2024-08-10T08:47:05Z</time>
      </trkpt>
      <trkpt lat="45.05213" lon="6.27071">
        <ele>2112.6</ele>
        <time>2024-08-10T08:47:06Z</time>
      </trkpt>
      <trkpt lat="45.05213" lon="6.27071">
        <ele>2112.2</ele>
        <time>2024-08-10T08:47:07Z</time>
      </trkpt>
      <trkpt lat="45.05213" lon="6.27074">
        <ele>2111.8</ele>
        <time>2024-08-10T08:47:08Z</time>
      </trkpt>
      <trkpt lat="45.05213" lon="6.27074">
        <ele>2111.6</ele>
        <time>2024-08-10T08:47:09Z</time>
      </trkpt>
      <trkpt lat="45.05213" lon="6.27078">
        <ele>2111</ele>
        <time>2024-08-10T08:47:10Z</time>
      </trkpt>
      <trkpt lat="45.05213" lon="6.27078">
        <ele>2111</ele>
        <time>2024-08-10T08:47:11Z</time>
      </trkpt>
      <trkpt lat="45.05211" lon="6.2708">
        <ele>2111</ele>
        <time>2024-08-10T08:47:12Z</time>
      </trkpt>
      <trkpt lat="45.05211" lon="6.2708">
        <ele>2111</ele>
        <time>2024-08-10T08:47:13Z</time>
      </trkpt>
      <trkpt lat="45.05209" lon="6.27083">
        <ele>2111</ele>
        <time>2024-08-10T08:47:14Z</time>
      </trkpt>
      <trkpt lat="45.05209" lon="6.27083">
        <ele>2110.8</ele>
        <time>2024-08-10T08:47:15Z</time>
      </trkpt>
      <trkpt lat="45.05208" lon="6.27086">
        <ele>2110.8</ele>
        <time>2024-08-10T08:47:16Z</time>
      </trkpt>
      <trkpt lat="45.05208" lon="6.27086">
        <ele>2110.8</ele>
        <time>2024-08-10T08:47:17Z</time>
      </trkpt>
      <trkpt lat="45.05205" lon="6.27089">
        <ele>2110.4</ele>
        <time>2024-08-10T08:47:18Z</time>
      </trkpt>
      <trkpt lat="45.05205" lon="6.27089">
        <ele>2110.2</ele>
        <time>2024-08-10T08:47:19Z</time>
      </trkpt>
      <trkpt lat="45.05203" lon="6.27092">
        <ele>2110.2</ele>
        <time>2024-08-10T08:47:20Z</time>
      </trkpt>
      <trkpt lat="45.05203" lon="6.27092">
        <ele>2109.8</ele>
        <time>2024-08-10T08:47:21Z</time>
      </trkpt>
      <trkpt lat="45.052" lon="6.27095">
        <ele>2109.8</ele>
        <time>2024-08-10T08:47:22Z</time>
      </trkpt>
      <trkpt lat="45.052" lon="6.27095">
        <ele>2109.8</ele>
        <time>2024-08-10T08:47:23Z</time>
      </trkpt>
      <trkpt lat="45.05199" lon="6.27098">
        <ele>2109.4</ele>
        <time>2024-08-10T08:47:24Z</time>
      </trkpt>
      <trkpt lat="45.05199" lon="6.27098">
        <ele>2109.2</ele>
        <time>2024-08-10T08:47:25Z</time>
      </trkpt>
      <trkpt lat="45.052" lon="6.27102">
        <ele>2109</ele>
        <time>2024-08-10T08:47:26Z</time>
      </trkpt>
      <trkpt lat="45.05199" lon="6.27105">
        <ele>2109</ele>
        <time>2024-08-10T08:47:27Z</time>
      </trkpt>
      <trkpt lat="45.05199" lon="6.27105">
        <ele>2109.2</ele>
        <time>2024-08-10T08:47:28Z</time>
      </trkpt>
      <trkpt lat="45.05198" lon="6.27108">
        <ele>2109.4</ele>
        <time>2024-08-10T08:47:29Z</time>
      </trkpt>
      <trkpt lat="45.05198" lon="6.27108">
        <ele>2109.4</ele>
        <time>2024-08-10T08:47:30Z</time>
      </trkpt>
      <trkpt lat="45.05198" lon="6.27112">
        <ele>2109</ele>
        <time>2024-08-10T08:47:31Z</time>
      </trkpt>
      <trkpt lat="45.05198" lon="6.27112">
        <ele>2108.4</ele>
        <time>2024-08-10T08:47:32Z</time>
      </trkpt>
      <trkpt lat="45.05197" lon="6.27116">
        <ele>2108.4</ele>
        <time>2024-08-10T08:47:33Z</time>
      </trkpt>
      <trkpt lat="45.05197" lon="6.27116">
        <ele>2108.4</ele>
        <time>2024-08-10T08:47:34Z</time>
      </trkpt>
      <trkpt lat="45.05196" lon="6.2712">
        <ele>2108.2</ele>
        <time>2024-08-10T08:47:35Z</time>
      </trkpt>
      <trkpt lat="45.05196" lon="6.2712">
        <ele>2108</ele>
        <time>2024-08-10T08:47:36Z</time>
      </trkpt>
      <trkpt lat="45.05195" lon="6.27123">
        <ele>2108</ele>
        <time>2024-08-10T08:47:37Z</time>
      </trkpt>
      <trkpt lat="45.05195" lon="6.27123">
        <ele>2107.8</ele>
        <time>2024-08-10T08:47:38Z</time>
      </trkpt>
      <trkpt lat="45.05194" lon="6.27127">
        <ele>2107.8</ele>
        <time>2024-08-10T08:47:39Z</time>
      </trkpt>
      <trkpt lat="45.05194" lon="6.27127">
        <ele>2107.8</ele>
        <time>2024-08-10T08:47:40Z</time>
      </trkpt>
      <trkpt lat="45.05193" lon="6.2713">
        <ele>2107.8</ele>
        <time>2024-08-10T08:47:41Z</time>
      </trkpt>
      <trkpt lat="45.05193" lon="6.2713">
        <ele>2107.8</ele>
        <time>2024-08-10T08:47:42Z</time>
      </trkpt>
      <trkpt lat="45.05192" lon="6.27134">
        <ele>2107.8</ele>
        <time>2024-08-10T08:47:43Z</time>
      </trkpt>
      <trkpt lat="45.05192" lon="6.27134">
        <ele>2107.8</ele>
        <time>2024-08-10T08:47:44Z</time>
      </trkpt>
      <trkpt lat="45.05191" lon="6.27138">
        <ele>2107.8</ele>
        <time>2024-08-10T08:47:45Z</time>
      </trkpt>
      <trkpt lat="45.05191" lon="6.27138">
        <ele>2107.8</ele>
        <time>2024-08-10T08:47:46Z</time>
      </trkpt>
      <trkpt lat="45.0519" lon="6.27142">
        <ele>2107.6</ele>
        <time>2024-08-10T08:47:47Z</time>
      </trkpt>
      <trkpt lat="45.0519" lon="6.27142">
        <ele>2107.6</ele>
        <time>2024-08-10T08:47:48Z</time>
      </trkpt>
      <trkpt lat="45.05189" lon="6.27145">
        <ele>2107.6</ele>
        <time>2024-08-10T08:47:49Z</time>
      </trkpt>
      <trkpt lat="45.05189" lon="6.27145">
        <ele>2107.4</ele>
        <time>2024-08-10T08:47:50Z</time>
      </trkpt>
      <trkpt lat="45.05188" lon="6.27149">
        <ele>2107.2</ele>
        <time>2024-08-10T08:47:51Z</time>
      </trkpt>
      <trkpt lat="45.05188" lon="6.27149">
        <ele>2107.2</ele>
        <time>2024-08-10T08:47:52Z</time>
      </trkpt>
      <trkpt lat="45.05188" lon="6.27153">
        <ele>2107.2</ele>
        <time>2024-08-10T08:47:53Z</time>
      </trkpt>
      <trkpt lat="45.05188" lon="6.27153">
        <ele>2107.2</ele>
        <time>2024-08-10T08:47:54Z</time>
      </trkpt>
      <trkpt lat="45.05187" lon="6.27156">
        <ele>2107.2</ele>
        <time>2024-08-10T08:47:55Z</time>
      </trkpt>
      <trkpt lat="45.05187" lon="6.27156">
        <ele>2107.2</ele>
        <time>2024-08-10T08:47:56Z</time>
      </trkpt>
      <trkpt lat="45.05185" lon="6.2716">
        <ele>2107</ele>
        <time>2024-08-10T08:47:57Z</time>
      </trkpt>
      <trkpt lat="45.05183" lon="6.27162">
        <ele>2107</ele>
        <time>2024-08-10T08:47:58Z</time>
      </trkpt>
      <trkpt lat="45.05183" lon="6.27162">
        <ele>2106.8</ele>
        <time>2024-08-10T08:47:59Z</time>
      </trkpt>
      <trkpt lat="45.05182" lon="6.27165">
        <ele>2106.8</ele>
        <time>2024-08-10T08:48:00Z</time>
      </trkpt>
      <trkpt lat="45.05182" lon="6.27165">
        <ele>2106.6</ele>
        <time>2024-08-10T08:48:01Z</time>
      </trkpt>
      <trkpt lat="45.05181" lon="6.2717">
        <ele>2106.6</ele>
        <time>2024-08-10T08:48:02Z</time>
      </trkpt>
      <trkpt lat="45.05181" lon="6.2717">
        <ele>2106.4</ele>
        <time>2024-08-10T08:48:03Z</time>
      </trkpt>
      <trkpt lat="45.05181" lon="6.27174">
        <ele>2106.4</ele>
        <time>2024-08-10T08:48:04Z</time>
      </trkpt>
      <trkpt lat="45.05181" lon="6.27174">
        <ele>2105.8</ele>
        <time>2024-08-10T08:48:05Z</time>
      </trkpt>
      <trkpt lat="45.05181" lon="6.27177">
        <ele>2105.2</ele>
        <time>2024-08-10T08:48:06Z</time>
      </trkpt>
      <trkpt lat="45.05181" lon="6.27177">
        <ele>2104.8</ele>
        <time>2024-08-10T08:48:07Z</time>
      </trkpt>
      <trkpt lat="45.05181" lon="6.27181">
        <ele>2104.4</ele>
        <time>2024-08-10T08:48:08Z</time>
      </trkpt>
      <trkpt lat="45.05181" lon="6.27181">
        <ele>2103.8</ele>
        <time>2024-08-10T08:48:09Z</time>
      </trkpt>
      <trkpt lat="45.05181" lon="6.27185">
        <ele>2103.4</ele>
        <time>2024-08-10T08:48:10Z</time>
      </trkpt>
      <trkpt lat="45.05181" lon="6.27185">
        <ele>2103.2</ele>
        <time>2024-08-10T08:48:11Z</time>
      </trkpt>
      <trkpt lat="45.05181" lon="6.27189">
        <ele>2102.6</ele>
        <time>2024-08-10T08:48:12Z</time>
      </trkpt>
      <trkpt lat="45.05181" lon="6.27189">
        <ele>2102.2</ele>
        <time>2024-08-10T08:48:13Z</time>
      </trkpt>
      <trkpt lat="45.05181" lon="6.27189">
        <ele>2102</ele>
        <time>2024-08-10T08:48:14Z</time>
      </trkpt>
      <trkpt lat="45.05181" lon="6.27192">
        <ele>2101.6</ele>
        <time>2024-08-10T08:48:15Z</time>
      </trkpt>
      <trkpt lat="45.05181" lon="6.27192">
        <ele>2101.4</ele>
        <time>2024-08-10T08:48:16Z</time>
      </trkpt>
      <trkpt lat="45.05181" lon="6.27195">
        <ele>2101.4</ele>
        <time>2024-08-10T08:48:17Z</time>
      </trkpt>
      <trkpt lat="45.05181" lon="6.27195">
        <ele>2100.4</ele>
        <time>2024-08-10T08:48:18Z</time>
      </trkpt>
      <trkpt lat="45.05181" lon="6.27199">
        <ele>2100.4</ele>
        <time>2024-08-10T08:48:19Z</time>
      </trkpt>
      <trkpt lat="45.05181" lon="6.27199">
        <ele>2100.8</ele>
        <time>2024-08-10T08:48:20Z</time>
      </trkpt>
      <trkpt lat="45.05181" lon="6.27202">
        <ele>2100.8</ele>
        <time>2024-08-10T08:48:21Z</time>
      </trkpt>
      <trkpt lat="45.05181" lon="6.27202">
        <ele>2100.8</ele>
        <time>2024-08-10T08:48:22Z</time>
      </trkpt>
      <trkpt lat="45.0518" lon="6.27206">
        <ele>2100.8</ele>
        <time>2024-08-10T08:48:23Z</time>
      </trkpt>
      <trkpt lat="45.0518" lon="6.27206">
        <ele>2100.8</ele>
        <time>2024-08-10T08:48:24Z</time>
      </trkpt>
      <trkpt lat="45.0518" lon="6.2721">
        <ele>2100.6</ele>
        <time>2024-08-10T08:48:25Z</time>
      </trkpt>
      <trkpt lat="45.0518" lon="6.2721">
        <ele>2100.4</ele>
        <time>2024-08-10T08:48:26Z</time>
      </trkpt>
      <trkpt lat="45.05178" lon="6.27214">
        <ele>2100.4</ele>
        <time>2024-08-10T08:48:27Z</time>
      </trkpt>
      <trkpt lat="45.05178" lon="6.27214">
        <ele>2100</ele>
        <time>2024-08-10T08:48:28Z</time>
      </trkpt>
      <trkpt lat="45.05175" lon="6.27216">
        <ele>2099.6</ele>
        <time>2024-08-10T08:48:29Z</time>
      </trkpt>
      <trkpt lat="45.05175" lon="6.27216">
        <ele>2099.4</ele>
        <time>2024-08-10T08:48:30Z</time>
      </trkpt>
      <trkpt lat="45.05173" lon="6.27218">
        <ele>2099.4</ele>
        <time>2024-08-10T08:48:31Z</time>
      </trkpt>
      <trkpt lat="45.05173" lon="6.27218">
        <ele>2099</ele>
        <time>2024-08-10T08:48:32Z</time>
      </trkpt>
      <trkpt lat="45.0517" lon="6.27221">
        <ele>2098.6</ele>
        <time>2024-08-10T08:48:33Z</time>
      </trkpt>
      <trkpt lat="45.0517" lon="6.27221">
        <ele>2098.4</ele>
        <time>2024-08-10T08:48:34Z</time>
      </trkpt>
      <trkpt lat="45.05167" lon="6.27223">
        <ele>2098.4</ele>
        <time>2024-08-10T08:48:35Z</time>
      </trkpt>
      <trkpt lat="45.05167" lon="6.27223">
        <ele>2097.8</ele>
        <time>2024-08-10T08:48:36Z</time>
      </trkpt>
      <trkpt lat="45.05165" lon="6.27225">
        <ele>2097.8</ele>
        <time>2024-08-10T08:48:37Z</time>
      </trkpt>
      <trkpt lat="45.05165" lon="6.27225">
        <ele>2097.8</ele>
        <time>2024-08-10T08:48:38Z</time>
      </trkpt>
      <trkpt lat="45.05164" lon="6.27229">
        <ele>2097.8</ele>
        <time>2024-08-10T08:48:39Z</time>
      </trkpt>
      <trkpt lat="45.05164" lon="6.27229">
        <ele>2097.8</ele>
        <time>2024-08-10T08:48:40Z</time>
      </trkpt>
      <trkpt lat="45.05163" lon="6.27232">
        <ele>2097.8</ele>
        <time>2024-08-10T08:48:41Z</time>
      </trkpt>
      <trkpt lat="45.05163" lon="6.27232">
        <ele>2097.8</ele>
        <time>2024-08-10T08:48:42Z</time>
      </trkpt>
      <trkpt lat="45.05162" lon="6.27235">
        <ele>2098</ele>
        <time>2024-08-10T08:48:43Z</time>
      </trkpt>
      <trkpt lat="45.05162" lon="6.27235">
        <ele>2098</ele>
        <time>2024-08-10T08:48:44Z</time>
      </trkpt>
      <trkpt lat="45.05161" lon="6.27239">
        <ele>2098</ele>
        <time>2024-08-10T08:48:45Z</time>
      </trkpt>
      <trkpt lat="45.05161" lon="6.27239">
        <ele>2098</ele>
        <time>2024-08-10T08:48:46Z</time>
      </trkpt>
      <trkpt lat="45.05159" lon="6.27242">
        <ele>2098</ele>
        <time>2024-08-10T08:48:47Z</time>
      </trkpt>
      <trkpt lat="45.05159" lon="6.27242">
        <ele>2098</ele>
        <time>2024-08-10T08:48:48Z</time>
      </trkpt>
      <trkpt lat="45.05158" lon="6.27246">
        <ele>2097.8</ele>
        <time>2024-08-10T08:48:49Z</time>
      </trkpt>
      <trkpt lat="45.05158" lon="6.27246">
        <ele>2097.6</ele>
        <time>2024-08-10T08:48:50Z</time>
      </trkpt>
      <trkpt lat="45.05156" lon="6.2725">
        <ele>2097.6</ele>
        <time>2024-08-10T08:48:51Z</time>
      </trkpt>
      <trkpt lat="45.05156" lon="6.2725">
        <ele>2097.6</ele>
        <time>2024-08-10T08:48:52Z</time>
      </trkpt>
      <trkpt lat="45.05155" lon="6.27253">
        <ele>2097.4</ele>
        <time>2024-08-10T08:48:53Z</time>
      </trkpt>
      <trkpt lat="45.05155" lon="6.27253">
        <ele>2097.4</ele>
        <time>2024-08-10T08:48:54Z</time>
      </trkpt>
      <trkpt lat="45.05154" lon="6.27256">
        <ele>2097.2</ele>
        <time>2024-08-10T08:48:55Z</time>
      </trkpt>
      <trkpt lat="45.05154" lon="6.27256">
        <ele>2097.2</ele>
        <time>2024-08-10T08:48:56Z</time>
      </trkpt>
      <trkpt lat="45.05154" lon="6.2726">
        <ele>2097</ele>
        <time>2024-08-10T08:48:57Z</time>
      </trkpt>
      <trkpt lat="45.05154" lon="6.2726">
        <ele>2096.8</ele>
        <time>2024-08-10T08:48:58Z</time>
      </trkpt>
      <trkpt lat="45.05153" lon="6.27263">
        <ele>2096.4</ele>
        <time>2024-08-10T08:48:59Z</time>
      </trkpt>
      <trkpt lat="45.05153" lon="6.27263">
        <ele>2096.2</ele>
        <time>2024-08-10T08:49:00Z</time>
      </trkpt>
      <trkpt lat="45.05153" lon="6.27267">
        <ele>2096.2</ele>
        <time>2024-08-10T08:49:01Z</time>
      </trkpt>
      <trkpt lat="45.05153" lon="6.27267">
        <ele>2096</ele>
        <time>2024-08-10T08:49:02Z</time>
      </trkpt>
      <trkpt lat="45.05152" lon="6.27271">
        <ele>2095.4</ele>
        <time>2024-08-10T08:49:03Z</time>
      </trkpt>
      <trkpt lat="45.05152" lon="6.27271">
        <ele>2095.4</ele>
        <time>2024-08-10T08:49:04Z</time>
      </trkpt>
      <trkpt lat="45.05151" lon="6.27274">
        <ele>2095.2</ele>
        <time>2024-08-10T08:49:05Z</time>
      </trkpt>
      <trkpt lat="45.05151" lon="6.27274">
        <ele>2095.2</ele>
        <time>2024-08-10T08:49:06Z</time>
      </trkpt>
      <trkpt lat="45.0515" lon="6.27279">
        <ele>2095</ele>
        <time>2024-08-10T08:49:07Z</time>
      </trkpt>
      <trkpt lat="45.0515" lon="6.27279">
        <ele>2094.8</ele>
        <time>2024-08-10T08:49:08Z</time>
      </trkpt>
      <trkpt lat="45.05149" lon="6.27283">
        <ele>2094.4</ele>
        <time>2024-08-10T08:49:09Z</time>
      </trkpt>
      <trkpt lat="45.05149" lon="6.27283">
        <ele>2094</ele>
        <time>2024-08-10T08:49:10Z</time>
      </trkpt>
      <trkpt lat="45.05148" lon="6.27286">
        <ele>2093.8</ele>
        <time>2024-08-10T08:49:11Z</time>
      </trkpt>
      <trkpt lat="45.05148" lon="6.27286">
        <ele>2093.8</ele>
        <time>2024-08-10T08:49:12Z</time>
      </trkpt>
      <trkpt lat="45.05147" lon="6.27289">
        <ele>2093.6</ele>
        <time>2024-08-10T08:49:13Z</time>
      </trkpt>
      <trkpt lat="45.05147" lon="6.27289">
        <ele>2093.2</ele>
        <time>2024-08-10T08:49:14Z</time>
      </trkpt>
      <trkpt lat="45.05145" lon="6.27293">
        <ele>2093.2</ele>
        <time>2024-08-10T08:49:15Z</time>
      </trkpt>
      <trkpt lat="45.05145" lon="6.27293">
        <ele>2093</ele>
        <time>2024-08-10T08:49:16Z</time>
      </trkpt>
      <trkpt lat="45.05144" lon="6.27297">
        <ele>2093</ele>
        <time>2024-08-10T08:49:17Z</time>
      </trkpt>
      <trkpt lat="45.05144" lon="6.27297">
        <ele>2092.8</ele>
        <time>2024-08-10T08:49:18Z</time>
      </trkpt>
      <trkpt lat="45.05143" lon="6.27301">
        <ele>2092.8</ele>
        <time>2024-08-10T08:49:19Z</time>
      </trkpt>
      <trkpt lat="45.05142" lon="6.27303">
        <ele>2092.8</ele>
        <time>2024-08-10T08:49:20Z</time>
      </trkpt>
      <trkpt lat="45.05142" lon="6.27303">
        <ele>2092.6</ele>
        <time>2024-08-10T08:49:21Z</time>
      </trkpt>
      <trkpt lat="45.0514" lon="6.27306">
        <ele>2092.6</ele>
        <time>2024-08-10T08:49:22Z</time>
      </trkpt>
      <trkpt lat="45.0514" lon="6.27306">
        <ele>2092.4</ele>
        <time>2024-08-10T08:49:23Z</time>
      </trkpt>
      <trkpt lat="45.05139" lon="6.27309">
        <ele>2092.2</ele>
        <time>2024-08-10T08:49:24Z</time>
      </trkpt>
      <trkpt lat="45.05139" lon="6.27309">
        <ele>2092.2</ele>
        <time>2024-08-10T08:49:25Z</time>
      </trkpt>
      <trkpt lat="45.05138" lon="6.27312">
        <ele>2092.2</ele>
        <time>2024-08-10T08:49:26Z</time>
      </trkpt>
      <trkpt lat="45.05138" lon="6.27312">
        <ele>2092</ele>
        <time>2024-08-10T08:49:27Z</time>
      </trkpt>
      <trkpt lat="45.05136" lon="6.27314">
        <ele>2091.8</ele>
        <time>2024-08-10T08:49:28Z</time>
      </trkpt>
      <trkpt lat="45.05136" lon="6.27314">
        <ele>2091.6</ele>
        <time>2024-08-10T08:49:29Z</time>
      </trkpt>
      <trkpt lat="45.05134" lon="6.27316">
        <ele>2091.2</ele>
        <time>2024-08-10T08:49:30Z</time>
      </trkpt>
      <trkpt lat="45.05134" lon="6.27316">
        <ele>2091</ele>
        <time>2024-08-10T08:49:31Z</time>
      </trkpt>
      <trkpt lat="45.05132" lon="6.27318">
        <ele>2090.4</ele>
        <time>2024-08-10T08:49:32Z</time>
      </trkpt>
      <trkpt lat="45.05132" lon="6.27318">
        <ele>2090.2</ele>
        <time>2024-08-10T08:49:33Z</time>
      </trkpt>
      <trkpt lat="45.0513" lon="6.2732">
        <ele>2089.8</ele>
        <time>2024-08-10T08:49:34Z</time>
      </trkpt>
      <trkpt lat="45.0513" lon="6.2732">
        <ele>2089.6</ele>
        <time>2024-08-10T08:49:35Z</time>
      </trkpt>
      <trkpt lat="45.05128" lon="6.27322">
        <ele>2089.6</ele>
        <time>2024-08-10T08:49:36Z</time>
      </trkpt>
      <trkpt lat="45.05128" lon="6.27322">
        <ele>2089.2</ele>
        <time>2024-08-10T08:49:37Z</time>
      </trkpt>
      <trkpt lat="45.05125" lon="6.27324">
        <ele>2089</ele>
        <time>2024-08-10T08:49:38Z</time>
      </trkpt>
      <trkpt lat="45.05125" lon="6.27324">
        <ele>2088.6</ele>
        <time>2024-08-10T08:49:39Z</time>
      </trkpt>
      <trkpt lat="45.05123" lon="6.27325">
        <ele>2088</ele>
        <time>2024-08-10T08:49:40Z</time>
      </trkpt>
      <trkpt lat="45.05123" lon="6.27325">
        <ele>2087.8</ele>
        <time>2024-08-10T08:49:41Z</time>
      </trkpt>
      <trkpt lat="45.0512" lon="6.27327">
        <ele>2087.6</ele>
        <time>2024-08-10T08:49:42Z</time>
      </trkpt>
      <trkpt lat="45.05118" lon="6.27327">
        <ele>2087.2</ele>
        <time>2024-08-10T08:49:43Z</time>
      </trkpt>
      <trkpt lat="45.05118" lon="6.27327">
        <ele>2086.8</ele>
        <time>2024-08-10T08:49:44Z</time>
      </trkpt>
      <trkpt lat="45.05116" lon="6.27327">
        <ele>2086.6</ele>
        <time>2024-08-10T08:49:45Z</time>
      </trkpt>
      <trkpt lat="45.05116" lon="6.27327">
        <ele>2086.6</ele>
        <time>2024-08-10T08:49:46Z</time>
      </trkpt>
      <trkpt lat="45.05113" lon="6.27328">
        <ele>2086.2</ele>
        <time>2024-08-10T08:49:47Z</time>
      </trkpt>
      <trkpt lat="45.05113" lon="6.27328">
        <ele>2086</ele>
        <time>2024-08-10T08:49:48Z</time>
      </trkpt>
      <trkpt lat="45.05111" lon="6.2733">
        <ele>2085.4</ele>
        <time>2024-08-10T08:49:49Z</time>
      </trkpt>
      <trkpt lat="45.05111" lon="6.2733">
        <ele>2085.4</ele>
        <time>2024-08-10T08:49:50Z</time>
      </trkpt>
      <trkpt lat="45.05109" lon="6.27331">
        <ele>2085.2</ele>
        <time>2024-08-10T08:49:51Z</time>
      </trkpt>
      <trkpt lat="45.05109" lon="6.27331">
        <ele>2085.2</ele>
        <time>2024-08-10T08:49:52Z</time>
      </trkpt>
      <trkpt lat="45.05106" lon="6.27333">
        <ele>2084.6</ele>
        <time>2024-08-10T08:49:53Z</time>
      </trkpt>
      <trkpt lat="45.05106" lon="6.27333">
        <ele>2084.4</ele>
        <time>2024-08-10T08:49:54Z</time>
      </trkpt>
      <trkpt lat="45.05104" lon="6.27334">
        <ele>2083.8</ele>
        <time>2024-08-10T08:49:55Z</time>
      </trkpt>
      <trkpt lat="45.05104" lon="6.27334">
        <ele>2083.4</ele>
        <time>2024-08-10T08:49:56Z</time>
      </trkpt>
      <trkpt lat="45.05102" lon="6.27336">
        <ele>2083.4</ele>
        <time>2024-08-10T08:49:57Z</time>
      </trkpt>
      <trkpt lat="45.05102" lon="6.27336">
        <ele>2083.2</ele>
        <time>2024-08-10T08:49:58Z</time>
      </trkpt>
      <trkpt lat="45.05101" lon="6.2734">
        <ele>2082.8</ele>
        <time>2024-08-10T08:49:59Z</time>
      </trkpt>
      <trkpt lat="45.05101" lon="6.2734">
        <ele>2082.4</ele>
        <time>2024-08-10T08:50:00Z</time>
      </trkpt>
      <trkpt lat="45.05099" lon="6.27344">
        <ele>2082.4</ele>
        <time>2024-08-10T08:50:01Z</time>
      </trkpt>
      <trkpt lat="45.05099" lon="6.27344">
        <ele>2082.4</ele>
        <time>2024-08-10T08:50:02Z</time>
      </trkpt>
      <trkpt lat="45.05097" lon="6.27347">
        <ele>2082</ele>
        <time>2024-08-10T08:50:03Z</time>
      </trkpt>
      <trkpt lat="45.05097" lon="6.27347">
        <ele>2082</ele>
        <time>2024-08-10T08:50:04Z</time>
      </trkpt>
      <trkpt lat="45.05095" lon="6.2735">
        <ele>2081.8</ele>
        <time>2024-08-10T08:50:05Z</time>
      </trkpt>
      <trkpt lat="45.05095" lon="6.2735">
        <ele>2081.8</ele>
        <time>2024-08-10T08:50:06Z</time>
      </trkpt>
      <trkpt lat="45.05094" lon="6.27353">
        <ele>2081.8</ele>
        <time>2024-08-10T08:50:07Z</time>
      </trkpt>
      <trkpt lat="45.05094" lon="6.27353">
        <ele>2081.4</ele>
        <time>2024-08-10T08:50:08Z</time>
      </trkpt>
      <trkpt lat="45.05094" lon="6.27353">
        <ele>2080.8</ele>
        <time>2024-08-10T08:50:09Z</time>
      </trkpt>
      <trkpt lat="45.05092" lon="6.27355">
        <ele>2080.8</ele>
        <time>2024-08-10T08:50:10Z</time>
      </trkpt>
      <trkpt lat="45.0509" lon="6.27355">
        <ele>2080.8</ele>
        <time>2024-08-10T08:50:11Z</time>
      </trkpt>
      <trkpt lat="45.0509" lon="6.27355">
        <ele>2080.2</ele>
        <time>2024-08-10T08:50:12Z</time>
      </trkpt>
      <trkpt lat="45.05087" lon="6.27356">
        <ele>2080.2</ele>
        <time>2024-08-10T08:50:13Z</time>
      </trkpt>
      <trkpt lat="45.05087" lon="6.27356">
        <ele>2080</ele>
        <time>2024-08-10T08:50:14Z</time>
      </trkpt>
      <trkpt lat="45.05087" lon="6.27356">
        <ele>2079.4</ele>
        <time>2024-08-10T08:50:15Z</time>
      </trkpt>
      <trkpt lat="45.05086" lon="6.27359">
        <ele>2079.2</ele>
        <time>2024-08-10T08:50:16Z</time>
      </trkpt>
      <trkpt lat="45.05086" lon="6.27359">
        <ele>2079</ele>
        <time>2024-08-10T08:50:17Z</time>
      </trkpt>
      <trkpt lat="45.05088" lon="6.27361">
        <ele>2078.8</ele>
        <time>2024-08-10T08:50:18Z</time>
      </trkpt>
      <trkpt lat="45.05088" lon="6.27361">
        <ele>2078.6</ele>
        <time>2024-08-10T08:50:19Z</time>
      </trkpt>
      <trkpt lat="45.0509" lon="6.27362">
        <ele>2078.4</ele>
        <time>2024-08-10T08:50:20Z</time>
      </trkpt>
      <trkpt lat="45.0509" lon="6.27362">
        <ele>2077.8</ele>
        <time>2024-08-10T08:50:21Z</time>
      </trkpt>
      <trkpt lat="45.05093" lon="6.27363">
        <ele>2077.6</ele>
        <time>2024-08-10T08:50:22Z</time>
      </trkpt>
      <trkpt lat="45.05093" lon="6.27363">
        <ele>2077.4</ele>
        <time>2024-08-10T08:50:23Z</time>
      </trkpt>
      <trkpt lat="45.05095" lon="6.27365">
        <ele>2077.4</ele>
        <time>2024-08-10T08:50:24Z</time>
      </trkpt>
      <trkpt lat="45.05095" lon="6.27365">
        <ele>2077.4</ele>
        <time>2024-08-10T08:50:25Z</time>
      </trkpt>
      <trkpt lat="45.05096" lon="6.27368">
        <ele>2077</ele>
        <time>2024-08-10T08:50:26Z</time>
      </trkpt>
      <trkpt lat="45.05096" lon="6.27368">
        <ele>2076.4</ele>
        <time>2024-08-10T08:50:27Z</time>
      </trkpt>
      <trkpt lat="45.05094" lon="6.2737">
        <ele>2076.2</ele>
        <time>2024-08-10T08:50:28Z</time>
      </trkpt>
      <trkpt lat="45.05094" lon="6.2737">
        <ele>2076.2</ele>
        <time>2024-08-10T08:50:29Z</time>
      </trkpt>
      <trkpt lat="45.05092" lon="6.27371">
        <ele>2076</ele>
        <time>2024-08-10T08:50:30Z</time>
      </trkpt>
      <trkpt lat="45.05092" lon="6.27371">
        <ele>2076</ele>
        <time>2024-08-10T08:50:31Z</time>
      </trkpt>
      <trkpt lat="45.0509" lon="6.27372">
        <ele>2076</ele>
        <time>2024-08-10T08:50:32Z</time>
      </trkpt>
      <trkpt lat="45.0509" lon="6.27372">
        <ele>2076</ele>
        <time>2024-08-10T08:50:33Z</time>
      </trkpt>
      <trkpt lat="45.0509" lon="6.27372">
        <ele>2076</ele>
        <time>2024-08-10T08:50:34Z</time>
      </trkpt>
      <trkpt lat="45.0509" lon="6.27372">
        <ele>2075.6</ele>
        <time>2024-08-10T08:50:35Z</time>
      </trkpt>
      <trkpt lat="45.0509" lon="6.27372">
        <ele>2075</ele>
        <time>2024-08-10T08:50:36Z</time>
      </trkpt>
      <trkpt lat="45.0509" lon="6.27372">
        <ele>2075</ele>
        <time>2024-08-10T08:50:37Z</time>
      </trkpt>
      <trkpt lat="45.0509" lon="6.27372">
        <ele>2074.8</ele>
        <time>2024-08-10T08:50:38Z</time>
      </trkpt>
      <trkpt lat="45.0509" lon="6.27372">
        <ele>2074.8</ele>
        <time>2024-08-10T08:50:39Z</time>
      </trkpt>
      <trkpt lat="45.0509" lon="6.27372">
        <ele>2074.8</ele>
        <time>2024-08-10T08:50:40Z</time>
      </trkpt>
      <trkpt lat="45.0509" lon="6.27372">
        <ele>2074.8</ele>
        <time>2024-08-10T08:50:41Z</time>
      </trkpt>
      <trkpt lat="45.0509" lon="6.27372">
        <ele>2074.8</ele>
        <time>2024-08-10T08:50:42Z</time>
      </trkpt>
      <trkpt lat="45.0509" lon="6.27372">
        <ele>2074.6</ele>
        <time>2024-08-10T08:50:43Z</time>
      </trkpt>
      <trkpt lat="45.0509" lon="6.27372">
        <ele>2074.4</ele>
        <time>2024-08-10T08:50:44Z</time>
      </trkpt>
      <trkpt lat="45.05088" lon="6.27374">
        <ele>2074.4</ele>
        <time>2024-08-10T08:50:45Z</time>
      </trkpt>
      <trkpt lat="45.05088" lon="6.27374">
        <ele>2074.6</ele>
        <time>2024-08-10T08:50:46Z</time>
      </trkpt>
      <trkpt lat="45.05085" lon="6.27376">
        <ele>2074.6</ele>
        <time>2024-08-10T08:50:47Z</time>
      </trkpt>
      <trkpt lat="45.05084" lon="6.27378">
        <ele>2074.6</ele>
        <time>2024-08-10T08:50:48Z</time>
      </trkpt>
      <trkpt lat="45.05081" lon="6.27379">
        <ele>2074.4</ele>
        <time>2024-08-10T08:50:49Z</time>
      </trkpt>
      <trkpt lat="45.05081" lon="6.27379">
        <ele>2074.4</ele>
        <time>2024-08-10T08:50:50Z</time>
      </trkpt>
      <trkpt lat="45.05078" lon="6.27379">
        <ele>2074</ele>
        <time>2024-08-10T08:50:51Z</time>
      </trkpt>
      <trkpt lat="45.05078" lon="6.27379">
        <ele>2073.6</ele>
        <time>2024-08-10T08:50:52Z</time>
      </trkpt>
      <trkpt lat="45.05075" lon="6.27378">
        <ele>2073.4</ele>
        <time>2024-08-10T08:50:53Z</time>
      </trkpt>
      <trkpt lat="45.05075" lon="6.27378">
        <ele>2073.2</ele>
        <time>2024-08-10T08:50:54Z</time>
      </trkpt>
      <trkpt lat="45.05072" lon="6.27378">
        <ele>2073</ele>
        <time>2024-08-10T08:50:55Z</time>
      </trkpt>
      <trkpt lat="45.05072" lon="6.27378">
        <ele>2072.8</ele>
        <time>2024-08-10T08:50:56Z</time>
      </trkpt>
      <trkpt lat="45.05069" lon="6.27377">
        <ele>2072.8</ele>
        <time>2024-08-10T08:50:57Z</time>
      </trkpt>
      <trkpt lat="45.05069" lon="6.27377">
        <ele>2072.6</ele>
        <time>2024-08-10T08:50:58Z</time>
      </trkpt>
      <trkpt lat="45.05066" lon="6.27376">
        <ele>2072.2</ele>
        <time>2024-08-10T08:50:59Z</time>
      </trkpt>
      <trkpt lat="45.05066" lon="6.27376">
        <ele>2072</ele>
        <time>2024-08-10T08:51:00Z</time>
      </trkpt>
      <trkpt lat="45.05064" lon="6.27375">
        <ele>2071.4</ele>
        <time>2024-08-10T08:51:01Z</time>
      </trkpt>
      <trkpt lat="45.05064" lon="6.27375">
        <ele>2071.4</ele>
        <time>2024-08-10T08:51:02Z</time>
      </trkpt>
      <trkpt lat="45.05061" lon="6.27373">
        <ele>2071.4</ele>
        <time>2024-08-10T08:51:03Z</time>
      </trkpt>
      <trkpt lat="45.05061" lon="6.27373">
        <ele>2070.8</ele>
        <time>2024-08-10T08:51:04Z</time>
      </trkpt>
      <trkpt lat="45.05058" lon="6.27373">
        <ele>2070.6</ele>
        <time>2024-08-10T08:51:05Z</time>
      </trkpt>
      <trkpt lat="45.05058" lon="6.27373">
        <ele>2070.6</ele>
        <time>2024-08-10T08:51:06Z</time>
      </trkpt>
      <trkpt lat="45.05056" lon="6.27375">
        <ele>2070.6</ele>
        <time>2024-08-10T08:51:07Z</time>
      </trkpt>
      <trkpt lat="45.05056" lon="6.27375">
        <ele>2070.4</ele>
        <time>2024-08-10T08:51:08Z</time>
      </trkpt>
      <trkpt lat="45.05053" lon="6.27377">
        <ele>2070.2</ele>
        <time>2024-08-10T08:51:09Z</time>
      </trkpt>
      <trkpt lat="45.05053" lon="6.27377">
        <ele>2069.6</ele>
        <time>2024-08-10T08:51:10Z</time>
      </trkpt>
      <trkpt lat="45.0505" lon="6.27379">
        <ele>2069.2</ele>
        <time>2024-08-10T08:51:11Z</time>
      </trkpt>
      <trkpt lat="45.0505" lon="6.27379">
        <ele>2068.8</ele>
        <time>2024-08-10T08:51:12Z</time>
      </trkpt>
      <trkpt lat="45.05049" lon="6.27383">
        <ele>2068.2</ele>
        <time>2024-08-10T08:51:13Z</time>
      </trkpt>
      <trkpt lat="45.05048" lon="6.27384">
        <ele>2068</ele>
        <time>2024-08-10T08:51:14Z</time>
      </trkpt>
      <trkpt lat="45.05048" lon="6.27384">
        <ele>2067.4</ele>
        <time>2024-08-10T08:51:15Z</time>
      </trkpt>
      <trkpt lat="45.05046" lon="6.27387">
        <ele>2067</ele>
        <time>2024-08-10T08:51:16Z</time>
      </trkpt>
      <trkpt lat="45.05046" lon="6.27387">
        <ele>2066.4</ele>
        <time>2024-08-10T08:51:17Z</time>
      </trkpt>
      <trkpt lat="45.05045" lon="6.27391">
        <ele>2066</ele>
        <time>2024-08-10T08:51:18Z</time>
      </trkpt>
      <trkpt lat="45.05045" lon="6.27391">
        <ele>2065.8</ele>
        <time>2024-08-10T08:51:19Z</time>
      </trkpt>
      <trkpt lat="45.05044" lon="6.27394">
        <ele>2065.4</ele>
        <time>2024-08-10T08:51:20Z</time>
      </trkpt>
      <trkpt lat="45.05044" lon="6.27394">
        <ele>2064.8</ele>
        <time>2024-08-10T08:51:21Z</time>
      </trkpt>
      <trkpt lat="45.05043" lon="6.27398">
        <ele>2064.8</ele>
        <time>2024-08-10T08:51:22Z</time>
      </trkpt>
      <trkpt lat="45.05043" lon="6.27398">
        <ele>2064.8</ele>
        <time>2024-08-10T08:51:23Z</time>
      </trkpt>
      <trkpt lat="45.05044" lon="6.27402">
        <ele>2064.8</ele>
        <time>2024-08-10T08:51:24Z</time>
      </trkpt>
      <trkpt lat="45.05044" lon="6.27402">
        <ele>2064.6</ele>
        <time>2024-08-10T08:51:25Z</time>
      </trkpt>
      <trkpt lat="45.05045" lon="6.27405">
        <ele>2064</ele>
        <time>2024-08-10T08:51:26Z</time>
      </trkpt>
      <trkpt lat="45.05045" lon="6.27405">
        <ele>2063.8</ele>
        <time>2024-08-10T08:51:27Z</time>
      </trkpt>
      <trkpt lat="45.05046" lon="6.27408">
        <ele>2063.4</ele>
        <time>2024-08-10T08:51:28Z</time>
      </trkpt>
      <trkpt lat="45.05046" lon="6.27408">
        <ele>2063.2</ele>
        <time>2024-08-10T08:51:29Z</time>
      </trkpt>
      <trkpt lat="45.05048" lon="6.27411">
        <ele>2063.2</ele>
        <time>2024-08-10T08:51:30Z</time>
      </trkpt>
      <trkpt lat="45.05048" lon="6.27411">
        <ele>2063</ele>
        <time>2024-08-10T08:51:31Z</time>
      </trkpt>
      <trkpt lat="45.05049" lon="6.27414">
        <ele>2062.8</ele>
        <time>2024-08-10T08:51:32Z</time>
      </trkpt>
      <trkpt lat="45.05049" lon="6.27414">
        <ele>2062.6</ele>
        <time>2024-08-10T08:51:33Z</time>
      </trkpt>
      <trkpt lat="45.05051" lon="6.27417">
        <ele>2062.4</ele>
        <time>2024-08-10T08:51:34Z</time>
      </trkpt>
      <trkpt lat="45.05051" lon="6.27417">
        <ele>2062</ele>
        <time>2024-08-10T08:51:35Z</time>
      </trkpt>
      <trkpt lat="45.05052" lon="6.2742">
        <ele>2061.6</ele>
        <time>2024-08-10T08:51:36Z</time>
      </trkpt>
      <trkpt lat="45.05052" lon="6.2742">
        <ele>2061.4</ele>
        <time>2024-08-10T08:51:37Z</time>
      </trkpt>
      <trkpt lat="45.05053" lon="6.27423">
        <ele>2061</ele>
        <time>2024-08-10T08:51:38Z</time>
      </trkpt>
      <trkpt lat="45.05053" lon="6.27423">
        <ele>2060.8</ele>
        <time>2024-08-10T08:51:39Z</time>
      </trkpt>
      <trkpt lat="45.05054" lon="6.27426">
        <ele>2060.6</ele>
        <time>2024-08-10T08:51:40Z</time>
      </trkpt>
      <trkpt lat="45.05054" lon="6.27426">
        <ele>2060.2</ele>
        <time>2024-08-10T08:51:41Z</time>
      </trkpt>
      <trkpt lat="45.05053" lon="6.27428">
        <ele>2060</ele>
        <time>2024-08-10T08:51:42Z</time>
      </trkpt>
      <trkpt lat="45.05053" lon="6.27428">
        <ele>2059.6</ele>
        <time>2024-08-10T08:51:43Z</time>
      </trkpt>
      <trkpt lat="45.05051" lon="6.2743">
        <ele>2059.2</ele>
        <time>2024-08-10T08:51:44Z</time>
      </trkpt>
      <trkpt lat="45.05051" lon="6.2743">
        <ele>2059</ele>
        <time>2024-08-10T08:51:45Z</time>
      </trkpt>
      <trkpt lat="45.05048" lon="6.27432">
        <ele>2058.6</ele>
        <time>2024-08-10T08:51:46Z</time>
      </trkpt>
      <trkpt lat="45.05048" lon="6.27432">
        <ele>2058.4</ele>
        <time>2024-08-10T08:51:47Z</time>
      </trkpt>
      <trkpt lat="45.05046" lon="6.27435">
        <ele>2058.2</ele>
        <time>2024-08-10T08:51:48Z</time>
      </trkpt>
      <trkpt lat="45.05046" lon="6.27435">
        <ele>2058</ele>
        <time>2024-08-10T08:51:49Z</time>
      </trkpt>
      <trkpt lat="45.05044" lon="6.27437">
        <ele>2057.6</ele>
        <time>2024-08-10T08:51:50Z</time>
      </trkpt>
      <trkpt lat="45.05044" lon="6.27437">
        <ele>2057.4</ele>
        <time>2024-08-10T08:51:51Z</time>
      </trkpt>
      <trkpt lat="45.05042" lon="6.27438">
        <ele>2057.2</ele>
        <time>2024-08-10T08:51:52Z</time>
      </trkpt>
      <trkpt lat="45.05042" lon="6.27438">
        <ele>2057</ele>
        <time>2024-08-10T08:51:53Z</time>
      </trkpt>
      <trkpt lat="45.05038" lon="6.27439">
        <ele>2057</ele>
        <time>2024-08-10T08:51:54Z</time>
      </trkpt>
      <trkpt lat="45.05038" lon="6.27439">
        <ele>2057</ele>
        <time>2024-08-10T08:51:55Z</time>
      </trkpt>
      <trkpt lat="45.05036" lon="6.2744">
        <ele>2056.6</ele>
        <time>2024-08-10T08:51:56Z</time>
      </trkpt>
      <trkpt lat="45.05036" lon="6.2744">
        <ele>2056.2</ele>
        <time>2024-08-10T08:51:57Z</time>
      </trkpt>
      <trkpt lat="45.05033" lon="6.2744">
        <ele>2055.8</ele>
        <time>2024-08-10T08:51:58Z</time>
      </trkpt>
      <trkpt lat="45.05033" lon="6.2744">
        <ele>2055.6</ele>
        <time>2024-08-10T08:51:59Z</time>
      </trkpt>
      <trkpt lat="45.05033" lon="6.2744">
        <ele>2055.4</ele>
        <time>2024-08-10T08:52:00Z</time>
      </trkpt>
      <trkpt lat="45.05031" lon="6.27443">
        <ele>2055.2</ele>
        <time>2024-08-10T08:52:01Z</time>
      </trkpt>
      <trkpt lat="45.05031" lon="6.27443">
        <ele>2055</ele>
        <time>2024-08-10T08:52:02Z</time>
      </trkpt>
      <trkpt lat="45.05033" lon="6.27446">
        <ele>2054.6</ele>
        <time>2024-08-10T08:52:03Z</time>
      </trkpt>
      <trkpt lat="45.05033" lon="6.27446">
        <ele>2054.6</ele>
        <time>2024-08-10T08:52:04Z</time>
      </trkpt>
      <trkpt lat="45.05036" lon="6.27447">
        <ele>2054.2</ele>
        <time>2024-08-10T08:52:05Z</time>
      </trkpt>
      <trkpt lat="45.05036" lon="6.27447">
        <ele>2053.8</ele>
        <time>2024-08-10T08:52:06Z</time>
      </trkpt>
      <trkpt lat="45.05037" lon="6.2745">
        <ele>2053.6</ele>
        <time>2024-08-10T08:52:07Z</time>
      </trkpt>
      <trkpt lat="45.05037" lon="6.2745">
        <ele>2053.2</ele>
        <time>2024-08-10T08:52:08Z</time>
      </trkpt>
      <trkpt lat="45.05038" lon="6.27453">
        <ele>2053</ele>
        <time>2024-08-10T08:52:09Z</time>
      </trkpt>
      <trkpt lat="45.05038" lon="6.27453">
        <ele>2052.8</ele>
        <time>2024-08-10T08:52:10Z</time>
      </trkpt>
      <trkpt lat="45.05039" lon="6.27456">
        <ele>2052.4</ele>
        <time>2024-08-10T08:52:11Z</time>
      </trkpt>
      <trkpt lat="45.05039" lon="6.27456">
        <ele>2052</ele>
        <time>2024-08-10T08:52:12Z</time>
      </trkpt>
      <trkpt lat="45.05042" lon="6.27458">
        <ele>2051.6</ele>
        <time>2024-08-10T08:52:13Z</time>
      </trkpt>
      <trkpt lat="45.05042" lon="6.27458">
        <ele>2051.6</ele>
        <time>2024-08-10T08:52:14Z</time>
      </trkpt>
      <trkpt lat="45.05044" lon="6.27458">
        <ele>2051.2</ele>
        <time>2024-08-10T08:52:15Z</time>
      </trkpt>
      <trkpt lat="45.05044" lon="6.27458">
        <ele>2051.2</ele>
        <time>2024-08-10T08:52:16Z</time>
      </trkpt>
      <trkpt lat="45.05046" lon="6.27458">
        <ele>2050.8</ele>
        <time>2024-08-10T08:52:17Z</time>
      </trkpt>
      <trkpt lat="45.05046" lon="6.27458">
        <ele>2050.6</ele>
        <time>2024-08-10T08:52:18Z</time>
      </trkpt>
      <trkpt lat="45.05049" lon="6.27458">
        <ele>2050.6</ele>
        <time>2024-08-10T08:52:19Z</time>
      </trkpt>
      <trkpt lat="45.05049" lon="6.27458">
        <ele>2050.6</ele>
        <time>2024-08-10T08:52:20Z</time>
      </trkpt>
      <trkpt lat="45.05051" lon="6.27459">
        <ele>2050.2</ele>
        <time>2024-08-10T08:52:21Z</time>
      </trkpt>
      <trkpt lat="45.05051" lon="6.27459">
        <ele>2049.8</ele>
        <time>2024-08-10T08:52:22Z</time>
      </trkpt>
      <trkpt lat="45.05052" lon="6.27462">
        <ele>2049.6</ele>
        <time>2024-08-10T08:52:23Z</time>
      </trkpt>
      <trkpt lat="45.05052" lon="6.27462">
        <ele>2049.4</ele>
        <time>2024-08-10T08:52:24Z</time>
      </trkpt>
      <trkpt lat="45.05051" lon="6.27465">
        <ele>2049.2</ele>
        <time>2024-08-10T08:52:25Z</time>
      </trkpt>
      <trkpt lat="45.05051" lon="6.27465">
        <ele>2048.8</ele>
        <time>2024-08-10T08:52:26Z</time>
      </trkpt>
      <trkpt lat="45.05049" lon="6.27466">
        <ele>2048.4</ele>
        <time>2024-08-10T08:52:27Z</time>
      </trkpt>
      <trkpt lat="45.05049" lon="6.27466">
        <ele>2048.4</ele>
        <time>2024-08-10T08:52:28Z</time>
      </trkpt>
      <trkpt lat="45.05046" lon="6.27468">
        <ele>2048.2</ele>
        <time>2024-08-10T08:52:29Z</time>
      </trkpt>
      <trkpt lat="45.05046" lon="6.27468">
        <ele>2048</ele>
        <time>2024-08-10T08:52:30Z</time>
      </trkpt>
      <trkpt lat="45.05044" lon="6.27471">
        <ele>2048</ele>
        <time>2024-08-10T08:52:31Z</time>
      </trkpt>
      <trkpt lat="45.05044" lon="6.27471">
        <ele>2047.6</ele>
        <time>2024-08-10T08:52:32Z</time>
      </trkpt>
      <trkpt lat="45.05044" lon="6.27474">
        <ele>2047.4</ele>
        <time>2024-08-10T08:52:33Z</time>
      </trkpt>
      <trkpt lat="45.05044" lon="6.27474">
        <ele>2047.4</ele>
        <time>2024-08-10T08:52:34Z</time>
      </trkpt>
      <trkpt lat="45.05045" lon="6.27476">
        <ele>2047.2</ele>
        <time>2024-08-10T08:52:35Z</time>
      </trkpt>
      <trkpt lat="45.05045" lon="6.27476">
        <ele>2047</ele>
        <time>2024-08-10T08:52:36Z</time>
      </trkpt>
      <trkpt lat="45.05046" lon="6.27479">
        <ele>2046.8</ele>
        <time>2024-08-10T08:52:37Z</time>
      </trkpt>
      <trkpt lat="45.05046" lon="6.27479">
        <ele>2046.4</ele>
        <time>2024-08-10T08:52:38Z</time>
      </trkpt>
      <trkpt lat="45.05048" lon="6.27482">
        <ele>2046.4</ele>
        <time>2024-08-10T08:52:39Z</time>
      </trkpt>
      <trkpt lat="45.05048" lon="6.27482">
        <ele>2046</ele>
        <time>2024-08-10T08:52:40Z</time>
      </trkpt>
      <trkpt lat="45.05048" lon="6.27486">
        <ele>2045.6</ele>
        <time>2024-08-10T08:52:41Z</time>
      </trkpt>
      <trkpt lat="45.05048" lon="6.27486">
        <ele>2045.2</ele>
        <time>2024-08-10T08:52:42Z</time>
      </trkpt>
      <trkpt lat="45.05047" lon="6.27488">
        <ele>2045</ele>
        <time>2024-08-10T08:52:43Z</time>
      </trkpt>
      <trkpt lat="45.05047" lon="6.27488">
        <ele>2044.8</ele>
        <time>2024-08-10T08:52:44Z</time>
      </trkpt>
      <trkpt lat="45.05044" lon="6.27489">
        <ele>2044.8</ele>
        <time>2024-08-10T08:52:45Z</time>
      </trkpt>
      <trkpt lat="45.05044" lon="6.27489">
        <ele>2044.6</ele>
        <time>2024-08-10T08:52:46Z</time>
      </trkpt>
      <trkpt lat="45.05042" lon="6.27489">
        <ele>2044.4</ele>
        <time>2024-08-10T08:52:47Z</time>
      </trkpt>
      <trkpt lat="45.05042" lon="6.27489">
        <ele>2044.2</ele>
        <time>2024-08-10T08:52:48Z</time>
      </trkpt>
      <trkpt lat="45.0504" lon="6.2749">
        <ele>2044</ele>
        <time>2024-08-10T08:52:49Z</time>
      </trkpt>
      <trkpt lat="45.0504" lon="6.2749">
        <ele>2044</ele>
        <time>2024-08-10T08:52:50Z</time>
      </trkpt>
      <trkpt lat="45.0504" lon="6.27493">
        <ele>2043.6</ele>
        <time>2024-08-10T08:52:51Z</time>
      </trkpt>
      <trkpt lat="45.0504" lon="6.27493">
        <ele>2043.2</ele>
        <time>2024-08-10T08:52:52Z</time>
      </trkpt>
      <trkpt lat="45.05041" lon="6.27497">
        <ele>2043</ele>
        <time>2024-08-10T08:52:53Z</time>
      </trkpt>
      <trkpt lat="45.05041" lon="6.27497">
        <ele>2043</ele>
        <time>2024-08-10T08:52:54Z</time>
      </trkpt>
      <trkpt lat="45.05042" lon="6.275">
        <ele>2042.6</ele>
        <time>2024-08-10T08:52:55Z</time>
      </trkpt>
      <trkpt lat="45.05042" lon="6.275">
        <ele>2042.4</ele>
        <time>2024-08-10T08:52:56Z</time>
      </trkpt>
      <trkpt lat="45.05044" lon="6.27503">
        <ele>2042.4</ele>
        <time>2024-08-10T08:52:57Z</time>
      </trkpt>
      <trkpt lat="45.05044" lon="6.27503">
        <ele>2042.4</ele>
        <time>2024-08-10T08:52:58Z</time>
      </trkpt>
      <trkpt lat="45.05045" lon="6.27505">
        <ele>2042</ele>
        <time>2024-08-10T08:52:59Z</time>
      </trkpt>
      <trkpt lat="45.05045" lon="6.27505">
        <ele>2041.8</ele>
        <time>2024-08-10T08:53:00Z</time>
      </trkpt>
      <trkpt lat="45.05047" lon="6.27507">
        <ele>2041.8</ele>
        <time>2024-08-10T08:53:01Z</time>
      </trkpt>
      <trkpt lat="45.05047" lon="6.27507">
        <ele>2041.6</ele>
        <time>2024-08-10T08:53:02Z</time>
      </trkpt>
      <trkpt lat="45.05049" lon="6.27508">
        <ele>2041.4</ele>
        <time>2024-08-10T08:53:03Z</time>
      </trkpt>
      <trkpt lat="45.05049" lon="6.27508">
        <ele>2041.4</ele>
        <time>2024-08-10T08:53:04Z</time>
      </trkpt>
      <trkpt lat="45.05052" lon="6.27509">
        <ele>2041.4</ele>
        <time>2024-08-10T08:53:05Z</time>
      </trkpt>
      <trkpt lat="45.05052" lon="6.27509">
        <ele>2041</ele>
        <time>2024-08-10T08:53:06Z</time>
      </trkpt>
      <trkpt lat="45.05054" lon="6.2751">
        <ele>2040.8</ele>
        <time>2024-08-10T08:53:07Z</time>
      </trkpt>
      <trkpt lat="45.05054" lon="6.2751">
        <ele>2040.6</ele>
        <time>2024-08-10T08:53:08Z</time>
      </trkpt>
      <trkpt lat="45.05057" lon="6.27509">
        <ele>2040.4</ele>
        <time>2024-08-10T08:53:09Z</time>
      </trkpt>
      <trkpt lat="45.05057" lon="6.27509">
        <ele>2040</ele>
        <time>2024-08-10T08:53:10Z</time>
      </trkpt>
      <trkpt lat="45.0506" lon="6.27508">
        <ele>2039.8</ele>
        <time>2024-08-10T08:53:11Z</time>
      </trkpt>
      <trkpt lat="45.0506" lon="6.27508">
        <ele>2039.4</ele>
        <time>2024-08-10T08:53:12Z</time>
      </trkpt>
      <trkpt lat="45.05062" lon="6.27507">
        <ele>2039</ele>
        <time>2024-08-10T08:53:13Z</time>
      </trkpt>
      <trkpt lat="45.05062" lon="6.27507">
        <ele>2039</ele>
        <time>2024-08-10T08:53:14Z</time>
      </trkpt>
      <trkpt lat="45.05065" lon="6.27507">
        <ele>2038.8</ele>
        <time>2024-08-10T08:53:15Z</time>
      </trkpt>
      <trkpt lat="45.05065" lon="6.27507">
        <ele>2038.6</ele>
        <time>2024-08-10T08:53:16Z</time>
      </trkpt>
      <trkpt lat="45.05068" lon="6.27507">
        <ele>2038.4</ele>
        <time>2024-08-10T08:53:17Z</time>
      </trkpt>
      <trkpt lat="45.05068" lon="6.27507">
        <ele>2038.2</ele>
        <time>2024-08-10T08:53:18Z</time>
      </trkpt>
      <trkpt lat="45.0507" lon="6.27507">
        <ele>2038</ele>
        <time>2024-08-10T08:53:19Z</time>
      </trkpt>
      <trkpt lat="45.0507" lon="6.27507">
        <ele>2037.8</ele>
        <time>2024-08-10T08:53:20Z</time>
      </trkpt>
      <trkpt lat="45.05073" lon="6.27508">
        <ele>2037.6</ele>
        <time>2024-08-10T08:53:21Z</time>
      </trkpt>
      <trkpt lat="45.05073" lon="6.27508">
        <ele>2037.2</ele>
        <time>2024-08-10T08:53:22Z</time>
      </trkpt>
      <trkpt lat="45.05076" lon="6.2751">
        <ele>2037</ele>
        <time>2024-08-10T08:53:23Z</time>
      </trkpt>
      <trkpt lat="45.05076" lon="6.2751">
        <ele>2037</ele>
        <time>2024-08-10T08:53:24Z</time>
      </trkpt>
      <trkpt lat="45.05078" lon="6.27512">
        <ele>2036.6</ele>
        <time>2024-08-10T08:53:25Z</time>
      </trkpt>
      <trkpt lat="45.05078" lon="6.27512">
        <ele>2036.2</ele>
        <time>2024-08-10T08:53:26Z</time>
      </trkpt>
      <trkpt lat="45.0508" lon="6.27514">
        <ele>2036</ele>
        <time>2024-08-10T08:53:27Z</time>
      </trkpt>
      <trkpt lat="45.05081" lon="6.27515">
        <ele>2035.8</ele>
        <time>2024-08-10T08:53:28Z</time>
      </trkpt>
      <trkpt lat="45.05081" lon="6.27515">
        <ele>2035.6</ele>
        <time>2024-08-10T08:53:29Z</time>
      </trkpt>
      <trkpt lat="45.05084" lon="6.27517">
        <ele>2035.6</ele>
        <time>2024-08-10T08:53:30Z</time>
      </trkpt>
      <trkpt lat="45.05084" lon="6.27517">
        <ele>2035.4</ele>
        <time>2024-08-10T08:53:31Z</time>
      </trkpt>
      <trkpt lat="45.05085" lon="6.27519">
        <ele>2035.2</ele>
        <time>2024-08-10T08:53:32Z</time>
      </trkpt>
      <trkpt lat="45.05085" lon="6.27519">
        <ele>2035</ele>
        <time>2024-08-10T08:53:33Z</time>
      </trkpt>
      <trkpt lat="45.05086" lon="6.27522">
        <ele>2034.8</ele>
        <time>2024-08-10T08:53:34Z</time>
      </trkpt>
      <trkpt lat="45.05086" lon="6.27522">
        <ele>2034.6</ele>
        <time>2024-08-10T08:53:35Z</time>
      </trkpt>
      <trkpt lat="45.05086" lon="6.27526">
        <ele>2034.4</ele>
        <time>2024-08-10T08:53:36Z</time>
      </trkpt>
      <trkpt lat="45.05086" lon="6.27526">
        <ele>2034.4</ele>
        <time>2024-08-10T08:53:37Z</time>
      </trkpt>
      <trkpt lat="45.05085" lon="6.2753">
        <ele>2034.2</ele>
        <time>2024-08-10T08:53:38Z</time>
      </trkpt>
      <trkpt lat="45.05085" lon="6.2753">
        <ele>2033.6</ele>
        <time>2024-08-10T08:53:39Z</time>
      </trkpt>
      <trkpt lat="45.05085" lon="6.27533">
        <ele>2033.2</ele>
        <time>2024-08-10T08:53:40Z</time>
      </trkpt>
      <trkpt lat="45.05085" lon="6.27533">
        <ele>2033</ele>
        <time>2024-08-10T08:53:41Z</time>
      </trkpt>
      <trkpt lat="45.05084" lon="6.27537">
        <ele>2032.8</ele>
        <time>2024-08-10T08:53:42Z</time>
      </trkpt>
      <trkpt lat="45.05084" lon="6.27537">
        <ele>2032.6</ele>
        <time>2024-08-10T08:53:43Z</time>
      </trkpt>
      <trkpt lat="45.05084" lon="6.2754">
        <ele>2032.4</ele>
        <time>2024-08-10T08:53:44Z</time>
      </trkpt>
      <trkpt lat="45.05084" lon="6.2754">
        <ele>2032.2</ele>
        <time>2024-08-10T08:53:45Z</time>
      </trkpt>
      <trkpt lat="45.05086" lon="6.27542">
        <ele>2031.8</ele>
        <time>2024-08-10T08:53:46Z</time>
      </trkpt>
      <trkpt lat="45.05086" lon="6.27542">
        <ele>2031.8</ele>
        <time>2024-08-10T08:53:47Z</time>
      </trkpt>
      <trkpt lat="45.05089" lon="6.27544">
        <ele>2031.6</ele>
        <time>2024-08-10T08:53:48Z</time>
      </trkpt>
      <trkpt lat="45.05089" lon="6.27544">
        <ele>2031.6</ele>
        <time>2024-08-10T08:53:49Z</time>
      </trkpt>
      <trkpt lat="45.05091" lon="6.27546">
        <ele>2031.4</ele>
        <time>2024-08-10T08:53:50Z</time>
      </trkpt>
      <trkpt lat="45.05091" lon="6.27546">
        <ele>2031.2</ele>
        <time>2024-08-10T08:53:51Z</time>
      </trkpt>
      <trkpt lat="45.05093" lon="6.27549">
        <ele>2030.8</ele>
        <time>2024-08-10T08:53:52Z</time>
      </trkpt>
      <trkpt lat="45.05093" lon="6.27549">
        <ele>2030.6</ele>
        <time>2024-08-10T08:53:53Z</time>
      </trkpt>
      <trkpt lat="45.05096" lon="6.27549">
        <ele>2030.2</ele>
        <time>2024-08-10T08:53:54Z</time>
      </trkpt>
      <trkpt lat="45.05096" lon="6.27549">
        <ele>2030.2</ele>
        <time>2024-08-10T08:53:55Z</time>
      </trkpt>
      <trkpt lat="45.05098" lon="6.27548">
        <ele>2030</ele>
        <time>2024-08-10T08:53:56Z</time>
      </trkpt>
      <trkpt lat="45.05098" lon="6.27548">
        <ele>2029.6</ele>
        <time>2024-08-10T08:53:57Z</time>
      </trkpt>
      <trkpt lat="45.051" lon="6.27545">
        <ele>2029</ele>
        <time>2024-08-10T08:53:58Z</time>
      </trkpt>
      <trkpt lat="45.051" lon="6.27545">
        <ele>2028.8</ele>
        <time>2024-08-10T08:53:59Z</time>
      </trkpt>
      <trkpt lat="45.05102" lon="6.27544">
        <ele>2028.8</ele>
        <time>2024-08-10T08:54:00Z</time>
      </trkpt>
      <trkpt lat="45.05102" lon="6.27544">
        <ele>2028.8</ele>
        <time>2024-08-10T08:54:01Z</time>
      </trkpt>
      <trkpt lat="45.05105" lon="6.27545">
        <ele>2028.6</ele>
        <time>2024-08-10T08:54:02Z</time>
      </trkpt>
      <trkpt lat="45.05105" lon="6.27545">
        <ele>2028.2</ele>
        <time>2024-08-10T08:54:03Z</time>
      </trkpt>
      <trkpt lat="45.05106" lon="6.27548">
        <ele>2028.2</ele>
        <time>2024-08-10T08:54:04Z</time>
      </trkpt>
      <trkpt lat="45.05106" lon="6.27548">
        <ele>2028.2</ele>
        <time>2024-08-10T08:54:05Z</time>
      </trkpt>
      <trkpt lat="45.05106" lon="6.27552">
        <ele>2028.2</ele>
        <time>2024-08-10T08:54:06Z</time>
      </trkpt>
      <trkpt lat="45.05106" lon="6.27552">
        <ele>2027.8</ele>
        <time>2024-08-10T08:54:07Z</time>
      </trkpt>
      <trkpt lat="45.05106" lon="6.27555">
        <ele>2027.4</ele>
        <time>2024-08-10T08:54:08Z</time>
      </trkpt>
      <trkpt lat="45.05106" lon="6.27555">
        <ele>2027.4</ele>
        <time>2024-08-10T08:54:09Z</time>
      </trkpt>
      <trkpt lat="45.05105" lon="6.27559">
        <ele>2027.4</ele>
        <time>2024-08-10T08:54:10Z</time>
      </trkpt>
      <trkpt lat="45.05105" lon="6.27559">
        <ele>2027.4</ele>
        <time>2024-08-10T08:54:11Z</time>
      </trkpt>
      <trkpt lat="45.05103" lon="6.27562">
        <ele>2027</ele>
        <time>2024-08-10T08:54:12Z</time>
      </trkpt>
      <trkpt lat="45.05103" lon="6.27562">
        <ele>2026.8</ele>
        <time>2024-08-10T08:54:13Z</time>
      </trkpt>
      <trkpt lat="45.05101" lon="6.27564">
        <ele>2026.6</ele>
        <time>2024-08-10T08:54:14Z</time>
      </trkpt>
      <trkpt lat="45.05101" lon="6.27564">
        <ele>2026.6</ele>
        <time>2024-08-10T08:54:15Z</time>
      </trkpt>
      <trkpt lat="45.05099" lon="6.27566">
        <ele>2026.4</ele>
        <time>2024-08-10T08:54:16Z</time>
      </trkpt>
      <trkpt lat="45.05099" lon="6.27566">
        <ele>2026.4</ele>
        <time>2024-08-10T08:54:17Z</time>
      </trkpt>
      <trkpt lat="45.05098" lon="6.27569">
        <ele>2026.2</ele>
        <time>2024-08-10T08:54:18Z</time>
      </trkpt>
      <trkpt lat="45.05098" lon="6.27569">
        <ele>2026</ele>
        <time>2024-08-10T08:54:19Z</time>
      </trkpt>
      <trkpt lat="45.05097" lon="6.27573">
        <ele>2026</ele>
        <time>2024-08-10T08:54:20Z</time>
      </trkpt>
      <trkpt lat="45.05097" lon="6.27573">
        <ele>2025.4</ele>
        <time>2024-08-10T08:54:21Z</time>
      </trkpt>
      <trkpt lat="45.05098" lon="6.27575">
        <ele>2025.2</ele>
        <time>2024-08-10T08:54:22Z</time>
      </trkpt>
      <trkpt lat="45.05098" lon="6.27575">
        <ele>2025.2</ele>
        <time>2024-08-10T08:54:23Z</time>
      </trkpt>
      <trkpt lat="45.051" lon="6.27577">
        <ele>2025.2</ele>
        <time>2024-08-10T08:54:24Z</time>
      </trkpt>
      <trkpt lat="45.051" lon="6.27577">
        <ele>2025.2</ele>
        <time>2024-08-10T08:54:25Z</time>
      </trkpt>
      <trkpt lat="45.05103" lon="6.27577">
        <ele>2024.8</ele>
        <time>2024-08-10T08:54:26Z</time>
      </trkpt>
      <trkpt lat="45.05103" lon="6.27577">
        <ele>2024.6</ele>
        <time>2024-08-10T08:54:27Z</time>
      </trkpt>
      <trkpt lat="45.05106" lon="6.27578">
        <ele>2024.4</ele>
        <time>2024-08-10T08:54:28Z</time>
      </trkpt>
      <trkpt lat="45.05106" lon="6.27578">
        <ele>2024.2</ele>
        <time>2024-08-10T08:54:29Z</time>
      </trkpt>
      <trkpt lat="45.05109" lon="6.27578">
        <ele>2024.2</ele>
        <time>2024-08-10T08:54:30Z</time>
      </trkpt>
      <trkpt lat="45.05109" lon="6.27578">
        <ele>2024</ele>
        <time>2024-08-10T08:54:31Z</time>
      </trkpt>
      <trkpt lat="45.05111" lon="6.27578">
        <ele>2024</ele>
        <time>2024-08-10T08:54:32Z</time>
      </trkpt>
      <trkpt lat="45.05111" lon="6.27578">
        <ele>2023.6</ele>
        <time>2024-08-10T08:54:33Z</time>
      </trkpt>
      <trkpt lat="45.05113" lon="6.2758">
        <ele>2023.2</ele>
        <time>2024-08-10T08:54:34Z</time>
      </trkpt>
      <trkpt lat="45.05113" lon="6.2758">
        <ele>2023.2</ele>
        <time>2024-08-10T08:54:35Z</time>
      </trkpt>
      <trkpt lat="45.05113" lon="6.27583">
        <ele>2023</ele>
        <time>2024-08-10T08:54:36Z</time>
      </trkpt>
      <trkpt lat="45.05113" lon="6.27583">
        <ele>2023</ele>
        <time>2024-08-10T08:54:37Z</time>
      </trkpt>
      <trkpt lat="45.05112" lon="6.27586">
        <ele>2022.4</ele>
        <time>2024-08-10T08:54:38Z</time>
      </trkpt>
      <trkpt lat="45.05112" lon="6.27586">
        <ele>2022</ele>
        <time>2024-08-10T08:54:39Z</time>
      </trkpt>
      <trkpt lat="45.0511" lon="6.27589">
        <ele>2021.8</ele>
        <time>2024-08-10T08:54:40Z</time>
      </trkpt>
      <trkpt lat="45.0511" lon="6.27589">
        <ele>2021.6</ele>
        <time>2024-08-10T08:54:41Z</time>
      </trkpt>
      <trkpt lat="45.05108" lon="6.27592">
        <ele>2021.6</ele>
        <time>2024-08-10T08:54:42Z</time>
      </trkpt>
      <trkpt lat="45.05108" lon="6.27592">
        <ele>2021.2</ele>
        <time>2024-08-10T08:54:43Z</time>
      </trkpt>
      <trkpt lat="45.05106" lon="6.27595">
        <ele>2021.2</ele>
        <time>2024-08-10T08:54:44Z</time>
      </trkpt>
      <trkpt lat="45.05106" lon="6.27595">
        <ele>2021.2</ele>
        <time>2024-08-10T08:54:45Z</time>
      </trkpt>
      <trkpt lat="45.05104" lon="6.27597">
        <ele>2021</ele>
        <time>2024-08-10T08:54:46Z</time>
      </trkpt>
      <trkpt lat="45.05104" lon="6.27597">
        <ele>2020.8</ele>
        <time>2024-08-10T08:54:47Z</time>
      </trkpt>
      <trkpt lat="45.05101" lon="6.27599">
        <ele>2020.6</ele>
        <time>2024-08-10T08:54:48Z</time>
      </trkpt>
      <trkpt lat="45.05101" lon="6.27599">
        <ele>2020.6</ele>
        <time>2024-08-10T08:54:49Z</time>
      </trkpt>
      <trkpt lat="45.05099" lon="6.276">
        <ele>2020.6</ele>
        <time>2024-08-10T08:54:50Z</time>
      </trkpt>
      <trkpt lat="45.05099" lon="6.276">
        <ele>2020.2</ele>
        <time>2024-08-10T08:54:51Z</time>
      </trkpt>
      <trkpt lat="45.05099" lon="6.276">
        <ele>2019.8</ele>
        <time>2024-08-10T08:54:52Z</time>
      </trkpt>
      <trkpt lat="45.05099" lon="6.27603">
        <ele>2019.6</ele>
        <time>2024-08-10T08:54:53Z</time>
      </trkpt>
      <trkpt lat="45.05099" lon="6.27603">
        <ele>2019.6</ele>
        <time>2024-08-10T08:54:54Z</time>
      </trkpt>
      <trkpt lat="45.05101" lon="6.27605">
        <ele>2019.2</ele>
        <time>2024-08-10T08:54:55Z</time>
      </trkpt>
      <trkpt lat="45.05101" lon="6.27605">
        <ele>2019.2</ele>
        <time>2024-08-10T08:54:56Z</time>
      </trkpt>
      <trkpt lat="45.05104" lon="6.27606">
        <ele>2019</ele>
        <time>2024-08-10T08:54:57Z</time>
      </trkpt>
      <trkpt lat="45.05104" lon="6.27606">
        <ele>2018.8</ele>
        <time>2024-08-10T08:54:58Z</time>
      </trkpt>
      <trkpt lat="45.05106" lon="6.27608">
        <ele>2018.8</ele>
        <time>2024-08-10T08:54:59Z</time>
      </trkpt>
      <trkpt lat="45.05106" lon="6.27608">
        <ele>2018.8</ele>
        <time>2024-08-10T08:55:00Z</time>
      </trkpt>
      <trkpt lat="45.05109" lon="6.27609">
        <ele>2018</ele>
        <time>2024-08-10T08:55:01Z</time>
      </trkpt>
      <trkpt lat="45.05109" lon="6.27609">
        <ele>2017.6</ele>
        <time>2024-08-10T08:55:02Z</time>
      </trkpt>
      <trkpt lat="45.05111" lon="6.27611">
        <ele>2017.6</ele>
        <time>2024-08-10T08:55:03Z</time>
      </trkpt>
      <trkpt lat="45.05111" lon="6.27611">
        <ele>2017.6</ele>
        <time>2024-08-10T08:55:04Z</time>
      </trkpt>
      <trkpt lat="45.05114" lon="6.27613">
        <ele>2017.6</ele>
        <time>2024-08-10T08:55:05Z</time>
      </trkpt>
      <trkpt lat="45.05114" lon="6.27613">
        <ele>2017.4</ele>
        <time>2024-08-10T08:55:06Z</time>
      </trkpt>
      <trkpt lat="45.05117" lon="6.27615">
        <ele>2017.2</ele>
        <time>2024-08-10T08:55:07Z</time>
      </trkpt>
      <trkpt lat="45.05117" lon="6.27615">
        <ele>2017.2</ele>
        <time>2024-08-10T08:55:08Z</time>
      </trkpt>
      <trkpt lat="45.05119" lon="6.27616">
        <ele>2016.8</ele>
        <time>2024-08-10T08:55:09Z</time>
      </trkpt>
      <trkpt lat="45.05119" lon="6.27616">
        <ele>2016.8</ele>
        <time>2024-08-10T08:55:10Z</time>
      </trkpt>
      <trkpt lat="45.05122" lon="6.27616">
        <ele>2016.6</ele>
        <time>2024-08-10T08:55:11Z</time>
      </trkpt>
      <trkpt lat="45.05122" lon="6.27616">
        <ele>2016.4</ele>
        <time>2024-08-10T08:55:12Z</time>
      </trkpt>
      <trkpt lat="45.05125" lon="6.27615">
        <ele>2016.2</ele>
        <time>2024-08-10T08:55:13Z</time>
      </trkpt>
      <trkpt lat="45.05125" lon="6.27615">
        <ele>2016.2</ele>
        <time>2024-08-10T08:55:14Z</time>
      </trkpt>
      <trkpt lat="45.05126" lon="6.27612">
        <ele>2016.2</ele>
        <time>2024-08-10T08:55:15Z</time>
      </trkpt>
      <trkpt lat="45.05126" lon="6.27612">
        <ele>2015.8</ele>
        <time>2024-08-10T08:55:16Z</time>
      </trkpt>
      <trkpt lat="45.05129" lon="6.27611">
        <ele>2015.8</ele>
        <time>2024-08-10T08:55:17Z</time>
      </trkpt>
      <trkpt lat="45.05129" lon="6.27611">
        <ele>2015.4</ele>
        <time>2024-08-10T08:55:18Z</time>
      </trkpt>
      <trkpt lat="45.05131" lon="6.27612">
        <ele>2015.2</ele>
        <time>2024-08-10T08:55:19Z</time>
      </trkpt>
      <trkpt lat="45.05131" lon="6.27612">
        <ele>2015</ele>
        <time>2024-08-10T08:55:20Z</time>
      </trkpt>
      <trkpt lat="45.05132" lon="6.27615">
        <ele>2014.8</ele>
        <time>2024-08-10T08:55:21Z</time>
      </trkpt>
      <trkpt lat="45.05132" lon="6.27615">
        <ele>2014.8</ele>
        <time>2024-08-10T08:55:22Z</time>
      </trkpt>
      <trkpt lat="45.05133" lon="6.27619">
        <ele>2014.4</ele>
        <time>2024-08-10T08:55:23Z</time>
      </trkpt>
      <trkpt lat="45.05133" lon="6.27619">
        <ele>2014.2</ele>
        <time>2024-08-10T08:55:24Z</time>
      </trkpt>
      <trkpt lat="45.05133" lon="6.27623">
        <ele>2014.2</ele>
        <time>2024-08-10T08:55:25Z</time>
      </trkpt>
      <trkpt lat="45.05133" lon="6.27623">
        <ele>2013.8</ele>
        <time>2024-08-10T08:55:26Z</time>
      </trkpt>
      <trkpt lat="45.05132" lon="6.27626">
        <ele>2013.6</ele>
        <time>2024-08-10T08:55:27Z</time>
      </trkpt>
      <trkpt lat="45.05132" lon="6.27626">
        <ele>2013.4</ele>
        <time>2024-08-10T08:55:28Z</time>
      </trkpt>
      <trkpt lat="45.0513" lon="6.2763">
        <ele>2013.2</ele>
        <time>2024-08-10T08:55:29Z</time>
      </trkpt>
      <trkpt lat="45.0513" lon="6.2763">
        <ele>2013</ele>
        <time>2024-08-10T08:55:30Z</time>
      </trkpt>
      <trkpt lat="45.05129" lon="6.27633">
        <ele>2012.6</ele>
        <time>2024-08-10T08:55:31Z</time>
      </trkpt>
      <trkpt lat="45.05129" lon="6.27633">
        <ele>2012.4</ele>
        <time>2024-08-10T08:55:32Z</time>
      </trkpt>
      <trkpt lat="45.05128" lon="6.27637">
        <ele>2012</ele>
        <time>2024-08-10T08:55:33Z</time>
      </trkpt>
      <trkpt lat="45.05128" lon="6.27637">
        <ele>2011.8</ele>
        <time>2024-08-10T08:55:34Z</time>
      </trkpt>
      <trkpt lat="45.05128" lon="6.2764">
        <ele>2011.4</ele>
        <time>2024-08-10T08:55:35Z</time>
      </trkpt>
      <trkpt lat="45.05128" lon="6.2764">
        <ele>2011.4</ele>
        <time>2024-08-10T08:55:36Z</time>
      </trkpt>
      <trkpt lat="45.05128" lon="6.27644">
        <ele>2011.2</ele>
        <time>2024-08-10T08:55:37Z</time>
      </trkpt>
      <trkpt lat="45.05128" lon="6.27644">
        <ele>2010.8</ele>
        <time>2024-08-10T08:55:38Z</time>
      </trkpt>
      <trkpt lat="45.05128" lon="6.27648">
        <ele>2010.8</ele>
        <time>2024-08-10T08:55:39Z</time>
      </trkpt>
      <trkpt lat="45.05128" lon="6.27648">
        <ele>2010.6</ele>
        <time>2024-08-10T08:55:40Z</time>
      </trkpt>
      <trkpt lat="45.05128" lon="6.27651">
        <ele>2010</ele>
        <time>2024-08-10T08:55:41Z</time>
      </trkpt>
      <trkpt lat="45.05128" lon="6.27651">
        <ele>2009.8</ele>
        <time>2024-08-10T08:55:42Z</time>
      </trkpt>
      <trkpt lat="45.05128" lon="6.27655">
        <ele>2009.8</ele>
        <time>2024-08-10T08:55:43Z</time>
      </trkpt>
      <trkpt lat="45.05128" lon="6.27655">
        <ele>2009.4</ele>
        <time>2024-08-10T08:55:44Z</time>
      </trkpt>
      <trkpt lat="45.05129" lon="6.27659">
        <ele>2009.2</ele>
        <time>2024-08-10T08:55:45Z</time>
      </trkpt>
      <trkpt lat="45.05129" lon="6.27659">
        <ele>2009</ele>
        <time>2024-08-10T08:55:46Z</time>
      </trkpt>
      <trkpt lat="45.05128" lon="6.27663">
        <ele>2008.8</ele>
        <time>2024-08-10T08:55:47Z</time>
      </trkpt>
      <trkpt lat="45.05128" lon="6.27663">
        <ele>2008.6</ele>
        <time>2024-08-10T08:55:48Z</time>
      </trkpt>
      <trkpt lat="45.05128" lon="6.27667">
        <ele>2008.4</ele>
        <time>2024-08-10T08:55:49Z</time>
      </trkpt>
      <trkpt lat="45.05128" lon="6.27667">
        <ele>2008.4</ele>
        <time>2024-08-10T08:55:50Z</time>
      </trkpt>
      <trkpt lat="45.05127" lon="6.2767">
        <ele>2008.4</ele>
        <time>2024-08-10T08:55:51Z</time>
      </trkpt>
      <trkpt lat="45.05127" lon="6.2767">
        <ele>2008</ele>
        <time>2024-08-10T08:55:52Z</time>
      </trkpt>
      <trkpt lat="45.05128" lon="6.27674">
        <ele>2007.8</ele>
        <time>2024-08-10T08:55:53Z</time>
      </trkpt>
      <trkpt lat="45.05128" lon="6.27674">
        <ele>2007.6</ele>
        <time>2024-08-10T08:55:54Z</time>
      </trkpt>
      <trkpt lat="45.05127" lon="6.27676">
        <ele>2007.6</ele>
        <time>2024-08-10T08:55:55Z</time>
      </trkpt>
      <trkpt lat="45.05127" lon="6.27676">
        <ele>2007.6</ele>
        <time>2024-08-10T08:55:56Z</time>
      </trkpt>
      <trkpt lat="45.05125" lon="6.27679">
        <ele>2007.2</ele>
        <time>2024-08-10T08:55:57Z</time>
      </trkpt>
      <trkpt lat="45.05124" lon="6.2768">
        <ele>2006.4</ele>
        <time>2024-08-10T08:55:58Z</time>
      </trkpt>
      <trkpt lat="45.05124" lon="6.2768">
        <ele>2006.2</ele>
        <time>2024-08-10T08:55:59Z</time>
      </trkpt>
      <trkpt lat="45.05121" lon="6.27681">
        <ele>2006</ele>
        <time>2024-08-10T08:56:00Z</time>
      </trkpt>
      <trkpt lat="45.05121" lon="6.27681">
        <ele>2005.8</ele>
        <time>2024-08-10T08:56:01Z</time>
      </trkpt>
      <trkpt lat="45.0512" lon="6.27682">
        <ele>2005.6</ele>
        <time>2024-08-10T08:56:02Z</time>
      </trkpt>
      <trkpt lat="45.0512" lon="6.27682">
        <ele>2005.2</ele>
        <time>2024-08-10T08:56:03Z</time>
      </trkpt>
      <trkpt lat="45.05121" lon="6.27685">
        <ele>2005.2</ele>
        <time>2024-08-10T08:56:04Z</time>
      </trkpt>
      <trkpt lat="45.05121" lon="6.27685">
        <ele>2005</ele>
        <time>2024-08-10T08:56:05Z</time>
      </trkpt>
      <trkpt lat="45.05123" lon="6.27687">
        <ele>2005</ele>
        <time>2024-08-10T08:56:06Z</time>
      </trkpt>
      <trkpt lat="45.05123" lon="6.27687">
        <ele>2004.8</ele>
        <time>2024-08-10T08:56:07Z</time>
      </trkpt>
      <trkpt lat="45.05125" lon="6.27689">
        <ele>2004.4</ele>
        <time>2024-08-10T08:56:08Z</time>
      </trkpt>
      <trkpt lat="45.05125" lon="6.27689">
        <ele>2004.2</ele>
        <time>2024-08-10T08:56:09Z</time>
      </trkpt>
      <trkpt lat="45.05127" lon="6.27691">
        <ele>2004</ele>
        <time>2024-08-10T08:56:10Z</time>
      </trkpt>
      <trkpt lat="45.05127" lon="6.27691">
        <ele>2004</ele>
        <time>2024-08-10T08:56:11Z</time>
      </trkpt>
      <trkpt lat="45.0513" lon="6.27691">
        <ele>2003.6</ele>
        <time>2024-08-10T08:56:12Z</time>
      </trkpt>
      <trkpt lat="45.0513" lon="6.27691">
        <ele>2003.4</ele>
        <time>2024-08-10T08:56:13Z</time>
      </trkpt>
      <trkpt lat="45.05133" lon="6.27692">
        <ele>2003.2</ele>
        <time>2024-08-10T08:56:14Z</time>
      </trkpt>
      <trkpt lat="45.05133" lon="6.27692">
        <ele>2003.2</ele>
        <time>2024-08-10T08:56:15Z</time>
      </trkpt>
      <trkpt lat="45.05135" lon="6.27692">
        <ele>2003</ele>
        <time>2024-08-10T08:56:16Z</time>
      </trkpt>
      <trkpt lat="45.05135" lon="6.27692">
        <ele>2002.6</ele>
        <time>2024-08-10T08:56:17Z</time>
      </trkpt>
      <trkpt lat="45.05138" lon="6.27692">
        <ele>2002.6</ele>
        <time>2024-08-10T08:56:18Z</time>
      </trkpt>
      <trkpt lat="45.05138" lon="6.27692">
        <ele>2002.6</ele>
        <time>2024-08-10T08:56:19Z</time>
      </trkpt>
      <trkpt lat="45.0514" lon="6.27693">
        <ele>2002.4</ele>
        <time>2024-08-10T08:56:20Z</time>
      </trkpt>
      <trkpt lat="45.0514" lon="6.27693">
        <ele>2002.2</ele>
        <time>2024-08-10T08:56:21Z</time>
      </trkpt>
      <trkpt lat="45.05142" lon="6.27693">
        <ele>2002</ele>
        <time>2024-08-10T08:56:22Z</time>
      </trkpt>
      <trkpt lat="45.05142" lon="6.27693">
        <ele>2002</ele>
        <time>2024-08-10T08:56:23Z</time>
      </trkpt>
      <trkpt lat="45.05144" lon="6.27693">
        <ele>2001.8</ele>
        <time>2024-08-10T08:56:24Z</time>
      </trkpt>
      <trkpt lat="45.05144" lon="6.27693">
        <ele>2001.6</ele>
        <time>2024-08-10T08:56:25Z</time>
      </trkpt>
      <trkpt lat="45.05147" lon="6.27694">
        <ele>2001.4</ele>
        <time>2024-08-10T08:56:26Z</time>
      </trkpt>
      <trkpt lat="45.05147" lon="6.27694">
        <ele>2001.4</ele>
        <time>2024-08-10T08:56:27Z</time>
      </trkpt>
      <trkpt lat="45.05147" lon="6.27694">
        <ele>2001</ele>
        <time>2024-08-10T08:56:28Z</time>
      </trkpt>
      <trkpt lat="45.05147" lon="6.27694">
        <ele>2000.6</ele>
        <time>2024-08-10T08:56:29Z</time>
      </trkpt>
      <trkpt lat="45.05147" lon="6.27694">
        <ele>2000.2</ele>
        <time>2024-08-10T08:56:30Z</time>
      </trkpt>
      <trkpt lat="45.05147" lon="6.27694">
        <ele>2000.2</ele>
        <time>2024-08-10T08:56:31Z</time>
      </trkpt>
      <trkpt lat="45.05147" lon="6.27694">
        <ele>2000.2</ele>
        <time>2024-08-10T08:56:32Z</time>
      </trkpt>
      <trkpt lat="45.05147" lon="6.27694">
        <ele>2000.2</ele>
        <time>2024-08-10T08:56:33Z</time>
      </trkpt>
      <trkpt lat="45.05147" lon="6.27694">
        <ele>2000</ele>
        <time>2024-08-10T08:56:34Z</time>
      </trkpt>
      <trkpt lat="45.05147" lon="6.27694">
        <ele>2000</ele>
        <time>2024-08-10T08:56:35Z</time>
      </trkpt>
      <trkpt lat="45.05148" lon="6.27696">
        <ele>1999.8</ele>
        <time>2024-08-10T08:56:36Z</time>
      </trkpt>
      <trkpt lat="45.05148" lon="6.27696">
        <ele>1999.6</ele>
        <time>2024-08-10T08:56:37Z</time>
      </trkpt>
      <trkpt lat="45.05149" lon="6.27698">
        <ele>1999.6</ele>
        <time>2024-08-10T08:56:38Z</time>
      </trkpt>
      <trkpt lat="45.05149" lon="6.27698">
        <ele>1999.4</ele>
        <time>2024-08-10T08:56:39Z</time>
      </trkpt>
      <trkpt lat="45.05148" lon="6.27702">
        <ele>1999.2</ele>
        <time>2024-08-10T08:56:40Z</time>
      </trkpt>
      <trkpt lat="45.05148" lon="6.27702">
        <ele>1998.8</ele>
        <time>2024-08-10T08:56:41Z</time>
      </trkpt>
      <trkpt lat="45.05148" lon="6.27706">
        <ele>1998.6</ele>
        <time>2024-08-10T08:56:42Z</time>
      </trkpt>
      <trkpt lat="45.05148" lon="6.27706">
        <ele>1998.2</ele>
        <time>2024-08-10T08:56:43Z</time>
      </trkpt>
      <trkpt lat="45.05147" lon="6.2771">
        <ele>1997.8</ele>
        <time>2024-08-10T08:56:44Z</time>
      </trkpt>
      <trkpt lat="45.05147" lon="6.2771">
        <ele>1997.2</ele>
        <time>2024-08-10T08:56:45Z</time>
      </trkpt>
      <trkpt lat="45.05146" lon="6.27713">
        <ele>1996.8</ele>
        <time>2024-08-10T08:56:46Z</time>
      </trkpt>
      <trkpt lat="45.05146" lon="6.27713">
        <ele>1996.6</ele>
        <time>2024-08-10T08:56:47Z</time>
      </trkpt>
      <trkpt lat="45.05144" lon="6.27714">
        <ele>1996.6</ele>
        <time>2024-08-10T08:56:48Z</time>
      </trkpt>
      <trkpt lat="45.05144" lon="6.27714">
        <ele>1996.4</ele>
        <time>2024-08-10T08:56:49Z</time>
      </trkpt>
      <trkpt lat="45.05142" lon="6.27717">
        <ele>1996.2</ele>
        <time>2024-08-10T08:56:50Z</time>
      </trkpt>
      <trkpt lat="45.05142" lon="6.27717">
        <ele>1995.8</ele>
        <time>2024-08-10T08:56:51Z</time>
      </trkpt>
      <trkpt lat="45.05141" lon="6.27719">
        <ele>1995.8</ele>
        <time>2024-08-10T08:56:52Z</time>
      </trkpt>
      <trkpt lat="45.05141" lon="6.27719">
        <ele>1995.6</ele>
        <time>2024-08-10T08:56:53Z</time>
      </trkpt>
      <trkpt lat="45.05141" lon="6.27719">
        <ele>1995.4</ele>
        <time>2024-08-10T08:56:54Z</time>
      </trkpt>
      <trkpt lat="45.05143" lon="6.27722">
        <ele>1995</ele>
        <time>2024-08-10T08:56:55Z</time>
      </trkpt>
      <trkpt lat="45.05143" lon="6.27722">
        <ele>1994.8</ele>
        <time>2024-08-10T08:56:56Z</time>
      </trkpt>
      <trkpt lat="45.05143" lon="6.27722">
        <ele>1994.6</ele>
        <time>2024-08-10T08:56:57Z</time>
      </trkpt>
      <trkpt lat="45.05145" lon="6.2772">
        <ele>1994.4</ele>
        <time>2024-08-10T08:56:58Z</time>
      </trkpt>
      <trkpt lat="45.05145" lon="6.2772">
        <ele>1994.4</ele>
        <time>2024-08-10T08:56:59Z</time>
      </trkpt>
      <trkpt lat="45.05147" lon="6.27718">
        <ele>1994.2</ele>
        <time>2024-08-10T08:57:00Z</time>
      </trkpt>
      <trkpt lat="45.05147" lon="6.27718">
        <ele>1994</ele>
        <time>2024-08-10T08:57:01Z</time>
      </trkpt>
      <trkpt lat="45.05149" lon="6.27717">
        <ele>1993.8</ele>
        <time>2024-08-10T08:57:02Z</time>
      </trkpt>
      <trkpt lat="45.05149" lon="6.27717">
        <ele>1993.4</ele>
        <time>2024-08-10T08:57:03Z</time>
      </trkpt>
      <trkpt lat="45.05152" lon="6.27717">
        <ele>1993.4</ele>
        <time>2024-08-10T08:57:04Z</time>
      </trkpt>
      <trkpt lat="45.05152" lon="6.27717">
        <ele>1993.2</ele>
        <time>2024-08-10T08:57:05Z</time>
      </trkpt>
      <trkpt lat="45.05154" lon="6.27715">
        <ele>1992.8</ele>
        <time>2024-08-10T08:57:06Z</time>
      </trkpt>
      <trkpt lat="45.05154" lon="6.27715">
        <ele>1992.6</ele>
        <time>2024-08-10T08:57:07Z</time>
      </trkpt>
      <trkpt lat="45.05157" lon="6.27714">
        <ele>1992.6</ele>
        <time>2024-08-10T08:57:08Z</time>
      </trkpt>
      <trkpt lat="45.05157" lon="6.27714">
        <ele>1992.6</ele>
        <time>2024-08-10T08:57:09Z</time>
      </trkpt>
      <trkpt lat="45.05159" lon="6.27712">
        <ele>1992.4</ele>
        <time>2024-08-10T08:57:10Z</time>
      </trkpt>
      <trkpt lat="45.05159" lon="6.27712">
        <ele>1992.2</ele>
        <time>2024-08-10T08:57:11Z</time>
      </trkpt>
      <trkpt lat="45.05161" lon="6.27711">
        <ele>1992.2</ele>
        <time>2024-08-10T08:57:12Z</time>
      </trkpt>
      <trkpt lat="45.05161" lon="6.27711">
        <ele>1991.8</ele>
        <time>2024-08-10T08:57:13Z</time>
      </trkpt>
      <trkpt lat="45.05164" lon="6.27709">
        <ele>1991.8</ele>
        <time>2024-08-10T08:57:14Z</time>
      </trkpt>
      <trkpt lat="45.05164" lon="6.27709">
        <ele>1991.4</ele>
        <time>2024-08-10T08:57:15Z</time>
      </trkpt>
      <trkpt lat="45.05165" lon="6.27707">
        <ele>1991</ele>
        <time>2024-08-10T08:57:16Z</time>
      </trkpt>
      <trkpt lat="45.05165" lon="6.27707">
        <ele>1990.6</ele>
        <time>2024-08-10T08:57:17Z</time>
      </trkpt>
      <trkpt lat="45.05167" lon="6.27705">
        <ele>1990.6</ele>
        <time>2024-08-10T08:57:18Z</time>
      </trkpt>
      <trkpt lat="45.05167" lon="6.27705">
        <ele>1990.4</ele>
        <time>2024-08-10T08:57:19Z</time>
      </trkpt>
      <trkpt lat="45.05169" lon="6.27703">
        <ele>1990.4</ele>
        <time>2024-08-10T08:57:20Z</time>
      </trkpt>
      <trkpt lat="45.05169" lon="6.27703">
        <ele>1990.4</ele>
        <time>2024-08-10T08:57:21Z</time>
      </trkpt>
      <trkpt lat="45.05171" lon="6.277">
        <ele>1990.2</ele>
        <time>2024-08-10T08:57:22Z</time>
      </trkpt>
      <trkpt lat="45.05171" lon="6.277">
        <ele>1989.8</ele>
        <time>2024-08-10T08:57:23Z</time>
      </trkpt>
      <trkpt lat="45.05173" lon="6.27698">
        <ele>1989.6</ele>
        <time>2024-08-10T08:57:24Z</time>
      </trkpt>
      <trkpt lat="45.05173" lon="6.27698">
        <ele>1989.6</ele>
        <time>2024-08-10T08:57:25Z</time>
      </trkpt>
      <trkpt lat="45.05174" lon="6.27696">
        <ele>1989.6</ele>
        <time>2024-08-10T08:57:26Z</time>
      </trkpt>
      <trkpt lat="45.05174" lon="6.27696">
        <ele>1989.2</ele>
        <time>2024-08-10T08:57:27Z</time>
      </trkpt>
      <trkpt lat="45.05176" lon="6.27694">
        <ele>1988.8</ele>
        <time>2024-08-10T08:57:28Z</time>
      </trkpt>
      <trkpt lat="45.05176" lon="6.27694">
        <ele>1988.8</ele>
        <time>2024-08-10T08:57:29Z</time>
      </trkpt>
      <trkpt lat="45.05178" lon="6.27692">
        <ele>1988.6</ele>
        <time>2024-08-10T08:57:30Z</time>
      </trkpt>
      <trkpt lat="45.05178" lon="6.27692">
        <ele>1988.6</ele>
        <time>2024-08-10T08:57:31Z</time>
      </trkpt>
      <trkpt lat="45.0518" lon="6.2769">
        <ele>1988.2</ele>
        <time>2024-08-10T08:57:32Z</time>
      </trkpt>
      <trkpt lat="45.0518" lon="6.2769">
        <ele>1987.8</ele>
        <time>2024-08-10T08:57:33Z</time>
      </trkpt>
      <trkpt lat="45.05182" lon="6.27688">
        <ele>1987.8</ele>
        <time>2024-08-10T08:57:34Z</time>
      </trkpt>
      <trkpt lat="45.05182" lon="6.27688">
        <ele>1987.6</ele>
        <time>2024-08-10T08:57:35Z</time>
      </trkpt>
      <trkpt lat="45.05184" lon="6.27686">
        <ele>1987.2</ele>
        <time>2024-08-10T08:57:36Z</time>
      </trkpt>
      <trkpt lat="45.05184" lon="6.27686">
        <ele>1987.2</ele>
        <time>2024-08-10T08:57:37Z</time>
      </trkpt>
      <trkpt lat="45.05184" lon="6.27686">
        <ele>1987</ele>
        <time>2024-08-10T08:57:38Z</time>
      </trkpt>
      <trkpt lat="45.05187" lon="6.27685">
        <ele>1986.8</ele>
        <time>2024-08-10T08:57:39Z</time>
      </trkpt>
      <trkpt lat="45.05187" lon="6.27685">
        <ele>1986.8</ele>
        <time>2024-08-10T08:57:40Z</time>
      </trkpt>
      <trkpt lat="45.05188" lon="6.27683">
        <ele>1986.6</ele>
        <time>2024-08-10T08:57:41Z</time>
      </trkpt>
      <trkpt lat="45.05188" lon="6.27683">
        <ele>1986.6</ele>
        <time>2024-08-10T08:57:42Z</time>
      </trkpt>
      <trkpt lat="45.05189" lon="6.2768">
        <ele>1986.4</ele>
        <time>2024-08-10T08:57:43Z</time>
      </trkpt>
      <trkpt lat="45.05189" lon="6.2768">
        <ele>1986.4</ele>
        <time>2024-08-10T08:57:44Z</time>
      </trkpt>
      <trkpt lat="45.05191" lon="6.27679">
        <ele>1986.2</ele>
        <time>2024-08-10T08:57:45Z</time>
      </trkpt>
      <trkpt lat="45.05191" lon="6.27679">
        <ele>1985.6</ele>
        <time>2024-08-10T08:57:46Z</time>
      </trkpt>
      <trkpt lat="45.05193" lon="6.27677">
        <ele>1985.6</ele>
        <time>2024-08-10T08:57:47Z</time>
      </trkpt>
      <trkpt lat="45.05193" lon="6.27677">
        <ele>1985.4</ele>
        <time>2024-08-10T08:57:48Z</time>
      </trkpt>
      <trkpt lat="45.05196" lon="6.27675">
        <ele>1985.6</ele>
        <time>2024-08-10T08:57:49Z</time>
      </trkpt>
      <trkpt lat="45.05196" lon="6.27675">
        <ele>1985.4</ele>
        <time>2024-08-10T08:57:50Z</time>
      </trkpt>
      <trkpt lat="45.05198" lon="6.27674">
        <ele>1985.2</ele>
        <time>2024-08-10T08:57:51Z</time>
      </trkpt>
      <trkpt lat="45.05198" lon="6.27674">
        <ele>1984.8</ele>
        <time>2024-08-10T08:57:52Z</time>
      </trkpt>
      <trkpt lat="45.05201" lon="6.27672">
        <ele>1984.8</ele>
        <time>2024-08-10T08:57:53Z</time>
      </trkpt>
      <trkpt lat="45.05201" lon="6.27672">
        <ele>1984.6</ele>
        <time>2024-08-10T08:57:54Z</time>
      </trkpt>
      <trkpt lat="45.05203" lon="6.27671">
        <ele>1984.4</ele>
        <time>2024-08-10T08:57:55Z</time>
      </trkpt>
      <trkpt lat="45.05203" lon="6.27671">
        <ele>1984</ele>
        <time>2024-08-10T08:57:56Z</time>
      </trkpt>
      <trkpt lat="45.05205" lon="6.27671">
        <ele>1983.8</ele>
        <time>2024-08-10T08:57:57Z</time>
      </trkpt>
      <trkpt lat="45.05205" lon="6.27671">
        <ele>1983.6</ele>
        <time>2024-08-10T08:57:58Z</time>
      </trkpt>
      <trkpt lat="45.05208" lon="6.2767">
        <ele>1983.4</ele>
        <time>2024-08-10T08:57:59Z</time>
      </trkpt>
      <trkpt lat="45.05208" lon="6.2767">
        <ele>1983</ele>
        <time>2024-08-10T08:58:00Z</time>
      </trkpt>
      <trkpt lat="45.05211" lon="6.2767">
        <ele>1982.8</ele>
        <time>2024-08-10T08:58:01Z</time>
      </trkpt>
      <trkpt lat="45.05211" lon="6.2767">
        <ele>1982.6</ele>
        <time>2024-08-10T08:58:02Z</time>
      </trkpt>
      <trkpt lat="45.05213" lon="6.27669">
        <ele>1982.4</ele>
        <time>2024-08-10T08:58:03Z</time>
      </trkpt>
      <trkpt lat="45.05213" lon="6.27669">
        <ele>1982.4</ele>
        <time>2024-08-10T08:58:04Z</time>
      </trkpt>
      <trkpt lat="45.05215" lon="6.27668">
        <ele>1982</ele>
        <time>2024-08-10T08:58:05Z</time>
      </trkpt>
      <trkpt lat="45.05215" lon="6.27668">
        <ele>1981.8</ele>
        <time>2024-08-10T08:58:06Z</time>
      </trkpt>
      <trkpt lat="45.05217" lon="6.27667">
        <ele>1981.8</ele>
        <time>2024-08-10T08:58:07Z</time>
      </trkpt>
      <trkpt lat="45.05217" lon="6.27667">
        <ele>1981.6</ele>
        <time>2024-08-10T08:58:08Z</time>
      </trkpt>
      <trkpt lat="45.0522" lon="6.27666">
        <ele>1981.6</ele>
        <time>2024-08-10T08:58:09Z</time>
      </trkpt>
      <trkpt lat="45.0522" lon="6.27666">
        <ele>1981.4</ele>
        <time>2024-08-10T08:58:10Z</time>
      </trkpt>
      <trkpt lat="45.05222" lon="6.27666">
        <ele>1981.2</ele>
        <time>2024-08-10T08:58:11Z</time>
      </trkpt>
      <trkpt lat="45.05222" lon="6.27666">
        <ele>1981</ele>
        <time>2024-08-10T08:58:12Z</time>
      </trkpt>
      <trkpt lat="45.05225" lon="6.27666">
        <ele>1980.8</ele>
        <time>2024-08-10T08:58:13Z</time>
      </trkpt>
      <trkpt lat="45.05225" lon="6.27666">
        <ele>1980.4</ele>
        <time>2024-08-10T08:58:14Z</time>
      </trkpt>
      <trkpt lat="45.05227" lon="6.27666">
        <ele>1980.4</ele>
        <time>2024-08-10T08:58:15Z</time>
      </trkpt>
      <trkpt lat="45.05227" lon="6.27666">
        <ele>1980.2</ele>
        <time>2024-08-10T08:58:16Z</time>
      </trkpt>
      <trkpt lat="45.0523" lon="6.27666">
        <ele>1979.8</ele>
        <time>2024-08-10T08:58:17Z</time>
      </trkpt>
      <trkpt lat="45.0523" lon="6.27666">
        <ele>1979.6</ele>
        <time>2024-08-10T08:58:18Z</time>
      </trkpt>
      <trkpt lat="45.05233" lon="6.27667">
        <ele>1979.4</ele>
        <time>2024-08-10T08:58:19Z</time>
      </trkpt>
      <trkpt lat="45.05233" lon="6.27667">
        <ele>1979.2</ele>
        <time>2024-08-10T08:58:20Z</time>
      </trkpt>
      <trkpt lat="45.05236" lon="6.27665">
        <ele>1979.2</ele>
        <time>2024-08-10T08:58:21Z</time>
      </trkpt>
      <trkpt lat="45.05236" lon="6.27665">
        <ele>1979</ele>
        <time>2024-08-10T08:58:22Z</time>
      </trkpt>
      <trkpt lat="45.05237" lon="6.27664">
        <ele>1979</ele>
        <time>2024-08-10T08:58:23Z</time>
      </trkpt>
      <trkpt lat="45.05237" lon="6.27664">
        <ele>1979</ele>
        <time>2024-08-10T08:58:24Z</time>
      </trkpt>
      <trkpt lat="45.05239" lon="6.27663">
        <ele>1978.8</ele>
        <time>2024-08-10T08:58:25Z</time>
      </trkpt>
      <trkpt lat="45.05239" lon="6.27663">
        <ele>1978.8</ele>
        <time>2024-08-10T08:58:26Z</time>
      </trkpt>
      <trkpt lat="45.05242" lon="6.27664">
        <ele>1978.6</ele>
        <time>2024-08-10T08:58:27Z</time>
      </trkpt>
      <trkpt lat="45.05242" lon="6.27664">
        <ele>1978.6</ele>
        <time>2024-08-10T08:58:28Z</time>
      </trkpt>
      <trkpt lat="45.05244" lon="6.27664">
        <ele>1978.4</ele>
        <time>2024-08-10T08:58:29Z</time>
      </trkpt>
      <trkpt lat="45.05244" lon="6.27664">
        <ele>1978.2</ele>
        <time>2024-08-10T08:58:30Z</time>
      </trkpt>
      <trkpt lat="45.05246" lon="6.27665">
        <ele>1977.8</ele>
        <time>2024-08-10T08:58:31Z</time>
      </trkpt>
      <trkpt lat="45.05246" lon="6.27665">
        <ele>1977.6</ele>
        <time>2024-08-10T08:58:32Z</time>
      </trkpt>
      <trkpt lat="45.05248" lon="6.27667">
        <ele>1977.4</ele>
        <time>2024-08-10T08:58:33Z</time>
      </trkpt>
      <trkpt lat="45.05248" lon="6.27667">
        <ele>1977.2</ele>
        <time>2024-08-10T08:58:34Z</time>
      </trkpt>
      <trkpt lat="45.05249" lon="6.27669">
        <ele>1977.2</ele>
        <time>2024-08-10T08:58:35Z</time>
      </trkpt>
      <trkpt lat="45.05249" lon="6.27669">
        <ele>1977</ele>
        <time>2024-08-10T08:58:36Z</time>
      </trkpt>
      <trkpt lat="45.05251" lon="6.27672">
        <ele>1976.8</ele>
        <time>2024-08-10T08:58:37Z</time>
      </trkpt>
      <trkpt lat="45.05251" lon="6.27672">
        <ele>1976.4</ele>
        <time>2024-08-10T08:58:38Z</time>
      </trkpt>
      <trkpt lat="45.05252" lon="6.27675">
        <ele>1976.4</ele>
        <time>2024-08-10T08:58:39Z</time>
      </trkpt>
      <trkpt lat="45.05252" lon="6.27675">
        <ele>1976.4</ele>
        <time>2024-08-10T08:58:40Z</time>
      </trkpt>
      <trkpt lat="45.05253" lon="6.27679">
        <ele>1976.2</ele>
        <time>2024-08-10T08:58:41Z</time>
      </trkpt>
      <trkpt lat="45.05253" lon="6.27679">
        <ele>1976</ele>
        <time>2024-08-10T08:58:42Z</time>
      </trkpt>
      <trkpt lat="45.05252" lon="6.27683">
        <ele>1976</ele>
        <time>2024-08-10T08:58:43Z</time>
      </trkpt>
      <trkpt lat="45.05252" lon="6.27683">
        <ele>1975.8</ele>
        <time>2024-08-10T08:58:44Z</time>
      </trkpt>
      <trkpt lat="45.0525" lon="6.27685">
        <ele>1975.6</ele>
        <time>2024-08-10T08:58:45Z</time>
      </trkpt>
      <trkpt lat="45.0525" lon="6.27685">
        <ele>1975.2</ele>
        <time>2024-08-10T08:58:46Z</time>
      </trkpt>
      <trkpt lat="45.0525" lon="6.27688">
        <ele>1975</ele>
        <time>2024-08-10T08:58:47Z</time>
      </trkpt>
      <trkpt lat="45.0525" lon="6.27688">
        <ele>1975</ele>
        <time>2024-08-10T08:58:48Z</time>
      </trkpt>
      <trkpt lat="45.05248" lon="6.2769">
        <ele>1974.8</ele>
        <time>2024-08-10T08:58:49Z</time>
      </trkpt>
      <trkpt lat="45.05248" lon="6.2769">
        <ele>1974.2</ele>
        <time>2024-08-10T08:58:50Z</time>
      </trkpt>
      <trkpt lat="45.05247" lon="6.27692">
        <ele>1973.8</ele>
        <time>2024-08-10T08:58:51Z</time>
      </trkpt>
      <trkpt lat="45.05247" lon="6.27692">
        <ele>1973.2</ele>
        <time>2024-08-10T08:58:52Z</time>
      </trkpt>
      <trkpt lat="45.05245" lon="6.27694">
        <ele>1973</ele>
        <time>2024-08-10T08:58:53Z</time>
      </trkpt>
      <trkpt lat="45.05245" lon="6.27694">
        <ele>1972.6</ele>
        <time>2024-08-10T08:58:54Z</time>
      </trkpt>
      <trkpt lat="45.05243" lon="6.27696">
        <ele>1972.2</ele>
        <time>2024-08-10T08:58:55Z</time>
      </trkpt>
      <trkpt lat="45.05243" lon="6.27696">
        <ele>1972</ele>
        <time>2024-08-10T08:58:56Z</time>
      </trkpt>
      <trkpt lat="45.05241" lon="6.27698">
        <ele>1971.6</ele>
        <time>2024-08-10T08:58:57Z</time>
      </trkpt>
      <trkpt lat="45.05241" lon="6.27698">
        <ele>1971.2</ele>
        <time>2024-08-10T08:58:58Z</time>
      </trkpt>
      <trkpt lat="45.05239" lon="6.27701">
        <ele>1971.2</ele>
        <time>2024-08-10T08:58:59Z</time>
      </trkpt>
      <trkpt lat="45.05239" lon="6.27701">
        <ele>1970.8</ele>
        <time>2024-08-10T08:59:00Z</time>
      </trkpt>
      <trkpt lat="45.05238" lon="6.27704">
        <ele>1970.6</ele>
        <time>2024-08-10T08:59:01Z</time>
      </trkpt>
      <trkpt lat="45.05238" lon="6.27704">
        <ele>1970.4</ele>
        <time>2024-08-10T08:59:02Z</time>
      </trkpt>
      <trkpt lat="45.05237" lon="6.27706">
        <ele>1969.4</ele>
        <time>2024-08-10T08:59:03Z</time>
      </trkpt>
      <trkpt lat="45.05237" lon="6.27706">
        <ele>1969.4</ele>
        <time>2024-08-10T08:59:04Z</time>
      </trkpt>
      <trkpt lat="45.05234" lon="6.27707">
        <ele>1969.4</ele>
        <time>2024-08-10T08:59:05Z</time>
      </trkpt>
      <trkpt lat="45.05234" lon="6.27707">
        <ele>1969.2</ele>
        <time>2024-08-10T08:59:06Z</time>
      </trkpt>
      <trkpt lat="45.05234" lon="6.27707">
        <ele>1968.8</ele>
        <time>2024-08-10T08:59:07Z</time>
      </trkpt>
      <trkpt lat="45.05231" lon="6.27709">
        <ele>1968.6</ele>
        <time>2024-08-10T08:59:08Z</time>
      </trkpt>
      <trkpt lat="45.05231" lon="6.27709">
        <ele>1968.4</ele>
        <time>2024-08-10T08:59:09Z</time>
      </trkpt>
      <trkpt lat="45.05229" lon="6.27712">
        <ele>1968</ele>
        <time>2024-08-10T08:59:10Z</time>
      </trkpt>
      <trkpt lat="45.05229" lon="6.27712">
        <ele>1968</ele>
        <time>2024-08-10T08:59:11Z</time>
      </trkpt>
      <trkpt lat="45.05228" lon="6.27715">
        <ele>1967.6</ele>
        <time>2024-08-10T08:59:12Z</time>
      </trkpt>
      <trkpt lat="45.05228" lon="6.27715">
        <ele>1967.2</ele>
        <time>2024-08-10T08:59:13Z</time>
      </trkpt>
      <trkpt lat="45.05228" lon="6.27718">
        <ele>1967</ele>
        <time>2024-08-10T08:59:14Z</time>
      </trkpt>
      <trkpt lat="45.05228" lon="6.27718">
        <ele>1967</ele>
        <time>2024-08-10T08:59:15Z</time>
      </trkpt>
      <trkpt lat="45.05228" lon="6.27718">
        <ele>1966.8</ele>
        <time>2024-08-10T08:59:16Z</time>
      </trkpt>
      <trkpt lat="45.05227" lon="6.27722">
        <ele>1966.6</ele>
        <time>2024-08-10T08:59:17Z</time>
      </trkpt>
      <trkpt lat="45.05227" lon="6.27722">
        <ele>1966.4</ele>
        <time>2024-08-10T08:59:18Z</time>
      </trkpt>
      <trkpt lat="45.05227" lon="6.27725">
        <ele>1966.2</ele>
        <time>2024-08-10T08:59:19Z</time>
      </trkpt>
      <trkpt lat="45.05227" lon="6.27725">
        <ele>1966</ele>
        <time>2024-08-10T08:59:20Z</time>
      </trkpt>
      <trkpt lat="45.05226" lon="6.27729">
        <ele>1965.6</ele>
        <time>2024-08-10T08:59:21Z</time>
      </trkpt>
      <trkpt lat="45.05226" lon="6.27729">
        <ele>1965.4</ele>
        <time>2024-08-10T08:59:22Z</time>
      </trkpt>
      <trkpt lat="45.05225" lon="6.27732">
        <ele>1965.2</ele>
        <time>2024-08-10T08:59:23Z</time>
      </trkpt>
      <trkpt lat="45.05225" lon="6.27732">
        <ele>1965</ele>
        <time>2024-08-10T08:59:24Z</time>
      </trkpt>
      <trkpt lat="45.05225" lon="6.27736">
        <ele>1964.8</ele>
        <time>2024-08-10T08:59:25Z</time>
      </trkpt>
      <trkpt lat="45.05225" lon="6.27736">
        <ele>1964.4</ele>
        <time>2024-08-10T08:59:26Z</time>
      </trkpt>
      <trkpt lat="45.05224" lon="6.27739">
        <ele>1964.2</ele>
        <time>2024-08-10T08:59:27Z</time>
      </trkpt>
      <trkpt lat="45.05224" lon="6.27739">
        <ele>1964.2</ele>
        <time>2024-08-10T08:59:28Z</time>
      </trkpt>
      <trkpt lat="45.05224" lon="6.27742">
        <ele>1964</ele>
        <time>2024-08-10T08:59:29Z</time>
      </trkpt>
      <trkpt lat="45.05224" lon="6.27742">
        <ele>1963.6</ele>
        <time>2024-08-10T08:59:30Z</time>
      </trkpt>
      <trkpt lat="45.05225" lon="6.27745">
        <ele>1963.6</ele>
        <time>2024-08-10T08:59:31Z</time>
      </trkpt>
      <trkpt lat="45.05225" lon="6.27745">
        <ele>1963.2</ele>
        <time>2024-08-10T08:59:32Z</time>
      </trkpt>
      <trkpt lat="45.05226" lon="6.27748">
        <ele>1963</ele>
        <time>2024-08-10T08:59:33Z</time>
      </trkpt>
      <trkpt lat="45.05226" lon="6.27748">
        <ele>1962.8</ele>
        <time>2024-08-10T08:59:34Z</time>
      </trkpt>
      <trkpt lat="45.05227" lon="6.27751">
        <ele>1962.6</ele>
        <time>2024-08-10T08:59:35Z</time>
      </trkpt>
      <trkpt lat="45.05227" lon="6.27751">
        <ele>1962.6</ele>
        <time>2024-08-10T08:59:36Z</time>
      </trkpt>
      <trkpt lat="45.05227" lon="6.27754">
        <ele>1962.6</ele>
        <time>2024-08-10T08:59:37Z</time>
      </trkpt>
      <trkpt lat="45.05227" lon="6.27754">
        <ele>1962.4</ele>
        <time>2024-08-10T08:59:38Z</time>
      </trkpt>
      <trkpt lat="45.05229" lon="6.27757">
        <ele>1962</ele>
        <time>2024-08-10T08:59:39Z</time>
      </trkpt>
      <trkpt lat="45.05229" lon="6.27757">
        <ele>1962</ele>
        <time>2024-08-10T08:59:40Z</time>
      </trkpt>
      <trkpt lat="45.05229" lon="6.2776">
        <ele>1962</ele>
        <time>2024-08-10T08:59:41Z</time>
      </trkpt>
      <trkpt lat="45.05229" lon="6.2776">
        <ele>1961.8</ele>
        <time>2024-08-10T08:59:42Z</time>
      </trkpt>
      <trkpt lat="45.0523" lon="6.27763">
        <ele>1961.4</ele>
        <time>2024-08-10T08:59:43Z</time>
      </trkpt>
      <trkpt lat="45.0523" lon="6.27763">
        <ele>1961.4</ele>
        <time>2024-08-10T08:59:44Z</time>
      </trkpt>
      <trkpt lat="45.0523" lon="6.27763">
        <ele>1961.4</ele>
        <time>2024-08-10T08:59:45Z</time>
      </trkpt>
      <trkpt lat="45.05229" lon="6.27766">
        <ele>1961.4</ele>
        <time>2024-08-10T08:59:46Z</time>
      </trkpt>
      <trkpt lat="45.05229" lon="6.27766">
        <ele>1961.2</ele>
        <time>2024-08-10T08:59:47Z</time>
      </trkpt>
      <trkpt lat="45.05229" lon="6.27766">
        <ele>1961</ele>
        <time>2024-08-10T08:59:48Z</time>
      </trkpt>
      <trkpt lat="45.05229" lon="6.27769">
        <ele>1961</ele>
        <time>2024-08-10T08:59:49Z</time>
      </trkpt>
      <trkpt lat="45.05229" lon="6.27769">
        <ele>1960.6</ele>
        <time>2024-08-10T08:59:50Z</time>
      </trkpt>
      <trkpt lat="45.05229" lon="6.27769">
        <ele>1960.2</ele>
        <time>2024-08-10T08:59:51Z</time>
      </trkpt>
      <trkpt lat="45.05228" lon="6.27772">
        <ele>1959.6</ele>
        <time>2024-08-10T08:59:52Z</time>
      </trkpt>
      <trkpt lat="45.05228" lon="6.27772">
        <ele>1959.4</ele>
        <time>2024-08-10T08:59:53Z</time>
      </trkpt>
      <trkpt lat="45.05228" lon="6.27772">
        <ele>1959</ele>
        <time>2024-08-10T08:59:54Z</time>
      </trkpt>
      <trkpt lat="45.05228" lon="6.27772">
        <ele>1959</ele>
        <time>2024-08-10T08:59:55Z</time>
      </trkpt>
      <trkpt lat="45.05228" lon="6.27772">
        <ele>1959</ele>
        <time>2024-08-10T08:59:56Z</time>
      </trkpt>
      <trkpt lat="45.05228" lon="6.27772">
        <ele>1959</ele>
        <time>2024-08-10T08:59:57Z</time>
      </trkpt>
      <trkpt lat="45.05228" lon="6.27772">
        <ele>1959</ele>
        <time>2024-08-10T08:59:58Z</time>
      </trkpt>
      <trkpt lat="45.05228" lon="6.27772">
        <ele>1959</ele>
        <time>2024-08-10T08:59:59Z</time>
      </trkpt>
      <trkpt lat="45.05228" lon="6.27772">
        <ele>1959</ele>
        <time>2024-08-10T09:00:00Z</time>
      </trkpt>
      <trkpt lat="45.05228" lon="6.27772">
        <ele>1958.6</ele>
        <time>2024-08-10T09:00:01Z</time>
      </trkpt>
      <trkpt lat="45.05228" lon="6.27772">
        <ele>1958.6</ele>
        <time>2024-08-10T09:00:02Z</time>
      </trkpt>
      <trkpt lat="45.05228" lon="6.27772">
        <ele>1958.4</ele>
        <time>2024-08-10T09:00:03Z</time>
      </trkpt>
      <trkpt lat="45.05228" lon="6.27772">
        <ele>1958.4</ele>
        <time>2024-08-10T09:00:04Z</time>
      </trkpt>
      <trkpt lat="45.05228" lon="6.27772">
        <ele>1958.4</ele>
        <time>2024-08-10T09:00:05Z</time>
      </trkpt>
      <trkpt lat="45.05228" lon="6.27772">
        <ele>1958.6</ele>
        <time>2024-08-10T09:00:06Z</time>
      </trkpt>
      <trkpt lat="45.05228" lon="6.27772">
        <ele>1958.6</ele>
        <time>2024-08-10T09:00:07Z</time>
      </trkpt>
      <trkpt lat="45.05228" lon="6.27772">
        <ele>1958.6</ele>
        <time>2024-08-10T09:00:08Z</time>
      </trkpt>
      <trkpt lat="45.05228" lon="6.27772">
        <ele>1958.6</ele>
        <time>2024-08-10T09:00:09Z</time>
      </trkpt>
      <trkpt lat="45.05228" lon="6.27772">
        <ele>1958.6</ele>
        <time>2024-08-10T09:00:10Z</time>
      </trkpt>
      <trkpt lat="45.05228" lon="6.27772">
        <ele>1958.6</ele>
        <time>2024-08-10T09:00:11Z</time>
      </trkpt>
      <trkpt lat="45.05228" lon="6.27772">
        <ele>1958.6</ele>
        <time>2024-08-10T09:00:12Z</time>
      </trkpt>
      <trkpt lat="45.05228" lon="6.27772">
        <ele>1958.4</ele>
        <time>2024-08-10T09:00:13Z</time>
      </trkpt>
      <trkpt lat="45.05228" lon="6.27772">
        <ele>1958.4</ele>
        <time>2024-08-10T09:00:14Z</time>
      </trkpt>
      <trkpt lat="45.05228" lon="6.27772">
        <ele>1958.4</ele>
        <time>2024-08-10T09:00:15Z</time>
      </trkpt>
      <trkpt lat="45.05228" lon="6.27772">
        <ele>1958.2</ele>
        <time>2024-08-10T09:00:16Z</time>
      </trkpt>
      <trkpt lat="45.05228" lon="6.27772">
        <ele>1958.2</ele>
        <time>2024-08-10T09:00:17Z</time>
      </trkpt>
      <trkpt lat="45.05228" lon="6.27772">
        <ele>1958.2</ele>
        <time>2024-08-10T09:00:18Z</time>
      </trkpt>
      <trkpt lat="45.05228" lon="6.27772">
        <ele>1958.2</ele>
        <time>2024-08-10T09:00:19Z</time>
      </trkpt>
      <trkpt lat="45.05229" lon="6.27774">
        <ele>1958.2</ele>
        <time>2024-08-10T09:00:20Z</time>
      </trkpt>
      <trkpt lat="45.05229" lon="6.27774">
        <ele>1958.2</ele>
        <time>2024-08-10T09:00:21Z</time>
      </trkpt>
      <trkpt lat="45.05232" lon="6.27774">
        <ele>1958</ele>
        <time>2024-08-10T09:00:22Z</time>
      </trkpt>
      <trkpt lat="45.05232" lon="6.27774">
        <ele>1958</ele>
        <time>2024-08-10T09:00:23Z</time>
      </trkpt>
      <trkpt lat="45.05235" lon="6.27775">
        <ele>1957.8</ele>
        <time>2024-08-10T09:00:24Z</time>
      </trkpt>
      <trkpt lat="45.05235" lon="6.27775">
        <ele>1957.6</ele>
        <time>2024-08-10T09:00:25Z</time>
      </trkpt>
      <trkpt lat="45.05237" lon="6.27775">
        <ele>1957.4</ele>
        <time>2024-08-10T09:00:26Z</time>
      </trkpt>
      <trkpt lat="45.05237" lon="6.27775">
        <ele>1957.4</ele>
        <time>2024-08-10T09:00:27Z</time>
      </trkpt>
      <trkpt lat="45.05239" lon="6.27776">
        <ele>1956.8</ele>
        <time>2024-08-10T09:00:28Z</time>
      </trkpt>
      <trkpt lat="45.05239" lon="6.27776">
        <ele>1956.6</ele>
        <time>2024-08-10T09:00:29Z</time>
      </trkpt>
      <trkpt lat="45.05241" lon="6.27778">
        <ele>1956.2</ele>
        <time>2024-08-10T09:00:30Z</time>
      </trkpt>
      <trkpt lat="45.05241" lon="6.27778">
        <ele>1956.2</ele>
        <time>2024-08-10T09:00:31Z</time>
      </trkpt>
      <trkpt lat="45.05243" lon="6.27778">
        <ele>1956</ele>
        <time>2024-08-10T09:00:32Z</time>
      </trkpt>
      <trkpt lat="45.05243" lon="6.27778">
        <ele>1955.6</ele>
        <time>2024-08-10T09:00:33Z</time>
      </trkpt>
      <trkpt lat="45.05245" lon="6.27779">
        <ele>1955.6</ele>
        <time>2024-08-10T09:00:34Z</time>
      </trkpt>
      <trkpt lat="45.05245" lon="6.27779">
        <ele>1955.2</ele>
        <time>2024-08-10T09:00:35Z</time>
      </trkpt>
      <trkpt lat="45.05247" lon="6.27779">
        <ele>1955</ele>
        <time>2024-08-10T09:00:36Z</time>
      </trkpt>
      <trkpt lat="45.05247" lon="6.27779">
        <ele>1954.6</ele>
        <time>2024-08-10T09:00:37Z</time>
      </trkpt>
      <trkpt lat="45.05249" lon="6.2778">
        <ele>1954.6</ele>
        <time>2024-08-10T09:00:38Z</time>
      </trkpt>
      <trkpt lat="45.05249" lon="6.2778">
        <ele>1954.4</ele>
        <time>2024-08-10T09:00:39Z</time>
      </trkpt>
      <trkpt lat="45.05252" lon="6.2778">
        <ele>1954</ele>
        <time>2024-08-10T09:00:40Z</time>
      </trkpt>
      <trkpt lat="45.05252" lon="6.2778">
        <ele>1953.6</ele>
        <time>2024-08-10T09:00:41Z</time>
      </trkpt>
      <trkpt lat="45.05254" lon="6.2778">
        <ele>1953.6</ele>
        <time>2024-08-10T09:00:42Z</time>
      </trkpt>
      <trkpt lat="45.05254" lon="6.2778">
        <ele>1953.4</ele>
        <time>2024-08-10T09:00:43Z</time>
      </trkpt>
      <trkpt lat="45.05256" lon="6.27779">
        <ele>1953.2</ele>
        <time>2024-08-10T09:00:44Z</time>
      </trkpt>
      <trkpt lat="45.05256" lon="6.27779">
        <ele>1953</ele>
        <time>2024-08-10T09:00:45Z</time>
      </trkpt>
      <trkpt lat="45.05256" lon="6.27779">
        <ele>1952.8</ele>
        <time>2024-08-10T09:00:46Z</time>
      </trkpt>
      <trkpt lat="45.05259" lon="6.27777">
        <ele>1952.4</ele>
        <time>2024-08-10T09:00:47Z</time>
      </trkpt>
      <trkpt lat="45.05259" lon="6.27777">
        <ele>1952</ele>
        <time>2024-08-10T09:00:48Z</time>
      </trkpt>
      <trkpt lat="45.05261" lon="6.27775">
        <ele>1951.8</ele>
        <time>2024-08-10T09:00:49Z</time>
      </trkpt>
      <trkpt lat="45.05261" lon="6.27775">
        <ele>1951.8</ele>
        <time>2024-08-10T09:00:50Z</time>
      </trkpt>
      <trkpt lat="45.05263" lon="6.27773">
        <ele>1951.4</ele>
        <time>2024-08-10T09:00:51Z</time>
      </trkpt>
      <trkpt lat="45.05263" lon="6.27773">
        <ele>1951.4</ele>
        <time>2024-08-10T09:00:52Z</time>
      </trkpt>
      <trkpt lat="45.05265" lon="6.27772">
        <ele>1951.2</ele>
        <time>2024-08-10T09:00:53Z</time>
      </trkpt>
      <trkpt lat="45.05265" lon="6.27772">
        <ele>1951</ele>
        <time>2024-08-10T09:00:54Z</time>
      </trkpt>
      <trkpt lat="45.05267" lon="6.2777">
        <ele>1950.6</ele>
        <time>2024-08-10T09:00:55Z</time>
      </trkpt>
      <trkpt lat="45.05267" lon="6.2777">
        <ele>1950.2</ele>
        <time>2024-08-10T09:00:56Z</time>
      </trkpt>
      <trkpt lat="45.05269" lon="6.27769">
        <ele>1950.2</ele>
        <time>2024-08-10T09:00:57Z</time>
      </trkpt>
      <trkpt lat="45.05269" lon="6.27769">
        <ele>1950</ele>
        <time>2024-08-10T09:00:58Z</time>
      </trkpt>
      <trkpt lat="45.0527" lon="6.27768">
        <ele>1950</ele>
        <time>2024-08-10T09:00:59Z</time>
      </trkpt>
      <trkpt lat="45.0527" lon="6.27768">
        <ele>1950</ele>
        <time>2024-08-10T09:01:00Z</time>
      </trkpt>
      <trkpt lat="45.05272" lon="6.27767">
        <ele>1949.6</ele>
        <time>2024-08-10T09:01:01Z</time>
      </trkpt>
      <trkpt lat="45.05272" lon="6.27767">
        <ele>1949.2</ele>
        <time>2024-08-10T09:01:02Z</time>
      </trkpt>
      <trkpt lat="45.05274" lon="6.27766">
        <ele>1948.8</ele>
        <time>2024-08-10T09:01:03Z</time>
      </trkpt>
      <trkpt lat="45.05274" lon="6.27766">
        <ele>1948.6</ele>
        <time>2024-08-10T09:01:04Z</time>
      </trkpt>
      <trkpt lat="45.05276" lon="6.27765">
        <ele>1948.4</ele>
        <time>2024-08-10T09:01:05Z</time>
      </trkpt>
      <trkpt lat="45.05276" lon="6.27765">
        <ele>1948.2</ele>
        <time>2024-08-10T09:01:06Z</time>
      </trkpt>
      <trkpt lat="45.05278" lon="6.27763">
        <ele>1947.8</ele>
        <time>2024-08-10T09:01:07Z</time>
      </trkpt>
      <trkpt lat="45.05278" lon="6.27763">
        <ele>1947.4</ele>
        <time>2024-08-10T09:01:08Z</time>
      </trkpt>
      <trkpt lat="45.05279" lon="6.27761">
        <ele>1947.2</ele>
        <time>2024-08-10T09:01:09Z</time>
      </trkpt>
      <trkpt lat="45.05279" lon="6.27761">
        <ele>1947.2</ele>
        <time>2024-08-10T09:01:10Z</time>
      </trkpt>
      <trkpt lat="45.05281" lon="6.27759">
        <ele>1947</ele>
        <time>2024-08-10T09:01:11Z</time>
      </trkpt>
      <trkpt lat="45.05281" lon="6.27759">
        <ele>1946.6</ele>
        <time>2024-08-10T09:01:12Z</time>
      </trkpt>
      <trkpt lat="45.05283" lon="6.27759">
        <ele>1946.4</ele>
        <time>2024-08-10T09:01:13Z</time>
      </trkpt>
      <trkpt lat="45.05283" lon="6.27759">
        <ele>1946.2</ele>
        <time>2024-08-10T09:01:14Z</time>
      </trkpt>
      <trkpt lat="45.05285" lon="6.27758">
        <ele>1945.6</ele>
        <time>2024-08-10T09:01:15Z</time>
      </trkpt>
      <trkpt lat="45.05285" lon="6.27758">
        <ele>1945.4</ele>
        <time>2024-08-10T09:01:16Z</time>
      </trkpt>
      <trkpt lat="45.05287" lon="6.27758">
        <ele>1945.4</ele>
        <time>2024-08-10T09:01:17Z</time>
      </trkpt>
      <trkpt lat="45.05287" lon="6.27758">
        <ele>1945.4</ele>
        <time>2024-08-10T09:01:18Z</time>
      </trkpt>
      <trkpt lat="45.0529" lon="6.27757">
        <ele>1945.4</ele>
        <time>2024-08-10T09:01:19Z</time>
      </trkpt>
      <trkpt lat="45.0529" lon="6.27757">
        <ele>1945</ele>
        <time>2024-08-10T09:01:20Z</time>
      </trkpt>
      <trkpt lat="45.05292" lon="6.27756">
        <ele>1944.6</ele>
        <time>2024-08-10T09:01:21Z</time>
      </trkpt>
      <trkpt lat="45.05292" lon="6.27756">
        <ele>1944.2</ele>
        <time>2024-08-10T09:01:22Z</time>
      </trkpt>
      <trkpt lat="45.05294" lon="6.27755">
        <ele>1944</ele>
        <time>2024-08-10T09:01:23Z</time>
      </trkpt>
      <trkpt lat="45.05294" lon="6.27755">
        <ele>1943.6</ele>
        <time>2024-08-10T09:01:24Z</time>
      </trkpt>
      <trkpt lat="45.05294" lon="6.27755">
        <ele>1943.4</ele>
        <time>2024-08-10T09:01:25Z</time>
      </trkpt>
      <trkpt lat="45.05296" lon="6.27754">
        <ele>1943.4</ele>
        <time>2024-08-10T09:01:26Z</time>
      </trkpt>
      <trkpt lat="45.05296" lon="6.27754">
        <ele>1943.2</ele>
        <time>2024-08-10T09:01:27Z</time>
      </trkpt>
      <trkpt lat="45.05296" lon="6.27754">
        <ele>1943</ele>
        <time>2024-08-10T09:01:28Z</time>
      </trkpt>
      <trkpt lat="45.05299" lon="6.27753">
        <ele>1943</ele>
        <time>2024-08-10T09:01:29Z</time>
      </trkpt>
      <trkpt lat="45.05299" lon="6.27753">
        <ele>1942.8</ele>
        <time>2024-08-10T09:01:30Z</time>
      </trkpt>
      <trkpt lat="45.05299" lon="6.27753">
        <ele>1942.8</ele>
        <time>2024-08-10T09:01:31Z</time>
      </trkpt>
      <trkpt lat="45.05301" lon="6.27751">
        <ele>1942.6</ele>
        <time>2024-08-10T09:01:32Z</time>
      </trkpt>
      <trkpt lat="45.05301" lon="6.27751">
        <ele>1942.2</ele>
        <time>2024-08-10T09:01:33Z</time>
      </trkpt>
      <trkpt lat="45.05303" lon="6.27749">
        <ele>1942</ele>
        <time>2024-08-10T09:01:34Z</time>
      </trkpt>
      <trkpt lat="45.05303" lon="6.27749">
        <ele>1941.6</ele>
        <time>2024-08-10T09:01:35Z</time>
      </trkpt>
      <trkpt lat="45.05304" lon="6.27746">
        <ele>1941.4</ele>
        <time>2024-08-10T09:01:36Z</time>
      </trkpt>
      <trkpt lat="45.05304" lon="6.27746">
        <ele>1941.4</ele>
        <time>2024-08-10T09:01:37Z</time>
      </trkpt>
      <trkpt lat="45.05305" lon="6.27742">
        <ele>1941.2</ele>
        <time>2024-08-10T09:01:38Z</time>
      </trkpt>
      <trkpt lat="45.05305" lon="6.27742">
        <ele>1941.2</ele>
        <time>2024-08-10T09:01:39Z</time>
      </trkpt>
      <trkpt lat="45.05306" lon="6.2774">
        <ele>1941</ele>
        <time>2024-08-10T09:01:40Z</time>
      </trkpt>
      <trkpt lat="45.05306" lon="6.2774">
        <ele>1941</ele>
        <time>2024-08-10T09:01:41Z</time>
      </trkpt>
      <trkpt lat="45.05306" lon="6.2774">
        <ele>1941</ele>
        <time>2024-08-10T09:01:42Z</time>
      </trkpt>
      <trkpt lat="45.05307" lon="6.27736">
        <ele>1941</ele>
        <time>2024-08-10T09:01:43Z</time>
      </trkpt>
      <trkpt lat="45.05307" lon="6.27736">
        <ele>1941</ele>
        <time>2024-08-10T09:01:44Z</time>
      </trkpt>
      <trkpt lat="45.05307" lon="6.27736">
        <ele>1940.8</ele>
        <time>2024-08-10T09:01:45Z</time>
      </trkpt>
      <trkpt lat="45.05309" lon="6.27735">
        <ele>1940.6</ele>
        <time>2024-08-10T09:01:46Z</time>
      </trkpt>
      <trkpt lat="45.05309" lon="6.27735">
        <ele>1940.4</ele>
        <time>2024-08-10T09:01:47Z</time>
      </trkpt>
      <trkpt lat="45.0531" lon="6.27737">
        <ele>1939.8</ele>
        <time>2024-08-10T09:01:48Z</time>
      </trkpt>
      <trkpt lat="45.05312" lon="6.27739">
        <ele>1939.8</ele>
        <time>2024-08-10T09:01:49Z</time>
      </trkpt>
      <trkpt lat="45.05312" lon="6.27739">
        <ele>1939.8</ele>
        <time>2024-08-10T09:01:50Z</time>
      </trkpt>
      <trkpt lat="45.05313" lon="6.27743">
        <ele>1939.8</ele>
        <time>2024-08-10T09:01:51Z</time>
      </trkpt>
      <trkpt lat="45.05313" lon="6.27743">
        <ele>1939.6</ele>
        <time>2024-08-10T09:01:52Z</time>
      </trkpt>
      <trkpt lat="45.05314" lon="6.27746">
        <ele>1939.4</ele>
        <time>2024-08-10T09:01:53Z</time>
      </trkpt>
      <trkpt lat="45.05314" lon="6.27746">
        <ele>1939.2</ele>
        <time>2024-08-10T09:01:54Z</time>
      </trkpt>
      <trkpt lat="45.05314" lon="6.27749">
        <ele>1939</ele>
        <time>2024-08-10T09:01:55Z</time>
      </trkpt>
      <trkpt lat="45.05314" lon="6.27749">
        <ele>1938.6</ele>
        <time>2024-08-10T09:01:56Z</time>
      </trkpt>
      <trkpt lat="45.05313" lon="6.27752">
        <ele>1938.4</ele>
        <time>2024-08-10T09:01:57Z</time>
      </trkpt>
      <trkpt lat="45.05313" lon="6.27752">
        <ele>1938.4</ele>
        <time>2024-08-10T09:01:58Z</time>
      </trkpt>
      <trkpt lat="45.05313" lon="6.27755">
        <ele>1938.2</ele>
        <time>2024-08-10T09:01:59Z</time>
      </trkpt>
      <trkpt lat="45.05313" lon="6.27755">
        <ele>1937.6</ele>
        <time>2024-08-10T09:02:00Z</time>
      </trkpt>
      <trkpt lat="45.05313" lon="6.27758">
        <ele>1937.6</ele>
        <time>2024-08-10T09:02:01Z</time>
      </trkpt>
      <trkpt lat="45.05313" lon="6.27758">
        <ele>1937.6</ele>
        <time>2024-08-10T09:02:02Z</time>
      </trkpt>
      <trkpt lat="45.05312" lon="6.27761">
        <ele>1937.6</ele>
        <time>2024-08-10T09:02:03Z</time>
      </trkpt>
      <trkpt lat="45.05312" lon="6.27761">
        <ele>1937.6</ele>
        <time>2024-08-10T09:02:04Z</time>
      </trkpt>
      <trkpt lat="45.05312" lon="6.27764">
        <ele>1937.4</ele>
        <time>2024-08-10T09:02:05Z</time>
      </trkpt>
      <trkpt lat="45.05312" lon="6.27764">
        <ele>1937.4</ele>
        <time>2024-08-10T09:02:06Z</time>
      </trkpt>
      <trkpt lat="45.05311" lon="6.27767">
        <ele>1937.4</ele>
        <time>2024-08-10T09:02:07Z</time>
      </trkpt>
      <trkpt lat="45.05311" lon="6.27767">
        <ele>1937.4</ele>
        <time>2024-08-10T09:02:08Z</time>
      </trkpt>
      <trkpt lat="45.05311" lon="6.27769">
        <ele>1937.4</ele>
        <time>2024-08-10T09:02:09Z</time>
      </trkpt>
      <trkpt lat="45.05311" lon="6.27769">
        <ele>1936.8</ele>
        <time>2024-08-10T09:02:10Z</time>
      </trkpt>
      <trkpt lat="45.0531" lon="6.27772">
        <ele>1936.8</ele>
        <time>2024-08-10T09:02:11Z</time>
      </trkpt>
      <trkpt lat="45.0531" lon="6.27772">
        <ele>1936.6</ele>
        <time>2024-08-10T09:02:12Z</time>
      </trkpt>
      <trkpt lat="45.05309" lon="6.27775">
        <ele>1936</ele>
        <time>2024-08-10T09:02:13Z</time>
      </trkpt>
      <trkpt lat="45.05309" lon="6.27775">
        <ele>1935.6</ele>
        <time>2024-08-10T09:02:14Z</time>
      </trkpt>
      <trkpt lat="45.05308" lon="6.27778">
        <ele>1935.2</ele>
        <time>2024-08-10T09:02:15Z</time>
      </trkpt>
      <trkpt lat="45.05308" lon="6.27778">
        <ele>1935</ele>
        <time>2024-08-10T09:02:16Z</time>
      </trkpt>
      <trkpt lat="45.05308" lon="6.27778">
        <ele>1934.8</ele>
        <time>2024-08-10T09:02:17Z</time>
      </trkpt>
      <trkpt lat="45.0531" lon="6.27776">
        <ele>1934.6</ele>
        <time>2024-08-10T09:02:18Z</time>
      </trkpt>
      <trkpt lat="45.0531" lon="6.27776">
        <ele>1934.2</ele>
        <time>2024-08-10T09:02:19Z</time>
      </trkpt>
      <trkpt lat="45.0531" lon="6.27776">
        <ele>1933.8</ele>
        <time>2024-08-10T09:02:20Z</time>
      </trkpt>
      <trkpt lat="45.05312" lon="6.27773">
        <ele>1933.8</ele>
        <time>2024-08-10T09:02:21Z</time>
      </trkpt>
      <trkpt lat="45.05312" lon="6.27773">
        <ele>1933.8</ele>
        <time>2024-08-10T09:02:22Z</time>
      </trkpt>
      <trkpt lat="45.05313" lon="6.27771">
        <ele>1933.6</ele>
        <time>2024-08-10T09:02:23Z</time>
      </trkpt>
      <trkpt lat="45.05313" lon="6.27771">
        <ele>1933</ele>
        <time>2024-08-10T09:02:24Z</time>
      </trkpt>
      <trkpt lat="45.05313" lon="6.27771">
        <ele>1933</ele>
        <time>2024-08-10T09:02:25Z</time>
      </trkpt>
      <trkpt lat="45.05313" lon="6.27771">
        <ele>1932.8</ele>
        <time>2024-08-10T09:02:26Z</time>
      </trkpt>
      <trkpt lat="45.05313" lon="6.27771">
        <ele>1932.8</ele>
        <time>2024-08-10T09:02:27Z</time>
      </trkpt>
      <trkpt lat="45.05314" lon="6.27769">
        <ele>1932.6</ele>
        <time>2024-08-10T09:02:28Z</time>
      </trkpt>
      <trkpt lat="45.05314" lon="6.27769">
        <ele>1932.4</ele>
        <time>2024-08-10T09:02:29Z</time>
      </trkpt>
      <trkpt lat="45.05316" lon="6.27767">
        <ele>1932.4</ele>
        <time>2024-08-10T09:02:30Z</time>
      </trkpt>
      <trkpt lat="45.05318" lon="6.27765">
        <ele>1932</ele>
        <time>2024-08-10T09:02:31Z</time>
      </trkpt>
      <trkpt lat="45.05318" lon="6.27765">
        <ele>1931.6</ele>
        <time>2024-08-10T09:02:32Z</time>
      </trkpt>
      <trkpt lat="45.0532" lon="6.27763">
        <ele>1931.6</ele>
        <time>2024-08-10T09:02:33Z</time>
      </trkpt>
      <trkpt lat="45.0532" lon="6.27763">
        <ele>1931.4</ele>
        <time>2024-08-10T09:02:34Z</time>
      </trkpt>
      <trkpt lat="45.05322" lon="6.27762">
        <ele>1931.2</ele>
        <time>2024-08-10T09:02:35Z</time>
      </trkpt>
      <trkpt lat="45.05322" lon="6.27762">
        <ele>1930.8</ele>
        <time>2024-08-10T09:02:36Z</time>
      </trkpt>
      <trkpt lat="45.05324" lon="6.27761">
        <ele>1930.6</ele>
        <time>2024-08-10T09:02:37Z</time>
      </trkpt>
      <trkpt lat="45.05324" lon="6.27761">
        <ele>1930.6</ele>
        <time>2024-08-10T09:02:38Z</time>
      </trkpt>
      <trkpt lat="45.05324" lon="6.27761">
        <ele>1930.2</ele>
        <time>2024-08-10T09:02:39Z</time>
      </trkpt>
      <trkpt lat="45.05326" lon="6.2776">
        <ele>1930</ele>
        <time>2024-08-10T09:02:40Z</time>
      </trkpt>
      <trkpt lat="45.05326" lon="6.2776">
        <ele>1929.6</ele>
        <time>2024-08-10T09:02:41Z</time>
      </trkpt>
      <trkpt lat="45.05326" lon="6.2776">
        <ele>1929.4</ele>
        <time>2024-08-10T09:02:42Z</time>
      </trkpt>
      <trkpt lat="45.05328" lon="6.27761">
        <ele>1929.2</ele>
        <time>2024-08-10T09:02:43Z</time>
      </trkpt>
      <trkpt lat="45.05328" lon="6.27761">
        <ele>1928.4</ele>
        <time>2024-08-10T09:02:44Z</time>
      </trkpt>
      <trkpt lat="45.05328" lon="6.27764">
        <ele>1928.2</ele>
        <time>2024-08-10T09:02:45Z</time>
      </trkpt>
      <trkpt lat="45.05328" lon="6.27764">
        <ele>1928.2</ele>
        <time>2024-08-10T09:02:46Z</time>
      </trkpt>
      <trkpt lat="45.05327" lon="6.27767">
        <ele>1928.2</ele>
        <time>2024-08-10T09:02:47Z</time>
      </trkpt>
      <trkpt lat="45.05327" lon="6.27767">
        <ele>1928</ele>
        <time>2024-08-10T09:02:48Z</time>
      </trkpt>
      <trkpt lat="45.05327" lon="6.2777">
        <ele>1927.8</ele>
        <time>2024-08-10T09:02:49Z</time>
      </trkpt>
      <trkpt lat="45.05327" lon="6.2777">
        <ele>1927.6</ele>
        <time>2024-08-10T09:02:50Z</time>
      </trkpt>
      <trkpt lat="45.05327" lon="6.27773">
        <ele>1927.4</ele>
        <time>2024-08-10T09:02:51Z</time>
      </trkpt>
      <trkpt lat="45.05327" lon="6.27773">
        <ele>1927.4</ele>
        <time>2024-08-10T09:02:52Z</time>
      </trkpt>
      <trkpt lat="45.05327" lon="6.27776">
        <ele>1927.4</ele>
        <time>2024-08-10T09:02:53Z</time>
      </trkpt>
      <trkpt lat="45.05327" lon="6.27776">
        <ele>1927.2</ele>
        <time>2024-08-10T09:02:54Z</time>
      </trkpt>
      <trkpt lat="45.05328" lon="6.2778">
        <ele>1927.2</ele>
        <time>2024-08-10T09:02:55Z</time>
      </trkpt>
      <trkpt lat="45.05328" lon="6.2778">
        <ele>1927</ele>
        <time>2024-08-10T09:02:56Z</time>
      </trkpt>
      <trkpt lat="45.05328" lon="6.27784">
        <ele>1926.8</ele>
        <time>2024-08-10T09:02:57Z</time>
      </trkpt>
      <trkpt lat="45.05328" lon="6.27784">
        <ele>1926.6</ele>
        <time>2024-08-10T09:02:58Z</time>
      </trkpt>
      <trkpt lat="45.05328" lon="6.27787">
        <ele>1926.6</ele>
        <time>2024-08-10T09:02:59Z</time>
      </trkpt>
      <trkpt lat="45.05328" lon="6.27787">
        <ele>1926.2</ele>
        <time>2024-08-10T09:03:00Z</time>
      </trkpt>
      <trkpt lat="45.05327" lon="6.2779">
        <ele>1925.8</ele>
        <time>2024-08-10T09:03:01Z</time>
      </trkpt>
      <trkpt lat="45.05327" lon="6.2779">
        <ele>1925.6</ele>
        <time>2024-08-10T09:03:02Z</time>
      </trkpt>
      <trkpt lat="45.05326" lon="6.27793">
        <ele>1925</ele>
        <time>2024-08-10T09:03:03Z</time>
      </trkpt>
      <trkpt lat="45.05326" lon="6.27793">
        <ele>1925</ele>
        <time>2024-08-10T09:03:04Z</time>
      </trkpt>
      <trkpt lat="45.05325" lon="6.27796">
        <ele>1924.8</ele>
        <time>2024-08-10T09:03:05Z</time>
      </trkpt>
      <trkpt lat="45.05325" lon="6.27796">
        <ele>1924.6</ele>
        <time>2024-08-10T09:03:06Z</time>
      </trkpt>
      <trkpt lat="45.05324" lon="6.278">
        <ele>1924.4</ele>
        <time>2024-08-10T09:03:07Z</time>
      </trkpt>
      <trkpt lat="45.05324" lon="6.278">
        <ele>1924.2</ele>
        <time>2024-08-10T09:03:08Z</time>
      </trkpt>
      <trkpt lat="45.05324" lon="6.27803">
        <ele>1924.2</ele>
        <time>2024-08-10T09:03:09Z</time>
      </trkpt>
      <trkpt lat="45.05324" lon="6.27803">
        <ele>1924.2</ele>
        <time>2024-08-10T09:03:10Z</time>
      </trkpt>
      <trkpt lat="45.05323" lon="6.27805">
        <ele>1923.8</ele>
        <time>2024-08-10T09:03:11Z</time>
      </trkpt>
      <trkpt lat="45.05323" lon="6.27805">
        <ele>1923.6</ele>
        <time>2024-08-10T09:03:12Z</time>
      </trkpt>
      <trkpt lat="45.05322" lon="6.27808">
        <ele>1923.4</ele>
        <time>2024-08-10T09:03:13Z</time>
      </trkpt>
      <trkpt lat="45.05322" lon="6.27808">
        <ele>1923.4</ele>
        <time>2024-08-10T09:03:14Z</time>
      </trkpt>
      <trkpt lat="45.05322" lon="6.27812">
        <ele>1923.2</ele>
        <time>2024-08-10T09:03:15Z</time>
      </trkpt>
      <trkpt lat="45.05322" lon="6.27812">
        <ele>1923</ele>
        <time>2024-08-10T09:03:16Z</time>
      </trkpt>
      <trkpt lat="45.05322" lon="6.27815">
        <ele>1922.8</ele>
        <time>2024-08-10T09:03:17Z</time>
      </trkpt>
      <trkpt lat="45.05322" lon="6.27815">
        <ele>1922.4</ele>
        <time>2024-08-10T09:03:18Z</time>
      </trkpt>
      <trkpt lat="45.05321" lon="6.27819">
        <ele>1922.4</ele>
        <time>2024-08-10T09:03:19Z</time>
      </trkpt>
      <trkpt lat="45.05321" lon="6.27819">
        <ele>1922.2</ele>
        <time>2024-08-10T09:03:20Z</time>
      </trkpt>
      <trkpt lat="45.05321" lon="6.27823">
        <ele>1921.8</ele>
        <time>2024-08-10T09:03:21Z</time>
      </trkpt>
      <trkpt lat="45.05321" lon="6.27823">
        <ele>1921.4</ele>
        <time>2024-08-10T09:03:22Z</time>
      </trkpt>
      <trkpt lat="45.05321" lon="6.27827">
        <ele>1921.2</ele>
        <time>2024-08-10T09:03:23Z</time>
      </trkpt>
      <trkpt lat="45.05321" lon="6.27827">
        <ele>1921.2</ele>
        <time>2024-08-10T09:03:24Z</time>
      </trkpt>
      <trkpt lat="45.05321" lon="6.2783">
        <ele>1921.2</ele>
        <time>2024-08-10T09:03:25Z</time>
      </trkpt>
      <trkpt lat="45.05321" lon="6.2783">
        <ele>1921.2</ele>
        <time>2024-08-10T09:03:26Z</time>
      </trkpt>
      <trkpt lat="45.0532" lon="6.27834">
        <ele>1921</ele>
        <time>2024-08-10T09:03:27Z</time>
      </trkpt>
      <trkpt lat="45.0532" lon="6.27834">
        <ele>1920.6</ele>
        <time>2024-08-10T09:03:28Z</time>
      </trkpt>
      <trkpt lat="45.0532" lon="6.27834">
        <ele>1920.6</ele>
        <time>2024-08-10T09:03:29Z</time>
      </trkpt>
      <trkpt lat="45.05319" lon="6.27837">
        <ele>1920.6</ele>
        <time>2024-08-10T09:03:30Z</time>
      </trkpt>
      <trkpt lat="45.05319" lon="6.27837">
        <ele>1920.6</ele>
        <time>2024-08-10T09:03:31Z</time>
      </trkpt>
      <trkpt lat="45.05318" lon="6.27841">
        <ele>1920.4</ele>
        <time>2024-08-10T09:03:32Z</time>
      </trkpt>
      <trkpt lat="45.05318" lon="6.27841">
        <ele>1920.2</ele>
        <time>2024-08-10T09:03:33Z</time>
      </trkpt>
      <trkpt lat="45.05318" lon="6.27844">
        <ele>1920</ele>
        <time>2024-08-10T09:03:34Z</time>
      </trkpt>
      <trkpt lat="45.05318" lon="6.27844">
        <ele>1920</ele>
        <time>2024-08-10T09:03:35Z</time>
      </trkpt>
      <trkpt lat="45.05317" lon="6.27848">
        <ele>1919.8</ele>
        <time>2024-08-10T09:03:36Z</time>
      </trkpt>
      <trkpt lat="45.05317" lon="6.27848">
        <ele>1919.8</ele>
        <time>2024-08-10T09:03:37Z</time>
      </trkpt>
      <trkpt lat="45.05317" lon="6.27851">
        <ele>1919.8</ele>
        <time>2024-08-10T09:03:38Z</time>
      </trkpt>
      <trkpt lat="45.05317" lon="6.27851">
        <ele>1919.4</ele>
        <time>2024-08-10T09:03:39Z</time>
      </trkpt>
      <trkpt lat="45.05316" lon="6.27854">
        <ele>1919</ele>
        <time>2024-08-10T09:03:40Z</time>
      </trkpt>
      <trkpt lat="45.05316" lon="6.27854">
        <ele>1918.8</ele>
        <time>2024-08-10T09:03:41Z</time>
      </trkpt>
      <trkpt lat="45.05314" lon="6.27856">
        <ele>1918.6</ele>
        <time>2024-08-10T09:03:42Z</time>
      </trkpt>
      <trkpt lat="45.05314" lon="6.27856">
        <ele>1918.6</ele>
        <time>2024-08-10T09:03:43Z</time>
      </trkpt>
      <trkpt lat="45.05314" lon="6.27856">
        <ele>1918.6</ele>
        <time>2024-08-10T09:03:44Z</time>
      </trkpt>
      <trkpt lat="45.05314" lon="6.27856">
        <ele>1918.4</ele>
        <time>2024-08-10T09:03:45Z</time>
      </trkpt>
      <trkpt lat="45.05314" lon="6.27856">
        <ele>1918.2</ele>
        <time>2024-08-10T09:03:46Z</time>
      </trkpt>
      <trkpt lat="45.05316" lon="6.27858">
        <ele>1918</ele>
        <time>2024-08-10T09:03:47Z</time>
      </trkpt>
      <trkpt lat="45.05316" lon="6.27858">
        <ele>1917.6</ele>
        <time>2024-08-10T09:03:48Z</time>
      </trkpt>
      <trkpt lat="45.05316" lon="6.27858">
        <ele>1917.4</ele>
        <time>2024-08-10T09:03:49Z</time>
      </trkpt>
      <trkpt lat="45.05318" lon="6.27856">
        <ele>1917.2</ele>
        <time>2024-08-10T09:03:50Z</time>
      </trkpt>
      <trkpt lat="45.05318" lon="6.27856">
        <ele>1917</ele>
        <time>2024-08-10T09:03:51Z</time>
      </trkpt>
      <trkpt lat="45.05319" lon="6.27855">
        <ele>1916.4</ele>
        <time>2024-08-10T09:03:52Z</time>
      </trkpt>
      <trkpt lat="45.05319" lon="6.27855">
        <ele>1916.2</ele>
        <time>2024-08-10T09:03:53Z</time>
      </trkpt>
      <trkpt lat="45.05322" lon="6.27854">
        <ele>1916.2</ele>
        <time>2024-08-10T09:03:54Z</time>
      </trkpt>
      <trkpt lat="45.05322" lon="6.27854">
        <ele>1916</ele>
        <time>2024-08-10T09:03:55Z</time>
      </trkpt>
      <trkpt lat="45.05323" lon="6.27852">
        <ele>1915.8</ele>
        <time>2024-08-10T09:03:56Z</time>
      </trkpt>
      <trkpt lat="45.05323" lon="6.27852">
        <ele>1915.4</ele>
        <time>2024-08-10T09:03:57Z</time>
      </trkpt>
      <trkpt lat="45.05325" lon="6.2785">
        <ele>1915.4</ele>
        <time>2024-08-10T09:03:58Z</time>
      </trkpt>
      <trkpt lat="45.05325" lon="6.2785">
        <ele>1915.2</ele>
        <time>2024-08-10T09:03:59Z</time>
      </trkpt>
      <trkpt lat="45.05327" lon="6.27848">
        <ele>1915</ele>
        <time>2024-08-10T09:04:00Z</time>
      </trkpt>
      <trkpt lat="45.05327" lon="6.27848">
        <ele>1914.8</ele>
        <time>2024-08-10T09:04:01Z</time>
      </trkpt>
      <trkpt lat="45.05328" lon="6.27846">
        <ele>1914.4</ele>
        <time>2024-08-10T09:04:02Z</time>
      </trkpt>
      <trkpt lat="45.05328" lon="6.27846">
        <ele>1914.2</ele>
        <time>2024-08-10T09:04:03Z</time>
      </trkpt>
      <trkpt lat="45.05329" lon="6.27843">
        <ele>1914.2</ele>
        <time>2024-08-10T09:04:04Z</time>
      </trkpt>
      <trkpt lat="45.05329" lon="6.27843">
        <ele>1914</ele>
        <time>2024-08-10T09:04:05Z</time>
      </trkpt>
      <trkpt lat="45.05331" lon="6.27841">
        <ele>1914</ele>
        <time>2024-08-10T09:04:06Z</time>
      </trkpt>
      <trkpt lat="45.05331" lon="6.27841">
        <ele>1913.8</ele>
        <time>2024-08-10T09:04:07Z</time>
      </trkpt>
      <trkpt lat="45.05333" lon="6.27839">
        <ele>1913.6</ele>
        <time>2024-08-10T09:04:08Z</time>
      </trkpt>
      <trkpt lat="45.05333" lon="6.27839">
        <ele>1913</ele>
        <time>2024-08-10T09:04:09Z</time>
      </trkpt>
      <trkpt lat="45.05333" lon="6.27836">
        <ele>1913</ele>
        <time>2024-08-10T09:04:10Z</time>
      </trkpt>
      <trkpt lat="45.05333" lon="6.27836">
        <ele>1913</ele>
        <time>2024-08-10T09:04:11Z</time>
      </trkpt>
      <trkpt lat="45.05334" lon="6.27833">
        <ele>1913</ele>
        <time>2024-08-10T09:04:12Z</time>
      </trkpt>
      <trkpt lat="45.05334" lon="6.27833">
        <ele>1912.6</ele>
        <time>2024-08-10T09:04:13Z</time>
      </trkpt>
      <trkpt lat="45.05336" lon="6.27831">
        <ele>1912.6</ele>
        <time>2024-08-10T09:04:14Z</time>
      </trkpt>
      <trkpt lat="45.05336" lon="6.27831">
        <ele>1912.6</ele>
        <time>2024-08-10T09:04:15Z</time>
      </trkpt>
      <trkpt lat="45.05339" lon="6.27828">
        <ele>1912.4</ele>
        <time>2024-08-10T09:04:16Z</time>
      </trkpt>
      <trkpt lat="45.05339" lon="6.27828">
        <ele>1912.4</ele>
        <time>2024-08-10T09:04:17Z</time>
      </trkpt>
      <trkpt lat="45.0534" lon="6.27826">
        <ele>1912.2</ele>
        <time>2024-08-10T09:04:18Z</time>
      </trkpt>
      <trkpt lat="45.0534" lon="6.27826">
        <ele>1912.2</ele>
        <time>2024-08-10T09:04:19Z</time>
      </trkpt>
      <trkpt lat="45.05341" lon="6.27823">
        <ele>1912</ele>
        <time>2024-08-10T09:04:20Z</time>
      </trkpt>
      <trkpt lat="45.05341" lon="6.27823">
        <ele>1911.8</ele>
        <time>2024-08-10T09:04:21Z</time>
      </trkpt>
      <trkpt lat="45.05344" lon="6.27821">
        <ele>1911.6</ele>
        <time>2024-08-10T09:04:22Z</time>
      </trkpt>
      <trkpt lat="45.05344" lon="6.27821">
        <ele>1911.2</ele>
        <time>2024-08-10T09:04:23Z</time>
      </trkpt>
      <trkpt lat="45.05346" lon="6.27819">
        <ele>1911</ele>
        <time>2024-08-10T09:04:24Z</time>
      </trkpt>
      <trkpt lat="45.05346" lon="6.27819">
        <ele>1910.6</ele>
        <time>2024-08-10T09:04:25Z</time>
      </trkpt>
      <trkpt lat="45.05348" lon="6.27817">
        <ele>1910.6</ele>
        <time>2024-08-10T09:04:26Z</time>
      </trkpt>
      <trkpt lat="45.05348" lon="6.27817">
        <ele>1910.6</ele>
        <time>2024-08-10T09:04:27Z</time>
      </trkpt>
      <trkpt lat="45.05349" lon="6.27814">
        <ele>1910.2</ele>
        <time>2024-08-10T09:04:28Z</time>
      </trkpt>
      <trkpt lat="45.05349" lon="6.27814">
        <ele>1910</ele>
        <time>2024-08-10T09:04:29Z</time>
      </trkpt>
      <trkpt lat="45.05351" lon="6.27811">
        <ele>1909.8</ele>
        <time>2024-08-10T09:04:30Z</time>
      </trkpt>
      <trkpt lat="45.05351" lon="6.27811">
        <ele>1909.6</ele>
        <time>2024-08-10T09:04:31Z</time>
      </trkpt>
      <trkpt lat="45.05352" lon="6.27809">
        <ele>1909.4</ele>
        <time>2024-08-10T09:04:32Z</time>
      </trkpt>
      <trkpt lat="45.05352" lon="6.27809">
        <ele>1909.4</ele>
        <time>2024-08-10T09:04:33Z</time>
      </trkpt>
      <trkpt lat="45.05354" lon="6.27806">
        <ele>1909.4</ele>
        <time>2024-08-10T09:04:34Z</time>
      </trkpt>
      <trkpt lat="45.05354" lon="6.27806">
        <ele>1909</ele>
        <time>2024-08-10T09:04:35Z</time>
      </trkpt>
      <trkpt lat="45.05357" lon="6.27804">
        <ele>1909</ele>
        <time>2024-08-10T09:04:36Z</time>
      </trkpt>
      <trkpt lat="45.05357" lon="6.27804">
        <ele>1909</ele>
        <time>2024-08-10T09:04:37Z</time>
      </trkpt>
      <trkpt lat="45.05358" lon="6.27801">
        <ele>1908.6</ele>
        <time>2024-08-10T09:04:38Z</time>
      </trkpt>
      <trkpt lat="45.05358" lon="6.27801">
        <ele>1908.4</ele>
        <time>2024-08-10T09:04:39Z</time>
      </trkpt>
      <trkpt lat="45.0536" lon="6.27798">
        <ele>1908.4</ele>
        <time>2024-08-10T09:04:40Z</time>
      </trkpt>
      <trkpt lat="45.0536" lon="6.27798">
        <ele>1908.4</ele>
        <time>2024-08-10T09:04:41Z</time>
      </trkpt>
      <trkpt lat="45.05361" lon="6.27796">
        <ele>1908.2</ele>
        <time>2024-08-10T09:04:42Z</time>
      </trkpt>
      <trkpt lat="45.05361" lon="6.27796">
        <ele>1907.8</ele>
        <time>2024-08-10T09:04:43Z</time>
      </trkpt>
      <trkpt lat="45.05362" lon="6.27792">
        <ele>1907.6</ele>
        <time>2024-08-10T09:04:44Z</time>
      </trkpt>
      <trkpt lat="45.05362" lon="6.27792">
        <ele>1907.6</ele>
        <time>2024-08-10T09:04:45Z</time>
      </trkpt>
      <trkpt lat="45.05362" lon="6.27792">
        <ele>1907.6</ele>
        <time>2024-08-10T09:04:46Z</time>
      </trkpt>
      <trkpt lat="45.05363" lon="6.27789">
        <ele>1907.6</ele>
        <time>2024-08-10T09:04:47Z</time>
      </trkpt>
      <trkpt lat="45.05363" lon="6.27789">
        <ele>1907.4</ele>
        <time>2024-08-10T09:04:48Z</time>
      </trkpt>
      <trkpt lat="45.05365" lon="6.27791">
        <ele>1907.2</ele>
        <time>2024-08-10T09:04:49Z</time>
      </trkpt>
      <trkpt lat="45.05365" lon="6.27791">
        <ele>1906.8</ele>
        <time>2024-08-10T09:04:50Z</time>
      </trkpt>
      <trkpt lat="45.05366" lon="6.27795">
        <ele>1906.8</ele>
        <time>2024-08-10T09:04:51Z</time>
      </trkpt>
      <trkpt lat="45.05366" lon="6.27795">
        <ele>1906.6</ele>
        <time>2024-08-10T09:04:52Z</time>
      </trkpt>
      <trkpt lat="45.05366" lon="6.27795">
        <ele>1906.6</ele>
        <time>2024-08-10T09:04:53Z</time>
      </trkpt>
      <trkpt lat="45.05366" lon="6.27799">
        <ele>1906.4</ele>
        <time>2024-08-10T09:04:54Z</time>
      </trkpt>
      <trkpt lat="45.05366" lon="6.27799">
        <ele>1906.4</ele>
        <time>2024-08-10T09:04:55Z</time>
      </trkpt>
      <trkpt lat="45.05366" lon="6.27801">
        <ele>1906.2</ele>
        <time>2024-08-10T09:04:56Z</time>
      </trkpt>
      <trkpt lat="45.05366" lon="6.27801">
        <ele>1906</ele>
        <time>2024-08-10T09:04:57Z</time>
      </trkpt>
      <trkpt lat="45.05366" lon="6.27805">
        <ele>1905.8</ele>
        <time>2024-08-10T09:04:58Z</time>
      </trkpt>
      <trkpt lat="45.05366" lon="6.27805">
        <ele>1905.4</ele>
        <time>2024-08-10T09:04:59Z</time>
      </trkpt>
      <trkpt lat="45.05366" lon="6.27807">
        <ele>1905.2</ele>
        <time>2024-08-10T09:05:00Z</time>
      </trkpt>
      <trkpt lat="45.05366" lon="6.27807">
        <ele>1905.2</ele>
        <time>2024-08-10T09:05:01Z</time>
      </trkpt>
      <trkpt lat="45.05365" lon="6.2781">
        <ele>1904.8</ele>
        <time>2024-08-10T09:05:02Z</time>
      </trkpt>
      <trkpt lat="45.05365" lon="6.2781">
        <ele>1904.6</ele>
        <time>2024-08-10T09:05:03Z</time>
      </trkpt>
      <trkpt lat="45.05364" lon="6.27813">
        <ele>1904.6</ele>
        <time>2024-08-10T09:05:04Z</time>
      </trkpt>
      <trkpt lat="45.05364" lon="6.27813">
        <ele>1904.4</ele>
        <time>2024-08-10T09:05:05Z</time>
      </trkpt>
      <trkpt lat="45.05363" lon="6.27816">
        <ele>1904.4</ele>
        <time>2024-08-10T09:05:06Z</time>
      </trkpt>
      <trkpt lat="45.05363" lon="6.27816">
        <ele>1904.2</ele>
        <time>2024-08-10T09:05:07Z</time>
      </trkpt>
      <trkpt lat="45.05362" lon="6.27819">
        <ele>1903.6</ele>
        <time>2024-08-10T09:05:08Z</time>
      </trkpt>
      <trkpt lat="45.05362" lon="6.27819">
        <ele>1903.4</ele>
        <time>2024-08-10T09:05:09Z</time>
      </trkpt>
      <trkpt lat="45.05361" lon="6.27822">
        <ele>1903.2</ele>
        <time>2024-08-10T09:05:10Z</time>
      </trkpt>
      <trkpt lat="45.05361" lon="6.27822">
        <ele>1903</ele>
        <time>2024-08-10T09:05:11Z</time>
      </trkpt>
      <trkpt lat="45.05361" lon="6.27825">
        <ele>1903</ele>
        <time>2024-08-10T09:05:12Z</time>
      </trkpt>
      <trkpt lat="45.05361" lon="6.27825">
        <ele>1902.8</ele>
        <time>2024-08-10T09:05:13Z</time>
      </trkpt>
      <trkpt lat="45.0536" lon="6.27828">
        <ele>1902.4</ele>
        <time>2024-08-10T09:05:14Z</time>
      </trkpt>
      <trkpt lat="45.0536" lon="6.27828">
        <ele>1902</ele>
        <time>2024-08-10T09:05:15Z</time>
      </trkpt>
      <trkpt lat="45.0536" lon="6.27831">
        <ele>1901.6</ele>
        <time>2024-08-10T09:05:16Z</time>
      </trkpt>
      <trkpt lat="45.0536" lon="6.27831">
        <ele>1901</ele>
        <time>2024-08-10T09:05:17Z</time>
      </trkpt>
      <trkpt lat="45.05359" lon="6.27834">
        <ele>1900.8</ele>
        <time>2024-08-10T09:05:18Z</time>
      </trkpt>
      <trkpt lat="45.05359" lon="6.27834">
        <ele>1900.2</ele>
        <time>2024-08-10T09:05:19Z</time>
      </trkpt>
      <trkpt lat="45.05358" lon="6.27837">
        <ele>1900</ele>
        <time>2024-08-10T09:05:20Z</time>
      </trkpt>
      <trkpt lat="45.05358" lon="6.27837">
        <ele>1900</ele>
        <time>2024-08-10T09:05:21Z</time>
      </trkpt>
      <trkpt lat="45.05357" lon="6.2784">
        <ele>1899.8</ele>
        <time>2024-08-10T09:05:22Z</time>
      </trkpt>
      <trkpt lat="45.05357" lon="6.2784">
        <ele>1899.4</ele>
        <time>2024-08-10T09:05:23Z</time>
      </trkpt>
      <trkpt lat="45.05357" lon="6.2784">
        <ele>1899</ele>
        <time>2024-08-10T09:05:24Z</time>
      </trkpt>
      <trkpt lat="45.05357" lon="6.27843">
        <ele>1898.4</ele>
        <time>2024-08-10T09:05:25Z</time>
      </trkpt>
      <trkpt lat="45.05357" lon="6.27843">
        <ele>1898.4</ele>
        <time>2024-08-10T09:05:26Z</time>
      </trkpt>
      <trkpt lat="45.05356" lon="6.27846">
        <ele>1898.4</ele>
        <time>2024-08-10T09:05:27Z</time>
      </trkpt>
      <trkpt lat="45.05356" lon="6.27846">
        <ele>1898.2</ele>
        <time>2024-08-10T09:05:28Z</time>
      </trkpt>
      <trkpt lat="45.05356" lon="6.27849">
        <ele>1898.2</ele>
        <time>2024-08-10T09:05:29Z</time>
      </trkpt>
      <trkpt lat="45.05356" lon="6.27849">
        <ele>1897.6</ele>
        <time>2024-08-10T09:05:30Z</time>
      </trkpt>
      <trkpt lat="45.05356" lon="6.27851">
        <ele>1897.2</ele>
        <time>2024-08-10T09:05:31Z</time>
      </trkpt>
      <trkpt lat="45.05356" lon="6.27851">
        <ele>1897</ele>
        <time>2024-08-10T09:05:32Z</time>
      </trkpt>
      <trkpt lat="45.05355" lon="6.27854">
        <ele>1896.6</ele>
        <time>2024-08-10T09:05:33Z</time>
      </trkpt>
      <trkpt lat="45.05355" lon="6.27854">
        <ele>1896.4</ele>
        <time>2024-08-10T09:05:34Z</time>
      </trkpt>
      <trkpt lat="45.05355" lon="6.27857">
        <ele>1896.2</ele>
        <time>2024-08-10T09:05:35Z</time>
      </trkpt>
      <trkpt lat="45.05355" lon="6.27857">
        <ele>1895.8</ele>
        <time>2024-08-10T09:05:36Z</time>
      </trkpt>
      <trkpt lat="45.05354" lon="6.27861">
        <ele>1895.2</ele>
        <time>2024-08-10T09:05:37Z</time>
      </trkpt>
      <trkpt lat="45.05354" lon="6.27861">
        <ele>1894.8</ele>
        <time>2024-08-10T09:05:38Z</time>
      </trkpt>
      <trkpt lat="45.05354" lon="6.27861">
        <ele>1894.6</ele>
        <time>2024-08-10T09:05:39Z</time>
      </trkpt>
      <trkpt lat="45.05354" lon="6.27864">
        <ele>1894.6</ele>
        <time>2024-08-10T09:05:40Z</time>
      </trkpt>
      <trkpt lat="45.05354" lon="6.27864">
        <ele>1894.4</ele>
        <time>2024-08-10T09:05:41Z</time>
      </trkpt>
      <trkpt lat="45.05354" lon="6.27864">
        <ele>1894.4</ele>
        <time>2024-08-10T09:05:42Z</time>
      </trkpt>
      <trkpt lat="45.05354" lon="6.27867">
        <ele>1894</ele>
        <time>2024-08-10T09:05:43Z</time>
      </trkpt>
      <trkpt lat="45.05354" lon="6.27867">
        <ele>1894</ele>
        <time>2024-08-10T09:05:44Z</time>
      </trkpt>
      <trkpt lat="45.05354" lon="6.2787">
        <ele>1893.8</ele>
        <time>2024-08-10T09:05:45Z</time>
      </trkpt>
      <trkpt lat="45.05354" lon="6.2787">
        <ele>1893.4</ele>
        <time>2024-08-10T09:05:46Z</time>
      </trkpt>
      <trkpt lat="45.05355" lon="6.27874">
        <ele>1893.2</ele>
        <time>2024-08-10T09:05:47Z</time>
      </trkpt>
      <trkpt lat="45.05355" lon="6.27874">
        <ele>1892.6</ele>
        <time>2024-08-10T09:05:48Z</time>
      </trkpt>
      <trkpt lat="45.05354" lon="6.27877">
        <ele>1892.4</ele>
        <time>2024-08-10T09:05:49Z</time>
      </trkpt>
      <trkpt lat="45.05354" lon="6.27877">
        <ele>1892</ele>
        <time>2024-08-10T09:05:50Z</time>
      </trkpt>
      <trkpt lat="45.05354" lon="6.2788">
        <ele>1891.6</ele>
        <time>2024-08-10T09:05:51Z</time>
      </trkpt>
      <trkpt lat="45.05354" lon="6.2788">
        <ele>1891.2</ele>
        <time>2024-08-10T09:05:52Z</time>
      </trkpt>
      <trkpt lat="45.05354" lon="6.27883">
        <ele>1891</ele>
        <time>2024-08-10T09:05:53Z</time>
      </trkpt>
      <trkpt lat="45.05354" lon="6.27883">
        <ele>1890.8</ele>
        <time>2024-08-10T09:05:54Z</time>
      </trkpt>
      <trkpt lat="45.05354" lon="6.27886">
        <ele>1890.6</ele>
        <time>2024-08-10T09:05:55Z</time>
      </trkpt>
      <trkpt lat="45.05354" lon="6.27886">
        <ele>1890.6</ele>
        <time>2024-08-10T09:05:56Z</time>
      </trkpt>
      <trkpt lat="45.05353" lon="6.27889">
        <ele>1890.6</ele>
        <time>2024-08-10T09:05:57Z</time>
      </trkpt>
      <trkpt lat="45.05353" lon="6.27889">
        <ele>1890.2</ele>
        <time>2024-08-10T09:05:58Z</time>
      </trkpt>
      <trkpt lat="45.05352" lon="6.27892">
        <ele>1889.8</ele>
        <time>2024-08-10T09:05:59Z</time>
      </trkpt>
      <trkpt lat="45.05352" lon="6.27892">
        <ele>1889.6</ele>
        <time>2024-08-10T09:06:00Z</time>
      </trkpt>
      <trkpt lat="45.05351" lon="6.27895">
        <ele>1889.2</ele>
        <time>2024-08-10T09:06:01Z</time>
      </trkpt>
      <trkpt lat="45.05351" lon="6.27895">
        <ele>1889</ele>
        <time>2024-08-10T09:06:02Z</time>
      </trkpt>
      <trkpt lat="45.05351" lon="6.27898">
        <ele>1888.4</ele>
        <time>2024-08-10T09:06:03Z</time>
      </trkpt>
      <trkpt lat="45.05351" lon="6.27898">
        <ele>1888.4</ele>
        <time>2024-08-10T09:06:04Z</time>
      </trkpt>
      <trkpt lat="45.0535" lon="6.27901">
        <ele>1888.2</ele>
        <time>2024-08-10T09:06:05Z</time>
      </trkpt>
      <trkpt lat="45.0535" lon="6.27901">
        <ele>1888</ele>
        <time>2024-08-10T09:06:06Z</time>
      </trkpt>
      <trkpt lat="45.0535" lon="6.27901">
        <ele>1888</ele>
        <time>2024-08-10T09:06:07Z</time>
      </trkpt>
      <trkpt lat="45.0535" lon="6.27905">
        <ele>1887.8</ele>
        <time>2024-08-10T09:06:08Z</time>
      </trkpt>
      <trkpt lat="45.0535" lon="6.27905">
        <ele>1887.4</ele>
        <time>2024-08-10T09:06:09Z</time>
      </trkpt>
      <trkpt lat="45.05351" lon="6.27907">
        <ele>1887.4</ele>
        <time>2024-08-10T09:06:10Z</time>
      </trkpt>
      <trkpt lat="45.05351" lon="6.27907">
        <ele>1887.2</ele>
        <time>2024-08-10T09:06:11Z</time>
      </trkpt>
      <trkpt lat="45.05351" lon="6.27907">
        <ele>1886.8</ele>
        <time>2024-08-10T09:06:12Z</time>
      </trkpt>
      <trkpt lat="45.05351" lon="6.27911">
        <ele>1886.4</ele>
        <time>2024-08-10T09:06:13Z</time>
      </trkpt>
      <trkpt lat="45.05351" lon="6.27911">
        <ele>1886.4</ele>
        <time>2024-08-10T09:06:14Z</time>
      </trkpt>
      <trkpt lat="45.05351" lon="6.27915">
        <ele>1886.4</ele>
        <time>2024-08-10T09:06:15Z</time>
      </trkpt>
      <trkpt lat="45.05351" lon="6.27915">
        <ele>1886.2</ele>
        <time>2024-08-10T09:06:16Z</time>
      </trkpt>
      <trkpt lat="45.0535" lon="6.27917">
        <ele>1885.8</ele>
        <time>2024-08-10T09:06:17Z</time>
      </trkpt>
      <trkpt lat="45.0535" lon="6.27917">
        <ele>1885.4</ele>
        <time>2024-08-10T09:06:18Z</time>
      </trkpt>
      <trkpt lat="45.0535" lon="6.27917">
        <ele>1885.4</ele>
        <time>2024-08-10T09:06:19Z</time>
      </trkpt>
      <trkpt lat="45.05349" lon="6.27919">
        <ele>1885.4</ele>
        <time>2024-08-10T09:06:20Z</time>
      </trkpt>
      <trkpt lat="45.05349" lon="6.27919">
        <ele>1885.2</ele>
        <time>2024-08-10T09:06:21Z</time>
      </trkpt>
      <trkpt lat="45.05349" lon="6.27919">
        <ele>1884.8</ele>
        <time>2024-08-10T09:06:22Z</time>
      </trkpt>
      <trkpt lat="45.05349" lon="6.27922">
        <ele>1884.6</ele>
        <time>2024-08-10T09:06:23Z</time>
      </trkpt>
      <trkpt lat="45.05349" lon="6.27922">
        <ele>1884.6</ele>
        <time>2024-08-10T09:06:24Z</time>
      </trkpt>
      <trkpt lat="45.05349" lon="6.27922">
        <ele>1884.4</ele>
        <time>2024-08-10T09:06:25Z</time>
      </trkpt>
      <trkpt lat="45.05352" lon="6.27922">
        <ele>1884.4</ele>
        <time>2024-08-10T09:06:26Z</time>
      </trkpt>
      <trkpt lat="45.05352" lon="6.27922">
        <ele>1884.4</ele>
        <time>2024-08-10T09:06:27Z</time>
      </trkpt>
      <trkpt lat="45.05354" lon="6.27921">
        <ele>1884.2</ele>
        <time>2024-08-10T09:06:28Z</time>
      </trkpt>
      <trkpt lat="45.05354" lon="6.27921">
        <ele>1884</ele>
        <time>2024-08-10T09:06:29Z</time>
      </trkpt>
      <trkpt lat="45.05354" lon="6.27921">
        <ele>1884</ele>
        <time>2024-08-10T09:06:30Z</time>
      </trkpt>
      <trkpt lat="45.05357" lon="6.2792">
        <ele>1883.8</ele>
        <time>2024-08-10T09:06:31Z</time>
      </trkpt>
      <trkpt lat="45.05357" lon="6.2792">
        <ele>1883.8</ele>
        <time>2024-08-10T09:06:32Z</time>
      </trkpt>
      <trkpt lat="45.05359" lon="6.27919">
        <ele>1883.4</ele>
        <time>2024-08-10T09:06:33Z</time>
      </trkpt>
      <trkpt lat="45.05359" lon="6.27919">
        <ele>1883.4</ele>
        <time>2024-08-10T09:06:34Z</time>
      </trkpt>
      <trkpt lat="45.05361" lon="6.27918">
        <ele>1883.4</ele>
        <time>2024-08-10T09:06:35Z</time>
      </trkpt>
      <trkpt lat="45.05361" lon="6.27918">
        <ele>1883.2</ele>
        <time>2024-08-10T09:06:36Z</time>
      </trkpt>
      <trkpt lat="45.05363" lon="6.27917">
        <ele>1883</ele>
        <time>2024-08-10T09:06:37Z</time>
      </trkpt>
      <trkpt lat="45.05363" lon="6.27917">
        <ele>1882.8</ele>
        <time>2024-08-10T09:06:38Z</time>
      </trkpt>
      <trkpt lat="45.05365" lon="6.27915">
        <ele>1882.8</ele>
        <time>2024-08-10T09:06:39Z</time>
      </trkpt>
      <trkpt lat="45.05365" lon="6.27915">
        <ele>1882.8</ele>
        <time>2024-08-10T09:06:40Z</time>
      </trkpt>
      <trkpt lat="45.05366" lon="6.27912">
        <ele>1882.8</ele>
        <time>2024-08-10T09:06:41Z</time>
      </trkpt>
      <trkpt lat="45.05366" lon="6.27912">
        <ele>1882.8</ele>
        <time>2024-08-10T09:06:42Z</time>
      </trkpt>
      <trkpt lat="45.05367" lon="6.27908">
        <ele>1882.6</ele>
        <time>2024-08-10T09:06:43Z</time>
      </trkpt>
      <trkpt lat="45.05367" lon="6.27908">
        <ele>1882.4</ele>
        <time>2024-08-10T09:06:44Z</time>
      </trkpt>
      <trkpt lat="45.05368" lon="6.27905">
        <ele>1882.4</ele>
        <time>2024-08-10T09:06:45Z</time>
      </trkpt>
      <trkpt lat="45.05368" lon="6.27905">
        <ele>1882.2</ele>
        <time>2024-08-10T09:06:46Z</time>
      </trkpt>
      <trkpt lat="45.0537" lon="6.27902">
        <ele>1881.8</ele>
        <time>2024-08-10T09:06:47Z</time>
      </trkpt>
      <trkpt lat="45.0537" lon="6.27902">
        <ele>1881.6</ele>
        <time>2024-08-10T09:06:48Z</time>
      </trkpt>
      <trkpt lat="45.05372" lon="6.27899">
        <ele>1881.6</ele>
        <time>2024-08-10T09:06:49Z</time>
      </trkpt>
      <trkpt lat="45.05372" lon="6.27899">
        <ele>1881.6</ele>
        <time>2024-08-10T09:06:50Z</time>
      </trkpt>
      <trkpt lat="45.05373" lon="6.27896">
        <ele>1881.4</ele>
        <time>2024-08-10T09:06:51Z</time>
      </trkpt>
      <trkpt lat="45.05373" lon="6.27896">
        <ele>1881.2</ele>
        <time>2024-08-10T09:06:52Z</time>
      </trkpt>
      <trkpt lat="45.05374" lon="6.27893">
        <ele>1880.8</ele>
        <time>2024-08-10T09:06:53Z</time>
      </trkpt>
      <trkpt lat="45.05374" lon="6.27893">
        <ele>1880.8</ele>
        <time>2024-08-10T09:06:54Z</time>
      </trkpt>
      <trkpt lat="45.05375" lon="6.2789">
        <ele>1880.8</ele>
        <time>2024-08-10T09:06:55Z</time>
      </trkpt>
      <trkpt lat="45.05375" lon="6.2789">
        <ele>1880.6</ele>
        <time>2024-08-10T09:06:56Z</time>
      </trkpt>
      <trkpt lat="45.05376" lon="6.27887">
        <ele>1880.6</ele>
        <time>2024-08-10T09:06:57Z</time>
      </trkpt>
      <trkpt lat="45.05376" lon="6.27887">
        <ele>1880.4</ele>
        <time>2024-08-10T09:06:58Z</time>
      </trkpt>
      <trkpt lat="45.05377" lon="6.27884">
        <ele>1880.2</ele>
        <time>2024-08-10T09:06:59Z</time>
      </trkpt>
      <trkpt lat="45.05377" lon="6.27884">
        <ele>1880</ele>
        <time>2024-08-10T09:07:00Z</time>
      </trkpt>
      <trkpt lat="45.05378" lon="6.27881">
        <ele>1879.8</ele>
        <time>2024-08-10T09:07:01Z</time>
      </trkpt>
      <trkpt lat="45.05378" lon="6.27881">
        <ele>1879.8</ele>
        <time>2024-08-10T09:07:02Z</time>
      </trkpt>
      <trkpt lat="45.0538" lon="6.27878">
        <ele>1879.4</ele>
        <time>2024-08-10T09:07:03Z</time>
      </trkpt>
      <trkpt lat="45.0538" lon="6.27878">
        <ele>1879.4</ele>
        <time>2024-08-10T09:07:04Z</time>
      </trkpt>
      <trkpt lat="45.0538" lon="6.27878">
        <ele>1879.2</ele>
        <time>2024-08-10T09:07:05Z</time>
      </trkpt>
      <trkpt lat="45.0538" lon="6.27878">
        <ele>1879</ele>
        <time>2024-08-10T09:07:06Z</time>
      </trkpt>
      <trkpt lat="45.05382" lon="6.27877">
        <ele>1879</ele>
        <time>2024-08-10T09:07:07Z</time>
      </trkpt>
      <trkpt lat="45.05382" lon="6.27877">
        <ele>1878.8</ele>
        <time>2024-08-10T09:07:08Z</time>
      </trkpt>
      <trkpt lat="45.05382" lon="6.27877">
        <ele>1878.8</ele>
        <time>2024-08-10T09:07:09Z</time>
      </trkpt>
      <trkpt lat="45.05383" lon="6.27873">
        <ele>1878.8</ele>
        <time>2024-08-10T09:07:10Z</time>
      </trkpt>
      <trkpt lat="45.05383" lon="6.27873">
        <ele>1878.8</ele>
        <time>2024-08-10T09:07:11Z</time>
      </trkpt>
      <trkpt lat="45.05385" lon="6.27871">
        <ele>1878.6</ele>
        <time>2024-08-10T09:07:12Z</time>
      </trkpt>
      <trkpt lat="45.05385" lon="6.27871">
        <ele>1878.6</ele>
        <time>2024-08-10T09:07:13Z</time>
      </trkpt>
      <trkpt lat="45.05385" lon="6.27871">
        <ele>1878.6</ele>
        <time>2024-08-10T09:07:14Z</time>
      </trkpt>
      <trkpt lat="45.05387" lon="6.27868">
        <ele>1878.4</ele>
        <time>2024-08-10T09:07:15Z</time>
      </trkpt>
      <trkpt lat="45.05387" lon="6.27868">
        <ele>1878.4</ele>
        <time>2024-08-10T09:07:16Z</time>
      </trkpt>
      <trkpt lat="45.05389" lon="6.27865">
        <ele>1878.4</ele>
        <time>2024-08-10T09:07:17Z</time>
      </trkpt>
      <trkpt lat="45.05389" lon="6.27865">
        <ele>1878.2</ele>
        <time>2024-08-10T09:07:18Z</time>
      </trkpt>
      <trkpt lat="45.0539" lon="6.27862">
        <ele>1878.2</ele>
        <time>2024-08-10T09:07:19Z</time>
      </trkpt>
      <trkpt lat="45.0539" lon="6.27862">
        <ele>1878.2</ele>
        <time>2024-08-10T09:07:20Z</time>
      </trkpt>
      <trkpt lat="45.05392" lon="6.27859">
        <ele>1877.8</ele>
        <time>2024-08-10T09:07:21Z</time>
      </trkpt>
      <trkpt lat="45.05392" lon="6.27859">
        <ele>1877.6</ele>
        <time>2024-08-10T09:07:22Z</time>
      </trkpt>
      <trkpt lat="45.05393" lon="6.27856">
        <ele>1877.6</ele>
        <time>2024-08-10T09:07:23Z</time>
      </trkpt>
      <trkpt lat="45.05393" lon="6.27856">
        <ele>1877.6</ele>
        <time>2024-08-10T09:07:24Z</time>
      </trkpt>
      <trkpt lat="45.05393" lon="6.27853">
        <ele>1877.4</ele>
        <time>2024-08-10T09:07:25Z</time>
      </trkpt>
      <trkpt lat="45.05393" lon="6.27853">
        <ele>1877.4</ele>
        <time>2024-08-10T09:07:26Z</time>
      </trkpt>
      <trkpt lat="45.05395" lon="6.27851">
        <ele>1877.4</ele>
        <time>2024-08-10T09:07:27Z</time>
      </trkpt>
      <trkpt lat="45.05395" lon="6.27851">
        <ele>1877.4</ele>
        <time>2024-08-10T09:07:28Z</time>
      </trkpt>
      <trkpt lat="45.05396" lon="6.27847">
        <ele>1877.2</ele>
        <time>2024-08-10T09:07:29Z</time>
      </trkpt>
      <trkpt lat="45.05396" lon="6.27847">
        <ele>1876.8</ele>
        <time>2024-08-10T09:07:30Z</time>
      </trkpt>
      <trkpt lat="45.05397" lon="6.27844">
        <ele>1876.6</ele>
        <time>2024-08-10T09:07:31Z</time>
      </trkpt>
      <trkpt lat="45.05397" lon="6.27844">
        <ele>1876.4</ele>
        <time>2024-08-10T09:07:32Z</time>
      </trkpt>
      <trkpt lat="45.05398" lon="6.27842">
        <ele>1876.4</ele>
        <time>2024-08-10T09:07:33Z</time>
      </trkpt>
      <trkpt lat="45.05398" lon="6.27842">
        <ele>1876.4</ele>
        <time>2024-08-10T09:07:34Z</time>
      </trkpt>
      <trkpt lat="45.054" lon="6.2784">
        <ele>1875.8</ele>
        <time>2024-08-10T09:07:35Z</time>
      </trkpt>
      <trkpt lat="45.054" lon="6.2784">
        <ele>1875.8</ele>
        <time>2024-08-10T09:07:36Z</time>
      </trkpt>
      <trkpt lat="45.05402" lon="6.27837">
        <ele>1875.8</ele>
        <time>2024-08-10T09:07:37Z</time>
      </trkpt>
      <trkpt lat="45.05402" lon="6.27837">
        <ele>1875.6</ele>
        <time>2024-08-10T09:07:38Z</time>
      </trkpt>
      <trkpt lat="45.05404" lon="6.27834">
        <ele>1875.6</ele>
        <time>2024-08-10T09:07:39Z</time>
      </trkpt>
      <trkpt lat="45.05405" lon="6.27832">
        <ele>1875.4</ele>
        <time>2024-08-10T09:07:40Z</time>
      </trkpt>
      <trkpt lat="45.05405" lon="6.27832">
        <ele>1875.4</ele>
        <time>2024-08-10T09:07:41Z</time>
      </trkpt>
      <trkpt lat="45.05406" lon="6.27829">
        <ele>1875.2</ele>
        <time>2024-08-10T09:07:42Z</time>
      </trkpt>
      <trkpt lat="45.05406" lon="6.27829">
        <ele>1875</ele>
        <time>2024-08-10T09:07:43Z</time>
      </trkpt>
      <trkpt lat="45.05407" lon="6.27827">
        <ele>1875</ele>
        <time>2024-08-10T09:07:44Z</time>
      </trkpt>
      <trkpt lat="45.05407" lon="6.27827">
        <ele>1875</ele>
        <time>2024-08-10T09:07:45Z</time>
      </trkpt>
      <trkpt lat="45.0541" lon="6.27828">
        <ele>1875</ele>
        <time>2024-08-10T09:07:46Z</time>
      </trkpt>
      <trkpt lat="45.0541" lon="6.27828">
        <ele>1874.6</ele>
        <time>2024-08-10T09:07:47Z</time>
      </trkpt>
      <trkpt lat="45.0541" lon="6.27828">
        <ele>1874</ele>
        <time>2024-08-10T09:07:48Z</time>
      </trkpt>
      <trkpt lat="45.0541" lon="6.27831">
        <ele>1874</ele>
        <time>2024-08-10T09:07:49Z</time>
      </trkpt>
      <trkpt lat="45.0541" lon="6.27831">
        <ele>1873.8</ele>
        <time>2024-08-10T09:07:50Z</time>
      </trkpt>
      <trkpt lat="45.0541" lon="6.27834">
        <ele>1873.6</ele>
        <time>2024-08-10T09:07:51Z</time>
      </trkpt>
      <trkpt lat="45.0541" lon="6.27834">
        <ele>1873.2</ele>
        <time>2024-08-10T09:07:52Z</time>
      </trkpt>
      <trkpt lat="45.05409" lon="6.27837">
        <ele>1872.8</ele>
        <time>2024-08-10T09:07:53Z</time>
      </trkpt>
      <trkpt lat="45.05409" lon="6.27837">
        <ele>1872.6</ele>
        <time>2024-08-10T09:07:54Z</time>
      </trkpt>
      <trkpt lat="45.0541" lon="6.27841">
        <ele>1872.6</ele>
        <time>2024-08-10T09:07:55Z</time>
      </trkpt>
      <trkpt lat="45.0541" lon="6.27841">
        <ele>1872.2</ele>
        <time>2024-08-10T09:07:56Z</time>
      </trkpt>
      <trkpt lat="45.0541" lon="6.27844">
        <ele>1872.2</ele>
        <time>2024-08-10T09:07:57Z</time>
      </trkpt>
      <trkpt lat="45.0541" lon="6.27844">
        <ele>1872.2</ele>
        <time>2024-08-10T09:07:58Z</time>
      </trkpt>
      <trkpt lat="45.0541" lon="6.27844">
        <ele>1872.2</ele>
        <time>2024-08-10T09:07:59Z</time>
      </trkpt>
      <trkpt lat="45.0541" lon="6.27847">
        <ele>1871.6</ele>
        <time>2024-08-10T09:08:00Z</time>
      </trkpt>
      <trkpt lat="45.0541" lon="6.27847">
        <ele>1871.2</ele>
        <time>2024-08-10T09:08:01Z</time>
      </trkpt>
      <trkpt lat="45.0541" lon="6.27847">
        <ele>1871.2</ele>
        <time>2024-08-10T09:08:02Z</time>
      </trkpt>
      <trkpt lat="45.0541" lon="6.2785">
        <ele>1871</ele>
        <time>2024-08-10T09:08:03Z</time>
      </trkpt>
      <trkpt lat="45.0541" lon="6.2785">
        <ele>1871</ele>
        <time>2024-08-10T09:08:04Z</time>
      </trkpt>
      <trkpt lat="45.05411" lon="6.27852">
        <ele>1870.6</ele>
        <time>2024-08-10T09:08:05Z</time>
      </trkpt>
      <trkpt lat="45.05411" lon="6.27852">
        <ele>1870.4</ele>
        <time>2024-08-10T09:08:06Z</time>
      </trkpt>
      <trkpt lat="45.05413" lon="6.27854">
        <ele>1870.2</ele>
        <time>2024-08-10T09:08:07Z</time>
      </trkpt>
      <trkpt lat="45.05413" lon="6.27854">
        <ele>1870</ele>
        <time>2024-08-10T09:08:08Z</time>
      </trkpt>
      <trkpt lat="45.05413" lon="6.27858">
        <ele>1869.6</ele>
        <time>2024-08-10T09:08:09Z</time>
      </trkpt>
      <trkpt lat="45.05413" lon="6.27858">
        <ele>1869.2</ele>
        <time>2024-08-10T09:08:10Z</time>
      </trkpt>
      <trkpt lat="45.05414" lon="6.27861">
        <ele>1868.8</ele>
        <time>2024-08-10T09:08:11Z</time>
      </trkpt>
      <trkpt lat="45.05414" lon="6.27861">
        <ele>1868.8</ele>
        <time>2024-08-10T09:08:12Z</time>
      </trkpt>
      <trkpt lat="45.05415" lon="6.27863">
        <ele>1868.6</ele>
        <time>2024-08-10T09:08:13Z</time>
      </trkpt>
      <trkpt lat="45.05415" lon="6.27863">
        <ele>1868.2</ele>
        <time>2024-08-10T09:08:14Z</time>
      </trkpt>
      <trkpt lat="45.05415" lon="6.27866">
        <ele>1867.8</ele>
        <time>2024-08-10T09:08:15Z</time>
      </trkpt>
      <trkpt lat="45.05415" lon="6.27866">
        <ele>1867.6</ele>
        <time>2024-08-10T09:08:16Z</time>
      </trkpt>
      <trkpt lat="45.05416" lon="6.27869">
        <ele>1867.6</ele>
        <time>2024-08-10T09:08:17Z</time>
      </trkpt>
      <trkpt lat="45.05416" lon="6.27869">
        <ele>1867.6</ele>
        <time>2024-08-10T09:08:18Z</time>
      </trkpt>
      <trkpt lat="45.05416" lon="6.27872">
        <ele>1867.4</ele>
        <time>2024-08-10T09:08:19Z</time>
      </trkpt>
      <trkpt lat="45.05416" lon="6.27872">
        <ele>1867.4</ele>
        <time>2024-08-10T09:08:20Z</time>
      </trkpt>
      <trkpt lat="45.05416" lon="6.27875">
        <ele>1867.4</ele>
        <time>2024-08-10T09:08:21Z</time>
      </trkpt>
      <trkpt lat="45.05416" lon="6.27875">
        <ele>1867</ele>
        <time>2024-08-10T09:08:22Z</time>
      </trkpt>
      <trkpt lat="45.05415" lon="6.27878">
        <ele>1866.6</ele>
        <time>2024-08-10T09:08:23Z</time>
      </trkpt>
      <trkpt lat="45.05415" lon="6.27878">
        <ele>1866.4</ele>
        <time>2024-08-10T09:08:24Z</time>
      </trkpt>
      <trkpt lat="45.05415" lon="6.27881">
        <ele>1866</ele>
        <time>2024-08-10T09:08:25Z</time>
      </trkpt>
      <trkpt lat="45.05415" lon="6.27881">
        <ele>1866</ele>
        <time>2024-08-10T09:08:26Z</time>
      </trkpt>
      <trkpt lat="45.05414" lon="6.27884">
        <ele>1865.8</ele>
        <time>2024-08-10T09:08:27Z</time>
      </trkpt>
      <trkpt lat="45.05414" lon="6.27884">
        <ele>1865.6</ele>
        <time>2024-08-10T09:08:28Z</time>
      </trkpt>
      <trkpt lat="45.05413" lon="6.27888">
        <ele>1865.6</ele>
        <time>2024-08-10T09:08:29Z</time>
      </trkpt>
      <trkpt lat="45.05413" lon="6.27888">
        <ele>1865.4</ele>
        <time>2024-08-10T09:08:30Z</time>
      </trkpt>
      <trkpt lat="45.05413" lon="6.27892">
        <ele>1865</ele>
        <time>2024-08-10T09:08:31Z</time>
      </trkpt>
      <trkpt lat="45.05413" lon="6.27892">
        <ele>1864.4</ele>
        <time>2024-08-10T09:08:32Z</time>
      </trkpt>
      <trkpt lat="45.05414" lon="6.27896">
        <ele>1864.4</ele>
        <time>2024-08-10T09:08:33Z</time>
      </trkpt>
      <trkpt lat="45.05414" lon="6.27896">
        <ele>1864.4</ele>
        <time>2024-08-10T09:08:34Z</time>
      </trkpt>
      <trkpt lat="45.05414" lon="6.27899">
        <ele>1864</ele>
        <time>2024-08-10T09:08:35Z</time>
      </trkpt>
      <trkpt lat="45.05414" lon="6.27899">
        <ele>1863.6</ele>
        <time>2024-08-10T09:08:36Z</time>
      </trkpt>
      <trkpt lat="45.05414" lon="6.27903">
        <ele>1863.4</ele>
        <time>2024-08-10T09:08:37Z</time>
      </trkpt>
      <trkpt lat="45.05414" lon="6.27903">
        <ele>1863.4</ele>
        <time>2024-08-10T09:08:38Z</time>
      </trkpt>
      <trkpt lat="45.05414" lon="6.27906">
        <ele>1863.4</ele>
        <time>2024-08-10T09:08:39Z</time>
      </trkpt>
      <trkpt lat="45.05414" lon="6.27906">
        <ele>1863.4</ele>
        <time>2024-08-10T09:08:40Z</time>
      </trkpt>
      <trkpt lat="45.05413" lon="6.2791">
        <ele>1863</ele>
        <time>2024-08-10T09:08:41Z</time>
      </trkpt>
      <trkpt lat="45.05413" lon="6.2791">
        <ele>1863</ele>
        <time>2024-08-10T09:08:42Z</time>
      </trkpt>
      <trkpt lat="45.05413" lon="6.27913">
        <ele>1862.6</ele>
        <time>2024-08-10T09:08:43Z</time>
      </trkpt>
      <trkpt lat="45.05413" lon="6.27913">
        <ele>1862.4</ele>
        <time>2024-08-10T09:08:44Z</time>
      </trkpt>
      <trkpt lat="45.05413" lon="6.27916">
        <ele>1862.2</ele>
        <time>2024-08-10T09:08:45Z</time>
      </trkpt>
      <trkpt lat="45.05413" lon="6.27916">
        <ele>1861.8</ele>
        <time>2024-08-10T09:08:46Z</time>
      </trkpt>
      <trkpt lat="45.05413" lon="6.27919">
        <ele>1861.6</ele>
        <time>2024-08-10T09:08:47Z</time>
      </trkpt>
      <trkpt lat="45.05413" lon="6.27919">
        <ele>1861.4</ele>
        <time>2024-08-10T09:08:48Z</time>
      </trkpt>
      <trkpt lat="45.05414" lon="6.27923">
        <ele>1861.4</ele>
        <time>2024-08-10T09:08:49Z</time>
      </trkpt>
      <trkpt lat="45.05414" lon="6.27923">
        <ele>1861.2</ele>
        <time>2024-08-10T09:08:50Z</time>
      </trkpt>
      <trkpt lat="45.05414" lon="6.27926">
        <ele>1861</ele>
        <time>2024-08-10T09:08:51Z</time>
      </trkpt>
      <trkpt lat="45.05414" lon="6.27926">
        <ele>1860.8</ele>
        <time>2024-08-10T09:08:52Z</time>
      </trkpt>
      <trkpt lat="45.05414" lon="6.27929">
        <ele>1860.6</ele>
        <time>2024-08-10T09:08:53Z</time>
      </trkpt>
      <trkpt lat="45.05414" lon="6.27929">
        <ele>1860.6</ele>
        <time>2024-08-10T09:08:54Z</time>
      </trkpt>
      <trkpt lat="45.05414" lon="6.27931">
        <ele>1860.2</ele>
        <time>2024-08-10T09:08:55Z</time>
      </trkpt>
      <trkpt lat="45.05414" lon="6.27931">
        <ele>1859.8</ele>
        <time>2024-08-10T09:08:56Z</time>
      </trkpt>
      <trkpt lat="45.05415" lon="6.27935">
        <ele>1859.6</ele>
        <time>2024-08-10T09:08:57Z</time>
      </trkpt>
      <trkpt lat="45.05415" lon="6.27935">
        <ele>1859.4</ele>
        <time>2024-08-10T09:08:58Z</time>
      </trkpt>
      <trkpt lat="45.05415" lon="6.27938">
        <ele>1859.2</ele>
        <time>2024-08-10T09:08:59Z</time>
      </trkpt>
      <trkpt lat="45.05415" lon="6.27938">
        <ele>1859</ele>
        <time>2024-08-10T09:09:00Z</time>
      </trkpt>
      <trkpt lat="45.05415" lon="6.27938">
        <ele>1858.6</ele>
        <time>2024-08-10T09:09:01Z</time>
      </trkpt>
      <trkpt lat="45.05415" lon="6.27938">
        <ele>1858.6</ele>
        <time>2024-08-10T09:09:02Z</time>
      </trkpt>
      <trkpt lat="45.05418" lon="6.2794">
        <ele>1858.2</ele>
        <time>2024-08-10T09:09:03Z</time>
      </trkpt>
      <trkpt lat="45.05418" lon="6.2794">
        <ele>1858.2</ele>
        <time>2024-08-10T09:09:04Z</time>
      </trkpt>
      <trkpt lat="45.0542" lon="6.27937">
        <ele>1858.2</ele>
        <time>2024-08-10T09:09:05Z</time>
      </trkpt>
      <trkpt lat="45.0542" lon="6.27937">
        <ele>1857.8</ele>
        <time>2024-08-10T09:09:06Z</time>
      </trkpt>
      <trkpt lat="45.05422" lon="6.27934">
        <ele>1857.4</ele>
        <time>2024-08-10T09:09:07Z</time>
      </trkpt>
      <trkpt lat="45.05422" lon="6.27934">
        <ele>1857.2</ele>
        <time>2024-08-10T09:09:08Z</time>
      </trkpt>
      <trkpt lat="45.05423" lon="6.27931">
        <ele>1857</ele>
        <time>2024-08-10T09:09:09Z</time>
      </trkpt>
      <trkpt lat="45.05423" lon="6.27931">
        <ele>1856.8</ele>
        <time>2024-08-10T09:09:10Z</time>
      </trkpt>
      <trkpt lat="45.05423" lon="6.27928">
        <ele>1856.4</ele>
        <time>2024-08-10T09:09:11Z</time>
      </trkpt>
      <trkpt lat="45.05423" lon="6.27928">
        <ele>1856.4</ele>
        <time>2024-08-10T09:09:12Z</time>
      </trkpt>
      <trkpt lat="45.05423" lon="6.27928">
        <ele>1856.2</ele>
        <time>2024-08-10T09:09:13Z</time>
      </trkpt>
      <trkpt lat="45.05425" lon="6.27925">
        <ele>1856</ele>
        <time>2024-08-10T09:09:14Z</time>
      </trkpt>
      <trkpt lat="45.05425" lon="6.27925">
        <ele>1856</ele>
        <time>2024-08-10T09:09:15Z</time>
      </trkpt>
      <trkpt lat="45.05425" lon="6.27925">
        <ele>1855.8</ele>
        <time>2024-08-10T09:09:16Z</time>
      </trkpt>
      <trkpt lat="45.05427" lon="6.27924">
        <ele>1855.6</ele>
        <time>2024-08-10T09:09:17Z</time>
      </trkpt>
      <trkpt lat="45.05427" lon="6.27924">
        <ele>1855.6</ele>
        <time>2024-08-10T09:09:18Z</time>
      </trkpt>
      <trkpt lat="45.05429" lon="6.27922">
        <ele>1855.4</ele>
        <time>2024-08-10T09:09:19Z</time>
      </trkpt>
      <trkpt lat="45.05429" lon="6.27922">
        <ele>1855.2</ele>
        <time>2024-08-10T09:09:20Z</time>
      </trkpt>
      <trkpt lat="45.05429" lon="6.27922">
        <ele>1855</ele>
        <time>2024-08-10T09:09:21Z</time>
      </trkpt>
      <trkpt lat="45.05431" lon="6.27923">
        <ele>1854.6</ele>
        <time>2024-08-10T09:09:22Z</time>
      </trkpt>
      <trkpt lat="45.05431" lon="6.27923">
        <ele>1854.6</ele>
        <time>2024-08-10T09:09:23Z</time>
      </trkpt>
      <trkpt lat="45.05433" lon="6.27924">
        <ele>1854</ele>
        <time>2024-08-10T09:09:24Z</time>
      </trkpt>
      <trkpt lat="45.05433" lon="6.27924">
        <ele>1853.6</ele>
        <time>2024-08-10T09:09:25Z</time>
      </trkpt>
      <trkpt lat="45.05435" lon="6.27926">
        <ele>1853.4</ele>
        <time>2024-08-10T09:09:26Z</time>
      </trkpt>
      <trkpt lat="45.05435" lon="6.27926">
        <ele>1853</ele>
        <time>2024-08-10T09:09:27Z</time>
      </trkpt>
      <trkpt lat="45.05435" lon="6.27929">
        <ele>1852.8</ele>
        <time>2024-08-10T09:09:28Z</time>
      </trkpt>
      <trkpt lat="45.05435" lon="6.27929">
        <ele>1852.6</ele>
        <time>2024-08-10T09:09:29Z</time>
      </trkpt>
      <trkpt lat="45.05435" lon="6.27929">
        <ele>1852.2</ele>
        <time>2024-08-10T09:09:30Z</time>
      </trkpt>
      <trkpt lat="45.05437" lon="6.27932">
        <ele>1852</ele>
        <time>2024-08-10T09:09:31Z</time>
      </trkpt>
      <trkpt lat="45.05437" lon="6.27932">
        <ele>1851.4</ele>
        <time>2024-08-10T09:09:32Z</time>
      </trkpt>
      <trkpt lat="45.05437" lon="6.27932">
        <ele>1851.2</ele>
        <time>2024-08-10T09:09:33Z</time>
      </trkpt>
      <trkpt lat="45.05437" lon="6.27932">
        <ele>1851.2</ele>
        <time>2024-08-10T09:09:34Z</time>
      </trkpt>
      <trkpt lat="45.05439" lon="6.27933">
        <ele>1850.6</ele>
        <time>2024-08-10T09:09:35Z</time>
      </trkpt>
      <trkpt lat="45.05439" lon="6.27933">
        <ele>1850</ele>
        <time>2024-08-10T09:09:36Z</time>
      </trkpt>
      <trkpt lat="45.0544" lon="6.27936">
        <ele>1849.8</ele>
        <time>2024-08-10T09:09:37Z</time>
      </trkpt>
      <trkpt lat="45.0544" lon="6.27936">
        <ele>1849.4</ele>
        <time>2024-08-10T09:09:38Z</time>
      </trkpt>
      <trkpt lat="45.05439" lon="6.27939">
        <ele>1849.2</ele>
        <time>2024-08-10T09:09:39Z</time>
      </trkpt>
      <trkpt lat="45.05439" lon="6.27939">
        <ele>1849</ele>
        <time>2024-08-10T09:09:40Z</time>
      </trkpt>
      <trkpt lat="45.05438" lon="6.27942">
        <ele>1848.6</ele>
        <time>2024-08-10T09:09:41Z</time>
      </trkpt>
      <trkpt lat="45.05438" lon="6.27942">
        <ele>1848.2</ele>
        <time>2024-08-10T09:09:42Z</time>
      </trkpt>
      <trkpt lat="45.05436" lon="6.27945">
        <ele>1847.8</ele>
        <time>2024-08-10T09:09:43Z</time>
      </trkpt>
      <trkpt lat="45.05436" lon="6.27945">
        <ele>1847.6</ele>
        <time>2024-08-10T09:09:44Z</time>
      </trkpt>
      <trkpt lat="45.05436" lon="6.27948">
        <ele>1847.2</ele>
        <time>2024-08-10T09:09:45Z</time>
      </trkpt>
      <trkpt lat="45.05436" lon="6.27948">
        <ele>1846.8</ele>
        <time>2024-08-10T09:09:46Z</time>
      </trkpt>
      <trkpt lat="45.05435" lon="6.27951">
        <ele>1846.4</ele>
        <time>2024-08-10T09:09:47Z</time>
      </trkpt>
      <trkpt lat="45.05435" lon="6.27951">
        <ele>1846.4</ele>
        <time>2024-08-10T09:09:48Z</time>
      </trkpt>
      <trkpt lat="45.05433" lon="6.27954">
        <ele>1846.2</ele>
        <time>2024-08-10T09:09:49Z</time>
      </trkpt>
      <trkpt lat="45.05433" lon="6.27954">
        <ele>1846.2</ele>
        <time>2024-08-10T09:09:50Z</time>
      </trkpt>
      <trkpt lat="45.0543" lon="6.27956">
        <ele>1846.2</ele>
        <time>2024-08-10T09:09:51Z</time>
      </trkpt>
      <trkpt lat="45.0543" lon="6.27956">
        <ele>1846</ele>
        <time>2024-08-10T09:09:52Z</time>
      </trkpt>
      <trkpt lat="45.05428" lon="6.27958">
        <ele>1845.8</ele>
        <time>2024-08-10T09:09:53Z</time>
      </trkpt>
      <trkpt lat="45.05428" lon="6.27958">
        <ele>1845.2</ele>
        <time>2024-08-10T09:09:54Z</time>
      </trkpt>
      <trkpt lat="45.05427" lon="6.27961">
        <ele>1844.8</ele>
        <time>2024-08-10T09:09:55Z</time>
      </trkpt>
      <trkpt lat="45.05427" lon="6.27961">
        <ele>1844.8</ele>
        <time>2024-08-10T09:09:56Z</time>
      </trkpt>
      <trkpt lat="45.05425" lon="6.27964">
        <ele>1844</ele>
        <time>2024-08-10T09:09:57Z</time>
      </trkpt>
      <trkpt lat="45.05425" lon="6.27964">
        <ele>1843.2</ele>
        <time>2024-08-10T09:09:58Z</time>
      </trkpt>
      <trkpt lat="45.05423" lon="6.27966">
        <ele>1843.2</ele>
        <time>2024-08-10T09:09:59Z</time>
      </trkpt>
      <trkpt lat="45.05423" lon="6.27966">
        <ele>1842.8</ele>
        <time>2024-08-10T09:10:00Z</time>
      </trkpt>
      <trkpt lat="45.05421" lon="6.27969">
        <ele>1842.6</ele>
        <time>2024-08-10T09:10:01Z</time>
      </trkpt>
      <trkpt lat="45.05421" lon="6.27969">
        <ele>1842.4</ele>
        <time>2024-08-10T09:10:02Z</time>
      </trkpt>
      <trkpt lat="45.0542" lon="6.27972">
        <ele>1842</ele>
        <time>2024-08-10T09:10:03Z</time>
      </trkpt>
      <trkpt lat="45.0542" lon="6.27972">
        <ele>1842</ele>
        <time>2024-08-10T09:10:04Z</time>
      </trkpt>
      <trkpt lat="45.05419" lon="6.27975">
        <ele>1841.6</ele>
        <time>2024-08-10T09:10:05Z</time>
      </trkpt>
      <trkpt lat="45.05419" lon="6.27975">
        <ele>1841.6</ele>
        <time>2024-08-10T09:10:06Z</time>
      </trkpt>
      <trkpt lat="45.05417" lon="6.27978">
        <ele>1841.2</ele>
        <time>2024-08-10T09:10:07Z</time>
      </trkpt>
      <trkpt lat="45.05417" lon="6.27978">
        <ele>1841</ele>
        <time>2024-08-10T09:10:08Z</time>
      </trkpt>
      <trkpt lat="45.05415" lon="6.27981">
        <ele>1840.8</ele>
        <time>2024-08-10T09:10:09Z</time>
      </trkpt>
      <trkpt lat="45.05415" lon="6.27981">
        <ele>1840.4</ele>
        <time>2024-08-10T09:10:10Z</time>
      </trkpt>
      <trkpt lat="45.05414" lon="6.27984">
        <ele>1840.2</ele>
        <time>2024-08-10T09:10:11Z</time>
      </trkpt>
      <trkpt lat="45.05414" lon="6.27984">
        <ele>1840</ele>
        <time>2024-08-10T09:10:12Z</time>
      </trkpt>
      <trkpt lat="45.05412" lon="6.27987">
        <ele>1839.8</ele>
        <time>2024-08-10T09:10:13Z</time>
      </trkpt>
      <trkpt lat="45.05412" lon="6.27987">
        <ele>1839.4</ele>
        <time>2024-08-10T09:10:14Z</time>
      </trkpt>
      <trkpt lat="45.0541" lon="6.27989">
        <ele>1839.2</ele>
        <time>2024-08-10T09:10:15Z</time>
      </trkpt>
      <trkpt lat="45.0541" lon="6.27989">
        <ele>1839</ele>
        <time>2024-08-10T09:10:16Z</time>
      </trkpt>
      <trkpt lat="45.05408" lon="6.27992">
        <ele>1839</ele>
        <time>2024-08-10T09:10:17Z</time>
      </trkpt>
      <trkpt lat="45.05408" lon="6.27992">
        <ele>1839</ele>
        <time>2024-08-10T09:10:18Z</time>
      </trkpt>
      <trkpt lat="45.05407" lon="6.27995">
        <ele>1838.8</ele>
        <time>2024-08-10T09:10:19Z</time>
      </trkpt>
      <trkpt lat="45.05407" lon="6.27995">
        <ele>1838.4</ele>
        <time>2024-08-10T09:10:20Z</time>
      </trkpt>
      <trkpt lat="45.05405" lon="6.27998">
        <ele>1838.4</ele>
        <time>2024-08-10T09:10:21Z</time>
      </trkpt>
      <trkpt lat="45.05405" lon="6.27998">
        <ele>1838.4</ele>
        <time>2024-08-10T09:10:22Z</time>
      </trkpt>
      <trkpt lat="45.05404" lon="6.28">
        <ele>1838.2</ele>
        <time>2024-08-10T09:10:23Z</time>
      </trkpt>
      <trkpt lat="45.05404" lon="6.28">
        <ele>1837.6</ele>
        <time>2024-08-10T09:10:24Z</time>
      </trkpt>
      <trkpt lat="45.05402" lon="6.28003">
        <ele>1837.6</ele>
        <time>2024-08-10T09:10:25Z</time>
      </trkpt>
      <trkpt lat="45.05402" lon="6.28003">
        <ele>1837.4</ele>
        <time>2024-08-10T09:10:26Z</time>
      </trkpt>
      <trkpt lat="45.05401" lon="6.28007">
        <ele>1837.2</ele>
        <time>2024-08-10T09:10:27Z</time>
      </trkpt>
      <trkpt lat="45.05401" lon="6.28007">
        <ele>1837</ele>
        <time>2024-08-10T09:10:28Z</time>
      </trkpt>
      <trkpt lat="45.054" lon="6.28009">
        <ele>1836.8</ele>
        <time>2024-08-10T09:10:29Z</time>
      </trkpt>
      <trkpt lat="45.054" lon="6.28009">
        <ele>1836.4</ele>
        <time>2024-08-10T09:10:30Z</time>
      </trkpt>
      <trkpt lat="45.05398" lon="6.28012">
        <ele>1836</ele>
        <time>2024-08-10T09:10:31Z</time>
      </trkpt>
      <trkpt lat="45.05398" lon="6.28012">
        <ele>1835.4</ele>
        <time>2024-08-10T09:10:32Z</time>
      </trkpt>
      <trkpt lat="45.05397" lon="6.28015">
        <ele>1835.2</ele>
        <time>2024-08-10T09:10:33Z</time>
      </trkpt>
      <trkpt lat="45.05397" lon="6.28015">
        <ele>1835.2</ele>
        <time>2024-08-10T09:10:34Z</time>
      </trkpt>
      <trkpt lat="45.05396" lon="6.28019">
        <ele>1835</ele>
        <time>2024-08-10T09:10:35Z</time>
      </trkpt>
      <trkpt lat="45.05396" lon="6.28019">
        <ele>1834.4</ele>
        <time>2024-08-10T09:10:36Z</time>
      </trkpt>
      <trkpt lat="45.05394" lon="6.28021">
        <ele>1834</ele>
        <time>2024-08-10T09:10:37Z</time>
      </trkpt>
      <trkpt lat="45.05394" lon="6.28021">
        <ele>1833.6</ele>
        <time>2024-08-10T09:10:38Z</time>
      </trkpt>
      <trkpt lat="45.05394" lon="6.28025">
        <ele>1833.6</ele>
        <time>2024-08-10T09:10:39Z</time>
      </trkpt>
      <trkpt lat="45.05394" lon="6.28025">
        <ele>1833.4</ele>
        <time>2024-08-10T09:10:40Z</time>
      </trkpt>
      <trkpt lat="45.05393" lon="6.28028">
        <ele>1833.2</ele>
        <time>2024-08-10T09:10:41Z</time>
      </trkpt>
      <trkpt lat="45.05393" lon="6.28028">
        <ele>1833</ele>
        <time>2024-08-10T09:10:42Z</time>
      </trkpt>
      <trkpt lat="45.05391" lon="6.28031">
        <ele>1832.8</ele>
        <time>2024-08-10T09:10:43Z</time>
      </trkpt>
      <trkpt lat="45.05391" lon="6.28031">
        <ele>1832.6</ele>
        <time>2024-08-10T09:10:44Z</time>
      </trkpt>
      <trkpt lat="45.0539" lon="6.28034">
        <ele>1832.4</ele>
        <time>2024-08-10T09:10:45Z</time>
      </trkpt>
      <trkpt lat="45.0539" lon="6.28034">
        <ele>1832</ele>
        <time>2024-08-10T09:10:46Z</time>
      </trkpt>
      <trkpt lat="45.0539" lon="6.28034">
        <ele>1831.4</ele>
        <time>2024-08-10T09:10:47Z</time>
      </trkpt>
      <trkpt lat="45.0539" lon="6.28038">
        <ele>1831.2</ele>
        <time>2024-08-10T09:10:48Z</time>
      </trkpt>
      <trkpt lat="45.0539" lon="6.28038">
        <ele>1831.2</ele>
        <time>2024-08-10T09:10:49Z</time>
      </trkpt>
      <trkpt lat="45.0539" lon="6.28041">
        <ele>1831.2</ele>
        <time>2024-08-10T09:10:50Z</time>
      </trkpt>
      <trkpt lat="45.0539" lon="6.28041">
        <ele>1831.4</ele>
        <time>2024-08-10T09:10:51Z</time>
      </trkpt>
      <trkpt lat="45.0539" lon="6.28044">
        <ele>1831.4</ele>
        <time>2024-08-10T09:10:52Z</time>
      </trkpt>
      <trkpt lat="45.0539" lon="6.28044">
        <ele>1831</ele>
        <time>2024-08-10T09:10:53Z</time>
      </trkpt>
      <trkpt lat="45.0539" lon="6.28047">
        <ele>1830.8</ele>
        <time>2024-08-10T09:10:54Z</time>
      </trkpt>
      <trkpt lat="45.0539" lon="6.28047">
        <ele>1830.8</ele>
        <time>2024-08-10T09:10:55Z</time>
      </trkpt>
      <trkpt lat="45.0539" lon="6.2805">
        <ele>1830.8</ele>
        <time>2024-08-10T09:10:56Z</time>
      </trkpt>
      <trkpt lat="45.0539" lon="6.2805">
        <ele>1830.4</ele>
        <time>2024-08-10T09:10:57Z</time>
      </trkpt>
      <trkpt lat="45.0539" lon="6.2805">
        <ele>1830.2</ele>
        <time>2024-08-10T09:10:58Z</time>
      </trkpt>
      <trkpt lat="45.05393" lon="6.28051">
        <ele>1830</ele>
        <time>2024-08-10T09:10:59Z</time>
      </trkpt>
      <trkpt lat="45.05393" lon="6.28051">
        <ele>1829.8</ele>
        <time>2024-08-10T09:11:00Z</time>
      </trkpt>
      <trkpt lat="45.05395" lon="6.2805">
        <ele>1829.4</ele>
        <time>2024-08-10T09:11:01Z</time>
      </trkpt>
      <trkpt lat="45.05395" lon="6.2805">
        <ele>1829.2</ele>
        <time>2024-08-10T09:11:02Z</time>
      </trkpt>
      <trkpt lat="45.05397" lon="6.2805">
        <ele>1828.8</ele>
        <time>2024-08-10T09:11:03Z</time>
      </trkpt>
      <trkpt lat="45.05397" lon="6.2805">
        <ele>1828.6</ele>
        <time>2024-08-10T09:11:04Z</time>
      </trkpt>
      <trkpt lat="45.05397" lon="6.2805">
        <ele>1828.4</ele>
        <time>2024-08-10T09:11:05Z</time>
      </trkpt>
      <trkpt lat="45.05399" lon="6.28049">
        <ele>1828.2</ele>
        <time>2024-08-10T09:11:06Z</time>
      </trkpt>
      <trkpt lat="45.05399" lon="6.28049">
        <ele>1827.8</ele>
        <time>2024-08-10T09:11:07Z</time>
      </trkpt>
      <trkpt lat="45.05401" lon="6.28047">
        <ele>1827.6</ele>
        <time>2024-08-10T09:11:08Z</time>
      </trkpt>
      <trkpt lat="45.05401" lon="6.28047">
        <ele>1827.4</ele>
        <time>2024-08-10T09:11:09Z</time>
      </trkpt>
      <trkpt lat="45.05403" lon="6.28046">
        <ele>1827</ele>
        <time>2024-08-10T09:11:10Z</time>
      </trkpt>
      <trkpt lat="45.05403" lon="6.28046">
        <ele>1826.8</ele>
        <time>2024-08-10T09:11:11Z</time>
      </trkpt>
      <trkpt lat="45.05403" lon="6.28046">
        <ele>1826.6</ele>
        <time>2024-08-10T09:11:12Z</time>
      </trkpt>
      <trkpt lat="45.05405" lon="6.28045">
        <ele>1826.4</ele>
        <time>2024-08-10T09:11:13Z</time>
      </trkpt>
      <trkpt lat="45.05405" lon="6.28045">
        <ele>1826.2</ele>
        <time>2024-08-10T09:11:14Z</time>
      </trkpt>
      <trkpt lat="45.05407" lon="6.28045">
        <ele>1826</ele>
        <time>2024-08-10T09:11:15Z</time>
      </trkpt>
      <trkpt lat="45.05407" lon="6.28045">
        <ele>1825.6</ele>
        <time>2024-08-10T09:11:16Z</time>
      </trkpt>
      <trkpt lat="45.05409" lon="6.28046">
        <ele>1825.6</ele>
        <time>2024-08-10T09:11:17Z</time>
      </trkpt>
      <trkpt lat="45.05409" lon="6.28046">
        <ele>1825.4</ele>
        <time>2024-08-10T09:11:18Z</time>
      </trkpt>
      <trkpt lat="45.05409" lon="6.28046">
        <ele>1825</ele>
        <time>2024-08-10T09:11:19Z</time>
      </trkpt>
      <trkpt lat="45.05412" lon="6.28047">
        <ele>1824.8</ele>
        <time>2024-08-10T09:11:20Z</time>
      </trkpt>
      <trkpt lat="45.05412" lon="6.28047">
        <ele>1824.4</ele>
        <time>2024-08-10T09:11:21Z</time>
      </trkpt>
      <trkpt lat="45.05414" lon="6.28047">
        <ele>1824.4</ele>
        <time>2024-08-10T09:11:22Z</time>
      </trkpt>
      <trkpt lat="45.05414" lon="6.28047">
        <ele>1824.2</ele>
        <time>2024-08-10T09:11:23Z</time>
      </trkpt>
      <trkpt lat="45.05416" lon="6.28047">
        <ele>1824</ele>
        <time>2024-08-10T09:11:24Z</time>
      </trkpt>
      <trkpt lat="45.05416" lon="6.28047">
        <ele>1823.8</ele>
        <time>2024-08-10T09:11:25Z</time>
      </trkpt>
      <trkpt lat="45.05418" lon="6.28046">
        <ele>1823.4</ele>
        <time>2024-08-10T09:11:26Z</time>
      </trkpt>
      <trkpt lat="45.05418" lon="6.28046">
        <ele>1823</ele>
        <time>2024-08-10T09:11:27Z</time>
      </trkpt>
      <trkpt lat="45.05418" lon="6.28046">
        <ele>1822.8</ele>
        <time>2024-08-10T09:11:28Z</time>
      </trkpt>
      <trkpt lat="45.0542" lon="6.28044">
        <ele>1822.4</ele>
        <time>2024-08-10T09:11:29Z</time>
      </trkpt>
      <trkpt lat="45.0542" lon="6.28044">
        <ele>1822</ele>
        <time>2024-08-10T09:11:30Z</time>
      </trkpt>
      <trkpt lat="45.0542" lon="6.28044">
        <ele>1822</ele>
        <time>2024-08-10T09:11:31Z</time>
      </trkpt>
      <trkpt lat="45.0542" lon="6.28044">
        <ele>1822</ele>
        <time>2024-08-10T09:11:32Z</time>
      </trkpt>
      <trkpt lat="45.0542" lon="6.28044">
        <ele>1822</ele>
        <time>2024-08-10T09:11:33Z</time>
      </trkpt>
      <trkpt lat="45.0542" lon="6.28044">
        <ele>1822</ele>
        <time>2024-08-10T09:11:34Z</time>
      </trkpt>
      <trkpt lat="45.0542" lon="6.28044">
        <ele>1822</ele>
        <time>2024-08-10T09:11:35Z</time>
      </trkpt>
      <trkpt lat="45.0542" lon="6.28044">
        <ele>1821.8</ele>
        <time>2024-08-10T09:11:36Z</time>
      </trkpt>
      <trkpt lat="45.0542" lon="6.28044">
        <ele>1822</ele>
        <time>2024-08-10T09:11:37Z</time>
      </trkpt>
      <trkpt lat="45.0542" lon="6.28044">
        <ele>1821.8</ele>
        <time>2024-08-10T09:11:38Z</time>
      </trkpt>
      <trkpt lat="45.0542" lon="6.28044">
        <ele>1822</ele>
        <time>2024-08-10T09:11:39Z</time>
      </trkpt>
      <trkpt lat="45.0542" lon="6.28044">
        <ele>1822</ele>
        <time>2024-08-10T09:11:40Z</time>
      </trkpt>
      <trkpt lat="45.0542" lon="6.28044">
        <ele>1822.2</ele>
        <time>2024-08-10T09:11:41Z</time>
      </trkpt>
      <trkpt lat="45.0542" lon="6.28044">
        <ele>1822.2</ele>
        <time>2024-08-10T09:11:42Z</time>
      </trkpt>
      <trkpt lat="45.0542" lon="6.28044">
        <ele>1822.2</ele>
        <time>2024-08-10T09:11:43Z</time>
      </trkpt>
      <trkpt lat="45.0542" lon="6.28044">
        <ele>1822.4</ele>
        <time>2024-08-10T09:11:44Z</time>
      </trkpt>
      <trkpt lat="45.0542" lon="6.28044">
        <ele>1822.6</ele>
        <time>2024-08-10T09:11:45Z</time>
      </trkpt>
      <trkpt lat="45.0542" lon="6.28044">
        <ele>1822.6</ele>
        <time>2024-08-10T09:11:46Z</time>
      </trkpt>
      <trkpt lat="45.0542" lon="6.28044">
        <ele>1822.6</ele>
        <time>2024-08-10T09:11:47Z</time>
      </trkpt>
      <trkpt lat="45.0542" lon="6.28044">
        <ele>1823</ele>
        <time>2024-08-10T09:11:48Z</time>
      </trkpt>
      <trkpt lat="45.0542" lon="6.28044">
        <ele>1823</ele>
        <time>2024-08-10T09:11:49Z</time>
      </trkpt>
      <trkpt lat="45.0542" lon="6.28044">
        <ele>1822.8</ele>
        <time>2024-08-10T09:11:50Z</time>
      </trkpt>
      <trkpt lat="45.0542" lon="6.28044">
        <ele>1822.2</ele>
        <time>2024-08-10T09:11:51Z</time>
      </trkpt>
      <trkpt lat="45.0542" lon="6.28044">
        <ele>1822</ele>
        <time>2024-08-10T09:11:52Z</time>
      </trkpt>
      <trkpt lat="45.0542" lon="6.28044">
        <ele>1822</ele>
        <time>2024-08-10T09:11:53Z</time>
      </trkpt>
      <trkpt lat="45.0542" lon="6.28044">
        <ele>1822</ele>
        <time>2024-08-10T09:11:54Z</time>
      </trkpt>
      <trkpt lat="45.0542" lon="6.28044">
        <ele>1822</ele>
        <time>2024-08-10T09:11:55Z</time>
      </trkpt>
      <trkpt lat="45.0542" lon="6.28044">
        <ele>1822.2</ele>
        <time>2024-08-10T09:11:56Z</time>
      </trkpt>
      <trkpt lat="45.0542" lon="6.28044">
        <ele>1822.4</ele>
        <time>2024-08-10T09:11:57Z</time>
      </trkpt>
      <trkpt lat="45.0542" lon="6.28044">
        <ele>1822.4</ele>
        <time>2024-08-10T09:11:58Z</time>
      </trkpt>
      <trkpt lat="45.0542" lon="6.28044">
        <ele>1822</ele>
        <time>2024-08-10T09:11:59Z</time>
      </trkpt>
      <trkpt lat="45.0542" lon="6.28044">
        <ele>1822</ele>
        <time>2024-08-10T09:12:00Z</time>
      </trkpt>
      <trkpt lat="45.0542" lon="6.28044">
        <ele>1821.8</ele>
        <time>2024-08-10T09:12:01Z</time>
      </trkpt>
      <trkpt lat="45.0542" lon="6.28044">
        <ele>1821.8</ele>
        <time>2024-08-10T09:12:02Z</time>
      </trkpt>
      <trkpt lat="45.0542" lon="6.28044">
        <ele>1821.8</ele>
        <time>2024-08-10T09:12:03Z</time>
      </trkpt>
      <trkpt lat="45.0542" lon="6.28044">
        <ele>1821.8</ele>
        <time>2024-08-10T09:12:04Z</time>
      </trkpt>
      <trkpt lat="45.0542" lon="6.28044">
        <ele>1821.6</ele>
        <time>2024-08-10T09:12:05Z</time>
      </trkpt>
      <trkpt lat="45.0542" lon="6.28044">
        <ele>1821.6</ele>
        <time>2024-08-10T09:12:06Z</time>
      </trkpt>
      <trkpt lat="45.0542" lon="6.28044">
        <ele>1821.8</ele>
        <time>2024-08-10T09:12:07Z</time>
      </trkpt>
      <trkpt lat="45.0542" lon="6.28044">
        <ele>1821.8</ele>
        <time>2024-08-10T09:12:08Z</time>
      </trkpt>
      <trkpt lat="45.05422" lon="6.28042">
        <ele>1821.8</ele>
        <time>2024-08-10T09:12:09Z</time>
      </trkpt>
      <trkpt lat="45.05422" lon="6.28042">
        <ele>1821.6</ele>
        <time>2024-08-10T09:12:10Z</time>
      </trkpt>
      <trkpt lat="45.05425" lon="6.2804">
        <ele>1821.4</ele>
        <time>2024-08-10T09:12:11Z</time>
      </trkpt>
      <trkpt lat="45.05425" lon="6.2804">
        <ele>1821.2</ele>
        <time>2024-08-10T09:12:12Z</time>
      </trkpt>
      <trkpt lat="45.05427" lon="6.2804">
        <ele>1821.2</ele>
        <time>2024-08-10T09:12:13Z</time>
      </trkpt>
      <trkpt lat="45.05427" lon="6.2804">
        <ele>1820.6</ele>
        <time>2024-08-10T09:12:14Z</time>
      </trkpt>
      <trkpt lat="45.0543" lon="6.2804">
        <ele>1820.4</ele>
        <time>2024-08-10T09:12:15Z</time>
      </trkpt>
      <trkpt lat="45.0543" lon="6.2804">
        <ele>1819.8</ele>
        <time>2024-08-10T09:12:16Z</time>
      </trkpt>
      <trkpt lat="45.0543" lon="6.2804">
        <ele>1819.6</ele>
        <time>2024-08-10T09:12:17Z</time>
      </trkpt>
      <trkpt lat="45.05433" lon="6.28039">
        <ele>1819.4</ele>
        <time>2024-08-10T09:12:18Z</time>
      </trkpt>
      <trkpt lat="45.05433" lon="6.28039">
        <ele>1819.4</ele>
        <time>2024-08-10T09:12:19Z</time>
      </trkpt>
      <trkpt lat="45.05435" lon="6.28037">
        <ele>1819.4</ele>
        <time>2024-08-10T09:12:20Z</time>
      </trkpt>
      <trkpt lat="45.05435" lon="6.28037">
        <ele>1819.2</ele>
        <time>2024-08-10T09:12:21Z</time>
      </trkpt>
      <trkpt lat="45.05437" lon="6.28036">
        <ele>1818.8</ele>
        <time>2024-08-10T09:12:22Z</time>
      </trkpt>
      <trkpt lat="45.05437" lon="6.28036">
        <ele>1818.4</ele>
        <time>2024-08-10T09:12:23Z</time>
      </trkpt>
      <trkpt lat="45.05438" lon="6.28034">
        <ele>1818.4</ele>
        <time>2024-08-10T09:12:24Z</time>
      </trkpt>
      <trkpt lat="45.05438" lon="6.28034">
        <ele>1818.2</ele>
        <time>2024-08-10T09:12:25Z</time>
      </trkpt>
      <trkpt lat="45.0544" lon="6.28032">
        <ele>1817.8</ele>
        <time>2024-08-10T09:12:26Z</time>
      </trkpt>
      <trkpt lat="45.0544" lon="6.28032">
        <ele>1817.4</ele>
        <time>2024-08-10T09:12:27Z</time>
      </trkpt>
      <trkpt lat="45.05442" lon="6.28032">
        <ele>1817</ele>
        <time>2024-08-10T09:12:28Z</time>
      </trkpt>
      <trkpt lat="45.05442" lon="6.28032">
        <ele>1816.8</ele>
        <time>2024-08-10T09:12:29Z</time>
      </trkpt>
      <trkpt lat="45.05445" lon="6.28031">
        <ele>1816.4</ele>
        <time>2024-08-10T09:12:30Z</time>
      </trkpt>
      <trkpt lat="45.05445" lon="6.28031">
        <ele>1816.2</ele>
        <time>2024-08-10T09:12:31Z</time>
      </trkpt>
      <trkpt lat="45.05447" lon="6.28029">
        <ele>1816</ele>
        <time>2024-08-10T09:12:32Z</time>
      </trkpt>
      <trkpt lat="45.05447" lon="6.28029">
        <ele>1815.6</ele>
        <time>2024-08-10T09:12:33Z</time>
      </trkpt>
      <trkpt lat="45.05449" lon="6.28028">
        <ele>1815.6</ele>
        <time>2024-08-10T09:12:34Z</time>
      </trkpt>
      <trkpt lat="45.05449" lon="6.28028">
        <ele>1815.2</ele>
        <time>2024-08-10T09:12:35Z</time>
      </trkpt>
      <trkpt lat="45.05451" lon="6.28027">
        <ele>1814.6</ele>
        <time>2024-08-10T09:12:36Z</time>
      </trkpt>
      <trkpt lat="45.05451" lon="6.28027">
        <ele>1814.6</ele>
        <time>2024-08-10T09:12:37Z</time>
      </trkpt>
      <trkpt lat="45.05453" lon="6.28026">
        <ele>1814.4</ele>
        <time>2024-08-10T09:12:38Z</time>
      </trkpt>
      <trkpt lat="45.05453" lon="6.28026">
        <ele>1814</ele>
        <time>2024-08-10T09:12:39Z</time>
      </trkpt>
      <trkpt lat="45.05455" lon="6.28025">
        <ele>1814</ele>
        <time>2024-08-10T09:12:40Z</time>
      </trkpt>
      <trkpt lat="45.05455" lon="6.28025">
        <ele>1813.6</ele>
        <time>2024-08-10T09:12:41Z</time>
      </trkpt>
      <trkpt lat="45.05457" lon="6.28024">
        <ele>1813.4</ele>
        <time>2024-08-10T09:12:42Z</time>
      </trkpt>
      <trkpt lat="45.05457" lon="6.28024">
        <ele>1813</ele>
        <time>2024-08-10T09:12:43Z</time>
      </trkpt>
      <trkpt lat="45.05459" lon="6.28022">
        <ele>1812.8</ele>
        <time>2024-08-10T09:12:44Z</time>
      </trkpt>
      <trkpt lat="45.05459" lon="6.28022">
        <ele>1812.4</ele>
        <time>2024-08-10T09:12:45Z</time>
      </trkpt>
      <trkpt lat="45.05461" lon="6.28021">
        <ele>1812.4</ele>
        <time>2024-08-10T09:12:46Z</time>
      </trkpt>
      <trkpt lat="45.05461" lon="6.28021">
        <ele>1812</ele>
        <time>2024-08-10T09:12:47Z</time>
      </trkpt>
      <trkpt lat="45.05463" lon="6.28019">
        <ele>1811.6</ele>
        <time>2024-08-10T09:12:48Z</time>
      </trkpt>
      <trkpt lat="45.05463" lon="6.28019">
        <ele>1811.2</ele>
        <time>2024-08-10T09:12:49Z</time>
      </trkpt>
      <trkpt lat="45.05465" lon="6.28018">
        <ele>1811.2</ele>
        <time>2024-08-10T09:12:50Z</time>
      </trkpt>
      <trkpt lat="45.05465" lon="6.28018">
        <ele>1811</ele>
        <time>2024-08-10T09:12:51Z</time>
      </trkpt>
      <trkpt lat="45.05467" lon="6.28016">
        <ele>1811</ele>
        <time>2024-08-10T09:12:52Z</time>
      </trkpt>
      <trkpt lat="45.05467" lon="6.28016">
        <ele>1810.4</ele>
        <time>2024-08-10T09:12:53Z</time>
      </trkpt>
      <trkpt lat="45.05469" lon="6.28016">
        <ele>1810.4</ele>
        <time>2024-08-10T09:12:54Z</time>
      </trkpt>
      <trkpt lat="45.05469" lon="6.28016">
        <ele>1810.4</ele>
        <time>2024-08-10T09:12:55Z</time>
      </trkpt>
      <trkpt lat="45.05471" lon="6.28015">
        <ele>1809.8</ele>
        <time>2024-08-10T09:12:56Z</time>
      </trkpt>
      <trkpt lat="45.05471" lon="6.28015">
        <ele>1809.8</ele>
        <time>2024-08-10T09:12:57Z</time>
      </trkpt>
      <trkpt lat="45.05473" lon="6.28014">
        <ele>1809.4</ele>
        <time>2024-08-10T09:12:58Z</time>
      </trkpt>
      <trkpt lat="45.05473" lon="6.28014">
        <ele>1809.2</ele>
        <time>2024-08-10T09:12:59Z</time>
      </trkpt>
      <trkpt lat="45.05475" lon="6.28013">
        <ele>1809</ele>
        <time>2024-08-10T09:13:00Z</time>
      </trkpt>
      <trkpt lat="45.05475" lon="6.28013">
        <ele>1808.8</ele>
        <time>2024-08-10T09:13:01Z</time>
      </trkpt>
      <trkpt lat="45.05477" lon="6.28012">
        <ele>1808.4</ele>
        <time>2024-08-10T09:13:02Z</time>
      </trkpt>
      <trkpt lat="45.05477" lon="6.28012">
        <ele>1808</ele>
        <time>2024-08-10T09:13:03Z</time>
      </trkpt>
      <trkpt lat="45.05479" lon="6.2801">
        <ele>1808</ele>
        <time>2024-08-10T09:13:04Z</time>
      </trkpt>
      <trkpt lat="45.05479" lon="6.2801">
        <ele>1807.6</ele>
        <time>2024-08-10T09:13:05Z</time>
      </trkpt>
      <trkpt lat="45.05481" lon="6.2801">
        <ele>1807.6</ele>
        <time>2024-08-10T09:13:06Z</time>
      </trkpt>
      <trkpt lat="45.05481" lon="6.2801">
        <ele>1807.4</ele>
        <time>2024-08-10T09:13:07Z</time>
      </trkpt>
      <trkpt lat="45.05484" lon="6.2801">
        <ele>1807.2</ele>
        <time>2024-08-10T09:13:08Z</time>
      </trkpt>
      <trkpt lat="45.05484" lon="6.2801">
        <ele>1807</ele>
        <time>2024-08-10T09:13:09Z</time>
      </trkpt>
      <trkpt lat="45.05486" lon="6.2801">
        <ele>1807</ele>
        <time>2024-08-10T09:13:10Z</time>
      </trkpt>
      <trkpt lat="45.05486" lon="6.2801">
        <ele>1806.8</ele>
        <time>2024-08-10T09:13:11Z</time>
      </trkpt>
      <trkpt lat="45.05489" lon="6.2801">
        <ele>1806.6</ele>
        <time>2024-08-10T09:13:12Z</time>
      </trkpt>
      <trkpt lat="45.05489" lon="6.2801">
        <ele>1806.2</ele>
        <time>2024-08-10T09:13:13Z</time>
      </trkpt>
      <trkpt lat="45.05491" lon="6.2801">
        <ele>1806.2</ele>
        <time>2024-08-10T09:13:14Z</time>
      </trkpt>
      <trkpt lat="45.05491" lon="6.2801">
        <ele>1806.2</ele>
        <time>2024-08-10T09:13:15Z</time>
      </trkpt>
      <trkpt lat="45.05493" lon="6.28011">
        <ele>1806</ele>
        <time>2024-08-10T09:13:16Z</time>
      </trkpt>
      <trkpt lat="45.05493" lon="6.28011">
        <ele>1805.8</ele>
        <time>2024-08-10T09:13:17Z</time>
      </trkpt>
      <trkpt lat="45.05495" lon="6.28012">
        <ele>1805.8</ele>
        <time>2024-08-10T09:13:18Z</time>
      </trkpt>
      <trkpt lat="45.05495" lon="6.28012">
        <ele>1805.6</ele>
        <time>2024-08-10T09:13:19Z</time>
      </trkpt>
      <trkpt lat="45.05498" lon="6.28013">
        <ele>1805.6</ele>
        <time>2024-08-10T09:13:20Z</time>
      </trkpt>
      <trkpt lat="45.05498" lon="6.28013">
        <ele>1805.6</ele>
        <time>2024-08-10T09:13:21Z</time>
      </trkpt>
      <trkpt lat="45.055" lon="6.28015">
        <ele>1805.4</ele>
        <time>2024-08-10T09:13:22Z</time>
      </trkpt>
      <trkpt lat="45.055" lon="6.28015">
        <ele>1805.4</ele>
        <time>2024-08-10T09:13:23Z</time>
      </trkpt>
      <trkpt lat="45.05501" lon="6.28017">
        <ele>1805</ele>
        <time>2024-08-10T09:13:24Z</time>
      </trkpt>
      <trkpt lat="45.05501" lon="6.28017">
        <ele>1804.8</ele>
        <time>2024-08-10T09:13:25Z</time>
      </trkpt>
      <trkpt lat="45.05504" lon="6.28019">
        <ele>1804.8</ele>
        <time>2024-08-10T09:13:26Z</time>
      </trkpt>
      <trkpt lat="45.05504" lon="6.28019">
        <ele>1804.8</ele>
        <time>2024-08-10T09:13:27Z</time>
      </trkpt>
      <trkpt lat="45.05506" lon="6.2802">
        <ele>1804.6</ele>
        <time>2024-08-10T09:13:28Z</time>
      </trkpt>
      <trkpt lat="45.05506" lon="6.2802">
        <ele>1804.6</ele>
        <time>2024-08-10T09:13:29Z</time>
      </trkpt>
      <trkpt lat="45.05509" lon="6.2802">
        <ele>1804.4</ele>
        <time>2024-08-10T09:13:30Z</time>
      </trkpt>
      <trkpt lat="45.05509" lon="6.2802">
        <ele>1804</ele>
        <time>2024-08-10T09:13:31Z</time>
      </trkpt>
      <trkpt lat="45.05511" lon="6.2802">
        <ele>1803.8</ele>
        <time>2024-08-10T09:13:32Z</time>
      </trkpt>
      <trkpt lat="45.05511" lon="6.2802">
        <ele>1803.6</ele>
        <time>2024-08-10T09:13:33Z</time>
      </trkpt>
      <trkpt lat="45.05513" lon="6.28019">
        <ele>1803.2</ele>
        <time>2024-08-10T09:13:34Z</time>
      </trkpt>
      <trkpt lat="45.05513" lon="6.28019">
        <ele>1803.2</ele>
        <time>2024-08-10T09:13:35Z</time>
      </trkpt>
      <trkpt lat="45.05515" lon="6.2802">
        <ele>1803.2</ele>
        <time>2024-08-10T09:13:36Z</time>
      </trkpt>
      <trkpt lat="45.05515" lon="6.2802">
        <ele>1802.6</ele>
        <time>2024-08-10T09:13:37Z</time>
      </trkpt>
      <trkpt lat="45.05515" lon="6.2802">
        <ele>1802.4</ele>
        <time>2024-08-10T09:13:38Z</time>
      </trkpt>
      <trkpt lat="45.05515" lon="6.28023">
        <ele>1802.2</ele>
        <time>2024-08-10T09:13:39Z</time>
      </trkpt>
      <trkpt lat="45.05515" lon="6.28023">
        <ele>1802.2</ele>
        <time>2024-08-10T09:13:40Z</time>
      </trkpt>
      <trkpt lat="45.05513" lon="6.28025">
        <ele>1802</ele>
        <time>2024-08-10T09:13:41Z</time>
      </trkpt>
      <trkpt lat="45.05513" lon="6.28025">
        <ele>1801.8</ele>
        <time>2024-08-10T09:13:42Z</time>
      </trkpt>
      <trkpt lat="45.05513" lon="6.28025">
        <ele>1801.4</ele>
        <time>2024-08-10T09:13:43Z</time>
      </trkpt>
      <trkpt lat="45.05511" lon="6.28027">
        <ele>1801.2</ele>
        <time>2024-08-10T09:13:44Z</time>
      </trkpt>
      <trkpt lat="45.05511" lon="6.28027">
        <ele>1801</ele>
        <time>2024-08-10T09:13:45Z</time>
      </trkpt>
      <trkpt lat="45.05511" lon="6.28027">
        <ele>1800.6</ele>
        <time>2024-08-10T09:13:46Z</time>
      </trkpt>
      <trkpt lat="45.05511" lon="6.28027">
        <ele>1800.4</ele>
        <time>2024-08-10T09:13:47Z</time>
      </trkpt>
      <trkpt lat="45.05512" lon="6.2803">
        <ele>1800.4</ele>
        <time>2024-08-10T09:13:48Z</time>
      </trkpt>
      <trkpt lat="45.05512" lon="6.2803">
        <ele>1800.2</ele>
        <time>2024-08-10T09:13:49Z</time>
      </trkpt>
      <trkpt lat="45.05514" lon="6.2803">
        <ele>1799.8</ele>
        <time>2024-08-10T09:13:50Z</time>
      </trkpt>
      <trkpt lat="45.05514" lon="6.2803">
        <ele>1799.4</ele>
        <time>2024-08-10T09:13:51Z</time>
      </trkpt>
      <trkpt lat="45.05517" lon="6.28031">
        <ele>1799.2</ele>
        <time>2024-08-10T09:13:52Z</time>
      </trkpt>
      <trkpt lat="45.05517" lon="6.28031">
        <ele>1799.2</ele>
        <time>2024-08-10T09:13:53Z</time>
      </trkpt>
      <trkpt lat="45.05519" lon="6.28031">
        <ele>1799</ele>
        <time>2024-08-10T09:13:54Z</time>
      </trkpt>
      <trkpt lat="45.05519" lon="6.28031">
        <ele>1798.8</ele>
        <time>2024-08-10T09:13:55Z</time>
      </trkpt>
      <trkpt lat="45.05521" lon="6.28031">
        <ele>1798.4</ele>
        <time>2024-08-10T09:13:56Z</time>
      </trkpt>
      <trkpt lat="45.05521" lon="6.28031">
        <ele>1798.2</ele>
        <time>2024-08-10T09:13:57Z</time>
      </trkpt>
      <trkpt lat="45.05524" lon="6.2803">
        <ele>1798</ele>
        <time>2024-08-10T09:13:58Z</time>
      </trkpt>
      <trkpt lat="45.05524" lon="6.2803">
        <ele>1797.6</ele>
        <time>2024-08-10T09:13:59Z</time>
      </trkpt>
      <trkpt lat="45.05526" lon="6.28028">
        <ele>1797.4</ele>
        <time>2024-08-10T09:14:00Z</time>
      </trkpt>
      <trkpt lat="45.05526" lon="6.28028">
        <ele>1797.2</ele>
        <time>2024-08-10T09:14:01Z</time>
      </trkpt>
      <trkpt lat="45.05527" lon="6.28025">
        <ele>1797.2</ele>
        <time>2024-08-10T09:14:02Z</time>
      </trkpt>
      <trkpt lat="45.05527" lon="6.28025">
        <ele>1796.8</ele>
        <time>2024-08-10T09:14:03Z</time>
      </trkpt>
      <trkpt lat="45.05529" lon="6.28023">
        <ele>1796.6</ele>
        <time>2024-08-10T09:14:04Z</time>
      </trkpt>
      <trkpt lat="45.05529" lon="6.28023">
        <ele>1796.4</ele>
        <time>2024-08-10T09:14:05Z</time>
      </trkpt>
      <trkpt lat="45.05529" lon="6.28023">
        <ele>1796.2</ele>
        <time>2024-08-10T09:14:06Z</time>
      </trkpt>
      <trkpt lat="45.05531" lon="6.28022">
        <ele>1795.8</ele>
        <time>2024-08-10T09:14:07Z</time>
      </trkpt>
      <trkpt lat="45.05531" lon="6.28022">
        <ele>1795.8</ele>
        <time>2024-08-10T09:14:08Z</time>
      </trkpt>
      <trkpt lat="45.05531" lon="6.28022">
        <ele>1795.4</ele>
        <time>2024-08-10T09:14:09Z</time>
      </trkpt>
      <trkpt lat="45.05532" lon="6.28024">
        <ele>1795.2</ele>
        <time>2024-08-10T09:14:10Z</time>
      </trkpt>
      <trkpt lat="45.05532" lon="6.28024">
        <ele>1795</ele>
        <time>2024-08-10T09:14:11Z</time>
      </trkpt>
      <trkpt lat="45.05531" lon="6.28027">
        <ele>1794.8</ele>
        <time>2024-08-10T09:14:12Z</time>
      </trkpt>
      <trkpt lat="45.05531" lon="6.28027">
        <ele>1794.6</ele>
        <time>2024-08-10T09:14:13Z</time>
      </trkpt>
      <trkpt lat="45.05531" lon="6.2803">
        <ele>1794.4</ele>
        <time>2024-08-10T09:14:14Z</time>
      </trkpt>
      <trkpt lat="45.05531" lon="6.2803">
        <ele>1794</ele>
        <time>2024-08-10T09:14:15Z</time>
      </trkpt>
      <trkpt lat="45.05532" lon="6.28032">
        <ele>1793.6</ele>
        <time>2024-08-10T09:14:16Z</time>
      </trkpt>
      <trkpt lat="45.05532" lon="6.28032">
        <ele>1793.6</ele>
        <time>2024-08-10T09:14:17Z</time>
      </trkpt>
      <trkpt lat="45.05533" lon="6.28035">
        <ele>1793.4</ele>
        <time>2024-08-10T09:14:18Z</time>
      </trkpt>
      <trkpt lat="45.05533" lon="6.28035">
        <ele>1792.8</ele>
        <time>2024-08-10T09:14:19Z</time>
      </trkpt>
      <trkpt lat="45.05533" lon="6.28035">
        <ele>1792.8</ele>
        <time>2024-08-10T09:14:20Z</time>
      </trkpt>
      <trkpt lat="45.05533" lon="6.28035">
        <ele>1792.6</ele>
        <time>2024-08-10T09:14:21Z</time>
      </trkpt>
      <trkpt lat="45.05532" lon="6.28038">
        <ele>1792.4</ele>
        <time>2024-08-10T09:14:22Z</time>
      </trkpt>
      <trkpt lat="45.05532" lon="6.28038">
        <ele>1792.4</ele>
        <time>2024-08-10T09:14:23Z</time>
      </trkpt>
      <trkpt lat="45.05531" lon="6.2804">
        <ele>1791.8</ele>
        <time>2024-08-10T09:14:24Z</time>
      </trkpt>
      <trkpt lat="45.05531" lon="6.2804">
        <ele>1791.8</ele>
        <time>2024-08-10T09:14:25Z</time>
      </trkpt>
      <trkpt lat="45.05529" lon="6.28043">
        <ele>1791.6</ele>
        <time>2024-08-10T09:14:26Z</time>
      </trkpt>
      <trkpt lat="45.05529" lon="6.28043">
        <ele>1791.2</ele>
        <time>2024-08-10T09:14:27Z</time>
      </trkpt>
      <trkpt lat="45.05527" lon="6.28044">
        <ele>1790.8</ele>
        <time>2024-08-10T09:14:28Z</time>
      </trkpt>
      <trkpt lat="45.05527" lon="6.28044">
        <ele>1790.8</ele>
        <time>2024-08-10T09:14:29Z</time>
      </trkpt>
      <trkpt lat="45.05529" lon="6.28046">
        <ele>1790.4</ele>
        <time>2024-08-10T09:14:30Z</time>
      </trkpt>
      <trkpt lat="45.05529" lon="6.28046">
        <ele>1790</ele>
        <time>2024-08-10T09:14:31Z</time>
      </trkpt>
      <trkpt lat="45.05529" lon="6.28046">
        <ele>1790</ele>
        <time>2024-08-10T09:14:32Z</time>
      </trkpt>
      <trkpt lat="45.05531" lon="6.28045">
        <ele>1790</ele>
        <time>2024-08-10T09:14:33Z</time>
      </trkpt>
      <trkpt lat="45.05531" lon="6.28045">
        <ele>1789.8</ele>
        <time>2024-08-10T09:14:34Z</time>
      </trkpt>
      <trkpt lat="45.05531" lon="6.28045">
        <ele>1789.8</ele>
        <time>2024-08-10T09:14:35Z</time>
      </trkpt>
      <trkpt lat="45.05534" lon="6.28044">
        <ele>1789.8</ele>
        <time>2024-08-10T09:14:36Z</time>
      </trkpt>
      <trkpt lat="45.05534" lon="6.28044">
        <ele>1789.4</ele>
        <time>2024-08-10T09:14:37Z</time>
      </trkpt>
      <trkpt lat="45.05536" lon="6.28043">
        <ele>1789.2</ele>
        <time>2024-08-10T09:14:38Z</time>
      </trkpt>
      <trkpt lat="45.05536" lon="6.28043">
        <ele>1789.2</ele>
        <time>2024-08-10T09:14:39Z</time>
      </trkpt>
      <trkpt lat="45.05536" lon="6.28043">
        <ele>1789</ele>
        <time>2024-08-10T09:14:40Z</time>
      </trkpt>
      <trkpt lat="45.05536" lon="6.28043">
        <ele>1788.8</ele>
        <time>2024-08-10T09:14:41Z</time>
      </trkpt>
      <trkpt lat="45.05538" lon="6.28041">
        <ele>1788.6</ele>
        <time>2024-08-10T09:14:42Z</time>
      </trkpt>
      <trkpt lat="45.05538" lon="6.28041">
        <ele>1788.4</ele>
        <time>2024-08-10T09:14:43Z</time>
      </trkpt>
      <trkpt lat="45.0554" lon="6.28039">
        <ele>1788.2</ele>
        <time>2024-08-10T09:14:44Z</time>
      </trkpt>
      <trkpt lat="45.0554" lon="6.28039">
        <ele>1788.2</ele>
        <time>2024-08-10T09:14:45Z</time>
      </trkpt>
      <trkpt lat="45.05543" lon="6.28036">
        <ele>1788</ele>
        <time>2024-08-10T09:14:46Z</time>
      </trkpt>
      <trkpt lat="45.05543" lon="6.28036">
        <ele>1787.8</ele>
        <time>2024-08-10T09:14:47Z</time>
      </trkpt>
      <trkpt lat="45.05545" lon="6.28033">
        <ele>1787.6</ele>
        <time>2024-08-10T09:14:48Z</time>
      </trkpt>
      <trkpt lat="45.05545" lon="6.28033">
        <ele>1787.4</ele>
        <time>2024-08-10T09:14:49Z</time>
      </trkpt>
      <trkpt lat="45.05546" lon="6.28029">
        <ele>1787.2</ele>
        <time>2024-08-10T09:14:50Z</time>
      </trkpt>
      <trkpt lat="45.05546" lon="6.28029">
        <ele>1787.2</ele>
        <time>2024-08-10T09:14:51Z</time>
      </trkpt>
      <trkpt lat="45.05547" lon="6.28026">
        <ele>1787.2</ele>
        <time>2024-08-10T09:14:52Z</time>
      </trkpt>
      <trkpt lat="45.05547" lon="6.28026">
        <ele>1787</ele>
        <time>2024-08-10T09:14:53Z</time>
      </trkpt>
      <trkpt lat="45.05549" lon="6.28024">
        <ele>1786.6</ele>
        <time>2024-08-10T09:14:54Z</time>
      </trkpt>
      <trkpt lat="45.05549" lon="6.28024">
        <ele>1786.4</ele>
        <time>2024-08-10T09:14:55Z</time>
      </trkpt>
      <trkpt lat="45.05552" lon="6.28024">
        <ele>1786.4</ele>
        <time>2024-08-10T09:14:56Z</time>
      </trkpt>
      <trkpt lat="45.05552" lon="6.28024">
        <ele>1786</ele>
        <time>2024-08-10T09:14:57Z</time>
      </trkpt>
      <trkpt lat="45.05554" lon="6.28022">
        <ele>1785.8</ele>
        <time>2024-08-10T09:14:58Z</time>
      </trkpt>
      <trkpt lat="45.05554" lon="6.28022">
        <ele>1785.4</ele>
        <time>2024-08-10T09:14:59Z</time>
      </trkpt>
      <trkpt lat="45.05556" lon="6.2802">
        <ele>1785.2</ele>
        <time>2024-08-10T09:15:00Z</time>
      </trkpt>
      <trkpt lat="45.05556" lon="6.2802">
        <ele>1785</ele>
        <time>2024-08-10T09:15:01Z</time>
      </trkpt>
      <trkpt lat="45.05558" lon="6.28019">
        <ele>1784.6</ele>
        <time>2024-08-10T09:15:02Z</time>
      </trkpt>
      <trkpt lat="45.05558" lon="6.28019">
        <ele>1785</ele>
        <time>2024-08-10T09:15:03Z</time>
      </trkpt>
      <trkpt lat="45.05558" lon="6.28019">
        <ele>1785</ele>
        <time>2024-08-10T09:15:04Z</time>
      </trkpt>
      <trkpt lat="45.05561" lon="6.28018">
        <ele>1785</ele>
        <time>2024-08-10T09:15:05Z</time>
      </trkpt>
      <trkpt lat="45.05561" lon="6.28018">
        <ele>1784.6</ele>
        <time>2024-08-10T09:15:06Z</time>
      </trkpt>
      <trkpt lat="45.05563" lon="6.28018">
        <ele>1784.4</ele>
        <time>2024-08-10T09:15:07Z</time>
      </trkpt>
      <trkpt lat="45.05563" lon="6.28018">
        <ele>1784</ele>
        <time>2024-08-10T09:15:08Z</time>
      </trkpt>
      <trkpt lat="45.05565" lon="6.28017">
        <ele>1783.8</ele>
        <time>2024-08-10T09:15:09Z</time>
      </trkpt>
      <trkpt lat="45.05565" lon="6.28017">
        <ele>1783.6</ele>
        <time>2024-08-10T09:15:10Z</time>
      </trkpt>
      <trkpt lat="45.05567" lon="6.28016">
        <ele>1783.4</ele>
        <time>2024-08-10T09:15:11Z</time>
      </trkpt>
      <trkpt lat="45.05567" lon="6.28016">
        <ele>1783</ele>
        <time>2024-08-10T09:15:12Z</time>
      </trkpt>
      <trkpt lat="45.0557" lon="6.28015">
        <ele>1782.6</ele>
        <time>2024-08-10T09:15:13Z</time>
      </trkpt>
      <trkpt lat="45.0557" lon="6.28015">
        <ele>1782.4</ele>
        <time>2024-08-10T09:15:14Z</time>
      </trkpt>
      <trkpt lat="45.05572" lon="6.28014">
        <ele>1782.2</ele>
        <time>2024-08-10T09:15:15Z</time>
      </trkpt>
      <trkpt lat="45.05572" lon="6.28014">
        <ele>1782.2</ele>
        <time>2024-08-10T09:15:16Z</time>
      </trkpt>
      <trkpt lat="45.05573" lon="6.28012">
        <ele>1782</ele>
        <time>2024-08-10T09:15:17Z</time>
      </trkpt>
      <trkpt lat="45.05573" lon="6.28012">
        <ele>1781.8</ele>
        <time>2024-08-10T09:15:18Z</time>
      </trkpt>
      <trkpt lat="45.05575" lon="6.2801">
        <ele>1781.4</ele>
        <time>2024-08-10T09:15:19Z</time>
      </trkpt>
      <trkpt lat="45.05575" lon="6.2801">
        <ele>1781.2</ele>
        <time>2024-08-10T09:15:20Z</time>
      </trkpt>
      <trkpt lat="45.05577" lon="6.28007">
        <ele>1781</ele>
        <time>2024-08-10T09:15:21Z</time>
      </trkpt>
      <trkpt lat="45.05577" lon="6.28007">
        <ele>1780.6</ele>
        <time>2024-08-10T09:15:22Z</time>
      </trkpt>
      <trkpt lat="45.05579" lon="6.28004">
        <ele>1780.4</ele>
        <time>2024-08-10T09:15:23Z</time>
      </trkpt>
      <trkpt lat="45.05579" lon="6.28004">
        <ele>1780.2</ele>
        <time>2024-08-10T09:15:24Z</time>
      </trkpt>
      <trkpt lat="45.05581" lon="6.28002">
        <ele>1780</ele>
        <time>2024-08-10T09:15:25Z</time>
      </trkpt>
      <trkpt lat="45.05581" lon="6.28002">
        <ele>1779.8</ele>
        <time>2024-08-10T09:15:26Z</time>
      </trkpt>
      <trkpt lat="45.05582" lon="6.28">
        <ele>1779.6</ele>
        <time>2024-08-10T09:15:27Z</time>
      </trkpt>
      <trkpt lat="45.05582" lon="6.28">
        <ele>1779.4</ele>
        <time>2024-08-10T09:15:28Z</time>
      </trkpt>
      <trkpt lat="45.05583" lon="6.27997">
        <ele>1779.4</ele>
        <time>2024-08-10T09:15:29Z</time>
      </trkpt>
      <trkpt lat="45.05583" lon="6.27997">
        <ele>1779.2</ele>
        <time>2024-08-10T09:15:30Z</time>
      </trkpt>
      <trkpt lat="45.05584" lon="6.27995">
        <ele>1779.2</ele>
        <time>2024-08-10T09:15:31Z</time>
      </trkpt>
      <trkpt lat="45.05584" lon="6.27995">
        <ele>1779</ele>
        <time>2024-08-10T09:15:32Z</time>
      </trkpt>
      <trkpt lat="45.05584" lon="6.27995">
        <ele>1778.6</ele>
        <time>2024-08-10T09:15:33Z</time>
      </trkpt>
      <trkpt lat="45.05585" lon="6.27992">
        <ele>1778.4</ele>
        <time>2024-08-10T09:15:34Z</time>
      </trkpt>
      <trkpt lat="45.05585" lon="6.27992">
        <ele>1778.2</ele>
        <time>2024-08-10T09:15:35Z</time>
      </trkpt>
      <trkpt lat="45.05586" lon="6.2799">
        <ele>1777.8</ele>
        <time>2024-08-10T09:15:36Z</time>
      </trkpt>
      <trkpt lat="45.05586" lon="6.2799">
        <ele>1777.8</ele>
        <time>2024-08-10T09:15:37Z</time>
      </trkpt>
      <trkpt lat="45.05588" lon="6.27989">
        <ele>1777.8</ele>
        <time>2024-08-10T09:15:38Z</time>
      </trkpt>
      <trkpt lat="45.05588" lon="6.27989">
        <ele>1777.6</ele>
        <time>2024-08-10T09:15:39Z</time>
      </trkpt>
      <trkpt lat="45.0559" lon="6.27988">
        <ele>1777.4</ele>
        <time>2024-08-10T09:15:40Z</time>
      </trkpt>
      <trkpt lat="45.0559" lon="6.27988">
        <ele>1777.2</ele>
        <time>2024-08-10T09:15:41Z</time>
      </trkpt>
      <trkpt lat="45.0559" lon="6.27988">
        <ele>1776.6</ele>
        <time>2024-08-10T09:15:42Z</time>
      </trkpt>
      <trkpt lat="45.05592" lon="6.27987">
        <ele>1776.4</ele>
        <time>2024-08-10T09:15:43Z</time>
      </trkpt>
      <trkpt lat="45.05592" lon="6.27987">
        <ele>1776.2</ele>
        <time>2024-08-10T09:15:44Z</time>
      </trkpt>
      <trkpt lat="45.05594" lon="6.27986">
        <ele>1776</ele>
        <time>2024-08-10T09:15:45Z</time>
      </trkpt>
      <trkpt lat="45.05594" lon="6.27986">
        <ele>1775.8</ele>
        <time>2024-08-10T09:15:46Z</time>
      </trkpt>
      <trkpt lat="45.05594" lon="6.27986">
        <ele>1775</ele>
        <time>2024-08-10T09:15:47Z</time>
      </trkpt>
      <trkpt lat="45.05596" lon="6.27985">
        <ele>1774.6</ele>
        <time>2024-08-10T09:15:48Z</time>
      </trkpt>
      <trkpt lat="45.05596" lon="6.27985">
        <ele>1774.4</ele>
        <time>2024-08-10T09:15:49Z</time>
      </trkpt>
      <trkpt lat="45.05598" lon="6.27984">
        <ele>1774</ele>
        <time>2024-08-10T09:15:50Z</time>
      </trkpt>
      <trkpt lat="45.05598" lon="6.27984">
        <ele>1773.8</ele>
        <time>2024-08-10T09:15:51Z</time>
      </trkpt>
      <trkpt lat="45.056" lon="6.27984">
        <ele>1773.4</ele>
        <time>2024-08-10T09:15:52Z</time>
      </trkpt>
      <trkpt lat="45.056" lon="6.27984">
        <ele>1773.2</ele>
        <time>2024-08-10T09:15:53Z</time>
      </trkpt>
      <trkpt lat="45.056" lon="6.27984">
        <ele>1772.8</ele>
        <time>2024-08-10T09:15:54Z</time>
      </trkpt>
      <trkpt lat="45.05602" lon="6.27983">
        <ele>1772.4</ele>
        <time>2024-08-10T09:15:55Z</time>
      </trkpt>
      <trkpt lat="45.05602" lon="6.27983">
        <ele>1772</ele>
        <time>2024-08-10T09:15:56Z</time>
      </trkpt>
      <trkpt lat="45.05604" lon="6.27982">
        <ele>1771.6</ele>
        <time>2024-08-10T09:15:57Z</time>
      </trkpt>
      <trkpt lat="45.05604" lon="6.27982">
        <ele>1771.2</ele>
        <time>2024-08-10T09:15:58Z</time>
      </trkpt>
      <trkpt lat="45.05606" lon="6.27982">
        <ele>1770.8</ele>
        <time>2024-08-10T09:15:59Z</time>
      </trkpt>
      <trkpt lat="45.05606" lon="6.27982">
        <ele>1770.4</ele>
        <time>2024-08-10T09:16:00Z</time>
      </trkpt>
      <trkpt lat="45.05606" lon="6.27982">
        <ele>1770.4</ele>
        <time>2024-08-10T09:16:01Z</time>
      </trkpt>
      <trkpt lat="45.05609" lon="6.27982">
        <ele>1770.2</ele>
        <time>2024-08-10T09:16:02Z</time>
      </trkpt>
      <trkpt lat="45.05609" lon="6.27982">
        <ele>1769.6</ele>
        <time>2024-08-10T09:16:03Z</time>
      </trkpt>
      <trkpt lat="45.05609" lon="6.27982">
        <ele>1769.6</ele>
        <time>2024-08-10T09:16:04Z</time>
      </trkpt>
      <trkpt lat="45.05612" lon="6.27983">
        <ele>1769.2</ele>
        <time>2024-08-10T09:16:05Z</time>
      </trkpt>
      <trkpt lat="45.05612" lon="6.27983">
        <ele>1768.8</ele>
        <time>2024-08-10T09:16:06Z</time>
      </trkpt>
      <trkpt lat="45.05614" lon="6.27985">
        <ele>1768.8</ele>
        <time>2024-08-10T09:16:07Z</time>
      </trkpt>
      <trkpt lat="45.05614" lon="6.27985">
        <ele>1768.4</ele>
        <time>2024-08-10T09:16:08Z</time>
      </trkpt>
      <trkpt lat="45.05614" lon="6.27985">
        <ele>1767.8</ele>
        <time>2024-08-10T09:16:09Z</time>
      </trkpt>
      <trkpt lat="45.05616" lon="6.27986">
        <ele>1767.8</ele>
        <time>2024-08-10T09:16:10Z</time>
      </trkpt>
      <trkpt lat="45.05616" lon="6.27986">
        <ele>1767.4</ele>
        <time>2024-08-10T09:16:11Z</time>
      </trkpt>
      <trkpt lat="45.05618" lon="6.27987">
        <ele>1766.8</ele>
        <time>2024-08-10T09:16:12Z</time>
      </trkpt>
      <trkpt lat="45.05618" lon="6.27987">
        <ele>1766.6</ele>
        <time>2024-08-10T09:16:13Z</time>
      </trkpt>
      <trkpt lat="45.0562" lon="6.27988">
        <ele>1766.4</ele>
        <time>2024-08-10T09:16:14Z</time>
      </trkpt>
      <trkpt lat="45.0562" lon="6.27988">
        <ele>1766.2</ele>
        <time>2024-08-10T09:16:15Z</time>
      </trkpt>
      <trkpt lat="45.05622" lon="6.27988">
        <ele>1766</ele>
        <time>2024-08-10T09:16:16Z</time>
      </trkpt>
      <trkpt lat="45.05622" lon="6.27988">
        <ele>1765.8</ele>
        <time>2024-08-10T09:16:17Z</time>
      </trkpt>
      <trkpt lat="45.05625" lon="6.27989">
        <ele>1765.6</ele>
        <time>2024-08-10T09:16:18Z</time>
      </trkpt>
      <trkpt lat="45.05625" lon="6.27989">
        <ele>1765.2</ele>
        <time>2024-08-10T09:16:19Z</time>
      </trkpt>
      <trkpt lat="45.05628" lon="6.2799">
        <ele>1764.8</ele>
        <time>2024-08-10T09:16:20Z</time>
      </trkpt>
      <trkpt lat="45.05628" lon="6.2799">
        <ele>1764.4</ele>
        <time>2024-08-10T09:16:21Z</time>
      </trkpt>
      <trkpt lat="45.05629" lon="6.2799">
        <ele>1764.2</ele>
        <time>2024-08-10T09:16:22Z</time>
      </trkpt>
      <trkpt lat="45.05629" lon="6.2799">
        <ele>1764</ele>
        <time>2024-08-10T09:16:23Z</time>
      </trkpt>
      <trkpt lat="45.05632" lon="6.27989">
        <ele>1763.8</ele>
        <time>2024-08-10T09:16:24Z</time>
      </trkpt>
      <trkpt lat="45.05632" lon="6.27989">
        <ele>1763.2</ele>
        <time>2024-08-10T09:16:25Z</time>
      </trkpt>
      <trkpt lat="45.05634" lon="6.27989">
        <ele>1763</ele>
        <time>2024-08-10T09:16:26Z</time>
      </trkpt>
      <trkpt lat="45.05634" lon="6.27989">
        <ele>1762.8</ele>
        <time>2024-08-10T09:16:27Z</time>
      </trkpt>
      <trkpt lat="45.05637" lon="6.27989">
        <ele>1762.4</ele>
        <time>2024-08-10T09:16:28Z</time>
      </trkpt>
      <trkpt lat="45.05637" lon="6.27989">
        <ele>1762.2</ele>
        <time>2024-08-10T09:16:29Z</time>
      </trkpt>
      <trkpt lat="45.05639" lon="6.27989">
        <ele>1762.2</ele>
        <time>2024-08-10T09:16:30Z</time>
      </trkpt>
      <trkpt lat="45.05639" lon="6.27989">
        <ele>1761.8</ele>
        <time>2024-08-10T09:16:31Z</time>
      </trkpt>
      <trkpt lat="45.05642" lon="6.27989">
        <ele>1761.4</ele>
        <time>2024-08-10T09:16:32Z</time>
      </trkpt>
      <trkpt lat="45.05642" lon="6.27989">
        <ele>1761.2</ele>
        <time>2024-08-10T09:16:33Z</time>
      </trkpt>
      <trkpt lat="45.05644" lon="6.27991">
        <ele>1761</ele>
        <time>2024-08-10T09:16:34Z</time>
      </trkpt>
      <trkpt lat="45.05644" lon="6.27991">
        <ele>1760.8</ele>
        <time>2024-08-10T09:16:35Z</time>
      </trkpt>
      <trkpt lat="45.05647" lon="6.27991">
        <ele>1760.8</ele>
        <time>2024-08-10T09:16:36Z</time>
      </trkpt>
      <trkpt lat="45.05647" lon="6.27991">
        <ele>1760.4</ele>
        <time>2024-08-10T09:16:37Z</time>
      </trkpt>
      <trkpt lat="45.05647" lon="6.27991">
        <ele>1760.2</ele>
        <time>2024-08-10T09:16:38Z</time>
      </trkpt>
      <trkpt lat="45.05647" lon="6.27991">
        <ele>1760</ele>
        <time>2024-08-10T09:16:39Z</time>
      </trkpt>
      <trkpt lat="45.05647" lon="6.27991">
        <ele>1760</ele>
        <time>2024-08-10T09:16:40Z</time>
      </trkpt>
      <trkpt lat="45.05649" lon="6.27992">
        <ele>1760</ele>
        <time>2024-08-10T09:16:41Z</time>
      </trkpt>
      <trkpt lat="45.05649" lon="6.27992">
        <ele>1759.8</ele>
        <time>2024-08-10T09:16:42Z</time>
      </trkpt>
      <trkpt lat="45.05652" lon="6.27992">
        <ele>1759.6</ele>
        <time>2024-08-10T09:16:43Z</time>
      </trkpt>
      <trkpt lat="45.05652" lon="6.27992">
        <ele>1759.6</ele>
        <time>2024-08-10T09:16:44Z</time>
      </trkpt>
      <trkpt lat="45.05652" lon="6.27992">
        <ele>1759.6</ele>
        <time>2024-08-10T09:16:45Z</time>
      </trkpt>
      <trkpt lat="45.05654" lon="6.27994">
        <ele>1759.6</ele>
        <time>2024-08-10T09:16:46Z</time>
      </trkpt>
      <trkpt lat="45.05654" lon="6.27994">
        <ele>1759.2</ele>
        <time>2024-08-10T09:16:47Z</time>
      </trkpt>
      <trkpt lat="45.05656" lon="6.27995">
        <ele>1759</ele>
        <time>2024-08-10T09:16:48Z</time>
      </trkpt>
      <trkpt lat="45.05656" lon="6.27995">
        <ele>1759</ele>
        <time>2024-08-10T09:16:49Z</time>
      </trkpt>
      <trkpt lat="45.05659" lon="6.27997">
        <ele>1758.8</ele>
        <time>2024-08-10T09:16:50Z</time>
      </trkpt>
      <trkpt lat="45.05659" lon="6.27997">
        <ele>1758.4</ele>
        <time>2024-08-10T09:16:51Z</time>
      </trkpt>
      <trkpt lat="45.05661" lon="6.27998">
        <ele>1758.2</ele>
        <time>2024-08-10T09:16:52Z</time>
      </trkpt>
      <trkpt lat="45.05661" lon="6.27998">
        <ele>1757.8</ele>
        <time>2024-08-10T09:16:53Z</time>
      </trkpt>
      <trkpt lat="45.05664" lon="6.28">
        <ele>1757.8</ele>
        <time>2024-08-10T09:16:54Z</time>
      </trkpt>
      <trkpt lat="45.05664" lon="6.28">
        <ele>1757.6</ele>
        <time>2024-08-10T09:16:55Z</time>
      </trkpt>
      <trkpt lat="45.05666" lon="6.28001">
        <ele>1757.2</ele>
        <time>2024-08-10T09:16:56Z</time>
      </trkpt>
      <trkpt lat="45.05666" lon="6.28001">
        <ele>1757</ele>
        <time>2024-08-10T09:16:57Z</time>
      </trkpt>
      <trkpt lat="45.05669" lon="6.28002">
        <ele>1757</ele>
        <time>2024-08-10T09:16:58Z</time>
      </trkpt>
      <trkpt lat="45.05669" lon="6.28002">
        <ele>1756.6</ele>
        <time>2024-08-10T09:16:59Z</time>
      </trkpt>
      <trkpt lat="45.05671" lon="6.28004">
        <ele>1756.6</ele>
        <time>2024-08-10T09:17:00Z</time>
      </trkpt>
      <trkpt lat="45.05671" lon="6.28004">
        <ele>1756.4</ele>
        <time>2024-08-10T09:17:01Z</time>
      </trkpt>
      <trkpt lat="45.05674" lon="6.28005">
        <ele>1756.2</ele>
        <time>2024-08-10T09:17:02Z</time>
      </trkpt>
      <trkpt lat="45.05674" lon="6.28005">
        <ele>1756</ele>
        <time>2024-08-10T09:17:03Z</time>
      </trkpt>
      <trkpt lat="45.05676" lon="6.28007">
        <ele>1756</ele>
        <time>2024-08-10T09:17:04Z</time>
      </trkpt>
      <trkpt lat="45.05676" lon="6.28007">
        <ele>1756</ele>
        <time>2024-08-10T09:17:05Z</time>
      </trkpt>
      <trkpt lat="45.05679" lon="6.28007">
        <ele>1756</ele>
        <time>2024-08-10T09:17:06Z</time>
      </trkpt>
      <trkpt lat="45.05679" lon="6.28007">
        <ele>1755.8</ele>
        <time>2024-08-10T09:17:07Z</time>
      </trkpt>
      <trkpt lat="45.05682" lon="6.28007">
        <ele>1755.2</ele>
        <time>2024-08-10T09:17:08Z</time>
      </trkpt>
      <trkpt lat="45.05682" lon="6.28007">
        <ele>1755.2</ele>
        <time>2024-08-10T09:17:09Z</time>
      </trkpt>
      <trkpt lat="45.05685" lon="6.28007">
        <ele>1755.2</ele>
        <time>2024-08-10T09:17:10Z</time>
      </trkpt>
      <trkpt lat="45.05685" lon="6.28007">
        <ele>1755.2</ele>
        <time>2024-08-10T09:17:11Z</time>
      </trkpt>
      <trkpt lat="45.05687" lon="6.28007">
        <ele>1754.8</ele>
        <time>2024-08-10T09:17:12Z</time>
      </trkpt>
      <trkpt lat="45.05687" lon="6.28007">
        <ele>1754.6</ele>
        <time>2024-08-10T09:17:13Z</time>
      </trkpt>
      <trkpt lat="45.0569" lon="6.28007">
        <ele>1754.2</ele>
        <time>2024-08-10T09:17:14Z</time>
      </trkpt>
      <trkpt lat="45.0569" lon="6.28007">
        <ele>1754</ele>
        <time>2024-08-10T09:17:15Z</time>
      </trkpt>
      <trkpt lat="45.05693" lon="6.28007">
        <ele>1754</ele>
        <time>2024-08-10T09:17:16Z</time>
      </trkpt>
      <trkpt lat="45.05693" lon="6.28007">
        <ele>1754</ele>
        <time>2024-08-10T09:17:17Z</time>
      </trkpt>
      <trkpt lat="45.05695" lon="6.28007">
        <ele>1753.8</ele>
        <time>2024-08-10T09:17:18Z</time>
      </trkpt>
      <trkpt lat="45.05695" lon="6.28007">
        <ele>1753.8</ele>
        <time>2024-08-10T09:17:19Z</time>
      </trkpt>
      <trkpt lat="45.05698" lon="6.28008">
        <ele>1753.8</ele>
        <time>2024-08-10T09:17:20Z</time>
      </trkpt>
      <trkpt lat="45.05698" lon="6.28008">
        <ele>1753.8</ele>
        <time>2024-08-10T09:17:21Z</time>
      </trkpt>
      <trkpt lat="45.05701" lon="6.28009">
        <ele>1754</ele>
        <time>2024-08-10T09:17:22Z</time>
      </trkpt>
      <trkpt lat="45.05701" lon="6.28009">
        <ele>1754.2</ele>
        <time>2024-08-10T09:17:23Z</time>
      </trkpt>
      <trkpt lat="45.05703" lon="6.28011">
        <ele>1754.2</ele>
        <time>2024-08-10T09:17:24Z</time>
      </trkpt>
      <trkpt lat="45.05703" lon="6.28011">
        <ele>1754.2</ele>
        <time>2024-08-10T09:17:25Z</time>
      </trkpt>
      <trkpt lat="45.05705" lon="6.28014">
        <ele>1754.2</ele>
        <time>2024-08-10T09:17:26Z</time>
      </trkpt>
      <trkpt lat="45.05705" lon="6.28014">
        <ele>1754.6</ele>
        <time>2024-08-10T09:17:27Z</time>
      </trkpt>
      <trkpt lat="45.05705" lon="6.28017">
        <ele>1754.6</ele>
        <time>2024-08-10T09:17:28Z</time>
      </trkpt>
      <trkpt lat="45.05705" lon="6.28017">
        <ele>1754.4</ele>
        <time>2024-08-10T09:17:29Z</time>
      </trkpt>
      <trkpt lat="45.05705" lon="6.28021">
        <ele>1754.4</ele>
        <time>2024-08-10T09:17:30Z</time>
      </trkpt>
      <trkpt lat="45.05705" lon="6.28021">
        <ele>1754.4</ele>
        <time>2024-08-10T09:17:31Z</time>
      </trkpt>
      <trkpt lat="45.05705" lon="6.28021">
        <ele>1754.2</ele>
        <time>2024-08-10T09:17:32Z</time>
      </trkpt>
      <trkpt lat="45.05706" lon="6.28024">
        <ele>1754</ele>
        <time>2024-08-10T09:17:33Z</time>
      </trkpt>
      <trkpt lat="45.05706" lon="6.28024">
        <ele>1754</ele>
        <time>2024-08-10T09:17:34Z</time>
      </trkpt>
      <trkpt lat="45.05707" lon="6.28027">
        <ele>1754</ele>
        <time>2024-08-10T09:17:35Z</time>
      </trkpt>
      <trkpt lat="45.05707" lon="6.28027">
        <ele>1754</ele>
        <time>2024-08-10T09:17:36Z</time>
      </trkpt>
      <trkpt lat="45.05707" lon="6.28031">
        <ele>1754</ele>
        <time>2024-08-10T09:17:37Z</time>
      </trkpt>
      <trkpt lat="45.05707" lon="6.28031">
        <ele>1754</ele>
        <time>2024-08-10T09:17:38Z</time>
      </trkpt>
      <trkpt lat="45.05707" lon="6.28034">
        <ele>1754</ele>
        <time>2024-08-10T09:17:39Z</time>
      </trkpt>
      <trkpt lat="45.05707" lon="6.28034">
        <ele>1754</ele>
        <time>2024-08-10T09:17:40Z</time>
      </trkpt>
      <trkpt lat="45.05707" lon="6.28037">
        <ele>1754</ele>
        <time>2024-08-10T09:17:41Z</time>
      </trkpt>
      <trkpt lat="45.05707" lon="6.28037">
        <ele>1754</ele>
        <time>2024-08-10T09:17:42Z</time>
      </trkpt>
      <trkpt lat="45.05707" lon="6.28037">
        <ele>1754</ele>
        <time>2024-08-10T09:17:43Z</time>
      </trkpt>
      <trkpt lat="45.05707" lon="6.28037">
        <ele>1753.8</ele>
        <time>2024-08-10T09:17:44Z</time>
      </trkpt>
      <trkpt lat="45.05707" lon="6.28037">
        <ele>1754</ele>
        <time>2024-08-10T09:17:45Z</time>
      </trkpt>
      <trkpt lat="45.05707" lon="6.28037">
        <ele>1754</ele>
        <time>2024-08-10T09:17:46Z</time>
      </trkpt>
      <trkpt lat="45.05707" lon="6.28041">
        <ele>1754.2</ele>
        <time>2024-08-10T09:17:47Z</time>
      </trkpt>
      <trkpt lat="45.05707" lon="6.28041">
        <ele>1754.2</ele>
        <time>2024-08-10T09:17:48Z</time>
      </trkpt>
      <trkpt lat="45.05705" lon="6.28044">
        <ele>1754.6</ele>
        <time>2024-08-10T09:17:49Z</time>
      </trkpt>
      <trkpt lat="45.05705" lon="6.28044">
        <ele>1754.6</ele>
        <time>2024-08-10T09:17:50Z</time>
      </trkpt>
      <trkpt lat="45.05702" lon="6.28046">
        <ele>1754.6</ele>
        <time>2024-08-10T09:17:51Z</time>
      </trkpt>
      <trkpt lat="45.05702" lon="6.28046">
        <ele>1754.4</ele>
        <time>2024-08-10T09:17:52Z</time>
      </trkpt>
      <trkpt lat="45.057" lon="6.28048">
        <ele>1754.4</ele>
        <time>2024-08-10T09:17:53Z</time>
      </trkpt>
      <trkpt lat="45.057" lon="6.28048">
        <ele>1754.4</ele>
        <time>2024-08-10T09:17:54Z</time>
      </trkpt>
      <trkpt lat="45.057" lon="6.28048">
        <ele>1754.4</ele>
        <time>2024-08-10T09:17:55Z</time>
      </trkpt>
      <trkpt lat="45.05698" lon="6.28051">
        <ele>1754.4</ele>
        <time>2024-08-10T09:17:56Z</time>
      </trkpt>
      <trkpt lat="45.05698" lon="6.28051">
        <ele>1754.6</ele>
        <time>2024-08-10T09:17:57Z</time>
      </trkpt>
      <trkpt lat="45.05698" lon="6.28051">
        <ele>1754.8</ele>
        <time>2024-08-10T09:17:58Z</time>
      </trkpt>
      <trkpt lat="45.05696" lon="6.28053">
        <ele>1755</ele>
        <time>2024-08-10T09:17:59Z</time>
      </trkpt>
      <trkpt lat="45.05696" lon="6.28053">
        <ele>1755</ele>
        <time>2024-08-10T09:18:00Z</time>
      </trkpt>
      <trkpt lat="45.05696" lon="6.28053">
        <ele>1755</ele>
        <time>2024-08-10T09:18:01Z</time>
      </trkpt>
      <trkpt lat="45.05695" lon="6.28055">
        <ele>1755</ele>
        <time>2024-08-10T09:18:02Z</time>
      </trkpt>
      <trkpt lat="45.05695" lon="6.28055">
        <ele>1755</ele>
        <time>2024-08-10T09:18:03Z</time>
      </trkpt>
      <trkpt lat="45.05694" lon="6.28058">
        <ele>1755</ele>
        <time>2024-08-10T09:18:04Z</time>
      </trkpt>
      <trkpt lat="45.05694" lon="6.28058">
        <ele>1755.4</ele>
        <time>2024-08-10T09:18:05Z</time>
      </trkpt>
      <trkpt lat="45.05694" lon="6.28058">
        <ele>1755.6</ele>
        <time>2024-08-10T09:18:06Z</time>
      </trkpt>
      <trkpt lat="45.05692" lon="6.28061">
        <ele>1756</ele>
        <time>2024-08-10T09:18:07Z</time>
      </trkpt>
      <trkpt lat="45.05692" lon="6.28061">
        <ele>1756</ele>
        <time>2024-08-10T09:18:08Z</time>
      </trkpt>
      <trkpt lat="45.0569" lon="6.28062">
        <ele>1756.2</ele>
        <time>2024-08-10T09:18:09Z</time>
      </trkpt>
      <trkpt lat="45.0569" lon="6.28062">
        <ele>1756.2</ele>
        <time>2024-08-10T09:18:10Z</time>
      </trkpt>
      <trkpt lat="45.05688" lon="6.28064">
        <ele>1756.2</ele>
        <time>2024-08-10T09:18:11Z</time>
      </trkpt>
      <trkpt lat="45.05688" lon="6.28064">
        <ele>1756.4</ele>
        <time>2024-08-10T09:18:12Z</time>
      </trkpt>
      <trkpt lat="45.05688" lon="6.28064">
        <ele>1757</ele>
        <time>2024-08-10T09:18:13Z</time>
      </trkpt>
      <trkpt lat="45.05687" lon="6.28067">
        <ele>1757.2</ele>
        <time>2024-08-10T09:18:14Z</time>
      </trkpt>
      <trkpt lat="45.05687" lon="6.28067">
        <ele>1757.2</ele>
        <time>2024-08-10T09:18:15Z</time>
      </trkpt>
      <trkpt lat="45.05685" lon="6.28069">
        <ele>1757.2</ele>
        <time>2024-08-10T09:18:16Z</time>
      </trkpt>
      <trkpt lat="45.05685" lon="6.28069">
        <ele>1757.2</ele>
        <time>2024-08-10T09:18:17Z</time>
      </trkpt>
      <trkpt lat="45.05684" lon="6.28071">
        <ele>1757.6</ele>
        <time>2024-08-10T09:18:18Z</time>
      </trkpt>
      <trkpt lat="45.05684" lon="6.28071">
        <ele>1757.6</ele>
        <time>2024-08-10T09:18:19Z</time>
      </trkpt>
      <trkpt lat="45.05682" lon="6.28073">
        <ele>1757.8</ele>
        <time>2024-08-10T09:18:20Z</time>
      </trkpt>
      <trkpt lat="45.05682" lon="6.28073">
        <ele>1757.8</ele>
        <time>2024-08-10T09:18:21Z</time>
      </trkpt>
      <trkpt lat="45.05682" lon="6.28073">
        <ele>1758</ele>
        <time>2024-08-10T09:18:22Z</time>
      </trkpt>
      <trkpt lat="45.0568" lon="6.28076">
        <ele>1758.2</ele>
        <time>2024-08-10T09:18:23Z</time>
      </trkpt>
      <trkpt lat="45.0568" lon="6.28076">
        <ele>1758.2</ele>
        <time>2024-08-10T09:18:24Z</time>
      </trkpt>
      <trkpt lat="45.0568" lon="6.28076">
        <ele>1758.2</ele>
        <time>2024-08-10T09:18:25Z</time>
      </trkpt>
      <trkpt lat="45.05679" lon="6.2808">
        <ele>1758.2</ele>
        <time>2024-08-10T09:18:26Z</time>
      </trkpt>
      <trkpt lat="45.05679" lon="6.2808">
        <ele>1758.4</ele>
        <time>2024-08-10T09:18:27Z</time>
      </trkpt>
      <trkpt lat="45.05678" lon="6.28082">
        <ele>1758.6</ele>
        <time>2024-08-10T09:18:28Z</time>
      </trkpt>
      <trkpt lat="45.05678" lon="6.28082">
        <ele>1758.8</ele>
        <time>2024-08-10T09:18:29Z</time>
      </trkpt>
      <trkpt lat="45.05678" lon="6.28082">
        <ele>1758.8</ele>
        <time>2024-08-10T09:18:30Z</time>
      </trkpt>
      <trkpt lat="45.05676" lon="6.28086">
        <ele>1758.8</ele>
        <time>2024-08-10T09:18:31Z</time>
      </trkpt>
      <trkpt lat="45.05676" lon="6.28086">
        <ele>1758.8</ele>
        <time>2024-08-10T09:18:32Z</time>
      </trkpt>
      <trkpt lat="45.05674" lon="6.28088">
        <ele>1759</ele>
        <time>2024-08-10T09:18:33Z</time>
      </trkpt>
      <trkpt lat="45.05674" lon="6.28088">
        <ele>1759.2</ele>
        <time>2024-08-10T09:18:34Z</time>
      </trkpt>
      <trkpt lat="45.05674" lon="6.28088">
        <ele>1759.2</ele>
        <time>2024-08-10T09:18:35Z</time>
      </trkpt>
      <trkpt lat="45.05673" lon="6.28092">
        <ele>1759.2</ele>
        <time>2024-08-10T09:18:36Z</time>
      </trkpt>
      <trkpt lat="45.05673" lon="6.28092">
        <ele>1759.2</ele>
        <time>2024-08-10T09:18:37Z</time>
      </trkpt>
      <trkpt lat="45.05672" lon="6.28095">
        <ele>1759.2</ele>
        <time>2024-08-10T09:18:38Z</time>
      </trkpt>
      <trkpt lat="45.05672" lon="6.28095">
        <ele>1759.6</ele>
        <time>2024-08-10T09:18:39Z</time>
      </trkpt>
      <trkpt lat="45.05671" lon="6.28097">
        <ele>1759.8</ele>
        <time>2024-08-10T09:18:40Z</time>
      </trkpt>
      <trkpt lat="45.05671" lon="6.28097">
        <ele>1759.8</ele>
        <time>2024-08-10T09:18:41Z</time>
      </trkpt>
      <trkpt lat="45.05669" lon="6.281">
        <ele>1760</ele>
        <time>2024-08-10T09:18:42Z</time>
      </trkpt>
      <trkpt lat="45.05669" lon="6.281">
        <ele>1760.2</ele>
        <time>2024-08-10T09:18:43Z</time>
      </trkpt>
      <trkpt lat="45.05668" lon="6.28102">
        <ele>1760.2</ele>
        <time>2024-08-10T09:18:44Z</time>
      </trkpt>
      <trkpt lat="45.05668" lon="6.28102">
        <ele>1760.2</ele>
        <time>2024-08-10T09:18:45Z</time>
      </trkpt>
      <trkpt lat="45.05668" lon="6.28105">
        <ele>1760</ele>
        <time>2024-08-10T09:18:46Z</time>
      </trkpt>
      <trkpt lat="45.05668" lon="6.28105">
        <ele>1760.2</ele>
        <time>2024-08-10T09:18:47Z</time>
      </trkpt>
      <trkpt lat="45.05666" lon="6.28107">
        <ele>1760.2</ele>
        <time>2024-08-10T09:18:48Z</time>
      </trkpt>
      <trkpt lat="45.05666" lon="6.28107">
        <ele>1760.6</ele>
        <time>2024-08-10T09:18:49Z</time>
      </trkpt>
      <trkpt lat="45.05666" lon="6.28107">
        <ele>1760.6</ele>
        <time>2024-08-10T09:18:50Z</time>
      </trkpt>
      <trkpt lat="45.05666" lon="6.2811">
        <ele>1760.6</ele>
        <time>2024-08-10T09:18:51Z</time>
      </trkpt>
      <trkpt lat="45.05666" lon="6.2811">
        <ele>1761</ele>
        <time>2024-08-10T09:18:52Z</time>
      </trkpt>
      <trkpt lat="45.05665" lon="6.28113">
        <ele>1761.2</ele>
        <time>2024-08-10T09:18:53Z</time>
      </trkpt>
      <trkpt lat="45.05665" lon="6.28113">
        <ele>1761.2</ele>
        <time>2024-08-10T09:18:54Z</time>
      </trkpt>
      <trkpt lat="45.05664" lon="6.28115">
        <ele>1761.4</ele>
        <time>2024-08-10T09:18:55Z</time>
      </trkpt>
      <trkpt lat="45.05664" lon="6.28115">
        <ele>1761.8</ele>
        <time>2024-08-10T09:18:56Z</time>
      </trkpt>
      <trkpt lat="45.05662" lon="6.28117">
        <ele>1761.8</ele>
        <time>2024-08-10T09:18:57Z</time>
      </trkpt>
      <trkpt lat="45.05662" lon="6.28117">
        <ele>1761.6</ele>
        <time>2024-08-10T09:18:58Z</time>
      </trkpt>
      <trkpt lat="45.05661" lon="6.28119">
        <ele>1761.6</ele>
        <time>2024-08-10T09:18:59Z</time>
      </trkpt>
      <trkpt lat="45.05661" lon="6.28119">
        <ele>1761.8</ele>
        <time>2024-08-10T09:19:00Z</time>
      </trkpt>
      <trkpt lat="45.0566" lon="6.28122">
        <ele>1761.8</ele>
        <time>2024-08-10T09:19:01Z</time>
      </trkpt>
      <trkpt lat="45.0566" lon="6.28122">
        <ele>1762</ele>
        <time>2024-08-10T09:19:02Z</time>
      </trkpt>
      <trkpt lat="45.0566" lon="6.28122">
        <ele>1762.2</ele>
        <time>2024-08-10T09:19:03Z</time>
      </trkpt>
      <trkpt lat="45.05658" lon="6.28125">
        <ele>1762.2</ele>
        <time>2024-08-10T09:19:04Z</time>
      </trkpt>
      <trkpt lat="45.05658" lon="6.28125">
        <ele>1762.2</ele>
        <time>2024-08-10T09:19:05Z</time>
      </trkpt>
      <trkpt lat="45.05656" lon="6.28128">
        <ele>1762.2</ele>
        <time>2024-08-10T09:19:06Z</time>
      </trkpt>
      <trkpt lat="45.05656" lon="6.28128">
        <ele>1762.4</ele>
        <time>2024-08-10T09:19:07Z</time>
      </trkpt>
      <trkpt lat="45.05656" lon="6.28128">
        <ele>1762.8</ele>
        <time>2024-08-10T09:19:08Z</time>
      </trkpt>
      <trkpt lat="45.05655" lon="6.28131">
        <ele>1762.8</ele>
        <time>2024-08-10T09:19:09Z</time>
      </trkpt>
      <trkpt lat="45.05655" lon="6.28131">
        <ele>1762.8</ele>
        <time>2024-08-10T09:19:10Z</time>
      </trkpt>
      <trkpt lat="45.05655" lon="6.28131">
        <ele>1762.8</ele>
        <time>2024-08-10T09:19:11Z</time>
      </trkpt>
      <trkpt lat="45.05653" lon="6.28134">
        <ele>1762.8</ele>
        <time>2024-08-10T09:19:12Z</time>
      </trkpt>
      <trkpt lat="45.05653" lon="6.28134">
        <ele>1763</ele>
        <time>2024-08-10T09:19:13Z</time>
      </trkpt>
      <trkpt lat="45.05652" lon="6.28136">
        <ele>1763.2</ele>
        <time>2024-08-10T09:19:14Z</time>
      </trkpt>
      <trkpt lat="45.05652" lon="6.28136">
        <ele>1763.6</ele>
        <time>2024-08-10T09:19:15Z</time>
      </trkpt>
      <trkpt lat="45.05651" lon="6.28138">
        <ele>1764</ele>
        <time>2024-08-10T09:19:16Z</time>
      </trkpt>
      <trkpt lat="45.05651" lon="6.28138">
        <ele>1764.2</ele>
        <time>2024-08-10T09:19:17Z</time>
      </trkpt>
      <trkpt lat="45.0565" lon="6.28141">
        <ele>1764.2</ele>
        <time>2024-08-10T09:19:18Z</time>
      </trkpt>
      <trkpt lat="45.0565" lon="6.28141">
        <ele>1764.4</ele>
        <time>2024-08-10T09:19:19Z</time>
      </trkpt>
      <trkpt lat="45.05648" lon="6.28143">
        <ele>1764.6</ele>
        <time>2024-08-10T09:19:20Z</time>
      </trkpt>
      <trkpt lat="45.05648" lon="6.28143">
        <ele>1764.6</ele>
        <time>2024-08-10T09:19:21Z</time>
      </trkpt>
      <trkpt lat="45.05646" lon="6.28145">
        <ele>1764.6</ele>
        <time>2024-08-10T09:19:22Z</time>
      </trkpt>
      <trkpt lat="45.05646" lon="6.28145">
        <ele>1764.6</ele>
        <time>2024-08-10T09:19:23Z</time>
      </trkpt>
      <trkpt lat="45.05645" lon="6.28148">
        <ele>1765.4</ele>
        <time>2024-08-10T09:19:24Z</time>
      </trkpt>
      <trkpt lat="45.05645" lon="6.28148">
        <ele>1765.6</ele>
        <time>2024-08-10T09:19:25Z</time>
      </trkpt>
      <trkpt lat="45.05644" lon="6.2815">
        <ele>1765.6</ele>
        <time>2024-08-10T09:19:26Z</time>
      </trkpt>
      <trkpt lat="45.05644" lon="6.2815">
        <ele>1765.6</ele>
        <time>2024-08-10T09:19:27Z</time>
      </trkpt>
      <trkpt lat="45.05642" lon="6.28152">
        <ele>1765.6</ele>
        <time>2024-08-10T09:19:28Z</time>
      </trkpt>
      <trkpt lat="45.05642" lon="6.28152">
        <ele>1765.8</ele>
        <time>2024-08-10T09:19:29Z</time>
      </trkpt>
      <trkpt lat="45.05641" lon="6.28154">
        <ele>1765.8</ele>
        <time>2024-08-10T09:19:30Z</time>
      </trkpt>
      <trkpt lat="45.05641" lon="6.28154">
        <ele>1766</ele>
        <time>2024-08-10T09:19:31Z</time>
      </trkpt>
      <trkpt lat="45.0564" lon="6.28156">
        <ele>1766.2</ele>
        <time>2024-08-10T09:19:32Z</time>
      </trkpt>
      <trkpt lat="45.0564" lon="6.28156">
        <ele>1766.2</ele>
        <time>2024-08-10T09:19:33Z</time>
      </trkpt>
      <trkpt lat="45.05638" lon="6.28158">
        <ele>1766.4</ele>
        <time>2024-08-10T09:19:34Z</time>
      </trkpt>
      <trkpt lat="45.05638" lon="6.28158">
        <ele>1766.4</ele>
        <time>2024-08-10T09:19:35Z</time>
      </trkpt>
      <trkpt lat="45.05637" lon="6.2816">
        <ele>1766.6</ele>
        <time>2024-08-10T09:19:36Z</time>
      </trkpt>
      <trkpt lat="45.05637" lon="6.2816">
        <ele>1767</ele>
        <time>2024-08-10T09:19:37Z</time>
      </trkpt>
      <trkpt lat="45.05636" lon="6.28163">
        <ele>1767</ele>
        <time>2024-08-10T09:19:38Z</time>
      </trkpt>
      <trkpt lat="45.05636" lon="6.28163">
        <ele>1767</ele>
        <time>2024-08-10T09:19:39Z</time>
      </trkpt>
      <trkpt lat="45.05636" lon="6.28163">
        <ele>1767</ele>
        <time>2024-08-10T09:19:40Z</time>
      </trkpt>
      <trkpt lat="45.05636" lon="6.28163">
        <ele>1767</ele>
        <time>2024-08-10T09:19:41Z</time>
      </trkpt>
      <trkpt lat="45.05636" lon="6.28163">
        <ele>1767</ele>
        <time>2024-08-10T09:19:42Z</time>
      </trkpt>
      <trkpt lat="45.05635" lon="6.28165">
        <ele>1767.6</ele>
        <time>2024-08-10T09:19:43Z</time>
      </trkpt>
      <trkpt lat="45.05635" lon="6.28165">
        <ele>1767.6</ele>
        <time>2024-08-10T09:19:44Z</time>
      </trkpt>
      <trkpt lat="45.05635" lon="6.28165">
        <ele>1767.8</ele>
        <time>2024-08-10T09:19:45Z</time>
      </trkpt>
      <trkpt lat="45.05635" lon="6.28165">
        <ele>1767.8</ele>
        <time>2024-08-10T09:19:46Z</time>
      </trkpt>
      <trkpt lat="45.05635" lon="6.28165">
        <ele>1767.8</ele>
        <time>2024-08-10T09:19:47Z</time>
      </trkpt>
      <trkpt lat="45.05635" lon="6.28165">
        <ele>1767.8</ele>
        <time>2024-08-10T09:19:48Z</time>
      </trkpt>
      <trkpt lat="45.05635" lon="6.28165">
        <ele>1767.8</ele>
        <time>2024-08-10T09:19:49Z</time>
      </trkpt>
      <trkpt lat="45.05635" lon="6.28165">
        <ele>1767.8</ele>
        <time>2024-08-10T09:19:50Z</time>
      </trkpt>
      <trkpt lat="45.05635" lon="6.28165">
        <ele>1767.8</ele>
        <time>2024-08-10T09:19:51Z</time>
      </trkpt>
      <trkpt lat="45.05635" lon="6.28165">
        <ele>1768</ele>
        <time>2024-08-10T09:19:52Z</time>
      </trkpt>
      <trkpt lat="45.05635" lon="6.28165">
        <ele>1768</ele>
        <time>2024-08-10T09:19:53Z</time>
      </trkpt>
      <trkpt lat="45.05635" lon="6.28165">
        <ele>1768</ele>
        <time>2024-08-10T09:19:54Z</time>
      </trkpt>
      <trkpt lat="45.05635" lon="6.28165">
        <ele>1768.2</ele>
        <time>2024-08-10T09:19:55Z</time>
      </trkpt>
      <trkpt lat="45.05635" lon="6.28165">
        <ele>1768.2</ele>
        <time>2024-08-10T09:19:56Z</time>
      </trkpt>
      <trkpt lat="45.05635" lon="6.28165">
        <ele>1768</ele>
        <time>2024-08-10T09:19:57Z</time>
      </trkpt>
      <trkpt lat="45.05635" lon="6.28165">
        <ele>1768</ele>
        <time>2024-08-10T09:19:58Z</time>
      </trkpt>
      <trkpt lat="45.05635" lon="6.28165">
        <ele>1768</ele>
        <time>2024-08-10T09:19:59Z</time>
      </trkpt>
      <trkpt lat="45.05635" lon="6.28165">
        <ele>1768</ele>
        <time>2024-08-10T09:20:00Z</time>
      </trkpt>
      <trkpt lat="45.05633" lon="6.28168">
        <ele>1768</ele>
        <time>2024-08-10T09:20:01Z</time>
      </trkpt>
      <trkpt lat="45.05633" lon="6.28168">
        <ele>1768.2</ele>
        <time>2024-08-10T09:20:02Z</time>
      </trkpt>
      <trkpt lat="45.05631" lon="6.28171">
        <ele>1768.2</ele>
        <time>2024-08-10T09:20:03Z</time>
      </trkpt>
      <trkpt lat="45.05631" lon="6.28171">
        <ele>1768.6</ele>
        <time>2024-08-10T09:20:04Z</time>
      </trkpt>
      <trkpt lat="45.05629" lon="6.28174">
        <ele>1768.8</ele>
        <time>2024-08-10T09:20:05Z</time>
      </trkpt>
      <trkpt lat="45.05629" lon="6.28174">
        <ele>1769</ele>
        <time>2024-08-10T09:20:06Z</time>
      </trkpt>
      <trkpt lat="45.05628" lon="6.28177">
        <ele>1769</ele>
        <time>2024-08-10T09:20:07Z</time>
      </trkpt>
      <trkpt lat="45.05628" lon="6.28177">
        <ele>1769</ele>
        <time>2024-08-10T09:20:08Z</time>
      </trkpt>
      <trkpt lat="45.05627" lon="6.28181">
        <ele>1769</ele>
        <time>2024-08-10T09:20:09Z</time>
      </trkpt>
      <trkpt lat="45.05627" lon="6.28181">
        <ele>1769</ele>
        <time>2024-08-10T09:20:10Z</time>
      </trkpt>
      <trkpt lat="45.05626" lon="6.28184">
        <ele>1769</ele>
        <time>2024-08-10T09:20:11Z</time>
      </trkpt>
      <trkpt lat="45.05626" lon="6.28184">
        <ele>1769.2</ele>
        <time>2024-08-10T09:20:12Z</time>
      </trkpt>
      <trkpt lat="45.05624" lon="6.28187">
        <ele>1769</ele>
        <time>2024-08-10T09:20:13Z</time>
      </trkpt>
      <trkpt lat="45.05624" lon="6.28187">
        <ele>1768.8</ele>
        <time>2024-08-10T09:20:14Z</time>
      </trkpt>
      <trkpt lat="45.05622" lon="6.2819">
        <ele>1768.8</ele>
        <time>2024-08-10T09:20:15Z</time>
      </trkpt>
      <trkpt lat="45.05622" lon="6.2819">
        <ele>1769.2</ele>
        <time>2024-08-10T09:20:16Z</time>
      </trkpt>
      <trkpt lat="45.0562" lon="6.28192">
        <ele>1769.2</ele>
        <time>2024-08-10T09:20:17Z</time>
      </trkpt>
      <trkpt lat="45.0562" lon="6.28192">
        <ele>1769.2</ele>
        <time>2024-08-10T09:20:18Z</time>
      </trkpt>
      <trkpt lat="45.05618" lon="6.28195">
        <ele>1769.4</ele>
        <time>2024-08-10T09:20:19Z</time>
      </trkpt>
      <trkpt lat="45.05618" lon="6.28195">
        <ele>1769.4</ele>
        <time>2024-08-10T09:20:20Z</time>
      </trkpt>
      <trkpt lat="45.05616" lon="6.28198">
        <ele>1769.4</ele>
        <time>2024-08-10T09:20:21Z</time>
      </trkpt>
      <trkpt lat="45.05614" lon="6.28199">
        <ele>1769.2</ele>
        <time>2024-08-10T09:20:22Z</time>
      </trkpt>
      <trkpt lat="45.05614" lon="6.28199">
        <ele>1769</ele>
        <time>2024-08-10T09:20:23Z</time>
      </trkpt>
      <trkpt lat="45.05613" lon="6.28202">
        <ele>1768.8</ele>
        <time>2024-08-10T09:20:24Z</time>
      </trkpt>
      <trkpt lat="45.05613" lon="6.28202">
        <ele>1768.6</ele>
        <time>2024-08-10T09:20:25Z</time>
      </trkpt>
      <trkpt lat="45.05611" lon="6.28205">
        <ele>1768.4</ele>
        <time>2024-08-10T09:20:26Z</time>
      </trkpt>
      <trkpt lat="45.05611" lon="6.28205">
        <ele>1768.4</ele>
        <time>2024-08-10T09:20:27Z</time>
      </trkpt>
      <trkpt lat="45.05609" lon="6.28207">
        <ele>1768.4</ele>
        <time>2024-08-10T09:20:28Z</time>
      </trkpt>
      <trkpt lat="45.05609" lon="6.28207">
        <ele>1768.2</ele>
        <time>2024-08-10T09:20:29Z</time>
      </trkpt>
      <trkpt lat="45.05607" lon="6.2821">
        <ele>1768.2</ele>
        <time>2024-08-10T09:20:30Z</time>
      </trkpt>
      <trkpt lat="45.05607" lon="6.2821">
        <ele>1768.2</ele>
        <time>2024-08-10T09:20:31Z</time>
      </trkpt>
      <trkpt lat="45.05605" lon="6.28214">
        <ele>1768.2</ele>
        <time>2024-08-10T09:20:32Z</time>
      </trkpt>
      <trkpt lat="45.05605" lon="6.28214">
        <ele>1768.2</ele>
        <time>2024-08-10T09:20:33Z</time>
      </trkpt>
      <trkpt lat="45.05604" lon="6.28217">
        <ele>1768.2</ele>
        <time>2024-08-10T09:20:34Z</time>
      </trkpt>
      <trkpt lat="45.05604" lon="6.28217">
        <ele>1768.2</ele>
        <time>2024-08-10T09:20:35Z</time>
      </trkpt>
      <trkpt lat="45.05602" lon="6.2822">
        <ele>1768</ele>
        <time>2024-08-10T09:20:36Z</time>
      </trkpt>
      <trkpt lat="45.05602" lon="6.2822">
        <ele>1768</ele>
        <time>2024-08-10T09:20:37Z</time>
      </trkpt>
      <trkpt lat="45.056" lon="6.28222">
        <ele>1767.8</ele>
        <time>2024-08-10T09:20:38Z</time>
      </trkpt>
      <trkpt lat="45.056" lon="6.28222">
        <ele>1767.8</ele>
        <time>2024-08-10T09:20:39Z</time>
      </trkpt>
      <trkpt lat="45.05599" lon="6.28225">
        <ele>1767.8</ele>
        <time>2024-08-10T09:20:40Z</time>
      </trkpt>
      <trkpt lat="45.05599" lon="6.28225">
        <ele>1767.8</ele>
        <time>2024-08-10T09:20:41Z</time>
      </trkpt>
      <trkpt lat="45.05599" lon="6.28228">
        <ele>1767.6</ele>
        <time>2024-08-10T09:20:42Z</time>
      </trkpt>
      <trkpt lat="45.05599" lon="6.28228">
        <ele>1767.4</ele>
        <time>2024-08-10T09:20:43Z</time>
      </trkpt>
      <trkpt lat="45.05599" lon="6.28228">
        <ele>1767.4</ele>
        <time>2024-08-10T09:20:44Z</time>
      </trkpt>
      <trkpt lat="45.05599" lon="6.28228">
        <ele>1767.6</ele>
        <time>2024-08-10T09:20:45Z</time>
      </trkpt>
      <trkpt lat="45.05599" lon="6.28228">
        <ele>1767.6</ele>
        <time>2024-08-10T09:20:46Z</time>
      </trkpt>
      <trkpt lat="45.05599" lon="6.28228">
        <ele>1767.8</ele>
        <time>2024-08-10T09:20:47Z</time>
      </trkpt>
      <trkpt lat="45.05599" lon="6.28228">
        <ele>1767.8</ele>
        <time>2024-08-10T09:20:48Z</time>
      </trkpt>
      <trkpt lat="45.05597" lon="6.2823">
        <ele>1767.8</ele>
        <time>2024-08-10T09:20:49Z</time>
      </trkpt>
      <trkpt lat="45.05597" lon="6.2823">
        <ele>1767.6</ele>
        <time>2024-08-10T09:20:50Z</time>
      </trkpt>
      <trkpt lat="45.05597" lon="6.2823">
        <ele>1767.6</ele>
        <time>2024-08-10T09:20:51Z</time>
      </trkpt>
      <trkpt lat="45.05596" lon="6.28231">
        <ele>1767.6</ele>
        <time>2024-08-10T09:20:52Z</time>
      </trkpt>
      <trkpt lat="45.05596" lon="6.28231">
        <ele>1767.6</ele>
        <time>2024-08-10T09:20:53Z</time>
      </trkpt>
      <trkpt lat="45.05596" lon="6.28231">
        <ele>1768.2</ele>
        <time>2024-08-10T09:20:54Z</time>
      </trkpt>
      <trkpt lat="45.05596" lon="6.28231">
        <ele>1768.2</ele>
        <time>2024-08-10T09:20:55Z</time>
      </trkpt>
      <trkpt lat="45.05596" lon="6.28231">
        <ele>1768</ele>
        <time>2024-08-10T09:20:56Z</time>
      </trkpt>
      <trkpt lat="45.05596" lon="6.28231">
        <ele>1768</ele>
        <time>2024-08-10T09:20:57Z</time>
      </trkpt>
      <trkpt lat="45.05596" lon="6.28231">
        <ele>1768</ele>
        <time>2024-08-10T09:20:58Z</time>
      </trkpt>
      <trkpt lat="45.05596" lon="6.28231">
        <ele>1768.2</ele>
        <time>2024-08-10T09:20:59Z</time>
      </trkpt>
      <trkpt lat="45.05596" lon="6.28231">
        <ele>1768.2</ele>
        <time>2024-08-10T09:21:00Z</time>
      </trkpt>
      <trkpt lat="45.05596" lon="6.28231">
        <ele>1768.6</ele>
        <time>2024-08-10T09:21:01Z</time>
      </trkpt>
      <trkpt lat="45.05596" lon="6.28231">
        <ele>1768.8</ele>
        <time>2024-08-10T09:21:02Z</time>
      </trkpt>
      <trkpt lat="45.05596" lon="6.28231">
        <ele>1768.6</ele>
        <time>2024-08-10T09:21:03Z</time>
      </trkpt>
      <trkpt lat="45.05596" lon="6.28231">
        <ele>1768.6</ele>
        <time>2024-08-10T09:21:04Z</time>
      </trkpt>
      <trkpt lat="45.05596" lon="6.28231">
        <ele>1768.8</ele>
        <time>2024-08-10T09:21:05Z</time>
      </trkpt>
      <trkpt lat="45.05596" lon="6.28231">
        <ele>1768.8</ele>
        <time>2024-08-10T09:21:06Z</time>
      </trkpt>
      <trkpt lat="45.05596" lon="6.28231">
        <ele>1768.8</ele>
        <time>2024-08-10T09:21:07Z</time>
      </trkpt>
      <trkpt lat="45.05596" lon="6.28231">
        <ele>1768.6</ele>
        <time>2024-08-10T09:21:08Z</time>
      </trkpt>
      <trkpt lat="45.05596" lon="6.28231">
        <ele>1768.6</ele>
        <time>2024-08-10T09:21:09Z</time>
      </trkpt>
      <trkpt lat="45.05596" lon="6.28231">
        <ele>1769.2</ele>
        <time>2024-08-10T09:21:10Z</time>
      </trkpt>
      <trkpt lat="45.05596" lon="6.28231">
        <ele>1769.2</ele>
        <time>2024-08-10T09:21:11Z</time>
      </trkpt>
      <trkpt lat="45.05596" lon="6.28231">
        <ele>1769.2</ele>
        <time>2024-08-10T09:21:12Z</time>
      </trkpt>
      <trkpt lat="45.05596" lon="6.28231">
        <ele>1769.2</ele>
        <time>2024-08-10T09:21:13Z</time>
      </trkpt>
      <trkpt lat="45.05596" lon="6.28231">
        <ele>1769.6</ele>
        <time>2024-08-10T09:21:14Z</time>
      </trkpt>
      <trkpt lat="45.05596" lon="6.28231">
        <ele>1769.6</ele>
        <time>2024-08-10T09:21:15Z</time>
      </trkpt>
      <trkpt lat="45.05596" lon="6.28231">
        <ele>1769.4</ele>
        <time>2024-08-10T09:21:16Z</time>
      </trkpt>
      <trkpt lat="45.05596" lon="6.28231">
        <ele>1768.8</ele>
        <time>2024-08-10T09:21:17Z</time>
      </trkpt>
      <trkpt lat="45.05596" lon="6.28231">
        <ele>1768.8</ele>
        <time>2024-08-10T09:21:18Z</time>
      </trkpt>
      <trkpt lat="45.05597" lon="6.28229">
        <ele>1768.8</ele>
        <time>2024-08-10T09:21:19Z</time>
      </trkpt>
      <trkpt lat="45.05597" lon="6.28229">
        <ele>1768.2</ele>
        <time>2024-08-10T09:21:20Z</time>
      </trkpt>
      <trkpt lat="45.05597" lon="6.28229">
        <ele>1768.2</ele>
        <time>2024-08-10T09:21:21Z</time>
      </trkpt>
      <trkpt lat="45.056" lon="6.28227">
        <ele>1768.2</ele>
        <time>2024-08-10T09:21:22Z</time>
      </trkpt>
      <trkpt lat="45.056" lon="6.28227">
        <ele>1768.2</ele>
        <time>2024-08-10T09:21:23Z</time>
      </trkpt>
      <trkpt lat="45.056" lon="6.28227">
        <ele>1768.2</ele>
        <time>2024-08-10T09:21:24Z</time>
      </trkpt>
      <trkpt lat="45.056" lon="6.28227">
        <ele>1768.2</ele>
        <time>2024-08-10T09:21:25Z</time>
      </trkpt>
      <trkpt lat="45.056" lon="6.28227">
        <ele>1768.2</ele>
        <time>2024-08-10T09:21:26Z</time>
      </trkpt>
      <trkpt lat="45.056" lon="6.28227">
        <ele>1768.6</ele>
        <time>2024-08-10T09:21:27Z</time>
      </trkpt>
      <trkpt lat="45.056" lon="6.28227">
        <ele>1768.6</ele>
        <time>2024-08-10T09:21:28Z</time>
      </trkpt>
      <trkpt lat="45.056" lon="6.28227">
        <ele>1768.4</ele>
        <time>2024-08-10T09:21:29Z</time>
      </trkpt>
      <trkpt lat="45.056" lon="6.28227">
        <ele>1768.2</ele>
        <time>2024-08-10T09:21:30Z</time>
      </trkpt>
      <trkpt lat="45.056" lon="6.28227">
        <ele>1768.2</ele>
        <time>2024-08-10T09:21:31Z</time>
      </trkpt>
      <trkpt lat="45.056" lon="6.28227">
        <ele>1768.2</ele>
        <time>2024-08-10T09:21:32Z</time>
      </trkpt>
      <trkpt lat="45.056" lon="6.28227">
        <ele>1768</ele>
        <time>2024-08-10T09:21:33Z</time>
      </trkpt>
      <trkpt lat="45.056" lon="6.28227">
        <ele>1767.6</ele>
        <time>2024-08-10T09:21:34Z</time>
      </trkpt>
      <trkpt lat="45.056" lon="6.28227">
        <ele>1767.6</ele>
        <time>2024-08-10T09:21:35Z</time>
      </trkpt>
      <trkpt lat="45.056" lon="6.28227">
        <ele>1767.6</ele>
        <time>2024-08-10T09:21:36Z</time>
      </trkpt>
      <trkpt lat="45.056" lon="6.28227">
        <ele>1767.6</ele>
        <time>2024-08-10T09:21:37Z</time>
      </trkpt>
      <trkpt lat="45.056" lon="6.28227">
        <ele>1767.4</ele>
        <time>2024-08-10T09:21:38Z</time>
      </trkpt>
      <trkpt lat="45.056" lon="6.28227">
        <ele>1767.4</ele>
        <time>2024-08-10T09:21:39Z</time>
      </trkpt>
      <trkpt lat="45.056" lon="6.28227">
        <ele>1767.4</ele>
        <time>2024-08-10T09:21:40Z</time>
      </trkpt>
      <trkpt lat="45.056" lon="6.28227">
        <ele>1767.4</ele>
        <time>2024-08-10T09:21:41Z</time>
      </trkpt>
      <trkpt lat="45.056" lon="6.28227">
        <ele>1767.4</ele>
        <time>2024-08-10T09:21:42Z</time>
      </trkpt>
      <trkpt lat="45.056" lon="6.28227">
        <ele>1767.4</ele>
        <time>2024-08-10T09:21:43Z</time>
      </trkpt>
      <trkpt lat="45.056" lon="6.28227">
        <ele>1767.4</ele>
        <time>2024-08-10T09:21:44Z</time>
      </trkpt>
      <trkpt lat="45.056" lon="6.28227">
        <ele>1767.6</ele>
        <time>2024-08-10T09:21:45Z</time>
      </trkpt>
      <trkpt lat="45.056" lon="6.28227">
        <ele>1767.6</ele>
        <time>2024-08-10T09:21:46Z</time>
      </trkpt>
      <trkpt lat="45.056" lon="6.28227">
        <ele>1767.6</ele>
        <time>2024-08-10T09:21:47Z</time>
      </trkpt>
      <trkpt lat="45.056" lon="6.28227">
        <ele>1767.6</ele>
        <time>2024-08-10T09:21:48Z</time>
      </trkpt>
      <trkpt lat="45.056" lon="6.28227">
        <ele>1767.6</ele>
        <time>2024-08-10T09:21:49Z</time>
      </trkpt>
      <trkpt lat="45.056" lon="6.28227">
        <ele>1767.6</ele>
        <time>2024-08-10T09:21:50Z</time>
      </trkpt>
      <trkpt lat="45.056" lon="6.28227">
        <ele>1767.6</ele>
        <time>2024-08-10T09:21:51Z</time>
      </trkpt>
      <trkpt lat="45.056" lon="6.28227">
        <ele>1767.6</ele>
        <time>2024-08-10T09:21:52Z</time>
      </trkpt>
      <trkpt lat="45.056" lon="6.28227">
        <ele>1767.8</ele>
        <time>2024-08-10T09:21:53Z</time>
      </trkpt>
      <trkpt lat="45.056" lon="6.28227">
        <ele>1767.8</ele>
        <time>2024-08-10T09:21:54Z</time>
      </trkpt>
      <trkpt lat="45.056" lon="6.28227">
        <ele>1767.6</ele>
        <time>2024-08-10T09:21:55Z</time>
      </trkpt>
      <trkpt lat="45.056" lon="6.28227">
        <ele>1767.6</ele>
        <time>2024-08-10T09:21:56Z</time>
      </trkpt>
      <trkpt lat="45.056" lon="6.28227">
        <ele>1767.6</ele>
        <time>2024-08-10T09:21:57Z</time>
      </trkpt>
      <trkpt lat="45.056" lon="6.28227">
        <ele>1767.6</ele>
        <time>2024-08-10T09:21:58Z</time>
      </trkpt>
      <trkpt lat="45.056" lon="6.28227">
        <ele>1767.6</ele>
        <time>2024-08-10T09:21:59Z</time>
      </trkpt>
      <trkpt lat="45.056" lon="6.28227">
        <ele>1767.6</ele>
        <time>2024-08-10T09:22:00Z</time>
      </trkpt>
      <trkpt lat="45.056" lon="6.28227">
        <ele>1767.8</ele>
        <time>2024-08-10T09:22:01Z</time>
      </trkpt>
      <trkpt lat="45.056" lon="6.28227">
        <ele>1767.8</ele>
        <time>2024-08-10T09:22:02Z</time>
      </trkpt>
      <trkpt lat="45.056" lon="6.28227">
        <ele>1767.8</ele>
        <time>2024-08-10T09:22:03Z</time>
      </trkpt>
      <trkpt lat="45.056" lon="6.28227">
        <ele>1767.8</ele>
        <time>2024-08-10T09:22:04Z</time>
      </trkpt>
      <trkpt lat="45.056" lon="6.28227">
        <ele>1767.4</ele>
        <time>2024-08-10T09:22:05Z</time>
      </trkpt>
      <trkpt lat="45.056" lon="6.28227">
        <ele>1767.4</ele>
        <time>2024-08-10T09:22:06Z</time>
      </trkpt>
      <trkpt lat="45.056" lon="6.28227">
        <ele>1767.6</ele>
        <time>2024-08-10T09:22:07Z</time>
      </trkpt>
      <trkpt lat="45.056" lon="6.28227">
        <ele>1767.8</ele>
        <time>2024-08-10T09:22:08Z</time>
      </trkpt>
      <trkpt lat="45.056" lon="6.28227">
        <ele>1767.8</ele>
        <time>2024-08-10T09:22:09Z</time>
      </trkpt>
      <trkpt lat="45.056" lon="6.28227">
        <ele>1767.8</ele>
        <time>2024-08-10T09:22:10Z</time>
      </trkpt>
      <trkpt lat="45.056" lon="6.28227">
        <ele>1767.8</ele>
        <time>2024-08-10T09:22:11Z</time>
      </trkpt>
      <trkpt lat="45.056" lon="6.28227">
        <ele>1767.6</ele>
        <time>2024-08-10T09:22:12Z</time>
      </trkpt>
      <trkpt lat="45.056" lon="6.28227">
        <ele>1767.6</ele>
        <time>2024-08-10T09:22:13Z</time>
      </trkpt>
      <trkpt lat="45.056" lon="6.28227">
        <ele>1767.6</ele>
        <time>2024-08-10T09:22:14Z</time>
      </trkpt>
      <trkpt lat="45.056" lon="6.28227">
        <ele>1767.8</ele>
        <time>2024-08-10T09:22:15Z</time>
      </trkpt>
      <trkpt lat="45.056" lon="6.28227">
        <ele>1767.8</ele>
        <time>2024-08-10T09:22:16Z</time>
      </trkpt>
      <trkpt lat="45.056" lon="6.28227">
        <ele>1767.8</ele>
        <time>2024-08-10T09:22:17Z</time>
      </trkpt>
      <trkpt lat="45.056" lon="6.28227">
        <ele>1768</ele>
        <time>2024-08-10T09:22:18Z</time>
      </trkpt>
      <trkpt lat="45.056" lon="6.28227">
        <ele>1768</ele>
        <time>2024-08-10T09:22:19Z</time>
      </trkpt>
      <trkpt lat="45.056" lon="6.28227">
        <ele>1768</ele>
        <time>2024-08-10T09:22:20Z</time>
      </trkpt>
      <trkpt lat="45.056" lon="6.28227">
        <ele>1768.2</ele>
        <time>2024-08-10T09:22:21Z</time>
      </trkpt>
      <trkpt lat="45.056" lon="6.28227">
        <ele>1768.2</ele>
        <time>2024-08-10T09:22:22Z</time>
      </trkpt>
      <trkpt lat="45.056" lon="6.28227">
        <ele>1768</ele>
        <time>2024-08-10T09:22:23Z</time>
      </trkpt>
      <trkpt lat="45.056" lon="6.28227">
        <ele>1768</ele>
        <time>2024-08-10T09:22:24Z</time>
      </trkpt>
      <trkpt lat="45.056" lon="6.28227">
        <ele>1768</ele>
        <time>2024-08-10T09:22:25Z</time>
      </trkpt>
      <trkpt lat="45.056" lon="6.28227">
        <ele>1768</ele>
        <time>2024-08-10T09:22:26Z</time>
      </trkpt>
      <trkpt lat="45.056" lon="6.28227">
        <ele>1768</ele>
        <time>2024-08-10T09:22:27Z</time>
      </trkpt>
      <trkpt lat="45.056" lon="6.28227">
        <ele>1768</ele>
        <time>2024-08-10T09:22:28Z</time>
      </trkpt>
      <trkpt lat="45.056" lon="6.28227">
        <ele>1768.2</ele>
        <time>2024-08-10T09:22:29Z</time>
      </trkpt>
      <trkpt lat="45.056" lon="6.28227">
        <ele>1768.2</ele>
        <time>2024-08-10T09:22:30Z</time>
      </trkpt>
      <trkpt lat="45.056" lon="6.28227">
        <ele>1768.2</ele>
        <time>2024-08-10T09:22:31Z</time>
      </trkpt>
      <trkpt lat="45.056" lon="6.28227">
        <ele>1768.2</ele>
        <time>2024-08-10T09:22:32Z</time>
      </trkpt>
      <trkpt lat="45.056" lon="6.28227">
        <ele>1768.4</ele>
        <time>2024-08-10T09:22:33Z</time>
      </trkpt>
      <trkpt lat="45.056" lon="6.28227">
        <ele>1768.4</ele>
        <time>2024-08-10T09:22:34Z</time>
      </trkpt>
      <trkpt lat="45.056" lon="6.28227">
        <ele>1768.4</ele>
        <time>2024-08-10T09:22:35Z</time>
      </trkpt>
      <trkpt lat="45.056" lon="6.28227">
        <ele>1768.4</ele>
        <time>2024-08-10T09:22:36Z</time>
      </trkpt>
      <trkpt lat="45.056" lon="6.28227">
        <ele>1768.4</ele>
        <time>2024-08-10T09:22:37Z</time>
      </trkpt>
      <trkpt lat="45.056" lon="6.28227">
        <ele>1768.4</ele>
        <time>2024-08-10T09:22:38Z</time>
      </trkpt>
      <trkpt lat="45.056" lon="6.28227">
        <ele>1768.4</ele>
        <time>2024-08-10T09:22:39Z</time>
      </trkpt>
      <trkpt lat="45.056" lon="6.28227">
        <ele>1768.4</ele>
        <time>2024-08-10T09:22:40Z</time>
      </trkpt>
      <trkpt lat="45.056" lon="6.28227">
        <ele>1768.4</ele>
        <time>2024-08-10T09:22:41Z</time>
      </trkpt>
      <trkpt lat="45.056" lon="6.28227">
        <ele>1768.4</ele>
        <time>2024-08-10T09:22:42Z</time>
      </trkpt>
      <trkpt lat="45.056" lon="6.28227">
        <ele>1768.4</ele>
        <time>2024-08-10T09:22:43Z</time>
      </trkpt>
      <trkpt lat="45.056" lon="6.28227">
        <ele>1768.6</ele>
        <time>2024-08-10T09:22:44Z</time>
      </trkpt>
      <trkpt lat="45.056" lon="6.28227">
        <ele>1768.6</ele>
        <time>2024-08-10T09:22:45Z</time>
      </trkpt>
      <trkpt lat="45.056" lon="6.28227">
        <ele>1768.4</ele>
        <time>2024-08-10T09:22:46Z</time>
      </trkpt>
      <trkpt lat="45.056" lon="6.28227">
        <ele>1768.4</ele>
        <time>2024-08-10T09:22:47Z</time>
      </trkpt>
      <trkpt lat="45.056" lon="6.28227">
        <ele>1768.4</ele>
        <time>2024-08-10T09:22:48Z</time>
      </trkpt>
      <trkpt lat="45.056" lon="6.28227">
        <ele>1768.4</ele>
        <time>2024-08-10T09:22:49Z</time>
      </trkpt>
      <trkpt lat="45.056" lon="6.28227">
        <ele>1768.4</ele>
        <time>2024-08-10T09:22:50Z</time>
      </trkpt>
      <trkpt lat="45.056" lon="6.28227">
        <ele>1768.4</ele>
        <time>2024-08-10T09:22:51Z</time>
      </trkpt>
      <trkpt lat="45.056" lon="6.28227">
        <ele>1768.4</ele>
        <time>2024-08-10T09:22:52Z</time>
      </trkpt>
      <trkpt lat="45.056" lon="6.28227">
        <ele>1768.4</ele>
        <time>2024-08-10T09:22:53Z</time>
      </trkpt>
      <trkpt lat="45.056" lon="6.28227">
        <ele>1768.6</ele>
        <time>2024-08-10T09:22:54Z</time>
      </trkpt>
      <trkpt lat="45.056" lon="6.28227">
        <ele>1768.6</ele>
        <time>2024-08-10T09:22:55Z</time>
      </trkpt>
      <trkpt lat="45.056" lon="6.28227">
        <ele>1768.6</ele>
        <time>2024-08-10T09:22:56Z</time>
      </trkpt>
      <trkpt lat="45.056" lon="6.28227">
        <ele>1768.6</ele>
        <time>2024-08-10T09:22:57Z</time>
      </trkpt>
      <trkpt lat="45.056" lon="6.28227">
        <ele>1768.6</ele>
        <time>2024-08-10T09:22:58Z</time>
      </trkpt>
      <trkpt lat="45.056" lon="6.28227">
        <ele>1768.6</ele>
        <time>2024-08-10T09:22:59Z</time>
      </trkpt>
      <trkpt lat="45.056" lon="6.28227">
        <ele>1768.4</ele>
        <time>2024-08-10T09:23:00Z</time>
      </trkpt>
      <trkpt lat="45.056" lon="6.28227">
        <ele>1768.4</ele>
        <time>2024-08-10T09:23:01Z</time>
      </trkpt>
      <trkpt lat="45.056" lon="6.28227">
        <ele>1768.4</ele>
        <time>2024-08-10T09:23:02Z</time>
      </trkpt>
      <trkpt lat="45.056" lon="6.28227">
        <ele>1768.6</ele>
        <time>2024-08-10T09:23:03Z</time>
      </trkpt>
      <trkpt lat="45.056" lon="6.28227">
        <ele>1768.6</ele>
        <time>2024-08-10T09:23:04Z</time>
      </trkpt>
      <trkpt lat="45.056" lon="6.28227">
        <ele>1768.4</ele>
        <time>2024-08-10T09:23:05Z</time>
      </trkpt>
      <trkpt lat="45.056" lon="6.28227">
        <ele>1768.4</ele>
        <time>2024-08-10T09:23:06Z</time>
      </trkpt>
      <trkpt lat="45.056" lon="6.28227">
        <ele>1768.4</ele>
        <time>2024-08-10T09:23:07Z</time>
      </trkpt>
      <trkpt lat="45.056" lon="6.28227">
        <ele>1768.4</ele>
        <time>2024-08-10T09:23:08Z</time>
      </trkpt>
      <trkpt lat="45.056" lon="6.28227">
        <ele>1768.4</ele>
        <time>2024-08-10T09:23:09Z</time>
      </trkpt>
      <trkpt lat="45.056" lon="6.28227">
        <ele>1768.4</ele>
        <time>2024-08-10T09:23:10Z</time>
      </trkpt>
      <trkpt lat="45.056" lon="6.28227">
        <ele>1768.4</ele>
        <time>2024-08-10T09:23:11Z</time>
      </trkpt>
      <trkpt lat="45.056" lon="6.28227">
        <ele>1768.4</ele>
        <time>2024-08-10T09:23:12Z</time>
      </trkpt>
      <trkpt lat="45.056" lon="6.28227">
        <ele>1768.6</ele>
        <time>2024-08-10T09:23:13Z</time>
      </trkpt>
      <trkpt lat="45.056" lon="6.28227">
        <ele>1768.6</ele>
        <time>2024-08-10T09:23:14Z</time>
      </trkpt>
      <trkpt lat="45.056" lon="6.28227">
        <ele>1768.6</ele>
        <time>2024-08-10T09:23:15Z</time>
      </trkpt>
      <trkpt lat="45.056" lon="6.28227">
        <ele>1768.6</ele>
        <time>2024-08-10T09:23:16Z</time>
      </trkpt>
      <trkpt lat="45.056" lon="6.28227">
        <ele>1768.4</ele>
        <time>2024-08-10T09:23:17Z</time>
      </trkpt>
      <trkpt lat="45.056" lon="6.28227">
        <ele>1768.2</ele>
        <time>2024-08-10T09:23:18Z</time>
      </trkpt>
      <trkpt lat="45.056" lon="6.28227">
        <ele>1768.2</ele>
        <time>2024-08-10T09:23:19Z</time>
      </trkpt>
      <trkpt lat="45.056" lon="6.28227">
        <ele>1768.4</ele>
        <time>2024-08-10T09:23:20Z</time>
      </trkpt>
      <trkpt lat="45.056" lon="6.28227">
        <ele>1768.6</ele>
        <time>2024-08-10T09:23:21Z</time>
      </trkpt>
      <trkpt lat="45.056" lon="6.28227">
        <ele>1768.6</ele>
        <time>2024-08-10T09:23:22Z</time>
      </trkpt>
      <trkpt lat="45.056" lon="6.28227">
        <ele>1768.4</ele>
        <time>2024-08-10T09:23:23Z</time>
      </trkpt>
      <trkpt lat="45.056" lon="6.28227">
        <ele>1768.2</ele>
        <time>2024-08-10T09:23:24Z</time>
      </trkpt>
      <trkpt lat="45.056" lon="6.28227">
        <ele>1768.2</ele>
        <time>2024-08-10T09:23:25Z</time>
      </trkpt>
      <trkpt lat="45.056" lon="6.28227">
        <ele>1768.4</ele>
        <time>2024-08-10T09:23:26Z</time>
      </trkpt>
      <trkpt lat="45.056" lon="6.28227">
        <ele>1768.4</ele>
        <time>2024-08-10T09:23:27Z</time>
      </trkpt>
      <trkpt lat="45.056" lon="6.28227">
        <ele>1768.4</ele>
        <time>2024-08-10T09:23:28Z</time>
      </trkpt>
      <trkpt lat="45.056" lon="6.28227">
        <ele>1768.4</ele>
        <time>2024-08-10T09:23:29Z</time>
      </trkpt>
      <trkpt lat="45.056" lon="6.28227">
        <ele>1768.4</ele>
        <time>2024-08-10T09:23:30Z</time>
      </trkpt>
      <trkpt lat="45.056" lon="6.28227">
        <ele>1768.4</ele>
        <time>2024-08-10T09:23:31Z</time>
      </trkpt>
      <trkpt lat="45.056" lon="6.28227">
        <ele>1768.4</ele>
        <time>2024-08-10T09:23:32Z</time>
      </trkpt>
      <trkpt lat="45.056" lon="6.28227">
        <ele>1768.6</ele>
        <time>2024-08-10T09:23:33Z</time>
      </trkpt>
      <trkpt lat="45.056" lon="6.28227">
        <ele>1768.6</ele>
        <time>2024-08-10T09:23:34Z</time>
      </trkpt>
      <trkpt lat="45.056" lon="6.28227">
        <ele>1768.6</ele>
        <time>2024-08-10T09:23:35Z</time>
      </trkpt>
      <trkpt lat="45.056" lon="6.28227">
        <ele>1768.6</ele>
        <time>2024-08-10T09:23:36Z</time>
      </trkpt>
      <trkpt lat="45.056" lon="6.28227">
        <ele>1768.6</ele>
        <time>2024-08-10T09:23:37Z</time>
      </trkpt>
      <trkpt lat="45.056" lon="6.28227">
        <ele>1768.6</ele>
        <time>2024-08-10T09:23:38Z</time>
      </trkpt>
      <trkpt lat="45.056" lon="6.28227">
        <ele>1768.8</ele>
        <time>2024-08-10T09:23:39Z</time>
      </trkpt>
      <trkpt lat="45.056" lon="6.28227">
        <ele>1768.8</ele>
        <time>2024-08-10T09:23:40Z</time>
      </trkpt>
      <trkpt lat="45.056" lon="6.28227">
        <ele>1768.4</ele>
        <time>2024-08-10T09:23:41Z</time>
      </trkpt>
      <trkpt lat="45.056" lon="6.28227">
        <ele>1768.4</ele>
        <time>2024-08-10T09:23:42Z</time>
      </trkpt>
      <trkpt lat="45.056" lon="6.28227">
        <ele>1768.4</ele>
        <time>2024-08-10T09:23:43Z</time>
      </trkpt>
      <trkpt lat="45.056" lon="6.28227">
        <ele>1768.4</ele>
        <time>2024-08-10T09:23:44Z</time>
      </trkpt>
      <trkpt lat="45.056" lon="6.28227">
        <ele>1768.4</ele>
        <time>2024-08-10T09:23:45Z</time>
      </trkpt>
      <trkpt lat="45.056" lon="6.28227">
        <ele>1768.4</ele>
        <time>2024-08-10T09:23:46Z</time>
      </trkpt>
      <trkpt lat="45.056" lon="6.28227">
        <ele>1768.4</ele>
        <time>2024-08-10T09:23:47Z</time>
      </trkpt>
      <trkpt lat="45.056" lon="6.28227">
        <ele>1768.2</ele>
        <time>2024-08-10T09:23:48Z</time>
      </trkpt>
      <trkpt lat="45.056" lon="6.28227">
        <ele>1768.2</ele>
        <time>2024-08-10T09:23:49Z</time>
      </trkpt>
      <trkpt lat="45.056" lon="6.28227">
        <ele>1768.4</ele>
        <time>2024-08-10T09:23:50Z</time>
      </trkpt>
      <trkpt lat="45.056" lon="6.28227">
        <ele>1768.4</ele>
        <time>2024-08-10T09:23:51Z</time>
      </trkpt>
      <trkpt lat="45.056" lon="6.28227">
        <ele>1768.6</ele>
        <time>2024-08-10T09:23:52Z</time>
      </trkpt>
      <trkpt lat="45.056" lon="6.28227">
        <ele>1768.6</ele>
        <time>2024-08-10T09:23:53Z</time>
      </trkpt>
      <trkpt lat="45.056" lon="6.28227">
        <ele>1768.8</ele>
        <time>2024-08-10T09:23:54Z</time>
      </trkpt>
      <trkpt lat="45.056" lon="6.28227">
        <ele>1768.8</ele>
        <time>2024-08-10T09:23:55Z</time>
      </trkpt>
      <trkpt lat="45.056" lon="6.28227">
        <ele>1768.8</ele>
        <time>2024-08-10T09:23:56Z</time>
      </trkpt>
      <trkpt lat="45.056" lon="6.28227">
        <ele>1768.8</ele>
        <time>2024-08-10T09:23:57Z</time>
      </trkpt>
      <trkpt lat="45.056" lon="6.28227">
        <ele>1768.6</ele>
        <time>2024-08-10T09:23:58Z</time>
      </trkpt>
      <trkpt lat="45.056" lon="6.28227">
        <ele>1768.6</ele>
        <time>2024-08-10T09:23:59Z</time>
      </trkpt>
      <trkpt lat="45.056" lon="6.28227">
        <ele>1768.6</ele>
        <time>2024-08-10T09:24:00Z</time>
      </trkpt>
      <trkpt lat="45.056" lon="6.28227">
        <ele>1768.6</ele>
        <time>2024-08-10T09:24:01Z</time>
      </trkpt>
      <trkpt lat="45.056" lon="6.28227">
        <ele>1768.6</ele>
        <time>2024-08-10T09:24:02Z</time>
      </trkpt>
      <trkpt lat="45.056" lon="6.28227">
        <ele>1768.8</ele>
        <time>2024-08-10T09:24:03Z</time>
      </trkpt>
      <trkpt lat="45.056" lon="6.28227">
        <ele>1768.6</ele>
        <time>2024-08-10T09:24:04Z</time>
      </trkpt>
      <trkpt lat="45.056" lon="6.28227">
        <ele>1768.6</ele>
        <time>2024-08-10T09:24:05Z</time>
      </trkpt>
      <trkpt lat="45.056" lon="6.28227">
        <ele>1768.4</ele>
        <time>2024-08-10T09:24:06Z</time>
      </trkpt>
      <trkpt lat="45.056" lon="6.28227">
        <ele>1768.4</ele>
        <time>2024-08-10T09:24:07Z</time>
      </trkpt>
      <trkpt lat="45.056" lon="6.28227">
        <ele>1768.4</ele>
        <time>2024-08-10T09:24:08Z</time>
      </trkpt>
      <trkpt lat="45.056" lon="6.28227">
        <ele>1768.4</ele>
        <time>2024-08-10T09:24:09Z</time>
      </trkpt>
      <trkpt lat="45.056" lon="6.28227">
        <ele>1768.4</ele>
        <time>2024-08-10T09:24:10Z</time>
      </trkpt>
      <trkpt lat="45.056" lon="6.28227">
        <ele>1768.4</ele>
        <time>2024-08-10T09:24:11Z</time>
      </trkpt>
      <trkpt lat="45.056" lon="6.28227">
        <ele>1768.6</ele>
        <time>2024-08-10T09:24:12Z</time>
      </trkpt>
      <trkpt lat="45.056" lon="6.28227">
        <ele>1768.6</ele>
        <time>2024-08-10T09:24:13Z</time>
      </trkpt>
      <trkpt lat="45.056" lon="6.28227">
        <ele>1768.6</ele>
        <time>2024-08-10T09:24:14Z</time>
      </trkpt>
      <trkpt lat="45.056" lon="6.28227">
        <ele>1768.6</ele>
        <time>2024-08-10T09:24:15Z</time>
      </trkpt>
      <trkpt lat="45.056" lon="6.28227">
        <ele>1768.6</ele>
        <time>2024-08-10T09:24:16Z</time>
      </trkpt>
      <trkpt lat="45.056" lon="6.28227">
        <ele>1768.4</ele>
        <time>2024-08-10T09:24:17Z</time>
      </trkpt>
      <trkpt lat="45.056" lon="6.28227">
        <ele>1768.4</ele>
        <time>2024-08-10T09:24:18Z</time>
      </trkpt>
      <trkpt lat="45.056" lon="6.28227">
        <ele>1768.6</ele>
        <time>2024-08-10T09:24:19Z</time>
      </trkpt>
      <trkpt lat="45.056" lon="6.28227">
        <ele>1768.8</ele>
        <time>2024-08-10T09:24:20Z</time>
      </trkpt>
      <trkpt lat="45.056" lon="6.28227">
        <ele>1768.8</ele>
        <time>2024-08-10T09:24:21Z</time>
      </trkpt>
      <trkpt lat="45.056" lon="6.28227">
        <ele>1768.6</ele>
        <time>2024-08-10T09:24:22Z</time>
      </trkpt>
      <trkpt lat="45.056" lon="6.28227">
        <ele>1768.6</ele>
        <time>2024-08-10T09:24:23Z</time>
      </trkpt>
      <trkpt lat="45.056" lon="6.28227">
        <ele>1768.6</ele>
        <time>2024-08-10T09:24:24Z</time>
      </trkpt>
      <trkpt lat="45.056" lon="6.28227">
        <ele>1768.6</ele>
        <time>2024-08-10T09:24:25Z</time>
      </trkpt>
      <trkpt lat="45.056" lon="6.28227">
        <ele>1768.4</ele>
        <time>2024-08-10T09:24:26Z</time>
      </trkpt>
      <trkpt lat="45.056" lon="6.28227">
        <ele>1768.4</ele>
        <time>2024-08-10T09:24:27Z</time>
      </trkpt>
      <trkpt lat="45.056" lon="6.28227">
        <ele>1768.4</ele>
        <time>2024-08-10T09:24:28Z</time>
      </trkpt>
      <trkpt lat="45.056" lon="6.28227">
        <ele>1768.6</ele>
        <time>2024-08-10T09:24:29Z</time>
      </trkpt>
      <trkpt lat="45.056" lon="6.28227">
        <ele>1768.6</ele>
        <time>2024-08-10T09:24:30Z</time>
      </trkpt>
      <trkpt lat="45.056" lon="6.28227">
        <ele>1768.6</ele>
        <time>2024-08-10T09:24:31Z</time>
      </trkpt>
      <trkpt lat="45.056" lon="6.28227">
        <ele>1768.4</ele>
        <time>2024-08-10T09:24:32Z</time>
      </trkpt>
      <trkpt lat="45.056" lon="6.28227">
        <ele>1768.4</ele>
        <time>2024-08-10T09:24:33Z</time>
      </trkpt>
      <trkpt lat="45.056" lon="6.28227">
        <ele>1768.4</ele>
        <time>2024-08-10T09:24:34Z</time>
      </trkpt>
      <trkpt lat="45.056" lon="6.28227">
        <ele>1768.4</ele>
        <time>2024-08-10T09:24:35Z</time>
      </trkpt>
      <trkpt lat="45.056" lon="6.28227">
        <ele>1768.4</ele>
        <time>2024-08-10T09:24:36Z</time>
      </trkpt>
      <trkpt lat="45.056" lon="6.28227">
        <ele>1768.6</ele>
        <time>2024-08-10T09:24:37Z</time>
      </trkpt>
      <trkpt lat="45.056" lon="6.28227">
        <ele>1768.6</ele>
        <time>2024-08-10T09:24:38Z</time>
      </trkpt>
      <trkpt lat="45.056" lon="6.28227">
        <ele>1768.6</ele>
        <time>2024-08-10T09:24:39Z</time>
      </trkpt>
      <trkpt lat="45.056" lon="6.28227">
        <ele>1768.6</ele>
        <time>2024-08-10T09:24:40Z</time>
      </trkpt>
      <trkpt lat="45.056" lon="6.28227">
        <ele>1768.6</ele>
        <time>2024-08-10T09:24:41Z</time>
      </trkpt>
      <trkpt lat="45.056" lon="6.28227">
        <ele>1768.8</ele>
        <time>2024-08-10T09:24:42Z</time>
      </trkpt>
      <trkpt lat="45.056" lon="6.28227">
        <ele>1768.8</ele>
        <time>2024-08-10T09:24:43Z</time>
      </trkpt>
      <trkpt lat="45.056" lon="6.28227">
        <ele>1768.4</ele>
        <time>2024-08-10T09:24:44Z</time>
      </trkpt>
      <trkpt lat="45.056" lon="6.28227">
        <ele>1768.2</ele>
        <time>2024-08-10T09:24:45Z</time>
      </trkpt>
      <trkpt lat="45.056" lon="6.28227">
        <ele>1768.2</ele>
        <time>2024-08-10T09:24:46Z</time>
      </trkpt>
      <trkpt lat="45.056" lon="6.28227">
        <ele>1768.4</ele>
        <time>2024-08-10T09:24:47Z</time>
      </trkpt>
      <trkpt lat="45.056" lon="6.28227">
        <ele>1768.6</ele>
        <time>2024-08-10T09:24:48Z</time>
      </trkpt>
      <trkpt lat="45.056" lon="6.28227">
        <ele>1768.6</ele>
        <time>2024-08-10T09:24:49Z</time>
      </trkpt>
      <trkpt lat="45.056" lon="6.28227">
        <ele>1768.6</ele>
        <time>2024-08-10T09:24:50Z</time>
      </trkpt>
      <trkpt lat="45.056" lon="6.28227">
        <ele>1768.8</ele>
        <time>2024-08-10T09:24:51Z</time>
      </trkpt>
      <trkpt lat="45.056" lon="6.28227">
        <ele>1768.8</ele>
        <time>2024-08-10T09:24:52Z</time>
      </trkpt>
      <trkpt lat="45.056" lon="6.28227">
        <ele>1768.8</ele>
        <time>2024-08-10T09:24:53Z</time>
      </trkpt>
      <trkpt lat="45.056" lon="6.28227">
        <ele>1768.6</ele>
        <time>2024-08-10T09:24:54Z</time>
      </trkpt>
      <trkpt lat="45.056" lon="6.28227">
        <ele>1768.4</ele>
        <time>2024-08-10T09:24:55Z</time>
      </trkpt>
      <trkpt lat="45.056" lon="6.28227">
        <ele>1768.4</ele>
        <time>2024-08-10T09:24:56Z</time>
      </trkpt>
      <trkpt lat="45.056" lon="6.28227">
        <ele>1768.6</ele>
        <time>2024-08-10T09:24:57Z</time>
      </trkpt>
      <trkpt lat="45.056" lon="6.28227">
        <ele>1768.6</ele>
        <time>2024-08-10T09:24:58Z</time>
      </trkpt>
      <trkpt lat="45.056" lon="6.28227">
        <ele>1768.6</ele>
        <time>2024-08-10T09:24:59Z</time>
      </trkpt>
      <trkpt lat="45.056" lon="6.28227">
        <ele>1768.6</ele>
        <time>2024-08-10T09:25:00Z</time>
      </trkpt>
      <trkpt lat="45.056" lon="6.28227">
        <ele>1768.6</ele>
        <time>2024-08-10T09:25:01Z</time>
      </trkpt>
      <trkpt lat="45.056" lon="6.28227">
        <ele>1768.6</ele>
        <time>2024-08-10T09:25:02Z</time>
      </trkpt>
      <trkpt lat="45.056" lon="6.28227">
        <ele>1768.4</ele>
        <time>2024-08-10T09:25:03Z</time>
      </trkpt>
      <trkpt lat="45.056" lon="6.28227">
        <ele>1768.4</ele>
        <time>2024-08-10T09:25:04Z</time>
      </trkpt>
      <trkpt lat="45.056" lon="6.28227">
        <ele>1768.6</ele>
        <time>2024-08-10T09:25:05Z</time>
      </trkpt>
      <trkpt lat="45.056" lon="6.28227">
        <ele>1769</ele>
        <time>2024-08-10T09:25:06Z</time>
      </trkpt>
      <trkpt lat="45.056" lon="6.28227">
        <ele>1769.2</ele>
        <time>2024-08-10T09:25:07Z</time>
      </trkpt>
      <trkpt lat="45.056" lon="6.28227">
        <ele>1769.2</ele>
        <time>2024-08-10T09:25:08Z</time>
      </trkpt>
      <trkpt lat="45.056" lon="6.28227">
        <ele>1769.2</ele>
        <time>2024-08-10T09:25:09Z</time>
      </trkpt>
      <trkpt lat="45.056" lon="6.28227">
        <ele>1769.2</ele>
        <time>2024-08-10T09:25:10Z</time>
      </trkpt>
      <trkpt lat="45.056" lon="6.28227">
        <ele>1769.2</ele>
        <time>2024-08-10T09:25:11Z</time>
      </trkpt>
      <trkpt lat="45.056" lon="6.28227">
        <ele>1769.2</ele>
        <time>2024-08-10T09:25:12Z</time>
      </trkpt>
      <trkpt lat="45.056" lon="6.28227">
        <ele>1769.2</ele>
        <time>2024-08-10T09:25:13Z</time>
      </trkpt>
      <trkpt lat="45.056" lon="6.28227">
        <ele>1769.2</ele>
        <time>2024-08-10T09:25:14Z</time>
      </trkpt>
      <trkpt lat="45.056" lon="6.28227">
        <ele>1769.2</ele>
        <time>2024-08-10T09:25:15Z</time>
      </trkpt>
      <trkpt lat="45.056" lon="6.28227">
        <ele>1769.2</ele>
        <time>2024-08-10T09:25:16Z</time>
      </trkpt>
      <trkpt lat="45.056" lon="6.28227">
        <ele>1769</ele>
        <time>2024-08-10T09:25:17Z</time>
      </trkpt>
      <trkpt lat="45.056" lon="6.28227">
        <ele>1768.8</ele>
        <time>2024-08-10T09:25:18Z</time>
      </trkpt>
      <trkpt lat="45.056" lon="6.28227">
        <ele>1768.6</ele>
        <time>2024-08-10T09:25:19Z</time>
      </trkpt>
      <trkpt lat="45.056" lon="6.28227">
        <ele>1768.6</ele>
        <time>2024-08-10T09:25:20Z</time>
      </trkpt>
      <trkpt lat="45.056" lon="6.28227">
        <ele>1768.6</ele>
        <time>2024-08-10T09:25:21Z</time>
      </trkpt>
      <trkpt lat="45.056" lon="6.28227">
        <ele>1768.4</ele>
        <time>2024-08-10T09:25:22Z</time>
      </trkpt>
      <trkpt lat="45.056" lon="6.28227">
        <ele>1768.4</ele>
        <time>2024-08-10T09:25:23Z</time>
      </trkpt>
      <trkpt lat="45.056" lon="6.28227">
        <ele>1768.4</ele>
        <time>2024-08-10T09:25:24Z</time>
      </trkpt>
      <trkpt lat="45.056" lon="6.28227">
        <ele>1768.6</ele>
        <time>2024-08-10T09:25:25Z</time>
      </trkpt>
      <trkpt lat="45.056" lon="6.28227">
        <ele>1768.6</ele>
        <time>2024-08-10T09:25:26Z</time>
      </trkpt>
      <trkpt lat="45.056" lon="6.28227">
        <ele>1768.6</ele>
        <time>2024-08-10T09:25:27Z</time>
      </trkpt>
      <trkpt lat="45.056" lon="6.28227">
        <ele>1768.6</ele>
        <time>2024-08-10T09:25:28Z</time>
      </trkpt>
      <trkpt lat="45.056" lon="6.28227">
        <ele>1768.6</ele>
        <time>2024-08-10T09:25:29Z</time>
      </trkpt>
      <trkpt lat="45.056" lon="6.28227">
        <ele>1769.4</ele>
        <time>2024-08-10T09:25:30Z</time>
      </trkpt>
      <trkpt lat="45.056" lon="6.28227">
        <ele>1769.4</ele>
        <time>2024-08-10T09:25:31Z</time>
      </trkpt>
      <trkpt lat="45.056" lon="6.28227">
        <ele>1769.4</ele>
        <time>2024-08-10T09:25:32Z</time>
      </trkpt>
      <trkpt lat="45.056" lon="6.28227">
        <ele>1769.6</ele>
        <time>2024-08-10T09:25:33Z</time>
      </trkpt>
      <trkpt lat="45.056" lon="6.28227">
        <ele>1769.6</ele>
        <time>2024-08-10T09:25:34Z</time>
      </trkpt>
      <trkpt lat="45.056" lon="6.28227">
        <ele>1769.6</ele>
        <time>2024-08-10T09:25:35Z</time>
      </trkpt>
      <trkpt lat="45.056" lon="6.28227">
        <ele>1769.6</ele>
        <time>2024-08-10T09:25:36Z</time>
      </trkpt>
      <trkpt lat="45.056" lon="6.28227">
        <ele>1769.6</ele>
        <time>2024-08-10T09:25:37Z</time>
      </trkpt>
      <trkpt lat="45.056" lon="6.28227">
        <ele>1769.4</ele>
        <time>2024-08-10T09:25:38Z</time>
      </trkpt>
      <trkpt lat="45.056" lon="6.28227">
        <ele>1769.4</ele>
        <time>2024-08-10T09:25:39Z</time>
      </trkpt>
      <trkpt lat="45.056" lon="6.28227">
        <ele>1769.6</ele>
        <time>2024-08-10T09:25:40Z</time>
      </trkpt>
      <trkpt lat="45.056" lon="6.28227">
        <ele>1769.6</ele>
        <time>2024-08-10T09:25:41Z</time>
      </trkpt>
      <trkpt lat="45.056" lon="6.28227">
        <ele>1769.6</ele>
        <time>2024-08-10T09:25:42Z</time>
      </trkpt>
      <trkpt lat="45.056" lon="6.28227">
        <ele>1769.6</ele>
        <time>2024-08-10T09:25:43Z</time>
      </trkpt>
      <trkpt lat="45.056" lon="6.28227">
        <ele>1769.4</ele>
        <time>2024-08-10T09:25:44Z</time>
      </trkpt>
      <trkpt lat="45.056" lon="6.28227">
        <ele>1769.2</ele>
        <time>2024-08-10T09:25:45Z</time>
      </trkpt>
      <trkpt lat="45.056" lon="6.28227">
        <ele>1769.2</ele>
        <time>2024-08-10T09:25:46Z</time>
      </trkpt>
      <trkpt lat="45.056" lon="6.28227">
        <ele>1769.2</ele>
        <time>2024-08-10T09:25:47Z</time>
      </trkpt>
      <trkpt lat="45.056" lon="6.28227">
        <ele>1769.2</ele>
        <time>2024-08-10T09:25:48Z</time>
      </trkpt>
      <trkpt lat="45.056" lon="6.28227">
        <ele>1769</ele>
        <time>2024-08-10T09:25:49Z</time>
      </trkpt>
      <trkpt lat="45.056" lon="6.28227">
        <ele>1769</ele>
        <time>2024-08-10T09:25:50Z</time>
      </trkpt>
      <trkpt lat="45.056" lon="6.28227">
        <ele>1769</ele>
        <time>2024-08-10T09:25:51Z</time>
      </trkpt>
      <trkpt lat="45.056" lon="6.28227">
        <ele>1769</ele>
        <time>2024-08-10T09:25:52Z</time>
      </trkpt>
      <trkpt lat="45.056" lon="6.28227">
        <ele>1769.2</ele>
        <time>2024-08-10T09:25:53Z</time>
      </trkpt>
      <trkpt lat="45.056" lon="6.28227">
        <ele>1769.2</ele>
        <time>2024-08-10T09:25:54Z</time>
      </trkpt>
      <trkpt lat="45.056" lon="6.28227">
        <ele>1769.2</ele>
        <time>2024-08-10T09:25:55Z</time>
      </trkpt>
      <trkpt lat="45.056" lon="6.28227">
        <ele>1768.8</ele>
        <time>2024-08-10T09:25:56Z</time>
      </trkpt>
      <trkpt lat="45.056" lon="6.28227">
        <ele>1768.6</ele>
        <time>2024-08-10T09:25:57Z</time>
      </trkpt>
      <trkpt lat="45.056" lon="6.28227">
        <ele>1768.6</ele>
        <time>2024-08-10T09:25:58Z</time>
      </trkpt>
      <trkpt lat="45.056" lon="6.28227">
        <ele>1768.6</ele>
        <time>2024-08-10T09:25:59Z</time>
      </trkpt>
      <trkpt lat="45.056" lon="6.28227">
        <ele>1768.8</ele>
        <time>2024-08-10T09:26:00Z</time>
      </trkpt>
      <trkpt lat="45.056" lon="6.28227">
        <ele>1768.8</ele>
        <time>2024-08-10T09:26:01Z</time>
      </trkpt>
      <trkpt lat="45.056" lon="6.28227">
        <ele>1768.8</ele>
        <time>2024-08-10T09:26:02Z</time>
      </trkpt>
      <trkpt lat="45.056" lon="6.28227">
        <ele>1769.2</ele>
        <time>2024-08-10T09:26:03Z</time>
      </trkpt>
      <trkpt lat="45.056" lon="6.28227">
        <ele>1769.2</ele>
        <time>2024-08-10T09:26:04Z</time>
      </trkpt>
      <trkpt lat="45.056" lon="6.28227">
        <ele>1769.2</ele>
        <time>2024-08-10T09:26:05Z</time>
      </trkpt>
      <trkpt lat="45.056" lon="6.28227">
        <ele>1769.2</ele>
        <time>2024-08-10T09:26:06Z</time>
      </trkpt>
      <trkpt lat="45.056" lon="6.28227">
        <ele>1769.2</ele>
        <time>2024-08-10T09:26:07Z</time>
      </trkpt>
      <trkpt lat="45.056" lon="6.28227">
        <ele>1769.4</ele>
        <time>2024-08-10T09:26:08Z</time>
      </trkpt>
      <trkpt lat="45.056" lon="6.28227">
        <ele>1769.4</ele>
        <time>2024-08-10T09:26:09Z</time>
      </trkpt>
      <trkpt lat="45.056" lon="6.28227">
        <ele>1769.4</ele>
        <time>2024-08-10T09:26:10Z</time>
      </trkpt>
      <trkpt lat="45.056" lon="6.28227">
        <ele>1769.4</ele>
        <time>2024-08-10T09:26:11Z</time>
      </trkpt>
      <trkpt lat="45.056" lon="6.28227">
        <ele>1769.2</ele>
        <time>2024-08-10T09:26:12Z</time>
      </trkpt>
      <trkpt lat="45.056" lon="6.28227">
        <ele>1769.2</ele>
        <time>2024-08-10T09:26:13Z</time>
      </trkpt>
      <trkpt lat="45.056" lon="6.28227">
        <ele>1769</ele>
        <time>2024-08-10T09:26:14Z</time>
      </trkpt>
      <trkpt lat="45.056" lon="6.28227">
        <ele>1769</ele>
        <time>2024-08-10T09:26:15Z</time>
      </trkpt>
      <trkpt lat="45.056" lon="6.28227">
        <ele>1769</ele>
        <time>2024-08-10T09:26:16Z</time>
      </trkpt>
      <trkpt lat="45.056" lon="6.28227">
        <ele>1769</ele>
        <time>2024-08-10T09:26:17Z</time>
      </trkpt>
      <trkpt lat="45.056" lon="6.28227">
        <ele>1769</ele>
        <time>2024-08-10T09:26:18Z</time>
      </trkpt>
      <trkpt lat="45.056" lon="6.28227">
        <ele>1768.8</ele>
        <time>2024-08-10T09:26:19Z</time>
      </trkpt>
      <trkpt lat="45.056" lon="6.28227">
        <ele>1768.8</ele>
        <time>2024-08-10T09:26:20Z</time>
      </trkpt>
      <trkpt lat="45.056" lon="6.28227">
        <ele>1768.8</ele>
        <time>2024-08-10T09:26:21Z</time>
      </trkpt>
      <trkpt lat="45.056" lon="6.28227">
        <ele>1768.8</ele>
        <time>2024-08-10T09:26:22Z</time>
      </trkpt>
      <trkpt lat="45.056" lon="6.28227">
        <ele>1769.2</ele>
        <time>2024-08-10T09:26:23Z</time>
      </trkpt>
      <trkpt lat="45.056" lon="6.28227">
        <ele>1769.2</ele>
        <time>2024-08-10T09:26:24Z</time>
      </trkpt>
      <trkpt lat="45.056" lon="6.28227">
        <ele>1769</ele>
        <time>2024-08-10T09:26:25Z</time>
      </trkpt>
      <trkpt lat="45.056" lon="6.28227">
        <ele>1768.8</ele>
        <time>2024-08-10T09:26:26Z</time>
      </trkpt>
      <trkpt lat="45.056" lon="6.28227">
        <ele>1768.8</ele>
        <time>2024-08-10T09:26:27Z</time>
      </trkpt>
      <trkpt lat="45.05598" lon="6.2823">
        <ele>1768.8</ele>
        <time>2024-08-10T09:26:28Z</time>
      </trkpt>
      <trkpt lat="45.05598" lon="6.2823">
        <ele>1769</ele>
        <time>2024-08-10T09:26:29Z</time>
      </trkpt>
      <trkpt lat="45.05596" lon="6.2823">
        <ele>1769</ele>
        <time>2024-08-10T09:26:30Z</time>
      </trkpt>
      <trkpt lat="45.05596" lon="6.2823">
        <ele>1769</ele>
        <time>2024-08-10T09:26:31Z</time>
      </trkpt>
      <trkpt lat="45.05594" lon="6.28232">
        <ele>1768.8</ele>
        <time>2024-08-10T09:26:32Z</time>
      </trkpt>
      <trkpt lat="45.05594" lon="6.28232">
        <ele>1768.8</ele>
        <time>2024-08-10T09:26:33Z</time>
      </trkpt>
      <trkpt lat="45.05593" lon="6.28236">
        <ele>1768.8</ele>
        <time>2024-08-10T09:26:34Z</time>
      </trkpt>
      <trkpt lat="45.05593" lon="6.28236">
        <ele>1768.8</ele>
        <time>2024-08-10T09:26:35Z</time>
      </trkpt>
      <trkpt lat="45.05591" lon="6.28239">
        <ele>1768.8</ele>
        <time>2024-08-10T09:26:36Z</time>
      </trkpt>
      <trkpt lat="45.05591" lon="6.28239">
        <ele>1768.8</ele>
        <time>2024-08-10T09:26:37Z</time>
      </trkpt>
      <trkpt lat="45.0559" lon="6.28243">
        <ele>1768.8</ele>
        <time>2024-08-10T09:26:38Z</time>
      </trkpt>
      <trkpt lat="45.0559" lon="6.28243">
        <ele>1768.8</ele>
        <time>2024-08-10T09:26:39Z</time>
      </trkpt>
      <trkpt lat="45.05588" lon="6.28245">
        <ele>1769</ele>
        <time>2024-08-10T09:26:40Z</time>
      </trkpt>
      <trkpt lat="45.05588" lon="6.28245">
        <ele>1769</ele>
        <time>2024-08-10T09:26:41Z</time>
      </trkpt>
      <trkpt lat="45.05586" lon="6.28247">
        <ele>1769</ele>
        <time>2024-08-10T09:26:42Z</time>
      </trkpt>
      <trkpt lat="45.05586" lon="6.28247">
        <ele>1769</ele>
        <time>2024-08-10T09:26:43Z</time>
      </trkpt>
      <trkpt lat="45.05584" lon="6.2825">
        <ele>1769</ele>
        <time>2024-08-10T09:26:44Z</time>
      </trkpt>
      <trkpt lat="45.05584" lon="6.2825">
        <ele>1768.8</ele>
        <time>2024-08-10T09:26:45Z</time>
      </trkpt>
      <trkpt lat="45.05582" lon="6.28252">
        <ele>1768.8</ele>
        <time>2024-08-10T09:26:46Z</time>
      </trkpt>
      <trkpt lat="45.05582" lon="6.28252">
        <ele>1769</ele>
        <time>2024-08-10T09:26:47Z</time>
      </trkpt>
      <trkpt lat="45.05581" lon="6.28254">
        <ele>1769</ele>
        <time>2024-08-10T09:26:48Z</time>
      </trkpt>
      <trkpt lat="45.05581" lon="6.28254">
        <ele>1769.2</ele>
        <time>2024-08-10T09:26:49Z</time>
      </trkpt>
      <trkpt lat="45.05579" lon="6.28257">
        <ele>1769.2</ele>
        <time>2024-08-10T09:26:50Z</time>
      </trkpt>
      <trkpt lat="45.05579" lon="6.28257">
        <ele>1769.2</ele>
        <time>2024-08-10T09:26:51Z</time>
      </trkpt>
      <trkpt lat="45.05578" lon="6.28259">
        <ele>1769.2</ele>
        <time>2024-08-10T09:26:52Z</time>
      </trkpt>
      <trkpt lat="45.05578" lon="6.28259">
        <ele>1769.2</ele>
        <time>2024-08-10T09:26:53Z</time>
      </trkpt>
      <trkpt lat="45.05576" lon="6.28262">
        <ele>1769.2</ele>
        <time>2024-08-10T09:26:54Z</time>
      </trkpt>
      <trkpt lat="45.05576" lon="6.28262">
        <ele>1769.4</ele>
        <time>2024-08-10T09:26:55Z</time>
      </trkpt>
      <trkpt lat="45.05574" lon="6.28265">
        <ele>1769.4</ele>
        <time>2024-08-10T09:26:56Z</time>
      </trkpt>
      <trkpt lat="45.05574" lon="6.28265">
        <ele>1769.4</ele>
        <time>2024-08-10T09:26:57Z</time>
      </trkpt>
      <trkpt lat="45.05573" lon="6.28268">
        <ele>1769.4</ele>
        <time>2024-08-10T09:26:58Z</time>
      </trkpt>
      <trkpt lat="45.05573" lon="6.28268">
        <ele>1769.4</ele>
        <time>2024-08-10T09:26:59Z</time>
      </trkpt>
      <trkpt lat="45.05571" lon="6.2827">
        <ele>1769.4</ele>
        <time>2024-08-10T09:27:00Z</time>
      </trkpt>
      <trkpt lat="45.05571" lon="6.2827">
        <ele>1769.4</ele>
        <time>2024-08-10T09:27:01Z</time>
      </trkpt>
      <trkpt lat="45.05569" lon="6.28272">
        <ele>1769.8</ele>
        <time>2024-08-10T09:27:02Z</time>
      </trkpt>
      <trkpt lat="45.05569" lon="6.28272">
        <ele>1769.8</ele>
        <time>2024-08-10T09:27:03Z</time>
      </trkpt>
      <trkpt lat="45.05567" lon="6.28275">
        <ele>1769.8</ele>
        <time>2024-08-10T09:27:04Z</time>
      </trkpt>
      <trkpt lat="45.05567" lon="6.28275">
        <ele>1770</ele>
        <time>2024-08-10T09:27:05Z</time>
      </trkpt>
      <trkpt lat="45.05565" lon="6.28277">
        <ele>1770</ele>
        <time>2024-08-10T09:27:06Z</time>
      </trkpt>
      <trkpt lat="45.05565" lon="6.28277">
        <ele>1770</ele>
        <time>2024-08-10T09:27:07Z</time>
      </trkpt>
      <trkpt lat="45.05563" lon="6.28279">
        <ele>1770.2</ele>
        <time>2024-08-10T09:27:08Z</time>
      </trkpt>
      <trkpt lat="45.05563" lon="6.28279">
        <ele>1770.4</ele>
        <time>2024-08-10T09:27:09Z</time>
      </trkpt>
      <trkpt lat="45.05562" lon="6.28281">
        <ele>1770.4</ele>
        <time>2024-08-10T09:27:10Z</time>
      </trkpt>
      <trkpt lat="45.05562" lon="6.28281">
        <ele>1770.4</ele>
        <time>2024-08-10T09:27:11Z</time>
      </trkpt>
      <trkpt lat="45.0556" lon="6.28284">
        <ele>1770.4</ele>
        <time>2024-08-10T09:27:12Z</time>
      </trkpt>
      <trkpt lat="45.0556" lon="6.28284">
        <ele>1770.2</ele>
        <time>2024-08-10T09:27:13Z</time>
      </trkpt>
      <trkpt lat="45.05558" lon="6.28286">
        <ele>1770.2</ele>
        <time>2024-08-10T09:27:14Z</time>
      </trkpt>
      <trkpt lat="45.05558" lon="6.28286">
        <ele>1770.2</ele>
        <time>2024-08-10T09:27:15Z</time>
      </trkpt>
      <trkpt lat="45.05557" lon="6.28288">
        <ele>1770.2</ele>
        <time>2024-08-10T09:27:16Z</time>
      </trkpt>
      <trkpt lat="45.05557" lon="6.28288">
        <ele>1770.6</ele>
        <time>2024-08-10T09:27:17Z</time>
      </trkpt>
      <trkpt lat="45.05555" lon="6.28291">
        <ele>1770.6</ele>
        <time>2024-08-10T09:27:18Z</time>
      </trkpt>
      <trkpt lat="45.05555" lon="6.28291">
        <ele>1770.6</ele>
        <time>2024-08-10T09:27:19Z</time>
      </trkpt>
      <trkpt lat="45.05553" lon="6.28293">
        <ele>1770.8</ele>
        <time>2024-08-10T09:27:20Z</time>
      </trkpt>
      <trkpt lat="45.05553" lon="6.28293">
        <ele>1770.8</ele>
        <time>2024-08-10T09:27:21Z</time>
      </trkpt>
      <trkpt lat="45.05552" lon="6.28295">
        <ele>1770.8</ele>
        <time>2024-08-10T09:27:22Z</time>
      </trkpt>
      <trkpt lat="45.05552" lon="6.28295">
        <ele>1770.8</ele>
        <time>2024-08-10T09:27:23Z</time>
      </trkpt>
      <trkpt lat="45.05552" lon="6.28295">
        <ele>1770.8</ele>
        <time>2024-08-10T09:27:24Z</time>
      </trkpt>
      <trkpt lat="45.0555" lon="6.28297">
        <ele>1771.2</ele>
        <time>2024-08-10T09:27:25Z</time>
      </trkpt>
      <trkpt lat="45.0555" lon="6.28297">
        <ele>1771.2</ele>
        <time>2024-08-10T09:27:26Z</time>
      </trkpt>
      <trkpt lat="45.05549" lon="6.283">
        <ele>1771.2</ele>
        <time>2024-08-10T09:27:27Z</time>
      </trkpt>
      <trkpt lat="45.05549" lon="6.283">
        <ele>1771.2</ele>
        <time>2024-08-10T09:27:28Z</time>
      </trkpt>
      <trkpt lat="45.05547" lon="6.28302">
        <ele>1771.4</ele>
        <time>2024-08-10T09:27:29Z</time>
      </trkpt>
      <trkpt lat="45.05547" lon="6.28302">
        <ele>1771.4</ele>
        <time>2024-08-10T09:27:30Z</time>
      </trkpt>
      <trkpt lat="45.05545" lon="6.28303">
        <ele>1771.6</ele>
        <time>2024-08-10T09:27:31Z</time>
      </trkpt>
      <trkpt lat="45.05545" lon="6.28303">
        <ele>1771.8</ele>
        <time>2024-08-10T09:27:32Z</time>
      </trkpt>
      <trkpt lat="45.05543" lon="6.28305">
        <ele>1771.8</ele>
        <time>2024-08-10T09:27:33Z</time>
      </trkpt>
      <trkpt lat="45.05543" lon="6.28305">
        <ele>1772</ele>
        <time>2024-08-10T09:27:34Z</time>
      </trkpt>
      <trkpt lat="45.05542" lon="6.28307">
        <ele>1772</ele>
        <time>2024-08-10T09:27:35Z</time>
      </trkpt>
      <trkpt lat="45.05542" lon="6.28307">
        <ele>1772</ele>
        <time>2024-08-10T09:27:36Z</time>
      </trkpt>
      <trkpt lat="45.05541" lon="6.2831">
        <ele>1772</ele>
        <time>2024-08-10T09:27:37Z</time>
      </trkpt>
      <trkpt lat="45.05541" lon="6.2831">
        <ele>1772.4</ele>
        <time>2024-08-10T09:27:38Z</time>
      </trkpt>
      <trkpt lat="45.05539" lon="6.28311">
        <ele>1772.6</ele>
        <time>2024-08-10T09:27:39Z</time>
      </trkpt>
      <trkpt lat="45.05539" lon="6.28311">
        <ele>1772.6</ele>
        <time>2024-08-10T09:27:40Z</time>
      </trkpt>
      <trkpt lat="45.05537" lon="6.28313">
        <ele>1772.6</ele>
        <time>2024-08-10T09:27:41Z</time>
      </trkpt>
      <trkpt lat="45.05537" lon="6.28313">
        <ele>1772.8</ele>
        <time>2024-08-10T09:27:42Z</time>
      </trkpt>
      <trkpt lat="45.05537" lon="6.28313">
        <ele>1773</ele>
        <time>2024-08-10T09:27:43Z</time>
      </trkpt>
      <trkpt lat="45.05535" lon="6.28316">
        <ele>1773.2</ele>
        <time>2024-08-10T09:27:44Z</time>
      </trkpt>
      <trkpt lat="45.05535" lon="6.28316">
        <ele>1773.2</ele>
        <time>2024-08-10T09:27:45Z</time>
      </trkpt>
      <trkpt lat="45.05534" lon="6.28318">
        <ele>1773.2</ele>
        <time>2024-08-10T09:27:46Z</time>
      </trkpt>
      <trkpt lat="45.05534" lon="6.28318">
        <ele>1773.4</ele>
        <time>2024-08-10T09:27:47Z</time>
      </trkpt>
      <trkpt lat="45.05533" lon="6.2832">
        <ele>1773.8</ele>
        <time>2024-08-10T09:27:48Z</time>
      </trkpt>
      <trkpt lat="45.05533" lon="6.2832">
        <ele>1773.8</ele>
        <time>2024-08-10T09:27:49Z</time>
      </trkpt>
      <trkpt lat="45.05531" lon="6.28322">
        <ele>1773.8</ele>
        <time>2024-08-10T09:27:50Z</time>
      </trkpt>
      <trkpt lat="45.05531" lon="6.28322">
        <ele>1774</ele>
        <time>2024-08-10T09:27:51Z</time>
      </trkpt>
      <trkpt lat="45.05529" lon="6.28323">
        <ele>1774.2</ele>
        <time>2024-08-10T09:27:52Z</time>
      </trkpt>
      <trkpt lat="45.05529" lon="6.28323">
        <ele>1774.2</ele>
        <time>2024-08-10T09:27:53Z</time>
      </trkpt>
      <trkpt lat="45.05529" lon="6.28323">
        <ele>1774.2</ele>
        <time>2024-08-10T09:27:54Z</time>
      </trkpt>
      <trkpt lat="45.05527" lon="6.28326">
        <ele>1774.2</ele>
        <time>2024-08-10T09:27:55Z</time>
      </trkpt>
      <trkpt lat="45.05527" lon="6.28326">
        <ele>1774.6</ele>
        <time>2024-08-10T09:27:56Z</time>
      </trkpt>
      <trkpt lat="45.05526" lon="6.28328">
        <ele>1774.8</ele>
        <time>2024-08-10T09:27:57Z</time>
      </trkpt>
      <trkpt lat="45.05526" lon="6.28328">
        <ele>1775</ele>
        <time>2024-08-10T09:27:58Z</time>
      </trkpt>
      <trkpt lat="45.05525" lon="6.2833">
        <ele>1775</ele>
        <time>2024-08-10T09:27:59Z</time>
      </trkpt>
      <trkpt lat="45.05525" lon="6.2833">
        <ele>1775.2</ele>
        <time>2024-08-10T09:28:00Z</time>
      </trkpt>
      <trkpt lat="45.05523" lon="6.28333">
        <ele>1775.4</ele>
        <time>2024-08-10T09:28:01Z</time>
      </trkpt>
      <trkpt lat="45.05523" lon="6.28333">
        <ele>1775.6</ele>
        <time>2024-08-10T09:28:02Z</time>
      </trkpt>
      <trkpt lat="45.05522" lon="6.28334">
        <ele>1775.8</ele>
        <time>2024-08-10T09:28:03Z</time>
      </trkpt>
      <trkpt lat="45.05522" lon="6.28334">
        <ele>1775.8</ele>
        <time>2024-08-10T09:28:04Z</time>
      </trkpt>
      <trkpt lat="45.0552" lon="6.28337">
        <ele>1776</ele>
        <time>2024-08-10T09:28:05Z</time>
      </trkpt>
      <trkpt lat="45.0552" lon="6.28337">
        <ele>1776</ele>
        <time>2024-08-10T09:28:06Z</time>
      </trkpt>
      <trkpt lat="45.05519" lon="6.28339">
        <ele>1776.2</ele>
        <time>2024-08-10T09:28:07Z</time>
      </trkpt>
      <trkpt lat="45.05519" lon="6.28339">
        <ele>1776.4</ele>
        <time>2024-08-10T09:28:08Z</time>
      </trkpt>
      <trkpt lat="45.05517" lon="6.28341">
        <ele>1776.8</ele>
        <time>2024-08-10T09:28:09Z</time>
      </trkpt>
      <trkpt lat="45.05517" lon="6.28341">
        <ele>1776.8</ele>
        <time>2024-08-10T09:28:10Z</time>
      </trkpt>
      <trkpt lat="45.05516" lon="6.28344">
        <ele>1776.8</ele>
        <time>2024-08-10T09:28:11Z</time>
      </trkpt>
      <trkpt lat="45.05516" lon="6.28344">
        <ele>1776.8</ele>
        <time>2024-08-10T09:28:12Z</time>
      </trkpt>
      <trkpt lat="45.05515" lon="6.28346">
        <ele>1776.8</ele>
        <time>2024-08-10T09:28:13Z</time>
      </trkpt>
      <trkpt lat="45.05515" lon="6.28346">
        <ele>1777</ele>
        <time>2024-08-10T09:28:14Z</time>
      </trkpt>
      <trkpt lat="45.05513" lon="6.28348">
        <ele>1777.2</ele>
        <time>2024-08-10T09:28:15Z</time>
      </trkpt>
      <trkpt lat="45.05513" lon="6.28348">
        <ele>1777.2</ele>
        <time>2024-08-10T09:28:16Z</time>
      </trkpt>
      <trkpt lat="45.05511" lon="6.28349">
        <ele>1777.2</ele>
        <time>2024-08-10T09:28:17Z</time>
      </trkpt>
      <trkpt lat="45.05511" lon="6.28349">
        <ele>1777.6</ele>
        <time>2024-08-10T09:28:18Z</time>
      </trkpt>
      <trkpt lat="45.05509" lon="6.28351">
        <ele>1777.6</ele>
        <time>2024-08-10T09:28:19Z</time>
      </trkpt>
      <trkpt lat="45.05509" lon="6.28351">
        <ele>1777.6</ele>
        <time>2024-08-10T09:28:20Z</time>
      </trkpt>
      <trkpt lat="45.05507" lon="6.28352">
        <ele>1777.8</ele>
        <time>2024-08-10T09:28:21Z</time>
      </trkpt>
      <trkpt lat="45.05507" lon="6.28352">
        <ele>1777.8</ele>
        <time>2024-08-10T09:28:22Z</time>
      </trkpt>
      <trkpt lat="45.05507" lon="6.28352">
        <ele>1777.8</ele>
        <time>2024-08-10T09:28:23Z</time>
      </trkpt>
      <trkpt lat="45.05506" lon="6.28355">
        <ele>1778</ele>
        <time>2024-08-10T09:28:24Z</time>
      </trkpt>
      <trkpt lat="45.05506" lon="6.28355">
        <ele>1778.4</ele>
        <time>2024-08-10T09:28:25Z</time>
      </trkpt>
      <trkpt lat="45.05506" lon="6.28355">
        <ele>1778.4</ele>
        <time>2024-08-10T09:28:26Z</time>
      </trkpt>
      <trkpt lat="45.05504" lon="6.28358">
        <ele>1778.4</ele>
        <time>2024-08-10T09:28:27Z</time>
      </trkpt>
      <trkpt lat="45.05504" lon="6.28358">
        <ele>1778.4</ele>
        <time>2024-08-10T09:28:28Z</time>
      </trkpt>
      <trkpt lat="45.05503" lon="6.2836">
        <ele>1778.6</ele>
        <time>2024-08-10T09:28:29Z</time>
      </trkpt>
      <trkpt lat="45.05503" lon="6.2836">
        <ele>1778.8</ele>
        <time>2024-08-10T09:28:30Z</time>
      </trkpt>
      <trkpt lat="45.05501" lon="6.28363">
        <ele>1778.8</ele>
        <time>2024-08-10T09:28:31Z</time>
      </trkpt>
      <trkpt lat="45.05501" lon="6.28363">
        <ele>1779.2</ele>
        <time>2024-08-10T09:28:32Z</time>
      </trkpt>
      <trkpt lat="45.055" lon="6.28365">
        <ele>1779.2</ele>
        <time>2024-08-10T09:28:33Z</time>
      </trkpt>
      <trkpt lat="45.055" lon="6.28365">
        <ele>1779.2</ele>
        <time>2024-08-10T09:28:34Z</time>
      </trkpt>
      <trkpt lat="45.05499" lon="6.28368">
        <ele>1779.4</ele>
        <time>2024-08-10T09:28:35Z</time>
      </trkpt>
      <trkpt lat="45.05499" lon="6.28368">
        <ele>1779.6</ele>
        <time>2024-08-10T09:28:36Z</time>
      </trkpt>
      <trkpt lat="45.05497" lon="6.2837">
        <ele>1779.6</ele>
        <time>2024-08-10T09:28:37Z</time>
      </trkpt>
      <trkpt lat="45.05497" lon="6.2837">
        <ele>1779.6</ele>
        <time>2024-08-10T09:28:38Z</time>
      </trkpt>
      <trkpt lat="45.05495" lon="6.28372">
        <ele>1779.6</ele>
        <time>2024-08-10T09:28:39Z</time>
      </trkpt>
      <trkpt lat="45.05495" lon="6.28372">
        <ele>1780</ele>
        <time>2024-08-10T09:28:40Z</time>
      </trkpt>
      <trkpt lat="45.05494" lon="6.28375">
        <ele>1780.4</ele>
        <time>2024-08-10T09:28:41Z</time>
      </trkpt>
      <trkpt lat="45.05494" lon="6.28375">
        <ele>1780.4</ele>
        <time>2024-08-10T09:28:42Z</time>
      </trkpt>
      <trkpt lat="45.05493" lon="6.28377">
        <ele>1780.4</ele>
        <time>2024-08-10T09:28:43Z</time>
      </trkpt>
      <trkpt lat="45.05493" lon="6.28377">
        <ele>1780.6</ele>
        <time>2024-08-10T09:28:44Z</time>
      </trkpt>
      <trkpt lat="45.05491" lon="6.28379">
        <ele>1780.6</ele>
        <time>2024-08-10T09:28:45Z</time>
      </trkpt>
      <trkpt lat="45.05491" lon="6.28379">
        <ele>1780.8</ele>
        <time>2024-08-10T09:28:46Z</time>
      </trkpt>
      <trkpt lat="45.05491" lon="6.28379">
        <ele>1780.8</ele>
        <time>2024-08-10T09:28:47Z</time>
      </trkpt>
      <trkpt lat="45.05488" lon="6.28381">
        <ele>1780.8</ele>
        <time>2024-08-10T09:28:48Z</time>
      </trkpt>
      <trkpt lat="45.05488" lon="6.28381">
        <ele>1781</ele>
        <time>2024-08-10T09:28:49Z</time>
      </trkpt>
      <trkpt lat="45.05487" lon="6.28383">
        <ele>1781.2</ele>
        <time>2024-08-10T09:28:50Z</time>
      </trkpt>
      <trkpt lat="45.05487" lon="6.28383">
        <ele>1781.4</ele>
        <time>2024-08-10T09:28:51Z</time>
      </trkpt>
      <trkpt lat="45.05485" lon="6.28385">
        <ele>1781.4</ele>
        <time>2024-08-10T09:28:52Z</time>
      </trkpt>
      <trkpt lat="45.05485" lon="6.28385">
        <ele>1781.4</ele>
        <time>2024-08-10T09:28:53Z</time>
      </trkpt>
      <trkpt lat="45.05483" lon="6.28387">
        <ele>1781.8</ele>
        <time>2024-08-10T09:28:54Z</time>
      </trkpt>
      <trkpt lat="45.05483" lon="6.28387">
        <ele>1781.8</ele>
        <time>2024-08-10T09:28:55Z</time>
      </trkpt>
      <trkpt lat="45.05482" lon="6.2839">
        <ele>1782</ele>
        <time>2024-08-10T09:28:56Z</time>
      </trkpt>
      <trkpt lat="45.05482" lon="6.2839">
        <ele>1782</ele>
        <time>2024-08-10T09:28:57Z</time>
      </trkpt>
      <trkpt lat="45.05481" lon="6.28392">
        <ele>1782</ele>
        <time>2024-08-10T09:28:58Z</time>
      </trkpt>
      <trkpt lat="45.05481" lon="6.28392">
        <ele>1782.2</ele>
        <time>2024-08-10T09:28:59Z</time>
      </trkpt>
      <trkpt lat="45.0548" lon="6.28395">
        <ele>1782.4</ele>
        <time>2024-08-10T09:29:00Z</time>
      </trkpt>
      <trkpt lat="45.0548" lon="6.28395">
        <ele>1782.4</ele>
        <time>2024-08-10T09:29:01Z</time>
      </trkpt>
      <trkpt lat="45.05479" lon="6.28397">
        <ele>1782.6</ele>
        <time>2024-08-10T09:29:02Z</time>
      </trkpt>
      <trkpt lat="45.05479" lon="6.28397">
        <ele>1783</ele>
        <time>2024-08-10T09:29:03Z</time>
      </trkpt>
      <trkpt lat="45.05477" lon="6.28399">
        <ele>1783</ele>
        <time>2024-08-10T09:29:04Z</time>
      </trkpt>
      <trkpt lat="45.05477" lon="6.28399">
        <ele>1782.8</ele>
        <time>2024-08-10T09:29:05Z</time>
      </trkpt>
      <trkpt lat="45.05476" lon="6.28401">
        <ele>1782.8</ele>
        <time>2024-08-10T09:29:06Z</time>
      </trkpt>
      <trkpt lat="45.05476" lon="6.28401">
        <ele>1783</ele>
        <time>2024-08-10T09:29:07Z</time>
      </trkpt>
      <trkpt lat="45.05473" lon="6.28403">
        <ele>1783.2</ele>
        <time>2024-08-10T09:29:08Z</time>
      </trkpt>
      <trkpt lat="45.05473" lon="6.28403">
        <ele>1783.6</ele>
        <time>2024-08-10T09:29:09Z</time>
      </trkpt>
      <trkpt lat="45.05472" lon="6.28404">
        <ele>1783.6</ele>
        <time>2024-08-10T09:29:10Z</time>
      </trkpt>
      <trkpt lat="45.05472" lon="6.28404">
        <ele>1783.6</ele>
        <time>2024-08-10T09:29:11Z</time>
      </trkpt>
      <trkpt lat="45.0547" lon="6.28406">
        <ele>1783.8</ele>
        <time>2024-08-10T09:29:12Z</time>
      </trkpt>
      <trkpt lat="45.0547" lon="6.28406">
        <ele>1783.8</ele>
        <time>2024-08-10T09:29:13Z</time>
      </trkpt>
      <trkpt lat="45.05469" lon="6.28408">
        <ele>1784.2</ele>
        <time>2024-08-10T09:29:14Z</time>
      </trkpt>
      <trkpt lat="45.05469" lon="6.28408">
        <ele>1784.4</ele>
        <time>2024-08-10T09:29:15Z</time>
      </trkpt>
      <trkpt lat="45.05467" lon="6.2841">
        <ele>1784.6</ele>
        <time>2024-08-10T09:29:16Z</time>
      </trkpt>
      <trkpt lat="45.05467" lon="6.2841">
        <ele>1784.8</ele>
        <time>2024-08-10T09:29:17Z</time>
      </trkpt>
      <trkpt lat="45.05465" lon="6.28411">
        <ele>1785</ele>
        <time>2024-08-10T09:29:18Z</time>
      </trkpt>
      <trkpt lat="45.05465" lon="6.28411">
        <ele>1785</ele>
        <time>2024-08-10T09:29:19Z</time>
      </trkpt>
      <trkpt lat="45.05465" lon="6.28411">
        <ele>1785.2</ele>
        <time>2024-08-10T09:29:20Z</time>
      </trkpt>
      <trkpt lat="45.05463" lon="6.28411">
        <ele>1785.4</ele>
        <time>2024-08-10T09:29:21Z</time>
      </trkpt>
      <trkpt lat="45.05463" lon="6.28411">
        <ele>1785.8</ele>
        <time>2024-08-10T09:29:22Z</time>
      </trkpt>
      <trkpt lat="45.05463" lon="6.28411">
        <ele>1786</ele>
        <time>2024-08-10T09:29:23Z</time>
      </trkpt>
      <trkpt lat="45.05463" lon="6.28411">
        <ele>1786</ele>
        <time>2024-08-10T09:29:24Z</time>
      </trkpt>
      <trkpt lat="45.05463" lon="6.28411">
        <ele>1786</ele>
        <time>2024-08-10T09:29:25Z</time>
      </trkpt>
      <trkpt lat="45.05463" lon="6.28411">
        <ele>1786.2</ele>
        <time>2024-08-10T09:29:26Z</time>
      </trkpt>
      <trkpt lat="45.05461" lon="6.28413">
        <ele>1786.4</ele>
        <time>2024-08-10T09:29:27Z</time>
      </trkpt>
      <trkpt lat="45.05461" lon="6.28413">
        <ele>1786.4</ele>
        <time>2024-08-10T09:29:28Z</time>
      </trkpt>
      <trkpt lat="45.05459" lon="6.28413">
        <ele>1786.4</ele>
        <time>2024-08-10T09:29:29Z</time>
      </trkpt>
      <trkpt lat="45.05459" lon="6.28413">
        <ele>1786.6</ele>
        <time>2024-08-10T09:29:30Z</time>
      </trkpt>
      <trkpt lat="45.05457" lon="6.28414">
        <ele>1786.6</ele>
        <time>2024-08-10T09:29:31Z</time>
      </trkpt>
      <trkpt lat="45.05457" lon="6.28414">
        <ele>1786.6</ele>
        <time>2024-08-10T09:29:32Z</time>
      </trkpt>
      <trkpt lat="45.05454" lon="6.28414">
        <ele>1786.6</ele>
        <time>2024-08-10T09:29:33Z</time>
      </trkpt>
      <trkpt lat="45.05454" lon="6.28414">
        <ele>1787</ele>
        <time>2024-08-10T09:29:34Z</time>
      </trkpt>
      <trkpt lat="45.05453" lon="6.28416">
        <ele>1787</ele>
        <time>2024-08-10T09:29:35Z</time>
      </trkpt>
      <trkpt lat="45.05453" lon="6.28416">
        <ele>1787.4</ele>
        <time>2024-08-10T09:29:36Z</time>
      </trkpt>
      <trkpt lat="45.0545" lon="6.28417">
        <ele>1787.6</ele>
        <time>2024-08-10T09:29:37Z</time>
      </trkpt>
      <trkpt lat="45.0545" lon="6.28417">
        <ele>1787.6</ele>
        <time>2024-08-10T09:29:38Z</time>
      </trkpt>
      <trkpt lat="45.0545" lon="6.28417">
        <ele>1787.6</ele>
        <time>2024-08-10T09:29:39Z</time>
      </trkpt>
      <trkpt lat="45.05448" lon="6.2842">
        <ele>1788</ele>
        <time>2024-08-10T09:29:40Z</time>
      </trkpt>
      <trkpt lat="45.05448" lon="6.2842">
        <ele>1788</ele>
        <time>2024-08-10T09:29:41Z</time>
      </trkpt>
      <trkpt lat="45.05448" lon="6.2842">
        <ele>1788</ele>
        <time>2024-08-10T09:29:42Z</time>
      </trkpt>
      <trkpt lat="45.05445" lon="6.28421">
        <ele>1788.2</ele>
        <time>2024-08-10T09:29:43Z</time>
      </trkpt>
      <trkpt lat="45.05445" lon="6.28421">
        <ele>1788</ele>
        <time>2024-08-10T09:29:44Z</time>
      </trkpt>
      <trkpt lat="45.05444" lon="6.28423">
        <ele>1788.2</ele>
        <time>2024-08-10T09:29:45Z</time>
      </trkpt>
      <trkpt lat="45.05444" lon="6.28423">
        <ele>1788.4</ele>
        <time>2024-08-10T09:29:46Z</time>
      </trkpt>
      <trkpt lat="45.05444" lon="6.28423">
        <ele>1788.8</ele>
        <time>2024-08-10T09:29:47Z</time>
      </trkpt>
      <trkpt lat="45.05444" lon="6.28423">
        <ele>1789</ele>
        <time>2024-08-10T09:29:48Z</time>
      </trkpt>
      <trkpt lat="45.05444" lon="6.28423">
        <ele>1789.2</ele>
        <time>2024-08-10T09:29:49Z</time>
      </trkpt>
      <trkpt lat="45.05444" lon="6.28423">
        <ele>1789.4</ele>
        <time>2024-08-10T09:29:50Z</time>
      </trkpt>
      <trkpt lat="45.05444" lon="6.28423">
        <ele>1789.4</ele>
        <time>2024-08-10T09:29:51Z</time>
      </trkpt>
      <trkpt lat="45.05444" lon="6.28423">
        <ele>1789.4</ele>
        <time>2024-08-10T09:29:52Z</time>
      </trkpt>
      <trkpt lat="45.05444" lon="6.28423">
        <ele>1789.4</ele>
        <time>2024-08-10T09:29:53Z</time>
      </trkpt>
      <trkpt lat="45.05444" lon="6.28423">
        <ele>1789.4</ele>
        <time>2024-08-10T09:29:54Z</time>
      </trkpt>
      <trkpt lat="45.05444" lon="6.28423">
        <ele>1789.4</ele>
        <time>2024-08-10T09:29:55Z</time>
      </trkpt>
      <trkpt lat="45.05444" lon="6.28423">
        <ele>1789.4</ele>
        <time>2024-08-10T09:29:56Z</time>
      </trkpt>
      <trkpt lat="45.05444" lon="6.28423">
        <ele>1789.4</ele>
        <time>2024-08-10T09:29:57Z</time>
      </trkpt>
      <trkpt lat="45.05444" lon="6.28423">
        <ele>1789.4</ele>
        <time>2024-08-10T09:29:58Z</time>
      </trkpt>
      <trkpt lat="45.05444" lon="6.28423">
        <ele>1789.4</ele>
        <time>2024-08-10T09:29:59Z</time>
      </trkpt>
      <trkpt lat="45.05444" lon="6.28423">
        <ele>1789.4</ele>
        <time>2024-08-10T09:30:00Z</time>
      </trkpt>
      <trkpt lat="45.05444" lon="6.28423">
        <ele>1789.6</ele>
        <time>2024-08-10T09:30:01Z</time>
      </trkpt>
      <trkpt lat="45.05444" lon="6.28423">
        <ele>1789.6</ele>
        <time>2024-08-10T09:30:02Z</time>
      </trkpt>
      <trkpt lat="45.05444" lon="6.28423">
        <ele>1789.4</ele>
        <time>2024-08-10T09:30:03Z</time>
      </trkpt>
      <trkpt lat="45.05444" lon="6.28423">
        <ele>1789.4</ele>
        <time>2024-08-10T09:30:04Z</time>
      </trkpt>
      <trkpt lat="45.05445" lon="6.28424">
        <ele>1789.4</ele>
        <time>2024-08-10T09:30:05Z</time>
      </trkpt>
      <trkpt lat="45.05445" lon="6.28424">
        <ele>1789.4</ele>
        <time>2024-08-10T09:30:06Z</time>
      </trkpt>
      <trkpt lat="45.05447" lon="6.28423">
        <ele>1789.4</ele>
        <time>2024-08-10T09:30:07Z</time>
      </trkpt>
      <trkpt lat="45.05447" lon="6.28423">
        <ele>1789.2</ele>
        <time>2024-08-10T09:30:08Z</time>
      </trkpt>
      <trkpt lat="45.05449" lon="6.28423">
        <ele>1789.2</ele>
        <time>2024-08-10T09:30:09Z</time>
      </trkpt>
      <trkpt lat="45.05449" lon="6.28423">
        <ele>1789.2</ele>
        <time>2024-08-10T09:30:10Z</time>
      </trkpt>
      <trkpt lat="45.05449" lon="6.28423">
        <ele>1789.2</ele>
        <time>2024-08-10T09:30:11Z</time>
      </trkpt>
      <trkpt lat="45.05449" lon="6.28423">
        <ele>1789</ele>
        <time>2024-08-10T09:30:12Z</time>
      </trkpt>
      <trkpt lat="45.05449" lon="6.28423">
        <ele>1788.8</ele>
        <time>2024-08-10T09:30:13Z</time>
      </trkpt>
      <trkpt lat="45.05449" lon="6.28423">
        <ele>1788.6</ele>
        <time>2024-08-10T09:30:14Z</time>
      </trkpt>
      <trkpt lat="45.05449" lon="6.28423">
        <ele>1788.6</ele>
        <time>2024-08-10T09:30:15Z</time>
      </trkpt>
      <trkpt lat="45.05449" lon="6.28423">
        <ele>1788.4</ele>
        <time>2024-08-10T09:30:16Z</time>
      </trkpt>
      <trkpt lat="45.05449" lon="6.28423">
        <ele>1788.4</ele>
        <time>2024-08-10T09:30:17Z</time>
      </trkpt>
      <trkpt lat="45.05449" lon="6.28423">
        <ele>1788.8</ele>
        <time>2024-08-10T09:30:18Z</time>
      </trkpt>
      <trkpt lat="45.05449" lon="6.28423">
        <ele>1788.8</ele>
        <time>2024-08-10T09:30:19Z</time>
      </trkpt>
      <trkpt lat="45.05449" lon="6.28423">
        <ele>1788.8</ele>
        <time>2024-08-10T09:30:20Z</time>
      </trkpt>
      <trkpt lat="45.05449" lon="6.28423">
        <ele>1788.8</ele>
        <time>2024-08-10T09:30:21Z</time>
      </trkpt>
      <trkpt lat="45.05449" lon="6.28423">
        <ele>1788.6</ele>
        <time>2024-08-10T09:30:22Z</time>
      </trkpt>
      <trkpt lat="45.05449" lon="6.28423">
        <ele>1788.6</ele>
        <time>2024-08-10T09:30:23Z</time>
      </trkpt>
      <trkpt lat="45.05449" lon="6.28423">
        <ele>1788.6</ele>
        <time>2024-08-10T09:30:24Z</time>
      </trkpt>
      <trkpt lat="45.05449" lon="6.28423">
        <ele>1788.6</ele>
        <time>2024-08-10T09:30:25Z</time>
      </trkpt>
      <trkpt lat="45.05449" lon="6.28423">
        <ele>1788.6</ele>
        <time>2024-08-10T09:30:26Z</time>
      </trkpt>
      <trkpt lat="45.05449" lon="6.28423">
        <ele>1789</ele>
        <time>2024-08-10T09:30:27Z</time>
      </trkpt>
      <trkpt lat="45.05449" lon="6.28423">
        <ele>1789.2</ele>
        <time>2024-08-10T09:30:28Z</time>
      </trkpt>
      <trkpt lat="45.05449" lon="6.28423">
        <ele>1789.2</ele>
        <time>2024-08-10T09:30:29Z</time>
      </trkpt>
      <trkpt lat="45.05449" lon="6.28423">
        <ele>1789</ele>
        <time>2024-08-10T09:30:30Z</time>
      </trkpt>
      <trkpt lat="45.05449" lon="6.28423">
        <ele>1788.8</ele>
        <time>2024-08-10T09:30:31Z</time>
      </trkpt>
      <trkpt lat="45.05449" lon="6.28423">
        <ele>1788.8</ele>
        <time>2024-08-10T09:30:32Z</time>
      </trkpt>
      <trkpt lat="45.05449" lon="6.28423">
        <ele>1788.6</ele>
        <time>2024-08-10T09:30:33Z</time>
      </trkpt>
      <trkpt lat="45.05449" lon="6.28423">
        <ele>1788.6</ele>
        <time>2024-08-10T09:30:34Z</time>
      </trkpt>
      <trkpt lat="45.05449" lon="6.28423">
        <ele>1788.6</ele>
        <time>2024-08-10T09:30:35Z</time>
      </trkpt>
      <trkpt lat="45.05449" lon="6.28423">
        <ele>1788.6</ele>
        <time>2024-08-10T09:30:36Z</time>
      </trkpt>
      <trkpt lat="45.05449" lon="6.28423">
        <ele>1788.6</ele>
        <time>2024-08-10T09:30:37Z</time>
      </trkpt>
      <trkpt lat="45.05449" lon="6.28423">
        <ele>1788.8</ele>
        <time>2024-08-10T09:30:38Z</time>
      </trkpt>
      <trkpt lat="45.05449" lon="6.28423">
        <ele>1788.8</ele>
        <time>2024-08-10T09:30:39Z</time>
      </trkpt>
      <trkpt lat="45.05449" lon="6.28423">
        <ele>1788.4</ele>
        <time>2024-08-10T09:30:40Z</time>
      </trkpt>
      <trkpt lat="45.05449" lon="6.28423">
        <ele>1788.4</ele>
        <time>2024-08-10T09:30:41Z</time>
      </trkpt>
      <trkpt lat="45.05449" lon="6.28423">
        <ele>1788.8</ele>
        <time>2024-08-10T09:30:42Z</time>
      </trkpt>
      <trkpt lat="45.05449" lon="6.28423">
        <ele>1788.8</ele>
        <time>2024-08-10T09:30:43Z</time>
      </trkpt>
      <trkpt lat="45.05449" lon="6.28423">
        <ele>1788.6</ele>
        <time>2024-08-10T09:30:44Z</time>
      </trkpt>
      <trkpt lat="45.05451" lon="6.28424">
        <ele>1788.6</ele>
        <time>2024-08-10T09:30:45Z</time>
      </trkpt>
      <trkpt lat="45.05451" lon="6.28424">
        <ele>1788.8</ele>
        <time>2024-08-10T09:30:46Z</time>
      </trkpt>
      <trkpt lat="45.05451" lon="6.28424">
        <ele>1788.8</ele>
        <time>2024-08-10T09:30:47Z</time>
      </trkpt>
      <trkpt lat="45.05451" lon="6.28424">
        <ele>1789</ele>
        <time>2024-08-10T09:30:48Z</time>
      </trkpt>
      <trkpt lat="45.05451" lon="6.28424">
        <ele>1789</ele>
        <time>2024-08-10T09:30:49Z</time>
      </trkpt>
      <trkpt lat="45.05451" lon="6.28424">
        <ele>1789</ele>
        <time>2024-08-10T09:30:50Z</time>
      </trkpt>
      <trkpt lat="45.05451" lon="6.28424">
        <ele>1789</ele>
        <time>2024-08-10T09:30:51Z</time>
      </trkpt>
      <trkpt lat="45.05451" lon="6.28424">
        <ele>1789</ele>
        <time>2024-08-10T09:30:52Z</time>
      </trkpt>
      <trkpt lat="45.05451" lon="6.28424">
        <ele>1789</ele>
        <time>2024-08-10T09:30:53Z</time>
      </trkpt>
      <trkpt lat="45.05451" lon="6.28424">
        <ele>1789.2</ele>
        <time>2024-08-10T09:30:54Z</time>
      </trkpt>
      <trkpt lat="45.05451" lon="6.28424">
        <ele>1789.4</ele>
        <time>2024-08-10T09:30:55Z</time>
      </trkpt>
      <trkpt lat="45.05451" lon="6.28424">
        <ele>1789.4</ele>
        <time>2024-08-10T09:30:56Z</time>
      </trkpt>
      <trkpt lat="45.05451" lon="6.28424">
        <ele>1789.2</ele>
        <time>2024-08-10T09:30:57Z</time>
      </trkpt>
      <trkpt lat="45.05451" lon="6.28424">
        <ele>1789.2</ele>
        <time>2024-08-10T09:30:58Z</time>
      </trkpt>
      <trkpt lat="45.05451" lon="6.28424">
        <ele>1789.2</ele>
        <time>2024-08-10T09:30:59Z</time>
      </trkpt>
      <trkpt lat="45.05451" lon="6.28424">
        <ele>1789.4</ele>
        <time>2024-08-10T09:31:00Z</time>
      </trkpt>
      <trkpt lat="45.05451" lon="6.28424">
        <ele>1789.6</ele>
        <time>2024-08-10T09:31:01Z</time>
      </trkpt>
      <trkpt lat="45.05451" lon="6.28424">
        <ele>1789.6</ele>
        <time>2024-08-10T09:31:02Z</time>
      </trkpt>
      <trkpt lat="45.05451" lon="6.28424">
        <ele>1789.8</ele>
        <time>2024-08-10T09:31:03Z</time>
      </trkpt>
      <trkpt lat="45.05451" lon="6.28424">
        <ele>1789.8</ele>
        <time>2024-08-10T09:31:04Z</time>
      </trkpt>
      <trkpt lat="45.05451" lon="6.28424">
        <ele>1789.8</ele>
        <time>2024-08-10T09:31:05Z</time>
      </trkpt>
      <trkpt lat="45.05451" lon="6.28424">
        <ele>1789.8</ele>
        <time>2024-08-10T09:31:06Z</time>
      </trkpt>
      <trkpt lat="45.05451" lon="6.28424">
        <ele>1790</ele>
        <time>2024-08-10T09:31:07Z</time>
      </trkpt>
      <trkpt lat="45.05451" lon="6.28424">
        <ele>1790</ele>
        <time>2024-08-10T09:31:08Z</time>
      </trkpt>
      <trkpt lat="45.05451" lon="6.28424">
        <ele>1790</ele>
        <time>2024-08-10T09:31:09Z</time>
      </trkpt>
      <trkpt lat="45.05451" lon="6.28424">
        <ele>1790</ele>
        <time>2024-08-10T09:31:10Z</time>
      </trkpt>
      <trkpt lat="45.05451" lon="6.28424">
        <ele>1790</ele>
        <time>2024-08-10T09:31:11Z</time>
      </trkpt>
      <trkpt lat="45.05451" lon="6.28424">
        <ele>1790</ele>
        <time>2024-08-10T09:31:12Z</time>
      </trkpt>
      <trkpt lat="45.05451" lon="6.28424">
        <ele>1790.2</ele>
        <time>2024-08-10T09:31:13Z</time>
      </trkpt>
      <trkpt lat="45.05451" lon="6.28424">
        <ele>1790.2</ele>
        <time>2024-08-10T09:31:14Z</time>
      </trkpt>
      <trkpt lat="45.05451" lon="6.28424">
        <ele>1790.2</ele>
        <time>2024-08-10T09:31:15Z</time>
      </trkpt>
      <trkpt lat="45.05451" lon="6.28424">
        <ele>1790.2</ele>
        <time>2024-08-10T09:31:16Z</time>
      </trkpt>
      <trkpt lat="45.05451" lon="6.28424">
        <ele>1790</ele>
        <time>2024-08-10T09:31:17Z</time>
      </trkpt>
      <trkpt lat="45.05451" lon="6.28424">
        <ele>1789.6</ele>
        <time>2024-08-10T09:31:18Z</time>
      </trkpt>
      <trkpt lat="45.05451" lon="6.28424">
        <ele>1789.6</ele>
        <time>2024-08-10T09:31:19Z</time>
      </trkpt>
      <trkpt lat="45.05451" lon="6.28424">
        <ele>1789.6</ele>
        <time>2024-08-10T09:31:20Z</time>
      </trkpt>
      <trkpt lat="45.05451" lon="6.28424">
        <ele>1789.8</ele>
        <time>2024-08-10T09:31:21Z</time>
      </trkpt>
      <trkpt lat="45.05451" lon="6.28424">
        <ele>1789.8</ele>
        <time>2024-08-10T09:31:22Z</time>
      </trkpt>
      <trkpt lat="45.05451" lon="6.28424">
        <ele>1789.8</ele>
        <time>2024-08-10T09:31:23Z</time>
      </trkpt>
      <trkpt lat="45.05451" lon="6.28424">
        <ele>1789.8</ele>
        <time>2024-08-10T09:31:24Z</time>
      </trkpt>
      <trkpt lat="45.05451" lon="6.28424">
        <ele>1789.8</ele>
        <time>2024-08-10T09:31:25Z</time>
      </trkpt>
      <trkpt lat="45.05451" lon="6.28424">
        <ele>1789.8</ele>
        <time>2024-08-10T09:31:26Z</time>
      </trkpt>
      <trkpt lat="45.05451" lon="6.28424">
        <ele>1789.8</ele>
        <time>2024-08-10T09:31:27Z</time>
      </trkpt>
      <trkpt lat="45.05451" lon="6.28424">
        <ele>1789.8</ele>
        <time>2024-08-10T09:31:28Z</time>
      </trkpt>
      <trkpt lat="45.05451" lon="6.28424">
        <ele>1789.8</ele>
        <time>2024-08-10T09:31:29Z</time>
      </trkpt>
      <trkpt lat="45.05451" lon="6.28424">
        <ele>1789.8</ele>
        <time>2024-08-10T09:31:30Z</time>
      </trkpt>
      <trkpt lat="45.05451" lon="6.28424">
        <ele>1789.8</ele>
        <time>2024-08-10T09:31:31Z</time>
      </trkpt>
      <trkpt lat="45.05451" lon="6.28424">
        <ele>1789.6</ele>
        <time>2024-08-10T09:31:32Z</time>
      </trkpt>
      <trkpt lat="45.05451" lon="6.28424">
        <ele>1789.6</ele>
        <time>2024-08-10T09:31:33Z</time>
      </trkpt>
      <trkpt lat="45.05451" lon="6.28424">
        <ele>1789.6</ele>
        <time>2024-08-10T09:31:34Z</time>
      </trkpt>
      <trkpt lat="45.05451" lon="6.28424">
        <ele>1789.6</ele>
        <time>2024-08-10T09:31:35Z</time>
      </trkpt>
      <trkpt lat="45.05451" lon="6.28424">
        <ele>1789.6</ele>
        <time>2024-08-10T09:31:36Z</time>
      </trkpt>
      <trkpt lat="45.05451" lon="6.28424">
        <ele>1789.8</ele>
        <time>2024-08-10T09:31:37Z</time>
      </trkpt>
      <trkpt lat="45.05451" lon="6.28424">
        <ele>1789.8</ele>
        <time>2024-08-10T09:31:38Z</time>
      </trkpt>
      <trkpt lat="45.05451" lon="6.28424">
        <ele>1789.8</ele>
        <time>2024-08-10T09:31:39Z</time>
      </trkpt>
      <trkpt lat="45.05451" lon="6.28424">
        <ele>1790</ele>
        <time>2024-08-10T09:31:40Z</time>
      </trkpt>
      <trkpt lat="45.05451" lon="6.28424">
        <ele>1790</ele>
        <time>2024-08-10T09:31:41Z</time>
      </trkpt>
      <trkpt lat="45.05451" lon="6.28424">
        <ele>1790.2</ele>
        <time>2024-08-10T09:31:42Z</time>
      </trkpt>
      <trkpt lat="45.05451" lon="6.28424">
        <ele>1790.2</ele>
        <time>2024-08-10T09:31:43Z</time>
      </trkpt>
      <trkpt lat="45.05451" lon="6.28424">
        <ele>1790</ele>
        <time>2024-08-10T09:31:44Z</time>
      </trkpt>
      <trkpt lat="45.05451" lon="6.28424">
        <ele>1790</ele>
        <time>2024-08-10T09:31:45Z</time>
      </trkpt>
      <trkpt lat="45.05451" lon="6.28424">
        <ele>1790</ele>
        <time>2024-08-10T09:31:46Z</time>
      </trkpt>
      <trkpt lat="45.05451" lon="6.28424">
        <ele>1790.2</ele>
        <time>2024-08-10T09:31:47Z</time>
      </trkpt>
      <trkpt lat="45.05451" lon="6.28424">
        <ele>1790.2</ele>
        <time>2024-08-10T09:31:48Z</time>
      </trkpt>
      <trkpt lat="45.05451" lon="6.28424">
        <ele>1790</ele>
        <time>2024-08-10T09:31:49Z</time>
      </trkpt>
      <trkpt lat="45.05451" lon="6.28424">
        <ele>1789.8</ele>
        <time>2024-08-10T09:31:50Z</time>
      </trkpt>
      <trkpt lat="45.05451" lon="6.28424">
        <ele>1789.8</ele>
        <time>2024-08-10T09:31:51Z</time>
      </trkpt>
      <trkpt lat="45.05451" lon="6.28424">
        <ele>1790</ele>
        <time>2024-08-10T09:31:52Z</time>
      </trkpt>
      <trkpt lat="45.05451" lon="6.28424">
        <ele>1790</ele>
        <time>2024-08-10T09:31:53Z</time>
      </trkpt>
      <trkpt lat="45.05451" lon="6.28424">
        <ele>1790</ele>
        <time>2024-08-10T09:31:54Z</time>
      </trkpt>
      <trkpt lat="45.05451" lon="6.28424">
        <ele>1790</ele>
        <time>2024-08-10T09:31:55Z</time>
      </trkpt>
      <trkpt lat="45.05451" lon="6.28424">
        <ele>1790</ele>
        <time>2024-08-10T09:31:56Z</time>
      </trkpt>
      <trkpt lat="45.05451" lon="6.28424">
        <ele>1790</ele>
        <time>2024-08-10T09:31:57Z</time>
      </trkpt>
      <trkpt lat="45.05451" lon="6.28424">
        <ele>1790</ele>
        <time>2024-08-10T09:31:58Z</time>
      </trkpt>
      <trkpt lat="45.05451" lon="6.28424">
        <ele>1790</ele>
        <time>2024-08-10T09:31:59Z</time>
      </trkpt>
      <trkpt lat="45.05451" lon="6.28424">
        <ele>1790</ele>
        <time>2024-08-10T09:32:00Z</time>
      </trkpt>
      <trkpt lat="45.05451" lon="6.28424">
        <ele>1790</ele>
        <time>2024-08-10T09:32:01Z</time>
      </trkpt>
      <trkpt lat="45.05451" lon="6.28424">
        <ele>1790</ele>
        <time>2024-08-10T09:32:02Z</time>
      </trkpt>
      <trkpt lat="45.05451" lon="6.28424">
        <ele>1790</ele>
        <time>2024-08-10T09:32:03Z</time>
      </trkpt>
      <trkpt lat="45.0545" lon="6.2842">
        <ele>1790</ele>
        <time>2024-08-10T09:32:04Z</time>
      </trkpt>
      <trkpt lat="45.0545" lon="6.2842">
        <ele>1790</ele>
        <time>2024-08-10T09:32:05Z</time>
      </trkpt>
      <trkpt lat="45.05449" lon="6.28418">
        <ele>1790</ele>
        <time>2024-08-10T09:32:06Z</time>
      </trkpt>
      <trkpt lat="45.05449" lon="6.28418">
        <ele>1790.2</ele>
        <time>2024-08-10T09:32:07Z</time>
      </trkpt>
      <trkpt lat="45.05449" lon="6.28418">
        <ele>1790.2</ele>
        <time>2024-08-10T09:32:08Z</time>
      </trkpt>
      <trkpt lat="45.05449" lon="6.28418">
        <ele>1790.2</ele>
        <time>2024-08-10T09:32:09Z</time>
      </trkpt>
      <trkpt lat="45.05449" lon="6.28418">
        <ele>1790.2</ele>
        <time>2024-08-10T09:32:10Z</time>
      </trkpt>
      <trkpt lat="45.05447" lon="6.2842">
        <ele>1790.2</ele>
        <time>2024-08-10T09:32:11Z</time>
      </trkpt>
      <trkpt lat="45.05447" lon="6.2842">
        <ele>1790</ele>
        <time>2024-08-10T09:32:12Z</time>
      </trkpt>
      <trkpt lat="45.05447" lon="6.2842">
        <ele>1790</ele>
        <time>2024-08-10T09:32:13Z</time>
      </trkpt>
      <trkpt lat="45.05447" lon="6.2842">
        <ele>1790</ele>
        <time>2024-08-10T09:32:14Z</time>
      </trkpt>
      <trkpt lat="45.05447" lon="6.2842">
        <ele>1790.2</ele>
        <time>2024-08-10T09:32:15Z</time>
      </trkpt>
      <trkpt lat="45.05447" lon="6.2842">
        <ele>1790.2</ele>
        <time>2024-08-10T09:32:16Z</time>
      </trkpt>
      <trkpt lat="45.05447" lon="6.2842">
        <ele>1790.2</ele>
        <time>2024-08-10T09:32:17Z</time>
      </trkpt>
      <trkpt lat="45.05447" lon="6.2842">
        <ele>1790.4</ele>
        <time>2024-08-10T09:32:18Z</time>
      </trkpt>
      <trkpt lat="45.05447" lon="6.2842">
        <ele>1790.4</ele>
        <time>2024-08-10T09:32:19Z</time>
      </trkpt>
      <trkpt lat="45.05447" lon="6.2842">
        <ele>1790.6</ele>
        <time>2024-08-10T09:32:20Z</time>
      </trkpt>
      <trkpt lat="45.05447" lon="6.2842">
        <ele>1790.6</ele>
        <time>2024-08-10T09:32:21Z</time>
      </trkpt>
      <trkpt lat="45.05447" lon="6.2842">
        <ele>1790.6</ele>
        <time>2024-08-10T09:32:22Z</time>
      </trkpt>
      <trkpt lat="45.05447" lon="6.2842">
        <ele>1790.6</ele>
        <time>2024-08-10T09:32:23Z</time>
      </trkpt>
      <trkpt lat="45.05447" lon="6.2842">
        <ele>1790.4</ele>
        <time>2024-08-10T09:32:24Z</time>
      </trkpt>
      <trkpt lat="45.05446" lon="6.28422">
        <ele>1790.4</ele>
        <time>2024-08-10T09:32:25Z</time>
      </trkpt>
      <trkpt lat="45.05446" lon="6.28422">
        <ele>1790.4</ele>
        <time>2024-08-10T09:32:26Z</time>
      </trkpt>
      <trkpt lat="45.05444" lon="6.28423">
        <ele>1790.6</ele>
        <time>2024-08-10T09:32:27Z</time>
      </trkpt>
      <trkpt lat="45.05444" lon="6.28423">
        <ele>1791</ele>
        <time>2024-08-10T09:32:28Z</time>
      </trkpt>
      <trkpt lat="45.05442" lon="6.28426">
        <ele>1791</ele>
        <time>2024-08-10T09:32:29Z</time>
      </trkpt>
      <trkpt lat="45.05442" lon="6.28426">
        <ele>1791.2</ele>
        <time>2024-08-10T09:32:30Z</time>
      </trkpt>
      <trkpt lat="45.05441" lon="6.28428">
        <ele>1791.4</ele>
        <time>2024-08-10T09:32:31Z</time>
      </trkpt>
      <trkpt lat="45.05441" lon="6.28428">
        <ele>1791.4</ele>
        <time>2024-08-10T09:32:32Z</time>
      </trkpt>
      <trkpt lat="45.05439" lon="6.2843">
        <ele>1791.4</ele>
        <time>2024-08-10T09:32:33Z</time>
      </trkpt>
      <trkpt lat="45.05439" lon="6.2843">
        <ele>1791.8</ele>
        <time>2024-08-10T09:32:34Z</time>
      </trkpt>
      <trkpt lat="45.05437" lon="6.28431">
        <ele>1791.8</ele>
        <time>2024-08-10T09:32:35Z</time>
      </trkpt>
      <trkpt lat="45.05437" lon="6.28431">
        <ele>1791.8</ele>
        <time>2024-08-10T09:32:36Z</time>
      </trkpt>
      <trkpt lat="45.05434" lon="6.28432">
        <ele>1791.8</ele>
        <time>2024-08-10T09:32:37Z</time>
      </trkpt>
      <trkpt lat="45.05434" lon="6.28432">
        <ele>1792</ele>
        <time>2024-08-10T09:32:38Z</time>
      </trkpt>
      <trkpt lat="45.05432" lon="6.28434">
        <ele>1792</ele>
        <time>2024-08-10T09:32:39Z</time>
      </trkpt>
      <trkpt lat="45.05432" lon="6.28434">
        <ele>1792.2</ele>
        <time>2024-08-10T09:32:40Z</time>
      </trkpt>
      <trkpt lat="45.0543" lon="6.28435">
        <ele>1792.6</ele>
        <time>2024-08-10T09:32:41Z</time>
      </trkpt>
      <trkpt lat="45.0543" lon="6.28435">
        <ele>1793</ele>
        <time>2024-08-10T09:32:42Z</time>
      </trkpt>
      <trkpt lat="45.0543" lon="6.28435">
        <ele>1793.2</ele>
        <time>2024-08-10T09:32:43Z</time>
      </trkpt>
      <trkpt lat="45.05429" lon="6.28438">
        <ele>1793.2</ele>
        <time>2024-08-10T09:32:44Z</time>
      </trkpt>
      <trkpt lat="45.05429" lon="6.28438">
        <ele>1793.6</ele>
        <time>2024-08-10T09:32:45Z</time>
      </trkpt>
      <trkpt lat="45.05428" lon="6.28441">
        <ele>1793.8</ele>
        <time>2024-08-10T09:32:46Z</time>
      </trkpt>
      <trkpt lat="45.05428" lon="6.28441">
        <ele>1794</ele>
        <time>2024-08-10T09:32:47Z</time>
      </trkpt>
      <trkpt lat="45.05428" lon="6.28441">
        <ele>1794</ele>
        <time>2024-08-10T09:32:48Z</time>
      </trkpt>
      <trkpt lat="45.05426" lon="6.28443">
        <ele>1794.2</ele>
        <time>2024-08-10T09:32:49Z</time>
      </trkpt>
      <trkpt lat="45.05426" lon="6.28443">
        <ele>1794.2</ele>
        <time>2024-08-10T09:32:50Z</time>
      </trkpt>
      <trkpt lat="45.05426" lon="6.28443">
        <ele>1794.4</ele>
        <time>2024-08-10T09:32:51Z</time>
      </trkpt>
      <trkpt lat="45.05424" lon="6.28446">
        <ele>1794.6</ele>
        <time>2024-08-10T09:32:52Z</time>
      </trkpt>
      <trkpt lat="45.05424" lon="6.28446">
        <ele>1794.6</ele>
        <time>2024-08-10T09:32:53Z</time>
      </trkpt>
      <trkpt lat="45.05424" lon="6.28446">
        <ele>1794.6</ele>
        <time>2024-08-10T09:32:54Z</time>
      </trkpt>
      <trkpt lat="45.05422" lon="6.28449">
        <ele>1794.8</ele>
        <time>2024-08-10T09:32:55Z</time>
      </trkpt>
      <trkpt lat="45.05422" lon="6.28449">
        <ele>1795</ele>
        <time>2024-08-10T09:32:56Z</time>
      </trkpt>
      <trkpt lat="45.05422" lon="6.28449">
        <ele>1795.2</ele>
        <time>2024-08-10T09:32:57Z</time>
      </trkpt>
      <trkpt lat="45.05421" lon="6.28452">
        <ele>1795.4</ele>
        <time>2024-08-10T09:32:58Z</time>
      </trkpt>
      <trkpt lat="45.05421" lon="6.28452">
        <ele>1795.4</ele>
        <time>2024-08-10T09:32:59Z</time>
      </trkpt>
      <trkpt lat="45.05419" lon="6.28454">
        <ele>1795.8</ele>
        <time>2024-08-10T09:33:00Z</time>
      </trkpt>
      <trkpt lat="45.05419" lon="6.28454">
        <ele>1795.8</ele>
        <time>2024-08-10T09:33:01Z</time>
      </trkpt>
      <trkpt lat="45.05419" lon="6.28454">
        <ele>1796</ele>
        <time>2024-08-10T09:33:02Z</time>
      </trkpt>
      <trkpt lat="45.05419" lon="6.28457">
        <ele>1796.2</ele>
        <time>2024-08-10T09:33:03Z</time>
      </trkpt>
      <trkpt lat="45.05419" lon="6.28457">
        <ele>1796.2</ele>
        <time>2024-08-10T09:33:04Z</time>
      </trkpt>
      <trkpt lat="45.05419" lon="6.28457">
        <ele>1796.4</ele>
        <time>2024-08-10T09:33:05Z</time>
      </trkpt>
      <trkpt lat="45.05419" lon="6.2846">
        <ele>1796.4</ele>
        <time>2024-08-10T09:33:06Z</time>
      </trkpt>
      <trkpt lat="45.05419" lon="6.2846">
        <ele>1796.4</ele>
        <time>2024-08-10T09:33:07Z</time>
      </trkpt>
      <trkpt lat="45.0542" lon="6.28463">
        <ele>1796.4</ele>
        <time>2024-08-10T09:33:08Z</time>
      </trkpt>
      <trkpt lat="45.0542" lon="6.28463">
        <ele>1796.6</ele>
        <time>2024-08-10T09:33:09Z</time>
      </trkpt>
      <trkpt lat="45.0542" lon="6.28463">
        <ele>1796.8</ele>
        <time>2024-08-10T09:33:10Z</time>
      </trkpt>
      <trkpt lat="45.0542" lon="6.28463">
        <ele>1797</ele>
        <time>2024-08-10T09:33:11Z</time>
      </trkpt>
      <trkpt lat="45.05419" lon="6.28467">
        <ele>1797</ele>
        <time>2024-08-10T09:33:12Z</time>
      </trkpt>
      <trkpt lat="45.05419" lon="6.28467">
        <ele>1797.2</ele>
        <time>2024-08-10T09:33:13Z</time>
      </trkpt>
      <trkpt lat="45.05418" lon="6.28469">
        <ele>1797.2</ele>
        <time>2024-08-10T09:33:14Z</time>
      </trkpt>
      <trkpt lat="45.05418" lon="6.28469">
        <ele>1797.2</ele>
        <time>2024-08-10T09:33:15Z</time>
      </trkpt>
      <trkpt lat="45.05417" lon="6.28472">
        <ele>1797.4</ele>
        <time>2024-08-10T09:33:16Z</time>
      </trkpt>
      <trkpt lat="45.05417" lon="6.28472">
        <ele>1797.6</ele>
        <time>2024-08-10T09:33:17Z</time>
      </trkpt>
      <trkpt lat="45.05415" lon="6.28474">
        <ele>1797.8</ele>
        <time>2024-08-10T09:33:18Z</time>
      </trkpt>
      <trkpt lat="45.05415" lon="6.28474">
        <ele>1798.4</ele>
        <time>2024-08-10T09:33:19Z</time>
      </trkpt>
      <trkpt lat="45.05413" lon="6.28476">
        <ele>1798.4</ele>
        <time>2024-08-10T09:33:20Z</time>
      </trkpt>
      <trkpt lat="45.05413" lon="6.28476">
        <ele>1798.4</ele>
        <time>2024-08-10T09:33:21Z</time>
      </trkpt>
      <trkpt lat="45.05413" lon="6.28476">
        <ele>1798.6</ele>
        <time>2024-08-10T09:33:22Z</time>
      </trkpt>
      <trkpt lat="45.05413" lon="6.28479">
        <ele>1798.6</ele>
        <time>2024-08-10T09:33:23Z</time>
      </trkpt>
      <trkpt lat="45.05413" lon="6.28479">
        <ele>1798.8</ele>
        <time>2024-08-10T09:33:24Z</time>
      </trkpt>
      <trkpt lat="45.05413" lon="6.28482">
        <ele>1799</ele>
        <time>2024-08-10T09:33:25Z</time>
      </trkpt>
      <trkpt lat="45.05413" lon="6.28482">
        <ele>1799.2</ele>
        <time>2024-08-10T09:33:26Z</time>
      </trkpt>
      <trkpt lat="45.05412" lon="6.28485">
        <ele>1799.4</ele>
        <time>2024-08-10T09:33:27Z</time>
      </trkpt>
      <trkpt lat="45.05412" lon="6.28485">
        <ele>1799.8</ele>
        <time>2024-08-10T09:33:28Z</time>
      </trkpt>
      <trkpt lat="45.05412" lon="6.28488">
        <ele>1799.8</ele>
        <time>2024-08-10T09:33:29Z</time>
      </trkpt>
      <trkpt lat="45.05412" lon="6.28488">
        <ele>1799.8</ele>
        <time>2024-08-10T09:33:30Z</time>
      </trkpt>
      <trkpt lat="45.05412" lon="6.28488">
        <ele>1800.2</ele>
        <time>2024-08-10T09:33:31Z</time>
      </trkpt>
      <trkpt lat="45.05411" lon="6.28491">
        <ele>1800.2</ele>
        <time>2024-08-10T09:33:32Z</time>
      </trkpt>
      <trkpt lat="45.05411" lon="6.28491">
        <ele>1800.2</ele>
        <time>2024-08-10T09:33:33Z</time>
      </trkpt>
      <trkpt lat="45.0541" lon="6.28494">
        <ele>1800.4</ele>
        <time>2024-08-10T09:33:34Z</time>
      </trkpt>
      <trkpt lat="45.0541" lon="6.28494">
        <ele>1800.8</ele>
        <time>2024-08-10T09:33:35Z</time>
      </trkpt>
      <trkpt lat="45.0541" lon="6.28497">
        <ele>1801</ele>
        <time>2024-08-10T09:33:36Z</time>
      </trkpt>
      <trkpt lat="45.0541" lon="6.28497">
        <ele>1801</ele>
        <time>2024-08-10T09:33:37Z</time>
      </trkpt>
      <trkpt lat="45.0541" lon="6.285">
        <ele>1801.2</ele>
        <time>2024-08-10T09:33:38Z</time>
      </trkpt>
      <trkpt lat="45.0541" lon="6.285">
        <ele>1801.2</ele>
        <time>2024-08-10T09:33:39Z</time>
      </trkpt>
      <trkpt lat="45.05411" lon="6.28502">
        <ele>1801.2</ele>
        <time>2024-08-10T09:33:40Z</time>
      </trkpt>
      <trkpt lat="45.05411" lon="6.28502">
        <ele>1801.4</ele>
        <time>2024-08-10T09:33:41Z</time>
      </trkpt>
      <trkpt lat="45.05411" lon="6.28506">
        <ele>1801.6</ele>
        <time>2024-08-10T09:33:42Z</time>
      </trkpt>
      <trkpt lat="45.05411" lon="6.28506">
        <ele>1801.6</ele>
        <time>2024-08-10T09:33:43Z</time>
      </trkpt>
      <trkpt lat="45.05411" lon="6.28509">
        <ele>1801.8</ele>
        <time>2024-08-10T09:33:44Z</time>
      </trkpt>
      <trkpt lat="45.05411" lon="6.28509">
        <ele>1802</ele>
        <time>2024-08-10T09:33:45Z</time>
      </trkpt>
      <trkpt lat="45.05412" lon="6.28512">
        <ele>1802</ele>
        <time>2024-08-10T09:33:46Z</time>
      </trkpt>
      <trkpt lat="45.05412" lon="6.28512">
        <ele>1802</ele>
        <time>2024-08-10T09:33:47Z</time>
      </trkpt>
      <trkpt lat="45.05412" lon="6.28516">
        <ele>1802</ele>
        <time>2024-08-10T09:33:48Z</time>
      </trkpt>
      <trkpt lat="45.05412" lon="6.28516">
        <ele>1802.2</ele>
        <time>2024-08-10T09:33:49Z</time>
      </trkpt>
      <trkpt lat="45.05413" lon="6.2852">
        <ele>1802.2</ele>
        <time>2024-08-10T09:33:50Z</time>
      </trkpt>
      <trkpt lat="45.05413" lon="6.2852">
        <ele>1802.2</ele>
        <time>2024-08-10T09:33:51Z</time>
      </trkpt>
      <trkpt lat="45.05413" lon="6.28524">
        <ele>1802.2</ele>
        <time>2024-08-10T09:33:52Z</time>
      </trkpt>
      <trkpt lat="45.05413" lon="6.28524">
        <ele>1802.6</ele>
        <time>2024-08-10T09:33:53Z</time>
      </trkpt>
      <trkpt lat="45.05412" lon="6.28526">
        <ele>1802.6</ele>
        <time>2024-08-10T09:33:54Z</time>
      </trkpt>
      <trkpt lat="45.05412" lon="6.28526">
        <ele>1802.6</ele>
        <time>2024-08-10T09:33:55Z</time>
      </trkpt>
      <trkpt lat="45.05411" lon="6.2853">
        <ele>1803</ele>
        <time>2024-08-10T09:33:56Z</time>
      </trkpt>
      <trkpt lat="45.05411" lon="6.2853">
        <ele>1803.2</ele>
        <time>2024-08-10T09:33:57Z</time>
      </trkpt>
      <trkpt lat="45.05411" lon="6.28533">
        <ele>1803.2</ele>
        <time>2024-08-10T09:33:58Z</time>
      </trkpt>
      <trkpt lat="45.05411" lon="6.28533">
        <ele>1803.2</ele>
        <time>2024-08-10T09:33:59Z</time>
      </trkpt>
      <trkpt lat="45.0541" lon="6.28537">
        <ele>1803.2</ele>
        <time>2024-08-10T09:34:00Z</time>
      </trkpt>
      <trkpt lat="45.0541" lon="6.28537">
        <ele>1803.2</ele>
        <time>2024-08-10T09:34:01Z</time>
      </trkpt>
      <trkpt lat="45.05408" lon="6.28541">
        <ele>1803.2</ele>
        <time>2024-08-10T09:34:02Z</time>
      </trkpt>
      <trkpt lat="45.05408" lon="6.28541">
        <ele>1803.8</ele>
        <time>2024-08-10T09:34:03Z</time>
      </trkpt>
      <trkpt lat="45.05407" lon="6.28545">
        <ele>1803.8</ele>
        <time>2024-08-10T09:34:04Z</time>
      </trkpt>
      <trkpt lat="45.05407" lon="6.28545">
        <ele>1803.8</ele>
        <time>2024-08-10T09:34:05Z</time>
      </trkpt>
      <trkpt lat="45.05407" lon="6.2855">
        <ele>1803.8</ele>
        <time>2024-08-10T09:34:06Z</time>
      </trkpt>
      <trkpt lat="45.05407" lon="6.2855">
        <ele>1804.4</ele>
        <time>2024-08-10T09:34:07Z</time>
      </trkpt>
      <trkpt lat="45.05406" lon="6.28552">
        <ele>1805</ele>
        <time>2024-08-10T09:34:08Z</time>
      </trkpt>
      <trkpt lat="45.05406" lon="6.28552">
        <ele>1805</ele>
        <time>2024-08-10T09:34:09Z</time>
      </trkpt>
      <trkpt lat="45.05405" lon="6.28555">
        <ele>1805</ele>
        <time>2024-08-10T09:34:10Z</time>
      </trkpt>
      <trkpt lat="45.05405" lon="6.28555">
        <ele>1805</ele>
        <time>2024-08-10T09:34:11Z</time>
      </trkpt>
      <trkpt lat="45.05405" lon="6.28555">
        <ele>1805</ele>
        <time>2024-08-10T09:34:12Z</time>
      </trkpt>
      <trkpt lat="45.05404" lon="6.28558">
        <ele>1804.8</ele>
        <time>2024-08-10T09:34:13Z</time>
      </trkpt>
      <trkpt lat="45.05404" lon="6.28558">
        <ele>1804.8</ele>
        <time>2024-08-10T09:34:14Z</time>
      </trkpt>
      <trkpt lat="45.05402" lon="6.28561">
        <ele>1804.8</ele>
        <time>2024-08-10T09:34:15Z</time>
      </trkpt>
      <trkpt lat="45.05402" lon="6.28561">
        <ele>1805</ele>
        <time>2024-08-10T09:34:16Z</time>
      </trkpt>
      <trkpt lat="45.05401" lon="6.28565">
        <ele>1805</ele>
        <time>2024-08-10T09:34:17Z</time>
      </trkpt>
      <trkpt lat="45.05401" lon="6.28565">
        <ele>1805</ele>
        <time>2024-08-10T09:34:18Z</time>
      </trkpt>
      <trkpt lat="45.054" lon="6.28569">
        <ele>1805</ele>
        <time>2024-08-10T09:34:19Z</time>
      </trkpt>
      <trkpt lat="45.054" lon="6.28569">
        <ele>1805</ele>
        <time>2024-08-10T09:34:20Z</time>
      </trkpt>
      <trkpt lat="45.054" lon="6.28573">
        <ele>1805</ele>
        <time>2024-08-10T09:34:21Z</time>
      </trkpt>
      <trkpt lat="45.054" lon="6.28573">
        <ele>1805</ele>
        <time>2024-08-10T09:34:22Z</time>
      </trkpt>
      <trkpt lat="45.054" lon="6.28576">
        <ele>1805</ele>
        <time>2024-08-10T09:34:23Z</time>
      </trkpt>
      <trkpt lat="45.054" lon="6.28576">
        <ele>1805</ele>
        <time>2024-08-10T09:34:24Z</time>
      </trkpt>
      <trkpt lat="45.05402" lon="6.2858">
        <ele>1804.6</ele>
        <time>2024-08-10T09:34:25Z</time>
      </trkpt>
      <trkpt lat="45.05402" lon="6.2858">
        <ele>1804.4</ele>
        <time>2024-08-10T09:34:26Z</time>
      </trkpt>
      <trkpt lat="45.05402" lon="6.28583">
        <ele>1804.4</ele>
        <time>2024-08-10T09:34:27Z</time>
      </trkpt>
      <trkpt lat="45.05402" lon="6.28583">
        <ele>1804</ele>
        <time>2024-08-10T09:34:28Z</time>
      </trkpt>
      <trkpt lat="45.05402" lon="6.28587">
        <ele>1804</ele>
        <time>2024-08-10T09:34:29Z</time>
      </trkpt>
      <trkpt lat="45.05402" lon="6.28587">
        <ele>1804.2</ele>
        <time>2024-08-10T09:34:30Z</time>
      </trkpt>
      <trkpt lat="45.05402" lon="6.28591">
        <ele>1804.4</ele>
        <time>2024-08-10T09:34:31Z</time>
      </trkpt>
      <trkpt lat="45.05402" lon="6.28591">
        <ele>1804.4</ele>
        <time>2024-08-10T09:34:32Z</time>
      </trkpt>
      <trkpt lat="45.05401" lon="6.28595">
        <ele>1804.2</ele>
        <time>2024-08-10T09:34:33Z</time>
      </trkpt>
      <trkpt lat="45.05401" lon="6.28595">
        <ele>1804.2</ele>
        <time>2024-08-10T09:34:34Z</time>
      </trkpt>
      <trkpt lat="45.054" lon="6.28599">
        <ele>1804.4</ele>
        <time>2024-08-10T09:34:35Z</time>
      </trkpt>
      <trkpt lat="45.054" lon="6.28599">
        <ele>1804.6</ele>
        <time>2024-08-10T09:34:36Z</time>
      </trkpt>
      <trkpt lat="45.054" lon="6.28602">
        <ele>1804.6</ele>
        <time>2024-08-10T09:34:37Z</time>
      </trkpt>
      <trkpt lat="45.054" lon="6.28602">
        <ele>1804.6</ele>
        <time>2024-08-10T09:34:38Z</time>
      </trkpt>
      <trkpt lat="45.05399" lon="6.28606">
        <ele>1804.6</ele>
        <time>2024-08-10T09:34:39Z</time>
      </trkpt>
      <trkpt lat="45.05399" lon="6.28606">
        <ele>1804.8</ele>
        <time>2024-08-10T09:34:40Z</time>
      </trkpt>
      <trkpt lat="45.05399" lon="6.28609">
        <ele>1804.8</ele>
        <time>2024-08-10T09:34:41Z</time>
      </trkpt>
      <trkpt lat="45.05399" lon="6.28609">
        <ele>1805</ele>
        <time>2024-08-10T09:34:42Z</time>
      </trkpt>
      <trkpt lat="45.05398" lon="6.28612">
        <ele>1805</ele>
        <time>2024-08-10T09:34:43Z</time>
      </trkpt>
      <trkpt lat="45.05398" lon="6.28612">
        <ele>1804.8</ele>
        <time>2024-08-10T09:34:44Z</time>
      </trkpt>
      <trkpt lat="45.05397" lon="6.28616">
        <ele>1804.8</ele>
        <time>2024-08-10T09:34:45Z</time>
      </trkpt>
      <trkpt lat="45.05397" lon="6.28616">
        <ele>1805</ele>
        <time>2024-08-10T09:34:46Z</time>
      </trkpt>
      <trkpt lat="45.05396" lon="6.28619">
        <ele>1805.2</ele>
        <time>2024-08-10T09:34:47Z</time>
      </trkpt>
      <trkpt lat="45.05396" lon="6.28619">
        <ele>1805.4</ele>
        <time>2024-08-10T09:34:48Z</time>
      </trkpt>
      <trkpt lat="45.05396" lon="6.28623">
        <ele>1805.4</ele>
        <time>2024-08-10T09:34:49Z</time>
      </trkpt>
      <trkpt lat="45.05396" lon="6.28623">
        <ele>1805.4</ele>
        <time>2024-08-10T09:34:50Z</time>
      </trkpt>
      <trkpt lat="45.05396" lon="6.28626">
        <ele>1805.4</ele>
        <time>2024-08-10T09:34:51Z</time>
      </trkpt>
      <trkpt lat="45.05396" lon="6.28626">
        <ele>1805.4</ele>
        <time>2024-08-10T09:34:52Z</time>
      </trkpt>
      <trkpt lat="45.05395" lon="6.28629">
        <ele>1805.6</ele>
        <time>2024-08-10T09:34:53Z</time>
      </trkpt>
      <trkpt lat="45.05395" lon="6.28629">
        <ele>1805.8</ele>
        <time>2024-08-10T09:34:54Z</time>
      </trkpt>
      <trkpt lat="45.05394" lon="6.28632">
        <ele>1805.8</ele>
        <time>2024-08-10T09:34:55Z</time>
      </trkpt>
      <trkpt lat="45.05394" lon="6.28632">
        <ele>1806</ele>
        <time>2024-08-10T09:34:56Z</time>
      </trkpt>
      <trkpt lat="45.05393" lon="6.28635">
        <ele>1806</ele>
        <time>2024-08-10T09:34:57Z</time>
      </trkpt>
      <trkpt lat="45.05393" lon="6.28635">
        <ele>1806</ele>
        <time>2024-08-10T09:34:58Z</time>
      </trkpt>
      <trkpt lat="45.05392" lon="6.28638">
        <ele>1806.2</ele>
        <time>2024-08-10T09:34:59Z</time>
      </trkpt>
      <trkpt lat="45.05392" lon="6.28638">
        <ele>1806.4</ele>
        <time>2024-08-10T09:35:00Z</time>
      </trkpt>
      <trkpt lat="45.05391" lon="6.28641">
        <ele>1806.4</ele>
        <time>2024-08-10T09:35:01Z</time>
      </trkpt>
      <trkpt lat="45.05391" lon="6.28641">
        <ele>1806.6</ele>
        <time>2024-08-10T09:35:02Z</time>
      </trkpt>
      <trkpt lat="45.05389" lon="6.28644">
        <ele>1806.8</ele>
        <time>2024-08-10T09:35:03Z</time>
      </trkpt>
      <trkpt lat="45.05389" lon="6.28644">
        <ele>1806.8</ele>
        <time>2024-08-10T09:35:04Z</time>
      </trkpt>
      <trkpt lat="45.05388" lon="6.28647">
        <ele>1806.8</ele>
        <time>2024-08-10T09:35:05Z</time>
      </trkpt>
      <trkpt lat="45.05388" lon="6.28647">
        <ele>1807</ele>
        <time>2024-08-10T09:35:06Z</time>
      </trkpt>
      <trkpt lat="45.05386" lon="6.2865">
        <ele>1807</ele>
        <time>2024-08-10T09:35:07Z</time>
      </trkpt>
      <trkpt lat="45.05386" lon="6.2865">
        <ele>1807</ele>
        <time>2024-08-10T09:35:08Z</time>
      </trkpt>
      <trkpt lat="45.05385" lon="6.28653">
        <ele>1807</ele>
        <time>2024-08-10T09:35:09Z</time>
      </trkpt>
      <trkpt lat="45.05385" lon="6.28653">
        <ele>1807</ele>
        <time>2024-08-10T09:35:10Z</time>
      </trkpt>
      <trkpt lat="45.05383" lon="6.28656">
        <ele>1807</ele>
        <time>2024-08-10T09:35:11Z</time>
      </trkpt>
      <trkpt lat="45.05383" lon="6.28656">
        <ele>1807.2</ele>
        <time>2024-08-10T09:35:12Z</time>
      </trkpt>
      <trkpt lat="45.05381" lon="6.28659">
        <ele>1807</ele>
        <time>2024-08-10T09:35:13Z</time>
      </trkpt>
      <trkpt lat="45.05381" lon="6.28659">
        <ele>1807</ele>
        <time>2024-08-10T09:35:14Z</time>
      </trkpt>
      <trkpt lat="45.0538" lon="6.28662">
        <ele>1807</ele>
        <time>2024-08-10T09:35:15Z</time>
      </trkpt>
      <trkpt lat="45.0538" lon="6.28662">
        <ele>1807</ele>
        <time>2024-08-10T09:35:16Z</time>
      </trkpt>
      <trkpt lat="45.05377" lon="6.28664">
        <ele>1807</ele>
        <time>2024-08-10T09:35:17Z</time>
      </trkpt>
      <trkpt lat="45.05377" lon="6.28664">
        <ele>1807</ele>
        <time>2024-08-10T09:35:18Z</time>
      </trkpt>
      <trkpt lat="45.05376" lon="6.28667">
        <ele>1807</ele>
        <time>2024-08-10T09:35:19Z</time>
      </trkpt>
      <trkpt lat="45.05376" lon="6.28667">
        <ele>1807</ele>
        <time>2024-08-10T09:35:20Z</time>
      </trkpt>
      <trkpt lat="45.05374" lon="6.2867">
        <ele>1807.2</ele>
        <time>2024-08-10T09:35:21Z</time>
      </trkpt>
      <trkpt lat="45.05374" lon="6.2867">
        <ele>1807.2</ele>
        <time>2024-08-10T09:35:22Z</time>
      </trkpt>
      <trkpt lat="45.05371" lon="6.28672">
        <ele>1807.2</ele>
        <time>2024-08-10T09:35:23Z</time>
      </trkpt>
      <trkpt lat="45.05371" lon="6.28672">
        <ele>1807.2</ele>
        <time>2024-08-10T09:35:24Z</time>
      </trkpt>
      <trkpt lat="45.0537" lon="6.28674">
        <ele>1807.6</ele>
        <time>2024-08-10T09:35:25Z</time>
      </trkpt>
      <trkpt lat="45.0537" lon="6.28674">
        <ele>1807.6</ele>
        <time>2024-08-10T09:35:26Z</time>
      </trkpt>
      <trkpt lat="45.05368" lon="6.28677">
        <ele>1807.6</ele>
        <time>2024-08-10T09:35:27Z</time>
      </trkpt>
      <trkpt lat="45.05368" lon="6.28677">
        <ele>1807.6</ele>
        <time>2024-08-10T09:35:28Z</time>
      </trkpt>
      <trkpt lat="45.05365" lon="6.28679">
        <ele>1807.6</ele>
        <time>2024-08-10T09:35:29Z</time>
      </trkpt>
      <trkpt lat="45.05365" lon="6.28679">
        <ele>1807.4</ele>
        <time>2024-08-10T09:35:30Z</time>
      </trkpt>
      <trkpt lat="45.05363" lon="6.2868">
        <ele>1807.4</ele>
        <time>2024-08-10T09:35:31Z</time>
      </trkpt>
      <trkpt lat="45.05363" lon="6.2868">
        <ele>1807.4</ele>
        <time>2024-08-10T09:35:32Z</time>
      </trkpt>
      <trkpt lat="45.0536" lon="6.28682">
        <ele>1807.2</ele>
        <time>2024-08-10T09:35:33Z</time>
      </trkpt>
      <trkpt lat="45.0536" lon="6.28682">
        <ele>1807.2</ele>
        <time>2024-08-10T09:35:34Z</time>
      </trkpt>
      <trkpt lat="45.05358" lon="6.28684">
        <ele>1807.2</ele>
        <time>2024-08-10T09:35:35Z</time>
      </trkpt>
      <trkpt lat="45.05358" lon="6.28684">
        <ele>1807.4</ele>
        <time>2024-08-10T09:35:36Z</time>
      </trkpt>
      <trkpt lat="45.05356" lon="6.28687">
        <ele>1807.4</ele>
        <time>2024-08-10T09:35:37Z</time>
      </trkpt>
      <trkpt lat="45.05356" lon="6.28687">
        <ele>1807.4</ele>
        <time>2024-08-10T09:35:38Z</time>
      </trkpt>
      <trkpt lat="45.05354" lon="6.2869">
        <ele>1807.4</ele>
        <time>2024-08-10T09:35:39Z</time>
      </trkpt>
      <trkpt lat="45.05354" lon="6.2869">
        <ele>1807.4</ele>
        <time>2024-08-10T09:35:40Z</time>
      </trkpt>
      <trkpt lat="45.05352" lon="6.28692">
        <ele>1807.4</ele>
        <time>2024-08-10T09:35:41Z</time>
      </trkpt>
      <trkpt lat="45.05352" lon="6.28692">
        <ele>1807.4</ele>
        <time>2024-08-10T09:35:42Z</time>
      </trkpt>
      <trkpt lat="45.05349" lon="6.28695">
        <ele>1807.4</ele>
        <time>2024-08-10T09:35:43Z</time>
      </trkpt>
      <trkpt lat="45.05349" lon="6.28695">
        <ele>1807.4</ele>
        <time>2024-08-10T09:35:44Z</time>
      </trkpt>
      <trkpt lat="45.05347" lon="6.28697">
        <ele>1807.4</ele>
        <time>2024-08-10T09:35:45Z</time>
      </trkpt>
      <trkpt lat="45.05347" lon="6.28697">
        <ele>1807.6</ele>
        <time>2024-08-10T09:35:46Z</time>
      </trkpt>
      <trkpt lat="45.05345" lon="6.28699">
        <ele>1807.6</ele>
        <time>2024-08-10T09:35:47Z</time>
      </trkpt>
      <trkpt lat="45.05345" lon="6.28699">
        <ele>1807.6</ele>
        <time>2024-08-10T09:35:48Z</time>
      </trkpt>
      <trkpt lat="45.05342" lon="6.28701">
        <ele>1807.6</ele>
        <time>2024-08-10T09:35:49Z</time>
      </trkpt>
      <trkpt lat="45.05342" lon="6.28701">
        <ele>1807.6</ele>
        <time>2024-08-10T09:35:50Z</time>
      </trkpt>
      <trkpt lat="45.0534" lon="6.28704">
        <ele>1807.6</ele>
        <time>2024-08-10T09:35:51Z</time>
      </trkpt>
      <trkpt lat="45.0534" lon="6.28704">
        <ele>1807.8</ele>
        <time>2024-08-10T09:35:52Z</time>
      </trkpt>
      <trkpt lat="45.05338" lon="6.28706">
        <ele>1807.8</ele>
        <time>2024-08-10T09:35:53Z</time>
      </trkpt>
      <trkpt lat="45.05338" lon="6.28706">
        <ele>1807.8</ele>
        <time>2024-08-10T09:35:54Z</time>
      </trkpt>
      <trkpt lat="45.05335" lon="6.28708">
        <ele>1807.6</ele>
        <time>2024-08-10T09:35:55Z</time>
      </trkpt>
      <trkpt lat="45.05335" lon="6.28708">
        <ele>1807.6</ele>
        <time>2024-08-10T09:35:56Z</time>
      </trkpt>
      <trkpt lat="45.05333" lon="6.28709">
        <ele>1807.6</ele>
        <time>2024-08-10T09:35:57Z</time>
      </trkpt>
      <trkpt lat="45.05333" lon="6.28709">
        <ele>1807.8</ele>
        <time>2024-08-10T09:35:58Z</time>
      </trkpt>
      <trkpt lat="45.0533" lon="6.28711">
        <ele>1807.8</ele>
        <time>2024-08-10T09:35:59Z</time>
      </trkpt>
      <trkpt lat="45.0533" lon="6.28711">
        <ele>1807.8</ele>
        <time>2024-08-10T09:36:00Z</time>
      </trkpt>
      <trkpt lat="45.05328" lon="6.28713">
        <ele>1807.8</ele>
        <time>2024-08-10T09:36:01Z</time>
      </trkpt>
      <trkpt lat="45.05328" lon="6.28713">
        <ele>1807.8</ele>
        <time>2024-08-10T09:36:02Z</time>
      </trkpt>
      <trkpt lat="45.05326" lon="6.28715">
        <ele>1807.4</ele>
        <time>2024-08-10T09:36:03Z</time>
      </trkpt>
      <trkpt lat="45.05326" lon="6.28715">
        <ele>1807.4</ele>
        <time>2024-08-10T09:36:04Z</time>
      </trkpt>
      <trkpt lat="45.05323" lon="6.28717">
        <ele>1807.6</ele>
        <time>2024-08-10T09:36:05Z</time>
      </trkpt>
      <trkpt lat="45.05323" lon="6.28717">
        <ele>1807.8</ele>
        <time>2024-08-10T09:36:06Z</time>
      </trkpt>
      <trkpt lat="45.05321" lon="6.28719">
        <ele>1808</ele>
        <time>2024-08-10T09:36:07Z</time>
      </trkpt>
      <trkpt lat="45.05321" lon="6.28719">
        <ele>1808</ele>
        <time>2024-08-10T09:36:08Z</time>
      </trkpt>
      <trkpt lat="45.05319" lon="6.28721">
        <ele>1808</ele>
        <time>2024-08-10T09:36:09Z</time>
      </trkpt>
      <trkpt lat="45.05319" lon="6.28721">
        <ele>1808.2</ele>
        <time>2024-08-10T09:36:10Z</time>
      </trkpt>
      <trkpt lat="45.05317" lon="6.28723">
        <ele>1808.2</ele>
        <time>2024-08-10T09:36:11Z</time>
      </trkpt>
      <trkpt lat="45.05317" lon="6.28723">
        <ele>1808.2</ele>
        <time>2024-08-10T09:36:12Z</time>
      </trkpt>
      <trkpt lat="45.05315" lon="6.28726">
        <ele>1808.2</ele>
        <time>2024-08-10T09:36:13Z</time>
      </trkpt>
      <trkpt lat="45.05315" lon="6.28726">
        <ele>1808.2</ele>
        <time>2024-08-10T09:36:14Z</time>
      </trkpt>
      <trkpt lat="45.05313" lon="6.28729">
        <ele>1808.2</ele>
        <time>2024-08-10T09:36:15Z</time>
      </trkpt>
      <trkpt lat="45.05313" lon="6.28729">
        <ele>1808.2</ele>
        <time>2024-08-10T09:36:16Z</time>
      </trkpt>
      <trkpt lat="45.05311" lon="6.28732">
        <ele>1808.4</ele>
        <time>2024-08-10T09:36:17Z</time>
      </trkpt>
      <trkpt lat="45.05311" lon="6.28732">
        <ele>1808.4</ele>
        <time>2024-08-10T09:36:18Z</time>
      </trkpt>
      <trkpt lat="45.05309" lon="6.28735">
        <ele>1808.4</ele>
        <time>2024-08-10T09:36:19Z</time>
      </trkpt>
      <trkpt lat="45.05309" lon="6.28735">
        <ele>1808.4</ele>
        <time>2024-08-10T09:36:20Z</time>
      </trkpt>
      <trkpt lat="45.05307" lon="6.28738">
        <ele>1808.4</ele>
        <time>2024-08-10T09:36:21Z</time>
      </trkpt>
      <trkpt lat="45.05307" lon="6.28738">
        <ele>1808.6</ele>
        <time>2024-08-10T09:36:22Z</time>
      </trkpt>
      <trkpt lat="45.05305" lon="6.28741">
        <ele>1808.8</ele>
        <time>2024-08-10T09:36:23Z</time>
      </trkpt>
      <trkpt lat="45.05305" lon="6.28741">
        <ele>1808.6</ele>
        <time>2024-08-10T09:36:24Z</time>
      </trkpt>
      <trkpt lat="45.05303" lon="6.28743">
        <ele>1808.4</ele>
        <time>2024-08-10T09:36:25Z</time>
      </trkpt>
      <trkpt lat="45.05303" lon="6.28743">
        <ele>1808.4</ele>
        <time>2024-08-10T09:36:26Z</time>
      </trkpt>
      <trkpt lat="45.05301" lon="6.28745">
        <ele>1808.4</ele>
        <time>2024-08-10T09:36:27Z</time>
      </trkpt>
      <trkpt lat="45.05301" lon="6.28745">
        <ele>1808.8</ele>
        <time>2024-08-10T09:36:28Z</time>
      </trkpt>
      <trkpt lat="45.05299" lon="6.28748">
        <ele>1808.8</ele>
        <time>2024-08-10T09:36:29Z</time>
      </trkpt>
      <trkpt lat="45.05299" lon="6.28748">
        <ele>1808.8</ele>
        <time>2024-08-10T09:36:30Z</time>
      </trkpt>
      <trkpt lat="45.05296" lon="6.2875">
        <ele>1808.6</ele>
        <time>2024-08-10T09:36:31Z</time>
      </trkpt>
      <trkpt lat="45.05296" lon="6.2875">
        <ele>1808.6</ele>
        <time>2024-08-10T09:36:32Z</time>
      </trkpt>
      <trkpt lat="45.05295" lon="6.28753">
        <ele>1808.6</ele>
        <time>2024-08-10T09:36:33Z</time>
      </trkpt>
      <trkpt lat="45.05295" lon="6.28753">
        <ele>1808.8</ele>
        <time>2024-08-10T09:36:34Z</time>
      </trkpt>
      <trkpt lat="45.05293" lon="6.28756">
        <ele>1809</ele>
        <time>2024-08-10T09:36:35Z</time>
      </trkpt>
      <trkpt lat="45.05293" lon="6.28756">
        <ele>1809.2</ele>
        <time>2024-08-10T09:36:36Z</time>
      </trkpt>
      <trkpt lat="45.05291" lon="6.28759">
        <ele>1809.2</ele>
        <time>2024-08-10T09:36:37Z</time>
      </trkpt>
      <trkpt lat="45.05291" lon="6.28759">
        <ele>1809.4</ele>
        <time>2024-08-10T09:36:38Z</time>
      </trkpt>
      <trkpt lat="45.05289" lon="6.28761">
        <ele>1809.4</ele>
        <time>2024-08-10T09:36:39Z</time>
      </trkpt>
      <trkpt lat="45.05289" lon="6.28761">
        <ele>1809.4</ele>
        <time>2024-08-10T09:36:40Z</time>
      </trkpt>
      <trkpt lat="45.05287" lon="6.28764">
        <ele>1809.2</ele>
        <time>2024-08-10T09:36:41Z</time>
      </trkpt>
      <trkpt lat="45.05287" lon="6.28764">
        <ele>1809.2</ele>
        <time>2024-08-10T09:36:42Z</time>
      </trkpt>
      <trkpt lat="45.05285" lon="6.28766">
        <ele>1809.4</ele>
        <time>2024-08-10T09:36:43Z</time>
      </trkpt>
      <trkpt lat="45.05285" lon="6.28766">
        <ele>1809.6</ele>
        <time>2024-08-10T09:36:44Z</time>
      </trkpt>
      <trkpt lat="45.05283" lon="6.2877">
        <ele>1809.8</ele>
        <time>2024-08-10T09:36:45Z</time>
      </trkpt>
      <trkpt lat="45.05283" lon="6.2877">
        <ele>1809.8</ele>
        <time>2024-08-10T09:36:46Z</time>
      </trkpt>
      <trkpt lat="45.05281" lon="6.28773">
        <ele>1809.6</ele>
        <time>2024-08-10T09:36:47Z</time>
      </trkpt>
      <trkpt lat="45.05281" lon="6.28773">
        <ele>1809.4</ele>
        <time>2024-08-10T09:36:48Z</time>
      </trkpt>
      <trkpt lat="45.05279" lon="6.28776">
        <ele>1809.4</ele>
        <time>2024-08-10T09:36:49Z</time>
      </trkpt>
      <trkpt lat="45.05279" lon="6.28776">
        <ele>1809.6</ele>
        <time>2024-08-10T09:36:50Z</time>
      </trkpt>
      <trkpt lat="45.05278" lon="6.28778">
        <ele>1809.8</ele>
        <time>2024-08-10T09:36:51Z</time>
      </trkpt>
      <trkpt lat="45.05278" lon="6.28778">
        <ele>1809.8</ele>
        <time>2024-08-10T09:36:52Z</time>
      </trkpt>
      <trkpt lat="45.05276" lon="6.28781">
        <ele>1809.8</ele>
        <time>2024-08-10T09:36:53Z</time>
      </trkpt>
      <trkpt lat="45.05276" lon="6.28781">
        <ele>1809.8</ele>
        <time>2024-08-10T09:36:54Z</time>
      </trkpt>
      <trkpt lat="45.05274" lon="6.28784">
        <ele>1810</ele>
        <time>2024-08-10T09:36:55Z</time>
      </trkpt>
      <trkpt lat="45.05274" lon="6.28784">
        <ele>1810</ele>
        <time>2024-08-10T09:36:56Z</time>
      </trkpt>
      <trkpt lat="45.05273" lon="6.28787">
        <ele>1810</ele>
        <time>2024-08-10T09:36:57Z</time>
      </trkpt>
      <trkpt lat="45.05273" lon="6.28787">
        <ele>1810</ele>
        <time>2024-08-10T09:36:58Z</time>
      </trkpt>
      <trkpt lat="45.05272" lon="6.2879">
        <ele>1810.2</ele>
        <time>2024-08-10T09:36:59Z</time>
      </trkpt>
      <trkpt lat="45.05272" lon="6.2879">
        <ele>1810.2</ele>
        <time>2024-08-10T09:37:00Z</time>
      </trkpt>
      <trkpt lat="45.0527" lon="6.28793">
        <ele>1810.2</ele>
        <time>2024-08-10T09:37:01Z</time>
      </trkpt>
      <trkpt lat="45.0527" lon="6.28793">
        <ele>1810</ele>
        <time>2024-08-10T09:37:02Z</time>
      </trkpt>
      <trkpt lat="45.05269" lon="6.28796">
        <ele>1810.2</ele>
        <time>2024-08-10T09:37:03Z</time>
      </trkpt>
      <trkpt lat="45.05269" lon="6.28796">
        <ele>1810.2</ele>
        <time>2024-08-10T09:37:04Z</time>
      </trkpt>
      <trkpt lat="45.05268" lon="6.288">
        <ele>1810.2</ele>
        <time>2024-08-10T09:37:05Z</time>
      </trkpt>
      <trkpt lat="45.05268" lon="6.288">
        <ele>1810.2</ele>
        <time>2024-08-10T09:37:06Z</time>
      </trkpt>
      <trkpt lat="45.05267" lon="6.28803">
        <ele>1810.4</ele>
        <time>2024-08-10T09:37:07Z</time>
      </trkpt>
      <trkpt lat="45.05267" lon="6.28803">
        <ele>1810.6</ele>
        <time>2024-08-10T09:37:08Z</time>
      </trkpt>
      <trkpt lat="45.05266" lon="6.28806">
        <ele>1810.6</ele>
        <time>2024-08-10T09:37:09Z</time>
      </trkpt>
      <trkpt lat="45.05266" lon="6.28806">
        <ele>1810.4</ele>
        <time>2024-08-10T09:37:10Z</time>
      </trkpt>
      <trkpt lat="45.05265" lon="6.2881">
        <ele>1810.4</ele>
        <time>2024-08-10T09:37:11Z</time>
      </trkpt>
      <trkpt lat="45.05265" lon="6.2881">
        <ele>1810.4</ele>
        <time>2024-08-10T09:37:12Z</time>
      </trkpt>
      <trkpt lat="45.05263" lon="6.28813">
        <ele>1810.6</ele>
        <time>2024-08-10T09:37:13Z</time>
      </trkpt>
      <trkpt lat="45.05263" lon="6.28813">
        <ele>1810.6</ele>
        <time>2024-08-10T09:37:14Z</time>
      </trkpt>
      <trkpt lat="45.05261" lon="6.28816">
        <ele>1810.8</ele>
        <time>2024-08-10T09:37:15Z</time>
      </trkpt>
      <trkpt lat="45.05261" lon="6.28816">
        <ele>1810.8</ele>
        <time>2024-08-10T09:37:16Z</time>
      </trkpt>
      <trkpt lat="45.05259" lon="6.28819">
        <ele>1811</ele>
        <time>2024-08-10T09:37:17Z</time>
      </trkpt>
      <trkpt lat="45.05259" lon="6.28819">
        <ele>1811</ele>
        <time>2024-08-10T09:37:18Z</time>
      </trkpt>
      <trkpt lat="45.05258" lon="6.28821">
        <ele>1811</ele>
        <time>2024-08-10T09:37:19Z</time>
      </trkpt>
      <trkpt lat="45.05258" lon="6.28821">
        <ele>1811.2</ele>
        <time>2024-08-10T09:37:20Z</time>
      </trkpt>
      <trkpt lat="45.05256" lon="6.28824">
        <ele>1811.2</ele>
        <time>2024-08-10T09:37:21Z</time>
      </trkpt>
      <trkpt lat="45.05256" lon="6.28824">
        <ele>1811.4</ele>
        <time>2024-08-10T09:37:22Z</time>
      </trkpt>
      <trkpt lat="45.05254" lon="6.28827">
        <ele>1811.4</ele>
        <time>2024-08-10T09:37:23Z</time>
      </trkpt>
      <trkpt lat="45.05254" lon="6.28827">
        <ele>1811.4</ele>
        <time>2024-08-10T09:37:24Z</time>
      </trkpt>
      <trkpt lat="45.05253" lon="6.28831">
        <ele>1811.4</ele>
        <time>2024-08-10T09:37:25Z</time>
      </trkpt>
      <trkpt lat="45.05253" lon="6.28831">
        <ele>1811.4</ele>
        <time>2024-08-10T09:37:26Z</time>
      </trkpt>
      <trkpt lat="45.05252" lon="6.28834">
        <ele>1811.6</ele>
        <time>2024-08-10T09:37:27Z</time>
      </trkpt>
      <trkpt lat="45.05252" lon="6.28834">
        <ele>1811.6</ele>
        <time>2024-08-10T09:37:28Z</time>
      </trkpt>
      <trkpt lat="45.0525" lon="6.28836">
        <ele>1811.8</ele>
        <time>2024-08-10T09:37:29Z</time>
      </trkpt>
      <trkpt lat="45.0525" lon="6.28836">
        <ele>1811.8</ele>
        <time>2024-08-10T09:37:30Z</time>
      </trkpt>
      <trkpt lat="45.05248" lon="6.28839">
        <ele>1811.8</ele>
        <time>2024-08-10T09:37:31Z</time>
      </trkpt>
      <trkpt lat="45.05248" lon="6.28839">
        <ele>1811.8</ele>
        <time>2024-08-10T09:37:32Z</time>
      </trkpt>
      <trkpt lat="45.05246" lon="6.28842">
        <ele>1812</ele>
        <time>2024-08-10T09:37:33Z</time>
      </trkpt>
      <trkpt lat="45.05245" lon="6.28843">
        <ele>1812</ele>
        <time>2024-08-10T09:37:34Z</time>
      </trkpt>
      <trkpt lat="45.05245" lon="6.28843">
        <ele>1812</ele>
        <time>2024-08-10T09:37:35Z</time>
      </trkpt>
      <trkpt lat="45.05243" lon="6.28845">
        <ele>1812.2</ele>
        <time>2024-08-10T09:37:36Z</time>
      </trkpt>
      <trkpt lat="45.05243" lon="6.28845">
        <ele>1812.2</ele>
        <time>2024-08-10T09:37:37Z</time>
      </trkpt>
      <trkpt lat="45.0524" lon="6.28847">
        <ele>1812.2</ele>
        <time>2024-08-10T09:37:38Z</time>
      </trkpt>
      <trkpt lat="45.0524" lon="6.28847">
        <ele>1812.2</ele>
        <time>2024-08-10T09:37:39Z</time>
      </trkpt>
      <trkpt lat="45.05238" lon="6.28849">
        <ele>1812.2</ele>
        <time>2024-08-10T09:37:40Z</time>
      </trkpt>
      <trkpt lat="45.05238" lon="6.28849">
        <ele>1812.2</ele>
        <time>2024-08-10T09:37:41Z</time>
      </trkpt>
      <trkpt lat="45.05235" lon="6.2885">
        <ele>1812.2</ele>
        <time>2024-08-10T09:37:42Z</time>
      </trkpt>
      <trkpt lat="45.05235" lon="6.2885">
        <ele>1812.4</ele>
        <time>2024-08-10T09:37:43Z</time>
      </trkpt>
      <trkpt lat="45.05233" lon="6.28852">
        <ele>1812.4</ele>
        <time>2024-08-10T09:37:44Z</time>
      </trkpt>
      <trkpt lat="45.05233" lon="6.28852">
        <ele>1812.6</ele>
        <time>2024-08-10T09:37:45Z</time>
      </trkpt>
      <trkpt lat="45.05231" lon="6.28854">
        <ele>1812.6</ele>
        <time>2024-08-10T09:37:46Z</time>
      </trkpt>
      <trkpt lat="45.05231" lon="6.28854">
        <ele>1812.6</ele>
        <time>2024-08-10T09:37:47Z</time>
      </trkpt>
      <trkpt lat="45.05229" lon="6.28856">
        <ele>1812.6</ele>
        <time>2024-08-10T09:37:48Z</time>
      </trkpt>
      <trkpt lat="45.05229" lon="6.28856">
        <ele>1812.8</ele>
        <time>2024-08-10T09:37:49Z</time>
      </trkpt>
      <trkpt lat="45.05227" lon="6.28858">
        <ele>1812.8</ele>
        <time>2024-08-10T09:37:50Z</time>
      </trkpt>
      <trkpt lat="45.05227" lon="6.28858">
        <ele>1813</ele>
        <time>2024-08-10T09:37:51Z</time>
      </trkpt>
      <trkpt lat="45.05224" lon="6.2886">
        <ele>1813.2</ele>
        <time>2024-08-10T09:37:52Z</time>
      </trkpt>
      <trkpt lat="45.05224" lon="6.2886">
        <ele>1813.2</ele>
        <time>2024-08-10T09:37:53Z</time>
      </trkpt>
      <trkpt lat="45.05221" lon="6.28861">
        <ele>1813.6</ele>
        <time>2024-08-10T09:37:54Z</time>
      </trkpt>
      <trkpt lat="45.05221" lon="6.28861">
        <ele>1813.6</ele>
        <time>2024-08-10T09:37:55Z</time>
      </trkpt>
      <trkpt lat="45.05219" lon="6.28862">
        <ele>1813.4</ele>
        <time>2024-08-10T09:37:56Z</time>
      </trkpt>
      <trkpt lat="45.05219" lon="6.28862">
        <ele>1813.4</ele>
        <time>2024-08-10T09:37:57Z</time>
      </trkpt>
      <trkpt lat="45.05216" lon="6.28863">
        <ele>1813.4</ele>
        <time>2024-08-10T09:37:58Z</time>
      </trkpt>
      <trkpt lat="45.05216" lon="6.28863">
        <ele>1813.2</ele>
        <time>2024-08-10T09:37:59Z</time>
      </trkpt>
      <trkpt lat="45.05213" lon="6.28864">
        <ele>1813.2</ele>
        <time>2024-08-10T09:38:00Z</time>
      </trkpt>
      <trkpt lat="45.05213" lon="6.28864">
        <ele>1813.2</ele>
        <time>2024-08-10T09:38:01Z</time>
      </trkpt>
      <trkpt lat="45.05211" lon="6.28866">
        <ele>1813.2</ele>
        <time>2024-08-10T09:38:02Z</time>
      </trkpt>
      <trkpt lat="45.05211" lon="6.28866">
        <ele>1813.2</ele>
        <time>2024-08-10T09:38:03Z</time>
      </trkpt>
      <trkpt lat="45.05209" lon="6.28867">
        <ele>1813.2</ele>
        <time>2024-08-10T09:38:04Z</time>
      </trkpt>
      <trkpt lat="45.05207" lon="6.28868">
        <ele>1813.4</ele>
        <time>2024-08-10T09:38:05Z</time>
      </trkpt>
      <trkpt lat="45.05207" lon="6.28868">
        <ele>1813.6</ele>
        <time>2024-08-10T09:38:06Z</time>
      </trkpt>
      <trkpt lat="45.05205" lon="6.28869">
        <ele>1813.8</ele>
        <time>2024-08-10T09:38:07Z</time>
      </trkpt>
      <trkpt lat="45.05205" lon="6.28869">
        <ele>1813.8</ele>
        <time>2024-08-10T09:38:08Z</time>
      </trkpt>
      <trkpt lat="45.05201" lon="6.28869">
        <ele>1813.8</ele>
        <time>2024-08-10T09:38:09Z</time>
      </trkpt>
      <trkpt lat="45.05201" lon="6.28869">
        <ele>1813.4</ele>
        <time>2024-08-10T09:38:10Z</time>
      </trkpt>
      <trkpt lat="45.05199" lon="6.2887">
        <ele>1813.4</ele>
        <time>2024-08-10T09:38:11Z</time>
      </trkpt>
      <trkpt lat="45.05197" lon="6.2887">
        <ele>1813.6</ele>
        <time>2024-08-10T09:38:12Z</time>
      </trkpt>
      <trkpt lat="45.05197" lon="6.2887">
        <ele>1813.8</ele>
        <time>2024-08-10T09:38:13Z</time>
      </trkpt>
      <trkpt lat="45.05195" lon="6.2887">
        <ele>1814</ele>
        <time>2024-08-10T09:38:14Z</time>
      </trkpt>
      <trkpt lat="45.05195" lon="6.2887">
        <ele>1814</ele>
        <time>2024-08-10T09:38:15Z</time>
      </trkpt>
      <trkpt lat="45.05192" lon="6.2887">
        <ele>1814</ele>
        <time>2024-08-10T09:38:16Z</time>
      </trkpt>
      <trkpt lat="45.05192" lon="6.2887">
        <ele>1814</ele>
        <time>2024-08-10T09:38:17Z</time>
      </trkpt>
      <trkpt lat="45.05189" lon="6.28871">
        <ele>1814</ele>
        <time>2024-08-10T09:38:18Z</time>
      </trkpt>
      <trkpt lat="45.05189" lon="6.28871">
        <ele>1814.2</ele>
        <time>2024-08-10T09:38:19Z</time>
      </trkpt>
      <trkpt lat="45.05187" lon="6.28871">
        <ele>1814.4</ele>
        <time>2024-08-10T09:38:20Z</time>
      </trkpt>
      <trkpt lat="45.05187" lon="6.28871">
        <ele>1814.4</ele>
        <time>2024-08-10T09:38:21Z</time>
      </trkpt>
      <trkpt lat="45.05185" lon="6.28871">
        <ele>1814.4</ele>
        <time>2024-08-10T09:38:22Z</time>
      </trkpt>
      <trkpt lat="45.05185" lon="6.28871">
        <ele>1814.4</ele>
        <time>2024-08-10T09:38:23Z</time>
      </trkpt>
      <trkpt lat="45.05181" lon="6.28872">
        <ele>1814.4</ele>
        <time>2024-08-10T09:38:24Z</time>
      </trkpt>
      <trkpt lat="45.05181" lon="6.28872">
        <ele>1814.4</ele>
        <time>2024-08-10T09:38:25Z</time>
      </trkpt>
      <trkpt lat="45.05179" lon="6.28873">
        <ele>1814.4</ele>
        <time>2024-08-10T09:38:26Z</time>
      </trkpt>
      <trkpt lat="45.05179" lon="6.28873">
        <ele>1814.6</ele>
        <time>2024-08-10T09:38:27Z</time>
      </trkpt>
      <trkpt lat="45.05176" lon="6.28873">
        <ele>1814.6</ele>
        <time>2024-08-10T09:38:28Z</time>
      </trkpt>
      <trkpt lat="45.05176" lon="6.28873">
        <ele>1814.6</ele>
        <time>2024-08-10T09:38:29Z</time>
      </trkpt>
      <trkpt lat="45.05173" lon="6.28873">
        <ele>1814.6</ele>
        <time>2024-08-10T09:38:30Z</time>
      </trkpt>
      <trkpt lat="45.05173" lon="6.28873">
        <ele>1814.6</ele>
        <time>2024-08-10T09:38:31Z</time>
      </trkpt>
      <trkpt lat="45.05171" lon="6.28873">
        <ele>1814.8</ele>
        <time>2024-08-10T09:38:32Z</time>
      </trkpt>
      <trkpt lat="45.05171" lon="6.28873">
        <ele>1814.8</ele>
        <time>2024-08-10T09:38:33Z</time>
      </trkpt>
      <trkpt lat="45.05167" lon="6.28873">
        <ele>1814.8</ele>
        <time>2024-08-10T09:38:34Z</time>
      </trkpt>
      <trkpt lat="45.05167" lon="6.28873">
        <ele>1814.8</ele>
        <time>2024-08-10T09:38:35Z</time>
      </trkpt>
      <trkpt lat="45.05165" lon="6.28873">
        <ele>1814.8</ele>
        <time>2024-08-10T09:38:36Z</time>
      </trkpt>
      <trkpt lat="45.05165" lon="6.28873">
        <ele>1814.8</ele>
        <time>2024-08-10T09:38:37Z</time>
      </trkpt>
      <trkpt lat="45.05162" lon="6.28874">
        <ele>1814.8</ele>
        <time>2024-08-10T09:38:38Z</time>
      </trkpt>
      <trkpt lat="45.05162" lon="6.28874">
        <ele>1815</ele>
        <time>2024-08-10T09:38:39Z</time>
      </trkpt>
      <trkpt lat="45.05159" lon="6.28875">
        <ele>1815</ele>
        <time>2024-08-10T09:38:40Z</time>
      </trkpt>
      <trkpt lat="45.05159" lon="6.28875">
        <ele>1815.2</ele>
        <time>2024-08-10T09:38:41Z</time>
      </trkpt>
      <trkpt lat="45.05157" lon="6.28876">
        <ele>1815.2</ele>
        <time>2024-08-10T09:38:42Z</time>
      </trkpt>
      <trkpt lat="45.05157" lon="6.28876">
        <ele>1815.2</ele>
        <time>2024-08-10T09:38:43Z</time>
      </trkpt>
      <trkpt lat="45.05155" lon="6.28877">
        <ele>1815.4</ele>
        <time>2024-08-10T09:38:44Z</time>
      </trkpt>
      <trkpt lat="45.05155" lon="6.28877">
        <ele>1815.4</ele>
        <time>2024-08-10T09:38:45Z</time>
      </trkpt>
      <trkpt lat="45.05152" lon="6.28877">
        <ele>1815.2</ele>
        <time>2024-08-10T09:38:46Z</time>
      </trkpt>
      <trkpt lat="45.05152" lon="6.28877">
        <ele>1815.2</ele>
        <time>2024-08-10T09:38:47Z</time>
      </trkpt>
      <trkpt lat="45.05149" lon="6.28878">
        <ele>1815.2</ele>
        <time>2024-08-10T09:38:48Z</time>
      </trkpt>
      <trkpt lat="45.05149" lon="6.28878">
        <ele>1815.2</ele>
        <time>2024-08-10T09:38:49Z</time>
      </trkpt>
      <trkpt lat="45.05147" lon="6.28879">
        <ele>1815.4</ele>
        <time>2024-08-10T09:38:50Z</time>
      </trkpt>
      <trkpt lat="45.05147" lon="6.28879">
        <ele>1815.6</ele>
        <time>2024-08-10T09:38:51Z</time>
      </trkpt>
      <trkpt lat="45.05145" lon="6.2888">
        <ele>1815.6</ele>
        <time>2024-08-10T09:38:52Z</time>
      </trkpt>
      <trkpt lat="45.05145" lon="6.2888">
        <ele>1815.6</ele>
        <time>2024-08-10T09:38:53Z</time>
      </trkpt>
      <trkpt lat="45.05142" lon="6.2888">
        <ele>1815.6</ele>
        <time>2024-08-10T09:38:54Z</time>
      </trkpt>
      <trkpt lat="45.05142" lon="6.2888">
        <ele>1815.6</ele>
        <time>2024-08-10T09:38:55Z</time>
      </trkpt>
      <trkpt lat="45.0514" lon="6.28882">
        <ele>1815.6</ele>
        <time>2024-08-10T09:38:56Z</time>
      </trkpt>
      <trkpt lat="45.0514" lon="6.28882">
        <ele>1815.8</ele>
        <time>2024-08-10T09:38:57Z</time>
      </trkpt>
      <trkpt lat="45.05138" lon="6.28883">
        <ele>1816</ele>
        <time>2024-08-10T09:38:58Z</time>
      </trkpt>
      <trkpt lat="45.05138" lon="6.28883">
        <ele>1816.2</ele>
        <time>2024-08-10T09:38:59Z</time>
      </trkpt>
      <trkpt lat="45.05136" lon="6.28884">
        <ele>1816.2</ele>
        <time>2024-08-10T09:39:00Z</time>
      </trkpt>
      <trkpt lat="45.05136" lon="6.28884">
        <ele>1816.6</ele>
        <time>2024-08-10T09:39:01Z</time>
      </trkpt>
      <trkpt lat="45.05133" lon="6.28886">
        <ele>1816.6</ele>
        <time>2024-08-10T09:39:02Z</time>
      </trkpt>
      <trkpt lat="45.05133" lon="6.28886">
        <ele>1816.4</ele>
        <time>2024-08-10T09:39:03Z</time>
      </trkpt>
      <trkpt lat="45.05131" lon="6.28887">
        <ele>1816.4</ele>
        <time>2024-08-10T09:39:04Z</time>
      </trkpt>
      <trkpt lat="45.05131" lon="6.28887">
        <ele>1816.6</ele>
        <time>2024-08-10T09:39:05Z</time>
      </trkpt>
      <trkpt lat="45.05128" lon="6.28887">
        <ele>1816.8</ele>
        <time>2024-08-10T09:39:06Z</time>
      </trkpt>
      <trkpt lat="45.05128" lon="6.28887">
        <ele>1817</ele>
        <time>2024-08-10T09:39:07Z</time>
      </trkpt>
      <trkpt lat="45.05126" lon="6.28888">
        <ele>1817.2</ele>
        <time>2024-08-10T09:39:08Z</time>
      </trkpt>
      <trkpt lat="45.05126" lon="6.28888">
        <ele>1817.2</ele>
        <time>2024-08-10T09:39:09Z</time>
      </trkpt>
      <trkpt lat="45.05124" lon="6.28889">
        <ele>1817.2</ele>
        <time>2024-08-10T09:39:10Z</time>
      </trkpt>
      <trkpt lat="45.05124" lon="6.28889">
        <ele>1817.2</ele>
        <time>2024-08-10T09:39:11Z</time>
      </trkpt>
      <trkpt lat="45.05122" lon="6.2889">
        <ele>1817.2</ele>
        <time>2024-08-10T09:39:12Z</time>
      </trkpt>
      <trkpt lat="45.05122" lon="6.2889">
        <ele>1817.2</ele>
        <time>2024-08-10T09:39:13Z</time>
      </trkpt>
      <trkpt lat="45.05119" lon="6.28891">
        <ele>1817.4</ele>
        <time>2024-08-10T09:39:14Z</time>
      </trkpt>
      <trkpt lat="45.05119" lon="6.28891">
        <ele>1817.6</ele>
        <time>2024-08-10T09:39:15Z</time>
      </trkpt>
      <trkpt lat="45.05117" lon="6.28892">
        <ele>1817.6</ele>
        <time>2024-08-10T09:39:16Z</time>
      </trkpt>
      <trkpt lat="45.05117" lon="6.28892">
        <ele>1817.8</ele>
        <time>2024-08-10T09:39:17Z</time>
      </trkpt>
      <trkpt lat="45.05115" lon="6.28893">
        <ele>1818</ele>
        <time>2024-08-10T09:39:18Z</time>
      </trkpt>
      <trkpt lat="45.05115" lon="6.28893">
        <ele>1818</ele>
        <time>2024-08-10T09:39:19Z</time>
      </trkpt>
      <trkpt lat="45.05112" lon="6.28894">
        <ele>1818</ele>
        <time>2024-08-10T09:39:20Z</time>
      </trkpt>
      <trkpt lat="45.05112" lon="6.28894">
        <ele>1818</ele>
        <time>2024-08-10T09:39:21Z</time>
      </trkpt>
      <trkpt lat="45.05112" lon="6.28894">
        <ele>1818.2</ele>
        <time>2024-08-10T09:39:22Z</time>
      </trkpt>
      <trkpt lat="45.0511" lon="6.28896">
        <ele>1818.2</ele>
        <time>2024-08-10T09:39:23Z</time>
      </trkpt>
      <trkpt lat="45.0511" lon="6.28896">
        <ele>1818.2</ele>
        <time>2024-08-10T09:39:24Z</time>
      </trkpt>
      <trkpt lat="45.05108" lon="6.28898">
        <ele>1818.4</ele>
        <time>2024-08-10T09:39:25Z</time>
      </trkpt>
      <trkpt lat="45.05108" lon="6.28898">
        <ele>1818.4</ele>
        <time>2024-08-10T09:39:26Z</time>
      </trkpt>
      <trkpt lat="45.05106" lon="6.28899">
        <ele>1818.6</ele>
        <time>2024-08-10T09:39:27Z</time>
      </trkpt>
      <trkpt lat="45.05106" lon="6.28899">
        <ele>1818.4</ele>
        <time>2024-08-10T09:39:28Z</time>
      </trkpt>
      <trkpt lat="45.05104" lon="6.28901">
        <ele>1818.6</ele>
        <time>2024-08-10T09:39:29Z</time>
      </trkpt>
      <trkpt lat="45.05104" lon="6.28901">
        <ele>1818.6</ele>
        <time>2024-08-10T09:39:30Z</time>
      </trkpt>
      <trkpt lat="45.05102" lon="6.28902">
        <ele>1819</ele>
        <time>2024-08-10T09:39:31Z</time>
      </trkpt>
      <trkpt lat="45.05102" lon="6.28902">
        <ele>1819.2</ele>
        <time>2024-08-10T09:39:32Z</time>
      </trkpt>
      <trkpt lat="45.05099" lon="6.28904">
        <ele>1819.2</ele>
        <time>2024-08-10T09:39:33Z</time>
      </trkpt>
      <trkpt lat="45.05099" lon="6.28904">
        <ele>1819.2</ele>
        <time>2024-08-10T09:39:34Z</time>
      </trkpt>
      <trkpt lat="45.05097" lon="6.28905">
        <ele>1819.4</ele>
        <time>2024-08-10T09:39:35Z</time>
      </trkpt>
      <trkpt lat="45.05097" lon="6.28905">
        <ele>1819.4</ele>
        <time>2024-08-10T09:39:36Z</time>
      </trkpt>
      <trkpt lat="45.05094" lon="6.28907">
        <ele>1819.4</ele>
        <time>2024-08-10T09:39:37Z</time>
      </trkpt>
      <trkpt lat="45.05094" lon="6.28907">
        <ele>1819.6</ele>
        <time>2024-08-10T09:39:38Z</time>
      </trkpt>
      <trkpt lat="45.05093" lon="6.28909">
        <ele>1819.8</ele>
        <time>2024-08-10T09:39:39Z</time>
      </trkpt>
      <trkpt lat="45.05093" lon="6.28909">
        <ele>1820</ele>
        <time>2024-08-10T09:39:40Z</time>
      </trkpt>
      <trkpt lat="45.0509" lon="6.2891">
        <ele>1820</ele>
        <time>2024-08-10T09:39:41Z</time>
      </trkpt>
      <trkpt lat="45.0509" lon="6.2891">
        <ele>1820.2</ele>
        <time>2024-08-10T09:39:42Z</time>
      </trkpt>
      <trkpt lat="45.05088" lon="6.2891">
        <ele>1820.4</ele>
        <time>2024-08-10T09:39:43Z</time>
      </trkpt>
      <trkpt lat="45.05088" lon="6.2891">
        <ele>1820.6</ele>
        <time>2024-08-10T09:39:44Z</time>
      </trkpt>
      <trkpt lat="45.05085" lon="6.2891">
        <ele>1820.8</ele>
        <time>2024-08-10T09:39:45Z</time>
      </trkpt>
      <trkpt lat="45.05085" lon="6.2891">
        <ele>1821.2</ele>
        <time>2024-08-10T09:39:46Z</time>
      </trkpt>
      <trkpt lat="45.05083" lon="6.28911">
        <ele>1821.2</ele>
        <time>2024-08-10T09:39:47Z</time>
      </trkpt>
      <trkpt lat="45.05083" lon="6.28911">
        <ele>1821.2</ele>
        <time>2024-08-10T09:39:48Z</time>
      </trkpt>
      <trkpt lat="45.0508" lon="6.2891">
        <ele>1821.2</ele>
        <time>2024-08-10T09:39:49Z</time>
      </trkpt>
      <trkpt lat="45.0508" lon="6.2891">
        <ele>1821</ele>
        <time>2024-08-10T09:39:50Z</time>
      </trkpt>
      <trkpt lat="45.05077" lon="6.2891">
        <ele>1821</ele>
        <time>2024-08-10T09:39:51Z</time>
      </trkpt>
      <trkpt lat="45.05077" lon="6.2891">
        <ele>1821.2</ele>
        <time>2024-08-10T09:39:52Z</time>
      </trkpt>
      <trkpt lat="45.05075" lon="6.2891">
        <ele>1821.2</ele>
        <time>2024-08-10T09:39:53Z</time>
      </trkpt>
      <trkpt lat="45.05075" lon="6.2891">
        <ele>1821.4</ele>
        <time>2024-08-10T09:39:54Z</time>
      </trkpt>
      <trkpt lat="45.05072" lon="6.28909">
        <ele>1821.4</ele>
        <time>2024-08-10T09:39:55Z</time>
      </trkpt>
      <trkpt lat="45.0507" lon="6.28909">
        <ele>1821.4</ele>
        <time>2024-08-10T09:39:56Z</time>
      </trkpt>
      <trkpt lat="45.0507" lon="6.28909">
        <ele>1821.6</ele>
        <time>2024-08-10T09:39:57Z</time>
      </trkpt>
      <trkpt lat="45.05067" lon="6.28908">
        <ele>1821.6</ele>
        <time>2024-08-10T09:39:58Z</time>
      </trkpt>
      <trkpt lat="45.05066" lon="6.28907">
        <ele>1821.8</ele>
        <time>2024-08-10T09:39:59Z</time>
      </trkpt>
      <trkpt lat="45.05065" lon="6.28907">
        <ele>1821.8</ele>
        <time>2024-08-10T09:40:00Z</time>
      </trkpt>
      <trkpt lat="45.05065" lon="6.28907">
        <ele>1822.2</ele>
        <time>2024-08-10T09:40:01Z</time>
      </trkpt>
      <trkpt lat="45.05062" lon="6.28908">
        <ele>1822.2</ele>
        <time>2024-08-10T09:40:02Z</time>
      </trkpt>
      <trkpt lat="45.05062" lon="6.28908">
        <ele>1822.4</ele>
        <time>2024-08-10T09:40:03Z</time>
      </trkpt>
      <trkpt lat="45.0506" lon="6.28908">
        <ele>1822.4</ele>
        <time>2024-08-10T09:40:04Z</time>
      </trkpt>
      <trkpt lat="45.0506" lon="6.28908">
        <ele>1822.4</ele>
        <time>2024-08-10T09:40:05Z</time>
      </trkpt>
      <trkpt lat="45.05058" lon="6.28908">
        <ele>1822.4</ele>
        <time>2024-08-10T09:40:06Z</time>
      </trkpt>
      <trkpt lat="45.05058" lon="6.28908">
        <ele>1822.8</ele>
        <time>2024-08-10T09:40:07Z</time>
      </trkpt>
      <trkpt lat="45.05055" lon="6.28908">
        <ele>1823</ele>
        <time>2024-08-10T09:40:08Z</time>
      </trkpt>
      <trkpt lat="45.05055" lon="6.28908">
        <ele>1823.2</ele>
        <time>2024-08-10T09:40:09Z</time>
      </trkpt>
      <trkpt lat="45.05053" lon="6.28909">
        <ele>1823.2</ele>
        <time>2024-08-10T09:40:10Z</time>
      </trkpt>
      <trkpt lat="45.05053" lon="6.28909">
        <ele>1823.2</ele>
        <time>2024-08-10T09:40:11Z</time>
      </trkpt>
      <trkpt lat="45.05051" lon="6.28909">
        <ele>1823.2</ele>
        <time>2024-08-10T09:40:12Z</time>
      </trkpt>
      <trkpt lat="45.05051" lon="6.28909">
        <ele>1823.4</ele>
        <time>2024-08-10T09:40:13Z</time>
      </trkpt>
      <trkpt lat="45.05048" lon="6.28909">
        <ele>1823.6</ele>
        <time>2024-08-10T09:40:14Z</time>
      </trkpt>
      <trkpt lat="45.05048" lon="6.28909">
        <ele>1823.6</ele>
        <time>2024-08-10T09:40:15Z</time>
      </trkpt>
      <trkpt lat="45.05046" lon="6.2891">
        <ele>1823.6</ele>
        <time>2024-08-10T09:40:16Z</time>
      </trkpt>
      <trkpt lat="45.05046" lon="6.2891">
        <ele>1823.8</ele>
        <time>2024-08-10T09:40:17Z</time>
      </trkpt>
      <trkpt lat="45.05044" lon="6.28911">
        <ele>1823.8</ele>
        <time>2024-08-10T09:40:18Z</time>
      </trkpt>
      <trkpt lat="45.05044" lon="6.28911">
        <ele>1824</ele>
        <time>2024-08-10T09:40:19Z</time>
      </trkpt>
      <trkpt lat="45.05041" lon="6.28913">
        <ele>1824.2</ele>
        <time>2024-08-10T09:40:20Z</time>
      </trkpt>
      <trkpt lat="45.05041" lon="6.28913">
        <ele>1824.6</ele>
        <time>2024-08-10T09:40:21Z</time>
      </trkpt>
      <trkpt lat="45.05038" lon="6.28914">
        <ele>1824.6</ele>
        <time>2024-08-10T09:40:22Z</time>
      </trkpt>
      <trkpt lat="45.05038" lon="6.28914">
        <ele>1824.4</ele>
        <time>2024-08-10T09:40:23Z</time>
      </trkpt>
      <trkpt lat="45.05038" lon="6.28914">
        <ele>1824.4</ele>
        <time>2024-08-10T09:40:24Z</time>
      </trkpt>
      <trkpt lat="45.05036" lon="6.28915">
        <ele>1824.4</ele>
        <time>2024-08-10T09:40:25Z</time>
      </trkpt>
      <trkpt lat="45.05036" lon="6.28915">
        <ele>1824.6</ele>
        <time>2024-08-10T09:40:26Z</time>
      </trkpt>
      <trkpt lat="45.05033" lon="6.28916">
        <ele>1824.8</ele>
        <time>2024-08-10T09:40:27Z</time>
      </trkpt>
      <trkpt lat="45.05033" lon="6.28916">
        <ele>1825.2</ele>
        <time>2024-08-10T09:40:28Z</time>
      </trkpt>
      <trkpt lat="45.05031" lon="6.28917">
        <ele>1825.6</ele>
        <time>2024-08-10T09:40:29Z</time>
      </trkpt>
      <trkpt lat="45.05031" lon="6.28917">
        <ele>1825.6</ele>
        <time>2024-08-10T09:40:30Z</time>
      </trkpt>
      <trkpt lat="45.05028" lon="6.28917">
        <ele>1825.8</ele>
        <time>2024-08-10T09:40:31Z</time>
      </trkpt>
      <trkpt lat="45.05028" lon="6.28917">
        <ele>1826.2</ele>
        <time>2024-08-10T09:40:32Z</time>
      </trkpt>
      <trkpt lat="45.05026" lon="6.28918">
        <ele>1826.6</ele>
        <time>2024-08-10T09:40:33Z</time>
      </trkpt>
      <trkpt lat="45.05026" lon="6.28918">
        <ele>1826.6</ele>
        <time>2024-08-10T09:40:34Z</time>
      </trkpt>
      <trkpt lat="45.05024" lon="6.28919">
        <ele>1826.6</ele>
        <time>2024-08-10T09:40:35Z</time>
      </trkpt>
      <trkpt lat="45.05024" lon="6.28919">
        <ele>1827</ele>
        <time>2024-08-10T09:40:36Z</time>
      </trkpt>
      <trkpt lat="45.05022" lon="6.28918">
        <ele>1827.2</ele>
        <time>2024-08-10T09:40:37Z</time>
      </trkpt>
      <trkpt lat="45.05022" lon="6.28918">
        <ele>1827.4</ele>
        <time>2024-08-10T09:40:38Z</time>
      </trkpt>
      <trkpt lat="45.0502" lon="6.28918">
        <ele>1827.6</ele>
        <time>2024-08-10T09:40:39Z</time>
      </trkpt>
      <trkpt lat="45.0502" lon="6.28918">
        <ele>1827.8</ele>
        <time>2024-08-10T09:40:40Z</time>
      </trkpt>
      <trkpt lat="45.05018" lon="6.28918">
        <ele>1828</ele>
        <time>2024-08-10T09:40:41Z</time>
      </trkpt>
      <trkpt lat="45.05018" lon="6.28918">
        <ele>1828</ele>
        <time>2024-08-10T09:40:42Z</time>
      </trkpt>
      <trkpt lat="45.05016" lon="6.28919">
        <ele>1828.4</ele>
        <time>2024-08-10T09:40:43Z</time>
      </trkpt>
      <trkpt lat="45.05016" lon="6.28919">
        <ele>1828.4</ele>
        <time>2024-08-10T09:40:44Z</time>
      </trkpt>
      <trkpt lat="45.05014" lon="6.2892">
        <ele>1828.4</ele>
        <time>2024-08-10T09:40:45Z</time>
      </trkpt>
      <trkpt lat="45.05014" lon="6.2892">
        <ele>1828.6</ele>
        <time>2024-08-10T09:40:46Z</time>
      </trkpt>
      <trkpt lat="45.05012" lon="6.2892">
        <ele>1829</ele>
        <time>2024-08-10T09:40:47Z</time>
      </trkpt>
      <trkpt lat="45.05012" lon="6.2892">
        <ele>1829.2</ele>
        <time>2024-08-10T09:40:48Z</time>
      </trkpt>
      <trkpt lat="45.05009" lon="6.28921">
        <ele>1829.2</ele>
        <time>2024-08-10T09:40:49Z</time>
      </trkpt>
      <trkpt lat="45.05009" lon="6.28921">
        <ele>1829.2</ele>
        <time>2024-08-10T09:40:50Z</time>
      </trkpt>
      <trkpt lat="45.05007" lon="6.28922">
        <ele>1829.4</ele>
        <time>2024-08-10T09:40:51Z</time>
      </trkpt>
      <trkpt lat="45.05007" lon="6.28922">
        <ele>1829.6</ele>
        <time>2024-08-10T09:40:52Z</time>
      </trkpt>
      <trkpt lat="45.05005" lon="6.28923">
        <ele>1830</ele>
        <time>2024-08-10T09:40:53Z</time>
      </trkpt>
      <trkpt lat="45.05005" lon="6.28923">
        <ele>1830</ele>
        <time>2024-08-10T09:40:54Z</time>
      </trkpt>
      <trkpt lat="45.05003" lon="6.28923">
        <ele>1830</ele>
        <time>2024-08-10T09:40:55Z</time>
      </trkpt>
      <trkpt lat="45.05003" lon="6.28923">
        <ele>1830.2</ele>
        <time>2024-08-10T09:40:56Z</time>
      </trkpt>
      <trkpt lat="45.05" lon="6.28924">
        <ele>1830.2</ele>
        <time>2024-08-10T09:40:57Z</time>
      </trkpt>
      <trkpt lat="45.05" lon="6.28924">
        <ele>1830.4</ele>
        <time>2024-08-10T09:40:58Z</time>
      </trkpt>
      <trkpt lat="45.04998" lon="6.28925">
        <ele>1830.6</ele>
        <time>2024-08-10T09:40:59Z</time>
      </trkpt>
      <trkpt lat="45.04998" lon="6.28925">
        <ele>1830.8</ele>
        <time>2024-08-10T09:41:00Z</time>
      </trkpt>
      <trkpt lat="45.04995" lon="6.28926">
        <ele>1830.8</ele>
        <time>2024-08-10T09:41:01Z</time>
      </trkpt>
      <trkpt lat="45.04995" lon="6.28926">
        <ele>1830.8</ele>
        <time>2024-08-10T09:41:02Z</time>
      </trkpt>
      <trkpt lat="45.04993" lon="6.28926">
        <ele>1831.2</ele>
        <time>2024-08-10T09:41:03Z</time>
      </trkpt>
      <trkpt lat="45.04993" lon="6.28926">
        <ele>1831.2</ele>
        <time>2024-08-10T09:41:04Z</time>
      </trkpt>
      <trkpt lat="45.04991" lon="6.28927">
        <ele>1831.2</ele>
        <time>2024-08-10T09:41:05Z</time>
      </trkpt>
      <trkpt lat="45.04991" lon="6.28927">
        <ele>1831.6</ele>
        <time>2024-08-10T09:41:06Z</time>
      </trkpt>
      <trkpt lat="45.04989" lon="6.28928">
        <ele>1831.6</ele>
        <time>2024-08-10T09:41:07Z</time>
      </trkpt>
      <trkpt lat="45.04989" lon="6.28928">
        <ele>1831.6</ele>
        <time>2024-08-10T09:41:08Z</time>
      </trkpt>
      <trkpt lat="45.04987" lon="6.28929">
        <ele>1831.8</ele>
        <time>2024-08-10T09:41:09Z</time>
      </trkpt>
      <trkpt lat="45.04987" lon="6.28929">
        <ele>1832</ele>
        <time>2024-08-10T09:41:10Z</time>
      </trkpt>
      <trkpt lat="45.04985" lon="6.2893">
        <ele>1832.2</ele>
        <time>2024-08-10T09:41:11Z</time>
      </trkpt>
      <trkpt lat="45.04985" lon="6.2893">
        <ele>1832.4</ele>
        <time>2024-08-10T09:41:12Z</time>
      </trkpt>
      <trkpt lat="45.04982" lon="6.2893">
        <ele>1832.4</ele>
        <time>2024-08-10T09:41:13Z</time>
      </trkpt>
      <trkpt lat="45.04982" lon="6.2893">
        <ele>1832.6</ele>
        <time>2024-08-10T09:41:14Z</time>
      </trkpt>
      <trkpt lat="45.04981" lon="6.28931">
        <ele>1832.6</ele>
        <time>2024-08-10T09:41:15Z</time>
      </trkpt>
      <trkpt lat="45.04981" lon="6.28931">
        <ele>1832.8</ele>
        <time>2024-08-10T09:41:16Z</time>
      </trkpt>
      <trkpt lat="45.04978" lon="6.28932">
        <ele>1832.8</ele>
        <time>2024-08-10T09:41:17Z</time>
      </trkpt>
      <trkpt lat="45.04978" lon="6.28932">
        <ele>1833</ele>
        <time>2024-08-10T09:41:18Z</time>
      </trkpt>
      <trkpt lat="45.04976" lon="6.28932">
        <ele>1833</ele>
        <time>2024-08-10T09:41:19Z</time>
      </trkpt>
      <trkpt lat="45.04976" lon="6.28932">
        <ele>1833.2</ele>
        <time>2024-08-10T09:41:20Z</time>
      </trkpt>
      <trkpt lat="45.04973" lon="6.28933">
        <ele>1833.2</ele>
        <time>2024-08-10T09:41:21Z</time>
      </trkpt>
      <trkpt lat="45.04973" lon="6.28933">
        <ele>1833.4</ele>
        <time>2024-08-10T09:41:22Z</time>
      </trkpt>
      <trkpt lat="45.04971" lon="6.28934">
        <ele>1833.4</ele>
        <time>2024-08-10T09:41:23Z</time>
      </trkpt>
      <trkpt lat="45.04971" lon="6.28934">
        <ele>1833.6</ele>
        <time>2024-08-10T09:41:24Z</time>
      </trkpt>
      <trkpt lat="45.04969" lon="6.28935">
        <ele>1833.8</ele>
        <time>2024-08-10T09:41:25Z</time>
      </trkpt>
      <trkpt lat="45.04969" lon="6.28935">
        <ele>1833.8</ele>
        <time>2024-08-10T09:41:26Z</time>
      </trkpt>
      <trkpt lat="45.04967" lon="6.28936">
        <ele>1834</ele>
        <time>2024-08-10T09:41:27Z</time>
      </trkpt>
      <trkpt lat="45.04967" lon="6.28936">
        <ele>1834</ele>
        <time>2024-08-10T09:41:28Z</time>
      </trkpt>
      <trkpt lat="45.04965" lon="6.28937">
        <ele>1834</ele>
        <time>2024-08-10T09:41:29Z</time>
      </trkpt>
      <trkpt lat="45.04965" lon="6.28937">
        <ele>1834.2</ele>
        <time>2024-08-10T09:41:30Z</time>
      </trkpt>
      <trkpt lat="45.04963" lon="6.28937">
        <ele>1834.4</ele>
        <time>2024-08-10T09:41:31Z</time>
      </trkpt>
      <trkpt lat="45.04963" lon="6.28937">
        <ele>1834.4</ele>
        <time>2024-08-10T09:41:32Z</time>
      </trkpt>
      <trkpt lat="45.0496" lon="6.28937">
        <ele>1834.4</ele>
        <time>2024-08-10T09:41:33Z</time>
      </trkpt>
      <trkpt lat="45.0496" lon="6.28937">
        <ele>1834.4</ele>
        <time>2024-08-10T09:41:34Z</time>
      </trkpt>
      <trkpt lat="45.04957" lon="6.28937">
        <ele>1834.8</ele>
        <time>2024-08-10T09:41:35Z</time>
      </trkpt>
      <trkpt lat="45.04957" lon="6.28937">
        <ele>1834.8</ele>
        <time>2024-08-10T09:41:36Z</time>
      </trkpt>
      <trkpt lat="45.04955" lon="6.28938">
        <ele>1834.8</ele>
        <time>2024-08-10T09:41:37Z</time>
      </trkpt>
      <trkpt lat="45.04955" lon="6.28938">
        <ele>1835</ele>
        <time>2024-08-10T09:41:38Z</time>
      </trkpt>
      <trkpt lat="45.04953" lon="6.28939">
        <ele>1835.2</ele>
        <time>2024-08-10T09:41:39Z</time>
      </trkpt>
      <trkpt lat="45.04953" lon="6.28939">
        <ele>1835.2</ele>
        <time>2024-08-10T09:41:40Z</time>
      </trkpt>
      <trkpt lat="45.04951" lon="6.28942">
        <ele>1835.4</ele>
        <time>2024-08-10T09:41:41Z</time>
      </trkpt>
      <trkpt lat="45.04951" lon="6.28942">
        <ele>1835.6</ele>
        <time>2024-08-10T09:41:42Z</time>
      </trkpt>
      <trkpt lat="45.04949" lon="6.28942">
        <ele>1835.8</ele>
        <time>2024-08-10T09:41:43Z</time>
      </trkpt>
      <trkpt lat="45.04949" lon="6.28942">
        <ele>1836</ele>
        <time>2024-08-10T09:41:44Z</time>
      </trkpt>
      <trkpt lat="45.04947" lon="6.28943">
        <ele>1836</ele>
        <time>2024-08-10T09:41:45Z</time>
      </trkpt>
      <trkpt lat="45.04947" lon="6.28943">
        <ele>1836.2</ele>
        <time>2024-08-10T09:41:46Z</time>
      </trkpt>
      <trkpt lat="45.04945" lon="6.28943">
        <ele>1836.2</ele>
        <time>2024-08-10T09:41:47Z</time>
      </trkpt>
      <trkpt lat="45.04945" lon="6.28943">
        <ele>1836.2</ele>
        <time>2024-08-10T09:41:48Z</time>
      </trkpt>
      <trkpt lat="45.04942" lon="6.28944">
        <ele>1836.2</ele>
        <time>2024-08-10T09:41:49Z</time>
      </trkpt>
      <trkpt lat="45.04942" lon="6.28944">
        <ele>1836.2</ele>
        <time>2024-08-10T09:41:50Z</time>
      </trkpt>
      <trkpt lat="45.04941" lon="6.28945">
        <ele>1836.4</ele>
        <time>2024-08-10T09:41:51Z</time>
      </trkpt>
      <trkpt lat="45.04941" lon="6.28945">
        <ele>1836.4</ele>
        <time>2024-08-10T09:41:52Z</time>
      </trkpt>
      <trkpt lat="45.04938" lon="6.28945">
        <ele>1836.6</ele>
        <time>2024-08-10T09:41:53Z</time>
      </trkpt>
      <trkpt lat="45.04938" lon="6.28945">
        <ele>1836.6</ele>
        <time>2024-08-10T09:41:54Z</time>
      </trkpt>
      <trkpt lat="45.04936" lon="6.28946">
        <ele>1836.8</ele>
        <time>2024-08-10T09:41:55Z</time>
      </trkpt>
      <trkpt lat="45.04936" lon="6.28946">
        <ele>1837</ele>
        <time>2024-08-10T09:41:56Z</time>
      </trkpt>
      <trkpt lat="45.04933" lon="6.28947">
        <ele>1837.2</ele>
        <time>2024-08-10T09:41:57Z</time>
      </trkpt>
      <trkpt lat="45.04933" lon="6.28947">
        <ele>1837.4</ele>
        <time>2024-08-10T09:41:58Z</time>
      </trkpt>
      <trkpt lat="45.04931" lon="6.28949">
        <ele>1837.6</ele>
        <time>2024-08-10T09:41:59Z</time>
      </trkpt>
      <trkpt lat="45.04931" lon="6.28949">
        <ele>1837.6</ele>
        <time>2024-08-10T09:42:00Z</time>
      </trkpt>
      <trkpt lat="45.04929" lon="6.2895">
        <ele>1837.6</ele>
        <time>2024-08-10T09:42:01Z</time>
      </trkpt>
      <trkpt lat="45.04929" lon="6.2895">
        <ele>1837.8</ele>
        <time>2024-08-10T09:42:02Z</time>
      </trkpt>
      <trkpt lat="45.04927" lon="6.2895">
        <ele>1838</ele>
        <time>2024-08-10T09:42:03Z</time>
      </trkpt>
      <trkpt lat="45.04927" lon="6.2895">
        <ele>1838</ele>
        <time>2024-08-10T09:42:04Z</time>
      </trkpt>
      <trkpt lat="45.04925" lon="6.28951">
        <ele>1838.2</ele>
        <time>2024-08-10T09:42:05Z</time>
      </trkpt>
      <trkpt lat="45.04925" lon="6.28951">
        <ele>1838.4</ele>
        <time>2024-08-10T09:42:06Z</time>
      </trkpt>
      <trkpt lat="45.04921" lon="6.28952">
        <ele>1838.4</ele>
        <time>2024-08-10T09:42:07Z</time>
      </trkpt>
      <trkpt lat="45.04921" lon="6.28952">
        <ele>1838.4</ele>
        <time>2024-08-10T09:42:08Z</time>
      </trkpt>
      <trkpt lat="45.04919" lon="6.28953">
        <ele>1838.6</ele>
        <time>2024-08-10T09:42:09Z</time>
      </trkpt>
      <trkpt lat="45.04919" lon="6.28953">
        <ele>1838.8</ele>
        <time>2024-08-10T09:42:10Z</time>
      </trkpt>
      <trkpt lat="45.04917" lon="6.28955">
        <ele>1838.8</ele>
        <time>2024-08-10T09:42:11Z</time>
      </trkpt>
      <trkpt lat="45.04917" lon="6.28955">
        <ele>1838.6</ele>
        <time>2024-08-10T09:42:12Z</time>
      </trkpt>
      <trkpt lat="45.04915" lon="6.28956">
        <ele>1838.4</ele>
        <time>2024-08-10T09:42:13Z</time>
      </trkpt>
      <trkpt lat="45.04915" lon="6.28956">
        <ele>1838</ele>
        <time>2024-08-10T09:42:14Z</time>
      </trkpt>
      <trkpt lat="45.04913" lon="6.28957">
        <ele>1838</ele>
        <time>2024-08-10T09:42:15Z</time>
      </trkpt>
      <trkpt lat="45.04913" lon="6.28957">
        <ele>1838</ele>
        <time>2024-08-10T09:42:16Z</time>
      </trkpt>
      <trkpt lat="45.04913" lon="6.28957">
        <ele>1838</ele>
        <time>2024-08-10T09:42:17Z</time>
      </trkpt>
      <trkpt lat="45.0491" lon="6.28959">
        <ele>1838.2</ele>
        <time>2024-08-10T09:42:18Z</time>
      </trkpt>
      <trkpt lat="45.0491" lon="6.28959">
        <ele>1838.4</ele>
        <time>2024-08-10T09:42:19Z</time>
      </trkpt>
      <trkpt lat="45.04908" lon="6.28959">
        <ele>1838.6</ele>
        <time>2024-08-10T09:42:20Z</time>
      </trkpt>
      <trkpt lat="45.04908" lon="6.28959">
        <ele>1838.6</ele>
        <time>2024-08-10T09:42:21Z</time>
      </trkpt>
      <trkpt lat="45.04906" lon="6.2896">
        <ele>1838.6</ele>
        <time>2024-08-10T09:42:22Z</time>
      </trkpt>
      <trkpt lat="45.04906" lon="6.2896">
        <ele>1838.8</ele>
        <time>2024-08-10T09:42:23Z</time>
      </trkpt>
      <trkpt lat="45.04903" lon="6.28961">
        <ele>1839</ele>
        <time>2024-08-10T09:42:24Z</time>
      </trkpt>
      <trkpt lat="45.04903" lon="6.28961">
        <ele>1839.4</ele>
        <time>2024-08-10T09:42:25Z</time>
      </trkpt>
      <trkpt lat="45.04901" lon="6.28962">
        <ele>1839.4</ele>
        <time>2024-08-10T09:42:26Z</time>
      </trkpt>
      <trkpt lat="45.04901" lon="6.28962">
        <ele>1839.6</ele>
        <time>2024-08-10T09:42:27Z</time>
      </trkpt>
      <trkpt lat="45.04899" lon="6.28964">
        <ele>1839.8</ele>
        <time>2024-08-10T09:42:28Z</time>
      </trkpt>
      <trkpt lat="45.04899" lon="6.28964">
        <ele>1839.8</ele>
        <time>2024-08-10T09:42:29Z</time>
      </trkpt>
      <trkpt lat="45.04897" lon="6.28966">
        <ele>1839.8</ele>
        <time>2024-08-10T09:42:30Z</time>
      </trkpt>
      <trkpt lat="45.04897" lon="6.28966">
        <ele>1840</ele>
        <time>2024-08-10T09:42:31Z</time>
      </trkpt>
      <trkpt lat="45.04895" lon="6.28968">
        <ele>1840.2</ele>
        <time>2024-08-10T09:42:32Z</time>
      </trkpt>
      <trkpt lat="45.04895" lon="6.28968">
        <ele>1840.4</ele>
        <time>2024-08-10T09:42:33Z</time>
      </trkpt>
      <trkpt lat="45.04893" lon="6.28968">
        <ele>1840.6</ele>
        <time>2024-08-10T09:42:34Z</time>
      </trkpt>
      <trkpt lat="45.04893" lon="6.28968">
        <ele>1840.6</ele>
        <time>2024-08-10T09:42:35Z</time>
      </trkpt>
      <trkpt lat="45.0489" lon="6.28968">
        <ele>1840.6</ele>
        <time>2024-08-10T09:42:36Z</time>
      </trkpt>
      <trkpt lat="45.0489" lon="6.28968">
        <ele>1840.6</ele>
        <time>2024-08-10T09:42:37Z</time>
      </trkpt>
      <trkpt lat="45.04888" lon="6.2897">
        <ele>1840.8</ele>
        <time>2024-08-10T09:42:38Z</time>
      </trkpt>
      <trkpt lat="45.04888" lon="6.2897">
        <ele>1841</ele>
        <time>2024-08-10T09:42:39Z</time>
      </trkpt>
      <trkpt lat="45.04886" lon="6.28972">
        <ele>1841</ele>
        <time>2024-08-10T09:42:40Z</time>
      </trkpt>
      <trkpt lat="45.04886" lon="6.28972">
        <ele>1841.2</ele>
        <time>2024-08-10T09:42:41Z</time>
      </trkpt>
      <trkpt lat="45.04885" lon="6.28974">
        <ele>1841.2</ele>
        <time>2024-08-10T09:42:42Z</time>
      </trkpt>
      <trkpt lat="45.04885" lon="6.28974">
        <ele>1841.2</ele>
        <time>2024-08-10T09:42:43Z</time>
      </trkpt>
      <trkpt lat="45.04883" lon="6.28976">
        <ele>1841.2</ele>
        <time>2024-08-10T09:42:44Z</time>
      </trkpt>
      <trkpt lat="45.04883" lon="6.28976">
        <ele>1841.6</ele>
        <time>2024-08-10T09:42:45Z</time>
      </trkpt>
      <trkpt lat="45.0488" lon="6.28978">
        <ele>1841.6</ele>
        <time>2024-08-10T09:42:46Z</time>
      </trkpt>
      <trkpt lat="45.0488" lon="6.28978">
        <ele>1841.8</ele>
        <time>2024-08-10T09:42:47Z</time>
      </trkpt>
      <trkpt lat="45.04879" lon="6.2898">
        <ele>1842</ele>
        <time>2024-08-10T09:42:48Z</time>
      </trkpt>
      <trkpt lat="45.04879" lon="6.2898">
        <ele>1842.2</ele>
        <time>2024-08-10T09:42:49Z</time>
      </trkpt>
      <trkpt lat="45.04877" lon="6.28983">
        <ele>1842.4</ele>
        <time>2024-08-10T09:42:50Z</time>
      </trkpt>
      <trkpt lat="45.04877" lon="6.28983">
        <ele>1842.8</ele>
        <time>2024-08-10T09:42:51Z</time>
      </trkpt>
      <trkpt lat="45.04875" lon="6.28985">
        <ele>1842.8</ele>
        <time>2024-08-10T09:42:52Z</time>
      </trkpt>
      <trkpt lat="45.04875" lon="6.28985">
        <ele>1842.8</ele>
        <time>2024-08-10T09:42:53Z</time>
      </trkpt>
      <trkpt lat="45.04875" lon="6.28985">
        <ele>1842.8</ele>
        <time>2024-08-10T09:42:54Z</time>
      </trkpt>
      <trkpt lat="45.04873" lon="6.28985">
        <ele>1843.2</ele>
        <time>2024-08-10T09:42:55Z</time>
      </trkpt>
      <trkpt lat="45.04873" lon="6.28985">
        <ele>1843.2</ele>
        <time>2024-08-10T09:42:56Z</time>
      </trkpt>
      <trkpt lat="45.04873" lon="6.28985">
        <ele>1843.2</ele>
        <time>2024-08-10T09:42:57Z</time>
      </trkpt>
      <trkpt lat="45.04873" lon="6.28985">
        <ele>1843.2</ele>
        <time>2024-08-10T09:42:58Z</time>
      </trkpt>
      <trkpt lat="45.04873" lon="6.28985">
        <ele>1843.2</ele>
        <time>2024-08-10T09:42:59Z</time>
      </trkpt>
      <trkpt lat="45.04873" lon="6.28985">
        <ele>1843</ele>
        <time>2024-08-10T09:43:00Z</time>
      </trkpt>
      <trkpt lat="45.04873" lon="6.28985">
        <ele>1843</ele>
        <time>2024-08-10T09:43:01Z</time>
      </trkpt>
      <trkpt lat="45.04872" lon="6.28989">
        <ele>1843</ele>
        <time>2024-08-10T09:43:02Z</time>
      </trkpt>
      <trkpt lat="45.04872" lon="6.28989">
        <ele>1843.2</ele>
        <time>2024-08-10T09:43:03Z</time>
      </trkpt>
      <trkpt lat="45.04871" lon="6.28992">
        <ele>1843.2</ele>
        <time>2024-08-10T09:43:04Z</time>
      </trkpt>
      <trkpt lat="45.04871" lon="6.28992">
        <ele>1842.8</ele>
        <time>2024-08-10T09:43:05Z</time>
      </trkpt>
      <trkpt lat="45.04869" lon="6.28995">
        <ele>1842.8</ele>
        <time>2024-08-10T09:43:06Z</time>
      </trkpt>
      <trkpt lat="45.04869" lon="6.28995">
        <ele>1842.8</ele>
        <time>2024-08-10T09:43:07Z</time>
      </trkpt>
      <trkpt lat="45.04868" lon="6.28998">
        <ele>1843</ele>
        <time>2024-08-10T09:43:08Z</time>
      </trkpt>
      <trkpt lat="45.04868" lon="6.28998">
        <ele>1843.2</ele>
        <time>2024-08-10T09:43:09Z</time>
      </trkpt>
      <trkpt lat="45.04868" lon="6.29001">
        <ele>1843.2</ele>
        <time>2024-08-10T09:43:10Z</time>
      </trkpt>
      <trkpt lat="45.04868" lon="6.29001">
        <ele>1843.2</ele>
        <time>2024-08-10T09:43:11Z</time>
      </trkpt>
      <trkpt lat="45.04866" lon="6.29005">
        <ele>1843.2</ele>
        <time>2024-08-10T09:43:12Z</time>
      </trkpt>
      <trkpt lat="45.04866" lon="6.29005">
        <ele>1843.2</ele>
        <time>2024-08-10T09:43:13Z</time>
      </trkpt>
      <trkpt lat="45.04865" lon="6.29008">
        <ele>1843.2</ele>
        <time>2024-08-10T09:43:14Z</time>
      </trkpt>
      <trkpt lat="45.04865" lon="6.29008">
        <ele>1843.2</ele>
        <time>2024-08-10T09:43:15Z</time>
      </trkpt>
      <trkpt lat="45.04863" lon="6.29011">
        <ele>1843.2</ele>
        <time>2024-08-10T09:43:16Z</time>
      </trkpt>
      <trkpt lat="45.04863" lon="6.29011">
        <ele>1843</ele>
        <time>2024-08-10T09:43:17Z</time>
      </trkpt>
      <trkpt lat="45.04863" lon="6.29011">
        <ele>1843.2</ele>
        <time>2024-08-10T09:43:18Z</time>
      </trkpt>
      <trkpt lat="45.04863" lon="6.29011">
        <ele>1843.2</ele>
        <time>2024-08-10T09:43:19Z</time>
      </trkpt>
      <trkpt lat="45.04863" lon="6.29011">
        <ele>1843.4</ele>
        <time>2024-08-10T09:43:20Z</time>
      </trkpt>
      <trkpt lat="45.04863" lon="6.29011">
        <ele>1843.8</ele>
        <time>2024-08-10T09:43:21Z</time>
      </trkpt>
      <trkpt lat="45.04863" lon="6.29015">
        <ele>1843.8</ele>
        <time>2024-08-10T09:43:22Z</time>
      </trkpt>
      <trkpt lat="45.04863" lon="6.29015">
        <ele>1843.6</ele>
        <time>2024-08-10T09:43:23Z</time>
      </trkpt>
      <trkpt lat="45.04863" lon="6.29015">
        <ele>1843.6</ele>
        <time>2024-08-10T09:43:24Z</time>
      </trkpt>
      <trkpt lat="45.04863" lon="6.29015">
        <ele>1843.6</ele>
        <time>2024-08-10T09:43:25Z</time>
      </trkpt>
      <trkpt lat="45.04863" lon="6.29015">
        <ele>1843.8</ele>
        <time>2024-08-10T09:43:26Z</time>
      </trkpt>
      <trkpt lat="45.04863" lon="6.29015">
        <ele>1843.8</ele>
        <time>2024-08-10T09:43:27Z</time>
      </trkpt>
      <trkpt lat="45.04863" lon="6.29015">
        <ele>1843.8</ele>
        <time>2024-08-10T09:43:28Z</time>
      </trkpt>
      <trkpt lat="45.04863" lon="6.29015">
        <ele>1843.8</ele>
        <time>2024-08-10T09:43:29Z</time>
      </trkpt>
      <trkpt lat="45.04863" lon="6.29015">
        <ele>1843.6</ele>
        <time>2024-08-10T09:43:30Z</time>
      </trkpt>
      <trkpt lat="45.04863" lon="6.29015">
        <ele>1843.6</ele>
        <time>2024-08-10T09:43:31Z</time>
      </trkpt>
      <trkpt lat="45.04863" lon="6.29015">
        <ele>1843.8</ele>
        <time>2024-08-10T09:43:32Z</time>
      </trkpt>
      <trkpt lat="45.04865" lon="6.29016">
        <ele>1844.2</ele>
        <time>2024-08-10T09:43:33Z</time>
      </trkpt>
      <trkpt lat="45.04865" lon="6.29016">
        <ele>1844.2</ele>
        <time>2024-08-10T09:43:34Z</time>
      </trkpt>
      <trkpt lat="45.04867" lon="6.29017">
        <ele>1843.8</ele>
        <time>2024-08-10T09:43:35Z</time>
      </trkpt>
      <trkpt lat="45.04867" lon="6.29017">
        <ele>1843.8</ele>
        <time>2024-08-10T09:43:36Z</time>
      </trkpt>
      <trkpt lat="45.04867" lon="6.29017">
        <ele>1844.2</ele>
        <time>2024-08-10T09:43:37Z</time>
      </trkpt>
      <trkpt lat="45.04867" lon="6.29017">
        <ele>1844.2</ele>
        <time>2024-08-10T09:43:38Z</time>
      </trkpt>
      <trkpt lat="45.04869" lon="6.29016">
        <ele>1844.6</ele>
        <time>2024-08-10T09:43:39Z</time>
      </trkpt>
      <trkpt lat="45.04869" lon="6.29016">
        <ele>1845</ele>
        <time>2024-08-10T09:43:40Z</time>
      </trkpt>
      <trkpt lat="45.04869" lon="6.29016">
        <ele>1845.2</ele>
        <time>2024-08-10T09:43:41Z</time>
      </trkpt>
      <trkpt lat="45.04869" lon="6.29016">
        <ele>1845.2</ele>
        <time>2024-08-10T09:43:42Z</time>
      </trkpt>
      <trkpt lat="45.04869" lon="6.29016">
        <ele>1845.2</ele>
        <time>2024-08-10T09:43:43Z</time>
      </trkpt>
      <trkpt lat="45.04868" lon="6.29019">
        <ele>1845.2</ele>
        <time>2024-08-10T09:43:44Z</time>
      </trkpt>
      <trkpt lat="45.04868" lon="6.29019">
        <ele>1845</ele>
        <time>2024-08-10T09:43:45Z</time>
      </trkpt>
      <trkpt lat="45.04866" lon="6.29021">
        <ele>1844.8</ele>
        <time>2024-08-10T09:43:46Z</time>
      </trkpt>
      <trkpt lat="45.04866" lon="6.29021">
        <ele>1844.6</ele>
        <time>2024-08-10T09:43:47Z</time>
      </trkpt>
      <trkpt lat="45.04863" lon="6.29023">
        <ele>1844.6</ele>
        <time>2024-08-10T09:43:48Z</time>
      </trkpt>
      <trkpt lat="45.04863" lon="6.29023">
        <ele>1844.6</ele>
        <time>2024-08-10T09:43:49Z</time>
      </trkpt>
      <trkpt lat="45.04861" lon="6.29026">
        <ele>1844.4</ele>
        <time>2024-08-10T09:43:50Z</time>
      </trkpt>
      <trkpt lat="45.04861" lon="6.29026">
        <ele>1844.2</ele>
        <time>2024-08-10T09:43:51Z</time>
      </trkpt>
      <trkpt lat="45.04858" lon="6.29029">
        <ele>1844.2</ele>
        <time>2024-08-10T09:43:52Z</time>
      </trkpt>
      <trkpt lat="45.04858" lon="6.29029">
        <ele>1844.2</ele>
        <time>2024-08-10T09:43:53Z</time>
      </trkpt>
      <trkpt lat="45.04856" lon="6.29031">
        <ele>1844</ele>
        <time>2024-08-10T09:43:54Z</time>
      </trkpt>
      <trkpt lat="45.04856" lon="6.29031">
        <ele>1843.8</ele>
        <time>2024-08-10T09:43:55Z</time>
      </trkpt>
      <trkpt lat="45.04853" lon="6.29035">
        <ele>1843.8</ele>
        <time>2024-08-10T09:43:56Z</time>
      </trkpt>
      <trkpt lat="45.04853" lon="6.29035">
        <ele>1843.8</ele>
        <time>2024-08-10T09:43:57Z</time>
      </trkpt>
      <trkpt lat="45.04851" lon="6.29038">
        <ele>1843.8</ele>
        <time>2024-08-10T09:43:58Z</time>
      </trkpt>
      <trkpt lat="45.04851" lon="6.29038">
        <ele>1843.6</ele>
        <time>2024-08-10T09:43:59Z</time>
      </trkpt>
      <trkpt lat="45.04849" lon="6.29041">
        <ele>1843.6</ele>
        <time>2024-08-10T09:44:00Z</time>
      </trkpt>
      <trkpt lat="45.04849" lon="6.29041">
        <ele>1843.4</ele>
        <time>2024-08-10T09:44:01Z</time>
      </trkpt>
      <trkpt lat="45.04847" lon="6.29045">
        <ele>1843.4</ele>
        <time>2024-08-10T09:44:02Z</time>
      </trkpt>
      <trkpt lat="45.04847" lon="6.29045">
        <ele>1843.4</ele>
        <time>2024-08-10T09:44:03Z</time>
      </trkpt>
      <trkpt lat="45.04847" lon="6.29049">
        <ele>1843.4</ele>
        <time>2024-08-10T09:44:04Z</time>
      </trkpt>
      <trkpt lat="45.04847" lon="6.29049">
        <ele>1843.4</ele>
        <time>2024-08-10T09:44:05Z</time>
      </trkpt>
      <trkpt lat="45.04845" lon="6.29052">
        <ele>1843.4</ele>
        <time>2024-08-10T09:44:06Z</time>
      </trkpt>
      <trkpt lat="45.04845" lon="6.29052">
        <ele>1843.2</ele>
        <time>2024-08-10T09:44:07Z</time>
      </trkpt>
      <trkpt lat="45.04845" lon="6.29056">
        <ele>1843</ele>
        <time>2024-08-10T09:44:08Z</time>
      </trkpt>
      <trkpt lat="45.04845" lon="6.29056">
        <ele>1843</ele>
        <time>2024-08-10T09:44:09Z</time>
      </trkpt>
      <trkpt lat="45.04844" lon="6.29059">
        <ele>1843</ele>
        <time>2024-08-10T09:44:10Z</time>
      </trkpt>
      <trkpt lat="45.04844" lon="6.29059">
        <ele>1843</ele>
        <time>2024-08-10T09:44:11Z</time>
      </trkpt>
      <trkpt lat="45.04844" lon="6.29063">
        <ele>1842.8</ele>
        <time>2024-08-10T09:44:12Z</time>
      </trkpt>
      <trkpt lat="45.04844" lon="6.29063">
        <ele>1842.6</ele>
        <time>2024-08-10T09:44:13Z</time>
      </trkpt>
      <trkpt lat="45.04843" lon="6.29066">
        <ele>1842.4</ele>
        <time>2024-08-10T09:44:14Z</time>
      </trkpt>
      <trkpt lat="45.04843" lon="6.29066">
        <ele>1842</ele>
        <time>2024-08-10T09:44:15Z</time>
      </trkpt>
      <trkpt lat="45.04842" lon="6.29068">
        <ele>1842</ele>
        <time>2024-08-10T09:44:16Z</time>
      </trkpt>
      <trkpt lat="45.04842" lon="6.29068">
        <ele>1841.8</ele>
        <time>2024-08-10T09:44:17Z</time>
      </trkpt>
      <trkpt lat="45.04842" lon="6.29068">
        <ele>1841.8</ele>
        <time>2024-08-10T09:44:18Z</time>
      </trkpt>
      <trkpt lat="45.0484" lon="6.29067">
        <ele>1841.4</ele>
        <time>2024-08-10T09:44:19Z</time>
      </trkpt>
      <trkpt lat="45.0484" lon="6.29067">
        <ele>1841.4</ele>
        <time>2024-08-10T09:44:20Z</time>
      </trkpt>
      <trkpt lat="45.0484" lon="6.29067">
        <ele>1841.2</ele>
        <time>2024-08-10T09:44:21Z</time>
      </trkpt>
      <trkpt lat="45.0484" lon="6.29067">
        <ele>1841.2</ele>
        <time>2024-08-10T09:44:22Z</time>
      </trkpt>
      <trkpt lat="45.0484" lon="6.29067">
        <ele>1841.2</ele>
        <time>2024-08-10T09:44:23Z</time>
      </trkpt>
      <trkpt lat="45.0484" lon="6.29067">
        <ele>1841.8</ele>
        <time>2024-08-10T09:44:24Z</time>
      </trkpt>
      <trkpt lat="45.0484" lon="6.29067">
        <ele>1841.8</ele>
        <time>2024-08-10T09:44:25Z</time>
      </trkpt>
      <trkpt lat="45.0484" lon="6.29067">
        <ele>1842</ele>
        <time>2024-08-10T09:44:26Z</time>
      </trkpt>
      <trkpt lat="45.0484" lon="6.29067">
        <ele>1842</ele>
        <time>2024-08-10T09:44:27Z</time>
      </trkpt>
      <trkpt lat="45.0484" lon="6.29067">
        <ele>1842</ele>
        <time>2024-08-10T09:44:28Z</time>
      </trkpt>
      <trkpt lat="45.0484" lon="6.29067">
        <ele>1842</ele>
        <time>2024-08-10T09:44:29Z</time>
      </trkpt>
      <trkpt lat="45.0484" lon="6.29067">
        <ele>1842.2</ele>
        <time>2024-08-10T09:44:30Z</time>
      </trkpt>
      <trkpt lat="45.0484" lon="6.29067">
        <ele>1842.2</ele>
        <time>2024-08-10T09:44:31Z</time>
      </trkpt>
      <trkpt lat="45.0484" lon="6.29067">
        <ele>1842.6</ele>
        <time>2024-08-10T09:44:32Z</time>
      </trkpt>
      <trkpt lat="45.0484" lon="6.29067">
        <ele>1842.6</ele>
        <time>2024-08-10T09:44:33Z</time>
      </trkpt>
      <trkpt lat="45.0484" lon="6.29067">
        <ele>1842.6</ele>
        <time>2024-08-10T09:44:34Z</time>
      </trkpt>
      <trkpt lat="45.0484" lon="6.29067">
        <ele>1842.6</ele>
        <time>2024-08-10T09:44:35Z</time>
      </trkpt>
      <trkpt lat="45.0484" lon="6.29067">
        <ele>1842.6</ele>
        <time>2024-08-10T09:44:36Z</time>
      </trkpt>
      <trkpt lat="45.0484" lon="6.29067">
        <ele>1842.6</ele>
        <time>2024-08-10T09:44:37Z</time>
      </trkpt>
      <trkpt lat="45.0484" lon="6.29067">
        <ele>1842.4</ele>
        <time>2024-08-10T09:44:38Z</time>
      </trkpt>
      <trkpt lat="45.0484" lon="6.29067">
        <ele>1842.2</ele>
        <time>2024-08-10T09:44:39Z</time>
      </trkpt>
      <trkpt lat="45.0484" lon="6.29067">
        <ele>1842.2</ele>
        <time>2024-08-10T09:44:40Z</time>
      </trkpt>
      <trkpt lat="45.0484" lon="6.29067">
        <ele>1842.2</ele>
        <time>2024-08-10T09:44:41Z</time>
      </trkpt>
      <trkpt lat="45.0484" lon="6.29067">
        <ele>1842.2</ele>
        <time>2024-08-10T09:44:42Z</time>
      </trkpt>
      <trkpt lat="45.0484" lon="6.29067">
        <ele>1842.4</ele>
        <time>2024-08-10T09:44:43Z</time>
      </trkpt>
      <trkpt lat="45.0484" lon="6.29067">
        <ele>1842.4</ele>
        <time>2024-08-10T09:44:44Z</time>
      </trkpt>
      <trkpt lat="45.0484" lon="6.29067">
        <ele>1842.2</ele>
        <time>2024-08-10T09:44:45Z</time>
      </trkpt>
      <trkpt lat="45.0484" lon="6.29067">
        <ele>1842.2</ele>
        <time>2024-08-10T09:44:46Z</time>
      </trkpt>
      <trkpt lat="45.0484" lon="6.29067">
        <ele>1842.2</ele>
        <time>2024-08-10T09:44:47Z</time>
      </trkpt>
      <trkpt lat="45.0484" lon="6.29067">
        <ele>1842.4</ele>
        <time>2024-08-10T09:44:48Z</time>
      </trkpt>
      <trkpt lat="45.0484" lon="6.29067">
        <ele>1842.4</ele>
        <time>2024-08-10T09:44:49Z</time>
      </trkpt>
      <trkpt lat="45.0484" lon="6.29067">
        <ele>1842.6</ele>
        <time>2024-08-10T09:44:50Z</time>
      </trkpt>
      <trkpt lat="45.0484" lon="6.29067">
        <ele>1842.6</ele>
        <time>2024-08-10T09:44:51Z</time>
      </trkpt>
      <trkpt lat="45.0484" lon="6.29067">
        <ele>1842.6</ele>
        <time>2024-08-10T09:44:52Z</time>
      </trkpt>
      <trkpt lat="45.0484" lon="6.29067">
        <ele>1842.6</ele>
        <time>2024-08-10T09:44:53Z</time>
      </trkpt>
      <trkpt lat="45.0484" lon="6.29067">
        <ele>1842.4</ele>
        <time>2024-08-10T09:44:54Z</time>
      </trkpt>
      <trkpt lat="45.0484" lon="6.29067">
        <ele>1842.4</ele>
        <time>2024-08-10T09:44:55Z</time>
      </trkpt>
      <trkpt lat="45.0484" lon="6.29067">
        <ele>1842.4</ele>
        <time>2024-08-10T09:44:56Z</time>
      </trkpt>
      <trkpt lat="45.0484" lon="6.29067">
        <ele>1842.6</ele>
        <time>2024-08-10T09:44:57Z</time>
      </trkpt>
      <trkpt lat="45.0484" lon="6.29067">
        <ele>1842.6</ele>
        <time>2024-08-10T09:44:58Z</time>
      </trkpt>
      <trkpt lat="45.0484" lon="6.29067">
        <ele>1843</ele>
        <time>2024-08-10T09:44:59Z</time>
      </trkpt>
      <trkpt lat="45.0484" lon="6.29067">
        <ele>1843.2</ele>
        <time>2024-08-10T09:45:00Z</time>
      </trkpt>
      <trkpt lat="45.0484" lon="6.29067">
        <ele>1843.2</ele>
        <time>2024-08-10T09:45:01Z</time>
      </trkpt>
      <trkpt lat="45.0484" lon="6.29067">
        <ele>1843.4</ele>
        <time>2024-08-10T09:45:02Z</time>
      </trkpt>
      <trkpt lat="45.0484" lon="6.29067">
        <ele>1842.8</ele>
        <time>2024-08-10T09:45:03Z</time>
      </trkpt>
      <trkpt lat="45.0484" lon="6.29067">
        <ele>1842.8</ele>
        <time>2024-08-10T09:45:04Z</time>
      </trkpt>
      <trkpt lat="45.0484" lon="6.29067">
        <ele>1842.6</ele>
        <time>2024-08-10T09:45:05Z</time>
      </trkpt>
      <trkpt lat="45.0484" lon="6.29067">
        <ele>1842.6</ele>
        <time>2024-08-10T09:45:06Z</time>
      </trkpt>
      <trkpt lat="45.04841" lon="6.29068">
        <ele>1842.8</ele>
        <time>2024-08-10T09:45:07Z</time>
      </trkpt>
      <trkpt lat="45.04841" lon="6.29068">
        <ele>1842.8</ele>
        <time>2024-08-10T09:45:08Z</time>
      </trkpt>
      <trkpt lat="45.04841" lon="6.29068">
        <ele>1842.8</ele>
        <time>2024-08-10T09:45:09Z</time>
      </trkpt>
      <trkpt lat="45.04841" lon="6.29068">
        <ele>1842.6</ele>
        <time>2024-08-10T09:45:10Z</time>
      </trkpt>
      <trkpt lat="45.04841" lon="6.29068">
        <ele>1842.6</ele>
        <time>2024-08-10T09:45:11Z</time>
      </trkpt>
      <trkpt lat="45.04841" lon="6.29068">
        <ele>1842.4</ele>
        <time>2024-08-10T09:45:12Z</time>
      </trkpt>
      <trkpt lat="45.04841" lon="6.29068">
        <ele>1842.2</ele>
        <time>2024-08-10T09:45:13Z</time>
      </trkpt>
      <trkpt lat="45.04841" lon="6.29068">
        <ele>1842.2</ele>
        <time>2024-08-10T09:45:14Z</time>
      </trkpt>
      <trkpt lat="45.04841" lon="6.29068">
        <ele>1842</ele>
        <time>2024-08-10T09:45:15Z</time>
      </trkpt>
      <trkpt lat="45.04841" lon="6.29068">
        <ele>1842</ele>
        <time>2024-08-10T09:45:16Z</time>
      </trkpt>
      <trkpt lat="45.04841" lon="6.29068">
        <ele>1842</ele>
        <time>2024-08-10T09:45:17Z</time>
      </trkpt>
      <trkpt lat="45.04841" lon="6.29068">
        <ele>1842.2</ele>
        <time>2024-08-10T09:45:18Z</time>
      </trkpt>
      <trkpt lat="45.04841" lon="6.29068">
        <ele>1842.2</ele>
        <time>2024-08-10T09:45:19Z</time>
      </trkpt>
      <trkpt lat="45.04841" lon="6.29068">
        <ele>1842.2</ele>
        <time>2024-08-10T09:45:20Z</time>
      </trkpt>
      <trkpt lat="45.04841" lon="6.29068">
        <ele>1842.2</ele>
        <time>2024-08-10T09:45:21Z</time>
      </trkpt>
      <trkpt lat="45.04841" lon="6.29068">
        <ele>1842.2</ele>
        <time>2024-08-10T09:45:22Z</time>
      </trkpt>
      <trkpt lat="45.04841" lon="6.29068">
        <ele>1842.2</ele>
        <time>2024-08-10T09:45:23Z</time>
      </trkpt>
      <trkpt lat="45.04841" lon="6.29068">
        <ele>1842.2</ele>
        <time>2024-08-10T09:45:24Z</time>
      </trkpt>
      <trkpt lat="45.04841" lon="6.29068">
        <ele>1842.2</ele>
        <time>2024-08-10T09:45:25Z</time>
      </trkpt>
      <trkpt lat="45.04841" lon="6.29068">
        <ele>1842.2</ele>
        <time>2024-08-10T09:45:26Z</time>
      </trkpt>
      <trkpt lat="45.04841" lon="6.29068">
        <ele>1842.2</ele>
        <time>2024-08-10T09:45:27Z</time>
      </trkpt>
      <trkpt lat="45.04841" lon="6.29068">
        <ele>1842</ele>
        <time>2024-08-10T09:45:28Z</time>
      </trkpt>
      <trkpt lat="45.04841" lon="6.29068">
        <ele>1842</ele>
        <time>2024-08-10T09:45:29Z</time>
      </trkpt>
      <trkpt lat="45.04841" lon="6.29068">
        <ele>1842</ele>
        <time>2024-08-10T09:45:30Z</time>
      </trkpt>
      <trkpt lat="45.04841" lon="6.29068">
        <ele>1842</ele>
        <time>2024-08-10T09:45:31Z</time>
      </trkpt>
      <trkpt lat="45.04841" lon="6.29068">
        <ele>1842</ele>
        <time>2024-08-10T09:45:32Z</time>
      </trkpt>
      <trkpt lat="45.04841" lon="6.29068">
        <ele>1842</ele>
        <time>2024-08-10T09:45:33Z</time>
      </trkpt>
      <trkpt lat="45.04841" lon="6.29068">
        <ele>1841.8</ele>
        <time>2024-08-10T09:45:34Z</time>
      </trkpt>
      <trkpt lat="45.04841" lon="6.29068">
        <ele>1841.8</ele>
        <time>2024-08-10T09:45:35Z</time>
      </trkpt>
      <trkpt lat="45.04841" lon="6.29068">
        <ele>1841.6</ele>
        <time>2024-08-10T09:45:36Z</time>
      </trkpt>
      <trkpt lat="45.04841" lon="6.29068">
        <ele>1841.8</ele>
        <time>2024-08-10T09:45:37Z</time>
      </trkpt>
      <trkpt lat="45.04841" lon="6.29068">
        <ele>1842</ele>
        <time>2024-08-10T09:45:38Z</time>
      </trkpt>
      <trkpt lat="45.04841" lon="6.29068">
        <ele>1842</ele>
        <time>2024-08-10T09:45:39Z</time>
      </trkpt>
      <trkpt lat="45.04841" lon="6.29068">
        <ele>1842</ele>
        <time>2024-08-10T09:45:40Z</time>
      </trkpt>
      <trkpt lat="45.04841" lon="6.29068">
        <ele>1842</ele>
        <time>2024-08-10T09:45:41Z</time>
      </trkpt>
      <trkpt lat="45.04841" lon="6.29068">
        <ele>1842</ele>
        <time>2024-08-10T09:45:42Z</time>
      </trkpt>
      <trkpt lat="45.04841" lon="6.29068">
        <ele>1842</ele>
        <time>2024-08-10T09:45:43Z</time>
      </trkpt>
      <trkpt lat="45.04841" lon="6.29068">
        <ele>1842.2</ele>
        <time>2024-08-10T09:45:44Z</time>
      </trkpt>
      <trkpt lat="45.04841" lon="6.29068">
        <ele>1842.2</ele>
        <time>2024-08-10T09:45:45Z</time>
      </trkpt>
      <trkpt lat="45.04841" lon="6.29068">
        <ele>1842.2</ele>
        <time>2024-08-10T09:45:46Z</time>
      </trkpt>
      <trkpt lat="45.04841" lon="6.29068">
        <ele>1842.2</ele>
        <time>2024-08-10T09:45:47Z</time>
      </trkpt>
      <trkpt lat="45.04841" lon="6.29068">
        <ele>1842.2</ele>
        <time>2024-08-10T09:45:48Z</time>
      </trkpt>
      <trkpt lat="45.04841" lon="6.29068">
        <ele>1842.2</ele>
        <time>2024-08-10T09:45:49Z</time>
      </trkpt>
      <trkpt lat="45.04841" lon="6.29068">
        <ele>1842.2</ele>
        <time>2024-08-10T09:45:50Z</time>
      </trkpt>
      <trkpt lat="45.04841" lon="6.29068">
        <ele>1842.2</ele>
        <time>2024-08-10T09:45:51Z</time>
      </trkpt>
      <trkpt lat="45.04841" lon="6.29068">
        <ele>1842.4</ele>
        <time>2024-08-10T09:45:52Z</time>
      </trkpt>
      <trkpt lat="45.04841" lon="6.29068">
        <ele>1842.8</ele>
        <time>2024-08-10T09:45:53Z</time>
      </trkpt>
      <trkpt lat="45.04841" lon="6.29068">
        <ele>1843</ele>
        <time>2024-08-10T09:45:54Z</time>
      </trkpt>
      <trkpt lat="45.04841" lon="6.29068">
        <ele>1843.2</ele>
        <time>2024-08-10T09:45:55Z</time>
      </trkpt>
      <trkpt lat="45.04841" lon="6.29068">
        <ele>1843.2</ele>
        <time>2024-08-10T09:45:56Z</time>
      </trkpt>
      <trkpt lat="45.04841" lon="6.29068">
        <ele>1843</ele>
        <time>2024-08-10T09:45:57Z</time>
      </trkpt>
      <trkpt lat="45.04841" lon="6.29068">
        <ele>1843</ele>
        <time>2024-08-10T09:45:58Z</time>
      </trkpt>
      <trkpt lat="45.04841" lon="6.29068">
        <ele>1843</ele>
        <time>2024-08-10T09:45:59Z</time>
      </trkpt>
      <trkpt lat="45.04841" lon="6.29068">
        <ele>1843</ele>
        <time>2024-08-10T09:46:00Z</time>
      </trkpt>
      <trkpt lat="45.04841" lon="6.29068">
        <ele>1842.8</ele>
        <time>2024-08-10T09:46:01Z</time>
      </trkpt>
      <trkpt lat="45.04841" lon="6.29068">
        <ele>1843</ele>
        <time>2024-08-10T09:46:02Z</time>
      </trkpt>
      <trkpt lat="45.04841" lon="6.29068">
        <ele>1843</ele>
        <time>2024-08-10T09:46:03Z</time>
      </trkpt>
      <trkpt lat="45.04841" lon="6.29068">
        <ele>1843.2</ele>
        <time>2024-08-10T09:46:04Z</time>
      </trkpt>
      <trkpt lat="45.04841" lon="6.29068">
        <ele>1843.2</ele>
        <time>2024-08-10T09:46:05Z</time>
      </trkpt>
      <trkpt lat="45.04841" lon="6.29068">
        <ele>1843.2</ele>
        <time>2024-08-10T09:46:06Z</time>
      </trkpt>
      <trkpt lat="45.04841" lon="6.29068">
        <ele>1843.2</ele>
        <time>2024-08-10T09:46:07Z</time>
      </trkpt>
      <trkpt lat="45.04841" lon="6.29068">
        <ele>1843.2</ele>
        <time>2024-08-10T09:46:08Z</time>
      </trkpt>
      <trkpt lat="45.04841" lon="6.29068">
        <ele>1843.2</ele>
        <time>2024-08-10T09:46:09Z</time>
      </trkpt>
      <trkpt lat="45.04841" lon="6.29068">
        <ele>1843.2</ele>
        <time>2024-08-10T09:46:10Z</time>
      </trkpt>
      <trkpt lat="45.04841" lon="6.29068">
        <ele>1843</ele>
        <time>2024-08-10T09:46:11Z</time>
      </trkpt>
      <trkpt lat="45.04841" lon="6.29068">
        <ele>1842.8</ele>
        <time>2024-08-10T09:46:12Z</time>
      </trkpt>
      <trkpt lat="45.04841" lon="6.29068">
        <ele>1842.8</ele>
        <time>2024-08-10T09:46:13Z</time>
      </trkpt>
      <trkpt lat="45.04841" lon="6.29068">
        <ele>1842.6</ele>
        <time>2024-08-10T09:46:14Z</time>
      </trkpt>
      <trkpt lat="45.04841" lon="6.29068">
        <ele>1842.6</ele>
        <time>2024-08-10T09:46:15Z</time>
      </trkpt>
      <trkpt lat="45.04839" lon="6.29066">
        <ele>1842.6</ele>
        <time>2024-08-10T09:46:16Z</time>
      </trkpt>
      <trkpt lat="45.04839" lon="6.29066">
        <ele>1842.8</ele>
        <time>2024-08-10T09:46:17Z</time>
      </trkpt>
      <trkpt lat="45.04839" lon="6.29066">
        <ele>1843</ele>
        <time>2024-08-10T09:46:18Z</time>
      </trkpt>
      <trkpt lat="45.04838" lon="6.29065">
        <ele>1843</ele>
        <time>2024-08-10T09:46:19Z</time>
      </trkpt>
      <trkpt lat="45.04838" lon="6.29065">
        <ele>1843</ele>
        <time>2024-08-10T09:46:20Z</time>
      </trkpt>
      <trkpt lat="45.04838" lon="6.29065">
        <ele>1842.8</ele>
        <time>2024-08-10T09:46:21Z</time>
      </trkpt>
      <trkpt lat="45.04838" lon="6.29065">
        <ele>1842.8</ele>
        <time>2024-08-10T09:46:22Z</time>
      </trkpt>
      <trkpt lat="45.0484" lon="6.29066">
        <ele>1842.6</ele>
        <time>2024-08-10T09:46:23Z</time>
      </trkpt>
      <trkpt lat="45.0484" lon="6.29066">
        <ele>1842.6</ele>
        <time>2024-08-10T09:46:24Z</time>
      </trkpt>
      <trkpt lat="45.0484" lon="6.29066">
        <ele>1842.4</ele>
        <time>2024-08-10T09:46:25Z</time>
      </trkpt>
      <trkpt lat="45.0484" lon="6.29066">
        <ele>1842.4</ele>
        <time>2024-08-10T09:46:26Z</time>
      </trkpt>
      <trkpt lat="45.0484" lon="6.29066">
        <ele>1842.6</ele>
        <time>2024-08-10T09:46:27Z</time>
      </trkpt>
      <trkpt lat="45.04842" lon="6.29067">
        <ele>1842.6</ele>
        <time>2024-08-10T09:46:28Z</time>
      </trkpt>
      <trkpt lat="45.04842" lon="6.29067">
        <ele>1842.6</ele>
        <time>2024-08-10T09:46:29Z</time>
      </trkpt>
      <trkpt lat="45.04842" lon="6.29067">
        <ele>1842.6</ele>
        <time>2024-08-10T09:46:30Z</time>
      </trkpt>
      <trkpt lat="45.04842" lon="6.29067">
        <ele>1842.6</ele>
        <time>2024-08-10T09:46:31Z</time>
      </trkpt>
      <trkpt lat="45.04842" lon="6.2907">
        <ele>1842.8</ele>
        <time>2024-08-10T09:46:32Z</time>
      </trkpt>
      <trkpt lat="45.04842" lon="6.2907">
        <ele>1842.8</ele>
        <time>2024-08-10T09:46:33Z</time>
      </trkpt>
      <trkpt lat="45.04842" lon="6.29073">
        <ele>1842.6</ele>
        <time>2024-08-10T09:46:34Z</time>
      </trkpt>
      <trkpt lat="45.04842" lon="6.29073">
        <ele>1842.4</ele>
        <time>2024-08-10T09:46:35Z</time>
      </trkpt>
      <trkpt lat="45.0484" lon="6.29076">
        <ele>1842.2</ele>
        <time>2024-08-10T09:46:36Z</time>
      </trkpt>
      <trkpt lat="45.0484" lon="6.29076">
        <ele>1842</ele>
        <time>2024-08-10T09:46:37Z</time>
      </trkpt>
      <trkpt lat="45.04839" lon="6.29078">
        <ele>1841.4</ele>
        <time>2024-08-10T09:46:38Z</time>
      </trkpt>
      <trkpt lat="45.04839" lon="6.29078">
        <ele>1841.4</ele>
        <time>2024-08-10T09:46:39Z</time>
      </trkpt>
      <trkpt lat="45.04837" lon="6.2908">
        <ele>1841.2</ele>
        <time>2024-08-10T09:46:40Z</time>
      </trkpt>
      <trkpt lat="45.04837" lon="6.2908">
        <ele>1841</ele>
        <time>2024-08-10T09:46:41Z</time>
      </trkpt>
      <trkpt lat="45.04836" lon="6.29083">
        <ele>1840.8</ele>
        <time>2024-08-10T09:46:42Z</time>
      </trkpt>
      <trkpt lat="45.04836" lon="6.29083">
        <ele>1840.8</ele>
        <time>2024-08-10T09:46:43Z</time>
      </trkpt>
      <trkpt lat="45.04834" lon="6.29085">
        <ele>1840.6</ele>
        <time>2024-08-10T09:46:44Z</time>
      </trkpt>
      <trkpt lat="45.04834" lon="6.29085">
        <ele>1840.6</ele>
        <time>2024-08-10T09:46:45Z</time>
      </trkpt>
      <trkpt lat="45.04832" lon="6.29088">
        <ele>1840.6</ele>
        <time>2024-08-10T09:46:46Z</time>
      </trkpt>
      <trkpt lat="45.04832" lon="6.29088">
        <ele>1840.2</ele>
        <time>2024-08-10T09:46:47Z</time>
      </trkpt>
      <trkpt lat="45.04832" lon="6.29091">
        <ele>1840</ele>
        <time>2024-08-10T09:46:48Z</time>
      </trkpt>
      <trkpt lat="45.04832" lon="6.29091">
        <ele>1839.8</ele>
        <time>2024-08-10T09:46:49Z</time>
      </trkpt>
      <trkpt lat="45.04831" lon="6.29094">
        <ele>1839.6</ele>
        <time>2024-08-10T09:46:50Z</time>
      </trkpt>
      <trkpt lat="45.04831" lon="6.29094">
        <ele>1839.4</ele>
        <time>2024-08-10T09:46:51Z</time>
      </trkpt>
      <trkpt lat="45.0483" lon="6.29098">
        <ele>1839.4</ele>
        <time>2024-08-10T09:46:52Z</time>
      </trkpt>
      <trkpt lat="45.0483" lon="6.29098">
        <ele>1839</ele>
        <time>2024-08-10T09:46:53Z</time>
      </trkpt>
      <trkpt lat="45.0483" lon="6.29101">
        <ele>1838.8</ele>
        <time>2024-08-10T09:46:54Z</time>
      </trkpt>
      <trkpt lat="45.0483" lon="6.29101">
        <ele>1838.6</ele>
        <time>2024-08-10T09:46:55Z</time>
      </trkpt>
      <trkpt lat="45.0483" lon="6.29104">
        <ele>1838.4</ele>
        <time>2024-08-10T09:46:56Z</time>
      </trkpt>
      <trkpt lat="45.0483" lon="6.29104">
        <ele>1838.4</ele>
        <time>2024-08-10T09:46:57Z</time>
      </trkpt>
      <trkpt lat="45.0483" lon="6.29108">
        <ele>1838</ele>
        <time>2024-08-10T09:46:58Z</time>
      </trkpt>
      <trkpt lat="45.0483" lon="6.29108">
        <ele>1837.8</ele>
        <time>2024-08-10T09:46:59Z</time>
      </trkpt>
      <trkpt lat="45.0483" lon="6.29112">
        <ele>1837.6</ele>
        <time>2024-08-10T09:47:00Z</time>
      </trkpt>
      <trkpt lat="45.0483" lon="6.29112">
        <ele>1837.2</ele>
        <time>2024-08-10T09:47:01Z</time>
      </trkpt>
      <trkpt lat="45.0483" lon="6.29115">
        <ele>1836.8</ele>
        <time>2024-08-10T09:47:02Z</time>
      </trkpt>
      <trkpt lat="45.0483" lon="6.29115">
        <ele>1836.6</ele>
        <time>2024-08-10T09:47:03Z</time>
      </trkpt>
      <trkpt lat="45.0483" lon="6.29119">
        <ele>1836.6</ele>
        <time>2024-08-10T09:47:04Z</time>
      </trkpt>
      <trkpt lat="45.0483" lon="6.29119">
        <ele>1836.2</ele>
        <time>2024-08-10T09:47:05Z</time>
      </trkpt>
      <trkpt lat="45.04831" lon="6.29122">
        <ele>1836.2</ele>
        <time>2024-08-10T09:47:06Z</time>
      </trkpt>
      <trkpt lat="45.04831" lon="6.29122">
        <ele>1835.8</ele>
        <time>2024-08-10T09:47:07Z</time>
      </trkpt>
      <trkpt lat="45.04831" lon="6.29126">
        <ele>1835.4</ele>
        <time>2024-08-10T09:47:08Z</time>
      </trkpt>
      <trkpt lat="45.04831" lon="6.29126">
        <ele>1835.2</ele>
        <time>2024-08-10T09:47:09Z</time>
      </trkpt>
      <trkpt lat="45.04831" lon="6.2913">
        <ele>1835</ele>
        <time>2024-08-10T09:47:10Z</time>
      </trkpt>
      <trkpt lat="45.04831" lon="6.2913">
        <ele>1834.8</ele>
        <time>2024-08-10T09:47:11Z</time>
      </trkpt>
      <trkpt lat="45.04831" lon="6.29133">
        <ele>1834.8</ele>
        <time>2024-08-10T09:47:12Z</time>
      </trkpt>
      <trkpt lat="45.04831" lon="6.29133">
        <ele>1834.4</ele>
        <time>2024-08-10T09:47:13Z</time>
      </trkpt>
      <trkpt lat="45.04832" lon="6.29137">
        <ele>1834</ele>
        <time>2024-08-10T09:47:14Z</time>
      </trkpt>
      <trkpt lat="45.04832" lon="6.29137">
        <ele>1833.8</ele>
        <time>2024-08-10T09:47:15Z</time>
      </trkpt>
      <trkpt lat="45.04834" lon="6.2914">
        <ele>1833.8</ele>
        <time>2024-08-10T09:47:16Z</time>
      </trkpt>
      <trkpt lat="45.04834" lon="6.2914">
        <ele>1834</ele>
        <time>2024-08-10T09:47:17Z</time>
      </trkpt>
      <trkpt lat="45.04834" lon="6.29143">
        <ele>1834</ele>
        <time>2024-08-10T09:47:18Z</time>
      </trkpt>
      <trkpt lat="45.04834" lon="6.29143">
        <ele>1833.8</ele>
        <time>2024-08-10T09:47:19Z</time>
      </trkpt>
      <trkpt lat="45.04836" lon="6.29146">
        <ele>1833.4</ele>
        <time>2024-08-10T09:47:20Z</time>
      </trkpt>
      <trkpt lat="45.04836" lon="6.29146">
        <ele>1833</ele>
        <time>2024-08-10T09:47:21Z</time>
      </trkpt>
      <trkpt lat="45.04837" lon="6.2915">
        <ele>1832.8</ele>
        <time>2024-08-10T09:47:22Z</time>
      </trkpt>
      <trkpt lat="45.04837" lon="6.2915">
        <ele>1832.4</ele>
        <time>2024-08-10T09:47:23Z</time>
      </trkpt>
      <trkpt lat="45.04838" lon="6.29153">
        <ele>1832</ele>
        <time>2024-08-10T09:47:24Z</time>
      </trkpt>
      <trkpt lat="45.04838" lon="6.29153">
        <ele>1831.6</ele>
        <time>2024-08-10T09:47:25Z</time>
      </trkpt>
      <trkpt lat="45.04839" lon="6.29157">
        <ele>1831.2</ele>
        <time>2024-08-10T09:47:26Z</time>
      </trkpt>
      <trkpt lat="45.04839" lon="6.29157">
        <ele>1831.2</ele>
        <time>2024-08-10T09:47:27Z</time>
      </trkpt>
      <trkpt lat="45.0484" lon="6.2916">
        <ele>1831</ele>
        <time>2024-08-10T09:47:28Z</time>
      </trkpt>
      <trkpt lat="45.0484" lon="6.2916">
        <ele>1830.6</ele>
        <time>2024-08-10T09:47:29Z</time>
      </trkpt>
      <trkpt lat="45.04842" lon="6.29164">
        <ele>1830.6</ele>
        <time>2024-08-10T09:47:30Z</time>
      </trkpt>
      <trkpt lat="45.04842" lon="6.29164">
        <ele>1830.4</ele>
        <time>2024-08-10T09:47:31Z</time>
      </trkpt>
      <trkpt lat="45.04842" lon="6.29167">
        <ele>1830</ele>
        <time>2024-08-10T09:47:32Z</time>
      </trkpt>
      <trkpt lat="45.04842" lon="6.29167">
        <ele>1829.6</ele>
        <time>2024-08-10T09:47:33Z</time>
      </trkpt>
      <trkpt lat="45.04844" lon="6.2917">
        <ele>1829.2</ele>
        <time>2024-08-10T09:47:34Z</time>
      </trkpt>
      <trkpt lat="45.04844" lon="6.2917">
        <ele>1828.2</ele>
        <time>2024-08-10T09:47:35Z</time>
      </trkpt>
      <trkpt lat="45.04844" lon="6.29173">
        <ele>1827.8</ele>
        <time>2024-08-10T09:47:36Z</time>
      </trkpt>
      <trkpt lat="45.04844" lon="6.29173">
        <ele>1827.4</ele>
        <time>2024-08-10T09:47:37Z</time>
      </trkpt>
      <trkpt lat="45.04846" lon="6.29175">
        <ele>1827.2</ele>
        <time>2024-08-10T09:47:38Z</time>
      </trkpt>
      <trkpt lat="45.04846" lon="6.29175">
        <ele>1827</ele>
        <time>2024-08-10T09:47:39Z</time>
      </trkpt>
      <trkpt lat="45.04847" lon="6.29178">
        <ele>1826.6</ele>
        <time>2024-08-10T09:47:40Z</time>
      </trkpt>
      <trkpt lat="45.04847" lon="6.29178">
        <ele>1826.2</ele>
        <time>2024-08-10T09:47:41Z</time>
      </trkpt>
      <trkpt lat="45.04849" lon="6.29181">
        <ele>1826</ele>
        <time>2024-08-10T09:47:42Z</time>
      </trkpt>
      <trkpt lat="45.04849" lon="6.29181">
        <ele>1825.8</ele>
        <time>2024-08-10T09:47:43Z</time>
      </trkpt>
      <trkpt lat="45.04849" lon="6.29184">
        <ele>1825.6</ele>
        <time>2024-08-10T09:47:44Z</time>
      </trkpt>
      <trkpt lat="45.04849" lon="6.29184">
        <ele>1825.2</ele>
        <time>2024-08-10T09:47:45Z</time>
      </trkpt>
      <trkpt lat="45.04849" lon="6.29188">
        <ele>1825</ele>
        <time>2024-08-10T09:47:46Z</time>
      </trkpt>
      <trkpt lat="45.04849" lon="6.29188">
        <ele>1824.8</ele>
        <time>2024-08-10T09:47:47Z</time>
      </trkpt>
      <trkpt lat="45.04849" lon="6.29191">
        <ele>1824.6</ele>
        <time>2024-08-10T09:47:48Z</time>
      </trkpt>
      <trkpt lat="45.04849" lon="6.29191">
        <ele>1824.2</ele>
        <time>2024-08-10T09:47:49Z</time>
      </trkpt>
      <trkpt lat="45.04849" lon="6.29194">
        <ele>1824</ele>
        <time>2024-08-10T09:47:50Z</time>
      </trkpt>
      <trkpt lat="45.04849" lon="6.29194">
        <ele>1824</ele>
        <time>2024-08-10T09:47:51Z</time>
      </trkpt>
      <trkpt lat="45.04849" lon="6.29194">
        <ele>1824.2</ele>
        <time>2024-08-10T09:47:52Z</time>
      </trkpt>
      <trkpt lat="45.04849" lon="6.29198">
        <ele>1824.2</ele>
        <time>2024-08-10T09:47:53Z</time>
      </trkpt>
      <trkpt lat="45.04849" lon="6.29198">
        <ele>1824.2</ele>
        <time>2024-08-10T09:47:54Z</time>
      </trkpt>
      <trkpt lat="45.0485" lon="6.29201">
        <ele>1824.6</ele>
        <time>2024-08-10T09:47:55Z</time>
      </trkpt>
      <trkpt lat="45.04852" lon="6.29203">
        <ele>1824.6</ele>
        <time>2024-08-10T09:47:56Z</time>
      </trkpt>
      <trkpt lat="45.04852" lon="6.29203">
        <ele>1824.4</ele>
        <time>2024-08-10T09:47:57Z</time>
      </trkpt>
      <trkpt lat="45.04853" lon="6.29205">
        <ele>1823.8</ele>
        <time>2024-08-10T09:47:58Z</time>
      </trkpt>
      <trkpt lat="45.04853" lon="6.29205">
        <ele>1823.6</ele>
        <time>2024-08-10T09:47:59Z</time>
      </trkpt>
      <trkpt lat="45.04855" lon="6.29208">
        <ele>1823.6</ele>
        <time>2024-08-10T09:48:00Z</time>
      </trkpt>
      <trkpt lat="45.04855" lon="6.29208">
        <ele>1823.6</ele>
        <time>2024-08-10T09:48:01Z</time>
      </trkpt>
      <trkpt lat="45.04857" lon="6.29211">
        <ele>1823.4</ele>
        <time>2024-08-10T09:48:02Z</time>
      </trkpt>
      <trkpt lat="45.04857" lon="6.29211">
        <ele>1822.6</ele>
        <time>2024-08-10T09:48:03Z</time>
      </trkpt>
      <trkpt lat="45.04859" lon="6.29214">
        <ele>1822.6</ele>
        <time>2024-08-10T09:48:04Z</time>
      </trkpt>
      <trkpt lat="45.04859" lon="6.29214">
        <ele>1822.4</ele>
        <time>2024-08-10T09:48:05Z</time>
      </trkpt>
      <trkpt lat="45.04861" lon="6.29217">
        <ele>1822</ele>
        <time>2024-08-10T09:48:06Z</time>
      </trkpt>
      <trkpt lat="45.04861" lon="6.29217">
        <ele>1822</ele>
        <time>2024-08-10T09:48:07Z</time>
      </trkpt>
      <trkpt lat="45.04863" lon="6.29219">
        <ele>1822</ele>
        <time>2024-08-10T09:48:08Z</time>
      </trkpt>
      <trkpt lat="45.04863" lon="6.29219">
        <ele>1822</ele>
        <time>2024-08-10T09:48:09Z</time>
      </trkpt>
      <trkpt lat="45.04865" lon="6.29222">
        <ele>1821.8</ele>
        <time>2024-08-10T09:48:10Z</time>
      </trkpt>
      <trkpt lat="45.04865" lon="6.29222">
        <ele>1821.4</ele>
        <time>2024-08-10T09:48:11Z</time>
      </trkpt>
      <trkpt lat="45.04866" lon="6.29226">
        <ele>1820.8</ele>
        <time>2024-08-10T09:48:12Z</time>
      </trkpt>
      <trkpt lat="45.04866" lon="6.29226">
        <ele>1820.8</ele>
        <time>2024-08-10T09:48:13Z</time>
      </trkpt>
      <trkpt lat="45.04868" lon="6.29229">
        <ele>1820.4</ele>
        <time>2024-08-10T09:48:14Z</time>
      </trkpt>
      <trkpt lat="45.04868" lon="6.29229">
        <ele>1820.2</ele>
        <time>2024-08-10T09:48:15Z</time>
      </trkpt>
      <trkpt lat="45.04869" lon="6.29232">
        <ele>1820</ele>
        <time>2024-08-10T09:48:16Z</time>
      </trkpt>
      <trkpt lat="45.04869" lon="6.29232">
        <ele>1820</ele>
        <time>2024-08-10T09:48:17Z</time>
      </trkpt>
      <trkpt lat="45.04871" lon="6.29235">
        <ele>1819.8</ele>
        <time>2024-08-10T09:48:18Z</time>
      </trkpt>
      <trkpt lat="45.04871" lon="6.29235">
        <ele>1819.6</ele>
        <time>2024-08-10T09:48:19Z</time>
      </trkpt>
      <trkpt lat="45.04873" lon="6.29238">
        <ele>1819.6</ele>
        <time>2024-08-10T09:48:20Z</time>
      </trkpt>
      <trkpt lat="45.04873" lon="6.29238">
        <ele>1819.2</ele>
        <time>2024-08-10T09:48:21Z</time>
      </trkpt>
      <trkpt lat="45.04875" lon="6.29241">
        <ele>1818.8</ele>
        <time>2024-08-10T09:48:22Z</time>
      </trkpt>
      <trkpt lat="45.04875" lon="6.29241">
        <ele>1818.8</ele>
        <time>2024-08-10T09:48:23Z</time>
      </trkpt>
      <trkpt lat="45.04877" lon="6.29243">
        <ele>1818.8</ele>
        <time>2024-08-10T09:48:24Z</time>
      </trkpt>
      <trkpt lat="45.04877" lon="6.29243">
        <ele>1818.6</ele>
        <time>2024-08-10T09:48:25Z</time>
      </trkpt>
      <trkpt lat="45.04878" lon="6.29246">
        <ele>1818.4</ele>
        <time>2024-08-10T09:48:26Z</time>
      </trkpt>
      <trkpt lat="45.04878" lon="6.29246">
        <ele>1818.4</ele>
        <time>2024-08-10T09:48:27Z</time>
      </trkpt>
      <trkpt lat="45.04879" lon="6.2925">
        <ele>1818</ele>
        <time>2024-08-10T09:48:28Z</time>
      </trkpt>
      <trkpt lat="45.04879" lon="6.2925">
        <ele>1817.8</ele>
        <time>2024-08-10T09:48:29Z</time>
      </trkpt>
      <trkpt lat="45.04881" lon="6.29253">
        <ele>1817.6</ele>
        <time>2024-08-10T09:48:30Z</time>
      </trkpt>
      <trkpt lat="45.04881" lon="6.29253">
        <ele>1817.4</ele>
        <time>2024-08-10T09:48:31Z</time>
      </trkpt>
      <trkpt lat="45.04883" lon="6.29257">
        <ele>1817.2</ele>
        <time>2024-08-10T09:48:32Z</time>
      </trkpt>
      <trkpt lat="45.04883" lon="6.29257">
        <ele>1817.2</ele>
        <time>2024-08-10T09:48:33Z</time>
      </trkpt>
      <trkpt lat="45.04882" lon="6.29261">
        <ele>1817</ele>
        <time>2024-08-10T09:48:34Z</time>
      </trkpt>
      <trkpt lat="45.04882" lon="6.29261">
        <ele>1816.8</ele>
        <time>2024-08-10T09:48:35Z</time>
      </trkpt>
      <trkpt lat="45.04882" lon="6.29265">
        <ele>1816.4</ele>
        <time>2024-08-10T09:48:36Z</time>
      </trkpt>
      <trkpt lat="45.04882" lon="6.29265">
        <ele>1816.2</ele>
        <time>2024-08-10T09:48:37Z</time>
      </trkpt>
      <trkpt lat="45.04883" lon="6.29268">
        <ele>1816.2</ele>
        <time>2024-08-10T09:48:38Z</time>
      </trkpt>
      <trkpt lat="45.04883" lon="6.29268">
        <ele>1816.2</ele>
        <time>2024-08-10T09:48:39Z</time>
      </trkpt>
      <trkpt lat="45.04885" lon="6.29271">
        <ele>1816.2</ele>
        <time>2024-08-10T09:48:40Z</time>
      </trkpt>
      <trkpt lat="45.04885" lon="6.29271">
        <ele>1816.2</ele>
        <time>2024-08-10T09:48:41Z</time>
      </trkpt>
      <trkpt lat="45.04885" lon="6.29274">
        <ele>1816.2</ele>
        <time>2024-08-10T09:48:42Z</time>
      </trkpt>
      <trkpt lat="45.04885" lon="6.29274">
        <ele>1816.2</ele>
        <time>2024-08-10T09:48:43Z</time>
      </trkpt>
      <trkpt lat="45.04886" lon="6.29276">
        <ele>1816</ele>
        <time>2024-08-10T09:48:44Z</time>
      </trkpt>
      <trkpt lat="45.04886" lon="6.29276">
        <ele>1816</ele>
        <time>2024-08-10T09:48:45Z</time>
      </trkpt>
      <trkpt lat="45.04887" lon="6.29279">
        <ele>1816.2</ele>
        <time>2024-08-10T09:48:46Z</time>
      </trkpt>
      <trkpt lat="45.04887" lon="6.29279">
        <ele>1816.2</ele>
        <time>2024-08-10T09:48:47Z</time>
      </trkpt>
      <trkpt lat="45.04888" lon="6.29281">
        <ele>1816.2</ele>
        <time>2024-08-10T09:48:48Z</time>
      </trkpt>
      <trkpt lat="45.04888" lon="6.29281">
        <ele>1815.8</ele>
        <time>2024-08-10T09:48:49Z</time>
      </trkpt>
      <trkpt lat="45.04889" lon="6.29284">
        <ele>1815.6</ele>
        <time>2024-08-10T09:48:50Z</time>
      </trkpt>
      <trkpt lat="45.04889" lon="6.29284">
        <ele>1815.2</ele>
        <time>2024-08-10T09:48:51Z</time>
      </trkpt>
      <trkpt lat="45.0489" lon="6.29287">
        <ele>1815</ele>
        <time>2024-08-10T09:48:52Z</time>
      </trkpt>
      <trkpt lat="45.0489" lon="6.29287">
        <ele>1814.8</ele>
        <time>2024-08-10T09:48:53Z</time>
      </trkpt>
      <trkpt lat="45.04891" lon="6.2929">
        <ele>1814.8</ele>
        <time>2024-08-10T09:48:54Z</time>
      </trkpt>
      <trkpt lat="45.04891" lon="6.2929">
        <ele>1814.6</ele>
        <time>2024-08-10T09:48:55Z</time>
      </trkpt>
      <trkpt lat="45.04893" lon="6.29292">
        <ele>1814.4</ele>
        <time>2024-08-10T09:48:56Z</time>
      </trkpt>
      <trkpt lat="45.04893" lon="6.29292">
        <ele>1814.2</ele>
        <time>2024-08-10T09:48:57Z</time>
      </trkpt>
      <trkpt lat="45.04893" lon="6.29296">
        <ele>1813.8</ele>
        <time>2024-08-10T09:48:58Z</time>
      </trkpt>
      <trkpt lat="45.04893" lon="6.29296">
        <ele>1813.6</ele>
        <time>2024-08-10T09:48:59Z</time>
      </trkpt>
      <trkpt lat="45.04894" lon="6.29299">
        <ele>1813.2</ele>
        <time>2024-08-10T09:49:00Z</time>
      </trkpt>
      <trkpt lat="45.04894" lon="6.29299">
        <ele>1813</ele>
        <time>2024-08-10T09:49:01Z</time>
      </trkpt>
      <trkpt lat="45.04895" lon="6.29302">
        <ele>1812.8</ele>
        <time>2024-08-10T09:49:02Z</time>
      </trkpt>
      <trkpt lat="45.04895" lon="6.29302">
        <ele>1812.6</ele>
        <time>2024-08-10T09:49:03Z</time>
      </trkpt>
      <trkpt lat="45.04896" lon="6.29304">
        <ele>1812.6</ele>
        <time>2024-08-10T09:49:04Z</time>
      </trkpt>
      <trkpt lat="45.04896" lon="6.29304">
        <ele>1812.6</ele>
        <time>2024-08-10T09:49:05Z</time>
      </trkpt>
      <trkpt lat="45.04897" lon="6.29307">
        <ele>1812.6</ele>
        <time>2024-08-10T09:49:06Z</time>
      </trkpt>
      <trkpt lat="45.04897" lon="6.29307">
        <ele>1812.4</ele>
        <time>2024-08-10T09:49:07Z</time>
      </trkpt>
      <trkpt lat="45.04898" lon="6.29311">
        <ele>1812.4</ele>
        <time>2024-08-10T09:49:08Z</time>
      </trkpt>
      <trkpt lat="45.04898" lon="6.29311">
        <ele>1812.2</ele>
        <time>2024-08-10T09:49:09Z</time>
      </trkpt>
      <trkpt lat="45.04899" lon="6.29314">
        <ele>1812</ele>
        <time>2024-08-10T09:49:10Z</time>
      </trkpt>
      <trkpt lat="45.04899" lon="6.29314">
        <ele>1811.8</ele>
        <time>2024-08-10T09:49:11Z</time>
      </trkpt>
      <trkpt lat="45.049" lon="6.29317">
        <ele>1811.6</ele>
        <time>2024-08-10T09:49:12Z</time>
      </trkpt>
      <trkpt lat="45.049" lon="6.29317">
        <ele>1811.4</ele>
        <time>2024-08-10T09:49:13Z</time>
      </trkpt>
      <trkpt lat="45.04901" lon="6.2932">
        <ele>1811</ele>
        <time>2024-08-10T09:49:14Z</time>
      </trkpt>
      <trkpt lat="45.04901" lon="6.2932">
        <ele>1811</ele>
        <time>2024-08-10T09:49:15Z</time>
      </trkpt>
      <trkpt lat="45.04902" lon="6.29324">
        <ele>1810.6</ele>
        <time>2024-08-10T09:49:16Z</time>
      </trkpt>
      <trkpt lat="45.04902" lon="6.29324">
        <ele>1810.6</ele>
        <time>2024-08-10T09:49:17Z</time>
      </trkpt>
      <trkpt lat="45.04903" lon="6.29327">
        <ele>1810.4</ele>
        <time>2024-08-10T09:49:18Z</time>
      </trkpt>
      <trkpt lat="45.04903" lon="6.29327">
        <ele>1810.2</ele>
        <time>2024-08-10T09:49:19Z</time>
      </trkpt>
      <trkpt lat="45.04904" lon="6.2933">
        <ele>1810.2</ele>
        <time>2024-08-10T09:49:20Z</time>
      </trkpt>
      <trkpt lat="45.04904" lon="6.2933">
        <ele>1810.2</ele>
        <time>2024-08-10T09:49:21Z</time>
      </trkpt>
      <trkpt lat="45.04905" lon="6.29332">
        <ele>1810.2</ele>
        <time>2024-08-10T09:49:22Z</time>
      </trkpt>
      <trkpt lat="45.04905" lon="6.29332">
        <ele>1809.8</ele>
        <time>2024-08-10T09:49:23Z</time>
      </trkpt>
      <trkpt lat="45.04906" lon="6.29335">
        <ele>1809.6</ele>
        <time>2024-08-10T09:49:24Z</time>
      </trkpt>
      <trkpt lat="45.04906" lon="6.29335">
        <ele>1809.4</ele>
        <time>2024-08-10T09:49:25Z</time>
      </trkpt>
      <trkpt lat="45.04906" lon="6.29339">
        <ele>1809.2</ele>
        <time>2024-08-10T09:49:26Z</time>
      </trkpt>
      <trkpt lat="45.04906" lon="6.29339">
        <ele>1809</ele>
        <time>2024-08-10T09:49:27Z</time>
      </trkpt>
      <trkpt lat="45.04905" lon="6.29342">
        <ele>1808.8</ele>
        <time>2024-08-10T09:49:28Z</time>
      </trkpt>
      <trkpt lat="45.04905" lon="6.29342">
        <ele>1808.6</ele>
        <time>2024-08-10T09:49:29Z</time>
      </trkpt>
      <trkpt lat="45.04905" lon="6.29346">
        <ele>1808.6</ele>
        <time>2024-08-10T09:49:30Z</time>
      </trkpt>
      <trkpt lat="45.04905" lon="6.29346">
        <ele>1808.6</ele>
        <time>2024-08-10T09:49:31Z</time>
      </trkpt>
      <trkpt lat="45.04907" lon="6.29349">
        <ele>1808.6</ele>
        <time>2024-08-10T09:49:32Z</time>
      </trkpt>
      <trkpt lat="45.04907" lon="6.29349">
        <ele>1808.8</ele>
        <time>2024-08-10T09:49:33Z</time>
      </trkpt>
      <trkpt lat="45.04908" lon="6.29353">
        <ele>1808.4</ele>
        <time>2024-08-10T09:49:34Z</time>
      </trkpt>
      <trkpt lat="45.04908" lon="6.29353">
        <ele>1808.2</ele>
        <time>2024-08-10T09:49:35Z</time>
      </trkpt>
      <trkpt lat="45.04909" lon="6.29355">
        <ele>1808.2</ele>
        <time>2024-08-10T09:49:36Z</time>
      </trkpt>
      <trkpt lat="45.04909" lon="6.29355">
        <ele>1808</ele>
        <time>2024-08-10T09:49:37Z</time>
      </trkpt>
      <trkpt lat="45.04911" lon="6.29359">
        <ele>1807.6</ele>
        <time>2024-08-10T09:49:38Z</time>
      </trkpt>
      <trkpt lat="45.04911" lon="6.29359">
        <ele>1807.2</ele>
        <time>2024-08-10T09:49:39Z</time>
      </trkpt>
      <trkpt lat="45.04912" lon="6.29362">
        <ele>1807</ele>
        <time>2024-08-10T09:49:40Z</time>
      </trkpt>
      <trkpt lat="45.04912" lon="6.29362">
        <ele>1807</ele>
        <time>2024-08-10T09:49:41Z</time>
      </trkpt>
      <trkpt lat="45.04913" lon="6.29365">
        <ele>1807</ele>
        <time>2024-08-10T09:49:42Z</time>
      </trkpt>
      <trkpt lat="45.04913" lon="6.29365">
        <ele>1806.8</ele>
        <time>2024-08-10T09:49:43Z</time>
      </trkpt>
      <trkpt lat="45.04914" lon="6.29368">
        <ele>1806.4</ele>
        <time>2024-08-10T09:49:44Z</time>
      </trkpt>
      <trkpt lat="45.04914" lon="6.29368">
        <ele>1806.4</ele>
        <time>2024-08-10T09:49:45Z</time>
      </trkpt>
      <trkpt lat="45.04915" lon="6.29371">
        <ele>1806.2</ele>
        <time>2024-08-10T09:49:46Z</time>
      </trkpt>
      <trkpt lat="45.04915" lon="6.29371">
        <ele>1806</ele>
        <time>2024-08-10T09:49:47Z</time>
      </trkpt>
      <trkpt lat="45.04916" lon="6.29374">
        <ele>1805.6</ele>
        <time>2024-08-10T09:49:48Z</time>
      </trkpt>
      <trkpt lat="45.04916" lon="6.29374">
        <ele>1805.2</ele>
        <time>2024-08-10T09:49:49Z</time>
      </trkpt>
      <trkpt lat="45.04917" lon="6.29377">
        <ele>1805</ele>
        <time>2024-08-10T09:49:50Z</time>
      </trkpt>
      <trkpt lat="45.04917" lon="6.29377">
        <ele>1804.8</ele>
        <time>2024-08-10T09:49:51Z</time>
      </trkpt>
      <trkpt lat="45.04917" lon="6.29381">
        <ele>1804.4</ele>
        <time>2024-08-10T09:49:52Z</time>
      </trkpt>
      <trkpt lat="45.04917" lon="6.29381">
        <ele>1804.2</ele>
        <time>2024-08-10T09:49:53Z</time>
      </trkpt>
      <trkpt lat="45.04918" lon="6.29384">
        <ele>1804.2</ele>
        <time>2024-08-10T09:49:54Z</time>
      </trkpt>
      <trkpt lat="45.04918" lon="6.29384">
        <ele>1803.8</ele>
        <time>2024-08-10T09:49:55Z</time>
      </trkpt>
      <trkpt lat="45.04918" lon="6.29389">
        <ele>1803.2</ele>
        <time>2024-08-10T09:49:56Z</time>
      </trkpt>
      <trkpt lat="45.04918" lon="6.29389">
        <ele>1803.2</ele>
        <time>2024-08-10T09:49:57Z</time>
      </trkpt>
      <trkpt lat="45.04918" lon="6.29392">
        <ele>1803.2</ele>
        <time>2024-08-10T09:49:58Z</time>
      </trkpt>
      <trkpt lat="45.04918" lon="6.29392">
        <ele>1803.2</ele>
        <time>2024-08-10T09:49:59Z</time>
      </trkpt>
      <trkpt lat="45.04918" lon="6.29396">
        <ele>1802.8</ele>
        <time>2024-08-10T09:50:00Z</time>
      </trkpt>
      <trkpt lat="45.04918" lon="6.29396">
        <ele>1802.6</ele>
        <time>2024-08-10T09:50:01Z</time>
      </trkpt>
      <trkpt lat="45.04919" lon="6.29399">
        <ele>1802.6</ele>
        <time>2024-08-10T09:50:02Z</time>
      </trkpt>
      <trkpt lat="45.04919" lon="6.29399">
        <ele>1802.4</ele>
        <time>2024-08-10T09:50:03Z</time>
      </trkpt>
      <trkpt lat="45.04921" lon="6.29402">
        <ele>1802.4</ele>
        <time>2024-08-10T09:50:04Z</time>
      </trkpt>
      <trkpt lat="45.04921" lon="6.29402">
        <ele>1802.4</ele>
        <time>2024-08-10T09:50:05Z</time>
      </trkpt>
      <trkpt lat="45.04923" lon="6.29405">
        <ele>1802.2</ele>
        <time>2024-08-10T09:50:06Z</time>
      </trkpt>
      <trkpt lat="45.04923" lon="6.29405">
        <ele>1802</ele>
        <time>2024-08-10T09:50:07Z</time>
      </trkpt>
      <trkpt lat="45.04925" lon="6.29408">
        <ele>1801.8</ele>
        <time>2024-08-10T09:50:08Z</time>
      </trkpt>
      <trkpt lat="45.04925" lon="6.29408">
        <ele>1801.6</ele>
        <time>2024-08-10T09:50:09Z</time>
      </trkpt>
      <trkpt lat="45.04926" lon="6.29411">
        <ele>1801.4</ele>
        <time>2024-08-10T09:50:10Z</time>
      </trkpt>
      <trkpt lat="45.04926" lon="6.29411">
        <ele>1801.2</ele>
        <time>2024-08-10T09:50:11Z</time>
      </trkpt>
      <trkpt lat="45.04929" lon="6.29414">
        <ele>1801</ele>
        <time>2024-08-10T09:50:12Z</time>
      </trkpt>
      <trkpt lat="45.04929" lon="6.29414">
        <ele>1800.8</ele>
        <time>2024-08-10T09:50:13Z</time>
      </trkpt>
      <trkpt lat="45.04931" lon="6.29416">
        <ele>1800.6</ele>
        <time>2024-08-10T09:50:14Z</time>
      </trkpt>
      <trkpt lat="45.04931" lon="6.29416">
        <ele>1800.6</ele>
        <time>2024-08-10T09:50:15Z</time>
      </trkpt>
      <trkpt lat="45.04933" lon="6.29419">
        <ele>1800.6</ele>
        <time>2024-08-10T09:50:16Z</time>
      </trkpt>
      <trkpt lat="45.04933" lon="6.29419">
        <ele>1800.4</ele>
        <time>2024-08-10T09:50:17Z</time>
      </trkpt>
      <trkpt lat="45.04934" lon="6.29422">
        <ele>1799.8</ele>
        <time>2024-08-10T09:50:18Z</time>
      </trkpt>
      <trkpt lat="45.04934" lon="6.29422">
        <ele>1799.2</ele>
        <time>2024-08-10T09:50:19Z</time>
      </trkpt>
      <trkpt lat="45.04937" lon="6.29424">
        <ele>1799</ele>
        <time>2024-08-10T09:50:20Z</time>
      </trkpt>
      <trkpt lat="45.04939" lon="6.29425">
        <ele>1798.8</ele>
        <time>2024-08-10T09:50:21Z</time>
      </trkpt>
      <trkpt lat="45.04939" lon="6.29425">
        <ele>1798.6</ele>
        <time>2024-08-10T09:50:22Z</time>
      </trkpt>
      <trkpt lat="45.04941" lon="6.29427">
        <ele>1798.4</ele>
        <time>2024-08-10T09:50:23Z</time>
      </trkpt>
      <trkpt lat="45.04941" lon="6.29427">
        <ele>1798</ele>
        <time>2024-08-10T09:50:24Z</time>
      </trkpt>
      <trkpt lat="45.04943" lon="6.2943">
        <ele>1797.8</ele>
        <time>2024-08-10T09:50:25Z</time>
      </trkpt>
      <trkpt lat="45.04943" lon="6.2943">
        <ele>1797.6</ele>
        <time>2024-08-10T09:50:26Z</time>
      </trkpt>
      <trkpt lat="45.04943" lon="6.29434">
        <ele>1797.4</ele>
        <time>2024-08-10T09:50:27Z</time>
      </trkpt>
      <trkpt lat="45.04943" lon="6.29434">
        <ele>1797.4</ele>
        <time>2024-08-10T09:50:28Z</time>
      </trkpt>
      <trkpt lat="45.04942" lon="6.29438">
        <ele>1797</ele>
        <time>2024-08-10T09:50:29Z</time>
      </trkpt>
      <trkpt lat="45.04942" lon="6.29438">
        <ele>1797</ele>
        <time>2024-08-10T09:50:30Z</time>
      </trkpt>
      <trkpt lat="45.04942" lon="6.29441">
        <ele>1796.8</ele>
        <time>2024-08-10T09:50:31Z</time>
      </trkpt>
      <trkpt lat="45.04942" lon="6.29441">
        <ele>1796.6</ele>
        <time>2024-08-10T09:50:32Z</time>
      </trkpt>
      <trkpt lat="45.04943" lon="6.29444">
        <ele>1796.4</ele>
        <time>2024-08-10T09:50:33Z</time>
      </trkpt>
      <trkpt lat="45.04943" lon="6.29444">
        <ele>1796.4</ele>
        <time>2024-08-10T09:50:34Z</time>
      </trkpt>
      <trkpt lat="45.04943" lon="6.29448">
        <ele>1796.2</ele>
        <time>2024-08-10T09:50:35Z</time>
      </trkpt>
      <trkpt lat="45.04943" lon="6.29448">
        <ele>1796</ele>
        <time>2024-08-10T09:50:36Z</time>
      </trkpt>
      <trkpt lat="45.04945" lon="6.29451">
        <ele>1796</ele>
        <time>2024-08-10T09:50:37Z</time>
      </trkpt>
      <trkpt lat="45.04945" lon="6.29451">
        <ele>1795.4</ele>
        <time>2024-08-10T09:50:38Z</time>
      </trkpt>
      <trkpt lat="45.04945" lon="6.29451">
        <ele>1794.8</ele>
        <time>2024-08-10T09:50:39Z</time>
      </trkpt>
      <trkpt lat="45.04945" lon="6.29451">
        <ele>1794.8</ele>
        <time>2024-08-10T09:50:40Z</time>
      </trkpt>
      <trkpt lat="45.04945" lon="6.29451">
        <ele>1794.8</ele>
        <time>2024-08-10T09:50:41Z</time>
      </trkpt>
      <trkpt lat="45.04945" lon="6.29451">
        <ele>1794.8</ele>
        <time>2024-08-10T09:50:42Z</time>
      </trkpt>
      <trkpt lat="45.04945" lon="6.29451">
        <ele>1794.8</ele>
        <time>2024-08-10T09:50:43Z</time>
      </trkpt>
      <trkpt lat="45.04945" lon="6.29451">
        <ele>1794.6</ele>
        <time>2024-08-10T09:50:44Z</time>
      </trkpt>
      <trkpt lat="45.04945" lon="6.29451">
        <ele>1794.6</ele>
        <time>2024-08-10T09:50:45Z</time>
      </trkpt>
      <trkpt lat="45.04945" lon="6.29451">
        <ele>1794.6</ele>
        <time>2024-08-10T09:50:46Z</time>
      </trkpt>
      <trkpt lat="45.04945" lon="6.29451">
        <ele>1794.6</ele>
        <time>2024-08-10T09:50:47Z</time>
      </trkpt>
      <trkpt lat="45.04944" lon="6.29453">
        <ele>1794.6</ele>
        <time>2024-08-10T09:50:48Z</time>
      </trkpt>
      <trkpt lat="45.04944" lon="6.29453">
        <ele>1794.6</ele>
        <time>2024-08-10T09:50:49Z</time>
      </trkpt>
      <trkpt lat="45.04944" lon="6.29453">
        <ele>1794.8</ele>
        <time>2024-08-10T09:50:50Z</time>
      </trkpt>
      <trkpt lat="45.04944" lon="6.29453">
        <ele>1794.8</ele>
        <time>2024-08-10T09:50:51Z</time>
      </trkpt>
      <trkpt lat="45.04944" lon="6.29453">
        <ele>1794.6</ele>
        <time>2024-08-10T09:50:52Z</time>
      </trkpt>
      <trkpt lat="45.04944" lon="6.29453">
        <ele>1794.4</ele>
        <time>2024-08-10T09:50:53Z</time>
      </trkpt>
      <trkpt lat="45.04944" lon="6.29453">
        <ele>1794.4</ele>
        <time>2024-08-10T09:50:54Z</time>
      </trkpt>
      <trkpt lat="45.04944" lon="6.29453">
        <ele>1794.4</ele>
        <time>2024-08-10T09:50:55Z</time>
      </trkpt>
      <trkpt lat="45.04944" lon="6.29453">
        <ele>1794.4</ele>
        <time>2024-08-10T09:50:56Z</time>
      </trkpt>
      <trkpt lat="45.04944" lon="6.29453">
        <ele>1794.4</ele>
        <time>2024-08-10T09:50:57Z</time>
      </trkpt>
      <trkpt lat="45.04944" lon="6.29453">
        <ele>1794.4</ele>
        <time>2024-08-10T09:50:58Z</time>
      </trkpt>
      <trkpt lat="45.04944" lon="6.29453">
        <ele>1794.4</ele>
        <time>2024-08-10T09:50:59Z</time>
      </trkpt>
      <trkpt lat="45.04944" lon="6.29453">
        <ele>1794.2</ele>
        <time>2024-08-10T09:51:00Z</time>
      </trkpt>
      <trkpt lat="45.04944" lon="6.29453">
        <ele>1794.2</ele>
        <time>2024-08-10T09:51:01Z</time>
      </trkpt>
      <trkpt lat="45.04944" lon="6.29453">
        <ele>1794.4</ele>
        <time>2024-08-10T09:51:02Z</time>
      </trkpt>
      <trkpt lat="45.04944" lon="6.29453">
        <ele>1794.8</ele>
        <time>2024-08-10T09:51:03Z</time>
      </trkpt>
      <trkpt lat="45.04944" lon="6.29453">
        <ele>1794.8</ele>
        <time>2024-08-10T09:51:04Z</time>
      </trkpt>
      <trkpt lat="45.04944" lon="6.29453">
        <ele>1794.6</ele>
        <time>2024-08-10T09:51:05Z</time>
      </trkpt>
      <trkpt lat="45.04944" lon="6.29453">
        <ele>1794.6</ele>
        <time>2024-08-10T09:51:06Z</time>
      </trkpt>
      <trkpt lat="45.04944" lon="6.29453">
        <ele>1794.6</ele>
        <time>2024-08-10T09:51:07Z</time>
      </trkpt>
      <trkpt lat="45.04944" lon="6.29453">
        <ele>1794.6</ele>
        <time>2024-08-10T09:51:08Z</time>
      </trkpt>
      <trkpt lat="45.04944" lon="6.29453">
        <ele>1794.6</ele>
        <time>2024-08-10T09:51:09Z</time>
      </trkpt>
      <trkpt lat="45.04944" lon="6.29453">
        <ele>1794.6</ele>
        <time>2024-08-10T09:51:10Z</time>
      </trkpt>
      <trkpt lat="45.04944" lon="6.29453">
        <ele>1794.6</ele>
        <time>2024-08-10T09:51:11Z</time>
      </trkpt>
      <trkpt lat="45.04944" lon="6.29453">
        <ele>1794.6</ele>
        <time>2024-08-10T09:51:12Z</time>
      </trkpt>
      <trkpt lat="45.04944" lon="6.29453">
        <ele>1794.8</ele>
        <time>2024-08-10T09:51:13Z</time>
      </trkpt>
      <trkpt lat="45.04944" lon="6.29453">
        <ele>1794.8</ele>
        <time>2024-08-10T09:51:14Z</time>
      </trkpt>
      <trkpt lat="45.04944" lon="6.29453">
        <ele>1794.8</ele>
        <time>2024-08-10T09:51:15Z</time>
      </trkpt>
      <trkpt lat="45.04944" lon="6.29453">
        <ele>1794.6</ele>
        <time>2024-08-10T09:51:16Z</time>
      </trkpt>
      <trkpt lat="45.04944" lon="6.29453">
        <ele>1794.6</ele>
        <time>2024-08-10T09:51:17Z</time>
      </trkpt>
      <trkpt lat="45.04944" lon="6.29453">
        <ele>1794.6</ele>
        <time>2024-08-10T09:51:18Z</time>
      </trkpt>
      <trkpt lat="45.04944" lon="6.29453">
        <ele>1794.8</ele>
        <time>2024-08-10T09:51:19Z</time>
      </trkpt>
      <trkpt lat="45.04944" lon="6.29453">
        <ele>1794.8</ele>
        <time>2024-08-10T09:51:20Z</time>
      </trkpt>
      <trkpt lat="45.04944" lon="6.29453">
        <ele>1794.8</ele>
        <time>2024-08-10T09:51:21Z</time>
      </trkpt>
      <trkpt lat="45.04944" lon="6.29453">
        <ele>1794.8</ele>
        <time>2024-08-10T09:51:22Z</time>
      </trkpt>
      <trkpt lat="45.04944" lon="6.29453">
        <ele>1794.8</ele>
        <time>2024-08-10T09:51:23Z</time>
      </trkpt>
      <trkpt lat="45.04944" lon="6.29453">
        <ele>1794.8</ele>
        <time>2024-08-10T09:51:24Z</time>
      </trkpt>
      <trkpt lat="45.04944" lon="6.29453">
        <ele>1795</ele>
        <time>2024-08-10T09:51:25Z</time>
      </trkpt>
      <trkpt lat="45.04941" lon="6.29454">
        <ele>1795</ele>
        <time>2024-08-10T09:51:26Z</time>
      </trkpt>
      <trkpt lat="45.04941" lon="6.29454">
        <ele>1795</ele>
        <time>2024-08-10T09:51:27Z</time>
      </trkpt>
      <trkpt lat="45.04939" lon="6.29455">
        <ele>1794.8</ele>
        <time>2024-08-10T09:51:28Z</time>
      </trkpt>
      <trkpt lat="45.04939" lon="6.29455">
        <ele>1794.8</ele>
        <time>2024-08-10T09:51:29Z</time>
      </trkpt>
      <trkpt lat="45.04939" lon="6.29455">
        <ele>1794.8</ele>
        <time>2024-08-10T09:51:30Z</time>
      </trkpt>
      <trkpt lat="45.04939" lon="6.29455">
        <ele>1794.8</ele>
        <time>2024-08-10T09:51:31Z</time>
      </trkpt>
      <trkpt lat="45.04939" lon="6.29455">
        <ele>1794.6</ele>
        <time>2024-08-10T09:51:32Z</time>
      </trkpt>
      <trkpt lat="45.04939" lon="6.29455">
        <ele>1794.6</ele>
        <time>2024-08-10T09:51:33Z</time>
      </trkpt>
      <trkpt lat="45.04939" lon="6.29455">
        <ele>1794.8</ele>
        <time>2024-08-10T09:51:34Z</time>
      </trkpt>
      <trkpt lat="45.04939" lon="6.29455">
        <ele>1794.8</ele>
        <time>2024-08-10T09:51:35Z</time>
      </trkpt>
      <trkpt lat="45.04939" lon="6.29455">
        <ele>1794.6</ele>
        <time>2024-08-10T09:51:36Z</time>
      </trkpt>
      <trkpt lat="45.04939" lon="6.29455">
        <ele>1794.6</ele>
        <time>2024-08-10T09:51:37Z</time>
      </trkpt>
      <trkpt lat="45.04939" lon="6.29455">
        <ele>1794.4</ele>
        <time>2024-08-10T09:51:38Z</time>
      </trkpt>
      <trkpt lat="45.04939" lon="6.29455">
        <ele>1794.4</ele>
        <time>2024-08-10T09:51:39Z</time>
      </trkpt>
      <trkpt lat="45.04939" lon="6.29455">
        <ele>1794.6</ele>
        <time>2024-08-10T09:51:40Z</time>
      </trkpt>
      <trkpt lat="45.04939" lon="6.29455">
        <ele>1794.6</ele>
        <time>2024-08-10T09:51:41Z</time>
      </trkpt>
      <trkpt lat="45.04939" lon="6.29455">
        <ele>1794.6</ele>
        <time>2024-08-10T09:51:42Z</time>
      </trkpt>
      <trkpt lat="45.04939" lon="6.29455">
        <ele>1794.6</ele>
        <time>2024-08-10T09:51:43Z</time>
      </trkpt>
      <trkpt lat="45.04939" lon="6.29455">
        <ele>1794.8</ele>
        <time>2024-08-10T09:51:44Z</time>
      </trkpt>
      <trkpt lat="45.04939" lon="6.29455">
        <ele>1794.8</ele>
        <time>2024-08-10T09:51:45Z</time>
      </trkpt>
      <trkpt lat="45.04939" lon="6.29455">
        <ele>1794.6</ele>
        <time>2024-08-10T09:51:46Z</time>
      </trkpt>
      <trkpt lat="45.04939" lon="6.29455">
        <ele>1794.6</ele>
        <time>2024-08-10T09:51:47Z</time>
      </trkpt>
      <trkpt lat="45.04939" lon="6.29455">
        <ele>1794.8</ele>
        <time>2024-08-10T09:51:48Z</time>
      </trkpt>
      <trkpt lat="45.04939" lon="6.29455">
        <ele>1795</ele>
        <time>2024-08-10T09:51:49Z</time>
      </trkpt>
      <trkpt lat="45.04939" lon="6.29455">
        <ele>1795</ele>
        <time>2024-08-10T09:51:50Z</time>
      </trkpt>
      <trkpt lat="45.04939" lon="6.29455">
        <ele>1795</ele>
        <time>2024-08-10T09:51:51Z</time>
      </trkpt>
      <trkpt lat="45.04939" lon="6.29455">
        <ele>1795</ele>
        <time>2024-08-10T09:51:52Z</time>
      </trkpt>
      <trkpt lat="45.04939" lon="6.29455">
        <ele>1795</ele>
        <time>2024-08-10T09:51:53Z</time>
      </trkpt>
      <trkpt lat="45.04939" lon="6.29455">
        <ele>1795</ele>
        <time>2024-08-10T09:51:54Z</time>
      </trkpt>
      <trkpt lat="45.04939" lon="6.29455">
        <ele>1795</ele>
        <time>2024-08-10T09:51:55Z</time>
      </trkpt>
      <trkpt lat="45.04939" lon="6.29455">
        <ele>1795</ele>
        <time>2024-08-10T09:51:56Z</time>
      </trkpt>
      <trkpt lat="45.04939" lon="6.29455">
        <ele>1794.8</ele>
        <time>2024-08-10T09:51:57Z</time>
      </trkpt>
      <trkpt lat="45.04939" lon="6.29455">
        <ele>1794.8</ele>
        <time>2024-08-10T09:51:58Z</time>
      </trkpt>
      <trkpt lat="45.04939" lon="6.29455">
        <ele>1795</ele>
        <time>2024-08-10T09:51:59Z</time>
      </trkpt>
      <trkpt lat="45.04939" lon="6.29455">
        <ele>1795</ele>
        <time>2024-08-10T09:52:00Z</time>
      </trkpt>
      <trkpt lat="45.04939" lon="6.29455">
        <ele>1795</ele>
        <time>2024-08-10T09:52:01Z</time>
      </trkpt>
      <trkpt lat="45.04939" lon="6.29455">
        <ele>1795</ele>
        <time>2024-08-10T09:52:02Z</time>
      </trkpt>
      <trkpt lat="45.04939" lon="6.29455">
        <ele>1795.2</ele>
        <time>2024-08-10T09:52:03Z</time>
      </trkpt>
      <trkpt lat="45.04939" lon="6.29455">
        <ele>1795.2</ele>
        <time>2024-08-10T09:52:04Z</time>
      </trkpt>
      <trkpt lat="45.04939" lon="6.29455">
        <ele>1795</ele>
        <time>2024-08-10T09:52:05Z</time>
      </trkpt>
      <trkpt lat="45.04939" lon="6.29455">
        <ele>1795</ele>
        <time>2024-08-10T09:52:06Z</time>
      </trkpt>
      <trkpt lat="45.04939" lon="6.29455">
        <ele>1795</ele>
        <time>2024-08-10T09:52:07Z</time>
      </trkpt>
      <trkpt lat="45.04939" lon="6.29455">
        <ele>1795</ele>
        <time>2024-08-10T09:52:08Z</time>
      </trkpt>
      <trkpt lat="45.04939" lon="6.29455">
        <ele>1795.2</ele>
        <time>2024-08-10T09:52:09Z</time>
      </trkpt>
      <trkpt lat="45.04939" lon="6.29455">
        <ele>1795.2</ele>
        <time>2024-08-10T09:52:10Z</time>
      </trkpt>
      <trkpt lat="45.04939" lon="6.29455">
        <ele>1795.2</ele>
        <time>2024-08-10T09:52:11Z</time>
      </trkpt>
      <trkpt lat="45.04939" lon="6.29455">
        <ele>1795</ele>
        <time>2024-08-10T09:52:12Z</time>
      </trkpt>
      <trkpt lat="45.04941" lon="6.29453">
        <ele>1795</ele>
        <time>2024-08-10T09:52:13Z</time>
      </trkpt>
      <trkpt lat="45.04941" lon="6.29453">
        <ele>1795</ele>
        <time>2024-08-10T09:52:14Z</time>
      </trkpt>
      <trkpt lat="45.04943" lon="6.29452">
        <ele>1795</ele>
        <time>2024-08-10T09:52:15Z</time>
      </trkpt>
      <trkpt lat="45.04943" lon="6.29452">
        <ele>1795</ele>
        <time>2024-08-10T09:52:16Z</time>
      </trkpt>
      <trkpt lat="45.04943" lon="6.29452">
        <ele>1794.8</ele>
        <time>2024-08-10T09:52:17Z</time>
      </trkpt>
      <trkpt lat="45.04943" lon="6.29452">
        <ele>1794.6</ele>
        <time>2024-08-10T09:52:18Z</time>
      </trkpt>
      <trkpt lat="45.04943" lon="6.29452">
        <ele>1794.6</ele>
        <time>2024-08-10T09:52:19Z</time>
      </trkpt>
      <trkpt lat="45.04943" lon="6.29452">
        <ele>1794.6</ele>
        <time>2024-08-10T09:52:20Z</time>
      </trkpt>
      <trkpt lat="45.04943" lon="6.29452">
        <ele>1794.8</ele>
        <time>2024-08-10T09:52:21Z</time>
      </trkpt>
      <trkpt lat="45.04943" lon="6.29452">
        <ele>1795</ele>
        <time>2024-08-10T09:52:22Z</time>
      </trkpt>
      <trkpt lat="45.04943" lon="6.29452">
        <ele>1795</ele>
        <time>2024-08-10T09:52:23Z</time>
      </trkpt>
      <trkpt lat="45.04943" lon="6.29452">
        <ele>1795</ele>
        <time>2024-08-10T09:52:24Z</time>
      </trkpt>
      <trkpt lat="45.04943" lon="6.29452">
        <ele>1794.6</ele>
        <time>2024-08-10T09:52:25Z</time>
      </trkpt>
      <trkpt lat="45.04943" lon="6.29452">
        <ele>1794.6</ele>
        <time>2024-08-10T09:52:26Z</time>
      </trkpt>
      <trkpt lat="45.04943" lon="6.29452">
        <ele>1794.8</ele>
        <time>2024-08-10T09:52:27Z</time>
      </trkpt>
      <trkpt lat="45.04943" lon="6.29452">
        <ele>1795</ele>
        <time>2024-08-10T09:52:28Z</time>
      </trkpt>
      <trkpt lat="45.04943" lon="6.29452">
        <ele>1795</ele>
        <time>2024-08-10T09:52:29Z</time>
      </trkpt>
      <trkpt lat="45.04943" lon="6.29452">
        <ele>1795</ele>
        <time>2024-08-10T09:52:30Z</time>
      </trkpt>
      <trkpt lat="45.04943" lon="6.29452">
        <ele>1795</ele>
        <time>2024-08-10T09:52:31Z</time>
      </trkpt>
      <trkpt lat="45.04943" lon="6.29452">
        <ele>1795</ele>
        <time>2024-08-10T09:52:32Z</time>
      </trkpt>
      <trkpt lat="45.04943" lon="6.29452">
        <ele>1795</ele>
        <time>2024-08-10T09:52:33Z</time>
      </trkpt>
      <trkpt lat="45.04943" lon="6.29452">
        <ele>1795</ele>
        <time>2024-08-10T09:52:34Z</time>
      </trkpt>
      <trkpt lat="45.04943" lon="6.29452">
        <ele>1795</ele>
        <time>2024-08-10T09:52:35Z</time>
      </trkpt>
      <trkpt lat="45.04943" lon="6.29452">
        <ele>1795</ele>
        <time>2024-08-10T09:52:36Z</time>
      </trkpt>
      <trkpt lat="45.04943" lon="6.29452">
        <ele>1794.8</ele>
        <time>2024-08-10T09:52:37Z</time>
      </trkpt>
      <trkpt lat="45.04943" lon="6.29452">
        <ele>1794.8</ele>
        <time>2024-08-10T09:52:38Z</time>
      </trkpt>
      <trkpt lat="45.04943" lon="6.29452">
        <ele>1794.8</ele>
        <time>2024-08-10T09:52:39Z</time>
      </trkpt>
      <trkpt lat="45.04943" lon="6.29452">
        <ele>1794.6</ele>
        <time>2024-08-10T09:52:40Z</time>
      </trkpt>
      <trkpt lat="45.04943" lon="6.29452">
        <ele>1794.6</ele>
        <time>2024-08-10T09:52:41Z</time>
      </trkpt>
      <trkpt lat="45.04943" lon="6.29452">
        <ele>1794.8</ele>
        <time>2024-08-10T09:52:42Z</time>
      </trkpt>
      <trkpt lat="45.04943" lon="6.29452">
        <ele>1794.8</ele>
        <time>2024-08-10T09:52:43Z</time>
      </trkpt>
      <trkpt lat="45.04943" lon="6.29452">
        <ele>1795</ele>
        <time>2024-08-10T09:52:44Z</time>
      </trkpt>
      <trkpt lat="45.04943" lon="6.29452">
        <ele>1795</ele>
        <time>2024-08-10T09:52:45Z</time>
      </trkpt>
      <trkpt lat="45.04943" lon="6.29452">
        <ele>1794.8</ele>
        <time>2024-08-10T09:52:46Z</time>
      </trkpt>
      <trkpt lat="45.04943" lon="6.29452">
        <ele>1794.8</ele>
        <time>2024-08-10T09:52:47Z</time>
      </trkpt>
      <trkpt lat="45.04943" lon="6.29452">
        <ele>1794.8</ele>
        <time>2024-08-10T09:52:48Z</time>
      </trkpt>
      <trkpt lat="45.04943" lon="6.29452">
        <ele>1794.6</ele>
        <time>2024-08-10T09:52:49Z</time>
      </trkpt>
      <trkpt lat="45.04943" lon="6.29452">
        <ele>1794.6</ele>
        <time>2024-08-10T09:52:50Z</time>
      </trkpt>
      <trkpt lat="45.04943" lon="6.29452">
        <ele>1794.8</ele>
        <time>2024-08-10T09:52:51Z</time>
      </trkpt>
      <trkpt lat="45.04943" lon="6.29452">
        <ele>1794.8</ele>
        <time>2024-08-10T09:52:52Z</time>
      </trkpt>
      <trkpt lat="45.04943" lon="6.29452">
        <ele>1795</ele>
        <time>2024-08-10T09:52:53Z</time>
      </trkpt>
      <trkpt lat="45.04943" lon="6.29452">
        <ele>1795.2</ele>
        <time>2024-08-10T09:52:54Z</time>
      </trkpt>
      <trkpt lat="45.04943" lon="6.29452">
        <ele>1795.2</ele>
        <time>2024-08-10T09:52:55Z</time>
      </trkpt>
      <trkpt lat="45.04943" lon="6.29452">
        <ele>1795</ele>
        <time>2024-08-10T09:52:56Z</time>
      </trkpt>
      <trkpt lat="45.04943" lon="6.29452">
        <ele>1795</ele>
        <time>2024-08-10T09:52:57Z</time>
      </trkpt>
      <trkpt lat="45.04945" lon="6.29454">
        <ele>1795</ele>
        <time>2024-08-10T09:52:58Z</time>
      </trkpt>
      <trkpt lat="45.04946" lon="6.29455">
        <ele>1795</ele>
        <time>2024-08-10T09:52:59Z</time>
      </trkpt>
      <trkpt lat="45.04948" lon="6.29457">
        <ele>1794.8</ele>
        <time>2024-08-10T09:53:00Z</time>
      </trkpt>
      <trkpt lat="45.04949" lon="6.29459">
        <ele>1794.8</ele>
        <time>2024-08-10T09:53:01Z</time>
      </trkpt>
      <trkpt lat="45.0495" lon="6.29461">
        <ele>1794.4</ele>
        <time>2024-08-10T09:53:02Z</time>
      </trkpt>
      <trkpt lat="45.0495" lon="6.29461">
        <ele>1794</ele>
        <time>2024-08-10T09:53:03Z</time>
      </trkpt>
      <trkpt lat="45.04953" lon="6.29465">
        <ele>1794</ele>
        <time>2024-08-10T09:53:04Z</time>
      </trkpt>
      <trkpt lat="45.04954" lon="6.29467">
        <ele>1793.6</ele>
        <time>2024-08-10T09:53:05Z</time>
      </trkpt>
      <trkpt lat="45.04954" lon="6.29467">
        <ele>1793.4</ele>
        <time>2024-08-10T09:53:06Z</time>
      </trkpt>
      <trkpt lat="45.04955" lon="6.2947">
        <ele>1793.4</ele>
        <time>2024-08-10T09:53:07Z</time>
      </trkpt>
      <trkpt lat="45.04956" lon="6.29472">
        <ele>1793</ele>
        <time>2024-08-10T09:53:08Z</time>
      </trkpt>
      <trkpt lat="45.04956" lon="6.29472">
        <ele>1793</ele>
        <time>2024-08-10T09:53:09Z</time>
      </trkpt>
      <trkpt lat="45.04957" lon="6.29475">
        <ele>1793</ele>
        <time>2024-08-10T09:53:10Z</time>
      </trkpt>
      <trkpt lat="45.04957" lon="6.29475">
        <ele>1792.8</ele>
        <time>2024-08-10T09:53:11Z</time>
      </trkpt>
      <trkpt lat="45.04958" lon="6.29479">
        <ele>1792.2</ele>
        <time>2024-08-10T09:53:12Z</time>
      </trkpt>
      <trkpt lat="45.04958" lon="6.29479">
        <ele>1792</ele>
        <time>2024-08-10T09:53:13Z</time>
      </trkpt>
      <trkpt lat="45.04959" lon="6.29483">
        <ele>1791.8</ele>
        <time>2024-08-10T09:53:14Z</time>
      </trkpt>
      <trkpt lat="45.04959" lon="6.29483">
        <ele>1791.6</ele>
        <time>2024-08-10T09:53:15Z</time>
      </trkpt>
      <trkpt lat="45.0496" lon="6.29487">
        <ele>1791.4</ele>
        <time>2024-08-10T09:53:16Z</time>
      </trkpt>
      <trkpt lat="45.0496" lon="6.29487">
        <ele>1791</ele>
        <time>2024-08-10T09:53:17Z</time>
      </trkpt>
      <trkpt lat="45.04961" lon="6.2949">
        <ele>1790.8</ele>
        <time>2024-08-10T09:53:18Z</time>
      </trkpt>
      <trkpt lat="45.04961" lon="6.2949">
        <ele>1790.8</ele>
        <time>2024-08-10T09:53:19Z</time>
      </trkpt>
      <trkpt lat="45.04961" lon="6.29494">
        <ele>1790.8</ele>
        <time>2024-08-10T09:53:20Z</time>
      </trkpt>
      <trkpt lat="45.04961" lon="6.29494">
        <ele>1790.8</ele>
        <time>2024-08-10T09:53:21Z</time>
      </trkpt>
      <trkpt lat="45.04961" lon="6.29497">
        <ele>1790.4</ele>
        <time>2024-08-10T09:53:22Z</time>
      </trkpt>
      <trkpt lat="45.04961" lon="6.29497">
        <ele>1790</ele>
        <time>2024-08-10T09:53:23Z</time>
      </trkpt>
      <trkpt lat="45.04963" lon="6.295">
        <ele>1789.6</ele>
        <time>2024-08-10T09:53:24Z</time>
      </trkpt>
      <trkpt lat="45.04963" lon="6.295">
        <ele>1789.4</ele>
        <time>2024-08-10T09:53:25Z</time>
      </trkpt>
      <trkpt lat="45.04964" lon="6.29504">
        <ele>1789</ele>
        <time>2024-08-10T09:53:26Z</time>
      </trkpt>
      <trkpt lat="45.04964" lon="6.29504">
        <ele>1788.6</ele>
        <time>2024-08-10T09:53:27Z</time>
      </trkpt>
      <trkpt lat="45.04964" lon="6.29507">
        <ele>1788.4</ele>
        <time>2024-08-10T09:53:28Z</time>
      </trkpt>
      <trkpt lat="45.04964" lon="6.29507">
        <ele>1788.4</ele>
        <time>2024-08-10T09:53:29Z</time>
      </trkpt>
      <trkpt lat="45.04963" lon="6.29511">
        <ele>1788.2</ele>
        <time>2024-08-10T09:53:30Z</time>
      </trkpt>
      <trkpt lat="45.04963" lon="6.29511">
        <ele>1787.8</ele>
        <time>2024-08-10T09:53:31Z</time>
      </trkpt>
      <trkpt lat="45.04961" lon="6.29513">
        <ele>1787.4</ele>
        <time>2024-08-10T09:53:32Z</time>
      </trkpt>
      <trkpt lat="45.04961" lon="6.29513">
        <ele>1787.2</ele>
        <time>2024-08-10T09:53:33Z</time>
      </trkpt>
      <trkpt lat="45.04959" lon="6.29515">
        <ele>1787.2</ele>
        <time>2024-08-10T09:53:34Z</time>
      </trkpt>
      <trkpt lat="45.04959" lon="6.29515">
        <ele>1786.8</ele>
        <time>2024-08-10T09:53:35Z</time>
      </trkpt>
      <trkpt lat="45.04959" lon="6.29515">
        <ele>1786.4</ele>
        <time>2024-08-10T09:53:36Z</time>
      </trkpt>
      <trkpt lat="45.04959" lon="6.29515">
        <ele>1786.4</ele>
        <time>2024-08-10T09:53:37Z</time>
      </trkpt>
      <trkpt lat="45.04959" lon="6.29515">
        <ele>1786.2</ele>
        <time>2024-08-10T09:53:38Z</time>
      </trkpt>
      <trkpt lat="45.04957" lon="6.29515">
        <ele>1786.2</ele>
        <time>2024-08-10T09:53:39Z</time>
      </trkpt>
      <trkpt lat="45.04957" lon="6.29515">
        <ele>1786.2</ele>
        <time>2024-08-10T09:53:40Z</time>
      </trkpt>
      <trkpt lat="45.04957" lon="6.29515">
        <ele>1786</ele>
        <time>2024-08-10T09:53:41Z</time>
      </trkpt>
      <trkpt lat="45.04957" lon="6.29515">
        <ele>1786</ele>
        <time>2024-08-10T09:53:42Z</time>
      </trkpt>
      <trkpt lat="45.04957" lon="6.29515">
        <ele>1786.2</ele>
        <time>2024-08-10T09:53:43Z</time>
      </trkpt>
      <trkpt lat="45.04957" lon="6.29515">
        <ele>1786.4</ele>
        <time>2024-08-10T09:53:44Z</time>
      </trkpt>
      <trkpt lat="45.04957" lon="6.29515">
        <ele>1786.4</ele>
        <time>2024-08-10T09:53:45Z</time>
      </trkpt>
      <trkpt lat="45.04957" lon="6.29518">
        <ele>1786.4</ele>
        <time>2024-08-10T09:53:46Z</time>
      </trkpt>
      <trkpt lat="45.04956" lon="6.29521">
        <ele>1786.4</ele>
        <time>2024-08-10T09:53:47Z</time>
      </trkpt>
      <trkpt lat="45.04956" lon="6.29521">
        <ele>1786.2</ele>
        <time>2024-08-10T09:53:48Z</time>
      </trkpt>
      <trkpt lat="45.04955" lon="6.29522">
        <ele>1786</ele>
        <time>2024-08-10T09:53:49Z</time>
      </trkpt>
      <trkpt lat="45.04954" lon="6.29524">
        <ele>1785.4</ele>
        <time>2024-08-10T09:53:50Z</time>
      </trkpt>
      <trkpt lat="45.04954" lon="6.29526">
        <ele>1785.2</ele>
        <time>2024-08-10T09:53:51Z</time>
      </trkpt>
      <trkpt lat="45.04953" lon="6.29528">
        <ele>1784.8</ele>
        <time>2024-08-10T09:53:52Z</time>
      </trkpt>
      <trkpt lat="45.04953" lon="6.29528">
        <ele>1784.6</ele>
        <time>2024-08-10T09:53:53Z</time>
      </trkpt>
      <trkpt lat="45.04951" lon="6.29529">
        <ele>1784.2</ele>
        <time>2024-08-10T09:53:54Z</time>
      </trkpt>
      <trkpt lat="45.04951" lon="6.29529">
        <ele>1783.8</ele>
        <time>2024-08-10T09:53:55Z</time>
      </trkpt>
      <trkpt lat="45.04949" lon="6.29531">
        <ele>1783.6</ele>
        <time>2024-08-10T09:53:56Z</time>
      </trkpt>
      <trkpt lat="45.04949" lon="6.29531">
        <ele>1783.2</ele>
        <time>2024-08-10T09:53:57Z</time>
      </trkpt>
      <trkpt lat="45.04949" lon="6.29534">
        <ele>1782.6</ele>
        <time>2024-08-10T09:53:58Z</time>
      </trkpt>
      <trkpt lat="45.04949" lon="6.29534">
        <ele>1782.4</ele>
        <time>2024-08-10T09:53:59Z</time>
      </trkpt>
      <trkpt lat="45.04949" lon="6.29538">
        <ele>1782.4</ele>
        <time>2024-08-10T09:54:00Z</time>
      </trkpt>
      <trkpt lat="45.04949" lon="6.29538">
        <ele>1782.2</ele>
        <time>2024-08-10T09:54:01Z</time>
      </trkpt>
      <trkpt lat="45.04948" lon="6.29542">
        <ele>1782</ele>
        <time>2024-08-10T09:54:02Z</time>
      </trkpt>
      <trkpt lat="45.04948" lon="6.29542">
        <ele>1781.8</ele>
        <time>2024-08-10T09:54:03Z</time>
      </trkpt>
      <trkpt lat="45.04948" lon="6.29542">
        <ele>1781.8</ele>
        <time>2024-08-10T09:54:04Z</time>
      </trkpt>
      <trkpt lat="45.04948" lon="6.29542">
        <ele>1781.8</ele>
        <time>2024-08-10T09:54:05Z</time>
      </trkpt>
      <trkpt lat="45.04948" lon="6.29542">
        <ele>1781.8</ele>
        <time>2024-08-10T09:54:06Z</time>
      </trkpt>
      <trkpt lat="45.04948" lon="6.29542">
        <ele>1781.8</ele>
        <time>2024-08-10T09:54:07Z</time>
      </trkpt>
      <trkpt lat="45.04948" lon="6.29542">
        <ele>1781.8</ele>
        <time>2024-08-10T09:54:08Z</time>
      </trkpt>
      <trkpt lat="45.04948" lon="6.29542">
        <ele>1781.8</ele>
        <time>2024-08-10T09:54:09Z</time>
      </trkpt>
      <trkpt lat="45.04948" lon="6.29542">
        <ele>1782</ele>
        <time>2024-08-10T09:54:10Z</time>
      </trkpt>
      <trkpt lat="45.04948" lon="6.29542">
        <ele>1782.2</ele>
        <time>2024-08-10T09:54:11Z</time>
      </trkpt>
      <trkpt lat="45.04948" lon="6.29542">
        <ele>1782.2</ele>
        <time>2024-08-10T09:54:12Z</time>
      </trkpt>
      <trkpt lat="45.04948" lon="6.29542">
        <ele>1782.2</ele>
        <time>2024-08-10T09:54:13Z</time>
      </trkpt>
      <trkpt lat="45.04948" lon="6.29542">
        <ele>1782.2</ele>
        <time>2024-08-10T09:54:14Z</time>
      </trkpt>
      <trkpt lat="45.04948" lon="6.29542">
        <ele>1781.8</ele>
        <time>2024-08-10T09:54:15Z</time>
      </trkpt>
      <trkpt lat="45.04948" lon="6.29542">
        <ele>1781.8</ele>
        <time>2024-08-10T09:54:16Z</time>
      </trkpt>
      <trkpt lat="45.04948" lon="6.29542">
        <ele>1782</ele>
        <time>2024-08-10T09:54:17Z</time>
      </trkpt>
      <trkpt lat="45.04948" lon="6.29542">
        <ele>1782</ele>
        <time>2024-08-10T09:54:18Z</time>
      </trkpt>
      <trkpt lat="45.04948" lon="6.29542">
        <ele>1782</ele>
        <time>2024-08-10T09:54:19Z</time>
      </trkpt>
      <trkpt lat="45.04948" lon="6.29542">
        <ele>1782.2</ele>
        <time>2024-08-10T09:54:20Z</time>
      </trkpt>
      <trkpt lat="45.04948" lon="6.29542">
        <ele>1782.6</ele>
        <time>2024-08-10T09:54:21Z</time>
      </trkpt>
      <trkpt lat="45.04948" lon="6.29542">
        <ele>1782.6</ele>
        <time>2024-08-10T09:54:22Z</time>
      </trkpt>
      <trkpt lat="45.04948" lon="6.29542">
        <ele>1782.6</ele>
        <time>2024-08-10T09:54:23Z</time>
      </trkpt>
      <trkpt lat="45.04948" lon="6.29542">
        <ele>1782.6</ele>
        <time>2024-08-10T09:54:24Z</time>
      </trkpt>
      <trkpt lat="45.04948" lon="6.29542">
        <ele>1782.6</ele>
        <time>2024-08-10T09:54:25Z</time>
      </trkpt>
      <trkpt lat="45.04948" lon="6.29542">
        <ele>1782.8</ele>
        <time>2024-08-10T09:54:26Z</time>
      </trkpt>
      <trkpt lat="45.04948" lon="6.29542">
        <ele>1782.8</ele>
        <time>2024-08-10T09:54:27Z</time>
      </trkpt>
      <trkpt lat="45.04948" lon="6.29542">
        <ele>1782.8</ele>
        <time>2024-08-10T09:54:28Z</time>
      </trkpt>
      <trkpt lat="45.04948" lon="6.29542">
        <ele>1782.6</ele>
        <time>2024-08-10T09:54:29Z</time>
      </trkpt>
      <trkpt lat="45.04948" lon="6.29542">
        <ele>1782.6</ele>
        <time>2024-08-10T09:54:30Z</time>
      </trkpt>
      <trkpt lat="45.04948" lon="6.29542">
        <ele>1782.6</ele>
        <time>2024-08-10T09:54:31Z</time>
      </trkpt>
      <trkpt lat="45.04948" lon="6.29542">
        <ele>1782.6</ele>
        <time>2024-08-10T09:54:32Z</time>
      </trkpt>
      <trkpt lat="45.04948" lon="6.29542">
        <ele>1782.6</ele>
        <time>2024-08-10T09:54:33Z</time>
      </trkpt>
      <trkpt lat="45.04948" lon="6.29542">
        <ele>1782.6</ele>
        <time>2024-08-10T09:54:34Z</time>
      </trkpt>
      <trkpt lat="45.04948" lon="6.29542">
        <ele>1782.4</ele>
        <time>2024-08-10T09:54:35Z</time>
      </trkpt>
      <trkpt lat="45.04948" lon="6.29542">
        <ele>1782.2</ele>
        <time>2024-08-10T09:54:36Z</time>
      </trkpt>
      <trkpt lat="45.04948" lon="6.29542">
        <ele>1782</ele>
        <time>2024-08-10T09:54:37Z</time>
      </trkpt>
      <trkpt lat="45.04948" lon="6.29542">
        <ele>1782</ele>
        <time>2024-08-10T09:54:38Z</time>
      </trkpt>
      <trkpt lat="45.04948" lon="6.29542">
        <ele>1782.4</ele>
        <time>2024-08-10T09:54:39Z</time>
      </trkpt>
      <trkpt lat="45.04948" lon="6.29542">
        <ele>1782.4</ele>
        <time>2024-08-10T09:54:40Z</time>
      </trkpt>
      <trkpt lat="45.04948" lon="6.29542">
        <ele>1782.2</ele>
        <time>2024-08-10T09:54:41Z</time>
      </trkpt>
      <trkpt lat="45.04948" lon="6.29542">
        <ele>1782</ele>
        <time>2024-08-10T09:54:42Z</time>
      </trkpt>
      <trkpt lat="45.04946" lon="6.29541">
        <ele>1782</ele>
        <time>2024-08-10T09:54:43Z</time>
      </trkpt>
      <trkpt lat="45.04946" lon="6.29541">
        <ele>1782.2</ele>
        <time>2024-08-10T09:54:44Z</time>
      </trkpt>
      <trkpt lat="45.04945" lon="6.29536">
        <ele>1782.2</ele>
        <time>2024-08-10T09:54:45Z</time>
      </trkpt>
      <trkpt lat="45.04945" lon="6.29536">
        <ele>1782.2</ele>
        <time>2024-08-10T09:54:46Z</time>
      </trkpt>
      <trkpt lat="45.04943" lon="6.29533">
        <ele>1782</ele>
        <time>2024-08-10T09:54:47Z</time>
      </trkpt>
      <trkpt lat="45.04943" lon="6.29533">
        <ele>1782</ele>
        <time>2024-08-10T09:54:48Z</time>
      </trkpt>
      <trkpt lat="45.04941" lon="6.29532">
        <ele>1781.8</ele>
        <time>2024-08-10T09:54:49Z</time>
      </trkpt>
      <trkpt lat="45.04941" lon="6.29532">
        <ele>1781.6</ele>
        <time>2024-08-10T09:54:50Z</time>
      </trkpt>
      <trkpt lat="45.0494" lon="6.29534">
        <ele>1781.2</ele>
        <time>2024-08-10T09:54:51Z</time>
      </trkpt>
      <trkpt lat="45.0494" lon="6.29534">
        <ele>1781</ele>
        <time>2024-08-10T09:54:52Z</time>
      </trkpt>
      <trkpt lat="45.04938" lon="6.29537">
        <ele>1780.8</ele>
        <time>2024-08-10T09:54:53Z</time>
      </trkpt>
      <trkpt lat="45.04938" lon="6.29537">
        <ele>1780.4</ele>
        <time>2024-08-10T09:54:54Z</time>
      </trkpt>
      <trkpt lat="45.04936" lon="6.29539">
        <ele>1780.2</ele>
        <time>2024-08-10T09:54:55Z</time>
      </trkpt>
      <trkpt lat="45.04936" lon="6.29539">
        <ele>1780</ele>
        <time>2024-08-10T09:54:56Z</time>
      </trkpt>
      <trkpt lat="45.04935" lon="6.29542">
        <ele>1779.6</ele>
        <time>2024-08-10T09:54:57Z</time>
      </trkpt>
      <trkpt lat="45.04935" lon="6.29542">
        <ele>1779.4</ele>
        <time>2024-08-10T09:54:58Z</time>
      </trkpt>
      <trkpt lat="45.04933" lon="6.29545">
        <ele>1779.2</ele>
        <time>2024-08-10T09:54:59Z</time>
      </trkpt>
      <trkpt lat="45.04933" lon="6.29545">
        <ele>1778.8</ele>
        <time>2024-08-10T09:55:00Z</time>
      </trkpt>
      <trkpt lat="45.04933" lon="6.29545">
        <ele>1778.2</ele>
        <time>2024-08-10T09:55:01Z</time>
      </trkpt>
      <trkpt lat="45.04933" lon="6.29548">
        <ele>1777.8</ele>
        <time>2024-08-10T09:55:02Z</time>
      </trkpt>
      <trkpt lat="45.04933" lon="6.29548">
        <ele>1777.2</ele>
        <time>2024-08-10T09:55:03Z</time>
      </trkpt>
      <trkpt lat="45.04932" lon="6.29551">
        <ele>1777.2</ele>
        <time>2024-08-10T09:55:04Z</time>
      </trkpt>
      <trkpt lat="45.04932" lon="6.29551">
        <ele>1777.2</ele>
        <time>2024-08-10T09:55:05Z</time>
      </trkpt>
      <trkpt lat="45.04932" lon="6.29551">
        <ele>1776.6</ele>
        <time>2024-08-10T09:55:06Z</time>
      </trkpt>
      <trkpt lat="45.0493" lon="6.29554">
        <ele>1776.4</ele>
        <time>2024-08-10T09:55:07Z</time>
      </trkpt>
      <trkpt lat="45.0493" lon="6.29554">
        <ele>1776.2</ele>
        <time>2024-08-10T09:55:08Z</time>
      </trkpt>
      <trkpt lat="45.0493" lon="6.29554">
        <ele>1775.8</ele>
        <time>2024-08-10T09:55:09Z</time>
      </trkpt>
      <trkpt lat="45.04928" lon="6.29555">
        <ele>1775.4</ele>
        <time>2024-08-10T09:55:10Z</time>
      </trkpt>
      <trkpt lat="45.04928" lon="6.29555">
        <ele>1775.2</ele>
        <time>2024-08-10T09:55:11Z</time>
      </trkpt>
      <trkpt lat="45.04925" lon="6.29555">
        <ele>1775</ele>
        <time>2024-08-10T09:55:12Z</time>
      </trkpt>
      <trkpt lat="45.04925" lon="6.29555">
        <ele>1774.8</ele>
        <time>2024-08-10T09:55:13Z</time>
      </trkpt>
      <trkpt lat="45.04923" lon="6.29556">
        <ele>1774.6</ele>
        <time>2024-08-10T09:55:14Z</time>
      </trkpt>
      <trkpt lat="45.04923" lon="6.29556">
        <ele>1774.2</ele>
        <time>2024-08-10T09:55:15Z</time>
      </trkpt>
      <trkpt lat="45.04919" lon="6.29556">
        <ele>1773.8</ele>
        <time>2024-08-10T09:55:16Z</time>
      </trkpt>
      <trkpt lat="45.04919" lon="6.29556">
        <ele>1773.6</ele>
        <time>2024-08-10T09:55:17Z</time>
      </trkpt>
      <trkpt lat="45.04919" lon="6.29556">
        <ele>1773.2</ele>
        <time>2024-08-10T09:55:18Z</time>
      </trkpt>
      <trkpt lat="45.04917" lon="6.29555">
        <ele>1772.8</ele>
        <time>2024-08-10T09:55:19Z</time>
      </trkpt>
      <trkpt lat="45.04917" lon="6.29555">
        <ele>1772.4</ele>
        <time>2024-08-10T09:55:20Z</time>
      </trkpt>
      <trkpt lat="45.04917" lon="6.29555">
        <ele>1772</ele>
        <time>2024-08-10T09:55:21Z</time>
      </trkpt>
      <trkpt lat="45.04913" lon="6.29555">
        <ele>1771.6</ele>
        <time>2024-08-10T09:55:22Z</time>
      </trkpt>
      <trkpt lat="45.04913" lon="6.29555">
        <ele>1771.4</ele>
        <time>2024-08-10T09:55:23Z</time>
      </trkpt>
      <trkpt lat="45.04911" lon="6.29553">
        <ele>1771.2</ele>
        <time>2024-08-10T09:55:24Z</time>
      </trkpt>
      <trkpt lat="45.04911" lon="6.29553">
        <ele>1771</ele>
        <time>2024-08-10T09:55:25Z</time>
      </trkpt>
      <trkpt lat="45.04909" lon="6.29553">
        <ele>1770.6</ele>
        <time>2024-08-10T09:55:26Z</time>
      </trkpt>
      <trkpt lat="45.04909" lon="6.29553">
        <ele>1770.4</ele>
        <time>2024-08-10T09:55:27Z</time>
      </trkpt>
      <trkpt lat="45.04907" lon="6.29554">
        <ele>1770</ele>
        <time>2024-08-10T09:55:28Z</time>
      </trkpt>
      <trkpt lat="45.04907" lon="6.29554">
        <ele>1769.6</ele>
        <time>2024-08-10T09:55:29Z</time>
      </trkpt>
      <trkpt lat="45.04907" lon="6.29554">
        <ele>1769.2</ele>
        <time>2024-08-10T09:55:30Z</time>
      </trkpt>
      <trkpt lat="45.04904" lon="6.29554">
        <ele>1768.8</ele>
        <time>2024-08-10T09:55:31Z</time>
      </trkpt>
      <trkpt lat="45.04904" lon="6.29554">
        <ele>1768.6</ele>
        <time>2024-08-10T09:55:32Z</time>
      </trkpt>
      <trkpt lat="45.04902" lon="6.29554">
        <ele>1768.2</ele>
        <time>2024-08-10T09:55:33Z</time>
      </trkpt>
      <trkpt lat="45.04902" lon="6.29554">
        <ele>1768</ele>
        <time>2024-08-10T09:55:34Z</time>
      </trkpt>
      <trkpt lat="45.04899" lon="6.29554">
        <ele>1768</ele>
        <time>2024-08-10T09:55:35Z</time>
      </trkpt>
      <trkpt lat="45.04899" lon="6.29554">
        <ele>1767.8</ele>
        <time>2024-08-10T09:55:36Z</time>
      </trkpt>
      <trkpt lat="45.04896" lon="6.29553">
        <ele>1767.4</ele>
        <time>2024-08-10T09:55:37Z</time>
      </trkpt>
      <trkpt lat="45.04896" lon="6.29553">
        <ele>1767</ele>
        <time>2024-08-10T09:55:38Z</time>
      </trkpt>
      <trkpt lat="45.04894" lon="6.29552">
        <ele>1766.6</ele>
        <time>2024-08-10T09:55:39Z</time>
      </trkpt>
      <trkpt lat="45.04894" lon="6.29552">
        <ele>1766.4</ele>
        <time>2024-08-10T09:55:40Z</time>
      </trkpt>
      <trkpt lat="45.04892" lon="6.2955">
        <ele>1765.8</ele>
        <time>2024-08-10T09:55:41Z</time>
      </trkpt>
      <trkpt lat="45.04892" lon="6.2955">
        <ele>1765.4</ele>
        <time>2024-08-10T09:55:42Z</time>
      </trkpt>
      <trkpt lat="45.04889" lon="6.29549">
        <ele>1765</ele>
        <time>2024-08-10T09:55:43Z</time>
      </trkpt>
      <trkpt lat="45.04889" lon="6.29549">
        <ele>1765</ele>
        <time>2024-08-10T09:55:44Z</time>
      </trkpt>
      <trkpt lat="45.04887" lon="6.29545">
        <ele>1764.6</ele>
        <time>2024-08-10T09:55:45Z</time>
      </trkpt>
      <trkpt lat="45.04887" lon="6.29545">
        <ele>1764.2</ele>
        <time>2024-08-10T09:55:46Z</time>
      </trkpt>
      <trkpt lat="45.04887" lon="6.29542">
        <ele>1763.8</ele>
        <time>2024-08-10T09:55:47Z</time>
      </trkpt>
      <trkpt lat="45.04887" lon="6.29542">
        <ele>1763.6</ele>
        <time>2024-08-10T09:55:48Z</time>
      </trkpt>
      <trkpt lat="45.04887" lon="6.29542">
        <ele>1763.4</ele>
        <time>2024-08-10T09:55:49Z</time>
      </trkpt>
      <trkpt lat="45.04886" lon="6.29538">
        <ele>1763.2</ele>
        <time>2024-08-10T09:55:50Z</time>
      </trkpt>
      <trkpt lat="45.04886" lon="6.29538">
        <ele>1763.2</ele>
        <time>2024-08-10T09:55:51Z</time>
      </trkpt>
      <trkpt lat="45.04886" lon="6.29538">
        <ele>1763</ele>
        <time>2024-08-10T09:55:52Z</time>
      </trkpt>
      <trkpt lat="45.04884" lon="6.29536">
        <ele>1762.6</ele>
        <time>2024-08-10T09:55:53Z</time>
      </trkpt>
      <trkpt lat="45.04884" lon="6.29536">
        <ele>1762.4</ele>
        <time>2024-08-10T09:55:54Z</time>
      </trkpt>
      <trkpt lat="45.04882" lon="6.29535">
        <ele>1761.8</ele>
        <time>2024-08-10T09:55:55Z</time>
      </trkpt>
      <trkpt lat="45.04882" lon="6.29535">
        <ele>1761.6</ele>
        <time>2024-08-10T09:55:56Z</time>
      </trkpt>
      <trkpt lat="45.0488" lon="6.29533">
        <ele>1761</ele>
        <time>2024-08-10T09:55:57Z</time>
      </trkpt>
      <trkpt lat="45.0488" lon="6.29533">
        <ele>1760.8</ele>
        <time>2024-08-10T09:55:58Z</time>
      </trkpt>
      <trkpt lat="45.0488" lon="6.29533">
        <ele>1760.6</ele>
        <time>2024-08-10T09:55:59Z</time>
      </trkpt>
      <trkpt lat="45.04878" lon="6.29533">
        <ele>1760.4</ele>
        <time>2024-08-10T09:56:00Z</time>
      </trkpt>
      <trkpt lat="45.04878" lon="6.29533">
        <ele>1760.2</ele>
        <time>2024-08-10T09:56:01Z</time>
      </trkpt>
      <trkpt lat="45.04875" lon="6.29533">
        <ele>1759.8</ele>
        <time>2024-08-10T09:56:02Z</time>
      </trkpt>
      <trkpt lat="45.04875" lon="6.29533">
        <ele>1759.2</ele>
        <time>2024-08-10T09:56:03Z</time>
      </trkpt>
      <trkpt lat="45.04875" lon="6.29533">
        <ele>1759.2</ele>
        <time>2024-08-10T09:56:04Z</time>
      </trkpt>
      <trkpt lat="45.04873" lon="6.29533">
        <ele>1758.8</ele>
        <time>2024-08-10T09:56:05Z</time>
      </trkpt>
      <trkpt lat="45.04873" lon="6.29533">
        <ele>1758.2</ele>
        <time>2024-08-10T09:56:06Z</time>
      </trkpt>
      <trkpt lat="45.0487" lon="6.29532">
        <ele>1757.8</ele>
        <time>2024-08-10T09:56:07Z</time>
      </trkpt>
      <trkpt lat="45.0487" lon="6.29532">
        <ele>1757.4</ele>
        <time>2024-08-10T09:56:08Z</time>
      </trkpt>
      <trkpt lat="45.0487" lon="6.29532">
        <ele>1757.2</ele>
        <time>2024-08-10T09:56:09Z</time>
      </trkpt>
      <trkpt lat="45.04867" lon="6.29533">
        <ele>1756.8</ele>
        <time>2024-08-10T09:56:10Z</time>
      </trkpt>
      <trkpt lat="45.04867" lon="6.29533">
        <ele>1756.4</ele>
        <time>2024-08-10T09:56:11Z</time>
      </trkpt>
      <trkpt lat="45.04865" lon="6.29535">
        <ele>1756</ele>
        <time>2024-08-10T09:56:12Z</time>
      </trkpt>
      <trkpt lat="45.04863" lon="6.29536">
        <ele>1755.4</ele>
        <time>2024-08-10T09:56:13Z</time>
      </trkpt>
      <trkpt lat="45.04863" lon="6.29536">
        <ele>1755.2</ele>
        <time>2024-08-10T09:56:14Z</time>
      </trkpt>
      <trkpt lat="45.0486" lon="6.29537">
        <ele>1755</ele>
        <time>2024-08-10T09:56:15Z</time>
      </trkpt>
      <trkpt lat="45.0486" lon="6.29537">
        <ele>1754.8</ele>
        <time>2024-08-10T09:56:16Z</time>
      </trkpt>
      <trkpt lat="45.04858" lon="6.29538">
        <ele>1754.2</ele>
        <time>2024-08-10T09:56:17Z</time>
      </trkpt>
      <trkpt lat="45.04858" lon="6.29538">
        <ele>1753.8</ele>
        <time>2024-08-10T09:56:18Z</time>
      </trkpt>
      <trkpt lat="45.04856" lon="6.29539">
        <ele>1753.6</ele>
        <time>2024-08-10T09:56:19Z</time>
      </trkpt>
      <trkpt lat="45.04856" lon="6.29539">
        <ele>1753.2</ele>
        <time>2024-08-10T09:56:20Z</time>
      </trkpt>
      <trkpt lat="45.04854" lon="6.29542">
        <ele>1753</ele>
        <time>2024-08-10T09:56:21Z</time>
      </trkpt>
      <trkpt lat="45.04854" lon="6.29542">
        <ele>1752.6</ele>
        <time>2024-08-10T09:56:22Z</time>
      </trkpt>
      <trkpt lat="45.04854" lon="6.29542">
        <ele>1752.2</ele>
        <time>2024-08-10T09:56:23Z</time>
      </trkpt>
      <trkpt lat="45.04852" lon="6.29542">
        <ele>1752.2</ele>
        <time>2024-08-10T09:56:24Z</time>
      </trkpt>
      <trkpt lat="45.04852" lon="6.29542">
        <ele>1752</ele>
        <time>2024-08-10T09:56:25Z</time>
      </trkpt>
      <trkpt lat="45.0485" lon="6.29543">
        <ele>1751.8</ele>
        <time>2024-08-10T09:56:26Z</time>
      </trkpt>
      <trkpt lat="45.0485" lon="6.29543">
        <ele>1751.4</ele>
        <time>2024-08-10T09:56:27Z</time>
      </trkpt>
      <trkpt lat="45.04848" lon="6.29543">
        <ele>1750.8</ele>
        <time>2024-08-10T09:56:28Z</time>
      </trkpt>
      <trkpt lat="45.04848" lon="6.29543">
        <ele>1750.6</ele>
        <time>2024-08-10T09:56:29Z</time>
      </trkpt>
      <trkpt lat="45.04848" lon="6.29543">
        <ele>1750</ele>
        <time>2024-08-10T09:56:30Z</time>
      </trkpt>
      <trkpt lat="45.04846" lon="6.29546">
        <ele>1750</ele>
        <time>2024-08-10T09:56:31Z</time>
      </trkpt>
      <trkpt lat="45.04846" lon="6.29546">
        <ele>1749.6</ele>
        <time>2024-08-10T09:56:32Z</time>
      </trkpt>
      <trkpt lat="45.04845" lon="6.29548">
        <ele>1749.4</ele>
        <time>2024-08-10T09:56:33Z</time>
      </trkpt>
      <trkpt lat="45.04845" lon="6.29548">
        <ele>1749</ele>
        <time>2024-08-10T09:56:34Z</time>
      </trkpt>
      <trkpt lat="45.04845" lon="6.29551">
        <ele>1748.6</ele>
        <time>2024-08-10T09:56:35Z</time>
      </trkpt>
      <trkpt lat="45.04845" lon="6.29551">
        <ele>1748.6</ele>
        <time>2024-08-10T09:56:36Z</time>
      </trkpt>
      <trkpt lat="45.04846" lon="6.29554">
        <ele>1748</ele>
        <time>2024-08-10T09:56:37Z</time>
      </trkpt>
      <trkpt lat="45.04846" lon="6.29554">
        <ele>1747.6</ele>
        <time>2024-08-10T09:56:38Z</time>
      </trkpt>
      <trkpt lat="45.04846" lon="6.29557">
        <ele>1747.2</ele>
        <time>2024-08-10T09:56:39Z</time>
      </trkpt>
      <trkpt lat="45.04846" lon="6.29557">
        <ele>1747.2</ele>
        <time>2024-08-10T09:56:40Z</time>
      </trkpt>
      <trkpt lat="45.04846" lon="6.2956">
        <ele>1746.6</ele>
        <time>2024-08-10T09:56:41Z</time>
      </trkpt>
      <trkpt lat="45.04846" lon="6.2956">
        <ele>1746.6</ele>
        <time>2024-08-10T09:56:42Z</time>
      </trkpt>
      <trkpt lat="45.04845" lon="6.29563">
        <ele>1746.2</ele>
        <time>2024-08-10T09:56:43Z</time>
      </trkpt>
      <trkpt lat="45.04845" lon="6.29563">
        <ele>1746</ele>
        <time>2024-08-10T09:56:44Z</time>
      </trkpt>
      <trkpt lat="45.04845" lon="6.29566">
        <ele>1745.6</ele>
        <time>2024-08-10T09:56:45Z</time>
      </trkpt>
      <trkpt lat="45.04845" lon="6.29566">
        <ele>1745.2</ele>
        <time>2024-08-10T09:56:46Z</time>
      </trkpt>
      <trkpt lat="45.04845" lon="6.29569">
        <ele>1745</ele>
        <time>2024-08-10T09:56:47Z</time>
      </trkpt>
      <trkpt lat="45.04845" lon="6.29569">
        <ele>1744.6</ele>
        <time>2024-08-10T09:56:48Z</time>
      </trkpt>
      <trkpt lat="45.04845" lon="6.29571">
        <ele>1744.2</ele>
        <time>2024-08-10T09:56:49Z</time>
      </trkpt>
      <trkpt lat="45.04845" lon="6.29571">
        <ele>1743.6</ele>
        <time>2024-08-10T09:56:50Z</time>
      </trkpt>
      <trkpt lat="45.04845" lon="6.29574">
        <ele>1743.2</ele>
        <time>2024-08-10T09:56:51Z</time>
      </trkpt>
      <trkpt lat="45.04845" lon="6.29574">
        <ele>1742.8</ele>
        <time>2024-08-10T09:56:52Z</time>
      </trkpt>
      <trkpt lat="45.04844" lon="6.29577">
        <ele>1742.4</ele>
        <time>2024-08-10T09:56:53Z</time>
      </trkpt>
      <trkpt lat="45.04844" lon="6.29577">
        <ele>1742.2</ele>
        <time>2024-08-10T09:56:54Z</time>
      </trkpt>
      <trkpt lat="45.04844" lon="6.29577">
        <ele>1741.8</ele>
        <time>2024-08-10T09:56:55Z</time>
      </trkpt>
      <trkpt lat="45.04844" lon="6.29577">
        <ele>1741.4</ele>
        <time>2024-08-10T09:56:56Z</time>
      </trkpt>
      <trkpt lat="45.04844" lon="6.29577">
        <ele>1741</ele>
        <time>2024-08-10T09:56:57Z</time>
      </trkpt>
      <trkpt lat="45.04844" lon="6.29577">
        <ele>1740.4</ele>
        <time>2024-08-10T09:56:58Z</time>
      </trkpt>
      <trkpt lat="45.04844" lon="6.29577">
        <ele>1740.4</ele>
        <time>2024-08-10T09:56:59Z</time>
      </trkpt>
      <trkpt lat="45.04844" lon="6.29577">
        <ele>1740.2</ele>
        <time>2024-08-10T09:57:00Z</time>
      </trkpt>
      <trkpt lat="45.04842" lon="6.2958">
        <ele>1740.2</ele>
        <time>2024-08-10T09:57:01Z</time>
      </trkpt>
      <trkpt lat="45.04842" lon="6.2958">
        <ele>1740.4</ele>
        <time>2024-08-10T09:57:02Z</time>
      </trkpt>
      <trkpt lat="45.04842" lon="6.2958">
        <ele>1740.4</ele>
        <time>2024-08-10T09:57:03Z</time>
      </trkpt>
      <trkpt lat="45.04842" lon="6.29583">
        <ele>1740.4</ele>
        <time>2024-08-10T09:57:04Z</time>
      </trkpt>
      <trkpt lat="45.04842" lon="6.29583">
        <ele>1740</ele>
        <time>2024-08-10T09:57:05Z</time>
      </trkpt>
      <trkpt lat="45.04842" lon="6.29587">
        <ele>1739.8</ele>
        <time>2024-08-10T09:57:06Z</time>
      </trkpt>
      <trkpt lat="45.04842" lon="6.29587">
        <ele>1739.4</ele>
        <time>2024-08-10T09:57:07Z</time>
      </trkpt>
      <trkpt lat="45.04841" lon="6.2959">
        <ele>1739</ele>
        <time>2024-08-10T09:57:08Z</time>
      </trkpt>
      <trkpt lat="45.04841" lon="6.2959">
        <ele>1738.6</ele>
        <time>2024-08-10T09:57:09Z</time>
      </trkpt>
      <trkpt lat="45.0484" lon="6.29593">
        <ele>1738.4</ele>
        <time>2024-08-10T09:57:10Z</time>
      </trkpt>
      <trkpt lat="45.0484" lon="6.29593">
        <ele>1738</ele>
        <time>2024-08-10T09:57:11Z</time>
      </trkpt>
      <trkpt lat="45.0484" lon="6.29596">
        <ele>1737.8</ele>
        <time>2024-08-10T09:57:12Z</time>
      </trkpt>
      <trkpt lat="45.0484" lon="6.29596">
        <ele>1737.6</ele>
        <time>2024-08-10T09:57:13Z</time>
      </trkpt>
      <trkpt lat="45.0484" lon="6.29599">
        <ele>1737.2</ele>
        <time>2024-08-10T09:57:14Z</time>
      </trkpt>
      <trkpt lat="45.0484" lon="6.29599">
        <ele>1736.8</ele>
        <time>2024-08-10T09:57:15Z</time>
      </trkpt>
      <trkpt lat="45.0484" lon="6.29602">
        <ele>1736.4</ele>
        <time>2024-08-10T09:57:16Z</time>
      </trkpt>
      <trkpt lat="45.0484" lon="6.29602">
        <ele>1736.2</ele>
        <time>2024-08-10T09:57:17Z</time>
      </trkpt>
      <trkpt lat="45.0484" lon="6.29605">
        <ele>1736</ele>
        <time>2024-08-10T09:57:18Z</time>
      </trkpt>
      <trkpt lat="45.0484" lon="6.29605">
        <ele>1735.6</ele>
        <time>2024-08-10T09:57:19Z</time>
      </trkpt>
      <trkpt lat="45.04839" lon="6.29609">
        <ele>1735.4</ele>
        <time>2024-08-10T09:57:20Z</time>
      </trkpt>
      <trkpt lat="45.04839" lon="6.29609">
        <ele>1735.2</ele>
        <time>2024-08-10T09:57:21Z</time>
      </trkpt>
      <trkpt lat="45.04839" lon="6.29611">
        <ele>1734.8</ele>
        <time>2024-08-10T09:57:22Z</time>
      </trkpt>
      <trkpt lat="45.04839" lon="6.29611">
        <ele>1734.8</ele>
        <time>2024-08-10T09:57:23Z</time>
      </trkpt>
      <trkpt lat="45.04839" lon="6.29615">
        <ele>1734.6</ele>
        <time>2024-08-10T09:57:24Z</time>
      </trkpt>
      <trkpt lat="45.04839" lon="6.29615">
        <ele>1734.6</ele>
        <time>2024-08-10T09:57:25Z</time>
      </trkpt>
      <trkpt lat="45.04839" lon="6.29618">
        <ele>1734.2</ele>
        <time>2024-08-10T09:57:26Z</time>
      </trkpt>
      <trkpt lat="45.04839" lon="6.29618">
        <ele>1733.8</ele>
        <time>2024-08-10T09:57:27Z</time>
      </trkpt>
      <trkpt lat="45.04839" lon="6.29621">
        <ele>1733.8</ele>
        <time>2024-08-10T09:57:28Z</time>
      </trkpt>
      <trkpt lat="45.04839" lon="6.29621">
        <ele>1733.4</ele>
        <time>2024-08-10T09:57:29Z</time>
      </trkpt>
      <trkpt lat="45.04839" lon="6.29624">
        <ele>1733.2</ele>
        <time>2024-08-10T09:57:30Z</time>
      </trkpt>
      <trkpt lat="45.04839" lon="6.29624">
        <ele>1732.8</ele>
        <time>2024-08-10T09:57:31Z</time>
      </trkpt>
      <trkpt lat="45.04838" lon="6.29627">
        <ele>1732.6</ele>
        <time>2024-08-10T09:57:32Z</time>
      </trkpt>
      <trkpt lat="45.04838" lon="6.29627">
        <ele>1732.4</ele>
        <time>2024-08-10T09:57:33Z</time>
      </trkpt>
      <trkpt lat="45.04838" lon="6.2963">
        <ele>1732.2</ele>
        <time>2024-08-10T09:57:34Z</time>
      </trkpt>
      <trkpt lat="45.04838" lon="6.2963">
        <ele>1732</ele>
        <time>2024-08-10T09:57:35Z</time>
      </trkpt>
      <trkpt lat="45.04838" lon="6.29633">
        <ele>1731.8</ele>
        <time>2024-08-10T09:57:36Z</time>
      </trkpt>
      <trkpt lat="45.04838" lon="6.29633">
        <ele>1731.6</ele>
        <time>2024-08-10T09:57:37Z</time>
      </trkpt>
      <trkpt lat="45.04838" lon="6.29636">
        <ele>1731.2</ele>
        <time>2024-08-10T09:57:38Z</time>
      </trkpt>
      <trkpt lat="45.04838" lon="6.29636">
        <ele>1730.8</ele>
        <time>2024-08-10T09:57:39Z</time>
      </trkpt>
      <trkpt lat="45.04838" lon="6.29639">
        <ele>1730.4</ele>
        <time>2024-08-10T09:57:40Z</time>
      </trkpt>
      <trkpt lat="45.04838" lon="6.29639">
        <ele>1730.2</ele>
        <time>2024-08-10T09:57:41Z</time>
      </trkpt>
      <trkpt lat="45.04839" lon="6.29642">
        <ele>1730</ele>
        <time>2024-08-10T09:57:42Z</time>
      </trkpt>
      <trkpt lat="45.04839" lon="6.29642">
        <ele>1730</ele>
        <time>2024-08-10T09:57:43Z</time>
      </trkpt>
      <trkpt lat="45.04838" lon="6.29645">
        <ele>1729.4</ele>
        <time>2024-08-10T09:57:44Z</time>
      </trkpt>
      <trkpt lat="45.04838" lon="6.29645">
        <ele>1729</ele>
        <time>2024-08-10T09:57:45Z</time>
      </trkpt>
      <trkpt lat="45.04838" lon="6.29645">
        <ele>1728.8</ele>
        <time>2024-08-10T09:57:46Z</time>
      </trkpt>
      <trkpt lat="45.04838" lon="6.29649">
        <ele>1728.4</ele>
        <time>2024-08-10T09:57:47Z</time>
      </trkpt>
      <trkpt lat="45.04838" lon="6.29649">
        <ele>1728.2</ele>
        <time>2024-08-10T09:57:48Z</time>
      </trkpt>
      <trkpt lat="45.04838" lon="6.29649">
        <ele>1728</ele>
        <time>2024-08-10T09:57:49Z</time>
      </trkpt>
      <trkpt lat="45.04837" lon="6.29652">
        <ele>1727.6</ele>
        <time>2024-08-10T09:57:50Z</time>
      </trkpt>
      <trkpt lat="45.04837" lon="6.29652">
        <ele>1727.4</ele>
        <time>2024-08-10T09:57:51Z</time>
      </trkpt>
      <trkpt lat="45.04837" lon="6.29652">
        <ele>1727</ele>
        <time>2024-08-10T09:57:52Z</time>
      </trkpt>
      <trkpt lat="45.04836" lon="6.29655">
        <ele>1726.8</ele>
        <time>2024-08-10T09:57:53Z</time>
      </trkpt>
      <trkpt lat="45.04836" lon="6.29655">
        <ele>1726.6</ele>
        <time>2024-08-10T09:57:54Z</time>
      </trkpt>
      <trkpt lat="45.04836" lon="6.29657">
        <ele>1726.2</ele>
        <time>2024-08-10T09:57:55Z</time>
      </trkpt>
      <trkpt lat="45.04836" lon="6.29657">
        <ele>1725.4</ele>
        <time>2024-08-10T09:57:56Z</time>
      </trkpt>
      <trkpt lat="45.04835" lon="6.2966">
        <ele>1725.2</ele>
        <time>2024-08-10T09:57:57Z</time>
      </trkpt>
      <trkpt lat="45.04835" lon="6.2966">
        <ele>1725.2</ele>
        <time>2024-08-10T09:57:58Z</time>
      </trkpt>
      <trkpt lat="45.04834" lon="6.29663">
        <ele>1725</ele>
        <time>2024-08-10T09:57:59Z</time>
      </trkpt>
      <trkpt lat="45.04834" lon="6.29663">
        <ele>1724.8</ele>
        <time>2024-08-10T09:58:00Z</time>
      </trkpt>
      <trkpt lat="45.04834" lon="6.29666">
        <ele>1724.4</ele>
        <time>2024-08-10T09:58:01Z</time>
      </trkpt>
      <trkpt lat="45.04834" lon="6.29666">
        <ele>1723.8</ele>
        <time>2024-08-10T09:58:02Z</time>
      </trkpt>
      <trkpt lat="45.04832" lon="6.29668">
        <ele>1723.6</ele>
        <time>2024-08-10T09:58:03Z</time>
      </trkpt>
      <trkpt lat="45.04832" lon="6.29668">
        <ele>1723.6</ele>
        <time>2024-08-10T09:58:04Z</time>
      </trkpt>
      <trkpt lat="45.04832" lon="6.29671">
        <ele>1723</ele>
        <time>2024-08-10T09:58:05Z</time>
      </trkpt>
      <trkpt lat="45.04832" lon="6.29671">
        <ele>1723</ele>
        <time>2024-08-10T09:58:06Z</time>
      </trkpt>
      <trkpt lat="45.04831" lon="6.29674">
        <ele>1723</ele>
        <time>2024-08-10T09:58:07Z</time>
      </trkpt>
      <trkpt lat="45.04831" lon="6.29674">
        <ele>1722.4</ele>
        <time>2024-08-10T09:58:08Z</time>
      </trkpt>
      <trkpt lat="45.04831" lon="6.29677">
        <ele>1722.2</ele>
        <time>2024-08-10T09:58:09Z</time>
      </trkpt>
      <trkpt lat="45.04831" lon="6.29677">
        <ele>1721.8</ele>
        <time>2024-08-10T09:58:10Z</time>
      </trkpt>
      <trkpt lat="45.0483" lon="6.2968">
        <ele>1721.4</ele>
        <time>2024-08-10T09:58:11Z</time>
      </trkpt>
      <trkpt lat="45.0483" lon="6.2968">
        <ele>1721</ele>
        <time>2024-08-10T09:58:12Z</time>
      </trkpt>
      <trkpt lat="45.0483" lon="6.29683">
        <ele>1720.8</ele>
        <time>2024-08-10T09:58:13Z</time>
      </trkpt>
      <trkpt lat="45.0483" lon="6.29683">
        <ele>1720.6</ele>
        <time>2024-08-10T09:58:14Z</time>
      </trkpt>
      <trkpt lat="45.0483" lon="6.29686">
        <ele>1720.4</ele>
        <time>2024-08-10T09:58:15Z</time>
      </trkpt>
      <trkpt lat="45.0483" lon="6.29686">
        <ele>1720</ele>
        <time>2024-08-10T09:58:16Z</time>
      </trkpt>
      <trkpt lat="45.04829" lon="6.29689">
        <ele>1719.6</ele>
        <time>2024-08-10T09:58:17Z</time>
      </trkpt>
      <trkpt lat="45.04829" lon="6.29689">
        <ele>1719.4</ele>
        <time>2024-08-10T09:58:18Z</time>
      </trkpt>
      <trkpt lat="45.04829" lon="6.29692">
        <ele>1719.2</ele>
        <time>2024-08-10T09:58:19Z</time>
      </trkpt>
      <trkpt lat="45.04829" lon="6.29692">
        <ele>1718.8</ele>
        <time>2024-08-10T09:58:20Z</time>
      </trkpt>
      <trkpt lat="45.04829" lon="6.29692">
        <ele>1718.4</ele>
        <time>2024-08-10T09:58:21Z</time>
      </trkpt>
      <trkpt lat="45.04829" lon="6.29692">
        <ele>1718</ele>
        <time>2024-08-10T09:58:22Z</time>
      </trkpt>
      <trkpt lat="45.04829" lon="6.29692">
        <ele>1718</ele>
        <time>2024-08-10T09:58:23Z</time>
      </trkpt>
      <trkpt lat="45.04829" lon="6.29692">
        <ele>1717.8</ele>
        <time>2024-08-10T09:58:24Z</time>
      </trkpt>
      <trkpt lat="45.04829" lon="6.29692">
        <ele>1717.6</ele>
        <time>2024-08-10T09:58:25Z</time>
      </trkpt>
      <trkpt lat="45.04829" lon="6.29692">
        <ele>1717.6</ele>
        <time>2024-08-10T09:58:26Z</time>
      </trkpt>
      <trkpt lat="45.04829" lon="6.29692">
        <ele>1717.6</ele>
        <time>2024-08-10T09:58:27Z</time>
      </trkpt>
      <trkpt lat="45.04829" lon="6.29692">
        <ele>1717.8</ele>
        <time>2024-08-10T09:58:28Z</time>
      </trkpt>
      <trkpt lat="45.04829" lon="6.29692">
        <ele>1717.8</ele>
        <time>2024-08-10T09:58:29Z</time>
      </trkpt>
      <trkpt lat="45.04829" lon="6.29692">
        <ele>1717.8</ele>
        <time>2024-08-10T09:58:30Z</time>
      </trkpt>
      <trkpt lat="45.04829" lon="6.29692">
        <ele>1717.6</ele>
        <time>2024-08-10T09:58:31Z</time>
      </trkpt>
      <trkpt lat="45.04829" lon="6.29692">
        <ele>1717.6</ele>
        <time>2024-08-10T09:58:32Z</time>
      </trkpt>
      <trkpt lat="45.04829" lon="6.29695">
        <ele>1717.6</ele>
        <time>2024-08-10T09:58:33Z</time>
      </trkpt>
      <trkpt lat="45.04829" lon="6.29695">
        <ele>1717.6</ele>
        <time>2024-08-10T09:58:34Z</time>
      </trkpt>
      <trkpt lat="45.04829" lon="6.29699">
        <ele>1717.6</ele>
        <time>2024-08-10T09:58:35Z</time>
      </trkpt>
      <trkpt lat="45.04829" lon="6.29699">
        <ele>1717.6</ele>
        <time>2024-08-10T09:58:36Z</time>
      </trkpt>
      <trkpt lat="45.04828" lon="6.29703">
        <ele>1717.4</ele>
        <time>2024-08-10T09:58:37Z</time>
      </trkpt>
      <trkpt lat="45.04828" lon="6.29703">
        <ele>1717</ele>
        <time>2024-08-10T09:58:38Z</time>
      </trkpt>
      <trkpt lat="45.04828" lon="6.29707">
        <ele>1716.8</ele>
        <time>2024-08-10T09:58:39Z</time>
      </trkpt>
      <trkpt lat="45.04828" lon="6.29707">
        <ele>1716.4</ele>
        <time>2024-08-10T09:58:40Z</time>
      </trkpt>
      <trkpt lat="45.04827" lon="6.2971">
        <ele>1716</ele>
        <time>2024-08-10T09:58:41Z</time>
      </trkpt>
      <trkpt lat="45.04827" lon="6.2971">
        <ele>1715.4</ele>
        <time>2024-08-10T09:58:42Z</time>
      </trkpt>
      <trkpt lat="45.04826" lon="6.29713">
        <ele>1715</ele>
        <time>2024-08-10T09:58:43Z</time>
      </trkpt>
      <trkpt lat="45.04826" lon="6.29713">
        <ele>1714.8</ele>
        <time>2024-08-10T09:58:44Z</time>
      </trkpt>
      <trkpt lat="45.04826" lon="6.29717">
        <ele>1714.6</ele>
        <time>2024-08-10T09:58:45Z</time>
      </trkpt>
      <trkpt lat="45.04826" lon="6.29717">
        <ele>1714.6</ele>
        <time>2024-08-10T09:58:46Z</time>
      </trkpt>
      <trkpt lat="45.04826" lon="6.2972">
        <ele>1714.4</ele>
        <time>2024-08-10T09:58:47Z</time>
      </trkpt>
      <trkpt lat="45.04826" lon="6.2972">
        <ele>1714</ele>
        <time>2024-08-10T09:58:48Z</time>
      </trkpt>
      <trkpt lat="45.04825" lon="6.29723">
        <ele>1713.8</ele>
        <time>2024-08-10T09:58:49Z</time>
      </trkpt>
      <trkpt lat="45.04825" lon="6.29723">
        <ele>1713.6</ele>
        <time>2024-08-10T09:58:50Z</time>
      </trkpt>
      <trkpt lat="45.04825" lon="6.29726">
        <ele>1713.2</ele>
        <time>2024-08-10T09:58:51Z</time>
      </trkpt>
      <trkpt lat="45.04825" lon="6.29726">
        <ele>1712.8</ele>
        <time>2024-08-10T09:58:52Z</time>
      </trkpt>
      <trkpt lat="45.04825" lon="6.29729">
        <ele>1712.6</ele>
        <time>2024-08-10T09:58:53Z</time>
      </trkpt>
      <trkpt lat="45.04825" lon="6.29729">
        <ele>1712.2</ele>
        <time>2024-08-10T09:58:54Z</time>
      </trkpt>
      <trkpt lat="45.04825" lon="6.29733">
        <ele>1712.2</ele>
        <time>2024-08-10T09:58:55Z</time>
      </trkpt>
      <trkpt lat="45.04825" lon="6.29733">
        <ele>1712</ele>
        <time>2024-08-10T09:58:56Z</time>
      </trkpt>
      <trkpt lat="45.04824" lon="6.29736">
        <ele>1712</ele>
        <time>2024-08-10T09:58:57Z</time>
      </trkpt>
      <trkpt lat="45.04824" lon="6.29736">
        <ele>1711.8</ele>
        <time>2024-08-10T09:58:58Z</time>
      </trkpt>
      <trkpt lat="45.04824" lon="6.2974">
        <ele>1711.6</ele>
        <time>2024-08-10T09:58:59Z</time>
      </trkpt>
      <trkpt lat="45.04824" lon="6.2974">
        <ele>1711.4</ele>
        <time>2024-08-10T09:59:00Z</time>
      </trkpt>
      <trkpt lat="45.04823" lon="6.29743">
        <ele>1711</ele>
        <time>2024-08-10T09:59:01Z</time>
      </trkpt>
      <trkpt lat="45.04823" lon="6.29743">
        <ele>1711</ele>
        <time>2024-08-10T09:59:02Z</time>
      </trkpt>
      <trkpt lat="45.04823" lon="6.29746">
        <ele>1710.4</ele>
        <time>2024-08-10T09:59:03Z</time>
      </trkpt>
      <trkpt lat="45.04823" lon="6.29746">
        <ele>1710.4</ele>
        <time>2024-08-10T09:59:04Z</time>
      </trkpt>
      <trkpt lat="45.04823" lon="6.2975">
        <ele>1710.2</ele>
        <time>2024-08-10T09:59:05Z</time>
      </trkpt>
      <trkpt lat="45.04823" lon="6.2975">
        <ele>1710</ele>
        <time>2024-08-10T09:59:06Z</time>
      </trkpt>
      <trkpt lat="45.04823" lon="6.29753">
        <ele>1709.8</ele>
        <time>2024-08-10T09:59:07Z</time>
      </trkpt>
      <trkpt lat="45.04823" lon="6.29753">
        <ele>1709.4</ele>
        <time>2024-08-10T09:59:08Z</time>
      </trkpt>
      <trkpt lat="45.04823" lon="6.29757">
        <ele>1709.2</ele>
        <time>2024-08-10T09:59:09Z</time>
      </trkpt>
      <trkpt lat="45.04823" lon="6.29757">
        <ele>1709.2</ele>
        <time>2024-08-10T09:59:10Z</time>
      </trkpt>
      <trkpt lat="45.04824" lon="6.2976">
        <ele>1709</ele>
        <time>2024-08-10T09:59:11Z</time>
      </trkpt>
      <trkpt lat="45.04824" lon="6.2976">
        <ele>1708.8</ele>
        <time>2024-08-10T09:59:12Z</time>
      </trkpt>
      <trkpt lat="45.04824" lon="6.29763">
        <ele>1708.2</ele>
        <time>2024-08-10T09:59:13Z</time>
      </trkpt>
      <trkpt lat="45.04824" lon="6.29763">
        <ele>1707.8</ele>
        <time>2024-08-10T09:59:14Z</time>
      </trkpt>
      <trkpt lat="45.04825" lon="6.29767">
        <ele>1707.6</ele>
        <time>2024-08-10T09:59:15Z</time>
      </trkpt>
      <trkpt lat="45.04825" lon="6.29767">
        <ele>1707.2</ele>
        <time>2024-08-10T09:59:16Z</time>
      </trkpt>
      <trkpt lat="45.04826" lon="6.2977">
        <ele>1707.2</ele>
        <time>2024-08-10T09:59:17Z</time>
      </trkpt>
      <trkpt lat="45.04826" lon="6.2977">
        <ele>1707</ele>
        <time>2024-08-10T09:59:18Z</time>
      </trkpt>
      <trkpt lat="45.04826" lon="6.29773">
        <ele>1706.8</ele>
        <time>2024-08-10T09:59:19Z</time>
      </trkpt>
      <trkpt lat="45.04826" lon="6.29773">
        <ele>1706.6</ele>
        <time>2024-08-10T09:59:20Z</time>
      </trkpt>
      <trkpt lat="45.04826" lon="6.29776">
        <ele>1706.6</ele>
        <time>2024-08-10T09:59:21Z</time>
      </trkpt>
      <trkpt lat="45.04826" lon="6.29776">
        <ele>1706.4</ele>
        <time>2024-08-10T09:59:22Z</time>
      </trkpt>
      <trkpt lat="45.04826" lon="6.29779">
        <ele>1706.4</ele>
        <time>2024-08-10T09:59:23Z</time>
      </trkpt>
      <trkpt lat="45.04826" lon="6.29779">
        <ele>1706</ele>
        <time>2024-08-10T09:59:24Z</time>
      </trkpt>
      <trkpt lat="45.04826" lon="6.29782">
        <ele>1706</ele>
        <time>2024-08-10T09:59:25Z</time>
      </trkpt>
      <trkpt lat="45.04826" lon="6.29782">
        <ele>1706</ele>
        <time>2024-08-10T09:59:26Z</time>
      </trkpt>
      <trkpt lat="45.04826" lon="6.29786">
        <ele>1705.6</ele>
        <time>2024-08-10T09:59:27Z</time>
      </trkpt>
      <trkpt lat="45.04826" lon="6.29786">
        <ele>1705.2</ele>
        <time>2024-08-10T09:59:28Z</time>
      </trkpt>
      <trkpt lat="45.04826" lon="6.29789">
        <ele>1705</ele>
        <time>2024-08-10T09:59:29Z</time>
      </trkpt>
      <trkpt lat="45.04826" lon="6.29789">
        <ele>1704.8</ele>
        <time>2024-08-10T09:59:30Z</time>
      </trkpt>
      <trkpt lat="45.04827" lon="6.29792">
        <ele>1704.6</ele>
        <time>2024-08-10T09:59:31Z</time>
      </trkpt>
      <trkpt lat="45.04827" lon="6.29792">
        <ele>1704.2</ele>
        <time>2024-08-10T09:59:32Z</time>
      </trkpt>
      <trkpt lat="45.04828" lon="6.29795">
        <ele>1704.2</ele>
        <time>2024-08-10T09:59:33Z</time>
      </trkpt>
      <trkpt lat="45.04828" lon="6.29795">
        <ele>1703.8</ele>
        <time>2024-08-10T09:59:34Z</time>
      </trkpt>
      <trkpt lat="45.04828" lon="6.29799">
        <ele>1703.6</ele>
        <time>2024-08-10T09:59:35Z</time>
      </trkpt>
      <trkpt lat="45.04828" lon="6.29799">
        <ele>1703.4</ele>
        <time>2024-08-10T09:59:36Z</time>
      </trkpt>
      <trkpt lat="45.04829" lon="6.29802">
        <ele>1703</ele>
        <time>2024-08-10T09:59:37Z</time>
      </trkpt>
      <trkpt lat="45.04829" lon="6.29802">
        <ele>1702.4</ele>
        <time>2024-08-10T09:59:38Z</time>
      </trkpt>
      <trkpt lat="45.04829" lon="6.29805">
        <ele>1702.4</ele>
        <time>2024-08-10T09:59:39Z</time>
      </trkpt>
      <trkpt lat="45.04829" lon="6.29805">
        <ele>1702.4</ele>
        <time>2024-08-10T09:59:40Z</time>
      </trkpt>
      <trkpt lat="45.0483" lon="6.29808">
        <ele>1702.2</ele>
        <time>2024-08-10T09:59:41Z</time>
      </trkpt>
      <trkpt lat="45.0483" lon="6.29808">
        <ele>1702</ele>
        <time>2024-08-10T09:59:42Z</time>
      </trkpt>
      <trkpt lat="45.0483" lon="6.29811">
        <ele>1702</ele>
        <time>2024-08-10T09:59:43Z</time>
      </trkpt>
      <trkpt lat="45.0483" lon="6.29811">
        <ele>1701.6</ele>
        <time>2024-08-10T09:59:44Z</time>
      </trkpt>
      <trkpt lat="45.0483" lon="6.29814">
        <ele>1701.4</ele>
        <time>2024-08-10T09:59:45Z</time>
      </trkpt>
      <trkpt lat="45.0483" lon="6.29814">
        <ele>1701</ele>
        <time>2024-08-10T09:59:46Z</time>
      </trkpt>
      <trkpt lat="45.04831" lon="6.29817">
        <ele>1700.6</ele>
        <time>2024-08-10T09:59:47Z</time>
      </trkpt>
      <trkpt lat="45.04831" lon="6.29817">
        <ele>1700.6</ele>
        <time>2024-08-10T09:59:48Z</time>
      </trkpt>
      <trkpt lat="45.04831" lon="6.2982">
        <ele>1700.4</ele>
        <time>2024-08-10T09:59:49Z</time>
      </trkpt>
      <trkpt lat="45.04831" lon="6.2982">
        <ele>1700</ele>
        <time>2024-08-10T09:59:50Z</time>
      </trkpt>
      <trkpt lat="45.04832" lon="6.29824">
        <ele>1699.6</ele>
        <time>2024-08-10T09:59:51Z</time>
      </trkpt>
      <trkpt lat="45.04832" lon="6.29824">
        <ele>1699.2</ele>
        <time>2024-08-10T09:59:52Z</time>
      </trkpt>
      <trkpt lat="45.04831" lon="6.29827">
        <ele>1699</ele>
        <time>2024-08-10T09:59:53Z</time>
      </trkpt>
      <trkpt lat="45.04831" lon="6.29827">
        <ele>1699</ele>
        <time>2024-08-10T09:59:54Z</time>
      </trkpt>
      <trkpt lat="45.04832" lon="6.2983">
        <ele>1698.8</ele>
        <time>2024-08-10T09:59:55Z</time>
      </trkpt>
      <trkpt lat="45.04832" lon="6.2983">
        <ele>1698.4</ele>
        <time>2024-08-10T09:59:56Z</time>
      </trkpt>
      <trkpt lat="45.04832" lon="6.29833">
        <ele>1698.2</ele>
        <time>2024-08-10T09:59:57Z</time>
      </trkpt>
      <trkpt lat="45.04832" lon="6.29833">
        <ele>1697.8</ele>
        <time>2024-08-10T09:59:58Z</time>
      </trkpt>
      <trkpt lat="45.04833" lon="6.29836">
        <ele>1697.4</ele>
        <time>2024-08-10T09:59:59Z</time>
      </trkpt>
      <trkpt lat="45.04833" lon="6.29836">
        <ele>1697</ele>
        <time>2024-08-10T10:00:00Z</time>
      </trkpt>
      <trkpt lat="45.04833" lon="6.29839">
        <ele>1696.2</ele>
        <time>2024-08-10T10:00:01Z</time>
      </trkpt>
      <trkpt lat="45.04833" lon="6.29839">
        <ele>1696.2</ele>
        <time>2024-08-10T10:00:02Z</time>
      </trkpt>
      <trkpt lat="45.04833" lon="6.29843">
        <ele>1695.8</ele>
        <time>2024-08-10T10:00:03Z</time>
      </trkpt>
      <trkpt lat="45.04833" lon="6.29843">
        <ele>1695.6</ele>
        <time>2024-08-10T10:00:04Z</time>
      </trkpt>
      <trkpt lat="45.04834" lon="6.29846">
        <ele>1695.4</ele>
        <time>2024-08-10T10:00:05Z</time>
      </trkpt>
      <trkpt lat="45.04834" lon="6.29846">
        <ele>1695</ele>
        <time>2024-08-10T10:00:06Z</time>
      </trkpt>
      <trkpt lat="45.04834" lon="6.29849">
        <ele>1694.8</ele>
        <time>2024-08-10T10:00:07Z</time>
      </trkpt>
      <trkpt lat="45.04834" lon="6.29849">
        <ele>1694.6</ele>
        <time>2024-08-10T10:00:08Z</time>
      </trkpt>
      <trkpt lat="45.04834" lon="6.29853">
        <ele>1694.2</ele>
        <time>2024-08-10T10:00:09Z</time>
      </trkpt>
      <trkpt lat="45.04834" lon="6.29853">
        <ele>1694</ele>
        <time>2024-08-10T10:00:10Z</time>
      </trkpt>
      <trkpt lat="45.04835" lon="6.29856">
        <ele>1693.6</ele>
        <time>2024-08-10T10:00:11Z</time>
      </trkpt>
      <trkpt lat="45.04835" lon="6.29856">
        <ele>1693.4</ele>
        <time>2024-08-10T10:00:12Z</time>
      </trkpt>
      <trkpt lat="45.04835" lon="6.29859">
        <ele>1693</ele>
        <time>2024-08-10T10:00:13Z</time>
      </trkpt>
      <trkpt lat="45.04835" lon="6.29859">
        <ele>1693</ele>
        <time>2024-08-10T10:00:14Z</time>
      </trkpt>
      <trkpt lat="45.04835" lon="6.29862">
        <ele>1692.6</ele>
        <time>2024-08-10T10:00:15Z</time>
      </trkpt>
      <trkpt lat="45.04835" lon="6.29862">
        <ele>1692.2</ele>
        <time>2024-08-10T10:00:16Z</time>
      </trkpt>
      <trkpt lat="45.04836" lon="6.29866">
        <ele>1692</ele>
        <time>2024-08-10T10:00:17Z</time>
      </trkpt>
      <trkpt lat="45.04836" lon="6.29866">
        <ele>1692</ele>
        <time>2024-08-10T10:00:18Z</time>
      </trkpt>
      <trkpt lat="45.04837" lon="6.29869">
        <ele>1691.4</ele>
        <time>2024-08-10T10:00:19Z</time>
      </trkpt>
      <trkpt lat="45.04837" lon="6.29869">
        <ele>1690.8</ele>
        <time>2024-08-10T10:00:20Z</time>
      </trkpt>
      <trkpt lat="45.04837" lon="6.29872">
        <ele>1690.6</ele>
        <time>2024-08-10T10:00:21Z</time>
      </trkpt>
      <trkpt lat="45.04837" lon="6.29872">
        <ele>1690.4</ele>
        <time>2024-08-10T10:00:22Z</time>
      </trkpt>
      <trkpt lat="45.04837" lon="6.29875">
        <ele>1690.2</ele>
        <time>2024-08-10T10:00:23Z</time>
      </trkpt>
      <trkpt lat="45.04837" lon="6.29875">
        <ele>1689.8</ele>
        <time>2024-08-10T10:00:24Z</time>
      </trkpt>
      <trkpt lat="45.04837" lon="6.29878">
        <ele>1689.6</ele>
        <time>2024-08-10T10:00:25Z</time>
      </trkpt>
      <trkpt lat="45.04837" lon="6.29878">
        <ele>1689.4</ele>
        <time>2024-08-10T10:00:26Z</time>
      </trkpt>
      <trkpt lat="45.04837" lon="6.29882">
        <ele>1689</ele>
        <time>2024-08-10T10:00:27Z</time>
      </trkpt>
      <trkpt lat="45.04837" lon="6.29882">
        <ele>1688.8</ele>
        <time>2024-08-10T10:00:28Z</time>
      </trkpt>
      <trkpt lat="45.04838" lon="6.29885">
        <ele>1688.4</ele>
        <time>2024-08-10T10:00:29Z</time>
      </trkpt>
      <trkpt lat="45.04838" lon="6.29885">
        <ele>1688</ele>
        <time>2024-08-10T10:00:30Z</time>
      </trkpt>
      <trkpt lat="45.04838" lon="6.29888">
        <ele>1687.6</ele>
        <time>2024-08-10T10:00:31Z</time>
      </trkpt>
      <trkpt lat="45.04838" lon="6.29888">
        <ele>1687.4</ele>
        <time>2024-08-10T10:00:32Z</time>
      </trkpt>
      <trkpt lat="45.04837" lon="6.29892">
        <ele>1687.2</ele>
        <time>2024-08-10T10:00:33Z</time>
      </trkpt>
      <trkpt lat="45.04837" lon="6.29892">
        <ele>1686.6</ele>
        <time>2024-08-10T10:00:34Z</time>
      </trkpt>
      <trkpt lat="45.04838" lon="6.29895">
        <ele>1686.4</ele>
        <time>2024-08-10T10:00:35Z</time>
      </trkpt>
      <trkpt lat="45.04838" lon="6.29895">
        <ele>1685.8</ele>
        <time>2024-08-10T10:00:36Z</time>
      </trkpt>
      <trkpt lat="45.04837" lon="6.29897">
        <ele>1685.8</ele>
        <time>2024-08-10T10:00:37Z</time>
      </trkpt>
      <trkpt lat="45.04837" lon="6.29897">
        <ele>1685.6</ele>
        <time>2024-08-10T10:00:38Z</time>
      </trkpt>
      <trkpt lat="45.04838" lon="6.299">
        <ele>1685.4</ele>
        <time>2024-08-10T10:00:39Z</time>
      </trkpt>
      <trkpt lat="45.04838" lon="6.299">
        <ele>1684.8</ele>
        <time>2024-08-10T10:00:40Z</time>
      </trkpt>
      <trkpt lat="45.04839" lon="6.29903">
        <ele>1684.4</ele>
        <time>2024-08-10T10:00:41Z</time>
      </trkpt>
      <trkpt lat="45.04839" lon="6.29903">
        <ele>1684.2</ele>
        <time>2024-08-10T10:00:42Z</time>
      </trkpt>
      <trkpt lat="45.04839" lon="6.29907">
        <ele>1684.2</ele>
        <time>2024-08-10T10:00:43Z</time>
      </trkpt>
      <trkpt lat="45.04839" lon="6.29907">
        <ele>1683.8</ele>
        <time>2024-08-10T10:00:44Z</time>
      </trkpt>
      <trkpt lat="45.0484" lon="6.2991">
        <ele>1683.4</ele>
        <time>2024-08-10T10:00:45Z</time>
      </trkpt>
      <trkpt lat="45.0484" lon="6.2991">
        <ele>1683.2</ele>
        <time>2024-08-10T10:00:46Z</time>
      </trkpt>
      <trkpt lat="45.04841" lon="6.29913">
        <ele>1682.8</ele>
        <time>2024-08-10T10:00:47Z</time>
      </trkpt>
      <trkpt lat="45.04841" lon="6.29913">
        <ele>1682.6</ele>
        <time>2024-08-10T10:00:48Z</time>
      </trkpt>
      <trkpt lat="45.04842" lon="6.29917">
        <ele>1682.6</ele>
        <time>2024-08-10T10:00:49Z</time>
      </trkpt>
      <trkpt lat="45.04842" lon="6.29917">
        <ele>1682.6</ele>
        <time>2024-08-10T10:00:50Z</time>
      </trkpt>
      <trkpt lat="45.04843" lon="6.2992">
        <ele>1682.2</ele>
        <time>2024-08-10T10:00:51Z</time>
      </trkpt>
      <trkpt lat="45.04843" lon="6.2992">
        <ele>1682</ele>
        <time>2024-08-10T10:00:52Z</time>
      </trkpt>
      <trkpt lat="45.04844" lon="6.29923">
        <ele>1681.8</ele>
        <time>2024-08-10T10:00:53Z</time>
      </trkpt>
      <trkpt lat="45.04844" lon="6.29923">
        <ele>1681.4</ele>
        <time>2024-08-10T10:00:54Z</time>
      </trkpt>
      <trkpt lat="45.04845" lon="6.29926">
        <ele>1681</ele>
        <time>2024-08-10T10:00:55Z</time>
      </trkpt>
      <trkpt lat="45.04845" lon="6.29926">
        <ele>1680.8</ele>
        <time>2024-08-10T10:00:56Z</time>
      </trkpt>
      <trkpt lat="45.04846" lon="6.29929">
        <ele>1680.6</ele>
        <time>2024-08-10T10:00:57Z</time>
      </trkpt>
      <trkpt lat="45.04846" lon="6.29929">
        <ele>1680.4</ele>
        <time>2024-08-10T10:00:58Z</time>
      </trkpt>
      <trkpt lat="45.04847" lon="6.29933">
        <ele>1680.2</ele>
        <time>2024-08-10T10:00:59Z</time>
      </trkpt>
      <trkpt lat="45.04847" lon="6.29933">
        <ele>1680</ele>
        <time>2024-08-10T10:01:00Z</time>
      </trkpt>
      <trkpt lat="45.04847" lon="6.29937">
        <ele>1679.8</ele>
        <time>2024-08-10T10:01:01Z</time>
      </trkpt>
      <trkpt lat="45.04847" lon="6.29937">
        <ele>1679.4</ele>
        <time>2024-08-10T10:01:02Z</time>
      </trkpt>
      <trkpt lat="45.04847" lon="6.2994">
        <ele>1678.6</ele>
        <time>2024-08-10T10:01:03Z</time>
      </trkpt>
      <trkpt lat="45.04847" lon="6.2994">
        <ele>1678.6</ele>
        <time>2024-08-10T10:01:04Z</time>
      </trkpt>
      <trkpt lat="45.04846" lon="6.29943">
        <ele>1678.2</ele>
        <time>2024-08-10T10:01:05Z</time>
      </trkpt>
      <trkpt lat="45.04846" lon="6.29943">
        <ele>1678</ele>
        <time>2024-08-10T10:01:06Z</time>
      </trkpt>
      <trkpt lat="45.04846" lon="6.29946">
        <ele>1677.8</ele>
        <time>2024-08-10T10:01:07Z</time>
      </trkpt>
      <trkpt lat="45.04846" lon="6.29946">
        <ele>1677.8</ele>
        <time>2024-08-10T10:01:08Z</time>
      </trkpt>
      <trkpt lat="45.04845" lon="6.29949">
        <ele>1677.6</ele>
        <time>2024-08-10T10:01:09Z</time>
      </trkpt>
      <trkpt lat="45.04845" lon="6.29949">
        <ele>1677.6</ele>
        <time>2024-08-10T10:01:10Z</time>
      </trkpt>
      <trkpt lat="45.04845" lon="6.29952">
        <ele>1677</ele>
        <time>2024-08-10T10:01:11Z</time>
      </trkpt>
      <trkpt lat="45.04845" lon="6.29952">
        <ele>1676.6</ele>
        <time>2024-08-10T10:01:12Z</time>
      </trkpt>
      <trkpt lat="45.04845" lon="6.29956">
        <ele>1676.4</ele>
        <time>2024-08-10T10:01:13Z</time>
      </trkpt>
      <trkpt lat="45.04845" lon="6.29956">
        <ele>1676.4</ele>
        <time>2024-08-10T10:01:14Z</time>
      </trkpt>
      <trkpt lat="45.04846" lon="6.2996">
        <ele>1676</ele>
        <time>2024-08-10T10:01:15Z</time>
      </trkpt>
      <trkpt lat="45.04846" lon="6.2996">
        <ele>1675.6</ele>
        <time>2024-08-10T10:01:16Z</time>
      </trkpt>
      <trkpt lat="45.04847" lon="6.29963">
        <ele>1675</ele>
        <time>2024-08-10T10:01:17Z</time>
      </trkpt>
      <trkpt lat="45.04847" lon="6.29963">
        <ele>1674.6</ele>
        <time>2024-08-10T10:01:18Z</time>
      </trkpt>
      <trkpt lat="45.04848" lon="6.29967">
        <ele>1674.4</ele>
        <time>2024-08-10T10:01:19Z</time>
      </trkpt>
      <trkpt lat="45.04848" lon="6.29967">
        <ele>1674.4</ele>
        <time>2024-08-10T10:01:20Z</time>
      </trkpt>
      <trkpt lat="45.04849" lon="6.2997">
        <ele>1674.2</ele>
        <time>2024-08-10T10:01:21Z</time>
      </trkpt>
      <trkpt lat="45.04849" lon="6.2997">
        <ele>1674</ele>
        <time>2024-08-10T10:01:22Z</time>
      </trkpt>
      <trkpt lat="45.04849" lon="6.29974">
        <ele>1673.6</ele>
        <time>2024-08-10T10:01:23Z</time>
      </trkpt>
      <trkpt lat="45.04849" lon="6.29974">
        <ele>1673.4</ele>
        <time>2024-08-10T10:01:24Z</time>
      </trkpt>
      <trkpt lat="45.0485" lon="6.29977">
        <ele>1673.2</ele>
        <time>2024-08-10T10:01:25Z</time>
      </trkpt>
      <trkpt lat="45.0485" lon="6.29977">
        <ele>1673</ele>
        <time>2024-08-10T10:01:26Z</time>
      </trkpt>
      <trkpt lat="45.04851" lon="6.2998">
        <ele>1672.6</ele>
        <time>2024-08-10T10:01:27Z</time>
      </trkpt>
      <trkpt lat="45.04851" lon="6.2998">
        <ele>1672.6</ele>
        <time>2024-08-10T10:01:28Z</time>
      </trkpt>
      <trkpt lat="45.04852" lon="6.29983">
        <ele>1672.6</ele>
        <time>2024-08-10T10:01:29Z</time>
      </trkpt>
      <trkpt lat="45.04852" lon="6.29983">
        <ele>1672.2</ele>
        <time>2024-08-10T10:01:30Z</time>
      </trkpt>
      <trkpt lat="45.04853" lon="6.29987">
        <ele>1671.8</ele>
        <time>2024-08-10T10:01:31Z</time>
      </trkpt>
      <trkpt lat="45.04853" lon="6.29987">
        <ele>1671.4</ele>
        <time>2024-08-10T10:01:32Z</time>
      </trkpt>
      <trkpt lat="45.04853" lon="6.2999">
        <ele>1671.4</ele>
        <time>2024-08-10T10:01:33Z</time>
      </trkpt>
      <trkpt lat="45.04853" lon="6.2999">
        <ele>1671</ele>
        <time>2024-08-10T10:01:34Z</time>
      </trkpt>
      <trkpt lat="45.04854" lon="6.29993">
        <ele>1670.8</ele>
        <time>2024-08-10T10:01:35Z</time>
      </trkpt>
      <trkpt lat="45.04854" lon="6.29993">
        <ele>1670.6</ele>
        <time>2024-08-10T10:01:36Z</time>
      </trkpt>
      <trkpt lat="45.04854" lon="6.29997">
        <ele>1670.4</ele>
        <time>2024-08-10T10:01:37Z</time>
      </trkpt>
      <trkpt lat="45.04854" lon="6.29997">
        <ele>1670.2</ele>
        <time>2024-08-10T10:01:38Z</time>
      </trkpt>
      <trkpt lat="45.04855" lon="6.3">
        <ele>1669.6</ele>
        <time>2024-08-10T10:01:39Z</time>
      </trkpt>
      <trkpt lat="45.04855" lon="6.3">
        <ele>1669.4</ele>
        <time>2024-08-10T10:01:40Z</time>
      </trkpt>
      <trkpt lat="45.04856" lon="6.30003">
        <ele>1669.4</ele>
        <time>2024-08-10T10:01:41Z</time>
      </trkpt>
      <trkpt lat="45.04856" lon="6.30003">
        <ele>1669.2</ele>
        <time>2024-08-10T10:01:42Z</time>
      </trkpt>
      <trkpt lat="45.04857" lon="6.30007">
        <ele>1668.8</ele>
        <time>2024-08-10T10:01:43Z</time>
      </trkpt>
      <trkpt lat="45.04857" lon="6.30007">
        <ele>1668.6</ele>
        <time>2024-08-10T10:01:44Z</time>
      </trkpt>
      <trkpt lat="45.04858" lon="6.3001">
        <ele>1668.6</ele>
        <time>2024-08-10T10:01:45Z</time>
      </trkpt>
      <trkpt lat="45.04858" lon="6.3001">
        <ele>1668.4</ele>
        <time>2024-08-10T10:01:46Z</time>
      </trkpt>
      <trkpt lat="45.04859" lon="6.30013">
        <ele>1668</ele>
        <time>2024-08-10T10:01:47Z</time>
      </trkpt>
      <trkpt lat="45.04859" lon="6.30013">
        <ele>1667.4</ele>
        <time>2024-08-10T10:01:48Z</time>
      </trkpt>
      <trkpt lat="45.04861" lon="6.30016">
        <ele>1667.2</ele>
        <time>2024-08-10T10:01:49Z</time>
      </trkpt>
      <trkpt lat="45.04861" lon="6.30016">
        <ele>1667</ele>
        <time>2024-08-10T10:01:50Z</time>
      </trkpt>
      <trkpt lat="45.04862" lon="6.3002">
        <ele>1666.8</ele>
        <time>2024-08-10T10:01:51Z</time>
      </trkpt>
      <trkpt lat="45.04862" lon="6.3002">
        <ele>1666.8</ele>
        <time>2024-08-10T10:01:52Z</time>
      </trkpt>
      <trkpt lat="45.04863" lon="6.30023">
        <ele>1666.4</ele>
        <time>2024-08-10T10:01:53Z</time>
      </trkpt>
      <trkpt lat="45.04863" lon="6.30023">
        <ele>1666</ele>
        <time>2024-08-10T10:01:54Z</time>
      </trkpt>
      <trkpt lat="45.04864" lon="6.30026">
        <ele>1665.6</ele>
        <time>2024-08-10T10:01:55Z</time>
      </trkpt>
      <trkpt lat="45.04864" lon="6.30026">
        <ele>1665.4</ele>
        <time>2024-08-10T10:01:56Z</time>
      </trkpt>
      <trkpt lat="45.04865" lon="6.3003">
        <ele>1665.2</ele>
        <time>2024-08-10T10:01:57Z</time>
      </trkpt>
      <trkpt lat="45.04865" lon="6.3003">
        <ele>1665</ele>
        <time>2024-08-10T10:01:58Z</time>
      </trkpt>
      <trkpt lat="45.04865" lon="6.30033">
        <ele>1665</ele>
        <time>2024-08-10T10:01:59Z</time>
      </trkpt>
      <trkpt lat="45.04865" lon="6.30033">
        <ele>1664.8</ele>
        <time>2024-08-10T10:02:00Z</time>
      </trkpt>
      <trkpt lat="45.04866" lon="6.30036">
        <ele>1664.4</ele>
        <time>2024-08-10T10:02:01Z</time>
      </trkpt>
      <trkpt lat="45.04866" lon="6.30036">
        <ele>1664.2</ele>
        <time>2024-08-10T10:02:02Z</time>
      </trkpt>
      <trkpt lat="45.04867" lon="6.3004">
        <ele>1664</ele>
        <time>2024-08-10T10:02:03Z</time>
      </trkpt>
      <trkpt lat="45.04867" lon="6.3004">
        <ele>1664</ele>
        <time>2024-08-10T10:02:04Z</time>
      </trkpt>
      <trkpt lat="45.04868" lon="6.30044">
        <ele>1663.8</ele>
        <time>2024-08-10T10:02:05Z</time>
      </trkpt>
      <trkpt lat="45.04868" lon="6.30044">
        <ele>1663.4</ele>
        <time>2024-08-10T10:02:06Z</time>
      </trkpt>
      <trkpt lat="45.04869" lon="6.30046">
        <ele>1663.2</ele>
        <time>2024-08-10T10:02:07Z</time>
      </trkpt>
      <trkpt lat="45.04869" lon="6.30046">
        <ele>1663</ele>
        <time>2024-08-10T10:02:08Z</time>
      </trkpt>
      <trkpt lat="45.04869" lon="6.3005">
        <ele>1662.2</ele>
        <time>2024-08-10T10:02:09Z</time>
      </trkpt>
      <trkpt lat="45.04869" lon="6.3005">
        <ele>1662.2</ele>
        <time>2024-08-10T10:02:10Z</time>
      </trkpt>
      <trkpt lat="45.04869" lon="6.30053">
        <ele>1662</ele>
        <time>2024-08-10T10:02:11Z</time>
      </trkpt>
      <trkpt lat="45.04869" lon="6.30053">
        <ele>1661.8</ele>
        <time>2024-08-10T10:02:12Z</time>
      </trkpt>
      <trkpt lat="45.04868" lon="6.30056">
        <ele>1661.4</ele>
        <time>2024-08-10T10:02:13Z</time>
      </trkpt>
      <trkpt lat="45.04868" lon="6.30056">
        <ele>1661.2</ele>
        <time>2024-08-10T10:02:14Z</time>
      </trkpt>
      <trkpt lat="45.04866" lon="6.30058">
        <ele>1661</ele>
        <time>2024-08-10T10:02:15Z</time>
      </trkpt>
      <trkpt lat="45.04866" lon="6.30058">
        <ele>1660.8</ele>
        <time>2024-08-10T10:02:16Z</time>
      </trkpt>
      <trkpt lat="45.04864" lon="6.3006">
        <ele>1660.6</ele>
        <time>2024-08-10T10:02:17Z</time>
      </trkpt>
      <trkpt lat="45.04864" lon="6.3006">
        <ele>1660.4</ele>
        <time>2024-08-10T10:02:18Z</time>
      </trkpt>
      <trkpt lat="45.04863" lon="6.30063">
        <ele>1659.8</ele>
        <time>2024-08-10T10:02:19Z</time>
      </trkpt>
      <trkpt lat="45.04863" lon="6.30063">
        <ele>1659.4</ele>
        <time>2024-08-10T10:02:20Z</time>
      </trkpt>
      <trkpt lat="45.04861" lon="6.30065">
        <ele>1659.4</ele>
        <time>2024-08-10T10:02:21Z</time>
      </trkpt>
      <trkpt lat="45.04861" lon="6.30065">
        <ele>1659.2</ele>
        <time>2024-08-10T10:02:22Z</time>
      </trkpt>
      <trkpt lat="45.0486" lon="6.30068">
        <ele>1659</ele>
        <time>2024-08-10T10:02:23Z</time>
      </trkpt>
      <trkpt lat="45.0486" lon="6.30068">
        <ele>1658.8</ele>
        <time>2024-08-10T10:02:24Z</time>
      </trkpt>
      <trkpt lat="45.04858" lon="6.30071">
        <ele>1658.2</ele>
        <time>2024-08-10T10:02:25Z</time>
      </trkpt>
      <trkpt lat="45.04858" lon="6.30071">
        <ele>1658.2</ele>
        <time>2024-08-10T10:02:26Z</time>
      </trkpt>
      <trkpt lat="45.04857" lon="6.30073">
        <ele>1657.8</ele>
        <time>2024-08-10T10:02:27Z</time>
      </trkpt>
      <trkpt lat="45.04857" lon="6.30073">
        <ele>1657.4</ele>
        <time>2024-08-10T10:02:28Z</time>
      </trkpt>
      <trkpt lat="45.04857" lon="6.30073">
        <ele>1657</ele>
        <time>2024-08-10T10:02:29Z</time>
      </trkpt>
      <trkpt lat="45.04857" lon="6.30073">
        <ele>1656.8</ele>
        <time>2024-08-10T10:02:30Z</time>
      </trkpt>
      <trkpt lat="45.04857" lon="6.30073">
        <ele>1656.6</ele>
        <time>2024-08-10T10:02:31Z</time>
      </trkpt>
      <trkpt lat="45.04857" lon="6.30073">
        <ele>1656.6</ele>
        <time>2024-08-10T10:02:32Z</time>
      </trkpt>
      <trkpt lat="45.04857" lon="6.30073">
        <ele>1656.4</ele>
        <time>2024-08-10T10:02:33Z</time>
      </trkpt>
      <trkpt lat="45.04857" lon="6.30073">
        <ele>1656.4</ele>
        <time>2024-08-10T10:02:34Z</time>
      </trkpt>
      <trkpt lat="45.04857" lon="6.30073">
        <ele>1656.4</ele>
        <time>2024-08-10T10:02:35Z</time>
      </trkpt>
      <trkpt lat="45.04857" lon="6.30073">
        <ele>1656.4</ele>
        <time>2024-08-10T10:02:36Z</time>
      </trkpt>
      <trkpt lat="45.04857" lon="6.30073">
        <ele>1656.4</ele>
        <time>2024-08-10T10:02:37Z</time>
      </trkpt>
      <trkpt lat="45.04857" lon="6.30073">
        <ele>1656.2</ele>
        <time>2024-08-10T10:02:38Z</time>
      </trkpt>
      <trkpt lat="45.04857" lon="6.30073">
        <ele>1656.2</ele>
        <time>2024-08-10T10:02:39Z</time>
      </trkpt>
      <trkpt lat="45.04857" lon="6.30073">
        <ele>1656.2</ele>
        <time>2024-08-10T10:02:40Z</time>
      </trkpt>
      <trkpt lat="45.04857" lon="6.30073">
        <ele>1656.4</ele>
        <time>2024-08-10T10:02:41Z</time>
      </trkpt>
      <trkpt lat="45.04857" lon="6.30073">
        <ele>1656.4</ele>
        <time>2024-08-10T10:02:42Z</time>
      </trkpt>
      <trkpt lat="45.04857" lon="6.30073">
        <ele>1656.4</ele>
        <time>2024-08-10T10:02:43Z</time>
      </trkpt>
      <trkpt lat="45.04857" lon="6.30073">
        <ele>1656.4</ele>
        <time>2024-08-10T10:02:44Z</time>
      </trkpt>
      <trkpt lat="45.04857" lon="6.30073">
        <ele>1656.4</ele>
        <time>2024-08-10T10:02:45Z</time>
      </trkpt>
      <trkpt lat="45.04857" lon="6.30073">
        <ele>1656</ele>
        <time>2024-08-10T10:02:46Z</time>
      </trkpt>
      <trkpt lat="45.04857" lon="6.30073">
        <ele>1656</ele>
        <time>2024-08-10T10:02:47Z</time>
      </trkpt>
      <trkpt lat="45.04857" lon="6.30073">
        <ele>1656</ele>
        <time>2024-08-10T10:02:48Z</time>
      </trkpt>
      <trkpt lat="45.04857" lon="6.30073">
        <ele>1656</ele>
        <time>2024-08-10T10:02:49Z</time>
      </trkpt>
      <trkpt lat="45.04857" lon="6.30073">
        <ele>1656</ele>
        <time>2024-08-10T10:02:50Z</time>
      </trkpt>
      <trkpt lat="45.04855" lon="6.30075">
        <ele>1655.8</ele>
        <time>2024-08-10T10:02:51Z</time>
      </trkpt>
      <trkpt lat="45.04855" lon="6.30075">
        <ele>1655.8</ele>
        <time>2024-08-10T10:02:52Z</time>
      </trkpt>
      <trkpt lat="45.04855" lon="6.30078">
        <ele>1655.6</ele>
        <time>2024-08-10T10:02:53Z</time>
      </trkpt>
      <trkpt lat="45.04855" lon="6.30078">
        <ele>1655.2</ele>
        <time>2024-08-10T10:02:54Z</time>
      </trkpt>
      <trkpt lat="45.04854" lon="6.30081">
        <ele>1655</ele>
        <time>2024-08-10T10:02:55Z</time>
      </trkpt>
      <trkpt lat="45.04854" lon="6.30081">
        <ele>1655</ele>
        <time>2024-08-10T10:02:56Z</time>
      </trkpt>
      <trkpt lat="45.04854" lon="6.30084">
        <ele>1654.4</ele>
        <time>2024-08-10T10:02:57Z</time>
      </trkpt>
      <trkpt lat="45.04854" lon="6.30084">
        <ele>1653.8</ele>
        <time>2024-08-10T10:02:58Z</time>
      </trkpt>
      <trkpt lat="45.04854" lon="6.30087">
        <ele>1653.2</ele>
        <time>2024-08-10T10:02:59Z</time>
      </trkpt>
      <trkpt lat="45.04854" lon="6.30087">
        <ele>1652.8</ele>
        <time>2024-08-10T10:03:00Z</time>
      </trkpt>
      <trkpt lat="45.04855" lon="6.3009">
        <ele>1652.6</ele>
        <time>2024-08-10T10:03:01Z</time>
      </trkpt>
      <trkpt lat="45.04855" lon="6.3009">
        <ele>1652.2</ele>
        <time>2024-08-10T10:03:02Z</time>
      </trkpt>
      <trkpt lat="45.04855" lon="6.30093">
        <ele>1651.6</ele>
        <time>2024-08-10T10:03:03Z</time>
      </trkpt>
      <trkpt lat="45.04855" lon="6.30093">
        <ele>1651.6</ele>
        <time>2024-08-10T10:03:04Z</time>
      </trkpt>
      <trkpt lat="45.04855" lon="6.30093">
        <ele>1651.2</ele>
        <time>2024-08-10T10:03:05Z</time>
      </trkpt>
      <trkpt lat="45.04855" lon="6.30097">
        <ele>1650.8</ele>
        <time>2024-08-10T10:03:06Z</time>
      </trkpt>
      <trkpt lat="45.04855" lon="6.30097">
        <ele>1650.4</ele>
        <time>2024-08-10T10:03:07Z</time>
      </trkpt>
      <trkpt lat="45.04856" lon="6.301">
        <ele>1649.8</ele>
        <time>2024-08-10T10:03:08Z</time>
      </trkpt>
      <trkpt lat="45.04856" lon="6.301">
        <ele>1649.4</ele>
        <time>2024-08-10T10:03:09Z</time>
      </trkpt>
      <trkpt lat="45.04856" lon="6.301">
        <ele>1649</ele>
        <time>2024-08-10T10:03:10Z</time>
      </trkpt>
      <trkpt lat="45.04856" lon="6.30104">
        <ele>1648.8</ele>
        <time>2024-08-10T10:03:11Z</time>
      </trkpt>
      <trkpt lat="45.04856" lon="6.30104">
        <ele>1648.4</ele>
        <time>2024-08-10T10:03:12Z</time>
      </trkpt>
      <trkpt lat="45.04856" lon="6.30106">
        <ele>1648.2</ele>
        <time>2024-08-10T10:03:13Z</time>
      </trkpt>
      <trkpt lat="45.04856" lon="6.30106">
        <ele>1647.8</ele>
        <time>2024-08-10T10:03:14Z</time>
      </trkpt>
      <trkpt lat="45.04856" lon="6.30106">
        <ele>1647.6</ele>
        <time>2024-08-10T10:03:15Z</time>
      </trkpt>
      <trkpt lat="45.04856" lon="6.3011">
        <ele>1647.2</ele>
        <time>2024-08-10T10:03:16Z</time>
      </trkpt>
      <trkpt lat="45.04856" lon="6.3011">
        <ele>1646.6</ele>
        <time>2024-08-10T10:03:17Z</time>
      </trkpt>
      <trkpt lat="45.04855" lon="6.30112">
        <ele>1646.2</ele>
        <time>2024-08-10T10:03:18Z</time>
      </trkpt>
      <trkpt lat="45.04855" lon="6.30112">
        <ele>1646.2</ele>
        <time>2024-08-10T10:03:19Z</time>
      </trkpt>
      <trkpt lat="45.04855" lon="6.30112">
        <ele>1645.8</ele>
        <time>2024-08-10T10:03:20Z</time>
      </trkpt>
      <trkpt lat="45.04855" lon="6.30116">
        <ele>1645.2</ele>
        <time>2024-08-10T10:03:21Z</time>
      </trkpt>
      <trkpt lat="45.04855" lon="6.30116">
        <ele>1645</ele>
        <time>2024-08-10T10:03:22Z</time>
      </trkpt>
      <trkpt lat="45.04855" lon="6.30119">
        <ele>1644.6</ele>
        <time>2024-08-10T10:03:23Z</time>
      </trkpt>
      <trkpt lat="45.04855" lon="6.30119">
        <ele>1644.6</ele>
        <time>2024-08-10T10:03:24Z</time>
      </trkpt>
      <trkpt lat="45.04854" lon="6.30122">
        <ele>1644.6</ele>
        <time>2024-08-10T10:03:25Z</time>
      </trkpt>
      <trkpt lat="45.04854" lon="6.30122">
        <ele>1644.4</ele>
        <time>2024-08-10T10:03:26Z</time>
      </trkpt>
      <trkpt lat="45.04854" lon="6.30122">
        <ele>1644</ele>
        <time>2024-08-10T10:03:27Z</time>
      </trkpt>
      <trkpt lat="45.04854" lon="6.30122">
        <ele>1643.6</ele>
        <time>2024-08-10T10:03:28Z</time>
      </trkpt>
      <trkpt lat="45.04854" lon="6.30125">
        <ele>1643.4</ele>
        <time>2024-08-10T10:03:29Z</time>
      </trkpt>
      <trkpt lat="45.04854" lon="6.30125">
        <ele>1643.2</ele>
        <time>2024-08-10T10:03:30Z</time>
      </trkpt>
      <trkpt lat="45.04853" lon="6.30128">
        <ele>1643.2</ele>
        <time>2024-08-10T10:03:31Z</time>
      </trkpt>
      <trkpt lat="45.04853" lon="6.30128">
        <ele>1643.2</ele>
        <time>2024-08-10T10:03:32Z</time>
      </trkpt>
      <trkpt lat="45.04852" lon="6.3013">
        <ele>1643</ele>
        <time>2024-08-10T10:03:33Z</time>
      </trkpt>
      <trkpt lat="45.04852" lon="6.3013">
        <ele>1642.8</ele>
        <time>2024-08-10T10:03:34Z</time>
      </trkpt>
      <trkpt lat="45.0485" lon="6.30132">
        <ele>1642.8</ele>
        <time>2024-08-10T10:03:35Z</time>
      </trkpt>
      <trkpt lat="45.0485" lon="6.30132">
        <ele>1642.4</ele>
        <time>2024-08-10T10:03:36Z</time>
      </trkpt>
      <trkpt lat="45.04848" lon="6.30134">
        <ele>1642</ele>
        <time>2024-08-10T10:03:37Z</time>
      </trkpt>
      <trkpt lat="45.04848" lon="6.30134">
        <ele>1641.8</ele>
        <time>2024-08-10T10:03:38Z</time>
      </trkpt>
      <trkpt lat="45.04847" lon="6.30136">
        <ele>1641.8</ele>
        <time>2024-08-10T10:03:39Z</time>
      </trkpt>
      <trkpt lat="45.04847" lon="6.30136">
        <ele>1641.2</ele>
        <time>2024-08-10T10:03:40Z</time>
      </trkpt>
      <trkpt lat="45.04845" lon="6.30139">
        <ele>1640.8</ele>
        <time>2024-08-10T10:03:41Z</time>
      </trkpt>
      <trkpt lat="45.04845" lon="6.30139">
        <ele>1640.4</ele>
        <time>2024-08-10T10:03:42Z</time>
      </trkpt>
      <trkpt lat="45.04844" lon="6.30141">
        <ele>1640</ele>
        <time>2024-08-10T10:03:43Z</time>
      </trkpt>
      <trkpt lat="45.04844" lon="6.30141">
        <ele>1639.6</ele>
        <time>2024-08-10T10:03:44Z</time>
      </trkpt>
      <trkpt lat="45.04842" lon="6.30144">
        <ele>1639.4</ele>
        <time>2024-08-10T10:03:45Z</time>
      </trkpt>
      <trkpt lat="45.04842" lon="6.30144">
        <ele>1639.2</ele>
        <time>2024-08-10T10:03:46Z</time>
      </trkpt>
      <trkpt lat="45.04841" lon="6.30147">
        <ele>1639</ele>
        <time>2024-08-10T10:03:47Z</time>
      </trkpt>
      <trkpt lat="45.04841" lon="6.30147">
        <ele>1638.8</ele>
        <time>2024-08-10T10:03:48Z</time>
      </trkpt>
      <trkpt lat="45.04839" lon="6.30149">
        <ele>1638.6</ele>
        <time>2024-08-10T10:03:49Z</time>
      </trkpt>
      <trkpt lat="45.04839" lon="6.30149">
        <ele>1638.6</ele>
        <time>2024-08-10T10:03:50Z</time>
      </trkpt>
      <trkpt lat="45.04838" lon="6.30152">
        <ele>1638.2</ele>
        <time>2024-08-10T10:03:51Z</time>
      </trkpt>
      <trkpt lat="45.04838" lon="6.30152">
        <ele>1637.6</ele>
        <time>2024-08-10T10:03:52Z</time>
      </trkpt>
      <trkpt lat="45.04836" lon="6.30155">
        <ele>1637.2</ele>
        <time>2024-08-10T10:03:53Z</time>
      </trkpt>
      <trkpt lat="45.04836" lon="6.30155">
        <ele>1637</ele>
        <time>2024-08-10T10:03:54Z</time>
      </trkpt>
      <trkpt lat="45.04834" lon="6.30157">
        <ele>1636.6</ele>
        <time>2024-08-10T10:03:55Z</time>
      </trkpt>
      <trkpt lat="45.04834" lon="6.30157">
        <ele>1636.6</ele>
        <time>2024-08-10T10:03:56Z</time>
      </trkpt>
      <trkpt lat="45.04833" lon="6.3016">
        <ele>1636.6</ele>
        <time>2024-08-10T10:03:57Z</time>
      </trkpt>
      <trkpt lat="45.04833" lon="6.3016">
        <ele>1636.2</ele>
        <time>2024-08-10T10:03:58Z</time>
      </trkpt>
      <trkpt lat="45.04831" lon="6.30162">
        <ele>1636</ele>
        <time>2024-08-10T10:03:59Z</time>
      </trkpt>
      <trkpt lat="45.04831" lon="6.30162">
        <ele>1635.6</ele>
        <time>2024-08-10T10:04:00Z</time>
      </trkpt>
      <trkpt lat="45.0483" lon="6.30165">
        <ele>1635</ele>
        <time>2024-08-10T10:04:01Z</time>
      </trkpt>
      <trkpt lat="45.0483" lon="6.30165">
        <ele>1634.6</ele>
        <time>2024-08-10T10:04:02Z</time>
      </trkpt>
      <trkpt lat="45.04828" lon="6.30168">
        <ele>1634.2</ele>
        <time>2024-08-10T10:04:03Z</time>
      </trkpt>
      <trkpt lat="45.04828" lon="6.30168">
        <ele>1634.2</ele>
        <time>2024-08-10T10:04:04Z</time>
      </trkpt>
      <trkpt lat="45.04826" lon="6.3017">
        <ele>1634</ele>
        <time>2024-08-10T10:04:05Z</time>
      </trkpt>
      <trkpt lat="45.04826" lon="6.3017">
        <ele>1633.8</ele>
        <time>2024-08-10T10:04:06Z</time>
      </trkpt>
      <trkpt lat="45.04824" lon="6.30172">
        <ele>1633.8</ele>
        <time>2024-08-10T10:04:07Z</time>
      </trkpt>
      <trkpt lat="45.04824" lon="6.30172">
        <ele>1633.6</ele>
        <time>2024-08-10T10:04:08Z</time>
      </trkpt>
      <trkpt lat="45.04822" lon="6.30173">
        <ele>1633.4</ele>
        <time>2024-08-10T10:04:09Z</time>
      </trkpt>
      <trkpt lat="45.04822" lon="6.30173">
        <ele>1633.4</ele>
        <time>2024-08-10T10:04:10Z</time>
      </trkpt>
      <trkpt lat="45.0482" lon="6.30175">
        <ele>1633.2</ele>
        <time>2024-08-10T10:04:11Z</time>
      </trkpt>
      <trkpt lat="45.0482" lon="6.30175">
        <ele>1632.8</ele>
        <time>2024-08-10T10:04:12Z</time>
      </trkpt>
      <trkpt lat="45.04817" lon="6.30177">
        <ele>1632.6</ele>
        <time>2024-08-10T10:04:13Z</time>
      </trkpt>
      <trkpt lat="45.04817" lon="6.30177">
        <ele>1632.6</ele>
        <time>2024-08-10T10:04:14Z</time>
      </trkpt>
      <trkpt lat="45.04814" lon="6.30179">
        <ele>1632</ele>
        <time>2024-08-10T10:04:15Z</time>
      </trkpt>
      <trkpt lat="45.04814" lon="6.30179">
        <ele>1631.8</ele>
        <time>2024-08-10T10:04:16Z</time>
      </trkpt>
      <trkpt lat="45.04812" lon="6.3018">
        <ele>1631.6</ele>
        <time>2024-08-10T10:04:17Z</time>
      </trkpt>
      <trkpt lat="45.04812" lon="6.3018">
        <ele>1631.2</ele>
        <time>2024-08-10T10:04:18Z</time>
      </trkpt>
      <trkpt lat="45.0481" lon="6.3018">
        <ele>1631</ele>
        <time>2024-08-10T10:04:19Z</time>
      </trkpt>
      <trkpt lat="45.0481" lon="6.3018">
        <ele>1630.8</ele>
        <time>2024-08-10T10:04:20Z</time>
      </trkpt>
      <trkpt lat="45.04808" lon="6.30181">
        <ele>1630.8</ele>
        <time>2024-08-10T10:04:21Z</time>
      </trkpt>
      <trkpt lat="45.04808" lon="6.30181">
        <ele>1630.6</ele>
        <time>2024-08-10T10:04:22Z</time>
      </trkpt>
      <trkpt lat="45.04806" lon="6.30181">
        <ele>1630.4</ele>
        <time>2024-08-10T10:04:23Z</time>
      </trkpt>
      <trkpt lat="45.04806" lon="6.30181">
        <ele>1630.4</ele>
        <time>2024-08-10T10:04:24Z</time>
      </trkpt>
      <trkpt lat="45.04804" lon="6.30181">
        <ele>1629.6</ele>
        <time>2024-08-10T10:04:25Z</time>
      </trkpt>
      <trkpt lat="45.04804" lon="6.30181">
        <ele>1629.4</ele>
        <time>2024-08-10T10:04:26Z</time>
      </trkpt>
      <trkpt lat="45.04801" lon="6.30182">
        <ele>1629</ele>
        <time>2024-08-10T10:04:27Z</time>
      </trkpt>
      <trkpt lat="45.04801" lon="6.30182">
        <ele>1628.6</ele>
        <time>2024-08-10T10:04:28Z</time>
      </trkpt>
      <trkpt lat="45.04799" lon="6.30183">
        <ele>1628.4</ele>
        <time>2024-08-10T10:04:29Z</time>
      </trkpt>
      <trkpt lat="45.04799" lon="6.30183">
        <ele>1628.2</ele>
        <time>2024-08-10T10:04:30Z</time>
      </trkpt>
      <trkpt lat="45.04796" lon="6.30183">
        <ele>1627.8</ele>
        <time>2024-08-10T10:04:31Z</time>
      </trkpt>
      <trkpt lat="45.04796" lon="6.30183">
        <ele>1627.8</ele>
        <time>2024-08-10T10:04:32Z</time>
      </trkpt>
      <trkpt lat="45.04794" lon="6.30183">
        <ele>1627.6</ele>
        <time>2024-08-10T10:04:33Z</time>
      </trkpt>
      <trkpt lat="45.04794" lon="6.30183">
        <ele>1627</ele>
        <time>2024-08-10T10:04:34Z</time>
      </trkpt>
      <trkpt lat="45.04791" lon="6.30183">
        <ele>1627</ele>
        <time>2024-08-10T10:04:35Z</time>
      </trkpt>
      <trkpt lat="45.04791" lon="6.30183">
        <ele>1626.8</ele>
        <time>2024-08-10T10:04:36Z</time>
      </trkpt>
      <trkpt lat="45.04789" lon="6.30183">
        <ele>1626.6</ele>
        <time>2024-08-10T10:04:37Z</time>
      </trkpt>
      <trkpt lat="45.04789" lon="6.30183">
        <ele>1626.4</ele>
        <time>2024-08-10T10:04:38Z</time>
      </trkpt>
      <trkpt lat="45.04786" lon="6.30183">
        <ele>1626</ele>
        <time>2024-08-10T10:04:39Z</time>
      </trkpt>
      <trkpt lat="45.04786" lon="6.30183">
        <ele>1625.8</ele>
        <time>2024-08-10T10:04:40Z</time>
      </trkpt>
      <trkpt lat="45.04784" lon="6.30183">
        <ele>1625.6</ele>
        <time>2024-08-10T10:04:41Z</time>
      </trkpt>
      <trkpt lat="45.04784" lon="6.30183">
        <ele>1625.4</ele>
        <time>2024-08-10T10:04:42Z</time>
      </trkpt>
      <trkpt lat="45.04782" lon="6.30182">
        <ele>1625.4</ele>
        <time>2024-08-10T10:04:43Z</time>
      </trkpt>
      <trkpt lat="45.04782" lon="6.30182">
        <ele>1625</ele>
        <time>2024-08-10T10:04:44Z</time>
      </trkpt>
      <trkpt lat="45.0478" lon="6.30181">
        <ele>1624.6</ele>
        <time>2024-08-10T10:04:45Z</time>
      </trkpt>
      <trkpt lat="45.0478" lon="6.30181">
        <ele>1624</ele>
        <time>2024-08-10T10:04:46Z</time>
      </trkpt>
      <trkpt lat="45.04778" lon="6.30181">
        <ele>1623.4</ele>
        <time>2024-08-10T10:04:47Z</time>
      </trkpt>
      <trkpt lat="45.04778" lon="6.30181">
        <ele>1623.2</ele>
        <time>2024-08-10T10:04:48Z</time>
      </trkpt>
      <trkpt lat="45.04776" lon="6.30181">
        <ele>1623</ele>
        <time>2024-08-10T10:04:49Z</time>
      </trkpt>
      <trkpt lat="45.04776" lon="6.30181">
        <ele>1623</ele>
        <time>2024-08-10T10:04:50Z</time>
      </trkpt>
      <trkpt lat="45.04774" lon="6.30181">
        <ele>1622.6</ele>
        <time>2024-08-10T10:04:51Z</time>
      </trkpt>
      <trkpt lat="45.04774" lon="6.30181">
        <ele>1622.4</ele>
        <time>2024-08-10T10:04:52Z</time>
      </trkpt>
      <trkpt lat="45.04772" lon="6.30181">
        <ele>1622.2</ele>
        <time>2024-08-10T10:04:53Z</time>
      </trkpt>
      <trkpt lat="45.04772" lon="6.30181">
        <ele>1621.6</ele>
        <time>2024-08-10T10:04:54Z</time>
      </trkpt>
      <trkpt lat="45.04769" lon="6.30182">
        <ele>1621.2</ele>
        <time>2024-08-10T10:04:55Z</time>
      </trkpt>
      <trkpt lat="45.04769" lon="6.30182">
        <ele>1621.2</ele>
        <time>2024-08-10T10:04:56Z</time>
      </trkpt>
      <trkpt lat="45.04767" lon="6.30182">
        <ele>1621</ele>
        <time>2024-08-10T10:04:57Z</time>
      </trkpt>
      <trkpt lat="45.04767" lon="6.30182">
        <ele>1620.6</ele>
        <time>2024-08-10T10:04:58Z</time>
      </trkpt>
      <trkpt lat="45.04765" lon="6.30183">
        <ele>1620.4</ele>
        <time>2024-08-10T10:04:59Z</time>
      </trkpt>
      <trkpt lat="45.04765" lon="6.30183">
        <ele>1620</ele>
        <time>2024-08-10T10:05:00Z</time>
      </trkpt>
      <trkpt lat="45.04764" lon="6.30184">
        <ele>1620</ele>
        <time>2024-08-10T10:05:01Z</time>
      </trkpt>
      <trkpt lat="45.04764" lon="6.30184">
        <ele>1619.6</ele>
        <time>2024-08-10T10:05:02Z</time>
      </trkpt>
      <trkpt lat="45.04762" lon="6.30185">
        <ele>1618.6</ele>
        <time>2024-08-10T10:05:03Z</time>
      </trkpt>
      <trkpt lat="45.04762" lon="6.30185">
        <ele>1618.6</ele>
        <time>2024-08-10T10:05:04Z</time>
      </trkpt>
      <trkpt lat="45.04762" lon="6.30185">
        <ele>1618.6</ele>
        <time>2024-08-10T10:05:05Z</time>
      </trkpt>
      <trkpt lat="45.04759" lon="6.30186">
        <ele>1618.2</ele>
        <time>2024-08-10T10:05:06Z</time>
      </trkpt>
      <trkpt lat="45.04759" lon="6.30186">
        <ele>1617.6</ele>
        <time>2024-08-10T10:05:07Z</time>
      </trkpt>
      <trkpt lat="45.04757" lon="6.30187">
        <ele>1617.4</ele>
        <time>2024-08-10T10:05:08Z</time>
      </trkpt>
      <trkpt lat="45.04757" lon="6.30187">
        <ele>1617.2</ele>
        <time>2024-08-10T10:05:09Z</time>
      </trkpt>
      <trkpt lat="45.04755" lon="6.30189">
        <ele>1616.6</ele>
        <time>2024-08-10T10:05:10Z</time>
      </trkpt>
      <trkpt lat="45.04755" lon="6.30189">
        <ele>1616.6</ele>
        <time>2024-08-10T10:05:11Z</time>
      </trkpt>
      <trkpt lat="45.04754" lon="6.30191">
        <ele>1616.2</ele>
        <time>2024-08-10T10:05:12Z</time>
      </trkpt>
      <trkpt lat="45.04754" lon="6.30191">
        <ele>1615.8</ele>
        <time>2024-08-10T10:05:13Z</time>
      </trkpt>
      <trkpt lat="45.04752" lon="6.30193">
        <ele>1615.4</ele>
        <time>2024-08-10T10:05:14Z</time>
      </trkpt>
      <trkpt lat="45.04752" lon="6.30193">
        <ele>1614.8</ele>
        <time>2024-08-10T10:05:15Z</time>
      </trkpt>
      <trkpt lat="45.0475" lon="6.30194">
        <ele>1614.6</ele>
        <time>2024-08-10T10:05:16Z</time>
      </trkpt>
      <trkpt lat="45.0475" lon="6.30194">
        <ele>1614.2</ele>
        <time>2024-08-10T10:05:17Z</time>
      </trkpt>
      <trkpt lat="45.0475" lon="6.30194">
        <ele>1614</ele>
        <time>2024-08-10T10:05:18Z</time>
      </trkpt>
      <trkpt lat="45.0475" lon="6.30194">
        <ele>1613.8</ele>
        <time>2024-08-10T10:05:19Z</time>
      </trkpt>
      <trkpt lat="45.0475" lon="6.30194">
        <ele>1613.4</ele>
        <time>2024-08-10T10:05:20Z</time>
      </trkpt>
      <trkpt lat="45.0475" lon="6.30194">
        <ele>1613.2</ele>
        <time>2024-08-10T10:05:21Z</time>
      </trkpt>
      <trkpt lat="45.0475" lon="6.30194">
        <ele>1613.2</ele>
        <time>2024-08-10T10:05:22Z</time>
      </trkpt>
      <trkpt lat="45.0475" lon="6.30194">
        <ele>1613.2</ele>
        <time>2024-08-10T10:05:23Z</time>
      </trkpt>
      <trkpt lat="45.0475" lon="6.30194">
        <ele>1613.4</ele>
        <time>2024-08-10T10:05:24Z</time>
      </trkpt>
      <trkpt lat="45.0475" lon="6.30194">
        <ele>1613.4</ele>
        <time>2024-08-10T10:05:25Z</time>
      </trkpt>
      <trkpt lat="45.0475" lon="6.30194">
        <ele>1613.4</ele>
        <time>2024-08-10T10:05:26Z</time>
      </trkpt>
      <trkpt lat="45.0475" lon="6.30194">
        <ele>1613.2</ele>
        <time>2024-08-10T10:05:27Z</time>
      </trkpt>
      <trkpt lat="45.0475" lon="6.30194">
        <ele>1613.2</ele>
        <time>2024-08-10T10:05:28Z</time>
      </trkpt>
      <trkpt lat="45.0475" lon="6.30194">
        <ele>1613.2</ele>
        <time>2024-08-10T10:05:29Z</time>
      </trkpt>
      <trkpt lat="45.04748" lon="6.30196">
        <ele>1613.2</ele>
        <time>2024-08-10T10:05:30Z</time>
      </trkpt>
      <trkpt lat="45.04748" lon="6.30196">
        <ele>1613</ele>
        <time>2024-08-10T10:05:31Z</time>
      </trkpt>
      <trkpt lat="45.04746" lon="6.30199">
        <ele>1613</ele>
        <time>2024-08-10T10:05:32Z</time>
      </trkpt>
      <trkpt lat="45.04746" lon="6.30199">
        <ele>1613</ele>
        <time>2024-08-10T10:05:33Z</time>
      </trkpt>
      <trkpt lat="45.04744" lon="6.30202">
        <ele>1612.8</ele>
        <time>2024-08-10T10:05:34Z</time>
      </trkpt>
      <trkpt lat="45.04744" lon="6.30202">
        <ele>1612.6</ele>
        <time>2024-08-10T10:05:35Z</time>
      </trkpt>
      <trkpt lat="45.04743" lon="6.30205">
        <ele>1612.4</ele>
        <time>2024-08-10T10:05:36Z</time>
      </trkpt>
      <trkpt lat="45.04743" lon="6.30205">
        <ele>1612.2</ele>
        <time>2024-08-10T10:05:37Z</time>
      </trkpt>
      <trkpt lat="45.04742" lon="6.30207">
        <ele>1611.6</ele>
        <time>2024-08-10T10:05:38Z</time>
      </trkpt>
      <trkpt lat="45.04742" lon="6.30207">
        <ele>1611.4</ele>
        <time>2024-08-10T10:05:39Z</time>
      </trkpt>
      <trkpt lat="45.04741" lon="6.30209">
        <ele>1611</ele>
        <time>2024-08-10T10:05:40Z</time>
      </trkpt>
      <trkpt lat="45.04741" lon="6.30209">
        <ele>1610.8</ele>
        <time>2024-08-10T10:05:41Z</time>
      </trkpt>
      <trkpt lat="45.04739" lon="6.30211">
        <ele>1610.6</ele>
        <time>2024-08-10T10:05:42Z</time>
      </trkpt>
      <trkpt lat="45.04739" lon="6.30211">
        <ele>1610.2</ele>
        <time>2024-08-10T10:05:43Z</time>
      </trkpt>
      <trkpt lat="45.04739" lon="6.30211">
        <ele>1610</ele>
        <time>2024-08-10T10:05:44Z</time>
      </trkpt>
      <trkpt lat="45.04737" lon="6.30213">
        <ele>1609.8</ele>
        <time>2024-08-10T10:05:45Z</time>
      </trkpt>
      <trkpt lat="45.04737" lon="6.30213">
        <ele>1609.4</ele>
        <time>2024-08-10T10:05:46Z</time>
      </trkpt>
      <trkpt lat="45.04735" lon="6.30215">
        <ele>1609.2</ele>
        <time>2024-08-10T10:05:47Z</time>
      </trkpt>
      <trkpt lat="45.04735" lon="6.30215">
        <ele>1609</ele>
        <time>2024-08-10T10:05:48Z</time>
      </trkpt>
      <trkpt lat="45.04733" lon="6.30217">
        <ele>1608.6</ele>
        <time>2024-08-10T10:05:49Z</time>
      </trkpt>
      <trkpt lat="45.04733" lon="6.30217">
        <ele>1608.4</ele>
        <time>2024-08-10T10:05:50Z</time>
      </trkpt>
      <trkpt lat="45.04733" lon="6.30217">
        <ele>1608</ele>
        <time>2024-08-10T10:05:51Z</time>
      </trkpt>
      <trkpt lat="45.0473" lon="6.30216">
        <ele>1608</ele>
        <time>2024-08-10T10:05:52Z</time>
      </trkpt>
      <trkpt lat="45.0473" lon="6.30216">
        <ele>1607.6</ele>
        <time>2024-08-10T10:05:53Z</time>
      </trkpt>
      <trkpt lat="45.0473" lon="6.30216">
        <ele>1607.4</ele>
        <time>2024-08-10T10:05:54Z</time>
      </trkpt>
      <trkpt lat="45.04727" lon="6.30216">
        <ele>1607.2</ele>
        <time>2024-08-10T10:05:55Z</time>
      </trkpt>
      <trkpt lat="45.04727" lon="6.30216">
        <ele>1607.2</ele>
        <time>2024-08-10T10:05:56Z</time>
      </trkpt>
      <trkpt lat="45.04725" lon="6.30218">
        <ele>1607</ele>
        <time>2024-08-10T10:05:57Z</time>
      </trkpt>
      <trkpt lat="45.04725" lon="6.30218">
        <ele>1606.8</ele>
        <time>2024-08-10T10:05:58Z</time>
      </trkpt>
      <trkpt lat="45.04723" lon="6.3022">
        <ele>1606.6</ele>
        <time>2024-08-10T10:05:59Z</time>
      </trkpt>
      <trkpt lat="45.04723" lon="6.3022">
        <ele>1606.2</ele>
        <time>2024-08-10T10:06:00Z</time>
      </trkpt>
      <trkpt lat="45.04723" lon="6.3022">
        <ele>1606.2</ele>
        <time>2024-08-10T10:06:01Z</time>
      </trkpt>
      <trkpt lat="45.04721" lon="6.30223">
        <ele>1606</ele>
        <time>2024-08-10T10:06:02Z</time>
      </trkpt>
      <trkpt lat="45.04721" lon="6.30223">
        <ele>1605.6</ele>
        <time>2024-08-10T10:06:03Z</time>
      </trkpt>
      <trkpt lat="45.04719" lon="6.30224">
        <ele>1605.6</ele>
        <time>2024-08-10T10:06:04Z</time>
      </trkpt>
      <trkpt lat="45.04719" lon="6.30224">
        <ele>1605.4</ele>
        <time>2024-08-10T10:06:05Z</time>
      </trkpt>
      <trkpt lat="45.04717" lon="6.30227">
        <ele>1605.2</ele>
        <time>2024-08-10T10:06:06Z</time>
      </trkpt>
      <trkpt lat="45.04717" lon="6.30227">
        <ele>1604.8</ele>
        <time>2024-08-10T10:06:07Z</time>
      </trkpt>
      <trkpt lat="45.04717" lon="6.30227">
        <ele>1604.8</ele>
        <time>2024-08-10T10:06:08Z</time>
      </trkpt>
      <trkpt lat="45.04715" lon="6.30228">
        <ele>1604.6</ele>
        <time>2024-08-10T10:06:09Z</time>
      </trkpt>
      <trkpt lat="45.04715" lon="6.30228">
        <ele>1604.4</ele>
        <time>2024-08-10T10:06:10Z</time>
      </trkpt>
      <trkpt lat="45.04715" lon="6.30228">
        <ele>1604.4</ele>
        <time>2024-08-10T10:06:11Z</time>
      </trkpt>
      <trkpt lat="45.04715" lon="6.30228">
        <ele>1604.2</ele>
        <time>2024-08-10T10:06:12Z</time>
      </trkpt>
      <trkpt lat="45.04715" lon="6.30228">
        <ele>1604.2</ele>
        <time>2024-08-10T10:06:13Z</time>
      </trkpt>
      <trkpt lat="45.04715" lon="6.30228">
        <ele>1604</ele>
        <time>2024-08-10T10:06:14Z</time>
      </trkpt>
      <trkpt lat="45.04715" lon="6.30228">
        <ele>1604</ele>
        <time>2024-08-10T10:06:15Z</time>
      </trkpt>
      <trkpt lat="45.04715" lon="6.30228">
        <ele>1603.8</ele>
        <time>2024-08-10T10:06:16Z</time>
      </trkpt>
      <trkpt lat="45.04715" lon="6.30228">
        <ele>1603.8</ele>
        <time>2024-08-10T10:06:17Z</time>
      </trkpt>
      <trkpt lat="45.04715" lon="6.30228">
        <ele>1603.6</ele>
        <time>2024-08-10T10:06:18Z</time>
      </trkpt>
      <trkpt lat="45.04715" lon="6.30228">
        <ele>1603.6</ele>
        <time>2024-08-10T10:06:19Z</time>
      </trkpt>
      <trkpt lat="45.04715" lon="6.30228">
        <ele>1603.4</ele>
        <time>2024-08-10T10:06:20Z</time>
      </trkpt>
      <trkpt lat="45.04715" lon="6.30228">
        <ele>1603.4</ele>
        <time>2024-08-10T10:06:21Z</time>
      </trkpt>
      <trkpt lat="45.04715" lon="6.30228">
        <ele>1603.4</ele>
        <time>2024-08-10T10:06:22Z</time>
      </trkpt>
      <trkpt lat="45.04715" lon="6.30228">
        <ele>1603.4</ele>
        <time>2024-08-10T10:06:23Z</time>
      </trkpt>
      <trkpt lat="45.04715" lon="6.30228">
        <ele>1603.4</ele>
        <time>2024-08-10T10:06:24Z</time>
      </trkpt>
      <trkpt lat="45.04715" lon="6.30228">
        <ele>1603.4</ele>
        <time>2024-08-10T10:06:25Z</time>
      </trkpt>
      <trkpt lat="45.04715" lon="6.30228">
        <ele>1603.6</ele>
        <time>2024-08-10T10:06:26Z</time>
      </trkpt>
      <trkpt lat="45.04715" lon="6.30228">
        <ele>1603.6</ele>
        <time>2024-08-10T10:06:27Z</time>
      </trkpt>
      <trkpt lat="45.04715" lon="6.30228">
        <ele>1603.4</ele>
        <time>2024-08-10T10:06:28Z</time>
      </trkpt>
      <trkpt lat="45.04715" lon="6.30228">
        <ele>1603.4</ele>
        <time>2024-08-10T10:06:29Z</time>
      </trkpt>
      <trkpt lat="45.04715" lon="6.30228">
        <ele>1603.4</ele>
        <time>2024-08-10T10:06:30Z</time>
      </trkpt>
      <trkpt lat="45.04715" lon="6.30228">
        <ele>1603.6</ele>
        <time>2024-08-10T10:06:31Z</time>
      </trkpt>
      <trkpt lat="45.04715" lon="6.30228">
        <ele>1603.6</ele>
        <time>2024-08-10T10:06:32Z</time>
      </trkpt>
      <trkpt lat="45.04715" lon="6.30228">
        <ele>1603.8</ele>
        <time>2024-08-10T10:06:33Z</time>
      </trkpt>
      <trkpt lat="45.04715" lon="6.30228">
        <ele>1603.8</ele>
        <time>2024-08-10T10:06:34Z</time>
      </trkpt>
      <trkpt lat="45.04713" lon="6.30228">
        <ele>1603.8</ele>
        <time>2024-08-10T10:06:35Z</time>
      </trkpt>
      <trkpt lat="45.04713" lon="6.30228">
        <ele>1603.6</ele>
        <time>2024-08-10T10:06:36Z</time>
      </trkpt>
      <trkpt lat="45.04711" lon="6.30229">
        <ele>1603.6</ele>
        <time>2024-08-10T10:06:37Z</time>
      </trkpt>
      <trkpt lat="45.04711" lon="6.30229">
        <ele>1603.4</ele>
        <time>2024-08-10T10:06:38Z</time>
      </trkpt>
      <trkpt lat="45.04709" lon="6.3023">
        <ele>1603.2</ele>
        <time>2024-08-10T10:06:39Z</time>
      </trkpt>
      <trkpt lat="45.04709" lon="6.3023">
        <ele>1602.8</ele>
        <time>2024-08-10T10:06:40Z</time>
      </trkpt>
      <trkpt lat="45.04706" lon="6.30232">
        <ele>1602.4</ele>
        <time>2024-08-10T10:06:41Z</time>
      </trkpt>
      <trkpt lat="45.04706" lon="6.30232">
        <ele>1602</ele>
        <time>2024-08-10T10:06:42Z</time>
      </trkpt>
      <trkpt lat="45.04704" lon="6.30233">
        <ele>1601.6</ele>
        <time>2024-08-10T10:06:43Z</time>
      </trkpt>
      <trkpt lat="45.04704" lon="6.30233">
        <ele>1601.4</ele>
        <time>2024-08-10T10:06:44Z</time>
      </trkpt>
      <trkpt lat="45.04702" lon="6.30233">
        <ele>1601.2</ele>
        <time>2024-08-10T10:06:45Z</time>
      </trkpt>
      <trkpt lat="45.04702" lon="6.30233">
        <ele>1601</ele>
        <time>2024-08-10T10:06:46Z</time>
      </trkpt>
      <trkpt lat="45.04699" lon="6.30234">
        <ele>1600.6</ele>
        <time>2024-08-10T10:06:47Z</time>
      </trkpt>
      <trkpt lat="45.04699" lon="6.30234">
        <ele>1600.2</ele>
        <time>2024-08-10T10:06:48Z</time>
      </trkpt>
      <trkpt lat="45.04697" lon="6.30235">
        <ele>1599.8</ele>
        <time>2024-08-10T10:06:49Z</time>
      </trkpt>
      <trkpt lat="45.04697" lon="6.30235">
        <ele>1599.4</ele>
        <time>2024-08-10T10:06:50Z</time>
      </trkpt>
      <trkpt lat="45.04695" lon="6.30235">
        <ele>1599.2</ele>
        <time>2024-08-10T10:06:51Z</time>
      </trkpt>
      <trkpt lat="45.04695" lon="6.30235">
        <ele>1598.8</ele>
        <time>2024-08-10T10:06:52Z</time>
      </trkpt>
      <trkpt lat="45.04693" lon="6.30237">
        <ele>1598.6</ele>
        <time>2024-08-10T10:06:53Z</time>
      </trkpt>
      <trkpt lat="45.04693" lon="6.30237">
        <ele>1598.4</ele>
        <time>2024-08-10T10:06:54Z</time>
      </trkpt>
      <trkpt lat="45.04693" lon="6.30237">
        <ele>1598.2</ele>
        <time>2024-08-10T10:06:55Z</time>
      </trkpt>
      <trkpt lat="45.04691" lon="6.3024">
        <ele>1597.8</ele>
        <time>2024-08-10T10:06:56Z</time>
      </trkpt>
      <trkpt lat="45.04691" lon="6.3024">
        <ele>1597.4</ele>
        <time>2024-08-10T10:06:57Z</time>
      </trkpt>
      <trkpt lat="45.0469" lon="6.30243">
        <ele>1597.2</ele>
        <time>2024-08-10T10:06:58Z</time>
      </trkpt>
      <trkpt lat="45.0469" lon="6.30243">
        <ele>1597.2</ele>
        <time>2024-08-10T10:06:59Z</time>
      </trkpt>
      <trkpt lat="45.04689" lon="6.30247">
        <ele>1597</ele>
        <time>2024-08-10T10:07:00Z</time>
      </trkpt>
      <trkpt lat="45.04689" lon="6.30247">
        <ele>1596.6</ele>
        <time>2024-08-10T10:07:01Z</time>
      </trkpt>
      <trkpt lat="45.04689" lon="6.30247">
        <ele>1596.6</ele>
        <time>2024-08-10T10:07:02Z</time>
      </trkpt>
      <trkpt lat="45.04689" lon="6.30247">
        <ele>1595.8</ele>
        <time>2024-08-10T10:07:03Z</time>
      </trkpt>
      <trkpt lat="45.04689" lon="6.30247">
        <ele>1595.8</ele>
        <time>2024-08-10T10:07:04Z</time>
      </trkpt>
      <trkpt lat="45.04689" lon="6.30247">
        <ele>1595.4</ele>
        <time>2024-08-10T10:07:05Z</time>
      </trkpt>
      <trkpt lat="45.0469" lon="6.30249">
        <ele>1595.4</ele>
        <time>2024-08-10T10:07:06Z</time>
      </trkpt>
      <trkpt lat="45.0469" lon="6.30249">
        <ele>1595.6</ele>
        <time>2024-08-10T10:07:07Z</time>
      </trkpt>
      <trkpt lat="45.0469" lon="6.30249">
        <ele>1595.6</ele>
        <time>2024-08-10T10:07:08Z</time>
      </trkpt>
      <trkpt lat="45.04689" lon="6.30252">
        <ele>1595.6</ele>
        <time>2024-08-10T10:07:09Z</time>
      </trkpt>
      <trkpt lat="45.04689" lon="6.30252">
        <ele>1595.4</ele>
        <time>2024-08-10T10:07:10Z</time>
      </trkpt>
      <trkpt lat="45.04688" lon="6.30255">
        <ele>1595.2</ele>
        <time>2024-08-10T10:07:11Z</time>
      </trkpt>
      <trkpt lat="45.04688" lon="6.30255">
        <ele>1594.6</ele>
        <time>2024-08-10T10:07:12Z</time>
      </trkpt>
      <trkpt lat="45.04687" lon="6.30257">
        <ele>1594.2</ele>
        <time>2024-08-10T10:07:13Z</time>
      </trkpt>
      <trkpt lat="45.04687" lon="6.30257">
        <ele>1593.8</ele>
        <time>2024-08-10T10:07:14Z</time>
      </trkpt>
      <trkpt lat="45.04687" lon="6.30257">
        <ele>1593.6</ele>
        <time>2024-08-10T10:07:15Z</time>
      </trkpt>
      <trkpt lat="45.04687" lon="6.30257">
        <ele>1593.4</ele>
        <time>2024-08-10T10:07:16Z</time>
      </trkpt>
      <trkpt lat="45.04687" lon="6.30257">
        <ele>1593.4</ele>
        <time>2024-08-10T10:07:17Z</time>
      </trkpt>
      <trkpt lat="45.04687" lon="6.30257">
        <ele>1593.2</ele>
        <time>2024-08-10T10:07:18Z</time>
      </trkpt>
      <trkpt lat="45.04687" lon="6.30257">
        <ele>1592.8</ele>
        <time>2024-08-10T10:07:19Z</time>
      </trkpt>
      <trkpt lat="45.04687" lon="6.3026">
        <ele>1592.8</ele>
        <time>2024-08-10T10:07:20Z</time>
      </trkpt>
      <trkpt lat="45.04687" lon="6.3026">
        <ele>1592.8</ele>
        <time>2024-08-10T10:07:21Z</time>
      </trkpt>
      <trkpt lat="45.04687" lon="6.30263">
        <ele>1592.4</ele>
        <time>2024-08-10T10:07:22Z</time>
      </trkpt>
      <trkpt lat="45.04687" lon="6.30263">
        <ele>1592.2</ele>
        <time>2024-08-10T10:07:23Z</time>
      </trkpt>
      <trkpt lat="45.04687" lon="6.30263">
        <ele>1591.8</ele>
        <time>2024-08-10T10:07:24Z</time>
      </trkpt>
      <trkpt lat="45.04687" lon="6.30267">
        <ele>1591.4</ele>
        <time>2024-08-10T10:07:25Z</time>
      </trkpt>
      <trkpt lat="45.04687" lon="6.30267">
        <ele>1590.8</ele>
        <time>2024-08-10T10:07:26Z</time>
      </trkpt>
      <trkpt lat="45.04687" lon="6.3027">
        <ele>1590.6</ele>
        <time>2024-08-10T10:07:27Z</time>
      </trkpt>
      <trkpt lat="45.04687" lon="6.3027">
        <ele>1590.2</ele>
        <time>2024-08-10T10:07:28Z</time>
      </trkpt>
      <trkpt lat="45.04687" lon="6.30273">
        <ele>1589.8</ele>
        <time>2024-08-10T10:07:29Z</time>
      </trkpt>
      <trkpt lat="45.04687" lon="6.30273">
        <ele>1589.2</ele>
        <time>2024-08-10T10:07:30Z</time>
      </trkpt>
      <trkpt lat="45.04688" lon="6.30276">
        <ele>1588.8</ele>
        <time>2024-08-10T10:07:31Z</time>
      </trkpt>
      <trkpt lat="45.04688" lon="6.30276">
        <ele>1588.6</ele>
        <time>2024-08-10T10:07:32Z</time>
      </trkpt>
      <trkpt lat="45.04688" lon="6.30276">
        <ele>1588.4</ele>
        <time>2024-08-10T10:07:33Z</time>
      </trkpt>
      <trkpt lat="45.04688" lon="6.30276">
        <ele>1588.2</ele>
        <time>2024-08-10T10:07:34Z</time>
      </trkpt>
      <trkpt lat="45.04688" lon="6.30276">
        <ele>1588</ele>
        <time>2024-08-10T10:07:35Z</time>
      </trkpt>
      <trkpt lat="45.04688" lon="6.30276">
        <ele>1587.6</ele>
        <time>2024-08-10T10:07:36Z</time>
      </trkpt>
      <trkpt lat="45.04688" lon="6.30276">
        <ele>1587.4</ele>
        <time>2024-08-10T10:07:37Z</time>
      </trkpt>
      <trkpt lat="45.04687" lon="6.30279">
        <ele>1587.4</ele>
        <time>2024-08-10T10:07:38Z</time>
      </trkpt>
      <trkpt lat="45.04687" lon="6.30279">
        <ele>1587.6</ele>
        <time>2024-08-10T10:07:39Z</time>
      </trkpt>
      <trkpt lat="45.04687" lon="6.30283">
        <ele>1587.6</ele>
        <time>2024-08-10T10:07:40Z</time>
      </trkpt>
      <trkpt lat="45.04687" lon="6.30283">
        <ele>1587.4</ele>
        <time>2024-08-10T10:07:41Z</time>
      </trkpt>
      <trkpt lat="45.04687" lon="6.30287">
        <ele>1587.2</ele>
        <time>2024-08-10T10:07:42Z</time>
      </trkpt>
      <trkpt lat="45.04687" lon="6.30287">
        <ele>1586.8</ele>
        <time>2024-08-10T10:07:43Z</time>
      </trkpt>
      <trkpt lat="45.04687" lon="6.3029">
        <ele>1586.4</ele>
        <time>2024-08-10T10:07:44Z</time>
      </trkpt>
      <trkpt lat="45.04687" lon="6.3029">
        <ele>1586.2</ele>
        <time>2024-08-10T10:07:45Z</time>
      </trkpt>
      <trkpt lat="45.04687" lon="6.3029">
        <ele>1585.8</ele>
        <time>2024-08-10T10:07:46Z</time>
      </trkpt>
      <trkpt lat="45.04687" lon="6.30293">
        <ele>1585.4</ele>
        <time>2024-08-10T10:07:47Z</time>
      </trkpt>
      <trkpt lat="45.04687" lon="6.30293">
        <ele>1585.2</ele>
        <time>2024-08-10T10:07:48Z</time>
      </trkpt>
      <trkpt lat="45.04687" lon="6.30296">
        <ele>1584.6</ele>
        <time>2024-08-10T10:07:49Z</time>
      </trkpt>
      <trkpt lat="45.04687" lon="6.30296">
        <ele>1584.2</ele>
        <time>2024-08-10T10:07:50Z</time>
      </trkpt>
      <trkpt lat="45.04687" lon="6.30298">
        <ele>1583.8</ele>
        <time>2024-08-10T10:07:51Z</time>
      </trkpt>
      <trkpt lat="45.04687" lon="6.30298">
        <ele>1583.6</ele>
        <time>2024-08-10T10:07:52Z</time>
      </trkpt>
      <trkpt lat="45.04686" lon="6.30301">
        <ele>1583.4</ele>
        <time>2024-08-10T10:07:53Z</time>
      </trkpt>
      <trkpt lat="45.04686" lon="6.30301">
        <ele>1583.2</ele>
        <time>2024-08-10T10:07:54Z</time>
      </trkpt>
      <trkpt lat="45.04685" lon="6.30304">
        <ele>1582.6</ele>
        <time>2024-08-10T10:07:55Z</time>
      </trkpt>
      <trkpt lat="45.04685" lon="6.30304">
        <ele>1582.4</ele>
        <time>2024-08-10T10:07:56Z</time>
      </trkpt>
      <trkpt lat="45.04685" lon="6.30306">
        <ele>1581.8</ele>
        <time>2024-08-10T10:07:57Z</time>
      </trkpt>
      <trkpt lat="45.04685" lon="6.30306">
        <ele>1581.6</ele>
        <time>2024-08-10T10:07:58Z</time>
      </trkpt>
      <trkpt lat="45.04685" lon="6.30309">
        <ele>1581</ele>
        <time>2024-08-10T10:07:59Z</time>
      </trkpt>
      <trkpt lat="45.04685" lon="6.30309">
        <ele>1581</ele>
        <time>2024-08-10T10:08:00Z</time>
      </trkpt>
      <trkpt lat="45.04685" lon="6.30312">
        <ele>1580.6</ele>
        <time>2024-08-10T10:08:01Z</time>
      </trkpt>
      <trkpt lat="45.04685" lon="6.30312">
        <ele>1580</ele>
        <time>2024-08-10T10:08:02Z</time>
      </trkpt>
      <trkpt lat="45.04685" lon="6.30314">
        <ele>1579.6</ele>
        <time>2024-08-10T10:08:03Z</time>
      </trkpt>
      <trkpt lat="45.04685" lon="6.30314">
        <ele>1579.6</ele>
        <time>2024-08-10T10:08:04Z</time>
      </trkpt>
      <trkpt lat="45.04685" lon="6.30317">
        <ele>1579</ele>
        <time>2024-08-10T10:08:05Z</time>
      </trkpt>
      <trkpt lat="45.04685" lon="6.30317">
        <ele>1578.8</ele>
        <time>2024-08-10T10:08:06Z</time>
      </trkpt>
      <trkpt lat="45.04685" lon="6.3032">
        <ele>1578.4</ele>
        <time>2024-08-10T10:08:07Z</time>
      </trkpt>
      <trkpt lat="45.04685" lon="6.3032">
        <ele>1578.2</ele>
        <time>2024-08-10T10:08:08Z</time>
      </trkpt>
      <trkpt lat="45.04686" lon="6.30323">
        <ele>1577.8</ele>
        <time>2024-08-10T10:08:09Z</time>
      </trkpt>
      <trkpt lat="45.04686" lon="6.30323">
        <ele>1577.2</ele>
        <time>2024-08-10T10:08:10Z</time>
      </trkpt>
      <trkpt lat="45.04686" lon="6.30326">
        <ele>1577.2</ele>
        <time>2024-08-10T10:08:11Z</time>
      </trkpt>
      <trkpt lat="45.04686" lon="6.30326">
        <ele>1577</ele>
        <time>2024-08-10T10:08:12Z</time>
      </trkpt>
      <trkpt lat="45.04687" lon="6.30328">
        <ele>1576.6</ele>
        <time>2024-08-10T10:08:13Z</time>
      </trkpt>
      <trkpt lat="45.04687" lon="6.30328">
        <ele>1576.4</ele>
        <time>2024-08-10T10:08:14Z</time>
      </trkpt>
      <trkpt lat="45.04687" lon="6.30331">
        <ele>1576</ele>
        <time>2024-08-10T10:08:15Z</time>
      </trkpt>
      <trkpt lat="45.04687" lon="6.30331">
        <ele>1575.8</ele>
        <time>2024-08-10T10:08:16Z</time>
      </trkpt>
      <trkpt lat="45.04687" lon="6.30334">
        <ele>1575.6</ele>
        <time>2024-08-10T10:08:17Z</time>
      </trkpt>
      <trkpt lat="45.04687" lon="6.30334">
        <ele>1575.2</ele>
        <time>2024-08-10T10:08:18Z</time>
      </trkpt>
      <trkpt lat="45.04687" lon="6.30337">
        <ele>1575</ele>
        <time>2024-08-10T10:08:19Z</time>
      </trkpt>
      <trkpt lat="45.04687" lon="6.30337">
        <ele>1574.8</ele>
        <time>2024-08-10T10:08:20Z</time>
      </trkpt>
      <trkpt lat="45.04687" lon="6.30339">
        <ele>1574.6</ele>
        <time>2024-08-10T10:08:21Z</time>
      </trkpt>
      <trkpt lat="45.04687" lon="6.30339">
        <ele>1574.2</ele>
        <time>2024-08-10T10:08:22Z</time>
      </trkpt>
      <trkpt lat="45.04687" lon="6.30339">
        <ele>1573.8</ele>
        <time>2024-08-10T10:08:23Z</time>
      </trkpt>
      <trkpt lat="45.04687" lon="6.30343">
        <ele>1573.8</ele>
        <time>2024-08-10T10:08:24Z</time>
      </trkpt>
      <trkpt lat="45.04687" lon="6.30343">
        <ele>1573.6</ele>
        <time>2024-08-10T10:08:25Z</time>
      </trkpt>
      <trkpt lat="45.04689" lon="6.30345">
        <ele>1573.4</ele>
        <time>2024-08-10T10:08:26Z</time>
      </trkpt>
      <trkpt lat="45.04689" lon="6.30345">
        <ele>1573.2</ele>
        <time>2024-08-10T10:08:27Z</time>
      </trkpt>
      <trkpt lat="45.04691" lon="6.30346">
        <ele>1573</ele>
        <time>2024-08-10T10:08:28Z</time>
      </trkpt>
      <trkpt lat="45.04691" lon="6.30346">
        <ele>1573</ele>
        <time>2024-08-10T10:08:29Z</time>
      </trkpt>
      <trkpt lat="45.04694" lon="6.30348">
        <ele>1572.6</ele>
        <time>2024-08-10T10:08:30Z</time>
      </trkpt>
      <trkpt lat="45.04694" lon="6.30348">
        <ele>1572.2</ele>
        <time>2024-08-10T10:08:31Z</time>
      </trkpt>
      <trkpt lat="45.04695" lon="6.3035">
        <ele>1571.6</ele>
        <time>2024-08-10T10:08:32Z</time>
      </trkpt>
      <trkpt lat="45.04695" lon="6.3035">
        <ele>1571.6</ele>
        <time>2024-08-10T10:08:33Z</time>
      </trkpt>
      <trkpt lat="45.04696" lon="6.30353">
        <ele>1571.4</ele>
        <time>2024-08-10T10:08:34Z</time>
      </trkpt>
      <trkpt lat="45.04696" lon="6.30353">
        <ele>1571.4</ele>
        <time>2024-08-10T10:08:35Z</time>
      </trkpt>
      <trkpt lat="45.04697" lon="6.30357">
        <ele>1570.6</ele>
        <time>2024-08-10T10:08:36Z</time>
      </trkpt>
      <trkpt lat="45.04697" lon="6.30357">
        <ele>1570.2</ele>
        <time>2024-08-10T10:08:37Z</time>
      </trkpt>
      <trkpt lat="45.04697" lon="6.3036">
        <ele>1570</ele>
        <time>2024-08-10T10:08:38Z</time>
      </trkpt>
      <trkpt lat="45.04697" lon="6.3036">
        <ele>1569.8</ele>
        <time>2024-08-10T10:08:39Z</time>
      </trkpt>
      <trkpt lat="45.04699" lon="6.30363">
        <ele>1569.4</ele>
        <time>2024-08-10T10:08:40Z</time>
      </trkpt>
      <trkpt lat="45.04701" lon="6.30365">
        <ele>1569.4</ele>
        <time>2024-08-10T10:08:41Z</time>
      </trkpt>
      <trkpt lat="45.04701" lon="6.30365">
        <ele>1569.4</ele>
        <time>2024-08-10T10:08:42Z</time>
      </trkpt>
      <trkpt lat="45.04704" lon="6.30367">
        <ele>1569.4</ele>
        <time>2024-08-10T10:08:43Z</time>
      </trkpt>
      <trkpt lat="45.04704" lon="6.30367">
        <ele>1569.4</ele>
        <time>2024-08-10T10:08:44Z</time>
      </trkpt>
      <trkpt lat="45.04707" lon="6.30367">
        <ele>1569.2</ele>
        <time>2024-08-10T10:08:45Z</time>
      </trkpt>
      <trkpt lat="45.04707" lon="6.30367">
        <ele>1569.2</ele>
        <time>2024-08-10T10:08:46Z</time>
      </trkpt>
      <trkpt lat="45.04709" lon="6.30366">
        <ele>1569</ele>
        <time>2024-08-10T10:08:47Z</time>
      </trkpt>
      <trkpt lat="45.04709" lon="6.30366">
        <ele>1569</ele>
        <time>2024-08-10T10:08:48Z</time>
      </trkpt>
      <trkpt lat="45.04712" lon="6.30367">
        <ele>1568.8</ele>
        <time>2024-08-10T10:08:49Z</time>
      </trkpt>
      <trkpt lat="45.04712" lon="6.30367">
        <ele>1568.8</ele>
        <time>2024-08-10T10:08:50Z</time>
      </trkpt>
      <trkpt lat="45.04715" lon="6.30365">
        <ele>1568.8</ele>
        <time>2024-08-10T10:08:51Z</time>
      </trkpt>
      <trkpt lat="45.04715" lon="6.30365">
        <ele>1568.8</ele>
        <time>2024-08-10T10:08:52Z</time>
      </trkpt>
      <trkpt lat="45.04718" lon="6.30365">
        <ele>1568.6</ele>
        <time>2024-08-10T10:08:53Z</time>
      </trkpt>
      <trkpt lat="45.04718" lon="6.30365">
        <ele>1568.4</ele>
        <time>2024-08-10T10:08:54Z</time>
      </trkpt>
      <trkpt lat="45.0472" lon="6.30365">
        <ele>1568.4</ele>
        <time>2024-08-10T10:08:55Z</time>
      </trkpt>
      <trkpt lat="45.0472" lon="6.30365">
        <ele>1568.4</ele>
        <time>2024-08-10T10:08:56Z</time>
      </trkpt>
      <trkpt lat="45.04723" lon="6.30365">
        <ele>1568.4</ele>
        <time>2024-08-10T10:08:57Z</time>
      </trkpt>
      <trkpt lat="45.04723" lon="6.30365">
        <ele>1568.2</ele>
        <time>2024-08-10T10:08:58Z</time>
      </trkpt>
      <trkpt lat="45.04725" lon="6.30366">
        <ele>1568.2</ele>
        <time>2024-08-10T10:08:59Z</time>
      </trkpt>
      <trkpt lat="45.04725" lon="6.30366">
        <ele>1568</ele>
        <time>2024-08-10T10:09:00Z</time>
      </trkpt>
      <trkpt lat="45.04727" lon="6.30367">
        <ele>1568</ele>
        <time>2024-08-10T10:09:01Z</time>
      </trkpt>
      <trkpt lat="45.04727" lon="6.30367">
        <ele>1567.8</ele>
        <time>2024-08-10T10:09:02Z</time>
      </trkpt>
      <trkpt lat="45.0473" lon="6.30369">
        <ele>1567.8</ele>
        <time>2024-08-10T10:09:03Z</time>
      </trkpt>
      <trkpt lat="45.0473" lon="6.30369">
        <ele>1567.8</ele>
        <time>2024-08-10T10:09:04Z</time>
      </trkpt>
      <trkpt lat="45.04732" lon="6.30369">
        <ele>1567.6</ele>
        <time>2024-08-10T10:09:05Z</time>
      </trkpt>
      <trkpt lat="45.04732" lon="6.30369">
        <ele>1567.6</ele>
        <time>2024-08-10T10:09:06Z</time>
      </trkpt>
      <trkpt lat="45.04732" lon="6.30369">
        <ele>1567.4</ele>
        <time>2024-08-10T10:09:07Z</time>
      </trkpt>
      <trkpt lat="45.04732" lon="6.30369">
        <ele>1567.4</ele>
        <time>2024-08-10T10:09:08Z</time>
      </trkpt>
      <trkpt lat="45.04734" lon="6.30369">
        <ele>1567.2</ele>
        <time>2024-08-10T10:09:09Z</time>
      </trkpt>
      <trkpt lat="45.04734" lon="6.30369">
        <ele>1566.6</ele>
        <time>2024-08-10T10:09:10Z</time>
      </trkpt>
      <trkpt lat="45.04737" lon="6.30369">
        <ele>1566.6</ele>
        <time>2024-08-10T10:09:11Z</time>
      </trkpt>
      <trkpt lat="45.04737" lon="6.30369">
        <ele>1566.6</ele>
        <time>2024-08-10T10:09:12Z</time>
      </trkpt>
      <trkpt lat="45.0474" lon="6.30368">
        <ele>1566.4</ele>
        <time>2024-08-10T10:09:13Z</time>
      </trkpt>
      <trkpt lat="45.0474" lon="6.30368">
        <ele>1566.4</ele>
        <time>2024-08-10T10:09:14Z</time>
      </trkpt>
      <trkpt lat="45.04742" lon="6.30368">
        <ele>1566</ele>
        <time>2024-08-10T10:09:15Z</time>
      </trkpt>
      <trkpt lat="45.04742" lon="6.30368">
        <ele>1566</ele>
        <time>2024-08-10T10:09:16Z</time>
      </trkpt>
      <trkpt lat="45.04744" lon="6.30367">
        <ele>1565.8</ele>
        <time>2024-08-10T10:09:17Z</time>
      </trkpt>
      <trkpt lat="45.04744" lon="6.30367">
        <ele>1565.8</ele>
        <time>2024-08-10T10:09:18Z</time>
      </trkpt>
      <trkpt lat="45.04747" lon="6.30367">
        <ele>1565.6</ele>
        <time>2024-08-10T10:09:19Z</time>
      </trkpt>
      <trkpt lat="45.04747" lon="6.30367">
        <ele>1565.4</ele>
        <time>2024-08-10T10:09:20Z</time>
      </trkpt>
      <trkpt lat="45.04748" lon="6.30366">
        <ele>1565.4</ele>
        <time>2024-08-10T10:09:21Z</time>
      </trkpt>
      <trkpt lat="45.04748" lon="6.30366">
        <ele>1565.2</ele>
        <time>2024-08-10T10:09:22Z</time>
      </trkpt>
      <trkpt lat="45.04751" lon="6.30364">
        <ele>1565</ele>
        <time>2024-08-10T10:09:23Z</time>
      </trkpt>
      <trkpt lat="45.04751" lon="6.30364">
        <ele>1565</ele>
        <time>2024-08-10T10:09:24Z</time>
      </trkpt>
      <trkpt lat="45.04753" lon="6.30364">
        <ele>1564.8</ele>
        <time>2024-08-10T10:09:25Z</time>
      </trkpt>
      <trkpt lat="45.04753" lon="6.30364">
        <ele>1564.6</ele>
        <time>2024-08-10T10:09:26Z</time>
      </trkpt>
      <trkpt lat="45.04756" lon="6.30365">
        <ele>1564.2</ele>
        <time>2024-08-10T10:09:27Z</time>
      </trkpt>
      <trkpt lat="45.04756" lon="6.30365">
        <ele>1564.2</ele>
        <time>2024-08-10T10:09:28Z</time>
      </trkpt>
      <trkpt lat="45.04758" lon="6.30369">
        <ele>1564.2</ele>
        <time>2024-08-10T10:09:29Z</time>
      </trkpt>
      <trkpt lat="45.04758" lon="6.30369">
        <ele>1564</ele>
        <time>2024-08-10T10:09:30Z</time>
      </trkpt>
      <trkpt lat="45.04758" lon="6.30372">
        <ele>1563.8</ele>
        <time>2024-08-10T10:09:31Z</time>
      </trkpt>
      <trkpt lat="45.0476" lon="6.30375">
        <ele>1563.6</ele>
        <time>2024-08-10T10:09:32Z</time>
      </trkpt>
      <trkpt lat="45.0476" lon="6.30375">
        <ele>1563.4</ele>
        <time>2024-08-10T10:09:33Z</time>
      </trkpt>
      <trkpt lat="45.04761" lon="6.30379">
        <ele>1563.2</ele>
        <time>2024-08-10T10:09:34Z</time>
      </trkpt>
      <trkpt lat="45.04761" lon="6.30379">
        <ele>1563</ele>
        <time>2024-08-10T10:09:35Z</time>
      </trkpt>
      <trkpt lat="45.04761" lon="6.30383">
        <ele>1563</ele>
        <time>2024-08-10T10:09:36Z</time>
      </trkpt>
      <trkpt lat="45.04761" lon="6.30383">
        <ele>1563</ele>
        <time>2024-08-10T10:09:37Z</time>
      </trkpt>
      <trkpt lat="45.0476" lon="6.30386">
        <ele>1563</ele>
        <time>2024-08-10T10:09:38Z</time>
      </trkpt>
      <trkpt lat="45.0476" lon="6.30386">
        <ele>1563</ele>
        <time>2024-08-10T10:09:39Z</time>
      </trkpt>
      <trkpt lat="45.04758" lon="6.30389">
        <ele>1562.8</ele>
        <time>2024-08-10T10:09:40Z</time>
      </trkpt>
      <trkpt lat="45.04758" lon="6.30389">
        <ele>1562.6</ele>
        <time>2024-08-10T10:09:41Z</time>
      </trkpt>
      <trkpt lat="45.04756" lon="6.30392">
        <ele>1562.2</ele>
        <time>2024-08-10T10:09:42Z</time>
      </trkpt>
      <trkpt lat="45.04756" lon="6.30392">
        <ele>1562</ele>
        <time>2024-08-10T10:09:43Z</time>
      </trkpt>
      <trkpt lat="45.04754" lon="6.30394">
        <ele>1562</ele>
        <time>2024-08-10T10:09:44Z</time>
      </trkpt>
      <trkpt lat="45.04754" lon="6.30394">
        <ele>1561.8</ele>
        <time>2024-08-10T10:09:45Z</time>
      </trkpt>
      <trkpt lat="45.04752" lon="6.30396">
        <ele>1561.4</ele>
        <time>2024-08-10T10:09:46Z</time>
      </trkpt>
      <trkpt lat="45.0475" lon="6.30397">
        <ele>1561.2</ele>
        <time>2024-08-10T10:09:47Z</time>
      </trkpt>
      <trkpt lat="45.0475" lon="6.30397">
        <ele>1561</ele>
        <time>2024-08-10T10:09:48Z</time>
      </trkpt>
      <trkpt lat="45.04748" lon="6.30399">
        <ele>1561</ele>
        <time>2024-08-10T10:09:49Z</time>
      </trkpt>
      <trkpt lat="45.04748" lon="6.30399">
        <ele>1561</ele>
        <time>2024-08-10T10:09:50Z</time>
      </trkpt>
      <trkpt lat="45.04746" lon="6.30402">
        <ele>1560.8</ele>
        <time>2024-08-10T10:09:51Z</time>
      </trkpt>
      <trkpt lat="45.04746" lon="6.30402">
        <ele>1560.2</ele>
        <time>2024-08-10T10:09:52Z</time>
      </trkpt>
      <trkpt lat="45.04744" lon="6.30405">
        <ele>1560.2</ele>
        <time>2024-08-10T10:09:53Z</time>
      </trkpt>
      <trkpt lat="45.04744" lon="6.30405">
        <ele>1560</ele>
        <time>2024-08-10T10:09:54Z</time>
      </trkpt>
      <trkpt lat="45.04742" lon="6.30408">
        <ele>1560</ele>
        <time>2024-08-10T10:09:55Z</time>
      </trkpt>
      <trkpt lat="45.04742" lon="6.30408">
        <ele>1559.8</ele>
        <time>2024-08-10T10:09:56Z</time>
      </trkpt>
      <trkpt lat="45.0474" lon="6.30411">
        <ele>1559.8</ele>
        <time>2024-08-10T10:09:57Z</time>
      </trkpt>
      <trkpt lat="45.0474" lon="6.30411">
        <ele>1559.4</ele>
        <time>2024-08-10T10:09:58Z</time>
      </trkpt>
      <trkpt lat="45.04738" lon="6.30413">
        <ele>1559.4</ele>
        <time>2024-08-10T10:09:59Z</time>
      </trkpt>
      <trkpt lat="45.04738" lon="6.30413">
        <ele>1558.8</ele>
        <time>2024-08-10T10:10:00Z</time>
      </trkpt>
      <trkpt lat="45.04735" lon="6.30416">
        <ele>1558.2</ele>
        <time>2024-08-10T10:10:01Z</time>
      </trkpt>
      <trkpt lat="45.04735" lon="6.30416">
        <ele>1557.8</ele>
        <time>2024-08-10T10:10:02Z</time>
      </trkpt>
      <trkpt lat="45.04733" lon="6.30419">
        <ele>1557.8</ele>
        <time>2024-08-10T10:10:03Z</time>
      </trkpt>
      <trkpt lat="45.04733" lon="6.30419">
        <ele>1557.6</ele>
        <time>2024-08-10T10:10:04Z</time>
      </trkpt>
      <trkpt lat="45.04731" lon="6.30422">
        <ele>1557.6</ele>
        <time>2024-08-10T10:10:05Z</time>
      </trkpt>
      <trkpt lat="45.04731" lon="6.30422">
        <ele>1557.6</ele>
        <time>2024-08-10T10:10:06Z</time>
      </trkpt>
      <trkpt lat="45.0473" lon="6.30425">
        <ele>1557.4</ele>
        <time>2024-08-10T10:10:07Z</time>
      </trkpt>
      <trkpt lat="45.0473" lon="6.30425">
        <ele>1557.2</ele>
        <time>2024-08-10T10:10:08Z</time>
      </trkpt>
      <trkpt lat="45.0473" lon="6.30429">
        <ele>1557.2</ele>
        <time>2024-08-10T10:10:09Z</time>
      </trkpt>
      <trkpt lat="45.0473" lon="6.30431">
        <ele>1557</ele>
        <time>2024-08-10T10:10:10Z</time>
      </trkpt>
      <trkpt lat="45.0473" lon="6.30431">
        <ele>1556.8</ele>
        <time>2024-08-10T10:10:11Z</time>
      </trkpt>
      <trkpt lat="45.04728" lon="6.30435">
        <ele>1556.6</ele>
        <time>2024-08-10T10:10:12Z</time>
      </trkpt>
      <trkpt lat="45.04728" lon="6.30435">
        <ele>1556.4</ele>
        <time>2024-08-10T10:10:13Z</time>
      </trkpt>
      <trkpt lat="45.04727" lon="6.30438">
        <ele>1556.4</ele>
        <time>2024-08-10T10:10:14Z</time>
      </trkpt>
      <trkpt lat="45.04727" lon="6.30438">
        <ele>1555.8</ele>
        <time>2024-08-10T10:10:15Z</time>
      </trkpt>
      <trkpt lat="45.04726" lon="6.30441">
        <ele>1555.4</ele>
        <time>2024-08-10T10:10:16Z</time>
      </trkpt>
      <trkpt lat="45.04726" lon="6.30441">
        <ele>1555.2</ele>
        <time>2024-08-10T10:10:17Z</time>
      </trkpt>
      <trkpt lat="45.04724" lon="6.30444">
        <ele>1555.2</ele>
        <time>2024-08-10T10:10:18Z</time>
      </trkpt>
      <trkpt lat="45.04724" lon="6.30444">
        <ele>1555</ele>
        <time>2024-08-10T10:10:19Z</time>
      </trkpt>
      <trkpt lat="45.04723" lon="6.30448">
        <ele>1555</ele>
        <time>2024-08-10T10:10:20Z</time>
      </trkpt>
      <trkpt lat="45.04723" lon="6.30448">
        <ele>1554.6</ele>
        <time>2024-08-10T10:10:21Z</time>
      </trkpt>
      <trkpt lat="45.04722" lon="6.30451">
        <ele>1554.4</ele>
        <time>2024-08-10T10:10:22Z</time>
      </trkpt>
      <trkpt lat="45.04722" lon="6.30451">
        <ele>1554.2</ele>
        <time>2024-08-10T10:10:23Z</time>
      </trkpt>
      <trkpt lat="45.04722" lon="6.30455">
        <ele>1554</ele>
        <time>2024-08-10T10:10:24Z</time>
      </trkpt>
      <trkpt lat="45.04722" lon="6.30455">
        <ele>1553.8</ele>
        <time>2024-08-10T10:10:25Z</time>
      </trkpt>
      <trkpt lat="45.04721" lon="6.30459">
        <ele>1553.6</ele>
        <time>2024-08-10T10:10:26Z</time>
      </trkpt>
      <trkpt lat="45.04721" lon="6.30459">
        <ele>1553.4</ele>
        <time>2024-08-10T10:10:27Z</time>
      </trkpt>
      <trkpt lat="45.04721" lon="6.30463">
        <ele>1553.2</ele>
        <time>2024-08-10T10:10:28Z</time>
      </trkpt>
      <trkpt lat="45.04721" lon="6.30463">
        <ele>1552.8</ele>
        <time>2024-08-10T10:10:29Z</time>
      </trkpt>
      <trkpt lat="45.0472" lon="6.30466">
        <ele>1552.6</ele>
        <time>2024-08-10T10:10:30Z</time>
      </trkpt>
      <trkpt lat="45.0472" lon="6.30466">
        <ele>1552.4</ele>
        <time>2024-08-10T10:10:31Z</time>
      </trkpt>
      <trkpt lat="45.0472" lon="6.3047">
        <ele>1552.4</ele>
        <time>2024-08-10T10:10:32Z</time>
      </trkpt>
      <trkpt lat="45.0472" lon="6.3047">
        <ele>1552.4</ele>
        <time>2024-08-10T10:10:33Z</time>
      </trkpt>
      <trkpt lat="45.0472" lon="6.30474">
        <ele>1552.2</ele>
        <time>2024-08-10T10:10:34Z</time>
      </trkpt>
      <trkpt lat="45.0472" lon="6.30474">
        <ele>1552.2</ele>
        <time>2024-08-10T10:10:35Z</time>
      </trkpt>
      <trkpt lat="45.04719" lon="6.30478">
        <ele>1552.2</ele>
        <time>2024-08-10T10:10:36Z</time>
      </trkpt>
      <trkpt lat="45.04719" lon="6.30478">
        <ele>1552.2</ele>
        <time>2024-08-10T10:10:37Z</time>
      </trkpt>
      <trkpt lat="45.04719" lon="6.30481">
        <ele>1552.2</ele>
        <time>2024-08-10T10:10:38Z</time>
      </trkpt>
      <trkpt lat="45.04719" lon="6.30481">
        <ele>1552</ele>
        <time>2024-08-10T10:10:39Z</time>
      </trkpt>
      <trkpt lat="45.04718" lon="6.30485">
        <ele>1552</ele>
        <time>2024-08-10T10:10:40Z</time>
      </trkpt>
      <trkpt lat="45.04717" lon="6.30487">
        <ele>1552</ele>
        <time>2024-08-10T10:10:41Z</time>
      </trkpt>
      <trkpt lat="45.04715" lon="6.30488">
        <ele>1551.6</ele>
        <time>2024-08-10T10:10:42Z</time>
      </trkpt>
      <trkpt lat="45.04715" lon="6.30488">
        <ele>1551.4</ele>
        <time>2024-08-10T10:10:43Z</time>
      </trkpt>
      <trkpt lat="45.04714" lon="6.30492">
        <ele>1551.4</ele>
        <time>2024-08-10T10:10:44Z</time>
      </trkpt>
      <trkpt lat="45.04714" lon="6.30492">
        <ele>1551.4</ele>
        <time>2024-08-10T10:10:45Z</time>
      </trkpt>
      <trkpt lat="45.04713" lon="6.30495">
        <ele>1551.2</ele>
        <time>2024-08-10T10:10:46Z</time>
      </trkpt>
      <trkpt lat="45.04713" lon="6.30495">
        <ele>1550.6</ele>
        <time>2024-08-10T10:10:47Z</time>
      </trkpt>
      <trkpt lat="45.04712" lon="6.30499">
        <ele>1550.6</ele>
        <time>2024-08-10T10:10:48Z</time>
      </trkpt>
      <trkpt lat="45.04712" lon="6.30499">
        <ele>1550.4</ele>
        <time>2024-08-10T10:10:49Z</time>
      </trkpt>
      <trkpt lat="45.04711" lon="6.30503">
        <ele>1550.4</ele>
        <time>2024-08-10T10:10:50Z</time>
      </trkpt>
      <trkpt lat="45.04711" lon="6.30503">
        <ele>1550.6</ele>
        <time>2024-08-10T10:10:51Z</time>
      </trkpt>
      <trkpt lat="45.0471" lon="6.30506">
        <ele>1550.6</ele>
        <time>2024-08-10T10:10:52Z</time>
      </trkpt>
      <trkpt lat="45.0471" lon="6.30506">
        <ele>1550.2</ele>
        <time>2024-08-10T10:10:53Z</time>
      </trkpt>
      <trkpt lat="45.04709" lon="6.30509">
        <ele>1550</ele>
        <time>2024-08-10T10:10:54Z</time>
      </trkpt>
      <trkpt lat="45.04709" lon="6.30509">
        <ele>1550</ele>
        <time>2024-08-10T10:10:55Z</time>
      </trkpt>
      <trkpt lat="45.04707" lon="6.30511">
        <ele>1549.8</ele>
        <time>2024-08-10T10:10:56Z</time>
      </trkpt>
      <trkpt lat="45.04707" lon="6.30511">
        <ele>1549.6</ele>
        <time>2024-08-10T10:10:57Z</time>
      </trkpt>
      <trkpt lat="45.04705" lon="6.30514">
        <ele>1549.6</ele>
        <time>2024-08-10T10:10:58Z</time>
      </trkpt>
      <trkpt lat="45.04705" lon="6.30514">
        <ele>1549.6</ele>
        <time>2024-08-10T10:10:59Z</time>
      </trkpt>
      <trkpt lat="45.04702" lon="6.30517">
        <ele>1549.2</ele>
        <time>2024-08-10T10:11:00Z</time>
      </trkpt>
      <trkpt lat="45.04702" lon="6.30517">
        <ele>1549</ele>
        <time>2024-08-10T10:11:01Z</time>
      </trkpt>
      <trkpt lat="45.04701" lon="6.30521">
        <ele>1548.6</ele>
        <time>2024-08-10T10:11:02Z</time>
      </trkpt>
      <trkpt lat="45.04701" lon="6.30521">
        <ele>1548.6</ele>
        <time>2024-08-10T10:11:03Z</time>
      </trkpt>
      <trkpt lat="45.047" lon="6.30524">
        <ele>1548.6</ele>
        <time>2024-08-10T10:11:04Z</time>
      </trkpt>
      <trkpt lat="45.047" lon="6.30524">
        <ele>1548.4</ele>
        <time>2024-08-10T10:11:05Z</time>
      </trkpt>
      <trkpt lat="45.04698" lon="6.30527">
        <ele>1548</ele>
        <time>2024-08-10T10:11:06Z</time>
      </trkpt>
      <trkpt lat="45.04697" lon="6.30528">
        <ele>1547.8</ele>
        <time>2024-08-10T10:11:07Z</time>
      </trkpt>
      <trkpt lat="45.04697" lon="6.30528">
        <ele>1547.8</ele>
        <time>2024-08-10T10:11:08Z</time>
      </trkpt>
      <trkpt lat="45.04695" lon="6.3053">
        <ele>1547.6</ele>
        <time>2024-08-10T10:11:09Z</time>
      </trkpt>
      <trkpt lat="45.04695" lon="6.3053">
        <ele>1547.4</ele>
        <time>2024-08-10T10:11:10Z</time>
      </trkpt>
      <trkpt lat="45.04693" lon="6.30533">
        <ele>1547.2</ele>
        <time>2024-08-10T10:11:11Z</time>
      </trkpt>
      <trkpt lat="45.04693" lon="6.30533">
        <ele>1547.2</ele>
        <time>2024-08-10T10:11:12Z</time>
      </trkpt>
      <trkpt lat="45.04691" lon="6.30535">
        <ele>1547.2</ele>
        <time>2024-08-10T10:11:13Z</time>
      </trkpt>
      <trkpt lat="45.04691" lon="6.30535">
        <ele>1547.2</ele>
        <time>2024-08-10T10:11:14Z</time>
      </trkpt>
      <trkpt lat="45.04688" lon="6.30537">
        <ele>1547.2</ele>
        <time>2024-08-10T10:11:15Z</time>
      </trkpt>
      <trkpt lat="45.04686" lon="6.30539">
        <ele>1547.2</ele>
        <time>2024-08-10T10:11:16Z</time>
      </trkpt>
      <trkpt lat="45.04686" lon="6.30539">
        <ele>1547</ele>
        <time>2024-08-10T10:11:17Z</time>
      </trkpt>
      <trkpt lat="45.04683" lon="6.30541">
        <ele>1547</ele>
        <time>2024-08-10T10:11:18Z</time>
      </trkpt>
      <trkpt lat="45.0468" lon="6.30543">
        <ele>1547</ele>
        <time>2024-08-10T10:11:19Z</time>
      </trkpt>
      <trkpt lat="45.04679" lon="6.30543">
        <ele>1546.8</ele>
        <time>2024-08-10T10:11:20Z</time>
      </trkpt>
      <trkpt lat="45.04677" lon="6.30543">
        <ele>1546.6</ele>
        <time>2024-08-10T10:11:21Z</time>
      </trkpt>
      <trkpt lat="45.04677" lon="6.30543">
        <ele>1546.6</ele>
        <time>2024-08-10T10:11:22Z</time>
      </trkpt>
      <trkpt lat="45.04675" lon="6.30545">
        <ele>1546.6</ele>
        <time>2024-08-10T10:11:23Z</time>
      </trkpt>
      <trkpt lat="45.04675" lon="6.30545">
        <ele>1546.4</ele>
        <time>2024-08-10T10:11:24Z</time>
      </trkpt>
      <trkpt lat="45.04671" lon="6.30545">
        <ele>1546.2</ele>
        <time>2024-08-10T10:11:25Z</time>
      </trkpt>
      <trkpt lat="45.04671" lon="6.30545">
        <ele>1546</ele>
        <time>2024-08-10T10:11:26Z</time>
      </trkpt>
      <trkpt lat="45.04671" lon="6.30545">
        <ele>1545.8</ele>
        <time>2024-08-10T10:11:27Z</time>
      </trkpt>
      <trkpt lat="45.04669" lon="6.30545">
        <ele>1545.8</ele>
        <time>2024-08-10T10:11:28Z</time>
      </trkpt>
      <trkpt lat="45.04669" lon="6.30545">
        <ele>1545.4</ele>
        <time>2024-08-10T10:11:29Z</time>
      </trkpt>
      <trkpt lat="45.04667" lon="6.30548">
        <ele>1545.4</ele>
        <time>2024-08-10T10:11:30Z</time>
      </trkpt>
      <trkpt lat="45.04667" lon="6.30548">
        <ele>1545.4</ele>
        <time>2024-08-10T10:11:31Z</time>
      </trkpt>
      <trkpt lat="45.04665" lon="6.30547">
        <ele>1545.2</ele>
        <time>2024-08-10T10:11:32Z</time>
      </trkpt>
      <trkpt lat="45.04665" lon="6.30547">
        <ele>1545</ele>
        <time>2024-08-10T10:11:33Z</time>
      </trkpt>
      <trkpt lat="45.04665" lon="6.30547">
        <ele>1544.8</ele>
        <time>2024-08-10T10:11:34Z</time>
      </trkpt>
      <trkpt lat="45.04665" lon="6.30547">
        <ele>1544.6</ele>
        <time>2024-08-10T10:11:35Z</time>
      </trkpt>
      <trkpt lat="45.04665" lon="6.30547">
        <ele>1544.2</ele>
        <time>2024-08-10T10:11:36Z</time>
      </trkpt>
      <trkpt lat="45.04665" lon="6.30547">
        <ele>1544</ele>
        <time>2024-08-10T10:11:37Z</time>
      </trkpt>
      <trkpt lat="45.04665" lon="6.30547">
        <ele>1544</ele>
        <time>2024-08-10T10:11:38Z</time>
      </trkpt>
      <trkpt lat="45.04665" lon="6.30547">
        <ele>1543.8</ele>
        <time>2024-08-10T10:11:39Z</time>
      </trkpt>
      <trkpt lat="45.04665" lon="6.30547">
        <ele>1543.8</ele>
        <time>2024-08-10T10:11:40Z</time>
      </trkpt>
      <trkpt lat="45.04665" lon="6.30547">
        <ele>1543.6</ele>
        <time>2024-08-10T10:11:41Z</time>
      </trkpt>
      <trkpt lat="45.04665" lon="6.30547">
        <ele>1543.4</ele>
        <time>2024-08-10T10:11:42Z</time>
      </trkpt>
      <trkpt lat="45.04665" lon="6.30547">
        <ele>1543.4</ele>
        <time>2024-08-10T10:11:43Z</time>
      </trkpt>
      <trkpt lat="45.04665" lon="6.30547">
        <ele>1543.2</ele>
        <time>2024-08-10T10:11:44Z</time>
      </trkpt>
      <trkpt lat="45.04665" lon="6.30547">
        <ele>1543.2</ele>
        <time>2024-08-10T10:11:45Z</time>
      </trkpt>
      <trkpt lat="45.04665" lon="6.30547">
        <ele>1543.2</ele>
        <time>2024-08-10T10:11:46Z</time>
      </trkpt>
      <trkpt lat="45.04665" lon="6.30547">
        <ele>1543</ele>
        <time>2024-08-10T10:11:47Z</time>
      </trkpt>
      <trkpt lat="45.04644" lon="6.30551">
        <ele>1543</ele>
        <time>2024-08-10T10:11:48Z</time>
      </trkpt>
      <trkpt lat="45.04642" lon="6.3055">
        <ele>1543</ele>
        <time>2024-08-10T10:11:49Z</time>
      </trkpt>
      <trkpt lat="45.04641" lon="6.3055">
        <ele>1543</ele>
        <time>2024-08-10T10:11:50Z</time>
      </trkpt>
      <trkpt lat="45.04641" lon="6.3055">
        <ele>1543</ele>
        <time>2024-08-10T10:11:51Z</time>
      </trkpt>
      <trkpt lat="45.04637" lon="6.3055">
        <ele>1542.6</ele>
        <time>2024-08-10T10:11:52Z</time>
      </trkpt>
      <trkpt lat="45.04637" lon="6.3055">
        <ele>1542.4</ele>
        <time>2024-08-10T10:11:53Z</time>
      </trkpt>
      <trkpt lat="45.04635" lon="6.30549">
        <ele>1542.2</ele>
        <time>2024-08-10T10:11:54Z</time>
      </trkpt>
      <trkpt lat="45.04635" lon="6.30549">
        <ele>1541.2</ele>
        <time>2024-08-10T10:11:55Z</time>
      </trkpt>
      <trkpt lat="45.04633" lon="6.30548">
        <ele>1541.2</ele>
        <time>2024-08-10T10:11:56Z</time>
      </trkpt>
      <trkpt lat="45.04633" lon="6.30548">
        <ele>1540.6</ele>
        <time>2024-08-10T10:11:57Z</time>
      </trkpt>
      <trkpt lat="45.04631" lon="6.30547">
        <ele>1540</ele>
        <time>2024-08-10T10:11:58Z</time>
      </trkpt>
      <trkpt lat="45.04631" lon="6.30547">
        <ele>1539.8</ele>
        <time>2024-08-10T10:11:59Z</time>
      </trkpt>
      <trkpt lat="45.04628" lon="6.30545">
        <ele>1539.6</ele>
        <time>2024-08-10T10:12:00Z</time>
      </trkpt>
      <trkpt lat="45.04628" lon="6.30545">
        <ele>1539.2</ele>
        <time>2024-08-10T10:12:01Z</time>
      </trkpt>
      <trkpt lat="45.04625" lon="6.30543">
        <ele>1538.6</ele>
        <time>2024-08-10T10:12:02Z</time>
      </trkpt>
      <trkpt lat="45.04625" lon="6.30543">
        <ele>1538.4</ele>
        <time>2024-08-10T10:12:03Z</time>
      </trkpt>
      <trkpt lat="45.04623" lon="6.30542">
        <ele>1538.4</ele>
        <time>2024-08-10T10:12:04Z</time>
      </trkpt>
      <trkpt lat="45.04623" lon="6.30542">
        <ele>1538</ele>
        <time>2024-08-10T10:12:05Z</time>
      </trkpt>
      <trkpt lat="45.04621" lon="6.3054">
        <ele>1537.8</ele>
        <time>2024-08-10T10:12:06Z</time>
      </trkpt>
      <trkpt lat="45.04621" lon="6.3054">
        <ele>1537.8</ele>
        <time>2024-08-10T10:12:07Z</time>
      </trkpt>
      <trkpt lat="45.04619" lon="6.30538">
        <ele>1537.6</ele>
        <time>2024-08-10T10:12:08Z</time>
      </trkpt>
      <trkpt lat="45.04619" lon="6.30538">
        <ele>1537</ele>
        <time>2024-08-10T10:12:09Z</time>
      </trkpt>
      <trkpt lat="45.04616" lon="6.30536">
        <ele>1536.6</ele>
        <time>2024-08-10T10:12:10Z</time>
      </trkpt>
      <trkpt lat="45.04616" lon="6.30536">
        <ele>1536</ele>
        <time>2024-08-10T10:12:11Z</time>
      </trkpt>
      <trkpt lat="45.04613" lon="6.30534">
        <ele>1536</ele>
        <time>2024-08-10T10:12:12Z</time>
      </trkpt>
      <trkpt lat="45.04613" lon="6.30534">
        <ele>1536</ele>
        <time>2024-08-10T10:12:13Z</time>
      </trkpt>
      <trkpt lat="45.04611" lon="6.30532">
        <ele>1535.8</ele>
        <time>2024-08-10T10:12:14Z</time>
      </trkpt>
      <trkpt lat="45.04611" lon="6.30532">
        <ele>1535.4</ele>
        <time>2024-08-10T10:12:15Z</time>
      </trkpt>
      <trkpt lat="45.04609" lon="6.3053">
        <ele>1535.4</ele>
        <time>2024-08-10T10:12:16Z</time>
      </trkpt>
      <trkpt lat="45.04609" lon="6.3053">
        <ele>1535</ele>
        <time>2024-08-10T10:12:17Z</time>
      </trkpt>
      <trkpt lat="45.04607" lon="6.30527">
        <ele>1534.8</ele>
        <time>2024-08-10T10:12:18Z</time>
      </trkpt>
      <trkpt lat="45.04605" lon="6.30525">
        <ele>1534.8</ele>
        <time>2024-08-10T10:12:19Z</time>
      </trkpt>
      <trkpt lat="45.04605" lon="6.30525">
        <ele>1534.8</ele>
        <time>2024-08-10T10:12:20Z</time>
      </trkpt>
      <trkpt lat="45.04605" lon="6.30525">
        <ele>1534.8</ele>
        <time>2024-08-10T10:12:21Z</time>
      </trkpt>
      <trkpt lat="45.04607" lon="6.30523">
        <ele>1534.6</ele>
        <time>2024-08-10T10:12:22Z</time>
      </trkpt>
      <trkpt lat="45.04607" lon="6.30523">
        <ele>1534.6</ele>
        <time>2024-08-10T10:12:23Z</time>
      </trkpt>
      <trkpt lat="45.04607" lon="6.30523">
        <ele>1534.6</ele>
        <time>2024-08-10T10:12:24Z</time>
      </trkpt>
      <trkpt lat="45.04605" lon="6.30521">
        <ele>1534.8</ele>
        <time>2024-08-10T10:12:25Z</time>
      </trkpt>
      <trkpt lat="45.04605" lon="6.30521">
        <ele>1534.8</ele>
        <time>2024-08-10T10:12:26Z</time>
      </trkpt>
      <trkpt lat="45.04605" lon="6.30521">
        <ele>1534.8</ele>
        <time>2024-08-10T10:12:27Z</time>
      </trkpt>
      <trkpt lat="45.04605" lon="6.30521">
        <ele>1534.8</ele>
        <time>2024-08-10T10:12:28Z</time>
      </trkpt>
      <trkpt lat="45.04605" lon="6.30521">
        <ele>1534.8</ele>
        <time>2024-08-10T10:12:29Z</time>
      </trkpt>
      <trkpt lat="45.04605" lon="6.30521">
        <ele>1534.8</ele>
        <time>2024-08-10T10:12:30Z</time>
      </trkpt>
      <trkpt lat="45.04605" lon="6.30521">
        <ele>1535.2</ele>
        <time>2024-08-10T10:12:31Z</time>
      </trkpt>
      <trkpt lat="45.04605" lon="6.30521">
        <ele>1535.2</ele>
        <time>2024-08-10T10:12:32Z</time>
      </trkpt>
      <trkpt lat="45.04605" lon="6.30521">
        <ele>1535.2</ele>
        <time>2024-08-10T10:12:33Z</time>
      </trkpt>
      <trkpt lat="45.04605" lon="6.30521">
        <ele>1535.4</ele>
        <time>2024-08-10T10:12:34Z</time>
      </trkpt>
      <trkpt lat="45.04605" lon="6.30521">
        <ele>1535.4</ele>
        <time>2024-08-10T10:12:35Z</time>
      </trkpt>
      <trkpt lat="45.04605" lon="6.30521">
        <ele>1535.4</ele>
        <time>2024-08-10T10:12:36Z</time>
      </trkpt>
      <trkpt lat="45.04605" lon="6.30521">
        <ele>1535.4</ele>
        <time>2024-08-10T10:12:37Z</time>
      </trkpt>
      <trkpt lat="45.04605" lon="6.30521">
        <ele>1535.6</ele>
        <time>2024-08-10T10:12:38Z</time>
      </trkpt>
      <trkpt lat="45.04605" lon="6.30521">
        <ele>1535.6</ele>
        <time>2024-08-10T10:12:39Z</time>
      </trkpt>
      <trkpt lat="45.04605" lon="6.30521">
        <ele>1535.6</ele>
        <time>2024-08-10T10:12:40Z</time>
      </trkpt>
      <trkpt lat="45.04605" lon="6.30521">
        <ele>1535.6</ele>
        <time>2024-08-10T10:12:41Z</time>
      </trkpt>
      <trkpt lat="45.04605" lon="6.30521">
        <ele>1535.6</ele>
        <time>2024-08-10T10:12:42Z</time>
      </trkpt>
      <trkpt lat="45.04605" lon="6.30521">
        <ele>1535.8</ele>
        <time>2024-08-10T10:12:43Z</time>
      </trkpt>
      <trkpt lat="45.04605" lon="6.30521">
        <ele>1535.8</ele>
        <time>2024-08-10T10:12:44Z</time>
      </trkpt>
      <trkpt lat="45.04605" lon="6.30521">
        <ele>1535.6</ele>
        <time>2024-08-10T10:12:45Z</time>
      </trkpt>
      <trkpt lat="45.04605" lon="6.30521">
        <ele>1535.6</ele>
        <time>2024-08-10T10:12:46Z</time>
      </trkpt>
      <trkpt lat="45.04605" lon="6.30521">
        <ele>1535.6</ele>
        <time>2024-08-10T10:12:47Z</time>
      </trkpt>
      <trkpt lat="45.04605" lon="6.30521">
        <ele>1535.6</ele>
        <time>2024-08-10T10:12:48Z</time>
      </trkpt>
      <trkpt lat="45.04605" lon="6.30521">
        <ele>1535.6</ele>
        <time>2024-08-10T10:12:49Z</time>
      </trkpt>
      <trkpt lat="45.04605" lon="6.30521">
        <ele>1535.6</ele>
        <time>2024-08-10T10:12:50Z</time>
      </trkpt>
      <trkpt lat="45.04605" lon="6.30521">
        <ele>1535.8</ele>
        <time>2024-08-10T10:12:51Z</time>
      </trkpt>
      <trkpt lat="45.04605" lon="6.30521">
        <ele>1535.8</ele>
        <time>2024-08-10T10:12:52Z</time>
      </trkpt>
      <trkpt lat="45.04605" lon="6.30521">
        <ele>1536</ele>
        <time>2024-08-10T10:12:53Z</time>
      </trkpt>
      <trkpt lat="45.04605" lon="6.30521">
        <ele>1536.2</ele>
        <time>2024-08-10T10:12:54Z</time>
      </trkpt>
      <trkpt lat="45.04605" lon="6.30521">
        <ele>1536.2</ele>
        <time>2024-08-10T10:12:55Z</time>
      </trkpt>
      <trkpt lat="45.04605" lon="6.30521">
        <ele>1536</ele>
        <time>2024-08-10T10:12:56Z</time>
      </trkpt>
      <trkpt lat="45.04605" lon="6.30521">
        <ele>1536</ele>
        <time>2024-08-10T10:12:57Z</time>
      </trkpt>
      <trkpt lat="45.04605" lon="6.30521">
        <ele>1536</ele>
        <time>2024-08-10T10:12:58Z</time>
      </trkpt>
      <trkpt lat="45.04605" lon="6.30521">
        <ele>1536.2</ele>
        <time>2024-08-10T10:12:59Z</time>
      </trkpt>
      <trkpt lat="45.04605" lon="6.30521">
        <ele>1536.2</ele>
        <time>2024-08-10T10:13:00Z</time>
      </trkpt>
      <trkpt lat="45.04605" lon="6.30521">
        <ele>1536.2</ele>
        <time>2024-08-10T10:13:01Z</time>
      </trkpt>
      <trkpt lat="45.04605" lon="6.30521">
        <ele>1536.2</ele>
        <time>2024-08-10T10:13:02Z</time>
      </trkpt>
      <trkpt lat="45.04605" lon="6.30521">
        <ele>1536.2</ele>
        <time>2024-08-10T10:13:03Z</time>
      </trkpt>
      <trkpt lat="45.04605" lon="6.30521">
        <ele>1536.2</ele>
        <time>2024-08-10T10:13:04Z</time>
      </trkpt>
      <trkpt lat="45.04605" lon="6.30521">
        <ele>1536.4</ele>
        <time>2024-08-10T10:13:05Z</time>
      </trkpt>
      <trkpt lat="45.04605" lon="6.30521">
        <ele>1536.4</ele>
        <time>2024-08-10T10:13:06Z</time>
      </trkpt>
      <trkpt lat="45.04605" lon="6.30521">
        <ele>1535.8</ele>
        <time>2024-08-10T10:13:07Z</time>
      </trkpt>
      <trkpt lat="45.04605" lon="6.30521">
        <ele>1535.4</ele>
        <time>2024-08-10T10:13:08Z</time>
      </trkpt>
      <trkpt lat="45.04605" lon="6.30521">
        <ele>1535.2</ele>
        <time>2024-08-10T10:13:09Z</time>
      </trkpt>
      <trkpt lat="45.04605" lon="6.30521">
        <ele>1535.2</ele>
        <time>2024-08-10T10:13:10Z</time>
      </trkpt>
      <trkpt lat="45.04605" lon="6.30521">
        <ele>1535.2</ele>
        <time>2024-08-10T10:13:11Z</time>
      </trkpt>
      <trkpt lat="45.04605" lon="6.30521">
        <ele>1535.4</ele>
        <time>2024-08-10T10:13:12Z</time>
      </trkpt>
      <trkpt lat="45.04605" lon="6.30521">
        <ele>1535.4</ele>
        <time>2024-08-10T10:13:13Z</time>
      </trkpt>
      <trkpt lat="45.04605" lon="6.30521">
        <ele>1535.4</ele>
        <time>2024-08-10T10:13:14Z</time>
      </trkpt>
      <trkpt lat="45.04605" lon="6.30521">
        <ele>1535.4</ele>
        <time>2024-08-10T10:13:15Z</time>
      </trkpt>
      <trkpt lat="45.04605" lon="6.30521">
        <ele>1535.4</ele>
        <time>2024-08-10T10:13:16Z</time>
      </trkpt>
      <trkpt lat="45.04605" lon="6.30521">
        <ele>1535.4</ele>
        <time>2024-08-10T10:13:17Z</time>
      </trkpt>
      <trkpt lat="45.04605" lon="6.30521">
        <ele>1535.4</ele>
        <time>2024-08-10T10:13:18Z</time>
      </trkpt>
      <trkpt lat="45.04605" lon="6.30521">
        <ele>1535</ele>
        <time>2024-08-10T10:13:19Z</time>
      </trkpt>
      <trkpt lat="45.04605" lon="6.30521">
        <ele>1535</ele>
        <time>2024-08-10T10:13:20Z</time>
      </trkpt>
      <trkpt lat="45.04605" lon="6.30521">
        <ele>1534.8</ele>
        <time>2024-08-10T10:13:21Z</time>
      </trkpt>
      <trkpt lat="45.04605" lon="6.30521">
        <ele>1534.6</ele>
        <time>2024-08-10T10:13:22Z</time>
      </trkpt>
      <trkpt lat="45.04605" lon="6.30521">
        <ele>1534.6</ele>
        <time>2024-08-10T10:13:23Z</time>
      </trkpt>
      <trkpt lat="45.04605" lon="6.30521">
        <ele>1534.8</ele>
        <time>2024-08-10T10:13:24Z</time>
      </trkpt>
      <trkpt lat="45.04605" lon="6.30521">
        <ele>1534.8</ele>
        <time>2024-08-10T10:13:25Z</time>
      </trkpt>
      <trkpt lat="45.04605" lon="6.30521">
        <ele>1535</ele>
        <time>2024-08-10T10:13:26Z</time>
      </trkpt>
      <trkpt lat="45.04605" lon="6.30521">
        <ele>1535</ele>
        <time>2024-08-10T10:13:27Z</time>
      </trkpt>
      <trkpt lat="45.04605" lon="6.30521">
        <ele>1535</ele>
        <time>2024-08-10T10:13:28Z</time>
      </trkpt>
      <trkpt lat="45.04605" lon="6.30521">
        <ele>1535</ele>
        <time>2024-08-10T10:13:29Z</time>
      </trkpt>
      <trkpt lat="45.04605" lon="6.30521">
        <ele>1535</ele>
        <time>2024-08-10T10:13:30Z</time>
      </trkpt>
      <trkpt lat="45.04605" lon="6.30521">
        <ele>1535</ele>
        <time>2024-08-10T10:13:31Z</time>
      </trkpt>
      <trkpt lat="45.04605" lon="6.30521">
        <ele>1534.8</ele>
        <time>2024-08-10T10:13:32Z</time>
      </trkpt>
      <trkpt lat="45.04605" lon="6.30521">
        <ele>1534.8</ele>
        <time>2024-08-10T10:13:33Z</time>
      </trkpt>
      <trkpt lat="45.04605" lon="6.30521">
        <ele>1534.6</ele>
        <time>2024-08-10T10:13:34Z</time>
      </trkpt>
      <trkpt lat="45.04605" lon="6.30521">
        <ele>1534.6</ele>
        <time>2024-08-10T10:13:35Z</time>
      </trkpt>
      <trkpt lat="45.04605" lon="6.30521">
        <ele>1534.6</ele>
        <time>2024-08-10T10:13:36Z</time>
      </trkpt>
      <trkpt lat="45.04605" lon="6.30521">
        <ele>1534.6</ele>
        <time>2024-08-10T10:13:37Z</time>
      </trkpt>
      <trkpt lat="45.04605" lon="6.30521">
        <ele>1534.6</ele>
        <time>2024-08-10T10:13:38Z</time>
      </trkpt>
      <trkpt lat="45.04605" lon="6.30521">
        <ele>1534.6</ele>
        <time>2024-08-10T10:13:39Z</time>
      </trkpt>
      <trkpt lat="45.04605" lon="6.30521">
        <ele>1534.6</ele>
        <time>2024-08-10T10:13:40Z</time>
      </trkpt>
      <trkpt lat="45.04605" lon="6.30521">
        <ele>1534.6</ele>
        <time>2024-08-10T10:13:41Z</time>
      </trkpt>
      <trkpt lat="45.04605" lon="6.30521">
        <ele>1534.4</ele>
        <time>2024-08-10T10:13:42Z</time>
      </trkpt>
      <trkpt lat="45.04605" lon="6.30521">
        <ele>1534.4</ele>
        <time>2024-08-10T10:13:43Z</time>
      </trkpt>
      <trkpt lat="45.04605" lon="6.30521">
        <ele>1534.4</ele>
        <time>2024-08-10T10:13:44Z</time>
      </trkpt>
      <trkpt lat="45.04605" lon="6.30521">
        <ele>1534.4</ele>
        <time>2024-08-10T10:13:45Z</time>
      </trkpt>
      <trkpt lat="45.04605" lon="6.30521">
        <ele>1534.2</ele>
        <time>2024-08-10T10:13:46Z</time>
      </trkpt>
      <trkpt lat="45.04605" lon="6.30521">
        <ele>1534.2</ele>
        <time>2024-08-10T10:13:47Z</time>
      </trkpt>
      <trkpt lat="45.04605" lon="6.30521">
        <ele>1534.2</ele>
        <time>2024-08-10T10:13:48Z</time>
      </trkpt>
      <trkpt lat="45.04605" lon="6.30521">
        <ele>1534.2</ele>
        <time>2024-08-10T10:13:49Z</time>
      </trkpt>
      <trkpt lat="45.04605" lon="6.30521">
        <ele>1534.2</ele>
        <time>2024-08-10T10:13:50Z</time>
      </trkpt>
      <trkpt lat="45.04605" lon="6.30521">
        <ele>1534</ele>
        <time>2024-08-10T10:13:51Z</time>
      </trkpt>
      <trkpt lat="45.04605" lon="6.30521">
        <ele>1534</ele>
        <time>2024-08-10T10:13:52Z</time>
      </trkpt>
      <trkpt lat="45.04605" lon="6.30521">
        <ele>1534</ele>
        <time>2024-08-10T10:13:53Z</time>
      </trkpt>
      <trkpt lat="45.04605" lon="6.30521">
        <ele>1534</ele>
        <time>2024-08-10T10:13:54Z</time>
      </trkpt>
      <trkpt lat="45.04605" lon="6.30521">
        <ele>1534</ele>
        <time>2024-08-10T10:13:55Z</time>
      </trkpt>
      <trkpt lat="45.04605" lon="6.30521">
        <ele>1534</ele>
        <time>2024-08-10T10:13:56Z</time>
      </trkpt>
      <trkpt lat="45.04605" lon="6.30521">
        <ele>1534</ele>
        <time>2024-08-10T10:13:57Z</time>
      </trkpt>
      <trkpt lat="45.04605" lon="6.30521">
        <ele>1534</ele>
        <time>2024-08-10T10:13:58Z</time>
      </trkpt>
      <trkpt lat="45.04605" lon="6.30521">
        <ele>1534</ele>
        <time>2024-08-10T10:13:59Z</time>
      </trkpt>
      <trkpt lat="45.04605" lon="6.30521">
        <ele>1533.8</ele>
        <time>2024-08-10T10:14:00Z</time>
      </trkpt>
      <trkpt lat="45.04605" lon="6.30521">
        <ele>1533.8</ele>
        <time>2024-08-10T10:14:01Z</time>
      </trkpt>
      <trkpt lat="45.04605" lon="6.30521">
        <ele>1534</ele>
        <time>2024-08-10T10:14:02Z</time>
      </trkpt>
      <trkpt lat="45.04605" lon="6.30521">
        <ele>1533.8</ele>
        <time>2024-08-10T10:14:03Z</time>
      </trkpt>
      <trkpt lat="45.04605" lon="6.30521">
        <ele>1533.8</ele>
        <time>2024-08-10T10:14:04Z</time>
      </trkpt>
      <trkpt lat="45.04605" lon="6.30521">
        <ele>1533.6</ele>
        <time>2024-08-10T10:14:05Z</time>
      </trkpt>
      <trkpt lat="45.04605" lon="6.30521">
        <ele>1533.6</ele>
        <time>2024-08-10T10:14:06Z</time>
      </trkpt>
      <trkpt lat="45.04605" lon="6.30521">
        <ele>1533.8</ele>
        <time>2024-08-10T10:14:07Z</time>
      </trkpt>
      <trkpt lat="45.04605" lon="6.30521">
        <ele>1534</ele>
        <time>2024-08-10T10:14:08Z</time>
      </trkpt>
      <trkpt lat="45.04605" lon="6.30521">
        <ele>1534</ele>
        <time>2024-08-10T10:14:09Z</time>
      </trkpt>
      <trkpt lat="45.04605" lon="6.30521">
        <ele>1533.8</ele>
        <time>2024-08-10T10:14:10Z</time>
      </trkpt>
      <trkpt lat="45.04605" lon="6.30521">
        <ele>1533.6</ele>
        <time>2024-08-10T10:14:11Z</time>
      </trkpt>
      <trkpt lat="45.04605" lon="6.30521">
        <ele>1533.4</ele>
        <time>2024-08-10T10:14:12Z</time>
      </trkpt>
      <trkpt lat="45.04605" lon="6.30521">
        <ele>1533.4</ele>
        <time>2024-08-10T10:14:13Z</time>
      </trkpt>
      <trkpt lat="45.04605" lon="6.30521">
        <ele>1533.6</ele>
        <time>2024-08-10T10:14:14Z</time>
      </trkpt>
      <trkpt lat="45.04605" lon="6.30521">
        <ele>1533.8</ele>
        <time>2024-08-10T10:14:15Z</time>
      </trkpt>
      <trkpt lat="45.04605" lon="6.30521">
        <ele>1533.8</ele>
        <time>2024-08-10T10:14:16Z</time>
      </trkpt>
      <trkpt lat="45.04605" lon="6.30521">
        <ele>1533.6</ele>
        <time>2024-08-10T10:14:17Z</time>
      </trkpt>
      <trkpt lat="45.04605" lon="6.30521">
        <ele>1533.6</ele>
        <time>2024-08-10T10:14:18Z</time>
      </trkpt>
      <trkpt lat="45.04605" lon="6.30521">
        <ele>1533.6</ele>
        <time>2024-08-10T10:14:19Z</time>
      </trkpt>
      <trkpt lat="45.04605" lon="6.30521">
        <ele>1533.6</ele>
        <time>2024-08-10T10:14:20Z</time>
      </trkpt>
      <trkpt lat="45.04605" lon="6.30521">
        <ele>1533.4</ele>
        <time>2024-08-10T10:14:21Z</time>
      </trkpt>
      <trkpt lat="45.04605" lon="6.30521">
        <ele>1533.4</ele>
        <time>2024-08-10T10:14:22Z</time>
      </trkpt>
      <trkpt lat="45.04605" lon="6.30521">
        <ele>1533.4</ele>
        <time>2024-08-10T10:14:23Z</time>
      </trkpt>
      <trkpt lat="45.04605" lon="6.30521">
        <ele>1533.4</ele>
        <time>2024-08-10T10:14:24Z</time>
      </trkpt>
      <trkpt lat="45.04605" lon="6.30521">
        <ele>1533.4</ele>
        <time>2024-08-10T10:14:25Z</time>
      </trkpt>
      <trkpt lat="45.04605" lon="6.30521">
        <ele>1533.4</ele>
        <time>2024-08-10T10:14:26Z</time>
      </trkpt>
      <trkpt lat="45.04605" lon="6.30521">
        <ele>1533.4</ele>
        <time>2024-08-10T10:14:27Z</time>
      </trkpt>
      <trkpt lat="45.04605" lon="6.30521">
        <ele>1533.4</ele>
        <time>2024-08-10T10:14:28Z</time>
      </trkpt>
      <trkpt lat="45.04605" lon="6.30521">
        <ele>1533.4</ele>
        <time>2024-08-10T10:14:29Z</time>
      </trkpt>
      <trkpt lat="45.04605" lon="6.30521">
        <ele>1533.4</ele>
        <time>2024-08-10T10:14:30Z</time>
      </trkpt>
      <trkpt lat="45.04605" lon="6.30521">
        <ele>1533.2</ele>
        <time>2024-08-10T10:14:31Z</time>
      </trkpt>
      <trkpt lat="45.04605" lon="6.30521">
        <ele>1533</ele>
        <time>2024-08-10T10:14:32Z</time>
      </trkpt>
      <trkpt lat="45.04605" lon="6.30521">
        <ele>1532.8</ele>
        <time>2024-08-10T10:14:33Z</time>
      </trkpt>
      <trkpt lat="45.04605" lon="6.30521">
        <ele>1532.8</ele>
        <time>2024-08-10T10:14:34Z</time>
      </trkpt>
      <trkpt lat="45.04605" lon="6.30521">
        <ele>1532.8</ele>
        <time>2024-08-10T10:14:35Z</time>
      </trkpt>
      <trkpt lat="45.04605" lon="6.30521">
        <ele>1532.8</ele>
        <time>2024-08-10T10:14:36Z</time>
      </trkpt>
      <trkpt lat="45.04605" lon="6.30521">
        <ele>1532.8</ele>
        <time>2024-08-10T10:14:37Z</time>
      </trkpt>
      <trkpt lat="45.04605" lon="6.30521">
        <ele>1532.8</ele>
        <time>2024-08-10T10:14:38Z</time>
      </trkpt>
      <trkpt lat="45.04605" lon="6.30521">
        <ele>1533</ele>
        <time>2024-08-10T10:14:39Z</time>
      </trkpt>
      <trkpt lat="45.04605" lon="6.30521">
        <ele>1533.2</ele>
        <time>2024-08-10T10:14:40Z</time>
      </trkpt>
      <trkpt lat="45.04605" lon="6.30521">
        <ele>1533.2</ele>
        <time>2024-08-10T10:14:41Z</time>
      </trkpt>
      <trkpt lat="45.04605" lon="6.30521">
        <ele>1533.2</ele>
        <time>2024-08-10T10:14:42Z</time>
      </trkpt>
      <trkpt lat="45.04605" lon="6.30521">
        <ele>1533.2</ele>
        <time>2024-08-10T10:14:43Z</time>
      </trkpt>
      <trkpt lat="45.04605" lon="6.30521">
        <ele>1533.2</ele>
        <time>2024-08-10T10:14:44Z</time>
      </trkpt>
      <trkpt lat="45.04605" lon="6.30521">
        <ele>1533.2</ele>
        <time>2024-08-10T10:14:45Z</time>
      </trkpt>
      <trkpt lat="45.04605" lon="6.30521">
        <ele>1533.2</ele>
        <time>2024-08-10T10:14:46Z</time>
      </trkpt>
      <trkpt lat="45.04605" lon="6.30521">
        <ele>1533.2</ele>
        <time>2024-08-10T10:14:47Z</time>
      </trkpt>
      <trkpt lat="45.04605" lon="6.30521">
        <ele>1533.2</ele>
        <time>2024-08-10T10:14:48Z</time>
      </trkpt>
      <trkpt lat="45.04605" lon="6.30521">
        <ele>1532.8</ele>
        <time>2024-08-10T10:14:49Z</time>
      </trkpt>
      <trkpt lat="45.04605" lon="6.30521">
        <ele>1532.4</ele>
        <time>2024-08-10T10:14:50Z</time>
      </trkpt>
      <trkpt lat="45.04605" lon="6.30521">
        <ele>1532.4</ele>
        <time>2024-08-10T10:14:51Z</time>
      </trkpt>
      <trkpt lat="45.04605" lon="6.30521">
        <ele>1532.4</ele>
        <time>2024-08-10T10:14:52Z</time>
      </trkpt>
      <trkpt lat="45.04605" lon="6.30521">
        <ele>1532.4</ele>
        <time>2024-08-10T10:14:53Z</time>
      </trkpt>
      <trkpt lat="45.04605" lon="6.30521">
        <ele>1532.2</ele>
        <time>2024-08-10T10:14:54Z</time>
      </trkpt>
      <trkpt lat="45.04605" lon="6.30521">
        <ele>1532.4</ele>
        <time>2024-08-10T10:14:55Z</time>
      </trkpt>
      <trkpt lat="45.04605" lon="6.30521">
        <ele>1532.8</ele>
        <time>2024-08-10T10:14:56Z</time>
      </trkpt>
      <trkpt lat="45.04605" lon="6.30521">
        <ele>1532.8</ele>
        <time>2024-08-10T10:14:57Z</time>
      </trkpt>
      <trkpt lat="45.04605" lon="6.30521">
        <ele>1532.8</ele>
        <time>2024-08-10T10:14:58Z</time>
      </trkpt>
      <trkpt lat="45.04605" lon="6.30521">
        <ele>1533</ele>
        <time>2024-08-10T10:14:59Z</time>
      </trkpt>
      <trkpt lat="45.04605" lon="6.30521">
        <ele>1533</ele>
        <time>2024-08-10T10:15:00Z</time>
      </trkpt>
      <trkpt lat="45.04605" lon="6.30521">
        <ele>1533</ele>
        <time>2024-08-10T10:15:01Z</time>
      </trkpt>
      <trkpt lat="45.04605" lon="6.30521">
        <ele>1533</ele>
        <time>2024-08-10T10:15:02Z</time>
      </trkpt>
      <trkpt lat="45.04605" lon="6.30521">
        <ele>1533.2</ele>
        <time>2024-08-10T10:15:03Z</time>
      </trkpt>
      <trkpt lat="45.04605" lon="6.30521">
        <ele>1533.2</ele>
        <time>2024-08-10T10:15:04Z</time>
      </trkpt>
      <trkpt lat="45.04605" lon="6.30521">
        <ele>1533</ele>
        <time>2024-08-10T10:15:05Z</time>
      </trkpt>
      <trkpt lat="45.04605" lon="6.30521">
        <ele>1532.6</ele>
        <time>2024-08-10T10:15:06Z</time>
      </trkpt>
      <trkpt lat="45.04605" lon="6.30521">
        <ele>1532.6</ele>
        <time>2024-08-10T10:15:07Z</time>
      </trkpt>
      <trkpt lat="45.04605" lon="6.30521">
        <ele>1532.6</ele>
        <time>2024-08-10T10:15:08Z</time>
      </trkpt>
      <trkpt lat="45.04605" lon="6.30521">
        <ele>1532.6</ele>
        <time>2024-08-10T10:15:09Z</time>
      </trkpt>
      <trkpt lat="45.04605" lon="6.30521">
        <ele>1532.6</ele>
        <time>2024-08-10T10:15:10Z</time>
      </trkpt>
      <trkpt lat="45.04605" lon="6.30521">
        <ele>1532.6</ele>
        <time>2024-08-10T10:15:11Z</time>
      </trkpt>
      <trkpt lat="45.04605" lon="6.30521">
        <ele>1532.6</ele>
        <time>2024-08-10T10:15:12Z</time>
      </trkpt>
      <trkpt lat="45.04605" lon="6.30521">
        <ele>1532.6</ele>
        <time>2024-08-10T10:15:13Z</time>
      </trkpt>
      <trkpt lat="45.04605" lon="6.30521">
        <ele>1532.6</ele>
        <time>2024-08-10T10:15:14Z</time>
      </trkpt>
      <trkpt lat="45.04605" lon="6.30521">
        <ele>1532.4</ele>
        <time>2024-08-10T10:15:15Z</time>
      </trkpt>
      <trkpt lat="45.04605" lon="6.30521">
        <ele>1532.4</ele>
        <time>2024-08-10T10:15:16Z</time>
      </trkpt>
      <trkpt lat="45.04605" lon="6.30521">
        <ele>1532.4</ele>
        <time>2024-08-10T10:15:17Z</time>
      </trkpt>
      <trkpt lat="45.04605" lon="6.30521">
        <ele>1532.4</ele>
        <time>2024-08-10T10:15:18Z</time>
      </trkpt>
      <trkpt lat="45.04605" lon="6.30521">
        <ele>1532.4</ele>
        <time>2024-08-10T10:15:19Z</time>
      </trkpt>
      <trkpt lat="45.04605" lon="6.30521">
        <ele>1532.4</ele>
        <time>2024-08-10T10:15:20Z</time>
      </trkpt>
      <trkpt lat="45.04605" lon="6.30521">
        <ele>1532.2</ele>
        <time>2024-08-10T10:15:21Z</time>
      </trkpt>
      <trkpt lat="45.04605" lon="6.30521">
        <ele>1532.2</ele>
        <time>2024-08-10T10:15:22Z</time>
      </trkpt>
      <trkpt lat="45.04605" lon="6.30521">
        <ele>1532.2</ele>
        <time>2024-08-10T10:15:23Z</time>
      </trkpt>
      <trkpt lat="45.04605" lon="6.30521">
        <ele>1532.2</ele>
        <time>2024-08-10T10:15:24Z</time>
      </trkpt>
      <trkpt lat="45.04603" lon="6.30523">
        <ele>1532.2</ele>
        <time>2024-08-10T10:15:25Z</time>
      </trkpt>
      <trkpt lat="45.04603" lon="6.30523">
        <ele>1532</ele>
        <time>2024-08-10T10:15:26Z</time>
      </trkpt>
      <trkpt lat="45.04603" lon="6.30523">
        <ele>1532.2</ele>
        <time>2024-08-10T10:15:27Z</time>
      </trkpt>
      <trkpt lat="45.04603" lon="6.30523">
        <ele>1532.2</ele>
        <time>2024-08-10T10:15:28Z</time>
      </trkpt>
      <trkpt lat="45.04603" lon="6.30523">
        <ele>1532.2</ele>
        <time>2024-08-10T10:15:29Z</time>
      </trkpt>
      <trkpt lat="45.04603" lon="6.30523">
        <ele>1532.2</ele>
        <time>2024-08-10T10:15:30Z</time>
      </trkpt>
      <trkpt lat="45.04603" lon="6.30523">
        <ele>1532.2</ele>
        <time>2024-08-10T10:15:31Z</time>
      </trkpt>
      <trkpt lat="45.04603" lon="6.30523">
        <ele>1532.2</ele>
        <time>2024-08-10T10:15:32Z</time>
      </trkpt>
      <trkpt lat="45.04603" lon="6.30523">
        <ele>1532.2</ele>
        <time>2024-08-10T10:15:33Z</time>
      </trkpt>
      <trkpt lat="45.04603" lon="6.30523">
        <ele>1532.2</ele>
        <time>2024-08-10T10:15:34Z</time>
      </trkpt>
      <trkpt lat="45.04603" lon="6.30523">
        <ele>1532.2</ele>
        <time>2024-08-10T10:15:35Z</time>
      </trkpt>
      <trkpt lat="45.04603" lon="6.30523">
        <ele>1532.2</ele>
        <time>2024-08-10T10:15:36Z</time>
      </trkpt>
      <trkpt lat="45.04603" lon="6.30523">
        <ele>1532.2</ele>
        <time>2024-08-10T10:15:37Z</time>
      </trkpt>
      <trkpt lat="45.04603" lon="6.30523">
        <ele>1532.2</ele>
        <time>2024-08-10T10:15:38Z</time>
      </trkpt>
      <trkpt lat="45.04603" lon="6.30523">
        <ele>1532.4</ele>
        <time>2024-08-10T10:15:39Z</time>
      </trkpt>
      <trkpt lat="45.04603" lon="6.30523">
        <ele>1532.4</ele>
        <time>2024-08-10T10:15:40Z</time>
      </trkpt>
      <trkpt lat="45.04603" lon="6.30523">
        <ele>1532.4</ele>
        <time>2024-08-10T10:15:41Z</time>
      </trkpt>
      <trkpt lat="45.04603" lon="6.30523">
        <ele>1532.4</ele>
        <time>2024-08-10T10:15:42Z</time>
      </trkpt>
      <trkpt lat="45.04603" lon="6.30523">
        <ele>1532.4</ele>
        <time>2024-08-10T10:15:43Z</time>
      </trkpt>
      <trkpt lat="45.04603" lon="6.30523">
        <ele>1532.4</ele>
        <time>2024-08-10T10:15:44Z</time>
      </trkpt>
      <trkpt lat="45.04603" lon="6.30523">
        <ele>1532.4</ele>
        <time>2024-08-10T10:15:45Z</time>
      </trkpt>
      <trkpt lat="45.04603" lon="6.30523">
        <ele>1532.4</ele>
        <time>2024-08-10T10:15:46Z</time>
      </trkpt>
      <trkpt lat="45.04603" lon="6.30523">
        <ele>1532.4</ele>
        <time>2024-08-10T10:15:47Z</time>
      </trkpt>
      <trkpt lat="45.04603" lon="6.30523">
        <ele>1532.4</ele>
        <time>2024-08-10T10:15:48Z</time>
      </trkpt>
      <trkpt lat="45.04603" lon="6.30523">
        <ele>1532.4</ele>
        <time>2024-08-10T10:15:49Z</time>
      </trkpt>
      <trkpt lat="45.04603" lon="6.30523">
        <ele>1532.4</ele>
        <time>2024-08-10T10:15:50Z</time>
      </trkpt>
      <trkpt lat="45.04603" lon="6.30523">
        <ele>1532.4</ele>
        <time>2024-08-10T10:15:51Z</time>
      </trkpt>
      <trkpt lat="45.04603" lon="6.30523">
        <ele>1532.2</ele>
        <time>2024-08-10T10:15:52Z</time>
      </trkpt>
      <trkpt lat="45.04603" lon="6.30523">
        <ele>1532.2</ele>
        <time>2024-08-10T10:15:53Z</time>
      </trkpt>
      <trkpt lat="45.04603" lon="6.30523">
        <ele>1532.4</ele>
        <time>2024-08-10T10:15:54Z</time>
      </trkpt>
      <trkpt lat="45.04603" lon="6.30523">
        <ele>1532.4</ele>
        <time>2024-08-10T10:15:55Z</time>
      </trkpt>
      <trkpt lat="45.04603" lon="6.30523">
        <ele>1532.4</ele>
        <time>2024-08-10T10:15:56Z</time>
      </trkpt>
      <trkpt lat="45.04603" lon="6.30523">
        <ele>1532.4</ele>
        <time>2024-08-10T10:15:57Z</time>
      </trkpt>
      <trkpt lat="45.04603" lon="6.30523">
        <ele>1532.2</ele>
        <time>2024-08-10T10:15:58Z</time>
      </trkpt>
      <trkpt lat="45.04603" lon="6.30523">
        <ele>1532</ele>
        <time>2024-08-10T10:15:59Z</time>
      </trkpt>
      <trkpt lat="45.04603" lon="6.30523">
        <ele>1532</ele>
        <time>2024-08-10T10:16:00Z</time>
      </trkpt>
      <trkpt lat="45.04603" lon="6.30523">
        <ele>1532</ele>
        <time>2024-08-10T10:16:01Z</time>
      </trkpt>
      <trkpt lat="45.04603" lon="6.30523">
        <ele>1532.2</ele>
        <time>2024-08-10T10:16:02Z</time>
      </trkpt>
      <trkpt lat="45.04603" lon="6.30523">
        <ele>1532</ele>
        <time>2024-08-10T10:16:03Z</time>
      </trkpt>
      <trkpt lat="45.04603" lon="6.30523">
        <ele>1532</ele>
        <time>2024-08-10T10:16:04Z</time>
      </trkpt>
      <trkpt lat="45.04603" lon="6.30523">
        <ele>1532</ele>
        <time>2024-08-10T10:16:05Z</time>
      </trkpt>
      <trkpt lat="45.04603" lon="6.30523">
        <ele>1532</ele>
        <time>2024-08-10T10:16:06Z</time>
      </trkpt>
      <trkpt lat="45.04603" lon="6.30523">
        <ele>1532</ele>
        <time>2024-08-10T10:16:07Z</time>
      </trkpt>
      <trkpt lat="45.04603" lon="6.30523">
        <ele>1532</ele>
        <time>2024-08-10T10:16:08Z</time>
      </trkpt>
      <trkpt lat="45.04603" lon="6.30523">
        <ele>1531.8</ele>
        <time>2024-08-10T10:16:09Z</time>
      </trkpt>
      <trkpt lat="45.04603" lon="6.30523">
        <ele>1531.8</ele>
        <time>2024-08-10T10:16:10Z</time>
      </trkpt>
      <trkpt lat="45.04603" lon="6.30523">
        <ele>1531.8</ele>
        <time>2024-08-10T10:16:11Z</time>
      </trkpt>
      <trkpt lat="45.04603" lon="6.30523">
        <ele>1531.8</ele>
        <time>2024-08-10T10:16:12Z</time>
      </trkpt>
      <trkpt lat="45.04603" lon="6.30523">
        <ele>1531.8</ele>
        <time>2024-08-10T10:16:13Z</time>
      </trkpt>
      <trkpt lat="45.04603" lon="6.30523">
        <ele>1532</ele>
        <time>2024-08-10T10:16:14Z</time>
      </trkpt>
      <trkpt lat="45.04603" lon="6.30523">
        <ele>1532</ele>
        <time>2024-08-10T10:16:15Z</time>
      </trkpt>
      <trkpt lat="45.04603" lon="6.30523">
        <ele>1532</ele>
        <time>2024-08-10T10:16:16Z</time>
      </trkpt>
      <trkpt lat="45.04603" lon="6.30523">
        <ele>1531.8</ele>
        <time>2024-08-10T10:16:17Z</time>
      </trkpt>
      <trkpt lat="45.04603" lon="6.30523">
        <ele>1531.8</ele>
        <time>2024-08-10T10:16:18Z</time>
      </trkpt>
      <trkpt lat="45.04603" lon="6.30523">
        <ele>1531.6</ele>
        <time>2024-08-10T10:16:19Z</time>
      </trkpt>
      <trkpt lat="45.04603" lon="6.30523">
        <ele>1531.6</ele>
        <time>2024-08-10T10:16:20Z</time>
      </trkpt>
      <trkpt lat="45.04603" lon="6.30523">
        <ele>1531.6</ele>
        <time>2024-08-10T10:16:21Z</time>
      </trkpt>
      <trkpt lat="45.04603" lon="6.30523">
        <ele>1531.6</ele>
        <time>2024-08-10T10:16:22Z</time>
      </trkpt>
      <trkpt lat="45.04603" lon="6.30523">
        <ele>1531.6</ele>
        <time>2024-08-10T10:16:23Z</time>
      </trkpt>
      <trkpt lat="45.04603" lon="6.30523">
        <ele>1531.6</ele>
        <time>2024-08-10T10:16:24Z</time>
      </trkpt>
      <trkpt lat="45.04603" lon="6.30523">
        <ele>1531.4</ele>
        <time>2024-08-10T10:16:25Z</time>
      </trkpt>
      <trkpt lat="45.04603" lon="6.30523">
        <ele>1531.4</ele>
        <time>2024-08-10T10:16:26Z</time>
      </trkpt>
      <trkpt lat="45.04603" lon="6.30523">
        <ele>1531.2</ele>
        <time>2024-08-10T10:16:27Z</time>
      </trkpt>
      <trkpt lat="45.04603" lon="6.30523">
        <ele>1531.2</ele>
        <time>2024-08-10T10:16:28Z</time>
      </trkpt>
      <trkpt lat="45.04603" lon="6.30523">
        <ele>1531.4</ele>
        <time>2024-08-10T10:16:29Z</time>
      </trkpt>
      <trkpt lat="45.04603" lon="6.30523">
        <ele>1531.6</ele>
        <time>2024-08-10T10:16:30Z</time>
      </trkpt>
      <trkpt lat="45.04603" lon="6.30523">
        <ele>1531.6</ele>
        <time>2024-08-10T10:16:31Z</time>
      </trkpt>
      <trkpt lat="45.04603" lon="6.30523">
        <ele>1531.4</ele>
        <time>2024-08-10T10:16:32Z</time>
      </trkpt>
      <trkpt lat="45.04603" lon="6.30523">
        <ele>1531.4</ele>
        <time>2024-08-10T10:16:33Z</time>
      </trkpt>
      <trkpt lat="45.04603" lon="6.30523">
        <ele>1531.2</ele>
        <time>2024-08-10T10:16:34Z</time>
      </trkpt>
      <trkpt lat="45.04603" lon="6.30523">
        <ele>1531.2</ele>
        <time>2024-08-10T10:16:35Z</time>
      </trkpt>
      <trkpt lat="45.04603" lon="6.30523">
        <ele>1531.2</ele>
        <time>2024-08-10T10:16:36Z</time>
      </trkpt>
      <trkpt lat="45.04603" lon="6.30523">
        <ele>1531.2</ele>
        <time>2024-08-10T10:16:37Z</time>
      </trkpt>
      <trkpt lat="45.04603" lon="6.30523">
        <ele>1531.2</ele>
        <time>2024-08-10T10:16:38Z</time>
      </trkpt>
      <trkpt lat="45.04603" lon="6.30523">
        <ele>1531.2</ele>
        <time>2024-08-10T10:16:39Z</time>
      </trkpt>
      <trkpt lat="45.04603" lon="6.30523">
        <ele>1531.2</ele>
        <time>2024-08-10T10:16:40Z</time>
      </trkpt>
      <trkpt lat="45.04603" lon="6.30523">
        <ele>1531.2</ele>
        <time>2024-08-10T10:16:41Z</time>
      </trkpt>
      <trkpt lat="45.04603" lon="6.30523">
        <ele>1531.4</ele>
        <time>2024-08-10T10:16:42Z</time>
      </trkpt>
      <trkpt lat="45.04603" lon="6.30523">
        <ele>1531.4</ele>
        <time>2024-08-10T10:16:43Z</time>
      </trkpt>
      <trkpt lat="45.04603" lon="6.30523">
        <ele>1531.4</ele>
        <time>2024-08-10T10:16:44Z</time>
      </trkpt>
      <trkpt lat="45.04603" lon="6.30523">
        <ele>1531.2</ele>
        <time>2024-08-10T10:16:45Z</time>
      </trkpt>
      <trkpt lat="45.04603" lon="6.30523">
        <ele>1531</ele>
        <time>2024-08-10T10:16:46Z</time>
      </trkpt>
      <trkpt lat="45.04603" lon="6.30523">
        <ele>1531.2</ele>
        <time>2024-08-10T10:16:47Z</time>
      </trkpt>
      <trkpt lat="45.04603" lon="6.30523">
        <ele>1531.2</ele>
        <time>2024-08-10T10:16:48Z</time>
      </trkpt>
      <trkpt lat="45.04603" lon="6.30523">
        <ele>1531.4</ele>
        <time>2024-08-10T10:16:49Z</time>
      </trkpt>
      <trkpt lat="45.04603" lon="6.30523">
        <ele>1531.4</ele>
        <time>2024-08-10T10:16:50Z</time>
      </trkpt>
      <trkpt lat="45.04603" lon="6.30523">
        <ele>1531.2</ele>
        <time>2024-08-10T10:16:51Z</time>
      </trkpt>
      <trkpt lat="45.04603" lon="6.30523">
        <ele>1531.2</ele>
        <time>2024-08-10T10:16:52Z</time>
      </trkpt>
      <trkpt lat="45.04603" lon="6.30523">
        <ele>1531.4</ele>
        <time>2024-08-10T10:16:53Z</time>
      </trkpt>
      <trkpt lat="45.04603" lon="6.30523">
        <ele>1531.4</ele>
        <time>2024-08-10T10:16:54Z</time>
      </trkpt>
      <trkpt lat="45.04603" lon="6.30523">
        <ele>1531.4</ele>
        <time>2024-08-10T10:16:55Z</time>
      </trkpt>
      <trkpt lat="45.04603" lon="6.30523">
        <ele>1531.4</ele>
        <time>2024-08-10T10:16:56Z</time>
      </trkpt>
      <trkpt lat="45.04603" lon="6.30523">
        <ele>1531.4</ele>
        <time>2024-08-10T10:16:57Z</time>
      </trkpt>
      <trkpt lat="45.04603" lon="6.30523">
        <ele>1531.4</ele>
        <time>2024-08-10T10:16:58Z</time>
      </trkpt>
      <trkpt lat="45.04603" lon="6.30523">
        <ele>1531.2</ele>
        <time>2024-08-10T10:16:59Z</time>
      </trkpt>
      <trkpt lat="45.04603" lon="6.30523">
        <ele>1531.2</ele>
        <time>2024-08-10T10:17:00Z</time>
      </trkpt>
      <trkpt lat="45.04603" lon="6.30523">
        <ele>1531</ele>
        <time>2024-08-10T10:17:01Z</time>
      </trkpt>
      <trkpt lat="45.04603" lon="6.30523">
        <ele>1531</ele>
        <time>2024-08-10T10:17:02Z</time>
      </trkpt>
      <trkpt lat="45.04603" lon="6.30523">
        <ele>1531</ele>
        <time>2024-08-10T10:17:03Z</time>
      </trkpt>
      <trkpt lat="45.04603" lon="6.30523">
        <ele>1531</ele>
        <time>2024-08-10T10:17:04Z</time>
      </trkpt>
      <trkpt lat="45.04603" lon="6.30523">
        <ele>1531</ele>
        <time>2024-08-10T10:17:05Z</time>
      </trkpt>
      <trkpt lat="45.04603" lon="6.30523">
        <ele>1531</ele>
        <time>2024-08-10T10:17:06Z</time>
      </trkpt>
      <trkpt lat="45.04603" lon="6.30523">
        <ele>1531</ele>
        <time>2024-08-10T10:17:07Z</time>
      </trkpt>
      <trkpt lat="45.04603" lon="6.30523">
        <ele>1531</ele>
        <time>2024-08-10T10:17:08Z</time>
      </trkpt>
      <trkpt lat="45.04603" lon="6.30523">
        <ele>1531.2</ele>
        <time>2024-08-10T10:17:09Z</time>
      </trkpt>
      <trkpt lat="45.04603" lon="6.30523">
        <ele>1531.2</ele>
        <time>2024-08-10T10:17:10Z</time>
      </trkpt>
      <trkpt lat="45.04603" lon="6.30523">
        <ele>1531.2</ele>
        <time>2024-08-10T10:17:11Z</time>
      </trkpt>
      <trkpt lat="45.04603" lon="6.30523">
        <ele>1531</ele>
        <time>2024-08-10T10:17:12Z</time>
      </trkpt>
      <trkpt lat="45.04603" lon="6.30523">
        <ele>1530.8</ele>
        <time>2024-08-10T10:17:13Z</time>
      </trkpt>
      <trkpt lat="45.04603" lon="6.30523">
        <ele>1531</ele>
        <time>2024-08-10T10:17:14Z</time>
      </trkpt>
      <trkpt lat="45.04603" lon="6.30523">
        <ele>1531</ele>
        <time>2024-08-10T10:17:15Z</time>
      </trkpt>
      <trkpt lat="45.04603" lon="6.30523">
        <ele>1530.8</ele>
        <time>2024-08-10T10:17:16Z</time>
      </trkpt>
      <trkpt lat="45.04603" lon="6.30523">
        <ele>1530.8</ele>
        <time>2024-08-10T10:17:17Z</time>
      </trkpt>
      <trkpt lat="45.04603" lon="6.30523">
        <ele>1530.8</ele>
        <time>2024-08-10T10:17:18Z</time>
      </trkpt>
      <trkpt lat="45.04603" lon="6.30523">
        <ele>1530.8</ele>
        <time>2024-08-10T10:17:19Z</time>
      </trkpt>
      <trkpt lat="45.04603" lon="6.30523">
        <ele>1530.8</ele>
        <time>2024-08-10T10:17:20Z</time>
      </trkpt>
      <trkpt lat="45.04603" lon="6.30523">
        <ele>1530.8</ele>
        <time>2024-08-10T10:17:21Z</time>
      </trkpt>
      <trkpt lat="45.04603" lon="6.30523">
        <ele>1530.8</ele>
        <time>2024-08-10T10:17:22Z</time>
      </trkpt>
      <trkpt lat="45.04603" lon="6.30523">
        <ele>1530.8</ele>
        <time>2024-08-10T10:17:23Z</time>
      </trkpt>
      <trkpt lat="45.04603" lon="6.30523">
        <ele>1530.8</ele>
        <time>2024-08-10T10:17:24Z</time>
      </trkpt>
      <trkpt lat="45.04603" lon="6.30523">
        <ele>1531</ele>
        <time>2024-08-10T10:17:25Z</time>
      </trkpt>
      <trkpt lat="45.04603" lon="6.30523">
        <ele>1531</ele>
        <time>2024-08-10T10:17:26Z</time>
      </trkpt>
      <trkpt lat="45.04603" lon="6.30523">
        <ele>1531</ele>
        <time>2024-08-10T10:17:27Z</time>
      </trkpt>
      <trkpt lat="45.04603" lon="6.30523">
        <ele>1530.8</ele>
        <time>2024-08-10T10:17:28Z</time>
      </trkpt>
      <trkpt lat="45.04603" lon="6.30523">
        <ele>1530.6</ele>
        <time>2024-08-10T10:17:29Z</time>
      </trkpt>
      <trkpt lat="45.04603" lon="6.30523">
        <ele>1530.6</ele>
        <time>2024-08-10T10:17:30Z</time>
      </trkpt>
      <trkpt lat="45.04603" lon="6.30523">
        <ele>1530.6</ele>
        <time>2024-08-10T10:17:31Z</time>
      </trkpt>
      <trkpt lat="45.04603" lon="6.30523">
        <ele>1530.6</ele>
        <time>2024-08-10T10:17:32Z</time>
      </trkpt>
      <trkpt lat="45.04603" lon="6.30523">
        <ele>1530.6</ele>
        <time>2024-08-10T10:17:33Z</time>
      </trkpt>
      <trkpt lat="45.04603" lon="6.30523">
        <ele>1530.8</ele>
        <time>2024-08-10T10:17:34Z</time>
      </trkpt>
      <trkpt lat="45.04603" lon="6.30523">
        <ele>1530.8</ele>
        <time>2024-08-10T10:17:35Z</time>
      </trkpt>
      <trkpt lat="45.04603" lon="6.30523">
        <ele>1530.8</ele>
        <time>2024-08-10T10:17:36Z</time>
      </trkpt>
      <trkpt lat="45.04603" lon="6.30523">
        <ele>1530.8</ele>
        <time>2024-08-10T10:17:37Z</time>
      </trkpt>
      <trkpt lat="45.04603" lon="6.30523">
        <ele>1530.8</ele>
        <time>2024-08-10T10:17:38Z</time>
      </trkpt>
      <trkpt lat="45.04603" lon="6.30523">
        <ele>1530.8</ele>
        <time>2024-08-10T10:17:39Z</time>
      </trkpt>
      <trkpt lat="45.04603" lon="6.30523">
        <ele>1530.6</ele>
        <time>2024-08-10T10:17:40Z</time>
      </trkpt>
      <trkpt lat="45.04603" lon="6.30523">
        <ele>1530.6</ele>
        <time>2024-08-10T10:17:41Z</time>
      </trkpt>
      <trkpt lat="45.04603" lon="6.30523">
        <ele>1530.6</ele>
        <time>2024-08-10T10:17:42Z</time>
      </trkpt>
      <trkpt lat="45.04603" lon="6.30523">
        <ele>1530.6</ele>
        <time>2024-08-10T10:17:43Z</time>
      </trkpt>
      <trkpt lat="45.04603" lon="6.30523">
        <ele>1530.6</ele>
        <time>2024-08-10T10:17:44Z</time>
      </trkpt>
      <trkpt lat="45.04603" lon="6.30523">
        <ele>1530.6</ele>
        <time>2024-08-10T10:17:45Z</time>
      </trkpt>
      <trkpt lat="45.04603" lon="6.30523">
        <ele>1530.4</ele>
        <time>2024-08-10T10:17:46Z</time>
      </trkpt>
      <trkpt lat="45.04603" lon="6.30523">
        <ele>1530.4</ele>
        <time>2024-08-10T10:17:47Z</time>
      </trkpt>
      <trkpt lat="45.04603" lon="6.30523">
        <ele>1530.6</ele>
        <time>2024-08-10T10:17:48Z</time>
      </trkpt>
      <trkpt lat="45.04603" lon="6.30523">
        <ele>1530.8</ele>
        <time>2024-08-10T10:17:49Z</time>
      </trkpt>
      <trkpt lat="45.04603" lon="6.30523">
        <ele>1530.8</ele>
        <time>2024-08-10T10:17:50Z</time>
      </trkpt>
      <trkpt lat="45.04603" lon="6.30523">
        <ele>1530.6</ele>
        <time>2024-08-10T10:17:51Z</time>
      </trkpt>
      <trkpt lat="45.04603" lon="6.30523">
        <ele>1530.6</ele>
        <time>2024-08-10T10:17:52Z</time>
      </trkpt>
      <trkpt lat="45.04603" lon="6.30523">
        <ele>1530.4</ele>
        <time>2024-08-10T10:17:53Z</time>
      </trkpt>
      <trkpt lat="45.04603" lon="6.30523">
        <ele>1530.4</ele>
        <time>2024-08-10T10:17:54Z</time>
      </trkpt>
      <trkpt lat="45.04604" lon="6.30526">
        <ele>1530.6</ele>
        <time>2024-08-10T10:17:55Z</time>
      </trkpt>
      <trkpt lat="45.04604" lon="6.30526">
        <ele>1530.4</ele>
        <time>2024-08-10T10:17:56Z</time>
      </trkpt>
      <trkpt lat="45.04605" lon="6.30529">
        <ele>1530.6</ele>
        <time>2024-08-10T10:17:57Z</time>
      </trkpt>
      <trkpt lat="45.04605" lon="6.30529">
        <ele>1530.6</ele>
        <time>2024-08-10T10:17:58Z</time>
      </trkpt>
      <trkpt lat="45.04604" lon="6.30531">
        <ele>1530.6</ele>
        <time>2024-08-10T10:17:59Z</time>
      </trkpt>
      <trkpt lat="45.04604" lon="6.30531">
        <ele>1531</ele>
        <time>2024-08-10T10:18:00Z</time>
      </trkpt>
      <trkpt lat="45.04604" lon="6.30531">
        <ele>1531</ele>
        <time>2024-08-10T10:18:01Z</time>
      </trkpt>
      <trkpt lat="45.04604" lon="6.30531">
        <ele>1531</ele>
        <time>2024-08-10T10:18:02Z</time>
      </trkpt>
      <trkpt lat="45.04604" lon="6.30531">
        <ele>1531.2</ele>
        <time>2024-08-10T10:18:03Z</time>
      </trkpt>
      <trkpt lat="45.04604" lon="6.30531">
        <ele>1531</ele>
        <time>2024-08-10T10:18:04Z</time>
      </trkpt>
      <trkpt lat="45.04604" lon="6.30531">
        <ele>1531</ele>
        <time>2024-08-10T10:18:05Z</time>
      </trkpt>
      <trkpt lat="45.04604" lon="6.30531">
        <ele>1531</ele>
        <time>2024-08-10T10:18:06Z</time>
      </trkpt>
      <trkpt lat="45.04604" lon="6.30531">
        <ele>1530.8</ele>
        <time>2024-08-10T10:18:07Z</time>
      </trkpt>
      <trkpt lat="45.04604" lon="6.30531">
        <ele>1530.2</ele>
        <time>2024-08-10T10:18:08Z</time>
      </trkpt>
      <trkpt lat="45.04604" lon="6.30531">
        <ele>1530.2</ele>
        <time>2024-08-10T10:18:09Z</time>
      </trkpt>
      <trkpt lat="45.04604" lon="6.30531">
        <ele>1530.2</ele>
        <time>2024-08-10T10:18:10Z</time>
      </trkpt>
      <trkpt lat="45.04604" lon="6.30531">
        <ele>1530.6</ele>
        <time>2024-08-10T10:18:11Z</time>
      </trkpt>
      <trkpt lat="45.04604" lon="6.30531">
        <ele>1530.6</ele>
        <time>2024-08-10T10:18:12Z</time>
      </trkpt>
      <trkpt lat="45.04604" lon="6.30531">
        <ele>1530.6</ele>
        <time>2024-08-10T10:18:13Z</time>
      </trkpt>
      <trkpt lat="45.04604" lon="6.30531">
        <ele>1530.4</ele>
        <time>2024-08-10T10:18:14Z</time>
      </trkpt>
      <trkpt lat="45.04602" lon="6.30533">
        <ele>1530.4</ele>
        <time>2024-08-10T10:18:15Z</time>
      </trkpt>
      <trkpt lat="45.04602" lon="6.30533">
        <ele>1529.8</ele>
        <time>2024-08-10T10:18:16Z</time>
      </trkpt>
      <trkpt lat="45.046" lon="6.30532">
        <ele>1529.8</ele>
        <time>2024-08-10T10:18:17Z</time>
      </trkpt>
      <trkpt lat="45.04598" lon="6.30531">
        <ele>1529.8</ele>
        <time>2024-08-10T10:18:18Z</time>
      </trkpt>
      <trkpt lat="45.04598" lon="6.30531">
        <ele>1529.8</ele>
        <time>2024-08-10T10:18:19Z</time>
      </trkpt>
      <trkpt lat="45.04595" lon="6.30529">
        <ele>1529.6</ele>
        <time>2024-08-10T10:18:20Z</time>
      </trkpt>
      <trkpt lat="45.04595" lon="6.30529">
        <ele>1529.4</ele>
        <time>2024-08-10T10:18:21Z</time>
      </trkpt>
      <trkpt lat="45.04593" lon="6.30528">
        <ele>1529.2</ele>
        <time>2024-08-10T10:18:22Z</time>
      </trkpt>
      <trkpt lat="45.04593" lon="6.30528">
        <ele>1529</ele>
        <time>2024-08-10T10:18:23Z</time>
      </trkpt>
      <trkpt lat="45.04595" lon="6.30524">
        <ele>1528.4</ele>
        <time>2024-08-10T10:18:24Z</time>
      </trkpt>
      <trkpt lat="45.04595" lon="6.30524">
        <ele>1527.8</ele>
        <time>2024-08-10T10:18:25Z</time>
      </trkpt>
      <trkpt lat="45.04597" lon="6.30524">
        <ele>1527.8</ele>
        <time>2024-08-10T10:18:26Z</time>
      </trkpt>
      <trkpt lat="45.04597" lon="6.30524">
        <ele>1527.8</ele>
        <time>2024-08-10T10:18:27Z</time>
      </trkpt>
      <trkpt lat="45.04599" lon="6.30525">
        <ele>1527.8</ele>
        <time>2024-08-10T10:18:28Z</time>
      </trkpt>
      <trkpt lat="45.04599" lon="6.30525">
        <ele>1527.8</ele>
        <time>2024-08-10T10:18:29Z</time>
      </trkpt>
      <trkpt lat="45.04603" lon="6.30525">
        <ele>1527.8</ele>
        <time>2024-08-10T10:18:30Z</time>
      </trkpt>
      <trkpt lat="45.04603" lon="6.30525">
        <ele>1528</ele>
        <time>2024-08-10T10:18:31Z</time>
      </trkpt>
      <trkpt lat="45.04605" lon="6.30525">
        <ele>1528</ele>
        <time>2024-08-10T10:18:32Z</time>
      </trkpt>
      <trkpt lat="45.04605" lon="6.30525">
        <ele>1528.4</ele>
        <time>2024-08-10T10:18:33Z</time>
      </trkpt>
      <trkpt lat="45.04607" lon="6.30524">
        <ele>1528.6</ele>
        <time>2024-08-10T10:18:34Z</time>
      </trkpt>
      <trkpt lat="45.04607" lon="6.30524">
        <ele>1528.6</ele>
        <time>2024-08-10T10:18:35Z</time>
      </trkpt>
      <trkpt lat="45.04609" lon="6.30523">
        <ele>1528.8</ele>
        <time>2024-08-10T10:18:36Z</time>
      </trkpt>
      <trkpt lat="45.04609" lon="6.30523">
        <ele>1529.2</ele>
        <time>2024-08-10T10:18:37Z</time>
      </trkpt>
      <trkpt lat="45.04609" lon="6.30523">
        <ele>1529.4</ele>
        <time>2024-08-10T10:18:38Z</time>
      </trkpt>
      <trkpt lat="45.04609" lon="6.30523">
        <ele>1529.4</ele>
        <time>2024-08-10T10:18:39Z</time>
      </trkpt>
      <trkpt lat="45.04609" lon="6.30523">
        <ele>1529.4</ele>
        <time>2024-08-10T10:18:40Z</time>
      </trkpt>
      <trkpt lat="45.04609" lon="6.30523">
        <ele>1529.6</ele>
        <time>2024-08-10T10:18:41Z</time>
      </trkpt>
      <trkpt lat="45.04609" lon="6.30523">
        <ele>1529.6</ele>
        <time>2024-08-10T10:18:42Z</time>
      </trkpt>
      <trkpt lat="45.04609" lon="6.30523">
        <ele>1529.6</ele>
        <time>2024-08-10T10:18:43Z</time>
      </trkpt>
      <trkpt lat="45.04609" lon="6.30523">
        <ele>1529.6</ele>
        <time>2024-08-10T10:18:44Z</time>
      </trkpt>
      <trkpt lat="45.04607" lon="6.30525">
        <ele>1529.4</ele>
        <time>2024-08-10T10:18:45Z</time>
      </trkpt>
      <trkpt lat="45.04607" lon="6.30525">
        <ele>1529.4</ele>
        <time>2024-08-10T10:18:46Z</time>
      </trkpt>
      <trkpt lat="45.04603" lon="6.30526">
        <ele>1529.2</ele>
        <time>2024-08-10T10:18:47Z</time>
      </trkpt>
      <trkpt lat="45.04601" lon="6.30526">
        <ele>1529</ele>
        <time>2024-08-10T10:18:48Z</time>
      </trkpt>
      <trkpt lat="45.04601" lon="6.30526">
        <ele>1528.6</ele>
        <time>2024-08-10T10:18:49Z</time>
      </trkpt>
      <trkpt lat="45.04598" lon="6.30525">
        <ele>1528.6</ele>
        <time>2024-08-10T10:18:50Z</time>
      </trkpt>
      <trkpt lat="45.04598" lon="6.30525">
        <ele>1528.6</ele>
        <time>2024-08-10T10:18:51Z</time>
      </trkpt>
      <trkpt lat="45.04595" lon="6.30524">
        <ele>1528.4</ele>
        <time>2024-08-10T10:18:52Z</time>
      </trkpt>
      <trkpt lat="45.04595" lon="6.30524">
        <ele>1528.2</ele>
        <time>2024-08-10T10:18:53Z</time>
      </trkpt>
      <trkpt lat="45.04593" lon="6.30523">
        <ele>1528</ele>
        <time>2024-08-10T10:18:54Z</time>
      </trkpt>
      <trkpt lat="45.04593" lon="6.30523">
        <ele>1528</ele>
        <time>2024-08-10T10:18:55Z</time>
      </trkpt>
      <trkpt lat="45.0459" lon="6.30523">
        <ele>1527.8</ele>
        <time>2024-08-10T10:18:56Z</time>
      </trkpt>
      <trkpt lat="45.0459" lon="6.30523">
        <ele>1527.6</ele>
        <time>2024-08-10T10:18:57Z</time>
      </trkpt>
      <trkpt lat="45.04587" lon="6.30522">
        <ele>1527.4</ele>
        <time>2024-08-10T10:18:58Z</time>
      </trkpt>
      <trkpt lat="45.04587" lon="6.30522">
        <ele>1527.2</ele>
        <time>2024-08-10T10:18:59Z</time>
      </trkpt>
      <trkpt lat="45.04585" lon="6.30522">
        <ele>1527</ele>
        <time>2024-08-10T10:19:00Z</time>
      </trkpt>
      <trkpt lat="45.04585" lon="6.30522">
        <ele>1526.6</ele>
        <time>2024-08-10T10:19:01Z</time>
      </trkpt>
      <trkpt lat="45.04583" lon="6.30522">
        <ele>1526.4</ele>
        <time>2024-08-10T10:19:02Z</time>
      </trkpt>
      <trkpt lat="45.04583" lon="6.30522">
        <ele>1525.8</ele>
        <time>2024-08-10T10:19:03Z</time>
      </trkpt>
      <trkpt lat="45.0458" lon="6.30523">
        <ele>1525.8</ele>
        <time>2024-08-10T10:19:04Z</time>
      </trkpt>
      <trkpt lat="45.0458" lon="6.30523">
        <ele>1525.8</ele>
        <time>2024-08-10T10:19:05Z</time>
      </trkpt>
      <trkpt lat="45.04578" lon="6.30525">
        <ele>1525.6</ele>
        <time>2024-08-10T10:19:06Z</time>
      </trkpt>
      <trkpt lat="45.04578" lon="6.30525">
        <ele>1525.4</ele>
        <time>2024-08-10T10:19:07Z</time>
      </trkpt>
      <trkpt lat="45.04576" lon="6.30527">
        <ele>1525.2</ele>
        <time>2024-08-10T10:19:08Z</time>
      </trkpt>
      <trkpt lat="45.04576" lon="6.30527">
        <ele>1524.8</ele>
        <time>2024-08-10T10:19:09Z</time>
      </trkpt>
      <trkpt lat="45.04574" lon="6.30529">
        <ele>1524.6</ele>
        <time>2024-08-10T10:19:10Z</time>
      </trkpt>
      <trkpt lat="45.04574" lon="6.30529">
        <ele>1524.2</ele>
        <time>2024-08-10T10:19:11Z</time>
      </trkpt>
      <trkpt lat="45.04572" lon="6.30531">
        <ele>1523.8</ele>
        <time>2024-08-10T10:19:12Z</time>
      </trkpt>
      <trkpt lat="45.04572" lon="6.30531">
        <ele>1523.6</ele>
        <time>2024-08-10T10:19:13Z</time>
      </trkpt>
      <trkpt lat="45.0457" lon="6.30532">
        <ele>1523.4</ele>
        <time>2024-08-10T10:19:14Z</time>
      </trkpt>
      <trkpt lat="45.0457" lon="6.30532">
        <ele>1523</ele>
        <time>2024-08-10T10:19:15Z</time>
      </trkpt>
      <trkpt lat="45.04567" lon="6.30532">
        <ele>1522.6</ele>
        <time>2024-08-10T10:19:16Z</time>
      </trkpt>
      <trkpt lat="45.04567" lon="6.30532">
        <ele>1522.4</ele>
        <time>2024-08-10T10:19:17Z</time>
      </trkpt>
      <trkpt lat="45.04564" lon="6.30531">
        <ele>1522.4</ele>
        <time>2024-08-10T10:19:18Z</time>
      </trkpt>
      <trkpt lat="45.04564" lon="6.30531">
        <ele>1521.8</ele>
        <time>2024-08-10T10:19:19Z</time>
      </trkpt>
      <trkpt lat="45.04562" lon="6.3053">
        <ele>1521.6</ele>
        <time>2024-08-10T10:19:20Z</time>
      </trkpt>
      <trkpt lat="45.04562" lon="6.3053">
        <ele>1521.2</ele>
        <time>2024-08-10T10:19:21Z</time>
      </trkpt>
      <trkpt lat="45.04562" lon="6.3053">
        <ele>1521</ele>
        <time>2024-08-10T10:19:22Z</time>
      </trkpt>
      <trkpt lat="45.0456" lon="6.30531">
        <ele>1520.8</ele>
        <time>2024-08-10T10:19:23Z</time>
      </trkpt>
      <trkpt lat="45.0456" lon="6.30531">
        <ele>1520.2</ele>
        <time>2024-08-10T10:19:24Z</time>
      </trkpt>
      <trkpt lat="45.04557" lon="6.30532">
        <ele>1519.8</ele>
        <time>2024-08-10T10:19:25Z</time>
      </trkpt>
      <trkpt lat="45.04557" lon="6.30532">
        <ele>1519.6</ele>
        <time>2024-08-10T10:19:26Z</time>
      </trkpt>
      <trkpt lat="45.04556" lon="6.30532">
        <ele>1519.4</ele>
        <time>2024-08-10T10:19:27Z</time>
      </trkpt>
      <trkpt lat="45.04556" lon="6.30532">
        <ele>1519.2</ele>
        <time>2024-08-10T10:19:28Z</time>
      </trkpt>
      <trkpt lat="45.04553" lon="6.30532">
        <ele>1519.2</ele>
        <time>2024-08-10T10:19:29Z</time>
      </trkpt>
      <trkpt lat="45.04553" lon="6.30532">
        <ele>1518.8</ele>
        <time>2024-08-10T10:19:30Z</time>
      </trkpt>
      <trkpt lat="45.04551" lon="6.30534">
        <ele>1518.4</ele>
        <time>2024-08-10T10:19:31Z</time>
      </trkpt>
      <trkpt lat="45.04551" lon="6.30534">
        <ele>1518.4</ele>
        <time>2024-08-10T10:19:32Z</time>
      </trkpt>
      <trkpt lat="45.04549" lon="6.30534">
        <ele>1518</ele>
        <time>2024-08-10T10:19:33Z</time>
      </trkpt>
      <trkpt lat="45.04549" lon="6.30534">
        <ele>1517.6</ele>
        <time>2024-08-10T10:19:34Z</time>
      </trkpt>
      <trkpt lat="45.04547" lon="6.30534">
        <ele>1517</ele>
        <time>2024-08-10T10:19:35Z</time>
      </trkpt>
      <trkpt lat="45.04547" lon="6.30534">
        <ele>1516.4</ele>
        <time>2024-08-10T10:19:36Z</time>
      </trkpt>
      <trkpt lat="45.04545" lon="6.30535">
        <ele>1516.2</ele>
        <time>2024-08-10T10:19:37Z</time>
      </trkpt>
      <trkpt lat="45.04545" lon="6.30535">
        <ele>1515.8</ele>
        <time>2024-08-10T10:19:38Z</time>
      </trkpt>
      <trkpt lat="45.04543" lon="6.30536">
        <ele>1515.6</ele>
        <time>2024-08-10T10:19:39Z</time>
      </trkpt>
      <trkpt lat="45.04543" lon="6.30536">
        <ele>1515.2</ele>
        <time>2024-08-10T10:19:40Z</time>
      </trkpt>
      <trkpt lat="45.04543" lon="6.30536">
        <ele>1514.8</ele>
        <time>2024-08-10T10:19:41Z</time>
      </trkpt>
      <trkpt lat="45.04541" lon="6.30538">
        <ele>1514.8</ele>
        <time>2024-08-10T10:19:42Z</time>
      </trkpt>
      <trkpt lat="45.04541" lon="6.30538">
        <ele>1514.6</ele>
        <time>2024-08-10T10:19:43Z</time>
      </trkpt>
      <trkpt lat="45.04542" lon="6.3054">
        <ele>1514.2</ele>
        <time>2024-08-10T10:19:44Z</time>
      </trkpt>
      <trkpt lat="45.04542" lon="6.3054">
        <ele>1514.2</ele>
        <time>2024-08-10T10:19:45Z</time>
      </trkpt>
      <trkpt lat="45.04542" lon="6.30543">
        <ele>1514</ele>
        <time>2024-08-10T10:19:46Z</time>
      </trkpt>
      <trkpt lat="45.04542" lon="6.30543">
        <ele>1513.8</ele>
        <time>2024-08-10T10:19:47Z</time>
      </trkpt>
      <trkpt lat="45.04543" lon="6.30546">
        <ele>1513.4</ele>
        <time>2024-08-10T10:19:48Z</time>
      </trkpt>
      <trkpt lat="45.04543" lon="6.30546">
        <ele>1513</ele>
        <time>2024-08-10T10:19:49Z</time>
      </trkpt>
      <trkpt lat="45.04543" lon="6.30551">
        <ele>1512.6</ele>
        <time>2024-08-10T10:19:50Z</time>
      </trkpt>
      <trkpt lat="45.04543" lon="6.30551">
        <ele>1512.4</ele>
        <time>2024-08-10T10:19:51Z</time>
      </trkpt>
      <trkpt lat="45.04543" lon="6.30551">
        <ele>1512.2</ele>
        <time>2024-08-10T10:19:52Z</time>
      </trkpt>
      <trkpt lat="45.04542" lon="6.30553">
        <ele>1512.2</ele>
        <time>2024-08-10T10:19:53Z</time>
      </trkpt>
      <trkpt lat="45.04542" lon="6.30553">
        <ele>1512.2</ele>
        <time>2024-08-10T10:19:54Z</time>
      </trkpt>
      <trkpt lat="45.04542" lon="6.30553">
        <ele>1512.2</ele>
        <time>2024-08-10T10:19:55Z</time>
      </trkpt>
      <trkpt lat="45.04542" lon="6.30556">
        <ele>1512</ele>
        <time>2024-08-10T10:19:56Z</time>
      </trkpt>
      <trkpt lat="45.04542" lon="6.30556">
        <ele>1512</ele>
        <time>2024-08-10T10:19:57Z</time>
      </trkpt>
      <trkpt lat="45.04542" lon="6.30556">
        <ele>1512</ele>
        <time>2024-08-10T10:19:58Z</time>
      </trkpt>
      <trkpt lat="45.0454" lon="6.30556">
        <ele>1511.8</ele>
        <time>2024-08-10T10:19:59Z</time>
      </trkpt>
      <trkpt lat="45.0454" lon="6.30556">
        <ele>1511.8</ele>
        <time>2024-08-10T10:20:00Z</time>
      </trkpt>
      <trkpt lat="45.04539" lon="6.30558">
        <ele>1511.8</ele>
        <time>2024-08-10T10:20:01Z</time>
      </trkpt>
      <trkpt lat="45.04539" lon="6.30558">
        <ele>1511.4</ele>
        <time>2024-08-10T10:20:02Z</time>
      </trkpt>
      <trkpt lat="45.04538" lon="6.30561">
        <ele>1510.8</ele>
        <time>2024-08-10T10:20:03Z</time>
      </trkpt>
      <trkpt lat="45.04538" lon="6.30561">
        <ele>1510.8</ele>
        <time>2024-08-10T10:20:04Z</time>
      </trkpt>
      <trkpt lat="45.04537" lon="6.30565">
        <ele>1510.6</ele>
        <time>2024-08-10T10:20:05Z</time>
      </trkpt>
      <trkpt lat="45.04537" lon="6.30565">
        <ele>1510.4</ele>
        <time>2024-08-10T10:20:06Z</time>
      </trkpt>
      <trkpt lat="45.04536" lon="6.30568">
        <ele>1510.2</ele>
        <time>2024-08-10T10:20:07Z</time>
      </trkpt>
      <trkpt lat="45.04536" lon="6.30568">
        <ele>1510</ele>
        <time>2024-08-10T10:20:08Z</time>
      </trkpt>
      <trkpt lat="45.04535" lon="6.30571">
        <ele>1509.6</ele>
        <time>2024-08-10T10:20:09Z</time>
      </trkpt>
      <trkpt lat="45.04535" lon="6.30571">
        <ele>1509.4</ele>
        <time>2024-08-10T10:20:10Z</time>
      </trkpt>
      <trkpt lat="45.04533" lon="6.30573">
        <ele>1509.4</ele>
        <time>2024-08-10T10:20:11Z</time>
      </trkpt>
      <trkpt lat="45.04533" lon="6.30573">
        <ele>1509.4</ele>
        <time>2024-08-10T10:20:12Z</time>
      </trkpt>
      <trkpt lat="45.04532" lon="6.30575">
        <ele>1509.4</ele>
        <time>2024-08-10T10:20:13Z</time>
      </trkpt>
      <trkpt lat="45.04532" lon="6.30575">
        <ele>1509.2</ele>
        <time>2024-08-10T10:20:14Z</time>
      </trkpt>
      <trkpt lat="45.0453" lon="6.30578">
        <ele>1509.2</ele>
        <time>2024-08-10T10:20:15Z</time>
      </trkpt>
      <trkpt lat="45.0453" lon="6.30578">
        <ele>1509.2</ele>
        <time>2024-08-10T10:20:16Z</time>
      </trkpt>
      <trkpt lat="45.04529" lon="6.30581">
        <ele>1509</ele>
        <time>2024-08-10T10:20:17Z</time>
      </trkpt>
      <trkpt lat="45.04529" lon="6.30581">
        <ele>1508.6</ele>
        <time>2024-08-10T10:20:18Z</time>
      </trkpt>
      <trkpt lat="45.04528" lon="6.30584">
        <ele>1508.6</ele>
        <time>2024-08-10T10:20:19Z</time>
      </trkpt>
      <trkpt lat="45.04528" lon="6.30584">
        <ele>1508.4</ele>
        <time>2024-08-10T10:20:20Z</time>
      </trkpt>
      <trkpt lat="45.04526" lon="6.30588">
        <ele>1508.2</ele>
        <time>2024-08-10T10:20:21Z</time>
      </trkpt>
      <trkpt lat="45.04526" lon="6.30588">
        <ele>1507.8</ele>
        <time>2024-08-10T10:20:22Z</time>
      </trkpt>
      <trkpt lat="45.04526" lon="6.30591">
        <ele>1507.8</ele>
        <time>2024-08-10T10:20:23Z</time>
      </trkpt>
      <trkpt lat="45.04526" lon="6.30591">
        <ele>1507.4</ele>
        <time>2024-08-10T10:20:24Z</time>
      </trkpt>
      <trkpt lat="45.04525" lon="6.30594">
        <ele>1507.4</ele>
        <time>2024-08-10T10:20:25Z</time>
      </trkpt>
      <trkpt lat="45.04525" lon="6.30594">
        <ele>1507</ele>
        <time>2024-08-10T10:20:26Z</time>
      </trkpt>
      <trkpt lat="45.04525" lon="6.30597">
        <ele>1506.8</ele>
        <time>2024-08-10T10:20:27Z</time>
      </trkpt>
      <trkpt lat="45.04525" lon="6.30597">
        <ele>1506.6</ele>
        <time>2024-08-10T10:20:28Z</time>
      </trkpt>
      <trkpt lat="45.04524" lon="6.30601">
        <ele>1506.2</ele>
        <time>2024-08-10T10:20:29Z</time>
      </trkpt>
      <trkpt lat="45.04524" lon="6.30601">
        <ele>1506.2</ele>
        <time>2024-08-10T10:20:30Z</time>
      </trkpt>
      <trkpt lat="45.04523" lon="6.30604">
        <ele>1506.2</ele>
        <time>2024-08-10T10:20:31Z</time>
      </trkpt>
      <trkpt lat="45.04523" lon="6.30604">
        <ele>1506</ele>
        <time>2024-08-10T10:20:32Z</time>
      </trkpt>
      <trkpt lat="45.04521" lon="6.30605">
        <ele>1505.8</ele>
        <time>2024-08-10T10:20:33Z</time>
      </trkpt>
      <trkpt lat="45.04521" lon="6.30605">
        <ele>1505.2</ele>
        <time>2024-08-10T10:20:34Z</time>
      </trkpt>
      <trkpt lat="45.0452" lon="6.30608">
        <ele>1505.2</ele>
        <time>2024-08-10T10:20:35Z</time>
      </trkpt>
      <trkpt lat="45.0452" lon="6.30608">
        <ele>1504.4</ele>
        <time>2024-08-10T10:20:36Z</time>
      </trkpt>
      <trkpt lat="45.04518" lon="6.30612">
        <ele>1503.8</ele>
        <time>2024-08-10T10:20:37Z</time>
      </trkpt>
      <trkpt lat="45.04516" lon="6.30613">
        <ele>1503.2</ele>
        <time>2024-08-10T10:20:38Z</time>
      </trkpt>
      <trkpt lat="45.04514" lon="6.30614">
        <ele>1503</ele>
        <time>2024-08-10T10:20:39Z</time>
      </trkpt>
      <trkpt lat="45.04514" lon="6.30614">
        <ele>1502.6</ele>
        <time>2024-08-10T10:20:40Z</time>
      </trkpt>
      <trkpt lat="45.04512" lon="6.30618">
        <ele>1502.2</ele>
        <time>2024-08-10T10:20:41Z</time>
      </trkpt>
      <trkpt lat="45.04512" lon="6.30618">
        <ele>1502</ele>
        <time>2024-08-10T10:20:42Z</time>
      </trkpt>
      <trkpt lat="45.0451" lon="6.3062">
        <ele>1501.8</ele>
        <time>2024-08-10T10:20:43Z</time>
      </trkpt>
      <trkpt lat="45.0451" lon="6.3062">
        <ele>1501.6</ele>
        <time>2024-08-10T10:20:44Z</time>
      </trkpt>
      <trkpt lat="45.04509" lon="6.30623">
        <ele>1501.6</ele>
        <time>2024-08-10T10:20:45Z</time>
      </trkpt>
      <trkpt lat="45.04509" lon="6.30623">
        <ele>1501.2</ele>
        <time>2024-08-10T10:20:46Z</time>
      </trkpt>
      <trkpt lat="45.04507" lon="6.30624">
        <ele>1500.8</ele>
        <time>2024-08-10T10:20:47Z</time>
      </trkpt>
      <trkpt lat="45.04507" lon="6.30624">
        <ele>1500.8</ele>
        <time>2024-08-10T10:20:48Z</time>
      </trkpt>
      <trkpt lat="45.04507" lon="6.30624">
        <ele>1500.6</ele>
        <time>2024-08-10T10:20:49Z</time>
      </trkpt>
      <trkpt lat="45.04508" lon="6.30629">
        <ele>1500.4</ele>
        <time>2024-08-10T10:20:50Z</time>
      </trkpt>
      <trkpt lat="45.04508" lon="6.30629">
        <ele>1500.4</ele>
        <time>2024-08-10T10:20:51Z</time>
      </trkpt>
      <trkpt lat="45.04509" lon="6.30632">
        <ele>1500.2</ele>
        <time>2024-08-10T10:20:52Z</time>
      </trkpt>
      <trkpt lat="45.04509" lon="6.30632">
        <ele>1500.2</ele>
        <time>2024-08-10T10:20:53Z</time>
      </trkpt>
      <trkpt lat="45.0451" lon="6.30635">
        <ele>1500.4</ele>
        <time>2024-08-10T10:20:54Z</time>
      </trkpt>
      <trkpt lat="45.0451" lon="6.30635">
        <ele>1500.4</ele>
        <time>2024-08-10T10:20:55Z</time>
      </trkpt>
      <trkpt lat="45.04511" lon="6.30638">
        <ele>1500.4</ele>
        <time>2024-08-10T10:20:56Z</time>
      </trkpt>
      <trkpt lat="45.04511" lon="6.30638">
        <ele>1500.4</ele>
        <time>2024-08-10T10:20:57Z</time>
      </trkpt>
      <trkpt lat="45.04512" lon="6.30642">
        <ele>1500.4</ele>
        <time>2024-08-10T10:20:58Z</time>
      </trkpt>
      <trkpt lat="45.04514" lon="6.30643">
        <ele>1500.6</ele>
        <time>2024-08-10T10:20:59Z</time>
      </trkpt>
      <trkpt lat="45.04514" lon="6.30643">
        <ele>1500.6</ele>
        <time>2024-08-10T10:21:00Z</time>
      </trkpt>
      <trkpt lat="45.04516" lon="6.30645">
        <ele>1500.8</ele>
        <time>2024-08-10T10:21:01Z</time>
      </trkpt>
      <trkpt lat="45.04516" lon="6.30645">
        <ele>1500.8</ele>
        <time>2024-08-10T10:21:02Z</time>
      </trkpt>
      <trkpt lat="45.04518" lon="6.30647">
        <ele>1500.4</ele>
        <time>2024-08-10T10:21:03Z</time>
      </trkpt>
      <trkpt lat="45.04518" lon="6.30647">
        <ele>1500.4</ele>
        <time>2024-08-10T10:21:04Z</time>
      </trkpt>
      <trkpt lat="45.0452" lon="6.3065">
        <ele>1500.4</ele>
        <time>2024-08-10T10:21:05Z</time>
      </trkpt>
      <trkpt lat="45.0452" lon="6.3065">
        <ele>1500.6</ele>
        <time>2024-08-10T10:21:06Z</time>
      </trkpt>
      <trkpt lat="45.04522" lon="6.30652">
        <ele>1500.6</ele>
        <time>2024-08-10T10:21:07Z</time>
      </trkpt>
      <trkpt lat="45.04522" lon="6.30652">
        <ele>1500.6</ele>
        <time>2024-08-10T10:21:08Z</time>
      </trkpt>
      <trkpt lat="45.04524" lon="6.30654">
        <ele>1500.6</ele>
        <time>2024-08-10T10:21:09Z</time>
      </trkpt>
      <trkpt lat="45.04524" lon="6.30654">
        <ele>1500.6</ele>
        <time>2024-08-10T10:21:10Z</time>
      </trkpt>
      <trkpt lat="45.04525" lon="6.30657">
        <ele>1500.4</ele>
        <time>2024-08-10T10:21:11Z</time>
      </trkpt>
      <trkpt lat="45.04525" lon="6.30657">
        <ele>1500.4</ele>
        <time>2024-08-10T10:21:12Z</time>
      </trkpt>
      <trkpt lat="45.04524" lon="6.3066">
        <ele>1500.4</ele>
        <time>2024-08-10T10:21:13Z</time>
      </trkpt>
      <trkpt lat="45.04524" lon="6.3066">
        <ele>1500.4</ele>
        <time>2024-08-10T10:21:14Z</time>
      </trkpt>
      <trkpt lat="45.04524" lon="6.3066">
        <ele>1500.2</ele>
        <time>2024-08-10T10:21:15Z</time>
      </trkpt>
      <trkpt lat="45.04524" lon="6.3066">
        <ele>1500.2</ele>
        <time>2024-08-10T10:21:16Z</time>
      </trkpt>
      <trkpt lat="45.04524" lon="6.3066">
        <ele>1500.2</ele>
        <time>2024-08-10T10:21:17Z</time>
      </trkpt>
      <trkpt lat="45.04526" lon="6.30662">
        <ele>1500.2</ele>
        <time>2024-08-10T10:21:18Z</time>
      </trkpt>
      <trkpt lat="45.04526" lon="6.30662">
        <ele>1500.2</ele>
        <time>2024-08-10T10:21:19Z</time>
      </trkpt>
      <trkpt lat="45.04528" lon="6.30663">
        <ele>1500.4</ele>
        <time>2024-08-10T10:21:20Z</time>
      </trkpt>
      <trkpt lat="45.04528" lon="6.30663">
        <ele>1500.6</ele>
        <time>2024-08-10T10:21:21Z</time>
      </trkpt>
      <trkpt lat="45.04528" lon="6.30663">
        <ele>1500.6</ele>
        <time>2024-08-10T10:21:22Z</time>
      </trkpt>
      <trkpt lat="45.04528" lon="6.30663">
        <ele>1500.6</ele>
        <time>2024-08-10T10:21:23Z</time>
      </trkpt>
      <trkpt lat="45.04528" lon="6.30663">
        <ele>1500.4</ele>
        <time>2024-08-10T10:21:24Z</time>
      </trkpt>
      <trkpt lat="45.0453" lon="6.30662">
        <ele>1500.2</ele>
        <time>2024-08-10T10:21:25Z</time>
      </trkpt>
      <trkpt lat="45.0453" lon="6.30662">
        <ele>1500.2</ele>
        <time>2024-08-10T10:21:26Z</time>
      </trkpt>
      <trkpt lat="45.0453" lon="6.30662">
        <ele>1500.4</ele>
        <time>2024-08-10T10:21:27Z</time>
      </trkpt>
      <trkpt lat="45.04531" lon="6.30664">
        <ele>1500.4</ele>
        <time>2024-08-10T10:21:28Z</time>
      </trkpt>
      <trkpt lat="45.04531" lon="6.30664">
        <ele>1500.4</ele>
        <time>2024-08-10T10:21:29Z</time>
      </trkpt>
      <trkpt lat="45.04531" lon="6.30664">
        <ele>1500.6</ele>
        <time>2024-08-10T10:21:30Z</time>
      </trkpt>
      <trkpt lat="45.04531" lon="6.30664">
        <ele>1500.6</ele>
        <time>2024-08-10T10:21:31Z</time>
      </trkpt>
      <trkpt lat="45.04531" lon="6.30664">
        <ele>1500.4</ele>
        <time>2024-08-10T10:21:32Z</time>
      </trkpt>
      <trkpt lat="45.04531" lon="6.30664">
        <ele>1500.4</ele>
        <time>2024-08-10T10:21:33Z</time>
      </trkpt>
      <trkpt lat="45.04531" lon="6.30664">
        <ele>1500.6</ele>
        <time>2024-08-10T10:21:34Z</time>
      </trkpt>
      <trkpt lat="45.04531" lon="6.30664">
        <ele>1500.6</ele>
        <time>2024-08-10T10:21:35Z</time>
      </trkpt>
      <trkpt lat="45.04533" lon="6.30666">
        <ele>1500.6</ele>
        <time>2024-08-10T10:21:36Z</time>
      </trkpt>
      <trkpt lat="45.04533" lon="6.30666">
        <ele>1500.6</ele>
        <time>2024-08-10T10:21:37Z</time>
      </trkpt>
      <trkpt lat="45.04536" lon="6.30669">
        <ele>1500.6</ele>
        <time>2024-08-10T10:21:38Z</time>
      </trkpt>
      <trkpt lat="45.04538" lon="6.30671">
        <ele>1500.6</ele>
        <time>2024-08-10T10:21:39Z</time>
      </trkpt>
      <trkpt lat="45.0454" lon="6.30671">
        <ele>1500.4</ele>
        <time>2024-08-10T10:21:40Z</time>
      </trkpt>
      <trkpt lat="45.04542" lon="6.30671">
        <ele>1500.4</ele>
        <time>2024-08-10T10:21:41Z</time>
      </trkpt>
      <trkpt lat="45.04544" lon="6.30671">
        <ele>1500.4</ele>
        <time>2024-08-10T10:21:42Z</time>
      </trkpt>
      <trkpt lat="45.04544" lon="6.30671">
        <ele>1500.4</ele>
        <time>2024-08-10T10:21:43Z</time>
      </trkpt>
      <trkpt lat="45.04547" lon="6.30673">
        <ele>1500.2</ele>
        <time>2024-08-10T10:21:44Z</time>
      </trkpt>
      <trkpt lat="45.04547" lon="6.30673">
        <ele>1500.2</ele>
        <time>2024-08-10T10:21:45Z</time>
      </trkpt>
      <trkpt lat="45.04547" lon="6.30673">
        <ele>1500</ele>
        <time>2024-08-10T10:21:46Z</time>
      </trkpt>
      <trkpt lat="45.04547" lon="6.30673">
        <ele>1500</ele>
        <time>2024-08-10T10:21:47Z</time>
      </trkpt>
      <trkpt lat="45.04547" lon="6.30673">
        <ele>1499.8</ele>
        <time>2024-08-10T10:21:48Z</time>
      </trkpt>
      <trkpt lat="45.04547" lon="6.30673">
        <ele>1499.8</ele>
        <time>2024-08-10T10:21:49Z</time>
      </trkpt>
      <trkpt lat="45.04547" lon="6.30673">
        <ele>1500.2</ele>
        <time>2024-08-10T10:21:50Z</time>
      </trkpt>
      <trkpt lat="45.04547" lon="6.30673">
        <ele>1500.4</ele>
        <time>2024-08-10T10:21:51Z</time>
      </trkpt>
      <trkpt lat="45.04547" lon="6.30673">
        <ele>1500.4</ele>
        <time>2024-08-10T10:21:52Z</time>
      </trkpt>
      <trkpt lat="45.04545" lon="6.3067">
        <ele>1500.4</ele>
        <time>2024-08-10T10:21:53Z</time>
      </trkpt>
      <trkpt lat="45.04545" lon="6.3067">
        <ele>1500.4</ele>
        <time>2024-08-10T10:21:54Z</time>
      </trkpt>
      <trkpt lat="45.04545" lon="6.30667">
        <ele>1500.4</ele>
        <time>2024-08-10T10:21:55Z</time>
      </trkpt>
      <trkpt lat="45.04545" lon="6.30667">
        <ele>1500.4</ele>
        <time>2024-08-10T10:21:56Z</time>
      </trkpt>
      <trkpt lat="45.04545" lon="6.30667">
        <ele>1500.4</ele>
        <time>2024-08-10T10:21:57Z</time>
      </trkpt>
      <trkpt lat="45.04545" lon="6.30667">
        <ele>1500.2</ele>
        <time>2024-08-10T10:21:58Z</time>
      </trkpt>
      <trkpt lat="45.04545" lon="6.30667">
        <ele>1500.2</ele>
        <time>2024-08-10T10:21:59Z</time>
      </trkpt>
      <trkpt lat="45.04545" lon="6.30667">
        <ele>1500.4</ele>
        <time>2024-08-10T10:22:00Z</time>
      </trkpt>
      <trkpt lat="45.04546" lon="6.30664">
        <ele>1500.8</ele>
        <time>2024-08-10T10:22:01Z</time>
      </trkpt>
      <trkpt lat="45.04546" lon="6.30664">
        <ele>1501</ele>
        <time>2024-08-10T10:22:02Z</time>
      </trkpt>
      <trkpt lat="45.04548" lon="6.30661">
        <ele>1501.4</ele>
        <time>2024-08-10T10:22:03Z</time>
      </trkpt>
      <trkpt lat="45.04548" lon="6.30661">
        <ele>1501.4</ele>
        <time>2024-08-10T10:22:04Z</time>
      </trkpt>
      <trkpt lat="45.04549" lon="6.30658">
        <ele>1501.8</ele>
        <time>2024-08-10T10:22:05Z</time>
      </trkpt>
      <trkpt lat="45.04549" lon="6.30658">
        <ele>1502.2</ele>
        <time>2024-08-10T10:22:06Z</time>
      </trkpt>
      <trkpt lat="45.0455" lon="6.30655">
        <ele>1502.4</ele>
        <time>2024-08-10T10:22:07Z</time>
      </trkpt>
      <trkpt lat="45.0455" lon="6.30655">
        <ele>1502.6</ele>
        <time>2024-08-10T10:22:08Z</time>
      </trkpt>
      <trkpt lat="45.04551" lon="6.30653">
        <ele>1503.2</ele>
        <time>2024-08-10T10:22:09Z</time>
      </trkpt>
      <trkpt lat="45.04551" lon="6.30653">
        <ele>1503.6</ele>
        <time>2024-08-10T10:22:10Z</time>
      </trkpt>
      <trkpt lat="45.04551" lon="6.30653">
        <ele>1503.8</ele>
        <time>2024-08-10T10:22:11Z</time>
      </trkpt>
      <trkpt lat="45.04552" lon="6.3065">
        <ele>1503.8</ele>
        <time>2024-08-10T10:22:12Z</time>
      </trkpt>
      <trkpt lat="45.04552" lon="6.3065">
        <ele>1504</ele>
        <time>2024-08-10T10:22:13Z</time>
      </trkpt>
      <trkpt lat="45.04552" lon="6.30646">
        <ele>1504</ele>
        <time>2024-08-10T10:22:14Z</time>
      </trkpt>
      <trkpt lat="45.04552" lon="6.30646">
        <ele>1504</ele>
        <time>2024-08-10T10:22:15Z</time>
      </trkpt>
      <trkpt lat="45.04552" lon="6.30646">
        <ele>1504.4</ele>
        <time>2024-08-10T10:22:16Z</time>
      </trkpt>
      <trkpt lat="45.04553" lon="6.30643">
        <ele>1504.6</ele>
        <time>2024-08-10T10:22:17Z</time>
      </trkpt>
      <trkpt lat="45.04553" lon="6.30643">
        <ele>1504.8</ele>
        <time>2024-08-10T10:22:18Z</time>
      </trkpt>
      <trkpt lat="45.04554" lon="6.30641">
        <ele>1504.8</ele>
        <time>2024-08-10T10:22:19Z</time>
      </trkpt>
      <trkpt lat="45.04554" lon="6.30641">
        <ele>1504.8</ele>
        <time>2024-08-10T10:22:20Z</time>
      </trkpt>
      <trkpt lat="45.04554" lon="6.30641">
        <ele>1505.2</ele>
        <time>2024-08-10T10:22:21Z</time>
      </trkpt>
      <trkpt lat="45.04555" lon="6.30637">
        <ele>1505.2</ele>
        <time>2024-08-10T10:22:22Z</time>
      </trkpt>
      <trkpt lat="45.04555" lon="6.30637">
        <ele>1505.8</ele>
        <time>2024-08-10T10:22:23Z</time>
      </trkpt>
      <trkpt lat="45.04556" lon="6.30635">
        <ele>1506</ele>
        <time>2024-08-10T10:22:24Z</time>
      </trkpt>
      <trkpt lat="45.04556" lon="6.30635">
        <ele>1506.2</ele>
        <time>2024-08-10T10:22:25Z</time>
      </trkpt>
      <trkpt lat="45.04557" lon="6.30633">
        <ele>1506.4</ele>
        <time>2024-08-10T10:22:26Z</time>
      </trkpt>
      <trkpt lat="45.04557" lon="6.30633">
        <ele>1506.8</ele>
        <time>2024-08-10T10:22:27Z</time>
      </trkpt>
      <trkpt lat="45.04559" lon="6.30631">
        <ele>1507</ele>
        <time>2024-08-10T10:22:28Z</time>
      </trkpt>
      <trkpt lat="45.04559" lon="6.30631">
        <ele>1507.2</ele>
        <time>2024-08-10T10:22:29Z</time>
      </trkpt>
      <trkpt lat="45.0456" lon="6.30629">
        <ele>1507.6</ele>
        <time>2024-08-10T10:22:30Z</time>
      </trkpt>
      <trkpt lat="45.0456" lon="6.30629">
        <ele>1507.6</ele>
        <time>2024-08-10T10:22:31Z</time>
      </trkpt>
      <trkpt lat="45.0456" lon="6.30629">
        <ele>1508</ele>
        <time>2024-08-10T10:22:32Z</time>
      </trkpt>
      <trkpt lat="45.04562" lon="6.30627">
        <ele>1508</ele>
        <time>2024-08-10T10:22:33Z</time>
      </trkpt>
      <trkpt lat="45.04562" lon="6.30627">
        <ele>1508.6</ele>
        <time>2024-08-10T10:22:34Z</time>
      </trkpt>
      <trkpt lat="45.04562" lon="6.30627">
        <ele>1509</ele>
        <time>2024-08-10T10:22:35Z</time>
      </trkpt>
      <trkpt lat="45.04563" lon="6.30625">
        <ele>1509.2</ele>
        <time>2024-08-10T10:22:36Z</time>
      </trkpt>
      <trkpt lat="45.04563" lon="6.30625">
        <ele>1509.2</ele>
        <time>2024-08-10T10:22:37Z</time>
      </trkpt>
      <trkpt lat="45.04564" lon="6.30622">
        <ele>1509.2</ele>
        <time>2024-08-10T10:22:38Z</time>
      </trkpt>
      <trkpt lat="45.04564" lon="6.30622">
        <ele>1509.2</ele>
        <time>2024-08-10T10:22:39Z</time>
      </trkpt>
      <trkpt lat="45.04564" lon="6.30622">
        <ele>1509.6</ele>
        <time>2024-08-10T10:22:40Z</time>
      </trkpt>
      <trkpt lat="45.04564" lon="6.30619">
        <ele>1509.6</ele>
        <time>2024-08-10T10:22:41Z</time>
      </trkpt>
      <trkpt lat="45.04564" lon="6.30619">
        <ele>1510.2</ele>
        <time>2024-08-10T10:22:42Z</time>
      </trkpt>
      <trkpt lat="45.04564" lon="6.30619">
        <ele>1510.4</ele>
        <time>2024-08-10T10:22:43Z</time>
      </trkpt>
      <trkpt lat="45.04565" lon="6.30617">
        <ele>1510.6</ele>
        <time>2024-08-10T10:22:44Z</time>
      </trkpt>
      <trkpt lat="45.04565" lon="6.30617">
        <ele>1510.6</ele>
        <time>2024-08-10T10:22:45Z</time>
      </trkpt>
      <trkpt lat="45.04566" lon="6.30614">
        <ele>1510.8</ele>
        <time>2024-08-10T10:22:46Z</time>
      </trkpt>
      <trkpt lat="45.04566" lon="6.30614">
        <ele>1510.8</ele>
        <time>2024-08-10T10:22:47Z</time>
      </trkpt>
      <trkpt lat="45.04566" lon="6.30614">
        <ele>1510.6</ele>
        <time>2024-08-10T10:22:48Z</time>
      </trkpt>
      <trkpt lat="45.04568" lon="6.30612">
        <ele>1510.8</ele>
        <time>2024-08-10T10:22:49Z</time>
      </trkpt>
      <trkpt lat="45.04568" lon="6.30612">
        <ele>1510.8</ele>
        <time>2024-08-10T10:22:50Z</time>
      </trkpt>
      <trkpt lat="45.04568" lon="6.30612">
        <ele>1511.2</ele>
        <time>2024-08-10T10:22:51Z</time>
      </trkpt>
      <trkpt lat="45.04568" lon="6.30612">
        <ele>1511.2</ele>
        <time>2024-08-10T10:22:52Z</time>
      </trkpt>
      <trkpt lat="45.04569" lon="6.30609">
        <ele>1511.4</ele>
        <time>2024-08-10T10:22:53Z</time>
      </trkpt>
      <trkpt lat="45.04569" lon="6.30609">
        <ele>1512</ele>
        <time>2024-08-10T10:22:54Z</time>
      </trkpt>
      <trkpt lat="45.04569" lon="6.30609">
        <ele>1512</ele>
        <time>2024-08-10T10:22:55Z</time>
      </trkpt>
      <trkpt lat="45.0457" lon="6.30607">
        <ele>1512.2</ele>
        <time>2024-08-10T10:22:56Z</time>
      </trkpt>
      <trkpt lat="45.0457" lon="6.30607">
        <ele>1512.4</ele>
        <time>2024-08-10T10:22:57Z</time>
      </trkpt>
      <trkpt lat="45.0457" lon="6.30607">
        <ele>1512.4</ele>
        <time>2024-08-10T10:22:58Z</time>
      </trkpt>
      <trkpt lat="45.0457" lon="6.30607">
        <ele>1512.8</ele>
        <time>2024-08-10T10:22:59Z</time>
      </trkpt>
      <trkpt lat="45.04573" lon="6.30606">
        <ele>1512.8</ele>
        <time>2024-08-10T10:23:00Z</time>
      </trkpt>
      <trkpt lat="45.04573" lon="6.30606">
        <ele>1512.8</ele>
        <time>2024-08-10T10:23:01Z</time>
      </trkpt>
      <trkpt lat="45.04575" lon="6.30607">
        <ele>1513.2</ele>
        <time>2024-08-10T10:23:02Z</time>
      </trkpt>
      <trkpt lat="45.04575" lon="6.30607">
        <ele>1513.4</ele>
        <time>2024-08-10T10:23:03Z</time>
      </trkpt>
      <trkpt lat="45.04578" lon="6.30609">
        <ele>1513.4</ele>
        <time>2024-08-10T10:23:04Z</time>
      </trkpt>
      <trkpt lat="45.04578" lon="6.30609">
        <ele>1513.8</ele>
        <time>2024-08-10T10:23:05Z</time>
      </trkpt>
      <trkpt lat="45.0458" lon="6.30612">
        <ele>1513.8</ele>
        <time>2024-08-10T10:23:06Z</time>
      </trkpt>
      <trkpt lat="45.0458" lon="6.30612">
        <ele>1513.8</ele>
        <time>2024-08-10T10:23:07Z</time>
      </trkpt>
      <trkpt lat="45.04582" lon="6.30616">
        <ele>1513.6</ele>
        <time>2024-08-10T10:23:08Z</time>
      </trkpt>
      <trkpt lat="45.04582" lon="6.30616">
        <ele>1513.2</ele>
        <time>2024-08-10T10:23:09Z</time>
      </trkpt>
      <trkpt lat="45.04584" lon="6.30618">
        <ele>1513.2</ele>
        <time>2024-08-10T10:23:10Z</time>
      </trkpt>
      <trkpt lat="45.04584" lon="6.30618">
        <ele>1513.2</ele>
        <time>2024-08-10T10:23:11Z</time>
      </trkpt>
      <trkpt lat="45.04586" lon="6.3062">
        <ele>1513.4</ele>
        <time>2024-08-10T10:23:12Z</time>
      </trkpt>
      <trkpt lat="45.04586" lon="6.3062">
        <ele>1513.4</ele>
        <time>2024-08-10T10:23:13Z</time>
      </trkpt>
      <trkpt lat="45.04587" lon="6.30623">
        <ele>1513.4</ele>
        <time>2024-08-10T10:23:14Z</time>
      </trkpt>
      <trkpt lat="45.04587" lon="6.30623">
        <ele>1513.4</ele>
        <time>2024-08-10T10:23:15Z</time>
      </trkpt>
      <trkpt lat="45.04588" lon="6.30627">
        <ele>1513.4</ele>
        <time>2024-08-10T10:23:16Z</time>
      </trkpt>
      <trkpt lat="45.0459" lon="6.30629">
        <ele>1513.4</ele>
        <time>2024-08-10T10:23:17Z</time>
      </trkpt>
      <trkpt lat="45.0459" lon="6.30629">
        <ele>1513.2</ele>
        <time>2024-08-10T10:23:18Z</time>
      </trkpt>
      <trkpt lat="45.04592" lon="6.30632">
        <ele>1513</ele>
        <time>2024-08-10T10:23:19Z</time>
      </trkpt>
      <trkpt lat="45.04592" lon="6.30632">
        <ele>1513</ele>
        <time>2024-08-10T10:23:20Z</time>
      </trkpt>
      <trkpt lat="45.04595" lon="6.30634">
        <ele>1513.2</ele>
        <time>2024-08-10T10:23:21Z</time>
      </trkpt>
      <trkpt lat="45.04595" lon="6.30634">
        <ele>1513.2</ele>
        <time>2024-08-10T10:23:22Z</time>
      </trkpt>
      <trkpt lat="45.04597" lon="6.30638">
        <ele>1513.2</ele>
        <time>2024-08-10T10:23:23Z</time>
      </trkpt>
      <trkpt lat="45.04597" lon="6.30638">
        <ele>1513</ele>
        <time>2024-08-10T10:23:24Z</time>
      </trkpt>
      <trkpt lat="45.04599" lon="6.3064">
        <ele>1513</ele>
        <time>2024-08-10T10:23:25Z</time>
      </trkpt>
      <trkpt lat="45.04599" lon="6.3064">
        <ele>1513</ele>
        <time>2024-08-10T10:23:26Z</time>
      </trkpt>
      <trkpt lat="45.04603" lon="6.30643">
        <ele>1513.2</ele>
        <time>2024-08-10T10:23:27Z</time>
      </trkpt>
      <trkpt lat="45.04603" lon="6.30644">
        <ele>1513.2</ele>
        <time>2024-08-10T10:23:28Z</time>
      </trkpt>
      <trkpt lat="45.04604" lon="6.30646">
        <ele>1513.2</ele>
        <time>2024-08-10T10:23:29Z</time>
      </trkpt>
      <trkpt lat="45.04604" lon="6.30646">
        <ele>1513.2</ele>
        <time>2024-08-10T10:23:30Z</time>
      </trkpt>
      <trkpt lat="45.04605" lon="6.30647">
        <ele>1513.2</ele>
        <time>2024-08-10T10:23:31Z</time>
      </trkpt>
      <trkpt lat="45.04605" lon="6.30647">
        <ele>1513</ele>
        <time>2024-08-10T10:23:32Z</time>
      </trkpt>
      <trkpt lat="45.04607" lon="6.3065">
        <ele>1513</ele>
        <time>2024-08-10T10:23:33Z</time>
      </trkpt>
      <trkpt lat="45.04607" lon="6.3065">
        <ele>1513</ele>
        <time>2024-08-10T10:23:34Z</time>
      </trkpt>
      <trkpt lat="45.04607" lon="6.3065">
        <ele>1513</ele>
        <time>2024-08-10T10:23:35Z</time>
      </trkpt>
      <trkpt lat="45.04608" lon="6.30653">
        <ele>1513</ele>
        <time>2024-08-10T10:23:36Z</time>
      </trkpt>
      <trkpt lat="45.04608" lon="6.30653">
        <ele>1513</ele>
        <time>2024-08-10T10:23:37Z</time>
      </trkpt>
      <trkpt lat="45.0461" lon="6.30656">
        <ele>1513</ele>
        <time>2024-08-10T10:23:38Z</time>
      </trkpt>
      <trkpt lat="45.0461" lon="6.30656">
        <ele>1513</ele>
        <time>2024-08-10T10:23:39Z</time>
      </trkpt>
      <trkpt lat="45.04612" lon="6.30661">
        <ele>1513</ele>
        <time>2024-08-10T10:23:40Z</time>
      </trkpt>
      <trkpt lat="45.04613" lon="6.30663">
        <ele>1513</ele>
        <time>2024-08-10T10:23:41Z</time>
      </trkpt>
      <trkpt lat="45.04613" lon="6.30663">
        <ele>1512.8</ele>
        <time>2024-08-10T10:23:42Z</time>
      </trkpt>
      <trkpt lat="45.04616" lon="6.30666">
        <ele>1512.8</ele>
        <time>2024-08-10T10:23:43Z</time>
      </trkpt>
      <trkpt lat="45.04616" lon="6.30666">
        <ele>1512.8</ele>
        <time>2024-08-10T10:23:44Z</time>
      </trkpt>
      <trkpt lat="45.04618" lon="6.30668">
        <ele>1512.6</ele>
        <time>2024-08-10T10:23:45Z</time>
      </trkpt>
      <trkpt lat="45.04619" lon="6.3067">
        <ele>1512.6</ele>
        <time>2024-08-10T10:23:46Z</time>
      </trkpt>
      <trkpt lat="45.04619" lon="6.3067">
        <ele>1512.2</ele>
        <time>2024-08-10T10:23:47Z</time>
      </trkpt>
      <trkpt lat="45.04621" lon="6.30672">
        <ele>1512.2</ele>
        <time>2024-08-10T10:23:48Z</time>
      </trkpt>
      <trkpt lat="45.04621" lon="6.30672">
        <ele>1512.2</ele>
        <time>2024-08-10T10:23:49Z</time>
      </trkpt>
      <trkpt lat="45.04623" lon="6.30675">
        <ele>1512</ele>
        <time>2024-08-10T10:23:50Z</time>
      </trkpt>
      <trkpt lat="45.04623" lon="6.30675">
        <ele>1512</ele>
        <time>2024-08-10T10:23:51Z</time>
      </trkpt>
      <trkpt lat="45.04623" lon="6.30677">
        <ele>1512</ele>
        <time>2024-08-10T10:23:52Z</time>
      </trkpt>
      <trkpt lat="45.04623" lon="6.30677">
        <ele>1512</ele>
        <time>2024-08-10T10:23:53Z</time>
      </trkpt>
      <trkpt lat="45.04625" lon="6.3068">
        <ele>1511.8</ele>
        <time>2024-08-10T10:23:54Z</time>
      </trkpt>
      <trkpt lat="45.04625" lon="6.3068">
        <ele>1511.8</ele>
        <time>2024-08-10T10:23:55Z</time>
      </trkpt>
      <trkpt lat="45.04625" lon="6.30683">
        <ele>1511.8</ele>
        <time>2024-08-10T10:23:56Z</time>
      </trkpt>
      <trkpt lat="45.04625" lon="6.30683">
        <ele>1511.8</ele>
        <time>2024-08-10T10:23:57Z</time>
      </trkpt>
      <trkpt lat="45.04627" lon="6.30686">
        <ele>1511.6</ele>
        <time>2024-08-10T10:23:58Z</time>
      </trkpt>
      <trkpt lat="45.04627" lon="6.30686">
        <ele>1511.6</ele>
        <time>2024-08-10T10:23:59Z</time>
      </trkpt>
      <trkpt lat="45.04629" lon="6.30688">
        <ele>1511.4</ele>
        <time>2024-08-10T10:24:00Z</time>
      </trkpt>
      <trkpt lat="45.04629" lon="6.30688">
        <ele>1511</ele>
        <time>2024-08-10T10:24:01Z</time>
      </trkpt>
      <trkpt lat="45.04631" lon="6.30691">
        <ele>1510.8</ele>
        <time>2024-08-10T10:24:02Z</time>
      </trkpt>
      <trkpt lat="45.04631" lon="6.30691">
        <ele>1510.4</ele>
        <time>2024-08-10T10:24:03Z</time>
      </trkpt>
      <trkpt lat="45.04633" lon="6.30693">
        <ele>1510.4</ele>
        <time>2024-08-10T10:24:04Z</time>
      </trkpt>
      <trkpt lat="45.04633" lon="6.30693">
        <ele>1510.4</ele>
        <time>2024-08-10T10:24:05Z</time>
      </trkpt>
      <trkpt lat="45.04634" lon="6.30696">
        <ele>1510.4</ele>
        <time>2024-08-10T10:24:06Z</time>
      </trkpt>
      <trkpt lat="45.04634" lon="6.30696">
        <ele>1510.4</ele>
        <time>2024-08-10T10:24:07Z</time>
      </trkpt>
      <trkpt lat="45.04635" lon="6.30699">
        <ele>1510</ele>
        <time>2024-08-10T10:24:08Z</time>
      </trkpt>
      <trkpt lat="45.04636" lon="6.30701">
        <ele>1509.8</ele>
        <time>2024-08-10T10:24:09Z</time>
      </trkpt>
      <trkpt lat="45.04636" lon="6.30701">
        <ele>1509.6</ele>
        <time>2024-08-10T10:24:10Z</time>
      </trkpt>
      <trkpt lat="45.04637" lon="6.30705">
        <ele>1509.6</ele>
        <time>2024-08-10T10:24:11Z</time>
      </trkpt>
      <trkpt lat="45.04637" lon="6.30705">
        <ele>1509.4</ele>
        <time>2024-08-10T10:24:12Z</time>
      </trkpt>
      <trkpt lat="45.04639" lon="6.30709">
        <ele>1509.4</ele>
        <time>2024-08-10T10:24:13Z</time>
      </trkpt>
      <trkpt lat="45.04639" lon="6.30709">
        <ele>1509.4</ele>
        <time>2024-08-10T10:24:14Z</time>
      </trkpt>
      <trkpt lat="45.0464" lon="6.30712">
        <ele>1509.4</ele>
        <time>2024-08-10T10:24:15Z</time>
      </trkpt>
      <trkpt lat="45.0464" lon="6.30712">
        <ele>1509.2</ele>
        <time>2024-08-10T10:24:16Z</time>
      </trkpt>
      <trkpt lat="45.04643" lon="6.30714">
        <ele>1508.8</ele>
        <time>2024-08-10T10:24:17Z</time>
      </trkpt>
      <trkpt lat="45.04643" lon="6.30714">
        <ele>1508.6</ele>
        <time>2024-08-10T10:24:18Z</time>
      </trkpt>
      <trkpt lat="45.04644" lon="6.30716">
        <ele>1508.6</ele>
        <time>2024-08-10T10:24:19Z</time>
      </trkpt>
      <trkpt lat="45.04644" lon="6.30716">
        <ele>1508.2</ele>
        <time>2024-08-10T10:24:20Z</time>
      </trkpt>
      <trkpt lat="45.04645" lon="6.30719">
        <ele>1508.2</ele>
        <time>2024-08-10T10:24:21Z</time>
      </trkpt>
      <trkpt lat="45.04645" lon="6.30719">
        <ele>1508.4</ele>
        <time>2024-08-10T10:24:22Z</time>
      </trkpt>
      <trkpt lat="45.04647" lon="6.30723">
        <ele>1508.4</ele>
        <time>2024-08-10T10:24:23Z</time>
      </trkpt>
      <trkpt lat="45.04647" lon="6.30723">
        <ele>1508.2</ele>
        <time>2024-08-10T10:24:24Z</time>
      </trkpt>
      <trkpt lat="45.04648" lon="6.30727">
        <ele>1508</ele>
        <time>2024-08-10T10:24:25Z</time>
      </trkpt>
      <trkpt lat="45.04648" lon="6.30727">
        <ele>1507.8</ele>
        <time>2024-08-10T10:24:26Z</time>
      </trkpt>
      <trkpt lat="45.0465" lon="6.30731">
        <ele>1507.8</ele>
        <time>2024-08-10T10:24:27Z</time>
      </trkpt>
      <trkpt lat="45.0465" lon="6.30731">
        <ele>1507.8</ele>
        <time>2024-08-10T10:24:28Z</time>
      </trkpt>
      <trkpt lat="45.04651" lon="6.30734">
        <ele>1507.8</ele>
        <time>2024-08-10T10:24:29Z</time>
      </trkpt>
      <trkpt lat="45.04651" lon="6.30734">
        <ele>1507.8</ele>
        <time>2024-08-10T10:24:30Z</time>
      </trkpt>
      <trkpt lat="45.04651" lon="6.30737">
        <ele>1507.8</ele>
        <time>2024-08-10T10:24:31Z</time>
      </trkpt>
      <trkpt lat="45.04651" lon="6.30737">
        <ele>1507.6</ele>
        <time>2024-08-10T10:24:32Z</time>
      </trkpt>
      <trkpt lat="45.04651" lon="6.30741">
        <ele>1507.6</ele>
        <time>2024-08-10T10:24:33Z</time>
      </trkpt>
      <trkpt lat="45.0465" lon="6.30744">
        <ele>1507.6</ele>
        <time>2024-08-10T10:24:34Z</time>
      </trkpt>
      <trkpt lat="45.0465" lon="6.30744">
        <ele>1507.6</ele>
        <time>2024-08-10T10:24:35Z</time>
      </trkpt>
      <trkpt lat="45.0465" lon="6.30748">
        <ele>1507.6</ele>
        <time>2024-08-10T10:24:36Z</time>
      </trkpt>
      <trkpt lat="45.0465" lon="6.30748">
        <ele>1507.4</ele>
        <time>2024-08-10T10:24:37Z</time>
      </trkpt>
      <trkpt lat="45.0465" lon="6.30748">
        <ele>1507</ele>
        <time>2024-08-10T10:24:38Z</time>
      </trkpt>
      <trkpt lat="45.0465" lon="6.30748">
        <ele>1506.6</ele>
        <time>2024-08-10T10:24:39Z</time>
      </trkpt>
      <trkpt lat="45.0465" lon="6.30748">
        <ele>1506.6</ele>
        <time>2024-08-10T10:24:40Z</time>
      </trkpt>
      <trkpt lat="45.0465" lon="6.30748">
        <ele>1506.6</ele>
        <time>2024-08-10T10:24:41Z</time>
      </trkpt>
      <trkpt lat="45.0465" lon="6.30748">
        <ele>1506.4</ele>
        <time>2024-08-10T10:24:42Z</time>
      </trkpt>
      <trkpt lat="45.0465" lon="6.30748">
        <ele>1506.4</ele>
        <time>2024-08-10T10:24:43Z</time>
      </trkpt>
      <trkpt lat="45.0465" lon="6.30748">
        <ele>1506.2</ele>
        <time>2024-08-10T10:24:44Z</time>
      </trkpt>
      <trkpt lat="45.0465" lon="6.30748">
        <ele>1506.2</ele>
        <time>2024-08-10T10:24:45Z</time>
      </trkpt>
      <trkpt lat="45.0465" lon="6.30748">
        <ele>1506.2</ele>
        <time>2024-08-10T10:24:46Z</time>
      </trkpt>
      <trkpt lat="45.0465" lon="6.30748">
        <ele>1506.2</ele>
        <time>2024-08-10T10:24:47Z</time>
      </trkpt>
      <trkpt lat="45.0465" lon="6.30748">
        <ele>1506</ele>
        <time>2024-08-10T10:24:48Z</time>
      </trkpt>
      <trkpt lat="45.0465" lon="6.30748">
        <ele>1505.8</ele>
        <time>2024-08-10T10:24:49Z</time>
      </trkpt>
      <trkpt lat="45.0465" lon="6.30748">
        <ele>1505.6</ele>
        <time>2024-08-10T10:24:50Z</time>
      </trkpt>
      <trkpt lat="45.0465" lon="6.30748">
        <ele>1505.6</ele>
        <time>2024-08-10T10:24:51Z</time>
      </trkpt>
      <trkpt lat="45.04653" lon="6.30778">
        <ele>1505.4</ele>
        <time>2024-08-10T10:24:52Z</time>
      </trkpt>
      <trkpt lat="45.04653" lon="6.30778">
        <ele>1505.4</ele>
        <time>2024-08-10T10:24:53Z</time>
      </trkpt>
      <trkpt lat="45.04654" lon="6.30782">
        <ele>1505.4</ele>
        <time>2024-08-10T10:24:54Z</time>
      </trkpt>
      <trkpt lat="45.04654" lon="6.30782">
        <ele>1505.4</ele>
        <time>2024-08-10T10:24:55Z</time>
      </trkpt>
      <trkpt lat="45.04654" lon="6.30785">
        <ele>1505.4</ele>
        <time>2024-08-10T10:24:56Z</time>
      </trkpt>
      <trkpt lat="45.04654" lon="6.30785">
        <ele>1505.2</ele>
        <time>2024-08-10T10:24:57Z</time>
      </trkpt>
      <trkpt lat="45.04654" lon="6.30788">
        <ele>1505</ele>
        <time>2024-08-10T10:24:58Z</time>
      </trkpt>
      <trkpt lat="45.04654" lon="6.30788">
        <ele>1505</ele>
        <time>2024-08-10T10:24:59Z</time>
      </trkpt>
      <trkpt lat="45.04655" lon="6.30792">
        <ele>1504.8</ele>
        <time>2024-08-10T10:25:00Z</time>
      </trkpt>
      <trkpt lat="45.04655" lon="6.30792">
        <ele>1504.8</ele>
        <time>2024-08-10T10:25:01Z</time>
      </trkpt>
      <trkpt lat="45.04655" lon="6.30796">
        <ele>1504.8</ele>
        <time>2024-08-10T10:25:02Z</time>
      </trkpt>
      <trkpt lat="45.04655" lon="6.30796">
        <ele>1504.4</ele>
        <time>2024-08-10T10:25:03Z</time>
      </trkpt>
      <trkpt lat="45.04656" lon="6.308">
        <ele>1504.4</ele>
        <time>2024-08-10T10:25:04Z</time>
      </trkpt>
      <trkpt lat="45.04656" lon="6.308">
        <ele>1504.2</ele>
        <time>2024-08-10T10:25:05Z</time>
      </trkpt>
      <trkpt lat="45.04657" lon="6.30804">
        <ele>1504.2</ele>
        <time>2024-08-10T10:25:06Z</time>
      </trkpt>
      <trkpt lat="45.04657" lon="6.30804">
        <ele>1503.8</ele>
        <time>2024-08-10T10:25:07Z</time>
      </trkpt>
      <trkpt lat="45.04655" lon="6.30807">
        <ele>1503.4</ele>
        <time>2024-08-10T10:25:08Z</time>
      </trkpt>
      <trkpt lat="45.04653" lon="6.30808">
        <ele>1503.4</ele>
        <time>2024-08-10T10:25:09Z</time>
      </trkpt>
      <trkpt lat="45.04653" lon="6.30808">
        <ele>1503.4</ele>
        <time>2024-08-10T10:25:10Z</time>
      </trkpt>
      <trkpt lat="45.04651" lon="6.3081">
        <ele>1503</ele>
        <time>2024-08-10T10:25:11Z</time>
      </trkpt>
      <trkpt lat="45.04651" lon="6.3081">
        <ele>1502.8</ele>
        <time>2024-08-10T10:25:12Z</time>
      </trkpt>
      <trkpt lat="45.04648" lon="6.30812">
        <ele>1502.6</ele>
        <time>2024-08-10T10:25:13Z</time>
      </trkpt>
      <trkpt lat="45.04647" lon="6.30814">
        <ele>1502.6</ele>
        <time>2024-08-10T10:25:14Z</time>
      </trkpt>
      <trkpt lat="45.04647" lon="6.30814">
        <ele>1502.6</ele>
        <time>2024-08-10T10:25:15Z</time>
      </trkpt>
      <trkpt lat="45.04645" lon="6.30818">
        <ele>1502</ele>
        <time>2024-08-10T10:25:16Z</time>
      </trkpt>
      <trkpt lat="45.04645" lon="6.30818">
        <ele>1501.8</ele>
        <time>2024-08-10T10:25:17Z</time>
      </trkpt>
      <trkpt lat="45.04644" lon="6.30822">
        <ele>1501.8</ele>
        <time>2024-08-10T10:25:18Z</time>
      </trkpt>
      <trkpt lat="45.04644" lon="6.30822">
        <ele>1501.8</ele>
        <time>2024-08-10T10:25:19Z</time>
      </trkpt>
      <trkpt lat="45.04643" lon="6.30826">
        <ele>1501.6</ele>
        <time>2024-08-10T10:25:20Z</time>
      </trkpt>
      <trkpt lat="45.04643" lon="6.30826">
        <ele>1501.4</ele>
        <time>2024-08-10T10:25:21Z</time>
      </trkpt>
      <trkpt lat="45.04643" lon="6.3083">
        <ele>1501.2</ele>
        <time>2024-08-10T10:25:22Z</time>
      </trkpt>
      <trkpt lat="45.04643" lon="6.3083">
        <ele>1501.2</ele>
        <time>2024-08-10T10:25:23Z</time>
      </trkpt>
      <trkpt lat="45.04643" lon="6.30834">
        <ele>1501</ele>
        <time>2024-08-10T10:25:24Z</time>
      </trkpt>
      <trkpt lat="45.04643" lon="6.30834">
        <ele>1500.6</ele>
        <time>2024-08-10T10:25:25Z</time>
      </trkpt>
      <trkpt lat="45.04644" lon="6.30838">
        <ele>1500.4</ele>
        <time>2024-08-10T10:25:26Z</time>
      </trkpt>
      <trkpt lat="45.04644" lon="6.30838">
        <ele>1500.4</ele>
        <time>2024-08-10T10:25:27Z</time>
      </trkpt>
      <trkpt lat="45.04645" lon="6.30842">
        <ele>1500.2</ele>
        <time>2024-08-10T10:25:28Z</time>
      </trkpt>
      <trkpt lat="45.04645" lon="6.30842">
        <ele>1500</ele>
        <time>2024-08-10T10:25:29Z</time>
      </trkpt>
      <trkpt lat="45.04645" lon="6.30846">
        <ele>1500</ele>
        <time>2024-08-10T10:25:30Z</time>
      </trkpt>
      <trkpt lat="45.04645" lon="6.30846">
        <ele>1500</ele>
        <time>2024-08-10T10:25:31Z</time>
      </trkpt>
      <trkpt lat="45.04646" lon="6.3085">
        <ele>1499.8</ele>
        <time>2024-08-10T10:25:32Z</time>
      </trkpt>
      <trkpt lat="45.04646" lon="6.3085">
        <ele>1499.6</ele>
        <time>2024-08-10T10:25:33Z</time>
      </trkpt>
      <trkpt lat="45.04646" lon="6.30854">
        <ele>1499.4</ele>
        <time>2024-08-10T10:25:34Z</time>
      </trkpt>
      <trkpt lat="45.04646" lon="6.30854">
        <ele>1499.2</ele>
        <time>2024-08-10T10:25:35Z</time>
      </trkpt>
      <trkpt lat="45.04646" lon="6.30858">
        <ele>1499.2</ele>
        <time>2024-08-10T10:25:36Z</time>
      </trkpt>
      <trkpt lat="45.04646" lon="6.30858">
        <ele>1499</ele>
        <time>2024-08-10T10:25:37Z</time>
      </trkpt>
      <trkpt lat="45.04646" lon="6.30863">
        <ele>1499</ele>
        <time>2024-08-10T10:25:38Z</time>
      </trkpt>
      <trkpt lat="45.04646" lon="6.30863">
        <ele>1499</ele>
        <time>2024-08-10T10:25:39Z</time>
      </trkpt>
      <trkpt lat="45.04646" lon="6.30867">
        <ele>1499.2</ele>
        <time>2024-08-10T10:25:40Z</time>
      </trkpt>
      <trkpt lat="45.04646" lon="6.30867">
        <ele>1499.4</ele>
        <time>2024-08-10T10:25:41Z</time>
      </trkpt>
      <trkpt lat="45.04646" lon="6.30871">
        <ele>1499.4</ele>
        <time>2024-08-10T10:25:42Z</time>
      </trkpt>
      <trkpt lat="45.04646" lon="6.30871">
        <ele>1499.4</ele>
        <time>2024-08-10T10:25:43Z</time>
      </trkpt>
      <trkpt lat="45.04647" lon="6.30875">
        <ele>1499.2</ele>
        <time>2024-08-10T10:25:44Z</time>
      </trkpt>
      <trkpt lat="45.04647" lon="6.30875">
        <ele>1499.2</ele>
        <time>2024-08-10T10:25:45Z</time>
      </trkpt>
      <trkpt lat="45.04648" lon="6.3088">
        <ele>1499.2</ele>
        <time>2024-08-10T10:25:46Z</time>
      </trkpt>
      <trkpt lat="45.04648" lon="6.3088">
        <ele>1499</ele>
        <time>2024-08-10T10:25:47Z</time>
      </trkpt>
      <trkpt lat="45.04649" lon="6.30884">
        <ele>1499</ele>
        <time>2024-08-10T10:25:48Z</time>
      </trkpt>
      <trkpt lat="45.04649" lon="6.30884">
        <ele>1498.8</ele>
        <time>2024-08-10T10:25:49Z</time>
      </trkpt>
      <trkpt lat="45.04649" lon="6.30888">
        <ele>1498.8</ele>
        <time>2024-08-10T10:25:50Z</time>
      </trkpt>
      <trkpt lat="45.04649" lon="6.30888">
        <ele>1498.6</ele>
        <time>2024-08-10T10:25:51Z</time>
      </trkpt>
      <trkpt lat="45.04649" lon="6.30892">
        <ele>1498.6</ele>
        <time>2024-08-10T10:25:52Z</time>
      </trkpt>
      <trkpt lat="45.04649" lon="6.30892">
        <ele>1498.4</ele>
        <time>2024-08-10T10:25:53Z</time>
      </trkpt>
      <trkpt lat="45.04649" lon="6.30895">
        <ele>1498.2</ele>
        <time>2024-08-10T10:25:54Z</time>
      </trkpt>
      <trkpt lat="45.04649" lon="6.30895">
        <ele>1498</ele>
        <time>2024-08-10T10:25:55Z</time>
      </trkpt>
      <trkpt lat="45.0465" lon="6.30899">
        <ele>1498</ele>
        <time>2024-08-10T10:25:56Z</time>
      </trkpt>
      <trkpt lat="45.0465" lon="6.30899">
        <ele>1498</ele>
        <time>2024-08-10T10:25:57Z</time>
      </trkpt>
      <trkpt lat="45.04651" lon="6.30904">
        <ele>1497.8</ele>
        <time>2024-08-10T10:25:58Z</time>
      </trkpt>
      <trkpt lat="45.04651" lon="6.30904">
        <ele>1497.4</ele>
        <time>2024-08-10T10:25:59Z</time>
      </trkpt>
      <trkpt lat="45.04651" lon="6.30907">
        <ele>1497.4</ele>
        <time>2024-08-10T10:26:00Z</time>
      </trkpt>
      <trkpt lat="45.04651" lon="6.30907">
        <ele>1497.4</ele>
        <time>2024-08-10T10:26:01Z</time>
      </trkpt>
      <trkpt lat="45.04651" lon="6.30911">
        <ele>1497.4</ele>
        <time>2024-08-10T10:26:02Z</time>
      </trkpt>
      <trkpt lat="45.04651" lon="6.30911">
        <ele>1497.4</ele>
        <time>2024-08-10T10:26:03Z</time>
      </trkpt>
      <trkpt lat="45.04652" lon="6.30916">
        <ele>1497.4</ele>
        <time>2024-08-10T10:26:04Z</time>
      </trkpt>
      <trkpt lat="45.04652" lon="6.30916">
        <ele>1497.2</ele>
        <time>2024-08-10T10:26:05Z</time>
      </trkpt>
      <trkpt lat="45.04651" lon="6.3092">
        <ele>1497.2</ele>
        <time>2024-08-10T10:26:06Z</time>
      </trkpt>
      <trkpt lat="45.04651" lon="6.3092">
        <ele>1497.2</ele>
        <time>2024-08-10T10:26:07Z</time>
      </trkpt>
      <trkpt lat="45.04651" lon="6.30923">
        <ele>1497</ele>
        <time>2024-08-10T10:26:08Z</time>
      </trkpt>
      <trkpt lat="45.04651" lon="6.30923">
        <ele>1497</ele>
        <time>2024-08-10T10:26:09Z</time>
      </trkpt>
      <trkpt lat="45.04651" lon="6.30928">
        <ele>1497</ele>
        <time>2024-08-10T10:26:10Z</time>
      </trkpt>
      <trkpt lat="45.04651" lon="6.30928">
        <ele>1496.8</ele>
        <time>2024-08-10T10:26:11Z</time>
      </trkpt>
      <trkpt lat="45.04651" lon="6.30932">
        <ele>1496.6</ele>
        <time>2024-08-10T10:26:12Z</time>
      </trkpt>
      <trkpt lat="45.04651" lon="6.30932">
        <ele>1496.2</ele>
        <time>2024-08-10T10:26:13Z</time>
      </trkpt>
      <trkpt lat="45.04649" lon="6.30935">
        <ele>1496.2</ele>
        <time>2024-08-10T10:26:14Z</time>
      </trkpt>
      <trkpt lat="45.04649" lon="6.30935">
        <ele>1496</ele>
        <time>2024-08-10T10:26:15Z</time>
      </trkpt>
      <trkpt lat="45.04649" lon="6.30939">
        <ele>1496</ele>
        <time>2024-08-10T10:26:16Z</time>
      </trkpt>
      <trkpt lat="45.04649" lon="6.30939">
        <ele>1496</ele>
        <time>2024-08-10T10:26:17Z</time>
      </trkpt>
      <trkpt lat="45.04649" lon="6.30943">
        <ele>1496</ele>
        <time>2024-08-10T10:26:18Z</time>
      </trkpt>
      <trkpt lat="45.04649" lon="6.30943">
        <ele>1496</ele>
        <time>2024-08-10T10:26:19Z</time>
      </trkpt>
      <trkpt lat="45.04649" lon="6.30947">
        <ele>1495.8</ele>
        <time>2024-08-10T10:26:20Z</time>
      </trkpt>
      <trkpt lat="45.04649" lon="6.30947">
        <ele>1495.6</ele>
        <time>2024-08-10T10:26:21Z</time>
      </trkpt>
      <trkpt lat="45.04649" lon="6.3095">
        <ele>1495.4</ele>
        <time>2024-08-10T10:26:22Z</time>
      </trkpt>
      <trkpt lat="45.04649" lon="6.3095">
        <ele>1495.4</ele>
        <time>2024-08-10T10:26:23Z</time>
      </trkpt>
      <trkpt lat="45.0465" lon="6.30954">
        <ele>1495.2</ele>
        <time>2024-08-10T10:26:24Z</time>
      </trkpt>
      <trkpt lat="45.0465" lon="6.30954">
        <ele>1495.2</ele>
        <time>2024-08-10T10:26:25Z</time>
      </trkpt>
      <trkpt lat="45.04651" lon="6.30958">
        <ele>1494.8</ele>
        <time>2024-08-10T10:26:26Z</time>
      </trkpt>
      <trkpt lat="45.04651" lon="6.30958">
        <ele>1494.8</ele>
        <time>2024-08-10T10:26:27Z</time>
      </trkpt>
      <trkpt lat="45.04651" lon="6.30962">
        <ele>1494.6</ele>
        <time>2024-08-10T10:26:28Z</time>
      </trkpt>
      <trkpt lat="45.04651" lon="6.30962">
        <ele>1494.6</ele>
        <time>2024-08-10T10:26:29Z</time>
      </trkpt>
      <trkpt lat="45.04651" lon="6.30965">
        <ele>1494.6</ele>
        <time>2024-08-10T10:26:30Z</time>
      </trkpt>
      <trkpt lat="45.04651" lon="6.30965">
        <ele>1494.6</ele>
        <time>2024-08-10T10:26:31Z</time>
      </trkpt>
      <trkpt lat="45.0465" lon="6.30969">
        <ele>1494.4</ele>
        <time>2024-08-10T10:26:32Z</time>
      </trkpt>
      <trkpt lat="45.0465" lon="6.30969">
        <ele>1494.4</ele>
        <time>2024-08-10T10:26:33Z</time>
      </trkpt>
      <trkpt lat="45.0465" lon="6.30973">
        <ele>1494.4</ele>
        <time>2024-08-10T10:26:34Z</time>
      </trkpt>
      <trkpt lat="45.0465" lon="6.30973">
        <ele>1494.2</ele>
        <time>2024-08-10T10:26:35Z</time>
      </trkpt>
      <trkpt lat="45.0465" lon="6.30977">
        <ele>1494</ele>
        <time>2024-08-10T10:26:36Z</time>
      </trkpt>
      <trkpt lat="45.0465" lon="6.30977">
        <ele>1493.8</ele>
        <time>2024-08-10T10:26:37Z</time>
      </trkpt>
      <trkpt lat="45.04651" lon="6.30982">
        <ele>1493.6</ele>
        <time>2024-08-10T10:26:38Z</time>
      </trkpt>
      <trkpt lat="45.04651" lon="6.30982">
        <ele>1493.6</ele>
        <time>2024-08-10T10:26:39Z</time>
      </trkpt>
      <trkpt lat="45.04651" lon="6.30986">
        <ele>1493.6</ele>
        <time>2024-08-10T10:26:40Z</time>
      </trkpt>
      <trkpt lat="45.04651" lon="6.30986">
        <ele>1493.4</ele>
        <time>2024-08-10T10:26:41Z</time>
      </trkpt>
      <trkpt lat="45.04651" lon="6.30989">
        <ele>1493.4</ele>
        <time>2024-08-10T10:26:42Z</time>
      </trkpt>
      <trkpt lat="45.04651" lon="6.30989">
        <ele>1493</ele>
        <time>2024-08-10T10:26:43Z</time>
      </trkpt>
      <trkpt lat="45.04651" lon="6.30993">
        <ele>1493</ele>
        <time>2024-08-10T10:26:44Z</time>
      </trkpt>
      <trkpt lat="45.04651" lon="6.30993">
        <ele>1492.8</ele>
        <time>2024-08-10T10:26:45Z</time>
      </trkpt>
      <trkpt lat="45.04651" lon="6.30997">
        <ele>1492.8</ele>
        <time>2024-08-10T10:26:46Z</time>
      </trkpt>
      <trkpt lat="45.04651" lon="6.30997">
        <ele>1492.8</ele>
        <time>2024-08-10T10:26:47Z</time>
      </trkpt>
      <trkpt lat="45.04651" lon="6.31">
        <ele>1492.6</ele>
        <time>2024-08-10T10:26:48Z</time>
      </trkpt>
      <trkpt lat="45.04651" lon="6.31">
        <ele>1492.6</ele>
        <time>2024-08-10T10:26:49Z</time>
      </trkpt>
      <trkpt lat="45.04651" lon="6.31005">
        <ele>1492.6</ele>
        <time>2024-08-10T10:26:50Z</time>
      </trkpt>
      <trkpt lat="45.04651" lon="6.31005">
        <ele>1492.6</ele>
        <time>2024-08-10T10:26:51Z</time>
      </trkpt>
      <trkpt lat="45.04651" lon="6.31009">
        <ele>1492.6</ele>
        <time>2024-08-10T10:26:52Z</time>
      </trkpt>
      <trkpt lat="45.04651" lon="6.31009">
        <ele>1492.4</ele>
        <time>2024-08-10T10:26:53Z</time>
      </trkpt>
      <trkpt lat="45.04652" lon="6.31013">
        <ele>1492.2</ele>
        <time>2024-08-10T10:26:54Z</time>
      </trkpt>
      <trkpt lat="45.04652" lon="6.31013">
        <ele>1492</ele>
        <time>2024-08-10T10:26:55Z</time>
      </trkpt>
      <trkpt lat="45.04653" lon="6.31017">
        <ele>1492</ele>
        <time>2024-08-10T10:26:56Z</time>
      </trkpt>
      <trkpt lat="45.04653" lon="6.31017">
        <ele>1491.8</ele>
        <time>2024-08-10T10:26:57Z</time>
      </trkpt>
      <trkpt lat="45.04653" lon="6.31021">
        <ele>1491.8</ele>
        <time>2024-08-10T10:26:58Z</time>
      </trkpt>
      <trkpt lat="45.04653" lon="6.31021">
        <ele>1491.8</ele>
        <time>2024-08-10T10:26:59Z</time>
      </trkpt>
      <trkpt lat="45.04653" lon="6.31025">
        <ele>1491.8</ele>
        <time>2024-08-10T10:27:00Z</time>
      </trkpt>
      <trkpt lat="45.04653" lon="6.31025">
        <ele>1491.6</ele>
        <time>2024-08-10T10:27:01Z</time>
      </trkpt>
      <trkpt lat="45.04653" lon="6.31029">
        <ele>1491.2</ele>
        <time>2024-08-10T10:27:02Z</time>
      </trkpt>
      <trkpt lat="45.04653" lon="6.31029">
        <ele>1491.4</ele>
        <time>2024-08-10T10:27:03Z</time>
      </trkpt>
      <trkpt lat="45.04653" lon="6.31033">
        <ele>1491.4</ele>
        <time>2024-08-10T10:27:04Z</time>
      </trkpt>
      <trkpt lat="45.04653" lon="6.31033">
        <ele>1491.2</ele>
        <time>2024-08-10T10:27:05Z</time>
      </trkpt>
      <trkpt lat="45.04653" lon="6.31038">
        <ele>1491</ele>
        <time>2024-08-10T10:27:06Z</time>
      </trkpt>
      <trkpt lat="45.04653" lon="6.31038">
        <ele>1491</ele>
        <time>2024-08-10T10:27:07Z</time>
      </trkpt>
      <trkpt lat="45.04652" lon="6.31041">
        <ele>1491</ele>
        <time>2024-08-10T10:27:08Z</time>
      </trkpt>
      <trkpt lat="45.04652" lon="6.31041">
        <ele>1491</ele>
        <time>2024-08-10T10:27:09Z</time>
      </trkpt>
      <trkpt lat="45.04652" lon="6.31045">
        <ele>1490.8</ele>
        <time>2024-08-10T10:27:10Z</time>
      </trkpt>
      <trkpt lat="45.04652" lon="6.31045">
        <ele>1490.8</ele>
        <time>2024-08-10T10:27:11Z</time>
      </trkpt>
      <trkpt lat="45.04651" lon="6.31049">
        <ele>1490.6</ele>
        <time>2024-08-10T10:27:12Z</time>
      </trkpt>
      <trkpt lat="45.04651" lon="6.31049">
        <ele>1490.6</ele>
        <time>2024-08-10T10:27:13Z</time>
      </trkpt>
      <trkpt lat="45.04651" lon="6.31053">
        <ele>1490.6</ele>
        <time>2024-08-10T10:27:14Z</time>
      </trkpt>
      <trkpt lat="45.04651" lon="6.31053">
        <ele>1490.4</ele>
        <time>2024-08-10T10:27:15Z</time>
      </trkpt>
      <trkpt lat="45.04651" lon="6.31057">
        <ele>1490.4</ele>
        <time>2024-08-10T10:27:16Z</time>
      </trkpt>
      <trkpt lat="45.04651" lon="6.31057">
        <ele>1490.2</ele>
        <time>2024-08-10T10:27:17Z</time>
      </trkpt>
      <trkpt lat="45.04649" lon="6.3106">
        <ele>1490.2</ele>
        <time>2024-08-10T10:27:18Z</time>
      </trkpt>
      <trkpt lat="45.04649" lon="6.3106">
        <ele>1490</ele>
        <time>2024-08-10T10:27:19Z</time>
      </trkpt>
      <trkpt lat="45.04649" lon="6.31064">
        <ele>1490</ele>
        <time>2024-08-10T10:27:20Z</time>
      </trkpt>
      <trkpt lat="45.04649" lon="6.31064">
        <ele>1489.8</ele>
        <time>2024-08-10T10:27:21Z</time>
      </trkpt>
      <trkpt lat="45.04649" lon="6.31068">
        <ele>1489.6</ele>
        <time>2024-08-10T10:27:22Z</time>
      </trkpt>
      <trkpt lat="45.04649" lon="6.31068">
        <ele>1489.6</ele>
        <time>2024-08-10T10:27:23Z</time>
      </trkpt>
      <trkpt lat="45.04648" lon="6.31072">
        <ele>1489.6</ele>
        <time>2024-08-10T10:27:24Z</time>
      </trkpt>
      <trkpt lat="45.04648" lon="6.31072">
        <ele>1489.4</ele>
        <time>2024-08-10T10:27:25Z</time>
      </trkpt>
      <trkpt lat="45.04647" lon="6.31077">
        <ele>1489.4</ele>
        <time>2024-08-10T10:27:26Z</time>
      </trkpt>
      <trkpt lat="45.04647" lon="6.31077">
        <ele>1489.2</ele>
        <time>2024-08-10T10:27:27Z</time>
      </trkpt>
      <trkpt lat="45.04647" lon="6.3108">
        <ele>1489.2</ele>
        <time>2024-08-10T10:27:28Z</time>
      </trkpt>
      <trkpt lat="45.04647" lon="6.3108">
        <ele>1489.2</ele>
        <time>2024-08-10T10:27:29Z</time>
      </trkpt>
      <trkpt lat="45.04646" lon="6.31084">
        <ele>1488.8</ele>
        <time>2024-08-10T10:27:30Z</time>
      </trkpt>
      <trkpt lat="45.04646" lon="6.31084">
        <ele>1488.8</ele>
        <time>2024-08-10T10:27:31Z</time>
      </trkpt>
      <trkpt lat="45.04645" lon="6.31088">
        <ele>1488.6</ele>
        <time>2024-08-10T10:27:32Z</time>
      </trkpt>
      <trkpt lat="45.04645" lon="6.31088">
        <ele>1488.6</ele>
        <time>2024-08-10T10:27:33Z</time>
      </trkpt>
      <trkpt lat="45.04645" lon="6.31091">
        <ele>1488.6</ele>
        <time>2024-08-10T10:27:34Z</time>
      </trkpt>
      <trkpt lat="45.04645" lon="6.31091">
        <ele>1488.6</ele>
        <time>2024-08-10T10:27:35Z</time>
      </trkpt>
      <trkpt lat="45.04645" lon="6.31095">
        <ele>1488.4</ele>
        <time>2024-08-10T10:27:36Z</time>
      </trkpt>
      <trkpt lat="45.04645" lon="6.31095">
        <ele>1488.2</ele>
        <time>2024-08-10T10:27:37Z</time>
      </trkpt>
      <trkpt lat="45.04645" lon="6.31099">
        <ele>1488.2</ele>
        <time>2024-08-10T10:27:38Z</time>
      </trkpt>
      <trkpt lat="45.04645" lon="6.31099">
        <ele>1488</ele>
        <time>2024-08-10T10:27:39Z</time>
      </trkpt>
      <trkpt lat="45.04645" lon="6.31102">
        <ele>1488</ele>
        <time>2024-08-10T10:27:40Z</time>
      </trkpt>
      <trkpt lat="45.04645" lon="6.31102">
        <ele>1487.6</ele>
        <time>2024-08-10T10:27:41Z</time>
      </trkpt>
      <trkpt lat="45.04645" lon="6.31106">
        <ele>1487.6</ele>
        <time>2024-08-10T10:27:42Z</time>
      </trkpt>
      <trkpt lat="45.04645" lon="6.31106">
        <ele>1488</ele>
        <time>2024-08-10T10:27:43Z</time>
      </trkpt>
      <trkpt lat="45.04644" lon="6.31109">
        <ele>1488</ele>
        <time>2024-08-10T10:27:44Z</time>
      </trkpt>
      <trkpt lat="45.04643" lon="6.3111">
        <ele>1487.6</ele>
        <time>2024-08-10T10:27:45Z</time>
      </trkpt>
      <trkpt lat="45.04641" lon="6.31111">
        <ele>1487.4</ele>
        <time>2024-08-10T10:27:46Z</time>
      </trkpt>
      <trkpt lat="45.04639" lon="6.31113">
        <ele>1487.2</ele>
        <time>2024-08-10T10:27:47Z</time>
      </trkpt>
      <trkpt lat="45.04637" lon="6.31115">
        <ele>1487.2</ele>
        <time>2024-08-10T10:27:48Z</time>
      </trkpt>
      <trkpt lat="45.04637" lon="6.31115">
        <ele>1487.2</ele>
        <time>2024-08-10T10:27:49Z</time>
      </trkpt>
      <trkpt lat="45.04637" lon="6.31119">
        <ele>1487</ele>
        <time>2024-08-10T10:27:50Z</time>
      </trkpt>
      <trkpt lat="45.04635" lon="6.31121">
        <ele>1486.8</ele>
        <time>2024-08-10T10:27:51Z</time>
      </trkpt>
      <trkpt lat="45.04633" lon="6.31122">
        <ele>1486.8</ele>
        <time>2024-08-10T10:27:52Z</time>
      </trkpt>
      <trkpt lat="45.04632" lon="6.31124">
        <ele>1486.8</ele>
        <time>2024-08-10T10:27:53Z</time>
      </trkpt>
      <trkpt lat="45.04631" lon="6.31125">
        <ele>1486.6</ele>
        <time>2024-08-10T10:27:54Z</time>
      </trkpt>
      <trkpt lat="45.04631" lon="6.31125">
        <ele>1486.4</ele>
        <time>2024-08-10T10:27:55Z</time>
      </trkpt>
      <trkpt lat="45.04629" lon="6.31128">
        <ele>1486.2</ele>
        <time>2024-08-10T10:27:56Z</time>
      </trkpt>
      <trkpt lat="45.04629" lon="6.31128">
        <ele>1486.2</ele>
        <time>2024-08-10T10:27:57Z</time>
      </trkpt>
      <trkpt lat="45.04627" lon="6.31131">
        <ele>1486.2</ele>
        <time>2024-08-10T10:27:58Z</time>
      </trkpt>
      <trkpt lat="45.04627" lon="6.31131">
        <ele>1486.2</ele>
        <time>2024-08-10T10:27:59Z</time>
      </trkpt>
      <trkpt lat="45.04625" lon="6.31134">
        <ele>1486.2</ele>
        <time>2024-08-10T10:28:00Z</time>
      </trkpt>
      <trkpt lat="45.04625" lon="6.31134">
        <ele>1485.8</ele>
        <time>2024-08-10T10:28:01Z</time>
      </trkpt>
      <trkpt lat="45.04623" lon="6.31137">
        <ele>1485.6</ele>
        <time>2024-08-10T10:28:02Z</time>
      </trkpt>
      <trkpt lat="45.04623" lon="6.31137">
        <ele>1485.6</ele>
        <time>2024-08-10T10:28:03Z</time>
      </trkpt>
      <trkpt lat="45.04621" lon="6.3114">
        <ele>1485.6</ele>
        <time>2024-08-10T10:28:04Z</time>
      </trkpt>
      <trkpt lat="45.04621" lon="6.3114">
        <ele>1485.6</ele>
        <time>2024-08-10T10:28:05Z</time>
      </trkpt>
      <trkpt lat="45.0462" lon="6.31144">
        <ele>1485.4</ele>
        <time>2024-08-10T10:28:06Z</time>
      </trkpt>
      <trkpt lat="45.0462" lon="6.31144">
        <ele>1485.4</ele>
        <time>2024-08-10T10:28:07Z</time>
      </trkpt>
      <trkpt lat="45.04619" lon="6.31147">
        <ele>1485.4</ele>
        <time>2024-08-10T10:28:08Z</time>
      </trkpt>
      <trkpt lat="45.04619" lon="6.31147">
        <ele>1485.4</ele>
        <time>2024-08-10T10:28:09Z</time>
      </trkpt>
      <trkpt lat="45.04617" lon="6.31151">
        <ele>1485.2</ele>
        <time>2024-08-10T10:28:10Z</time>
      </trkpt>
      <trkpt lat="45.04617" lon="6.31151">
        <ele>1485.2</ele>
        <time>2024-08-10T10:28:11Z</time>
      </trkpt>
      <trkpt lat="45.04616" lon="6.31154">
        <ele>1484.8</ele>
        <time>2024-08-10T10:28:12Z</time>
      </trkpt>
      <trkpt lat="45.04616" lon="6.31154">
        <ele>1484.8</ele>
        <time>2024-08-10T10:28:13Z</time>
      </trkpt>
      <trkpt lat="45.04615" lon="6.31157">
        <ele>1484.6</ele>
        <time>2024-08-10T10:28:14Z</time>
      </trkpt>
      <trkpt lat="45.04615" lon="6.31157">
        <ele>1484.6</ele>
        <time>2024-08-10T10:28:15Z</time>
      </trkpt>
      <trkpt lat="45.04613" lon="6.3116">
        <ele>1484.6</ele>
        <time>2024-08-10T10:28:16Z</time>
      </trkpt>
      <trkpt lat="45.04613" lon="6.3116">
        <ele>1484.4</ele>
        <time>2024-08-10T10:28:17Z</time>
      </trkpt>
      <trkpt lat="45.04613" lon="6.31164">
        <ele>1484.4</ele>
        <time>2024-08-10T10:28:18Z</time>
      </trkpt>
      <trkpt lat="45.04613" lon="6.31164">
        <ele>1484</ele>
        <time>2024-08-10T10:28:19Z</time>
      </trkpt>
      <trkpt lat="45.04612" lon="6.31167">
        <ele>1483.8</ele>
        <time>2024-08-10T10:28:20Z</time>
      </trkpt>
      <trkpt lat="45.04612" lon="6.31167">
        <ele>1483.8</ele>
        <time>2024-08-10T10:28:21Z</time>
      </trkpt>
      <trkpt lat="45.04611" lon="6.3117">
        <ele>1483.6</ele>
        <time>2024-08-10T10:28:22Z</time>
      </trkpt>
      <trkpt lat="45.04611" lon="6.3117">
        <ele>1483.6</ele>
        <time>2024-08-10T10:28:23Z</time>
      </trkpt>
      <trkpt lat="45.04609" lon="6.31173">
        <ele>1483.4</ele>
        <time>2024-08-10T10:28:24Z</time>
      </trkpt>
      <trkpt lat="45.04609" lon="6.31173">
        <ele>1483.4</ele>
        <time>2024-08-10T10:28:25Z</time>
      </trkpt>
      <trkpt lat="45.04607" lon="6.31176">
        <ele>1483.4</ele>
        <time>2024-08-10T10:28:26Z</time>
      </trkpt>
      <trkpt lat="45.04607" lon="6.31176">
        <ele>1483.2</ele>
        <time>2024-08-10T10:28:27Z</time>
      </trkpt>
      <trkpt lat="45.04606" lon="6.31179">
        <ele>1483</ele>
        <time>2024-08-10T10:28:28Z</time>
      </trkpt>
      <trkpt lat="45.04606" lon="6.31179">
        <ele>1483</ele>
        <time>2024-08-10T10:28:29Z</time>
      </trkpt>
      <trkpt lat="45.04605" lon="6.31182">
        <ele>1482.8</ele>
        <time>2024-08-10T10:28:30Z</time>
      </trkpt>
      <trkpt lat="45.04605" lon="6.31182">
        <ele>1482.8</ele>
        <time>2024-08-10T10:28:31Z</time>
      </trkpt>
      <trkpt lat="45.04603" lon="6.31185">
        <ele>1482.6</ele>
        <time>2024-08-10T10:28:32Z</time>
      </trkpt>
      <trkpt lat="45.04601" lon="6.31187">
        <ele>1482.6</ele>
        <time>2024-08-10T10:28:33Z</time>
      </trkpt>
      <trkpt lat="45.046" lon="6.31189">
        <ele>1482.4</ele>
        <time>2024-08-10T10:28:34Z</time>
      </trkpt>
      <trkpt lat="45.04598" lon="6.31191">
        <ele>1482.4</ele>
        <time>2024-08-10T10:28:35Z</time>
      </trkpt>
      <trkpt lat="45.04598" lon="6.31191">
        <ele>1482.4</ele>
        <time>2024-08-10T10:28:36Z</time>
      </trkpt>
      <trkpt lat="45.04595" lon="6.31194">
        <ele>1482.2</ele>
        <time>2024-08-10T10:28:37Z</time>
      </trkpt>
      <trkpt lat="45.04595" lon="6.31194">
        <ele>1482.2</ele>
        <time>2024-08-10T10:28:38Z</time>
      </trkpt>
      <trkpt lat="45.04593" lon="6.31198">
        <ele>1482</ele>
        <time>2024-08-10T10:28:39Z</time>
      </trkpt>
      <trkpt lat="45.04592" lon="6.312">
        <ele>1482</ele>
        <time>2024-08-10T10:28:40Z</time>
      </trkpt>
      <trkpt lat="45.04592" lon="6.312">
        <ele>1481.8</ele>
        <time>2024-08-10T10:28:41Z</time>
      </trkpt>
      <trkpt lat="45.0459" lon="6.31204">
        <ele>1481.6</ele>
        <time>2024-08-10T10:28:42Z</time>
      </trkpt>
      <trkpt lat="45.0459" lon="6.31204">
        <ele>1481.4</ele>
        <time>2024-08-10T10:28:43Z</time>
      </trkpt>
      <trkpt lat="45.04588" lon="6.31208">
        <ele>1481.4</ele>
        <time>2024-08-10T10:28:44Z</time>
      </trkpt>
      <trkpt lat="45.04588" lon="6.31208">
        <ele>1481</ele>
        <time>2024-08-10T10:28:45Z</time>
      </trkpt>
      <trkpt lat="45.04586" lon="6.31211">
        <ele>1481</ele>
        <time>2024-08-10T10:28:46Z</time>
      </trkpt>
      <trkpt lat="45.04586" lon="6.31211">
        <ele>1480.8</ele>
        <time>2024-08-10T10:28:47Z</time>
      </trkpt>
      <trkpt lat="45.04584" lon="6.31215">
        <ele>1480.8</ele>
        <time>2024-08-10T10:28:48Z</time>
      </trkpt>
      <trkpt lat="45.04584" lon="6.31215">
        <ele>1480.4</ele>
        <time>2024-08-10T10:28:49Z</time>
      </trkpt>
      <trkpt lat="45.04583" lon="6.31218">
        <ele>1480.4</ele>
        <time>2024-08-10T10:28:50Z</time>
      </trkpt>
      <trkpt lat="45.04583" lon="6.31218">
        <ele>1480.4</ele>
        <time>2024-08-10T10:28:51Z</time>
      </trkpt>
      <trkpt lat="45.04581" lon="6.31219">
        <ele>1480.4</ele>
        <time>2024-08-10T10:28:52Z</time>
      </trkpt>
      <trkpt lat="45.04581" lon="6.31219">
        <ele>1480.2</ele>
        <time>2024-08-10T10:28:53Z</time>
      </trkpt>
      <trkpt lat="45.0458" lon="6.31222">
        <ele>1480.2</ele>
        <time>2024-08-10T10:28:54Z</time>
      </trkpt>
      <trkpt lat="45.0458" lon="6.31222">
        <ele>1479.8</ele>
        <time>2024-08-10T10:28:55Z</time>
      </trkpt>
      <trkpt lat="45.04579" lon="6.31225">
        <ele>1479.8</ele>
        <time>2024-08-10T10:28:56Z</time>
      </trkpt>
      <trkpt lat="45.04577" lon="6.31226">
        <ele>1479.8</ele>
        <time>2024-08-10T10:28:57Z</time>
      </trkpt>
      <trkpt lat="45.04577" lon="6.31226">
        <ele>1479.6</ele>
        <time>2024-08-10T10:28:58Z</time>
      </trkpt>
      <trkpt lat="45.04577" lon="6.31226">
        <ele>1479.6</ele>
        <time>2024-08-10T10:28:59Z</time>
      </trkpt>
      <trkpt lat="45.04575" lon="6.3123">
        <ele>1479.6</ele>
        <time>2024-08-10T10:29:00Z</time>
      </trkpt>
      <trkpt lat="45.04575" lon="6.3123">
        <ele>1479.6</ele>
        <time>2024-08-10T10:29:01Z</time>
      </trkpt>
      <trkpt lat="45.04574" lon="6.31232">
        <ele>1479.6</ele>
        <time>2024-08-10T10:29:02Z</time>
      </trkpt>
      <trkpt lat="45.04574" lon="6.31232">
        <ele>1479.4</ele>
        <time>2024-08-10T10:29:03Z</time>
      </trkpt>
      <trkpt lat="45.04571" lon="6.31234">
        <ele>1479.4</ele>
        <time>2024-08-10T10:29:04Z</time>
      </trkpt>
      <trkpt lat="45.04571" lon="6.31234">
        <ele>1479.4</ele>
        <time>2024-08-10T10:29:05Z</time>
      </trkpt>
      <trkpt lat="45.04569" lon="6.31236">
        <ele>1479.2</ele>
        <time>2024-08-10T10:29:06Z</time>
      </trkpt>
      <trkpt lat="45.04567" lon="6.31237">
        <ele>1479</ele>
        <time>2024-08-10T10:29:07Z</time>
      </trkpt>
      <trkpt lat="45.04567" lon="6.31237">
        <ele>1479</ele>
        <time>2024-08-10T10:29:08Z</time>
      </trkpt>
      <trkpt lat="45.04565" lon="6.3124">
        <ele>1479</ele>
        <time>2024-08-10T10:29:09Z</time>
      </trkpt>
      <trkpt lat="45.04565" lon="6.3124">
        <ele>1479</ele>
        <time>2024-08-10T10:29:10Z</time>
      </trkpt>
      <trkpt lat="45.04564" lon="6.31243">
        <ele>1478.8</ele>
        <time>2024-08-10T10:29:11Z</time>
      </trkpt>
      <trkpt lat="45.04564" lon="6.31243">
        <ele>1478.8</ele>
        <time>2024-08-10T10:29:12Z</time>
      </trkpt>
      <trkpt lat="45.04562" lon="6.31246">
        <ele>1478.6</ele>
        <time>2024-08-10T10:29:13Z</time>
      </trkpt>
      <trkpt lat="45.04562" lon="6.31246">
        <ele>1478.4</ele>
        <time>2024-08-10T10:29:14Z</time>
      </trkpt>
      <trkpt lat="45.04559" lon="6.31248">
        <ele>1478.4</ele>
        <time>2024-08-10T10:29:15Z</time>
      </trkpt>
      <trkpt lat="45.04559" lon="6.31248">
        <ele>1478.4</ele>
        <time>2024-08-10T10:29:16Z</time>
      </trkpt>
      <trkpt lat="45.04558" lon="6.31251">
        <ele>1478.4</ele>
        <time>2024-08-10T10:29:17Z</time>
      </trkpt>
      <trkpt lat="45.04558" lon="6.31251">
        <ele>1478.2</ele>
        <time>2024-08-10T10:29:18Z</time>
      </trkpt>
      <trkpt lat="45.04556" lon="6.31254">
        <ele>1478</ele>
        <time>2024-08-10T10:29:19Z</time>
      </trkpt>
      <trkpt lat="45.04556" lon="6.31254">
        <ele>1478</ele>
        <time>2024-08-10T10:29:20Z</time>
      </trkpt>
      <trkpt lat="45.04556" lon="6.31258">
        <ele>1478</ele>
        <time>2024-08-10T10:29:21Z</time>
      </trkpt>
      <trkpt lat="45.04554" lon="6.31259">
        <ele>1478</ele>
        <time>2024-08-10T10:29:22Z</time>
      </trkpt>
      <trkpt lat="45.04554" lon="6.31259">
        <ele>1478</ele>
        <time>2024-08-10T10:29:23Z</time>
      </trkpt>
      <trkpt lat="45.04553" lon="6.31262">
        <ele>1478</ele>
        <time>2024-08-10T10:29:24Z</time>
      </trkpt>
      <trkpt lat="45.04552" lon="6.31264">
        <ele>1478</ele>
        <time>2024-08-10T10:29:25Z</time>
      </trkpt>
      <trkpt lat="45.0455" lon="6.31266">
        <ele>1478</ele>
        <time>2024-08-10T10:29:26Z</time>
      </trkpt>
      <trkpt lat="45.0455" lon="6.31266">
        <ele>1477.6</ele>
        <time>2024-08-10T10:29:27Z</time>
      </trkpt>
      <trkpt lat="45.04546" lon="6.31267">
        <ele>1477.6</ele>
        <time>2024-08-10T10:29:28Z</time>
      </trkpt>
      <trkpt lat="45.04545" lon="6.31268">
        <ele>1477.6</ele>
        <time>2024-08-10T10:29:29Z</time>
      </trkpt>
      <trkpt lat="45.04543" lon="6.31269">
        <ele>1477.4</ele>
        <time>2024-08-10T10:29:30Z</time>
      </trkpt>
      <trkpt lat="45.04543" lon="6.31269">
        <ele>1477</ele>
        <time>2024-08-10T10:29:31Z</time>
      </trkpt>
      <trkpt lat="45.04541" lon="6.31272">
        <ele>1476.6</ele>
        <time>2024-08-10T10:29:32Z</time>
      </trkpt>
      <trkpt lat="45.04541" lon="6.31272">
        <ele>1476.4</ele>
        <time>2024-08-10T10:29:33Z</time>
      </trkpt>
      <trkpt lat="45.0454" lon="6.31274">
        <ele>1475.8</ele>
        <time>2024-08-10T10:29:34Z</time>
      </trkpt>
      <trkpt lat="45.0454" lon="6.31274">
        <ele>1475.6</ele>
        <time>2024-08-10T10:29:35Z</time>
      </trkpt>
      <trkpt lat="45.04538" lon="6.31278">
        <ele>1475.6</ele>
        <time>2024-08-10T10:29:36Z</time>
      </trkpt>
      <trkpt lat="45.04538" lon="6.31278">
        <ele>1475.6</ele>
        <time>2024-08-10T10:29:37Z</time>
      </trkpt>
      <trkpt lat="45.04536" lon="6.31281">
        <ele>1475.6</ele>
        <time>2024-08-10T10:29:38Z</time>
      </trkpt>
      <trkpt lat="45.04536" lon="6.31281">
        <ele>1475.6</ele>
        <time>2024-08-10T10:29:39Z</time>
      </trkpt>
      <trkpt lat="45.04534" lon="6.31283">
        <ele>1475.6</ele>
        <time>2024-08-10T10:29:40Z</time>
      </trkpt>
      <trkpt lat="45.04534" lon="6.31283">
        <ele>1475.6</ele>
        <time>2024-08-10T10:29:41Z</time>
      </trkpt>
      <trkpt lat="45.04534" lon="6.31287">
        <ele>1475.4</ele>
        <time>2024-08-10T10:29:42Z</time>
      </trkpt>
      <trkpt lat="45.04534" lon="6.31287">
        <ele>1475</ele>
        <time>2024-08-10T10:29:43Z</time>
      </trkpt>
      <trkpt lat="45.04534" lon="6.31291">
        <ele>1475</ele>
        <time>2024-08-10T10:29:44Z</time>
      </trkpt>
      <trkpt lat="45.04534" lon="6.31291">
        <ele>1475</ele>
        <time>2024-08-10T10:29:45Z</time>
      </trkpt>
      <trkpt lat="45.04533" lon="6.31295">
        <ele>1475</ele>
        <time>2024-08-10T10:29:46Z</time>
      </trkpt>
      <trkpt lat="45.04533" lon="6.31295">
        <ele>1474.8</ele>
        <time>2024-08-10T10:29:47Z</time>
      </trkpt>
      <trkpt lat="45.04532" lon="6.31299">
        <ele>1474.8</ele>
        <time>2024-08-10T10:29:48Z</time>
      </trkpt>
      <trkpt lat="45.04532" lon="6.31299">
        <ele>1474.8</ele>
        <time>2024-08-10T10:29:49Z</time>
      </trkpt>
      <trkpt lat="45.0453" lon="6.31303">
        <ele>1474.8</ele>
        <time>2024-08-10T10:29:50Z</time>
      </trkpt>
      <trkpt lat="45.0453" lon="6.31303">
        <ele>1474.8</ele>
        <time>2024-08-10T10:29:51Z</time>
      </trkpt>
      <trkpt lat="45.04529" lon="6.31306">
        <ele>1474.8</ele>
        <time>2024-08-10T10:29:52Z</time>
      </trkpt>
      <trkpt lat="45.04529" lon="6.31306">
        <ele>1474.8</ele>
        <time>2024-08-10T10:29:53Z</time>
      </trkpt>
      <trkpt lat="45.04528" lon="6.3131">
        <ele>1474.4</ele>
        <time>2024-08-10T10:29:54Z</time>
      </trkpt>
      <trkpt lat="45.04528" lon="6.3131">
        <ele>1474.2</ele>
        <time>2024-08-10T10:29:55Z</time>
      </trkpt>
      <trkpt lat="45.04526" lon="6.31314">
        <ele>1474.2</ele>
        <time>2024-08-10T10:29:56Z</time>
      </trkpt>
      <trkpt lat="45.04526" lon="6.31314">
        <ele>1474.2</ele>
        <time>2024-08-10T10:29:57Z</time>
      </trkpt>
      <trkpt lat="45.04526" lon="6.31317">
        <ele>1474.2</ele>
        <time>2024-08-10T10:29:58Z</time>
      </trkpt>
      <trkpt lat="45.04526" lon="6.31317">
        <ele>1474.2</ele>
        <time>2024-08-10T10:29:59Z</time>
      </trkpt>
      <trkpt lat="45.04525" lon="6.31321">
        <ele>1474.2</ele>
        <time>2024-08-10T10:30:00Z</time>
      </trkpt>
      <trkpt lat="45.04525" lon="6.31321">
        <ele>1473.8</ele>
        <time>2024-08-10T10:30:01Z</time>
      </trkpt>
      <trkpt lat="45.04524" lon="6.31324">
        <ele>1473.8</ele>
        <time>2024-08-10T10:30:02Z</time>
      </trkpt>
      <trkpt lat="45.04524" lon="6.31324">
        <ele>1473.6</ele>
        <time>2024-08-10T10:30:03Z</time>
      </trkpt>
      <trkpt lat="45.04522" lon="6.31327">
        <ele>1473.6</ele>
        <time>2024-08-10T10:30:04Z</time>
      </trkpt>
      <trkpt lat="45.04522" lon="6.31327">
        <ele>1473.6</ele>
        <time>2024-08-10T10:30:05Z</time>
      </trkpt>
      <trkpt lat="45.0452" lon="6.3133">
        <ele>1473.4</ele>
        <time>2024-08-10T10:30:06Z</time>
      </trkpt>
      <trkpt lat="45.0452" lon="6.3133">
        <ele>1473.4</ele>
        <time>2024-08-10T10:30:07Z</time>
      </trkpt>
      <trkpt lat="45.04518" lon="6.31332">
        <ele>1473</ele>
        <time>2024-08-10T10:30:08Z</time>
      </trkpt>
      <trkpt lat="45.04518" lon="6.31332">
        <ele>1472.8</ele>
        <time>2024-08-10T10:30:09Z</time>
      </trkpt>
      <trkpt lat="45.04516" lon="6.31334">
        <ele>1472.6</ele>
        <time>2024-08-10T10:30:10Z</time>
      </trkpt>
      <trkpt lat="45.04516" lon="6.31334">
        <ele>1472.6</ele>
        <time>2024-08-10T10:30:11Z</time>
      </trkpt>
      <trkpt lat="45.04515" lon="6.31338">
        <ele>1472.6</ele>
        <time>2024-08-10T10:30:12Z</time>
      </trkpt>
      <trkpt lat="45.04515" lon="6.31338">
        <ele>1472.6</ele>
        <time>2024-08-10T10:30:13Z</time>
      </trkpt>
      <trkpt lat="45.04513" lon="6.31341">
        <ele>1472.6</ele>
        <time>2024-08-10T10:30:14Z</time>
      </trkpt>
      <trkpt lat="45.04513" lon="6.31341">
        <ele>1472.6</ele>
        <time>2024-08-10T10:30:15Z</time>
      </trkpt>
      <trkpt lat="45.04512" lon="6.31344">
        <ele>1472.4</ele>
        <time>2024-08-10T10:30:16Z</time>
      </trkpt>
      <trkpt lat="45.04512" lon="6.31344">
        <ele>1472.4</ele>
        <time>2024-08-10T10:30:17Z</time>
      </trkpt>
      <trkpt lat="45.04511" lon="6.31346">
        <ele>1471.8</ele>
        <time>2024-08-10T10:30:18Z</time>
      </trkpt>
      <trkpt lat="45.04511" lon="6.31346">
        <ele>1471.8</ele>
        <time>2024-08-10T10:30:19Z</time>
      </trkpt>
      <trkpt lat="45.04511" lon="6.31346">
        <ele>1472</ele>
        <time>2024-08-10T10:30:20Z</time>
      </trkpt>
      <trkpt lat="45.04511" lon="6.31346">
        <ele>1472</ele>
        <time>2024-08-10T10:30:21Z</time>
      </trkpt>
      <trkpt lat="45.04512" lon="6.31349">
        <ele>1472.2</ele>
        <time>2024-08-10T10:30:22Z</time>
      </trkpt>
      <trkpt lat="45.04512" lon="6.31349">
        <ele>1472.2</ele>
        <time>2024-08-10T10:30:23Z</time>
      </trkpt>
      <trkpt lat="45.04512" lon="6.31349">
        <ele>1472.4</ele>
        <time>2024-08-10T10:30:24Z</time>
      </trkpt>
      <trkpt lat="45.04513" lon="6.3135">
        <ele>1472.4</ele>
        <time>2024-08-10T10:30:25Z</time>
      </trkpt>
      <trkpt lat="45.04513" lon="6.3135">
        <ele>1472.4</ele>
        <time>2024-08-10T10:30:26Z</time>
      </trkpt>
      <trkpt lat="45.04513" lon="6.3135">
        <ele>1472.4</ele>
        <time>2024-08-10T10:30:27Z</time>
      </trkpt>
      <trkpt lat="45.04516" lon="6.31352">
        <ele>1472.4</ele>
        <time>2024-08-10T10:30:28Z</time>
      </trkpt>
      <trkpt lat="45.04516" lon="6.31352">
        <ele>1472.4</ele>
        <time>2024-08-10T10:30:29Z</time>
      </trkpt>
      <trkpt lat="45.04518" lon="6.31353">
        <ele>1472.2</ele>
        <time>2024-08-10T10:30:30Z</time>
      </trkpt>
      <trkpt lat="45.04518" lon="6.31353">
        <ele>1472.2</ele>
        <time>2024-08-10T10:30:31Z</time>
      </trkpt>
      <trkpt lat="45.04518" lon="6.31353">
        <ele>1472.2</ele>
        <time>2024-08-10T10:30:32Z</time>
      </trkpt>
      <trkpt lat="45.04518" lon="6.31353">
        <ele>1472.2</ele>
        <time>2024-08-10T10:30:33Z</time>
      </trkpt>
      <trkpt lat="45.0452" lon="6.31354">
        <ele>1472.2</ele>
        <time>2024-08-10T10:30:34Z</time>
      </trkpt>
      <trkpt lat="45.0452" lon="6.31354">
        <ele>1472.2</ele>
        <time>2024-08-10T10:30:35Z</time>
      </trkpt>
      <trkpt lat="45.04522" lon="6.31355">
        <ele>1472.4</ele>
        <time>2024-08-10T10:30:36Z</time>
      </trkpt>
      <trkpt lat="45.04522" lon="6.31355">
        <ele>1472.6</ele>
        <time>2024-08-10T10:30:37Z</time>
      </trkpt>
      <trkpt lat="45.04524" lon="6.31358">
        <ele>1472.6</ele>
        <time>2024-08-10T10:30:38Z</time>
      </trkpt>
      <trkpt lat="45.04525" lon="6.3136">
        <ele>1472.2</ele>
        <time>2024-08-10T10:30:39Z</time>
      </trkpt>
      <trkpt lat="45.04525" lon="6.3136">
        <ele>1472.2</ele>
        <time>2024-08-10T10:30:40Z</time>
      </trkpt>
      <trkpt lat="45.04527" lon="6.31362">
        <ele>1472.2</ele>
        <time>2024-08-10T10:30:41Z</time>
      </trkpt>
      <trkpt lat="45.04527" lon="6.31362">
        <ele>1472.4</ele>
        <time>2024-08-10T10:30:42Z</time>
      </trkpt>
      <trkpt lat="45.04529" lon="6.31365">
        <ele>1472.4</ele>
        <time>2024-08-10T10:30:43Z</time>
      </trkpt>
      <trkpt lat="45.04529" lon="6.31365">
        <ele>1472.4</ele>
        <time>2024-08-10T10:30:44Z</time>
      </trkpt>
      <trkpt lat="45.04531" lon="6.31367">
        <ele>1472.6</ele>
        <time>2024-08-10T10:30:45Z</time>
      </trkpt>
      <trkpt lat="45.04531" lon="6.31367">
        <ele>1472.6</ele>
        <time>2024-08-10T10:30:46Z</time>
      </trkpt>
      <trkpt lat="45.04533" lon="6.31371">
        <ele>1473</ele>
        <time>2024-08-10T10:30:47Z</time>
      </trkpt>
      <trkpt lat="45.04533" lon="6.31371">
        <ele>1473.2</ele>
        <time>2024-08-10T10:30:48Z</time>
      </trkpt>
      <trkpt lat="45.04534" lon="6.31374">
        <ele>1473.2</ele>
        <time>2024-08-10T10:30:49Z</time>
      </trkpt>
      <trkpt lat="45.04534" lon="6.31374">
        <ele>1473.2</ele>
        <time>2024-08-10T10:30:50Z</time>
      </trkpt>
      <trkpt lat="45.04535" lon="6.31377">
        <ele>1473.4</ele>
        <time>2024-08-10T10:30:51Z</time>
      </trkpt>
      <trkpt lat="45.04535" lon="6.31377">
        <ele>1473.4</ele>
        <time>2024-08-10T10:30:52Z</time>
      </trkpt>
      <trkpt lat="45.04536" lon="6.31381">
        <ele>1473.4</ele>
        <time>2024-08-10T10:30:53Z</time>
      </trkpt>
      <trkpt lat="45.04536" lon="6.31381">
        <ele>1473.4</ele>
        <time>2024-08-10T10:30:54Z</time>
      </trkpt>
      <trkpt lat="45.04536" lon="6.31384">
        <ele>1473.4</ele>
        <time>2024-08-10T10:30:55Z</time>
      </trkpt>
      <trkpt lat="45.04536" lon="6.31384">
        <ele>1473.6</ele>
        <time>2024-08-10T10:30:56Z</time>
      </trkpt>
      <trkpt lat="45.04534" lon="6.31388">
        <ele>1473.6</ele>
        <time>2024-08-10T10:30:57Z</time>
      </trkpt>
      <trkpt lat="45.04534" lon="6.31388">
        <ele>1473.8</ele>
        <time>2024-08-10T10:30:58Z</time>
      </trkpt>
      <trkpt lat="45.04533" lon="6.31391">
        <ele>1473.8</ele>
        <time>2024-08-10T10:30:59Z</time>
      </trkpt>
      <trkpt lat="45.04533" lon="6.31391">
        <ele>1473.8</ele>
        <time>2024-08-10T10:31:00Z</time>
      </trkpt>
      <trkpt lat="45.04531" lon="6.31393">
        <ele>1473.8</ele>
        <time>2024-08-10T10:31:01Z</time>
      </trkpt>
      <trkpt lat="45.04531" lon="6.31393">
        <ele>1474</ele>
        <time>2024-08-10T10:31:02Z</time>
      </trkpt>
      <trkpt lat="45.0453" lon="6.31396">
        <ele>1474.2</ele>
        <time>2024-08-10T10:31:03Z</time>
      </trkpt>
      <trkpt lat="45.0453" lon="6.31396">
        <ele>1474.2</ele>
        <time>2024-08-10T10:31:04Z</time>
      </trkpt>
      <trkpt lat="45.04529" lon="6.314">
        <ele>1474.2</ele>
        <time>2024-08-10T10:31:05Z</time>
      </trkpt>
      <trkpt lat="45.04529" lon="6.314">
        <ele>1474.2</ele>
        <time>2024-08-10T10:31:06Z</time>
      </trkpt>
      <trkpt lat="45.04528" lon="6.31404">
        <ele>1474</ele>
        <time>2024-08-10T10:31:07Z</time>
      </trkpt>
      <trkpt lat="45.04528" lon="6.31404">
        <ele>1474</ele>
        <time>2024-08-10T10:31:08Z</time>
      </trkpt>
      <trkpt lat="45.04528" lon="6.31408">
        <ele>1474.2</ele>
        <time>2024-08-10T10:31:09Z</time>
      </trkpt>
      <trkpt lat="45.04528" lon="6.31408">
        <ele>1474.2</ele>
        <time>2024-08-10T10:31:10Z</time>
      </trkpt>
      <trkpt lat="45.04527" lon="6.31411">
        <ele>1474.2</ele>
        <time>2024-08-10T10:31:11Z</time>
      </trkpt>
      <trkpt lat="45.04527" lon="6.31411">
        <ele>1474.6</ele>
        <time>2024-08-10T10:31:12Z</time>
      </trkpt>
      <trkpt lat="45.04527" lon="6.31414">
        <ele>1474.6</ele>
        <time>2024-08-10T10:31:13Z</time>
      </trkpt>
      <trkpt lat="45.04527" lon="6.31414">
        <ele>1474.8</ele>
        <time>2024-08-10T10:31:14Z</time>
      </trkpt>
      <trkpt lat="45.04527" lon="6.31417">
        <ele>1474.6</ele>
        <time>2024-08-10T10:31:15Z</time>
      </trkpt>
      <trkpt lat="45.04527" lon="6.31417">
        <ele>1474.6</ele>
        <time>2024-08-10T10:31:16Z</time>
      </trkpt>
      <trkpt lat="45.04527" lon="6.31417">
        <ele>1474.6</ele>
        <time>2024-08-10T10:31:17Z</time>
      </trkpt>
      <trkpt lat="45.04527" lon="6.31421">
        <ele>1474.4</ele>
        <time>2024-08-10T10:31:18Z</time>
      </trkpt>
      <trkpt lat="45.04527" lon="6.31421">
        <ele>1474.4</ele>
        <time>2024-08-10T10:31:19Z</time>
      </trkpt>
      <trkpt lat="45.04528" lon="6.31424">
        <ele>1474.8</ele>
        <time>2024-08-10T10:31:20Z</time>
      </trkpt>
      <trkpt lat="45.04528" lon="6.31424">
        <ele>1474.8</ele>
        <time>2024-08-10T10:31:21Z</time>
      </trkpt>
      <trkpt lat="45.04528" lon="6.31424">
        <ele>1475</ele>
        <time>2024-08-10T10:31:22Z</time>
      </trkpt>
      <trkpt lat="45.04528" lon="6.31424">
        <ele>1475</ele>
        <time>2024-08-10T10:31:23Z</time>
      </trkpt>
      <trkpt lat="45.04528" lon="6.31424">
        <ele>1475</ele>
        <time>2024-08-10T10:31:24Z</time>
      </trkpt>
      <trkpt lat="45.04528" lon="6.31426">
        <ele>1475</ele>
        <time>2024-08-10T10:31:25Z</time>
      </trkpt>
      <trkpt lat="45.04528" lon="6.31426">
        <ele>1475</ele>
        <time>2024-08-10T10:31:26Z</time>
      </trkpt>
      <trkpt lat="45.04528" lon="6.31426">
        <ele>1475</ele>
        <time>2024-08-10T10:31:27Z</time>
      </trkpt>
      <trkpt lat="45.04528" lon="6.31426">
        <ele>1475</ele>
        <time>2024-08-10T10:31:28Z</time>
      </trkpt>
      <trkpt lat="45.04529" lon="6.3143">
        <ele>1475.2</ele>
        <time>2024-08-10T10:31:29Z</time>
      </trkpt>
      <trkpt lat="45.04529" lon="6.3143">
        <ele>1475.2</ele>
        <time>2024-08-10T10:31:30Z</time>
      </trkpt>
      <trkpt lat="45.04529" lon="6.31433">
        <ele>1475.2</ele>
        <time>2024-08-10T10:31:31Z</time>
      </trkpt>
      <trkpt lat="45.04529" lon="6.31433">
        <ele>1475.2</ele>
        <time>2024-08-10T10:31:32Z</time>
      </trkpt>
      <trkpt lat="45.0453" lon="6.31436">
        <ele>1475.2</ele>
        <time>2024-08-10T10:31:33Z</time>
      </trkpt>
      <trkpt lat="45.0453" lon="6.31436">
        <ele>1475.2</ele>
        <time>2024-08-10T10:31:34Z</time>
      </trkpt>
      <trkpt lat="45.04531" lon="6.31438">
        <ele>1475.6</ele>
        <time>2024-08-10T10:31:35Z</time>
      </trkpt>
      <trkpt lat="45.04531" lon="6.31438">
        <ele>1475.8</ele>
        <time>2024-08-10T10:31:36Z</time>
      </trkpt>
      <trkpt lat="45.04531" lon="6.31441">
        <ele>1476.2</ele>
        <time>2024-08-10T10:31:37Z</time>
      </trkpt>
      <trkpt lat="45.04531" lon="6.31441">
        <ele>1476.2</ele>
        <time>2024-08-10T10:31:38Z</time>
      </trkpt>
      <trkpt lat="45.04531" lon="6.31443">
        <ele>1476</ele>
        <time>2024-08-10T10:31:39Z</time>
      </trkpt>
      <trkpt lat="45.04531" lon="6.31443">
        <ele>1476</ele>
        <time>2024-08-10T10:31:40Z</time>
      </trkpt>
      <trkpt lat="45.04531" lon="6.31443">
        <ele>1476.2</ele>
        <time>2024-08-10T10:31:41Z</time>
      </trkpt>
      <trkpt lat="45.04531" lon="6.31447">
        <ele>1476.4</ele>
        <time>2024-08-10T10:31:42Z</time>
      </trkpt>
      <trkpt lat="45.04531" lon="6.31447">
        <ele>1476.6</ele>
        <time>2024-08-10T10:31:43Z</time>
      </trkpt>
      <trkpt lat="45.04531" lon="6.31447">
        <ele>1476.6</ele>
        <time>2024-08-10T10:31:44Z</time>
      </trkpt>
      <trkpt lat="45.04532" lon="6.31449">
        <ele>1476.6</ele>
        <time>2024-08-10T10:31:45Z</time>
      </trkpt>
      <trkpt lat="45.04532" lon="6.31449">
        <ele>1476.8</ele>
        <time>2024-08-10T10:31:46Z</time>
      </trkpt>
      <trkpt lat="45.04532" lon="6.31449">
        <ele>1477</ele>
        <time>2024-08-10T10:31:47Z</time>
      </trkpt>
      <trkpt lat="45.04533" lon="6.31452">
        <ele>1477.4</ele>
        <time>2024-08-10T10:31:48Z</time>
      </trkpt>
      <trkpt lat="45.04533" lon="6.31452">
        <ele>1477.6</ele>
        <time>2024-08-10T10:31:49Z</time>
      </trkpt>
      <trkpt lat="45.04533" lon="6.31452">
        <ele>1477.8</ele>
        <time>2024-08-10T10:31:50Z</time>
      </trkpt>
      <trkpt lat="45.04533" lon="6.31452">
        <ele>1478.2</ele>
        <time>2024-08-10T10:31:51Z</time>
      </trkpt>
      <trkpt lat="45.04534" lon="6.31455">
        <ele>1478.6</ele>
        <time>2024-08-10T10:31:52Z</time>
      </trkpt>
      <trkpt lat="45.04534" lon="6.31455">
        <ele>1478.6</ele>
        <time>2024-08-10T10:31:53Z</time>
      </trkpt>
      <trkpt lat="45.04536" lon="6.31457">
        <ele>1478.4</ele>
        <time>2024-08-10T10:31:54Z</time>
      </trkpt>
      <trkpt lat="45.04536" lon="6.31457">
        <ele>1478.4</ele>
        <time>2024-08-10T10:31:55Z</time>
      </trkpt>
      <trkpt lat="45.04536" lon="6.31457">
        <ele>1478.2</ele>
        <time>2024-08-10T10:31:56Z</time>
      </trkpt>
      <trkpt lat="45.04536" lon="6.3146">
        <ele>1478.2</ele>
        <time>2024-08-10T10:31:57Z</time>
      </trkpt>
      <trkpt lat="45.04536" lon="6.3146">
        <ele>1478.4</ele>
        <time>2024-08-10T10:31:58Z</time>
      </trkpt>
      <trkpt lat="45.04537" lon="6.31463">
        <ele>1479</ele>
        <time>2024-08-10T10:31:59Z</time>
      </trkpt>
      <trkpt lat="45.04537" lon="6.31463">
        <ele>1479.2</ele>
        <time>2024-08-10T10:32:00Z</time>
      </trkpt>
      <trkpt lat="45.04536" lon="6.31467">
        <ele>1479.2</ele>
        <time>2024-08-10T10:32:01Z</time>
      </trkpt>
      <trkpt lat="45.04536" lon="6.31467">
        <ele>1479.4</ele>
        <time>2024-08-10T10:32:02Z</time>
      </trkpt>
      <trkpt lat="45.04537" lon="6.3147">
        <ele>1479.2</ele>
        <time>2024-08-10T10:32:03Z</time>
      </trkpt>
      <trkpt lat="45.04537" lon="6.3147">
        <ele>1479.2</ele>
        <time>2024-08-10T10:32:04Z</time>
      </trkpt>
      <trkpt lat="45.04536" lon="6.31472">
        <ele>1479.2</ele>
        <time>2024-08-10T10:32:05Z</time>
      </trkpt>
      <trkpt lat="45.04536" lon="6.31472">
        <ele>1479.6</ele>
        <time>2024-08-10T10:32:06Z</time>
      </trkpt>
      <trkpt lat="45.04535" lon="6.31475">
        <ele>1480</ele>
        <time>2024-08-10T10:32:07Z</time>
      </trkpt>
      <trkpt lat="45.04535" lon="6.31475">
        <ele>1480</ele>
        <time>2024-08-10T10:32:08Z</time>
      </trkpt>
      <trkpt lat="45.04534" lon="6.31478">
        <ele>1480.2</ele>
        <time>2024-08-10T10:32:09Z</time>
      </trkpt>
      <trkpt lat="45.04534" lon="6.31478">
        <ele>1480.6</ele>
        <time>2024-08-10T10:32:10Z</time>
      </trkpt>
      <trkpt lat="45.04533" lon="6.31481">
        <ele>1480.6</ele>
        <time>2024-08-10T10:32:11Z</time>
      </trkpt>
      <trkpt lat="45.04533" lon="6.31481">
        <ele>1480.6</ele>
        <time>2024-08-10T10:32:12Z</time>
      </trkpt>
      <trkpt lat="45.04532" lon="6.31484">
        <ele>1480.6</ele>
        <time>2024-08-10T10:32:13Z</time>
      </trkpt>
      <trkpt lat="45.04532" lon="6.31484">
        <ele>1480.6</ele>
        <time>2024-08-10T10:32:14Z</time>
      </trkpt>
      <trkpt lat="45.04531" lon="6.31487">
        <ele>1481</ele>
        <time>2024-08-10T10:32:15Z</time>
      </trkpt>
      <trkpt lat="45.04531" lon="6.31487">
        <ele>1481.2</ele>
        <time>2024-08-10T10:32:16Z</time>
      </trkpt>
      <trkpt lat="45.0453" lon="6.31491">
        <ele>1481.2</ele>
        <time>2024-08-10T10:32:17Z</time>
      </trkpt>
      <trkpt lat="45.0453" lon="6.31491">
        <ele>1481.2</ele>
        <time>2024-08-10T10:32:18Z</time>
      </trkpt>
      <trkpt lat="45.04528" lon="6.31493">
        <ele>1481.4</ele>
        <time>2024-08-10T10:32:19Z</time>
      </trkpt>
      <trkpt lat="45.04528" lon="6.31493">
        <ele>1481.4</ele>
        <time>2024-08-10T10:32:20Z</time>
      </trkpt>
      <trkpt lat="45.04528" lon="6.31497">
        <ele>1481.4</ele>
        <time>2024-08-10T10:32:21Z</time>
      </trkpt>
      <trkpt lat="45.04528" lon="6.31497">
        <ele>1481.6</ele>
        <time>2024-08-10T10:32:22Z</time>
      </trkpt>
      <trkpt lat="45.04528" lon="6.31501">
        <ele>1481.8</ele>
        <time>2024-08-10T10:32:23Z</time>
      </trkpt>
      <trkpt lat="45.04528" lon="6.31501">
        <ele>1481.8</ele>
        <time>2024-08-10T10:32:24Z</time>
      </trkpt>
      <trkpt lat="45.04528" lon="6.31504">
        <ele>1482</ele>
        <time>2024-08-10T10:32:25Z</time>
      </trkpt>
      <trkpt lat="45.04528" lon="6.31504">
        <ele>1482</ele>
        <time>2024-08-10T10:32:26Z</time>
      </trkpt>
      <trkpt lat="45.04528" lon="6.31508">
        <ele>1482</ele>
        <time>2024-08-10T10:32:27Z</time>
      </trkpt>
      <trkpt lat="45.04528" lon="6.31508">
        <ele>1482.2</ele>
        <time>2024-08-10T10:32:28Z</time>
      </trkpt>
      <trkpt lat="45.04528" lon="6.31511">
        <ele>1482.2</ele>
        <time>2024-08-10T10:32:29Z</time>
      </trkpt>
      <trkpt lat="45.04528" lon="6.31511">
        <ele>1482.2</ele>
        <time>2024-08-10T10:32:30Z</time>
      </trkpt>
      <trkpt lat="45.04528" lon="6.31513">
        <ele>1482.2</ele>
        <time>2024-08-10T10:32:31Z</time>
      </trkpt>
      <trkpt lat="45.04528" lon="6.31513">
        <ele>1482</ele>
        <time>2024-08-10T10:32:32Z</time>
      </trkpt>
      <trkpt lat="45.0453" lon="6.31516">
        <ele>1482.2</ele>
        <time>2024-08-10T10:32:33Z</time>
      </trkpt>
      <trkpt lat="45.0453" lon="6.31516">
        <ele>1482.4</ele>
        <time>2024-08-10T10:32:34Z</time>
      </trkpt>
      <trkpt lat="45.0453" lon="6.31516">
        <ele>1482.4</ele>
        <time>2024-08-10T10:32:35Z</time>
      </trkpt>
      <trkpt lat="45.0453" lon="6.31519">
        <ele>1482.6</ele>
        <time>2024-08-10T10:32:36Z</time>
      </trkpt>
      <trkpt lat="45.0453" lon="6.31519">
        <ele>1482.8</ele>
        <time>2024-08-10T10:32:37Z</time>
      </trkpt>
      <trkpt lat="45.04532" lon="6.31521">
        <ele>1483.4</ele>
        <time>2024-08-10T10:32:38Z</time>
      </trkpt>
      <trkpt lat="45.04532" lon="6.31521">
        <ele>1483.4</ele>
        <time>2024-08-10T10:32:39Z</time>
      </trkpt>
      <trkpt lat="45.04532" lon="6.31521">
        <ele>1483.6</ele>
        <time>2024-08-10T10:32:40Z</time>
      </trkpt>
      <trkpt lat="45.04533" lon="6.31524">
        <ele>1483.8</ele>
        <time>2024-08-10T10:32:41Z</time>
      </trkpt>
      <trkpt lat="45.04533" lon="6.31524">
        <ele>1484</ele>
        <time>2024-08-10T10:32:42Z</time>
      </trkpt>
      <trkpt lat="45.04534" lon="6.31526">
        <ele>1484.2</ele>
        <time>2024-08-10T10:32:43Z</time>
      </trkpt>
      <trkpt lat="45.04534" lon="6.31526">
        <ele>1484.2</ele>
        <time>2024-08-10T10:32:44Z</time>
      </trkpt>
      <trkpt lat="45.04537" lon="6.31528">
        <ele>1484.2</ele>
        <time>2024-08-10T10:32:45Z</time>
      </trkpt>
      <trkpt lat="45.04537" lon="6.31528">
        <ele>1484.4</ele>
        <time>2024-08-10T10:32:46Z</time>
      </trkpt>
      <trkpt lat="45.04539" lon="6.3153">
        <ele>1484.4</ele>
        <time>2024-08-10T10:32:47Z</time>
      </trkpt>
      <trkpt lat="45.04539" lon="6.3153">
        <ele>1484.4</ele>
        <time>2024-08-10T10:32:48Z</time>
      </trkpt>
      <trkpt lat="45.04539" lon="6.3153">
        <ele>1484.6</ele>
        <time>2024-08-10T10:32:49Z</time>
      </trkpt>
      <trkpt lat="45.0454" lon="6.31534">
        <ele>1484.8</ele>
        <time>2024-08-10T10:32:50Z</time>
      </trkpt>
      <trkpt lat="45.04542" lon="6.31535">
        <ele>1484.8</ele>
        <time>2024-08-10T10:32:51Z</time>
      </trkpt>
      <trkpt lat="45.04542" lon="6.31535">
        <ele>1485</ele>
        <time>2024-08-10T10:32:52Z</time>
      </trkpt>
      <trkpt lat="45.04544" lon="6.31537">
        <ele>1485.2</ele>
        <time>2024-08-10T10:32:53Z</time>
      </trkpt>
      <trkpt lat="45.04544" lon="6.31537">
        <ele>1485.2</ele>
        <time>2024-08-10T10:32:54Z</time>
      </trkpt>
      <trkpt lat="45.04546" lon="6.31539">
        <ele>1485.4</ele>
        <time>2024-08-10T10:32:55Z</time>
      </trkpt>
      <trkpt lat="45.04546" lon="6.31539">
        <ele>1485.4</ele>
        <time>2024-08-10T10:32:56Z</time>
      </trkpt>
      <trkpt lat="45.04548" lon="6.31542">
        <ele>1485.2</ele>
        <time>2024-08-10T10:32:57Z</time>
      </trkpt>
      <trkpt lat="45.04548" lon="6.31542">
        <ele>1485.2</ele>
        <time>2024-08-10T10:32:58Z</time>
      </trkpt>
      <trkpt lat="45.04549" lon="6.31545">
        <ele>1485.2</ele>
        <time>2024-08-10T10:32:59Z</time>
      </trkpt>
      <trkpt lat="45.04549" lon="6.31545">
        <ele>1485.4</ele>
        <time>2024-08-10T10:33:00Z</time>
      </trkpt>
      <trkpt lat="45.0455" lon="6.31548">
        <ele>1485.8</ele>
        <time>2024-08-10T10:33:01Z</time>
      </trkpt>
      <trkpt lat="45.0455" lon="6.31548">
        <ele>1485.8</ele>
        <time>2024-08-10T10:33:02Z</time>
      </trkpt>
      <trkpt lat="45.04553" lon="6.31551">
        <ele>1485.6</ele>
        <time>2024-08-10T10:33:03Z</time>
      </trkpt>
      <trkpt lat="45.04553" lon="6.31551">
        <ele>1485.6</ele>
        <time>2024-08-10T10:33:04Z</time>
      </trkpt>
      <trkpt lat="45.04555" lon="6.31553">
        <ele>1485.8</ele>
        <time>2024-08-10T10:33:05Z</time>
      </trkpt>
      <trkpt lat="45.04555" lon="6.31553">
        <ele>1485.8</ele>
        <time>2024-08-10T10:33:06Z</time>
      </trkpt>
      <trkpt lat="45.04557" lon="6.31556">
        <ele>1485.8</ele>
        <time>2024-08-10T10:33:07Z</time>
      </trkpt>
      <trkpt lat="45.04557" lon="6.31556">
        <ele>1486</ele>
        <time>2024-08-10T10:33:08Z</time>
      </trkpt>
      <trkpt lat="45.04558" lon="6.31558">
        <ele>1486.2</ele>
        <time>2024-08-10T10:33:09Z</time>
      </trkpt>
      <trkpt lat="45.04558" lon="6.31558">
        <ele>1486.2</ele>
        <time>2024-08-10T10:33:10Z</time>
      </trkpt>
      <trkpt lat="45.04559" lon="6.31562">
        <ele>1486.4</ele>
        <time>2024-08-10T10:33:11Z</time>
      </trkpt>
      <trkpt lat="45.04559" lon="6.31562">
        <ele>1486.4</ele>
        <time>2024-08-10T10:33:12Z</time>
      </trkpt>
      <trkpt lat="45.04561" lon="6.31564">
        <ele>1486.6</ele>
        <time>2024-08-10T10:33:13Z</time>
      </trkpt>
      <trkpt lat="45.04561" lon="6.31564">
        <ele>1486.6</ele>
        <time>2024-08-10T10:33:14Z</time>
      </trkpt>
      <trkpt lat="45.04561" lon="6.31564">
        <ele>1486.6</ele>
        <time>2024-08-10T10:33:15Z</time>
      </trkpt>
      <trkpt lat="45.04561" lon="6.31564">
        <ele>1486.6</ele>
        <time>2024-08-10T10:33:16Z</time>
      </trkpt>
      <trkpt lat="45.04561" lon="6.31564">
        <ele>1487</ele>
        <time>2024-08-10T10:33:17Z</time>
      </trkpt>
      <trkpt lat="45.04561" lon="6.31564">
        <ele>1487</ele>
        <time>2024-08-10T10:33:18Z</time>
      </trkpt>
      <trkpt lat="45.04561" lon="6.31564">
        <ele>1486.8</ele>
        <time>2024-08-10T10:33:19Z</time>
      </trkpt>
      <trkpt lat="45.04561" lon="6.31564">
        <ele>1486.8</ele>
        <time>2024-08-10T10:33:20Z</time>
      </trkpt>
      <trkpt lat="45.04563" lon="6.31566">
        <ele>1486.6</ele>
        <time>2024-08-10T10:33:21Z</time>
      </trkpt>
      <trkpt lat="45.04563" lon="6.31566">
        <ele>1486.8</ele>
        <time>2024-08-10T10:33:22Z</time>
      </trkpt>
      <trkpt lat="45.04565" lon="6.31567">
        <ele>1487</ele>
        <time>2024-08-10T10:33:23Z</time>
      </trkpt>
      <trkpt lat="45.04565" lon="6.31567">
        <ele>1487</ele>
        <time>2024-08-10T10:33:24Z</time>
      </trkpt>
      <trkpt lat="45.04567" lon="6.31569">
        <ele>1486.8</ele>
        <time>2024-08-10T10:33:25Z</time>
      </trkpt>
      <trkpt lat="45.04567" lon="6.31569">
        <ele>1486.8</ele>
        <time>2024-08-10T10:33:26Z</time>
      </trkpt>
      <trkpt lat="45.04569" lon="6.3157">
        <ele>1487</ele>
        <time>2024-08-10T10:33:27Z</time>
      </trkpt>
      <trkpt lat="45.04569" lon="6.3157">
        <ele>1487.4</ele>
        <time>2024-08-10T10:33:28Z</time>
      </trkpt>
      <trkpt lat="45.04572" lon="6.31571">
        <ele>1487.6</ele>
        <time>2024-08-10T10:33:29Z</time>
      </trkpt>
      <trkpt lat="45.04572" lon="6.31571">
        <ele>1487.6</ele>
        <time>2024-08-10T10:33:30Z</time>
      </trkpt>
      <trkpt lat="45.04574" lon="6.31573">
        <ele>1487.8</ele>
        <time>2024-08-10T10:33:31Z</time>
      </trkpt>
      <trkpt lat="45.04574" lon="6.31573">
        <ele>1487.8</ele>
        <time>2024-08-10T10:33:32Z</time>
      </trkpt>
      <trkpt lat="45.04576" lon="6.31574">
        <ele>1487.8</ele>
        <time>2024-08-10T10:33:33Z</time>
      </trkpt>
      <trkpt lat="45.04576" lon="6.31574">
        <ele>1487.6</ele>
        <time>2024-08-10T10:33:34Z</time>
      </trkpt>
      <trkpt lat="45.04578" lon="6.31575">
        <ele>1487.6</ele>
        <time>2024-08-10T10:33:35Z</time>
      </trkpt>
      <trkpt lat="45.04578" lon="6.31575">
        <ele>1487.8</ele>
        <time>2024-08-10T10:33:36Z</time>
      </trkpt>
      <trkpt lat="45.04578" lon="6.31575">
        <ele>1488</ele>
        <time>2024-08-10T10:33:37Z</time>
      </trkpt>
      <trkpt lat="45.0458" lon="6.31576">
        <ele>1488</ele>
        <time>2024-08-10T10:33:38Z</time>
      </trkpt>
      <trkpt lat="45.0458" lon="6.31576">
        <ele>1488</ele>
        <time>2024-08-10T10:33:39Z</time>
      </trkpt>
      <trkpt lat="45.0458" lon="6.31576">
        <ele>1488</ele>
        <time>2024-08-10T10:33:40Z</time>
      </trkpt>
      <trkpt lat="45.04583" lon="6.31576">
        <ele>1488.6</ele>
        <time>2024-08-10T10:33:41Z</time>
      </trkpt>
      <trkpt lat="45.04583" lon="6.31576">
        <ele>1488.8</ele>
        <time>2024-08-10T10:33:42Z</time>
      </trkpt>
      <trkpt lat="45.04585" lon="6.31576">
        <ele>1489</ele>
        <time>2024-08-10T10:33:43Z</time>
      </trkpt>
      <trkpt lat="45.04585" lon="6.31576">
        <ele>1489</ele>
        <time>2024-08-10T10:33:44Z</time>
      </trkpt>
      <trkpt lat="45.04585" lon="6.31576">
        <ele>1489.2</ele>
        <time>2024-08-10T10:33:45Z</time>
      </trkpt>
      <trkpt lat="45.04587" lon="6.31578">
        <ele>1489.2</ele>
        <time>2024-08-10T10:33:46Z</time>
      </trkpt>
      <trkpt lat="45.04587" lon="6.31578">
        <ele>1489.6</ele>
        <time>2024-08-10T10:33:47Z</time>
      </trkpt>
      <trkpt lat="45.04587" lon="6.31578">
        <ele>1490</ele>
        <time>2024-08-10T10:33:48Z</time>
      </trkpt>
      <trkpt lat="45.04587" lon="6.31578">
        <ele>1490</ele>
        <time>2024-08-10T10:33:49Z</time>
      </trkpt>
      <trkpt lat="45.04587" lon="6.31578">
        <ele>1490.2</ele>
        <time>2024-08-10T10:33:50Z</time>
      </trkpt>
      <trkpt lat="45.04587" lon="6.31578">
        <ele>1490.2</ele>
        <time>2024-08-10T10:33:51Z</time>
      </trkpt>
      <trkpt lat="45.04587" lon="6.31578">
        <ele>1490.2</ele>
        <time>2024-08-10T10:33:52Z</time>
      </trkpt>
      <trkpt lat="45.04589" lon="6.31578">
        <ele>1490.2</ele>
        <time>2024-08-10T10:33:53Z</time>
      </trkpt>
      <trkpt lat="45.04589" lon="6.31578">
        <ele>1490.4</ele>
        <time>2024-08-10T10:33:54Z</time>
      </trkpt>
      <trkpt lat="45.04592" lon="6.31579">
        <ele>1490.4</ele>
        <time>2024-08-10T10:33:55Z</time>
      </trkpt>
      <trkpt lat="45.04592" lon="6.31579">
        <ele>1490.4</ele>
        <time>2024-08-10T10:33:56Z</time>
      </trkpt>
      <trkpt lat="45.04595" lon="6.31581">
        <ele>1490.2</ele>
        <time>2024-08-10T10:33:57Z</time>
      </trkpt>
      <trkpt lat="45.04595" lon="6.31581">
        <ele>1490</ele>
        <time>2024-08-10T10:33:58Z</time>
      </trkpt>
      <trkpt lat="45.04597" lon="6.31583">
        <ele>1490</ele>
        <time>2024-08-10T10:33:59Z</time>
      </trkpt>
      <trkpt lat="45.04597" lon="6.31583">
        <ele>1490.2</ele>
        <time>2024-08-10T10:34:00Z</time>
      </trkpt>
      <trkpt lat="45.04599" lon="6.31585">
        <ele>1490.4</ele>
        <time>2024-08-10T10:34:01Z</time>
      </trkpt>
      <trkpt lat="45.04599" lon="6.31585">
        <ele>1490.6</ele>
        <time>2024-08-10T10:34:02Z</time>
      </trkpt>
      <trkpt lat="45.04599" lon="6.31585">
        <ele>1491</ele>
        <time>2024-08-10T10:34:03Z</time>
      </trkpt>
      <trkpt lat="45.046" lon="6.31588">
        <ele>1491</ele>
        <time>2024-08-10T10:34:04Z</time>
      </trkpt>
      <trkpt lat="45.046" lon="6.31588">
        <ele>1491</ele>
        <time>2024-08-10T10:34:05Z</time>
      </trkpt>
      <trkpt lat="45.04601" lon="6.3159">
        <ele>1491.4</ele>
        <time>2024-08-10T10:34:06Z</time>
      </trkpt>
      <trkpt lat="45.04601" lon="6.3159">
        <ele>1491.4</ele>
        <time>2024-08-10T10:34:07Z</time>
      </trkpt>
      <trkpt lat="45.04603" lon="6.31593">
        <ele>1492</ele>
        <time>2024-08-10T10:34:08Z</time>
      </trkpt>
      <trkpt lat="45.04603" lon="6.31593">
        <ele>1492</ele>
        <time>2024-08-10T10:34:09Z</time>
      </trkpt>
      <trkpt lat="45.04605" lon="6.31596">
        <ele>1492</ele>
        <time>2024-08-10T10:34:10Z</time>
      </trkpt>
      <trkpt lat="45.04605" lon="6.31596">
        <ele>1492.4</ele>
        <time>2024-08-10T10:34:11Z</time>
      </trkpt>
      <trkpt lat="45.04606" lon="6.31599">
        <ele>1492.6</ele>
        <time>2024-08-10T10:34:12Z</time>
      </trkpt>
      <trkpt lat="45.04607" lon="6.31601">
        <ele>1492.6</ele>
        <time>2024-08-10T10:34:13Z</time>
      </trkpt>
      <trkpt lat="45.04607" lon="6.31601">
        <ele>1492.6</ele>
        <time>2024-08-10T10:34:14Z</time>
      </trkpt>
      <trkpt lat="45.04609" lon="6.31605">
        <ele>1492.8</ele>
        <time>2024-08-10T10:34:15Z</time>
      </trkpt>
      <trkpt lat="45.04609" lon="6.31605">
        <ele>1493</ele>
        <time>2024-08-10T10:34:16Z</time>
      </trkpt>
      <trkpt lat="45.0461" lon="6.31608">
        <ele>1493</ele>
        <time>2024-08-10T10:34:17Z</time>
      </trkpt>
      <trkpt lat="45.0461" lon="6.31608">
        <ele>1492.6</ele>
        <time>2024-08-10T10:34:18Z</time>
      </trkpt>
      <trkpt lat="45.0461" lon="6.31611">
        <ele>1492.2</ele>
        <time>2024-08-10T10:34:19Z</time>
      </trkpt>
      <trkpt lat="45.0461" lon="6.31611">
        <ele>1492</ele>
        <time>2024-08-10T10:34:20Z</time>
      </trkpt>
      <trkpt lat="45.04611" lon="6.31615">
        <ele>1492</ele>
        <time>2024-08-10T10:34:21Z</time>
      </trkpt>
      <trkpt lat="45.04611" lon="6.31615">
        <ele>1492.2</ele>
        <time>2024-08-10T10:34:22Z</time>
      </trkpt>
      <trkpt lat="45.04611" lon="6.31618">
        <ele>1492.2</ele>
        <time>2024-08-10T10:34:23Z</time>
      </trkpt>
      <trkpt lat="45.04611" lon="6.31618">
        <ele>1492.2</ele>
        <time>2024-08-10T10:34:24Z</time>
      </trkpt>
      <trkpt lat="45.04612" lon="6.31621">
        <ele>1492.2</ele>
        <time>2024-08-10T10:34:25Z</time>
      </trkpt>
      <trkpt lat="45.04612" lon="6.31621">
        <ele>1492.2</ele>
        <time>2024-08-10T10:34:26Z</time>
      </trkpt>
      <trkpt lat="45.04613" lon="6.31624">
        <ele>1492.2</ele>
        <time>2024-08-10T10:34:27Z</time>
      </trkpt>
      <trkpt lat="45.04613" lon="6.31624">
        <ele>1492.4</ele>
        <time>2024-08-10T10:34:28Z</time>
      </trkpt>
      <trkpt lat="45.04613" lon="6.31627">
        <ele>1492.6</ele>
        <time>2024-08-10T10:34:29Z</time>
      </trkpt>
      <trkpt lat="45.04613" lon="6.31627">
        <ele>1492.8</ele>
        <time>2024-08-10T10:34:30Z</time>
      </trkpt>
      <trkpt lat="45.04614" lon="6.3163">
        <ele>1492.8</ele>
        <time>2024-08-10T10:34:31Z</time>
      </trkpt>
      <trkpt lat="45.04614" lon="6.3163">
        <ele>1492.8</ele>
        <time>2024-08-10T10:34:32Z</time>
      </trkpt>
      <trkpt lat="45.04615" lon="6.31634">
        <ele>1492.6</ele>
        <time>2024-08-10T10:34:33Z</time>
      </trkpt>
      <trkpt lat="45.04615" lon="6.31634">
        <ele>1492.6</ele>
        <time>2024-08-10T10:34:34Z</time>
      </trkpt>
      <trkpt lat="45.04617" lon="6.31637">
        <ele>1492.6</ele>
        <time>2024-08-10T10:34:35Z</time>
      </trkpt>
      <trkpt lat="45.04619" lon="6.31639">
        <ele>1492.8</ele>
        <time>2024-08-10T10:34:36Z</time>
      </trkpt>
      <trkpt lat="45.04619" lon="6.31639">
        <ele>1492.6</ele>
        <time>2024-08-10T10:34:37Z</time>
      </trkpt>
      <trkpt lat="45.04621" lon="6.31642">
        <ele>1492.6</ele>
        <time>2024-08-10T10:34:38Z</time>
      </trkpt>
      <trkpt lat="45.04621" lon="6.31642">
        <ele>1492.4</ele>
        <time>2024-08-10T10:34:39Z</time>
      </trkpt>
      <trkpt lat="45.04621" lon="6.31646">
        <ele>1492.4</ele>
        <time>2024-08-10T10:34:40Z</time>
      </trkpt>
      <trkpt lat="45.04621" lon="6.31646">
        <ele>1492.4</ele>
        <time>2024-08-10T10:34:41Z</time>
      </trkpt>
      <trkpt lat="45.04622" lon="6.31649">
        <ele>1492.2</ele>
        <time>2024-08-10T10:34:42Z</time>
      </trkpt>
      <trkpt lat="45.04622" lon="6.31649">
        <ele>1492.2</ele>
        <time>2024-08-10T10:34:43Z</time>
      </trkpt>
      <trkpt lat="45.04622" lon="6.31649">
        <ele>1492.2</ele>
        <time>2024-08-10T10:34:44Z</time>
      </trkpt>
      <trkpt lat="45.04622" lon="6.31652">
        <ele>1492.2</ele>
        <time>2024-08-10T10:34:45Z</time>
      </trkpt>
      <trkpt lat="45.04622" lon="6.31652">
        <ele>1492.2</ele>
        <time>2024-08-10T10:34:46Z</time>
      </trkpt>
      <trkpt lat="45.04622" lon="6.31655">
        <ele>1492</ele>
        <time>2024-08-10T10:34:47Z</time>
      </trkpt>
      <trkpt lat="45.04622" lon="6.31655">
        <ele>1491.8</ele>
        <time>2024-08-10T10:34:48Z</time>
      </trkpt>
      <trkpt lat="45.04623" lon="6.31658">
        <ele>1491.8</ele>
        <time>2024-08-10T10:34:49Z</time>
      </trkpt>
      <trkpt lat="45.04623" lon="6.31658">
        <ele>1491.6</ele>
        <time>2024-08-10T10:34:50Z</time>
      </trkpt>
      <trkpt lat="45.04624" lon="6.31662">
        <ele>1491.6</ele>
        <time>2024-08-10T10:34:51Z</time>
      </trkpt>
      <trkpt lat="45.04624" lon="6.31662">
        <ele>1491.6</ele>
        <time>2024-08-10T10:34:52Z</time>
      </trkpt>
      <trkpt lat="45.04625" lon="6.31665">
        <ele>1491.6</ele>
        <time>2024-08-10T10:34:53Z</time>
      </trkpt>
      <trkpt lat="45.04625" lon="6.31665">
        <ele>1491.6</ele>
        <time>2024-08-10T10:34:54Z</time>
      </trkpt>
      <trkpt lat="45.04625" lon="6.31668">
        <ele>1491.2</ele>
        <time>2024-08-10T10:34:55Z</time>
      </trkpt>
      <trkpt lat="45.04625" lon="6.31668">
        <ele>1491.2</ele>
        <time>2024-08-10T10:34:56Z</time>
      </trkpt>
      <trkpt lat="45.04626" lon="6.31671">
        <ele>1491.2</ele>
        <time>2024-08-10T10:34:57Z</time>
      </trkpt>
      <trkpt lat="45.04626" lon="6.31671">
        <ele>1491.2</ele>
        <time>2024-08-10T10:34:58Z</time>
      </trkpt>
      <trkpt lat="45.04627" lon="6.31674">
        <ele>1491</ele>
        <time>2024-08-10T10:34:59Z</time>
      </trkpt>
      <trkpt lat="45.04627" lon="6.31674">
        <ele>1491</ele>
        <time>2024-08-10T10:35:00Z</time>
      </trkpt>
      <trkpt lat="45.04628" lon="6.31677">
        <ele>1490.8</ele>
        <time>2024-08-10T10:35:01Z</time>
      </trkpt>
      <trkpt lat="45.04628" lon="6.31677">
        <ele>1490.6</ele>
        <time>2024-08-10T10:35:02Z</time>
      </trkpt>
      <trkpt lat="45.04629" lon="6.3168">
        <ele>1490.8</ele>
        <time>2024-08-10T10:35:03Z</time>
      </trkpt>
      <trkpt lat="45.04629" lon="6.3168">
        <ele>1490.8</ele>
        <time>2024-08-10T10:35:04Z</time>
      </trkpt>
      <trkpt lat="45.0463" lon="6.31684">
        <ele>1491</ele>
        <time>2024-08-10T10:35:05Z</time>
      </trkpt>
      <trkpt lat="45.0463" lon="6.31684">
        <ele>1491</ele>
        <time>2024-08-10T10:35:06Z</time>
      </trkpt>
      <trkpt lat="45.04631" lon="6.31687">
        <ele>1491.2</ele>
        <time>2024-08-10T10:35:07Z</time>
      </trkpt>
      <trkpt lat="45.04631" lon="6.31687">
        <ele>1491.2</ele>
        <time>2024-08-10T10:35:08Z</time>
      </trkpt>
      <trkpt lat="45.04633" lon="6.31689">
        <ele>1491.2</ele>
        <time>2024-08-10T10:35:09Z</time>
      </trkpt>
      <trkpt lat="45.04633" lon="6.31689">
        <ele>1491.2</ele>
        <time>2024-08-10T10:35:10Z</time>
      </trkpt>
      <trkpt lat="45.04634" lon="6.31692">
        <ele>1491.2</ele>
        <time>2024-08-10T10:35:11Z</time>
      </trkpt>
      <trkpt lat="45.04635" lon="6.31694">
        <ele>1491.2</ele>
        <time>2024-08-10T10:35:12Z</time>
      </trkpt>
      <trkpt lat="45.04635" lon="6.31694">
        <ele>1491.2</ele>
        <time>2024-08-10T10:35:13Z</time>
      </trkpt>
      <trkpt lat="45.04637" lon="6.31698">
        <ele>1491.4</ele>
        <time>2024-08-10T10:35:14Z</time>
      </trkpt>
      <trkpt lat="45.04637" lon="6.31698">
        <ele>1491.4</ele>
        <time>2024-08-10T10:35:15Z</time>
      </trkpt>
      <trkpt lat="45.04637" lon="6.31701">
        <ele>1491.4</ele>
        <time>2024-08-10T10:35:16Z</time>
      </trkpt>
      <trkpt lat="45.04637" lon="6.31701">
        <ele>1491.4</ele>
        <time>2024-08-10T10:35:17Z</time>
      </trkpt>
      <trkpt lat="45.04637" lon="6.31705">
        <ele>1491.2</ele>
        <time>2024-08-10T10:35:18Z</time>
      </trkpt>
      <trkpt lat="45.04637" lon="6.31705">
        <ele>1491.2</ele>
        <time>2024-08-10T10:35:19Z</time>
      </trkpt>
      <trkpt lat="45.04637" lon="6.31709">
        <ele>1491.4</ele>
        <time>2024-08-10T10:35:20Z</time>
      </trkpt>
      <trkpt lat="45.04637" lon="6.31709">
        <ele>1491.4</ele>
        <time>2024-08-10T10:35:21Z</time>
      </trkpt>
      <trkpt lat="45.04637" lon="6.31713">
        <ele>1491.4</ele>
        <time>2024-08-10T10:35:22Z</time>
      </trkpt>
      <trkpt lat="45.04637" lon="6.31713">
        <ele>1491.6</ele>
        <time>2024-08-10T10:35:23Z</time>
      </trkpt>
      <trkpt lat="45.04637" lon="6.31717">
        <ele>1491.4</ele>
        <time>2024-08-10T10:35:24Z</time>
      </trkpt>
      <trkpt lat="45.04637" lon="6.31717">
        <ele>1491.4</ele>
        <time>2024-08-10T10:35:25Z</time>
      </trkpt>
      <trkpt lat="45.04637" lon="6.31721">
        <ele>1491.4</ele>
        <time>2024-08-10T10:35:26Z</time>
      </trkpt>
      <trkpt lat="45.04637" lon="6.31721">
        <ele>1491.4</ele>
        <time>2024-08-10T10:35:27Z</time>
      </trkpt>
      <trkpt lat="45.04637" lon="6.31725">
        <ele>1491.4</ele>
        <time>2024-08-10T10:35:28Z</time>
      </trkpt>
      <trkpt lat="45.04637" lon="6.31725">
        <ele>1491.4</ele>
        <time>2024-08-10T10:35:29Z</time>
      </trkpt>
      <trkpt lat="45.04638" lon="6.31728">
        <ele>1491.4</ele>
        <time>2024-08-10T10:35:30Z</time>
      </trkpt>
      <trkpt lat="45.04638" lon="6.31728">
        <ele>1491.6</ele>
        <time>2024-08-10T10:35:31Z</time>
      </trkpt>
      <trkpt lat="45.04639" lon="6.31731">
        <ele>1491.6</ele>
        <time>2024-08-10T10:35:32Z</time>
      </trkpt>
      <trkpt lat="45.04639" lon="6.31731">
        <ele>1491.6</ele>
        <time>2024-08-10T10:35:33Z</time>
      </trkpt>
      <trkpt lat="45.04641" lon="6.31734">
        <ele>1491.4</ele>
        <time>2024-08-10T10:35:34Z</time>
      </trkpt>
      <trkpt lat="45.04641" lon="6.31734">
        <ele>1491.4</ele>
        <time>2024-08-10T10:35:35Z</time>
      </trkpt>
      <trkpt lat="45.04642" lon="6.31738">
        <ele>1491.4</ele>
        <time>2024-08-10T10:35:36Z</time>
      </trkpt>
      <trkpt lat="45.04642" lon="6.31738">
        <ele>1491.2</ele>
        <time>2024-08-10T10:35:37Z</time>
      </trkpt>
      <trkpt lat="45.04643" lon="6.31741">
        <ele>1491.2</ele>
        <time>2024-08-10T10:35:38Z</time>
      </trkpt>
      <trkpt lat="45.04643" lon="6.31741">
        <ele>1491</ele>
        <time>2024-08-10T10:35:39Z</time>
      </trkpt>
      <trkpt lat="45.04643" lon="6.31744">
        <ele>1491</ele>
        <time>2024-08-10T10:35:40Z</time>
      </trkpt>
      <trkpt lat="45.04643" lon="6.31744">
        <ele>1491</ele>
        <time>2024-08-10T10:35:41Z</time>
      </trkpt>
      <trkpt lat="45.04643" lon="6.31748">
        <ele>1491</ele>
        <time>2024-08-10T10:35:42Z</time>
      </trkpt>
      <trkpt lat="45.04643" lon="6.31748">
        <ele>1490.8</ele>
        <time>2024-08-10T10:35:43Z</time>
      </trkpt>
      <trkpt lat="45.04643" lon="6.31748">
        <ele>1490.6</ele>
        <time>2024-08-10T10:35:44Z</time>
      </trkpt>
      <trkpt lat="45.04644" lon="6.31752">
        <ele>1490.6</ele>
        <time>2024-08-10T10:35:45Z</time>
      </trkpt>
      <trkpt lat="45.04644" lon="6.31752">
        <ele>1490.4</ele>
        <time>2024-08-10T10:35:46Z</time>
      </trkpt>
      <trkpt lat="45.04644" lon="6.31754">
        <ele>1490.4</ele>
        <time>2024-08-10T10:35:47Z</time>
      </trkpt>
      <trkpt lat="45.04644" lon="6.31754">
        <ele>1490.4</ele>
        <time>2024-08-10T10:35:48Z</time>
      </trkpt>
      <trkpt lat="45.04645" lon="6.31757">
        <ele>1490.8</ele>
        <time>2024-08-10T10:35:49Z</time>
      </trkpt>
      <trkpt lat="45.04645" lon="6.31757">
        <ele>1490.8</ele>
        <time>2024-08-10T10:35:50Z</time>
      </trkpt>
      <trkpt lat="45.04645" lon="6.31761">
        <ele>1491</ele>
        <time>2024-08-10T10:35:51Z</time>
      </trkpt>
      <trkpt lat="45.04645" lon="6.31761">
        <ele>1491.2</ele>
        <time>2024-08-10T10:35:52Z</time>
      </trkpt>
      <trkpt lat="45.04646" lon="6.31763">
        <ele>1491.4</ele>
        <time>2024-08-10T10:35:53Z</time>
      </trkpt>
      <trkpt lat="45.04646" lon="6.31763">
        <ele>1491.4</ele>
        <time>2024-08-10T10:35:54Z</time>
      </trkpt>
      <trkpt lat="45.04647" lon="6.31766">
        <ele>1491.4</ele>
        <time>2024-08-10T10:35:55Z</time>
      </trkpt>
      <trkpt lat="45.04647" lon="6.31766">
        <ele>1491.6</ele>
        <time>2024-08-10T10:35:56Z</time>
      </trkpt>
      <trkpt lat="45.04649" lon="6.31769">
        <ele>1491.8</ele>
        <time>2024-08-10T10:35:57Z</time>
      </trkpt>
      <trkpt lat="45.04649" lon="6.31769">
        <ele>1492</ele>
        <time>2024-08-10T10:35:58Z</time>
      </trkpt>
      <trkpt lat="45.04649" lon="6.31772">
        <ele>1492</ele>
        <time>2024-08-10T10:35:59Z</time>
      </trkpt>
      <trkpt lat="45.04649" lon="6.31772">
        <ele>1492</ele>
        <time>2024-08-10T10:36:00Z</time>
      </trkpt>
      <trkpt lat="45.04652" lon="6.31775">
        <ele>1492</ele>
        <time>2024-08-10T10:36:01Z</time>
      </trkpt>
      <trkpt lat="45.04652" lon="6.31775">
        <ele>1492</ele>
        <time>2024-08-10T10:36:02Z</time>
      </trkpt>
      <trkpt lat="45.04653" lon="6.31777">
        <ele>1492</ele>
        <time>2024-08-10T10:36:03Z</time>
      </trkpt>
      <trkpt lat="45.04653" lon="6.31777">
        <ele>1492</ele>
        <time>2024-08-10T10:36:04Z</time>
      </trkpt>
      <trkpt lat="45.04655" lon="6.3178">
        <ele>1491.8</ele>
        <time>2024-08-10T10:36:05Z</time>
      </trkpt>
      <trkpt lat="45.04655" lon="6.3178">
        <ele>1491.6</ele>
        <time>2024-08-10T10:36:06Z</time>
      </trkpt>
      <trkpt lat="45.04656" lon="6.31783">
        <ele>1491.6</ele>
        <time>2024-08-10T10:36:07Z</time>
      </trkpt>
      <trkpt lat="45.04656" lon="6.31783">
        <ele>1491.8</ele>
        <time>2024-08-10T10:36:08Z</time>
      </trkpt>
      <trkpt lat="45.04657" lon="6.31787">
        <ele>1492</ele>
        <time>2024-08-10T10:36:09Z</time>
      </trkpt>
      <trkpt lat="45.04658" lon="6.31789">
        <ele>1492</ele>
        <time>2024-08-10T10:36:10Z</time>
      </trkpt>
      <trkpt lat="45.04658" lon="6.31789">
        <ele>1492</ele>
        <time>2024-08-10T10:36:11Z</time>
      </trkpt>
      <trkpt lat="45.04659" lon="6.31792">
        <ele>1492.2</ele>
        <time>2024-08-10T10:36:12Z</time>
      </trkpt>
      <trkpt lat="45.04659" lon="6.31792">
        <ele>1492.2</ele>
        <time>2024-08-10T10:36:13Z</time>
      </trkpt>
      <trkpt lat="45.04659" lon="6.31796">
        <ele>1492.2</ele>
        <time>2024-08-10T10:36:14Z</time>
      </trkpt>
      <trkpt lat="45.04659" lon="6.31796">
        <ele>1492.2</ele>
        <time>2024-08-10T10:36:15Z</time>
      </trkpt>
      <trkpt lat="45.0466" lon="6.31799">
        <ele>1492.2</ele>
        <time>2024-08-10T10:36:16Z</time>
      </trkpt>
      <trkpt lat="45.0466" lon="6.31799">
        <ele>1492.4</ele>
        <time>2024-08-10T10:36:17Z</time>
      </trkpt>
      <trkpt lat="45.0466" lon="6.31799">
        <ele>1492.6</ele>
        <time>2024-08-10T10:36:18Z</time>
      </trkpt>
      <trkpt lat="45.0466" lon="6.31799">
        <ele>1492.8</ele>
        <time>2024-08-10T10:36:19Z</time>
      </trkpt>
      <trkpt lat="45.0466" lon="6.31799">
        <ele>1492.8</ele>
        <time>2024-08-10T10:36:20Z</time>
      </trkpt>
      <trkpt lat="45.0466" lon="6.31799">
        <ele>1492.8</ele>
        <time>2024-08-10T10:36:21Z</time>
      </trkpt>
      <trkpt lat="45.0466" lon="6.31799">
        <ele>1492.8</ele>
        <time>2024-08-10T10:36:22Z</time>
      </trkpt>
      <trkpt lat="45.0466" lon="6.31799">
        <ele>1493</ele>
        <time>2024-08-10T10:36:23Z</time>
      </trkpt>
      <trkpt lat="45.0466" lon="6.31799">
        <ele>1493.4</ele>
        <time>2024-08-10T10:36:24Z</time>
      </trkpt>
      <trkpt lat="45.0466" lon="6.31799">
        <ele>1493.4</ele>
        <time>2024-08-10T10:36:25Z</time>
      </trkpt>
      <trkpt lat="45.0466" lon="6.31799">
        <ele>1493.4</ele>
        <time>2024-08-10T10:36:26Z</time>
      </trkpt>
      <trkpt lat="45.0466" lon="6.31799">
        <ele>1493.2</ele>
        <time>2024-08-10T10:36:27Z</time>
      </trkpt>
      <trkpt lat="45.0466" lon="6.31799">
        <ele>1493.2</ele>
        <time>2024-08-10T10:36:28Z</time>
      </trkpt>
      <trkpt lat="45.0466" lon="6.31799">
        <ele>1493.2</ele>
        <time>2024-08-10T10:36:29Z</time>
      </trkpt>
      <trkpt lat="45.0466" lon="6.31799">
        <ele>1493.2</ele>
        <time>2024-08-10T10:36:30Z</time>
      </trkpt>
      <trkpt lat="45.0466" lon="6.31799">
        <ele>1493.2</ele>
        <time>2024-08-10T10:36:31Z</time>
      </trkpt>
      <trkpt lat="45.0466" lon="6.31799">
        <ele>1493.2</ele>
        <time>2024-08-10T10:36:32Z</time>
      </trkpt>
      <trkpt lat="45.0466" lon="6.31799">
        <ele>1493.2</ele>
        <time>2024-08-10T10:36:33Z</time>
      </trkpt>
      <trkpt lat="45.0466" lon="6.31799">
        <ele>1493.2</ele>
        <time>2024-08-10T10:36:34Z</time>
      </trkpt>
      <trkpt lat="45.0466" lon="6.31799">
        <ele>1493.4</ele>
        <time>2024-08-10T10:36:35Z</time>
      </trkpt>
      <trkpt lat="45.0466" lon="6.31799">
        <ele>1493.4</ele>
        <time>2024-08-10T10:36:36Z</time>
      </trkpt>
      <trkpt lat="45.0466" lon="6.31799">
        <ele>1493.4</ele>
        <time>2024-08-10T10:36:37Z</time>
      </trkpt>
      <trkpt lat="45.0466" lon="6.31799">
        <ele>1493.6</ele>
        <time>2024-08-10T10:36:38Z</time>
      </trkpt>
      <trkpt lat="45.0466" lon="6.31799">
        <ele>1493.6</ele>
        <time>2024-08-10T10:36:39Z</time>
      </trkpt>
      <trkpt lat="45.0466" lon="6.31801">
        <ele>1493.2</ele>
        <time>2024-08-10T10:36:40Z</time>
      </trkpt>
      <trkpt lat="45.0466" lon="6.31801">
        <ele>1493</ele>
        <time>2024-08-10T10:36:41Z</time>
      </trkpt>
      <trkpt lat="45.04662" lon="6.31805">
        <ele>1493</ele>
        <time>2024-08-10T10:36:42Z</time>
      </trkpt>
      <trkpt lat="45.04662" lon="6.31805">
        <ele>1493</ele>
        <time>2024-08-10T10:36:43Z</time>
      </trkpt>
      <trkpt lat="45.04664" lon="6.31808">
        <ele>1493.2</ele>
        <time>2024-08-10T10:36:44Z</time>
      </trkpt>
      <trkpt lat="45.04664" lon="6.31808">
        <ele>1493.2</ele>
        <time>2024-08-10T10:36:45Z</time>
      </trkpt>
      <trkpt lat="45.04667" lon="6.3181">
        <ele>1493.4</ele>
        <time>2024-08-10T10:36:46Z</time>
      </trkpt>
      <trkpt lat="45.04667" lon="6.3181">
        <ele>1493.4</ele>
        <time>2024-08-10T10:36:47Z</time>
      </trkpt>
      <trkpt lat="45.04668" lon="6.31813">
        <ele>1493.6</ele>
        <time>2024-08-10T10:36:48Z</time>
      </trkpt>
      <trkpt lat="45.04668" lon="6.31813">
        <ele>1493.8</ele>
        <time>2024-08-10T10:36:49Z</time>
      </trkpt>
      <trkpt lat="45.04669" lon="6.31816">
        <ele>1493.6</ele>
        <time>2024-08-10T10:36:50Z</time>
      </trkpt>
      <trkpt lat="45.04669" lon="6.31816">
        <ele>1493.8</ele>
        <time>2024-08-10T10:36:51Z</time>
      </trkpt>
      <trkpt lat="45.04671" lon="6.31818">
        <ele>1493.8</ele>
        <time>2024-08-10T10:36:52Z</time>
      </trkpt>
      <trkpt lat="45.04671" lon="6.31818">
        <ele>1494</ele>
        <time>2024-08-10T10:36:53Z</time>
      </trkpt>
      <trkpt lat="45.04671" lon="6.31821">
        <ele>1494.2</ele>
        <time>2024-08-10T10:36:54Z</time>
      </trkpt>
      <trkpt lat="45.04671" lon="6.31821">
        <ele>1494.6</ele>
        <time>2024-08-10T10:36:55Z</time>
      </trkpt>
      <trkpt lat="45.04672" lon="6.31825">
        <ele>1494.8</ele>
        <time>2024-08-10T10:36:56Z</time>
      </trkpt>
      <trkpt lat="45.04672" lon="6.31825">
        <ele>1494.8</ele>
        <time>2024-08-10T10:36:57Z</time>
      </trkpt>
      <trkpt lat="45.04673" lon="6.31828">
        <ele>1494.4</ele>
        <time>2024-08-10T10:36:58Z</time>
      </trkpt>
      <trkpt lat="45.04673" lon="6.31828">
        <ele>1494.4</ele>
        <time>2024-08-10T10:36:59Z</time>
      </trkpt>
      <trkpt lat="45.04674" lon="6.31831">
        <ele>1494.6</ele>
        <time>2024-08-10T10:37:00Z</time>
      </trkpt>
      <trkpt lat="45.04674" lon="6.31831">
        <ele>1494.8</ele>
        <time>2024-08-10T10:37:01Z</time>
      </trkpt>
      <trkpt lat="45.04675" lon="6.31834">
        <ele>1494.8</ele>
        <time>2024-08-10T10:37:02Z</time>
      </trkpt>
      <trkpt lat="45.04675" lon="6.31834">
        <ele>1494.8</ele>
        <time>2024-08-10T10:37:03Z</time>
      </trkpt>
      <trkpt lat="45.04676" lon="6.31837">
        <ele>1494.8</ele>
        <time>2024-08-10T10:37:04Z</time>
      </trkpt>
      <trkpt lat="45.04676" lon="6.31837">
        <ele>1494.6</ele>
        <time>2024-08-10T10:37:05Z</time>
      </trkpt>
      <trkpt lat="45.04677" lon="6.3184">
        <ele>1494.4</ele>
        <time>2024-08-10T10:37:06Z</time>
      </trkpt>
      <trkpt lat="45.04677" lon="6.3184">
        <ele>1494.4</ele>
        <time>2024-08-10T10:37:07Z</time>
      </trkpt>
      <trkpt lat="45.04678" lon="6.31843">
        <ele>1494.8</ele>
        <time>2024-08-10T10:37:08Z</time>
      </trkpt>
      <trkpt lat="45.04678" lon="6.31843">
        <ele>1495.2</ele>
        <time>2024-08-10T10:37:09Z</time>
      </trkpt>
      <trkpt lat="45.0468" lon="6.31846">
        <ele>1495.4</ele>
        <time>2024-08-10T10:37:10Z</time>
      </trkpt>
      <trkpt lat="45.0468" lon="6.31846">
        <ele>1495.4</ele>
        <time>2024-08-10T10:37:11Z</time>
      </trkpt>
      <trkpt lat="45.04681" lon="6.31849">
        <ele>1495.4</ele>
        <time>2024-08-10T10:37:12Z</time>
      </trkpt>
      <trkpt lat="45.04681" lon="6.31849">
        <ele>1496</ele>
        <time>2024-08-10T10:37:13Z</time>
      </trkpt>
      <trkpt lat="45.04684" lon="6.31851">
        <ele>1496</ele>
        <time>2024-08-10T10:37:14Z</time>
      </trkpt>
      <trkpt lat="45.04684" lon="6.31851">
        <ele>1496</ele>
        <time>2024-08-10T10:37:15Z</time>
      </trkpt>
      <trkpt lat="45.04684" lon="6.31851">
        <ele>1495.8</ele>
        <time>2024-08-10T10:37:16Z</time>
      </trkpt>
      <trkpt lat="45.04686" lon="6.31853">
        <ele>1495.8</ele>
        <time>2024-08-10T10:37:17Z</time>
      </trkpt>
      <trkpt lat="45.04686" lon="6.31853">
        <ele>1496</ele>
        <time>2024-08-10T10:37:18Z</time>
      </trkpt>
      <trkpt lat="45.04689" lon="6.31853">
        <ele>1496.2</ele>
        <time>2024-08-10T10:37:19Z</time>
      </trkpt>
      <trkpt lat="45.04689" lon="6.31853">
        <ele>1496.4</ele>
        <time>2024-08-10T10:37:20Z</time>
      </trkpt>
      <trkpt lat="45.04691" lon="6.31854">
        <ele>1496.6</ele>
        <time>2024-08-10T10:37:21Z</time>
      </trkpt>
      <trkpt lat="45.04691" lon="6.31854">
        <ele>1496.6</ele>
        <time>2024-08-10T10:37:22Z</time>
      </trkpt>
      <trkpt lat="45.04693" lon="6.31855">
        <ele>1496.6</ele>
        <time>2024-08-10T10:37:23Z</time>
      </trkpt>
      <trkpt lat="45.04693" lon="6.31855">
        <ele>1496.8</ele>
        <time>2024-08-10T10:37:24Z</time>
      </trkpt>
      <trkpt lat="45.04695" lon="6.31856">
        <ele>1497</ele>
        <time>2024-08-10T10:37:25Z</time>
      </trkpt>
      <trkpt lat="45.04695" lon="6.31856">
        <ele>1497</ele>
        <time>2024-08-10T10:37:26Z</time>
      </trkpt>
      <trkpt lat="45.04697" lon="6.31858">
        <ele>1496.8</ele>
        <time>2024-08-10T10:37:27Z</time>
      </trkpt>
      <trkpt lat="45.04697" lon="6.31858">
        <ele>1496.8</ele>
        <time>2024-08-10T10:37:28Z</time>
      </trkpt>
      <trkpt lat="45.04699" lon="6.3186">
        <ele>1497.2</ele>
        <time>2024-08-10T10:37:29Z</time>
      </trkpt>
      <trkpt lat="45.04699" lon="6.3186">
        <ele>1497.2</ele>
        <time>2024-08-10T10:37:30Z</time>
      </trkpt>
      <trkpt lat="45.04702" lon="6.31863">
        <ele>1497.4</ele>
        <time>2024-08-10T10:37:31Z</time>
      </trkpt>
      <trkpt lat="45.04702" lon="6.31863">
        <ele>1497.4</ele>
        <time>2024-08-10T10:37:32Z</time>
      </trkpt>
      <trkpt lat="45.04702" lon="6.31866">
        <ele>1497.6</ele>
        <time>2024-08-10T10:37:33Z</time>
      </trkpt>
      <trkpt lat="45.04702" lon="6.31866">
        <ele>1497.6</ele>
        <time>2024-08-10T10:37:34Z</time>
      </trkpt>
      <trkpt lat="45.04703" lon="6.3187">
        <ele>1497.8</ele>
        <time>2024-08-10T10:37:35Z</time>
      </trkpt>
      <trkpt lat="45.04703" lon="6.3187">
        <ele>1497.8</ele>
        <time>2024-08-10T10:37:36Z</time>
      </trkpt>
      <trkpt lat="45.04704" lon="6.31874">
        <ele>1498</ele>
        <time>2024-08-10T10:37:37Z</time>
      </trkpt>
      <trkpt lat="45.04704" lon="6.31874">
        <ele>1498.2</ele>
        <time>2024-08-10T10:37:38Z</time>
      </trkpt>
      <trkpt lat="45.04704" lon="6.31877">
        <ele>1498.4</ele>
        <time>2024-08-10T10:37:39Z</time>
      </trkpt>
      <trkpt lat="45.04704" lon="6.31877">
        <ele>1498.4</ele>
        <time>2024-08-10T10:37:40Z</time>
      </trkpt>
      <trkpt lat="45.04704" lon="6.3188">
        <ele>1498.4</ele>
        <time>2024-08-10T10:37:41Z</time>
      </trkpt>
      <trkpt lat="45.04704" lon="6.3188">
        <ele>1498.2</ele>
        <time>2024-08-10T10:37:42Z</time>
      </trkpt>
      <trkpt lat="45.04704" lon="6.3188">
        <ele>1498.4</ele>
        <time>2024-08-10T10:37:43Z</time>
      </trkpt>
      <trkpt lat="45.04704" lon="6.3188">
        <ele>1498.4</ele>
        <time>2024-08-10T10:37:44Z</time>
      </trkpt>
      <trkpt lat="45.04704" lon="6.3188">
        <ele>1498.4</ele>
        <time>2024-08-10T10:37:45Z</time>
      </trkpt>
      <trkpt lat="45.04704" lon="6.3188">
        <ele>1498.6</ele>
        <time>2024-08-10T10:37:46Z</time>
      </trkpt>
      <trkpt lat="45.04704" lon="6.3188">
        <ele>1498.6</ele>
        <time>2024-08-10T10:37:47Z</time>
      </trkpt>
      <trkpt lat="45.04704" lon="6.3188">
        <ele>1498.8</ele>
        <time>2024-08-10T10:37:48Z</time>
      </trkpt>
      <trkpt lat="45.04704" lon="6.3188">
        <ele>1499.2</ele>
        <time>2024-08-10T10:37:49Z</time>
      </trkpt>
      <trkpt lat="45.04704" lon="6.3188">
        <ele>1499.4</ele>
        <time>2024-08-10T10:37:50Z</time>
      </trkpt>
      <trkpt lat="45.04704" lon="6.3188">
        <ele>1499.2</ele>
        <time>2024-08-10T10:37:51Z</time>
      </trkpt>
      <trkpt lat="45.04704" lon="6.3188">
        <ele>1499.2</ele>
        <time>2024-08-10T10:37:52Z</time>
      </trkpt>
      <trkpt lat="45.04704" lon="6.3188">
        <ele>1498.8</ele>
        <time>2024-08-10T10:37:53Z</time>
      </trkpt>
      <trkpt lat="45.04704" lon="6.3188">
        <ele>1498.6</ele>
        <time>2024-08-10T10:37:54Z</time>
      </trkpt>
      <trkpt lat="45.04704" lon="6.3188">
        <ele>1498.6</ele>
        <time>2024-08-10T10:37:55Z</time>
      </trkpt>
      <trkpt lat="45.04704" lon="6.3188">
        <ele>1498.4</ele>
        <time>2024-08-10T10:37:56Z</time>
      </trkpt>
      <trkpt lat="45.04704" lon="6.3188">
        <ele>1498.4</ele>
        <time>2024-08-10T10:37:57Z</time>
      </trkpt>
      <trkpt lat="45.04704" lon="6.3188">
        <ele>1498.2</ele>
        <time>2024-08-10T10:37:58Z</time>
      </trkpt>
      <trkpt lat="45.04704" lon="6.3188">
        <ele>1498.2</ele>
        <time>2024-08-10T10:37:59Z</time>
      </trkpt>
      <trkpt lat="45.04704" lon="6.31883">
        <ele>1498.4</ele>
        <time>2024-08-10T10:38:00Z</time>
      </trkpt>
      <trkpt lat="45.04704" lon="6.31883">
        <ele>1498.4</ele>
        <time>2024-08-10T10:38:01Z</time>
      </trkpt>
      <trkpt lat="45.04704" lon="6.31887">
        <ele>1498.2</ele>
        <time>2024-08-10T10:38:02Z</time>
      </trkpt>
      <trkpt lat="45.04704" lon="6.31887">
        <ele>1498.4</ele>
        <time>2024-08-10T10:38:03Z</time>
      </trkpt>
      <trkpt lat="45.04704" lon="6.31892">
        <ele>1498.4</ele>
        <time>2024-08-10T10:38:04Z</time>
      </trkpt>
      <trkpt lat="45.04704" lon="6.31892">
        <ele>1498.4</ele>
        <time>2024-08-10T10:38:05Z</time>
      </trkpt>
      <trkpt lat="45.04704" lon="6.31895">
        <ele>1498.6</ele>
        <time>2024-08-10T10:38:06Z</time>
      </trkpt>
      <trkpt lat="45.04704" lon="6.31895">
        <ele>1498.6</ele>
        <time>2024-08-10T10:38:07Z</time>
      </trkpt>
      <trkpt lat="45.04703" lon="6.31899">
        <ele>1498.6</ele>
        <time>2024-08-10T10:38:08Z</time>
      </trkpt>
      <trkpt lat="45.04703" lon="6.31899">
        <ele>1498.8</ele>
        <time>2024-08-10T10:38:09Z</time>
      </trkpt>
      <trkpt lat="45.04702" lon="6.31902">
        <ele>1498.8</ele>
        <time>2024-08-10T10:38:10Z</time>
      </trkpt>
      <trkpt lat="45.04702" lon="6.31902">
        <ele>1499</ele>
        <time>2024-08-10T10:38:11Z</time>
      </trkpt>
      <trkpt lat="45.04702" lon="6.31906">
        <ele>1499</ele>
        <time>2024-08-10T10:38:12Z</time>
      </trkpt>
      <trkpt lat="45.04702" lon="6.31906">
        <ele>1499.2</ele>
        <time>2024-08-10T10:38:13Z</time>
      </trkpt>
      <trkpt lat="45.047" lon="6.3191">
        <ele>1499.6</ele>
        <time>2024-08-10T10:38:14Z</time>
      </trkpt>
      <trkpt lat="45.047" lon="6.3191">
        <ele>1499.6</ele>
        <time>2024-08-10T10:38:15Z</time>
      </trkpt>
      <trkpt lat="45.04699" lon="6.31912">
        <ele>1499.6</ele>
        <time>2024-08-10T10:38:16Z</time>
      </trkpt>
      <trkpt lat="45.04699" lon="6.31912">
        <ele>1499.4</ele>
        <time>2024-08-10T10:38:17Z</time>
      </trkpt>
      <trkpt lat="45.04697" lon="6.31914">
        <ele>1499.4</ele>
        <time>2024-08-10T10:38:18Z</time>
      </trkpt>
      <trkpt lat="45.04697" lon="6.31914">
        <ele>1499.4</ele>
        <time>2024-08-10T10:38:19Z</time>
      </trkpt>
      <trkpt lat="45.04696" lon="6.31917">
        <ele>1499.4</ele>
        <time>2024-08-10T10:38:20Z</time>
      </trkpt>
      <trkpt lat="45.04696" lon="6.31917">
        <ele>1499.4</ele>
        <time>2024-08-10T10:38:21Z</time>
      </trkpt>
      <trkpt lat="45.04695" lon="6.3192">
        <ele>1499.8</ele>
        <time>2024-08-10T10:38:22Z</time>
      </trkpt>
      <trkpt lat="45.04695" lon="6.3192">
        <ele>1500.2</ele>
        <time>2024-08-10T10:38:23Z</time>
      </trkpt>
      <trkpt lat="45.04693" lon="6.31923">
        <ele>1500.2</ele>
        <time>2024-08-10T10:38:24Z</time>
      </trkpt>
      <trkpt lat="45.04693" lon="6.31923">
        <ele>1500.2</ele>
        <time>2024-08-10T10:38:25Z</time>
      </trkpt>
      <trkpt lat="45.04692" lon="6.31926">
        <ele>1500.4</ele>
        <time>2024-08-10T10:38:26Z</time>
      </trkpt>
      <trkpt lat="45.04692" lon="6.31926">
        <ele>1500.4</ele>
        <time>2024-08-10T10:38:27Z</time>
      </trkpt>
      <trkpt lat="45.04692" lon="6.31926">
        <ele>1500.4</ele>
        <time>2024-08-10T10:38:28Z</time>
      </trkpt>
      <trkpt lat="45.04692" lon="6.31928">
        <ele>1500.2</ele>
        <time>2024-08-10T10:38:29Z</time>
      </trkpt>
      <trkpt lat="45.04692" lon="6.31928">
        <ele>1500.2</ele>
        <time>2024-08-10T10:38:30Z</time>
      </trkpt>
      <trkpt lat="45.04692" lon="6.31932">
        <ele>1500.6</ele>
        <time>2024-08-10T10:38:31Z</time>
      </trkpt>
      <trkpt lat="45.04692" lon="6.31932">
        <ele>1501</ele>
        <time>2024-08-10T10:38:32Z</time>
      </trkpt>
      <trkpt lat="45.04692" lon="6.31936">
        <ele>1501</ele>
        <time>2024-08-10T10:38:33Z</time>
      </trkpt>
      <trkpt lat="45.04692" lon="6.31936">
        <ele>1501</ele>
        <time>2024-08-10T10:38:34Z</time>
      </trkpt>
      <trkpt lat="45.04691" lon="6.31939">
        <ele>1501</ele>
        <time>2024-08-10T10:38:35Z</time>
      </trkpt>
      <trkpt lat="45.04691" lon="6.31939">
        <ele>1501</ele>
        <time>2024-08-10T10:38:36Z</time>
      </trkpt>
      <trkpt lat="45.0469" lon="6.31941">
        <ele>1501</ele>
        <time>2024-08-10T10:38:37Z</time>
      </trkpt>
      <trkpt lat="45.0469" lon="6.31941">
        <ele>1500.8</ele>
        <time>2024-08-10T10:38:38Z</time>
      </trkpt>
      <trkpt lat="45.04689" lon="6.31944">
        <ele>1500.8</ele>
        <time>2024-08-10T10:38:39Z</time>
      </trkpt>
      <trkpt lat="45.04689" lon="6.31944">
        <ele>1500.8</ele>
        <time>2024-08-10T10:38:40Z</time>
      </trkpt>
      <trkpt lat="45.04688" lon="6.31947">
        <ele>1501</ele>
        <time>2024-08-10T10:38:41Z</time>
      </trkpt>
      <trkpt lat="45.04688" lon="6.31947">
        <ele>1501</ele>
        <time>2024-08-10T10:38:42Z</time>
      </trkpt>
      <trkpt lat="45.04687" lon="6.3195">
        <ele>1501.2</ele>
        <time>2024-08-10T10:38:43Z</time>
      </trkpt>
      <trkpt lat="45.04687" lon="6.3195">
        <ele>1501.2</ele>
        <time>2024-08-10T10:38:44Z</time>
      </trkpt>
      <trkpt lat="45.04686" lon="6.31953">
        <ele>1501.2</ele>
        <time>2024-08-10T10:38:45Z</time>
      </trkpt>
      <trkpt lat="45.04686" lon="6.31953">
        <ele>1501.4</ele>
        <time>2024-08-10T10:38:46Z</time>
      </trkpt>
      <trkpt lat="45.04685" lon="6.31957">
        <ele>1501.6</ele>
        <time>2024-08-10T10:38:47Z</time>
      </trkpt>
      <trkpt lat="45.04685" lon="6.31957">
        <ele>1501.8</ele>
        <time>2024-08-10T10:38:48Z</time>
      </trkpt>
      <trkpt lat="45.04685" lon="6.31957">
        <ele>1501.8</ele>
        <time>2024-08-10T10:38:49Z</time>
      </trkpt>
      <trkpt lat="45.04685" lon="6.31957">
        <ele>1501.8</ele>
        <time>2024-08-10T10:38:50Z</time>
      </trkpt>
      <trkpt lat="45.04684" lon="6.31959">
        <ele>1501.8</ele>
        <time>2024-08-10T10:38:51Z</time>
      </trkpt>
      <trkpt lat="45.04684" lon="6.31959">
        <ele>1501.6</ele>
        <time>2024-08-10T10:38:52Z</time>
      </trkpt>
      <trkpt lat="45.04684" lon="6.31963">
        <ele>1501.6</ele>
        <time>2024-08-10T10:38:53Z</time>
      </trkpt>
      <trkpt lat="45.04684" lon="6.31963">
        <ele>1501.6</ele>
        <time>2024-08-10T10:38:54Z</time>
      </trkpt>
      <trkpt lat="45.04684" lon="6.31967">
        <ele>1501.2</ele>
        <time>2024-08-10T10:38:55Z</time>
      </trkpt>
      <trkpt lat="45.04684" lon="6.31967">
        <ele>1501.2</ele>
        <time>2024-08-10T10:38:56Z</time>
      </trkpt>
      <trkpt lat="45.04684" lon="6.3197">
        <ele>1501.4</ele>
        <time>2024-08-10T10:38:57Z</time>
      </trkpt>
      <trkpt lat="45.04684" lon="6.3197">
        <ele>1501.6</ele>
        <time>2024-08-10T10:38:58Z</time>
      </trkpt>
      <trkpt lat="45.04684" lon="6.31973">
        <ele>1501.6</ele>
        <time>2024-08-10T10:38:59Z</time>
      </trkpt>
      <trkpt lat="45.04684" lon="6.31973">
        <ele>1501.6</ele>
        <time>2024-08-10T10:39:00Z</time>
      </trkpt>
      <trkpt lat="45.04683" lon="6.31976">
        <ele>1501.6</ele>
        <time>2024-08-10T10:39:01Z</time>
      </trkpt>
      <trkpt lat="45.04683" lon="6.31976">
        <ele>1501.6</ele>
        <time>2024-08-10T10:39:02Z</time>
      </trkpt>
      <trkpt lat="45.04683" lon="6.31976">
        <ele>1501.6</ele>
        <time>2024-08-10T10:39:03Z</time>
      </trkpt>
      <trkpt lat="45.04682" lon="6.31979">
        <ele>1501.6</ele>
        <time>2024-08-10T10:39:04Z</time>
      </trkpt>
      <trkpt lat="45.04682" lon="6.31979">
        <ele>1501.8</ele>
        <time>2024-08-10T10:39:05Z</time>
      </trkpt>
      <trkpt lat="45.04682" lon="6.31979">
        <ele>1502.2</ele>
        <time>2024-08-10T10:39:06Z</time>
      </trkpt>
      <trkpt lat="45.0468" lon="6.31982">
        <ele>1502.6</ele>
        <time>2024-08-10T10:39:07Z</time>
      </trkpt>
      <trkpt lat="45.0468" lon="6.31982">
        <ele>1502.6</ele>
        <time>2024-08-10T10:39:08Z</time>
      </trkpt>
      <trkpt lat="45.0468" lon="6.31982">
        <ele>1502.8</ele>
        <time>2024-08-10T10:39:09Z</time>
      </trkpt>
      <trkpt lat="45.04679" lon="6.31984">
        <ele>1503.4</ele>
        <time>2024-08-10T10:39:10Z</time>
      </trkpt>
      <trkpt lat="45.04679" lon="6.31984">
        <ele>1503.6</ele>
        <time>2024-08-10T10:39:11Z</time>
      </trkpt>
      <trkpt lat="45.04679" lon="6.31984">
        <ele>1504</ele>
        <time>2024-08-10T10:39:12Z</time>
      </trkpt>
      <trkpt lat="45.04677" lon="6.31988">
        <ele>1504</ele>
        <time>2024-08-10T10:39:13Z</time>
      </trkpt>
      <trkpt lat="45.04677" lon="6.31988">
        <ele>1504.6</ele>
        <time>2024-08-10T10:39:14Z</time>
      </trkpt>
      <trkpt lat="45.04677" lon="6.31988">
        <ele>1504.6</ele>
        <time>2024-08-10T10:39:15Z</time>
      </trkpt>
      <trkpt lat="45.04676" lon="6.31992">
        <ele>1504.6</ele>
        <time>2024-08-10T10:39:16Z</time>
      </trkpt>
      <trkpt lat="45.04676" lon="6.31992">
        <ele>1505</ele>
        <time>2024-08-10T10:39:17Z</time>
      </trkpt>
      <trkpt lat="45.04675" lon="6.31995">
        <ele>1505.2</ele>
        <time>2024-08-10T10:39:18Z</time>
      </trkpt>
      <trkpt lat="45.04675" lon="6.31995">
        <ele>1505.2</ele>
        <time>2024-08-10T10:39:19Z</time>
      </trkpt>
      <trkpt lat="45.04674" lon="6.31997">
        <ele>1505.6</ele>
        <time>2024-08-10T10:39:20Z</time>
      </trkpt>
      <trkpt lat="45.04674" lon="6.31997">
        <ele>1505.6</ele>
        <time>2024-08-10T10:39:21Z</time>
      </trkpt>
      <trkpt lat="45.04672" lon="6.32001">
        <ele>1505.4</ele>
        <time>2024-08-10T10:39:22Z</time>
      </trkpt>
      <trkpt lat="45.04672" lon="6.32001">
        <ele>1505.4</ele>
        <time>2024-08-10T10:39:23Z</time>
      </trkpt>
      <trkpt lat="45.04671" lon="6.32004">
        <ele>1505.6</ele>
        <time>2024-08-10T10:39:24Z</time>
      </trkpt>
      <trkpt lat="45.04671" lon="6.32004">
        <ele>1505.4</ele>
        <time>2024-08-10T10:39:25Z</time>
      </trkpt>
      <trkpt lat="45.04671" lon="6.32004">
        <ele>1505.4</ele>
        <time>2024-08-10T10:39:26Z</time>
      </trkpt>
      <trkpt lat="45.0467" lon="6.32007">
        <ele>1505.4</ele>
        <time>2024-08-10T10:39:27Z</time>
      </trkpt>
      <trkpt lat="45.0467" lon="6.32007">
        <ele>1505.4</ele>
        <time>2024-08-10T10:39:28Z</time>
      </trkpt>
      <trkpt lat="45.0467" lon="6.32007">
        <ele>1505.8</ele>
        <time>2024-08-10T10:39:29Z</time>
      </trkpt>
      <trkpt lat="45.04669" lon="6.32009">
        <ele>1506</ele>
        <time>2024-08-10T10:39:30Z</time>
      </trkpt>
      <trkpt lat="45.04669" lon="6.32009">
        <ele>1506</ele>
        <time>2024-08-10T10:39:31Z</time>
      </trkpt>
      <trkpt lat="45.04669" lon="6.32009">
        <ele>1506.4</ele>
        <time>2024-08-10T10:39:32Z</time>
      </trkpt>
      <trkpt lat="45.04668" lon="6.32012">
        <ele>1506.6</ele>
        <time>2024-08-10T10:39:33Z</time>
      </trkpt>
      <trkpt lat="45.04668" lon="6.32012">
        <ele>1507</ele>
        <time>2024-08-10T10:39:34Z</time>
      </trkpt>
      <trkpt lat="45.04666" lon="6.32014">
        <ele>1507</ele>
        <time>2024-08-10T10:39:35Z</time>
      </trkpt>
      <trkpt lat="45.04666" lon="6.32014">
        <ele>1507.2</ele>
        <time>2024-08-10T10:39:36Z</time>
      </trkpt>
      <trkpt lat="45.04665" lon="6.32016">
        <ele>1507.4</ele>
        <time>2024-08-10T10:39:37Z</time>
      </trkpt>
      <trkpt lat="45.04665" lon="6.32016">
        <ele>1507.6</ele>
        <time>2024-08-10T10:39:38Z</time>
      </trkpt>
      <trkpt lat="45.04665" lon="6.32016">
        <ele>1507.6</ele>
        <time>2024-08-10T10:39:39Z</time>
      </trkpt>
      <trkpt lat="45.04663" lon="6.32018">
        <ele>1507.6</ele>
        <time>2024-08-10T10:39:40Z</time>
      </trkpt>
      <trkpt lat="45.04663" lon="6.32018">
        <ele>1507.6</ele>
        <time>2024-08-10T10:39:41Z</time>
      </trkpt>
      <trkpt lat="45.04661" lon="6.32019">
        <ele>1507.8</ele>
        <time>2024-08-10T10:39:42Z</time>
      </trkpt>
      <trkpt lat="45.04661" lon="6.32019">
        <ele>1508</ele>
        <time>2024-08-10T10:39:43Z</time>
      </trkpt>
      <trkpt lat="45.04661" lon="6.32019">
        <ele>1508.6</ele>
        <time>2024-08-10T10:39:44Z</time>
      </trkpt>
      <trkpt lat="45.04661" lon="6.32021">
        <ele>1508.6</ele>
        <time>2024-08-10T10:39:45Z</time>
      </trkpt>
      <trkpt lat="45.04661" lon="6.32021">
        <ele>1508.8</ele>
        <time>2024-08-10T10:39:46Z</time>
      </trkpt>
      <trkpt lat="45.04661" lon="6.32021">
        <ele>1509</ele>
        <time>2024-08-10T10:39:47Z</time>
      </trkpt>
      <trkpt lat="45.04661" lon="6.32021">
        <ele>1509</ele>
        <time>2024-08-10T10:39:48Z</time>
      </trkpt>
      <trkpt lat="45.04659" lon="6.32024">
        <ele>1509.4</ele>
        <time>2024-08-10T10:39:49Z</time>
      </trkpt>
      <trkpt lat="45.04659" lon="6.32024">
        <ele>1509.6</ele>
        <time>2024-08-10T10:39:50Z</time>
      </trkpt>
      <trkpt lat="45.04659" lon="6.32024">
        <ele>1509.8</ele>
        <time>2024-08-10T10:39:51Z</time>
      </trkpt>
      <trkpt lat="45.04657" lon="6.32025">
        <ele>1510</ele>
        <time>2024-08-10T10:39:52Z</time>
      </trkpt>
      <trkpt lat="45.04657" lon="6.32025">
        <ele>1510</ele>
        <time>2024-08-10T10:39:53Z</time>
      </trkpt>
      <trkpt lat="45.04655" lon="6.32027">
        <ele>1510.4</ele>
        <time>2024-08-10T10:39:54Z</time>
      </trkpt>
      <trkpt lat="45.04655" lon="6.32027">
        <ele>1510.6</ele>
        <time>2024-08-10T10:39:55Z</time>
      </trkpt>
      <trkpt lat="45.04654" lon="6.3203">
        <ele>1510.8</ele>
        <time>2024-08-10T10:39:56Z</time>
      </trkpt>
      <trkpt lat="45.04654" lon="6.3203">
        <ele>1510.8</ele>
        <time>2024-08-10T10:39:57Z</time>
      </trkpt>
      <trkpt lat="45.04653" lon="6.32033">
        <ele>1510.8</ele>
        <time>2024-08-10T10:39:58Z</time>
      </trkpt>
      <trkpt lat="45.04653" lon="6.32033">
        <ele>1511</ele>
        <time>2024-08-10T10:39:59Z</time>
      </trkpt>
      <trkpt lat="45.04653" lon="6.32033">
        <ele>1510.8</ele>
        <time>2024-08-10T10:40:00Z</time>
      </trkpt>
      <trkpt lat="45.04653" lon="6.32036">
        <ele>1511.2</ele>
        <time>2024-08-10T10:40:01Z</time>
      </trkpt>
      <trkpt lat="45.04653" lon="6.32036">
        <ele>1511.2</ele>
        <time>2024-08-10T10:40:02Z</time>
      </trkpt>
      <trkpt lat="45.04653" lon="6.3204">
        <ele>1511.6</ele>
        <time>2024-08-10T10:40:03Z</time>
      </trkpt>
      <trkpt lat="45.04653" lon="6.3204">
        <ele>1511.6</ele>
        <time>2024-08-10T10:40:04Z</time>
      </trkpt>
      <trkpt lat="45.04653" lon="6.32043">
        <ele>1511.8</ele>
        <time>2024-08-10T10:40:05Z</time>
      </trkpt>
      <trkpt lat="45.04653" lon="6.32043">
        <ele>1511.8</ele>
        <time>2024-08-10T10:40:06Z</time>
      </trkpt>
      <trkpt lat="45.04653" lon="6.32047">
        <ele>1511.8</ele>
        <time>2024-08-10T10:40:07Z</time>
      </trkpt>
      <trkpt lat="45.04653" lon="6.32047">
        <ele>1511.8</ele>
        <time>2024-08-10T10:40:08Z</time>
      </trkpt>
      <trkpt lat="45.04654" lon="6.3205">
        <ele>1511.6</ele>
        <time>2024-08-10T10:40:09Z</time>
      </trkpt>
      <trkpt lat="45.04654" lon="6.3205">
        <ele>1511.6</ele>
        <time>2024-08-10T10:40:10Z</time>
      </trkpt>
      <trkpt lat="45.04655" lon="6.32053">
        <ele>1511</ele>
        <time>2024-08-10T10:40:11Z</time>
      </trkpt>
      <trkpt lat="45.04655" lon="6.32053">
        <ele>1510.8</ele>
        <time>2024-08-10T10:40:12Z</time>
      </trkpt>
      <trkpt lat="45.04656" lon="6.32057">
        <ele>1510.8</ele>
        <time>2024-08-10T10:40:13Z</time>
      </trkpt>
      <trkpt lat="45.04656" lon="6.32057">
        <ele>1510.6</ele>
        <time>2024-08-10T10:40:14Z</time>
      </trkpt>
      <trkpt lat="45.04656" lon="6.3206">
        <ele>1510.4</ele>
        <time>2024-08-10T10:40:15Z</time>
      </trkpt>
      <trkpt lat="45.04656" lon="6.3206">
        <ele>1510.8</ele>
        <time>2024-08-10T10:40:16Z</time>
      </trkpt>
      <trkpt lat="45.04655" lon="6.32063">
        <ele>1510.8</ele>
        <time>2024-08-10T10:40:17Z</time>
      </trkpt>
      <trkpt lat="45.04655" lon="6.32063">
        <ele>1510.8</ele>
        <time>2024-08-10T10:40:18Z</time>
      </trkpt>
      <trkpt lat="45.04654" lon="6.32065">
        <ele>1510.8</ele>
        <time>2024-08-10T10:40:19Z</time>
      </trkpt>
      <trkpt lat="45.04654" lon="6.32065">
        <ele>1511</ele>
        <time>2024-08-10T10:40:20Z</time>
      </trkpt>
      <trkpt lat="45.04653" lon="6.32068">
        <ele>1511</ele>
        <time>2024-08-10T10:40:21Z</time>
      </trkpt>
      <trkpt lat="45.04653" lon="6.32068">
        <ele>1511</ele>
        <time>2024-08-10T10:40:22Z</time>
      </trkpt>
      <trkpt lat="45.04653" lon="6.32071">
        <ele>1511</ele>
        <time>2024-08-10T10:40:23Z</time>
      </trkpt>
      <trkpt lat="45.04653" lon="6.32071">
        <ele>1511</ele>
        <time>2024-08-10T10:40:24Z</time>
      </trkpt>
      <trkpt lat="45.04653" lon="6.32074">
        <ele>1510.6</ele>
        <time>2024-08-10T10:40:25Z</time>
      </trkpt>
      <trkpt lat="45.04653" lon="6.32074">
        <ele>1510.6</ele>
        <time>2024-08-10T10:40:26Z</time>
      </trkpt>
      <trkpt lat="45.04653" lon="6.32077">
        <ele>1510.2</ele>
        <time>2024-08-10T10:40:27Z</time>
      </trkpt>
      <trkpt lat="45.04653" lon="6.32077">
        <ele>1510</ele>
        <time>2024-08-10T10:40:28Z</time>
      </trkpt>
      <trkpt lat="45.04652" lon="6.32081">
        <ele>1510</ele>
        <time>2024-08-10T10:40:29Z</time>
      </trkpt>
      <trkpt lat="45.04652" lon="6.32081">
        <ele>1509.8</ele>
        <time>2024-08-10T10:40:30Z</time>
      </trkpt>
      <trkpt lat="45.04651" lon="6.32084">
        <ele>1509.8</ele>
        <time>2024-08-10T10:40:31Z</time>
      </trkpt>
      <trkpt lat="45.04651" lon="6.32084">
        <ele>1509.8</ele>
        <time>2024-08-10T10:40:32Z</time>
      </trkpt>
      <trkpt lat="45.04651" lon="6.32087">
        <ele>1510</ele>
        <time>2024-08-10T10:40:33Z</time>
      </trkpt>
      <trkpt lat="45.04651" lon="6.32087">
        <ele>1510</ele>
        <time>2024-08-10T10:40:34Z</time>
      </trkpt>
      <trkpt lat="45.04651" lon="6.3209">
        <ele>1509.6</ele>
        <time>2024-08-10T10:40:35Z</time>
      </trkpt>
      <trkpt lat="45.04651" lon="6.3209">
        <ele>1509.6</ele>
        <time>2024-08-10T10:40:36Z</time>
      </trkpt>
      <trkpt lat="45.04652" lon="6.32093">
        <ele>1509.6</ele>
        <time>2024-08-10T10:40:37Z</time>
      </trkpt>
      <trkpt lat="45.04652" lon="6.32093">
        <ele>1509.8</ele>
        <time>2024-08-10T10:40:38Z</time>
      </trkpt>
      <trkpt lat="45.04652" lon="6.32096">
        <ele>1509.8</ele>
        <time>2024-08-10T10:40:39Z</time>
      </trkpt>
      <trkpt lat="45.04652" lon="6.32096">
        <ele>1509.8</ele>
        <time>2024-08-10T10:40:40Z</time>
      </trkpt>
      <trkpt lat="45.04652" lon="6.32096">
        <ele>1509.8</ele>
        <time>2024-08-10T10:40:41Z</time>
      </trkpt>
      <trkpt lat="45.04652" lon="6.32099">
        <ele>1509.8</ele>
        <time>2024-08-10T10:40:42Z</time>
      </trkpt>
      <trkpt lat="45.04652" lon="6.32099">
        <ele>1509.8</ele>
        <time>2024-08-10T10:40:43Z</time>
      </trkpt>
      <trkpt lat="45.04654" lon="6.32101">
        <ele>1509.6</ele>
        <time>2024-08-10T10:40:44Z</time>
      </trkpt>
      <trkpt lat="45.04654" lon="6.32101">
        <ele>1509.4</ele>
        <time>2024-08-10T10:40:45Z</time>
      </trkpt>
      <trkpt lat="45.04655" lon="6.32104">
        <ele>1509</ele>
        <time>2024-08-10T10:40:46Z</time>
      </trkpt>
      <trkpt lat="45.04655" lon="6.32104">
        <ele>1508.6</ele>
        <time>2024-08-10T10:40:47Z</time>
      </trkpt>
      <trkpt lat="45.04656" lon="6.32107">
        <ele>1508.4</ele>
        <time>2024-08-10T10:40:48Z</time>
      </trkpt>
      <trkpt lat="45.04656" lon="6.32107">
        <ele>1507.8</ele>
        <time>2024-08-10T10:40:49Z</time>
      </trkpt>
      <trkpt lat="45.04657" lon="6.32111">
        <ele>1507.4</ele>
        <time>2024-08-10T10:40:50Z</time>
      </trkpt>
      <trkpt lat="45.04657" lon="6.32111">
        <ele>1507.4</ele>
        <time>2024-08-10T10:40:51Z</time>
      </trkpt>
      <trkpt lat="45.04657" lon="6.32115">
        <ele>1507.4</ele>
        <time>2024-08-10T10:40:52Z</time>
      </trkpt>
      <trkpt lat="45.04657" lon="6.32115">
        <ele>1507</ele>
        <time>2024-08-10T10:40:53Z</time>
      </trkpt>
      <trkpt lat="45.04656" lon="6.32118">
        <ele>1507</ele>
        <time>2024-08-10T10:40:54Z</time>
      </trkpt>
      <trkpt lat="45.04656" lon="6.32118">
        <ele>1506.8</ele>
        <time>2024-08-10T10:40:55Z</time>
      </trkpt>
      <trkpt lat="45.04656" lon="6.32122">
        <ele>1506.8</ele>
        <time>2024-08-10T10:40:56Z</time>
      </trkpt>
      <trkpt lat="45.04656" lon="6.32122">
        <ele>1506.8</ele>
        <time>2024-08-10T10:40:57Z</time>
      </trkpt>
      <trkpt lat="45.04656" lon="6.32124">
        <ele>1506.8</ele>
        <time>2024-08-10T10:40:58Z</time>
      </trkpt>
      <trkpt lat="45.04656" lon="6.32124">
        <ele>1506.8</ele>
        <time>2024-08-10T10:40:59Z</time>
      </trkpt>
      <trkpt lat="45.04656" lon="6.32124">
        <ele>1507</ele>
        <time>2024-08-10T10:41:00Z</time>
      </trkpt>
      <trkpt lat="45.04656" lon="6.32124">
        <ele>1507</ele>
        <time>2024-08-10T10:41:01Z</time>
      </trkpt>
      <trkpt lat="45.04656" lon="6.32124">
        <ele>1507.2</ele>
        <time>2024-08-10T10:41:02Z</time>
      </trkpt>
      <trkpt lat="45.04656" lon="6.32124">
        <ele>1507.2</ele>
        <time>2024-08-10T10:41:03Z</time>
      </trkpt>
      <trkpt lat="45.04656" lon="6.32124">
        <ele>1507.2</ele>
        <time>2024-08-10T10:41:04Z</time>
      </trkpt>
      <trkpt lat="45.04655" lon="6.32127">
        <ele>1507.2</ele>
        <time>2024-08-10T10:41:05Z</time>
      </trkpt>
      <trkpt lat="45.04655" lon="6.32127">
        <ele>1507.2</ele>
        <time>2024-08-10T10:41:06Z</time>
      </trkpt>
      <trkpt lat="45.04654" lon="6.32131">
        <ele>1507.2</ele>
        <time>2024-08-10T10:41:07Z</time>
      </trkpt>
      <trkpt lat="45.04654" lon="6.32131">
        <ele>1507.2</ele>
        <time>2024-08-10T10:41:08Z</time>
      </trkpt>
      <trkpt lat="45.04653" lon="6.32134">
        <ele>1507.4</ele>
        <time>2024-08-10T10:41:09Z</time>
      </trkpt>
      <trkpt lat="45.04653" lon="6.32134">
        <ele>1507.6</ele>
        <time>2024-08-10T10:41:10Z</time>
      </trkpt>
      <trkpt lat="45.04652" lon="6.32136">
        <ele>1507.6</ele>
        <time>2024-08-10T10:41:11Z</time>
      </trkpt>
      <trkpt lat="45.04652" lon="6.32136">
        <ele>1507.8</ele>
        <time>2024-08-10T10:41:12Z</time>
      </trkpt>
      <trkpt lat="45.04651" lon="6.32139">
        <ele>1507.8</ele>
        <time>2024-08-10T10:41:13Z</time>
      </trkpt>
      <trkpt lat="45.04651" lon="6.32139">
        <ele>1508.4</ele>
        <time>2024-08-10T10:41:14Z</time>
      </trkpt>
      <trkpt lat="45.04651" lon="6.32139">
        <ele>1508.4</ele>
        <time>2024-08-10T10:41:15Z</time>
      </trkpt>
      <trkpt lat="45.04649" lon="6.32141">
        <ele>1508.8</ele>
        <time>2024-08-10T10:41:16Z</time>
      </trkpt>
      <trkpt lat="45.04649" lon="6.32141">
        <ele>1508.8</ele>
        <time>2024-08-10T10:41:17Z</time>
      </trkpt>
      <trkpt lat="45.04649" lon="6.32141">
        <ele>1508.8</ele>
        <time>2024-08-10T10:41:18Z</time>
      </trkpt>
      <trkpt lat="45.04649" lon="6.32141">
        <ele>1508.8</ele>
        <time>2024-08-10T10:41:19Z</time>
      </trkpt>
      <trkpt lat="45.04649" lon="6.32145">
        <ele>1509</ele>
        <time>2024-08-10T10:41:20Z</time>
      </trkpt>
      <trkpt lat="45.04649" lon="6.32145">
        <ele>1509.4</ele>
        <time>2024-08-10T10:41:21Z</time>
      </trkpt>
      <trkpt lat="45.04649" lon="6.32145">
        <ele>1509.6</ele>
        <time>2024-08-10T10:41:22Z</time>
      </trkpt>
      <trkpt lat="45.04649" lon="6.32145">
        <ele>1510</ele>
        <time>2024-08-10T10:41:23Z</time>
      </trkpt>
      <trkpt lat="45.04648" lon="6.32148">
        <ele>1510</ele>
        <time>2024-08-10T10:41:24Z</time>
      </trkpt>
      <trkpt lat="45.04648" lon="6.32148">
        <ele>1510.4</ele>
        <time>2024-08-10T10:41:25Z</time>
      </trkpt>
      <trkpt lat="45.04648" lon="6.32151">
        <ele>1510.6</ele>
        <time>2024-08-10T10:41:26Z</time>
      </trkpt>
      <trkpt lat="45.04648" lon="6.32151">
        <ele>1510.8</ele>
        <time>2024-08-10T10:41:27Z</time>
      </trkpt>
      <trkpt lat="45.04648" lon="6.32151">
        <ele>1511</ele>
        <time>2024-08-10T10:41:28Z</time>
      </trkpt>
      <trkpt lat="45.04648" lon="6.32154">
        <ele>1511.2</ele>
        <time>2024-08-10T10:41:29Z</time>
      </trkpt>
      <trkpt lat="45.04648" lon="6.32154">
        <ele>1511.4</ele>
        <time>2024-08-10T10:41:30Z</time>
      </trkpt>
      <trkpt lat="45.04648" lon="6.32154">
        <ele>1511.6</ele>
        <time>2024-08-10T10:41:31Z</time>
      </trkpt>
      <trkpt lat="45.04648" lon="6.32154">
        <ele>1511.8</ele>
        <time>2024-08-10T10:41:32Z</time>
      </trkpt>
      <trkpt lat="45.04649" lon="6.32157">
        <ele>1512</ele>
        <time>2024-08-10T10:41:33Z</time>
      </trkpt>
      <trkpt lat="45.04649" lon="6.32157">
        <ele>1512.2</ele>
        <time>2024-08-10T10:41:34Z</time>
      </trkpt>
      <trkpt lat="45.04649" lon="6.32157">
        <ele>1512</ele>
        <time>2024-08-10T10:41:35Z</time>
      </trkpt>
      <trkpt lat="45.04649" lon="6.32157">
        <ele>1512.4</ele>
        <time>2024-08-10T10:41:36Z</time>
      </trkpt>
      <trkpt lat="45.04649" lon="6.32157">
        <ele>1512.6</ele>
        <time>2024-08-10T10:41:37Z</time>
      </trkpt>
      <trkpt lat="45.0465" lon="6.32159">
        <ele>1512.8</ele>
        <time>2024-08-10T10:41:38Z</time>
      </trkpt>
      <trkpt lat="45.0465" lon="6.32159">
        <ele>1513.2</ele>
        <time>2024-08-10T10:41:39Z</time>
      </trkpt>
      <trkpt lat="45.0465" lon="6.32159">
        <ele>1513.2</ele>
        <time>2024-08-10T10:41:40Z</time>
      </trkpt>
      <trkpt lat="45.04652" lon="6.32161">
        <ele>1513.8</ele>
        <time>2024-08-10T10:41:41Z</time>
      </trkpt>
      <trkpt lat="45.04652" lon="6.32161">
        <ele>1514.2</ele>
        <time>2024-08-10T10:41:42Z</time>
      </trkpt>
      <trkpt lat="45.04652" lon="6.32161">
        <ele>1514.2</ele>
        <time>2024-08-10T10:41:43Z</time>
      </trkpt>
      <trkpt lat="45.04652" lon="6.32161">
        <ele>1514.4</ele>
        <time>2024-08-10T10:41:44Z</time>
      </trkpt>
      <trkpt lat="45.04652" lon="6.32161">
        <ele>1514.2</ele>
        <time>2024-08-10T10:41:45Z</time>
      </trkpt>
      <trkpt lat="45.04652" lon="6.32161">
        <ele>1514.4</ele>
        <time>2024-08-10T10:41:46Z</time>
      </trkpt>
      <trkpt lat="45.04652" lon="6.32161">
        <ele>1514.6</ele>
        <time>2024-08-10T10:41:47Z</time>
      </trkpt>
      <trkpt lat="45.04652" lon="6.32161">
        <ele>1514.6</ele>
        <time>2024-08-10T10:41:48Z</time>
      </trkpt>
      <trkpt lat="45.04652" lon="6.32161">
        <ele>1514.6</ele>
        <time>2024-08-10T10:41:49Z</time>
      </trkpt>
      <trkpt lat="45.04652" lon="6.32161">
        <ele>1514.6</ele>
        <time>2024-08-10T10:41:50Z</time>
      </trkpt>
      <trkpt lat="45.04652" lon="6.32161">
        <ele>1514.6</ele>
        <time>2024-08-10T10:41:51Z</time>
      </trkpt>
      <trkpt lat="45.04652" lon="6.32161">
        <ele>1514.6</ele>
        <time>2024-08-10T10:41:52Z</time>
      </trkpt>
      <trkpt lat="45.04652" lon="6.32161">
        <ele>1514.6</ele>
        <time>2024-08-10T10:41:53Z</time>
      </trkpt>
      <trkpt lat="45.04652" lon="6.32161">
        <ele>1514.6</ele>
        <time>2024-08-10T10:41:54Z</time>
      </trkpt>
      <trkpt lat="45.04652" lon="6.32161">
        <ele>1514.6</ele>
        <time>2024-08-10T10:41:55Z</time>
      </trkpt>
      <trkpt lat="45.04652" lon="6.32161">
        <ele>1514.6</ele>
        <time>2024-08-10T10:41:56Z</time>
      </trkpt>
      <trkpt lat="45.04652" lon="6.32161">
        <ele>1514.6</ele>
        <time>2024-08-10T10:41:57Z</time>
      </trkpt>
      <trkpt lat="45.04652" lon="6.32161">
        <ele>1514.8</ele>
        <time>2024-08-10T10:41:58Z</time>
      </trkpt>
      <trkpt lat="45.04651" lon="6.32164">
        <ele>1514.8</ele>
        <time>2024-08-10T10:41:59Z</time>
      </trkpt>
      <trkpt lat="45.04651" lon="6.32164">
        <ele>1515.4</ele>
        <time>2024-08-10T10:42:00Z</time>
      </trkpt>
      <trkpt lat="45.04651" lon="6.32169">
        <ele>1515.4</ele>
        <time>2024-08-10T10:42:01Z</time>
      </trkpt>
      <trkpt lat="45.04651" lon="6.32169">
        <ele>1516</ele>
        <time>2024-08-10T10:42:02Z</time>
      </trkpt>
      <trkpt lat="45.04651" lon="6.32169">
        <ele>1516</ele>
        <time>2024-08-10T10:42:03Z</time>
      </trkpt>
      <trkpt lat="45.04651" lon="6.32169">
        <ele>1516</ele>
        <time>2024-08-10T10:42:04Z</time>
      </trkpt>
      <trkpt lat="45.04651" lon="6.32169">
        <ele>1516.4</ele>
        <time>2024-08-10T10:42:05Z</time>
      </trkpt>
      <trkpt lat="45.04651" lon="6.32169">
        <ele>1516.4</ele>
        <time>2024-08-10T10:42:06Z</time>
      </trkpt>
      <trkpt lat="45.04651" lon="6.32169">
        <ele>1516.4</ele>
        <time>2024-08-10T10:42:07Z</time>
      </trkpt>
      <trkpt lat="45.0465" lon="6.32172">
        <ele>1516.4</ele>
        <time>2024-08-10T10:42:08Z</time>
      </trkpt>
      <trkpt lat="45.0465" lon="6.32172">
        <ele>1516.4</ele>
        <time>2024-08-10T10:42:09Z</time>
      </trkpt>
      <trkpt lat="45.04651" lon="6.32175">
        <ele>1516.4</ele>
        <time>2024-08-10T10:42:10Z</time>
      </trkpt>
      <trkpt lat="45.04651" lon="6.32175">
        <ele>1516.4</ele>
        <time>2024-08-10T10:42:11Z</time>
      </trkpt>
      <trkpt lat="45.04651" lon="6.3218">
        <ele>1516.4</ele>
        <time>2024-08-10T10:42:12Z</time>
      </trkpt>
      <trkpt lat="45.04651" lon="6.3218">
        <ele>1516.8</ele>
        <time>2024-08-10T10:42:13Z</time>
      </trkpt>
      <trkpt lat="45.04651" lon="6.32185">
        <ele>1517</ele>
        <time>2024-08-10T10:42:14Z</time>
      </trkpt>
      <trkpt lat="45.04651" lon="6.32185">
        <ele>1517</ele>
        <time>2024-08-10T10:42:15Z</time>
      </trkpt>
      <trkpt lat="45.04651" lon="6.32189">
        <ele>1517.2</ele>
        <time>2024-08-10T10:42:16Z</time>
      </trkpt>
      <trkpt lat="45.04651" lon="6.32189">
        <ele>1517</ele>
        <time>2024-08-10T10:42:17Z</time>
      </trkpt>
      <trkpt lat="45.04651" lon="6.32193">
        <ele>1517.2</ele>
        <time>2024-08-10T10:42:18Z</time>
      </trkpt>
      <trkpt lat="45.04651" lon="6.32193">
        <ele>1517.2</ele>
        <time>2024-08-10T10:42:19Z</time>
      </trkpt>
      <trkpt lat="45.04651" lon="6.32196">
        <ele>1517.6</ele>
        <time>2024-08-10T10:42:20Z</time>
      </trkpt>
      <trkpt lat="45.04651" lon="6.32196">
        <ele>1517.8</ele>
        <time>2024-08-10T10:42:21Z</time>
      </trkpt>
      <trkpt lat="45.04651" lon="6.322">
        <ele>1517.8</ele>
        <time>2024-08-10T10:42:22Z</time>
      </trkpt>
      <trkpt lat="45.04651" lon="6.322">
        <ele>1517.4</ele>
        <time>2024-08-10T10:42:23Z</time>
      </trkpt>
      <trkpt lat="45.04652" lon="6.32203">
        <ele>1517.4</ele>
        <time>2024-08-10T10:42:24Z</time>
      </trkpt>
      <trkpt lat="45.04652" lon="6.32203">
        <ele>1517.4</ele>
        <time>2024-08-10T10:42:25Z</time>
      </trkpt>
      <trkpt lat="45.04652" lon="6.32203">
        <ele>1517.4</ele>
        <time>2024-08-10T10:42:26Z</time>
      </trkpt>
      <trkpt lat="45.04652" lon="6.32203">
        <ele>1517.4</ele>
        <time>2024-08-10T10:42:27Z</time>
      </trkpt>
      <trkpt lat="45.04652" lon="6.32206">
        <ele>1517.6</ele>
        <time>2024-08-10T10:42:28Z</time>
      </trkpt>
      <trkpt lat="45.04652" lon="6.32206">
        <ele>1517.8</ele>
        <time>2024-08-10T10:42:29Z</time>
      </trkpt>
      <trkpt lat="45.04652" lon="6.32206">
        <ele>1518.2</ele>
        <time>2024-08-10T10:42:30Z</time>
      </trkpt>
      <trkpt lat="45.04652" lon="6.32206">
        <ele>1518.6</ele>
        <time>2024-08-10T10:42:31Z</time>
      </trkpt>
      <trkpt lat="45.0465" lon="6.32208">
        <ele>1519</ele>
        <time>2024-08-10T10:42:32Z</time>
      </trkpt>
      <trkpt lat="45.0465" lon="6.32208">
        <ele>1519</ele>
        <time>2024-08-10T10:42:33Z</time>
      </trkpt>
      <trkpt lat="45.0465" lon="6.32208">
        <ele>1519.2</ele>
        <time>2024-08-10T10:42:34Z</time>
      </trkpt>
      <trkpt lat="45.0465" lon="6.32208">
        <ele>1519.4</ele>
        <time>2024-08-10T10:42:35Z</time>
      </trkpt>
      <trkpt lat="45.0465" lon="6.32211">
        <ele>1519.6</ele>
        <time>2024-08-10T10:42:36Z</time>
      </trkpt>
      <trkpt lat="45.0465" lon="6.32211">
        <ele>1519.6</ele>
        <time>2024-08-10T10:42:37Z</time>
      </trkpt>
      <trkpt lat="45.0465" lon="6.32211">
        <ele>1519.6</ele>
        <time>2024-08-10T10:42:38Z</time>
      </trkpt>
      <trkpt lat="45.04651" lon="6.32214">
        <ele>1520</ele>
        <time>2024-08-10T10:42:39Z</time>
      </trkpt>
      <trkpt lat="45.04651" lon="6.32214">
        <ele>1520.2</ele>
        <time>2024-08-10T10:42:40Z</time>
      </trkpt>
      <trkpt lat="45.04652" lon="6.32217">
        <ele>1520.4</ele>
        <time>2024-08-10T10:42:41Z</time>
      </trkpt>
      <trkpt lat="45.04652" lon="6.32217">
        <ele>1520.6</ele>
        <time>2024-08-10T10:42:42Z</time>
      </trkpt>
      <trkpt lat="45.04652" lon="6.32217">
        <ele>1520.6</ele>
        <time>2024-08-10T10:42:43Z</time>
      </trkpt>
      <trkpt lat="45.04653" lon="6.3222">
        <ele>1520.6</ele>
        <time>2024-08-10T10:42:44Z</time>
      </trkpt>
      <trkpt lat="45.04653" lon="6.3222">
        <ele>1520.6</ele>
        <time>2024-08-10T10:42:45Z</time>
      </trkpt>
      <trkpt lat="45.04653" lon="6.3222">
        <ele>1520.8</ele>
        <time>2024-08-10T10:42:46Z</time>
      </trkpt>
      <trkpt lat="45.04653" lon="6.32224">
        <ele>1520.8</ele>
        <time>2024-08-10T10:42:47Z</time>
      </trkpt>
      <trkpt lat="45.04653" lon="6.32224">
        <ele>1520.8</ele>
        <time>2024-08-10T10:42:48Z</time>
      </trkpt>
      <trkpt lat="45.04654" lon="6.32226">
        <ele>1521.2</ele>
        <time>2024-08-10T10:42:49Z</time>
      </trkpt>
      <trkpt lat="45.04654" lon="6.32226">
        <ele>1521.2</ele>
        <time>2024-08-10T10:42:50Z</time>
      </trkpt>
      <trkpt lat="45.04653" lon="6.3223">
        <ele>1521.4</ele>
        <time>2024-08-10T10:42:51Z</time>
      </trkpt>
      <trkpt lat="45.04653" lon="6.3223">
        <ele>1521.6</ele>
        <time>2024-08-10T10:42:52Z</time>
      </trkpt>
      <trkpt lat="45.04653" lon="6.32233">
        <ele>1521.8</ele>
        <time>2024-08-10T10:42:53Z</time>
      </trkpt>
      <trkpt lat="45.04653" lon="6.32233">
        <ele>1522.2</ele>
        <time>2024-08-10T10:42:54Z</time>
      </trkpt>
      <trkpt lat="45.04653" lon="6.32237">
        <ele>1522.4</ele>
        <time>2024-08-10T10:42:55Z</time>
      </trkpt>
      <trkpt lat="45.04653" lon="6.32237">
        <ele>1522.4</ele>
        <time>2024-08-10T10:42:56Z</time>
      </trkpt>
      <trkpt lat="45.04654" lon="6.32239">
        <ele>1522.4</ele>
        <time>2024-08-10T10:42:57Z</time>
      </trkpt>
      <trkpt lat="45.04654" lon="6.32239">
        <ele>1521.8</ele>
        <time>2024-08-10T10:42:58Z</time>
      </trkpt>
      <trkpt lat="45.04654" lon="6.32239">
        <ele>1521.4</ele>
        <time>2024-08-10T10:42:59Z</time>
      </trkpt>
      <trkpt lat="45.04654" lon="6.32239">
        <ele>1521.4</ele>
        <time>2024-08-10T10:43:00Z</time>
      </trkpt>
      <trkpt lat="45.04655" lon="6.32243">
        <ele>1521.6</ele>
        <time>2024-08-10T10:43:01Z</time>
      </trkpt>
      <trkpt lat="45.04655" lon="6.32243">
        <ele>1521.6</ele>
        <time>2024-08-10T10:43:02Z</time>
      </trkpt>
      <trkpt lat="45.04655" lon="6.32243">
        <ele>1522</ele>
        <time>2024-08-10T10:43:03Z</time>
      </trkpt>
      <trkpt lat="45.04656" lon="6.32246">
        <ele>1522</ele>
        <time>2024-08-10T10:43:04Z</time>
      </trkpt>
      <trkpt lat="45.04656" lon="6.32246">
        <ele>1522.4</ele>
        <time>2024-08-10T10:43:05Z</time>
      </trkpt>
      <trkpt lat="45.04656" lon="6.32249">
        <ele>1522.6</ele>
        <time>2024-08-10T10:43:06Z</time>
      </trkpt>
      <trkpt lat="45.04656" lon="6.32249">
        <ele>1522.6</ele>
        <time>2024-08-10T10:43:07Z</time>
      </trkpt>
      <trkpt lat="45.04655" lon="6.32252">
        <ele>1523</ele>
        <time>2024-08-10T10:43:08Z</time>
      </trkpt>
      <trkpt lat="45.04655" lon="6.32252">
        <ele>1523.2</ele>
        <time>2024-08-10T10:43:09Z</time>
      </trkpt>
      <trkpt lat="45.04654" lon="6.32255">
        <ele>1523.2</ele>
        <time>2024-08-10T10:43:10Z</time>
      </trkpt>
      <trkpt lat="45.04654" lon="6.32255">
        <ele>1523.6</ele>
        <time>2024-08-10T10:43:11Z</time>
      </trkpt>
      <trkpt lat="45.04654" lon="6.32258">
        <ele>1523.6</ele>
        <time>2024-08-10T10:43:12Z</time>
      </trkpt>
      <trkpt lat="45.04654" lon="6.32258">
        <ele>1523.6</ele>
        <time>2024-08-10T10:43:13Z</time>
      </trkpt>
      <trkpt lat="45.04654" lon="6.32258">
        <ele>1523.6</ele>
        <time>2024-08-10T10:43:14Z</time>
      </trkpt>
      <trkpt lat="45.04654" lon="6.32262">
        <ele>1523.4</ele>
        <time>2024-08-10T10:43:15Z</time>
      </trkpt>
      <trkpt lat="45.04654" lon="6.32262">
        <ele>1523.4</ele>
        <time>2024-08-10T10:43:16Z</time>
      </trkpt>
      <trkpt lat="45.04654" lon="6.32262">
        <ele>1523.6</ele>
        <time>2024-08-10T10:43:17Z</time>
      </trkpt>
      <trkpt lat="45.04655" lon="6.32265">
        <ele>1523.6</ele>
        <time>2024-08-10T10:43:18Z</time>
      </trkpt>
      <trkpt lat="45.04655" lon="6.32265">
        <ele>1523.8</ele>
        <time>2024-08-10T10:43:19Z</time>
      </trkpt>
      <trkpt lat="45.04657" lon="6.32267">
        <ele>1524.4</ele>
        <time>2024-08-10T10:43:20Z</time>
      </trkpt>
      <trkpt lat="45.04657" lon="6.32267">
        <ele>1525.4</ele>
        <time>2024-08-10T10:43:21Z</time>
      </trkpt>
      <trkpt lat="45.04659" lon="6.32269">
        <ele>1525.4</ele>
        <time>2024-08-10T10:43:22Z</time>
      </trkpt>
      <trkpt lat="45.04659" lon="6.32269">
        <ele>1525.4</ele>
        <time>2024-08-10T10:43:23Z</time>
      </trkpt>
      <trkpt lat="45.04661" lon="6.32272">
        <ele>1525.8</ele>
        <time>2024-08-10T10:43:24Z</time>
      </trkpt>
      <trkpt lat="45.04661" lon="6.32272">
        <ele>1525.8</ele>
        <time>2024-08-10T10:43:25Z</time>
      </trkpt>
      <trkpt lat="45.04663" lon="6.32275">
        <ele>1525.8</ele>
        <time>2024-08-10T10:43:26Z</time>
      </trkpt>
      <trkpt lat="45.04663" lon="6.32275">
        <ele>1525.4</ele>
        <time>2024-08-10T10:43:27Z</time>
      </trkpt>
      <trkpt lat="45.04665" lon="6.32279">
        <ele>1525.4</ele>
        <time>2024-08-10T10:43:28Z</time>
      </trkpt>
      <trkpt lat="45.04665" lon="6.32279">
        <ele>1525.2</ele>
        <time>2024-08-10T10:43:29Z</time>
      </trkpt>
      <trkpt lat="45.04665" lon="6.32283">
        <ele>1525.2</ele>
        <time>2024-08-10T10:43:30Z</time>
      </trkpt>
      <trkpt lat="45.04665" lon="6.32283">
        <ele>1525.2</ele>
        <time>2024-08-10T10:43:31Z</time>
      </trkpt>
      <trkpt lat="45.04664" lon="6.32287">
        <ele>1525</ele>
        <time>2024-08-10T10:43:32Z</time>
      </trkpt>
      <trkpt lat="45.04664" lon="6.32287">
        <ele>1525.2</ele>
        <time>2024-08-10T10:43:33Z</time>
      </trkpt>
      <trkpt lat="45.04662" lon="6.3229">
        <ele>1525.2</ele>
        <time>2024-08-10T10:43:34Z</time>
      </trkpt>
      <trkpt lat="45.04662" lon="6.3229">
        <ele>1525.2</ele>
        <time>2024-08-10T10:43:35Z</time>
      </trkpt>
      <trkpt lat="45.04661" lon="6.32293">
        <ele>1525.2</ele>
        <time>2024-08-10T10:43:36Z</time>
      </trkpt>
      <trkpt lat="45.04661" lon="6.32293">
        <ele>1525</ele>
        <time>2024-08-10T10:43:37Z</time>
      </trkpt>
      <trkpt lat="45.0466" lon="6.32296">
        <ele>1525</ele>
        <time>2024-08-10T10:43:38Z</time>
      </trkpt>
      <trkpt lat="45.0466" lon="6.32296">
        <ele>1525.6</ele>
        <time>2024-08-10T10:43:39Z</time>
      </trkpt>
      <trkpt lat="45.0466" lon="6.32298">
        <ele>1525.6</ele>
        <time>2024-08-10T10:43:40Z</time>
      </trkpt>
      <trkpt lat="45.0466" lon="6.32298">
        <ele>1526</ele>
        <time>2024-08-10T10:43:41Z</time>
      </trkpt>
      <trkpt lat="45.04659" lon="6.32301">
        <ele>1526.2</ele>
        <time>2024-08-10T10:43:42Z</time>
      </trkpt>
      <trkpt lat="45.04659" lon="6.32301">
        <ele>1526.2</ele>
        <time>2024-08-10T10:43:43Z</time>
      </trkpt>
      <trkpt lat="45.04657" lon="6.32303">
        <ele>1526.2</ele>
        <time>2024-08-10T10:43:44Z</time>
      </trkpt>
      <trkpt lat="45.04657" lon="6.32303">
        <ele>1526.2</ele>
        <time>2024-08-10T10:43:45Z</time>
      </trkpt>
      <trkpt lat="45.04655" lon="6.32305">
        <ele>1526.8</ele>
        <time>2024-08-10T10:43:46Z</time>
      </trkpt>
      <trkpt lat="45.04655" lon="6.32305">
        <ele>1526.8</ele>
        <time>2024-08-10T10:43:47Z</time>
      </trkpt>
      <trkpt lat="45.04655" lon="6.32305">
        <ele>1527</ele>
        <time>2024-08-10T10:43:48Z</time>
      </trkpt>
      <trkpt lat="45.04654" lon="6.32308">
        <ele>1527</ele>
        <time>2024-08-10T10:43:49Z</time>
      </trkpt>
      <trkpt lat="45.04654" lon="6.32308">
        <ele>1527.2</ele>
        <time>2024-08-10T10:43:50Z</time>
      </trkpt>
      <trkpt lat="45.04653" lon="6.32311">
        <ele>1527.4</ele>
        <time>2024-08-10T10:43:51Z</time>
      </trkpt>
      <trkpt lat="45.04653" lon="6.32311">
        <ele>1527.8</ele>
        <time>2024-08-10T10:43:52Z</time>
      </trkpt>
      <trkpt lat="45.04653" lon="6.32314">
        <ele>1527.8</ele>
        <time>2024-08-10T10:43:53Z</time>
      </trkpt>
      <trkpt lat="45.04653" lon="6.32314">
        <ele>1527.8</ele>
        <time>2024-08-10T10:43:54Z</time>
      </trkpt>
      <trkpt lat="45.04653" lon="6.32314">
        <ele>1527.8</ele>
        <time>2024-08-10T10:43:55Z</time>
      </trkpt>
      <trkpt lat="45.04651" lon="6.32316">
        <ele>1528.4</ele>
        <time>2024-08-10T10:43:56Z</time>
      </trkpt>
      <trkpt lat="45.04651" lon="6.32316">
        <ele>1528.8</ele>
        <time>2024-08-10T10:43:57Z</time>
      </trkpt>
      <trkpt lat="45.04651" lon="6.32316">
        <ele>1528.8</ele>
        <time>2024-08-10T10:43:58Z</time>
      </trkpt>
      <trkpt lat="45.04649" lon="6.32317">
        <ele>1528.6</ele>
        <time>2024-08-10T10:43:59Z</time>
      </trkpt>
      <trkpt lat="45.04649" lon="6.32317">
        <ele>1528.4</ele>
        <time>2024-08-10T10:44:00Z</time>
      </trkpt>
      <trkpt lat="45.04647" lon="6.32317">
        <ele>1528.2</ele>
        <time>2024-08-10T10:44:01Z</time>
      </trkpt>
      <trkpt lat="45.04647" lon="6.32317">
        <ele>1528</ele>
        <time>2024-08-10T10:44:02Z</time>
      </trkpt>
      <trkpt lat="45.04647" lon="6.32317">
        <ele>1528</ele>
        <time>2024-08-10T10:44:03Z</time>
      </trkpt>
      <trkpt lat="45.04645" lon="6.32317">
        <ele>1528</ele>
        <time>2024-08-10T10:44:04Z</time>
      </trkpt>
      <trkpt lat="45.04645" lon="6.32317">
        <ele>1528</ele>
        <time>2024-08-10T10:44:05Z</time>
      </trkpt>
      <trkpt lat="45.04643" lon="6.32316">
        <ele>1527.8</ele>
        <time>2024-08-10T10:44:06Z</time>
      </trkpt>
      <trkpt lat="45.04643" lon="6.32316">
        <ele>1527.6</ele>
        <time>2024-08-10T10:44:07Z</time>
      </trkpt>
      <trkpt lat="45.04643" lon="6.32316">
        <ele>1527.4</ele>
        <time>2024-08-10T10:44:08Z</time>
      </trkpt>
      <trkpt lat="45.04643" lon="6.32316">
        <ele>1527</ele>
        <time>2024-08-10T10:44:09Z</time>
      </trkpt>
      <trkpt lat="45.0464" lon="6.32317">
        <ele>1527</ele>
        <time>2024-08-10T10:44:10Z</time>
      </trkpt>
      <trkpt lat="45.0464" lon="6.32317">
        <ele>1527</ele>
        <time>2024-08-10T10:44:11Z</time>
      </trkpt>
      <trkpt lat="45.04638" lon="6.32318">
        <ele>1526.4</ele>
        <time>2024-08-10T10:44:12Z</time>
      </trkpt>
      <trkpt lat="45.04638" lon="6.32318">
        <ele>1526.2</ele>
        <time>2024-08-10T10:44:13Z</time>
      </trkpt>
      <trkpt lat="45.04636" lon="6.3232">
        <ele>1526</ele>
        <time>2024-08-10T10:44:14Z</time>
      </trkpt>
      <trkpt lat="45.04636" lon="6.3232">
        <ele>1525.2</ele>
        <time>2024-08-10T10:44:15Z</time>
      </trkpt>
      <trkpt lat="45.04633" lon="6.32322">
        <ele>1525.2</ele>
        <time>2024-08-10T10:44:16Z</time>
      </trkpt>
      <trkpt lat="45.04633" lon="6.32322">
        <ele>1525.2</ele>
        <time>2024-08-10T10:44:17Z</time>
      </trkpt>
      <trkpt lat="45.04631" lon="6.32323">
        <ele>1525</ele>
        <time>2024-08-10T10:44:18Z</time>
      </trkpt>
      <trkpt lat="45.04631" lon="6.32323">
        <ele>1525</ele>
        <time>2024-08-10T10:44:19Z</time>
      </trkpt>
      <trkpt lat="45.04629" lon="6.32323">
        <ele>1524.6</ele>
        <time>2024-08-10T10:44:20Z</time>
      </trkpt>
      <trkpt lat="45.04629" lon="6.32323">
        <ele>1524.6</ele>
        <time>2024-08-10T10:44:21Z</time>
      </trkpt>
      <trkpt lat="45.04627" lon="6.32322">
        <ele>1524.6</ele>
        <time>2024-08-10T10:44:22Z</time>
      </trkpt>
      <trkpt lat="45.04627" lon="6.32322">
        <ele>1524.6</ele>
        <time>2024-08-10T10:44:23Z</time>
      </trkpt>
      <trkpt lat="45.04627" lon="6.32322">
        <ele>1524.8</ele>
        <time>2024-08-10T10:44:24Z</time>
      </trkpt>
      <trkpt lat="45.04624" lon="6.32322">
        <ele>1524.8</ele>
        <time>2024-08-10T10:44:25Z</time>
      </trkpt>
      <trkpt lat="45.04624" lon="6.32322">
        <ele>1524.8</ele>
        <time>2024-08-10T10:44:26Z</time>
      </trkpt>
      <trkpt lat="45.04624" lon="6.32322">
        <ele>1524.8</ele>
        <time>2024-08-10T10:44:27Z</time>
      </trkpt>
      <trkpt lat="45.04624" lon="6.32322">
        <ele>1525</ele>
        <time>2024-08-10T10:44:28Z</time>
      </trkpt>
      <trkpt lat="45.04622" lon="6.32323">
        <ele>1525.4</ele>
        <time>2024-08-10T10:44:29Z</time>
      </trkpt>
      <trkpt lat="45.04622" lon="6.32323">
        <ele>1525.4</ele>
        <time>2024-08-10T10:44:30Z</time>
      </trkpt>
      <trkpt lat="45.0462" lon="6.32324">
        <ele>1525.2</ele>
        <time>2024-08-10T10:44:31Z</time>
      </trkpt>
      <trkpt lat="45.0462" lon="6.32324">
        <ele>1525.2</ele>
        <time>2024-08-10T10:44:32Z</time>
      </trkpt>
      <trkpt lat="45.04617" lon="6.32326">
        <ele>1525</ele>
        <time>2024-08-10T10:44:33Z</time>
      </trkpt>
      <trkpt lat="45.04617" lon="6.32326">
        <ele>1524.8</ele>
        <time>2024-08-10T10:44:34Z</time>
      </trkpt>
      <trkpt lat="45.04615" lon="6.32327">
        <ele>1524.8</ele>
        <time>2024-08-10T10:44:35Z</time>
      </trkpt>
      <trkpt lat="45.04615" lon="6.32327">
        <ele>1524.8</ele>
        <time>2024-08-10T10:44:36Z</time>
      </trkpt>
      <trkpt lat="45.04613" lon="6.32329">
        <ele>1524.6</ele>
        <time>2024-08-10T10:44:37Z</time>
      </trkpt>
      <trkpt lat="45.04613" lon="6.32329">
        <ele>1524.2</ele>
        <time>2024-08-10T10:44:38Z</time>
      </trkpt>
      <trkpt lat="45.04611" lon="6.32332">
        <ele>1524.2</ele>
        <time>2024-08-10T10:44:39Z</time>
      </trkpt>
      <trkpt lat="45.04611" lon="6.32332">
        <ele>1524.2</ele>
        <time>2024-08-10T10:44:40Z</time>
      </trkpt>
      <trkpt lat="45.0461" lon="6.32334">
        <ele>1524.2</ele>
        <time>2024-08-10T10:44:41Z</time>
      </trkpt>
      <trkpt lat="45.0461" lon="6.32334">
        <ele>1524.4</ele>
        <time>2024-08-10T10:44:42Z</time>
      </trkpt>
      <trkpt lat="45.04608" lon="6.32336">
        <ele>1524.4</ele>
        <time>2024-08-10T10:44:43Z</time>
      </trkpt>
      <trkpt lat="45.04608" lon="6.32336">
        <ele>1524.4</ele>
        <time>2024-08-10T10:44:44Z</time>
      </trkpt>
      <trkpt lat="45.04606" lon="6.32337">
        <ele>1524.4</ele>
        <time>2024-08-10T10:44:45Z</time>
      </trkpt>
      <trkpt lat="45.04606" lon="6.32337">
        <ele>1524.4</ele>
        <time>2024-08-10T10:44:46Z</time>
      </trkpt>
      <trkpt lat="45.04605" lon="6.32341">
        <ele>1524</ele>
        <time>2024-08-10T10:44:47Z</time>
      </trkpt>
      <trkpt lat="45.04605" lon="6.32341">
        <ele>1523.4</ele>
        <time>2024-08-10T10:44:48Z</time>
      </trkpt>
      <trkpt lat="45.04604" lon="6.32344">
        <ele>1523.4</ele>
        <time>2024-08-10T10:44:49Z</time>
      </trkpt>
      <trkpt lat="45.04604" lon="6.32344">
        <ele>1523.2</ele>
        <time>2024-08-10T10:44:50Z</time>
      </trkpt>
      <trkpt lat="45.04603" lon="6.32347">
        <ele>1522.8</ele>
        <time>2024-08-10T10:44:51Z</time>
      </trkpt>
      <trkpt lat="45.04603" lon="6.32347">
        <ele>1522.6</ele>
        <time>2024-08-10T10:44:52Z</time>
      </trkpt>
      <trkpt lat="45.04603" lon="6.3235">
        <ele>1522.6</ele>
        <time>2024-08-10T10:44:53Z</time>
      </trkpt>
      <trkpt lat="45.04603" lon="6.3235">
        <ele>1523.2</ele>
        <time>2024-08-10T10:44:54Z</time>
      </trkpt>
      <trkpt lat="45.04603" lon="6.32353">
        <ele>1523.4</ele>
        <time>2024-08-10T10:44:55Z</time>
      </trkpt>
      <trkpt lat="45.04603" lon="6.32353">
        <ele>1523.6</ele>
        <time>2024-08-10T10:44:56Z</time>
      </trkpt>
      <trkpt lat="45.04603" lon="6.32353">
        <ele>1524</ele>
        <time>2024-08-10T10:44:57Z</time>
      </trkpt>
      <trkpt lat="45.04603" lon="6.32356">
        <ele>1524</ele>
        <time>2024-08-10T10:44:58Z</time>
      </trkpt>
      <trkpt lat="45.04603" lon="6.32356">
        <ele>1524.4</ele>
        <time>2024-08-10T10:44:59Z</time>
      </trkpt>
      <trkpt lat="45.04603" lon="6.32356">
        <ele>1524.6</ele>
        <time>2024-08-10T10:45:00Z</time>
      </trkpt>
      <trkpt lat="45.04603" lon="6.32359">
        <ele>1524.6</ele>
        <time>2024-08-10T10:45:01Z</time>
      </trkpt>
      <trkpt lat="45.04603" lon="6.32359">
        <ele>1524.6</ele>
        <time>2024-08-10T10:45:02Z</time>
      </trkpt>
      <trkpt lat="45.04602" lon="6.32361">
        <ele>1524.6</ele>
        <time>2024-08-10T10:45:03Z</time>
      </trkpt>
      <trkpt lat="45.04602" lon="6.32361">
        <ele>1524.6</ele>
        <time>2024-08-10T10:45:04Z</time>
      </trkpt>
      <trkpt lat="45.046" lon="6.32364">
        <ele>1524.6</ele>
        <time>2024-08-10T10:45:05Z</time>
      </trkpt>
      <trkpt lat="45.046" lon="6.32364">
        <ele>1524.6</ele>
        <time>2024-08-10T10:45:06Z</time>
      </trkpt>
      <trkpt lat="45.04599" lon="6.32367">
        <ele>1524.6</ele>
        <time>2024-08-10T10:45:07Z</time>
      </trkpt>
      <trkpt lat="45.04599" lon="6.32367">
        <ele>1524.2</ele>
        <time>2024-08-10T10:45:08Z</time>
      </trkpt>
      <trkpt lat="45.04598" lon="6.32369">
        <ele>1524.2</ele>
        <time>2024-08-10T10:45:09Z</time>
      </trkpt>
      <trkpt lat="45.04598" lon="6.32369">
        <ele>1524.6</ele>
        <time>2024-08-10T10:45:10Z</time>
      </trkpt>
      <trkpt lat="45.04598" lon="6.32369">
        <ele>1524.8</ele>
        <time>2024-08-10T10:45:11Z</time>
      </trkpt>
      <trkpt lat="45.04597" lon="6.32373">
        <ele>1525.2</ele>
        <time>2024-08-10T10:45:12Z</time>
      </trkpt>
      <trkpt lat="45.04597" lon="6.32373">
        <ele>1525.2</ele>
        <time>2024-08-10T10:45:13Z</time>
      </trkpt>
      <trkpt lat="45.04596" lon="6.32375">
        <ele>1525.2</ele>
        <time>2024-08-10T10:45:14Z</time>
      </trkpt>
      <trkpt lat="45.04596" lon="6.32375">
        <ele>1525.4</ele>
        <time>2024-08-10T10:45:15Z</time>
      </trkpt>
      <trkpt lat="45.04595" lon="6.32379">
        <ele>1525.6</ele>
        <time>2024-08-10T10:45:16Z</time>
      </trkpt>
      <trkpt lat="45.04595" lon="6.32379">
        <ele>1525.6</ele>
        <time>2024-08-10T10:45:17Z</time>
      </trkpt>
      <trkpt lat="45.04594" lon="6.32382">
        <ele>1525.6</ele>
        <time>2024-08-10T10:45:18Z</time>
      </trkpt>
      <trkpt lat="45.04594" lon="6.32382">
        <ele>1526</ele>
        <time>2024-08-10T10:45:19Z</time>
      </trkpt>
      <trkpt lat="45.04593" lon="6.32385">
        <ele>1526</ele>
        <time>2024-08-10T10:45:20Z</time>
      </trkpt>
      <trkpt lat="45.04593" lon="6.32385">
        <ele>1526.2</ele>
        <time>2024-08-10T10:45:21Z</time>
      </trkpt>
      <trkpt lat="45.04593" lon="6.32388">
        <ele>1526.4</ele>
        <time>2024-08-10T10:45:22Z</time>
      </trkpt>
      <trkpt lat="45.04593" lon="6.32388">
        <ele>1526.4</ele>
        <time>2024-08-10T10:45:23Z</time>
      </trkpt>
      <trkpt lat="45.04594" lon="6.32392">
        <ele>1526.4</ele>
        <time>2024-08-10T10:45:24Z</time>
      </trkpt>
      <trkpt lat="45.04594" lon="6.32392">
        <ele>1526.4</ele>
        <time>2024-08-10T10:45:25Z</time>
      </trkpt>
      <trkpt lat="45.04595" lon="6.32394">
        <ele>1526.4</ele>
        <time>2024-08-10T10:45:26Z</time>
      </trkpt>
      <trkpt lat="45.04595" lon="6.32394">
        <ele>1526.4</ele>
        <time>2024-08-10T10:45:27Z</time>
      </trkpt>
      <trkpt lat="45.04595" lon="6.32394">
        <ele>1526.4</ele>
        <time>2024-08-10T10:45:28Z</time>
      </trkpt>
      <trkpt lat="45.04596" lon="6.32398">
        <ele>1526.4</ele>
        <time>2024-08-10T10:45:29Z</time>
      </trkpt>
      <trkpt lat="45.04596" lon="6.32398">
        <ele>1526.4</ele>
        <time>2024-08-10T10:45:30Z</time>
      </trkpt>
      <trkpt lat="45.04597" lon="6.324">
        <ele>1526.4</ele>
        <time>2024-08-10T10:45:31Z</time>
      </trkpt>
      <trkpt lat="45.04597" lon="6.324">
        <ele>1526.4</ele>
        <time>2024-08-10T10:45:32Z</time>
      </trkpt>
      <trkpt lat="45.04596" lon="6.32403">
        <ele>1526.4</ele>
        <time>2024-08-10T10:45:33Z</time>
      </trkpt>
      <trkpt lat="45.04596" lon="6.32403">
        <ele>1526.4</ele>
        <time>2024-08-10T10:45:34Z</time>
      </trkpt>
      <trkpt lat="45.04596" lon="6.32403">
        <ele>1526.6</ele>
        <time>2024-08-10T10:45:35Z</time>
      </trkpt>
      <trkpt lat="45.04593" lon="6.32407">
        <ele>1526.8</ele>
        <time>2024-08-10T10:45:36Z</time>
      </trkpt>
      <trkpt lat="45.04592" lon="6.32408">
        <ele>1527</ele>
        <time>2024-08-10T10:45:37Z</time>
      </trkpt>
      <trkpt lat="45.04592" lon="6.32408">
        <ele>1527.2</ele>
        <time>2024-08-10T10:45:38Z</time>
      </trkpt>
      <trkpt lat="45.04589" lon="6.32413">
        <ele>1527.8</ele>
        <time>2024-08-10T10:45:39Z</time>
      </trkpt>
      <trkpt lat="45.04589" lon="6.32413">
        <ele>1527.8</ele>
        <time>2024-08-10T10:45:40Z</time>
      </trkpt>
      <trkpt lat="45.04588" lon="6.32416">
        <ele>1528</ele>
        <time>2024-08-10T10:45:41Z</time>
      </trkpt>
      <trkpt lat="45.04588" lon="6.32416">
        <ele>1528.4</ele>
        <time>2024-08-10T10:45:42Z</time>
      </trkpt>
      <trkpt lat="45.04586" lon="6.32417">
        <ele>1528.4</ele>
        <time>2024-08-10T10:45:43Z</time>
      </trkpt>
      <trkpt lat="45.04586" lon="6.32417">
        <ele>1528.6</ele>
        <time>2024-08-10T10:45:44Z</time>
      </trkpt>
      <trkpt lat="45.04586" lon="6.32417">
        <ele>1528.8</ele>
        <time>2024-08-10T10:45:45Z</time>
      </trkpt>
      <trkpt lat="45.04585" lon="6.3242">
        <ele>1529</ele>
        <time>2024-08-10T10:45:46Z</time>
      </trkpt>
      <trkpt lat="45.04585" lon="6.3242">
        <ele>1529</ele>
        <time>2024-08-10T10:45:47Z</time>
      </trkpt>
      <trkpt lat="45.04583" lon="6.32422">
        <ele>1529</ele>
        <time>2024-08-10T10:45:48Z</time>
      </trkpt>
      <trkpt lat="45.04583" lon="6.32422">
        <ele>1529</ele>
        <time>2024-08-10T10:45:49Z</time>
      </trkpt>
      <trkpt lat="45.04582" lon="6.32424">
        <ele>1529.4</ele>
        <time>2024-08-10T10:45:50Z</time>
      </trkpt>
      <trkpt lat="45.04582" lon="6.32424">
        <ele>1529.6</ele>
        <time>2024-08-10T10:45:51Z</time>
      </trkpt>
      <trkpt lat="45.04582" lon="6.32424">
        <ele>1529.6</ele>
        <time>2024-08-10T10:45:52Z</time>
      </trkpt>
      <trkpt lat="45.0458" lon="6.32426">
        <ele>1529.8</ele>
        <time>2024-08-10T10:45:53Z</time>
      </trkpt>
      <trkpt lat="45.0458" lon="6.32426">
        <ele>1530.4</ele>
        <time>2024-08-10T10:45:54Z</time>
      </trkpt>
      <trkpt lat="45.0458" lon="6.32426">
        <ele>1530.4</ele>
        <time>2024-08-10T10:45:55Z</time>
      </trkpt>
      <trkpt lat="45.04578" lon="6.32428">
        <ele>1530.4</ele>
        <time>2024-08-10T10:45:56Z</time>
      </trkpt>
      <trkpt lat="45.04578" lon="6.32428">
        <ele>1530.4</ele>
        <time>2024-08-10T10:45:57Z</time>
      </trkpt>
      <trkpt lat="45.04577" lon="6.3243">
        <ele>1530.8</ele>
        <time>2024-08-10T10:45:58Z</time>
      </trkpt>
      <trkpt lat="45.04577" lon="6.3243">
        <ele>1531</ele>
        <time>2024-08-10T10:45:59Z</time>
      </trkpt>
      <trkpt lat="45.04575" lon="6.32432">
        <ele>1531.4</ele>
        <time>2024-08-10T10:46:00Z</time>
      </trkpt>
      <trkpt lat="45.04575" lon="6.32432">
        <ele>1531.4</ele>
        <time>2024-08-10T10:46:01Z</time>
      </trkpt>
      <trkpt lat="45.04573" lon="6.32433">
        <ele>1531.8</ele>
        <time>2024-08-10T10:46:02Z</time>
      </trkpt>
      <trkpt lat="45.04573" lon="6.32433">
        <ele>1532.4</ele>
        <time>2024-08-10T10:46:03Z</time>
      </trkpt>
      <trkpt lat="45.04571" lon="6.32434">
        <ele>1532.4</ele>
        <time>2024-08-10T10:46:04Z</time>
      </trkpt>
      <trkpt lat="45.04571" lon="6.32434">
        <ele>1532.4</ele>
        <time>2024-08-10T10:46:05Z</time>
      </trkpt>
      <trkpt lat="45.04571" lon="6.32434">
        <ele>1532.6</ele>
        <time>2024-08-10T10:46:06Z</time>
      </trkpt>
      <trkpt lat="45.0457" lon="6.32436">
        <ele>1532.6</ele>
        <time>2024-08-10T10:46:07Z</time>
      </trkpt>
      <trkpt lat="45.0457" lon="6.32436">
        <ele>1532.6</ele>
        <time>2024-08-10T10:46:08Z</time>
      </trkpt>
      <trkpt lat="45.04568" lon="6.32438">
        <ele>1532.6</ele>
        <time>2024-08-10T10:46:09Z</time>
      </trkpt>
      <trkpt lat="45.04568" lon="6.32438">
        <ele>1532.8</ele>
        <time>2024-08-10T10:46:10Z</time>
      </trkpt>
      <trkpt lat="45.04567" lon="6.3244">
        <ele>1532.8</ele>
        <time>2024-08-10T10:46:11Z</time>
      </trkpt>
      <trkpt lat="45.04567" lon="6.3244">
        <ele>1533</ele>
        <time>2024-08-10T10:46:12Z</time>
      </trkpt>
      <trkpt lat="45.04565" lon="6.32442">
        <ele>1533</ele>
        <time>2024-08-10T10:46:13Z</time>
      </trkpt>
      <trkpt lat="45.04565" lon="6.32442">
        <ele>1533</ele>
        <time>2024-08-10T10:46:14Z</time>
      </trkpt>
      <trkpt lat="45.04565" lon="6.32442">
        <ele>1533</ele>
        <time>2024-08-10T10:46:15Z</time>
      </trkpt>
      <trkpt lat="45.04565" lon="6.32445">
        <ele>1533</ele>
        <time>2024-08-10T10:46:16Z</time>
      </trkpt>
      <trkpt lat="45.04565" lon="6.32445">
        <ele>1532.8</ele>
        <time>2024-08-10T10:46:17Z</time>
      </trkpt>
      <trkpt lat="45.04565" lon="6.32445">
        <ele>1532.8</ele>
        <time>2024-08-10T10:46:18Z</time>
      </trkpt>
      <trkpt lat="45.04565" lon="6.32449">
        <ele>1532.8</ele>
        <time>2024-08-10T10:46:19Z</time>
      </trkpt>
      <trkpt lat="45.04565" lon="6.32449">
        <ele>1533</ele>
        <time>2024-08-10T10:46:20Z</time>
      </trkpt>
      <trkpt lat="45.04566" lon="6.32452">
        <ele>1533</ele>
        <time>2024-08-10T10:46:21Z</time>
      </trkpt>
      <trkpt lat="45.04566" lon="6.32452">
        <ele>1533</ele>
        <time>2024-08-10T10:46:22Z</time>
      </trkpt>
      <trkpt lat="45.04566" lon="6.32452">
        <ele>1533.2</ele>
        <time>2024-08-10T10:46:23Z</time>
      </trkpt>
      <trkpt lat="45.04567" lon="6.32455">
        <ele>1533.2</ele>
        <time>2024-08-10T10:46:24Z</time>
      </trkpt>
      <trkpt lat="45.04567" lon="6.32455">
        <ele>1533</ele>
        <time>2024-08-10T10:46:25Z</time>
      </trkpt>
      <trkpt lat="45.04567" lon="6.32458">
        <ele>1533</ele>
        <time>2024-08-10T10:46:26Z</time>
      </trkpt>
      <trkpt lat="45.04567" lon="6.32458">
        <ele>1533</ele>
        <time>2024-08-10T10:46:27Z</time>
      </trkpt>
      <trkpt lat="45.04567" lon="6.32461">
        <ele>1533</ele>
        <time>2024-08-10T10:46:28Z</time>
      </trkpt>
      <trkpt lat="45.04567" lon="6.32461">
        <ele>1532.8</ele>
        <time>2024-08-10T10:46:29Z</time>
      </trkpt>
      <trkpt lat="45.04567" lon="6.32464">
        <ele>1532.6</ele>
        <time>2024-08-10T10:46:30Z</time>
      </trkpt>
      <trkpt lat="45.04567" lon="6.32464">
        <ele>1532.4</ele>
        <time>2024-08-10T10:46:31Z</time>
      </trkpt>
      <trkpt lat="45.04568" lon="6.32467">
        <ele>1532.2</ele>
        <time>2024-08-10T10:46:32Z</time>
      </trkpt>
      <trkpt lat="45.04568" lon="6.32467">
        <ele>1532</ele>
        <time>2024-08-10T10:46:33Z</time>
      </trkpt>
      <trkpt lat="45.04568" lon="6.3247">
        <ele>1531.8</ele>
        <time>2024-08-10T10:46:34Z</time>
      </trkpt>
      <trkpt lat="45.04568" lon="6.3247">
        <ele>1531.6</ele>
        <time>2024-08-10T10:46:35Z</time>
      </trkpt>
      <trkpt lat="45.04569" lon="6.32474">
        <ele>1531.4</ele>
        <time>2024-08-10T10:46:36Z</time>
      </trkpt>
      <trkpt lat="45.04569" lon="6.32474">
        <ele>1531.4</ele>
        <time>2024-08-10T10:46:37Z</time>
      </trkpt>
      <trkpt lat="45.0457" lon="6.32477">
        <ele>1531</ele>
        <time>2024-08-10T10:46:38Z</time>
      </trkpt>
      <trkpt lat="45.0457" lon="6.32477">
        <ele>1531</ele>
        <time>2024-08-10T10:46:39Z</time>
      </trkpt>
      <trkpt lat="45.04571" lon="6.3248">
        <ele>1531</ele>
        <time>2024-08-10T10:46:40Z</time>
      </trkpt>
      <trkpt lat="45.04571" lon="6.3248">
        <ele>1531</ele>
        <time>2024-08-10T10:46:41Z</time>
      </trkpt>
      <trkpt lat="45.04572" lon="6.32483">
        <ele>1531</ele>
        <time>2024-08-10T10:46:42Z</time>
      </trkpt>
      <trkpt lat="45.04572" lon="6.32483">
        <ele>1530.6</ele>
        <time>2024-08-10T10:46:43Z</time>
      </trkpt>
      <trkpt lat="45.04572" lon="6.32487">
        <ele>1530.6</ele>
        <time>2024-08-10T10:46:44Z</time>
      </trkpt>
      <trkpt lat="45.04572" lon="6.32487">
        <ele>1530.6</ele>
        <time>2024-08-10T10:46:45Z</time>
      </trkpt>
      <trkpt lat="45.04572" lon="6.32491">
        <ele>1530.6</ele>
        <time>2024-08-10T10:46:46Z</time>
      </trkpt>
      <trkpt lat="45.04572" lon="6.32491">
        <ele>1530.6</ele>
        <time>2024-08-10T10:46:47Z</time>
      </trkpt>
      <trkpt lat="45.04571" lon="6.32494">
        <ele>1530.6</ele>
        <time>2024-08-10T10:46:48Z</time>
      </trkpt>
      <trkpt lat="45.04571" lon="6.32494">
        <ele>1530.6</ele>
        <time>2024-08-10T10:46:49Z</time>
      </trkpt>
      <trkpt lat="45.0457" lon="6.32498">
        <ele>1530.6</ele>
        <time>2024-08-10T10:46:50Z</time>
      </trkpt>
      <trkpt lat="45.0457" lon="6.32498">
        <ele>1530.6</ele>
        <time>2024-08-10T10:46:51Z</time>
      </trkpt>
      <trkpt lat="45.0457" lon="6.32502">
        <ele>1530.8</ele>
        <time>2024-08-10T10:46:52Z</time>
      </trkpt>
      <trkpt lat="45.0457" lon="6.32502">
        <ele>1530.8</ele>
        <time>2024-08-10T10:46:53Z</time>
      </trkpt>
      <trkpt lat="45.04571" lon="6.32506">
        <ele>1530.8</ele>
        <time>2024-08-10T10:46:54Z</time>
      </trkpt>
      <trkpt lat="45.04571" lon="6.32506">
        <ele>1530.6</ele>
        <time>2024-08-10T10:46:55Z</time>
      </trkpt>
      <trkpt lat="45.04571" lon="6.32509">
        <ele>1530.4</ele>
        <time>2024-08-10T10:46:56Z</time>
      </trkpt>
      <trkpt lat="45.04571" lon="6.32509">
        <ele>1530</ele>
        <time>2024-08-10T10:46:57Z</time>
      </trkpt>
      <trkpt lat="45.04571" lon="6.32512">
        <ele>1530</ele>
        <time>2024-08-10T10:46:58Z</time>
      </trkpt>
      <trkpt lat="45.04571" lon="6.32512">
        <ele>1530</ele>
        <time>2024-08-10T10:46:59Z</time>
      </trkpt>
      <trkpt lat="45.0457" lon="6.32516">
        <ele>1530</ele>
        <time>2024-08-10T10:47:00Z</time>
      </trkpt>
      <trkpt lat="45.0457" lon="6.32516">
        <ele>1530</ele>
        <time>2024-08-10T10:47:01Z</time>
      </trkpt>
      <trkpt lat="45.0457" lon="6.3252">
        <ele>1530</ele>
        <time>2024-08-10T10:47:02Z</time>
      </trkpt>
      <trkpt lat="45.0457" lon="6.3252">
        <ele>1529.6</ele>
        <time>2024-08-10T10:47:03Z</time>
      </trkpt>
      <trkpt lat="45.04569" lon="6.32523">
        <ele>1529.6</ele>
        <time>2024-08-10T10:47:04Z</time>
      </trkpt>
      <trkpt lat="45.04569" lon="6.32523">
        <ele>1529.6</ele>
        <time>2024-08-10T10:47:05Z</time>
      </trkpt>
      <trkpt lat="45.04568" lon="6.32527">
        <ele>1529.6</ele>
        <time>2024-08-10T10:47:06Z</time>
      </trkpt>
      <trkpt lat="45.04568" lon="6.32527">
        <ele>1529.6</ele>
        <time>2024-08-10T10:47:07Z</time>
      </trkpt>
      <trkpt lat="45.04567" lon="6.32531">
        <ele>1529.4</ele>
        <time>2024-08-10T10:47:08Z</time>
      </trkpt>
      <trkpt lat="45.04567" lon="6.32531">
        <ele>1529.2</ele>
        <time>2024-08-10T10:47:09Z</time>
      </trkpt>
      <trkpt lat="45.04567" lon="6.32531">
        <ele>1529.2</ele>
        <time>2024-08-10T10:47:10Z</time>
      </trkpt>
      <trkpt lat="45.04567" lon="6.32535">
        <ele>1529</ele>
        <time>2024-08-10T10:47:11Z</time>
      </trkpt>
      <trkpt lat="45.04567" lon="6.32535">
        <ele>1529</ele>
        <time>2024-08-10T10:47:12Z</time>
      </trkpt>
      <trkpt lat="45.04567" lon="6.32537">
        <ele>1529</ele>
        <time>2024-08-10T10:47:13Z</time>
      </trkpt>
      <trkpt lat="45.04567" lon="6.32537">
        <ele>1528.6</ele>
        <time>2024-08-10T10:47:14Z</time>
      </trkpt>
      <trkpt lat="45.04567" lon="6.3254">
        <ele>1528.2</ele>
        <time>2024-08-10T10:47:15Z</time>
      </trkpt>
      <trkpt lat="45.04567" lon="6.3254">
        <ele>1528.2</ele>
        <time>2024-08-10T10:47:16Z</time>
      </trkpt>
      <trkpt lat="45.04567" lon="6.32543">
        <ele>1528</ele>
        <time>2024-08-10T10:47:17Z</time>
      </trkpt>
      <trkpt lat="45.04567" lon="6.32543">
        <ele>1527.8</ele>
        <time>2024-08-10T10:47:18Z</time>
      </trkpt>
      <trkpt lat="45.04567" lon="6.32543">
        <ele>1527.6</ele>
        <time>2024-08-10T10:47:19Z</time>
      </trkpt>
      <trkpt lat="45.04569" lon="6.32547">
        <ele>1527.4</ele>
        <time>2024-08-10T10:47:20Z</time>
      </trkpt>
      <trkpt lat="45.04569" lon="6.32547">
        <ele>1527.6</ele>
        <time>2024-08-10T10:47:21Z</time>
      </trkpt>
      <trkpt lat="45.0457" lon="6.32548">
        <ele>1527.6</ele>
        <time>2024-08-10T10:47:22Z</time>
      </trkpt>
      <trkpt lat="45.0457" lon="6.32548">
        <ele>1527.6</ele>
        <time>2024-08-10T10:47:23Z</time>
      </trkpt>
      <trkpt lat="45.0457" lon="6.32548">
        <ele>1527.6</ele>
        <time>2024-08-10T10:47:24Z</time>
      </trkpt>
      <trkpt lat="45.04571" lon="6.32551">
        <ele>1527.4</ele>
        <time>2024-08-10T10:47:25Z</time>
      </trkpt>
      <trkpt lat="45.04571" lon="6.32551">
        <ele>1527.4</ele>
        <time>2024-08-10T10:47:26Z</time>
      </trkpt>
      <trkpt lat="45.0457" lon="6.32553">
        <ele>1527.2</ele>
        <time>2024-08-10T10:47:27Z</time>
      </trkpt>
      <trkpt lat="45.0457" lon="6.32553">
        <ele>1526.8</ele>
        <time>2024-08-10T10:47:28Z</time>
      </trkpt>
      <trkpt lat="45.0457" lon="6.32553">
        <ele>1526.4</ele>
        <time>2024-08-10T10:47:29Z</time>
      </trkpt>
      <trkpt lat="45.04569" lon="6.32556">
        <ele>1526.2</ele>
        <time>2024-08-10T10:47:30Z</time>
      </trkpt>
      <trkpt lat="45.04569" lon="6.32556">
        <ele>1526.2</ele>
        <time>2024-08-10T10:47:31Z</time>
      </trkpt>
      <trkpt lat="45.04567" lon="6.32556">
        <ele>1526</ele>
        <time>2024-08-10T10:47:32Z</time>
      </trkpt>
      <trkpt lat="45.04567" lon="6.32556">
        <ele>1525.6</ele>
        <time>2024-08-10T10:47:33Z</time>
      </trkpt>
      <trkpt lat="45.04564" lon="6.32557">
        <ele>1525.2</ele>
        <time>2024-08-10T10:47:34Z</time>
      </trkpt>
      <trkpt lat="45.04564" lon="6.32557">
        <ele>1525.2</ele>
        <time>2024-08-10T10:47:35Z</time>
      </trkpt>
      <trkpt lat="45.04562" lon="6.32559">
        <ele>1525</ele>
        <time>2024-08-10T10:47:36Z</time>
      </trkpt>
      <trkpt lat="45.04562" lon="6.32559">
        <ele>1525</ele>
        <time>2024-08-10T10:47:37Z</time>
      </trkpt>
      <trkpt lat="45.04561" lon="6.32562">
        <ele>1525</ele>
        <time>2024-08-10T10:47:38Z</time>
      </trkpt>
      <trkpt lat="45.04561" lon="6.32562">
        <ele>1525</ele>
        <time>2024-08-10T10:47:39Z</time>
      </trkpt>
      <trkpt lat="45.04561" lon="6.32562">
        <ele>1525.2</ele>
        <time>2024-08-10T10:47:40Z</time>
      </trkpt>
      <trkpt lat="45.04561" lon="6.32565">
        <ele>1525.2</ele>
        <time>2024-08-10T10:47:41Z</time>
      </trkpt>
      <trkpt lat="45.04561" lon="6.32565">
        <ele>1525.2</ele>
        <time>2024-08-10T10:47:42Z</time>
      </trkpt>
      <trkpt lat="45.0456" lon="6.32568">
        <ele>1525</ele>
        <time>2024-08-10T10:47:43Z</time>
      </trkpt>
      <trkpt lat="45.0456" lon="6.32568">
        <ele>1524.8</ele>
        <time>2024-08-10T10:47:44Z</time>
      </trkpt>
      <trkpt lat="45.04559" lon="6.32571">
        <ele>1523.8</ele>
        <time>2024-08-10T10:47:45Z</time>
      </trkpt>
      <trkpt lat="45.04559" lon="6.32571">
        <ele>1523.8</ele>
        <time>2024-08-10T10:47:46Z</time>
      </trkpt>
      <trkpt lat="45.04558" lon="6.32574">
        <ele>1523.6</ele>
        <time>2024-08-10T10:47:47Z</time>
      </trkpt>
      <trkpt lat="45.04558" lon="6.32574">
        <ele>1523.6</ele>
        <time>2024-08-10T10:47:48Z</time>
      </trkpt>
      <trkpt lat="45.04558" lon="6.32577">
        <ele>1523.6</ele>
        <time>2024-08-10T10:47:49Z</time>
      </trkpt>
      <trkpt lat="45.04558" lon="6.32577">
        <ele>1523.6</ele>
        <time>2024-08-10T10:47:50Z</time>
      </trkpt>
      <trkpt lat="45.04557" lon="6.3258">
        <ele>1523.6</ele>
        <time>2024-08-10T10:47:51Z</time>
      </trkpt>
      <trkpt lat="45.04557" lon="6.3258">
        <ele>1523.6</ele>
        <time>2024-08-10T10:47:52Z</time>
      </trkpt>
      <trkpt lat="45.04554" lon="6.32582">
        <ele>1523.6</ele>
        <time>2024-08-10T10:47:53Z</time>
      </trkpt>
      <trkpt lat="45.04554" lon="6.32582">
        <ele>1523.6</ele>
        <time>2024-08-10T10:47:54Z</time>
      </trkpt>
      <trkpt lat="45.04552" lon="6.32584">
        <ele>1523.8</ele>
        <time>2024-08-10T10:47:55Z</time>
      </trkpt>
      <trkpt lat="45.04552" lon="6.32584">
        <ele>1523.8</ele>
        <time>2024-08-10T10:47:56Z</time>
      </trkpt>
      <trkpt lat="45.04552" lon="6.32584">
        <ele>1523.8</ele>
        <time>2024-08-10T10:47:57Z</time>
      </trkpt>
      <trkpt lat="45.0455" lon="6.32587">
        <ele>1524</ele>
        <time>2024-08-10T10:47:58Z</time>
      </trkpt>
      <trkpt lat="45.0455" lon="6.32587">
        <ele>1524</ele>
        <time>2024-08-10T10:47:59Z</time>
      </trkpt>
      <trkpt lat="45.0455" lon="6.32587">
        <ele>1524</ele>
        <time>2024-08-10T10:48:00Z</time>
      </trkpt>
      <trkpt lat="45.04549" lon="6.3259">
        <ele>1524</ele>
        <time>2024-08-10T10:48:01Z</time>
      </trkpt>
      <trkpt lat="45.04549" lon="6.3259">
        <ele>1524.2</ele>
        <time>2024-08-10T10:48:02Z</time>
      </trkpt>
      <trkpt lat="45.04548" lon="6.32592">
        <ele>1524.4</ele>
        <time>2024-08-10T10:48:03Z</time>
      </trkpt>
      <trkpt lat="45.04548" lon="6.32592">
        <ele>1524.4</ele>
        <time>2024-08-10T10:48:04Z</time>
      </trkpt>
      <trkpt lat="45.04545" lon="6.32595">
        <ele>1524.4</ele>
        <time>2024-08-10T10:48:05Z</time>
      </trkpt>
      <trkpt lat="45.04545" lon="6.32595">
        <ele>1524.4</ele>
        <time>2024-08-10T10:48:06Z</time>
      </trkpt>
      <trkpt lat="45.04543" lon="6.32596">
        <ele>1524.4</ele>
        <time>2024-08-10T10:48:07Z</time>
      </trkpt>
      <trkpt lat="45.04543" lon="6.32596">
        <ele>1524.4</ele>
        <time>2024-08-10T10:48:08Z</time>
      </trkpt>
      <trkpt lat="45.04541" lon="6.32599">
        <ele>1524.4</ele>
        <time>2024-08-10T10:48:09Z</time>
      </trkpt>
      <trkpt lat="45.04541" lon="6.32599">
        <ele>1524.6</ele>
        <time>2024-08-10T10:48:10Z</time>
      </trkpt>
      <trkpt lat="45.0454" lon="6.32601">
        <ele>1525</ele>
        <time>2024-08-10T10:48:11Z</time>
      </trkpt>
      <trkpt lat="45.0454" lon="6.32601">
        <ele>1525</ele>
        <time>2024-08-10T10:48:12Z</time>
      </trkpt>
      <trkpt lat="45.04539" lon="6.32604">
        <ele>1525</ele>
        <time>2024-08-10T10:48:13Z</time>
      </trkpt>
      <trkpt lat="45.04539" lon="6.32604">
        <ele>1525</ele>
        <time>2024-08-10T10:48:14Z</time>
      </trkpt>
      <trkpt lat="45.04538" lon="6.32607">
        <ele>1525</ele>
        <time>2024-08-10T10:48:15Z</time>
      </trkpt>
      <trkpt lat="45.04538" lon="6.32607">
        <ele>1525.2</ele>
        <time>2024-08-10T10:48:16Z</time>
      </trkpt>
      <trkpt lat="45.04536" lon="6.3261">
        <ele>1525.2</ele>
        <time>2024-08-10T10:48:17Z</time>
      </trkpt>
      <trkpt lat="45.04536" lon="6.3261">
        <ele>1525.6</ele>
        <time>2024-08-10T10:48:18Z</time>
      </trkpt>
      <trkpt lat="45.04535" lon="6.32613">
        <ele>1525.6</ele>
        <time>2024-08-10T10:48:19Z</time>
      </trkpt>
      <trkpt lat="45.04535" lon="6.32613">
        <ele>1525.6</ele>
        <time>2024-08-10T10:48:20Z</time>
      </trkpt>
      <trkpt lat="45.04534" lon="6.32614">
        <ele>1525.8</ele>
        <time>2024-08-10T10:48:21Z</time>
      </trkpt>
      <trkpt lat="45.04534" lon="6.32614">
        <ele>1525.8</ele>
        <time>2024-08-10T10:48:22Z</time>
      </trkpt>
      <trkpt lat="45.04532" lon="6.32616">
        <ele>1526</ele>
        <time>2024-08-10T10:48:23Z</time>
      </trkpt>
      <trkpt lat="45.04532" lon="6.32616">
        <ele>1526</ele>
        <time>2024-08-10T10:48:24Z</time>
      </trkpt>
      <trkpt lat="45.04531" lon="6.32618">
        <ele>1526</ele>
        <time>2024-08-10T10:48:25Z</time>
      </trkpt>
      <trkpt lat="45.04531" lon="6.32618">
        <ele>1526</ele>
        <time>2024-08-10T10:48:26Z</time>
      </trkpt>
      <trkpt lat="45.0453" lon="6.32622">
        <ele>1526</ele>
        <time>2024-08-10T10:48:27Z</time>
      </trkpt>
      <trkpt lat="45.0453" lon="6.32625">
        <ele>1525.8</ele>
        <time>2024-08-10T10:48:28Z</time>
      </trkpt>
      <trkpt lat="45.0453" lon="6.32625">
        <ele>1525.8</ele>
        <time>2024-08-10T10:48:29Z</time>
      </trkpt>
      <trkpt lat="45.04531" lon="6.32627">
        <ele>1525.8</ele>
        <time>2024-08-10T10:48:30Z</time>
      </trkpt>
      <trkpt lat="45.04533" lon="6.32628">
        <ele>1525.8</ele>
        <time>2024-08-10T10:48:31Z</time>
      </trkpt>
      <trkpt lat="45.04533" lon="6.32628">
        <ele>1525.8</ele>
        <time>2024-08-10T10:48:32Z</time>
      </trkpt>
      <trkpt lat="45.04533" lon="6.32628">
        <ele>1525.8</ele>
        <time>2024-08-10T10:48:33Z</time>
      </trkpt>
      <trkpt lat="45.04533" lon="6.32628">
        <ele>1525.8</ele>
        <time>2024-08-10T10:48:34Z</time>
      </trkpt>
      <trkpt lat="45.04533" lon="6.32628">
        <ele>1525.8</ele>
        <time>2024-08-10T10:48:35Z</time>
      </trkpt>
      <trkpt lat="45.04533" lon="6.32628">
        <ele>1526</ele>
        <time>2024-08-10T10:48:36Z</time>
      </trkpt>
      <trkpt lat="45.04535" lon="6.32628">
        <ele>1526</ele>
        <time>2024-08-10T10:48:37Z</time>
      </trkpt>
      <trkpt lat="45.04535" lon="6.32628">
        <ele>1526</ele>
        <time>2024-08-10T10:48:38Z</time>
      </trkpt>
      <trkpt lat="45.04535" lon="6.32628">
        <ele>1526.2</ele>
        <time>2024-08-10T10:48:39Z</time>
      </trkpt>
      <trkpt lat="45.04535" lon="6.32628">
        <ele>1526.4</ele>
        <time>2024-08-10T10:48:40Z</time>
      </trkpt>
      <trkpt lat="45.04535" lon="6.32628">
        <ele>1526.4</ele>
        <time>2024-08-10T10:48:41Z</time>
      </trkpt>
      <trkpt lat="45.04535" lon="6.32628">
        <ele>1526.4</ele>
        <time>2024-08-10T10:48:42Z</time>
      </trkpt>
      <trkpt lat="45.04535" lon="6.32628">
        <ele>1526.4</ele>
        <time>2024-08-10T10:48:43Z</time>
      </trkpt>
      <trkpt lat="45.04535" lon="6.32628">
        <ele>1526.4</ele>
        <time>2024-08-10T10:48:44Z</time>
      </trkpt>
      <trkpt lat="45.04535" lon="6.32628">
        <ele>1526.4</ele>
        <time>2024-08-10T10:48:45Z</time>
      </trkpt>
      <trkpt lat="45.04535" lon="6.32628">
        <ele>1526.4</ele>
        <time>2024-08-10T10:48:46Z</time>
      </trkpt>
      <trkpt lat="45.04537" lon="6.32631">
        <ele>1526.2</ele>
        <time>2024-08-10T10:48:47Z</time>
      </trkpt>
      <trkpt lat="45.04537" lon="6.32631">
        <ele>1526.2</ele>
        <time>2024-08-10T10:48:48Z</time>
      </trkpt>
      <trkpt lat="45.0454" lon="6.32633">
        <ele>1526</ele>
        <time>2024-08-10T10:48:49Z</time>
      </trkpt>
      <trkpt lat="45.0454" lon="6.32633">
        <ele>1526</ele>
        <time>2024-08-10T10:48:50Z</time>
      </trkpt>
      <trkpt lat="45.04541" lon="6.32636">
        <ele>1525.8</ele>
        <time>2024-08-10T10:48:51Z</time>
      </trkpt>
      <trkpt lat="45.04541" lon="6.32636">
        <ele>1525.8</ele>
        <time>2024-08-10T10:48:52Z</time>
      </trkpt>
      <trkpt lat="45.04541" lon="6.32636">
        <ele>1525.6</ele>
        <time>2024-08-10T10:48:53Z</time>
      </trkpt>
      <trkpt lat="45.04541" lon="6.32636">
        <ele>1525.4</ele>
        <time>2024-08-10T10:48:54Z</time>
      </trkpt>
      <trkpt lat="45.04541" lon="6.32636">
        <ele>1525.4</ele>
        <time>2024-08-10T10:48:55Z</time>
      </trkpt>
      <trkpt lat="45.04541" lon="6.32636">
        <ele>1525.8</ele>
        <time>2024-08-10T10:48:56Z</time>
      </trkpt>
      <trkpt lat="45.04541" lon="6.32636">
        <ele>1526</ele>
        <time>2024-08-10T10:48:57Z</time>
      </trkpt>
      <trkpt lat="45.04541" lon="6.32636">
        <ele>1526</ele>
        <time>2024-08-10T10:48:58Z</time>
      </trkpt>
      <trkpt lat="45.04541" lon="6.32636">
        <ele>1526.2</ele>
        <time>2024-08-10T10:48:59Z</time>
      </trkpt>
      <trkpt lat="45.04541" lon="6.32636">
        <ele>1526.2</ele>
        <time>2024-08-10T10:49:00Z</time>
      </trkpt>
      <trkpt lat="45.04541" lon="6.32636">
        <ele>1526</ele>
        <time>2024-08-10T10:49:01Z</time>
      </trkpt>
      <trkpt lat="45.04541" lon="6.32636">
        <ele>1526</ele>
        <time>2024-08-10T10:49:02Z</time>
      </trkpt>
      <trkpt lat="45.04541" lon="6.32636">
        <ele>1526.2</ele>
        <time>2024-08-10T10:49:03Z</time>
      </trkpt>
      <trkpt lat="45.04541" lon="6.32636">
        <ele>1526.2</ele>
        <time>2024-08-10T10:49:04Z</time>
      </trkpt>
      <trkpt lat="45.04541" lon="6.32636">
        <ele>1526.2</ele>
        <time>2024-08-10T10:49:05Z</time>
      </trkpt>
      <trkpt lat="45.04541" lon="6.32636">
        <ele>1526.2</ele>
        <time>2024-08-10T10:49:06Z</time>
      </trkpt>
      <trkpt lat="45.04541" lon="6.32636">
        <ele>1526.4</ele>
        <time>2024-08-10T10:49:07Z</time>
      </trkpt>
      <trkpt lat="45.04541" lon="6.32636">
        <ele>1526.6</ele>
        <time>2024-08-10T10:49:08Z</time>
      </trkpt>
      <trkpt lat="45.04541" lon="6.32636">
        <ele>1526.8</ele>
        <time>2024-08-10T10:49:09Z</time>
      </trkpt>
      <trkpt lat="45.04541" lon="6.32636">
        <ele>1527</ele>
        <time>2024-08-10T10:49:10Z</time>
      </trkpt>
      <trkpt lat="45.04541" lon="6.32636">
        <ele>1527.4</ele>
        <time>2024-08-10T10:49:11Z</time>
      </trkpt>
      <trkpt lat="45.04541" lon="6.32636">
        <ele>1527.4</ele>
        <time>2024-08-10T10:49:12Z</time>
      </trkpt>
      <trkpt lat="45.04541" lon="6.32636">
        <ele>1527.4</ele>
        <time>2024-08-10T10:49:13Z</time>
      </trkpt>
      <trkpt lat="45.04541" lon="6.32636">
        <ele>1527.4</ele>
        <time>2024-08-10T10:49:14Z</time>
      </trkpt>
      <trkpt lat="45.04541" lon="6.32636">
        <ele>1527.6</ele>
        <time>2024-08-10T10:49:15Z</time>
      </trkpt>
      <trkpt lat="45.04541" lon="6.32636">
        <ele>1527.6</ele>
        <time>2024-08-10T10:49:16Z</time>
      </trkpt>
      <trkpt lat="45.04541" lon="6.32636">
        <ele>1527.6</ele>
        <time>2024-08-10T10:49:17Z</time>
      </trkpt>
      <trkpt lat="45.04541" lon="6.32636">
        <ele>1527.6</ele>
        <time>2024-08-10T10:49:18Z</time>
      </trkpt>
      <trkpt lat="45.04541" lon="6.32636">
        <ele>1527.6</ele>
        <time>2024-08-10T10:49:19Z</time>
      </trkpt>
      <trkpt lat="45.04541" lon="6.32636">
        <ele>1527.6</ele>
        <time>2024-08-10T10:49:20Z</time>
      </trkpt>
      <trkpt lat="45.04541" lon="6.32636">
        <ele>1527.6</ele>
        <time>2024-08-10T10:49:21Z</time>
      </trkpt>
      <trkpt lat="45.04541" lon="6.32636">
        <ele>1527.4</ele>
        <time>2024-08-10T10:49:22Z</time>
      </trkpt>
      <trkpt lat="45.04541" lon="6.32636">
        <ele>1527.4</ele>
        <time>2024-08-10T10:49:23Z</time>
      </trkpt>
      <trkpt lat="45.04541" lon="6.32636">
        <ele>1527.6</ele>
        <time>2024-08-10T10:49:24Z</time>
      </trkpt>
      <trkpt lat="45.04541" lon="6.32636">
        <ele>1527.6</ele>
        <time>2024-08-10T10:49:25Z</time>
      </trkpt>
      <trkpt lat="45.04541" lon="6.32636">
        <ele>1527.6</ele>
        <time>2024-08-10T10:49:26Z</time>
      </trkpt>
      <trkpt lat="45.04541" lon="6.32636">
        <ele>1527.6</ele>
        <time>2024-08-10T10:49:27Z</time>
      </trkpt>
      <trkpt lat="45.04541" lon="6.32636">
        <ele>1527.6</ele>
        <time>2024-08-10T10:49:28Z</time>
      </trkpt>
      <trkpt lat="45.04541" lon="6.32636">
        <ele>1527.8</ele>
        <time>2024-08-10T10:49:29Z</time>
      </trkpt>
      <trkpt lat="45.04541" lon="6.32636">
        <ele>1527.8</ele>
        <time>2024-08-10T10:49:30Z</time>
      </trkpt>
      <trkpt lat="45.04541" lon="6.32639">
        <ele>1527.8</ele>
        <time>2024-08-10T10:49:31Z</time>
      </trkpt>
      <trkpt lat="45.04541" lon="6.32639">
        <ele>1527.8</ele>
        <time>2024-08-10T10:49:32Z</time>
      </trkpt>
      <trkpt lat="45.0454" lon="6.32642">
        <ele>1528</ele>
        <time>2024-08-10T10:49:33Z</time>
      </trkpt>
      <trkpt lat="45.0454" lon="6.32642">
        <ele>1528.4</ele>
        <time>2024-08-10T10:49:34Z</time>
      </trkpt>
      <trkpt lat="45.04538" lon="6.32647">
        <ele>1528.8</ele>
        <time>2024-08-10T10:49:35Z</time>
      </trkpt>
      <trkpt lat="45.04538" lon="6.32647">
        <ele>1529.2</ele>
        <time>2024-08-10T10:49:36Z</time>
      </trkpt>
      <trkpt lat="45.04537" lon="6.3265">
        <ele>1529.2</ele>
        <time>2024-08-10T10:49:37Z</time>
      </trkpt>
      <trkpt lat="45.04537" lon="6.3265">
        <ele>1529.2</ele>
        <time>2024-08-10T10:49:38Z</time>
      </trkpt>
      <trkpt lat="45.04537" lon="6.32653">
        <ele>1529.4</ele>
        <time>2024-08-10T10:49:39Z</time>
      </trkpt>
      <trkpt lat="45.04537" lon="6.32653">
        <ele>1529.4</ele>
        <time>2024-08-10T10:49:40Z</time>
      </trkpt>
      <trkpt lat="45.04537" lon="6.32653">
        <ele>1529.6</ele>
        <time>2024-08-10T10:49:41Z</time>
      </trkpt>
      <trkpt lat="45.04537" lon="6.32653">
        <ele>1529.8</ele>
        <time>2024-08-10T10:49:42Z</time>
      </trkpt>
      <trkpt lat="45.04537" lon="6.32653">
        <ele>1530</ele>
        <time>2024-08-10T10:49:43Z</time>
      </trkpt>
      <trkpt lat="45.04539" lon="6.32654">
        <ele>1530</ele>
        <time>2024-08-10T10:49:44Z</time>
      </trkpt>
      <trkpt lat="45.04539" lon="6.32654">
        <ele>1530.4</ele>
        <time>2024-08-10T10:49:45Z</time>
      </trkpt>
      <trkpt lat="45.04539" lon="6.32654">
        <ele>1530.8</ele>
        <time>2024-08-10T10:49:46Z</time>
      </trkpt>
      <trkpt lat="45.04541" lon="6.32653">
        <ele>1531.2</ele>
        <time>2024-08-10T10:49:47Z</time>
      </trkpt>
      <trkpt lat="45.04541" lon="6.32653">
        <ele>1531.2</ele>
        <time>2024-08-10T10:49:48Z</time>
      </trkpt>
      <trkpt lat="45.04543" lon="6.3265">
        <ele>1531.6</ele>
        <time>2024-08-10T10:49:49Z</time>
      </trkpt>
      <trkpt lat="45.04543" lon="6.3265">
        <ele>1531.6</ele>
        <time>2024-08-10T10:49:50Z</time>
      </trkpt>
      <trkpt lat="45.04545" lon="6.32649">
        <ele>1531.6</ele>
        <time>2024-08-10T10:49:51Z</time>
      </trkpt>
      <trkpt lat="45.04545" lon="6.32649">
        <ele>1532</ele>
        <time>2024-08-10T10:49:52Z</time>
      </trkpt>
      <trkpt lat="45.04545" lon="6.32649">
        <ele>1531.8</ele>
        <time>2024-08-10T10:49:53Z</time>
      </trkpt>
      <trkpt lat="45.04545" lon="6.32649">
        <ele>1532</ele>
        <time>2024-08-10T10:49:54Z</time>
      </trkpt>
      <trkpt lat="45.04545" lon="6.32649">
        <ele>1532</ele>
        <time>2024-08-10T10:49:55Z</time>
      </trkpt>
      <trkpt lat="45.04545" lon="6.32649">
        <ele>1532.4</ele>
        <time>2024-08-10T10:49:56Z</time>
      </trkpt>
      <trkpt lat="45.04545" lon="6.32649">
        <ele>1532.4</ele>
        <time>2024-08-10T10:49:57Z</time>
      </trkpt>
      <trkpt lat="45.04546" lon="6.32651">
        <ele>1532.6</ele>
        <time>2024-08-10T10:49:58Z</time>
      </trkpt>
      <trkpt lat="45.04546" lon="6.32651">
        <ele>1532.8</ele>
        <time>2024-08-10T10:49:59Z</time>
      </trkpt>
      <trkpt lat="45.04544" lon="6.32654">
        <ele>1533.6</ele>
        <time>2024-08-10T10:50:00Z</time>
      </trkpt>
      <trkpt lat="45.04544" lon="6.32654">
        <ele>1533.8</ele>
        <time>2024-08-10T10:50:01Z</time>
      </trkpt>
      <trkpt lat="45.04542" lon="6.32656">
        <ele>1533.8</ele>
        <time>2024-08-10T10:50:02Z</time>
      </trkpt>
      <trkpt lat="45.04542" lon="6.32656">
        <ele>1534</ele>
        <time>2024-08-10T10:50:03Z</time>
      </trkpt>
      <trkpt lat="45.04542" lon="6.32656">
        <ele>1534</ele>
        <time>2024-08-10T10:50:04Z</time>
      </trkpt>
      <trkpt lat="45.04541" lon="6.3266">
        <ele>1534</ele>
        <time>2024-08-10T10:50:05Z</time>
      </trkpt>
      <trkpt lat="45.04541" lon="6.3266">
        <ele>1534</ele>
        <time>2024-08-10T10:50:06Z</time>
      </trkpt>
      <trkpt lat="45.0454" lon="6.32662">
        <ele>1534.2</ele>
        <time>2024-08-10T10:50:07Z</time>
      </trkpt>
      <trkpt lat="45.0454" lon="6.32662">
        <ele>1534.4</ele>
        <time>2024-08-10T10:50:08Z</time>
      </trkpt>
      <trkpt lat="45.04539" lon="6.32664">
        <ele>1534.8</ele>
        <time>2024-08-10T10:50:09Z</time>
      </trkpt>
      <trkpt lat="45.04539" lon="6.32664">
        <ele>1534.8</ele>
        <time>2024-08-10T10:50:10Z</time>
      </trkpt>
      <trkpt lat="45.04537" lon="6.32667">
        <ele>1534.8</ele>
        <time>2024-08-10T10:50:11Z</time>
      </trkpt>
      <trkpt lat="45.04537" lon="6.32667">
        <ele>1534.8</ele>
        <time>2024-08-10T10:50:12Z</time>
      </trkpt>
      <trkpt lat="45.04536" lon="6.32669">
        <ele>1534.8</ele>
        <time>2024-08-10T10:50:13Z</time>
      </trkpt>
      <trkpt lat="45.04536" lon="6.32669">
        <ele>1535</ele>
        <time>2024-08-10T10:50:14Z</time>
      </trkpt>
      <trkpt lat="45.04534" lon="6.32672">
        <ele>1535.2</ele>
        <time>2024-08-10T10:50:15Z</time>
      </trkpt>
      <trkpt lat="45.04534" lon="6.32672">
        <ele>1535.2</ele>
        <time>2024-08-10T10:50:16Z</time>
      </trkpt>
      <trkpt lat="45.04533" lon="6.32674">
        <ele>1535.2</ele>
        <time>2024-08-10T10:50:17Z</time>
      </trkpt>
      <trkpt lat="45.04533" lon="6.32674">
        <ele>1535.2</ele>
        <time>2024-08-10T10:50:18Z</time>
      </trkpt>
      <trkpt lat="45.04532" lon="6.32677">
        <ele>1535.2</ele>
        <time>2024-08-10T10:50:19Z</time>
      </trkpt>
      <trkpt lat="45.04532" lon="6.32677">
        <ele>1535.2</ele>
        <time>2024-08-10T10:50:20Z</time>
      </trkpt>
      <trkpt lat="45.04531" lon="6.32679">
        <ele>1535.4</ele>
        <time>2024-08-10T10:50:21Z</time>
      </trkpt>
      <trkpt lat="45.04531" lon="6.32679">
        <ele>1535.6</ele>
        <time>2024-08-10T10:50:22Z</time>
      </trkpt>
      <trkpt lat="45.04531" lon="6.32679">
        <ele>1535.6</ele>
        <time>2024-08-10T10:50:23Z</time>
      </trkpt>
      <trkpt lat="45.04529" lon="6.32683">
        <ele>1535.6</ele>
        <time>2024-08-10T10:50:24Z</time>
      </trkpt>
      <trkpt lat="45.04529" lon="6.32683">
        <ele>1535.6</ele>
        <time>2024-08-10T10:50:25Z</time>
      </trkpt>
      <trkpt lat="45.04528" lon="6.32684">
        <ele>1535.6</ele>
        <time>2024-08-10T10:50:26Z</time>
      </trkpt>
      <trkpt lat="45.04528" lon="6.32684">
        <ele>1535.8</ele>
        <time>2024-08-10T10:50:27Z</time>
      </trkpt>
      <trkpt lat="45.04527" lon="6.32687">
        <ele>1535.8</ele>
        <time>2024-08-10T10:50:28Z</time>
      </trkpt>
      <trkpt lat="45.04527" lon="6.32687">
        <ele>1536</ele>
        <time>2024-08-10T10:50:29Z</time>
      </trkpt>
      <trkpt lat="45.04527" lon="6.32687">
        <ele>1536.4</ele>
        <time>2024-08-10T10:50:30Z</time>
      </trkpt>
      <trkpt lat="45.04527" lon="6.32687">
        <ele>1536.6</ele>
        <time>2024-08-10T10:50:31Z</time>
      </trkpt>
      <trkpt lat="45.04526" lon="6.3269">
        <ele>1536.6</ele>
        <time>2024-08-10T10:50:32Z</time>
      </trkpt>
      <trkpt lat="45.04526" lon="6.3269">
        <ele>1536.8</ele>
        <time>2024-08-10T10:50:33Z</time>
      </trkpt>
      <trkpt lat="45.04526" lon="6.3269">
        <ele>1537.2</ele>
        <time>2024-08-10T10:50:34Z</time>
      </trkpt>
      <trkpt lat="45.04526" lon="6.3269">
        <ele>1537.2</ele>
        <time>2024-08-10T10:50:35Z</time>
      </trkpt>
      <trkpt lat="45.04526" lon="6.32694">
        <ele>1537.4</ele>
        <time>2024-08-10T10:50:36Z</time>
      </trkpt>
      <trkpt lat="45.04526" lon="6.32694">
        <ele>1537.8</ele>
        <time>2024-08-10T10:50:37Z</time>
      </trkpt>
      <trkpt lat="45.04526" lon="6.32694">
        <ele>1537.8</ele>
        <time>2024-08-10T10:50:38Z</time>
      </trkpt>
      <trkpt lat="45.04525" lon="6.32696">
        <ele>1538.2</ele>
        <time>2024-08-10T10:50:39Z</time>
      </trkpt>
      <trkpt lat="45.04525" lon="6.32696">
        <ele>1538.4</ele>
        <time>2024-08-10T10:50:40Z</time>
      </trkpt>
      <trkpt lat="45.04525" lon="6.32696">
        <ele>1538.8</ele>
        <time>2024-08-10T10:50:41Z</time>
      </trkpt>
      <trkpt lat="45.04523" lon="6.32699">
        <ele>1539</ele>
        <time>2024-08-10T10:50:42Z</time>
      </trkpt>
      <trkpt lat="45.04523" lon="6.32699">
        <ele>1539.2</ele>
        <time>2024-08-10T10:50:43Z</time>
      </trkpt>
      <trkpt lat="45.04523" lon="6.32699">
        <ele>1539.4</ele>
        <time>2024-08-10T10:50:44Z</time>
      </trkpt>
      <trkpt lat="45.04521" lon="6.32701">
        <ele>1539.4</ele>
        <time>2024-08-10T10:50:45Z</time>
      </trkpt>
      <trkpt lat="45.04521" lon="6.32701">
        <ele>1539.6</ele>
        <time>2024-08-10T10:50:46Z</time>
      </trkpt>
      <trkpt lat="45.0452" lon="6.32704">
        <ele>1539.6</ele>
        <time>2024-08-10T10:50:47Z</time>
      </trkpt>
      <trkpt lat="45.0452" lon="6.32704">
        <ele>1539.8</ele>
        <time>2024-08-10T10:50:48Z</time>
      </trkpt>
      <trkpt lat="45.0452" lon="6.32704">
        <ele>1540</ele>
        <time>2024-08-10T10:50:49Z</time>
      </trkpt>
      <trkpt lat="45.04518" lon="6.32707">
        <ele>1540</ele>
        <time>2024-08-10T10:50:50Z</time>
      </trkpt>
      <trkpt lat="45.04518" lon="6.32707">
        <ele>1540.4</ele>
        <time>2024-08-10T10:50:51Z</time>
      </trkpt>
      <trkpt lat="45.04518" lon="6.32707">
        <ele>1540.4</ele>
        <time>2024-08-10T10:50:52Z</time>
      </trkpt>
      <trkpt lat="45.04517" lon="6.32709">
        <ele>1540.4</ele>
        <time>2024-08-10T10:50:53Z</time>
      </trkpt>
      <trkpt lat="45.04517" lon="6.32709">
        <ele>1540.8</ele>
        <time>2024-08-10T10:50:54Z</time>
      </trkpt>
      <trkpt lat="45.04517" lon="6.32709">
        <ele>1540.8</ele>
        <time>2024-08-10T10:50:55Z</time>
      </trkpt>
      <trkpt lat="45.04517" lon="6.32709">
        <ele>1541</ele>
        <time>2024-08-10T10:50:56Z</time>
      </trkpt>
      <trkpt lat="45.04517" lon="6.32709">
        <ele>1541</ele>
        <time>2024-08-10T10:50:57Z</time>
      </trkpt>
      <trkpt lat="45.04517" lon="6.32709">
        <ele>1541</ele>
        <time>2024-08-10T10:50:58Z</time>
      </trkpt>
      <trkpt lat="45.04517" lon="6.32709">
        <ele>1541.2</ele>
        <time>2024-08-10T10:50:59Z</time>
      </trkpt>
      <trkpt lat="45.04517" lon="6.32709">
        <ele>1541.4</ele>
        <time>2024-08-10T10:51:00Z</time>
      </trkpt>
      <trkpt lat="45.04517" lon="6.32709">
        <ele>1541.4</ele>
        <time>2024-08-10T10:51:01Z</time>
      </trkpt>
      <trkpt lat="45.04517" lon="6.32709">
        <ele>1541.4</ele>
        <time>2024-08-10T10:51:02Z</time>
      </trkpt>
      <trkpt lat="45.04517" lon="6.32709">
        <ele>1541.2</ele>
        <time>2024-08-10T10:51:03Z</time>
      </trkpt>
      <trkpt lat="45.04517" lon="6.32709">
        <ele>1541.2</ele>
        <time>2024-08-10T10:51:04Z</time>
      </trkpt>
      <trkpt lat="45.04517" lon="6.32709">
        <ele>1541.4</ele>
        <time>2024-08-10T10:51:05Z</time>
      </trkpt>
      <trkpt lat="45.04517" lon="6.32709">
        <ele>1541.8</ele>
        <time>2024-08-10T10:51:06Z</time>
      </trkpt>
      <trkpt lat="45.04517" lon="6.32709">
        <ele>1541.8</ele>
        <time>2024-08-10T10:51:07Z</time>
      </trkpt>
      <trkpt lat="45.04517" lon="6.32709">
        <ele>1541.6</ele>
        <time>2024-08-10T10:51:08Z</time>
      </trkpt>
      <trkpt lat="45.04517" lon="6.32709">
        <ele>1541.4</ele>
        <time>2024-08-10T10:51:09Z</time>
      </trkpt>
      <trkpt lat="45.04517" lon="6.32709">
        <ele>1541.2</ele>
        <time>2024-08-10T10:51:10Z</time>
      </trkpt>
      <trkpt lat="45.04517" lon="6.32709">
        <ele>1541.2</ele>
        <time>2024-08-10T10:51:11Z</time>
      </trkpt>
      <trkpt lat="45.04517" lon="6.32709">
        <ele>1541.2</ele>
        <time>2024-08-10T10:51:12Z</time>
      </trkpt>
      <trkpt lat="45.04517" lon="6.32709">
        <ele>1541.2</ele>
        <time>2024-08-10T10:51:13Z</time>
      </trkpt>
      <trkpt lat="45.04517" lon="6.32709">
        <ele>1541.2</ele>
        <time>2024-08-10T10:51:14Z</time>
      </trkpt>
      <trkpt lat="45.04517" lon="6.32709">
        <ele>1541.6</ele>
        <time>2024-08-10T10:51:15Z</time>
      </trkpt>
      <trkpt lat="45.04517" lon="6.32709">
        <ele>1541.6</ele>
        <time>2024-08-10T10:51:16Z</time>
      </trkpt>
      <trkpt lat="45.04517" lon="6.32709">
        <ele>1541.4</ele>
        <time>2024-08-10T10:51:17Z</time>
      </trkpt>
      <trkpt lat="45.04517" lon="6.32709">
        <ele>1541.4</ele>
        <time>2024-08-10T10:51:18Z</time>
      </trkpt>
      <trkpt lat="45.04517" lon="6.32709">
        <ele>1541.6</ele>
        <time>2024-08-10T10:51:19Z</time>
      </trkpt>
      <trkpt lat="45.04517" lon="6.32709">
        <ele>1541.8</ele>
        <time>2024-08-10T10:51:20Z</time>
      </trkpt>
      <trkpt lat="45.04517" lon="6.32709">
        <ele>1541.8</ele>
        <time>2024-08-10T10:51:21Z</time>
      </trkpt>
      <trkpt lat="45.04517" lon="6.32709">
        <ele>1541.8</ele>
        <time>2024-08-10T10:51:22Z</time>
      </trkpt>
      <trkpt lat="45.04517" lon="6.32709">
        <ele>1541.6</ele>
        <time>2024-08-10T10:51:23Z</time>
      </trkpt>
      <trkpt lat="45.04517" lon="6.32709">
        <ele>1541.6</ele>
        <time>2024-08-10T10:51:24Z</time>
      </trkpt>
      <trkpt lat="45.04517" lon="6.32709">
        <ele>1541.4</ele>
        <time>2024-08-10T10:51:25Z</time>
      </trkpt>
      <trkpt lat="45.04517" lon="6.32709">
        <ele>1541.4</ele>
        <time>2024-08-10T10:51:26Z</time>
      </trkpt>
      <trkpt lat="45.04517" lon="6.32709">
        <ele>1541.4</ele>
        <time>2024-08-10T10:51:27Z</time>
      </trkpt>
      <trkpt lat="45.04517" lon="6.32709">
        <ele>1541.4</ele>
        <time>2024-08-10T10:51:28Z</time>
      </trkpt>
      <trkpt lat="45.04517" lon="6.32709">
        <ele>1541.4</ele>
        <time>2024-08-10T10:51:29Z</time>
      </trkpt>
      <trkpt lat="45.04517" lon="6.32709">
        <ele>1541.4</ele>
        <time>2024-08-10T10:51:30Z</time>
      </trkpt>
      <trkpt lat="45.04517" lon="6.32709">
        <ele>1541.4</ele>
        <time>2024-08-10T10:51:31Z</time>
      </trkpt>
      <trkpt lat="45.04517" lon="6.32709">
        <ele>1541.4</ele>
        <time>2024-08-10T10:51:32Z</time>
      </trkpt>
      <trkpt lat="45.04517" lon="6.32709">
        <ele>1541.4</ele>
        <time>2024-08-10T10:51:33Z</time>
      </trkpt>
      <trkpt lat="45.04517" lon="6.32709">
        <ele>1541.4</ele>
        <time>2024-08-10T10:51:34Z</time>
      </trkpt>
      <trkpt lat="45.04517" lon="6.32709">
        <ele>1541.4</ele>
        <time>2024-08-10T10:51:35Z</time>
      </trkpt>
      <trkpt lat="45.04517" lon="6.32709">
        <ele>1541.6</ele>
        <time>2024-08-10T10:51:36Z</time>
      </trkpt>
      <trkpt lat="45.04517" lon="6.32709">
        <ele>1541.6</ele>
        <time>2024-08-10T10:51:37Z</time>
      </trkpt>
      <trkpt lat="45.04517" lon="6.32709">
        <ele>1541.6</ele>
        <time>2024-08-10T10:51:38Z</time>
      </trkpt>
      <trkpt lat="45.04517" lon="6.32709">
        <ele>1541.8</ele>
        <time>2024-08-10T10:51:39Z</time>
      </trkpt>
      <trkpt lat="45.04517" lon="6.32709">
        <ele>1542</ele>
        <time>2024-08-10T10:51:40Z</time>
      </trkpt>
      <trkpt lat="45.04517" lon="6.32709">
        <ele>1542.2</ele>
        <time>2024-08-10T10:51:41Z</time>
      </trkpt>
      <trkpt lat="45.04517" lon="6.32709">
        <ele>1542.2</ele>
        <time>2024-08-10T10:51:42Z</time>
      </trkpt>
      <trkpt lat="45.04517" lon="6.32709">
        <ele>1542.2</ele>
        <time>2024-08-10T10:51:43Z</time>
      </trkpt>
      <trkpt lat="45.04517" lon="6.32709">
        <ele>1542.4</ele>
        <time>2024-08-10T10:51:44Z</time>
      </trkpt>
      <trkpt lat="45.04517" lon="6.32709">
        <ele>1542.4</ele>
        <time>2024-08-10T10:51:45Z</time>
      </trkpt>
      <trkpt lat="45.04517" lon="6.32709">
        <ele>1542.4</ele>
        <time>2024-08-10T10:51:46Z</time>
      </trkpt>
      <trkpt lat="45.04517" lon="6.32709">
        <ele>1542.4</ele>
        <time>2024-08-10T10:51:47Z</time>
      </trkpt>
      <trkpt lat="45.04517" lon="6.32709">
        <ele>1542.4</ele>
        <time>2024-08-10T10:51:48Z</time>
      </trkpt>
      <trkpt lat="45.04517" lon="6.32709">
        <ele>1542.2</ele>
        <time>2024-08-10T10:51:49Z</time>
      </trkpt>
      <trkpt lat="45.04517" lon="6.32709">
        <ele>1542.2</ele>
        <time>2024-08-10T10:51:50Z</time>
      </trkpt>
      <trkpt lat="45.04517" lon="6.32709">
        <ele>1542.2</ele>
        <time>2024-08-10T10:51:51Z</time>
      </trkpt>
      <trkpt lat="45.04517" lon="6.32709">
        <ele>1542.4</ele>
        <time>2024-08-10T10:51:52Z</time>
      </trkpt>
      <trkpt lat="45.04517" lon="6.32709">
        <ele>1542.4</ele>
        <time>2024-08-10T10:51:53Z</time>
      </trkpt>
      <trkpt lat="45.04517" lon="6.32709">
        <ele>1543</ele>
        <time>2024-08-10T10:51:54Z</time>
      </trkpt>
      <trkpt lat="45.04517" lon="6.32709">
        <ele>1543.4</ele>
        <time>2024-08-10T10:51:55Z</time>
      </trkpt>
      <trkpt lat="45.04517" lon="6.32709">
        <ele>1543.4</ele>
        <time>2024-08-10T10:51:56Z</time>
      </trkpt>
      <trkpt lat="45.04515" lon="6.3271">
        <ele>1543.2</ele>
        <time>2024-08-10T10:51:57Z</time>
      </trkpt>
      <trkpt lat="45.04515" lon="6.3271">
        <ele>1543.2</ele>
        <time>2024-08-10T10:51:58Z</time>
      </trkpt>
      <trkpt lat="45.04512" lon="6.32711">
        <ele>1543.6</ele>
        <time>2024-08-10T10:51:59Z</time>
      </trkpt>
      <trkpt lat="45.04512" lon="6.32711">
        <ele>1543.6</ele>
        <time>2024-08-10T10:52:00Z</time>
      </trkpt>
      <trkpt lat="45.0451" lon="6.32711">
        <ele>1544.2</ele>
        <time>2024-08-10T10:52:01Z</time>
      </trkpt>
      <trkpt lat="45.0451" lon="6.32711">
        <ele>1544.2</ele>
        <time>2024-08-10T10:52:02Z</time>
      </trkpt>
      <trkpt lat="45.04508" lon="6.32712">
        <ele>1544.6</ele>
        <time>2024-08-10T10:52:03Z</time>
      </trkpt>
      <trkpt lat="45.04508" lon="6.32712">
        <ele>1544.6</ele>
        <time>2024-08-10T10:52:04Z</time>
      </trkpt>
      <trkpt lat="45.04506" lon="6.32713">
        <ele>1544.6</ele>
        <time>2024-08-10T10:52:05Z</time>
      </trkpt>
      <trkpt lat="45.04506" lon="6.32713">
        <ele>1544.8</ele>
        <time>2024-08-10T10:52:06Z</time>
      </trkpt>
      <trkpt lat="45.04506" lon="6.32713">
        <ele>1544.8</ele>
        <time>2024-08-10T10:52:07Z</time>
      </trkpt>
      <trkpt lat="45.04506" lon="6.32713">
        <ele>1545.2</ele>
        <time>2024-08-10T10:52:08Z</time>
      </trkpt>
      <trkpt lat="45.04504" lon="6.32714">
        <ele>1545.4</ele>
        <time>2024-08-10T10:52:09Z</time>
      </trkpt>
      <trkpt lat="45.04504" lon="6.32714">
        <ele>1545.6</ele>
        <time>2024-08-10T10:52:10Z</time>
      </trkpt>
      <trkpt lat="45.04502" lon="6.32715">
        <ele>1545.6</ele>
        <time>2024-08-10T10:52:11Z</time>
      </trkpt>
      <trkpt lat="45.04502" lon="6.32715">
        <ele>1545.8</ele>
        <time>2024-08-10T10:52:12Z</time>
      </trkpt>
      <trkpt lat="45.04502" lon="6.32715">
        <ele>1546.2</ele>
        <time>2024-08-10T10:52:13Z</time>
      </trkpt>
      <trkpt lat="45.04501" lon="6.32717">
        <ele>1546.2</ele>
        <time>2024-08-10T10:52:14Z</time>
      </trkpt>
      <trkpt lat="45.04501" lon="6.32717">
        <ele>1546.8</ele>
        <time>2024-08-10T10:52:15Z</time>
      </trkpt>
      <trkpt lat="45.04501" lon="6.32717">
        <ele>1547</ele>
        <time>2024-08-10T10:52:16Z</time>
      </trkpt>
      <trkpt lat="45.04501" lon="6.32717">
        <ele>1547</ele>
        <time>2024-08-10T10:52:17Z</time>
      </trkpt>
      <trkpt lat="45.045" lon="6.3272">
        <ele>1547.4</ele>
        <time>2024-08-10T10:52:18Z</time>
      </trkpt>
      <trkpt lat="45.045" lon="6.3272">
        <ele>1547.6</ele>
        <time>2024-08-10T10:52:19Z</time>
      </trkpt>
      <trkpt lat="45.045" lon="6.3272">
        <ele>1547.6</ele>
        <time>2024-08-10T10:52:20Z</time>
      </trkpt>
      <trkpt lat="45.045" lon="6.3272">
        <ele>1547.6</ele>
        <time>2024-08-10T10:52:21Z</time>
      </trkpt>
      <trkpt lat="45.04498" lon="6.32722">
        <ele>1547.6</ele>
        <time>2024-08-10T10:52:22Z</time>
      </trkpt>
      <trkpt lat="45.04498" lon="6.32722">
        <ele>1547.6</ele>
        <time>2024-08-10T10:52:23Z</time>
      </trkpt>
      <trkpt lat="45.04498" lon="6.32722">
        <ele>1547.8</ele>
        <time>2024-08-10T10:52:24Z</time>
      </trkpt>
      <trkpt lat="45.04496" lon="6.32723">
        <ele>1548.2</ele>
        <time>2024-08-10T10:52:25Z</time>
      </trkpt>
      <trkpt lat="45.04496" lon="6.32723">
        <ele>1548.2</ele>
        <time>2024-08-10T10:52:26Z</time>
      </trkpt>
      <trkpt lat="45.04496" lon="6.32723">
        <ele>1548.6</ele>
        <time>2024-08-10T10:52:27Z</time>
      </trkpt>
      <trkpt lat="45.04494" lon="6.32725">
        <ele>1548.8</ele>
        <time>2024-08-10T10:52:28Z</time>
      </trkpt>
      <trkpt lat="45.04494" lon="6.32725">
        <ele>1548.8</ele>
        <time>2024-08-10T10:52:29Z</time>
      </trkpt>
      <trkpt lat="45.04494" lon="6.32725">
        <ele>1548.8</ele>
        <time>2024-08-10T10:52:30Z</time>
      </trkpt>
      <trkpt lat="45.04494" lon="6.32725">
        <ele>1549.2</ele>
        <time>2024-08-10T10:52:31Z</time>
      </trkpt>
      <trkpt lat="45.04493" lon="6.32727">
        <ele>1549.4</ele>
        <time>2024-08-10T10:52:32Z</time>
      </trkpt>
      <trkpt lat="45.04493" lon="6.32727">
        <ele>1549.6</ele>
        <time>2024-08-10T10:52:33Z</time>
      </trkpt>
      <trkpt lat="45.04493" lon="6.32727">
        <ele>1549.6</ele>
        <time>2024-08-10T10:52:34Z</time>
      </trkpt>
      <trkpt lat="45.04491" lon="6.32728">
        <ele>1549.8</ele>
        <time>2024-08-10T10:52:35Z</time>
      </trkpt>
      <trkpt lat="45.04491" lon="6.32728">
        <ele>1550</ele>
        <time>2024-08-10T10:52:36Z</time>
      </trkpt>
      <trkpt lat="45.04491" lon="6.32728">
        <ele>1550.4</ele>
        <time>2024-08-10T10:52:37Z</time>
      </trkpt>
      <trkpt lat="45.0449" lon="6.32731">
        <ele>1550.6</ele>
        <time>2024-08-10T10:52:38Z</time>
      </trkpt>
      <trkpt lat="45.0449" lon="6.32731">
        <ele>1550.8</ele>
        <time>2024-08-10T10:52:39Z</time>
      </trkpt>
      <trkpt lat="45.0449" lon="6.32731">
        <ele>1551</ele>
        <time>2024-08-10T10:52:40Z</time>
      </trkpt>
      <trkpt lat="45.04489" lon="6.32733">
        <ele>1551.4</ele>
        <time>2024-08-10T10:52:41Z</time>
      </trkpt>
      <trkpt lat="45.04489" lon="6.32733">
        <ele>1551.6</ele>
        <time>2024-08-10T10:52:42Z</time>
      </trkpt>
      <trkpt lat="45.04489" lon="6.32733">
        <ele>1551.8</ele>
        <time>2024-08-10T10:52:43Z</time>
      </trkpt>
      <trkpt lat="45.04487" lon="6.32736">
        <ele>1552</ele>
        <time>2024-08-10T10:52:44Z</time>
      </trkpt>
      <trkpt lat="45.04487" lon="6.32736">
        <ele>1552</ele>
        <time>2024-08-10T10:52:45Z</time>
      </trkpt>
      <trkpt lat="45.04486" lon="6.32738">
        <ele>1552.2</ele>
        <time>2024-08-10T10:52:46Z</time>
      </trkpt>
      <trkpt lat="45.04486" lon="6.32738">
        <ele>1552.4</ele>
        <time>2024-08-10T10:52:47Z</time>
      </trkpt>
      <trkpt lat="45.04486" lon="6.32738">
        <ele>1552.8</ele>
        <time>2024-08-10T10:52:48Z</time>
      </trkpt>
      <trkpt lat="45.04485" lon="6.32741">
        <ele>1552.8</ele>
        <time>2024-08-10T10:52:49Z</time>
      </trkpt>
      <trkpt lat="45.04485" lon="6.32741">
        <ele>1553</ele>
        <time>2024-08-10T10:52:50Z</time>
      </trkpt>
      <trkpt lat="45.04485" lon="6.32741">
        <ele>1553.2</ele>
        <time>2024-08-10T10:52:51Z</time>
      </trkpt>
      <trkpt lat="45.04485" lon="6.32745">
        <ele>1553.6</ele>
        <time>2024-08-10T10:52:52Z</time>
      </trkpt>
      <trkpt lat="45.04485" lon="6.32745">
        <ele>1553.6</ele>
        <time>2024-08-10T10:52:53Z</time>
      </trkpt>
      <trkpt lat="45.04484" lon="6.32747">
        <ele>1553.8</ele>
        <time>2024-08-10T10:52:54Z</time>
      </trkpt>
      <trkpt lat="45.04484" lon="6.32747">
        <ele>1554.2</ele>
        <time>2024-08-10T10:52:55Z</time>
      </trkpt>
      <trkpt lat="45.04485" lon="6.3275">
        <ele>1554.6</ele>
        <time>2024-08-10T10:52:56Z</time>
      </trkpt>
      <trkpt lat="45.04485" lon="6.3275">
        <ele>1554.6</ele>
        <time>2024-08-10T10:52:57Z</time>
      </trkpt>
      <trkpt lat="45.04485" lon="6.3275">
        <ele>1554.6</ele>
        <time>2024-08-10T10:52:58Z</time>
      </trkpt>
      <trkpt lat="45.04485" lon="6.32754">
        <ele>1554.6</ele>
        <time>2024-08-10T10:52:59Z</time>
      </trkpt>
      <trkpt lat="45.04485" lon="6.32754">
        <ele>1554.8</ele>
        <time>2024-08-10T10:53:00Z</time>
      </trkpt>
      <trkpt lat="45.04485" lon="6.32754">
        <ele>1555.2</ele>
        <time>2024-08-10T10:53:01Z</time>
      </trkpt>
      <trkpt lat="45.04485" lon="6.32757">
        <ele>1555.4</ele>
        <time>2024-08-10T10:53:02Z</time>
      </trkpt>
      <trkpt lat="45.04485" lon="6.32757">
        <ele>1555.6</ele>
        <time>2024-08-10T10:53:03Z</time>
      </trkpt>
      <trkpt lat="45.04484" lon="6.3276">
        <ele>1555.8</ele>
        <time>2024-08-10T10:53:04Z</time>
      </trkpt>
      <trkpt lat="45.04484" lon="6.3276">
        <ele>1555.8</ele>
        <time>2024-08-10T10:53:05Z</time>
      </trkpt>
      <trkpt lat="45.04484" lon="6.32763">
        <ele>1555.8</ele>
        <time>2024-08-10T10:53:06Z</time>
      </trkpt>
      <trkpt lat="45.04484" lon="6.32763">
        <ele>1556</ele>
        <time>2024-08-10T10:53:07Z</time>
      </trkpt>
      <trkpt lat="45.04484" lon="6.32763">
        <ele>1556</ele>
        <time>2024-08-10T10:53:08Z</time>
      </trkpt>
      <trkpt lat="45.04484" lon="6.32766">
        <ele>1556.2</ele>
        <time>2024-08-10T10:53:09Z</time>
      </trkpt>
      <trkpt lat="45.04484" lon="6.32766">
        <ele>1556.6</ele>
        <time>2024-08-10T10:53:10Z</time>
      </trkpt>
      <trkpt lat="45.04484" lon="6.32766">
        <ele>1556.8</ele>
        <time>2024-08-10T10:53:11Z</time>
      </trkpt>
      <trkpt lat="45.04484" lon="6.32766">
        <ele>1556.8</ele>
        <time>2024-08-10T10:53:12Z</time>
      </trkpt>
      <trkpt lat="45.04484" lon="6.32766">
        <ele>1557</ele>
        <time>2024-08-10T10:53:13Z</time>
      </trkpt>
      <trkpt lat="45.04484" lon="6.32766">
        <ele>1557.4</ele>
        <time>2024-08-10T10:53:14Z</time>
      </trkpt>
      <trkpt lat="45.04484" lon="6.32766">
        <ele>1557.6</ele>
        <time>2024-08-10T10:53:15Z</time>
      </trkpt>
      <trkpt lat="45.04484" lon="6.32766">
        <ele>1557.8</ele>
        <time>2024-08-10T10:53:16Z</time>
      </trkpt>
      <trkpt lat="45.04484" lon="6.32766">
        <ele>1557.8</ele>
        <time>2024-08-10T10:53:17Z</time>
      </trkpt>
      <trkpt lat="45.04485" lon="6.32768">
        <ele>1557.8</ele>
        <time>2024-08-10T10:53:18Z</time>
      </trkpt>
      <trkpt lat="45.04485" lon="6.32768">
        <ele>1557.8</ele>
        <time>2024-08-10T10:53:19Z</time>
      </trkpt>
      <trkpt lat="45.04488" lon="6.32771">
        <ele>1558.2</ele>
        <time>2024-08-10T10:53:20Z</time>
      </trkpt>
      <trkpt lat="45.04488" lon="6.32771">
        <ele>1558.4</ele>
        <time>2024-08-10T10:53:21Z</time>
      </trkpt>
      <trkpt lat="45.0449" lon="6.32772">
        <ele>1558.6</ele>
        <time>2024-08-10T10:53:22Z</time>
      </trkpt>
      <trkpt lat="45.0449" lon="6.32772">
        <ele>1559</ele>
        <time>2024-08-10T10:53:23Z</time>
      </trkpt>
      <trkpt lat="45.04493" lon="6.32773">
        <ele>1559.6</ele>
        <time>2024-08-10T10:53:24Z</time>
      </trkpt>
      <trkpt lat="45.04493" lon="6.32773">
        <ele>1559.8</ele>
        <time>2024-08-10T10:53:25Z</time>
      </trkpt>
      <trkpt lat="45.04496" lon="6.32774">
        <ele>1560.4</ele>
        <time>2024-08-10T10:53:26Z</time>
      </trkpt>
      <trkpt lat="45.04496" lon="6.32774">
        <ele>1560.8</ele>
        <time>2024-08-10T10:53:27Z</time>
      </trkpt>
      <trkpt lat="45.04498" lon="6.32776">
        <ele>1561.2</ele>
        <time>2024-08-10T10:53:28Z</time>
      </trkpt>
      <trkpt lat="45.04498" lon="6.32776">
        <ele>1561.2</ele>
        <time>2024-08-10T10:53:29Z</time>
      </trkpt>
      <trkpt lat="45.04498" lon="6.32776">
        <ele>1561</ele>
        <time>2024-08-10T10:53:30Z</time>
      </trkpt>
      <trkpt lat="45.045" lon="6.32778">
        <ele>1561</ele>
        <time>2024-08-10T10:53:31Z</time>
      </trkpt>
      <trkpt lat="45.045" lon="6.32778">
        <ele>1561</ele>
        <time>2024-08-10T10:53:32Z</time>
      </trkpt>
      <trkpt lat="45.045" lon="6.32778">
        <ele>1561.2</ele>
        <time>2024-08-10T10:53:33Z</time>
      </trkpt>
      <trkpt lat="45.04502" lon="6.3278">
        <ele>1561.2</ele>
        <time>2024-08-10T10:53:34Z</time>
      </trkpt>
      <trkpt lat="45.04502" lon="6.3278">
        <ele>1561.6</ele>
        <time>2024-08-10T10:53:35Z</time>
      </trkpt>
      <trkpt lat="45.04504" lon="6.32782">
        <ele>1562</ele>
        <time>2024-08-10T10:53:36Z</time>
      </trkpt>
      <trkpt lat="45.04504" lon="6.32782">
        <ele>1562</ele>
        <time>2024-08-10T10:53:37Z</time>
      </trkpt>
      <trkpt lat="45.04506" lon="6.32784">
        <ele>1562.2</ele>
        <time>2024-08-10T10:53:38Z</time>
      </trkpt>
      <trkpt lat="45.04506" lon="6.32784">
        <ele>1562.2</ele>
        <time>2024-08-10T10:53:39Z</time>
      </trkpt>
      <trkpt lat="45.04508" lon="6.32787">
        <ele>1562.4</ele>
        <time>2024-08-10T10:53:40Z</time>
      </trkpt>
      <trkpt lat="45.04508" lon="6.32787">
        <ele>1562.2</ele>
        <time>2024-08-10T10:53:41Z</time>
      </trkpt>
      <trkpt lat="45.04509" lon="6.3279">
        <ele>1562.2</ele>
        <time>2024-08-10T10:53:42Z</time>
      </trkpt>
      <trkpt lat="45.04509" lon="6.3279">
        <ele>1562.2</ele>
        <time>2024-08-10T10:53:43Z</time>
      </trkpt>
      <trkpt lat="45.04511" lon="6.32792">
        <ele>1562.2</ele>
        <time>2024-08-10T10:53:44Z</time>
      </trkpt>
      <trkpt lat="45.04511" lon="6.32792">
        <ele>1562.2</ele>
        <time>2024-08-10T10:53:45Z</time>
      </trkpt>
      <trkpt lat="45.04512" lon="6.32795">
        <ele>1562</ele>
        <time>2024-08-10T10:53:46Z</time>
      </trkpt>
      <trkpt lat="45.04512" lon="6.32795">
        <ele>1562</ele>
        <time>2024-08-10T10:53:47Z</time>
      </trkpt>
      <trkpt lat="45.04513" lon="6.32798">
        <ele>1562.2</ele>
        <time>2024-08-10T10:53:48Z</time>
      </trkpt>
      <trkpt lat="45.04513" lon="6.32798">
        <ele>1562.4</ele>
        <time>2024-08-10T10:53:49Z</time>
      </trkpt>
      <trkpt lat="45.04514" lon="6.32801">
        <ele>1562.6</ele>
        <time>2024-08-10T10:53:50Z</time>
      </trkpt>
      <trkpt lat="45.04514" lon="6.32801">
        <ele>1562.6</ele>
        <time>2024-08-10T10:53:51Z</time>
      </trkpt>
      <trkpt lat="45.04516" lon="6.32804">
        <ele>1562.6</ele>
        <time>2024-08-10T10:53:52Z</time>
      </trkpt>
      <trkpt lat="45.04516" lon="6.32804">
        <ele>1562.6</ele>
        <time>2024-08-10T10:53:53Z</time>
      </trkpt>
      <trkpt lat="45.04517" lon="6.32806">
        <ele>1562.6</ele>
        <time>2024-08-10T10:53:54Z</time>
      </trkpt>
      <trkpt lat="45.04517" lon="6.32806">
        <ele>1562.8</ele>
        <time>2024-08-10T10:53:55Z</time>
      </trkpt>
      <trkpt lat="45.04517" lon="6.32808">
        <ele>1563.2</ele>
        <time>2024-08-10T10:53:56Z</time>
      </trkpt>
      <trkpt lat="45.04517" lon="6.32808">
        <ele>1563.2</ele>
        <time>2024-08-10T10:53:57Z</time>
      </trkpt>
      <trkpt lat="45.04517" lon="6.32808">
        <ele>1563.2</ele>
        <time>2024-08-10T10:53:58Z</time>
      </trkpt>
      <trkpt lat="45.04519" lon="6.3281">
        <ele>1563.4</ele>
        <time>2024-08-10T10:53:59Z</time>
      </trkpt>
      <trkpt lat="45.04519" lon="6.3281">
        <ele>1563.8</ele>
        <time>2024-08-10T10:54:00Z</time>
      </trkpt>
      <trkpt lat="45.04519" lon="6.3281">
        <ele>1564</ele>
        <time>2024-08-10T10:54:01Z</time>
      </trkpt>
      <trkpt lat="45.04521" lon="6.32811">
        <ele>1564.2</ele>
        <time>2024-08-10T10:54:02Z</time>
      </trkpt>
      <trkpt lat="45.04521" lon="6.32811">
        <ele>1564.8</ele>
        <time>2024-08-10T10:54:03Z</time>
      </trkpt>
      <trkpt lat="45.04521" lon="6.32811">
        <ele>1564.8</ele>
        <time>2024-08-10T10:54:04Z</time>
      </trkpt>
      <trkpt lat="45.04521" lon="6.32811">
        <ele>1564.8</ele>
        <time>2024-08-10T10:54:05Z</time>
      </trkpt>
      <trkpt lat="45.04521" lon="6.32811">
        <ele>1565</ele>
        <time>2024-08-10T10:54:06Z</time>
      </trkpt>
      <trkpt lat="45.04521" lon="6.32811">
        <ele>1565.4</ele>
        <time>2024-08-10T10:54:07Z</time>
      </trkpt>
      <trkpt lat="45.04523" lon="6.32812">
        <ele>1565.4</ele>
        <time>2024-08-10T10:54:08Z</time>
      </trkpt>
      <trkpt lat="45.04523" lon="6.32812">
        <ele>1565.6</ele>
        <time>2024-08-10T10:54:09Z</time>
      </trkpt>
      <trkpt lat="45.04523" lon="6.32812">
        <ele>1566</ele>
        <time>2024-08-10T10:54:10Z</time>
      </trkpt>
      <trkpt lat="45.04523" lon="6.32812">
        <ele>1566</ele>
        <time>2024-08-10T10:54:11Z</time>
      </trkpt>
      <trkpt lat="45.04524" lon="6.32815">
        <ele>1566.6</ele>
        <time>2024-08-10T10:54:12Z</time>
      </trkpt>
      <trkpt lat="45.04524" lon="6.32815">
        <ele>1566.8</ele>
        <time>2024-08-10T10:54:13Z</time>
      </trkpt>
      <trkpt lat="45.04524" lon="6.32818">
        <ele>1567.2</ele>
        <time>2024-08-10T10:54:14Z</time>
      </trkpt>
      <trkpt lat="45.04524" lon="6.32818">
        <ele>1567.2</ele>
        <time>2024-08-10T10:54:15Z</time>
      </trkpt>
      <trkpt lat="45.04524" lon="6.32818">
        <ele>1567.4</ele>
        <time>2024-08-10T10:54:16Z</time>
      </trkpt>
      <trkpt lat="45.04525" lon="6.3282">
        <ele>1567.6</ele>
        <time>2024-08-10T10:54:17Z</time>
      </trkpt>
      <trkpt lat="45.04525" lon="6.3282">
        <ele>1567.6</ele>
        <time>2024-08-10T10:54:18Z</time>
      </trkpt>
      <trkpt lat="45.04525" lon="6.3282">
        <ele>1567.8</ele>
        <time>2024-08-10T10:54:19Z</time>
      </trkpt>
      <trkpt lat="45.04527" lon="6.32821">
        <ele>1567.8</ele>
        <time>2024-08-10T10:54:20Z</time>
      </trkpt>
      <trkpt lat="45.04527" lon="6.32821">
        <ele>1568</ele>
        <time>2024-08-10T10:54:21Z</time>
      </trkpt>
      <trkpt lat="45.04529" lon="6.32823">
        <ele>1568</ele>
        <time>2024-08-10T10:54:22Z</time>
      </trkpt>
      <trkpt lat="45.04529" lon="6.32823">
        <ele>1568.2</ele>
        <time>2024-08-10T10:54:23Z</time>
      </trkpt>
      <trkpt lat="45.04529" lon="6.32823">
        <ele>1568.2</ele>
        <time>2024-08-10T10:54:24Z</time>
      </trkpt>
      <trkpt lat="45.04529" lon="6.32823">
        <ele>1568.4</ele>
        <time>2024-08-10T10:54:25Z</time>
      </trkpt>
      <trkpt lat="45.04531" lon="6.32825">
        <ele>1568.8</ele>
        <time>2024-08-10T10:54:26Z</time>
      </trkpt>
      <trkpt lat="45.04531" lon="6.32825">
        <ele>1568.8</ele>
        <time>2024-08-10T10:54:27Z</time>
      </trkpt>
      <trkpt lat="45.04533" lon="6.32825">
        <ele>1569</ele>
        <time>2024-08-10T10:54:28Z</time>
      </trkpt>
      <trkpt lat="45.04533" lon="6.32825">
        <ele>1569.2</ele>
        <time>2024-08-10T10:54:29Z</time>
      </trkpt>
      <trkpt lat="45.04533" lon="6.32825">
        <ele>1569.2</ele>
        <time>2024-08-10T10:54:30Z</time>
      </trkpt>
      <trkpt lat="45.04535" lon="6.32826">
        <ele>1569.2</ele>
        <time>2024-08-10T10:54:31Z</time>
      </trkpt>
      <trkpt lat="45.04535" lon="6.32826">
        <ele>1569.6</ele>
        <time>2024-08-10T10:54:32Z</time>
      </trkpt>
      <trkpt lat="45.04535" lon="6.32826">
        <ele>1570</ele>
        <time>2024-08-10T10:54:33Z</time>
      </trkpt>
      <trkpt lat="45.04537" lon="6.32827">
        <ele>1570</ele>
        <time>2024-08-10T10:54:34Z</time>
      </trkpt>
      <trkpt lat="45.04537" lon="6.32827">
        <ele>1570.2</ele>
        <time>2024-08-10T10:54:35Z</time>
      </trkpt>
      <trkpt lat="45.04537" lon="6.32827">
        <ele>1570.2</ele>
        <time>2024-08-10T10:54:36Z</time>
      </trkpt>
      <trkpt lat="45.04538" lon="6.32829">
        <ele>1570.6</ele>
        <time>2024-08-10T10:54:37Z</time>
      </trkpt>
      <trkpt lat="45.04538" lon="6.32829">
        <ele>1571</ele>
        <time>2024-08-10T10:54:38Z</time>
      </trkpt>
      <trkpt lat="45.04539" lon="6.32831">
        <ele>1571.4</ele>
        <time>2024-08-10T10:54:39Z</time>
      </trkpt>
      <trkpt lat="45.04539" lon="6.32831">
        <ele>1571.6</ele>
        <time>2024-08-10T10:54:40Z</time>
      </trkpt>
      <trkpt lat="45.04539" lon="6.32831">
        <ele>1571.8</ele>
        <time>2024-08-10T10:54:41Z</time>
      </trkpt>
      <trkpt lat="45.04541" lon="6.32833">
        <ele>1571.8</ele>
        <time>2024-08-10T10:54:42Z</time>
      </trkpt>
      <trkpt lat="45.04541" lon="6.32833">
        <ele>1571.8</ele>
        <time>2024-08-10T10:54:43Z</time>
      </trkpt>
      <trkpt lat="45.04544" lon="6.32836">
        <ele>1571.8</ele>
        <time>2024-08-10T10:54:44Z</time>
      </trkpt>
      <trkpt lat="45.04544" lon="6.32836">
        <ele>1571.8</ele>
        <time>2024-08-10T10:54:45Z</time>
      </trkpt>
      <trkpt lat="45.04546" lon="6.32839">
        <ele>1572.2</ele>
        <time>2024-08-10T10:54:46Z</time>
      </trkpt>
      <trkpt lat="45.04546" lon="6.32839">
        <ele>1572.2</ele>
        <time>2024-08-10T10:54:47Z</time>
      </trkpt>
      <trkpt lat="45.04547" lon="6.3284">
        <ele>1572.2</ele>
        <time>2024-08-10T10:54:48Z</time>
      </trkpt>
      <trkpt lat="45.04547" lon="6.3284">
        <ele>1572.2</ele>
        <time>2024-08-10T10:54:49Z</time>
      </trkpt>
      <trkpt lat="45.04548" lon="6.32843">
        <ele>1572.6</ele>
        <time>2024-08-10T10:54:50Z</time>
      </trkpt>
      <trkpt lat="45.04548" lon="6.32843">
        <ele>1572.8</ele>
        <time>2024-08-10T10:54:51Z</time>
      </trkpt>
      <trkpt lat="45.04548" lon="6.32843">
        <ele>1573</ele>
        <time>2024-08-10T10:54:52Z</time>
      </trkpt>
      <trkpt lat="45.04549" lon="6.32845">
        <ele>1573.2</ele>
        <time>2024-08-10T10:54:53Z</time>
      </trkpt>
      <trkpt lat="45.04549" lon="6.32845">
        <ele>1573.4</ele>
        <time>2024-08-10T10:54:54Z</time>
      </trkpt>
      <trkpt lat="45.04549" lon="6.32845">
        <ele>1573.8</ele>
        <time>2024-08-10T10:54:55Z</time>
      </trkpt>
      <trkpt lat="45.0455" lon="6.32848">
        <ele>1574.2</ele>
        <time>2024-08-10T10:54:56Z</time>
      </trkpt>
      <trkpt lat="45.0455" lon="6.32848">
        <ele>1574.4</ele>
        <time>2024-08-10T10:54:57Z</time>
      </trkpt>
      <trkpt lat="45.0455" lon="6.32848">
        <ele>1574.6</ele>
        <time>2024-08-10T10:54:58Z</time>
      </trkpt>
      <trkpt lat="45.04551" lon="6.32851">
        <ele>1574.6</ele>
        <time>2024-08-10T10:54:59Z</time>
      </trkpt>
      <trkpt lat="45.04551" lon="6.32851">
        <ele>1575</ele>
        <time>2024-08-10T10:55:00Z</time>
      </trkpt>
      <trkpt lat="45.04551" lon="6.32851">
        <ele>1575.2</ele>
        <time>2024-08-10T10:55:01Z</time>
      </trkpt>
      <trkpt lat="45.04552" lon="6.32855">
        <ele>1575.6</ele>
        <time>2024-08-10T10:55:02Z</time>
      </trkpt>
      <trkpt lat="45.04552" lon="6.32855">
        <ele>1576.2</ele>
        <time>2024-08-10T10:55:03Z</time>
      </trkpt>
      <trkpt lat="45.04553" lon="6.32858">
        <ele>1576.2</ele>
        <time>2024-08-10T10:55:04Z</time>
      </trkpt>
      <trkpt lat="45.04553" lon="6.32858">
        <ele>1576.2</ele>
        <time>2024-08-10T10:55:05Z</time>
      </trkpt>
      <trkpt lat="45.04552" lon="6.32861">
        <ele>1576.2</ele>
        <time>2024-08-10T10:55:06Z</time>
      </trkpt>
      <trkpt lat="45.04552" lon="6.32861">
        <ele>1576.4</ele>
        <time>2024-08-10T10:55:07Z</time>
      </trkpt>
      <trkpt lat="45.04551" lon="6.32864">
        <ele>1576.4</ele>
        <time>2024-08-10T10:55:08Z</time>
      </trkpt>
      <trkpt lat="45.04551" lon="6.32864">
        <ele>1577</ele>
        <time>2024-08-10T10:55:09Z</time>
      </trkpt>
      <trkpt lat="45.0455" lon="6.32867">
        <ele>1577.2</ele>
        <time>2024-08-10T10:55:10Z</time>
      </trkpt>
      <trkpt lat="45.0455" lon="6.32867">
        <ele>1577.2</ele>
        <time>2024-08-10T10:55:11Z</time>
      </trkpt>
      <trkpt lat="45.04548" lon="6.32868">
        <ele>1577</ele>
        <time>2024-08-10T10:55:12Z</time>
      </trkpt>
      <trkpt lat="45.04548" lon="6.32868">
        <ele>1577</ele>
        <time>2024-08-10T10:55:13Z</time>
      </trkpt>
      <trkpt lat="45.04548" lon="6.32868">
        <ele>1577</ele>
        <time>2024-08-10T10:55:14Z</time>
      </trkpt>
      <trkpt lat="45.04548" lon="6.3287">
        <ele>1577</ele>
        <time>2024-08-10T10:55:15Z</time>
      </trkpt>
      <trkpt lat="45.04548" lon="6.3287">
        <ele>1577.6</ele>
        <time>2024-08-10T10:55:16Z</time>
      </trkpt>
      <trkpt lat="45.04549" lon="6.32873">
        <ele>1577.8</ele>
        <time>2024-08-10T10:55:17Z</time>
      </trkpt>
      <trkpt lat="45.04549" lon="6.32873">
        <ele>1577.8</ele>
        <time>2024-08-10T10:55:18Z</time>
      </trkpt>
      <trkpt lat="45.04549" lon="6.32876">
        <ele>1578.4</ele>
        <time>2024-08-10T10:55:19Z</time>
      </trkpt>
      <trkpt lat="45.04549" lon="6.32876">
        <ele>1578.6</ele>
        <time>2024-08-10T10:55:20Z</time>
      </trkpt>
      <trkpt lat="45.04549" lon="6.32879">
        <ele>1579</ele>
        <time>2024-08-10T10:55:21Z</time>
      </trkpt>
      <trkpt lat="45.04549" lon="6.32879">
        <ele>1579</ele>
        <time>2024-08-10T10:55:22Z</time>
      </trkpt>
      <trkpt lat="45.04549" lon="6.32881">
        <ele>1579.4</ele>
        <time>2024-08-10T10:55:23Z</time>
      </trkpt>
      <trkpt lat="45.04549" lon="6.32881">
        <ele>1579.4</ele>
        <time>2024-08-10T10:55:24Z</time>
      </trkpt>
      <trkpt lat="45.04549" lon="6.32884">
        <ele>1579.4</ele>
        <time>2024-08-10T10:55:25Z</time>
      </trkpt>
      <trkpt lat="45.04549" lon="6.32884">
        <ele>1579.6</ele>
        <time>2024-08-10T10:55:26Z</time>
      </trkpt>
      <trkpt lat="45.04549" lon="6.32887">
        <ele>1579.6</ele>
        <time>2024-08-10T10:55:27Z</time>
      </trkpt>
      <trkpt lat="45.04549" lon="6.32887">
        <ele>1580</ele>
        <time>2024-08-10T10:55:28Z</time>
      </trkpt>
      <trkpt lat="45.04548" lon="6.3289">
        <ele>1580.2</ele>
        <time>2024-08-10T10:55:29Z</time>
      </trkpt>
      <trkpt lat="45.04548" lon="6.3289">
        <ele>1580.2</ele>
        <time>2024-08-10T10:55:30Z</time>
      </trkpt>
      <trkpt lat="45.04548" lon="6.32893">
        <ele>1580.8</ele>
        <time>2024-08-10T10:55:31Z</time>
      </trkpt>
      <trkpt lat="45.04548" lon="6.32893">
        <ele>1581</ele>
        <time>2024-08-10T10:55:32Z</time>
      </trkpt>
      <trkpt lat="45.04548" lon="6.32893">
        <ele>1581.2</ele>
        <time>2024-08-10T10:55:33Z</time>
      </trkpt>
      <trkpt lat="45.04546" lon="6.32896">
        <ele>1581.2</ele>
        <time>2024-08-10T10:55:34Z</time>
      </trkpt>
      <trkpt lat="45.04546" lon="6.32896">
        <ele>1581.2</ele>
        <time>2024-08-10T10:55:35Z</time>
      </trkpt>
      <trkpt lat="45.04546" lon="6.32896">
        <ele>1581.6</ele>
        <time>2024-08-10T10:55:36Z</time>
      </trkpt>
      <trkpt lat="45.04545" lon="6.329">
        <ele>1581.6</ele>
        <time>2024-08-10T10:55:37Z</time>
      </trkpt>
      <trkpt lat="45.04545" lon="6.329">
        <ele>1581.8</ele>
        <time>2024-08-10T10:55:38Z</time>
      </trkpt>
      <trkpt lat="45.04544" lon="6.32903">
        <ele>1582</ele>
        <time>2024-08-10T10:55:39Z</time>
      </trkpt>
      <trkpt lat="45.04544" lon="6.32903">
        <ele>1582.6</ele>
        <time>2024-08-10T10:55:40Z</time>
      </trkpt>
      <trkpt lat="45.04544" lon="6.32906">
        <ele>1582.8</ele>
        <time>2024-08-10T10:55:41Z</time>
      </trkpt>
      <trkpt lat="45.04544" lon="6.32906">
        <ele>1582.8</ele>
        <time>2024-08-10T10:55:42Z</time>
      </trkpt>
      <trkpt lat="45.04542" lon="6.32909">
        <ele>1582.6</ele>
        <time>2024-08-10T10:55:43Z</time>
      </trkpt>
      <trkpt lat="45.04542" lon="6.32909">
        <ele>1582.6</ele>
        <time>2024-08-10T10:55:44Z</time>
      </trkpt>
      <trkpt lat="45.04542" lon="6.32912">
        <ele>1582.8</ele>
        <time>2024-08-10T10:55:45Z</time>
      </trkpt>
      <trkpt lat="45.04542" lon="6.32912">
        <ele>1583</ele>
        <time>2024-08-10T10:55:46Z</time>
      </trkpt>
      <trkpt lat="45.0454" lon="6.32914">
        <ele>1583.4</ele>
        <time>2024-08-10T10:55:47Z</time>
      </trkpt>
      <trkpt lat="45.0454" lon="6.32914">
        <ele>1583.4</ele>
        <time>2024-08-10T10:55:48Z</time>
      </trkpt>
      <trkpt lat="45.04538" lon="6.32916">
        <ele>1583</ele>
        <time>2024-08-10T10:55:49Z</time>
      </trkpt>
      <trkpt lat="45.04538" lon="6.32916">
        <ele>1582.6</ele>
        <time>2024-08-10T10:55:50Z</time>
      </trkpt>
      <trkpt lat="45.04535" lon="6.32917">
        <ele>1582.4</ele>
        <time>2024-08-10T10:55:51Z</time>
      </trkpt>
      <trkpt lat="45.04535" lon="6.32917">
        <ele>1582.4</ele>
        <time>2024-08-10T10:55:52Z</time>
      </trkpt>
      <trkpt lat="45.04533" lon="6.32918">
        <ele>1582.2</ele>
        <time>2024-08-10T10:55:53Z</time>
      </trkpt>
      <trkpt lat="45.04533" lon="6.32918">
        <ele>1582.2</ele>
        <time>2024-08-10T10:55:54Z</time>
      </trkpt>
      <trkpt lat="45.0453" lon="6.32918">
        <ele>1582.2</ele>
        <time>2024-08-10T10:55:55Z</time>
      </trkpt>
      <trkpt lat="45.0453" lon="6.32918">
        <ele>1582</ele>
        <time>2024-08-10T10:55:56Z</time>
      </trkpt>
      <trkpt lat="45.04528" lon="6.3292">
        <ele>1582</ele>
        <time>2024-08-10T10:55:57Z</time>
      </trkpt>
      <trkpt lat="45.04528" lon="6.3292">
        <ele>1581.8</ele>
        <time>2024-08-10T10:55:58Z</time>
      </trkpt>
      <trkpt lat="45.04526" lon="6.32922">
        <ele>1581.8</ele>
        <time>2024-08-10T10:55:59Z</time>
      </trkpt>
      <trkpt lat="45.04526" lon="6.32922">
        <ele>1581.6</ele>
        <time>2024-08-10T10:56:00Z</time>
      </trkpt>
      <trkpt lat="45.04524" lon="6.32922">
        <ele>1581.4</ele>
        <time>2024-08-10T10:56:01Z</time>
      </trkpt>
      <trkpt lat="45.04524" lon="6.32922">
        <ele>1581.4</ele>
        <time>2024-08-10T10:56:02Z</time>
      </trkpt>
      <trkpt lat="45.04521" lon="6.32924">
        <ele>1581.6</ele>
        <time>2024-08-10T10:56:03Z</time>
      </trkpt>
      <trkpt lat="45.04521" lon="6.32924">
        <ele>1581.6</ele>
        <time>2024-08-10T10:56:04Z</time>
      </trkpt>
      <trkpt lat="45.0452" lon="6.32925">
        <ele>1581.4</ele>
        <time>2024-08-10T10:56:05Z</time>
      </trkpt>
      <trkpt lat="45.0452" lon="6.32925">
        <ele>1581</ele>
        <time>2024-08-10T10:56:06Z</time>
      </trkpt>
      <trkpt lat="45.04519" lon="6.32928">
        <ele>1580.8</ele>
        <time>2024-08-10T10:56:07Z</time>
      </trkpt>
      <trkpt lat="45.04519" lon="6.32928">
        <ele>1580.6</ele>
        <time>2024-08-10T10:56:08Z</time>
      </trkpt>
      <trkpt lat="45.04519" lon="6.32931">
        <ele>1580.4</ele>
        <time>2024-08-10T10:56:09Z</time>
      </trkpt>
      <trkpt lat="45.04519" lon="6.32931">
        <ele>1580.4</ele>
        <time>2024-08-10T10:56:10Z</time>
      </trkpt>
      <trkpt lat="45.04518" lon="6.32934">
        <ele>1580.4</ele>
        <time>2024-08-10T10:56:11Z</time>
      </trkpt>
      <trkpt lat="45.04518" lon="6.32934">
        <ele>1580.4</ele>
        <time>2024-08-10T10:56:12Z</time>
      </trkpt>
      <trkpt lat="45.04518" lon="6.32934">
        <ele>1580.4</ele>
        <time>2024-08-10T10:56:13Z</time>
      </trkpt>
      <trkpt lat="45.04518" lon="6.32938">
        <ele>1580.2</ele>
        <time>2024-08-10T10:56:14Z</time>
      </trkpt>
      <trkpt lat="45.04518" lon="6.32938">
        <ele>1579.6</ele>
        <time>2024-08-10T10:56:15Z</time>
      </trkpt>
      <trkpt lat="45.04518" lon="6.32941">
        <ele>1579.6</ele>
        <time>2024-08-10T10:56:16Z</time>
      </trkpt>
      <trkpt lat="45.04518" lon="6.32941">
        <ele>1579.6</ele>
        <time>2024-08-10T10:56:17Z</time>
      </trkpt>
      <trkpt lat="45.04517" lon="6.32944">
        <ele>1580</ele>
        <time>2024-08-10T10:56:18Z</time>
      </trkpt>
      <trkpt lat="45.04517" lon="6.32944">
        <ele>1580.2</ele>
        <time>2024-08-10T10:56:19Z</time>
      </trkpt>
      <trkpt lat="45.04517" lon="6.32947">
        <ele>1580.2</ele>
        <time>2024-08-10T10:56:20Z</time>
      </trkpt>
      <trkpt lat="45.04517" lon="6.32947">
        <ele>1579.8</ele>
        <time>2024-08-10T10:56:21Z</time>
      </trkpt>
      <trkpt lat="45.04517" lon="6.32952">
        <ele>1579.8</ele>
        <time>2024-08-10T10:56:22Z</time>
      </trkpt>
      <trkpt lat="45.04517" lon="6.32952">
        <ele>1580</ele>
        <time>2024-08-10T10:56:23Z</time>
      </trkpt>
      <trkpt lat="45.04517" lon="6.32955">
        <ele>1580</ele>
        <time>2024-08-10T10:56:24Z</time>
      </trkpt>
      <trkpt lat="45.04517" lon="6.32955">
        <ele>1580</ele>
        <time>2024-08-10T10:56:25Z</time>
      </trkpt>
      <trkpt lat="45.04518" lon="6.32958">
        <ele>1580.2</ele>
        <time>2024-08-10T10:56:26Z</time>
      </trkpt>
      <trkpt lat="45.04518" lon="6.32958">
        <ele>1580.2</ele>
        <time>2024-08-10T10:56:27Z</time>
      </trkpt>
      <trkpt lat="45.04518" lon="6.32961">
        <ele>1580.2</ele>
        <time>2024-08-10T10:56:28Z</time>
      </trkpt>
      <trkpt lat="45.04518" lon="6.32961">
        <ele>1580.2</ele>
        <time>2024-08-10T10:56:29Z</time>
      </trkpt>
      <trkpt lat="45.04517" lon="6.32965">
        <ele>1580.6</ele>
        <time>2024-08-10T10:56:30Z</time>
      </trkpt>
      <trkpt lat="45.04517" lon="6.32965">
        <ele>1580.6</ele>
        <time>2024-08-10T10:56:31Z</time>
      </trkpt>
      <trkpt lat="45.04515" lon="6.32968">
        <ele>1580.6</ele>
        <time>2024-08-10T10:56:32Z</time>
      </trkpt>
      <trkpt lat="45.04515" lon="6.32968">
        <ele>1580.2</ele>
        <time>2024-08-10T10:56:33Z</time>
      </trkpt>
      <trkpt lat="45.04514" lon="6.3297">
        <ele>1580</ele>
        <time>2024-08-10T10:56:34Z</time>
      </trkpt>
      <trkpt lat="45.04514" lon="6.3297">
        <ele>1580</ele>
        <time>2024-08-10T10:56:35Z</time>
      </trkpt>
      <trkpt lat="45.04512" lon="6.32972">
        <ele>1580.2</ele>
        <time>2024-08-10T10:56:36Z</time>
      </trkpt>
      <trkpt lat="45.04512" lon="6.32972">
        <ele>1580.4</ele>
        <time>2024-08-10T10:56:37Z</time>
      </trkpt>
      <trkpt lat="45.0451" lon="6.32974">
        <ele>1580.6</ele>
        <time>2024-08-10T10:56:38Z</time>
      </trkpt>
      <trkpt lat="45.0451" lon="6.32974">
        <ele>1580.4</ele>
        <time>2024-08-10T10:56:39Z</time>
      </trkpt>
      <trkpt lat="45.04509" lon="6.32973">
        <ele>1580.4</ele>
        <time>2024-08-10T10:56:40Z</time>
      </trkpt>
      <trkpt lat="45.04509" lon="6.32973">
        <ele>1580.4</ele>
        <time>2024-08-10T10:56:41Z</time>
      </trkpt>
      <trkpt lat="45.04507" lon="6.32971">
        <ele>1580.4</ele>
        <time>2024-08-10T10:56:42Z</time>
      </trkpt>
      <trkpt lat="45.04507" lon="6.32971">
        <ele>1580.4</ele>
        <time>2024-08-10T10:56:43Z</time>
      </trkpt>
      <trkpt lat="45.04505" lon="6.32969">
        <ele>1580.4</ele>
        <time>2024-08-10T10:56:44Z</time>
      </trkpt>
      <trkpt lat="45.04505" lon="6.32969">
        <ele>1580.2</ele>
        <time>2024-08-10T10:56:45Z</time>
      </trkpt>
      <trkpt lat="45.04503" lon="6.32967">
        <ele>1580.2</ele>
        <time>2024-08-10T10:56:46Z</time>
      </trkpt>
      <trkpt lat="45.04503" lon="6.32967">
        <ele>1580</ele>
        <time>2024-08-10T10:56:47Z</time>
      </trkpt>
      <trkpt lat="45.04501" lon="6.32966">
        <ele>1580</ele>
        <time>2024-08-10T10:56:48Z</time>
      </trkpt>
      <trkpt lat="45.04501" lon="6.32966">
        <ele>1580</ele>
        <time>2024-08-10T10:56:49Z</time>
      </trkpt>
      <trkpt lat="45.04498" lon="6.32964">
        <ele>1580</ele>
        <time>2024-08-10T10:56:50Z</time>
      </trkpt>
      <trkpt lat="45.04498" lon="6.32964">
        <ele>1579.6</ele>
        <time>2024-08-10T10:56:51Z</time>
      </trkpt>
      <trkpt lat="45.04496" lon="6.32962">
        <ele>1579.2</ele>
        <time>2024-08-10T10:56:52Z</time>
      </trkpt>
      <trkpt lat="45.04496" lon="6.32962">
        <ele>1579.2</ele>
        <time>2024-08-10T10:56:53Z</time>
      </trkpt>
      <trkpt lat="45.04494" lon="6.3296">
        <ele>1579.4</ele>
        <time>2024-08-10T10:56:54Z</time>
      </trkpt>
      <trkpt lat="45.04494" lon="6.3296">
        <ele>1579.4</ele>
        <time>2024-08-10T10:56:55Z</time>
      </trkpt>
      <trkpt lat="45.04492" lon="6.32959">
        <ele>1579.4</ele>
        <time>2024-08-10T10:56:56Z</time>
      </trkpt>
      <trkpt lat="45.04492" lon="6.32959">
        <ele>1579.4</ele>
        <time>2024-08-10T10:56:57Z</time>
      </trkpt>
      <trkpt lat="45.04491" lon="6.32958">
        <ele>1579.4</ele>
        <time>2024-08-10T10:56:58Z</time>
      </trkpt>
      <trkpt lat="45.04491" lon="6.32958">
        <ele>1579.4</ele>
        <time>2024-08-10T10:56:59Z</time>
      </trkpt>
      <trkpt lat="45.04489" lon="6.32955">
        <ele>1579.4</ele>
        <time>2024-08-10T10:57:00Z</time>
      </trkpt>
      <trkpt lat="45.04489" lon="6.32955">
        <ele>1579.4</ele>
        <time>2024-08-10T10:57:01Z</time>
      </trkpt>
      <trkpt lat="45.04488" lon="6.32953">
        <ele>1579.4</ele>
        <time>2024-08-10T10:57:02Z</time>
      </trkpt>
      <trkpt lat="45.04488" lon="6.32953">
        <ele>1579.8</ele>
        <time>2024-08-10T10:57:03Z</time>
      </trkpt>
      <trkpt lat="45.04485" lon="6.32952">
        <ele>1579.8</ele>
        <time>2024-08-10T10:57:04Z</time>
      </trkpt>
      <trkpt lat="45.04485" lon="6.32952">
        <ele>1579.2</ele>
        <time>2024-08-10T10:57:05Z</time>
      </trkpt>
      <trkpt lat="45.04483" lon="6.32952">
        <ele>1579</ele>
        <time>2024-08-10T10:57:06Z</time>
      </trkpt>
      <trkpt lat="45.04483" lon="6.32952">
        <ele>1578.8</ele>
        <time>2024-08-10T10:57:07Z</time>
      </trkpt>
      <trkpt lat="45.04481" lon="6.32953">
        <ele>1578.8</ele>
        <time>2024-08-10T10:57:08Z</time>
      </trkpt>
      <trkpt lat="45.04481" lon="6.32953">
        <ele>1578.6</ele>
        <time>2024-08-10T10:57:09Z</time>
      </trkpt>
      <trkpt lat="45.04478" lon="6.32955">
        <ele>1578.4</ele>
        <time>2024-08-10T10:57:10Z</time>
      </trkpt>
      <trkpt lat="45.04478" lon="6.32955">
        <ele>1578.4</ele>
        <time>2024-08-10T10:57:11Z</time>
      </trkpt>
      <trkpt lat="45.04476" lon="6.32956">
        <ele>1578.6</ele>
        <time>2024-08-10T10:57:12Z</time>
      </trkpt>
      <trkpt lat="45.04476" lon="6.32956">
        <ele>1578.8</ele>
        <time>2024-08-10T10:57:13Z</time>
      </trkpt>
      <trkpt lat="45.04474" lon="6.32958">
        <ele>1578.8</ele>
        <time>2024-08-10T10:57:14Z</time>
      </trkpt>
      <trkpt lat="45.04474" lon="6.32958">
        <ele>1579</ele>
        <time>2024-08-10T10:57:15Z</time>
      </trkpt>
      <trkpt lat="45.04473" lon="6.3296">
        <ele>1579.2</ele>
        <time>2024-08-10T10:57:16Z</time>
      </trkpt>
      <trkpt lat="45.04473" lon="6.3296">
        <ele>1579.2</ele>
        <time>2024-08-10T10:57:17Z</time>
      </trkpt>
      <trkpt lat="45.04473" lon="6.3296">
        <ele>1579.4</ele>
        <time>2024-08-10T10:57:18Z</time>
      </trkpt>
      <trkpt lat="45.04472" lon="6.32964">
        <ele>1579.4</ele>
        <time>2024-08-10T10:57:19Z</time>
      </trkpt>
      <trkpt lat="45.04472" lon="6.32964">
        <ele>1579.4</ele>
        <time>2024-08-10T10:57:20Z</time>
      </trkpt>
      <trkpt lat="45.04471" lon="6.32966">
        <ele>1579.6</ele>
        <time>2024-08-10T10:57:21Z</time>
      </trkpt>
      <trkpt lat="45.04471" lon="6.32966">
        <ele>1580</ele>
        <time>2024-08-10T10:57:22Z</time>
      </trkpt>
      <trkpt lat="45.04471" lon="6.32966">
        <ele>1580</ele>
        <time>2024-08-10T10:57:23Z</time>
      </trkpt>
      <trkpt lat="45.0447" lon="6.32968">
        <ele>1580.2</ele>
        <time>2024-08-10T10:57:24Z</time>
      </trkpt>
      <trkpt lat="45.0447" lon="6.32968">
        <ele>1580.4</ele>
        <time>2024-08-10T10:57:25Z</time>
      </trkpt>
      <trkpt lat="45.0447" lon="6.32968">
        <ele>1580.6</ele>
        <time>2024-08-10T10:57:26Z</time>
      </trkpt>
      <trkpt lat="45.04471" lon="6.32969">
        <ele>1580.8</ele>
        <time>2024-08-10T10:57:27Z</time>
      </trkpt>
      <trkpt lat="45.04471" lon="6.32969">
        <ele>1580.8</ele>
        <time>2024-08-10T10:57:28Z</time>
      </trkpt>
      <trkpt lat="45.04471" lon="6.32969">
        <ele>1581</ele>
        <time>2024-08-10T10:57:29Z</time>
      </trkpt>
      <trkpt lat="45.04474" lon="6.32971">
        <ele>1581.2</ele>
        <time>2024-08-10T10:57:30Z</time>
      </trkpt>
      <trkpt lat="45.04474" lon="6.32971">
        <ele>1581.4</ele>
        <time>2024-08-10T10:57:31Z</time>
      </trkpt>
      <trkpt lat="45.04474" lon="6.32971">
        <ele>1581.4</ele>
        <time>2024-08-10T10:57:32Z</time>
      </trkpt>
      <trkpt lat="45.04472" lon="6.32974">
        <ele>1581.6</ele>
        <time>2024-08-10T10:57:33Z</time>
      </trkpt>
      <trkpt lat="45.04472" lon="6.32974">
        <ele>1581.8</ele>
        <time>2024-08-10T10:57:34Z</time>
      </trkpt>
      <trkpt lat="45.04472" lon="6.32974">
        <ele>1582</ele>
        <time>2024-08-10T10:57:35Z</time>
      </trkpt>
      <trkpt lat="45.0447" lon="6.32977">
        <ele>1582.2</ele>
        <time>2024-08-10T10:57:36Z</time>
      </trkpt>
      <trkpt lat="45.0447" lon="6.32977">
        <ele>1582.2</ele>
        <time>2024-08-10T10:57:37Z</time>
      </trkpt>
      <trkpt lat="45.04469" lon="6.3298">
        <ele>1582.8</ele>
        <time>2024-08-10T10:57:38Z</time>
      </trkpt>
      <trkpt lat="45.04469" lon="6.3298">
        <ele>1582.8</ele>
        <time>2024-08-10T10:57:39Z</time>
      </trkpt>
      <trkpt lat="45.04468" lon="6.32983">
        <ele>1583</ele>
        <time>2024-08-10T10:57:40Z</time>
      </trkpt>
      <trkpt lat="45.04468" lon="6.32983">
        <ele>1583</ele>
        <time>2024-08-10T10:57:41Z</time>
      </trkpt>
      <trkpt lat="45.04467" lon="6.32986">
        <ele>1582.8</ele>
        <time>2024-08-10T10:57:42Z</time>
      </trkpt>
      <trkpt lat="45.04467" lon="6.32986">
        <ele>1582.8</ele>
        <time>2024-08-10T10:57:43Z</time>
      </trkpt>
      <trkpt lat="45.04466" lon="6.32988">
        <ele>1582.8</ele>
        <time>2024-08-10T10:57:44Z</time>
      </trkpt>
      <trkpt lat="45.04466" lon="6.32988">
        <ele>1583</ele>
        <time>2024-08-10T10:57:45Z</time>
      </trkpt>
      <trkpt lat="45.04464" lon="6.32991">
        <ele>1583</ele>
        <time>2024-08-10T10:57:46Z</time>
      </trkpt>
      <trkpt lat="45.04464" lon="6.32991">
        <ele>1583</ele>
        <time>2024-08-10T10:57:47Z</time>
      </trkpt>
      <trkpt lat="45.04464" lon="6.32994">
        <ele>1583.2</ele>
        <time>2024-08-10T10:57:48Z</time>
      </trkpt>
      <trkpt lat="45.04464" lon="6.32994">
        <ele>1583.2</ele>
        <time>2024-08-10T10:57:49Z</time>
      </trkpt>
      <trkpt lat="45.04463" lon="6.32998">
        <ele>1583.6</ele>
        <time>2024-08-10T10:57:50Z</time>
      </trkpt>
      <trkpt lat="45.04463" lon="6.32998">
        <ele>1583.6</ele>
        <time>2024-08-10T10:57:51Z</time>
      </trkpt>
      <trkpt lat="45.04462" lon="6.33001">
        <ele>1583.6</ele>
        <time>2024-08-10T10:57:52Z</time>
      </trkpt>
      <trkpt lat="45.04462" lon="6.33001">
        <ele>1583.6</ele>
        <time>2024-08-10T10:57:53Z</time>
      </trkpt>
      <trkpt lat="45.04461" lon="6.33004">
        <ele>1583.4</ele>
        <time>2024-08-10T10:57:54Z</time>
      </trkpt>
      <trkpt lat="45.04461" lon="6.33004">
        <ele>1583.6</ele>
        <time>2024-08-10T10:57:55Z</time>
      </trkpt>
      <trkpt lat="45.04461" lon="6.33004">
        <ele>1583.6</ele>
        <time>2024-08-10T10:57:56Z</time>
      </trkpt>
      <trkpt lat="45.04461" lon="6.33004">
        <ele>1584</ele>
        <time>2024-08-10T10:57:57Z</time>
      </trkpt>
      <trkpt lat="45.04459" lon="6.33006">
        <ele>1584.2</ele>
        <time>2024-08-10T10:57:58Z</time>
      </trkpt>
      <trkpt lat="45.04459" lon="6.33006">
        <ele>1584.2</ele>
        <time>2024-08-10T10:57:59Z</time>
      </trkpt>
      <trkpt lat="45.04459" lon="6.33006">
        <ele>1584.4</ele>
        <time>2024-08-10T10:58:00Z</time>
      </trkpt>
      <trkpt lat="45.04459" lon="6.33006">
        <ele>1584.6</ele>
        <time>2024-08-10T10:58:01Z</time>
      </trkpt>
      <trkpt lat="45.04459" lon="6.33006">
        <ele>1584.8</ele>
        <time>2024-08-10T10:58:02Z</time>
      </trkpt>
      <trkpt lat="45.04459" lon="6.33006">
        <ele>1585</ele>
        <time>2024-08-10T10:58:03Z</time>
      </trkpt>
      <trkpt lat="45.04459" lon="6.33006">
        <ele>1585</ele>
        <time>2024-08-10T10:58:04Z</time>
      </trkpt>
      <trkpt lat="45.04459" lon="6.33006">
        <ele>1585</ele>
        <time>2024-08-10T10:58:05Z</time>
      </trkpt>
      <trkpt lat="45.04459" lon="6.33006">
        <ele>1585.2</ele>
        <time>2024-08-10T10:58:06Z</time>
      </trkpt>
      <trkpt lat="45.04459" lon="6.33006">
        <ele>1585.4</ele>
        <time>2024-08-10T10:58:07Z</time>
      </trkpt>
      <trkpt lat="45.04459" lon="6.33006">
        <ele>1585.4</ele>
        <time>2024-08-10T10:58:08Z</time>
      </trkpt>
      <trkpt lat="45.04459" lon="6.33006">
        <ele>1585.6</ele>
        <time>2024-08-10T10:58:09Z</time>
      </trkpt>
      <trkpt lat="45.04459" lon="6.3301">
        <ele>1585.6</ele>
        <time>2024-08-10T10:58:10Z</time>
      </trkpt>
      <trkpt lat="45.04459" lon="6.3301">
        <ele>1585.6</ele>
        <time>2024-08-10T10:58:11Z</time>
      </trkpt>
      <trkpt lat="45.04458" lon="6.33015">
        <ele>1585.8</ele>
        <time>2024-08-10T10:58:12Z</time>
      </trkpt>
      <trkpt lat="45.04458" lon="6.33015">
        <ele>1585.8</ele>
        <time>2024-08-10T10:58:13Z</time>
      </trkpt>
      <trkpt lat="45.04458" lon="6.3302">
        <ele>1586</ele>
        <time>2024-08-10T10:58:14Z</time>
      </trkpt>
      <trkpt lat="45.04458" lon="6.3302">
        <ele>1586.2</ele>
        <time>2024-08-10T10:58:15Z</time>
      </trkpt>
      <trkpt lat="45.04458" lon="6.33023">
        <ele>1586.6</ele>
        <time>2024-08-10T10:58:16Z</time>
      </trkpt>
      <trkpt lat="45.04458" lon="6.33023">
        <ele>1586.8</ele>
        <time>2024-08-10T10:58:17Z</time>
      </trkpt>
      <trkpt lat="45.04458" lon="6.33023">
        <ele>1586.8</ele>
        <time>2024-08-10T10:58:18Z</time>
      </trkpt>
      <trkpt lat="45.04458" lon="6.33023">
        <ele>1586.8</ele>
        <time>2024-08-10T10:58:19Z</time>
      </trkpt>
      <trkpt lat="45.04458" lon="6.33026">
        <ele>1586.8</ele>
        <time>2024-08-10T10:58:20Z</time>
      </trkpt>
      <trkpt lat="45.04458" lon="6.33026">
        <ele>1587</ele>
        <time>2024-08-10T10:58:21Z</time>
      </trkpt>
      <trkpt lat="45.04458" lon="6.33026">
        <ele>1587</ele>
        <time>2024-08-10T10:58:22Z</time>
      </trkpt>
      <trkpt lat="45.04458" lon="6.33026">
        <ele>1587.4</ele>
        <time>2024-08-10T10:58:23Z</time>
      </trkpt>
      <trkpt lat="45.04457" lon="6.33027">
        <ele>1587.8</ele>
        <time>2024-08-10T10:58:24Z</time>
      </trkpt>
      <trkpt lat="45.04457" lon="6.33027">
        <ele>1587.8</ele>
        <time>2024-08-10T10:58:25Z</time>
      </trkpt>
      <trkpt lat="45.04455" lon="6.33026">
        <ele>1588.4</ele>
        <time>2024-08-10T10:58:26Z</time>
      </trkpt>
      <trkpt lat="45.04455" lon="6.33026">
        <ele>1588.4</ele>
        <time>2024-08-10T10:58:27Z</time>
      </trkpt>
      <trkpt lat="45.04455" lon="6.33026">
        <ele>1588.4</ele>
        <time>2024-08-10T10:58:28Z</time>
      </trkpt>
      <trkpt lat="45.04453" lon="6.33025">
        <ele>1589</ele>
        <time>2024-08-10T10:58:29Z</time>
      </trkpt>
      <trkpt lat="45.04453" lon="6.33025">
        <ele>1589.2</ele>
        <time>2024-08-10T10:58:30Z</time>
      </trkpt>
      <trkpt lat="45.04451" lon="6.33025">
        <ele>1589.2</ele>
        <time>2024-08-10T10:58:31Z</time>
      </trkpt>
      <trkpt lat="45.04451" lon="6.33025">
        <ele>1589.4</ele>
        <time>2024-08-10T10:58:32Z</time>
      </trkpt>
      <trkpt lat="45.04451" lon="6.33025">
        <ele>1589.6</ele>
        <time>2024-08-10T10:58:33Z</time>
      </trkpt>
      <trkpt lat="45.04451" lon="6.33025">
        <ele>1589.6</ele>
        <time>2024-08-10T10:58:34Z</time>
      </trkpt>
      <trkpt lat="45.04449" lon="6.33025">
        <ele>1590</ele>
        <time>2024-08-10T10:58:35Z</time>
      </trkpt>
      <trkpt lat="45.04449" lon="6.33025">
        <ele>1590</ele>
        <time>2024-08-10T10:58:36Z</time>
      </trkpt>
      <trkpt lat="45.04449" lon="6.33025">
        <ele>1590.4</ele>
        <time>2024-08-10T10:58:37Z</time>
      </trkpt>
      <trkpt lat="45.04449" lon="6.33025">
        <ele>1590.4</ele>
        <time>2024-08-10T10:58:38Z</time>
      </trkpt>
      <trkpt lat="45.04449" lon="6.33025">
        <ele>1590.4</ele>
        <time>2024-08-10T10:58:39Z</time>
      </trkpt>
      <trkpt lat="45.04447" lon="6.33027">
        <ele>1590.8</ele>
        <time>2024-08-10T10:58:40Z</time>
      </trkpt>
      <trkpt lat="45.04447" lon="6.33027">
        <ele>1590.8</ele>
        <time>2024-08-10T10:58:41Z</time>
      </trkpt>
      <trkpt lat="45.04447" lon="6.33027">
        <ele>1591</ele>
        <time>2024-08-10T10:58:42Z</time>
      </trkpt>
      <trkpt lat="45.04447" lon="6.33027">
        <ele>1591.6</ele>
        <time>2024-08-10T10:58:43Z</time>
      </trkpt>
      <trkpt lat="45.04447" lon="6.33027">
        <ele>1591.8</ele>
        <time>2024-08-10T10:58:44Z</time>
      </trkpt>
      <trkpt lat="45.04447" lon="6.33027">
        <ele>1591.8</ele>
        <time>2024-08-10T10:58:45Z</time>
      </trkpt>
      <trkpt lat="45.04447" lon="6.3303">
        <ele>1591.8</ele>
        <time>2024-08-10T10:58:46Z</time>
      </trkpt>
      <trkpt lat="45.04447" lon="6.3303">
        <ele>1592</ele>
        <time>2024-08-10T10:58:47Z</time>
      </trkpt>
      <trkpt lat="45.04447" lon="6.3303">
        <ele>1592.2</ele>
        <time>2024-08-10T10:58:48Z</time>
      </trkpt>
      <trkpt lat="45.04447" lon="6.3303">
        <ele>1592.2</ele>
        <time>2024-08-10T10:58:49Z</time>
      </trkpt>
      <trkpt lat="45.04447" lon="6.3303">
        <ele>1592.4</ele>
        <time>2024-08-10T10:58:50Z</time>
      </trkpt>
      <trkpt lat="45.04447" lon="6.3303">
        <ele>1592.6</ele>
        <time>2024-08-10T10:58:51Z</time>
      </trkpt>
      <trkpt lat="45.04447" lon="6.3303">
        <ele>1592.8</ele>
        <time>2024-08-10T10:58:52Z</time>
      </trkpt>
      <trkpt lat="45.04447" lon="6.3303">
        <ele>1592.8</ele>
        <time>2024-08-10T10:58:53Z</time>
      </trkpt>
      <trkpt lat="45.04447" lon="6.3303">
        <ele>1593.2</ele>
        <time>2024-08-10T10:58:54Z</time>
      </trkpt>
      <trkpt lat="45.04447" lon="6.3303">
        <ele>1593.6</ele>
        <time>2024-08-10T10:58:55Z</time>
      </trkpt>
      <trkpt lat="45.04447" lon="6.3303">
        <ele>1593.6</ele>
        <time>2024-08-10T10:58:56Z</time>
      </trkpt>
      <trkpt lat="45.04447" lon="6.3303">
        <ele>1594</ele>
        <time>2024-08-10T10:58:57Z</time>
      </trkpt>
      <trkpt lat="45.04446" lon="6.33033">
        <ele>1594.4</ele>
        <time>2024-08-10T10:58:58Z</time>
      </trkpt>
      <trkpt lat="45.04446" lon="6.33033">
        <ele>1594.4</ele>
        <time>2024-08-10T10:58:59Z</time>
      </trkpt>
      <trkpt lat="45.04445" lon="6.33035">
        <ele>1594.4</ele>
        <time>2024-08-10T10:59:00Z</time>
      </trkpt>
      <trkpt lat="45.04445" lon="6.33035">
        <ele>1594.6</ele>
        <time>2024-08-10T10:59:01Z</time>
      </trkpt>
      <trkpt lat="45.04445" lon="6.33035">
        <ele>1595</ele>
        <time>2024-08-10T10:59:02Z</time>
      </trkpt>
      <trkpt lat="45.04443" lon="6.33039">
        <ele>1595.4</ele>
        <time>2024-08-10T10:59:03Z</time>
      </trkpt>
      <trkpt lat="45.04443" lon="6.33039">
        <ele>1595.2</ele>
        <time>2024-08-10T10:59:04Z</time>
      </trkpt>
      <trkpt lat="45.04443" lon="6.33039">
        <ele>1595</ele>
        <time>2024-08-10T10:59:05Z</time>
      </trkpt>
      <trkpt lat="45.04443" lon="6.33039">
        <ele>1595</ele>
        <time>2024-08-10T10:59:06Z</time>
      </trkpt>
      <trkpt lat="45.04442" lon="6.33041">
        <ele>1595</ele>
        <time>2024-08-10T10:59:07Z</time>
      </trkpt>
      <trkpt lat="45.04442" lon="6.33041">
        <ele>1595.4</ele>
        <time>2024-08-10T10:59:08Z</time>
      </trkpt>
      <trkpt lat="45.04442" lon="6.33041">
        <ele>1595.6</ele>
        <time>2024-08-10T10:59:09Z</time>
      </trkpt>
      <trkpt lat="45.0444" lon="6.33043">
        <ele>1595.6</ele>
        <time>2024-08-10T10:59:10Z</time>
      </trkpt>
      <trkpt lat="45.0444" lon="6.33043">
        <ele>1596</ele>
        <time>2024-08-10T10:59:11Z</time>
      </trkpt>
      <trkpt lat="45.0444" lon="6.33043">
        <ele>1596.2</ele>
        <time>2024-08-10T10:59:12Z</time>
      </trkpt>
      <trkpt lat="45.04438" lon="6.33043">
        <ele>1596.4</ele>
        <time>2024-08-10T10:59:13Z</time>
      </trkpt>
      <trkpt lat="45.04438" lon="6.33043">
        <ele>1596.8</ele>
        <time>2024-08-10T10:59:14Z</time>
      </trkpt>
      <trkpt lat="45.04438" lon="6.33043">
        <ele>1597.2</ele>
        <time>2024-08-10T10:59:15Z</time>
      </trkpt>
      <trkpt lat="45.04438" lon="6.33043">
        <ele>1597.4</ele>
        <time>2024-08-10T10:59:16Z</time>
      </trkpt>
      <trkpt lat="45.04436" lon="6.33044">
        <ele>1597.6</ele>
        <time>2024-08-10T10:59:17Z</time>
      </trkpt>
      <trkpt lat="45.04436" lon="6.33044">
        <ele>1597.6</ele>
        <time>2024-08-10T10:59:18Z</time>
      </trkpt>
      <trkpt lat="45.04436" lon="6.33044">
        <ele>1597.8</ele>
        <time>2024-08-10T10:59:19Z</time>
      </trkpt>
      <trkpt lat="45.04434" lon="6.33045">
        <ele>1597.8</ele>
        <time>2024-08-10T10:59:20Z</time>
      </trkpt>
      <trkpt lat="45.04434" lon="6.33045">
        <ele>1598</ele>
        <time>2024-08-10T10:59:21Z</time>
      </trkpt>
      <trkpt lat="45.04432" lon="6.33047">
        <ele>1598.2</ele>
        <time>2024-08-10T10:59:22Z</time>
      </trkpt>
      <trkpt lat="45.04432" lon="6.33047">
        <ele>1598.4</ele>
        <time>2024-08-10T10:59:23Z</time>
      </trkpt>
      <trkpt lat="45.0443" lon="6.33048">
        <ele>1598.6</ele>
        <time>2024-08-10T10:59:24Z</time>
      </trkpt>
      <trkpt lat="45.0443" lon="6.33048">
        <ele>1598.8</ele>
        <time>2024-08-10T10:59:25Z</time>
      </trkpt>
      <trkpt lat="45.0443" lon="6.33048">
        <ele>1598.8</ele>
        <time>2024-08-10T10:59:26Z</time>
      </trkpt>
      <trkpt lat="45.04429" lon="6.33051">
        <ele>1599</ele>
        <time>2024-08-10T10:59:27Z</time>
      </trkpt>
      <trkpt lat="45.04429" lon="6.33051">
        <ele>1599</ele>
        <time>2024-08-10T10:59:28Z</time>
      </trkpt>
      <trkpt lat="45.04429" lon="6.33051">
        <ele>1599.6</ele>
        <time>2024-08-10T10:59:29Z</time>
      </trkpt>
      <trkpt lat="45.04427" lon="6.33053">
        <ele>1599.6</ele>
        <time>2024-08-10T10:59:30Z</time>
      </trkpt>
      <trkpt lat="45.04427" lon="6.33053">
        <ele>1599.8</ele>
        <time>2024-08-10T10:59:31Z</time>
      </trkpt>
      <trkpt lat="45.04425" lon="6.33055">
        <ele>1600</ele>
        <time>2024-08-10T10:59:32Z</time>
      </trkpt>
      <trkpt lat="45.04425" lon="6.33055">
        <ele>1600.4</ele>
        <time>2024-08-10T10:59:33Z</time>
      </trkpt>
      <trkpt lat="45.04425" lon="6.33055">
        <ele>1600.4</ele>
        <time>2024-08-10T10:59:34Z</time>
      </trkpt>
      <trkpt lat="45.04424" lon="6.33058">
        <ele>1600.8</ele>
        <time>2024-08-10T10:59:35Z</time>
      </trkpt>
      <trkpt lat="45.04424" lon="6.33058">
        <ele>1601</ele>
        <time>2024-08-10T10:59:36Z</time>
      </trkpt>
      <trkpt lat="45.04424" lon="6.33058">
        <ele>1601.2</ele>
        <time>2024-08-10T10:59:37Z</time>
      </trkpt>
      <trkpt lat="45.04422" lon="6.33061">
        <ele>1601.4</ele>
        <time>2024-08-10T10:59:38Z</time>
      </trkpt>
      <trkpt lat="45.04422" lon="6.33061">
        <ele>1601.6</ele>
        <time>2024-08-10T10:59:39Z</time>
      </trkpt>
      <trkpt lat="45.04422" lon="6.33061">
        <ele>1601.6</ele>
        <time>2024-08-10T10:59:40Z</time>
      </trkpt>
      <trkpt lat="45.04421" lon="6.33064">
        <ele>1601.8</ele>
        <time>2024-08-10T10:59:41Z</time>
      </trkpt>
      <trkpt lat="45.04421" lon="6.33064">
        <ele>1602</ele>
        <time>2024-08-10T10:59:42Z</time>
      </trkpt>
      <trkpt lat="45.0442" lon="6.33066">
        <ele>1602</ele>
        <time>2024-08-10T10:59:43Z</time>
      </trkpt>
      <trkpt lat="45.0442" lon="6.33066">
        <ele>1602</ele>
        <time>2024-08-10T10:59:44Z</time>
      </trkpt>
      <trkpt lat="45.04419" lon="6.33069">
        <ele>1602.2</ele>
        <time>2024-08-10T10:59:45Z</time>
      </trkpt>
      <trkpt lat="45.04419" lon="6.33069">
        <ele>1602.2</ele>
        <time>2024-08-10T10:59:46Z</time>
      </trkpt>
      <trkpt lat="45.04419" lon="6.33069">
        <ele>1602.6</ele>
        <time>2024-08-10T10:59:47Z</time>
      </trkpt>
      <trkpt lat="45.04417" lon="6.33072">
        <ele>1602.6</ele>
        <time>2024-08-10T10:59:48Z</time>
      </trkpt>
      <trkpt lat="45.04417" lon="6.33072">
        <ele>1602.8</ele>
        <time>2024-08-10T10:59:49Z</time>
      </trkpt>
      <trkpt lat="45.04417" lon="6.33075">
        <ele>1603</ele>
        <time>2024-08-10T10:59:50Z</time>
      </trkpt>
      <trkpt lat="45.04417" lon="6.33075">
        <ele>1603.2</ele>
        <time>2024-08-10T10:59:51Z</time>
      </trkpt>
      <trkpt lat="45.04415" lon="6.33077">
        <ele>1603.2</ele>
        <time>2024-08-10T10:59:52Z</time>
      </trkpt>
      <trkpt lat="45.04415" lon="6.33077">
        <ele>1603.2</ele>
        <time>2024-08-10T10:59:53Z</time>
      </trkpt>
      <trkpt lat="45.04414" lon="6.33079">
        <ele>1603</ele>
        <time>2024-08-10T10:59:54Z</time>
      </trkpt>
      <trkpt lat="45.04414" lon="6.33079">
        <ele>1603.2</ele>
        <time>2024-08-10T10:59:55Z</time>
      </trkpt>
      <trkpt lat="45.04413" lon="6.33082">
        <ele>1603.4</ele>
        <time>2024-08-10T10:59:56Z</time>
      </trkpt>
      <trkpt lat="45.04413" lon="6.33082">
        <ele>1603.6</ele>
        <time>2024-08-10T10:59:57Z</time>
      </trkpt>
      <trkpt lat="45.04413" lon="6.33082">
        <ele>1603.6</ele>
        <time>2024-08-10T10:59:58Z</time>
      </trkpt>
      <trkpt lat="45.04412" lon="6.33085">
        <ele>1603.8</ele>
        <time>2024-08-10T10:59:59Z</time>
      </trkpt>
      <trkpt lat="45.04412" lon="6.33085">
        <ele>1604.4</ele>
        <time>2024-08-10T11:00:00Z</time>
      </trkpt>
      <trkpt lat="45.04411" lon="6.33087">
        <ele>1604.4</ele>
        <time>2024-08-10T11:00:01Z</time>
      </trkpt>
      <trkpt lat="45.04411" lon="6.33087">
        <ele>1604.4</ele>
        <time>2024-08-10T11:00:02Z</time>
      </trkpt>
      <trkpt lat="45.04411" lon="6.33087">
        <ele>1604.8</ele>
        <time>2024-08-10T11:00:03Z</time>
      </trkpt>
      <trkpt lat="45.04409" lon="6.3309">
        <ele>1605</ele>
        <time>2024-08-10T11:00:04Z</time>
      </trkpt>
      <trkpt lat="45.04409" lon="6.3309">
        <ele>1605</ele>
        <time>2024-08-10T11:00:05Z</time>
      </trkpt>
      <trkpt lat="45.04407" lon="6.33092">
        <ele>1605</ele>
        <time>2024-08-10T11:00:06Z</time>
      </trkpt>
      <trkpt lat="45.04407" lon="6.33092">
        <ele>1605.6</ele>
        <time>2024-08-10T11:00:07Z</time>
      </trkpt>
      <trkpt lat="45.04407" lon="6.33092">
        <ele>1605.6</ele>
        <time>2024-08-10T11:00:08Z</time>
      </trkpt>
      <trkpt lat="45.04406" lon="6.33096">
        <ele>1606</ele>
        <time>2024-08-10T11:00:09Z</time>
      </trkpt>
      <trkpt lat="45.04406" lon="6.33096">
        <ele>1606.2</ele>
        <time>2024-08-10T11:00:10Z</time>
      </trkpt>
      <trkpt lat="45.04406" lon="6.33096">
        <ele>1606.8</ele>
        <time>2024-08-10T11:00:11Z</time>
      </trkpt>
      <trkpt lat="45.04405" lon="6.33099">
        <ele>1606.8</ele>
        <time>2024-08-10T11:00:12Z</time>
      </trkpt>
      <trkpt lat="45.04405" lon="6.33099">
        <ele>1607</ele>
        <time>2024-08-10T11:00:13Z</time>
      </trkpt>
      <trkpt lat="45.04405" lon="6.33099">
        <ele>1607.2</ele>
        <time>2024-08-10T11:00:14Z</time>
      </trkpt>
      <trkpt lat="45.04403" lon="6.33102">
        <ele>1607.4</ele>
        <time>2024-08-10T11:00:15Z</time>
      </trkpt>
      <trkpt lat="45.04403" lon="6.33102">
        <ele>1607.6</ele>
        <time>2024-08-10T11:00:16Z</time>
      </trkpt>
      <trkpt lat="45.04403" lon="6.33102">
        <ele>1607.8</ele>
        <time>2024-08-10T11:00:17Z</time>
      </trkpt>
      <trkpt lat="45.04401" lon="6.33104">
        <ele>1608</ele>
        <time>2024-08-10T11:00:18Z</time>
      </trkpt>
      <trkpt lat="45.04401" lon="6.33104">
        <ele>1608.2</ele>
        <time>2024-08-10T11:00:19Z</time>
      </trkpt>
      <trkpt lat="45.04399" lon="6.33105">
        <ele>1608.4</ele>
        <time>2024-08-10T11:00:20Z</time>
      </trkpt>
      <trkpt lat="45.04399" lon="6.33105">
        <ele>1608.4</ele>
        <time>2024-08-10T11:00:21Z</time>
      </trkpt>
      <trkpt lat="45.04397" lon="6.33107">
        <ele>1608.6</ele>
        <time>2024-08-10T11:00:22Z</time>
      </trkpt>
      <trkpt lat="45.04397" lon="6.33107">
        <ele>1608.6</ele>
        <time>2024-08-10T11:00:23Z</time>
      </trkpt>
      <trkpt lat="45.04396" lon="6.33107">
        <ele>1608.6</ele>
        <time>2024-08-10T11:00:24Z</time>
      </trkpt>
      <trkpt lat="45.04396" lon="6.33107">
        <ele>1608.6</ele>
        <time>2024-08-10T11:00:25Z</time>
      </trkpt>
      <trkpt lat="45.04396" lon="6.33107">
        <ele>1608.8</ele>
        <time>2024-08-10T11:00:26Z</time>
      </trkpt>
      <trkpt lat="45.04393" lon="6.33109">
        <ele>1609</ele>
        <time>2024-08-10T11:00:27Z</time>
      </trkpt>
      <trkpt lat="45.04393" lon="6.33109">
        <ele>1609.2</ele>
        <time>2024-08-10T11:00:28Z</time>
      </trkpt>
      <trkpt lat="45.04391" lon="6.3311">
        <ele>1609.4</ele>
        <time>2024-08-10T11:00:29Z</time>
      </trkpt>
      <trkpt lat="45.04391" lon="6.3311">
        <ele>1609.6</ele>
        <time>2024-08-10T11:00:30Z</time>
      </trkpt>
      <trkpt lat="45.04389" lon="6.33111">
        <ele>1609.6</ele>
        <time>2024-08-10T11:00:31Z</time>
      </trkpt>
      <trkpt lat="45.04389" lon="6.33111">
        <ele>1609.8</ele>
        <time>2024-08-10T11:00:32Z</time>
      </trkpt>
      <trkpt lat="45.04387" lon="6.3311">
        <ele>1609.8</ele>
        <time>2024-08-10T11:00:33Z</time>
      </trkpt>
      <trkpt lat="45.04387" lon="6.3311">
        <ele>1610.2</ele>
        <time>2024-08-10T11:00:34Z</time>
      </trkpt>
      <trkpt lat="45.04384" lon="6.3311">
        <ele>1610.4</ele>
        <time>2024-08-10T11:00:35Z</time>
      </trkpt>
      <trkpt lat="45.04384" lon="6.3311">
        <ele>1610.4</ele>
        <time>2024-08-10T11:00:36Z</time>
      </trkpt>
      <trkpt lat="45.04382" lon="6.3311">
        <ele>1610.2</ele>
        <time>2024-08-10T11:00:37Z</time>
      </trkpt>
      <trkpt lat="45.04382" lon="6.3311">
        <ele>1610.2</ele>
        <time>2024-08-10T11:00:38Z</time>
      </trkpt>
      <trkpt lat="45.0438" lon="6.33111">
        <ele>1610.2</ele>
        <time>2024-08-10T11:00:39Z</time>
      </trkpt>
      <trkpt lat="45.0438" lon="6.33111">
        <ele>1610.2</ele>
        <time>2024-08-10T11:00:40Z</time>
      </trkpt>
      <trkpt lat="45.04378" lon="6.33112">
        <ele>1610.2</ele>
        <time>2024-08-10T11:00:41Z</time>
      </trkpt>
      <trkpt lat="45.04378" lon="6.33112">
        <ele>1610.4</ele>
        <time>2024-08-10T11:00:42Z</time>
      </trkpt>
      <trkpt lat="45.04375" lon="6.33113">
        <ele>1610.4</ele>
        <time>2024-08-10T11:00:43Z</time>
      </trkpt>
      <trkpt lat="45.04375" lon="6.33113">
        <ele>1610.4</ele>
        <time>2024-08-10T11:00:44Z</time>
      </trkpt>
      <trkpt lat="45.04373" lon="6.33115">
        <ele>1610.4</ele>
        <time>2024-08-10T11:00:45Z</time>
      </trkpt>
      <trkpt lat="45.04373" lon="6.33115">
        <ele>1610.4</ele>
        <time>2024-08-10T11:00:46Z</time>
      </trkpt>
      <trkpt lat="45.0437" lon="6.33115">
        <ele>1610.4</ele>
        <time>2024-08-10T11:00:47Z</time>
      </trkpt>
      <trkpt lat="45.0437" lon="6.33115">
        <ele>1610.4</ele>
        <time>2024-08-10T11:00:48Z</time>
      </trkpt>
      <trkpt lat="45.04367" lon="6.33115">
        <ele>1610.4</ele>
        <time>2024-08-10T11:00:49Z</time>
      </trkpt>
      <trkpt lat="45.04367" lon="6.33115">
        <ele>1610.4</ele>
        <time>2024-08-10T11:00:50Z</time>
      </trkpt>
      <trkpt lat="45.04367" lon="6.33115">
        <ele>1610.4</ele>
        <time>2024-08-10T11:00:51Z</time>
      </trkpt>
      <trkpt lat="45.04365" lon="6.33117">
        <ele>1610.2</ele>
        <time>2024-08-10T11:00:52Z</time>
      </trkpt>
      <trkpt lat="45.04365" lon="6.33117">
        <ele>1610</ele>
        <time>2024-08-10T11:00:53Z</time>
      </trkpt>
      <trkpt lat="45.04365" lon="6.33117">
        <ele>1610</ele>
        <time>2024-08-10T11:00:54Z</time>
      </trkpt>
      <trkpt lat="45.04363" lon="6.33119">
        <ele>1610</ele>
        <time>2024-08-10T11:00:55Z</time>
      </trkpt>
      <trkpt lat="45.04363" lon="6.33119">
        <ele>1610.4</ele>
        <time>2024-08-10T11:00:56Z</time>
      </trkpt>
      <trkpt lat="45.04361" lon="6.33121">
        <ele>1610.8</ele>
        <time>2024-08-10T11:00:57Z</time>
      </trkpt>
      <trkpt lat="45.04361" lon="6.33121">
        <ele>1611</ele>
        <time>2024-08-10T11:00:58Z</time>
      </trkpt>
      <trkpt lat="45.0436" lon="6.33122">
        <ele>1611</ele>
        <time>2024-08-10T11:00:59Z</time>
      </trkpt>
      <trkpt lat="45.0436" lon="6.33122">
        <ele>1611.2</ele>
        <time>2024-08-10T11:01:00Z</time>
      </trkpt>
      <trkpt lat="45.04358" lon="6.33124">
        <ele>1611.4</ele>
        <time>2024-08-10T11:01:01Z</time>
      </trkpt>
      <trkpt lat="45.04358" lon="6.33124">
        <ele>1611.6</ele>
        <time>2024-08-10T11:01:02Z</time>
      </trkpt>
      <trkpt lat="45.04356" lon="6.33126">
        <ele>1611.8</ele>
        <time>2024-08-10T11:01:03Z</time>
      </trkpt>
      <trkpt lat="45.04356" lon="6.33126">
        <ele>1611.8</ele>
        <time>2024-08-10T11:01:04Z</time>
      </trkpt>
      <trkpt lat="45.04354" lon="6.33128">
        <ele>1612</ele>
        <time>2024-08-10T11:01:05Z</time>
      </trkpt>
      <trkpt lat="45.04354" lon="6.33128">
        <ele>1612</ele>
        <time>2024-08-10T11:01:06Z</time>
      </trkpt>
      <trkpt lat="45.04352" lon="6.3313">
        <ele>1612</ele>
        <time>2024-08-10T11:01:07Z</time>
      </trkpt>
      <trkpt lat="45.04352" lon="6.3313">
        <ele>1612.4</ele>
        <time>2024-08-10T11:01:08Z</time>
      </trkpt>
      <trkpt lat="45.0435" lon="6.33131">
        <ele>1612.6</ele>
        <time>2024-08-10T11:01:09Z</time>
      </trkpt>
      <trkpt lat="45.0435" lon="6.33131">
        <ele>1612.8</ele>
        <time>2024-08-10T11:01:10Z</time>
      </trkpt>
      <trkpt lat="45.0435" lon="6.33131">
        <ele>1612.8</ele>
        <time>2024-08-10T11:01:11Z</time>
      </trkpt>
      <trkpt lat="45.04348" lon="6.33134">
        <ele>1612.8</ele>
        <time>2024-08-10T11:01:12Z</time>
      </trkpt>
      <trkpt lat="45.04348" lon="6.33134">
        <ele>1612.8</ele>
        <time>2024-08-10T11:01:13Z</time>
      </trkpt>
      <trkpt lat="45.04347" lon="6.33136">
        <ele>1613</ele>
        <time>2024-08-10T11:01:14Z</time>
      </trkpt>
      <trkpt lat="45.04347" lon="6.33136">
        <ele>1613.2</ele>
        <time>2024-08-10T11:01:15Z</time>
      </trkpt>
      <trkpt lat="45.04345" lon="6.33138">
        <ele>1613.8</ele>
        <time>2024-08-10T11:01:16Z</time>
      </trkpt>
      <trkpt lat="45.04345" lon="6.33138">
        <ele>1614.2</ele>
        <time>2024-08-10T11:01:17Z</time>
      </trkpt>
      <trkpt lat="45.04344" lon="6.3314">
        <ele>1614.6</ele>
        <time>2024-08-10T11:01:18Z</time>
      </trkpt>
      <trkpt lat="45.04344" lon="6.3314">
        <ele>1614.6</ele>
        <time>2024-08-10T11:01:19Z</time>
      </trkpt>
      <trkpt lat="45.04342" lon="6.33143">
        <ele>1614.6</ele>
        <time>2024-08-10T11:01:20Z</time>
      </trkpt>
      <trkpt lat="45.04342" lon="6.33143">
        <ele>1614.6</ele>
        <time>2024-08-10T11:01:21Z</time>
      </trkpt>
      <trkpt lat="45.04341" lon="6.33145">
        <ele>1614.6</ele>
        <time>2024-08-10T11:01:22Z</time>
      </trkpt>
      <trkpt lat="45.04341" lon="6.33145">
        <ele>1614.6</ele>
        <time>2024-08-10T11:01:23Z</time>
      </trkpt>
      <trkpt lat="45.0434" lon="6.33148">
        <ele>1614.8</ele>
        <time>2024-08-10T11:01:24Z</time>
      </trkpt>
      <trkpt lat="45.0434" lon="6.33148">
        <ele>1614.8</ele>
        <time>2024-08-10T11:01:25Z</time>
      </trkpt>
      <trkpt lat="45.04339" lon="6.33151">
        <ele>1614.8</ele>
        <time>2024-08-10T11:01:26Z</time>
      </trkpt>
      <trkpt lat="45.04339" lon="6.33151">
        <ele>1615</ele>
        <time>2024-08-10T11:01:27Z</time>
      </trkpt>
      <trkpt lat="45.04339" lon="6.33155">
        <ele>1615.6</ele>
        <time>2024-08-10T11:01:28Z</time>
      </trkpt>
      <trkpt lat="45.04339" lon="6.33155">
        <ele>1616</ele>
        <time>2024-08-10T11:01:29Z</time>
      </trkpt>
      <trkpt lat="45.04337" lon="6.33158">
        <ele>1616</ele>
        <time>2024-08-10T11:01:30Z</time>
      </trkpt>
      <trkpt lat="45.04337" lon="6.33158">
        <ele>1616</ele>
        <time>2024-08-10T11:01:31Z</time>
      </trkpt>
      <trkpt lat="45.04335" lon="6.3316">
        <ele>1616</ele>
        <time>2024-08-10T11:01:32Z</time>
      </trkpt>
      <trkpt lat="45.04335" lon="6.3316">
        <ele>1616.2</ele>
        <time>2024-08-10T11:01:33Z</time>
      </trkpt>
      <trkpt lat="45.04333" lon="6.33162">
        <ele>1616.2</ele>
        <time>2024-08-10T11:01:34Z</time>
      </trkpt>
      <trkpt lat="45.04333" lon="6.33162">
        <ele>1616.4</ele>
        <time>2024-08-10T11:01:35Z</time>
      </trkpt>
      <trkpt lat="45.04333" lon="6.33162">
        <ele>1616.6</ele>
        <time>2024-08-10T11:01:36Z</time>
      </trkpt>
      <trkpt lat="45.04333" lon="6.33162">
        <ele>1616.6</ele>
        <time>2024-08-10T11:01:37Z</time>
      </trkpt>
      <trkpt lat="45.04333" lon="6.33162">
        <ele>1616.8</ele>
        <time>2024-08-10T11:01:38Z</time>
      </trkpt>
      <trkpt lat="45.04333" lon="6.33162">
        <ele>1616.6</ele>
        <time>2024-08-10T11:01:39Z</time>
      </trkpt>
      <trkpt lat="45.04333" lon="6.33162">
        <ele>1616.6</ele>
        <time>2024-08-10T11:01:40Z</time>
      </trkpt>
      <trkpt lat="45.04333" lon="6.33162">
        <ele>1616.2</ele>
        <time>2024-08-10T11:01:41Z</time>
      </trkpt>
      <trkpt lat="45.04333" lon="6.33162">
        <ele>1616.2</ele>
        <time>2024-08-10T11:01:42Z</time>
      </trkpt>
      <trkpt lat="45.04333" lon="6.33162">
        <ele>1616.4</ele>
        <time>2024-08-10T11:01:43Z</time>
      </trkpt>
      <trkpt lat="45.04333" lon="6.33162">
        <ele>1616.6</ele>
        <time>2024-08-10T11:01:44Z</time>
      </trkpt>
      <trkpt lat="45.04333" lon="6.33162">
        <ele>1616.8</ele>
        <time>2024-08-10T11:01:45Z</time>
      </trkpt>
      <trkpt lat="45.04333" lon="6.33162">
        <ele>1616.8</ele>
        <time>2024-08-10T11:01:46Z</time>
      </trkpt>
      <trkpt lat="45.04333" lon="6.33162">
        <ele>1617</ele>
        <time>2024-08-10T11:01:47Z</time>
      </trkpt>
      <trkpt lat="45.04333" lon="6.33162">
        <ele>1617</ele>
        <time>2024-08-10T11:01:48Z</time>
      </trkpt>
      <trkpt lat="45.04333" lon="6.33162">
        <ele>1617</ele>
        <time>2024-08-10T11:01:49Z</time>
      </trkpt>
      <trkpt lat="45.04333" lon="6.33162">
        <ele>1617</ele>
        <time>2024-08-10T11:01:50Z</time>
      </trkpt>
      <trkpt lat="45.04333" lon="6.33162">
        <ele>1617</ele>
        <time>2024-08-10T11:01:51Z</time>
      </trkpt>
      <trkpt lat="45.04333" lon="6.33162">
        <ele>1617</ele>
        <time>2024-08-10T11:01:52Z</time>
      </trkpt>
      <trkpt lat="45.04333" lon="6.33162">
        <ele>1617.2</ele>
        <time>2024-08-10T11:01:53Z</time>
      </trkpt>
      <trkpt lat="45.04333" lon="6.33162">
        <ele>1617.2</ele>
        <time>2024-08-10T11:01:54Z</time>
      </trkpt>
      <trkpt lat="45.04333" lon="6.33162">
        <ele>1617.2</ele>
        <time>2024-08-10T11:01:55Z</time>
      </trkpt>
      <trkpt lat="45.04333" lon="6.33162">
        <ele>1617.2</ele>
        <time>2024-08-10T11:01:56Z</time>
      </trkpt>
      <trkpt lat="45.04333" lon="6.33162">
        <ele>1617.4</ele>
        <time>2024-08-10T11:01:57Z</time>
      </trkpt>
      <trkpt lat="45.04333" lon="6.33162">
        <ele>1617.4</ele>
        <time>2024-08-10T11:01:58Z</time>
      </trkpt>
      <trkpt lat="45.04333" lon="6.33162">
        <ele>1617.6</ele>
        <time>2024-08-10T11:01:59Z</time>
      </trkpt>
      <trkpt lat="45.04333" lon="6.33162">
        <ele>1617.6</ele>
        <time>2024-08-10T11:02:00Z</time>
      </trkpt>
      <trkpt lat="45.04333" lon="6.33162">
        <ele>1617.6</ele>
        <time>2024-08-10T11:02:01Z</time>
      </trkpt>
      <trkpt lat="45.04333" lon="6.33162">
        <ele>1617.6</ele>
        <time>2024-08-10T11:02:02Z</time>
      </trkpt>
      <trkpt lat="45.04333" lon="6.33162">
        <ele>1617.6</ele>
        <time>2024-08-10T11:02:03Z</time>
      </trkpt>
      <trkpt lat="45.04333" lon="6.33162">
        <ele>1617.6</ele>
        <time>2024-08-10T11:02:04Z</time>
      </trkpt>
      <trkpt lat="45.04333" lon="6.33162">
        <ele>1617.2</ele>
        <time>2024-08-10T11:02:05Z</time>
      </trkpt>
      <trkpt lat="45.04333" lon="6.33162">
        <ele>1617.2</ele>
        <time>2024-08-10T11:02:06Z</time>
      </trkpt>
      <trkpt lat="45.04333" lon="6.33162">
        <ele>1617.4</ele>
        <time>2024-08-10T11:02:07Z</time>
      </trkpt>
      <trkpt lat="45.04333" lon="6.33162">
        <ele>1617.4</ele>
        <time>2024-08-10T11:02:08Z</time>
      </trkpt>
      <trkpt lat="45.04333" lon="6.33162">
        <ele>1617.4</ele>
        <time>2024-08-10T11:02:09Z</time>
      </trkpt>
      <trkpt lat="45.04333" lon="6.33162">
        <ele>1617.4</ele>
        <time>2024-08-10T11:02:10Z</time>
      </trkpt>
      <trkpt lat="45.04333" lon="6.33162">
        <ele>1617</ele>
        <time>2024-08-10T11:02:11Z</time>
      </trkpt>
      <trkpt lat="45.04333" lon="6.33162">
        <ele>1616.8</ele>
        <time>2024-08-10T11:02:12Z</time>
      </trkpt>
      <trkpt lat="45.04333" lon="6.33162">
        <ele>1616.8</ele>
        <time>2024-08-10T11:02:13Z</time>
      </trkpt>
      <trkpt lat="45.04333" lon="6.33162">
        <ele>1616.8</ele>
        <time>2024-08-10T11:02:14Z</time>
      </trkpt>
      <trkpt lat="45.04333" lon="6.33162">
        <ele>1617</ele>
        <time>2024-08-10T11:02:15Z</time>
      </trkpt>
      <trkpt lat="45.04333" lon="6.33162">
        <ele>1617.2</ele>
        <time>2024-08-10T11:02:16Z</time>
      </trkpt>
      <trkpt lat="45.04333" lon="6.33162">
        <ele>1617.2</ele>
        <time>2024-08-10T11:02:17Z</time>
      </trkpt>
      <trkpt lat="45.04333" lon="6.33162">
        <ele>1617</ele>
        <time>2024-08-10T11:02:18Z</time>
      </trkpt>
      <trkpt lat="45.04333" lon="6.33162">
        <ele>1617</ele>
        <time>2024-08-10T11:02:19Z</time>
      </trkpt>
      <trkpt lat="45.04333" lon="6.33162">
        <ele>1617</ele>
        <time>2024-08-10T11:02:20Z</time>
      </trkpt>
      <trkpt lat="45.04333" lon="6.33162">
        <ele>1617</ele>
        <time>2024-08-10T11:02:21Z</time>
      </trkpt>
      <trkpt lat="45.04333" lon="6.33162">
        <ele>1617</ele>
        <time>2024-08-10T11:02:22Z</time>
      </trkpt>
      <trkpt lat="45.04333" lon="6.33162">
        <ele>1617</ele>
        <time>2024-08-10T11:02:23Z</time>
      </trkpt>
      <trkpt lat="45.04333" lon="6.33162">
        <ele>1617.2</ele>
        <time>2024-08-10T11:02:24Z</time>
      </trkpt>
      <trkpt lat="45.04333" lon="6.33162">
        <ele>1617.2</ele>
        <time>2024-08-10T11:02:25Z</time>
      </trkpt>
      <trkpt lat="45.04333" lon="6.33162">
        <ele>1617.2</ele>
        <time>2024-08-10T11:02:26Z</time>
      </trkpt>
      <trkpt lat="45.04333" lon="6.33162">
        <ele>1617.2</ele>
        <time>2024-08-10T11:02:27Z</time>
      </trkpt>
      <trkpt lat="45.04333" lon="6.33162">
        <ele>1617.2</ele>
        <time>2024-08-10T11:02:28Z</time>
      </trkpt>
      <trkpt lat="45.04333" lon="6.33162">
        <ele>1617.2</ele>
        <time>2024-08-10T11:02:29Z</time>
      </trkpt>
      <trkpt lat="45.04333" lon="6.33162">
        <ele>1617.2</ele>
        <time>2024-08-10T11:02:30Z</time>
      </trkpt>
      <trkpt lat="45.04333" lon="6.33162">
        <ele>1617.4</ele>
        <time>2024-08-10T11:02:31Z</time>
      </trkpt>
      <trkpt lat="45.04333" lon="6.33162">
        <ele>1617.4</ele>
        <time>2024-08-10T11:02:32Z</time>
      </trkpt>
      <trkpt lat="45.04333" lon="6.33162">
        <ele>1617.2</ele>
        <time>2024-08-10T11:02:33Z</time>
      </trkpt>
      <trkpt lat="45.04333" lon="6.33162">
        <ele>1617.2</ele>
        <time>2024-08-10T11:02:34Z</time>
      </trkpt>
      <trkpt lat="45.04333" lon="6.33162">
        <ele>1617.4</ele>
        <time>2024-08-10T11:02:35Z</time>
      </trkpt>
      <trkpt lat="45.04333" lon="6.33162">
        <ele>1617.6</ele>
        <time>2024-08-10T11:02:36Z</time>
      </trkpt>
      <trkpt lat="45.04333" lon="6.33162">
        <ele>1617.8</ele>
        <time>2024-08-10T11:02:37Z</time>
      </trkpt>
      <trkpt lat="45.04332" lon="6.33165">
        <ele>1618</ele>
        <time>2024-08-10T11:02:38Z</time>
      </trkpt>
      <trkpt lat="45.04332" lon="6.33165">
        <ele>1618</ele>
        <time>2024-08-10T11:02:39Z</time>
      </trkpt>
      <trkpt lat="45.0433" lon="6.3317">
        <ele>1618</ele>
        <time>2024-08-10T11:02:40Z</time>
      </trkpt>
      <trkpt lat="45.04329" lon="6.33172">
        <ele>1618</ele>
        <time>2024-08-10T11:02:41Z</time>
      </trkpt>
      <trkpt lat="45.04329" lon="6.33175">
        <ele>1618.2</ele>
        <time>2024-08-10T11:02:42Z</time>
      </trkpt>
      <trkpt lat="45.04328" lon="6.33177">
        <ele>1618.2</ele>
        <time>2024-08-10T11:02:43Z</time>
      </trkpt>
      <trkpt lat="45.04328" lon="6.33177">
        <ele>1618.4</ele>
        <time>2024-08-10T11:02:44Z</time>
      </trkpt>
      <trkpt lat="45.04327" lon="6.33181">
        <ele>1618.4</ele>
        <time>2024-08-10T11:02:45Z</time>
      </trkpt>
      <trkpt lat="45.04327" lon="6.33181">
        <ele>1618.4</ele>
        <time>2024-08-10T11:02:46Z</time>
      </trkpt>
      <trkpt lat="45.04325" lon="6.33184">
        <ele>1618.4</ele>
        <time>2024-08-10T11:02:47Z</time>
      </trkpt>
      <trkpt lat="45.04325" lon="6.33184">
        <ele>1618.8</ele>
        <time>2024-08-10T11:02:48Z</time>
      </trkpt>
      <trkpt lat="45.04325" lon="6.33187">
        <ele>1618.8</ele>
        <time>2024-08-10T11:02:49Z</time>
      </trkpt>
      <trkpt lat="45.04325" lon="6.33187">
        <ele>1618.8</ele>
        <time>2024-08-10T11:02:50Z</time>
      </trkpt>
      <trkpt lat="45.04323" lon="6.3319">
        <ele>1619</ele>
        <time>2024-08-10T11:02:51Z</time>
      </trkpt>
      <trkpt lat="45.04323" lon="6.3319">
        <ele>1619.2</ele>
        <time>2024-08-10T11:02:52Z</time>
      </trkpt>
      <trkpt lat="45.04323" lon="6.33193">
        <ele>1619.2</ele>
        <time>2024-08-10T11:02:53Z</time>
      </trkpt>
      <trkpt lat="45.04323" lon="6.33193">
        <ele>1619.6</ele>
        <time>2024-08-10T11:02:54Z</time>
      </trkpt>
      <trkpt lat="45.04322" lon="6.33196">
        <ele>1619.6</ele>
        <time>2024-08-10T11:02:55Z</time>
      </trkpt>
      <trkpt lat="45.04322" lon="6.33196">
        <ele>1619.6</ele>
        <time>2024-08-10T11:02:56Z</time>
      </trkpt>
      <trkpt lat="45.04321" lon="6.332">
        <ele>1620</ele>
        <time>2024-08-10T11:02:57Z</time>
      </trkpt>
      <trkpt lat="45.04321" lon="6.332">
        <ele>1620.2</ele>
        <time>2024-08-10T11:02:58Z</time>
      </trkpt>
      <trkpt lat="45.0432" lon="6.33203">
        <ele>1620.4</ele>
        <time>2024-08-10T11:02:59Z</time>
      </trkpt>
      <trkpt lat="45.0432" lon="6.33203">
        <ele>1620.6</ele>
        <time>2024-08-10T11:03:00Z</time>
      </trkpt>
      <trkpt lat="45.04319" lon="6.33206">
        <ele>1620.6</ele>
        <time>2024-08-10T11:03:01Z</time>
      </trkpt>
      <trkpt lat="45.04319" lon="6.33206">
        <ele>1620.6</ele>
        <time>2024-08-10T11:03:02Z</time>
      </trkpt>
      <trkpt lat="45.04319" lon="6.33209">
        <ele>1620.8</ele>
        <time>2024-08-10T11:03:03Z</time>
      </trkpt>
      <trkpt lat="45.04319" lon="6.33209">
        <ele>1620.8</ele>
        <time>2024-08-10T11:03:04Z</time>
      </trkpt>
      <trkpt lat="45.04318" lon="6.33213">
        <ele>1620.8</ele>
        <time>2024-08-10T11:03:05Z</time>
      </trkpt>
      <trkpt lat="45.04318" lon="6.33213">
        <ele>1620.8</ele>
        <time>2024-08-10T11:03:06Z</time>
      </trkpt>
      <trkpt lat="45.04317" lon="6.33216">
        <ele>1621</ele>
        <time>2024-08-10T11:03:07Z</time>
      </trkpt>
      <trkpt lat="45.04317" lon="6.33216">
        <ele>1621.2</ele>
        <time>2024-08-10T11:03:08Z</time>
      </trkpt>
      <trkpt lat="45.04317" lon="6.33219">
        <ele>1621.2</ele>
        <time>2024-08-10T11:03:09Z</time>
      </trkpt>
      <trkpt lat="45.04317" lon="6.33219">
        <ele>1621.2</ele>
        <time>2024-08-10T11:03:10Z</time>
      </trkpt>
      <trkpt lat="45.04315" lon="6.33223">
        <ele>1621.2</ele>
        <time>2024-08-10T11:03:11Z</time>
      </trkpt>
      <trkpt lat="45.04315" lon="6.33223">
        <ele>1621.4</ele>
        <time>2024-08-10T11:03:12Z</time>
      </trkpt>
      <trkpt lat="45.04315" lon="6.33226">
        <ele>1621.4</ele>
        <time>2024-08-10T11:03:13Z</time>
      </trkpt>
      <trkpt lat="45.04315" lon="6.33226">
        <ele>1621.4</ele>
        <time>2024-08-10T11:03:14Z</time>
      </trkpt>
      <trkpt lat="45.04314" lon="6.33229">
        <ele>1621.6</ele>
        <time>2024-08-10T11:03:15Z</time>
      </trkpt>
      <trkpt lat="45.04314" lon="6.33229">
        <ele>1621.8</ele>
        <time>2024-08-10T11:03:16Z</time>
      </trkpt>
      <trkpt lat="45.04313" lon="6.33232">
        <ele>1621.8</ele>
        <time>2024-08-10T11:03:17Z</time>
      </trkpt>
      <trkpt lat="45.04313" lon="6.33232">
        <ele>1621.8</ele>
        <time>2024-08-10T11:03:18Z</time>
      </trkpt>
      <trkpt lat="45.04312" lon="6.33235">
        <ele>1622.4</ele>
        <time>2024-08-10T11:03:19Z</time>
      </trkpt>
      <trkpt lat="45.04312" lon="6.33235">
        <ele>1622.6</ele>
        <time>2024-08-10T11:03:20Z</time>
      </trkpt>
      <trkpt lat="45.04311" lon="6.33239">
        <ele>1622.6</ele>
        <time>2024-08-10T11:03:21Z</time>
      </trkpt>
      <trkpt lat="45.04311" lon="6.33239">
        <ele>1622.6</ele>
        <time>2024-08-10T11:03:22Z</time>
      </trkpt>
      <trkpt lat="45.04311" lon="6.33239">
        <ele>1622.8</ele>
        <time>2024-08-10T11:03:23Z</time>
      </trkpt>
      <trkpt lat="45.04311" lon="6.33239">
        <ele>1623</ele>
        <time>2024-08-10T11:03:24Z</time>
      </trkpt>
      <trkpt lat="45.04311" lon="6.33239">
        <ele>1623</ele>
        <time>2024-08-10T11:03:25Z</time>
      </trkpt>
      <trkpt lat="45.04311" lon="6.33239">
        <ele>1623.2</ele>
        <time>2024-08-10T11:03:26Z</time>
      </trkpt>
      <trkpt lat="45.04311" lon="6.33239">
        <ele>1623.4</ele>
        <time>2024-08-10T11:03:27Z</time>
      </trkpt>
      <trkpt lat="45.04311" lon="6.33239">
        <ele>1623.6</ele>
        <time>2024-08-10T11:03:28Z</time>
      </trkpt>
      <trkpt lat="45.04311" lon="6.33239">
        <ele>1623.6</ele>
        <time>2024-08-10T11:03:29Z</time>
      </trkpt>
      <trkpt lat="45.04311" lon="6.33239">
        <ele>1623.6</ele>
        <time>2024-08-10T11:03:30Z</time>
      </trkpt>
      <trkpt lat="45.04311" lon="6.33239">
        <ele>1623.6</ele>
        <time>2024-08-10T11:03:31Z</time>
      </trkpt>
      <trkpt lat="45.0431" lon="6.33241">
        <ele>1623.8</ele>
        <time>2024-08-10T11:03:32Z</time>
      </trkpt>
      <trkpt lat="45.0431" lon="6.33241">
        <ele>1623.8</ele>
        <time>2024-08-10T11:03:33Z</time>
      </trkpt>
      <trkpt lat="45.04309" lon="6.33244">
        <ele>1624</ele>
        <time>2024-08-10T11:03:34Z</time>
      </trkpt>
      <trkpt lat="45.04309" lon="6.33244">
        <ele>1624</ele>
        <time>2024-08-10T11:03:35Z</time>
      </trkpt>
      <trkpt lat="45.04308" lon="6.33247">
        <ele>1624.2</ele>
        <time>2024-08-10T11:03:36Z</time>
      </trkpt>
      <trkpt lat="45.04308" lon="6.33247">
        <ele>1624</ele>
        <time>2024-08-10T11:03:37Z</time>
      </trkpt>
      <trkpt lat="45.04307" lon="6.3325">
        <ele>1624</ele>
        <time>2024-08-10T11:03:38Z</time>
      </trkpt>
      <trkpt lat="45.04307" lon="6.3325">
        <ele>1624</ele>
        <time>2024-08-10T11:03:39Z</time>
      </trkpt>
      <trkpt lat="45.04306" lon="6.33254">
        <ele>1624.2</ele>
        <time>2024-08-10T11:03:40Z</time>
      </trkpt>
      <trkpt lat="45.04306" lon="6.33254">
        <ele>1624.4</ele>
        <time>2024-08-10T11:03:41Z</time>
      </trkpt>
      <trkpt lat="45.04305" lon="6.33257">
        <ele>1624.6</ele>
        <time>2024-08-10T11:03:42Z</time>
      </trkpt>
      <trkpt lat="45.04305" lon="6.33257">
        <ele>1624.6</ele>
        <time>2024-08-10T11:03:43Z</time>
      </trkpt>
      <trkpt lat="45.04304" lon="6.3326">
        <ele>1624.6</ele>
        <time>2024-08-10T11:03:44Z</time>
      </trkpt>
      <trkpt lat="45.04304" lon="6.3326">
        <ele>1624.8</ele>
        <time>2024-08-10T11:03:45Z</time>
      </trkpt>
      <trkpt lat="45.04303" lon="6.33263">
        <ele>1624.8</ele>
        <time>2024-08-10T11:03:46Z</time>
      </trkpt>
      <trkpt lat="45.04303" lon="6.33263">
        <ele>1624.8</ele>
        <time>2024-08-10T11:03:47Z</time>
      </trkpt>
      <trkpt lat="45.04303" lon="6.33266">
        <ele>1625</ele>
        <time>2024-08-10T11:03:48Z</time>
      </trkpt>
      <trkpt lat="45.04303" lon="6.33266">
        <ele>1625.2</ele>
        <time>2024-08-10T11:03:49Z</time>
      </trkpt>
      <trkpt lat="45.04301" lon="6.33269">
        <ele>1625.4</ele>
        <time>2024-08-10T11:03:50Z</time>
      </trkpt>
      <trkpt lat="45.04301" lon="6.33269">
        <ele>1625.6</ele>
        <time>2024-08-10T11:03:51Z</time>
      </trkpt>
      <trkpt lat="45.043" lon="6.33273">
        <ele>1625.8</ele>
        <time>2024-08-10T11:03:52Z</time>
      </trkpt>
      <trkpt lat="45.043" lon="6.33273">
        <ele>1626</ele>
        <time>2024-08-10T11:03:53Z</time>
      </trkpt>
      <trkpt lat="45.04299" lon="6.33275">
        <ele>1626</ele>
        <time>2024-08-10T11:03:54Z</time>
      </trkpt>
      <trkpt lat="45.04299" lon="6.33275">
        <ele>1626.2</ele>
        <time>2024-08-10T11:03:55Z</time>
      </trkpt>
      <trkpt lat="45.04298" lon="6.33278">
        <ele>1626.2</ele>
        <time>2024-08-10T11:03:56Z</time>
      </trkpt>
      <trkpt lat="45.04298" lon="6.33278">
        <ele>1626.2</ele>
        <time>2024-08-10T11:03:57Z</time>
      </trkpt>
      <trkpt lat="45.04297" lon="6.33281">
        <ele>1626.8</ele>
        <time>2024-08-10T11:03:58Z</time>
      </trkpt>
      <trkpt lat="45.04297" lon="6.33281">
        <ele>1626.8</ele>
        <time>2024-08-10T11:03:59Z</time>
      </trkpt>
      <trkpt lat="45.04296" lon="6.33284">
        <ele>1626.8</ele>
        <time>2024-08-10T11:04:00Z</time>
      </trkpt>
      <trkpt lat="45.04296" lon="6.33284">
        <ele>1626.8</ele>
        <time>2024-08-10T11:04:01Z</time>
      </trkpt>
      <trkpt lat="45.04295" lon="6.33287">
        <ele>1627</ele>
        <time>2024-08-10T11:04:02Z</time>
      </trkpt>
      <trkpt lat="45.04295" lon="6.33287">
        <ele>1627.4</ele>
        <time>2024-08-10T11:04:03Z</time>
      </trkpt>
      <trkpt lat="45.04295" lon="6.3329">
        <ele>1627.4</ele>
        <time>2024-08-10T11:04:04Z</time>
      </trkpt>
      <trkpt lat="45.04295" lon="6.3329">
        <ele>1627.4</ele>
        <time>2024-08-10T11:04:05Z</time>
      </trkpt>
      <trkpt lat="45.04294" lon="6.33293">
        <ele>1627.4</ele>
        <time>2024-08-10T11:04:06Z</time>
      </trkpt>
      <trkpt lat="45.04294" lon="6.33293">
        <ele>1627.8</ele>
        <time>2024-08-10T11:04:07Z</time>
      </trkpt>
      <trkpt lat="45.04294" lon="6.33296">
        <ele>1628</ele>
        <time>2024-08-10T11:04:08Z</time>
      </trkpt>
      <trkpt lat="45.04294" lon="6.33296">
        <ele>1628.2</ele>
        <time>2024-08-10T11:04:09Z</time>
      </trkpt>
      <trkpt lat="45.04293" lon="6.333">
        <ele>1628.2</ele>
        <time>2024-08-10T11:04:10Z</time>
      </trkpt>
      <trkpt lat="45.04293" lon="6.333">
        <ele>1628.4</ele>
        <time>2024-08-10T11:04:11Z</time>
      </trkpt>
      <trkpt lat="45.04292" lon="6.33302">
        <ele>1628.6</ele>
        <time>2024-08-10T11:04:12Z</time>
      </trkpt>
      <trkpt lat="45.04292" lon="6.33302">
        <ele>1629</ele>
        <time>2024-08-10T11:04:13Z</time>
      </trkpt>
      <trkpt lat="45.04292" lon="6.33305">
        <ele>1629</ele>
        <time>2024-08-10T11:04:14Z</time>
      </trkpt>
      <trkpt lat="45.04292" lon="6.33305">
        <ele>1629.4</ele>
        <time>2024-08-10T11:04:15Z</time>
      </trkpt>
      <trkpt lat="45.04293" lon="6.33309">
        <ele>1629.6</ele>
        <time>2024-08-10T11:04:16Z</time>
      </trkpt>
      <trkpt lat="45.04293" lon="6.33309">
        <ele>1629.6</ele>
        <time>2024-08-10T11:04:17Z</time>
      </trkpt>
      <trkpt lat="45.04293" lon="6.33309">
        <ele>1629.8</ele>
        <time>2024-08-10T11:04:18Z</time>
      </trkpt>
      <trkpt lat="45.04293" lon="6.33313">
        <ele>1630</ele>
        <time>2024-08-10T11:04:19Z</time>
      </trkpt>
      <trkpt lat="45.04293" lon="6.33313">
        <ele>1630.2</ele>
        <time>2024-08-10T11:04:20Z</time>
      </trkpt>
      <trkpt lat="45.04292" lon="6.33316">
        <ele>1630.2</ele>
        <time>2024-08-10T11:04:21Z</time>
      </trkpt>
      <trkpt lat="45.04292" lon="6.33316">
        <ele>1630.4</ele>
        <time>2024-08-10T11:04:22Z</time>
      </trkpt>
      <trkpt lat="45.04292" lon="6.33319">
        <ele>1630.8</ele>
        <time>2024-08-10T11:04:23Z</time>
      </trkpt>
      <trkpt lat="45.04292" lon="6.33319">
        <ele>1630.8</ele>
        <time>2024-08-10T11:04:24Z</time>
      </trkpt>
      <trkpt lat="45.04291" lon="6.33323">
        <ele>1630.8</ele>
        <time>2024-08-10T11:04:25Z</time>
      </trkpt>
      <trkpt lat="45.04291" lon="6.33323">
        <ele>1631</ele>
        <time>2024-08-10T11:04:26Z</time>
      </trkpt>
      <trkpt lat="45.04291" lon="6.33326">
        <ele>1631</ele>
        <time>2024-08-10T11:04:27Z</time>
      </trkpt>
      <trkpt lat="45.04291" lon="6.33326">
        <ele>1631.2</ele>
        <time>2024-08-10T11:04:28Z</time>
      </trkpt>
      <trkpt lat="45.04291" lon="6.33329">
        <ele>1631.6</ele>
        <time>2024-08-10T11:04:29Z</time>
      </trkpt>
      <trkpt lat="45.04291" lon="6.33329">
        <ele>1631.8</ele>
        <time>2024-08-10T11:04:30Z</time>
      </trkpt>
      <trkpt lat="45.04291" lon="6.33332">
        <ele>1632</ele>
        <time>2024-08-10T11:04:31Z</time>
      </trkpt>
      <trkpt lat="45.04291" lon="6.33332">
        <ele>1632</ele>
        <time>2024-08-10T11:04:32Z</time>
      </trkpt>
      <trkpt lat="45.04291" lon="6.33335">
        <ele>1632.2</ele>
        <time>2024-08-10T11:04:33Z</time>
      </trkpt>
      <trkpt lat="45.04291" lon="6.33335">
        <ele>1632.2</ele>
        <time>2024-08-10T11:04:34Z</time>
      </trkpt>
      <trkpt lat="45.04291" lon="6.33338">
        <ele>1632.6</ele>
        <time>2024-08-10T11:04:35Z</time>
      </trkpt>
      <trkpt lat="45.04291" lon="6.33338">
        <ele>1632.8</ele>
        <time>2024-08-10T11:04:36Z</time>
      </trkpt>
      <trkpt lat="45.04291" lon="6.33341">
        <ele>1633</ele>
        <time>2024-08-10T11:04:37Z</time>
      </trkpt>
      <trkpt lat="45.04291" lon="6.33341">
        <ele>1633</ele>
        <time>2024-08-10T11:04:38Z</time>
      </trkpt>
      <trkpt lat="45.04291" lon="6.33344">
        <ele>1633.6</ele>
        <time>2024-08-10T11:04:39Z</time>
      </trkpt>
      <trkpt lat="45.04291" lon="6.33344">
        <ele>1633.8</ele>
        <time>2024-08-10T11:04:40Z</time>
      </trkpt>
      <trkpt lat="45.04291" lon="6.33347">
        <ele>1633.8</ele>
        <time>2024-08-10T11:04:41Z</time>
      </trkpt>
      <trkpt lat="45.04291" lon="6.33347">
        <ele>1634</ele>
        <time>2024-08-10T11:04:42Z</time>
      </trkpt>
      <trkpt lat="45.04291" lon="6.33351">
        <ele>1634</ele>
        <time>2024-08-10T11:04:43Z</time>
      </trkpt>
      <trkpt lat="45.04291" lon="6.33351">
        <ele>1634.2</ele>
        <time>2024-08-10T11:04:44Z</time>
      </trkpt>
      <trkpt lat="45.04291" lon="6.33354">
        <ele>1634.4</ele>
        <time>2024-08-10T11:04:45Z</time>
      </trkpt>
      <trkpt lat="45.04291" lon="6.33354">
        <ele>1634.8</ele>
        <time>2024-08-10T11:04:46Z</time>
      </trkpt>
      <trkpt lat="45.04291" lon="6.33356">
        <ele>1635</ele>
        <time>2024-08-10T11:04:47Z</time>
      </trkpt>
      <trkpt lat="45.04291" lon="6.33356">
        <ele>1635</ele>
        <time>2024-08-10T11:04:48Z</time>
      </trkpt>
      <trkpt lat="45.04291" lon="6.33356">
        <ele>1635.2</ele>
        <time>2024-08-10T11:04:49Z</time>
      </trkpt>
      <trkpt lat="45.04291" lon="6.33359">
        <ele>1635.4</ele>
        <time>2024-08-10T11:04:50Z</time>
      </trkpt>
      <trkpt lat="45.04291" lon="6.33359">
        <ele>1635.8</ele>
        <time>2024-08-10T11:04:51Z</time>
      </trkpt>
      <trkpt lat="45.04291" lon="6.33363">
        <ele>1636.2</ele>
        <time>2024-08-10T11:04:52Z</time>
      </trkpt>
      <trkpt lat="45.04291" lon="6.33363">
        <ele>1636.2</ele>
        <time>2024-08-10T11:04:53Z</time>
      </trkpt>
      <trkpt lat="45.04291" lon="6.33367">
        <ele>1636.4</ele>
        <time>2024-08-10T11:04:54Z</time>
      </trkpt>
      <trkpt lat="45.04291" lon="6.33367">
        <ele>1636.4</ele>
        <time>2024-08-10T11:04:55Z</time>
      </trkpt>
      <trkpt lat="45.04291" lon="6.3337">
        <ele>1636.4</ele>
        <time>2024-08-10T11:04:56Z</time>
      </trkpt>
      <trkpt lat="45.04291" lon="6.3337">
        <ele>1636.6</ele>
        <time>2024-08-10T11:04:57Z</time>
      </trkpt>
      <trkpt lat="45.04292" lon="6.33373">
        <ele>1636.6</ele>
        <time>2024-08-10T11:04:58Z</time>
      </trkpt>
      <trkpt lat="45.04292" lon="6.33373">
        <ele>1636.6</ele>
        <time>2024-08-10T11:04:59Z</time>
      </trkpt>
      <trkpt lat="45.04291" lon="6.33376">
        <ele>1636.6</ele>
        <time>2024-08-10T11:05:00Z</time>
      </trkpt>
      <trkpt lat="45.04291" lon="6.33376">
        <ele>1636.6</ele>
        <time>2024-08-10T11:05:01Z</time>
      </trkpt>
      <trkpt lat="45.04291" lon="6.33379">
        <ele>1636.8</ele>
        <time>2024-08-10T11:05:02Z</time>
      </trkpt>
      <trkpt lat="45.04291" lon="6.33379">
        <ele>1637.2</ele>
        <time>2024-08-10T11:05:03Z</time>
      </trkpt>
      <trkpt lat="45.04291" lon="6.33382">
        <ele>1637.2</ele>
        <time>2024-08-10T11:05:04Z</time>
      </trkpt>
      <trkpt lat="45.04291" lon="6.33382">
        <ele>1637.4</ele>
        <time>2024-08-10T11:05:05Z</time>
      </trkpt>
      <trkpt lat="45.04292" lon="6.33385">
        <ele>1637.6</ele>
        <time>2024-08-10T11:05:06Z</time>
      </trkpt>
      <trkpt lat="45.04292" lon="6.33385">
        <ele>1638</ele>
        <time>2024-08-10T11:05:07Z</time>
      </trkpt>
      <trkpt lat="45.04293" lon="6.33388">
        <ele>1638.2</ele>
        <time>2024-08-10T11:05:08Z</time>
      </trkpt>
      <trkpt lat="45.04293" lon="6.33388">
        <ele>1638.2</ele>
        <time>2024-08-10T11:05:09Z</time>
      </trkpt>
      <trkpt lat="45.04293" lon="6.33391">
        <ele>1638.2</ele>
        <time>2024-08-10T11:05:10Z</time>
      </trkpt>
      <trkpt lat="45.04293" lon="6.33391">
        <ele>1638.2</ele>
        <time>2024-08-10T11:05:11Z</time>
      </trkpt>
      <trkpt lat="45.04294" lon="6.33394">
        <ele>1638.4</ele>
        <time>2024-08-10T11:05:12Z</time>
      </trkpt>
      <trkpt lat="45.04294" lon="6.33394">
        <ele>1638.4</ele>
        <time>2024-08-10T11:05:13Z</time>
      </trkpt>
      <trkpt lat="45.04294" lon="6.33398">
        <ele>1638.4</ele>
        <time>2024-08-10T11:05:14Z</time>
      </trkpt>
      <trkpt lat="45.04294" lon="6.33398">
        <ele>1638.4</ele>
        <time>2024-08-10T11:05:15Z</time>
      </trkpt>
      <trkpt lat="45.04295" lon="6.33401">
        <ele>1638.4</ele>
        <time>2024-08-10T11:05:16Z</time>
      </trkpt>
      <trkpt lat="45.04295" lon="6.33401">
        <ele>1638.4</ele>
        <time>2024-08-10T11:05:17Z</time>
      </trkpt>
      <trkpt lat="45.04295" lon="6.33405">
        <ele>1638.6</ele>
        <time>2024-08-10T11:05:18Z</time>
      </trkpt>
      <trkpt lat="45.04295" lon="6.33405">
        <ele>1638.6</ele>
        <time>2024-08-10T11:05:19Z</time>
      </trkpt>
      <trkpt lat="45.04295" lon="6.33409">
        <ele>1639</ele>
        <time>2024-08-10T11:05:20Z</time>
      </trkpt>
      <trkpt lat="45.04295" lon="6.33409">
        <ele>1639</ele>
        <time>2024-08-10T11:05:21Z</time>
      </trkpt>
      <trkpt lat="45.04295" lon="6.33412">
        <ele>1639</ele>
        <time>2024-08-10T11:05:22Z</time>
      </trkpt>
      <trkpt lat="45.04295" lon="6.33412">
        <ele>1639.2</ele>
        <time>2024-08-10T11:05:23Z</time>
      </trkpt>
      <trkpt lat="45.04295" lon="6.33416">
        <ele>1639.2</ele>
        <time>2024-08-10T11:05:24Z</time>
      </trkpt>
      <trkpt lat="45.04295" lon="6.33416">
        <ele>1639.2</ele>
        <time>2024-08-10T11:05:25Z</time>
      </trkpt>
      <trkpt lat="45.04296" lon="6.3342">
        <ele>1639.2</ele>
        <time>2024-08-10T11:05:26Z</time>
      </trkpt>
      <trkpt lat="45.04296" lon="6.3342">
        <ele>1639.4</ele>
        <time>2024-08-10T11:05:27Z</time>
      </trkpt>
      <trkpt lat="45.04297" lon="6.33424">
        <ele>1639.6</ele>
        <time>2024-08-10T11:05:28Z</time>
      </trkpt>
      <trkpt lat="45.04297" lon="6.33424">
        <ele>1639.6</ele>
        <time>2024-08-10T11:05:29Z</time>
      </trkpt>
      <trkpt lat="45.04297" lon="6.33428">
        <ele>1639.6</ele>
        <time>2024-08-10T11:05:30Z</time>
      </trkpt>
      <trkpt lat="45.04297" lon="6.33428">
        <ele>1639.8</ele>
        <time>2024-08-10T11:05:31Z</time>
      </trkpt>
      <trkpt lat="45.04297" lon="6.33433">
        <ele>1639.8</ele>
        <time>2024-08-10T11:05:32Z</time>
      </trkpt>
      <trkpt lat="45.04297" lon="6.33433">
        <ele>1639.8</ele>
        <time>2024-08-10T11:05:33Z</time>
      </trkpt>
      <trkpt lat="45.04297" lon="6.33437">
        <ele>1640</ele>
        <time>2024-08-10T11:05:34Z</time>
      </trkpt>
      <trkpt lat="45.04297" lon="6.33437">
        <ele>1640.2</ele>
        <time>2024-08-10T11:05:35Z</time>
      </trkpt>
      <trkpt lat="45.04297" lon="6.33441">
        <ele>1640.4</ele>
        <time>2024-08-10T11:05:36Z</time>
      </trkpt>
      <trkpt lat="45.04297" lon="6.33441">
        <ele>1640.4</ele>
        <time>2024-08-10T11:05:37Z</time>
      </trkpt>
      <trkpt lat="45.04297" lon="6.33445">
        <ele>1640.4</ele>
        <time>2024-08-10T11:05:38Z</time>
      </trkpt>
      <trkpt lat="45.04297" lon="6.33445">
        <ele>1640.4</ele>
        <time>2024-08-10T11:05:39Z</time>
      </trkpt>
      <trkpt lat="45.04297" lon="6.33449">
        <ele>1640.6</ele>
        <time>2024-08-10T11:05:40Z</time>
      </trkpt>
      <trkpt lat="45.04297" lon="6.33449">
        <ele>1640.6</ele>
        <time>2024-08-10T11:05:41Z</time>
      </trkpt>
      <trkpt lat="45.04298" lon="6.33452">
        <ele>1640.6</ele>
        <time>2024-08-10T11:05:42Z</time>
      </trkpt>
      <trkpt lat="45.04298" lon="6.33452">
        <ele>1640.6</ele>
        <time>2024-08-10T11:05:43Z</time>
      </trkpt>
      <trkpt lat="45.04299" lon="6.33456">
        <ele>1640.6</ele>
        <time>2024-08-10T11:05:44Z</time>
      </trkpt>
      <trkpt lat="45.04299" lon="6.33456">
        <ele>1640.6</ele>
        <time>2024-08-10T11:05:45Z</time>
      </trkpt>
      <trkpt lat="45.04299" lon="6.3346">
        <ele>1640.6</ele>
        <time>2024-08-10T11:05:46Z</time>
      </trkpt>
      <trkpt lat="45.04299" lon="6.3346">
        <ele>1640.6</ele>
        <time>2024-08-10T11:05:47Z</time>
      </trkpt>
      <trkpt lat="45.04298" lon="6.33463">
        <ele>1640.8</ele>
        <time>2024-08-10T11:05:48Z</time>
      </trkpt>
      <trkpt lat="45.04298" lon="6.33463">
        <ele>1640.8</ele>
        <time>2024-08-10T11:05:49Z</time>
      </trkpt>
      <trkpt lat="45.04298" lon="6.33467">
        <ele>1641</ele>
        <time>2024-08-10T11:05:50Z</time>
      </trkpt>
      <trkpt lat="45.04298" lon="6.33467">
        <ele>1641.4</ele>
        <time>2024-08-10T11:05:51Z</time>
      </trkpt>
      <trkpt lat="45.04297" lon="6.3347">
        <ele>1642</ele>
        <time>2024-08-10T11:05:52Z</time>
      </trkpt>
      <trkpt lat="45.04297" lon="6.3347">
        <ele>1642</ele>
        <time>2024-08-10T11:05:53Z</time>
      </trkpt>
      <trkpt lat="45.04295" lon="6.33474">
        <ele>1642</ele>
        <time>2024-08-10T11:05:54Z</time>
      </trkpt>
      <trkpt lat="45.04295" lon="6.33474">
        <ele>1642</ele>
        <time>2024-08-10T11:05:55Z</time>
      </trkpt>
      <trkpt lat="45.04294" lon="6.33477">
        <ele>1642.2</ele>
        <time>2024-08-10T11:05:56Z</time>
      </trkpt>
      <trkpt lat="45.04294" lon="6.33477">
        <ele>1642.2</ele>
        <time>2024-08-10T11:05:57Z</time>
      </trkpt>
      <trkpt lat="45.04293" lon="6.3348">
        <ele>1642.6</ele>
        <time>2024-08-10T11:05:58Z</time>
      </trkpt>
      <trkpt lat="45.04293" lon="6.3348">
        <ele>1642.6</ele>
        <time>2024-08-10T11:05:59Z</time>
      </trkpt>
      <trkpt lat="45.04291" lon="6.33483">
        <ele>1642.8</ele>
        <time>2024-08-10T11:06:00Z</time>
      </trkpt>
      <trkpt lat="45.04291" lon="6.33483">
        <ele>1642.8</ele>
        <time>2024-08-10T11:06:01Z</time>
      </trkpt>
      <trkpt lat="45.0429" lon="6.33485">
        <ele>1643</ele>
        <time>2024-08-10T11:06:02Z</time>
      </trkpt>
      <trkpt lat="45.0429" lon="6.33485">
        <ele>1643.2</ele>
        <time>2024-08-10T11:06:03Z</time>
      </trkpt>
      <trkpt lat="45.04287" lon="6.33488">
        <ele>1643.2</ele>
        <time>2024-08-10T11:06:04Z</time>
      </trkpt>
      <trkpt lat="45.04287" lon="6.33488">
        <ele>1643.6</ele>
        <time>2024-08-10T11:06:05Z</time>
      </trkpt>
      <trkpt lat="45.04285" lon="6.3349">
        <ele>1643.6</ele>
        <time>2024-08-10T11:06:06Z</time>
      </trkpt>
      <trkpt lat="45.04285" lon="6.3349">
        <ele>1643.8</ele>
        <time>2024-08-10T11:06:07Z</time>
      </trkpt>
      <trkpt lat="45.04283" lon="6.33491">
        <ele>1643.8</ele>
        <time>2024-08-10T11:06:08Z</time>
      </trkpt>
      <trkpt lat="45.04283" lon="6.33491">
        <ele>1644</ele>
        <time>2024-08-10T11:06:09Z</time>
      </trkpt>
      <trkpt lat="45.04281" lon="6.33493">
        <ele>1644</ele>
        <time>2024-08-10T11:06:10Z</time>
      </trkpt>
      <trkpt lat="45.04281" lon="6.33493">
        <ele>1644.2</ele>
        <time>2024-08-10T11:06:11Z</time>
      </trkpt>
      <trkpt lat="45.04279" lon="6.33496">
        <ele>1644.4</ele>
        <time>2024-08-10T11:06:12Z</time>
      </trkpt>
      <trkpt lat="45.04279" lon="6.33496">
        <ele>1644.4</ele>
        <time>2024-08-10T11:06:13Z</time>
      </trkpt>
      <trkpt lat="45.04276" lon="6.33498">
        <ele>1644.4</ele>
        <time>2024-08-10T11:06:14Z</time>
      </trkpt>
      <trkpt lat="45.04276" lon="6.33498">
        <ele>1644.4</ele>
        <time>2024-08-10T11:06:15Z</time>
      </trkpt>
      <trkpt lat="45.04274" lon="6.335">
        <ele>1644.6</ele>
        <time>2024-08-10T11:06:16Z</time>
      </trkpt>
      <trkpt lat="45.04274" lon="6.335">
        <ele>1644.8</ele>
        <time>2024-08-10T11:06:17Z</time>
      </trkpt>
      <trkpt lat="45.04272" lon="6.33502">
        <ele>1644.8</ele>
        <time>2024-08-10T11:06:18Z</time>
      </trkpt>
      <trkpt lat="45.04272" lon="6.33502">
        <ele>1645</ele>
        <time>2024-08-10T11:06:19Z</time>
      </trkpt>
      <trkpt lat="45.0427" lon="6.33504">
        <ele>1645</ele>
        <time>2024-08-10T11:06:20Z</time>
      </trkpt>
      <trkpt lat="45.0427" lon="6.33504">
        <ele>1645.4</ele>
        <time>2024-08-10T11:06:21Z</time>
      </trkpt>
      <trkpt lat="45.04268" lon="6.33507">
        <ele>1645.8</ele>
        <time>2024-08-10T11:06:22Z</time>
      </trkpt>
      <trkpt lat="45.04268" lon="6.33507">
        <ele>1645.8</ele>
        <time>2024-08-10T11:06:23Z</time>
      </trkpt>
      <trkpt lat="45.04266" lon="6.33509">
        <ele>1645.8</ele>
        <time>2024-08-10T11:06:24Z</time>
      </trkpt>
      <trkpt lat="45.04266" lon="6.33509">
        <ele>1646</ele>
        <time>2024-08-10T11:06:25Z</time>
      </trkpt>
      <trkpt lat="45.04264" lon="6.33511">
        <ele>1646.2</ele>
        <time>2024-08-10T11:06:26Z</time>
      </trkpt>
      <trkpt lat="45.04264" lon="6.33511">
        <ele>1646.2</ele>
        <time>2024-08-10T11:06:27Z</time>
      </trkpt>
      <trkpt lat="45.04262" lon="6.33513">
        <ele>1646.2</ele>
        <time>2024-08-10T11:06:28Z</time>
      </trkpt>
      <trkpt lat="45.04262" lon="6.33513">
        <ele>1646.2</ele>
        <time>2024-08-10T11:06:29Z</time>
      </trkpt>
      <trkpt lat="45.04261" lon="6.33516">
        <ele>1646.4</ele>
        <time>2024-08-10T11:06:30Z</time>
      </trkpt>
      <trkpt lat="45.04261" lon="6.33516">
        <ele>1646.6</ele>
        <time>2024-08-10T11:06:31Z</time>
      </trkpt>
      <trkpt lat="45.04261" lon="6.33519">
        <ele>1646.8</ele>
        <time>2024-08-10T11:06:32Z</time>
      </trkpt>
      <trkpt lat="45.04261" lon="6.33519">
        <ele>1646.8</ele>
        <time>2024-08-10T11:06:33Z</time>
      </trkpt>
      <trkpt lat="45.0426" lon="6.33523">
        <ele>1647</ele>
        <time>2024-08-10T11:06:34Z</time>
      </trkpt>
      <trkpt lat="45.0426" lon="6.33523">
        <ele>1647</ele>
        <time>2024-08-10T11:06:35Z</time>
      </trkpt>
      <trkpt lat="45.04259" lon="6.33526">
        <ele>1647.6</ele>
        <time>2024-08-10T11:06:36Z</time>
      </trkpt>
      <trkpt lat="45.04259" lon="6.33526">
        <ele>1647.8</ele>
        <time>2024-08-10T11:06:37Z</time>
      </trkpt>
      <trkpt lat="45.04258" lon="6.3353">
        <ele>1647.8</ele>
        <time>2024-08-10T11:06:38Z</time>
      </trkpt>
      <trkpt lat="45.04258" lon="6.3353">
        <ele>1647.8</ele>
        <time>2024-08-10T11:06:39Z</time>
      </trkpt>
      <trkpt lat="45.04258" lon="6.33533">
        <ele>1648</ele>
        <time>2024-08-10T11:06:40Z</time>
      </trkpt>
      <trkpt lat="45.04258" lon="6.33533">
        <ele>1648.2</ele>
        <time>2024-08-10T11:06:41Z</time>
      </trkpt>
      <trkpt lat="45.04258" lon="6.33536">
        <ele>1648.2</ele>
        <time>2024-08-10T11:06:42Z</time>
      </trkpt>
      <trkpt lat="45.04258" lon="6.33536">
        <ele>1648.2</ele>
        <time>2024-08-10T11:06:43Z</time>
      </trkpt>
      <trkpt lat="45.04257" lon="6.3354">
        <ele>1648.4</ele>
        <time>2024-08-10T11:06:44Z</time>
      </trkpt>
      <trkpt lat="45.04257" lon="6.3354">
        <ele>1648.6</ele>
        <time>2024-08-10T11:06:45Z</time>
      </trkpt>
      <trkpt lat="45.04256" lon="6.33543">
        <ele>1648.8</ele>
        <time>2024-08-10T11:06:46Z</time>
      </trkpt>
      <trkpt lat="45.04256" lon="6.33543">
        <ele>1648.8</ele>
        <time>2024-08-10T11:06:47Z</time>
      </trkpt>
      <trkpt lat="45.04255" lon="6.33547">
        <ele>1648.8</ele>
        <time>2024-08-10T11:06:48Z</time>
      </trkpt>
      <trkpt lat="45.04255" lon="6.33547">
        <ele>1648.8</ele>
        <time>2024-08-10T11:06:49Z</time>
      </trkpt>
      <trkpt lat="45.04254" lon="6.33551">
        <ele>1649.2</ele>
        <time>2024-08-10T11:06:50Z</time>
      </trkpt>
      <trkpt lat="45.04254" lon="6.33551">
        <ele>1649.2</ele>
        <time>2024-08-10T11:06:51Z</time>
      </trkpt>
      <trkpt lat="45.04254" lon="6.33555">
        <ele>1649</ele>
        <time>2024-08-10T11:06:52Z</time>
      </trkpt>
      <trkpt lat="45.04254" lon="6.33555">
        <ele>1649</ele>
        <time>2024-08-10T11:06:53Z</time>
      </trkpt>
      <trkpt lat="45.04252" lon="6.33559">
        <ele>1649</ele>
        <time>2024-08-10T11:06:54Z</time>
      </trkpt>
      <trkpt lat="45.04252" lon="6.33559">
        <ele>1649.4</ele>
        <time>2024-08-10T11:06:55Z</time>
      </trkpt>
      <trkpt lat="45.0425" lon="6.33562">
        <ele>1649.4</ele>
        <time>2024-08-10T11:06:56Z</time>
      </trkpt>
      <trkpt lat="45.0425" lon="6.33562">
        <ele>1649.2</ele>
        <time>2024-08-10T11:06:57Z</time>
      </trkpt>
      <trkpt lat="45.04248" lon="6.33564">
        <ele>1649.2</ele>
        <time>2024-08-10T11:06:58Z</time>
      </trkpt>
      <trkpt lat="45.04248" lon="6.33564">
        <ele>1649.2</ele>
        <time>2024-08-10T11:06:59Z</time>
      </trkpt>
      <trkpt lat="45.04245" lon="6.33565">
        <ele>1649.4</ele>
        <time>2024-08-10T11:07:00Z</time>
      </trkpt>
      <trkpt lat="45.04245" lon="6.33565">
        <ele>1649.4</ele>
        <time>2024-08-10T11:07:01Z</time>
      </trkpt>
      <trkpt lat="45.04243" lon="6.33567">
        <ele>1649.4</ele>
        <time>2024-08-10T11:07:02Z</time>
      </trkpt>
      <trkpt lat="45.04243" lon="6.33567">
        <ele>1649.4</ele>
        <time>2024-08-10T11:07:03Z</time>
      </trkpt>
      <trkpt lat="45.04241" lon="6.33571">
        <ele>1649.4</ele>
        <time>2024-08-10T11:07:04Z</time>
      </trkpt>
      <trkpt lat="45.04241" lon="6.33571">
        <ele>1649.6</ele>
        <time>2024-08-10T11:07:05Z</time>
      </trkpt>
      <trkpt lat="45.0424" lon="6.33574">
        <ele>1649.6</ele>
        <time>2024-08-10T11:07:06Z</time>
      </trkpt>
      <trkpt lat="45.0424" lon="6.33574">
        <ele>1649.6</ele>
        <time>2024-08-10T11:07:07Z</time>
      </trkpt>
      <trkpt lat="45.04238" lon="6.33577">
        <ele>1649.6</ele>
        <time>2024-08-10T11:07:08Z</time>
      </trkpt>
      <trkpt lat="45.04238" lon="6.33577">
        <ele>1649.6</ele>
        <time>2024-08-10T11:07:09Z</time>
      </trkpt>
      <trkpt lat="45.04237" lon="6.3358">
        <ele>1649.6</ele>
        <time>2024-08-10T11:07:10Z</time>
      </trkpt>
      <trkpt lat="45.04237" lon="6.3358">
        <ele>1649.6</ele>
        <time>2024-08-10T11:07:11Z</time>
      </trkpt>
      <trkpt lat="45.04236" lon="6.33583">
        <ele>1649.6</ele>
        <time>2024-08-10T11:07:12Z</time>
      </trkpt>
      <trkpt lat="45.04236" lon="6.33583">
        <ele>1649.2</ele>
        <time>2024-08-10T11:07:13Z</time>
      </trkpt>
      <trkpt lat="45.04234" lon="6.33586">
        <ele>1649.2</ele>
        <time>2024-08-10T11:07:14Z</time>
      </trkpt>
      <trkpt lat="45.04234" lon="6.33586">
        <ele>1649.2</ele>
        <time>2024-08-10T11:07:15Z</time>
      </trkpt>
      <trkpt lat="45.04232" lon="6.3359">
        <ele>1649.4</ele>
        <time>2024-08-10T11:07:16Z</time>
      </trkpt>
      <trkpt lat="45.04232" lon="6.3359">
        <ele>1649.6</ele>
        <time>2024-08-10T11:07:17Z</time>
      </trkpt>
      <trkpt lat="45.04231" lon="6.33593">
        <ele>1649.6</ele>
        <time>2024-08-10T11:07:18Z</time>
      </trkpt>
      <trkpt lat="45.04231" lon="6.33593">
        <ele>1649.6</ele>
        <time>2024-08-10T11:07:19Z</time>
      </trkpt>
      <trkpt lat="45.0423" lon="6.33596">
        <ele>1649.8</ele>
        <time>2024-08-10T11:07:20Z</time>
      </trkpt>
      <trkpt lat="45.0423" lon="6.33596">
        <ele>1649.8</ele>
        <time>2024-08-10T11:07:21Z</time>
      </trkpt>
      <trkpt lat="45.04228" lon="6.33598">
        <ele>1649.8</ele>
        <time>2024-08-10T11:07:22Z</time>
      </trkpt>
      <trkpt lat="45.04228" lon="6.33598">
        <ele>1649.8</ele>
        <time>2024-08-10T11:07:23Z</time>
      </trkpt>
      <trkpt lat="45.04225" lon="6.336">
        <ele>1649.6</ele>
        <time>2024-08-10T11:07:24Z</time>
      </trkpt>
      <trkpt lat="45.04225" lon="6.336">
        <ele>1649.4</ele>
        <time>2024-08-10T11:07:25Z</time>
      </trkpt>
      <trkpt lat="45.04222" lon="6.336">
        <ele>1649.2</ele>
        <time>2024-08-10T11:07:26Z</time>
      </trkpt>
      <trkpt lat="45.04222" lon="6.336">
        <ele>1649.2</ele>
        <time>2024-08-10T11:07:27Z</time>
      </trkpt>
      <trkpt lat="45.0422" lon="6.33602">
        <ele>1649.4</ele>
        <time>2024-08-10T11:07:28Z</time>
      </trkpt>
      <trkpt lat="45.0422" lon="6.33602">
        <ele>1649.4</ele>
        <time>2024-08-10T11:07:29Z</time>
      </trkpt>
      <trkpt lat="45.04218" lon="6.33602">
        <ele>1649</ele>
        <time>2024-08-10T11:07:30Z</time>
      </trkpt>
      <trkpt lat="45.04218" lon="6.33602">
        <ele>1649</ele>
        <time>2024-08-10T11:07:31Z</time>
      </trkpt>
      <trkpt lat="45.04218" lon="6.33602">
        <ele>1648.8</ele>
        <time>2024-08-10T11:07:32Z</time>
      </trkpt>
      <trkpt lat="45.04215" lon="6.33602">
        <ele>1648.8</ele>
        <time>2024-08-10T11:07:33Z</time>
      </trkpt>
      <trkpt lat="45.04215" lon="6.33602">
        <ele>1648.6</ele>
        <time>2024-08-10T11:07:34Z</time>
      </trkpt>
      <trkpt lat="45.04215" lon="6.33602">
        <ele>1648.6</ele>
        <time>2024-08-10T11:07:35Z</time>
      </trkpt>
      <trkpt lat="45.04215" lon="6.33602">
        <ele>1649</ele>
        <time>2024-08-10T11:07:36Z</time>
      </trkpt>
      <trkpt lat="45.04215" lon="6.33602">
        <ele>1649</ele>
        <time>2024-08-10T11:07:37Z</time>
      </trkpt>
      <trkpt lat="45.04215" lon="6.33604">
        <ele>1649.2</ele>
        <time>2024-08-10T11:07:38Z</time>
      </trkpt>
      <trkpt lat="45.04215" lon="6.33604">
        <ele>1649.4</ele>
        <time>2024-08-10T11:07:39Z</time>
      </trkpt>
      <trkpt lat="45.04215" lon="6.33604">
        <ele>1649.4</ele>
        <time>2024-08-10T11:07:40Z</time>
      </trkpt>
      <trkpt lat="45.04215" lon="6.33604">
        <ele>1649.6</ele>
        <time>2024-08-10T11:07:41Z</time>
      </trkpt>
      <trkpt lat="45.04213" lon="6.33606">
        <ele>1649.6</ele>
        <time>2024-08-10T11:07:42Z</time>
      </trkpt>
      <trkpt lat="45.04213" lon="6.33606">
        <ele>1649.6</ele>
        <time>2024-08-10T11:07:43Z</time>
      </trkpt>
      <trkpt lat="45.0421" lon="6.33605">
        <ele>1649.6</ele>
        <time>2024-08-10T11:07:44Z</time>
      </trkpt>
      <trkpt lat="45.0421" lon="6.33605">
        <ele>1649.6</ele>
        <time>2024-08-10T11:07:45Z</time>
      </trkpt>
      <trkpt lat="45.04207" lon="6.33605">
        <ele>1649.6</ele>
        <time>2024-08-10T11:07:46Z</time>
      </trkpt>
      <trkpt lat="45.04205" lon="6.33605">
        <ele>1649.4</ele>
        <time>2024-08-10T11:07:47Z</time>
      </trkpt>
      <trkpt lat="45.04205" lon="6.33605">
        <ele>1649.2</ele>
        <time>2024-08-10T11:07:48Z</time>
      </trkpt>
      <trkpt lat="45.04203" lon="6.33604">
        <ele>1649.2</ele>
        <time>2024-08-10T11:07:49Z</time>
      </trkpt>
      <trkpt lat="45.04203" lon="6.33604">
        <ele>1649.2</ele>
        <time>2024-08-10T11:07:50Z</time>
      </trkpt>
      <trkpt lat="45.042" lon="6.33603">
        <ele>1649.2</ele>
        <time>2024-08-10T11:07:51Z</time>
      </trkpt>
      <trkpt lat="45.042" lon="6.33603">
        <ele>1649</ele>
        <time>2024-08-10T11:07:52Z</time>
      </trkpt>
      <trkpt lat="45.04198" lon="6.33601">
        <ele>1649</ele>
        <time>2024-08-10T11:07:53Z</time>
      </trkpt>
      <trkpt lat="45.04198" lon="6.33601">
        <ele>1649</ele>
        <time>2024-08-10T11:07:54Z</time>
      </trkpt>
      <trkpt lat="45.04196" lon="6.33598">
        <ele>1648.8</ele>
        <time>2024-08-10T11:07:55Z</time>
      </trkpt>
      <trkpt lat="45.04196" lon="6.33598">
        <ele>1648.8</ele>
        <time>2024-08-10T11:07:56Z</time>
      </trkpt>
      <trkpt lat="45.04194" lon="6.33594">
        <ele>1648.6</ele>
        <time>2024-08-10T11:07:57Z</time>
      </trkpt>
      <trkpt lat="45.04194" lon="6.33594">
        <ele>1648.6</ele>
        <time>2024-08-10T11:07:58Z</time>
      </trkpt>
      <trkpt lat="45.04193" lon="6.3359">
        <ele>1648.6</ele>
        <time>2024-08-10T11:07:59Z</time>
      </trkpt>
      <trkpt lat="45.04193" lon="6.3359">
        <ele>1648.4</ele>
        <time>2024-08-10T11:08:00Z</time>
      </trkpt>
      <trkpt lat="45.04193" lon="6.33585">
        <ele>1648.4</ele>
        <time>2024-08-10T11:08:01Z</time>
      </trkpt>
      <trkpt lat="45.04193" lon="6.33585">
        <ele>1648.6</ele>
        <time>2024-08-10T11:08:02Z</time>
      </trkpt>
      <trkpt lat="45.04192" lon="6.33581">
        <ele>1648.6</ele>
        <time>2024-08-10T11:08:03Z</time>
      </trkpt>
      <trkpt lat="45.04192" lon="6.33581">
        <ele>1648.6</ele>
        <time>2024-08-10T11:08:04Z</time>
      </trkpt>
      <trkpt lat="45.04191" lon="6.33577">
        <ele>1648.6</ele>
        <time>2024-08-10T11:08:05Z</time>
      </trkpt>
      <trkpt lat="45.04191" lon="6.33577">
        <ele>1648.4</ele>
        <time>2024-08-10T11:08:06Z</time>
      </trkpt>
      <trkpt lat="45.04189" lon="6.33573">
        <ele>1648.2</ele>
        <time>2024-08-10T11:08:07Z</time>
      </trkpt>
      <trkpt lat="45.04189" lon="6.33573">
        <ele>1648</ele>
        <time>2024-08-10T11:08:08Z</time>
      </trkpt>
      <trkpt lat="45.04189" lon="6.33569">
        <ele>1647.6</ele>
        <time>2024-08-10T11:08:09Z</time>
      </trkpt>
      <trkpt lat="45.04189" lon="6.33569">
        <ele>1647.2</ele>
        <time>2024-08-10T11:08:10Z</time>
      </trkpt>
      <trkpt lat="45.04189" lon="6.33564">
        <ele>1647.2</ele>
        <time>2024-08-10T11:08:11Z</time>
      </trkpt>
      <trkpt lat="45.04189" lon="6.33564">
        <ele>1647</ele>
        <time>2024-08-10T11:08:12Z</time>
      </trkpt>
      <trkpt lat="45.04188" lon="6.3356">
        <ele>1646.8</ele>
        <time>2024-08-10T11:08:13Z</time>
      </trkpt>
      <trkpt lat="45.04188" lon="6.3356">
        <ele>1646.8</ele>
        <time>2024-08-10T11:08:14Z</time>
      </trkpt>
      <trkpt lat="45.04188" lon="6.33556">
        <ele>1646.6</ele>
        <time>2024-08-10T11:08:15Z</time>
      </trkpt>
      <trkpt lat="45.04188" lon="6.33556">
        <ele>1646.4</ele>
        <time>2024-08-10T11:08:16Z</time>
      </trkpt>
      <trkpt lat="45.04188" lon="6.33553">
        <ele>1646.4</ele>
        <time>2024-08-10T11:08:17Z</time>
      </trkpt>
      <trkpt lat="45.04188" lon="6.33553">
        <ele>1646.2</ele>
        <time>2024-08-10T11:08:18Z</time>
      </trkpt>
      <trkpt lat="45.04188" lon="6.33549">
        <ele>1646.2</ele>
        <time>2024-08-10T11:08:19Z</time>
      </trkpt>
      <trkpt lat="45.04188" lon="6.33549">
        <ele>1646</ele>
        <time>2024-08-10T11:08:20Z</time>
      </trkpt>
      <trkpt lat="45.04187" lon="6.33546">
        <ele>1645.8</ele>
        <time>2024-08-10T11:08:21Z</time>
      </trkpt>
      <trkpt lat="45.04187" lon="6.33546">
        <ele>1645.6</ele>
        <time>2024-08-10T11:08:22Z</time>
      </trkpt>
      <trkpt lat="45.04187" lon="6.33546">
        <ele>1645.6</ele>
        <time>2024-08-10T11:08:23Z</time>
      </trkpt>
      <trkpt lat="45.04187" lon="6.33546">
        <ele>1645.6</ele>
        <time>2024-08-10T11:08:24Z</time>
      </trkpt>
      <trkpt lat="45.04187" lon="6.33546">
        <ele>1645.4</ele>
        <time>2024-08-10T11:08:25Z</time>
      </trkpt>
      <trkpt lat="45.04185" lon="6.33545">
        <ele>1645.6</ele>
        <time>2024-08-10T11:08:26Z</time>
      </trkpt>
      <trkpt lat="45.04185" lon="6.33545">
        <ele>1645.8</ele>
        <time>2024-08-10T11:08:27Z</time>
      </trkpt>
      <trkpt lat="45.04185" lon="6.33545">
        <ele>1645.8</ele>
        <time>2024-08-10T11:08:28Z</time>
      </trkpt>
      <trkpt lat="45.04185" lon="6.33542">
        <ele>1645.4</ele>
        <time>2024-08-10T11:08:29Z</time>
      </trkpt>
      <trkpt lat="45.04185" lon="6.33542">
        <ele>1645.4</ele>
        <time>2024-08-10T11:08:30Z</time>
      </trkpt>
      <trkpt lat="45.04183" lon="6.33539">
        <ele>1645.4</ele>
        <time>2024-08-10T11:08:31Z</time>
      </trkpt>
      <trkpt lat="45.04183" lon="6.33539">
        <ele>1645.4</ele>
        <time>2024-08-10T11:08:32Z</time>
      </trkpt>
      <trkpt lat="45.04181" lon="6.33538">
        <ele>1645.2</ele>
        <time>2024-08-10T11:08:33Z</time>
      </trkpt>
      <trkpt lat="45.04181" lon="6.33538">
        <ele>1644.6</ele>
        <time>2024-08-10T11:08:34Z</time>
      </trkpt>
      <trkpt lat="45.0418" lon="6.33536">
        <ele>1644.6</ele>
        <time>2024-08-10T11:08:35Z</time>
      </trkpt>
      <trkpt lat="45.0418" lon="6.33536">
        <ele>1644.6</ele>
        <time>2024-08-10T11:08:36Z</time>
      </trkpt>
      <trkpt lat="45.04179" lon="6.33533">
        <ele>1644.4</ele>
        <time>2024-08-10T11:08:37Z</time>
      </trkpt>
      <trkpt lat="45.04179" lon="6.33533">
        <ele>1644.2</ele>
        <time>2024-08-10T11:08:38Z</time>
      </trkpt>
      <trkpt lat="45.04179" lon="6.3353">
        <ele>1643.6</ele>
        <time>2024-08-10T11:08:39Z</time>
      </trkpt>
      <trkpt lat="45.04179" lon="6.3353">
        <ele>1643.2</ele>
        <time>2024-08-10T11:08:40Z</time>
      </trkpt>
      <trkpt lat="45.04179" lon="6.33527">
        <ele>1643</ele>
        <time>2024-08-10T11:08:41Z</time>
      </trkpt>
      <trkpt lat="45.04179" lon="6.33527">
        <ele>1642.8</ele>
        <time>2024-08-10T11:08:42Z</time>
      </trkpt>
      <trkpt lat="45.04178" lon="6.33524">
        <ele>1642.4</ele>
        <time>2024-08-10T11:08:43Z</time>
      </trkpt>
      <trkpt lat="45.04178" lon="6.33524">
        <ele>1642</ele>
        <time>2024-08-10T11:08:44Z</time>
      </trkpt>
      <trkpt lat="45.04178" lon="6.33521">
        <ele>1641.8</ele>
        <time>2024-08-10T11:08:45Z</time>
      </trkpt>
      <trkpt lat="45.04178" lon="6.33521">
        <ele>1641.4</ele>
        <time>2024-08-10T11:08:46Z</time>
      </trkpt>
      <trkpt lat="45.04177" lon="6.33517">
        <ele>1641</ele>
        <time>2024-08-10T11:08:47Z</time>
      </trkpt>
      <trkpt lat="45.04177" lon="6.33517">
        <ele>1640.8</ele>
        <time>2024-08-10T11:08:48Z</time>
      </trkpt>
      <trkpt lat="45.04177" lon="6.33514">
        <ele>1640.4</ele>
        <time>2024-08-10T11:08:49Z</time>
      </trkpt>
      <trkpt lat="45.04177" lon="6.33514">
        <ele>1640.2</ele>
        <time>2024-08-10T11:08:50Z</time>
      </trkpt>
      <trkpt lat="45.04177" lon="6.33511">
        <ele>1639.8</ele>
        <time>2024-08-10T11:08:51Z</time>
      </trkpt>
      <trkpt lat="45.04177" lon="6.33511">
        <ele>1639.8</ele>
        <time>2024-08-10T11:08:52Z</time>
      </trkpt>
      <trkpt lat="45.04177" lon="6.33509">
        <ele>1639.4</ele>
        <time>2024-08-10T11:08:53Z</time>
      </trkpt>
      <trkpt lat="45.04177" lon="6.33509">
        <ele>1638.8</ele>
        <time>2024-08-10T11:08:54Z</time>
      </trkpt>
      <trkpt lat="45.04177" lon="6.33509">
        <ele>1638.6</ele>
        <time>2024-08-10T11:08:55Z</time>
      </trkpt>
      <trkpt lat="45.04175" lon="6.33506">
        <ele>1638</ele>
        <time>2024-08-10T11:08:56Z</time>
      </trkpt>
      <trkpt lat="45.04175" lon="6.33506">
        <ele>1637.6</ele>
        <time>2024-08-10T11:08:57Z</time>
      </trkpt>
      <trkpt lat="45.04175" lon="6.33506">
        <ele>1637.6</ele>
        <time>2024-08-10T11:08:58Z</time>
      </trkpt>
      <trkpt lat="45.04175" lon="6.33506">
        <ele>1637.4</ele>
        <time>2024-08-10T11:08:59Z</time>
      </trkpt>
      <trkpt lat="45.04175" lon="6.33506">
        <ele>1637</ele>
        <time>2024-08-10T11:09:00Z</time>
      </trkpt>
      <trkpt lat="45.04175" lon="6.33506">
        <ele>1636.8</ele>
        <time>2024-08-10T11:09:01Z</time>
      </trkpt>
      <trkpt lat="45.04173" lon="6.33507">
        <ele>1637</ele>
        <time>2024-08-10T11:09:02Z</time>
      </trkpt>
      <trkpt lat="45.04173" lon="6.33507">
        <ele>1637</ele>
        <time>2024-08-10T11:09:03Z</time>
      </trkpt>
      <trkpt lat="45.04172" lon="6.3351">
        <ele>1637</ele>
        <time>2024-08-10T11:09:04Z</time>
      </trkpt>
      <trkpt lat="45.04172" lon="6.3351">
        <ele>1637</ele>
        <time>2024-08-10T11:09:05Z</time>
      </trkpt>
      <trkpt lat="45.04171" lon="6.33513">
        <ele>1636.8</ele>
        <time>2024-08-10T11:09:06Z</time>
      </trkpt>
      <trkpt lat="45.04171" lon="6.33513">
        <ele>1636.8</ele>
        <time>2024-08-10T11:09:07Z</time>
      </trkpt>
      <trkpt lat="45.0417" lon="6.33516">
        <ele>1636.4</ele>
        <time>2024-08-10T11:09:08Z</time>
      </trkpt>
      <trkpt lat="45.0417" lon="6.33516">
        <ele>1636.4</ele>
        <time>2024-08-10T11:09:09Z</time>
      </trkpt>
      <trkpt lat="45.04169" lon="6.3352">
        <ele>1636.2</ele>
        <time>2024-08-10T11:09:10Z</time>
      </trkpt>
      <trkpt lat="45.04169" lon="6.3352">
        <ele>1636</ele>
        <time>2024-08-10T11:09:11Z</time>
      </trkpt>
      <trkpt lat="45.04168" lon="6.33523">
        <ele>1635.6</ele>
        <time>2024-08-10T11:09:12Z</time>
      </trkpt>
      <trkpt lat="45.04168" lon="6.33523">
        <ele>1635.4</ele>
        <time>2024-08-10T11:09:13Z</time>
      </trkpt>
      <trkpt lat="45.04167" lon="6.33527">
        <ele>1635.2</ele>
        <time>2024-08-10T11:09:14Z</time>
      </trkpt>
      <trkpt lat="45.04167" lon="6.33527">
        <ele>1634.8</ele>
        <time>2024-08-10T11:09:15Z</time>
      </trkpt>
      <trkpt lat="45.04166" lon="6.33531">
        <ele>1634.8</ele>
        <time>2024-08-10T11:09:16Z</time>
      </trkpt>
      <trkpt lat="45.04166" lon="6.33531">
        <ele>1634.4</ele>
        <time>2024-08-10T11:09:17Z</time>
      </trkpt>
      <trkpt lat="45.04165" lon="6.33534">
        <ele>1634</ele>
        <time>2024-08-10T11:09:18Z</time>
      </trkpt>
      <trkpt lat="45.04165" lon="6.33534">
        <ele>1633.8</ele>
        <time>2024-08-10T11:09:19Z</time>
      </trkpt>
      <trkpt lat="45.04165" lon="6.33536">
        <ele>1633.4</ele>
        <time>2024-08-10T11:09:20Z</time>
      </trkpt>
      <trkpt lat="45.04165" lon="6.33536">
        <ele>1633.2</ele>
        <time>2024-08-10T11:09:21Z</time>
      </trkpt>
      <trkpt lat="45.04164" lon="6.33539">
        <ele>1632.8</ele>
        <time>2024-08-10T11:09:22Z</time>
      </trkpt>
      <trkpt lat="45.04164" lon="6.33539">
        <ele>1632.2</ele>
        <time>2024-08-10T11:09:23Z</time>
      </trkpt>
      <trkpt lat="45.04162" lon="6.33542">
        <ele>1632</ele>
        <time>2024-08-10T11:09:24Z</time>
      </trkpt>
      <trkpt lat="45.04162" lon="6.33542">
        <ele>1631.8</ele>
        <time>2024-08-10T11:09:25Z</time>
      </trkpt>
      <trkpt lat="45.04161" lon="6.33544">
        <ele>1631.4</ele>
        <time>2024-08-10T11:09:26Z</time>
      </trkpt>
      <trkpt lat="45.04161" lon="6.33544">
        <ele>1630.6</ele>
        <time>2024-08-10T11:09:27Z</time>
      </trkpt>
      <trkpt lat="45.04161" lon="6.33544">
        <ele>1630.2</ele>
        <time>2024-08-10T11:09:28Z</time>
      </trkpt>
      <trkpt lat="45.0416" lon="6.33547">
        <ele>1630</ele>
        <time>2024-08-10T11:09:29Z</time>
      </trkpt>
      <trkpt lat="45.0416" lon="6.33547">
        <ele>1629.4</ele>
        <time>2024-08-10T11:09:30Z</time>
      </trkpt>
      <trkpt lat="45.04158" lon="6.3355">
        <ele>1629.2</ele>
        <time>2024-08-10T11:09:31Z</time>
      </trkpt>
      <trkpt lat="45.04158" lon="6.3355">
        <ele>1629</ele>
        <time>2024-08-10T11:09:32Z</time>
      </trkpt>
      <trkpt lat="45.04157" lon="6.33553">
        <ele>1628.6</ele>
        <time>2024-08-10T11:09:33Z</time>
      </trkpt>
      <trkpt lat="45.04157" lon="6.33553">
        <ele>1628.4</ele>
        <time>2024-08-10T11:09:34Z</time>
      </trkpt>
      <trkpt lat="45.04155" lon="6.33555">
        <ele>1628.2</ele>
        <time>2024-08-10T11:09:35Z</time>
      </trkpt>
      <trkpt lat="45.04155" lon="6.33555">
        <ele>1627.6</ele>
        <time>2024-08-10T11:09:36Z</time>
      </trkpt>
      <trkpt lat="45.04153" lon="6.33556">
        <ele>1627.4</ele>
        <time>2024-08-10T11:09:37Z</time>
      </trkpt>
      <trkpt lat="45.04153" lon="6.33556">
        <ele>1626.8</ele>
        <time>2024-08-10T11:09:38Z</time>
      </trkpt>
      <trkpt lat="45.04151" lon="6.33555">
        <ele>1626.8</ele>
        <time>2024-08-10T11:09:39Z</time>
      </trkpt>
      <trkpt lat="45.04151" lon="6.33555">
        <ele>1626.4</ele>
        <time>2024-08-10T11:09:40Z</time>
      </trkpt>
      <trkpt lat="45.0415" lon="6.33552">
        <ele>1626.2</ele>
        <time>2024-08-10T11:09:41Z</time>
      </trkpt>
      <trkpt lat="45.0415" lon="6.33552">
        <ele>1625.8</ele>
        <time>2024-08-10T11:09:42Z</time>
      </trkpt>
      <trkpt lat="45.04148" lon="6.33549">
        <ele>1625.4</ele>
        <time>2024-08-10T11:09:43Z</time>
      </trkpt>
      <trkpt lat="45.04148" lon="6.33549">
        <ele>1624.8</ele>
        <time>2024-08-10T11:09:44Z</time>
      </trkpt>
      <trkpt lat="45.04146" lon="6.33547">
        <ele>1624.4</ele>
        <time>2024-08-10T11:09:45Z</time>
      </trkpt>
      <trkpt lat="45.04146" lon="6.33547">
        <ele>1623.8</ele>
        <time>2024-08-10T11:09:46Z</time>
      </trkpt>
      <trkpt lat="45.04145" lon="6.33545">
        <ele>1623.4</ele>
        <time>2024-08-10T11:09:47Z</time>
      </trkpt>
      <trkpt lat="45.04145" lon="6.33545">
        <ele>1623.2</ele>
        <time>2024-08-10T11:09:48Z</time>
      </trkpt>
      <trkpt lat="45.04142" lon="6.33544">
        <ele>1623</ele>
        <time>2024-08-10T11:09:49Z</time>
      </trkpt>
      <trkpt lat="45.04142" lon="6.33544">
        <ele>1622.8</ele>
        <time>2024-08-10T11:09:50Z</time>
      </trkpt>
      <trkpt lat="45.04141" lon="6.33544">
        <ele>1622.4</ele>
        <time>2024-08-10T11:09:51Z</time>
      </trkpt>
      <trkpt lat="45.04141" lon="6.33544">
        <ele>1622</ele>
        <time>2024-08-10T11:09:52Z</time>
      </trkpt>
      <trkpt lat="45.04138" lon="6.33543">
        <ele>1622</ele>
        <time>2024-08-10T11:09:53Z</time>
      </trkpt>
      <trkpt lat="45.04138" lon="6.33543">
        <ele>1621.8</ele>
        <time>2024-08-10T11:09:54Z</time>
      </trkpt>
      <trkpt lat="45.04137" lon="6.33541">
        <ele>1622</ele>
        <time>2024-08-10T11:09:55Z</time>
      </trkpt>
      <trkpt lat="45.04137" lon="6.33541">
        <ele>1622</ele>
        <time>2024-08-10T11:09:56Z</time>
      </trkpt>
      <trkpt lat="45.04135" lon="6.33539">
        <ele>1621.8</ele>
        <time>2024-08-10T11:09:57Z</time>
      </trkpt>
      <trkpt lat="45.04135" lon="6.33539">
        <ele>1621.8</ele>
        <time>2024-08-10T11:09:58Z</time>
      </trkpt>
      <trkpt lat="45.04134" lon="6.33536">
        <ele>1621.8</ele>
        <time>2024-08-10T11:09:59Z</time>
      </trkpt>
      <trkpt lat="45.04134" lon="6.33536">
        <ele>1621.8</ele>
        <time>2024-08-10T11:10:00Z</time>
      </trkpt>
      <trkpt lat="45.04133" lon="6.33533">
        <ele>1622</ele>
        <time>2024-08-10T11:10:01Z</time>
      </trkpt>
      <trkpt lat="45.04133" lon="6.33533">
        <ele>1622</ele>
        <time>2024-08-10T11:10:02Z</time>
      </trkpt>
      <trkpt lat="45.04132" lon="6.3353">
        <ele>1622.4</ele>
        <time>2024-08-10T11:10:03Z</time>
      </trkpt>
      <trkpt lat="45.04132" lon="6.3353">
        <ele>1622.4</ele>
        <time>2024-08-10T11:10:04Z</time>
      </trkpt>
      <trkpt lat="45.04131" lon="6.33527">
        <ele>1622.4</ele>
        <time>2024-08-10T11:10:05Z</time>
      </trkpt>
      <trkpt lat="45.04131" lon="6.33527">
        <ele>1622.8</ele>
        <time>2024-08-10T11:10:06Z</time>
      </trkpt>
      <trkpt lat="45.04131" lon="6.33527">
        <ele>1623</ele>
        <time>2024-08-10T11:10:07Z</time>
      </trkpt>
      <trkpt lat="45.04129" lon="6.33525">
        <ele>1623.2</ele>
        <time>2024-08-10T11:10:08Z</time>
      </trkpt>
      <trkpt lat="45.04129" lon="6.33525">
        <ele>1623.4</ele>
        <time>2024-08-10T11:10:09Z</time>
      </trkpt>
      <trkpt lat="45.04129" lon="6.33525">
        <ele>1623.6</ele>
        <time>2024-08-10T11:10:10Z</time>
      </trkpt>
      <trkpt lat="45.04129" lon="6.33525">
        <ele>1623.8</ele>
        <time>2024-08-10T11:10:11Z</time>
      </trkpt>
      <trkpt lat="45.04129" lon="6.33523">
        <ele>1624.2</ele>
        <time>2024-08-10T11:10:12Z</time>
      </trkpt>
      <trkpt lat="45.04129" lon="6.33523">
        <ele>1624.4</ele>
        <time>2024-08-10T11:10:13Z</time>
      </trkpt>
      <trkpt lat="45.04129" lon="6.33523">
        <ele>1624.4</ele>
        <time>2024-08-10T11:10:14Z</time>
      </trkpt>
      <trkpt lat="45.04129" lon="6.33519">
        <ele>1624.4</ele>
        <time>2024-08-10T11:10:15Z</time>
      </trkpt>
      <trkpt lat="45.04129" lon="6.33519">
        <ele>1624.4</ele>
        <time>2024-08-10T11:10:16Z</time>
      </trkpt>
      <trkpt lat="45.04127" lon="6.33517">
        <ele>1624.4</ele>
        <time>2024-08-10T11:10:17Z</time>
      </trkpt>
      <trkpt lat="45.04127" lon="6.33517">
        <ele>1624.6</ele>
        <time>2024-08-10T11:10:18Z</time>
      </trkpt>
      <trkpt lat="45.04127" lon="6.33517">
        <ele>1624.6</ele>
        <time>2024-08-10T11:10:19Z</time>
      </trkpt>
      <trkpt lat="45.04127" lon="6.33517">
        <ele>1625</ele>
        <time>2024-08-10T11:10:20Z</time>
      </trkpt>
      <trkpt lat="45.04127" lon="6.33517">
        <ele>1625.4</ele>
        <time>2024-08-10T11:10:21Z</time>
      </trkpt>
      <trkpt lat="45.04127" lon="6.33517">
        <ele>1626</ele>
        <time>2024-08-10T11:10:22Z</time>
      </trkpt>
      <trkpt lat="45.04125" lon="6.33515">
        <ele>1626</ele>
        <time>2024-08-10T11:10:23Z</time>
      </trkpt>
      <trkpt lat="45.04125" lon="6.33515">
        <ele>1626.4</ele>
        <time>2024-08-10T11:10:24Z</time>
      </trkpt>
      <trkpt lat="45.04123" lon="6.33513">
        <ele>1626.4</ele>
        <time>2024-08-10T11:10:25Z</time>
      </trkpt>
      <trkpt lat="45.04123" lon="6.33513">
        <ele>1626.4</ele>
        <time>2024-08-10T11:10:26Z</time>
      </trkpt>
      <trkpt lat="45.04121" lon="6.33511">
        <ele>1626.4</ele>
        <time>2024-08-10T11:10:27Z</time>
      </trkpt>
      <trkpt lat="45.04121" lon="6.33511">
        <ele>1626.6</ele>
        <time>2024-08-10T11:10:28Z</time>
      </trkpt>
      <trkpt lat="45.04121" lon="6.33511">
        <ele>1626.6</ele>
        <time>2024-08-10T11:10:29Z</time>
      </trkpt>
      <trkpt lat="45.04119" lon="6.3351">
        <ele>1626.8</ele>
        <time>2024-08-10T11:10:30Z</time>
      </trkpt>
      <trkpt lat="45.04119" lon="6.3351">
        <ele>1626.8</ele>
        <time>2024-08-10T11:10:31Z</time>
      </trkpt>
      <trkpt lat="45.04119" lon="6.3351">
        <ele>1627</ele>
        <time>2024-08-10T11:10:32Z</time>
      </trkpt>
      <trkpt lat="45.04119" lon="6.3351">
        <ele>1627</ele>
        <time>2024-08-10T11:10:33Z</time>
      </trkpt>
      <trkpt lat="45.04118" lon="6.33513">
        <ele>1627.6</ele>
        <time>2024-08-10T11:10:34Z</time>
      </trkpt>
      <trkpt lat="45.04118" lon="6.33513">
        <ele>1628.2</ele>
        <time>2024-08-10T11:10:35Z</time>
      </trkpt>
      <trkpt lat="45.04118" lon="6.33513">
        <ele>1628.2</ele>
        <time>2024-08-10T11:10:36Z</time>
      </trkpt>
      <trkpt lat="45.04117" lon="6.33517">
        <ele>1628.2</ele>
        <time>2024-08-10T11:10:37Z</time>
      </trkpt>
      <trkpt lat="45.04117" lon="6.33517">
        <ele>1628.2</ele>
        <time>2024-08-10T11:10:38Z</time>
      </trkpt>
      <trkpt lat="45.04117" lon="6.33517">
        <ele>1628.6</ele>
        <time>2024-08-10T11:10:39Z</time>
      </trkpt>
      <trkpt lat="45.04117" lon="6.3352">
        <ele>1628.6</ele>
        <time>2024-08-10T11:10:40Z</time>
      </trkpt>
      <trkpt lat="45.04117" lon="6.3352">
        <ele>1629</ele>
        <time>2024-08-10T11:10:41Z</time>
      </trkpt>
      <trkpt lat="45.04117" lon="6.3352">
        <ele>1629.2</ele>
        <time>2024-08-10T11:10:42Z</time>
      </trkpt>
      <trkpt lat="45.04117" lon="6.3352">
        <ele>1629.6</ele>
        <time>2024-08-10T11:10:43Z</time>
      </trkpt>
      <trkpt lat="45.04117" lon="6.3352">
        <ele>1630.2</ele>
        <time>2024-08-10T11:10:44Z</time>
      </trkpt>
      <trkpt lat="45.04117" lon="6.3352">
        <ele>1630.2</ele>
        <time>2024-08-10T11:10:45Z</time>
      </trkpt>
      <trkpt lat="45.04117" lon="6.3352">
        <ele>1630.6</ele>
        <time>2024-08-10T11:10:46Z</time>
      </trkpt>
      <trkpt lat="45.04117" lon="6.3352">
        <ele>1630.8</ele>
        <time>2024-08-10T11:10:47Z</time>
      </trkpt>
      <trkpt lat="45.04117" lon="6.33522">
        <ele>1630.8</ele>
        <time>2024-08-10T11:10:48Z</time>
      </trkpt>
      <trkpt lat="45.04117" lon="6.33522">
        <ele>1631</ele>
        <time>2024-08-10T11:10:49Z</time>
      </trkpt>
      <trkpt lat="45.04117" lon="6.33522">
        <ele>1631.4</ele>
        <time>2024-08-10T11:10:50Z</time>
      </trkpt>
      <trkpt lat="45.04117" lon="6.33526">
        <ele>1631.6</ele>
        <time>2024-08-10T11:10:51Z</time>
      </trkpt>
      <trkpt lat="45.04117" lon="6.33526">
        <ele>1631.8</ele>
        <time>2024-08-10T11:10:52Z</time>
      </trkpt>
      <trkpt lat="45.04117" lon="6.3353">
        <ele>1632.6</ele>
        <time>2024-08-10T11:10:54Z</time>
      </trkpt>
      <trkpt lat="45.04117" lon="6.3353">
        <ele>1632.6</ele>
        <time>2024-08-10T11:10:55Z</time>
      </trkpt>
      <trkpt lat="45.04116" lon="6.33532">
        <ele>1632.6</ele>
        <time>2024-08-10T11:10:56Z</time>
      </trkpt>
      <trkpt lat="45.04116" lon="6.33532">
        <ele>1633.2</ele>
        <time>2024-08-10T11:10:57Z</time>
      </trkpt>
      <trkpt lat="45.04116" lon="6.33532">
        <ele>1633.2</ele>
        <time>2024-08-10T11:10:58Z</time>
      </trkpt>
      <trkpt lat="45.04114" lon="6.33535">
        <ele>1633.6</ele>
        <time>2024-08-10T11:10:59Z</time>
      </trkpt>
      <trkpt lat="45.04114" lon="6.33535">
        <ele>1633.8</ele>
        <time>2024-08-10T11:11:00Z</time>
      </trkpt>
      <trkpt lat="45.04114" lon="6.33535">
        <ele>1633.8</ele>
        <time>2024-08-10T11:11:01Z</time>
      </trkpt>
      <trkpt lat="45.04111" lon="6.33536">
        <ele>1633.8</ele>
        <time>2024-08-10T11:11:02Z</time>
      </trkpt>
      <trkpt lat="45.04111" lon="6.33536">
        <ele>1634.4</ele>
        <time>2024-08-10T11:11:03Z</time>
      </trkpt>
      <trkpt lat="45.04111" lon="6.33536">
        <ele>1634.4</ele>
        <time>2024-08-10T11:11:04Z</time>
      </trkpt>
      <trkpt lat="45.04111" lon="6.33536">
        <ele>1635</ele>
        <time>2024-08-10T11:11:05Z</time>
      </trkpt>
      <trkpt lat="45.04109" lon="6.33537">
        <ele>1635.2</ele>
        <time>2024-08-10T11:11:06Z</time>
      </trkpt>
      <trkpt lat="45.04109" lon="6.33537">
        <ele>1635.2</ele>
        <time>2024-08-10T11:11:07Z</time>
      </trkpt>
      <trkpt lat="45.04109" lon="6.33537">
        <ele>1635.6</ele>
        <time>2024-08-10T11:11:08Z</time>
      </trkpt>
      <trkpt lat="45.04111" lon="6.3354">
        <ele>1636</ele>
        <time>2024-08-10T11:11:09Z</time>
      </trkpt>
      <trkpt lat="45.04111" lon="6.3354">
        <ele>1636</ele>
        <time>2024-08-10T11:11:10Z</time>
      </trkpt>
      <trkpt lat="45.04111" lon="6.3354">
        <ele>1636.4</ele>
        <time>2024-08-10T11:11:11Z</time>
      </trkpt>
      <trkpt lat="45.04111" lon="6.3354">
        <ele>1636.4</ele>
        <time>2024-08-10T11:11:12Z</time>
      </trkpt>
      <trkpt lat="45.04111" lon="6.3354">
        <ele>1636.6</ele>
        <time>2024-08-10T11:11:13Z</time>
      </trkpt>
      <trkpt lat="45.04112" lon="6.33542">
        <ele>1637</ele>
        <time>2024-08-10T11:11:14Z</time>
      </trkpt>
      <trkpt lat="45.04112" lon="6.33542">
        <ele>1637</ele>
        <time>2024-08-10T11:11:15Z</time>
      </trkpt>
      <trkpt lat="45.04112" lon="6.33542">
        <ele>1637</ele>
        <time>2024-08-10T11:11:16Z</time>
      </trkpt>
      <trkpt lat="45.04112" lon="6.33542">
        <ele>1637</ele>
        <time>2024-08-10T11:11:17Z</time>
      </trkpt>
      <trkpt lat="45.04112" lon="6.33542">
        <ele>1637</ele>
        <time>2024-08-10T11:11:18Z</time>
      </trkpt>
      <trkpt lat="45.04113" lon="6.33544">
        <ele>1637</ele>
        <time>2024-08-10T11:11:19Z</time>
      </trkpt>
      <trkpt lat="45.04113" lon="6.33544">
        <ele>1637</ele>
        <time>2024-08-10T11:11:20Z</time>
      </trkpt>
      <trkpt lat="45.04115" lon="6.33546">
        <ele>1637</ele>
        <time>2024-08-10T11:11:21Z</time>
      </trkpt>
      <trkpt lat="45.04115" lon="6.33546">
        <ele>1637</ele>
        <time>2024-08-10T11:11:22Z</time>
      </trkpt>
      <trkpt lat="45.04117" lon="6.33549">
        <ele>1637.2</ele>
        <time>2024-08-10T11:11:23Z</time>
      </trkpt>
      <trkpt lat="45.04117" lon="6.33549">
        <ele>1637.2</ele>
        <time>2024-08-10T11:11:24Z</time>
      </trkpt>
      <trkpt lat="45.04118" lon="6.33552">
        <ele>1637.8</ele>
        <time>2024-08-10T11:11:25Z</time>
      </trkpt>
      <trkpt lat="45.04118" lon="6.33552">
        <ele>1638</ele>
        <time>2024-08-10T11:11:26Z</time>
      </trkpt>
      <trkpt lat="45.04118" lon="6.33552">
        <ele>1638.2</ele>
        <time>2024-08-10T11:11:27Z</time>
      </trkpt>
      <trkpt lat="45.04118" lon="6.33555">
        <ele>1638.4</ele>
        <time>2024-08-10T11:11:28Z</time>
      </trkpt>
      <trkpt lat="45.04118" lon="6.33555">
        <ele>1639</ele>
        <time>2024-08-10T11:11:29Z</time>
      </trkpt>
      <trkpt lat="45.04118" lon="6.33555">
        <ele>1639.2</ele>
        <time>2024-08-10T11:11:30Z</time>
      </trkpt>
      <trkpt lat="45.04118" lon="6.33558">
        <ele>1639.4</ele>
        <time>2024-08-10T11:11:31Z</time>
      </trkpt>
      <trkpt lat="45.04118" lon="6.33558">
        <ele>1639.4</ele>
        <time>2024-08-10T11:11:32Z</time>
      </trkpt>
      <trkpt lat="45.04117" lon="6.3356">
        <ele>1639.8</ele>
        <time>2024-08-10T11:11:33Z</time>
      </trkpt>
      <trkpt lat="45.04117" lon="6.3356">
        <ele>1640</ele>
        <time>2024-08-10T11:11:34Z</time>
      </trkpt>
      <trkpt lat="45.04117" lon="6.3356">
        <ele>1640</ele>
        <time>2024-08-10T11:11:35Z</time>
      </trkpt>
      <trkpt lat="45.04115" lon="6.33563">
        <ele>1640.4</ele>
        <time>2024-08-10T11:11:36Z</time>
      </trkpt>
      <trkpt lat="45.04115" lon="6.33563">
        <ele>1640.6</ele>
        <time>2024-08-10T11:11:37Z</time>
      </trkpt>
      <trkpt lat="45.04115" lon="6.33563">
        <ele>1640.6</ele>
        <time>2024-08-10T11:11:38Z</time>
      </trkpt>
      <trkpt lat="45.04114" lon="6.33566">
        <ele>1640.8</ele>
        <time>2024-08-10T11:11:39Z</time>
      </trkpt>
      <trkpt lat="45.04114" lon="6.33566">
        <ele>1641</ele>
        <time>2024-08-10T11:11:40Z</time>
      </trkpt>
      <trkpt lat="45.04114" lon="6.33566">
        <ele>1641</ele>
        <time>2024-08-10T11:11:41Z</time>
      </trkpt>
      <trkpt lat="45.04113" lon="6.33568">
        <ele>1641.2</ele>
        <time>2024-08-10T11:11:42Z</time>
      </trkpt>
      <trkpt lat="45.04113" lon="6.33568">
        <ele>1641.8</ele>
        <time>2024-08-10T11:11:43Z</time>
      </trkpt>
      <trkpt lat="45.04113" lon="6.33568">
        <ele>1642</ele>
        <time>2024-08-10T11:11:44Z</time>
      </trkpt>
      <trkpt lat="45.04111" lon="6.3357">
        <ele>1642</ele>
        <time>2024-08-10T11:11:45Z</time>
      </trkpt>
      <trkpt lat="45.04111" lon="6.3357">
        <ele>1642.4</ele>
        <time>2024-08-10T11:11:46Z</time>
      </trkpt>
      <trkpt lat="45.04111" lon="6.3357">
        <ele>1642.6</ele>
        <time>2024-08-10T11:11:47Z</time>
      </trkpt>
      <trkpt lat="45.04109" lon="6.33571">
        <ele>1642.6</ele>
        <time>2024-08-10T11:11:48Z</time>
      </trkpt>
      <trkpt lat="45.04109" lon="6.33571">
        <ele>1642.8</ele>
        <time>2024-08-10T11:11:49Z</time>
      </trkpt>
      <trkpt lat="45.04107" lon="6.33572">
        <ele>1642.8</ele>
        <time>2024-08-10T11:11:50Z</time>
      </trkpt>
      <trkpt lat="45.04107" lon="6.33572">
        <ele>1643.6</ele>
        <time>2024-08-10T11:11:51Z</time>
      </trkpt>
      <trkpt lat="45.04105" lon="6.33574">
        <ele>1643.6</ele>
        <time>2024-08-10T11:11:52Z</time>
      </trkpt>
      <trkpt lat="45.04105" lon="6.33574">
        <ele>1643.6</ele>
        <time>2024-08-10T11:11:53Z</time>
      </trkpt>
      <trkpt lat="45.04104" lon="6.33576">
        <ele>1643.6</ele>
        <time>2024-08-10T11:11:54Z</time>
      </trkpt>
      <trkpt lat="45.04104" lon="6.33576">
        <ele>1643.8</ele>
        <time>2024-08-10T11:11:55Z</time>
      </trkpt>
      <trkpt lat="45.04102" lon="6.33577">
        <ele>1644.2</ele>
        <time>2024-08-10T11:11:56Z</time>
      </trkpt>
      <trkpt lat="45.04102" lon="6.33577">
        <ele>1644.2</ele>
        <time>2024-08-10T11:11:57Z</time>
      </trkpt>
      <trkpt lat="45.04102" lon="6.33577">
        <ele>1644.4</ele>
        <time>2024-08-10T11:11:58Z</time>
      </trkpt>
      <trkpt lat="45.04102" lon="6.33577">
        <ele>1645</ele>
        <time>2024-08-10T11:11:59Z</time>
      </trkpt>
      <trkpt lat="45.041" lon="6.33579">
        <ele>1645</ele>
        <time>2024-08-10T11:12:00Z</time>
      </trkpt>
      <trkpt lat="45.041" lon="6.33579">
        <ele>1645.4</ele>
        <time>2024-08-10T11:12:01Z</time>
      </trkpt>
      <trkpt lat="45.04099" lon="6.33581">
        <ele>1645.6</ele>
        <time>2024-08-10T11:12:02Z</time>
      </trkpt>
      <trkpt lat="45.04099" lon="6.33581">
        <ele>1646</ele>
        <time>2024-08-10T11:12:03Z</time>
      </trkpt>
      <trkpt lat="45.04099" lon="6.33581">
        <ele>1646</ele>
        <time>2024-08-10T11:12:04Z</time>
      </trkpt>
      <trkpt lat="45.04097" lon="6.33584">
        <ele>1646.2</ele>
        <time>2024-08-10T11:12:05Z</time>
      </trkpt>
      <trkpt lat="45.04097" lon="6.33584">
        <ele>1646.2</ele>
        <time>2024-08-10T11:12:06Z</time>
      </trkpt>
      <trkpt lat="45.04097" lon="6.33584">
        <ele>1646.8</ele>
        <time>2024-08-10T11:12:07Z</time>
      </trkpt>
      <trkpt lat="45.04097" lon="6.33584">
        <ele>1646.8</ele>
        <time>2024-08-10T11:12:08Z</time>
      </trkpt>
      <trkpt lat="45.04096" lon="6.33586">
        <ele>1647</ele>
        <time>2024-08-10T11:12:09Z</time>
      </trkpt>
      <trkpt lat="45.04096" lon="6.33586">
        <ele>1647</ele>
        <time>2024-08-10T11:12:10Z</time>
      </trkpt>
      <trkpt lat="45.04096" lon="6.33586">
        <ele>1647.4</ele>
        <time>2024-08-10T11:12:11Z</time>
      </trkpt>
      <trkpt lat="45.04094" lon="6.33588">
        <ele>1647.8</ele>
        <time>2024-08-10T11:12:12Z</time>
      </trkpt>
      <trkpt lat="45.04094" lon="6.33588">
        <ele>1647.8</ele>
        <time>2024-08-10T11:12:13Z</time>
      </trkpt>
      <trkpt lat="45.04094" lon="6.33588">
        <ele>1648</ele>
        <time>2024-08-10T11:12:14Z</time>
      </trkpt>
      <trkpt lat="45.04093" lon="6.3359">
        <ele>1648</ele>
        <time>2024-08-10T11:12:15Z</time>
      </trkpt>
      <trkpt lat="45.04093" lon="6.3359">
        <ele>1648.2</ele>
        <time>2024-08-10T11:12:16Z</time>
      </trkpt>
      <trkpt lat="45.04093" lon="6.3359">
        <ele>1648.2</ele>
        <time>2024-08-10T11:12:17Z</time>
      </trkpt>
      <trkpt lat="45.04091" lon="6.33592">
        <ele>1648.6</ele>
        <time>2024-08-10T11:12:18Z</time>
      </trkpt>
      <trkpt lat="45.04091" lon="6.33592">
        <ele>1648.8</ele>
        <time>2024-08-10T11:12:19Z</time>
      </trkpt>
      <trkpt lat="45.04089" lon="6.33594">
        <ele>1648.8</ele>
        <time>2024-08-10T11:12:20Z</time>
      </trkpt>
      <trkpt lat="45.04089" lon="6.33594">
        <ele>1649.4</ele>
        <time>2024-08-10T11:12:21Z</time>
      </trkpt>
      <trkpt lat="45.04089" lon="6.33594">
        <ele>1649.6</ele>
        <time>2024-08-10T11:12:22Z</time>
      </trkpt>
      <trkpt lat="45.04089" lon="6.33594">
        <ele>1649.6</ele>
        <time>2024-08-10T11:12:23Z</time>
      </trkpt>
      <trkpt lat="45.04087" lon="6.33596">
        <ele>1649.8</ele>
        <time>2024-08-10T11:12:24Z</time>
      </trkpt>
      <trkpt lat="45.04087" lon="6.33596">
        <ele>1649.8</ele>
        <time>2024-08-10T11:12:25Z</time>
      </trkpt>
      <trkpt lat="45.04087" lon="6.33596">
        <ele>1649.8</ele>
        <time>2024-08-10T11:12:26Z</time>
      </trkpt>
      <trkpt lat="45.04087" lon="6.33596">
        <ele>1650.2</ele>
        <time>2024-08-10T11:12:27Z</time>
      </trkpt>
      <trkpt lat="45.04087" lon="6.33596">
        <ele>1650.4</ele>
        <time>2024-08-10T11:12:28Z</time>
      </trkpt>
      <trkpt lat="45.04087" lon="6.33596">
        <ele>1650.4</ele>
        <time>2024-08-10T11:12:29Z</time>
      </trkpt>
      <trkpt lat="45.04087" lon="6.33596">
        <ele>1650.4</ele>
        <time>2024-08-10T11:12:30Z</time>
      </trkpt>
      <trkpt lat="45.04087" lon="6.33596">
        <ele>1650.4</ele>
        <time>2024-08-10T11:12:31Z</time>
      </trkpt>
      <trkpt lat="45.04087" lon="6.33596">
        <ele>1650.4</ele>
        <time>2024-08-10T11:12:32Z</time>
      </trkpt>
      <trkpt lat="45.04087" lon="6.33596">
        <ele>1650.6</ele>
        <time>2024-08-10T11:12:33Z</time>
      </trkpt>
      <trkpt lat="45.04087" lon="6.33596">
        <ele>1650.6</ele>
        <time>2024-08-10T11:12:34Z</time>
      </trkpt>
      <trkpt lat="45.04087" lon="6.33596">
        <ele>1650.6</ele>
        <time>2024-08-10T11:12:35Z</time>
      </trkpt>
      <trkpt lat="45.04087" lon="6.33596">
        <ele>1650.4</ele>
        <time>2024-08-10T11:12:36Z</time>
      </trkpt>
      <trkpt lat="45.04087" lon="6.33596">
        <ele>1650.4</ele>
        <time>2024-08-10T11:12:37Z</time>
      </trkpt>
      <trkpt lat="45.04087" lon="6.33596">
        <ele>1650.2</ele>
        <time>2024-08-10T11:12:38Z</time>
      </trkpt>
      <trkpt lat="45.04087" lon="6.33596">
        <ele>1650.2</ele>
        <time>2024-08-10T11:12:39Z</time>
      </trkpt>
      <trkpt lat="45.04087" lon="6.33596">
        <ele>1650.4</ele>
        <time>2024-08-10T11:12:40Z</time>
      </trkpt>
      <trkpt lat="45.04087" lon="6.33596">
        <ele>1650.6</ele>
        <time>2024-08-10T11:12:41Z</time>
      </trkpt>
      <trkpt lat="45.04087" lon="6.33596">
        <ele>1650.6</ele>
        <time>2024-08-10T11:12:42Z</time>
      </trkpt>
      <trkpt lat="45.04087" lon="6.33596">
        <ele>1650.6</ele>
        <time>2024-08-10T11:12:43Z</time>
      </trkpt>
      <trkpt lat="45.04087" lon="6.33596">
        <ele>1650.6</ele>
        <time>2024-08-10T11:12:44Z</time>
      </trkpt>
      <trkpt lat="45.04087" lon="6.33596">
        <ele>1650.6</ele>
        <time>2024-08-10T11:12:45Z</time>
      </trkpt>
      <trkpt lat="45.04087" lon="6.33596">
        <ele>1650.6</ele>
        <time>2024-08-10T11:12:46Z</time>
      </trkpt>
      <trkpt lat="45.04087" lon="6.33596">
        <ele>1650.4</ele>
        <time>2024-08-10T11:12:47Z</time>
      </trkpt>
      <trkpt lat="45.04087" lon="6.33596">
        <ele>1650.4</ele>
        <time>2024-08-10T11:12:48Z</time>
      </trkpt>
      <trkpt lat="45.04087" lon="6.33596">
        <ele>1650.2</ele>
        <time>2024-08-10T11:12:49Z</time>
      </trkpt>
      <trkpt lat="45.04087" lon="6.33596">
        <ele>1650.2</ele>
        <time>2024-08-10T11:12:50Z</time>
      </trkpt>
      <trkpt lat="45.04087" lon="6.33596">
        <ele>1650.2</ele>
        <time>2024-08-10T11:12:51Z</time>
      </trkpt>
      <trkpt lat="45.04087" lon="6.33596">
        <ele>1650.2</ele>
        <time>2024-08-10T11:12:52Z</time>
      </trkpt>
      <trkpt lat="45.04087" lon="6.33596">
        <ele>1650</ele>
        <time>2024-08-10T11:12:53Z</time>
      </trkpt>
      <trkpt lat="45.04087" lon="6.33596">
        <ele>1650</ele>
        <time>2024-08-10T11:12:54Z</time>
      </trkpt>
      <trkpt lat="45.04087" lon="6.33596">
        <ele>1650</ele>
        <time>2024-08-10T11:12:55Z</time>
      </trkpt>
      <trkpt lat="45.04087" lon="6.33596">
        <ele>1650</ele>
        <time>2024-08-10T11:12:56Z</time>
      </trkpt>
      <trkpt lat="45.04087" lon="6.33596">
        <ele>1650</ele>
        <time>2024-08-10T11:12:57Z</time>
      </trkpt>
      <trkpt lat="45.04087" lon="6.33596">
        <ele>1650</ele>
        <time>2024-08-10T11:12:58Z</time>
      </trkpt>
      <trkpt lat="45.04087" lon="6.33596">
        <ele>1650</ele>
        <time>2024-08-10T11:12:59Z</time>
      </trkpt>
      <trkpt lat="45.04087" lon="6.33596">
        <ele>1650.2</ele>
        <time>2024-08-10T11:13:00Z</time>
      </trkpt>
      <trkpt lat="45.04087" lon="6.33596">
        <ele>1650.2</ele>
        <time>2024-08-10T11:13:01Z</time>
      </trkpt>
      <trkpt lat="45.04087" lon="6.33596">
        <ele>1650.2</ele>
        <time>2024-08-10T11:13:02Z</time>
      </trkpt>
      <trkpt lat="45.04087" lon="6.33596">
        <ele>1650</ele>
        <time>2024-08-10T11:13:03Z</time>
      </trkpt>
      <trkpt lat="45.04087" lon="6.33596">
        <ele>1650</ele>
        <time>2024-08-10T11:13:04Z</time>
      </trkpt>
      <trkpt lat="45.04087" lon="6.33596">
        <ele>1650.2</ele>
        <time>2024-08-10T11:13:05Z</time>
      </trkpt>
      <trkpt lat="45.04087" lon="6.33596">
        <ele>1650.2</ele>
        <time>2024-08-10T11:13:06Z</time>
      </trkpt>
      <trkpt lat="45.04087" lon="6.33596">
        <ele>1650.2</ele>
        <time>2024-08-10T11:13:07Z</time>
      </trkpt>
      <trkpt lat="45.04087" lon="6.33596">
        <ele>1650.2</ele>
        <time>2024-08-10T11:13:08Z</time>
      </trkpt>
      <trkpt lat="45.04087" lon="6.33596">
        <ele>1650.2</ele>
        <time>2024-08-10T11:13:09Z</time>
      </trkpt>
      <trkpt lat="45.04087" lon="6.33596">
        <ele>1650.2</ele>
        <time>2024-08-10T11:13:10Z</time>
      </trkpt>
      <trkpt lat="45.04087" lon="6.33596">
        <ele>1650.2</ele>
        <time>2024-08-10T11:13:11Z</time>
      </trkpt>
      <trkpt lat="45.04087" lon="6.33596">
        <ele>1650.2</ele>
        <time>2024-08-10T11:13:12Z</time>
      </trkpt>
      <trkpt lat="45.04087" lon="6.33596">
        <ele>1650.2</ele>
        <time>2024-08-10T11:13:13Z</time>
      </trkpt>
      <trkpt lat="45.04087" lon="6.33596">
        <ele>1650.2</ele>
        <time>2024-08-10T11:13:14Z</time>
      </trkpt>
      <trkpt lat="45.04087" lon="6.33596">
        <ele>1650.2</ele>
        <time>2024-08-10T11:13:15Z</time>
      </trkpt>
      <trkpt lat="45.04087" lon="6.33596">
        <ele>1650.4</ele>
        <time>2024-08-10T11:13:16Z</time>
      </trkpt>
      <trkpt lat="45.04087" lon="6.33596">
        <ele>1650.4</ele>
        <time>2024-08-10T11:13:17Z</time>
      </trkpt>
      <trkpt lat="45.04087" lon="6.33596">
        <ele>1650.4</ele>
        <time>2024-08-10T11:13:18Z</time>
      </trkpt>
      <trkpt lat="45.04087" lon="6.33596">
        <ele>1650.4</ele>
        <time>2024-08-10T11:13:19Z</time>
      </trkpt>
      <trkpt lat="45.04087" lon="6.33596">
        <ele>1650.4</ele>
        <time>2024-08-10T11:13:20Z</time>
      </trkpt>
      <trkpt lat="45.04087" lon="6.33596">
        <ele>1650.6</ele>
        <time>2024-08-10T11:13:21Z</time>
      </trkpt>
      <trkpt lat="45.04087" lon="6.33596">
        <ele>1650.6</ele>
        <time>2024-08-10T11:13:22Z</time>
      </trkpt>
      <trkpt lat="45.04087" lon="6.33596">
        <ele>1650.4</ele>
        <time>2024-08-10T11:13:23Z</time>
      </trkpt>
      <trkpt lat="45.04087" lon="6.33596">
        <ele>1650.4</ele>
        <time>2024-08-10T11:13:24Z</time>
      </trkpt>
      <trkpt lat="45.04087" lon="6.33596">
        <ele>1650.2</ele>
        <time>2024-08-10T11:13:25Z</time>
      </trkpt>
      <trkpt lat="45.04089" lon="6.33597">
        <ele>1650.2</ele>
        <time>2024-08-10T11:13:26Z</time>
      </trkpt>
      <trkpt lat="45.04089" lon="6.33597">
        <ele>1650</ele>
        <time>2024-08-10T11:13:27Z</time>
      </trkpt>
      <trkpt lat="45.04089" lon="6.33597">
        <ele>1650</ele>
        <time>2024-08-10T11:13:28Z</time>
      </trkpt>
      <trkpt lat="45.04089" lon="6.33597">
        <ele>1650</ele>
        <time>2024-08-10T11:13:29Z</time>
      </trkpt>
      <trkpt lat="45.04089" lon="6.33597">
        <ele>1649.8</ele>
        <time>2024-08-10T11:13:30Z</time>
      </trkpt>
      <trkpt lat="45.04091" lon="6.33596">
        <ele>1649.8</ele>
        <time>2024-08-10T11:13:31Z</time>
      </trkpt>
      <trkpt lat="45.04091" lon="6.33596">
        <ele>1650</ele>
        <time>2024-08-10T11:13:32Z</time>
      </trkpt>
      <trkpt lat="45.04091" lon="6.33596">
        <ele>1650</ele>
        <time>2024-08-10T11:13:33Z</time>
      </trkpt>
      <trkpt lat="45.04091" lon="6.33596">
        <ele>1650</ele>
        <time>2024-08-10T11:13:34Z</time>
      </trkpt>
      <trkpt lat="45.04091" lon="6.33596">
        <ele>1650</ele>
        <time>2024-08-10T11:13:35Z</time>
      </trkpt>
      <trkpt lat="45.04091" lon="6.33596">
        <ele>1650</ele>
        <time>2024-08-10T11:13:36Z</time>
      </trkpt>
      <trkpt lat="45.04091" lon="6.33596">
        <ele>1650</ele>
        <time>2024-08-10T11:13:37Z</time>
      </trkpt>
      <trkpt lat="45.04091" lon="6.33596">
        <ele>1650</ele>
        <time>2024-08-10T11:13:38Z</time>
      </trkpt>
      <trkpt lat="45.04091" lon="6.33596">
        <ele>1649.8</ele>
        <time>2024-08-10T11:13:39Z</time>
      </trkpt>
      <trkpt lat="45.04091" lon="6.33596">
        <ele>1649.8</ele>
        <time>2024-08-10T11:13:40Z</time>
      </trkpt>
      <trkpt lat="45.04091" lon="6.33596">
        <ele>1649.8</ele>
        <time>2024-08-10T11:13:41Z</time>
      </trkpt>
      <trkpt lat="45.04091" lon="6.33596">
        <ele>1650</ele>
        <time>2024-08-10T11:13:42Z</time>
      </trkpt>
      <trkpt lat="45.04091" lon="6.33596">
        <ele>1650</ele>
        <time>2024-08-10T11:13:43Z</time>
      </trkpt>
      <trkpt lat="45.04091" lon="6.33596">
        <ele>1650</ele>
        <time>2024-08-10T11:13:44Z</time>
      </trkpt>
      <trkpt lat="45.04091" lon="6.33596">
        <ele>1650</ele>
        <time>2024-08-10T11:13:45Z</time>
      </trkpt>
      <trkpt lat="45.04091" lon="6.33596">
        <ele>1650.2</ele>
        <time>2024-08-10T11:13:46Z</time>
      </trkpt>
      <trkpt lat="45.04091" lon="6.33596">
        <ele>1650.2</ele>
        <time>2024-08-10T11:13:47Z</time>
      </trkpt>
      <trkpt lat="45.04091" lon="6.33596">
        <ele>1650</ele>
        <time>2024-08-10T11:13:48Z</time>
      </trkpt>
      <trkpt lat="45.04091" lon="6.33596">
        <ele>1650</ele>
        <time>2024-08-10T11:13:49Z</time>
      </trkpt>
      <trkpt lat="45.04091" lon="6.33596">
        <ele>1650</ele>
        <time>2024-08-10T11:13:50Z</time>
      </trkpt>
      <trkpt lat="45.04091" lon="6.33596">
        <ele>1649.8</ele>
        <time>2024-08-10T11:13:51Z</time>
      </trkpt>
      <trkpt lat="45.04091" lon="6.33596">
        <ele>1649.8</ele>
        <time>2024-08-10T11:13:52Z</time>
      </trkpt>
      <trkpt lat="45.04091" lon="6.33596">
        <ele>1650</ele>
        <time>2024-08-10T11:13:53Z</time>
      </trkpt>
      <trkpt lat="45.04091" lon="6.33596">
        <ele>1650.4</ele>
        <time>2024-08-10T11:13:54Z</time>
      </trkpt>
      <trkpt lat="45.04091" lon="6.33596">
        <ele>1650.6</ele>
        <time>2024-08-10T11:13:55Z</time>
      </trkpt>
      <trkpt lat="45.04091" lon="6.33596">
        <ele>1650.6</ele>
        <time>2024-08-10T11:13:56Z</time>
      </trkpt>
      <trkpt lat="45.04091" lon="6.33596">
        <ele>1650.4</ele>
        <time>2024-08-10T11:13:57Z</time>
      </trkpt>
      <trkpt lat="45.04091" lon="6.33596">
        <ele>1650.4</ele>
        <time>2024-08-10T11:13:58Z</time>
      </trkpt>
      <trkpt lat="45.04091" lon="6.33596">
        <ele>1650.2</ele>
        <time>2024-08-10T11:13:59Z</time>
      </trkpt>
      <trkpt lat="45.04091" lon="6.33596">
        <ele>1650.2</ele>
        <time>2024-08-10T11:14:00Z</time>
      </trkpt>
      <trkpt lat="45.04091" lon="6.33596">
        <ele>1650</ele>
        <time>2024-08-10T11:14:01Z</time>
      </trkpt>
      <trkpt lat="45.04091" lon="6.33596">
        <ele>1650.2</ele>
        <time>2024-08-10T11:14:02Z</time>
      </trkpt>
      <trkpt lat="45.04091" lon="6.33596">
        <ele>1650.2</ele>
        <time>2024-08-10T11:14:03Z</time>
      </trkpt>
      <trkpt lat="45.04091" lon="6.33596">
        <ele>1650.2</ele>
        <time>2024-08-10T11:14:04Z</time>
      </trkpt>
      <trkpt lat="45.04091" lon="6.33596">
        <ele>1650.2</ele>
        <time>2024-08-10T11:14:05Z</time>
      </trkpt>
      <trkpt lat="45.04091" lon="6.33596">
        <ele>1650</ele>
        <time>2024-08-10T11:14:06Z</time>
      </trkpt>
      <trkpt lat="45.04091" lon="6.33596">
        <ele>1650</ele>
        <time>2024-08-10T11:14:07Z</time>
      </trkpt>
      <trkpt lat="45.04091" lon="6.33596">
        <ele>1649.8</ele>
        <time>2024-08-10T11:14:08Z</time>
      </trkpt>
      <trkpt lat="45.04091" lon="6.33596">
        <ele>1649.8</ele>
        <time>2024-08-10T11:14:09Z</time>
      </trkpt>
      <trkpt lat="45.04091" lon="6.33596">
        <ele>1649.8</ele>
        <time>2024-08-10T11:14:10Z</time>
      </trkpt>
      <trkpt lat="45.04091" lon="6.33596">
        <ele>1649.8</ele>
        <time>2024-08-10T11:14:11Z</time>
      </trkpt>
      <trkpt lat="45.04091" lon="6.33596">
        <ele>1649.8</ele>
        <time>2024-08-10T11:14:12Z</time>
      </trkpt>
      <trkpt lat="45.04091" lon="6.33596">
        <ele>1649.8</ele>
        <time>2024-08-10T11:14:13Z</time>
      </trkpt>
      <trkpt lat="45.04091" lon="6.33596">
        <ele>1649.8</ele>
        <time>2024-08-10T11:14:14Z</time>
      </trkpt>
      <trkpt lat="45.04091" lon="6.33596">
        <ele>1649.6</ele>
        <time>2024-08-10T11:14:15Z</time>
      </trkpt>
      <trkpt lat="45.04091" lon="6.33596">
        <ele>1649.6</ele>
        <time>2024-08-10T11:14:16Z</time>
      </trkpt>
      <trkpt lat="45.04091" lon="6.33596">
        <ele>1649.8</ele>
        <time>2024-08-10T11:14:17Z</time>
      </trkpt>
      <trkpt lat="45.04091" lon="6.33596">
        <ele>1649.8</ele>
        <time>2024-08-10T11:14:18Z</time>
      </trkpt>
      <trkpt lat="45.04091" lon="6.33596">
        <ele>1650.2</ele>
        <time>2024-08-10T11:14:19Z</time>
      </trkpt>
      <trkpt lat="45.04091" lon="6.33596">
        <ele>1650.2</ele>
        <time>2024-08-10T11:14:20Z</time>
      </trkpt>
      <trkpt lat="45.04091" lon="6.33596">
        <ele>1650.4</ele>
        <time>2024-08-10T11:14:21Z</time>
      </trkpt>
      <trkpt lat="45.04091" lon="6.33596">
        <ele>1650.2</ele>
        <time>2024-08-10T11:14:22Z</time>
      </trkpt>
      <trkpt lat="45.04091" lon="6.33596">
        <ele>1650.2</ele>
        <time>2024-08-10T11:14:23Z</time>
      </trkpt>
      <trkpt lat="45.04091" lon="6.33596">
        <ele>1650.2</ele>
        <time>2024-08-10T11:14:24Z</time>
      </trkpt>
      <trkpt lat="45.04091" lon="6.33596">
        <ele>1650.4</ele>
        <time>2024-08-10T11:14:25Z</time>
      </trkpt>
      <trkpt lat="45.04091" lon="6.33596">
        <ele>1650.6</ele>
        <time>2024-08-10T11:14:26Z</time>
      </trkpt>
      <trkpt lat="45.04091" lon="6.33596">
        <ele>1650.6</ele>
        <time>2024-08-10T11:14:27Z</time>
      </trkpt>
      <trkpt lat="45.04091" lon="6.33596">
        <ele>1650.6</ele>
        <time>2024-08-10T11:14:28Z</time>
      </trkpt>
      <trkpt lat="45.04091" lon="6.33596">
        <ele>1650.6</ele>
        <time>2024-08-10T11:14:29Z</time>
      </trkpt>
      <trkpt lat="45.04091" lon="6.33596">
        <ele>1650.4</ele>
        <time>2024-08-10T11:14:30Z</time>
      </trkpt>
      <trkpt lat="45.04091" lon="6.33596">
        <ele>1650.2</ele>
        <time>2024-08-10T11:14:31Z</time>
      </trkpt>
      <trkpt lat="45.04091" lon="6.33596">
        <ele>1650</ele>
        <time>2024-08-10T11:14:32Z</time>
      </trkpt>
      <trkpt lat="45.04091" lon="6.33596">
        <ele>1650</ele>
        <time>2024-08-10T11:14:33Z</time>
      </trkpt>
      <trkpt lat="45.04091" lon="6.33596">
        <ele>1649.8</ele>
        <time>2024-08-10T11:14:34Z</time>
      </trkpt>
      <trkpt lat="45.04091" lon="6.33596">
        <ele>1649.8</ele>
        <time>2024-08-10T11:14:35Z</time>
      </trkpt>
      <trkpt lat="45.04091" lon="6.33596">
        <ele>1650</ele>
        <time>2024-08-10T11:14:36Z</time>
      </trkpt>
      <trkpt lat="45.04091" lon="6.33596">
        <ele>1650</ele>
        <time>2024-08-10T11:14:37Z</time>
      </trkpt>
      <trkpt lat="45.04091" lon="6.33596">
        <ele>1650</ele>
        <time>2024-08-10T11:14:38Z</time>
      </trkpt>
      <trkpt lat="45.04091" lon="6.33596">
        <ele>1650</ele>
        <time>2024-08-10T11:14:39Z</time>
      </trkpt>
      <trkpt lat="45.04091" lon="6.33596">
        <ele>1649.8</ele>
        <time>2024-08-10T11:14:40Z</time>
      </trkpt>
      <trkpt lat="45.04091" lon="6.33596">
        <ele>1649.8</ele>
        <time>2024-08-10T11:14:41Z</time>
      </trkpt>
      <trkpt lat="45.04091" lon="6.33596">
        <ele>1649.8</ele>
        <time>2024-08-10T11:14:42Z</time>
      </trkpt>
      <trkpt lat="45.04091" lon="6.33596">
        <ele>1650</ele>
        <time>2024-08-10T11:14:43Z</time>
      </trkpt>
      <trkpt lat="45.04091" lon="6.33596">
        <ele>1650</ele>
        <time>2024-08-10T11:14:44Z</time>
      </trkpt>
      <trkpt lat="45.04091" lon="6.33596">
        <ele>1649.8</ele>
        <time>2024-08-10T11:14:45Z</time>
      </trkpt>
      <trkpt lat="45.04091" lon="6.33596">
        <ele>1649.8</ele>
        <time>2024-08-10T11:14:46Z</time>
      </trkpt>
      <trkpt lat="45.04091" lon="6.33596">
        <ele>1649.6</ele>
        <time>2024-08-10T11:14:47Z</time>
      </trkpt>
      <trkpt lat="45.04091" lon="6.33596">
        <ele>1649.6</ele>
        <time>2024-08-10T11:14:48Z</time>
      </trkpt>
      <trkpt lat="45.04091" lon="6.33596">
        <ele>1649.6</ele>
        <time>2024-08-10T11:14:49Z</time>
      </trkpt>
      <trkpt lat="45.04091" lon="6.33596">
        <ele>1649.6</ele>
        <time>2024-08-10T11:14:50Z</time>
      </trkpt>
      <trkpt lat="45.04091" lon="6.33596">
        <ele>1649.6</ele>
        <time>2024-08-10T11:14:51Z</time>
      </trkpt>
      <trkpt lat="45.04091" lon="6.33596">
        <ele>1649.6</ele>
        <time>2024-08-10T11:14:52Z</time>
      </trkpt>
      <trkpt lat="45.04091" lon="6.33596">
        <ele>1649.8</ele>
        <time>2024-08-10T11:14:53Z</time>
      </trkpt>
      <trkpt lat="45.04091" lon="6.33596">
        <ele>1649.8</ele>
        <time>2024-08-10T11:14:54Z</time>
      </trkpt>
      <trkpt lat="45.04091" lon="6.33596">
        <ele>1649.6</ele>
        <time>2024-08-10T11:14:55Z</time>
      </trkpt>
      <trkpt lat="45.04091" lon="6.33596">
        <ele>1649.6</ele>
        <time>2024-08-10T11:14:56Z</time>
      </trkpt>
      <trkpt lat="45.04091" lon="6.33596">
        <ele>1649.6</ele>
        <time>2024-08-10T11:14:57Z</time>
      </trkpt>
      <trkpt lat="45.04091" lon="6.33596">
        <ele>1649.4</ele>
        <time>2024-08-10T11:14:58Z</time>
      </trkpt>
      <trkpt lat="45.04091" lon="6.33596">
        <ele>1649.4</ele>
        <time>2024-08-10T11:14:59Z</time>
      </trkpt>
      <trkpt lat="45.04091" lon="6.33596">
        <ele>1649.4</ele>
        <time>2024-08-10T11:15:00Z</time>
      </trkpt>
      <trkpt lat="45.04091" lon="6.33596">
        <ele>1649.6</ele>
        <time>2024-08-10T11:15:01Z</time>
      </trkpt>
      <trkpt lat="45.04091" lon="6.33596">
        <ele>1649.6</ele>
        <time>2024-08-10T11:15:02Z</time>
      </trkpt>
      <trkpt lat="45.04091" lon="6.33596">
        <ele>1649.6</ele>
        <time>2024-08-10T11:15:03Z</time>
      </trkpt>
      <trkpt lat="45.04091" lon="6.33596">
        <ele>1649.6</ele>
        <time>2024-08-10T11:15:04Z</time>
      </trkpt>
      <trkpt lat="45.04091" lon="6.33596">
        <ele>1649.8</ele>
        <time>2024-08-10T11:15:05Z</time>
      </trkpt>
      <trkpt lat="45.04091" lon="6.33596">
        <ele>1649.8</ele>
        <time>2024-08-10T11:15:06Z</time>
      </trkpt>
      <trkpt lat="45.04091" lon="6.33596">
        <ele>1649.6</ele>
        <time>2024-08-10T11:15:07Z</time>
      </trkpt>
      <trkpt lat="45.04091" lon="6.33596">
        <ele>1649.6</ele>
        <time>2024-08-10T11:15:08Z</time>
      </trkpt>
      <trkpt lat="45.04091" lon="6.33596">
        <ele>1649.8</ele>
        <time>2024-08-10T11:15:09Z</time>
      </trkpt>
      <trkpt lat="45.04091" lon="6.33596">
        <ele>1649.8</ele>
        <time>2024-08-10T11:15:10Z</time>
      </trkpt>
      <trkpt lat="45.04091" lon="6.33596">
        <ele>1649.8</ele>
        <time>2024-08-10T11:15:11Z</time>
      </trkpt>
      <trkpt lat="45.04091" lon="6.33596">
        <ele>1649.8</ele>
        <time>2024-08-10T11:15:12Z</time>
      </trkpt>
      <trkpt lat="45.04091" lon="6.33596">
        <ele>1650</ele>
        <time>2024-08-10T11:15:13Z</time>
      </trkpt>
      <trkpt lat="45.04091" lon="6.33596">
        <ele>1650</ele>
        <time>2024-08-10T11:15:14Z</time>
      </trkpt>
      <trkpt lat="45.04091" lon="6.33596">
        <ele>1649.8</ele>
        <time>2024-08-10T11:15:15Z</time>
      </trkpt>
      <trkpt lat="45.04091" lon="6.33596">
        <ele>1649.8</ele>
        <time>2024-08-10T11:15:16Z</time>
      </trkpt>
      <trkpt lat="45.04091" lon="6.33596">
        <ele>1649.6</ele>
        <time>2024-08-10T11:15:17Z</time>
      </trkpt>
      <trkpt lat="45.04091" lon="6.33596">
        <ele>1649.6</ele>
        <time>2024-08-10T11:15:18Z</time>
      </trkpt>
      <trkpt lat="45.04091" lon="6.33596">
        <ele>1649.6</ele>
        <time>2024-08-10T11:15:19Z</time>
      </trkpt>
      <trkpt lat="45.04091" lon="6.33596">
        <ele>1649.6</ele>
        <time>2024-08-10T11:15:20Z</time>
      </trkpt>
      <trkpt lat="45.04091" lon="6.33596">
        <ele>1649.6</ele>
        <time>2024-08-10T11:15:21Z</time>
      </trkpt>
      <trkpt lat="45.04091" lon="6.33596">
        <ele>1649.6</ele>
        <time>2024-08-10T11:15:22Z</time>
      </trkpt>
      <trkpt lat="45.04091" lon="6.33596">
        <ele>1649.6</ele>
        <time>2024-08-10T11:15:23Z</time>
      </trkpt>
      <trkpt lat="45.04091" lon="6.33596">
        <ele>1649.6</ele>
        <time>2024-08-10T11:15:24Z</time>
      </trkpt>
      <trkpt lat="45.04091" lon="6.33596">
        <ele>1649.6</ele>
        <time>2024-08-10T11:15:25Z</time>
      </trkpt>
      <trkpt lat="45.04091" lon="6.33596">
        <ele>1649.6</ele>
        <time>2024-08-10T11:15:26Z</time>
      </trkpt>
      <trkpt lat="45.04091" lon="6.33596">
        <ele>1649.6</ele>
        <time>2024-08-10T11:15:27Z</time>
      </trkpt>
      <trkpt lat="45.04091" lon="6.33596">
        <ele>1649.6</ele>
        <time>2024-08-10T11:15:28Z</time>
      </trkpt>
      <trkpt lat="45.04091" lon="6.33596">
        <ele>1649.6</ele>
        <time>2024-08-10T11:15:29Z</time>
      </trkpt>
      <trkpt lat="45.04091" lon="6.33596">
        <ele>1649.6</ele>
        <time>2024-08-10T11:15:30Z</time>
      </trkpt>
      <trkpt lat="45.04091" lon="6.33596">
        <ele>1649.4</ele>
        <time>2024-08-10T11:15:31Z</time>
      </trkpt>
      <trkpt lat="45.04091" lon="6.33596">
        <ele>1649.4</ele>
        <time>2024-08-10T11:15:32Z</time>
      </trkpt>
      <trkpt lat="45.04091" lon="6.33596">
        <ele>1649.4</ele>
        <time>2024-08-10T11:15:33Z</time>
      </trkpt>
      <trkpt lat="45.04091" lon="6.33596">
        <ele>1649.4</ele>
        <time>2024-08-10T11:15:34Z</time>
      </trkpt>
      <trkpt lat="45.04091" lon="6.33596">
        <ele>1649.6</ele>
        <time>2024-08-10T11:15:35Z</time>
      </trkpt>
      <trkpt lat="45.04091" lon="6.33596">
        <ele>1649.6</ele>
        <time>2024-08-10T11:15:36Z</time>
      </trkpt>
      <trkpt lat="45.04091" lon="6.33596">
        <ele>1649.6</ele>
        <time>2024-08-10T11:15:37Z</time>
      </trkpt>
      <trkpt lat="45.04091" lon="6.33596">
        <ele>1649.6</ele>
        <time>2024-08-10T11:15:38Z</time>
      </trkpt>
      <trkpt lat="45.04091" lon="6.33596">
        <ele>1649.6</ele>
        <time>2024-08-10T11:15:39Z</time>
      </trkpt>
      <trkpt lat="45.04091" lon="6.33596">
        <ele>1649.4</ele>
        <time>2024-08-10T11:15:40Z</time>
      </trkpt>
      <trkpt lat="45.04091" lon="6.33596">
        <ele>1649.4</ele>
        <time>2024-08-10T11:15:41Z</time>
      </trkpt>
      <trkpt lat="45.04091" lon="6.33596">
        <ele>1649.6</ele>
        <time>2024-08-10T11:15:42Z</time>
      </trkpt>
      <trkpt lat="45.04091" lon="6.33596">
        <ele>1649.6</ele>
        <time>2024-08-10T11:15:43Z</time>
      </trkpt>
      <trkpt lat="45.04091" lon="6.33596">
        <ele>1649.6</ele>
        <time>2024-08-10T11:15:44Z</time>
      </trkpt>
      <trkpt lat="45.04091" lon="6.33596">
        <ele>1649.6</ele>
        <time>2024-08-10T11:15:45Z</time>
      </trkpt>
      <trkpt lat="45.04091" lon="6.33596">
        <ele>1649.6</ele>
        <time>2024-08-10T11:15:46Z</time>
      </trkpt>
      <trkpt lat="45.04091" lon="6.33596">
        <ele>1649.6</ele>
        <time>2024-08-10T11:15:47Z</time>
      </trkpt>
      <trkpt lat="45.04091" lon="6.33596">
        <ele>1649.6</ele>
        <time>2024-08-10T11:15:48Z</time>
      </trkpt>
      <trkpt lat="45.04091" lon="6.33596">
        <ele>1649.8</ele>
        <time>2024-08-10T11:15:49Z</time>
      </trkpt>
      <trkpt lat="45.04091" lon="6.33596">
        <ele>1649.8</ele>
        <time>2024-08-10T11:15:50Z</time>
      </trkpt>
      <trkpt lat="45.04091" lon="6.33596">
        <ele>1649.8</ele>
        <time>2024-08-10T11:15:51Z</time>
      </trkpt>
      <trkpt lat="45.04091" lon="6.33596">
        <ele>1649.8</ele>
        <time>2024-08-10T11:15:52Z</time>
      </trkpt>
      <trkpt lat="45.04091" lon="6.33596">
        <ele>1649.8</ele>
        <time>2024-08-10T11:15:53Z</time>
      </trkpt>
      <trkpt lat="45.04091" lon="6.33596">
        <ele>1649.6</ele>
        <time>2024-08-10T11:15:54Z</time>
      </trkpt>
      <trkpt lat="45.04091" lon="6.33596">
        <ele>1649.6</ele>
        <time>2024-08-10T11:15:55Z</time>
      </trkpt>
      <trkpt lat="45.04091" lon="6.33596">
        <ele>1649.6</ele>
        <time>2024-08-10T11:15:56Z</time>
      </trkpt>
      <trkpt lat="45.04091" lon="6.33596">
        <ele>1649.6</ele>
        <time>2024-08-10T11:15:57Z</time>
      </trkpt>
      <trkpt lat="45.04091" lon="6.33596">
        <ele>1649.6</ele>
        <time>2024-08-10T11:15:58Z</time>
      </trkpt>
      <trkpt lat="45.04091" lon="6.33596">
        <ele>1649.6</ele>
        <time>2024-08-10T11:15:59Z</time>
      </trkpt>
      <trkpt lat="45.04091" lon="6.33596">
        <ele>1649.6</ele>
        <time>2024-08-10T11:16:00Z</time>
      </trkpt>
      <trkpt lat="45.04091" lon="6.33596">
        <ele>1649.6</ele>
        <time>2024-08-10T11:16:01Z</time>
      </trkpt>
      <trkpt lat="45.04091" lon="6.33596">
        <ele>1649.6</ele>
        <time>2024-08-10T11:16:02Z</time>
      </trkpt>
      <trkpt lat="45.04091" lon="6.33596">
        <ele>1649.6</ele>
        <time>2024-08-10T11:16:03Z</time>
      </trkpt>
      <trkpt lat="45.04091" lon="6.33596">
        <ele>1649.6</ele>
        <time>2024-08-10T11:16:04Z</time>
      </trkpt>
      <trkpt lat="45.04091" lon="6.33596">
        <ele>1649.6</ele>
        <time>2024-08-10T11:16:05Z</time>
      </trkpt>
      <trkpt lat="45.04091" lon="6.33596">
        <ele>1649.6</ele>
        <time>2024-08-10T11:16:06Z</time>
      </trkpt>
      <trkpt lat="45.04091" lon="6.33596">
        <ele>1649.4</ele>
        <time>2024-08-10T11:16:07Z</time>
      </trkpt>
      <trkpt lat="45.04091" lon="6.33596">
        <ele>1649.4</ele>
        <time>2024-08-10T11:16:08Z</time>
      </trkpt>
      <trkpt lat="45.04091" lon="6.33596">
        <ele>1649.4</ele>
        <time>2024-08-10T11:16:09Z</time>
      </trkpt>
      <trkpt lat="45.04091" lon="6.33596">
        <ele>1649.4</ele>
        <time>2024-08-10T11:16:10Z</time>
      </trkpt>
      <trkpt lat="45.04091" lon="6.33596">
        <ele>1649.6</ele>
        <time>2024-08-10T11:16:11Z</time>
      </trkpt>
      <trkpt lat="45.04091" lon="6.33596">
        <ele>1649.8</ele>
        <time>2024-08-10T11:16:12Z</time>
      </trkpt>
      <trkpt lat="45.04091" lon="6.33596">
        <ele>1649.8</ele>
        <time>2024-08-10T11:16:13Z</time>
      </trkpt>
      <trkpt lat="45.04091" lon="6.33596">
        <ele>1649.6</ele>
        <time>2024-08-10T11:16:14Z</time>
      </trkpt>
      <trkpt lat="45.04091" lon="6.33596">
        <ele>1649.6</ele>
        <time>2024-08-10T11:16:15Z</time>
      </trkpt>
      <trkpt lat="45.04091" lon="6.33596">
        <ele>1649.6</ele>
        <time>2024-08-10T11:16:16Z</time>
      </trkpt>
      <trkpt lat="45.04091" lon="6.33596">
        <ele>1649.6</ele>
        <time>2024-08-10T11:16:17Z</time>
      </trkpt>
      <trkpt lat="45.04091" lon="6.33596">
        <ele>1649.8</ele>
        <time>2024-08-10T11:16:18Z</time>
      </trkpt>
      <trkpt lat="45.04091" lon="6.33596">
        <ele>1649.8</ele>
        <time>2024-08-10T11:16:19Z</time>
      </trkpt>
      <trkpt lat="45.04091" lon="6.33596">
        <ele>1649.8</ele>
        <time>2024-08-10T11:16:20Z</time>
      </trkpt>
      <trkpt lat="45.04091" lon="6.33596">
        <ele>1649.8</ele>
        <time>2024-08-10T11:16:21Z</time>
      </trkpt>
      <trkpt lat="45.04091" lon="6.33596">
        <ele>1650</ele>
        <time>2024-08-10T11:16:22Z</time>
      </trkpt>
      <trkpt lat="45.04091" lon="6.33596">
        <ele>1650</ele>
        <time>2024-08-10T11:16:23Z</time>
      </trkpt>
      <trkpt lat="45.04091" lon="6.33596">
        <ele>1650</ele>
        <time>2024-08-10T11:16:24Z</time>
      </trkpt>
      <trkpt lat="45.04091" lon="6.33596">
        <ele>1650.2</ele>
        <time>2024-08-10T11:16:25Z</time>
      </trkpt>
      <trkpt lat="45.04091" lon="6.33596">
        <ele>1650.2</ele>
        <time>2024-08-10T11:16:26Z</time>
      </trkpt>
      <trkpt lat="45.04091" lon="6.33596">
        <ele>1650.2</ele>
        <time>2024-08-10T11:16:27Z</time>
      </trkpt>
      <trkpt lat="45.04091" lon="6.33596">
        <ele>1650.2</ele>
        <time>2024-08-10T11:16:28Z</time>
      </trkpt>
      <trkpt lat="45.04091" lon="6.33596">
        <ele>1650</ele>
        <time>2024-08-10T11:16:29Z</time>
      </trkpt>
      <trkpt lat="45.04091" lon="6.33596">
        <ele>1650</ele>
        <time>2024-08-10T11:16:30Z</time>
      </trkpt>
      <trkpt lat="45.04091" lon="6.33596">
        <ele>1650</ele>
        <time>2024-08-10T11:16:31Z</time>
      </trkpt>
      <trkpt lat="45.04091" lon="6.33596">
        <ele>1650</ele>
        <time>2024-08-10T11:16:32Z</time>
      </trkpt>
      <trkpt lat="45.04091" lon="6.33596">
        <ele>1650</ele>
        <time>2024-08-10T11:16:33Z</time>
      </trkpt>
      <trkpt lat="45.04091" lon="6.33596">
        <ele>1650</ele>
        <time>2024-08-10T11:16:34Z</time>
      </trkpt>
      <trkpt lat="45.04091" lon="6.33596">
        <ele>1650</ele>
        <time>2024-08-10T11:16:35Z</time>
      </trkpt>
      <trkpt lat="45.04091" lon="6.33596">
        <ele>1650</ele>
        <time>2024-08-10T11:16:36Z</time>
      </trkpt>
      <trkpt lat="45.04091" lon="6.33596">
        <ele>1650</ele>
        <time>2024-08-10T11:16:37Z</time>
      </trkpt>
      <trkpt lat="45.04091" lon="6.33596">
        <ele>1650</ele>
        <time>2024-08-10T11:16:38Z</time>
      </trkpt>
      <trkpt lat="45.04091" lon="6.33596">
        <ele>1649.8</ele>
        <time>2024-08-10T11:16:39Z</time>
      </trkpt>
      <trkpt lat="45.04091" lon="6.33596">
        <ele>1649.8</ele>
        <time>2024-08-10T11:16:40Z</time>
      </trkpt>
      <trkpt lat="45.04091" lon="6.33596">
        <ele>1649.8</ele>
        <time>2024-08-10T11:16:41Z</time>
      </trkpt>
      <trkpt lat="45.04091" lon="6.33596">
        <ele>1649.8</ele>
        <time>2024-08-10T11:16:42Z</time>
      </trkpt>
      <trkpt lat="45.04091" lon="6.33596">
        <ele>1649.8</ele>
        <time>2024-08-10T11:16:43Z</time>
      </trkpt>
      <trkpt lat="45.04091" lon="6.33596">
        <ele>1649.8</ele>
        <time>2024-08-10T11:16:44Z</time>
      </trkpt>
      <trkpt lat="45.04091" lon="6.33596">
        <ele>1650</ele>
        <time>2024-08-10T11:16:45Z</time>
      </trkpt>
      <trkpt lat="45.04091" lon="6.33596">
        <ele>1650</ele>
        <time>2024-08-10T11:16:46Z</time>
      </trkpt>
      <trkpt lat="45.04091" lon="6.33596">
        <ele>1650</ele>
        <time>2024-08-10T11:16:47Z</time>
      </trkpt>
      <trkpt lat="45.04091" lon="6.33596">
        <ele>1650</ele>
        <time>2024-08-10T11:16:48Z</time>
      </trkpt>
      <trkpt lat="45.04091" lon="6.33596">
        <ele>1650</ele>
        <time>2024-08-10T11:16:49Z</time>
      </trkpt>
      <trkpt lat="45.04091" lon="6.33596">
        <ele>1650.2</ele>
        <time>2024-08-10T11:16:50Z</time>
      </trkpt>
      <trkpt lat="45.04091" lon="6.33596">
        <ele>1650.2</ele>
        <time>2024-08-10T11:16:51Z</time>
      </trkpt>
      <trkpt lat="45.04091" lon="6.33596">
        <ele>1650.2</ele>
        <time>2024-08-10T11:16:52Z</time>
      </trkpt>
      <trkpt lat="45.04091" lon="6.33596">
        <ele>1650.2</ele>
        <time>2024-08-10T11:16:53Z</time>
      </trkpt>
      <trkpt lat="45.04091" lon="6.33596">
        <ele>1650.2</ele>
        <time>2024-08-10T11:16:54Z</time>
      </trkpt>
      <trkpt lat="45.04091" lon="6.33596">
        <ele>1650.2</ele>
        <time>2024-08-10T11:16:55Z</time>
      </trkpt>
      <trkpt lat="45.04091" lon="6.33596">
        <ele>1650.2</ele>
        <time>2024-08-10T11:16:56Z</time>
      </trkpt>
      <trkpt lat="45.04091" lon="6.33596">
        <ele>1650.2</ele>
        <time>2024-08-10T11:16:57Z</time>
      </trkpt>
      <trkpt lat="45.04091" lon="6.33596">
        <ele>1650</ele>
        <time>2024-08-10T11:16:58Z</time>
      </trkpt>
      <trkpt lat="45.04091" lon="6.33596">
        <ele>1650</ele>
        <time>2024-08-10T11:16:59Z</time>
      </trkpt>
      <trkpt lat="45.04091" lon="6.33596">
        <ele>1650</ele>
        <time>2024-08-10T11:17:00Z</time>
      </trkpt>
      <trkpt lat="45.04091" lon="6.33596">
        <ele>1649.8</ele>
        <time>2024-08-10T11:17:01Z</time>
      </trkpt>
      <trkpt lat="45.04091" lon="6.33596">
        <ele>1649.8</ele>
        <time>2024-08-10T11:17:02Z</time>
      </trkpt>
      <trkpt lat="45.04091" lon="6.33596">
        <ele>1650</ele>
        <time>2024-08-10T11:17:03Z</time>
      </trkpt>
      <trkpt lat="45.04091" lon="6.33596">
        <ele>1650</ele>
        <time>2024-08-10T11:17:04Z</time>
      </trkpt>
      <trkpt lat="45.04091" lon="6.33596">
        <ele>1650</ele>
        <time>2024-08-10T11:17:05Z</time>
      </trkpt>
      <trkpt lat="45.04091" lon="6.33596">
        <ele>1650</ele>
        <time>2024-08-10T11:17:06Z</time>
      </trkpt>
      <trkpt lat="45.04091" lon="6.33596">
        <ele>1649.6</ele>
        <time>2024-08-10T11:17:07Z</time>
      </trkpt>
      <trkpt lat="45.04091" lon="6.33596">
        <ele>1649.6</ele>
        <time>2024-08-10T11:17:08Z</time>
      </trkpt>
      <trkpt lat="45.04091" lon="6.33596">
        <ele>1649.6</ele>
        <time>2024-08-10T11:17:09Z</time>
      </trkpt>
      <trkpt lat="45.04091" lon="6.33596">
        <ele>1649.6</ele>
        <time>2024-08-10T11:17:10Z</time>
      </trkpt>
      <trkpt lat="45.04091" lon="6.33596">
        <ele>1649.6</ele>
        <time>2024-08-10T11:17:11Z</time>
      </trkpt>
      <trkpt lat="45.04091" lon="6.33596">
        <ele>1649.4</ele>
        <time>2024-08-10T11:17:12Z</time>
      </trkpt>
      <trkpt lat="45.04091" lon="6.33596">
        <ele>1649.4</ele>
        <time>2024-08-10T11:17:13Z</time>
      </trkpt>
      <trkpt lat="45.04091" lon="6.33596">
        <ele>1649.6</ele>
        <time>2024-08-10T11:17:14Z</time>
      </trkpt>
      <trkpt lat="45.04091" lon="6.33596">
        <ele>1649.6</ele>
        <time>2024-08-10T11:17:15Z</time>
      </trkpt>
      <trkpt lat="45.04091" lon="6.33596">
        <ele>1649.6</ele>
        <time>2024-08-10T11:17:16Z</time>
      </trkpt>
      <trkpt lat="45.04091" lon="6.33596">
        <ele>1649.6</ele>
        <time>2024-08-10T11:17:17Z</time>
      </trkpt>
      <trkpt lat="45.04091" lon="6.33596">
        <ele>1649.6</ele>
        <time>2024-08-10T11:17:18Z</time>
      </trkpt>
      <trkpt lat="45.04091" lon="6.33596">
        <ele>1649.6</ele>
        <time>2024-08-10T11:17:19Z</time>
      </trkpt>
      <trkpt lat="45.04091" lon="6.33596">
        <ele>1649.8</ele>
        <time>2024-08-10T11:17:20Z</time>
      </trkpt>
      <trkpt lat="45.04091" lon="6.33596">
        <ele>1649.8</ele>
        <time>2024-08-10T11:17:21Z</time>
      </trkpt>
      <trkpt lat="45.04091" lon="6.33596">
        <ele>1649.8</ele>
        <time>2024-08-10T11:17:22Z</time>
      </trkpt>
      <trkpt lat="45.04091" lon="6.33596">
        <ele>1649.8</ele>
        <time>2024-08-10T11:17:23Z</time>
      </trkpt>
      <trkpt lat="45.04091" lon="6.33596">
        <ele>1650</ele>
        <time>2024-08-10T11:17:24Z</time>
      </trkpt>
      <trkpt lat="45.04091" lon="6.33596">
        <ele>1650</ele>
        <time>2024-08-10T11:17:25Z</time>
      </trkpt>
      <trkpt lat="45.04091" lon="6.33596">
        <ele>1650</ele>
        <time>2024-08-10T11:17:26Z</time>
      </trkpt>
      <trkpt lat="45.04091" lon="6.33596">
        <ele>1650</ele>
        <time>2024-08-10T11:17:27Z</time>
      </trkpt>
      <trkpt lat="45.04091" lon="6.33596">
        <ele>1650</ele>
        <time>2024-08-10T11:17:28Z</time>
      </trkpt>
      <trkpt lat="45.04091" lon="6.33596">
        <ele>1650</ele>
        <time>2024-08-10T11:17:29Z</time>
      </trkpt>
      <trkpt lat="45.04091" lon="6.33596">
        <ele>1649.8</ele>
        <time>2024-08-10T11:17:30Z</time>
      </trkpt>
      <trkpt lat="45.04091" lon="6.33596">
        <ele>1649.8</ele>
        <time>2024-08-10T11:17:31Z</time>
      </trkpt>
      <trkpt lat="45.04091" lon="6.33596">
        <ele>1649.8</ele>
        <time>2024-08-10T11:17:32Z</time>
      </trkpt>
      <trkpt lat="45.04091" lon="6.33596">
        <ele>1649.8</ele>
        <time>2024-08-10T11:17:33Z</time>
      </trkpt>
      <trkpt lat="45.04091" lon="6.33596">
        <ele>1649.8</ele>
        <time>2024-08-10T11:17:34Z</time>
      </trkpt>
      <trkpt lat="45.04091" lon="6.33596">
        <ele>1649.8</ele>
        <time>2024-08-10T11:17:35Z</time>
      </trkpt>
      <trkpt lat="45.04091" lon="6.33596">
        <ele>1650</ele>
        <time>2024-08-10T11:17:36Z</time>
      </trkpt>
      <trkpt lat="45.04091" lon="6.33596">
        <ele>1650</ele>
        <time>2024-08-10T11:17:37Z</time>
      </trkpt>
      <trkpt lat="45.04091" lon="6.33596">
        <ele>1650</ele>
        <time>2024-08-10T11:17:38Z</time>
      </trkpt>
      <trkpt lat="45.04091" lon="6.33596">
        <ele>1649.8</ele>
        <time>2024-08-10T11:17:39Z</time>
      </trkpt>
      <trkpt lat="45.04091" lon="6.33596">
        <ele>1649.8</ele>
        <time>2024-08-10T11:17:40Z</time>
      </trkpt>
      <trkpt lat="45.04091" lon="6.33596">
        <ele>1650</ele>
        <time>2024-08-10T11:17:41Z</time>
      </trkpt>
      <trkpt lat="45.04091" lon="6.33596">
        <ele>1650</ele>
        <time>2024-08-10T11:17:42Z</time>
      </trkpt>
      <trkpt lat="45.04091" lon="6.33596">
        <ele>1649.8</ele>
        <time>2024-08-10T11:17:43Z</time>
      </trkpt>
      <trkpt lat="45.04091" lon="6.33596">
        <ele>1649.8</ele>
        <time>2024-08-10T11:17:44Z</time>
      </trkpt>
      <trkpt lat="45.04091" lon="6.33596">
        <ele>1649.8</ele>
        <time>2024-08-10T11:17:45Z</time>
      </trkpt>
      <trkpt lat="45.04091" lon="6.33596">
        <ele>1649.8</ele>
        <time>2024-08-10T11:17:46Z</time>
      </trkpt>
      <trkpt lat="45.04091" lon="6.33596">
        <ele>1650</ele>
        <time>2024-08-10T11:17:47Z</time>
      </trkpt>
      <trkpt lat="45.04091" lon="6.33596">
        <ele>1650</ele>
        <time>2024-08-10T11:17:48Z</time>
      </trkpt>
      <trkpt lat="45.04091" lon="6.33596">
        <ele>1649.8</ele>
        <time>2024-08-10T11:17:49Z</time>
      </trkpt>
      <trkpt lat="45.04091" lon="6.33596">
        <ele>1649.8</ele>
        <time>2024-08-10T11:17:50Z</time>
      </trkpt>
      <trkpt lat="45.04091" lon="6.33596">
        <ele>1649.8</ele>
        <time>2024-08-10T11:17:51Z</time>
      </trkpt>
      <trkpt lat="45.04091" lon="6.33596">
        <ele>1649.8</ele>
        <time>2024-08-10T11:17:52Z</time>
      </trkpt>
      <trkpt lat="45.04091" lon="6.33596">
        <ele>1649.8</ele>
        <time>2024-08-10T11:17:53Z</time>
      </trkpt>
      <trkpt lat="45.04091" lon="6.33596">
        <ele>1649.8</ele>
        <time>2024-08-10T11:17:54Z</time>
      </trkpt>
      <trkpt lat="45.04091" lon="6.33596">
        <ele>1649.8</ele>
        <time>2024-08-10T11:17:55Z</time>
      </trkpt>
      <trkpt lat="45.04091" lon="6.33596">
        <ele>1649.8</ele>
        <time>2024-08-10T11:17:56Z</time>
      </trkpt>
      <trkpt lat="45.04091" lon="6.33596">
        <ele>1649.8</ele>
        <time>2024-08-10T11:17:57Z</time>
      </trkpt>
      <trkpt lat="45.04091" lon="6.33596">
        <ele>1649.6</ele>
        <time>2024-08-10T11:17:58Z</time>
      </trkpt>
      <trkpt lat="45.04091" lon="6.33596">
        <ele>1649.6</ele>
        <time>2024-08-10T11:17:59Z</time>
      </trkpt>
      <trkpt lat="45.04091" lon="6.33596">
        <ele>1649.6</ele>
        <time>2024-08-10T11:18:00Z</time>
      </trkpt>
      <trkpt lat="45.04091" lon="6.33596">
        <ele>1649.6</ele>
        <time>2024-08-10T11:18:01Z</time>
      </trkpt>
      <trkpt lat="45.04091" lon="6.33596">
        <ele>1649.6</ele>
        <time>2024-08-10T11:18:02Z</time>
      </trkpt>
      <trkpt lat="45.04091" lon="6.33596">
        <ele>1649.8</ele>
        <time>2024-08-10T11:18:03Z</time>
      </trkpt>
      <trkpt lat="45.04091" lon="6.33596">
        <ele>1649.8</ele>
        <time>2024-08-10T11:18:04Z</time>
      </trkpt>
      <trkpt lat="45.04091" lon="6.33596">
        <ele>1649.8</ele>
        <time>2024-08-10T11:18:05Z</time>
      </trkpt>
      <trkpt lat="45.04091" lon="6.33596">
        <ele>1649.8</ele>
        <time>2024-08-10T11:18:06Z</time>
      </trkpt>
      <trkpt lat="45.04091" lon="6.33596">
        <ele>1650</ele>
        <time>2024-08-10T11:18:07Z</time>
      </trkpt>
      <trkpt lat="45.04091" lon="6.33596">
        <ele>1650</ele>
        <time>2024-08-10T11:18:08Z</time>
      </trkpt>
      <trkpt lat="45.04091" lon="6.33596">
        <ele>1650</ele>
        <time>2024-08-10T11:18:09Z</time>
      </trkpt>
      <trkpt lat="45.04091" lon="6.33596">
        <ele>1650</ele>
        <time>2024-08-10T11:18:10Z</time>
      </trkpt>
      <trkpt lat="45.04091" lon="6.33596">
        <ele>1650</ele>
        <time>2024-08-10T11:18:11Z</time>
      </trkpt>
      <trkpt lat="45.04091" lon="6.33596">
        <ele>1650</ele>
        <time>2024-08-10T11:18:12Z</time>
      </trkpt>
      <trkpt lat="45.04091" lon="6.33596">
        <ele>1649.6</ele>
        <time>2024-08-10T11:18:13Z</time>
      </trkpt>
      <trkpt lat="45.04091" lon="6.33596">
        <ele>1649.6</ele>
        <time>2024-08-10T11:18:14Z</time>
      </trkpt>
      <trkpt lat="45.04091" lon="6.33596">
        <ele>1649.6</ele>
        <time>2024-08-10T11:18:15Z</time>
      </trkpt>
      <trkpt lat="45.04091" lon="6.33596">
        <ele>1649.8</ele>
        <time>2024-08-10T11:18:16Z</time>
      </trkpt>
      <trkpt lat="45.04091" lon="6.33596">
        <ele>1649.8</ele>
        <time>2024-08-10T11:18:17Z</time>
      </trkpt>
      <trkpt lat="45.04091" lon="6.33596">
        <ele>1649.8</ele>
        <time>2024-08-10T11:18:18Z</time>
      </trkpt>
      <trkpt lat="45.04091" lon="6.33596">
        <ele>1650</ele>
        <time>2024-08-10T11:18:19Z</time>
      </trkpt>
      <trkpt lat="45.04091" lon="6.33596">
        <ele>1650</ele>
        <time>2024-08-10T11:18:20Z</time>
      </trkpt>
      <trkpt lat="45.04091" lon="6.33596">
        <ele>1650</ele>
        <time>2024-08-10T11:18:21Z</time>
      </trkpt>
      <trkpt lat="45.04091" lon="6.33596">
        <ele>1650</ele>
        <time>2024-08-10T11:18:22Z</time>
      </trkpt>
      <trkpt lat="45.04091" lon="6.33596">
        <ele>1650</ele>
        <time>2024-08-10T11:18:23Z</time>
      </trkpt>
      <trkpt lat="45.04091" lon="6.33596">
        <ele>1650</ele>
        <time>2024-08-10T11:18:24Z</time>
      </trkpt>
      <trkpt lat="45.04091" lon="6.33596">
        <ele>1650</ele>
        <time>2024-08-10T11:18:25Z</time>
      </trkpt>
      <trkpt lat="45.04091" lon="6.33596">
        <ele>1650</ele>
        <time>2024-08-10T11:18:26Z</time>
      </trkpt>
      <trkpt lat="45.04091" lon="6.33596">
        <ele>1649.8</ele>
        <time>2024-08-10T11:18:27Z</time>
      </trkpt>
      <trkpt lat="45.04091" lon="6.33596">
        <ele>1649.8</ele>
        <time>2024-08-10T11:18:28Z</time>
      </trkpt>
      <trkpt lat="45.04091" lon="6.33596">
        <ele>1649.8</ele>
        <time>2024-08-10T11:18:29Z</time>
      </trkpt>
      <trkpt lat="45.04091" lon="6.33596">
        <ele>1649.8</ele>
        <time>2024-08-10T11:18:30Z</time>
      </trkpt>
      <trkpt lat="45.04091" lon="6.33596">
        <ele>1649.8</ele>
        <time>2024-08-10T11:18:31Z</time>
      </trkpt>
      <trkpt lat="45.04091" lon="6.33596">
        <ele>1649.8</ele>
        <time>2024-08-10T11:18:32Z</time>
      </trkpt>
      <trkpt lat="45.04091" lon="6.33596">
        <ele>1649.8</ele>
        <time>2024-08-10T11:18:33Z</time>
      </trkpt>
      <trkpt lat="45.04091" lon="6.33596">
        <ele>1649.8</ele>
        <time>2024-08-10T11:18:34Z</time>
      </trkpt>
      <trkpt lat="45.04091" lon="6.33596">
        <ele>1649.8</ele>
        <time>2024-08-10T11:18:35Z</time>
      </trkpt>
      <trkpt lat="45.04091" lon="6.33596">
        <ele>1649.8</ele>
        <time>2024-08-10T11:18:36Z</time>
      </trkpt>
      <trkpt lat="45.04091" lon="6.33596">
        <ele>1649.8</ele>
        <time>2024-08-10T11:18:37Z</time>
      </trkpt>
      <trkpt lat="45.04091" lon="6.33596">
        <ele>1649.8</ele>
        <time>2024-08-10T11:18:38Z</time>
      </trkpt>
      <trkpt lat="45.04091" lon="6.33596">
        <ele>1649.8</ele>
        <time>2024-08-10T11:18:39Z</time>
      </trkpt>
      <trkpt lat="45.04091" lon="6.33596">
        <ele>1649.8</ele>
        <time>2024-08-10T11:18:40Z</time>
      </trkpt>
      <trkpt lat="45.04091" lon="6.33596">
        <ele>1649.8</ele>
        <time>2024-08-10T11:18:41Z</time>
      </trkpt>
      <trkpt lat="45.04091" lon="6.33596">
        <ele>1650</ele>
        <time>2024-08-10T11:18:42Z</time>
      </trkpt>
      <trkpt lat="45.04091" lon="6.33596">
        <ele>1650</ele>
        <time>2024-08-10T11:18:43Z</time>
      </trkpt>
      <trkpt lat="45.04091" lon="6.33596">
        <ele>1649.6</ele>
        <time>2024-08-10T11:18:44Z</time>
      </trkpt>
      <trkpt lat="45.04091" lon="6.33596">
        <ele>1649.6</ele>
        <time>2024-08-10T11:18:45Z</time>
      </trkpt>
      <trkpt lat="45.04091" lon="6.33596">
        <ele>1649.6</ele>
        <time>2024-08-10T11:18:46Z</time>
      </trkpt>
      <trkpt lat="45.04091" lon="6.33596">
        <ele>1649.8</ele>
        <time>2024-08-10T11:18:47Z</time>
      </trkpt>
      <trkpt lat="45.04091" lon="6.33596">
        <ele>1649.8</ele>
        <time>2024-08-10T11:18:48Z</time>
      </trkpt>
      <trkpt lat="45.04091" lon="6.33596">
        <ele>1649.6</ele>
        <time>2024-08-10T11:18:49Z</time>
      </trkpt>
      <trkpt lat="45.04091" lon="6.33596">
        <ele>1649.6</ele>
        <time>2024-08-10T11:18:50Z</time>
      </trkpt>
      <trkpt lat="45.04091" lon="6.33596">
        <ele>1649.8</ele>
        <time>2024-08-10T11:18:51Z</time>
      </trkpt>
      <trkpt lat="45.04091" lon="6.33596">
        <ele>1649.8</ele>
        <time>2024-08-10T11:18:52Z</time>
      </trkpt>
      <trkpt lat="45.04091" lon="6.33596">
        <ele>1649.8</ele>
        <time>2024-08-10T11:18:53Z</time>
      </trkpt>
      <trkpt lat="45.04091" lon="6.33596">
        <ele>1649.8</ele>
        <time>2024-08-10T11:18:54Z</time>
      </trkpt>
      <trkpt lat="45.04091" lon="6.33596">
        <ele>1649.8</ele>
        <time>2024-08-10T11:18:55Z</time>
      </trkpt>
      <trkpt lat="45.04091" lon="6.33596">
        <ele>1649.8</ele>
        <time>2024-08-10T11:18:56Z</time>
      </trkpt>
      <trkpt lat="45.04091" lon="6.33596">
        <ele>1650</ele>
        <time>2024-08-10T11:18:57Z</time>
      </trkpt>
      <trkpt lat="45.04091" lon="6.33596">
        <ele>1650</ele>
        <time>2024-08-10T11:18:58Z</time>
      </trkpt>
      <trkpt lat="45.04091" lon="6.33596">
        <ele>1650</ele>
        <time>2024-08-10T11:18:59Z</time>
      </trkpt>
      <trkpt lat="45.04091" lon="6.33596">
        <ele>1650</ele>
        <time>2024-08-10T11:19:00Z</time>
      </trkpt>
      <trkpt lat="45.04091" lon="6.33596">
        <ele>1650</ele>
        <time>2024-08-10T11:19:01Z</time>
      </trkpt>
      <trkpt lat="45.04091" lon="6.33596">
        <ele>1650</ele>
        <time>2024-08-10T11:19:02Z</time>
      </trkpt>
      <trkpt lat="45.04091" lon="6.33596">
        <ele>1650</ele>
        <time>2024-08-10T11:19:03Z</time>
      </trkpt>
      <trkpt lat="45.04091" lon="6.33596">
        <ele>1650</ele>
        <time>2024-08-10T11:19:04Z</time>
      </trkpt>
      <trkpt lat="45.04091" lon="6.33596">
        <ele>1650</ele>
        <time>2024-08-10T11:19:05Z</time>
      </trkpt>
      <trkpt lat="45.04091" lon="6.33596">
        <ele>1650</ele>
        <time>2024-08-10T11:19:06Z</time>
      </trkpt>
      <trkpt lat="45.04091" lon="6.33596">
        <ele>1650</ele>
        <time>2024-08-10T11:19:07Z</time>
      </trkpt>
      <trkpt lat="45.04091" lon="6.33596">
        <ele>1649.8</ele>
        <time>2024-08-10T11:19:08Z</time>
      </trkpt>
      <trkpt lat="45.04091" lon="6.33596">
        <ele>1649.8</ele>
        <time>2024-08-10T11:19:09Z</time>
      </trkpt>
      <trkpt lat="45.04091" lon="6.33596">
        <ele>1650</ele>
        <time>2024-08-10T11:19:10Z</time>
      </trkpt>
      <trkpt lat="45.04091" lon="6.33596">
        <ele>1650</ele>
        <time>2024-08-10T11:19:11Z</time>
      </trkpt>
      <trkpt lat="45.04091" lon="6.33596">
        <ele>1650</ele>
        <time>2024-08-10T11:19:12Z</time>
      </trkpt>
      <trkpt lat="45.04091" lon="6.33596">
        <ele>1649.8</ele>
        <time>2024-08-10T11:19:13Z</time>
      </trkpt>
      <trkpt lat="45.04091" lon="6.33596">
        <ele>1649.6</ele>
        <time>2024-08-10T11:19:14Z</time>
      </trkpt>
      <trkpt lat="45.04091" lon="6.33596">
        <ele>1649.6</ele>
        <time>2024-08-10T11:19:15Z</time>
      </trkpt>
      <trkpt lat="45.04091" lon="6.33596">
        <ele>1650</ele>
        <time>2024-08-10T11:19:16Z</time>
      </trkpt>
      <trkpt lat="45.04091" lon="6.33596">
        <ele>1650</ele>
        <time>2024-08-10T11:19:17Z</time>
      </trkpt>
      <trkpt lat="45.04091" lon="6.33596">
        <ele>1650</ele>
        <time>2024-08-10T11:19:18Z</time>
      </trkpt>
      <trkpt lat="45.04091" lon="6.33596">
        <ele>1650</ele>
        <time>2024-08-10T11:19:19Z</time>
      </trkpt>
      <trkpt lat="45.04091" lon="6.33596">
        <ele>1650</ele>
        <time>2024-08-10T11:19:20Z</time>
      </trkpt>
      <trkpt lat="45.04091" lon="6.33596">
        <ele>1649.8</ele>
        <time>2024-08-10T11:19:21Z</time>
      </trkpt>
      <trkpt lat="45.04091" lon="6.33596">
        <ele>1649.8</ele>
        <time>2024-08-10T11:19:22Z</time>
      </trkpt>
      <trkpt lat="45.04091" lon="6.33596">
        <ele>1649.8</ele>
        <time>2024-08-10T11:19:23Z</time>
      </trkpt>
      <trkpt lat="45.04091" lon="6.33596">
        <ele>1649.8</ele>
        <time>2024-08-10T11:19:24Z</time>
      </trkpt>
      <trkpt lat="45.04091" lon="6.33596">
        <ele>1649.8</ele>
        <time>2024-08-10T11:19:25Z</time>
      </trkpt>
      <trkpt lat="45.04091" lon="6.33596">
        <ele>1649.8</ele>
        <time>2024-08-10T11:19:26Z</time>
      </trkpt>
      <trkpt lat="45.04091" lon="6.33596">
        <ele>1649.8</ele>
        <time>2024-08-10T11:19:27Z</time>
      </trkpt>
      <trkpt lat="45.04091" lon="6.33596">
        <ele>1649.8</ele>
        <time>2024-08-10T11:19:28Z</time>
      </trkpt>
      <trkpt lat="45.04091" lon="6.33596">
        <ele>1649.8</ele>
        <time>2024-08-10T11:19:29Z</time>
      </trkpt>
      <trkpt lat="45.04091" lon="6.33596">
        <ele>1649.8</ele>
        <time>2024-08-10T11:19:30Z</time>
      </trkpt>
      <trkpt lat="45.04091" lon="6.33596">
        <ele>1649.8</ele>
        <time>2024-08-10T11:19:31Z</time>
      </trkpt>
      <trkpt lat="45.04091" lon="6.33596">
        <ele>1649.8</ele>
        <time>2024-08-10T11:19:32Z</time>
      </trkpt>
      <trkpt lat="45.04091" lon="6.33596">
        <ele>1649.8</ele>
        <time>2024-08-10T11:19:33Z</time>
      </trkpt>
      <trkpt lat="45.04091" lon="6.33596">
        <ele>1650</ele>
        <time>2024-08-10T11:19:34Z</time>
      </trkpt>
      <trkpt lat="45.04091" lon="6.33596">
        <ele>1650</ele>
        <time>2024-08-10T11:19:35Z</time>
      </trkpt>
      <trkpt lat="45.04091" lon="6.33596">
        <ele>1650</ele>
        <time>2024-08-10T11:19:36Z</time>
      </trkpt>
      <trkpt lat="45.04091" lon="6.33596">
        <ele>1650</ele>
        <time>2024-08-10T11:19:37Z</time>
      </trkpt>
      <trkpt lat="45.04091" lon="6.33596">
        <ele>1650</ele>
        <time>2024-08-10T11:19:38Z</time>
      </trkpt>
      <trkpt lat="45.04091" lon="6.33596">
        <ele>1650</ele>
        <time>2024-08-10T11:19:39Z</time>
      </trkpt>
      <trkpt lat="45.04091" lon="6.33596">
        <ele>1650</ele>
        <time>2024-08-10T11:19:40Z</time>
      </trkpt>
      <trkpt lat="45.04091" lon="6.33596">
        <ele>1649.8</ele>
        <time>2024-08-10T11:19:41Z</time>
      </trkpt>
      <trkpt lat="45.04091" lon="6.33596">
        <ele>1649.8</ele>
        <time>2024-08-10T11:19:42Z</time>
      </trkpt>
      <trkpt lat="45.04091" lon="6.33596">
        <ele>1650</ele>
        <time>2024-08-10T11:19:43Z</time>
      </trkpt>
      <trkpt lat="45.04091" lon="6.33596">
        <ele>1650</ele>
        <time>2024-08-10T11:19:44Z</time>
      </trkpt>
      <trkpt lat="45.04091" lon="6.33596">
        <ele>1650</ele>
        <time>2024-08-10T11:19:45Z</time>
      </trkpt>
      <trkpt lat="45.04091" lon="6.33596">
        <ele>1649.8</ele>
        <time>2024-08-10T11:19:46Z</time>
      </trkpt>
      <trkpt lat="45.04091" lon="6.33596">
        <ele>1649.8</ele>
        <time>2024-08-10T11:19:47Z</time>
      </trkpt>
      <trkpt lat="45.04091" lon="6.33596">
        <ele>1649.8</ele>
        <time>2024-08-10T11:19:48Z</time>
      </trkpt>
      <trkpt lat="45.04091" lon="6.33596">
        <ele>1650</ele>
        <time>2024-08-10T11:19:49Z</time>
      </trkpt>
      <trkpt lat="45.04091" lon="6.33596">
        <ele>1650</ele>
        <time>2024-08-10T11:19:50Z</time>
      </trkpt>
      <trkpt lat="45.04091" lon="6.33596">
        <ele>1650</ele>
        <time>2024-08-10T11:19:51Z</time>
      </trkpt>
      <trkpt lat="45.04091" lon="6.33596">
        <ele>1650</ele>
        <time>2024-08-10T11:19:52Z</time>
      </trkpt>
      <trkpt lat="45.04091" lon="6.33596">
        <ele>1650</ele>
        <time>2024-08-10T11:19:53Z</time>
      </trkpt>
      <trkpt lat="45.04091" lon="6.33596">
        <ele>1650</ele>
        <time>2024-08-10T11:19:54Z</time>
      </trkpt>
      <trkpt lat="45.04091" lon="6.33596">
        <ele>1650.2</ele>
        <time>2024-08-10T11:19:55Z</time>
      </trkpt>
      <trkpt lat="45.04091" lon="6.33596">
        <ele>1650.2</ele>
        <time>2024-08-10T11:19:56Z</time>
      </trkpt>
      <trkpt lat="45.04091" lon="6.33596">
        <ele>1650.2</ele>
        <time>2024-08-10T11:19:57Z</time>
      </trkpt>
      <trkpt lat="45.04091" lon="6.33596">
        <ele>1650</ele>
        <time>2024-08-10T11:19:58Z</time>
      </trkpt>
      <trkpt lat="45.04091" lon="6.33596">
        <ele>1650</ele>
        <time>2024-08-10T11:19:59Z</time>
      </trkpt>
      <trkpt lat="45.04091" lon="6.33596">
        <ele>1649.8</ele>
        <time>2024-08-10T11:20:00Z</time>
      </trkpt>
      <trkpt lat="45.04091" lon="6.33596">
        <ele>1649.8</ele>
        <time>2024-08-10T11:20:01Z</time>
      </trkpt>
      <trkpt lat="45.04091" lon="6.33596">
        <ele>1649.8</ele>
        <time>2024-08-10T11:20:02Z</time>
      </trkpt>
      <trkpt lat="45.04091" lon="6.33596">
        <ele>1650</ele>
        <time>2024-08-10T11:20:03Z</time>
      </trkpt>
      <trkpt lat="45.04091" lon="6.33596">
        <ele>1650</ele>
        <time>2024-08-10T11:20:04Z</time>
      </trkpt>
      <trkpt lat="45.04091" lon="6.33596">
        <ele>1650</ele>
        <time>2024-08-10T11:20:05Z</time>
      </trkpt>
      <trkpt lat="45.04091" lon="6.33596">
        <ele>1650</ele>
        <time>2024-08-10T11:20:06Z</time>
      </trkpt>
      <trkpt lat="45.04091" lon="6.33596">
        <ele>1650</ele>
        <time>2024-08-10T11:20:07Z</time>
      </trkpt>
      <trkpt lat="45.04091" lon="6.33596">
        <ele>1650</ele>
        <time>2024-08-10T11:20:08Z</time>
      </trkpt>
      <trkpt lat="45.04091" lon="6.33596">
        <ele>1650</ele>
        <time>2024-08-10T11:20:09Z</time>
      </trkpt>
      <trkpt lat="45.04091" lon="6.33596">
        <ele>1650</ele>
        <time>2024-08-10T11:20:10Z</time>
      </trkpt>
      <trkpt lat="45.04091" lon="6.33596">
        <ele>1650</ele>
        <time>2024-08-10T11:20:11Z</time>
      </trkpt>
      <trkpt lat="45.04091" lon="6.33596">
        <ele>1650</ele>
        <time>2024-08-10T11:20:12Z</time>
      </trkpt>
      <trkpt lat="45.04091" lon="6.33596">
        <ele>1649.8</ele>
        <time>2024-08-10T11:20:13Z</time>
      </trkpt>
      <trkpt lat="45.04091" lon="6.33596">
        <ele>1649.8</ele>
        <time>2024-08-10T11:20:14Z</time>
      </trkpt>
      <trkpt lat="45.04091" lon="6.33596">
        <ele>1650</ele>
        <time>2024-08-10T11:20:15Z</time>
      </trkpt>
      <trkpt lat="45.04091" lon="6.33596">
        <ele>1650</ele>
        <time>2024-08-10T11:20:16Z</time>
      </trkpt>
      <trkpt lat="45.04091" lon="6.33596">
        <ele>1650</ele>
        <time>2024-08-10T11:20:17Z</time>
      </trkpt>
      <trkpt lat="45.04091" lon="6.33596">
        <ele>1650</ele>
        <time>2024-08-10T11:20:18Z</time>
      </trkpt>
      <trkpt lat="45.04091" lon="6.33596">
        <ele>1650</ele>
        <time>2024-08-10T11:20:19Z</time>
      </trkpt>
      <trkpt lat="45.04091" lon="6.33596">
        <ele>1650</ele>
        <time>2024-08-10T11:20:20Z</time>
      </trkpt>
      <trkpt lat="45.04091" lon="6.33596">
        <ele>1650</ele>
        <time>2024-08-10T11:20:21Z</time>
      </trkpt>
      <trkpt lat="45.04091" lon="6.33596">
        <ele>1650</ele>
        <time>2024-08-10T11:20:22Z</time>
      </trkpt>
      <trkpt lat="45.04091" lon="6.33596">
        <ele>1650</ele>
        <time>2024-08-10T11:20:23Z</time>
      </trkpt>
      <trkpt lat="45.04091" lon="6.33596">
        <ele>1650</ele>
        <time>2024-08-10T11:20:24Z</time>
      </trkpt>
      <trkpt lat="45.04091" lon="6.33596">
        <ele>1650</ele>
        <time>2024-08-10T11:20:25Z</time>
      </trkpt>
      <trkpt lat="45.04091" lon="6.33596">
        <ele>1650</ele>
        <time>2024-08-10T11:20:26Z</time>
      </trkpt>
      <trkpt lat="45.04091" lon="6.33596">
        <ele>1650</ele>
        <time>2024-08-10T11:20:27Z</time>
      </trkpt>
      <trkpt lat="45.04091" lon="6.33596">
        <ele>1650</ele>
        <time>2024-08-10T11:20:28Z</time>
      </trkpt>
      <trkpt lat="45.04091" lon="6.33596">
        <ele>1650</ele>
        <time>2024-08-10T11:20:29Z</time>
      </trkpt>
      <trkpt lat="45.04091" lon="6.33596">
        <ele>1650.2</ele>
        <time>2024-08-10T11:20:30Z</time>
      </trkpt>
      <trkpt lat="45.04091" lon="6.33596">
        <ele>1650.2</ele>
        <time>2024-08-10T11:20:31Z</time>
      </trkpt>
      <trkpt lat="45.04091" lon="6.33596">
        <ele>1650</ele>
        <time>2024-08-10T11:20:32Z</time>
      </trkpt>
      <trkpt lat="45.04091" lon="6.33596">
        <ele>1649.8</ele>
        <time>2024-08-10T11:20:33Z</time>
      </trkpt>
      <trkpt lat="45.04091" lon="6.33596">
        <ele>1649.8</ele>
        <time>2024-08-10T11:20:34Z</time>
      </trkpt>
      <trkpt lat="45.04091" lon="6.33596">
        <ele>1650.2</ele>
        <time>2024-08-10T11:20:35Z</time>
      </trkpt>
      <trkpt lat="45.04091" lon="6.33596">
        <ele>1650.2</ele>
        <time>2024-08-10T11:20:36Z</time>
      </trkpt>
      <trkpt lat="45.04091" lon="6.33596">
        <ele>1650</ele>
        <time>2024-08-10T11:20:37Z</time>
      </trkpt>
      <trkpt lat="45.04091" lon="6.33596">
        <ele>1650</ele>
        <time>2024-08-10T11:20:38Z</time>
      </trkpt>
      <trkpt lat="45.04091" lon="6.33596">
        <ele>1650</ele>
        <time>2024-08-10T11:20:39Z</time>
      </trkpt>
      <trkpt lat="45.04091" lon="6.33596">
        <ele>1650</ele>
        <time>2024-08-10T11:20:40Z</time>
      </trkpt>
      <trkpt lat="45.04091" lon="6.33596">
        <ele>1650</ele>
        <time>2024-08-10T11:20:41Z</time>
      </trkpt>
      <trkpt lat="45.04091" lon="6.33596">
        <ele>1650</ele>
        <time>2024-08-10T11:20:42Z</time>
      </trkpt>
      <trkpt lat="45.04091" lon="6.33596">
        <ele>1650.2</ele>
        <time>2024-08-10T11:20:43Z</time>
      </trkpt>
      <trkpt lat="45.04091" lon="6.33596">
        <ele>1650.2</ele>
        <time>2024-08-10T11:20:44Z</time>
      </trkpt>
      <trkpt lat="45.04091" lon="6.33596">
        <ele>1650.2</ele>
        <time>2024-08-10T11:20:45Z</time>
      </trkpt>
      <trkpt lat="45.04091" lon="6.33596">
        <ele>1650.2</ele>
        <time>2024-08-10T11:20:46Z</time>
      </trkpt>
      <trkpt lat="45.04091" lon="6.33596">
        <ele>1650.4</ele>
        <time>2024-08-10T11:20:47Z</time>
      </trkpt>
      <trkpt lat="45.04091" lon="6.33596">
        <ele>1650.4</ele>
        <time>2024-08-10T11:20:48Z</time>
      </trkpt>
      <trkpt lat="45.04091" lon="6.33596">
        <ele>1650.2</ele>
        <time>2024-08-10T11:20:49Z</time>
      </trkpt>
      <trkpt lat="45.04091" lon="6.33596">
        <ele>1650.2</ele>
        <time>2024-08-10T11:20:50Z</time>
      </trkpt>
      <trkpt lat="45.04091" lon="6.33596">
        <ele>1650.2</ele>
        <time>2024-08-10T11:20:51Z</time>
      </trkpt>
      <trkpt lat="45.04091" lon="6.33596">
        <ele>1650</ele>
        <time>2024-08-10T11:20:52Z</time>
      </trkpt>
      <trkpt lat="45.04091" lon="6.33596">
        <ele>1650</ele>
        <time>2024-08-10T11:20:53Z</time>
      </trkpt>
      <trkpt lat="45.04091" lon="6.33596">
        <ele>1650</ele>
        <time>2024-08-10T11:20:54Z</time>
      </trkpt>
      <trkpt lat="45.04091" lon="6.33596">
        <ele>1650</ele>
        <time>2024-08-10T11:20:55Z</time>
      </trkpt>
      <trkpt lat="45.04091" lon="6.33596">
        <ele>1650</ele>
        <time>2024-08-10T11:20:56Z</time>
      </trkpt>
      <trkpt lat="45.04091" lon="6.33596">
        <ele>1650</ele>
        <time>2024-08-10T11:20:57Z</time>
      </trkpt>
      <trkpt lat="45.04091" lon="6.33596">
        <ele>1650</ele>
        <time>2024-08-10T11:20:58Z</time>
      </trkpt>
      <trkpt lat="45.04091" lon="6.33596">
        <ele>1650</ele>
        <time>2024-08-10T11:20:59Z</time>
      </trkpt>
      <trkpt lat="45.04091" lon="6.33596">
        <ele>1650</ele>
        <time>2024-08-10T11:21:00Z</time>
      </trkpt>
      <trkpt lat="45.04091" lon="6.33596">
        <ele>1650.2</ele>
        <time>2024-08-10T11:21:01Z</time>
      </trkpt>
      <trkpt lat="45.04091" lon="6.33596">
        <ele>1650.2</ele>
        <time>2024-08-10T11:21:02Z</time>
      </trkpt>
      <trkpt lat="45.04091" lon="6.33596">
        <ele>1650</ele>
        <time>2024-08-10T11:21:03Z</time>
      </trkpt>
      <trkpt lat="45.04091" lon="6.33596">
        <ele>1650</ele>
        <time>2024-08-10T11:21:04Z</time>
      </trkpt>
      <trkpt lat="45.04091" lon="6.33596">
        <ele>1650</ele>
        <time>2024-08-10T11:21:05Z</time>
      </trkpt>
      <trkpt lat="45.04091" lon="6.33596">
        <ele>1650.2</ele>
        <time>2024-08-10T11:21:06Z</time>
      </trkpt>
      <trkpt lat="45.04091" lon="6.33596">
        <ele>1650.2</ele>
        <time>2024-08-10T11:21:07Z</time>
      </trkpt>
      <trkpt lat="45.04091" lon="6.33596">
        <ele>1650.2</ele>
        <time>2024-08-10T11:21:08Z</time>
      </trkpt>
      <trkpt lat="45.04091" lon="6.33596">
        <ele>1650.2</ele>
        <time>2024-08-10T11:21:09Z</time>
      </trkpt>
      <trkpt lat="45.04091" lon="6.33596">
        <ele>1650.4</ele>
        <time>2024-08-10T11:21:10Z</time>
      </trkpt>
      <trkpt lat="45.04091" lon="6.33596">
        <ele>1650.4</ele>
        <time>2024-08-10T11:21:11Z</time>
      </trkpt>
      <trkpt lat="45.04091" lon="6.33596">
        <ele>1650.4</ele>
        <time>2024-08-10T11:21:12Z</time>
      </trkpt>
      <trkpt lat="45.04091" lon="6.33596">
        <ele>1650.2</ele>
        <time>2024-08-10T11:21:13Z</time>
      </trkpt>
      <trkpt lat="45.04091" lon="6.33596">
        <ele>1650.2</ele>
        <time>2024-08-10T11:21:14Z</time>
      </trkpt>
      <trkpt lat="45.04091" lon="6.33596">
        <ele>1650.2</ele>
        <time>2024-08-10T11:21:15Z</time>
      </trkpt>
      <trkpt lat="45.04091" lon="6.33596">
        <ele>1650.4</ele>
        <time>2024-08-10T11:21:16Z</time>
      </trkpt>
      <trkpt lat="45.04091" lon="6.33596">
        <ele>1650.4</ele>
        <time>2024-08-10T11:21:17Z</time>
      </trkpt>
      <trkpt lat="45.04091" lon="6.33596">
        <ele>1650.2</ele>
        <time>2024-08-10T11:21:18Z</time>
      </trkpt>
      <trkpt lat="45.04091" lon="6.33596">
        <ele>1650.2</ele>
        <time>2024-08-10T11:21:19Z</time>
      </trkpt>
      <trkpt lat="45.04091" lon="6.33596">
        <ele>1650.4</ele>
        <time>2024-08-10T11:21:20Z</time>
      </trkpt>
      <trkpt lat="45.04091" lon="6.33596">
        <ele>1650.4</ele>
        <time>2024-08-10T11:21:21Z</time>
      </trkpt>
      <trkpt lat="45.04091" lon="6.33596">
        <ele>1650.4</ele>
        <time>2024-08-10T11:21:22Z</time>
      </trkpt>
      <trkpt lat="45.04091" lon="6.33596">
        <ele>1650.4</ele>
        <time>2024-08-10T11:21:23Z</time>
      </trkpt>
      <trkpt lat="45.04091" lon="6.33596">
        <ele>1650.4</ele>
        <time>2024-08-10T11:21:24Z</time>
      </trkpt>
      <trkpt lat="45.04091" lon="6.33596">
        <ele>1650.4</ele>
        <time>2024-08-10T11:21:25Z</time>
      </trkpt>
      <trkpt lat="45.04091" lon="6.33596">
        <ele>1650.2</ele>
        <time>2024-08-10T11:21:26Z</time>
      </trkpt>
      <trkpt lat="45.04091" lon="6.33596">
        <ele>1650.2</ele>
        <time>2024-08-10T11:21:27Z</time>
      </trkpt>
      <trkpt lat="45.04091" lon="6.33596">
        <ele>1650</ele>
        <time>2024-08-10T11:21:28Z</time>
      </trkpt>
      <trkpt lat="45.04091" lon="6.33596">
        <ele>1650</ele>
        <time>2024-08-10T11:21:29Z</time>
      </trkpt>
      <trkpt lat="45.04091" lon="6.33596">
        <ele>1650.4</ele>
        <time>2024-08-10T11:21:30Z</time>
      </trkpt>
      <trkpt lat="45.04091" lon="6.33596">
        <ele>1650.4</ele>
        <time>2024-08-10T11:21:31Z</time>
      </trkpt>
      <trkpt lat="45.04091" lon="6.33596">
        <ele>1650.2</ele>
        <time>2024-08-10T11:21:32Z</time>
      </trkpt>
      <trkpt lat="45.04091" lon="6.33596">
        <ele>1650.2</ele>
        <time>2024-08-10T11:21:33Z</time>
      </trkpt>
      <trkpt lat="45.04091" lon="6.33596">
        <ele>1650.2</ele>
        <time>2024-08-10T11:21:34Z</time>
      </trkpt>
      <trkpt lat="45.04091" lon="6.33596">
        <ele>1650.2</ele>
        <time>2024-08-10T11:21:35Z</time>
      </trkpt>
      <trkpt lat="45.04091" lon="6.33596">
        <ele>1650.2</ele>
        <time>2024-08-10T11:21:36Z</time>
      </trkpt>
      <trkpt lat="45.04091" lon="6.33596">
        <ele>1650.2</ele>
        <time>2024-08-10T11:21:37Z</time>
      </trkpt>
      <trkpt lat="45.04091" lon="6.33596">
        <ele>1650.4</ele>
        <time>2024-08-10T11:21:38Z</time>
      </trkpt>
      <trkpt lat="45.04091" lon="6.33596">
        <ele>1650.4</ele>
        <time>2024-08-10T11:21:39Z</time>
      </trkpt>
      <trkpt lat="45.04091" lon="6.33596">
        <ele>1650.4</ele>
        <time>2024-08-10T11:21:40Z</time>
      </trkpt>
      <trkpt lat="45.04091" lon="6.33596">
        <ele>1650.2</ele>
        <time>2024-08-10T11:21:41Z</time>
      </trkpt>
      <trkpt lat="45.04091" lon="6.33596">
        <ele>1650</ele>
        <time>2024-08-10T11:21:42Z</time>
      </trkpt>
      <trkpt lat="45.04091" lon="6.33596">
        <ele>1650</ele>
        <time>2024-08-10T11:21:43Z</time>
      </trkpt>
      <trkpt lat="45.04091" lon="6.33596">
        <ele>1650</ele>
        <time>2024-08-10T11:21:44Z</time>
      </trkpt>
      <trkpt lat="45.04091" lon="6.33596">
        <ele>1650</ele>
        <time>2024-08-10T11:21:45Z</time>
      </trkpt>
      <trkpt lat="45.04091" lon="6.33596">
        <ele>1650</ele>
        <time>2024-08-10T11:21:46Z</time>
      </trkpt>
      <trkpt lat="45.04091" lon="6.33596">
        <ele>1650.2</ele>
        <time>2024-08-10T11:21:47Z</time>
      </trkpt>
      <trkpt lat="45.04091" lon="6.33596">
        <ele>1650.2</ele>
        <time>2024-08-10T11:21:48Z</time>
      </trkpt>
      <trkpt lat="45.04091" lon="6.33596">
        <ele>1650.2</ele>
        <time>2024-08-10T11:21:49Z</time>
      </trkpt>
      <trkpt lat="45.04091" lon="6.33596">
        <ele>1650.2</ele>
        <time>2024-08-10T11:21:50Z</time>
      </trkpt>
      <trkpt lat="45.04091" lon="6.33596">
        <ele>1650.2</ele>
        <time>2024-08-10T11:21:51Z</time>
      </trkpt>
      <trkpt lat="45.04091" lon="6.33596">
        <ele>1650.2</ele>
        <time>2024-08-10T11:21:52Z</time>
      </trkpt>
      <trkpt lat="45.04091" lon="6.33596">
        <ele>1650.4</ele>
        <time>2024-08-10T11:21:53Z</time>
      </trkpt>
      <trkpt lat="45.04091" lon="6.33596">
        <ele>1650.4</ele>
        <time>2024-08-10T11:21:54Z</time>
      </trkpt>
      <trkpt lat="45.04091" lon="6.33596">
        <ele>1650.4</ele>
        <time>2024-08-10T11:21:55Z</time>
      </trkpt>
      <trkpt lat="45.04091" lon="6.33596">
        <ele>1650.4</ele>
        <time>2024-08-10T11:21:56Z</time>
      </trkpt>
      <trkpt lat="45.04091" lon="6.33596">
        <ele>1650.4</ele>
        <time>2024-08-10T11:21:57Z</time>
      </trkpt>
      <trkpt lat="45.04091" lon="6.33596">
        <ele>1650.4</ele>
        <time>2024-08-10T11:21:58Z</time>
      </trkpt>
      <trkpt lat="45.04091" lon="6.33596">
        <ele>1650.4</ele>
        <time>2024-08-10T11:21:59Z</time>
      </trkpt>
      <trkpt lat="45.04091" lon="6.33596">
        <ele>1650.4</ele>
        <time>2024-08-10T11:22:00Z</time>
      </trkpt>
      <trkpt lat="45.04091" lon="6.33596">
        <ele>1650.4</ele>
        <time>2024-08-10T11:22:01Z</time>
      </trkpt>
      <trkpt lat="45.04091" lon="6.33596">
        <ele>1650.4</ele>
        <time>2024-08-10T11:22:02Z</time>
      </trkpt>
      <trkpt lat="45.04091" lon="6.33596">
        <ele>1650.6</ele>
        <time>2024-08-10T11:22:03Z</time>
      </trkpt>
      <trkpt lat="45.04091" lon="6.33596">
        <ele>1650.6</ele>
        <time>2024-08-10T11:22:04Z</time>
      </trkpt>
      <trkpt lat="45.04091" lon="6.33596">
        <ele>1650.4</ele>
        <time>2024-08-10T11:22:05Z</time>
      </trkpt>
      <trkpt lat="45.04091" lon="6.33596">
        <ele>1650.4</ele>
        <time>2024-08-10T11:22:06Z</time>
      </trkpt>
      <trkpt lat="45.04091" lon="6.33596">
        <ele>1650.4</ele>
        <time>2024-08-10T11:22:07Z</time>
      </trkpt>
      <trkpt lat="45.04091" lon="6.33596">
        <ele>1650.6</ele>
        <time>2024-08-10T11:22:08Z</time>
      </trkpt>
      <trkpt lat="45.04091" lon="6.33596">
        <ele>1650.6</ele>
        <time>2024-08-10T11:22:09Z</time>
      </trkpt>
      <trkpt lat="45.04091" lon="6.33596">
        <ele>1650.6</ele>
        <time>2024-08-10T11:22:10Z</time>
      </trkpt>
      <trkpt lat="45.04091" lon="6.33596">
        <ele>1650.4</ele>
        <time>2024-08-10T11:22:11Z</time>
      </trkpt>
      <trkpt lat="45.04091" lon="6.33596">
        <ele>1650.6</ele>
        <time>2024-08-10T11:22:12Z</time>
      </trkpt>
      <trkpt lat="45.04091" lon="6.33596">
        <ele>1650.6</ele>
        <time>2024-08-10T11:22:13Z</time>
      </trkpt>
      <trkpt lat="45.04091" lon="6.33596">
        <ele>1650.6</ele>
        <time>2024-08-10T11:22:14Z</time>
      </trkpt>
      <trkpt lat="45.04091" lon="6.33596">
        <ele>1650.6</ele>
        <time>2024-08-10T11:22:15Z</time>
      </trkpt>
      <trkpt lat="45.04091" lon="6.33596">
        <ele>1650.4</ele>
        <time>2024-08-10T11:22:16Z</time>
      </trkpt>
      <trkpt lat="45.04091" lon="6.33596">
        <ele>1650.2</ele>
        <time>2024-08-10T11:22:17Z</time>
      </trkpt>
      <trkpt lat="45.04091" lon="6.33596">
        <ele>1650.2</ele>
        <time>2024-08-10T11:22:18Z</time>
      </trkpt>
      <trkpt lat="45.04091" lon="6.33596">
        <ele>1650.4</ele>
        <time>2024-08-10T11:22:19Z</time>
      </trkpt>
      <trkpt lat="45.04091" lon="6.33596">
        <ele>1650.4</ele>
        <time>2024-08-10T11:22:20Z</time>
      </trkpt>
      <trkpt lat="45.04091" lon="6.33596">
        <ele>1650.4</ele>
        <time>2024-08-10T11:22:21Z</time>
      </trkpt>
      <trkpt lat="45.04091" lon="6.33596">
        <ele>1650.4</ele>
        <time>2024-08-10T11:22:22Z</time>
      </trkpt>
      <trkpt lat="45.04091" lon="6.33596">
        <ele>1650.4</ele>
        <time>2024-08-10T11:22:23Z</time>
      </trkpt>
      <trkpt lat="45.04091" lon="6.33596">
        <ele>1650.4</ele>
        <time>2024-08-10T11:22:24Z</time>
      </trkpt>
      <trkpt lat="45.04091" lon="6.33596">
        <ele>1650.4</ele>
        <time>2024-08-10T11:22:25Z</time>
      </trkpt>
      <trkpt lat="45.04091" lon="6.33596">
        <ele>1650.4</ele>
        <time>2024-08-10T11:22:26Z</time>
      </trkpt>
      <trkpt lat="45.04091" lon="6.33596">
        <ele>1650.8</ele>
        <time>2024-08-10T11:22:27Z</time>
      </trkpt>
      <trkpt lat="45.04091" lon="6.33596">
        <ele>1650.8</ele>
        <time>2024-08-10T11:22:28Z</time>
      </trkpt>
      <trkpt lat="45.04091" lon="6.33596">
        <ele>1650.6</ele>
        <time>2024-08-10T11:22:29Z</time>
      </trkpt>
      <trkpt lat="45.04091" lon="6.33596">
        <ele>1650.4</ele>
        <time>2024-08-10T11:22:30Z</time>
      </trkpt>
      <trkpt lat="45.04091" lon="6.33596">
        <ele>1650.2</ele>
        <time>2024-08-10T11:22:31Z</time>
      </trkpt>
      <trkpt lat="45.04091" lon="6.33596">
        <ele>1650.2</ele>
        <time>2024-08-10T11:22:32Z</time>
      </trkpt>
      <trkpt lat="45.04091" lon="6.33596">
        <ele>1650.2</ele>
        <time>2024-08-10T11:22:33Z</time>
      </trkpt>
      <trkpt lat="45.04091" lon="6.33596">
        <ele>1650.2</ele>
        <time>2024-08-10T11:22:34Z</time>
      </trkpt>
      <trkpt lat="45.04091" lon="6.33596">
        <ele>1650.2</ele>
        <time>2024-08-10T11:22:35Z</time>
      </trkpt>
      <trkpt lat="45.04091" lon="6.33596">
        <ele>1650.4</ele>
        <time>2024-08-10T11:22:36Z</time>
      </trkpt>
      <trkpt lat="45.04091" lon="6.33596">
        <ele>1650.4</ele>
        <time>2024-08-10T11:22:37Z</time>
      </trkpt>
      <trkpt lat="45.04091" lon="6.33596">
        <ele>1650.4</ele>
        <time>2024-08-10T11:22:38Z</time>
      </trkpt>
      <trkpt lat="45.04091" lon="6.33596">
        <ele>1650.4</ele>
        <time>2024-08-10T11:22:39Z</time>
      </trkpt>
      <trkpt lat="45.04091" lon="6.33596">
        <ele>1650.4</ele>
        <time>2024-08-10T11:22:40Z</time>
      </trkpt>
      <trkpt lat="45.04091" lon="6.33596">
        <ele>1650.4</ele>
        <time>2024-08-10T11:22:41Z</time>
      </trkpt>
      <trkpt lat="45.04091" lon="6.33596">
        <ele>1650.4</ele>
        <time>2024-08-10T11:22:42Z</time>
      </trkpt>
      <trkpt lat="45.04091" lon="6.33596">
        <ele>1650.4</ele>
        <time>2024-08-10T11:22:43Z</time>
      </trkpt>
      <trkpt lat="45.04091" lon="6.33596">
        <ele>1650.4</ele>
        <time>2024-08-10T11:22:44Z</time>
      </trkpt>
      <trkpt lat="45.04091" lon="6.33596">
        <ele>1650.4</ele>
        <time>2024-08-10T11:22:45Z</time>
      </trkpt>
      <trkpt lat="45.04091" lon="6.33596">
        <ele>1650.4</ele>
        <time>2024-08-10T11:22:46Z</time>
      </trkpt>
      <trkpt lat="45.04091" lon="6.33596">
        <ele>1650.6</ele>
        <time>2024-08-10T11:22:47Z</time>
      </trkpt>
      <trkpt lat="45.04091" lon="6.33596">
        <ele>1650.4</ele>
        <time>2024-08-10T11:22:48Z</time>
      </trkpt>
      <trkpt lat="45.04091" lon="6.33596">
        <ele>1650.6</ele>
        <time>2024-08-10T11:22:49Z</time>
      </trkpt>
      <trkpt lat="45.04091" lon="6.33596">
        <ele>1650.6</ele>
        <time>2024-08-10T11:22:50Z</time>
      </trkpt>
      <trkpt lat="45.04091" lon="6.33596">
        <ele>1650.8</ele>
        <time>2024-08-10T11:22:51Z</time>
      </trkpt>
      <trkpt lat="45.04091" lon="6.33596">
        <ele>1650.8</ele>
        <time>2024-08-10T11:22:52Z</time>
      </trkpt>
      <trkpt lat="45.04091" lon="6.33596">
        <ele>1650.6</ele>
        <time>2024-08-10T11:22:53Z</time>
      </trkpt>
      <trkpt lat="45.04091" lon="6.33596">
        <ele>1650.6</ele>
        <time>2024-08-10T11:22:54Z</time>
      </trkpt>
      <trkpt lat="45.04091" lon="6.33596">
        <ele>1650.6</ele>
        <time>2024-08-10T11:22:55Z</time>
      </trkpt>
      <trkpt lat="45.04091" lon="6.33596">
        <ele>1650.4</ele>
        <time>2024-08-10T11:22:56Z</time>
      </trkpt>
      <trkpt lat="45.04091" lon="6.33596">
        <ele>1650.4</ele>
        <time>2024-08-10T11:22:57Z</time>
      </trkpt>
      <trkpt lat="45.04091" lon="6.33596">
        <ele>1650.6</ele>
        <time>2024-08-10T11:22:58Z</time>
      </trkpt>
      <trkpt lat="45.04091" lon="6.33596">
        <ele>1650.6</ele>
        <time>2024-08-10T11:22:59Z</time>
      </trkpt>
      <trkpt lat="45.04091" lon="6.33596">
        <ele>1650.6</ele>
        <time>2024-08-10T11:23:00Z</time>
      </trkpt>
      <trkpt lat="45.04091" lon="6.33596">
        <ele>1650.6</ele>
        <time>2024-08-10T11:23:01Z</time>
      </trkpt>
      <trkpt lat="45.04091" lon="6.33596">
        <ele>1650.6</ele>
        <time>2024-08-10T11:23:02Z</time>
      </trkpt>
      <trkpt lat="45.04091" lon="6.33596">
        <ele>1650.6</ele>
        <time>2024-08-10T11:23:03Z</time>
      </trkpt>
      <trkpt lat="45.04091" lon="6.33596">
        <ele>1650.6</ele>
        <time>2024-08-10T11:23:04Z</time>
      </trkpt>
      <trkpt lat="45.04091" lon="6.33596">
        <ele>1650.6</ele>
        <time>2024-08-10T11:23:05Z</time>
      </trkpt>
      <trkpt lat="45.04091" lon="6.33596">
        <ele>1650.6</ele>
        <time>2024-08-10T11:23:06Z</time>
      </trkpt>
      <trkpt lat="45.04091" lon="6.33596">
        <ele>1650.6</ele>
        <time>2024-08-10T11:23:07Z</time>
      </trkpt>
      <trkpt lat="45.04091" lon="6.33596">
        <ele>1650.6</ele>
        <time>2024-08-10T11:23:08Z</time>
      </trkpt>
      <trkpt lat="45.04091" lon="6.33596">
        <ele>1650.6</ele>
        <time>2024-08-10T11:23:09Z</time>
      </trkpt>
      <trkpt lat="45.04091" lon="6.33596">
        <ele>1650.6</ele>
        <time>2024-08-10T11:23:10Z</time>
      </trkpt>
      <trkpt lat="45.04091" lon="6.33596">
        <ele>1650.6</ele>
        <time>2024-08-10T11:23:11Z</time>
      </trkpt>
      <trkpt lat="45.04091" lon="6.33596">
        <ele>1650.4</ele>
        <time>2024-08-10T11:23:12Z</time>
      </trkpt>
      <trkpt lat="45.04091" lon="6.33596">
        <ele>1650.4</ele>
        <time>2024-08-10T11:23:13Z</time>
      </trkpt>
      <trkpt lat="45.04091" lon="6.33596">
        <ele>1650.4</ele>
        <time>2024-08-10T11:23:14Z</time>
      </trkpt>
      <trkpt lat="45.04091" lon="6.33596">
        <ele>1650.4</ele>
        <time>2024-08-10T11:23:15Z</time>
      </trkpt>
      <trkpt lat="45.04091" lon="6.33596">
        <ele>1650.6</ele>
        <time>2024-08-10T11:23:16Z</time>
      </trkpt>
      <trkpt lat="45.04091" lon="6.33596">
        <ele>1650.6</ele>
        <time>2024-08-10T11:23:17Z</time>
      </trkpt>
      <trkpt lat="45.04091" lon="6.33596">
        <ele>1650.8</ele>
        <time>2024-08-10T11:23:18Z</time>
      </trkpt>
      <trkpt lat="45.04091" lon="6.33596">
        <ele>1650.8</ele>
        <time>2024-08-10T11:23:19Z</time>
      </trkpt>
      <trkpt lat="45.04091" lon="6.33596">
        <ele>1651</ele>
        <time>2024-08-10T11:23:20Z</time>
      </trkpt>
      <trkpt lat="45.04091" lon="6.33596">
        <ele>1651</ele>
        <time>2024-08-10T11:23:21Z</time>
      </trkpt>
      <trkpt lat="45.04091" lon="6.33596">
        <ele>1650.6</ele>
        <time>2024-08-10T11:23:22Z</time>
      </trkpt>
      <trkpt lat="45.04091" lon="6.33596">
        <ele>1650.4</ele>
        <time>2024-08-10T11:23:23Z</time>
      </trkpt>
      <trkpt lat="45.04091" lon="6.33596">
        <ele>1650.4</ele>
        <time>2024-08-10T11:23:24Z</time>
      </trkpt>
      <trkpt lat="45.04091" lon="6.33596">
        <ele>1650.4</ele>
        <time>2024-08-10T11:23:25Z</time>
      </trkpt>
      <trkpt lat="45.04091" lon="6.33596">
        <ele>1650.4</ele>
        <time>2024-08-10T11:23:26Z</time>
      </trkpt>
      <trkpt lat="45.04091" lon="6.33596">
        <ele>1650.4</ele>
        <time>2024-08-10T11:23:27Z</time>
      </trkpt>
      <trkpt lat="45.04091" lon="6.33596">
        <ele>1650.6</ele>
        <time>2024-08-10T11:23:28Z</time>
      </trkpt>
      <trkpt lat="45.04091" lon="6.33596">
        <ele>1650.6</ele>
        <time>2024-08-10T11:23:29Z</time>
      </trkpt>
      <trkpt lat="45.04091" lon="6.33596">
        <ele>1650.6</ele>
        <time>2024-08-10T11:23:30Z</time>
      </trkpt>
      <trkpt lat="45.04091" lon="6.33596">
        <ele>1650.6</ele>
        <time>2024-08-10T11:23:31Z</time>
      </trkpt>
      <trkpt lat="45.04091" lon="6.33596">
        <ele>1650.8</ele>
        <time>2024-08-10T11:23:32Z</time>
      </trkpt>
      <trkpt lat="45.04091" lon="6.33596">
        <ele>1650.8</ele>
        <time>2024-08-10T11:23:33Z</time>
      </trkpt>
      <trkpt lat="45.04091" lon="6.33596">
        <ele>1651</ele>
        <time>2024-08-10T11:23:34Z</time>
      </trkpt>
      <trkpt lat="45.04091" lon="6.33596">
        <ele>1651.2</ele>
        <time>2024-08-10T11:23:35Z</time>
      </trkpt>
      <trkpt lat="45.04091" lon="6.33596">
        <ele>1651.2</ele>
        <time>2024-08-10T11:23:36Z</time>
      </trkpt>
      <trkpt lat="45.04091" lon="6.33596">
        <ele>1651</ele>
        <time>2024-08-10T11:23:37Z</time>
      </trkpt>
      <trkpt lat="45.04091" lon="6.33596">
        <ele>1651</ele>
        <time>2024-08-10T11:23:38Z</time>
      </trkpt>
      <trkpt lat="45.04091" lon="6.33596">
        <ele>1651</ele>
        <time>2024-08-10T11:23:39Z</time>
      </trkpt>
      <trkpt lat="45.04091" lon="6.33596">
        <ele>1651</ele>
        <time>2024-08-10T11:23:40Z</time>
      </trkpt>
      <trkpt lat="45.04091" lon="6.33596">
        <ele>1651</ele>
        <time>2024-08-10T11:23:41Z</time>
      </trkpt>
      <trkpt lat="45.04091" lon="6.33596">
        <ele>1651</ele>
        <time>2024-08-10T11:23:42Z</time>
      </trkpt>
      <trkpt lat="45.04091" lon="6.33596">
        <ele>1651</ele>
        <time>2024-08-10T11:23:43Z</time>
      </trkpt>
      <trkpt lat="45.04091" lon="6.33596">
        <ele>1650.8</ele>
        <time>2024-08-10T11:23:44Z</time>
      </trkpt>
      <trkpt lat="45.04091" lon="6.33596">
        <ele>1651</ele>
        <time>2024-08-10T11:23:45Z</time>
      </trkpt>
      <trkpt lat="45.04091" lon="6.33596">
        <ele>1651</ele>
        <time>2024-08-10T11:23:46Z</time>
      </trkpt>
      <trkpt lat="45.04091" lon="6.33596">
        <ele>1651</ele>
        <time>2024-08-10T11:23:47Z</time>
      </trkpt>
      <trkpt lat="45.04091" lon="6.33596">
        <ele>1651</ele>
        <time>2024-08-10T11:23:48Z</time>
      </trkpt>
      <trkpt lat="45.04091" lon="6.33596">
        <ele>1651</ele>
        <time>2024-08-10T11:23:49Z</time>
      </trkpt>
      <trkpt lat="45.04091" lon="6.33596">
        <ele>1651</ele>
        <time>2024-08-10T11:23:50Z</time>
      </trkpt>
      <trkpt lat="45.04091" lon="6.33596">
        <ele>1651</ele>
        <time>2024-08-10T11:23:51Z</time>
      </trkpt>
      <trkpt lat="45.04091" lon="6.33596">
        <ele>1651</ele>
        <time>2024-08-10T11:23:52Z</time>
      </trkpt>
      <trkpt lat="45.04091" lon="6.33596">
        <ele>1651.2</ele>
        <time>2024-08-10T11:23:53Z</time>
      </trkpt>
      <trkpt lat="45.04091" lon="6.33596">
        <ele>1651.2</ele>
        <time>2024-08-10T11:23:54Z</time>
      </trkpt>
      <trkpt lat="45.04091" lon="6.33596">
        <ele>1651.2</ele>
        <time>2024-08-10T11:23:55Z</time>
      </trkpt>
      <trkpt lat="45.04091" lon="6.33596">
        <ele>1651.4</ele>
        <time>2024-08-10T11:23:56Z</time>
      </trkpt>
      <trkpt lat="45.04091" lon="6.33596">
        <ele>1651.4</ele>
        <time>2024-08-10T11:23:57Z</time>
      </trkpt>
      <trkpt lat="45.04091" lon="6.33596">
        <ele>1651.4</ele>
        <time>2024-08-10T11:23:58Z</time>
      </trkpt>
      <trkpt lat="45.04091" lon="6.33596">
        <ele>1651.4</ele>
        <time>2024-08-10T11:23:59Z</time>
      </trkpt>
      <trkpt lat="45.04091" lon="6.33596">
        <ele>1651.2</ele>
        <time>2024-08-10T11:24:00Z</time>
      </trkpt>
      <trkpt lat="45.04091" lon="6.33596">
        <ele>1651.2</ele>
        <time>2024-08-10T11:24:01Z</time>
      </trkpt>
      <trkpt lat="45.04091" lon="6.33596">
        <ele>1651.2</ele>
        <time>2024-08-10T11:24:02Z</time>
      </trkpt>
      <trkpt lat="45.04091" lon="6.33596">
        <ele>1651</ele>
        <time>2024-08-10T11:24:03Z</time>
      </trkpt>
      <trkpt lat="45.04091" lon="6.33596">
        <ele>1651</ele>
        <time>2024-08-10T11:24:04Z</time>
      </trkpt>
      <trkpt lat="45.04091" lon="6.33596">
        <ele>1651.4</ele>
        <time>2024-08-10T11:24:05Z</time>
      </trkpt>
      <trkpt lat="45.04091" lon="6.33596">
        <ele>1651.4</ele>
        <time>2024-08-10T11:24:06Z</time>
      </trkpt>
      <trkpt lat="45.04091" lon="6.33596">
        <ele>1651.4</ele>
        <time>2024-08-10T11:24:07Z</time>
      </trkpt>
      <trkpt lat="45.04091" lon="6.33596">
        <ele>1651.4</ele>
        <time>2024-08-10T11:24:08Z</time>
      </trkpt>
      <trkpt lat="45.04091" lon="6.33596">
        <ele>1651.6</ele>
        <time>2024-08-10T11:24:09Z</time>
      </trkpt>
      <trkpt lat="45.04091" lon="6.33596">
        <ele>1651.6</ele>
        <time>2024-08-10T11:24:10Z</time>
      </trkpt>
      <trkpt lat="45.04091" lon="6.33596">
        <ele>1651.4</ele>
        <time>2024-08-10T11:24:11Z</time>
      </trkpt>
      <trkpt lat="45.04091" lon="6.33596">
        <ele>1651.4</ele>
        <time>2024-08-10T11:24:12Z</time>
      </trkpt>
      <trkpt lat="45.04091" lon="6.33596">
        <ele>1651.2</ele>
        <time>2024-08-10T11:24:13Z</time>
      </trkpt>
      <trkpt lat="45.04091" lon="6.33596">
        <ele>1651.2</ele>
        <time>2024-08-10T11:24:14Z</time>
      </trkpt>
      <trkpt lat="45.04091" lon="6.33596">
        <ele>1651.4</ele>
        <time>2024-08-10T11:24:15Z</time>
      </trkpt>
      <trkpt lat="45.04091" lon="6.33596">
        <ele>1651.4</ele>
        <time>2024-08-10T11:24:16Z</time>
      </trkpt>
      <trkpt lat="45.04091" lon="6.33596">
        <ele>1651.4</ele>
        <time>2024-08-10T11:24:17Z</time>
      </trkpt>
      <trkpt lat="45.04091" lon="6.33596">
        <ele>1651.4</ele>
        <time>2024-08-10T11:24:18Z</time>
      </trkpt>
      <trkpt lat="45.04091" lon="6.33596">
        <ele>1651.2</ele>
        <time>2024-08-10T11:24:19Z</time>
      </trkpt>
      <trkpt lat="45.04091" lon="6.33596">
        <ele>1651.2</ele>
        <time>2024-08-10T11:24:20Z</time>
      </trkpt>
      <trkpt lat="45.04091" lon="6.33596">
        <ele>1651</ele>
        <time>2024-08-10T11:24:21Z</time>
      </trkpt>
      <trkpt lat="45.04091" lon="6.33596">
        <ele>1651</ele>
        <time>2024-08-10T11:24:22Z</time>
      </trkpt>
      <trkpt lat="45.04091" lon="6.33596">
        <ele>1651</ele>
        <time>2024-08-10T11:24:23Z</time>
      </trkpt>
      <trkpt lat="45.04091" lon="6.33596">
        <ele>1651</ele>
        <time>2024-08-10T11:24:24Z</time>
      </trkpt>
      <trkpt lat="45.04091" lon="6.33596">
        <ele>1651</ele>
        <time>2024-08-10T11:24:25Z</time>
      </trkpt>
      <trkpt lat="45.04091" lon="6.33596">
        <ele>1651</ele>
        <time>2024-08-10T11:24:26Z</time>
      </trkpt>
      <trkpt lat="45.04091" lon="6.33596">
        <ele>1651.6</ele>
        <time>2024-08-10T11:24:27Z</time>
      </trkpt>
      <trkpt lat="45.04091" lon="6.33596">
        <ele>1651.6</ele>
        <time>2024-08-10T11:24:28Z</time>
      </trkpt>
      <trkpt lat="45.04091" lon="6.33596">
        <ele>1651.6</ele>
        <time>2024-08-10T11:24:29Z</time>
      </trkpt>
      <trkpt lat="45.04091" lon="6.33596">
        <ele>1651.4</ele>
        <time>2024-08-10T11:24:30Z</time>
      </trkpt>
      <trkpt lat="45.04091" lon="6.33596">
        <ele>1651.4</ele>
        <time>2024-08-10T11:24:31Z</time>
      </trkpt>
      <trkpt lat="45.04091" lon="6.33596">
        <ele>1651.6</ele>
        <time>2024-08-10T11:24:32Z</time>
      </trkpt>
      <trkpt lat="45.04091" lon="6.33596">
        <ele>1651.6</ele>
        <time>2024-08-10T11:24:33Z</time>
      </trkpt>
      <trkpt lat="45.04091" lon="6.33596">
        <ele>1651.4</ele>
        <time>2024-08-10T11:24:34Z</time>
      </trkpt>
      <trkpt lat="45.04091" lon="6.33596">
        <ele>1651.2</ele>
        <time>2024-08-10T11:24:35Z</time>
      </trkpt>
      <trkpt lat="45.04091" lon="6.33596">
        <ele>1651.2</ele>
        <time>2024-08-10T11:24:36Z</time>
      </trkpt>
      <trkpt lat="45.04091" lon="6.33596">
        <ele>1651.4</ele>
        <time>2024-08-10T11:24:37Z</time>
      </trkpt>
      <trkpt lat="45.04091" lon="6.33596">
        <ele>1651.4</ele>
        <time>2024-08-10T11:24:38Z</time>
      </trkpt>
      <trkpt lat="45.04091" lon="6.33596">
        <ele>1651.4</ele>
        <time>2024-08-10T11:24:39Z</time>
      </trkpt>
      <trkpt lat="45.04091" lon="6.33596">
        <ele>1651.2</ele>
        <time>2024-08-10T11:24:40Z</time>
      </trkpt>
      <trkpt lat="45.04091" lon="6.33596">
        <ele>1651.2</ele>
        <time>2024-08-10T11:24:41Z</time>
      </trkpt>
      <trkpt lat="45.04091" lon="6.33596">
        <ele>1651.4</ele>
        <time>2024-08-10T11:24:42Z</time>
      </trkpt>
      <trkpt lat="45.04091" lon="6.33596">
        <ele>1651.4</ele>
        <time>2024-08-10T11:24:43Z</time>
      </trkpt>
      <trkpt lat="45.04091" lon="6.33596">
        <ele>1651.4</ele>
        <time>2024-08-10T11:24:44Z</time>
      </trkpt>
      <trkpt lat="45.04091" lon="6.33596">
        <ele>1651.4</ele>
        <time>2024-08-10T11:24:45Z</time>
      </trkpt>
      <trkpt lat="45.04091" lon="6.33596">
        <ele>1651.4</ele>
        <time>2024-08-10T11:24:46Z</time>
      </trkpt>
      <trkpt lat="45.04091" lon="6.33596">
        <ele>1651.2</ele>
        <time>2024-08-10T11:24:47Z</time>
      </trkpt>
      <trkpt lat="45.04091" lon="6.33596">
        <ele>1651.2</ele>
        <time>2024-08-10T11:24:48Z</time>
      </trkpt>
      <trkpt lat="45.04091" lon="6.33596">
        <ele>1651.2</ele>
        <time>2024-08-10T11:24:49Z</time>
      </trkpt>
      <trkpt lat="45.04091" lon="6.33596">
        <ele>1651.2</ele>
        <time>2024-08-10T11:24:50Z</time>
      </trkpt>
      <trkpt lat="45.04091" lon="6.33596">
        <ele>1651</ele>
        <time>2024-08-10T11:24:51Z</time>
      </trkpt>
      <trkpt lat="45.04091" lon="6.33596">
        <ele>1651</ele>
        <time>2024-08-10T11:24:52Z</time>
      </trkpt>
      <trkpt lat="45.04091" lon="6.33596">
        <ele>1651.2</ele>
        <time>2024-08-10T11:24:53Z</time>
      </trkpt>
      <trkpt lat="45.04091" lon="6.33596">
        <ele>1651.2</ele>
        <time>2024-08-10T11:24:54Z</time>
      </trkpt>
      <trkpt lat="45.04091" lon="6.33596">
        <ele>1651.2</ele>
        <time>2024-08-10T11:24:55Z</time>
      </trkpt>
      <trkpt lat="45.04091" lon="6.33596">
        <ele>1651.2</ele>
        <time>2024-08-10T11:24:56Z</time>
      </trkpt>
      <trkpt lat="45.04091" lon="6.33596">
        <ele>1651</ele>
        <time>2024-08-10T11:24:57Z</time>
      </trkpt>
      <trkpt lat="45.04091" lon="6.33596">
        <ele>1651</ele>
        <time>2024-08-10T11:24:58Z</time>
      </trkpt>
      <trkpt lat="45.04091" lon="6.33596">
        <ele>1651.2</ele>
        <time>2024-08-10T11:24:59Z</time>
      </trkpt>
      <trkpt lat="45.04091" lon="6.33596">
        <ele>1651.2</ele>
        <time>2024-08-10T11:25:00Z</time>
      </trkpt>
      <trkpt lat="45.04091" lon="6.33596">
        <ele>1651.2</ele>
        <time>2024-08-10T11:25:01Z</time>
      </trkpt>
      <trkpt lat="45.04091" lon="6.33596">
        <ele>1651</ele>
        <time>2024-08-10T11:25:02Z</time>
      </trkpt>
      <trkpt lat="45.04091" lon="6.33596">
        <ele>1651.2</ele>
        <time>2024-08-10T11:25:03Z</time>
      </trkpt>
      <trkpt lat="45.04091" lon="6.33596">
        <ele>1651.2</ele>
        <time>2024-08-10T11:25:04Z</time>
      </trkpt>
      <trkpt lat="45.04091" lon="6.33596">
        <ele>1651.2</ele>
        <time>2024-08-10T11:25:05Z</time>
      </trkpt>
      <trkpt lat="45.04091" lon="6.33596">
        <ele>1651</ele>
        <time>2024-08-10T11:25:06Z</time>
      </trkpt>
      <trkpt lat="45.04091" lon="6.33596">
        <ele>1651</ele>
        <time>2024-08-10T11:25:07Z</time>
      </trkpt>
      <trkpt lat="45.04091" lon="6.33596">
        <ele>1651</ele>
        <time>2024-08-10T11:25:08Z</time>
      </trkpt>
      <trkpt lat="45.04091" lon="6.33596">
        <ele>1651</ele>
        <time>2024-08-10T11:25:09Z</time>
      </trkpt>
      <trkpt lat="45.04091" lon="6.33596">
        <ele>1651</ele>
        <time>2024-08-10T11:25:10Z</time>
      </trkpt>
      <trkpt lat="45.04091" lon="6.33596">
        <ele>1651</ele>
        <time>2024-08-10T11:25:11Z</time>
      </trkpt>
      <trkpt lat="45.04091" lon="6.33596">
        <ele>1651</ele>
        <time>2024-08-10T11:25:12Z</time>
      </trkpt>
      <trkpt lat="45.04091" lon="6.33596">
        <ele>1651</ele>
        <time>2024-08-10T11:25:13Z</time>
      </trkpt>
      <trkpt lat="45.04091" lon="6.33596">
        <ele>1651</ele>
        <time>2024-08-10T11:25:14Z</time>
      </trkpt>
      <trkpt lat="45.04091" lon="6.33596">
        <ele>1651.2</ele>
        <time>2024-08-10T11:25:15Z</time>
      </trkpt>
      <trkpt lat="45.04091" lon="6.33596">
        <ele>1651.2</ele>
        <time>2024-08-10T11:25:16Z</time>
      </trkpt>
      <trkpt lat="45.04091" lon="6.33596">
        <ele>1651</ele>
        <time>2024-08-10T11:25:17Z</time>
      </trkpt>
      <trkpt lat="45.04091" lon="6.33596">
        <ele>1651</ele>
        <time>2024-08-10T11:25:18Z</time>
      </trkpt>
      <trkpt lat="45.04091" lon="6.33596">
        <ele>1651</ele>
        <time>2024-08-10T11:25:19Z</time>
      </trkpt>
      <trkpt lat="45.04091" lon="6.33596">
        <ele>1651</ele>
        <time>2024-08-10T11:25:20Z</time>
      </trkpt>
      <trkpt lat="45.04091" lon="6.33596">
        <ele>1651</ele>
        <time>2024-08-10T11:25:21Z</time>
      </trkpt>
      <trkpt lat="45.04091" lon="6.33596">
        <ele>1651</ele>
        <time>2024-08-10T11:25:22Z</time>
      </trkpt>
      <trkpt lat="45.04091" lon="6.33596">
        <ele>1651</ele>
        <time>2024-08-10T11:25:23Z</time>
      </trkpt>
      <trkpt lat="45.04091" lon="6.33596">
        <ele>1651</ele>
        <time>2024-08-10T11:25:24Z</time>
      </trkpt>
      <trkpt lat="45.04091" lon="6.33596">
        <ele>1651</ele>
        <time>2024-08-10T11:25:25Z</time>
      </trkpt>
      <trkpt lat="45.04091" lon="6.33596">
        <ele>1651</ele>
        <time>2024-08-10T11:25:26Z</time>
      </trkpt>
      <trkpt lat="45.04091" lon="6.33596">
        <ele>1651</ele>
        <time>2024-08-10T11:25:27Z</time>
      </trkpt>
      <trkpt lat="45.04091" lon="6.33596">
        <ele>1651</ele>
        <time>2024-08-10T11:25:28Z</time>
      </trkpt>
      <trkpt lat="45.04091" lon="6.33596">
        <ele>1651</ele>
        <time>2024-08-10T11:25:29Z</time>
      </trkpt>
      <trkpt lat="45.04091" lon="6.33596">
        <ele>1650.8</ele>
        <time>2024-08-10T11:25:30Z</time>
      </trkpt>
      <trkpt lat="45.04091" lon="6.33596">
        <ele>1650.8</ele>
        <time>2024-08-10T11:25:31Z</time>
      </trkpt>
      <trkpt lat="45.04091" lon="6.33596">
        <ele>1651.2</ele>
        <time>2024-08-10T11:25:32Z</time>
      </trkpt>
      <trkpt lat="45.04091" lon="6.33596">
        <ele>1651.2</ele>
        <time>2024-08-10T11:25:33Z</time>
      </trkpt>
      <trkpt lat="45.04091" lon="6.33596">
        <ele>1651.2</ele>
        <time>2024-08-10T11:25:34Z</time>
      </trkpt>
      <trkpt lat="45.04091" lon="6.33596">
        <ele>1651.2</ele>
        <time>2024-08-10T11:25:35Z</time>
      </trkpt>
      <trkpt lat="45.04091" lon="6.33596">
        <ele>1651.2</ele>
        <time>2024-08-10T11:25:36Z</time>
      </trkpt>
      <trkpt lat="45.04091" lon="6.33596">
        <ele>1651.2</ele>
        <time>2024-08-10T11:25:37Z</time>
      </trkpt>
      <trkpt lat="45.04091" lon="6.33596">
        <ele>1651.2</ele>
        <time>2024-08-10T11:25:38Z</time>
      </trkpt>
      <trkpt lat="45.04091" lon="6.33596">
        <ele>1651</ele>
        <time>2024-08-10T11:25:39Z</time>
      </trkpt>
      <trkpt lat="45.04091" lon="6.33596">
        <ele>1651</ele>
        <time>2024-08-10T11:25:40Z</time>
      </trkpt>
      <trkpt lat="45.04091" lon="6.33596">
        <ele>1651</ele>
        <time>2024-08-10T11:25:41Z</time>
      </trkpt>
      <trkpt lat="45.04091" lon="6.33596">
        <ele>1651</ele>
        <time>2024-08-10T11:25:42Z</time>
      </trkpt>
      <trkpt lat="45.04091" lon="6.33596">
        <ele>1651</ele>
        <time>2024-08-10T11:25:43Z</time>
      </trkpt>
      <trkpt lat="45.04091" lon="6.33596">
        <ele>1651</ele>
        <time>2024-08-10T11:25:44Z</time>
      </trkpt>
      <trkpt lat="45.04091" lon="6.33596">
        <ele>1651.2</ele>
        <time>2024-08-10T11:25:45Z</time>
      </trkpt>
      <trkpt lat="45.04091" lon="6.33596">
        <ele>1651</ele>
        <time>2024-08-10T11:25:46Z</time>
      </trkpt>
      <trkpt lat="45.04091" lon="6.33596">
        <ele>1651</ele>
        <time>2024-08-10T11:25:47Z</time>
      </trkpt>
      <trkpt lat="45.04091" lon="6.33596">
        <ele>1651</ele>
        <time>2024-08-10T11:25:48Z</time>
      </trkpt>
      <trkpt lat="45.04091" lon="6.33596">
        <ele>1651</ele>
        <time>2024-08-10T11:25:49Z</time>
      </trkpt>
      <trkpt lat="45.04091" lon="6.33596">
        <ele>1650.6</ele>
        <time>2024-08-10T11:25:50Z</time>
      </trkpt>
      <trkpt lat="45.04091" lon="6.33596">
        <ele>1650.6</ele>
        <time>2024-08-10T11:25:51Z</time>
      </trkpt>
      <trkpt lat="45.04091" lon="6.33596">
        <ele>1651</ele>
        <time>2024-08-10T11:25:52Z</time>
      </trkpt>
      <trkpt lat="45.04091" lon="6.33596">
        <ele>1651</ele>
        <time>2024-08-10T11:25:53Z</time>
      </trkpt>
      <trkpt lat="45.04091" lon="6.33596">
        <ele>1651</ele>
        <time>2024-08-10T11:25:54Z</time>
      </trkpt>
      <trkpt lat="45.04091" lon="6.33596">
        <ele>1651</ele>
        <time>2024-08-10T11:25:55Z</time>
      </trkpt>
      <trkpt lat="45.04091" lon="6.33596">
        <ele>1651</ele>
        <time>2024-08-10T11:25:56Z</time>
      </trkpt>
      <trkpt lat="45.04091" lon="6.33596">
        <ele>1651</ele>
        <time>2024-08-10T11:25:57Z</time>
      </trkpt>
      <trkpt lat="45.04091" lon="6.33596">
        <ele>1651</ele>
        <time>2024-08-10T11:25:58Z</time>
      </trkpt>
      <trkpt lat="45.04091" lon="6.33596">
        <ele>1651</ele>
        <time>2024-08-10T11:25:59Z</time>
      </trkpt>
      <trkpt lat="45.04091" lon="6.33596">
        <ele>1651</ele>
        <time>2024-08-10T11:26:00Z</time>
      </trkpt>
      <trkpt lat="45.04091" lon="6.33596">
        <ele>1651</ele>
        <time>2024-08-10T11:26:01Z</time>
      </trkpt>
      <trkpt lat="45.04091" lon="6.33596">
        <ele>1651</ele>
        <time>2024-08-10T11:26:02Z</time>
      </trkpt>
      <trkpt lat="45.04091" lon="6.33596">
        <ele>1651</ele>
        <time>2024-08-10T11:26:03Z</time>
      </trkpt>
      <trkpt lat="45.04091" lon="6.33596">
        <ele>1651</ele>
        <time>2024-08-10T11:26:04Z</time>
      </trkpt>
      <trkpt lat="45.04091" lon="6.33596">
        <ele>1651.2</ele>
        <time>2024-08-10T11:26:05Z</time>
      </trkpt>
      <trkpt lat="45.04091" lon="6.33596">
        <ele>1651.2</ele>
        <time>2024-08-10T11:26:06Z</time>
      </trkpt>
      <trkpt lat="45.04091" lon="6.33596">
        <ele>1651.2</ele>
        <time>2024-08-10T11:26:07Z</time>
      </trkpt>
      <trkpt lat="45.04091" lon="6.33596">
        <ele>1651</ele>
        <time>2024-08-10T11:26:08Z</time>
      </trkpt>
      <trkpt lat="45.04091" lon="6.33596">
        <ele>1651</ele>
        <time>2024-08-10T11:26:09Z</time>
      </trkpt>
      <trkpt lat="45.04091" lon="6.33596">
        <ele>1651</ele>
        <time>2024-08-10T11:26:10Z</time>
      </trkpt>
      <trkpt lat="45.04091" lon="6.33596">
        <ele>1651</ele>
        <time>2024-08-10T11:26:11Z</time>
      </trkpt>
      <trkpt lat="45.04091" lon="6.33596">
        <ele>1651</ele>
        <time>2024-08-10T11:26:12Z</time>
      </trkpt>
      <trkpt lat="45.04091" lon="6.33596">
        <ele>1651.2</ele>
        <time>2024-08-10T11:26:13Z</time>
      </trkpt>
      <trkpt lat="45.04091" lon="6.33596">
        <ele>1651.2</ele>
        <time>2024-08-10T11:26:14Z</time>
      </trkpt>
      <trkpt lat="45.04091" lon="6.33596">
        <ele>1651.2</ele>
        <time>2024-08-10T11:26:15Z</time>
      </trkpt>
      <trkpt lat="45.04091" lon="6.33596">
        <ele>1651.2</ele>
        <time>2024-08-10T11:26:16Z</time>
      </trkpt>
      <trkpt lat="45.04091" lon="6.33596">
        <ele>1651</ele>
        <time>2024-08-10T11:26:17Z</time>
      </trkpt>
      <trkpt lat="45.04091" lon="6.33596">
        <ele>1651</ele>
        <time>2024-08-10T11:26:18Z</time>
      </trkpt>
      <trkpt lat="45.04091" lon="6.33596">
        <ele>1651</ele>
        <time>2024-08-10T11:26:19Z</time>
      </trkpt>
      <trkpt lat="45.04091" lon="6.33596">
        <ele>1651</ele>
        <time>2024-08-10T11:26:20Z</time>
      </trkpt>
      <trkpt lat="45.04091" lon="6.33596">
        <ele>1651</ele>
        <time>2024-08-10T11:26:21Z</time>
      </trkpt>
      <trkpt lat="45.04091" lon="6.33596">
        <ele>1651</ele>
        <time>2024-08-10T11:26:22Z</time>
      </trkpt>
      <trkpt lat="45.04091" lon="6.33596">
        <ele>1651</ele>
        <time>2024-08-10T11:26:23Z</time>
      </trkpt>
      <trkpt lat="45.04091" lon="6.33596">
        <ele>1651</ele>
        <time>2024-08-10T11:26:24Z</time>
      </trkpt>
      <trkpt lat="45.04091" lon="6.33596">
        <ele>1651</ele>
        <time>2024-08-10T11:26:25Z</time>
      </trkpt>
      <trkpt lat="45.04091" lon="6.33596">
        <ele>1651</ele>
        <time>2024-08-10T11:26:26Z</time>
      </trkpt>
      <trkpt lat="45.04091" lon="6.33596">
        <ele>1651.2</ele>
        <time>2024-08-10T11:26:27Z</time>
      </trkpt>
      <trkpt lat="45.04091" lon="6.33596">
        <ele>1651.2</ele>
        <time>2024-08-10T11:26:28Z</time>
      </trkpt>
      <trkpt lat="45.04091" lon="6.33596">
        <ele>1651.2</ele>
        <time>2024-08-10T11:26:29Z</time>
      </trkpt>
      <trkpt lat="45.04091" lon="6.33596">
        <ele>1651.2</ele>
        <time>2024-08-10T11:26:30Z</time>
      </trkpt>
      <trkpt lat="45.04091" lon="6.33596">
        <ele>1651.2</ele>
        <time>2024-08-10T11:26:31Z</time>
      </trkpt>
      <trkpt lat="45.04091" lon="6.33596">
        <ele>1651.2</ele>
        <time>2024-08-10T11:26:32Z</time>
      </trkpt>
      <trkpt lat="45.04091" lon="6.33596">
        <ele>1651.2</ele>
        <time>2024-08-10T11:26:33Z</time>
      </trkpt>
      <trkpt lat="45.04091" lon="6.33596">
        <ele>1651</ele>
        <time>2024-08-10T11:26:34Z</time>
      </trkpt>
      <trkpt lat="45.04091" lon="6.33596">
        <ele>1651</ele>
        <time>2024-08-10T11:26:35Z</time>
      </trkpt>
      <trkpt lat="45.04091" lon="6.33596">
        <ele>1651</ele>
        <time>2024-08-10T11:26:36Z</time>
      </trkpt>
      <trkpt lat="45.04091" lon="6.33596">
        <ele>1651</ele>
        <time>2024-08-10T11:26:37Z</time>
      </trkpt>
      <trkpt lat="45.04091" lon="6.33596">
        <ele>1651</ele>
        <time>2024-08-10T11:26:38Z</time>
      </trkpt>
      <trkpt lat="45.04091" lon="6.33596">
        <ele>1650.8</ele>
        <time>2024-08-10T11:26:39Z</time>
      </trkpt>
      <trkpt lat="45.04091" lon="6.33596">
        <ele>1651</ele>
        <time>2024-08-10T11:26:40Z</time>
      </trkpt>
      <trkpt lat="45.04091" lon="6.33596">
        <ele>1651.2</ele>
        <time>2024-08-10T11:26:41Z</time>
      </trkpt>
      <trkpt lat="45.04091" lon="6.33596">
        <ele>1651.2</ele>
        <time>2024-08-10T11:26:42Z</time>
      </trkpt>
      <trkpt lat="45.04091" lon="6.33596">
        <ele>1651.2</ele>
        <time>2024-08-10T11:26:43Z</time>
      </trkpt>
      <trkpt lat="45.04091" lon="6.33596">
        <ele>1651</ele>
        <time>2024-08-10T11:26:44Z</time>
      </trkpt>
      <trkpt lat="45.04091" lon="6.33596">
        <ele>1651</ele>
        <time>2024-08-10T11:26:45Z</time>
      </trkpt>
      <trkpt lat="45.04091" lon="6.33596">
        <ele>1651</ele>
        <time>2024-08-10T11:26:46Z</time>
      </trkpt>
      <trkpt lat="45.04091" lon="6.33596">
        <ele>1651</ele>
        <time>2024-08-10T11:26:47Z</time>
      </trkpt>
      <trkpt lat="45.04091" lon="6.33596">
        <ele>1651</ele>
        <time>2024-08-10T11:26:48Z</time>
      </trkpt>
      <trkpt lat="45.04091" lon="6.33596">
        <ele>1651</ele>
        <time>2024-08-10T11:26:49Z</time>
      </trkpt>
      <trkpt lat="45.04091" lon="6.33596">
        <ele>1651</ele>
        <time>2024-08-10T11:26:50Z</time>
      </trkpt>
      <trkpt lat="45.04091" lon="6.33596">
        <ele>1651</ele>
        <time>2024-08-10T11:26:51Z</time>
      </trkpt>
      <trkpt lat="45.04091" lon="6.33596">
        <ele>1651</ele>
        <time>2024-08-10T11:26:52Z</time>
      </trkpt>
      <trkpt lat="45.04091" lon="6.33596">
        <ele>1651</ele>
        <time>2024-08-10T11:26:53Z</time>
      </trkpt>
      <trkpt lat="45.04091" lon="6.33596">
        <ele>1650.8</ele>
        <time>2024-08-10T11:26:54Z</time>
      </trkpt>
      <trkpt lat="45.04091" lon="6.33596">
        <ele>1650.8</ele>
        <time>2024-08-10T11:26:55Z</time>
      </trkpt>
      <trkpt lat="45.04091" lon="6.33596">
        <ele>1650.8</ele>
        <time>2024-08-10T11:26:56Z</time>
      </trkpt>
      <trkpt lat="45.04091" lon="6.33596">
        <ele>1651</ele>
        <time>2024-08-10T11:26:57Z</time>
      </trkpt>
      <trkpt lat="45.04091" lon="6.33596">
        <ele>1651</ele>
        <time>2024-08-10T11:26:58Z</time>
      </trkpt>
      <trkpt lat="45.04091" lon="6.33596">
        <ele>1651</ele>
        <time>2024-08-10T11:26:59Z</time>
      </trkpt>
      <trkpt lat="45.04091" lon="6.33596">
        <ele>1651</ele>
        <time>2024-08-10T11:27:00Z</time>
      </trkpt>
      <trkpt lat="45.04091" lon="6.33596">
        <ele>1651</ele>
        <time>2024-08-10T11:27:01Z</time>
      </trkpt>
      <trkpt lat="45.04091" lon="6.33596">
        <ele>1651</ele>
        <time>2024-08-10T11:27:02Z</time>
      </trkpt>
      <trkpt lat="45.04091" lon="6.33596">
        <ele>1651</ele>
        <time>2024-08-10T11:27:03Z</time>
      </trkpt>
      <trkpt lat="45.04091" lon="6.33596">
        <ele>1651</ele>
        <time>2024-08-10T11:27:04Z</time>
      </trkpt>
      <trkpt lat="45.04091" lon="6.33596">
        <ele>1651.2</ele>
        <time>2024-08-10T11:27:05Z</time>
      </trkpt>
      <trkpt lat="45.04091" lon="6.33596">
        <ele>1651.2</ele>
        <time>2024-08-10T11:27:06Z</time>
      </trkpt>
      <trkpt lat="45.04091" lon="6.33596">
        <ele>1651.2</ele>
        <time>2024-08-10T11:27:07Z</time>
      </trkpt>
      <trkpt lat="45.04091" lon="6.33596">
        <ele>1651.2</ele>
        <time>2024-08-10T11:27:08Z</time>
      </trkpt>
      <trkpt lat="45.04091" lon="6.33596">
        <ele>1651.2</ele>
        <time>2024-08-10T11:27:09Z</time>
      </trkpt>
      <trkpt lat="45.04091" lon="6.33596">
        <ele>1651.2</ele>
        <time>2024-08-10T11:27:10Z</time>
      </trkpt>
      <trkpt lat="45.04091" lon="6.33596">
        <ele>1651.2</ele>
        <time>2024-08-10T11:27:11Z</time>
      </trkpt>
      <trkpt lat="45.04091" lon="6.33596">
        <ele>1651.2</ele>
        <time>2024-08-10T11:27:12Z</time>
      </trkpt>
      <trkpt lat="45.04091" lon="6.33596">
        <ele>1651.2</ele>
        <time>2024-08-10T11:27:13Z</time>
      </trkpt>
      <trkpt lat="45.04091" lon="6.33596">
        <ele>1651.2</ele>
        <time>2024-08-10T11:27:14Z</time>
      </trkpt>
      <trkpt lat="45.04091" lon="6.33596">
        <ele>1651.2</ele>
        <time>2024-08-10T11:27:15Z</time>
      </trkpt>
      <trkpt lat="45.04091" lon="6.33596">
        <ele>1651.2</ele>
        <time>2024-08-10T11:27:16Z</time>
      </trkpt>
      <trkpt lat="45.04091" lon="6.33596">
        <ele>1651</ele>
        <time>2024-08-10T11:27:17Z</time>
      </trkpt>
      <trkpt lat="45.04091" lon="6.33596">
        <ele>1651</ele>
        <time>2024-08-10T11:27:18Z</time>
      </trkpt>
      <trkpt lat="45.04091" lon="6.33596">
        <ele>1651.2</ele>
        <time>2024-08-10T11:27:19Z</time>
      </trkpt>
      <trkpt lat="45.04091" lon="6.33596">
        <ele>1651.2</ele>
        <time>2024-08-10T11:27:20Z</time>
      </trkpt>
      <trkpt lat="45.04091" lon="6.33596">
        <ele>1651.2</ele>
        <time>2024-08-10T11:27:21Z</time>
      </trkpt>
      <trkpt lat="45.04091" lon="6.33596">
        <ele>1651.2</ele>
        <time>2024-08-10T11:27:22Z</time>
      </trkpt>
      <trkpt lat="45.04091" lon="6.33596">
        <ele>1651.2</ele>
        <time>2024-08-10T11:27:23Z</time>
      </trkpt>
      <trkpt lat="45.04091" lon="6.33596">
        <ele>1651</ele>
        <time>2024-08-10T11:27:24Z</time>
      </trkpt>
      <trkpt lat="45.04091" lon="6.33596">
        <ele>1651</ele>
        <time>2024-08-10T11:27:25Z</time>
      </trkpt>
      <trkpt lat="45.04091" lon="6.33596">
        <ele>1651.2</ele>
        <time>2024-08-10T11:27:26Z</time>
      </trkpt>
      <trkpt lat="45.04091" lon="6.33596">
        <ele>1651.4</ele>
        <time>2024-08-10T11:27:27Z</time>
      </trkpt>
      <trkpt lat="45.04091" lon="6.33596">
        <ele>1651.4</ele>
        <time>2024-08-10T11:27:28Z</time>
      </trkpt>
      <trkpt lat="45.04091" lon="6.33596">
        <ele>1651.2</ele>
        <time>2024-08-10T11:27:29Z</time>
      </trkpt>
      <trkpt lat="45.04091" lon="6.33596">
        <ele>1651.2</ele>
        <time>2024-08-10T11:27:30Z</time>
      </trkpt>
      <trkpt lat="45.04091" lon="6.33596">
        <ele>1651.2</ele>
        <time>2024-08-10T11:27:31Z</time>
      </trkpt>
      <trkpt lat="45.04091" lon="6.33596">
        <ele>1651.2</ele>
        <time>2024-08-10T11:27:32Z</time>
      </trkpt>
      <trkpt lat="45.04091" lon="6.33596">
        <ele>1651.2</ele>
        <time>2024-08-10T11:27:33Z</time>
      </trkpt>
      <trkpt lat="45.04091" lon="6.33596">
        <ele>1651.2</ele>
        <time>2024-08-10T11:27:34Z</time>
      </trkpt>
      <trkpt lat="45.04091" lon="6.33596">
        <ele>1651.2</ele>
        <time>2024-08-10T11:27:35Z</time>
      </trkpt>
      <trkpt lat="45.04091" lon="6.33596">
        <ele>1651.2</ele>
        <time>2024-08-10T11:27:36Z</time>
      </trkpt>
      <trkpt lat="45.04091" lon="6.33596">
        <ele>1651</ele>
        <time>2024-08-10T11:27:37Z</time>
      </trkpt>
      <trkpt lat="45.04091" lon="6.33596">
        <ele>1651</ele>
        <time>2024-08-10T11:27:38Z</time>
      </trkpt>
      <trkpt lat="45.04091" lon="6.33596">
        <ele>1651.2</ele>
        <time>2024-08-10T11:27:39Z</time>
      </trkpt>
      <trkpt lat="45.04091" lon="6.33596">
        <ele>1651.2</ele>
        <time>2024-08-10T11:27:40Z</time>
      </trkpt>
      <trkpt lat="45.04091" lon="6.33596">
        <ele>1651.2</ele>
        <time>2024-08-10T11:27:41Z</time>
      </trkpt>
      <trkpt lat="45.04091" lon="6.33596">
        <ele>1651.2</ele>
        <time>2024-08-10T11:27:42Z</time>
      </trkpt>
      <trkpt lat="45.04091" lon="6.33596">
        <ele>1651.2</ele>
        <time>2024-08-10T11:27:43Z</time>
      </trkpt>
      <trkpt lat="45.04091" lon="6.33596">
        <ele>1651</ele>
        <time>2024-08-10T11:27:44Z</time>
      </trkpt>
      <trkpt lat="45.04091" lon="6.33596">
        <ele>1651</ele>
        <time>2024-08-10T11:27:45Z</time>
      </trkpt>
      <trkpt lat="45.04091" lon="6.33596">
        <ele>1651</ele>
        <time>2024-08-10T11:27:46Z</time>
      </trkpt>
      <trkpt lat="45.04091" lon="6.33596">
        <ele>1650.8</ele>
        <time>2024-08-10T11:27:47Z</time>
      </trkpt>
      <trkpt lat="45.04091" lon="6.33596">
        <ele>1650.8</ele>
        <time>2024-08-10T11:27:48Z</time>
      </trkpt>
      <trkpt lat="45.04091" lon="6.33596">
        <ele>1650.8</ele>
        <time>2024-08-10T11:27:49Z</time>
      </trkpt>
      <trkpt lat="45.04091" lon="6.33596">
        <ele>1651</ele>
        <time>2024-08-10T11:27:50Z</time>
      </trkpt>
      <trkpt lat="45.04091" lon="6.33596">
        <ele>1651</ele>
        <time>2024-08-10T11:27:51Z</time>
      </trkpt>
      <trkpt lat="45.04091" lon="6.33596">
        <ele>1651.2</ele>
        <time>2024-08-10T11:27:52Z</time>
      </trkpt>
      <trkpt lat="45.04091" lon="6.33596">
        <ele>1651.2</ele>
        <time>2024-08-10T11:27:53Z</time>
      </trkpt>
      <trkpt lat="45.04091" lon="6.33596">
        <ele>1651.2</ele>
        <time>2024-08-10T11:27:54Z</time>
      </trkpt>
      <trkpt lat="45.04091" lon="6.33596">
        <ele>1650.8</ele>
        <time>2024-08-10T11:27:55Z</time>
      </trkpt>
      <trkpt lat="45.04091" lon="6.33596">
        <ele>1650.8</ele>
        <time>2024-08-10T11:27:56Z</time>
      </trkpt>
      <trkpt lat="45.04091" lon="6.33596">
        <ele>1651</ele>
        <time>2024-08-10T11:27:57Z</time>
      </trkpt>
      <trkpt lat="45.04091" lon="6.33596">
        <ele>1651</ele>
        <time>2024-08-10T11:27:58Z</time>
      </trkpt>
      <trkpt lat="45.04091" lon="6.33596">
        <ele>1651</ele>
        <time>2024-08-10T11:27:59Z</time>
      </trkpt>
      <trkpt lat="45.04091" lon="6.33596">
        <ele>1651</ele>
        <time>2024-08-10T11:28:00Z</time>
      </trkpt>
      <trkpt lat="45.04091" lon="6.33596">
        <ele>1651.2</ele>
        <time>2024-08-10T11:28:01Z</time>
      </trkpt>
      <trkpt lat="45.04091" lon="6.33596">
        <ele>1651.2</ele>
        <time>2024-08-10T11:28:02Z</time>
      </trkpt>
      <trkpt lat="45.04091" lon="6.33596">
        <ele>1651.4</ele>
        <time>2024-08-10T11:28:03Z</time>
      </trkpt>
      <trkpt lat="45.04091" lon="6.33596">
        <ele>1651.4</ele>
        <time>2024-08-10T11:28:04Z</time>
      </trkpt>
      <trkpt lat="45.04091" lon="6.33596">
        <ele>1651.4</ele>
        <time>2024-08-10T11:28:05Z</time>
      </trkpt>
      <trkpt lat="45.04091" lon="6.33596">
        <ele>1651.2</ele>
        <time>2024-08-10T11:28:06Z</time>
      </trkpt>
      <trkpt lat="45.04091" lon="6.33596">
        <ele>1651.2</ele>
        <time>2024-08-10T11:28:07Z</time>
      </trkpt>
      <trkpt lat="45.04091" lon="6.33596">
        <ele>1651.2</ele>
        <time>2024-08-10T11:28:08Z</time>
      </trkpt>
      <trkpt lat="45.04091" lon="6.33596">
        <ele>1651.2</ele>
        <time>2024-08-10T11:28:09Z</time>
      </trkpt>
      <trkpt lat="45.04091" lon="6.33596">
        <ele>1651.2</ele>
        <time>2024-08-10T11:28:10Z</time>
      </trkpt>
      <trkpt lat="45.04091" lon="6.33596">
        <ele>1651.2</ele>
        <time>2024-08-10T11:28:11Z</time>
      </trkpt>
      <trkpt lat="45.04091" lon="6.33596">
        <ele>1651.2</ele>
        <time>2024-08-10T11:28:12Z</time>
      </trkpt>
      <trkpt lat="45.04091" lon="6.33596">
        <ele>1651.2</ele>
        <time>2024-08-10T11:28:13Z</time>
      </trkpt>
      <trkpt lat="45.04091" lon="6.33596">
        <ele>1651.2</ele>
        <time>2024-08-10T11:28:14Z</time>
      </trkpt>
      <trkpt lat="45.04091" lon="6.33596">
        <ele>1651.2</ele>
        <time>2024-08-10T11:28:15Z</time>
      </trkpt>
      <trkpt lat="45.04091" lon="6.33596">
        <ele>1651.2</ele>
        <time>2024-08-10T11:28:16Z</time>
      </trkpt>
      <trkpt lat="45.04091" lon="6.33596">
        <ele>1651.2</ele>
        <time>2024-08-10T11:28:17Z</time>
      </trkpt>
      <trkpt lat="45.04091" lon="6.33596">
        <ele>1651.2</ele>
        <time>2024-08-10T11:28:18Z</time>
      </trkpt>
      <trkpt lat="45.04091" lon="6.33596">
        <ele>1651.2</ele>
        <time>2024-08-10T11:28:19Z</time>
      </trkpt>
      <trkpt lat="45.04091" lon="6.33596">
        <ele>1651.2</ele>
        <time>2024-08-10T11:28:20Z</time>
      </trkpt>
      <trkpt lat="45.04091" lon="6.33596">
        <ele>1651.2</ele>
        <time>2024-08-10T11:28:21Z</time>
      </trkpt>
      <trkpt lat="45.04091" lon="6.33596">
        <ele>1651</ele>
        <time>2024-08-10T11:28:22Z</time>
      </trkpt>
      <trkpt lat="45.04091" lon="6.33596">
        <ele>1651</ele>
        <time>2024-08-10T11:28:23Z</time>
      </trkpt>
      <trkpt lat="45.04091" lon="6.33596">
        <ele>1651</ele>
        <time>2024-08-10T11:28:24Z</time>
      </trkpt>
      <trkpt lat="45.04091" lon="6.33596">
        <ele>1651</ele>
        <time>2024-08-10T11:28:25Z</time>
      </trkpt>
      <trkpt lat="45.04091" lon="6.33596">
        <ele>1651</ele>
        <time>2024-08-10T11:28:26Z</time>
      </trkpt>
      <trkpt lat="45.04091" lon="6.33596">
        <ele>1651</ele>
        <time>2024-08-10T11:28:27Z</time>
      </trkpt>
      <trkpt lat="45.04091" lon="6.33596">
        <ele>1651.2</ele>
        <time>2024-08-10T11:28:28Z</time>
      </trkpt>
      <trkpt lat="45.04091" lon="6.33596">
        <ele>1651.2</ele>
        <time>2024-08-10T11:28:29Z</time>
      </trkpt>
      <trkpt lat="45.04091" lon="6.33596">
        <ele>1651.2</ele>
        <time>2024-08-10T11:28:30Z</time>
      </trkpt>
      <trkpt lat="45.04091" lon="6.33596">
        <ele>1651.2</ele>
        <time>2024-08-10T11:28:31Z</time>
      </trkpt>
      <trkpt lat="45.04091" lon="6.33596">
        <ele>1651.2</ele>
        <time>2024-08-10T11:28:32Z</time>
      </trkpt>
      <trkpt lat="45.04091" lon="6.33596">
        <ele>1651</ele>
        <time>2024-08-10T11:28:33Z</time>
      </trkpt>
      <trkpt lat="45.04091" lon="6.33596">
        <ele>1651</ele>
        <time>2024-08-10T11:28:34Z</time>
      </trkpt>
      <trkpt lat="45.04091" lon="6.33596">
        <ele>1651</ele>
        <time>2024-08-10T11:28:35Z</time>
      </trkpt>
      <trkpt lat="45.04091" lon="6.33596">
        <ele>1651.2</ele>
        <time>2024-08-10T11:28:36Z</time>
      </trkpt>
      <trkpt lat="45.04091" lon="6.33596">
        <ele>1651.4</ele>
        <time>2024-08-10T11:28:37Z</time>
      </trkpt>
      <trkpt lat="45.04091" lon="6.33596">
        <ele>1651.4</ele>
        <time>2024-08-10T11:28:38Z</time>
      </trkpt>
      <trkpt lat="45.04091" lon="6.33596">
        <ele>1651.4</ele>
        <time>2024-08-10T11:28:39Z</time>
      </trkpt>
      <trkpt lat="45.04091" lon="6.33596">
        <ele>1651.4</ele>
        <time>2024-08-10T11:28:40Z</time>
      </trkpt>
      <trkpt lat="45.0409" lon="6.33598">
        <ele>1651.4</ele>
        <time>2024-08-10T11:28:41Z</time>
      </trkpt>
      <trkpt lat="45.0409" lon="6.33598">
        <ele>1651.4</ele>
        <time>2024-08-10T11:28:42Z</time>
      </trkpt>
      <trkpt lat="45.04089" lon="6.33603">
        <ele>1651.4</ele>
        <time>2024-08-10T11:28:43Z</time>
      </trkpt>
      <trkpt lat="45.04089" lon="6.33603">
        <ele>1651.4</ele>
        <time>2024-08-10T11:28:44Z</time>
      </trkpt>
      <trkpt lat="45.04087" lon="6.33605">
        <ele>1651.8</ele>
        <time>2024-08-10T11:28:45Z</time>
      </trkpt>
      <trkpt lat="45.04087" lon="6.33605">
        <ele>1651.8</ele>
        <time>2024-08-10T11:28:46Z</time>
      </trkpt>
      <trkpt lat="45.04087" lon="6.33605">
        <ele>1652</ele>
        <time>2024-08-10T11:28:47Z</time>
      </trkpt>
      <trkpt lat="45.04087" lon="6.33605">
        <ele>1652</ele>
        <time>2024-08-10T11:28:48Z</time>
      </trkpt>
      <trkpt lat="45.04085" lon="6.33607">
        <ele>1652</ele>
        <time>2024-08-10T11:28:49Z</time>
      </trkpt>
      <trkpt lat="45.04085" lon="6.33607">
        <ele>1652</ele>
        <time>2024-08-10T11:28:50Z</time>
      </trkpt>
      <trkpt lat="45.04083" lon="6.33607">
        <ele>1652</ele>
        <time>2024-08-10T11:28:51Z</time>
      </trkpt>
      <trkpt lat="45.04083" lon="6.33607">
        <ele>1652</ele>
        <time>2024-08-10T11:28:52Z</time>
      </trkpt>
      <trkpt lat="45.04081" lon="6.33609">
        <ele>1652</ele>
        <time>2024-08-10T11:28:53Z</time>
      </trkpt>
      <trkpt lat="45.04081" lon="6.33609">
        <ele>1652</ele>
        <time>2024-08-10T11:28:54Z</time>
      </trkpt>
      <trkpt lat="45.0408" lon="6.3361">
        <ele>1652</ele>
        <time>2024-08-10T11:28:55Z</time>
      </trkpt>
      <trkpt lat="45.0408" lon="6.3361">
        <ele>1652.2</ele>
        <time>2024-08-10T11:28:56Z</time>
      </trkpt>
      <trkpt lat="45.04078" lon="6.33612">
        <ele>1652.2</ele>
        <time>2024-08-10T11:28:57Z</time>
      </trkpt>
      <trkpt lat="45.04078" lon="6.33612">
        <ele>1652.4</ele>
        <time>2024-08-10T11:28:58Z</time>
      </trkpt>
      <trkpt lat="45.04078" lon="6.33612">
        <ele>1652.8</ele>
        <time>2024-08-10T11:28:59Z</time>
      </trkpt>
      <trkpt lat="45.04075" lon="6.33613">
        <ele>1653</ele>
        <time>2024-08-10T11:29:00Z</time>
      </trkpt>
      <trkpt lat="45.04075" lon="6.33613">
        <ele>1653.2</ele>
        <time>2024-08-10T11:29:01Z</time>
      </trkpt>
      <trkpt lat="45.04075" lon="6.33613">
        <ele>1653.2</ele>
        <time>2024-08-10T11:29:02Z</time>
      </trkpt>
      <trkpt lat="45.04075" lon="6.33613">
        <ele>1653.6</ele>
        <time>2024-08-10T11:29:03Z</time>
      </trkpt>
      <trkpt lat="45.04073" lon="6.33614">
        <ele>1653.6</ele>
        <time>2024-08-10T11:29:04Z</time>
      </trkpt>
      <trkpt lat="45.04073" lon="6.33614">
        <ele>1653.6</ele>
        <time>2024-08-10T11:29:05Z</time>
      </trkpt>
      <trkpt lat="45.04071" lon="6.33615">
        <ele>1654</ele>
        <time>2024-08-10T11:29:06Z</time>
      </trkpt>
      <trkpt lat="45.04071" lon="6.33615">
        <ele>1654.2</ele>
        <time>2024-08-10T11:29:07Z</time>
      </trkpt>
      <trkpt lat="45.04069" lon="6.33615">
        <ele>1654.4</ele>
        <time>2024-08-10T11:29:08Z</time>
      </trkpt>
      <trkpt lat="45.04069" lon="6.33615">
        <ele>1654.4</ele>
        <time>2024-08-10T11:29:09Z</time>
      </trkpt>
      <trkpt lat="45.04069" lon="6.33615">
        <ele>1654.4</ele>
        <time>2024-08-10T11:29:10Z</time>
      </trkpt>
      <trkpt lat="45.04067" lon="6.33617">
        <ele>1654.8</ele>
        <time>2024-08-10T11:29:11Z</time>
      </trkpt>
      <trkpt lat="45.04067" lon="6.33617">
        <ele>1655</ele>
        <time>2024-08-10T11:29:12Z</time>
      </trkpt>
      <trkpt lat="45.04067" lon="6.33617">
        <ele>1655</ele>
        <time>2024-08-10T11:29:13Z</time>
      </trkpt>
      <trkpt lat="45.04066" lon="6.33618">
        <ele>1655</ele>
        <time>2024-08-10T11:29:14Z</time>
      </trkpt>
      <trkpt lat="45.04066" lon="6.33618">
        <ele>1655.4</ele>
        <time>2024-08-10T11:29:15Z</time>
      </trkpt>
      <trkpt lat="45.04066" lon="6.33618">
        <ele>1655.4</ele>
        <time>2024-08-10T11:29:16Z</time>
      </trkpt>
      <trkpt lat="45.04064" lon="6.33619">
        <ele>1655.6</ele>
        <time>2024-08-10T11:29:17Z</time>
      </trkpt>
      <trkpt lat="45.04064" lon="6.33619">
        <ele>1655.8</ele>
        <time>2024-08-10T11:29:18Z</time>
      </trkpt>
      <trkpt lat="45.04064" lon="6.33619">
        <ele>1656.2</ele>
        <time>2024-08-10T11:29:19Z</time>
      </trkpt>
      <trkpt lat="45.04061" lon="6.33621">
        <ele>1656.2</ele>
        <time>2024-08-10T11:29:20Z</time>
      </trkpt>
      <trkpt lat="45.04061" lon="6.33621">
        <ele>1656.2</ele>
        <time>2024-08-10T11:29:21Z</time>
      </trkpt>
      <trkpt lat="45.04059" lon="6.33622">
        <ele>1656.2</ele>
        <time>2024-08-10T11:29:22Z</time>
      </trkpt>
      <trkpt lat="45.04059" lon="6.33622">
        <ele>1656.4</ele>
        <time>2024-08-10T11:29:23Z</time>
      </trkpt>
      <trkpt lat="45.04059" lon="6.33622">
        <ele>1656.8</ele>
        <time>2024-08-10T11:29:24Z</time>
      </trkpt>
      <trkpt lat="45.04059" lon="6.33622">
        <ele>1656.8</ele>
        <time>2024-08-10T11:29:25Z</time>
      </trkpt>
      <trkpt lat="45.04058" lon="6.3362">
        <ele>1657</ele>
        <time>2024-08-10T11:29:26Z</time>
      </trkpt>
      <trkpt lat="45.04058" lon="6.3362">
        <ele>1657.4</ele>
        <time>2024-08-10T11:29:27Z</time>
      </trkpt>
      <trkpt lat="45.04058" lon="6.3362">
        <ele>1657.6</ele>
        <time>2024-08-10T11:29:28Z</time>
      </trkpt>
      <trkpt lat="45.04056" lon="6.3362">
        <ele>1657.6</ele>
        <time>2024-08-10T11:29:29Z</time>
      </trkpt>
      <trkpt lat="45.04056" lon="6.3362">
        <ele>1657.8</ele>
        <time>2024-08-10T11:29:30Z</time>
      </trkpt>
      <trkpt lat="45.04054" lon="6.3362">
        <ele>1658.2</ele>
        <time>2024-08-10T11:29:31Z</time>
      </trkpt>
      <trkpt lat="45.04054" lon="6.3362">
        <ele>1658.4</ele>
        <time>2024-08-10T11:29:32Z</time>
      </trkpt>
      <trkpt lat="45.04052" lon="6.33621">
        <ele>1658.6</ele>
        <time>2024-08-10T11:29:33Z</time>
      </trkpt>
      <trkpt lat="45.04052" lon="6.33621">
        <ele>1658.8</ele>
        <time>2024-08-10T11:29:34Z</time>
      </trkpt>
      <trkpt lat="45.0405" lon="6.33623">
        <ele>1659</ele>
        <time>2024-08-10T11:29:35Z</time>
      </trkpt>
      <trkpt lat="45.0405" lon="6.33623">
        <ele>1659.4</ele>
        <time>2024-08-10T11:29:36Z</time>
      </trkpt>
      <trkpt lat="45.04048" lon="6.33624">
        <ele>1659.4</ele>
        <time>2024-08-10T11:29:37Z</time>
      </trkpt>
      <trkpt lat="45.04048" lon="6.33624">
        <ele>1659.6</ele>
        <time>2024-08-10T11:29:38Z</time>
      </trkpt>
      <trkpt lat="45.04047" lon="6.33627">
        <ele>1659.6</ele>
        <time>2024-08-10T11:29:39Z</time>
      </trkpt>
      <trkpt lat="45.04047" lon="6.33627">
        <ele>1659.8</ele>
        <time>2024-08-10T11:29:40Z</time>
      </trkpt>
      <trkpt lat="45.04047" lon="6.33627">
        <ele>1659.8</ele>
        <time>2024-08-10T11:29:41Z</time>
      </trkpt>
      <trkpt lat="45.04046" lon="6.3363">
        <ele>1660</ele>
        <time>2024-08-10T11:29:42Z</time>
      </trkpt>
      <trkpt lat="45.04046" lon="6.3363">
        <ele>1660.6</ele>
        <time>2024-08-10T11:29:43Z</time>
      </trkpt>
      <trkpt lat="45.04046" lon="6.3363">
        <ele>1660.6</ele>
        <time>2024-08-10T11:29:44Z</time>
      </trkpt>
      <trkpt lat="45.04045" lon="6.33632">
        <ele>1660.6</ele>
        <time>2024-08-10T11:29:45Z</time>
      </trkpt>
      <trkpt lat="45.04045" lon="6.33632">
        <ele>1661</ele>
        <time>2024-08-10T11:29:46Z</time>
      </trkpt>
      <trkpt lat="45.04045" lon="6.33632">
        <ele>1661.2</ele>
        <time>2024-08-10T11:29:47Z</time>
      </trkpt>
      <trkpt lat="45.04045" lon="6.33632">
        <ele>1661.2</ele>
        <time>2024-08-10T11:29:48Z</time>
      </trkpt>
      <trkpt lat="45.04044" lon="6.33634">
        <ele>1661.6</ele>
        <time>2024-08-10T11:29:49Z</time>
      </trkpt>
      <trkpt lat="45.04044" lon="6.33634">
        <ele>1661.6</ele>
        <time>2024-08-10T11:29:50Z</time>
      </trkpt>
      <trkpt lat="45.04042" lon="6.33634">
        <ele>1662</ele>
        <time>2024-08-10T11:29:51Z</time>
      </trkpt>
      <trkpt lat="45.04042" lon="6.33634">
        <ele>1662</ele>
        <time>2024-08-10T11:29:52Z</time>
      </trkpt>
      <trkpt lat="45.0404" lon="6.33635">
        <ele>1662</ele>
        <time>2024-08-10T11:29:53Z</time>
      </trkpt>
      <trkpt lat="45.0404" lon="6.33635">
        <ele>1662.4</ele>
        <time>2024-08-10T11:29:54Z</time>
      </trkpt>
      <trkpt lat="45.04037" lon="6.33636">
        <ele>1662.4</ele>
        <time>2024-08-10T11:29:55Z</time>
      </trkpt>
      <trkpt lat="45.04037" lon="6.33636">
        <ele>1662.4</ele>
        <time>2024-08-10T11:29:56Z</time>
      </trkpt>
      <trkpt lat="45.04035" lon="6.33637">
        <ele>1662.4</ele>
        <time>2024-08-10T11:29:57Z</time>
      </trkpt>
      <trkpt lat="45.04035" lon="6.33637">
        <ele>1662.6</ele>
        <time>2024-08-10T11:29:58Z</time>
      </trkpt>
      <trkpt lat="45.04033" lon="6.33638">
        <ele>1662.6</ele>
        <time>2024-08-10T11:29:59Z</time>
      </trkpt>
      <trkpt lat="45.04032" lon="6.3364">
        <ele>1662.6</ele>
        <time>2024-08-10T11:30:00Z</time>
      </trkpt>
      <trkpt lat="45.04032" lon="6.3364">
        <ele>1662.6</ele>
        <time>2024-08-10T11:30:01Z</time>
      </trkpt>
      <trkpt lat="45.0403" lon="6.33641">
        <ele>1662.8</ele>
        <time>2024-08-10T11:30:02Z</time>
      </trkpt>
      <trkpt lat="45.0403" lon="6.33641">
        <ele>1663.2</ele>
        <time>2024-08-10T11:30:03Z</time>
      </trkpt>
      <trkpt lat="45.04028" lon="6.33643">
        <ele>1663.2</ele>
        <time>2024-08-10T11:30:04Z</time>
      </trkpt>
      <trkpt lat="45.04028" lon="6.33643">
        <ele>1663.4</ele>
        <time>2024-08-10T11:30:05Z</time>
      </trkpt>
      <trkpt lat="45.04026" lon="6.33645">
        <ele>1663.4</ele>
        <time>2024-08-10T11:30:06Z</time>
      </trkpt>
      <trkpt lat="45.04026" lon="6.33645">
        <ele>1663.6</ele>
        <time>2024-08-10T11:30:07Z</time>
      </trkpt>
      <trkpt lat="45.04025" lon="6.33647">
        <ele>1663.8</ele>
        <time>2024-08-10T11:30:08Z</time>
      </trkpt>
      <trkpt lat="45.04025" lon="6.33647">
        <ele>1664</ele>
        <time>2024-08-10T11:30:09Z</time>
      </trkpt>
      <trkpt lat="45.04025" lon="6.33647">
        <ele>1664</ele>
        <time>2024-08-10T11:30:10Z</time>
      </trkpt>
      <trkpt lat="45.04024" lon="6.33651">
        <ele>1664.2</ele>
        <time>2024-08-10T11:30:11Z</time>
      </trkpt>
      <trkpt lat="45.04024" lon="6.33651">
        <ele>1664.2</ele>
        <time>2024-08-10T11:30:12Z</time>
      </trkpt>
      <trkpt lat="45.04024" lon="6.33651">
        <ele>1664.4</ele>
        <time>2024-08-10T11:30:13Z</time>
      </trkpt>
      <trkpt lat="45.04024" lon="6.33654">
        <ele>1664.6</ele>
        <time>2024-08-10T11:30:14Z</time>
      </trkpt>
      <trkpt lat="45.04024" lon="6.33654">
        <ele>1664.6</ele>
        <time>2024-08-10T11:30:15Z</time>
      </trkpt>
      <trkpt lat="45.04023" lon="6.33657">
        <ele>1664.8</ele>
        <time>2024-08-10T11:30:16Z</time>
      </trkpt>
      <trkpt lat="45.04023" lon="6.33657">
        <ele>1665.2</ele>
        <time>2024-08-10T11:30:17Z</time>
      </trkpt>
      <trkpt lat="45.04022" lon="6.33658">
        <ele>1665.2</ele>
        <time>2024-08-10T11:30:18Z</time>
      </trkpt>
      <trkpt lat="45.04022" lon="6.33658">
        <ele>1665.6</ele>
        <time>2024-08-10T11:30:19Z</time>
      </trkpt>
      <trkpt lat="45.0402" lon="6.3366">
        <ele>1665.8</ele>
        <time>2024-08-10T11:30:20Z</time>
      </trkpt>
      <trkpt lat="45.0402" lon="6.3366">
        <ele>1666</ele>
        <time>2024-08-10T11:30:21Z</time>
      </trkpt>
      <trkpt lat="45.0402" lon="6.3366">
        <ele>1666</ele>
        <time>2024-08-10T11:30:22Z</time>
      </trkpt>
      <trkpt lat="45.04017" lon="6.33662">
        <ele>1666.2</ele>
        <time>2024-08-10T11:30:23Z</time>
      </trkpt>
      <trkpt lat="45.04017" lon="6.33662">
        <ele>1666.2</ele>
        <time>2024-08-10T11:30:24Z</time>
      </trkpt>
      <trkpt lat="45.04017" lon="6.33662">
        <ele>1666.2</ele>
        <time>2024-08-10T11:30:25Z</time>
      </trkpt>
      <trkpt lat="45.04014" lon="6.33664">
        <ele>1666.2</ele>
        <time>2024-08-10T11:30:26Z</time>
      </trkpt>
      <trkpt lat="45.04014" lon="6.33664">
        <ele>1666.6</ele>
        <time>2024-08-10T11:30:27Z</time>
      </trkpt>
      <trkpt lat="45.04011" lon="6.33666">
        <ele>1666.6</ele>
        <time>2024-08-10T11:30:28Z</time>
      </trkpt>
      <trkpt lat="45.04011" lon="6.33666">
        <ele>1666.6</ele>
        <time>2024-08-10T11:30:29Z</time>
      </trkpt>
      <trkpt lat="45.04009" lon="6.33667">
        <ele>1666.6</ele>
        <time>2024-08-10T11:30:30Z</time>
      </trkpt>
      <trkpt lat="45.04009" lon="6.33667">
        <ele>1666.8</ele>
        <time>2024-08-10T11:30:31Z</time>
      </trkpt>
      <trkpt lat="45.04007" lon="6.33669">
        <ele>1666.8</ele>
        <time>2024-08-10T11:30:32Z</time>
      </trkpt>
      <trkpt lat="45.04007" lon="6.33669">
        <ele>1666.8</ele>
        <time>2024-08-10T11:30:33Z</time>
      </trkpt>
      <trkpt lat="45.04005" lon="6.33671">
        <ele>1666.4</ele>
        <time>2024-08-10T11:30:34Z</time>
      </trkpt>
      <trkpt lat="45.04005" lon="6.33671">
        <ele>1666.4</ele>
        <time>2024-08-10T11:30:35Z</time>
      </trkpt>
      <trkpt lat="45.04005" lon="6.33673">
        <ele>1666.4</ele>
        <time>2024-08-10T11:30:36Z</time>
      </trkpt>
      <trkpt lat="45.04005" lon="6.33673">
        <ele>1666.6</ele>
        <time>2024-08-10T11:30:37Z</time>
      </trkpt>
      <trkpt lat="45.04005" lon="6.33673">
        <ele>1666.6</ele>
        <time>2024-08-10T11:30:38Z</time>
      </trkpt>
      <trkpt lat="45.04005" lon="6.33673">
        <ele>1666.8</ele>
        <time>2024-08-10T11:30:39Z</time>
      </trkpt>
      <trkpt lat="45.04005" lon="6.33673">
        <ele>1666.8</ele>
        <time>2024-08-10T11:30:40Z</time>
      </trkpt>
      <trkpt lat="45.04005" lon="6.33677">
        <ele>1666.8</ele>
        <time>2024-08-10T11:30:41Z</time>
      </trkpt>
      <trkpt lat="45.04005" lon="6.33677">
        <ele>1667</ele>
        <time>2024-08-10T11:30:42Z</time>
      </trkpt>
      <trkpt lat="45.04005" lon="6.33681">
        <ele>1667</ele>
        <time>2024-08-10T11:30:43Z</time>
      </trkpt>
      <trkpt lat="45.04005" lon="6.33681">
        <ele>1666.8</ele>
        <time>2024-08-10T11:30:44Z</time>
      </trkpt>
      <trkpt lat="45.04005" lon="6.33685">
        <ele>1666.4</ele>
        <time>2024-08-10T11:30:45Z</time>
      </trkpt>
      <trkpt lat="45.04005" lon="6.33685">
        <ele>1666.4</ele>
        <time>2024-08-10T11:30:46Z</time>
      </trkpt>
      <trkpt lat="45.04004" lon="6.33688">
        <ele>1666.4</ele>
        <time>2024-08-10T11:30:47Z</time>
      </trkpt>
      <trkpt lat="45.04004" lon="6.33688">
        <ele>1666.4</ele>
        <time>2024-08-10T11:30:48Z</time>
      </trkpt>
      <trkpt lat="45.04004" lon="6.33692">
        <ele>1666.4</ele>
        <time>2024-08-10T11:30:49Z</time>
      </trkpt>
      <trkpt lat="45.04004" lon="6.33692">
        <ele>1666.4</ele>
        <time>2024-08-10T11:30:50Z</time>
      </trkpt>
      <trkpt lat="45.04003" lon="6.33695">
        <ele>1666.6</ele>
        <time>2024-08-10T11:30:51Z</time>
      </trkpt>
      <trkpt lat="45.04003" lon="6.33695">
        <ele>1666.8</ele>
        <time>2024-08-10T11:30:52Z</time>
      </trkpt>
      <trkpt lat="45.04001" lon="6.33699">
        <ele>1667.2</ele>
        <time>2024-08-10T11:30:53Z</time>
      </trkpt>
      <trkpt lat="45.04001" lon="6.33699">
        <ele>1667.4</ele>
        <time>2024-08-10T11:30:54Z</time>
      </trkpt>
      <trkpt lat="45.04001" lon="6.33699">
        <ele>1667.4</ele>
        <time>2024-08-10T11:30:55Z</time>
      </trkpt>
      <trkpt lat="45.04001" lon="6.33702">
        <ele>1667.2</ele>
        <time>2024-08-10T11:30:56Z</time>
      </trkpt>
      <trkpt lat="45.04001" lon="6.33702">
        <ele>1667</ele>
        <time>2024-08-10T11:30:57Z</time>
      </trkpt>
      <trkpt lat="45.04001" lon="6.33706">
        <ele>1666.4</ele>
        <time>2024-08-10T11:30:58Z</time>
      </trkpt>
      <trkpt lat="45.04001" lon="6.33706">
        <ele>1666.2</ele>
        <time>2024-08-10T11:30:59Z</time>
      </trkpt>
      <trkpt lat="45.04001" lon="6.33709">
        <ele>1666</ele>
        <time>2024-08-10T11:31:00Z</time>
      </trkpt>
      <trkpt lat="45.04001" lon="6.33709">
        <ele>1665.8</ele>
        <time>2024-08-10T11:31:01Z</time>
      </trkpt>
      <trkpt lat="45.04002" lon="6.33712">
        <ele>1665.6</ele>
        <time>2024-08-10T11:31:02Z</time>
      </trkpt>
      <trkpt lat="45.04002" lon="6.33712">
        <ele>1665.2</ele>
        <time>2024-08-10T11:31:03Z</time>
      </trkpt>
      <trkpt lat="45.04001" lon="6.33715">
        <ele>1665.2</ele>
        <time>2024-08-10T11:31:04Z</time>
      </trkpt>
      <trkpt lat="45.04001" lon="6.33715">
        <ele>1665.2</ele>
        <time>2024-08-10T11:31:05Z</time>
      </trkpt>
      <trkpt lat="45.04" lon="6.33719">
        <ele>1665.4</ele>
        <time>2024-08-10T11:31:06Z</time>
      </trkpt>
      <trkpt lat="45.04" lon="6.33719">
        <ele>1665.4</ele>
        <time>2024-08-10T11:31:07Z</time>
      </trkpt>
      <trkpt lat="45.04" lon="6.33722">
        <ele>1665.4</ele>
        <time>2024-08-10T11:31:08Z</time>
      </trkpt>
      <trkpt lat="45.04" lon="6.33722">
        <ele>1665.4</ele>
        <time>2024-08-10T11:31:09Z</time>
      </trkpt>
      <trkpt lat="45.04" lon="6.33725">
        <ele>1665.4</ele>
        <time>2024-08-10T11:31:10Z</time>
      </trkpt>
      <trkpt lat="45.04" lon="6.33725">
        <ele>1665.6</ele>
        <time>2024-08-10T11:31:11Z</time>
      </trkpt>
      <trkpt lat="45.04" lon="6.33727">
        <ele>1665.6</ele>
        <time>2024-08-10T11:31:12Z</time>
      </trkpt>
      <trkpt lat="45.04" lon="6.33727">
        <ele>1665.6</ele>
        <time>2024-08-10T11:31:13Z</time>
      </trkpt>
      <trkpt lat="45.04" lon="6.33731">
        <ele>1665.8</ele>
        <time>2024-08-10T11:31:14Z</time>
      </trkpt>
      <trkpt lat="45.04" lon="6.33731">
        <ele>1666</ele>
        <time>2024-08-10T11:31:15Z</time>
      </trkpt>
      <trkpt lat="45.03999" lon="6.33733">
        <ele>1666</ele>
        <time>2024-08-10T11:31:16Z</time>
      </trkpt>
      <trkpt lat="45.03999" lon="6.33733">
        <ele>1666</ele>
        <time>2024-08-10T11:31:17Z</time>
      </trkpt>
      <trkpt lat="45.03999" lon="6.33736">
        <ele>1666</ele>
        <time>2024-08-10T11:31:18Z</time>
      </trkpt>
      <trkpt lat="45.03999" lon="6.33736">
        <ele>1666.2</ele>
        <time>2024-08-10T11:31:19Z</time>
      </trkpt>
      <trkpt lat="45.03999" lon="6.3374">
        <ele>1666.2</ele>
        <time>2024-08-10T11:31:20Z</time>
      </trkpt>
      <trkpt lat="45.03999" lon="6.3374">
        <ele>1666.2</ele>
        <time>2024-08-10T11:31:21Z</time>
      </trkpt>
      <trkpt lat="45.03999" lon="6.3374">
        <ele>1666.2</ele>
        <time>2024-08-10T11:31:22Z</time>
      </trkpt>
      <trkpt lat="45.03999" lon="6.33743">
        <ele>1666</ele>
        <time>2024-08-10T11:31:23Z</time>
      </trkpt>
      <trkpt lat="45.03999" lon="6.33743">
        <ele>1666.4</ele>
        <time>2024-08-10T11:31:24Z</time>
      </trkpt>
      <trkpt lat="45.03999" lon="6.33746">
        <ele>1666.4</ele>
        <time>2024-08-10T11:31:25Z</time>
      </trkpt>
      <trkpt lat="45.03999" lon="6.33746">
        <ele>1666.6</ele>
        <time>2024-08-10T11:31:26Z</time>
      </trkpt>
      <trkpt lat="45.03998" lon="6.33749">
        <ele>1666.6</ele>
        <time>2024-08-10T11:31:27Z</time>
      </trkpt>
      <trkpt lat="45.03998" lon="6.33749">
        <ele>1666.4</ele>
        <time>2024-08-10T11:31:28Z</time>
      </trkpt>
      <trkpt lat="45.03998" lon="6.33749">
        <ele>1666.4</ele>
        <time>2024-08-10T11:31:29Z</time>
      </trkpt>
      <trkpt lat="45.03997" lon="6.33753">
        <ele>1666.4</ele>
        <time>2024-08-10T11:31:30Z</time>
      </trkpt>
      <trkpt lat="45.03997" lon="6.33753">
        <ele>1667</ele>
        <time>2024-08-10T11:31:31Z</time>
      </trkpt>
      <trkpt lat="45.03996" lon="6.33755">
        <ele>1667</ele>
        <time>2024-08-10T11:31:32Z</time>
      </trkpt>
      <trkpt lat="45.03996" lon="6.33755">
        <ele>1667.4</ele>
        <time>2024-08-10T11:31:33Z</time>
      </trkpt>
      <trkpt lat="45.03996" lon="6.33758">
        <ele>1667.4</ele>
        <time>2024-08-10T11:31:34Z</time>
      </trkpt>
      <trkpt lat="45.03996" lon="6.33758">
        <ele>1667.6</ele>
        <time>2024-08-10T11:31:35Z</time>
      </trkpt>
      <trkpt lat="45.03995" lon="6.33762">
        <ele>1667.8</ele>
        <time>2024-08-10T11:31:36Z</time>
      </trkpt>
      <trkpt lat="45.03995" lon="6.33762">
        <ele>1667.8</ele>
        <time>2024-08-10T11:31:37Z</time>
      </trkpt>
      <trkpt lat="45.03995" lon="6.33765">
        <ele>1667.8</ele>
        <time>2024-08-10T11:31:38Z</time>
      </trkpt>
      <trkpt lat="45.03995" lon="6.33765">
        <ele>1667.8</ele>
        <time>2024-08-10T11:31:39Z</time>
      </trkpt>
      <trkpt lat="45.03995" lon="6.33768">
        <ele>1667.6</ele>
        <time>2024-08-10T11:31:40Z</time>
      </trkpt>
      <trkpt lat="45.03995" lon="6.33768">
        <ele>1667.6</ele>
        <time>2024-08-10T11:31:41Z</time>
      </trkpt>
      <trkpt lat="45.03994" lon="6.3377">
        <ele>1667.8</ele>
        <time>2024-08-10T11:31:42Z</time>
      </trkpt>
      <trkpt lat="45.03994" lon="6.3377">
        <ele>1668</ele>
        <time>2024-08-10T11:31:43Z</time>
      </trkpt>
      <trkpt lat="45.03994" lon="6.33773">
        <ele>1667.8</ele>
        <time>2024-08-10T11:31:44Z</time>
      </trkpt>
      <trkpt lat="45.03994" lon="6.33773">
        <ele>1667.8</ele>
        <time>2024-08-10T11:31:45Z</time>
      </trkpt>
      <trkpt lat="45.03993" lon="6.33776">
        <ele>1667.8</ele>
        <time>2024-08-10T11:31:46Z</time>
      </trkpt>
      <trkpt lat="45.03993" lon="6.33776">
        <ele>1668</ele>
        <time>2024-08-10T11:31:47Z</time>
      </trkpt>
      <trkpt lat="45.03992" lon="6.33779">
        <ele>1668</ele>
        <time>2024-08-10T11:31:48Z</time>
      </trkpt>
      <trkpt lat="45.03992" lon="6.33779">
        <ele>1668.2</ele>
        <time>2024-08-10T11:31:49Z</time>
      </trkpt>
      <trkpt lat="45.0399" lon="6.33781">
        <ele>1668.6</ele>
        <time>2024-08-10T11:31:50Z</time>
      </trkpt>
      <trkpt lat="45.0399" lon="6.33781">
        <ele>1668.6</ele>
        <time>2024-08-10T11:31:51Z</time>
      </trkpt>
      <trkpt lat="45.03989" lon="6.33784">
        <ele>1668.8</ele>
        <time>2024-08-10T11:31:52Z</time>
      </trkpt>
      <trkpt lat="45.03989" lon="6.33784">
        <ele>1669</ele>
        <time>2024-08-10T11:31:53Z</time>
      </trkpt>
      <trkpt lat="45.03988" lon="6.33786">
        <ele>1669.2</ele>
        <time>2024-08-10T11:31:54Z</time>
      </trkpt>
      <trkpt lat="45.03988" lon="6.33786">
        <ele>1669.2</ele>
        <time>2024-08-10T11:31:55Z</time>
      </trkpt>
      <trkpt lat="45.03988" lon="6.33786">
        <ele>1669.6</ele>
        <time>2024-08-10T11:31:56Z</time>
      </trkpt>
      <trkpt lat="45.03987" lon="6.3379">
        <ele>1669.6</ele>
        <time>2024-08-10T11:31:57Z</time>
      </trkpt>
      <trkpt lat="45.03987" lon="6.3379">
        <ele>1669.8</ele>
        <time>2024-08-10T11:31:58Z</time>
      </trkpt>
      <trkpt lat="45.03986" lon="6.33793">
        <ele>1669.8</ele>
        <time>2024-08-10T11:31:59Z</time>
      </trkpt>
      <trkpt lat="45.03986" lon="6.33793">
        <ele>1670</ele>
        <time>2024-08-10T11:32:00Z</time>
      </trkpt>
      <trkpt lat="45.03986" lon="6.33793">
        <ele>1670</ele>
        <time>2024-08-10T11:32:01Z</time>
      </trkpt>
      <trkpt lat="45.03986" lon="6.33796">
        <ele>1669.6</ele>
        <time>2024-08-10T11:32:02Z</time>
      </trkpt>
      <trkpt lat="45.03986" lon="6.33796">
        <ele>1669.6</ele>
        <time>2024-08-10T11:32:03Z</time>
      </trkpt>
      <trkpt lat="45.03984" lon="6.33799">
        <ele>1669.6</ele>
        <time>2024-08-10T11:32:04Z</time>
      </trkpt>
      <trkpt lat="45.03984" lon="6.33799">
        <ele>1669.6</ele>
        <time>2024-08-10T11:32:05Z</time>
      </trkpt>
      <trkpt lat="45.03983" lon="6.33801">
        <ele>1669.6</ele>
        <time>2024-08-10T11:32:06Z</time>
      </trkpt>
      <trkpt lat="45.03983" lon="6.33801">
        <ele>1669.6</ele>
        <time>2024-08-10T11:32:07Z</time>
      </trkpt>
      <trkpt lat="45.03982" lon="6.33804">
        <ele>1669.6</ele>
        <time>2024-08-10T11:32:08Z</time>
      </trkpt>
      <trkpt lat="45.03982" lon="6.33804">
        <ele>1669.2</ele>
        <time>2024-08-10T11:32:09Z</time>
      </trkpt>
      <trkpt lat="45.03981" lon="6.33807">
        <ele>1669.2</ele>
        <time>2024-08-10T11:32:10Z</time>
      </trkpt>
      <trkpt lat="45.03981" lon="6.33807">
        <ele>1668.6</ele>
        <time>2024-08-10T11:32:11Z</time>
      </trkpt>
      <trkpt lat="45.0398" lon="6.33809">
        <ele>1668.4</ele>
        <time>2024-08-10T11:32:12Z</time>
      </trkpt>
      <trkpt lat="45.0398" lon="6.33809">
        <ele>1668.2</ele>
        <time>2024-08-10T11:32:13Z</time>
      </trkpt>
      <trkpt lat="45.03979" lon="6.33812">
        <ele>1668</ele>
        <time>2024-08-10T11:32:14Z</time>
      </trkpt>
      <trkpt lat="45.03979" lon="6.33812">
        <ele>1667.8</ele>
        <time>2024-08-10T11:32:15Z</time>
      </trkpt>
      <trkpt lat="45.03978" lon="6.33814">
        <ele>1667.8</ele>
        <time>2024-08-10T11:32:16Z</time>
      </trkpt>
      <trkpt lat="45.03978" lon="6.33814">
        <ele>1667.6</ele>
        <time>2024-08-10T11:32:17Z</time>
      </trkpt>
      <trkpt lat="45.03978" lon="6.33814">
        <ele>1667.4</ele>
        <time>2024-08-10T11:32:18Z</time>
      </trkpt>
      <trkpt lat="45.03977" lon="6.33818">
        <ele>1667.4</ele>
        <time>2024-08-10T11:32:19Z</time>
      </trkpt>
      <trkpt lat="45.03977" lon="6.33818">
        <ele>1667.4</ele>
        <time>2024-08-10T11:32:20Z</time>
      </trkpt>
      <trkpt lat="45.03978" lon="6.33821">
        <ele>1667.2</ele>
        <time>2024-08-10T11:32:21Z</time>
      </trkpt>
      <trkpt lat="45.03978" lon="6.33821">
        <ele>1667.2</ele>
        <time>2024-08-10T11:32:22Z</time>
      </trkpt>
      <trkpt lat="45.03978" lon="6.33825">
        <ele>1667</ele>
        <time>2024-08-10T11:32:23Z</time>
      </trkpt>
      <trkpt lat="45.03978" lon="6.33825">
        <ele>1667</ele>
        <time>2024-08-10T11:32:24Z</time>
      </trkpt>
      <trkpt lat="45.03976" lon="6.33828">
        <ele>1667</ele>
        <time>2024-08-10T11:32:25Z</time>
      </trkpt>
      <trkpt lat="45.03976" lon="6.33828">
        <ele>1667.2</ele>
        <time>2024-08-10T11:32:26Z</time>
      </trkpt>
      <trkpt lat="45.03974" lon="6.33831">
        <ele>1667.2</ele>
        <time>2024-08-10T11:32:27Z</time>
      </trkpt>
      <trkpt lat="45.03974" lon="6.33831">
        <ele>1667</ele>
        <time>2024-08-10T11:32:28Z</time>
      </trkpt>
      <trkpt lat="45.03972" lon="6.33834">
        <ele>1667</ele>
        <time>2024-08-10T11:32:29Z</time>
      </trkpt>
      <trkpt lat="45.03972" lon="6.33834">
        <ele>1667</ele>
        <time>2024-08-10T11:32:30Z</time>
      </trkpt>
      <trkpt lat="45.03971" lon="6.33836">
        <ele>1667</ele>
        <time>2024-08-10T11:32:31Z</time>
      </trkpt>
      <trkpt lat="45.03971" lon="6.33836">
        <ele>1667</ele>
        <time>2024-08-10T11:32:32Z</time>
      </trkpt>
      <trkpt lat="45.03971" lon="6.33836">
        <ele>1667</ele>
        <time>2024-08-10T11:32:33Z</time>
      </trkpt>
      <trkpt lat="45.03969" lon="6.33839">
        <ele>1667.2</ele>
        <time>2024-08-10T11:32:34Z</time>
      </trkpt>
      <trkpt lat="45.03969" lon="6.33839">
        <ele>1667.2</ele>
        <time>2024-08-10T11:32:35Z</time>
      </trkpt>
      <trkpt lat="45.03969" lon="6.33842">
        <ele>1667.2</ele>
        <time>2024-08-10T11:32:36Z</time>
      </trkpt>
      <trkpt lat="45.03969" lon="6.33842">
        <ele>1667.2</ele>
        <time>2024-08-10T11:32:37Z</time>
      </trkpt>
      <trkpt lat="45.03968" lon="6.33846">
        <ele>1667.6</ele>
        <time>2024-08-10T11:32:38Z</time>
      </trkpt>
      <trkpt lat="45.03968" lon="6.33846">
        <ele>1667.6</ele>
        <time>2024-08-10T11:32:39Z</time>
      </trkpt>
      <trkpt lat="45.03968" lon="6.33849">
        <ele>1667.4</ele>
        <time>2024-08-10T11:32:40Z</time>
      </trkpt>
      <trkpt lat="45.03968" lon="6.33849">
        <ele>1667.2</ele>
        <time>2024-08-10T11:32:41Z</time>
      </trkpt>
      <trkpt lat="45.03966" lon="6.33852">
        <ele>1667</ele>
        <time>2024-08-10T11:32:42Z</time>
      </trkpt>
      <trkpt lat="45.03966" lon="6.33852">
        <ele>1667</ele>
        <time>2024-08-10T11:32:43Z</time>
      </trkpt>
      <trkpt lat="45.03965" lon="6.33856">
        <ele>1667</ele>
        <time>2024-08-10T11:32:44Z</time>
      </trkpt>
      <trkpt lat="45.03965" lon="6.33856">
        <ele>1666.6</ele>
        <time>2024-08-10T11:32:45Z</time>
      </trkpt>
      <trkpt lat="45.03964" lon="6.33858">
        <ele>1666.6</ele>
        <time>2024-08-10T11:32:46Z</time>
      </trkpt>
      <trkpt lat="45.03964" lon="6.33858">
        <ele>1666.6</ele>
        <time>2024-08-10T11:32:47Z</time>
      </trkpt>
      <trkpt lat="45.03961" lon="6.33862">
        <ele>1666.8</ele>
        <time>2024-08-10T11:32:48Z</time>
      </trkpt>
      <trkpt lat="45.03961" lon="6.33862">
        <ele>1666.8</ele>
        <time>2024-08-10T11:32:49Z</time>
      </trkpt>
      <trkpt lat="45.0396" lon="6.33865">
        <ele>1666.8</ele>
        <time>2024-08-10T11:32:50Z</time>
      </trkpt>
      <trkpt lat="45.0396" lon="6.33865">
        <ele>1666.8</ele>
        <time>2024-08-10T11:32:51Z</time>
      </trkpt>
      <trkpt lat="45.03958" lon="6.33868">
        <ele>1666.8</ele>
        <time>2024-08-10T11:32:52Z</time>
      </trkpt>
      <trkpt lat="45.03958" lon="6.33868">
        <ele>1666.8</ele>
        <time>2024-08-10T11:32:53Z</time>
      </trkpt>
      <trkpt lat="45.03958" lon="6.33871">
        <ele>1666.4</ele>
        <time>2024-08-10T11:32:54Z</time>
      </trkpt>
      <trkpt lat="45.03958" lon="6.33871">
        <ele>1666.2</ele>
        <time>2024-08-10T11:32:55Z</time>
      </trkpt>
      <trkpt lat="45.03958" lon="6.33874">
        <ele>1666.2</ele>
        <time>2024-08-10T11:32:56Z</time>
      </trkpt>
      <trkpt lat="45.03958" lon="6.33874">
        <ele>1666.2</ele>
        <time>2024-08-10T11:32:57Z</time>
      </trkpt>
      <trkpt lat="45.03958" lon="6.33877">
        <ele>1666.2</ele>
        <time>2024-08-10T11:32:58Z</time>
      </trkpt>
      <trkpt lat="45.03958" lon="6.33877">
        <ele>1666.2</ele>
        <time>2024-08-10T11:32:59Z</time>
      </trkpt>
      <trkpt lat="45.03958" lon="6.33881">
        <ele>1665.8</ele>
        <time>2024-08-10T11:33:00Z</time>
      </trkpt>
      <trkpt lat="45.03958" lon="6.33881">
        <ele>1665.8</ele>
        <time>2024-08-10T11:33:01Z</time>
      </trkpt>
      <trkpt lat="45.03958" lon="6.33884">
        <ele>1665.6</ele>
        <time>2024-08-10T11:33:02Z</time>
      </trkpt>
      <trkpt lat="45.03958" lon="6.33884">
        <ele>1665</ele>
        <time>2024-08-10T11:33:03Z</time>
      </trkpt>
      <trkpt lat="45.03957" lon="6.33888">
        <ele>1665</ele>
        <time>2024-08-10T11:33:04Z</time>
      </trkpt>
      <trkpt lat="45.03957" lon="6.33888">
        <ele>1664.8</ele>
        <time>2024-08-10T11:33:05Z</time>
      </trkpt>
      <trkpt lat="45.03957" lon="6.33892">
        <ele>1664.8</ele>
        <time>2024-08-10T11:33:06Z</time>
      </trkpt>
      <trkpt lat="45.03957" lon="6.33892">
        <ele>1664.8</ele>
        <time>2024-08-10T11:33:07Z</time>
      </trkpt>
      <trkpt lat="45.03956" lon="6.33895">
        <ele>1664.8</ele>
        <time>2024-08-10T11:33:08Z</time>
      </trkpt>
      <trkpt lat="45.03956" lon="6.33895">
        <ele>1664.6</ele>
        <time>2024-08-10T11:33:09Z</time>
      </trkpt>
      <trkpt lat="45.03956" lon="6.33899">
        <ele>1664.4</ele>
        <time>2024-08-10T11:33:10Z</time>
      </trkpt>
      <trkpt lat="45.03956" lon="6.33899">
        <ele>1664.4</ele>
        <time>2024-08-10T11:33:11Z</time>
      </trkpt>
      <trkpt lat="45.03955" lon="6.33902">
        <ele>1664.4</ele>
        <time>2024-08-10T11:33:12Z</time>
      </trkpt>
      <trkpt lat="45.03955" lon="6.33902">
        <ele>1664.4</ele>
        <time>2024-08-10T11:33:13Z</time>
      </trkpt>
      <trkpt lat="45.03954" lon="6.33906">
        <ele>1664.4</ele>
        <time>2024-08-10T11:33:14Z</time>
      </trkpt>
      <trkpt lat="45.03954" lon="6.33906">
        <ele>1664.2</ele>
        <time>2024-08-10T11:33:15Z</time>
      </trkpt>
      <trkpt lat="45.03954" lon="6.33909">
        <ele>1664.2</ele>
        <time>2024-08-10T11:33:16Z</time>
      </trkpt>
      <trkpt lat="45.03954" lon="6.33909">
        <ele>1664.2</ele>
        <time>2024-08-10T11:33:17Z</time>
      </trkpt>
      <trkpt lat="45.03953" lon="6.33913">
        <ele>1664.2</ele>
        <time>2024-08-10T11:33:18Z</time>
      </trkpt>
      <trkpt lat="45.03953" lon="6.33913">
        <ele>1664.2</ele>
        <time>2024-08-10T11:33:19Z</time>
      </trkpt>
      <trkpt lat="45.03952" lon="6.33916">
        <ele>1664</ele>
        <time>2024-08-10T11:33:20Z</time>
      </trkpt>
      <trkpt lat="45.03952" lon="6.33916">
        <ele>1664</ele>
        <time>2024-08-10T11:33:21Z</time>
      </trkpt>
      <trkpt lat="45.03951" lon="6.33919">
        <ele>1664</ele>
        <time>2024-08-10T11:33:22Z</time>
      </trkpt>
      <trkpt lat="45.03951" lon="6.33919">
        <ele>1663.8</ele>
        <time>2024-08-10T11:33:23Z</time>
      </trkpt>
      <trkpt lat="45.0395" lon="6.33923">
        <ele>1663.6</ele>
        <time>2024-08-10T11:33:24Z</time>
      </trkpt>
      <trkpt lat="45.0395" lon="6.33923">
        <ele>1663.6</ele>
        <time>2024-08-10T11:33:25Z</time>
      </trkpt>
      <trkpt lat="45.03949" lon="6.33926">
        <ele>1663.4</ele>
        <time>2024-08-10T11:33:26Z</time>
      </trkpt>
      <trkpt lat="45.03949" lon="6.33926">
        <ele>1663.2</ele>
        <time>2024-08-10T11:33:27Z</time>
      </trkpt>
      <trkpt lat="45.03949" lon="6.3393">
        <ele>1663.2</ele>
        <time>2024-08-10T11:33:28Z</time>
      </trkpt>
      <trkpt lat="45.03949" lon="6.3393">
        <ele>1663.2</ele>
        <time>2024-08-10T11:33:29Z</time>
      </trkpt>
      <trkpt lat="45.03948" lon="6.33934">
        <ele>1663.2</ele>
        <time>2024-08-10T11:33:30Z</time>
      </trkpt>
      <trkpt lat="45.03948" lon="6.33934">
        <ele>1663.2</ele>
        <time>2024-08-10T11:33:31Z</time>
      </trkpt>
      <trkpt lat="45.03948" lon="6.33938">
        <ele>1662.8</ele>
        <time>2024-08-10T11:33:32Z</time>
      </trkpt>
      <trkpt lat="45.03947" lon="6.3394">
        <ele>1662.8</ele>
        <time>2024-08-10T11:33:33Z</time>
      </trkpt>
      <trkpt lat="45.03947" lon="6.3394">
        <ele>1662.6</ele>
        <time>2024-08-10T11:33:34Z</time>
      </trkpt>
      <trkpt lat="45.03946" lon="6.33943">
        <ele>1662.4</ele>
        <time>2024-08-10T11:33:35Z</time>
      </trkpt>
      <trkpt lat="45.03946" lon="6.33943">
        <ele>1662.4</ele>
        <time>2024-08-10T11:33:36Z</time>
      </trkpt>
      <trkpt lat="45.03945" lon="6.33946">
        <ele>1662.4</ele>
        <time>2024-08-10T11:33:37Z</time>
      </trkpt>
      <trkpt lat="45.03945" lon="6.33946">
        <ele>1662.4</ele>
        <time>2024-08-10T11:33:38Z</time>
      </trkpt>
      <trkpt lat="45.03944" lon="6.33949">
        <ele>1662.4</ele>
        <time>2024-08-10T11:33:39Z</time>
      </trkpt>
      <trkpt lat="45.03944" lon="6.33949">
        <ele>1662.4</ele>
        <time>2024-08-10T11:33:40Z</time>
      </trkpt>
      <trkpt lat="45.03942" lon="6.33952">
        <ele>1662.4</ele>
        <time>2024-08-10T11:33:41Z</time>
      </trkpt>
      <trkpt lat="45.03942" lon="6.33952">
        <ele>1662.4</ele>
        <time>2024-08-10T11:33:42Z</time>
      </trkpt>
      <trkpt lat="45.03942" lon="6.33955">
        <ele>1662.4</ele>
        <time>2024-08-10T11:33:43Z</time>
      </trkpt>
      <trkpt lat="45.03942" lon="6.33955">
        <ele>1662.2</ele>
        <time>2024-08-10T11:33:44Z</time>
      </trkpt>
      <trkpt lat="45.03941" lon="6.33959">
        <ele>1662</ele>
        <time>2024-08-10T11:33:45Z</time>
      </trkpt>
      <trkpt lat="45.0394" lon="6.33961">
        <ele>1662</ele>
        <time>2024-08-10T11:33:46Z</time>
      </trkpt>
      <trkpt lat="45.0394" lon="6.33961">
        <ele>1661.8</ele>
        <time>2024-08-10T11:33:47Z</time>
      </trkpt>
      <trkpt lat="45.0394" lon="6.33964">
        <ele>1661.8</ele>
        <time>2024-08-10T11:33:48Z</time>
      </trkpt>
      <trkpt lat="45.0394" lon="6.33964">
        <ele>1661.8</ele>
        <time>2024-08-10T11:33:49Z</time>
      </trkpt>
      <trkpt lat="45.03939" lon="6.33967">
        <ele>1661.8</ele>
        <time>2024-08-10T11:33:50Z</time>
      </trkpt>
      <trkpt lat="45.03939" lon="6.33967">
        <ele>1661.8</ele>
        <time>2024-08-10T11:33:51Z</time>
      </trkpt>
      <trkpt lat="45.03939" lon="6.33967">
        <ele>1661.8</ele>
        <time>2024-08-10T11:33:52Z</time>
      </trkpt>
      <trkpt lat="45.03938" lon="6.3397">
        <ele>1661.8</ele>
        <time>2024-08-10T11:33:53Z</time>
      </trkpt>
      <trkpt lat="45.03938" lon="6.3397">
        <ele>1661.8</ele>
        <time>2024-08-10T11:33:54Z</time>
      </trkpt>
      <trkpt lat="45.03938" lon="6.3397">
        <ele>1661.8</ele>
        <time>2024-08-10T11:33:55Z</time>
      </trkpt>
      <trkpt lat="45.03937" lon="6.33973">
        <ele>1661.6</ele>
        <time>2024-08-10T11:33:56Z</time>
      </trkpt>
      <trkpt lat="45.03937" lon="6.33973">
        <ele>1661.6</ele>
        <time>2024-08-10T11:33:57Z</time>
      </trkpt>
      <trkpt lat="45.03937" lon="6.33973">
        <ele>1661.4</ele>
        <time>2024-08-10T11:33:58Z</time>
      </trkpt>
      <trkpt lat="45.03936" lon="6.33976">
        <ele>1661.2</ele>
        <time>2024-08-10T11:33:59Z</time>
      </trkpt>
      <trkpt lat="45.03936" lon="6.33976">
        <ele>1660.6</ele>
        <time>2024-08-10T11:34:00Z</time>
      </trkpt>
      <trkpt lat="45.03935" lon="6.3398">
        <ele>1660.2</ele>
        <time>2024-08-10T11:34:01Z</time>
      </trkpt>
      <trkpt lat="45.03935" lon="6.3398">
        <ele>1660</ele>
        <time>2024-08-10T11:34:02Z</time>
      </trkpt>
      <trkpt lat="45.03934" lon="6.33983">
        <ele>1659.8</ele>
        <time>2024-08-10T11:34:03Z</time>
      </trkpt>
      <trkpt lat="45.03934" lon="6.33983">
        <ele>1659.8</ele>
        <time>2024-08-10T11:34:04Z</time>
      </trkpt>
      <trkpt lat="45.03933" lon="6.33986">
        <ele>1659.6</ele>
        <time>2024-08-10T11:34:05Z</time>
      </trkpt>
      <trkpt lat="45.03933" lon="6.33986">
        <ele>1659.6</ele>
        <time>2024-08-10T11:34:06Z</time>
      </trkpt>
      <trkpt lat="45.03933" lon="6.33989">
        <ele>1659.6</ele>
        <time>2024-08-10T11:34:07Z</time>
      </trkpt>
      <trkpt lat="45.03933" lon="6.33989">
        <ele>1659.2</ele>
        <time>2024-08-10T11:34:08Z</time>
      </trkpt>
      <trkpt lat="45.03932" lon="6.33993">
        <ele>1659.2</ele>
        <time>2024-08-10T11:34:09Z</time>
      </trkpt>
      <trkpt lat="45.03932" lon="6.33993">
        <ele>1659</ele>
        <time>2024-08-10T11:34:10Z</time>
      </trkpt>
      <trkpt lat="45.03932" lon="6.33997">
        <ele>1659</ele>
        <time>2024-08-10T11:34:11Z</time>
      </trkpt>
      <trkpt lat="45.03932" lon="6.33997">
        <ele>1659</ele>
        <time>2024-08-10T11:34:12Z</time>
      </trkpt>
      <trkpt lat="45.0393" lon="6.34">
        <ele>1658.8</ele>
        <time>2024-08-10T11:34:13Z</time>
      </trkpt>
      <trkpt lat="45.0393" lon="6.34">
        <ele>1658.8</ele>
        <time>2024-08-10T11:34:14Z</time>
      </trkpt>
      <trkpt lat="45.03928" lon="6.34002">
        <ele>1658.8</ele>
        <time>2024-08-10T11:34:15Z</time>
      </trkpt>
      <trkpt lat="45.03928" lon="6.34002">
        <ele>1659</ele>
        <time>2024-08-10T11:34:16Z</time>
      </trkpt>
      <trkpt lat="45.03927" lon="6.34005">
        <ele>1659</ele>
        <time>2024-08-10T11:34:17Z</time>
      </trkpt>
      <trkpt lat="45.03927" lon="6.34005">
        <ele>1659.4</ele>
        <time>2024-08-10T11:34:18Z</time>
      </trkpt>
      <trkpt lat="45.03925" lon="6.34008">
        <ele>1659.4</ele>
        <time>2024-08-10T11:34:19Z</time>
      </trkpt>
      <trkpt lat="45.03925" lon="6.34008">
        <ele>1659.2</ele>
        <time>2024-08-10T11:34:20Z</time>
      </trkpt>
      <trkpt lat="45.03924" lon="6.34011">
        <ele>1659</ele>
        <time>2024-08-10T11:34:21Z</time>
      </trkpt>
      <trkpt lat="45.03924" lon="6.34011">
        <ele>1659</ele>
        <time>2024-08-10T11:34:22Z</time>
      </trkpt>
      <trkpt lat="45.03924" lon="6.34011">
        <ele>1658.8</ele>
        <time>2024-08-10T11:34:23Z</time>
      </trkpt>
      <trkpt lat="45.03923" lon="6.34014">
        <ele>1658.6</ele>
        <time>2024-08-10T11:34:24Z</time>
      </trkpt>
      <trkpt lat="45.03923" lon="6.34014">
        <ele>1658.6</ele>
        <time>2024-08-10T11:34:25Z</time>
      </trkpt>
      <trkpt lat="45.03922" lon="6.34017">
        <ele>1658.6</ele>
        <time>2024-08-10T11:34:26Z</time>
      </trkpt>
      <trkpt lat="45.03922" lon="6.34017">
        <ele>1658.4</ele>
        <time>2024-08-10T11:34:27Z</time>
      </trkpt>
      <trkpt lat="45.03922" lon="6.34017">
        <ele>1658.2</ele>
        <time>2024-08-10T11:34:28Z</time>
      </trkpt>
      <trkpt lat="45.0392" lon="6.3402">
        <ele>1658</ele>
        <time>2024-08-10T11:34:29Z</time>
      </trkpt>
      <trkpt lat="45.0392" lon="6.3402">
        <ele>1658</ele>
        <time>2024-08-10T11:34:30Z</time>
      </trkpt>
      <trkpt lat="45.03919" lon="6.34023">
        <ele>1658</ele>
        <time>2024-08-10T11:34:31Z</time>
      </trkpt>
      <trkpt lat="45.03919" lon="6.34023">
        <ele>1657.8</ele>
        <time>2024-08-10T11:34:32Z</time>
      </trkpt>
      <trkpt lat="45.03918" lon="6.34026">
        <ele>1657.6</ele>
        <time>2024-08-10T11:34:33Z</time>
      </trkpt>
      <trkpt lat="45.03918" lon="6.34026">
        <ele>1657.6</ele>
        <time>2024-08-10T11:34:34Z</time>
      </trkpt>
      <trkpt lat="45.03917" lon="6.34028">
        <ele>1657.6</ele>
        <time>2024-08-10T11:34:35Z</time>
      </trkpt>
      <trkpt lat="45.03917" lon="6.34028">
        <ele>1657.6</ele>
        <time>2024-08-10T11:34:36Z</time>
      </trkpt>
      <trkpt lat="45.03917" lon="6.34028">
        <ele>1657.6</ele>
        <time>2024-08-10T11:34:37Z</time>
      </trkpt>
      <trkpt lat="45.03915" lon="6.3403">
        <ele>1657.6</ele>
        <time>2024-08-10T11:34:38Z</time>
      </trkpt>
      <trkpt lat="45.03915" lon="6.3403">
        <ele>1657.6</ele>
        <time>2024-08-10T11:34:39Z</time>
      </trkpt>
      <trkpt lat="45.03915" lon="6.3403">
        <ele>1657.8</ele>
        <time>2024-08-10T11:34:40Z</time>
      </trkpt>
      <trkpt lat="45.03915" lon="6.3403">
        <ele>1657.8</ele>
        <time>2024-08-10T11:34:41Z</time>
      </trkpt>
      <trkpt lat="45.03913" lon="6.34032">
        <ele>1658</ele>
        <time>2024-08-10T11:34:42Z</time>
      </trkpt>
      <trkpt lat="45.03913" lon="6.34032">
        <ele>1658</ele>
        <time>2024-08-10T11:34:43Z</time>
      </trkpt>
      <trkpt lat="45.03913" lon="6.34032">
        <ele>1658.6</ele>
        <time>2024-08-10T11:34:44Z</time>
      </trkpt>
      <trkpt lat="45.03913" lon="6.34032">
        <ele>1658.6</ele>
        <time>2024-08-10T11:34:45Z</time>
      </trkpt>
      <trkpt lat="45.03913" lon="6.34032">
        <ele>1658.8</ele>
        <time>2024-08-10T11:34:46Z</time>
      </trkpt>
      <trkpt lat="45.03913" lon="6.34032">
        <ele>1659</ele>
        <time>2024-08-10T11:34:47Z</time>
      </trkpt>
      <trkpt lat="45.03913" lon="6.34032">
        <ele>1659.2</ele>
        <time>2024-08-10T11:34:48Z</time>
      </trkpt>
      <trkpt lat="45.03913" lon="6.34032">
        <ele>1659.2</ele>
        <time>2024-08-10T11:34:49Z</time>
      </trkpt>
      <trkpt lat="45.03913" lon="6.34032">
        <ele>1659.2</ele>
        <time>2024-08-10T11:34:50Z</time>
      </trkpt>
      <trkpt lat="45.03912" lon="6.34034">
        <ele>1659.2</ele>
        <time>2024-08-10T11:34:51Z</time>
      </trkpt>
      <trkpt lat="45.03912" lon="6.34034">
        <ele>1659.2</ele>
        <time>2024-08-10T11:34:52Z</time>
      </trkpt>
      <trkpt lat="45.03911" lon="6.34037">
        <ele>1659.4</ele>
        <time>2024-08-10T11:34:53Z</time>
      </trkpt>
      <trkpt lat="45.03911" lon="6.34037">
        <ele>1659.4</ele>
        <time>2024-08-10T11:34:54Z</time>
      </trkpt>
      <trkpt lat="45.03911" lon="6.34037">
        <ele>1659.6</ele>
        <time>2024-08-10T11:34:55Z</time>
      </trkpt>
      <trkpt lat="45.03911" lon="6.34037">
        <ele>1659.8</ele>
        <time>2024-08-10T11:34:56Z</time>
      </trkpt>
      <trkpt lat="45.03911" lon="6.34037">
        <ele>1660</ele>
        <time>2024-08-10T11:34:57Z</time>
      </trkpt>
      <trkpt lat="45.03911" lon="6.3404">
        <ele>1660.4</ele>
        <time>2024-08-10T11:34:58Z</time>
      </trkpt>
      <trkpt lat="45.03911" lon="6.3404">
        <ele>1660.4</ele>
        <time>2024-08-10T11:34:59Z</time>
      </trkpt>
      <trkpt lat="45.03911" lon="6.3404">
        <ele>1660.4</ele>
        <time>2024-08-10T11:35:00Z</time>
      </trkpt>
      <trkpt lat="45.03911" lon="6.34043">
        <ele>1660.6</ele>
        <time>2024-08-10T11:35:01Z</time>
      </trkpt>
      <trkpt lat="45.03911" lon="6.34043">
        <ele>1660.6</ele>
        <time>2024-08-10T11:35:02Z</time>
      </trkpt>
      <trkpt lat="45.03911" lon="6.34043">
        <ele>1660.8</ele>
        <time>2024-08-10T11:35:03Z</time>
      </trkpt>
      <trkpt lat="45.0391" lon="6.34046">
        <ele>1660.8</ele>
        <time>2024-08-10T11:35:04Z</time>
      </trkpt>
      <trkpt lat="45.0391" lon="6.34046">
        <ele>1660.6</ele>
        <time>2024-08-10T11:35:05Z</time>
      </trkpt>
      <trkpt lat="45.0391" lon="6.34046">
        <ele>1660.6</ele>
        <time>2024-08-10T11:35:06Z</time>
      </trkpt>
      <trkpt lat="45.0391" lon="6.34048">
        <ele>1661</ele>
        <time>2024-08-10T11:35:07Z</time>
      </trkpt>
      <trkpt lat="45.0391" lon="6.34048">
        <ele>1661.2</ele>
        <time>2024-08-10T11:35:08Z</time>
      </trkpt>
      <trkpt lat="45.03909" lon="6.34051">
        <ele>1661.4</ele>
        <time>2024-08-10T11:35:09Z</time>
      </trkpt>
      <trkpt lat="45.03909" lon="6.34051">
        <ele>1661.8</ele>
        <time>2024-08-10T11:35:10Z</time>
      </trkpt>
      <trkpt lat="45.03909" lon="6.34051">
        <ele>1661.8</ele>
        <time>2024-08-10T11:35:11Z</time>
      </trkpt>
      <trkpt lat="45.03908" lon="6.34053">
        <ele>1662</ele>
        <time>2024-08-10T11:35:12Z</time>
      </trkpt>
      <trkpt lat="45.03908" lon="6.34053">
        <ele>1662</ele>
        <time>2024-08-10T11:35:13Z</time>
      </trkpt>
      <trkpt lat="45.03908" lon="6.34053">
        <ele>1662</ele>
        <time>2024-08-10T11:35:14Z</time>
      </trkpt>
      <trkpt lat="45.03908" lon="6.34053">
        <ele>1662.4</ele>
        <time>2024-08-10T11:35:15Z</time>
      </trkpt>
      <trkpt lat="45.03907" lon="6.34056">
        <ele>1662.4</ele>
        <time>2024-08-10T11:35:16Z</time>
      </trkpt>
      <trkpt lat="45.03907" lon="6.34056">
        <ele>1662.4</ele>
        <time>2024-08-10T11:35:17Z</time>
      </trkpt>
      <trkpt lat="45.03907" lon="6.34056">
        <ele>1662.4</ele>
        <time>2024-08-10T11:35:18Z</time>
      </trkpt>
      <trkpt lat="45.03907" lon="6.3406">
        <ele>1662.4</ele>
        <time>2024-08-10T11:35:19Z</time>
      </trkpt>
      <trkpt lat="45.03907" lon="6.3406">
        <ele>1662.2</ele>
        <time>2024-08-10T11:35:20Z</time>
      </trkpt>
      <trkpt lat="45.03907" lon="6.3406">
        <ele>1661.8</ele>
        <time>2024-08-10T11:35:21Z</time>
      </trkpt>
      <trkpt lat="45.03908" lon="6.34064">
        <ele>1661.4</ele>
        <time>2024-08-10T11:35:22Z</time>
      </trkpt>
      <trkpt lat="45.03908" lon="6.34064">
        <ele>1661.4</ele>
        <time>2024-08-10T11:35:23Z</time>
      </trkpt>
      <trkpt lat="45.03908" lon="6.34067">
        <ele>1661.2</ele>
        <time>2024-08-10T11:35:24Z</time>
      </trkpt>
      <trkpt lat="45.03908" lon="6.34067">
        <ele>1660.8</ele>
        <time>2024-08-10T11:35:25Z</time>
      </trkpt>
      <trkpt lat="45.03907" lon="6.34071">
        <ele>1660.6</ele>
        <time>2024-08-10T11:35:26Z</time>
      </trkpt>
      <trkpt lat="45.03907" lon="6.34071">
        <ele>1660.6</ele>
        <time>2024-08-10T11:35:27Z</time>
      </trkpt>
      <trkpt lat="45.03906" lon="6.34074">
        <ele>1660.2</ele>
        <time>2024-08-10T11:35:28Z</time>
      </trkpt>
      <trkpt lat="45.03906" lon="6.34074">
        <ele>1660.2</ele>
        <time>2024-08-10T11:35:29Z</time>
      </trkpt>
      <trkpt lat="45.03906" lon="6.34077">
        <ele>1660.2</ele>
        <time>2024-08-10T11:35:30Z</time>
      </trkpt>
      <trkpt lat="45.03906" lon="6.34077">
        <ele>1660.2</ele>
        <time>2024-08-10T11:35:31Z</time>
      </trkpt>
      <trkpt lat="45.03906" lon="6.34077">
        <ele>1660</ele>
        <time>2024-08-10T11:35:32Z</time>
      </trkpt>
      <trkpt lat="45.03906" lon="6.34077">
        <ele>1659.8</ele>
        <time>2024-08-10T11:35:33Z</time>
      </trkpt>
      <trkpt lat="45.03906" lon="6.34077">
        <ele>1659.6</ele>
        <time>2024-08-10T11:35:34Z</time>
      </trkpt>
      <trkpt lat="45.03905" lon="6.34079">
        <ele>1659.6</ele>
        <time>2024-08-10T11:35:35Z</time>
      </trkpt>
      <trkpt lat="45.03905" lon="6.34079">
        <ele>1659.6</ele>
        <time>2024-08-10T11:35:36Z</time>
      </trkpt>
      <trkpt lat="45.03905" lon="6.34082">
        <ele>1659.6</ele>
        <time>2024-08-10T11:35:37Z</time>
      </trkpt>
      <trkpt lat="45.03905" lon="6.34082">
        <ele>1659.6</ele>
        <time>2024-08-10T11:35:38Z</time>
      </trkpt>
      <trkpt lat="45.03905" lon="6.34085">
        <ele>1659.6</ele>
        <time>2024-08-10T11:35:39Z</time>
      </trkpt>
      <trkpt lat="45.03905" lon="6.34085">
        <ele>1659.4</ele>
        <time>2024-08-10T11:35:40Z</time>
      </trkpt>
      <trkpt lat="45.03906" lon="6.34089">
        <ele>1659.2</ele>
        <time>2024-08-10T11:35:41Z</time>
      </trkpt>
      <trkpt lat="45.03906" lon="6.34089">
        <ele>1659.2</ele>
        <time>2024-08-10T11:35:42Z</time>
      </trkpt>
      <trkpt lat="45.03907" lon="6.34092">
        <ele>1659</ele>
        <time>2024-08-10T11:35:43Z</time>
      </trkpt>
      <trkpt lat="45.03907" lon="6.34092">
        <ele>1659</ele>
        <time>2024-08-10T11:35:44Z</time>
      </trkpt>
      <trkpt lat="45.03908" lon="6.34096">
        <ele>1659</ele>
        <time>2024-08-10T11:35:45Z</time>
      </trkpt>
      <trkpt lat="45.03908" lon="6.34096">
        <ele>1659</ele>
        <time>2024-08-10T11:35:46Z</time>
      </trkpt>
      <trkpt lat="45.03908" lon="6.34099">
        <ele>1659</ele>
        <time>2024-08-10T11:35:47Z</time>
      </trkpt>
      <trkpt lat="45.03908" lon="6.34099">
        <ele>1659.2</ele>
        <time>2024-08-10T11:35:48Z</time>
      </trkpt>
      <trkpt lat="45.03908" lon="6.34102">
        <ele>1659.4</ele>
        <time>2024-08-10T11:35:49Z</time>
      </trkpt>
      <trkpt lat="45.03908" lon="6.34102">
        <ele>1659.4</ele>
        <time>2024-08-10T11:35:50Z</time>
      </trkpt>
      <trkpt lat="45.03908" lon="6.34106">
        <ele>1659.6</ele>
        <time>2024-08-10T11:35:51Z</time>
      </trkpt>
      <trkpt lat="45.03908" lon="6.34106">
        <ele>1660</ele>
        <time>2024-08-10T11:35:52Z</time>
      </trkpt>
      <trkpt lat="45.03908" lon="6.34109">
        <ele>1660.2</ele>
        <time>2024-08-10T11:35:53Z</time>
      </trkpt>
      <trkpt lat="45.03908" lon="6.34109">
        <ele>1660.4</ele>
        <time>2024-08-10T11:35:54Z</time>
      </trkpt>
      <trkpt lat="45.03908" lon="6.34113">
        <ele>1660.4</ele>
        <time>2024-08-10T11:35:55Z</time>
      </trkpt>
      <trkpt lat="45.03908" lon="6.34113">
        <ele>1660.4</ele>
        <time>2024-08-10T11:35:56Z</time>
      </trkpt>
      <trkpt lat="45.03908" lon="6.34116">
        <ele>1660.6</ele>
        <time>2024-08-10T11:35:57Z</time>
      </trkpt>
      <trkpt lat="45.03908" lon="6.34116">
        <ele>1660.6</ele>
        <time>2024-08-10T11:35:58Z</time>
      </trkpt>
      <trkpt lat="45.03907" lon="6.3412">
        <ele>1660.6</ele>
        <time>2024-08-10T11:35:59Z</time>
      </trkpt>
      <trkpt lat="45.03907" lon="6.3412">
        <ele>1660.6</ele>
        <time>2024-08-10T11:36:00Z</time>
      </trkpt>
      <trkpt lat="45.03906" lon="6.34123">
        <ele>1660.4</ele>
        <time>2024-08-10T11:36:01Z</time>
      </trkpt>
      <trkpt lat="45.03906" lon="6.34123">
        <ele>1660.2</ele>
        <time>2024-08-10T11:36:02Z</time>
      </trkpt>
      <trkpt lat="45.03906" lon="6.34127">
        <ele>1660.2</ele>
        <time>2024-08-10T11:36:03Z</time>
      </trkpt>
      <trkpt lat="45.03906" lon="6.34127">
        <ele>1660.2</ele>
        <time>2024-08-10T11:36:04Z</time>
      </trkpt>
      <trkpt lat="45.03904" lon="6.34131">
        <ele>1660.2</ele>
        <time>2024-08-10T11:36:05Z</time>
      </trkpt>
      <trkpt lat="45.03904" lon="6.34131">
        <ele>1660.4</ele>
        <time>2024-08-10T11:36:06Z</time>
      </trkpt>
      <trkpt lat="45.03904" lon="6.34134">
        <ele>1660.4</ele>
        <time>2024-08-10T11:36:07Z</time>
      </trkpt>
      <trkpt lat="45.03904" lon="6.34134">
        <ele>1660.4</ele>
        <time>2024-08-10T11:36:08Z</time>
      </trkpt>
      <trkpt lat="45.03903" lon="6.34138">
        <ele>1660.2</ele>
        <time>2024-08-10T11:36:09Z</time>
      </trkpt>
      <trkpt lat="45.03903" lon="6.34138">
        <ele>1660.2</ele>
        <time>2024-08-10T11:36:10Z</time>
      </trkpt>
      <trkpt lat="45.03902" lon="6.3414">
        <ele>1660.2</ele>
        <time>2024-08-10T11:36:11Z</time>
      </trkpt>
      <trkpt lat="45.03902" lon="6.3414">
        <ele>1660.2</ele>
        <time>2024-08-10T11:36:12Z</time>
      </trkpt>
      <trkpt lat="45.039" lon="6.34143">
        <ele>1660.2</ele>
        <time>2024-08-10T11:36:13Z</time>
      </trkpt>
      <trkpt lat="45.039" lon="6.34143">
        <ele>1660.2</ele>
        <time>2024-08-10T11:36:14Z</time>
      </trkpt>
      <trkpt lat="45.039" lon="6.34145">
        <ele>1660.2</ele>
        <time>2024-08-10T11:36:15Z</time>
      </trkpt>
      <trkpt lat="45.039" lon="6.34145">
        <ele>1660.2</ele>
        <time>2024-08-10T11:36:16Z</time>
      </trkpt>
      <trkpt lat="45.03899" lon="6.34149">
        <ele>1660.2</ele>
        <time>2024-08-10T11:36:17Z</time>
      </trkpt>
      <trkpt lat="45.03899" lon="6.34149">
        <ele>1660</ele>
        <time>2024-08-10T11:36:18Z</time>
      </trkpt>
      <trkpt lat="45.03897" lon="6.34152">
        <ele>1659.8</ele>
        <time>2024-08-10T11:36:19Z</time>
      </trkpt>
      <trkpt lat="45.03897" lon="6.34152">
        <ele>1659.8</ele>
        <time>2024-08-10T11:36:20Z</time>
      </trkpt>
      <trkpt lat="45.03895" lon="6.34155">
        <ele>1659.6</ele>
        <time>2024-08-10T11:36:21Z</time>
      </trkpt>
      <trkpt lat="45.03895" lon="6.34155">
        <ele>1659.4</ele>
        <time>2024-08-10T11:36:22Z</time>
      </trkpt>
      <trkpt lat="45.03894" lon="6.34158">
        <ele>1659</ele>
        <time>2024-08-10T11:36:23Z</time>
      </trkpt>
      <trkpt lat="45.03894" lon="6.34158">
        <ele>1658.6</ele>
        <time>2024-08-10T11:36:24Z</time>
      </trkpt>
      <trkpt lat="45.03893" lon="6.3416">
        <ele>1658.4</ele>
        <time>2024-08-10T11:36:25Z</time>
      </trkpt>
      <trkpt lat="45.03893" lon="6.3416">
        <ele>1658.4</ele>
        <time>2024-08-10T11:36:26Z</time>
      </trkpt>
      <trkpt lat="45.03891" lon="6.34163">
        <ele>1658.2</ele>
        <time>2024-08-10T11:36:27Z</time>
      </trkpt>
      <trkpt lat="45.03891" lon="6.34163">
        <ele>1658.4</ele>
        <time>2024-08-10T11:36:28Z</time>
      </trkpt>
      <trkpt lat="45.0389" lon="6.34166">
        <ele>1658.2</ele>
        <time>2024-08-10T11:36:29Z</time>
      </trkpt>
      <trkpt lat="45.0389" lon="6.34166">
        <ele>1658.4</ele>
        <time>2024-08-10T11:36:30Z</time>
      </trkpt>
      <trkpt lat="45.03888" lon="6.3417">
        <ele>1658.6</ele>
        <time>2024-08-10T11:36:31Z</time>
      </trkpt>
      <trkpt lat="45.03888" lon="6.3417">
        <ele>1658.6</ele>
        <time>2024-08-10T11:36:32Z</time>
      </trkpt>
      <trkpt lat="45.03887" lon="6.34172">
        <ele>1658.6</ele>
        <time>2024-08-10T11:36:33Z</time>
      </trkpt>
      <trkpt lat="45.03887" lon="6.34172">
        <ele>1658.6</ele>
        <time>2024-08-10T11:36:34Z</time>
      </trkpt>
      <trkpt lat="45.03886" lon="6.34175">
        <ele>1658.6</ele>
        <time>2024-08-10T11:36:35Z</time>
      </trkpt>
      <trkpt lat="45.03886" lon="6.34175">
        <ele>1658.6</ele>
        <time>2024-08-10T11:36:36Z</time>
      </trkpt>
      <trkpt lat="45.03885" lon="6.34177">
        <ele>1658.8</ele>
        <time>2024-08-10T11:36:37Z</time>
      </trkpt>
      <trkpt lat="45.03885" lon="6.34177">
        <ele>1659</ele>
        <time>2024-08-10T11:36:38Z</time>
      </trkpt>
      <trkpt lat="45.03883" lon="6.34179">
        <ele>1659</ele>
        <time>2024-08-10T11:36:39Z</time>
      </trkpt>
      <trkpt lat="45.03883" lon="6.34179">
        <ele>1659</ele>
        <time>2024-08-10T11:36:40Z</time>
      </trkpt>
      <trkpt lat="45.03882" lon="6.34182">
        <ele>1659</ele>
        <time>2024-08-10T11:36:41Z</time>
      </trkpt>
      <trkpt lat="45.03882" lon="6.34182">
        <ele>1659.2</ele>
        <time>2024-08-10T11:36:42Z</time>
      </trkpt>
      <trkpt lat="45.03882" lon="6.34185">
        <ele>1659.4</ele>
        <time>2024-08-10T11:36:43Z</time>
      </trkpt>
      <trkpt lat="45.03882" lon="6.34185">
        <ele>1659.6</ele>
        <time>2024-08-10T11:36:44Z</time>
      </trkpt>
      <trkpt lat="45.03882" lon="6.34188">
        <ele>1659.6</ele>
        <time>2024-08-10T11:36:45Z</time>
      </trkpt>
      <trkpt lat="45.03882" lon="6.34188">
        <ele>1659.8</ele>
        <time>2024-08-10T11:36:46Z</time>
      </trkpt>
      <trkpt lat="45.03882" lon="6.34192">
        <ele>1659.8</ele>
        <time>2024-08-10T11:36:47Z</time>
      </trkpt>
      <trkpt lat="45.03882" lon="6.34192">
        <ele>1660</ele>
        <time>2024-08-10T11:36:48Z</time>
      </trkpt>
      <trkpt lat="45.03882" lon="6.34196">
        <ele>1660</ele>
        <time>2024-08-10T11:36:49Z</time>
      </trkpt>
      <trkpt lat="45.03882" lon="6.34196">
        <ele>1660</ele>
        <time>2024-08-10T11:36:50Z</time>
      </trkpt>
      <trkpt lat="45.03883" lon="6.34199">
        <ele>1660</ele>
        <time>2024-08-10T11:36:51Z</time>
      </trkpt>
      <trkpt lat="45.03883" lon="6.34199">
        <ele>1660.2</ele>
        <time>2024-08-10T11:36:52Z</time>
      </trkpt>
      <trkpt lat="45.03882" lon="6.34203">
        <ele>1660.4</ele>
        <time>2024-08-10T11:36:53Z</time>
      </trkpt>
      <trkpt lat="45.03882" lon="6.34203">
        <ele>1660.4</ele>
        <time>2024-08-10T11:36:54Z</time>
      </trkpt>
      <trkpt lat="45.03882" lon="6.34206">
        <ele>1660.4</ele>
        <time>2024-08-10T11:36:55Z</time>
      </trkpt>
      <trkpt lat="45.03882" lon="6.34206">
        <ele>1660.2</ele>
        <time>2024-08-10T11:36:56Z</time>
      </trkpt>
      <trkpt lat="45.0388" lon="6.34208">
        <ele>1660.2</ele>
        <time>2024-08-10T11:36:57Z</time>
      </trkpt>
      <trkpt lat="45.0388" lon="6.34208">
        <ele>1660.4</ele>
        <time>2024-08-10T11:36:58Z</time>
      </trkpt>
      <trkpt lat="45.03879" lon="6.3421">
        <ele>1660.4</ele>
        <time>2024-08-10T11:36:59Z</time>
      </trkpt>
      <trkpt lat="45.03879" lon="6.3421">
        <ele>1660.4</ele>
        <time>2024-08-10T11:37:00Z</time>
      </trkpt>
      <trkpt lat="45.03877" lon="6.34213">
        <ele>1660.2</ele>
        <time>2024-08-10T11:37:01Z</time>
      </trkpt>
      <trkpt lat="45.03877" lon="6.34213">
        <ele>1660.2</ele>
        <time>2024-08-10T11:37:02Z</time>
      </trkpt>
      <trkpt lat="45.03876" lon="6.34216">
        <ele>1660.4</ele>
        <time>2024-08-10T11:37:03Z</time>
      </trkpt>
      <trkpt lat="45.03876" lon="6.34216">
        <ele>1660.4</ele>
        <time>2024-08-10T11:37:04Z</time>
      </trkpt>
      <trkpt lat="45.03875" lon="6.34219">
        <ele>1660.2</ele>
        <time>2024-08-10T11:37:05Z</time>
      </trkpt>
      <trkpt lat="45.03875" lon="6.34219">
        <ele>1660</ele>
        <time>2024-08-10T11:37:06Z</time>
      </trkpt>
      <trkpt lat="45.03874" lon="6.34222">
        <ele>1660.2</ele>
        <time>2024-08-10T11:37:07Z</time>
      </trkpt>
      <trkpt lat="45.03874" lon="6.34222">
        <ele>1660.2</ele>
        <time>2024-08-10T11:37:08Z</time>
      </trkpt>
      <trkpt lat="45.03872" lon="6.34224">
        <ele>1660.2</ele>
        <time>2024-08-10T11:37:09Z</time>
      </trkpt>
      <trkpt lat="45.03872" lon="6.34224">
        <ele>1660.2</ele>
        <time>2024-08-10T11:37:10Z</time>
      </trkpt>
      <trkpt lat="45.03872" lon="6.34227">
        <ele>1660.6</ele>
        <time>2024-08-10T11:37:11Z</time>
      </trkpt>
      <trkpt lat="45.03872" lon="6.34227">
        <ele>1660.8</ele>
        <time>2024-08-10T11:37:12Z</time>
      </trkpt>
      <trkpt lat="45.03871" lon="6.3423">
        <ele>1660.8</ele>
        <time>2024-08-10T11:37:13Z</time>
      </trkpt>
      <trkpt lat="45.03871" lon="6.3423">
        <ele>1660.8</ele>
        <time>2024-08-10T11:37:14Z</time>
      </trkpt>
      <trkpt lat="45.0387" lon="6.34234">
        <ele>1661</ele>
        <time>2024-08-10T11:37:15Z</time>
      </trkpt>
      <trkpt lat="45.0387" lon="6.34234">
        <ele>1661.4</ele>
        <time>2024-08-10T11:37:16Z</time>
      </trkpt>
      <trkpt lat="45.03868" lon="6.34237">
        <ele>1661.4</ele>
        <time>2024-08-10T11:37:17Z</time>
      </trkpt>
      <trkpt lat="45.03868" lon="6.34237">
        <ele>1661</ele>
        <time>2024-08-10T11:37:18Z</time>
      </trkpt>
      <trkpt lat="45.03867" lon="6.3424">
        <ele>1660.8</ele>
        <time>2024-08-10T11:37:19Z</time>
      </trkpt>
      <trkpt lat="45.03867" lon="6.3424">
        <ele>1660.6</ele>
        <time>2024-08-10T11:37:20Z</time>
      </trkpt>
      <trkpt lat="45.03866" lon="6.34243">
        <ele>1660.8</ele>
        <time>2024-08-10T11:37:21Z</time>
      </trkpt>
      <trkpt lat="45.03866" lon="6.34243">
        <ele>1660.8</ele>
        <time>2024-08-10T11:37:22Z</time>
      </trkpt>
      <trkpt lat="45.03865" lon="6.34246">
        <ele>1660.8</ele>
        <time>2024-08-10T11:37:23Z</time>
      </trkpt>
      <trkpt lat="45.03865" lon="6.34246">
        <ele>1660.8</ele>
        <time>2024-08-10T11:37:24Z</time>
      </trkpt>
      <trkpt lat="45.03865" lon="6.34249">
        <ele>1660.8</ele>
        <time>2024-08-10T11:37:25Z</time>
      </trkpt>
      <trkpt lat="45.03865" lon="6.34249">
        <ele>1661</ele>
        <time>2024-08-10T11:37:26Z</time>
      </trkpt>
      <trkpt lat="45.03864" lon="6.34252">
        <ele>1661</ele>
        <time>2024-08-10T11:37:27Z</time>
      </trkpt>
      <trkpt lat="45.03864" lon="6.34252">
        <ele>1661</ele>
        <time>2024-08-10T11:37:28Z</time>
      </trkpt>
      <trkpt lat="45.03862" lon="6.34255">
        <ele>1660.8</ele>
        <time>2024-08-10T11:37:29Z</time>
      </trkpt>
      <trkpt lat="45.03862" lon="6.34255">
        <ele>1660.8</ele>
        <time>2024-08-10T11:37:30Z</time>
      </trkpt>
      <trkpt lat="45.03862" lon="6.34258">
        <ele>1660.8</ele>
        <time>2024-08-10T11:37:31Z</time>
      </trkpt>
      <trkpt lat="45.03862" lon="6.34258">
        <ele>1660.6</ele>
        <time>2024-08-10T11:37:32Z</time>
      </trkpt>
      <trkpt lat="45.03862" lon="6.34258">
        <ele>1660.2</ele>
        <time>2024-08-10T11:37:33Z</time>
      </trkpt>
      <trkpt lat="45.03862" lon="6.34261">
        <ele>1660</ele>
        <time>2024-08-10T11:37:34Z</time>
      </trkpt>
      <trkpt lat="45.03862" lon="6.34261">
        <ele>1659.6</ele>
        <time>2024-08-10T11:37:35Z</time>
      </trkpt>
      <trkpt lat="45.03861" lon="6.34264">
        <ele>1659.6</ele>
        <time>2024-08-10T11:37:36Z</time>
      </trkpt>
      <trkpt lat="45.03861" lon="6.34264">
        <ele>1659.2</ele>
        <time>2024-08-10T11:37:37Z</time>
      </trkpt>
      <trkpt lat="45.03861" lon="6.34267">
        <ele>1659.2</ele>
        <time>2024-08-10T11:37:38Z</time>
      </trkpt>
      <trkpt lat="45.03861" lon="6.34267">
        <ele>1659</ele>
        <time>2024-08-10T11:37:39Z</time>
      </trkpt>
      <trkpt lat="45.03861" lon="6.34267">
        <ele>1658.6</ele>
        <time>2024-08-10T11:37:40Z</time>
      </trkpt>
      <trkpt lat="45.0386" lon="6.3427">
        <ele>1658.4</ele>
        <time>2024-08-10T11:37:41Z</time>
      </trkpt>
      <trkpt lat="45.0386" lon="6.3427">
        <ele>1658.2</ele>
        <time>2024-08-10T11:37:42Z</time>
      </trkpt>
      <trkpt lat="45.03859" lon="6.34273">
        <ele>1657.8</ele>
        <time>2024-08-10T11:37:43Z</time>
      </trkpt>
      <trkpt lat="45.03859" lon="6.34273">
        <ele>1657.8</ele>
        <time>2024-08-10T11:37:44Z</time>
      </trkpt>
      <trkpt lat="45.03857" lon="6.34276">
        <ele>1657.6</ele>
        <time>2024-08-10T11:37:45Z</time>
      </trkpt>
      <trkpt lat="45.03857" lon="6.34276">
        <ele>1657.2</ele>
        <time>2024-08-10T11:37:46Z</time>
      </trkpt>
      <trkpt lat="45.03855" lon="6.3428">
        <ele>1657.2</ele>
        <time>2024-08-10T11:37:47Z</time>
      </trkpt>
      <trkpt lat="45.03855" lon="6.3428">
        <ele>1657.2</ele>
        <time>2024-08-10T11:37:48Z</time>
      </trkpt>
      <trkpt lat="45.03854" lon="6.34283">
        <ele>1656.6</ele>
        <time>2024-08-10T11:37:49Z</time>
      </trkpt>
      <trkpt lat="45.03854" lon="6.34283">
        <ele>1656.6</ele>
        <time>2024-08-10T11:37:50Z</time>
      </trkpt>
      <trkpt lat="45.03853" lon="6.34285">
        <ele>1656.6</ele>
        <time>2024-08-10T11:37:51Z</time>
      </trkpt>
      <trkpt lat="45.03853" lon="6.34285">
        <ele>1656.6</ele>
        <time>2024-08-10T11:37:52Z</time>
      </trkpt>
      <trkpt lat="45.03851" lon="6.34288">
        <ele>1656.6</ele>
        <time>2024-08-10T11:37:53Z</time>
      </trkpt>
      <trkpt lat="45.03851" lon="6.34288">
        <ele>1656.8</ele>
        <time>2024-08-10T11:37:54Z</time>
      </trkpt>
      <trkpt lat="45.0385" lon="6.34291">
        <ele>1656.8</ele>
        <time>2024-08-10T11:37:55Z</time>
      </trkpt>
      <trkpt lat="45.0385" lon="6.34291">
        <ele>1656.6</ele>
        <time>2024-08-10T11:37:56Z</time>
      </trkpt>
      <trkpt lat="45.03849" lon="6.34294">
        <ele>1656.6</ele>
        <time>2024-08-10T11:37:57Z</time>
      </trkpt>
      <trkpt lat="45.03849" lon="6.34294">
        <ele>1656.6</ele>
        <time>2024-08-10T11:37:58Z</time>
      </trkpt>
      <trkpt lat="45.03849" lon="6.34298">
        <ele>1656.4</ele>
        <time>2024-08-10T11:37:59Z</time>
      </trkpt>
      <trkpt lat="45.03849" lon="6.34298">
        <ele>1656.4</ele>
        <time>2024-08-10T11:38:00Z</time>
      </trkpt>
      <trkpt lat="45.03847" lon="6.34302">
        <ele>1656.2</ele>
        <time>2024-08-10T11:38:01Z</time>
      </trkpt>
      <trkpt lat="45.03847" lon="6.34302">
        <ele>1655.8</ele>
        <time>2024-08-10T11:38:02Z</time>
      </trkpt>
      <trkpt lat="45.03846" lon="6.34305">
        <ele>1655.6</ele>
        <time>2024-08-10T11:38:03Z</time>
      </trkpt>
      <trkpt lat="45.03846" lon="6.34305">
        <ele>1655.6</ele>
        <time>2024-08-10T11:38:04Z</time>
      </trkpt>
      <trkpt lat="45.03845" lon="6.34307">
        <ele>1655.6</ele>
        <time>2024-08-10T11:38:05Z</time>
      </trkpt>
      <trkpt lat="45.03845" lon="6.34307">
        <ele>1655.6</ele>
        <time>2024-08-10T11:38:06Z</time>
      </trkpt>
      <trkpt lat="45.03843" lon="6.3431">
        <ele>1655.6</ele>
        <time>2024-08-10T11:38:07Z</time>
      </trkpt>
      <trkpt lat="45.03843" lon="6.3431">
        <ele>1655.8</ele>
        <time>2024-08-10T11:38:08Z</time>
      </trkpt>
      <trkpt lat="45.03841" lon="6.34313">
        <ele>1655.8</ele>
        <time>2024-08-10T11:38:09Z</time>
      </trkpt>
      <trkpt lat="45.03841" lon="6.34313">
        <ele>1655.8</ele>
        <time>2024-08-10T11:38:10Z</time>
      </trkpt>
      <trkpt lat="45.03839" lon="6.34315">
        <ele>1655.8</ele>
        <time>2024-08-10T11:38:11Z</time>
      </trkpt>
      <trkpt lat="45.03839" lon="6.34315">
        <ele>1655.8</ele>
        <time>2024-08-10T11:38:12Z</time>
      </trkpt>
      <trkpt lat="45.03837" lon="6.34318">
        <ele>1655.6</ele>
        <time>2024-08-10T11:38:13Z</time>
      </trkpt>
      <trkpt lat="45.03837" lon="6.34318">
        <ele>1655.6</ele>
        <time>2024-08-10T11:38:14Z</time>
      </trkpt>
      <trkpt lat="45.03837" lon="6.34321">
        <ele>1655.8</ele>
        <time>2024-08-10T11:38:15Z</time>
      </trkpt>
      <trkpt lat="45.03837" lon="6.34321">
        <ele>1655.8</ele>
        <time>2024-08-10T11:38:16Z</time>
      </trkpt>
      <trkpt lat="45.03836" lon="6.34323">
        <ele>1655.8</ele>
        <time>2024-08-10T11:38:17Z</time>
      </trkpt>
      <trkpt lat="45.03836" lon="6.34323">
        <ele>1655.8</ele>
        <time>2024-08-10T11:38:18Z</time>
      </trkpt>
      <trkpt lat="45.03835" lon="6.34327">
        <ele>1655.6</ele>
        <time>2024-08-10T11:38:19Z</time>
      </trkpt>
      <trkpt lat="45.03835" lon="6.34327">
        <ele>1655.6</ele>
        <time>2024-08-10T11:38:20Z</time>
      </trkpt>
      <trkpt lat="45.03833" lon="6.3433">
        <ele>1655.6</ele>
        <time>2024-08-10T11:38:21Z</time>
      </trkpt>
      <trkpt lat="45.03833" lon="6.3433">
        <ele>1655.8</ele>
        <time>2024-08-10T11:38:22Z</time>
      </trkpt>
      <trkpt lat="45.03832" lon="6.34333">
        <ele>1655.8</ele>
        <time>2024-08-10T11:38:23Z</time>
      </trkpt>
      <trkpt lat="45.03832" lon="6.34333">
        <ele>1655.8</ele>
        <time>2024-08-10T11:38:24Z</time>
      </trkpt>
      <trkpt lat="45.03831" lon="6.34336">
        <ele>1655.8</ele>
        <time>2024-08-10T11:38:25Z</time>
      </trkpt>
      <trkpt lat="45.03831" lon="6.34336">
        <ele>1656</ele>
        <time>2024-08-10T11:38:26Z</time>
      </trkpt>
      <trkpt lat="45.0383" lon="6.34339">
        <ele>1656</ele>
        <time>2024-08-10T11:38:27Z</time>
      </trkpt>
      <trkpt lat="45.0383" lon="6.34339">
        <ele>1655.8</ele>
        <time>2024-08-10T11:38:28Z</time>
      </trkpt>
      <trkpt lat="45.03829" lon="6.34342">
        <ele>1655.6</ele>
        <time>2024-08-10T11:38:29Z</time>
      </trkpt>
      <trkpt lat="45.03829" lon="6.34342">
        <ele>1655.6</ele>
        <time>2024-08-10T11:38:30Z</time>
      </trkpt>
      <trkpt lat="45.03828" lon="6.34346">
        <ele>1655.6</ele>
        <time>2024-08-10T11:38:31Z</time>
      </trkpt>
      <trkpt lat="45.03828" lon="6.34346">
        <ele>1655.6</ele>
        <time>2024-08-10T11:38:32Z</time>
      </trkpt>
      <trkpt lat="45.03827" lon="6.34349">
        <ele>1655.6</ele>
        <time>2024-08-10T11:38:33Z</time>
      </trkpt>
      <trkpt lat="45.03827" lon="6.34349">
        <ele>1655.4</ele>
        <time>2024-08-10T11:38:34Z</time>
      </trkpt>
      <trkpt lat="45.03826" lon="6.34352">
        <ele>1655</ele>
        <time>2024-08-10T11:38:35Z</time>
      </trkpt>
      <trkpt lat="45.03826" lon="6.34352">
        <ele>1655</ele>
        <time>2024-08-10T11:38:36Z</time>
      </trkpt>
      <trkpt lat="45.03825" lon="6.34355">
        <ele>1655</ele>
        <time>2024-08-10T11:38:37Z</time>
      </trkpt>
      <trkpt lat="45.03825" lon="6.34355">
        <ele>1655</ele>
        <time>2024-08-10T11:38:38Z</time>
      </trkpt>
      <trkpt lat="45.03827" lon="6.34359">
        <ele>1655</ele>
        <time>2024-08-10T11:38:39Z</time>
      </trkpt>
      <trkpt lat="45.03827" lon="6.34359">
        <ele>1655.6</ele>
        <time>2024-08-10T11:38:40Z</time>
      </trkpt>
      <trkpt lat="45.03827" lon="6.34362">
        <ele>1655.6</ele>
        <time>2024-08-10T11:38:41Z</time>
      </trkpt>
      <trkpt lat="45.03827" lon="6.34362">
        <ele>1655.4</ele>
        <time>2024-08-10T11:38:42Z</time>
      </trkpt>
      <trkpt lat="45.03826" lon="6.34366">
        <ele>1655.4</ele>
        <time>2024-08-10T11:38:43Z</time>
      </trkpt>
      <trkpt lat="45.03826" lon="6.34366">
        <ele>1655.8</ele>
        <time>2024-08-10T11:38:44Z</time>
      </trkpt>
      <trkpt lat="45.03826" lon="6.34369">
        <ele>1655.8</ele>
        <time>2024-08-10T11:38:45Z</time>
      </trkpt>
      <trkpt lat="45.03826" lon="6.34369">
        <ele>1655.8</ele>
        <time>2024-08-10T11:38:46Z</time>
      </trkpt>
      <trkpt lat="45.03827" lon="6.34373">
        <ele>1656</ele>
        <time>2024-08-10T11:38:47Z</time>
      </trkpt>
      <trkpt lat="45.03827" lon="6.34373">
        <ele>1656</ele>
        <time>2024-08-10T11:38:48Z</time>
      </trkpt>
      <trkpt lat="45.03826" lon="6.34376">
        <ele>1656</ele>
        <time>2024-08-10T11:38:49Z</time>
      </trkpt>
      <trkpt lat="45.03826" lon="6.34376">
        <ele>1656</ele>
        <time>2024-08-10T11:38:50Z</time>
      </trkpt>
      <trkpt lat="45.03825" lon="6.34379">
        <ele>1655.6</ele>
        <time>2024-08-10T11:38:51Z</time>
      </trkpt>
      <trkpt lat="45.03825" lon="6.34379">
        <ele>1655.6</ele>
        <time>2024-08-10T11:38:52Z</time>
      </trkpt>
      <trkpt lat="45.03825" lon="6.34382">
        <ele>1655.8</ele>
        <time>2024-08-10T11:38:53Z</time>
      </trkpt>
      <trkpt lat="45.03825" lon="6.34382">
        <ele>1656</ele>
        <time>2024-08-10T11:38:54Z</time>
      </trkpt>
      <trkpt lat="45.03824" lon="6.34386">
        <ele>1656.2</ele>
        <time>2024-08-10T11:38:55Z</time>
      </trkpt>
      <trkpt lat="45.03824" lon="6.34386">
        <ele>1656.2</ele>
        <time>2024-08-10T11:38:56Z</time>
      </trkpt>
      <trkpt lat="45.03822" lon="6.34388">
        <ele>1656.2</ele>
        <time>2024-08-10T11:38:57Z</time>
      </trkpt>
      <trkpt lat="45.03822" lon="6.34388">
        <ele>1656.4</ele>
        <time>2024-08-10T11:38:58Z</time>
      </trkpt>
      <trkpt lat="45.03821" lon="6.34391">
        <ele>1656.6</ele>
        <time>2024-08-10T11:38:59Z</time>
      </trkpt>
      <trkpt lat="45.03821" lon="6.34391">
        <ele>1656.8</ele>
        <time>2024-08-10T11:39:00Z</time>
      </trkpt>
      <trkpt lat="45.03821" lon="6.34395">
        <ele>1656.8</ele>
        <time>2024-08-10T11:39:01Z</time>
      </trkpt>
      <trkpt lat="45.03821" lon="6.34395">
        <ele>1656.8</ele>
        <time>2024-08-10T11:39:02Z</time>
      </trkpt>
      <trkpt lat="45.03821" lon="6.34399">
        <ele>1656.4</ele>
        <time>2024-08-10T11:39:03Z</time>
      </trkpt>
      <trkpt lat="45.03821" lon="6.34399">
        <ele>1656.4</ele>
        <time>2024-08-10T11:39:04Z</time>
      </trkpt>
      <trkpt lat="45.03821" lon="6.34402">
        <ele>1656.4</ele>
        <time>2024-08-10T11:39:05Z</time>
      </trkpt>
      <trkpt lat="45.03821" lon="6.34402">
        <ele>1656.4</ele>
        <time>2024-08-10T11:39:06Z</time>
      </trkpt>
      <trkpt lat="45.03821" lon="6.34402">
        <ele>1656.4</ele>
        <time>2024-08-10T11:39:07Z</time>
      </trkpt>
      <trkpt lat="45.0382" lon="6.34405">
        <ele>1656.6</ele>
        <time>2024-08-10T11:39:08Z</time>
      </trkpt>
      <trkpt lat="45.0382" lon="6.34405">
        <ele>1656.8</ele>
        <time>2024-08-10T11:39:09Z</time>
      </trkpt>
      <trkpt lat="45.03821" lon="6.34408">
        <ele>1656.8</ele>
        <time>2024-08-10T11:39:10Z</time>
      </trkpt>
      <trkpt lat="45.03821" lon="6.34408">
        <ele>1656.8</ele>
        <time>2024-08-10T11:39:11Z</time>
      </trkpt>
      <trkpt lat="45.03821" lon="6.34412">
        <ele>1656.8</ele>
        <time>2024-08-10T11:39:12Z</time>
      </trkpt>
      <trkpt lat="45.03821" lon="6.34412">
        <ele>1656.6</ele>
        <time>2024-08-10T11:39:13Z</time>
      </trkpt>
      <trkpt lat="45.0382" lon="6.34414">
        <ele>1656.4</ele>
        <time>2024-08-10T11:39:14Z</time>
      </trkpt>
      <trkpt lat="45.0382" lon="6.34414">
        <ele>1656.4</ele>
        <time>2024-08-10T11:39:15Z</time>
      </trkpt>
      <trkpt lat="45.0382" lon="6.34414">
        <ele>1656.4</ele>
        <time>2024-08-10T11:39:16Z</time>
      </trkpt>
      <trkpt lat="45.03819" lon="6.34417">
        <ele>1656.4</ele>
        <time>2024-08-10T11:39:17Z</time>
      </trkpt>
      <trkpt lat="45.03819" lon="6.34417">
        <ele>1656.6</ele>
        <time>2024-08-10T11:39:18Z</time>
      </trkpt>
      <trkpt lat="45.03817" lon="6.34419">
        <ele>1657.2</ele>
        <time>2024-08-10T11:39:19Z</time>
      </trkpt>
      <trkpt lat="45.03817" lon="6.34419">
        <ele>1657.2</ele>
        <time>2024-08-10T11:39:20Z</time>
      </trkpt>
      <trkpt lat="45.03817" lon="6.34422">
        <ele>1657.4</ele>
        <time>2024-08-10T11:39:21Z</time>
      </trkpt>
      <trkpt lat="45.03817" lon="6.34422">
        <ele>1657.8</ele>
        <time>2024-08-10T11:39:22Z</time>
      </trkpt>
      <trkpt lat="45.03816" lon="6.34425">
        <ele>1658</ele>
        <time>2024-08-10T11:39:23Z</time>
      </trkpt>
      <trkpt lat="45.03816" lon="6.34425">
        <ele>1658.2</ele>
        <time>2024-08-10T11:39:24Z</time>
      </trkpt>
      <trkpt lat="45.03815" lon="6.34428">
        <ele>1658.2</ele>
        <time>2024-08-10T11:39:25Z</time>
      </trkpt>
      <trkpt lat="45.03815" lon="6.34428">
        <ele>1658.4</ele>
        <time>2024-08-10T11:39:26Z</time>
      </trkpt>
      <trkpt lat="45.03814" lon="6.34431">
        <ele>1658.6</ele>
        <time>2024-08-10T11:39:27Z</time>
      </trkpt>
      <trkpt lat="45.03814" lon="6.34431">
        <ele>1658.6</ele>
        <time>2024-08-10T11:39:28Z</time>
      </trkpt>
      <trkpt lat="45.03813" lon="6.34434">
        <ele>1658.4</ele>
        <time>2024-08-10T11:39:29Z</time>
      </trkpt>
      <trkpt lat="45.03813" lon="6.34434">
        <ele>1658.4</ele>
        <time>2024-08-10T11:39:30Z</time>
      </trkpt>
      <trkpt lat="45.03813" lon="6.34437">
        <ele>1658.4</ele>
        <time>2024-08-10T11:39:31Z</time>
      </trkpt>
      <trkpt lat="45.03813" lon="6.34437">
        <ele>1658.8</ele>
        <time>2024-08-10T11:39:32Z</time>
      </trkpt>
      <trkpt lat="45.03812" lon="6.3444">
        <ele>1659</ele>
        <time>2024-08-10T11:39:33Z</time>
      </trkpt>
      <trkpt lat="45.03812" lon="6.3444">
        <ele>1659.2</ele>
        <time>2024-08-10T11:39:34Z</time>
      </trkpt>
      <trkpt lat="45.03812" lon="6.34443">
        <ele>1659.2</ele>
        <time>2024-08-10T11:39:35Z</time>
      </trkpt>
      <trkpt lat="45.03812" lon="6.34443">
        <ele>1659.2</ele>
        <time>2024-08-10T11:39:36Z</time>
      </trkpt>
      <trkpt lat="45.03812" lon="6.34446">
        <ele>1659.4</ele>
        <time>2024-08-10T11:39:37Z</time>
      </trkpt>
      <trkpt lat="45.03812" lon="6.34446">
        <ele>1659.4</ele>
        <time>2024-08-10T11:39:38Z</time>
      </trkpt>
      <trkpt lat="45.03811" lon="6.34449">
        <ele>1659.6</ele>
        <time>2024-08-10T11:39:39Z</time>
      </trkpt>
      <trkpt lat="45.03811" lon="6.34449">
        <ele>1659.8</ele>
        <time>2024-08-10T11:39:40Z</time>
      </trkpt>
      <trkpt lat="45.03811" lon="6.34451">
        <ele>1660</ele>
        <time>2024-08-10T11:39:41Z</time>
      </trkpt>
      <trkpt lat="45.03811" lon="6.34451">
        <ele>1660.2</ele>
        <time>2024-08-10T11:39:42Z</time>
      </trkpt>
      <trkpt lat="45.03811" lon="6.34455">
        <ele>1660.2</ele>
        <time>2024-08-10T11:39:43Z</time>
      </trkpt>
      <trkpt lat="45.03811" lon="6.34455">
        <ele>1660.2</ele>
        <time>2024-08-10T11:39:44Z</time>
      </trkpt>
      <trkpt lat="45.0381" lon="6.34459">
        <ele>1660.2</ele>
        <time>2024-08-10T11:39:45Z</time>
      </trkpt>
      <trkpt lat="45.0381" lon="6.34459">
        <ele>1660.2</ele>
        <time>2024-08-10T11:39:46Z</time>
      </trkpt>
      <trkpt lat="45.03809" lon="6.34462">
        <ele>1660.2</ele>
        <time>2024-08-10T11:39:47Z</time>
      </trkpt>
      <trkpt lat="45.03809" lon="6.34462">
        <ele>1660</ele>
        <time>2024-08-10T11:39:48Z</time>
      </trkpt>
      <trkpt lat="45.03808" lon="6.34465">
        <ele>1659.8</ele>
        <time>2024-08-10T11:39:49Z</time>
      </trkpt>
      <trkpt lat="45.03808" lon="6.34465">
        <ele>1659.6</ele>
        <time>2024-08-10T11:39:50Z</time>
      </trkpt>
      <trkpt lat="45.03807" lon="6.34469">
        <ele>1659.6</ele>
        <time>2024-08-10T11:39:51Z</time>
      </trkpt>
      <trkpt lat="45.03807" lon="6.34469">
        <ele>1659.8</ele>
        <time>2024-08-10T11:39:52Z</time>
      </trkpt>
      <trkpt lat="45.03806" lon="6.34472">
        <ele>1660.2</ele>
        <time>2024-08-10T11:39:53Z</time>
      </trkpt>
      <trkpt lat="45.03806" lon="6.34472">
        <ele>1660</ele>
        <time>2024-08-10T11:39:54Z</time>
      </trkpt>
      <trkpt lat="45.03805" lon="6.34475">
        <ele>1660</ele>
        <time>2024-08-10T11:39:55Z</time>
      </trkpt>
      <trkpt lat="45.03805" lon="6.34475">
        <ele>1660</ele>
        <time>2024-08-10T11:39:56Z</time>
      </trkpt>
      <trkpt lat="45.03805" lon="6.34479">
        <ele>1660</ele>
        <time>2024-08-10T11:39:57Z</time>
      </trkpt>
      <trkpt lat="45.03805" lon="6.34479">
        <ele>1660</ele>
        <time>2024-08-10T11:39:58Z</time>
      </trkpt>
      <trkpt lat="45.03806" lon="6.34483">
        <ele>1660</ele>
        <time>2024-08-10T11:39:59Z</time>
      </trkpt>
      <trkpt lat="45.03806" lon="6.34483">
        <ele>1660</ele>
        <time>2024-08-10T11:40:00Z</time>
      </trkpt>
      <trkpt lat="45.03807" lon="6.34486">
        <ele>1660</ele>
        <time>2024-08-10T11:40:01Z</time>
      </trkpt>
      <trkpt lat="45.03807" lon="6.34486">
        <ele>1659.8</ele>
        <time>2024-08-10T11:40:02Z</time>
      </trkpt>
      <trkpt lat="45.03808" lon="6.34488">
        <ele>1659.6</ele>
        <time>2024-08-10T11:40:03Z</time>
      </trkpt>
      <trkpt lat="45.03808" lon="6.34488">
        <ele>1659.6</ele>
        <time>2024-08-10T11:40:04Z</time>
      </trkpt>
      <trkpt lat="45.03809" lon="6.34492">
        <ele>1659.8</ele>
        <time>2024-08-10T11:40:05Z</time>
      </trkpt>
      <trkpt lat="45.03809" lon="6.34492">
        <ele>1659.8</ele>
        <time>2024-08-10T11:40:06Z</time>
      </trkpt>
      <trkpt lat="45.0381" lon="6.34495">
        <ele>1659.8</ele>
        <time>2024-08-10T11:40:07Z</time>
      </trkpt>
      <trkpt lat="45.0381" lon="6.34495">
        <ele>1659.6</ele>
        <time>2024-08-10T11:40:08Z</time>
      </trkpt>
      <trkpt lat="45.03811" lon="6.34498">
        <ele>1659.4</ele>
        <time>2024-08-10T11:40:09Z</time>
      </trkpt>
      <trkpt lat="45.03811" lon="6.34498">
        <ele>1659.4</ele>
        <time>2024-08-10T11:40:10Z</time>
      </trkpt>
      <trkpt lat="45.03812" lon="6.34502">
        <ele>1659.4</ele>
        <time>2024-08-10T11:40:11Z</time>
      </trkpt>
      <trkpt lat="45.03812" lon="6.34502">
        <ele>1659.4</ele>
        <time>2024-08-10T11:40:12Z</time>
      </trkpt>
      <trkpt lat="45.03813" lon="6.34505">
        <ele>1659.2</ele>
        <time>2024-08-10T11:40:13Z</time>
      </trkpt>
      <trkpt lat="45.03813" lon="6.34505">
        <ele>1659.2</ele>
        <time>2024-08-10T11:40:14Z</time>
      </trkpt>
      <trkpt lat="45.03813" lon="6.34508">
        <ele>1659.2</ele>
        <time>2024-08-10T11:40:15Z</time>
      </trkpt>
      <trkpt lat="45.03813" lon="6.34508">
        <ele>1659.2</ele>
        <time>2024-08-10T11:40:16Z</time>
      </trkpt>
      <trkpt lat="45.03814" lon="6.34511">
        <ele>1659</ele>
        <time>2024-08-10T11:40:17Z</time>
      </trkpt>
      <trkpt lat="45.03814" lon="6.34511">
        <ele>1659</ele>
        <time>2024-08-10T11:40:18Z</time>
      </trkpt>
      <trkpt lat="45.03815" lon="6.34515">
        <ele>1659</ele>
        <time>2024-08-10T11:40:19Z</time>
      </trkpt>
      <trkpt lat="45.03815" lon="6.34515">
        <ele>1659</ele>
        <time>2024-08-10T11:40:20Z</time>
      </trkpt>
      <trkpt lat="45.03816" lon="6.34518">
        <ele>1659</ele>
        <time>2024-08-10T11:40:21Z</time>
      </trkpt>
      <trkpt lat="45.03816" lon="6.34518">
        <ele>1658.8</ele>
        <time>2024-08-10T11:40:22Z</time>
      </trkpt>
      <trkpt lat="45.03817" lon="6.34521">
        <ele>1658.6</ele>
        <time>2024-08-10T11:40:23Z</time>
      </trkpt>
      <trkpt lat="45.03817" lon="6.34521">
        <ele>1658.2</ele>
        <time>2024-08-10T11:40:24Z</time>
      </trkpt>
      <trkpt lat="45.03819" lon="6.34524">
        <ele>1658.2</ele>
        <time>2024-08-10T11:40:25Z</time>
      </trkpt>
      <trkpt lat="45.03819" lon="6.34524">
        <ele>1658.2</ele>
        <time>2024-08-10T11:40:26Z</time>
      </trkpt>
      <trkpt lat="45.03819" lon="6.34527">
        <ele>1658.4</ele>
        <time>2024-08-10T11:40:27Z</time>
      </trkpt>
      <trkpt lat="45.03819" lon="6.34527">
        <ele>1658.6</ele>
        <time>2024-08-10T11:40:28Z</time>
      </trkpt>
      <trkpt lat="45.0382" lon="6.3453">
        <ele>1658.6</ele>
        <time>2024-08-10T11:40:29Z</time>
      </trkpt>
      <trkpt lat="45.0382" lon="6.3453">
        <ele>1658.6</ele>
        <time>2024-08-10T11:40:30Z</time>
      </trkpt>
      <trkpt lat="45.03821" lon="6.34533">
        <ele>1658.8</ele>
        <time>2024-08-10T11:40:31Z</time>
      </trkpt>
      <trkpt lat="45.03821" lon="6.34533">
        <ele>1658.8</ele>
        <time>2024-08-10T11:40:32Z</time>
      </trkpt>
      <trkpt lat="45.03821" lon="6.34533">
        <ele>1658.8</ele>
        <time>2024-08-10T11:40:33Z</time>
      </trkpt>
      <trkpt lat="45.03821" lon="6.34537">
        <ele>1659.2</ele>
        <time>2024-08-10T11:40:34Z</time>
      </trkpt>
      <trkpt lat="45.03821" lon="6.34537">
        <ele>1659.4</ele>
        <time>2024-08-10T11:40:35Z</time>
      </trkpt>
      <trkpt lat="45.03821" lon="6.34539">
        <ele>1659.6</ele>
        <time>2024-08-10T11:40:36Z</time>
      </trkpt>
      <trkpt lat="45.03821" lon="6.34539">
        <ele>1659.8</ele>
        <time>2024-08-10T11:40:37Z</time>
      </trkpt>
      <trkpt lat="45.03821" lon="6.34542">
        <ele>1660</ele>
        <time>2024-08-10T11:40:38Z</time>
      </trkpt>
      <trkpt lat="45.03821" lon="6.34542">
        <ele>1660</ele>
        <time>2024-08-10T11:40:39Z</time>
      </trkpt>
      <trkpt lat="45.03821" lon="6.34545">
        <ele>1660.2</ele>
        <time>2024-08-10T11:40:40Z</time>
      </trkpt>
      <trkpt lat="45.03821" lon="6.34545">
        <ele>1660.2</ele>
        <time>2024-08-10T11:40:41Z</time>
      </trkpt>
      <trkpt lat="45.03821" lon="6.34548">
        <ele>1660.2</ele>
        <time>2024-08-10T11:40:42Z</time>
      </trkpt>
      <trkpt lat="45.03821" lon="6.34548">
        <ele>1660</ele>
        <time>2024-08-10T11:40:43Z</time>
      </trkpt>
      <trkpt lat="45.03821" lon="6.34552">
        <ele>1660</ele>
        <time>2024-08-10T11:40:44Z</time>
      </trkpt>
      <trkpt lat="45.03821" lon="6.34552">
        <ele>1660</ele>
        <time>2024-08-10T11:40:45Z</time>
      </trkpt>
      <trkpt lat="45.0382" lon="6.34556">
        <ele>1659.8</ele>
        <time>2024-08-10T11:40:46Z</time>
      </trkpt>
      <trkpt lat="45.0382" lon="6.34556">
        <ele>1659.4</ele>
        <time>2024-08-10T11:40:47Z</time>
      </trkpt>
      <trkpt lat="45.03819" lon="6.3456">
        <ele>1659.2</ele>
        <time>2024-08-10T11:40:48Z</time>
      </trkpt>
      <trkpt lat="45.03819" lon="6.3456">
        <ele>1659.2</ele>
        <time>2024-08-10T11:40:49Z</time>
      </trkpt>
      <trkpt lat="45.03819" lon="6.34564">
        <ele>1659.2</ele>
        <time>2024-08-10T11:40:50Z</time>
      </trkpt>
      <trkpt lat="45.03819" lon="6.34564">
        <ele>1659.2</ele>
        <time>2024-08-10T11:40:51Z</time>
      </trkpt>
      <trkpt lat="45.03818" lon="6.34568">
        <ele>1659.2</ele>
        <time>2024-08-10T11:40:52Z</time>
      </trkpt>
      <trkpt lat="45.03818" lon="6.34568">
        <ele>1659.2</ele>
        <time>2024-08-10T11:40:53Z</time>
      </trkpt>
      <trkpt lat="45.03817" lon="6.34572">
        <ele>1659.2</ele>
        <time>2024-08-10T11:40:54Z</time>
      </trkpt>
      <trkpt lat="45.03817" lon="6.34572">
        <ele>1659.2</ele>
        <time>2024-08-10T11:40:55Z</time>
      </trkpt>
      <trkpt lat="45.03816" lon="6.34575">
        <ele>1659.2</ele>
        <time>2024-08-10T11:40:56Z</time>
      </trkpt>
      <trkpt lat="45.03816" lon="6.34575">
        <ele>1659.2</ele>
        <time>2024-08-10T11:40:57Z</time>
      </trkpt>
      <trkpt lat="45.03815" lon="6.34578">
        <ele>1659</ele>
        <time>2024-08-10T11:40:58Z</time>
      </trkpt>
      <trkpt lat="45.03815" lon="6.34578">
        <ele>1659</ele>
        <time>2024-08-10T11:40:59Z</time>
      </trkpt>
      <trkpt lat="45.03813" lon="6.34581">
        <ele>1659.2</ele>
        <time>2024-08-10T11:41:00Z</time>
      </trkpt>
      <trkpt lat="45.03813" lon="6.34581">
        <ele>1659.4</ele>
        <time>2024-08-10T11:41:01Z</time>
      </trkpt>
      <trkpt lat="45.03813" lon="6.34584">
        <ele>1659.4</ele>
        <time>2024-08-10T11:41:02Z</time>
      </trkpt>
      <trkpt lat="45.03813" lon="6.34584">
        <ele>1659.2</ele>
        <time>2024-08-10T11:41:03Z</time>
      </trkpt>
      <trkpt lat="45.03811" lon="6.34587">
        <ele>1659.2</ele>
        <time>2024-08-10T11:41:04Z</time>
      </trkpt>
      <trkpt lat="45.03811" lon="6.34587">
        <ele>1659.6</ele>
        <time>2024-08-10T11:41:05Z</time>
      </trkpt>
      <trkpt lat="45.0381" lon="6.3459">
        <ele>1659.8</ele>
        <time>2024-08-10T11:41:06Z</time>
      </trkpt>
      <trkpt lat="45.0381" lon="6.3459">
        <ele>1659.8</ele>
        <time>2024-08-10T11:41:07Z</time>
      </trkpt>
      <trkpt lat="45.03809" lon="6.34594">
        <ele>1659.8</ele>
        <time>2024-08-10T11:41:08Z</time>
      </trkpt>
      <trkpt lat="45.03809" lon="6.34594">
        <ele>1660</ele>
        <time>2024-08-10T11:41:09Z</time>
      </trkpt>
      <trkpt lat="45.03807" lon="6.34596">
        <ele>1660</ele>
        <time>2024-08-10T11:41:10Z</time>
      </trkpt>
      <trkpt lat="45.03807" lon="6.34596">
        <ele>1660</ele>
        <time>2024-08-10T11:41:11Z</time>
      </trkpt>
      <trkpt lat="45.03806" lon="6.34599">
        <ele>1660</ele>
        <time>2024-08-10T11:41:12Z</time>
      </trkpt>
      <trkpt lat="45.03806" lon="6.34599">
        <ele>1660</ele>
        <time>2024-08-10T11:41:13Z</time>
      </trkpt>
      <trkpt lat="45.03805" lon="6.34601">
        <ele>1660.2</ele>
        <time>2024-08-10T11:41:14Z</time>
      </trkpt>
      <trkpt lat="45.03805" lon="6.34601">
        <ele>1660.4</ele>
        <time>2024-08-10T11:41:15Z</time>
      </trkpt>
      <trkpt lat="45.03803" lon="6.34604">
        <ele>1660.6</ele>
        <time>2024-08-10T11:41:16Z</time>
      </trkpt>
      <trkpt lat="45.03803" lon="6.34604">
        <ele>1660.6</ele>
        <time>2024-08-10T11:41:17Z</time>
      </trkpt>
      <trkpt lat="45.03803" lon="6.34604">
        <ele>1660.8</ele>
        <time>2024-08-10T11:41:18Z</time>
      </trkpt>
      <trkpt lat="45.03803" lon="6.34608">
        <ele>1660.8</ele>
        <time>2024-08-10T11:41:19Z</time>
      </trkpt>
      <trkpt lat="45.03803" lon="6.34608">
        <ele>1660.6</ele>
        <time>2024-08-10T11:41:20Z</time>
      </trkpt>
      <trkpt lat="45.03803" lon="6.34608">
        <ele>1660.4</ele>
        <time>2024-08-10T11:41:21Z</time>
      </trkpt>
      <trkpt lat="45.03803" lon="6.34611">
        <ele>1660</ele>
        <time>2024-08-10T11:41:22Z</time>
      </trkpt>
      <trkpt lat="45.03803" lon="6.34611">
        <ele>1659.6</ele>
        <time>2024-08-10T11:41:23Z</time>
      </trkpt>
      <trkpt lat="45.03802" lon="6.34614">
        <ele>1659.6</ele>
        <time>2024-08-10T11:41:24Z</time>
      </trkpt>
      <trkpt lat="45.03802" lon="6.34614">
        <ele>1659.2</ele>
        <time>2024-08-10T11:41:25Z</time>
      </trkpt>
      <trkpt lat="45.03802" lon="6.34617">
        <ele>1659.2</ele>
        <time>2024-08-10T11:41:26Z</time>
      </trkpt>
      <trkpt lat="45.03802" lon="6.34617">
        <ele>1659</ele>
        <time>2024-08-10T11:41:27Z</time>
      </trkpt>
      <trkpt lat="45.03802" lon="6.3462">
        <ele>1658.6</ele>
        <time>2024-08-10T11:41:28Z</time>
      </trkpt>
      <trkpt lat="45.03802" lon="6.3462">
        <ele>1658.2</ele>
        <time>2024-08-10T11:41:29Z</time>
      </trkpt>
      <trkpt lat="45.03802" lon="6.34623">
        <ele>1658</ele>
        <time>2024-08-10T11:41:30Z</time>
      </trkpt>
      <trkpt lat="45.03802" lon="6.34623">
        <ele>1657.4</ele>
        <time>2024-08-10T11:41:31Z</time>
      </trkpt>
      <trkpt lat="45.03801" lon="6.34626">
        <ele>1657.2</ele>
        <time>2024-08-10T11:41:32Z</time>
      </trkpt>
      <trkpt lat="45.03801" lon="6.34626">
        <ele>1657</ele>
        <time>2024-08-10T11:41:33Z</time>
      </trkpt>
      <trkpt lat="45.03801" lon="6.34629">
        <ele>1656.6</ele>
        <time>2024-08-10T11:41:34Z</time>
      </trkpt>
      <trkpt lat="45.03801" lon="6.34629">
        <ele>1656.4</ele>
        <time>2024-08-10T11:41:35Z</time>
      </trkpt>
      <trkpt lat="45.03799" lon="6.34632">
        <ele>1656</ele>
        <time>2024-08-10T11:41:36Z</time>
      </trkpt>
      <trkpt lat="45.03799" lon="6.34632">
        <ele>1655.2</ele>
        <time>2024-08-10T11:41:37Z</time>
      </trkpt>
      <trkpt lat="45.03799" lon="6.34636">
        <ele>1654.8</ele>
        <time>2024-08-10T11:41:38Z</time>
      </trkpt>
      <trkpt lat="45.03799" lon="6.34636">
        <ele>1654.6</ele>
        <time>2024-08-10T11:41:39Z</time>
      </trkpt>
      <trkpt lat="45.03797" lon="6.34639">
        <ele>1654.6</ele>
        <time>2024-08-10T11:41:40Z</time>
      </trkpt>
      <trkpt lat="45.03797" lon="6.34639">
        <ele>1654.4</ele>
        <time>2024-08-10T11:41:41Z</time>
      </trkpt>
      <trkpt lat="45.03796" lon="6.34642">
        <ele>1653.6</ele>
        <time>2024-08-10T11:41:42Z</time>
      </trkpt>
      <trkpt lat="45.03796" lon="6.34642">
        <ele>1653.4</ele>
        <time>2024-08-10T11:41:43Z</time>
      </trkpt>
      <trkpt lat="45.03795" lon="6.34645">
        <ele>1653.4</ele>
        <time>2024-08-10T11:41:44Z</time>
      </trkpt>
      <trkpt lat="45.03795" lon="6.34645">
        <ele>1653.2</ele>
        <time>2024-08-10T11:41:45Z</time>
      </trkpt>
      <trkpt lat="45.03793" lon="6.34649">
        <ele>1652.8</ele>
        <time>2024-08-10T11:41:46Z</time>
      </trkpt>
      <trkpt lat="45.03793" lon="6.34649">
        <ele>1652.8</ele>
        <time>2024-08-10T11:41:47Z</time>
      </trkpt>
      <trkpt lat="45.03791" lon="6.34651">
        <ele>1652.8</ele>
        <time>2024-08-10T11:41:48Z</time>
      </trkpt>
      <trkpt lat="45.03791" lon="6.34651">
        <ele>1652.4</ele>
        <time>2024-08-10T11:41:49Z</time>
      </trkpt>
      <trkpt lat="45.03791" lon="6.34655">
        <ele>1652</ele>
        <time>2024-08-10T11:41:50Z</time>
      </trkpt>
      <trkpt lat="45.03791" lon="6.34655">
        <ele>1652</ele>
        <time>2024-08-10T11:41:51Z</time>
      </trkpt>
      <trkpt lat="45.0379" lon="6.34658">
        <ele>1652</ele>
        <time>2024-08-10T11:41:52Z</time>
      </trkpt>
      <trkpt lat="45.0379" lon="6.34658">
        <ele>1651.8</ele>
        <time>2024-08-10T11:41:53Z</time>
      </trkpt>
      <trkpt lat="45.03791" lon="6.34661">
        <ele>1651.6</ele>
        <time>2024-08-10T11:41:54Z</time>
      </trkpt>
      <trkpt lat="45.03791" lon="6.34661">
        <ele>1651.6</ele>
        <time>2024-08-10T11:41:55Z</time>
      </trkpt>
      <trkpt lat="45.03791" lon="6.34665">
        <ele>1651.4</ele>
        <time>2024-08-10T11:41:56Z</time>
      </trkpt>
      <trkpt lat="45.03791" lon="6.34665">
        <ele>1651.4</ele>
        <time>2024-08-10T11:41:57Z</time>
      </trkpt>
      <trkpt lat="45.03791" lon="6.34667">
        <ele>1651.4</ele>
        <time>2024-08-10T11:41:58Z</time>
      </trkpt>
      <trkpt lat="45.03791" lon="6.34667">
        <ele>1651</ele>
        <time>2024-08-10T11:41:59Z</time>
      </trkpt>
      <trkpt lat="45.03792" lon="6.3467">
        <ele>1650.8</ele>
        <time>2024-08-10T11:42:00Z</time>
      </trkpt>
      <trkpt lat="45.03792" lon="6.3467">
        <ele>1650.6</ele>
        <time>2024-08-10T11:42:01Z</time>
      </trkpt>
      <trkpt lat="45.03793" lon="6.34673">
        <ele>1650.2</ele>
        <time>2024-08-10T11:42:02Z</time>
      </trkpt>
      <trkpt lat="45.03793" lon="6.34673">
        <ele>1649.8</ele>
        <time>2024-08-10T11:42:03Z</time>
      </trkpt>
      <trkpt lat="45.03793" lon="6.34676">
        <ele>1649.6</ele>
        <time>2024-08-10T11:42:04Z</time>
      </trkpt>
      <trkpt lat="45.03793" lon="6.34676">
        <ele>1649.6</ele>
        <time>2024-08-10T11:42:05Z</time>
      </trkpt>
      <trkpt lat="45.03794" lon="6.34679">
        <ele>1649.2</ele>
        <time>2024-08-10T11:42:06Z</time>
      </trkpt>
      <trkpt lat="45.03794" lon="6.34679">
        <ele>1649.2</ele>
        <time>2024-08-10T11:42:07Z</time>
      </trkpt>
      <trkpt lat="45.03794" lon="6.34679">
        <ele>1649.2</ele>
        <time>2024-08-10T11:42:08Z</time>
      </trkpt>
      <trkpt lat="45.03796" lon="6.34683">
        <ele>1649</ele>
        <time>2024-08-10T11:42:09Z</time>
      </trkpt>
      <trkpt lat="45.03796" lon="6.34683">
        <ele>1649</ele>
        <time>2024-08-10T11:42:10Z</time>
      </trkpt>
      <trkpt lat="45.03797" lon="6.34687">
        <ele>1649</ele>
        <time>2024-08-10T11:42:11Z</time>
      </trkpt>
      <trkpt lat="45.03797" lon="6.34687">
        <ele>1649</ele>
        <time>2024-08-10T11:42:12Z</time>
      </trkpt>
      <trkpt lat="45.03797" lon="6.3469">
        <ele>1649</ele>
        <time>2024-08-10T11:42:13Z</time>
      </trkpt>
      <trkpt lat="45.03797" lon="6.3469">
        <ele>1649</ele>
        <time>2024-08-10T11:42:14Z</time>
      </trkpt>
      <trkpt lat="45.03796" lon="6.34694">
        <ele>1648.8</ele>
        <time>2024-08-10T11:42:15Z</time>
      </trkpt>
      <trkpt lat="45.03796" lon="6.34694">
        <ele>1648.8</ele>
        <time>2024-08-10T11:42:16Z</time>
      </trkpt>
      <trkpt lat="45.03795" lon="6.34698">
        <ele>1648.8</ele>
        <time>2024-08-10T11:42:17Z</time>
      </trkpt>
      <trkpt lat="45.03795" lon="6.34698">
        <ele>1648.8</ele>
        <time>2024-08-10T11:42:18Z</time>
      </trkpt>
      <trkpt lat="45.03795" lon="6.34701">
        <ele>1648.8</ele>
        <time>2024-08-10T11:42:19Z</time>
      </trkpt>
      <trkpt lat="45.03795" lon="6.34701">
        <ele>1648.8</ele>
        <time>2024-08-10T11:42:20Z</time>
      </trkpt>
      <trkpt lat="45.03795" lon="6.34705">
        <ele>1648.8</ele>
        <time>2024-08-10T11:42:21Z</time>
      </trkpt>
      <trkpt lat="45.03795" lon="6.34705">
        <ele>1649</ele>
        <time>2024-08-10T11:42:22Z</time>
      </trkpt>
      <trkpt lat="45.03796" lon="6.34709">
        <ele>1649</ele>
        <time>2024-08-10T11:42:23Z</time>
      </trkpt>
      <trkpt lat="45.03796" lon="6.34709">
        <ele>1649</ele>
        <time>2024-08-10T11:42:24Z</time>
      </trkpt>
      <trkpt lat="45.03795" lon="6.34713">
        <ele>1649</ele>
        <time>2024-08-10T11:42:25Z</time>
      </trkpt>
      <trkpt lat="45.03795" lon="6.34713">
        <ele>1649</ele>
        <time>2024-08-10T11:42:26Z</time>
      </trkpt>
      <trkpt lat="45.03794" lon="6.34716">
        <ele>1649</ele>
        <time>2024-08-10T11:42:27Z</time>
      </trkpt>
      <trkpt lat="45.03794" lon="6.34716">
        <ele>1649</ele>
        <time>2024-08-10T11:42:28Z</time>
      </trkpt>
      <trkpt lat="45.03793" lon="6.34719">
        <ele>1649</ele>
        <time>2024-08-10T11:42:29Z</time>
      </trkpt>
      <trkpt lat="45.03793" lon="6.34719">
        <ele>1649</ele>
        <time>2024-08-10T11:42:30Z</time>
      </trkpt>
      <trkpt lat="45.03793" lon="6.34723">
        <ele>1649</ele>
        <time>2024-08-10T11:42:31Z</time>
      </trkpt>
      <trkpt lat="45.03793" lon="6.34723">
        <ele>1649</ele>
        <time>2024-08-10T11:42:32Z</time>
      </trkpt>
      <trkpt lat="45.03792" lon="6.34726">
        <ele>1649</ele>
        <time>2024-08-10T11:42:33Z</time>
      </trkpt>
      <trkpt lat="45.03792" lon="6.34726">
        <ele>1648.8</ele>
        <time>2024-08-10T11:42:34Z</time>
      </trkpt>
      <trkpt lat="45.03791" lon="6.34729">
        <ele>1648.8</ele>
        <time>2024-08-10T11:42:35Z</time>
      </trkpt>
      <trkpt lat="45.03791" lon="6.34729">
        <ele>1648.6</ele>
        <time>2024-08-10T11:42:36Z</time>
      </trkpt>
      <trkpt lat="45.03791" lon="6.34732">
        <ele>1648.4</ele>
        <time>2024-08-10T11:42:37Z</time>
      </trkpt>
      <trkpt lat="45.03791" lon="6.34732">
        <ele>1648.2</ele>
        <time>2024-08-10T11:42:38Z</time>
      </trkpt>
      <trkpt lat="45.0379" lon="6.34736">
        <ele>1648.2</ele>
        <time>2024-08-10T11:42:39Z</time>
      </trkpt>
      <trkpt lat="45.0379" lon="6.34736">
        <ele>1648.2</ele>
        <time>2024-08-10T11:42:40Z</time>
      </trkpt>
      <trkpt lat="45.03789" lon="6.34739">
        <ele>1648.2</ele>
        <time>2024-08-10T11:42:41Z</time>
      </trkpt>
      <trkpt lat="45.03789" lon="6.34739">
        <ele>1648.2</ele>
        <time>2024-08-10T11:42:42Z</time>
      </trkpt>
      <trkpt lat="45.03789" lon="6.34743">
        <ele>1648.2</ele>
        <time>2024-08-10T11:42:43Z</time>
      </trkpt>
      <trkpt lat="45.03789" lon="6.34743">
        <ele>1648.2</ele>
        <time>2024-08-10T11:42:44Z</time>
      </trkpt>
      <trkpt lat="45.0379" lon="6.34747">
        <ele>1648.2</ele>
        <time>2024-08-10T11:42:45Z</time>
      </trkpt>
      <trkpt lat="45.0379" lon="6.34747">
        <ele>1648</ele>
        <time>2024-08-10T11:42:46Z</time>
      </trkpt>
      <trkpt lat="45.03789" lon="6.3475">
        <ele>1647.8</ele>
        <time>2024-08-10T11:42:47Z</time>
      </trkpt>
      <trkpt lat="45.03789" lon="6.3475">
        <ele>1647.8</ele>
        <time>2024-08-10T11:42:48Z</time>
      </trkpt>
      <trkpt lat="45.0379" lon="6.34753">
        <ele>1647.8</ele>
        <time>2024-08-10T11:42:49Z</time>
      </trkpt>
      <trkpt lat="45.0379" lon="6.34753">
        <ele>1648</ele>
        <time>2024-08-10T11:42:50Z</time>
      </trkpt>
      <trkpt lat="45.03791" lon="6.34756">
        <ele>1648</ele>
        <time>2024-08-10T11:42:51Z</time>
      </trkpt>
      <trkpt lat="45.03791" lon="6.34756">
        <ele>1648</ele>
        <time>2024-08-10T11:42:52Z</time>
      </trkpt>
      <trkpt lat="45.03791" lon="6.3476">
        <ele>1648</ele>
        <time>2024-08-10T11:42:53Z</time>
      </trkpt>
      <trkpt lat="45.03791" lon="6.3476">
        <ele>1648</ele>
        <time>2024-08-10T11:42:54Z</time>
      </trkpt>
      <trkpt lat="45.03791" lon="6.34763">
        <ele>1648.2</ele>
        <time>2024-08-10T11:42:55Z</time>
      </trkpt>
      <trkpt lat="45.03791" lon="6.34763">
        <ele>1648.2</ele>
        <time>2024-08-10T11:42:56Z</time>
      </trkpt>
      <trkpt lat="45.03792" lon="6.34767">
        <ele>1648</ele>
        <time>2024-08-10T11:42:57Z</time>
      </trkpt>
      <trkpt lat="45.03792" lon="6.34767">
        <ele>1648</ele>
        <time>2024-08-10T11:42:58Z</time>
      </trkpt>
      <trkpt lat="45.03792" lon="6.3477">
        <ele>1648</ele>
        <time>2024-08-10T11:42:59Z</time>
      </trkpt>
      <trkpt lat="45.03792" lon="6.3477">
        <ele>1648</ele>
        <time>2024-08-10T11:43:00Z</time>
      </trkpt>
      <trkpt lat="45.03793" lon="6.34774">
        <ele>1648</ele>
        <time>2024-08-10T11:43:01Z</time>
      </trkpt>
      <trkpt lat="45.03793" lon="6.34774">
        <ele>1648</ele>
        <time>2024-08-10T11:43:02Z</time>
      </trkpt>
      <trkpt lat="45.03793" lon="6.34778">
        <ele>1648</ele>
        <time>2024-08-10T11:43:03Z</time>
      </trkpt>
      <trkpt lat="45.03793" lon="6.34778">
        <ele>1648</ele>
        <time>2024-08-10T11:43:04Z</time>
      </trkpt>
      <trkpt lat="45.03793" lon="6.34781">
        <ele>1648</ele>
        <time>2024-08-10T11:43:05Z</time>
      </trkpt>
      <trkpt lat="45.03793" lon="6.34781">
        <ele>1648</ele>
        <time>2024-08-10T11:43:06Z</time>
      </trkpt>
      <trkpt lat="45.03793" lon="6.34784">
        <ele>1648.2</ele>
        <time>2024-08-10T11:43:07Z</time>
      </trkpt>
      <trkpt lat="45.03793" lon="6.34784">
        <ele>1648.2</ele>
        <time>2024-08-10T11:43:08Z</time>
      </trkpt>
      <trkpt lat="45.03793" lon="6.34787">
        <ele>1648</ele>
        <time>2024-08-10T11:43:09Z</time>
      </trkpt>
      <trkpt lat="45.03793" lon="6.34787">
        <ele>1648</ele>
        <time>2024-08-10T11:43:10Z</time>
      </trkpt>
      <trkpt lat="45.03792" lon="6.3479">
        <ele>1648.2</ele>
        <time>2024-08-10T11:43:11Z</time>
      </trkpt>
      <trkpt lat="45.03792" lon="6.3479">
        <ele>1648.4</ele>
        <time>2024-08-10T11:43:12Z</time>
      </trkpt>
      <trkpt lat="45.03791" lon="6.34793">
        <ele>1648.4</ele>
        <time>2024-08-10T11:43:13Z</time>
      </trkpt>
      <trkpt lat="45.03791" lon="6.34793">
        <ele>1648.2</ele>
        <time>2024-08-10T11:43:14Z</time>
      </trkpt>
      <trkpt lat="45.03789" lon="6.34796">
        <ele>1648.2</ele>
        <time>2024-08-10T11:43:15Z</time>
      </trkpt>
      <trkpt lat="45.03789" lon="6.34796">
        <ele>1648.2</ele>
        <time>2024-08-10T11:43:16Z</time>
      </trkpt>
      <trkpt lat="45.03789" lon="6.348">
        <ele>1648.2</ele>
        <time>2024-08-10T11:43:17Z</time>
      </trkpt>
      <trkpt lat="45.03789" lon="6.348">
        <ele>1648.4</ele>
        <time>2024-08-10T11:43:18Z</time>
      </trkpt>
      <trkpt lat="45.03787" lon="6.34803">
        <ele>1648.6</ele>
        <time>2024-08-10T11:43:19Z</time>
      </trkpt>
      <trkpt lat="45.03787" lon="6.34803">
        <ele>1648.6</ele>
        <time>2024-08-10T11:43:20Z</time>
      </trkpt>
      <trkpt lat="45.03786" lon="6.34806">
        <ele>1648.6</ele>
        <time>2024-08-10T11:43:21Z</time>
      </trkpt>
      <trkpt lat="45.03786" lon="6.34806">
        <ele>1648.6</ele>
        <time>2024-08-10T11:43:22Z</time>
      </trkpt>
      <trkpt lat="45.03785" lon="6.34809">
        <ele>1648.6</ele>
        <time>2024-08-10T11:43:23Z</time>
      </trkpt>
      <trkpt lat="45.03785" lon="6.34809">
        <ele>1648.6</ele>
        <time>2024-08-10T11:43:24Z</time>
      </trkpt>
      <trkpt lat="45.03784" lon="6.34812">
        <ele>1648.8</ele>
        <time>2024-08-10T11:43:25Z</time>
      </trkpt>
      <trkpt lat="45.03784" lon="6.34812">
        <ele>1648.8</ele>
        <time>2024-08-10T11:43:26Z</time>
      </trkpt>
      <trkpt lat="45.03782" lon="6.34814">
        <ele>1648.6</ele>
        <time>2024-08-10T11:43:27Z</time>
      </trkpt>
      <trkpt lat="45.03782" lon="6.34814">
        <ele>1648.6</ele>
        <time>2024-08-10T11:43:28Z</time>
      </trkpt>
      <trkpt lat="45.0378" lon="6.34816">
        <ele>1648.8</ele>
        <time>2024-08-10T11:43:29Z</time>
      </trkpt>
      <trkpt lat="45.0378" lon="6.34816">
        <ele>1649</ele>
        <time>2024-08-10T11:43:30Z</time>
      </trkpt>
      <trkpt lat="45.03778" lon="6.34817">
        <ele>1649</ele>
        <time>2024-08-10T11:43:31Z</time>
      </trkpt>
      <trkpt lat="45.03778" lon="6.34817">
        <ele>1649</ele>
        <time>2024-08-10T11:43:32Z</time>
      </trkpt>
      <trkpt lat="45.03775" lon="6.3482">
        <ele>1649</ele>
        <time>2024-08-10T11:43:33Z</time>
      </trkpt>
      <trkpt lat="45.03775" lon="6.3482">
        <ele>1649.2</ele>
        <time>2024-08-10T11:43:34Z</time>
      </trkpt>
      <trkpt lat="45.03774" lon="6.34822">
        <ele>1649.2</ele>
        <time>2024-08-10T11:43:35Z</time>
      </trkpt>
      <trkpt lat="45.03774" lon="6.34822">
        <ele>1649.2</ele>
        <time>2024-08-10T11:43:36Z</time>
      </trkpt>
      <trkpt lat="45.03773" lon="6.34825">
        <ele>1649.2</ele>
        <time>2024-08-10T11:43:37Z</time>
      </trkpt>
      <trkpt lat="45.03773" lon="6.34825">
        <ele>1649.4</ele>
        <time>2024-08-10T11:43:38Z</time>
      </trkpt>
      <trkpt lat="45.03771" lon="6.34827">
        <ele>1649.4</ele>
        <time>2024-08-10T11:43:39Z</time>
      </trkpt>
      <trkpt lat="45.03771" lon="6.34827">
        <ele>1649.4</ele>
        <time>2024-08-10T11:43:40Z</time>
      </trkpt>
      <trkpt lat="45.03769" lon="6.34829">
        <ele>1649.2</ele>
        <time>2024-08-10T11:43:41Z</time>
      </trkpt>
      <trkpt lat="45.03769" lon="6.34829">
        <ele>1649.2</ele>
        <time>2024-08-10T11:43:42Z</time>
      </trkpt>
      <trkpt lat="45.03766" lon="6.3483">
        <ele>1649.2</ele>
        <time>2024-08-10T11:43:43Z</time>
      </trkpt>
      <trkpt lat="45.03766" lon="6.3483">
        <ele>1649.2</ele>
        <time>2024-08-10T11:43:44Z</time>
      </trkpt>
      <trkpt lat="45.03764" lon="6.34831">
        <ele>1649.2</ele>
        <time>2024-08-10T11:43:45Z</time>
      </trkpt>
      <trkpt lat="45.03764" lon="6.34831">
        <ele>1649.2</ele>
        <time>2024-08-10T11:43:46Z</time>
      </trkpt>
      <trkpt lat="45.03761" lon="6.34829">
        <ele>1649.2</ele>
        <time>2024-08-10T11:43:47Z</time>
      </trkpt>
      <trkpt lat="45.03761" lon="6.34829">
        <ele>1649.2</ele>
        <time>2024-08-10T11:43:48Z</time>
      </trkpt>
      <trkpt lat="45.03759" lon="6.34829">
        <ele>1649.4</ele>
        <time>2024-08-10T11:43:49Z</time>
      </trkpt>
      <trkpt lat="45.03759" lon="6.34829">
        <ele>1649.6</ele>
        <time>2024-08-10T11:43:50Z</time>
      </trkpt>
      <trkpt lat="45.03757" lon="6.3483">
        <ele>1649.6</ele>
        <time>2024-08-10T11:43:51Z</time>
      </trkpt>
      <trkpt lat="45.03757" lon="6.3483">
        <ele>1649.8</ele>
        <time>2024-08-10T11:43:52Z</time>
      </trkpt>
      <trkpt lat="45.03755" lon="6.34832">
        <ele>1649.8</ele>
        <time>2024-08-10T11:43:53Z</time>
      </trkpt>
      <trkpt lat="45.03755" lon="6.34832">
        <ele>1649.8</ele>
        <time>2024-08-10T11:43:54Z</time>
      </trkpt>
      <trkpt lat="45.03753" lon="6.34834">
        <ele>1649.6</ele>
        <time>2024-08-10T11:43:55Z</time>
      </trkpt>
      <trkpt lat="45.03753" lon="6.34834">
        <ele>1649.6</ele>
        <time>2024-08-10T11:43:56Z</time>
      </trkpt>
      <trkpt lat="45.0375" lon="6.34834">
        <ele>1649.4</ele>
        <time>2024-08-10T11:43:57Z</time>
      </trkpt>
      <trkpt lat="45.0375" lon="6.34834">
        <ele>1649.4</ele>
        <time>2024-08-10T11:43:58Z</time>
      </trkpt>
      <trkpt lat="45.03747" lon="6.34835">
        <ele>1649.4</ele>
        <time>2024-08-10T11:43:59Z</time>
      </trkpt>
      <trkpt lat="45.03747" lon="6.34835">
        <ele>1649.4</ele>
        <time>2024-08-10T11:44:00Z</time>
      </trkpt>
      <trkpt lat="45.03744" lon="6.34833">
        <ele>1649.6</ele>
        <time>2024-08-10T11:44:01Z</time>
      </trkpt>
      <trkpt lat="45.03744" lon="6.34833">
        <ele>1649.8</ele>
        <time>2024-08-10T11:44:02Z</time>
      </trkpt>
      <trkpt lat="45.03741" lon="6.34832">
        <ele>1649.8</ele>
        <time>2024-08-10T11:44:03Z</time>
      </trkpt>
      <trkpt lat="45.03741" lon="6.34832">
        <ele>1649.8</ele>
        <time>2024-08-10T11:44:04Z</time>
      </trkpt>
      <trkpt lat="45.03739" lon="6.34832">
        <ele>1649.6</ele>
        <time>2024-08-10T11:44:05Z</time>
      </trkpt>
      <trkpt lat="45.03739" lon="6.34832">
        <ele>1649.4</ele>
        <time>2024-08-10T11:44:06Z</time>
      </trkpt>
      <trkpt lat="45.03737" lon="6.34833">
        <ele>1649.4</ele>
        <time>2024-08-10T11:44:07Z</time>
      </trkpt>
      <trkpt lat="45.03737" lon="6.34833">
        <ele>1649.4</ele>
        <time>2024-08-10T11:44:08Z</time>
      </trkpt>
      <trkpt lat="45.03733" lon="6.34834">
        <ele>1649.8</ele>
        <time>2024-08-10T11:44:09Z</time>
      </trkpt>
      <trkpt lat="45.03733" lon="6.34834">
        <ele>1650</ele>
        <time>2024-08-10T11:44:10Z</time>
      </trkpt>
      <trkpt lat="45.03732" lon="6.34832">
        <ele>1650</ele>
        <time>2024-08-10T11:44:11Z</time>
      </trkpt>
      <trkpt lat="45.03732" lon="6.34832">
        <ele>1649.8</ele>
        <time>2024-08-10T11:44:12Z</time>
      </trkpt>
      <trkpt lat="45.0373" lon="6.34832">
        <ele>1649.8</ele>
        <time>2024-08-10T11:44:13Z</time>
      </trkpt>
      <trkpt lat="45.0373" lon="6.34832">
        <ele>1649.6</ele>
        <time>2024-08-10T11:44:14Z</time>
      </trkpt>
      <trkpt lat="45.03727" lon="6.34831">
        <ele>1649.8</ele>
        <time>2024-08-10T11:44:15Z</time>
      </trkpt>
      <trkpt lat="45.03727" lon="6.34831">
        <ele>1649.8</ele>
        <time>2024-08-10T11:44:16Z</time>
      </trkpt>
      <trkpt lat="45.03724" lon="6.34831">
        <ele>1649.8</ele>
        <time>2024-08-10T11:44:17Z</time>
      </trkpt>
      <trkpt lat="45.03724" lon="6.34831">
        <ele>1649.8</ele>
        <time>2024-08-10T11:44:18Z</time>
      </trkpt>
      <trkpt lat="45.03722" lon="6.3483">
        <ele>1649.8</ele>
        <time>2024-08-10T11:44:19Z</time>
      </trkpt>
      <trkpt lat="45.03722" lon="6.3483">
        <ele>1649.8</ele>
        <time>2024-08-10T11:44:20Z</time>
      </trkpt>
      <trkpt lat="45.03719" lon="6.34829">
        <ele>1649.6</ele>
        <time>2024-08-10T11:44:21Z</time>
      </trkpt>
      <trkpt lat="45.03719" lon="6.34829">
        <ele>1649.6</ele>
        <time>2024-08-10T11:44:22Z</time>
      </trkpt>
      <trkpt lat="45.03717" lon="6.34828">
        <ele>1649.8</ele>
        <time>2024-08-10T11:44:23Z</time>
      </trkpt>
      <trkpt lat="45.03717" lon="6.34828">
        <ele>1650</ele>
        <time>2024-08-10T11:44:24Z</time>
      </trkpt>
      <trkpt lat="45.03714" lon="6.3483">
        <ele>1650</ele>
        <time>2024-08-10T11:44:25Z</time>
      </trkpt>
      <trkpt lat="45.03714" lon="6.3483">
        <ele>1650.2</ele>
        <time>2024-08-10T11:44:26Z</time>
      </trkpt>
      <trkpt lat="45.03711" lon="6.34831">
        <ele>1650.2</ele>
        <time>2024-08-10T11:44:27Z</time>
      </trkpt>
      <trkpt lat="45.03711" lon="6.34831">
        <ele>1650</ele>
        <time>2024-08-10T11:44:28Z</time>
      </trkpt>
      <trkpt lat="45.0371" lon="6.34834">
        <ele>1649.8</ele>
        <time>2024-08-10T11:44:29Z</time>
      </trkpt>
      <trkpt lat="45.0371" lon="6.34834">
        <ele>1649.8</ele>
        <time>2024-08-10T11:44:30Z</time>
      </trkpt>
      <trkpt lat="45.03708" lon="6.34836">
        <ele>1649.8</ele>
        <time>2024-08-10T11:44:31Z</time>
      </trkpt>
      <trkpt lat="45.03708" lon="6.34836">
        <ele>1649.8</ele>
        <time>2024-08-10T11:44:32Z</time>
      </trkpt>
      <trkpt lat="45.03706" lon="6.34839">
        <ele>1649.8</ele>
        <time>2024-08-10T11:44:33Z</time>
      </trkpt>
      <trkpt lat="45.03706" lon="6.34839">
        <ele>1650</ele>
        <time>2024-08-10T11:44:34Z</time>
      </trkpt>
      <trkpt lat="45.03705" lon="6.34843">
        <ele>1650.2</ele>
        <time>2024-08-10T11:44:35Z</time>
      </trkpt>
      <trkpt lat="45.03705" lon="6.34843">
        <ele>1650.2</ele>
        <time>2024-08-10T11:44:36Z</time>
      </trkpt>
      <trkpt lat="45.03704" lon="6.34846">
        <ele>1650</ele>
        <time>2024-08-10T11:44:37Z</time>
      </trkpt>
      <trkpt lat="45.03704" lon="6.34846">
        <ele>1649.8</ele>
        <time>2024-08-10T11:44:38Z</time>
      </trkpt>
      <trkpt lat="45.03703" lon="6.34849">
        <ele>1649.8</ele>
        <time>2024-08-10T11:44:39Z</time>
      </trkpt>
      <trkpt lat="45.03703" lon="6.34849">
        <ele>1649.8</ele>
        <time>2024-08-10T11:44:40Z</time>
      </trkpt>
      <trkpt lat="45.03702" lon="6.34852">
        <ele>1649.8</ele>
        <time>2024-08-10T11:44:41Z</time>
      </trkpt>
      <trkpt lat="45.03702" lon="6.34852">
        <ele>1649.8</ele>
        <time>2024-08-10T11:44:42Z</time>
      </trkpt>
      <trkpt lat="45.037" lon="6.34856">
        <ele>1649.8</ele>
        <time>2024-08-10T11:44:43Z</time>
      </trkpt>
      <trkpt lat="45.037" lon="6.34856">
        <ele>1650</ele>
        <time>2024-08-10T11:44:44Z</time>
      </trkpt>
      <trkpt lat="45.03698" lon="6.34859">
        <ele>1650</ele>
        <time>2024-08-10T11:44:45Z</time>
      </trkpt>
      <trkpt lat="45.03698" lon="6.34859">
        <ele>1650</ele>
        <time>2024-08-10T11:44:46Z</time>
      </trkpt>
      <trkpt lat="45.03697" lon="6.34863">
        <ele>1650</ele>
        <time>2024-08-10T11:44:47Z</time>
      </trkpt>
      <trkpt lat="45.03697" lon="6.34863">
        <ele>1650</ele>
        <time>2024-08-10T11:44:48Z</time>
      </trkpt>
      <trkpt lat="45.03695" lon="6.34867">
        <ele>1650</ele>
        <time>2024-08-10T11:44:49Z</time>
      </trkpt>
      <trkpt lat="45.03695" lon="6.34867">
        <ele>1650</ele>
        <time>2024-08-10T11:44:50Z</time>
      </trkpt>
      <trkpt lat="45.03693" lon="6.34869">
        <ele>1649.8</ele>
        <time>2024-08-10T11:44:51Z</time>
      </trkpt>
      <trkpt lat="45.03693" lon="6.34869">
        <ele>1650</ele>
        <time>2024-08-10T11:44:52Z</time>
      </trkpt>
      <trkpt lat="45.03692" lon="6.34872">
        <ele>1649.8</ele>
        <time>2024-08-10T11:44:53Z</time>
      </trkpt>
      <trkpt lat="45.03692" lon="6.34872">
        <ele>1650</ele>
        <time>2024-08-10T11:44:54Z</time>
      </trkpt>
      <trkpt lat="45.0369" lon="6.34874">
        <ele>1650</ele>
        <time>2024-08-10T11:44:55Z</time>
      </trkpt>
      <trkpt lat="45.0369" lon="6.34874">
        <ele>1650</ele>
        <time>2024-08-10T11:44:56Z</time>
      </trkpt>
      <trkpt lat="45.03688" lon="6.34877">
        <ele>1650</ele>
        <time>2024-08-10T11:44:57Z</time>
      </trkpt>
      <trkpt lat="45.03688" lon="6.34877">
        <ele>1650</ele>
        <time>2024-08-10T11:44:58Z</time>
      </trkpt>
      <trkpt lat="45.03686" lon="6.34881">
        <ele>1650</ele>
        <time>2024-08-10T11:44:59Z</time>
      </trkpt>
      <trkpt lat="45.03686" lon="6.34881">
        <ele>1650</ele>
        <time>2024-08-10T11:45:00Z</time>
      </trkpt>
      <trkpt lat="45.03685" lon="6.34885">
        <ele>1650</ele>
        <time>2024-08-10T11:45:01Z</time>
      </trkpt>
      <trkpt lat="45.03685" lon="6.34885">
        <ele>1650</ele>
        <time>2024-08-10T11:45:02Z</time>
      </trkpt>
      <trkpt lat="45.03684" lon="6.34888">
        <ele>1650</ele>
        <time>2024-08-10T11:45:03Z</time>
      </trkpt>
      <trkpt lat="45.03684" lon="6.34888">
        <ele>1650</ele>
        <time>2024-08-10T11:45:04Z</time>
      </trkpt>
      <trkpt lat="45.03683" lon="6.34892">
        <ele>1650</ele>
        <time>2024-08-10T11:45:05Z</time>
      </trkpt>
      <trkpt lat="45.03683" lon="6.34892">
        <ele>1650</ele>
        <time>2024-08-10T11:45:06Z</time>
      </trkpt>
      <trkpt lat="45.03681" lon="6.34895">
        <ele>1650</ele>
        <time>2024-08-10T11:45:07Z</time>
      </trkpt>
      <trkpt lat="45.03681" lon="6.34895">
        <ele>1650</ele>
        <time>2024-08-10T11:45:08Z</time>
      </trkpt>
      <trkpt lat="45.0368" lon="6.34898">
        <ele>1650</ele>
        <time>2024-08-10T11:45:09Z</time>
      </trkpt>
      <trkpt lat="45.0368" lon="6.34898">
        <ele>1649.8</ele>
        <time>2024-08-10T11:45:10Z</time>
      </trkpt>
      <trkpt lat="45.03678" lon="6.34901">
        <ele>1649.8</ele>
        <time>2024-08-10T11:45:11Z</time>
      </trkpt>
      <trkpt lat="45.03678" lon="6.34901">
        <ele>1650</ele>
        <time>2024-08-10T11:45:12Z</time>
      </trkpt>
      <trkpt lat="45.03677" lon="6.34904">
        <ele>1650.2</ele>
        <time>2024-08-10T11:45:13Z</time>
      </trkpt>
      <trkpt lat="45.03677" lon="6.34904">
        <ele>1650.2</ele>
        <time>2024-08-10T11:45:14Z</time>
      </trkpt>
      <trkpt lat="45.03676" lon="6.34908">
        <ele>1650.2</ele>
        <time>2024-08-10T11:45:15Z</time>
      </trkpt>
      <trkpt lat="45.03676" lon="6.34908">
        <ele>1650.6</ele>
        <time>2024-08-10T11:45:16Z</time>
      </trkpt>
      <trkpt lat="45.03674" lon="6.34911">
        <ele>1650.6</ele>
        <time>2024-08-10T11:45:17Z</time>
      </trkpt>
      <trkpt lat="45.03674" lon="6.34911">
        <ele>1650.2</ele>
        <time>2024-08-10T11:45:18Z</time>
      </trkpt>
      <trkpt lat="45.03672" lon="6.34914">
        <ele>1650.2</ele>
        <time>2024-08-10T11:45:19Z</time>
      </trkpt>
      <trkpt lat="45.03672" lon="6.34914">
        <ele>1650.4</ele>
        <time>2024-08-10T11:45:20Z</time>
      </trkpt>
      <trkpt lat="45.0367" lon="6.34917">
        <ele>1650.6</ele>
        <time>2024-08-10T11:45:21Z</time>
      </trkpt>
      <trkpt lat="45.0367" lon="6.34917">
        <ele>1650.6</ele>
        <time>2024-08-10T11:45:22Z</time>
      </trkpt>
      <trkpt lat="45.03669" lon="6.34921">
        <ele>1650.4</ele>
        <time>2024-08-10T11:45:23Z</time>
      </trkpt>
      <trkpt lat="45.03669" lon="6.34921">
        <ele>1650.2</ele>
        <time>2024-08-10T11:45:24Z</time>
      </trkpt>
      <trkpt lat="45.03668" lon="6.34924">
        <ele>1650.2</ele>
        <time>2024-08-10T11:45:25Z</time>
      </trkpt>
      <trkpt lat="45.03668" lon="6.34924">
        <ele>1650.4</ele>
        <time>2024-08-10T11:45:26Z</time>
      </trkpt>
      <trkpt lat="45.03667" lon="6.34928">
        <ele>1650.4</ele>
        <time>2024-08-10T11:45:27Z</time>
      </trkpt>
      <trkpt lat="45.03667" lon="6.34928">
        <ele>1650.4</ele>
        <time>2024-08-10T11:45:28Z</time>
      </trkpt>
      <trkpt lat="45.03665" lon="6.34931">
        <ele>1650.6</ele>
        <time>2024-08-10T11:45:29Z</time>
      </trkpt>
      <trkpt lat="45.03665" lon="6.34931">
        <ele>1650.8</ele>
        <time>2024-08-10T11:45:30Z</time>
      </trkpt>
      <trkpt lat="45.03664" lon="6.34934">
        <ele>1650.6</ele>
        <time>2024-08-10T11:45:31Z</time>
      </trkpt>
      <trkpt lat="45.03664" lon="6.34934">
        <ele>1650.8</ele>
        <time>2024-08-10T11:45:32Z</time>
      </trkpt>
      <trkpt lat="45.03662" lon="6.34936">
        <ele>1650.8</ele>
        <time>2024-08-10T11:45:33Z</time>
      </trkpt>
      <trkpt lat="45.03662" lon="6.34936">
        <ele>1650.8</ele>
        <time>2024-08-10T11:45:34Z</time>
      </trkpt>
      <trkpt lat="45.03661" lon="6.34938">
        <ele>1650.8</ele>
        <time>2024-08-10T11:45:35Z</time>
      </trkpt>
      <trkpt lat="45.03661" lon="6.34938">
        <ele>1651.2</ele>
        <time>2024-08-10T11:45:36Z</time>
      </trkpt>
      <trkpt lat="45.03661" lon="6.34942">
        <ele>1651.2</ele>
        <time>2024-08-10T11:45:37Z</time>
      </trkpt>
      <trkpt lat="45.03661" lon="6.34942">
        <ele>1651.2</ele>
        <time>2024-08-10T11:45:38Z</time>
      </trkpt>
      <trkpt lat="45.03661" lon="6.34946">
        <ele>1651</ele>
        <time>2024-08-10T11:45:39Z</time>
      </trkpt>
      <trkpt lat="45.03661" lon="6.34946">
        <ele>1651</ele>
        <time>2024-08-10T11:45:40Z</time>
      </trkpt>
      <trkpt lat="45.0366" lon="6.34949">
        <ele>1651</ele>
        <time>2024-08-10T11:45:41Z</time>
      </trkpt>
      <trkpt lat="45.0366" lon="6.34949">
        <ele>1650.8</ele>
        <time>2024-08-10T11:45:42Z</time>
      </trkpt>
      <trkpt lat="45.03659" lon="6.34953">
        <ele>1650.8</ele>
        <time>2024-08-10T11:45:43Z</time>
      </trkpt>
      <trkpt lat="45.03659" lon="6.34953">
        <ele>1651</ele>
        <time>2024-08-10T11:45:44Z</time>
      </trkpt>
      <trkpt lat="45.03659" lon="6.34956">
        <ele>1651.2</ele>
        <time>2024-08-10T11:45:45Z</time>
      </trkpt>
      <trkpt lat="45.03659" lon="6.34956">
        <ele>1651.2</ele>
        <time>2024-08-10T11:45:46Z</time>
      </trkpt>
      <trkpt lat="45.0366" lon="6.34959">
        <ele>1651.2</ele>
        <time>2024-08-10T11:45:47Z</time>
      </trkpt>
      <trkpt lat="45.0366" lon="6.34959">
        <ele>1651</ele>
        <time>2024-08-10T11:45:48Z</time>
      </trkpt>
      <trkpt lat="45.03661" lon="6.34963">
        <ele>1651</ele>
        <time>2024-08-10T11:45:49Z</time>
      </trkpt>
      <trkpt lat="45.03661" lon="6.34963">
        <ele>1650.8</ele>
        <time>2024-08-10T11:45:50Z</time>
      </trkpt>
      <trkpt lat="45.03662" lon="6.34967">
        <ele>1650.6</ele>
        <time>2024-08-10T11:45:51Z</time>
      </trkpt>
      <trkpt lat="45.03662" lon="6.34967">
        <ele>1650.6</ele>
        <time>2024-08-10T11:45:52Z</time>
      </trkpt>
      <trkpt lat="45.03662" lon="6.3497">
        <ele>1650.8</ele>
        <time>2024-08-10T11:45:53Z</time>
      </trkpt>
      <trkpt lat="45.03662" lon="6.3497">
        <ele>1650.8</ele>
        <time>2024-08-10T11:45:54Z</time>
      </trkpt>
      <trkpt lat="45.03661" lon="6.34974">
        <ele>1651</ele>
        <time>2024-08-10T11:45:55Z</time>
      </trkpt>
      <trkpt lat="45.03661" lon="6.34974">
        <ele>1651</ele>
        <time>2024-08-10T11:45:56Z</time>
      </trkpt>
      <trkpt lat="45.0366" lon="6.34978">
        <ele>1651</ele>
        <time>2024-08-10T11:45:57Z</time>
      </trkpt>
      <trkpt lat="45.0366" lon="6.34978">
        <ele>1651</ele>
        <time>2024-08-10T11:45:58Z</time>
      </trkpt>
      <trkpt lat="45.03659" lon="6.34981">
        <ele>1651.2</ele>
        <time>2024-08-10T11:45:59Z</time>
      </trkpt>
      <trkpt lat="45.03659" lon="6.34981">
        <ele>1651</ele>
        <time>2024-08-10T11:46:00Z</time>
      </trkpt>
      <trkpt lat="45.03658" lon="6.34984">
        <ele>1651</ele>
        <time>2024-08-10T11:46:01Z</time>
      </trkpt>
      <trkpt lat="45.03658" lon="6.34984">
        <ele>1650.8</ele>
        <time>2024-08-10T11:46:02Z</time>
      </trkpt>
      <trkpt lat="45.03657" lon="6.34987">
        <ele>1650.8</ele>
        <time>2024-08-10T11:46:03Z</time>
      </trkpt>
      <trkpt lat="45.03657" lon="6.34987">
        <ele>1650.8</ele>
        <time>2024-08-10T11:46:04Z</time>
      </trkpt>
      <trkpt lat="45.03656" lon="6.34991">
        <ele>1651.2</ele>
        <time>2024-08-10T11:46:05Z</time>
      </trkpt>
      <trkpt lat="45.03656" lon="6.34991">
        <ele>1651.2</ele>
        <time>2024-08-10T11:46:06Z</time>
      </trkpt>
      <trkpt lat="45.03655" lon="6.34994">
        <ele>1651.2</ele>
        <time>2024-08-10T11:46:07Z</time>
      </trkpt>
      <trkpt lat="45.03655" lon="6.34994">
        <ele>1651.2</ele>
        <time>2024-08-10T11:46:08Z</time>
      </trkpt>
      <trkpt lat="45.03654" lon="6.34998">
        <ele>1651.2</ele>
        <time>2024-08-10T11:46:09Z</time>
      </trkpt>
      <trkpt lat="45.03654" lon="6.34998">
        <ele>1651.2</ele>
        <time>2024-08-10T11:46:10Z</time>
      </trkpt>
      <trkpt lat="45.03653" lon="6.35001">
        <ele>1651.4</ele>
        <time>2024-08-10T11:46:11Z</time>
      </trkpt>
      <trkpt lat="45.03653" lon="6.35001">
        <ele>1651.4</ele>
        <time>2024-08-10T11:46:12Z</time>
      </trkpt>
      <trkpt lat="45.03652" lon="6.35005">
        <ele>1651.4</ele>
        <time>2024-08-10T11:46:13Z</time>
      </trkpt>
      <trkpt lat="45.03652" lon="6.35005">
        <ele>1651.4</ele>
        <time>2024-08-10T11:46:14Z</time>
      </trkpt>
      <trkpt lat="45.03651" lon="6.35008">
        <ele>1651.4</ele>
        <time>2024-08-10T11:46:15Z</time>
      </trkpt>
      <trkpt lat="45.03651" lon="6.35008">
        <ele>1651.4</ele>
        <time>2024-08-10T11:46:16Z</time>
      </trkpt>
      <trkpt lat="45.0365" lon="6.35011">
        <ele>1651.4</ele>
        <time>2024-08-10T11:46:17Z</time>
      </trkpt>
      <trkpt lat="45.0365" lon="6.35011">
        <ele>1651.6</ele>
        <time>2024-08-10T11:46:18Z</time>
      </trkpt>
      <trkpt lat="45.03648" lon="6.35014">
        <ele>1651.6</ele>
        <time>2024-08-10T11:46:19Z</time>
      </trkpt>
      <trkpt lat="45.03648" lon="6.35014">
        <ele>1651.6</ele>
        <time>2024-08-10T11:46:20Z</time>
      </trkpt>
      <trkpt lat="45.03647" lon="6.35017">
        <ele>1651.8</ele>
        <time>2024-08-10T11:46:21Z</time>
      </trkpt>
      <trkpt lat="45.03647" lon="6.35017">
        <ele>1651.4</ele>
        <time>2024-08-10T11:46:22Z</time>
      </trkpt>
      <trkpt lat="45.03646" lon="6.3502">
        <ele>1651.6</ele>
        <time>2024-08-10T11:46:23Z</time>
      </trkpt>
      <trkpt lat="45.03646" lon="6.3502">
        <ele>1651.6</ele>
        <time>2024-08-10T11:46:24Z</time>
      </trkpt>
      <trkpt lat="45.03644" lon="6.35023">
        <ele>1651.8</ele>
        <time>2024-08-10T11:46:25Z</time>
      </trkpt>
      <trkpt lat="45.03644" lon="6.35023">
        <ele>1651.6</ele>
        <time>2024-08-10T11:46:26Z</time>
      </trkpt>
      <trkpt lat="45.03643" lon="6.35026">
        <ele>1651.6</ele>
        <time>2024-08-10T11:46:27Z</time>
      </trkpt>
      <trkpt lat="45.03643" lon="6.35026">
        <ele>1651.6</ele>
        <time>2024-08-10T11:46:28Z</time>
      </trkpt>
      <trkpt lat="45.03641" lon="6.3503">
        <ele>1651.6</ele>
        <time>2024-08-10T11:46:29Z</time>
      </trkpt>
      <trkpt lat="45.03641" lon="6.3503">
        <ele>1651.8</ele>
        <time>2024-08-10T11:46:30Z</time>
      </trkpt>
      <trkpt lat="45.03639" lon="6.35033">
        <ele>1651.8</ele>
        <time>2024-08-10T11:46:31Z</time>
      </trkpt>
      <trkpt lat="45.03639" lon="6.35033">
        <ele>1651.6</ele>
        <time>2024-08-10T11:46:32Z</time>
      </trkpt>
      <trkpt lat="45.03638" lon="6.35036">
        <ele>1651.6</ele>
        <time>2024-08-10T11:46:33Z</time>
      </trkpt>
      <trkpt lat="45.03638" lon="6.35036">
        <ele>1651.6</ele>
        <time>2024-08-10T11:46:34Z</time>
      </trkpt>
      <trkpt lat="45.03637" lon="6.35039">
        <ele>1652</ele>
        <time>2024-08-10T11:46:35Z</time>
      </trkpt>
      <trkpt lat="45.03637" lon="6.35039">
        <ele>1652</ele>
        <time>2024-08-10T11:46:36Z</time>
      </trkpt>
      <trkpt lat="45.03636" lon="6.35043">
        <ele>1652</ele>
        <time>2024-08-10T11:46:37Z</time>
      </trkpt>
      <trkpt lat="45.03636" lon="6.35043">
        <ele>1652</ele>
        <time>2024-08-10T11:46:38Z</time>
      </trkpt>
      <trkpt lat="45.03634" lon="6.35046">
        <ele>1652</ele>
        <time>2024-08-10T11:46:39Z</time>
      </trkpt>
      <trkpt lat="45.03634" lon="6.35046">
        <ele>1652</ele>
        <time>2024-08-10T11:46:40Z</time>
      </trkpt>
      <trkpt lat="45.03632" lon="6.35049">
        <ele>1651.8</ele>
        <time>2024-08-10T11:46:41Z</time>
      </trkpt>
      <trkpt lat="45.03632" lon="6.35049">
        <ele>1651.8</ele>
        <time>2024-08-10T11:46:42Z</time>
      </trkpt>
      <trkpt lat="45.03631" lon="6.35052">
        <ele>1651.8</ele>
        <time>2024-08-10T11:46:43Z</time>
      </trkpt>
      <trkpt lat="45.03631" lon="6.35052">
        <ele>1651.8</ele>
        <time>2024-08-10T11:46:44Z</time>
      </trkpt>
      <trkpt lat="45.03629" lon="6.35055">
        <ele>1651.8</ele>
        <time>2024-08-10T11:46:45Z</time>
      </trkpt>
      <trkpt lat="45.03629" lon="6.35055">
        <ele>1651.6</ele>
        <time>2024-08-10T11:46:46Z</time>
      </trkpt>
      <trkpt lat="45.03627" lon="6.35056">
        <ele>1651.6</ele>
        <time>2024-08-10T11:46:47Z</time>
      </trkpt>
      <trkpt lat="45.03627" lon="6.35056">
        <ele>1652</ele>
        <time>2024-08-10T11:46:48Z</time>
      </trkpt>
      <trkpt lat="45.03627" lon="6.35056">
        <ele>1652</ele>
        <time>2024-08-10T11:46:49Z</time>
      </trkpt>
      <trkpt lat="45.03625" lon="6.35058">
        <ele>1652</ele>
        <time>2024-08-10T11:46:50Z</time>
      </trkpt>
      <trkpt lat="45.03625" lon="6.35058">
        <ele>1652.2</ele>
        <time>2024-08-10T11:46:51Z</time>
      </trkpt>
      <trkpt lat="45.03623" lon="6.35058">
        <ele>1652.6</ele>
        <time>2024-08-10T11:46:52Z</time>
      </trkpt>
      <trkpt lat="45.03623" lon="6.35058">
        <ele>1653</ele>
        <time>2024-08-10T11:46:53Z</time>
      </trkpt>
      <trkpt lat="45.03623" lon="6.35058">
        <ele>1653</ele>
        <time>2024-08-10T11:46:54Z</time>
      </trkpt>
      <trkpt lat="45.03621" lon="6.35059">
        <ele>1652.8</ele>
        <time>2024-08-10T11:46:55Z</time>
      </trkpt>
      <trkpt lat="45.03621" lon="6.35059">
        <ele>1652.8</ele>
        <time>2024-08-10T11:46:56Z</time>
      </trkpt>
      <trkpt lat="45.03621" lon="6.35059">
        <ele>1653.2</ele>
        <time>2024-08-10T11:46:57Z</time>
      </trkpt>
      <trkpt lat="45.03621" lon="6.35059">
        <ele>1653.4</ele>
        <time>2024-08-10T11:46:58Z</time>
      </trkpt>
      <trkpt lat="45.03619" lon="6.35061">
        <ele>1653.6</ele>
        <time>2024-08-10T11:46:59Z</time>
      </trkpt>
      <trkpt lat="45.03619" lon="6.35061">
        <ele>1654</ele>
        <time>2024-08-10T11:47:00Z</time>
      </trkpt>
      <trkpt lat="45.03619" lon="6.35061">
        <ele>1654.4</ele>
        <time>2024-08-10T11:47:01Z</time>
      </trkpt>
      <trkpt lat="45.03616" lon="6.35063">
        <ele>1654.8</ele>
        <time>2024-08-10T11:47:02Z</time>
      </trkpt>
      <trkpt lat="45.03616" lon="6.35063">
        <ele>1655</ele>
        <time>2024-08-10T11:47:03Z</time>
      </trkpt>
      <trkpt lat="45.03615" lon="6.35066">
        <ele>1655</ele>
        <time>2024-08-10T11:47:04Z</time>
      </trkpt>
      <trkpt lat="45.03615" lon="6.35066">
        <ele>1655</ele>
        <time>2024-08-10T11:47:05Z</time>
      </trkpt>
      <trkpt lat="45.03613" lon="6.35068">
        <ele>1654.8</ele>
        <time>2024-08-10T11:47:06Z</time>
      </trkpt>
      <trkpt lat="45.03613" lon="6.35068">
        <ele>1654.6</ele>
        <time>2024-08-10T11:47:07Z</time>
      </trkpt>
      <trkpt lat="45.0361" lon="6.35069">
        <ele>1654.6</ele>
        <time>2024-08-10T11:47:08Z</time>
      </trkpt>
      <trkpt lat="45.0361" lon="6.35069">
        <ele>1654.6</ele>
        <time>2024-08-10T11:47:09Z</time>
      </trkpt>
      <trkpt lat="45.03608" lon="6.35071">
        <ele>1654.6</ele>
        <time>2024-08-10T11:47:10Z</time>
      </trkpt>
      <trkpt lat="45.03608" lon="6.35071">
        <ele>1654.6</ele>
        <time>2024-08-10T11:47:11Z</time>
      </trkpt>
      <trkpt lat="45.03606" lon="6.35073">
        <ele>1654.8</ele>
        <time>2024-08-10T11:47:12Z</time>
      </trkpt>
      <trkpt lat="45.03606" lon="6.35073">
        <ele>1654.8</ele>
        <time>2024-08-10T11:47:13Z</time>
      </trkpt>
      <trkpt lat="45.03604" lon="6.35074">
        <ele>1655</ele>
        <time>2024-08-10T11:47:14Z</time>
      </trkpt>
      <trkpt lat="45.03604" lon="6.35074">
        <ele>1655</ele>
        <time>2024-08-10T11:47:15Z</time>
      </trkpt>
      <trkpt lat="45.03601" lon="6.35075">
        <ele>1655</ele>
        <time>2024-08-10T11:47:16Z</time>
      </trkpt>
      <trkpt lat="45.03601" lon="6.35075">
        <ele>1655</ele>
        <time>2024-08-10T11:47:17Z</time>
      </trkpt>
      <trkpt lat="45.03599" lon="6.35077">
        <ele>1655</ele>
        <time>2024-08-10T11:47:18Z</time>
      </trkpt>
      <trkpt lat="45.03599" lon="6.35077">
        <ele>1655</ele>
        <time>2024-08-10T11:47:19Z</time>
      </trkpt>
      <trkpt lat="45.03597" lon="6.35079">
        <ele>1655</ele>
        <time>2024-08-10T11:47:20Z</time>
      </trkpt>
      <trkpt lat="45.03597" lon="6.35079">
        <ele>1655</ele>
        <time>2024-08-10T11:47:21Z</time>
      </trkpt>
      <trkpt lat="45.03595" lon="6.35081">
        <ele>1655</ele>
        <time>2024-08-10T11:47:22Z</time>
      </trkpt>
      <trkpt lat="45.03595" lon="6.35081">
        <ele>1654.6</ele>
        <time>2024-08-10T11:47:23Z</time>
      </trkpt>
      <trkpt lat="45.03593" lon="6.35083">
        <ele>1654.4</ele>
        <time>2024-08-10T11:47:24Z</time>
      </trkpt>
      <trkpt lat="45.03593" lon="6.35083">
        <ele>1654.4</ele>
        <time>2024-08-10T11:47:25Z</time>
      </trkpt>
      <trkpt lat="45.03591" lon="6.35085">
        <ele>1654.6</ele>
        <time>2024-08-10T11:47:26Z</time>
      </trkpt>
      <trkpt lat="45.03591" lon="6.35085">
        <ele>1654.6</ele>
        <time>2024-08-10T11:47:27Z</time>
      </trkpt>
      <trkpt lat="45.0359" lon="6.35087">
        <ele>1654.6</ele>
        <time>2024-08-10T11:47:28Z</time>
      </trkpt>
      <trkpt lat="45.0359" lon="6.35087">
        <ele>1654.4</ele>
        <time>2024-08-10T11:47:29Z</time>
      </trkpt>
      <trkpt lat="45.03588" lon="6.35089">
        <ele>1654.4</ele>
        <time>2024-08-10T11:47:30Z</time>
      </trkpt>
      <trkpt lat="45.03588" lon="6.35089">
        <ele>1654.2</ele>
        <time>2024-08-10T11:47:31Z</time>
      </trkpt>
      <trkpt lat="45.03586" lon="6.35091">
        <ele>1654</ele>
        <time>2024-08-10T11:47:32Z</time>
      </trkpt>
      <trkpt lat="45.03586" lon="6.35091">
        <ele>1653.8</ele>
        <time>2024-08-10T11:47:33Z</time>
      </trkpt>
      <trkpt lat="45.03584" lon="6.35094">
        <ele>1653.8</ele>
        <time>2024-08-10T11:47:34Z</time>
      </trkpt>
      <trkpt lat="45.03584" lon="6.35094">
        <ele>1653.8</ele>
        <time>2024-08-10T11:47:35Z</time>
      </trkpt>
      <trkpt lat="45.03582" lon="6.35096">
        <ele>1653.8</ele>
        <time>2024-08-10T11:47:36Z</time>
      </trkpt>
      <trkpt lat="45.03582" lon="6.35096">
        <ele>1653.8</ele>
        <time>2024-08-10T11:47:37Z</time>
      </trkpt>
      <trkpt lat="45.03581" lon="6.35098">
        <ele>1653.8</ele>
        <time>2024-08-10T11:47:38Z</time>
      </trkpt>
      <trkpt lat="45.03581" lon="6.35098">
        <ele>1653.6</ele>
        <time>2024-08-10T11:47:39Z</time>
      </trkpt>
      <trkpt lat="45.03578" lon="6.35099">
        <ele>1653.6</ele>
        <time>2024-08-10T11:47:40Z</time>
      </trkpt>
      <trkpt lat="45.03578" lon="6.35099">
        <ele>1654</ele>
        <time>2024-08-10T11:47:41Z</time>
      </trkpt>
      <trkpt lat="45.03576" lon="6.35101">
        <ele>1654</ele>
        <time>2024-08-10T11:47:42Z</time>
      </trkpt>
      <trkpt lat="45.03576" lon="6.35101">
        <ele>1654</ele>
        <time>2024-08-10T11:47:43Z</time>
      </trkpt>
      <trkpt lat="45.03574" lon="6.35102">
        <ele>1654.2</ele>
        <time>2024-08-10T11:47:44Z</time>
      </trkpt>
      <trkpt lat="45.03574" lon="6.35102">
        <ele>1654.2</ele>
        <time>2024-08-10T11:47:45Z</time>
      </trkpt>
      <trkpt lat="45.03572" lon="6.35104">
        <ele>1654.2</ele>
        <time>2024-08-10T11:47:46Z</time>
      </trkpt>
      <trkpt lat="45.03572" lon="6.35104">
        <ele>1654</ele>
        <time>2024-08-10T11:47:47Z</time>
      </trkpt>
      <trkpt lat="45.0357" lon="6.35106">
        <ele>1653.8</ele>
        <time>2024-08-10T11:47:48Z</time>
      </trkpt>
      <trkpt lat="45.0357" lon="6.35106">
        <ele>1653.8</ele>
        <time>2024-08-10T11:47:49Z</time>
      </trkpt>
      <trkpt lat="45.03567" lon="6.35107">
        <ele>1653.6</ele>
        <time>2024-08-10T11:47:50Z</time>
      </trkpt>
      <trkpt lat="45.03567" lon="6.35107">
        <ele>1653.4</ele>
        <time>2024-08-10T11:47:51Z</time>
      </trkpt>
      <trkpt lat="45.03565" lon="6.35108">
        <ele>1653.4</ele>
        <time>2024-08-10T11:47:52Z</time>
      </trkpt>
      <trkpt lat="45.03565" lon="6.35108">
        <ele>1653.6</ele>
        <time>2024-08-10T11:47:53Z</time>
      </trkpt>
      <trkpt lat="45.03565" lon="6.35108">
        <ele>1653.8</ele>
        <time>2024-08-10T11:47:54Z</time>
      </trkpt>
      <trkpt lat="45.03563" lon="6.3511">
        <ele>1653.8</ele>
        <time>2024-08-10T11:47:55Z</time>
      </trkpt>
      <trkpt lat="45.03563" lon="6.3511">
        <ele>1653.6</ele>
        <time>2024-08-10T11:47:56Z</time>
      </trkpt>
      <trkpt lat="45.03561" lon="6.3511">
        <ele>1653.6</ele>
        <time>2024-08-10T11:47:57Z</time>
      </trkpt>
      <trkpt lat="45.03561" lon="6.3511">
        <ele>1654</ele>
        <time>2024-08-10T11:47:58Z</time>
      </trkpt>
      <trkpt lat="45.03559" lon="6.35112">
        <ele>1654.2</ele>
        <time>2024-08-10T11:47:59Z</time>
      </trkpt>
      <trkpt lat="45.03559" lon="6.35112">
        <ele>1654.2</ele>
        <time>2024-08-10T11:48:00Z</time>
      </trkpt>
      <trkpt lat="45.03557" lon="6.35114">
        <ele>1654.2</ele>
        <time>2024-08-10T11:48:01Z</time>
      </trkpt>
      <trkpt lat="45.03557" lon="6.35114">
        <ele>1654</ele>
        <time>2024-08-10T11:48:02Z</time>
      </trkpt>
      <trkpt lat="45.03556" lon="6.35116">
        <ele>1653.8</ele>
        <time>2024-08-10T11:48:03Z</time>
      </trkpt>
      <trkpt lat="45.03556" lon="6.35116">
        <ele>1653.8</ele>
        <time>2024-08-10T11:48:04Z</time>
      </trkpt>
      <trkpt lat="45.03554" lon="6.35119">
        <ele>1653.8</ele>
        <time>2024-08-10T11:48:05Z</time>
      </trkpt>
      <trkpt lat="45.03554" lon="6.35119">
        <ele>1653.8</ele>
        <time>2024-08-10T11:48:06Z</time>
      </trkpt>
      <trkpt lat="45.03552" lon="6.35122">
        <ele>1653.8</ele>
        <time>2024-08-10T11:48:07Z</time>
      </trkpt>
      <trkpt lat="45.03552" lon="6.35122">
        <ele>1653.4</ele>
        <time>2024-08-10T11:48:08Z</time>
      </trkpt>
      <trkpt lat="45.03551" lon="6.35124">
        <ele>1653.4</ele>
        <time>2024-08-10T11:48:09Z</time>
      </trkpt>
      <trkpt lat="45.03551" lon="6.35124">
        <ele>1653.4</ele>
        <time>2024-08-10T11:48:10Z</time>
      </trkpt>
      <trkpt lat="45.0355" lon="6.35128">
        <ele>1653.4</ele>
        <time>2024-08-10T11:48:11Z</time>
      </trkpt>
      <trkpt lat="45.0355" lon="6.35128">
        <ele>1653.6</ele>
        <time>2024-08-10T11:48:12Z</time>
      </trkpt>
      <trkpt lat="45.0355" lon="6.35132">
        <ele>1653.8</ele>
        <time>2024-08-10T11:48:13Z</time>
      </trkpt>
      <trkpt lat="45.0355" lon="6.35132">
        <ele>1653.8</ele>
        <time>2024-08-10T11:48:14Z</time>
      </trkpt>
      <trkpt lat="45.03549" lon="6.35134">
        <ele>1653.8</ele>
        <time>2024-08-10T11:48:15Z</time>
      </trkpt>
      <trkpt lat="45.03549" lon="6.35134">
        <ele>1653.8</ele>
        <time>2024-08-10T11:48:16Z</time>
      </trkpt>
      <trkpt lat="45.03548" lon="6.35137">
        <ele>1653.8</ele>
        <time>2024-08-10T11:48:17Z</time>
      </trkpt>
      <trkpt lat="45.03548" lon="6.35137">
        <ele>1654</ele>
        <time>2024-08-10T11:48:18Z</time>
      </trkpt>
      <trkpt lat="45.03548" lon="6.35137">
        <ele>1654.2</ele>
        <time>2024-08-10T11:48:19Z</time>
      </trkpt>
      <trkpt lat="45.03547" lon="6.35141">
        <ele>1654.2</ele>
        <time>2024-08-10T11:48:20Z</time>
      </trkpt>
      <trkpt lat="45.03547" lon="6.35141">
        <ele>1654</ele>
        <time>2024-08-10T11:48:21Z</time>
      </trkpt>
      <trkpt lat="45.03546" lon="6.35144">
        <ele>1654</ele>
        <time>2024-08-10T11:48:22Z</time>
      </trkpt>
      <trkpt lat="45.03546" lon="6.35144">
        <ele>1654</ele>
        <time>2024-08-10T11:48:23Z</time>
      </trkpt>
      <trkpt lat="45.03545" lon="6.35147">
        <ele>1653.8</ele>
        <time>2024-08-10T11:48:24Z</time>
      </trkpt>
      <trkpt lat="45.03545" lon="6.35147">
        <ele>1653.8</ele>
        <time>2024-08-10T11:48:25Z</time>
      </trkpt>
      <trkpt lat="45.03545" lon="6.35147">
        <ele>1654</ele>
        <time>2024-08-10T11:48:26Z</time>
      </trkpt>
      <trkpt lat="45.03544" lon="6.3515">
        <ele>1654</ele>
        <time>2024-08-10T11:48:27Z</time>
      </trkpt>
      <trkpt lat="45.03544" lon="6.3515">
        <ele>1654</ele>
        <time>2024-08-10T11:48:28Z</time>
      </trkpt>
      <trkpt lat="45.03543" lon="6.35152">
        <ele>1654</ele>
        <time>2024-08-10T11:48:29Z</time>
      </trkpt>
      <trkpt lat="45.03543" lon="6.35152">
        <ele>1654</ele>
        <time>2024-08-10T11:48:30Z</time>
      </trkpt>
      <trkpt lat="45.03543" lon="6.35152">
        <ele>1654</ele>
        <time>2024-08-10T11:48:31Z</time>
      </trkpt>
      <trkpt lat="45.03542" lon="6.35156">
        <ele>1654</ele>
        <time>2024-08-10T11:48:32Z</time>
      </trkpt>
      <trkpt lat="45.03542" lon="6.35156">
        <ele>1654</ele>
        <time>2024-08-10T11:48:33Z</time>
      </trkpt>
      <trkpt lat="45.03541" lon="6.35158">
        <ele>1654</ele>
        <time>2024-08-10T11:48:34Z</time>
      </trkpt>
      <trkpt lat="45.03541" lon="6.35158">
        <ele>1654</ele>
        <time>2024-08-10T11:48:35Z</time>
      </trkpt>
      <trkpt lat="45.03541" lon="6.35158">
        <ele>1654.2</ele>
        <time>2024-08-10T11:48:36Z</time>
      </trkpt>
      <trkpt lat="45.03538" lon="6.35161">
        <ele>1654.2</ele>
        <time>2024-08-10T11:48:37Z</time>
      </trkpt>
      <trkpt lat="45.03538" lon="6.35161">
        <ele>1654.2</ele>
        <time>2024-08-10T11:48:38Z</time>
      </trkpt>
      <trkpt lat="45.03538" lon="6.35161">
        <ele>1654.2</ele>
        <time>2024-08-10T11:48:39Z</time>
      </trkpt>
      <trkpt lat="45.03537" lon="6.35164">
        <ele>1654.4</ele>
        <time>2024-08-10T11:48:40Z</time>
      </trkpt>
      <trkpt lat="45.03537" lon="6.35164">
        <ele>1654.4</ele>
        <time>2024-08-10T11:48:41Z</time>
      </trkpt>
      <trkpt lat="45.03535" lon="6.35166">
        <ele>1654.4</ele>
        <time>2024-08-10T11:48:42Z</time>
      </trkpt>
      <trkpt lat="45.03535" lon="6.35166">
        <ele>1654.4</ele>
        <time>2024-08-10T11:48:43Z</time>
      </trkpt>
      <trkpt lat="45.03533" lon="6.35169">
        <ele>1654.4</ele>
        <time>2024-08-10T11:48:44Z</time>
      </trkpt>
      <trkpt lat="45.03533" lon="6.35169">
        <ele>1654.4</ele>
        <time>2024-08-10T11:48:45Z</time>
      </trkpt>
      <trkpt lat="45.03533" lon="6.35169">
        <ele>1654.4</ele>
        <time>2024-08-10T11:48:46Z</time>
      </trkpt>
      <trkpt lat="45.03531" lon="6.35171">
        <ele>1655</ele>
        <time>2024-08-10T11:48:47Z</time>
      </trkpt>
      <trkpt lat="45.03531" lon="6.35171">
        <ele>1655</ele>
        <time>2024-08-10T11:48:48Z</time>
      </trkpt>
      <trkpt lat="45.03529" lon="6.35173">
        <ele>1655</ele>
        <time>2024-08-10T11:48:49Z</time>
      </trkpt>
      <trkpt lat="45.03529" lon="6.35173">
        <ele>1655</ele>
        <time>2024-08-10T11:48:50Z</time>
      </trkpt>
      <trkpt lat="45.03529" lon="6.35173">
        <ele>1655.2</ele>
        <time>2024-08-10T11:48:51Z</time>
      </trkpt>
      <trkpt lat="45.03527" lon="6.35174">
        <ele>1655.2</ele>
        <time>2024-08-10T11:48:52Z</time>
      </trkpt>
      <trkpt lat="45.03527" lon="6.35174">
        <ele>1655.2</ele>
        <time>2024-08-10T11:48:53Z</time>
      </trkpt>
      <trkpt lat="45.03527" lon="6.35174">
        <ele>1655.4</ele>
        <time>2024-08-10T11:48:54Z</time>
      </trkpt>
      <trkpt lat="45.03525" lon="6.35175">
        <ele>1655.4</ele>
        <time>2024-08-10T11:48:55Z</time>
      </trkpt>
      <trkpt lat="45.03525" lon="6.35175">
        <ele>1656</ele>
        <time>2024-08-10T11:48:56Z</time>
      </trkpt>
      <trkpt lat="45.03525" lon="6.35175">
        <ele>1656</ele>
        <time>2024-08-10T11:48:57Z</time>
      </trkpt>
      <trkpt lat="45.03523" lon="6.35176">
        <ele>1656</ele>
        <time>2024-08-10T11:48:58Z</time>
      </trkpt>
      <trkpt lat="45.03523" lon="6.35176">
        <ele>1656.4</ele>
        <time>2024-08-10T11:48:59Z</time>
      </trkpt>
      <trkpt lat="45.03522" lon="6.35178">
        <ele>1656.8</ele>
        <time>2024-08-10T11:49:00Z</time>
      </trkpt>
      <trkpt lat="45.03522" lon="6.35178">
        <ele>1656.8</ele>
        <time>2024-08-10T11:49:01Z</time>
      </trkpt>
      <trkpt lat="45.03521" lon="6.3518">
        <ele>1656.6</ele>
        <time>2024-08-10T11:49:02Z</time>
      </trkpt>
      <trkpt lat="45.03521" lon="6.3518">
        <ele>1656.6</ele>
        <time>2024-08-10T11:49:03Z</time>
      </trkpt>
      <trkpt lat="45.03521" lon="6.3518">
        <ele>1656.6</ele>
        <time>2024-08-10T11:49:04Z</time>
      </trkpt>
      <trkpt lat="45.03518" lon="6.35182">
        <ele>1657</ele>
        <time>2024-08-10T11:49:05Z</time>
      </trkpt>
      <trkpt lat="45.03518" lon="6.35182">
        <ele>1657.2</ele>
        <time>2024-08-10T11:49:06Z</time>
      </trkpt>
      <trkpt lat="45.03518" lon="6.35182">
        <ele>1657.2</ele>
        <time>2024-08-10T11:49:07Z</time>
      </trkpt>
      <trkpt lat="45.03516" lon="6.35184">
        <ele>1657.2</ele>
        <time>2024-08-10T11:49:08Z</time>
      </trkpt>
      <trkpt lat="45.03516" lon="6.35184">
        <ele>1657.2</ele>
        <time>2024-08-10T11:49:09Z</time>
      </trkpt>
      <trkpt lat="45.03515" lon="6.35187">
        <ele>1657.4</ele>
        <time>2024-08-10T11:49:10Z</time>
      </trkpt>
      <trkpt lat="45.03515" lon="6.35187">
        <ele>1657.6</ele>
        <time>2024-08-10T11:49:11Z</time>
      </trkpt>
      <trkpt lat="45.03513" lon="6.35188">
        <ele>1657.6</ele>
        <time>2024-08-10T11:49:12Z</time>
      </trkpt>
      <trkpt lat="45.03513" lon="6.35188">
        <ele>1657.6</ele>
        <time>2024-08-10T11:49:13Z</time>
      </trkpt>
      <trkpt lat="45.03511" lon="6.3519">
        <ele>1657.8</ele>
        <time>2024-08-10T11:49:14Z</time>
      </trkpt>
      <trkpt lat="45.03511" lon="6.3519">
        <ele>1658.2</ele>
        <time>2024-08-10T11:49:15Z</time>
      </trkpt>
      <trkpt lat="45.03511" lon="6.3519">
        <ele>1658.2</ele>
        <time>2024-08-10T11:49:16Z</time>
      </trkpt>
      <trkpt lat="45.03509" lon="6.35193">
        <ele>1657.8</ele>
        <time>2024-08-10T11:49:17Z</time>
      </trkpt>
      <trkpt lat="45.03509" lon="6.35193">
        <ele>1657.8</ele>
        <time>2024-08-10T11:49:18Z</time>
      </trkpt>
      <trkpt lat="45.03508" lon="6.35196">
        <ele>1657.6</ele>
        <time>2024-08-10T11:49:19Z</time>
      </trkpt>
      <trkpt lat="45.03508" lon="6.35196">
        <ele>1657.6</ele>
        <time>2024-08-10T11:49:20Z</time>
      </trkpt>
      <trkpt lat="45.03508" lon="6.35196">
        <ele>1657.6</ele>
        <time>2024-08-10T11:49:21Z</time>
      </trkpt>
      <trkpt lat="45.03506" lon="6.352">
        <ele>1657.6</ele>
        <time>2024-08-10T11:49:22Z</time>
      </trkpt>
      <trkpt lat="45.03505" lon="6.35202">
        <ele>1657.2</ele>
        <time>2024-08-10T11:49:23Z</time>
      </trkpt>
      <trkpt lat="45.03505" lon="6.35202">
        <ele>1656.6</ele>
        <time>2024-08-10T11:49:24Z</time>
      </trkpt>
      <trkpt lat="45.03504" lon="6.35207">
        <ele>1656.4</ele>
        <time>2024-08-10T11:49:25Z</time>
      </trkpt>
      <trkpt lat="45.03504" lon="6.35208">
        <ele>1656.2</ele>
        <time>2024-08-10T11:49:26Z</time>
      </trkpt>
      <trkpt lat="45.03504" lon="6.35209">
        <ele>1656.2</ele>
        <time>2024-08-10T11:49:27Z</time>
      </trkpt>
      <trkpt lat="45.03504" lon="6.35209">
        <ele>1656.2</ele>
        <time>2024-08-10T11:49:28Z</time>
      </trkpt>
      <trkpt lat="45.03503" lon="6.35212">
        <ele>1656.2</ele>
        <time>2024-08-10T11:49:29Z</time>
      </trkpt>
      <trkpt lat="45.03503" lon="6.35212">
        <ele>1656.2</ele>
        <time>2024-08-10T11:49:30Z</time>
      </trkpt>
      <trkpt lat="45.03502" lon="6.35215">
        <ele>1656.2</ele>
        <time>2024-08-10T11:49:31Z</time>
      </trkpt>
      <trkpt lat="45.03502" lon="6.35215">
        <ele>1656</ele>
        <time>2024-08-10T11:49:32Z</time>
      </trkpt>
      <trkpt lat="45.03501" lon="6.35219">
        <ele>1656</ele>
        <time>2024-08-10T11:49:33Z</time>
      </trkpt>
      <trkpt lat="45.03501" lon="6.35219">
        <ele>1656</ele>
        <time>2024-08-10T11:49:34Z</time>
      </trkpt>
      <trkpt lat="45.035" lon="6.35222">
        <ele>1655.8</ele>
        <time>2024-08-10T11:49:35Z</time>
      </trkpt>
      <trkpt lat="45.035" lon="6.35222">
        <ele>1655.8</ele>
        <time>2024-08-10T11:49:36Z</time>
      </trkpt>
      <trkpt lat="45.03499" lon="6.35226">
        <ele>1655.6</ele>
        <time>2024-08-10T11:49:37Z</time>
      </trkpt>
      <trkpt lat="45.03499" lon="6.35226">
        <ele>1655.6</ele>
        <time>2024-08-10T11:49:38Z</time>
      </trkpt>
      <trkpt lat="45.03497" lon="6.35229">
        <ele>1655.8</ele>
        <time>2024-08-10T11:49:39Z</time>
      </trkpt>
      <trkpt lat="45.03497" lon="6.35229">
        <ele>1655.8</ele>
        <time>2024-08-10T11:49:40Z</time>
      </trkpt>
      <trkpt lat="45.03496" lon="6.35232">
        <ele>1655.8</ele>
        <time>2024-08-10T11:49:41Z</time>
      </trkpt>
      <trkpt lat="45.03496" lon="6.35232">
        <ele>1656</ele>
        <time>2024-08-10T11:49:42Z</time>
      </trkpt>
      <trkpt lat="45.03495" lon="6.35235">
        <ele>1656.4</ele>
        <time>2024-08-10T11:49:43Z</time>
      </trkpt>
      <trkpt lat="45.03495" lon="6.35235">
        <ele>1656.4</ele>
        <time>2024-08-10T11:49:44Z</time>
      </trkpt>
      <trkpt lat="45.03495" lon="6.35238">
        <ele>1656.6</ele>
        <time>2024-08-10T11:49:45Z</time>
      </trkpt>
      <trkpt lat="45.03495" lon="6.35238">
        <ele>1656.4</ele>
        <time>2024-08-10T11:49:46Z</time>
      </trkpt>
      <trkpt lat="45.03493" lon="6.35242">
        <ele>1656.4</ele>
        <time>2024-08-10T11:49:47Z</time>
      </trkpt>
      <trkpt lat="45.03493" lon="6.35242">
        <ele>1656.4</ele>
        <time>2024-08-10T11:49:48Z</time>
      </trkpt>
      <trkpt lat="45.03493" lon="6.35245">
        <ele>1656.4</ele>
        <time>2024-08-10T11:49:49Z</time>
      </trkpt>
      <trkpt lat="45.03493" lon="6.35245">
        <ele>1656.6</ele>
        <time>2024-08-10T11:49:50Z</time>
      </trkpt>
      <trkpt lat="45.03491" lon="6.35247">
        <ele>1656.6</ele>
        <time>2024-08-10T11:49:51Z</time>
      </trkpt>
      <trkpt lat="45.03491" lon="6.35247">
        <ele>1656.6</ele>
        <time>2024-08-10T11:49:52Z</time>
      </trkpt>
      <trkpt lat="45.03489" lon="6.35249">
        <ele>1656.6</ele>
        <time>2024-08-10T11:49:53Z</time>
      </trkpt>
      <trkpt lat="45.03489" lon="6.35249">
        <ele>1656.8</ele>
        <time>2024-08-10T11:49:54Z</time>
      </trkpt>
      <trkpt lat="45.03487" lon="6.35252">
        <ele>1657.2</ele>
        <time>2024-08-10T11:49:55Z</time>
      </trkpt>
      <trkpt lat="45.03487" lon="6.35252">
        <ele>1657.2</ele>
        <time>2024-08-10T11:49:56Z</time>
      </trkpt>
      <trkpt lat="45.03485" lon="6.35254">
        <ele>1657.4</ele>
        <time>2024-08-10T11:49:57Z</time>
      </trkpt>
      <trkpt lat="45.03485" lon="6.35254">
        <ele>1657.6</ele>
        <time>2024-08-10T11:49:58Z</time>
      </trkpt>
      <trkpt lat="45.03485" lon="6.35257">
        <ele>1657.6</ele>
        <time>2024-08-10T11:49:59Z</time>
      </trkpt>
      <trkpt lat="45.03485" lon="6.35257">
        <ele>1658</ele>
        <time>2024-08-10T11:50:00Z</time>
      </trkpt>
      <trkpt lat="45.03483" lon="6.3526">
        <ele>1658.4</ele>
        <time>2024-08-10T11:50:01Z</time>
      </trkpt>
      <trkpt lat="45.03483" lon="6.3526">
        <ele>1658.4</ele>
        <time>2024-08-10T11:50:02Z</time>
      </trkpt>
      <trkpt lat="45.03481" lon="6.35262">
        <ele>1658.4</ele>
        <time>2024-08-10T11:50:03Z</time>
      </trkpt>
      <trkpt lat="45.03481" lon="6.35262">
        <ele>1658.4</ele>
        <time>2024-08-10T11:50:04Z</time>
      </trkpt>
      <trkpt lat="45.03479" lon="6.35264">
        <ele>1658.2</ele>
        <time>2024-08-10T11:50:05Z</time>
      </trkpt>
      <trkpt lat="45.03479" lon="6.35264">
        <ele>1658.2</ele>
        <time>2024-08-10T11:50:06Z</time>
      </trkpt>
      <trkpt lat="45.03477" lon="6.35266">
        <ele>1658</ele>
        <time>2024-08-10T11:50:07Z</time>
      </trkpt>
      <trkpt lat="45.03477" lon="6.35266">
        <ele>1658</ele>
        <time>2024-08-10T11:50:08Z</time>
      </trkpt>
      <trkpt lat="45.03476" lon="6.35269">
        <ele>1658</ele>
        <time>2024-08-10T11:50:09Z</time>
      </trkpt>
      <trkpt lat="45.03476" lon="6.35269">
        <ele>1658</ele>
        <time>2024-08-10T11:50:10Z</time>
      </trkpt>
      <trkpt lat="45.03474" lon="6.35271">
        <ele>1658</ele>
        <time>2024-08-10T11:50:11Z</time>
      </trkpt>
      <trkpt lat="45.03474" lon="6.35271">
        <ele>1658</ele>
        <time>2024-08-10T11:50:12Z</time>
      </trkpt>
      <trkpt lat="45.03472" lon="6.35274">
        <ele>1658</ele>
        <time>2024-08-10T11:50:13Z</time>
      </trkpt>
      <trkpt lat="45.03472" lon="6.35274">
        <ele>1658</ele>
        <time>2024-08-10T11:50:14Z</time>
      </trkpt>
      <trkpt lat="45.0347" lon="6.35277">
        <ele>1657.8</ele>
        <time>2024-08-10T11:50:15Z</time>
      </trkpt>
      <trkpt lat="45.0347" lon="6.35277">
        <ele>1657.6</ele>
        <time>2024-08-10T11:50:16Z</time>
      </trkpt>
      <trkpt lat="45.03468" lon="6.3528">
        <ele>1657.4</ele>
        <time>2024-08-10T11:50:17Z</time>
      </trkpt>
      <trkpt lat="45.03468" lon="6.3528">
        <ele>1657.2</ele>
        <time>2024-08-10T11:50:18Z</time>
      </trkpt>
      <trkpt lat="45.03466" lon="6.35282">
        <ele>1657.2</ele>
        <time>2024-08-10T11:50:19Z</time>
      </trkpt>
      <trkpt lat="45.03466" lon="6.35282">
        <ele>1657.2</ele>
        <time>2024-08-10T11:50:20Z</time>
      </trkpt>
      <trkpt lat="45.03465" lon="6.35285">
        <ele>1657.2</ele>
        <time>2024-08-10T11:50:21Z</time>
      </trkpt>
      <trkpt lat="45.03465" lon="6.35285">
        <ele>1656.8</ele>
        <time>2024-08-10T11:50:22Z</time>
      </trkpt>
      <trkpt lat="45.03463" lon="6.35287">
        <ele>1656.6</ele>
        <time>2024-08-10T11:50:23Z</time>
      </trkpt>
      <trkpt lat="45.03462" lon="6.35289">
        <ele>1656.6</ele>
        <time>2024-08-10T11:50:24Z</time>
      </trkpt>
      <trkpt lat="45.03462" lon="6.35289">
        <ele>1656.6</ele>
        <time>2024-08-10T11:50:25Z</time>
      </trkpt>
      <trkpt lat="45.03461" lon="6.35292">
        <ele>1656.6</ele>
        <time>2024-08-10T11:50:26Z</time>
      </trkpt>
      <trkpt lat="45.03461" lon="6.35292">
        <ele>1656.6</ele>
        <time>2024-08-10T11:50:27Z</time>
      </trkpt>
      <trkpt lat="45.0346" lon="6.35295">
        <ele>1656.6</ele>
        <time>2024-08-10T11:50:28Z</time>
      </trkpt>
      <trkpt lat="45.0346" lon="6.35295">
        <ele>1656.4</ele>
        <time>2024-08-10T11:50:29Z</time>
      </trkpt>
      <trkpt lat="45.03459" lon="6.35298">
        <ele>1656.4</ele>
        <time>2024-08-10T11:50:30Z</time>
      </trkpt>
      <trkpt lat="45.03459" lon="6.35298">
        <ele>1656.4</ele>
        <time>2024-08-10T11:50:31Z</time>
      </trkpt>
      <trkpt lat="45.03459" lon="6.35301">
        <ele>1656.4</ele>
        <time>2024-08-10T11:50:32Z</time>
      </trkpt>
      <trkpt lat="45.03459" lon="6.35301">
        <ele>1656.6</ele>
        <time>2024-08-10T11:50:33Z</time>
      </trkpt>
      <trkpt lat="45.03457" lon="6.35304">
        <ele>1656.6</ele>
        <time>2024-08-10T11:50:34Z</time>
      </trkpt>
      <trkpt lat="45.03457" lon="6.35304">
        <ele>1656.8</ele>
        <time>2024-08-10T11:50:35Z</time>
      </trkpt>
      <trkpt lat="45.03456" lon="6.35306">
        <ele>1656.8</ele>
        <time>2024-08-10T11:50:36Z</time>
      </trkpt>
      <trkpt lat="45.03456" lon="6.35306">
        <ele>1656.6</ele>
        <time>2024-08-10T11:50:37Z</time>
      </trkpt>
      <trkpt lat="45.03456" lon="6.35306">
        <ele>1657</ele>
        <time>2024-08-10T11:50:38Z</time>
      </trkpt>
      <trkpt lat="45.03455" lon="6.35309">
        <ele>1657.2</ele>
        <time>2024-08-10T11:50:39Z</time>
      </trkpt>
      <trkpt lat="45.03455" lon="6.35309">
        <ele>1657.2</ele>
        <time>2024-08-10T11:50:40Z</time>
      </trkpt>
      <trkpt lat="45.03453" lon="6.35311">
        <ele>1657.4</ele>
        <time>2024-08-10T11:50:41Z</time>
      </trkpt>
      <trkpt lat="45.03453" lon="6.35311">
        <ele>1657.6</ele>
        <time>2024-08-10T11:50:42Z</time>
      </trkpt>
      <trkpt lat="45.03453" lon="6.35311">
        <ele>1657.8</ele>
        <time>2024-08-10T11:50:43Z</time>
      </trkpt>
      <trkpt lat="45.03451" lon="6.35312">
        <ele>1658.2</ele>
        <time>2024-08-10T11:50:44Z</time>
      </trkpt>
      <trkpt lat="45.03451" lon="6.35312">
        <ele>1658.6</ele>
        <time>2024-08-10T11:50:45Z</time>
      </trkpt>
      <trkpt lat="45.03449" lon="6.35313">
        <ele>1658.6</ele>
        <time>2024-08-10T11:50:46Z</time>
      </trkpt>
      <trkpt lat="45.03449" lon="6.35313">
        <ele>1658.6</ele>
        <time>2024-08-10T11:50:47Z</time>
      </trkpt>
      <trkpt lat="45.03449" lon="6.35313">
        <ele>1658.8</ele>
        <time>2024-08-10T11:50:48Z</time>
      </trkpt>
      <trkpt lat="45.03447" lon="6.35314">
        <ele>1658.8</ele>
        <time>2024-08-10T11:50:49Z</time>
      </trkpt>
      <trkpt lat="45.03447" lon="6.35314">
        <ele>1658.8</ele>
        <time>2024-08-10T11:50:50Z</time>
      </trkpt>
      <trkpt lat="45.03445" lon="6.35315">
        <ele>1658.8</ele>
        <time>2024-08-10T11:50:51Z</time>
      </trkpt>
      <trkpt lat="45.03445" lon="6.35315">
        <ele>1659.2</ele>
        <time>2024-08-10T11:50:52Z</time>
      </trkpt>
      <trkpt lat="45.03445" lon="6.35315">
        <ele>1659.4</ele>
        <time>2024-08-10T11:50:53Z</time>
      </trkpt>
      <trkpt lat="45.03444" lon="6.35319">
        <ele>1659.8</ele>
        <time>2024-08-10T11:50:54Z</time>
      </trkpt>
      <trkpt lat="45.03444" lon="6.35319">
        <ele>1660</ele>
        <time>2024-08-10T11:50:55Z</time>
      </trkpt>
      <trkpt lat="45.03443" lon="6.35321">
        <ele>1660</ele>
        <time>2024-08-10T11:50:56Z</time>
      </trkpt>
      <trkpt lat="45.03443" lon="6.35321">
        <ele>1660.2</ele>
        <time>2024-08-10T11:50:57Z</time>
      </trkpt>
      <trkpt lat="45.03442" lon="6.35324">
        <ele>1660.4</ele>
        <time>2024-08-10T11:50:58Z</time>
      </trkpt>
      <trkpt lat="45.03442" lon="6.35324">
        <ele>1660.4</ele>
        <time>2024-08-10T11:50:59Z</time>
      </trkpt>
      <trkpt lat="45.0344" lon="6.35326">
        <ele>1660.4</ele>
        <time>2024-08-10T11:51:00Z</time>
      </trkpt>
      <trkpt lat="45.0344" lon="6.35326">
        <ele>1660.4</ele>
        <time>2024-08-10T11:51:01Z</time>
      </trkpt>
      <trkpt lat="45.03439" lon="6.35328">
        <ele>1660.6</ele>
        <time>2024-08-10T11:51:02Z</time>
      </trkpt>
      <trkpt lat="45.03439" lon="6.35328">
        <ele>1660.8</ele>
        <time>2024-08-10T11:51:03Z</time>
      </trkpt>
      <trkpt lat="45.03437" lon="6.3533">
        <ele>1660.8</ele>
        <time>2024-08-10T11:51:04Z</time>
      </trkpt>
      <trkpt lat="45.03437" lon="6.3533">
        <ele>1660.8</ele>
        <time>2024-08-10T11:51:05Z</time>
      </trkpt>
      <trkpt lat="45.03436" lon="6.35332">
        <ele>1660.8</ele>
        <time>2024-08-10T11:51:06Z</time>
      </trkpt>
      <trkpt lat="45.03436" lon="6.35332">
        <ele>1661</ele>
        <time>2024-08-10T11:51:07Z</time>
      </trkpt>
      <trkpt lat="45.03434" lon="6.35334">
        <ele>1661</ele>
        <time>2024-08-10T11:51:08Z</time>
      </trkpt>
      <trkpt lat="45.03434" lon="6.35334">
        <ele>1661.2</ele>
        <time>2024-08-10T11:51:09Z</time>
      </trkpt>
      <trkpt lat="45.03432" lon="6.35336">
        <ele>1661.4</ele>
        <time>2024-08-10T11:51:10Z</time>
      </trkpt>
      <trkpt lat="45.03432" lon="6.35336">
        <ele>1661.4</ele>
        <time>2024-08-10T11:51:11Z</time>
      </trkpt>
      <trkpt lat="45.0343" lon="6.35338">
        <ele>1661.2</ele>
        <time>2024-08-10T11:51:12Z</time>
      </trkpt>
      <trkpt lat="45.0343" lon="6.35338">
        <ele>1661.2</ele>
        <time>2024-08-10T11:51:13Z</time>
      </trkpt>
      <trkpt lat="45.03429" lon="6.3534">
        <ele>1661.4</ele>
        <time>2024-08-10T11:51:14Z</time>
      </trkpt>
      <trkpt lat="45.03429" lon="6.3534">
        <ele>1661.4</ele>
        <time>2024-08-10T11:51:15Z</time>
      </trkpt>
      <trkpt lat="45.03428" lon="6.35343">
        <ele>1661.4</ele>
        <time>2024-08-10T11:51:16Z</time>
      </trkpt>
      <trkpt lat="45.03428" lon="6.35343">
        <ele>1661.8</ele>
        <time>2024-08-10T11:51:17Z</time>
      </trkpt>
      <trkpt lat="45.03426" lon="6.35346">
        <ele>1661.8</ele>
        <time>2024-08-10T11:51:18Z</time>
      </trkpt>
      <trkpt lat="45.03426" lon="6.35346">
        <ele>1662</ele>
        <time>2024-08-10T11:51:19Z</time>
      </trkpt>
      <trkpt lat="45.03425" lon="6.35348">
        <ele>1662.2</ele>
        <time>2024-08-10T11:51:20Z</time>
      </trkpt>
      <trkpt lat="45.03425" lon="6.35348">
        <ele>1662.4</ele>
        <time>2024-08-10T11:51:21Z</time>
      </trkpt>
      <trkpt lat="45.03424" lon="6.35351">
        <ele>1662.4</ele>
        <time>2024-08-10T11:51:22Z</time>
      </trkpt>
      <trkpt lat="45.03424" lon="6.35351">
        <ele>1662.4</ele>
        <time>2024-08-10T11:51:23Z</time>
      </trkpt>
      <trkpt lat="45.03423" lon="6.35354">
        <ele>1662.4</ele>
        <time>2024-08-10T11:51:24Z</time>
      </trkpt>
      <trkpt lat="45.03423" lon="6.35354">
        <ele>1662.4</ele>
        <time>2024-08-10T11:51:25Z</time>
      </trkpt>
      <trkpt lat="45.03423" lon="6.35357">
        <ele>1662.4</ele>
        <time>2024-08-10T11:51:26Z</time>
      </trkpt>
      <trkpt lat="45.03423" lon="6.35357">
        <ele>1662.4</ele>
        <time>2024-08-10T11:51:27Z</time>
      </trkpt>
      <trkpt lat="45.03423" lon="6.3536">
        <ele>1662.6</ele>
        <time>2024-08-10T11:51:28Z</time>
      </trkpt>
      <trkpt lat="45.03423" lon="6.3536">
        <ele>1662.6</ele>
        <time>2024-08-10T11:51:29Z</time>
      </trkpt>
      <trkpt lat="45.03422" lon="6.35364">
        <ele>1662.4</ele>
        <time>2024-08-10T11:51:30Z</time>
      </trkpt>
      <trkpt lat="45.03422" lon="6.35364">
        <ele>1662.4</ele>
        <time>2024-08-10T11:51:31Z</time>
      </trkpt>
      <trkpt lat="45.03421" lon="6.35368">
        <ele>1662</ele>
        <time>2024-08-10T11:51:32Z</time>
      </trkpt>
      <trkpt lat="45.03421" lon="6.35368">
        <ele>1661.8</ele>
        <time>2024-08-10T11:51:33Z</time>
      </trkpt>
      <trkpt lat="45.0342" lon="6.35371">
        <ele>1661.6</ele>
        <time>2024-08-10T11:51:34Z</time>
      </trkpt>
      <trkpt lat="45.0342" lon="6.35371">
        <ele>1661.6</ele>
        <time>2024-08-10T11:51:35Z</time>
      </trkpt>
      <trkpt lat="45.0342" lon="6.35374">
        <ele>1661.6</ele>
        <time>2024-08-10T11:51:36Z</time>
      </trkpt>
      <trkpt lat="45.0342" lon="6.35374">
        <ele>1661.6</ele>
        <time>2024-08-10T11:51:37Z</time>
      </trkpt>
      <trkpt lat="45.0342" lon="6.35377">
        <ele>1661.6</ele>
        <time>2024-08-10T11:51:38Z</time>
      </trkpt>
      <trkpt lat="45.0342" lon="6.35377">
        <ele>1661.6</ele>
        <time>2024-08-10T11:51:39Z</time>
      </trkpt>
      <trkpt lat="45.03421" lon="6.35381">
        <ele>1661.6</ele>
        <time>2024-08-10T11:51:40Z</time>
      </trkpt>
      <trkpt lat="45.03421" lon="6.35381">
        <ele>1661.8</ele>
        <time>2024-08-10T11:51:41Z</time>
      </trkpt>
      <trkpt lat="45.03422" lon="6.35384">
        <ele>1661.8</ele>
        <time>2024-08-10T11:51:42Z</time>
      </trkpt>
      <trkpt lat="45.03422" lon="6.35384">
        <ele>1662</ele>
        <time>2024-08-10T11:51:43Z</time>
      </trkpt>
      <trkpt lat="45.03422" lon="6.35387">
        <ele>1662</ele>
        <time>2024-08-10T11:51:44Z</time>
      </trkpt>
      <trkpt lat="45.03422" lon="6.35387">
        <ele>1662</ele>
        <time>2024-08-10T11:51:45Z</time>
      </trkpt>
      <trkpt lat="45.03422" lon="6.3539">
        <ele>1662</ele>
        <time>2024-08-10T11:51:46Z</time>
      </trkpt>
      <trkpt lat="45.03422" lon="6.3539">
        <ele>1662</ele>
        <time>2024-08-10T11:51:47Z</time>
      </trkpt>
      <trkpt lat="45.03422" lon="6.35393">
        <ele>1662.2</ele>
        <time>2024-08-10T11:51:48Z</time>
      </trkpt>
      <trkpt lat="45.03422" lon="6.35393">
        <ele>1662.2</ele>
        <time>2024-08-10T11:51:49Z</time>
      </trkpt>
      <trkpt lat="45.03421" lon="6.35396">
        <ele>1662.4</ele>
        <time>2024-08-10T11:51:50Z</time>
      </trkpt>
      <trkpt lat="45.03421" lon="6.35396">
        <ele>1662.4</ele>
        <time>2024-08-10T11:51:51Z</time>
      </trkpt>
      <trkpt lat="45.0342" lon="6.35399">
        <ele>1662.4</ele>
        <time>2024-08-10T11:51:52Z</time>
      </trkpt>
      <trkpt lat="45.0342" lon="6.35399">
        <ele>1662.2</ele>
        <time>2024-08-10T11:51:53Z</time>
      </trkpt>
      <trkpt lat="45.03418" lon="6.35402">
        <ele>1662.4</ele>
        <time>2024-08-10T11:51:54Z</time>
      </trkpt>
      <trkpt lat="45.03418" lon="6.35402">
        <ele>1662.2</ele>
        <time>2024-08-10T11:51:55Z</time>
      </trkpt>
      <trkpt lat="45.03416" lon="6.35404">
        <ele>1662.4</ele>
        <time>2024-08-10T11:51:56Z</time>
      </trkpt>
      <trkpt lat="45.03416" lon="6.35404">
        <ele>1662.4</ele>
        <time>2024-08-10T11:51:57Z</time>
      </trkpt>
      <trkpt lat="45.03414" lon="6.35406">
        <ele>1662.4</ele>
        <time>2024-08-10T11:51:58Z</time>
      </trkpt>
      <trkpt lat="45.03414" lon="6.35406">
        <ele>1662.4</ele>
        <time>2024-08-10T11:51:59Z</time>
      </trkpt>
      <trkpt lat="45.03412" lon="6.35409">
        <ele>1662.4</ele>
        <time>2024-08-10T11:52:00Z</time>
      </trkpt>
      <trkpt lat="45.03412" lon="6.35409">
        <ele>1662.4</ele>
        <time>2024-08-10T11:52:01Z</time>
      </trkpt>
      <trkpt lat="45.03411" lon="6.35411">
        <ele>1662.4</ele>
        <time>2024-08-10T11:52:02Z</time>
      </trkpt>
      <trkpt lat="45.03411" lon="6.35411">
        <ele>1662.4</ele>
        <time>2024-08-10T11:52:03Z</time>
      </trkpt>
      <trkpt lat="45.03409" lon="6.35414">
        <ele>1662.4</ele>
        <time>2024-08-10T11:52:04Z</time>
      </trkpt>
      <trkpt lat="45.03409" lon="6.35414">
        <ele>1662.8</ele>
        <time>2024-08-10T11:52:05Z</time>
      </trkpt>
      <trkpt lat="45.03408" lon="6.35416">
        <ele>1662.8</ele>
        <time>2024-08-10T11:52:06Z</time>
      </trkpt>
      <trkpt lat="45.03408" lon="6.35416">
        <ele>1662.8</ele>
        <time>2024-08-10T11:52:07Z</time>
      </trkpt>
      <trkpt lat="45.03407" lon="6.35419">
        <ele>1663</ele>
        <time>2024-08-10T11:52:08Z</time>
      </trkpt>
      <trkpt lat="45.03407" lon="6.35419">
        <ele>1663</ele>
        <time>2024-08-10T11:52:09Z</time>
      </trkpt>
      <trkpt lat="45.03406" lon="6.35422">
        <ele>1662.6</ele>
        <time>2024-08-10T11:52:10Z</time>
      </trkpt>
      <trkpt lat="45.03406" lon="6.35422">
        <ele>1662.4</ele>
        <time>2024-08-10T11:52:11Z</time>
      </trkpt>
      <trkpt lat="45.03404" lon="6.35426">
        <ele>1662.2</ele>
        <time>2024-08-10T11:52:12Z</time>
      </trkpt>
      <trkpt lat="45.03404" lon="6.35426">
        <ele>1662</ele>
        <time>2024-08-10T11:52:13Z</time>
      </trkpt>
      <trkpt lat="45.03402" lon="6.35429">
        <ele>1661.8</ele>
        <time>2024-08-10T11:52:14Z</time>
      </trkpt>
      <trkpt lat="45.03402" lon="6.35429">
        <ele>1661.6</ele>
        <time>2024-08-10T11:52:15Z</time>
      </trkpt>
      <trkpt lat="45.03401" lon="6.35431">
        <ele>1661.4</ele>
        <time>2024-08-10T11:52:16Z</time>
      </trkpt>
      <trkpt lat="45.03401" lon="6.35431">
        <ele>1661.4</ele>
        <time>2024-08-10T11:52:17Z</time>
      </trkpt>
      <trkpt lat="45.034" lon="6.35434">
        <ele>1661.4</ele>
        <time>2024-08-10T11:52:18Z</time>
      </trkpt>
      <trkpt lat="45.034" lon="6.35434">
        <ele>1661.4</ele>
        <time>2024-08-10T11:52:19Z</time>
      </trkpt>
      <trkpt lat="45.03399" lon="6.35437">
        <ele>1661</ele>
        <time>2024-08-10T11:52:20Z</time>
      </trkpt>
      <trkpt lat="45.03399" lon="6.35437">
        <ele>1660.6</ele>
        <time>2024-08-10T11:52:21Z</time>
      </trkpt>
      <trkpt lat="45.03398" lon="6.35441">
        <ele>1660.4</ele>
        <time>2024-08-10T11:52:22Z</time>
      </trkpt>
      <trkpt lat="45.03398" lon="6.35441">
        <ele>1660.2</ele>
        <time>2024-08-10T11:52:23Z</time>
      </trkpt>
      <trkpt lat="45.03397" lon="6.35444">
        <ele>1660.2</ele>
        <time>2024-08-10T11:52:24Z</time>
      </trkpt>
      <trkpt lat="45.03397" lon="6.35444">
        <ele>1660</ele>
        <time>2024-08-10T11:52:25Z</time>
      </trkpt>
      <trkpt lat="45.03395" lon="6.35448">
        <ele>1659.8</ele>
        <time>2024-08-10T11:52:26Z</time>
      </trkpt>
      <trkpt lat="45.03395" lon="6.35448">
        <ele>1659.8</ele>
        <time>2024-08-10T11:52:27Z</time>
      </trkpt>
      <trkpt lat="45.03394" lon="6.35451">
        <ele>1659.8</ele>
        <time>2024-08-10T11:52:28Z</time>
      </trkpt>
      <trkpt lat="45.03394" lon="6.35451">
        <ele>1659.8</ele>
        <time>2024-08-10T11:52:29Z</time>
      </trkpt>
      <trkpt lat="45.03393" lon="6.35453">
        <ele>1659.8</ele>
        <time>2024-08-10T11:52:30Z</time>
      </trkpt>
      <trkpt lat="45.03393" lon="6.35453">
        <ele>1659.8</ele>
        <time>2024-08-10T11:52:31Z</time>
      </trkpt>
      <trkpt lat="45.03392" lon="6.35457">
        <ele>1659.8</ele>
        <time>2024-08-10T11:52:32Z</time>
      </trkpt>
      <trkpt lat="45.03392" lon="6.35457">
        <ele>1659.8</ele>
        <time>2024-08-10T11:52:33Z</time>
      </trkpt>
      <trkpt lat="45.03391" lon="6.3546">
        <ele>1659.6</ele>
        <time>2024-08-10T11:52:34Z</time>
      </trkpt>
      <trkpt lat="45.03391" lon="6.3546">
        <ele>1659.6</ele>
        <time>2024-08-10T11:52:35Z</time>
      </trkpt>
      <trkpt lat="45.0339" lon="6.35463">
        <ele>1659.4</ele>
        <time>2024-08-10T11:52:36Z</time>
      </trkpt>
      <trkpt lat="45.0339" lon="6.35463">
        <ele>1659.2</ele>
        <time>2024-08-10T11:52:37Z</time>
      </trkpt>
      <trkpt lat="45.03389" lon="6.35466">
        <ele>1659</ele>
        <time>2024-08-10T11:52:38Z</time>
      </trkpt>
      <trkpt lat="45.03389" lon="6.35466">
        <ele>1659</ele>
        <time>2024-08-10T11:52:39Z</time>
      </trkpt>
      <trkpt lat="45.03386" lon="6.35468">
        <ele>1658.8</ele>
        <time>2024-08-10T11:52:40Z</time>
      </trkpt>
      <trkpt lat="45.03386" lon="6.35468">
        <ele>1658.8</ele>
        <time>2024-08-10T11:52:41Z</time>
      </trkpt>
      <trkpt lat="45.03384" lon="6.3547">
        <ele>1658.8</ele>
        <time>2024-08-10T11:52:42Z</time>
      </trkpt>
      <trkpt lat="45.03384" lon="6.3547">
        <ele>1658.8</ele>
        <time>2024-08-10T11:52:43Z</time>
      </trkpt>
      <trkpt lat="45.03381" lon="6.3547">
        <ele>1658.8</ele>
        <time>2024-08-10T11:52:44Z</time>
      </trkpt>
      <trkpt lat="45.03381" lon="6.3547">
        <ele>1658.8</ele>
        <time>2024-08-10T11:52:45Z</time>
      </trkpt>
      <trkpt lat="45.03379" lon="6.35472">
        <ele>1658.4</ele>
        <time>2024-08-10T11:52:46Z</time>
      </trkpt>
      <trkpt lat="45.03379" lon="6.35472">
        <ele>1658.4</ele>
        <time>2024-08-10T11:52:47Z</time>
      </trkpt>
      <trkpt lat="45.03377" lon="6.35473">
        <ele>1658.6</ele>
        <time>2024-08-10T11:52:48Z</time>
      </trkpt>
      <trkpt lat="45.03377" lon="6.35473">
        <ele>1658.8</ele>
        <time>2024-08-10T11:52:49Z</time>
      </trkpt>
      <trkpt lat="45.03374" lon="6.35475">
        <ele>1659</ele>
        <time>2024-08-10T11:52:50Z</time>
      </trkpt>
      <trkpt lat="45.03374" lon="6.35475">
        <ele>1659</ele>
        <time>2024-08-10T11:52:51Z</time>
      </trkpt>
      <trkpt lat="45.03372" lon="6.35477">
        <ele>1659</ele>
        <time>2024-08-10T11:52:52Z</time>
      </trkpt>
      <trkpt lat="45.03372" lon="6.35477">
        <ele>1658.8</ele>
        <time>2024-08-10T11:52:53Z</time>
      </trkpt>
      <trkpt lat="45.0337" lon="6.35478">
        <ele>1658.6</ele>
        <time>2024-08-10T11:52:54Z</time>
      </trkpt>
      <trkpt lat="45.0337" lon="6.35478">
        <ele>1658.6</ele>
        <time>2024-08-10T11:52:55Z</time>
      </trkpt>
      <trkpt lat="45.03368" lon="6.3548">
        <ele>1658.6</ele>
        <time>2024-08-10T11:52:56Z</time>
      </trkpt>
      <trkpt lat="45.03368" lon="6.3548">
        <ele>1658.6</ele>
        <time>2024-08-10T11:52:57Z</time>
      </trkpt>
      <trkpt lat="45.03366" lon="6.35483">
        <ele>1658.6</ele>
        <time>2024-08-10T11:52:58Z</time>
      </trkpt>
      <trkpt lat="45.03366" lon="6.35483">
        <ele>1658.4</ele>
        <time>2024-08-10T11:52:59Z</time>
      </trkpt>
      <trkpt lat="45.03364" lon="6.35485">
        <ele>1658.2</ele>
        <time>2024-08-10T11:53:00Z</time>
      </trkpt>
      <trkpt lat="45.03364" lon="6.35485">
        <ele>1658</ele>
        <time>2024-08-10T11:53:01Z</time>
      </trkpt>
      <trkpt lat="45.03362" lon="6.35486">
        <ele>1658.2</ele>
        <time>2024-08-10T11:53:02Z</time>
      </trkpt>
      <trkpt lat="45.03362" lon="6.35486">
        <ele>1658</ele>
        <time>2024-08-10T11:53:03Z</time>
      </trkpt>
      <trkpt lat="45.03359" lon="6.35488">
        <ele>1658</ele>
        <time>2024-08-10T11:53:04Z</time>
      </trkpt>
      <trkpt lat="45.03359" lon="6.35488">
        <ele>1658</ele>
        <time>2024-08-10T11:53:05Z</time>
      </trkpt>
      <trkpt lat="45.03357" lon="6.3549">
        <ele>1658.2</ele>
        <time>2024-08-10T11:53:06Z</time>
      </trkpt>
      <trkpt lat="45.03357" lon="6.3549">
        <ele>1658.2</ele>
        <time>2024-08-10T11:53:07Z</time>
      </trkpt>
      <trkpt lat="45.03355" lon="6.35492">
        <ele>1658.4</ele>
        <time>2024-08-10T11:53:08Z</time>
      </trkpt>
      <trkpt lat="45.03355" lon="6.35492">
        <ele>1658.6</ele>
        <time>2024-08-10T11:53:09Z</time>
      </trkpt>
      <trkpt lat="45.03352" lon="6.35493">
        <ele>1658.6</ele>
        <time>2024-08-10T11:53:10Z</time>
      </trkpt>
      <trkpt lat="45.03352" lon="6.35493">
        <ele>1658.6</ele>
        <time>2024-08-10T11:53:11Z</time>
      </trkpt>
      <trkpt lat="45.0335" lon="6.35494">
        <ele>1658.6</ele>
        <time>2024-08-10T11:53:12Z</time>
      </trkpt>
      <trkpt lat="45.0335" lon="6.35494">
        <ele>1658.6</ele>
        <time>2024-08-10T11:53:13Z</time>
      </trkpt>
      <trkpt lat="45.03349" lon="6.35496">
        <ele>1658.6</ele>
        <time>2024-08-10T11:53:14Z</time>
      </trkpt>
      <trkpt lat="45.03349" lon="6.35496">
        <ele>1658.6</ele>
        <time>2024-08-10T11:53:15Z</time>
      </trkpt>
      <trkpt lat="45.03347" lon="6.35498">
        <ele>1658.6</ele>
        <time>2024-08-10T11:53:16Z</time>
      </trkpt>
      <trkpt lat="45.03347" lon="6.35498">
        <ele>1658.8</ele>
        <time>2024-08-10T11:53:17Z</time>
      </trkpt>
      <trkpt lat="45.03345" lon="6.35499">
        <ele>1659</ele>
        <time>2024-08-10T11:53:18Z</time>
      </trkpt>
      <trkpt lat="45.03345" lon="6.35499">
        <ele>1659.4</ele>
        <time>2024-08-10T11:53:19Z</time>
      </trkpt>
      <trkpt lat="45.03342" lon="6.35501">
        <ele>1659.4</ele>
        <time>2024-08-10T11:53:20Z</time>
      </trkpt>
      <trkpt lat="45.03342" lon="6.35501">
        <ele>1659.4</ele>
        <time>2024-08-10T11:53:21Z</time>
      </trkpt>
      <trkpt lat="45.03342" lon="6.35501">
        <ele>1659.2</ele>
        <time>2024-08-10T11:53:22Z</time>
      </trkpt>
      <trkpt lat="45.0334" lon="6.35502">
        <ele>1659.2</ele>
        <time>2024-08-10T11:53:23Z</time>
      </trkpt>
      <trkpt lat="45.0334" lon="6.35502">
        <ele>1659.2</ele>
        <time>2024-08-10T11:53:24Z</time>
      </trkpt>
      <trkpt lat="45.03338" lon="6.35504">
        <ele>1659.2</ele>
        <time>2024-08-10T11:53:25Z</time>
      </trkpt>
      <trkpt lat="45.03338" lon="6.35504">
        <ele>1659.2</ele>
        <time>2024-08-10T11:53:26Z</time>
      </trkpt>
      <trkpt lat="45.03336" lon="6.35506">
        <ele>1659.4</ele>
        <time>2024-08-10T11:53:27Z</time>
      </trkpt>
      <trkpt lat="45.03336" lon="6.35506">
        <ele>1659.4</ele>
        <time>2024-08-10T11:53:28Z</time>
      </trkpt>
      <trkpt lat="45.03334" lon="6.35509">
        <ele>1659.6</ele>
        <time>2024-08-10T11:53:29Z</time>
      </trkpt>
      <trkpt lat="45.03334" lon="6.35509">
        <ele>1659.6</ele>
        <time>2024-08-10T11:53:30Z</time>
      </trkpt>
      <trkpt lat="45.03333" lon="6.3551">
        <ele>1659.6</ele>
        <time>2024-08-10T11:53:31Z</time>
      </trkpt>
      <trkpt lat="45.03333" lon="6.3551">
        <ele>1659.6</ele>
        <time>2024-08-10T11:53:32Z</time>
      </trkpt>
      <trkpt lat="45.03333" lon="6.3551">
        <ele>1659.8</ele>
        <time>2024-08-10T11:53:33Z</time>
      </trkpt>
      <trkpt lat="45.03332" lon="6.35514">
        <ele>1659.8</ele>
        <time>2024-08-10T11:53:34Z</time>
      </trkpt>
      <trkpt lat="45.03332" lon="6.35514">
        <ele>1659.8</ele>
        <time>2024-08-10T11:53:35Z</time>
      </trkpt>
      <trkpt lat="45.0333" lon="6.35517">
        <ele>1659.8</ele>
        <time>2024-08-10T11:53:36Z</time>
      </trkpt>
      <trkpt lat="45.0333" lon="6.35517">
        <ele>1659.4</ele>
        <time>2024-08-10T11:53:37Z</time>
      </trkpt>
      <trkpt lat="45.03328" lon="6.35519">
        <ele>1659.2</ele>
        <time>2024-08-10T11:53:38Z</time>
      </trkpt>
      <trkpt lat="45.03328" lon="6.35519">
        <ele>1659</ele>
        <time>2024-08-10T11:53:39Z</time>
      </trkpt>
      <trkpt lat="45.03326" lon="6.35521">
        <ele>1658.8</ele>
        <time>2024-08-10T11:53:40Z</time>
      </trkpt>
      <trkpt lat="45.03326" lon="6.35521">
        <ele>1658.6</ele>
        <time>2024-08-10T11:53:41Z</time>
      </trkpt>
      <trkpt lat="45.03324" lon="6.35523">
        <ele>1658.6</ele>
        <time>2024-08-10T11:53:42Z</time>
      </trkpt>
      <trkpt lat="45.03324" lon="6.35523">
        <ele>1658.4</ele>
        <time>2024-08-10T11:53:43Z</time>
      </trkpt>
      <trkpt lat="45.03322" lon="6.35525">
        <ele>1658.4</ele>
        <time>2024-08-10T11:53:44Z</time>
      </trkpt>
      <trkpt lat="45.03322" lon="6.35525">
        <ele>1658.4</ele>
        <time>2024-08-10T11:53:45Z</time>
      </trkpt>
      <trkpt lat="45.0332" lon="6.35526">
        <ele>1658.2</ele>
        <time>2024-08-10T11:53:46Z</time>
      </trkpt>
      <trkpt lat="45.0332" lon="6.35526">
        <ele>1658.2</ele>
        <time>2024-08-10T11:53:47Z</time>
      </trkpt>
      <trkpt lat="45.03318" lon="6.35527">
        <ele>1658.4</ele>
        <time>2024-08-10T11:53:48Z</time>
      </trkpt>
      <trkpt lat="45.03318" lon="6.35527">
        <ele>1658.4</ele>
        <time>2024-08-10T11:53:49Z</time>
      </trkpt>
      <trkpt lat="45.03317" lon="6.35528">
        <ele>1658.6</ele>
        <time>2024-08-10T11:53:50Z</time>
      </trkpt>
      <trkpt lat="45.03317" lon="6.35528">
        <ele>1658.8</ele>
        <time>2024-08-10T11:53:51Z</time>
      </trkpt>
      <trkpt lat="45.03317" lon="6.35528">
        <ele>1659</ele>
        <time>2024-08-10T11:53:52Z</time>
      </trkpt>
      <trkpt lat="45.03315" lon="6.3553">
        <ele>1659</ele>
        <time>2024-08-10T11:53:53Z</time>
      </trkpt>
      <trkpt lat="45.03315" lon="6.3553">
        <ele>1659</ele>
        <time>2024-08-10T11:53:54Z</time>
      </trkpt>
      <trkpt lat="45.03313" lon="6.35534">
        <ele>1659.2</ele>
        <time>2024-08-10T11:53:55Z</time>
      </trkpt>
      <trkpt lat="45.03313" lon="6.35534">
        <ele>1659.2</ele>
        <time>2024-08-10T11:53:56Z</time>
      </trkpt>
      <trkpt lat="45.03312" lon="6.35536">
        <ele>1659</ele>
        <time>2024-08-10T11:53:57Z</time>
      </trkpt>
      <trkpt lat="45.03312" lon="6.35536">
        <ele>1659</ele>
        <time>2024-08-10T11:53:58Z</time>
      </trkpt>
      <trkpt lat="45.0331" lon="6.35538">
        <ele>1659</ele>
        <time>2024-08-10T11:53:59Z</time>
      </trkpt>
      <trkpt lat="45.0331" lon="6.35538">
        <ele>1659</ele>
        <time>2024-08-10T11:54:00Z</time>
      </trkpt>
      <trkpt lat="45.03308" lon="6.3554">
        <ele>1659.2</ele>
        <time>2024-08-10T11:54:01Z</time>
      </trkpt>
      <trkpt lat="45.03308" lon="6.3554">
        <ele>1659.2</ele>
        <time>2024-08-10T11:54:02Z</time>
      </trkpt>
      <trkpt lat="45.03306" lon="6.35541">
        <ele>1659</ele>
        <time>2024-08-10T11:54:03Z</time>
      </trkpt>
      <trkpt lat="45.03306" lon="6.35541">
        <ele>1659</ele>
        <time>2024-08-10T11:54:04Z</time>
      </trkpt>
      <trkpt lat="45.03305" lon="6.35544">
        <ele>1659</ele>
        <time>2024-08-10T11:54:05Z</time>
      </trkpt>
      <trkpt lat="45.03305" lon="6.35544">
        <ele>1659</ele>
        <time>2024-08-10T11:54:06Z</time>
      </trkpt>
      <trkpt lat="45.03303" lon="6.35546">
        <ele>1658.8</ele>
        <time>2024-08-10T11:54:07Z</time>
      </trkpt>
      <trkpt lat="45.03303" lon="6.35546">
        <ele>1659</ele>
        <time>2024-08-10T11:54:08Z</time>
      </trkpt>
      <trkpt lat="45.03302" lon="6.35549">
        <ele>1659</ele>
        <time>2024-08-10T11:54:09Z</time>
      </trkpt>
      <trkpt lat="45.03302" lon="6.35549">
        <ele>1659</ele>
        <time>2024-08-10T11:54:10Z</time>
      </trkpt>
      <trkpt lat="45.03301" lon="6.35552">
        <ele>1659.2</ele>
        <time>2024-08-10T11:54:11Z</time>
      </trkpt>
      <trkpt lat="45.03301" lon="6.35552">
        <ele>1659.2</ele>
        <time>2024-08-10T11:54:12Z</time>
      </trkpt>
      <trkpt lat="45.03299" lon="6.35556">
        <ele>1659.2</ele>
        <time>2024-08-10T11:54:13Z</time>
      </trkpt>
      <trkpt lat="45.03299" lon="6.35556">
        <ele>1659.2</ele>
        <time>2024-08-10T11:54:14Z</time>
      </trkpt>
      <trkpt lat="45.03298" lon="6.35558">
        <ele>1659.6</ele>
        <time>2024-08-10T11:54:15Z</time>
      </trkpt>
      <trkpt lat="45.03298" lon="6.35558">
        <ele>1659.8</ele>
        <time>2024-08-10T11:54:16Z</time>
      </trkpt>
      <trkpt lat="45.03296" lon="6.35562">
        <ele>1659.8</ele>
        <time>2024-08-10T11:54:17Z</time>
      </trkpt>
      <trkpt lat="45.03296" lon="6.35562">
        <ele>1659.8</ele>
        <time>2024-08-10T11:54:18Z</time>
      </trkpt>
      <trkpt lat="45.03294" lon="6.35564">
        <ele>1659.8</ele>
        <time>2024-08-10T11:54:19Z</time>
      </trkpt>
      <trkpt lat="45.03294" lon="6.35564">
        <ele>1659.6</ele>
        <time>2024-08-10T11:54:20Z</time>
      </trkpt>
      <trkpt lat="45.03293" lon="6.35567">
        <ele>1659.6</ele>
        <time>2024-08-10T11:54:21Z</time>
      </trkpt>
      <trkpt lat="45.03293" lon="6.35567">
        <ele>1659.6</ele>
        <time>2024-08-10T11:54:22Z</time>
      </trkpt>
      <trkpt lat="45.03291" lon="6.3557">
        <ele>1659.4</ele>
        <time>2024-08-10T11:54:23Z</time>
      </trkpt>
      <trkpt lat="45.03291" lon="6.3557">
        <ele>1659.4</ele>
        <time>2024-08-10T11:54:24Z</time>
      </trkpt>
      <trkpt lat="45.03289" lon="6.35573">
        <ele>1659.8</ele>
        <time>2024-08-10T11:54:25Z</time>
      </trkpt>
      <trkpt lat="45.03289" lon="6.35573">
        <ele>1659.8</ele>
        <time>2024-08-10T11:54:26Z</time>
      </trkpt>
      <trkpt lat="45.03287" lon="6.35576">
        <ele>1659.8</ele>
        <time>2024-08-10T11:54:27Z</time>
      </trkpt>
      <trkpt lat="45.03287" lon="6.35576">
        <ele>1659.8</ele>
        <time>2024-08-10T11:54:28Z</time>
      </trkpt>
      <trkpt lat="45.03286" lon="6.35578">
        <ele>1660</ele>
        <time>2024-08-10T11:54:29Z</time>
      </trkpt>
      <trkpt lat="45.03286" lon="6.35578">
        <ele>1660</ele>
        <time>2024-08-10T11:54:30Z</time>
      </trkpt>
      <trkpt lat="45.03285" lon="6.3558">
        <ele>1660</ele>
        <time>2024-08-10T11:54:31Z</time>
      </trkpt>
      <trkpt lat="45.03285" lon="6.3558">
        <ele>1660</ele>
        <time>2024-08-10T11:54:32Z</time>
      </trkpt>
      <trkpt lat="45.03283" lon="6.35583">
        <ele>1660.2</ele>
        <time>2024-08-10T11:54:33Z</time>
      </trkpt>
      <trkpt lat="45.03283" lon="6.35583">
        <ele>1660.2</ele>
        <time>2024-08-10T11:54:34Z</time>
      </trkpt>
      <trkpt lat="45.03282" lon="6.35586">
        <ele>1660</ele>
        <time>2024-08-10T11:54:35Z</time>
      </trkpt>
      <trkpt lat="45.03282" lon="6.35586">
        <ele>1660</ele>
        <time>2024-08-10T11:54:36Z</time>
      </trkpt>
      <trkpt lat="45.03281" lon="6.3559">
        <ele>1660</ele>
        <time>2024-08-10T11:54:37Z</time>
      </trkpt>
      <trkpt lat="45.03281" lon="6.3559">
        <ele>1659.8</ele>
        <time>2024-08-10T11:54:38Z</time>
      </trkpt>
      <trkpt lat="45.03279" lon="6.35593">
        <ele>1659.8</ele>
        <time>2024-08-10T11:54:39Z</time>
      </trkpt>
      <trkpt lat="45.03279" lon="6.35593">
        <ele>1659.8</ele>
        <time>2024-08-10T11:54:40Z</time>
      </trkpt>
      <trkpt lat="45.03279" lon="6.35597">
        <ele>1659.6</ele>
        <time>2024-08-10T11:54:41Z</time>
      </trkpt>
      <trkpt lat="45.03279" lon="6.35597">
        <ele>1659.6</ele>
        <time>2024-08-10T11:54:42Z</time>
      </trkpt>
      <trkpt lat="45.03277" lon="6.356">
        <ele>1659.6</ele>
        <time>2024-08-10T11:54:43Z</time>
      </trkpt>
      <trkpt lat="45.03277" lon="6.356">
        <ele>1659.6</ele>
        <time>2024-08-10T11:54:44Z</time>
      </trkpt>
      <trkpt lat="45.03277" lon="6.35604">
        <ele>1659.6</ele>
        <time>2024-08-10T11:54:45Z</time>
      </trkpt>
      <trkpt lat="45.03277" lon="6.35604">
        <ele>1659.4</ele>
        <time>2024-08-10T11:54:46Z</time>
      </trkpt>
      <trkpt lat="45.03275" lon="6.35607">
        <ele>1659.4</ele>
        <time>2024-08-10T11:54:47Z</time>
      </trkpt>
      <trkpt lat="45.03275" lon="6.35607">
        <ele>1659.4</ele>
        <time>2024-08-10T11:54:48Z</time>
      </trkpt>
      <trkpt lat="45.03274" lon="6.3561">
        <ele>1659.4</ele>
        <time>2024-08-10T11:54:49Z</time>
      </trkpt>
      <trkpt lat="45.03274" lon="6.3561">
        <ele>1659.4</ele>
        <time>2024-08-10T11:54:50Z</time>
      </trkpt>
      <trkpt lat="45.03273" lon="6.35612">
        <ele>1659.4</ele>
        <time>2024-08-10T11:54:51Z</time>
      </trkpt>
      <trkpt lat="45.03273" lon="6.35612">
        <ele>1659.6</ele>
        <time>2024-08-10T11:54:52Z</time>
      </trkpt>
      <trkpt lat="45.03273" lon="6.35612">
        <ele>1659.8</ele>
        <time>2024-08-10T11:54:53Z</time>
      </trkpt>
      <trkpt lat="45.03272" lon="6.35614">
        <ele>1659.8</ele>
        <time>2024-08-10T11:54:54Z</time>
      </trkpt>
      <trkpt lat="45.03272" lon="6.35614">
        <ele>1659.8</ele>
        <time>2024-08-10T11:54:55Z</time>
      </trkpt>
      <trkpt lat="45.0327" lon="6.35616">
        <ele>1660</ele>
        <time>2024-08-10T11:54:56Z</time>
      </trkpt>
      <trkpt lat="45.0327" lon="6.35616">
        <ele>1660.2</ele>
        <time>2024-08-10T11:54:57Z</time>
      </trkpt>
      <trkpt lat="45.03269" lon="6.35619">
        <ele>1660.2</ele>
        <time>2024-08-10T11:54:58Z</time>
      </trkpt>
      <trkpt lat="45.03269" lon="6.35619">
        <ele>1660.4</ele>
        <time>2024-08-10T11:54:59Z</time>
      </trkpt>
      <trkpt lat="45.03269" lon="6.35619">
        <ele>1660.4</ele>
        <time>2024-08-10T11:55:00Z</time>
      </trkpt>
      <trkpt lat="45.03268" lon="6.35621">
        <ele>1660.4</ele>
        <time>2024-08-10T11:55:01Z</time>
      </trkpt>
      <trkpt lat="45.03268" lon="6.35621">
        <ele>1660.4</ele>
        <time>2024-08-10T11:55:02Z</time>
      </trkpt>
      <trkpt lat="45.03267" lon="6.35622">
        <ele>1660.6</ele>
        <time>2024-08-10T11:55:03Z</time>
      </trkpt>
      <trkpt lat="45.03267" lon="6.35622">
        <ele>1660.6</ele>
        <time>2024-08-10T11:55:04Z</time>
      </trkpt>
      <trkpt lat="45.03267" lon="6.35622">
        <ele>1660.8</ele>
        <time>2024-08-10T11:55:05Z</time>
      </trkpt>
      <trkpt lat="45.03265" lon="6.35625">
        <ele>1660.8</ele>
        <time>2024-08-10T11:55:06Z</time>
      </trkpt>
      <trkpt lat="45.03265" lon="6.35625">
        <ele>1660.8</ele>
        <time>2024-08-10T11:55:07Z</time>
      </trkpt>
      <trkpt lat="45.03263" lon="6.35627">
        <ele>1661</ele>
        <time>2024-08-10T11:55:08Z</time>
      </trkpt>
      <trkpt lat="45.03263" lon="6.35627">
        <ele>1661</ele>
        <time>2024-08-10T11:55:09Z</time>
      </trkpt>
      <trkpt lat="45.03263" lon="6.35627">
        <ele>1661</ele>
        <time>2024-08-10T11:55:10Z</time>
      </trkpt>
      <trkpt lat="45.03261" lon="6.35631">
        <ele>1661</ele>
        <time>2024-08-10T11:55:11Z</time>
      </trkpt>
      <trkpt lat="45.03261" lon="6.35631">
        <ele>1660.8</ele>
        <time>2024-08-10T11:55:12Z</time>
      </trkpt>
      <trkpt lat="45.03261" lon="6.35631">
        <ele>1660.8</ele>
        <time>2024-08-10T11:55:13Z</time>
      </trkpt>
      <trkpt lat="45.03261" lon="6.35634">
        <ele>1661</ele>
        <time>2024-08-10T11:55:14Z</time>
      </trkpt>
      <trkpt lat="45.03261" lon="6.35634">
        <ele>1661.4</ele>
        <time>2024-08-10T11:55:15Z</time>
      </trkpt>
      <trkpt lat="45.0326" lon="6.35637">
        <ele>1661.8</ele>
        <time>2024-08-10T11:55:16Z</time>
      </trkpt>
      <trkpt lat="45.0326" lon="6.35637">
        <ele>1661.8</ele>
        <time>2024-08-10T11:55:17Z</time>
      </trkpt>
      <trkpt lat="45.03258" lon="6.35639">
        <ele>1661.6</ele>
        <time>2024-08-10T11:55:18Z</time>
      </trkpt>
      <trkpt lat="45.03258" lon="6.35639">
        <ele>1661.4</ele>
        <time>2024-08-10T11:55:19Z</time>
      </trkpt>
      <trkpt lat="45.03257" lon="6.35641">
        <ele>1661.4</ele>
        <time>2024-08-10T11:55:20Z</time>
      </trkpt>
      <trkpt lat="45.03257" lon="6.35641">
        <ele>1661.4</ele>
        <time>2024-08-10T11:55:21Z</time>
      </trkpt>
      <trkpt lat="45.03257" lon="6.35644">
        <ele>1661.4</ele>
        <time>2024-08-10T11:55:22Z</time>
      </trkpt>
      <trkpt lat="45.03257" lon="6.35644">
        <ele>1661.4</ele>
        <time>2024-08-10T11:55:23Z</time>
      </trkpt>
      <trkpt lat="45.03257" lon="6.35644">
        <ele>1661.4</ele>
        <time>2024-08-10T11:55:24Z</time>
      </trkpt>
      <trkpt lat="45.03256" lon="6.35647">
        <ele>1661.4</ele>
        <time>2024-08-10T11:55:25Z</time>
      </trkpt>
      <trkpt lat="45.03256" lon="6.35647">
        <ele>1661.4</ele>
        <time>2024-08-10T11:55:26Z</time>
      </trkpt>
      <trkpt lat="45.03254" lon="6.35648">
        <ele>1661</ele>
        <time>2024-08-10T11:55:27Z</time>
      </trkpt>
      <trkpt lat="45.03254" lon="6.35648">
        <ele>1661</ele>
        <time>2024-08-10T11:55:28Z</time>
      </trkpt>
      <trkpt lat="45.03254" lon="6.35648">
        <ele>1660.8</ele>
        <time>2024-08-10T11:55:29Z</time>
      </trkpt>
      <trkpt lat="45.03254" lon="6.35651">
        <ele>1660.8</ele>
        <time>2024-08-10T11:55:30Z</time>
      </trkpt>
      <trkpt lat="45.03254" lon="6.35651">
        <ele>1661</ele>
        <time>2024-08-10T11:55:31Z</time>
      </trkpt>
      <trkpt lat="45.03253" lon="6.35654">
        <ele>1661</ele>
        <time>2024-08-10T11:55:32Z</time>
      </trkpt>
      <trkpt lat="45.03253" lon="6.35654">
        <ele>1661</ele>
        <time>2024-08-10T11:55:33Z</time>
      </trkpt>
      <trkpt lat="45.03252" lon="6.35656">
        <ele>1661.4</ele>
        <time>2024-08-10T11:55:34Z</time>
      </trkpt>
      <trkpt lat="45.03252" lon="6.35656">
        <ele>1661.6</ele>
        <time>2024-08-10T11:55:35Z</time>
      </trkpt>
      <trkpt lat="45.03252" lon="6.35656">
        <ele>1661.6</ele>
        <time>2024-08-10T11:55:36Z</time>
      </trkpt>
      <trkpt lat="45.03251" lon="6.3566">
        <ele>1661.6</ele>
        <time>2024-08-10T11:55:37Z</time>
      </trkpt>
      <trkpt lat="45.03251" lon="6.3566">
        <ele>1661.8</ele>
        <time>2024-08-10T11:55:38Z</time>
      </trkpt>
      <trkpt lat="45.03251" lon="6.3566">
        <ele>1661.8</ele>
        <time>2024-08-10T11:55:39Z</time>
      </trkpt>
      <trkpt lat="45.03249" lon="6.35662">
        <ele>1661.8</ele>
        <time>2024-08-10T11:55:40Z</time>
      </trkpt>
      <trkpt lat="45.03249" lon="6.35662">
        <ele>1661.8</ele>
        <time>2024-08-10T11:55:41Z</time>
      </trkpt>
      <trkpt lat="45.03248" lon="6.35664">
        <ele>1662</ele>
        <time>2024-08-10T11:55:42Z</time>
      </trkpt>
      <trkpt lat="45.03248" lon="6.35664">
        <ele>1662</ele>
        <time>2024-08-10T11:55:43Z</time>
      </trkpt>
      <trkpt lat="45.03247" lon="6.35666">
        <ele>1662.4</ele>
        <time>2024-08-10T11:55:44Z</time>
      </trkpt>
      <trkpt lat="45.03247" lon="6.35666">
        <ele>1662.4</ele>
        <time>2024-08-10T11:55:45Z</time>
      </trkpt>
      <trkpt lat="45.03245" lon="6.35669">
        <ele>1662.4</ele>
        <time>2024-08-10T11:55:46Z</time>
      </trkpt>
      <trkpt lat="45.03245" lon="6.35669">
        <ele>1662.6</ele>
        <time>2024-08-10T11:55:47Z</time>
      </trkpt>
      <trkpt lat="45.03245" lon="6.35672">
        <ele>1662.8</ele>
        <time>2024-08-10T11:55:48Z</time>
      </trkpt>
      <trkpt lat="45.03245" lon="6.35672">
        <ele>1662.8</ele>
        <time>2024-08-10T11:55:49Z</time>
      </trkpt>
      <trkpt lat="45.03245" lon="6.35672">
        <ele>1662.8</ele>
        <time>2024-08-10T11:55:50Z</time>
      </trkpt>
      <trkpt lat="45.03245" lon="6.35675">
        <ele>1662.6</ele>
        <time>2024-08-10T11:55:51Z</time>
      </trkpt>
      <trkpt lat="45.03245" lon="6.35675">
        <ele>1662.6</ele>
        <time>2024-08-10T11:55:52Z</time>
      </trkpt>
      <trkpt lat="45.03245" lon="6.35675">
        <ele>1662.4</ele>
        <time>2024-08-10T11:55:53Z</time>
      </trkpt>
      <trkpt lat="45.03245" lon="6.35675">
        <ele>1662.2</ele>
        <time>2024-08-10T11:55:54Z</time>
      </trkpt>
      <trkpt lat="45.03245" lon="6.35675">
        <ele>1662.2</ele>
        <time>2024-08-10T11:55:55Z</time>
      </trkpt>
      <trkpt lat="45.03245" lon="6.35675">
        <ele>1662.4</ele>
        <time>2024-08-10T11:55:56Z</time>
      </trkpt>
      <trkpt lat="45.03245" lon="6.35675">
        <ele>1662.4</ele>
        <time>2024-08-10T11:55:57Z</time>
      </trkpt>
      <trkpt lat="45.03245" lon="6.35675">
        <ele>1662.6</ele>
        <time>2024-08-10T11:55:58Z</time>
      </trkpt>
      <trkpt lat="45.03245" lon="6.35675">
        <ele>1662.6</ele>
        <time>2024-08-10T11:55:59Z</time>
      </trkpt>
      <trkpt lat="45.03245" lon="6.35675">
        <ele>1662.6</ele>
        <time>2024-08-10T11:56:00Z</time>
      </trkpt>
      <trkpt lat="45.03245" lon="6.35675">
        <ele>1662.6</ele>
        <time>2024-08-10T11:56:01Z</time>
      </trkpt>
      <trkpt lat="45.03245" lon="6.35675">
        <ele>1662.6</ele>
        <time>2024-08-10T11:56:02Z</time>
      </trkpt>
      <trkpt lat="45.03245" lon="6.35675">
        <ele>1662.6</ele>
        <time>2024-08-10T11:56:03Z</time>
      </trkpt>
      <trkpt lat="45.03245" lon="6.35675">
        <ele>1662.6</ele>
        <time>2024-08-10T11:56:04Z</time>
      </trkpt>
      <trkpt lat="45.03245" lon="6.35675">
        <ele>1662.4</ele>
        <time>2024-08-10T11:56:05Z</time>
      </trkpt>
      <trkpt lat="45.03245" lon="6.35675">
        <ele>1662.4</ele>
        <time>2024-08-10T11:56:06Z</time>
      </trkpt>
      <trkpt lat="45.03245" lon="6.35675">
        <ele>1662.4</ele>
        <time>2024-08-10T11:56:07Z</time>
      </trkpt>
      <trkpt lat="45.03245" lon="6.35675">
        <ele>1662.4</ele>
        <time>2024-08-10T11:56:08Z</time>
      </trkpt>
      <trkpt lat="45.03245" lon="6.35675">
        <ele>1662.2</ele>
        <time>2024-08-10T11:56:09Z</time>
      </trkpt>
      <trkpt lat="45.03245" lon="6.35675">
        <ele>1662</ele>
        <time>2024-08-10T11:56:10Z</time>
      </trkpt>
      <trkpt lat="45.03245" lon="6.35675">
        <ele>1662</ele>
        <time>2024-08-10T11:56:11Z</time>
      </trkpt>
      <trkpt lat="45.03245" lon="6.35675">
        <ele>1661.8</ele>
        <time>2024-08-10T11:56:12Z</time>
      </trkpt>
      <trkpt lat="45.03245" lon="6.35675">
        <ele>1661.8</ele>
        <time>2024-08-10T11:56:13Z</time>
      </trkpt>
      <trkpt lat="45.03245" lon="6.35675">
        <ele>1662</ele>
        <time>2024-08-10T11:56:14Z</time>
      </trkpt>
      <trkpt lat="45.03245" lon="6.35675">
        <ele>1662</ele>
        <time>2024-08-10T11:56:15Z</time>
      </trkpt>
      <trkpt lat="45.03245" lon="6.35675">
        <ele>1662</ele>
        <time>2024-08-10T11:56:16Z</time>
      </trkpt>
      <trkpt lat="45.03245" lon="6.35675">
        <ele>1662</ele>
        <time>2024-08-10T11:56:17Z</time>
      </trkpt>
      <trkpt lat="45.03245" lon="6.35675">
        <ele>1662.2</ele>
        <time>2024-08-10T11:56:18Z</time>
      </trkpt>
      <trkpt lat="45.03245" lon="6.35675">
        <ele>1662.2</ele>
        <time>2024-08-10T11:56:19Z</time>
      </trkpt>
      <trkpt lat="45.03245" lon="6.35675">
        <ele>1662.2</ele>
        <time>2024-08-10T11:56:20Z</time>
      </trkpt>
      <trkpt lat="45.03245" lon="6.35675">
        <ele>1662.2</ele>
        <time>2024-08-10T11:56:21Z</time>
      </trkpt>
      <trkpt lat="45.03245" lon="6.35675">
        <ele>1662.4</ele>
        <time>2024-08-10T11:56:22Z</time>
      </trkpt>
      <trkpt lat="45.03245" lon="6.35675">
        <ele>1662.6</ele>
        <time>2024-08-10T11:56:23Z</time>
      </trkpt>
      <trkpt lat="45.03245" lon="6.35675">
        <ele>1663</ele>
        <time>2024-08-10T11:56:24Z</time>
      </trkpt>
      <trkpt lat="45.03245" lon="6.35675">
        <ele>1663</ele>
        <time>2024-08-10T11:56:25Z</time>
      </trkpt>
      <trkpt lat="45.03245" lon="6.35675">
        <ele>1662.8</ele>
        <time>2024-08-10T11:56:26Z</time>
      </trkpt>
      <trkpt lat="45.03245" lon="6.35675">
        <ele>1662.8</ele>
        <time>2024-08-10T11:56:27Z</time>
      </trkpt>
      <trkpt lat="45.03245" lon="6.35675">
        <ele>1662.6</ele>
        <time>2024-08-10T11:56:28Z</time>
      </trkpt>
      <trkpt lat="45.03245" lon="6.35675">
        <ele>1662.6</ele>
        <time>2024-08-10T11:56:29Z</time>
      </trkpt>
      <trkpt lat="45.03245" lon="6.35675">
        <ele>1662.4</ele>
        <time>2024-08-10T11:56:30Z</time>
      </trkpt>
      <trkpt lat="45.03245" lon="6.35675">
        <ele>1662.2</ele>
        <time>2024-08-10T11:56:31Z</time>
      </trkpt>
      <trkpt lat="45.03245" lon="6.35675">
        <ele>1662.2</ele>
        <time>2024-08-10T11:56:32Z</time>
      </trkpt>
      <trkpt lat="45.03245" lon="6.35675">
        <ele>1662.4</ele>
        <time>2024-08-10T11:56:33Z</time>
      </trkpt>
      <trkpt lat="45.03245" lon="6.35675">
        <ele>1662.4</ele>
        <time>2024-08-10T11:56:34Z</time>
      </trkpt>
      <trkpt lat="45.03245" lon="6.35675">
        <ele>1662.4</ele>
        <time>2024-08-10T11:56:35Z</time>
      </trkpt>
      <trkpt lat="45.03245" lon="6.35675">
        <ele>1662.4</ele>
        <time>2024-08-10T11:56:36Z</time>
      </trkpt>
      <trkpt lat="45.03245" lon="6.35675">
        <ele>1662.4</ele>
        <time>2024-08-10T11:56:37Z</time>
      </trkpt>
      <trkpt lat="45.03245" lon="6.35675">
        <ele>1662.4</ele>
        <time>2024-08-10T11:56:38Z</time>
      </trkpt>
      <trkpt lat="45.03245" lon="6.35675">
        <ele>1662.4</ele>
        <time>2024-08-10T11:56:39Z</time>
      </trkpt>
      <trkpt lat="45.03245" lon="6.35675">
        <ele>1662.4</ele>
        <time>2024-08-10T11:56:40Z</time>
      </trkpt>
      <trkpt lat="45.03245" lon="6.35675">
        <ele>1662.4</ele>
        <time>2024-08-10T11:56:41Z</time>
      </trkpt>
      <trkpt lat="45.03245" lon="6.35675">
        <ele>1662.2</ele>
        <time>2024-08-10T11:56:42Z</time>
      </trkpt>
      <trkpt lat="45.03245" lon="6.35675">
        <ele>1662</ele>
        <time>2024-08-10T11:56:43Z</time>
      </trkpt>
      <trkpt lat="45.03245" lon="6.35675">
        <ele>1661.6</ele>
        <time>2024-08-10T11:56:44Z</time>
      </trkpt>
      <trkpt lat="45.03245" lon="6.35675">
        <ele>1661.6</ele>
        <time>2024-08-10T11:56:45Z</time>
      </trkpt>
      <trkpt lat="45.03245" lon="6.35675">
        <ele>1661.6</ele>
        <time>2024-08-10T11:56:46Z</time>
      </trkpt>
      <trkpt lat="45.03245" lon="6.35675">
        <ele>1661.6</ele>
        <time>2024-08-10T11:56:47Z</time>
      </trkpt>
      <trkpt lat="45.03245" lon="6.35675">
        <ele>1662</ele>
        <time>2024-08-10T11:56:48Z</time>
      </trkpt>
      <trkpt lat="45.03245" lon="6.35675">
        <ele>1662.4</ele>
        <time>2024-08-10T11:56:49Z</time>
      </trkpt>
      <trkpt lat="45.03245" lon="6.35675">
        <ele>1662.4</ele>
        <time>2024-08-10T11:56:50Z</time>
      </trkpt>
      <trkpt lat="45.03245" lon="6.35675">
        <ele>1662.4</ele>
        <time>2024-08-10T11:56:51Z</time>
      </trkpt>
      <trkpt lat="45.03245" lon="6.35675">
        <ele>1662.4</ele>
        <time>2024-08-10T11:56:52Z</time>
      </trkpt>
      <trkpt lat="45.03245" lon="6.35675">
        <ele>1662.4</ele>
        <time>2024-08-10T11:56:53Z</time>
      </trkpt>
      <trkpt lat="45.03245" lon="6.35675">
        <ele>1663</ele>
        <time>2024-08-10T11:56:54Z</time>
      </trkpt>
      <trkpt lat="45.03245" lon="6.35675">
        <ele>1663</ele>
        <time>2024-08-10T11:56:55Z</time>
      </trkpt>
      <trkpt lat="45.03245" lon="6.35675">
        <ele>1662.4</ele>
        <time>2024-08-10T11:56:56Z</time>
      </trkpt>
      <trkpt lat="45.03245" lon="6.35675">
        <ele>1662.4</ele>
        <time>2024-08-10T11:56:57Z</time>
      </trkpt>
      <trkpt lat="45.03245" lon="6.35675">
        <ele>1662.4</ele>
        <time>2024-08-10T11:56:58Z</time>
      </trkpt>
      <trkpt lat="45.03245" lon="6.35675">
        <ele>1662.4</ele>
        <time>2024-08-10T11:56:59Z</time>
      </trkpt>
      <trkpt lat="45.03245" lon="6.35675">
        <ele>1662.4</ele>
        <time>2024-08-10T11:57:00Z</time>
      </trkpt>
      <trkpt lat="45.03245" lon="6.35675">
        <ele>1662.4</ele>
        <time>2024-08-10T11:57:01Z</time>
      </trkpt>
      <trkpt lat="45.03245" lon="6.35675">
        <ele>1662.4</ele>
        <time>2024-08-10T11:57:02Z</time>
      </trkpt>
      <trkpt lat="45.03245" lon="6.35675">
        <ele>1662.8</ele>
        <time>2024-08-10T11:57:03Z</time>
      </trkpt>
      <trkpt lat="45.03245" lon="6.35675">
        <ele>1662.8</ele>
        <time>2024-08-10T11:57:04Z</time>
      </trkpt>
      <trkpt lat="45.03245" lon="6.35675">
        <ele>1662.6</ele>
        <time>2024-08-10T11:57:05Z</time>
      </trkpt>
      <trkpt lat="45.03245" lon="6.35675">
        <ele>1662.4</ele>
        <time>2024-08-10T11:57:06Z</time>
      </trkpt>
      <trkpt lat="45.03245" lon="6.35675">
        <ele>1662.4</ele>
        <time>2024-08-10T11:57:07Z</time>
      </trkpt>
      <trkpt lat="45.03245" lon="6.35675">
        <ele>1662.4</ele>
        <time>2024-08-10T11:57:08Z</time>
      </trkpt>
      <trkpt lat="45.03245" lon="6.35675">
        <ele>1662.6</ele>
        <time>2024-08-10T11:57:09Z</time>
      </trkpt>
      <trkpt lat="45.03245" lon="6.35675">
        <ele>1662.6</ele>
        <time>2024-08-10T11:57:10Z</time>
      </trkpt>
      <trkpt lat="45.03245" lon="6.35675">
        <ele>1662.2</ele>
        <time>2024-08-10T11:57:11Z</time>
      </trkpt>
      <trkpt lat="45.03245" lon="6.35675">
        <ele>1662.2</ele>
        <time>2024-08-10T11:57:12Z</time>
      </trkpt>
      <trkpt lat="45.03245" lon="6.35675">
        <ele>1662.2</ele>
        <time>2024-08-10T11:57:13Z</time>
      </trkpt>
      <trkpt lat="45.03245" lon="6.35675">
        <ele>1662.2</ele>
        <time>2024-08-10T11:57:14Z</time>
      </trkpt>
      <trkpt lat="45.03245" lon="6.35675">
        <ele>1662</ele>
        <time>2024-08-10T11:57:15Z</time>
      </trkpt>
      <trkpt lat="45.03245" lon="6.35675">
        <ele>1662</ele>
        <time>2024-08-10T11:57:16Z</time>
      </trkpt>
      <trkpt lat="45.03245" lon="6.35675">
        <ele>1662</ele>
        <time>2024-08-10T11:57:17Z</time>
      </trkpt>
      <trkpt lat="45.03245" lon="6.35675">
        <ele>1662</ele>
        <time>2024-08-10T11:57:18Z</time>
      </trkpt>
      <trkpt lat="45.03245" lon="6.35675">
        <ele>1662.2</ele>
        <time>2024-08-10T11:57:19Z</time>
      </trkpt>
      <trkpt lat="45.03245" lon="6.35675">
        <ele>1662.2</ele>
        <time>2024-08-10T11:57:20Z</time>
      </trkpt>
      <trkpt lat="45.03245" lon="6.35675">
        <ele>1662.4</ele>
        <time>2024-08-10T11:57:21Z</time>
      </trkpt>
      <trkpt lat="45.03245" lon="6.35675">
        <ele>1662.4</ele>
        <time>2024-08-10T11:57:22Z</time>
      </trkpt>
      <trkpt lat="45.03244" lon="6.35678">
        <ele>1662.4</ele>
        <time>2024-08-10T11:57:23Z</time>
      </trkpt>
      <trkpt lat="45.03244" lon="6.35678">
        <ele>1662.4</ele>
        <time>2024-08-10T11:57:24Z</time>
      </trkpt>
      <trkpt lat="45.03243" lon="6.35682">
        <ele>1662.6</ele>
        <time>2024-08-10T11:57:25Z</time>
      </trkpt>
      <trkpt lat="45.03243" lon="6.35682">
        <ele>1662.6</ele>
        <time>2024-08-10T11:57:26Z</time>
      </trkpt>
      <trkpt lat="45.03242" lon="6.35686">
        <ele>1662.4</ele>
        <time>2024-08-10T11:57:27Z</time>
      </trkpt>
      <trkpt lat="45.03242" lon="6.35686">
        <ele>1662.4</ele>
        <time>2024-08-10T11:57:28Z</time>
      </trkpt>
      <trkpt lat="45.03241" lon="6.35689">
        <ele>1662.4</ele>
        <time>2024-08-10T11:57:29Z</time>
      </trkpt>
      <trkpt lat="45.03241" lon="6.35689">
        <ele>1662.4</ele>
        <time>2024-08-10T11:57:30Z</time>
      </trkpt>
      <trkpt lat="45.0324" lon="6.35693">
        <ele>1662.4</ele>
        <time>2024-08-10T11:57:31Z</time>
      </trkpt>
      <trkpt lat="45.0324" lon="6.35693">
        <ele>1662.2</ele>
        <time>2024-08-10T11:57:32Z</time>
      </trkpt>
      <trkpt lat="45.03241" lon="6.35696">
        <ele>1662.2</ele>
        <time>2024-08-10T11:57:33Z</time>
      </trkpt>
      <trkpt lat="45.03241" lon="6.35696">
        <ele>1662.4</ele>
        <time>2024-08-10T11:57:34Z</time>
      </trkpt>
      <trkpt lat="45.0324" lon="6.357">
        <ele>1662.6</ele>
        <time>2024-08-10T11:57:35Z</time>
      </trkpt>
      <trkpt lat="45.0324" lon="6.357">
        <ele>1662.8</ele>
        <time>2024-08-10T11:57:36Z</time>
      </trkpt>
      <trkpt lat="45.0324" lon="6.35703">
        <ele>1662.8</ele>
        <time>2024-08-10T11:57:37Z</time>
      </trkpt>
      <trkpt lat="45.0324" lon="6.35703">
        <ele>1662.6</ele>
        <time>2024-08-10T11:57:38Z</time>
      </trkpt>
      <trkpt lat="45.03239" lon="6.35706">
        <ele>1662.6</ele>
        <time>2024-08-10T11:57:39Z</time>
      </trkpt>
      <trkpt lat="45.03239" lon="6.35706">
        <ele>1662.6</ele>
        <time>2024-08-10T11:57:40Z</time>
      </trkpt>
      <trkpt lat="45.03239" lon="6.35709">
        <ele>1662.6</ele>
        <time>2024-08-10T11:57:41Z</time>
      </trkpt>
      <trkpt lat="45.03239" lon="6.35709">
        <ele>1662.6</ele>
        <time>2024-08-10T11:57:42Z</time>
      </trkpt>
      <trkpt lat="45.03239" lon="6.35713">
        <ele>1662.6</ele>
        <time>2024-08-10T11:57:43Z</time>
      </trkpt>
      <trkpt lat="45.03239" lon="6.35713">
        <ele>1662.4</ele>
        <time>2024-08-10T11:57:44Z</time>
      </trkpt>
      <trkpt lat="45.03238" lon="6.35717">
        <ele>1662.4</ele>
        <time>2024-08-10T11:57:45Z</time>
      </trkpt>
      <trkpt lat="45.03238" lon="6.35717">
        <ele>1662.4</ele>
        <time>2024-08-10T11:57:46Z</time>
      </trkpt>
      <trkpt lat="45.03236" lon="6.3572">
        <ele>1662.4</ele>
        <time>2024-08-10T11:57:47Z</time>
      </trkpt>
      <trkpt lat="45.03236" lon="6.3572">
        <ele>1662.6</ele>
        <time>2024-08-10T11:57:48Z</time>
      </trkpt>
      <trkpt lat="45.03235" lon="6.35722">
        <ele>1662.6</ele>
        <time>2024-08-10T11:57:49Z</time>
      </trkpt>
      <trkpt lat="45.03235" lon="6.35722">
        <ele>1662.6</ele>
        <time>2024-08-10T11:57:50Z</time>
      </trkpt>
      <trkpt lat="45.03233" lon="6.35725">
        <ele>1662.6</ele>
        <time>2024-08-10T11:57:51Z</time>
      </trkpt>
      <trkpt lat="45.03233" lon="6.35725">
        <ele>1662.6</ele>
        <time>2024-08-10T11:57:52Z</time>
      </trkpt>
      <trkpt lat="45.03231" lon="6.35727">
        <ele>1662.6</ele>
        <time>2024-08-10T11:57:53Z</time>
      </trkpt>
      <trkpt lat="45.03231" lon="6.35727">
        <ele>1662.8</ele>
        <time>2024-08-10T11:57:54Z</time>
      </trkpt>
      <trkpt lat="45.03229" lon="6.3573">
        <ele>1662.8</ele>
        <time>2024-08-10T11:57:55Z</time>
      </trkpt>
      <trkpt lat="45.03229" lon="6.3573">
        <ele>1662.8</ele>
        <time>2024-08-10T11:57:56Z</time>
      </trkpt>
      <trkpt lat="45.03228" lon="6.35732">
        <ele>1662.6</ele>
        <time>2024-08-10T11:57:57Z</time>
      </trkpt>
      <trkpt lat="45.03228" lon="6.35732">
        <ele>1662.6</ele>
        <time>2024-08-10T11:57:58Z</time>
      </trkpt>
      <trkpt lat="45.03228" lon="6.35732">
        <ele>1662.6</ele>
        <time>2024-08-10T11:57:59Z</time>
      </trkpt>
      <trkpt lat="45.03227" lon="6.35735">
        <ele>1663</ele>
        <time>2024-08-10T11:58:00Z</time>
      </trkpt>
      <trkpt lat="45.03227" lon="6.35735">
        <ele>1663</ele>
        <time>2024-08-10T11:58:01Z</time>
      </trkpt>
      <trkpt lat="45.03225" lon="6.35737">
        <ele>1663</ele>
        <time>2024-08-10T11:58:02Z</time>
      </trkpt>
      <trkpt lat="45.03225" lon="6.35737">
        <ele>1663</ele>
        <time>2024-08-10T11:58:03Z</time>
      </trkpt>
      <trkpt lat="45.03223" lon="6.3574">
        <ele>1663</ele>
        <time>2024-08-10T11:58:04Z</time>
      </trkpt>
      <trkpt lat="45.03223" lon="6.3574">
        <ele>1663.4</ele>
        <time>2024-08-10T11:58:05Z</time>
      </trkpt>
      <trkpt lat="45.03223" lon="6.3574">
        <ele>1663.4</ele>
        <time>2024-08-10T11:58:06Z</time>
      </trkpt>
      <trkpt lat="45.03221" lon="6.35743">
        <ele>1663.4</ele>
        <time>2024-08-10T11:58:07Z</time>
      </trkpt>
      <trkpt lat="45.03221" lon="6.35743">
        <ele>1663.4</ele>
        <time>2024-08-10T11:58:08Z</time>
      </trkpt>
      <trkpt lat="45.0322" lon="6.35744">
        <ele>1663.6</ele>
        <time>2024-08-10T11:58:09Z</time>
      </trkpt>
      <trkpt lat="45.0322" lon="6.35744">
        <ele>1663.8</ele>
        <time>2024-08-10T11:58:10Z</time>
      </trkpt>
      <trkpt lat="45.03218" lon="6.35746">
        <ele>1663.8</ele>
        <time>2024-08-10T11:58:11Z</time>
      </trkpt>
      <trkpt lat="45.03218" lon="6.35746">
        <ele>1663.8</ele>
        <time>2024-08-10T11:58:12Z</time>
      </trkpt>
      <trkpt lat="45.03216" lon="6.35749">
        <ele>1663.8</ele>
        <time>2024-08-10T11:58:13Z</time>
      </trkpt>
      <trkpt lat="45.03216" lon="6.35749">
        <ele>1663.8</ele>
        <time>2024-08-10T11:58:14Z</time>
      </trkpt>
      <trkpt lat="45.03214" lon="6.35751">
        <ele>1663.8</ele>
        <time>2024-08-10T11:58:15Z</time>
      </trkpt>
      <trkpt lat="45.03214" lon="6.35751">
        <ele>1663.8</ele>
        <time>2024-08-10T11:58:16Z</time>
      </trkpt>
      <trkpt lat="45.03213" lon="6.35753">
        <ele>1663.8</ele>
        <time>2024-08-10T11:58:17Z</time>
      </trkpt>
      <trkpt lat="45.03213" lon="6.35753">
        <ele>1663.6</ele>
        <time>2024-08-10T11:58:18Z</time>
      </trkpt>
      <trkpt lat="45.03211" lon="6.35756">
        <ele>1663.6</ele>
        <time>2024-08-10T11:58:19Z</time>
      </trkpt>
      <trkpt lat="45.03211" lon="6.35756">
        <ele>1663.6</ele>
        <time>2024-08-10T11:58:20Z</time>
      </trkpt>
      <trkpt lat="45.03209" lon="6.35759">
        <ele>1663.8</ele>
        <time>2024-08-10T11:58:21Z</time>
      </trkpt>
      <trkpt lat="45.03209" lon="6.35759">
        <ele>1663.8</ele>
        <time>2024-08-10T11:58:22Z</time>
      </trkpt>
      <trkpt lat="45.03208" lon="6.35762">
        <ele>1663.6</ele>
        <time>2024-08-10T11:58:23Z</time>
      </trkpt>
      <trkpt lat="45.03208" lon="6.35762">
        <ele>1663.6</ele>
        <time>2024-08-10T11:58:24Z</time>
      </trkpt>
      <trkpt lat="45.03207" lon="6.35765">
        <ele>1663.4</ele>
        <time>2024-08-10T11:58:25Z</time>
      </trkpt>
      <trkpt lat="45.03207" lon="6.35765">
        <ele>1663.4</ele>
        <time>2024-08-10T11:58:26Z</time>
      </trkpt>
      <trkpt lat="45.03206" lon="6.35768">
        <ele>1663.4</ele>
        <time>2024-08-10T11:58:27Z</time>
      </trkpt>
      <trkpt lat="45.03206" lon="6.35768">
        <ele>1663.4</ele>
        <time>2024-08-10T11:58:28Z</time>
      </trkpt>
      <trkpt lat="45.03205" lon="6.3577">
        <ele>1663.4</ele>
        <time>2024-08-10T11:58:29Z</time>
      </trkpt>
      <trkpt lat="45.03205" lon="6.3577">
        <ele>1663.4</ele>
        <time>2024-08-10T11:58:30Z</time>
      </trkpt>
      <trkpt lat="45.03204" lon="6.35773">
        <ele>1663.6</ele>
        <time>2024-08-10T11:58:31Z</time>
      </trkpt>
      <trkpt lat="45.03204" lon="6.35773">
        <ele>1663.6</ele>
        <time>2024-08-10T11:58:32Z</time>
      </trkpt>
      <trkpt lat="45.03203" lon="6.35776">
        <ele>1663.6</ele>
        <time>2024-08-10T11:58:33Z</time>
      </trkpt>
      <trkpt lat="45.03203" lon="6.35776">
        <ele>1663.6</ele>
        <time>2024-08-10T11:58:34Z</time>
      </trkpt>
      <trkpt lat="45.03201" lon="6.35779">
        <ele>1663.6</ele>
        <time>2024-08-10T11:58:35Z</time>
      </trkpt>
      <trkpt lat="45.03201" lon="6.35779">
        <ele>1664</ele>
        <time>2024-08-10T11:58:36Z</time>
      </trkpt>
      <trkpt lat="45.03201" lon="6.35782">
        <ele>1664</ele>
        <time>2024-08-10T11:58:37Z</time>
      </trkpt>
      <trkpt lat="45.03201" lon="6.35782">
        <ele>1664</ele>
        <time>2024-08-10T11:58:38Z</time>
      </trkpt>
      <trkpt lat="45.032" lon="6.35785">
        <ele>1663.8</ele>
        <time>2024-08-10T11:58:39Z</time>
      </trkpt>
      <trkpt lat="45.032" lon="6.35785">
        <ele>1663.8</ele>
        <time>2024-08-10T11:58:40Z</time>
      </trkpt>
      <trkpt lat="45.03199" lon="6.35789">
        <ele>1664</ele>
        <time>2024-08-10T11:58:41Z</time>
      </trkpt>
      <trkpt lat="45.03199" lon="6.35789">
        <ele>1664</ele>
        <time>2024-08-10T11:58:42Z</time>
      </trkpt>
      <trkpt lat="45.03199" lon="6.35792">
        <ele>1664.2</ele>
        <time>2024-08-10T11:58:43Z</time>
      </trkpt>
      <trkpt lat="45.03199" lon="6.35792">
        <ele>1664.2</ele>
        <time>2024-08-10T11:58:44Z</time>
      </trkpt>
      <trkpt lat="45.03198" lon="6.35795">
        <ele>1664.2</ele>
        <time>2024-08-10T11:58:45Z</time>
      </trkpt>
      <trkpt lat="45.03198" lon="6.35795">
        <ele>1664.2</ele>
        <time>2024-08-10T11:58:46Z</time>
      </trkpt>
      <trkpt lat="45.03197" lon="6.35798">
        <ele>1664.2</ele>
        <time>2024-08-10T11:58:47Z</time>
      </trkpt>
      <trkpt lat="45.03197" lon="6.35798">
        <ele>1664</ele>
        <time>2024-08-10T11:58:48Z</time>
      </trkpt>
      <trkpt lat="45.03197" lon="6.35801">
        <ele>1664</ele>
        <time>2024-08-10T11:58:49Z</time>
      </trkpt>
      <trkpt lat="45.03197" lon="6.35801">
        <ele>1664</ele>
        <time>2024-08-10T11:58:50Z</time>
      </trkpt>
      <trkpt lat="45.03196" lon="6.35804">
        <ele>1663.6</ele>
        <time>2024-08-10T11:58:51Z</time>
      </trkpt>
      <trkpt lat="45.03196" lon="6.35804">
        <ele>1663.6</ele>
        <time>2024-08-10T11:58:52Z</time>
      </trkpt>
      <trkpt lat="45.03196" lon="6.35808">
        <ele>1663.8</ele>
        <time>2024-08-10T11:58:53Z</time>
      </trkpt>
      <trkpt lat="45.03196" lon="6.35808">
        <ele>1663.8</ele>
        <time>2024-08-10T11:58:54Z</time>
      </trkpt>
      <trkpt lat="45.03195" lon="6.35811">
        <ele>1663.8</ele>
        <time>2024-08-10T11:58:55Z</time>
      </trkpt>
      <trkpt lat="45.03195" lon="6.35811">
        <ele>1663.8</ele>
        <time>2024-08-10T11:58:56Z</time>
      </trkpt>
      <trkpt lat="45.03195" lon="6.35814">
        <ele>1663.8</ele>
        <time>2024-08-10T11:58:57Z</time>
      </trkpt>
      <trkpt lat="45.03195" lon="6.35814">
        <ele>1663.8</ele>
        <time>2024-08-10T11:58:58Z</time>
      </trkpt>
      <trkpt lat="45.03193" lon="6.35817">
        <ele>1663.8</ele>
        <time>2024-08-10T11:58:59Z</time>
      </trkpt>
      <trkpt lat="45.03193" lon="6.35817">
        <ele>1664</ele>
        <time>2024-08-10T11:59:00Z</time>
      </trkpt>
      <trkpt lat="45.03193" lon="6.35817">
        <ele>1664</ele>
        <time>2024-08-10T11:59:01Z</time>
      </trkpt>
      <trkpt lat="45.03192" lon="6.35819">
        <ele>1664.2</ele>
        <time>2024-08-10T11:59:02Z</time>
      </trkpt>
      <trkpt lat="45.03192" lon="6.35819">
        <ele>1664.2</ele>
        <time>2024-08-10T11:59:03Z</time>
      </trkpt>
      <trkpt lat="45.03193" lon="6.35822">
        <ele>1664.2</ele>
        <time>2024-08-10T11:59:04Z</time>
      </trkpt>
      <trkpt lat="45.03193" lon="6.35822">
        <ele>1664.4</ele>
        <time>2024-08-10T11:59:05Z</time>
      </trkpt>
      <trkpt lat="45.03195" lon="6.35823">
        <ele>1664.8</ele>
        <time>2024-08-10T11:59:06Z</time>
      </trkpt>
      <trkpt lat="45.03195" lon="6.35823">
        <ele>1664.8</ele>
        <time>2024-08-10T11:59:07Z</time>
      </trkpt>
      <trkpt lat="45.03197" lon="6.35824">
        <ele>1664.6</ele>
        <time>2024-08-10T11:59:08Z</time>
      </trkpt>
      <trkpt lat="45.03197" lon="6.35824">
        <ele>1664.4</ele>
        <time>2024-08-10T11:59:09Z</time>
      </trkpt>
      <trkpt lat="45.032" lon="6.35825">
        <ele>1664.4</ele>
        <time>2024-08-10T11:59:10Z</time>
      </trkpt>
      <trkpt lat="45.032" lon="6.35825">
        <ele>1664.4</ele>
        <time>2024-08-10T11:59:11Z</time>
      </trkpt>
      <trkpt lat="45.03202" lon="6.35826">
        <ele>1664.4</ele>
        <time>2024-08-10T11:59:12Z</time>
      </trkpt>
      <trkpt lat="45.03202" lon="6.35826">
        <ele>1664.4</ele>
        <time>2024-08-10T11:59:13Z</time>
      </trkpt>
      <trkpt lat="45.03205" lon="6.35827">
        <ele>1664.4</ele>
        <time>2024-08-10T11:59:14Z</time>
      </trkpt>
      <trkpt lat="45.03205" lon="6.35827">
        <ele>1664.6</ele>
        <time>2024-08-10T11:59:15Z</time>
      </trkpt>
      <trkpt lat="45.03206" lon="6.3583">
        <ele>1664.6</ele>
        <time>2024-08-10T11:59:16Z</time>
      </trkpt>
      <trkpt lat="45.03206" lon="6.3583">
        <ele>1664.4</ele>
        <time>2024-08-10T11:59:17Z</time>
      </trkpt>
      <trkpt lat="45.03207" lon="6.35832">
        <ele>1664.2</ele>
        <time>2024-08-10T11:59:18Z</time>
      </trkpt>
      <trkpt lat="45.03207" lon="6.35832">
        <ele>1664.2</ele>
        <time>2024-08-10T11:59:19Z</time>
      </trkpt>
      <trkpt lat="45.03208" lon="6.35835">
        <ele>1664.2</ele>
        <time>2024-08-10T11:59:20Z</time>
      </trkpt>
      <trkpt lat="45.03208" lon="6.35835">
        <ele>1664.2</ele>
        <time>2024-08-10T11:59:21Z</time>
      </trkpt>
      <trkpt lat="45.03208" lon="6.35835">
        <ele>1664.4</ele>
        <time>2024-08-10T11:59:22Z</time>
      </trkpt>
      <trkpt lat="45.0321" lon="6.35836">
        <ele>1664.2</ele>
        <time>2024-08-10T11:59:23Z</time>
      </trkpt>
      <trkpt lat="45.0321" lon="6.35836">
        <ele>1664.2</ele>
        <time>2024-08-10T11:59:24Z</time>
      </trkpt>
      <trkpt lat="45.03212" lon="6.35835">
        <ele>1664</ele>
        <time>2024-08-10T11:59:25Z</time>
      </trkpt>
      <trkpt lat="45.03212" lon="6.35835">
        <ele>1664</ele>
        <time>2024-08-10T11:59:26Z</time>
      </trkpt>
      <trkpt lat="45.03214" lon="6.35835">
        <ele>1664.2</ele>
        <time>2024-08-10T11:59:27Z</time>
      </trkpt>
      <trkpt lat="45.03214" lon="6.35835">
        <ele>1664.2</ele>
        <time>2024-08-10T11:59:28Z</time>
      </trkpt>
      <trkpt lat="45.03216" lon="6.35835">
        <ele>1664.2</ele>
        <time>2024-08-10T11:59:29Z</time>
      </trkpt>
      <trkpt lat="45.03216" lon="6.35835">
        <ele>1664.2</ele>
        <time>2024-08-10T11:59:30Z</time>
      </trkpt>
      <trkpt lat="45.03219" lon="6.35835">
        <ele>1664.4</ele>
        <time>2024-08-10T11:59:31Z</time>
      </trkpt>
      <trkpt lat="45.03219" lon="6.35835">
        <ele>1664.4</ele>
        <time>2024-08-10T11:59:32Z</time>
      </trkpt>
      <trkpt lat="45.03221" lon="6.35834">
        <ele>1664.2</ele>
        <time>2024-08-10T11:59:33Z</time>
      </trkpt>
      <trkpt lat="45.03221" lon="6.35834">
        <ele>1664.2</ele>
        <time>2024-08-10T11:59:34Z</time>
      </trkpt>
      <trkpt lat="45.03223" lon="6.35833">
        <ele>1664</ele>
        <time>2024-08-10T11:59:35Z</time>
      </trkpt>
      <trkpt lat="45.03223" lon="6.35833">
        <ele>1664</ele>
        <time>2024-08-10T11:59:36Z</time>
      </trkpt>
      <trkpt lat="45.03225" lon="6.35831">
        <ele>1664.2</ele>
        <time>2024-08-10T11:59:37Z</time>
      </trkpt>
      <trkpt lat="45.03225" lon="6.35831">
        <ele>1664.2</ele>
        <time>2024-08-10T11:59:38Z</time>
      </trkpt>
      <trkpt lat="45.03227" lon="6.35828">
        <ele>1664</ele>
        <time>2024-08-10T11:59:39Z</time>
      </trkpt>
      <trkpt lat="45.03227" lon="6.35828">
        <ele>1664</ele>
        <time>2024-08-10T11:59:40Z</time>
      </trkpt>
      <trkpt lat="45.03229" lon="6.35825">
        <ele>1664</ele>
        <time>2024-08-10T11:59:41Z</time>
      </trkpt>
      <trkpt lat="45.03229" lon="6.35825">
        <ele>1664.2</ele>
        <time>2024-08-10T11:59:42Z</time>
      </trkpt>
      <trkpt lat="45.03229" lon="6.35822">
        <ele>1664.4</ele>
        <time>2024-08-10T11:59:43Z</time>
      </trkpt>
      <trkpt lat="45.03229" lon="6.35822">
        <ele>1664.6</ele>
        <time>2024-08-10T11:59:44Z</time>
      </trkpt>
      <trkpt lat="45.0323" lon="6.35819">
        <ele>1664.6</ele>
        <time>2024-08-10T11:59:45Z</time>
      </trkpt>
      <trkpt lat="45.0323" lon="6.35819">
        <ele>1664.4</ele>
        <time>2024-08-10T11:59:46Z</time>
      </trkpt>
      <trkpt lat="45.03231" lon="6.35815">
        <ele>1664.2</ele>
        <time>2024-08-10T11:59:47Z</time>
      </trkpt>
      <trkpt lat="45.03231" lon="6.35815">
        <ele>1664</ele>
        <time>2024-08-10T11:59:48Z</time>
      </trkpt>
      <trkpt lat="45.03231" lon="6.35812">
        <ele>1664</ele>
        <time>2024-08-10T11:59:49Z</time>
      </trkpt>
      <trkpt lat="45.03231" lon="6.35812">
        <ele>1663.8</ele>
        <time>2024-08-10T11:59:50Z</time>
      </trkpt>
      <trkpt lat="45.0323" lon="6.35809">
        <ele>1663.8</ele>
        <time>2024-08-10T11:59:51Z</time>
      </trkpt>
      <trkpt lat="45.0323" lon="6.35809">
        <ele>1663.8</ele>
        <time>2024-08-10T11:59:52Z</time>
      </trkpt>
      <trkpt lat="45.0323" lon="6.35805">
        <ele>1663.8</ele>
        <time>2024-08-10T11:59:53Z</time>
      </trkpt>
      <trkpt lat="45.0323" lon="6.35805">
        <ele>1663.8</ele>
        <time>2024-08-10T11:59:54Z</time>
      </trkpt>
      <trkpt lat="45.03231" lon="6.35802">
        <ele>1663.8</ele>
        <time>2024-08-10T11:59:55Z</time>
      </trkpt>
      <trkpt lat="45.03231" lon="6.35802">
        <ele>1663.8</ele>
        <time>2024-08-10T11:59:56Z</time>
      </trkpt>
      <trkpt lat="45.03231" lon="6.35799">
        <ele>1663.6</ele>
        <time>2024-08-10T11:59:57Z</time>
      </trkpt>
      <trkpt lat="45.03231" lon="6.35799">
        <ele>1663.4</ele>
        <time>2024-08-10T11:59:58Z</time>
      </trkpt>
      <trkpt lat="45.03231" lon="6.35796">
        <ele>1663.4</ele>
        <time>2024-08-10T11:59:59Z</time>
      </trkpt>
      <trkpt lat="45.03231" lon="6.35796">
        <ele>1663.4</ele>
        <time>2024-08-10T12:00:00Z</time>
      </trkpt>
      <trkpt lat="45.03231" lon="6.35796">
        <ele>1663.4</ele>
        <time>2024-08-10T12:00:01Z</time>
      </trkpt>
      <trkpt lat="45.03231" lon="6.35796">
        <ele>1663.4</ele>
        <time>2024-08-10T12:00:02Z</time>
      </trkpt>
      <trkpt lat="45.03231" lon="6.35796">
        <ele>1663.4</ele>
        <time>2024-08-10T12:00:03Z</time>
      </trkpt>
      <trkpt lat="45.03231" lon="6.35796">
        <ele>1663.4</ele>
        <time>2024-08-10T12:00:04Z</time>
      </trkpt>
      <trkpt lat="45.03231" lon="6.35799">
        <ele>1663.4</ele>
        <time>2024-08-10T12:00:05Z</time>
      </trkpt>
      <trkpt lat="45.03231" lon="6.35799">
        <ele>1663.4</ele>
        <time>2024-08-10T12:00:06Z</time>
      </trkpt>
      <trkpt lat="45.03231" lon="6.35804">
        <ele>1663.4</ele>
        <time>2024-08-10T12:00:07Z</time>
      </trkpt>
      <trkpt lat="45.03231" lon="6.35804">
        <ele>1663.4</ele>
        <time>2024-08-10T12:00:08Z</time>
      </trkpt>
      <trkpt lat="45.03231" lon="6.35808">
        <ele>1663.4</ele>
        <time>2024-08-10T12:00:09Z</time>
      </trkpt>
      <trkpt lat="45.03231" lon="6.35808">
        <ele>1663.4</ele>
        <time>2024-08-10T12:00:10Z</time>
      </trkpt>
      <trkpt lat="45.03231" lon="6.35812">
        <ele>1663.4</ele>
        <time>2024-08-10T12:00:11Z</time>
      </trkpt>
      <trkpt lat="45.03231" lon="6.35812">
        <ele>1663.4</ele>
        <time>2024-08-10T12:00:12Z</time>
      </trkpt>
      <trkpt lat="45.0323" lon="6.35815">
        <ele>1663.4</ele>
        <time>2024-08-10T12:00:13Z</time>
      </trkpt>
      <trkpt lat="45.0323" lon="6.35815">
        <ele>1663.2</ele>
        <time>2024-08-10T12:00:14Z</time>
      </trkpt>
      <trkpt lat="45.03229" lon="6.35819">
        <ele>1663</ele>
        <time>2024-08-10T12:00:15Z</time>
      </trkpt>
      <trkpt lat="45.03229" lon="6.35819">
        <ele>1663</ele>
        <time>2024-08-10T12:00:16Z</time>
      </trkpt>
      <trkpt lat="45.03229" lon="6.35823">
        <ele>1663</ele>
        <time>2024-08-10T12:00:17Z</time>
      </trkpt>
      <trkpt lat="45.03229" lon="6.35823">
        <ele>1663.2</ele>
        <time>2024-08-10T12:00:18Z</time>
      </trkpt>
      <trkpt lat="45.03229" lon="6.35826">
        <ele>1663.2</ele>
        <time>2024-08-10T12:00:19Z</time>
      </trkpt>
      <trkpt lat="45.03229" lon="6.35826">
        <ele>1663.4</ele>
        <time>2024-08-10T12:00:20Z</time>
      </trkpt>
      <trkpt lat="45.03229" lon="6.3583">
        <ele>1663.4</ele>
        <time>2024-08-10T12:00:21Z</time>
      </trkpt>
      <trkpt lat="45.03229" lon="6.3583">
        <ele>1663.2</ele>
        <time>2024-08-10T12:00:22Z</time>
      </trkpt>
      <trkpt lat="45.03229" lon="6.35833">
        <ele>1663.2</ele>
        <time>2024-08-10T12:00:23Z</time>
      </trkpt>
      <trkpt lat="45.03229" lon="6.35833">
        <ele>1663.2</ele>
        <time>2024-08-10T12:00:24Z</time>
      </trkpt>
      <trkpt lat="45.03228" lon="6.35837">
        <ele>1663.2</ele>
        <time>2024-08-10T12:00:25Z</time>
      </trkpt>
      <trkpt lat="45.03228" lon="6.35837">
        <ele>1663.2</ele>
        <time>2024-08-10T12:00:26Z</time>
      </trkpt>
      <trkpt lat="45.03228" lon="6.3584">
        <ele>1663.2</ele>
        <time>2024-08-10T12:00:27Z</time>
      </trkpt>
      <trkpt lat="45.03228" lon="6.3584">
        <ele>1663.4</ele>
        <time>2024-08-10T12:00:28Z</time>
      </trkpt>
      <trkpt lat="45.03229" lon="6.35843">
        <ele>1663.4</ele>
        <time>2024-08-10T12:00:29Z</time>
      </trkpt>
      <trkpt lat="45.03229" lon="6.35843">
        <ele>1663.4</ele>
        <time>2024-08-10T12:00:30Z</time>
      </trkpt>
      <trkpt lat="45.0323" lon="6.35846">
        <ele>1663.4</ele>
        <time>2024-08-10T12:00:31Z</time>
      </trkpt>
      <trkpt lat="45.0323" lon="6.35846">
        <ele>1663.4</ele>
        <time>2024-08-10T12:00:32Z</time>
      </trkpt>
      <trkpt lat="45.03232" lon="6.35848">
        <ele>1663.8</ele>
        <time>2024-08-10T12:00:33Z</time>
      </trkpt>
      <trkpt lat="45.03232" lon="6.35848">
        <ele>1663.8</ele>
        <time>2024-08-10T12:00:34Z</time>
      </trkpt>
      <trkpt lat="45.03234" lon="6.3585">
        <ele>1663.4</ele>
        <time>2024-08-10T12:00:35Z</time>
      </trkpt>
      <trkpt lat="45.03234" lon="6.3585">
        <ele>1663.4</ele>
        <time>2024-08-10T12:00:36Z</time>
      </trkpt>
      <trkpt lat="45.03236" lon="6.35852">
        <ele>1663.6</ele>
        <time>2024-08-10T12:00:37Z</time>
      </trkpt>
      <trkpt lat="45.03236" lon="6.35852">
        <ele>1663.8</ele>
        <time>2024-08-10T12:00:38Z</time>
      </trkpt>
      <trkpt lat="45.03236" lon="6.35852">
        <ele>1663.8</ele>
        <time>2024-08-10T12:00:39Z</time>
      </trkpt>
      <trkpt lat="45.03239" lon="6.35854">
        <ele>1664</ele>
        <time>2024-08-10T12:00:40Z</time>
      </trkpt>
      <trkpt lat="45.03239" lon="6.35854">
        <ele>1664</ele>
        <time>2024-08-10T12:00:41Z</time>
      </trkpt>
      <trkpt lat="45.0324" lon="6.35856">
        <ele>1664</ele>
        <time>2024-08-10T12:00:42Z</time>
      </trkpt>
      <trkpt lat="45.0324" lon="6.35856">
        <ele>1664</ele>
        <time>2024-08-10T12:00:43Z</time>
      </trkpt>
      <trkpt lat="45.0324" lon="6.35856">
        <ele>1664</ele>
        <time>2024-08-10T12:00:44Z</time>
      </trkpt>
      <trkpt lat="45.0324" lon="6.35856">
        <ele>1664</ele>
        <time>2024-08-10T12:00:45Z</time>
      </trkpt>
      <trkpt lat="45.0324" lon="6.35856">
        <ele>1664</ele>
        <time>2024-08-10T12:00:46Z</time>
      </trkpt>
      <trkpt lat="45.0324" lon="6.35856">
        <ele>1664.2</ele>
        <time>2024-08-10T12:00:47Z</time>
      </trkpt>
      <trkpt lat="45.0324" lon="6.35856">
        <ele>1664.2</ele>
        <time>2024-08-10T12:00:48Z</time>
      </trkpt>
      <trkpt lat="45.0324" lon="6.35856">
        <ele>1664.2</ele>
        <time>2024-08-10T12:00:49Z</time>
      </trkpt>
      <trkpt lat="45.0324" lon="6.35856">
        <ele>1664.4</ele>
        <time>2024-08-10T12:00:50Z</time>
      </trkpt>
      <trkpt lat="45.0324" lon="6.35856">
        <ele>1664.4</ele>
        <time>2024-08-10T12:00:51Z</time>
      </trkpt>
      <trkpt lat="45.0324" lon="6.35856">
        <ele>1664.4</ele>
        <time>2024-08-10T12:00:52Z</time>
      </trkpt>
      <trkpt lat="45.0324" lon="6.35856">
        <ele>1664.2</ele>
        <time>2024-08-10T12:00:53Z</time>
      </trkpt>
      <trkpt lat="45.03239" lon="6.35859">
        <ele>1664.2</ele>
        <time>2024-08-10T12:00:54Z</time>
      </trkpt>
      <trkpt lat="45.03239" lon="6.35859">
        <ele>1664.2</ele>
        <time>2024-08-10T12:00:55Z</time>
      </trkpt>
      <trkpt lat="45.03237" lon="6.35862">
        <ele>1664.6</ele>
        <time>2024-08-10T12:00:56Z</time>
      </trkpt>
      <trkpt lat="45.03237" lon="6.35862">
        <ele>1664.6</ele>
        <time>2024-08-10T12:00:57Z</time>
      </trkpt>
      <trkpt lat="45.03234" lon="6.35865">
        <ele>1664.2</ele>
        <time>2024-08-10T12:00:58Z</time>
      </trkpt>
      <trkpt lat="45.03233" lon="6.35867">
        <ele>1664</ele>
        <time>2024-08-10T12:00:59Z</time>
      </trkpt>
      <trkpt lat="45.03231" lon="6.35869">
        <ele>1664</ele>
        <time>2024-08-10T12:01:00Z</time>
      </trkpt>
      <trkpt lat="45.03231" lon="6.35869">
        <ele>1664</ele>
        <time>2024-08-10T12:01:01Z</time>
      </trkpt>
      <trkpt lat="45.0323" lon="6.35872">
        <ele>1664.4</ele>
        <time>2024-08-10T12:01:02Z</time>
      </trkpt>
      <trkpt lat="45.0323" lon="6.35872">
        <ele>1664.2</ele>
        <time>2024-08-10T12:01:03Z</time>
      </trkpt>
      <trkpt lat="45.03229" lon="6.35876">
        <ele>1664.2</ele>
        <time>2024-08-10T12:01:04Z</time>
      </trkpt>
      <trkpt lat="45.03229" lon="6.35876">
        <ele>1664.2</ele>
        <time>2024-08-10T12:01:05Z</time>
      </trkpt>
      <trkpt lat="45.03228" lon="6.35879">
        <ele>1664.2</ele>
        <time>2024-08-10T12:01:06Z</time>
      </trkpt>
      <trkpt lat="45.03228" lon="6.35879">
        <ele>1664.2</ele>
        <time>2024-08-10T12:01:07Z</time>
      </trkpt>
      <trkpt lat="45.03227" lon="6.35883">
        <ele>1664.2</ele>
        <time>2024-08-10T12:01:08Z</time>
      </trkpt>
      <trkpt lat="45.03227" lon="6.35883">
        <ele>1664.2</ele>
        <time>2024-08-10T12:01:09Z</time>
      </trkpt>
      <trkpt lat="45.03225" lon="6.35887">
        <ele>1664</ele>
        <time>2024-08-10T12:01:10Z</time>
      </trkpt>
      <trkpt lat="45.03225" lon="6.35887">
        <ele>1664</ele>
        <time>2024-08-10T12:01:11Z</time>
      </trkpt>
      <trkpt lat="45.03225" lon="6.3589">
        <ele>1664</ele>
        <time>2024-08-10T12:01:12Z</time>
      </trkpt>
      <trkpt lat="45.03225" lon="6.3589">
        <ele>1664</ele>
        <time>2024-08-10T12:01:13Z</time>
      </trkpt>
      <trkpt lat="45.03224" lon="6.35894">
        <ele>1663.8</ele>
        <time>2024-08-10T12:01:14Z</time>
      </trkpt>
      <trkpt lat="45.03224" lon="6.35894">
        <ele>1663.8</ele>
        <time>2024-08-10T12:01:15Z</time>
      </trkpt>
      <trkpt lat="45.03223" lon="6.35898">
        <ele>1663.8</ele>
        <time>2024-08-10T12:01:16Z</time>
      </trkpt>
      <trkpt lat="45.03223" lon="6.35898">
        <ele>1663.8</ele>
        <time>2024-08-10T12:01:17Z</time>
      </trkpt>
      <trkpt lat="45.03222" lon="6.35902">
        <ele>1663.8</ele>
        <time>2024-08-10T12:01:18Z</time>
      </trkpt>
      <trkpt lat="45.03222" lon="6.35902">
        <ele>1663.8</ele>
        <time>2024-08-10T12:01:19Z</time>
      </trkpt>
      <trkpt lat="45.03222" lon="6.35906">
        <ele>1663.8</ele>
        <time>2024-08-10T12:01:20Z</time>
      </trkpt>
      <trkpt lat="45.03222" lon="6.35906">
        <ele>1663.8</ele>
        <time>2024-08-10T12:01:21Z</time>
      </trkpt>
      <trkpt lat="45.03221" lon="6.3591">
        <ele>1663.8</ele>
        <time>2024-08-10T12:01:22Z</time>
      </trkpt>
      <trkpt lat="45.03221" lon="6.3591">
        <ele>1663.8</ele>
        <time>2024-08-10T12:01:23Z</time>
      </trkpt>
      <trkpt lat="45.03221" lon="6.35913">
        <ele>1663.6</ele>
        <time>2024-08-10T12:01:24Z</time>
      </trkpt>
      <trkpt lat="45.03221" lon="6.35913">
        <ele>1663.6</ele>
        <time>2024-08-10T12:01:25Z</time>
      </trkpt>
      <trkpt lat="45.0322" lon="6.35917">
        <ele>1663.6</ele>
        <time>2024-08-10T12:01:26Z</time>
      </trkpt>
      <trkpt lat="45.0322" lon="6.35917">
        <ele>1663.8</ele>
        <time>2024-08-10T12:01:27Z</time>
      </trkpt>
      <trkpt lat="45.0322" lon="6.35921">
        <ele>1663.8</ele>
        <time>2024-08-10T12:01:28Z</time>
      </trkpt>
      <trkpt lat="45.0322" lon="6.35921">
        <ele>1663.8</ele>
        <time>2024-08-10T12:01:29Z</time>
      </trkpt>
      <trkpt lat="45.0322" lon="6.35925">
        <ele>1663.8</ele>
        <time>2024-08-10T12:01:30Z</time>
      </trkpt>
      <trkpt lat="45.0322" lon="6.35925">
        <ele>1663.8</ele>
        <time>2024-08-10T12:01:31Z</time>
      </trkpt>
      <trkpt lat="45.0322" lon="6.35929">
        <ele>1663.6</ele>
        <time>2024-08-10T12:01:32Z</time>
      </trkpt>
      <trkpt lat="45.0322" lon="6.35929">
        <ele>1663.6</ele>
        <time>2024-08-10T12:01:33Z</time>
      </trkpt>
      <trkpt lat="45.0322" lon="6.35933">
        <ele>1663.8</ele>
        <time>2024-08-10T12:01:34Z</time>
      </trkpt>
      <trkpt lat="45.0322" lon="6.35933">
        <ele>1663.8</ele>
        <time>2024-08-10T12:01:35Z</time>
      </trkpt>
      <trkpt lat="45.03219" lon="6.35937">
        <ele>1663.6</ele>
        <time>2024-08-10T12:01:36Z</time>
      </trkpt>
      <trkpt lat="45.03219" lon="6.35937">
        <ele>1663.6</ele>
        <time>2024-08-10T12:01:37Z</time>
      </trkpt>
      <trkpt lat="45.03219" lon="6.35941">
        <ele>1663.6</ele>
        <time>2024-08-10T12:01:38Z</time>
      </trkpt>
      <trkpt lat="45.03219" lon="6.35941">
        <ele>1663.8</ele>
        <time>2024-08-10T12:01:39Z</time>
      </trkpt>
      <trkpt lat="45.03218" lon="6.35945">
        <ele>1664.2</ele>
        <time>2024-08-10T12:01:40Z</time>
      </trkpt>
      <trkpt lat="45.03218" lon="6.35945">
        <ele>1664.4</ele>
        <time>2024-08-10T12:01:41Z</time>
      </trkpt>
      <trkpt lat="45.03217" lon="6.35949">
        <ele>1664.4</ele>
        <time>2024-08-10T12:01:42Z</time>
      </trkpt>
      <trkpt lat="45.03217" lon="6.35949">
        <ele>1664.6</ele>
        <time>2024-08-10T12:01:43Z</time>
      </trkpt>
      <trkpt lat="45.03217" lon="6.35953">
        <ele>1664.8</ele>
        <time>2024-08-10T12:01:44Z</time>
      </trkpt>
      <trkpt lat="45.03217" lon="6.35953">
        <ele>1664.8</ele>
        <time>2024-08-10T12:01:45Z</time>
      </trkpt>
      <trkpt lat="45.03217" lon="6.35957">
        <ele>1664.8</ele>
        <time>2024-08-10T12:01:46Z</time>
      </trkpt>
      <trkpt lat="45.03217" lon="6.35957">
        <ele>1664.8</ele>
        <time>2024-08-10T12:01:47Z</time>
      </trkpt>
      <trkpt lat="45.03217" lon="6.35961">
        <ele>1664.6</ele>
        <time>2024-08-10T12:01:48Z</time>
      </trkpt>
      <trkpt lat="45.03217" lon="6.35961">
        <ele>1664.4</ele>
        <time>2024-08-10T12:01:49Z</time>
      </trkpt>
      <trkpt lat="45.03216" lon="6.35965">
        <ele>1664.4</ele>
        <time>2024-08-10T12:01:50Z</time>
      </trkpt>
      <trkpt lat="45.03216" lon="6.35965">
        <ele>1664.2</ele>
        <time>2024-08-10T12:01:51Z</time>
      </trkpt>
      <trkpt lat="45.03216" lon="6.35968">
        <ele>1664.2</ele>
        <time>2024-08-10T12:01:52Z</time>
      </trkpt>
      <trkpt lat="45.03216" lon="6.35968">
        <ele>1664.4</ele>
        <time>2024-08-10T12:01:53Z</time>
      </trkpt>
      <trkpt lat="45.03216" lon="6.35972">
        <ele>1664.6</ele>
        <time>2024-08-10T12:01:54Z</time>
      </trkpt>
      <trkpt lat="45.03216" lon="6.35972">
        <ele>1664.8</ele>
        <time>2024-08-10T12:01:55Z</time>
      </trkpt>
      <trkpt lat="45.03215" lon="6.35976">
        <ele>1664.8</ele>
        <time>2024-08-10T12:01:56Z</time>
      </trkpt>
      <trkpt lat="45.03215" lon="6.35976">
        <ele>1664.4</ele>
        <time>2024-08-10T12:01:57Z</time>
      </trkpt>
      <trkpt lat="45.03214" lon="6.3598">
        <ele>1664.4</ele>
        <time>2024-08-10T12:01:58Z</time>
      </trkpt>
      <trkpt lat="45.03214" lon="6.3598">
        <ele>1664.6</ele>
        <time>2024-08-10T12:01:59Z</time>
      </trkpt>
      <trkpt lat="45.03213" lon="6.35983">
        <ele>1664.8</ele>
        <time>2024-08-10T12:02:00Z</time>
      </trkpt>
      <trkpt lat="45.03213" lon="6.35983">
        <ele>1664.8</ele>
        <time>2024-08-10T12:02:01Z</time>
      </trkpt>
      <trkpt lat="45.03212" lon="6.35987">
        <ele>1664.8</ele>
        <time>2024-08-10T12:02:02Z</time>
      </trkpt>
      <trkpt lat="45.03212" lon="6.35987">
        <ele>1664.8</ele>
        <time>2024-08-10T12:02:03Z</time>
      </trkpt>
      <trkpt lat="45.03211" lon="6.35991">
        <ele>1664.8</ele>
        <time>2024-08-10T12:02:04Z</time>
      </trkpt>
      <trkpt lat="45.03211" lon="6.35991">
        <ele>1665.2</ele>
        <time>2024-08-10T12:02:05Z</time>
      </trkpt>
      <trkpt lat="45.03209" lon="6.35994">
        <ele>1665.2</ele>
        <time>2024-08-10T12:02:06Z</time>
      </trkpt>
      <trkpt lat="45.03209" lon="6.35994">
        <ele>1665.2</ele>
        <time>2024-08-10T12:02:07Z</time>
      </trkpt>
      <trkpt lat="45.03207" lon="6.35997">
        <ele>1665.2</ele>
        <time>2024-08-10T12:02:08Z</time>
      </trkpt>
      <trkpt lat="45.03207" lon="6.35997">
        <ele>1665.2</ele>
        <time>2024-08-10T12:02:09Z</time>
      </trkpt>
      <trkpt lat="45.03205" lon="6.36001">
        <ele>1665.2</ele>
        <time>2024-08-10T12:02:10Z</time>
      </trkpt>
      <trkpt lat="45.03205" lon="6.36001">
        <ele>1665.2</ele>
        <time>2024-08-10T12:02:11Z</time>
      </trkpt>
      <trkpt lat="45.03204" lon="6.36004">
        <ele>1665.4</ele>
        <time>2024-08-10T12:02:12Z</time>
      </trkpt>
      <trkpt lat="45.03204" lon="6.36004">
        <ele>1665.4</ele>
        <time>2024-08-10T12:02:13Z</time>
      </trkpt>
      <trkpt lat="45.03202" lon="6.36007">
        <ele>1665.4</ele>
        <time>2024-08-10T12:02:14Z</time>
      </trkpt>
      <trkpt lat="45.03202" lon="6.36007">
        <ele>1665.4</ele>
        <time>2024-08-10T12:02:15Z</time>
      </trkpt>
      <trkpt lat="45.032" lon="6.3601">
        <ele>1665.6</ele>
        <time>2024-08-10T12:02:16Z</time>
      </trkpt>
      <trkpt lat="45.032" lon="6.3601">
        <ele>1665.6</ele>
        <time>2024-08-10T12:02:17Z</time>
      </trkpt>
      <trkpt lat="45.03198" lon="6.36014">
        <ele>1665.6</ele>
        <time>2024-08-10T12:02:18Z</time>
      </trkpt>
      <trkpt lat="45.03198" lon="6.36014">
        <ele>1665.6</ele>
        <time>2024-08-10T12:02:19Z</time>
      </trkpt>
      <trkpt lat="45.03197" lon="6.36017">
        <ele>1665.6</ele>
        <time>2024-08-10T12:02:20Z</time>
      </trkpt>
      <trkpt lat="45.03197" lon="6.36017">
        <ele>1665.6</ele>
        <time>2024-08-10T12:02:21Z</time>
      </trkpt>
      <trkpt lat="45.03195" lon="6.36021">
        <ele>1665.6</ele>
        <time>2024-08-10T12:02:22Z</time>
      </trkpt>
      <trkpt lat="45.03195" lon="6.36021">
        <ele>1665.6</ele>
        <time>2024-08-10T12:02:23Z</time>
      </trkpt>
      <trkpt lat="45.03194" lon="6.36024">
        <ele>1665.6</ele>
        <time>2024-08-10T12:02:24Z</time>
      </trkpt>
      <trkpt lat="45.03194" lon="6.36024">
        <ele>1665.6</ele>
        <time>2024-08-10T12:02:25Z</time>
      </trkpt>
      <trkpt lat="45.03193" lon="6.36027">
        <ele>1665.6</ele>
        <time>2024-08-10T12:02:26Z</time>
      </trkpt>
      <trkpt lat="45.03191" lon="6.36029">
        <ele>1665.6</ele>
        <time>2024-08-10T12:02:27Z</time>
      </trkpt>
      <trkpt lat="45.03191" lon="6.36029">
        <ele>1665.6</ele>
        <time>2024-08-10T12:02:28Z</time>
      </trkpt>
      <trkpt lat="45.0319" lon="6.36032">
        <ele>1665.6</ele>
        <time>2024-08-10T12:02:29Z</time>
      </trkpt>
      <trkpt lat="45.0319" lon="6.36032">
        <ele>1665.6</ele>
        <time>2024-08-10T12:02:30Z</time>
      </trkpt>
      <trkpt lat="45.03189" lon="6.36035">
        <ele>1665.6</ele>
        <time>2024-08-10T12:02:31Z</time>
      </trkpt>
      <trkpt lat="45.03189" lon="6.36035">
        <ele>1665.6</ele>
        <time>2024-08-10T12:02:32Z</time>
      </trkpt>
      <trkpt lat="45.03188" lon="6.36039">
        <ele>1665.6</ele>
        <time>2024-08-10T12:02:33Z</time>
      </trkpt>
      <trkpt lat="45.03188" lon="6.36039">
        <ele>1665.6</ele>
        <time>2024-08-10T12:02:34Z</time>
      </trkpt>
      <trkpt lat="45.03187" lon="6.36042">
        <ele>1665.6</ele>
        <time>2024-08-10T12:02:35Z</time>
      </trkpt>
      <trkpt lat="45.03187" lon="6.36042">
        <ele>1665.4</ele>
        <time>2024-08-10T12:02:36Z</time>
      </trkpt>
      <trkpt lat="45.03186" lon="6.36046">
        <ele>1665.4</ele>
        <time>2024-08-10T12:02:37Z</time>
      </trkpt>
      <trkpt lat="45.03186" lon="6.36046">
        <ele>1665.6</ele>
        <time>2024-08-10T12:02:38Z</time>
      </trkpt>
      <trkpt lat="45.03185" lon="6.36049">
        <ele>1665.8</ele>
        <time>2024-08-10T12:02:39Z</time>
      </trkpt>
      <trkpt lat="45.03185" lon="6.36049">
        <ele>1665.8</ele>
        <time>2024-08-10T12:02:40Z</time>
      </trkpt>
      <trkpt lat="45.03183" lon="6.36052">
        <ele>1665.6</ele>
        <time>2024-08-10T12:02:41Z</time>
      </trkpt>
      <trkpt lat="45.03183" lon="6.36052">
        <ele>1665.6</ele>
        <time>2024-08-10T12:02:42Z</time>
      </trkpt>
      <trkpt lat="45.03181" lon="6.36056">
        <ele>1665.8</ele>
        <time>2024-08-10T12:02:43Z</time>
      </trkpt>
      <trkpt lat="45.03181" lon="6.36056">
        <ele>1666</ele>
        <time>2024-08-10T12:02:44Z</time>
      </trkpt>
      <trkpt lat="45.0318" lon="6.3606">
        <ele>1666.2</ele>
        <time>2024-08-10T12:02:45Z</time>
      </trkpt>
      <trkpt lat="45.0318" lon="6.3606">
        <ele>1666.2</ele>
        <time>2024-08-10T12:02:46Z</time>
      </trkpt>
      <trkpt lat="45.03179" lon="6.36063">
        <ele>1666.4</ele>
        <time>2024-08-10T12:02:47Z</time>
      </trkpt>
      <trkpt lat="45.03179" lon="6.36063">
        <ele>1666.6</ele>
        <time>2024-08-10T12:02:48Z</time>
      </trkpt>
      <trkpt lat="45.03177" lon="6.36066">
        <ele>1666.6</ele>
        <time>2024-08-10T12:02:49Z</time>
      </trkpt>
      <trkpt lat="45.03177" lon="6.36066">
        <ele>1666.6</ele>
        <time>2024-08-10T12:02:50Z</time>
      </trkpt>
      <trkpt lat="45.03176" lon="6.3607">
        <ele>1666.6</ele>
        <time>2024-08-10T12:02:51Z</time>
      </trkpt>
      <trkpt lat="45.03176" lon="6.3607">
        <ele>1666.6</ele>
        <time>2024-08-10T12:02:52Z</time>
      </trkpt>
      <trkpt lat="45.03175" lon="6.36074">
        <ele>1666.8</ele>
        <time>2024-08-10T12:02:53Z</time>
      </trkpt>
      <trkpt lat="45.03175" lon="6.36074">
        <ele>1666.8</ele>
        <time>2024-08-10T12:02:54Z</time>
      </trkpt>
      <trkpt lat="45.03174" lon="6.36077">
        <ele>1666.8</ele>
        <time>2024-08-10T12:02:55Z</time>
      </trkpt>
      <trkpt lat="45.03174" lon="6.36077">
        <ele>1666.8</ele>
        <time>2024-08-10T12:02:56Z</time>
      </trkpt>
      <trkpt lat="45.03173" lon="6.36081">
        <ele>1666.8</ele>
        <time>2024-08-10T12:02:57Z</time>
      </trkpt>
      <trkpt lat="45.03173" lon="6.36081">
        <ele>1666.6</ele>
        <time>2024-08-10T12:02:58Z</time>
      </trkpt>
      <trkpt lat="45.03173" lon="6.36084">
        <ele>1666.6</ele>
        <time>2024-08-10T12:02:59Z</time>
      </trkpt>
      <trkpt lat="45.03173" lon="6.36084">
        <ele>1666.8</ele>
        <time>2024-08-10T12:03:00Z</time>
      </trkpt>
      <trkpt lat="45.03173" lon="6.36088">
        <ele>1667</ele>
        <time>2024-08-10T12:03:01Z</time>
      </trkpt>
      <trkpt lat="45.03173" lon="6.36088">
        <ele>1667.2</ele>
        <time>2024-08-10T12:03:02Z</time>
      </trkpt>
      <trkpt lat="45.03172" lon="6.36091">
        <ele>1667.4</ele>
        <time>2024-08-10T12:03:03Z</time>
      </trkpt>
      <trkpt lat="45.03172" lon="6.36091">
        <ele>1667.4</ele>
        <time>2024-08-10T12:03:04Z</time>
      </trkpt>
      <trkpt lat="45.03171" lon="6.36095">
        <ele>1667.4</ele>
        <time>2024-08-10T12:03:05Z</time>
      </trkpt>
      <trkpt lat="45.03171" lon="6.36095">
        <ele>1667.4</ele>
        <time>2024-08-10T12:03:06Z</time>
      </trkpt>
      <trkpt lat="45.0317" lon="6.36098">
        <ele>1667.4</ele>
        <time>2024-08-10T12:03:07Z</time>
      </trkpt>
      <trkpt lat="45.0317" lon="6.36098">
        <ele>1667.6</ele>
        <time>2024-08-10T12:03:08Z</time>
      </trkpt>
      <trkpt lat="45.03169" lon="6.36102">
        <ele>1667.6</ele>
        <time>2024-08-10T12:03:09Z</time>
      </trkpt>
      <trkpt lat="45.03169" lon="6.36102">
        <ele>1667.6</ele>
        <time>2024-08-10T12:03:10Z</time>
      </trkpt>
      <trkpt lat="45.03167" lon="6.36106">
        <ele>1667.6</ele>
        <time>2024-08-10T12:03:11Z</time>
      </trkpt>
      <trkpt lat="45.03167" lon="6.36106">
        <ele>1667.4</ele>
        <time>2024-08-10T12:03:12Z</time>
      </trkpt>
      <trkpt lat="45.03166" lon="6.36109">
        <ele>1667.4</ele>
        <time>2024-08-10T12:03:13Z</time>
      </trkpt>
      <trkpt lat="45.03166" lon="6.36109">
        <ele>1667.2</ele>
        <time>2024-08-10T12:03:14Z</time>
      </trkpt>
      <trkpt lat="45.03165" lon="6.36112">
        <ele>1667</ele>
        <time>2024-08-10T12:03:15Z</time>
      </trkpt>
      <trkpt lat="45.03165" lon="6.36112">
        <ele>1667</ele>
        <time>2024-08-10T12:03:16Z</time>
      </trkpt>
      <trkpt lat="45.03163" lon="6.36115">
        <ele>1667.2</ele>
        <time>2024-08-10T12:03:17Z</time>
      </trkpt>
      <trkpt lat="45.03163" lon="6.36115">
        <ele>1667.2</ele>
        <time>2024-08-10T12:03:18Z</time>
      </trkpt>
      <trkpt lat="45.03162" lon="6.36119">
        <ele>1667.2</ele>
        <time>2024-08-10T12:03:19Z</time>
      </trkpt>
      <trkpt lat="45.03162" lon="6.36119">
        <ele>1667.4</ele>
        <time>2024-08-10T12:03:20Z</time>
      </trkpt>
      <trkpt lat="45.03162" lon="6.36123">
        <ele>1667.4</ele>
        <time>2024-08-10T12:03:21Z</time>
      </trkpt>
      <trkpt lat="45.03162" lon="6.36123">
        <ele>1667.4</ele>
        <time>2024-08-10T12:03:22Z</time>
      </trkpt>
      <trkpt lat="45.0316" lon="6.36126">
        <ele>1667.4</ele>
        <time>2024-08-10T12:03:23Z</time>
      </trkpt>
      <trkpt lat="45.0316" lon="6.36126">
        <ele>1667.4</ele>
        <time>2024-08-10T12:03:24Z</time>
      </trkpt>
      <trkpt lat="45.03159" lon="6.3613">
        <ele>1667.4</ele>
        <time>2024-08-10T12:03:25Z</time>
      </trkpt>
      <trkpt lat="45.03159" lon="6.3613">
        <ele>1667.4</ele>
        <time>2024-08-10T12:03:26Z</time>
      </trkpt>
      <trkpt lat="45.03157" lon="6.36133">
        <ele>1667.4</ele>
        <time>2024-08-10T12:03:27Z</time>
      </trkpt>
      <trkpt lat="45.03157" lon="6.36133">
        <ele>1667.6</ele>
        <time>2024-08-10T12:03:28Z</time>
      </trkpt>
      <trkpt lat="45.03157" lon="6.36137">
        <ele>1667.8</ele>
        <time>2024-08-10T12:03:29Z</time>
      </trkpt>
      <trkpt lat="45.03157" lon="6.36137">
        <ele>1668</ele>
        <time>2024-08-10T12:03:30Z</time>
      </trkpt>
      <trkpt lat="45.03156" lon="6.3614">
        <ele>1668.2</ele>
        <time>2024-08-10T12:03:31Z</time>
      </trkpt>
      <trkpt lat="45.03156" lon="6.3614">
        <ele>1668.2</ele>
        <time>2024-08-10T12:03:32Z</time>
      </trkpt>
      <trkpt lat="45.03155" lon="6.36143">
        <ele>1668.4</ele>
        <time>2024-08-10T12:03:33Z</time>
      </trkpt>
      <trkpt lat="45.03155" lon="6.36143">
        <ele>1668.4</ele>
        <time>2024-08-10T12:03:34Z</time>
      </trkpt>
      <trkpt lat="45.03154" lon="6.36146">
        <ele>1668.6</ele>
        <time>2024-08-10T12:03:35Z</time>
      </trkpt>
      <trkpt lat="45.03154" lon="6.36146">
        <ele>1668.6</ele>
        <time>2024-08-10T12:03:36Z</time>
      </trkpt>
      <trkpt lat="45.03152" lon="6.36149">
        <ele>1668.6</ele>
        <time>2024-08-10T12:03:37Z</time>
      </trkpt>
      <trkpt lat="45.03152" lon="6.36149">
        <ele>1668.6</ele>
        <time>2024-08-10T12:03:38Z</time>
      </trkpt>
      <trkpt lat="45.03151" lon="6.36153">
        <ele>1668.6</ele>
        <time>2024-08-10T12:03:39Z</time>
      </trkpt>
      <trkpt lat="45.03151" lon="6.36153">
        <ele>1668.6</ele>
        <time>2024-08-10T12:03:40Z</time>
      </trkpt>
      <trkpt lat="45.03148" lon="6.36156">
        <ele>1668.8</ele>
        <time>2024-08-10T12:03:41Z</time>
      </trkpt>
      <trkpt lat="45.03148" lon="6.36156">
        <ele>1668.8</ele>
        <time>2024-08-10T12:03:42Z</time>
      </trkpt>
      <trkpt lat="45.03146" lon="6.36159">
        <ele>1668.8</ele>
        <time>2024-08-10T12:03:43Z</time>
      </trkpt>
      <trkpt lat="45.03146" lon="6.36159">
        <ele>1668.8</ele>
        <time>2024-08-10T12:03:44Z</time>
      </trkpt>
      <trkpt lat="45.03146" lon="6.36163">
        <ele>1668.8</ele>
        <time>2024-08-10T12:03:45Z</time>
      </trkpt>
      <trkpt lat="45.03146" lon="6.36163">
        <ele>1668.4</ele>
        <time>2024-08-10T12:03:46Z</time>
      </trkpt>
      <trkpt lat="45.03146" lon="6.36168">
        <ele>1668.4</ele>
        <time>2024-08-10T12:03:47Z</time>
      </trkpt>
      <trkpt lat="45.03146" lon="6.36168">
        <ele>1668.4</ele>
        <time>2024-08-10T12:03:48Z</time>
      </trkpt>
      <trkpt lat="45.03145" lon="6.36172">
        <ele>1668.4</ele>
        <time>2024-08-10T12:03:49Z</time>
      </trkpt>
      <trkpt lat="45.03145" lon="6.36172">
        <ele>1668.2</ele>
        <time>2024-08-10T12:03:50Z</time>
      </trkpt>
      <trkpt lat="45.03144" lon="6.36176">
        <ele>1668</ele>
        <time>2024-08-10T12:03:51Z</time>
      </trkpt>
      <trkpt lat="45.03144" lon="6.36176">
        <ele>1668</ele>
        <time>2024-08-10T12:03:52Z</time>
      </trkpt>
      <trkpt lat="45.03142" lon="6.36179">
        <ele>1668</ele>
        <time>2024-08-10T12:03:53Z</time>
      </trkpt>
      <trkpt lat="45.03142" lon="6.36179">
        <ele>1668</ele>
        <time>2024-08-10T12:03:54Z</time>
      </trkpt>
      <trkpt lat="45.03141" lon="6.36183">
        <ele>1668</ele>
        <time>2024-08-10T12:03:55Z</time>
      </trkpt>
      <trkpt lat="45.03141" lon="6.36183">
        <ele>1668</ele>
        <time>2024-08-10T12:03:56Z</time>
      </trkpt>
      <trkpt lat="45.03139" lon="6.36187">
        <ele>1668</ele>
        <time>2024-08-10T12:03:57Z</time>
      </trkpt>
      <trkpt lat="45.03139" lon="6.36187">
        <ele>1668</ele>
        <time>2024-08-10T12:03:58Z</time>
      </trkpt>
      <trkpt lat="45.03138" lon="6.3619">
        <ele>1668</ele>
        <time>2024-08-10T12:03:59Z</time>
      </trkpt>
      <trkpt lat="45.03138" lon="6.3619">
        <ele>1667.8</ele>
        <time>2024-08-10T12:04:00Z</time>
      </trkpt>
      <trkpt lat="45.03136" lon="6.36193">
        <ele>1667.8</ele>
        <time>2024-08-10T12:04:01Z</time>
      </trkpt>
      <trkpt lat="45.03136" lon="6.36193">
        <ele>1667.8</ele>
        <time>2024-08-10T12:04:02Z</time>
      </trkpt>
      <trkpt lat="45.03134" lon="6.36196">
        <ele>1668</ele>
        <time>2024-08-10T12:04:03Z</time>
      </trkpt>
      <trkpt lat="45.03134" lon="6.36196">
        <ele>1668</ele>
        <time>2024-08-10T12:04:04Z</time>
      </trkpt>
      <trkpt lat="45.03133" lon="6.36199">
        <ele>1668</ele>
        <time>2024-08-10T12:04:05Z</time>
      </trkpt>
      <trkpt lat="45.03132" lon="6.36201">
        <ele>1668</ele>
        <time>2024-08-10T12:04:06Z</time>
      </trkpt>
      <trkpt lat="45.03132" lon="6.36201">
        <ele>1668.2</ele>
        <time>2024-08-10T12:04:07Z</time>
      </trkpt>
      <trkpt lat="45.0313" lon="6.36204">
        <ele>1668.6</ele>
        <time>2024-08-10T12:04:08Z</time>
      </trkpt>
      <trkpt lat="45.0313" lon="6.36204">
        <ele>1668.6</ele>
        <time>2024-08-10T12:04:09Z</time>
      </trkpt>
      <trkpt lat="45.03128" lon="6.36207">
        <ele>1668.6</ele>
        <time>2024-08-10T12:04:10Z</time>
      </trkpt>
      <trkpt lat="45.03128" lon="6.36207">
        <ele>1668.8</ele>
        <time>2024-08-10T12:04:11Z</time>
      </trkpt>
      <trkpt lat="45.03127" lon="6.3621">
        <ele>1668.8</ele>
        <time>2024-08-10T12:04:12Z</time>
      </trkpt>
      <trkpt lat="45.03127" lon="6.3621">
        <ele>1668.8</ele>
        <time>2024-08-10T12:04:13Z</time>
      </trkpt>
      <trkpt lat="45.03125" lon="6.36212">
        <ele>1668.6</ele>
        <time>2024-08-10T12:04:14Z</time>
      </trkpt>
      <trkpt lat="45.03125" lon="6.36212">
        <ele>1668.4</ele>
        <time>2024-08-10T12:04:15Z</time>
      </trkpt>
      <trkpt lat="45.03124" lon="6.36215">
        <ele>1668.2</ele>
        <time>2024-08-10T12:04:16Z</time>
      </trkpt>
      <trkpt lat="45.03124" lon="6.36215">
        <ele>1668.4</ele>
        <time>2024-08-10T12:04:17Z</time>
      </trkpt>
      <trkpt lat="45.03122" lon="6.36217">
        <ele>1668.6</ele>
        <time>2024-08-10T12:04:18Z</time>
      </trkpt>
      <trkpt lat="45.03122" lon="6.36217">
        <ele>1668.6</ele>
        <time>2024-08-10T12:04:19Z</time>
      </trkpt>
      <trkpt lat="45.0312" lon="6.3622">
        <ele>1668.6</ele>
        <time>2024-08-10T12:04:20Z</time>
      </trkpt>
      <trkpt lat="45.0312" lon="6.3622">
        <ele>1668.6</ele>
        <time>2024-08-10T12:04:21Z</time>
      </trkpt>
      <trkpt lat="45.03118" lon="6.36223">
        <ele>1668.8</ele>
        <time>2024-08-10T12:04:22Z</time>
      </trkpt>
      <trkpt lat="45.03118" lon="6.36223">
        <ele>1669</ele>
        <time>2024-08-10T12:04:23Z</time>
      </trkpt>
      <trkpt lat="45.03116" lon="6.36226">
        <ele>1669</ele>
        <time>2024-08-10T12:04:24Z</time>
      </trkpt>
      <trkpt lat="45.03116" lon="6.36226">
        <ele>1669</ele>
        <time>2024-08-10T12:04:25Z</time>
      </trkpt>
      <trkpt lat="45.03114" lon="6.3623">
        <ele>1669</ele>
        <time>2024-08-10T12:04:26Z</time>
      </trkpt>
      <trkpt lat="45.03114" lon="6.3623">
        <ele>1669.2</ele>
        <time>2024-08-10T12:04:27Z</time>
      </trkpt>
      <trkpt lat="45.03112" lon="6.36233">
        <ele>1669.2</ele>
        <time>2024-08-10T12:04:28Z</time>
      </trkpt>
      <trkpt lat="45.03112" lon="6.36233">
        <ele>1669.2</ele>
        <time>2024-08-10T12:04:29Z</time>
      </trkpt>
      <trkpt lat="45.0311" lon="6.36236">
        <ele>1669.2</ele>
        <time>2024-08-10T12:04:30Z</time>
      </trkpt>
      <trkpt lat="45.0311" lon="6.36236">
        <ele>1669.4</ele>
        <time>2024-08-10T12:04:31Z</time>
      </trkpt>
      <trkpt lat="45.03109" lon="6.36239">
        <ele>1669.4</ele>
        <time>2024-08-10T12:04:32Z</time>
      </trkpt>
      <trkpt lat="45.03109" lon="6.36239">
        <ele>1669.4</ele>
        <time>2024-08-10T12:04:33Z</time>
      </trkpt>
      <trkpt lat="45.03108" lon="6.36242">
        <ele>1669.4</ele>
        <time>2024-08-10T12:04:34Z</time>
      </trkpt>
      <trkpt lat="45.03108" lon="6.36242">
        <ele>1669.6</ele>
        <time>2024-08-10T12:04:35Z</time>
      </trkpt>
      <trkpt lat="45.03107" lon="6.36245">
        <ele>1669.8</ele>
        <time>2024-08-10T12:04:36Z</time>
      </trkpt>
      <trkpt lat="45.03107" lon="6.36245">
        <ele>1669.8</ele>
        <time>2024-08-10T12:04:37Z</time>
      </trkpt>
      <trkpt lat="45.03105" lon="6.36249">
        <ele>1669.8</ele>
        <time>2024-08-10T12:04:38Z</time>
      </trkpt>
      <trkpt lat="45.03105" lon="6.36249">
        <ele>1669.6</ele>
        <time>2024-08-10T12:04:39Z</time>
      </trkpt>
      <trkpt lat="45.03104" lon="6.36252">
        <ele>1669.6</ele>
        <time>2024-08-10T12:04:40Z</time>
      </trkpt>
      <trkpt lat="45.03104" lon="6.36252">
        <ele>1669.6</ele>
        <time>2024-08-10T12:04:41Z</time>
      </trkpt>
      <trkpt lat="45.03104" lon="6.36255">
        <ele>1669.6</ele>
        <time>2024-08-10T12:04:42Z</time>
      </trkpt>
      <trkpt lat="45.03104" lon="6.36255">
        <ele>1669.6</ele>
        <time>2024-08-10T12:04:43Z</time>
      </trkpt>
      <trkpt lat="45.03104" lon="6.36258">
        <ele>1669.6</ele>
        <time>2024-08-10T12:04:44Z</time>
      </trkpt>
      <trkpt lat="45.03104" lon="6.36258">
        <ele>1669.6</ele>
        <time>2024-08-10T12:04:45Z</time>
      </trkpt>
      <trkpt lat="45.03104" lon="6.36258">
        <ele>1669.6</ele>
        <time>2024-08-10T12:04:46Z</time>
      </trkpt>
      <trkpt lat="45.03104" lon="6.36261">
        <ele>1669.8</ele>
        <time>2024-08-10T12:04:47Z</time>
      </trkpt>
      <trkpt lat="45.03104" lon="6.36261">
        <ele>1669.8</ele>
        <time>2024-08-10T12:04:48Z</time>
      </trkpt>
      <trkpt lat="45.03104" lon="6.36261">
        <ele>1669.8</ele>
        <time>2024-08-10T12:04:49Z</time>
      </trkpt>
      <trkpt lat="45.03104" lon="6.36261">
        <ele>1669.8</ele>
        <time>2024-08-10T12:04:50Z</time>
      </trkpt>
      <trkpt lat="45.03104" lon="6.36261">
        <ele>1669.8</ele>
        <time>2024-08-10T12:04:51Z</time>
      </trkpt>
      <trkpt lat="45.03104" lon="6.36261">
        <ele>1669.8</ele>
        <time>2024-08-10T12:04:52Z</time>
      </trkpt>
      <trkpt lat="45.03104" lon="6.36261">
        <ele>1669.8</ele>
        <time>2024-08-10T12:04:53Z</time>
      </trkpt>
      <trkpt lat="45.03104" lon="6.36261">
        <ele>1669.8</ele>
        <time>2024-08-10T12:04:54Z</time>
      </trkpt>
      <trkpt lat="45.03104" lon="6.36261">
        <ele>1669.8</ele>
        <time>2024-08-10T12:04:55Z</time>
      </trkpt>
      <trkpt lat="45.03104" lon="6.36261">
        <ele>1669.8</ele>
        <time>2024-08-10T12:04:56Z</time>
      </trkpt>
      <trkpt lat="45.03104" lon="6.36261">
        <ele>1670</ele>
        <time>2024-08-10T12:04:57Z</time>
      </trkpt>
      <trkpt lat="45.03104" lon="6.36261">
        <ele>1670</ele>
        <time>2024-08-10T12:04:58Z</time>
      </trkpt>
      <trkpt lat="45.03104" lon="6.36261">
        <ele>1670</ele>
        <time>2024-08-10T12:04:59Z</time>
      </trkpt>
      <trkpt lat="45.03104" lon="6.36261">
        <ele>1670</ele>
        <time>2024-08-10T12:05:00Z</time>
      </trkpt>
      <trkpt lat="45.03104" lon="6.36261">
        <ele>1670</ele>
        <time>2024-08-10T12:05:01Z</time>
      </trkpt>
      <trkpt lat="45.03104" lon="6.36261">
        <ele>1670</ele>
        <time>2024-08-10T12:05:02Z</time>
      </trkpt>
      <trkpt lat="45.03102" lon="6.36264">
        <ele>1670.2</ele>
        <time>2024-08-10T12:05:03Z</time>
      </trkpt>
      <trkpt lat="45.03102" lon="6.36264">
        <ele>1670.2</ele>
        <time>2024-08-10T12:05:04Z</time>
      </trkpt>
      <trkpt lat="45.031" lon="6.36268">
        <ele>1670.2</ele>
        <time>2024-08-10T12:05:05Z</time>
      </trkpt>
      <trkpt lat="45.031" lon="6.36268">
        <ele>1670.2</ele>
        <time>2024-08-10T12:05:06Z</time>
      </trkpt>
      <trkpt lat="45.03098" lon="6.36271">
        <ele>1670</ele>
        <time>2024-08-10T12:05:07Z</time>
      </trkpt>
      <trkpt lat="45.03096" lon="6.36272">
        <ele>1670</ele>
        <time>2024-08-10T12:05:08Z</time>
      </trkpt>
      <trkpt lat="45.03096" lon="6.36272">
        <ele>1670</ele>
        <time>2024-08-10T12:05:09Z</time>
      </trkpt>
      <trkpt lat="45.03096" lon="6.36272">
        <ele>1670</ele>
        <time>2024-08-10T12:05:10Z</time>
      </trkpt>
      <trkpt lat="45.03094" lon="6.36275">
        <ele>1670</ele>
        <time>2024-08-10T12:05:11Z</time>
      </trkpt>
      <trkpt lat="45.03094" lon="6.36275">
        <ele>1670.6</ele>
        <time>2024-08-10T12:05:12Z</time>
      </trkpt>
      <trkpt lat="45.03093" lon="6.36277">
        <ele>1670.6</ele>
        <time>2024-08-10T12:05:13Z</time>
      </trkpt>
      <trkpt lat="45.03093" lon="6.36277">
        <ele>1670.6</ele>
        <time>2024-08-10T12:05:14Z</time>
      </trkpt>
      <trkpt lat="45.03093" lon="6.36277">
        <ele>1670.6</ele>
        <time>2024-08-10T12:05:15Z</time>
      </trkpt>
      <trkpt lat="45.0309" lon="6.3628">
        <ele>1670.6</ele>
        <time>2024-08-10T12:05:16Z</time>
      </trkpt>
      <trkpt lat="45.0309" lon="6.3628">
        <ele>1670.6</ele>
        <time>2024-08-10T12:05:17Z</time>
      </trkpt>
      <trkpt lat="45.03089" lon="6.36281">
        <ele>1670.8</ele>
        <time>2024-08-10T12:05:18Z</time>
      </trkpt>
      <trkpt lat="45.03089" lon="6.36281">
        <ele>1670.8</ele>
        <time>2024-08-10T12:05:19Z</time>
      </trkpt>
      <trkpt lat="45.03087" lon="6.36282">
        <ele>1670.6</ele>
        <time>2024-08-10T12:05:20Z</time>
      </trkpt>
      <trkpt lat="45.03087" lon="6.36282">
        <ele>1670.6</ele>
        <time>2024-08-10T12:05:21Z</time>
      </trkpt>
      <trkpt lat="45.03087" lon="6.36282">
        <ele>1670.6</ele>
        <time>2024-08-10T12:05:22Z</time>
      </trkpt>
      <trkpt lat="45.03087" lon="6.36282">
        <ele>1670.4</ele>
        <time>2024-08-10T12:05:23Z</time>
      </trkpt>
      <trkpt lat="45.03087" lon="6.36282">
        <ele>1670.4</ele>
        <time>2024-08-10T12:05:24Z</time>
      </trkpt>
      <trkpt lat="45.03086" lon="6.3628">
        <ele>1670.2</ele>
        <time>2024-08-10T12:05:25Z</time>
      </trkpt>
      <trkpt lat="45.03086" lon="6.3628">
        <ele>1670.2</ele>
        <time>2024-08-10T12:05:26Z</time>
      </trkpt>
      <trkpt lat="45.03087" lon="6.36277">
        <ele>1670.2</ele>
        <time>2024-08-10T12:05:27Z</time>
      </trkpt>
      <trkpt lat="45.03087" lon="6.36277">
        <ele>1670.2</ele>
        <time>2024-08-10T12:05:28Z</time>
      </trkpt>
      <trkpt lat="45.03088" lon="6.36273">
        <ele>1670.4</ele>
        <time>2024-08-10T12:05:29Z</time>
      </trkpt>
      <trkpt lat="45.03088" lon="6.36273">
        <ele>1670.4</ele>
        <time>2024-08-10T12:05:30Z</time>
      </trkpt>
      <trkpt lat="45.03089" lon="6.3627">
        <ele>1670.2</ele>
        <time>2024-08-10T12:05:31Z</time>
      </trkpt>
      <trkpt lat="45.03089" lon="6.3627">
        <ele>1669.8</ele>
        <time>2024-08-10T12:05:32Z</time>
      </trkpt>
      <trkpt lat="45.03091" lon="6.36268">
        <ele>1669.8</ele>
        <time>2024-08-10T12:05:33Z</time>
      </trkpt>
      <trkpt lat="45.03091" lon="6.36268">
        <ele>1669.6</ele>
        <time>2024-08-10T12:05:34Z</time>
      </trkpt>
      <trkpt lat="45.03092" lon="6.36265">
        <ele>1669.6</ele>
        <time>2024-08-10T12:05:35Z</time>
      </trkpt>
      <trkpt lat="45.03092" lon="6.36265">
        <ele>1669.4</ele>
        <time>2024-08-10T12:05:36Z</time>
      </trkpt>
      <trkpt lat="45.03094" lon="6.36262">
        <ele>1669.4</ele>
        <time>2024-08-10T12:05:37Z</time>
      </trkpt>
      <trkpt lat="45.03094" lon="6.36262">
        <ele>1669.4</ele>
        <time>2024-08-10T12:05:38Z</time>
      </trkpt>
      <trkpt lat="45.03095" lon="6.3626">
        <ele>1669.4</ele>
        <time>2024-08-10T12:05:39Z</time>
      </trkpt>
      <trkpt lat="45.03095" lon="6.3626">
        <ele>1669.4</ele>
        <time>2024-08-10T12:05:40Z</time>
      </trkpt>
      <trkpt lat="45.03095" lon="6.36257">
        <ele>1669.6</ele>
        <time>2024-08-10T12:05:41Z</time>
      </trkpt>
      <trkpt lat="45.03095" lon="6.36257">
        <ele>1669.6</ele>
        <time>2024-08-10T12:05:42Z</time>
      </trkpt>
      <trkpt lat="45.03095" lon="6.36254">
        <ele>1669.2</ele>
        <time>2024-08-10T12:05:43Z</time>
      </trkpt>
      <trkpt lat="45.03095" lon="6.36254">
        <ele>1669.4</ele>
        <time>2024-08-10T12:05:44Z</time>
      </trkpt>
      <trkpt lat="45.03094" lon="6.36251">
        <ele>1669.6</ele>
        <time>2024-08-10T12:05:45Z</time>
      </trkpt>
      <trkpt lat="45.03094" lon="6.36251">
        <ele>1669.8</ele>
        <time>2024-08-10T12:05:46Z</time>
      </trkpt>
      <trkpt lat="45.03093" lon="6.36248">
        <ele>1670</ele>
        <time>2024-08-10T12:05:47Z</time>
      </trkpt>
      <trkpt lat="45.03092" lon="6.36246">
        <ele>1670</ele>
        <time>2024-08-10T12:05:48Z</time>
      </trkpt>
      <trkpt lat="45.03092" lon="6.36246">
        <ele>1670.2</ele>
        <time>2024-08-10T12:05:49Z</time>
      </trkpt>
      <trkpt lat="45.0309" lon="6.36244">
        <ele>1670.2</ele>
        <time>2024-08-10T12:05:50Z</time>
      </trkpt>
      <trkpt lat="45.0309" lon="6.36244">
        <ele>1670.4</ele>
        <time>2024-08-10T12:05:51Z</time>
      </trkpt>
      <trkpt lat="45.03087" lon="6.36242">
        <ele>1671</ele>
        <time>2024-08-10T12:05:52Z</time>
      </trkpt>
      <trkpt lat="45.03087" lon="6.36242">
        <ele>1671.4</ele>
        <time>2024-08-10T12:05:53Z</time>
      </trkpt>
      <trkpt lat="45.03085" lon="6.36241">
        <ele>1671.4</ele>
        <time>2024-08-10T12:05:54Z</time>
      </trkpt>
      <trkpt lat="45.03085" lon="6.36241">
        <ele>1671.6</ele>
        <time>2024-08-10T12:05:55Z</time>
      </trkpt>
      <trkpt lat="45.03083" lon="6.36241">
        <ele>1671.6</ele>
        <time>2024-08-10T12:05:56Z</time>
      </trkpt>
      <trkpt lat="45.03083" lon="6.36241">
        <ele>1671.6</ele>
        <time>2024-08-10T12:05:57Z</time>
      </trkpt>
      <trkpt lat="45.03083" lon="6.36241">
        <ele>1671.8</ele>
        <time>2024-08-10T12:05:58Z</time>
      </trkpt>
      <trkpt lat="45.03083" lon="6.36241">
        <ele>1671.8</ele>
        <time>2024-08-10T12:05:59Z</time>
      </trkpt>
      <trkpt lat="45.03081" lon="6.36242">
        <ele>1671.6</ele>
        <time>2024-08-10T12:06:00Z</time>
      </trkpt>
      <trkpt lat="45.03081" lon="6.36242">
        <ele>1671.6</ele>
        <time>2024-08-10T12:06:01Z</time>
      </trkpt>
      <trkpt lat="45.03081" lon="6.36242">
        <ele>1671.6</ele>
        <time>2024-08-10T12:06:02Z</time>
      </trkpt>
      <trkpt lat="45.03079" lon="6.36245">
        <ele>1671.8</ele>
        <time>2024-08-10T12:06:03Z</time>
      </trkpt>
      <trkpt lat="45.03079" lon="6.36245">
        <ele>1671.8</ele>
        <time>2024-08-10T12:06:04Z</time>
      </trkpt>
      <trkpt lat="45.03079" lon="6.36245">
        <ele>1671.8</ele>
        <time>2024-08-10T12:06:05Z</time>
      </trkpt>
      <trkpt lat="45.03078" lon="6.36247">
        <ele>1671.6</ele>
        <time>2024-08-10T12:06:06Z</time>
      </trkpt>
      <trkpt lat="45.03078" lon="6.36247">
        <ele>1671.2</ele>
        <time>2024-08-10T12:06:07Z</time>
      </trkpt>
      <trkpt lat="45.03078" lon="6.36247">
        <ele>1671.2</ele>
        <time>2024-08-10T12:06:08Z</time>
      </trkpt>
      <trkpt lat="45.03078" lon="6.3625">
        <ele>1671.2</ele>
        <time>2024-08-10T12:06:09Z</time>
      </trkpt>
      <trkpt lat="45.03078" lon="6.3625">
        <ele>1671.4</ele>
        <time>2024-08-10T12:06:10Z</time>
      </trkpt>
      <trkpt lat="45.03078" lon="6.3625">
        <ele>1671.4</ele>
        <time>2024-08-10T12:06:11Z</time>
      </trkpt>
      <trkpt lat="45.03078" lon="6.3625">
        <ele>1671.4</ele>
        <time>2024-08-10T12:06:12Z</time>
      </trkpt>
      <trkpt lat="45.03078" lon="6.3625">
        <ele>1671.4</ele>
        <time>2024-08-10T12:06:13Z</time>
      </trkpt>
      <trkpt lat="45.03079" lon="6.36247">
        <ele>1671.4</ele>
        <time>2024-08-10T12:06:14Z</time>
      </trkpt>
      <trkpt lat="45.03079" lon="6.36247">
        <ele>1671.4</ele>
        <time>2024-08-10T12:06:15Z</time>
      </trkpt>
      <trkpt lat="45.03079" lon="6.36247">
        <ele>1671.4</ele>
        <time>2024-08-10T12:06:16Z</time>
      </trkpt>
      <trkpt lat="45.0308" lon="6.36245">
        <ele>1671.4</ele>
        <time>2024-08-10T12:06:17Z</time>
      </trkpt>
      <trkpt lat="45.0308" lon="6.36245">
        <ele>1671.4</ele>
        <time>2024-08-10T12:06:18Z</time>
      </trkpt>
      <trkpt lat="45.03081" lon="6.36242">
        <ele>1671.2</ele>
        <time>2024-08-10T12:06:19Z</time>
      </trkpt>
      <trkpt lat="45.03081" lon="6.36242">
        <ele>1671</ele>
        <time>2024-08-10T12:06:20Z</time>
      </trkpt>
      <trkpt lat="45.03081" lon="6.36242">
        <ele>1671</ele>
        <time>2024-08-10T12:06:21Z</time>
      </trkpt>
      <trkpt lat="45.03081" lon="6.36242">
        <ele>1671.6</ele>
        <time>2024-08-10T12:06:22Z</time>
      </trkpt>
      <trkpt lat="45.03081" lon="6.36242">
        <ele>1671.8</ele>
        <time>2024-08-10T12:06:23Z</time>
      </trkpt>
      <trkpt lat="45.03081" lon="6.36242">
        <ele>1671.8</ele>
        <time>2024-08-10T12:06:24Z</time>
      </trkpt>
      <trkpt lat="45.03081" lon="6.36242">
        <ele>1671.8</ele>
        <time>2024-08-10T12:06:25Z</time>
      </trkpt>
      <trkpt lat="45.03081" lon="6.36242">
        <ele>1671.6</ele>
        <time>2024-08-10T12:06:26Z</time>
      </trkpt>
      <trkpt lat="45.03081" lon="6.36242">
        <ele>1671.6</ele>
        <time>2024-08-10T12:06:27Z</time>
      </trkpt>
      <trkpt lat="45.03081" lon="6.36242">
        <ele>1671.6</ele>
        <time>2024-08-10T12:06:28Z</time>
      </trkpt>
      <trkpt lat="45.03081" lon="6.36242">
        <ele>1671.6</ele>
        <time>2024-08-10T12:06:29Z</time>
      </trkpt>
      <trkpt lat="45.03081" lon="6.36242">
        <ele>1671.6</ele>
        <time>2024-08-10T12:06:30Z</time>
      </trkpt>
      <trkpt lat="45.03081" lon="6.36242">
        <ele>1672</ele>
        <time>2024-08-10T12:06:31Z</time>
      </trkpt>
      <trkpt lat="45.03084" lon="6.36241">
        <ele>1672.2</ele>
        <time>2024-08-10T12:06:32Z</time>
      </trkpt>
      <trkpt lat="45.03084" lon="6.36241">
        <ele>1672.2</ele>
        <time>2024-08-10T12:06:33Z</time>
      </trkpt>
      <trkpt lat="45.03086" lon="6.36242">
        <ele>1671.8</ele>
        <time>2024-08-10T12:06:34Z</time>
      </trkpt>
      <trkpt lat="45.03086" lon="6.36242">
        <ele>1671.8</ele>
        <time>2024-08-10T12:06:35Z</time>
      </trkpt>
      <trkpt lat="45.03086" lon="6.36242">
        <ele>1671.8</ele>
        <time>2024-08-10T12:06:36Z</time>
      </trkpt>
      <trkpt lat="45.03086" lon="6.36242">
        <ele>1671.8</ele>
        <time>2024-08-10T12:06:37Z</time>
      </trkpt>
      <trkpt lat="45.03086" lon="6.36242">
        <ele>1671.8</ele>
        <time>2024-08-10T12:06:38Z</time>
      </trkpt>
      <trkpt lat="45.03086" lon="6.36242">
        <ele>1671.6</ele>
        <time>2024-08-10T12:06:39Z</time>
      </trkpt>
      <trkpt lat="45.03086" lon="6.36242">
        <ele>1671.6</ele>
        <time>2024-08-10T12:06:40Z</time>
      </trkpt>
      <trkpt lat="45.03086" lon="6.36242">
        <ele>1671.4</ele>
        <time>2024-08-10T12:06:41Z</time>
      </trkpt>
      <trkpt lat="45.03086" lon="6.36242">
        <ele>1671.2</ele>
        <time>2024-08-10T12:06:42Z</time>
      </trkpt>
      <trkpt lat="45.03086" lon="6.36242">
        <ele>1671.2</ele>
        <time>2024-08-10T12:06:43Z</time>
      </trkpt>
      <trkpt lat="45.03086" lon="6.36242">
        <ele>1671.6</ele>
        <time>2024-08-10T12:06:44Z</time>
      </trkpt>
      <trkpt lat="45.03086" lon="6.36242">
        <ele>1671.8</ele>
        <time>2024-08-10T12:06:45Z</time>
      </trkpt>
      <trkpt lat="45.03086" lon="6.36242">
        <ele>1671.8</ele>
        <time>2024-08-10T12:06:46Z</time>
      </trkpt>
      <trkpt lat="45.03086" lon="6.36242">
        <ele>1671.8</ele>
        <time>2024-08-10T12:06:47Z</time>
      </trkpt>
      <trkpt lat="45.03086" lon="6.36242">
        <ele>1672</ele>
        <time>2024-08-10T12:06:48Z</time>
      </trkpt>
      <trkpt lat="45.03086" lon="6.36242">
        <ele>1672</ele>
        <time>2024-08-10T12:06:49Z</time>
      </trkpt>
      <trkpt lat="45.03086" lon="6.36242">
        <ele>1672</ele>
        <time>2024-08-10T12:06:50Z</time>
      </trkpt>
      <trkpt lat="45.03087" lon="6.36239">
        <ele>1672</ele>
        <time>2024-08-10T12:06:51Z</time>
      </trkpt>
      <trkpt lat="45.03087" lon="6.36239">
        <ele>1672.2</ele>
        <time>2024-08-10T12:06:52Z</time>
      </trkpt>
      <trkpt lat="45.03087" lon="6.36239">
        <ele>1672.2</ele>
        <time>2024-08-10T12:06:53Z</time>
      </trkpt>
      <trkpt lat="45.03087" lon="6.36236">
        <ele>1672.2</ele>
        <time>2024-08-10T12:06:54Z</time>
      </trkpt>
      <trkpt lat="45.03087" lon="6.36236">
        <ele>1672.2</ele>
        <time>2024-08-10T12:06:55Z</time>
      </trkpt>
      <trkpt lat="45.03087" lon="6.36236">
        <ele>1672</ele>
        <time>2024-08-10T12:06:56Z</time>
      </trkpt>
      <trkpt lat="45.03087" lon="6.36236">
        <ele>1672</ele>
        <time>2024-08-10T12:06:57Z</time>
      </trkpt>
      <trkpt lat="45.03087" lon="6.36236">
        <ele>1672</ele>
        <time>2024-08-10T12:06:58Z</time>
      </trkpt>
      <trkpt lat="45.03087" lon="6.36236">
        <ele>1671.8</ele>
        <time>2024-08-10T12:06:59Z</time>
      </trkpt>
      <trkpt lat="45.03087" lon="6.36236">
        <ele>1671.8</ele>
        <time>2024-08-10T12:07:00Z</time>
      </trkpt>
      <trkpt lat="45.03087" lon="6.36236">
        <ele>1671.6</ele>
        <time>2024-08-10T12:07:01Z</time>
      </trkpt>
      <trkpt lat="45.03087" lon="6.36236">
        <ele>1671.6</ele>
        <time>2024-08-10T12:07:02Z</time>
      </trkpt>
      <trkpt lat="45.03087" lon="6.36236">
        <ele>1671.8</ele>
        <time>2024-08-10T12:07:03Z</time>
      </trkpt>
      <trkpt lat="45.03087" lon="6.36236">
        <ele>1671.8</ele>
        <time>2024-08-10T12:07:04Z</time>
      </trkpt>
      <trkpt lat="45.03087" lon="6.36236">
        <ele>1672</ele>
        <time>2024-08-10T12:07:05Z</time>
      </trkpt>
      <trkpt lat="45.03087" lon="6.36236">
        <ele>1672</ele>
        <time>2024-08-10T12:07:06Z</time>
      </trkpt>
      <trkpt lat="45.03087" lon="6.36236">
        <ele>1672</ele>
        <time>2024-08-10T12:07:07Z</time>
      </trkpt>
      <trkpt lat="45.03087" lon="6.36236">
        <ele>1671.8</ele>
        <time>2024-08-10T12:07:08Z</time>
      </trkpt>
      <trkpt lat="45.03087" lon="6.36236">
        <ele>1671.8</ele>
        <time>2024-08-10T12:07:09Z</time>
      </trkpt>
      <trkpt lat="45.03087" lon="6.36236">
        <ele>1671.8</ele>
        <time>2024-08-10T12:07:10Z</time>
      </trkpt>
      <trkpt lat="45.03087" lon="6.36236">
        <ele>1672</ele>
        <time>2024-08-10T12:07:11Z</time>
      </trkpt>
      <trkpt lat="45.03087" lon="6.36236">
        <ele>1672</ele>
        <time>2024-08-10T12:07:12Z</time>
      </trkpt>
      <trkpt lat="45.03087" lon="6.36236">
        <ele>1672</ele>
        <time>2024-08-10T12:07:13Z</time>
      </trkpt>
      <trkpt lat="45.03087" lon="6.36236">
        <ele>1672</ele>
        <time>2024-08-10T12:07:14Z</time>
      </trkpt>
      <trkpt lat="45.03087" lon="6.36236">
        <ele>1672</ele>
        <time>2024-08-10T12:07:15Z</time>
      </trkpt>
      <trkpt lat="45.03087" lon="6.36236">
        <ele>1672.2</ele>
        <time>2024-08-10T12:07:16Z</time>
      </trkpt>
      <trkpt lat="45.03087" lon="6.36236">
        <ele>1672.4</ele>
        <time>2024-08-10T12:07:17Z</time>
      </trkpt>
      <trkpt lat="45.03086" lon="6.36238">
        <ele>1672.6</ele>
        <time>2024-08-10T12:07:18Z</time>
      </trkpt>
      <trkpt lat="45.03086" lon="6.36238">
        <ele>1672.6</ele>
        <time>2024-08-10T12:07:19Z</time>
      </trkpt>
      <trkpt lat="45.03086" lon="6.36238">
        <ele>1672.6</ele>
        <time>2024-08-10T12:07:20Z</time>
      </trkpt>
      <trkpt lat="45.03088" lon="6.3624">
        <ele>1672.6</ele>
        <time>2024-08-10T12:07:21Z</time>
      </trkpt>
      <trkpt lat="45.03088" lon="6.3624">
        <ele>1672.2</ele>
        <time>2024-08-10T12:07:22Z</time>
      </trkpt>
      <trkpt lat="45.03088" lon="6.3624">
        <ele>1672.2</ele>
        <time>2024-08-10T12:07:23Z</time>
      </trkpt>
      <trkpt lat="45.03088" lon="6.3624">
        <ele>1672.4</ele>
        <time>2024-08-10T12:07:24Z</time>
      </trkpt>
      <trkpt lat="45.0309" lon="6.36241">
        <ele>1672.4</ele>
        <time>2024-08-10T12:07:25Z</time>
      </trkpt>
      <trkpt lat="45.0309" lon="6.36241">
        <ele>1672.4</ele>
        <time>2024-08-10T12:07:26Z</time>
      </trkpt>
      <trkpt lat="45.0309" lon="6.36241">
        <ele>1672.2</ele>
        <time>2024-08-10T12:07:27Z</time>
      </trkpt>
      <trkpt lat="45.0309" lon="6.36241">
        <ele>1672.2</ele>
        <time>2024-08-10T12:07:28Z</time>
      </trkpt>
      <trkpt lat="45.0309" lon="6.36241">
        <ele>1672.4</ele>
        <time>2024-08-10T12:07:29Z</time>
      </trkpt>
      <trkpt lat="45.0309" lon="6.36241">
        <ele>1672.4</ele>
        <time>2024-08-10T12:07:30Z</time>
      </trkpt>
      <trkpt lat="45.0309" lon="6.36241">
        <ele>1672.4</ele>
        <time>2024-08-10T12:07:31Z</time>
      </trkpt>
      <trkpt lat="45.0309" lon="6.36241">
        <ele>1672.4</ele>
        <time>2024-08-10T12:07:32Z</time>
      </trkpt>
      <trkpt lat="45.0309" lon="6.36241">
        <ele>1672.4</ele>
        <time>2024-08-10T12:07:33Z</time>
      </trkpt>
      <trkpt lat="45.0309" lon="6.36241">
        <ele>1672.4</ele>
        <time>2024-08-10T12:07:34Z</time>
      </trkpt>
      <trkpt lat="45.0309" lon="6.36241">
        <ele>1672.4</ele>
        <time>2024-08-10T12:07:35Z</time>
      </trkpt>
      <trkpt lat="45.0309" lon="6.36241">
        <ele>1672.4</ele>
        <time>2024-08-10T12:07:36Z</time>
      </trkpt>
      <trkpt lat="45.03092" lon="6.3624">
        <ele>1672.4</ele>
        <time>2024-08-10T12:07:37Z</time>
      </trkpt>
      <trkpt lat="45.03092" lon="6.3624">
        <ele>1672.4</ele>
        <time>2024-08-10T12:07:38Z</time>
      </trkpt>
      <trkpt lat="45.03092" lon="6.3624">
        <ele>1672.4</ele>
        <time>2024-08-10T12:07:39Z</time>
      </trkpt>
      <trkpt lat="45.03096" lon="6.36238">
        <ele>1672.6</ele>
        <time>2024-08-10T12:07:40Z</time>
      </trkpt>
      <trkpt lat="45.03096" lon="6.36238">
        <ele>1672.6</ele>
        <time>2024-08-10T12:07:41Z</time>
      </trkpt>
      <trkpt lat="45.03096" lon="6.36238">
        <ele>1672.6</ele>
        <time>2024-08-10T12:07:42Z</time>
      </trkpt>
      <trkpt lat="45.03096" lon="6.36238">
        <ele>1672.6</ele>
        <time>2024-08-10T12:07:43Z</time>
      </trkpt>
      <trkpt lat="45.03096" lon="6.36238">
        <ele>1672.6</ele>
        <time>2024-08-10T12:07:44Z</time>
      </trkpt>
      <trkpt lat="45.03096" lon="6.36238">
        <ele>1672.6</ele>
        <time>2024-08-10T12:07:45Z</time>
      </trkpt>
      <trkpt lat="45.03097" lon="6.3624">
        <ele>1672.6</ele>
        <time>2024-08-10T12:07:46Z</time>
      </trkpt>
      <trkpt lat="45.03097" lon="6.3624">
        <ele>1672.6</ele>
        <time>2024-08-10T12:07:47Z</time>
      </trkpt>
      <trkpt lat="45.03097" lon="6.3624">
        <ele>1672.6</ele>
        <time>2024-08-10T12:07:48Z</time>
      </trkpt>
      <trkpt lat="45.03097" lon="6.3624">
        <ele>1672.6</ele>
        <time>2024-08-10T12:07:49Z</time>
      </trkpt>
      <trkpt lat="45.03097" lon="6.3624">
        <ele>1672.4</ele>
        <time>2024-08-10T12:07:50Z</time>
      </trkpt>
      <trkpt lat="45.03097" lon="6.3624">
        <ele>1672.2</ele>
        <time>2024-08-10T12:07:51Z</time>
      </trkpt>
      <trkpt lat="45.03097" lon="6.3624">
        <ele>1672.2</ele>
        <time>2024-08-10T12:07:52Z</time>
      </trkpt>
      <trkpt lat="45.03097" lon="6.3624">
        <ele>1672.4</ele>
        <time>2024-08-10T12:07:53Z</time>
      </trkpt>
      <trkpt lat="45.03097" lon="6.3624">
        <ele>1672.4</ele>
        <time>2024-08-10T12:07:54Z</time>
      </trkpt>
      <trkpt lat="45.03097" lon="6.3624">
        <ele>1672.4</ele>
        <time>2024-08-10T12:07:55Z</time>
      </trkpt>
      <trkpt lat="45.03097" lon="6.3624">
        <ele>1672.4</ele>
        <time>2024-08-10T12:07:56Z</time>
      </trkpt>
      <trkpt lat="45.03097" lon="6.3624">
        <ele>1672.4</ele>
        <time>2024-08-10T12:07:57Z</time>
      </trkpt>
      <trkpt lat="45.03097" lon="6.3624">
        <ele>1672.4</ele>
        <time>2024-08-10T12:07:58Z</time>
      </trkpt>
      <trkpt lat="45.03097" lon="6.3624">
        <ele>1672.4</ele>
        <time>2024-08-10T12:07:59Z</time>
      </trkpt>
      <trkpt lat="45.03097" lon="6.3624">
        <ele>1672.4</ele>
        <time>2024-08-10T12:08:00Z</time>
      </trkpt>
      <trkpt lat="45.03097" lon="6.3624">
        <ele>1672.6</ele>
        <time>2024-08-10T12:08:01Z</time>
      </trkpt>
      <trkpt lat="45.03097" lon="6.3624">
        <ele>1672.6</ele>
        <time>2024-08-10T12:08:02Z</time>
      </trkpt>
      <trkpt lat="45.03097" lon="6.3624">
        <ele>1672.2</ele>
        <time>2024-08-10T12:08:03Z</time>
      </trkpt>
      <trkpt lat="45.03097" lon="6.3624">
        <ele>1672.4</ele>
        <time>2024-08-10T12:08:04Z</time>
      </trkpt>
      <trkpt lat="45.03097" lon="6.3624">
        <ele>1672.6</ele>
        <time>2024-08-10T12:08:05Z</time>
      </trkpt>
      <trkpt lat="45.03097" lon="6.3624">
        <ele>1672.6</ele>
        <time>2024-08-10T12:08:06Z</time>
      </trkpt>
      <trkpt lat="45.03097" lon="6.3624">
        <ele>1672.8</ele>
        <time>2024-08-10T12:08:07Z</time>
      </trkpt>
      <trkpt lat="45.03097" lon="6.3624">
        <ele>1672.8</ele>
        <time>2024-08-10T12:08:08Z</time>
      </trkpt>
      <trkpt lat="45.03097" lon="6.3624">
        <ele>1672.8</ele>
        <time>2024-08-10T12:08:09Z</time>
      </trkpt>
      <trkpt lat="45.03097" lon="6.3624">
        <ele>1672.6</ele>
        <time>2024-08-10T12:08:10Z</time>
      </trkpt>
      <trkpt lat="45.03097" lon="6.3624">
        <ele>1672.6</ele>
        <time>2024-08-10T12:08:11Z</time>
      </trkpt>
      <trkpt lat="45.03097" lon="6.3624">
        <ele>1672.4</ele>
        <time>2024-08-10T12:08:12Z</time>
      </trkpt>
      <trkpt lat="45.03097" lon="6.3624">
        <ele>1672.4</ele>
        <time>2024-08-10T12:08:13Z</time>
      </trkpt>
      <trkpt lat="45.03094" lon="6.3624">
        <ele>1672.4</ele>
        <time>2024-08-10T12:08:14Z</time>
      </trkpt>
      <trkpt lat="45.03094" lon="6.3624">
        <ele>1672.4</ele>
        <time>2024-08-10T12:08:15Z</time>
      </trkpt>
      <trkpt lat="45.03092" lon="6.36238">
        <ele>1672.4</ele>
        <time>2024-08-10T12:08:16Z</time>
      </trkpt>
      <trkpt lat="45.03092" lon="6.36238">
        <ele>1672.4</ele>
        <time>2024-08-10T12:08:17Z</time>
      </trkpt>
      <trkpt lat="45.03089" lon="6.36237">
        <ele>1672.4</ele>
        <time>2024-08-10T12:08:18Z</time>
      </trkpt>
      <trkpt lat="45.03089" lon="6.36237">
        <ele>1672.8</ele>
        <time>2024-08-10T12:08:19Z</time>
      </trkpt>
      <trkpt lat="45.03089" lon="6.36237">
        <ele>1672.8</ele>
        <time>2024-08-10T12:08:20Z</time>
      </trkpt>
      <trkpt lat="45.03089" lon="6.36237">
        <ele>1672.6</ele>
        <time>2024-08-10T12:08:21Z</time>
      </trkpt>
      <trkpt lat="45.03089" lon="6.36237">
        <ele>1672.6</ele>
        <time>2024-08-10T12:08:22Z</time>
      </trkpt>
      <trkpt lat="45.03089" lon="6.36237">
        <ele>1672.6</ele>
        <time>2024-08-10T12:08:23Z</time>
      </trkpt>
      <trkpt lat="45.03089" lon="6.36237">
        <ele>1672.6</ele>
        <time>2024-08-10T12:08:24Z</time>
      </trkpt>
      <trkpt lat="45.03089" lon="6.36237">
        <ele>1672.6</ele>
        <time>2024-08-10T12:08:25Z</time>
      </trkpt>
      <trkpt lat="45.03089" lon="6.36237">
        <ele>1672.6</ele>
        <time>2024-08-10T12:08:26Z</time>
      </trkpt>
      <trkpt lat="45.03089" lon="6.36237">
        <ele>1672.6</ele>
        <time>2024-08-10T12:08:27Z</time>
      </trkpt>
      <trkpt lat="45.03089" lon="6.36237">
        <ele>1672.6</ele>
        <time>2024-08-10T12:08:28Z</time>
      </trkpt>
      <trkpt lat="45.03089" lon="6.36237">
        <ele>1672.8</ele>
        <time>2024-08-10T12:08:29Z</time>
      </trkpt>
      <trkpt lat="45.03089" lon="6.36237">
        <ele>1672.8</ele>
        <time>2024-08-10T12:08:30Z</time>
      </trkpt>
      <trkpt lat="45.03089" lon="6.36237">
        <ele>1672.8</ele>
        <time>2024-08-10T12:08:31Z</time>
      </trkpt>
      <trkpt lat="45.03089" lon="6.36237">
        <ele>1672.6</ele>
        <time>2024-08-10T12:08:32Z</time>
      </trkpt>
      <trkpt lat="45.03089" lon="6.36237">
        <ele>1672.6</ele>
        <time>2024-08-10T12:08:33Z</time>
      </trkpt>
      <trkpt lat="45.03089" lon="6.36237">
        <ele>1672.6</ele>
        <time>2024-08-10T12:08:34Z</time>
      </trkpt>
      <trkpt lat="45.03089" lon="6.36237">
        <ele>1672.6</ele>
        <time>2024-08-10T12:08:35Z</time>
      </trkpt>
      <trkpt lat="45.03089" lon="6.36237">
        <ele>1672.6</ele>
        <time>2024-08-10T12:08:36Z</time>
      </trkpt>
      <trkpt lat="45.03089" lon="6.36237">
        <ele>1672.6</ele>
        <time>2024-08-10T12:08:37Z</time>
      </trkpt>
      <trkpt lat="45.03089" lon="6.36237">
        <ele>1672.6</ele>
        <time>2024-08-10T12:08:38Z</time>
      </trkpt>
      <trkpt lat="45.03089" lon="6.36237">
        <ele>1672.6</ele>
        <time>2024-08-10T12:08:39Z</time>
      </trkpt>
      <trkpt lat="45.03089" lon="6.36237">
        <ele>1672.8</ele>
        <time>2024-08-10T12:08:40Z</time>
      </trkpt>
      <trkpt lat="45.03089" lon="6.36237">
        <ele>1672.8</ele>
        <time>2024-08-10T12:08:41Z</time>
      </trkpt>
      <trkpt lat="45.03089" lon="6.36237">
        <ele>1673</ele>
        <time>2024-08-10T12:08:42Z</time>
      </trkpt>
      <trkpt lat="45.03089" lon="6.36237">
        <ele>1673</ele>
        <time>2024-08-10T12:08:43Z</time>
      </trkpt>
      <trkpt lat="45.03089" lon="6.36237">
        <ele>1673.2</ele>
        <time>2024-08-10T12:08:44Z</time>
      </trkpt>
      <trkpt lat="45.03089" lon="6.36237">
        <ele>1673.2</ele>
        <time>2024-08-10T12:08:45Z</time>
      </trkpt>
      <trkpt lat="45.0309" lon="6.36233">
        <ele>1673.4</ele>
        <time>2024-08-10T12:08:46Z</time>
      </trkpt>
      <trkpt lat="45.0309" lon="6.3623">
        <ele>1673.6</ele>
        <time>2024-08-10T12:08:47Z</time>
      </trkpt>
      <trkpt lat="45.03091" lon="6.36226">
        <ele>1673.6</ele>
        <time>2024-08-10T12:08:48Z</time>
      </trkpt>
      <trkpt lat="45.03091" lon="6.36223">
        <ele>1673.4</ele>
        <time>2024-08-10T12:08:49Z</time>
      </trkpt>
      <trkpt lat="45.03091" lon="6.36223">
        <ele>1673.2</ele>
        <time>2024-08-10T12:08:50Z</time>
      </trkpt>
      <trkpt lat="45.03091" lon="6.36219">
        <ele>1673.2</ele>
        <time>2024-08-10T12:08:51Z</time>
      </trkpt>
      <trkpt lat="45.03091" lon="6.36219">
        <ele>1673</ele>
        <time>2024-08-10T12:08:52Z</time>
      </trkpt>
      <trkpt lat="45.03091" lon="6.36219">
        <ele>1673</ele>
        <time>2024-08-10T12:08:53Z</time>
      </trkpt>
      <trkpt lat="45.03091" lon="6.36219">
        <ele>1673.2</ele>
        <time>2024-08-10T12:08:54Z</time>
      </trkpt>
      <trkpt lat="45.03091" lon="6.36219">
        <ele>1673.2</ele>
        <time>2024-08-10T12:08:55Z</time>
      </trkpt>
      <trkpt lat="45.03091" lon="6.36219">
        <ele>1673.2</ele>
        <time>2024-08-10T12:08:56Z</time>
      </trkpt>
      <trkpt lat="45.03091" lon="6.36219">
        <ele>1673.2</ele>
        <time>2024-08-10T12:08:57Z</time>
      </trkpt>
      <trkpt lat="45.03091" lon="6.36217">
        <ele>1673.2</ele>
        <time>2024-08-10T12:08:58Z</time>
      </trkpt>
      <trkpt lat="45.03091" lon="6.36217">
        <ele>1673</ele>
        <time>2024-08-10T12:08:59Z</time>
      </trkpt>
      <trkpt lat="45.03091" lon="6.36217">
        <ele>1673</ele>
        <time>2024-08-10T12:09:00Z</time>
      </trkpt>
      <trkpt lat="45.03091" lon="6.36217">
        <ele>1672.8</ele>
        <time>2024-08-10T12:09:01Z</time>
      </trkpt>
      <trkpt lat="45.03091" lon="6.36217">
        <ele>1672.8</ele>
        <time>2024-08-10T12:09:02Z</time>
      </trkpt>
      <trkpt lat="45.03091" lon="6.36217">
        <ele>1673</ele>
        <time>2024-08-10T12:09:03Z</time>
      </trkpt>
      <trkpt lat="45.03091" lon="6.36217">
        <ele>1673</ele>
        <time>2024-08-10T12:09:04Z</time>
      </trkpt>
      <trkpt lat="45.03091" lon="6.36217">
        <ele>1673</ele>
        <time>2024-08-10T12:09:05Z</time>
      </trkpt>
      <trkpt lat="45.03091" lon="6.36217">
        <ele>1673</ele>
        <time>2024-08-10T12:09:06Z</time>
      </trkpt>
      <trkpt lat="45.03091" lon="6.36217">
        <ele>1672.6</ele>
        <time>2024-08-10T12:09:07Z</time>
      </trkpt>
      <trkpt lat="45.03091" lon="6.36217">
        <ele>1672.6</ele>
        <time>2024-08-10T12:09:08Z</time>
      </trkpt>
      <trkpt lat="45.03091" lon="6.36217">
        <ele>1672.6</ele>
        <time>2024-08-10T12:09:09Z</time>
      </trkpt>
      <trkpt lat="45.03091" lon="6.36217">
        <ele>1672.6</ele>
        <time>2024-08-10T12:09:10Z</time>
      </trkpt>
      <trkpt lat="45.03091" lon="6.36217">
        <ele>1672.8</ele>
        <time>2024-08-10T12:09:11Z</time>
      </trkpt>
      <trkpt lat="45.03091" lon="6.36217">
        <ele>1672.8</ele>
        <time>2024-08-10T12:09:12Z</time>
      </trkpt>
      <trkpt lat="45.03091" lon="6.36217">
        <ele>1672.8</ele>
        <time>2024-08-10T12:09:13Z</time>
      </trkpt>
      <trkpt lat="45.03091" lon="6.36217">
        <ele>1672.8</ele>
        <time>2024-08-10T12:09:14Z</time>
      </trkpt>
      <trkpt lat="45.03091" lon="6.36217">
        <ele>1672.8</ele>
        <time>2024-08-10T12:09:15Z</time>
      </trkpt>
      <trkpt lat="45.03091" lon="6.36217">
        <ele>1673</ele>
        <time>2024-08-10T12:09:16Z</time>
      </trkpt>
      <trkpt lat="45.03091" lon="6.36217">
        <ele>1673</ele>
        <time>2024-08-10T12:09:17Z</time>
      </trkpt>
      <trkpt lat="45.03091" lon="6.36217">
        <ele>1673</ele>
        <time>2024-08-10T12:09:18Z</time>
      </trkpt>
      <trkpt lat="45.03091" lon="6.36217">
        <ele>1673.2</ele>
        <time>2024-08-10T12:09:19Z</time>
      </trkpt>
      <trkpt lat="45.03091" lon="6.36217">
        <ele>1673.2</ele>
        <time>2024-08-10T12:09:20Z</time>
      </trkpt>
      <trkpt lat="45.03091" lon="6.36217">
        <ele>1673</ele>
        <time>2024-08-10T12:09:21Z</time>
      </trkpt>
      <trkpt lat="45.03091" lon="6.36217">
        <ele>1673</ele>
        <time>2024-08-10T12:09:22Z</time>
      </trkpt>
      <trkpt lat="45.03091" lon="6.36217">
        <ele>1673.4</ele>
        <time>2024-08-10T12:09:23Z</time>
      </trkpt>
      <trkpt lat="45.03091" lon="6.36217">
        <ele>1674</ele>
        <time>2024-08-10T12:09:24Z</time>
      </trkpt>
      <trkpt lat="45.03091" lon="6.36217">
        <ele>1674</ele>
        <time>2024-08-10T12:09:25Z</time>
      </trkpt>
      <trkpt lat="45.03091" lon="6.36217">
        <ele>1673.6</ele>
        <time>2024-08-10T12:09:26Z</time>
      </trkpt>
      <trkpt lat="45.03091" lon="6.36217">
        <ele>1673</ele>
        <time>2024-08-10T12:09:27Z</time>
      </trkpt>
      <trkpt lat="45.03091" lon="6.36217">
        <ele>1673</ele>
        <time>2024-08-10T12:09:28Z</time>
      </trkpt>
      <trkpt lat="45.03091" lon="6.36217">
        <ele>1673.2</ele>
        <time>2024-08-10T12:09:29Z</time>
      </trkpt>
      <trkpt lat="45.03091" lon="6.36217">
        <ele>1673.2</ele>
        <time>2024-08-10T12:09:30Z</time>
      </trkpt>
      <trkpt lat="45.03091" lon="6.36217">
        <ele>1673.2</ele>
        <time>2024-08-10T12:09:31Z</time>
      </trkpt>
      <trkpt lat="45.03091" lon="6.36217">
        <ele>1673.2</ele>
        <time>2024-08-10T12:09:32Z</time>
      </trkpt>
      <trkpt lat="45.03091" lon="6.36217">
        <ele>1673.2</ele>
        <time>2024-08-10T12:09:33Z</time>
      </trkpt>
      <trkpt lat="45.03091" lon="6.36217">
        <ele>1673.4</ele>
        <time>2024-08-10T12:09:34Z</time>
      </trkpt>
      <trkpt lat="45.03091" lon="6.36217">
        <ele>1673.4</ele>
        <time>2024-08-10T12:09:35Z</time>
      </trkpt>
      <trkpt lat="45.03091" lon="6.36217">
        <ele>1673.4</ele>
        <time>2024-08-10T12:09:36Z</time>
      </trkpt>
      <trkpt lat="45.03091" lon="6.36217">
        <ele>1673.4</ele>
        <time>2024-08-10T12:09:37Z</time>
      </trkpt>
      <trkpt lat="45.03091" lon="6.36217">
        <ele>1673.4</ele>
        <time>2024-08-10T12:09:38Z</time>
      </trkpt>
      <trkpt lat="45.03091" lon="6.36217">
        <ele>1673.6</ele>
        <time>2024-08-10T12:09:39Z</time>
      </trkpt>
      <trkpt lat="45.03091" lon="6.36217">
        <ele>1673.6</ele>
        <time>2024-08-10T12:09:40Z</time>
      </trkpt>
      <trkpt lat="45.0309" lon="6.36219">
        <ele>1673.8</ele>
        <time>2024-08-10T12:09:41Z</time>
      </trkpt>
      <trkpt lat="45.0309" lon="6.36219">
        <ele>1673.6</ele>
        <time>2024-08-10T12:09:42Z</time>
      </trkpt>
      <trkpt lat="45.03089" lon="6.36224">
        <ele>1673.6</ele>
        <time>2024-08-10T12:09:43Z</time>
      </trkpt>
      <trkpt lat="45.03089" lon="6.36224">
        <ele>1673.8</ele>
        <time>2024-08-10T12:09:44Z</time>
      </trkpt>
      <trkpt lat="45.03089" lon="6.36224">
        <ele>1673.8</ele>
        <time>2024-08-10T12:09:45Z</time>
      </trkpt>
      <trkpt lat="45.03089" lon="6.36224">
        <ele>1673.6</ele>
        <time>2024-08-10T12:09:46Z</time>
      </trkpt>
      <trkpt lat="45.03089" lon="6.36224">
        <ele>1673.6</ele>
        <time>2024-08-10T12:09:47Z</time>
      </trkpt>
      <trkpt lat="45.03089" lon="6.36224">
        <ele>1673.6</ele>
        <time>2024-08-10T12:09:48Z</time>
      </trkpt>
      <trkpt lat="45.03089" lon="6.36224">
        <ele>1673.6</ele>
        <time>2024-08-10T12:09:49Z</time>
      </trkpt>
      <trkpt lat="45.03089" lon="6.36224">
        <ele>1673.6</ele>
        <time>2024-08-10T12:09:50Z</time>
      </trkpt>
      <trkpt lat="45.03089" lon="6.36224">
        <ele>1673.6</ele>
        <time>2024-08-10T12:09:51Z</time>
      </trkpt>
      <trkpt lat="45.03089" lon="6.36224">
        <ele>1673.8</ele>
        <time>2024-08-10T12:09:52Z</time>
      </trkpt>
      <trkpt lat="45.03089" lon="6.36224">
        <ele>1673.8</ele>
        <time>2024-08-10T12:09:53Z</time>
      </trkpt>
      <trkpt lat="45.03089" lon="6.36224">
        <ele>1673.8</ele>
        <time>2024-08-10T12:09:54Z</time>
      </trkpt>
      <trkpt lat="45.03089" lon="6.36224">
        <ele>1673.8</ele>
        <time>2024-08-10T12:09:55Z</time>
      </trkpt>
      <trkpt lat="45.03089" lon="6.36224">
        <ele>1673.8</ele>
        <time>2024-08-10T12:09:56Z</time>
      </trkpt>
      <trkpt lat="45.03089" lon="6.36224">
        <ele>1673.8</ele>
        <time>2024-08-10T12:09:57Z</time>
      </trkpt>
      <trkpt lat="45.03088" lon="6.36227">
        <ele>1673.8</ele>
        <time>2024-08-10T12:09:58Z</time>
      </trkpt>
      <trkpt lat="45.03088" lon="6.36227">
        <ele>1673.8</ele>
        <time>2024-08-10T12:09:59Z</time>
      </trkpt>
      <trkpt lat="45.03086" lon="6.36232">
        <ele>1673.8</ele>
        <time>2024-08-10T12:10:00Z</time>
      </trkpt>
      <trkpt lat="45.03085" lon="6.36235">
        <ele>1674</ele>
        <time>2024-08-10T12:10:01Z</time>
      </trkpt>
      <trkpt lat="45.03085" lon="6.36237">
        <ele>1674</ele>
        <time>2024-08-10T12:10:02Z</time>
      </trkpt>
      <trkpt lat="45.03085" lon="6.36237">
        <ele>1673.8</ele>
        <time>2024-08-10T12:10:03Z</time>
      </trkpt>
      <trkpt lat="45.03084" lon="6.3624">
        <ele>1673.8</ele>
        <time>2024-08-10T12:10:04Z</time>
      </trkpt>
      <trkpt lat="45.03084" lon="6.3624">
        <ele>1673.8</ele>
        <time>2024-08-10T12:10:05Z</time>
      </trkpt>
      <trkpt lat="45.03084" lon="6.3624">
        <ele>1673.8</ele>
        <time>2024-08-10T12:10:06Z</time>
      </trkpt>
      <trkpt lat="45.03084" lon="6.3624">
        <ele>1673.8</ele>
        <time>2024-08-10T12:10:07Z</time>
      </trkpt>
      <trkpt lat="45.03084" lon="6.3624">
        <ele>1673.6</ele>
        <time>2024-08-10T12:10:08Z</time>
      </trkpt>
      <trkpt lat="45.03084" lon="6.3624">
        <ele>1673.6</ele>
        <time>2024-08-10T12:10:09Z</time>
      </trkpt>
      <trkpt lat="45.03084" lon="6.3624">
        <ele>1673.4</ele>
        <time>2024-08-10T12:10:10Z</time>
      </trkpt>
      <trkpt lat="45.03084" lon="6.3624">
        <ele>1673.2</ele>
        <time>2024-08-10T12:10:11Z</time>
      </trkpt>
      <trkpt lat="45.03084" lon="6.3624">
        <ele>1673.4</ele>
        <time>2024-08-10T12:10:12Z</time>
      </trkpt>
      <trkpt lat="45.03084" lon="6.3624">
        <ele>1673.4</ele>
        <time>2024-08-10T12:10:13Z</time>
      </trkpt>
      <trkpt lat="45.03084" lon="6.3624">
        <ele>1673.4</ele>
        <time>2024-08-10T12:10:14Z</time>
      </trkpt>
      <trkpt lat="45.03084" lon="6.3624">
        <ele>1673.4</ele>
        <time>2024-08-10T12:10:15Z</time>
      </trkpt>
      <trkpt lat="45.03084" lon="6.3624">
        <ele>1673.6</ele>
        <time>2024-08-10T12:10:16Z</time>
      </trkpt>
      <trkpt lat="45.03084" lon="6.3624">
        <ele>1673.6</ele>
        <time>2024-08-10T12:10:17Z</time>
      </trkpt>
      <trkpt lat="45.03084" lon="6.3624">
        <ele>1673.6</ele>
        <time>2024-08-10T12:10:18Z</time>
      </trkpt>
      <trkpt lat="45.03084" lon="6.3624">
        <ele>1673.6</ele>
        <time>2024-08-10T12:10:19Z</time>
      </trkpt>
      <trkpt lat="45.03084" lon="6.3624">
        <ele>1673.4</ele>
        <time>2024-08-10T12:10:20Z</time>
      </trkpt>
      <trkpt lat="45.03084" lon="6.3624">
        <ele>1673.4</ele>
        <time>2024-08-10T12:10:21Z</time>
      </trkpt>
      <trkpt lat="45.03084" lon="6.3624">
        <ele>1673.4</ele>
        <time>2024-08-10T12:10:22Z</time>
      </trkpt>
      <trkpt lat="45.03084" lon="6.3624">
        <ele>1673.6</ele>
        <time>2024-08-10T12:10:23Z</time>
      </trkpt>
      <trkpt lat="45.03084" lon="6.3624">
        <ele>1673.6</ele>
        <time>2024-08-10T12:10:24Z</time>
      </trkpt>
      <trkpt lat="45.03084" lon="6.3624">
        <ele>1673.8</ele>
        <time>2024-08-10T12:10:25Z</time>
      </trkpt>
      <trkpt lat="45.03084" lon="6.3624">
        <ele>1673.8</ele>
        <time>2024-08-10T12:10:26Z</time>
      </trkpt>
      <trkpt lat="45.03084" lon="6.3624">
        <ele>1673.8</ele>
        <time>2024-08-10T12:10:27Z</time>
      </trkpt>
      <trkpt lat="45.03084" lon="6.3624">
        <ele>1673.8</ele>
        <time>2024-08-10T12:10:28Z</time>
      </trkpt>
      <trkpt lat="45.03084" lon="6.3624">
        <ele>1673.8</ele>
        <time>2024-08-10T12:10:29Z</time>
      </trkpt>
      <trkpt lat="45.03084" lon="6.3624">
        <ele>1673.8</ele>
        <time>2024-08-10T12:10:30Z</time>
      </trkpt>
      <trkpt lat="45.03084" lon="6.3624">
        <ele>1673.8</ele>
        <time>2024-08-10T12:10:31Z</time>
      </trkpt>
      <trkpt lat="45.03084" lon="6.3624">
        <ele>1673.8</ele>
        <time>2024-08-10T12:10:32Z</time>
      </trkpt>
      <trkpt lat="45.03084" lon="6.3624">
        <ele>1673.8</ele>
        <time>2024-08-10T12:10:33Z</time>
      </trkpt>
      <trkpt lat="45.03084" lon="6.3624">
        <ele>1673.6</ele>
        <time>2024-08-10T12:10:34Z</time>
      </trkpt>
      <trkpt lat="45.03084" lon="6.3624">
        <ele>1673.6</ele>
        <time>2024-08-10T12:10:35Z</time>
      </trkpt>
      <trkpt lat="45.03084" lon="6.3624">
        <ele>1673.6</ele>
        <time>2024-08-10T12:10:36Z</time>
      </trkpt>
      <trkpt lat="45.03084" lon="6.3624">
        <ele>1673.6</ele>
        <time>2024-08-10T12:10:37Z</time>
      </trkpt>
      <trkpt lat="45.03084" lon="6.3624">
        <ele>1673.8</ele>
        <time>2024-08-10T12:10:38Z</time>
      </trkpt>
      <trkpt lat="45.03084" lon="6.3624">
        <ele>1673.8</ele>
        <time>2024-08-10T12:10:39Z</time>
      </trkpt>
      <trkpt lat="45.03084" lon="6.3624">
        <ele>1673.8</ele>
        <time>2024-08-10T12:10:40Z</time>
      </trkpt>
      <trkpt lat="45.03084" lon="6.3624">
        <ele>1673.8</ele>
        <time>2024-08-10T12:10:41Z</time>
      </trkpt>
      <trkpt lat="45.03084" lon="6.3624">
        <ele>1673.8</ele>
        <time>2024-08-10T12:10:42Z</time>
      </trkpt>
      <trkpt lat="45.03084" lon="6.3624">
        <ele>1673.8</ele>
        <time>2024-08-10T12:10:43Z</time>
      </trkpt>
      <trkpt lat="45.03084" lon="6.3624">
        <ele>1673.8</ele>
        <time>2024-08-10T12:10:44Z</time>
      </trkpt>
      <trkpt lat="45.03084" lon="6.3624">
        <ele>1673.8</ele>
        <time>2024-08-10T12:10:45Z</time>
      </trkpt>
      <trkpt lat="45.03084" lon="6.3624">
        <ele>1673.8</ele>
        <time>2024-08-10T12:10:46Z</time>
      </trkpt>
      <trkpt lat="45.03084" lon="6.3624">
        <ele>1673.8</ele>
        <time>2024-08-10T12:10:47Z</time>
      </trkpt>
      <trkpt lat="45.03084" lon="6.3624">
        <ele>1673.8</ele>
        <time>2024-08-10T12:10:48Z</time>
      </trkpt>
      <trkpt lat="45.03084" lon="6.3624">
        <ele>1673.8</ele>
        <time>2024-08-10T12:10:49Z</time>
      </trkpt>
      <trkpt lat="45.03084" lon="6.3624">
        <ele>1673.8</ele>
        <time>2024-08-10T12:10:50Z</time>
      </trkpt>
      <trkpt lat="45.03084" lon="6.3624">
        <ele>1674</ele>
        <time>2024-08-10T12:10:51Z</time>
      </trkpt>
      <trkpt lat="45.03084" lon="6.3624">
        <ele>1674</ele>
        <time>2024-08-10T12:10:52Z</time>
      </trkpt>
      <trkpt lat="45.03084" lon="6.36236">
        <ele>1673.8</ele>
        <time>2024-08-10T12:10:53Z</time>
      </trkpt>
      <trkpt lat="45.03084" lon="6.36236">
        <ele>1673.4</ele>
        <time>2024-08-10T12:10:54Z</time>
      </trkpt>
      <trkpt lat="45.03084" lon="6.36236">
        <ele>1673.4</ele>
        <time>2024-08-10T12:10:55Z</time>
      </trkpt>
      <trkpt lat="45.03084" lon="6.36236">
        <ele>1673.6</ele>
        <time>2024-08-10T12:10:56Z</time>
      </trkpt>
      <trkpt lat="45.03084" lon="6.36236">
        <ele>1673.8</ele>
        <time>2024-08-10T12:10:57Z</time>
      </trkpt>
      <trkpt lat="45.03084" lon="6.36236">
        <ele>1673.8</ele>
        <time>2024-08-10T12:10:58Z</time>
      </trkpt>
      <trkpt lat="45.03086" lon="6.36235">
        <ele>1673.6</ele>
        <time>2024-08-10T12:10:59Z</time>
      </trkpt>
      <trkpt lat="45.03086" lon="6.36235">
        <ele>1673.6</ele>
        <time>2024-08-10T12:11:00Z</time>
      </trkpt>
      <trkpt lat="45.03086" lon="6.36235">
        <ele>1673.4</ele>
        <time>2024-08-10T12:11:01Z</time>
      </trkpt>
      <trkpt lat="45.03086" lon="6.36235">
        <ele>1673.6</ele>
        <time>2024-08-10T12:11:02Z</time>
      </trkpt>
      <trkpt lat="45.03086" lon="6.36235">
        <ele>1673.6</ele>
        <time>2024-08-10T12:11:03Z</time>
      </trkpt>
      <trkpt lat="45.03086" lon="6.36235">
        <ele>1673.6</ele>
        <time>2024-08-10T12:11:04Z</time>
      </trkpt>
      <trkpt lat="45.03086" lon="6.36235">
        <ele>1673.8</ele>
        <time>2024-08-10T12:11:05Z</time>
      </trkpt>
      <trkpt lat="45.03086" lon="6.36235">
        <ele>1673.8</ele>
        <time>2024-08-10T12:11:06Z</time>
      </trkpt>
      <trkpt lat="45.03086" lon="6.36235">
        <ele>1673.6</ele>
        <time>2024-08-10T12:11:07Z</time>
      </trkpt>
      <trkpt lat="45.03086" lon="6.36235">
        <ele>1673.6</ele>
        <time>2024-08-10T12:11:08Z</time>
      </trkpt>
      <trkpt lat="45.03086" lon="6.36235">
        <ele>1673.6</ele>
        <time>2024-08-10T12:11:09Z</time>
      </trkpt>
      <trkpt lat="45.03086" lon="6.36235">
        <ele>1673.6</ele>
        <time>2024-08-10T12:11:10Z</time>
      </trkpt>
      <trkpt lat="45.03086" lon="6.36235">
        <ele>1673.6</ele>
        <time>2024-08-10T12:11:11Z</time>
      </trkpt>
      <trkpt lat="45.03086" lon="6.36235">
        <ele>1673.6</ele>
        <time>2024-08-10T12:11:12Z</time>
      </trkpt>
      <trkpt lat="45.03086" lon="6.36235">
        <ele>1673.6</ele>
        <time>2024-08-10T12:11:13Z</time>
      </trkpt>
      <trkpt lat="45.03086" lon="6.36235">
        <ele>1673.6</ele>
        <time>2024-08-10T12:11:14Z</time>
      </trkpt>
      <trkpt lat="45.03086" lon="6.36235">
        <ele>1673.4</ele>
        <time>2024-08-10T12:11:15Z</time>
      </trkpt>
      <trkpt lat="45.03086" lon="6.36235">
        <ele>1673.4</ele>
        <time>2024-08-10T12:11:16Z</time>
      </trkpt>
      <trkpt lat="45.03086" lon="6.36235">
        <ele>1673.4</ele>
        <time>2024-08-10T12:11:17Z</time>
      </trkpt>
      <trkpt lat="45.03086" lon="6.36235">
        <ele>1673.4</ele>
        <time>2024-08-10T12:11:18Z</time>
      </trkpt>
      <trkpt lat="45.03086" lon="6.36235">
        <ele>1673.6</ele>
        <time>2024-08-10T12:11:19Z</time>
      </trkpt>
      <trkpt lat="45.03086" lon="6.36235">
        <ele>1673.6</ele>
        <time>2024-08-10T12:11:20Z</time>
      </trkpt>
      <trkpt lat="45.03086" lon="6.36235">
        <ele>1673.6</ele>
        <time>2024-08-10T12:11:21Z</time>
      </trkpt>
      <trkpt lat="45.03086" lon="6.36235">
        <ele>1673.4</ele>
        <time>2024-08-10T12:11:22Z</time>
      </trkpt>
      <trkpt lat="45.03086" lon="6.36235">
        <ele>1673.4</ele>
        <time>2024-08-10T12:11:23Z</time>
      </trkpt>
      <trkpt lat="45.03086" lon="6.36235">
        <ele>1673.4</ele>
        <time>2024-08-10T12:11:24Z</time>
      </trkpt>
      <trkpt lat="45.03086" lon="6.36235">
        <ele>1673.6</ele>
        <time>2024-08-10T12:11:25Z</time>
      </trkpt>
      <trkpt lat="45.03086" lon="6.36235">
        <ele>1673.6</ele>
        <time>2024-08-10T12:11:26Z</time>
      </trkpt>
      <trkpt lat="45.03086" lon="6.36235">
        <ele>1673.4</ele>
        <time>2024-08-10T12:11:27Z</time>
      </trkpt>
      <trkpt lat="45.03086" lon="6.36235">
        <ele>1673.4</ele>
        <time>2024-08-10T12:11:28Z</time>
      </trkpt>
      <trkpt lat="45.03086" lon="6.36235">
        <ele>1673.4</ele>
        <time>2024-08-10T12:11:29Z</time>
      </trkpt>
      <trkpt lat="45.03086" lon="6.36235">
        <ele>1673.4</ele>
        <time>2024-08-10T12:11:30Z</time>
      </trkpt>
      <trkpt lat="45.03086" lon="6.36235">
        <ele>1673.4</ele>
        <time>2024-08-10T12:11:31Z</time>
      </trkpt>
      <trkpt lat="45.03086" lon="6.36235">
        <ele>1673.4</ele>
        <time>2024-08-10T12:11:32Z</time>
      </trkpt>
      <trkpt lat="45.03086" lon="6.36235">
        <ele>1673.4</ele>
        <time>2024-08-10T12:11:33Z</time>
      </trkpt>
      <trkpt lat="45.03086" lon="6.36235">
        <ele>1673.2</ele>
        <time>2024-08-10T12:11:34Z</time>
      </trkpt>
      <trkpt lat="45.03086" lon="6.36235">
        <ele>1673.2</ele>
        <time>2024-08-10T12:11:35Z</time>
      </trkpt>
      <trkpt lat="45.03086" lon="6.36235">
        <ele>1673.2</ele>
        <time>2024-08-10T12:11:36Z</time>
      </trkpt>
      <trkpt lat="45.03086" lon="6.36235">
        <ele>1673.6</ele>
        <time>2024-08-10T12:11:37Z</time>
      </trkpt>
      <trkpt lat="45.03086" lon="6.36235">
        <ele>1673.8</ele>
        <time>2024-08-10T12:11:38Z</time>
      </trkpt>
      <trkpt lat="45.03086" lon="6.36235">
        <ele>1673.8</ele>
        <time>2024-08-10T12:11:39Z</time>
      </trkpt>
      <trkpt lat="45.03086" lon="6.36235">
        <ele>1673.6</ele>
        <time>2024-08-10T12:11:40Z</time>
      </trkpt>
      <trkpt lat="45.03086" lon="6.36235">
        <ele>1673.4</ele>
        <time>2024-08-10T12:11:41Z</time>
      </trkpt>
      <trkpt lat="45.03086" lon="6.36235">
        <ele>1673.4</ele>
        <time>2024-08-10T12:11:42Z</time>
      </trkpt>
      <trkpt lat="45.03086" lon="6.36235">
        <ele>1673.2</ele>
        <time>2024-08-10T12:11:43Z</time>
      </trkpt>
      <trkpt lat="45.03086" lon="6.36235">
        <ele>1673.2</ele>
        <time>2024-08-10T12:11:44Z</time>
      </trkpt>
      <trkpt lat="45.03086" lon="6.36235">
        <ele>1673.2</ele>
        <time>2024-08-10T12:11:45Z</time>
      </trkpt>
      <trkpt lat="45.03086" lon="6.36235">
        <ele>1673.2</ele>
        <time>2024-08-10T12:11:46Z</time>
      </trkpt>
      <trkpt lat="45.03086" lon="6.36235">
        <ele>1673.4</ele>
        <time>2024-08-10T12:11:47Z</time>
      </trkpt>
      <trkpt lat="45.03086" lon="6.36235">
        <ele>1673.4</ele>
        <time>2024-08-10T12:11:48Z</time>
      </trkpt>
      <trkpt lat="45.03086" lon="6.36235">
        <ele>1673.2</ele>
        <time>2024-08-10T12:11:49Z</time>
      </trkpt>
      <trkpt lat="45.03086" lon="6.36235">
        <ele>1673</ele>
        <time>2024-08-10T12:11:50Z</time>
      </trkpt>
      <trkpt lat="45.03086" lon="6.36235">
        <ele>1672.8</ele>
        <time>2024-08-10T12:11:51Z</time>
      </trkpt>
      <trkpt lat="45.03086" lon="6.36235">
        <ele>1672.8</ele>
        <time>2024-08-10T12:11:52Z</time>
      </trkpt>
      <trkpt lat="45.03086" lon="6.36235">
        <ele>1673</ele>
        <time>2024-08-10T12:11:53Z</time>
      </trkpt>
      <trkpt lat="45.03086" lon="6.36235">
        <ele>1673</ele>
        <time>2024-08-10T12:11:54Z</time>
      </trkpt>
      <trkpt lat="45.03086" lon="6.36235">
        <ele>1673</ele>
        <time>2024-08-10T12:11:55Z</time>
      </trkpt>
      <trkpt lat="45.03086" lon="6.36235">
        <ele>1673</ele>
        <time>2024-08-10T12:11:56Z</time>
      </trkpt>
      <trkpt lat="45.03086" lon="6.36235">
        <ele>1673</ele>
        <time>2024-08-10T12:11:57Z</time>
      </trkpt>
      <trkpt lat="45.03086" lon="6.36235">
        <ele>1672.8</ele>
        <time>2024-08-10T12:11:58Z</time>
      </trkpt>
      <trkpt lat="45.03086" lon="6.36235">
        <ele>1672.8</ele>
        <time>2024-08-10T12:11:59Z</time>
      </trkpt>
      <trkpt lat="45.03086" lon="6.36235">
        <ele>1673</ele>
        <time>2024-08-10T12:12:00Z</time>
      </trkpt>
      <trkpt lat="45.03086" lon="6.36235">
        <ele>1673</ele>
        <time>2024-08-10T12:12:01Z</time>
      </trkpt>
      <trkpt lat="45.03086" lon="6.36235">
        <ele>1673</ele>
        <time>2024-08-10T12:12:02Z</time>
      </trkpt>
      <trkpt lat="45.03086" lon="6.36235">
        <ele>1673.2</ele>
        <time>2024-08-10T12:12:03Z</time>
      </trkpt>
      <trkpt lat="45.03086" lon="6.36235">
        <ele>1673.2</ele>
        <time>2024-08-10T12:12:04Z</time>
      </trkpt>
      <trkpt lat="45.03086" lon="6.36235">
        <ele>1673</ele>
        <time>2024-08-10T12:12:05Z</time>
      </trkpt>
      <trkpt lat="45.03086" lon="6.36235">
        <ele>1673</ele>
        <time>2024-08-10T12:12:06Z</time>
      </trkpt>
      <trkpt lat="45.03086" lon="6.36235">
        <ele>1673</ele>
        <time>2024-08-10T12:12:07Z</time>
      </trkpt>
      <trkpt lat="45.03086" lon="6.36235">
        <ele>1673</ele>
        <time>2024-08-10T12:12:08Z</time>
      </trkpt>
      <trkpt lat="45.03086" lon="6.36235">
        <ele>1673</ele>
        <time>2024-08-10T12:12:09Z</time>
      </trkpt>
      <trkpt lat="45.03086" lon="6.36235">
        <ele>1673</ele>
        <time>2024-08-10T12:12:10Z</time>
      </trkpt>
      <trkpt lat="45.03086" lon="6.36235">
        <ele>1673</ele>
        <time>2024-08-10T12:12:11Z</time>
      </trkpt>
      <trkpt lat="45.03086" lon="6.36235">
        <ele>1673</ele>
        <time>2024-08-10T12:12:12Z</time>
      </trkpt>
      <trkpt lat="45.03086" lon="6.36235">
        <ele>1673</ele>
        <time>2024-08-10T12:12:13Z</time>
      </trkpt>
      <trkpt lat="45.03086" lon="6.36235">
        <ele>1673.2</ele>
        <time>2024-08-10T12:12:14Z</time>
      </trkpt>
      <trkpt lat="45.03086" lon="6.36235">
        <ele>1673.2</ele>
        <time>2024-08-10T12:12:15Z</time>
      </trkpt>
      <trkpt lat="45.03086" lon="6.36235">
        <ele>1673.4</ele>
        <time>2024-08-10T12:12:16Z</time>
      </trkpt>
      <trkpt lat="45.03086" lon="6.36235">
        <ele>1673.4</ele>
        <time>2024-08-10T12:12:17Z</time>
      </trkpt>
      <trkpt lat="45.03086" lon="6.36235">
        <ele>1673.4</ele>
        <time>2024-08-10T12:12:18Z</time>
      </trkpt>
      <trkpt lat="45.03086" lon="6.36235">
        <ele>1673.4</ele>
        <time>2024-08-10T12:12:19Z</time>
      </trkpt>
      <trkpt lat="45.03086" lon="6.36235">
        <ele>1673.4</ele>
        <time>2024-08-10T12:12:20Z</time>
      </trkpt>
      <trkpt lat="45.03086" lon="6.36235">
        <ele>1673.4</ele>
        <time>2024-08-10T12:12:21Z</time>
      </trkpt>
      <trkpt lat="45.03086" lon="6.36235">
        <ele>1673.4</ele>
        <time>2024-08-10T12:12:22Z</time>
      </trkpt>
      <trkpt lat="45.03086" lon="6.36235">
        <ele>1673.4</ele>
        <time>2024-08-10T12:12:23Z</time>
      </trkpt>
      <trkpt lat="45.03086" lon="6.36235">
        <ele>1673.6</ele>
        <time>2024-08-10T12:12:24Z</time>
      </trkpt>
      <trkpt lat="45.03086" lon="6.36235">
        <ele>1673.6</ele>
        <time>2024-08-10T12:12:25Z</time>
      </trkpt>
      <trkpt lat="45.03086" lon="6.36235">
        <ele>1673.6</ele>
        <time>2024-08-10T12:12:26Z</time>
      </trkpt>
      <trkpt lat="45.03086" lon="6.36235">
        <ele>1673.6</ele>
        <time>2024-08-10T12:12:27Z</time>
      </trkpt>
      <trkpt lat="45.03086" lon="6.36235">
        <ele>1673.6</ele>
        <time>2024-08-10T12:12:28Z</time>
      </trkpt>
      <trkpt lat="45.03086" lon="6.36235">
        <ele>1673.6</ele>
        <time>2024-08-10T12:12:29Z</time>
      </trkpt>
      <trkpt lat="45.03086" lon="6.36235">
        <ele>1673.4</ele>
        <time>2024-08-10T12:12:30Z</time>
      </trkpt>
      <trkpt lat="45.03086" lon="6.36235">
        <ele>1673.4</ele>
        <time>2024-08-10T12:12:31Z</time>
      </trkpt>
      <trkpt lat="45.03086" lon="6.36235">
        <ele>1673.4</ele>
        <time>2024-08-10T12:12:32Z</time>
      </trkpt>
      <trkpt lat="45.03086" lon="6.36235">
        <ele>1673.6</ele>
        <time>2024-08-10T12:12:33Z</time>
      </trkpt>
      <trkpt lat="45.03086" lon="6.36235">
        <ele>1673.6</ele>
        <time>2024-08-10T12:12:34Z</time>
      </trkpt>
      <trkpt lat="45.03086" lon="6.36235">
        <ele>1673.6</ele>
        <time>2024-08-10T12:12:35Z</time>
      </trkpt>
      <trkpt lat="45.03086" lon="6.36235">
        <ele>1673.4</ele>
        <time>2024-08-10T12:12:36Z</time>
      </trkpt>
      <trkpt lat="45.03086" lon="6.36235">
        <ele>1673.4</ele>
        <time>2024-08-10T12:12:37Z</time>
      </trkpt>
      <trkpt lat="45.03086" lon="6.36235">
        <ele>1673.2</ele>
        <time>2024-08-10T12:12:38Z</time>
      </trkpt>
      <trkpt lat="45.03086" lon="6.36235">
        <ele>1673.2</ele>
        <time>2024-08-10T12:12:39Z</time>
      </trkpt>
      <trkpt lat="45.03086" lon="6.36235">
        <ele>1673.6</ele>
        <time>2024-08-10T12:12:40Z</time>
      </trkpt>
      <trkpt lat="45.03086" lon="6.36235">
        <ele>1673.6</ele>
        <time>2024-08-10T12:12:41Z</time>
      </trkpt>
      <trkpt lat="45.03086" lon="6.36235">
        <ele>1673.6</ele>
        <time>2024-08-10T12:12:42Z</time>
      </trkpt>
      <trkpt lat="45.03086" lon="6.36235">
        <ele>1673.4</ele>
        <time>2024-08-10T12:12:43Z</time>
      </trkpt>
      <trkpt lat="45.03086" lon="6.36235">
        <ele>1673.4</ele>
        <time>2024-08-10T12:12:44Z</time>
      </trkpt>
      <trkpt lat="45.03086" lon="6.36235">
        <ele>1673.4</ele>
        <time>2024-08-10T12:12:45Z</time>
      </trkpt>
      <trkpt lat="45.03086" lon="6.36235">
        <ele>1673.4</ele>
        <time>2024-08-10T12:12:46Z</time>
      </trkpt>
      <trkpt lat="45.03086" lon="6.36235">
        <ele>1673.4</ele>
        <time>2024-08-10T12:12:47Z</time>
      </trkpt>
      <trkpt lat="45.03086" lon="6.36235">
        <ele>1673.4</ele>
        <time>2024-08-10T12:12:48Z</time>
      </trkpt>
      <trkpt lat="45.03086" lon="6.36235">
        <ele>1673.4</ele>
        <time>2024-08-10T12:12:49Z</time>
      </trkpt>
      <trkpt lat="45.03086" lon="6.36235">
        <ele>1673.4</ele>
        <time>2024-08-10T12:12:50Z</time>
      </trkpt>
      <trkpt lat="45.03086" lon="6.36235">
        <ele>1673.4</ele>
        <time>2024-08-10T12:12:51Z</time>
      </trkpt>
      <trkpt lat="45.03086" lon="6.36235">
        <ele>1673.4</ele>
        <time>2024-08-10T12:12:52Z</time>
      </trkpt>
      <trkpt lat="45.03086" lon="6.36235">
        <ele>1673.4</ele>
        <time>2024-08-10T12:12:53Z</time>
      </trkpt>
      <trkpt lat="45.03086" lon="6.36235">
        <ele>1673.4</ele>
        <time>2024-08-10T12:12:54Z</time>
      </trkpt>
      <trkpt lat="45.03086" lon="6.36235">
        <ele>1673.4</ele>
        <time>2024-08-10T12:12:55Z</time>
      </trkpt>
      <trkpt lat="45.03086" lon="6.36235">
        <ele>1673.4</ele>
        <time>2024-08-10T12:12:56Z</time>
      </trkpt>
      <trkpt lat="45.03086" lon="6.36235">
        <ele>1673.4</ele>
        <time>2024-08-10T12:12:57Z</time>
      </trkpt>
      <trkpt lat="45.03086" lon="6.36235">
        <ele>1673.4</ele>
        <time>2024-08-10T12:12:58Z</time>
      </trkpt>
      <trkpt lat="45.03086" lon="6.36235">
        <ele>1673.6</ele>
        <time>2024-08-10T12:12:59Z</time>
      </trkpt>
      <trkpt lat="45.03086" lon="6.36235">
        <ele>1673.6</ele>
        <time>2024-08-10T12:13:00Z</time>
      </trkpt>
      <trkpt lat="45.03083" lon="6.36234">
        <ele>1673.8</ele>
        <time>2024-08-10T12:13:01Z</time>
      </trkpt>
      <trkpt lat="45.03083" lon="6.36234">
        <ele>1673.8</ele>
        <time>2024-08-10T12:13:02Z</time>
      </trkpt>
      <trkpt lat="45.0308" lon="6.36236">
        <ele>1673.8</ele>
        <time>2024-08-10T12:13:03Z</time>
      </trkpt>
      <trkpt lat="45.0308" lon="6.36236">
        <ele>1673.8</ele>
        <time>2024-08-10T12:13:04Z</time>
      </trkpt>
      <trkpt lat="45.03078" lon="6.36238">
        <ele>1673.6</ele>
        <time>2024-08-10T12:13:05Z</time>
      </trkpt>
      <trkpt lat="45.03078" lon="6.36238">
        <ele>1673.6</ele>
        <time>2024-08-10T12:13:06Z</time>
      </trkpt>
      <trkpt lat="45.03078" lon="6.36238">
        <ele>1673.6</ele>
        <time>2024-08-10T12:13:07Z</time>
      </trkpt>
      <trkpt lat="45.03078" lon="6.36238">
        <ele>1673.6</ele>
        <time>2024-08-10T12:13:08Z</time>
      </trkpt>
      <trkpt lat="45.03078" lon="6.36238">
        <ele>1673.6</ele>
        <time>2024-08-10T12:13:09Z</time>
      </trkpt>
      <trkpt lat="45.03078" lon="6.36238">
        <ele>1673.8</ele>
        <time>2024-08-10T12:13:10Z</time>
      </trkpt>
      <trkpt lat="45.03078" lon="6.36238">
        <ele>1673.8</ele>
        <time>2024-08-10T12:13:11Z</time>
      </trkpt>
      <trkpt lat="45.03078" lon="6.36238">
        <ele>1673.8</ele>
        <time>2024-08-10T12:13:12Z</time>
      </trkpt>
      <trkpt lat="45.03078" lon="6.36238">
        <ele>1673.8</ele>
        <time>2024-08-10T12:13:13Z</time>
      </trkpt>
      <trkpt lat="45.03078" lon="6.36238">
        <ele>1674</ele>
        <time>2024-08-10T12:13:14Z</time>
      </trkpt>
      <trkpt lat="45.03078" lon="6.36238">
        <ele>1674.2</ele>
        <time>2024-08-10T12:13:15Z</time>
      </trkpt>
      <trkpt lat="45.03078" lon="6.36238">
        <ele>1674.2</ele>
        <time>2024-08-10T12:13:16Z</time>
      </trkpt>
      <trkpt lat="45.03078" lon="6.36238">
        <ele>1674.2</ele>
        <time>2024-08-10T12:13:17Z</time>
      </trkpt>
      <trkpt lat="45.03078" lon="6.36238">
        <ele>1674</ele>
        <time>2024-08-10T12:13:18Z</time>
      </trkpt>
      <trkpt lat="45.03078" lon="6.36238">
        <ele>1674</ele>
        <time>2024-08-10T12:13:19Z</time>
      </trkpt>
      <trkpt lat="45.03078" lon="6.36238">
        <ele>1674</ele>
        <time>2024-08-10T12:13:20Z</time>
      </trkpt>
      <trkpt lat="45.03078" lon="6.36238">
        <ele>1674</ele>
        <time>2024-08-10T12:13:21Z</time>
      </trkpt>
      <trkpt lat="45.03078" lon="6.36238">
        <ele>1674</ele>
        <time>2024-08-10T12:13:22Z</time>
      </trkpt>
      <trkpt lat="45.03078" lon="6.36238">
        <ele>1673.8</ele>
        <time>2024-08-10T12:13:23Z</time>
      </trkpt>
      <trkpt lat="45.03078" lon="6.36238">
        <ele>1673.8</ele>
        <time>2024-08-10T12:13:24Z</time>
      </trkpt>
      <trkpt lat="45.03078" lon="6.36238">
        <ele>1673.8</ele>
        <time>2024-08-10T12:13:25Z</time>
      </trkpt>
      <trkpt lat="45.03078" lon="6.36238">
        <ele>1673.8</ele>
        <time>2024-08-10T12:13:26Z</time>
      </trkpt>
      <trkpt lat="45.03078" lon="6.36238">
        <ele>1673.6</ele>
        <time>2024-08-10T12:13:27Z</time>
      </trkpt>
      <trkpt lat="45.03078" lon="6.36238">
        <ele>1673.6</ele>
        <time>2024-08-10T12:13:28Z</time>
      </trkpt>
      <trkpt lat="45.03078" lon="6.36238">
        <ele>1673.6</ele>
        <time>2024-08-10T12:13:29Z</time>
      </trkpt>
      <trkpt lat="45.03078" lon="6.36238">
        <ele>1673.6</ele>
        <time>2024-08-10T12:13:30Z</time>
      </trkpt>
      <trkpt lat="45.03078" lon="6.36238">
        <ele>1673.6</ele>
        <time>2024-08-10T12:13:31Z</time>
      </trkpt>
      <trkpt lat="45.03078" lon="6.36238">
        <ele>1673.6</ele>
        <time>2024-08-10T12:13:32Z</time>
      </trkpt>
      <trkpt lat="45.03078" lon="6.36238">
        <ele>1673.6</ele>
        <time>2024-08-10T12:13:33Z</time>
      </trkpt>
      <trkpt lat="45.03078" lon="6.36238">
        <ele>1673.6</ele>
        <time>2024-08-10T12:13:34Z</time>
      </trkpt>
      <trkpt lat="45.03078" lon="6.36238">
        <ele>1673.6</ele>
        <time>2024-08-10T12:13:35Z</time>
      </trkpt>
      <trkpt lat="45.03078" lon="6.36238">
        <ele>1673.6</ele>
        <time>2024-08-10T12:13:36Z</time>
      </trkpt>
      <trkpt lat="45.03078" lon="6.36238">
        <ele>1673.4</ele>
        <time>2024-08-10T12:13:37Z</time>
      </trkpt>
      <trkpt lat="45.03078" lon="6.36238">
        <ele>1673.4</ele>
        <time>2024-08-10T12:13:38Z</time>
      </trkpt>
      <trkpt lat="45.03078" lon="6.36238">
        <ele>1673.4</ele>
        <time>2024-08-10T12:13:39Z</time>
      </trkpt>
      <trkpt lat="45.03078" lon="6.36238">
        <ele>1673.4</ele>
        <time>2024-08-10T12:13:40Z</time>
      </trkpt>
      <trkpt lat="45.03078" lon="6.36238">
        <ele>1673.4</ele>
        <time>2024-08-10T12:13:41Z</time>
      </trkpt>
      <trkpt lat="45.03078" lon="6.36238">
        <ele>1673.4</ele>
        <time>2024-08-10T12:13:42Z</time>
      </trkpt>
      <trkpt lat="45.03078" lon="6.36238">
        <ele>1673.4</ele>
        <time>2024-08-10T12:13:43Z</time>
      </trkpt>
      <trkpt lat="45.03078" lon="6.36238">
        <ele>1673.6</ele>
        <time>2024-08-10T12:13:44Z</time>
      </trkpt>
      <trkpt lat="45.03078" lon="6.36238">
        <ele>1673.6</ele>
        <time>2024-08-10T12:13:45Z</time>
      </trkpt>
      <trkpt lat="45.03078" lon="6.36238">
        <ele>1673.6</ele>
        <time>2024-08-10T12:13:46Z</time>
      </trkpt>
      <trkpt lat="45.03078" lon="6.36238">
        <ele>1673.6</ele>
        <time>2024-08-10T12:13:47Z</time>
      </trkpt>
      <trkpt lat="45.03078" lon="6.36238">
        <ele>1673.6</ele>
        <time>2024-08-10T12:13:48Z</time>
      </trkpt>
      <trkpt lat="45.03078" lon="6.36238">
        <ele>1673.6</ele>
        <time>2024-08-10T12:13:49Z</time>
      </trkpt>
      <trkpt lat="45.03078" lon="6.36238">
        <ele>1673.6</ele>
        <time>2024-08-10T12:13:50Z</time>
      </trkpt>
      <trkpt lat="45.03078" lon="6.36238">
        <ele>1673.6</ele>
        <time>2024-08-10T12:13:51Z</time>
      </trkpt>
      <trkpt lat="45.03078" lon="6.36238">
        <ele>1673.6</ele>
        <time>2024-08-10T12:13:52Z</time>
      </trkpt>
      <trkpt lat="45.03078" lon="6.36238">
        <ele>1673.6</ele>
        <time>2024-08-10T12:13:53Z</time>
      </trkpt>
      <trkpt lat="45.03078" lon="6.36238">
        <ele>1673.6</ele>
        <time>2024-08-10T12:13:54Z</time>
      </trkpt>
      <trkpt lat="45.03078" lon="6.36238">
        <ele>1673.6</ele>
        <time>2024-08-10T12:13:55Z</time>
      </trkpt>
      <trkpt lat="45.03078" lon="6.36238">
        <ele>1673.6</ele>
        <time>2024-08-10T12:13:56Z</time>
      </trkpt>
      <trkpt lat="45.03078" lon="6.36238">
        <ele>1673.6</ele>
        <time>2024-08-10T12:13:57Z</time>
      </trkpt>
      <trkpt lat="45.03078" lon="6.36238">
        <ele>1673.6</ele>
        <time>2024-08-10T12:13:58Z</time>
      </trkpt>
      <trkpt lat="45.03078" lon="6.36238">
        <ele>1673.6</ele>
        <time>2024-08-10T12:13:59Z</time>
      </trkpt>
      <trkpt lat="45.03078" lon="6.36238">
        <ele>1673.6</ele>
        <time>2024-08-10T12:14:00Z</time>
      </trkpt>
      <trkpt lat="45.03078" lon="6.36238">
        <ele>1673.6</ele>
        <time>2024-08-10T12:14:01Z</time>
      </trkpt>
      <trkpt lat="45.03078" lon="6.36238">
        <ele>1673.4</ele>
        <time>2024-08-10T12:14:02Z</time>
      </trkpt>
      <trkpt lat="45.03078" lon="6.36238">
        <ele>1673.2</ele>
        <time>2024-08-10T12:14:03Z</time>
      </trkpt>
      <trkpt lat="45.03078" lon="6.36238">
        <ele>1673.2</ele>
        <time>2024-08-10T12:14:04Z</time>
      </trkpt>
      <trkpt lat="45.03078" lon="6.36238">
        <ele>1673.2</ele>
        <time>2024-08-10T12:14:05Z</time>
      </trkpt>
      <trkpt lat="45.03078" lon="6.36238">
        <ele>1673</ele>
        <time>2024-08-10T12:14:06Z</time>
      </trkpt>
      <trkpt lat="45.03078" lon="6.36238">
        <ele>1673</ele>
        <time>2024-08-10T12:14:07Z</time>
      </trkpt>
      <trkpt lat="45.03078" lon="6.36238">
        <ele>1673</ele>
        <time>2024-08-10T12:14:08Z</time>
      </trkpt>
      <trkpt lat="45.03078" lon="6.36238">
        <ele>1673.4</ele>
        <time>2024-08-10T12:14:09Z</time>
      </trkpt>
      <trkpt lat="45.03078" lon="6.36238">
        <ele>1673.4</ele>
        <time>2024-08-10T12:14:10Z</time>
      </trkpt>
      <trkpt lat="45.03078" lon="6.36238">
        <ele>1673.2</ele>
        <time>2024-08-10T12:14:11Z</time>
      </trkpt>
      <trkpt lat="45.03078" lon="6.36238">
        <ele>1673.2</ele>
        <time>2024-08-10T12:14:12Z</time>
      </trkpt>
      <trkpt lat="45.03078" lon="6.36238">
        <ele>1673.2</ele>
        <time>2024-08-10T12:14:13Z</time>
      </trkpt>
      <trkpt lat="45.03078" lon="6.36238">
        <ele>1673.2</ele>
        <time>2024-08-10T12:14:14Z</time>
      </trkpt>
      <trkpt lat="45.03078" lon="6.36238">
        <ele>1673.2</ele>
        <time>2024-08-10T12:14:15Z</time>
      </trkpt>
      <trkpt lat="45.03078" lon="6.36238">
        <ele>1673.2</ele>
        <time>2024-08-10T12:14:16Z</time>
      </trkpt>
      <trkpt lat="45.03078" lon="6.36238">
        <ele>1673.2</ele>
        <time>2024-08-10T12:14:17Z</time>
      </trkpt>
      <trkpt lat="45.03078" lon="6.36238">
        <ele>1673.2</ele>
        <time>2024-08-10T12:14:18Z</time>
      </trkpt>
      <trkpt lat="45.03078" lon="6.36238">
        <ele>1673.2</ele>
        <time>2024-08-10T12:14:19Z</time>
      </trkpt>
      <trkpt lat="45.03078" lon="6.36238">
        <ele>1673.2</ele>
        <time>2024-08-10T12:14:20Z</time>
      </trkpt>
      <trkpt lat="45.03078" lon="6.36238">
        <ele>1673</ele>
        <time>2024-08-10T12:14:21Z</time>
      </trkpt>
      <trkpt lat="45.03078" lon="6.36238">
        <ele>1673</ele>
        <time>2024-08-10T12:14:22Z</time>
      </trkpt>
      <trkpt lat="45.03078" lon="6.36238">
        <ele>1673</ele>
        <time>2024-08-10T12:14:23Z</time>
      </trkpt>
      <trkpt lat="45.03078" lon="6.36238">
        <ele>1673.2</ele>
        <time>2024-08-10T12:14:24Z</time>
      </trkpt>
      <trkpt lat="45.03078" lon="6.36238">
        <ele>1673.2</ele>
        <time>2024-08-10T12:14:25Z</time>
      </trkpt>
      <trkpt lat="45.03078" lon="6.36238">
        <ele>1673.2</ele>
        <time>2024-08-10T12:14:26Z</time>
      </trkpt>
      <trkpt lat="45.03078" lon="6.36238">
        <ele>1673.2</ele>
        <time>2024-08-10T12:14:27Z</time>
      </trkpt>
      <trkpt lat="45.03078" lon="6.36238">
        <ele>1673.2</ele>
        <time>2024-08-10T12:14:28Z</time>
      </trkpt>
      <trkpt lat="45.03078" lon="6.36238">
        <ele>1673</ele>
        <time>2024-08-10T12:14:29Z</time>
      </trkpt>
      <trkpt lat="45.03078" lon="6.36238">
        <ele>1673</ele>
        <time>2024-08-10T12:14:30Z</time>
      </trkpt>
      <trkpt lat="45.03078" lon="6.36238">
        <ele>1673.2</ele>
        <time>2024-08-10T12:14:31Z</time>
      </trkpt>
      <trkpt lat="45.03078" lon="6.36238">
        <ele>1673.2</ele>
        <time>2024-08-10T12:14:32Z</time>
      </trkpt>
      <trkpt lat="45.03078" lon="6.36238">
        <ele>1673.2</ele>
        <time>2024-08-10T12:14:33Z</time>
      </trkpt>
      <trkpt lat="45.03078" lon="6.36238">
        <ele>1673</ele>
        <time>2024-08-10T12:14:34Z</time>
      </trkpt>
      <trkpt lat="45.03078" lon="6.36238">
        <ele>1673</ele>
        <time>2024-08-10T12:14:35Z</time>
      </trkpt>
      <trkpt lat="45.03078" lon="6.36238">
        <ele>1673</ele>
        <time>2024-08-10T12:14:36Z</time>
      </trkpt>
      <trkpt lat="45.03078" lon="6.36238">
        <ele>1673</ele>
        <time>2024-08-10T12:14:37Z</time>
      </trkpt>
      <trkpt lat="45.03078" lon="6.36238">
        <ele>1673.2</ele>
        <time>2024-08-10T12:14:38Z</time>
      </trkpt>
      <trkpt lat="45.03078" lon="6.36238">
        <ele>1673.2</ele>
        <time>2024-08-10T12:14:39Z</time>
      </trkpt>
      <trkpt lat="45.03078" lon="6.36238">
        <ele>1673.2</ele>
        <time>2024-08-10T12:14:40Z</time>
      </trkpt>
      <trkpt lat="45.03078" lon="6.36238">
        <ele>1673</ele>
        <time>2024-08-10T12:14:41Z</time>
      </trkpt>
      <trkpt lat="45.03078" lon="6.36238">
        <ele>1673</ele>
        <time>2024-08-10T12:14:42Z</time>
      </trkpt>
      <trkpt lat="45.03078" lon="6.36238">
        <ele>1673</ele>
        <time>2024-08-10T12:14:43Z</time>
      </trkpt>
      <trkpt lat="45.03078" lon="6.36238">
        <ele>1673</ele>
        <time>2024-08-10T12:14:44Z</time>
      </trkpt>
      <trkpt lat="45.03078" lon="6.36238">
        <ele>1673</ele>
        <time>2024-08-10T12:14:45Z</time>
      </trkpt>
      <trkpt lat="45.03078" lon="6.36238">
        <ele>1673</ele>
        <time>2024-08-10T12:14:46Z</time>
      </trkpt>
      <trkpt lat="45.03078" lon="6.36238">
        <ele>1672.6</ele>
        <time>2024-08-10T12:14:47Z</time>
      </trkpt>
      <trkpt lat="45.03078" lon="6.36238">
        <ele>1672.6</ele>
        <time>2024-08-10T12:14:48Z</time>
      </trkpt>
      <trkpt lat="45.03078" lon="6.36238">
        <ele>1673</ele>
        <time>2024-08-10T12:14:49Z</time>
      </trkpt>
      <trkpt lat="45.03078" lon="6.36238">
        <ele>1673</ele>
        <time>2024-08-10T12:14:50Z</time>
      </trkpt>
      <trkpt lat="45.03078" lon="6.36238">
        <ele>1672.8</ele>
        <time>2024-08-10T12:14:51Z</time>
      </trkpt>
      <trkpt lat="45.03078" lon="6.36238">
        <ele>1672.8</ele>
        <time>2024-08-10T12:14:52Z</time>
      </trkpt>
      <trkpt lat="45.03078" lon="6.36238">
        <ele>1673</ele>
        <time>2024-08-10T12:14:53Z</time>
      </trkpt>
      <trkpt lat="45.03078" lon="6.36238">
        <ele>1673</ele>
        <time>2024-08-10T12:14:54Z</time>
      </trkpt>
      <trkpt lat="45.03078" lon="6.36238">
        <ele>1673.2</ele>
        <time>2024-08-10T12:14:55Z</time>
      </trkpt>
      <trkpt lat="45.03078" lon="6.36238">
        <ele>1673</ele>
        <time>2024-08-10T12:14:56Z</time>
      </trkpt>
      <trkpt lat="45.03078" lon="6.36238">
        <ele>1673</ele>
        <time>2024-08-10T12:14:57Z</time>
      </trkpt>
      <trkpt lat="45.03078" lon="6.36238">
        <ele>1673</ele>
        <time>2024-08-10T12:14:58Z</time>
      </trkpt>
      <trkpt lat="45.03078" lon="6.36238">
        <ele>1673</ele>
        <time>2024-08-10T12:14:59Z</time>
      </trkpt>
      <trkpt lat="45.03078" lon="6.36238">
        <ele>1673</ele>
        <time>2024-08-10T12:15:00Z</time>
      </trkpt>
      <trkpt lat="45.03078" lon="6.36238">
        <ele>1673</ele>
        <time>2024-08-10T12:15:01Z</time>
      </trkpt>
      <trkpt lat="45.03078" lon="6.36238">
        <ele>1673.2</ele>
        <time>2024-08-10T12:15:02Z</time>
      </trkpt>
      <trkpt lat="45.03078" lon="6.36238">
        <ele>1673.2</ele>
        <time>2024-08-10T12:15:03Z</time>
      </trkpt>
      <trkpt lat="45.03078" lon="6.36238">
        <ele>1673.2</ele>
        <time>2024-08-10T12:15:04Z</time>
      </trkpt>
      <trkpt lat="45.03078" lon="6.36238">
        <ele>1673.2</ele>
        <time>2024-08-10T12:15:05Z</time>
      </trkpt>
      <trkpt lat="45.03078" lon="6.36238">
        <ele>1673.4</ele>
        <time>2024-08-10T12:15:06Z</time>
      </trkpt>
      <trkpt lat="45.03078" lon="6.36238">
        <ele>1673.4</ele>
        <time>2024-08-10T12:15:07Z</time>
      </trkpt>
      <trkpt lat="45.03078" lon="6.36238">
        <ele>1673.4</ele>
        <time>2024-08-10T12:15:08Z</time>
      </trkpt>
      <trkpt lat="45.03078" lon="6.36238">
        <ele>1673.4</ele>
        <time>2024-08-10T12:15:09Z</time>
      </trkpt>
      <trkpt lat="45.03078" lon="6.36238">
        <ele>1673.2</ele>
        <time>2024-08-10T12:15:10Z</time>
      </trkpt>
      <trkpt lat="45.03078" lon="6.36238">
        <ele>1673.2</ele>
        <time>2024-08-10T12:15:11Z</time>
      </trkpt>
      <trkpt lat="45.03078" lon="6.36238">
        <ele>1673.2</ele>
        <time>2024-08-10T12:15:12Z</time>
      </trkpt>
      <trkpt lat="45.03078" lon="6.36238">
        <ele>1673.4</ele>
        <time>2024-08-10T12:15:13Z</time>
      </trkpt>
      <trkpt lat="45.03078" lon="6.36238">
        <ele>1673.4</ele>
        <time>2024-08-10T12:15:14Z</time>
      </trkpt>
      <trkpt lat="45.03078" lon="6.36238">
        <ele>1673.4</ele>
        <time>2024-08-10T12:15:15Z</time>
      </trkpt>
      <trkpt lat="45.03078" lon="6.36238">
        <ele>1673.4</ele>
        <time>2024-08-10T12:15:16Z</time>
      </trkpt>
      <trkpt lat="45.03078" lon="6.36238">
        <ele>1673.4</ele>
        <time>2024-08-10T12:15:17Z</time>
      </trkpt>
      <trkpt lat="45.03078" lon="6.36238">
        <ele>1673.4</ele>
        <time>2024-08-10T12:15:18Z</time>
      </trkpt>
      <trkpt lat="45.03078" lon="6.36238">
        <ele>1673.4</ele>
        <time>2024-08-10T12:15:19Z</time>
      </trkpt>
      <trkpt lat="45.03078" lon="6.36238">
        <ele>1673.4</ele>
        <time>2024-08-10T12:15:20Z</time>
      </trkpt>
      <trkpt lat="45.03078" lon="6.36238">
        <ele>1673.2</ele>
        <time>2024-08-10T12:15:21Z</time>
      </trkpt>
      <trkpt lat="45.03078" lon="6.36238">
        <ele>1673.2</ele>
        <time>2024-08-10T12:15:22Z</time>
      </trkpt>
      <trkpt lat="45.03078" lon="6.36238">
        <ele>1673.2</ele>
        <time>2024-08-10T12:15:23Z</time>
      </trkpt>
      <trkpt lat="45.03078" lon="6.36238">
        <ele>1673.2</ele>
        <time>2024-08-10T12:15:24Z</time>
      </trkpt>
      <trkpt lat="45.03078" lon="6.36238">
        <ele>1673.2</ele>
        <time>2024-08-10T12:15:25Z</time>
      </trkpt>
      <trkpt lat="45.03078" lon="6.36238">
        <ele>1673.2</ele>
        <time>2024-08-10T12:15:26Z</time>
      </trkpt>
      <trkpt lat="45.03078" lon="6.36238">
        <ele>1673.2</ele>
        <time>2024-08-10T12:15:27Z</time>
      </trkpt>
      <trkpt lat="45.03078" lon="6.36238">
        <ele>1673</ele>
        <time>2024-08-10T12:15:28Z</time>
      </trkpt>
      <trkpt lat="45.03078" lon="6.36238">
        <ele>1673</ele>
        <time>2024-08-10T12:15:29Z</time>
      </trkpt>
      <trkpt lat="45.03078" lon="6.36238">
        <ele>1673</ele>
        <time>2024-08-10T12:15:30Z</time>
      </trkpt>
      <trkpt lat="45.03078" lon="6.36238">
        <ele>1673.2</ele>
        <time>2024-08-10T12:15:31Z</time>
      </trkpt>
      <trkpt lat="45.03078" lon="6.36238">
        <ele>1673.2</ele>
        <time>2024-08-10T12:15:32Z</time>
      </trkpt>
      <trkpt lat="45.03078" lon="6.36238">
        <ele>1673</ele>
        <time>2024-08-10T12:15:33Z</time>
      </trkpt>
      <trkpt lat="45.03078" lon="6.36238">
        <ele>1672.8</ele>
        <time>2024-08-10T12:15:34Z</time>
      </trkpt>
      <trkpt lat="45.03078" lon="6.36238">
        <ele>1672.8</ele>
        <time>2024-08-10T12:15:35Z</time>
      </trkpt>
      <trkpt lat="45.03078" lon="6.36238">
        <ele>1672.8</ele>
        <time>2024-08-10T12:15:36Z</time>
      </trkpt>
      <trkpt lat="45.03078" lon="6.36238">
        <ele>1672.8</ele>
        <time>2024-08-10T12:15:37Z</time>
      </trkpt>
      <trkpt lat="45.03078" lon="6.36238">
        <ele>1672.6</ele>
        <time>2024-08-10T12:15:38Z</time>
      </trkpt>
      <trkpt lat="45.03078" lon="6.36238">
        <ele>1672.6</ele>
        <time>2024-08-10T12:15:39Z</time>
      </trkpt>
      <trkpt lat="45.03078" lon="6.36238">
        <ele>1672.6</ele>
        <time>2024-08-10T12:15:40Z</time>
      </trkpt>
      <trkpt lat="45.03078" lon="6.36238">
        <ele>1672.6</ele>
        <time>2024-08-10T12:15:41Z</time>
      </trkpt>
      <trkpt lat="45.03078" lon="6.36238">
        <ele>1672.6</ele>
        <time>2024-08-10T12:15:42Z</time>
      </trkpt>
      <trkpt lat="45.03078" lon="6.36238">
        <ele>1673</ele>
        <time>2024-08-10T12:15:43Z</time>
      </trkpt>
      <trkpt lat="45.03078" lon="6.36238">
        <ele>1673</ele>
        <time>2024-08-10T12:15:44Z</time>
      </trkpt>
      <trkpt lat="45.03078" lon="6.36238">
        <ele>1673</ele>
        <time>2024-08-10T12:15:45Z</time>
      </trkpt>
      <trkpt lat="45.03078" lon="6.36238">
        <ele>1673</ele>
        <time>2024-08-10T12:15:46Z</time>
      </trkpt>
      <trkpt lat="45.03078" lon="6.36238">
        <ele>1673</ele>
        <time>2024-08-10T12:15:47Z</time>
      </trkpt>
      <trkpt lat="45.03078" lon="6.36238">
        <ele>1673</ele>
        <time>2024-08-10T12:15:48Z</time>
      </trkpt>
      <trkpt lat="45.03078" lon="6.36238">
        <ele>1672.8</ele>
        <time>2024-08-10T12:15:49Z</time>
      </trkpt>
      <trkpt lat="45.03078" lon="6.36238">
        <ele>1672.8</ele>
        <time>2024-08-10T12:15:50Z</time>
      </trkpt>
      <trkpt lat="45.03078" lon="6.36238">
        <ele>1673</ele>
        <time>2024-08-10T12:15:51Z</time>
      </trkpt>
      <trkpt lat="45.03078" lon="6.36238">
        <ele>1673</ele>
        <time>2024-08-10T12:15:52Z</time>
      </trkpt>
      <trkpt lat="45.03078" lon="6.36238">
        <ele>1673</ele>
        <time>2024-08-10T12:15:53Z</time>
      </trkpt>
      <trkpt lat="45.03078" lon="6.36238">
        <ele>1673</ele>
        <time>2024-08-10T12:15:54Z</time>
      </trkpt>
      <trkpt lat="45.03078" lon="6.36238">
        <ele>1672.8</ele>
        <time>2024-08-10T12:15:55Z</time>
      </trkpt>
      <trkpt lat="45.03078" lon="6.36238">
        <ele>1672.8</ele>
        <time>2024-08-10T12:15:56Z</time>
      </trkpt>
      <trkpt lat="45.03078" lon="6.36238">
        <ele>1672.8</ele>
        <time>2024-08-10T12:15:57Z</time>
      </trkpt>
      <trkpt lat="45.03078" lon="6.36238">
        <ele>1672.8</ele>
        <time>2024-08-10T12:15:58Z</time>
      </trkpt>
      <trkpt lat="45.03078" lon="6.36238">
        <ele>1672.8</ele>
        <time>2024-08-10T12:15:59Z</time>
      </trkpt>
      <trkpt lat="45.03078" lon="6.36238">
        <ele>1672.8</ele>
        <time>2024-08-10T12:16:00Z</time>
      </trkpt>
      <trkpt lat="45.03078" lon="6.36238">
        <ele>1672.8</ele>
        <time>2024-08-10T12:16:01Z</time>
      </trkpt>
      <trkpt lat="45.03078" lon="6.36238">
        <ele>1672.8</ele>
        <time>2024-08-10T12:16:02Z</time>
      </trkpt>
      <trkpt lat="45.03078" lon="6.36238">
        <ele>1673</ele>
        <time>2024-08-10T12:16:03Z</time>
      </trkpt>
      <trkpt lat="45.03078" lon="6.36238">
        <ele>1673</ele>
        <time>2024-08-10T12:16:04Z</time>
      </trkpt>
      <trkpt lat="45.03078" lon="6.36238">
        <ele>1672.8</ele>
        <time>2024-08-10T12:16:05Z</time>
      </trkpt>
      <trkpt lat="45.03078" lon="6.36238">
        <ele>1672.8</ele>
        <time>2024-08-10T12:16:06Z</time>
      </trkpt>
      <trkpt lat="45.03078" lon="6.36238">
        <ele>1672.8</ele>
        <time>2024-08-10T12:16:07Z</time>
      </trkpt>
      <trkpt lat="45.03078" lon="6.36238">
        <ele>1673</ele>
        <time>2024-08-10T12:16:08Z</time>
      </trkpt>
      <trkpt lat="45.03078" lon="6.36238">
        <ele>1672.8</ele>
        <time>2024-08-10T12:16:09Z</time>
      </trkpt>
      <trkpt lat="45.03078" lon="6.36238">
        <ele>1672.8</ele>
        <time>2024-08-10T12:16:10Z</time>
      </trkpt>
      <trkpt lat="45.03078" lon="6.36238">
        <ele>1672.8</ele>
        <time>2024-08-10T12:16:11Z</time>
      </trkpt>
      <trkpt lat="45.03078" lon="6.36238">
        <ele>1673</ele>
        <time>2024-08-10T12:16:12Z</time>
      </trkpt>
      <trkpt lat="45.03078" lon="6.36238">
        <ele>1673</ele>
        <time>2024-08-10T12:16:13Z</time>
      </trkpt>
      <trkpt lat="45.03078" lon="6.36238">
        <ele>1673</ele>
        <time>2024-08-10T12:16:14Z</time>
      </trkpt>
      <trkpt lat="45.03078" lon="6.36238">
        <ele>1673</ele>
        <time>2024-08-10T12:16:15Z</time>
      </trkpt>
      <trkpt lat="45.03078" lon="6.36238">
        <ele>1673</ele>
        <time>2024-08-10T12:16:16Z</time>
      </trkpt>
      <trkpt lat="45.03078" lon="6.36238">
        <ele>1673</ele>
        <time>2024-08-10T12:16:17Z</time>
      </trkpt>
      <trkpt lat="45.03078" lon="6.36238">
        <ele>1673</ele>
        <time>2024-08-10T12:16:18Z</time>
      </trkpt>
      <trkpt lat="45.03078" lon="6.36238">
        <ele>1672.8</ele>
        <time>2024-08-10T12:16:19Z</time>
      </trkpt>
      <trkpt lat="45.03078" lon="6.36238">
        <ele>1672.8</ele>
        <time>2024-08-10T12:16:20Z</time>
      </trkpt>
      <trkpt lat="45.03078" lon="6.36238">
        <ele>1672.8</ele>
        <time>2024-08-10T12:16:21Z</time>
      </trkpt>
      <trkpt lat="45.03078" lon="6.36238">
        <ele>1672.8</ele>
        <time>2024-08-10T12:16:22Z</time>
      </trkpt>
      <trkpt lat="45.03078" lon="6.36238">
        <ele>1672.8</ele>
        <time>2024-08-10T12:16:23Z</time>
      </trkpt>
      <trkpt lat="45.03078" lon="6.36238">
        <ele>1672.8</ele>
        <time>2024-08-10T12:16:24Z</time>
      </trkpt>
      <trkpt lat="45.03078" lon="6.36238">
        <ele>1672.8</ele>
        <time>2024-08-10T12:16:25Z</time>
      </trkpt>
      <trkpt lat="45.03078" lon="6.36238">
        <ele>1672.8</ele>
        <time>2024-08-10T12:16:26Z</time>
      </trkpt>
      <trkpt lat="45.03078" lon="6.36238">
        <ele>1673</ele>
        <time>2024-08-10T12:16:27Z</time>
      </trkpt>
      <trkpt lat="45.03078" lon="6.36238">
        <ele>1673</ele>
        <time>2024-08-10T12:16:28Z</time>
      </trkpt>
      <trkpt lat="45.03078" lon="6.36238">
        <ele>1673</ele>
        <time>2024-08-10T12:16:29Z</time>
      </trkpt>
      <trkpt lat="45.03078" lon="6.36238">
        <ele>1672.8</ele>
        <time>2024-08-10T12:16:30Z</time>
      </trkpt>
      <trkpt lat="45.03078" lon="6.36238">
        <ele>1672.8</ele>
        <time>2024-08-10T12:16:31Z</time>
      </trkpt>
      <trkpt lat="45.03078" lon="6.36238">
        <ele>1672.8</ele>
        <time>2024-08-10T12:16:32Z</time>
      </trkpt>
      <trkpt lat="45.03078" lon="6.36238">
        <ele>1672.8</ele>
        <time>2024-08-10T12:16:33Z</time>
      </trkpt>
      <trkpt lat="45.03078" lon="6.36238">
        <ele>1672.8</ele>
        <time>2024-08-10T12:16:34Z</time>
      </trkpt>
      <trkpt lat="45.03078" lon="6.36238">
        <ele>1672.8</ele>
        <time>2024-08-10T12:16:35Z</time>
      </trkpt>
      <trkpt lat="45.03078" lon="6.36238">
        <ele>1672.8</ele>
        <time>2024-08-10T12:16:36Z</time>
      </trkpt>
      <trkpt lat="45.03078" lon="6.36238">
        <ele>1672.6</ele>
        <time>2024-08-10T12:16:37Z</time>
      </trkpt>
      <trkpt lat="45.03078" lon="6.36238">
        <ele>1672.6</ele>
        <time>2024-08-10T12:16:38Z</time>
      </trkpt>
      <trkpt lat="45.03078" lon="6.36238">
        <ele>1672.8</ele>
        <time>2024-08-10T12:16:39Z</time>
      </trkpt>
      <trkpt lat="45.03078" lon="6.36238">
        <ele>1672.8</ele>
        <time>2024-08-10T12:16:40Z</time>
      </trkpt>
      <trkpt lat="45.03078" lon="6.36238">
        <ele>1672.8</ele>
        <time>2024-08-10T12:16:41Z</time>
      </trkpt>
      <trkpt lat="45.03078" lon="6.36238">
        <ele>1672.8</ele>
        <time>2024-08-10T12:16:42Z</time>
      </trkpt>
      <trkpt lat="45.03078" lon="6.36238">
        <ele>1672.8</ele>
        <time>2024-08-10T12:16:43Z</time>
      </trkpt>
      <trkpt lat="45.03078" lon="6.36238">
        <ele>1672.8</ele>
        <time>2024-08-10T12:16:44Z</time>
      </trkpt>
      <trkpt lat="45.03078" lon="6.36238">
        <ele>1672.8</ele>
        <time>2024-08-10T12:16:45Z</time>
      </trkpt>
      <trkpt lat="45.03078" lon="6.36238">
        <ele>1672.8</ele>
        <time>2024-08-10T12:16:46Z</time>
      </trkpt>
      <trkpt lat="45.03078" lon="6.36238">
        <ele>1672.8</ele>
        <time>2024-08-10T12:16:47Z</time>
      </trkpt>
      <trkpt lat="45.03078" lon="6.36238">
        <ele>1672.8</ele>
        <time>2024-08-10T12:16:48Z</time>
      </trkpt>
      <trkpt lat="45.03078" lon="6.36238">
        <ele>1672.8</ele>
        <time>2024-08-10T12:16:49Z</time>
      </trkpt>
      <trkpt lat="45.03078" lon="6.36238">
        <ele>1672.8</ele>
        <time>2024-08-10T12:16:50Z</time>
      </trkpt>
      <trkpt lat="45.03078" lon="6.36238">
        <ele>1672.8</ele>
        <time>2024-08-10T12:16:51Z</time>
      </trkpt>
      <trkpt lat="45.03078" lon="6.36238">
        <ele>1672.8</ele>
        <time>2024-08-10T12:16:52Z</time>
      </trkpt>
      <trkpt lat="45.03078" lon="6.36238">
        <ele>1672.6</ele>
        <time>2024-08-10T12:16:53Z</time>
      </trkpt>
      <trkpt lat="45.03078" lon="6.36238">
        <ele>1672.6</ele>
        <time>2024-08-10T12:16:54Z</time>
      </trkpt>
      <trkpt lat="45.03078" lon="6.36238">
        <ele>1672.6</ele>
        <time>2024-08-10T12:16:55Z</time>
      </trkpt>
      <trkpt lat="45.03078" lon="6.36238">
        <ele>1672.6</ele>
        <time>2024-08-10T12:16:56Z</time>
      </trkpt>
      <trkpt lat="45.03078" lon="6.36238">
        <ele>1672.6</ele>
        <time>2024-08-10T12:16:57Z</time>
      </trkpt>
      <trkpt lat="45.03078" lon="6.36238">
        <ele>1672.8</ele>
        <time>2024-08-10T12:16:58Z</time>
      </trkpt>
      <trkpt lat="45.03078" lon="6.36238">
        <ele>1672.8</ele>
        <time>2024-08-10T12:16:59Z</time>
      </trkpt>
      <trkpt lat="45.03078" lon="6.36238">
        <ele>1672.8</ele>
        <time>2024-08-10T12:17:00Z</time>
      </trkpt>
      <trkpt lat="45.03078" lon="6.36238">
        <ele>1672.8</ele>
        <time>2024-08-10T12:17:01Z</time>
      </trkpt>
      <trkpt lat="45.03078" lon="6.36238">
        <ele>1672.8</ele>
        <time>2024-08-10T12:17:02Z</time>
      </trkpt>
      <trkpt lat="45.03078" lon="6.36238">
        <ele>1672.6</ele>
        <time>2024-08-10T12:17:03Z</time>
      </trkpt>
      <trkpt lat="45.03078" lon="6.36238">
        <ele>1672.6</ele>
        <time>2024-08-10T12:17:04Z</time>
      </trkpt>
      <trkpt lat="45.03078" lon="6.36238">
        <ele>1672.8</ele>
        <time>2024-08-10T12:17:05Z</time>
      </trkpt>
      <trkpt lat="45.03078" lon="6.36238">
        <ele>1672.8</ele>
        <time>2024-08-10T12:17:06Z</time>
      </trkpt>
      <trkpt lat="45.03078" lon="6.36238">
        <ele>1672.8</ele>
        <time>2024-08-10T12:17:07Z</time>
      </trkpt>
      <trkpt lat="45.03078" lon="6.36238">
        <ele>1672.6</ele>
        <time>2024-08-10T12:17:08Z</time>
      </trkpt>
      <trkpt lat="45.03078" lon="6.36238">
        <ele>1672.6</ele>
        <time>2024-08-10T12:17:09Z</time>
      </trkpt>
      <trkpt lat="45.03078" lon="6.36238">
        <ele>1672.6</ele>
        <time>2024-08-10T12:17:10Z</time>
      </trkpt>
      <trkpt lat="45.03078" lon="6.36238">
        <ele>1672.6</ele>
        <time>2024-08-10T12:17:11Z</time>
      </trkpt>
      <trkpt lat="45.03078" lon="6.36238">
        <ele>1672.6</ele>
        <time>2024-08-10T12:17:12Z</time>
      </trkpt>
      <trkpt lat="45.03078" lon="6.36238">
        <ele>1672.6</ele>
        <time>2024-08-10T12:17:13Z</time>
      </trkpt>
      <trkpt lat="45.03078" lon="6.36238">
        <ele>1672.6</ele>
        <time>2024-08-10T12:17:14Z</time>
      </trkpt>
      <trkpt lat="45.03078" lon="6.36238">
        <ele>1672.6</ele>
        <time>2024-08-10T12:17:15Z</time>
      </trkpt>
      <trkpt lat="45.03078" lon="6.36238">
        <ele>1672.8</ele>
        <time>2024-08-10T12:17:16Z</time>
      </trkpt>
      <trkpt lat="45.03078" lon="6.36238">
        <ele>1672.8</ele>
        <time>2024-08-10T12:17:17Z</time>
      </trkpt>
      <trkpt lat="45.03078" lon="6.36238">
        <ele>1672.6</ele>
        <time>2024-08-10T12:17:18Z</time>
      </trkpt>
      <trkpt lat="45.03078" lon="6.36238">
        <ele>1672.6</ele>
        <time>2024-08-10T12:17:19Z</time>
      </trkpt>
      <trkpt lat="45.03078" lon="6.36238">
        <ele>1672.6</ele>
        <time>2024-08-10T12:17:20Z</time>
      </trkpt>
      <trkpt lat="45.03078" lon="6.36238">
        <ele>1672.8</ele>
        <time>2024-08-10T12:17:21Z</time>
      </trkpt>
      <trkpt lat="45.03078" lon="6.36238">
        <ele>1672.8</ele>
        <time>2024-08-10T12:17:22Z</time>
      </trkpt>
      <trkpt lat="45.03078" lon="6.36238">
        <ele>1672.8</ele>
        <time>2024-08-10T12:17:23Z</time>
      </trkpt>
      <trkpt lat="45.03078" lon="6.36238">
        <ele>1672.8</ele>
        <time>2024-08-10T12:17:24Z</time>
      </trkpt>
      <trkpt lat="45.03078" lon="6.36238">
        <ele>1672.6</ele>
        <time>2024-08-10T12:17:25Z</time>
      </trkpt>
      <trkpt lat="45.03078" lon="6.36238">
        <ele>1672.6</ele>
        <time>2024-08-10T12:17:26Z</time>
      </trkpt>
      <trkpt lat="45.03078" lon="6.36238">
        <ele>1672.6</ele>
        <time>2024-08-10T12:17:27Z</time>
      </trkpt>
      <trkpt lat="45.03078" lon="6.36238">
        <ele>1672.6</ele>
        <time>2024-08-10T12:17:28Z</time>
      </trkpt>
      <trkpt lat="45.03078" lon="6.36238">
        <ele>1672.4</ele>
        <time>2024-08-10T12:17:29Z</time>
      </trkpt>
      <trkpt lat="45.03078" lon="6.36238">
        <ele>1672.4</ele>
        <time>2024-08-10T12:17:30Z</time>
      </trkpt>
      <trkpt lat="45.03078" lon="6.36238">
        <ele>1672.6</ele>
        <time>2024-08-10T12:17:31Z</time>
      </trkpt>
      <trkpt lat="45.03078" lon="6.36238">
        <ele>1672.6</ele>
        <time>2024-08-10T12:17:32Z</time>
      </trkpt>
      <trkpt lat="45.03078" lon="6.36238">
        <ele>1672.4</ele>
        <time>2024-08-10T12:17:33Z</time>
      </trkpt>
      <trkpt lat="45.03078" lon="6.36238">
        <ele>1672.4</ele>
        <time>2024-08-10T12:17:34Z</time>
      </trkpt>
      <trkpt lat="45.03078" lon="6.36238">
        <ele>1672.4</ele>
        <time>2024-08-10T12:17:35Z</time>
      </trkpt>
      <trkpt lat="45.03078" lon="6.36238">
        <ele>1672.4</ele>
        <time>2024-08-10T12:17:36Z</time>
      </trkpt>
      <trkpt lat="45.03078" lon="6.36238">
        <ele>1672.4</ele>
        <time>2024-08-10T12:17:37Z</time>
      </trkpt>
      <trkpt lat="45.03078" lon="6.36238">
        <ele>1672.6</ele>
        <time>2024-08-10T12:17:38Z</time>
      </trkpt>
      <trkpt lat="45.03078" lon="6.36238">
        <ele>1672.6</ele>
        <time>2024-08-10T12:17:39Z</time>
      </trkpt>
      <trkpt lat="45.03078" lon="6.36238">
        <ele>1672.6</ele>
        <time>2024-08-10T12:17:40Z</time>
      </trkpt>
      <trkpt lat="45.03078" lon="6.36238">
        <ele>1672.6</ele>
        <time>2024-08-10T12:17:41Z</time>
      </trkpt>
      <trkpt lat="45.03078" lon="6.36238">
        <ele>1672.6</ele>
        <time>2024-08-10T12:17:42Z</time>
      </trkpt>
      <trkpt lat="45.03078" lon="6.36238">
        <ele>1672.6</ele>
        <time>2024-08-10T12:17:43Z</time>
      </trkpt>
      <trkpt lat="45.03078" lon="6.36238">
        <ele>1672.6</ele>
        <time>2024-08-10T12:17:44Z</time>
      </trkpt>
      <trkpt lat="45.03078" lon="6.36238">
        <ele>1672.4</ele>
        <time>2024-08-10T12:17:45Z</time>
      </trkpt>
      <trkpt lat="45.03078" lon="6.36238">
        <ele>1672.4</ele>
        <time>2024-08-10T12:17:46Z</time>
      </trkpt>
      <trkpt lat="45.03078" lon="6.36238">
        <ele>1672.4</ele>
        <time>2024-08-10T12:17:47Z</time>
      </trkpt>
      <trkpt lat="45.03078" lon="6.36238">
        <ele>1672.4</ele>
        <time>2024-08-10T12:17:48Z</time>
      </trkpt>
      <trkpt lat="45.03078" lon="6.36238">
        <ele>1672.4</ele>
        <time>2024-08-10T12:17:49Z</time>
      </trkpt>
      <trkpt lat="45.03078" lon="6.36238">
        <ele>1672.6</ele>
        <time>2024-08-10T12:17:50Z</time>
      </trkpt>
      <trkpt lat="45.03078" lon="6.36238">
        <ele>1672.6</ele>
        <time>2024-08-10T12:17:51Z</time>
      </trkpt>
      <trkpt lat="45.03078" lon="6.36238">
        <ele>1672.4</ele>
        <time>2024-08-10T12:17:52Z</time>
      </trkpt>
      <trkpt lat="45.03078" lon="6.36238">
        <ele>1672.4</ele>
        <time>2024-08-10T12:17:53Z</time>
      </trkpt>
      <trkpt lat="45.03078" lon="6.36238">
        <ele>1672.6</ele>
        <time>2024-08-10T12:17:54Z</time>
      </trkpt>
      <trkpt lat="45.03078" lon="6.36238">
        <ele>1672.6</ele>
        <time>2024-08-10T12:17:55Z</time>
      </trkpt>
      <trkpt lat="45.03078" lon="6.36238">
        <ele>1672.6</ele>
        <time>2024-08-10T12:17:56Z</time>
      </trkpt>
      <trkpt lat="45.03078" lon="6.36238">
        <ele>1672.6</ele>
        <time>2024-08-10T12:17:57Z</time>
      </trkpt>
      <trkpt lat="45.03078" lon="6.36238">
        <ele>1672.6</ele>
        <time>2024-08-10T12:17:58Z</time>
      </trkpt>
      <trkpt lat="45.03078" lon="6.36238">
        <ele>1672.6</ele>
        <time>2024-08-10T12:17:59Z</time>
      </trkpt>
      <trkpt lat="45.03078" lon="6.36238">
        <ele>1672.6</ele>
        <time>2024-08-10T12:18:00Z</time>
      </trkpt>
      <trkpt lat="45.03078" lon="6.36238">
        <ele>1672.6</ele>
        <time>2024-08-10T12:18:01Z</time>
      </trkpt>
      <trkpt lat="45.03078" lon="6.36238">
        <ele>1672.6</ele>
        <time>2024-08-10T12:18:02Z</time>
      </trkpt>
      <trkpt lat="45.03078" lon="6.36238">
        <ele>1672.8</ele>
        <time>2024-08-10T12:18:03Z</time>
      </trkpt>
      <trkpt lat="45.03078" lon="6.36238">
        <ele>1672.8</ele>
        <time>2024-08-10T12:18:04Z</time>
      </trkpt>
      <trkpt lat="45.03078" lon="6.36238">
        <ele>1672.8</ele>
        <time>2024-08-10T12:18:05Z</time>
      </trkpt>
      <trkpt lat="45.03078" lon="6.36238">
        <ele>1672.6</ele>
        <time>2024-08-10T12:18:06Z</time>
      </trkpt>
      <trkpt lat="45.03078" lon="6.36238">
        <ele>1672.6</ele>
        <time>2024-08-10T12:18:07Z</time>
      </trkpt>
      <trkpt lat="45.03078" lon="6.36238">
        <ele>1672.6</ele>
        <time>2024-08-10T12:18:08Z</time>
      </trkpt>
      <trkpt lat="45.03078" lon="6.36238">
        <ele>1672.6</ele>
        <time>2024-08-10T12:18:09Z</time>
      </trkpt>
      <trkpt lat="45.03078" lon="6.36238">
        <ele>1672.6</ele>
        <time>2024-08-10T12:18:10Z</time>
      </trkpt>
      <trkpt lat="45.03078" lon="6.36238">
        <ele>1672.6</ele>
        <time>2024-08-10T12:18:11Z</time>
      </trkpt>
      <trkpt lat="45.03078" lon="6.36238">
        <ele>1672.6</ele>
        <time>2024-08-10T12:18:12Z</time>
      </trkpt>
      <trkpt lat="45.03078" lon="6.36238">
        <ele>1672.6</ele>
        <time>2024-08-10T12:18:13Z</time>
      </trkpt>
      <trkpt lat="45.03078" lon="6.36238">
        <ele>1672.8</ele>
        <time>2024-08-10T12:18:14Z</time>
      </trkpt>
      <trkpt lat="45.03078" lon="6.36238">
        <ele>1672.8</ele>
        <time>2024-08-10T12:18:15Z</time>
      </trkpt>
      <trkpt lat="45.03078" lon="6.36238">
        <ele>1672.8</ele>
        <time>2024-08-10T12:18:16Z</time>
      </trkpt>
      <trkpt lat="45.03078" lon="6.36238">
        <ele>1672.8</ele>
        <time>2024-08-10T12:18:17Z</time>
      </trkpt>
      <trkpt lat="45.03078" lon="6.36238">
        <ele>1672.6</ele>
        <time>2024-08-10T12:18:18Z</time>
      </trkpt>
      <trkpt lat="45.03078" lon="6.36238">
        <ele>1672.6</ele>
        <time>2024-08-10T12:18:19Z</time>
      </trkpt>
      <trkpt lat="45.03078" lon="6.36238">
        <ele>1672.6</ele>
        <time>2024-08-10T12:18:20Z</time>
      </trkpt>
      <trkpt lat="45.03078" lon="6.36238">
        <ele>1672.8</ele>
        <time>2024-08-10T12:18:21Z</time>
      </trkpt>
      <trkpt lat="45.03078" lon="6.36238">
        <ele>1672.8</ele>
        <time>2024-08-10T12:18:22Z</time>
      </trkpt>
      <trkpt lat="45.03078" lon="6.36238">
        <ele>1672.8</ele>
        <time>2024-08-10T12:18:23Z</time>
      </trkpt>
      <trkpt lat="45.03078" lon="6.36238">
        <ele>1672.8</ele>
        <time>2024-08-10T12:18:24Z</time>
      </trkpt>
      <trkpt lat="45.03078" lon="6.36238">
        <ele>1672.8</ele>
        <time>2024-08-10T12:18:25Z</time>
      </trkpt>
      <trkpt lat="45.03078" lon="6.36238">
        <ele>1672.8</ele>
        <time>2024-08-10T12:18:26Z</time>
      </trkpt>
      <trkpt lat="45.03078" lon="6.36238">
        <ele>1672.8</ele>
        <time>2024-08-10T12:18:27Z</time>
      </trkpt>
      <trkpt lat="45.03078" lon="6.36238">
        <ele>1672.6</ele>
        <time>2024-08-10T12:18:28Z</time>
      </trkpt>
      <trkpt lat="45.03078" lon="6.36238">
        <ele>1672.6</ele>
        <time>2024-08-10T12:18:29Z</time>
      </trkpt>
      <trkpt lat="45.03078" lon="6.36238">
        <ele>1672.6</ele>
        <time>2024-08-10T12:18:30Z</time>
      </trkpt>
      <trkpt lat="45.03078" lon="6.36238">
        <ele>1672.8</ele>
        <time>2024-08-10T12:18:31Z</time>
      </trkpt>
      <trkpt lat="45.03078" lon="6.36238">
        <ele>1673</ele>
        <time>2024-08-10T12:18:32Z</time>
      </trkpt>
      <trkpt lat="45.03078" lon="6.36238">
        <ele>1673</ele>
        <time>2024-08-10T12:18:33Z</time>
      </trkpt>
      <trkpt lat="45.03078" lon="6.36238">
        <ele>1673</ele>
        <time>2024-08-10T12:18:34Z</time>
      </trkpt>
      <trkpt lat="45.03078" lon="6.36238">
        <ele>1673</ele>
        <time>2024-08-10T12:18:35Z</time>
      </trkpt>
      <trkpt lat="45.03078" lon="6.36238">
        <ele>1673.2</ele>
        <time>2024-08-10T12:18:36Z</time>
      </trkpt>
      <trkpt lat="45.03078" lon="6.36238">
        <ele>1673.2</ele>
        <time>2024-08-10T12:18:37Z</time>
      </trkpt>
      <trkpt lat="45.03078" lon="6.36238">
        <ele>1673</ele>
        <time>2024-08-10T12:18:38Z</time>
      </trkpt>
      <trkpt lat="45.03078" lon="6.36238">
        <ele>1672.8</ele>
        <time>2024-08-10T12:18:39Z</time>
      </trkpt>
      <trkpt lat="45.03078" lon="6.36238">
        <ele>1672.8</ele>
        <time>2024-08-10T12:18:40Z</time>
      </trkpt>
      <trkpt lat="45.03078" lon="6.36238">
        <ele>1673</ele>
        <time>2024-08-10T12:18:41Z</time>
      </trkpt>
      <trkpt lat="45.03078" lon="6.36238">
        <ele>1673</ele>
        <time>2024-08-10T12:18:42Z</time>
      </trkpt>
      <trkpt lat="45.03078" lon="6.36238">
        <ele>1672.8</ele>
        <time>2024-08-10T12:18:43Z</time>
      </trkpt>
      <trkpt lat="45.03078" lon="6.36238">
        <ele>1672.8</ele>
        <time>2024-08-10T12:18:44Z</time>
      </trkpt>
      <trkpt lat="45.03078" lon="6.36238">
        <ele>1672.8</ele>
        <time>2024-08-10T12:18:45Z</time>
      </trkpt>
      <trkpt lat="45.03078" lon="6.36238">
        <ele>1673</ele>
        <time>2024-08-10T12:18:46Z</time>
      </trkpt>
      <trkpt lat="45.03078" lon="6.36238">
        <ele>1673</ele>
        <time>2024-08-10T12:18:47Z</time>
      </trkpt>
      <trkpt lat="45.03078" lon="6.36238">
        <ele>1673</ele>
        <time>2024-08-10T12:18:48Z</time>
      </trkpt>
      <trkpt lat="45.03078" lon="6.36238">
        <ele>1673</ele>
        <time>2024-08-10T12:18:49Z</time>
      </trkpt>
      <trkpt lat="45.03078" lon="6.36238">
        <ele>1672.8</ele>
        <time>2024-08-10T12:18:50Z</time>
      </trkpt>
      <trkpt lat="45.03078" lon="6.36238">
        <ele>1672.8</ele>
        <time>2024-08-10T12:18:51Z</time>
      </trkpt>
      <trkpt lat="45.03078" lon="6.36238">
        <ele>1672.8</ele>
        <time>2024-08-10T12:18:52Z</time>
      </trkpt>
      <trkpt lat="45.03078" lon="6.36238">
        <ele>1672.8</ele>
        <time>2024-08-10T12:18:53Z</time>
      </trkpt>
      <trkpt lat="45.03078" lon="6.36238">
        <ele>1672.8</ele>
        <time>2024-08-10T12:18:54Z</time>
      </trkpt>
      <trkpt lat="45.03078" lon="6.36238">
        <ele>1672.8</ele>
        <time>2024-08-10T12:18:55Z</time>
      </trkpt>
      <trkpt lat="45.03078" lon="6.36238">
        <ele>1672.8</ele>
        <time>2024-08-10T12:18:56Z</time>
      </trkpt>
      <trkpt lat="45.03078" lon="6.36238">
        <ele>1672.8</ele>
        <time>2024-08-10T12:18:57Z</time>
      </trkpt>
      <trkpt lat="45.03078" lon="6.36238">
        <ele>1672.8</ele>
        <time>2024-08-10T12:18:58Z</time>
      </trkpt>
      <trkpt lat="45.03078" lon="6.36238">
        <ele>1672.6</ele>
        <time>2024-08-10T12:18:59Z</time>
      </trkpt>
      <trkpt lat="45.03078" lon="6.36238">
        <ele>1672.6</ele>
        <time>2024-08-10T12:19:00Z</time>
      </trkpt>
      <trkpt lat="45.03078" lon="6.36238">
        <ele>1672.6</ele>
        <time>2024-08-10T12:19:01Z</time>
      </trkpt>
      <trkpt lat="45.03078" lon="6.36238">
        <ele>1672.6</ele>
        <time>2024-08-10T12:19:02Z</time>
      </trkpt>
      <trkpt lat="45.03078" lon="6.36238">
        <ele>1672.8</ele>
        <time>2024-08-10T12:19:03Z</time>
      </trkpt>
      <trkpt lat="45.03078" lon="6.36238">
        <ele>1672.8</ele>
        <time>2024-08-10T12:19:04Z</time>
      </trkpt>
      <trkpt lat="45.03078" lon="6.36238">
        <ele>1672.8</ele>
        <time>2024-08-10T12:19:05Z</time>
      </trkpt>
      <trkpt lat="45.03078" lon="6.36238">
        <ele>1672.8</ele>
        <time>2024-08-10T12:19:06Z</time>
      </trkpt>
      <trkpt lat="45.03078" lon="6.36238">
        <ele>1672.8</ele>
        <time>2024-08-10T12:19:07Z</time>
      </trkpt>
      <trkpt lat="45.03078" lon="6.36238">
        <ele>1672.8</ele>
        <time>2024-08-10T12:19:08Z</time>
      </trkpt>
      <trkpt lat="45.03078" lon="6.36238">
        <ele>1672.8</ele>
        <time>2024-08-10T12:19:09Z</time>
      </trkpt>
      <trkpt lat="45.03078" lon="6.36238">
        <ele>1672.8</ele>
        <time>2024-08-10T12:19:10Z</time>
      </trkpt>
      <trkpt lat="45.03078" lon="6.36238">
        <ele>1672.8</ele>
        <time>2024-08-10T12:19:11Z</time>
      </trkpt>
      <trkpt lat="45.03078" lon="6.36238">
        <ele>1672.6</ele>
        <time>2024-08-10T12:19:12Z</time>
      </trkpt>
      <trkpt lat="45.03078" lon="6.36238">
        <ele>1672.6</ele>
        <time>2024-08-10T12:19:13Z</time>
      </trkpt>
      <trkpt lat="45.03078" lon="6.36238">
        <ele>1672.6</ele>
        <time>2024-08-10T12:19:14Z</time>
      </trkpt>
      <trkpt lat="45.03078" lon="6.36238">
        <ele>1672.8</ele>
        <time>2024-08-10T12:19:15Z</time>
      </trkpt>
      <trkpt lat="45.03078" lon="6.36238">
        <ele>1672.8</ele>
        <time>2024-08-10T12:19:16Z</time>
      </trkpt>
      <trkpt lat="45.03078" lon="6.36238">
        <ele>1672.6</ele>
        <time>2024-08-10T12:19:17Z</time>
      </trkpt>
      <trkpt lat="45.03078" lon="6.36238">
        <ele>1672.6</ele>
        <time>2024-08-10T12:19:18Z</time>
      </trkpt>
      <trkpt lat="45.03078" lon="6.36238">
        <ele>1672.6</ele>
        <time>2024-08-10T12:19:19Z</time>
      </trkpt>
      <trkpt lat="45.03078" lon="6.36238">
        <ele>1672.8</ele>
        <time>2024-08-10T12:19:20Z</time>
      </trkpt>
      <trkpt lat="45.03078" lon="6.36238">
        <ele>1672.8</ele>
        <time>2024-08-10T12:19:21Z</time>
      </trkpt>
      <trkpt lat="45.03078" lon="6.36238">
        <ele>1672.8</ele>
        <time>2024-08-10T12:19:22Z</time>
      </trkpt>
      <trkpt lat="45.03078" lon="6.36238">
        <ele>1672.8</ele>
        <time>2024-08-10T12:19:23Z</time>
      </trkpt>
      <trkpt lat="45.03078" lon="6.36238">
        <ele>1672.8</ele>
        <time>2024-08-10T12:19:24Z</time>
      </trkpt>
      <trkpt lat="45.03078" lon="6.36238">
        <ele>1672.8</ele>
        <time>2024-08-10T12:19:25Z</time>
      </trkpt>
      <trkpt lat="45.03078" lon="6.36238">
        <ele>1672.6</ele>
        <time>2024-08-10T12:19:26Z</time>
      </trkpt>
      <trkpt lat="45.03078" lon="6.36238">
        <ele>1672.4</ele>
        <time>2024-08-10T12:19:27Z</time>
      </trkpt>
      <trkpt lat="45.03078" lon="6.36238">
        <ele>1672.4</ele>
        <time>2024-08-10T12:19:28Z</time>
      </trkpt>
      <trkpt lat="45.03078" lon="6.36238">
        <ele>1672.6</ele>
        <time>2024-08-10T12:19:29Z</time>
      </trkpt>
      <trkpt lat="45.03078" lon="6.36238">
        <ele>1672.8</ele>
        <time>2024-08-10T12:19:30Z</time>
      </trkpt>
      <trkpt lat="45.03078" lon="6.36238">
        <ele>1672.8</ele>
        <time>2024-08-10T12:19:31Z</time>
      </trkpt>
      <trkpt lat="45.03078" lon="6.36238">
        <ele>1672.8</ele>
        <time>2024-08-10T12:19:32Z</time>
      </trkpt>
      <trkpt lat="45.03078" lon="6.36238">
        <ele>1672.6</ele>
        <time>2024-08-10T12:19:33Z</time>
      </trkpt>
      <trkpt lat="45.03078" lon="6.36238">
        <ele>1672.6</ele>
        <time>2024-08-10T12:19:34Z</time>
      </trkpt>
      <trkpt lat="45.03078" lon="6.36238">
        <ele>1672.6</ele>
        <time>2024-08-10T12:19:35Z</time>
      </trkpt>
      <trkpt lat="45.03078" lon="6.36238">
        <ele>1672.6</ele>
        <time>2024-08-10T12:19:36Z</time>
      </trkpt>
      <trkpt lat="45.03078" lon="6.36238">
        <ele>1672.6</ele>
        <time>2024-08-10T12:19:37Z</time>
      </trkpt>
      <trkpt lat="45.03078" lon="6.36238">
        <ele>1672.6</ele>
        <time>2024-08-10T12:19:38Z</time>
      </trkpt>
      <trkpt lat="45.03078" lon="6.36238">
        <ele>1672.8</ele>
        <time>2024-08-10T12:19:39Z</time>
      </trkpt>
      <trkpt lat="45.03078" lon="6.36238">
        <ele>1672.8</ele>
        <time>2024-08-10T12:19:40Z</time>
      </trkpt>
      <trkpt lat="45.03078" lon="6.36238">
        <ele>1672.8</ele>
        <time>2024-08-10T12:19:41Z</time>
      </trkpt>
      <trkpt lat="45.03078" lon="6.36238">
        <ele>1672.8</ele>
        <time>2024-08-10T12:19:42Z</time>
      </trkpt>
      <trkpt lat="45.03078" lon="6.36238">
        <ele>1672.8</ele>
        <time>2024-08-10T12:19:43Z</time>
      </trkpt>
      <trkpt lat="45.03078" lon="6.36238">
        <ele>1672.8</ele>
        <time>2024-08-10T12:19:44Z</time>
      </trkpt>
      <trkpt lat="45.03078" lon="6.36238">
        <ele>1672.8</ele>
        <time>2024-08-10T12:19:45Z</time>
      </trkpt>
      <trkpt lat="45.03078" lon="6.36238">
        <ele>1673</ele>
        <time>2024-08-10T12:19:46Z</time>
      </trkpt>
      <trkpt lat="45.03078" lon="6.36238">
        <ele>1673</ele>
        <time>2024-08-10T12:19:47Z</time>
      </trkpt>
      <trkpt lat="45.03078" lon="6.36238">
        <ele>1672.8</ele>
        <time>2024-08-10T12:19:48Z</time>
      </trkpt>
      <trkpt lat="45.03078" lon="6.36238">
        <ele>1672.8</ele>
        <time>2024-08-10T12:19:49Z</time>
      </trkpt>
      <trkpt lat="45.03078" lon="6.36238">
        <ele>1673</ele>
        <time>2024-08-10T12:19:50Z</time>
      </trkpt>
      <trkpt lat="45.03078" lon="6.36238">
        <ele>1673.4</ele>
        <time>2024-08-10T12:19:51Z</time>
      </trkpt>
      <trkpt lat="45.03078" lon="6.36238">
        <ele>1673.4</ele>
        <time>2024-08-10T12:19:52Z</time>
      </trkpt>
      <trkpt lat="45.03078" lon="6.36238">
        <ele>1673.6</ele>
        <time>2024-08-10T12:19:53Z</time>
      </trkpt>
      <trkpt lat="45.03078" lon="6.36238">
        <ele>1673.4</ele>
        <time>2024-08-10T12:19:54Z</time>
      </trkpt>
      <trkpt lat="45.03078" lon="6.36238">
        <ele>1673.4</ele>
        <time>2024-08-10T12:19:55Z</time>
      </trkpt>
      <trkpt lat="45.03078" lon="6.36238">
        <ele>1673.4</ele>
        <time>2024-08-10T12:19:56Z</time>
      </trkpt>
      <trkpt lat="45.03078" lon="6.36238">
        <ele>1673.4</ele>
        <time>2024-08-10T12:19:57Z</time>
      </trkpt>
      <trkpt lat="45.03078" lon="6.36238">
        <ele>1673.4</ele>
        <time>2024-08-10T12:19:58Z</time>
      </trkpt>
      <trkpt lat="45.03078" lon="6.36238">
        <ele>1673.4</ele>
        <time>2024-08-10T12:19:59Z</time>
      </trkpt>
      <trkpt lat="45.03078" lon="6.36238">
        <ele>1673.4</ele>
        <time>2024-08-10T12:20:00Z</time>
      </trkpt>
      <trkpt lat="45.03078" lon="6.36238">
        <ele>1673.2</ele>
        <time>2024-08-10T12:20:01Z</time>
      </trkpt>
      <trkpt lat="45.03078" lon="6.36238">
        <ele>1673.2</ele>
        <time>2024-08-10T12:20:02Z</time>
      </trkpt>
      <trkpt lat="45.03078" lon="6.36238">
        <ele>1673</ele>
        <time>2024-08-10T12:20:03Z</time>
      </trkpt>
      <trkpt lat="45.03078" lon="6.36238">
        <ele>1673</ele>
        <time>2024-08-10T12:20:04Z</time>
      </trkpt>
      <trkpt lat="45.03078" lon="6.36238">
        <ele>1672.8</ele>
        <time>2024-08-10T12:20:05Z</time>
      </trkpt>
      <trkpt lat="45.03078" lon="6.36238">
        <ele>1672.8</ele>
        <time>2024-08-10T12:20:06Z</time>
      </trkpt>
      <trkpt lat="45.03078" lon="6.36238">
        <ele>1673</ele>
        <time>2024-08-10T12:20:07Z</time>
      </trkpt>
      <trkpt lat="45.03078" lon="6.36238">
        <ele>1673</ele>
        <time>2024-08-10T12:20:08Z</time>
      </trkpt>
      <trkpt lat="45.03078" lon="6.36238">
        <ele>1673</ele>
        <time>2024-08-10T12:20:09Z</time>
      </trkpt>
      <trkpt lat="45.03078" lon="6.36238">
        <ele>1673.2</ele>
        <time>2024-08-10T12:20:10Z</time>
      </trkpt>
      <trkpt lat="45.03078" lon="6.36238">
        <ele>1673.2</ele>
        <time>2024-08-10T12:20:11Z</time>
      </trkpt>
      <trkpt lat="45.03078" lon="6.36238">
        <ele>1673.2</ele>
        <time>2024-08-10T12:20:12Z</time>
      </trkpt>
      <trkpt lat="45.03078" lon="6.36238">
        <ele>1673.2</ele>
        <time>2024-08-10T12:20:13Z</time>
      </trkpt>
      <trkpt lat="45.03078" lon="6.36238">
        <ele>1673.2</ele>
        <time>2024-08-10T12:20:14Z</time>
      </trkpt>
      <trkpt lat="45.03078" lon="6.36238">
        <ele>1673.2</ele>
        <time>2024-08-10T12:20:15Z</time>
      </trkpt>
      <trkpt lat="45.03078" lon="6.36238">
        <ele>1673</ele>
        <time>2024-08-10T12:20:16Z</time>
      </trkpt>
      <trkpt lat="45.03078" lon="6.36238">
        <ele>1673</ele>
        <time>2024-08-10T12:20:17Z</time>
      </trkpt>
      <trkpt lat="45.03078" lon="6.36238">
        <ele>1673.2</ele>
        <time>2024-08-10T12:20:18Z</time>
      </trkpt>
      <trkpt lat="45.03078" lon="6.36238">
        <ele>1673.2</ele>
        <time>2024-08-10T12:20:19Z</time>
      </trkpt>
      <trkpt lat="45.03078" lon="6.36238">
        <ele>1673.2</ele>
        <time>2024-08-10T12:20:20Z</time>
      </trkpt>
      <trkpt lat="45.03078" lon="6.36238">
        <ele>1673.2</ele>
        <time>2024-08-10T12:20:21Z</time>
      </trkpt>
      <trkpt lat="45.03078" lon="6.36238">
        <ele>1673</ele>
        <time>2024-08-10T12:20:22Z</time>
      </trkpt>
      <trkpt lat="45.03078" lon="6.36238">
        <ele>1672.8</ele>
        <time>2024-08-10T12:20:23Z</time>
      </trkpt>
      <trkpt lat="45.03078" lon="6.36238">
        <ele>1672.8</ele>
        <time>2024-08-10T12:20:24Z</time>
      </trkpt>
      <trkpt lat="45.03078" lon="6.36238">
        <ele>1672.8</ele>
        <time>2024-08-10T12:20:25Z</time>
      </trkpt>
      <trkpt lat="45.03078" lon="6.36238">
        <ele>1672.8</ele>
        <time>2024-08-10T12:20:26Z</time>
      </trkpt>
      <trkpt lat="45.03078" lon="6.36238">
        <ele>1673</ele>
        <time>2024-08-10T12:20:27Z</time>
      </trkpt>
      <trkpt lat="45.03078" lon="6.36238">
        <ele>1673</ele>
        <time>2024-08-10T12:20:28Z</time>
      </trkpt>
      <trkpt lat="45.03078" lon="6.36238">
        <ele>1673</ele>
        <time>2024-08-10T12:20:29Z</time>
      </trkpt>
      <trkpt lat="45.03078" lon="6.36238">
        <ele>1673</ele>
        <time>2024-08-10T12:20:30Z</time>
      </trkpt>
      <trkpt lat="45.03078" lon="6.36238">
        <ele>1673</ele>
        <time>2024-08-10T12:20:31Z</time>
      </trkpt>
      <trkpt lat="45.03078" lon="6.36238">
        <ele>1672.8</ele>
        <time>2024-08-10T12:20:32Z</time>
      </trkpt>
      <trkpt lat="45.03078" lon="6.36238">
        <ele>1673</ele>
        <time>2024-08-10T12:20:33Z</time>
      </trkpt>
      <trkpt lat="45.03078" lon="6.36238">
        <ele>1673</ele>
        <time>2024-08-10T12:20:34Z</time>
      </trkpt>
      <trkpt lat="45.03078" lon="6.36238">
        <ele>1673</ele>
        <time>2024-08-10T12:20:35Z</time>
      </trkpt>
      <trkpt lat="45.03078" lon="6.36238">
        <ele>1673</ele>
        <time>2024-08-10T12:20:36Z</time>
      </trkpt>
      <trkpt lat="45.03078" lon="6.36238">
        <ele>1673</ele>
        <time>2024-08-10T12:20:37Z</time>
      </trkpt>
      <trkpt lat="45.03078" lon="6.36238">
        <ele>1673</ele>
        <time>2024-08-10T12:20:38Z</time>
      </trkpt>
      <trkpt lat="45.03078" lon="6.36238">
        <ele>1673</ele>
        <time>2024-08-10T12:20:39Z</time>
      </trkpt>
      <trkpt lat="45.03078" lon="6.36238">
        <ele>1673</ele>
        <time>2024-08-10T12:20:40Z</time>
      </trkpt>
      <trkpt lat="45.03078" lon="6.36241">
        <ele>1673</ele>
        <time>2024-08-10T12:20:41Z</time>
      </trkpt>
      <trkpt lat="45.03078" lon="6.36241">
        <ele>1672.8</ele>
        <time>2024-08-10T12:20:42Z</time>
      </trkpt>
      <trkpt lat="45.03076" lon="6.36244">
        <ele>1672.8</ele>
        <time>2024-08-10T12:20:43Z</time>
      </trkpt>
      <trkpt lat="45.03076" lon="6.36244">
        <ele>1672.8</ele>
        <time>2024-08-10T12:20:44Z</time>
      </trkpt>
      <trkpt lat="45.03078" lon="6.3625">
        <ele>1672.8</ele>
        <time>2024-08-10T12:20:45Z</time>
      </trkpt>
      <trkpt lat="45.03079" lon="6.36254">
        <ele>1672.8</ele>
        <time>2024-08-10T12:20:46Z</time>
      </trkpt>
      <trkpt lat="45.03079" lon="6.36254">
        <ele>1672.8</ele>
        <time>2024-08-10T12:20:47Z</time>
      </trkpt>
      <trkpt lat="45.03078" lon="6.36257">
        <ele>1673</ele>
        <time>2024-08-10T12:20:48Z</time>
      </trkpt>
      <trkpt lat="45.03078" lon="6.36257">
        <ele>1673</ele>
        <time>2024-08-10T12:20:49Z</time>
      </trkpt>
      <trkpt lat="45.03078" lon="6.36257">
        <ele>1672.8</ele>
        <time>2024-08-10T12:20:50Z</time>
      </trkpt>
      <trkpt lat="45.03078" lon="6.3626">
        <ele>1672.8</ele>
        <time>2024-08-10T12:20:51Z</time>
      </trkpt>
      <trkpt lat="45.03078" lon="6.3626">
        <ele>1673</ele>
        <time>2024-08-10T12:20:52Z</time>
      </trkpt>
      <trkpt lat="45.03078" lon="6.3626">
        <ele>1673</ele>
        <time>2024-08-10T12:20:53Z</time>
      </trkpt>
      <trkpt lat="45.03078" lon="6.3626">
        <ele>1673</ele>
        <time>2024-08-10T12:20:54Z</time>
      </trkpt>
      <trkpt lat="45.03078" lon="6.3626">
        <ele>1673</ele>
        <time>2024-08-10T12:20:55Z</time>
      </trkpt>
      <trkpt lat="45.03078" lon="6.36262">
        <ele>1673</ele>
        <time>2024-08-10T12:20:56Z</time>
      </trkpt>
      <trkpt lat="45.03078" lon="6.36262">
        <ele>1673</ele>
        <time>2024-08-10T12:20:57Z</time>
      </trkpt>
      <trkpt lat="45.03078" lon="6.36262">
        <ele>1673</ele>
        <time>2024-08-10T12:20:58Z</time>
      </trkpt>
      <trkpt lat="45.03078" lon="6.36262">
        <ele>1673</ele>
        <time>2024-08-10T12:20:59Z</time>
      </trkpt>
      <trkpt lat="45.03078" lon="6.36262">
        <ele>1673</ele>
        <time>2024-08-10T12:21:00Z</time>
      </trkpt>
      <trkpt lat="45.03078" lon="6.36262">
        <ele>1673</ele>
        <time>2024-08-10T12:21:01Z</time>
      </trkpt>
      <trkpt lat="45.03078" lon="6.36262">
        <ele>1673.2</ele>
        <time>2024-08-10T12:21:02Z</time>
      </trkpt>
      <trkpt lat="45.03078" lon="6.36262">
        <ele>1673.4</ele>
        <time>2024-08-10T12:21:03Z</time>
      </trkpt>
      <trkpt lat="45.03078" lon="6.36262">
        <ele>1673.4</ele>
        <time>2024-08-10T12:21:04Z</time>
      </trkpt>
      <trkpt lat="45.03078" lon="6.36262">
        <ele>1673.4</ele>
        <time>2024-08-10T12:21:05Z</time>
      </trkpt>
      <trkpt lat="45.03078" lon="6.36262">
        <ele>1673.4</ele>
        <time>2024-08-10T12:21:06Z</time>
      </trkpt>
      <trkpt lat="45.03078" lon="6.36262">
        <ele>1673.4</ele>
        <time>2024-08-10T12:21:07Z</time>
      </trkpt>
      <trkpt lat="45.03078" lon="6.36262">
        <ele>1673.4</ele>
        <time>2024-08-10T12:21:08Z</time>
      </trkpt>
      <trkpt lat="45.03078" lon="6.36262">
        <ele>1673.4</ele>
        <time>2024-08-10T12:21:09Z</time>
      </trkpt>
      <trkpt lat="45.03078" lon="6.36262">
        <ele>1673.2</ele>
        <time>2024-08-10T12:21:10Z</time>
      </trkpt>
      <trkpt lat="45.03078" lon="6.36262">
        <ele>1673.2</ele>
        <time>2024-08-10T12:21:11Z</time>
      </trkpt>
      <trkpt lat="45.03078" lon="6.36262">
        <ele>1673.4</ele>
        <time>2024-08-10T12:21:12Z</time>
      </trkpt>
      <trkpt lat="45.0308" lon="6.3626">
        <ele>1673.4</ele>
        <time>2024-08-10T12:21:13Z</time>
      </trkpt>
      <trkpt lat="45.03081" lon="6.36258">
        <ele>1673.4</ele>
        <time>2024-08-10T12:21:14Z</time>
      </trkpt>
      <trkpt lat="45.03081" lon="6.36258">
        <ele>1673.4</ele>
        <time>2024-08-10T12:21:15Z</time>
      </trkpt>
      <trkpt lat="45.03083" lon="6.36254">
        <ele>1673.2</ele>
        <time>2024-08-10T12:21:16Z</time>
      </trkpt>
      <trkpt lat="45.03084" lon="6.36252">
        <ele>1673.2</ele>
        <time>2024-08-10T12:21:17Z</time>
      </trkpt>
      <trkpt lat="45.03084" lon="6.36252">
        <ele>1673.2</ele>
        <time>2024-08-10T12:21:18Z</time>
      </trkpt>
      <trkpt lat="45.03084" lon="6.36248">
        <ele>1673.2</ele>
        <time>2024-08-10T12:21:19Z</time>
      </trkpt>
      <trkpt lat="45.03084" lon="6.36248">
        <ele>1673.2</ele>
        <time>2024-08-10T12:21:20Z</time>
      </trkpt>
      <trkpt lat="45.03084" lon="6.36246">
        <ele>1673.2</ele>
        <time>2024-08-10T12:21:21Z</time>
      </trkpt>
      <trkpt lat="45.03084" lon="6.36246">
        <ele>1673.2</ele>
        <time>2024-08-10T12:21:22Z</time>
      </trkpt>
      <trkpt lat="45.03084" lon="6.36246">
        <ele>1673.2</ele>
        <time>2024-08-10T12:21:23Z</time>
      </trkpt>
      <trkpt lat="45.03084" lon="6.36243">
        <ele>1673</ele>
        <time>2024-08-10T12:21:24Z</time>
      </trkpt>
      <trkpt lat="45.03084" lon="6.36243">
        <ele>1673.2</ele>
        <time>2024-08-10T12:21:25Z</time>
      </trkpt>
      <trkpt lat="45.03084" lon="6.36243">
        <ele>1673.2</ele>
        <time>2024-08-10T12:21:26Z</time>
      </trkpt>
      <trkpt lat="45.03084" lon="6.36243">
        <ele>1673.4</ele>
        <time>2024-08-10T12:21:27Z</time>
      </trkpt>
      <trkpt lat="45.03084" lon="6.36243">
        <ele>1673.4</ele>
        <time>2024-08-10T12:21:28Z</time>
      </trkpt>
      <trkpt lat="45.03084" lon="6.36243">
        <ele>1673.2</ele>
        <time>2024-08-10T12:21:29Z</time>
      </trkpt>
      <trkpt lat="45.03084" lon="6.36243">
        <ele>1673.2</ele>
        <time>2024-08-10T12:21:30Z</time>
      </trkpt>
      <trkpt lat="45.03084" lon="6.36243">
        <ele>1673</ele>
        <time>2024-08-10T12:21:31Z</time>
      </trkpt>
      <trkpt lat="45.03084" lon="6.36243">
        <ele>1673</ele>
        <time>2024-08-10T12:21:32Z</time>
      </trkpt>
      <trkpt lat="45.03084" lon="6.36243">
        <ele>1673</ele>
        <time>2024-08-10T12:21:33Z</time>
      </trkpt>
      <trkpt lat="45.03084" lon="6.36243">
        <ele>1673.2</ele>
        <time>2024-08-10T12:21:34Z</time>
      </trkpt>
      <trkpt lat="45.03084" lon="6.36243">
        <ele>1673.2</ele>
        <time>2024-08-10T12:21:35Z</time>
      </trkpt>
      <trkpt lat="45.03084" lon="6.36243">
        <ele>1673.2</ele>
        <time>2024-08-10T12:21:36Z</time>
      </trkpt>
      <trkpt lat="45.03084" lon="6.36243">
        <ele>1673</ele>
        <time>2024-08-10T12:21:37Z</time>
      </trkpt>
      <trkpt lat="45.03084" lon="6.36243">
        <ele>1673</ele>
        <time>2024-08-10T12:21:38Z</time>
      </trkpt>
      <trkpt lat="45.03084" lon="6.36243">
        <ele>1673.2</ele>
        <time>2024-08-10T12:21:39Z</time>
      </trkpt>
      <trkpt lat="45.03084" lon="6.36243">
        <ele>1673.2</ele>
        <time>2024-08-10T12:21:40Z</time>
      </trkpt>
      <trkpt lat="45.03084" lon="6.36243">
        <ele>1673.2</ele>
        <time>2024-08-10T12:21:41Z</time>
      </trkpt>
      <trkpt lat="45.03084" lon="6.36243">
        <ele>1673.4</ele>
        <time>2024-08-10T12:21:42Z</time>
      </trkpt>
      <trkpt lat="45.03084" lon="6.36243">
        <ele>1673.4</ele>
        <time>2024-08-10T12:21:43Z</time>
      </trkpt>
      <trkpt lat="45.03084" lon="6.36243">
        <ele>1673.4</ele>
        <time>2024-08-10T12:21:44Z</time>
      </trkpt>
      <trkpt lat="45.03084" lon="6.36243">
        <ele>1673.6</ele>
        <time>2024-08-10T12:21:45Z</time>
      </trkpt>
      <trkpt lat="45.03084" lon="6.36243">
        <ele>1673.6</ele>
        <time>2024-08-10T12:21:46Z</time>
      </trkpt>
      <trkpt lat="45.03084" lon="6.36243">
        <ele>1673.6</ele>
        <time>2024-08-10T12:21:47Z</time>
      </trkpt>
      <trkpt lat="45.03084" lon="6.36243">
        <ele>1673.2</ele>
        <time>2024-08-10T12:21:48Z</time>
      </trkpt>
      <trkpt lat="45.03084" lon="6.36243">
        <ele>1673.2</ele>
        <time>2024-08-10T12:21:49Z</time>
      </trkpt>
      <trkpt lat="45.03084" lon="6.36243">
        <ele>1673.2</ele>
        <time>2024-08-10T12:21:50Z</time>
      </trkpt>
      <trkpt lat="45.03084" lon="6.36243">
        <ele>1673.2</ele>
        <time>2024-08-10T12:21:51Z</time>
      </trkpt>
      <trkpt lat="45.03084" lon="6.36243">
        <ele>1673.2</ele>
        <time>2024-08-10T12:21:52Z</time>
      </trkpt>
      <trkpt lat="45.03084" lon="6.36243">
        <ele>1673.6</ele>
        <time>2024-08-10T12:21:53Z</time>
      </trkpt>
      <trkpt lat="45.03084" lon="6.36243">
        <ele>1673.8</ele>
        <time>2024-08-10T12:21:54Z</time>
      </trkpt>
      <trkpt lat="45.03084" lon="6.36243">
        <ele>1673.8</ele>
        <time>2024-08-10T12:21:55Z</time>
      </trkpt>
      <trkpt lat="45.03084" lon="6.36243">
        <ele>1673.8</ele>
        <time>2024-08-10T12:21:56Z</time>
      </trkpt>
      <trkpt lat="45.03084" lon="6.36243">
        <ele>1673.8</ele>
        <time>2024-08-10T12:21:57Z</time>
      </trkpt>
      <trkpt lat="45.03084" lon="6.36243">
        <ele>1673.6</ele>
        <time>2024-08-10T12:21:58Z</time>
      </trkpt>
      <trkpt lat="45.03084" lon="6.36243">
        <ele>1673.6</ele>
        <time>2024-08-10T12:21:59Z</time>
      </trkpt>
      <trkpt lat="45.03084" lon="6.36243">
        <ele>1673.6</ele>
        <time>2024-08-10T12:22:00Z</time>
      </trkpt>
      <trkpt lat="45.03084" lon="6.36243">
        <ele>1673.8</ele>
        <time>2024-08-10T12:22:01Z</time>
      </trkpt>
      <trkpt lat="45.03084" lon="6.36243">
        <ele>1673.8</ele>
        <time>2024-08-10T12:22:02Z</time>
      </trkpt>
      <trkpt lat="45.03084" lon="6.36243">
        <ele>1673</ele>
        <time>2024-08-10T12:22:03Z</time>
      </trkpt>
      <trkpt lat="45.03084" lon="6.36243">
        <ele>1673</ele>
        <time>2024-08-10T12:22:04Z</time>
      </trkpt>
      <trkpt lat="45.03084" lon="6.36243">
        <ele>1673.4</ele>
        <time>2024-08-10T12:22:05Z</time>
      </trkpt>
      <trkpt lat="45.03084" lon="6.36243">
        <ele>1673.6</ele>
        <time>2024-08-10T12:22:06Z</time>
      </trkpt>
      <trkpt lat="45.03084" lon="6.36243">
        <ele>1673.6</ele>
        <time>2024-08-10T12:22:07Z</time>
      </trkpt>
      <trkpt lat="45.03084" lon="6.36243">
        <ele>1673.6</ele>
        <time>2024-08-10T12:22:08Z</time>
      </trkpt>
      <trkpt lat="45.03084" lon="6.36243">
        <ele>1673.4</ele>
        <time>2024-08-10T12:22:09Z</time>
      </trkpt>
      <trkpt lat="45.03084" lon="6.36243">
        <ele>1673.4</ele>
        <time>2024-08-10T12:22:10Z</time>
      </trkpt>
      <trkpt lat="45.03084" lon="6.36243">
        <ele>1673.2</ele>
        <time>2024-08-10T12:22:11Z</time>
      </trkpt>
      <trkpt lat="45.03084" lon="6.36243">
        <ele>1673.2</ele>
        <time>2024-08-10T12:22:12Z</time>
      </trkpt>
      <trkpt lat="45.03084" lon="6.36243">
        <ele>1673.4</ele>
        <time>2024-08-10T12:22:13Z</time>
      </trkpt>
      <trkpt lat="45.03084" lon="6.36243">
        <ele>1673.4</ele>
        <time>2024-08-10T12:22:14Z</time>
      </trkpt>
      <trkpt lat="45.03084" lon="6.36243">
        <ele>1673.6</ele>
        <time>2024-08-10T12:22:15Z</time>
      </trkpt>
      <trkpt lat="45.03084" lon="6.36243">
        <ele>1673.6</ele>
        <time>2024-08-10T12:22:16Z</time>
      </trkpt>
      <trkpt lat="45.03084" lon="6.36243">
        <ele>1673.6</ele>
        <time>2024-08-10T12:22:17Z</time>
      </trkpt>
      <trkpt lat="45.03084" lon="6.36243">
        <ele>1673.6</ele>
        <time>2024-08-10T12:22:18Z</time>
      </trkpt>
      <trkpt lat="45.03084" lon="6.36243">
        <ele>1673.6</ele>
        <time>2024-08-10T12:22:19Z</time>
      </trkpt>
      <trkpt lat="45.03084" lon="6.36243">
        <ele>1673.8</ele>
        <time>2024-08-10T12:22:20Z</time>
      </trkpt>
      <trkpt lat="45.03084" lon="6.36243">
        <ele>1673.8</ele>
        <time>2024-08-10T12:22:21Z</time>
      </trkpt>
      <trkpt lat="45.03084" lon="6.36243">
        <ele>1673.8</ele>
        <time>2024-08-10T12:22:22Z</time>
      </trkpt>
      <trkpt lat="45.03084" lon="6.36243">
        <ele>1673.6</ele>
        <time>2024-08-10T12:22:23Z</time>
      </trkpt>
      <trkpt lat="45.03084" lon="6.36243">
        <ele>1673.6</ele>
        <time>2024-08-10T12:22:24Z</time>
      </trkpt>
      <trkpt lat="45.03084" lon="6.36243">
        <ele>1673.6</ele>
        <time>2024-08-10T12:22:25Z</time>
      </trkpt>
      <trkpt lat="45.03084" lon="6.36243">
        <ele>1673.6</ele>
        <time>2024-08-10T12:22:26Z</time>
      </trkpt>
      <trkpt lat="45.03084" lon="6.36243">
        <ele>1673.6</ele>
        <time>2024-08-10T12:22:27Z</time>
      </trkpt>
      <trkpt lat="45.03084" lon="6.36243">
        <ele>1673.6</ele>
        <time>2024-08-10T12:22:28Z</time>
      </trkpt>
      <trkpt lat="45.03084" lon="6.36243">
        <ele>1673.6</ele>
        <time>2024-08-10T12:22:29Z</time>
      </trkpt>
      <trkpt lat="45.03084" lon="6.36243">
        <ele>1673.6</ele>
        <time>2024-08-10T12:22:30Z</time>
      </trkpt>
      <trkpt lat="45.03084" lon="6.36243">
        <ele>1673.6</ele>
        <time>2024-08-10T12:22:31Z</time>
      </trkpt>
      <trkpt lat="45.03084" lon="6.36243">
        <ele>1673.4</ele>
        <time>2024-08-10T12:22:32Z</time>
      </trkpt>
      <trkpt lat="45.03084" lon="6.36243">
        <ele>1673.4</ele>
        <time>2024-08-10T12:22:33Z</time>
      </trkpt>
      <trkpt lat="45.03084" lon="6.36243">
        <ele>1673.4</ele>
        <time>2024-08-10T12:22:34Z</time>
      </trkpt>
      <trkpt lat="45.03084" lon="6.36243">
        <ele>1673.4</ele>
        <time>2024-08-10T12:22:35Z</time>
      </trkpt>
      <trkpt lat="45.03084" lon="6.36243">
        <ele>1673.4</ele>
        <time>2024-08-10T12:22:36Z</time>
      </trkpt>
      <trkpt lat="45.03071" lon="6.36239">
        <ele>1673.4</ele>
        <time>2024-08-10T12:22:37Z</time>
      </trkpt>
      <trkpt lat="45.03071" lon="6.36239">
        <ele>1673.4</ele>
        <time>2024-08-10T12:22:38Z</time>
      </trkpt>
      <trkpt lat="45.03071" lon="6.36236">
        <ele>1673.4</ele>
        <time>2024-08-10T12:22:39Z</time>
      </trkpt>
      <trkpt lat="45.03074" lon="6.36234">
        <ele>1673.4</ele>
        <time>2024-08-10T12:22:40Z</time>
      </trkpt>
      <trkpt lat="45.03076" lon="6.36234">
        <ele>1673.6</ele>
        <time>2024-08-10T12:22:41Z</time>
      </trkpt>
      <trkpt lat="45.03076" lon="6.36234">
        <ele>1673.6</ele>
        <time>2024-08-10T12:22:42Z</time>
      </trkpt>
      <trkpt lat="45.03076" lon="6.36234">
        <ele>1673.6</ele>
        <time>2024-08-10T12:22:43Z</time>
      </trkpt>
      <trkpt lat="45.03076" lon="6.36234">
        <ele>1673.4</ele>
        <time>2024-08-10T12:22:44Z</time>
      </trkpt>
      <trkpt lat="45.03076" lon="6.36234">
        <ele>1673.4</ele>
        <time>2024-08-10T12:22:45Z</time>
      </trkpt>
      <trkpt lat="45.03075" lon="6.36231">
        <ele>1673.4</ele>
        <time>2024-08-10T12:22:46Z</time>
      </trkpt>
      <trkpt lat="45.03075" lon="6.36231">
        <ele>1673.4</ele>
        <time>2024-08-10T12:22:47Z</time>
      </trkpt>
      <trkpt lat="45.03075" lon="6.36231">
        <ele>1673.4</ele>
        <time>2024-08-10T12:22:48Z</time>
      </trkpt>
      <trkpt lat="45.03075" lon="6.36231">
        <ele>1673.4</ele>
        <time>2024-08-10T12:22:49Z</time>
      </trkpt>
      <trkpt lat="45.03075" lon="6.36228">
        <ele>1673.6</ele>
        <time>2024-08-10T12:22:50Z</time>
      </trkpt>
      <trkpt lat="45.03075" lon="6.36228">
        <ele>1673.6</ele>
        <time>2024-08-10T12:22:51Z</time>
      </trkpt>
      <trkpt lat="45.03075" lon="6.36228">
        <ele>1673.6</ele>
        <time>2024-08-10T12:22:52Z</time>
      </trkpt>
      <trkpt lat="45.03075" lon="6.36228">
        <ele>1673.6</ele>
        <time>2024-08-10T12:22:53Z</time>
      </trkpt>
      <trkpt lat="45.03076" lon="6.36225">
        <ele>1673.6</ele>
        <time>2024-08-10T12:22:54Z</time>
      </trkpt>
      <trkpt lat="45.03076" lon="6.36225">
        <ele>1673.6</ele>
        <time>2024-08-10T12:22:55Z</time>
      </trkpt>
      <trkpt lat="45.03076" lon="6.36225">
        <ele>1673.6</ele>
        <time>2024-08-10T12:22:56Z</time>
      </trkpt>
      <trkpt lat="45.03076" lon="6.36225">
        <ele>1673.6</ele>
        <time>2024-08-10T12:22:57Z</time>
      </trkpt>
      <trkpt lat="45.03076" lon="6.36225">
        <ele>1673.6</ele>
        <time>2024-08-10T12:22:58Z</time>
      </trkpt>
      <trkpt lat="45.03076" lon="6.36225">
        <ele>1673.8</ele>
        <time>2024-08-10T12:22:59Z</time>
      </trkpt>
      <trkpt lat="45.03076" lon="6.36225">
        <ele>1673.8</ele>
        <time>2024-08-10T12:23:00Z</time>
      </trkpt>
      <trkpt lat="45.03076" lon="6.36225">
        <ele>1673.8</ele>
        <time>2024-08-10T12:23:01Z</time>
      </trkpt>
      <trkpt lat="45.03076" lon="6.36225">
        <ele>1673.8</ele>
        <time>2024-08-10T12:23:02Z</time>
      </trkpt>
      <trkpt lat="45.03076" lon="6.36225">
        <ele>1673.6</ele>
        <time>2024-08-10T12:23:03Z</time>
      </trkpt>
      <trkpt lat="45.03076" lon="6.36225">
        <ele>1673.6</ele>
        <time>2024-08-10T12:23:04Z</time>
      </trkpt>
      <trkpt lat="45.03076" lon="6.36225">
        <ele>1673.8</ele>
        <time>2024-08-10T12:23:05Z</time>
      </trkpt>
      <trkpt lat="45.03076" lon="6.36225">
        <ele>1674</ele>
        <time>2024-08-10T12:23:06Z</time>
      </trkpt>
      <trkpt lat="45.03076" lon="6.36225">
        <ele>1674</ele>
        <time>2024-08-10T12:23:07Z</time>
      </trkpt>
      <trkpt lat="45.03076" lon="6.36225">
        <ele>1674.2</ele>
        <time>2024-08-10T12:23:08Z</time>
      </trkpt>
      <trkpt lat="45.03077" lon="6.36222">
        <ele>1674.2</ele>
        <time>2024-08-10T12:23:09Z</time>
      </trkpt>
      <trkpt lat="45.03077" lon="6.36222">
        <ele>1674.4</ele>
        <time>2024-08-10T12:23:10Z</time>
      </trkpt>
      <trkpt lat="45.03077" lon="6.36222">
        <ele>1674.4</ele>
        <time>2024-08-10T12:23:11Z</time>
      </trkpt>
      <trkpt lat="45.03077" lon="6.36219">
        <ele>1674.4</ele>
        <time>2024-08-10T12:23:12Z</time>
      </trkpt>
      <trkpt lat="45.03077" lon="6.36219">
        <ele>1674.4</ele>
        <time>2024-08-10T12:23:13Z</time>
      </trkpt>
      <trkpt lat="45.03077" lon="6.36219">
        <ele>1674.4</ele>
        <time>2024-08-10T12:23:14Z</time>
      </trkpt>
      <trkpt lat="45.03078" lon="6.36219">
        <ele>1674.2</ele>
        <time>2024-08-10T12:23:15Z</time>
      </trkpt>
      <trkpt lat="45.03078" lon="6.3622">
        <ele>1674.2</ele>
        <time>2024-08-10T12:23:16Z</time>
      </trkpt>
      <trkpt lat="45.03078" lon="6.3622">
        <ele>1674</ele>
        <time>2024-08-10T12:23:17Z</time>
      </trkpt>
      <trkpt lat="45.03078" lon="6.36221">
        <ele>1674</ele>
        <time>2024-08-10T12:23:18Z</time>
      </trkpt>
      <trkpt lat="45.03078" lon="6.36222">
        <ele>1674.2</ele>
        <time>2024-08-10T12:23:19Z</time>
      </trkpt>
      <trkpt lat="45.03078" lon="6.36222">
        <ele>1674.2</ele>
        <time>2024-08-10T12:23:20Z</time>
      </trkpt>
      <trkpt lat="45.03078" lon="6.36223">
        <ele>1674.2</ele>
        <time>2024-08-10T12:23:21Z</time>
      </trkpt>
      <trkpt lat="45.03078" lon="6.36223">
        <ele>1674.2</ele>
        <time>2024-08-10T12:23:22Z</time>
      </trkpt>
      <trkpt lat="45.03078" lon="6.36224">
        <ele>1674</ele>
        <time>2024-08-10T12:23:23Z</time>
      </trkpt>
      <trkpt lat="45.03078" lon="6.36224">
        <ele>1674</ele>
        <time>2024-08-10T12:23:24Z</time>
      </trkpt>
      <trkpt lat="45.03078" lon="6.36225">
        <ele>1674</ele>
        <time>2024-08-10T12:23:25Z</time>
      </trkpt>
      <trkpt lat="45.03078" lon="6.36225">
        <ele>1674.2</ele>
        <time>2024-08-10T12:23:26Z</time>
      </trkpt>
      <trkpt lat="45.03078" lon="6.36226">
        <ele>1674.2</ele>
        <time>2024-08-10T12:23:27Z</time>
      </trkpt>
      <trkpt lat="45.03078" lon="6.36226">
        <ele>1674</ele>
        <time>2024-08-10T12:23:28Z</time>
      </trkpt>
      <trkpt lat="45.03078" lon="6.36227">
        <ele>1674</ele>
        <time>2024-08-10T12:23:29Z</time>
      </trkpt>
      <trkpt lat="45.03078" lon="6.36227">
        <ele>1674</ele>
        <time>2024-08-10T12:23:30Z</time>
      </trkpt>
      <trkpt lat="45.03078" lon="6.36228">
        <ele>1674</ele>
        <time>2024-08-10T12:23:31Z</time>
      </trkpt>
      <trkpt lat="45.03078" lon="6.36228">
        <ele>1674</ele>
        <time>2024-08-10T12:23:32Z</time>
      </trkpt>
      <trkpt lat="45.03078" lon="6.36229">
        <ele>1674</ele>
        <time>2024-08-10T12:23:33Z</time>
      </trkpt>
      <trkpt lat="45.03078" lon="6.36229">
        <ele>1674</ele>
        <time>2024-08-10T12:23:34Z</time>
      </trkpt>
      <trkpt lat="45.03078" lon="6.3623">
        <ele>1674</ele>
        <time>2024-08-10T12:23:35Z</time>
      </trkpt>
      <trkpt lat="45.03078" lon="6.3623">
        <ele>1674</ele>
        <time>2024-08-10T12:23:36Z</time>
      </trkpt>
      <trkpt lat="45.03079" lon="6.36231">
        <ele>1674</ele>
        <time>2024-08-10T12:23:37Z</time>
      </trkpt>
      <trkpt lat="45.03079" lon="6.36232">
        <ele>1674</ele>
        <time>2024-08-10T12:23:38Z</time>
      </trkpt>
      <trkpt lat="45.03079" lon="6.36232">
        <ele>1674</ele>
        <time>2024-08-10T12:23:39Z</time>
      </trkpt>
      <trkpt lat="45.03079" lon="6.36233">
        <ele>1674.2</ele>
        <time>2024-08-10T12:23:40Z</time>
      </trkpt>
      <trkpt lat="45.03079" lon="6.36233">
        <ele>1674.2</ele>
        <time>2024-08-10T12:23:41Z</time>
      </trkpt>
      <trkpt lat="45.03079" lon="6.36234">
        <ele>1674</ele>
        <time>2024-08-10T12:23:42Z</time>
      </trkpt>
      <trkpt lat="45.03079" lon="6.36234">
        <ele>1674</ele>
        <time>2024-08-10T12:23:43Z</time>
      </trkpt>
      <trkpt lat="45.03079" lon="6.36235">
        <ele>1674</ele>
        <time>2024-08-10T12:23:44Z</time>
      </trkpt>
      <trkpt lat="45.03079" lon="6.36235">
        <ele>1674</ele>
        <time>2024-08-10T12:23:45Z</time>
      </trkpt>
      <trkpt lat="45.03079" lon="6.36236">
        <ele>1674</ele>
        <time>2024-08-10T12:23:46Z</time>
      </trkpt>
      <trkpt lat="45.03079" lon="6.36236">
        <ele>1674</ele>
        <time>2024-08-10T12:23:47Z</time>
      </trkpt>
      <trkpt lat="45.03079" lon="6.36237">
        <ele>1674</ele>
        <time>2024-08-10T12:23:48Z</time>
      </trkpt>
      <trkpt lat="45.03079" lon="6.36237">
        <ele>1674</ele>
        <time>2024-08-10T12:23:49Z</time>
      </trkpt>
      <trkpt lat="45.03079" lon="6.36238">
        <ele>1674</ele>
        <time>2024-08-10T12:23:50Z</time>
      </trkpt>
      <trkpt lat="45.03079" lon="6.36238">
        <ele>1674</ele>
        <time>2024-08-10T12:23:51Z</time>
      </trkpt>
      <trkpt lat="45.03079" lon="6.36239">
        <ele>1674.2</ele>
        <time>2024-08-10T12:23:52Z</time>
      </trkpt>
      <trkpt lat="45.03079" lon="6.36239">
        <ele>1674.2</ele>
        <time>2024-08-10T12:23:53Z</time>
      </trkpt>
      <trkpt lat="45.03079" lon="6.36241">
        <ele>1674.4</ele>
        <time>2024-08-10T12:23:54Z</time>
      </trkpt>
      <trkpt lat="45.03079" lon="6.36241">
        <ele>1674.4</ele>
        <time>2024-08-10T12:23:55Z</time>
      </trkpt>
      <trkpt lat="45.03079" lon="6.36241">
        <ele>1674.2</ele>
        <time>2024-08-10T12:23:56Z</time>
      </trkpt>
      <trkpt lat="45.03079" lon="6.36241">
        <ele>1674</ele>
        <time>2024-08-10T12:23:57Z</time>
      </trkpt>
      <trkpt lat="45.03079" lon="6.36241">
        <ele>1674</ele>
        <time>2024-08-10T12:23:58Z</time>
      </trkpt>
      <trkpt lat="45.03079" lon="6.36241">
        <ele>1674</ele>
        <time>2024-08-10T12:23:59Z</time>
      </trkpt>
      <trkpt lat="45.03079" lon="6.36241">
        <ele>1674</ele>
        <time>2024-08-10T12:24:00Z</time>
      </trkpt>
      <trkpt lat="45.03079" lon="6.36241">
        <ele>1674.2</ele>
        <time>2024-08-10T12:24:01Z</time>
      </trkpt>
      <trkpt lat="45.03079" lon="6.36241">
        <ele>1674.4</ele>
        <time>2024-08-10T12:24:02Z</time>
      </trkpt>
      <trkpt lat="45.03081" lon="6.36243">
        <ele>1674.2</ele>
        <time>2024-08-10T12:24:03Z</time>
      </trkpt>
      <trkpt lat="45.03081" lon="6.36243">
        <ele>1674.2</ele>
        <time>2024-08-10T12:24:04Z</time>
      </trkpt>
      <trkpt lat="45.03081" lon="6.36243">
        <ele>1673.8</ele>
        <time>2024-08-10T12:24:05Z</time>
      </trkpt>
      <trkpt lat="45.03081" lon="6.36243">
        <ele>1673.8</ele>
        <time>2024-08-10T12:24:06Z</time>
      </trkpt>
      <trkpt lat="45.03081" lon="6.36243">
        <ele>1673.8</ele>
        <time>2024-08-10T12:24:07Z</time>
      </trkpt>
      <trkpt lat="45.03081" lon="6.36243">
        <ele>1673.8</ele>
        <time>2024-08-10T12:24:08Z</time>
      </trkpt>
      <trkpt lat="45.03081" lon="6.36243">
        <ele>1673.6</ele>
        <time>2024-08-10T12:24:09Z</time>
      </trkpt>
      <trkpt lat="45.03081" lon="6.36243">
        <ele>1673.6</ele>
        <time>2024-08-10T12:24:10Z</time>
      </trkpt>
      <trkpt lat="45.03081" lon="6.36243">
        <ele>1673.6</ele>
        <time>2024-08-10T12:24:11Z</time>
      </trkpt>
      <trkpt lat="45.03081" lon="6.36243">
        <ele>1673.6</ele>
        <time>2024-08-10T12:24:12Z</time>
      </trkpt>
      <trkpt lat="45.03081" lon="6.36243">
        <ele>1673.6</ele>
        <time>2024-08-10T12:24:13Z</time>
      </trkpt>
      <trkpt lat="45.03081" lon="6.36243">
        <ele>1673.6</ele>
        <time>2024-08-10T12:24:14Z</time>
      </trkpt>
      <trkpt lat="45.03081" lon="6.36243">
        <ele>1673.6</ele>
        <time>2024-08-10T12:24:15Z</time>
      </trkpt>
      <trkpt lat="45.03081" lon="6.36243">
        <ele>1673.6</ele>
        <time>2024-08-10T12:24:16Z</time>
      </trkpt>
      <trkpt lat="45.03081" lon="6.36243">
        <ele>1673.6</ele>
        <time>2024-08-10T12:24:17Z</time>
      </trkpt>
      <trkpt lat="45.03081" lon="6.36243">
        <ele>1673.4</ele>
        <time>2024-08-10T12:24:18Z</time>
      </trkpt>
      <trkpt lat="45.03081" lon="6.3624">
        <ele>1673.6</ele>
        <time>2024-08-10T12:24:19Z</time>
      </trkpt>
      <trkpt lat="45.03081" lon="6.3624">
        <ele>1673.4</ele>
        <time>2024-08-10T12:24:20Z</time>
      </trkpt>
      <trkpt lat="45.03081" lon="6.36235">
        <ele>1673.6</ele>
        <time>2024-08-10T12:24:21Z</time>
      </trkpt>
      <trkpt lat="45.03081" lon="6.36235">
        <ele>1673.6</ele>
        <time>2024-08-10T12:24:22Z</time>
      </trkpt>
      <trkpt lat="45.03082" lon="6.36232">
        <ele>1673.8</ele>
        <time>2024-08-10T12:24:23Z</time>
      </trkpt>
      <trkpt lat="45.03082" lon="6.36232">
        <ele>1673.8</ele>
        <time>2024-08-10T12:24:24Z</time>
      </trkpt>
      <trkpt lat="45.03082" lon="6.36229">
        <ele>1673.6</ele>
        <time>2024-08-10T12:24:25Z</time>
      </trkpt>
      <trkpt lat="45.03082" lon="6.36229">
        <ele>1673.6</ele>
        <time>2024-08-10T12:24:26Z</time>
      </trkpt>
      <trkpt lat="45.03081" lon="6.36226">
        <ele>1673.8</ele>
        <time>2024-08-10T12:24:27Z</time>
      </trkpt>
      <trkpt lat="45.03081" lon="6.36226">
        <ele>1674</ele>
        <time>2024-08-10T12:24:28Z</time>
      </trkpt>
      <trkpt lat="45.03081" lon="6.36226">
        <ele>1674</ele>
        <time>2024-08-10T12:24:29Z</time>
      </trkpt>
      <trkpt lat="45.03081" lon="6.36226">
        <ele>1673.8</ele>
        <time>2024-08-10T12:24:30Z</time>
      </trkpt>
      <trkpt lat="45.03081" lon="6.36226">
        <ele>1673.8</ele>
        <time>2024-08-10T12:24:31Z</time>
      </trkpt>
      <trkpt lat="45.03081" lon="6.36226">
        <ele>1673.8</ele>
        <time>2024-08-10T12:24:32Z</time>
      </trkpt>
      <trkpt lat="45.03081" lon="6.36226">
        <ele>1673.8</ele>
        <time>2024-08-10T12:24:33Z</time>
      </trkpt>
      <trkpt lat="45.03081" lon="6.36226">
        <ele>1673.8</ele>
        <time>2024-08-10T12:24:34Z</time>
      </trkpt>
      <trkpt lat="45.03081" lon="6.36226">
        <ele>1674</ele>
        <time>2024-08-10T12:24:35Z</time>
      </trkpt>
      <trkpt lat="45.03081" lon="6.36226">
        <ele>1674</ele>
        <time>2024-08-10T12:24:36Z</time>
      </trkpt>
      <trkpt lat="45.03081" lon="6.36226">
        <ele>1674</ele>
        <time>2024-08-10T12:24:37Z</time>
      </trkpt>
      <trkpt lat="45.03081" lon="6.36226">
        <ele>1674.4</ele>
        <time>2024-08-10T12:24:38Z</time>
      </trkpt>
      <trkpt lat="45.03081" lon="6.36226">
        <ele>1674.4</ele>
        <time>2024-08-10T12:24:39Z</time>
      </trkpt>
      <trkpt lat="45.03081" lon="6.36226">
        <ele>1674.6</ele>
        <time>2024-08-10T12:24:40Z</time>
      </trkpt>
      <trkpt lat="45.03081" lon="6.36226">
        <ele>1674.6</ele>
        <time>2024-08-10T12:24:41Z</time>
      </trkpt>
      <trkpt lat="45.03081" lon="6.36226">
        <ele>1674.6</ele>
        <time>2024-08-10T12:24:42Z</time>
      </trkpt>
      <trkpt lat="45.03081" lon="6.36226">
        <ele>1674.4</ele>
        <time>2024-08-10T12:24:43Z</time>
      </trkpt>
      <trkpt lat="45.03081" lon="6.36226">
        <ele>1674</ele>
        <time>2024-08-10T12:24:44Z</time>
      </trkpt>
      <trkpt lat="45.03081" lon="6.36226">
        <ele>1673.8</ele>
        <time>2024-08-10T12:24:45Z</time>
      </trkpt>
      <trkpt lat="45.03081" lon="6.36226">
        <ele>1673.4</ele>
        <time>2024-08-10T12:24:46Z</time>
      </trkpt>
      <trkpt lat="45.03081" lon="6.36226">
        <ele>1673.4</ele>
        <time>2024-08-10T12:24:47Z</time>
      </trkpt>
      <trkpt lat="45.03081" lon="6.36226">
        <ele>1674.2</ele>
        <time>2024-08-10T12:24:48Z</time>
      </trkpt>
      <trkpt lat="45.03081" lon="6.36226">
        <ele>1674.2</ele>
        <time>2024-08-10T12:24:49Z</time>
      </trkpt>
      <trkpt lat="45.03081" lon="6.36226">
        <ele>1674.2</ele>
        <time>2024-08-10T12:24:50Z</time>
      </trkpt>
      <trkpt lat="45.03081" lon="6.36226">
        <ele>1674</ele>
        <time>2024-08-10T12:24:51Z</time>
      </trkpt>
      <trkpt lat="45.03081" lon="6.36226">
        <ele>1674</ele>
        <time>2024-08-10T12:24:52Z</time>
      </trkpt>
      <trkpt lat="45.03081" lon="6.36226">
        <ele>1674</ele>
        <time>2024-08-10T12:24:53Z</time>
      </trkpt>
      <trkpt lat="45.03081" lon="6.36226">
        <ele>1674</ele>
        <time>2024-08-10T12:24:54Z</time>
      </trkpt>
      <trkpt lat="45.03081" lon="6.36226">
        <ele>1674.2</ele>
        <time>2024-08-10T12:24:55Z</time>
      </trkpt>
      <trkpt lat="45.03081" lon="6.36226">
        <ele>1674.2</ele>
        <time>2024-08-10T12:24:56Z</time>
      </trkpt>
      <trkpt lat="45.03083" lon="6.36227">
        <ele>1674.4</ele>
        <time>2024-08-10T12:24:57Z</time>
      </trkpt>
      <trkpt lat="45.03083" lon="6.36227">
        <ele>1674.4</ele>
        <time>2024-08-10T12:24:58Z</time>
      </trkpt>
      <trkpt lat="45.03085" lon="6.36228">
        <ele>1675</ele>
        <time>2024-08-10T12:24:59Z</time>
      </trkpt>
      <trkpt lat="45.03085" lon="6.36228">
        <ele>1675</ele>
        <time>2024-08-10T12:25:00Z</time>
      </trkpt>
      <trkpt lat="45.03085" lon="6.36228">
        <ele>1674.8</ele>
        <time>2024-08-10T12:25:01Z</time>
      </trkpt>
      <trkpt lat="45.03087" lon="6.3623">
        <ele>1674.8</ele>
        <time>2024-08-10T12:25:02Z</time>
      </trkpt>
      <trkpt lat="45.03087" lon="6.3623">
        <ele>1674.4</ele>
        <time>2024-08-10T12:25:03Z</time>
      </trkpt>
      <trkpt lat="45.03089" lon="6.36231">
        <ele>1674.4</ele>
        <time>2024-08-10T12:25:04Z</time>
      </trkpt>
      <trkpt lat="45.03089" lon="6.36231">
        <ele>1674.6</ele>
        <time>2024-08-10T12:25:05Z</time>
      </trkpt>
      <trkpt lat="45.0309" lon="6.36234">
        <ele>1675</ele>
        <time>2024-08-10T12:25:06Z</time>
      </trkpt>
      <trkpt lat="45.0309" lon="6.36234">
        <ele>1675</ele>
        <time>2024-08-10T12:25:07Z</time>
      </trkpt>
      <trkpt lat="45.03091" lon="6.36237">
        <ele>1674.8</ele>
        <time>2024-08-10T12:25:08Z</time>
      </trkpt>
      <trkpt lat="45.03091" lon="6.36237">
        <ele>1674.8</ele>
        <time>2024-08-10T12:25:09Z</time>
      </trkpt>
      <trkpt lat="45.03091" lon="6.36237">
        <ele>1674.4</ele>
        <time>2024-08-10T12:25:10Z</time>
      </trkpt>
      <trkpt lat="45.03091" lon="6.36237">
        <ele>1673.8</ele>
        <time>2024-08-10T12:25:11Z</time>
      </trkpt>
      <trkpt lat="45.03092" lon="6.36242">
        <ele>1673.8</ele>
        <time>2024-08-10T12:25:12Z</time>
      </trkpt>
      <trkpt lat="45.03092" lon="6.36244">
        <ele>1673.8</ele>
        <time>2024-08-10T12:25:13Z</time>
      </trkpt>
      <trkpt lat="45.03092" lon="6.36253">
        <ele>1673.2</ele>
        <time>2024-08-10T12:25:14Z</time>
      </trkpt>
      <trkpt lat="45.03092" lon="6.36256">
        <ele>1673.2</ele>
        <time>2024-08-10T12:25:15Z</time>
      </trkpt>
      <trkpt lat="45.03092" lon="6.36256">
        <ele>1673.2</ele>
        <time>2024-08-10T12:25:16Z</time>
      </trkpt>
      <trkpt lat="45.03091" lon="6.3626">
        <ele>1673.6</ele>
        <time>2024-08-10T12:25:17Z</time>
      </trkpt>
      <trkpt lat="45.0309" lon="6.36265">
        <ele>1673.6</ele>
        <time>2024-08-10T12:25:18Z</time>
      </trkpt>
      <trkpt lat="45.0309" lon="6.36268">
        <ele>1673.2</ele>
        <time>2024-08-10T12:25:19Z</time>
      </trkpt>
      <trkpt lat="45.0309" lon="6.36271">
        <ele>1673</ele>
        <time>2024-08-10T12:25:20Z</time>
      </trkpt>
      <trkpt lat="45.0309" lon="6.36274">
        <ele>1673</ele>
        <time>2024-08-10T12:25:21Z</time>
      </trkpt>
      <trkpt lat="45.0309" lon="6.36274">
        <ele>1673.4</ele>
        <time>2024-08-10T12:25:22Z</time>
      </trkpt>
      <trkpt lat="45.0309" lon="6.36278">
        <ele>1673.4</ele>
        <time>2024-08-10T12:25:23Z</time>
      </trkpt>
      <trkpt lat="45.0309" lon="6.36278">
        <ele>1673.2</ele>
        <time>2024-08-10T12:25:24Z</time>
      </trkpt>
      <trkpt lat="45.03089" lon="6.36282">
        <ele>1673.2</ele>
        <time>2024-08-10T12:25:25Z</time>
      </trkpt>
      <trkpt lat="45.03089" lon="6.36282">
        <ele>1673.2</ele>
        <time>2024-08-10T12:25:26Z</time>
      </trkpt>
      <trkpt lat="45.03088" lon="6.36285">
        <ele>1673.2</ele>
        <time>2024-08-10T12:25:27Z</time>
      </trkpt>
      <trkpt lat="45.03088" lon="6.36285">
        <ele>1673.2</ele>
        <time>2024-08-10T12:25:28Z</time>
      </trkpt>
      <trkpt lat="45.03087" lon="6.36288">
        <ele>1673</ele>
        <time>2024-08-10T12:25:29Z</time>
      </trkpt>
      <trkpt lat="45.03087" lon="6.36288">
        <ele>1672.8</ele>
        <time>2024-08-10T12:25:30Z</time>
      </trkpt>
      <trkpt lat="45.03087" lon="6.36291">
        <ele>1672.8</ele>
        <time>2024-08-10T12:25:31Z</time>
      </trkpt>
      <trkpt lat="45.03087" lon="6.36291">
        <ele>1672.6</ele>
        <time>2024-08-10T12:25:32Z</time>
      </trkpt>
      <trkpt lat="45.03086" lon="6.36294">
        <ele>1672.6</ele>
        <time>2024-08-10T12:25:33Z</time>
      </trkpt>
      <trkpt lat="45.03086" lon="6.36294">
        <ele>1672.6</ele>
        <time>2024-08-10T12:25:34Z</time>
      </trkpt>
      <trkpt lat="45.03086" lon="6.36297">
        <ele>1672.6</ele>
        <time>2024-08-10T12:25:35Z</time>
      </trkpt>
      <trkpt lat="45.03086" lon="6.36297">
        <ele>1672.6</ele>
        <time>2024-08-10T12:25:36Z</time>
      </trkpt>
      <trkpt lat="45.03085" lon="6.363">
        <ele>1672.6</ele>
        <time>2024-08-10T12:25:37Z</time>
      </trkpt>
      <trkpt lat="45.03085" lon="6.363">
        <ele>1672.8</ele>
        <time>2024-08-10T12:25:38Z</time>
      </trkpt>
      <trkpt lat="45.03083" lon="6.36303">
        <ele>1672.8</ele>
        <time>2024-08-10T12:25:39Z</time>
      </trkpt>
      <trkpt lat="45.03083" lon="6.36303">
        <ele>1672.8</ele>
        <time>2024-08-10T12:25:40Z</time>
      </trkpt>
      <trkpt lat="45.03082" lon="6.36307">
        <ele>1672.8</ele>
        <time>2024-08-10T12:25:41Z</time>
      </trkpt>
      <trkpt lat="45.03082" lon="6.36307">
        <ele>1673</ele>
        <time>2024-08-10T12:25:42Z</time>
      </trkpt>
      <trkpt lat="45.0308" lon="6.3631">
        <ele>1673.2</ele>
        <time>2024-08-10T12:25:43Z</time>
      </trkpt>
      <trkpt lat="45.0308" lon="6.3631">
        <ele>1673.2</ele>
        <time>2024-08-10T12:25:44Z</time>
      </trkpt>
      <trkpt lat="45.03079" lon="6.36314">
        <ele>1673.2</ele>
        <time>2024-08-10T12:25:45Z</time>
      </trkpt>
      <trkpt lat="45.03079" lon="6.36314">
        <ele>1673.2</ele>
        <time>2024-08-10T12:25:46Z</time>
      </trkpt>
      <trkpt lat="45.03078" lon="6.36317">
        <ele>1673.6</ele>
        <time>2024-08-10T12:25:47Z</time>
      </trkpt>
      <trkpt lat="45.03078" lon="6.36317">
        <ele>1673.8</ele>
        <time>2024-08-10T12:25:48Z</time>
      </trkpt>
      <trkpt lat="45.03077" lon="6.36321">
        <ele>1674</ele>
        <time>2024-08-10T12:25:49Z</time>
      </trkpt>
      <trkpt lat="45.03077" lon="6.36321">
        <ele>1674</ele>
        <time>2024-08-10T12:25:50Z</time>
      </trkpt>
      <trkpt lat="45.03076" lon="6.36323">
        <ele>1674</ele>
        <time>2024-08-10T12:25:51Z</time>
      </trkpt>
      <trkpt lat="45.03076" lon="6.36323">
        <ele>1674</ele>
        <time>2024-08-10T12:25:52Z</time>
      </trkpt>
      <trkpt lat="45.03075" lon="6.36326">
        <ele>1673.8</ele>
        <time>2024-08-10T12:25:53Z</time>
      </trkpt>
      <trkpt lat="45.03075" lon="6.36326">
        <ele>1673.8</ele>
        <time>2024-08-10T12:25:54Z</time>
      </trkpt>
      <trkpt lat="45.03073" lon="6.36329">
        <ele>1674</ele>
        <time>2024-08-10T12:25:55Z</time>
      </trkpt>
      <trkpt lat="45.03073" lon="6.36329">
        <ele>1674.2</ele>
        <time>2024-08-10T12:25:56Z</time>
      </trkpt>
      <trkpt lat="45.03072" lon="6.36331">
        <ele>1674.6</ele>
        <time>2024-08-10T12:25:57Z</time>
      </trkpt>
      <trkpt lat="45.03072" lon="6.36331">
        <ele>1674.8</ele>
        <time>2024-08-10T12:25:58Z</time>
      </trkpt>
      <trkpt lat="45.0307" lon="6.36334">
        <ele>1674.8</ele>
        <time>2024-08-10T12:25:59Z</time>
      </trkpt>
      <trkpt lat="45.0307" lon="6.36334">
        <ele>1674.6</ele>
        <time>2024-08-10T12:26:00Z</time>
      </trkpt>
      <trkpt lat="45.03068" lon="6.36337">
        <ele>1674.6</ele>
        <time>2024-08-10T12:26:01Z</time>
      </trkpt>
      <trkpt lat="45.03068" lon="6.36337">
        <ele>1674.6</ele>
        <time>2024-08-10T12:26:02Z</time>
      </trkpt>
      <trkpt lat="45.03066" lon="6.3634">
        <ele>1674.4</ele>
        <time>2024-08-10T12:26:03Z</time>
      </trkpt>
      <trkpt lat="45.03066" lon="6.3634">
        <ele>1674.4</ele>
        <time>2024-08-10T12:26:04Z</time>
      </trkpt>
      <trkpt lat="45.03063" lon="6.36342">
        <ele>1674</ele>
        <time>2024-08-10T12:26:05Z</time>
      </trkpt>
      <trkpt lat="45.03062" lon="6.36343">
        <ele>1674</ele>
        <time>2024-08-10T12:26:06Z</time>
      </trkpt>
      <trkpt lat="45.03062" lon="6.36343">
        <ele>1674</ele>
        <time>2024-08-10T12:26:07Z</time>
      </trkpt>
      <trkpt lat="45.0306" lon="6.36346">
        <ele>1674</ele>
        <time>2024-08-10T12:26:08Z</time>
      </trkpt>
      <trkpt lat="45.0306" lon="6.36346">
        <ele>1674</ele>
        <time>2024-08-10T12:26:09Z</time>
      </trkpt>
      <trkpt lat="45.03057" lon="6.36348">
        <ele>1674</ele>
        <time>2024-08-10T12:26:10Z</time>
      </trkpt>
      <trkpt lat="45.03057" lon="6.36348">
        <ele>1674</ele>
        <time>2024-08-10T12:26:11Z</time>
      </trkpt>
      <trkpt lat="45.03055" lon="6.3635">
        <ele>1674</ele>
        <time>2024-08-10T12:26:12Z</time>
      </trkpt>
      <trkpt lat="45.03055" lon="6.3635">
        <ele>1674</ele>
        <time>2024-08-10T12:26:13Z</time>
      </trkpt>
      <trkpt lat="45.03053" lon="6.36353">
        <ele>1673.8</ele>
        <time>2024-08-10T12:26:14Z</time>
      </trkpt>
      <trkpt lat="45.03053" lon="6.36353">
        <ele>1673.8</ele>
        <time>2024-08-10T12:26:15Z</time>
      </trkpt>
      <trkpt lat="45.03051" lon="6.36355">
        <ele>1673.8</ele>
        <time>2024-08-10T12:26:16Z</time>
      </trkpt>
      <trkpt lat="45.03051" lon="6.36355">
        <ele>1674</ele>
        <time>2024-08-10T12:26:17Z</time>
      </trkpt>
      <trkpt lat="45.03048" lon="6.36357">
        <ele>1674</ele>
        <time>2024-08-10T12:26:18Z</time>
      </trkpt>
      <trkpt lat="45.03048" lon="6.36357">
        <ele>1674.2</ele>
        <time>2024-08-10T12:26:19Z</time>
      </trkpt>
      <trkpt lat="45.03046" lon="6.36359">
        <ele>1674.2</ele>
        <time>2024-08-10T12:26:20Z</time>
      </trkpt>
      <trkpt lat="45.03045" lon="6.36361">
        <ele>1674</ele>
        <time>2024-08-10T12:26:21Z</time>
      </trkpt>
      <trkpt lat="45.03043" lon="6.36362">
        <ele>1673.8</ele>
        <time>2024-08-10T12:26:22Z</time>
      </trkpt>
      <trkpt lat="45.03043" lon="6.36362">
        <ele>1673.8</ele>
        <time>2024-08-10T12:26:23Z</time>
      </trkpt>
      <trkpt lat="45.0304" lon="6.36364">
        <ele>1673.6</ele>
        <time>2024-08-10T12:26:24Z</time>
      </trkpt>
      <trkpt lat="45.0304" lon="6.36364">
        <ele>1673.4</ele>
        <time>2024-08-10T12:26:25Z</time>
      </trkpt>
      <trkpt lat="45.03038" lon="6.36367">
        <ele>1673.4</ele>
        <time>2024-08-10T12:26:26Z</time>
      </trkpt>
      <trkpt lat="45.03038" lon="6.36367">
        <ele>1673.4</ele>
        <time>2024-08-10T12:26:27Z</time>
      </trkpt>
      <trkpt lat="45.03035" lon="6.36369">
        <ele>1673.6</ele>
        <time>2024-08-10T12:26:28Z</time>
      </trkpt>
      <trkpt lat="45.03035" lon="6.36369">
        <ele>1673.8</ele>
        <time>2024-08-10T12:26:29Z</time>
      </trkpt>
      <trkpt lat="45.03033" lon="6.36371">
        <ele>1673.8</ele>
        <time>2024-08-10T12:26:30Z</time>
      </trkpt>
      <trkpt lat="45.03033" lon="6.36371">
        <ele>1673.8</ele>
        <time>2024-08-10T12:26:31Z</time>
      </trkpt>
      <trkpt lat="45.0303" lon="6.36374">
        <ele>1673.8</ele>
        <time>2024-08-10T12:26:32Z</time>
      </trkpt>
      <trkpt lat="45.0303" lon="6.36374">
        <ele>1673.8</ele>
        <time>2024-08-10T12:26:33Z</time>
      </trkpt>
      <trkpt lat="45.0303" lon="6.36374">
        <ele>1673.8</ele>
        <time>2024-08-10T12:26:34Z</time>
      </trkpt>
      <trkpt lat="45.03029" lon="6.36377">
        <ele>1673.8</ele>
        <time>2024-08-10T12:26:35Z</time>
      </trkpt>
      <trkpt lat="45.03029" lon="6.36377">
        <ele>1673.8</ele>
        <time>2024-08-10T12:26:36Z</time>
      </trkpt>
      <trkpt lat="45.03027" lon="6.3638">
        <ele>1673.8</ele>
        <time>2024-08-10T12:26:37Z</time>
      </trkpt>
      <trkpt lat="45.03027" lon="6.3638">
        <ele>1673.8</ele>
        <time>2024-08-10T12:26:38Z</time>
      </trkpt>
      <trkpt lat="45.03025" lon="6.36382">
        <ele>1673.8</ele>
        <time>2024-08-10T12:26:39Z</time>
      </trkpt>
      <trkpt lat="45.03025" lon="6.36382">
        <ele>1674</ele>
        <time>2024-08-10T12:26:40Z</time>
      </trkpt>
      <trkpt lat="45.03022" lon="6.36384">
        <ele>1674.2</ele>
        <time>2024-08-10T12:26:41Z</time>
      </trkpt>
      <trkpt lat="45.03022" lon="6.36384">
        <ele>1674.2</ele>
        <time>2024-08-10T12:26:42Z</time>
      </trkpt>
      <trkpt lat="45.03019" lon="6.36385">
        <ele>1674.2</ele>
        <time>2024-08-10T12:26:43Z</time>
      </trkpt>
      <trkpt lat="45.03019" lon="6.36385">
        <ele>1674</ele>
        <time>2024-08-10T12:26:44Z</time>
      </trkpt>
      <trkpt lat="45.03017" lon="6.36387">
        <ele>1674</ele>
        <time>2024-08-10T12:26:45Z</time>
      </trkpt>
      <trkpt lat="45.03017" lon="6.36387">
        <ele>1674</ele>
        <time>2024-08-10T12:26:46Z</time>
      </trkpt>
      <trkpt lat="45.03014" lon="6.36389">
        <ele>1674.2</ele>
        <time>2024-08-10T12:26:47Z</time>
      </trkpt>
      <trkpt lat="45.03014" lon="6.36389">
        <ele>1674.2</ele>
        <time>2024-08-10T12:26:48Z</time>
      </trkpt>
      <trkpt lat="45.03012" lon="6.36391">
        <ele>1674.2</ele>
        <time>2024-08-10T12:26:49Z</time>
      </trkpt>
      <trkpt lat="45.03012" lon="6.36391">
        <ele>1674.2</ele>
        <time>2024-08-10T12:26:50Z</time>
      </trkpt>
      <trkpt lat="45.0301" lon="6.36393">
        <ele>1674.4</ele>
        <time>2024-08-10T12:26:51Z</time>
      </trkpt>
      <trkpt lat="45.0301" lon="6.36393">
        <ele>1674.4</ele>
        <time>2024-08-10T12:26:52Z</time>
      </trkpt>
      <trkpt lat="45.03007" lon="6.36396">
        <ele>1674.4</ele>
        <time>2024-08-10T12:26:53Z</time>
      </trkpt>
      <trkpt lat="45.03007" lon="6.36396">
        <ele>1674.4</ele>
        <time>2024-08-10T12:26:54Z</time>
      </trkpt>
      <trkpt lat="45.03005" lon="6.36398">
        <ele>1674.4</ele>
        <time>2024-08-10T12:26:55Z</time>
      </trkpt>
      <trkpt lat="45.03005" lon="6.36398">
        <ele>1674.4</ele>
        <time>2024-08-10T12:26:56Z</time>
      </trkpt>
      <trkpt lat="45.03003" lon="6.36399">
        <ele>1674.6</ele>
        <time>2024-08-10T12:26:57Z</time>
      </trkpt>
      <trkpt lat="45.03003" lon="6.36399">
        <ele>1674.6</ele>
        <time>2024-08-10T12:26:58Z</time>
      </trkpt>
      <trkpt lat="45.03" lon="6.364">
        <ele>1674.6</ele>
        <time>2024-08-10T12:26:59Z</time>
      </trkpt>
      <trkpt lat="45.03" lon="6.364">
        <ele>1674.6</ele>
        <time>2024-08-10T12:27:00Z</time>
      </trkpt>
      <trkpt lat="45.02997" lon="6.36401">
        <ele>1674.6</ele>
        <time>2024-08-10T12:27:01Z</time>
      </trkpt>
      <trkpt lat="45.02997" lon="6.36401">
        <ele>1674.6</ele>
        <time>2024-08-10T12:27:02Z</time>
      </trkpt>
      <trkpt lat="45.02994" lon="6.36402">
        <ele>1674.6</ele>
        <time>2024-08-10T12:27:03Z</time>
      </trkpt>
      <trkpt lat="45.02994" lon="6.36402">
        <ele>1674.6</ele>
        <time>2024-08-10T12:27:04Z</time>
      </trkpt>
      <trkpt lat="45.02993" lon="6.36403">
        <ele>1674.8</ele>
        <time>2024-08-10T12:27:05Z</time>
      </trkpt>
      <trkpt lat="45.02993" lon="6.36403">
        <ele>1675</ele>
        <time>2024-08-10T12:27:06Z</time>
      </trkpt>
      <trkpt lat="45.02991" lon="6.36405">
        <ele>1675</ele>
        <time>2024-08-10T12:27:07Z</time>
      </trkpt>
      <trkpt lat="45.02991" lon="6.36405">
        <ele>1675</ele>
        <time>2024-08-10T12:27:08Z</time>
      </trkpt>
      <trkpt lat="45.0299" lon="6.36408">
        <ele>1675</ele>
        <time>2024-08-10T12:27:09Z</time>
      </trkpt>
      <trkpt lat="45.0299" lon="6.36408">
        <ele>1674.8</ele>
        <time>2024-08-10T12:27:10Z</time>
      </trkpt>
      <trkpt lat="45.02988" lon="6.3641">
        <ele>1675</ele>
        <time>2024-08-10T12:27:11Z</time>
      </trkpt>
      <trkpt lat="45.02988" lon="6.3641">
        <ele>1675</ele>
        <time>2024-08-10T12:27:12Z</time>
      </trkpt>
      <trkpt lat="45.02987" lon="6.36408">
        <ele>1675</ele>
        <time>2024-08-10T12:27:13Z</time>
      </trkpt>
      <trkpt lat="45.02987" lon="6.36408">
        <ele>1675</ele>
        <time>2024-08-10T12:27:14Z</time>
      </trkpt>
      <trkpt lat="45.02986" lon="6.36404">
        <ele>1675</ele>
        <time>2024-08-10T12:27:15Z</time>
      </trkpt>
      <trkpt lat="45.02986" lon="6.36404">
        <ele>1675.2</ele>
        <time>2024-08-10T12:27:16Z</time>
      </trkpt>
      <trkpt lat="45.02986" lon="6.36404">
        <ele>1675</ele>
        <time>2024-08-10T12:27:17Z</time>
      </trkpt>
      <trkpt lat="45.02986" lon="6.36404">
        <ele>1675</ele>
        <time>2024-08-10T12:27:18Z</time>
      </trkpt>
      <trkpt lat="45.02986" lon="6.36404">
        <ele>1674.8</ele>
        <time>2024-08-10T12:27:19Z</time>
      </trkpt>
      <trkpt lat="45.02986" lon="6.36404">
        <ele>1674.6</ele>
        <time>2024-08-10T12:27:20Z</time>
      </trkpt>
      <trkpt lat="45.02986" lon="6.36404">
        <ele>1674.4</ele>
        <time>2024-08-10T12:27:21Z</time>
      </trkpt>
      <trkpt lat="45.02986" lon="6.36404">
        <ele>1674.2</ele>
        <time>2024-08-10T12:27:22Z</time>
      </trkpt>
      <trkpt lat="45.02986" lon="6.36404">
        <ele>1674.4</ele>
        <time>2024-08-10T12:27:23Z</time>
      </trkpt>
      <trkpt lat="45.02986" lon="6.36404">
        <ele>1674.4</ele>
        <time>2024-08-10T12:27:24Z</time>
      </trkpt>
      <trkpt lat="45.02986" lon="6.36404">
        <ele>1674.4</ele>
        <time>2024-08-10T12:27:25Z</time>
      </trkpt>
      <trkpt lat="45.02986" lon="6.36404">
        <ele>1674</ele>
        <time>2024-08-10T12:27:26Z</time>
      </trkpt>
      <trkpt lat="45.02986" lon="6.36404">
        <ele>1674</ele>
        <time>2024-08-10T12:27:27Z</time>
      </trkpt>
      <trkpt lat="45.02986" lon="6.36404">
        <ele>1674.4</ele>
        <time>2024-08-10T12:27:28Z</time>
      </trkpt>
      <trkpt lat="45.02986" lon="6.36404">
        <ele>1674.4</ele>
        <time>2024-08-10T12:27:29Z</time>
      </trkpt>
      <trkpt lat="45.02986" lon="6.36404">
        <ele>1674.4</ele>
        <time>2024-08-10T12:27:30Z</time>
      </trkpt>
      <trkpt lat="45.02986" lon="6.36404">
        <ele>1674.4</ele>
        <time>2024-08-10T12:27:31Z</time>
      </trkpt>
      <trkpt lat="45.02986" lon="6.36404">
        <ele>1674.4</ele>
        <time>2024-08-10T12:27:32Z</time>
      </trkpt>
      <trkpt lat="45.02986" lon="6.36404">
        <ele>1674.4</ele>
        <time>2024-08-10T12:27:33Z</time>
      </trkpt>
      <trkpt lat="45.02986" lon="6.36404">
        <ele>1674.4</ele>
        <time>2024-08-10T12:27:34Z</time>
      </trkpt>
      <trkpt lat="45.02986" lon="6.36404">
        <ele>1674.6</ele>
        <time>2024-08-10T12:27:35Z</time>
      </trkpt>
      <trkpt lat="45.02986" lon="6.36404">
        <ele>1674.8</ele>
        <time>2024-08-10T12:27:36Z</time>
      </trkpt>
      <trkpt lat="45.02986" lon="6.36404">
        <ele>1674.8</ele>
        <time>2024-08-10T12:27:37Z</time>
      </trkpt>
      <trkpt lat="45.02986" lon="6.36404">
        <ele>1675</ele>
        <time>2024-08-10T12:27:38Z</time>
      </trkpt>
      <trkpt lat="45.02986" lon="6.36404">
        <ele>1675</ele>
        <time>2024-08-10T12:27:39Z</time>
      </trkpt>
      <trkpt lat="45.02986" lon="6.36404">
        <ele>1674.6</ele>
        <time>2024-08-10T12:27:40Z</time>
      </trkpt>
      <trkpt lat="45.02986" lon="6.36404">
        <ele>1674.2</ele>
        <time>2024-08-10T12:27:41Z</time>
      </trkpt>
      <trkpt lat="45.02986" lon="6.36404">
        <ele>1674</ele>
        <time>2024-08-10T12:27:42Z</time>
      </trkpt>
      <trkpt lat="45.02986" lon="6.36404">
        <ele>1673.8</ele>
        <time>2024-08-10T12:27:43Z</time>
      </trkpt>
      <trkpt lat="45.02986" lon="6.36404">
        <ele>1673.8</ele>
        <time>2024-08-10T12:27:44Z</time>
      </trkpt>
      <trkpt lat="45.02986" lon="6.36404">
        <ele>1674</ele>
        <time>2024-08-10T12:27:45Z</time>
      </trkpt>
      <trkpt lat="45.02986" lon="6.36404">
        <ele>1674.2</ele>
        <time>2024-08-10T12:27:46Z</time>
      </trkpt>
      <trkpt lat="45.02986" lon="6.36404">
        <ele>1674.2</ele>
        <time>2024-08-10T12:27:47Z</time>
      </trkpt>
      <trkpt lat="45.02986" lon="6.36404">
        <ele>1674.4</ele>
        <time>2024-08-10T12:27:48Z</time>
      </trkpt>
      <trkpt lat="45.02986" lon="6.36404">
        <ele>1674.4</ele>
        <time>2024-08-10T12:27:49Z</time>
      </trkpt>
      <trkpt lat="45.02986" lon="6.36404">
        <ele>1674.6</ele>
        <time>2024-08-10T12:27:50Z</time>
      </trkpt>
      <trkpt lat="45.02986" lon="6.36404">
        <ele>1674.6</ele>
        <time>2024-08-10T12:27:51Z</time>
      </trkpt>
      <trkpt lat="45.02986" lon="6.36404">
        <ele>1674.6</ele>
        <time>2024-08-10T12:27:52Z</time>
      </trkpt>
      <trkpt lat="45.02988" lon="6.36405">
        <ele>1674.6</ele>
        <time>2024-08-10T12:27:53Z</time>
      </trkpt>
      <trkpt lat="45.02988" lon="6.36405">
        <ele>1674.6</ele>
        <time>2024-08-10T12:27:54Z</time>
      </trkpt>
      <trkpt lat="45.02987" lon="6.3641">
        <ele>1674.6</ele>
        <time>2024-08-10T12:27:55Z</time>
      </trkpt>
      <trkpt lat="45.02987" lon="6.3641">
        <ele>1674.4</ele>
        <time>2024-08-10T12:27:56Z</time>
      </trkpt>
      <trkpt lat="45.02986" lon="6.36414">
        <ele>1674.4</ele>
        <time>2024-08-10T12:27:57Z</time>
      </trkpt>
      <trkpt lat="45.02986" lon="6.36414">
        <ele>1674.4</ele>
        <time>2024-08-10T12:27:58Z</time>
      </trkpt>
      <trkpt lat="45.02983" lon="6.36417">
        <ele>1674.4</ele>
        <time>2024-08-10T12:27:59Z</time>
      </trkpt>
      <trkpt lat="45.02983" lon="6.36417">
        <ele>1674.4</ele>
        <time>2024-08-10T12:28:00Z</time>
      </trkpt>
      <trkpt lat="45.02981" lon="6.3642">
        <ele>1674.4</ele>
        <time>2024-08-10T12:28:01Z</time>
      </trkpt>
      <trkpt lat="45.02981" lon="6.3642">
        <ele>1674.2</ele>
        <time>2024-08-10T12:28:02Z</time>
      </trkpt>
      <trkpt lat="45.02979" lon="6.36423">
        <ele>1674.4</ele>
        <time>2024-08-10T12:28:03Z</time>
      </trkpt>
      <trkpt lat="45.02979" lon="6.36423">
        <ele>1674.4</ele>
        <time>2024-08-10T12:28:04Z</time>
      </trkpt>
      <trkpt lat="45.02977" lon="6.36425">
        <ele>1674.2</ele>
        <time>2024-08-10T12:28:05Z</time>
      </trkpt>
      <trkpt lat="45.02977" lon="6.36425">
        <ele>1674.2</ele>
        <time>2024-08-10T12:28:06Z</time>
      </trkpt>
      <trkpt lat="45.02975" lon="6.36427">
        <ele>1674.4</ele>
        <time>2024-08-10T12:28:07Z</time>
      </trkpt>
      <trkpt lat="45.02973" lon="6.36429">
        <ele>1674.4</ele>
        <time>2024-08-10T12:28:08Z</time>
      </trkpt>
      <trkpt lat="45.02973" lon="6.36429">
        <ele>1674.4</ele>
        <time>2024-08-10T12:28:09Z</time>
      </trkpt>
      <trkpt lat="45.02971" lon="6.3643">
        <ele>1674.2</ele>
        <time>2024-08-10T12:28:10Z</time>
      </trkpt>
      <trkpt lat="45.02971" lon="6.3643">
        <ele>1674.2</ele>
        <time>2024-08-10T12:28:11Z</time>
      </trkpt>
      <trkpt lat="45.02971" lon="6.3643">
        <ele>1674</ele>
        <time>2024-08-10T12:28:12Z</time>
      </trkpt>
      <trkpt lat="45.02971" lon="6.3643">
        <ele>1674</ele>
        <time>2024-08-10T12:28:13Z</time>
      </trkpt>
      <trkpt lat="45.02971" lon="6.3643">
        <ele>1674</ele>
        <time>2024-08-10T12:28:14Z</time>
      </trkpt>
      <trkpt lat="45.02971" lon="6.3643">
        <ele>1674</ele>
        <time>2024-08-10T12:28:15Z</time>
      </trkpt>
      <trkpt lat="45.02971" lon="6.3643">
        <ele>1674</ele>
        <time>2024-08-10T12:28:16Z</time>
      </trkpt>
      <trkpt lat="45.02971" lon="6.3643">
        <ele>1673.8</ele>
        <time>2024-08-10T12:28:17Z</time>
      </trkpt>
      <trkpt lat="45.02971" lon="6.3643">
        <ele>1673.8</ele>
        <time>2024-08-10T12:28:18Z</time>
      </trkpt>
      <trkpt lat="45.02971" lon="6.3643">
        <ele>1674</ele>
        <time>2024-08-10T12:28:19Z</time>
      </trkpt>
      <trkpt lat="45.02971" lon="6.3643">
        <ele>1674</ele>
        <time>2024-08-10T12:28:20Z</time>
      </trkpt>
      <trkpt lat="45.02971" lon="6.3643">
        <ele>1674.6</ele>
        <time>2024-08-10T12:28:21Z</time>
      </trkpt>
      <trkpt lat="45.02971" lon="6.3643">
        <ele>1674.6</ele>
        <time>2024-08-10T12:28:22Z</time>
      </trkpt>
      <trkpt lat="45.02971" lon="6.3643">
        <ele>1674.4</ele>
        <time>2024-08-10T12:28:23Z</time>
      </trkpt>
      <trkpt lat="45.02969" lon="6.36431">
        <ele>1674.2</ele>
        <time>2024-08-10T12:28:24Z</time>
      </trkpt>
      <trkpt lat="45.02969" lon="6.36431">
        <ele>1674.2</ele>
        <time>2024-08-10T12:28:25Z</time>
      </trkpt>
      <trkpt lat="45.02967" lon="6.36435">
        <ele>1674.2</ele>
        <time>2024-08-10T12:28:26Z</time>
      </trkpt>
      <trkpt lat="45.02967" lon="6.36435">
        <ele>1673.8</ele>
        <time>2024-08-10T12:28:27Z</time>
      </trkpt>
      <trkpt lat="45.02965" lon="6.3644">
        <ele>1673.8</ele>
        <time>2024-08-10T12:28:28Z</time>
      </trkpt>
      <trkpt lat="45.02965" lon="6.3644">
        <ele>1674</ele>
        <time>2024-08-10T12:28:29Z</time>
      </trkpt>
      <trkpt lat="45.02964" lon="6.36444">
        <ele>1674</ele>
        <time>2024-08-10T12:28:30Z</time>
      </trkpt>
      <trkpt lat="45.02964" lon="6.36444">
        <ele>1674.2</ele>
        <time>2024-08-10T12:28:31Z</time>
      </trkpt>
      <trkpt lat="45.02962" lon="6.36447">
        <ele>1674.2</ele>
        <time>2024-08-10T12:28:32Z</time>
      </trkpt>
      <trkpt lat="45.02962" lon="6.36447">
        <ele>1674.4</ele>
        <time>2024-08-10T12:28:33Z</time>
      </trkpt>
      <trkpt lat="45.02961" lon="6.36451">
        <ele>1674.4</ele>
        <time>2024-08-10T12:28:34Z</time>
      </trkpt>
      <trkpt lat="45.02961" lon="6.36451">
        <ele>1674.4</ele>
        <time>2024-08-10T12:28:35Z</time>
      </trkpt>
      <trkpt lat="45.02959" lon="6.36455">
        <ele>1674.6</ele>
        <time>2024-08-10T12:28:36Z</time>
      </trkpt>
      <trkpt lat="45.02959" lon="6.36455">
        <ele>1674.8</ele>
        <time>2024-08-10T12:28:37Z</time>
      </trkpt>
      <trkpt lat="45.02958" lon="6.36458">
        <ele>1675</ele>
        <time>2024-08-10T12:28:38Z</time>
      </trkpt>
      <trkpt lat="45.02958" lon="6.36458">
        <ele>1675</ele>
        <time>2024-08-10T12:28:39Z</time>
      </trkpt>
      <trkpt lat="45.02957" lon="6.36461">
        <ele>1675</ele>
        <time>2024-08-10T12:28:40Z</time>
      </trkpt>
      <trkpt lat="45.02957" lon="6.36461">
        <ele>1674.8</ele>
        <time>2024-08-10T12:28:41Z</time>
      </trkpt>
      <trkpt lat="45.02955" lon="6.36464">
        <ele>1674.8</ele>
        <time>2024-08-10T12:28:42Z</time>
      </trkpt>
      <trkpt lat="45.02955" lon="6.36464">
        <ele>1674.8</ele>
        <time>2024-08-10T12:28:43Z</time>
      </trkpt>
      <trkpt lat="45.02954" lon="6.36468">
        <ele>1675</ele>
        <time>2024-08-10T12:28:44Z</time>
      </trkpt>
      <trkpt lat="45.02954" lon="6.36468">
        <ele>1675</ele>
        <time>2024-08-10T12:28:45Z</time>
      </trkpt>
      <trkpt lat="45.02953" lon="6.36472">
        <ele>1675.2</ele>
        <time>2024-08-10T12:28:46Z</time>
      </trkpt>
      <trkpt lat="45.02953" lon="6.36472">
        <ele>1675.4</ele>
        <time>2024-08-10T12:28:47Z</time>
      </trkpt>
      <trkpt lat="45.02953" lon="6.36476">
        <ele>1675.4</ele>
        <time>2024-08-10T12:28:48Z</time>
      </trkpt>
      <trkpt lat="45.02953" lon="6.36476">
        <ele>1675.4</ele>
        <time>2024-08-10T12:28:49Z</time>
      </trkpt>
      <trkpt lat="45.02953" lon="6.36479">
        <ele>1675.4</ele>
        <time>2024-08-10T12:28:50Z</time>
      </trkpt>
      <trkpt lat="45.02953" lon="6.36479">
        <ele>1675.4</ele>
        <time>2024-08-10T12:28:51Z</time>
      </trkpt>
      <trkpt lat="45.02953" lon="6.36479">
        <ele>1675.8</ele>
        <time>2024-08-10T12:28:52Z</time>
      </trkpt>
      <trkpt lat="45.02954" lon="6.36482">
        <ele>1675.8</ele>
        <time>2024-08-10T12:28:53Z</time>
      </trkpt>
      <trkpt lat="45.02954" lon="6.36482">
        <ele>1676</ele>
        <time>2024-08-10T12:28:54Z</time>
      </trkpt>
      <trkpt lat="45.02954" lon="6.36482">
        <ele>1676.2</ele>
        <time>2024-08-10T12:28:55Z</time>
      </trkpt>
      <trkpt lat="45.02954" lon="6.36484">
        <ele>1676.4</ele>
        <time>2024-08-10T12:28:56Z</time>
      </trkpt>
      <trkpt lat="45.02954" lon="6.36484">
        <ele>1676.4</ele>
        <time>2024-08-10T12:28:57Z</time>
      </trkpt>
      <trkpt lat="45.02953" lon="6.36487">
        <ele>1676.6</ele>
        <time>2024-08-10T12:28:58Z</time>
      </trkpt>
      <trkpt lat="45.02953" lon="6.36487">
        <ele>1676.6</ele>
        <time>2024-08-10T12:28:59Z</time>
      </trkpt>
      <trkpt lat="45.02953" lon="6.36487">
        <ele>1676.8</ele>
        <time>2024-08-10T12:29:00Z</time>
      </trkpt>
      <trkpt lat="45.02951" lon="6.36489">
        <ele>1677.2</ele>
        <time>2024-08-10T12:29:01Z</time>
      </trkpt>
      <trkpt lat="45.02951" lon="6.36489">
        <ele>1677.4</ele>
        <time>2024-08-10T12:29:02Z</time>
      </trkpt>
      <trkpt lat="45.02951" lon="6.36489">
        <ele>1677.6</ele>
        <time>2024-08-10T12:29:03Z</time>
      </trkpt>
      <trkpt lat="45.02949" lon="6.36492">
        <ele>1677.6</ele>
        <time>2024-08-10T12:29:04Z</time>
      </trkpt>
      <trkpt lat="45.02949" lon="6.36492">
        <ele>1678</ele>
        <time>2024-08-10T12:29:05Z</time>
      </trkpt>
      <trkpt lat="45.02947" lon="6.36495">
        <ele>1678.2</ele>
        <time>2024-08-10T12:29:06Z</time>
      </trkpt>
      <trkpt lat="45.02947" lon="6.36495">
        <ele>1678.6</ele>
        <time>2024-08-10T12:29:07Z</time>
      </trkpt>
      <trkpt lat="45.02944" lon="6.36497">
        <ele>1678.8</ele>
        <time>2024-08-10T12:29:08Z</time>
      </trkpt>
      <trkpt lat="45.02944" lon="6.36497">
        <ele>1678.8</ele>
        <time>2024-08-10T12:29:09Z</time>
      </trkpt>
      <trkpt lat="45.02943" lon="6.36499">
        <ele>1678.8</ele>
        <time>2024-08-10T12:29:10Z</time>
      </trkpt>
      <trkpt lat="45.02943" lon="6.36499">
        <ele>1678.8</ele>
        <time>2024-08-10T12:29:11Z</time>
      </trkpt>
      <trkpt lat="45.02941" lon="6.36501">
        <ele>1678.6</ele>
        <time>2024-08-10T12:29:12Z</time>
      </trkpt>
      <trkpt lat="45.02941" lon="6.36501">
        <ele>1678.6</ele>
        <time>2024-08-10T12:29:13Z</time>
      </trkpt>
      <trkpt lat="45.02939" lon="6.36504">
        <ele>1678.6</ele>
        <time>2024-08-10T12:29:14Z</time>
      </trkpt>
      <trkpt lat="45.02939" lon="6.36504">
        <ele>1678.6</ele>
        <time>2024-08-10T12:29:15Z</time>
      </trkpt>
      <trkpt lat="45.02936" lon="6.36506">
        <ele>1678.4</ele>
        <time>2024-08-10T12:29:16Z</time>
      </trkpt>
      <trkpt lat="45.02936" lon="6.36506">
        <ele>1678.4</ele>
        <time>2024-08-10T12:29:17Z</time>
      </trkpt>
      <trkpt lat="45.02935" lon="6.36508">
        <ele>1678.6</ele>
        <time>2024-08-10T12:29:18Z</time>
      </trkpt>
      <trkpt lat="45.02935" lon="6.36508">
        <ele>1678.6</ele>
        <time>2024-08-10T12:29:19Z</time>
      </trkpt>
      <trkpt lat="45.02933" lon="6.3651">
        <ele>1678.6</ele>
        <time>2024-08-10T12:29:20Z</time>
      </trkpt>
      <trkpt lat="45.02933" lon="6.3651">
        <ele>1678.8</ele>
        <time>2024-08-10T12:29:21Z</time>
      </trkpt>
      <trkpt lat="45.02931" lon="6.36512">
        <ele>1678.8</ele>
        <time>2024-08-10T12:29:22Z</time>
      </trkpt>
      <trkpt lat="45.02931" lon="6.36512">
        <ele>1679</ele>
        <time>2024-08-10T12:29:23Z</time>
      </trkpt>
      <trkpt lat="45.02928" lon="6.36514">
        <ele>1679.4</ele>
        <time>2024-08-10T12:29:24Z</time>
      </trkpt>
      <trkpt lat="45.02928" lon="6.36514">
        <ele>1679.4</ele>
        <time>2024-08-10T12:29:25Z</time>
      </trkpt>
      <trkpt lat="45.02925" lon="6.36516">
        <ele>1679.2</ele>
        <time>2024-08-10T12:29:26Z</time>
      </trkpt>
      <trkpt lat="45.02925" lon="6.36516">
        <ele>1679.2</ele>
        <time>2024-08-10T12:29:27Z</time>
      </trkpt>
      <trkpt lat="45.02923" lon="6.36518">
        <ele>1679.2</ele>
        <time>2024-08-10T12:29:28Z</time>
      </trkpt>
      <trkpt lat="45.02923" lon="6.36518">
        <ele>1679.2</ele>
        <time>2024-08-10T12:29:29Z</time>
      </trkpt>
      <trkpt lat="45.02921" lon="6.36519">
        <ele>1679.2</ele>
        <time>2024-08-10T12:29:30Z</time>
      </trkpt>
      <trkpt lat="45.02921" lon="6.36519">
        <ele>1679.2</ele>
        <time>2024-08-10T12:29:31Z</time>
      </trkpt>
      <trkpt lat="45.02919" lon="6.36522">
        <ele>1679.2</ele>
        <time>2024-08-10T12:29:32Z</time>
      </trkpt>
      <trkpt lat="45.02919" lon="6.36522">
        <ele>1679.2</ele>
        <time>2024-08-10T12:29:33Z</time>
      </trkpt>
      <trkpt lat="45.02917" lon="6.36525">
        <ele>1678.8</ele>
        <time>2024-08-10T12:29:34Z</time>
      </trkpt>
      <trkpt lat="45.02917" lon="6.36525">
        <ele>1678.8</ele>
        <time>2024-08-10T12:29:35Z</time>
      </trkpt>
      <trkpt lat="45.02915" lon="6.36527">
        <ele>1678.4</ele>
        <time>2024-08-10T12:29:36Z</time>
      </trkpt>
      <trkpt lat="45.02915" lon="6.36527">
        <ele>1678.4</ele>
        <time>2024-08-10T12:29:37Z</time>
      </trkpt>
      <trkpt lat="45.02912" lon="6.36529">
        <ele>1678.4</ele>
        <time>2024-08-10T12:29:38Z</time>
      </trkpt>
      <trkpt lat="45.02912" lon="6.36529">
        <ele>1678.4</ele>
        <time>2024-08-10T12:29:39Z</time>
      </trkpt>
      <trkpt lat="45.0291" lon="6.36532">
        <ele>1678.2</ele>
        <time>2024-08-10T12:29:40Z</time>
      </trkpt>
      <trkpt lat="45.0291" lon="6.36532">
        <ele>1678.2</ele>
        <time>2024-08-10T12:29:41Z</time>
      </trkpt>
      <trkpt lat="45.02907" lon="6.36534">
        <ele>1678.2</ele>
        <time>2024-08-10T12:29:42Z</time>
      </trkpt>
      <trkpt lat="45.02907" lon="6.36534">
        <ele>1678.2</ele>
        <time>2024-08-10T12:29:43Z</time>
      </trkpt>
      <trkpt lat="45.02905" lon="6.36535">
        <ele>1678.2</ele>
        <time>2024-08-10T12:29:44Z</time>
      </trkpt>
      <trkpt lat="45.02905" lon="6.36535">
        <ele>1678.2</ele>
        <time>2024-08-10T12:29:45Z</time>
      </trkpt>
      <trkpt lat="45.02903" lon="6.36536">
        <ele>1678.2</ele>
        <time>2024-08-10T12:29:46Z</time>
      </trkpt>
      <trkpt lat="45.02903" lon="6.36536">
        <ele>1678.4</ele>
        <time>2024-08-10T12:29:47Z</time>
      </trkpt>
      <trkpt lat="45.029" lon="6.36537">
        <ele>1678.2</ele>
        <time>2024-08-10T12:29:48Z</time>
      </trkpt>
      <trkpt lat="45.029" lon="6.36537">
        <ele>1678.2</ele>
        <time>2024-08-10T12:29:49Z</time>
      </trkpt>
      <trkpt lat="45.02897" lon="6.36539">
        <ele>1678.2</ele>
        <time>2024-08-10T12:29:50Z</time>
      </trkpt>
      <trkpt lat="45.02897" lon="6.36539">
        <ele>1678.2</ele>
        <time>2024-08-10T12:29:51Z</time>
      </trkpt>
      <trkpt lat="45.02895" lon="6.3654">
        <ele>1678</ele>
        <time>2024-08-10T12:29:52Z</time>
      </trkpt>
      <trkpt lat="45.02895" lon="6.3654">
        <ele>1678</ele>
        <time>2024-08-10T12:29:53Z</time>
      </trkpt>
      <trkpt lat="45.0289" lon="6.36542">
        <ele>1677.8</ele>
        <time>2024-08-10T12:29:54Z</time>
      </trkpt>
      <trkpt lat="45.02888" lon="6.36541">
        <ele>1677.8</ele>
        <time>2024-08-10T12:29:55Z</time>
      </trkpt>
      <trkpt lat="45.02888" lon="6.36541">
        <ele>1677.8</ele>
        <time>2024-08-10T12:29:56Z</time>
      </trkpt>
      <trkpt lat="45.02885" lon="6.36542">
        <ele>1677.6</ele>
        <time>2024-08-10T12:29:57Z</time>
      </trkpt>
      <trkpt lat="45.02885" lon="6.36542">
        <ele>1677.4</ele>
        <time>2024-08-10T12:29:58Z</time>
      </trkpt>
      <trkpt lat="45.02882" lon="6.36543">
        <ele>1677.2</ele>
        <time>2024-08-10T12:29:59Z</time>
      </trkpt>
      <trkpt lat="45.02882" lon="6.36543">
        <ele>1677.2</ele>
        <time>2024-08-10T12:30:00Z</time>
      </trkpt>
      <trkpt lat="45.0288" lon="6.36544">
        <ele>1677.6</ele>
        <time>2024-08-10T12:30:01Z</time>
      </trkpt>
      <trkpt lat="45.0288" lon="6.36544">
        <ele>1677.6</ele>
        <time>2024-08-10T12:30:02Z</time>
      </trkpt>
      <trkpt lat="45.02877" lon="6.36546">
        <ele>1678</ele>
        <time>2024-08-10T12:30:03Z</time>
      </trkpt>
      <trkpt lat="45.02877" lon="6.36546">
        <ele>1678</ele>
        <time>2024-08-10T12:30:04Z</time>
      </trkpt>
      <trkpt lat="45.02875" lon="6.36548">
        <ele>1678.2</ele>
        <time>2024-08-10T12:30:05Z</time>
      </trkpt>
      <trkpt lat="45.02875" lon="6.36548">
        <ele>1678.2</ele>
        <time>2024-08-10T12:30:06Z</time>
      </trkpt>
      <trkpt lat="45.02873" lon="6.36549">
        <ele>1678</ele>
        <time>2024-08-10T12:30:07Z</time>
      </trkpt>
      <trkpt lat="45.02873" lon="6.36549">
        <ele>1678</ele>
        <time>2024-08-10T12:30:08Z</time>
      </trkpt>
      <trkpt lat="45.0287" lon="6.36552">
        <ele>1678</ele>
        <time>2024-08-10T12:30:09Z</time>
      </trkpt>
      <trkpt lat="45.0287" lon="6.36552">
        <ele>1678.2</ele>
        <time>2024-08-10T12:30:10Z</time>
      </trkpt>
      <trkpt lat="45.02868" lon="6.36554">
        <ele>1678.2</ele>
        <time>2024-08-10T12:30:11Z</time>
      </trkpt>
      <trkpt lat="45.02868" lon="6.36554">
        <ele>1678.2</ele>
        <time>2024-08-10T12:30:12Z</time>
      </trkpt>
      <trkpt lat="45.02867" lon="6.36557">
        <ele>1678.4</ele>
        <time>2024-08-10T12:30:13Z</time>
      </trkpt>
      <trkpt lat="45.02867" lon="6.36557">
        <ele>1678.6</ele>
        <time>2024-08-10T12:30:14Z</time>
      </trkpt>
      <trkpt lat="45.02865" lon="6.3656">
        <ele>1678.6</ele>
        <time>2024-08-10T12:30:15Z</time>
      </trkpt>
      <trkpt lat="45.02865" lon="6.3656">
        <ele>1678.4</ele>
        <time>2024-08-10T12:30:16Z</time>
      </trkpt>
      <trkpt lat="45.02864" lon="6.36563">
        <ele>1678.4</ele>
        <time>2024-08-10T12:30:17Z</time>
      </trkpt>
      <trkpt lat="45.02864" lon="6.36563">
        <ele>1678.6</ele>
        <time>2024-08-10T12:30:18Z</time>
      </trkpt>
      <trkpt lat="45.02862" lon="6.36566">
        <ele>1678.6</ele>
        <time>2024-08-10T12:30:19Z</time>
      </trkpt>
      <trkpt lat="45.02862" lon="6.36566">
        <ele>1678.8</ele>
        <time>2024-08-10T12:30:20Z</time>
      </trkpt>
      <trkpt lat="45.02861" lon="6.36569">
        <ele>1678.8</ele>
        <time>2024-08-10T12:30:21Z</time>
      </trkpt>
      <trkpt lat="45.02861" lon="6.36569">
        <ele>1678.8</ele>
        <time>2024-08-10T12:30:22Z</time>
      </trkpt>
      <trkpt lat="45.0286" lon="6.36573">
        <ele>1678.8</ele>
        <time>2024-08-10T12:30:23Z</time>
      </trkpt>
      <trkpt lat="45.0286" lon="6.36573">
        <ele>1679</ele>
        <time>2024-08-10T12:30:24Z</time>
      </trkpt>
      <trkpt lat="45.02858" lon="6.36575">
        <ele>1679</ele>
        <time>2024-08-10T12:30:25Z</time>
      </trkpt>
      <trkpt lat="45.02858" lon="6.36575">
        <ele>1679</ele>
        <time>2024-08-10T12:30:26Z</time>
      </trkpt>
      <trkpt lat="45.02854" lon="6.36577">
        <ele>1679</ele>
        <time>2024-08-10T12:30:27Z</time>
      </trkpt>
      <trkpt lat="45.02854" lon="6.36577">
        <ele>1679</ele>
        <time>2024-08-10T12:30:28Z</time>
      </trkpt>
      <trkpt lat="45.02853" lon="6.36578">
        <ele>1679</ele>
        <time>2024-08-10T12:30:29Z</time>
      </trkpt>
      <trkpt lat="45.02853" lon="6.36578">
        <ele>1679</ele>
        <time>2024-08-10T12:30:30Z</time>
      </trkpt>
      <trkpt lat="45.0285" lon="6.3658">
        <ele>1678.8</ele>
        <time>2024-08-10T12:30:31Z</time>
      </trkpt>
      <trkpt lat="45.0285" lon="6.3658">
        <ele>1678.8</ele>
        <time>2024-08-10T12:30:32Z</time>
      </trkpt>
      <trkpt lat="45.02848" lon="6.36582">
        <ele>1678.8</ele>
        <time>2024-08-10T12:30:33Z</time>
      </trkpt>
      <trkpt lat="45.02848" lon="6.36582">
        <ele>1679.2</ele>
        <time>2024-08-10T12:30:34Z</time>
      </trkpt>
      <trkpt lat="45.02845" lon="6.36584">
        <ele>1679.4</ele>
        <time>2024-08-10T12:30:35Z</time>
      </trkpt>
      <trkpt lat="45.02845" lon="6.36584">
        <ele>1679.4</ele>
        <time>2024-08-10T12:30:36Z</time>
      </trkpt>
      <trkpt lat="45.02843" lon="6.36586">
        <ele>1679.4</ele>
        <time>2024-08-10T12:30:37Z</time>
      </trkpt>
      <trkpt lat="45.02843" lon="6.36586">
        <ele>1679.4</ele>
        <time>2024-08-10T12:30:38Z</time>
      </trkpt>
      <trkpt lat="45.0284" lon="6.36588">
        <ele>1679.4</ele>
        <time>2024-08-10T12:30:39Z</time>
      </trkpt>
      <trkpt lat="45.0284" lon="6.36588">
        <ele>1679.6</ele>
        <time>2024-08-10T12:30:40Z</time>
      </trkpt>
      <trkpt lat="45.02838" lon="6.36588">
        <ele>1679.6</ele>
        <time>2024-08-10T12:30:41Z</time>
      </trkpt>
      <trkpt lat="45.02838" lon="6.36588">
        <ele>1679.4</ele>
        <time>2024-08-10T12:30:42Z</time>
      </trkpt>
      <trkpt lat="45.02836" lon="6.36589">
        <ele>1679.4</ele>
        <time>2024-08-10T12:30:43Z</time>
      </trkpt>
      <trkpt lat="45.02836" lon="6.36589">
        <ele>1679.4</ele>
        <time>2024-08-10T12:30:44Z</time>
      </trkpt>
      <trkpt lat="45.02834" lon="6.3659">
        <ele>1679.6</ele>
        <time>2024-08-10T12:30:45Z</time>
      </trkpt>
      <trkpt lat="45.02834" lon="6.3659">
        <ele>1680</ele>
        <time>2024-08-10T12:30:46Z</time>
      </trkpt>
      <trkpt lat="45.02832" lon="6.36591">
        <ele>1680</ele>
        <time>2024-08-10T12:30:47Z</time>
      </trkpt>
      <trkpt lat="45.02832" lon="6.36591">
        <ele>1680.2</ele>
        <time>2024-08-10T12:30:48Z</time>
      </trkpt>
      <trkpt lat="45.02829" lon="6.36593">
        <ele>1680.8</ele>
        <time>2024-08-10T12:30:49Z</time>
      </trkpt>
      <trkpt lat="45.02829" lon="6.36593">
        <ele>1680.8</ele>
        <time>2024-08-10T12:30:50Z</time>
      </trkpt>
      <trkpt lat="45.02828" lon="6.36596">
        <ele>1681</ele>
        <time>2024-08-10T12:30:51Z</time>
      </trkpt>
      <trkpt lat="45.02828" lon="6.36596">
        <ele>1681.4</ele>
        <time>2024-08-10T12:30:52Z</time>
      </trkpt>
      <trkpt lat="45.02825" lon="6.36598">
        <ele>1681.4</ele>
        <time>2024-08-10T12:30:53Z</time>
      </trkpt>
      <trkpt lat="45.02825" lon="6.36598">
        <ele>1681.4</ele>
        <time>2024-08-10T12:30:54Z</time>
      </trkpt>
      <trkpt lat="45.02822" lon="6.366">
        <ele>1681.4</ele>
        <time>2024-08-10T12:30:55Z</time>
      </trkpt>
      <trkpt lat="45.02822" lon="6.366">
        <ele>1681.4</ele>
        <time>2024-08-10T12:30:56Z</time>
      </trkpt>
      <trkpt lat="45.02821" lon="6.36601">
        <ele>1681.6</ele>
        <time>2024-08-10T12:30:57Z</time>
      </trkpt>
      <trkpt lat="45.02821" lon="6.36601">
        <ele>1681.6</ele>
        <time>2024-08-10T12:30:58Z</time>
      </trkpt>
      <trkpt lat="45.02818" lon="6.36603">
        <ele>1681.8</ele>
        <time>2024-08-10T12:30:59Z</time>
      </trkpt>
      <trkpt lat="45.02818" lon="6.36603">
        <ele>1682</ele>
        <time>2024-08-10T12:31:00Z</time>
      </trkpt>
      <trkpt lat="45.02816" lon="6.36605">
        <ele>1682</ele>
        <time>2024-08-10T12:31:01Z</time>
      </trkpt>
      <trkpt lat="45.02816" lon="6.36605">
        <ele>1682.2</ele>
        <time>2024-08-10T12:31:02Z</time>
      </trkpt>
      <trkpt lat="45.02814" lon="6.36606">
        <ele>1682.6</ele>
        <time>2024-08-10T12:31:03Z</time>
      </trkpt>
      <trkpt lat="45.02814" lon="6.36606">
        <ele>1682.8</ele>
        <time>2024-08-10T12:31:04Z</time>
      </trkpt>
      <trkpt lat="45.02812" lon="6.36608">
        <ele>1682.8</ele>
        <time>2024-08-10T12:31:05Z</time>
      </trkpt>
      <trkpt lat="45.02812" lon="6.36608">
        <ele>1682.8</ele>
        <time>2024-08-10T12:31:06Z</time>
      </trkpt>
      <trkpt lat="45.0281" lon="6.3661">
        <ele>1682.8</ele>
        <time>2024-08-10T12:31:07Z</time>
      </trkpt>
      <trkpt lat="45.0281" lon="6.3661">
        <ele>1683</ele>
        <time>2024-08-10T12:31:08Z</time>
      </trkpt>
      <trkpt lat="45.02809" lon="6.36612">
        <ele>1683.4</ele>
        <time>2024-08-10T12:31:09Z</time>
      </trkpt>
      <trkpt lat="45.02809" lon="6.36612">
        <ele>1683.6</ele>
        <time>2024-08-10T12:31:10Z</time>
      </trkpt>
      <trkpt lat="45.02807" lon="6.36614">
        <ele>1683.8</ele>
        <time>2024-08-10T12:31:11Z</time>
      </trkpt>
      <trkpt lat="45.02807" lon="6.36614">
        <ele>1683.8</ele>
        <time>2024-08-10T12:31:12Z</time>
      </trkpt>
      <trkpt lat="45.02805" lon="6.36617">
        <ele>1684</ele>
        <time>2024-08-10T12:31:13Z</time>
      </trkpt>
      <trkpt lat="45.02805" lon="6.36617">
        <ele>1684.2</ele>
        <time>2024-08-10T12:31:14Z</time>
      </trkpt>
      <trkpt lat="45.02803" lon="6.36619">
        <ele>1684.2</ele>
        <time>2024-08-10T12:31:15Z</time>
      </trkpt>
      <trkpt lat="45.02803" lon="6.36619">
        <ele>1684.4</ele>
        <time>2024-08-10T12:31:16Z</time>
      </trkpt>
      <trkpt lat="45.028" lon="6.36621">
        <ele>1684.6</ele>
        <time>2024-08-10T12:31:17Z</time>
      </trkpt>
      <trkpt lat="45.028" lon="6.36621">
        <ele>1684.6</ele>
        <time>2024-08-10T12:31:18Z</time>
      </trkpt>
      <trkpt lat="45.02798" lon="6.36624">
        <ele>1684.4</ele>
        <time>2024-08-10T12:31:19Z</time>
      </trkpt>
      <trkpt lat="45.02798" lon="6.36624">
        <ele>1684.4</ele>
        <time>2024-08-10T12:31:20Z</time>
      </trkpt>
      <trkpt lat="45.02795" lon="6.36626">
        <ele>1684.4</ele>
        <time>2024-08-10T12:31:21Z</time>
      </trkpt>
      <trkpt lat="45.02795" lon="6.36626">
        <ele>1684.4</ele>
        <time>2024-08-10T12:31:22Z</time>
      </trkpt>
      <trkpt lat="45.02793" lon="6.36628">
        <ele>1684.6</ele>
        <time>2024-08-10T12:31:23Z</time>
      </trkpt>
      <trkpt lat="45.02793" lon="6.36628">
        <ele>1684.6</ele>
        <time>2024-08-10T12:31:24Z</time>
      </trkpt>
      <trkpt lat="45.0279" lon="6.3663">
        <ele>1684.6</ele>
        <time>2024-08-10T12:31:25Z</time>
      </trkpt>
      <trkpt lat="45.0279" lon="6.3663">
        <ele>1684.6</ele>
        <time>2024-08-10T12:31:26Z</time>
      </trkpt>
      <trkpt lat="45.02788" lon="6.36631">
        <ele>1684.8</ele>
        <time>2024-08-10T12:31:27Z</time>
      </trkpt>
      <trkpt lat="45.02788" lon="6.36631">
        <ele>1685</ele>
        <time>2024-08-10T12:31:28Z</time>
      </trkpt>
      <trkpt lat="45.02786" lon="6.36632">
        <ele>1685</ele>
        <time>2024-08-10T12:31:29Z</time>
      </trkpt>
      <trkpt lat="45.02786" lon="6.36632">
        <ele>1685.2</ele>
        <time>2024-08-10T12:31:30Z</time>
      </trkpt>
      <trkpt lat="45.02782" lon="6.36633">
        <ele>1685.2</ele>
        <time>2024-08-10T12:31:31Z</time>
      </trkpt>
      <trkpt lat="45.02782" lon="6.36633">
        <ele>1685.2</ele>
        <time>2024-08-10T12:31:32Z</time>
      </trkpt>
      <trkpt lat="45.0278" lon="6.36634">
        <ele>1685.2</ele>
        <time>2024-08-10T12:31:33Z</time>
      </trkpt>
      <trkpt lat="45.02778" lon="6.36633">
        <ele>1685.2</ele>
        <time>2024-08-10T12:31:34Z</time>
      </trkpt>
      <trkpt lat="45.02778" lon="6.36633">
        <ele>1685.2</ele>
        <time>2024-08-10T12:31:35Z</time>
      </trkpt>
      <trkpt lat="45.02775" lon="6.36633">
        <ele>1685</ele>
        <time>2024-08-10T12:31:36Z</time>
      </trkpt>
      <trkpt lat="45.02775" lon="6.36633">
        <ele>1685.2</ele>
        <time>2024-08-10T12:31:37Z</time>
      </trkpt>
      <trkpt lat="45.02773" lon="6.36634">
        <ele>1685.4</ele>
        <time>2024-08-10T12:31:38Z</time>
      </trkpt>
      <trkpt lat="45.02773" lon="6.36634">
        <ele>1685.4</ele>
        <time>2024-08-10T12:31:39Z</time>
      </trkpt>
      <trkpt lat="45.02771" lon="6.36636">
        <ele>1685.6</ele>
        <time>2024-08-10T12:31:40Z</time>
      </trkpt>
      <trkpt lat="45.02771" lon="6.36636">
        <ele>1685.8</ele>
        <time>2024-08-10T12:31:41Z</time>
      </trkpt>
      <trkpt lat="45.02768" lon="6.36636">
        <ele>1686</ele>
        <time>2024-08-10T12:31:42Z</time>
      </trkpt>
      <trkpt lat="45.02768" lon="6.36636">
        <ele>1686</ele>
        <time>2024-08-10T12:31:43Z</time>
      </trkpt>
      <trkpt lat="45.02766" lon="6.36637">
        <ele>1686.2</ele>
        <time>2024-08-10T12:31:44Z</time>
      </trkpt>
      <trkpt lat="45.02766" lon="6.36637">
        <ele>1686.4</ele>
        <time>2024-08-10T12:31:45Z</time>
      </trkpt>
      <trkpt lat="45.02763" lon="6.36638">
        <ele>1686.6</ele>
        <time>2024-08-10T12:31:46Z</time>
      </trkpt>
      <trkpt lat="45.02763" lon="6.36638">
        <ele>1686.2</ele>
        <time>2024-08-10T12:31:47Z</time>
      </trkpt>
      <trkpt lat="45.0276" lon="6.36638">
        <ele>1686.2</ele>
        <time>2024-08-10T12:31:48Z</time>
      </trkpt>
      <trkpt lat="45.0276" lon="6.36638">
        <ele>1686.2</ele>
        <time>2024-08-10T12:31:49Z</time>
      </trkpt>
      <trkpt lat="45.02758" lon="6.3664">
        <ele>1686.2</ele>
        <time>2024-08-10T12:31:50Z</time>
      </trkpt>
      <trkpt lat="45.02758" lon="6.3664">
        <ele>1686.2</ele>
        <time>2024-08-10T12:31:51Z</time>
      </trkpt>
      <trkpt lat="45.02756" lon="6.36642">
        <ele>1686.2</ele>
        <time>2024-08-10T12:31:52Z</time>
      </trkpt>
      <trkpt lat="45.02756" lon="6.36642">
        <ele>1686.6</ele>
        <time>2024-08-10T12:31:53Z</time>
      </trkpt>
      <trkpt lat="45.02756" lon="6.36642">
        <ele>1686.8</ele>
        <time>2024-08-10T12:31:54Z</time>
      </trkpt>
      <trkpt lat="45.02754" lon="6.36645">
        <ele>1687</ele>
        <time>2024-08-10T12:31:55Z</time>
      </trkpt>
      <trkpt lat="45.02754" lon="6.36645">
        <ele>1687</ele>
        <time>2024-08-10T12:31:56Z</time>
      </trkpt>
      <trkpt lat="45.02753" lon="6.36648">
        <ele>1687</ele>
        <time>2024-08-10T12:31:57Z</time>
      </trkpt>
      <trkpt lat="45.02753" lon="6.36648">
        <ele>1687</ele>
        <time>2024-08-10T12:31:58Z</time>
      </trkpt>
      <trkpt lat="45.02753" lon="6.36648">
        <ele>1687.2</ele>
        <time>2024-08-10T12:31:59Z</time>
      </trkpt>
      <trkpt lat="45.02751" lon="6.3665">
        <ele>1687.4</ele>
        <time>2024-08-10T12:32:00Z</time>
      </trkpt>
      <trkpt lat="45.02751" lon="6.3665">
        <ele>1687.6</ele>
        <time>2024-08-10T12:32:01Z</time>
      </trkpt>
      <trkpt lat="45.02751" lon="6.3665">
        <ele>1687.8</ele>
        <time>2024-08-10T12:32:02Z</time>
      </trkpt>
      <trkpt lat="45.02749" lon="6.36652">
        <ele>1688.4</ele>
        <time>2024-08-10T12:32:03Z</time>
      </trkpt>
      <trkpt lat="45.02749" lon="6.36652">
        <ele>1688.4</ele>
        <time>2024-08-10T12:32:04Z</time>
      </trkpt>
      <trkpt lat="45.02749" lon="6.36652">
        <ele>1688.6</ele>
        <time>2024-08-10T12:32:05Z</time>
      </trkpt>
      <trkpt lat="45.02747" lon="6.36654">
        <ele>1688.6</ele>
        <time>2024-08-10T12:32:06Z</time>
      </trkpt>
      <trkpt lat="45.02747" lon="6.36654">
        <ele>1688.8</ele>
        <time>2024-08-10T12:32:07Z</time>
      </trkpt>
      <trkpt lat="45.02745" lon="6.36656">
        <ele>1689.2</ele>
        <time>2024-08-10T12:32:08Z</time>
      </trkpt>
      <trkpt lat="45.02745" lon="6.36656">
        <ele>1689.2</ele>
        <time>2024-08-10T12:32:09Z</time>
      </trkpt>
      <trkpt lat="45.02743" lon="6.36657">
        <ele>1689.4</ele>
        <time>2024-08-10T12:32:10Z</time>
      </trkpt>
      <trkpt lat="45.02743" lon="6.36657">
        <ele>1689.6</ele>
        <time>2024-08-10T12:32:11Z</time>
      </trkpt>
      <trkpt lat="45.02741" lon="6.36658">
        <ele>1689.2</ele>
        <time>2024-08-10T12:32:12Z</time>
      </trkpt>
      <trkpt lat="45.02741" lon="6.36658">
        <ele>1688.8</ele>
        <time>2024-08-10T12:32:13Z</time>
      </trkpt>
      <trkpt lat="45.02738" lon="6.36659">
        <ele>1688.8</ele>
        <time>2024-08-10T12:32:14Z</time>
      </trkpt>
      <trkpt lat="45.02738" lon="6.36659">
        <ele>1688.8</ele>
        <time>2024-08-10T12:32:15Z</time>
      </trkpt>
      <trkpt lat="45.02736" lon="6.3666">
        <ele>1688.8</ele>
        <time>2024-08-10T12:32:16Z</time>
      </trkpt>
      <trkpt lat="45.02736" lon="6.3666">
        <ele>1688.8</ele>
        <time>2024-08-10T12:32:17Z</time>
      </trkpt>
      <trkpt lat="45.02734" lon="6.36661">
        <ele>1688.8</ele>
        <time>2024-08-10T12:32:18Z</time>
      </trkpt>
      <trkpt lat="45.02734" lon="6.36661">
        <ele>1689</ele>
        <time>2024-08-10T12:32:19Z</time>
      </trkpt>
      <trkpt lat="45.02733" lon="6.36662">
        <ele>1689</ele>
        <time>2024-08-10T12:32:20Z</time>
      </trkpt>
      <trkpt lat="45.02733" lon="6.36662">
        <ele>1689</ele>
        <time>2024-08-10T12:32:21Z</time>
      </trkpt>
      <trkpt lat="45.02731" lon="6.36663">
        <ele>1689</ele>
        <time>2024-08-10T12:32:22Z</time>
      </trkpt>
      <trkpt lat="45.02731" lon="6.36663">
        <ele>1689.2</ele>
        <time>2024-08-10T12:32:23Z</time>
      </trkpt>
      <trkpt lat="45.02729" lon="6.36664">
        <ele>1689.2</ele>
        <time>2024-08-10T12:32:24Z</time>
      </trkpt>
      <trkpt lat="45.02729" lon="6.36664">
        <ele>1690</ele>
        <time>2024-08-10T12:32:25Z</time>
      </trkpt>
      <trkpt lat="45.02726" lon="6.36665">
        <ele>1690</ele>
        <time>2024-08-10T12:32:26Z</time>
      </trkpt>
      <trkpt lat="45.02726" lon="6.36665">
        <ele>1690</ele>
        <time>2024-08-10T12:32:27Z</time>
      </trkpt>
      <trkpt lat="45.02724" lon="6.36665">
        <ele>1690.2</ele>
        <time>2024-08-10T12:32:28Z</time>
      </trkpt>
      <trkpt lat="45.02724" lon="6.36665">
        <ele>1690.4</ele>
        <time>2024-08-10T12:32:29Z</time>
      </trkpt>
      <trkpt lat="45.02724" lon="6.36665">
        <ele>1690.6</ele>
        <time>2024-08-10T12:32:30Z</time>
      </trkpt>
      <trkpt lat="45.02721" lon="6.36665">
        <ele>1690.6</ele>
        <time>2024-08-10T12:32:31Z</time>
      </trkpt>
      <trkpt lat="45.02721" lon="6.36665">
        <ele>1690.8</ele>
        <time>2024-08-10T12:32:32Z</time>
      </trkpt>
      <trkpt lat="45.02719" lon="6.36666">
        <ele>1690.8</ele>
        <time>2024-08-10T12:32:33Z</time>
      </trkpt>
      <trkpt lat="45.02719" lon="6.36666">
        <ele>1691</ele>
        <time>2024-08-10T12:32:34Z</time>
      </trkpt>
      <trkpt lat="45.02717" lon="6.36666">
        <ele>1691.2</ele>
        <time>2024-08-10T12:32:35Z</time>
      </trkpt>
      <trkpt lat="45.02717" lon="6.36666">
        <ele>1691.4</ele>
        <time>2024-08-10T12:32:36Z</time>
      </trkpt>
      <trkpt lat="45.02717" lon="6.36666">
        <ele>1691.6</ele>
        <time>2024-08-10T12:32:37Z</time>
      </trkpt>
      <trkpt lat="45.02714" lon="6.36667">
        <ele>1692</ele>
        <time>2024-08-10T12:32:38Z</time>
      </trkpt>
      <trkpt lat="45.02714" lon="6.36667">
        <ele>1692.2</ele>
        <time>2024-08-10T12:32:39Z</time>
      </trkpt>
      <trkpt lat="45.02714" lon="6.36667">
        <ele>1692.2</ele>
        <time>2024-08-10T12:32:40Z</time>
      </trkpt>
      <trkpt lat="45.02711" lon="6.36667">
        <ele>1692.6</ele>
        <time>2024-08-10T12:32:41Z</time>
      </trkpt>
      <trkpt lat="45.02711" lon="6.36667">
        <ele>1692.8</ele>
        <time>2024-08-10T12:32:42Z</time>
      </trkpt>
      <trkpt lat="45.02709" lon="6.36668">
        <ele>1693</ele>
        <time>2024-08-10T12:32:43Z</time>
      </trkpt>
      <trkpt lat="45.02709" lon="6.36668">
        <ele>1693</ele>
        <time>2024-08-10T12:32:44Z</time>
      </trkpt>
      <trkpt lat="45.02707" lon="6.36669">
        <ele>1693</ele>
        <time>2024-08-10T12:32:45Z</time>
      </trkpt>
      <trkpt lat="45.02707" lon="6.36669">
        <ele>1693</ele>
        <time>2024-08-10T12:32:46Z</time>
      </trkpt>
      <trkpt lat="45.02704" lon="6.3667">
        <ele>1693</ele>
        <time>2024-08-10T12:32:47Z</time>
      </trkpt>
      <trkpt lat="45.02704" lon="6.3667">
        <ele>1693</ele>
        <time>2024-08-10T12:32:48Z</time>
      </trkpt>
      <trkpt lat="45.02701" lon="6.36671">
        <ele>1693</ele>
        <time>2024-08-10T12:32:49Z</time>
      </trkpt>
      <trkpt lat="45.02701" lon="6.36671">
        <ele>1692.8</ele>
        <time>2024-08-10T12:32:50Z</time>
      </trkpt>
      <trkpt lat="45.02699" lon="6.36673">
        <ele>1693</ele>
        <time>2024-08-10T12:32:51Z</time>
      </trkpt>
      <trkpt lat="45.02699" lon="6.36673">
        <ele>1693</ele>
        <time>2024-08-10T12:32:52Z</time>
      </trkpt>
      <trkpt lat="45.02697" lon="6.36675">
        <ele>1693</ele>
        <time>2024-08-10T12:32:53Z</time>
      </trkpt>
      <trkpt lat="45.02697" lon="6.36675">
        <ele>1693</ele>
        <time>2024-08-10T12:32:54Z</time>
      </trkpt>
      <trkpt lat="45.02694" lon="6.36676">
        <ele>1692.8</ele>
        <time>2024-08-10T12:32:55Z</time>
      </trkpt>
      <trkpt lat="45.02694" lon="6.36676">
        <ele>1692.8</ele>
        <time>2024-08-10T12:32:56Z</time>
      </trkpt>
      <trkpt lat="45.02692" lon="6.36677">
        <ele>1692.8</ele>
        <time>2024-08-10T12:32:57Z</time>
      </trkpt>
      <trkpt lat="45.02692" lon="6.36677">
        <ele>1692.8</ele>
        <time>2024-08-10T12:32:58Z</time>
      </trkpt>
      <trkpt lat="45.02689" lon="6.36678">
        <ele>1692.8</ele>
        <time>2024-08-10T12:32:59Z</time>
      </trkpt>
      <trkpt lat="45.02689" lon="6.36678">
        <ele>1693</ele>
        <time>2024-08-10T12:33:00Z</time>
      </trkpt>
      <trkpt lat="45.02687" lon="6.3668">
        <ele>1692.8</ele>
        <time>2024-08-10T12:33:01Z</time>
      </trkpt>
      <trkpt lat="45.02687" lon="6.3668">
        <ele>1692.6</ele>
        <time>2024-08-10T12:33:02Z</time>
      </trkpt>
      <trkpt lat="45.02685" lon="6.36682">
        <ele>1692.6</ele>
        <time>2024-08-10T12:33:03Z</time>
      </trkpt>
      <trkpt lat="45.02685" lon="6.36682">
        <ele>1692.4</ele>
        <time>2024-08-10T12:33:04Z</time>
      </trkpt>
      <trkpt lat="45.02683" lon="6.36684">
        <ele>1692.4</ele>
        <time>2024-08-10T12:33:05Z</time>
      </trkpt>
      <trkpt lat="45.02683" lon="6.36684">
        <ele>1692.6</ele>
        <time>2024-08-10T12:33:06Z</time>
      </trkpt>
      <trkpt lat="45.0268" lon="6.36685">
        <ele>1692.8</ele>
        <time>2024-08-10T12:33:07Z</time>
      </trkpt>
      <trkpt lat="45.0268" lon="6.36685">
        <ele>1692.8</ele>
        <time>2024-08-10T12:33:08Z</time>
      </trkpt>
      <trkpt lat="45.02677" lon="6.36685">
        <ele>1693</ele>
        <time>2024-08-10T12:33:09Z</time>
      </trkpt>
      <trkpt lat="45.02677" lon="6.36685">
        <ele>1693.2</ele>
        <time>2024-08-10T12:33:10Z</time>
      </trkpt>
      <trkpt lat="45.02675" lon="6.36685">
        <ele>1693.2</ele>
        <time>2024-08-10T12:33:11Z</time>
      </trkpt>
      <trkpt lat="45.02675" lon="6.36685">
        <ele>1693.4</ele>
        <time>2024-08-10T12:33:12Z</time>
      </trkpt>
      <trkpt lat="45.02673" lon="6.36684">
        <ele>1693.4</ele>
        <time>2024-08-10T12:33:13Z</time>
      </trkpt>
      <trkpt lat="45.02673" lon="6.36684">
        <ele>1693.8</ele>
        <time>2024-08-10T12:33:14Z</time>
      </trkpt>
      <trkpt lat="45.02671" lon="6.36684">
        <ele>1694.2</ele>
        <time>2024-08-10T12:33:15Z</time>
      </trkpt>
      <trkpt lat="45.02671" lon="6.36684">
        <ele>1694.2</ele>
        <time>2024-08-10T12:33:16Z</time>
      </trkpt>
      <trkpt lat="45.02669" lon="6.36685">
        <ele>1694</ele>
        <time>2024-08-10T12:33:17Z</time>
      </trkpt>
      <trkpt lat="45.02669" lon="6.36685">
        <ele>1694</ele>
        <time>2024-08-10T12:33:18Z</time>
      </trkpt>
      <trkpt lat="45.02667" lon="6.36686">
        <ele>1694.2</ele>
        <time>2024-08-10T12:33:19Z</time>
      </trkpt>
      <trkpt lat="45.02667" lon="6.36686">
        <ele>1694.2</ele>
        <time>2024-08-10T12:33:20Z</time>
      </trkpt>
      <trkpt lat="45.02665" lon="6.36687">
        <ele>1694.4</ele>
        <time>2024-08-10T12:33:21Z</time>
      </trkpt>
      <trkpt lat="45.02665" lon="6.36687">
        <ele>1694.6</ele>
        <time>2024-08-10T12:33:22Z</time>
      </trkpt>
      <trkpt lat="45.02663" lon="6.36688">
        <ele>1694.8</ele>
        <time>2024-08-10T12:33:23Z</time>
      </trkpt>
      <trkpt lat="45.02663" lon="6.36688">
        <ele>1694.8</ele>
        <time>2024-08-10T12:33:24Z</time>
      </trkpt>
      <trkpt lat="45.02661" lon="6.36691">
        <ele>1695.2</ele>
        <time>2024-08-10T12:33:25Z</time>
      </trkpt>
      <trkpt lat="45.02661" lon="6.36691">
        <ele>1695.4</ele>
        <time>2024-08-10T12:33:26Z</time>
      </trkpt>
      <trkpt lat="45.02659" lon="6.36692">
        <ele>1695.8</ele>
        <time>2024-08-10T12:33:27Z</time>
      </trkpt>
      <trkpt lat="45.02659" lon="6.36692">
        <ele>1695.8</ele>
        <time>2024-08-10T12:33:28Z</time>
      </trkpt>
      <trkpt lat="45.02655" lon="6.36693">
        <ele>1695.6</ele>
        <time>2024-08-10T12:33:29Z</time>
      </trkpt>
      <trkpt lat="45.02655" lon="6.36693">
        <ele>1695.4</ele>
        <time>2024-08-10T12:33:30Z</time>
      </trkpt>
      <trkpt lat="45.02653" lon="6.36694">
        <ele>1695.4</ele>
        <time>2024-08-10T12:33:31Z</time>
      </trkpt>
      <trkpt lat="45.02653" lon="6.36694">
        <ele>1695.2</ele>
        <time>2024-08-10T12:33:32Z</time>
      </trkpt>
      <trkpt lat="45.0265" lon="6.36694">
        <ele>1695.2</ele>
        <time>2024-08-10T12:33:33Z</time>
      </trkpt>
      <trkpt lat="45.0265" lon="6.36694">
        <ele>1695.2</ele>
        <time>2024-08-10T12:33:34Z</time>
      </trkpt>
      <trkpt lat="45.02647" lon="6.36694">
        <ele>1695.2</ele>
        <time>2024-08-10T12:33:35Z</time>
      </trkpt>
      <trkpt lat="45.02647" lon="6.36694">
        <ele>1695.2</ele>
        <time>2024-08-10T12:33:36Z</time>
      </trkpt>
      <trkpt lat="45.02644" lon="6.36694">
        <ele>1695</ele>
        <time>2024-08-10T12:33:37Z</time>
      </trkpt>
      <trkpt lat="45.02644" lon="6.36694">
        <ele>1695</ele>
        <time>2024-08-10T12:33:38Z</time>
      </trkpt>
      <trkpt lat="45.02641" lon="6.36693">
        <ele>1694.8</ele>
        <time>2024-08-10T12:33:39Z</time>
      </trkpt>
      <trkpt lat="45.02641" lon="6.36693">
        <ele>1694.6</ele>
        <time>2024-08-10T12:33:40Z</time>
      </trkpt>
      <trkpt lat="45.02638" lon="6.36692">
        <ele>1694.6</ele>
        <time>2024-08-10T12:33:41Z</time>
      </trkpt>
      <trkpt lat="45.02638" lon="6.36692">
        <ele>1694.4</ele>
        <time>2024-08-10T12:33:42Z</time>
      </trkpt>
      <trkpt lat="45.02635" lon="6.36692">
        <ele>1694.4</ele>
        <time>2024-08-10T12:33:43Z</time>
      </trkpt>
      <trkpt lat="45.02635" lon="6.36692">
        <ele>1694.6</ele>
        <time>2024-08-10T12:33:44Z</time>
      </trkpt>
      <trkpt lat="45.02633" lon="6.36692">
        <ele>1694.6</ele>
        <time>2024-08-10T12:33:45Z</time>
      </trkpt>
      <trkpt lat="45.02633" lon="6.36692">
        <ele>1694.6</ele>
        <time>2024-08-10T12:33:46Z</time>
      </trkpt>
      <trkpt lat="45.02631" lon="6.36691">
        <ele>1694.6</ele>
        <time>2024-08-10T12:33:47Z</time>
      </trkpt>
      <trkpt lat="45.02631" lon="6.36691">
        <ele>1694.6</ele>
        <time>2024-08-10T12:33:48Z</time>
      </trkpt>
      <trkpt lat="45.02629" lon="6.3669">
        <ele>1694.8</ele>
        <time>2024-08-10T12:33:49Z</time>
      </trkpt>
      <trkpt lat="45.02629" lon="6.3669">
        <ele>1695.2</ele>
        <time>2024-08-10T12:33:50Z</time>
      </trkpt>
      <trkpt lat="45.02626" lon="6.36691">
        <ele>1695.2</ele>
        <time>2024-08-10T12:33:51Z</time>
      </trkpt>
      <trkpt lat="45.02626" lon="6.36691">
        <ele>1695</ele>
        <time>2024-08-10T12:33:52Z</time>
      </trkpt>
      <trkpt lat="45.02623" lon="6.36691">
        <ele>1695</ele>
        <time>2024-08-10T12:33:53Z</time>
      </trkpt>
      <trkpt lat="45.02623" lon="6.36691">
        <ele>1695.2</ele>
        <time>2024-08-10T12:33:54Z</time>
      </trkpt>
      <trkpt lat="45.0262" lon="6.3669">
        <ele>1695.2</ele>
        <time>2024-08-10T12:33:55Z</time>
      </trkpt>
      <trkpt lat="45.0262" lon="6.3669">
        <ele>1695.2</ele>
        <time>2024-08-10T12:33:56Z</time>
      </trkpt>
      <trkpt lat="45.02617" lon="6.3669">
        <ele>1695.2</ele>
        <time>2024-08-10T12:33:57Z</time>
      </trkpt>
      <trkpt lat="45.02617" lon="6.3669">
        <ele>1695.2</ele>
        <time>2024-08-10T12:33:58Z</time>
      </trkpt>
      <trkpt lat="45.02615" lon="6.3669">
        <ele>1695.2</ele>
        <time>2024-08-10T12:33:59Z</time>
      </trkpt>
      <trkpt lat="45.02615" lon="6.3669">
        <ele>1695.2</ele>
        <time>2024-08-10T12:34:00Z</time>
      </trkpt>
      <trkpt lat="45.02613" lon="6.3669">
        <ele>1695.2</ele>
        <time>2024-08-10T12:34:01Z</time>
      </trkpt>
      <trkpt lat="45.02613" lon="6.3669">
        <ele>1695.4</ele>
        <time>2024-08-10T12:34:02Z</time>
      </trkpt>
      <trkpt lat="45.02611" lon="6.3669">
        <ele>1695.6</ele>
        <time>2024-08-10T12:34:03Z</time>
      </trkpt>
      <trkpt lat="45.02611" lon="6.3669">
        <ele>1695.6</ele>
        <time>2024-08-10T12:34:04Z</time>
      </trkpt>
      <trkpt lat="45.02608" lon="6.3669">
        <ele>1695.8</ele>
        <time>2024-08-10T12:34:05Z</time>
      </trkpt>
      <trkpt lat="45.02608" lon="6.3669">
        <ele>1696</ele>
        <time>2024-08-10T12:34:06Z</time>
      </trkpt>
      <trkpt lat="45.02605" lon="6.3669">
        <ele>1696.2</ele>
        <time>2024-08-10T12:34:07Z</time>
      </trkpt>
      <trkpt lat="45.02605" lon="6.3669">
        <ele>1696.4</ele>
        <time>2024-08-10T12:34:08Z</time>
      </trkpt>
      <trkpt lat="45.02603" lon="6.36691">
        <ele>1696.6</ele>
        <time>2024-08-10T12:34:09Z</time>
      </trkpt>
      <trkpt lat="45.02603" lon="6.36691">
        <ele>1696.8</ele>
        <time>2024-08-10T12:34:10Z</time>
      </trkpt>
      <trkpt lat="45.026" lon="6.36691">
        <ele>1696.8</ele>
        <time>2024-08-10T12:34:11Z</time>
      </trkpt>
      <trkpt lat="45.026" lon="6.36691">
        <ele>1696.8</ele>
        <time>2024-08-10T12:34:12Z</time>
      </trkpt>
      <trkpt lat="45.02598" lon="6.36691">
        <ele>1697</ele>
        <time>2024-08-10T12:34:13Z</time>
      </trkpt>
      <trkpt lat="45.02598" lon="6.36691">
        <ele>1697.2</ele>
        <time>2024-08-10T12:34:14Z</time>
      </trkpt>
      <trkpt lat="45.02595" lon="6.36691">
        <ele>1697.2</ele>
        <time>2024-08-10T12:34:15Z</time>
      </trkpt>
      <trkpt lat="45.02595" lon="6.36691">
        <ele>1697.6</ele>
        <time>2024-08-10T12:34:16Z</time>
      </trkpt>
      <trkpt lat="45.02592" lon="6.36692">
        <ele>1697.6</ele>
        <time>2024-08-10T12:34:17Z</time>
      </trkpt>
      <trkpt lat="45.02592" lon="6.36692">
        <ele>1697.6</ele>
        <time>2024-08-10T12:34:18Z</time>
      </trkpt>
      <trkpt lat="45.0259" lon="6.36693">
        <ele>1697.6</ele>
        <time>2024-08-10T12:34:19Z</time>
      </trkpt>
      <trkpt lat="45.0259" lon="6.36693">
        <ele>1697.2</ele>
        <time>2024-08-10T12:34:20Z</time>
      </trkpt>
      <trkpt lat="45.02587" lon="6.36694">
        <ele>1697.2</ele>
        <time>2024-08-10T12:34:21Z</time>
      </trkpt>
      <trkpt lat="45.02587" lon="6.36694">
        <ele>1697.2</ele>
        <time>2024-08-10T12:34:22Z</time>
      </trkpt>
      <trkpt lat="45.02584" lon="6.36695">
        <ele>1697.6</ele>
        <time>2024-08-10T12:34:23Z</time>
      </trkpt>
      <trkpt lat="45.02584" lon="6.36695">
        <ele>1697.6</ele>
        <time>2024-08-10T12:34:24Z</time>
      </trkpt>
      <trkpt lat="45.02582" lon="6.36696">
        <ele>1697.6</ele>
        <time>2024-08-10T12:34:25Z</time>
      </trkpt>
      <trkpt lat="45.02582" lon="6.36696">
        <ele>1697.6</ele>
        <time>2024-08-10T12:34:26Z</time>
      </trkpt>
      <trkpt lat="45.0258" lon="6.36697">
        <ele>1697.8</ele>
        <time>2024-08-10T12:34:27Z</time>
      </trkpt>
      <trkpt lat="45.0258" lon="6.36697">
        <ele>1698</ele>
        <time>2024-08-10T12:34:28Z</time>
      </trkpt>
      <trkpt lat="45.02577" lon="6.36698">
        <ele>1698</ele>
        <time>2024-08-10T12:34:29Z</time>
      </trkpt>
      <trkpt lat="45.02577" lon="6.36698">
        <ele>1698.2</ele>
        <time>2024-08-10T12:34:30Z</time>
      </trkpt>
      <trkpt lat="45.02575" lon="6.36699">
        <ele>1697.8</ele>
        <time>2024-08-10T12:34:31Z</time>
      </trkpt>
      <trkpt lat="45.02575" lon="6.36699">
        <ele>1697.8</ele>
        <time>2024-08-10T12:34:32Z</time>
      </trkpt>
      <trkpt lat="45.02572" lon="6.36701">
        <ele>1697.8</ele>
        <time>2024-08-10T12:34:33Z</time>
      </trkpt>
      <trkpt lat="45.02572" lon="6.36701">
        <ele>1697.8</ele>
        <time>2024-08-10T12:34:34Z</time>
      </trkpt>
      <trkpt lat="45.0257" lon="6.36703">
        <ele>1697.6</ele>
        <time>2024-08-10T12:34:35Z</time>
      </trkpt>
      <trkpt lat="45.0257" lon="6.36703">
        <ele>1697.6</ele>
        <time>2024-08-10T12:34:36Z</time>
      </trkpt>
      <trkpt lat="45.02566" lon="6.36705">
        <ele>1697.6</ele>
        <time>2024-08-10T12:34:37Z</time>
      </trkpt>
      <trkpt lat="45.02566" lon="6.36705">
        <ele>1697.4</ele>
        <time>2024-08-10T12:34:38Z</time>
      </trkpt>
      <trkpt lat="45.02564" lon="6.36706">
        <ele>1697.4</ele>
        <time>2024-08-10T12:34:39Z</time>
      </trkpt>
      <trkpt lat="45.02564" lon="6.36706">
        <ele>1697.4</ele>
        <time>2024-08-10T12:34:40Z</time>
      </trkpt>
      <trkpt lat="45.02562" lon="6.36707">
        <ele>1697.4</ele>
        <time>2024-08-10T12:34:41Z</time>
      </trkpt>
      <trkpt lat="45.02562" lon="6.36707">
        <ele>1697.4</ele>
        <time>2024-08-10T12:34:42Z</time>
      </trkpt>
      <trkpt lat="45.02559" lon="6.36708">
        <ele>1697.4</ele>
        <time>2024-08-10T12:34:43Z</time>
      </trkpt>
      <trkpt lat="45.02559" lon="6.36708">
        <ele>1697.4</ele>
        <time>2024-08-10T12:34:44Z</time>
      </trkpt>
      <trkpt lat="45.02557" lon="6.3671">
        <ele>1697.2</ele>
        <time>2024-08-10T12:34:45Z</time>
      </trkpt>
      <trkpt lat="45.02557" lon="6.3671">
        <ele>1697.4</ele>
        <time>2024-08-10T12:34:46Z</time>
      </trkpt>
      <trkpt lat="45.02554" lon="6.36711">
        <ele>1697.6</ele>
        <time>2024-08-10T12:34:47Z</time>
      </trkpt>
      <trkpt lat="45.02554" lon="6.36711">
        <ele>1697.8</ele>
        <time>2024-08-10T12:34:48Z</time>
      </trkpt>
      <trkpt lat="45.02552" lon="6.36713">
        <ele>1697.8</ele>
        <time>2024-08-10T12:34:49Z</time>
      </trkpt>
      <trkpt lat="45.02552" lon="6.36713">
        <ele>1697.8</ele>
        <time>2024-08-10T12:34:50Z</time>
      </trkpt>
      <trkpt lat="45.02549" lon="6.36714">
        <ele>1698</ele>
        <time>2024-08-10T12:34:51Z</time>
      </trkpt>
      <trkpt lat="45.02549" lon="6.36714">
        <ele>1698</ele>
        <time>2024-08-10T12:34:52Z</time>
      </trkpt>
      <trkpt lat="45.02546" lon="6.36715">
        <ele>1698</ele>
        <time>2024-08-10T12:34:53Z</time>
      </trkpt>
      <trkpt lat="45.02546" lon="6.36715">
        <ele>1698</ele>
        <time>2024-08-10T12:34:54Z</time>
      </trkpt>
      <trkpt lat="45.02544" lon="6.36718">
        <ele>1698</ele>
        <time>2024-08-10T12:34:55Z</time>
      </trkpt>
      <trkpt lat="45.02543" lon="6.36719">
        <ele>1698</ele>
        <time>2024-08-10T12:34:56Z</time>
      </trkpt>
      <trkpt lat="45.02543" lon="6.36719">
        <ele>1698</ele>
        <time>2024-08-10T12:34:57Z</time>
      </trkpt>
      <trkpt lat="45.0254" lon="6.36722">
        <ele>1698.2</ele>
        <time>2024-08-10T12:34:58Z</time>
      </trkpt>
      <trkpt lat="45.0254" lon="6.36722">
        <ele>1698.2</ele>
        <time>2024-08-10T12:34:59Z</time>
      </trkpt>
      <trkpt lat="45.02538" lon="6.36724">
        <ele>1698.2</ele>
        <time>2024-08-10T12:35:00Z</time>
      </trkpt>
      <trkpt lat="45.02538" lon="6.36724">
        <ele>1698.4</ele>
        <time>2024-08-10T12:35:01Z</time>
      </trkpt>
      <trkpt lat="45.02537" lon="6.36726">
        <ele>1698.4</ele>
        <time>2024-08-10T12:35:02Z</time>
      </trkpt>
      <trkpt lat="45.02537" lon="6.36726">
        <ele>1698.6</ele>
        <time>2024-08-10T12:35:03Z</time>
      </trkpt>
      <trkpt lat="45.02536" lon="6.36729">
        <ele>1698.6</ele>
        <time>2024-08-10T12:35:04Z</time>
      </trkpt>
      <trkpt lat="45.02536" lon="6.36729">
        <ele>1698.6</ele>
        <time>2024-08-10T12:35:05Z</time>
      </trkpt>
      <trkpt lat="45.02534" lon="6.36731">
        <ele>1698.8</ele>
        <time>2024-08-10T12:35:06Z</time>
      </trkpt>
      <trkpt lat="45.02534" lon="6.36731">
        <ele>1699</ele>
        <time>2024-08-10T12:35:07Z</time>
      </trkpt>
      <trkpt lat="45.02532" lon="6.36734">
        <ele>1699.2</ele>
        <time>2024-08-10T12:35:08Z</time>
      </trkpt>
      <trkpt lat="45.02532" lon="6.36734">
        <ele>1699.4</ele>
        <time>2024-08-10T12:35:09Z</time>
      </trkpt>
      <trkpt lat="45.02531" lon="6.36737">
        <ele>1699.4</ele>
        <time>2024-08-10T12:35:10Z</time>
      </trkpt>
      <trkpt lat="45.02531" lon="6.36737">
        <ele>1699.4</ele>
        <time>2024-08-10T12:35:11Z</time>
      </trkpt>
      <trkpt lat="45.02529" lon="6.36739">
        <ele>1699.6</ele>
        <time>2024-08-10T12:35:12Z</time>
      </trkpt>
      <trkpt lat="45.02529" lon="6.36739">
        <ele>1699.8</ele>
        <time>2024-08-10T12:35:13Z</time>
      </trkpt>
      <trkpt lat="45.02527" lon="6.36742">
        <ele>1699.8</ele>
        <time>2024-08-10T12:35:14Z</time>
      </trkpt>
      <trkpt lat="45.02527" lon="6.36742">
        <ele>1700</ele>
        <time>2024-08-10T12:35:15Z</time>
      </trkpt>
      <trkpt lat="45.02525" lon="6.36744">
        <ele>1700</ele>
        <time>2024-08-10T12:35:16Z</time>
      </trkpt>
      <trkpt lat="45.02525" lon="6.36744">
        <ele>1700.2</ele>
        <time>2024-08-10T12:35:17Z</time>
      </trkpt>
      <trkpt lat="45.02523" lon="6.36746">
        <ele>1700.4</ele>
        <time>2024-08-10T12:35:18Z</time>
      </trkpt>
      <trkpt lat="45.02523" lon="6.36746">
        <ele>1700.4</ele>
        <time>2024-08-10T12:35:19Z</time>
      </trkpt>
      <trkpt lat="45.02521" lon="6.36748">
        <ele>1700.4</ele>
        <time>2024-08-10T12:35:20Z</time>
      </trkpt>
      <trkpt lat="45.02521" lon="6.36748">
        <ele>1700.4</ele>
        <time>2024-08-10T12:35:21Z</time>
      </trkpt>
      <trkpt lat="45.02518" lon="6.3675">
        <ele>1700.4</ele>
        <time>2024-08-10T12:35:22Z</time>
      </trkpt>
      <trkpt lat="45.02518" lon="6.3675">
        <ele>1700.4</ele>
        <time>2024-08-10T12:35:23Z</time>
      </trkpt>
      <trkpt lat="45.02516" lon="6.36751">
        <ele>1700.6</ele>
        <time>2024-08-10T12:35:24Z</time>
      </trkpt>
      <trkpt lat="45.02516" lon="6.36751">
        <ele>1700.6</ele>
        <time>2024-08-10T12:35:25Z</time>
      </trkpt>
      <trkpt lat="45.02514" lon="6.36751">
        <ele>1700.8</ele>
        <time>2024-08-10T12:35:26Z</time>
      </trkpt>
      <trkpt lat="45.02514" lon="6.36751">
        <ele>1701</ele>
        <time>2024-08-10T12:35:27Z</time>
      </trkpt>
      <trkpt lat="45.02511" lon="6.36753">
        <ele>1701</ele>
        <time>2024-08-10T12:35:28Z</time>
      </trkpt>
      <trkpt lat="45.02511" lon="6.36753">
        <ele>1701</ele>
        <time>2024-08-10T12:35:29Z</time>
      </trkpt>
      <trkpt lat="45.02508" lon="6.36754">
        <ele>1700.8</ele>
        <time>2024-08-10T12:35:30Z</time>
      </trkpt>
      <trkpt lat="45.02508" lon="6.36754">
        <ele>1700.8</ele>
        <time>2024-08-10T12:35:31Z</time>
      </trkpt>
      <trkpt lat="45.02506" lon="6.36755">
        <ele>1700.8</ele>
        <time>2024-08-10T12:35:32Z</time>
      </trkpt>
      <trkpt lat="45.02506" lon="6.36755">
        <ele>1700.8</ele>
        <time>2024-08-10T12:35:33Z</time>
      </trkpt>
      <trkpt lat="45.02504" lon="6.36757">
        <ele>1701.2</ele>
        <time>2024-08-10T12:35:34Z</time>
      </trkpt>
      <trkpt lat="45.02504" lon="6.36757">
        <ele>1701.2</ele>
        <time>2024-08-10T12:35:35Z</time>
      </trkpt>
      <trkpt lat="45.02501" lon="6.36758">
        <ele>1701.2</ele>
        <time>2024-08-10T12:35:36Z</time>
      </trkpt>
      <trkpt lat="45.02501" lon="6.36758">
        <ele>1701.4</ele>
        <time>2024-08-10T12:35:37Z</time>
      </trkpt>
      <trkpt lat="45.025" lon="6.3676">
        <ele>1701.4</ele>
        <time>2024-08-10T12:35:38Z</time>
      </trkpt>
      <trkpt lat="45.025" lon="6.3676">
        <ele>1701.2</ele>
        <time>2024-08-10T12:35:39Z</time>
      </trkpt>
      <trkpt lat="45.02498" lon="6.36762">
        <ele>1701.2</ele>
        <time>2024-08-10T12:35:40Z</time>
      </trkpt>
      <trkpt lat="45.02498" lon="6.36762">
        <ele>1701.4</ele>
        <time>2024-08-10T12:35:41Z</time>
      </trkpt>
      <trkpt lat="45.02496" lon="6.36764">
        <ele>1701.6</ele>
        <time>2024-08-10T12:35:42Z</time>
      </trkpt>
      <trkpt lat="45.02496" lon="6.36764">
        <ele>1701.6</ele>
        <time>2024-08-10T12:35:43Z</time>
      </trkpt>
      <trkpt lat="45.02494" lon="6.36764">
        <ele>1701.6</ele>
        <time>2024-08-10T12:35:44Z</time>
      </trkpt>
      <trkpt lat="45.02494" lon="6.36764">
        <ele>1701.8</ele>
        <time>2024-08-10T12:35:45Z</time>
      </trkpt>
      <trkpt lat="45.02492" lon="6.36766">
        <ele>1701.8</ele>
        <time>2024-08-10T12:35:46Z</time>
      </trkpt>
      <trkpt lat="45.02492" lon="6.36766">
        <ele>1702</ele>
        <time>2024-08-10T12:35:47Z</time>
      </trkpt>
      <trkpt lat="45.0249" lon="6.36768">
        <ele>1702</ele>
        <time>2024-08-10T12:35:48Z</time>
      </trkpt>
      <trkpt lat="45.0249" lon="6.36768">
        <ele>1702.2</ele>
        <time>2024-08-10T12:35:49Z</time>
      </trkpt>
      <trkpt lat="45.02487" lon="6.36769">
        <ele>1702.6</ele>
        <time>2024-08-10T12:35:50Z</time>
      </trkpt>
      <trkpt lat="45.02487" lon="6.36769">
        <ele>1702.6</ele>
        <time>2024-08-10T12:35:51Z</time>
      </trkpt>
      <trkpt lat="45.02485" lon="6.36771">
        <ele>1702.8</ele>
        <time>2024-08-10T12:35:52Z</time>
      </trkpt>
      <trkpt lat="45.02485" lon="6.36771">
        <ele>1703</ele>
        <time>2024-08-10T12:35:53Z</time>
      </trkpt>
      <trkpt lat="45.02483" lon="6.36772">
        <ele>1703</ele>
        <time>2024-08-10T12:35:54Z</time>
      </trkpt>
      <trkpt lat="45.02483" lon="6.36772">
        <ele>1703</ele>
        <time>2024-08-10T12:35:55Z</time>
      </trkpt>
      <trkpt lat="45.0248" lon="6.36772">
        <ele>1703.2</ele>
        <time>2024-08-10T12:35:56Z</time>
      </trkpt>
      <trkpt lat="45.0248" lon="6.36772">
        <ele>1703.6</ele>
        <time>2024-08-10T12:35:57Z</time>
      </trkpt>
      <trkpt lat="45.02478" lon="6.36773">
        <ele>1703.6</ele>
        <time>2024-08-10T12:35:58Z</time>
      </trkpt>
      <trkpt lat="45.02478" lon="6.36773">
        <ele>1703.6</ele>
        <time>2024-08-10T12:35:59Z</time>
      </trkpt>
      <trkpt lat="45.02477" lon="6.36775">
        <ele>1703.8</ele>
        <time>2024-08-10T12:36:00Z</time>
      </trkpt>
      <trkpt lat="45.02477" lon="6.36775">
        <ele>1703.8</ele>
        <time>2024-08-10T12:36:01Z</time>
      </trkpt>
      <trkpt lat="45.02474" lon="6.36776">
        <ele>1703.8</ele>
        <time>2024-08-10T12:36:02Z</time>
      </trkpt>
      <trkpt lat="45.02474" lon="6.36776">
        <ele>1704</ele>
        <time>2024-08-10T12:36:03Z</time>
      </trkpt>
      <trkpt lat="45.02472" lon="6.36778">
        <ele>1704</ele>
        <time>2024-08-10T12:36:04Z</time>
      </trkpt>
      <trkpt lat="45.02472" lon="6.36778">
        <ele>1704.2</ele>
        <time>2024-08-10T12:36:05Z</time>
      </trkpt>
      <trkpt lat="45.0247" lon="6.36779">
        <ele>1704.4</ele>
        <time>2024-08-10T12:36:06Z</time>
      </trkpt>
      <trkpt lat="45.0247" lon="6.36779">
        <ele>1704.4</ele>
        <time>2024-08-10T12:36:07Z</time>
      </trkpt>
      <trkpt lat="45.02468" lon="6.3678">
        <ele>1704.4</ele>
        <time>2024-08-10T12:36:08Z</time>
      </trkpt>
      <trkpt lat="45.02468" lon="6.3678">
        <ele>1704.6</ele>
        <time>2024-08-10T12:36:09Z</time>
      </trkpt>
      <trkpt lat="45.02465" lon="6.36782">
        <ele>1704.6</ele>
        <time>2024-08-10T12:36:10Z</time>
      </trkpt>
      <trkpt lat="45.02465" lon="6.36782">
        <ele>1705.2</ele>
        <time>2024-08-10T12:36:11Z</time>
      </trkpt>
      <trkpt lat="45.02462" lon="6.36783">
        <ele>1705.2</ele>
        <time>2024-08-10T12:36:12Z</time>
      </trkpt>
      <trkpt lat="45.02462" lon="6.36783">
        <ele>1705.2</ele>
        <time>2024-08-10T12:36:13Z</time>
      </trkpt>
      <trkpt lat="45.0246" lon="6.36784">
        <ele>1705.2</ele>
        <time>2024-08-10T12:36:14Z</time>
      </trkpt>
      <trkpt lat="45.0246" lon="6.36784">
        <ele>1705.2</ele>
        <time>2024-08-10T12:36:15Z</time>
      </trkpt>
      <trkpt lat="45.02457" lon="6.36785">
        <ele>1705.2</ele>
        <time>2024-08-10T12:36:16Z</time>
      </trkpt>
      <trkpt lat="45.02457" lon="6.36785">
        <ele>1705.2</ele>
        <time>2024-08-10T12:36:17Z</time>
      </trkpt>
      <trkpt lat="45.02455" lon="6.36787">
        <ele>1705</ele>
        <time>2024-08-10T12:36:18Z</time>
      </trkpt>
      <trkpt lat="45.02455" lon="6.36787">
        <ele>1705.2</ele>
        <time>2024-08-10T12:36:19Z</time>
      </trkpt>
      <trkpt lat="45.02453" lon="6.36788">
        <ele>1705.2</ele>
        <time>2024-08-10T12:36:20Z</time>
      </trkpt>
      <trkpt lat="45.02453" lon="6.36788">
        <ele>1705</ele>
        <time>2024-08-10T12:36:21Z</time>
      </trkpt>
      <trkpt lat="45.0245" lon="6.3679">
        <ele>1705</ele>
        <time>2024-08-10T12:36:22Z</time>
      </trkpt>
      <trkpt lat="45.0245" lon="6.3679">
        <ele>1705.2</ele>
        <time>2024-08-10T12:36:23Z</time>
      </trkpt>
      <trkpt lat="45.02448" lon="6.36792">
        <ele>1705.6</ele>
        <time>2024-08-10T12:36:24Z</time>
      </trkpt>
      <trkpt lat="45.02448" lon="6.36792">
        <ele>1705.6</ele>
        <time>2024-08-10T12:36:25Z</time>
      </trkpt>
      <trkpt lat="45.02446" lon="6.36794">
        <ele>1705.6</ele>
        <time>2024-08-10T12:36:26Z</time>
      </trkpt>
      <trkpt lat="45.02446" lon="6.36794">
        <ele>1705.6</ele>
        <time>2024-08-10T12:36:27Z</time>
      </trkpt>
      <trkpt lat="45.02444" lon="6.36796">
        <ele>1705.4</ele>
        <time>2024-08-10T12:36:28Z</time>
      </trkpt>
      <trkpt lat="45.02442" lon="6.36797">
        <ele>1705.4</ele>
        <time>2024-08-10T12:36:29Z</time>
      </trkpt>
      <trkpt lat="45.02442" lon="6.36797">
        <ele>1705.4</ele>
        <time>2024-08-10T12:36:30Z</time>
      </trkpt>
      <trkpt lat="45.0244" lon="6.368">
        <ele>1705.6</ele>
        <time>2024-08-10T12:36:31Z</time>
      </trkpt>
      <trkpt lat="45.0244" lon="6.368">
        <ele>1706</ele>
        <time>2024-08-10T12:36:32Z</time>
      </trkpt>
      <trkpt lat="45.02438" lon="6.36802">
        <ele>1706</ele>
        <time>2024-08-10T12:36:33Z</time>
      </trkpt>
      <trkpt lat="45.02438" lon="6.36802">
        <ele>1706</ele>
        <time>2024-08-10T12:36:34Z</time>
      </trkpt>
      <trkpt lat="45.02436" lon="6.36804">
        <ele>1706.4</ele>
        <time>2024-08-10T12:36:35Z</time>
      </trkpt>
      <trkpt lat="45.02436" lon="6.36804">
        <ele>1706.6</ele>
        <time>2024-08-10T12:36:36Z</time>
      </trkpt>
      <trkpt lat="45.02434" lon="6.36806">
        <ele>1706.6</ele>
        <time>2024-08-10T12:36:37Z</time>
      </trkpt>
      <trkpt lat="45.02434" lon="6.36806">
        <ele>1707</ele>
        <time>2024-08-10T12:36:38Z</time>
      </trkpt>
      <trkpt lat="45.02432" lon="6.36808">
        <ele>1707</ele>
        <time>2024-08-10T12:36:39Z</time>
      </trkpt>
      <trkpt lat="45.02432" lon="6.36808">
        <ele>1707</ele>
        <time>2024-08-10T12:36:40Z</time>
      </trkpt>
      <trkpt lat="45.0243" lon="6.3681">
        <ele>1707</ele>
        <time>2024-08-10T12:36:41Z</time>
      </trkpt>
      <trkpt lat="45.0243" lon="6.3681">
        <ele>1707.4</ele>
        <time>2024-08-10T12:36:42Z</time>
      </trkpt>
      <trkpt lat="45.02429" lon="6.36813">
        <ele>1707.4</ele>
        <time>2024-08-10T12:36:43Z</time>
      </trkpt>
      <trkpt lat="45.02429" lon="6.36813">
        <ele>1707.4</ele>
        <time>2024-08-10T12:36:44Z</time>
      </trkpt>
      <trkpt lat="45.02427" lon="6.36815">
        <ele>1707.6</ele>
        <time>2024-08-10T12:36:45Z</time>
      </trkpt>
      <trkpt lat="45.02427" lon="6.36815">
        <ele>1707.6</ele>
        <time>2024-08-10T12:36:46Z</time>
      </trkpt>
      <trkpt lat="45.02425" lon="6.36818">
        <ele>1707.8</ele>
        <time>2024-08-10T12:36:47Z</time>
      </trkpt>
      <trkpt lat="45.02425" lon="6.36818">
        <ele>1707.8</ele>
        <time>2024-08-10T12:36:48Z</time>
      </trkpt>
      <trkpt lat="45.02423" lon="6.36821">
        <ele>1708.2</ele>
        <time>2024-08-10T12:36:49Z</time>
      </trkpt>
      <trkpt lat="45.02423" lon="6.36821">
        <ele>1708.2</ele>
        <time>2024-08-10T12:36:50Z</time>
      </trkpt>
      <trkpt lat="45.02421" lon="6.36823">
        <ele>1708</ele>
        <time>2024-08-10T12:36:51Z</time>
      </trkpt>
      <trkpt lat="45.02421" lon="6.36823">
        <ele>1708</ele>
        <time>2024-08-10T12:36:52Z</time>
      </trkpt>
      <trkpt lat="45.0242" lon="6.36826">
        <ele>1708.4</ele>
        <time>2024-08-10T12:36:53Z</time>
      </trkpt>
      <trkpt lat="45.0242" lon="6.36828">
        <ele>1708.4</ele>
        <time>2024-08-10T12:36:54Z</time>
      </trkpt>
      <trkpt lat="45.0242" lon="6.36828">
        <ele>1708.6</ele>
        <time>2024-08-10T12:36:55Z</time>
      </trkpt>
      <trkpt lat="45.02418" lon="6.36832">
        <ele>1708.8</ele>
        <time>2024-08-10T12:36:56Z</time>
      </trkpt>
      <trkpt lat="45.02417" lon="6.36833">
        <ele>1708.8</ele>
        <time>2024-08-10T12:36:57Z</time>
      </trkpt>
      <trkpt lat="45.02416" lon="6.36834">
        <ele>1708.8</ele>
        <time>2024-08-10T12:36:58Z</time>
      </trkpt>
      <trkpt lat="45.02416" lon="6.36834">
        <ele>1708.4</ele>
        <time>2024-08-10T12:36:59Z</time>
      </trkpt>
      <trkpt lat="45.02413" lon="6.36836">
        <ele>1708.4</ele>
        <time>2024-08-10T12:37:00Z</time>
      </trkpt>
      <trkpt lat="45.02413" lon="6.36836">
        <ele>1708.4</ele>
        <time>2024-08-10T12:37:01Z</time>
      </trkpt>
      <trkpt lat="45.02412" lon="6.36839">
        <ele>1708.4</ele>
        <time>2024-08-10T12:37:02Z</time>
      </trkpt>
      <trkpt lat="45.02412" lon="6.36839">
        <ele>1708.2</ele>
        <time>2024-08-10T12:37:03Z</time>
      </trkpt>
      <trkpt lat="45.02409" lon="6.36842">
        <ele>1708.2</ele>
        <time>2024-08-10T12:37:04Z</time>
      </trkpt>
      <trkpt lat="45.02409" lon="6.36842">
        <ele>1708.2</ele>
        <time>2024-08-10T12:37:05Z</time>
      </trkpt>
      <trkpt lat="45.02408" lon="6.36844">
        <ele>1708.2</ele>
        <time>2024-08-10T12:37:06Z</time>
      </trkpt>
      <trkpt lat="45.02408" lon="6.36844">
        <ele>1708.2</ele>
        <time>2024-08-10T12:37:07Z</time>
      </trkpt>
      <trkpt lat="45.02406" lon="6.36847">
        <ele>1708.2</ele>
        <time>2024-08-10T12:37:08Z</time>
      </trkpt>
      <trkpt lat="45.02406" lon="6.36847">
        <ele>1708.4</ele>
        <time>2024-08-10T12:37:09Z</time>
      </trkpt>
      <trkpt lat="45.02405" lon="6.36849">
        <ele>1708.4</ele>
        <time>2024-08-10T12:37:10Z</time>
      </trkpt>
      <trkpt lat="45.02405" lon="6.36849">
        <ele>1708.4</ele>
        <time>2024-08-10T12:37:11Z</time>
      </trkpt>
      <trkpt lat="45.02403" lon="6.36851">
        <ele>1708.4</ele>
        <time>2024-08-10T12:37:12Z</time>
      </trkpt>
      <trkpt lat="45.02403" lon="6.36851">
        <ele>1708.4</ele>
        <time>2024-08-10T12:37:13Z</time>
      </trkpt>
      <trkpt lat="45.02402" lon="6.36854">
        <ele>1708.4</ele>
        <time>2024-08-10T12:37:14Z</time>
      </trkpt>
      <trkpt lat="45.02402" lon="6.36854">
        <ele>1708.6</ele>
        <time>2024-08-10T12:37:15Z</time>
      </trkpt>
      <trkpt lat="45.02401" lon="6.36856">
        <ele>1708.6</ele>
        <time>2024-08-10T12:37:16Z</time>
      </trkpt>
      <trkpt lat="45.02401" lon="6.36856">
        <ele>1708.6</ele>
        <time>2024-08-10T12:37:17Z</time>
      </trkpt>
      <trkpt lat="45.02399" lon="6.36857">
        <ele>1708.8</ele>
        <time>2024-08-10T12:37:18Z</time>
      </trkpt>
      <trkpt lat="45.02399" lon="6.36857">
        <ele>1709.2</ele>
        <time>2024-08-10T12:37:19Z</time>
      </trkpt>
      <trkpt lat="45.02397" lon="6.36859">
        <ele>1709.2</ele>
        <time>2024-08-10T12:37:20Z</time>
      </trkpt>
      <trkpt lat="45.02397" lon="6.36859">
        <ele>1709.6</ele>
        <time>2024-08-10T12:37:21Z</time>
      </trkpt>
      <trkpt lat="45.02395" lon="6.36861">
        <ele>1709.8</ele>
        <time>2024-08-10T12:37:22Z</time>
      </trkpt>
      <trkpt lat="45.02395" lon="6.36861">
        <ele>1710</ele>
        <time>2024-08-10T12:37:23Z</time>
      </trkpt>
      <trkpt lat="45.02393" lon="6.36863">
        <ele>1710</ele>
        <time>2024-08-10T12:37:24Z</time>
      </trkpt>
      <trkpt lat="45.02393" lon="6.36863">
        <ele>1710.2</ele>
        <time>2024-08-10T12:37:25Z</time>
      </trkpt>
      <trkpt lat="45.0239" lon="6.36865">
        <ele>1710.2</ele>
        <time>2024-08-10T12:37:26Z</time>
      </trkpt>
      <trkpt lat="45.0239" lon="6.36865">
        <ele>1710.4</ele>
        <time>2024-08-10T12:37:27Z</time>
      </trkpt>
      <trkpt lat="45.02388" lon="6.36866">
        <ele>1710.4</ele>
        <time>2024-08-10T12:37:28Z</time>
      </trkpt>
      <trkpt lat="45.02388" lon="6.36866">
        <ele>1710.4</ele>
        <time>2024-08-10T12:37:29Z</time>
      </trkpt>
      <trkpt lat="45.02385" lon="6.36868">
        <ele>1710.2</ele>
        <time>2024-08-10T12:37:30Z</time>
      </trkpt>
      <trkpt lat="45.02385" lon="6.36868">
        <ele>1710.2</ele>
        <time>2024-08-10T12:37:31Z</time>
      </trkpt>
      <trkpt lat="45.02383" lon="6.3687">
        <ele>1710.6</ele>
        <time>2024-08-10T12:37:32Z</time>
      </trkpt>
      <trkpt lat="45.02383" lon="6.3687">
        <ele>1710.8</ele>
        <time>2024-08-10T12:37:33Z</time>
      </trkpt>
      <trkpt lat="45.02381" lon="6.36871">
        <ele>1710.8</ele>
        <time>2024-08-10T12:37:34Z</time>
      </trkpt>
      <trkpt lat="45.02381" lon="6.36871">
        <ele>1711</ele>
        <time>2024-08-10T12:37:35Z</time>
      </trkpt>
      <trkpt lat="45.02379" lon="6.36872">
        <ele>1711</ele>
        <time>2024-08-10T12:37:36Z</time>
      </trkpt>
      <trkpt lat="45.02379" lon="6.36872">
        <ele>1711.2</ele>
        <time>2024-08-10T12:37:37Z</time>
      </trkpt>
      <trkpt lat="45.02376" lon="6.36873">
        <ele>1711.2</ele>
        <time>2024-08-10T12:37:38Z</time>
      </trkpt>
      <trkpt lat="45.02376" lon="6.36873">
        <ele>1711.4</ele>
        <time>2024-08-10T12:37:39Z</time>
      </trkpt>
      <trkpt lat="45.02373" lon="6.36874">
        <ele>1711.4</ele>
        <time>2024-08-10T12:37:40Z</time>
      </trkpt>
      <trkpt lat="45.02373" lon="6.36874">
        <ele>1711.4</ele>
        <time>2024-08-10T12:37:41Z</time>
      </trkpt>
      <trkpt lat="45.02373" lon="6.36874">
        <ele>1711.6</ele>
        <time>2024-08-10T12:37:42Z</time>
      </trkpt>
      <trkpt lat="45.02372" lon="6.36875">
        <ele>1711.6</ele>
        <time>2024-08-10T12:37:43Z</time>
      </trkpt>
      <trkpt lat="45.02372" lon="6.36875">
        <ele>1711.4</ele>
        <time>2024-08-10T12:37:44Z</time>
      </trkpt>
      <trkpt lat="45.0237" lon="6.36876">
        <ele>1711.4</ele>
        <time>2024-08-10T12:37:45Z</time>
      </trkpt>
      <trkpt lat="45.0237" lon="6.36876">
        <ele>1711.4</ele>
        <time>2024-08-10T12:37:46Z</time>
      </trkpt>
      <trkpt lat="45.0237" lon="6.36876">
        <ele>1711.6</ele>
        <time>2024-08-10T12:37:47Z</time>
      </trkpt>
      <trkpt lat="45.0237" lon="6.36876">
        <ele>1711.8</ele>
        <time>2024-08-10T12:37:48Z</time>
      </trkpt>
      <trkpt lat="45.0237" lon="6.36876">
        <ele>1711.8</ele>
        <time>2024-08-10T12:37:49Z</time>
      </trkpt>
      <trkpt lat="45.0237" lon="6.36876">
        <ele>1712</ele>
        <time>2024-08-10T12:37:50Z</time>
      </trkpt>
      <trkpt lat="45.0237" lon="6.36876">
        <ele>1712</ele>
        <time>2024-08-10T12:37:51Z</time>
      </trkpt>
      <trkpt lat="45.0237" lon="6.36876">
        <ele>1712.2</ele>
        <time>2024-08-10T12:37:52Z</time>
      </trkpt>
      <trkpt lat="45.0237" lon="6.36876">
        <ele>1712.2</ele>
        <time>2024-08-10T12:37:53Z</time>
      </trkpt>
      <trkpt lat="45.0237" lon="6.36876">
        <ele>1712.2</ele>
        <time>2024-08-10T12:37:54Z</time>
      </trkpt>
      <trkpt lat="45.02368" lon="6.36877">
        <ele>1712.2</ele>
        <time>2024-08-10T12:37:55Z</time>
      </trkpt>
      <trkpt lat="45.02368" lon="6.36877">
        <ele>1712.2</ele>
        <time>2024-08-10T12:37:56Z</time>
      </trkpt>
      <trkpt lat="45.02365" lon="6.36877">
        <ele>1712.2</ele>
        <time>2024-08-10T12:37:57Z</time>
      </trkpt>
      <trkpt lat="45.02365" lon="6.36877">
        <ele>1711.6</ele>
        <time>2024-08-10T12:37:58Z</time>
      </trkpt>
      <trkpt lat="45.02362" lon="6.36878">
        <ele>1711.4</ele>
        <time>2024-08-10T12:37:59Z</time>
      </trkpt>
      <trkpt lat="45.02362" lon="6.36878">
        <ele>1711.6</ele>
        <time>2024-08-10T12:38:00Z</time>
      </trkpt>
      <trkpt lat="45.02359" lon="6.3688">
        <ele>1711.8</ele>
        <time>2024-08-10T12:38:01Z</time>
      </trkpt>
      <trkpt lat="45.02359" lon="6.3688">
        <ele>1712</ele>
        <time>2024-08-10T12:38:02Z</time>
      </trkpt>
      <trkpt lat="45.02357" lon="6.36882">
        <ele>1711.6</ele>
        <time>2024-08-10T12:38:03Z</time>
      </trkpt>
      <trkpt lat="45.02357" lon="6.36882">
        <ele>1711.6</ele>
        <time>2024-08-10T12:38:04Z</time>
      </trkpt>
      <trkpt lat="45.02356" lon="6.36883">
        <ele>1711.6</ele>
        <time>2024-08-10T12:38:05Z</time>
      </trkpt>
      <trkpt lat="45.02356" lon="6.36883">
        <ele>1711.8</ele>
        <time>2024-08-10T12:38:06Z</time>
      </trkpt>
      <trkpt lat="45.02354" lon="6.36885">
        <ele>1711.8</ele>
        <time>2024-08-10T12:38:07Z</time>
      </trkpt>
      <trkpt lat="45.02354" lon="6.36885">
        <ele>1711.8</ele>
        <time>2024-08-10T12:38:08Z</time>
      </trkpt>
      <trkpt lat="45.02353" lon="6.36887">
        <ele>1711.8</ele>
        <time>2024-08-10T12:38:09Z</time>
      </trkpt>
      <trkpt lat="45.02351" lon="6.36889">
        <ele>1712</ele>
        <time>2024-08-10T12:38:10Z</time>
      </trkpt>
      <trkpt lat="45.02351" lon="6.36889">
        <ele>1712</ele>
        <time>2024-08-10T12:38:11Z</time>
      </trkpt>
      <trkpt lat="45.02349" lon="6.36891">
        <ele>1712</ele>
        <time>2024-08-10T12:38:12Z</time>
      </trkpt>
      <trkpt lat="45.02349" lon="6.36891">
        <ele>1711.8</ele>
        <time>2024-08-10T12:38:13Z</time>
      </trkpt>
      <trkpt lat="45.02347" lon="6.36894">
        <ele>1711.8</ele>
        <time>2024-08-10T12:38:14Z</time>
      </trkpt>
      <trkpt lat="45.02347" lon="6.36894">
        <ele>1711.8</ele>
        <time>2024-08-10T12:38:15Z</time>
      </trkpt>
      <trkpt lat="45.02345" lon="6.36896">
        <ele>1711.8</ele>
        <time>2024-08-10T12:38:16Z</time>
      </trkpt>
      <trkpt lat="45.02345" lon="6.36896">
        <ele>1712</ele>
        <time>2024-08-10T12:38:17Z</time>
      </trkpt>
      <trkpt lat="45.02343" lon="6.36896">
        <ele>1712</ele>
        <time>2024-08-10T12:38:18Z</time>
      </trkpt>
      <trkpt lat="45.02343" lon="6.36896">
        <ele>1712</ele>
        <time>2024-08-10T12:38:19Z</time>
      </trkpt>
      <trkpt lat="45.0234" lon="6.36898">
        <ele>1712.2</ele>
        <time>2024-08-10T12:38:20Z</time>
      </trkpt>
      <trkpt lat="45.0234" lon="6.36898">
        <ele>1712.2</ele>
        <time>2024-08-10T12:38:21Z</time>
      </trkpt>
      <trkpt lat="45.02339" lon="6.36901">
        <ele>1712.2</ele>
        <time>2024-08-10T12:38:22Z</time>
      </trkpt>
      <trkpt lat="45.02339" lon="6.36901">
        <ele>1712.2</ele>
        <time>2024-08-10T12:38:23Z</time>
      </trkpt>
      <trkpt lat="45.02336" lon="6.36903">
        <ele>1712</ele>
        <time>2024-08-10T12:38:24Z</time>
      </trkpt>
      <trkpt lat="45.02336" lon="6.36903">
        <ele>1712</ele>
        <time>2024-08-10T12:38:25Z</time>
      </trkpt>
      <trkpt lat="45.02333" lon="6.36905">
        <ele>1712</ele>
        <time>2024-08-10T12:38:26Z</time>
      </trkpt>
      <trkpt lat="45.02332" lon="6.36906">
        <ele>1712</ele>
        <time>2024-08-10T12:38:27Z</time>
      </trkpt>
      <trkpt lat="45.02332" lon="6.36906">
        <ele>1712</ele>
        <time>2024-08-10T12:38:28Z</time>
      </trkpt>
      <trkpt lat="45.0233" lon="6.36908">
        <ele>1712</ele>
        <time>2024-08-10T12:38:29Z</time>
      </trkpt>
      <trkpt lat="45.0233" lon="6.36908">
        <ele>1712</ele>
        <time>2024-08-10T12:38:30Z</time>
      </trkpt>
      <trkpt lat="45.02328" lon="6.36911">
        <ele>1711.8</ele>
        <time>2024-08-10T12:38:31Z</time>
      </trkpt>
      <trkpt lat="45.02328" lon="6.36911">
        <ele>1711.8</ele>
        <time>2024-08-10T12:38:32Z</time>
      </trkpt>
      <trkpt lat="45.02325" lon="6.36913">
        <ele>1711.8</ele>
        <time>2024-08-10T12:38:33Z</time>
      </trkpt>
      <trkpt lat="45.02325" lon="6.36913">
        <ele>1711.8</ele>
        <time>2024-08-10T12:38:34Z</time>
      </trkpt>
      <trkpt lat="45.02323" lon="6.36916">
        <ele>1711.8</ele>
        <time>2024-08-10T12:38:35Z</time>
      </trkpt>
      <trkpt lat="45.02323" lon="6.36916">
        <ele>1711.8</ele>
        <time>2024-08-10T12:38:36Z</time>
      </trkpt>
      <trkpt lat="45.02321" lon="6.36918">
        <ele>1711.8</ele>
        <time>2024-08-10T12:38:37Z</time>
      </trkpt>
      <trkpt lat="45.02321" lon="6.36918">
        <ele>1711.8</ele>
        <time>2024-08-10T12:38:38Z</time>
      </trkpt>
      <trkpt lat="45.02319" lon="6.3692">
        <ele>1712</ele>
        <time>2024-08-10T12:38:39Z</time>
      </trkpt>
      <trkpt lat="45.02319" lon="6.3692">
        <ele>1712.2</ele>
        <time>2024-08-10T12:38:40Z</time>
      </trkpt>
      <trkpt lat="45.02317" lon="6.36923">
        <ele>1712.2</ele>
        <time>2024-08-10T12:38:41Z</time>
      </trkpt>
      <trkpt lat="45.02317" lon="6.36923">
        <ele>1712.2</ele>
        <time>2024-08-10T12:38:42Z</time>
      </trkpt>
      <trkpt lat="45.02315" lon="6.36925">
        <ele>1712.4</ele>
        <time>2024-08-10T12:38:43Z</time>
      </trkpt>
      <trkpt lat="45.02315" lon="6.36925">
        <ele>1712.6</ele>
        <time>2024-08-10T12:38:44Z</time>
      </trkpt>
      <trkpt lat="45.02313" lon="6.36927">
        <ele>1712.6</ele>
        <time>2024-08-10T12:38:45Z</time>
      </trkpt>
      <trkpt lat="45.02313" lon="6.36927">
        <ele>1712.6</ele>
        <time>2024-08-10T12:38:46Z</time>
      </trkpt>
      <trkpt lat="45.02311" lon="6.36929">
        <ele>1712.6</ele>
        <time>2024-08-10T12:38:47Z</time>
      </trkpt>
      <trkpt lat="45.02311" lon="6.36929">
        <ele>1712.6</ele>
        <time>2024-08-10T12:38:48Z</time>
      </trkpt>
      <trkpt lat="45.02308" lon="6.36931">
        <ele>1712.6</ele>
        <time>2024-08-10T12:38:49Z</time>
      </trkpt>
      <trkpt lat="45.02308" lon="6.36931">
        <ele>1712.6</ele>
        <time>2024-08-10T12:38:50Z</time>
      </trkpt>
      <trkpt lat="45.02306" lon="6.36934">
        <ele>1713</ele>
        <time>2024-08-10T12:38:51Z</time>
      </trkpt>
      <trkpt lat="45.02306" lon="6.36934">
        <ele>1713</ele>
        <time>2024-08-10T12:38:52Z</time>
      </trkpt>
      <trkpt lat="45.02305" lon="6.36936">
        <ele>1713</ele>
        <time>2024-08-10T12:38:53Z</time>
      </trkpt>
      <trkpt lat="45.02305" lon="6.36936">
        <ele>1713</ele>
        <time>2024-08-10T12:38:54Z</time>
      </trkpt>
      <trkpt lat="45.02303" lon="6.36938">
        <ele>1712.8</ele>
        <time>2024-08-10T12:38:55Z</time>
      </trkpt>
      <trkpt lat="45.02303" lon="6.36938">
        <ele>1712.8</ele>
        <time>2024-08-10T12:38:56Z</time>
      </trkpt>
      <trkpt lat="45.02303" lon="6.36938">
        <ele>1713</ele>
        <time>2024-08-10T12:38:57Z</time>
      </trkpt>
      <trkpt lat="45.02301" lon="6.36941">
        <ele>1713</ele>
        <time>2024-08-10T12:38:58Z</time>
      </trkpt>
      <trkpt lat="45.02301" lon="6.36941">
        <ele>1713.2</ele>
        <time>2024-08-10T12:38:59Z</time>
      </trkpt>
      <trkpt lat="45.02299" lon="6.36943">
        <ele>1713.4</ele>
        <time>2024-08-10T12:39:00Z</time>
      </trkpt>
      <trkpt lat="45.02299" lon="6.36943">
        <ele>1713.4</ele>
        <time>2024-08-10T12:39:01Z</time>
      </trkpt>
      <trkpt lat="45.02299" lon="6.36943">
        <ele>1713.6</ele>
        <time>2024-08-10T12:39:02Z</time>
      </trkpt>
      <trkpt lat="45.02299" lon="6.36943">
        <ele>1713.8</ele>
        <time>2024-08-10T12:39:03Z</time>
      </trkpt>
      <trkpt lat="45.02299" lon="6.36943">
        <ele>1713.8</ele>
        <time>2024-08-10T12:39:04Z</time>
      </trkpt>
      <trkpt lat="45.02299" lon="6.36943">
        <ele>1714</ele>
        <time>2024-08-10T12:39:05Z</time>
      </trkpt>
      <trkpt lat="45.02299" lon="6.36943">
        <ele>1714.6</ele>
        <time>2024-08-10T12:39:06Z</time>
      </trkpt>
      <trkpt lat="45.02299" lon="6.36943">
        <ele>1715</ele>
        <time>2024-08-10T12:39:07Z</time>
      </trkpt>
      <trkpt lat="45.02299" lon="6.36943">
        <ele>1715</ele>
        <time>2024-08-10T12:39:08Z</time>
      </trkpt>
      <trkpt lat="45.02299" lon="6.36943">
        <ele>1714.8</ele>
        <time>2024-08-10T12:39:09Z</time>
      </trkpt>
      <trkpt lat="45.02299" lon="6.36943">
        <ele>1714.6</ele>
        <time>2024-08-10T12:39:10Z</time>
      </trkpt>
      <trkpt lat="45.02299" lon="6.36943">
        <ele>1714.6</ele>
        <time>2024-08-10T12:39:11Z</time>
      </trkpt>
      <trkpt lat="45.02299" lon="6.36943">
        <ele>1714.6</ele>
        <time>2024-08-10T12:39:12Z</time>
      </trkpt>
      <trkpt lat="45.02299" lon="6.36943">
        <ele>1714.4</ele>
        <time>2024-08-10T12:39:13Z</time>
      </trkpt>
      <trkpt lat="45.02299" lon="6.36943">
        <ele>1714.4</ele>
        <time>2024-08-10T12:39:14Z</time>
      </trkpt>
      <trkpt lat="45.02297" lon="6.36944">
        <ele>1714.4</ele>
        <time>2024-08-10T12:39:15Z</time>
      </trkpt>
      <trkpt lat="45.02297" lon="6.36944">
        <ele>1714.4</ele>
        <time>2024-08-10T12:39:16Z</time>
      </trkpt>
      <trkpt lat="45.02295" lon="6.36946">
        <ele>1714.4</ele>
        <time>2024-08-10T12:39:17Z</time>
      </trkpt>
      <trkpt lat="45.02295" lon="6.36946">
        <ele>1714.6</ele>
        <time>2024-08-10T12:39:18Z</time>
      </trkpt>
      <trkpt lat="45.02293" lon="6.36948">
        <ele>1714.6</ele>
        <time>2024-08-10T12:39:19Z</time>
      </trkpt>
      <trkpt lat="45.02293" lon="6.36948">
        <ele>1714.8</ele>
        <time>2024-08-10T12:39:20Z</time>
      </trkpt>
      <trkpt lat="45.0229" lon="6.3695">
        <ele>1714.8</ele>
        <time>2024-08-10T12:39:21Z</time>
      </trkpt>
      <trkpt lat="45.0229" lon="6.3695">
        <ele>1715</ele>
        <time>2024-08-10T12:39:22Z</time>
      </trkpt>
      <trkpt lat="45.02288" lon="6.36953">
        <ele>1715.4</ele>
        <time>2024-08-10T12:39:23Z</time>
      </trkpt>
      <trkpt lat="45.02288" lon="6.36953">
        <ele>1715.8</ele>
        <time>2024-08-10T12:39:24Z</time>
      </trkpt>
      <trkpt lat="45.02286" lon="6.36955">
        <ele>1716</ele>
        <time>2024-08-10T12:39:25Z</time>
      </trkpt>
      <trkpt lat="45.02286" lon="6.36955">
        <ele>1716</ele>
        <time>2024-08-10T12:39:26Z</time>
      </trkpt>
      <trkpt lat="45.02284" lon="6.36957">
        <ele>1716</ele>
        <time>2024-08-10T12:39:27Z</time>
      </trkpt>
      <trkpt lat="45.02284" lon="6.36957">
        <ele>1716</ele>
        <time>2024-08-10T12:39:28Z</time>
      </trkpt>
      <trkpt lat="45.02282" lon="6.36959">
        <ele>1716.2</ele>
        <time>2024-08-10T12:39:29Z</time>
      </trkpt>
      <trkpt lat="45.02282" lon="6.36959">
        <ele>1716.2</ele>
        <time>2024-08-10T12:39:30Z</time>
      </trkpt>
      <trkpt lat="45.02279" lon="6.36962">
        <ele>1716</ele>
        <time>2024-08-10T12:39:31Z</time>
      </trkpt>
      <trkpt lat="45.02279" lon="6.36962">
        <ele>1716</ele>
        <time>2024-08-10T12:39:32Z</time>
      </trkpt>
      <trkpt lat="45.02277" lon="6.36964">
        <ele>1715.8</ele>
        <time>2024-08-10T12:39:33Z</time>
      </trkpt>
      <trkpt lat="45.02277" lon="6.36964">
        <ele>1715.6</ele>
        <time>2024-08-10T12:39:34Z</time>
      </trkpt>
      <trkpt lat="45.02275" lon="6.36967">
        <ele>1715.6</ele>
        <time>2024-08-10T12:39:35Z</time>
      </trkpt>
      <trkpt lat="45.02275" lon="6.36967">
        <ele>1715.4</ele>
        <time>2024-08-10T12:39:36Z</time>
      </trkpt>
      <trkpt lat="45.02273" lon="6.3697">
        <ele>1715.4</ele>
        <time>2024-08-10T12:39:37Z</time>
      </trkpt>
      <trkpt lat="45.02273" lon="6.3697">
        <ele>1715</ele>
        <time>2024-08-10T12:39:38Z</time>
      </trkpt>
      <trkpt lat="45.02271" lon="6.36972">
        <ele>1715</ele>
        <time>2024-08-10T12:39:39Z</time>
      </trkpt>
      <trkpt lat="45.02271" lon="6.36972">
        <ele>1715</ele>
        <time>2024-08-10T12:39:40Z</time>
      </trkpt>
      <trkpt lat="45.02269" lon="6.36975">
        <ele>1715</ele>
        <time>2024-08-10T12:39:41Z</time>
      </trkpt>
      <trkpt lat="45.02269" lon="6.36975">
        <ele>1715</ele>
        <time>2024-08-10T12:39:42Z</time>
      </trkpt>
      <trkpt lat="45.02268" lon="6.36978">
        <ele>1715</ele>
        <time>2024-08-10T12:39:43Z</time>
      </trkpt>
      <trkpt lat="45.02268" lon="6.36978">
        <ele>1715</ele>
        <time>2024-08-10T12:39:44Z</time>
      </trkpt>
      <trkpt lat="45.02266" lon="6.36981">
        <ele>1715</ele>
        <time>2024-08-10T12:39:45Z</time>
      </trkpt>
      <trkpt lat="45.02266" lon="6.36981">
        <ele>1714.8</ele>
        <time>2024-08-10T12:39:46Z</time>
      </trkpt>
      <trkpt lat="45.02264" lon="6.36983">
        <ele>1714.4</ele>
        <time>2024-08-10T12:39:47Z</time>
      </trkpt>
      <trkpt lat="45.02264" lon="6.36983">
        <ele>1714.4</ele>
        <time>2024-08-10T12:39:48Z</time>
      </trkpt>
      <trkpt lat="45.02261" lon="6.36985">
        <ele>1714.4</ele>
        <time>2024-08-10T12:39:49Z</time>
      </trkpt>
      <trkpt lat="45.02261" lon="6.36985">
        <ele>1714.4</ele>
        <time>2024-08-10T12:39:50Z</time>
      </trkpt>
      <trkpt lat="45.0226" lon="6.36986">
        <ele>1714.2</ele>
        <time>2024-08-10T12:39:51Z</time>
      </trkpt>
      <trkpt lat="45.0226" lon="6.36986">
        <ele>1714.2</ele>
        <time>2024-08-10T12:39:52Z</time>
      </trkpt>
      <trkpt lat="45.02258" lon="6.36987">
        <ele>1714.4</ele>
        <time>2024-08-10T12:39:53Z</time>
      </trkpt>
      <trkpt lat="45.02258" lon="6.36987">
        <ele>1714.4</ele>
        <time>2024-08-10T12:39:54Z</time>
      </trkpt>
      <trkpt lat="45.02256" lon="6.36989">
        <ele>1714.6</ele>
        <time>2024-08-10T12:39:55Z</time>
      </trkpt>
      <trkpt lat="45.02256" lon="6.36989">
        <ele>1715</ele>
        <time>2024-08-10T12:39:56Z</time>
      </trkpt>
      <trkpt lat="45.02255" lon="6.3699">
        <ele>1715</ele>
        <time>2024-08-10T12:39:57Z</time>
      </trkpt>
      <trkpt lat="45.02255" lon="6.3699">
        <ele>1715.4</ele>
        <time>2024-08-10T12:39:58Z</time>
      </trkpt>
      <trkpt lat="45.02253" lon="6.36992">
        <ele>1715.4</ele>
        <time>2024-08-10T12:39:59Z</time>
      </trkpt>
      <trkpt lat="45.02253" lon="6.36992">
        <ele>1715.8</ele>
        <time>2024-08-10T12:40:00Z</time>
      </trkpt>
      <trkpt lat="45.02252" lon="6.36994">
        <ele>1716</ele>
        <time>2024-08-10T12:40:01Z</time>
      </trkpt>
      <trkpt lat="45.02252" lon="6.36994">
        <ele>1716.4</ele>
        <time>2024-08-10T12:40:02Z</time>
      </trkpt>
      <trkpt lat="45.02251" lon="6.36998">
        <ele>1717</ele>
        <time>2024-08-10T12:40:03Z</time>
      </trkpt>
      <trkpt lat="45.02251" lon="6.36998">
        <ele>1717</ele>
        <time>2024-08-10T12:40:04Z</time>
      </trkpt>
      <trkpt lat="45.02249" lon="6.37">
        <ele>1717.2</ele>
        <time>2024-08-10T12:40:05Z</time>
      </trkpt>
      <trkpt lat="45.02249" lon="6.37">
        <ele>1717.2</ele>
        <time>2024-08-10T12:40:06Z</time>
      </trkpt>
      <trkpt lat="45.02247" lon="6.36999">
        <ele>1717.2</ele>
        <time>2024-08-10T12:40:07Z</time>
      </trkpt>
      <trkpt lat="45.02247" lon="6.36999">
        <ele>1717.2</ele>
        <time>2024-08-10T12:40:08Z</time>
      </trkpt>
      <trkpt lat="45.02245" lon="6.36999">
        <ele>1717.2</ele>
        <time>2024-08-10T12:40:09Z</time>
      </trkpt>
      <trkpt lat="45.02245" lon="6.36999">
        <ele>1717.2</ele>
        <time>2024-08-10T12:40:10Z</time>
      </trkpt>
      <trkpt lat="45.02243" lon="6.37">
        <ele>1717.2</ele>
        <time>2024-08-10T12:40:11Z</time>
      </trkpt>
      <trkpt lat="45.02243" lon="6.37">
        <ele>1717.2</ele>
        <time>2024-08-10T12:40:12Z</time>
      </trkpt>
      <trkpt lat="45.0224" lon="6.37001">
        <ele>1717.4</ele>
        <time>2024-08-10T12:40:13Z</time>
      </trkpt>
      <trkpt lat="45.0224" lon="6.37001">
        <ele>1717.4</ele>
        <time>2024-08-10T12:40:14Z</time>
      </trkpt>
      <trkpt lat="45.02238" lon="6.37">
        <ele>1717.4</ele>
        <time>2024-08-10T12:40:15Z</time>
      </trkpt>
      <trkpt lat="45.02238" lon="6.37">
        <ele>1717.8</ele>
        <time>2024-08-10T12:40:16Z</time>
      </trkpt>
      <trkpt lat="45.02236" lon="6.37001">
        <ele>1718</ele>
        <time>2024-08-10T12:40:17Z</time>
      </trkpt>
      <trkpt lat="45.02236" lon="6.37001">
        <ele>1718</ele>
        <time>2024-08-10T12:40:18Z</time>
      </trkpt>
      <trkpt lat="45.02234" lon="6.37">
        <ele>1717.8</ele>
        <time>2024-08-10T12:40:19Z</time>
      </trkpt>
      <trkpt lat="45.02234" lon="6.37">
        <ele>1717.6</ele>
        <time>2024-08-10T12:40:20Z</time>
      </trkpt>
      <trkpt lat="45.02234" lon="6.37">
        <ele>1717.6</ele>
        <time>2024-08-10T12:40:21Z</time>
      </trkpt>
      <trkpt lat="45.02232" lon="6.37">
        <ele>1717.8</ele>
        <time>2024-08-10T12:40:22Z</time>
      </trkpt>
      <trkpt lat="45.02232" lon="6.37">
        <ele>1718</ele>
        <time>2024-08-10T12:40:23Z</time>
      </trkpt>
      <trkpt lat="45.0223" lon="6.37">
        <ele>1718.2</ele>
        <time>2024-08-10T12:40:24Z</time>
      </trkpt>
      <trkpt lat="45.0223" lon="6.37">
        <ele>1718.6</ele>
        <time>2024-08-10T12:40:25Z</time>
      </trkpt>
      <trkpt lat="45.0223" lon="6.37">
        <ele>1718.6</ele>
        <time>2024-08-10T12:40:26Z</time>
      </trkpt>
      <trkpt lat="45.02228" lon="6.37001">
        <ele>1718.8</ele>
        <time>2024-08-10T12:40:27Z</time>
      </trkpt>
      <trkpt lat="45.02228" lon="6.37001">
        <ele>1719</ele>
        <time>2024-08-10T12:40:28Z</time>
      </trkpt>
      <trkpt lat="45.02228" lon="6.37001">
        <ele>1719.2</ele>
        <time>2024-08-10T12:40:29Z</time>
      </trkpt>
      <trkpt lat="45.02226" lon="6.37002">
        <ele>1719.6</ele>
        <time>2024-08-10T12:40:30Z</time>
      </trkpt>
      <trkpt lat="45.02226" lon="6.37002">
        <ele>1719.6</ele>
        <time>2024-08-10T12:40:31Z</time>
      </trkpt>
      <trkpt lat="45.02226" lon="6.37002">
        <ele>1719.8</ele>
        <time>2024-08-10T12:40:32Z</time>
      </trkpt>
      <trkpt lat="45.02223" lon="6.37002">
        <ele>1720</ele>
        <time>2024-08-10T12:40:33Z</time>
      </trkpt>
      <trkpt lat="45.02223" lon="6.37002">
        <ele>1720.2</ele>
        <time>2024-08-10T12:40:34Z</time>
      </trkpt>
      <trkpt lat="45.02223" lon="6.37002">
        <ele>1720.2</ele>
        <time>2024-08-10T12:40:35Z</time>
      </trkpt>
      <trkpt lat="45.02221" lon="6.37003">
        <ele>1720.4</ele>
        <time>2024-08-10T12:40:36Z</time>
      </trkpt>
      <trkpt lat="45.02221" lon="6.37003">
        <ele>1721</ele>
        <time>2024-08-10T12:40:37Z</time>
      </trkpt>
      <trkpt lat="45.02221" lon="6.37003">
        <ele>1721</ele>
        <time>2024-08-10T12:40:38Z</time>
      </trkpt>
      <trkpt lat="45.02219" lon="6.37006">
        <ele>1721.2</ele>
        <time>2024-08-10T12:40:39Z</time>
      </trkpt>
      <trkpt lat="45.02219" lon="6.37006">
        <ele>1721.4</ele>
        <time>2024-08-10T12:40:40Z</time>
      </trkpt>
      <trkpt lat="45.02217" lon="6.37007">
        <ele>1721.8</ele>
        <time>2024-08-10T12:40:41Z</time>
      </trkpt>
      <trkpt lat="45.02217" lon="6.37007">
        <ele>1721.8</ele>
        <time>2024-08-10T12:40:42Z</time>
      </trkpt>
      <trkpt lat="45.02215" lon="6.37009">
        <ele>1721.8</ele>
        <time>2024-08-10T12:40:43Z</time>
      </trkpt>
      <trkpt lat="45.02215" lon="6.37009">
        <ele>1722</ele>
        <time>2024-08-10T12:40:44Z</time>
      </trkpt>
      <trkpt lat="45.02213" lon="6.37009">
        <ele>1722.2</ele>
        <time>2024-08-10T12:40:45Z</time>
      </trkpt>
      <trkpt lat="45.02213" lon="6.37009">
        <ele>1722.6</ele>
        <time>2024-08-10T12:40:46Z</time>
      </trkpt>
      <trkpt lat="45.02211" lon="6.37009">
        <ele>1722.8</ele>
        <time>2024-08-10T12:40:47Z</time>
      </trkpt>
      <trkpt lat="45.02211" lon="6.37009">
        <ele>1722.8</ele>
        <time>2024-08-10T12:40:48Z</time>
      </trkpt>
      <trkpt lat="45.02208" lon="6.37008">
        <ele>1722.8</ele>
        <time>2024-08-10T12:40:49Z</time>
      </trkpt>
      <trkpt lat="45.02208" lon="6.37008">
        <ele>1723</ele>
        <time>2024-08-10T12:40:50Z</time>
      </trkpt>
      <trkpt lat="45.02206" lon="6.37006">
        <ele>1723</ele>
        <time>2024-08-10T12:40:51Z</time>
      </trkpt>
      <trkpt lat="45.02206" lon="6.37006">
        <ele>1723.2</ele>
        <time>2024-08-10T12:40:52Z</time>
      </trkpt>
      <trkpt lat="45.02204" lon="6.37006">
        <ele>1723.2</ele>
        <time>2024-08-10T12:40:53Z</time>
      </trkpt>
      <trkpt lat="45.02204" lon="6.37006">
        <ele>1723.4</ele>
        <time>2024-08-10T12:40:54Z</time>
      </trkpt>
      <trkpt lat="45.02201" lon="6.37006">
        <ele>1723.4</ele>
        <time>2024-08-10T12:40:55Z</time>
      </trkpt>
      <trkpt lat="45.02201" lon="6.37006">
        <ele>1723.4</ele>
        <time>2024-08-10T12:40:56Z</time>
      </trkpt>
      <trkpt lat="45.02199" lon="6.37007">
        <ele>1723.4</ele>
        <time>2024-08-10T12:40:57Z</time>
      </trkpt>
      <trkpt lat="45.02199" lon="6.37007">
        <ele>1723.4</ele>
        <time>2024-08-10T12:40:58Z</time>
      </trkpt>
      <trkpt lat="45.02197" lon="6.37008">
        <ele>1723.6</ele>
        <time>2024-08-10T12:40:59Z</time>
      </trkpt>
      <trkpt lat="45.02197" lon="6.37008">
        <ele>1724</ele>
        <time>2024-08-10T12:41:00Z</time>
      </trkpt>
      <trkpt lat="45.02195" lon="6.37009">
        <ele>1724.2</ele>
        <time>2024-08-10T12:41:01Z</time>
      </trkpt>
      <trkpt lat="45.02195" lon="6.37009">
        <ele>1724.6</ele>
        <time>2024-08-10T12:41:02Z</time>
      </trkpt>
      <trkpt lat="45.02192" lon="6.37009">
        <ele>1725.4</ele>
        <time>2024-08-10T12:41:03Z</time>
      </trkpt>
      <trkpt lat="45.02192" lon="6.37009">
        <ele>1725.4</ele>
        <time>2024-08-10T12:41:04Z</time>
      </trkpt>
      <trkpt lat="45.0219" lon="6.3701">
        <ele>1725.8</ele>
        <time>2024-08-10T12:41:05Z</time>
      </trkpt>
      <trkpt lat="45.0219" lon="6.3701">
        <ele>1726</ele>
        <time>2024-08-10T12:41:06Z</time>
      </trkpt>
      <trkpt lat="45.02187" lon="6.37012">
        <ele>1726.2</ele>
        <time>2024-08-10T12:41:07Z</time>
      </trkpt>
      <trkpt lat="45.02187" lon="6.37012">
        <ele>1726.2</ele>
        <time>2024-08-10T12:41:08Z</time>
      </trkpt>
      <trkpt lat="45.02185" lon="6.37014">
        <ele>1726.4</ele>
        <time>2024-08-10T12:41:09Z</time>
      </trkpt>
      <trkpt lat="45.02185" lon="6.37014">
        <ele>1726.4</ele>
        <time>2024-08-10T12:41:10Z</time>
      </trkpt>
      <trkpt lat="45.02183" lon="6.37017">
        <ele>1726.4</ele>
        <time>2024-08-10T12:41:11Z</time>
      </trkpt>
      <trkpt lat="45.02183" lon="6.37017">
        <ele>1726.6</ele>
        <time>2024-08-10T12:41:12Z</time>
      </trkpt>
      <trkpt lat="45.02181" lon="6.37019">
        <ele>1726.8</ele>
        <time>2024-08-10T12:41:13Z</time>
      </trkpt>
      <trkpt lat="45.02181" lon="6.37019">
        <ele>1726.8</ele>
        <time>2024-08-10T12:41:14Z</time>
      </trkpt>
      <trkpt lat="45.0218" lon="6.37022">
        <ele>1726.8</ele>
        <time>2024-08-10T12:41:15Z</time>
      </trkpt>
      <trkpt lat="45.0218" lon="6.37022">
        <ele>1727</ele>
        <time>2024-08-10T12:41:16Z</time>
      </trkpt>
      <trkpt lat="45.02178" lon="6.37025">
        <ele>1727</ele>
        <time>2024-08-10T12:41:17Z</time>
      </trkpt>
      <trkpt lat="45.02178" lon="6.37025">
        <ele>1727</ele>
        <time>2024-08-10T12:41:18Z</time>
      </trkpt>
      <trkpt lat="45.02177" lon="6.37028">
        <ele>1727</ele>
        <time>2024-08-10T12:41:19Z</time>
      </trkpt>
      <trkpt lat="45.02177" lon="6.37028">
        <ele>1727</ele>
        <time>2024-08-10T12:41:20Z</time>
      </trkpt>
      <trkpt lat="45.02176" lon="6.37031">
        <ele>1727</ele>
        <time>2024-08-10T12:41:21Z</time>
      </trkpt>
      <trkpt lat="45.02176" lon="6.37031">
        <ele>1727</ele>
        <time>2024-08-10T12:41:22Z</time>
      </trkpt>
      <trkpt lat="45.02174" lon="6.37033">
        <ele>1727</ele>
        <time>2024-08-10T12:41:23Z</time>
      </trkpt>
      <trkpt lat="45.02174" lon="6.37033">
        <ele>1727.2</ele>
        <time>2024-08-10T12:41:24Z</time>
      </trkpt>
      <trkpt lat="45.02174" lon="6.37033">
        <ele>1727.4</ele>
        <time>2024-08-10T12:41:25Z</time>
      </trkpt>
      <trkpt lat="45.02173" lon="6.37036">
        <ele>1727.4</ele>
        <time>2024-08-10T12:41:26Z</time>
      </trkpt>
      <trkpt lat="45.02173" lon="6.37036">
        <ele>1727.4</ele>
        <time>2024-08-10T12:41:27Z</time>
      </trkpt>
      <trkpt lat="45.02171" lon="6.37038">
        <ele>1727.2</ele>
        <time>2024-08-10T12:41:28Z</time>
      </trkpt>
      <trkpt lat="45.02171" lon="6.37038">
        <ele>1727.2</ele>
        <time>2024-08-10T12:41:29Z</time>
      </trkpt>
      <trkpt lat="45.02168" lon="6.37039">
        <ele>1727.2</ele>
        <time>2024-08-10T12:41:30Z</time>
      </trkpt>
      <trkpt lat="45.02168" lon="6.37039">
        <ele>1726.8</ele>
        <time>2024-08-10T12:41:31Z</time>
      </trkpt>
      <trkpt lat="45.02166" lon="6.37038">
        <ele>1726.2</ele>
        <time>2024-08-10T12:41:32Z</time>
      </trkpt>
      <trkpt lat="45.02166" lon="6.37038">
        <ele>1725.8</ele>
        <time>2024-08-10T12:41:33Z</time>
      </trkpt>
      <trkpt lat="45.02166" lon="6.37038">
        <ele>1725.4</ele>
        <time>2024-08-10T12:41:34Z</time>
      </trkpt>
      <trkpt lat="45.02163" lon="6.37039">
        <ele>1725.4</ele>
        <time>2024-08-10T12:41:35Z</time>
      </trkpt>
      <trkpt lat="45.02163" lon="6.37039">
        <ele>1725.2</ele>
        <time>2024-08-10T12:41:36Z</time>
      </trkpt>
      <trkpt lat="45.02161" lon="6.37039">
        <ele>1725</ele>
        <time>2024-08-10T12:41:37Z</time>
      </trkpt>
      <trkpt lat="45.02161" lon="6.37039">
        <ele>1725</ele>
        <time>2024-08-10T12:41:38Z</time>
      </trkpt>
      <trkpt lat="45.02159" lon="6.37041">
        <ele>1724.8</ele>
        <time>2024-08-10T12:41:39Z</time>
      </trkpt>
      <trkpt lat="45.02159" lon="6.37041">
        <ele>1724.8</ele>
        <time>2024-08-10T12:41:40Z</time>
      </trkpt>
      <trkpt lat="45.02156" lon="6.37044">
        <ele>1724.6</ele>
        <time>2024-08-10T12:41:41Z</time>
      </trkpt>
      <trkpt lat="45.02156" lon="6.37044">
        <ele>1724.4</ele>
        <time>2024-08-10T12:41:42Z</time>
      </trkpt>
      <trkpt lat="45.02155" lon="6.37046">
        <ele>1724.4</ele>
        <time>2024-08-10T12:41:43Z</time>
      </trkpt>
      <trkpt lat="45.02155" lon="6.37046">
        <ele>1724.4</ele>
        <time>2024-08-10T12:41:44Z</time>
      </trkpt>
      <trkpt lat="45.02153" lon="6.37049">
        <ele>1724.6</ele>
        <time>2024-08-10T12:41:45Z</time>
      </trkpt>
      <trkpt lat="45.02153" lon="6.37049">
        <ele>1724.6</ele>
        <time>2024-08-10T12:41:46Z</time>
      </trkpt>
      <trkpt lat="45.02152" lon="6.37052">
        <ele>1724.8</ele>
        <time>2024-08-10T12:41:47Z</time>
      </trkpt>
      <trkpt lat="45.02152" lon="6.37052">
        <ele>1725</ele>
        <time>2024-08-10T12:41:48Z</time>
      </trkpt>
      <trkpt lat="45.0215" lon="6.37054">
        <ele>1725</ele>
        <time>2024-08-10T12:41:49Z</time>
      </trkpt>
      <trkpt lat="45.0215" lon="6.37054">
        <ele>1725.2</ele>
        <time>2024-08-10T12:41:50Z</time>
      </trkpt>
      <trkpt lat="45.02149" lon="6.37056">
        <ele>1725.4</ele>
        <time>2024-08-10T12:41:51Z</time>
      </trkpt>
      <trkpt lat="45.02149" lon="6.37056">
        <ele>1725.6</ele>
        <time>2024-08-10T12:41:52Z</time>
      </trkpt>
      <trkpt lat="45.02147" lon="6.37058">
        <ele>1725.8</ele>
        <time>2024-08-10T12:41:53Z</time>
      </trkpt>
      <trkpt lat="45.02147" lon="6.37058">
        <ele>1726</ele>
        <time>2024-08-10T12:41:54Z</time>
      </trkpt>
      <trkpt lat="45.02144" lon="6.3706">
        <ele>1726.4</ele>
        <time>2024-08-10T12:41:55Z</time>
      </trkpt>
      <trkpt lat="45.02144" lon="6.3706">
        <ele>1726.6</ele>
        <time>2024-08-10T12:41:56Z</time>
      </trkpt>
      <trkpt lat="45.02144" lon="6.3706">
        <ele>1726.6</ele>
        <time>2024-08-10T12:41:57Z</time>
      </trkpt>
      <trkpt lat="45.02143" lon="6.37063">
        <ele>1726.8</ele>
        <time>2024-08-10T12:41:58Z</time>
      </trkpt>
      <trkpt lat="45.02143" lon="6.37063">
        <ele>1726.8</ele>
        <time>2024-08-10T12:41:59Z</time>
      </trkpt>
      <trkpt lat="45.02143" lon="6.37063">
        <ele>1726.4</ele>
        <time>2024-08-10T12:42:00Z</time>
      </trkpt>
      <trkpt lat="45.02141" lon="6.37066">
        <ele>1726.4</ele>
        <time>2024-08-10T12:42:01Z</time>
      </trkpt>
      <trkpt lat="45.02141" lon="6.37066">
        <ele>1727.2</ele>
        <time>2024-08-10T12:42:02Z</time>
      </trkpt>
      <trkpt lat="45.02141" lon="6.37066">
        <ele>1727.2</ele>
        <time>2024-08-10T12:42:03Z</time>
      </trkpt>
      <trkpt lat="45.0214" lon="6.3707">
        <ele>1727.2</ele>
        <time>2024-08-10T12:42:04Z</time>
      </trkpt>
      <trkpt lat="45.0214" lon="6.3707">
        <ele>1727.2</ele>
        <time>2024-08-10T12:42:05Z</time>
      </trkpt>
      <trkpt lat="45.02139" lon="6.37073">
        <ele>1727.2</ele>
        <time>2024-08-10T12:42:06Z</time>
      </trkpt>
      <trkpt lat="45.02139" lon="6.37073">
        <ele>1727.2</ele>
        <time>2024-08-10T12:42:07Z</time>
      </trkpt>
      <trkpt lat="45.02139" lon="6.37077">
        <ele>1727.2</ele>
        <time>2024-08-10T12:42:08Z</time>
      </trkpt>
      <trkpt lat="45.02139" lon="6.37077">
        <ele>1727.2</ele>
        <time>2024-08-10T12:42:09Z</time>
      </trkpt>
      <trkpt lat="45.02138" lon="6.37081">
        <ele>1727.2</ele>
        <time>2024-08-10T12:42:10Z</time>
      </trkpt>
      <trkpt lat="45.02138" lon="6.37081">
        <ele>1727.4</ele>
        <time>2024-08-10T12:42:11Z</time>
      </trkpt>
      <trkpt lat="45.02136" lon="6.37084">
        <ele>1727.4</ele>
        <time>2024-08-10T12:42:12Z</time>
      </trkpt>
      <trkpt lat="45.02136" lon="6.37084">
        <ele>1727.4</ele>
        <time>2024-08-10T12:42:13Z</time>
      </trkpt>
      <trkpt lat="45.02134" lon="6.37086">
        <ele>1727.4</ele>
        <time>2024-08-10T12:42:14Z</time>
      </trkpt>
      <trkpt lat="45.02134" lon="6.37086">
        <ele>1727.4</ele>
        <time>2024-08-10T12:42:15Z</time>
      </trkpt>
      <trkpt lat="45.02132" lon="6.37089">
        <ele>1727.2</ele>
        <time>2024-08-10T12:42:16Z</time>
      </trkpt>
      <trkpt lat="45.02132" lon="6.37089">
        <ele>1727.2</ele>
        <time>2024-08-10T12:42:17Z</time>
      </trkpt>
      <trkpt lat="45.0213" lon="6.37091">
        <ele>1727</ele>
        <time>2024-08-10T12:42:18Z</time>
      </trkpt>
      <trkpt lat="45.0213" lon="6.37091">
        <ele>1727</ele>
        <time>2024-08-10T12:42:19Z</time>
      </trkpt>
      <trkpt lat="45.02128" lon="6.37093">
        <ele>1727</ele>
        <time>2024-08-10T12:42:20Z</time>
      </trkpt>
      <trkpt lat="45.02128" lon="6.37093">
        <ele>1727</ele>
        <time>2024-08-10T12:42:21Z</time>
      </trkpt>
      <trkpt lat="45.02128" lon="6.37093">
        <ele>1727</ele>
        <time>2024-08-10T12:42:22Z</time>
      </trkpt>
      <trkpt lat="45.02126" lon="6.37096">
        <ele>1726.6</ele>
        <time>2024-08-10T12:42:23Z</time>
      </trkpt>
      <trkpt lat="45.02126" lon="6.37096">
        <ele>1726.6</ele>
        <time>2024-08-10T12:42:24Z</time>
      </trkpt>
      <trkpt lat="45.02124" lon="6.37098">
        <ele>1726.6</ele>
        <time>2024-08-10T12:42:25Z</time>
      </trkpt>
      <trkpt lat="45.02124" lon="6.37098">
        <ele>1726.6</ele>
        <time>2024-08-10T12:42:26Z</time>
      </trkpt>
      <trkpt lat="45.02122" lon="6.37099">
        <ele>1726.2</ele>
        <time>2024-08-10T12:42:27Z</time>
      </trkpt>
      <trkpt lat="45.02122" lon="6.37099">
        <ele>1726.2</ele>
        <time>2024-08-10T12:42:28Z</time>
      </trkpt>
      <trkpt lat="45.0212" lon="6.37102">
        <ele>1726.4</ele>
        <time>2024-08-10T12:42:29Z</time>
      </trkpt>
      <trkpt lat="45.0212" lon="6.37102">
        <ele>1726.4</ele>
        <time>2024-08-10T12:42:30Z</time>
      </trkpt>
      <trkpt lat="45.02117" lon="6.37104">
        <ele>1726.6</ele>
        <time>2024-08-10T12:42:31Z</time>
      </trkpt>
      <trkpt lat="45.02117" lon="6.37104">
        <ele>1726.6</ele>
        <time>2024-08-10T12:42:32Z</time>
      </trkpt>
      <trkpt lat="45.02116" lon="6.37106">
        <ele>1726.6</ele>
        <time>2024-08-10T12:42:33Z</time>
      </trkpt>
      <trkpt lat="45.02116" lon="6.37106">
        <ele>1726.6</ele>
        <time>2024-08-10T12:42:34Z</time>
      </trkpt>
      <trkpt lat="45.02113" lon="6.37107">
        <ele>1726.6</ele>
        <time>2024-08-10T12:42:35Z</time>
      </trkpt>
      <trkpt lat="45.02113" lon="6.37107">
        <ele>1726.4</ele>
        <time>2024-08-10T12:42:36Z</time>
      </trkpt>
      <trkpt lat="45.0211" lon="6.37107">
        <ele>1726.4</ele>
        <time>2024-08-10T12:42:37Z</time>
      </trkpt>
      <trkpt lat="45.0211" lon="6.37107">
        <ele>1726.6</ele>
        <time>2024-08-10T12:42:38Z</time>
      </trkpt>
      <trkpt lat="45.02108" lon="6.37106">
        <ele>1726.6</ele>
        <time>2024-08-10T12:42:39Z</time>
      </trkpt>
      <trkpt lat="45.02108" lon="6.37106">
        <ele>1726.6</ele>
        <time>2024-08-10T12:42:40Z</time>
      </trkpt>
      <trkpt lat="45.02105" lon="6.37105">
        <ele>1726.6</ele>
        <time>2024-08-10T12:42:41Z</time>
      </trkpt>
      <trkpt lat="45.02105" lon="6.37105">
        <ele>1726.8</ele>
        <time>2024-08-10T12:42:42Z</time>
      </trkpt>
      <trkpt lat="45.02103" lon="6.37105">
        <ele>1726.8</ele>
        <time>2024-08-10T12:42:43Z</time>
      </trkpt>
      <trkpt lat="45.02103" lon="6.37105">
        <ele>1726.8</ele>
        <time>2024-08-10T12:42:44Z</time>
      </trkpt>
      <trkpt lat="45.02101" lon="6.37104">
        <ele>1726.4</ele>
        <time>2024-08-10T12:42:45Z</time>
      </trkpt>
      <trkpt lat="45.02101" lon="6.37104">
        <ele>1726.2</ele>
        <time>2024-08-10T12:42:46Z</time>
      </trkpt>
      <trkpt lat="45.02099" lon="6.37104">
        <ele>1726.2</ele>
        <time>2024-08-10T12:42:47Z</time>
      </trkpt>
      <trkpt lat="45.02099" lon="6.37104">
        <ele>1726</ele>
        <time>2024-08-10T12:42:48Z</time>
      </trkpt>
      <trkpt lat="45.02097" lon="6.37102">
        <ele>1725.8</ele>
        <time>2024-08-10T12:42:49Z</time>
      </trkpt>
      <trkpt lat="45.02097" lon="6.37102">
        <ele>1725.8</ele>
        <time>2024-08-10T12:42:50Z</time>
      </trkpt>
      <trkpt lat="45.02094" lon="6.37101">
        <ele>1725.4</ele>
        <time>2024-08-10T12:42:51Z</time>
      </trkpt>
      <trkpt lat="45.02094" lon="6.37101">
        <ele>1725</ele>
        <time>2024-08-10T12:42:52Z</time>
      </trkpt>
      <trkpt lat="45.02091" lon="6.371">
        <ele>1724.8</ele>
        <time>2024-08-10T12:42:53Z</time>
      </trkpt>
      <trkpt lat="45.02091" lon="6.371">
        <ele>1724.6</ele>
        <time>2024-08-10T12:42:54Z</time>
      </trkpt>
      <trkpt lat="45.02088" lon="6.371">
        <ele>1724.4</ele>
        <time>2024-08-10T12:42:55Z</time>
      </trkpt>
      <trkpt lat="45.02088" lon="6.371">
        <ele>1724.2</ele>
        <time>2024-08-10T12:42:56Z</time>
      </trkpt>
      <trkpt lat="45.02085" lon="6.37101">
        <ele>1724.2</ele>
        <time>2024-08-10T12:42:57Z</time>
      </trkpt>
      <trkpt lat="45.02085" lon="6.37101">
        <ele>1723.8</ele>
        <time>2024-08-10T12:42:58Z</time>
      </trkpt>
      <trkpt lat="45.02083" lon="6.37102">
        <ele>1723.8</ele>
        <time>2024-08-10T12:42:59Z</time>
      </trkpt>
      <trkpt lat="45.02083" lon="6.37102">
        <ele>1723.8</ele>
        <time>2024-08-10T12:43:00Z</time>
      </trkpt>
      <trkpt lat="45.02081" lon="6.37104">
        <ele>1724</ele>
        <time>2024-08-10T12:43:01Z</time>
      </trkpt>
      <trkpt lat="45.02081" lon="6.37104">
        <ele>1724</ele>
        <time>2024-08-10T12:43:02Z</time>
      </trkpt>
      <trkpt lat="45.0208" lon="6.37106">
        <ele>1724.6</ele>
        <time>2024-08-10T12:43:03Z</time>
      </trkpt>
      <trkpt lat="45.0208" lon="6.37106">
        <ele>1724.6</ele>
        <time>2024-08-10T12:43:04Z</time>
      </trkpt>
      <trkpt lat="45.0208" lon="6.37106">
        <ele>1724.8</ele>
        <time>2024-08-10T12:43:05Z</time>
      </trkpt>
      <trkpt lat="45.02079" lon="6.37109">
        <ele>1724.8</ele>
        <time>2024-08-10T12:43:06Z</time>
      </trkpt>
      <trkpt lat="45.02079" lon="6.37109">
        <ele>1725</ele>
        <time>2024-08-10T12:43:07Z</time>
      </trkpt>
      <trkpt lat="45.02077" lon="6.37111">
        <ele>1725.2</ele>
        <time>2024-08-10T12:43:08Z</time>
      </trkpt>
      <trkpt lat="45.02077" lon="6.37111">
        <ele>1725.4</ele>
        <time>2024-08-10T12:43:09Z</time>
      </trkpt>
      <trkpt lat="45.02076" lon="6.37113">
        <ele>1725.8</ele>
        <time>2024-08-10T12:43:10Z</time>
      </trkpt>
      <trkpt lat="45.02076" lon="6.37113">
        <ele>1725.8</ele>
        <time>2024-08-10T12:43:11Z</time>
      </trkpt>
      <trkpt lat="45.02073" lon="6.37114">
        <ele>1725.8</ele>
        <time>2024-08-10T12:43:12Z</time>
      </trkpt>
      <trkpt lat="45.02073" lon="6.37114">
        <ele>1725.8</ele>
        <time>2024-08-10T12:43:13Z</time>
      </trkpt>
      <trkpt lat="45.02071" lon="6.37116">
        <ele>1726</ele>
        <time>2024-08-10T12:43:14Z</time>
      </trkpt>
      <trkpt lat="45.02071" lon="6.37116">
        <ele>1726</ele>
        <time>2024-08-10T12:43:15Z</time>
      </trkpt>
      <trkpt lat="45.02069" lon="6.37117">
        <ele>1726</ele>
        <time>2024-08-10T12:43:16Z</time>
      </trkpt>
      <trkpt lat="45.02069" lon="6.37117">
        <ele>1726</ele>
        <time>2024-08-10T12:43:17Z</time>
      </trkpt>
      <trkpt lat="45.02067" lon="6.37119">
        <ele>1726</ele>
        <time>2024-08-10T12:43:18Z</time>
      </trkpt>
      <trkpt lat="45.02067" lon="6.37119">
        <ele>1726.2</ele>
        <time>2024-08-10T12:43:19Z</time>
      </trkpt>
      <trkpt lat="45.02064" lon="6.3712">
        <ele>1726.2</ele>
        <time>2024-08-10T12:43:20Z</time>
      </trkpt>
      <trkpt lat="45.02064" lon="6.3712">
        <ele>1726.4</ele>
        <time>2024-08-10T12:43:21Z</time>
      </trkpt>
      <trkpt lat="45.02062" lon="6.37123">
        <ele>1726.4</ele>
        <time>2024-08-10T12:43:22Z</time>
      </trkpt>
      <trkpt lat="45.02062" lon="6.37123">
        <ele>1726.4</ele>
        <time>2024-08-10T12:43:23Z</time>
      </trkpt>
      <trkpt lat="45.0206" lon="6.37125">
        <ele>1726.4</ele>
        <time>2024-08-10T12:43:24Z</time>
      </trkpt>
      <trkpt lat="45.0206" lon="6.37125">
        <ele>1726.4</ele>
        <time>2024-08-10T12:43:25Z</time>
      </trkpt>
      <trkpt lat="45.02058" lon="6.37128">
        <ele>1726.6</ele>
        <time>2024-08-10T12:43:26Z</time>
      </trkpt>
      <trkpt lat="45.02058" lon="6.37128">
        <ele>1726.6</ele>
        <time>2024-08-10T12:43:27Z</time>
      </trkpt>
      <trkpt lat="45.02056" lon="6.3713">
        <ele>1726.6</ele>
        <time>2024-08-10T12:43:28Z</time>
      </trkpt>
      <trkpt lat="45.02056" lon="6.3713">
        <ele>1727</ele>
        <time>2024-08-10T12:43:29Z</time>
      </trkpt>
      <trkpt lat="45.02054" lon="6.37133">
        <ele>1727</ele>
        <time>2024-08-10T12:43:30Z</time>
      </trkpt>
      <trkpt lat="45.02054" lon="6.37133">
        <ele>1727</ele>
        <time>2024-08-10T12:43:31Z</time>
      </trkpt>
      <trkpt lat="45.02052" lon="6.37136">
        <ele>1726.6</ele>
        <time>2024-08-10T12:43:32Z</time>
      </trkpt>
      <trkpt lat="45.02052" lon="6.37136">
        <ele>1726.6</ele>
        <time>2024-08-10T12:43:33Z</time>
      </trkpt>
      <trkpt lat="45.0205" lon="6.37138">
        <ele>1726.4</ele>
        <time>2024-08-10T12:43:34Z</time>
      </trkpt>
      <trkpt lat="45.0205" lon="6.37138">
        <ele>1726.2</ele>
        <time>2024-08-10T12:43:35Z</time>
      </trkpt>
      <trkpt lat="45.02047" lon="6.3714">
        <ele>1726</ele>
        <time>2024-08-10T12:43:36Z</time>
      </trkpt>
      <trkpt lat="45.02047" lon="6.3714">
        <ele>1725.8</ele>
        <time>2024-08-10T12:43:37Z</time>
      </trkpt>
      <trkpt lat="45.02045" lon="6.37142">
        <ele>1725.4</ele>
        <time>2024-08-10T12:43:38Z</time>
      </trkpt>
      <trkpt lat="45.02045" lon="6.37142">
        <ele>1725.4</ele>
        <time>2024-08-10T12:43:39Z</time>
      </trkpt>
      <trkpt lat="45.02042" lon="6.37144">
        <ele>1725.2</ele>
        <time>2024-08-10T12:43:40Z</time>
      </trkpt>
      <trkpt lat="45.02042" lon="6.37144">
        <ele>1725</ele>
        <time>2024-08-10T12:43:41Z</time>
      </trkpt>
      <trkpt lat="45.0204" lon="6.37146">
        <ele>1725</ele>
        <time>2024-08-10T12:43:42Z</time>
      </trkpt>
      <trkpt lat="45.0204" lon="6.37146">
        <ele>1725</ele>
        <time>2024-08-10T12:43:43Z</time>
      </trkpt>
      <trkpt lat="45.02038" lon="6.37148">
        <ele>1725</ele>
        <time>2024-08-10T12:43:44Z</time>
      </trkpt>
      <trkpt lat="45.02038" lon="6.37148">
        <ele>1725</ele>
        <time>2024-08-10T12:43:45Z</time>
      </trkpt>
      <trkpt lat="45.02035" lon="6.3715">
        <ele>1724.8</ele>
        <time>2024-08-10T12:43:46Z</time>
      </trkpt>
      <trkpt lat="45.02035" lon="6.3715">
        <ele>1724.4</ele>
        <time>2024-08-10T12:43:47Z</time>
      </trkpt>
      <trkpt lat="45.02032" lon="6.37152">
        <ele>1724.2</ele>
        <time>2024-08-10T12:43:48Z</time>
      </trkpt>
      <trkpt lat="45.02032" lon="6.37152">
        <ele>1724.2</ele>
        <time>2024-08-10T12:43:49Z</time>
      </trkpt>
      <trkpt lat="45.0203" lon="6.37153">
        <ele>1724</ele>
        <time>2024-08-10T12:43:50Z</time>
      </trkpt>
      <trkpt lat="45.0203" lon="6.37153">
        <ele>1723.8</ele>
        <time>2024-08-10T12:43:51Z</time>
      </trkpt>
      <trkpt lat="45.02028" lon="6.37154">
        <ele>1723.8</ele>
        <time>2024-08-10T12:43:52Z</time>
      </trkpt>
      <trkpt lat="45.02028" lon="6.37154">
        <ele>1724</ele>
        <time>2024-08-10T12:43:53Z</time>
      </trkpt>
      <trkpt lat="45.02025" lon="6.37154">
        <ele>1724</ele>
        <time>2024-08-10T12:43:54Z</time>
      </trkpt>
      <trkpt lat="45.02025" lon="6.37154">
        <ele>1723.8</ele>
        <time>2024-08-10T12:43:55Z</time>
      </trkpt>
      <trkpt lat="45.02022" lon="6.37153">
        <ele>1723.8</ele>
        <time>2024-08-10T12:43:56Z</time>
      </trkpt>
      <trkpt lat="45.02022" lon="6.37153">
        <ele>1723.6</ele>
        <time>2024-08-10T12:43:57Z</time>
      </trkpt>
      <trkpt lat="45.0202" lon="6.37153">
        <ele>1723.6</ele>
        <time>2024-08-10T12:43:58Z</time>
      </trkpt>
      <trkpt lat="45.0202" lon="6.37153">
        <ele>1723.6</ele>
        <time>2024-08-10T12:43:59Z</time>
      </trkpt>
      <trkpt lat="45.02017" lon="6.37152">
        <ele>1723.6</ele>
        <time>2024-08-10T12:44:00Z</time>
      </trkpt>
      <trkpt lat="45.02017" lon="6.37152">
        <ele>1723.6</ele>
        <time>2024-08-10T12:44:01Z</time>
      </trkpt>
      <trkpt lat="45.02015" lon="6.37153">
        <ele>1723.6</ele>
        <time>2024-08-10T12:44:02Z</time>
      </trkpt>
      <trkpt lat="45.02015" lon="6.37153">
        <ele>1723.6</ele>
        <time>2024-08-10T12:44:03Z</time>
      </trkpt>
      <trkpt lat="45.02012" lon="6.37153">
        <ele>1723.6</ele>
        <time>2024-08-10T12:44:04Z</time>
      </trkpt>
      <trkpt lat="45.02012" lon="6.37153">
        <ele>1723.8</ele>
        <time>2024-08-10T12:44:05Z</time>
      </trkpt>
      <trkpt lat="45.0201" lon="6.37153">
        <ele>1723.8</ele>
        <time>2024-08-10T12:44:06Z</time>
      </trkpt>
      <trkpt lat="45.0201" lon="6.37153">
        <ele>1724</ele>
        <time>2024-08-10T12:44:07Z</time>
      </trkpt>
      <trkpt lat="45.02007" lon="6.37154">
        <ele>1724.2</ele>
        <time>2024-08-10T12:44:08Z</time>
      </trkpt>
      <trkpt lat="45.02007" lon="6.37154">
        <ele>1724.2</ele>
        <time>2024-08-10T12:44:09Z</time>
      </trkpt>
      <trkpt lat="45.02005" lon="6.37155">
        <ele>1724.4</ele>
        <time>2024-08-10T12:44:10Z</time>
      </trkpt>
      <trkpt lat="45.02005" lon="6.37155">
        <ele>1724.4</ele>
        <time>2024-08-10T12:44:11Z</time>
      </trkpt>
      <trkpt lat="45.02003" lon="6.37156">
        <ele>1724.4</ele>
        <time>2024-08-10T12:44:12Z</time>
      </trkpt>
      <trkpt lat="45.02003" lon="6.37156">
        <ele>1724.8</ele>
        <time>2024-08-10T12:44:13Z</time>
      </trkpt>
      <trkpt lat="45.02" lon="6.37157">
        <ele>1724.8</ele>
        <time>2024-08-10T12:44:14Z</time>
      </trkpt>
      <trkpt lat="45.02" lon="6.37157">
        <ele>1725</ele>
        <time>2024-08-10T12:44:15Z</time>
      </trkpt>
      <trkpt lat="45.01998" lon="6.37158">
        <ele>1725.2</ele>
        <time>2024-08-10T12:44:16Z</time>
      </trkpt>
      <trkpt lat="45.01998" lon="6.37158">
        <ele>1725.2</ele>
        <time>2024-08-10T12:44:17Z</time>
      </trkpt>
      <trkpt lat="45.01996" lon="6.37158">
        <ele>1725.4</ele>
        <time>2024-08-10T12:44:18Z</time>
      </trkpt>
      <trkpt lat="45.01996" lon="6.37158">
        <ele>1725.6</ele>
        <time>2024-08-10T12:44:19Z</time>
      </trkpt>
      <trkpt lat="45.01994" lon="6.37159">
        <ele>1725.8</ele>
        <time>2024-08-10T12:44:20Z</time>
      </trkpt>
      <trkpt lat="45.01994" lon="6.37159">
        <ele>1726</ele>
        <time>2024-08-10T12:44:21Z</time>
      </trkpt>
      <trkpt lat="45.01991" lon="6.3716">
        <ele>1726</ele>
        <time>2024-08-10T12:44:22Z</time>
      </trkpt>
      <trkpt lat="45.01991" lon="6.3716">
        <ele>1726</ele>
        <time>2024-08-10T12:44:23Z</time>
      </trkpt>
      <trkpt lat="45.01989" lon="6.3716">
        <ele>1726.4</ele>
        <time>2024-08-10T12:44:24Z</time>
      </trkpt>
      <trkpt lat="45.01989" lon="6.3716">
        <ele>1726.8</ele>
        <time>2024-08-10T12:44:25Z</time>
      </trkpt>
      <trkpt lat="45.01987" lon="6.3716">
        <ele>1726.8</ele>
        <time>2024-08-10T12:44:26Z</time>
      </trkpt>
      <trkpt lat="45.01987" lon="6.3716">
        <ele>1726.8</ele>
        <time>2024-08-10T12:44:27Z</time>
      </trkpt>
      <trkpt lat="45.01985" lon="6.37159">
        <ele>1726.8</ele>
        <time>2024-08-10T12:44:28Z</time>
      </trkpt>
      <trkpt lat="45.01985" lon="6.37159">
        <ele>1726.8</ele>
        <time>2024-08-10T12:44:29Z</time>
      </trkpt>
      <trkpt lat="45.01984" lon="6.37155">
        <ele>1726.8</ele>
        <time>2024-08-10T12:44:30Z</time>
      </trkpt>
      <trkpt lat="45.01984" lon="6.37155">
        <ele>1727</ele>
        <time>2024-08-10T12:44:31Z</time>
      </trkpt>
      <trkpt lat="45.01981" lon="6.37153">
        <ele>1727</ele>
        <time>2024-08-10T12:44:32Z</time>
      </trkpt>
      <trkpt lat="45.01981" lon="6.37153">
        <ele>1727</ele>
        <time>2024-08-10T12:44:33Z</time>
      </trkpt>
      <trkpt lat="45.01979" lon="6.3715">
        <ele>1727.2</ele>
        <time>2024-08-10T12:44:34Z</time>
      </trkpt>
      <trkpt lat="45.01979" lon="6.3715">
        <ele>1727.4</ele>
        <time>2024-08-10T12:44:35Z</time>
      </trkpt>
      <trkpt lat="45.01977" lon="6.37148">
        <ele>1727.4</ele>
        <time>2024-08-10T12:44:36Z</time>
      </trkpt>
      <trkpt lat="45.01977" lon="6.37148">
        <ele>1727.6</ele>
        <time>2024-08-10T12:44:37Z</time>
      </trkpt>
      <trkpt lat="45.01976" lon="6.37146">
        <ele>1727.6</ele>
        <time>2024-08-10T12:44:38Z</time>
      </trkpt>
      <trkpt lat="45.01976" lon="6.37146">
        <ele>1727.6</ele>
        <time>2024-08-10T12:44:39Z</time>
      </trkpt>
      <trkpt lat="45.01976" lon="6.37146">
        <ele>1727.6</ele>
        <time>2024-08-10T12:44:40Z</time>
      </trkpt>
      <trkpt lat="45.01976" lon="6.37146">
        <ele>1727.6</ele>
        <time>2024-08-10T12:44:41Z</time>
      </trkpt>
      <trkpt lat="45.01976" lon="6.37146">
        <ele>1727.6</ele>
        <time>2024-08-10T12:44:42Z</time>
      </trkpt>
      <trkpt lat="45.01976" lon="6.37146">
        <ele>1727.6</ele>
        <time>2024-08-10T12:44:43Z</time>
      </trkpt>
      <trkpt lat="45.01976" lon="6.37146">
        <ele>1727.2</ele>
        <time>2024-08-10T12:44:44Z</time>
      </trkpt>
      <trkpt lat="45.01976" lon="6.37146">
        <ele>1727.2</ele>
        <time>2024-08-10T12:44:45Z</time>
      </trkpt>
      <trkpt lat="45.01976" lon="6.37146">
        <ele>1727.2</ele>
        <time>2024-08-10T12:44:46Z</time>
      </trkpt>
      <trkpt lat="45.01976" lon="6.37146">
        <ele>1727.2</ele>
        <time>2024-08-10T12:44:47Z</time>
      </trkpt>
      <trkpt lat="45.01976" lon="6.37146">
        <ele>1727.2</ele>
        <time>2024-08-10T12:44:48Z</time>
      </trkpt>
      <trkpt lat="45.01976" lon="6.37146">
        <ele>1727.4</ele>
        <time>2024-08-10T12:44:49Z</time>
      </trkpt>
      <trkpt lat="45.01976" lon="6.37146">
        <ele>1727.4</ele>
        <time>2024-08-10T12:44:50Z</time>
      </trkpt>
      <trkpt lat="45.01976" lon="6.37146">
        <ele>1727.4</ele>
        <time>2024-08-10T12:44:51Z</time>
      </trkpt>
      <trkpt lat="45.01976" lon="6.37146">
        <ele>1727.6</ele>
        <time>2024-08-10T12:44:52Z</time>
      </trkpt>
      <trkpt lat="45.01976" lon="6.37146">
        <ele>1727.6</ele>
        <time>2024-08-10T12:44:53Z</time>
      </trkpt>
      <trkpt lat="45.01976" lon="6.37146">
        <ele>1727.6</ele>
        <time>2024-08-10T12:44:54Z</time>
      </trkpt>
      <trkpt lat="45.01976" lon="6.37146">
        <ele>1727.4</ele>
        <time>2024-08-10T12:44:55Z</time>
      </trkpt>
      <trkpt lat="45.01976" lon="6.37146">
        <ele>1727.4</ele>
        <time>2024-08-10T12:44:56Z</time>
      </trkpt>
      <trkpt lat="45.01976" lon="6.37146">
        <ele>1727.4</ele>
        <time>2024-08-10T12:44:57Z</time>
      </trkpt>
      <trkpt lat="45.01976" lon="6.37146">
        <ele>1727.4</ele>
        <time>2024-08-10T12:44:58Z</time>
      </trkpt>
      <trkpt lat="45.01976" lon="6.37146">
        <ele>1727.4</ele>
        <time>2024-08-10T12:44:59Z</time>
      </trkpt>
      <trkpt lat="45.01976" lon="6.37146">
        <ele>1727.6</ele>
        <time>2024-08-10T12:45:00Z</time>
      </trkpt>
      <trkpt lat="45.01976" lon="6.37146">
        <ele>1727.6</ele>
        <time>2024-08-10T12:45:01Z</time>
      </trkpt>
      <trkpt lat="45.01976" lon="6.37146">
        <ele>1727.6</ele>
        <time>2024-08-10T12:45:02Z</time>
      </trkpt>
      <trkpt lat="45.01976" lon="6.37146">
        <ele>1727.4</ele>
        <time>2024-08-10T12:45:03Z</time>
      </trkpt>
      <trkpt lat="45.01976" lon="6.37146">
        <ele>1727.4</ele>
        <time>2024-08-10T12:45:04Z</time>
      </trkpt>
      <trkpt lat="45.01976" lon="6.37146">
        <ele>1727.4</ele>
        <time>2024-08-10T12:45:05Z</time>
      </trkpt>
      <trkpt lat="45.01976" lon="6.37146">
        <ele>1727.4</ele>
        <time>2024-08-10T12:45:06Z</time>
      </trkpt>
      <trkpt lat="45.01976" lon="6.37146">
        <ele>1727.4</ele>
        <time>2024-08-10T12:45:07Z</time>
      </trkpt>
      <trkpt lat="45.01976" lon="6.37146">
        <ele>1727.6</ele>
        <time>2024-08-10T12:45:08Z</time>
      </trkpt>
      <trkpt lat="45.01976" lon="6.37146">
        <ele>1727.6</ele>
        <time>2024-08-10T12:45:09Z</time>
      </trkpt>
      <trkpt lat="45.01976" lon="6.37146">
        <ele>1727.6</ele>
        <time>2024-08-10T12:45:10Z</time>
      </trkpt>
      <trkpt lat="45.01976" lon="6.37146">
        <ele>1727.6</ele>
        <time>2024-08-10T12:45:11Z</time>
      </trkpt>
      <trkpt lat="45.01976" lon="6.37146">
        <ele>1727.4</ele>
        <time>2024-08-10T12:45:12Z</time>
      </trkpt>
      <trkpt lat="45.01976" lon="6.37146">
        <ele>1727.2</ele>
        <time>2024-08-10T12:45:13Z</time>
      </trkpt>
      <trkpt lat="45.01976" lon="6.37146">
        <ele>1727.2</ele>
        <time>2024-08-10T12:45:14Z</time>
      </trkpt>
      <trkpt lat="45.01976" lon="6.37146">
        <ele>1727.2</ele>
        <time>2024-08-10T12:45:15Z</time>
      </trkpt>
      <trkpt lat="45.01976" lon="6.37146">
        <ele>1727.2</ele>
        <time>2024-08-10T12:45:16Z</time>
      </trkpt>
      <trkpt lat="45.01976" lon="6.37146">
        <ele>1727</ele>
        <time>2024-08-10T12:45:17Z</time>
      </trkpt>
      <trkpt lat="45.01976" lon="6.37146">
        <ele>1727</ele>
        <time>2024-08-10T12:45:18Z</time>
      </trkpt>
      <trkpt lat="45.01976" lon="6.37146">
        <ele>1727.2</ele>
        <time>2024-08-10T12:45:19Z</time>
      </trkpt>
      <trkpt lat="45.01976" lon="6.37146">
        <ele>1727.2</ele>
        <time>2024-08-10T12:45:20Z</time>
      </trkpt>
      <trkpt lat="45.01976" lon="6.37146">
        <ele>1727.2</ele>
        <time>2024-08-10T12:45:21Z</time>
      </trkpt>
      <trkpt lat="45.01976" lon="6.37146">
        <ele>1727</ele>
        <time>2024-08-10T12:45:22Z</time>
      </trkpt>
      <trkpt lat="45.01976" lon="6.37146">
        <ele>1726.8</ele>
        <time>2024-08-10T12:45:23Z</time>
      </trkpt>
      <trkpt lat="45.01976" lon="6.37146">
        <ele>1726.8</ele>
        <time>2024-08-10T12:45:24Z</time>
      </trkpt>
      <trkpt lat="45.01976" lon="6.37146">
        <ele>1726.8</ele>
        <time>2024-08-10T12:45:25Z</time>
      </trkpt>
      <trkpt lat="45.01974" lon="6.37147">
        <ele>1726.4</ele>
        <time>2024-08-10T12:45:26Z</time>
      </trkpt>
      <trkpt lat="45.01974" lon="6.37147">
        <ele>1726.4</ele>
        <time>2024-08-10T12:45:27Z</time>
      </trkpt>
      <trkpt lat="45.01974" lon="6.37147">
        <ele>1726.6</ele>
        <time>2024-08-10T12:45:28Z</time>
      </trkpt>
      <trkpt lat="45.01972" lon="6.37147">
        <ele>1726.6</ele>
        <time>2024-08-10T12:45:29Z</time>
      </trkpt>
      <trkpt lat="45.01972" lon="6.37147">
        <ele>1727</ele>
        <time>2024-08-10T12:45:30Z</time>
      </trkpt>
      <trkpt lat="45.01972" lon="6.37147">
        <ele>1727.2</ele>
        <time>2024-08-10T12:45:31Z</time>
      </trkpt>
      <trkpt lat="45.0197" lon="6.37145">
        <ele>1727.4</ele>
        <time>2024-08-10T12:45:32Z</time>
      </trkpt>
      <trkpt lat="45.0197" lon="6.37145">
        <ele>1727.4</ele>
        <time>2024-08-10T12:45:33Z</time>
      </trkpt>
      <trkpt lat="45.01968" lon="6.37144">
        <ele>1727.8</ele>
        <time>2024-08-10T12:45:34Z</time>
      </trkpt>
      <trkpt lat="45.01968" lon="6.37144">
        <ele>1728</ele>
        <time>2024-08-10T12:45:35Z</time>
      </trkpt>
      <trkpt lat="45.01968" lon="6.37144">
        <ele>1728.2</ele>
        <time>2024-08-10T12:45:36Z</time>
      </trkpt>
      <trkpt lat="45.01965" lon="6.37143">
        <ele>1728.2</ele>
        <time>2024-08-10T12:45:37Z</time>
      </trkpt>
      <trkpt lat="45.01965" lon="6.37143">
        <ele>1728.2</ele>
        <time>2024-08-10T12:45:38Z</time>
      </trkpt>
      <trkpt lat="45.01964" lon="6.37145">
        <ele>1728.2</ele>
        <time>2024-08-10T12:45:39Z</time>
      </trkpt>
      <trkpt lat="45.01964" lon="6.37145">
        <ele>1728.2</ele>
        <time>2024-08-10T12:45:40Z</time>
      </trkpt>
      <trkpt lat="45.01962" lon="6.37147">
        <ele>1727.8</ele>
        <time>2024-08-10T12:45:41Z</time>
      </trkpt>
      <trkpt lat="45.01962" lon="6.37147">
        <ele>1727.8</ele>
        <time>2024-08-10T12:45:42Z</time>
      </trkpt>
      <trkpt lat="45.01962" lon="6.37147">
        <ele>1727.8</ele>
        <time>2024-08-10T12:45:43Z</time>
      </trkpt>
      <trkpt lat="45.01962" lon="6.37147">
        <ele>1727.8</ele>
        <time>2024-08-10T12:45:44Z</time>
      </trkpt>
      <trkpt lat="45.01962" lon="6.37147">
        <ele>1727.8</ele>
        <time>2024-08-10T12:45:45Z</time>
      </trkpt>
      <trkpt lat="45.01962" lon="6.37147">
        <ele>1727.8</ele>
        <time>2024-08-10T12:45:46Z</time>
      </trkpt>
      <trkpt lat="45.01962" lon="6.37147">
        <ele>1727.8</ele>
        <time>2024-08-10T12:45:47Z</time>
      </trkpt>
      <trkpt lat="45.0196" lon="6.37148">
        <ele>1728</ele>
        <time>2024-08-10T12:45:48Z</time>
      </trkpt>
      <trkpt lat="45.0196" lon="6.37148">
        <ele>1728</ele>
        <time>2024-08-10T12:45:49Z</time>
      </trkpt>
      <trkpt lat="45.0196" lon="6.37148">
        <ele>1728.2</ele>
        <time>2024-08-10T12:45:50Z</time>
      </trkpt>
      <trkpt lat="45.01958" lon="6.3715">
        <ele>1728.2</ele>
        <time>2024-08-10T12:45:51Z</time>
      </trkpt>
      <trkpt lat="45.01956" lon="6.37151">
        <ele>1728.2</ele>
        <time>2024-08-10T12:45:52Z</time>
      </trkpt>
      <trkpt lat="45.01956" lon="6.37151">
        <ele>1728.6</ele>
        <time>2024-08-10T12:45:53Z</time>
      </trkpt>
      <trkpt lat="45.01954" lon="6.37154">
        <ele>1728.6</ele>
        <time>2024-08-10T12:45:54Z</time>
      </trkpt>
      <trkpt lat="45.01954" lon="6.37154">
        <ele>1728.6</ele>
        <time>2024-08-10T12:45:55Z</time>
      </trkpt>
      <trkpt lat="45.01951" lon="6.37156">
        <ele>1728.8</ele>
        <time>2024-08-10T12:45:56Z</time>
      </trkpt>
      <trkpt lat="45.01951" lon="6.37156">
        <ele>1728.8</ele>
        <time>2024-08-10T12:45:57Z</time>
      </trkpt>
      <trkpt lat="45.01949" lon="6.37157">
        <ele>1728.8</ele>
        <time>2024-08-10T12:45:58Z</time>
      </trkpt>
      <trkpt lat="45.01949" lon="6.37157">
        <ele>1728.8</ele>
        <time>2024-08-10T12:45:59Z</time>
      </trkpt>
      <trkpt lat="45.01948" lon="6.37158">
        <ele>1729</ele>
        <time>2024-08-10T12:46:00Z</time>
      </trkpt>
      <trkpt lat="45.01948" lon="6.37158">
        <ele>1729</ele>
        <time>2024-08-10T12:46:01Z</time>
      </trkpt>
      <trkpt lat="45.01946" lon="6.3716">
        <ele>1729.2</ele>
        <time>2024-08-10T12:46:02Z</time>
      </trkpt>
      <trkpt lat="45.01946" lon="6.3716">
        <ele>1729.2</ele>
        <time>2024-08-10T12:46:03Z</time>
      </trkpt>
      <trkpt lat="45.01944" lon="6.37161">
        <ele>1729.2</ele>
        <time>2024-08-10T12:46:04Z</time>
      </trkpt>
      <trkpt lat="45.01944" lon="6.37161">
        <ele>1729.2</ele>
        <time>2024-08-10T12:46:05Z</time>
      </trkpt>
      <trkpt lat="45.01944" lon="6.37161">
        <ele>1729.4</ele>
        <time>2024-08-10T12:46:06Z</time>
      </trkpt>
      <trkpt lat="45.01944" lon="6.37161">
        <ele>1729.4</ele>
        <time>2024-08-10T12:46:07Z</time>
      </trkpt>
      <trkpt lat="45.01942" lon="6.37164">
        <ele>1729.6</ele>
        <time>2024-08-10T12:46:08Z</time>
      </trkpt>
      <trkpt lat="45.01942" lon="6.37164">
        <ele>1729.6</ele>
        <time>2024-08-10T12:46:09Z</time>
      </trkpt>
      <trkpt lat="45.0194" lon="6.37165">
        <ele>1729.6</ele>
        <time>2024-08-10T12:46:10Z</time>
      </trkpt>
      <trkpt lat="45.0194" lon="6.37165">
        <ele>1729.4</ele>
        <time>2024-08-10T12:46:11Z</time>
      </trkpt>
      <trkpt lat="45.01939" lon="6.37167">
        <ele>1729.4</ele>
        <time>2024-08-10T12:46:12Z</time>
      </trkpt>
      <trkpt lat="45.01939" lon="6.37167">
        <ele>1729.6</ele>
        <time>2024-08-10T12:46:13Z</time>
      </trkpt>
      <trkpt lat="45.01937" lon="6.37168">
        <ele>1730</ele>
        <time>2024-08-10T12:46:14Z</time>
      </trkpt>
      <trkpt lat="45.01937" lon="6.37171">
        <ele>1730</ele>
        <time>2024-08-10T12:46:15Z</time>
      </trkpt>
      <trkpt lat="45.01937" lon="6.37171">
        <ele>1730</ele>
        <time>2024-08-10T12:46:16Z</time>
      </trkpt>
      <trkpt lat="45.01935" lon="6.37173">
        <ele>1730</ele>
        <time>2024-08-10T12:46:17Z</time>
      </trkpt>
      <trkpt lat="45.01935" lon="6.37173">
        <ele>1730.2</ele>
        <time>2024-08-10T12:46:18Z</time>
      </trkpt>
      <trkpt lat="45.01935" lon="6.37173">
        <ele>1730.2</ele>
        <time>2024-08-10T12:46:19Z</time>
      </trkpt>
      <trkpt lat="45.01932" lon="6.37176">
        <ele>1730.2</ele>
        <time>2024-08-10T12:46:20Z</time>
      </trkpt>
      <trkpt lat="45.01932" lon="6.37176">
        <ele>1730.6</ele>
        <time>2024-08-10T12:46:21Z</time>
      </trkpt>
      <trkpt lat="45.0193" lon="6.37177">
        <ele>1730.8</ele>
        <time>2024-08-10T12:46:22Z</time>
      </trkpt>
      <trkpt lat="45.0193" lon="6.37177">
        <ele>1730.8</ele>
        <time>2024-08-10T12:46:23Z</time>
      </trkpt>
      <trkpt lat="45.01928" lon="6.37178">
        <ele>1731</ele>
        <time>2024-08-10T12:46:24Z</time>
      </trkpt>
      <trkpt lat="45.01928" lon="6.37178">
        <ele>1731</ele>
        <time>2024-08-10T12:46:25Z</time>
      </trkpt>
      <trkpt lat="45.01926" lon="6.37178">
        <ele>1731</ele>
        <time>2024-08-10T12:46:26Z</time>
      </trkpt>
      <trkpt lat="45.01926" lon="6.37178">
        <ele>1731.2</ele>
        <time>2024-08-10T12:46:27Z</time>
      </trkpt>
      <trkpt lat="45.01924" lon="6.37179">
        <ele>1731.2</ele>
        <time>2024-08-10T12:46:28Z</time>
      </trkpt>
      <trkpt lat="45.01924" lon="6.37179">
        <ele>1731.4</ele>
        <time>2024-08-10T12:46:29Z</time>
      </trkpt>
      <trkpt lat="45.01922" lon="6.3718">
        <ele>1731.6</ele>
        <time>2024-08-10T12:46:30Z</time>
      </trkpt>
      <trkpt lat="45.01922" lon="6.3718">
        <ele>1731.8</ele>
        <time>2024-08-10T12:46:31Z</time>
      </trkpt>
      <trkpt lat="45.0192" lon="6.37181">
        <ele>1731.8</ele>
        <time>2024-08-10T12:46:32Z</time>
      </trkpt>
      <trkpt lat="45.0192" lon="6.37181">
        <ele>1731.8</ele>
        <time>2024-08-10T12:46:33Z</time>
      </trkpt>
      <trkpt lat="45.01918" lon="6.37182">
        <ele>1732</ele>
        <time>2024-08-10T12:46:34Z</time>
      </trkpt>
      <trkpt lat="45.01918" lon="6.37182">
        <ele>1732</ele>
        <time>2024-08-10T12:46:35Z</time>
      </trkpt>
      <trkpt lat="45.01915" lon="6.37183">
        <ele>1732.2</ele>
        <time>2024-08-10T12:46:36Z</time>
      </trkpt>
      <trkpt lat="45.01915" lon="6.37183">
        <ele>1732.2</ele>
        <time>2024-08-10T12:46:37Z</time>
      </trkpt>
      <trkpt lat="45.01913" lon="6.37183">
        <ele>1732.4</ele>
        <time>2024-08-10T12:46:38Z</time>
      </trkpt>
      <trkpt lat="45.01913" lon="6.37183">
        <ele>1732.4</ele>
        <time>2024-08-10T12:46:39Z</time>
      </trkpt>
      <trkpt lat="45.0191" lon="6.37184">
        <ele>1732.6</ele>
        <time>2024-08-10T12:46:40Z</time>
      </trkpt>
      <trkpt lat="45.0191" lon="6.37184">
        <ele>1733.2</ele>
        <time>2024-08-10T12:46:41Z</time>
      </trkpt>
      <trkpt lat="45.01908" lon="6.37184">
        <ele>1733.2</ele>
        <time>2024-08-10T12:46:42Z</time>
      </trkpt>
      <trkpt lat="45.01908" lon="6.37184">
        <ele>1733</ele>
        <time>2024-08-10T12:46:43Z</time>
      </trkpt>
      <trkpt lat="45.01906" lon="6.37184">
        <ele>1733</ele>
        <time>2024-08-10T12:46:44Z</time>
      </trkpt>
      <trkpt lat="45.01906" lon="6.37184">
        <ele>1733</ele>
        <time>2024-08-10T12:46:45Z</time>
      </trkpt>
      <trkpt lat="45.01903" lon="6.37184">
        <ele>1733</ele>
        <time>2024-08-10T12:46:46Z</time>
      </trkpt>
      <trkpt lat="45.01903" lon="6.37184">
        <ele>1733</ele>
        <time>2024-08-10T12:46:47Z</time>
      </trkpt>
      <trkpt lat="45.01901" lon="6.37184">
        <ele>1733</ele>
        <time>2024-08-10T12:46:48Z</time>
      </trkpt>
      <trkpt lat="45.01901" lon="6.37184">
        <ele>1733</ele>
        <time>2024-08-10T12:46:49Z</time>
      </trkpt>
      <trkpt lat="45.01899" lon="6.37184">
        <ele>1733</ele>
        <time>2024-08-10T12:46:50Z</time>
      </trkpt>
      <trkpt lat="45.01899" lon="6.37184">
        <ele>1733.2</ele>
        <time>2024-08-10T12:46:51Z</time>
      </trkpt>
      <trkpt lat="45.01897" lon="6.37184">
        <ele>1733.2</ele>
        <time>2024-08-10T12:46:52Z</time>
      </trkpt>
      <trkpt lat="45.01897" lon="6.37184">
        <ele>1733.4</ele>
        <time>2024-08-10T12:46:53Z</time>
      </trkpt>
      <trkpt lat="45.01895" lon="6.37184">
        <ele>1733.4</ele>
        <time>2024-08-10T12:46:54Z</time>
      </trkpt>
      <trkpt lat="45.01895" lon="6.37184">
        <ele>1733.4</ele>
        <time>2024-08-10T12:46:55Z</time>
      </trkpt>
      <trkpt lat="45.01892" lon="6.37185">
        <ele>1733.4</ele>
        <time>2024-08-10T12:46:56Z</time>
      </trkpt>
      <trkpt lat="45.01892" lon="6.37185">
        <ele>1733.4</ele>
        <time>2024-08-10T12:46:57Z</time>
      </trkpt>
      <trkpt lat="45.0189" lon="6.37186">
        <ele>1733.4</ele>
        <time>2024-08-10T12:46:58Z</time>
      </trkpt>
      <trkpt lat="45.0189" lon="6.37186">
        <ele>1733.4</ele>
        <time>2024-08-10T12:46:59Z</time>
      </trkpt>
      <trkpt lat="45.01887" lon="6.37186">
        <ele>1733.4</ele>
        <time>2024-08-10T12:47:00Z</time>
      </trkpt>
      <trkpt lat="45.01887" lon="6.37186">
        <ele>1733.4</ele>
        <time>2024-08-10T12:47:01Z</time>
      </trkpt>
      <trkpt lat="45.01885" lon="6.37186">
        <ele>1733</ele>
        <time>2024-08-10T12:47:02Z</time>
      </trkpt>
      <trkpt lat="45.01885" lon="6.37186">
        <ele>1732.6</ele>
        <time>2024-08-10T12:47:03Z</time>
      </trkpt>
      <trkpt lat="45.01883" lon="6.37184">
        <ele>1732.6</ele>
        <time>2024-08-10T12:47:04Z</time>
      </trkpt>
      <trkpt lat="45.01883" lon="6.37184">
        <ele>1732.6</ele>
        <time>2024-08-10T12:47:05Z</time>
      </trkpt>
      <trkpt lat="45.01881" lon="6.37182">
        <ele>1732.6</ele>
        <time>2024-08-10T12:47:06Z</time>
      </trkpt>
      <trkpt lat="45.01881" lon="6.37182">
        <ele>1732.6</ele>
        <time>2024-08-10T12:47:07Z</time>
      </trkpt>
      <trkpt lat="45.01878" lon="6.37181">
        <ele>1732.6</ele>
        <time>2024-08-10T12:47:08Z</time>
      </trkpt>
      <trkpt lat="45.01878" lon="6.37181">
        <ele>1732.6</ele>
        <time>2024-08-10T12:47:09Z</time>
      </trkpt>
      <trkpt lat="45.01876" lon="6.3718">
        <ele>1732.6</ele>
        <time>2024-08-10T12:47:10Z</time>
      </trkpt>
      <trkpt lat="45.01876" lon="6.3718">
        <ele>1732.6</ele>
        <time>2024-08-10T12:47:11Z</time>
      </trkpt>
      <trkpt lat="45.01874" lon="6.37179">
        <ele>1732.4</ele>
        <time>2024-08-10T12:47:12Z</time>
      </trkpt>
      <trkpt lat="45.01874" lon="6.37179">
        <ele>1732.2</ele>
        <time>2024-08-10T12:47:13Z</time>
      </trkpt>
      <trkpt lat="45.01871" lon="6.37178">
        <ele>1732</ele>
        <time>2024-08-10T12:47:14Z</time>
      </trkpt>
      <trkpt lat="45.01871" lon="6.37178">
        <ele>1731.8</ele>
        <time>2024-08-10T12:47:15Z</time>
      </trkpt>
      <trkpt lat="45.01869" lon="6.37177">
        <ele>1731.8</ele>
        <time>2024-08-10T12:47:16Z</time>
      </trkpt>
      <trkpt lat="45.01869" lon="6.37177">
        <ele>1731.8</ele>
        <time>2024-08-10T12:47:17Z</time>
      </trkpt>
      <trkpt lat="45.01867" lon="6.37178">
        <ele>1731.8</ele>
        <time>2024-08-10T12:47:18Z</time>
      </trkpt>
      <trkpt lat="45.01867" lon="6.37178">
        <ele>1731.4</ele>
        <time>2024-08-10T12:47:19Z</time>
      </trkpt>
      <trkpt lat="45.01864" lon="6.37177">
        <ele>1731.4</ele>
        <time>2024-08-10T12:47:20Z</time>
      </trkpt>
      <trkpt lat="45.01864" lon="6.37177">
        <ele>1731.4</ele>
        <time>2024-08-10T12:47:21Z</time>
      </trkpt>
      <trkpt lat="45.01862" lon="6.37177">
        <ele>1731</ele>
        <time>2024-08-10T12:47:22Z</time>
      </trkpt>
      <trkpt lat="45.01862" lon="6.37177">
        <ele>1731</ele>
        <time>2024-08-10T12:47:23Z</time>
      </trkpt>
      <trkpt lat="45.0186" lon="6.37178">
        <ele>1730.6</ele>
        <time>2024-08-10T12:47:24Z</time>
      </trkpt>
      <trkpt lat="45.0186" lon="6.37178">
        <ele>1730.6</ele>
        <time>2024-08-10T12:47:25Z</time>
      </trkpt>
      <trkpt lat="45.01858" lon="6.37179">
        <ele>1730.8</ele>
        <time>2024-08-10T12:47:26Z</time>
      </trkpt>
      <trkpt lat="45.01858" lon="6.37179">
        <ele>1730.8</ele>
        <time>2024-08-10T12:47:27Z</time>
      </trkpt>
      <trkpt lat="45.01855" lon="6.37179">
        <ele>1730.6</ele>
        <time>2024-08-10T12:47:28Z</time>
      </trkpt>
      <trkpt lat="45.01855" lon="6.37179">
        <ele>1730.4</ele>
        <time>2024-08-10T12:47:29Z</time>
      </trkpt>
      <trkpt lat="45.01852" lon="6.3718">
        <ele>1730.4</ele>
        <time>2024-08-10T12:47:30Z</time>
      </trkpt>
      <trkpt lat="45.01852" lon="6.3718">
        <ele>1730.4</ele>
        <time>2024-08-10T12:47:31Z</time>
      </trkpt>
      <trkpt lat="45.0185" lon="6.37181">
        <ele>1730.6</ele>
        <time>2024-08-10T12:47:32Z</time>
      </trkpt>
      <trkpt lat="45.0185" lon="6.37181">
        <ele>1730.6</ele>
        <time>2024-08-10T12:47:33Z</time>
      </trkpt>
      <trkpt lat="45.01847" lon="6.37181">
        <ele>1730.6</ele>
        <time>2024-08-10T12:47:34Z</time>
      </trkpt>
      <trkpt lat="45.01847" lon="6.37181">
        <ele>1730.6</ele>
        <time>2024-08-10T12:47:35Z</time>
      </trkpt>
      <trkpt lat="45.01845" lon="6.37182">
        <ele>1730.2</ele>
        <time>2024-08-10T12:47:36Z</time>
      </trkpt>
      <trkpt lat="45.01845" lon="6.37182">
        <ele>1730.2</ele>
        <time>2024-08-10T12:47:37Z</time>
      </trkpt>
      <trkpt lat="45.01842" lon="6.37181">
        <ele>1730.2</ele>
        <time>2024-08-10T12:47:38Z</time>
      </trkpt>
      <trkpt lat="45.01842" lon="6.37181">
        <ele>1730.2</ele>
        <time>2024-08-10T12:47:39Z</time>
      </trkpt>
      <trkpt lat="45.01839" lon="6.37181">
        <ele>1730</ele>
        <time>2024-08-10T12:47:40Z</time>
      </trkpt>
      <trkpt lat="45.01839" lon="6.37181">
        <ele>1730</ele>
        <time>2024-08-10T12:47:41Z</time>
      </trkpt>
      <trkpt lat="45.01837" lon="6.37182">
        <ele>1730</ele>
        <time>2024-08-10T12:47:42Z</time>
      </trkpt>
      <trkpt lat="45.01837" lon="6.37182">
        <ele>1730</ele>
        <time>2024-08-10T12:47:43Z</time>
      </trkpt>
      <trkpt lat="45.01835" lon="6.37182">
        <ele>1729.8</ele>
        <time>2024-08-10T12:47:44Z</time>
      </trkpt>
      <trkpt lat="45.01835" lon="6.37182">
        <ele>1729.8</ele>
        <time>2024-08-10T12:47:45Z</time>
      </trkpt>
      <trkpt lat="45.01832" lon="6.37182">
        <ele>1729.8</ele>
        <time>2024-08-10T12:47:46Z</time>
      </trkpt>
      <trkpt lat="45.01832" lon="6.37182">
        <ele>1729.8</ele>
        <time>2024-08-10T12:47:47Z</time>
      </trkpt>
      <trkpt lat="45.01829" lon="6.37183">
        <ele>1730</ele>
        <time>2024-08-10T12:47:48Z</time>
      </trkpt>
      <trkpt lat="45.01829" lon="6.37183">
        <ele>1730</ele>
        <time>2024-08-10T12:47:49Z</time>
      </trkpt>
      <trkpt lat="45.01827" lon="6.37183">
        <ele>1730.2</ele>
        <time>2024-08-10T12:47:50Z</time>
      </trkpt>
      <trkpt lat="45.01827" lon="6.37183">
        <ele>1730.2</ele>
        <time>2024-08-10T12:47:51Z</time>
      </trkpt>
      <trkpt lat="45.01825" lon="6.37183">
        <ele>1730.2</ele>
        <time>2024-08-10T12:47:52Z</time>
      </trkpt>
      <trkpt lat="45.01825" lon="6.37183">
        <ele>1730.2</ele>
        <time>2024-08-10T12:47:53Z</time>
      </trkpt>
      <trkpt lat="45.01822" lon="6.37183">
        <ele>1730.4</ele>
        <time>2024-08-10T12:47:54Z</time>
      </trkpt>
      <trkpt lat="45.01822" lon="6.37183">
        <ele>1730.4</ele>
        <time>2024-08-10T12:47:55Z</time>
      </trkpt>
      <trkpt lat="45.0182" lon="6.37184">
        <ele>1730.6</ele>
        <time>2024-08-10T12:47:56Z</time>
      </trkpt>
      <trkpt lat="45.0182" lon="6.37184">
        <ele>1730.8</ele>
        <time>2024-08-10T12:47:57Z</time>
      </trkpt>
      <trkpt lat="45.01818" lon="6.37184">
        <ele>1730.8</ele>
        <time>2024-08-10T12:47:58Z</time>
      </trkpt>
      <trkpt lat="45.01818" lon="6.37184">
        <ele>1730.8</ele>
        <time>2024-08-10T12:47:59Z</time>
      </trkpt>
      <trkpt lat="45.01815" lon="6.37184">
        <ele>1731</ele>
        <time>2024-08-10T12:48:00Z</time>
      </trkpt>
      <trkpt lat="45.01815" lon="6.37184">
        <ele>1731.2</ele>
        <time>2024-08-10T12:48:01Z</time>
      </trkpt>
      <trkpt lat="45.01813" lon="6.37185">
        <ele>1731.4</ele>
        <time>2024-08-10T12:48:02Z</time>
      </trkpt>
      <trkpt lat="45.01813" lon="6.37185">
        <ele>1731.4</ele>
        <time>2024-08-10T12:48:03Z</time>
      </trkpt>
      <trkpt lat="45.0181" lon="6.37185">
        <ele>1731.4</ele>
        <time>2024-08-10T12:48:04Z</time>
      </trkpt>
      <trkpt lat="45.0181" lon="6.37185">
        <ele>1731.4</ele>
        <time>2024-08-10T12:48:05Z</time>
      </trkpt>
      <trkpt lat="45.01808" lon="6.37186">
        <ele>1731.4</ele>
        <time>2024-08-10T12:48:06Z</time>
      </trkpt>
      <trkpt lat="45.01808" lon="6.37186">
        <ele>1731.4</ele>
        <time>2024-08-10T12:48:07Z</time>
      </trkpt>
      <trkpt lat="45.01805" lon="6.37186">
        <ele>1731.4</ele>
        <time>2024-08-10T12:48:08Z</time>
      </trkpt>
      <trkpt lat="45.01805" lon="6.37186">
        <ele>1731.6</ele>
        <time>2024-08-10T12:48:09Z</time>
      </trkpt>
      <trkpt lat="45.01803" lon="6.37187">
        <ele>1731.6</ele>
        <time>2024-08-10T12:48:10Z</time>
      </trkpt>
      <trkpt lat="45.01803" lon="6.37187">
        <ele>1731.6</ele>
        <time>2024-08-10T12:48:11Z</time>
      </trkpt>
      <trkpt lat="45.018" lon="6.37188">
        <ele>1731.6</ele>
        <time>2024-08-10T12:48:12Z</time>
      </trkpt>
      <trkpt lat="45.018" lon="6.37188">
        <ele>1731.6</ele>
        <time>2024-08-10T12:48:13Z</time>
      </trkpt>
      <trkpt lat="45.01798" lon="6.37188">
        <ele>1731.6</ele>
        <time>2024-08-10T12:48:14Z</time>
      </trkpt>
      <trkpt lat="45.01798" lon="6.37188">
        <ele>1731.6</ele>
        <time>2024-08-10T12:48:15Z</time>
      </trkpt>
      <trkpt lat="45.01796" lon="6.37188">
        <ele>1731.4</ele>
        <time>2024-08-10T12:48:16Z</time>
      </trkpt>
      <trkpt lat="45.01796" lon="6.37188">
        <ele>1731.4</ele>
        <time>2024-08-10T12:48:17Z</time>
      </trkpt>
      <trkpt lat="45.01793" lon="6.37188">
        <ele>1731.4</ele>
        <time>2024-08-10T12:48:18Z</time>
      </trkpt>
      <trkpt lat="45.01793" lon="6.37188">
        <ele>1731.8</ele>
        <time>2024-08-10T12:48:19Z</time>
      </trkpt>
      <trkpt lat="45.01791" lon="6.37188">
        <ele>1731.8</ele>
        <time>2024-08-10T12:48:20Z</time>
      </trkpt>
      <trkpt lat="45.01791" lon="6.37188">
        <ele>1731.8</ele>
        <time>2024-08-10T12:48:21Z</time>
      </trkpt>
      <trkpt lat="45.01789" lon="6.37188">
        <ele>1731.8</ele>
        <time>2024-08-10T12:48:22Z</time>
      </trkpt>
      <trkpt lat="45.01789" lon="6.37188">
        <ele>1731.8</ele>
        <time>2024-08-10T12:48:23Z</time>
      </trkpt>
      <trkpt lat="45.01786" lon="6.37188">
        <ele>1731.8</ele>
        <time>2024-08-10T12:48:24Z</time>
      </trkpt>
      <trkpt lat="45.01786" lon="6.37188">
        <ele>1732.2</ele>
        <time>2024-08-10T12:48:25Z</time>
      </trkpt>
      <trkpt lat="45.01783" lon="6.3719">
        <ele>1732.2</ele>
        <time>2024-08-10T12:48:26Z</time>
      </trkpt>
      <trkpt lat="45.01783" lon="6.3719">
        <ele>1732.2</ele>
        <time>2024-08-10T12:48:27Z</time>
      </trkpt>
      <trkpt lat="45.01782" lon="6.37193">
        <ele>1732.4</ele>
        <time>2024-08-10T12:48:28Z</time>
      </trkpt>
      <trkpt lat="45.01782" lon="6.37193">
        <ele>1732.4</ele>
        <time>2024-08-10T12:48:29Z</time>
      </trkpt>
      <trkpt lat="45.01782" lon="6.37193">
        <ele>1732.2</ele>
        <time>2024-08-10T12:48:30Z</time>
      </trkpt>
      <trkpt lat="45.0178" lon="6.37196">
        <ele>1732.2</ele>
        <time>2024-08-10T12:48:31Z</time>
      </trkpt>
      <trkpt lat="45.0178" lon="6.37196">
        <ele>1732.4</ele>
        <time>2024-08-10T12:48:32Z</time>
      </trkpt>
      <trkpt lat="45.01777" lon="6.37198">
        <ele>1732.6</ele>
        <time>2024-08-10T12:48:33Z</time>
      </trkpt>
      <trkpt lat="45.01776" lon="6.37199">
        <ele>1732.8</ele>
        <time>2024-08-10T12:48:34Z</time>
      </trkpt>
      <trkpt lat="45.01776" lon="6.37199">
        <ele>1732.8</ele>
        <time>2024-08-10T12:48:35Z</time>
      </trkpt>
      <trkpt lat="45.01774" lon="6.372">
        <ele>1733.2</ele>
        <time>2024-08-10T12:48:36Z</time>
      </trkpt>
      <trkpt lat="45.01774" lon="6.372">
        <ele>1733.2</ele>
        <time>2024-08-10T12:48:37Z</time>
      </trkpt>
      <trkpt lat="45.01774" lon="6.372">
        <ele>1733.2</ele>
        <time>2024-08-10T12:48:38Z</time>
      </trkpt>
      <trkpt lat="45.01772" lon="6.372">
        <ele>1733.4</ele>
        <time>2024-08-10T12:48:39Z</time>
      </trkpt>
      <trkpt lat="45.01772" lon="6.372">
        <ele>1733.6</ele>
        <time>2024-08-10T12:48:40Z</time>
      </trkpt>
      <trkpt lat="45.01769" lon="6.372">
        <ele>1733.6</ele>
        <time>2024-08-10T12:48:41Z</time>
      </trkpt>
      <trkpt lat="45.01769" lon="6.372">
        <ele>1733.8</ele>
        <time>2024-08-10T12:48:42Z</time>
      </trkpt>
      <trkpt lat="45.01767" lon="6.37199">
        <ele>1734.2</ele>
        <time>2024-08-10T12:48:43Z</time>
      </trkpt>
      <trkpt lat="45.01767" lon="6.37199">
        <ele>1734.4</ele>
        <time>2024-08-10T12:48:44Z</time>
      </trkpt>
      <trkpt lat="45.01765" lon="6.37199">
        <ele>1734.2</ele>
        <time>2024-08-10T12:48:45Z</time>
      </trkpt>
      <trkpt lat="45.01765" lon="6.37199">
        <ele>1734.2</ele>
        <time>2024-08-10T12:48:46Z</time>
      </trkpt>
      <trkpt lat="45.01762" lon="6.37197">
        <ele>1734.2</ele>
        <time>2024-08-10T12:48:47Z</time>
      </trkpt>
      <trkpt lat="45.01762" lon="6.37197">
        <ele>1734.4</ele>
        <time>2024-08-10T12:48:48Z</time>
      </trkpt>
      <trkpt lat="45.0176" lon="6.37196">
        <ele>1734.6</ele>
        <time>2024-08-10T12:48:49Z</time>
      </trkpt>
      <trkpt lat="45.0176" lon="6.37196">
        <ele>1734.8</ele>
        <time>2024-08-10T12:48:50Z</time>
      </trkpt>
      <trkpt lat="45.01758" lon="6.37196">
        <ele>1735</ele>
        <time>2024-08-10T12:48:51Z</time>
      </trkpt>
      <trkpt lat="45.01758" lon="6.37196">
        <ele>1735</ele>
        <time>2024-08-10T12:48:52Z</time>
      </trkpt>
      <trkpt lat="45.01755" lon="6.37196">
        <ele>1734.8</ele>
        <time>2024-08-10T12:48:53Z</time>
      </trkpt>
      <trkpt lat="45.01755" lon="6.37196">
        <ele>1734.8</ele>
        <time>2024-08-10T12:48:54Z</time>
      </trkpt>
      <trkpt lat="45.01755" lon="6.37196">
        <ele>1734.8</ele>
        <time>2024-08-10T12:48:55Z</time>
      </trkpt>
      <trkpt lat="45.01752" lon="6.37197">
        <ele>1734.8</ele>
        <time>2024-08-10T12:48:56Z</time>
      </trkpt>
      <trkpt lat="45.01752" lon="6.37197">
        <ele>1734.8</ele>
        <time>2024-08-10T12:48:57Z</time>
      </trkpt>
      <trkpt lat="45.0175" lon="6.37198">
        <ele>1734.8</ele>
        <time>2024-08-10T12:48:58Z</time>
      </trkpt>
      <trkpt lat="45.0175" lon="6.37198">
        <ele>1735.2</ele>
        <time>2024-08-10T12:48:59Z</time>
      </trkpt>
      <trkpt lat="45.01748" lon="6.37197">
        <ele>1735.4</ele>
        <time>2024-08-10T12:49:00Z</time>
      </trkpt>
      <trkpt lat="45.01748" lon="6.37197">
        <ele>1735.4</ele>
        <time>2024-08-10T12:49:01Z</time>
      </trkpt>
      <trkpt lat="45.01745" lon="6.37196">
        <ele>1735.2</ele>
        <time>2024-08-10T12:49:02Z</time>
      </trkpt>
      <trkpt lat="45.01745" lon="6.37196">
        <ele>1734.8</ele>
        <time>2024-08-10T12:49:03Z</time>
      </trkpt>
      <trkpt lat="45.01743" lon="6.37196">
        <ele>1734.8</ele>
        <time>2024-08-10T12:49:04Z</time>
      </trkpt>
      <trkpt lat="45.01743" lon="6.37196">
        <ele>1735</ele>
        <time>2024-08-10T12:49:05Z</time>
      </trkpt>
      <trkpt lat="45.01741" lon="6.37196">
        <ele>1735</ele>
        <time>2024-08-10T12:49:06Z</time>
      </trkpt>
      <trkpt lat="45.01741" lon="6.37196">
        <ele>1735</ele>
        <time>2024-08-10T12:49:07Z</time>
      </trkpt>
      <trkpt lat="45.01738" lon="6.37196">
        <ele>1734.8</ele>
        <time>2024-08-10T12:49:08Z</time>
      </trkpt>
      <trkpt lat="45.01738" lon="6.37196">
        <ele>1735</ele>
        <time>2024-08-10T12:49:09Z</time>
      </trkpt>
      <trkpt lat="45.01736" lon="6.37195">
        <ele>1735</ele>
        <time>2024-08-10T12:49:10Z</time>
      </trkpt>
      <trkpt lat="45.01736" lon="6.37195">
        <ele>1735.2</ele>
        <time>2024-08-10T12:49:11Z</time>
      </trkpt>
      <trkpt lat="45.01733" lon="6.37196">
        <ele>1735.2</ele>
        <time>2024-08-10T12:49:12Z</time>
      </trkpt>
      <trkpt lat="45.01733" lon="6.37196">
        <ele>1735.4</ele>
        <time>2024-08-10T12:49:13Z</time>
      </trkpt>
      <trkpt lat="45.01732" lon="6.37198">
        <ele>1735.4</ele>
        <time>2024-08-10T12:49:14Z</time>
      </trkpt>
      <trkpt lat="45.01732" lon="6.37198">
        <ele>1735.4</ele>
        <time>2024-08-10T12:49:15Z</time>
      </trkpt>
      <trkpt lat="45.01729" lon="6.37198">
        <ele>1735.4</ele>
        <time>2024-08-10T12:49:16Z</time>
      </trkpt>
      <trkpt lat="45.01727" lon="6.37199">
        <ele>1735.6</ele>
        <time>2024-08-10T12:49:17Z</time>
      </trkpt>
      <trkpt lat="45.01727" lon="6.37199">
        <ele>1735.8</ele>
        <time>2024-08-10T12:49:18Z</time>
      </trkpt>
      <trkpt lat="45.01725" lon="6.37199">
        <ele>1736.2</ele>
        <time>2024-08-10T12:49:19Z</time>
      </trkpt>
      <trkpt lat="45.01725" lon="6.37199">
        <ele>1736.4</ele>
        <time>2024-08-10T12:49:20Z</time>
      </trkpt>
      <trkpt lat="45.01723" lon="6.372">
        <ele>1736.4</ele>
        <time>2024-08-10T12:49:21Z</time>
      </trkpt>
      <trkpt lat="45.01721" lon="6.37201">
        <ele>1736.4</ele>
        <time>2024-08-10T12:49:22Z</time>
      </trkpt>
      <trkpt lat="45.01721" lon="6.37201">
        <ele>1736.6</ele>
        <time>2024-08-10T12:49:23Z</time>
      </trkpt>
      <trkpt lat="45.01718" lon="6.37204">
        <ele>1736.6</ele>
        <time>2024-08-10T12:49:24Z</time>
      </trkpt>
      <trkpt lat="45.01718" lon="6.37204">
        <ele>1736.8</ele>
        <time>2024-08-10T12:49:25Z</time>
      </trkpt>
      <trkpt lat="45.01716" lon="6.37205">
        <ele>1736.8</ele>
        <time>2024-08-10T12:49:26Z</time>
      </trkpt>
      <trkpt lat="45.01716" lon="6.37205">
        <ele>1737</ele>
        <time>2024-08-10T12:49:27Z</time>
      </trkpt>
      <trkpt lat="45.01713" lon="6.37207">
        <ele>1737</ele>
        <time>2024-08-10T12:49:28Z</time>
      </trkpt>
      <trkpt lat="45.01713" lon="6.37207">
        <ele>1737</ele>
        <time>2024-08-10T12:49:29Z</time>
      </trkpt>
      <trkpt lat="45.01713" lon="6.37207">
        <ele>1737</ele>
        <time>2024-08-10T12:49:30Z</time>
      </trkpt>
      <trkpt lat="45.0171" lon="6.37207">
        <ele>1737</ele>
        <time>2024-08-10T12:49:31Z</time>
      </trkpt>
      <trkpt lat="45.0171" lon="6.37207">
        <ele>1737</ele>
        <time>2024-08-10T12:49:32Z</time>
      </trkpt>
      <trkpt lat="45.01708" lon="6.37208">
        <ele>1737</ele>
        <time>2024-08-10T12:49:33Z</time>
      </trkpt>
      <trkpt lat="45.01708" lon="6.37208">
        <ele>1737</ele>
        <time>2024-08-10T12:49:34Z</time>
      </trkpt>
      <trkpt lat="45.01706" lon="6.3721">
        <ele>1737.2</ele>
        <time>2024-08-10T12:49:35Z</time>
      </trkpt>
      <trkpt lat="45.01706" lon="6.3721">
        <ele>1737.2</ele>
        <time>2024-08-10T12:49:36Z</time>
      </trkpt>
      <trkpt lat="45.01704" lon="6.37211">
        <ele>1737.2</ele>
        <time>2024-08-10T12:49:37Z</time>
      </trkpt>
      <trkpt lat="45.01704" lon="6.37211">
        <ele>1736.8</ele>
        <time>2024-08-10T12:49:38Z</time>
      </trkpt>
      <trkpt lat="45.01704" lon="6.37211">
        <ele>1736.8</ele>
        <time>2024-08-10T12:49:39Z</time>
      </trkpt>
      <trkpt lat="45.01701" lon="6.37211">
        <ele>1737</ele>
        <time>2024-08-10T12:49:40Z</time>
      </trkpt>
      <trkpt lat="45.01701" lon="6.37211">
        <ele>1737.2</ele>
        <time>2024-08-10T12:49:41Z</time>
      </trkpt>
      <trkpt lat="45.01699" lon="6.37211">
        <ele>1737.2</ele>
        <time>2024-08-10T12:49:42Z</time>
      </trkpt>
      <trkpt lat="45.01699" lon="6.37211">
        <ele>1737.2</ele>
        <time>2024-08-10T12:49:43Z</time>
      </trkpt>
      <trkpt lat="45.01699" lon="6.37211">
        <ele>1737.2</ele>
        <time>2024-08-10T12:49:44Z</time>
      </trkpt>
      <trkpt lat="45.01696" lon="6.37212">
        <ele>1737.6</ele>
        <time>2024-08-10T12:49:45Z</time>
      </trkpt>
      <trkpt lat="45.01696" lon="6.37212">
        <ele>1737.6</ele>
        <time>2024-08-10T12:49:46Z</time>
      </trkpt>
      <trkpt lat="45.01694" lon="6.37214">
        <ele>1737.6</ele>
        <time>2024-08-10T12:49:47Z</time>
      </trkpt>
      <trkpt lat="45.01694" lon="6.37214">
        <ele>1737.6</ele>
        <time>2024-08-10T12:49:48Z</time>
      </trkpt>
      <trkpt lat="45.01691" lon="6.37214">
        <ele>1737.6</ele>
        <time>2024-08-10T12:49:49Z</time>
      </trkpt>
      <trkpt lat="45.01691" lon="6.37214">
        <ele>1737.6</ele>
        <time>2024-08-10T12:49:50Z</time>
      </trkpt>
      <trkpt lat="45.01688" lon="6.37214">
        <ele>1737.6</ele>
        <time>2024-08-10T12:49:51Z</time>
      </trkpt>
      <trkpt lat="45.01688" lon="6.37214">
        <ele>1737.8</ele>
        <time>2024-08-10T12:49:52Z</time>
      </trkpt>
      <trkpt lat="45.01686" lon="6.37213">
        <ele>1737.8</ele>
        <time>2024-08-10T12:49:53Z</time>
      </trkpt>
      <trkpt lat="45.01686" lon="6.37213">
        <ele>1737.8</ele>
        <time>2024-08-10T12:49:54Z</time>
      </trkpt>
      <trkpt lat="45.01684" lon="6.37212">
        <ele>1737.6</ele>
        <time>2024-08-10T12:49:55Z</time>
      </trkpt>
      <trkpt lat="45.01684" lon="6.37212">
        <ele>1737.6</ele>
        <time>2024-08-10T12:49:56Z</time>
      </trkpt>
      <trkpt lat="45.01682" lon="6.3721">
        <ele>1737.8</ele>
        <time>2024-08-10T12:49:57Z</time>
      </trkpt>
      <trkpt lat="45.01682" lon="6.3721">
        <ele>1737.8</ele>
        <time>2024-08-10T12:49:58Z</time>
      </trkpt>
      <trkpt lat="45.01679" lon="6.37208">
        <ele>1738</ele>
        <time>2024-08-10T12:49:59Z</time>
      </trkpt>
      <trkpt lat="45.01679" lon="6.37208">
        <ele>1738.2</ele>
        <time>2024-08-10T12:50:00Z</time>
      </trkpt>
      <trkpt lat="45.01677" lon="6.37207">
        <ele>1738.2</ele>
        <time>2024-08-10T12:50:01Z</time>
      </trkpt>
      <trkpt lat="45.01677" lon="6.37207">
        <ele>1738.4</ele>
        <time>2024-08-10T12:50:02Z</time>
      </trkpt>
      <trkpt lat="45.01677" lon="6.37207">
        <ele>1738.6</ele>
        <time>2024-08-10T12:50:03Z</time>
      </trkpt>
      <trkpt lat="45.01675" lon="6.37205">
        <ele>1738.6</ele>
        <time>2024-08-10T12:50:04Z</time>
      </trkpt>
      <trkpt lat="45.01675" lon="6.37205">
        <ele>1738.6</ele>
        <time>2024-08-10T12:50:05Z</time>
      </trkpt>
      <trkpt lat="45.01674" lon="6.37202">
        <ele>1738.8</ele>
        <time>2024-08-10T12:50:06Z</time>
      </trkpt>
      <trkpt lat="45.01674" lon="6.37202">
        <ele>1739</ele>
        <time>2024-08-10T12:50:07Z</time>
      </trkpt>
      <trkpt lat="45.01672" lon="6.37198">
        <ele>1739.2</ele>
        <time>2024-08-10T12:50:08Z</time>
      </trkpt>
      <trkpt lat="45.01672" lon="6.37198">
        <ele>1739.2</ele>
        <time>2024-08-10T12:50:09Z</time>
      </trkpt>
      <trkpt lat="45.0167" lon="6.37195">
        <ele>1739.2</ele>
        <time>2024-08-10T12:50:10Z</time>
      </trkpt>
      <trkpt lat="45.0167" lon="6.37195">
        <ele>1739</ele>
        <time>2024-08-10T12:50:11Z</time>
      </trkpt>
      <trkpt lat="45.01669" lon="6.37192">
        <ele>1739</ele>
        <time>2024-08-10T12:50:12Z</time>
      </trkpt>
      <trkpt lat="45.01669" lon="6.37192">
        <ele>1739.2</ele>
        <time>2024-08-10T12:50:13Z</time>
      </trkpt>
      <trkpt lat="45.01666" lon="6.3719">
        <ele>1739.2</ele>
        <time>2024-08-10T12:50:14Z</time>
      </trkpt>
      <trkpt lat="45.01666" lon="6.3719">
        <ele>1739.2</ele>
        <time>2024-08-10T12:50:15Z</time>
      </trkpt>
      <trkpt lat="45.01664" lon="6.37189">
        <ele>1739</ele>
        <time>2024-08-10T12:50:16Z</time>
      </trkpt>
      <trkpt lat="45.01664" lon="6.37189">
        <ele>1739</ele>
        <time>2024-08-10T12:50:17Z</time>
      </trkpt>
      <trkpt lat="45.01662" lon="6.37188">
        <ele>1739.2</ele>
        <time>2024-08-10T12:50:18Z</time>
      </trkpt>
      <trkpt lat="45.01662" lon="6.37188">
        <ele>1739.2</ele>
        <time>2024-08-10T12:50:19Z</time>
      </trkpt>
      <trkpt lat="45.0166" lon="6.37186">
        <ele>1739.4</ele>
        <time>2024-08-10T12:50:20Z</time>
      </trkpt>
      <trkpt lat="45.0166" lon="6.37186">
        <ele>1739.4</ele>
        <time>2024-08-10T12:50:21Z</time>
      </trkpt>
      <trkpt lat="45.01658" lon="6.37184">
        <ele>1739.4</ele>
        <time>2024-08-10T12:50:22Z</time>
      </trkpt>
      <trkpt lat="45.01658" lon="6.37184">
        <ele>1739.8</ele>
        <time>2024-08-10T12:50:23Z</time>
      </trkpt>
      <trkpt lat="45.01656" lon="6.37181">
        <ele>1739.8</ele>
        <time>2024-08-10T12:50:24Z</time>
      </trkpt>
      <trkpt lat="45.01656" lon="6.37181">
        <ele>1739.8</ele>
        <time>2024-08-10T12:50:25Z</time>
      </trkpt>
      <trkpt lat="45.01655" lon="6.3718">
        <ele>1740</ele>
        <time>2024-08-10T12:50:26Z</time>
      </trkpt>
      <trkpt lat="45.01655" lon="6.3718">
        <ele>1740.2</ele>
        <time>2024-08-10T12:50:27Z</time>
      </trkpt>
      <trkpt lat="45.01655" lon="6.3718">
        <ele>1740.2</ele>
        <time>2024-08-10T12:50:28Z</time>
      </trkpt>
      <trkpt lat="45.01653" lon="6.37178">
        <ele>1740.2</ele>
        <time>2024-08-10T12:50:29Z</time>
      </trkpt>
      <trkpt lat="45.01653" lon="6.37178">
        <ele>1740.2</ele>
        <time>2024-08-10T12:50:30Z</time>
      </trkpt>
      <trkpt lat="45.01653" lon="6.37178">
        <ele>1740.4</ele>
        <time>2024-08-10T12:50:31Z</time>
      </trkpt>
      <trkpt lat="45.01653" lon="6.37178">
        <ele>1740.4</ele>
        <time>2024-08-10T12:50:32Z</time>
      </trkpt>
      <trkpt lat="45.01653" lon="6.37178">
        <ele>1740.6</ele>
        <time>2024-08-10T12:50:33Z</time>
      </trkpt>
      <trkpt lat="45.01653" lon="6.37178">
        <ele>1740.6</ele>
        <time>2024-08-10T12:50:34Z</time>
      </trkpt>
      <trkpt lat="45.01653" lon="6.37178">
        <ele>1740.6</ele>
        <time>2024-08-10T12:50:35Z</time>
      </trkpt>
      <trkpt lat="45.01653" lon="6.37178">
        <ele>1740.8</ele>
        <time>2024-08-10T12:50:36Z</time>
      </trkpt>
      <trkpt lat="45.01653" lon="6.37178">
        <ele>1740.6</ele>
        <time>2024-08-10T12:50:37Z</time>
      </trkpt>
      <trkpt lat="45.01653" lon="6.37178">
        <ele>1740.6</ele>
        <time>2024-08-10T12:50:38Z</time>
      </trkpt>
      <trkpt lat="45.01653" lon="6.37178">
        <ele>1740.4</ele>
        <time>2024-08-10T12:50:39Z</time>
      </trkpt>
      <trkpt lat="45.01653" lon="6.37178">
        <ele>1740.4</ele>
        <time>2024-08-10T12:50:40Z</time>
      </trkpt>
      <trkpt lat="45.01653" lon="6.37178">
        <ele>1740.4</ele>
        <time>2024-08-10T12:50:41Z</time>
      </trkpt>
      <trkpt lat="45.01652" lon="6.37177">
        <ele>1740.4</ele>
        <time>2024-08-10T12:50:42Z</time>
      </trkpt>
      <trkpt lat="45.01652" lon="6.37177">
        <ele>1740.4</ele>
        <time>2024-08-10T12:50:43Z</time>
      </trkpt>
      <trkpt lat="45.01652" lon="6.37177">
        <ele>1740.6</ele>
        <time>2024-08-10T12:50:44Z</time>
      </trkpt>
      <trkpt lat="45.01652" lon="6.37177">
        <ele>1740.6</ele>
        <time>2024-08-10T12:50:45Z</time>
      </trkpt>
      <trkpt lat="45.01652" lon="6.37177">
        <ele>1741</ele>
        <time>2024-08-10T12:50:46Z</time>
      </trkpt>
      <trkpt lat="45.01652" lon="6.37177">
        <ele>1741</ele>
        <time>2024-08-10T12:50:47Z</time>
      </trkpt>
      <trkpt lat="45.01652" lon="6.37177">
        <ele>1741</ele>
        <time>2024-08-10T12:50:48Z</time>
      </trkpt>
      <trkpt lat="45.0165" lon="6.37175">
        <ele>1741.2</ele>
        <time>2024-08-10T12:50:49Z</time>
      </trkpt>
      <trkpt lat="45.0165" lon="6.37175">
        <ele>1741.4</ele>
        <time>2024-08-10T12:50:50Z</time>
      </trkpt>
      <trkpt lat="45.01648" lon="6.37173">
        <ele>1741.6</ele>
        <time>2024-08-10T12:50:51Z</time>
      </trkpt>
      <trkpt lat="45.01648" lon="6.37173">
        <ele>1741.8</ele>
        <time>2024-08-10T12:50:52Z</time>
      </trkpt>
      <trkpt lat="45.01646" lon="6.37171">
        <ele>1741.8</ele>
        <time>2024-08-10T12:50:53Z</time>
      </trkpt>
      <trkpt lat="45.01646" lon="6.37171">
        <ele>1742</ele>
        <time>2024-08-10T12:50:54Z</time>
      </trkpt>
      <trkpt lat="45.01644" lon="6.37169">
        <ele>1742.2</ele>
        <time>2024-08-10T12:50:55Z</time>
      </trkpt>
      <trkpt lat="45.01644" lon="6.37169">
        <ele>1742.4</ele>
        <time>2024-08-10T12:50:56Z</time>
      </trkpt>
      <trkpt lat="45.01644" lon="6.37169">
        <ele>1742.4</ele>
        <time>2024-08-10T12:50:57Z</time>
      </trkpt>
      <trkpt lat="45.01642" lon="6.37166">
        <ele>1742.6</ele>
        <time>2024-08-10T12:50:58Z</time>
      </trkpt>
      <trkpt lat="45.01642" lon="6.37166">
        <ele>1743.2</ele>
        <time>2024-08-10T12:50:59Z</time>
      </trkpt>
      <trkpt lat="45.01642" lon="6.37166">
        <ele>1743.2</ele>
        <time>2024-08-10T12:51:00Z</time>
      </trkpt>
      <trkpt lat="45.01639" lon="6.37164">
        <ele>1743.2</ele>
        <time>2024-08-10T12:51:01Z</time>
      </trkpt>
      <trkpt lat="45.01639" lon="6.37164">
        <ele>1743.6</ele>
        <time>2024-08-10T12:51:02Z</time>
      </trkpt>
      <trkpt lat="45.01639" lon="6.37164">
        <ele>1743.6</ele>
        <time>2024-08-10T12:51:03Z</time>
      </trkpt>
      <trkpt lat="45.01639" lon="6.37164">
        <ele>1743.6</ele>
        <time>2024-08-10T12:51:04Z</time>
      </trkpt>
      <trkpt lat="45.01638" lon="6.37162">
        <ele>1744</ele>
        <time>2024-08-10T12:51:05Z</time>
      </trkpt>
      <trkpt lat="45.01638" lon="6.37162">
        <ele>1744.2</ele>
        <time>2024-08-10T12:51:06Z</time>
      </trkpt>
      <trkpt lat="45.01638" lon="6.37162">
        <ele>1744.4</ele>
        <time>2024-08-10T12:51:07Z</time>
      </trkpt>
      <trkpt lat="45.01636" lon="6.37161">
        <ele>1744.4</ele>
        <time>2024-08-10T12:51:08Z</time>
      </trkpt>
      <trkpt lat="45.01636" lon="6.37161">
        <ele>1744.6</ele>
        <time>2024-08-10T12:51:09Z</time>
      </trkpt>
      <trkpt lat="45.01635" lon="6.3716">
        <ele>1744.6</ele>
        <time>2024-08-10T12:51:10Z</time>
      </trkpt>
      <trkpt lat="45.01635" lon="6.3716">
        <ele>1744.6</ele>
        <time>2024-08-10T12:51:11Z</time>
      </trkpt>
      <trkpt lat="45.01635" lon="6.3716">
        <ele>1744.8</ele>
        <time>2024-08-10T12:51:12Z</time>
      </trkpt>
      <trkpt lat="45.01633" lon="6.37159">
        <ele>1744.8</ele>
        <time>2024-08-10T12:51:13Z</time>
      </trkpt>
      <trkpt lat="45.01633" lon="6.37159">
        <ele>1745.2</ele>
        <time>2024-08-10T12:51:14Z</time>
      </trkpt>
      <trkpt lat="45.01633" lon="6.37159">
        <ele>1745.4</ele>
        <time>2024-08-10T12:51:15Z</time>
      </trkpt>
      <trkpt lat="45.01631" lon="6.37157">
        <ele>1745.6</ele>
        <time>2024-08-10T12:51:16Z</time>
      </trkpt>
      <trkpt lat="45.01631" lon="6.37157">
        <ele>1745.8</ele>
        <time>2024-08-10T12:51:17Z</time>
      </trkpt>
      <trkpt lat="45.01629" lon="6.37155">
        <ele>1746</ele>
        <time>2024-08-10T12:51:18Z</time>
      </trkpt>
      <trkpt lat="45.01629" lon="6.37155">
        <ele>1746.4</ele>
        <time>2024-08-10T12:51:19Z</time>
      </trkpt>
      <trkpt lat="45.01629" lon="6.37155">
        <ele>1746.4</ele>
        <time>2024-08-10T12:51:20Z</time>
      </trkpt>
      <trkpt lat="45.01627" lon="6.37154">
        <ele>1746.4</ele>
        <time>2024-08-10T12:51:21Z</time>
      </trkpt>
      <trkpt lat="45.01627" lon="6.37154">
        <ele>1746.8</ele>
        <time>2024-08-10T12:51:22Z</time>
      </trkpt>
      <trkpt lat="45.01625" lon="6.37153">
        <ele>1747</ele>
        <time>2024-08-10T12:51:23Z</time>
      </trkpt>
      <trkpt lat="45.01625" lon="6.37153">
        <ele>1747.4</ele>
        <time>2024-08-10T12:51:24Z</time>
      </trkpt>
      <trkpt lat="45.01625" lon="6.37153">
        <ele>1747.6</ele>
        <time>2024-08-10T12:51:25Z</time>
      </trkpt>
      <trkpt lat="45.01623" lon="6.37152">
        <ele>1747.6</ele>
        <time>2024-08-10T12:51:26Z</time>
      </trkpt>
      <trkpt lat="45.01623" lon="6.37152">
        <ele>1748</ele>
        <time>2024-08-10T12:51:27Z</time>
      </trkpt>
      <trkpt lat="45.01623" lon="6.37152">
        <ele>1748</ele>
        <time>2024-08-10T12:51:28Z</time>
      </trkpt>
      <trkpt lat="45.01621" lon="6.37151">
        <ele>1748</ele>
        <time>2024-08-10T12:51:29Z</time>
      </trkpt>
      <trkpt lat="45.01621" lon="6.37151">
        <ele>1748.8</ele>
        <time>2024-08-10T12:51:30Z</time>
      </trkpt>
      <trkpt lat="45.01621" lon="6.37151">
        <ele>1749</ele>
        <time>2024-08-10T12:51:31Z</time>
      </trkpt>
      <trkpt lat="45.01619" lon="6.3715">
        <ele>1749</ele>
        <time>2024-08-10T12:51:32Z</time>
      </trkpt>
      <trkpt lat="45.01619" lon="6.3715">
        <ele>1749.4</ele>
        <time>2024-08-10T12:51:33Z</time>
      </trkpt>
      <trkpt lat="45.01619" lon="6.3715">
        <ele>1749.6</ele>
        <time>2024-08-10T12:51:34Z</time>
      </trkpt>
      <trkpt lat="45.01617" lon="6.37147">
        <ele>1749.6</ele>
        <time>2024-08-10T12:51:35Z</time>
      </trkpt>
      <trkpt lat="45.01617" lon="6.37147">
        <ele>1749.6</ele>
        <time>2024-08-10T12:51:36Z</time>
      </trkpt>
      <trkpt lat="45.01617" lon="6.37147">
        <ele>1749.4</ele>
        <time>2024-08-10T12:51:37Z</time>
      </trkpt>
      <trkpt lat="45.01617" lon="6.37147">
        <ele>1749.4</ele>
        <time>2024-08-10T12:51:38Z</time>
      </trkpt>
      <trkpt lat="45.01617" lon="6.37147">
        <ele>1749.6</ele>
        <time>2024-08-10T12:51:39Z</time>
      </trkpt>
      <trkpt lat="45.01617" lon="6.37147">
        <ele>1749.6</ele>
        <time>2024-08-10T12:51:40Z</time>
      </trkpt>
      <trkpt lat="45.01617" lon="6.37147">
        <ele>1749.6</ele>
        <time>2024-08-10T12:51:41Z</time>
      </trkpt>
      <trkpt lat="45.01617" lon="6.37147">
        <ele>1749.6</ele>
        <time>2024-08-10T12:51:42Z</time>
      </trkpt>
      <trkpt lat="45.01617" lon="6.37147">
        <ele>1749.4</ele>
        <time>2024-08-10T12:51:43Z</time>
      </trkpt>
      <trkpt lat="45.01617" lon="6.37147">
        <ele>1749.4</ele>
        <time>2024-08-10T12:51:44Z</time>
      </trkpt>
      <trkpt lat="45.01617" lon="6.37147">
        <ele>1749.4</ele>
        <time>2024-08-10T12:51:45Z</time>
      </trkpt>
      <trkpt lat="45.01617" lon="6.37147">
        <ele>1749.4</ele>
        <time>2024-08-10T12:51:46Z</time>
      </trkpt>
      <trkpt lat="45.01617" lon="6.37147">
        <ele>1749.4</ele>
        <time>2024-08-10T12:51:47Z</time>
      </trkpt>
      <trkpt lat="45.01617" lon="6.37147">
        <ele>1749.6</ele>
        <time>2024-08-10T12:51:48Z</time>
      </trkpt>
      <trkpt lat="45.01617" lon="6.37147">
        <ele>1749.6</ele>
        <time>2024-08-10T12:51:49Z</time>
      </trkpt>
      <trkpt lat="45.01617" lon="6.37147">
        <ele>1749.8</ele>
        <time>2024-08-10T12:51:50Z</time>
      </trkpt>
      <trkpt lat="45.01617" lon="6.37147">
        <ele>1750.2</ele>
        <time>2024-08-10T12:51:51Z</time>
      </trkpt>
      <trkpt lat="45.01617" lon="6.37147">
        <ele>1750.2</ele>
        <time>2024-08-10T12:51:52Z</time>
      </trkpt>
      <trkpt lat="45.01617" lon="6.37147">
        <ele>1749.8</ele>
        <time>2024-08-10T12:51:53Z</time>
      </trkpt>
      <trkpt lat="45.01617" lon="6.37147">
        <ele>1749.8</ele>
        <time>2024-08-10T12:51:54Z</time>
      </trkpt>
      <trkpt lat="45.01617" lon="6.37147">
        <ele>1749.8</ele>
        <time>2024-08-10T12:51:55Z</time>
      </trkpt>
      <trkpt lat="45.01617" lon="6.37147">
        <ele>1749.6</ele>
        <time>2024-08-10T12:51:56Z</time>
      </trkpt>
      <trkpt lat="45.01617" lon="6.37147">
        <ele>1749.6</ele>
        <time>2024-08-10T12:51:57Z</time>
      </trkpt>
      <trkpt lat="45.01617" lon="6.37147">
        <ele>1749.6</ele>
        <time>2024-08-10T12:51:58Z</time>
      </trkpt>
      <trkpt lat="45.01617" lon="6.37147">
        <ele>1749.6</ele>
        <time>2024-08-10T12:51:59Z</time>
      </trkpt>
      <trkpt lat="45.01617" lon="6.37147">
        <ele>1749.6</ele>
        <time>2024-08-10T12:52:00Z</time>
      </trkpt>
      <trkpt lat="45.01617" lon="6.37147">
        <ele>1749.6</ele>
        <time>2024-08-10T12:52:01Z</time>
      </trkpt>
      <trkpt lat="45.01617" lon="6.37147">
        <ele>1749.8</ele>
        <time>2024-08-10T12:52:02Z</time>
      </trkpt>
      <trkpt lat="45.01617" lon="6.37147">
        <ele>1750</ele>
        <time>2024-08-10T12:52:03Z</time>
      </trkpt>
      <trkpt lat="45.01617" lon="6.37147">
        <ele>1750</ele>
        <time>2024-08-10T12:52:04Z</time>
      </trkpt>
      <trkpt lat="45.01617" lon="6.37147">
        <ele>1749.8</ele>
        <time>2024-08-10T12:52:05Z</time>
      </trkpt>
      <trkpt lat="45.01617" lon="6.37147">
        <ele>1749.8</ele>
        <time>2024-08-10T12:52:06Z</time>
      </trkpt>
      <trkpt lat="45.01617" lon="6.37147">
        <ele>1749.8</ele>
        <time>2024-08-10T12:52:07Z</time>
      </trkpt>
      <trkpt lat="45.01617" lon="6.37147">
        <ele>1749.8</ele>
        <time>2024-08-10T12:52:08Z</time>
      </trkpt>
      <trkpt lat="45.01617" lon="6.37147">
        <ele>1749.8</ele>
        <time>2024-08-10T12:52:09Z</time>
      </trkpt>
      <trkpt lat="45.01617" lon="6.37147">
        <ele>1749.6</ele>
        <time>2024-08-10T12:52:10Z</time>
      </trkpt>
      <trkpt lat="45.01617" lon="6.37147">
        <ele>1749.6</ele>
        <time>2024-08-10T12:52:11Z</time>
      </trkpt>
      <trkpt lat="45.01617" lon="6.37147">
        <ele>1749.6</ele>
        <time>2024-08-10T12:52:12Z</time>
      </trkpt>
      <trkpt lat="45.01617" lon="6.37147">
        <ele>1749.6</ele>
        <time>2024-08-10T12:52:13Z</time>
      </trkpt>
      <trkpt lat="45.01617" lon="6.37147">
        <ele>1749.6</ele>
        <time>2024-08-10T12:52:14Z</time>
      </trkpt>
      <trkpt lat="45.01617" lon="6.37147">
        <ele>1749.8</ele>
        <time>2024-08-10T12:52:15Z</time>
      </trkpt>
      <trkpt lat="45.01617" lon="6.37147">
        <ele>1749.8</ele>
        <time>2024-08-10T12:52:16Z</time>
      </trkpt>
      <trkpt lat="45.01617" lon="6.37147">
        <ele>1750</ele>
        <time>2024-08-10T12:52:17Z</time>
      </trkpt>
      <trkpt lat="45.01617" lon="6.37147">
        <ele>1750</ele>
        <time>2024-08-10T12:52:18Z</time>
      </trkpt>
      <trkpt lat="45.01617" lon="6.37147">
        <ele>1750.2</ele>
        <time>2024-08-10T12:52:19Z</time>
      </trkpt>
      <trkpt lat="45.01617" lon="6.37147">
        <ele>1750.2</ele>
        <time>2024-08-10T12:52:20Z</time>
      </trkpt>
      <trkpt lat="45.01617" lon="6.37147">
        <ele>1750.2</ele>
        <time>2024-08-10T12:52:21Z</time>
      </trkpt>
      <trkpt lat="45.01617" lon="6.37147">
        <ele>1750.2</ele>
        <time>2024-08-10T12:52:22Z</time>
      </trkpt>
      <trkpt lat="45.01617" lon="6.37147">
        <ele>1750.2</ele>
        <time>2024-08-10T12:52:23Z</time>
      </trkpt>
      <trkpt lat="45.01617" lon="6.37147">
        <ele>1750</ele>
        <time>2024-08-10T12:52:24Z</time>
      </trkpt>
      <trkpt lat="45.01617" lon="6.37147">
        <ele>1750</ele>
        <time>2024-08-10T12:52:25Z</time>
      </trkpt>
      <trkpt lat="45.01617" lon="6.37147">
        <ele>1750</ele>
        <time>2024-08-10T12:52:26Z</time>
      </trkpt>
      <trkpt lat="45.01617" lon="6.37147">
        <ele>1750</ele>
        <time>2024-08-10T12:52:27Z</time>
      </trkpt>
      <trkpt lat="45.01617" lon="6.37147">
        <ele>1750.2</ele>
        <time>2024-08-10T12:52:28Z</time>
      </trkpt>
      <trkpt lat="45.01617" lon="6.37147">
        <ele>1750.2</ele>
        <time>2024-08-10T12:52:29Z</time>
      </trkpt>
      <trkpt lat="45.01617" lon="6.37147">
        <ele>1750.4</ele>
        <time>2024-08-10T12:52:30Z</time>
      </trkpt>
      <trkpt lat="45.01617" lon="6.37147">
        <ele>1750.4</ele>
        <time>2024-08-10T12:52:31Z</time>
      </trkpt>
      <trkpt lat="45.01617" lon="6.37147">
        <ele>1750.4</ele>
        <time>2024-08-10T12:52:32Z</time>
      </trkpt>
      <trkpt lat="45.01617" lon="6.37147">
        <ele>1750.4</ele>
        <time>2024-08-10T12:52:33Z</time>
      </trkpt>
      <trkpt lat="45.01617" lon="6.37147">
        <ele>1750.4</ele>
        <time>2024-08-10T12:52:34Z</time>
      </trkpt>
      <trkpt lat="45.01617" lon="6.37147">
        <ele>1750.4</ele>
        <time>2024-08-10T12:52:35Z</time>
      </trkpt>
      <trkpt lat="45.01617" lon="6.37147">
        <ele>1750.2</ele>
        <time>2024-08-10T12:52:36Z</time>
      </trkpt>
      <trkpt lat="45.01617" lon="6.37147">
        <ele>1749.8</ele>
        <time>2024-08-10T12:52:37Z</time>
      </trkpt>
      <trkpt lat="45.01617" lon="6.37147">
        <ele>1749.4</ele>
        <time>2024-08-10T12:52:38Z</time>
      </trkpt>
      <trkpt lat="45.01617" lon="6.37147">
        <ele>1749.4</ele>
        <time>2024-08-10T12:52:39Z</time>
      </trkpt>
      <trkpt lat="45.01617" lon="6.37147">
        <ele>1749.6</ele>
        <time>2024-08-10T12:52:40Z</time>
      </trkpt>
      <trkpt lat="45.01617" lon="6.37147">
        <ele>1749.8</ele>
        <time>2024-08-10T12:52:41Z</time>
      </trkpt>
      <trkpt lat="45.01617" lon="6.37147">
        <ele>1749.8</ele>
        <time>2024-08-10T12:52:42Z</time>
      </trkpt>
      <trkpt lat="45.01617" lon="6.37147">
        <ele>1749.8</ele>
        <time>2024-08-10T12:52:43Z</time>
      </trkpt>
      <trkpt lat="45.01617" lon="6.37147">
        <ele>1749.8</ele>
        <time>2024-08-10T12:52:44Z</time>
      </trkpt>
      <trkpt lat="45.01617" lon="6.37147">
        <ele>1749.6</ele>
        <time>2024-08-10T12:52:45Z</time>
      </trkpt>
      <trkpt lat="45.01617" lon="6.37147">
        <ele>1749.6</ele>
        <time>2024-08-10T12:52:46Z</time>
      </trkpt>
      <trkpt lat="45.01617" lon="6.37147">
        <ele>1749.6</ele>
        <time>2024-08-10T12:52:47Z</time>
      </trkpt>
      <trkpt lat="45.01617" lon="6.37147">
        <ele>1750</ele>
        <time>2024-08-10T12:52:48Z</time>
      </trkpt>
      <trkpt lat="45.01617" lon="6.37147">
        <ele>1750</ele>
        <time>2024-08-10T12:52:49Z</time>
      </trkpt>
      <trkpt lat="45.01617" lon="6.37147">
        <ele>1750</ele>
        <time>2024-08-10T12:52:50Z</time>
      </trkpt>
      <trkpt lat="45.01617" lon="6.37147">
        <ele>1750</ele>
        <time>2024-08-10T12:52:51Z</time>
      </trkpt>
      <trkpt lat="45.01617" lon="6.37147">
        <ele>1750</ele>
        <time>2024-08-10T12:52:52Z</time>
      </trkpt>
      <trkpt lat="45.01616" lon="6.37145">
        <ele>1750.4</ele>
        <time>2024-08-10T12:52:53Z</time>
      </trkpt>
      <trkpt lat="45.01616" lon="6.37145">
        <ele>1750.4</ele>
        <time>2024-08-10T12:52:54Z</time>
      </trkpt>
      <trkpt lat="45.01614" lon="6.37144">
        <ele>1750.4</ele>
        <time>2024-08-10T12:52:55Z</time>
      </trkpt>
      <trkpt lat="45.01614" lon="6.37144">
        <ele>1750.6</ele>
        <time>2024-08-10T12:52:56Z</time>
      </trkpt>
      <trkpt lat="45.01614" lon="6.37144">
        <ele>1750.6</ele>
        <time>2024-08-10T12:52:57Z</time>
      </trkpt>
      <trkpt lat="45.01612" lon="6.37143">
        <ele>1750.8</ele>
        <time>2024-08-10T12:52:58Z</time>
      </trkpt>
      <trkpt lat="45.01612" lon="6.37143">
        <ele>1751</ele>
        <time>2024-08-10T12:52:59Z</time>
      </trkpt>
      <trkpt lat="45.01612" lon="6.37143">
        <ele>1751.2</ele>
        <time>2024-08-10T12:53:00Z</time>
      </trkpt>
      <trkpt lat="45.01612" lon="6.37143">
        <ele>1751.2</ele>
        <time>2024-08-10T12:53:01Z</time>
      </trkpt>
      <trkpt lat="45.01612" lon="6.37143">
        <ele>1751.2</ele>
        <time>2024-08-10T12:53:02Z</time>
      </trkpt>
      <trkpt lat="45.01612" lon="6.37143">
        <ele>1751.4</ele>
        <time>2024-08-10T12:53:03Z</time>
      </trkpt>
      <trkpt lat="45.0161" lon="6.37143">
        <ele>1751.4</ele>
        <time>2024-08-10T12:53:04Z</time>
      </trkpt>
      <trkpt lat="45.0161" lon="6.37143">
        <ele>1751.4</ele>
        <time>2024-08-10T12:53:05Z</time>
      </trkpt>
      <trkpt lat="45.01608" lon="6.37144">
        <ele>1751.4</ele>
        <time>2024-08-10T12:53:06Z</time>
      </trkpt>
      <trkpt lat="45.01608" lon="6.37144">
        <ele>1751.6</ele>
        <time>2024-08-10T12:53:07Z</time>
      </trkpt>
      <trkpt lat="45.01606" lon="6.37144">
        <ele>1751.8</ele>
        <time>2024-08-10T12:53:08Z</time>
      </trkpt>
      <trkpt lat="45.01606" lon="6.37144">
        <ele>1752</ele>
        <time>2024-08-10T12:53:09Z</time>
      </trkpt>
      <trkpt lat="45.01604" lon="6.37144">
        <ele>1752.2</ele>
        <time>2024-08-10T12:53:10Z</time>
      </trkpt>
      <trkpt lat="45.01604" lon="6.37144">
        <ele>1752.6</ele>
        <time>2024-08-10T12:53:11Z</time>
      </trkpt>
      <trkpt lat="45.01604" lon="6.37144">
        <ele>1752.6</ele>
        <time>2024-08-10T12:53:12Z</time>
      </trkpt>
      <trkpt lat="45.01602" lon="6.37144">
        <ele>1752.6</ele>
        <time>2024-08-10T12:53:13Z</time>
      </trkpt>
      <trkpt lat="45.01602" lon="6.37144">
        <ele>1752.6</ele>
        <time>2024-08-10T12:53:14Z</time>
      </trkpt>
      <trkpt lat="45.016" lon="6.37144">
        <ele>1753</ele>
        <time>2024-08-10T12:53:15Z</time>
      </trkpt>
      <trkpt lat="45.016" lon="6.37144">
        <ele>1753.4</ele>
        <time>2024-08-10T12:53:16Z</time>
      </trkpt>
      <trkpt lat="45.016" lon="6.37144">
        <ele>1753.4</ele>
        <time>2024-08-10T12:53:17Z</time>
      </trkpt>
      <trkpt lat="45.01598" lon="6.37144">
        <ele>1753.6</ele>
        <time>2024-08-10T12:53:18Z</time>
      </trkpt>
      <trkpt lat="45.01598" lon="6.37144">
        <ele>1754</ele>
        <time>2024-08-10T12:53:19Z</time>
      </trkpt>
      <trkpt lat="45.01598" lon="6.37144">
        <ele>1754.2</ele>
        <time>2024-08-10T12:53:20Z</time>
      </trkpt>
      <trkpt lat="45.01598" lon="6.37144">
        <ele>1754.6</ele>
        <time>2024-08-10T12:53:21Z</time>
      </trkpt>
      <trkpt lat="45.01596" lon="6.37143">
        <ele>1754.8</ele>
        <time>2024-08-10T12:53:22Z</time>
      </trkpt>
      <trkpt lat="45.01596" lon="6.37143">
        <ele>1755</ele>
        <time>2024-08-10T12:53:23Z</time>
      </trkpt>
      <trkpt lat="45.01593" lon="6.37143">
        <ele>1755.2</ele>
        <time>2024-08-10T12:53:24Z</time>
      </trkpt>
      <trkpt lat="45.01593" lon="6.37143">
        <ele>1755.4</ele>
        <time>2024-08-10T12:53:25Z</time>
      </trkpt>
      <trkpt lat="45.01591" lon="6.37142">
        <ele>1755.4</ele>
        <time>2024-08-10T12:53:26Z</time>
      </trkpt>
      <trkpt lat="45.01591" lon="6.37142">
        <ele>1755.8</ele>
        <time>2024-08-10T12:53:27Z</time>
      </trkpt>
      <trkpt lat="45.01591" lon="6.37142">
        <ele>1756.2</ele>
        <time>2024-08-10T12:53:28Z</time>
      </trkpt>
      <trkpt lat="45.01589" lon="6.37143">
        <ele>1756.4</ele>
        <time>2024-08-10T12:53:29Z</time>
      </trkpt>
      <trkpt lat="45.01589" lon="6.37143">
        <ele>1756.4</ele>
        <time>2024-08-10T12:53:30Z</time>
      </trkpt>
      <trkpt lat="45.01589" lon="6.37143">
        <ele>1756.6</ele>
        <time>2024-08-10T12:53:31Z</time>
      </trkpt>
      <trkpt lat="45.01587" lon="6.37142">
        <ele>1756.8</ele>
        <time>2024-08-10T12:53:32Z</time>
      </trkpt>
      <trkpt lat="45.01587" lon="6.37142">
        <ele>1757.2</ele>
        <time>2024-08-10T12:53:33Z</time>
      </trkpt>
      <trkpt lat="45.01585" lon="6.37142">
        <ele>1757.2</ele>
        <time>2024-08-10T12:53:34Z</time>
      </trkpt>
      <trkpt lat="45.01585" lon="6.37142">
        <ele>1757.2</ele>
        <time>2024-08-10T12:53:35Z</time>
      </trkpt>
      <trkpt lat="45.01585" lon="6.37142">
        <ele>1757.4</ele>
        <time>2024-08-10T12:53:36Z</time>
      </trkpt>
      <trkpt lat="45.01583" lon="6.3714">
        <ele>1757.6</ele>
        <time>2024-08-10T12:53:37Z</time>
      </trkpt>
      <trkpt lat="45.01583" lon="6.3714">
        <ele>1757.8</ele>
        <time>2024-08-10T12:53:38Z</time>
      </trkpt>
      <trkpt lat="45.01583" lon="6.3714">
        <ele>1757.8</ele>
        <time>2024-08-10T12:53:39Z</time>
      </trkpt>
      <trkpt lat="45.01583" lon="6.3714">
        <ele>1758.2</ele>
        <time>2024-08-10T12:53:40Z</time>
      </trkpt>
      <trkpt lat="45.01583" lon="6.3714">
        <ele>1758.6</ele>
        <time>2024-08-10T12:53:41Z</time>
      </trkpt>
      <trkpt lat="45.01581" lon="6.37139">
        <ele>1758.8</ele>
        <time>2024-08-10T12:53:42Z</time>
      </trkpt>
      <trkpt lat="45.01581" lon="6.37139">
        <ele>1759</ele>
        <time>2024-08-10T12:53:43Z</time>
      </trkpt>
      <trkpt lat="45.01579" lon="6.37139">
        <ele>1759.2</ele>
        <time>2024-08-10T12:53:44Z</time>
      </trkpt>
      <trkpt lat="45.01579" lon="6.37139">
        <ele>1759.2</ele>
        <time>2024-08-10T12:53:45Z</time>
      </trkpt>
      <trkpt lat="45.01577" lon="6.37139">
        <ele>1759.2</ele>
        <time>2024-08-10T12:53:46Z</time>
      </trkpt>
      <trkpt lat="45.01577" lon="6.37139">
        <ele>1759.4</ele>
        <time>2024-08-10T12:53:47Z</time>
      </trkpt>
      <trkpt lat="45.01577" lon="6.37139">
        <ele>1759.8</ele>
        <time>2024-08-10T12:53:48Z</time>
      </trkpt>
      <trkpt lat="45.01575" lon="6.37138">
        <ele>1760</ele>
        <time>2024-08-10T12:53:49Z</time>
      </trkpt>
      <trkpt lat="45.01575" lon="6.37138">
        <ele>1760.2</ele>
        <time>2024-08-10T12:53:50Z</time>
      </trkpt>
      <trkpt lat="45.01575" lon="6.37138">
        <ele>1760.2</ele>
        <time>2024-08-10T12:53:51Z</time>
      </trkpt>
      <trkpt lat="45.01573" lon="6.37137">
        <ele>1760.4</ele>
        <time>2024-08-10T12:53:52Z</time>
      </trkpt>
      <trkpt lat="45.01573" lon="6.37137">
        <ele>1760.8</ele>
        <time>2024-08-10T12:53:53Z</time>
      </trkpt>
      <trkpt lat="45.01573" lon="6.37137">
        <ele>1761</ele>
        <time>2024-08-10T12:53:54Z</time>
      </trkpt>
      <trkpt lat="45.01571" lon="6.37136">
        <ele>1761</ele>
        <time>2024-08-10T12:53:55Z</time>
      </trkpt>
      <trkpt lat="45.01571" lon="6.37136">
        <ele>1761.2</ele>
        <time>2024-08-10T12:53:56Z</time>
      </trkpt>
      <trkpt lat="45.01571" lon="6.37136">
        <ele>1761.4</ele>
        <time>2024-08-10T12:53:57Z</time>
      </trkpt>
      <trkpt lat="45.01571" lon="6.37136">
        <ele>1762</ele>
        <time>2024-08-10T12:53:58Z</time>
      </trkpt>
      <trkpt lat="45.01571" lon="6.37136">
        <ele>1762</ele>
        <time>2024-08-10T12:53:59Z</time>
      </trkpt>
      <trkpt lat="45.01569" lon="6.37136">
        <ele>1762.2</ele>
        <time>2024-08-10T12:54:00Z</time>
      </trkpt>
      <trkpt lat="45.01569" lon="6.37136">
        <ele>1762.4</ele>
        <time>2024-08-10T12:54:01Z</time>
      </trkpt>
      <trkpt lat="45.01569" lon="6.37136">
        <ele>1762.4</ele>
        <time>2024-08-10T12:54:02Z</time>
      </trkpt>
      <trkpt lat="45.01569" lon="6.37136">
        <ele>1763</ele>
        <time>2024-08-10T12:54:03Z</time>
      </trkpt>
      <trkpt lat="45.01569" lon="6.37136">
        <ele>1763</ele>
        <time>2024-08-10T12:54:04Z</time>
      </trkpt>
      <trkpt lat="45.01567" lon="6.37136">
        <ele>1763</ele>
        <time>2024-08-10T12:54:05Z</time>
      </trkpt>
      <trkpt lat="45.01567" lon="6.37136">
        <ele>1763.2</ele>
        <time>2024-08-10T12:54:06Z</time>
      </trkpt>
      <trkpt lat="45.01567" lon="6.37136">
        <ele>1763.4</ele>
        <time>2024-08-10T12:54:07Z</time>
      </trkpt>
      <trkpt lat="45.01567" lon="6.37136">
        <ele>1763.4</ele>
        <time>2024-08-10T12:54:08Z</time>
      </trkpt>
      <trkpt lat="45.01567" lon="6.37136">
        <ele>1763.8</ele>
        <time>2024-08-10T12:54:09Z</time>
      </trkpt>
      <trkpt lat="45.01565" lon="6.37133">
        <ele>1764</ele>
        <time>2024-08-10T12:54:10Z</time>
      </trkpt>
      <trkpt lat="45.01565" lon="6.37133">
        <ele>1764</ele>
        <time>2024-08-10T12:54:11Z</time>
      </trkpt>
      <trkpt lat="45.01565" lon="6.37133">
        <ele>1764.2</ele>
        <time>2024-08-10T12:54:12Z</time>
      </trkpt>
      <trkpt lat="45.01565" lon="6.3713">
        <ele>1764.6</ele>
        <time>2024-08-10T12:54:13Z</time>
      </trkpt>
      <trkpt lat="45.01565" lon="6.3713">
        <ele>1764.8</ele>
        <time>2024-08-10T12:54:14Z</time>
      </trkpt>
      <trkpt lat="45.01565" lon="6.3713">
        <ele>1764.8</ele>
        <time>2024-08-10T12:54:15Z</time>
      </trkpt>
      <trkpt lat="45.01564" lon="6.37128">
        <ele>1765.2</ele>
        <time>2024-08-10T12:54:16Z</time>
      </trkpt>
      <trkpt lat="45.01564" lon="6.37128">
        <ele>1765.2</ele>
        <time>2024-08-10T12:54:17Z</time>
      </trkpt>
      <trkpt lat="45.01564" lon="6.37128">
        <ele>1765.2</ele>
        <time>2024-08-10T12:54:18Z</time>
      </trkpt>
      <trkpt lat="45.01562" lon="6.37127">
        <ele>1765.4</ele>
        <time>2024-08-10T12:54:19Z</time>
      </trkpt>
      <trkpt lat="45.01562" lon="6.37127">
        <ele>1765.8</ele>
        <time>2024-08-10T12:54:20Z</time>
      </trkpt>
      <trkpt lat="45.0156" lon="6.37126">
        <ele>1765.8</ele>
        <time>2024-08-10T12:54:21Z</time>
      </trkpt>
      <trkpt lat="45.0156" lon="6.37126">
        <ele>1765.8</ele>
        <time>2024-08-10T12:54:22Z</time>
      </trkpt>
      <trkpt lat="45.0156" lon="6.37126">
        <ele>1766</ele>
        <time>2024-08-10T12:54:23Z</time>
      </trkpt>
      <trkpt lat="45.0156" lon="6.37126">
        <ele>1766.2</ele>
        <time>2024-08-10T12:54:24Z</time>
      </trkpt>
      <trkpt lat="45.01557" lon="6.37127">
        <ele>1766.2</ele>
        <time>2024-08-10T12:54:25Z</time>
      </trkpt>
      <trkpt lat="45.01557" lon="6.37127">
        <ele>1766.2</ele>
        <time>2024-08-10T12:54:26Z</time>
      </trkpt>
      <trkpt lat="45.01557" lon="6.37127">
        <ele>1766.2</ele>
        <time>2024-08-10T12:54:27Z</time>
      </trkpt>
      <trkpt lat="45.01557" lon="6.37127">
        <ele>1766.4</ele>
        <time>2024-08-10T12:54:28Z</time>
      </trkpt>
      <trkpt lat="45.01556" lon="6.37124">
        <ele>1766.6</ele>
        <time>2024-08-10T12:54:29Z</time>
      </trkpt>
      <trkpt lat="45.01556" lon="6.37124">
        <ele>1766.8</ele>
        <time>2024-08-10T12:54:30Z</time>
      </trkpt>
      <trkpt lat="45.01556" lon="6.37124">
        <ele>1766.8</ele>
        <time>2024-08-10T12:54:31Z</time>
      </trkpt>
      <trkpt lat="45.01555" lon="6.37121">
        <ele>1767.2</ele>
        <time>2024-08-10T12:54:32Z</time>
      </trkpt>
      <trkpt lat="45.01555" lon="6.37121">
        <ele>1767.6</ele>
        <time>2024-08-10T12:54:33Z</time>
      </trkpt>
      <trkpt lat="45.01555" lon="6.37121">
        <ele>1768.2</ele>
        <time>2024-08-10T12:54:34Z</time>
      </trkpt>
      <trkpt lat="45.01553" lon="6.37119">
        <ele>1768.4</ele>
        <time>2024-08-10T12:54:35Z</time>
      </trkpt>
      <trkpt lat="45.01553" lon="6.37119">
        <ele>1768.4</ele>
        <time>2024-08-10T12:54:36Z</time>
      </trkpt>
      <trkpt lat="45.01553" lon="6.37119">
        <ele>1768.2</ele>
        <time>2024-08-10T12:54:37Z</time>
      </trkpt>
      <trkpt lat="45.0155" lon="6.3712">
        <ele>1768.2</ele>
        <time>2024-08-10T12:54:38Z</time>
      </trkpt>
      <trkpt lat="45.0155" lon="6.3712">
        <ele>1768.4</ele>
        <time>2024-08-10T12:54:39Z</time>
      </trkpt>
      <trkpt lat="45.01549" lon="6.37119">
        <ele>1768.4</ele>
        <time>2024-08-10T12:54:40Z</time>
      </trkpt>
      <trkpt lat="45.01549" lon="6.37119">
        <ele>1768.8</ele>
        <time>2024-08-10T12:54:41Z</time>
      </trkpt>
      <trkpt lat="45.01548" lon="6.37116">
        <ele>1769.2</ele>
        <time>2024-08-10T12:54:42Z</time>
      </trkpt>
      <trkpt lat="45.01548" lon="6.37116">
        <ele>1769.4</ele>
        <time>2024-08-10T12:54:43Z</time>
      </trkpt>
      <trkpt lat="45.01547" lon="6.37114">
        <ele>1769.4</ele>
        <time>2024-08-10T12:54:44Z</time>
      </trkpt>
      <trkpt lat="45.01547" lon="6.37114">
        <ele>1769.6</ele>
        <time>2024-08-10T12:54:45Z</time>
      </trkpt>
      <trkpt lat="45.01546" lon="6.37111">
        <ele>1769.8</ele>
        <time>2024-08-10T12:54:46Z</time>
      </trkpt>
      <trkpt lat="45.01546" lon="6.37111">
        <ele>1770</ele>
        <time>2024-08-10T12:54:47Z</time>
      </trkpt>
      <trkpt lat="45.01546" lon="6.37111">
        <ele>1770.4</ele>
        <time>2024-08-10T12:54:48Z</time>
      </trkpt>
      <trkpt lat="45.01544" lon="6.3711">
        <ele>1770.6</ele>
        <time>2024-08-10T12:54:49Z</time>
      </trkpt>
      <trkpt lat="45.01544" lon="6.3711">
        <ele>1770.6</ele>
        <time>2024-08-10T12:54:50Z</time>
      </trkpt>
      <trkpt lat="45.01544" lon="6.3711">
        <ele>1770.6</ele>
        <time>2024-08-10T12:54:51Z</time>
      </trkpt>
      <trkpt lat="45.01541" lon="6.37109">
        <ele>1771</ele>
        <time>2024-08-10T12:54:52Z</time>
      </trkpt>
      <trkpt lat="45.01541" lon="6.37109">
        <ele>1771.2</ele>
        <time>2024-08-10T12:54:53Z</time>
      </trkpt>
      <trkpt lat="45.0154" lon="6.37108">
        <ele>1771.6</ele>
        <time>2024-08-10T12:54:54Z</time>
      </trkpt>
      <trkpt lat="45.0154" lon="6.37108">
        <ele>1771.6</ele>
        <time>2024-08-10T12:54:55Z</time>
      </trkpt>
      <trkpt lat="45.01538" lon="6.37107">
        <ele>1771.8</ele>
        <time>2024-08-10T12:54:56Z</time>
      </trkpt>
      <trkpt lat="45.01538" lon="6.37107">
        <ele>1771.8</ele>
        <time>2024-08-10T12:54:57Z</time>
      </trkpt>
      <trkpt lat="45.01538" lon="6.37107">
        <ele>1772</ele>
        <time>2024-08-10T12:54:58Z</time>
      </trkpt>
      <trkpt lat="45.01535" lon="6.37107">
        <ele>1772.2</ele>
        <time>2024-08-10T12:54:59Z</time>
      </trkpt>
      <trkpt lat="45.01533" lon="6.37109">
        <ele>1772.4</ele>
        <time>2024-08-10T12:55:00Z</time>
      </trkpt>
      <trkpt lat="45.01533" lon="6.37109">
        <ele>1772.8</ele>
        <time>2024-08-10T12:55:01Z</time>
      </trkpt>
      <trkpt lat="45.01532" lon="6.37111">
        <ele>1773</ele>
        <time>2024-08-10T12:55:02Z</time>
      </trkpt>
      <trkpt lat="45.01532" lon="6.37111">
        <ele>1773.2</ele>
        <time>2024-08-10T12:55:03Z</time>
      </trkpt>
      <trkpt lat="45.01532" lon="6.37111">
        <ele>1773.2</ele>
        <time>2024-08-10T12:55:04Z</time>
      </trkpt>
      <trkpt lat="45.0153" lon="6.37114">
        <ele>1773.4</ele>
        <time>2024-08-10T12:55:05Z</time>
      </trkpt>
      <trkpt lat="45.0153" lon="6.37114">
        <ele>1773.6</ele>
        <time>2024-08-10T12:55:06Z</time>
      </trkpt>
      <trkpt lat="45.0153" lon="6.37114">
        <ele>1773.8</ele>
        <time>2024-08-10T12:55:07Z</time>
      </trkpt>
      <trkpt lat="45.01528" lon="6.37117">
        <ele>1774</ele>
        <time>2024-08-10T12:55:08Z</time>
      </trkpt>
      <trkpt lat="45.01528" lon="6.37117">
        <ele>1774</ele>
        <time>2024-08-10T12:55:09Z</time>
      </trkpt>
      <trkpt lat="45.01527" lon="6.37119">
        <ele>1774.2</ele>
        <time>2024-08-10T12:55:10Z</time>
      </trkpt>
      <trkpt lat="45.01527" lon="6.37119">
        <ele>1774.2</ele>
        <time>2024-08-10T12:55:11Z</time>
      </trkpt>
      <trkpt lat="45.01526" lon="6.37121">
        <ele>1774.2</ele>
        <time>2024-08-10T12:55:12Z</time>
      </trkpt>
      <trkpt lat="45.01526" lon="6.37121">
        <ele>1774.4</ele>
        <time>2024-08-10T12:55:13Z</time>
      </trkpt>
      <trkpt lat="45.01525" lon="6.37125">
        <ele>1774.8</ele>
        <time>2024-08-10T12:55:14Z</time>
      </trkpt>
      <trkpt lat="45.01525" lon="6.37125">
        <ele>1774.8</ele>
        <time>2024-08-10T12:55:15Z</time>
      </trkpt>
      <trkpt lat="45.01524" lon="6.37129">
        <ele>1774.8</ele>
        <time>2024-08-10T12:55:16Z</time>
      </trkpt>
      <trkpt lat="45.01524" lon="6.37129">
        <ele>1774.8</ele>
        <time>2024-08-10T12:55:17Z</time>
      </trkpt>
      <trkpt lat="45.01523" lon="6.37132">
        <ele>1775</ele>
        <time>2024-08-10T12:55:18Z</time>
      </trkpt>
      <trkpt lat="45.01523" lon="6.37132">
        <ele>1775</ele>
        <time>2024-08-10T12:55:19Z</time>
      </trkpt>
      <trkpt lat="45.01521" lon="6.37134">
        <ele>1775</ele>
        <time>2024-08-10T12:55:20Z</time>
      </trkpt>
      <trkpt lat="45.01521" lon="6.37134">
        <ele>1775.2</ele>
        <time>2024-08-10T12:55:21Z</time>
      </trkpt>
      <trkpt lat="45.0152" lon="6.37135">
        <ele>1775.2</ele>
        <time>2024-08-10T12:55:22Z</time>
      </trkpt>
      <trkpt lat="45.0152" lon="6.37135">
        <ele>1775.4</ele>
        <time>2024-08-10T12:55:23Z</time>
      </trkpt>
      <trkpt lat="45.01517" lon="6.37136">
        <ele>1775.6</ele>
        <time>2024-08-10T12:55:24Z</time>
      </trkpt>
      <trkpt lat="45.01517" lon="6.37136">
        <ele>1775.8</ele>
        <time>2024-08-10T12:55:25Z</time>
      </trkpt>
      <trkpt lat="45.01517" lon="6.37136">
        <ele>1776.4</ele>
        <time>2024-08-10T12:55:26Z</time>
      </trkpt>
      <trkpt lat="45.01515" lon="6.37137">
        <ele>1776.6</ele>
        <time>2024-08-10T12:55:27Z</time>
      </trkpt>
      <trkpt lat="45.01515" lon="6.37137">
        <ele>1776.8</ele>
        <time>2024-08-10T12:55:28Z</time>
      </trkpt>
      <trkpt lat="45.01514" lon="6.37139">
        <ele>1777</ele>
        <time>2024-08-10T12:55:29Z</time>
      </trkpt>
      <trkpt lat="45.01514" lon="6.37139">
        <ele>1777.2</ele>
        <time>2024-08-10T12:55:30Z</time>
      </trkpt>
      <trkpt lat="45.01512" lon="6.3714">
        <ele>1777.2</ele>
        <time>2024-08-10T12:55:31Z</time>
      </trkpt>
      <trkpt lat="45.01512" lon="6.3714">
        <ele>1777.2</ele>
        <time>2024-08-10T12:55:32Z</time>
      </trkpt>
      <trkpt lat="45.0151" lon="6.37141">
        <ele>1777.2</ele>
        <time>2024-08-10T12:55:33Z</time>
      </trkpt>
      <trkpt lat="45.0151" lon="6.37141">
        <ele>1777.2</ele>
        <time>2024-08-10T12:55:34Z</time>
      </trkpt>
      <trkpt lat="45.01509" lon="6.37143">
        <ele>1777.2</ele>
        <time>2024-08-10T12:55:35Z</time>
      </trkpt>
      <trkpt lat="45.01509" lon="6.37143">
        <ele>1777.4</ele>
        <time>2024-08-10T12:55:36Z</time>
      </trkpt>
      <trkpt lat="45.01509" lon="6.37143">
        <ele>1777.6</ele>
        <time>2024-08-10T12:55:37Z</time>
      </trkpt>
      <trkpt lat="45.01506" lon="6.37143">
        <ele>1778.4</ele>
        <time>2024-08-10T12:55:38Z</time>
      </trkpt>
      <trkpt lat="45.01506" lon="6.37143">
        <ele>1778.6</ele>
        <time>2024-08-10T12:55:39Z</time>
      </trkpt>
      <trkpt lat="45.01504" lon="6.37145">
        <ele>1778.8</ele>
        <time>2024-08-10T12:55:40Z</time>
      </trkpt>
      <trkpt lat="45.01504" lon="6.37145">
        <ele>1778.8</ele>
        <time>2024-08-10T12:55:41Z</time>
      </trkpt>
      <trkpt lat="45.01504" lon="6.37145">
        <ele>1779</ele>
        <time>2024-08-10T12:55:42Z</time>
      </trkpt>
      <trkpt lat="45.01503" lon="6.37148">
        <ele>1779</ele>
        <time>2024-08-10T12:55:43Z</time>
      </trkpt>
      <trkpt lat="45.01503" lon="6.37148">
        <ele>1779</ele>
        <time>2024-08-10T12:55:44Z</time>
      </trkpt>
      <trkpt lat="45.01503" lon="6.37148">
        <ele>1779</ele>
        <time>2024-08-10T12:55:45Z</time>
      </trkpt>
      <trkpt lat="45.01501" lon="6.37151">
        <ele>1779.2</ele>
        <time>2024-08-10T12:55:46Z</time>
      </trkpt>
      <trkpt lat="45.01501" lon="6.37151">
        <ele>1779.2</ele>
        <time>2024-08-10T12:55:47Z</time>
      </trkpt>
      <trkpt lat="45.01501" lon="6.37151">
        <ele>1779.2</ele>
        <time>2024-08-10T12:55:48Z</time>
      </trkpt>
      <trkpt lat="45.01499" lon="6.37153">
        <ele>1779.6</ele>
        <time>2024-08-10T12:55:49Z</time>
      </trkpt>
      <trkpt lat="45.01499" lon="6.37153">
        <ele>1779.8</ele>
        <time>2024-08-10T12:55:50Z</time>
      </trkpt>
      <trkpt lat="45.01498" lon="6.37155">
        <ele>1780</ele>
        <time>2024-08-10T12:55:51Z</time>
      </trkpt>
      <trkpt lat="45.01498" lon="6.37155">
        <ele>1780.6</ele>
        <time>2024-08-10T12:55:52Z</time>
      </trkpt>
      <trkpt lat="45.01496" lon="6.37157">
        <ele>1780.8</ele>
        <time>2024-08-10T12:55:53Z</time>
      </trkpt>
      <trkpt lat="45.01496" lon="6.37157">
        <ele>1781</ele>
        <time>2024-08-10T12:55:54Z</time>
      </trkpt>
      <trkpt lat="45.01496" lon="6.37157">
        <ele>1781.6</ele>
        <time>2024-08-10T12:55:55Z</time>
      </trkpt>
      <trkpt lat="45.01494" lon="6.37157">
        <ele>1781.8</ele>
        <time>2024-08-10T12:55:56Z</time>
      </trkpt>
      <trkpt lat="45.01494" lon="6.37157">
        <ele>1781.8</ele>
        <time>2024-08-10T12:55:57Z</time>
      </trkpt>
      <trkpt lat="45.01494" lon="6.37157">
        <ele>1782</ele>
        <time>2024-08-10T12:55:58Z</time>
      </trkpt>
      <trkpt lat="45.01491" lon="6.37158">
        <ele>1782.4</ele>
        <time>2024-08-10T12:55:59Z</time>
      </trkpt>
      <trkpt lat="45.01491" lon="6.37158">
        <ele>1782.8</ele>
        <time>2024-08-10T12:56:00Z</time>
      </trkpt>
      <trkpt lat="45.01489" lon="6.37159">
        <ele>1783</ele>
        <time>2024-08-10T12:56:01Z</time>
      </trkpt>
      <trkpt lat="45.01489" lon="6.37159">
        <ele>1783.2</ele>
        <time>2024-08-10T12:56:02Z</time>
      </trkpt>
      <trkpt lat="45.01488" lon="6.37161">
        <ele>1783.2</ele>
        <time>2024-08-10T12:56:03Z</time>
      </trkpt>
      <trkpt lat="45.01488" lon="6.37161">
        <ele>1783.2</ele>
        <time>2024-08-10T12:56:04Z</time>
      </trkpt>
      <trkpt lat="45.01486" lon="6.37164">
        <ele>1783.2</ele>
        <time>2024-08-10T12:56:05Z</time>
      </trkpt>
      <trkpt lat="45.01486" lon="6.37164">
        <ele>1783.2</ele>
        <time>2024-08-10T12:56:06Z</time>
      </trkpt>
      <trkpt lat="45.01486" lon="6.37164">
        <ele>1783.2</ele>
        <time>2024-08-10T12:56:07Z</time>
      </trkpt>
      <trkpt lat="45.01484" lon="6.37166">
        <ele>1783.2</ele>
        <time>2024-08-10T12:56:08Z</time>
      </trkpt>
      <trkpt lat="45.01484" lon="6.37166">
        <ele>1783.2</ele>
        <time>2024-08-10T12:56:09Z</time>
      </trkpt>
      <trkpt lat="45.01482" lon="6.37168">
        <ele>1783.2</ele>
        <time>2024-08-10T12:56:10Z</time>
      </trkpt>
      <trkpt lat="45.01482" lon="6.37168">
        <ele>1783</ele>
        <time>2024-08-10T12:56:11Z</time>
      </trkpt>
      <trkpt lat="45.01482" lon="6.37168">
        <ele>1783</ele>
        <time>2024-08-10T12:56:12Z</time>
      </trkpt>
      <trkpt lat="45.01481" lon="6.37171">
        <ele>1782.8</ele>
        <time>2024-08-10T12:56:13Z</time>
      </trkpt>
      <trkpt lat="45.01481" lon="6.37171">
        <ele>1782.6</ele>
        <time>2024-08-10T12:56:14Z</time>
      </trkpt>
      <trkpt lat="45.01478" lon="6.37173">
        <ele>1782.6</ele>
        <time>2024-08-10T12:56:15Z</time>
      </trkpt>
      <trkpt lat="45.01478" lon="6.37173">
        <ele>1782.4</ele>
        <time>2024-08-10T12:56:16Z</time>
      </trkpt>
      <trkpt lat="45.01477" lon="6.37175">
        <ele>1782</ele>
        <time>2024-08-10T12:56:17Z</time>
      </trkpt>
      <trkpt lat="45.01477" lon="6.37175">
        <ele>1781.8</ele>
        <time>2024-08-10T12:56:18Z</time>
      </trkpt>
      <trkpt lat="45.01475" lon="6.37177">
        <ele>1781.6</ele>
        <time>2024-08-10T12:56:19Z</time>
      </trkpt>
      <trkpt lat="45.01475" lon="6.37177">
        <ele>1781.6</ele>
        <time>2024-08-10T12:56:20Z</time>
      </trkpt>
      <trkpt lat="45.01473" lon="6.37179">
        <ele>1781.6</ele>
        <time>2024-08-10T12:56:21Z</time>
      </trkpt>
      <trkpt lat="45.01473" lon="6.37179">
        <ele>1781.4</ele>
        <time>2024-08-10T12:56:22Z</time>
      </trkpt>
      <trkpt lat="45.01471" lon="6.37182">
        <ele>1781.4</ele>
        <time>2024-08-10T12:56:23Z</time>
      </trkpt>
      <trkpt lat="45.01471" lon="6.37182">
        <ele>1781.2</ele>
        <time>2024-08-10T12:56:24Z</time>
      </trkpt>
      <trkpt lat="45.01469" lon="6.37184">
        <ele>1780.8</ele>
        <time>2024-08-10T12:56:25Z</time>
      </trkpt>
      <trkpt lat="45.01469" lon="6.37184">
        <ele>1780.8</ele>
        <time>2024-08-10T12:56:26Z</time>
      </trkpt>
      <trkpt lat="45.01467" lon="6.37187">
        <ele>1780.4</ele>
        <time>2024-08-10T12:56:27Z</time>
      </trkpt>
      <trkpt lat="45.01467" lon="6.37187">
        <ele>1780.2</ele>
        <time>2024-08-10T12:56:28Z</time>
      </trkpt>
      <trkpt lat="45.01465" lon="6.3719">
        <ele>1780.2</ele>
        <time>2024-08-10T12:56:29Z</time>
      </trkpt>
      <trkpt lat="45.01465" lon="6.3719">
        <ele>1780.2</ele>
        <time>2024-08-10T12:56:30Z</time>
      </trkpt>
      <trkpt lat="45.01464" lon="6.37193">
        <ele>1780.2</ele>
        <time>2024-08-10T12:56:31Z</time>
      </trkpt>
      <trkpt lat="45.01464" lon="6.37193">
        <ele>1779.6</ele>
        <time>2024-08-10T12:56:32Z</time>
      </trkpt>
      <trkpt lat="45.01462" lon="6.37195">
        <ele>1779.4</ele>
        <time>2024-08-10T12:56:33Z</time>
      </trkpt>
      <trkpt lat="45.01462" lon="6.37195">
        <ele>1779.4</ele>
        <time>2024-08-10T12:56:34Z</time>
      </trkpt>
      <trkpt lat="45.01461" lon="6.37198">
        <ele>1779.4</ele>
        <time>2024-08-10T12:56:35Z</time>
      </trkpt>
      <trkpt lat="45.01461" lon="6.37198">
        <ele>1779.2</ele>
        <time>2024-08-10T12:56:36Z</time>
      </trkpt>
      <trkpt lat="45.01459" lon="6.37201">
        <ele>1779.2</ele>
        <time>2024-08-10T12:56:37Z</time>
      </trkpt>
      <trkpt lat="45.01459" lon="6.37201">
        <ele>1779.4</ele>
        <time>2024-08-10T12:56:38Z</time>
      </trkpt>
      <trkpt lat="45.01458" lon="6.37204">
        <ele>1779.6</ele>
        <time>2024-08-10T12:56:39Z</time>
      </trkpt>
      <trkpt lat="45.01458" lon="6.37204">
        <ele>1779.6</ele>
        <time>2024-08-10T12:56:40Z</time>
      </trkpt>
      <trkpt lat="45.01456" lon="6.37206">
        <ele>1779.6</ele>
        <time>2024-08-10T12:56:41Z</time>
      </trkpt>
      <trkpt lat="45.01456" lon="6.37206">
        <ele>1779.8</ele>
        <time>2024-08-10T12:56:42Z</time>
      </trkpt>
      <trkpt lat="45.01456" lon="6.3721">
        <ele>1779.8</ele>
        <time>2024-08-10T12:56:43Z</time>
      </trkpt>
      <trkpt lat="45.01456" lon="6.37213">
        <ele>1779.6</ele>
        <time>2024-08-10T12:56:44Z</time>
      </trkpt>
      <trkpt lat="45.01456" lon="6.37213">
        <ele>1779.6</ele>
        <time>2024-08-10T12:56:45Z</time>
      </trkpt>
      <trkpt lat="45.01455" lon="6.37217">
        <ele>1779.8</ele>
        <time>2024-08-10T12:56:46Z</time>
      </trkpt>
      <trkpt lat="45.01455" lon="6.37217">
        <ele>1779.8</ele>
        <time>2024-08-10T12:56:47Z</time>
      </trkpt>
      <trkpt lat="45.01453" lon="6.37219">
        <ele>1780</ele>
        <time>2024-08-10T12:56:48Z</time>
      </trkpt>
      <trkpt lat="45.01453" lon="6.37219">
        <ele>1780.2</ele>
        <time>2024-08-10T12:56:49Z</time>
      </trkpt>
      <trkpt lat="45.01452" lon="6.37222">
        <ele>1780.4</ele>
        <time>2024-08-10T12:56:50Z</time>
      </trkpt>
      <trkpt lat="45.01452" lon="6.37222">
        <ele>1780.8</ele>
        <time>2024-08-10T12:56:51Z</time>
      </trkpt>
      <trkpt lat="45.01452" lon="6.37228">
        <ele>1780.8</ele>
        <time>2024-08-10T12:56:52Z</time>
      </trkpt>
      <trkpt lat="45.01452" lon="6.37228">
        <ele>1780.8</ele>
        <time>2024-08-10T12:56:53Z</time>
      </trkpt>
      <trkpt lat="45.0145" lon="6.37231">
        <ele>1780.8</ele>
        <time>2024-08-10T12:56:54Z</time>
      </trkpt>
      <trkpt lat="45.0145" lon="6.37231">
        <ele>1780.8</ele>
        <time>2024-08-10T12:56:55Z</time>
      </trkpt>
      <trkpt lat="45.01449" lon="6.37235">
        <ele>1780.8</ele>
        <time>2024-08-10T12:56:56Z</time>
      </trkpt>
      <trkpt lat="45.01449" lon="6.37235">
        <ele>1780.6</ele>
        <time>2024-08-10T12:56:57Z</time>
      </trkpt>
      <trkpt lat="45.01448" lon="6.37238">
        <ele>1780.6</ele>
        <time>2024-08-10T12:56:58Z</time>
      </trkpt>
      <trkpt lat="45.01448" lon="6.37238">
        <ele>1780.6</ele>
        <time>2024-08-10T12:56:59Z</time>
      </trkpt>
      <trkpt lat="45.01446" lon="6.37241">
        <ele>1780.6</ele>
        <time>2024-08-10T12:57:00Z</time>
      </trkpt>
      <trkpt lat="45.01446" lon="6.37241">
        <ele>1780.6</ele>
        <time>2024-08-10T12:57:01Z</time>
      </trkpt>
      <trkpt lat="45.01446" lon="6.37245">
        <ele>1780.4</ele>
        <time>2024-08-10T12:57:02Z</time>
      </trkpt>
      <trkpt lat="45.01446" lon="6.37245">
        <ele>1780.2</ele>
        <time>2024-08-10T12:57:03Z</time>
      </trkpt>
      <trkpt lat="45.01445" lon="6.37248">
        <ele>1780.2</ele>
        <time>2024-08-10T12:57:04Z</time>
      </trkpt>
      <trkpt lat="45.01445" lon="6.37248">
        <ele>1780.4</ele>
        <time>2024-08-10T12:57:05Z</time>
      </trkpt>
      <trkpt lat="45.01444" lon="6.37251">
        <ele>1780.4</ele>
        <time>2024-08-10T12:57:06Z</time>
      </trkpt>
      <trkpt lat="45.01444" lon="6.37251">
        <ele>1780.4</ele>
        <time>2024-08-10T12:57:07Z</time>
      </trkpt>
      <trkpt lat="45.01442" lon="6.37254">
        <ele>1780.4</ele>
        <time>2024-08-10T12:57:08Z</time>
      </trkpt>
      <trkpt lat="45.01442" lon="6.37254">
        <ele>1780.4</ele>
        <time>2024-08-10T12:57:09Z</time>
      </trkpt>
      <trkpt lat="45.01441" lon="6.37258">
        <ele>1780.4</ele>
        <time>2024-08-10T12:57:10Z</time>
      </trkpt>
      <trkpt lat="45.01441" lon="6.37258">
        <ele>1780.4</ele>
        <time>2024-08-10T12:57:11Z</time>
      </trkpt>
      <trkpt lat="45.0144" lon="6.3726">
        <ele>1779.8</ele>
        <time>2024-08-10T12:57:12Z</time>
      </trkpt>
      <trkpt lat="45.0144" lon="6.3726">
        <ele>1779.8</ele>
        <time>2024-08-10T12:57:13Z</time>
      </trkpt>
      <trkpt lat="45.0144" lon="6.37263">
        <ele>1779.8</ele>
        <time>2024-08-10T12:57:14Z</time>
      </trkpt>
      <trkpt lat="45.0144" lon="6.37263">
        <ele>1780</ele>
        <time>2024-08-10T12:57:15Z</time>
      </trkpt>
      <trkpt lat="45.01439" lon="6.37265">
        <ele>1780.2</ele>
        <time>2024-08-10T12:57:16Z</time>
      </trkpt>
      <trkpt lat="45.01439" lon="6.37265">
        <ele>1780.6</ele>
        <time>2024-08-10T12:57:17Z</time>
      </trkpt>
      <trkpt lat="45.01438" lon="6.37268">
        <ele>1780.6</ele>
        <time>2024-08-10T12:57:18Z</time>
      </trkpt>
      <trkpt lat="45.01438" lon="6.37268">
        <ele>1781</ele>
        <time>2024-08-10T12:57:19Z</time>
      </trkpt>
      <trkpt lat="45.01437" lon="6.37271">
        <ele>1781.2</ele>
        <time>2024-08-10T12:57:20Z</time>
      </trkpt>
      <trkpt lat="45.01437" lon="6.37271">
        <ele>1781.2</ele>
        <time>2024-08-10T12:57:21Z</time>
      </trkpt>
      <trkpt lat="45.01436" lon="6.37274">
        <ele>1781.4</ele>
        <time>2024-08-10T12:57:22Z</time>
      </trkpt>
      <trkpt lat="45.01436" lon="6.37274">
        <ele>1781.8</ele>
        <time>2024-08-10T12:57:23Z</time>
      </trkpt>
      <trkpt lat="45.01434" lon="6.37277">
        <ele>1781.8</ele>
        <time>2024-08-10T12:57:24Z</time>
      </trkpt>
      <trkpt lat="45.01434" lon="6.37277">
        <ele>1781.8</ele>
        <time>2024-08-10T12:57:25Z</time>
      </trkpt>
      <trkpt lat="45.01434" lon="6.3728">
        <ele>1781.4</ele>
        <time>2024-08-10T12:57:26Z</time>
      </trkpt>
      <trkpt lat="45.01434" lon="6.3728">
        <ele>1781.4</ele>
        <time>2024-08-10T12:57:27Z</time>
      </trkpt>
      <trkpt lat="45.01433" lon="6.37284">
        <ele>1781.4</ele>
        <time>2024-08-10T12:57:28Z</time>
      </trkpt>
      <trkpt lat="45.01433" lon="6.37284">
        <ele>1781.6</ele>
        <time>2024-08-10T12:57:29Z</time>
      </trkpt>
      <trkpt lat="45.01432" lon="6.37286">
        <ele>1781.6</ele>
        <time>2024-08-10T12:57:30Z</time>
      </trkpt>
      <trkpt lat="45.01432" lon="6.37286">
        <ele>1781.6</ele>
        <time>2024-08-10T12:57:31Z</time>
      </trkpt>
      <trkpt lat="45.01431" lon="6.3729">
        <ele>1781.6</ele>
        <time>2024-08-10T12:57:32Z</time>
      </trkpt>
      <trkpt lat="45.01431" lon="6.3729">
        <ele>1781.8</ele>
        <time>2024-08-10T12:57:33Z</time>
      </trkpt>
      <trkpt lat="45.01429" lon="6.37293">
        <ele>1781.8</ele>
        <time>2024-08-10T12:57:34Z</time>
      </trkpt>
      <trkpt lat="45.01429" lon="6.37293">
        <ele>1782</ele>
        <time>2024-08-10T12:57:35Z</time>
      </trkpt>
      <trkpt lat="45.01428" lon="6.37296">
        <ele>1782</ele>
        <time>2024-08-10T12:57:36Z</time>
      </trkpt>
      <trkpt lat="45.01428" lon="6.37296">
        <ele>1782</ele>
        <time>2024-08-10T12:57:37Z</time>
      </trkpt>
      <trkpt lat="45.01427" lon="6.37299">
        <ele>1782</ele>
        <time>2024-08-10T12:57:38Z</time>
      </trkpt>
      <trkpt lat="45.01427" lon="6.37301">
        <ele>1782</ele>
        <time>2024-08-10T12:57:39Z</time>
      </trkpt>
      <trkpt lat="45.01427" lon="6.37301">
        <ele>1782</ele>
        <time>2024-08-10T12:57:40Z</time>
      </trkpt>
      <trkpt lat="45.01426" lon="6.37304">
        <ele>1782</ele>
        <time>2024-08-10T12:57:41Z</time>
      </trkpt>
      <trkpt lat="45.01426" lon="6.37304">
        <ele>1782</ele>
        <time>2024-08-10T12:57:42Z</time>
      </trkpt>
      <trkpt lat="45.01424" lon="6.37307">
        <ele>1782.2</ele>
        <time>2024-08-10T12:57:43Z</time>
      </trkpt>
      <trkpt lat="45.01424" lon="6.37307">
        <ele>1782.4</ele>
        <time>2024-08-10T12:57:44Z</time>
      </trkpt>
      <trkpt lat="45.01423" lon="6.3731">
        <ele>1782.6</ele>
        <time>2024-08-10T12:57:45Z</time>
      </trkpt>
      <trkpt lat="45.01423" lon="6.3731">
        <ele>1782.6</ele>
        <time>2024-08-10T12:57:46Z</time>
      </trkpt>
      <trkpt lat="45.01422" lon="6.37312">
        <ele>1782.6</ele>
        <time>2024-08-10T12:57:47Z</time>
      </trkpt>
      <trkpt lat="45.01422" lon="6.37312">
        <ele>1782.6</ele>
        <time>2024-08-10T12:57:48Z</time>
      </trkpt>
      <trkpt lat="45.01421" lon="6.37314">
        <ele>1783</ele>
        <time>2024-08-10T12:57:49Z</time>
      </trkpt>
      <trkpt lat="45.01421" lon="6.37314">
        <ele>1783.4</ele>
        <time>2024-08-10T12:57:50Z</time>
      </trkpt>
      <trkpt lat="45.01419" lon="6.37315">
        <ele>1783.6</ele>
        <time>2024-08-10T12:57:51Z</time>
      </trkpt>
      <trkpt lat="45.01419" lon="6.37315">
        <ele>1783.6</ele>
        <time>2024-08-10T12:57:52Z</time>
      </trkpt>
      <trkpt lat="45.01416" lon="6.37316">
        <ele>1783.4</ele>
        <time>2024-08-10T12:57:53Z</time>
      </trkpt>
      <trkpt lat="45.01416" lon="6.37316">
        <ele>1783.4</ele>
        <time>2024-08-10T12:57:54Z</time>
      </trkpt>
      <trkpt lat="45.01414" lon="6.37318">
        <ele>1783.4</ele>
        <time>2024-08-10T12:57:55Z</time>
      </trkpt>
      <trkpt lat="45.01414" lon="6.37318">
        <ele>1783.2</ele>
        <time>2024-08-10T12:57:56Z</time>
      </trkpt>
      <trkpt lat="45.01412" lon="6.37319">
        <ele>1783.2</ele>
        <time>2024-08-10T12:57:57Z</time>
      </trkpt>
      <trkpt lat="45.01412" lon="6.37319">
        <ele>1783.4</ele>
        <time>2024-08-10T12:57:58Z</time>
      </trkpt>
      <trkpt lat="45.0141" lon="6.37321">
        <ele>1783.4</ele>
        <time>2024-08-10T12:57:59Z</time>
      </trkpt>
      <trkpt lat="45.0141" lon="6.37321">
        <ele>1783.4</ele>
        <time>2024-08-10T12:58:00Z</time>
      </trkpt>
      <trkpt lat="45.01408" lon="6.37323">
        <ele>1783.4</ele>
        <time>2024-08-10T12:58:01Z</time>
      </trkpt>
      <trkpt lat="45.01406" lon="6.37324">
        <ele>1783.2</ele>
        <time>2024-08-10T12:58:02Z</time>
      </trkpt>
      <trkpt lat="45.01406" lon="6.37324">
        <ele>1782.6</ele>
        <time>2024-08-10T12:58:03Z</time>
      </trkpt>
      <trkpt lat="45.01404" lon="6.37327">
        <ele>1782.6</ele>
        <time>2024-08-10T12:58:04Z</time>
      </trkpt>
      <trkpt lat="45.01404" lon="6.37327">
        <ele>1782.4</ele>
        <time>2024-08-10T12:58:05Z</time>
      </trkpt>
      <trkpt lat="45.01402" lon="6.3733">
        <ele>1782.4</ele>
        <time>2024-08-10T12:58:06Z</time>
      </trkpt>
      <trkpt lat="45.01402" lon="6.3733">
        <ele>1782.6</ele>
        <time>2024-08-10T12:58:07Z</time>
      </trkpt>
      <trkpt lat="45.01401" lon="6.37334">
        <ele>1782.6</ele>
        <time>2024-08-10T12:58:08Z</time>
      </trkpt>
      <trkpt lat="45.01401" lon="6.37334">
        <ele>1782.6</ele>
        <time>2024-08-10T12:58:09Z</time>
      </trkpt>
      <trkpt lat="45.014" lon="6.37337">
        <ele>1782.8</ele>
        <time>2024-08-10T12:58:10Z</time>
      </trkpt>
      <trkpt lat="45.014" lon="6.37337">
        <ele>1783</ele>
        <time>2024-08-10T12:58:11Z</time>
      </trkpt>
      <trkpt lat="45.01398" lon="6.37339">
        <ele>1783</ele>
        <time>2024-08-10T12:58:12Z</time>
      </trkpt>
      <trkpt lat="45.01398" lon="6.37339">
        <ele>1783</ele>
        <time>2024-08-10T12:58:13Z</time>
      </trkpt>
      <trkpt lat="45.01397" lon="6.37341">
        <ele>1783</ele>
        <time>2024-08-10T12:58:14Z</time>
      </trkpt>
      <trkpt lat="45.01397" lon="6.37341">
        <ele>1783</ele>
        <time>2024-08-10T12:58:15Z</time>
      </trkpt>
      <trkpt lat="45.01396" lon="6.37344">
        <ele>1783</ele>
        <time>2024-08-10T12:58:16Z</time>
      </trkpt>
      <trkpt lat="45.01394" lon="6.37345">
        <ele>1783.2</ele>
        <time>2024-08-10T12:58:17Z</time>
      </trkpt>
      <trkpt lat="45.01394" lon="6.37345">
        <ele>1783.2</ele>
        <time>2024-08-10T12:58:18Z</time>
      </trkpt>
      <trkpt lat="45.01392" lon="6.37347">
        <ele>1783.6</ele>
        <time>2024-08-10T12:58:19Z</time>
      </trkpt>
      <trkpt lat="45.01392" lon="6.37347">
        <ele>1783.8</ele>
        <time>2024-08-10T12:58:20Z</time>
      </trkpt>
      <trkpt lat="45.01391" lon="6.37349">
        <ele>1783.8</ele>
        <time>2024-08-10T12:58:21Z</time>
      </trkpt>
      <trkpt lat="45.01391" lon="6.37349">
        <ele>1783.8</ele>
        <time>2024-08-10T12:58:22Z</time>
      </trkpt>
      <trkpt lat="45.01391" lon="6.37349">
        <ele>1783.6</ele>
        <time>2024-08-10T12:58:23Z</time>
      </trkpt>
      <trkpt lat="45.01388" lon="6.37352">
        <ele>1783.4</ele>
        <time>2024-08-10T12:58:24Z</time>
      </trkpt>
      <trkpt lat="45.01388" lon="6.37352">
        <ele>1783.4</ele>
        <time>2024-08-10T12:58:25Z</time>
      </trkpt>
      <trkpt lat="45.01387" lon="6.37354">
        <ele>1783.4</ele>
        <time>2024-08-10T12:58:26Z</time>
      </trkpt>
      <trkpt lat="45.01387" lon="6.37354">
        <ele>1783.4</ele>
        <time>2024-08-10T12:58:27Z</time>
      </trkpt>
      <trkpt lat="45.01387" lon="6.37354">
        <ele>1783</ele>
        <time>2024-08-10T12:58:28Z</time>
      </trkpt>
      <trkpt lat="45.01386" lon="6.37356">
        <ele>1783</ele>
        <time>2024-08-10T12:58:29Z</time>
      </trkpt>
      <trkpt lat="45.01386" lon="6.37356">
        <ele>1783</ele>
        <time>2024-08-10T12:58:30Z</time>
      </trkpt>
      <trkpt lat="45.01386" lon="6.37356">
        <ele>1783</ele>
        <time>2024-08-10T12:58:31Z</time>
      </trkpt>
      <trkpt lat="45.01386" lon="6.37356">
        <ele>1783</ele>
        <time>2024-08-10T12:58:32Z</time>
      </trkpt>
      <trkpt lat="45.01386" lon="6.37356">
        <ele>1783</ele>
        <time>2024-08-10T12:58:33Z</time>
      </trkpt>
      <trkpt lat="45.01386" lon="6.37356">
        <ele>1783.2</ele>
        <time>2024-08-10T12:58:34Z</time>
      </trkpt>
      <trkpt lat="45.01386" lon="6.37356">
        <ele>1783.4</ele>
        <time>2024-08-10T12:58:35Z</time>
      </trkpt>
      <trkpt lat="45.01386" lon="6.37356">
        <ele>1783.4</ele>
        <time>2024-08-10T12:58:36Z</time>
      </trkpt>
      <trkpt lat="45.01386" lon="6.37356">
        <ele>1783.6</ele>
        <time>2024-08-10T12:58:37Z</time>
      </trkpt>
      <trkpt lat="45.01386" lon="6.37356">
        <ele>1783.8</ele>
        <time>2024-08-10T12:58:38Z</time>
      </trkpt>
      <trkpt lat="45.01386" lon="6.37356">
        <ele>1783.8</ele>
        <time>2024-08-10T12:58:39Z</time>
      </trkpt>
      <trkpt lat="45.01386" lon="6.37356">
        <ele>1783.8</ele>
        <time>2024-08-10T12:58:40Z</time>
      </trkpt>
      <trkpt lat="45.01386" lon="6.37356">
        <ele>1783.8</ele>
        <time>2024-08-10T12:58:41Z</time>
      </trkpt>
      <trkpt lat="45.01386" lon="6.37356">
        <ele>1783.4</ele>
        <time>2024-08-10T12:58:42Z</time>
      </trkpt>
      <trkpt lat="45.01386" lon="6.37356">
        <ele>1783.4</ele>
        <time>2024-08-10T12:58:43Z</time>
      </trkpt>
      <trkpt lat="45.01386" lon="6.37356">
        <ele>1783.2</ele>
        <time>2024-08-10T12:58:44Z</time>
      </trkpt>
      <trkpt lat="45.01386" lon="6.37356">
        <ele>1783.2</ele>
        <time>2024-08-10T12:58:45Z</time>
      </trkpt>
      <trkpt lat="45.01386" lon="6.37356">
        <ele>1783.2</ele>
        <time>2024-08-10T12:58:46Z</time>
      </trkpt>
      <trkpt lat="45.01386" lon="6.37356">
        <ele>1783</ele>
        <time>2024-08-10T12:58:47Z</time>
      </trkpt>
      <trkpt lat="45.01386" lon="6.37356">
        <ele>1783.2</ele>
        <time>2024-08-10T12:58:48Z</time>
      </trkpt>
      <trkpt lat="45.01386" lon="6.37356">
        <ele>1783.2</ele>
        <time>2024-08-10T12:58:49Z</time>
      </trkpt>
      <trkpt lat="45.01386" lon="6.37356">
        <ele>1783.4</ele>
        <time>2024-08-10T12:58:50Z</time>
      </trkpt>
      <trkpt lat="45.01386" lon="6.37356">
        <ele>1783.6</ele>
        <time>2024-08-10T12:58:51Z</time>
      </trkpt>
      <trkpt lat="45.01386" lon="6.37356">
        <ele>1783.6</ele>
        <time>2024-08-10T12:58:52Z</time>
      </trkpt>
      <trkpt lat="45.01386" lon="6.37356">
        <ele>1783.4</ele>
        <time>2024-08-10T12:58:53Z</time>
      </trkpt>
      <trkpt lat="45.01386" lon="6.37356">
        <ele>1783.2</ele>
        <time>2024-08-10T12:58:54Z</time>
      </trkpt>
      <trkpt lat="45.01386" lon="6.37356">
        <ele>1783</ele>
        <time>2024-08-10T12:58:55Z</time>
      </trkpt>
      <trkpt lat="45.01386" lon="6.37356">
        <ele>1783</ele>
        <time>2024-08-10T12:58:56Z</time>
      </trkpt>
      <trkpt lat="45.01386" lon="6.37356">
        <ele>1783</ele>
        <time>2024-08-10T12:58:57Z</time>
      </trkpt>
      <trkpt lat="45.01386" lon="6.37356">
        <ele>1783</ele>
        <time>2024-08-10T12:58:58Z</time>
      </trkpt>
      <trkpt lat="45.01386" lon="6.37356">
        <ele>1783</ele>
        <time>2024-08-10T12:58:59Z</time>
      </trkpt>
      <trkpt lat="45.01386" lon="6.37356">
        <ele>1783</ele>
        <time>2024-08-10T12:59:00Z</time>
      </trkpt>
      <trkpt lat="45.01386" lon="6.37356">
        <ele>1783.2</ele>
        <time>2024-08-10T12:59:01Z</time>
      </trkpt>
      <trkpt lat="45.01386" lon="6.37356">
        <ele>1783.2</ele>
        <time>2024-08-10T12:59:02Z</time>
      </trkpt>
      <trkpt lat="45.01386" lon="6.37356">
        <ele>1783</ele>
        <time>2024-08-10T12:59:03Z</time>
      </trkpt>
      <trkpt lat="45.01386" lon="6.37356">
        <ele>1783</ele>
        <time>2024-08-10T12:59:04Z</time>
      </trkpt>
      <trkpt lat="45.01386" lon="6.37356">
        <ele>1783</ele>
        <time>2024-08-10T12:59:05Z</time>
      </trkpt>
      <trkpt lat="45.01386" lon="6.37356">
        <ele>1783.2</ele>
        <time>2024-08-10T12:59:06Z</time>
      </trkpt>
      <trkpt lat="45.01386" lon="6.37356">
        <ele>1783.4</ele>
        <time>2024-08-10T12:59:07Z</time>
      </trkpt>
      <trkpt lat="45.01386" lon="6.37356">
        <ele>1783.4</ele>
        <time>2024-08-10T12:59:08Z</time>
      </trkpt>
      <trkpt lat="45.01386" lon="6.37356">
        <ele>1783.4</ele>
        <time>2024-08-10T12:59:09Z</time>
      </trkpt>
      <trkpt lat="45.01386" lon="6.37356">
        <ele>1783.4</ele>
        <time>2024-08-10T12:59:10Z</time>
      </trkpt>
      <trkpt lat="45.01386" lon="6.37356">
        <ele>1783</ele>
        <time>2024-08-10T12:59:11Z</time>
      </trkpt>
      <trkpt lat="45.01386" lon="6.37356">
        <ele>1783</ele>
        <time>2024-08-10T12:59:12Z</time>
      </trkpt>
      <trkpt lat="45.01386" lon="6.37356">
        <ele>1783.2</ele>
        <time>2024-08-10T12:59:13Z</time>
      </trkpt>
      <trkpt lat="45.01386" lon="6.37356">
        <ele>1783.4</ele>
        <time>2024-08-10T12:59:14Z</time>
      </trkpt>
      <trkpt lat="45.01386" lon="6.37356">
        <ele>1783.4</ele>
        <time>2024-08-10T12:59:15Z</time>
      </trkpt>
      <trkpt lat="45.01386" lon="6.37356">
        <ele>1783.4</ele>
        <time>2024-08-10T12:59:16Z</time>
      </trkpt>
      <trkpt lat="45.01386" lon="6.37356">
        <ele>1783</ele>
        <time>2024-08-10T12:59:17Z</time>
      </trkpt>
      <trkpt lat="45.01386" lon="6.37356">
        <ele>1783</ele>
        <time>2024-08-10T12:59:18Z</time>
      </trkpt>
      <trkpt lat="45.01386" lon="6.37356">
        <ele>1783</ele>
        <time>2024-08-10T12:59:19Z</time>
      </trkpt>
      <trkpt lat="45.01386" lon="6.37356">
        <ele>1783</ele>
        <time>2024-08-10T12:59:20Z</time>
      </trkpt>
      <trkpt lat="45.01386" lon="6.37356">
        <ele>1783.4</ele>
        <time>2024-08-10T12:59:21Z</time>
      </trkpt>
      <trkpt lat="45.01386" lon="6.37356">
        <ele>1783.4</ele>
        <time>2024-08-10T12:59:22Z</time>
      </trkpt>
      <trkpt lat="45.01386" lon="6.37356">
        <ele>1783.4</ele>
        <time>2024-08-10T12:59:23Z</time>
      </trkpt>
      <trkpt lat="45.01386" lon="6.37356">
        <ele>1783.4</ele>
        <time>2024-08-10T12:59:24Z</time>
      </trkpt>
      <trkpt lat="45.01386" lon="6.37356">
        <ele>1783.4</ele>
        <time>2024-08-10T12:59:25Z</time>
      </trkpt>
      <trkpt lat="45.01386" lon="6.37356">
        <ele>1783.6</ele>
        <time>2024-08-10T12:59:26Z</time>
      </trkpt>
      <trkpt lat="45.01386" lon="6.37356">
        <ele>1783.8</ele>
        <time>2024-08-10T12:59:27Z</time>
      </trkpt>
      <trkpt lat="45.01386" lon="6.37356">
        <ele>1783.8</ele>
        <time>2024-08-10T12:59:28Z</time>
      </trkpt>
      <trkpt lat="45.01386" lon="6.37356">
        <ele>1783.6</ele>
        <time>2024-08-10T12:59:29Z</time>
      </trkpt>
      <trkpt lat="45.01386" lon="6.37356">
        <ele>1783.6</ele>
        <time>2024-08-10T12:59:30Z</time>
      </trkpt>
      <trkpt lat="45.01386" lon="6.37356">
        <ele>1783.6</ele>
        <time>2024-08-10T12:59:31Z</time>
      </trkpt>
      <trkpt lat="45.01386" lon="6.37356">
        <ele>1783.6</ele>
        <time>2024-08-10T12:59:32Z</time>
      </trkpt>
      <trkpt lat="45.01386" lon="6.37356">
        <ele>1783.8</ele>
        <time>2024-08-10T12:59:33Z</time>
      </trkpt>
      <trkpt lat="45.01388" lon="6.37356">
        <ele>1783.8</ele>
        <time>2024-08-10T12:59:34Z</time>
      </trkpt>
      <trkpt lat="45.01388" lon="6.37356">
        <ele>1783.6</ele>
        <time>2024-08-10T12:59:35Z</time>
      </trkpt>
      <trkpt lat="45.01388" lon="6.37356">
        <ele>1783.4</ele>
        <time>2024-08-10T12:59:36Z</time>
      </trkpt>
      <trkpt lat="45.01388" lon="6.37356">
        <ele>1783.4</ele>
        <time>2024-08-10T12:59:37Z</time>
      </trkpt>
      <trkpt lat="45.01388" lon="6.37356">
        <ele>1783.6</ele>
        <time>2024-08-10T12:59:38Z</time>
      </trkpt>
      <trkpt lat="45.01388" lon="6.37356">
        <ele>1783.6</ele>
        <time>2024-08-10T12:59:39Z</time>
      </trkpt>
      <trkpt lat="45.01388" lon="6.37356">
        <ele>1783.4</ele>
        <time>2024-08-10T12:59:40Z</time>
      </trkpt>
      <trkpt lat="45.01388" lon="6.37356">
        <ele>1783.4</ele>
        <time>2024-08-10T12:59:41Z</time>
      </trkpt>
      <trkpt lat="45.01388" lon="6.37356">
        <ele>1783.4</ele>
        <time>2024-08-10T12:59:42Z</time>
      </trkpt>
      <trkpt lat="45.01388" lon="6.37356">
        <ele>1783.6</ele>
        <time>2024-08-10T12:59:43Z</time>
      </trkpt>
      <trkpt lat="45.01388" lon="6.37356">
        <ele>1783.6</ele>
        <time>2024-08-10T12:59:44Z</time>
      </trkpt>
      <trkpt lat="45.01388" lon="6.37356">
        <ele>1783.8</ele>
        <time>2024-08-10T12:59:45Z</time>
      </trkpt>
      <trkpt lat="45.01388" lon="6.37356">
        <ele>1784</ele>
        <time>2024-08-10T12:59:46Z</time>
      </trkpt>
      <trkpt lat="45.01388" lon="6.37356">
        <ele>1784</ele>
        <time>2024-08-10T12:59:47Z</time>
      </trkpt>
      <trkpt lat="45.01388" lon="6.37356">
        <ele>1784</ele>
        <time>2024-08-10T12:59:48Z</time>
      </trkpt>
      <trkpt lat="45.01388" lon="6.37356">
        <ele>1784</ele>
        <time>2024-08-10T12:59:49Z</time>
      </trkpt>
      <trkpt lat="45.01388" lon="6.37356">
        <ele>1783.8</ele>
        <time>2024-08-10T12:59:50Z</time>
      </trkpt>
      <trkpt lat="45.01388" lon="6.37356">
        <ele>1783.8</ele>
        <time>2024-08-10T12:59:51Z</time>
      </trkpt>
      <trkpt lat="45.01388" lon="6.37356">
        <ele>1783.8</ele>
        <time>2024-08-10T12:59:52Z</time>
      </trkpt>
      <trkpt lat="45.01388" lon="6.37356">
        <ele>1783.8</ele>
        <time>2024-08-10T12:59:53Z</time>
      </trkpt>
      <trkpt lat="45.01388" lon="6.37356">
        <ele>1783.8</ele>
        <time>2024-08-10T12:59:54Z</time>
      </trkpt>
      <trkpt lat="45.01388" lon="6.37356">
        <ele>1783.8</ele>
        <time>2024-08-10T12:59:55Z</time>
      </trkpt>
      <trkpt lat="45.01388" lon="6.37356">
        <ele>1783.8</ele>
        <time>2024-08-10T12:59:56Z</time>
      </trkpt>
      <trkpt lat="45.01388" lon="6.37356">
        <ele>1783.8</ele>
        <time>2024-08-10T12:59:57Z</time>
      </trkpt>
      <trkpt lat="45.01388" lon="6.37356">
        <ele>1783.8</ele>
        <time>2024-08-10T12:59:58Z</time>
      </trkpt>
      <trkpt lat="45.01388" lon="6.37356">
        <ele>1783.8</ele>
        <time>2024-08-10T12:59:59Z</time>
      </trkpt>
      <trkpt lat="45.01388" lon="6.37356">
        <ele>1783.6</ele>
        <time>2024-08-10T13:00:00Z</time>
      </trkpt>
      <trkpt lat="45.01388" lon="6.37356">
        <ele>1783.6</ele>
        <time>2024-08-10T13:00:01Z</time>
      </trkpt>
      <trkpt lat="45.01388" lon="6.37356">
        <ele>1783.8</ele>
        <time>2024-08-10T13:00:02Z</time>
      </trkpt>
      <trkpt lat="45.01388" lon="6.37356">
        <ele>1783.8</ele>
        <time>2024-08-10T13:00:03Z</time>
      </trkpt>
      <trkpt lat="45.01388" lon="6.37356">
        <ele>1783.8</ele>
        <time>2024-08-10T13:00:04Z</time>
      </trkpt>
      <trkpt lat="45.01388" lon="6.37356">
        <ele>1783.6</ele>
        <time>2024-08-10T13:00:05Z</time>
      </trkpt>
      <trkpt lat="45.01388" lon="6.37356">
        <ele>1783.6</ele>
        <time>2024-08-10T13:00:06Z</time>
      </trkpt>
      <trkpt lat="45.01388" lon="6.37356">
        <ele>1784</ele>
        <time>2024-08-10T13:00:07Z</time>
      </trkpt>
      <trkpt lat="45.01388" lon="6.37356">
        <ele>1784</ele>
        <time>2024-08-10T13:00:08Z</time>
      </trkpt>
      <trkpt lat="45.01388" lon="6.37356">
        <ele>1784</ele>
        <time>2024-08-10T13:00:09Z</time>
      </trkpt>
      <trkpt lat="45.01388" lon="6.37356">
        <ele>1784</ele>
        <time>2024-08-10T13:00:10Z</time>
      </trkpt>
      <trkpt lat="45.01388" lon="6.37356">
        <ele>1784</ele>
        <time>2024-08-10T13:00:11Z</time>
      </trkpt>
      <trkpt lat="45.01388" lon="6.37356">
        <ele>1783.8</ele>
        <time>2024-08-10T13:00:12Z</time>
      </trkpt>
      <trkpt lat="45.01388" lon="6.37356">
        <ele>1783.8</ele>
        <time>2024-08-10T13:00:13Z</time>
      </trkpt>
      <trkpt lat="45.01388" lon="6.37356">
        <ele>1783.8</ele>
        <time>2024-08-10T13:00:14Z</time>
      </trkpt>
      <trkpt lat="45.01388" lon="6.37356">
        <ele>1783.8</ele>
        <time>2024-08-10T13:00:15Z</time>
      </trkpt>
      <trkpt lat="45.01388" lon="6.37356">
        <ele>1783.8</ele>
        <time>2024-08-10T13:00:16Z</time>
      </trkpt>
      <trkpt lat="45.01388" lon="6.37356">
        <ele>1783.8</ele>
        <time>2024-08-10T13:00:17Z</time>
      </trkpt>
      <trkpt lat="45.01388" lon="6.37356">
        <ele>1783.8</ele>
        <time>2024-08-10T13:00:18Z</time>
      </trkpt>
      <trkpt lat="45.01388" lon="6.37356">
        <ele>1783.8</ele>
        <time>2024-08-10T13:00:19Z</time>
      </trkpt>
      <trkpt lat="45.01386" lon="6.37353">
        <ele>1783.8</ele>
        <time>2024-08-10T13:00:20Z</time>
      </trkpt>
      <trkpt lat="45.01384" lon="6.37352">
        <ele>1783.8</ele>
        <time>2024-08-10T13:00:21Z</time>
      </trkpt>
      <trkpt lat="45.01383" lon="6.37351">
        <ele>1783.8</ele>
        <time>2024-08-10T13:00:22Z</time>
      </trkpt>
      <trkpt lat="45.0138" lon="6.37351">
        <ele>1783.8</ele>
        <time>2024-08-10T13:00:23Z</time>
      </trkpt>
      <trkpt lat="45.01378" lon="6.37351">
        <ele>1783.6</ele>
        <time>2024-08-10T13:00:24Z</time>
      </trkpt>
      <trkpt lat="45.01378" lon="6.37351">
        <ele>1783.4</ele>
        <time>2024-08-10T13:00:25Z</time>
      </trkpt>
      <trkpt lat="45.01378" lon="6.37351">
        <ele>1783.4</ele>
        <time>2024-08-10T13:00:26Z</time>
      </trkpt>
      <trkpt lat="45.01378" lon="6.37354">
        <ele>1783.6</ele>
        <time>2024-08-10T13:00:27Z</time>
      </trkpt>
      <trkpt lat="45.01378" lon="6.37354">
        <ele>1783.6</ele>
        <time>2024-08-10T13:00:28Z</time>
      </trkpt>
      <trkpt lat="45.01378" lon="6.37354">
        <ele>1783.8</ele>
        <time>2024-08-10T13:00:29Z</time>
      </trkpt>
      <trkpt lat="45.01377" lon="6.37357">
        <ele>1784</ele>
        <time>2024-08-10T13:00:30Z</time>
      </trkpt>
      <trkpt lat="45.01377" lon="6.37357">
        <ele>1784</ele>
        <time>2024-08-10T13:00:31Z</time>
      </trkpt>
      <trkpt lat="45.01378" lon="6.3736">
        <ele>1784.6</ele>
        <time>2024-08-10T13:00:32Z</time>
      </trkpt>
      <trkpt lat="45.01378" lon="6.3736">
        <ele>1784.8</ele>
        <time>2024-08-10T13:00:33Z</time>
      </trkpt>
      <trkpt lat="45.01378" lon="6.3736">
        <ele>1784.8</ele>
        <time>2024-08-10T13:00:34Z</time>
      </trkpt>
      <trkpt lat="45.01377" lon="6.37362">
        <ele>1785.2</ele>
        <time>2024-08-10T13:00:35Z</time>
      </trkpt>
      <trkpt lat="45.01377" lon="6.37362">
        <ele>1785.4</ele>
        <time>2024-08-10T13:00:36Z</time>
      </trkpt>
      <trkpt lat="45.01376" lon="6.37365">
        <ele>1785.4</ele>
        <time>2024-08-10T13:00:37Z</time>
      </trkpt>
      <trkpt lat="45.01376" lon="6.37365">
        <ele>1785.6</ele>
        <time>2024-08-10T13:00:38Z</time>
      </trkpt>
      <trkpt lat="45.01376" lon="6.37365">
        <ele>1785.8</ele>
        <time>2024-08-10T13:00:39Z</time>
      </trkpt>
      <trkpt lat="45.01374" lon="6.37365">
        <ele>1785.8</ele>
        <time>2024-08-10T13:00:40Z</time>
      </trkpt>
      <trkpt lat="45.01374" lon="6.37365">
        <ele>1786</ele>
        <time>2024-08-10T13:00:41Z</time>
      </trkpt>
      <trkpt lat="45.01373" lon="6.37366">
        <ele>1786.2</ele>
        <time>2024-08-10T13:00:42Z</time>
      </trkpt>
      <trkpt lat="45.01373" lon="6.37366">
        <ele>1786.6</ele>
        <time>2024-08-10T13:00:43Z</time>
      </trkpt>
      <trkpt lat="45.01373" lon="6.37366">
        <ele>1787</ele>
        <time>2024-08-10T13:00:44Z</time>
      </trkpt>
      <trkpt lat="45.01373" lon="6.37366">
        <ele>1787</ele>
        <time>2024-08-10T13:00:45Z</time>
      </trkpt>
      <trkpt lat="45.01373" lon="6.37366">
        <ele>1787.2</ele>
        <time>2024-08-10T13:00:46Z</time>
      </trkpt>
      <trkpt lat="45.01371" lon="6.37369">
        <ele>1787.2</ele>
        <time>2024-08-10T13:00:47Z</time>
      </trkpt>
      <trkpt lat="45.01371" lon="6.37369">
        <ele>1787.4</ele>
        <time>2024-08-10T13:00:48Z</time>
      </trkpt>
      <trkpt lat="45.01371" lon="6.37369">
        <ele>1787.8</ele>
        <time>2024-08-10T13:00:49Z</time>
      </trkpt>
      <trkpt lat="45.0137" lon="6.37371">
        <ele>1787.8</ele>
        <time>2024-08-10T13:00:50Z</time>
      </trkpt>
      <trkpt lat="45.0137" lon="6.37371">
        <ele>1787.8</ele>
        <time>2024-08-10T13:00:51Z</time>
      </trkpt>
      <trkpt lat="45.0137" lon="6.37371">
        <ele>1788</ele>
        <time>2024-08-10T13:00:52Z</time>
      </trkpt>
      <trkpt lat="45.0137" lon="6.37371">
        <ele>1788.2</ele>
        <time>2024-08-10T13:00:53Z</time>
      </trkpt>
      <trkpt lat="45.0137" lon="6.37374">
        <ele>1788.2</ele>
        <time>2024-08-10T13:00:54Z</time>
      </trkpt>
      <trkpt lat="45.0137" lon="6.37374">
        <ele>1788.4</ele>
        <time>2024-08-10T13:00:55Z</time>
      </trkpt>
      <trkpt lat="45.0137" lon="6.37374">
        <ele>1789</ele>
        <time>2024-08-10T13:00:56Z</time>
      </trkpt>
      <trkpt lat="45.0137" lon="6.37374">
        <ele>1789</ele>
        <time>2024-08-10T13:00:57Z</time>
      </trkpt>
      <trkpt lat="45.01368" lon="6.37377">
        <ele>1789.2</ele>
        <time>2024-08-10T13:00:58Z</time>
      </trkpt>
      <trkpt lat="45.01368" lon="6.37377">
        <ele>1789.8</ele>
        <time>2024-08-10T13:00:59Z</time>
      </trkpt>
      <trkpt lat="45.01368" lon="6.37377">
        <ele>1789.8</ele>
        <time>2024-08-10T13:01:00Z</time>
      </trkpt>
      <trkpt lat="45.01367" lon="6.3738">
        <ele>1790</ele>
        <time>2024-08-10T13:01:01Z</time>
      </trkpt>
      <trkpt lat="45.01367" lon="6.3738">
        <ele>1790.2</ele>
        <time>2024-08-10T13:01:02Z</time>
      </trkpt>
      <trkpt lat="45.01367" lon="6.3738">
        <ele>1790.2</ele>
        <time>2024-08-10T13:01:03Z</time>
      </trkpt>
      <trkpt lat="45.01366" lon="6.37383">
        <ele>1790.2</ele>
        <time>2024-08-10T13:01:04Z</time>
      </trkpt>
      <trkpt lat="45.01366" lon="6.37383">
        <ele>1790.6</ele>
        <time>2024-08-10T13:01:05Z</time>
      </trkpt>
      <trkpt lat="45.01366" lon="6.37383">
        <ele>1790.6</ele>
        <time>2024-08-10T13:01:06Z</time>
      </trkpt>
      <trkpt lat="45.01366" lon="6.37383">
        <ele>1790.8</ele>
        <time>2024-08-10T13:01:07Z</time>
      </trkpt>
      <trkpt lat="45.01366" lon="6.37383">
        <ele>1791</ele>
        <time>2024-08-10T13:01:08Z</time>
      </trkpt>
      <trkpt lat="45.01366" lon="6.37383">
        <ele>1791</ele>
        <time>2024-08-10T13:01:09Z</time>
      </trkpt>
      <trkpt lat="45.01366" lon="6.37386">
        <ele>1791</ele>
        <time>2024-08-10T13:01:10Z</time>
      </trkpt>
      <trkpt lat="45.01366" lon="6.37386">
        <ele>1791.4</ele>
        <time>2024-08-10T13:01:11Z</time>
      </trkpt>
      <trkpt lat="45.01366" lon="6.37386">
        <ele>1791.4</ele>
        <time>2024-08-10T13:01:12Z</time>
      </trkpt>
      <trkpt lat="45.01366" lon="6.37386">
        <ele>1791.4</ele>
        <time>2024-08-10T13:01:13Z</time>
      </trkpt>
      <trkpt lat="45.01366" lon="6.37386">
        <ele>1791.8</ele>
        <time>2024-08-10T13:01:14Z</time>
      </trkpt>
      <trkpt lat="45.01367" lon="6.37389">
        <ele>1792</ele>
        <time>2024-08-10T13:01:15Z</time>
      </trkpt>
      <trkpt lat="45.01367" lon="6.37389">
        <ele>1792.2</ele>
        <time>2024-08-10T13:01:16Z</time>
      </trkpt>
      <trkpt lat="45.01367" lon="6.37389">
        <ele>1792.6</ele>
        <time>2024-08-10T13:01:17Z</time>
      </trkpt>
      <trkpt lat="45.01367" lon="6.37389">
        <ele>1792.6</ele>
        <time>2024-08-10T13:01:18Z</time>
      </trkpt>
      <trkpt lat="45.01366" lon="6.37392">
        <ele>1792.6</ele>
        <time>2024-08-10T13:01:19Z</time>
      </trkpt>
      <trkpt lat="45.01366" lon="6.37392">
        <ele>1793</ele>
        <time>2024-08-10T13:01:20Z</time>
      </trkpt>
      <trkpt lat="45.01366" lon="6.37392">
        <ele>1793.4</ele>
        <time>2024-08-10T13:01:21Z</time>
      </trkpt>
      <trkpt lat="45.01366" lon="6.37392">
        <ele>1793.4</ele>
        <time>2024-08-10T13:01:22Z</time>
      </trkpt>
      <trkpt lat="45.01367" lon="6.37395">
        <ele>1793.4</ele>
        <time>2024-08-10T13:01:23Z</time>
      </trkpt>
      <trkpt lat="45.01367" lon="6.37395">
        <ele>1793.6</ele>
        <time>2024-08-10T13:01:24Z</time>
      </trkpt>
      <trkpt lat="45.01367" lon="6.37395">
        <ele>1793.8</ele>
        <time>2024-08-10T13:01:25Z</time>
      </trkpt>
      <trkpt lat="45.01367" lon="6.37395">
        <ele>1794</ele>
        <time>2024-08-10T13:01:26Z</time>
      </trkpt>
      <trkpt lat="45.01367" lon="6.37395">
        <ele>1794.2</ele>
        <time>2024-08-10T13:01:27Z</time>
      </trkpt>
      <trkpt lat="45.01368" lon="6.37397">
        <ele>1794.2</ele>
        <time>2024-08-10T13:01:28Z</time>
      </trkpt>
      <trkpt lat="45.01368" lon="6.37397">
        <ele>1794.6</ele>
        <time>2024-08-10T13:01:29Z</time>
      </trkpt>
      <trkpt lat="45.01368" lon="6.374">
        <ele>1794.8</ele>
        <time>2024-08-10T13:01:30Z</time>
      </trkpt>
      <trkpt lat="45.01368" lon="6.374">
        <ele>1795</ele>
        <time>2024-08-10T13:01:31Z</time>
      </trkpt>
      <trkpt lat="45.01369" lon="6.37403">
        <ele>1795</ele>
        <time>2024-08-10T13:01:32Z</time>
      </trkpt>
      <trkpt lat="45.01369" lon="6.37403">
        <ele>1795.4</ele>
        <time>2024-08-10T13:01:33Z</time>
      </trkpt>
      <trkpt lat="45.01369" lon="6.37403">
        <ele>1795.8</ele>
        <time>2024-08-10T13:01:34Z</time>
      </trkpt>
      <trkpt lat="45.01369" lon="6.37403">
        <ele>1796</ele>
        <time>2024-08-10T13:01:35Z</time>
      </trkpt>
      <trkpt lat="45.01367" lon="6.37403">
        <ele>1796</ele>
        <time>2024-08-10T13:01:36Z</time>
      </trkpt>
      <trkpt lat="45.01367" lon="6.37403">
        <ele>1796</ele>
        <time>2024-08-10T13:01:37Z</time>
      </trkpt>
      <trkpt lat="45.01367" lon="6.37403">
        <ele>1796.2</ele>
        <time>2024-08-10T13:01:38Z</time>
      </trkpt>
      <trkpt lat="45.01365" lon="6.37401">
        <ele>1796.2</ele>
        <time>2024-08-10T13:01:39Z</time>
      </trkpt>
      <trkpt lat="45.01365" lon="6.37401">
        <ele>1796.4</ele>
        <time>2024-08-10T13:01:40Z</time>
      </trkpt>
      <trkpt lat="45.01364" lon="6.37399">
        <ele>1796.6</ele>
        <time>2024-08-10T13:01:41Z</time>
      </trkpt>
      <trkpt lat="45.01364" lon="6.37399">
        <ele>1796.6</ele>
        <time>2024-08-10T13:01:42Z</time>
      </trkpt>
      <trkpt lat="45.01364" lon="6.37399">
        <ele>1796.4</ele>
        <time>2024-08-10T13:01:43Z</time>
      </trkpt>
      <trkpt lat="45.01364" lon="6.37399">
        <ele>1796.4</ele>
        <time>2024-08-10T13:01:44Z</time>
      </trkpt>
      <trkpt lat="45.01364" lon="6.37399">
        <ele>1796.8</ele>
        <time>2024-08-10T13:01:45Z</time>
      </trkpt>
      <trkpt lat="45.01364" lon="6.37399">
        <ele>1797</ele>
        <time>2024-08-10T13:01:46Z</time>
      </trkpt>
      <trkpt lat="45.01362" lon="6.37398">
        <ele>1797.2</ele>
        <time>2024-08-10T13:01:47Z</time>
      </trkpt>
      <trkpt lat="45.01362" lon="6.37398">
        <ele>1797.2</ele>
        <time>2024-08-10T13:01:48Z</time>
      </trkpt>
      <trkpt lat="45.01362" lon="6.37398">
        <ele>1797.6</ele>
        <time>2024-08-10T13:01:49Z</time>
      </trkpt>
      <trkpt lat="45.0136" lon="6.37398">
        <ele>1797.6</ele>
        <time>2024-08-10T13:01:50Z</time>
      </trkpt>
      <trkpt lat="45.0136" lon="6.37398">
        <ele>1797.6</ele>
        <time>2024-08-10T13:01:51Z</time>
      </trkpt>
      <trkpt lat="45.0136" lon="6.37398">
        <ele>1797.6</ele>
        <time>2024-08-10T13:01:52Z</time>
      </trkpt>
      <trkpt lat="45.0136" lon="6.37398">
        <ele>1798.2</ele>
        <time>2024-08-10T13:01:53Z</time>
      </trkpt>
      <trkpt lat="45.01358" lon="6.37397">
        <ele>1798.6</ele>
        <time>2024-08-10T13:01:54Z</time>
      </trkpt>
      <trkpt lat="45.01358" lon="6.37397">
        <ele>1798.6</ele>
        <time>2024-08-10T13:01:55Z</time>
      </trkpt>
      <trkpt lat="45.01358" lon="6.37397">
        <ele>1799.2</ele>
        <time>2024-08-10T13:01:56Z</time>
      </trkpt>
      <trkpt lat="45.01357" lon="6.37394">
        <ele>1799.2</ele>
        <time>2024-08-10T13:01:57Z</time>
      </trkpt>
      <trkpt lat="45.01357" lon="6.37394">
        <ele>1799.2</ele>
        <time>2024-08-10T13:01:58Z</time>
      </trkpt>
      <trkpt lat="45.01357" lon="6.37394">
        <ele>1799.2</ele>
        <time>2024-08-10T13:01:59Z</time>
      </trkpt>
      <trkpt lat="45.01357" lon="6.37394">
        <ele>1799.2</ele>
        <time>2024-08-10T13:02:00Z</time>
      </trkpt>
      <trkpt lat="45.01357" lon="6.37394">
        <ele>1799.4</ele>
        <time>2024-08-10T13:02:01Z</time>
      </trkpt>
      <trkpt lat="45.01357" lon="6.37394">
        <ele>1799.4</ele>
        <time>2024-08-10T13:02:02Z</time>
      </trkpt>
      <trkpt lat="45.01357" lon="6.37394">
        <ele>1799.6</ele>
        <time>2024-08-10T13:02:03Z</time>
      </trkpt>
      <trkpt lat="45.01357" lon="6.37394">
        <ele>1799.6</ele>
        <time>2024-08-10T13:02:04Z</time>
      </trkpt>
      <trkpt lat="45.01357" lon="6.37394">
        <ele>1800</ele>
        <time>2024-08-10T13:02:05Z</time>
      </trkpt>
      <trkpt lat="45.01357" lon="6.37394">
        <ele>1800.2</ele>
        <time>2024-08-10T13:02:06Z</time>
      </trkpt>
      <trkpt lat="45.01357" lon="6.37394">
        <ele>1800.4</ele>
        <time>2024-08-10T13:02:07Z</time>
      </trkpt>
      <trkpt lat="45.01357" lon="6.37394">
        <ele>1800.6</ele>
        <time>2024-08-10T13:02:08Z</time>
      </trkpt>
      <trkpt lat="45.01357" lon="6.37394">
        <ele>1800.6</ele>
        <time>2024-08-10T13:02:09Z</time>
      </trkpt>
      <trkpt lat="45.01356" lon="6.37398">
        <ele>1800.8</ele>
        <time>2024-08-10T13:02:10Z</time>
      </trkpt>
      <trkpt lat="45.01356" lon="6.37398">
        <ele>1801</ele>
        <time>2024-08-10T13:02:11Z</time>
      </trkpt>
      <trkpt lat="45.01356" lon="6.37398">
        <ele>1801.2</ele>
        <time>2024-08-10T13:02:12Z</time>
      </trkpt>
      <trkpt lat="45.01356" lon="6.37398">
        <ele>1801.2</ele>
        <time>2024-08-10T13:02:13Z</time>
      </trkpt>
      <trkpt lat="45.01356" lon="6.37398">
        <ele>1801.8</ele>
        <time>2024-08-10T13:02:14Z</time>
      </trkpt>
      <trkpt lat="45.01356" lon="6.37398">
        <ele>1802</ele>
        <time>2024-08-10T13:02:15Z</time>
      </trkpt>
      <trkpt lat="45.01356" lon="6.37398">
        <ele>1802.2</ele>
        <time>2024-08-10T13:02:16Z</time>
      </trkpt>
      <trkpt lat="45.01355" lon="6.37401">
        <ele>1802.4</ele>
        <time>2024-08-10T13:02:17Z</time>
      </trkpt>
      <trkpt lat="45.01355" lon="6.37401">
        <ele>1802.6</ele>
        <time>2024-08-10T13:02:18Z</time>
      </trkpt>
      <trkpt lat="45.01355" lon="6.37401">
        <ele>1802.6</ele>
        <time>2024-08-10T13:02:19Z</time>
      </trkpt>
      <trkpt lat="45.01355" lon="6.37405">
        <ele>1802.8</ele>
        <time>2024-08-10T13:02:20Z</time>
      </trkpt>
      <trkpt lat="45.01355" lon="6.37405">
        <ele>1803.4</ele>
        <time>2024-08-10T13:02:21Z</time>
      </trkpt>
      <trkpt lat="45.01356" lon="6.37408">
        <ele>1803.4</ele>
        <time>2024-08-10T13:02:22Z</time>
      </trkpt>
      <trkpt lat="45.01356" lon="6.37408">
        <ele>1803.6</ele>
        <time>2024-08-10T13:02:23Z</time>
      </trkpt>
      <trkpt lat="45.01356" lon="6.37408">
        <ele>1803.8</ele>
        <time>2024-08-10T13:02:24Z</time>
      </trkpt>
      <trkpt lat="45.01356" lon="6.37411">
        <ele>1803.8</ele>
        <time>2024-08-10T13:02:25Z</time>
      </trkpt>
      <trkpt lat="45.01356" lon="6.37411">
        <ele>1804.2</ele>
        <time>2024-08-10T13:02:26Z</time>
      </trkpt>
      <trkpt lat="45.01357" lon="6.37414">
        <ele>1804.4</ele>
        <time>2024-08-10T13:02:27Z</time>
      </trkpt>
      <trkpt lat="45.01357" lon="6.37414">
        <ele>1804.4</ele>
        <time>2024-08-10T13:02:28Z</time>
      </trkpt>
      <trkpt lat="45.01358" lon="6.37417">
        <ele>1804.4</ele>
        <time>2024-08-10T13:02:29Z</time>
      </trkpt>
      <trkpt lat="45.01358" lon="6.37417">
        <ele>1804.4</ele>
        <time>2024-08-10T13:02:30Z</time>
      </trkpt>
      <trkpt lat="45.01359" lon="6.37419">
        <ele>1804.6</ele>
        <time>2024-08-10T13:02:31Z</time>
      </trkpt>
      <trkpt lat="45.01359" lon="6.37419">
        <ele>1804.6</ele>
        <time>2024-08-10T13:02:32Z</time>
      </trkpt>
      <trkpt lat="45.0136" lon="6.37421">
        <ele>1804.4</ele>
        <time>2024-08-10T13:02:33Z</time>
      </trkpt>
      <trkpt lat="45.0136" lon="6.37421">
        <ele>1804.2</ele>
        <time>2024-08-10T13:02:34Z</time>
      </trkpt>
      <trkpt lat="45.01361" lon="6.37423">
        <ele>1804.2</ele>
        <time>2024-08-10T13:02:35Z</time>
      </trkpt>
      <trkpt lat="45.01361" lon="6.37423">
        <ele>1804.2</ele>
        <time>2024-08-10T13:02:36Z</time>
      </trkpt>
      <trkpt lat="45.01362" lon="6.37426">
        <ele>1804.2</ele>
        <time>2024-08-10T13:02:37Z</time>
      </trkpt>
      <trkpt lat="45.01362" lon="6.37426">
        <ele>1804.2</ele>
        <time>2024-08-10T13:02:38Z</time>
      </trkpt>
      <trkpt lat="45.01362" lon="6.37426">
        <ele>1804.4</ele>
        <time>2024-08-10T13:02:39Z</time>
      </trkpt>
      <trkpt lat="45.01362" lon="6.37429">
        <ele>1804.6</ele>
        <time>2024-08-10T13:02:40Z</time>
      </trkpt>
      <trkpt lat="45.01362" lon="6.37429">
        <ele>1804.8</ele>
        <time>2024-08-10T13:02:41Z</time>
      </trkpt>
      <trkpt lat="45.01362" lon="6.37429">
        <ele>1804.8</ele>
        <time>2024-08-10T13:02:42Z</time>
      </trkpt>
      <trkpt lat="45.01363" lon="6.37432">
        <ele>1805</ele>
        <time>2024-08-10T13:02:43Z</time>
      </trkpt>
      <trkpt lat="45.01363" lon="6.37432">
        <ele>1805.2</ele>
        <time>2024-08-10T13:02:44Z</time>
      </trkpt>
      <trkpt lat="45.01363" lon="6.37432">
        <ele>1805.2</ele>
        <time>2024-08-10T13:02:45Z</time>
      </trkpt>
      <trkpt lat="45.01364" lon="6.37435">
        <ele>1805.8</ele>
        <time>2024-08-10T13:02:46Z</time>
      </trkpt>
      <trkpt lat="45.01364" lon="6.37435">
        <ele>1805.8</ele>
        <time>2024-08-10T13:02:47Z</time>
      </trkpt>
      <trkpt lat="45.01364" lon="6.37435">
        <ele>1806</ele>
        <time>2024-08-10T13:02:48Z</time>
      </trkpt>
      <trkpt lat="45.01364" lon="6.37435">
        <ele>1806.2</ele>
        <time>2024-08-10T13:02:49Z</time>
      </trkpt>
      <trkpt lat="45.01364" lon="6.37435">
        <ele>1806.4</ele>
        <time>2024-08-10T13:02:50Z</time>
      </trkpt>
      <trkpt lat="45.01364" lon="6.37435">
        <ele>1806.6</ele>
        <time>2024-08-10T13:02:51Z</time>
      </trkpt>
      <trkpt lat="45.01362" lon="6.37434">
        <ele>1807</ele>
        <time>2024-08-10T13:02:52Z</time>
      </trkpt>
      <trkpt lat="45.01362" lon="6.37434">
        <ele>1807</ele>
        <time>2024-08-10T13:02:53Z</time>
      </trkpt>
      <trkpt lat="45.0136" lon="6.37432">
        <ele>1807.4</ele>
        <time>2024-08-10T13:02:54Z</time>
      </trkpt>
      <trkpt lat="45.0136" lon="6.37432">
        <ele>1807.4</ele>
        <time>2024-08-10T13:02:55Z</time>
      </trkpt>
      <trkpt lat="45.0136" lon="6.37432">
        <ele>1807.6</ele>
        <time>2024-08-10T13:02:56Z</time>
      </trkpt>
      <trkpt lat="45.0136" lon="6.37432">
        <ele>1807.6</ele>
        <time>2024-08-10T13:02:57Z</time>
      </trkpt>
      <trkpt lat="45.0136" lon="6.37432">
        <ele>1807.6</ele>
        <time>2024-08-10T13:02:58Z</time>
      </trkpt>
      <trkpt lat="45.0136" lon="6.37432">
        <ele>1807.6</ele>
        <time>2024-08-10T13:02:59Z</time>
      </trkpt>
      <trkpt lat="45.01359" lon="6.3743">
        <ele>1807.6</ele>
        <time>2024-08-10T13:03:00Z</time>
      </trkpt>
      <trkpt lat="45.01359" lon="6.3743">
        <ele>1807.6</ele>
        <time>2024-08-10T13:03:01Z</time>
      </trkpt>
      <trkpt lat="45.01359" lon="6.3743">
        <ele>1807.8</ele>
        <time>2024-08-10T13:03:02Z</time>
      </trkpt>
      <trkpt lat="45.01357" lon="6.37429">
        <ele>1808.2</ele>
        <time>2024-08-10T13:03:03Z</time>
      </trkpt>
      <trkpt lat="45.01357" lon="6.37429">
        <ele>1808.2</ele>
        <time>2024-08-10T13:03:04Z</time>
      </trkpt>
      <trkpt lat="45.01355" lon="6.37428">
        <ele>1808.2</ele>
        <time>2024-08-10T13:03:05Z</time>
      </trkpt>
      <trkpt lat="45.01355" lon="6.37428">
        <ele>1808.4</ele>
        <time>2024-08-10T13:03:06Z</time>
      </trkpt>
      <trkpt lat="45.01353" lon="6.37427">
        <ele>1808.4</ele>
        <time>2024-08-10T13:03:07Z</time>
      </trkpt>
      <trkpt lat="45.01353" lon="6.37427">
        <ele>1808.4</ele>
        <time>2024-08-10T13:03:08Z</time>
      </trkpt>
      <trkpt lat="45.01352" lon="6.37424">
        <ele>1808.4</ele>
        <time>2024-08-10T13:03:09Z</time>
      </trkpt>
      <trkpt lat="45.01352" lon="6.37424">
        <ele>1808.4</ele>
        <time>2024-08-10T13:03:10Z</time>
      </trkpt>
      <trkpt lat="45.01352" lon="6.37424">
        <ele>1808.8</ele>
        <time>2024-08-10T13:03:11Z</time>
      </trkpt>
      <trkpt lat="45.01352" lon="6.37422">
        <ele>1808.8</ele>
        <time>2024-08-10T13:03:12Z</time>
      </trkpt>
      <trkpt lat="45.01352" lon="6.37422">
        <ele>1808.8</ele>
        <time>2024-08-10T13:03:13Z</time>
      </trkpt>
      <trkpt lat="45.01352" lon="6.37422">
        <ele>1808.8</ele>
        <time>2024-08-10T13:03:14Z</time>
      </trkpt>
      <trkpt lat="45.01352" lon="6.37422">
        <ele>1809</ele>
        <time>2024-08-10T13:03:15Z</time>
      </trkpt>
      <trkpt lat="45.0135" lon="6.37421">
        <ele>1809.4</ele>
        <time>2024-08-10T13:03:16Z</time>
      </trkpt>
      <trkpt lat="45.0135" lon="6.37421">
        <ele>1809.6</ele>
        <time>2024-08-10T13:03:17Z</time>
      </trkpt>
      <trkpt lat="45.0135" lon="6.37421">
        <ele>1809.6</ele>
        <time>2024-08-10T13:03:18Z</time>
      </trkpt>
      <trkpt lat="45.0135" lon="6.37421">
        <ele>1809.6</ele>
        <time>2024-08-10T13:03:19Z</time>
      </trkpt>
      <trkpt lat="45.01348" lon="6.37421">
        <ele>1810</ele>
        <time>2024-08-10T13:03:20Z</time>
      </trkpt>
      <trkpt lat="45.01348" lon="6.37421">
        <ele>1810</ele>
        <time>2024-08-10T13:03:21Z</time>
      </trkpt>
      <trkpt lat="45.01346" lon="6.37423">
        <ele>1810.2</ele>
        <time>2024-08-10T13:03:22Z</time>
      </trkpt>
      <trkpt lat="45.01346" lon="6.37423">
        <ele>1810.2</ele>
        <time>2024-08-10T13:03:23Z</time>
      </trkpt>
      <trkpt lat="45.01346" lon="6.37423">
        <ele>1810.4</ele>
        <time>2024-08-10T13:03:24Z</time>
      </trkpt>
      <trkpt lat="45.01346" lon="6.37423">
        <ele>1810.8</ele>
        <time>2024-08-10T13:03:25Z</time>
      </trkpt>
      <trkpt lat="45.01346" lon="6.37425">
        <ele>1810.8</ele>
        <time>2024-08-10T13:03:26Z</time>
      </trkpt>
      <trkpt lat="45.01346" lon="6.37425">
        <ele>1811</ele>
        <time>2024-08-10T13:03:27Z</time>
      </trkpt>
      <trkpt lat="45.01346" lon="6.37425">
        <ele>1811.4</ele>
        <time>2024-08-10T13:03:28Z</time>
      </trkpt>
      <trkpt lat="45.01346" lon="6.37425">
        <ele>1811.4</ele>
        <time>2024-08-10T13:03:29Z</time>
      </trkpt>
      <trkpt lat="45.01345" lon="6.37427">
        <ele>1811.6</ele>
        <time>2024-08-10T13:03:30Z</time>
      </trkpt>
      <trkpt lat="45.01345" lon="6.37427">
        <ele>1811.8</ele>
        <time>2024-08-10T13:03:31Z</time>
      </trkpt>
      <trkpt lat="45.01345" lon="6.37427">
        <ele>1811.8</ele>
        <time>2024-08-10T13:03:32Z</time>
      </trkpt>
      <trkpt lat="45.01345" lon="6.37427">
        <ele>1811.6</ele>
        <time>2024-08-10T13:03:33Z</time>
      </trkpt>
      <trkpt lat="45.01345" lon="6.37431">
        <ele>1811.6</ele>
        <time>2024-08-10T13:03:34Z</time>
      </trkpt>
      <trkpt lat="45.01345" lon="6.37431">
        <ele>1812.2</ele>
        <time>2024-08-10T13:03:35Z</time>
      </trkpt>
      <trkpt lat="45.01345" lon="6.37431">
        <ele>1812.6</ele>
        <time>2024-08-10T13:03:36Z</time>
      </trkpt>
      <trkpt lat="45.01346" lon="6.37433">
        <ele>1812.6</ele>
        <time>2024-08-10T13:03:37Z</time>
      </trkpt>
      <trkpt lat="45.01346" lon="6.37433">
        <ele>1812.8</ele>
        <time>2024-08-10T13:03:38Z</time>
      </trkpt>
      <trkpt lat="45.01346" lon="6.37433">
        <ele>1813</ele>
        <time>2024-08-10T13:03:39Z</time>
      </trkpt>
      <trkpt lat="45.01347" lon="6.37436">
        <ele>1813</ele>
        <time>2024-08-10T13:03:40Z</time>
      </trkpt>
      <trkpt lat="45.01347" lon="6.37436">
        <ele>1813</ele>
        <time>2024-08-10T13:03:41Z</time>
      </trkpt>
      <trkpt lat="45.01347" lon="6.37436">
        <ele>1813</ele>
        <time>2024-08-10T13:03:42Z</time>
      </trkpt>
      <trkpt lat="45.01347" lon="6.37438">
        <ele>1813.6</ele>
        <time>2024-08-10T13:03:43Z</time>
      </trkpt>
      <trkpt lat="45.01347" lon="6.37438">
        <ele>1813.8</ele>
        <time>2024-08-10T13:03:44Z</time>
      </trkpt>
      <trkpt lat="45.01347" lon="6.37438">
        <ele>1813.8</ele>
        <time>2024-08-10T13:03:45Z</time>
      </trkpt>
      <trkpt lat="45.01347" lon="6.37438">
        <ele>1814</ele>
        <time>2024-08-10T13:03:46Z</time>
      </trkpt>
      <trkpt lat="45.01349" lon="6.37441">
        <ele>1814.2</ele>
        <time>2024-08-10T13:03:47Z</time>
      </trkpt>
      <trkpt lat="45.01349" lon="6.37441">
        <ele>1814.2</ele>
        <time>2024-08-10T13:03:48Z</time>
      </trkpt>
      <trkpt lat="45.01349" lon="6.37441">
        <ele>1814.6</ele>
        <time>2024-08-10T13:03:49Z</time>
      </trkpt>
      <trkpt lat="45.0135" lon="6.37444">
        <ele>1814.6</ele>
        <time>2024-08-10T13:03:50Z</time>
      </trkpt>
      <trkpt lat="45.0135" lon="6.37444">
        <ele>1814.8</ele>
        <time>2024-08-10T13:03:51Z</time>
      </trkpt>
      <trkpt lat="45.0135" lon="6.37444">
        <ele>1814.8</ele>
        <time>2024-08-10T13:03:52Z</time>
      </trkpt>
      <trkpt lat="45.01349" lon="6.37446">
        <ele>1814.8</ele>
        <time>2024-08-10T13:03:53Z</time>
      </trkpt>
      <trkpt lat="45.01349" lon="6.37446">
        <ele>1814.8</ele>
        <time>2024-08-10T13:03:54Z</time>
      </trkpt>
      <trkpt lat="45.01349" lon="6.37446">
        <ele>1814.8</ele>
        <time>2024-08-10T13:03:55Z</time>
      </trkpt>
      <trkpt lat="45.01349" lon="6.37449">
        <ele>1815</ele>
        <time>2024-08-10T13:03:56Z</time>
      </trkpt>
      <trkpt lat="45.01349" lon="6.37449">
        <ele>1815.2</ele>
        <time>2024-08-10T13:03:57Z</time>
      </trkpt>
      <trkpt lat="45.01349" lon="6.37449">
        <ele>1815.4</ele>
        <time>2024-08-10T13:03:58Z</time>
      </trkpt>
      <trkpt lat="45.01349" lon="6.37449">
        <ele>1815.6</ele>
        <time>2024-08-10T13:03:59Z</time>
      </trkpt>
      <trkpt lat="45.01349" lon="6.37449">
        <ele>1816</ele>
        <time>2024-08-10T13:04:00Z</time>
      </trkpt>
      <trkpt lat="45.01347" lon="6.37449">
        <ele>1816</ele>
        <time>2024-08-10T13:04:01Z</time>
      </trkpt>
      <trkpt lat="45.01347" lon="6.37449">
        <ele>1816.2</ele>
        <time>2024-08-10T13:04:02Z</time>
      </trkpt>
      <trkpt lat="45.01346" lon="6.37446">
        <ele>1816.6</ele>
        <time>2024-08-10T13:04:03Z</time>
      </trkpt>
      <trkpt lat="45.01346" lon="6.37446">
        <ele>1816.6</ele>
        <time>2024-08-10T13:04:04Z</time>
      </trkpt>
      <trkpt lat="45.01346" lon="6.37446">
        <ele>1817</ele>
        <time>2024-08-10T13:04:05Z</time>
      </trkpt>
      <trkpt lat="45.01346" lon="6.37446">
        <ele>1817.2</ele>
        <time>2024-08-10T13:04:06Z</time>
      </trkpt>
      <trkpt lat="45.01346" lon="6.37446">
        <ele>1817.2</ele>
        <time>2024-08-10T13:04:07Z</time>
      </trkpt>
      <trkpt lat="45.01346" lon="6.37446">
        <ele>1817.4</ele>
        <time>2024-08-10T13:04:08Z</time>
      </trkpt>
      <trkpt lat="45.01346" lon="6.37446">
        <ele>1817.4</ele>
        <time>2024-08-10T13:04:09Z</time>
      </trkpt>
      <trkpt lat="45.01344" lon="6.37444">
        <ele>1817.4</ele>
        <time>2024-08-10T13:04:10Z</time>
      </trkpt>
      <trkpt lat="45.01344" lon="6.37444">
        <ele>1817.8</ele>
        <time>2024-08-10T13:04:11Z</time>
      </trkpt>
      <trkpt lat="45.01342" lon="6.37442">
        <ele>1818</ele>
        <time>2024-08-10T13:04:12Z</time>
      </trkpt>
      <trkpt lat="45.01342" lon="6.37442">
        <ele>1818</ele>
        <time>2024-08-10T13:04:13Z</time>
      </trkpt>
      <trkpt lat="45.01341" lon="6.37441">
        <ele>1818.2</ele>
        <time>2024-08-10T13:04:14Z</time>
      </trkpt>
      <trkpt lat="45.01341" lon="6.37441">
        <ele>1818.4</ele>
        <time>2024-08-10T13:04:15Z</time>
      </trkpt>
      <trkpt lat="45.01341" lon="6.37441">
        <ele>1818.4</ele>
        <time>2024-08-10T13:04:16Z</time>
      </trkpt>
      <trkpt lat="45.01339" lon="6.37441">
        <ele>1818.4</ele>
        <time>2024-08-10T13:04:17Z</time>
      </trkpt>
      <trkpt lat="45.01339" lon="6.37441">
        <ele>1818.4</ele>
        <time>2024-08-10T13:04:18Z</time>
      </trkpt>
      <trkpt lat="45.01339" lon="6.37441">
        <ele>1818.4</ele>
        <time>2024-08-10T13:04:19Z</time>
      </trkpt>
      <trkpt lat="45.01337" lon="6.37442">
        <ele>1818.6</ele>
        <time>2024-08-10T13:04:20Z</time>
      </trkpt>
      <trkpt lat="45.01337" lon="6.37442">
        <ele>1819.2</ele>
        <time>2024-08-10T13:04:21Z</time>
      </trkpt>
      <trkpt lat="45.01337" lon="6.37442">
        <ele>1819.2</ele>
        <time>2024-08-10T13:04:22Z</time>
      </trkpt>
      <trkpt lat="45.01337" lon="6.37442">
        <ele>1819.4</ele>
        <time>2024-08-10T13:04:23Z</time>
      </trkpt>
      <trkpt lat="45.01337" lon="6.37442">
        <ele>1819.8</ele>
        <time>2024-08-10T13:04:24Z</time>
      </trkpt>
      <trkpt lat="45.01337" lon="6.37442">
        <ele>1819.8</ele>
        <time>2024-08-10T13:04:25Z</time>
      </trkpt>
      <trkpt lat="45.01335" lon="6.37442">
        <ele>1820</ele>
        <time>2024-08-10T13:04:26Z</time>
      </trkpt>
      <trkpt lat="45.01335" lon="6.37442">
        <ele>1820</ele>
        <time>2024-08-10T13:04:27Z</time>
      </trkpt>
      <trkpt lat="45.01335" lon="6.37442">
        <ele>1820.4</ele>
        <time>2024-08-10T13:04:28Z</time>
      </trkpt>
      <trkpt lat="45.01335" lon="6.37442">
        <ele>1820.4</ele>
        <time>2024-08-10T13:04:29Z</time>
      </trkpt>
      <trkpt lat="45.01333" lon="6.3744">
        <ele>1820.6</ele>
        <time>2024-08-10T13:04:30Z</time>
      </trkpt>
      <trkpt lat="45.01333" lon="6.3744">
        <ele>1820.6</ele>
        <time>2024-08-10T13:04:31Z</time>
      </trkpt>
      <trkpt lat="45.01333" lon="6.3744">
        <ele>1820.8</ele>
        <time>2024-08-10T13:04:32Z</time>
      </trkpt>
      <trkpt lat="45.01333" lon="6.37438">
        <ele>1820.8</ele>
        <time>2024-08-10T13:04:33Z</time>
      </trkpt>
      <trkpt lat="45.01333" lon="6.37438">
        <ele>1821</ele>
        <time>2024-08-10T13:04:34Z</time>
      </trkpt>
      <trkpt lat="45.01331" lon="6.37436">
        <ele>1821</ele>
        <time>2024-08-10T13:04:35Z</time>
      </trkpt>
      <trkpt lat="45.01331" lon="6.37436">
        <ele>1821</ele>
        <time>2024-08-10T13:04:36Z</time>
      </trkpt>
      <trkpt lat="45.01331" lon="6.37436">
        <ele>1821.4</ele>
        <time>2024-08-10T13:04:37Z</time>
      </trkpt>
      <trkpt lat="45.0133" lon="6.37433">
        <ele>1821.6</ele>
        <time>2024-08-10T13:04:38Z</time>
      </trkpt>
      <trkpt lat="45.0133" lon="6.37433">
        <ele>1821.8</ele>
        <time>2024-08-10T13:04:39Z</time>
      </trkpt>
      <trkpt lat="45.01329" lon="6.3743">
        <ele>1821.8</ele>
        <time>2024-08-10T13:04:40Z</time>
      </trkpt>
      <trkpt lat="45.01329" lon="6.3743">
        <ele>1822</ele>
        <time>2024-08-10T13:04:41Z</time>
      </trkpt>
      <trkpt lat="45.01329" lon="6.3743">
        <ele>1822.2</ele>
        <time>2024-08-10T13:04:42Z</time>
      </trkpt>
      <trkpt lat="45.01329" lon="6.3743">
        <ele>1822.2</ele>
        <time>2024-08-10T13:04:43Z</time>
      </trkpt>
      <trkpt lat="45.01327" lon="6.37431">
        <ele>1822.4</ele>
        <time>2024-08-10T13:04:44Z</time>
      </trkpt>
      <trkpt lat="45.01327" lon="6.37431">
        <ele>1822.6</ele>
        <time>2024-08-10T13:04:45Z</time>
      </trkpt>
      <trkpt lat="45.01327" lon="6.37431">
        <ele>1822.6</ele>
        <time>2024-08-10T13:04:46Z</time>
      </trkpt>
      <trkpt lat="45.01327" lon="6.37434">
        <ele>1823</ele>
        <time>2024-08-10T13:04:47Z</time>
      </trkpt>
      <trkpt lat="45.01327" lon="6.37434">
        <ele>1823.2</ele>
        <time>2024-08-10T13:04:48Z</time>
      </trkpt>
      <trkpt lat="45.01327" lon="6.37434">
        <ele>1823.4</ele>
        <time>2024-08-10T13:04:49Z</time>
      </trkpt>
      <trkpt lat="45.01327" lon="6.37434">
        <ele>1823.6</ele>
        <time>2024-08-10T13:04:50Z</time>
      </trkpt>
      <trkpt lat="45.01326" lon="6.37436">
        <ele>1823.8</ele>
        <time>2024-08-10T13:04:51Z</time>
      </trkpt>
      <trkpt lat="45.01326" lon="6.37436">
        <ele>1824</ele>
        <time>2024-08-10T13:04:52Z</time>
      </trkpt>
      <trkpt lat="45.01326" lon="6.37436">
        <ele>1824.2</ele>
        <time>2024-08-10T13:04:53Z</time>
      </trkpt>
      <trkpt lat="45.01326" lon="6.37436">
        <ele>1824.2</ele>
        <time>2024-08-10T13:04:54Z</time>
      </trkpt>
      <trkpt lat="45.01326" lon="6.37436">
        <ele>1824.2</ele>
        <time>2024-08-10T13:04:55Z</time>
      </trkpt>
      <trkpt lat="45.01324" lon="6.37435">
        <ele>1824.6</ele>
        <time>2024-08-10T13:04:56Z</time>
      </trkpt>
      <trkpt lat="45.01324" lon="6.37435">
        <ele>1824.6</ele>
        <time>2024-08-10T13:04:57Z</time>
      </trkpt>
      <trkpt lat="45.01324" lon="6.37435">
        <ele>1824.6</ele>
        <time>2024-08-10T13:04:58Z</time>
      </trkpt>
      <trkpt lat="45.01323" lon="6.37432">
        <ele>1825</ele>
        <time>2024-08-10T13:04:59Z</time>
      </trkpt>
      <trkpt lat="45.01323" lon="6.37432">
        <ele>1825.2</ele>
        <time>2024-08-10T13:05:00Z</time>
      </trkpt>
      <trkpt lat="45.01322" lon="6.37429">
        <ele>1825.4</ele>
        <time>2024-08-10T13:05:01Z</time>
      </trkpt>
      <trkpt lat="45.01322" lon="6.37429">
        <ele>1825.6</ele>
        <time>2024-08-10T13:05:02Z</time>
      </trkpt>
      <trkpt lat="45.01322" lon="6.37429">
        <ele>1826</ele>
        <time>2024-08-10T13:05:03Z</time>
      </trkpt>
      <trkpt lat="45.01321" lon="6.37427">
        <ele>1826</ele>
        <time>2024-08-10T13:05:04Z</time>
      </trkpt>
      <trkpt lat="45.01321" lon="6.37427">
        <ele>1826.4</ele>
        <time>2024-08-10T13:05:05Z</time>
      </trkpt>
      <trkpt lat="45.01321" lon="6.37427">
        <ele>1826.6</ele>
        <time>2024-08-10T13:05:06Z</time>
      </trkpt>
      <trkpt lat="45.01321" lon="6.37424">
        <ele>1826.8</ele>
        <time>2024-08-10T13:05:07Z</time>
      </trkpt>
      <trkpt lat="45.01321" lon="6.37424">
        <ele>1827.2</ele>
        <time>2024-08-10T13:05:08Z</time>
      </trkpt>
      <trkpt lat="45.01321" lon="6.37421">
        <ele>1827.4</ele>
        <time>2024-08-10T13:05:09Z</time>
      </trkpt>
      <trkpt lat="45.01321" lon="6.37421">
        <ele>1827.4</ele>
        <time>2024-08-10T13:05:10Z</time>
      </trkpt>
      <trkpt lat="45.01321" lon="6.37418">
        <ele>1827.6</ele>
        <time>2024-08-10T13:05:11Z</time>
      </trkpt>
      <trkpt lat="45.01321" lon="6.37418">
        <ele>1827.4</ele>
        <time>2024-08-10T13:05:12Z</time>
      </trkpt>
      <trkpt lat="45.01321" lon="6.37415">
        <ele>1827.6</ele>
        <time>2024-08-10T13:05:13Z</time>
      </trkpt>
      <trkpt lat="45.01321" lon="6.37415">
        <ele>1827.4</ele>
        <time>2024-08-10T13:05:14Z</time>
      </trkpt>
      <trkpt lat="45.01321" lon="6.37415">
        <ele>1827.6</ele>
        <time>2024-08-10T13:05:15Z</time>
      </trkpt>
      <trkpt lat="45.01321" lon="6.37412">
        <ele>1827.6</ele>
        <time>2024-08-10T13:05:16Z</time>
      </trkpt>
      <trkpt lat="45.01321" lon="6.37412">
        <ele>1828</ele>
        <time>2024-08-10T13:05:17Z</time>
      </trkpt>
      <trkpt lat="45.01321" lon="6.37412">
        <ele>1828</ele>
        <time>2024-08-10T13:05:18Z</time>
      </trkpt>
      <trkpt lat="45.01321" lon="6.37409">
        <ele>1828.2</ele>
        <time>2024-08-10T13:05:19Z</time>
      </trkpt>
      <trkpt lat="45.01321" lon="6.37409">
        <ele>1828.6</ele>
        <time>2024-08-10T13:05:20Z</time>
      </trkpt>
      <trkpt lat="45.01321" lon="6.37409">
        <ele>1828.6</ele>
        <time>2024-08-10T13:05:21Z</time>
      </trkpt>
      <trkpt lat="45.01322" lon="6.37406">
        <ele>1828.6</ele>
        <time>2024-08-10T13:05:22Z</time>
      </trkpt>
      <trkpt lat="45.01322" lon="6.37406">
        <ele>1829</ele>
        <time>2024-08-10T13:05:23Z</time>
      </trkpt>
      <trkpt lat="45.01322" lon="6.37406">
        <ele>1829.4</ele>
        <time>2024-08-10T13:05:24Z</time>
      </trkpt>
      <trkpt lat="45.01323" lon="6.37403">
        <ele>1829.8</ele>
        <time>2024-08-10T13:05:25Z</time>
      </trkpt>
      <trkpt lat="45.01323" lon="6.37403">
        <ele>1829.8</ele>
        <time>2024-08-10T13:05:26Z</time>
      </trkpt>
      <trkpt lat="45.01323" lon="6.37403">
        <ele>1829.8</ele>
        <time>2024-08-10T13:05:27Z</time>
      </trkpt>
      <trkpt lat="45.01323" lon="6.374">
        <ele>1830.4</ele>
        <time>2024-08-10T13:05:28Z</time>
      </trkpt>
      <trkpt lat="45.01323" lon="6.374">
        <ele>1830.4</ele>
        <time>2024-08-10T13:05:29Z</time>
      </trkpt>
      <trkpt lat="45.01323" lon="6.374">
        <ele>1830.4</ele>
        <time>2024-08-10T13:05:30Z</time>
      </trkpt>
      <trkpt lat="45.01324" lon="6.37397">
        <ele>1830.4</ele>
        <time>2024-08-10T13:05:31Z</time>
      </trkpt>
      <trkpt lat="45.01324" lon="6.37397">
        <ele>1830.4</ele>
        <time>2024-08-10T13:05:32Z</time>
      </trkpt>
      <trkpt lat="45.01324" lon="6.37397">
        <ele>1830.6</ele>
        <time>2024-08-10T13:05:33Z</time>
      </trkpt>
      <trkpt lat="45.01324" lon="6.37393">
        <ele>1831</ele>
        <time>2024-08-10T13:05:34Z</time>
      </trkpt>
      <trkpt lat="45.01324" lon="6.37393">
        <ele>1831.2</ele>
        <time>2024-08-10T13:05:35Z</time>
      </trkpt>
      <trkpt lat="45.01324" lon="6.37393">
        <ele>1831.2</ele>
        <time>2024-08-10T13:05:36Z</time>
      </trkpt>
      <trkpt lat="45.01325" lon="6.3739">
        <ele>1831.2</ele>
        <time>2024-08-10T13:05:37Z</time>
      </trkpt>
      <trkpt lat="45.01325" lon="6.3739">
        <ele>1831.6</ele>
        <time>2024-08-10T13:05:38Z</time>
      </trkpt>
      <trkpt lat="45.01325" lon="6.3739">
        <ele>1831.8</ele>
        <time>2024-08-10T13:05:39Z</time>
      </trkpt>
      <trkpt lat="45.01325" lon="6.3739">
        <ele>1832</ele>
        <time>2024-08-10T13:05:40Z</time>
      </trkpt>
      <trkpt lat="45.01323" lon="6.37387">
        <ele>1832.2</ele>
        <time>2024-08-10T13:05:41Z</time>
      </trkpt>
      <trkpt lat="45.01323" lon="6.37387">
        <ele>1832.6</ele>
        <time>2024-08-10T13:05:42Z</time>
      </trkpt>
      <trkpt lat="45.01323" lon="6.37387">
        <ele>1832.8</ele>
        <time>2024-08-10T13:05:43Z</time>
      </trkpt>
      <trkpt lat="45.01323" lon="6.37384">
        <ele>1833</ele>
        <time>2024-08-10T13:05:44Z</time>
      </trkpt>
      <trkpt lat="45.01323" lon="6.37384">
        <ele>1833</ele>
        <time>2024-08-10T13:05:45Z</time>
      </trkpt>
      <trkpt lat="45.01323" lon="6.37384">
        <ele>1833.2</ele>
        <time>2024-08-10T13:05:46Z</time>
      </trkpt>
      <trkpt lat="45.01322" lon="6.37381">
        <ele>1833.2</ele>
        <time>2024-08-10T13:05:47Z</time>
      </trkpt>
      <trkpt lat="45.01322" lon="6.37381">
        <ele>1833.4</ele>
        <time>2024-08-10T13:05:48Z</time>
      </trkpt>
      <trkpt lat="45.0132" lon="6.3738">
        <ele>1833.6</ele>
        <time>2024-08-10T13:05:49Z</time>
      </trkpt>
      <trkpt lat="45.0132" lon="6.3738">
        <ele>1833.8</ele>
        <time>2024-08-10T13:05:50Z</time>
      </trkpt>
      <trkpt lat="45.01318" lon="6.37378">
        <ele>1834</ele>
        <time>2024-08-10T13:05:51Z</time>
      </trkpt>
      <trkpt lat="45.01318" lon="6.37378">
        <ele>1834</ele>
        <time>2024-08-10T13:05:52Z</time>
      </trkpt>
      <trkpt lat="45.01318" lon="6.37378">
        <ele>1834</ele>
        <time>2024-08-10T13:05:53Z</time>
      </trkpt>
      <trkpt lat="45.01318" lon="6.37378">
        <ele>1834.2</ele>
        <time>2024-08-10T13:05:54Z</time>
      </trkpt>
      <trkpt lat="45.01318" lon="6.37378">
        <ele>1834.4</ele>
        <time>2024-08-10T13:05:55Z</time>
      </trkpt>
      <trkpt lat="45.01318" lon="6.37378">
        <ele>1834.8</ele>
        <time>2024-08-10T13:05:56Z</time>
      </trkpt>
      <trkpt lat="45.01318" lon="6.37378">
        <ele>1834.8</ele>
        <time>2024-08-10T13:05:57Z</time>
      </trkpt>
      <trkpt lat="45.01318" lon="6.37378">
        <ele>1834.6</ele>
        <time>2024-08-10T13:05:58Z</time>
      </trkpt>
      <trkpt lat="45.01318" lon="6.37378">
        <ele>1834.6</ele>
        <time>2024-08-10T13:05:59Z</time>
      </trkpt>
      <trkpt lat="45.01318" lon="6.37378">
        <ele>1834.6</ele>
        <time>2024-08-10T13:06:00Z</time>
      </trkpt>
      <trkpt lat="45.01318" lon="6.37378">
        <ele>1834.6</ele>
        <time>2024-08-10T13:06:01Z</time>
      </trkpt>
      <trkpt lat="45.01318" lon="6.37378">
        <ele>1834.4</ele>
        <time>2024-08-10T13:06:02Z</time>
      </trkpt>
      <trkpt lat="45.01318" lon="6.37378">
        <ele>1834.4</ele>
        <time>2024-08-10T13:06:03Z</time>
      </trkpt>
      <trkpt lat="45.01318" lon="6.37378">
        <ele>1834.4</ele>
        <time>2024-08-10T13:06:04Z</time>
      </trkpt>
      <trkpt lat="45.01318" lon="6.37378">
        <ele>1834.4</ele>
        <time>2024-08-10T13:06:05Z</time>
      </trkpt>
      <trkpt lat="45.01318" lon="6.37378">
        <ele>1834.4</ele>
        <time>2024-08-10T13:06:06Z</time>
      </trkpt>
      <trkpt lat="45.01318" lon="6.37378">
        <ele>1834.6</ele>
        <time>2024-08-10T13:06:07Z</time>
      </trkpt>
      <trkpt lat="45.01318" lon="6.37378">
        <ele>1834.6</ele>
        <time>2024-08-10T13:06:08Z</time>
      </trkpt>
      <trkpt lat="45.01318" lon="6.37378">
        <ele>1834.6</ele>
        <time>2024-08-10T13:06:09Z</time>
      </trkpt>
      <trkpt lat="45.01316" lon="6.37377">
        <ele>1834.6</ele>
        <time>2024-08-10T13:06:10Z</time>
      </trkpt>
      <trkpt lat="45.01316" lon="6.37377">
        <ele>1834.6</ele>
        <time>2024-08-10T13:06:11Z</time>
      </trkpt>
      <trkpt lat="45.01313" lon="6.37376">
        <ele>1834.6</ele>
        <time>2024-08-10T13:06:12Z</time>
      </trkpt>
      <trkpt lat="45.01313" lon="6.37376">
        <ele>1834.8</ele>
        <time>2024-08-10T13:06:13Z</time>
      </trkpt>
      <trkpt lat="45.01311" lon="6.37375">
        <ele>1834.8</ele>
        <time>2024-08-10T13:06:14Z</time>
      </trkpt>
      <trkpt lat="45.01311" lon="6.37375">
        <ele>1834.8</ele>
        <time>2024-08-10T13:06:15Z</time>
      </trkpt>
      <trkpt lat="45.01309" lon="6.37375">
        <ele>1835</ele>
        <time>2024-08-10T13:06:16Z</time>
      </trkpt>
      <trkpt lat="45.01309" lon="6.37375">
        <ele>1835.2</ele>
        <time>2024-08-10T13:06:17Z</time>
      </trkpt>
      <trkpt lat="45.01307" lon="6.37376">
        <ele>1835.4</ele>
        <time>2024-08-10T13:06:18Z</time>
      </trkpt>
      <trkpt lat="45.01307" lon="6.37376">
        <ele>1835.6</ele>
        <time>2024-08-10T13:06:19Z</time>
      </trkpt>
      <trkpt lat="45.01307" lon="6.37376">
        <ele>1835.6</ele>
        <time>2024-08-10T13:06:20Z</time>
      </trkpt>
      <trkpt lat="45.01305" lon="6.37378">
        <ele>1835.6</ele>
        <time>2024-08-10T13:06:21Z</time>
      </trkpt>
      <trkpt lat="45.01305" lon="6.37378">
        <ele>1835.8</ele>
        <time>2024-08-10T13:06:22Z</time>
      </trkpt>
      <trkpt lat="45.01303" lon="6.37381">
        <ele>1836</ele>
        <time>2024-08-10T13:06:23Z</time>
      </trkpt>
      <trkpt lat="45.01303" lon="6.37381">
        <ele>1836.2</ele>
        <time>2024-08-10T13:06:24Z</time>
      </trkpt>
      <trkpt lat="45.01303" lon="6.37381">
        <ele>1836.4</ele>
        <time>2024-08-10T13:06:25Z</time>
      </trkpt>
      <trkpt lat="45.01301" lon="6.37381">
        <ele>1836.4</ele>
        <time>2024-08-10T13:06:26Z</time>
      </trkpt>
      <trkpt lat="45.01301" lon="6.37381">
        <ele>1836.6</ele>
        <time>2024-08-10T13:06:27Z</time>
      </trkpt>
      <trkpt lat="45.01301" lon="6.37381">
        <ele>1836.6</ele>
        <time>2024-08-10T13:06:28Z</time>
      </trkpt>
      <trkpt lat="45.01299" lon="6.37383">
        <ele>1836.8</ele>
        <time>2024-08-10T13:06:29Z</time>
      </trkpt>
      <trkpt lat="45.01299" lon="6.37383">
        <ele>1837</ele>
        <time>2024-08-10T13:06:30Z</time>
      </trkpt>
      <trkpt lat="45.01299" lon="6.37383">
        <ele>1837.2</ele>
        <time>2024-08-10T13:06:31Z</time>
      </trkpt>
      <trkpt lat="45.01299" lon="6.37386">
        <ele>1837.2</ele>
        <time>2024-08-10T13:06:32Z</time>
      </trkpt>
      <trkpt lat="45.01299" lon="6.37386">
        <ele>1837.4</ele>
        <time>2024-08-10T13:06:33Z</time>
      </trkpt>
      <trkpt lat="45.01299" lon="6.37386">
        <ele>1837.6</ele>
        <time>2024-08-10T13:06:34Z</time>
      </trkpt>
      <trkpt lat="45.01297" lon="6.37389">
        <ele>1838</ele>
        <time>2024-08-10T13:06:35Z</time>
      </trkpt>
      <trkpt lat="45.01297" lon="6.37389">
        <ele>1838</ele>
        <time>2024-08-10T13:06:36Z</time>
      </trkpt>
      <trkpt lat="45.01297" lon="6.37389">
        <ele>1838.2</ele>
        <time>2024-08-10T13:06:37Z</time>
      </trkpt>
      <trkpt lat="45.01299" lon="6.37391">
        <ele>1838.2</ele>
        <time>2024-08-10T13:06:38Z</time>
      </trkpt>
      <trkpt lat="45.01299" lon="6.37391">
        <ele>1838.2</ele>
        <time>2024-08-10T13:06:39Z</time>
      </trkpt>
      <trkpt lat="45.01301" lon="6.37391">
        <ele>1838.4</ele>
        <time>2024-08-10T13:06:40Z</time>
      </trkpt>
      <trkpt lat="45.01301" lon="6.37391">
        <ele>1838.4</ele>
        <time>2024-08-10T13:06:41Z</time>
      </trkpt>
      <trkpt lat="45.01303" lon="6.37392">
        <ele>1838.8</ele>
        <time>2024-08-10T13:06:42Z</time>
      </trkpt>
      <trkpt lat="45.01303" lon="6.37392">
        <ele>1838.8</ele>
        <time>2024-08-10T13:06:43Z</time>
      </trkpt>
      <trkpt lat="45.01305" lon="6.37392">
        <ele>1838.8</ele>
        <time>2024-08-10T13:06:44Z</time>
      </trkpt>
      <trkpt lat="45.01305" lon="6.37392">
        <ele>1838.8</ele>
        <time>2024-08-10T13:06:45Z</time>
      </trkpt>
      <trkpt lat="45.01307" lon="6.37393">
        <ele>1839</ele>
        <time>2024-08-10T13:06:46Z</time>
      </trkpt>
      <trkpt lat="45.01307" lon="6.37393">
        <ele>1839.6</ele>
        <time>2024-08-10T13:06:47Z</time>
      </trkpt>
      <trkpt lat="45.01308" lon="6.37395">
        <ele>1839.6</ele>
        <time>2024-08-10T13:06:48Z</time>
      </trkpt>
      <trkpt lat="45.01308" lon="6.37395">
        <ele>1839.8</ele>
        <time>2024-08-10T13:06:49Z</time>
      </trkpt>
      <trkpt lat="45.01309" lon="6.37397">
        <ele>1839.8</ele>
        <time>2024-08-10T13:06:50Z</time>
      </trkpt>
      <trkpt lat="45.01309" lon="6.37397">
        <ele>1839.8</ele>
        <time>2024-08-10T13:06:51Z</time>
      </trkpt>
      <trkpt lat="45.01308" lon="6.374">
        <ele>1839.8</ele>
        <time>2024-08-10T13:06:52Z</time>
      </trkpt>
      <trkpt lat="45.01308" lon="6.374">
        <ele>1840</ele>
        <time>2024-08-10T13:06:53Z</time>
      </trkpt>
      <trkpt lat="45.01306" lon="6.37402">
        <ele>1840</ele>
        <time>2024-08-10T13:06:54Z</time>
      </trkpt>
      <trkpt lat="45.01306" lon="6.37402">
        <ele>1840.2</ele>
        <time>2024-08-10T13:06:55Z</time>
      </trkpt>
      <trkpt lat="45.01306" lon="6.37402">
        <ele>1840.2</ele>
        <time>2024-08-10T13:06:56Z</time>
      </trkpt>
      <trkpt lat="45.01304" lon="6.37403">
        <ele>1840.4</ele>
        <time>2024-08-10T13:06:57Z</time>
      </trkpt>
      <trkpt lat="45.01304" lon="6.37403">
        <ele>1840.4</ele>
        <time>2024-08-10T13:06:58Z</time>
      </trkpt>
      <trkpt lat="45.01302" lon="6.37403">
        <ele>1840.4</ele>
        <time>2024-08-10T13:06:59Z</time>
      </trkpt>
      <trkpt lat="45.01302" lon="6.37403">
        <ele>1840.6</ele>
        <time>2024-08-10T13:07:00Z</time>
      </trkpt>
      <trkpt lat="45.01302" lon="6.37403">
        <ele>1841</ele>
        <time>2024-08-10T13:07:01Z</time>
      </trkpt>
      <trkpt lat="45.013" lon="6.37403">
        <ele>1841</ele>
        <time>2024-08-10T13:07:02Z</time>
      </trkpt>
      <trkpt lat="45.013" lon="6.37403">
        <ele>1841.2</ele>
        <time>2024-08-10T13:07:03Z</time>
      </trkpt>
      <trkpt lat="45.013" lon="6.37403">
        <ele>1841.2</ele>
        <time>2024-08-10T13:07:04Z</time>
      </trkpt>
      <trkpt lat="45.01298" lon="6.37405">
        <ele>1841.4</ele>
        <time>2024-08-10T13:07:05Z</time>
      </trkpt>
      <trkpt lat="45.01298" lon="6.37405">
        <ele>1841.8</ele>
        <time>2024-08-10T13:07:06Z</time>
      </trkpt>
      <trkpt lat="45.01298" lon="6.37405">
        <ele>1841.8</ele>
        <time>2024-08-10T13:07:07Z</time>
      </trkpt>
      <trkpt lat="45.01296" lon="6.37405">
        <ele>1842</ele>
        <time>2024-08-10T13:07:08Z</time>
      </trkpt>
      <trkpt lat="45.01296" lon="6.37405">
        <ele>1842.2</ele>
        <time>2024-08-10T13:07:09Z</time>
      </trkpt>
      <trkpt lat="45.01295" lon="6.37407">
        <ele>1843</ele>
        <time>2024-08-10T13:07:10Z</time>
      </trkpt>
      <trkpt lat="45.01295" lon="6.37407">
        <ele>1843</ele>
        <time>2024-08-10T13:07:11Z</time>
      </trkpt>
      <trkpt lat="45.01295" lon="6.37407">
        <ele>1843.2</ele>
        <time>2024-08-10T13:07:12Z</time>
      </trkpt>
      <trkpt lat="45.01293" lon="6.3741">
        <ele>1843</ele>
        <time>2024-08-10T13:07:13Z</time>
      </trkpt>
      <trkpt lat="45.01293" lon="6.3741">
        <ele>1843.2</ele>
        <time>2024-08-10T13:07:14Z</time>
      </trkpt>
      <trkpt lat="45.01293" lon="6.3741">
        <ele>1843.4</ele>
        <time>2024-08-10T13:07:15Z</time>
      </trkpt>
      <trkpt lat="45.01292" lon="6.37412">
        <ele>1843.4</ele>
        <time>2024-08-10T13:07:16Z</time>
      </trkpt>
      <trkpt lat="45.01292" lon="6.37412">
        <ele>1843.8</ele>
        <time>2024-08-10T13:07:17Z</time>
      </trkpt>
      <trkpt lat="45.01292" lon="6.37412">
        <ele>1844</ele>
        <time>2024-08-10T13:07:18Z</time>
      </trkpt>
      <trkpt lat="45.0129" lon="6.37415">
        <ele>1844</ele>
        <time>2024-08-10T13:07:19Z</time>
      </trkpt>
      <trkpt lat="45.0129" lon="6.37415">
        <ele>1844.6</ele>
        <time>2024-08-10T13:07:20Z</time>
      </trkpt>
      <trkpt lat="45.0129" lon="6.37415">
        <ele>1844.6</ele>
        <time>2024-08-10T13:07:21Z</time>
      </trkpt>
      <trkpt lat="45.0129" lon="6.37415">
        <ele>1844.6</ele>
        <time>2024-08-10T13:07:22Z</time>
      </trkpt>
      <trkpt lat="45.01293" lon="6.37417">
        <ele>1844.8</ele>
        <time>2024-08-10T13:07:23Z</time>
      </trkpt>
      <trkpt lat="45.01293" lon="6.37417">
        <ele>1844.8</ele>
        <time>2024-08-10T13:07:24Z</time>
      </trkpt>
      <trkpt lat="45.01293" lon="6.37417">
        <ele>1845</ele>
        <time>2024-08-10T13:07:25Z</time>
      </trkpt>
      <trkpt lat="45.01295" lon="6.37416">
        <ele>1845.2</ele>
        <time>2024-08-10T13:07:26Z</time>
      </trkpt>
      <trkpt lat="45.01295" lon="6.37416">
        <ele>1845.6</ele>
        <time>2024-08-10T13:07:27Z</time>
      </trkpt>
      <trkpt lat="45.01297" lon="6.37417">
        <ele>1845.8</ele>
        <time>2024-08-10T13:07:28Z</time>
      </trkpt>
      <trkpt lat="45.01297" lon="6.37417">
        <ele>1845.8</ele>
        <time>2024-08-10T13:07:29Z</time>
      </trkpt>
      <trkpt lat="45.01298" lon="6.37419">
        <ele>1846</ele>
        <time>2024-08-10T13:07:30Z</time>
      </trkpt>
      <trkpt lat="45.01298" lon="6.37419">
        <ele>1846.2</ele>
        <time>2024-08-10T13:07:31Z</time>
      </trkpt>
      <trkpt lat="45.01299" lon="6.37421">
        <ele>1846.4</ele>
        <time>2024-08-10T13:07:32Z</time>
      </trkpt>
      <trkpt lat="45.01299" lon="6.37421">
        <ele>1846.4</ele>
        <time>2024-08-10T13:07:33Z</time>
      </trkpt>
      <trkpt lat="45.01299" lon="6.37421">
        <ele>1846.4</ele>
        <time>2024-08-10T13:07:34Z</time>
      </trkpt>
      <trkpt lat="45.01299" lon="6.37425">
        <ele>1846.6</ele>
        <time>2024-08-10T13:07:35Z</time>
      </trkpt>
      <trkpt lat="45.01299" lon="6.37425">
        <ele>1846.8</ele>
        <time>2024-08-10T13:07:36Z</time>
      </trkpt>
      <trkpt lat="45.01297" lon="6.37428">
        <ele>1846.8</ele>
        <time>2024-08-10T13:07:37Z</time>
      </trkpt>
      <trkpt lat="45.01297" lon="6.37428">
        <ele>1847.2</ele>
        <time>2024-08-10T13:07:38Z</time>
      </trkpt>
      <trkpt lat="45.01297" lon="6.37428">
        <ele>1847.4</ele>
        <time>2024-08-10T13:07:39Z</time>
      </trkpt>
      <trkpt lat="45.01296" lon="6.37431">
        <ele>1847.4</ele>
        <time>2024-08-10T13:07:40Z</time>
      </trkpt>
      <trkpt lat="45.01296" lon="6.37431">
        <ele>1847.8</ele>
        <time>2024-08-10T13:07:41Z</time>
      </trkpt>
      <trkpt lat="45.01296" lon="6.37431">
        <ele>1847.8</ele>
        <time>2024-08-10T13:07:42Z</time>
      </trkpt>
      <trkpt lat="45.01294" lon="6.37432">
        <ele>1848.2</ele>
        <time>2024-08-10T13:07:43Z</time>
      </trkpt>
      <trkpt lat="45.01294" lon="6.37432">
        <ele>1848.6</ele>
        <time>2024-08-10T13:07:44Z</time>
      </trkpt>
      <trkpt lat="45.01294" lon="6.37432">
        <ele>1848.8</ele>
        <time>2024-08-10T13:07:45Z</time>
      </trkpt>
      <trkpt lat="45.01294" lon="6.37432">
        <ele>1848.8</ele>
        <time>2024-08-10T13:07:46Z</time>
      </trkpt>
      <trkpt lat="45.01293" lon="6.37434">
        <ele>1849</ele>
        <time>2024-08-10T13:07:47Z</time>
      </trkpt>
      <trkpt lat="45.01293" lon="6.37434">
        <ele>1849.2</ele>
        <time>2024-08-10T13:07:48Z</time>
      </trkpt>
      <trkpt lat="45.01293" lon="6.37434">
        <ele>1849.4</ele>
        <time>2024-08-10T13:07:49Z</time>
      </trkpt>
      <trkpt lat="45.01291" lon="6.37434">
        <ele>1849.4</ele>
        <time>2024-08-10T13:07:50Z</time>
      </trkpt>
      <trkpt lat="45.01291" lon="6.37434">
        <ele>1849.6</ele>
        <time>2024-08-10T13:07:51Z</time>
      </trkpt>
      <trkpt lat="45.01291" lon="6.37434">
        <ele>1849.6</ele>
        <time>2024-08-10T13:07:52Z</time>
      </trkpt>
      <trkpt lat="45.01291" lon="6.37434">
        <ele>1850.2</ele>
        <time>2024-08-10T13:07:53Z</time>
      </trkpt>
      <trkpt lat="45.01291" lon="6.37434">
        <ele>1850.2</ele>
        <time>2024-08-10T13:07:54Z</time>
      </trkpt>
      <trkpt lat="45.01289" lon="6.37436">
        <ele>1850.4</ele>
        <time>2024-08-10T13:07:55Z</time>
      </trkpt>
      <trkpt lat="45.01289" lon="6.37436">
        <ele>1850.6</ele>
        <time>2024-08-10T13:07:56Z</time>
      </trkpt>
      <trkpt lat="45.01289" lon="6.37436">
        <ele>1850.6</ele>
        <time>2024-08-10T13:07:57Z</time>
      </trkpt>
      <trkpt lat="45.01287" lon="6.37438">
        <ele>1850.8</ele>
        <time>2024-08-10T13:07:58Z</time>
      </trkpt>
      <trkpt lat="45.01287" lon="6.37438">
        <ele>1851.2</ele>
        <time>2024-08-10T13:07:59Z</time>
      </trkpt>
      <trkpt lat="45.01285" lon="6.37438">
        <ele>1851.2</ele>
        <time>2024-08-10T13:08:00Z</time>
      </trkpt>
      <trkpt lat="45.01285" lon="6.37438">
        <ele>1851.4</ele>
        <time>2024-08-10T13:08:01Z</time>
      </trkpt>
      <trkpt lat="45.01285" lon="6.37438">
        <ele>1851.8</ele>
        <time>2024-08-10T13:08:02Z</time>
      </trkpt>
      <trkpt lat="45.01283" lon="6.37439">
        <ele>1852.2</ele>
        <time>2024-08-10T13:08:03Z</time>
      </trkpt>
      <trkpt lat="45.01283" lon="6.37439">
        <ele>1852.2</ele>
        <time>2024-08-10T13:08:04Z</time>
      </trkpt>
      <trkpt lat="45.01282" lon="6.3744">
        <ele>1852.4</ele>
        <time>2024-08-10T13:08:05Z</time>
      </trkpt>
      <trkpt lat="45.01282" lon="6.3744">
        <ele>1852.6</ele>
        <time>2024-08-10T13:08:06Z</time>
      </trkpt>
      <trkpt lat="45.01282" lon="6.3744">
        <ele>1852.6</ele>
        <time>2024-08-10T13:08:07Z</time>
      </trkpt>
      <trkpt lat="45.0128" lon="6.37443">
        <ele>1852.8</ele>
        <time>2024-08-10T13:08:08Z</time>
      </trkpt>
      <trkpt lat="45.0128" lon="6.37443">
        <ele>1852.8</ele>
        <time>2024-08-10T13:08:09Z</time>
      </trkpt>
      <trkpt lat="45.0128" lon="6.37443">
        <ele>1852.8</ele>
        <time>2024-08-10T13:08:10Z</time>
      </trkpt>
      <trkpt lat="45.01279" lon="6.37445">
        <ele>1853</ele>
        <time>2024-08-10T13:08:11Z</time>
      </trkpt>
      <trkpt lat="45.01279" lon="6.37445">
        <ele>1853.2</ele>
        <time>2024-08-10T13:08:12Z</time>
      </trkpt>
      <trkpt lat="45.01279" lon="6.37445">
        <ele>1853.6</ele>
        <time>2024-08-10T13:08:13Z</time>
      </trkpt>
      <trkpt lat="45.01278" lon="6.37448">
        <ele>1853.6</ele>
        <time>2024-08-10T13:08:14Z</time>
      </trkpt>
      <trkpt lat="45.01278" lon="6.37448">
        <ele>1853.6</ele>
        <time>2024-08-10T13:08:15Z</time>
      </trkpt>
      <trkpt lat="45.01278" lon="6.37448">
        <ele>1854.2</ele>
        <time>2024-08-10T13:08:16Z</time>
      </trkpt>
      <trkpt lat="45.01278" lon="6.37448">
        <ele>1854.4</ele>
        <time>2024-08-10T13:08:17Z</time>
      </trkpt>
      <trkpt lat="45.01279" lon="6.3745">
        <ele>1854.6</ele>
        <time>2024-08-10T13:08:18Z</time>
      </trkpt>
      <trkpt lat="45.01279" lon="6.3745">
        <ele>1854.6</ele>
        <time>2024-08-10T13:08:19Z</time>
      </trkpt>
      <trkpt lat="45.01279" lon="6.3745">
        <ele>1854.8</ele>
        <time>2024-08-10T13:08:20Z</time>
      </trkpt>
      <trkpt lat="45.01279" lon="6.3745">
        <ele>1855</ele>
        <time>2024-08-10T13:08:21Z</time>
      </trkpt>
      <trkpt lat="45.01281" lon="6.37452">
        <ele>1855.2</ele>
        <time>2024-08-10T13:08:22Z</time>
      </trkpt>
      <trkpt lat="45.01281" lon="6.37452">
        <ele>1855.4</ele>
        <time>2024-08-10T13:08:23Z</time>
      </trkpt>
      <trkpt lat="45.01281" lon="6.37452">
        <ele>1855.6</ele>
        <time>2024-08-10T13:08:24Z</time>
      </trkpt>
      <trkpt lat="45.01283" lon="6.37453">
        <ele>1856</ele>
        <time>2024-08-10T13:08:25Z</time>
      </trkpt>
      <trkpt lat="45.01283" lon="6.37453">
        <ele>1856</ele>
        <time>2024-08-10T13:08:26Z</time>
      </trkpt>
      <trkpt lat="45.01283" lon="6.37453">
        <ele>1856</ele>
        <time>2024-08-10T13:08:27Z</time>
      </trkpt>
      <trkpt lat="45.01284" lon="6.37456">
        <ele>1856.4</ele>
        <time>2024-08-10T13:08:28Z</time>
      </trkpt>
      <trkpt lat="45.01284" lon="6.37456">
        <ele>1856.4</ele>
        <time>2024-08-10T13:08:29Z</time>
      </trkpt>
      <trkpt lat="45.01284" lon="6.37456">
        <ele>1856.6</ele>
        <time>2024-08-10T13:08:30Z</time>
      </trkpt>
      <trkpt lat="45.01284" lon="6.37459">
        <ele>1856.8</ele>
        <time>2024-08-10T13:08:31Z</time>
      </trkpt>
      <trkpt lat="45.01284" lon="6.37459">
        <ele>1857.4</ele>
        <time>2024-08-10T13:08:32Z</time>
      </trkpt>
      <trkpt lat="45.01284" lon="6.37459">
        <ele>1857.4</ele>
        <time>2024-08-10T13:08:33Z</time>
      </trkpt>
      <trkpt lat="45.01284" lon="6.37462">
        <ele>1857.6</ele>
        <time>2024-08-10T13:08:34Z</time>
      </trkpt>
      <trkpt lat="45.01284" lon="6.37462">
        <ele>1857.6</ele>
        <time>2024-08-10T13:08:35Z</time>
      </trkpt>
      <trkpt lat="45.01284" lon="6.37462">
        <ele>1857.6</ele>
        <time>2024-08-10T13:08:36Z</time>
      </trkpt>
      <trkpt lat="45.01284" lon="6.37462">
        <ele>1857.8</ele>
        <time>2024-08-10T13:08:37Z</time>
      </trkpt>
      <trkpt lat="45.01284" lon="6.37462">
        <ele>1858.2</ele>
        <time>2024-08-10T13:08:38Z</time>
      </trkpt>
      <trkpt lat="45.01284" lon="6.37462">
        <ele>1858.2</ele>
        <time>2024-08-10T13:08:39Z</time>
      </trkpt>
      <trkpt lat="45.01284" lon="6.37462">
        <ele>1858.2</ele>
        <time>2024-08-10T13:08:40Z</time>
      </trkpt>
      <trkpt lat="45.01284" lon="6.37462">
        <ele>1858.2</ele>
        <time>2024-08-10T13:08:41Z</time>
      </trkpt>
      <trkpt lat="45.01283" lon="6.37464">
        <ele>1858.2</ele>
        <time>2024-08-10T13:08:42Z</time>
      </trkpt>
      <trkpt lat="45.01283" lon="6.37464">
        <ele>1858.4</ele>
        <time>2024-08-10T13:08:43Z</time>
      </trkpt>
      <trkpt lat="45.01282" lon="6.37467">
        <ele>1858.6</ele>
        <time>2024-08-10T13:08:44Z</time>
      </trkpt>
      <trkpt lat="45.01282" lon="6.37467">
        <ele>1859</ele>
        <time>2024-08-10T13:08:45Z</time>
      </trkpt>
      <trkpt lat="45.01282" lon="6.37469">
        <ele>1859</ele>
        <time>2024-08-10T13:08:46Z</time>
      </trkpt>
      <trkpt lat="45.01282" lon="6.37469">
        <ele>1859.4</ele>
        <time>2024-08-10T13:08:47Z</time>
      </trkpt>
      <trkpt lat="45.01284" lon="6.37472">
        <ele>1859.4</ele>
        <time>2024-08-10T13:08:48Z</time>
      </trkpt>
      <trkpt lat="45.01284" lon="6.37472">
        <ele>1859.4</ele>
        <time>2024-08-10T13:08:49Z</time>
      </trkpt>
      <trkpt lat="45.01285" lon="6.37474">
        <ele>1859.6</ele>
        <time>2024-08-10T13:08:50Z</time>
      </trkpt>
      <trkpt lat="45.01285" lon="6.37474">
        <ele>1859.8</ele>
        <time>2024-08-10T13:08:51Z</time>
      </trkpt>
      <trkpt lat="45.01285" lon="6.37474">
        <ele>1859.8</ele>
        <time>2024-08-10T13:08:52Z</time>
      </trkpt>
      <trkpt lat="45.01285" lon="6.37477">
        <ele>1860</ele>
        <time>2024-08-10T13:08:53Z</time>
      </trkpt>
      <trkpt lat="45.01285" lon="6.37477">
        <ele>1860.4</ele>
        <time>2024-08-10T13:08:54Z</time>
      </trkpt>
      <trkpt lat="45.01285" lon="6.37477">
        <ele>1860.8</ele>
        <time>2024-08-10T13:08:55Z</time>
      </trkpt>
      <trkpt lat="45.01285" lon="6.3748">
        <ele>1860.8</ele>
        <time>2024-08-10T13:08:56Z</time>
      </trkpt>
      <trkpt lat="45.01285" lon="6.3748">
        <ele>1860.8</ele>
        <time>2024-08-10T13:08:57Z</time>
      </trkpt>
      <trkpt lat="45.01284" lon="6.37484">
        <ele>1861</ele>
        <time>2024-08-10T13:08:58Z</time>
      </trkpt>
      <trkpt lat="45.01284" lon="6.37484">
        <ele>1861.4</ele>
        <time>2024-08-10T13:08:59Z</time>
      </trkpt>
      <trkpt lat="45.01284" lon="6.37484">
        <ele>1861.4</ele>
        <time>2024-08-10T13:09:00Z</time>
      </trkpt>
      <trkpt lat="45.01283" lon="6.37486">
        <ele>1861.4</ele>
        <time>2024-08-10T13:09:01Z</time>
      </trkpt>
      <trkpt lat="45.01283" lon="6.37486">
        <ele>1861.6</ele>
        <time>2024-08-10T13:09:02Z</time>
      </trkpt>
      <trkpt lat="45.01283" lon="6.37486">
        <ele>1862</ele>
        <time>2024-08-10T13:09:03Z</time>
      </trkpt>
      <trkpt lat="45.01281" lon="6.37489">
        <ele>1862</ele>
        <time>2024-08-10T13:09:04Z</time>
      </trkpt>
      <trkpt lat="45.01281" lon="6.37489">
        <ele>1862</ele>
        <time>2024-08-10T13:09:05Z</time>
      </trkpt>
      <trkpt lat="45.01281" lon="6.37489">
        <ele>1862.6</ele>
        <time>2024-08-10T13:09:06Z</time>
      </trkpt>
      <trkpt lat="45.01279" lon="6.37492">
        <ele>1862.6</ele>
        <time>2024-08-10T13:09:07Z</time>
      </trkpt>
      <trkpt lat="45.01279" lon="6.37492">
        <ele>1862.8</ele>
        <time>2024-08-10T13:09:08Z</time>
      </trkpt>
      <trkpt lat="45.01279" lon="6.37492">
        <ele>1863</ele>
        <time>2024-08-10T13:09:09Z</time>
      </trkpt>
      <trkpt lat="45.01279" lon="6.37492">
        <ele>1863</ele>
        <time>2024-08-10T13:09:10Z</time>
      </trkpt>
      <trkpt lat="45.01278" lon="6.37495">
        <ele>1863</ele>
        <time>2024-08-10T13:09:11Z</time>
      </trkpt>
      <trkpt lat="45.01278" lon="6.37495">
        <ele>1863.4</ele>
        <time>2024-08-10T13:09:12Z</time>
      </trkpt>
      <trkpt lat="45.01278" lon="6.37495">
        <ele>1863.8</ele>
        <time>2024-08-10T13:09:13Z</time>
      </trkpt>
      <trkpt lat="45.01277" lon="6.37497">
        <ele>1864</ele>
        <time>2024-08-10T13:09:14Z</time>
      </trkpt>
      <trkpt lat="45.01277" lon="6.37497">
        <ele>1864.2</ele>
        <time>2024-08-10T13:09:15Z</time>
      </trkpt>
      <trkpt lat="45.01277" lon="6.37497">
        <ele>1864.2</ele>
        <time>2024-08-10T13:09:16Z</time>
      </trkpt>
      <trkpt lat="45.01275" lon="6.37499">
        <ele>1864.6</ele>
        <time>2024-08-10T13:09:17Z</time>
      </trkpt>
      <trkpt lat="45.01275" lon="6.37499">
        <ele>1865</ele>
        <time>2024-08-10T13:09:18Z</time>
      </trkpt>
      <trkpt lat="45.01275" lon="6.37499">
        <ele>1865</ele>
        <time>2024-08-10T13:09:19Z</time>
      </trkpt>
      <trkpt lat="45.01274" lon="6.37501">
        <ele>1865</ele>
        <time>2024-08-10T13:09:20Z</time>
      </trkpt>
      <trkpt lat="45.01274" lon="6.37501">
        <ele>1865.4</ele>
        <time>2024-08-10T13:09:21Z</time>
      </trkpt>
      <trkpt lat="45.01274" lon="6.37501">
        <ele>1865.4</ele>
        <time>2024-08-10T13:09:22Z</time>
      </trkpt>
      <trkpt lat="45.01274" lon="6.37501">
        <ele>1865.6</ele>
        <time>2024-08-10T13:09:23Z</time>
      </trkpt>
      <trkpt lat="45.01274" lon="6.37501">
        <ele>1865.6</ele>
        <time>2024-08-10T13:09:24Z</time>
      </trkpt>
      <trkpt lat="45.01274" lon="6.37501">
        <ele>1865.8</ele>
        <time>2024-08-10T13:09:25Z</time>
      </trkpt>
      <trkpt lat="45.01276" lon="6.37504">
        <ele>1866.4</ele>
        <time>2024-08-10T13:09:26Z</time>
      </trkpt>
      <trkpt lat="45.01276" lon="6.37504">
        <ele>1866.4</ele>
        <time>2024-08-10T13:09:27Z</time>
      </trkpt>
      <trkpt lat="45.01277" lon="6.37502">
        <ele>1866.4</ele>
        <time>2024-08-10T13:09:28Z</time>
      </trkpt>
      <trkpt lat="45.01277" lon="6.37502">
        <ele>1866.6</ele>
        <time>2024-08-10T13:09:29Z</time>
      </trkpt>
      <trkpt lat="45.01277" lon="6.37502">
        <ele>1866.8</ele>
        <time>2024-08-10T13:09:30Z</time>
      </trkpt>
      <trkpt lat="45.01279" lon="6.37501">
        <ele>1867.4</ele>
        <time>2024-08-10T13:09:31Z</time>
      </trkpt>
      <trkpt lat="45.01279" lon="6.37501">
        <ele>1867.4</ele>
        <time>2024-08-10T13:09:32Z</time>
      </trkpt>
      <trkpt lat="45.01281" lon="6.375">
        <ele>1867.6</ele>
        <time>2024-08-10T13:09:33Z</time>
      </trkpt>
      <trkpt lat="45.01281" lon="6.375">
        <ele>1867.6</ele>
        <time>2024-08-10T13:09:34Z</time>
      </trkpt>
      <trkpt lat="45.01284" lon="6.37502">
        <ele>1867.8</ele>
        <time>2024-08-10T13:09:35Z</time>
      </trkpt>
      <trkpt lat="45.01284" lon="6.37502">
        <ele>1867.8</ele>
        <time>2024-08-10T13:09:36Z</time>
      </trkpt>
      <trkpt lat="45.01285" lon="6.37503">
        <ele>1867.8</ele>
        <time>2024-08-10T13:09:37Z</time>
      </trkpt>
      <trkpt lat="45.01285" lon="6.37503">
        <ele>1867.8</ele>
        <time>2024-08-10T13:09:38Z</time>
      </trkpt>
      <trkpt lat="45.01285" lon="6.37503">
        <ele>1867.8</ele>
        <time>2024-08-10T13:09:39Z</time>
      </trkpt>
      <trkpt lat="45.01287" lon="6.37504">
        <ele>1868</ele>
        <time>2024-08-10T13:09:40Z</time>
      </trkpt>
      <trkpt lat="45.01287" lon="6.37504">
        <ele>1868.4</ele>
        <time>2024-08-10T13:09:41Z</time>
      </trkpt>
      <trkpt lat="45.01289" lon="6.37506">
        <ele>1868.4</ele>
        <time>2024-08-10T13:09:42Z</time>
      </trkpt>
      <trkpt lat="45.01289" lon="6.37506">
        <ele>1868.4</ele>
        <time>2024-08-10T13:09:43Z</time>
      </trkpt>
      <trkpt lat="45.01289" lon="6.37506">
        <ele>1868.6</ele>
        <time>2024-08-10T13:09:44Z</time>
      </trkpt>
      <trkpt lat="45.0129" lon="6.37509">
        <ele>1868.6</ele>
        <time>2024-08-10T13:09:45Z</time>
      </trkpt>
      <trkpt lat="45.0129" lon="6.37509">
        <ele>1868.8</ele>
        <time>2024-08-10T13:09:46Z</time>
      </trkpt>
      <trkpt lat="45.0129" lon="6.37509">
        <ele>1869.2</ele>
        <time>2024-08-10T13:09:47Z</time>
      </trkpt>
      <trkpt lat="45.0129" lon="6.37511">
        <ele>1869.6</ele>
        <time>2024-08-10T13:09:48Z</time>
      </trkpt>
      <trkpt lat="45.0129" lon="6.37511">
        <ele>1869.8</ele>
        <time>2024-08-10T13:09:49Z</time>
      </trkpt>
      <trkpt lat="45.01289" lon="6.37514">
        <ele>1870</ele>
        <time>2024-08-10T13:09:50Z</time>
      </trkpt>
      <trkpt lat="45.01289" lon="6.37514">
        <ele>1870</ele>
        <time>2024-08-10T13:09:51Z</time>
      </trkpt>
      <trkpt lat="45.01289" lon="6.37514">
        <ele>1870.2</ele>
        <time>2024-08-10T13:09:52Z</time>
      </trkpt>
      <trkpt lat="45.01287" lon="6.37516">
        <ele>1870.2</ele>
        <time>2024-08-10T13:09:53Z</time>
      </trkpt>
      <trkpt lat="45.01287" lon="6.37516">
        <ele>1870.2</ele>
        <time>2024-08-10T13:09:54Z</time>
      </trkpt>
      <trkpt lat="45.01287" lon="6.37516">
        <ele>1870.2</ele>
        <time>2024-08-10T13:09:55Z</time>
      </trkpt>
      <trkpt lat="45.01287" lon="6.37516">
        <ele>1870.8</ele>
        <time>2024-08-10T13:09:56Z</time>
      </trkpt>
      <trkpt lat="45.01285" lon="6.37516">
        <ele>1870.8</ele>
        <time>2024-08-10T13:09:57Z</time>
      </trkpt>
      <trkpt lat="45.01285" lon="6.37516">
        <ele>1871.2</ele>
        <time>2024-08-10T13:09:58Z</time>
      </trkpt>
      <trkpt lat="45.01285" lon="6.37516">
        <ele>1871.4</ele>
        <time>2024-08-10T13:09:59Z</time>
      </trkpt>
      <trkpt lat="45.01283" lon="6.37518">
        <ele>1871.6</ele>
        <time>2024-08-10T13:10:00Z</time>
      </trkpt>
      <trkpt lat="45.01283" lon="6.37518">
        <ele>1871.8</ele>
        <time>2024-08-10T13:10:01Z</time>
      </trkpt>
      <trkpt lat="45.01283" lon="6.37518">
        <ele>1872</ele>
        <time>2024-08-10T13:10:02Z</time>
      </trkpt>
      <trkpt lat="45.01282" lon="6.37522">
        <ele>1872</ele>
        <time>2024-08-10T13:10:03Z</time>
      </trkpt>
      <trkpt lat="45.01282" lon="6.37522">
        <ele>1872</ele>
        <time>2024-08-10T13:10:04Z</time>
      </trkpt>
      <trkpt lat="45.01282" lon="6.37522">
        <ele>1872</ele>
        <time>2024-08-10T13:10:05Z</time>
      </trkpt>
      <trkpt lat="45.01282" lon="6.37522">
        <ele>1872.2</ele>
        <time>2024-08-10T13:10:06Z</time>
      </trkpt>
      <trkpt lat="45.01282" lon="6.37522">
        <ele>1872.4</ele>
        <time>2024-08-10T13:10:07Z</time>
      </trkpt>
      <trkpt lat="45.01284" lon="6.37524">
        <ele>1872.8</ele>
        <time>2024-08-10T13:10:08Z</time>
      </trkpt>
      <trkpt lat="45.01284" lon="6.37524">
        <ele>1873</ele>
        <time>2024-08-10T13:10:09Z</time>
      </trkpt>
      <trkpt lat="45.01284" lon="6.37524">
        <ele>1873.2</ele>
        <time>2024-08-10T13:10:10Z</time>
      </trkpt>
      <trkpt lat="45.01285" lon="6.37527">
        <ele>1873.4</ele>
        <time>2024-08-10T13:10:11Z</time>
      </trkpt>
      <trkpt lat="45.01285" lon="6.37527">
        <ele>1873.6</ele>
        <time>2024-08-10T13:10:12Z</time>
      </trkpt>
      <trkpt lat="45.01284" lon="6.3753">
        <ele>1873.6</ele>
        <time>2024-08-10T13:10:13Z</time>
      </trkpt>
      <trkpt lat="45.01284" lon="6.3753">
        <ele>1873.8</ele>
        <time>2024-08-10T13:10:14Z</time>
      </trkpt>
      <trkpt lat="45.01284" lon="6.3753">
        <ele>1874</ele>
        <time>2024-08-10T13:10:15Z</time>
      </trkpt>
      <trkpt lat="45.01282" lon="6.37532">
        <ele>1874</ele>
        <time>2024-08-10T13:10:16Z</time>
      </trkpt>
      <trkpt lat="45.01282" lon="6.37532">
        <ele>1874.4</ele>
        <time>2024-08-10T13:10:17Z</time>
      </trkpt>
      <trkpt lat="45.0128" lon="6.37533">
        <ele>1874.4</ele>
        <time>2024-08-10T13:10:18Z</time>
      </trkpt>
      <trkpt lat="45.0128" lon="6.37533">
        <ele>1874.6</ele>
        <time>2024-08-10T13:10:19Z</time>
      </trkpt>
      <trkpt lat="45.01279" lon="6.37535">
        <ele>1874.8</ele>
        <time>2024-08-10T13:10:20Z</time>
      </trkpt>
      <trkpt lat="45.01279" lon="6.37535">
        <ele>1875.2</ele>
        <time>2024-08-10T13:10:21Z</time>
      </trkpt>
      <trkpt lat="45.01279" lon="6.37535">
        <ele>1875.4</ele>
        <time>2024-08-10T13:10:22Z</time>
      </trkpt>
      <trkpt lat="45.01277" lon="6.37538">
        <ele>1875.4</ele>
        <time>2024-08-10T13:10:23Z</time>
      </trkpt>
      <trkpt lat="45.01277" lon="6.37538">
        <ele>1875.6</ele>
        <time>2024-08-10T13:10:24Z</time>
      </trkpt>
      <trkpt lat="45.01277" lon="6.37538">
        <ele>1875.8</ele>
        <time>2024-08-10T13:10:25Z</time>
      </trkpt>
      <trkpt lat="45.01275" lon="6.37539">
        <ele>1875.8</ele>
        <time>2024-08-10T13:10:26Z</time>
      </trkpt>
      <trkpt lat="45.01275" lon="6.37539">
        <ele>1876</ele>
        <time>2024-08-10T13:10:27Z</time>
      </trkpt>
      <trkpt lat="45.01275" lon="6.37539">
        <ele>1876.6</ele>
        <time>2024-08-10T13:10:28Z</time>
      </trkpt>
      <trkpt lat="45.01274" lon="6.37543">
        <ele>1876.6</ele>
        <time>2024-08-10T13:10:29Z</time>
      </trkpt>
      <trkpt lat="45.01274" lon="6.37543">
        <ele>1876.6</ele>
        <time>2024-08-10T13:10:30Z</time>
      </trkpt>
      <trkpt lat="45.01274" lon="6.37543">
        <ele>1876.6</ele>
        <time>2024-08-10T13:10:31Z</time>
      </trkpt>
      <trkpt lat="45.01273" lon="6.37545">
        <ele>1877</ele>
        <time>2024-08-10T13:10:32Z</time>
      </trkpt>
      <trkpt lat="45.01273" lon="6.37545">
        <ele>1877.2</ele>
        <time>2024-08-10T13:10:33Z</time>
      </trkpt>
      <trkpt lat="45.01273" lon="6.37545">
        <ele>1877.4</ele>
        <time>2024-08-10T13:10:34Z</time>
      </trkpt>
      <trkpt lat="45.01273" lon="6.37545">
        <ele>1877.6</ele>
        <time>2024-08-10T13:10:35Z</time>
      </trkpt>
      <trkpt lat="45.01274" lon="6.37548">
        <ele>1878.4</ele>
        <time>2024-08-10T13:10:36Z</time>
      </trkpt>
      <trkpt lat="45.01274" lon="6.37548">
        <ele>1878.4</ele>
        <time>2024-08-10T13:10:37Z</time>
      </trkpt>
      <trkpt lat="45.01274" lon="6.37548">
        <ele>1878.4</ele>
        <time>2024-08-10T13:10:38Z</time>
      </trkpt>
      <trkpt lat="45.01276" lon="6.37549">
        <ele>1878.8</ele>
        <time>2024-08-10T13:10:39Z</time>
      </trkpt>
      <trkpt lat="45.01276" lon="6.37549">
        <ele>1878.8</ele>
        <time>2024-08-10T13:10:40Z</time>
      </trkpt>
      <trkpt lat="45.01277" lon="6.37548">
        <ele>1879.2</ele>
        <time>2024-08-10T13:10:41Z</time>
      </trkpt>
      <trkpt lat="45.01277" lon="6.37548">
        <ele>1879.4</ele>
        <time>2024-08-10T13:10:42Z</time>
      </trkpt>
      <trkpt lat="45.01277" lon="6.37548">
        <ele>1879.4</ele>
        <time>2024-08-10T13:10:43Z</time>
      </trkpt>
      <trkpt lat="45.0128" lon="6.37547">
        <ele>1879.6</ele>
        <time>2024-08-10T13:10:44Z</time>
      </trkpt>
      <trkpt lat="45.0128" lon="6.37547">
        <ele>1879.8</ele>
        <time>2024-08-10T13:10:45Z</time>
      </trkpt>
      <trkpt lat="45.01283" lon="6.37546">
        <ele>1879.8</ele>
        <time>2024-08-10T13:10:46Z</time>
      </trkpt>
      <trkpt lat="45.01283" lon="6.37546">
        <ele>1880</ele>
        <time>2024-08-10T13:10:47Z</time>
      </trkpt>
      <trkpt lat="45.01285" lon="6.37545">
        <ele>1880.2</ele>
        <time>2024-08-10T13:10:48Z</time>
      </trkpt>
      <trkpt lat="45.01285" lon="6.37545">
        <ele>1880.4</ele>
        <time>2024-08-10T13:10:49Z</time>
      </trkpt>
      <trkpt lat="45.01287" lon="6.37546">
        <ele>1880.4</ele>
        <time>2024-08-10T13:10:50Z</time>
      </trkpt>
      <trkpt lat="45.01287" lon="6.37546">
        <ele>1880.6</ele>
        <time>2024-08-10T13:10:51Z</time>
      </trkpt>
      <trkpt lat="45.01289" lon="6.37546">
        <ele>1880.8</ele>
        <time>2024-08-10T13:10:52Z</time>
      </trkpt>
      <trkpt lat="45.01289" lon="6.37546">
        <ele>1881</ele>
        <time>2024-08-10T13:10:53Z</time>
      </trkpt>
      <trkpt lat="45.01291" lon="6.37546">
        <ele>1881</ele>
        <time>2024-08-10T13:10:54Z</time>
      </trkpt>
      <trkpt lat="45.01291" lon="6.37546">
        <ele>1881</ele>
        <time>2024-08-10T13:10:55Z</time>
      </trkpt>
      <trkpt lat="45.01293" lon="6.37544">
        <ele>1881</ele>
        <time>2024-08-10T13:10:56Z</time>
      </trkpt>
      <trkpt lat="45.01293" lon="6.37544">
        <ele>1881</ele>
        <time>2024-08-10T13:10:57Z</time>
      </trkpt>
      <trkpt lat="45.01296" lon="6.37543">
        <ele>1881.2</ele>
        <time>2024-08-10T13:10:58Z</time>
      </trkpt>
      <trkpt lat="45.01296" lon="6.37543">
        <ele>1881.2</ele>
        <time>2024-08-10T13:10:59Z</time>
      </trkpt>
      <trkpt lat="45.01296" lon="6.37543">
        <ele>1881.6</ele>
        <time>2024-08-10T13:11:00Z</time>
      </trkpt>
      <trkpt lat="45.01298" lon="6.37542">
        <ele>1881.8</ele>
        <time>2024-08-10T13:11:01Z</time>
      </trkpt>
      <trkpt lat="45.01298" lon="6.37542">
        <ele>1882.2</ele>
        <time>2024-08-10T13:11:02Z</time>
      </trkpt>
      <trkpt lat="45.01298" lon="6.37542">
        <ele>1882.4</ele>
        <time>2024-08-10T13:11:03Z</time>
      </trkpt>
      <trkpt lat="45.01301" lon="6.37542">
        <ele>1882.4</ele>
        <time>2024-08-10T13:11:04Z</time>
      </trkpt>
      <trkpt lat="45.01301" lon="6.37542">
        <ele>1882.4</ele>
        <time>2024-08-10T13:11:05Z</time>
      </trkpt>
      <trkpt lat="45.01303" lon="6.37542">
        <ele>1882.4</ele>
        <time>2024-08-10T13:11:06Z</time>
      </trkpt>
      <trkpt lat="45.01303" lon="6.37542">
        <ele>1882.8</ele>
        <time>2024-08-10T13:11:07Z</time>
      </trkpt>
      <trkpt lat="45.01303" lon="6.37542">
        <ele>1883</ele>
        <time>2024-08-10T13:11:08Z</time>
      </trkpt>
      <trkpt lat="45.01305" lon="6.37542">
        <ele>1883</ele>
        <time>2024-08-10T13:11:09Z</time>
      </trkpt>
      <trkpt lat="45.01305" lon="6.37542">
        <ele>1883.4</ele>
        <time>2024-08-10T13:11:10Z</time>
      </trkpt>
      <trkpt lat="45.01307" lon="6.37541">
        <ele>1883.6</ele>
        <time>2024-08-10T13:11:11Z</time>
      </trkpt>
      <trkpt lat="45.01307" lon="6.37541">
        <ele>1883.8</ele>
        <time>2024-08-10T13:11:12Z</time>
      </trkpt>
      <trkpt lat="45.01307" lon="6.37541">
        <ele>1884.2</ele>
        <time>2024-08-10T13:11:13Z</time>
      </trkpt>
      <trkpt lat="45.01309" lon="6.37543">
        <ele>1884.4</ele>
        <time>2024-08-10T13:11:14Z</time>
      </trkpt>
      <trkpt lat="45.01309" lon="6.37543">
        <ele>1884.4</ele>
        <time>2024-08-10T13:11:15Z</time>
      </trkpt>
      <trkpt lat="45.01309" lon="6.37543">
        <ele>1884.6</ele>
        <time>2024-08-10T13:11:16Z</time>
      </trkpt>
      <trkpt lat="45.0131" lon="6.37546">
        <ele>1884.6</ele>
        <time>2024-08-10T13:11:17Z</time>
      </trkpt>
      <trkpt lat="45.0131" lon="6.37546">
        <ele>1884.8</ele>
        <time>2024-08-10T13:11:18Z</time>
      </trkpt>
      <trkpt lat="45.01309" lon="6.37548">
        <ele>1884.8</ele>
        <time>2024-08-10T13:11:19Z</time>
      </trkpt>
      <trkpt lat="45.01309" lon="6.37548">
        <ele>1884.8</ele>
        <time>2024-08-10T13:11:20Z</time>
      </trkpt>
      <trkpt lat="45.01309" lon="6.37548">
        <ele>1885</ele>
        <time>2024-08-10T13:11:21Z</time>
      </trkpt>
      <trkpt lat="45.01307" lon="6.3755">
        <ele>1885.4</ele>
        <time>2024-08-10T13:11:22Z</time>
      </trkpt>
      <trkpt lat="45.01307" lon="6.3755">
        <ele>1885.6</ele>
        <time>2024-08-10T13:11:23Z</time>
      </trkpt>
      <trkpt lat="45.01306" lon="6.37554">
        <ele>1885.8</ele>
        <time>2024-08-10T13:11:24Z</time>
      </trkpt>
      <trkpt lat="45.01306" lon="6.37554">
        <ele>1886</ele>
        <time>2024-08-10T13:11:25Z</time>
      </trkpt>
      <trkpt lat="45.01304" lon="6.37556">
        <ele>1886.2</ele>
        <time>2024-08-10T13:11:26Z</time>
      </trkpt>
      <trkpt lat="45.01304" lon="6.37556">
        <ele>1886.2</ele>
        <time>2024-08-10T13:11:27Z</time>
      </trkpt>
      <trkpt lat="45.01302" lon="6.37557">
        <ele>1886.2</ele>
        <time>2024-08-10T13:11:28Z</time>
      </trkpt>
      <trkpt lat="45.01302" lon="6.37557">
        <ele>1886.2</ele>
        <time>2024-08-10T13:11:29Z</time>
      </trkpt>
      <trkpt lat="45.01301" lon="6.37558">
        <ele>1886.6</ele>
        <time>2024-08-10T13:11:30Z</time>
      </trkpt>
      <trkpt lat="45.01301" lon="6.37558">
        <ele>1886.6</ele>
        <time>2024-08-10T13:11:31Z</time>
      </trkpt>
      <trkpt lat="45.01299" lon="6.3756">
        <ele>1886.8</ele>
        <time>2024-08-10T13:11:32Z</time>
      </trkpt>
      <trkpt lat="45.01299" lon="6.3756">
        <ele>1887</ele>
        <time>2024-08-10T13:11:33Z</time>
      </trkpt>
      <trkpt lat="45.01297" lon="6.37561">
        <ele>1887.2</ele>
        <time>2024-08-10T13:11:34Z</time>
      </trkpt>
      <trkpt lat="45.01297" lon="6.37561">
        <ele>1887.4</ele>
        <time>2024-08-10T13:11:35Z</time>
      </trkpt>
      <trkpt lat="45.01297" lon="6.37561">
        <ele>1887.8</ele>
        <time>2024-08-10T13:11:36Z</time>
      </trkpt>
      <trkpt lat="45.01295" lon="6.37563">
        <ele>1887.8</ele>
        <time>2024-08-10T13:11:37Z</time>
      </trkpt>
      <trkpt lat="45.01295" lon="6.37563">
        <ele>1888</ele>
        <time>2024-08-10T13:11:38Z</time>
      </trkpt>
      <trkpt lat="45.01293" lon="6.37565">
        <ele>1888</ele>
        <time>2024-08-10T13:11:39Z</time>
      </trkpt>
      <trkpt lat="45.01293" lon="6.37565">
        <ele>1888</ele>
        <time>2024-08-10T13:11:40Z</time>
      </trkpt>
      <trkpt lat="45.01293" lon="6.37565">
        <ele>1888.2</ele>
        <time>2024-08-10T13:11:41Z</time>
      </trkpt>
      <trkpt lat="45.01292" lon="6.37568">
        <ele>1888.4</ele>
        <time>2024-08-10T13:11:42Z</time>
      </trkpt>
      <trkpt lat="45.01292" lon="6.37568">
        <ele>1888.8</ele>
        <time>2024-08-10T13:11:43Z</time>
      </trkpt>
      <trkpt lat="45.01292" lon="6.37568">
        <ele>1889</ele>
        <time>2024-08-10T13:11:44Z</time>
      </trkpt>
      <trkpt lat="45.0129" lon="6.3757">
        <ele>1889</ele>
        <time>2024-08-10T13:11:45Z</time>
      </trkpt>
      <trkpt lat="45.0129" lon="6.3757">
        <ele>1889</ele>
        <time>2024-08-10T13:11:46Z</time>
      </trkpt>
      <trkpt lat="45.0129" lon="6.3757">
        <ele>1889.2</ele>
        <time>2024-08-10T13:11:47Z</time>
      </trkpt>
      <trkpt lat="45.01289" lon="6.37573">
        <ele>1889.2</ele>
        <time>2024-08-10T13:11:48Z</time>
      </trkpt>
      <trkpt lat="45.01289" lon="6.37573">
        <ele>1889.6</ele>
        <time>2024-08-10T13:11:49Z</time>
      </trkpt>
      <trkpt lat="45.01287" lon="6.37575">
        <ele>1889.8</ele>
        <time>2024-08-10T13:11:50Z</time>
      </trkpt>
      <trkpt lat="45.01287" lon="6.37575">
        <ele>1889.8</ele>
        <time>2024-08-10T13:11:51Z</time>
      </trkpt>
      <trkpt lat="45.01285" lon="6.37575">
        <ele>1889.8</ele>
        <time>2024-08-10T13:11:52Z</time>
      </trkpt>
      <trkpt lat="45.01285" lon="6.37575">
        <ele>1890</ele>
        <time>2024-08-10T13:11:53Z</time>
      </trkpt>
      <trkpt lat="45.01283" lon="6.37575">
        <ele>1890.2</ele>
        <time>2024-08-10T13:11:54Z</time>
      </trkpt>
      <trkpt lat="45.01283" lon="6.37575">
        <ele>1890.4</ele>
        <time>2024-08-10T13:11:55Z</time>
      </trkpt>
      <trkpt lat="45.01281" lon="6.37576">
        <ele>1890.6</ele>
        <time>2024-08-10T13:11:56Z</time>
      </trkpt>
      <trkpt lat="45.01281" lon="6.37576">
        <ele>1891</ele>
        <time>2024-08-10T13:11:57Z</time>
      </trkpt>
      <trkpt lat="45.01281" lon="6.37576">
        <ele>1891.2</ele>
        <time>2024-08-10T13:11:58Z</time>
      </trkpt>
      <trkpt lat="45.01279" lon="6.37576">
        <ele>1891.4</ele>
        <time>2024-08-10T13:11:59Z</time>
      </trkpt>
      <trkpt lat="45.01279" lon="6.37576">
        <ele>1891.4</ele>
        <time>2024-08-10T13:12:00Z</time>
      </trkpt>
      <trkpt lat="45.01277" lon="6.37577">
        <ele>1891.6</ele>
        <time>2024-08-10T13:12:01Z</time>
      </trkpt>
      <trkpt lat="45.01277" lon="6.37577">
        <ele>1891.6</ele>
        <time>2024-08-10T13:12:02Z</time>
      </trkpt>
      <trkpt lat="45.01277" lon="6.37577">
        <ele>1892</ele>
        <time>2024-08-10T13:12:03Z</time>
      </trkpt>
      <trkpt lat="45.01276" lon="6.37579">
        <ele>1892</ele>
        <time>2024-08-10T13:12:04Z</time>
      </trkpt>
      <trkpt lat="45.01276" lon="6.37579">
        <ele>1892.2</ele>
        <time>2024-08-10T13:12:05Z</time>
      </trkpt>
      <trkpt lat="45.01274" lon="6.37579">
        <ele>1892.6</ele>
        <time>2024-08-10T13:12:06Z</time>
      </trkpt>
      <trkpt lat="45.01274" lon="6.37579">
        <ele>1892.6</ele>
        <time>2024-08-10T13:12:07Z</time>
      </trkpt>
      <trkpt lat="45.01274" lon="6.37579">
        <ele>1892.8</ele>
        <time>2024-08-10T13:12:08Z</time>
      </trkpt>
      <trkpt lat="45.01271" lon="6.37581">
        <ele>1893</ele>
        <time>2024-08-10T13:12:09Z</time>
      </trkpt>
      <trkpt lat="45.01271" lon="6.37581">
        <ele>1893.2</ele>
        <time>2024-08-10T13:12:10Z</time>
      </trkpt>
      <trkpt lat="45.01271" lon="6.37581">
        <ele>1893.4</ele>
        <time>2024-08-10T13:12:11Z</time>
      </trkpt>
      <trkpt lat="45.0127" lon="6.37583">
        <ele>1893.6</ele>
        <time>2024-08-10T13:12:12Z</time>
      </trkpt>
      <trkpt lat="45.0127" lon="6.37583">
        <ele>1893.8</ele>
        <time>2024-08-10T13:12:13Z</time>
      </trkpt>
      <trkpt lat="45.01269" lon="6.37586">
        <ele>1894</ele>
        <time>2024-08-10T13:12:14Z</time>
      </trkpt>
      <trkpt lat="45.01269" lon="6.37586">
        <ele>1894.2</ele>
        <time>2024-08-10T13:12:15Z</time>
      </trkpt>
      <trkpt lat="45.01269" lon="6.37586">
        <ele>1894.2</ele>
        <time>2024-08-10T13:12:16Z</time>
      </trkpt>
      <trkpt lat="45.01267" lon="6.37589">
        <ele>1894.4</ele>
        <time>2024-08-10T13:12:17Z</time>
      </trkpt>
      <trkpt lat="45.01267" lon="6.37589">
        <ele>1894.6</ele>
        <time>2024-08-10T13:12:18Z</time>
      </trkpt>
      <trkpt lat="45.01267" lon="6.37589">
        <ele>1894.8</ele>
        <time>2024-08-10T13:12:19Z</time>
      </trkpt>
      <trkpt lat="45.01265" lon="6.37591">
        <ele>1894.8</ele>
        <time>2024-08-10T13:12:20Z</time>
      </trkpt>
      <trkpt lat="45.01265" lon="6.37591">
        <ele>1895</ele>
        <time>2024-08-10T13:12:21Z</time>
      </trkpt>
      <trkpt lat="45.01265" lon="6.37591">
        <ele>1895</ele>
        <time>2024-08-10T13:12:22Z</time>
      </trkpt>
      <trkpt lat="45.01263" lon="6.37592">
        <ele>1895.2</ele>
        <time>2024-08-10T13:12:23Z</time>
      </trkpt>
      <trkpt lat="45.01263" lon="6.37592">
        <ele>1895.4</ele>
        <time>2024-08-10T13:12:24Z</time>
      </trkpt>
      <trkpt lat="45.01263" lon="6.37592">
        <ele>1895.6</ele>
        <time>2024-08-10T13:12:25Z</time>
      </trkpt>
      <trkpt lat="45.01261" lon="6.37593">
        <ele>1895.8</ele>
        <time>2024-08-10T13:12:26Z</time>
      </trkpt>
      <trkpt lat="45.01261" lon="6.37593">
        <ele>1896</ele>
        <time>2024-08-10T13:12:27Z</time>
      </trkpt>
      <trkpt lat="45.01261" lon="6.37593">
        <ele>1896</ele>
        <time>2024-08-10T13:12:28Z</time>
      </trkpt>
      <trkpt lat="45.01259" lon="6.37595">
        <ele>1896.2</ele>
        <time>2024-08-10T13:12:29Z</time>
      </trkpt>
      <trkpt lat="45.01259" lon="6.37595">
        <ele>1896.4</ele>
        <time>2024-08-10T13:12:30Z</time>
      </trkpt>
      <trkpt lat="45.01257" lon="6.37597">
        <ele>1896.6</ele>
        <time>2024-08-10T13:12:31Z</time>
      </trkpt>
      <trkpt lat="45.01257" lon="6.37597">
        <ele>1896.8</ele>
        <time>2024-08-10T13:12:32Z</time>
      </trkpt>
      <trkpt lat="45.01257" lon="6.37597">
        <ele>1897.4</ele>
        <time>2024-08-10T13:12:33Z</time>
      </trkpt>
      <trkpt lat="45.01256" lon="6.37599">
        <ele>1897.4</ele>
        <time>2024-08-10T13:12:34Z</time>
      </trkpt>
      <trkpt lat="45.01256" lon="6.37599">
        <ele>1897.6</ele>
        <time>2024-08-10T13:12:35Z</time>
      </trkpt>
      <trkpt lat="45.01256" lon="6.37599">
        <ele>1897.8</ele>
        <time>2024-08-10T13:12:36Z</time>
      </trkpt>
      <trkpt lat="45.01256" lon="6.37599">
        <ele>1897.8</ele>
        <time>2024-08-10T13:12:37Z</time>
      </trkpt>
      <trkpt lat="45.01256" lon="6.37599">
        <ele>1897.8</ele>
        <time>2024-08-10T13:12:38Z</time>
      </trkpt>
      <trkpt lat="45.01258" lon="6.37599">
        <ele>1898.2</ele>
        <time>2024-08-10T13:12:39Z</time>
      </trkpt>
      <trkpt lat="45.01258" lon="6.37599">
        <ele>1898.2</ele>
        <time>2024-08-10T13:12:40Z</time>
      </trkpt>
      <trkpt lat="45.01258" lon="6.37599">
        <ele>1898.4</ele>
        <time>2024-08-10T13:12:41Z</time>
      </trkpt>
      <trkpt lat="45.01258" lon="6.37599">
        <ele>1898.8</ele>
        <time>2024-08-10T13:12:42Z</time>
      </trkpt>
      <trkpt lat="45.01261" lon="6.376">
        <ele>1898.8</ele>
        <time>2024-08-10T13:12:43Z</time>
      </trkpt>
      <trkpt lat="45.01261" lon="6.376">
        <ele>1899</ele>
        <time>2024-08-10T13:12:44Z</time>
      </trkpt>
      <trkpt lat="45.01261" lon="6.376">
        <ele>1899</ele>
        <time>2024-08-10T13:12:45Z</time>
      </trkpt>
      <trkpt lat="45.01261" lon="6.376">
        <ele>1899.6</ele>
        <time>2024-08-10T13:12:46Z</time>
      </trkpt>
      <trkpt lat="45.01261" lon="6.376">
        <ele>1899.6</ele>
        <time>2024-08-10T13:12:47Z</time>
      </trkpt>
      <trkpt lat="45.01261" lon="6.376">
        <ele>1900</ele>
        <time>2024-08-10T13:12:48Z</time>
      </trkpt>
      <trkpt lat="45.01261" lon="6.376">
        <ele>1900.4</ele>
        <time>2024-08-10T13:12:49Z</time>
      </trkpt>
      <trkpt lat="45.01261" lon="6.376">
        <ele>1900.4</ele>
        <time>2024-08-10T13:12:50Z</time>
      </trkpt>
      <trkpt lat="45.01261" lon="6.376">
        <ele>1900.4</ele>
        <time>2024-08-10T13:12:51Z</time>
      </trkpt>
      <trkpt lat="45.01261" lon="6.376">
        <ele>1901</ele>
        <time>2024-08-10T13:12:52Z</time>
      </trkpt>
      <trkpt lat="45.01261" lon="6.376">
        <ele>1901.2</ele>
        <time>2024-08-10T13:12:53Z</time>
      </trkpt>
      <trkpt lat="45.01261" lon="6.376">
        <ele>1901.2</ele>
        <time>2024-08-10T13:12:54Z</time>
      </trkpt>
      <trkpt lat="45.01261" lon="6.376">
        <ele>1901.6</ele>
        <time>2024-08-10T13:12:55Z</time>
      </trkpt>
      <trkpt lat="45.01263" lon="6.37602">
        <ele>1901.8</ele>
        <time>2024-08-10T13:12:56Z</time>
      </trkpt>
      <trkpt lat="45.01263" lon="6.37602">
        <ele>1901.8</ele>
        <time>2024-08-10T13:12:57Z</time>
      </trkpt>
      <trkpt lat="45.01267" lon="6.37602">
        <ele>1901.8</ele>
        <time>2024-08-10T13:12:58Z</time>
      </trkpt>
      <trkpt lat="45.01267" lon="6.37602">
        <ele>1902</ele>
        <time>2024-08-10T13:12:59Z</time>
      </trkpt>
      <trkpt lat="45.0127" lon="6.37603">
        <ele>1902.2</ele>
        <time>2024-08-10T13:13:00Z</time>
      </trkpt>
      <trkpt lat="45.0127" lon="6.37603">
        <ele>1902.4</ele>
        <time>2024-08-10T13:13:01Z</time>
      </trkpt>
      <trkpt lat="45.01272" lon="6.37604">
        <ele>1902.4</ele>
        <time>2024-08-10T13:13:02Z</time>
      </trkpt>
      <trkpt lat="45.01272" lon="6.37604">
        <ele>1902.6</ele>
        <time>2024-08-10T13:13:03Z</time>
      </trkpt>
      <trkpt lat="45.01274" lon="6.37605">
        <ele>1902.6</ele>
        <time>2024-08-10T13:13:04Z</time>
      </trkpt>
      <trkpt lat="45.01274" lon="6.37605">
        <ele>1903.2</ele>
        <time>2024-08-10T13:13:05Z</time>
      </trkpt>
      <trkpt lat="45.01274" lon="6.37605">
        <ele>1903.2</ele>
        <time>2024-08-10T13:13:06Z</time>
      </trkpt>
      <trkpt lat="45.01276" lon="6.37605">
        <ele>1903.2</ele>
        <time>2024-08-10T13:13:07Z</time>
      </trkpt>
      <trkpt lat="45.01276" lon="6.37605">
        <ele>1903.4</ele>
        <time>2024-08-10T13:13:08Z</time>
      </trkpt>
      <trkpt lat="45.01276" lon="6.37605">
        <ele>1903.4</ele>
        <time>2024-08-10T13:13:09Z</time>
      </trkpt>
      <trkpt lat="45.01279" lon="6.37605">
        <ele>1903.4</ele>
        <time>2024-08-10T13:13:10Z</time>
      </trkpt>
      <trkpt lat="45.01279" lon="6.37605">
        <ele>1903.6</ele>
        <time>2024-08-10T13:13:11Z</time>
      </trkpt>
      <trkpt lat="45.01281" lon="6.37604">
        <ele>1904</ele>
        <time>2024-08-10T13:13:12Z</time>
      </trkpt>
      <trkpt lat="45.01281" lon="6.37604">
        <ele>1904.2</ele>
        <time>2024-08-10T13:13:13Z</time>
      </trkpt>
      <trkpt lat="45.01281" lon="6.37604">
        <ele>1904.4</ele>
        <time>2024-08-10T13:13:14Z</time>
      </trkpt>
      <trkpt lat="45.01283" lon="6.37604">
        <ele>1904.6</ele>
        <time>2024-08-10T13:13:15Z</time>
      </trkpt>
      <trkpt lat="45.01283" lon="6.37604">
        <ele>1904.8</ele>
        <time>2024-08-10T13:13:16Z</time>
      </trkpt>
      <trkpt lat="45.01283" lon="6.37604">
        <ele>1905</ele>
        <time>2024-08-10T13:13:17Z</time>
      </trkpt>
      <trkpt lat="45.01285" lon="6.37604">
        <ele>1905.2</ele>
        <time>2024-08-10T13:13:18Z</time>
      </trkpt>
      <trkpt lat="45.01285" lon="6.37604">
        <ele>1905.2</ele>
        <time>2024-08-10T13:13:19Z</time>
      </trkpt>
      <trkpt lat="45.01285" lon="6.37604">
        <ele>1905.2</ele>
        <time>2024-08-10T13:13:20Z</time>
      </trkpt>
      <trkpt lat="45.01286" lon="6.37606">
        <ele>1905.4</ele>
        <time>2024-08-10T13:13:21Z</time>
      </trkpt>
      <trkpt lat="45.01286" lon="6.37606">
        <ele>1905.8</ele>
        <time>2024-08-10T13:13:22Z</time>
      </trkpt>
      <trkpt lat="45.01285" lon="6.37608">
        <ele>1906</ele>
        <time>2024-08-10T13:13:23Z</time>
      </trkpt>
      <trkpt lat="45.01285" lon="6.37608">
        <ele>1906</ele>
        <time>2024-08-10T13:13:24Z</time>
      </trkpt>
      <trkpt lat="45.01285" lon="6.37608">
        <ele>1906</ele>
        <time>2024-08-10T13:13:25Z</time>
      </trkpt>
      <trkpt lat="45.01284" lon="6.37609">
        <ele>1906.4</ele>
        <time>2024-08-10T13:13:26Z</time>
      </trkpt>
      <trkpt lat="45.01284" lon="6.37609">
        <ele>1906.8</ele>
        <time>2024-08-10T13:13:27Z</time>
      </trkpt>
      <trkpt lat="45.01284" lon="6.37609">
        <ele>1907</ele>
        <time>2024-08-10T13:13:28Z</time>
      </trkpt>
      <trkpt lat="45.01281" lon="6.3761">
        <ele>1907</ele>
        <time>2024-08-10T13:13:29Z</time>
      </trkpt>
      <trkpt lat="45.01281" lon="6.3761">
        <ele>1907</ele>
        <time>2024-08-10T13:13:30Z</time>
      </trkpt>
      <trkpt lat="45.0128" lon="6.37611">
        <ele>1907.2</ele>
        <time>2024-08-10T13:13:31Z</time>
      </trkpt>
      <trkpt lat="45.0128" lon="6.37611">
        <ele>1907.4</ele>
        <time>2024-08-10T13:13:32Z</time>
      </trkpt>
      <trkpt lat="45.0128" lon="6.37611">
        <ele>1907.6</ele>
        <time>2024-08-10T13:13:33Z</time>
      </trkpt>
      <trkpt lat="45.01277" lon="6.37613">
        <ele>1907.8</ele>
        <time>2024-08-10T13:13:34Z</time>
      </trkpt>
      <trkpt lat="45.01277" lon="6.37613">
        <ele>1908</ele>
        <time>2024-08-10T13:13:35Z</time>
      </trkpt>
      <trkpt lat="45.01275" lon="6.37613">
        <ele>1908.4</ele>
        <time>2024-08-10T13:13:36Z</time>
      </trkpt>
      <trkpt lat="45.01275" lon="6.37613">
        <ele>1908.4</ele>
        <time>2024-08-10T13:13:37Z</time>
      </trkpt>
      <trkpt lat="45.01273" lon="6.37614">
        <ele>1908.4</ele>
        <time>2024-08-10T13:13:38Z</time>
      </trkpt>
      <trkpt lat="45.01273" lon="6.37614">
        <ele>1908.6</ele>
        <time>2024-08-10T13:13:39Z</time>
      </trkpt>
      <trkpt lat="45.01271" lon="6.37615">
        <ele>1908.6</ele>
        <time>2024-08-10T13:13:40Z</time>
      </trkpt>
      <trkpt lat="45.01271" lon="6.37615">
        <ele>1908.6</ele>
        <time>2024-08-10T13:13:41Z</time>
      </trkpt>
      <trkpt lat="45.01269" lon="6.37616">
        <ele>1908.8</ele>
        <time>2024-08-10T13:13:42Z</time>
      </trkpt>
      <trkpt lat="45.01269" lon="6.37616">
        <ele>1909</ele>
        <time>2024-08-10T13:13:43Z</time>
      </trkpt>
      <trkpt lat="45.01267" lon="6.37616">
        <ele>1909</ele>
        <time>2024-08-10T13:13:44Z</time>
      </trkpt>
      <trkpt lat="45.01267" lon="6.37616">
        <ele>1909.2</ele>
        <time>2024-08-10T13:13:45Z</time>
      </trkpt>
      <trkpt lat="45.01265" lon="6.37617">
        <ele>1909.4</ele>
        <time>2024-08-10T13:13:46Z</time>
      </trkpt>
      <trkpt lat="45.01265" lon="6.37617">
        <ele>1909.6</ele>
        <time>2024-08-10T13:13:47Z</time>
      </trkpt>
      <trkpt lat="45.01263" lon="6.37617">
        <ele>1910</ele>
        <time>2024-08-10T13:13:48Z</time>
      </trkpt>
      <trkpt lat="45.01263" lon="6.37617">
        <ele>1910</ele>
        <time>2024-08-10T13:13:49Z</time>
      </trkpt>
      <trkpt lat="45.01261" lon="6.37618">
        <ele>1910.2</ele>
        <time>2024-08-10T13:13:50Z</time>
      </trkpt>
      <trkpt lat="45.01261" lon="6.37618">
        <ele>1910.4</ele>
        <time>2024-08-10T13:13:51Z</time>
      </trkpt>
      <trkpt lat="45.01261" lon="6.37618">
        <ele>1910.4</ele>
        <time>2024-08-10T13:13:52Z</time>
      </trkpt>
      <trkpt lat="45.01259" lon="6.37619">
        <ele>1910.4</ele>
        <time>2024-08-10T13:13:53Z</time>
      </trkpt>
      <trkpt lat="45.01259" lon="6.37619">
        <ele>1910.2</ele>
        <time>2024-08-10T13:13:54Z</time>
      </trkpt>
      <trkpt lat="45.01259" lon="6.37619">
        <ele>1910.4</ele>
        <time>2024-08-10T13:13:55Z</time>
      </trkpt>
      <trkpt lat="45.01259" lon="6.37619">
        <ele>1910.6</ele>
        <time>2024-08-10T13:13:56Z</time>
      </trkpt>
      <trkpt lat="45.01259" lon="6.37619">
        <ele>1911</ele>
        <time>2024-08-10T13:13:57Z</time>
      </trkpt>
      <trkpt lat="45.01259" lon="6.37619">
        <ele>1911</ele>
        <time>2024-08-10T13:13:58Z</time>
      </trkpt>
      <trkpt lat="45.01261" lon="6.37619">
        <ele>1911.2</ele>
        <time>2024-08-10T13:13:59Z</time>
      </trkpt>
      <trkpt lat="45.01261" lon="6.37619">
        <ele>1911.2</ele>
        <time>2024-08-10T13:14:00Z</time>
      </trkpt>
      <trkpt lat="45.01263" lon="6.3762">
        <ele>1911.4</ele>
        <time>2024-08-10T13:14:01Z</time>
      </trkpt>
      <trkpt lat="45.01263" lon="6.3762">
        <ele>1911.4</ele>
        <time>2024-08-10T13:14:02Z</time>
      </trkpt>
      <trkpt lat="45.01263" lon="6.3762">
        <ele>1911.6</ele>
        <time>2024-08-10T13:14:03Z</time>
      </trkpt>
      <trkpt lat="45.01265" lon="6.37621">
        <ele>1911.6</ele>
        <time>2024-08-10T13:14:04Z</time>
      </trkpt>
      <trkpt lat="45.01265" lon="6.37621">
        <ele>1912</ele>
        <time>2024-08-10T13:14:05Z</time>
      </trkpt>
      <trkpt lat="45.01265" lon="6.37621">
        <ele>1912.2</ele>
        <time>2024-08-10T13:14:06Z</time>
      </trkpt>
      <trkpt lat="45.01268" lon="6.37621">
        <ele>1912.8</ele>
        <time>2024-08-10T13:14:07Z</time>
      </trkpt>
      <trkpt lat="45.01268" lon="6.37621">
        <ele>1912.8</ele>
        <time>2024-08-10T13:14:08Z</time>
      </trkpt>
      <trkpt lat="45.01268" lon="6.37621">
        <ele>1913</ele>
        <time>2024-08-10T13:14:09Z</time>
      </trkpt>
      <trkpt lat="45.01269" lon="6.37623">
        <ele>1913.4</ele>
        <time>2024-08-10T13:14:10Z</time>
      </trkpt>
      <trkpt lat="45.01269" lon="6.37623">
        <ele>1913.4</ele>
        <time>2024-08-10T13:14:11Z</time>
      </trkpt>
      <trkpt lat="45.01269" lon="6.37623">
        <ele>1913.4</ele>
        <time>2024-08-10T13:14:12Z</time>
      </trkpt>
      <trkpt lat="45.01269" lon="6.37623">
        <ele>1913.8</ele>
        <time>2024-08-10T13:14:13Z</time>
      </trkpt>
      <trkpt lat="45.01271" lon="6.37624">
        <ele>1913.8</ele>
        <time>2024-08-10T13:14:14Z</time>
      </trkpt>
      <trkpt lat="45.01271" lon="6.37624">
        <ele>1914</ele>
        <time>2024-08-10T13:14:15Z</time>
      </trkpt>
      <trkpt lat="45.01271" lon="6.37624">
        <ele>1914.2</ele>
        <time>2024-08-10T13:14:16Z</time>
      </trkpt>
      <trkpt lat="45.01271" lon="6.37624">
        <ele>1914.2</ele>
        <time>2024-08-10T13:14:17Z</time>
      </trkpt>
      <trkpt lat="45.01271" lon="6.37624">
        <ele>1914.2</ele>
        <time>2024-08-10T13:14:18Z</time>
      </trkpt>
      <trkpt lat="45.01273" lon="6.37624">
        <ele>1914.2</ele>
        <time>2024-08-10T13:14:19Z</time>
      </trkpt>
      <trkpt lat="45.01273" lon="6.37624">
        <ele>1914.2</ele>
        <time>2024-08-10T13:14:20Z</time>
      </trkpt>
      <trkpt lat="45.01273" lon="6.37624">
        <ele>1914.2</ele>
        <time>2024-08-10T13:14:21Z</time>
      </trkpt>
      <trkpt lat="45.01275" lon="6.37626">
        <ele>1914.2</ele>
        <time>2024-08-10T13:14:22Z</time>
      </trkpt>
      <trkpt lat="45.01275" lon="6.37626">
        <ele>1914.4</ele>
        <time>2024-08-10T13:14:23Z</time>
      </trkpt>
      <trkpt lat="45.01275" lon="6.37626">
        <ele>1915</ele>
        <time>2024-08-10T13:14:24Z</time>
      </trkpt>
      <trkpt lat="45.01273" lon="6.37628">
        <ele>1915.6</ele>
        <time>2024-08-10T13:14:25Z</time>
      </trkpt>
      <trkpt lat="45.01273" lon="6.37628">
        <ele>1915.6</ele>
        <time>2024-08-10T13:14:26Z</time>
      </trkpt>
      <trkpt lat="45.01273" lon="6.37628">
        <ele>1915.6</ele>
        <time>2024-08-10T13:14:27Z</time>
      </trkpt>
      <trkpt lat="45.01273" lon="6.37628">
        <ele>1915.6</ele>
        <time>2024-08-10T13:14:28Z</time>
      </trkpt>
      <trkpt lat="45.01271" lon="6.37629">
        <ele>1915.8</ele>
        <time>2024-08-10T13:14:29Z</time>
      </trkpt>
      <trkpt lat="45.01271" lon="6.37629">
        <ele>1916.2</ele>
        <time>2024-08-10T13:14:30Z</time>
      </trkpt>
      <trkpt lat="45.01269" lon="6.37629">
        <ele>1916.4</ele>
        <time>2024-08-10T13:14:31Z</time>
      </trkpt>
      <trkpt lat="45.01269" lon="6.37629">
        <ele>1916.6</ele>
        <time>2024-08-10T13:14:32Z</time>
      </trkpt>
      <trkpt lat="45.01269" lon="6.37629">
        <ele>1916.6</ele>
        <time>2024-08-10T13:14:33Z</time>
      </trkpt>
      <trkpt lat="45.01269" lon="6.37629">
        <ele>1916.8</ele>
        <time>2024-08-10T13:14:34Z</time>
      </trkpt>
      <trkpt lat="45.01269" lon="6.37629">
        <ele>1917</ele>
        <time>2024-08-10T13:14:35Z</time>
      </trkpt>
      <trkpt lat="45.01267" lon="6.3763">
        <ele>1917.4</ele>
        <time>2024-08-10T13:14:36Z</time>
      </trkpt>
      <trkpt lat="45.01267" lon="6.3763">
        <ele>1917.6</ele>
        <time>2024-08-10T13:14:37Z</time>
      </trkpt>
      <trkpt lat="45.01264" lon="6.37631">
        <ele>1918</ele>
        <time>2024-08-10T13:14:38Z</time>
      </trkpt>
      <trkpt lat="45.01264" lon="6.37631">
        <ele>1918.4</ele>
        <time>2024-08-10T13:14:39Z</time>
      </trkpt>
      <trkpt lat="45.01261" lon="6.37631">
        <ele>1918.4</ele>
        <time>2024-08-10T13:14:40Z</time>
      </trkpt>
      <trkpt lat="45.01261" lon="6.37631">
        <ele>1918.8</ele>
        <time>2024-08-10T13:14:41Z</time>
      </trkpt>
      <trkpt lat="45.0126" lon="6.37632">
        <ele>1918.8</ele>
        <time>2024-08-10T13:14:42Z</time>
      </trkpt>
      <trkpt lat="45.0126" lon="6.37632">
        <ele>1919.2</ele>
        <time>2024-08-10T13:14:43Z</time>
      </trkpt>
      <trkpt lat="45.0126" lon="6.37632">
        <ele>1919.4</ele>
        <time>2024-08-10T13:14:44Z</time>
      </trkpt>
      <trkpt lat="45.01257" lon="6.37633">
        <ele>1919.6</ele>
        <time>2024-08-10T13:14:45Z</time>
      </trkpt>
      <trkpt lat="45.01257" lon="6.37633">
        <ele>1920.2</ele>
        <time>2024-08-10T13:14:46Z</time>
      </trkpt>
      <trkpt lat="45.01257" lon="6.37633">
        <ele>1920.2</ele>
        <time>2024-08-10T13:14:47Z</time>
      </trkpt>
      <trkpt lat="45.01257" lon="6.37633">
        <ele>1920.4</ele>
        <time>2024-08-10T13:14:48Z</time>
      </trkpt>
      <trkpt lat="45.01255" lon="6.37634">
        <ele>1920.6</ele>
        <time>2024-08-10T13:14:49Z</time>
      </trkpt>
      <trkpt lat="45.01255" lon="6.37634">
        <ele>1921</ele>
        <time>2024-08-10T13:14:50Z</time>
      </trkpt>
      <trkpt lat="45.01255" lon="6.37634">
        <ele>1921.2</ele>
        <time>2024-08-10T13:14:51Z</time>
      </trkpt>
      <trkpt lat="45.01253" lon="6.37636">
        <ele>1921.6</ele>
        <time>2024-08-10T13:14:52Z</time>
      </trkpt>
      <trkpt lat="45.01253" lon="6.37636">
        <ele>1921.6</ele>
        <time>2024-08-10T13:14:53Z</time>
      </trkpt>
      <trkpt lat="45.01253" lon="6.37636">
        <ele>1922</ele>
        <time>2024-08-10T13:14:54Z</time>
      </trkpt>
      <trkpt lat="45.01253" lon="6.37636">
        <ele>1922.2</ele>
        <time>2024-08-10T13:14:55Z</time>
      </trkpt>
      <trkpt lat="45.01252" lon="6.37637">
        <ele>1922.2</ele>
        <time>2024-08-10T13:14:56Z</time>
      </trkpt>
      <trkpt lat="45.01252" lon="6.37637">
        <ele>1922.6</ele>
        <time>2024-08-10T13:14:57Z</time>
      </trkpt>
      <trkpt lat="45.0125" lon="6.37638">
        <ele>1923</ele>
        <time>2024-08-10T13:14:58Z</time>
      </trkpt>
      <trkpt lat="45.0125" lon="6.37638">
        <ele>1923.2</ele>
        <time>2024-08-10T13:14:59Z</time>
      </trkpt>
      <trkpt lat="45.0125" lon="6.37638">
        <ele>1923.4</ele>
        <time>2024-08-10T13:15:00Z</time>
      </trkpt>
      <trkpt lat="45.01247" lon="6.37639">
        <ele>1923.4</ele>
        <time>2024-08-10T13:15:01Z</time>
      </trkpt>
      <trkpt lat="45.01247" lon="6.37639">
        <ele>1923.6</ele>
        <time>2024-08-10T13:15:02Z</time>
      </trkpt>
      <trkpt lat="45.01245" lon="6.3764">
        <ele>1923.8</ele>
        <time>2024-08-10T13:15:03Z</time>
      </trkpt>
      <trkpt lat="45.01245" lon="6.3764">
        <ele>1923.8</ele>
        <time>2024-08-10T13:15:04Z</time>
      </trkpt>
      <trkpt lat="45.01243" lon="6.3764">
        <ele>1924</ele>
        <time>2024-08-10T13:15:05Z</time>
      </trkpt>
      <trkpt lat="45.01243" lon="6.3764">
        <ele>1924.2</ele>
        <time>2024-08-10T13:15:06Z</time>
      </trkpt>
      <trkpt lat="45.01241" lon="6.3764">
        <ele>1924.4</ele>
        <time>2024-08-10T13:15:07Z</time>
      </trkpt>
      <trkpt lat="45.01241" lon="6.3764">
        <ele>1924.4</ele>
        <time>2024-08-10T13:15:08Z</time>
      </trkpt>
      <trkpt lat="45.01241" lon="6.3764">
        <ele>1924.2</ele>
        <time>2024-08-10T13:15:09Z</time>
      </trkpt>
      <trkpt lat="45.01239" lon="6.37641">
        <ele>1924.2</ele>
        <time>2024-08-10T13:15:10Z</time>
      </trkpt>
      <trkpt lat="45.01239" lon="6.37641">
        <ele>1924.6</ele>
        <time>2024-08-10T13:15:11Z</time>
      </trkpt>
      <trkpt lat="45.01237" lon="6.37642">
        <ele>1924.8</ele>
        <time>2024-08-10T13:15:12Z</time>
      </trkpt>
      <trkpt lat="45.01237" lon="6.37642">
        <ele>1925</ele>
        <time>2024-08-10T13:15:13Z</time>
      </trkpt>
      <trkpt lat="45.01237" lon="6.37642">
        <ele>1925</ele>
        <time>2024-08-10T13:15:14Z</time>
      </trkpt>
      <trkpt lat="45.01235" lon="6.37643">
        <ele>1925.2</ele>
        <time>2024-08-10T13:15:15Z</time>
      </trkpt>
      <trkpt lat="45.01235" lon="6.37643">
        <ele>1925.4</ele>
        <time>2024-08-10T13:15:16Z</time>
      </trkpt>
      <trkpt lat="45.01235" lon="6.37643">
        <ele>1925.8</ele>
        <time>2024-08-10T13:15:17Z</time>
      </trkpt>
      <trkpt lat="45.01233" lon="6.37644">
        <ele>1925.8</ele>
        <time>2024-08-10T13:15:18Z</time>
      </trkpt>
      <trkpt lat="45.01233" lon="6.37644">
        <ele>1926.2</ele>
        <time>2024-08-10T13:15:19Z</time>
      </trkpt>
      <trkpt lat="45.01233" lon="6.37644">
        <ele>1926.4</ele>
        <time>2024-08-10T13:15:20Z</time>
      </trkpt>
      <trkpt lat="45.01233" lon="6.37644">
        <ele>1926.4</ele>
        <time>2024-08-10T13:15:21Z</time>
      </trkpt>
      <trkpt lat="45.01231" lon="6.37646">
        <ele>1926.6</ele>
        <time>2024-08-10T13:15:22Z</time>
      </trkpt>
      <trkpt lat="45.01231" lon="6.37646">
        <ele>1927.2</ele>
        <time>2024-08-10T13:15:23Z</time>
      </trkpt>
      <trkpt lat="45.01231" lon="6.37646">
        <ele>1927.4</ele>
        <time>2024-08-10T13:15:24Z</time>
      </trkpt>
      <trkpt lat="45.0123" lon="6.37647">
        <ele>1927.6</ele>
        <time>2024-08-10T13:15:25Z</time>
      </trkpt>
      <trkpt lat="45.0123" lon="6.37647">
        <ele>1927.6</ele>
        <time>2024-08-10T13:15:26Z</time>
      </trkpt>
      <trkpt lat="45.0123" lon="6.37647">
        <ele>1928</ele>
        <time>2024-08-10T13:15:27Z</time>
      </trkpt>
      <trkpt lat="45.01228" lon="6.37648">
        <ele>1928.4</ele>
        <time>2024-08-10T13:15:28Z</time>
      </trkpt>
      <trkpt lat="45.01228" lon="6.37648">
        <ele>1928.4</ele>
        <time>2024-08-10T13:15:29Z</time>
      </trkpt>
      <trkpt lat="45.01227" lon="6.37652">
        <ele>1928.6</ele>
        <time>2024-08-10T13:15:30Z</time>
      </trkpt>
      <trkpt lat="45.01227" lon="6.37652">
        <ele>1929</ele>
        <time>2024-08-10T13:15:31Z</time>
      </trkpt>
      <trkpt lat="45.01227" lon="6.37652">
        <ele>1929.2</ele>
        <time>2024-08-10T13:15:32Z</time>
      </trkpt>
      <trkpt lat="45.01225" lon="6.37652">
        <ele>1929.4</ele>
        <time>2024-08-10T13:15:33Z</time>
      </trkpt>
      <trkpt lat="45.01225" lon="6.37652">
        <ele>1929.6</ele>
        <time>2024-08-10T13:15:34Z</time>
      </trkpt>
      <trkpt lat="45.01223" lon="6.3765">
        <ele>1929.8</ele>
        <time>2024-08-10T13:15:35Z</time>
      </trkpt>
      <trkpt lat="45.01223" lon="6.3765">
        <ele>1929.8</ele>
        <time>2024-08-10T13:15:36Z</time>
      </trkpt>
      <trkpt lat="45.01223" lon="6.3765">
        <ele>1930.2</ele>
        <time>2024-08-10T13:15:37Z</time>
      </trkpt>
      <trkpt lat="45.01221" lon="6.37649">
        <ele>1930.2</ele>
        <time>2024-08-10T13:15:38Z</time>
      </trkpt>
      <trkpt lat="45.01221" lon="6.37649">
        <ele>1930.8</ele>
        <time>2024-08-10T13:15:39Z</time>
      </trkpt>
      <trkpt lat="45.01221" lon="6.37649">
        <ele>1930.8</ele>
        <time>2024-08-10T13:15:40Z</time>
      </trkpt>
      <trkpt lat="45.01221" lon="6.37649">
        <ele>1931</ele>
        <time>2024-08-10T13:15:41Z</time>
      </trkpt>
      <trkpt lat="45.01219" lon="6.37649">
        <ele>1931.2</ele>
        <time>2024-08-10T13:15:42Z</time>
      </trkpt>
      <trkpt lat="45.01219" lon="6.37649">
        <ele>1931.4</ele>
        <time>2024-08-10T13:15:43Z</time>
      </trkpt>
      <trkpt lat="45.01219" lon="6.37649">
        <ele>1931.4</ele>
        <time>2024-08-10T13:15:44Z</time>
      </trkpt>
      <trkpt lat="45.01219" lon="6.37649">
        <ele>1931.8</ele>
        <time>2024-08-10T13:15:45Z</time>
      </trkpt>
      <trkpt lat="45.01217" lon="6.3765">
        <ele>1932.2</ele>
        <time>2024-08-10T13:15:46Z</time>
      </trkpt>
      <trkpt lat="45.01217" lon="6.3765">
        <ele>1932.6</ele>
        <time>2024-08-10T13:15:47Z</time>
      </trkpt>
      <trkpt lat="45.01217" lon="6.3765">
        <ele>1932.8</ele>
        <time>2024-08-10T13:15:48Z</time>
      </trkpt>
      <trkpt lat="45.01215" lon="6.37651">
        <ele>1932.8</ele>
        <time>2024-08-10T13:15:49Z</time>
      </trkpt>
      <trkpt lat="45.01215" lon="6.37651">
        <ele>1932.8</ele>
        <time>2024-08-10T13:15:50Z</time>
      </trkpt>
      <trkpt lat="45.01215" lon="6.37651">
        <ele>1933</ele>
        <time>2024-08-10T13:15:51Z</time>
      </trkpt>
      <trkpt lat="45.01213" lon="6.37652">
        <ele>1933.4</ele>
        <time>2024-08-10T13:15:52Z</time>
      </trkpt>
      <trkpt lat="45.01213" lon="6.37652">
        <ele>1933.6</ele>
        <time>2024-08-10T13:15:53Z</time>
      </trkpt>
      <trkpt lat="45.01211" lon="6.37654">
        <ele>1933.8</ele>
        <time>2024-08-10T13:15:54Z</time>
      </trkpt>
      <trkpt lat="45.01211" lon="6.37654">
        <ele>1934.2</ele>
        <time>2024-08-10T13:15:55Z</time>
      </trkpt>
      <trkpt lat="45.01211" lon="6.37654">
        <ele>1934.2</ele>
        <time>2024-08-10T13:15:56Z</time>
      </trkpt>
      <trkpt lat="45.01209" lon="6.37654">
        <ele>1934.4</ele>
        <time>2024-08-10T13:15:57Z</time>
      </trkpt>
      <trkpt lat="45.01209" lon="6.37654">
        <ele>1934.4</ele>
        <time>2024-08-10T13:15:58Z</time>
      </trkpt>
      <trkpt lat="45.01209" lon="6.37654">
        <ele>1934.4</ele>
        <time>2024-08-10T13:15:59Z</time>
      </trkpt>
      <trkpt lat="45.01207" lon="6.37656">
        <ele>1934.8</ele>
        <time>2024-08-10T13:16:00Z</time>
      </trkpt>
      <trkpt lat="45.01207" lon="6.37656">
        <ele>1934.8</ele>
        <time>2024-08-10T13:16:01Z</time>
      </trkpt>
      <trkpt lat="45.01205" lon="6.37657">
        <ele>1935</ele>
        <time>2024-08-10T13:16:02Z</time>
      </trkpt>
      <trkpt lat="45.01205" lon="6.37657">
        <ele>1935.4</ele>
        <time>2024-08-10T13:16:03Z</time>
      </trkpt>
      <trkpt lat="45.01205" lon="6.37657">
        <ele>1935.4</ele>
        <time>2024-08-10T13:16:04Z</time>
      </trkpt>
      <trkpt lat="45.01202" lon="6.37658">
        <ele>1935.4</ele>
        <time>2024-08-10T13:16:05Z</time>
      </trkpt>
      <trkpt lat="45.01202" lon="6.37658">
        <ele>1935.8</ele>
        <time>2024-08-10T13:16:06Z</time>
      </trkpt>
      <trkpt lat="45.01202" lon="6.37658">
        <ele>1936</ele>
        <time>2024-08-10T13:16:07Z</time>
      </trkpt>
      <trkpt lat="45.01199" lon="6.37659">
        <ele>1936.2</ele>
        <time>2024-08-10T13:16:08Z</time>
      </trkpt>
      <trkpt lat="45.01199" lon="6.37659">
        <ele>1936.4</ele>
        <time>2024-08-10T13:16:09Z</time>
      </trkpt>
      <trkpt lat="45.01199" lon="6.37659">
        <ele>1936.4</ele>
        <time>2024-08-10T13:16:10Z</time>
      </trkpt>
      <trkpt lat="45.01197" lon="6.3766">
        <ele>1936.6</ele>
        <time>2024-08-10T13:16:11Z</time>
      </trkpt>
      <trkpt lat="45.01197" lon="6.3766">
        <ele>1937</ele>
        <time>2024-08-10T13:16:12Z</time>
      </trkpt>
      <trkpt lat="45.01195" lon="6.37661">
        <ele>1937</ele>
        <time>2024-08-10T13:16:13Z</time>
      </trkpt>
      <trkpt lat="45.01195" lon="6.37661">
        <ele>1937.2</ele>
        <time>2024-08-10T13:16:14Z</time>
      </trkpt>
      <trkpt lat="45.01195" lon="6.37661">
        <ele>1937.6</ele>
        <time>2024-08-10T13:16:15Z</time>
      </trkpt>
      <trkpt lat="45.01192" lon="6.37662">
        <ele>1938</ele>
        <time>2024-08-10T13:16:16Z</time>
      </trkpt>
      <trkpt lat="45.01192" lon="6.37662">
        <ele>1938</ele>
        <time>2024-08-10T13:16:17Z</time>
      </trkpt>
      <trkpt lat="45.01192" lon="6.37662">
        <ele>1938.4</ele>
        <time>2024-08-10T13:16:18Z</time>
      </trkpt>
      <trkpt lat="45.01189" lon="6.37662">
        <ele>1938.4</ele>
        <time>2024-08-10T13:16:19Z</time>
      </trkpt>
      <trkpt lat="45.01189" lon="6.37662">
        <ele>1938.8</ele>
        <time>2024-08-10T13:16:20Z</time>
      </trkpt>
      <trkpt lat="45.01188" lon="6.37663">
        <ele>1938.8</ele>
        <time>2024-08-10T13:16:21Z</time>
      </trkpt>
      <trkpt lat="45.01188" lon="6.37663">
        <ele>1939</ele>
        <time>2024-08-10T13:16:22Z</time>
      </trkpt>
      <trkpt lat="45.01188" lon="6.37663">
        <ele>1939</ele>
        <time>2024-08-10T13:16:23Z</time>
      </trkpt>
      <trkpt lat="45.01188" lon="6.37663">
        <ele>1939</ele>
        <time>2024-08-10T13:16:24Z</time>
      </trkpt>
      <trkpt lat="45.01185" lon="6.37664">
        <ele>1939</ele>
        <time>2024-08-10T13:16:25Z</time>
      </trkpt>
      <trkpt lat="45.01185" lon="6.37664">
        <ele>1939.4</ele>
        <time>2024-08-10T13:16:26Z</time>
      </trkpt>
      <trkpt lat="45.01185" lon="6.37664">
        <ele>1939.4</ele>
        <time>2024-08-10T13:16:27Z</time>
      </trkpt>
      <trkpt lat="45.01183" lon="6.37665">
        <ele>1939.4</ele>
        <time>2024-08-10T13:16:28Z</time>
      </trkpt>
      <trkpt lat="45.01183" lon="6.37665">
        <ele>1939.6</ele>
        <time>2024-08-10T13:16:29Z</time>
      </trkpt>
      <trkpt lat="45.01181" lon="6.37666">
        <ele>1939.6</ele>
        <time>2024-08-10T13:16:30Z</time>
      </trkpt>
      <trkpt lat="45.01181" lon="6.37666">
        <ele>1939.6</ele>
        <time>2024-08-10T13:16:31Z</time>
      </trkpt>
      <trkpt lat="45.01181" lon="6.37666">
        <ele>1939.8</ele>
        <time>2024-08-10T13:16:32Z</time>
      </trkpt>
      <trkpt lat="45.01179" lon="6.37665">
        <ele>1940</ele>
        <time>2024-08-10T13:16:33Z</time>
      </trkpt>
      <trkpt lat="45.01179" lon="6.37665">
        <ele>1940.2</ele>
        <time>2024-08-10T13:16:34Z</time>
      </trkpt>
      <trkpt lat="45.01177" lon="6.37664">
        <ele>1940.6</ele>
        <time>2024-08-10T13:16:35Z</time>
      </trkpt>
      <trkpt lat="45.01177" lon="6.37664">
        <ele>1941.2</ele>
        <time>2024-08-10T13:16:36Z</time>
      </trkpt>
      <trkpt lat="45.01175" lon="6.37664">
        <ele>1941.4</ele>
        <time>2024-08-10T13:16:37Z</time>
      </trkpt>
      <trkpt lat="45.01175" lon="6.37664">
        <ele>1941.4</ele>
        <time>2024-08-10T13:16:38Z</time>
      </trkpt>
      <trkpt lat="45.01175" lon="6.37664">
        <ele>1941.6</ele>
        <time>2024-08-10T13:16:39Z</time>
      </trkpt>
      <trkpt lat="45.01173" lon="6.37664">
        <ele>1941.8</ele>
        <time>2024-08-10T13:16:40Z</time>
      </trkpt>
      <trkpt lat="45.01173" lon="6.37664">
        <ele>1941.8</ele>
        <time>2024-08-10T13:16:41Z</time>
      </trkpt>
      <trkpt lat="45.01173" lon="6.37664">
        <ele>1942</ele>
        <time>2024-08-10T13:16:42Z</time>
      </trkpt>
      <trkpt lat="45.01173" lon="6.37664">
        <ele>1942</ele>
        <time>2024-08-10T13:16:43Z</time>
      </trkpt>
      <trkpt lat="45.01171" lon="6.37666">
        <ele>1942.2</ele>
        <time>2024-08-10T13:16:44Z</time>
      </trkpt>
      <trkpt lat="45.01171" lon="6.37666">
        <ele>1942.2</ele>
        <time>2024-08-10T13:16:45Z</time>
      </trkpt>
      <trkpt lat="45.01171" lon="6.37666">
        <ele>1942.4</ele>
        <time>2024-08-10T13:16:46Z</time>
      </trkpt>
      <trkpt lat="45.01171" lon="6.37666">
        <ele>1942.6</ele>
        <time>2024-08-10T13:16:47Z</time>
      </trkpt>
      <trkpt lat="45.01171" lon="6.37666">
        <ele>1942.6</ele>
        <time>2024-08-10T13:16:48Z</time>
      </trkpt>
      <trkpt lat="45.0117" lon="6.37669">
        <ele>1942.8</ele>
        <time>2024-08-10T13:16:49Z</time>
      </trkpt>
      <trkpt lat="45.0117" lon="6.37669">
        <ele>1942.8</ele>
        <time>2024-08-10T13:16:50Z</time>
      </trkpt>
      <trkpt lat="45.0117" lon="6.37669">
        <ele>1943.4</ele>
        <time>2024-08-10T13:16:51Z</time>
      </trkpt>
      <trkpt lat="45.01168" lon="6.3767">
        <ele>1943.6</ele>
        <time>2024-08-10T13:16:52Z</time>
      </trkpt>
      <trkpt lat="45.01168" lon="6.3767">
        <ele>1943.8</ele>
        <time>2024-08-10T13:16:53Z</time>
      </trkpt>
      <trkpt lat="45.01168" lon="6.3767">
        <ele>1943.8</ele>
        <time>2024-08-10T13:16:54Z</time>
      </trkpt>
      <trkpt lat="45.01166" lon="6.3767">
        <ele>1944.2</ele>
        <time>2024-08-10T13:16:55Z</time>
      </trkpt>
      <trkpt lat="45.01166" lon="6.3767">
        <ele>1944.4</ele>
        <time>2024-08-10T13:16:56Z</time>
      </trkpt>
      <trkpt lat="45.01166" lon="6.3767">
        <ele>1944.4</ele>
        <time>2024-08-10T13:16:57Z</time>
      </trkpt>
      <trkpt lat="45.01164" lon="6.37669">
        <ele>1944.4</ele>
        <time>2024-08-10T13:16:58Z</time>
      </trkpt>
      <trkpt lat="45.01164" lon="6.37669">
        <ele>1944.6</ele>
        <time>2024-08-10T13:16:59Z</time>
      </trkpt>
      <trkpt lat="45.01164" lon="6.37669">
        <ele>1944.8</ele>
        <time>2024-08-10T13:17:00Z</time>
      </trkpt>
      <trkpt lat="45.01163" lon="6.37666">
        <ele>1945</ele>
        <time>2024-08-10T13:17:01Z</time>
      </trkpt>
      <trkpt lat="45.01163" lon="6.37666">
        <ele>1945.4</ele>
        <time>2024-08-10T13:17:02Z</time>
      </trkpt>
      <trkpt lat="45.01163" lon="6.37666">
        <ele>1946.2</ele>
        <time>2024-08-10T13:17:03Z</time>
      </trkpt>
      <trkpt lat="45.01162" lon="6.37663">
        <ele>1946.2</ele>
        <time>2024-08-10T13:17:04Z</time>
      </trkpt>
      <trkpt lat="45.01162" lon="6.37663">
        <ele>1946.2</ele>
        <time>2024-08-10T13:17:05Z</time>
      </trkpt>
      <trkpt lat="45.01162" lon="6.37663">
        <ele>1946.2</ele>
        <time>2024-08-10T13:17:06Z</time>
      </trkpt>
      <trkpt lat="45.01162" lon="6.37663">
        <ele>1946.2</ele>
        <time>2024-08-10T13:17:07Z</time>
      </trkpt>
      <trkpt lat="45.01162" lon="6.37663">
        <ele>1946.2</ele>
        <time>2024-08-10T13:17:08Z</time>
      </trkpt>
      <trkpt lat="45.01161" lon="6.37661">
        <ele>1946.4</ele>
        <time>2024-08-10T13:17:09Z</time>
      </trkpt>
      <trkpt lat="45.01161" lon="6.37661">
        <ele>1946.6</ele>
        <time>2024-08-10T13:17:10Z</time>
      </trkpt>
      <trkpt lat="45.01161" lon="6.37661">
        <ele>1946.6</ele>
        <time>2024-08-10T13:17:11Z</time>
      </trkpt>
      <trkpt lat="45.01161" lon="6.37661">
        <ele>1947</ele>
        <time>2024-08-10T13:17:12Z</time>
      </trkpt>
      <trkpt lat="45.01161" lon="6.37661">
        <ele>1947.2</ele>
        <time>2024-08-10T13:17:13Z</time>
      </trkpt>
      <trkpt lat="45.01161" lon="6.37661">
        <ele>1947.4</ele>
        <time>2024-08-10T13:17:14Z</time>
      </trkpt>
      <trkpt lat="45.01159" lon="6.37661">
        <ele>1947.4</ele>
        <time>2024-08-10T13:17:15Z</time>
      </trkpt>
      <trkpt lat="45.01159" lon="6.37661">
        <ele>1947.4</ele>
        <time>2024-08-10T13:17:16Z</time>
      </trkpt>
      <trkpt lat="45.01159" lon="6.37661">
        <ele>1948</ele>
        <time>2024-08-10T13:17:17Z</time>
      </trkpt>
      <trkpt lat="45.01159" lon="6.37661">
        <ele>1948.4</ele>
        <time>2024-08-10T13:17:18Z</time>
      </trkpt>
      <trkpt lat="45.01159" lon="6.37661">
        <ele>1948.6</ele>
        <time>2024-08-10T13:17:19Z</time>
      </trkpt>
      <trkpt lat="45.01159" lon="6.37661">
        <ele>1948.8</ele>
        <time>2024-08-10T13:17:20Z</time>
      </trkpt>
      <trkpt lat="45.01159" lon="6.37661">
        <ele>1948.8</ele>
        <time>2024-08-10T13:17:21Z</time>
      </trkpt>
      <trkpt lat="45.01159" lon="6.37661">
        <ele>1949</ele>
        <time>2024-08-10T13:17:22Z</time>
      </trkpt>
      <trkpt lat="45.01159" lon="6.37661">
        <ele>1949.2</ele>
        <time>2024-08-10T13:17:23Z</time>
      </trkpt>
      <trkpt lat="45.01159" lon="6.37661">
        <ele>1949.4</ele>
        <time>2024-08-10T13:17:24Z</time>
      </trkpt>
      <trkpt lat="45.01159" lon="6.37661">
        <ele>1949.6</ele>
        <time>2024-08-10T13:17:25Z</time>
      </trkpt>
      <trkpt lat="45.01158" lon="6.37658">
        <ele>1949.4</ele>
        <time>2024-08-10T13:17:26Z</time>
      </trkpt>
      <trkpt lat="45.01158" lon="6.37658">
        <ele>1949.4</ele>
        <time>2024-08-10T13:17:27Z</time>
      </trkpt>
      <trkpt lat="45.01157" lon="6.37656">
        <ele>1949.4</ele>
        <time>2024-08-10T13:17:28Z</time>
      </trkpt>
      <trkpt lat="45.01157" lon="6.37656">
        <ele>1949.6</ele>
        <time>2024-08-10T13:17:29Z</time>
      </trkpt>
      <trkpt lat="45.01154" lon="6.37656">
        <ele>1949.8</ele>
        <time>2024-08-10T13:17:30Z</time>
      </trkpt>
      <trkpt lat="45.01154" lon="6.37656">
        <ele>1950</ele>
        <time>2024-08-10T13:17:31Z</time>
      </trkpt>
      <trkpt lat="45.01154" lon="6.37656">
        <ele>1950.2</ele>
        <time>2024-08-10T13:17:32Z</time>
      </trkpt>
      <trkpt lat="45.01152" lon="6.37655">
        <ele>1950.2</ele>
        <time>2024-08-10T13:17:33Z</time>
      </trkpt>
      <trkpt lat="45.01152" lon="6.37655">
        <ele>1950.2</ele>
        <time>2024-08-10T13:17:34Z</time>
      </trkpt>
      <trkpt lat="45.0115" lon="6.37655">
        <ele>1950.2</ele>
        <time>2024-08-10T13:17:35Z</time>
      </trkpt>
      <trkpt lat="45.0115" lon="6.37655">
        <ele>1950.4</ele>
        <time>2024-08-10T13:17:36Z</time>
      </trkpt>
      <trkpt lat="45.01148" lon="6.37655">
        <ele>1950.6</ele>
        <time>2024-08-10T13:17:37Z</time>
      </trkpt>
      <trkpt lat="45.01148" lon="6.37655">
        <ele>1950.6</ele>
        <time>2024-08-10T13:17:38Z</time>
      </trkpt>
      <trkpt lat="45.01146" lon="6.37655">
        <ele>1950.8</ele>
        <time>2024-08-10T13:17:39Z</time>
      </trkpt>
      <trkpt lat="45.01146" lon="6.37655">
        <ele>1951</ele>
        <time>2024-08-10T13:17:40Z</time>
      </trkpt>
      <trkpt lat="45.01144" lon="6.37654">
        <ele>1951.4</ele>
        <time>2024-08-10T13:17:41Z</time>
      </trkpt>
      <trkpt lat="45.01144" lon="6.37654">
        <ele>1951.4</ele>
        <time>2024-08-10T13:17:42Z</time>
      </trkpt>
      <trkpt lat="45.01142" lon="6.37655">
        <ele>1951.6</ele>
        <time>2024-08-10T13:17:43Z</time>
      </trkpt>
      <trkpt lat="45.01142" lon="6.37655">
        <ele>1951.6</ele>
        <time>2024-08-10T13:17:44Z</time>
      </trkpt>
      <trkpt lat="45.01142" lon="6.37655">
        <ele>1951.6</ele>
        <time>2024-08-10T13:17:45Z</time>
      </trkpt>
      <trkpt lat="45.0114" lon="6.37654">
        <ele>1951.6</ele>
        <time>2024-08-10T13:17:46Z</time>
      </trkpt>
      <trkpt lat="45.0114" lon="6.37654">
        <ele>1951.8</ele>
        <time>2024-08-10T13:17:47Z</time>
      </trkpt>
      <trkpt lat="45.01138" lon="6.37653">
        <ele>1952</ele>
        <time>2024-08-10T13:17:48Z</time>
      </trkpt>
      <trkpt lat="45.01138" lon="6.37653">
        <ele>1952.4</ele>
        <time>2024-08-10T13:17:49Z</time>
      </trkpt>
      <trkpt lat="45.01136" lon="6.37652">
        <ele>1952.8</ele>
        <time>2024-08-10T13:17:50Z</time>
      </trkpt>
      <trkpt lat="45.01136" lon="6.37652">
        <ele>1952.8</ele>
        <time>2024-08-10T13:17:51Z</time>
      </trkpt>
      <trkpt lat="45.01136" lon="6.37652">
        <ele>1952.8</ele>
        <time>2024-08-10T13:17:52Z</time>
      </trkpt>
      <trkpt lat="45.01134" lon="6.37653">
        <ele>1953.2</ele>
        <time>2024-08-10T13:17:53Z</time>
      </trkpt>
      <trkpt lat="45.01134" lon="6.37653">
        <ele>1953.4</ele>
        <time>2024-08-10T13:17:54Z</time>
      </trkpt>
      <trkpt lat="45.01132" lon="6.37654">
        <ele>1953.6</ele>
        <time>2024-08-10T13:17:55Z</time>
      </trkpt>
      <trkpt lat="45.01132" lon="6.37654">
        <ele>1953.8</ele>
        <time>2024-08-10T13:17:56Z</time>
      </trkpt>
      <trkpt lat="45.01132" lon="6.37654">
        <ele>1954</ele>
        <time>2024-08-10T13:17:57Z</time>
      </trkpt>
      <trkpt lat="45.01132" lon="6.37657">
        <ele>1954.2</ele>
        <time>2024-08-10T13:17:58Z</time>
      </trkpt>
      <trkpt lat="45.01132" lon="6.37657">
        <ele>1954.2</ele>
        <time>2024-08-10T13:17:59Z</time>
      </trkpt>
      <trkpt lat="45.01133" lon="6.37659">
        <ele>1954.2</ele>
        <time>2024-08-10T13:18:00Z</time>
      </trkpt>
      <trkpt lat="45.01133" lon="6.37659">
        <ele>1954.6</ele>
        <time>2024-08-10T13:18:01Z</time>
      </trkpt>
      <trkpt lat="45.01134" lon="6.37661">
        <ele>1955</ele>
        <time>2024-08-10T13:18:02Z</time>
      </trkpt>
      <trkpt lat="45.01134" lon="6.37661">
        <ele>1955</ele>
        <time>2024-08-10T13:18:03Z</time>
      </trkpt>
      <trkpt lat="45.01134" lon="6.37661">
        <ele>1955</ele>
        <time>2024-08-10T13:18:04Z</time>
      </trkpt>
      <trkpt lat="45.01136" lon="6.37663">
        <ele>1955</ele>
        <time>2024-08-10T13:18:05Z</time>
      </trkpt>
      <trkpt lat="45.01136" lon="6.37663">
        <ele>1955.2</ele>
        <time>2024-08-10T13:18:06Z</time>
      </trkpt>
      <trkpt lat="45.01136" lon="6.37663">
        <ele>1955.4</ele>
        <time>2024-08-10T13:18:07Z</time>
      </trkpt>
      <trkpt lat="45.01138" lon="6.37664">
        <ele>1955.6</ele>
        <time>2024-08-10T13:18:08Z</time>
      </trkpt>
      <trkpt lat="45.01138" lon="6.37664">
        <ele>1955.8</ele>
        <time>2024-08-10T13:18:09Z</time>
      </trkpt>
      <trkpt lat="45.01138" lon="6.37664">
        <ele>1956</ele>
        <time>2024-08-10T13:18:10Z</time>
      </trkpt>
      <trkpt lat="45.0114" lon="6.37666">
        <ele>1956.4</ele>
        <time>2024-08-10T13:18:11Z</time>
      </trkpt>
      <trkpt lat="45.0114" lon="6.37666">
        <ele>1956.6</ele>
        <time>2024-08-10T13:18:12Z</time>
      </trkpt>
      <trkpt lat="45.0114" lon="6.37666">
        <ele>1956.6</ele>
        <time>2024-08-10T13:18:13Z</time>
      </trkpt>
      <trkpt lat="45.0114" lon="6.37666">
        <ele>1956.6</ele>
        <time>2024-08-10T13:18:14Z</time>
      </trkpt>
      <trkpt lat="45.0114" lon="6.37666">
        <ele>1956.6</ele>
        <time>2024-08-10T13:18:15Z</time>
      </trkpt>
      <trkpt lat="45.01141" lon="6.37668">
        <ele>1956.8</ele>
        <time>2024-08-10T13:18:16Z</time>
      </trkpt>
      <trkpt lat="45.01141" lon="6.37668">
        <ele>1957.4</ele>
        <time>2024-08-10T13:18:17Z</time>
      </trkpt>
      <trkpt lat="45.01141" lon="6.37668">
        <ele>1957.4</ele>
        <time>2024-08-10T13:18:18Z</time>
      </trkpt>
      <trkpt lat="45.01141" lon="6.37668">
        <ele>1957.6</ele>
        <time>2024-08-10T13:18:19Z</time>
      </trkpt>
      <trkpt lat="45.01142" lon="6.37671">
        <ele>1957.6</ele>
        <time>2024-08-10T13:18:20Z</time>
      </trkpt>
      <trkpt lat="45.01142" lon="6.37671">
        <ele>1957.8</ele>
        <time>2024-08-10T13:18:21Z</time>
      </trkpt>
      <trkpt lat="45.01142" lon="6.37671">
        <ele>1957.8</ele>
        <time>2024-08-10T13:18:22Z</time>
      </trkpt>
      <trkpt lat="45.01141" lon="6.37675">
        <ele>1957.8</ele>
        <time>2024-08-10T13:18:23Z</time>
      </trkpt>
      <trkpt lat="45.01141" lon="6.37675">
        <ele>1958.4</ele>
        <time>2024-08-10T13:18:24Z</time>
      </trkpt>
      <trkpt lat="45.01141" lon="6.37675">
        <ele>1958.6</ele>
        <time>2024-08-10T13:18:25Z</time>
      </trkpt>
      <trkpt lat="45.01141" lon="6.37678">
        <ele>1958.8</ele>
        <time>2024-08-10T13:18:26Z</time>
      </trkpt>
      <trkpt lat="45.01141" lon="6.37678">
        <ele>1959</ele>
        <time>2024-08-10T13:18:27Z</time>
      </trkpt>
      <trkpt lat="45.01141" lon="6.37678">
        <ele>1959.4</ele>
        <time>2024-08-10T13:18:28Z</time>
      </trkpt>
      <trkpt lat="45.0114" lon="6.37682">
        <ele>1959.6</ele>
        <time>2024-08-10T13:18:29Z</time>
      </trkpt>
      <trkpt lat="45.0114" lon="6.37682">
        <ele>1959.6</ele>
        <time>2024-08-10T13:18:30Z</time>
      </trkpt>
      <trkpt lat="45.0114" lon="6.37682">
        <ele>1960</ele>
        <time>2024-08-10T13:18:31Z</time>
      </trkpt>
      <trkpt lat="45.01139" lon="6.37685">
        <ele>1960.2</ele>
        <time>2024-08-10T13:18:32Z</time>
      </trkpt>
      <trkpt lat="45.01139" lon="6.37685">
        <ele>1960.2</ele>
        <time>2024-08-10T13:18:33Z</time>
      </trkpt>
      <trkpt lat="45.01138" lon="6.37688">
        <ele>1960.4</ele>
        <time>2024-08-10T13:18:34Z</time>
      </trkpt>
      <trkpt lat="45.01138" lon="6.37688">
        <ele>1960.6</ele>
        <time>2024-08-10T13:18:35Z</time>
      </trkpt>
      <trkpt lat="45.01138" lon="6.37688">
        <ele>1960.8</ele>
        <time>2024-08-10T13:18:36Z</time>
      </trkpt>
      <trkpt lat="45.01139" lon="6.37691">
        <ele>1961</ele>
        <time>2024-08-10T13:18:37Z</time>
      </trkpt>
      <trkpt lat="45.01139" lon="6.37691">
        <ele>1961</ele>
        <time>2024-08-10T13:18:38Z</time>
      </trkpt>
      <trkpt lat="45.01139" lon="6.37694">
        <ele>1961.2</ele>
        <time>2024-08-10T13:18:39Z</time>
      </trkpt>
      <trkpt lat="45.01139" lon="6.37694">
        <ele>1961.4</ele>
        <time>2024-08-10T13:18:40Z</time>
      </trkpt>
      <trkpt lat="45.01138" lon="6.37697">
        <ele>1961.6</ele>
        <time>2024-08-10T13:18:41Z</time>
      </trkpt>
      <trkpt lat="45.01138" lon="6.37697">
        <ele>1961.8</ele>
        <time>2024-08-10T13:18:42Z</time>
      </trkpt>
      <trkpt lat="45.01138" lon="6.37699">
        <ele>1962</ele>
        <time>2024-08-10T13:18:43Z</time>
      </trkpt>
      <trkpt lat="45.01138" lon="6.37699">
        <ele>1962</ele>
        <time>2024-08-10T13:18:44Z</time>
      </trkpt>
      <trkpt lat="45.01138" lon="6.37699">
        <ele>1962.2</ele>
        <time>2024-08-10T13:18:45Z</time>
      </trkpt>
      <trkpt lat="45.01138" lon="6.37699">
        <ele>1962.2</ele>
        <time>2024-08-10T13:18:46Z</time>
      </trkpt>
      <trkpt lat="45.01135" lon="6.37699">
        <ele>1962.4</ele>
        <time>2024-08-10T13:18:47Z</time>
      </trkpt>
      <trkpt lat="45.01135" lon="6.37699">
        <ele>1962.6</ele>
        <time>2024-08-10T13:18:48Z</time>
      </trkpt>
      <trkpt lat="45.01134" lon="6.37696">
        <ele>1962.8</ele>
        <time>2024-08-10T13:18:49Z</time>
      </trkpt>
      <trkpt lat="45.01134" lon="6.37696">
        <ele>1963</ele>
        <time>2024-08-10T13:18:50Z</time>
      </trkpt>
      <trkpt lat="45.01133" lon="6.37694">
        <ele>1963.4</ele>
        <time>2024-08-10T13:18:51Z</time>
      </trkpt>
      <trkpt lat="45.01133" lon="6.37694">
        <ele>1963.4</ele>
        <time>2024-08-10T13:18:52Z</time>
      </trkpt>
      <trkpt lat="45.01133" lon="6.37694">
        <ele>1963.8</ele>
        <time>2024-08-10T13:18:53Z</time>
      </trkpt>
      <trkpt lat="45.01133" lon="6.3769">
        <ele>1964.4</ele>
        <time>2024-08-10T13:18:54Z</time>
      </trkpt>
      <trkpt lat="45.01133" lon="6.3769">
        <ele>1964.4</ele>
        <time>2024-08-10T13:18:55Z</time>
      </trkpt>
      <trkpt lat="45.01133" lon="6.3769">
        <ele>1964.6</ele>
        <time>2024-08-10T13:18:56Z</time>
      </trkpt>
      <trkpt lat="45.01132" lon="6.37688">
        <ele>1964.6</ele>
        <time>2024-08-10T13:18:57Z</time>
      </trkpt>
      <trkpt lat="45.01132" lon="6.37688">
        <ele>1964.6</ele>
        <time>2024-08-10T13:18:58Z</time>
      </trkpt>
      <trkpt lat="45.01132" lon="6.37688">
        <ele>1965</ele>
        <time>2024-08-10T13:18:59Z</time>
      </trkpt>
      <trkpt lat="45.01132" lon="6.37685">
        <ele>1965.2</ele>
        <time>2024-08-10T13:19:00Z</time>
      </trkpt>
      <trkpt lat="45.01132" lon="6.37685">
        <ele>1965.2</ele>
        <time>2024-08-10T13:19:01Z</time>
      </trkpt>
      <trkpt lat="45.01132" lon="6.37685">
        <ele>1965.4</ele>
        <time>2024-08-10T13:19:02Z</time>
      </trkpt>
      <trkpt lat="45.01131" lon="6.37682">
        <ele>1966.4</ele>
        <time>2024-08-10T13:19:03Z</time>
      </trkpt>
      <trkpt lat="45.01131" lon="6.37682">
        <ele>1966.4</ele>
        <time>2024-08-10T13:19:04Z</time>
      </trkpt>
      <trkpt lat="45.01131" lon="6.37682">
        <ele>1966.4</ele>
        <time>2024-08-10T13:19:05Z</time>
      </trkpt>
      <trkpt lat="45.01131" lon="6.37682">
        <ele>1966.6</ele>
        <time>2024-08-10T13:19:06Z</time>
      </trkpt>
      <trkpt lat="45.01129" lon="6.37683">
        <ele>1966.8</ele>
        <time>2024-08-10T13:19:07Z</time>
      </trkpt>
      <trkpt lat="45.01129" lon="6.37683">
        <ele>1967.2</ele>
        <time>2024-08-10T13:19:08Z</time>
      </trkpt>
      <trkpt lat="45.01129" lon="6.37683">
        <ele>1967.2</ele>
        <time>2024-08-10T13:19:09Z</time>
      </trkpt>
      <trkpt lat="45.01129" lon="6.37683">
        <ele>1967.4</ele>
        <time>2024-08-10T13:19:10Z</time>
      </trkpt>
      <trkpt lat="45.01129" lon="6.37686">
        <ele>1967.4</ele>
        <time>2024-08-10T13:19:11Z</time>
      </trkpt>
      <trkpt lat="45.01129" lon="6.37686">
        <ele>1967.6</ele>
        <time>2024-08-10T13:19:12Z</time>
      </trkpt>
      <trkpt lat="45.01129" lon="6.37686">
        <ele>1967.6</ele>
        <time>2024-08-10T13:19:13Z</time>
      </trkpt>
      <trkpt lat="45.01129" lon="6.37686">
        <ele>1967.8</ele>
        <time>2024-08-10T13:19:14Z</time>
      </trkpt>
      <trkpt lat="45.01129" lon="6.37686">
        <ele>1968</ele>
        <time>2024-08-10T13:19:15Z</time>
      </trkpt>
      <trkpt lat="45.01129" lon="6.37686">
        <ele>1968.2</ele>
        <time>2024-08-10T13:19:16Z</time>
      </trkpt>
      <trkpt lat="45.01129" lon="6.37686">
        <ele>1968.6</ele>
        <time>2024-08-10T13:19:17Z</time>
      </trkpt>
      <trkpt lat="45.01129" lon="6.37686">
        <ele>1968.8</ele>
        <time>2024-08-10T13:19:18Z</time>
      </trkpt>
      <trkpt lat="45.01129" lon="6.37686">
        <ele>1968.8</ele>
        <time>2024-08-10T13:19:19Z</time>
      </trkpt>
      <trkpt lat="45.01129" lon="6.37686">
        <ele>1969</ele>
        <time>2024-08-10T13:19:20Z</time>
      </trkpt>
      <trkpt lat="45.01129" lon="6.37686">
        <ele>1969.4</ele>
        <time>2024-08-10T13:19:21Z</time>
      </trkpt>
      <trkpt lat="45.01126" lon="6.37686">
        <ele>1969.6</ele>
        <time>2024-08-10T13:19:22Z</time>
      </trkpt>
      <trkpt lat="45.01126" lon="6.37686">
        <ele>1970</ele>
        <time>2024-08-10T13:19:23Z</time>
      </trkpt>
      <trkpt lat="45.01124" lon="6.37685">
        <ele>1970</ele>
        <time>2024-08-10T13:19:24Z</time>
      </trkpt>
      <trkpt lat="45.01124" lon="6.37685">
        <ele>1970</ele>
        <time>2024-08-10T13:19:25Z</time>
      </trkpt>
      <trkpt lat="45.01122" lon="6.37684">
        <ele>1970.4</ele>
        <time>2024-08-10T13:19:26Z</time>
      </trkpt>
      <trkpt lat="45.01122" lon="6.37684">
        <ele>1970.4</ele>
        <time>2024-08-10T13:19:27Z</time>
      </trkpt>
      <trkpt lat="45.01122" lon="6.37684">
        <ele>1970.6</ele>
        <time>2024-08-10T13:19:28Z</time>
      </trkpt>
      <trkpt lat="45.0112" lon="6.37683">
        <ele>1970.8</ele>
        <time>2024-08-10T13:19:29Z</time>
      </trkpt>
      <trkpt lat="45.0112" lon="6.37683">
        <ele>1970.8</ele>
        <time>2024-08-10T13:19:30Z</time>
      </trkpt>
      <trkpt lat="45.0112" lon="6.37683">
        <ele>1971</ele>
        <time>2024-08-10T13:19:31Z</time>
      </trkpt>
      <trkpt lat="45.01118" lon="6.37682">
        <ele>1971.2</ele>
        <time>2024-08-10T13:19:32Z</time>
      </trkpt>
      <trkpt lat="45.01118" lon="6.37682">
        <ele>1971.6</ele>
        <time>2024-08-10T13:19:33Z</time>
      </trkpt>
      <trkpt lat="45.01116" lon="6.37682">
        <ele>1972.2</ele>
        <time>2024-08-10T13:19:34Z</time>
      </trkpt>
      <trkpt lat="45.01116" lon="6.37682">
        <ele>1972.2</ele>
        <time>2024-08-10T13:19:35Z</time>
      </trkpt>
      <trkpt lat="45.01116" lon="6.37682">
        <ele>1972.2</ele>
        <time>2024-08-10T13:19:36Z</time>
      </trkpt>
      <trkpt lat="45.01114" lon="6.37683">
        <ele>1972.2</ele>
        <time>2024-08-10T13:19:37Z</time>
      </trkpt>
      <trkpt lat="45.01114" lon="6.37683">
        <ele>1972.2</ele>
        <time>2024-08-10T13:19:38Z</time>
      </trkpt>
      <trkpt lat="45.01114" lon="6.37683">
        <ele>1972.4</ele>
        <time>2024-08-10T13:19:39Z</time>
      </trkpt>
      <trkpt lat="45.01112" lon="6.37684">
        <ele>1972.8</ele>
        <time>2024-08-10T13:19:40Z</time>
      </trkpt>
      <trkpt lat="45.01112" lon="6.37684">
        <ele>1973</ele>
        <time>2024-08-10T13:19:41Z</time>
      </trkpt>
      <trkpt lat="45.0111" lon="6.37685">
        <ele>1973</ele>
        <time>2024-08-10T13:19:42Z</time>
      </trkpt>
      <trkpt lat="45.0111" lon="6.37685">
        <ele>1973.2</ele>
        <time>2024-08-10T13:19:43Z</time>
      </trkpt>
      <trkpt lat="45.0111" lon="6.37685">
        <ele>1973.2</ele>
        <time>2024-08-10T13:19:44Z</time>
      </trkpt>
      <trkpt lat="45.01108" lon="6.37687">
        <ele>1973.2</ele>
        <time>2024-08-10T13:19:45Z</time>
      </trkpt>
      <trkpt lat="45.01108" lon="6.37687">
        <ele>1973.2</ele>
        <time>2024-08-10T13:19:46Z</time>
      </trkpt>
      <trkpt lat="45.01108" lon="6.37687">
        <ele>1973.4</ele>
        <time>2024-08-10T13:19:47Z</time>
      </trkpt>
      <trkpt lat="45.01106" lon="6.3769">
        <ele>1973.6</ele>
        <time>2024-08-10T13:19:48Z</time>
      </trkpt>
      <trkpt lat="45.01106" lon="6.3769">
        <ele>1973.8</ele>
        <time>2024-08-10T13:19:49Z</time>
      </trkpt>
      <trkpt lat="45.01106" lon="6.3769">
        <ele>1974.2</ele>
        <time>2024-08-10T13:19:50Z</time>
      </trkpt>
      <trkpt lat="45.01106" lon="6.37692">
        <ele>1974.2</ele>
        <time>2024-08-10T13:19:51Z</time>
      </trkpt>
      <trkpt lat="45.01106" lon="6.37692">
        <ele>1974.6</ele>
        <time>2024-08-10T13:19:52Z</time>
      </trkpt>
      <trkpt lat="45.01106" lon="6.37692">
        <ele>1974.8</ele>
        <time>2024-08-10T13:19:53Z</time>
      </trkpt>
      <trkpt lat="45.01106" lon="6.37692">
        <ele>1974.8</ele>
        <time>2024-08-10T13:19:54Z</time>
      </trkpt>
      <trkpt lat="45.01106" lon="6.37692">
        <ele>1975.2</ele>
        <time>2024-08-10T13:19:55Z</time>
      </trkpt>
      <trkpt lat="45.01106" lon="6.37695">
        <ele>1975.6</ele>
        <time>2024-08-10T13:19:56Z</time>
      </trkpt>
      <trkpt lat="45.01106" lon="6.37695">
        <ele>1976</ele>
        <time>2024-08-10T13:19:57Z</time>
      </trkpt>
      <trkpt lat="45.01106" lon="6.37695">
        <ele>1976.2</ele>
        <time>2024-08-10T13:19:58Z</time>
      </trkpt>
      <trkpt lat="45.01108" lon="6.37699">
        <ele>1976.4</ele>
        <time>2024-08-10T13:19:59Z</time>
      </trkpt>
      <trkpt lat="45.01108" lon="6.37699">
        <ele>1976.8</ele>
        <time>2024-08-10T13:20:00Z</time>
      </trkpt>
      <trkpt lat="45.01108" lon="6.37699">
        <ele>1976.8</ele>
        <time>2024-08-10T13:20:01Z</time>
      </trkpt>
      <trkpt lat="45.01108" lon="6.37699">
        <ele>1977.2</ele>
        <time>2024-08-10T13:20:02Z</time>
      </trkpt>
      <trkpt lat="45.01108" lon="6.37702">
        <ele>1977</ele>
        <time>2024-08-10T13:20:03Z</time>
      </trkpt>
      <trkpt lat="45.01108" lon="6.37702">
        <ele>1977</ele>
        <time>2024-08-10T13:20:04Z</time>
      </trkpt>
      <trkpt lat="45.01108" lon="6.37702">
        <ele>1977</ele>
        <time>2024-08-10T13:20:05Z</time>
      </trkpt>
      <trkpt lat="45.01108" lon="6.37705">
        <ele>1977.4</ele>
        <time>2024-08-10T13:20:06Z</time>
      </trkpt>
      <trkpt lat="45.01108" lon="6.37705">
        <ele>1977.6</ele>
        <time>2024-08-10T13:20:07Z</time>
      </trkpt>
      <trkpt lat="45.01108" lon="6.37705">
        <ele>1977.6</ele>
        <time>2024-08-10T13:20:08Z</time>
      </trkpt>
      <trkpt lat="45.01107" lon="6.37708">
        <ele>1977.8</ele>
        <time>2024-08-10T13:20:09Z</time>
      </trkpt>
      <trkpt lat="45.01107" lon="6.37708">
        <ele>1977.8</ele>
        <time>2024-08-10T13:20:10Z</time>
      </trkpt>
      <trkpt lat="45.01107" lon="6.37708">
        <ele>1978</ele>
        <time>2024-08-10T13:20:11Z</time>
      </trkpt>
      <trkpt lat="45.01107" lon="6.37708">
        <ele>1978.4</ele>
        <time>2024-08-10T13:20:12Z</time>
      </trkpt>
      <trkpt lat="45.01107" lon="6.3771">
        <ele>1978.6</ele>
        <time>2024-08-10T13:20:13Z</time>
      </trkpt>
      <trkpt lat="45.01107" lon="6.3771">
        <ele>1978.8</ele>
        <time>2024-08-10T13:20:14Z</time>
      </trkpt>
      <trkpt lat="45.01107" lon="6.3771">
        <ele>1979</ele>
        <time>2024-08-10T13:20:15Z</time>
      </trkpt>
      <trkpt lat="45.01107" lon="6.3771">
        <ele>1979.4</ele>
        <time>2024-08-10T13:20:16Z</time>
      </trkpt>
      <trkpt lat="45.01106" lon="6.37713">
        <ele>1979.8</ele>
        <time>2024-08-10T13:20:17Z</time>
      </trkpt>
      <trkpt lat="45.01106" lon="6.37713">
        <ele>1979.8</ele>
        <time>2024-08-10T13:20:18Z</time>
      </trkpt>
      <trkpt lat="45.01107" lon="6.37716">
        <ele>1979.8</ele>
        <time>2024-08-10T13:20:19Z</time>
      </trkpt>
      <trkpt lat="45.01107" lon="6.37716">
        <ele>1980</ele>
        <time>2024-08-10T13:20:20Z</time>
      </trkpt>
      <trkpt lat="45.01108" lon="6.37718">
        <ele>1980.2</ele>
        <time>2024-08-10T13:20:21Z</time>
      </trkpt>
      <trkpt lat="45.01108" lon="6.37718">
        <ele>1980.4</ele>
        <time>2024-08-10T13:20:22Z</time>
      </trkpt>
      <trkpt lat="45.01108" lon="6.37721">
        <ele>1980.4</ele>
        <time>2024-08-10T13:20:23Z</time>
      </trkpt>
      <trkpt lat="45.01108" lon="6.37721">
        <ele>1980.8</ele>
        <time>2024-08-10T13:20:24Z</time>
      </trkpt>
      <trkpt lat="45.01107" lon="6.37724">
        <ele>1980.8</ele>
        <time>2024-08-10T13:20:25Z</time>
      </trkpt>
      <trkpt lat="45.01107" lon="6.37724">
        <ele>1981.2</ele>
        <time>2024-08-10T13:20:26Z</time>
      </trkpt>
      <trkpt lat="45.01107" lon="6.37724">
        <ele>1981.4</ele>
        <time>2024-08-10T13:20:27Z</time>
      </trkpt>
      <trkpt lat="45.01107" lon="6.37724">
        <ele>1981.6</ele>
        <time>2024-08-10T13:20:28Z</time>
      </trkpt>
      <trkpt lat="45.01106" lon="6.37727">
        <ele>1981.6</ele>
        <time>2024-08-10T13:20:29Z</time>
      </trkpt>
      <trkpt lat="45.01106" lon="6.37727">
        <ele>1981.6</ele>
        <time>2024-08-10T13:20:30Z</time>
      </trkpt>
      <trkpt lat="45.01106" lon="6.37727">
        <ele>1981.8</ele>
        <time>2024-08-10T13:20:31Z</time>
      </trkpt>
      <trkpt lat="45.01105" lon="6.37728">
        <ele>1981.8</ele>
        <time>2024-08-10T13:20:32Z</time>
      </trkpt>
      <trkpt lat="45.01105" lon="6.37728">
        <ele>1981.8</ele>
        <time>2024-08-10T13:20:33Z</time>
      </trkpt>
      <trkpt lat="45.01105" lon="6.37728">
        <ele>1982.2</ele>
        <time>2024-08-10T13:20:34Z</time>
      </trkpt>
      <trkpt lat="45.01104" lon="6.37732">
        <ele>1982.4</ele>
        <time>2024-08-10T13:20:35Z</time>
      </trkpt>
      <trkpt lat="45.01104" lon="6.37732">
        <ele>1982.6</ele>
        <time>2024-08-10T13:20:36Z</time>
      </trkpt>
      <trkpt lat="45.01104" lon="6.37732">
        <ele>1982.8</ele>
        <time>2024-08-10T13:20:37Z</time>
      </trkpt>
      <trkpt lat="45.01104" lon="6.37734">
        <ele>1982.8</ele>
        <time>2024-08-10T13:20:38Z</time>
      </trkpt>
      <trkpt lat="45.01104" lon="6.37734">
        <ele>1983</ele>
        <time>2024-08-10T13:20:39Z</time>
      </trkpt>
      <trkpt lat="45.01104" lon="6.37734">
        <ele>1983.2</ele>
        <time>2024-08-10T13:20:40Z</time>
      </trkpt>
      <trkpt lat="45.01103" lon="6.37737">
        <ele>1983.2</ele>
        <time>2024-08-10T13:20:41Z</time>
      </trkpt>
      <trkpt lat="45.01103" lon="6.37737">
        <ele>1983.6</ele>
        <time>2024-08-10T13:20:42Z</time>
      </trkpt>
      <trkpt lat="45.01103" lon="6.37737">
        <ele>1984</ele>
        <time>2024-08-10T13:20:43Z</time>
      </trkpt>
      <trkpt lat="45.01103" lon="6.37737">
        <ele>1984</ele>
        <time>2024-08-10T13:20:44Z</time>
      </trkpt>
      <trkpt lat="45.01101" lon="6.3774">
        <ele>1984.2</ele>
        <time>2024-08-10T13:20:45Z</time>
      </trkpt>
      <trkpt lat="45.01101" lon="6.3774">
        <ele>1984.4</ele>
        <time>2024-08-10T13:20:46Z</time>
      </trkpt>
      <trkpt lat="45.01101" lon="6.3774">
        <ele>1984.6</ele>
        <time>2024-08-10T13:20:47Z</time>
      </trkpt>
      <trkpt lat="45.01101" lon="6.3774">
        <ele>1985</ele>
        <time>2024-08-10T13:20:48Z</time>
      </trkpt>
      <trkpt lat="45.01101" lon="6.3774">
        <ele>1985</ele>
        <time>2024-08-10T13:20:49Z</time>
      </trkpt>
      <trkpt lat="45.01101" lon="6.3774">
        <ele>1985.2</ele>
        <time>2024-08-10T13:20:50Z</time>
      </trkpt>
      <trkpt lat="45.01101" lon="6.3774">
        <ele>1985.4</ele>
        <time>2024-08-10T13:20:51Z</time>
      </trkpt>
      <trkpt lat="45.01101" lon="6.3774">
        <ele>1985.4</ele>
        <time>2024-08-10T13:20:52Z</time>
      </trkpt>
      <trkpt lat="45.01101" lon="6.3774">
        <ele>1985.6</ele>
        <time>2024-08-10T13:20:53Z</time>
      </trkpt>
      <trkpt lat="45.01101" lon="6.3774">
        <ele>1986</ele>
        <time>2024-08-10T13:20:54Z</time>
      </trkpt>
      <trkpt lat="45.01101" lon="6.3774">
        <ele>1986</ele>
        <time>2024-08-10T13:20:55Z</time>
      </trkpt>
      <trkpt lat="45.01101" lon="6.3774">
        <ele>1986</ele>
        <time>2024-08-10T13:20:56Z</time>
      </trkpt>
      <trkpt lat="45.01101" lon="6.3774">
        <ele>1986</ele>
        <time>2024-08-10T13:20:57Z</time>
      </trkpt>
      <trkpt lat="45.01101" lon="6.3774">
        <ele>1986</ele>
        <time>2024-08-10T13:20:58Z</time>
      </trkpt>
      <trkpt lat="45.01101" lon="6.3774">
        <ele>1986</ele>
        <time>2024-08-10T13:20:59Z</time>
      </trkpt>
      <trkpt lat="45.01101" lon="6.3774">
        <ele>1986</ele>
        <time>2024-08-10T13:21:00Z</time>
      </trkpt>
      <trkpt lat="45.01101" lon="6.3774">
        <ele>1986.2</ele>
        <time>2024-08-10T13:21:01Z</time>
      </trkpt>
      <trkpt lat="45.01101" lon="6.3774">
        <ele>1986.4</ele>
        <time>2024-08-10T13:21:02Z</time>
      </trkpt>
      <trkpt lat="45.01101" lon="6.3774">
        <ele>1986.6</ele>
        <time>2024-08-10T13:21:03Z</time>
      </trkpt>
      <trkpt lat="45.01102" lon="6.37744">
        <ele>1986.6</ele>
        <time>2024-08-10T13:21:04Z</time>
      </trkpt>
      <trkpt lat="45.01102" lon="6.37744">
        <ele>1986.2</ele>
        <time>2024-08-10T13:21:05Z</time>
      </trkpt>
      <trkpt lat="45.01103" lon="6.37747">
        <ele>1986.2</ele>
        <time>2024-08-10T13:21:06Z</time>
      </trkpt>
      <trkpt lat="45.01103" lon="6.37747">
        <ele>1986.2</ele>
        <time>2024-08-10T13:21:07Z</time>
      </trkpt>
      <trkpt lat="45.01103" lon="6.3775">
        <ele>1986.8</ele>
        <time>2024-08-10T13:21:08Z</time>
      </trkpt>
      <trkpt lat="45.01103" lon="6.3775">
        <ele>1987.2</ele>
        <time>2024-08-10T13:21:09Z</time>
      </trkpt>
      <trkpt lat="45.01103" lon="6.3775">
        <ele>1987.6</ele>
        <time>2024-08-10T13:21:10Z</time>
      </trkpt>
      <trkpt lat="45.01103" lon="6.37753">
        <ele>1987.8</ele>
        <time>2024-08-10T13:21:11Z</time>
      </trkpt>
      <trkpt lat="45.01103" lon="6.37753">
        <ele>1987.8</ele>
        <time>2024-08-10T13:21:12Z</time>
      </trkpt>
      <trkpt lat="45.01103" lon="6.37753">
        <ele>1988</ele>
        <time>2024-08-10T13:21:13Z</time>
      </trkpt>
      <trkpt lat="45.01104" lon="6.37756">
        <ele>1988.4</ele>
        <time>2024-08-10T13:21:14Z</time>
      </trkpt>
      <trkpt lat="45.01104" lon="6.37756">
        <ele>1988.4</ele>
        <time>2024-08-10T13:21:15Z</time>
      </trkpt>
      <trkpt lat="45.01102" lon="6.37757">
        <ele>1988.4</ele>
        <time>2024-08-10T13:21:16Z</time>
      </trkpt>
      <trkpt lat="45.01102" lon="6.37757">
        <ele>1988.6</ele>
        <time>2024-08-10T13:21:17Z</time>
      </trkpt>
      <trkpt lat="45.01102" lon="6.37757">
        <ele>1988.8</ele>
        <time>2024-08-10T13:21:18Z</time>
      </trkpt>
      <trkpt lat="45.01101" lon="6.37756">
        <ele>1988.8</ele>
        <time>2024-08-10T13:21:19Z</time>
      </trkpt>
      <trkpt lat="45.01101" lon="6.37756">
        <ele>1989.4</ele>
        <time>2024-08-10T13:21:20Z</time>
      </trkpt>
      <trkpt lat="45.01101" lon="6.37756">
        <ele>1989.6</ele>
        <time>2024-08-10T13:21:21Z</time>
      </trkpt>
      <trkpt lat="45.01098" lon="6.37756">
        <ele>1989.6</ele>
        <time>2024-08-10T13:21:22Z</time>
      </trkpt>
      <trkpt lat="45.01098" lon="6.37756">
        <ele>1989.6</ele>
        <time>2024-08-10T13:21:23Z</time>
      </trkpt>
      <trkpt lat="45.01098" lon="6.37756">
        <ele>1989.8</ele>
        <time>2024-08-10T13:21:24Z</time>
      </trkpt>
      <trkpt lat="45.01096" lon="6.37757">
        <ele>1990.2</ele>
        <time>2024-08-10T13:21:25Z</time>
      </trkpt>
      <trkpt lat="45.01096" lon="6.37757">
        <ele>1990.4</ele>
        <time>2024-08-10T13:21:26Z</time>
      </trkpt>
      <trkpt lat="45.01096" lon="6.37757">
        <ele>1990.6</ele>
        <time>2024-08-10T13:21:27Z</time>
      </trkpt>
      <trkpt lat="45.01094" lon="6.37758">
        <ele>1990.6</ele>
        <time>2024-08-10T13:21:28Z</time>
      </trkpt>
      <trkpt lat="45.01094" lon="6.37758">
        <ele>1990.6</ele>
        <time>2024-08-10T13:21:29Z</time>
      </trkpt>
      <trkpt lat="45.01094" lon="6.37758">
        <ele>1990.8</ele>
        <time>2024-08-10T13:21:30Z</time>
      </trkpt>
      <trkpt lat="45.01092" lon="6.3776">
        <ele>1990.8</ele>
        <time>2024-08-10T13:21:31Z</time>
      </trkpt>
      <trkpt lat="45.01092" lon="6.3776">
        <ele>1990.8</ele>
        <time>2024-08-10T13:21:32Z</time>
      </trkpt>
      <trkpt lat="45.01092" lon="6.3776">
        <ele>1990.8</ele>
        <time>2024-08-10T13:21:33Z</time>
      </trkpt>
      <trkpt lat="45.0109" lon="6.37761">
        <ele>1990.8</ele>
        <time>2024-08-10T13:21:34Z</time>
      </trkpt>
      <trkpt lat="45.0109" lon="6.37761">
        <ele>1991.4</ele>
        <time>2024-08-10T13:21:35Z</time>
      </trkpt>
      <trkpt lat="45.0109" lon="6.37761">
        <ele>1991.6</ele>
        <time>2024-08-10T13:21:36Z</time>
      </trkpt>
      <trkpt lat="45.01087" lon="6.37761">
        <ele>1991.8</ele>
        <time>2024-08-10T13:21:37Z</time>
      </trkpt>
      <trkpt lat="45.01087" lon="6.37761">
        <ele>1991.8</ele>
        <time>2024-08-10T13:21:38Z</time>
      </trkpt>
      <trkpt lat="45.01087" lon="6.37761">
        <ele>1992</ele>
        <time>2024-08-10T13:21:39Z</time>
      </trkpt>
      <trkpt lat="45.01084" lon="6.37761">
        <ele>1992.4</ele>
        <time>2024-08-10T13:21:40Z</time>
      </trkpt>
      <trkpt lat="45.01084" lon="6.37761">
        <ele>1992.6</ele>
        <time>2024-08-10T13:21:41Z</time>
      </trkpt>
      <trkpt lat="45.01084" lon="6.37761">
        <ele>1992.8</ele>
        <time>2024-08-10T13:21:42Z</time>
      </trkpt>
      <trkpt lat="45.01082" lon="6.37761">
        <ele>1992.8</ele>
        <time>2024-08-10T13:21:43Z</time>
      </trkpt>
      <trkpt lat="45.01082" lon="6.37761">
        <ele>1992.8</ele>
        <time>2024-08-10T13:21:44Z</time>
      </trkpt>
      <trkpt lat="45.0108" lon="6.3776">
        <ele>1993</ele>
        <time>2024-08-10T13:21:45Z</time>
      </trkpt>
      <trkpt lat="45.0108" lon="6.3776">
        <ele>1993</ele>
        <time>2024-08-10T13:21:46Z</time>
      </trkpt>
      <trkpt lat="45.01078" lon="6.3776">
        <ele>1993.4</ele>
        <time>2024-08-10T13:21:47Z</time>
      </trkpt>
      <trkpt lat="45.01078" lon="6.3776">
        <ele>1993.6</ele>
        <time>2024-08-10T13:21:48Z</time>
      </trkpt>
      <trkpt lat="45.01078" lon="6.3776">
        <ele>1993.6</ele>
        <time>2024-08-10T13:21:49Z</time>
      </trkpt>
      <trkpt lat="45.01076" lon="6.37759">
        <ele>1993.6</ele>
        <time>2024-08-10T13:21:50Z</time>
      </trkpt>
      <trkpt lat="45.01076" lon="6.37759">
        <ele>1993.6</ele>
        <time>2024-08-10T13:21:51Z</time>
      </trkpt>
      <trkpt lat="45.01076" lon="6.37759">
        <ele>1994.2</ele>
        <time>2024-08-10T13:21:52Z</time>
      </trkpt>
      <trkpt lat="45.01074" lon="6.3776">
        <ele>1994.4</ele>
        <time>2024-08-10T13:21:53Z</time>
      </trkpt>
      <trkpt lat="45.01074" lon="6.3776">
        <ele>1994.6</ele>
        <time>2024-08-10T13:21:54Z</time>
      </trkpt>
      <trkpt lat="45.01074" lon="6.3776">
        <ele>1994.6</ele>
        <time>2024-08-10T13:21:55Z</time>
      </trkpt>
      <trkpt lat="45.01074" lon="6.3776">
        <ele>1994.8</ele>
        <time>2024-08-10T13:21:56Z</time>
      </trkpt>
      <trkpt lat="45.01074" lon="6.3776">
        <ele>1995</ele>
        <time>2024-08-10T13:21:57Z</time>
      </trkpt>
      <trkpt lat="45.01074" lon="6.3776">
        <ele>1995</ele>
        <time>2024-08-10T13:21:58Z</time>
      </trkpt>
      <trkpt lat="45.01074" lon="6.3776">
        <ele>1995.2</ele>
        <time>2024-08-10T13:21:59Z</time>
      </trkpt>
      <trkpt lat="45.01074" lon="6.3776">
        <ele>1995.6</ele>
        <time>2024-08-10T13:22:00Z</time>
      </trkpt>
      <trkpt lat="45.01074" lon="6.3776">
        <ele>1995.6</ele>
        <time>2024-08-10T13:22:01Z</time>
      </trkpt>
      <trkpt lat="45.01074" lon="6.3776">
        <ele>1995.8</ele>
        <time>2024-08-10T13:22:02Z</time>
      </trkpt>
      <trkpt lat="45.01074" lon="6.3776">
        <ele>1995.8</ele>
        <time>2024-08-10T13:22:03Z</time>
      </trkpt>
      <trkpt lat="45.01074" lon="6.3776">
        <ele>1995.8</ele>
        <time>2024-08-10T13:22:04Z</time>
      </trkpt>
      <trkpt lat="45.01074" lon="6.3776">
        <ele>1995.8</ele>
        <time>2024-08-10T13:22:05Z</time>
      </trkpt>
      <trkpt lat="45.01074" lon="6.3776">
        <ele>1995.6</ele>
        <time>2024-08-10T13:22:06Z</time>
      </trkpt>
      <trkpt lat="45.01074" lon="6.3776">
        <ele>1995.8</ele>
        <time>2024-08-10T13:22:07Z</time>
      </trkpt>
      <trkpt lat="45.01074" lon="6.3776">
        <ele>1995.8</ele>
        <time>2024-08-10T13:22:08Z</time>
      </trkpt>
      <trkpt lat="45.01074" lon="6.3776">
        <ele>1995.8</ele>
        <time>2024-08-10T13:22:09Z</time>
      </trkpt>
      <trkpt lat="45.01074" lon="6.3776">
        <ele>1995.8</ele>
        <time>2024-08-10T13:22:10Z</time>
      </trkpt>
      <trkpt lat="45.01074" lon="6.3776">
        <ele>1996</ele>
        <time>2024-08-10T13:22:11Z</time>
      </trkpt>
      <trkpt lat="45.01074" lon="6.3776">
        <ele>1996</ele>
        <time>2024-08-10T13:22:12Z</time>
      </trkpt>
      <trkpt lat="45.01074" lon="6.3776">
        <ele>1996</ele>
        <time>2024-08-10T13:22:13Z</time>
      </trkpt>
      <trkpt lat="45.01074" lon="6.3776">
        <ele>1996</ele>
        <time>2024-08-10T13:22:14Z</time>
      </trkpt>
      <trkpt lat="45.01074" lon="6.3776">
        <ele>1996</ele>
        <time>2024-08-10T13:22:15Z</time>
      </trkpt>
      <trkpt lat="45.01074" lon="6.3776">
        <ele>1996</ele>
        <time>2024-08-10T13:22:16Z</time>
      </trkpt>
      <trkpt lat="45.01074" lon="6.3776">
        <ele>1996</ele>
        <time>2024-08-10T13:22:17Z</time>
      </trkpt>
      <trkpt lat="45.01074" lon="6.3776">
        <ele>1996.2</ele>
        <time>2024-08-10T13:22:18Z</time>
      </trkpt>
      <trkpt lat="45.01074" lon="6.3776">
        <ele>1996.2</ele>
        <time>2024-08-10T13:22:19Z</time>
      </trkpt>
      <trkpt lat="45.01074" lon="6.3776">
        <ele>1996.2</ele>
        <time>2024-08-10T13:22:20Z</time>
      </trkpt>
      <trkpt lat="45.01074" lon="6.3776">
        <ele>1996.2</ele>
        <time>2024-08-10T13:22:21Z</time>
      </trkpt>
      <trkpt lat="45.01074" lon="6.3776">
        <ele>1996.2</ele>
        <time>2024-08-10T13:22:22Z</time>
      </trkpt>
      <trkpt lat="45.01072" lon="6.37761">
        <ele>1996.2</ele>
        <time>2024-08-10T13:22:23Z</time>
      </trkpt>
      <trkpt lat="45.01072" lon="6.37761">
        <ele>1996.2</ele>
        <time>2024-08-10T13:22:24Z</time>
      </trkpt>
      <trkpt lat="45.01072" lon="6.37761">
        <ele>1996.2</ele>
        <time>2024-08-10T13:22:25Z</time>
      </trkpt>
      <trkpt lat="45.01072" lon="6.37761">
        <ele>1996.2</ele>
        <time>2024-08-10T13:22:26Z</time>
      </trkpt>
      <trkpt lat="45.01069" lon="6.37762">
        <ele>1996.2</ele>
        <time>2024-08-10T13:22:27Z</time>
      </trkpt>
      <trkpt lat="45.01069" lon="6.37762">
        <ele>1996.2</ele>
        <time>2024-08-10T13:22:28Z</time>
      </trkpt>
      <trkpt lat="45.01069" lon="6.37762">
        <ele>1996.2</ele>
        <time>2024-08-10T13:22:29Z</time>
      </trkpt>
      <trkpt lat="45.01069" lon="6.37762">
        <ele>1996.2</ele>
        <time>2024-08-10T13:22:30Z</time>
      </trkpt>
      <trkpt lat="45.01069" lon="6.37762">
        <ele>1996.4</ele>
        <time>2024-08-10T13:22:31Z</time>
      </trkpt>
      <trkpt lat="45.01069" lon="6.37762">
        <ele>1996.4</ele>
        <time>2024-08-10T13:22:32Z</time>
      </trkpt>
      <trkpt lat="45.01069" lon="6.37762">
        <ele>1996.4</ele>
        <time>2024-08-10T13:22:33Z</time>
      </trkpt>
      <trkpt lat="45.01069" lon="6.37762">
        <ele>1996.4</ele>
        <time>2024-08-10T13:22:34Z</time>
      </trkpt>
      <trkpt lat="45.01069" lon="6.37762">
        <ele>1996.4</ele>
        <time>2024-08-10T13:22:35Z</time>
      </trkpt>
      <trkpt lat="45.01067" lon="6.37763">
        <ele>1996.6</ele>
        <time>2024-08-10T13:22:36Z</time>
      </trkpt>
      <trkpt lat="45.01067" lon="6.37763">
        <ele>1996.6</ele>
        <time>2024-08-10T13:22:37Z</time>
      </trkpt>
      <trkpt lat="45.01064" lon="6.37764">
        <ele>1997</ele>
        <time>2024-08-10T13:22:38Z</time>
      </trkpt>
      <trkpt lat="45.01064" lon="6.37764">
        <ele>1997.4</ele>
        <time>2024-08-10T13:22:39Z</time>
      </trkpt>
      <trkpt lat="45.01061" lon="6.37766">
        <ele>1997.4</ele>
        <time>2024-08-10T13:22:40Z</time>
      </trkpt>
      <trkpt lat="45.01061" lon="6.37766">
        <ele>1997.8</ele>
        <time>2024-08-10T13:22:41Z</time>
      </trkpt>
      <trkpt lat="45.01059" lon="6.37767">
        <ele>1998.2</ele>
        <time>2024-08-10T13:22:42Z</time>
      </trkpt>
      <trkpt lat="45.01059" lon="6.37767">
        <ele>1998.6</ele>
        <time>2024-08-10T13:22:43Z</time>
      </trkpt>
      <trkpt lat="45.01059" lon="6.37767">
        <ele>1999</ele>
        <time>2024-08-10T13:22:44Z</time>
      </trkpt>
      <trkpt lat="45.01057" lon="6.37769">
        <ele>1999.2</ele>
        <time>2024-08-10T13:22:45Z</time>
      </trkpt>
      <trkpt lat="45.01057" lon="6.37769">
        <ele>1999.2</ele>
        <time>2024-08-10T13:22:46Z</time>
      </trkpt>
      <trkpt lat="45.01055" lon="6.37769">
        <ele>1999.2</ele>
        <time>2024-08-10T13:22:47Z</time>
      </trkpt>
      <trkpt lat="45.01055" lon="6.37769">
        <ele>1999.6</ele>
        <time>2024-08-10T13:22:48Z</time>
      </trkpt>
      <trkpt lat="45.01053" lon="6.37769">
        <ele>1999.8</ele>
        <time>2024-08-10T13:22:49Z</time>
      </trkpt>
      <trkpt lat="45.01053" lon="6.37769">
        <ele>2000</ele>
        <time>2024-08-10T13:22:50Z</time>
      </trkpt>
      <trkpt lat="45.01053" lon="6.37769">
        <ele>2000</ele>
        <time>2024-08-10T13:22:51Z</time>
      </trkpt>
      <trkpt lat="45.01051" lon="6.37769">
        <ele>2000</ele>
        <time>2024-08-10T13:22:52Z</time>
      </trkpt>
      <trkpt lat="45.01051" lon="6.37769">
        <ele>2000.4</ele>
        <time>2024-08-10T13:22:53Z</time>
      </trkpt>
      <trkpt lat="45.01049" lon="6.37769">
        <ele>2000.6</ele>
        <time>2024-08-10T13:22:54Z</time>
      </trkpt>
      <trkpt lat="45.01049" lon="6.37769">
        <ele>2000.8</ele>
        <time>2024-08-10T13:22:55Z</time>
      </trkpt>
      <trkpt lat="45.01049" lon="6.37769">
        <ele>2001</ele>
        <time>2024-08-10T13:22:56Z</time>
      </trkpt>
      <trkpt lat="45.01047" lon="6.3777">
        <ele>2001.2</ele>
        <time>2024-08-10T13:22:57Z</time>
      </trkpt>
      <trkpt lat="45.01047" lon="6.3777">
        <ele>2001.4</ele>
        <time>2024-08-10T13:22:58Z</time>
      </trkpt>
      <trkpt lat="45.01045" lon="6.37771">
        <ele>2001.6</ele>
        <time>2024-08-10T13:22:59Z</time>
      </trkpt>
      <trkpt lat="45.01045" lon="6.37771">
        <ele>2001.6</ele>
        <time>2024-08-10T13:23:00Z</time>
      </trkpt>
      <trkpt lat="45.01045" lon="6.37771">
        <ele>2001.6</ele>
        <time>2024-08-10T13:23:01Z</time>
      </trkpt>
      <trkpt lat="45.01043" lon="6.37774">
        <ele>2001.8</ele>
        <time>2024-08-10T13:23:02Z</time>
      </trkpt>
      <trkpt lat="45.01043" lon="6.37774">
        <ele>2002</ele>
        <time>2024-08-10T13:23:03Z</time>
      </trkpt>
      <trkpt lat="45.01041" lon="6.37775">
        <ele>2002</ele>
        <time>2024-08-10T13:23:04Z</time>
      </trkpt>
      <trkpt lat="45.01041" lon="6.37775">
        <ele>2002.2</ele>
        <time>2024-08-10T13:23:05Z</time>
      </trkpt>
      <trkpt lat="45.01041" lon="6.37775">
        <ele>2002.4</ele>
        <time>2024-08-10T13:23:06Z</time>
      </trkpt>
      <trkpt lat="45.01041" lon="6.37775">
        <ele>2002.4</ele>
        <time>2024-08-10T13:23:07Z</time>
      </trkpt>
      <trkpt lat="45.01039" lon="6.37777">
        <ele>2002.4</ele>
        <time>2024-08-10T13:23:08Z</time>
      </trkpt>
      <trkpt lat="45.01039" lon="6.37777">
        <ele>2002.6</ele>
        <time>2024-08-10T13:23:09Z</time>
      </trkpt>
      <trkpt lat="45.01039" lon="6.37777">
        <ele>2003</ele>
        <time>2024-08-10T13:23:10Z</time>
      </trkpt>
      <trkpt lat="45.01039" lon="6.37777">
        <ele>2003.4</ele>
        <time>2024-08-10T13:23:11Z</time>
      </trkpt>
      <trkpt lat="45.01037" lon="6.37779">
        <ele>2003.4</ele>
        <time>2024-08-10T13:23:12Z</time>
      </trkpt>
      <trkpt lat="45.01037" lon="6.37779">
        <ele>2003.8</ele>
        <time>2024-08-10T13:23:13Z</time>
      </trkpt>
      <trkpt lat="45.01037" lon="6.37779">
        <ele>2003.8</ele>
        <time>2024-08-10T13:23:14Z</time>
      </trkpt>
      <trkpt lat="45.01035" lon="6.37781">
        <ele>2004</ele>
        <time>2024-08-10T13:23:15Z</time>
      </trkpt>
      <trkpt lat="45.01035" lon="6.37781">
        <ele>2004.2</ele>
        <time>2024-08-10T13:23:16Z</time>
      </trkpt>
      <trkpt lat="45.01035" lon="6.37781">
        <ele>2004.6</ele>
        <time>2024-08-10T13:23:17Z</time>
      </trkpt>
      <trkpt lat="45.01033" lon="6.37783">
        <ele>2004.6</ele>
        <time>2024-08-10T13:23:18Z</time>
      </trkpt>
      <trkpt lat="45.01033" lon="6.37783">
        <ele>2005.2</ele>
        <time>2024-08-10T13:23:19Z</time>
      </trkpt>
      <trkpt lat="45.01033" lon="6.37783">
        <ele>2005.6</ele>
        <time>2024-08-10T13:23:20Z</time>
      </trkpt>
      <trkpt lat="45.01032" lon="6.37785">
        <ele>2005.6</ele>
        <time>2024-08-10T13:23:21Z</time>
      </trkpt>
      <trkpt lat="45.01032" lon="6.37785">
        <ele>2005.6</ele>
        <time>2024-08-10T13:23:22Z</time>
      </trkpt>
      <trkpt lat="45.01032" lon="6.37785">
        <ele>2005.8</ele>
        <time>2024-08-10T13:23:23Z</time>
      </trkpt>
      <trkpt lat="45.0103" lon="6.37787">
        <ele>2006.2</ele>
        <time>2024-08-10T13:23:24Z</time>
      </trkpt>
      <trkpt lat="45.0103" lon="6.37787">
        <ele>2006</ele>
        <time>2024-08-10T13:23:25Z</time>
      </trkpt>
      <trkpt lat="45.0103" lon="6.37787">
        <ele>2006</ele>
        <time>2024-08-10T13:23:26Z</time>
      </trkpt>
      <trkpt lat="45.01029" lon="6.37789">
        <ele>2006</ele>
        <time>2024-08-10T13:23:27Z</time>
      </trkpt>
      <trkpt lat="45.01029" lon="6.37789">
        <ele>2006</ele>
        <time>2024-08-10T13:23:28Z</time>
      </trkpt>
      <trkpt lat="45.01029" lon="6.37789">
        <ele>2006.2</ele>
        <time>2024-08-10T13:23:29Z</time>
      </trkpt>
      <trkpt lat="45.01027" lon="6.37791">
        <ele>2006.6</ele>
        <time>2024-08-10T13:23:30Z</time>
      </trkpt>
      <trkpt lat="45.01027" lon="6.37791">
        <ele>2006.8</ele>
        <time>2024-08-10T13:23:31Z</time>
      </trkpt>
      <trkpt lat="45.01025" lon="6.37792">
        <ele>2007</ele>
        <time>2024-08-10T13:23:32Z</time>
      </trkpt>
      <trkpt lat="45.01025" lon="6.37792">
        <ele>2007</ele>
        <time>2024-08-10T13:23:33Z</time>
      </trkpt>
      <trkpt lat="45.01025" lon="6.37792">
        <ele>2007</ele>
        <time>2024-08-10T13:23:34Z</time>
      </trkpt>
      <trkpt lat="45.01023" lon="6.37793">
        <ele>2007.2</ele>
        <time>2024-08-10T13:23:35Z</time>
      </trkpt>
      <trkpt lat="45.01023" lon="6.37793">
        <ele>2007.4</ele>
        <time>2024-08-10T13:23:36Z</time>
      </trkpt>
      <trkpt lat="45.01021" lon="6.37795">
        <ele>2007.8</ele>
        <time>2024-08-10T13:23:37Z</time>
      </trkpt>
      <trkpt lat="45.01021" lon="6.37795">
        <ele>2008</ele>
        <time>2024-08-10T13:23:38Z</time>
      </trkpt>
      <trkpt lat="45.0102" lon="6.37796">
        <ele>2008.4</ele>
        <time>2024-08-10T13:23:39Z</time>
      </trkpt>
      <trkpt lat="45.0102" lon="6.37796">
        <ele>2008.6</ele>
        <time>2024-08-10T13:23:40Z</time>
      </trkpt>
      <trkpt lat="45.0102" lon="6.37796">
        <ele>2008.8</ele>
        <time>2024-08-10T13:23:41Z</time>
      </trkpt>
      <trkpt lat="45.01017" lon="6.37797">
        <ele>2009</ele>
        <time>2024-08-10T13:23:42Z</time>
      </trkpt>
      <trkpt lat="45.01017" lon="6.37797">
        <ele>2009</ele>
        <time>2024-08-10T13:23:43Z</time>
      </trkpt>
      <trkpt lat="45.01015" lon="6.37797">
        <ele>2009.2</ele>
        <time>2024-08-10T13:23:44Z</time>
      </trkpt>
      <trkpt lat="45.01015" lon="6.37797">
        <ele>2009.4</ele>
        <time>2024-08-10T13:23:45Z</time>
      </trkpt>
      <trkpt lat="45.01015" lon="6.37797">
        <ele>2009.8</ele>
        <time>2024-08-10T13:23:46Z</time>
      </trkpt>
      <trkpt lat="45.01013" lon="6.37798">
        <ele>2009.8</ele>
        <time>2024-08-10T13:23:47Z</time>
      </trkpt>
      <trkpt lat="45.01013" lon="6.37798">
        <ele>2009.8</ele>
        <time>2024-08-10T13:23:48Z</time>
      </trkpt>
      <trkpt lat="45.01013" lon="6.37798">
        <ele>2010</ele>
        <time>2024-08-10T13:23:49Z</time>
      </trkpt>
      <trkpt lat="45.01011" lon="6.378">
        <ele>2010.2</ele>
        <time>2024-08-10T13:23:50Z</time>
      </trkpt>
      <trkpt lat="45.01011" lon="6.378">
        <ele>2010.6</ele>
        <time>2024-08-10T13:23:51Z</time>
      </trkpt>
      <trkpt lat="45.01009" lon="6.378">
        <ele>2010.8</ele>
        <time>2024-08-10T13:23:52Z</time>
      </trkpt>
      <trkpt lat="45.01009" lon="6.378">
        <ele>2011</ele>
        <time>2024-08-10T13:23:53Z</time>
      </trkpt>
      <trkpt lat="45.01009" lon="6.378">
        <ele>2011.2</ele>
        <time>2024-08-10T13:23:54Z</time>
      </trkpt>
      <trkpt lat="45.01007" lon="6.37801">
        <ele>2011.4</ele>
        <time>2024-08-10T13:23:55Z</time>
      </trkpt>
      <trkpt lat="45.01007" lon="6.37801">
        <ele>2011.4</ele>
        <time>2024-08-10T13:23:56Z</time>
      </trkpt>
      <trkpt lat="45.01007" lon="6.37801">
        <ele>2011.6</ele>
        <time>2024-08-10T13:23:57Z</time>
      </trkpt>
      <trkpt lat="45.01004" lon="6.37801">
        <ele>2011.8</ele>
        <time>2024-08-10T13:23:58Z</time>
      </trkpt>
      <trkpt lat="45.01004" lon="6.37801">
        <ele>2012</ele>
        <time>2024-08-10T13:23:59Z</time>
      </trkpt>
      <trkpt lat="45.01004" lon="6.37801">
        <ele>2012</ele>
        <time>2024-08-10T13:24:00Z</time>
      </trkpt>
      <trkpt lat="45.01001" lon="6.37799">
        <ele>2012.2</ele>
        <time>2024-08-10T13:24:01Z</time>
      </trkpt>
      <trkpt lat="45.01001" lon="6.37799">
        <ele>2012.4</ele>
        <time>2024-08-10T13:24:02Z</time>
      </trkpt>
      <trkpt lat="45.01" lon="6.37798">
        <ele>2012.8</ele>
        <time>2024-08-10T13:24:03Z</time>
      </trkpt>
      <trkpt lat="45.01" lon="6.37798">
        <ele>2012.8</ele>
        <time>2024-08-10T13:24:04Z</time>
      </trkpt>
      <trkpt lat="45.01" lon="6.37798">
        <ele>2013.2</ele>
        <time>2024-08-10T13:24:05Z</time>
      </trkpt>
      <trkpt lat="45.01" lon="6.37798">
        <ele>2013.2</ele>
        <time>2024-08-10T13:24:06Z</time>
      </trkpt>
      <trkpt lat="45.00997" lon="6.37799">
        <ele>2013.2</ele>
        <time>2024-08-10T13:24:07Z</time>
      </trkpt>
      <trkpt lat="45.00997" lon="6.37799">
        <ele>2013.4</ele>
        <time>2024-08-10T13:24:08Z</time>
      </trkpt>
      <trkpt lat="45.00997" lon="6.37799">
        <ele>2013.6</ele>
        <time>2024-08-10T13:24:09Z</time>
      </trkpt>
      <trkpt lat="45.00995" lon="6.378">
        <ele>2013.8</ele>
        <time>2024-08-10T13:24:10Z</time>
      </trkpt>
      <trkpt lat="45.00995" lon="6.378">
        <ele>2014</ele>
        <time>2024-08-10T13:24:11Z</time>
      </trkpt>
      <trkpt lat="45.00995" lon="6.378">
        <ele>2014.2</ele>
        <time>2024-08-10T13:24:12Z</time>
      </trkpt>
      <trkpt lat="45.00992" lon="6.37802">
        <ele>2014.2</ele>
        <time>2024-08-10T13:24:13Z</time>
      </trkpt>
      <trkpt lat="45.00992" lon="6.37802">
        <ele>2014.4</ele>
        <time>2024-08-10T13:24:14Z</time>
      </trkpt>
      <trkpt lat="45.00992" lon="6.37802">
        <ele>2014.8</ele>
        <time>2024-08-10T13:24:15Z</time>
      </trkpt>
      <trkpt lat="45.0099" lon="6.37804">
        <ele>2014.8</ele>
        <time>2024-08-10T13:24:16Z</time>
      </trkpt>
      <trkpt lat="45.0099" lon="6.37804">
        <ele>2015</ele>
        <time>2024-08-10T13:24:17Z</time>
      </trkpt>
      <trkpt lat="45.00989" lon="6.37806">
        <ele>2015.2</ele>
        <time>2024-08-10T13:24:18Z</time>
      </trkpt>
      <trkpt lat="45.00989" lon="6.37806">
        <ele>2015.2</ele>
        <time>2024-08-10T13:24:19Z</time>
      </trkpt>
      <trkpt lat="45.00987" lon="6.37808">
        <ele>2015.4</ele>
        <time>2024-08-10T13:24:20Z</time>
      </trkpt>
      <trkpt lat="45.00987" lon="6.37808">
        <ele>2015.4</ele>
        <time>2024-08-10T13:24:21Z</time>
      </trkpt>
      <trkpt lat="45.00986" lon="6.3781">
        <ele>2015.6</ele>
        <time>2024-08-10T13:24:22Z</time>
      </trkpt>
      <trkpt lat="45.00986" lon="6.3781">
        <ele>2015.8</ele>
        <time>2024-08-10T13:24:23Z</time>
      </trkpt>
      <trkpt lat="45.00984" lon="6.3781">
        <ele>2016</ele>
        <time>2024-08-10T13:24:24Z</time>
      </trkpt>
      <trkpt lat="45.00984" lon="6.3781">
        <ele>2016.6</ele>
        <time>2024-08-10T13:24:25Z</time>
      </trkpt>
      <trkpt lat="45.00982" lon="6.37811">
        <ele>2016.6</ele>
        <time>2024-08-10T13:24:26Z</time>
      </trkpt>
      <trkpt lat="45.00982" lon="6.37811">
        <ele>2016.4</ele>
        <time>2024-08-10T13:24:27Z</time>
      </trkpt>
      <trkpt lat="45.0098" lon="6.37811">
        <ele>2016.6</ele>
        <time>2024-08-10T13:24:28Z</time>
      </trkpt>
      <trkpt lat="45.0098" lon="6.37811">
        <ele>2016.8</ele>
        <time>2024-08-10T13:24:29Z</time>
      </trkpt>
      <trkpt lat="45.0098" lon="6.37811">
        <ele>2016.8</ele>
        <time>2024-08-10T13:24:30Z</time>
      </trkpt>
      <trkpt lat="45.00977" lon="6.37813">
        <ele>2016.8</ele>
        <time>2024-08-10T13:24:31Z</time>
      </trkpt>
      <trkpt lat="45.00977" lon="6.37813">
        <ele>2017.2</ele>
        <time>2024-08-10T13:24:32Z</time>
      </trkpt>
      <trkpt lat="45.00977" lon="6.37813">
        <ele>2017.2</ele>
        <time>2024-08-10T13:24:33Z</time>
      </trkpt>
      <trkpt lat="45.00975" lon="6.37814">
        <ele>2017.4</ele>
        <time>2024-08-10T13:24:34Z</time>
      </trkpt>
      <trkpt lat="45.00975" lon="6.37814">
        <ele>2017.6</ele>
        <time>2024-08-10T13:24:35Z</time>
      </trkpt>
      <trkpt lat="45.00975" lon="6.37814">
        <ele>2017.8</ele>
        <time>2024-08-10T13:24:36Z</time>
      </trkpt>
      <trkpt lat="45.00973" lon="6.37815">
        <ele>2018</ele>
        <time>2024-08-10T13:24:37Z</time>
      </trkpt>
      <trkpt lat="45.00973" lon="6.37815">
        <ele>2018</ele>
        <time>2024-08-10T13:24:38Z</time>
      </trkpt>
      <trkpt lat="45.00971" lon="6.37814">
        <ele>2018</ele>
        <time>2024-08-10T13:24:39Z</time>
      </trkpt>
      <trkpt lat="45.00971" lon="6.37814">
        <ele>2018.6</ele>
        <time>2024-08-10T13:24:40Z</time>
      </trkpt>
      <trkpt lat="45.00969" lon="6.37812">
        <ele>2018.6</ele>
        <time>2024-08-10T13:24:41Z</time>
      </trkpt>
      <trkpt lat="45.00969" lon="6.37812">
        <ele>2018.6</ele>
        <time>2024-08-10T13:24:42Z</time>
      </trkpt>
      <trkpt lat="45.00969" lon="6.37812">
        <ele>2018.6</ele>
        <time>2024-08-10T13:24:43Z</time>
      </trkpt>
      <trkpt lat="45.00967" lon="6.3781">
        <ele>2018.6</ele>
        <time>2024-08-10T13:24:44Z</time>
      </trkpt>
      <trkpt lat="45.00967" lon="6.3781">
        <ele>2018.6</ele>
        <time>2024-08-10T13:24:45Z</time>
      </trkpt>
      <trkpt lat="45.00965" lon="6.3781">
        <ele>2018.6</ele>
        <time>2024-08-10T13:24:46Z</time>
      </trkpt>
      <trkpt lat="45.00965" lon="6.3781">
        <ele>2018.6</ele>
        <time>2024-08-10T13:24:47Z</time>
      </trkpt>
      <trkpt lat="45.00963" lon="6.37809">
        <ele>2019</ele>
        <time>2024-08-10T13:24:48Z</time>
      </trkpt>
      <trkpt lat="45.00963" lon="6.37809">
        <ele>2019.2</ele>
        <time>2024-08-10T13:24:49Z</time>
      </trkpt>
      <trkpt lat="45.00961" lon="6.3781">
        <ele>2019.4</ele>
        <time>2024-08-10T13:24:50Z</time>
      </trkpt>
      <trkpt lat="45.00961" lon="6.3781">
        <ele>2019.6</ele>
        <time>2024-08-10T13:24:51Z</time>
      </trkpt>
      <trkpt lat="45.00959" lon="6.37811">
        <ele>2019.4</ele>
        <time>2024-08-10T13:24:52Z</time>
      </trkpt>
      <trkpt lat="45.00959" lon="6.37811">
        <ele>2019.6</ele>
        <time>2024-08-10T13:24:53Z</time>
      </trkpt>
      <trkpt lat="45.00957" lon="6.37812">
        <ele>2020</ele>
        <time>2024-08-10T13:24:54Z</time>
      </trkpt>
      <trkpt lat="45.00957" lon="6.37812">
        <ele>2020.2</ele>
        <time>2024-08-10T13:24:55Z</time>
      </trkpt>
      <trkpt lat="45.00955" lon="6.37813">
        <ele>2020.4</ele>
        <time>2024-08-10T13:24:56Z</time>
      </trkpt>
      <trkpt lat="45.00955" lon="6.37813">
        <ele>2020.6</ele>
        <time>2024-08-10T13:24:57Z</time>
      </trkpt>
      <trkpt lat="45.00955" lon="6.37813">
        <ele>2020.6</ele>
        <time>2024-08-10T13:24:58Z</time>
      </trkpt>
      <trkpt lat="45.00953" lon="6.37813">
        <ele>2020.6</ele>
        <time>2024-08-10T13:24:59Z</time>
      </trkpt>
      <trkpt lat="45.00953" lon="6.37813">
        <ele>2021</ele>
        <time>2024-08-10T13:25:00Z</time>
      </trkpt>
      <trkpt lat="45.00951" lon="6.37813">
        <ele>2021</ele>
        <time>2024-08-10T13:25:01Z</time>
      </trkpt>
      <trkpt lat="45.00951" lon="6.37813">
        <ele>2021.2</ele>
        <time>2024-08-10T13:25:02Z</time>
      </trkpt>
      <trkpt lat="45.00951" lon="6.37813">
        <ele>2022</ele>
        <time>2024-08-10T13:25:03Z</time>
      </trkpt>
      <trkpt lat="45.00949" lon="6.37812">
        <ele>2022</ele>
        <time>2024-08-10T13:25:04Z</time>
      </trkpt>
      <trkpt lat="45.00949" lon="6.37812">
        <ele>2022</ele>
        <time>2024-08-10T13:25:05Z</time>
      </trkpt>
      <trkpt lat="45.00947" lon="6.37813">
        <ele>2021.8</ele>
        <time>2024-08-10T13:25:06Z</time>
      </trkpt>
      <trkpt lat="45.00947" lon="6.37813">
        <ele>2021.8</ele>
        <time>2024-08-10T13:25:07Z</time>
      </trkpt>
      <trkpt lat="45.00947" lon="6.37813">
        <ele>2021.8</ele>
        <time>2024-08-10T13:25:08Z</time>
      </trkpt>
      <trkpt lat="45.00944" lon="6.37812">
        <ele>2022</ele>
        <time>2024-08-10T13:25:09Z</time>
      </trkpt>
      <trkpt lat="45.00944" lon="6.37812">
        <ele>2022.2</ele>
        <time>2024-08-10T13:25:10Z</time>
      </trkpt>
      <trkpt lat="45.00942" lon="6.37812">
        <ele>2022.2</ele>
        <time>2024-08-10T13:25:11Z</time>
      </trkpt>
      <trkpt lat="45.00942" lon="6.37812">
        <ele>2022.6</ele>
        <time>2024-08-10T13:25:12Z</time>
      </trkpt>
      <trkpt lat="45.00942" lon="6.37812">
        <ele>2022.8</ele>
        <time>2024-08-10T13:25:13Z</time>
      </trkpt>
      <trkpt lat="45.00939" lon="6.37812">
        <ele>2023.2</ele>
        <time>2024-08-10T13:25:14Z</time>
      </trkpt>
      <trkpt lat="45.00939" lon="6.37812">
        <ele>2023.2</ele>
        <time>2024-08-10T13:25:15Z</time>
      </trkpt>
      <trkpt lat="45.00937" lon="6.37812">
        <ele>2023</ele>
        <time>2024-08-10T13:25:16Z</time>
      </trkpt>
      <trkpt lat="45.00937" lon="6.37812">
        <ele>2023</ele>
        <time>2024-08-10T13:25:17Z</time>
      </trkpt>
      <trkpt lat="45.00935" lon="6.37811">
        <ele>2023.2</ele>
        <time>2024-08-10T13:25:18Z</time>
      </trkpt>
      <trkpt lat="45.00935" lon="6.37811">
        <ele>2023.4</ele>
        <time>2024-08-10T13:25:19Z</time>
      </trkpt>
      <trkpt lat="45.00933" lon="6.37811">
        <ele>2023.6</ele>
        <time>2024-08-10T13:25:20Z</time>
      </trkpt>
      <trkpt lat="45.00933" lon="6.37811">
        <ele>2023.6</ele>
        <time>2024-08-10T13:25:21Z</time>
      </trkpt>
      <trkpt lat="45.00933" lon="6.37811">
        <ele>2024</ele>
        <time>2024-08-10T13:25:22Z</time>
      </trkpt>
      <trkpt lat="45.00931" lon="6.37812">
        <ele>2024.2</ele>
        <time>2024-08-10T13:25:23Z</time>
      </trkpt>
      <trkpt lat="45.00931" lon="6.37812">
        <ele>2024.2</ele>
        <time>2024-08-10T13:25:24Z</time>
      </trkpt>
      <trkpt lat="45.00929" lon="6.37812">
        <ele>2024.4</ele>
        <time>2024-08-10T13:25:25Z</time>
      </trkpt>
      <trkpt lat="45.00929" lon="6.37812">
        <ele>2024.2</ele>
        <time>2024-08-10T13:25:26Z</time>
      </trkpt>
      <trkpt lat="45.00927" lon="6.37814">
        <ele>2024.2</ele>
        <time>2024-08-10T13:25:27Z</time>
      </trkpt>
      <trkpt lat="45.00927" lon="6.37814">
        <ele>2024.6</ele>
        <time>2024-08-10T13:25:28Z</time>
      </trkpt>
      <trkpt lat="45.00925" lon="6.37815">
        <ele>2024.6</ele>
        <time>2024-08-10T13:25:29Z</time>
      </trkpt>
      <trkpt lat="45.00925" lon="6.37815">
        <ele>2024.6</ele>
        <time>2024-08-10T13:25:30Z</time>
      </trkpt>
      <trkpt lat="45.00924" lon="6.37817">
        <ele>2024.6</ele>
        <time>2024-08-10T13:25:31Z</time>
      </trkpt>
      <trkpt lat="45.00924" lon="6.37817">
        <ele>2024.8</ele>
        <time>2024-08-10T13:25:32Z</time>
      </trkpt>
      <trkpt lat="45.00924" lon="6.37817">
        <ele>2025.2</ele>
        <time>2024-08-10T13:25:33Z</time>
      </trkpt>
      <trkpt lat="45.00921" lon="6.37818">
        <ele>2025.2</ele>
        <time>2024-08-10T13:25:34Z</time>
      </trkpt>
      <trkpt lat="45.00921" lon="6.37818">
        <ele>2025.6</ele>
        <time>2024-08-10T13:25:35Z</time>
      </trkpt>
      <trkpt lat="45.00919" lon="6.37819">
        <ele>2026</ele>
        <time>2024-08-10T13:25:36Z</time>
      </trkpt>
      <trkpt lat="45.00919" lon="6.37819">
        <ele>2026</ele>
        <time>2024-08-10T13:25:37Z</time>
      </trkpt>
      <trkpt lat="45.00917" lon="6.37821">
        <ele>2026.2</ele>
        <time>2024-08-10T13:25:38Z</time>
      </trkpt>
      <trkpt lat="45.00917" lon="6.37821">
        <ele>2026.4</ele>
        <time>2024-08-10T13:25:39Z</time>
      </trkpt>
      <trkpt lat="45.00916" lon="6.37821">
        <ele>2026.4</ele>
        <time>2024-08-10T13:25:40Z</time>
      </trkpt>
      <trkpt lat="45.00916" lon="6.37821">
        <ele>2026.4</ele>
        <time>2024-08-10T13:25:41Z</time>
      </trkpt>
      <trkpt lat="45.00916" lon="6.37821">
        <ele>2026.6</ele>
        <time>2024-08-10T13:25:42Z</time>
      </trkpt>
      <trkpt lat="45.00913" lon="6.37822">
        <ele>2026.8</ele>
        <time>2024-08-10T13:25:43Z</time>
      </trkpt>
      <trkpt lat="45.00913" lon="6.37822">
        <ele>2027.2</ele>
        <time>2024-08-10T13:25:44Z</time>
      </trkpt>
      <trkpt lat="45.00913" lon="6.37822">
        <ele>2027.4</ele>
        <time>2024-08-10T13:25:45Z</time>
      </trkpt>
      <trkpt lat="45.00911" lon="6.37824">
        <ele>2027.4</ele>
        <time>2024-08-10T13:25:46Z</time>
      </trkpt>
      <trkpt lat="45.00911" lon="6.37824">
        <ele>2027.4</ele>
        <time>2024-08-10T13:25:47Z</time>
      </trkpt>
      <trkpt lat="45.00909" lon="6.37825">
        <ele>2027.6</ele>
        <time>2024-08-10T13:25:48Z</time>
      </trkpt>
      <trkpt lat="45.00909" lon="6.37825">
        <ele>2027.6</ele>
        <time>2024-08-10T13:25:49Z</time>
      </trkpt>
      <trkpt lat="45.00909" lon="6.37825">
        <ele>2028</ele>
        <time>2024-08-10T13:25:50Z</time>
      </trkpt>
      <trkpt lat="45.00907" lon="6.37827">
        <ele>2028.2</ele>
        <time>2024-08-10T13:25:51Z</time>
      </trkpt>
      <trkpt lat="45.00907" lon="6.37827">
        <ele>2028.4</ele>
        <time>2024-08-10T13:25:52Z</time>
      </trkpt>
      <trkpt lat="45.00907" lon="6.37827">
        <ele>2028.4</ele>
        <time>2024-08-10T13:25:53Z</time>
      </trkpt>
      <trkpt lat="45.00905" lon="6.37829">
        <ele>2028.6</ele>
        <time>2024-08-10T13:25:54Z</time>
      </trkpt>
      <trkpt lat="45.00905" lon="6.37829">
        <ele>2029</ele>
        <time>2024-08-10T13:25:55Z</time>
      </trkpt>
      <trkpt lat="45.00903" lon="6.37831">
        <ele>2029.2</ele>
        <time>2024-08-10T13:25:56Z</time>
      </trkpt>
      <trkpt lat="45.00903" lon="6.37831">
        <ele>2029.2</ele>
        <time>2024-08-10T13:25:57Z</time>
      </trkpt>
      <trkpt lat="45.00903" lon="6.37831">
        <ele>2029.2</ele>
        <time>2024-08-10T13:25:58Z</time>
      </trkpt>
      <trkpt lat="45.00901" lon="6.37832">
        <ele>2029.2</ele>
        <time>2024-08-10T13:25:59Z</time>
      </trkpt>
      <trkpt lat="45.00901" lon="6.37832">
        <ele>2029.6</ele>
        <time>2024-08-10T13:26:00Z</time>
      </trkpt>
      <trkpt lat="45.009" lon="6.37833">
        <ele>2030.2</ele>
        <time>2024-08-10T13:26:01Z</time>
      </trkpt>
      <trkpt lat="45.009" lon="6.37833">
        <ele>2030.2</ele>
        <time>2024-08-10T13:26:02Z</time>
      </trkpt>
      <trkpt lat="45.009" lon="6.37833">
        <ele>2030.2</ele>
        <time>2024-08-10T13:26:03Z</time>
      </trkpt>
      <trkpt lat="45.00897" lon="6.37835">
        <ele>2030.2</ele>
        <time>2024-08-10T13:26:04Z</time>
      </trkpt>
      <trkpt lat="45.00897" lon="6.37835">
        <ele>2030.4</ele>
        <time>2024-08-10T13:26:05Z</time>
      </trkpt>
      <trkpt lat="45.00897" lon="6.37835">
        <ele>2030.4</ele>
        <time>2024-08-10T13:26:06Z</time>
      </trkpt>
      <trkpt lat="45.00895" lon="6.37836">
        <ele>2030.4</ele>
        <time>2024-08-10T13:26:07Z</time>
      </trkpt>
      <trkpt lat="45.00895" lon="6.37836">
        <ele>2030.4</ele>
        <time>2024-08-10T13:26:08Z</time>
      </trkpt>
      <trkpt lat="45.00893" lon="6.37836">
        <ele>2030.6</ele>
        <time>2024-08-10T13:26:09Z</time>
      </trkpt>
      <trkpt lat="45.00893" lon="6.37836">
        <ele>2030.6</ele>
        <time>2024-08-10T13:26:10Z</time>
      </trkpt>
      <trkpt lat="45.00891" lon="6.37836">
        <ele>2030.6</ele>
        <time>2024-08-10T13:26:11Z</time>
      </trkpt>
      <trkpt lat="45.00891" lon="6.37836">
        <ele>2030.6</ele>
        <time>2024-08-10T13:26:12Z</time>
      </trkpt>
      <trkpt lat="45.00889" lon="6.37838">
        <ele>2030.8</ele>
        <time>2024-08-10T13:26:13Z</time>
      </trkpt>
      <trkpt lat="45.00889" lon="6.37838">
        <ele>2030.8</ele>
        <time>2024-08-10T13:26:14Z</time>
      </trkpt>
      <trkpt lat="45.00888" lon="6.37839">
        <ele>2031</ele>
        <time>2024-08-10T13:26:15Z</time>
      </trkpt>
      <trkpt lat="45.00888" lon="6.37839">
        <ele>2031</ele>
        <time>2024-08-10T13:26:16Z</time>
      </trkpt>
      <trkpt lat="45.00885" lon="6.3784">
        <ele>2031.2</ele>
        <time>2024-08-10T13:26:17Z</time>
      </trkpt>
      <trkpt lat="45.00885" lon="6.3784">
        <ele>2031.4</ele>
        <time>2024-08-10T13:26:18Z</time>
      </trkpt>
      <trkpt lat="45.00884" lon="6.37841">
        <ele>2031.4</ele>
        <time>2024-08-10T13:26:19Z</time>
      </trkpt>
      <trkpt lat="45.00884" lon="6.37841">
        <ele>2031.4</ele>
        <time>2024-08-10T13:26:20Z</time>
      </trkpt>
      <trkpt lat="45.00884" lon="6.37841">
        <ele>2031.6</ele>
        <time>2024-08-10T13:26:21Z</time>
      </trkpt>
      <trkpt lat="45.00884" lon="6.37841">
        <ele>2031.8</ele>
        <time>2024-08-10T13:26:22Z</time>
      </trkpt>
      <trkpt lat="45.00881" lon="6.37842">
        <ele>2031.8</ele>
        <time>2024-08-10T13:26:23Z</time>
      </trkpt>
      <trkpt lat="45.00881" lon="6.37842">
        <ele>2031.8</ele>
        <time>2024-08-10T13:26:24Z</time>
      </trkpt>
      <trkpt lat="45.00881" lon="6.37842">
        <ele>2032</ele>
        <time>2024-08-10T13:26:25Z</time>
      </trkpt>
      <trkpt lat="45.0088" lon="6.37845">
        <ele>2032</ele>
        <time>2024-08-10T13:26:26Z</time>
      </trkpt>
      <trkpt lat="45.0088" lon="6.37845">
        <ele>2032.4</ele>
        <time>2024-08-10T13:26:27Z</time>
      </trkpt>
      <trkpt lat="45.00878" lon="6.37847">
        <ele>2032.6</ele>
        <time>2024-08-10T13:26:28Z</time>
      </trkpt>
      <trkpt lat="45.00878" lon="6.37847">
        <ele>2032.6</ele>
        <time>2024-08-10T13:26:29Z</time>
      </trkpt>
      <trkpt lat="45.00876" lon="6.37848">
        <ele>2032.6</ele>
        <time>2024-08-10T13:26:30Z</time>
      </trkpt>
      <trkpt lat="45.00876" lon="6.37848">
        <ele>2032.6</ele>
        <time>2024-08-10T13:26:31Z</time>
      </trkpt>
      <trkpt lat="45.00874" lon="6.3785">
        <ele>2032.8</ele>
        <time>2024-08-10T13:26:32Z</time>
      </trkpt>
      <trkpt lat="45.00874" lon="6.3785">
        <ele>2033.2</ele>
        <time>2024-08-10T13:26:33Z</time>
      </trkpt>
      <trkpt lat="45.00874" lon="6.3785">
        <ele>2033.4</ele>
        <time>2024-08-10T13:26:34Z</time>
      </trkpt>
      <trkpt lat="45.00872" lon="6.37852">
        <ele>2033.4</ele>
        <time>2024-08-10T13:26:35Z</time>
      </trkpt>
      <trkpt lat="45.00872" lon="6.37852">
        <ele>2033.4</ele>
        <time>2024-08-10T13:26:36Z</time>
      </trkpt>
      <trkpt lat="45.00872" lon="6.37852">
        <ele>2034</ele>
        <time>2024-08-10T13:26:37Z</time>
      </trkpt>
      <trkpt lat="45.0087" lon="6.37853">
        <ele>2034</ele>
        <time>2024-08-10T13:26:38Z</time>
      </trkpt>
      <trkpt lat="45.0087" lon="6.37853">
        <ele>2034</ele>
        <time>2024-08-10T13:26:39Z</time>
      </trkpt>
      <trkpt lat="45.0087" lon="6.37853">
        <ele>2034.2</ele>
        <time>2024-08-10T13:26:40Z</time>
      </trkpt>
      <trkpt lat="45.00868" lon="6.37854">
        <ele>2034.4</ele>
        <time>2024-08-10T13:26:41Z</time>
      </trkpt>
      <trkpt lat="45.00868" lon="6.37854">
        <ele>2034.8</ele>
        <time>2024-08-10T13:26:42Z</time>
      </trkpt>
      <trkpt lat="45.00868" lon="6.37854">
        <ele>2034.8</ele>
        <time>2024-08-10T13:26:43Z</time>
      </trkpt>
      <trkpt lat="45.00865" lon="6.37855">
        <ele>2035</ele>
        <time>2024-08-10T13:26:44Z</time>
      </trkpt>
      <trkpt lat="45.00865" lon="6.37855">
        <ele>2035.2</ele>
        <time>2024-08-10T13:26:45Z</time>
      </trkpt>
      <trkpt lat="45.00864" lon="6.37857">
        <ele>2035.2</ele>
        <time>2024-08-10T13:26:46Z</time>
      </trkpt>
      <trkpt lat="45.00864" lon="6.37857">
        <ele>2035.4</ele>
        <time>2024-08-10T13:26:47Z</time>
      </trkpt>
      <trkpt lat="45.00862" lon="6.37858">
        <ele>2035.4</ele>
        <time>2024-08-10T13:26:48Z</time>
      </trkpt>
      <trkpt lat="45.00862" lon="6.37858">
        <ele>2035.6</ele>
        <time>2024-08-10T13:26:49Z</time>
      </trkpt>
      <trkpt lat="45.00862" lon="6.37858">
        <ele>2035.8</ele>
        <time>2024-08-10T13:26:50Z</time>
      </trkpt>
      <trkpt lat="45.0086" lon="6.3786">
        <ele>2035.8</ele>
        <time>2024-08-10T13:26:51Z</time>
      </trkpt>
      <trkpt lat="45.0086" lon="6.3786">
        <ele>2036</ele>
        <time>2024-08-10T13:26:52Z</time>
      </trkpt>
      <trkpt lat="45.00858" lon="6.37861">
        <ele>2036</ele>
        <time>2024-08-10T13:26:53Z</time>
      </trkpt>
      <trkpt lat="45.00858" lon="6.37861">
        <ele>2036.4</ele>
        <time>2024-08-10T13:26:54Z</time>
      </trkpt>
      <trkpt lat="45.00856" lon="6.37863">
        <ele>2036.4</ele>
        <time>2024-08-10T13:26:55Z</time>
      </trkpt>
      <trkpt lat="45.00856" lon="6.37863">
        <ele>2036.6</ele>
        <time>2024-08-10T13:26:56Z</time>
      </trkpt>
      <trkpt lat="45.00854" lon="6.37863">
        <ele>2036.8</ele>
        <time>2024-08-10T13:26:57Z</time>
      </trkpt>
      <trkpt lat="45.00854" lon="6.37863">
        <ele>2037</ele>
        <time>2024-08-10T13:26:58Z</time>
      </trkpt>
      <trkpt lat="45.00852" lon="6.37865">
        <ele>2037.4</ele>
        <time>2024-08-10T13:26:59Z</time>
      </trkpt>
      <trkpt lat="45.00852" lon="6.37865">
        <ele>2037.6</ele>
        <time>2024-08-10T13:27:00Z</time>
      </trkpt>
      <trkpt lat="45.00852" lon="6.37865">
        <ele>2037.8</ele>
        <time>2024-08-10T13:27:01Z</time>
      </trkpt>
      <trkpt lat="45.00852" lon="6.37865">
        <ele>2037.8</ele>
        <time>2024-08-10T13:27:02Z</time>
      </trkpt>
      <trkpt lat="45.00852" lon="6.37865">
        <ele>2037.8</ele>
        <time>2024-08-10T13:27:03Z</time>
      </trkpt>
      <trkpt lat="45.00852" lon="6.37865">
        <ele>2037.8</ele>
        <time>2024-08-10T13:27:04Z</time>
      </trkpt>
      <trkpt lat="45.00852" lon="6.37865">
        <ele>2038.2</ele>
        <time>2024-08-10T13:27:05Z</time>
      </trkpt>
      <trkpt lat="45.00852" lon="6.37865">
        <ele>2038.2</ele>
        <time>2024-08-10T13:27:06Z</time>
      </trkpt>
      <trkpt lat="45.00852" lon="6.37865">
        <ele>2038.4</ele>
        <time>2024-08-10T13:27:07Z</time>
      </trkpt>
      <trkpt lat="45.00852" lon="6.37865">
        <ele>2038.4</ele>
        <time>2024-08-10T13:27:08Z</time>
      </trkpt>
      <trkpt lat="45.00852" lon="6.37865">
        <ele>2038.4</ele>
        <time>2024-08-10T13:27:09Z</time>
      </trkpt>
      <trkpt lat="45.00852" lon="6.37865">
        <ele>2038.4</ele>
        <time>2024-08-10T13:27:10Z</time>
      </trkpt>
      <trkpt lat="45.00852" lon="6.37865">
        <ele>2038.6</ele>
        <time>2024-08-10T13:27:11Z</time>
      </trkpt>
      <trkpt lat="45.00852" lon="6.37865">
        <ele>2038.6</ele>
        <time>2024-08-10T13:27:12Z</time>
      </trkpt>
      <trkpt lat="45.00852" lon="6.37865">
        <ele>2038.6</ele>
        <time>2024-08-10T13:27:13Z</time>
      </trkpt>
      <trkpt lat="45.00852" lon="6.37865">
        <ele>2038.6</ele>
        <time>2024-08-10T13:27:14Z</time>
      </trkpt>
      <trkpt lat="45.00852" lon="6.37865">
        <ele>2038.4</ele>
        <time>2024-08-10T13:27:15Z</time>
      </trkpt>
      <trkpt lat="45.00852" lon="6.37865">
        <ele>2038.4</ele>
        <time>2024-08-10T13:27:16Z</time>
      </trkpt>
      <trkpt lat="45.00852" lon="6.37865">
        <ele>2038.8</ele>
        <time>2024-08-10T13:27:17Z</time>
      </trkpt>
      <trkpt lat="45.00851" lon="6.37867">
        <ele>2038.8</ele>
        <time>2024-08-10T13:27:18Z</time>
      </trkpt>
      <trkpt lat="45.00851" lon="6.37867">
        <ele>2038.6</ele>
        <time>2024-08-10T13:27:19Z</time>
      </trkpt>
      <trkpt lat="45.00848" lon="6.37869">
        <ele>2038.6</ele>
        <time>2024-08-10T13:27:20Z</time>
      </trkpt>
      <trkpt lat="45.00848" lon="6.37869">
        <ele>2038.6</ele>
        <time>2024-08-10T13:27:21Z</time>
      </trkpt>
      <trkpt lat="45.00845" lon="6.37871">
        <ele>2038.6</ele>
        <time>2024-08-10T13:27:22Z</time>
      </trkpt>
      <trkpt lat="45.00845" lon="6.37871">
        <ele>2038.8</ele>
        <time>2024-08-10T13:27:23Z</time>
      </trkpt>
      <trkpt lat="45.00843" lon="6.37872">
        <ele>2039</ele>
        <time>2024-08-10T13:27:24Z</time>
      </trkpt>
      <trkpt lat="45.00843" lon="6.37872">
        <ele>2039.2</ele>
        <time>2024-08-10T13:27:25Z</time>
      </trkpt>
      <trkpt lat="45.00841" lon="6.37873">
        <ele>2039.8</ele>
        <time>2024-08-10T13:27:26Z</time>
      </trkpt>
      <trkpt lat="45.00841" lon="6.37873">
        <ele>2039.8</ele>
        <time>2024-08-10T13:27:27Z</time>
      </trkpt>
      <trkpt lat="45.00841" lon="6.37873">
        <ele>2040</ele>
        <time>2024-08-10T13:27:28Z</time>
      </trkpt>
      <trkpt lat="45.00838" lon="6.37875">
        <ele>2040</ele>
        <time>2024-08-10T13:27:29Z</time>
      </trkpt>
      <trkpt lat="45.00838" lon="6.37875">
        <ele>2040.4</ele>
        <time>2024-08-10T13:27:30Z</time>
      </trkpt>
      <trkpt lat="45.00838" lon="6.37875">
        <ele>2040.4</ele>
        <time>2024-08-10T13:27:31Z</time>
      </trkpt>
      <trkpt lat="45.00837" lon="6.37877">
        <ele>2040.4</ele>
        <time>2024-08-10T13:27:32Z</time>
      </trkpt>
      <trkpt lat="45.00837" lon="6.37877">
        <ele>2040.6</ele>
        <time>2024-08-10T13:27:33Z</time>
      </trkpt>
      <trkpt lat="45.00834" lon="6.37878">
        <ele>2040.6</ele>
        <time>2024-08-10T13:27:34Z</time>
      </trkpt>
      <trkpt lat="45.00834" lon="6.37878">
        <ele>2040.8</ele>
        <time>2024-08-10T13:27:35Z</time>
      </trkpt>
      <trkpt lat="45.00832" lon="6.37878">
        <ele>2040.8</ele>
        <time>2024-08-10T13:27:36Z</time>
      </trkpt>
      <trkpt lat="45.00832" lon="6.37878">
        <ele>2041.2</ele>
        <time>2024-08-10T13:27:37Z</time>
      </trkpt>
      <trkpt lat="45.0083" lon="6.37879">
        <ele>2041.6</ele>
        <time>2024-08-10T13:27:38Z</time>
      </trkpt>
      <trkpt lat="45.0083" lon="6.37879">
        <ele>2041.8</ele>
        <time>2024-08-10T13:27:39Z</time>
      </trkpt>
      <trkpt lat="45.00828" lon="6.37881">
        <ele>2042</ele>
        <time>2024-08-10T13:27:40Z</time>
      </trkpt>
      <trkpt lat="45.00828" lon="6.37881">
        <ele>2042.2</ele>
        <time>2024-08-10T13:27:41Z</time>
      </trkpt>
      <trkpt lat="45.00826" lon="6.37882">
        <ele>2042.4</ele>
        <time>2024-08-10T13:27:42Z</time>
      </trkpt>
      <trkpt lat="45.00826" lon="6.37882">
        <ele>2042.4</ele>
        <time>2024-08-10T13:27:43Z</time>
      </trkpt>
      <trkpt lat="45.00825" lon="6.37884">
        <ele>2042.4</ele>
        <time>2024-08-10T13:27:44Z</time>
      </trkpt>
      <trkpt lat="45.00825" lon="6.37884">
        <ele>2042.4</ele>
        <time>2024-08-10T13:27:45Z</time>
      </trkpt>
      <trkpt lat="45.00823" lon="6.37886">
        <ele>2042.6</ele>
        <time>2024-08-10T13:27:46Z</time>
      </trkpt>
      <trkpt lat="45.00823" lon="6.37886">
        <ele>2042.6</ele>
        <time>2024-08-10T13:27:47Z</time>
      </trkpt>
      <trkpt lat="45.00823" lon="6.37886">
        <ele>2042.8</ele>
        <time>2024-08-10T13:27:48Z</time>
      </trkpt>
      <trkpt lat="45.0082" lon="6.37887">
        <ele>2042.8</ele>
        <time>2024-08-10T13:27:49Z</time>
      </trkpt>
      <trkpt lat="45.0082" lon="6.37887">
        <ele>2042.8</ele>
        <time>2024-08-10T13:27:50Z</time>
      </trkpt>
      <trkpt lat="45.00818" lon="6.37888">
        <ele>2043.2</ele>
        <time>2024-08-10T13:27:51Z</time>
      </trkpt>
      <trkpt lat="45.00818" lon="6.37888">
        <ele>2043.2</ele>
        <time>2024-08-10T13:27:52Z</time>
      </trkpt>
      <trkpt lat="45.00816" lon="6.3789">
        <ele>2043.4</ele>
        <time>2024-08-10T13:27:53Z</time>
      </trkpt>
      <trkpt lat="45.00816" lon="6.3789">
        <ele>2043.6</ele>
        <time>2024-08-10T13:27:54Z</time>
      </trkpt>
      <trkpt lat="45.00814" lon="6.37891">
        <ele>2043.8</ele>
        <time>2024-08-10T13:27:55Z</time>
      </trkpt>
      <trkpt lat="45.00814" lon="6.37891">
        <ele>2044.2</ele>
        <time>2024-08-10T13:27:56Z</time>
      </trkpt>
      <trkpt lat="45.00813" lon="6.37893">
        <ele>2044.2</ele>
        <time>2024-08-10T13:27:57Z</time>
      </trkpt>
      <trkpt lat="45.00813" lon="6.37893">
        <ele>2044.2</ele>
        <time>2024-08-10T13:27:58Z</time>
      </trkpt>
      <trkpt lat="45.00811" lon="6.37894">
        <ele>2044.2</ele>
        <time>2024-08-10T13:27:59Z</time>
      </trkpt>
      <trkpt lat="45.00811" lon="6.37894">
        <ele>2044.4</ele>
        <time>2024-08-10T13:28:00Z</time>
      </trkpt>
      <trkpt lat="45.00809" lon="6.37895">
        <ele>2044.8</ele>
        <time>2024-08-10T13:28:01Z</time>
      </trkpt>
      <trkpt lat="45.00809" lon="6.37895">
        <ele>2045</ele>
        <time>2024-08-10T13:28:02Z</time>
      </trkpt>
      <trkpt lat="45.00807" lon="6.37897">
        <ele>2045.2</ele>
        <time>2024-08-10T13:28:03Z</time>
      </trkpt>
      <trkpt lat="45.00807" lon="6.37897">
        <ele>2045.2</ele>
        <time>2024-08-10T13:28:04Z</time>
      </trkpt>
      <trkpt lat="45.00807" lon="6.37897">
        <ele>2045.4</ele>
        <time>2024-08-10T13:28:05Z</time>
      </trkpt>
      <trkpt lat="45.00804" lon="6.37899">
        <ele>2045.4</ele>
        <time>2024-08-10T13:28:06Z</time>
      </trkpt>
      <trkpt lat="45.00804" lon="6.37899">
        <ele>2045.4</ele>
        <time>2024-08-10T13:28:07Z</time>
      </trkpt>
      <trkpt lat="45.00802" lon="6.379">
        <ele>2045.6</ele>
        <time>2024-08-10T13:28:08Z</time>
      </trkpt>
      <trkpt lat="45.00802" lon="6.379">
        <ele>2045.6</ele>
        <time>2024-08-10T13:28:09Z</time>
      </trkpt>
      <trkpt lat="45.008" lon="6.37901">
        <ele>2045.6</ele>
        <time>2024-08-10T13:28:10Z</time>
      </trkpt>
      <trkpt lat="45.008" lon="6.37901">
        <ele>2045.6</ele>
        <time>2024-08-10T13:28:11Z</time>
      </trkpt>
      <trkpt lat="45.00799" lon="6.37904">
        <ele>2045.8</ele>
        <time>2024-08-10T13:28:12Z</time>
      </trkpt>
      <trkpt lat="45.00799" lon="6.37904">
        <ele>2046.2</ele>
        <time>2024-08-10T13:28:13Z</time>
      </trkpt>
      <trkpt lat="45.00797" lon="6.37905">
        <ele>2046.2</ele>
        <time>2024-08-10T13:28:14Z</time>
      </trkpt>
      <trkpt lat="45.00797" lon="6.37905">
        <ele>2046</ele>
        <time>2024-08-10T13:28:15Z</time>
      </trkpt>
      <trkpt lat="45.00797" lon="6.37905">
        <ele>2046</ele>
        <time>2024-08-10T13:28:16Z</time>
      </trkpt>
      <trkpt lat="45.00795" lon="6.37907">
        <ele>2046.6</ele>
        <time>2024-08-10T13:28:17Z</time>
      </trkpt>
      <trkpt lat="45.00795" lon="6.37907">
        <ele>2047</ele>
        <time>2024-08-10T13:28:18Z</time>
      </trkpt>
      <trkpt lat="45.00793" lon="6.37907">
        <ele>2047</ele>
        <time>2024-08-10T13:28:19Z</time>
      </trkpt>
      <trkpt lat="45.00793" lon="6.37907">
        <ele>2047.4</ele>
        <time>2024-08-10T13:28:20Z</time>
      </trkpt>
      <trkpt lat="45.00791" lon="6.37909">
        <ele>2047.6</ele>
        <time>2024-08-10T13:28:21Z</time>
      </trkpt>
      <trkpt lat="45.00791" lon="6.37909">
        <ele>2047.8</ele>
        <time>2024-08-10T13:28:22Z</time>
      </trkpt>
      <trkpt lat="45.00791" lon="6.37909">
        <ele>2048</ele>
        <time>2024-08-10T13:28:23Z</time>
      </trkpt>
      <trkpt lat="45.00789" lon="6.3791">
        <ele>2048</ele>
        <time>2024-08-10T13:28:24Z</time>
      </trkpt>
      <trkpt lat="45.00789" lon="6.3791">
        <ele>2048.2</ele>
        <time>2024-08-10T13:28:25Z</time>
      </trkpt>
      <trkpt lat="45.00787" lon="6.37911">
        <ele>2048.4</ele>
        <time>2024-08-10T13:28:26Z</time>
      </trkpt>
      <trkpt lat="45.00787" lon="6.37911">
        <ele>2048.8</ele>
        <time>2024-08-10T13:28:27Z</time>
      </trkpt>
      <trkpt lat="45.00785" lon="6.37912">
        <ele>2048.8</ele>
        <time>2024-08-10T13:28:28Z</time>
      </trkpt>
      <trkpt lat="45.00785" lon="6.37912">
        <ele>2048.8</ele>
        <time>2024-08-10T13:28:29Z</time>
      </trkpt>
      <trkpt lat="45.00783" lon="6.37914">
        <ele>2048.6</ele>
        <time>2024-08-10T13:28:30Z</time>
      </trkpt>
      <trkpt lat="45.00783" lon="6.37914">
        <ele>2048.6</ele>
        <time>2024-08-10T13:28:31Z</time>
      </trkpt>
      <trkpt lat="45.00781" lon="6.37915">
        <ele>2048.8</ele>
        <time>2024-08-10T13:28:32Z</time>
      </trkpt>
      <trkpt lat="45.00781" lon="6.37915">
        <ele>2049</ele>
        <time>2024-08-10T13:28:33Z</time>
      </trkpt>
      <trkpt lat="45.00779" lon="6.37917">
        <ele>2049</ele>
        <time>2024-08-10T13:28:34Z</time>
      </trkpt>
      <trkpt lat="45.00779" lon="6.37917">
        <ele>2049</ele>
        <time>2024-08-10T13:28:35Z</time>
      </trkpt>
      <trkpt lat="45.00778" lon="6.3792">
        <ele>2049.4</ele>
        <time>2024-08-10T13:28:36Z</time>
      </trkpt>
      <trkpt lat="45.00778" lon="6.3792">
        <ele>2049.4</ele>
        <time>2024-08-10T13:28:37Z</time>
      </trkpt>
      <trkpt lat="45.00776" lon="6.37921">
        <ele>2049.4</ele>
        <time>2024-08-10T13:28:38Z</time>
      </trkpt>
      <trkpt lat="45.00776" lon="6.37921">
        <ele>2049.8</ele>
        <time>2024-08-10T13:28:39Z</time>
      </trkpt>
      <trkpt lat="45.00776" lon="6.37921">
        <ele>2050.2</ele>
        <time>2024-08-10T13:28:40Z</time>
      </trkpt>
      <trkpt lat="45.00774" lon="6.37922">
        <ele>2050.2</ele>
        <time>2024-08-10T13:28:41Z</time>
      </trkpt>
      <trkpt lat="45.00774" lon="6.37922">
        <ele>2050.2</ele>
        <time>2024-08-10T13:28:42Z</time>
      </trkpt>
      <trkpt lat="45.00774" lon="6.37922">
        <ele>2050.2</ele>
        <time>2024-08-10T13:28:43Z</time>
      </trkpt>
      <trkpt lat="45.00774" lon="6.37922">
        <ele>2050.6</ele>
        <time>2024-08-10T13:28:44Z</time>
      </trkpt>
      <trkpt lat="45.00772" lon="6.37924">
        <ele>2050.8</ele>
        <time>2024-08-10T13:28:45Z</time>
      </trkpt>
      <trkpt lat="45.00772" lon="6.37924">
        <ele>2050.8</ele>
        <time>2024-08-10T13:28:46Z</time>
      </trkpt>
      <trkpt lat="45.0077" lon="6.37926">
        <ele>2050.4</ele>
        <time>2024-08-10T13:28:47Z</time>
      </trkpt>
      <trkpt lat="45.0077" lon="6.37926">
        <ele>2050.4</ele>
        <time>2024-08-10T13:28:48Z</time>
      </trkpt>
      <trkpt lat="45.00769" lon="6.37927">
        <ele>2050.8</ele>
        <time>2024-08-10T13:28:49Z</time>
      </trkpt>
      <trkpt lat="45.00769" lon="6.37927">
        <ele>2051</ele>
        <time>2024-08-10T13:28:50Z</time>
      </trkpt>
      <trkpt lat="45.00767" lon="6.37928">
        <ele>2051.2</ele>
        <time>2024-08-10T13:28:51Z</time>
      </trkpt>
      <trkpt lat="45.00767" lon="6.37928">
        <ele>2051.4</ele>
        <time>2024-08-10T13:28:52Z</time>
      </trkpt>
      <trkpt lat="45.00765" lon="6.37929">
        <ele>2051.6</ele>
        <time>2024-08-10T13:28:53Z</time>
      </trkpt>
      <trkpt lat="45.00765" lon="6.37929">
        <ele>2051.6</ele>
        <time>2024-08-10T13:28:54Z</time>
      </trkpt>
      <trkpt lat="45.00763" lon="6.37931">
        <ele>2051.8</ele>
        <time>2024-08-10T13:28:55Z</time>
      </trkpt>
      <trkpt lat="45.00763" lon="6.37931">
        <ele>2052</ele>
        <time>2024-08-10T13:28:56Z</time>
      </trkpt>
      <trkpt lat="45.00761" lon="6.37933">
        <ele>2052</ele>
        <time>2024-08-10T13:28:57Z</time>
      </trkpt>
      <trkpt lat="45.00761" lon="6.37933">
        <ele>2052.4</ele>
        <time>2024-08-10T13:28:58Z</time>
      </trkpt>
      <trkpt lat="45.00758" lon="6.37935">
        <ele>2052.6</ele>
        <time>2024-08-10T13:28:59Z</time>
      </trkpt>
      <trkpt lat="45.00758" lon="6.37935">
        <ele>2052.8</ele>
        <time>2024-08-10T13:29:00Z</time>
      </trkpt>
      <trkpt lat="45.00757" lon="6.37937">
        <ele>2052.8</ele>
        <time>2024-08-10T13:29:01Z</time>
      </trkpt>
      <trkpt lat="45.00757" lon="6.37937">
        <ele>2052.4</ele>
        <time>2024-08-10T13:29:02Z</time>
      </trkpt>
      <trkpt lat="45.00757" lon="6.37937">
        <ele>2052.4</ele>
        <time>2024-08-10T13:29:03Z</time>
      </trkpt>
      <trkpt lat="45.00755" lon="6.37938">
        <ele>2052.4</ele>
        <time>2024-08-10T13:29:04Z</time>
      </trkpt>
      <trkpt lat="45.00755" lon="6.37938">
        <ele>2052.4</ele>
        <time>2024-08-10T13:29:05Z</time>
      </trkpt>
      <trkpt lat="45.00753" lon="6.3794">
        <ele>2052.6</ele>
        <time>2024-08-10T13:29:06Z</time>
      </trkpt>
      <trkpt lat="45.00753" lon="6.3794">
        <ele>2052.6</ele>
        <time>2024-08-10T13:29:07Z</time>
      </trkpt>
      <trkpt lat="45.0075" lon="6.37942">
        <ele>2052.6</ele>
        <time>2024-08-10T13:29:08Z</time>
      </trkpt>
      <trkpt lat="45.0075" lon="6.37942">
        <ele>2052.6</ele>
        <time>2024-08-10T13:29:09Z</time>
      </trkpt>
      <trkpt lat="45.00749" lon="6.37943">
        <ele>2053</ele>
        <time>2024-08-10T13:29:10Z</time>
      </trkpt>
      <trkpt lat="45.00749" lon="6.37943">
        <ele>2053</ele>
        <time>2024-08-10T13:29:11Z</time>
      </trkpt>
      <trkpt lat="45.00747" lon="6.37945">
        <ele>2052.8</ele>
        <time>2024-08-10T13:29:12Z</time>
      </trkpt>
      <trkpt lat="45.00747" lon="6.37945">
        <ele>2052.8</ele>
        <time>2024-08-10T13:29:13Z</time>
      </trkpt>
      <trkpt lat="45.00745" lon="6.37947">
        <ele>2052.8</ele>
        <time>2024-08-10T13:29:14Z</time>
      </trkpt>
      <trkpt lat="45.00745" lon="6.37947">
        <ele>2053</ele>
        <time>2024-08-10T13:29:15Z</time>
      </trkpt>
      <trkpt lat="45.00743" lon="6.37948">
        <ele>2053.2</ele>
        <time>2024-08-10T13:29:16Z</time>
      </trkpt>
      <trkpt lat="45.00743" lon="6.37948">
        <ele>2053.6</ele>
        <time>2024-08-10T13:29:17Z</time>
      </trkpt>
      <trkpt lat="45.00741" lon="6.3795">
        <ele>2053.8</ele>
        <time>2024-08-10T13:29:18Z</time>
      </trkpt>
      <trkpt lat="45.00741" lon="6.3795">
        <ele>2053.8</ele>
        <time>2024-08-10T13:29:19Z</time>
      </trkpt>
      <trkpt lat="45.00739" lon="6.37951">
        <ele>2054</ele>
        <time>2024-08-10T13:29:20Z</time>
      </trkpt>
      <trkpt lat="45.00739" lon="6.37951">
        <ele>2054</ele>
        <time>2024-08-10T13:29:21Z</time>
      </trkpt>
      <trkpt lat="45.00737" lon="6.37952">
        <ele>2054.2</ele>
        <time>2024-08-10T13:29:22Z</time>
      </trkpt>
      <trkpt lat="45.00737" lon="6.37952">
        <ele>2054.2</ele>
        <time>2024-08-10T13:29:23Z</time>
      </trkpt>
      <trkpt lat="45.00735" lon="6.37953">
        <ele>2054.4</ele>
        <time>2024-08-10T13:29:24Z</time>
      </trkpt>
      <trkpt lat="45.00735" lon="6.37953">
        <ele>2054.6</ele>
        <time>2024-08-10T13:29:25Z</time>
      </trkpt>
      <trkpt lat="45.00733" lon="6.37954">
        <ele>2054.6</ele>
        <time>2024-08-10T13:29:26Z</time>
      </trkpt>
      <trkpt lat="45.00733" lon="6.37954">
        <ele>2055</ele>
        <time>2024-08-10T13:29:27Z</time>
      </trkpt>
      <trkpt lat="45.00731" lon="6.37955">
        <ele>2055.2</ele>
        <time>2024-08-10T13:29:28Z</time>
      </trkpt>
      <trkpt lat="45.00731" lon="6.37955">
        <ele>2055.6</ele>
        <time>2024-08-10T13:29:29Z</time>
      </trkpt>
      <trkpt lat="45.00729" lon="6.37955">
        <ele>2055.8</ele>
        <time>2024-08-10T13:29:30Z</time>
      </trkpt>
      <trkpt lat="45.00729" lon="6.37955">
        <ele>2056</ele>
        <time>2024-08-10T13:29:31Z</time>
      </trkpt>
      <trkpt lat="45.00727" lon="6.37955">
        <ele>2056.2</ele>
        <time>2024-08-10T13:29:32Z</time>
      </trkpt>
      <trkpt lat="45.00727" lon="6.37955">
        <ele>2056.4</ele>
        <time>2024-08-10T13:29:33Z</time>
      </trkpt>
      <trkpt lat="45.00725" lon="6.37956">
        <ele>2056.6</ele>
        <time>2024-08-10T13:29:34Z</time>
      </trkpt>
      <trkpt lat="45.00725" lon="6.37956">
        <ele>2056.6</ele>
        <time>2024-08-10T13:29:35Z</time>
      </trkpt>
      <trkpt lat="45.00723" lon="6.37958">
        <ele>2056.6</ele>
        <time>2024-08-10T13:29:36Z</time>
      </trkpt>
      <trkpt lat="45.00723" lon="6.37958">
        <ele>2056.8</ele>
        <time>2024-08-10T13:29:37Z</time>
      </trkpt>
      <trkpt lat="45.00721" lon="6.3796">
        <ele>2056.8</ele>
        <time>2024-08-10T13:29:38Z</time>
      </trkpt>
      <trkpt lat="45.00721" lon="6.3796">
        <ele>2057</ele>
        <time>2024-08-10T13:29:39Z</time>
      </trkpt>
      <trkpt lat="45.00718" lon="6.37961">
        <ele>2057.2</ele>
        <time>2024-08-10T13:29:40Z</time>
      </trkpt>
      <trkpt lat="45.00718" lon="6.37961">
        <ele>2057.2</ele>
        <time>2024-08-10T13:29:41Z</time>
      </trkpt>
      <trkpt lat="45.00717" lon="6.37963">
        <ele>2057.6</ele>
        <time>2024-08-10T13:29:42Z</time>
      </trkpt>
      <trkpt lat="45.00717" lon="6.37963">
        <ele>2057.6</ele>
        <time>2024-08-10T13:29:43Z</time>
      </trkpt>
      <trkpt lat="45.00715" lon="6.37964">
        <ele>2057.6</ele>
        <time>2024-08-10T13:29:44Z</time>
      </trkpt>
      <trkpt lat="45.00715" lon="6.37964">
        <ele>2058</ele>
        <time>2024-08-10T13:29:45Z</time>
      </trkpt>
      <trkpt lat="45.00712" lon="6.37965">
        <ele>2058.2</ele>
        <time>2024-08-10T13:29:46Z</time>
      </trkpt>
      <trkpt lat="45.00712" lon="6.37965">
        <ele>2058.4</ele>
        <time>2024-08-10T13:29:47Z</time>
      </trkpt>
      <trkpt lat="45.0071" lon="6.37967">
        <ele>2058.8</ele>
        <time>2024-08-10T13:29:48Z</time>
      </trkpt>
      <trkpt lat="45.0071" lon="6.37967">
        <ele>2058.8</ele>
        <time>2024-08-10T13:29:49Z</time>
      </trkpt>
      <trkpt lat="45.00709" lon="6.37968">
        <ele>2059</ele>
        <time>2024-08-10T13:29:50Z</time>
      </trkpt>
      <trkpt lat="45.00709" lon="6.37968">
        <ele>2059.2</ele>
        <time>2024-08-10T13:29:51Z</time>
      </trkpt>
      <trkpt lat="45.00709" lon="6.37968">
        <ele>2059.4</ele>
        <time>2024-08-10T13:29:52Z</time>
      </trkpt>
      <trkpt lat="45.00707" lon="6.37969">
        <ele>2059.6</ele>
        <time>2024-08-10T13:29:53Z</time>
      </trkpt>
      <trkpt lat="45.00707" lon="6.37969">
        <ele>2059.6</ele>
        <time>2024-08-10T13:29:54Z</time>
      </trkpt>
      <trkpt lat="45.00707" lon="6.37969">
        <ele>2059.6</ele>
        <time>2024-08-10T13:29:55Z</time>
      </trkpt>
      <trkpt lat="45.00704" lon="6.37971">
        <ele>2059.8</ele>
        <time>2024-08-10T13:29:56Z</time>
      </trkpt>
      <trkpt lat="45.00704" lon="6.37971">
        <ele>2059.8</ele>
        <time>2024-08-10T13:29:57Z</time>
      </trkpt>
      <trkpt lat="45.00702" lon="6.37972">
        <ele>2059.6</ele>
        <time>2024-08-10T13:29:58Z</time>
      </trkpt>
      <trkpt lat="45.00702" lon="6.37972">
        <ele>2059.8</ele>
        <time>2024-08-10T13:29:59Z</time>
      </trkpt>
      <trkpt lat="45.00702" lon="6.37972">
        <ele>2060</ele>
        <time>2024-08-10T13:30:00Z</time>
      </trkpt>
      <trkpt lat="45.007" lon="6.37972">
        <ele>2060.2</ele>
        <time>2024-08-10T13:30:01Z</time>
      </trkpt>
      <trkpt lat="45.007" lon="6.37972">
        <ele>2060.2</ele>
        <time>2024-08-10T13:30:02Z</time>
      </trkpt>
      <trkpt lat="45.00698" lon="6.37974">
        <ele>2060.4</ele>
        <time>2024-08-10T13:30:03Z</time>
      </trkpt>
      <trkpt lat="45.00698" lon="6.37974">
        <ele>2060.6</ele>
        <time>2024-08-10T13:30:04Z</time>
      </trkpt>
      <trkpt lat="45.00696" lon="6.37976">
        <ele>2060.4</ele>
        <time>2024-08-10T13:30:05Z</time>
      </trkpt>
      <trkpt lat="45.00696" lon="6.37976">
        <ele>2060.4</ele>
        <time>2024-08-10T13:30:06Z</time>
      </trkpt>
      <trkpt lat="45.00694" lon="6.37978">
        <ele>2060.2</ele>
        <time>2024-08-10T13:30:07Z</time>
      </trkpt>
      <trkpt lat="45.00694" lon="6.37978">
        <ele>2060</ele>
        <time>2024-08-10T13:30:08Z</time>
      </trkpt>
      <trkpt lat="45.00692" lon="6.37979">
        <ele>2059.8</ele>
        <time>2024-08-10T13:30:09Z</time>
      </trkpt>
      <trkpt lat="45.00692" lon="6.37979">
        <ele>2059.6</ele>
        <time>2024-08-10T13:30:10Z</time>
      </trkpt>
      <trkpt lat="45.00689" lon="6.3798">
        <ele>2059.6</ele>
        <time>2024-08-10T13:30:11Z</time>
      </trkpt>
      <trkpt lat="45.00689" lon="6.3798">
        <ele>2059.6</ele>
        <time>2024-08-10T13:30:12Z</time>
      </trkpt>
      <trkpt lat="45.00686" lon="6.37982">
        <ele>2059.8</ele>
        <time>2024-08-10T13:30:13Z</time>
      </trkpt>
      <trkpt lat="45.00686" lon="6.37982">
        <ele>2059.8</ele>
        <time>2024-08-10T13:30:14Z</time>
      </trkpt>
      <trkpt lat="45.00684" lon="6.37984">
        <ele>2059.8</ele>
        <time>2024-08-10T13:30:15Z</time>
      </trkpt>
      <trkpt lat="45.00684" lon="6.37984">
        <ele>2059.8</ele>
        <time>2024-08-10T13:30:16Z</time>
      </trkpt>
      <trkpt lat="45.00681" lon="6.37986">
        <ele>2060</ele>
        <time>2024-08-10T13:30:17Z</time>
      </trkpt>
      <trkpt lat="45.00681" lon="6.37986">
        <ele>2060</ele>
        <time>2024-08-10T13:30:18Z</time>
      </trkpt>
      <trkpt lat="45.00679" lon="6.37989">
        <ele>2059.8</ele>
        <time>2024-08-10T13:30:19Z</time>
      </trkpt>
      <trkpt lat="45.00679" lon="6.37989">
        <ele>2059.8</ele>
        <time>2024-08-10T13:30:20Z</time>
      </trkpt>
      <trkpt lat="45.00677" lon="6.37991">
        <ele>2060</ele>
        <time>2024-08-10T13:30:21Z</time>
      </trkpt>
      <trkpt lat="45.00677" lon="6.37991">
        <ele>2060.2</ele>
        <time>2024-08-10T13:30:22Z</time>
      </trkpt>
      <trkpt lat="45.00675" lon="6.37992">
        <ele>2060.2</ele>
        <time>2024-08-10T13:30:23Z</time>
      </trkpt>
      <trkpt lat="45.00675" lon="6.37992">
        <ele>2060.2</ele>
        <time>2024-08-10T13:30:24Z</time>
      </trkpt>
      <trkpt lat="45.00673" lon="6.37995">
        <ele>2060.2</ele>
        <time>2024-08-10T13:30:25Z</time>
      </trkpt>
      <trkpt lat="45.00673" lon="6.37995">
        <ele>2060.2</ele>
        <time>2024-08-10T13:30:26Z</time>
      </trkpt>
      <trkpt lat="45.0067" lon="6.37996">
        <ele>2060.2</ele>
        <time>2024-08-10T13:30:27Z</time>
      </trkpt>
      <trkpt lat="45.0067" lon="6.37996">
        <ele>2060.4</ele>
        <time>2024-08-10T13:30:28Z</time>
      </trkpt>
      <trkpt lat="45.00668" lon="6.37998">
        <ele>2060.4</ele>
        <time>2024-08-10T13:30:29Z</time>
      </trkpt>
      <trkpt lat="45.00668" lon="6.37998">
        <ele>2060.6</ele>
        <time>2024-08-10T13:30:30Z</time>
      </trkpt>
      <trkpt lat="45.00666" lon="6.37998">
        <ele>2060.8</ele>
        <time>2024-08-10T13:30:31Z</time>
      </trkpt>
      <trkpt lat="45.00666" lon="6.37998">
        <ele>2060.8</ele>
        <time>2024-08-10T13:30:32Z</time>
      </trkpt>
      <trkpt lat="45.00663" lon="6.37999">
        <ele>2060.8</ele>
        <time>2024-08-10T13:30:33Z</time>
      </trkpt>
      <trkpt lat="45.00663" lon="6.37999">
        <ele>2060.8</ele>
        <time>2024-08-10T13:30:34Z</time>
      </trkpt>
      <trkpt lat="45.00661" lon="6.38">
        <ele>2061</ele>
        <time>2024-08-10T13:30:35Z</time>
      </trkpt>
      <trkpt lat="45.00661" lon="6.38">
        <ele>2061.2</ele>
        <time>2024-08-10T13:30:36Z</time>
      </trkpt>
      <trkpt lat="45.00659" lon="6.38">
        <ele>2061.2</ele>
        <time>2024-08-10T13:30:37Z</time>
      </trkpt>
      <trkpt lat="45.00659" lon="6.38">
        <ele>2061.2</ele>
        <time>2024-08-10T13:30:38Z</time>
      </trkpt>
      <trkpt lat="45.00657" lon="6.38001">
        <ele>2061.4</ele>
        <time>2024-08-10T13:30:39Z</time>
      </trkpt>
      <trkpt lat="45.00657" lon="6.38001">
        <ele>2061.6</ele>
        <time>2024-08-10T13:30:40Z</time>
      </trkpt>
      <trkpt lat="45.00654" lon="6.38002">
        <ele>2061.8</ele>
        <time>2024-08-10T13:30:41Z</time>
      </trkpt>
      <trkpt lat="45.00654" lon="6.38002">
        <ele>2062.4</ele>
        <time>2024-08-10T13:30:42Z</time>
      </trkpt>
      <trkpt lat="45.00652" lon="6.38004">
        <ele>2063</ele>
        <time>2024-08-10T13:30:43Z</time>
      </trkpt>
      <trkpt lat="45.00652" lon="6.38004">
        <ele>2063.2</ele>
        <time>2024-08-10T13:30:44Z</time>
      </trkpt>
      <trkpt lat="45.00651" lon="6.38005">
        <ele>2063.4</ele>
        <time>2024-08-10T13:30:45Z</time>
      </trkpt>
      <trkpt lat="45.00651" lon="6.38005">
        <ele>2063.4</ele>
        <time>2024-08-10T13:30:46Z</time>
      </trkpt>
      <trkpt lat="45.00648" lon="6.38007">
        <ele>2063.4</ele>
        <time>2024-08-10T13:30:47Z</time>
      </trkpt>
      <trkpt lat="45.00648" lon="6.38007">
        <ele>2063.4</ele>
        <time>2024-08-10T13:30:48Z</time>
      </trkpt>
      <trkpt lat="45.00645" lon="6.38009">
        <ele>2063.6</ele>
        <time>2024-08-10T13:30:49Z</time>
      </trkpt>
      <trkpt lat="45.00645" lon="6.38009">
        <ele>2063.6</ele>
        <time>2024-08-10T13:30:50Z</time>
      </trkpt>
      <trkpt lat="45.00643" lon="6.3801">
        <ele>2063.8</ele>
        <time>2024-08-10T13:30:51Z</time>
      </trkpt>
      <trkpt lat="45.00643" lon="6.3801">
        <ele>2063.8</ele>
        <time>2024-08-10T13:30:52Z</time>
      </trkpt>
      <trkpt lat="45.0064" lon="6.38011">
        <ele>2063.8</ele>
        <time>2024-08-10T13:30:53Z</time>
      </trkpt>
      <trkpt lat="45.0064" lon="6.38011">
        <ele>2063.6</ele>
        <time>2024-08-10T13:30:54Z</time>
      </trkpt>
      <trkpt lat="45.00638" lon="6.38013">
        <ele>2063.6</ele>
        <time>2024-08-10T13:30:55Z</time>
      </trkpt>
      <trkpt lat="45.00638" lon="6.38013">
        <ele>2063.6</ele>
        <time>2024-08-10T13:30:56Z</time>
      </trkpt>
      <trkpt lat="45.00635" lon="6.38014">
        <ele>2063.6</ele>
        <time>2024-08-10T13:30:57Z</time>
      </trkpt>
      <trkpt lat="45.00635" lon="6.38014">
        <ele>2063.6</ele>
        <time>2024-08-10T13:30:58Z</time>
      </trkpt>
      <trkpt lat="45.00632" lon="6.38016">
        <ele>2063.6</ele>
        <time>2024-08-10T13:30:59Z</time>
      </trkpt>
      <trkpt lat="45.00632" lon="6.38016">
        <ele>2063.8</ele>
        <time>2024-08-10T13:31:00Z</time>
      </trkpt>
      <trkpt lat="45.00629" lon="6.38017">
        <ele>2063.8</ele>
        <time>2024-08-10T13:31:01Z</time>
      </trkpt>
      <trkpt lat="45.00629" lon="6.38017">
        <ele>2063.8</ele>
        <time>2024-08-10T13:31:02Z</time>
      </trkpt>
      <trkpt lat="45.00628" lon="6.38018">
        <ele>2063.4</ele>
        <time>2024-08-10T13:31:03Z</time>
      </trkpt>
      <trkpt lat="45.00628" lon="6.38018">
        <ele>2063.4</ele>
        <time>2024-08-10T13:31:04Z</time>
      </trkpt>
      <trkpt lat="45.00628" lon="6.38018">
        <ele>2063.4</ele>
        <time>2024-08-10T13:31:05Z</time>
      </trkpt>
      <trkpt lat="45.00628" lon="6.38018">
        <ele>2063.6</ele>
        <time>2024-08-10T13:31:06Z</time>
      </trkpt>
      <trkpt lat="45.00626" lon="6.38019">
        <ele>2063.6</ele>
        <time>2024-08-10T13:31:07Z</time>
      </trkpt>
      <trkpt lat="45.00626" lon="6.38019">
        <ele>2063.6</ele>
        <time>2024-08-10T13:31:08Z</time>
      </trkpt>
      <trkpt lat="45.00624" lon="6.38022">
        <ele>2063.4</ele>
        <time>2024-08-10T13:31:09Z</time>
      </trkpt>
      <trkpt lat="45.00624" lon="6.38022">
        <ele>2063</ele>
        <time>2024-08-10T13:31:10Z</time>
      </trkpt>
      <trkpt lat="45.00621" lon="6.38023">
        <ele>2063</ele>
        <time>2024-08-10T13:31:11Z</time>
      </trkpt>
      <trkpt lat="45.00621" lon="6.38023">
        <ele>2063</ele>
        <time>2024-08-10T13:31:12Z</time>
      </trkpt>
      <trkpt lat="45.00619" lon="6.38024">
        <ele>2063.2</ele>
        <time>2024-08-10T13:31:13Z</time>
      </trkpt>
      <trkpt lat="45.00619" lon="6.38024">
        <ele>2063.2</ele>
        <time>2024-08-10T13:31:14Z</time>
      </trkpt>
      <trkpt lat="45.00616" lon="6.38026">
        <ele>2063</ele>
        <time>2024-08-10T13:31:15Z</time>
      </trkpt>
      <trkpt lat="45.00616" lon="6.38026">
        <ele>2063</ele>
        <time>2024-08-10T13:31:16Z</time>
      </trkpt>
      <trkpt lat="45.00614" lon="6.38028">
        <ele>2063.4</ele>
        <time>2024-08-10T13:31:17Z</time>
      </trkpt>
      <trkpt lat="45.00614" lon="6.38028">
        <ele>2063.8</ele>
        <time>2024-08-10T13:31:18Z</time>
      </trkpt>
      <trkpt lat="45.00611" lon="6.3803">
        <ele>2063.8</ele>
        <time>2024-08-10T13:31:19Z</time>
      </trkpt>
      <trkpt lat="45.00611" lon="6.3803">
        <ele>2063.8</ele>
        <time>2024-08-10T13:31:20Z</time>
      </trkpt>
      <trkpt lat="45.00608" lon="6.38031">
        <ele>2064</ele>
        <time>2024-08-10T13:31:21Z</time>
      </trkpt>
      <trkpt lat="45.00608" lon="6.38031">
        <ele>2063.8</ele>
        <time>2024-08-10T13:31:22Z</time>
      </trkpt>
      <trkpt lat="45.00606" lon="6.38032">
        <ele>2063.8</ele>
        <time>2024-08-10T13:31:23Z</time>
      </trkpt>
      <trkpt lat="45.00606" lon="6.38032">
        <ele>2063.6</ele>
        <time>2024-08-10T13:31:24Z</time>
      </trkpt>
      <trkpt lat="45.00603" lon="6.38033">
        <ele>2063.6</ele>
        <time>2024-08-10T13:31:25Z</time>
      </trkpt>
      <trkpt lat="45.00603" lon="6.38033">
        <ele>2063.6</ele>
        <time>2024-08-10T13:31:26Z</time>
      </trkpt>
      <trkpt lat="45.00601" lon="6.38035">
        <ele>2064</ele>
        <time>2024-08-10T13:31:27Z</time>
      </trkpt>
      <trkpt lat="45.00601" lon="6.38035">
        <ele>2064</ele>
        <time>2024-08-10T13:31:28Z</time>
      </trkpt>
      <trkpt lat="45.00599" lon="6.38037">
        <ele>2064</ele>
        <time>2024-08-10T13:31:29Z</time>
      </trkpt>
      <trkpt lat="45.00599" lon="6.38037">
        <ele>2064</ele>
        <time>2024-08-10T13:31:30Z</time>
      </trkpt>
      <trkpt lat="45.00597" lon="6.38039">
        <ele>2064.2</ele>
        <time>2024-08-10T13:31:31Z</time>
      </trkpt>
      <trkpt lat="45.00597" lon="6.38039">
        <ele>2064.4</ele>
        <time>2024-08-10T13:31:32Z</time>
      </trkpt>
      <trkpt lat="45.00595" lon="6.38042">
        <ele>2064.6</ele>
        <time>2024-08-10T13:31:33Z</time>
      </trkpt>
      <trkpt lat="45.00595" lon="6.38042">
        <ele>2064.8</ele>
        <time>2024-08-10T13:31:34Z</time>
      </trkpt>
      <trkpt lat="45.00592" lon="6.38044">
        <ele>2064.8</ele>
        <time>2024-08-10T13:31:35Z</time>
      </trkpt>
      <trkpt lat="45.00592" lon="6.38044">
        <ele>2065</ele>
        <time>2024-08-10T13:31:36Z</time>
      </trkpt>
      <trkpt lat="45.00589" lon="6.38046">
        <ele>2064.8</ele>
        <time>2024-08-10T13:31:37Z</time>
      </trkpt>
      <trkpt lat="45.00589" lon="6.38046">
        <ele>2064.4</ele>
        <time>2024-08-10T13:31:38Z</time>
      </trkpt>
      <trkpt lat="45.00587" lon="6.38048">
        <ele>2063.8</ele>
        <time>2024-08-10T13:31:39Z</time>
      </trkpt>
      <trkpt lat="45.00587" lon="6.38048">
        <ele>2063.8</ele>
        <time>2024-08-10T13:31:40Z</time>
      </trkpt>
      <trkpt lat="45.00584" lon="6.3805">
        <ele>2063.6</ele>
        <time>2024-08-10T13:31:41Z</time>
      </trkpt>
      <trkpt lat="45.00584" lon="6.3805">
        <ele>2063.6</ele>
        <time>2024-08-10T13:31:42Z</time>
      </trkpt>
      <trkpt lat="45.00581" lon="6.38052">
        <ele>2063.6</ele>
        <time>2024-08-10T13:31:43Z</time>
      </trkpt>
      <trkpt lat="45.00581" lon="6.38052">
        <ele>2063.8</ele>
        <time>2024-08-10T13:31:44Z</time>
      </trkpt>
      <trkpt lat="45.00579" lon="6.38054">
        <ele>2064</ele>
        <time>2024-08-10T13:31:45Z</time>
      </trkpt>
      <trkpt lat="45.00579" lon="6.38054">
        <ele>2064</ele>
        <time>2024-08-10T13:31:46Z</time>
      </trkpt>
      <trkpt lat="45.00577" lon="6.38056">
        <ele>2063.8</ele>
        <time>2024-08-10T13:31:47Z</time>
      </trkpt>
      <trkpt lat="45.00577" lon="6.38056">
        <ele>2063.8</ele>
        <time>2024-08-10T13:31:48Z</time>
      </trkpt>
      <trkpt lat="45.00575" lon="6.38058">
        <ele>2063.8</ele>
        <time>2024-08-10T13:31:49Z</time>
      </trkpt>
      <trkpt lat="45.00575" lon="6.38058">
        <ele>2063.4</ele>
        <time>2024-08-10T13:31:50Z</time>
      </trkpt>
      <trkpt lat="45.00573" lon="6.38061">
        <ele>2063.4</ele>
        <time>2024-08-10T13:31:51Z</time>
      </trkpt>
      <trkpt lat="45.00573" lon="6.38061">
        <ele>2063.8</ele>
        <time>2024-08-10T13:31:52Z</time>
      </trkpt>
      <trkpt lat="45.00571" lon="6.38063">
        <ele>2063.8</ele>
        <time>2024-08-10T13:31:53Z</time>
      </trkpt>
      <trkpt lat="45.0057" lon="6.38064">
        <ele>2063.8</ele>
        <time>2024-08-10T13:31:54Z</time>
      </trkpt>
      <trkpt lat="45.0057" lon="6.38064">
        <ele>2063.8</ele>
        <time>2024-08-10T13:31:55Z</time>
      </trkpt>
      <trkpt lat="45.00568" lon="6.38067">
        <ele>2063.8</ele>
        <time>2024-08-10T13:31:56Z</time>
      </trkpt>
      <trkpt lat="45.00568" lon="6.38067">
        <ele>2064</ele>
        <time>2024-08-10T13:31:57Z</time>
      </trkpt>
      <trkpt lat="45.00566" lon="6.38069">
        <ele>2064</ele>
        <time>2024-08-10T13:31:58Z</time>
      </trkpt>
      <trkpt lat="45.00566" lon="6.38069">
        <ele>2064</ele>
        <time>2024-08-10T13:31:59Z</time>
      </trkpt>
      <trkpt lat="45.00564" lon="6.38071">
        <ele>2063.8</ele>
        <time>2024-08-10T13:32:00Z</time>
      </trkpt>
      <trkpt lat="45.00564" lon="6.38071">
        <ele>2064</ele>
        <time>2024-08-10T13:32:01Z</time>
      </trkpt>
      <trkpt lat="45.00562" lon="6.38073">
        <ele>2063.8</ele>
        <time>2024-08-10T13:32:02Z</time>
      </trkpt>
      <trkpt lat="45.00562" lon="6.38073">
        <ele>2063.6</ele>
        <time>2024-08-10T13:32:03Z</time>
      </trkpt>
      <trkpt lat="45.0056" lon="6.38076">
        <ele>2063.6</ele>
        <time>2024-08-10T13:32:04Z</time>
      </trkpt>
      <trkpt lat="45.0056" lon="6.38076">
        <ele>2063.6</ele>
        <time>2024-08-10T13:32:05Z</time>
      </trkpt>
      <trkpt lat="45.00558" lon="6.38078">
        <ele>2063.6</ele>
        <time>2024-08-10T13:32:06Z</time>
      </trkpt>
      <trkpt lat="45.00558" lon="6.38078">
        <ele>2063.6</ele>
        <time>2024-08-10T13:32:07Z</time>
      </trkpt>
      <trkpt lat="45.00556" lon="6.38081">
        <ele>2063.4</ele>
        <time>2024-08-10T13:32:08Z</time>
      </trkpt>
      <trkpt lat="45.00556" lon="6.38081">
        <ele>2063.2</ele>
        <time>2024-08-10T13:32:09Z</time>
      </trkpt>
      <trkpt lat="45.00554" lon="6.38084">
        <ele>2063.2</ele>
        <time>2024-08-10T13:32:10Z</time>
      </trkpt>
      <trkpt lat="45.00554" lon="6.38084">
        <ele>2063</ele>
        <time>2024-08-10T13:32:11Z</time>
      </trkpt>
      <trkpt lat="45.00552" lon="6.38086">
        <ele>2063</ele>
        <time>2024-08-10T13:32:12Z</time>
      </trkpt>
      <trkpt lat="45.00552" lon="6.38086">
        <ele>2063</ele>
        <time>2024-08-10T13:32:13Z</time>
      </trkpt>
      <trkpt lat="45.00549" lon="6.38089">
        <ele>2063</ele>
        <time>2024-08-10T13:32:14Z</time>
      </trkpt>
      <trkpt lat="45.00549" lon="6.38089">
        <ele>2063</ele>
        <time>2024-08-10T13:32:15Z</time>
      </trkpt>
      <trkpt lat="45.00547" lon="6.38091">
        <ele>2063</ele>
        <time>2024-08-10T13:32:16Z</time>
      </trkpt>
      <trkpt lat="45.00547" lon="6.38091">
        <ele>2062.8</ele>
        <time>2024-08-10T13:32:17Z</time>
      </trkpt>
      <trkpt lat="45.00545" lon="6.38094">
        <ele>2062.8</ele>
        <time>2024-08-10T13:32:18Z</time>
      </trkpt>
      <trkpt lat="45.00544" lon="6.38096">
        <ele>2062.6</ele>
        <time>2024-08-10T13:32:19Z</time>
      </trkpt>
      <trkpt lat="45.00544" lon="6.38096">
        <ele>2062.6</ele>
        <time>2024-08-10T13:32:20Z</time>
      </trkpt>
      <trkpt lat="45.00542" lon="6.38099">
        <ele>2062.6</ele>
        <time>2024-08-10T13:32:21Z</time>
      </trkpt>
      <trkpt lat="45.00541" lon="6.381">
        <ele>2062.6</ele>
        <time>2024-08-10T13:32:22Z</time>
      </trkpt>
      <trkpt lat="45.00541" lon="6.38101">
        <ele>2062.4</ele>
        <time>2024-08-10T13:32:23Z</time>
      </trkpt>
      <trkpt lat="45.00541" lon="6.38101">
        <ele>2062.4</ele>
        <time>2024-08-10T13:32:24Z</time>
      </trkpt>
      <trkpt lat="45.00539" lon="6.38104">
        <ele>2062.6</ele>
        <time>2024-08-10T13:32:25Z</time>
      </trkpt>
      <trkpt lat="45.00539" lon="6.38104">
        <ele>2062.6</ele>
        <time>2024-08-10T13:32:26Z</time>
      </trkpt>
      <trkpt lat="45.00538" lon="6.38106">
        <ele>2062.8</ele>
        <time>2024-08-10T13:32:27Z</time>
      </trkpt>
      <trkpt lat="45.00538" lon="6.38106">
        <ele>2062.6</ele>
        <time>2024-08-10T13:32:28Z</time>
      </trkpt>
      <trkpt lat="45.00536" lon="6.38109">
        <ele>2062.6</ele>
        <time>2024-08-10T13:32:29Z</time>
      </trkpt>
      <trkpt lat="45.00536" lon="6.38109">
        <ele>2062.4</ele>
        <time>2024-08-10T13:32:30Z</time>
      </trkpt>
      <trkpt lat="45.00534" lon="6.38111">
        <ele>2062.6</ele>
        <time>2024-08-10T13:32:31Z</time>
      </trkpt>
      <trkpt lat="45.00534" lon="6.38111">
        <ele>2062.6</ele>
        <time>2024-08-10T13:32:32Z</time>
      </trkpt>
      <trkpt lat="45.00533" lon="6.38113">
        <ele>2062.6</ele>
        <time>2024-08-10T13:32:33Z</time>
      </trkpt>
      <trkpt lat="45.00533" lon="6.38113">
        <ele>2062.6</ele>
        <time>2024-08-10T13:32:34Z</time>
      </trkpt>
      <trkpt lat="45.00531" lon="6.38115">
        <ele>2062.4</ele>
        <time>2024-08-10T13:32:35Z</time>
      </trkpt>
      <trkpt lat="45.00531" lon="6.38115">
        <ele>2062.2</ele>
        <time>2024-08-10T13:32:36Z</time>
      </trkpt>
      <trkpt lat="45.00529" lon="6.38117">
        <ele>2062.2</ele>
        <time>2024-08-10T13:32:37Z</time>
      </trkpt>
      <trkpt lat="45.00529" lon="6.38117">
        <ele>2062</ele>
        <time>2024-08-10T13:32:38Z</time>
      </trkpt>
      <trkpt lat="45.00527" lon="6.3812">
        <ele>2062</ele>
        <time>2024-08-10T13:32:39Z</time>
      </trkpt>
      <trkpt lat="45.00527" lon="6.3812">
        <ele>2062.2</ele>
        <time>2024-08-10T13:32:40Z</time>
      </trkpt>
      <trkpt lat="45.00525" lon="6.38123">
        <ele>2062</ele>
        <time>2024-08-10T13:32:41Z</time>
      </trkpt>
      <trkpt lat="45.00525" lon="6.38123">
        <ele>2061.6</ele>
        <time>2024-08-10T13:32:42Z</time>
      </trkpt>
      <trkpt lat="45.00523" lon="6.38125">
        <ele>2061.6</ele>
        <time>2024-08-10T13:32:43Z</time>
      </trkpt>
      <trkpt lat="45.00523" lon="6.38125">
        <ele>2061.6</ele>
        <time>2024-08-10T13:32:44Z</time>
      </trkpt>
      <trkpt lat="45.00521" lon="6.38126">
        <ele>2061.8</ele>
        <time>2024-08-10T13:32:45Z</time>
      </trkpt>
      <trkpt lat="45.00521" lon="6.38126">
        <ele>2061.8</ele>
        <time>2024-08-10T13:32:46Z</time>
      </trkpt>
      <trkpt lat="45.00518" lon="6.38128">
        <ele>2061.8</ele>
        <time>2024-08-10T13:32:47Z</time>
      </trkpt>
      <trkpt lat="45.00518" lon="6.38128">
        <ele>2061.8</ele>
        <time>2024-08-10T13:32:48Z</time>
      </trkpt>
      <trkpt lat="45.00516" lon="6.38129">
        <ele>2061.8</ele>
        <time>2024-08-10T13:32:49Z</time>
      </trkpt>
      <trkpt lat="45.00516" lon="6.38129">
        <ele>2061.6</ele>
        <time>2024-08-10T13:32:50Z</time>
      </trkpt>
      <trkpt lat="45.00514" lon="6.38131">
        <ele>2061.2</ele>
        <time>2024-08-10T13:32:51Z</time>
      </trkpt>
      <trkpt lat="45.00514" lon="6.38131">
        <ele>2061</ele>
        <time>2024-08-10T13:32:52Z</time>
      </trkpt>
      <trkpt lat="45.00512" lon="6.38133">
        <ele>2061</ele>
        <time>2024-08-10T13:32:53Z</time>
      </trkpt>
      <trkpt lat="45.00512" lon="6.38133">
        <ele>2061</ele>
        <time>2024-08-10T13:32:54Z</time>
      </trkpt>
      <trkpt lat="45.0051" lon="6.38136">
        <ele>2061</ele>
        <time>2024-08-10T13:32:55Z</time>
      </trkpt>
      <trkpt lat="45.0051" lon="6.38136">
        <ele>2061</ele>
        <time>2024-08-10T13:32:56Z</time>
      </trkpt>
      <trkpt lat="45.00509" lon="6.3814">
        <ele>2061</ele>
        <time>2024-08-10T13:32:57Z</time>
      </trkpt>
      <trkpt lat="45.00509" lon="6.3814">
        <ele>2061</ele>
        <time>2024-08-10T13:32:58Z</time>
      </trkpt>
      <trkpt lat="45.00507" lon="6.38142">
        <ele>2061</ele>
        <time>2024-08-10T13:32:59Z</time>
      </trkpt>
      <trkpt lat="45.00507" lon="6.38142">
        <ele>2060.8</ele>
        <time>2024-08-10T13:33:00Z</time>
      </trkpt>
      <trkpt lat="45.00506" lon="6.38145">
        <ele>2060.6</ele>
        <time>2024-08-10T13:33:01Z</time>
      </trkpt>
      <trkpt lat="45.00506" lon="6.38145">
        <ele>2060.2</ele>
        <time>2024-08-10T13:33:02Z</time>
      </trkpt>
      <trkpt lat="45.00504" lon="6.38148">
        <ele>2059.4</ele>
        <time>2024-08-10T13:33:03Z</time>
      </trkpt>
      <trkpt lat="45.00504" lon="6.38148">
        <ele>2059.4</ele>
        <time>2024-08-10T13:33:04Z</time>
      </trkpt>
      <trkpt lat="45.00503" lon="6.3815">
        <ele>2059.6</ele>
        <time>2024-08-10T13:33:05Z</time>
      </trkpt>
      <trkpt lat="45.00503" lon="6.3815">
        <ele>2060</ele>
        <time>2024-08-10T13:33:06Z</time>
      </trkpt>
      <trkpt lat="45.00502" lon="6.38153">
        <ele>2060</ele>
        <time>2024-08-10T13:33:07Z</time>
      </trkpt>
      <trkpt lat="45.00502" lon="6.38153">
        <ele>2060</ele>
        <time>2024-08-10T13:33:08Z</time>
      </trkpt>
      <trkpt lat="45.005" lon="6.38156">
        <ele>2060</ele>
        <time>2024-08-10T13:33:09Z</time>
      </trkpt>
      <trkpt lat="45.005" lon="6.38156">
        <ele>2060</ele>
        <time>2024-08-10T13:33:10Z</time>
      </trkpt>
      <trkpt lat="45.00499" lon="6.38158">
        <ele>2060</ele>
        <time>2024-08-10T13:33:11Z</time>
      </trkpt>
      <trkpt lat="45.00499" lon="6.38158">
        <ele>2060</ele>
        <time>2024-08-10T13:33:12Z</time>
      </trkpt>
      <trkpt lat="45.00497" lon="6.38162">
        <ele>2059.8</ele>
        <time>2024-08-10T13:33:13Z</time>
      </trkpt>
      <trkpt lat="45.00497" lon="6.38162">
        <ele>2059.8</ele>
        <time>2024-08-10T13:33:14Z</time>
      </trkpt>
      <trkpt lat="45.00495" lon="6.38164">
        <ele>2059.8</ele>
        <time>2024-08-10T13:33:15Z</time>
      </trkpt>
      <trkpt lat="45.00495" lon="6.38164">
        <ele>2059.8</ele>
        <time>2024-08-10T13:33:16Z</time>
      </trkpt>
      <trkpt lat="45.00493" lon="6.38167">
        <ele>2060</ele>
        <time>2024-08-10T13:33:17Z</time>
      </trkpt>
      <trkpt lat="45.00493" lon="6.38167">
        <ele>2060.2</ele>
        <time>2024-08-10T13:33:18Z</time>
      </trkpt>
      <trkpt lat="45.00491" lon="6.3817">
        <ele>2060.2</ele>
        <time>2024-08-10T13:33:19Z</time>
      </trkpt>
      <trkpt lat="45.00491" lon="6.3817">
        <ele>2060.2</ele>
        <time>2024-08-10T13:33:20Z</time>
      </trkpt>
      <trkpt lat="45.00489" lon="6.38172">
        <ele>2060.2</ele>
        <time>2024-08-10T13:33:21Z</time>
      </trkpt>
      <trkpt lat="45.00489" lon="6.38172">
        <ele>2060.2</ele>
        <time>2024-08-10T13:33:22Z</time>
      </trkpt>
      <trkpt lat="45.00487" lon="6.38175">
        <ele>2060.2</ele>
        <time>2024-08-10T13:33:23Z</time>
      </trkpt>
      <trkpt lat="45.00487" lon="6.38175">
        <ele>2060.2</ele>
        <time>2024-08-10T13:33:24Z</time>
      </trkpt>
      <trkpt lat="45.00485" lon="6.38177">
        <ele>2060.2</ele>
        <time>2024-08-10T13:33:25Z</time>
      </trkpt>
      <trkpt lat="45.00485" lon="6.38177">
        <ele>2060.2</ele>
        <time>2024-08-10T13:33:26Z</time>
      </trkpt>
      <trkpt lat="45.00482" lon="6.38179">
        <ele>2060.4</ele>
        <time>2024-08-10T13:33:27Z</time>
      </trkpt>
      <trkpt lat="45.00482" lon="6.38179">
        <ele>2060.8</ele>
        <time>2024-08-10T13:33:28Z</time>
      </trkpt>
      <trkpt lat="45.0048" lon="6.38181">
        <ele>2060.8</ele>
        <time>2024-08-10T13:33:29Z</time>
      </trkpt>
      <trkpt lat="45.0048" lon="6.38181">
        <ele>2060.8</ele>
        <time>2024-08-10T13:33:30Z</time>
      </trkpt>
      <trkpt lat="45.00478" lon="6.38182">
        <ele>2060.8</ele>
        <time>2024-08-10T13:33:31Z</time>
      </trkpt>
      <trkpt lat="45.00478" lon="6.38182">
        <ele>2061</ele>
        <time>2024-08-10T13:33:32Z</time>
      </trkpt>
      <trkpt lat="45.00475" lon="6.38183">
        <ele>2061.2</ele>
        <time>2024-08-10T13:33:33Z</time>
      </trkpt>
      <trkpt lat="45.00475" lon="6.38183">
        <ele>2061.2</ele>
        <time>2024-08-10T13:33:34Z</time>
      </trkpt>
      <trkpt lat="45.00473" lon="6.38184">
        <ele>2061.4</ele>
        <time>2024-08-10T13:33:35Z</time>
      </trkpt>
      <trkpt lat="45.00473" lon="6.38184">
        <ele>2061.6</ele>
        <time>2024-08-10T13:33:36Z</time>
      </trkpt>
      <trkpt lat="45.00471" lon="6.38185">
        <ele>2061.6</ele>
        <time>2024-08-10T13:33:37Z</time>
      </trkpt>
      <trkpt lat="45.00471" lon="6.38185">
        <ele>2061.8</ele>
        <time>2024-08-10T13:33:38Z</time>
      </trkpt>
      <trkpt lat="45.00469" lon="6.38186">
        <ele>2062.2</ele>
        <time>2024-08-10T13:33:39Z</time>
      </trkpt>
      <trkpt lat="45.00469" lon="6.38186">
        <ele>2062.2</ele>
        <time>2024-08-10T13:33:40Z</time>
      </trkpt>
      <trkpt lat="45.00467" lon="6.38187">
        <ele>2062</ele>
        <time>2024-08-10T13:33:41Z</time>
      </trkpt>
      <trkpt lat="45.00467" lon="6.38187">
        <ele>2062</ele>
        <time>2024-08-10T13:33:42Z</time>
      </trkpt>
      <trkpt lat="45.00464" lon="6.38188">
        <ele>2062.2</ele>
        <time>2024-08-10T13:33:43Z</time>
      </trkpt>
      <trkpt lat="45.00464" lon="6.38188">
        <ele>2062.4</ele>
        <time>2024-08-10T13:33:44Z</time>
      </trkpt>
      <trkpt lat="45.00461" lon="6.38189">
        <ele>2062.4</ele>
        <time>2024-08-10T13:33:45Z</time>
      </trkpt>
      <trkpt lat="45.00461" lon="6.38189">
        <ele>2062.4</ele>
        <time>2024-08-10T13:33:46Z</time>
      </trkpt>
      <trkpt lat="45.00459" lon="6.3819">
        <ele>2062.4</ele>
        <time>2024-08-10T13:33:47Z</time>
      </trkpt>
      <trkpt lat="45.00459" lon="6.3819">
        <ele>2062.4</ele>
        <time>2024-08-10T13:33:48Z</time>
      </trkpt>
      <trkpt lat="45.00457" lon="6.38192">
        <ele>2062.6</ele>
        <time>2024-08-10T13:33:49Z</time>
      </trkpt>
      <trkpt lat="45.00457" lon="6.38192">
        <ele>2062.8</ele>
        <time>2024-08-10T13:33:50Z</time>
      </trkpt>
      <trkpt lat="45.00454" lon="6.38193">
        <ele>2062.8</ele>
        <time>2024-08-10T13:33:51Z</time>
      </trkpt>
      <trkpt lat="45.00454" lon="6.38193">
        <ele>2062.8</ele>
        <time>2024-08-10T13:33:52Z</time>
      </trkpt>
      <trkpt lat="45.00452" lon="6.38194">
        <ele>2062.8</ele>
        <time>2024-08-10T13:33:53Z</time>
      </trkpt>
      <trkpt lat="45.00452" lon="6.38194">
        <ele>2063</ele>
        <time>2024-08-10T13:33:54Z</time>
      </trkpt>
      <trkpt lat="45.00449" lon="6.38195">
        <ele>2063</ele>
        <time>2024-08-10T13:33:55Z</time>
      </trkpt>
      <trkpt lat="45.00449" lon="6.38195">
        <ele>2063.4</ele>
        <time>2024-08-10T13:33:56Z</time>
      </trkpt>
      <trkpt lat="45.00447" lon="6.38197">
        <ele>2063.6</ele>
        <time>2024-08-10T13:33:57Z</time>
      </trkpt>
      <trkpt lat="45.00447" lon="6.38197">
        <ele>2063.6</ele>
        <time>2024-08-10T13:33:58Z</time>
      </trkpt>
      <trkpt lat="45.00445" lon="6.38199">
        <ele>2063.6</ele>
        <time>2024-08-10T13:33:59Z</time>
      </trkpt>
      <trkpt lat="45.00445" lon="6.38199">
        <ele>2063.8</ele>
        <time>2024-08-10T13:34:00Z</time>
      </trkpt>
      <trkpt lat="45.00443" lon="6.382">
        <ele>2063.8</ele>
        <time>2024-08-10T13:34:01Z</time>
      </trkpt>
      <trkpt lat="45.00443" lon="6.382">
        <ele>2064</ele>
        <time>2024-08-10T13:34:02Z</time>
      </trkpt>
      <trkpt lat="45.00441" lon="6.38201">
        <ele>2064.2</ele>
        <time>2024-08-10T13:34:03Z</time>
      </trkpt>
      <trkpt lat="45.00441" lon="6.38201">
        <ele>2064.2</ele>
        <time>2024-08-10T13:34:04Z</time>
      </trkpt>
      <trkpt lat="45.00438" lon="6.38202">
        <ele>2064.2</ele>
        <time>2024-08-10T13:34:05Z</time>
      </trkpt>
      <trkpt lat="45.00438" lon="6.38202">
        <ele>2064</ele>
        <time>2024-08-10T13:34:06Z</time>
      </trkpt>
      <trkpt lat="45.00435" lon="6.38202">
        <ele>2064</ele>
        <time>2024-08-10T13:34:07Z</time>
      </trkpt>
      <trkpt lat="45.00435" lon="6.38202">
        <ele>2064</ele>
        <time>2024-08-10T13:34:08Z</time>
      </trkpt>
      <trkpt lat="45.00433" lon="6.38203">
        <ele>2064.2</ele>
        <time>2024-08-10T13:34:09Z</time>
      </trkpt>
      <trkpt lat="45.00433" lon="6.38203">
        <ele>2064.4</ele>
        <time>2024-08-10T13:34:10Z</time>
      </trkpt>
      <trkpt lat="45.00431" lon="6.38204">
        <ele>2064.4</ele>
        <time>2024-08-10T13:34:11Z</time>
      </trkpt>
      <trkpt lat="45.00431" lon="6.38204">
        <ele>2064.6</ele>
        <time>2024-08-10T13:34:12Z</time>
      </trkpt>
      <trkpt lat="45.00429" lon="6.38205">
        <ele>2064.6</ele>
        <time>2024-08-10T13:34:13Z</time>
      </trkpt>
      <trkpt lat="45.00429" lon="6.38205">
        <ele>2064.8</ele>
        <time>2024-08-10T13:34:14Z</time>
      </trkpt>
      <trkpt lat="45.00427" lon="6.38206">
        <ele>2065</ele>
        <time>2024-08-10T13:34:15Z</time>
      </trkpt>
      <trkpt lat="45.00427" lon="6.38206">
        <ele>2065</ele>
        <time>2024-08-10T13:34:16Z</time>
      </trkpt>
      <trkpt lat="45.00424" lon="6.38207">
        <ele>2064.8</ele>
        <time>2024-08-10T13:34:17Z</time>
      </trkpt>
      <trkpt lat="45.00424" lon="6.38207">
        <ele>2064.8</ele>
        <time>2024-08-10T13:34:18Z</time>
      </trkpt>
      <trkpt lat="45.00424" lon="6.38207">
        <ele>2065</ele>
        <time>2024-08-10T13:34:19Z</time>
      </trkpt>
      <trkpt lat="45.00421" lon="6.38209">
        <ele>2065.4</ele>
        <time>2024-08-10T13:34:20Z</time>
      </trkpt>
      <trkpt lat="45.00421" lon="6.38209">
        <ele>2065.4</ele>
        <time>2024-08-10T13:34:21Z</time>
      </trkpt>
      <trkpt lat="45.00419" lon="6.38209">
        <ele>2065.4</ele>
        <time>2024-08-10T13:34:22Z</time>
      </trkpt>
      <trkpt lat="45.00419" lon="6.38209">
        <ele>2065.8</ele>
        <time>2024-08-10T13:34:23Z</time>
      </trkpt>
      <trkpt lat="45.00417" lon="6.38209">
        <ele>2066</ele>
        <time>2024-08-10T13:34:24Z</time>
      </trkpt>
      <trkpt lat="45.00417" lon="6.38209">
        <ele>2066.2</ele>
        <time>2024-08-10T13:34:25Z</time>
      </trkpt>
      <trkpt lat="45.00413" lon="6.38208">
        <ele>2066.4</ele>
        <time>2024-08-10T13:34:26Z</time>
      </trkpt>
      <trkpt lat="45.00413" lon="6.38208">
        <ele>2066.6</ele>
        <time>2024-08-10T13:34:27Z</time>
      </trkpt>
      <trkpt lat="45.00413" lon="6.38208">
        <ele>2066.6</ele>
        <time>2024-08-10T13:34:28Z</time>
      </trkpt>
      <trkpt lat="45.00411" lon="6.38207">
        <ele>2066.6</ele>
        <time>2024-08-10T13:34:29Z</time>
      </trkpt>
      <trkpt lat="45.00411" lon="6.38207">
        <ele>2066.8</ele>
        <time>2024-08-10T13:34:30Z</time>
      </trkpt>
      <trkpt lat="45.00408" lon="6.38208">
        <ele>2066.6</ele>
        <time>2024-08-10T13:34:31Z</time>
      </trkpt>
      <trkpt lat="45.00408" lon="6.38208">
        <ele>2066.6</ele>
        <time>2024-08-10T13:34:32Z</time>
      </trkpt>
      <trkpt lat="45.00408" lon="6.38208">
        <ele>2066.6</ele>
        <time>2024-08-10T13:34:33Z</time>
      </trkpt>
      <trkpt lat="45.00405" lon="6.38209">
        <ele>2066.4</ele>
        <time>2024-08-10T13:34:34Z</time>
      </trkpt>
      <trkpt lat="45.00405" lon="6.38209">
        <ele>2066.4</ele>
        <time>2024-08-10T13:34:35Z</time>
      </trkpt>
      <trkpt lat="45.00404" lon="6.38211">
        <ele>2066.4</ele>
        <time>2024-08-10T13:34:36Z</time>
      </trkpt>
      <trkpt lat="45.00404" lon="6.38211">
        <ele>2066.8</ele>
        <time>2024-08-10T13:34:37Z</time>
      </trkpt>
      <trkpt lat="45.00402" lon="6.38211">
        <ele>2067</ele>
        <time>2024-08-10T13:34:38Z</time>
      </trkpt>
      <trkpt lat="45.00402" lon="6.38211">
        <ele>2067.2</ele>
        <time>2024-08-10T13:34:39Z</time>
      </trkpt>
      <trkpt lat="45.00399" lon="6.38212">
        <ele>2067.6</ele>
        <time>2024-08-10T13:34:40Z</time>
      </trkpt>
      <trkpt lat="45.00399" lon="6.38212">
        <ele>2067.6</ele>
        <time>2024-08-10T13:34:41Z</time>
      </trkpt>
      <trkpt lat="45.00397" lon="6.38213">
        <ele>2067.6</ele>
        <time>2024-08-10T13:34:42Z</time>
      </trkpt>
      <trkpt lat="45.00397" lon="6.38213">
        <ele>2067.6</ele>
        <time>2024-08-10T13:34:43Z</time>
      </trkpt>
      <trkpt lat="45.00395" lon="6.38214">
        <ele>2068</ele>
        <time>2024-08-10T13:34:44Z</time>
      </trkpt>
      <trkpt lat="45.00395" lon="6.38214">
        <ele>2068</ele>
        <time>2024-08-10T13:34:45Z</time>
      </trkpt>
      <trkpt lat="45.00393" lon="6.38214">
        <ele>2068</ele>
        <time>2024-08-10T13:34:46Z</time>
      </trkpt>
      <trkpt lat="45.00393" lon="6.38214">
        <ele>2068</ele>
        <time>2024-08-10T13:34:47Z</time>
      </trkpt>
      <trkpt lat="45.00391" lon="6.38215">
        <ele>2068</ele>
        <time>2024-08-10T13:34:48Z</time>
      </trkpt>
      <trkpt lat="45.00391" lon="6.38215">
        <ele>2068</ele>
        <time>2024-08-10T13:34:49Z</time>
      </trkpt>
      <trkpt lat="45.00391" lon="6.38215">
        <ele>2068.2</ele>
        <time>2024-08-10T13:34:50Z</time>
      </trkpt>
      <trkpt lat="45.00389" lon="6.38218">
        <ele>2068.4</ele>
        <time>2024-08-10T13:34:51Z</time>
      </trkpt>
      <trkpt lat="45.00389" lon="6.38218">
        <ele>2068.6</ele>
        <time>2024-08-10T13:34:52Z</time>
      </trkpt>
      <trkpt lat="45.00387" lon="6.38219">
        <ele>2068.6</ele>
        <time>2024-08-10T13:34:53Z</time>
      </trkpt>
      <trkpt lat="45.00387" lon="6.38219">
        <ele>2068.6</ele>
        <time>2024-08-10T13:34:54Z</time>
      </trkpt>
      <trkpt lat="45.00385" lon="6.38221">
        <ele>2068.6</ele>
        <time>2024-08-10T13:34:55Z</time>
      </trkpt>
      <trkpt lat="45.00385" lon="6.38221">
        <ele>2068.8</ele>
        <time>2024-08-10T13:34:56Z</time>
      </trkpt>
      <trkpt lat="45.00383" lon="6.38223">
        <ele>2069</ele>
        <time>2024-08-10T13:34:57Z</time>
      </trkpt>
      <trkpt lat="45.00383" lon="6.38223">
        <ele>2069</ele>
        <time>2024-08-10T13:34:58Z</time>
      </trkpt>
      <trkpt lat="45.00381" lon="6.38226">
        <ele>2069</ele>
        <time>2024-08-10T13:34:59Z</time>
      </trkpt>
      <trkpt lat="45.00381" lon="6.38226">
        <ele>2069</ele>
        <time>2024-08-10T13:35:00Z</time>
      </trkpt>
      <trkpt lat="45.00379" lon="6.38229">
        <ele>2068.8</ele>
        <time>2024-08-10T13:35:01Z</time>
      </trkpt>
      <trkpt lat="45.00379" lon="6.38229">
        <ele>2068.8</ele>
        <time>2024-08-10T13:35:02Z</time>
      </trkpt>
      <trkpt lat="45.00377" lon="6.3823">
        <ele>2068.4</ele>
        <time>2024-08-10T13:35:03Z</time>
      </trkpt>
      <trkpt lat="45.00377" lon="6.3823">
        <ele>2068.4</ele>
        <time>2024-08-10T13:35:04Z</time>
      </trkpt>
      <trkpt lat="45.00375" lon="6.3823">
        <ele>2068.6</ele>
        <time>2024-08-10T13:35:05Z</time>
      </trkpt>
      <trkpt lat="45.00375" lon="6.3823">
        <ele>2068.6</ele>
        <time>2024-08-10T13:35:06Z</time>
      </trkpt>
      <trkpt lat="45.00375" lon="6.3823">
        <ele>2068.6</ele>
        <time>2024-08-10T13:35:07Z</time>
      </trkpt>
      <trkpt lat="45.00373" lon="6.38231">
        <ele>2068.8</ele>
        <time>2024-08-10T13:35:08Z</time>
      </trkpt>
      <trkpt lat="45.00373" lon="6.38231">
        <ele>2069</ele>
        <time>2024-08-10T13:35:09Z</time>
      </trkpt>
      <trkpt lat="45.00371" lon="6.38231">
        <ele>2069.2</ele>
        <time>2024-08-10T13:35:10Z</time>
      </trkpt>
      <trkpt lat="45.00371" lon="6.38231">
        <ele>2069.8</ele>
        <time>2024-08-10T13:35:11Z</time>
      </trkpt>
      <trkpt lat="45.00369" lon="6.38232">
        <ele>2070.2</ele>
        <time>2024-08-10T13:35:12Z</time>
      </trkpt>
      <trkpt lat="45.00369" lon="6.38232">
        <ele>2070.2</ele>
        <time>2024-08-10T13:35:13Z</time>
      </trkpt>
      <trkpt lat="45.00367" lon="6.38233">
        <ele>2070.6</ele>
        <time>2024-08-10T13:35:14Z</time>
      </trkpt>
      <trkpt lat="45.00367" lon="6.38233">
        <ele>2070.8</ele>
        <time>2024-08-10T13:35:15Z</time>
      </trkpt>
      <trkpt lat="45.00365" lon="6.38233">
        <ele>2071</ele>
        <time>2024-08-10T13:35:16Z</time>
      </trkpt>
      <trkpt lat="45.00365" lon="6.38233">
        <ele>2071.2</ele>
        <time>2024-08-10T13:35:17Z</time>
      </trkpt>
      <trkpt lat="45.00362" lon="6.38233">
        <ele>2071.2</ele>
        <time>2024-08-10T13:35:18Z</time>
      </trkpt>
      <trkpt lat="45.00362" lon="6.38233">
        <ele>2071.4</ele>
        <time>2024-08-10T13:35:19Z</time>
      </trkpt>
      <trkpt lat="45.0036" lon="6.38234">
        <ele>2071.6</ele>
        <time>2024-08-10T13:35:20Z</time>
      </trkpt>
      <trkpt lat="45.0036" lon="6.38234">
        <ele>2071.8</ele>
        <time>2024-08-10T13:35:21Z</time>
      </trkpt>
      <trkpt lat="45.00358" lon="6.38235">
        <ele>2071.8</ele>
        <time>2024-08-10T13:35:22Z</time>
      </trkpt>
      <trkpt lat="45.00358" lon="6.38235">
        <ele>2071.8</ele>
        <time>2024-08-10T13:35:23Z</time>
      </trkpt>
      <trkpt lat="45.00356" lon="6.38236">
        <ele>2071.6</ele>
        <time>2024-08-10T13:35:24Z</time>
      </trkpt>
      <trkpt lat="45.00356" lon="6.38236">
        <ele>2071.2</ele>
        <time>2024-08-10T13:35:25Z</time>
      </trkpt>
      <trkpt lat="45.00354" lon="6.38237">
        <ele>2071</ele>
        <time>2024-08-10T13:35:26Z</time>
      </trkpt>
      <trkpt lat="45.00354" lon="6.38237">
        <ele>2071</ele>
        <time>2024-08-10T13:35:27Z</time>
      </trkpt>
      <trkpt lat="45.00352" lon="6.38238">
        <ele>2071.4</ele>
        <time>2024-08-10T13:35:28Z</time>
      </trkpt>
      <trkpt lat="45.00352" lon="6.38238">
        <ele>2071.4</ele>
        <time>2024-08-10T13:35:29Z</time>
      </trkpt>
      <trkpt lat="45.0035" lon="6.3824">
        <ele>2071.4</ele>
        <time>2024-08-10T13:35:30Z</time>
      </trkpt>
      <trkpt lat="45.0035" lon="6.3824">
        <ele>2071.6</ele>
        <time>2024-08-10T13:35:31Z</time>
      </trkpt>
      <trkpt lat="45.00347" lon="6.38241">
        <ele>2071.6</ele>
        <time>2024-08-10T13:35:32Z</time>
      </trkpt>
      <trkpt lat="45.00347" lon="6.38241">
        <ele>2071.6</ele>
        <time>2024-08-10T13:35:33Z</time>
      </trkpt>
      <trkpt lat="45.00345" lon="6.38242">
        <ele>2071.8</ele>
        <time>2024-08-10T13:35:34Z</time>
      </trkpt>
      <trkpt lat="45.00345" lon="6.38242">
        <ele>2071.8</ele>
        <time>2024-08-10T13:35:35Z</time>
      </trkpt>
      <trkpt lat="45.00342" lon="6.38243">
        <ele>2071.8</ele>
        <time>2024-08-10T13:35:36Z</time>
      </trkpt>
      <trkpt lat="45.00342" lon="6.38243">
        <ele>2071.8</ele>
        <time>2024-08-10T13:35:37Z</time>
      </trkpt>
      <trkpt lat="45.0034" lon="6.38244">
        <ele>2072</ele>
        <time>2024-08-10T13:35:38Z</time>
      </trkpt>
      <trkpt lat="45.0034" lon="6.38244">
        <ele>2072</ele>
        <time>2024-08-10T13:35:39Z</time>
      </trkpt>
      <trkpt lat="45.00338" lon="6.38245">
        <ele>2072.4</ele>
        <time>2024-08-10T13:35:40Z</time>
      </trkpt>
      <trkpt lat="45.00338" lon="6.38245">
        <ele>2072.4</ele>
        <time>2024-08-10T13:35:41Z</time>
      </trkpt>
      <trkpt lat="45.00336" lon="6.38247">
        <ele>2072.4</ele>
        <time>2024-08-10T13:35:42Z</time>
      </trkpt>
      <trkpt lat="45.00336" lon="6.38247">
        <ele>2072.4</ele>
        <time>2024-08-10T13:35:43Z</time>
      </trkpt>
      <trkpt lat="45.00333" lon="6.38248">
        <ele>2072.4</ele>
        <time>2024-08-10T13:35:44Z</time>
      </trkpt>
      <trkpt lat="45.00333" lon="6.38248">
        <ele>2072.6</ele>
        <time>2024-08-10T13:35:45Z</time>
      </trkpt>
      <trkpt lat="45.00331" lon="6.3825">
        <ele>2072.8</ele>
        <time>2024-08-10T13:35:46Z</time>
      </trkpt>
      <trkpt lat="45.00331" lon="6.3825">
        <ele>2072.8</ele>
        <time>2024-08-10T13:35:47Z</time>
      </trkpt>
      <trkpt lat="45.00329" lon="6.38252">
        <ele>2072.8</ele>
        <time>2024-08-10T13:35:48Z</time>
      </trkpt>
      <trkpt lat="45.00329" lon="6.38252">
        <ele>2072.8</ele>
        <time>2024-08-10T13:35:49Z</time>
      </trkpt>
      <trkpt lat="45.00326" lon="6.38254">
        <ele>2072.8</ele>
        <time>2024-08-10T13:35:50Z</time>
      </trkpt>
      <trkpt lat="45.00326" lon="6.38254">
        <ele>2072.8</ele>
        <time>2024-08-10T13:35:51Z</time>
      </trkpt>
      <trkpt lat="45.00324" lon="6.38256">
        <ele>2072.8</ele>
        <time>2024-08-10T13:35:52Z</time>
      </trkpt>
      <trkpt lat="45.00324" lon="6.38256">
        <ele>2072.8</ele>
        <time>2024-08-10T13:35:53Z</time>
      </trkpt>
      <trkpt lat="45.00322" lon="6.38257">
        <ele>2072.8</ele>
        <time>2024-08-10T13:35:54Z</time>
      </trkpt>
      <trkpt lat="45.00322" lon="6.38257">
        <ele>2073.2</ele>
        <time>2024-08-10T13:35:55Z</time>
      </trkpt>
      <trkpt lat="45.0032" lon="6.38259">
        <ele>2073.2</ele>
        <time>2024-08-10T13:35:56Z</time>
      </trkpt>
      <trkpt lat="45.0032" lon="6.38259">
        <ele>2073.2</ele>
        <time>2024-08-10T13:35:57Z</time>
      </trkpt>
      <trkpt lat="45.00318" lon="6.3826">
        <ele>2073.2</ele>
        <time>2024-08-10T13:35:58Z</time>
      </trkpt>
      <trkpt lat="45.00318" lon="6.3826">
        <ele>2073.2</ele>
        <time>2024-08-10T13:35:59Z</time>
      </trkpt>
      <trkpt lat="45.00316" lon="6.38262">
        <ele>2073.6</ele>
        <time>2024-08-10T13:36:00Z</time>
      </trkpt>
      <trkpt lat="45.00316" lon="6.38262">
        <ele>2073.6</ele>
        <time>2024-08-10T13:36:01Z</time>
      </trkpt>
      <trkpt lat="45.00314" lon="6.38263">
        <ele>2073.6</ele>
        <time>2024-08-10T13:36:02Z</time>
      </trkpt>
      <trkpt lat="45.00314" lon="6.38263">
        <ele>2074</ele>
        <time>2024-08-10T13:36:03Z</time>
      </trkpt>
      <trkpt lat="45.00313" lon="6.38265">
        <ele>2074</ele>
        <time>2024-08-10T13:36:04Z</time>
      </trkpt>
      <trkpt lat="45.00313" lon="6.38265">
        <ele>2074</ele>
        <time>2024-08-10T13:36:05Z</time>
      </trkpt>
      <trkpt lat="45.0031" lon="6.38267">
        <ele>2073.8</ele>
        <time>2024-08-10T13:36:06Z</time>
      </trkpt>
      <trkpt lat="45.0031" lon="6.38267">
        <ele>2073.8</ele>
        <time>2024-08-10T13:36:07Z</time>
      </trkpt>
      <trkpt lat="45.0031" lon="6.38267">
        <ele>2073.8</ele>
        <time>2024-08-10T13:36:08Z</time>
      </trkpt>
      <trkpt lat="45.00308" lon="6.38269">
        <ele>2074.2</ele>
        <time>2024-08-10T13:36:09Z</time>
      </trkpt>
      <trkpt lat="45.00308" lon="6.38269">
        <ele>2074.2</ele>
        <time>2024-08-10T13:36:10Z</time>
      </trkpt>
      <trkpt lat="45.00306" lon="6.38271">
        <ele>2074.2</ele>
        <time>2024-08-10T13:36:11Z</time>
      </trkpt>
      <trkpt lat="45.00306" lon="6.38271">
        <ele>2074.4</ele>
        <time>2024-08-10T13:36:12Z</time>
      </trkpt>
      <trkpt lat="45.00304" lon="6.38273">
        <ele>2074.4</ele>
        <time>2024-08-10T13:36:13Z</time>
      </trkpt>
      <trkpt lat="45.00304" lon="6.38273">
        <ele>2074.2</ele>
        <time>2024-08-10T13:36:14Z</time>
      </trkpt>
      <trkpt lat="45.00301" lon="6.38275">
        <ele>2074</ele>
        <time>2024-08-10T13:36:15Z</time>
      </trkpt>
      <trkpt lat="45.00301" lon="6.38275">
        <ele>2074</ele>
        <time>2024-08-10T13:36:16Z</time>
      </trkpt>
      <trkpt lat="45.003" lon="6.38276">
        <ele>2074.2</ele>
        <time>2024-08-10T13:36:17Z</time>
      </trkpt>
      <trkpt lat="45.003" lon="6.38276">
        <ele>2074.4</ele>
        <time>2024-08-10T13:36:18Z</time>
      </trkpt>
      <trkpt lat="45.00298" lon="6.38278">
        <ele>2074.4</ele>
        <time>2024-08-10T13:36:19Z</time>
      </trkpt>
      <trkpt lat="45.00298" lon="6.38278">
        <ele>2074.6</ele>
        <time>2024-08-10T13:36:20Z</time>
      </trkpt>
      <trkpt lat="45.00296" lon="6.3828">
        <ele>2074.6</ele>
        <time>2024-08-10T13:36:21Z</time>
      </trkpt>
      <trkpt lat="45.00296" lon="6.3828">
        <ele>2074.6</ele>
        <time>2024-08-10T13:36:22Z</time>
      </trkpt>
      <trkpt lat="45.00296" lon="6.3828">
        <ele>2074.6</ele>
        <time>2024-08-10T13:36:23Z</time>
      </trkpt>
      <trkpt lat="45.00294" lon="6.38282">
        <ele>2074.8</ele>
        <time>2024-08-10T13:36:24Z</time>
      </trkpt>
      <trkpt lat="45.00294" lon="6.38282">
        <ele>2074.8</ele>
        <time>2024-08-10T13:36:25Z</time>
      </trkpt>
      <trkpt lat="45.00294" lon="6.38282">
        <ele>2074.8</ele>
        <time>2024-08-10T13:36:26Z</time>
      </trkpt>
      <trkpt lat="45.00292" lon="6.38283">
        <ele>2075.2</ele>
        <time>2024-08-10T13:36:27Z</time>
      </trkpt>
      <trkpt lat="45.00292" lon="6.38283">
        <ele>2075.4</ele>
        <time>2024-08-10T13:36:28Z</time>
      </trkpt>
      <trkpt lat="45.00289" lon="6.38284">
        <ele>2075.6</ele>
        <time>2024-08-10T13:36:29Z</time>
      </trkpt>
      <trkpt lat="45.00289" lon="6.38284">
        <ele>2076</ele>
        <time>2024-08-10T13:36:30Z</time>
      </trkpt>
      <trkpt lat="45.00287" lon="6.38286">
        <ele>2076.2</ele>
        <time>2024-08-10T13:36:31Z</time>
      </trkpt>
      <trkpt lat="45.00287" lon="6.38286">
        <ele>2076.2</ele>
        <time>2024-08-10T13:36:32Z</time>
      </trkpt>
      <trkpt lat="45.00285" lon="6.38287">
        <ele>2076.4</ele>
        <time>2024-08-10T13:36:33Z</time>
      </trkpt>
      <trkpt lat="45.00285" lon="6.38287">
        <ele>2076.2</ele>
        <time>2024-08-10T13:36:34Z</time>
      </trkpt>
      <trkpt lat="45.00283" lon="6.38288">
        <ele>2076.2</ele>
        <time>2024-08-10T13:36:35Z</time>
      </trkpt>
      <trkpt lat="45.00283" lon="6.38288">
        <ele>2076.2</ele>
        <time>2024-08-10T13:36:36Z</time>
      </trkpt>
      <trkpt lat="45.00281" lon="6.38291">
        <ele>2076.4</ele>
        <time>2024-08-10T13:36:37Z</time>
      </trkpt>
      <trkpt lat="45.00281" lon="6.38291">
        <ele>2076.4</ele>
        <time>2024-08-10T13:36:38Z</time>
      </trkpt>
      <trkpt lat="45.00279" lon="6.38293">
        <ele>2076.4</ele>
        <time>2024-08-10T13:36:39Z</time>
      </trkpt>
      <trkpt lat="45.00279" lon="6.38293">
        <ele>2076.6</ele>
        <time>2024-08-10T13:36:40Z</time>
      </trkpt>
      <trkpt lat="45.00276" lon="6.38294">
        <ele>2076.8</ele>
        <time>2024-08-10T13:36:41Z</time>
      </trkpt>
      <trkpt lat="45.00276" lon="6.38294">
        <ele>2076.8</ele>
        <time>2024-08-10T13:36:42Z</time>
      </trkpt>
      <trkpt lat="45.00274" lon="6.38294">
        <ele>2076.8</ele>
        <time>2024-08-10T13:36:43Z</time>
      </trkpt>
      <trkpt lat="45.00274" lon="6.38294">
        <ele>2076.8</ele>
        <time>2024-08-10T13:36:44Z</time>
      </trkpt>
      <trkpt lat="45.00271" lon="6.38295">
        <ele>2076.8</ele>
        <time>2024-08-10T13:36:45Z</time>
      </trkpt>
      <trkpt lat="45.00271" lon="6.38295">
        <ele>2076.6</ele>
        <time>2024-08-10T13:36:46Z</time>
      </trkpt>
      <trkpt lat="45.00269" lon="6.38296">
        <ele>2076.6</ele>
        <time>2024-08-10T13:36:47Z</time>
      </trkpt>
      <trkpt lat="45.00269" lon="6.38296">
        <ele>2077</ele>
        <time>2024-08-10T13:36:48Z</time>
      </trkpt>
      <trkpt lat="45.00266" lon="6.38297">
        <ele>2077</ele>
        <time>2024-08-10T13:36:49Z</time>
      </trkpt>
      <trkpt lat="45.00266" lon="6.38297">
        <ele>2077.2</ele>
        <time>2024-08-10T13:36:50Z</time>
      </trkpt>
      <trkpt lat="45.00264" lon="6.38297">
        <ele>2077.2</ele>
        <time>2024-08-10T13:36:51Z</time>
      </trkpt>
      <trkpt lat="45.00264" lon="6.38297">
        <ele>2077.4</ele>
        <time>2024-08-10T13:36:52Z</time>
      </trkpt>
      <trkpt lat="45.00262" lon="6.38298">
        <ele>2077.4</ele>
        <time>2024-08-10T13:36:53Z</time>
      </trkpt>
      <trkpt lat="45.00262" lon="6.38298">
        <ele>2077.4</ele>
        <time>2024-08-10T13:36:54Z</time>
      </trkpt>
      <trkpt lat="45.0026" lon="6.38299">
        <ele>2077.4</ele>
        <time>2024-08-10T13:36:55Z</time>
      </trkpt>
      <trkpt lat="45.0026" lon="6.38299">
        <ele>2077.4</ele>
        <time>2024-08-10T13:36:56Z</time>
      </trkpt>
      <trkpt lat="45.00258" lon="6.38301">
        <ele>2077.4</ele>
        <time>2024-08-10T13:36:57Z</time>
      </trkpt>
      <trkpt lat="45.00258" lon="6.38301">
        <ele>2077.8</ele>
        <time>2024-08-10T13:36:58Z</time>
      </trkpt>
      <trkpt lat="45.00255" lon="6.38302">
        <ele>2078</ele>
        <time>2024-08-10T13:36:59Z</time>
      </trkpt>
      <trkpt lat="45.00255" lon="6.38302">
        <ele>2078.2</ele>
        <time>2024-08-10T13:37:00Z</time>
      </trkpt>
      <trkpt lat="45.00254" lon="6.38304">
        <ele>2078.2</ele>
        <time>2024-08-10T13:37:01Z</time>
      </trkpt>
      <trkpt lat="45.00254" lon="6.38304">
        <ele>2078.2</ele>
        <time>2024-08-10T13:37:02Z</time>
      </trkpt>
      <trkpt lat="45.00252" lon="6.38305">
        <ele>2078.2</ele>
        <time>2024-08-10T13:37:03Z</time>
      </trkpt>
      <trkpt lat="45.00252" lon="6.38305">
        <ele>2078.2</ele>
        <time>2024-08-10T13:37:04Z</time>
      </trkpt>
      <trkpt lat="45.0025" lon="6.38306">
        <ele>2078.2</ele>
        <time>2024-08-10T13:37:05Z</time>
      </trkpt>
      <trkpt lat="45.0025" lon="6.38306">
        <ele>2078.4</ele>
        <time>2024-08-10T13:37:06Z</time>
      </trkpt>
      <trkpt lat="45.00248" lon="6.38307">
        <ele>2078.6</ele>
        <time>2024-08-10T13:37:07Z</time>
      </trkpt>
      <trkpt lat="45.00248" lon="6.38307">
        <ele>2079.2</ele>
        <time>2024-08-10T13:37:08Z</time>
      </trkpt>
      <trkpt lat="45.00245" lon="6.38309">
        <ele>2079.2</ele>
        <time>2024-08-10T13:37:09Z</time>
      </trkpt>
      <trkpt lat="45.00245" lon="6.38309">
        <ele>2079.2</ele>
        <time>2024-08-10T13:37:10Z</time>
      </trkpt>
      <trkpt lat="45.00243" lon="6.38311">
        <ele>2079.2</ele>
        <time>2024-08-10T13:37:11Z</time>
      </trkpt>
      <trkpt lat="45.00243" lon="6.38311">
        <ele>2079.6</ele>
        <time>2024-08-10T13:37:12Z</time>
      </trkpt>
      <trkpt lat="45.00243" lon="6.38311">
        <ele>2079.8</ele>
        <time>2024-08-10T13:37:13Z</time>
      </trkpt>
      <trkpt lat="45.0024" lon="6.38312">
        <ele>2079.8</ele>
        <time>2024-08-10T13:37:14Z</time>
      </trkpt>
      <trkpt lat="45.0024" lon="6.38312">
        <ele>2080</ele>
        <time>2024-08-10T13:37:15Z</time>
      </trkpt>
      <trkpt lat="45.00238" lon="6.38313">
        <ele>2080.2</ele>
        <time>2024-08-10T13:37:16Z</time>
      </trkpt>
      <trkpt lat="45.00238" lon="6.38313">
        <ele>2080.4</ele>
        <time>2024-08-10T13:37:17Z</time>
      </trkpt>
      <trkpt lat="45.00236" lon="6.38315">
        <ele>2080.6</ele>
        <time>2024-08-10T13:37:18Z</time>
      </trkpt>
      <trkpt lat="45.00236" lon="6.38315">
        <ele>2080.6</ele>
        <time>2024-08-10T13:37:19Z</time>
      </trkpt>
      <trkpt lat="45.00234" lon="6.38317">
        <ele>2080.8</ele>
        <time>2024-08-10T13:37:20Z</time>
      </trkpt>
      <trkpt lat="45.00234" lon="6.38317">
        <ele>2080.8</ele>
        <time>2024-08-10T13:37:21Z</time>
      </trkpt>
      <trkpt lat="45.00232" lon="6.38318">
        <ele>2081</ele>
        <time>2024-08-10T13:37:22Z</time>
      </trkpt>
      <trkpt lat="45.00232" lon="6.38318">
        <ele>2081</ele>
        <time>2024-08-10T13:37:23Z</time>
      </trkpt>
      <trkpt lat="45.00229" lon="6.3832">
        <ele>2081.2</ele>
        <time>2024-08-10T13:37:24Z</time>
      </trkpt>
      <trkpt lat="45.00229" lon="6.3832">
        <ele>2081.4</ele>
        <time>2024-08-10T13:37:25Z</time>
      </trkpt>
      <trkpt lat="45.00227" lon="6.38322">
        <ele>2081.4</ele>
        <time>2024-08-10T13:37:26Z</time>
      </trkpt>
      <trkpt lat="45.00227" lon="6.38322">
        <ele>2081.4</ele>
        <time>2024-08-10T13:37:27Z</time>
      </trkpt>
      <trkpt lat="45.00226" lon="6.38324">
        <ele>2081.4</ele>
        <time>2024-08-10T13:37:28Z</time>
      </trkpt>
      <trkpt lat="45.00226" lon="6.38324">
        <ele>2081.4</ele>
        <time>2024-08-10T13:37:29Z</time>
      </trkpt>
      <trkpt lat="45.00223" lon="6.38325">
        <ele>2081.2</ele>
        <time>2024-08-10T13:37:30Z</time>
      </trkpt>
      <trkpt lat="45.00223" lon="6.38325">
        <ele>2081.2</ele>
        <time>2024-08-10T13:37:31Z</time>
      </trkpt>
      <trkpt lat="45.00221" lon="6.38326">
        <ele>2081.2</ele>
        <time>2024-08-10T13:37:32Z</time>
      </trkpt>
      <trkpt lat="45.00221" lon="6.38326">
        <ele>2081.2</ele>
        <time>2024-08-10T13:37:33Z</time>
      </trkpt>
      <trkpt lat="45.00219" lon="6.38328">
        <ele>2081.4</ele>
        <time>2024-08-10T13:37:34Z</time>
      </trkpt>
      <trkpt lat="45.00219" lon="6.38328">
        <ele>2081.4</ele>
        <time>2024-08-10T13:37:35Z</time>
      </trkpt>
      <trkpt lat="45.00219" lon="6.38328">
        <ele>2081.4</ele>
        <time>2024-08-10T13:37:36Z</time>
      </trkpt>
      <trkpt lat="45.00219" lon="6.38328">
        <ele>2081.4</ele>
        <time>2024-08-10T13:37:37Z</time>
      </trkpt>
      <trkpt lat="45.00219" lon="6.38328">
        <ele>2081.8</ele>
        <time>2024-08-10T13:37:38Z</time>
      </trkpt>
      <trkpt lat="45.00219" lon="6.38328">
        <ele>2081.8</ele>
        <time>2024-08-10T13:37:39Z</time>
      </trkpt>
      <trkpt lat="45.00219" lon="6.38328">
        <ele>2081.8</ele>
        <time>2024-08-10T13:37:40Z</time>
      </trkpt>
      <trkpt lat="45.00219" lon="6.38328">
        <ele>2081.8</ele>
        <time>2024-08-10T13:37:41Z</time>
      </trkpt>
      <trkpt lat="45.00219" lon="6.38328">
        <ele>2081.8</ele>
        <time>2024-08-10T13:37:42Z</time>
      </trkpt>
      <trkpt lat="45.00219" lon="6.38328">
        <ele>2082</ele>
        <time>2024-08-10T13:37:43Z</time>
      </trkpt>
      <trkpt lat="45.00219" lon="6.38328">
        <ele>2082</ele>
        <time>2024-08-10T13:37:44Z</time>
      </trkpt>
      <trkpt lat="45.00219" lon="6.38328">
        <ele>2082</ele>
        <time>2024-08-10T13:37:45Z</time>
      </trkpt>
      <trkpt lat="45.00219" lon="6.38328">
        <ele>2082</ele>
        <time>2024-08-10T13:37:46Z</time>
      </trkpt>
      <trkpt lat="45.00219" lon="6.38328">
        <ele>2081.8</ele>
        <time>2024-08-10T13:37:47Z</time>
      </trkpt>
      <trkpt lat="45.00219" lon="6.38328">
        <ele>2081.8</ele>
        <time>2024-08-10T13:37:48Z</time>
      </trkpt>
      <trkpt lat="45.00219" lon="6.38328">
        <ele>2082.2</ele>
        <time>2024-08-10T13:37:49Z</time>
      </trkpt>
      <trkpt lat="45.00219" lon="6.38328">
        <ele>2082.2</ele>
        <time>2024-08-10T13:37:50Z</time>
      </trkpt>
      <trkpt lat="45.00218" lon="6.3833">
        <ele>2082.4</ele>
        <time>2024-08-10T13:37:51Z</time>
      </trkpt>
      <trkpt lat="45.00218" lon="6.3833">
        <ele>2082.6</ele>
        <time>2024-08-10T13:37:52Z</time>
      </trkpt>
      <trkpt lat="45.00216" lon="6.38332">
        <ele>2082.6</ele>
        <time>2024-08-10T13:37:53Z</time>
      </trkpt>
      <trkpt lat="45.00214" lon="6.38333">
        <ele>2082.8</ele>
        <time>2024-08-10T13:37:54Z</time>
      </trkpt>
      <trkpt lat="45.00212" lon="6.38335">
        <ele>2082.8</ele>
        <time>2024-08-10T13:37:55Z</time>
      </trkpt>
      <trkpt lat="45.00212" lon="6.38335">
        <ele>2082.8</ele>
        <time>2024-08-10T13:37:56Z</time>
      </trkpt>
      <trkpt lat="45.00209" lon="6.38336">
        <ele>2082.8</ele>
        <time>2024-08-10T13:37:57Z</time>
      </trkpt>
      <trkpt lat="45.00209" lon="6.38336">
        <ele>2083</ele>
        <time>2024-08-10T13:37:58Z</time>
      </trkpt>
      <trkpt lat="45.00206" lon="6.38338">
        <ele>2083</ele>
        <time>2024-08-10T13:37:59Z</time>
      </trkpt>
      <trkpt lat="45.00206" lon="6.38338">
        <ele>2083</ele>
        <time>2024-08-10T13:38:00Z</time>
      </trkpt>
      <trkpt lat="45.00205" lon="6.3834">
        <ele>2083.2</ele>
        <time>2024-08-10T13:38:01Z</time>
      </trkpt>
      <trkpt lat="45.00205" lon="6.3834">
        <ele>2083.4</ele>
        <time>2024-08-10T13:38:02Z</time>
      </trkpt>
      <trkpt lat="45.00201" lon="6.38342">
        <ele>2083.4</ele>
        <time>2024-08-10T13:38:03Z</time>
      </trkpt>
      <trkpt lat="45.00201" lon="6.38342">
        <ele>2083.4</ele>
        <time>2024-08-10T13:38:04Z</time>
      </trkpt>
      <trkpt lat="45.00199" lon="6.38343">
        <ele>2083.6</ele>
        <time>2024-08-10T13:38:05Z</time>
      </trkpt>
      <trkpt lat="45.00199" lon="6.38343">
        <ele>2083.8</ele>
        <time>2024-08-10T13:38:06Z</time>
      </trkpt>
      <trkpt lat="45.00198" lon="6.38345">
        <ele>2084</ele>
        <time>2024-08-10T13:38:07Z</time>
      </trkpt>
      <trkpt lat="45.00198" lon="6.38345">
        <ele>2084</ele>
        <time>2024-08-10T13:38:08Z</time>
      </trkpt>
      <trkpt lat="45.00195" lon="6.38347">
        <ele>2084.2</ele>
        <time>2024-08-10T13:38:09Z</time>
      </trkpt>
      <trkpt lat="45.00195" lon="6.38347">
        <ele>2084</ele>
        <time>2024-08-10T13:38:10Z</time>
      </trkpt>
      <trkpt lat="45.00195" lon="6.38347">
        <ele>2084.2</ele>
        <time>2024-08-10T13:38:11Z</time>
      </trkpt>
      <trkpt lat="45.00193" lon="6.38348">
        <ele>2084.4</ele>
        <time>2024-08-10T13:38:12Z</time>
      </trkpt>
      <trkpt lat="45.00193" lon="6.38348">
        <ele>2084.4</ele>
        <time>2024-08-10T13:38:13Z</time>
      </trkpt>
      <trkpt lat="45.00193" lon="6.38348">
        <ele>2084.8</ele>
        <time>2024-08-10T13:38:14Z</time>
      </trkpt>
      <trkpt lat="45.0019" lon="6.38349">
        <ele>2084.8</ele>
        <time>2024-08-10T13:38:15Z</time>
      </trkpt>
      <trkpt lat="45.0019" lon="6.38349">
        <ele>2084.8</ele>
        <time>2024-08-10T13:38:16Z</time>
      </trkpt>
      <trkpt lat="45.00189" lon="6.3835">
        <ele>2084.6</ele>
        <time>2024-08-10T13:38:17Z</time>
      </trkpt>
      <trkpt lat="45.00189" lon="6.3835">
        <ele>2084.6</ele>
        <time>2024-08-10T13:38:18Z</time>
      </trkpt>
      <trkpt lat="45.00187" lon="6.38351">
        <ele>2084.8</ele>
        <time>2024-08-10T13:38:19Z</time>
      </trkpt>
      <trkpt lat="45.00187" lon="6.38351">
        <ele>2085</ele>
        <time>2024-08-10T13:38:20Z</time>
      </trkpt>
      <trkpt lat="45.00185" lon="6.38352">
        <ele>2085.2</ele>
        <time>2024-08-10T13:38:21Z</time>
      </trkpt>
      <trkpt lat="45.00185" lon="6.38352">
        <ele>2085.4</ele>
        <time>2024-08-10T13:38:22Z</time>
      </trkpt>
      <trkpt lat="45.00182" lon="6.38353">
        <ele>2085.4</ele>
        <time>2024-08-10T13:38:23Z</time>
      </trkpt>
      <trkpt lat="45.00182" lon="6.38353">
        <ele>2085.6</ele>
        <time>2024-08-10T13:38:24Z</time>
      </trkpt>
      <trkpt lat="45.00181" lon="6.38354">
        <ele>2086</ele>
        <time>2024-08-10T13:38:25Z</time>
      </trkpt>
      <trkpt lat="45.00181" lon="6.38354">
        <ele>2086</ele>
        <time>2024-08-10T13:38:26Z</time>
      </trkpt>
      <trkpt lat="45.00181" lon="6.38354">
        <ele>2086</ele>
        <time>2024-08-10T13:38:27Z</time>
      </trkpt>
      <trkpt lat="45.00178" lon="6.38356">
        <ele>2086.2</ele>
        <time>2024-08-10T13:38:28Z</time>
      </trkpt>
      <trkpt lat="45.00178" lon="6.38356">
        <ele>2086.6</ele>
        <time>2024-08-10T13:38:29Z</time>
      </trkpt>
      <trkpt lat="45.00177" lon="6.38357">
        <ele>2086.8</ele>
        <time>2024-08-10T13:38:30Z</time>
      </trkpt>
      <trkpt lat="45.00177" lon="6.38357">
        <ele>2086.8</ele>
        <time>2024-08-10T13:38:31Z</time>
      </trkpt>
      <trkpt lat="45.00174" lon="6.38358">
        <ele>2086.6</ele>
        <time>2024-08-10T13:38:32Z</time>
      </trkpt>
      <trkpt lat="45.00174" lon="6.38358">
        <ele>2086.6</ele>
        <time>2024-08-10T13:38:33Z</time>
      </trkpt>
      <trkpt lat="45.00172" lon="6.3836">
        <ele>2087</ele>
        <time>2024-08-10T13:38:34Z</time>
      </trkpt>
      <trkpt lat="45.00172" lon="6.3836">
        <ele>2087.2</ele>
        <time>2024-08-10T13:38:35Z</time>
      </trkpt>
      <trkpt lat="45.0017" lon="6.38361">
        <ele>2087.6</ele>
        <time>2024-08-10T13:38:36Z</time>
      </trkpt>
      <trkpt lat="45.0017" lon="6.38361">
        <ele>2087.6</ele>
        <time>2024-08-10T13:38:37Z</time>
      </trkpt>
      <trkpt lat="45.00168" lon="6.38364">
        <ele>2087.6</ele>
        <time>2024-08-10T13:38:38Z</time>
      </trkpt>
      <trkpt lat="45.00168" lon="6.38364">
        <ele>2087.6</ele>
        <time>2024-08-10T13:38:39Z</time>
      </trkpt>
      <trkpt lat="45.00167" lon="6.38365">
        <ele>2088</ele>
        <time>2024-08-10T13:38:40Z</time>
      </trkpt>
      <trkpt lat="45.00167" lon="6.38365">
        <ele>2088</ele>
        <time>2024-08-10T13:38:41Z</time>
      </trkpt>
      <trkpt lat="45.00167" lon="6.38365">
        <ele>2088.2</ele>
        <time>2024-08-10T13:38:42Z</time>
      </trkpt>
      <trkpt lat="45.00165" lon="6.38367">
        <ele>2088.2</ele>
        <time>2024-08-10T13:38:43Z</time>
      </trkpt>
      <trkpt lat="45.00165" lon="6.38367">
        <ele>2088.2</ele>
        <time>2024-08-10T13:38:44Z</time>
      </trkpt>
      <trkpt lat="45.00163" lon="6.38368">
        <ele>2088.4</ele>
        <time>2024-08-10T13:38:45Z</time>
      </trkpt>
      <trkpt lat="45.00163" lon="6.38368">
        <ele>2088.6</ele>
        <time>2024-08-10T13:38:46Z</time>
      </trkpt>
      <trkpt lat="45.00161" lon="6.38368">
        <ele>2088.8</ele>
        <time>2024-08-10T13:38:47Z</time>
      </trkpt>
      <trkpt lat="45.00161" lon="6.38368">
        <ele>2089.2</ele>
        <time>2024-08-10T13:38:48Z</time>
      </trkpt>
      <trkpt lat="45.00158" lon="6.38369">
        <ele>2089.6</ele>
        <time>2024-08-10T13:38:49Z</time>
      </trkpt>
      <trkpt lat="45.00158" lon="6.38369">
        <ele>2089.6</ele>
        <time>2024-08-10T13:38:50Z</time>
      </trkpt>
      <trkpt lat="45.00157" lon="6.3837">
        <ele>2089.8</ele>
        <time>2024-08-10T13:38:51Z</time>
      </trkpt>
      <trkpt lat="45.00157" lon="6.3837">
        <ele>2090.4</ele>
        <time>2024-08-10T13:38:52Z</time>
      </trkpt>
      <trkpt lat="45.00157" lon="6.3837">
        <ele>2090.4</ele>
        <time>2024-08-10T13:38:53Z</time>
      </trkpt>
      <trkpt lat="45.00155" lon="6.38372">
        <ele>2090.4</ele>
        <time>2024-08-10T13:38:54Z</time>
      </trkpt>
      <trkpt lat="45.00155" lon="6.38372">
        <ele>2090.4</ele>
        <time>2024-08-10T13:38:55Z</time>
      </trkpt>
      <trkpt lat="45.00153" lon="6.38374">
        <ele>2090.4</ele>
        <time>2024-08-10T13:38:56Z</time>
      </trkpt>
      <trkpt lat="45.00153" lon="6.38374">
        <ele>2090.6</ele>
        <time>2024-08-10T13:38:57Z</time>
      </trkpt>
      <trkpt lat="45.00152" lon="6.38375">
        <ele>2090.8</ele>
        <time>2024-08-10T13:38:58Z</time>
      </trkpt>
      <trkpt lat="45.00152" lon="6.38375">
        <ele>2091</ele>
        <time>2024-08-10T13:38:59Z</time>
      </trkpt>
      <trkpt lat="45.00152" lon="6.38375">
        <ele>2091</ele>
        <time>2024-08-10T13:39:00Z</time>
      </trkpt>
      <trkpt lat="45.00149" lon="6.38378">
        <ele>2091.2</ele>
        <time>2024-08-10T13:39:01Z</time>
      </trkpt>
      <trkpt lat="45.00149" lon="6.38378">
        <ele>2091.4</ele>
        <time>2024-08-10T13:39:02Z</time>
      </trkpt>
      <trkpt lat="45.00147" lon="6.38379">
        <ele>2092</ele>
        <time>2024-08-10T13:39:03Z</time>
      </trkpt>
      <trkpt lat="45.00147" lon="6.38379">
        <ele>2092</ele>
        <time>2024-08-10T13:39:04Z</time>
      </trkpt>
      <trkpt lat="45.00145" lon="6.3838">
        <ele>2092</ele>
        <time>2024-08-10T13:39:05Z</time>
      </trkpt>
      <trkpt lat="45.00145" lon="6.3838">
        <ele>2091.8</ele>
        <time>2024-08-10T13:39:06Z</time>
      </trkpt>
      <trkpt lat="45.00143" lon="6.38381">
        <ele>2091.8</ele>
        <time>2024-08-10T13:39:07Z</time>
      </trkpt>
      <trkpt lat="45.00143" lon="6.38381">
        <ele>2092.2</ele>
        <time>2024-08-10T13:39:08Z</time>
      </trkpt>
      <trkpt lat="45.00141" lon="6.38383">
        <ele>2092.4</ele>
        <time>2024-08-10T13:39:09Z</time>
      </trkpt>
      <trkpt lat="45.00141" lon="6.38383">
        <ele>2092.4</ele>
        <time>2024-08-10T13:39:10Z</time>
      </trkpt>
      <trkpt lat="45.00139" lon="6.38385">
        <ele>2092.4</ele>
        <time>2024-08-10T13:39:11Z</time>
      </trkpt>
      <trkpt lat="45.00139" lon="6.38385">
        <ele>2092.4</ele>
        <time>2024-08-10T13:39:12Z</time>
      </trkpt>
      <trkpt lat="45.00136" lon="6.38385">
        <ele>2092.6</ele>
        <time>2024-08-10T13:39:13Z</time>
      </trkpt>
      <trkpt lat="45.00136" lon="6.38385">
        <ele>2092.6</ele>
        <time>2024-08-10T13:39:14Z</time>
      </trkpt>
      <trkpt lat="45.00133" lon="6.38387">
        <ele>2092.6</ele>
        <time>2024-08-10T13:39:15Z</time>
      </trkpt>
      <trkpt lat="45.00133" lon="6.38387">
        <ele>2092.6</ele>
        <time>2024-08-10T13:39:16Z</time>
      </trkpt>
      <trkpt lat="45.00132" lon="6.38389">
        <ele>2092.8</ele>
        <time>2024-08-10T13:39:17Z</time>
      </trkpt>
      <trkpt lat="45.00132" lon="6.38389">
        <ele>2093</ele>
        <time>2024-08-10T13:39:18Z</time>
      </trkpt>
      <trkpt lat="45.00129" lon="6.3839">
        <ele>2093</ele>
        <time>2024-08-10T13:39:19Z</time>
      </trkpt>
      <trkpt lat="45.00129" lon="6.3839">
        <ele>2093.2</ele>
        <time>2024-08-10T13:39:20Z</time>
      </trkpt>
      <trkpt lat="45.00126" lon="6.38391">
        <ele>2093.2</ele>
        <time>2024-08-10T13:39:21Z</time>
      </trkpt>
      <trkpt lat="45.00126" lon="6.38391">
        <ele>2093.6</ele>
        <time>2024-08-10T13:39:22Z</time>
      </trkpt>
      <trkpt lat="45.00124" lon="6.38393">
        <ele>2093.6</ele>
        <time>2024-08-10T13:39:23Z</time>
      </trkpt>
      <trkpt lat="45.00124" lon="6.38393">
        <ele>2093.6</ele>
        <time>2024-08-10T13:39:24Z</time>
      </trkpt>
      <trkpt lat="45.00121" lon="6.38395">
        <ele>2093.6</ele>
        <time>2024-08-10T13:39:25Z</time>
      </trkpt>
      <trkpt lat="45.00121" lon="6.38395">
        <ele>2093.6</ele>
        <time>2024-08-10T13:39:26Z</time>
      </trkpt>
      <trkpt lat="45.00121" lon="6.38395">
        <ele>2093.6</ele>
        <time>2024-08-10T13:39:27Z</time>
      </trkpt>
      <trkpt lat="45.00119" lon="6.38395">
        <ele>2093.8</ele>
        <time>2024-08-10T13:39:28Z</time>
      </trkpt>
      <trkpt lat="45.00119" lon="6.38395">
        <ele>2093.8</ele>
        <time>2024-08-10T13:39:29Z</time>
      </trkpt>
      <trkpt lat="45.00117" lon="6.38397">
        <ele>2094</ele>
        <time>2024-08-10T13:39:30Z</time>
      </trkpt>
      <trkpt lat="45.00117" lon="6.38397">
        <ele>2094</ele>
        <time>2024-08-10T13:39:31Z</time>
      </trkpt>
      <trkpt lat="45.00114" lon="6.38399">
        <ele>2094</ele>
        <time>2024-08-10T13:39:32Z</time>
      </trkpt>
      <trkpt lat="45.00114" lon="6.38399">
        <ele>2094</ele>
        <time>2024-08-10T13:39:33Z</time>
      </trkpt>
      <trkpt lat="45.00112" lon="6.38401">
        <ele>2093.8</ele>
        <time>2024-08-10T13:39:34Z</time>
      </trkpt>
      <trkpt lat="45.00112" lon="6.38401">
        <ele>2093.8</ele>
        <time>2024-08-10T13:39:35Z</time>
      </trkpt>
      <trkpt lat="45.00109" lon="6.38403">
        <ele>2093.8</ele>
        <time>2024-08-10T13:39:36Z</time>
      </trkpt>
      <trkpt lat="45.00109" lon="6.38403">
        <ele>2093.8</ele>
        <time>2024-08-10T13:39:37Z</time>
      </trkpt>
      <trkpt lat="45.00107" lon="6.38404">
        <ele>2093.8</ele>
        <time>2024-08-10T13:39:38Z</time>
      </trkpt>
      <trkpt lat="45.00107" lon="6.38404">
        <ele>2093.6</ele>
        <time>2024-08-10T13:39:39Z</time>
      </trkpt>
      <trkpt lat="45.00104" lon="6.38405">
        <ele>2093.8</ele>
        <time>2024-08-10T13:39:40Z</time>
      </trkpt>
      <trkpt lat="45.00104" lon="6.38405">
        <ele>2093.8</ele>
        <time>2024-08-10T13:39:41Z</time>
      </trkpt>
      <trkpt lat="45.00101" lon="6.38405">
        <ele>2093.8</ele>
        <time>2024-08-10T13:39:42Z</time>
      </trkpt>
      <trkpt lat="45.00101" lon="6.38405">
        <ele>2094.2</ele>
        <time>2024-08-10T13:39:43Z</time>
      </trkpt>
      <trkpt lat="45.00099" lon="6.38406">
        <ele>2094.2</ele>
        <time>2024-08-10T13:39:44Z</time>
      </trkpt>
      <trkpt lat="45.00099" lon="6.38406">
        <ele>2094.4</ele>
        <time>2024-08-10T13:39:45Z</time>
      </trkpt>
      <trkpt lat="45.00097" lon="6.38407">
        <ele>2094.6</ele>
        <time>2024-08-10T13:39:46Z</time>
      </trkpt>
      <trkpt lat="45.00097" lon="6.38407">
        <ele>2094.8</ele>
        <time>2024-08-10T13:39:47Z</time>
      </trkpt>
      <trkpt lat="45.00095" lon="6.38408">
        <ele>2095</ele>
        <time>2024-08-10T13:39:48Z</time>
      </trkpt>
      <trkpt lat="45.00095" lon="6.38408">
        <ele>2095.2</ele>
        <time>2024-08-10T13:39:49Z</time>
      </trkpt>
      <trkpt lat="45.00092" lon="6.38409">
        <ele>2095.4</ele>
        <time>2024-08-10T13:39:50Z</time>
      </trkpt>
      <trkpt lat="45.00092" lon="6.38409">
        <ele>2095.6</ele>
        <time>2024-08-10T13:39:51Z</time>
      </trkpt>
      <trkpt lat="45.0009" lon="6.38409">
        <ele>2095.8</ele>
        <time>2024-08-10T13:39:52Z</time>
      </trkpt>
      <trkpt lat="45.0009" lon="6.38409">
        <ele>2095.8</ele>
        <time>2024-08-10T13:39:53Z</time>
      </trkpt>
      <trkpt lat="45.00087" lon="6.3841">
        <ele>2095.8</ele>
        <time>2024-08-10T13:39:54Z</time>
      </trkpt>
      <trkpt lat="45.00087" lon="6.3841">
        <ele>2095.8</ele>
        <time>2024-08-10T13:39:55Z</time>
      </trkpt>
      <trkpt lat="45.00084" lon="6.38411">
        <ele>2096</ele>
        <time>2024-08-10T13:39:56Z</time>
      </trkpt>
      <trkpt lat="45.00084" lon="6.38411">
        <ele>2096</ele>
        <time>2024-08-10T13:39:57Z</time>
      </trkpt>
      <trkpt lat="45.00082" lon="6.38412">
        <ele>2095.8</ele>
        <time>2024-08-10T13:39:58Z</time>
      </trkpt>
      <trkpt lat="45.00082" lon="6.38412">
        <ele>2095.6</ele>
        <time>2024-08-10T13:39:59Z</time>
      </trkpt>
      <trkpt lat="45.00079" lon="6.38414">
        <ele>2095.4</ele>
        <time>2024-08-10T13:40:00Z</time>
      </trkpt>
      <trkpt lat="45.00079" lon="6.38414">
        <ele>2095.4</ele>
        <time>2024-08-10T13:40:01Z</time>
      </trkpt>
      <trkpt lat="45.00077" lon="6.38415">
        <ele>2094.6</ele>
        <time>2024-08-10T13:40:02Z</time>
      </trkpt>
      <trkpt lat="45.00077" lon="6.38415">
        <ele>2094.6</ele>
        <time>2024-08-10T13:40:03Z</time>
      </trkpt>
      <trkpt lat="45.00074" lon="6.38416">
        <ele>2094.4</ele>
        <time>2024-08-10T13:40:04Z</time>
      </trkpt>
      <trkpt lat="45.00074" lon="6.38416">
        <ele>2094</ele>
        <time>2024-08-10T13:40:05Z</time>
      </trkpt>
      <trkpt lat="45.00072" lon="6.38417">
        <ele>2094</ele>
        <time>2024-08-10T13:40:06Z</time>
      </trkpt>
      <trkpt lat="45.00072" lon="6.38417">
        <ele>2094</ele>
        <time>2024-08-10T13:40:07Z</time>
      </trkpt>
      <trkpt lat="45.0007" lon="6.38418">
        <ele>2093.8</ele>
        <time>2024-08-10T13:40:08Z</time>
      </trkpt>
      <trkpt lat="45.0007" lon="6.38418">
        <ele>2093.6</ele>
        <time>2024-08-10T13:40:09Z</time>
      </trkpt>
      <trkpt lat="45.00068" lon="6.3842">
        <ele>2093.6</ele>
        <time>2024-08-10T13:40:10Z</time>
      </trkpt>
      <trkpt lat="45.00068" lon="6.3842">
        <ele>2093.4</ele>
        <time>2024-08-10T13:40:11Z</time>
      </trkpt>
      <trkpt lat="45.00065" lon="6.38421">
        <ele>2093.2</ele>
        <time>2024-08-10T13:40:12Z</time>
      </trkpt>
      <trkpt lat="45.00065" lon="6.38421">
        <ele>2093.2</ele>
        <time>2024-08-10T13:40:13Z</time>
      </trkpt>
      <trkpt lat="45.00064" lon="6.38423">
        <ele>2093</ele>
        <time>2024-08-10T13:40:14Z</time>
      </trkpt>
      <trkpt lat="45.00064" lon="6.38423">
        <ele>2092.4</ele>
        <time>2024-08-10T13:40:15Z</time>
      </trkpt>
      <trkpt lat="45.00061" lon="6.38425">
        <ele>2092.4</ele>
        <time>2024-08-10T13:40:16Z</time>
      </trkpt>
      <trkpt lat="45.00061" lon="6.38425">
        <ele>2092.4</ele>
        <time>2024-08-10T13:40:17Z</time>
      </trkpt>
      <trkpt lat="45.0006" lon="6.38426">
        <ele>2091.8</ele>
        <time>2024-08-10T13:40:18Z</time>
      </trkpt>
      <trkpt lat="45.0006" lon="6.38426">
        <ele>2091.8</ele>
        <time>2024-08-10T13:40:19Z</time>
      </trkpt>
      <trkpt lat="45.00058" lon="6.38429">
        <ele>2091.4</ele>
        <time>2024-08-10T13:40:20Z</time>
      </trkpt>
      <trkpt lat="45.00058" lon="6.38429">
        <ele>2091.2</ele>
        <time>2024-08-10T13:40:21Z</time>
      </trkpt>
      <trkpt lat="45.00056" lon="6.38431">
        <ele>2091</ele>
        <time>2024-08-10T13:40:22Z</time>
      </trkpt>
      <trkpt lat="45.00056" lon="6.38431">
        <ele>2090.8</ele>
        <time>2024-08-10T13:40:23Z</time>
      </trkpt>
      <trkpt lat="45.00053" lon="6.38433">
        <ele>2090.8</ele>
        <time>2024-08-10T13:40:24Z</time>
      </trkpt>
      <trkpt lat="45.00053" lon="6.38433">
        <ele>2090.8</ele>
        <time>2024-08-10T13:40:25Z</time>
      </trkpt>
      <trkpt lat="45.00052" lon="6.38435">
        <ele>2090.6</ele>
        <time>2024-08-10T13:40:26Z</time>
      </trkpt>
      <trkpt lat="45.00052" lon="6.38435">
        <ele>2090.6</ele>
        <time>2024-08-10T13:40:27Z</time>
      </trkpt>
      <trkpt lat="45.00049" lon="6.38438">
        <ele>2090.4</ele>
        <time>2024-08-10T13:40:28Z</time>
      </trkpt>
      <trkpt lat="45.00049" lon="6.38438">
        <ele>2090.4</ele>
        <time>2024-08-10T13:40:29Z</time>
      </trkpt>
      <trkpt lat="45.00047" lon="6.3844">
        <ele>2090</ele>
        <time>2024-08-10T13:40:30Z</time>
      </trkpt>
      <trkpt lat="45.00047" lon="6.3844">
        <ele>2089.8</ele>
        <time>2024-08-10T13:40:31Z</time>
      </trkpt>
      <trkpt lat="45.00045" lon="6.38442">
        <ele>2089.6</ele>
        <time>2024-08-10T13:40:32Z</time>
      </trkpt>
      <trkpt lat="45.00045" lon="6.38442">
        <ele>2089.4</ele>
        <time>2024-08-10T13:40:33Z</time>
      </trkpt>
      <trkpt lat="45.00043" lon="6.38444">
        <ele>2089.4</ele>
        <time>2024-08-10T13:40:34Z</time>
      </trkpt>
      <trkpt lat="45.00043" lon="6.38444">
        <ele>2089.4</ele>
        <time>2024-08-10T13:40:35Z</time>
      </trkpt>
      <trkpt lat="45.00041" lon="6.38447">
        <ele>2089.4</ele>
        <time>2024-08-10T13:40:36Z</time>
      </trkpt>
      <trkpt lat="45.00041" lon="6.38447">
        <ele>2089.4</ele>
        <time>2024-08-10T13:40:37Z</time>
      </trkpt>
      <trkpt lat="45.00038" lon="6.38449">
        <ele>2089.4</ele>
        <time>2024-08-10T13:40:38Z</time>
      </trkpt>
      <trkpt lat="45.00038" lon="6.38449">
        <ele>2089</ele>
        <time>2024-08-10T13:40:39Z</time>
      </trkpt>
      <trkpt lat="45.00037" lon="6.38452">
        <ele>2089</ele>
        <time>2024-08-10T13:40:40Z</time>
      </trkpt>
      <trkpt lat="45.00037" lon="6.38452">
        <ele>2089</ele>
        <time>2024-08-10T13:40:41Z</time>
      </trkpt>
      <trkpt lat="45.00034" lon="6.38454">
        <ele>2089</ele>
        <time>2024-08-10T13:40:42Z</time>
      </trkpt>
      <trkpt lat="45.00034" lon="6.38454">
        <ele>2088.8</ele>
        <time>2024-08-10T13:40:43Z</time>
      </trkpt>
      <trkpt lat="45.00032" lon="6.38456">
        <ele>2088.6</ele>
        <time>2024-08-10T13:40:44Z</time>
      </trkpt>
      <trkpt lat="45.00032" lon="6.38456">
        <ele>2088.4</ele>
        <time>2024-08-10T13:40:45Z</time>
      </trkpt>
      <trkpt lat="45.0003" lon="6.38457">
        <ele>2088.4</ele>
        <time>2024-08-10T13:40:46Z</time>
      </trkpt>
      <trkpt lat="45.0003" lon="6.38457">
        <ele>2088.2</ele>
        <time>2024-08-10T13:40:47Z</time>
      </trkpt>
      <trkpt lat="45.00028" lon="6.38459">
        <ele>2088.2</ele>
        <time>2024-08-10T13:40:48Z</time>
      </trkpt>
      <trkpt lat="45.00028" lon="6.38459">
        <ele>2088.2</ele>
        <time>2024-08-10T13:40:49Z</time>
      </trkpt>
      <trkpt lat="45.00025" lon="6.38459">
        <ele>2088.2</ele>
        <time>2024-08-10T13:40:50Z</time>
      </trkpt>
      <trkpt lat="45.00025" lon="6.38459">
        <ele>2088</ele>
        <time>2024-08-10T13:40:51Z</time>
      </trkpt>
      <trkpt lat="45.00022" lon="6.3846">
        <ele>2087.8</ele>
        <time>2024-08-10T13:40:52Z</time>
      </trkpt>
      <trkpt lat="45.00022" lon="6.3846">
        <ele>2087.6</ele>
        <time>2024-08-10T13:40:53Z</time>
      </trkpt>
      <trkpt lat="45.0002" lon="6.38462">
        <ele>2087.6</ele>
        <time>2024-08-10T13:40:54Z</time>
      </trkpt>
      <trkpt lat="45.0002" lon="6.38462">
        <ele>2087.4</ele>
        <time>2024-08-10T13:40:55Z</time>
      </trkpt>
      <trkpt lat="45.00018" lon="6.38464">
        <ele>2087.2</ele>
        <time>2024-08-10T13:40:56Z</time>
      </trkpt>
      <trkpt lat="45.00018" lon="6.38464">
        <ele>2087</ele>
        <time>2024-08-10T13:40:57Z</time>
      </trkpt>
      <trkpt lat="45.00015" lon="6.38465">
        <ele>2087</ele>
        <time>2024-08-10T13:40:58Z</time>
      </trkpt>
      <trkpt lat="45.00015" lon="6.38465">
        <ele>2087</ele>
        <time>2024-08-10T13:40:59Z</time>
      </trkpt>
      <trkpt lat="45.00013" lon="6.38467">
        <ele>2087</ele>
        <time>2024-08-10T13:41:00Z</time>
      </trkpt>
      <trkpt lat="45.00013" lon="6.38467">
        <ele>2087.2</ele>
        <time>2024-08-10T13:41:01Z</time>
      </trkpt>
      <trkpt lat="45.0001" lon="6.38466">
        <ele>2087.2</ele>
        <time>2024-08-10T13:41:02Z</time>
      </trkpt>
      <trkpt lat="45.0001" lon="6.38466">
        <ele>2087</ele>
        <time>2024-08-10T13:41:03Z</time>
      </trkpt>
      <trkpt lat="45.00008" lon="6.38467">
        <ele>2087</ele>
        <time>2024-08-10T13:41:04Z</time>
      </trkpt>
      <trkpt lat="45.00008" lon="6.38467">
        <ele>2087</ele>
        <time>2024-08-10T13:41:05Z</time>
      </trkpt>
      <trkpt lat="45.00005" lon="6.38468">
        <ele>2086.4</ele>
        <time>2024-08-10T13:41:06Z</time>
      </trkpt>
      <trkpt lat="45.00005" lon="6.38468">
        <ele>2086.4</ele>
        <time>2024-08-10T13:41:07Z</time>
      </trkpt>
      <trkpt lat="45.00004" lon="6.38468">
        <ele>2086.2</ele>
        <time>2024-08-10T13:41:08Z</time>
      </trkpt>
      <trkpt lat="45.00004" lon="6.38468">
        <ele>2086.4</ele>
        <time>2024-08-10T13:41:09Z</time>
      </trkpt>
      <trkpt lat="45.00001" lon="6.38469">
        <ele>2086.2</ele>
        <time>2024-08-10T13:41:10Z</time>
      </trkpt>
      <trkpt lat="45.00001" lon="6.38469">
        <ele>2086.2</ele>
        <time>2024-08-10T13:41:11Z</time>
      </trkpt>
      <trkpt lat="44.99998" lon="6.3847">
        <ele>2086</ele>
        <time>2024-08-10T13:41:12Z</time>
      </trkpt>
      <trkpt lat="44.99998" lon="6.3847">
        <ele>2086.2</ele>
        <time>2024-08-10T13:41:13Z</time>
      </trkpt>
      <trkpt lat="44.99996" lon="6.38471">
        <ele>2086.2</ele>
        <time>2024-08-10T13:41:14Z</time>
      </trkpt>
      <trkpt lat="44.99996" lon="6.38471">
        <ele>2086</ele>
        <time>2024-08-10T13:41:15Z</time>
      </trkpt>
      <trkpt lat="44.99996" lon="6.38471">
        <ele>2086</ele>
        <time>2024-08-10T13:41:16Z</time>
      </trkpt>
      <trkpt lat="44.99996" lon="6.38471">
        <ele>2086</ele>
        <time>2024-08-10T13:41:17Z</time>
      </trkpt>
      <trkpt lat="44.99996" lon="6.38471">
        <ele>2085.8</ele>
        <time>2024-08-10T13:41:18Z</time>
      </trkpt>
      <trkpt lat="44.99996" lon="6.38471">
        <ele>2085.6</ele>
        <time>2024-08-10T13:41:19Z</time>
      </trkpt>
      <trkpt lat="44.99996" lon="6.38471">
        <ele>2085.6</ele>
        <time>2024-08-10T13:41:20Z</time>
      </trkpt>
      <trkpt lat="44.99996" lon="6.38471">
        <ele>2085.6</ele>
        <time>2024-08-10T13:41:21Z</time>
      </trkpt>
      <trkpt lat="44.99996" lon="6.38471">
        <ele>2085.4</ele>
        <time>2024-08-10T13:41:22Z</time>
      </trkpt>
      <trkpt lat="44.99996" lon="6.38471">
        <ele>2085.4</ele>
        <time>2024-08-10T13:41:23Z</time>
      </trkpt>
      <trkpt lat="44.99996" lon="6.38471">
        <ele>2085.4</ele>
        <time>2024-08-10T13:41:24Z</time>
      </trkpt>
      <trkpt lat="44.99996" lon="6.38471">
        <ele>2085.8</ele>
        <time>2024-08-10T13:41:25Z</time>
      </trkpt>
      <trkpt lat="44.99996" lon="6.38471">
        <ele>2086</ele>
        <time>2024-08-10T13:41:26Z</time>
      </trkpt>
      <trkpt lat="44.99996" lon="6.38471">
        <ele>2086</ele>
        <time>2024-08-10T13:41:27Z</time>
      </trkpt>
      <trkpt lat="44.99994" lon="6.38472">
        <ele>2086</ele>
        <time>2024-08-10T13:41:28Z</time>
      </trkpt>
      <trkpt lat="44.99994" lon="6.38472">
        <ele>2085.8</ele>
        <time>2024-08-10T13:41:29Z</time>
      </trkpt>
      <trkpt lat="44.99991" lon="6.38473">
        <ele>2085.4</ele>
        <time>2024-08-10T13:41:30Z</time>
      </trkpt>
      <trkpt lat="44.99991" lon="6.38473">
        <ele>2085.4</ele>
        <time>2024-08-10T13:41:31Z</time>
      </trkpt>
      <trkpt lat="44.99989" lon="6.38473">
        <ele>2085.2</ele>
        <time>2024-08-10T13:41:32Z</time>
      </trkpt>
      <trkpt lat="44.99989" lon="6.38473">
        <ele>2085.2</ele>
        <time>2024-08-10T13:41:33Z</time>
      </trkpt>
      <trkpt lat="44.99986" lon="6.38472">
        <ele>2085.2</ele>
        <time>2024-08-10T13:41:34Z</time>
      </trkpt>
      <trkpt lat="44.99986" lon="6.38472">
        <ele>2085.2</ele>
        <time>2024-08-10T13:41:35Z</time>
      </trkpt>
      <trkpt lat="44.99983" lon="6.38472">
        <ele>2085.4</ele>
        <time>2024-08-10T13:41:36Z</time>
      </trkpt>
      <trkpt lat="44.99983" lon="6.38472">
        <ele>2085.4</ele>
        <time>2024-08-10T13:41:37Z</time>
      </trkpt>
      <trkpt lat="44.99981" lon="6.38472">
        <ele>2085.2</ele>
        <time>2024-08-10T13:41:38Z</time>
      </trkpt>
      <trkpt lat="44.99981" lon="6.38472">
        <ele>2085</ele>
        <time>2024-08-10T13:41:39Z</time>
      </trkpt>
      <trkpt lat="44.99978" lon="6.38471">
        <ele>2085</ele>
        <time>2024-08-10T13:41:40Z</time>
      </trkpt>
      <trkpt lat="44.99978" lon="6.38471">
        <ele>2085.2</ele>
        <time>2024-08-10T13:41:41Z</time>
      </trkpt>
      <trkpt lat="44.99976" lon="6.38471">
        <ele>2085.2</ele>
        <time>2024-08-10T13:41:42Z</time>
      </trkpt>
      <trkpt lat="44.99976" lon="6.38471">
        <ele>2085.2</ele>
        <time>2024-08-10T13:41:43Z</time>
      </trkpt>
      <trkpt lat="44.99973" lon="6.38471">
        <ele>2085</ele>
        <time>2024-08-10T13:41:44Z</time>
      </trkpt>
      <trkpt lat="44.99973" lon="6.38471">
        <ele>2084.8</ele>
        <time>2024-08-10T13:41:45Z</time>
      </trkpt>
      <trkpt lat="44.9997" lon="6.38472">
        <ele>2084.8</ele>
        <time>2024-08-10T13:41:46Z</time>
      </trkpt>
      <trkpt lat="44.9997" lon="6.38472">
        <ele>2085</ele>
        <time>2024-08-10T13:41:47Z</time>
      </trkpt>
      <trkpt lat="44.99968" lon="6.38473">
        <ele>2084.8</ele>
        <time>2024-08-10T13:41:48Z</time>
      </trkpt>
      <trkpt lat="44.99968" lon="6.38473">
        <ele>2084.6</ele>
        <time>2024-08-10T13:41:49Z</time>
      </trkpt>
      <trkpt lat="44.99965" lon="6.38473">
        <ele>2084.6</ele>
        <time>2024-08-10T13:41:50Z</time>
      </trkpt>
      <trkpt lat="44.99965" lon="6.38473">
        <ele>2084.6</ele>
        <time>2024-08-10T13:41:51Z</time>
      </trkpt>
      <trkpt lat="44.99963" lon="6.38474">
        <ele>2084.6</ele>
        <time>2024-08-10T13:41:52Z</time>
      </trkpt>
      <trkpt lat="44.99963" lon="6.38474">
        <ele>2084.6</ele>
        <time>2024-08-10T13:41:53Z</time>
      </trkpt>
      <trkpt lat="44.99961" lon="6.38474">
        <ele>2084.4</ele>
        <time>2024-08-10T13:41:54Z</time>
      </trkpt>
      <trkpt lat="44.99961" lon="6.38474">
        <ele>2084</ele>
        <time>2024-08-10T13:41:55Z</time>
      </trkpt>
      <trkpt lat="44.99958" lon="6.38474">
        <ele>2083.8</ele>
        <time>2024-08-10T13:41:56Z</time>
      </trkpt>
      <trkpt lat="44.99958" lon="6.38474">
        <ele>2083.8</ele>
        <time>2024-08-10T13:41:57Z</time>
      </trkpt>
      <trkpt lat="44.99956" lon="6.38475">
        <ele>2083.8</ele>
        <time>2024-08-10T13:41:58Z</time>
      </trkpt>
      <trkpt lat="44.99956" lon="6.38475">
        <ele>2083.8</ele>
        <time>2024-08-10T13:41:59Z</time>
      </trkpt>
      <trkpt lat="44.99954" lon="6.38475">
        <ele>2083.8</ele>
        <time>2024-08-10T13:42:00Z</time>
      </trkpt>
      <trkpt lat="44.99954" lon="6.38475">
        <ele>2084</ele>
        <time>2024-08-10T13:42:01Z</time>
      </trkpt>
      <trkpt lat="44.99951" lon="6.38474">
        <ele>2083.4</ele>
        <time>2024-08-10T13:42:02Z</time>
      </trkpt>
      <trkpt lat="44.99951" lon="6.38474">
        <ele>2082.8</ele>
        <time>2024-08-10T13:42:03Z</time>
      </trkpt>
      <trkpt lat="44.99948" lon="6.38473">
        <ele>2082.8</ele>
        <time>2024-08-10T13:42:04Z</time>
      </trkpt>
      <trkpt lat="44.99948" lon="6.38473">
        <ele>2082.6</ele>
        <time>2024-08-10T13:42:05Z</time>
      </trkpt>
      <trkpt lat="44.99946" lon="6.38472">
        <ele>2082.4</ele>
        <time>2024-08-10T13:42:06Z</time>
      </trkpt>
      <trkpt lat="44.99946" lon="6.38472">
        <ele>2082.2</ele>
        <time>2024-08-10T13:42:07Z</time>
      </trkpt>
      <trkpt lat="44.99943" lon="6.38471">
        <ele>2082.2</ele>
        <time>2024-08-10T13:42:08Z</time>
      </trkpt>
      <trkpt lat="44.99943" lon="6.38471">
        <ele>2082.2</ele>
        <time>2024-08-10T13:42:09Z</time>
      </trkpt>
      <trkpt lat="44.99941" lon="6.38471">
        <ele>2082</ele>
        <time>2024-08-10T13:42:10Z</time>
      </trkpt>
      <trkpt lat="44.99941" lon="6.38471">
        <ele>2082</ele>
        <time>2024-08-10T13:42:11Z</time>
      </trkpt>
      <trkpt lat="44.99938" lon="6.38471">
        <ele>2082.4</ele>
        <time>2024-08-10T13:42:12Z</time>
      </trkpt>
      <trkpt lat="44.99938" lon="6.38471">
        <ele>2082.6</ele>
        <time>2024-08-10T13:42:13Z</time>
      </trkpt>
      <trkpt lat="44.99935" lon="6.38472">
        <ele>2082.6</ele>
        <time>2024-08-10T13:42:14Z</time>
      </trkpt>
      <trkpt lat="44.99935" lon="6.38472">
        <ele>2082.6</ele>
        <time>2024-08-10T13:42:15Z</time>
      </trkpt>
      <trkpt lat="44.99932" lon="6.38472">
        <ele>2082.2</ele>
        <time>2024-08-10T13:42:16Z</time>
      </trkpt>
      <trkpt lat="44.99932" lon="6.38472">
        <ele>2082</ele>
        <time>2024-08-10T13:42:17Z</time>
      </trkpt>
      <trkpt lat="44.99929" lon="6.38473">
        <ele>2081.8</ele>
        <time>2024-08-10T13:42:18Z</time>
      </trkpt>
      <trkpt lat="44.99929" lon="6.38473">
        <ele>2081.4</ele>
        <time>2024-08-10T13:42:19Z</time>
      </trkpt>
      <trkpt lat="44.99926" lon="6.38474">
        <ele>2081.2</ele>
        <time>2024-08-10T13:42:20Z</time>
      </trkpt>
      <trkpt lat="44.99926" lon="6.38474">
        <ele>2081</ele>
        <time>2024-08-10T13:42:21Z</time>
      </trkpt>
      <trkpt lat="44.99923" lon="6.38474">
        <ele>2081</ele>
        <time>2024-08-10T13:42:22Z</time>
      </trkpt>
      <trkpt lat="44.99923" lon="6.38474">
        <ele>2081</ele>
        <time>2024-08-10T13:42:23Z</time>
      </trkpt>
      <trkpt lat="44.99921" lon="6.38474">
        <ele>2080.4</ele>
        <time>2024-08-10T13:42:24Z</time>
      </trkpt>
      <trkpt lat="44.99921" lon="6.38474">
        <ele>2080.4</ele>
        <time>2024-08-10T13:42:25Z</time>
      </trkpt>
      <trkpt lat="44.99918" lon="6.38473">
        <ele>2080.4</ele>
        <time>2024-08-10T13:42:26Z</time>
      </trkpt>
      <trkpt lat="44.99918" lon="6.38473">
        <ele>2080.4</ele>
        <time>2024-08-10T13:42:27Z</time>
      </trkpt>
      <trkpt lat="44.99915" lon="6.38473">
        <ele>2080.4</ele>
        <time>2024-08-10T13:42:28Z</time>
      </trkpt>
      <trkpt lat="44.99915" lon="6.38473">
        <ele>2080.4</ele>
        <time>2024-08-10T13:42:29Z</time>
      </trkpt>
      <trkpt lat="44.99913" lon="6.38473">
        <ele>2080</ele>
        <time>2024-08-10T13:42:30Z</time>
      </trkpt>
      <trkpt lat="44.99913" lon="6.38473">
        <ele>2080.2</ele>
        <time>2024-08-10T13:42:31Z</time>
      </trkpt>
      <trkpt lat="44.99911" lon="6.38474">
        <ele>2080.2</ele>
        <time>2024-08-10T13:42:32Z</time>
      </trkpt>
      <trkpt lat="44.99911" lon="6.38474">
        <ele>2080.2</ele>
        <time>2024-08-10T13:42:33Z</time>
      </trkpt>
      <trkpt lat="44.99909" lon="6.38476">
        <ele>2080.2</ele>
        <time>2024-08-10T13:42:34Z</time>
      </trkpt>
      <trkpt lat="44.99909" lon="6.38476">
        <ele>2080.2</ele>
        <time>2024-08-10T13:42:35Z</time>
      </trkpt>
      <trkpt lat="44.99907" lon="6.38478">
        <ele>2080.2</ele>
        <time>2024-08-10T13:42:36Z</time>
      </trkpt>
      <trkpt lat="44.99907" lon="6.38478">
        <ele>2080.2</ele>
        <time>2024-08-10T13:42:37Z</time>
      </trkpt>
      <trkpt lat="44.99905" lon="6.38482">
        <ele>2080.4</ele>
        <time>2024-08-10T13:42:38Z</time>
      </trkpt>
      <trkpt lat="44.99905" lon="6.38482">
        <ele>2080.4</ele>
        <time>2024-08-10T13:42:39Z</time>
      </trkpt>
      <trkpt lat="44.99903" lon="6.38484">
        <ele>2080.4</ele>
        <time>2024-08-10T13:42:40Z</time>
      </trkpt>
      <trkpt lat="44.99903" lon="6.38484">
        <ele>2080.2</ele>
        <time>2024-08-10T13:42:41Z</time>
      </trkpt>
      <trkpt lat="44.99903" lon="6.38484">
        <ele>2080</ele>
        <time>2024-08-10T13:42:42Z</time>
      </trkpt>
      <trkpt lat="44.99901" lon="6.38487">
        <ele>2080</ele>
        <time>2024-08-10T13:42:43Z</time>
      </trkpt>
      <trkpt lat="44.99901" lon="6.38487">
        <ele>2080</ele>
        <time>2024-08-10T13:42:44Z</time>
      </trkpt>
      <trkpt lat="44.99899" lon="6.38488">
        <ele>2080</ele>
        <time>2024-08-10T13:42:45Z</time>
      </trkpt>
      <trkpt lat="44.99899" lon="6.38488">
        <ele>2080</ele>
        <time>2024-08-10T13:42:46Z</time>
      </trkpt>
      <trkpt lat="44.99897" lon="6.3849">
        <ele>2079.8</ele>
        <time>2024-08-10T13:42:47Z</time>
      </trkpt>
      <trkpt lat="44.99897" lon="6.3849">
        <ele>2079.4</ele>
        <time>2024-08-10T13:42:48Z</time>
      </trkpt>
      <trkpt lat="44.99896" lon="6.38493">
        <ele>2079.2</ele>
        <time>2024-08-10T13:42:49Z</time>
      </trkpt>
      <trkpt lat="44.99896" lon="6.38493">
        <ele>2079.4</ele>
        <time>2024-08-10T13:42:50Z</time>
      </trkpt>
      <trkpt lat="44.99894" lon="6.38495">
        <ele>2079.4</ele>
        <time>2024-08-10T13:42:51Z</time>
      </trkpt>
      <trkpt lat="44.99894" lon="6.38495">
        <ele>2079.2</ele>
        <time>2024-08-10T13:42:52Z</time>
      </trkpt>
      <trkpt lat="44.99892" lon="6.38496">
        <ele>2079.2</ele>
        <time>2024-08-10T13:42:53Z</time>
      </trkpt>
      <trkpt lat="44.99892" lon="6.38496">
        <ele>2079.2</ele>
        <time>2024-08-10T13:42:54Z</time>
      </trkpt>
      <trkpt lat="44.99889" lon="6.38496">
        <ele>2079.2</ele>
        <time>2024-08-10T13:42:55Z</time>
      </trkpt>
      <trkpt lat="44.99889" lon="6.38496">
        <ele>2079.2</ele>
        <time>2024-08-10T13:42:56Z</time>
      </trkpt>
      <trkpt lat="44.99887" lon="6.38496">
        <ele>2079</ele>
        <time>2024-08-10T13:42:57Z</time>
      </trkpt>
      <trkpt lat="44.99887" lon="6.38496">
        <ele>2078.4</ele>
        <time>2024-08-10T13:42:58Z</time>
      </trkpt>
      <trkpt lat="44.99884" lon="6.38496">
        <ele>2078.4</ele>
        <time>2024-08-10T13:42:59Z</time>
      </trkpt>
      <trkpt lat="44.99884" lon="6.38496">
        <ele>2078.2</ele>
        <time>2024-08-10T13:43:00Z</time>
      </trkpt>
      <trkpt lat="44.99881" lon="6.38497">
        <ele>2078.2</ele>
        <time>2024-08-10T13:43:01Z</time>
      </trkpt>
      <trkpt lat="44.99881" lon="6.38497">
        <ele>2078</ele>
        <time>2024-08-10T13:43:02Z</time>
      </trkpt>
      <trkpt lat="44.99879" lon="6.38497">
        <ele>2077.8</ele>
        <time>2024-08-10T13:43:03Z</time>
      </trkpt>
      <trkpt lat="44.99879" lon="6.38497">
        <ele>2077.8</ele>
        <time>2024-08-10T13:43:04Z</time>
      </trkpt>
      <trkpt lat="44.99876" lon="6.38497">
        <ele>2078.2</ele>
        <time>2024-08-10T13:43:05Z</time>
      </trkpt>
      <trkpt lat="44.99876" lon="6.38497">
        <ele>2078.2</ele>
        <time>2024-08-10T13:43:06Z</time>
      </trkpt>
      <trkpt lat="44.99874" lon="6.38496">
        <ele>2078.2</ele>
        <time>2024-08-10T13:43:07Z</time>
      </trkpt>
      <trkpt lat="44.99874" lon="6.38496">
        <ele>2078.4</ele>
        <time>2024-08-10T13:43:08Z</time>
      </trkpt>
      <trkpt lat="44.99874" lon="6.38496">
        <ele>2078.6</ele>
        <time>2024-08-10T13:43:09Z</time>
      </trkpt>
      <trkpt lat="44.99872" lon="6.38493">
        <ele>2078.4</ele>
        <time>2024-08-10T13:43:10Z</time>
      </trkpt>
      <trkpt lat="44.99872" lon="6.38493">
        <ele>2078</ele>
        <time>2024-08-10T13:43:11Z</time>
      </trkpt>
      <trkpt lat="44.99871" lon="6.38491">
        <ele>2077.6</ele>
        <time>2024-08-10T13:43:12Z</time>
      </trkpt>
      <trkpt lat="44.99871" lon="6.38491">
        <ele>2077.6</ele>
        <time>2024-08-10T13:43:13Z</time>
      </trkpt>
      <trkpt lat="44.9987" lon="6.38487">
        <ele>2077.6</ele>
        <time>2024-08-10T13:43:14Z</time>
      </trkpt>
      <trkpt lat="44.9987" lon="6.38487">
        <ele>2077.4</ele>
        <time>2024-08-10T13:43:15Z</time>
      </trkpt>
      <trkpt lat="44.99869" lon="6.38484">
        <ele>2077.2</ele>
        <time>2024-08-10T13:43:16Z</time>
      </trkpt>
      <trkpt lat="44.99869" lon="6.38484">
        <ele>2076.6</ele>
        <time>2024-08-10T13:43:17Z</time>
      </trkpt>
      <trkpt lat="44.99868" lon="6.38482">
        <ele>2076.6</ele>
        <time>2024-08-10T13:43:18Z</time>
      </trkpt>
      <trkpt lat="44.99868" lon="6.38482">
        <ele>2076.6</ele>
        <time>2024-08-10T13:43:19Z</time>
      </trkpt>
      <trkpt lat="44.99866" lon="6.38481">
        <ele>2076.6</ele>
        <time>2024-08-10T13:43:20Z</time>
      </trkpt>
      <trkpt lat="44.99866" lon="6.38481">
        <ele>2076.6</ele>
        <time>2024-08-10T13:43:21Z</time>
      </trkpt>
      <trkpt lat="44.99864" lon="6.38482">
        <ele>2076.6</ele>
        <time>2024-08-10T13:43:22Z</time>
      </trkpt>
      <trkpt lat="44.99864" lon="6.38482">
        <ele>2076.4</ele>
        <time>2024-08-10T13:43:23Z</time>
      </trkpt>
      <trkpt lat="44.99861" lon="6.38483">
        <ele>2076.4</ele>
        <time>2024-08-10T13:43:24Z</time>
      </trkpt>
      <trkpt lat="44.99861" lon="6.38483">
        <ele>2076.4</ele>
        <time>2024-08-10T13:43:25Z</time>
      </trkpt>
      <trkpt lat="44.99859" lon="6.38484">
        <ele>2076.8</ele>
        <time>2024-08-10T13:43:26Z</time>
      </trkpt>
      <trkpt lat="44.99859" lon="6.38484">
        <ele>2076.8</ele>
        <time>2024-08-10T13:43:27Z</time>
      </trkpt>
      <trkpt lat="44.99857" lon="6.38484">
        <ele>2077.2</ele>
        <time>2024-08-10T13:43:28Z</time>
      </trkpt>
      <trkpt lat="44.99857" lon="6.38484">
        <ele>2077.6</ele>
        <time>2024-08-10T13:43:29Z</time>
      </trkpt>
      <trkpt lat="44.99854" lon="6.38485">
        <ele>2077.6</ele>
        <time>2024-08-10T13:43:30Z</time>
      </trkpt>
      <trkpt lat="44.99854" lon="6.38485">
        <ele>2077.8</ele>
        <time>2024-08-10T13:43:31Z</time>
      </trkpt>
      <trkpt lat="44.99852" lon="6.38487">
        <ele>2078</ele>
        <time>2024-08-10T13:43:32Z</time>
      </trkpt>
      <trkpt lat="44.99852" lon="6.38487">
        <ele>2078.2</ele>
        <time>2024-08-10T13:43:33Z</time>
      </trkpt>
      <trkpt lat="44.99849" lon="6.38489">
        <ele>2078.6</ele>
        <time>2024-08-10T13:43:34Z</time>
      </trkpt>
      <trkpt lat="44.99849" lon="6.38489">
        <ele>2078.8</ele>
        <time>2024-08-10T13:43:35Z</time>
      </trkpt>
      <trkpt lat="44.99846" lon="6.3849">
        <ele>2078.8</ele>
        <time>2024-08-10T13:43:36Z</time>
      </trkpt>
      <trkpt lat="44.99845" lon="6.38491">
        <ele>2078.8</ele>
        <time>2024-08-10T13:43:37Z</time>
      </trkpt>
      <trkpt lat="44.99845" lon="6.38491">
        <ele>2079</ele>
        <time>2024-08-10T13:43:38Z</time>
      </trkpt>
      <trkpt lat="44.99842" lon="6.38493">
        <ele>2079.2</ele>
        <time>2024-08-10T13:43:39Z</time>
      </trkpt>
      <trkpt lat="44.99842" lon="6.38493">
        <ele>2079.2</ele>
        <time>2024-08-10T13:43:40Z</time>
      </trkpt>
      <trkpt lat="44.9984" lon="6.38495">
        <ele>2079.2</ele>
        <time>2024-08-10T13:43:41Z</time>
      </trkpt>
      <trkpt lat="44.9984" lon="6.38495">
        <ele>2079.6</ele>
        <time>2024-08-10T13:43:42Z</time>
      </trkpt>
      <trkpt lat="44.99838" lon="6.38496">
        <ele>2079.6</ele>
        <time>2024-08-10T13:43:43Z</time>
      </trkpt>
      <trkpt lat="44.99838" lon="6.38496">
        <ele>2080</ele>
        <time>2024-08-10T13:43:44Z</time>
      </trkpt>
      <trkpt lat="44.99838" lon="6.38496">
        <ele>2080.2</ele>
        <time>2024-08-10T13:43:45Z</time>
      </trkpt>
      <trkpt lat="44.99838" lon="6.38496">
        <ele>2080.4</ele>
        <time>2024-08-10T13:43:46Z</time>
      </trkpt>
      <trkpt lat="44.99835" lon="6.38497">
        <ele>2080.4</ele>
        <time>2024-08-10T13:43:47Z</time>
      </trkpt>
      <trkpt lat="44.99835" lon="6.38497">
        <ele>2080.6</ele>
        <time>2024-08-10T13:43:48Z</time>
      </trkpt>
      <trkpt lat="44.99834" lon="6.385">
        <ele>2080.6</ele>
        <time>2024-08-10T13:43:49Z</time>
      </trkpt>
      <trkpt lat="44.99834" lon="6.385">
        <ele>2080.6</ele>
        <time>2024-08-10T13:43:50Z</time>
      </trkpt>
      <trkpt lat="44.99832" lon="6.38503">
        <ele>2080.6</ele>
        <time>2024-08-10T13:43:51Z</time>
      </trkpt>
      <trkpt lat="44.99832" lon="6.38503">
        <ele>2080.6</ele>
        <time>2024-08-10T13:43:52Z</time>
      </trkpt>
      <trkpt lat="44.99829" lon="6.38504">
        <ele>2080.6</ele>
        <time>2024-08-10T13:43:53Z</time>
      </trkpt>
      <trkpt lat="44.99829" lon="6.38504">
        <ele>2080.6</ele>
        <time>2024-08-10T13:43:54Z</time>
      </trkpt>
      <trkpt lat="44.99828" lon="6.38507">
        <ele>2080.6</ele>
        <time>2024-08-10T13:43:55Z</time>
      </trkpt>
      <trkpt lat="44.99828" lon="6.38507">
        <ele>2080.8</ele>
        <time>2024-08-10T13:43:56Z</time>
      </trkpt>
      <trkpt lat="44.99827" lon="6.38509">
        <ele>2080.8</ele>
        <time>2024-08-10T13:43:57Z</time>
      </trkpt>
      <trkpt lat="44.99827" lon="6.38509">
        <ele>2080.8</ele>
        <time>2024-08-10T13:43:58Z</time>
      </trkpt>
      <trkpt lat="44.99825" lon="6.38511">
        <ele>2080.6</ele>
        <time>2024-08-10T13:43:59Z</time>
      </trkpt>
      <trkpt lat="44.99825" lon="6.38511">
        <ele>2080.6</ele>
        <time>2024-08-10T13:44:00Z</time>
      </trkpt>
      <trkpt lat="44.99823" lon="6.38513">
        <ele>2080.8</ele>
        <time>2024-08-10T13:44:01Z</time>
      </trkpt>
      <trkpt lat="44.99823" lon="6.38513">
        <ele>2081.2</ele>
        <time>2024-08-10T13:44:02Z</time>
      </trkpt>
      <trkpt lat="44.99821" lon="6.38515">
        <ele>2081.4</ele>
        <time>2024-08-10T13:44:03Z</time>
      </trkpt>
      <trkpt lat="44.99821" lon="6.38515">
        <ele>2081.4</ele>
        <time>2024-08-10T13:44:04Z</time>
      </trkpt>
      <trkpt lat="44.99818" lon="6.38516">
        <ele>2081.2</ele>
        <time>2024-08-10T13:44:05Z</time>
      </trkpt>
      <trkpt lat="44.99818" lon="6.38516">
        <ele>2081.2</ele>
        <time>2024-08-10T13:44:06Z</time>
      </trkpt>
      <trkpt lat="44.99818" lon="6.38516">
        <ele>2081.2</ele>
        <time>2024-08-10T13:44:07Z</time>
      </trkpt>
      <trkpt lat="44.99815" lon="6.38519">
        <ele>2081.2</ele>
        <time>2024-08-10T13:44:08Z</time>
      </trkpt>
      <trkpt lat="44.99815" lon="6.38519">
        <ele>2081.2</ele>
        <time>2024-08-10T13:44:09Z</time>
      </trkpt>
      <trkpt lat="44.99813" lon="6.38521">
        <ele>2081.6</ele>
        <time>2024-08-10T13:44:10Z</time>
      </trkpt>
      <trkpt lat="44.99813" lon="6.38521">
        <ele>2081.6</ele>
        <time>2024-08-10T13:44:11Z</time>
      </trkpt>
      <trkpt lat="44.99811" lon="6.38522">
        <ele>2081.8</ele>
        <time>2024-08-10T13:44:12Z</time>
      </trkpt>
      <trkpt lat="44.99811" lon="6.38522">
        <ele>2082</ele>
        <time>2024-08-10T13:44:13Z</time>
      </trkpt>
      <trkpt lat="44.99809" lon="6.38523">
        <ele>2082</ele>
        <time>2024-08-10T13:44:14Z</time>
      </trkpt>
      <trkpt lat="44.99809" lon="6.38523">
        <ele>2082.2</ele>
        <time>2024-08-10T13:44:15Z</time>
      </trkpt>
      <trkpt lat="44.99807" lon="6.38526">
        <ele>2082.6</ele>
        <time>2024-08-10T13:44:16Z</time>
      </trkpt>
      <trkpt lat="44.99807" lon="6.38526">
        <ele>2082.6</ele>
        <time>2024-08-10T13:44:17Z</time>
      </trkpt>
      <trkpt lat="44.99805" lon="6.38528">
        <ele>2082.8</ele>
        <time>2024-08-10T13:44:18Z</time>
      </trkpt>
      <trkpt lat="44.99805" lon="6.38528">
        <ele>2082.8</ele>
        <time>2024-08-10T13:44:19Z</time>
      </trkpt>
      <trkpt lat="44.99803" lon="6.3853">
        <ele>2082.8</ele>
        <time>2024-08-10T13:44:20Z</time>
      </trkpt>
      <trkpt lat="44.99803" lon="6.3853">
        <ele>2082.6</ele>
        <time>2024-08-10T13:44:21Z</time>
      </trkpt>
      <trkpt lat="44.99801" lon="6.38531">
        <ele>2082.6</ele>
        <time>2024-08-10T13:44:22Z</time>
      </trkpt>
      <trkpt lat="44.99801" lon="6.38531">
        <ele>2082.6</ele>
        <time>2024-08-10T13:44:23Z</time>
      </trkpt>
      <trkpt lat="44.99798" lon="6.38533">
        <ele>2082.8</ele>
        <time>2024-08-10T13:44:24Z</time>
      </trkpt>
      <trkpt lat="44.99798" lon="6.38533">
        <ele>2083</ele>
        <time>2024-08-10T13:44:25Z</time>
      </trkpt>
      <trkpt lat="44.99796" lon="6.38534">
        <ele>2083</ele>
        <time>2024-08-10T13:44:26Z</time>
      </trkpt>
      <trkpt lat="44.99794" lon="6.38534">
        <ele>2083</ele>
        <time>2024-08-10T13:44:27Z</time>
      </trkpt>
      <trkpt lat="44.99794" lon="6.38534">
        <ele>2083.2</ele>
        <time>2024-08-10T13:44:28Z</time>
      </trkpt>
      <trkpt lat="44.99793" lon="6.38536">
        <ele>2083.2</ele>
        <time>2024-08-10T13:44:29Z</time>
      </trkpt>
      <trkpt lat="44.99793" lon="6.38536">
        <ele>2083.2</ele>
        <time>2024-08-10T13:44:30Z</time>
      </trkpt>
      <trkpt lat="44.9979" lon="6.38537">
        <ele>2083.4</ele>
        <time>2024-08-10T13:44:31Z</time>
      </trkpt>
      <trkpt lat="44.9979" lon="6.38537">
        <ele>2083.4</ele>
        <time>2024-08-10T13:44:32Z</time>
      </trkpt>
      <trkpt lat="44.99788" lon="6.38539">
        <ele>2083.2</ele>
        <time>2024-08-10T13:44:33Z</time>
      </trkpt>
      <trkpt lat="44.99788" lon="6.38539">
        <ele>2083.2</ele>
        <time>2024-08-10T13:44:34Z</time>
      </trkpt>
      <trkpt lat="44.99785" lon="6.3854">
        <ele>2083.2</ele>
        <time>2024-08-10T13:44:35Z</time>
      </trkpt>
      <trkpt lat="44.99785" lon="6.3854">
        <ele>2083.2</ele>
        <time>2024-08-10T13:44:36Z</time>
      </trkpt>
      <trkpt lat="44.99783" lon="6.3854">
        <ele>2083.2</ele>
        <time>2024-08-10T13:44:37Z</time>
      </trkpt>
      <trkpt lat="44.99783" lon="6.3854">
        <ele>2083.2</ele>
        <time>2024-08-10T13:44:38Z</time>
      </trkpt>
      <trkpt lat="44.99781" lon="6.38539">
        <ele>2083.2</ele>
        <time>2024-08-10T13:44:39Z</time>
      </trkpt>
      <trkpt lat="44.99781" lon="6.38539">
        <ele>2083.2</ele>
        <time>2024-08-10T13:44:40Z</time>
      </trkpt>
      <trkpt lat="44.9978" lon="6.38536">
        <ele>2083.2</ele>
        <time>2024-08-10T13:44:41Z</time>
      </trkpt>
      <trkpt lat="44.9978" lon="6.38536">
        <ele>2083.2</ele>
        <time>2024-08-10T13:44:42Z</time>
      </trkpt>
      <trkpt lat="44.9978" lon="6.38533">
        <ele>2083.2</ele>
        <time>2024-08-10T13:44:43Z</time>
      </trkpt>
      <trkpt lat="44.9978" lon="6.38533">
        <ele>2082.6</ele>
        <time>2024-08-10T13:44:44Z</time>
      </trkpt>
      <trkpt lat="44.9978" lon="6.3853">
        <ele>2082</ele>
        <time>2024-08-10T13:44:45Z</time>
      </trkpt>
      <trkpt lat="44.9978" lon="6.3853">
        <ele>2082</ele>
        <time>2024-08-10T13:44:46Z</time>
      </trkpt>
      <trkpt lat="44.99781" lon="6.38527">
        <ele>2082.4</ele>
        <time>2024-08-10T13:44:47Z</time>
      </trkpt>
      <trkpt lat="44.99781" lon="6.38527">
        <ele>2082.4</ele>
        <time>2024-08-10T13:44:48Z</time>
      </trkpt>
      <trkpt lat="44.9978" lon="6.38524">
        <ele>2081.6</ele>
        <time>2024-08-10T13:44:49Z</time>
      </trkpt>
      <trkpt lat="44.9978" lon="6.38524">
        <ele>2081.4</ele>
        <time>2024-08-10T13:44:50Z</time>
      </trkpt>
      <trkpt lat="44.99779" lon="6.38521">
        <ele>2081.4</ele>
        <time>2024-08-10T13:44:51Z</time>
      </trkpt>
      <trkpt lat="44.99779" lon="6.38521">
        <ele>2081.6</ele>
        <time>2024-08-10T13:44:52Z</time>
      </trkpt>
      <trkpt lat="44.99777" lon="6.38519">
        <ele>2082</ele>
        <time>2024-08-10T13:44:53Z</time>
      </trkpt>
      <trkpt lat="44.99777" lon="6.38519">
        <ele>2082</ele>
        <time>2024-08-10T13:44:54Z</time>
      </trkpt>
      <trkpt lat="44.99775" lon="6.38516">
        <ele>2081.6</ele>
        <time>2024-08-10T13:44:55Z</time>
      </trkpt>
      <trkpt lat="44.99775" lon="6.38516">
        <ele>2081.4</ele>
        <time>2024-08-10T13:44:56Z</time>
      </trkpt>
      <trkpt lat="44.99773" lon="6.38514">
        <ele>2081.4</ele>
        <time>2024-08-10T13:44:57Z</time>
      </trkpt>
      <trkpt lat="44.99773" lon="6.38514">
        <ele>2081.4</ele>
        <time>2024-08-10T13:44:58Z</time>
      </trkpt>
      <trkpt lat="44.99772" lon="6.38512">
        <ele>2081.4</ele>
        <time>2024-08-10T13:44:59Z</time>
      </trkpt>
      <trkpt lat="44.99772" lon="6.38512">
        <ele>2081.4</ele>
        <time>2024-08-10T13:45:00Z</time>
      </trkpt>
      <trkpt lat="44.9977" lon="6.38509">
        <ele>2081.4</ele>
        <time>2024-08-10T13:45:01Z</time>
      </trkpt>
      <trkpt lat="44.9977" lon="6.38509">
        <ele>2081</ele>
        <time>2024-08-10T13:45:02Z</time>
      </trkpt>
      <trkpt lat="44.99768" lon="6.38506">
        <ele>2081.2</ele>
        <time>2024-08-10T13:45:03Z</time>
      </trkpt>
      <trkpt lat="44.99768" lon="6.38506">
        <ele>2081.2</ele>
        <time>2024-08-10T13:45:04Z</time>
      </trkpt>
      <trkpt lat="44.99768" lon="6.38506">
        <ele>2081.2</ele>
        <time>2024-08-10T13:45:05Z</time>
      </trkpt>
      <trkpt lat="44.99766" lon="6.38503">
        <ele>2081.2</ele>
        <time>2024-08-10T13:45:06Z</time>
      </trkpt>
      <trkpt lat="44.99766" lon="6.38503">
        <ele>2081.2</ele>
        <time>2024-08-10T13:45:07Z</time>
      </trkpt>
      <trkpt lat="44.99765" lon="6.38501">
        <ele>2081.4</ele>
        <time>2024-08-10T13:45:08Z</time>
      </trkpt>
      <trkpt lat="44.99765" lon="6.38501">
        <ele>2081.4</ele>
        <time>2024-08-10T13:45:09Z</time>
      </trkpt>
      <trkpt lat="44.99762" lon="6.38499">
        <ele>2081.4</ele>
        <time>2024-08-10T13:45:10Z</time>
      </trkpt>
      <trkpt lat="44.99762" lon="6.38499">
        <ele>2081.2</ele>
        <time>2024-08-10T13:45:11Z</time>
      </trkpt>
      <trkpt lat="44.9976" lon="6.38498">
        <ele>2081.2</ele>
        <time>2024-08-10T13:45:12Z</time>
      </trkpt>
      <trkpt lat="44.9976" lon="6.38498">
        <ele>2081</ele>
        <time>2024-08-10T13:45:13Z</time>
      </trkpt>
      <trkpt lat="44.99757" lon="6.38497">
        <ele>2080.8</ele>
        <time>2024-08-10T13:45:14Z</time>
      </trkpt>
      <trkpt lat="44.99757" lon="6.38497">
        <ele>2080.8</ele>
        <time>2024-08-10T13:45:15Z</time>
      </trkpt>
      <trkpt lat="44.99754" lon="6.38496">
        <ele>2080.8</ele>
        <time>2024-08-10T13:45:16Z</time>
      </trkpt>
      <trkpt lat="44.99754" lon="6.38496">
        <ele>2080.8</ele>
        <time>2024-08-10T13:45:17Z</time>
      </trkpt>
      <trkpt lat="44.99752" lon="6.38495">
        <ele>2080.8</ele>
        <time>2024-08-10T13:45:18Z</time>
      </trkpt>
      <trkpt lat="44.99752" lon="6.38495">
        <ele>2080.6</ele>
        <time>2024-08-10T13:45:19Z</time>
      </trkpt>
      <trkpt lat="44.9975" lon="6.38494">
        <ele>2080.8</ele>
        <time>2024-08-10T13:45:20Z</time>
      </trkpt>
      <trkpt lat="44.9975" lon="6.38494">
        <ele>2080.8</ele>
        <time>2024-08-10T13:45:21Z</time>
      </trkpt>
      <trkpt lat="44.99748" lon="6.38493">
        <ele>2081</ele>
        <time>2024-08-10T13:45:22Z</time>
      </trkpt>
      <trkpt lat="44.99748" lon="6.38493">
        <ele>2081.2</ele>
        <time>2024-08-10T13:45:23Z</time>
      </trkpt>
      <trkpt lat="44.99746" lon="6.3849">
        <ele>2081.4</ele>
        <time>2024-08-10T13:45:24Z</time>
      </trkpt>
      <trkpt lat="44.99746" lon="6.3849">
        <ele>2081.6</ele>
        <time>2024-08-10T13:45:25Z</time>
      </trkpt>
      <trkpt lat="44.99744" lon="6.38488">
        <ele>2081.4</ele>
        <time>2024-08-10T13:45:26Z</time>
      </trkpt>
      <trkpt lat="44.99744" lon="6.38488">
        <ele>2081.4</ele>
        <time>2024-08-10T13:45:27Z</time>
      </trkpt>
      <trkpt lat="44.99742" lon="6.38486">
        <ele>2081.4</ele>
        <time>2024-08-10T13:45:28Z</time>
      </trkpt>
      <trkpt lat="44.99742" lon="6.38486">
        <ele>2081.2</ele>
        <time>2024-08-10T13:45:29Z</time>
      </trkpt>
      <trkpt lat="44.99741" lon="6.38485">
        <ele>2081.2</ele>
        <time>2024-08-10T13:45:30Z</time>
      </trkpt>
      <trkpt lat="44.99741" lon="6.38485">
        <ele>2081.2</ele>
        <time>2024-08-10T13:45:31Z</time>
      </trkpt>
      <trkpt lat="44.99739" lon="6.38483">
        <ele>2081.2</ele>
        <time>2024-08-10T13:45:32Z</time>
      </trkpt>
      <trkpt lat="44.99739" lon="6.38483">
        <ele>2081.2</ele>
        <time>2024-08-10T13:45:33Z</time>
      </trkpt>
      <trkpt lat="44.99738" lon="6.3848">
        <ele>2081.2</ele>
        <time>2024-08-10T13:45:34Z</time>
      </trkpt>
      <trkpt lat="44.99738" lon="6.3848">
        <ele>2081.4</ele>
        <time>2024-08-10T13:45:35Z</time>
      </trkpt>
      <trkpt lat="44.99738" lon="6.3848">
        <ele>2081.6</ele>
        <time>2024-08-10T13:45:36Z</time>
      </trkpt>
      <trkpt lat="44.99737" lon="6.38478">
        <ele>2081.6</ele>
        <time>2024-08-10T13:45:37Z</time>
      </trkpt>
      <trkpt lat="44.99737" lon="6.38478">
        <ele>2082</ele>
        <time>2024-08-10T13:45:38Z</time>
      </trkpt>
      <trkpt lat="44.99737" lon="6.38478">
        <ele>2082</ele>
        <time>2024-08-10T13:45:39Z</time>
      </trkpt>
      <trkpt lat="44.99735" lon="6.38476">
        <ele>2082</ele>
        <time>2024-08-10T13:45:40Z</time>
      </trkpt>
      <trkpt lat="44.99735" lon="6.38476">
        <ele>2082.2</ele>
        <time>2024-08-10T13:45:41Z</time>
      </trkpt>
      <trkpt lat="44.99735" lon="6.38476">
        <ele>2082.2</ele>
        <time>2024-08-10T13:45:42Z</time>
      </trkpt>
      <trkpt lat="44.99732" lon="6.38476">
        <ele>2082.4</ele>
        <time>2024-08-10T13:45:43Z</time>
      </trkpt>
      <trkpt lat="44.99732" lon="6.38476">
        <ele>2082.2</ele>
        <time>2024-08-10T13:45:44Z</time>
      </trkpt>
      <trkpt lat="44.99732" lon="6.38476">
        <ele>2082.2</ele>
        <time>2024-08-10T13:45:45Z</time>
      </trkpt>
      <trkpt lat="44.99729" lon="6.38475">
        <ele>2082</ele>
        <time>2024-08-10T13:45:46Z</time>
      </trkpt>
      <trkpt lat="44.99729" lon="6.38475">
        <ele>2082</ele>
        <time>2024-08-10T13:45:47Z</time>
      </trkpt>
      <trkpt lat="44.99728" lon="6.38473">
        <ele>2082</ele>
        <time>2024-08-10T13:45:48Z</time>
      </trkpt>
      <trkpt lat="44.99728" lon="6.38473">
        <ele>2082</ele>
        <time>2024-08-10T13:45:49Z</time>
      </trkpt>
      <trkpt lat="44.99727" lon="6.3847">
        <ele>2082</ele>
        <time>2024-08-10T13:45:50Z</time>
      </trkpt>
      <trkpt lat="44.99727" lon="6.3847">
        <ele>2082</ele>
        <time>2024-08-10T13:45:51Z</time>
      </trkpt>
      <trkpt lat="44.99727" lon="6.38467">
        <ele>2082</ele>
        <time>2024-08-10T13:45:52Z</time>
      </trkpt>
      <trkpt lat="44.99727" lon="6.38467">
        <ele>2081.8</ele>
        <time>2024-08-10T13:45:53Z</time>
      </trkpt>
      <trkpt lat="44.99726" lon="6.38464">
        <ele>2081.8</ele>
        <time>2024-08-10T13:45:54Z</time>
      </trkpt>
      <trkpt lat="44.99726" lon="6.38464">
        <ele>2081.8</ele>
        <time>2024-08-10T13:45:55Z</time>
      </trkpt>
      <trkpt lat="44.99725" lon="6.38462">
        <ele>2081.8</ele>
        <time>2024-08-10T13:45:56Z</time>
      </trkpt>
      <trkpt lat="44.99725" lon="6.38462">
        <ele>2081.8</ele>
        <time>2024-08-10T13:45:57Z</time>
      </trkpt>
      <trkpt lat="44.99724" lon="6.38459">
        <ele>2081.8</ele>
        <time>2024-08-10T13:45:58Z</time>
      </trkpt>
      <trkpt lat="44.99724" lon="6.38459">
        <ele>2081.2</ele>
        <time>2024-08-10T13:45:59Z</time>
      </trkpt>
      <trkpt lat="44.99724" lon="6.38455">
        <ele>2081.2</ele>
        <time>2024-08-10T13:46:00Z</time>
      </trkpt>
      <trkpt lat="44.99724" lon="6.38455">
        <ele>2081.4</ele>
        <time>2024-08-10T13:46:01Z</time>
      </trkpt>
      <trkpt lat="44.99724" lon="6.38452">
        <ele>2081.2</ele>
        <time>2024-08-10T13:46:02Z</time>
      </trkpt>
      <trkpt lat="44.99724" lon="6.38452">
        <ele>2080.6</ele>
        <time>2024-08-10T13:46:03Z</time>
      </trkpt>
      <trkpt lat="44.99723" lon="6.38449">
        <ele>2080.6</ele>
        <time>2024-08-10T13:46:04Z</time>
      </trkpt>
      <trkpt lat="44.99723" lon="6.38449">
        <ele>2080.2</ele>
        <time>2024-08-10T13:46:05Z</time>
      </trkpt>
      <trkpt lat="44.99722" lon="6.38445">
        <ele>2080.2</ele>
        <time>2024-08-10T13:46:06Z</time>
      </trkpt>
      <trkpt lat="44.99722" lon="6.38445">
        <ele>2080.2</ele>
        <time>2024-08-10T13:46:07Z</time>
      </trkpt>
      <trkpt lat="44.99721" lon="6.38442">
        <ele>2080.2</ele>
        <time>2024-08-10T13:46:08Z</time>
      </trkpt>
      <trkpt lat="44.99721" lon="6.38442">
        <ele>2080.4</ele>
        <time>2024-08-10T13:46:09Z</time>
      </trkpt>
      <trkpt lat="44.9972" lon="6.3844">
        <ele>2080.4</ele>
        <time>2024-08-10T13:46:10Z</time>
      </trkpt>
      <trkpt lat="44.9972" lon="6.3844">
        <ele>2080.2</ele>
        <time>2024-08-10T13:46:11Z</time>
      </trkpt>
      <trkpt lat="44.9972" lon="6.3844">
        <ele>2080.2</ele>
        <time>2024-08-10T13:46:12Z</time>
      </trkpt>
      <trkpt lat="44.9972" lon="6.3844">
        <ele>2080.4</ele>
        <time>2024-08-10T13:46:13Z</time>
      </trkpt>
      <trkpt lat="44.9972" lon="6.3844">
        <ele>2080</ele>
        <time>2024-08-10T13:46:14Z</time>
      </trkpt>
      <trkpt lat="44.9972" lon="6.3844">
        <ele>2080</ele>
        <time>2024-08-10T13:46:15Z</time>
      </trkpt>
      <trkpt lat="44.9972" lon="6.3844">
        <ele>2079.8</ele>
        <time>2024-08-10T13:46:16Z</time>
      </trkpt>
      <trkpt lat="44.9972" lon="6.3844">
        <ele>2079.8</ele>
        <time>2024-08-10T13:46:17Z</time>
      </trkpt>
      <trkpt lat="44.9972" lon="6.3844">
        <ele>2079.4</ele>
        <time>2024-08-10T13:46:18Z</time>
      </trkpt>
      <trkpt lat="44.99718" lon="6.38439">
        <ele>2079.4</ele>
        <time>2024-08-10T13:46:19Z</time>
      </trkpt>
      <trkpt lat="44.99718" lon="6.38439">
        <ele>2079.6</ele>
        <time>2024-08-10T13:46:20Z</time>
      </trkpt>
      <trkpt lat="44.99715" lon="6.38437">
        <ele>2080.2</ele>
        <time>2024-08-10T13:46:21Z</time>
      </trkpt>
      <trkpt lat="44.99715" lon="6.38437">
        <ele>2080.2</ele>
        <time>2024-08-10T13:46:22Z</time>
      </trkpt>
      <trkpt lat="44.99713" lon="6.38434">
        <ele>2080.4</ele>
        <time>2024-08-10T13:46:23Z</time>
      </trkpt>
      <trkpt lat="44.99713" lon="6.38434">
        <ele>2080.4</ele>
        <time>2024-08-10T13:46:24Z</time>
      </trkpt>
      <trkpt lat="44.9971" lon="6.38432">
        <ele>2080.4</ele>
        <time>2024-08-10T13:46:25Z</time>
      </trkpt>
      <trkpt lat="44.9971" lon="6.38432">
        <ele>2080.4</ele>
        <time>2024-08-10T13:46:26Z</time>
      </trkpt>
      <trkpt lat="44.99709" lon="6.3843">
        <ele>2080.4</ele>
        <time>2024-08-10T13:46:27Z</time>
      </trkpt>
      <trkpt lat="44.99709" lon="6.3843">
        <ele>2080.4</ele>
        <time>2024-08-10T13:46:28Z</time>
      </trkpt>
      <trkpt lat="44.99706" lon="6.38429">
        <ele>2080.4</ele>
        <time>2024-08-10T13:46:29Z</time>
      </trkpt>
      <trkpt lat="44.99706" lon="6.38429">
        <ele>2080.8</ele>
        <time>2024-08-10T13:46:30Z</time>
      </trkpt>
      <trkpt lat="44.99704" lon="6.38428">
        <ele>2080.8</ele>
        <time>2024-08-10T13:46:31Z</time>
      </trkpt>
      <trkpt lat="44.99704" lon="6.38428">
        <ele>2081</ele>
        <time>2024-08-10T13:46:32Z</time>
      </trkpt>
      <trkpt lat="44.99702" lon="6.38427">
        <ele>2081.2</ele>
        <time>2024-08-10T13:46:33Z</time>
      </trkpt>
      <trkpt lat="44.99702" lon="6.38427">
        <ele>2081.2</ele>
        <time>2024-08-10T13:46:34Z</time>
      </trkpt>
      <trkpt lat="44.997" lon="6.38426">
        <ele>2081.2</ele>
        <time>2024-08-10T13:46:35Z</time>
      </trkpt>
      <trkpt lat="44.997" lon="6.38426">
        <ele>2081.4</ele>
        <time>2024-08-10T13:46:36Z</time>
      </trkpt>
      <trkpt lat="44.99698" lon="6.38425">
        <ele>2081.4</ele>
        <time>2024-08-10T13:46:37Z</time>
      </trkpt>
      <trkpt lat="44.99698" lon="6.38425">
        <ele>2081.2</ele>
        <time>2024-08-10T13:46:38Z</time>
      </trkpt>
      <trkpt lat="44.99695" lon="6.38423">
        <ele>2081.6</ele>
        <time>2024-08-10T13:46:39Z</time>
      </trkpt>
      <trkpt lat="44.99695" lon="6.38423">
        <ele>2081.6</ele>
        <time>2024-08-10T13:46:40Z</time>
      </trkpt>
      <trkpt lat="44.99693" lon="6.38422">
        <ele>2081.6</ele>
        <time>2024-08-10T13:46:41Z</time>
      </trkpt>
      <trkpt lat="44.99693" lon="6.38422">
        <ele>2081.6</ele>
        <time>2024-08-10T13:46:42Z</time>
      </trkpt>
      <trkpt lat="44.99691" lon="6.38421">
        <ele>2081.6</ele>
        <time>2024-08-10T13:46:43Z</time>
      </trkpt>
      <trkpt lat="44.99691" lon="6.38421">
        <ele>2081.8</ele>
        <time>2024-08-10T13:46:44Z</time>
      </trkpt>
      <trkpt lat="44.99689" lon="6.3842">
        <ele>2082</ele>
        <time>2024-08-10T13:46:45Z</time>
      </trkpt>
      <trkpt lat="44.99689" lon="6.3842">
        <ele>2082</ele>
        <time>2024-08-10T13:46:46Z</time>
      </trkpt>
      <trkpt lat="44.99687" lon="6.38418">
        <ele>2082.2</ele>
        <time>2024-08-10T13:46:47Z</time>
      </trkpt>
      <trkpt lat="44.99687" lon="6.38418">
        <ele>2082.2</ele>
        <time>2024-08-10T13:46:48Z</time>
      </trkpt>
      <trkpt lat="44.99684" lon="6.38417">
        <ele>2082.2</ele>
        <time>2024-08-10T13:46:49Z</time>
      </trkpt>
      <trkpt lat="44.99684" lon="6.38417">
        <ele>2081.8</ele>
        <time>2024-08-10T13:46:50Z</time>
      </trkpt>
      <trkpt lat="44.99684" lon="6.38417">
        <ele>2082</ele>
        <time>2024-08-10T13:46:51Z</time>
      </trkpt>
      <trkpt lat="44.99682" lon="6.38417">
        <ele>2082</ele>
        <time>2024-08-10T13:46:52Z</time>
      </trkpt>
      <trkpt lat="44.99682" lon="6.38417">
        <ele>2082.2</ele>
        <time>2024-08-10T13:46:53Z</time>
      </trkpt>
      <trkpt lat="44.99682" lon="6.38417">
        <ele>2082.6</ele>
        <time>2024-08-10T13:46:54Z</time>
      </trkpt>
      <trkpt lat="44.99679" lon="6.38417">
        <ele>2082.6</ele>
        <time>2024-08-10T13:46:55Z</time>
      </trkpt>
      <trkpt lat="44.99679" lon="6.38417">
        <ele>2082.6</ele>
        <time>2024-08-10T13:46:56Z</time>
      </trkpt>
      <trkpt lat="44.99677" lon="6.38417">
        <ele>2082.6</ele>
        <time>2024-08-10T13:46:57Z</time>
      </trkpt>
      <trkpt lat="44.99677" lon="6.38417">
        <ele>2082.6</ele>
        <time>2024-08-10T13:46:58Z</time>
      </trkpt>
      <trkpt lat="44.99675" lon="6.38417">
        <ele>2082.4</ele>
        <time>2024-08-10T13:46:59Z</time>
      </trkpt>
      <trkpt lat="44.99675" lon="6.38417">
        <ele>2082.4</ele>
        <time>2024-08-10T13:47:00Z</time>
      </trkpt>
      <trkpt lat="44.99672" lon="6.38417">
        <ele>2082.4</ele>
        <time>2024-08-10T13:47:01Z</time>
      </trkpt>
      <trkpt lat="44.99672" lon="6.38417">
        <ele>2082.6</ele>
        <time>2024-08-10T13:47:02Z</time>
      </trkpt>
      <trkpt lat="44.9967" lon="6.38417">
        <ele>2083</ele>
        <time>2024-08-10T13:47:03Z</time>
      </trkpt>
      <trkpt lat="44.9967" lon="6.38417">
        <ele>2083</ele>
        <time>2024-08-10T13:47:04Z</time>
      </trkpt>
      <trkpt lat="44.99668" lon="6.38416">
        <ele>2083</ele>
        <time>2024-08-10T13:47:05Z</time>
      </trkpt>
      <trkpt lat="44.99668" lon="6.38416">
        <ele>2083.4</ele>
        <time>2024-08-10T13:47:06Z</time>
      </trkpt>
      <trkpt lat="44.99666" lon="6.38416">
        <ele>2083.4</ele>
        <time>2024-08-10T13:47:07Z</time>
      </trkpt>
      <trkpt lat="44.99666" lon="6.38416">
        <ele>2083.4</ele>
        <time>2024-08-10T13:47:08Z</time>
      </trkpt>
      <trkpt lat="44.99663" lon="6.38415">
        <ele>2083.8</ele>
        <time>2024-08-10T13:47:09Z</time>
      </trkpt>
      <trkpt lat="44.99663" lon="6.38415">
        <ele>2083.8</ele>
        <time>2024-08-10T13:47:10Z</time>
      </trkpt>
      <trkpt lat="44.99661" lon="6.38415">
        <ele>2083.8</ele>
        <time>2024-08-10T13:47:11Z</time>
      </trkpt>
      <trkpt lat="44.99661" lon="6.38415">
        <ele>2083.8</ele>
        <time>2024-08-10T13:47:12Z</time>
      </trkpt>
      <trkpt lat="44.99659" lon="6.38415">
        <ele>2083.8</ele>
        <time>2024-08-10T13:47:13Z</time>
      </trkpt>
      <trkpt lat="44.99659" lon="6.38415">
        <ele>2083.8</ele>
        <time>2024-08-10T13:47:14Z</time>
      </trkpt>
      <trkpt lat="44.99656" lon="6.38417">
        <ele>2083.8</ele>
        <time>2024-08-10T13:47:15Z</time>
      </trkpt>
      <trkpt lat="44.99656" lon="6.38417">
        <ele>2083.8</ele>
        <time>2024-08-10T13:47:16Z</time>
      </trkpt>
      <trkpt lat="44.99654" lon="6.38418">
        <ele>2083.8</ele>
        <time>2024-08-10T13:47:17Z</time>
      </trkpt>
      <trkpt lat="44.99654" lon="6.38418">
        <ele>2084</ele>
        <time>2024-08-10T13:47:18Z</time>
      </trkpt>
      <trkpt lat="44.99651" lon="6.38419">
        <ele>2084</ele>
        <time>2024-08-10T13:47:19Z</time>
      </trkpt>
      <trkpt lat="44.99651" lon="6.38419">
        <ele>2084.2</ele>
        <time>2024-08-10T13:47:20Z</time>
      </trkpt>
      <trkpt lat="44.99649" lon="6.3842">
        <ele>2084.2</ele>
        <time>2024-08-10T13:47:21Z</time>
      </trkpt>
      <trkpt lat="44.99649" lon="6.3842">
        <ele>2084.4</ele>
        <time>2024-08-10T13:47:22Z</time>
      </trkpt>
      <trkpt lat="44.99648" lon="6.38422">
        <ele>2084.4</ele>
        <time>2024-08-10T13:47:23Z</time>
      </trkpt>
      <trkpt lat="44.99648" lon="6.38422">
        <ele>2084.4</ele>
        <time>2024-08-10T13:47:24Z</time>
      </trkpt>
      <trkpt lat="44.99646" lon="6.38425">
        <ele>2084.4</ele>
        <time>2024-08-10T13:47:25Z</time>
      </trkpt>
      <trkpt lat="44.99646" lon="6.38425">
        <ele>2084.6</ele>
        <time>2024-08-10T13:47:26Z</time>
      </trkpt>
      <trkpt lat="44.99646" lon="6.38425">
        <ele>2084.8</ele>
        <time>2024-08-10T13:47:27Z</time>
      </trkpt>
      <trkpt lat="44.99645" lon="6.38427">
        <ele>2085</ele>
        <time>2024-08-10T13:47:28Z</time>
      </trkpt>
      <trkpt lat="44.99645" lon="6.38427">
        <ele>2085.4</ele>
        <time>2024-08-10T13:47:29Z</time>
      </trkpt>
      <trkpt lat="44.99643" lon="6.3843">
        <ele>2085.4</ele>
        <time>2024-08-10T13:47:30Z</time>
      </trkpt>
      <trkpt lat="44.99643" lon="6.3843">
        <ele>2085.4</ele>
        <time>2024-08-10T13:47:31Z</time>
      </trkpt>
      <trkpt lat="44.99643" lon="6.3843">
        <ele>2085.4</ele>
        <time>2024-08-10T13:47:32Z</time>
      </trkpt>
      <trkpt lat="44.99641" lon="6.38432">
        <ele>2085.6</ele>
        <time>2024-08-10T13:47:33Z</time>
      </trkpt>
      <trkpt lat="44.99641" lon="6.38432">
        <ele>2086.2</ele>
        <time>2024-08-10T13:47:34Z</time>
      </trkpt>
      <trkpt lat="44.99641" lon="6.38432">
        <ele>2086.6</ele>
        <time>2024-08-10T13:47:35Z</time>
      </trkpt>
      <trkpt lat="44.99639" lon="6.38435">
        <ele>2087.2</ele>
        <time>2024-08-10T13:47:36Z</time>
      </trkpt>
      <trkpt lat="44.99639" lon="6.38435">
        <ele>2087.2</ele>
        <time>2024-08-10T13:47:37Z</time>
      </trkpt>
      <trkpt lat="44.99638" lon="6.38437">
        <ele>2087.4</ele>
        <time>2024-08-10T13:47:38Z</time>
      </trkpt>
      <trkpt lat="44.99638" lon="6.38437">
        <ele>2088.2</ele>
        <time>2024-08-10T13:47:39Z</time>
      </trkpt>
      <trkpt lat="44.99638" lon="6.38437">
        <ele>2088.2</ele>
        <time>2024-08-10T13:47:40Z</time>
      </trkpt>
      <trkpt lat="44.99635" lon="6.38439">
        <ele>2088.8</ele>
        <time>2024-08-10T13:47:41Z</time>
      </trkpt>
      <trkpt lat="44.99635" lon="6.38439">
        <ele>2089</ele>
        <time>2024-08-10T13:47:42Z</time>
      </trkpt>
      <trkpt lat="44.99633" lon="6.38439">
        <ele>2089</ele>
        <time>2024-08-10T13:47:43Z</time>
      </trkpt>
      <trkpt lat="44.99633" lon="6.38439">
        <ele>2089.2</ele>
        <time>2024-08-10T13:47:44Z</time>
      </trkpt>
      <trkpt lat="44.99631" lon="6.3844">
        <ele>2089.6</ele>
        <time>2024-08-10T13:47:45Z</time>
      </trkpt>
      <trkpt lat="44.99631" lon="6.3844">
        <ele>2089.6</ele>
        <time>2024-08-10T13:47:46Z</time>
      </trkpt>
      <trkpt lat="44.99629" lon="6.3844">
        <ele>2089.6</ele>
        <time>2024-08-10T13:47:47Z</time>
      </trkpt>
      <trkpt lat="44.99629" lon="6.3844">
        <ele>2089.6</ele>
        <time>2024-08-10T13:47:48Z</time>
      </trkpt>
      <trkpt lat="44.99626" lon="6.3844">
        <ele>2089.6</ele>
        <time>2024-08-10T13:47:49Z</time>
      </trkpt>
      <trkpt lat="44.99626" lon="6.3844">
        <ele>2089.8</ele>
        <time>2024-08-10T13:47:50Z</time>
      </trkpt>
      <trkpt lat="44.99623" lon="6.38441">
        <ele>2090.2</ele>
        <time>2024-08-10T13:47:51Z</time>
      </trkpt>
      <trkpt lat="44.99623" lon="6.38441">
        <ele>2090.2</ele>
        <time>2024-08-10T13:47:52Z</time>
      </trkpt>
      <trkpt lat="44.9962" lon="6.38441">
        <ele>2090.2</ele>
        <time>2024-08-10T13:47:53Z</time>
      </trkpt>
      <trkpt lat="44.9962" lon="6.38441">
        <ele>2089.8</ele>
        <time>2024-08-10T13:47:54Z</time>
      </trkpt>
      <trkpt lat="44.99617" lon="6.38441">
        <ele>2089.8</ele>
        <time>2024-08-10T13:47:55Z</time>
      </trkpt>
      <trkpt lat="44.99617" lon="6.38441">
        <ele>2089.8</ele>
        <time>2024-08-10T13:47:56Z</time>
      </trkpt>
      <trkpt lat="44.99614" lon="6.38441">
        <ele>2090.2</ele>
        <time>2024-08-10T13:47:57Z</time>
      </trkpt>
      <trkpt lat="44.99614" lon="6.38441">
        <ele>2090.2</ele>
        <time>2024-08-10T13:47:58Z</time>
      </trkpt>
      <trkpt lat="44.99613" lon="6.38441">
        <ele>2090.2</ele>
        <time>2024-08-10T13:47:59Z</time>
      </trkpt>
      <trkpt lat="44.99613" lon="6.38441">
        <ele>2090.2</ele>
        <time>2024-08-10T13:48:00Z</time>
      </trkpt>
      <trkpt lat="44.99613" lon="6.38441">
        <ele>2090.2</ele>
        <time>2024-08-10T13:48:01Z</time>
      </trkpt>
      <trkpt lat="44.99611" lon="6.38441">
        <ele>2090.2</ele>
        <time>2024-08-10T13:48:02Z</time>
      </trkpt>
      <trkpt lat="44.99611" lon="6.38441">
        <ele>2090.2</ele>
        <time>2024-08-10T13:48:03Z</time>
      </trkpt>
      <trkpt lat="44.99611" lon="6.38441">
        <ele>2090.2</ele>
        <time>2024-08-10T13:48:04Z</time>
      </trkpt>
      <trkpt lat="44.99611" lon="6.38441">
        <ele>2090.4</ele>
        <time>2024-08-10T13:48:05Z</time>
      </trkpt>
      <trkpt lat="44.99611" lon="6.38441">
        <ele>2090.4</ele>
        <time>2024-08-10T13:48:06Z</time>
      </trkpt>
      <trkpt lat="44.99611" lon="6.38441">
        <ele>2090.4</ele>
        <time>2024-08-10T13:48:07Z</time>
      </trkpt>
      <trkpt lat="44.99611" lon="6.38441">
        <ele>2090.2</ele>
        <time>2024-08-10T13:48:08Z</time>
      </trkpt>
      <trkpt lat="44.99611" lon="6.38441">
        <ele>2090.2</ele>
        <time>2024-08-10T13:48:09Z</time>
      </trkpt>
      <trkpt lat="44.99611" lon="6.38441">
        <ele>2090.2</ele>
        <time>2024-08-10T13:48:10Z</time>
      </trkpt>
    </trkseg>
      <trkpt lat="44.99613" lon="6.38431">
        <ele>2090</ele>
        <time>2024-08-11T05:30:38Z</time>
      </trkpt>
      <trkpt lat="44.99613" lon="6.38431">
        <ele>2090</ele>
        <time>2024-08-11T05:30:40Z</time>
      </trkpt>
      <trkpt lat="44.99613" lon="6.38434">
        <ele>2090</ele>
        <time>2024-08-11T05:30:42Z</time>
      </trkpt>
      <trkpt lat="44.99611" lon="6.38437">
        <ele>2090</ele>
        <time>2024-08-11T05:30:44Z</time>
      </trkpt>
      <trkpt lat="44.99611" lon="6.38441">
        <ele>2090</ele>
        <time>2024-08-11T05:30:46Z</time>
      </trkpt>
      <trkpt lat="44.99611" lon="6.38441">
        <ele>2090</ele>
        <time>2024-08-11T05:30:47Z</time>
      </trkpt>
      <trkpt lat="44.99611" lon="6.38445">
        <ele>2090</ele>
        <time>2024-08-11T05:30:48Z</time>
      </trkpt>
      <trkpt lat="44.99611" lon="6.38445">
        <ele>2090</ele>
        <time>2024-08-11T05:30:49Z</time>
      </trkpt>
      <trkpt lat="44.99611" lon="6.38449">
        <ele>2090</ele>
        <time>2024-08-11T05:30:50Z</time>
      </trkpt>
      <trkpt lat="44.99611" lon="6.38449">
        <ele>2090</ele>
        <time>2024-08-11T05:30:51Z</time>
      </trkpt>
      <trkpt lat="44.99611" lon="6.38452">
        <ele>2090</ele>
        <time>2024-08-11T05:30:52Z</time>
      </trkpt>
      <trkpt lat="44.99611" lon="6.38452">
        <ele>2090</ele>
        <time>2024-08-11T05:30:53Z</time>
      </trkpt>
      <trkpt lat="44.9961" lon="6.38454">
        <ele>2090.2</ele>
        <time>2024-08-11T05:30:54Z</time>
      </trkpt>
      <trkpt lat="44.9961" lon="6.38454">
        <ele>2090.6</ele>
        <time>2024-08-11T05:30:55Z</time>
      </trkpt>
      <trkpt lat="44.9961" lon="6.38454">
        <ele>2091</ele>
        <time>2024-08-11T05:30:56Z</time>
      </trkpt>
      <trkpt lat="44.99609" lon="6.38458">
        <ele>2091</ele>
        <time>2024-08-11T05:30:57Z</time>
      </trkpt>
      <trkpt lat="44.99609" lon="6.38458">
        <ele>2091.6</ele>
        <time>2024-08-11T05:30:58Z</time>
      </trkpt>
      <trkpt lat="44.99609" lon="6.38458">
        <ele>2091.8</ele>
        <time>2024-08-11T05:30:59Z</time>
      </trkpt>
      <trkpt lat="44.99609" lon="6.38461">
        <ele>2092.4</ele>
        <time>2024-08-11T05:31:00Z</time>
      </trkpt>
      <trkpt lat="44.99609" lon="6.38461">
        <ele>2092.4</ele>
        <time>2024-08-11T05:31:01Z</time>
      </trkpt>
      <trkpt lat="44.99609" lon="6.38461">
        <ele>2092.4</ele>
        <time>2024-08-11T05:31:02Z</time>
      </trkpt>
      <trkpt lat="44.99607" lon="6.38463">
        <ele>2092.6</ele>
        <time>2024-08-11T05:31:03Z</time>
      </trkpt>
      <trkpt lat="44.99607" lon="6.38463">
        <ele>2092.6</ele>
        <time>2024-08-11T05:31:04Z</time>
      </trkpt>
      <trkpt lat="44.99604" lon="6.38464">
        <ele>2092.6</ele>
        <time>2024-08-11T05:31:05Z</time>
      </trkpt>
      <trkpt lat="44.99604" lon="6.38464">
        <ele>2092.8</ele>
        <time>2024-08-11T05:31:06Z</time>
      </trkpt>
      <trkpt lat="44.99603" lon="6.38465">
        <ele>2092.8</ele>
        <time>2024-08-11T05:31:07Z</time>
      </trkpt>
      <trkpt lat="44.99603" lon="6.38465">
        <ele>2092.8</ele>
        <time>2024-08-11T05:31:08Z</time>
      </trkpt>
      <trkpt lat="44.99603" lon="6.38465">
        <ele>2092.8</ele>
        <time>2024-08-11T05:31:09Z</time>
      </trkpt>
      <trkpt lat="44.996" lon="6.38466">
        <ele>2092.6</ele>
        <time>2024-08-11T05:31:10Z</time>
      </trkpt>
      <trkpt lat="44.996" lon="6.38466">
        <ele>2092.6</ele>
        <time>2024-08-11T05:31:11Z</time>
      </trkpt>
      <trkpt lat="44.996" lon="6.38466">
        <ele>2092.6</ele>
        <time>2024-08-11T05:31:12Z</time>
      </trkpt>
      <trkpt lat="44.99598" lon="6.38464">
        <ele>2092.8</ele>
        <time>2024-08-11T05:31:13Z</time>
      </trkpt>
      <trkpt lat="44.99598" lon="6.38464">
        <ele>2092.8</ele>
        <time>2024-08-11T05:31:14Z</time>
      </trkpt>
      <trkpt lat="44.99596" lon="6.38462">
        <ele>2092.8</ele>
        <time>2024-08-11T05:31:15Z</time>
      </trkpt>
      <trkpt lat="44.99596" lon="6.38462">
        <ele>2092.6</ele>
        <time>2024-08-11T05:31:16Z</time>
      </trkpt>
      <trkpt lat="44.99593" lon="6.38462">
        <ele>2092.6</ele>
        <time>2024-08-11T05:31:17Z</time>
      </trkpt>
      <trkpt lat="44.99593" lon="6.38462">
        <ele>2092.8</ele>
        <time>2024-08-11T05:31:18Z</time>
      </trkpt>
      <trkpt lat="44.99591" lon="6.38463">
        <ele>2093</ele>
        <time>2024-08-11T05:31:19Z</time>
      </trkpt>
      <trkpt lat="44.99591" lon="6.38463">
        <ele>2093</ele>
        <time>2024-08-11T05:31:20Z</time>
      </trkpt>
      <trkpt lat="44.9959" lon="6.38466">
        <ele>2093</ele>
        <time>2024-08-11T05:31:21Z</time>
      </trkpt>
      <trkpt lat="44.9959" lon="6.38466">
        <ele>2093</ele>
        <time>2024-08-11T05:31:22Z</time>
      </trkpt>
      <trkpt lat="44.9959" lon="6.38468">
        <ele>2093.2</ele>
        <time>2024-08-11T05:31:23Z</time>
      </trkpt>
      <trkpt lat="44.9959" lon="6.38468">
        <ele>2093.2</ele>
        <time>2024-08-11T05:31:24Z</time>
      </trkpt>
      <trkpt lat="44.99589" lon="6.38471">
        <ele>2093.2</ele>
        <time>2024-08-11T05:31:25Z</time>
      </trkpt>
      <trkpt lat="44.99589" lon="6.38471">
        <ele>2093.2</ele>
        <time>2024-08-11T05:31:26Z</time>
      </trkpt>
      <trkpt lat="44.99589" lon="6.38471">
        <ele>2093.6</ele>
        <time>2024-08-11T05:31:27Z</time>
      </trkpt>
      <trkpt lat="44.99589" lon="6.38475">
        <ele>2093.6</ele>
        <time>2024-08-11T05:31:28Z</time>
      </trkpt>
      <trkpt lat="44.99589" lon="6.38475">
        <ele>2093.8</ele>
        <time>2024-08-11T05:31:29Z</time>
      </trkpt>
      <trkpt lat="44.99589" lon="6.38475">
        <ele>2093.8</ele>
        <time>2024-08-11T05:31:30Z</time>
      </trkpt>
      <trkpt lat="44.99587" lon="6.38478">
        <ele>2093.8</ele>
        <time>2024-08-11T05:31:31Z</time>
      </trkpt>
      <trkpt lat="44.99587" lon="6.38478">
        <ele>2093.8</ele>
        <time>2024-08-11T05:31:32Z</time>
      </trkpt>
      <trkpt lat="44.99585" lon="6.38479">
        <ele>2094</ele>
        <time>2024-08-11T05:31:33Z</time>
      </trkpt>
      <trkpt lat="44.99585" lon="6.38479">
        <ele>2094.2</ele>
        <time>2024-08-11T05:31:34Z</time>
      </trkpt>
      <trkpt lat="44.99584" lon="6.3848">
        <ele>2094.4</ele>
        <time>2024-08-11T05:31:35Z</time>
      </trkpt>
      <trkpt lat="44.99584" lon="6.3848">
        <ele>2094.6</ele>
        <time>2024-08-11T05:31:36Z</time>
      </trkpt>
      <trkpt lat="44.99584" lon="6.3848">
        <ele>2094.8</ele>
        <time>2024-08-11T05:31:37Z</time>
      </trkpt>
      <trkpt lat="44.99582" lon="6.38483">
        <ele>2095.2</ele>
        <time>2024-08-11T05:31:38Z</time>
      </trkpt>
      <trkpt lat="44.99582" lon="6.38483">
        <ele>2095.4</ele>
        <time>2024-08-11T05:31:39Z</time>
      </trkpt>
      <trkpt lat="44.9958" lon="6.38485">
        <ele>2095.6</ele>
        <time>2024-08-11T05:31:40Z</time>
      </trkpt>
      <trkpt lat="44.9958" lon="6.38485">
        <ele>2096</ele>
        <time>2024-08-11T05:31:41Z</time>
      </trkpt>
      <trkpt lat="44.9958" lon="6.38485">
        <ele>2096.4</ele>
        <time>2024-08-11T05:31:42Z</time>
      </trkpt>
      <trkpt lat="44.99578" lon="6.38486">
        <ele>2096.4</ele>
        <time>2024-08-11T05:31:43Z</time>
      </trkpt>
      <trkpt lat="44.99578" lon="6.38486">
        <ele>2096.6</ele>
        <time>2024-08-11T05:31:44Z</time>
      </trkpt>
      <trkpt lat="44.99578" lon="6.38486">
        <ele>2096.6</ele>
        <time>2024-08-11T05:31:45Z</time>
      </trkpt>
      <trkpt lat="44.99575" lon="6.38486">
        <ele>2096.8</ele>
        <time>2024-08-11T05:31:46Z</time>
      </trkpt>
      <trkpt lat="44.99575" lon="6.38486">
        <ele>2096.8</ele>
        <time>2024-08-11T05:31:47Z</time>
      </trkpt>
      <trkpt lat="44.99575" lon="6.38486">
        <ele>2097</ele>
        <time>2024-08-11T05:31:48Z</time>
      </trkpt>
      <trkpt lat="44.99575" lon="6.38486">
        <ele>2097</ele>
        <time>2024-08-11T05:31:49Z</time>
      </trkpt>
      <trkpt lat="44.99575" lon="6.38486">
        <ele>2097.2</ele>
        <time>2024-08-11T05:31:50Z</time>
      </trkpt>
      <trkpt lat="44.99573" lon="6.38487">
        <ele>2097.4</ele>
        <time>2024-08-11T05:31:51Z</time>
      </trkpt>
      <trkpt lat="44.99573" lon="6.38487">
        <ele>2097.6</ele>
        <time>2024-08-11T05:31:52Z</time>
      </trkpt>
      <trkpt lat="44.99573" lon="6.38487">
        <ele>2097.8</ele>
        <time>2024-08-11T05:31:53Z</time>
      </trkpt>
      <trkpt lat="44.99572" lon="6.38489">
        <ele>2097.8</ele>
        <time>2024-08-11T05:31:54Z</time>
      </trkpt>
      <trkpt lat="44.99572" lon="6.38489">
        <ele>2098.2</ele>
        <time>2024-08-11T05:31:55Z</time>
      </trkpt>
      <trkpt lat="44.99572" lon="6.38489">
        <ele>2098.2</ele>
        <time>2024-08-11T05:31:56Z</time>
      </trkpt>
      <trkpt lat="44.9957" lon="6.38491">
        <ele>2098.4</ele>
        <time>2024-08-11T05:31:57Z</time>
      </trkpt>
      <trkpt lat="44.9957" lon="6.38491">
        <ele>2098.8</ele>
        <time>2024-08-11T05:31:58Z</time>
      </trkpt>
      <trkpt lat="44.9957" lon="6.38491">
        <ele>2099.2</ele>
        <time>2024-08-11T05:31:59Z</time>
      </trkpt>
      <trkpt lat="44.9957" lon="6.38491">
        <ele>2099.4</ele>
        <time>2024-08-11T05:32:00Z</time>
      </trkpt>
      <trkpt lat="44.99569" lon="6.38494">
        <ele>2099.6</ele>
        <time>2024-08-11T05:32:01Z</time>
      </trkpt>
      <trkpt lat="44.99569" lon="6.38494">
        <ele>2100.2</ele>
        <time>2024-08-11T05:32:02Z</time>
      </trkpt>
      <trkpt lat="44.99569" lon="6.38494">
        <ele>2100.4</ele>
        <time>2024-08-11T05:32:03Z</time>
      </trkpt>
      <trkpt lat="44.99569" lon="6.38494">
        <ele>2100.4</ele>
        <time>2024-08-11T05:32:04Z</time>
      </trkpt>
      <trkpt lat="44.99568" lon="6.38498">
        <ele>2100.6</ele>
        <time>2024-08-11T05:32:05Z</time>
      </trkpt>
      <trkpt lat="44.99568" lon="6.38498">
        <ele>2100.8</ele>
        <time>2024-08-11T05:32:06Z</time>
      </trkpt>
      <trkpt lat="44.99568" lon="6.38498">
        <ele>2101.4</ele>
        <time>2024-08-11T05:32:07Z</time>
      </trkpt>
      <trkpt lat="44.99565" lon="6.385">
        <ele>2101.4</ele>
        <time>2024-08-11T05:32:08Z</time>
      </trkpt>
      <trkpt lat="44.99565" lon="6.385">
        <ele>2101.4</ele>
        <time>2024-08-11T05:32:09Z</time>
      </trkpt>
      <trkpt lat="44.99564" lon="6.38501">
        <ele>2101.8</ele>
        <time>2024-08-11T05:32:10Z</time>
      </trkpt>
      <trkpt lat="44.99564" lon="6.38501">
        <ele>2102</ele>
        <time>2024-08-11T05:32:11Z</time>
      </trkpt>
      <trkpt lat="44.99562" lon="6.38502">
        <ele>2102</ele>
        <time>2024-08-11T05:32:12Z</time>
      </trkpt>
      <trkpt lat="44.99562" lon="6.38502">
        <ele>2102</ele>
        <time>2024-08-11T05:32:13Z</time>
      </trkpt>
      <trkpt lat="44.99559" lon="6.38504">
        <ele>2102</ele>
        <time>2024-08-11T05:32:14Z</time>
      </trkpt>
      <trkpt lat="44.99559" lon="6.38504">
        <ele>2102</ele>
        <time>2024-08-11T05:32:15Z</time>
      </trkpt>
      <trkpt lat="44.99558" lon="6.38506">
        <ele>2102.2</ele>
        <time>2024-08-11T05:32:16Z</time>
      </trkpt>
      <trkpt lat="44.99558" lon="6.38506">
        <ele>2102.2</ele>
        <time>2024-08-11T05:32:17Z</time>
      </trkpt>
      <trkpt lat="44.99557" lon="6.38507">
        <ele>2102.4</ele>
        <time>2024-08-11T05:32:18Z</time>
      </trkpt>
      <trkpt lat="44.99557" lon="6.38507">
        <ele>2102.4</ele>
        <time>2024-08-11T05:32:19Z</time>
      </trkpt>
      <trkpt lat="44.99555" lon="6.3851">
        <ele>2102.4</ele>
        <time>2024-08-11T05:32:20Z</time>
      </trkpt>
      <trkpt lat="44.99555" lon="6.3851">
        <ele>2102.4</ele>
        <time>2024-08-11T05:32:21Z</time>
      </trkpt>
      <trkpt lat="44.99555" lon="6.3851">
        <ele>2102.4</ele>
        <time>2024-08-11T05:32:22Z</time>
      </trkpt>
      <trkpt lat="44.99554" lon="6.38512">
        <ele>2102.4</ele>
        <time>2024-08-11T05:32:23Z</time>
      </trkpt>
      <trkpt lat="44.99554" lon="6.38512">
        <ele>2102.4</ele>
        <time>2024-08-11T05:32:24Z</time>
      </trkpt>
      <trkpt lat="44.99554" lon="6.38512">
        <ele>2102.6</ele>
        <time>2024-08-11T05:32:25Z</time>
      </trkpt>
      <trkpt lat="44.99555" lon="6.38515">
        <ele>2102.8</ele>
        <time>2024-08-11T05:32:26Z</time>
      </trkpt>
      <trkpt lat="44.99555" lon="6.38515">
        <ele>2102.8</ele>
        <time>2024-08-11T05:32:27Z</time>
      </trkpt>
      <trkpt lat="44.99557" lon="6.38516">
        <ele>2102.6</ele>
        <time>2024-08-11T05:32:28Z</time>
      </trkpt>
      <trkpt lat="44.99557" lon="6.38516">
        <ele>2102.6</ele>
        <time>2024-08-11T05:32:29Z</time>
      </trkpt>
      <trkpt lat="44.99558" lon="6.38519">
        <ele>2102.8</ele>
        <time>2024-08-11T05:32:30Z</time>
      </trkpt>
      <trkpt lat="44.99558" lon="6.38519">
        <ele>2102.8</ele>
        <time>2024-08-11T05:32:31Z</time>
      </trkpt>
      <trkpt lat="44.99559" lon="6.38522">
        <ele>2102.6</ele>
        <time>2024-08-11T05:32:32Z</time>
      </trkpt>
      <trkpt lat="44.99559" lon="6.38522">
        <ele>2102.4</ele>
        <time>2024-08-11T05:32:33Z</time>
      </trkpt>
      <trkpt lat="44.99561" lon="6.38524">
        <ele>2102.4</ele>
        <time>2024-08-11T05:32:34Z</time>
      </trkpt>
      <trkpt lat="44.99561" lon="6.38524">
        <ele>2102.4</ele>
        <time>2024-08-11T05:32:35Z</time>
      </trkpt>
      <trkpt lat="44.99562" lon="6.38526">
        <ele>2102.4</ele>
        <time>2024-08-11T05:32:36Z</time>
      </trkpt>
      <trkpt lat="44.99562" lon="6.38526">
        <ele>2102.4</ele>
        <time>2024-08-11T05:32:37Z</time>
      </trkpt>
      <trkpt lat="44.99563" lon="6.38529">
        <ele>2102.2</ele>
        <time>2024-08-11T05:32:38Z</time>
      </trkpt>
      <trkpt lat="44.99563" lon="6.38529">
        <ele>2102.2</ele>
        <time>2024-08-11T05:32:39Z</time>
      </trkpt>
      <trkpt lat="44.99563" lon="6.38532">
        <ele>2102.2</ele>
        <time>2024-08-11T05:32:40Z</time>
      </trkpt>
      <trkpt lat="44.99563" lon="6.38532">
        <ele>2102.2</ele>
        <time>2024-08-11T05:32:41Z</time>
      </trkpt>
      <trkpt lat="44.99563" lon="6.38535">
        <ele>2102.2</ele>
        <time>2024-08-11T05:32:42Z</time>
      </trkpt>
      <trkpt lat="44.99563" lon="6.38535">
        <ele>2102.2</ele>
        <time>2024-08-11T05:32:43Z</time>
      </trkpt>
      <trkpt lat="44.99563" lon="6.38535">
        <ele>2102.2</ele>
        <time>2024-08-11T05:32:44Z</time>
      </trkpt>
      <trkpt lat="44.99563" lon="6.38538">
        <ele>2102.6</ele>
        <time>2024-08-11T05:32:45Z</time>
      </trkpt>
      <trkpt lat="44.99563" lon="6.38538">
        <ele>2103.2</ele>
        <time>2024-08-11T05:32:46Z</time>
      </trkpt>
      <trkpt lat="44.99564" lon="6.38541">
        <ele>2103.2</ele>
        <time>2024-08-11T05:32:47Z</time>
      </trkpt>
      <trkpt lat="44.99564" lon="6.38541">
        <ele>2103.2</ele>
        <time>2024-08-11T05:32:48Z</time>
      </trkpt>
      <trkpt lat="44.99565" lon="6.38544">
        <ele>2103.2</ele>
        <time>2024-08-11T05:32:49Z</time>
      </trkpt>
      <trkpt lat="44.99565" lon="6.38544">
        <ele>2103.2</ele>
        <time>2024-08-11T05:32:50Z</time>
      </trkpt>
      <trkpt lat="44.99565" lon="6.38547">
        <ele>2103.4</ele>
        <time>2024-08-11T05:32:51Z</time>
      </trkpt>
      <trkpt lat="44.99565" lon="6.38547">
        <ele>2103.4</ele>
        <time>2024-08-11T05:32:52Z</time>
      </trkpt>
      <trkpt lat="44.99565" lon="6.38549">
        <ele>2103.4</ele>
        <time>2024-08-11T05:32:53Z</time>
      </trkpt>
      <trkpt lat="44.99565" lon="6.38549">
        <ele>2103.6</ele>
        <time>2024-08-11T05:32:54Z</time>
      </trkpt>
      <trkpt lat="44.99564" lon="6.38553">
        <ele>2103.6</ele>
        <time>2024-08-11T05:32:55Z</time>
      </trkpt>
      <trkpt lat="44.99564" lon="6.38553">
        <ele>2104</ele>
        <time>2024-08-11T05:32:56Z</time>
      </trkpt>
      <trkpt lat="44.99564" lon="6.38556">
        <ele>2104.2</ele>
        <time>2024-08-11T05:32:57Z</time>
      </trkpt>
      <trkpt lat="44.99564" lon="6.38556">
        <ele>2104.2</ele>
        <time>2024-08-11T05:32:58Z</time>
      </trkpt>
      <trkpt lat="44.99565" lon="6.38558">
        <ele>2104.4</ele>
        <time>2024-08-11T05:32:59Z</time>
      </trkpt>
      <trkpt lat="44.99565" lon="6.38558">
        <ele>2104.6</ele>
        <time>2024-08-11T05:33:00Z</time>
      </trkpt>
      <trkpt lat="44.99565" lon="6.38558">
        <ele>2104.6</ele>
        <time>2024-08-11T05:33:01Z</time>
      </trkpt>
      <trkpt lat="44.99565" lon="6.38561">
        <ele>2104.4</ele>
        <time>2024-08-11T05:33:02Z</time>
      </trkpt>
      <trkpt lat="44.99565" lon="6.38561">
        <ele>2104.2</ele>
        <time>2024-08-11T05:33:03Z</time>
      </trkpt>
      <trkpt lat="44.99565" lon="6.38561">
        <ele>2103.6</ele>
        <time>2024-08-11T05:33:04Z</time>
      </trkpt>
      <trkpt lat="44.99565" lon="6.38565">
        <ele>2103.6</ele>
        <time>2024-08-11T05:33:05Z</time>
      </trkpt>
      <trkpt lat="44.99565" lon="6.38565">
        <ele>2103.4</ele>
        <time>2024-08-11T05:33:06Z</time>
      </trkpt>
      <trkpt lat="44.99566" lon="6.38567">
        <ele>2103.2</ele>
        <time>2024-08-11T05:33:07Z</time>
      </trkpt>
      <trkpt lat="44.99566" lon="6.38567">
        <ele>2102.8</ele>
        <time>2024-08-11T05:33:08Z</time>
      </trkpt>
      <trkpt lat="44.99567" lon="6.3857">
        <ele>2102.6</ele>
        <time>2024-08-11T05:33:09Z</time>
      </trkpt>
      <trkpt lat="44.99567" lon="6.3857">
        <ele>2102.2</ele>
        <time>2024-08-11T05:33:10Z</time>
      </trkpt>
      <trkpt lat="44.99567" lon="6.38573">
        <ele>2101.8</ele>
        <time>2024-08-11T05:33:11Z</time>
      </trkpt>
      <trkpt lat="44.99567" lon="6.38573">
        <ele>2101.8</ele>
        <time>2024-08-11T05:33:12Z</time>
      </trkpt>
      <trkpt lat="44.99567" lon="6.38576">
        <ele>2101.8</ele>
        <time>2024-08-11T05:33:13Z</time>
      </trkpt>
      <trkpt lat="44.99567" lon="6.38576">
        <ele>2101.8</ele>
        <time>2024-08-11T05:33:14Z</time>
      </trkpt>
      <trkpt lat="44.99569" lon="6.3858">
        <ele>2102</ele>
        <time>2024-08-11T05:33:15Z</time>
      </trkpt>
      <trkpt lat="44.99569" lon="6.3858">
        <ele>2102</ele>
        <time>2024-08-11T05:33:16Z</time>
      </trkpt>
      <trkpt lat="44.9957" lon="6.38583">
        <ele>2101.8</ele>
        <time>2024-08-11T05:33:17Z</time>
      </trkpt>
      <trkpt lat="44.9957" lon="6.38583">
        <ele>2101.8</ele>
        <time>2024-08-11T05:33:18Z</time>
      </trkpt>
      <trkpt lat="44.99571" lon="6.38586">
        <ele>2101.8</ele>
        <time>2024-08-11T05:33:19Z</time>
      </trkpt>
      <trkpt lat="44.99571" lon="6.38586">
        <ele>2101.4</ele>
        <time>2024-08-11T05:33:20Z</time>
      </trkpt>
      <trkpt lat="44.99573" lon="6.38589">
        <ele>2101.4</ele>
        <time>2024-08-11T05:33:21Z</time>
      </trkpt>
      <trkpt lat="44.99574" lon="6.3859">
        <ele>2101.4</ele>
        <time>2024-08-11T05:33:22Z</time>
      </trkpt>
      <trkpt lat="44.99576" lon="6.38592">
        <ele>2101.6</ele>
        <time>2024-08-11T05:33:23Z</time>
      </trkpt>
      <trkpt lat="44.99576" lon="6.38592">
        <ele>2101.6</ele>
        <time>2024-08-11T05:33:24Z</time>
      </trkpt>
      <trkpt lat="44.99577" lon="6.38595">
        <ele>2101.6</ele>
        <time>2024-08-11T05:33:25Z</time>
      </trkpt>
      <trkpt lat="44.99577" lon="6.38595">
        <ele>2101.6</ele>
        <time>2024-08-11T05:33:26Z</time>
      </trkpt>
      <trkpt lat="44.99578" lon="6.38599">
        <ele>2101.4</ele>
        <time>2024-08-11T05:33:27Z</time>
      </trkpt>
      <trkpt lat="44.99578" lon="6.38599">
        <ele>2101.4</ele>
        <time>2024-08-11T05:33:28Z</time>
      </trkpt>
      <trkpt lat="44.99578" lon="6.38601">
        <ele>2101.4</ele>
        <time>2024-08-11T05:33:29Z</time>
      </trkpt>
      <trkpt lat="44.99578" lon="6.38601">
        <ele>2101</ele>
        <time>2024-08-11T05:33:30Z</time>
      </trkpt>
      <trkpt lat="44.99578" lon="6.38604">
        <ele>2101</ele>
        <time>2024-08-11T05:33:31Z</time>
      </trkpt>
      <trkpt lat="44.99578" lon="6.38604">
        <ele>2101</ele>
        <time>2024-08-11T05:33:32Z</time>
      </trkpt>
      <trkpt lat="44.99578" lon="6.38604">
        <ele>2100.8</ele>
        <time>2024-08-11T05:33:33Z</time>
      </trkpt>
      <trkpt lat="44.99578" lon="6.38604">
        <ele>2100.8</ele>
        <time>2024-08-11T05:33:34Z</time>
      </trkpt>
      <trkpt lat="44.99578" lon="6.38604">
        <ele>2101</ele>
        <time>2024-08-11T05:33:35Z</time>
      </trkpt>
      <trkpt lat="44.99578" lon="6.38604">
        <ele>2101</ele>
        <time>2024-08-11T05:33:36Z</time>
      </trkpt>
      <trkpt lat="44.99578" lon="6.38604">
        <ele>2101</ele>
        <time>2024-08-11T05:33:37Z</time>
      </trkpt>
      <trkpt lat="44.99578" lon="6.38604">
        <ele>2100.8</ele>
        <time>2024-08-11T05:33:38Z</time>
      </trkpt>
      <trkpt lat="44.99578" lon="6.38604">
        <ele>2100.8</ele>
        <time>2024-08-11T05:33:39Z</time>
      </trkpt>
      <trkpt lat="44.99578" lon="6.38604">
        <ele>2100.8</ele>
        <time>2024-08-11T05:33:40Z</time>
      </trkpt>
      <trkpt lat="44.99578" lon="6.38604">
        <ele>2101</ele>
        <time>2024-08-11T05:33:41Z</time>
      </trkpt>
      <trkpt lat="44.99578" lon="6.38604">
        <ele>2101</ele>
        <time>2024-08-11T05:33:42Z</time>
      </trkpt>
      <trkpt lat="44.99578" lon="6.38604">
        <ele>2101</ele>
        <time>2024-08-11T05:33:43Z</time>
      </trkpt>
      <trkpt lat="44.9958" lon="6.38605">
        <ele>2101</ele>
        <time>2024-08-11T05:33:44Z</time>
      </trkpt>
      <trkpt lat="44.9958" lon="6.38605">
        <ele>2100.8</ele>
        <time>2024-08-11T05:33:45Z</time>
      </trkpt>
      <trkpt lat="44.9958" lon="6.38605">
        <ele>2100.8</ele>
        <time>2024-08-11T05:33:46Z</time>
      </trkpt>
      <trkpt lat="44.99584" lon="6.38607">
        <ele>2100.8</ele>
        <time>2024-08-11T05:33:47Z</time>
      </trkpt>
      <trkpt lat="44.99586" lon="6.38608">
        <ele>2100.8</ele>
        <time>2024-08-11T05:33:48Z</time>
      </trkpt>
      <trkpt lat="44.99588" lon="6.38609">
        <ele>2100.8</ele>
        <time>2024-08-11T05:33:49Z</time>
      </trkpt>
      <trkpt lat="44.9959" lon="6.3861">
        <ele>2100.8</ele>
        <time>2024-08-11T05:33:50Z</time>
      </trkpt>
      <trkpt lat="44.9959" lon="6.3861">
        <ele>2101</ele>
        <time>2024-08-11T05:33:51Z</time>
      </trkpt>
      <trkpt lat="44.99593" lon="6.38613">
        <ele>2101</ele>
        <time>2024-08-11T05:33:52Z</time>
      </trkpt>
      <trkpt lat="44.99593" lon="6.38613">
        <ele>2101</ele>
        <time>2024-08-11T05:33:53Z</time>
      </trkpt>
      <trkpt lat="44.99596" lon="6.38615">
        <ele>2100.8</ele>
        <time>2024-08-11T05:33:54Z</time>
      </trkpt>
      <trkpt lat="44.99597" lon="6.38616">
        <ele>2100.8</ele>
        <time>2024-08-11T05:33:55Z</time>
      </trkpt>
      <trkpt lat="44.99598" lon="6.38617">
        <ele>2101.2</ele>
        <time>2024-08-11T05:33:56Z</time>
      </trkpt>
      <trkpt lat="44.99599" lon="6.38617">
        <ele>2101.4</ele>
        <time>2024-08-11T05:33:57Z</time>
      </trkpt>
      <trkpt lat="44.99599" lon="6.38618">
        <ele>2101.4</ele>
        <time>2024-08-11T05:33:58Z</time>
      </trkpt>
      <trkpt lat="44.99601" lon="6.38621">
        <ele>2101.4</ele>
        <time>2024-08-11T05:33:59Z</time>
      </trkpt>
      <trkpt lat="44.99601" lon="6.38621">
        <ele>2101.4</ele>
        <time>2024-08-11T05:34:00Z</time>
      </trkpt>
      <trkpt lat="44.99603" lon="6.38623">
        <ele>2101.4</ele>
        <time>2024-08-11T05:34:01Z</time>
      </trkpt>
      <trkpt lat="44.99603" lon="6.38623">
        <ele>2102.2</ele>
        <time>2024-08-11T05:34:02Z</time>
      </trkpt>
      <trkpt lat="44.99603" lon="6.38627">
        <ele>2102.2</ele>
        <time>2024-08-11T05:34:03Z</time>
      </trkpt>
      <trkpt lat="44.99603" lon="6.38627">
        <ele>2102.2</ele>
        <time>2024-08-11T05:34:04Z</time>
      </trkpt>
      <trkpt lat="44.99604" lon="6.3863">
        <ele>2102.2</ele>
        <time>2024-08-11T05:34:05Z</time>
      </trkpt>
      <trkpt lat="44.99604" lon="6.3863">
        <ele>2102.2</ele>
        <time>2024-08-11T05:34:06Z</time>
      </trkpt>
      <trkpt lat="44.99604" lon="6.38633">
        <ele>2102.2</ele>
        <time>2024-08-11T05:34:07Z</time>
      </trkpt>
      <trkpt lat="44.99604" lon="6.38633">
        <ele>2102</ele>
        <time>2024-08-11T05:34:08Z</time>
      </trkpt>
      <trkpt lat="44.99605" lon="6.38635">
        <ele>2101.8</ele>
        <time>2024-08-11T05:34:09Z</time>
      </trkpt>
      <trkpt lat="44.99605" lon="6.38635">
        <ele>2101.4</ele>
        <time>2024-08-11T05:34:10Z</time>
      </trkpt>
      <trkpt lat="44.99606" lon="6.38637">
        <ele>2101.4</ele>
        <time>2024-08-11T05:34:11Z</time>
      </trkpt>
      <trkpt lat="44.99606" lon="6.38637">
        <ele>2101.2</ele>
        <time>2024-08-11T05:34:12Z</time>
      </trkpt>
      <trkpt lat="44.99609" lon="6.38638">
        <ele>2101</ele>
        <time>2024-08-11T05:34:13Z</time>
      </trkpt>
      <trkpt lat="44.99609" lon="6.38638">
        <ele>2100.6</ele>
        <time>2024-08-11T05:34:14Z</time>
      </trkpt>
      <trkpt lat="44.99611" lon="6.38639">
        <ele>2100.4</ele>
        <time>2024-08-11T05:34:15Z</time>
      </trkpt>
      <trkpt lat="44.99611" lon="6.38639">
        <ele>2100</ele>
        <time>2024-08-11T05:34:16Z</time>
      </trkpt>
      <trkpt lat="44.99613" lon="6.38639">
        <ele>2100</ele>
        <time>2024-08-11T05:34:17Z</time>
      </trkpt>
      <trkpt lat="44.99613" lon="6.38639">
        <ele>2099.6</ele>
        <time>2024-08-11T05:34:18Z</time>
      </trkpt>
      <trkpt lat="44.99616" lon="6.38639">
        <ele>2099.2</ele>
        <time>2024-08-11T05:34:19Z</time>
      </trkpt>
      <trkpt lat="44.99616" lon="6.38639">
        <ele>2099</ele>
        <time>2024-08-11T05:34:20Z</time>
      </trkpt>
      <trkpt lat="44.99619" lon="6.3864">
        <ele>2099</ele>
        <time>2024-08-11T05:34:21Z</time>
      </trkpt>
      <trkpt lat="44.99619" lon="6.3864">
        <ele>2098.6</ele>
        <time>2024-08-11T05:34:22Z</time>
      </trkpt>
      <trkpt lat="44.99621" lon="6.38639">
        <ele>2098.6</ele>
        <time>2024-08-11T05:34:23Z</time>
      </trkpt>
      <trkpt lat="44.99621" lon="6.38639">
        <ele>2098.4</ele>
        <time>2024-08-11T05:34:24Z</time>
      </trkpt>
      <trkpt lat="44.99623" lon="6.38639">
        <ele>2098</ele>
        <time>2024-08-11T05:34:25Z</time>
      </trkpt>
      <trkpt lat="44.99623" lon="6.38639">
        <ele>2097.8</ele>
        <time>2024-08-11T05:34:26Z</time>
      </trkpt>
      <trkpt lat="44.99626" lon="6.38638">
        <ele>2097.6</ele>
        <time>2024-08-11T05:34:27Z</time>
      </trkpt>
      <trkpt lat="44.99626" lon="6.38638">
        <ele>2097.6</ele>
        <time>2024-08-11T05:34:28Z</time>
      </trkpt>
      <trkpt lat="44.99629" lon="6.38637">
        <ele>2097.2</ele>
        <time>2024-08-11T05:34:29Z</time>
      </trkpt>
      <trkpt lat="44.99629" lon="6.38637">
        <ele>2097.2</ele>
        <time>2024-08-11T05:34:30Z</time>
      </trkpt>
      <trkpt lat="44.99631" lon="6.38635">
        <ele>2097</ele>
        <time>2024-08-11T05:34:31Z</time>
      </trkpt>
      <trkpt lat="44.99631" lon="6.38635">
        <ele>2097</ele>
        <time>2024-08-11T05:34:32Z</time>
      </trkpt>
      <trkpt lat="44.99633" lon="6.38634">
        <ele>2097.2</ele>
        <time>2024-08-11T05:34:33Z</time>
      </trkpt>
      <trkpt lat="44.99633" lon="6.38634">
        <ele>2097.2</ele>
        <time>2024-08-11T05:34:34Z</time>
      </trkpt>
      <trkpt lat="44.99636" lon="6.38633">
        <ele>2096.8</ele>
        <time>2024-08-11T05:34:35Z</time>
      </trkpt>
      <trkpt lat="44.99636" lon="6.38633">
        <ele>2096.6</ele>
        <time>2024-08-11T05:34:36Z</time>
      </trkpt>
      <trkpt lat="44.99639" lon="6.38631">
        <ele>2096.6</ele>
        <time>2024-08-11T05:34:37Z</time>
      </trkpt>
      <trkpt lat="44.99639" lon="6.38631">
        <ele>2096.6</ele>
        <time>2024-08-11T05:34:38Z</time>
      </trkpt>
      <trkpt lat="44.99641" lon="6.3863">
        <ele>2096.6</ele>
        <time>2024-08-11T05:34:39Z</time>
      </trkpt>
      <trkpt lat="44.99641" lon="6.3863">
        <ele>2096.4</ele>
        <time>2024-08-11T05:34:40Z</time>
      </trkpt>
      <trkpt lat="44.99644" lon="6.3863">
        <ele>2096</ele>
        <time>2024-08-11T05:34:41Z</time>
      </trkpt>
      <trkpt lat="44.99644" lon="6.3863">
        <ele>2096</ele>
        <time>2024-08-11T05:34:42Z</time>
      </trkpt>
      <trkpt lat="44.99647" lon="6.38631">
        <ele>2096</ele>
        <time>2024-08-11T05:34:43Z</time>
      </trkpt>
      <trkpt lat="44.99647" lon="6.38631">
        <ele>2096</ele>
        <time>2024-08-11T05:34:44Z</time>
      </trkpt>
      <trkpt lat="44.99649" lon="6.38632">
        <ele>2096</ele>
        <time>2024-08-11T05:34:45Z</time>
      </trkpt>
      <trkpt lat="44.99649" lon="6.38632">
        <ele>2096</ele>
        <time>2024-08-11T05:34:46Z</time>
      </trkpt>
      <trkpt lat="44.99652" lon="6.38632">
        <ele>2095.8</ele>
        <time>2024-08-11T05:34:47Z</time>
      </trkpt>
      <trkpt lat="44.99652" lon="6.38632">
        <ele>2095.8</ele>
        <time>2024-08-11T05:34:48Z</time>
      </trkpt>
      <trkpt lat="44.99654" lon="6.38633">
        <ele>2095.6</ele>
        <time>2024-08-11T05:34:49Z</time>
      </trkpt>
      <trkpt lat="44.99654" lon="6.38633">
        <ele>2095.6</ele>
        <time>2024-08-11T05:34:50Z</time>
      </trkpt>
      <trkpt lat="44.99656" lon="6.38634">
        <ele>2095.4</ele>
        <time>2024-08-11T05:34:51Z</time>
      </trkpt>
      <trkpt lat="44.99656" lon="6.38634">
        <ele>2095.4</ele>
        <time>2024-08-11T05:34:52Z</time>
      </trkpt>
      <trkpt lat="44.99658" lon="6.38634">
        <ele>2094.8</ele>
        <time>2024-08-11T05:34:53Z</time>
      </trkpt>
      <trkpt lat="44.99658" lon="6.38634">
        <ele>2094.4</ele>
        <time>2024-08-11T05:34:54Z</time>
      </trkpt>
      <trkpt lat="44.99659" lon="6.38637">
        <ele>2094</ele>
        <time>2024-08-11T05:34:55Z</time>
      </trkpt>
      <trkpt lat="44.99659" lon="6.38637">
        <ele>2093.8</ele>
        <time>2024-08-11T05:34:56Z</time>
      </trkpt>
      <trkpt lat="44.99659" lon="6.38637">
        <ele>2093.8</ele>
        <time>2024-08-11T05:34:57Z</time>
      </trkpt>
      <trkpt lat="44.99659" lon="6.38637">
        <ele>2093.8</ele>
        <time>2024-08-11T05:34:58Z</time>
      </trkpt>
      <trkpt lat="44.99659" lon="6.38637">
        <ele>2093.8</ele>
        <time>2024-08-11T05:34:59Z</time>
      </trkpt>
      <trkpt lat="44.99659" lon="6.38637">
        <ele>2093.8</ele>
        <time>2024-08-11T05:35:00Z</time>
      </trkpt>
      <trkpt lat="44.99659" lon="6.38637">
        <ele>2093.8</ele>
        <time>2024-08-11T05:35:01Z</time>
      </trkpt>
      <trkpt lat="44.99659" lon="6.38637">
        <ele>2093.6</ele>
        <time>2024-08-11T05:35:02Z</time>
      </trkpt>
      <trkpt lat="44.99661" lon="6.3864">
        <ele>2093.4</ele>
        <time>2024-08-11T05:35:03Z</time>
      </trkpt>
      <trkpt lat="44.99661" lon="6.3864">
        <ele>2093.2</ele>
        <time>2024-08-11T05:35:04Z</time>
      </trkpt>
      <trkpt lat="44.99661" lon="6.38644">
        <ele>2093</ele>
        <time>2024-08-11T05:35:05Z</time>
      </trkpt>
      <trkpt lat="44.99661" lon="6.38644">
        <ele>2092.8</ele>
        <time>2024-08-11T05:35:06Z</time>
      </trkpt>
      <trkpt lat="44.99661" lon="6.38648">
        <ele>2092.8</ele>
        <time>2024-08-11T05:35:07Z</time>
      </trkpt>
      <trkpt lat="44.99661" lon="6.38648">
        <ele>2092.6</ele>
        <time>2024-08-11T05:35:08Z</time>
      </trkpt>
      <trkpt lat="44.99662" lon="6.38651">
        <ele>2092.6</ele>
        <time>2024-08-11T05:35:09Z</time>
      </trkpt>
      <trkpt lat="44.99662" lon="6.38651">
        <ele>2092.6</ele>
        <time>2024-08-11T05:35:10Z</time>
      </trkpt>
      <trkpt lat="44.99662" lon="6.38651">
        <ele>2092.6</ele>
        <time>2024-08-11T05:35:11Z</time>
      </trkpt>
      <trkpt lat="44.99662" lon="6.38651">
        <ele>2092.6</ele>
        <time>2024-08-11T05:35:12Z</time>
      </trkpt>
      <trkpt lat="44.99664" lon="6.38652">
        <ele>2092.4</ele>
        <time>2024-08-11T05:35:13Z</time>
      </trkpt>
      <trkpt lat="44.99664" lon="6.38652">
        <ele>2092.2</ele>
        <time>2024-08-11T05:35:14Z</time>
      </trkpt>
      <trkpt lat="44.99666" lon="6.3865">
        <ele>2092.2</ele>
        <time>2024-08-11T05:35:15Z</time>
      </trkpt>
      <trkpt lat="44.99666" lon="6.3865">
        <ele>2092</ele>
        <time>2024-08-11T05:35:16Z</time>
      </trkpt>
      <trkpt lat="44.99668" lon="6.38648">
        <ele>2092</ele>
        <time>2024-08-11T05:35:17Z</time>
      </trkpt>
      <trkpt lat="44.99668" lon="6.38648">
        <ele>2092</ele>
        <time>2024-08-11T05:35:18Z</time>
      </trkpt>
      <trkpt lat="44.9967" lon="6.38648">
        <ele>2092</ele>
        <time>2024-08-11T05:35:19Z</time>
      </trkpt>
      <trkpt lat="44.9967" lon="6.38648">
        <ele>2091.8</ele>
        <time>2024-08-11T05:35:20Z</time>
      </trkpt>
      <trkpt lat="44.99673" lon="6.38647">
        <ele>2091.8</ele>
        <time>2024-08-11T05:35:21Z</time>
      </trkpt>
      <trkpt lat="44.99673" lon="6.38647">
        <ele>2091.6</ele>
        <time>2024-08-11T05:35:22Z</time>
      </trkpt>
      <trkpt lat="44.99673" lon="6.38647">
        <ele>2091.4</ele>
        <time>2024-08-11T05:35:23Z</time>
      </trkpt>
      <trkpt lat="44.99675" lon="6.38649">
        <ele>2091.4</ele>
        <time>2024-08-11T05:35:24Z</time>
      </trkpt>
      <trkpt lat="44.99675" lon="6.38649">
        <ele>2091.4</ele>
        <time>2024-08-11T05:35:25Z</time>
      </trkpt>
      <trkpt lat="44.99675" lon="6.38649">
        <ele>2091.4</ele>
        <time>2024-08-11T05:35:26Z</time>
      </trkpt>
      <trkpt lat="44.99675" lon="6.38649">
        <ele>2091.2</ele>
        <time>2024-08-11T05:35:27Z</time>
      </trkpt>
      <trkpt lat="44.99675" lon="6.38649">
        <ele>2091</ele>
        <time>2024-08-11T05:35:28Z</time>
      </trkpt>
      <trkpt lat="44.99674" lon="6.38653">
        <ele>2091</ele>
        <time>2024-08-11T05:35:29Z</time>
      </trkpt>
      <trkpt lat="44.99674" lon="6.38653">
        <ele>2091</ele>
        <time>2024-08-11T05:35:30Z</time>
      </trkpt>
      <trkpt lat="44.99674" lon="6.38653">
        <ele>2091</ele>
        <time>2024-08-11T05:35:31Z</time>
      </trkpt>
      <trkpt lat="44.99674" lon="6.38653">
        <ele>2091</ele>
        <time>2024-08-11T05:35:32Z</time>
      </trkpt>
      <trkpt lat="44.99675" lon="6.38657">
        <ele>2091</ele>
        <time>2024-08-11T05:35:33Z</time>
      </trkpt>
      <trkpt lat="44.99675" lon="6.38657">
        <ele>2091.4</ele>
        <time>2024-08-11T05:35:34Z</time>
      </trkpt>
      <trkpt lat="44.99677" lon="6.38659">
        <ele>2091.4</ele>
        <time>2024-08-11T05:35:35Z</time>
      </trkpt>
      <trkpt lat="44.99677" lon="6.38659">
        <ele>2091.8</ele>
        <time>2024-08-11T05:35:36Z</time>
      </trkpt>
      <trkpt lat="44.99677" lon="6.38659">
        <ele>2091.8</ele>
        <time>2024-08-11T05:35:37Z</time>
      </trkpt>
      <trkpt lat="44.99677" lon="6.38659">
        <ele>2091.8</ele>
        <time>2024-08-11T05:35:38Z</time>
      </trkpt>
      <trkpt lat="44.99678" lon="6.38658">
        <ele>2091.6</ele>
        <time>2024-08-11T05:35:39Z</time>
      </trkpt>
      <trkpt lat="44.99678" lon="6.38658">
        <ele>2091.6</ele>
        <time>2024-08-11T05:35:40Z</time>
      </trkpt>
      <trkpt lat="44.99681" lon="6.38657">
        <ele>2091.4</ele>
        <time>2024-08-11T05:35:41Z</time>
      </trkpt>
      <trkpt lat="44.99681" lon="6.38657">
        <ele>2091.4</ele>
        <time>2024-08-11T05:35:42Z</time>
      </trkpt>
      <trkpt lat="44.99684" lon="6.38655">
        <ele>2091.4</ele>
        <time>2024-08-11T05:35:43Z</time>
      </trkpt>
      <trkpt lat="44.99684" lon="6.38655">
        <ele>2091.4</ele>
        <time>2024-08-11T05:35:44Z</time>
      </trkpt>
      <trkpt lat="44.99686" lon="6.38653">
        <ele>2091.4</ele>
        <time>2024-08-11T05:35:45Z</time>
      </trkpt>
      <trkpt lat="44.99686" lon="6.38653">
        <ele>2091.4</ele>
        <time>2024-08-11T05:35:46Z</time>
      </trkpt>
      <trkpt lat="44.99688" lon="6.38651">
        <ele>2091.2</ele>
        <time>2024-08-11T05:35:47Z</time>
      </trkpt>
      <trkpt lat="44.99688" lon="6.38651">
        <ele>2090.8</ele>
        <time>2024-08-11T05:35:48Z</time>
      </trkpt>
      <trkpt lat="44.9969" lon="6.38651">
        <ele>2090.8</ele>
        <time>2024-08-11T05:35:49Z</time>
      </trkpt>
      <trkpt lat="44.9969" lon="6.38651">
        <ele>2090.8</ele>
        <time>2024-08-11T05:35:50Z</time>
      </trkpt>
      <trkpt lat="44.99692" lon="6.38652">
        <ele>2090.8</ele>
        <time>2024-08-11T05:35:51Z</time>
      </trkpt>
      <trkpt lat="44.99692" lon="6.38652">
        <ele>2091</ele>
        <time>2024-08-11T05:35:52Z</time>
      </trkpt>
      <trkpt lat="44.99694" lon="6.38654">
        <ele>2091</ele>
        <time>2024-08-11T05:35:53Z</time>
      </trkpt>
      <trkpt lat="44.99694" lon="6.38654">
        <ele>2090.8</ele>
        <time>2024-08-11T05:35:54Z</time>
      </trkpt>
      <trkpt lat="44.99696" lon="6.38655">
        <ele>2090.8</ele>
        <time>2024-08-11T05:35:55Z</time>
      </trkpt>
      <trkpt lat="44.99696" lon="6.38655">
        <ele>2090.8</ele>
        <time>2024-08-11T05:35:56Z</time>
      </trkpt>
      <trkpt lat="44.99697" lon="6.38657">
        <ele>2090.6</ele>
        <time>2024-08-11T05:35:57Z</time>
      </trkpt>
      <trkpt lat="44.99697" lon="6.38657">
        <ele>2090.6</ele>
        <time>2024-08-11T05:35:58Z</time>
      </trkpt>
      <trkpt lat="44.99699" lon="6.38659">
        <ele>2091</ele>
        <time>2024-08-11T05:35:59Z</time>
      </trkpt>
      <trkpt lat="44.99699" lon="6.38659">
        <ele>2091.2</ele>
        <time>2024-08-11T05:36:00Z</time>
      </trkpt>
      <trkpt lat="44.997" lon="6.38661">
        <ele>2091.2</ele>
        <time>2024-08-11T05:36:01Z</time>
      </trkpt>
      <trkpt lat="44.997" lon="6.38661">
        <ele>2091.2</ele>
        <time>2024-08-11T05:36:02Z</time>
      </trkpt>
      <trkpt lat="44.99701" lon="6.38663">
        <ele>2091.2</ele>
        <time>2024-08-11T05:36:03Z</time>
      </trkpt>
      <trkpt lat="44.99701" lon="6.38663">
        <ele>2091.8</ele>
        <time>2024-08-11T05:36:04Z</time>
      </trkpt>
      <trkpt lat="44.99701" lon="6.38663">
        <ele>2092</ele>
        <time>2024-08-11T05:36:05Z</time>
      </trkpt>
      <trkpt lat="44.997" lon="6.38666">
        <ele>2092</ele>
        <time>2024-08-11T05:36:06Z</time>
      </trkpt>
      <trkpt lat="44.997" lon="6.38666">
        <ele>2092.4</ele>
        <time>2024-08-11T05:36:07Z</time>
      </trkpt>
      <trkpt lat="44.997" lon="6.38666">
        <ele>2092.4</ele>
        <time>2024-08-11T05:36:08Z</time>
      </trkpt>
      <trkpt lat="44.99699" lon="6.3867">
        <ele>2092.6</ele>
        <time>2024-08-11T05:36:09Z</time>
      </trkpt>
      <trkpt lat="44.99699" lon="6.3867">
        <ele>2092.6</ele>
        <time>2024-08-11T05:36:10Z</time>
      </trkpt>
      <trkpt lat="44.99699" lon="6.3867">
        <ele>2093</ele>
        <time>2024-08-11T05:36:11Z</time>
      </trkpt>
      <trkpt lat="44.99699" lon="6.3867">
        <ele>2093.4</ele>
        <time>2024-08-11T05:36:12Z</time>
      </trkpt>
      <trkpt lat="44.99699" lon="6.3867">
        <ele>2093.4</ele>
        <time>2024-08-11T05:36:13Z</time>
      </trkpt>
      <trkpt lat="44.997" lon="6.38673">
        <ele>2093.6</ele>
        <time>2024-08-11T05:36:14Z</time>
      </trkpt>
      <trkpt lat="44.997" lon="6.38673">
        <ele>2093.8</ele>
        <time>2024-08-11T05:36:15Z</time>
      </trkpt>
      <trkpt lat="44.997" lon="6.38673">
        <ele>2094</ele>
        <time>2024-08-11T05:36:16Z</time>
      </trkpt>
      <trkpt lat="44.99699" lon="6.38676">
        <ele>2094.2</ele>
        <time>2024-08-11T05:36:17Z</time>
      </trkpt>
      <trkpt lat="44.99699" lon="6.38676">
        <ele>2094.4</ele>
        <time>2024-08-11T05:36:18Z</time>
      </trkpt>
      <trkpt lat="44.99699" lon="6.38676">
        <ele>2094.6</ele>
        <time>2024-08-11T05:36:19Z</time>
      </trkpt>
      <trkpt lat="44.99698" lon="6.38678">
        <ele>2095.2</ele>
        <time>2024-08-11T05:36:20Z</time>
      </trkpt>
      <trkpt lat="44.99698" lon="6.38678">
        <ele>2095.2</ele>
        <time>2024-08-11T05:36:21Z</time>
      </trkpt>
      <trkpt lat="44.99698" lon="6.38678">
        <ele>2095.4</ele>
        <time>2024-08-11T05:36:22Z</time>
      </trkpt>
      <trkpt lat="44.99698" lon="6.38678">
        <ele>2096</ele>
        <time>2024-08-11T05:36:23Z</time>
      </trkpt>
      <trkpt lat="44.99696" lon="6.3868">
        <ele>2096.4</ele>
        <time>2024-08-11T05:36:24Z</time>
      </trkpt>
      <trkpt lat="44.99696" lon="6.3868">
        <ele>2096.4</ele>
        <time>2024-08-11T05:36:25Z</time>
      </trkpt>
      <trkpt lat="44.99696" lon="6.3868">
        <ele>2096.4</ele>
        <time>2024-08-11T05:36:26Z</time>
      </trkpt>
      <trkpt lat="44.99696" lon="6.3868">
        <ele>2096.4</ele>
        <time>2024-08-11T05:36:27Z</time>
      </trkpt>
      <trkpt lat="44.99696" lon="6.38683">
        <ele>2096.8</ele>
        <time>2024-08-11T05:36:28Z</time>
      </trkpt>
      <trkpt lat="44.99696" lon="6.38683">
        <ele>2096.8</ele>
        <time>2024-08-11T05:36:29Z</time>
      </trkpt>
      <trkpt lat="44.99696" lon="6.38683">
        <ele>2097.4</ele>
        <time>2024-08-11T05:36:30Z</time>
      </trkpt>
      <trkpt lat="44.99696" lon="6.38683">
        <ele>2097.6</ele>
        <time>2024-08-11T05:36:31Z</time>
      </trkpt>
      <trkpt lat="44.99698" lon="6.38685">
        <ele>2097.8</ele>
        <time>2024-08-11T05:36:32Z</time>
      </trkpt>
      <trkpt lat="44.99698" lon="6.38685">
        <ele>2098</ele>
        <time>2024-08-11T05:36:33Z</time>
      </trkpt>
      <trkpt lat="44.99698" lon="6.38685">
        <ele>2098.4</ele>
        <time>2024-08-11T05:36:34Z</time>
      </trkpt>
      <trkpt lat="44.99699" lon="6.38687">
        <ele>2098.4</ele>
        <time>2024-08-11T05:36:35Z</time>
      </trkpt>
      <trkpt lat="44.99699" lon="6.38687">
        <ele>2098.6</ele>
        <time>2024-08-11T05:36:36Z</time>
      </trkpt>
      <trkpt lat="44.99699" lon="6.38687">
        <ele>2098.8</ele>
        <time>2024-08-11T05:36:37Z</time>
      </trkpt>
      <trkpt lat="44.99701" lon="6.38688">
        <ele>2099</ele>
        <time>2024-08-11T05:36:38Z</time>
      </trkpt>
      <trkpt lat="44.99701" lon="6.38688">
        <ele>2099.2</ele>
        <time>2024-08-11T05:36:39Z</time>
      </trkpt>
      <trkpt lat="44.99701" lon="6.38688">
        <ele>2099.4</ele>
        <time>2024-08-11T05:36:40Z</time>
      </trkpt>
      <trkpt lat="44.99703" lon="6.38689">
        <ele>2099.6</ele>
        <time>2024-08-11T05:36:41Z</time>
      </trkpt>
      <trkpt lat="44.99703" lon="6.38689">
        <ele>2099.6</ele>
        <time>2024-08-11T05:36:42Z</time>
      </trkpt>
      <trkpt lat="44.99703" lon="6.38689">
        <ele>2099.8</ele>
        <time>2024-08-11T05:36:43Z</time>
      </trkpt>
      <trkpt lat="44.99705" lon="6.38691">
        <ele>2099.8</ele>
        <time>2024-08-11T05:36:44Z</time>
      </trkpt>
      <trkpt lat="44.99705" lon="6.38691">
        <ele>2100.2</ele>
        <time>2024-08-11T05:36:45Z</time>
      </trkpt>
      <trkpt lat="44.99705" lon="6.38691">
        <ele>2100.4</ele>
        <time>2024-08-11T05:36:46Z</time>
      </trkpt>
      <trkpt lat="44.99705" lon="6.38691">
        <ele>2100.8</ele>
        <time>2024-08-11T05:36:47Z</time>
      </trkpt>
      <trkpt lat="44.99705" lon="6.38691">
        <ele>2100.8</ele>
        <time>2024-08-11T05:36:48Z</time>
      </trkpt>
      <trkpt lat="44.99705" lon="6.38691">
        <ele>2100.8</ele>
        <time>2024-08-11T05:36:49Z</time>
      </trkpt>
      <trkpt lat="44.99705" lon="6.38691">
        <ele>2100.8</ele>
        <time>2024-08-11T05:36:50Z</time>
      </trkpt>
      <trkpt lat="44.99705" lon="6.38691">
        <ele>2100.8</ele>
        <time>2024-08-11T05:36:51Z</time>
      </trkpt>
      <trkpt lat="44.99705" lon="6.38691">
        <ele>2100.8</ele>
        <time>2024-08-11T05:36:52Z</time>
      </trkpt>
      <trkpt lat="44.99705" lon="6.38691">
        <ele>2100.8</ele>
        <time>2024-08-11T05:36:53Z</time>
      </trkpt>
      <trkpt lat="44.99705" lon="6.38691">
        <ele>2100.8</ele>
        <time>2024-08-11T05:36:54Z</time>
      </trkpt>
      <trkpt lat="44.99705" lon="6.38691">
        <ele>2100.8</ele>
        <time>2024-08-11T05:36:55Z</time>
      </trkpt>
      <trkpt lat="44.99705" lon="6.38691">
        <ele>2101</ele>
        <time>2024-08-11T05:36:56Z</time>
      </trkpt>
      <trkpt lat="44.99705" lon="6.38691">
        <ele>2101</ele>
        <time>2024-08-11T05:36:57Z</time>
      </trkpt>
      <trkpt lat="44.99705" lon="6.38691">
        <ele>2101</ele>
        <time>2024-08-11T05:36:58Z</time>
      </trkpt>
      <trkpt lat="44.99705" lon="6.38691">
        <ele>2101</ele>
        <time>2024-08-11T05:36:59Z</time>
      </trkpt>
      <trkpt lat="44.99705" lon="6.38691">
        <ele>2100.8</ele>
        <time>2024-08-11T05:37:00Z</time>
      </trkpt>
      <trkpt lat="44.99705" lon="6.38691">
        <ele>2100.8</ele>
        <time>2024-08-11T05:37:01Z</time>
      </trkpt>
      <trkpt lat="44.99705" lon="6.38691">
        <ele>2100.8</ele>
        <time>2024-08-11T05:37:02Z</time>
      </trkpt>
      <trkpt lat="44.99705" lon="6.38691">
        <ele>2100.8</ele>
        <time>2024-08-11T05:37:03Z</time>
      </trkpt>
      <trkpt lat="44.99705" lon="6.38691">
        <ele>2100.8</ele>
        <time>2024-08-11T05:37:04Z</time>
      </trkpt>
      <trkpt lat="44.99705" lon="6.38691">
        <ele>2100.6</ele>
        <time>2024-08-11T05:37:05Z</time>
      </trkpt>
      <trkpt lat="44.99705" lon="6.38691">
        <ele>2100.6</ele>
        <time>2024-08-11T05:37:06Z</time>
      </trkpt>
      <trkpt lat="44.99705" lon="6.38691">
        <ele>2100.8</ele>
        <time>2024-08-11T05:37:07Z</time>
      </trkpt>
      <trkpt lat="44.99705" lon="6.38691">
        <ele>2100.8</ele>
        <time>2024-08-11T05:37:08Z</time>
      </trkpt>
      <trkpt lat="44.99705" lon="6.38691">
        <ele>2101</ele>
        <time>2024-08-11T05:37:09Z</time>
      </trkpt>
      <trkpt lat="44.99705" lon="6.38691">
        <ele>2101</ele>
        <time>2024-08-11T05:37:10Z</time>
      </trkpt>
      <trkpt lat="44.99705" lon="6.38691">
        <ele>2101</ele>
        <time>2024-08-11T05:37:11Z</time>
      </trkpt>
      <trkpt lat="44.99705" lon="6.38691">
        <ele>2101</ele>
        <time>2024-08-11T05:37:12Z</time>
      </trkpt>
      <trkpt lat="44.99705" lon="6.38691">
        <ele>2101.2</ele>
        <time>2024-08-11T05:37:13Z</time>
      </trkpt>
      <trkpt lat="44.99705" lon="6.38691">
        <ele>2101.2</ele>
        <time>2024-08-11T05:37:14Z</time>
      </trkpt>
      <trkpt lat="44.99705" lon="6.38691">
        <ele>2101.2</ele>
        <time>2024-08-11T05:37:15Z</time>
      </trkpt>
      <trkpt lat="44.99705" lon="6.38691">
        <ele>2101.2</ele>
        <time>2024-08-11T05:37:16Z</time>
      </trkpt>
      <trkpt lat="44.99705" lon="6.38691">
        <ele>2101.2</ele>
        <time>2024-08-11T05:37:17Z</time>
      </trkpt>
      <trkpt lat="44.99705" lon="6.38691">
        <ele>2101.2</ele>
        <time>2024-08-11T05:37:18Z</time>
      </trkpt>
      <trkpt lat="44.99705" lon="6.38691">
        <ele>2101.2</ele>
        <time>2024-08-11T05:37:19Z</time>
      </trkpt>
      <trkpt lat="44.99705" lon="6.38691">
        <ele>2101.2</ele>
        <time>2024-08-11T05:37:20Z</time>
      </trkpt>
      <trkpt lat="44.99705" lon="6.38691">
        <ele>2101.2</ele>
        <time>2024-08-11T05:37:21Z</time>
      </trkpt>
      <trkpt lat="44.99705" lon="6.38691">
        <ele>2101</ele>
        <time>2024-08-11T05:37:22Z</time>
      </trkpt>
      <trkpt lat="44.99705" lon="6.38691">
        <ele>2101</ele>
        <time>2024-08-11T05:37:23Z</time>
      </trkpt>
      <trkpt lat="44.99705" lon="6.38691">
        <ele>2101</ele>
        <time>2024-08-11T05:37:24Z</time>
      </trkpt>
      <trkpt lat="44.99705" lon="6.38691">
        <ele>2101</ele>
        <time>2024-08-11T05:37:25Z</time>
      </trkpt>
      <trkpt lat="44.99705" lon="6.38691">
        <ele>2101</ele>
        <time>2024-08-11T05:37:26Z</time>
      </trkpt>
      <trkpt lat="44.99705" lon="6.38691">
        <ele>2101</ele>
        <time>2024-08-11T05:37:27Z</time>
      </trkpt>
      <trkpt lat="44.99705" lon="6.38691">
        <ele>2100.8</ele>
        <time>2024-08-11T05:37:28Z</time>
      </trkpt>
      <trkpt lat="44.99705" lon="6.38691">
        <ele>2100.8</ele>
        <time>2024-08-11T05:37:29Z</time>
      </trkpt>
      <trkpt lat="44.99705" lon="6.38691">
        <ele>2100.8</ele>
        <time>2024-08-11T05:37:30Z</time>
      </trkpt>
      <trkpt lat="44.99705" lon="6.38691">
        <ele>2100.8</ele>
        <time>2024-08-11T05:37:31Z</time>
      </trkpt>
      <trkpt lat="44.99705" lon="6.38691">
        <ele>2100.8</ele>
        <time>2024-08-11T05:37:32Z</time>
      </trkpt>
      <trkpt lat="44.99705" lon="6.38691">
        <ele>2100.8</ele>
        <time>2024-08-11T05:37:33Z</time>
      </trkpt>
      <trkpt lat="44.99705" lon="6.38691">
        <ele>2100.8</ele>
        <time>2024-08-11T05:37:34Z</time>
      </trkpt>
      <trkpt lat="44.99705" lon="6.38691">
        <ele>2100.8</ele>
        <time>2024-08-11T05:37:35Z</time>
      </trkpt>
      <trkpt lat="44.99705" lon="6.38691">
        <ele>2100.8</ele>
        <time>2024-08-11T05:37:36Z</time>
      </trkpt>
      <trkpt lat="44.99705" lon="6.38691">
        <ele>2100.8</ele>
        <time>2024-08-11T05:37:37Z</time>
      </trkpt>
      <trkpt lat="44.99705" lon="6.38691">
        <ele>2100.8</ele>
        <time>2024-08-11T05:37:38Z</time>
      </trkpt>
      <trkpt lat="44.99705" lon="6.38691">
        <ele>2100.6</ele>
        <time>2024-08-11T05:37:39Z</time>
      </trkpt>
      <trkpt lat="44.99705" lon="6.38691">
        <ele>2100.6</ele>
        <time>2024-08-11T05:37:40Z</time>
      </trkpt>
      <trkpt lat="44.99705" lon="6.38691">
        <ele>2100.6</ele>
        <time>2024-08-11T05:37:41Z</time>
      </trkpt>
      <trkpt lat="44.99705" lon="6.38691">
        <ele>2100.6</ele>
        <time>2024-08-11T05:37:42Z</time>
      </trkpt>
      <trkpt lat="44.99705" lon="6.38691">
        <ele>2100.6</ele>
        <time>2024-08-11T05:37:43Z</time>
      </trkpt>
      <trkpt lat="44.99705" lon="6.38691">
        <ele>2100.8</ele>
        <time>2024-08-11T05:37:44Z</time>
      </trkpt>
      <trkpt lat="44.99705" lon="6.38691">
        <ele>2100.8</ele>
        <time>2024-08-11T05:37:45Z</time>
      </trkpt>
      <trkpt lat="44.99705" lon="6.38691">
        <ele>2100.8</ele>
        <time>2024-08-11T05:37:46Z</time>
      </trkpt>
      <trkpt lat="44.99705" lon="6.38691">
        <ele>2100.6</ele>
        <time>2024-08-11T05:37:47Z</time>
      </trkpt>
      <trkpt lat="44.99705" lon="6.38691">
        <ele>2100.8</ele>
        <time>2024-08-11T05:37:48Z</time>
      </trkpt>
      <trkpt lat="44.99705" lon="6.38691">
        <ele>2100.6</ele>
        <time>2024-08-11T05:37:49Z</time>
      </trkpt>
      <trkpt lat="44.99705" lon="6.38691">
        <ele>2100.6</ele>
        <time>2024-08-11T05:37:50Z</time>
      </trkpt>
      <trkpt lat="44.99705" lon="6.38691">
        <ele>2100.6</ele>
        <time>2024-08-11T05:37:51Z</time>
      </trkpt>
      <trkpt lat="44.99705" lon="6.38691">
        <ele>2100.6</ele>
        <time>2024-08-11T05:37:52Z</time>
      </trkpt>
      <trkpt lat="44.99705" lon="6.38691">
        <ele>2100.4</ele>
        <time>2024-08-11T05:37:53Z</time>
      </trkpt>
      <trkpt lat="44.99705" lon="6.38691">
        <ele>2100.4</ele>
        <time>2024-08-11T05:37:54Z</time>
      </trkpt>
      <trkpt lat="44.99705" lon="6.38691">
        <ele>2100.6</ele>
        <time>2024-08-11T05:37:55Z</time>
      </trkpt>
      <trkpt lat="44.99705" lon="6.38691">
        <ele>2100.6</ele>
        <time>2024-08-11T05:37:56Z</time>
      </trkpt>
      <trkpt lat="44.99705" lon="6.38691">
        <ele>2100.6</ele>
        <time>2024-08-11T05:37:57Z</time>
      </trkpt>
      <trkpt lat="44.99705" lon="6.38691">
        <ele>2100.4</ele>
        <time>2024-08-11T05:37:58Z</time>
      </trkpt>
      <trkpt lat="44.99705" lon="6.38691">
        <ele>2100.4</ele>
        <time>2024-08-11T05:37:59Z</time>
      </trkpt>
      <trkpt lat="44.99705" lon="6.38691">
        <ele>2100.8</ele>
        <time>2024-08-11T05:38:00Z</time>
      </trkpt>
      <trkpt lat="44.99705" lon="6.38691">
        <ele>2100.8</ele>
        <time>2024-08-11T05:38:01Z</time>
      </trkpt>
      <trkpt lat="44.99705" lon="6.38691">
        <ele>2100.8</ele>
        <time>2024-08-11T05:38:02Z</time>
      </trkpt>
      <trkpt lat="44.99705" lon="6.38691">
        <ele>2100.6</ele>
        <time>2024-08-11T05:38:03Z</time>
      </trkpt>
      <trkpt lat="44.99705" lon="6.38691">
        <ele>2100.4</ele>
        <time>2024-08-11T05:38:04Z</time>
      </trkpt>
      <trkpt lat="44.99705" lon="6.38691">
        <ele>2100.4</ele>
        <time>2024-08-11T05:38:05Z</time>
      </trkpt>
      <trkpt lat="44.99705" lon="6.38691">
        <ele>2100.4</ele>
        <time>2024-08-11T05:38:06Z</time>
      </trkpt>
      <trkpt lat="44.99705" lon="6.38691">
        <ele>2100.6</ele>
        <time>2024-08-11T05:38:07Z</time>
      </trkpt>
      <trkpt lat="44.99705" lon="6.38691">
        <ele>2100.6</ele>
        <time>2024-08-11T05:38:08Z</time>
      </trkpt>
      <trkpt lat="44.99705" lon="6.38691">
        <ele>2100.6</ele>
        <time>2024-08-11T05:38:09Z</time>
      </trkpt>
      <trkpt lat="44.99705" lon="6.38691">
        <ele>2100.6</ele>
        <time>2024-08-11T05:38:10Z</time>
      </trkpt>
      <trkpt lat="44.99705" lon="6.38691">
        <ele>2100.6</ele>
        <time>2024-08-11T05:38:11Z</time>
      </trkpt>
      <trkpt lat="44.99705" lon="6.38691">
        <ele>2100.6</ele>
        <time>2024-08-11T05:38:12Z</time>
      </trkpt>
      <trkpt lat="44.99705" lon="6.38691">
        <ele>2100.6</ele>
        <time>2024-08-11T05:38:13Z</time>
      </trkpt>
      <trkpt lat="44.99705" lon="6.38691">
        <ele>2100.6</ele>
        <time>2024-08-11T05:38:14Z</time>
      </trkpt>
      <trkpt lat="44.99705" lon="6.38691">
        <ele>2100.6</ele>
        <time>2024-08-11T05:38:15Z</time>
      </trkpt>
      <trkpt lat="44.99705" lon="6.38691">
        <ele>2100.6</ele>
        <time>2024-08-11T05:38:16Z</time>
      </trkpt>
      <trkpt lat="44.99705" lon="6.38691">
        <ele>2100.6</ele>
        <time>2024-08-11T05:38:17Z</time>
      </trkpt>
      <trkpt lat="44.99705" lon="6.38691">
        <ele>2100.6</ele>
        <time>2024-08-11T05:38:18Z</time>
      </trkpt>
      <trkpt lat="44.99705" lon="6.38691">
        <ele>2100.6</ele>
        <time>2024-08-11T05:38:19Z</time>
      </trkpt>
      <trkpt lat="44.99705" lon="6.38691">
        <ele>2100.8</ele>
        <time>2024-08-11T05:38:20Z</time>
      </trkpt>
      <trkpt lat="44.99705" lon="6.38691">
        <ele>2100.8</ele>
        <time>2024-08-11T05:38:21Z</time>
      </trkpt>
      <trkpt lat="44.99705" lon="6.38691">
        <ele>2100.8</ele>
        <time>2024-08-11T05:38:22Z</time>
      </trkpt>
      <trkpt lat="44.99705" lon="6.38691">
        <ele>2100.8</ele>
        <time>2024-08-11T05:38:23Z</time>
      </trkpt>
      <trkpt lat="44.99705" lon="6.38691">
        <ele>2100.6</ele>
        <time>2024-08-11T05:38:24Z</time>
      </trkpt>
      <trkpt lat="44.99705" lon="6.38691">
        <ele>2100.4</ele>
        <time>2024-08-11T05:38:25Z</time>
      </trkpt>
      <trkpt lat="44.99705" lon="6.38691">
        <ele>2100.4</ele>
        <time>2024-08-11T05:38:26Z</time>
      </trkpt>
      <trkpt lat="44.99705" lon="6.38691">
        <ele>2100.4</ele>
        <time>2024-08-11T05:38:27Z</time>
      </trkpt>
      <trkpt lat="44.99705" lon="6.38691">
        <ele>2100.4</ele>
        <time>2024-08-11T05:38:28Z</time>
      </trkpt>
      <trkpt lat="44.99705" lon="6.38691">
        <ele>2100.4</ele>
        <time>2024-08-11T05:38:29Z</time>
      </trkpt>
      <trkpt lat="44.99705" lon="6.38691">
        <ele>2100.4</ele>
        <time>2024-08-11T05:38:30Z</time>
      </trkpt>
      <trkpt lat="44.99705" lon="6.38691">
        <ele>2100.4</ele>
        <time>2024-08-11T05:38:31Z</time>
      </trkpt>
      <trkpt lat="44.99705" lon="6.38691">
        <ele>2100.6</ele>
        <time>2024-08-11T05:38:32Z</time>
      </trkpt>
      <trkpt lat="44.99705" lon="6.38691">
        <ele>2100.6</ele>
        <time>2024-08-11T05:38:33Z</time>
      </trkpt>
      <trkpt lat="44.99705" lon="6.38691">
        <ele>2100.8</ele>
        <time>2024-08-11T05:38:34Z</time>
      </trkpt>
      <trkpt lat="44.99705" lon="6.38691">
        <ele>2100.8</ele>
        <time>2024-08-11T05:38:35Z</time>
      </trkpt>
      <trkpt lat="44.99705" lon="6.38691">
        <ele>2101</ele>
        <time>2024-08-11T05:38:36Z</time>
      </trkpt>
      <trkpt lat="44.99705" lon="6.38691">
        <ele>2101</ele>
        <time>2024-08-11T05:38:37Z</time>
      </trkpt>
      <trkpt lat="44.99705" lon="6.38691">
        <ele>2101.4</ele>
        <time>2024-08-11T05:38:38Z</time>
      </trkpt>
      <trkpt lat="44.99706" lon="6.38693">
        <ele>2101.8</ele>
        <time>2024-08-11T05:38:39Z</time>
      </trkpt>
      <trkpt lat="44.99706" lon="6.38693">
        <ele>2101.8</ele>
        <time>2024-08-11T05:38:40Z</time>
      </trkpt>
      <trkpt lat="44.99706" lon="6.38693">
        <ele>2102</ele>
        <time>2024-08-11T05:38:41Z</time>
      </trkpt>
      <trkpt lat="44.99708" lon="6.38696">
        <ele>2102</ele>
        <time>2024-08-11T05:38:42Z</time>
      </trkpt>
      <trkpt lat="44.99708" lon="6.38696">
        <ele>2102.6</ele>
        <time>2024-08-11T05:38:43Z</time>
      </trkpt>
      <trkpt lat="44.99708" lon="6.38696">
        <ele>2102.6</ele>
        <time>2024-08-11T05:38:44Z</time>
      </trkpt>
      <trkpt lat="44.99708" lon="6.38696">
        <ele>2103</ele>
        <time>2024-08-11T05:38:45Z</time>
      </trkpt>
      <trkpt lat="44.99709" lon="6.38698">
        <ele>2103.2</ele>
        <time>2024-08-11T05:38:46Z</time>
      </trkpt>
      <trkpt lat="44.99709" lon="6.38698">
        <ele>2103.4</ele>
        <time>2024-08-11T05:38:47Z</time>
      </trkpt>
      <trkpt lat="44.99709" lon="6.38698">
        <ele>2104</ele>
        <time>2024-08-11T05:38:48Z</time>
      </trkpt>
      <trkpt lat="44.99711" lon="6.38699">
        <ele>2104.4</ele>
        <time>2024-08-11T05:38:49Z</time>
      </trkpt>
      <trkpt lat="44.99711" lon="6.38699">
        <ele>2104.8</ele>
        <time>2024-08-11T05:38:50Z</time>
      </trkpt>
      <trkpt lat="44.99711" lon="6.38699">
        <ele>2104.8</ele>
        <time>2024-08-11T05:38:51Z</time>
      </trkpt>
      <trkpt lat="44.99712" lon="6.38702">
        <ele>2104.8</ele>
        <time>2024-08-11T05:38:52Z</time>
      </trkpt>
      <trkpt lat="44.99712" lon="6.38702">
        <ele>2105.4</ele>
        <time>2024-08-11T05:38:53Z</time>
      </trkpt>
      <trkpt lat="44.99712" lon="6.38702">
        <ele>2105.6</ele>
        <time>2024-08-11T05:38:54Z</time>
      </trkpt>
      <trkpt lat="44.99714" lon="6.38704">
        <ele>2105.8</ele>
        <time>2024-08-11T05:38:55Z</time>
      </trkpt>
      <trkpt lat="44.99714" lon="6.38704">
        <ele>2105.8</ele>
        <time>2024-08-11T05:38:56Z</time>
      </trkpt>
      <trkpt lat="44.99712" lon="6.38706">
        <ele>2106</ele>
        <time>2024-08-11T05:38:57Z</time>
      </trkpt>
      <trkpt lat="44.99712" lon="6.38706">
        <ele>2106</ele>
        <time>2024-08-11T05:38:58Z</time>
      </trkpt>
      <trkpt lat="44.99712" lon="6.38706">
        <ele>2106</ele>
        <time>2024-08-11T05:38:59Z</time>
      </trkpt>
      <trkpt lat="44.9971" lon="6.38708">
        <ele>2106.4</ele>
        <time>2024-08-11T05:39:00Z</time>
      </trkpt>
      <trkpt lat="44.9971" lon="6.38708">
        <ele>2106.4</ele>
        <time>2024-08-11T05:39:01Z</time>
      </trkpt>
      <trkpt lat="44.9971" lon="6.38708">
        <ele>2106.6</ele>
        <time>2024-08-11T05:39:02Z</time>
      </trkpt>
      <trkpt lat="44.99709" lon="6.38711">
        <ele>2106.8</ele>
        <time>2024-08-11T05:39:03Z</time>
      </trkpt>
      <trkpt lat="44.99709" lon="6.38711">
        <ele>2107</ele>
        <time>2024-08-11T05:39:04Z</time>
      </trkpt>
      <trkpt lat="44.99707" lon="6.38713">
        <ele>2107.2</ele>
        <time>2024-08-11T05:39:05Z</time>
      </trkpt>
      <trkpt lat="44.99707" lon="6.38713">
        <ele>2107.6</ele>
        <time>2024-08-11T05:39:06Z</time>
      </trkpt>
      <trkpt lat="44.99707" lon="6.38713">
        <ele>2107.6</ele>
        <time>2024-08-11T05:39:07Z</time>
      </trkpt>
      <trkpt lat="44.99704" lon="6.38716">
        <ele>2107.8</ele>
        <time>2024-08-11T05:39:08Z</time>
      </trkpt>
      <trkpt lat="44.99704" lon="6.38716">
        <ele>2107.8</ele>
        <time>2024-08-11T05:39:09Z</time>
      </trkpt>
      <trkpt lat="44.99703" lon="6.38718">
        <ele>2108</ele>
        <time>2024-08-11T05:39:10Z</time>
      </trkpt>
      <trkpt lat="44.99703" lon="6.38718">
        <ele>2108.2</ele>
        <time>2024-08-11T05:39:11Z</time>
      </trkpt>
      <trkpt lat="44.99701" lon="6.3872">
        <ele>2108.4</ele>
        <time>2024-08-11T05:39:12Z</time>
      </trkpt>
      <trkpt lat="44.99701" lon="6.3872">
        <ele>2108.4</ele>
        <time>2024-08-11T05:39:13Z</time>
      </trkpt>
      <trkpt lat="44.99701" lon="6.3872">
        <ele>2108.6</ele>
        <time>2024-08-11T05:39:14Z</time>
      </trkpt>
      <trkpt lat="44.99699" lon="6.38723">
        <ele>2108.6</ele>
        <time>2024-08-11T05:39:15Z</time>
      </trkpt>
      <trkpt lat="44.99699" lon="6.38723">
        <ele>2109</ele>
        <time>2024-08-11T05:39:16Z</time>
      </trkpt>
      <trkpt lat="44.99699" lon="6.38723">
        <ele>2109.6</ele>
        <time>2024-08-11T05:39:17Z</time>
      </trkpt>
      <trkpt lat="44.99697" lon="6.38725">
        <ele>2109.6</ele>
        <time>2024-08-11T05:39:18Z</time>
      </trkpt>
      <trkpt lat="44.99697" lon="6.38725">
        <ele>2109.8</ele>
        <time>2024-08-11T05:39:19Z</time>
      </trkpt>
      <trkpt lat="44.99697" lon="6.38725">
        <ele>2110</ele>
        <time>2024-08-11T05:39:20Z</time>
      </trkpt>
      <trkpt lat="44.99695" lon="6.38728">
        <ele>2110.2</ele>
        <time>2024-08-11T05:39:21Z</time>
      </trkpt>
      <trkpt lat="44.99695" lon="6.38728">
        <ele>2110.4</ele>
        <time>2024-08-11T05:39:22Z</time>
      </trkpt>
      <trkpt lat="44.99694" lon="6.38729">
        <ele>2110.8</ele>
        <time>2024-08-11T05:39:23Z</time>
      </trkpt>
      <trkpt lat="44.99694" lon="6.38729">
        <ele>2111</ele>
        <time>2024-08-11T05:39:24Z</time>
      </trkpt>
      <trkpt lat="44.99694" lon="6.38729">
        <ele>2111</ele>
        <time>2024-08-11T05:39:25Z</time>
      </trkpt>
      <trkpt lat="44.99691" lon="6.38731">
        <ele>2111</ele>
        <time>2024-08-11T05:39:26Z</time>
      </trkpt>
      <trkpt lat="44.99691" lon="6.38731">
        <ele>2111</ele>
        <time>2024-08-11T05:39:27Z</time>
      </trkpt>
      <trkpt lat="44.99689" lon="6.38732">
        <ele>2111.2</ele>
        <time>2024-08-11T05:39:28Z</time>
      </trkpt>
      <trkpt lat="44.99689" lon="6.38732">
        <ele>2111.4</ele>
        <time>2024-08-11T05:39:29Z</time>
      </trkpt>
      <trkpt lat="44.99686" lon="6.38732">
        <ele>2111.4</ele>
        <time>2024-08-11T05:39:30Z</time>
      </trkpt>
      <trkpt lat="44.99686" lon="6.38732">
        <ele>2111.6</ele>
        <time>2024-08-11T05:39:31Z</time>
      </trkpt>
      <trkpt lat="44.99684" lon="6.38732">
        <ele>2111.6</ele>
        <time>2024-08-11T05:39:32Z</time>
      </trkpt>
      <trkpt lat="44.99684" lon="6.38732">
        <ele>2111.6</ele>
        <time>2024-08-11T05:39:33Z</time>
      </trkpt>
      <trkpt lat="44.99684" lon="6.38732">
        <ele>2111.6</ele>
        <time>2024-08-11T05:39:34Z</time>
      </trkpt>
      <trkpt lat="44.99684" lon="6.38732">
        <ele>2112</ele>
        <time>2024-08-11T05:39:35Z</time>
      </trkpt>
      <trkpt lat="44.99682" lon="6.38731">
        <ele>2112.4</ele>
        <time>2024-08-11T05:39:36Z</time>
      </trkpt>
      <trkpt lat="44.99682" lon="6.38731">
        <ele>2112.6</ele>
        <time>2024-08-11T05:39:37Z</time>
      </trkpt>
      <trkpt lat="44.99682" lon="6.38731">
        <ele>2112.8</ele>
        <time>2024-08-11T05:39:38Z</time>
      </trkpt>
      <trkpt lat="44.99679" lon="6.38731">
        <ele>2113</ele>
        <time>2024-08-11T05:39:39Z</time>
      </trkpt>
      <trkpt lat="44.99679" lon="6.38731">
        <ele>2113.2</ele>
        <time>2024-08-11T05:39:40Z</time>
      </trkpt>
      <trkpt lat="44.99677" lon="6.38731">
        <ele>2113.4</ele>
        <time>2024-08-11T05:39:41Z</time>
      </trkpt>
      <trkpt lat="44.99677" lon="6.38731">
        <ele>2113.4</ele>
        <time>2024-08-11T05:39:42Z</time>
      </trkpt>
      <trkpt lat="44.99675" lon="6.38733">
        <ele>2113.6</ele>
        <time>2024-08-11T05:39:43Z</time>
      </trkpt>
      <trkpt lat="44.99675" lon="6.38733">
        <ele>2114</ele>
        <time>2024-08-11T05:39:44Z</time>
      </trkpt>
      <trkpt lat="44.99673" lon="6.38735">
        <ele>2114.4</ele>
        <time>2024-08-11T05:39:45Z</time>
      </trkpt>
      <trkpt lat="44.99673" lon="6.38735">
        <ele>2114.4</ele>
        <time>2024-08-11T05:39:46Z</time>
      </trkpt>
      <trkpt lat="44.99672" lon="6.38737">
        <ele>2114.4</ele>
        <time>2024-08-11T05:39:47Z</time>
      </trkpt>
      <trkpt lat="44.99672" lon="6.38737">
        <ele>2115</ele>
        <time>2024-08-11T05:39:48Z</time>
      </trkpt>
      <trkpt lat="44.9967" lon="6.38739">
        <ele>2115</ele>
        <time>2024-08-11T05:39:49Z</time>
      </trkpt>
      <trkpt lat="44.9967" lon="6.38739">
        <ele>2115.2</ele>
        <time>2024-08-11T05:39:50Z</time>
      </trkpt>
      <trkpt lat="44.99668" lon="6.3874">
        <ele>2115.2</ele>
        <time>2024-08-11T05:39:51Z</time>
      </trkpt>
      <trkpt lat="44.99668" lon="6.3874">
        <ele>2115.4</ele>
        <time>2024-08-11T05:39:52Z</time>
      </trkpt>
      <trkpt lat="44.99666" lon="6.38741">
        <ele>2115.6</ele>
        <time>2024-08-11T05:39:53Z</time>
      </trkpt>
      <trkpt lat="44.99666" lon="6.38741">
        <ele>2115.6</ele>
        <time>2024-08-11T05:39:54Z</time>
      </trkpt>
      <trkpt lat="44.99664" lon="6.38741">
        <ele>2115.6</ele>
        <time>2024-08-11T05:39:55Z</time>
      </trkpt>
      <trkpt lat="44.99664" lon="6.38741">
        <ele>2116</ele>
        <time>2024-08-11T05:39:56Z</time>
      </trkpt>
      <trkpt lat="44.99662" lon="6.38743">
        <ele>2116.2</ele>
        <time>2024-08-11T05:39:57Z</time>
      </trkpt>
      <trkpt lat="44.99662" lon="6.38743">
        <ele>2116.2</ele>
        <time>2024-08-11T05:39:58Z</time>
      </trkpt>
      <trkpt lat="44.9966" lon="6.38744">
        <ele>2116.4</ele>
        <time>2024-08-11T05:39:59Z</time>
      </trkpt>
      <trkpt lat="44.9966" lon="6.38744">
        <ele>2116.6</ele>
        <time>2024-08-11T05:40:00Z</time>
      </trkpt>
      <trkpt lat="44.99658" lon="6.38745">
        <ele>2116.8</ele>
        <time>2024-08-11T05:40:01Z</time>
      </trkpt>
      <trkpt lat="44.99658" lon="6.38745">
        <ele>2116.8</ele>
        <time>2024-08-11T05:40:02Z</time>
      </trkpt>
      <trkpt lat="44.99656" lon="6.38746">
        <ele>2117</ele>
        <time>2024-08-11T05:40:03Z</time>
      </trkpt>
      <trkpt lat="44.99656" lon="6.38746">
        <ele>2117.2</ele>
        <time>2024-08-11T05:40:04Z</time>
      </trkpt>
      <trkpt lat="44.99654" lon="6.38748">
        <ele>2117.6</ele>
        <time>2024-08-11T05:40:05Z</time>
      </trkpt>
      <trkpt lat="44.99654" lon="6.38748">
        <ele>2117.8</ele>
        <time>2024-08-11T05:40:06Z</time>
      </trkpt>
      <trkpt lat="44.99654" lon="6.38748">
        <ele>2118</ele>
        <time>2024-08-11T05:40:07Z</time>
      </trkpt>
      <trkpt lat="44.99651" lon="6.38751">
        <ele>2118.4</ele>
        <time>2024-08-11T05:40:08Z</time>
      </trkpt>
      <trkpt lat="44.99651" lon="6.38751">
        <ele>2118.4</ele>
        <time>2024-08-11T05:40:09Z</time>
      </trkpt>
      <trkpt lat="44.99651" lon="6.38751">
        <ele>2118.8</ele>
        <time>2024-08-11T05:40:10Z</time>
      </trkpt>
      <trkpt lat="44.99649" lon="6.38753">
        <ele>2119</ele>
        <time>2024-08-11T05:40:11Z</time>
      </trkpt>
      <trkpt lat="44.99649" lon="6.38753">
        <ele>2119.2</ele>
        <time>2024-08-11T05:40:12Z</time>
      </trkpt>
      <trkpt lat="44.99648" lon="6.38755">
        <ele>2119.2</ele>
        <time>2024-08-11T05:40:13Z</time>
      </trkpt>
      <trkpt lat="44.99648" lon="6.38755">
        <ele>2119.4</ele>
        <time>2024-08-11T05:40:14Z</time>
      </trkpt>
      <trkpt lat="44.99646" lon="6.38757">
        <ele>2119.6</ele>
        <time>2024-08-11T05:40:15Z</time>
      </trkpt>
      <trkpt lat="44.99646" lon="6.38757">
        <ele>2120</ele>
        <time>2024-08-11T05:40:16Z</time>
      </trkpt>
      <trkpt lat="44.99645" lon="6.38759">
        <ele>2120</ele>
        <time>2024-08-11T05:40:17Z</time>
      </trkpt>
      <trkpt lat="44.99645" lon="6.38759">
        <ele>2120</ele>
        <time>2024-08-11T05:40:18Z</time>
      </trkpt>
      <trkpt lat="44.99643" lon="6.3876">
        <ele>2120.2</ele>
        <time>2024-08-11T05:40:19Z</time>
      </trkpt>
      <trkpt lat="44.99643" lon="6.3876">
        <ele>2120.6</ele>
        <time>2024-08-11T05:40:20Z</time>
      </trkpt>
      <trkpt lat="44.99641" lon="6.38762">
        <ele>2120.6</ele>
        <time>2024-08-11T05:40:21Z</time>
      </trkpt>
      <trkpt lat="44.99641" lon="6.38762">
        <ele>2120.8</ele>
        <time>2024-08-11T05:40:22Z</time>
      </trkpt>
      <trkpt lat="44.99639" lon="6.38763">
        <ele>2120.8</ele>
        <time>2024-08-11T05:40:23Z</time>
      </trkpt>
      <trkpt lat="44.99639" lon="6.38763">
        <ele>2121</ele>
        <time>2024-08-11T05:40:24Z</time>
      </trkpt>
      <trkpt lat="44.99637" lon="6.38765">
        <ele>2121</ele>
        <time>2024-08-11T05:40:25Z</time>
      </trkpt>
      <trkpt lat="44.99637" lon="6.38765">
        <ele>2121</ele>
        <time>2024-08-11T05:40:26Z</time>
      </trkpt>
      <trkpt lat="44.99635" lon="6.38766">
        <ele>2121.6</ele>
        <time>2024-08-11T05:40:27Z</time>
      </trkpt>
      <trkpt lat="44.99635" lon="6.38766">
        <ele>2121.8</ele>
        <time>2024-08-11T05:40:28Z</time>
      </trkpt>
      <trkpt lat="44.99633" lon="6.38766">
        <ele>2121.8</ele>
        <time>2024-08-11T05:40:29Z</time>
      </trkpt>
      <trkpt lat="44.99633" lon="6.38766">
        <ele>2121.8</ele>
        <time>2024-08-11T05:40:30Z</time>
      </trkpt>
      <trkpt lat="44.99631" lon="6.38766">
        <ele>2121.8</ele>
        <time>2024-08-11T05:40:31Z</time>
      </trkpt>
      <trkpt lat="44.99631" lon="6.38766">
        <ele>2121.8</ele>
        <time>2024-08-11T05:40:32Z</time>
      </trkpt>
      <trkpt lat="44.99629" lon="6.38767">
        <ele>2121.8</ele>
        <time>2024-08-11T05:40:33Z</time>
      </trkpt>
      <trkpt lat="44.99629" lon="6.38767">
        <ele>2121.6</ele>
        <time>2024-08-11T05:40:34Z</time>
      </trkpt>
      <trkpt lat="44.99627" lon="6.38768">
        <ele>2121.6</ele>
        <time>2024-08-11T05:40:35Z</time>
      </trkpt>
      <trkpt lat="44.99627" lon="6.38768">
        <ele>2121.6</ele>
        <time>2024-08-11T05:40:36Z</time>
      </trkpt>
      <trkpt lat="44.99625" lon="6.38769">
        <ele>2121.8</ele>
        <time>2024-08-11T05:40:37Z</time>
      </trkpt>
      <trkpt lat="44.99625" lon="6.38769">
        <ele>2122</ele>
        <time>2024-08-11T05:40:38Z</time>
      </trkpt>
      <trkpt lat="44.99623" lon="6.38771">
        <ele>2122</ele>
        <time>2024-08-11T05:40:39Z</time>
      </trkpt>
      <trkpt lat="44.99623" lon="6.38771">
        <ele>2121.8</ele>
        <time>2024-08-11T05:40:40Z</time>
      </trkpt>
      <trkpt lat="44.99621" lon="6.38773">
        <ele>2121.8</ele>
        <time>2024-08-11T05:40:41Z</time>
      </trkpt>
      <trkpt lat="44.99621" lon="6.38773">
        <ele>2121.8</ele>
        <time>2024-08-11T05:40:42Z</time>
      </trkpt>
      <trkpt lat="44.99619" lon="6.38774">
        <ele>2122</ele>
        <time>2024-08-11T05:40:43Z</time>
      </trkpt>
      <trkpt lat="44.99619" lon="6.38774">
        <ele>2122</ele>
        <time>2024-08-11T05:40:44Z</time>
      </trkpt>
      <trkpt lat="44.99617" lon="6.38776">
        <ele>2122.2</ele>
        <time>2024-08-11T05:40:45Z</time>
      </trkpt>
      <trkpt lat="44.99617" lon="6.38776">
        <ele>2122.4</ele>
        <time>2024-08-11T05:40:46Z</time>
      </trkpt>
      <trkpt lat="44.99616" lon="6.38779">
        <ele>2122.8</ele>
        <time>2024-08-11T05:40:47Z</time>
      </trkpt>
      <trkpt lat="44.99616" lon="6.38779">
        <ele>2122.8</ele>
        <time>2024-08-11T05:40:48Z</time>
      </trkpt>
      <trkpt lat="44.99616" lon="6.38779">
        <ele>2123.2</ele>
        <time>2024-08-11T05:40:49Z</time>
      </trkpt>
      <trkpt lat="44.99615" lon="6.38782">
        <ele>2123.2</ele>
        <time>2024-08-11T05:40:50Z</time>
      </trkpt>
      <trkpt lat="44.99615" lon="6.38782">
        <ele>2123.4</ele>
        <time>2024-08-11T05:40:51Z</time>
      </trkpt>
      <trkpt lat="44.99615" lon="6.38786">
        <ele>2123.6</ele>
        <time>2024-08-11T05:40:52Z</time>
      </trkpt>
      <trkpt lat="44.99615" lon="6.38786">
        <ele>2123.8</ele>
        <time>2024-08-11T05:40:53Z</time>
      </trkpt>
      <trkpt lat="44.99615" lon="6.38786">
        <ele>2124</ele>
        <time>2024-08-11T05:40:54Z</time>
      </trkpt>
      <trkpt lat="44.99613" lon="6.38789">
        <ele>2124.2</ele>
        <time>2024-08-11T05:40:55Z</time>
      </trkpt>
      <trkpt lat="44.99613" lon="6.38789">
        <ele>2124.4</ele>
        <time>2024-08-11T05:40:56Z</time>
      </trkpt>
      <trkpt lat="44.99613" lon="6.38789">
        <ele>2124.8</ele>
        <time>2024-08-11T05:40:57Z</time>
      </trkpt>
      <trkpt lat="44.99612" lon="6.38792">
        <ele>2124.8</ele>
        <time>2024-08-11T05:40:58Z</time>
      </trkpt>
      <trkpt lat="44.99612" lon="6.38792">
        <ele>2125</ele>
        <time>2024-08-11T05:40:59Z</time>
      </trkpt>
      <trkpt lat="44.99612" lon="6.38792">
        <ele>2124.8</ele>
        <time>2024-08-11T05:41:00Z</time>
      </trkpt>
      <trkpt lat="44.99609" lon="6.38793">
        <ele>2124.8</ele>
        <time>2024-08-11T05:41:01Z</time>
      </trkpt>
      <trkpt lat="44.99609" lon="6.38793">
        <ele>2124.8</ele>
        <time>2024-08-11T05:41:02Z</time>
      </trkpt>
      <trkpt lat="44.99607" lon="6.38792">
        <ele>2125</ele>
        <time>2024-08-11T05:41:03Z</time>
      </trkpt>
      <trkpt lat="44.99607" lon="6.38792">
        <ele>2125.2</ele>
        <time>2024-08-11T05:41:04Z</time>
      </trkpt>
      <trkpt lat="44.99605" lon="6.38792">
        <ele>2125.2</ele>
        <time>2024-08-11T05:41:05Z</time>
      </trkpt>
      <trkpt lat="44.99605" lon="6.38792">
        <ele>2125.2</ele>
        <time>2024-08-11T05:41:06Z</time>
      </trkpt>
      <trkpt lat="44.99603" lon="6.38791">
        <ele>2125.4</ele>
        <time>2024-08-11T05:41:07Z</time>
      </trkpt>
      <trkpt lat="44.99603" lon="6.38791">
        <ele>2125.4</ele>
        <time>2024-08-11T05:41:08Z</time>
      </trkpt>
      <trkpt lat="44.99601" lon="6.38791">
        <ele>2125.8</ele>
        <time>2024-08-11T05:41:09Z</time>
      </trkpt>
      <trkpt lat="44.99601" lon="6.38791">
        <ele>2125.8</ele>
        <time>2024-08-11T05:41:10Z</time>
      </trkpt>
      <trkpt lat="44.99599" lon="6.38793">
        <ele>2125.8</ele>
        <time>2024-08-11T05:41:11Z</time>
      </trkpt>
      <trkpt lat="44.99599" lon="6.38793">
        <ele>2125.8</ele>
        <time>2024-08-11T05:41:12Z</time>
      </trkpt>
      <trkpt lat="44.99597" lon="6.38795">
        <ele>2125.8</ele>
        <time>2024-08-11T05:41:13Z</time>
      </trkpt>
      <trkpt lat="44.99597" lon="6.38795">
        <ele>2125.6</ele>
        <time>2024-08-11T05:41:14Z</time>
      </trkpt>
      <trkpt lat="44.99596" lon="6.38797">
        <ele>2125.6</ele>
        <time>2024-08-11T05:41:15Z</time>
      </trkpt>
      <trkpt lat="44.99596" lon="6.38797">
        <ele>2125.8</ele>
        <time>2024-08-11T05:41:16Z</time>
      </trkpt>
      <trkpt lat="44.99593" lon="6.38799">
        <ele>2125.8</ele>
        <time>2024-08-11T05:41:17Z</time>
      </trkpt>
      <trkpt lat="44.99593" lon="6.38799">
        <ele>2125.8</ele>
        <time>2024-08-11T05:41:18Z</time>
      </trkpt>
      <trkpt lat="44.99591" lon="6.388">
        <ele>2126</ele>
        <time>2024-08-11T05:41:19Z</time>
      </trkpt>
      <trkpt lat="44.99591" lon="6.388">
        <ele>2126.2</ele>
        <time>2024-08-11T05:41:20Z</time>
      </trkpt>
      <trkpt lat="44.99589" lon="6.38799">
        <ele>2126.4</ele>
        <time>2024-08-11T05:41:21Z</time>
      </trkpt>
      <trkpt lat="44.99589" lon="6.38799">
        <ele>2126.4</ele>
        <time>2024-08-11T05:41:22Z</time>
      </trkpt>
      <trkpt lat="44.99589" lon="6.38799">
        <ele>2126.8</ele>
        <time>2024-08-11T05:41:23Z</time>
      </trkpt>
      <trkpt lat="44.99587" lon="6.38798">
        <ele>2126.8</ele>
        <time>2024-08-11T05:41:24Z</time>
      </trkpt>
      <trkpt lat="44.99587" lon="6.38798">
        <ele>2127</ele>
        <time>2024-08-11T05:41:25Z</time>
      </trkpt>
      <trkpt lat="44.99587" lon="6.38798">
        <ele>2127</ele>
        <time>2024-08-11T05:41:26Z</time>
      </trkpt>
      <trkpt lat="44.99584" lon="6.38798">
        <ele>2127.4</ele>
        <time>2024-08-11T05:41:27Z</time>
      </trkpt>
      <trkpt lat="44.99584" lon="6.38798">
        <ele>2127.6</ele>
        <time>2024-08-11T05:41:28Z</time>
      </trkpt>
      <trkpt lat="44.99584" lon="6.38798">
        <ele>2128</ele>
        <time>2024-08-11T05:41:29Z</time>
      </trkpt>
      <trkpt lat="44.99581" lon="6.38798">
        <ele>2128.4</ele>
        <time>2024-08-11T05:41:30Z</time>
      </trkpt>
      <trkpt lat="44.99581" lon="6.38798">
        <ele>2128.6</ele>
        <time>2024-08-11T05:41:31Z</time>
      </trkpt>
      <trkpt lat="44.99579" lon="6.38798">
        <ele>2129</ele>
        <time>2024-08-11T05:41:32Z</time>
      </trkpt>
      <trkpt lat="44.99579" lon="6.38798">
        <ele>2129</ele>
        <time>2024-08-11T05:41:33Z</time>
      </trkpt>
      <trkpt lat="44.99577" lon="6.38798">
        <ele>2129.2</ele>
        <time>2024-08-11T05:41:34Z</time>
      </trkpt>
      <trkpt lat="44.99577" lon="6.38798">
        <ele>2129.4</ele>
        <time>2024-08-11T05:41:35Z</time>
      </trkpt>
      <trkpt lat="44.99577" lon="6.38798">
        <ele>2129.4</ele>
        <time>2024-08-11T05:41:36Z</time>
      </trkpt>
      <trkpt lat="44.99575" lon="6.388">
        <ele>2129.6</ele>
        <time>2024-08-11T05:41:37Z</time>
      </trkpt>
      <trkpt lat="44.99575" lon="6.388">
        <ele>2129.8</ele>
        <time>2024-08-11T05:41:38Z</time>
      </trkpt>
      <trkpt lat="44.99574" lon="6.38802">
        <ele>2130</ele>
        <time>2024-08-11T05:41:39Z</time>
      </trkpt>
      <trkpt lat="44.99574" lon="6.38802">
        <ele>2130</ele>
        <time>2024-08-11T05:41:40Z</time>
      </trkpt>
      <trkpt lat="44.99573" lon="6.38805">
        <ele>2130</ele>
        <time>2024-08-11T05:41:41Z</time>
      </trkpt>
      <trkpt lat="44.99573" lon="6.38805">
        <ele>2130</ele>
        <time>2024-08-11T05:41:42Z</time>
      </trkpt>
      <trkpt lat="44.99572" lon="6.38808">
        <ele>2130.2</ele>
        <time>2024-08-11T05:41:43Z</time>
      </trkpt>
      <trkpt lat="44.99572" lon="6.38808">
        <ele>2130.2</ele>
        <time>2024-08-11T05:41:44Z</time>
      </trkpt>
      <trkpt lat="44.99571" lon="6.38811">
        <ele>2130</ele>
        <time>2024-08-11T05:41:45Z</time>
      </trkpt>
      <trkpt lat="44.99571" lon="6.38811">
        <ele>2130</ele>
        <time>2024-08-11T05:41:46Z</time>
      </trkpt>
      <trkpt lat="44.99571" lon="6.38811">
        <ele>2130</ele>
        <time>2024-08-11T05:41:47Z</time>
      </trkpt>
      <trkpt lat="44.99569" lon="6.38814">
        <ele>2130.2</ele>
        <time>2024-08-11T05:41:48Z</time>
      </trkpt>
      <trkpt lat="44.99569" lon="6.38814">
        <ele>2130.2</ele>
        <time>2024-08-11T05:41:49Z</time>
      </trkpt>
      <trkpt lat="44.99569" lon="6.38818">
        <ele>2130</ele>
        <time>2024-08-11T05:41:50Z</time>
      </trkpt>
      <trkpt lat="44.99569" lon="6.38818">
        <ele>2129.8</ele>
        <time>2024-08-11T05:41:51Z</time>
      </trkpt>
      <trkpt lat="44.99568" lon="6.38821">
        <ele>2129.8</ele>
        <time>2024-08-11T05:41:52Z</time>
      </trkpt>
      <trkpt lat="44.99568" lon="6.38821">
        <ele>2129.6</ele>
        <time>2024-08-11T05:41:53Z</time>
      </trkpt>
      <trkpt lat="44.99567" lon="6.38823">
        <ele>2129.6</ele>
        <time>2024-08-11T05:41:54Z</time>
      </trkpt>
      <trkpt lat="44.99567" lon="6.38823">
        <ele>2129.4</ele>
        <time>2024-08-11T05:41:55Z</time>
      </trkpt>
      <trkpt lat="44.99567" lon="6.38823">
        <ele>2129.4</ele>
        <time>2024-08-11T05:41:56Z</time>
      </trkpt>
      <trkpt lat="44.99565" lon="6.38822">
        <ele>2129.2</ele>
        <time>2024-08-11T05:41:57Z</time>
      </trkpt>
      <trkpt lat="44.99565" lon="6.38822">
        <ele>2129.2</ele>
        <time>2024-08-11T05:41:58Z</time>
      </trkpt>
      <trkpt lat="44.99563" lon="6.38822">
        <ele>2129.2</ele>
        <time>2024-08-11T05:41:59Z</time>
      </trkpt>
      <trkpt lat="44.99563" lon="6.38822">
        <ele>2129.6</ele>
        <time>2024-08-11T05:42:00Z</time>
      </trkpt>
      <trkpt lat="44.99561" lon="6.38822">
        <ele>2129.6</ele>
        <time>2024-08-11T05:42:01Z</time>
      </trkpt>
      <trkpt lat="44.99561" lon="6.38822">
        <ele>2129.8</ele>
        <time>2024-08-11T05:42:02Z</time>
      </trkpt>
      <trkpt lat="44.99559" lon="6.38822">
        <ele>2130</ele>
        <time>2024-08-11T05:42:03Z</time>
      </trkpt>
      <trkpt lat="44.99559" lon="6.38822">
        <ele>2130</ele>
        <time>2024-08-11T05:42:04Z</time>
      </trkpt>
      <trkpt lat="44.99556" lon="6.38823">
        <ele>2130</ele>
        <time>2024-08-11T05:42:05Z</time>
      </trkpt>
      <trkpt lat="44.99556" lon="6.38823">
        <ele>2129.8</ele>
        <time>2024-08-11T05:42:06Z</time>
      </trkpt>
      <trkpt lat="44.99554" lon="6.38822">
        <ele>2129.8</ele>
        <time>2024-08-11T05:42:07Z</time>
      </trkpt>
      <trkpt lat="44.99554" lon="6.38822">
        <ele>2129.8</ele>
        <time>2024-08-11T05:42:08Z</time>
      </trkpt>
      <trkpt lat="44.99552" lon="6.38822">
        <ele>2129.8</ele>
        <time>2024-08-11T05:42:09Z</time>
      </trkpt>
      <trkpt lat="44.99552" lon="6.38822">
        <ele>2130</ele>
        <time>2024-08-11T05:42:10Z</time>
      </trkpt>
      <trkpt lat="44.99549" lon="6.38822">
        <ele>2130.6</ele>
        <time>2024-08-11T05:42:11Z</time>
      </trkpt>
      <trkpt lat="44.99549" lon="6.38822">
        <ele>2130.6</ele>
        <time>2024-08-11T05:42:12Z</time>
      </trkpt>
      <trkpt lat="44.99548" lon="6.38822">
        <ele>2130.2</ele>
        <time>2024-08-11T05:42:13Z</time>
      </trkpt>
      <trkpt lat="44.99548" lon="6.38822">
        <ele>2130.2</ele>
        <time>2024-08-11T05:42:14Z</time>
      </trkpt>
      <trkpt lat="44.99548" lon="6.38822">
        <ele>2130.6</ele>
        <time>2024-08-11T05:42:15Z</time>
      </trkpt>
      <trkpt lat="44.99545" lon="6.38822">
        <ele>2131.2</ele>
        <time>2024-08-11T05:42:16Z</time>
      </trkpt>
      <trkpt lat="44.99545" lon="6.38822">
        <ele>2131.4</ele>
        <time>2024-08-11T05:42:17Z</time>
      </trkpt>
      <trkpt lat="44.99543" lon="6.38822">
        <ele>2131.6</ele>
        <time>2024-08-11T05:42:18Z</time>
      </trkpt>
      <trkpt lat="44.99543" lon="6.38822">
        <ele>2131.6</ele>
        <time>2024-08-11T05:42:19Z</time>
      </trkpt>
      <trkpt lat="44.99543" lon="6.38822">
        <ele>2131.6</ele>
        <time>2024-08-11T05:42:20Z</time>
      </trkpt>
      <trkpt lat="44.99541" lon="6.3882">
        <ele>2132</ele>
        <time>2024-08-11T05:42:21Z</time>
      </trkpt>
      <trkpt lat="44.99541" lon="6.3882">
        <ele>2132.4</ele>
        <time>2024-08-11T05:42:22Z</time>
      </trkpt>
      <trkpt lat="44.99541" lon="6.3882">
        <ele>2132.4</ele>
        <time>2024-08-11T05:42:23Z</time>
      </trkpt>
      <trkpt lat="44.9954" lon="6.38818">
        <ele>2132.6</ele>
        <time>2024-08-11T05:42:24Z</time>
      </trkpt>
      <trkpt lat="44.9954" lon="6.38818">
        <ele>2133</ele>
        <time>2024-08-11T05:42:25Z</time>
      </trkpt>
      <trkpt lat="44.9954" lon="6.38818">
        <ele>2133.4</ele>
        <time>2024-08-11T05:42:26Z</time>
      </trkpt>
      <trkpt lat="44.99538" lon="6.38817">
        <ele>2133.4</ele>
        <time>2024-08-11T05:42:27Z</time>
      </trkpt>
      <trkpt lat="44.99538" lon="6.38817">
        <ele>2133.6</ele>
        <time>2024-08-11T05:42:28Z</time>
      </trkpt>
      <trkpt lat="44.99538" lon="6.38817">
        <ele>2133.8</ele>
        <time>2024-08-11T05:42:29Z</time>
      </trkpt>
      <trkpt lat="44.99536" lon="6.38817">
        <ele>2134</ele>
        <time>2024-08-11T05:42:30Z</time>
      </trkpt>
      <trkpt lat="44.99536" lon="6.38817">
        <ele>2134.6</ele>
        <time>2024-08-11T05:42:31Z</time>
      </trkpt>
      <trkpt lat="44.99536" lon="6.38817">
        <ele>2134.8</ele>
        <time>2024-08-11T05:42:32Z</time>
      </trkpt>
      <trkpt lat="44.99533" lon="6.38818">
        <ele>2135</ele>
        <time>2024-08-11T05:42:33Z</time>
      </trkpt>
      <trkpt lat="44.99533" lon="6.38818">
        <ele>2135</ele>
        <time>2024-08-11T05:42:34Z</time>
      </trkpt>
      <trkpt lat="44.99533" lon="6.38818">
        <ele>2135.2</ele>
        <time>2024-08-11T05:42:35Z</time>
      </trkpt>
      <trkpt lat="44.99531" lon="6.38819">
        <ele>2135.4</ele>
        <time>2024-08-11T05:42:36Z</time>
      </trkpt>
      <trkpt lat="44.99531" lon="6.38819">
        <ele>2135.6</ele>
        <time>2024-08-11T05:42:37Z</time>
      </trkpt>
      <trkpt lat="44.99531" lon="6.38819">
        <ele>2135.6</ele>
        <time>2024-08-11T05:42:38Z</time>
      </trkpt>
      <trkpt lat="44.99529" lon="6.38821">
        <ele>2136.2</ele>
        <time>2024-08-11T05:42:39Z</time>
      </trkpt>
      <trkpt lat="44.99529" lon="6.38821">
        <ele>2136.2</ele>
        <time>2024-08-11T05:42:40Z</time>
      </trkpt>
      <trkpt lat="44.99527" lon="6.38822">
        <ele>2136.4</ele>
        <time>2024-08-11T05:42:41Z</time>
      </trkpt>
      <trkpt lat="44.99527" lon="6.38822">
        <ele>2136.4</ele>
        <time>2024-08-11T05:42:42Z</time>
      </trkpt>
      <trkpt lat="44.99527" lon="6.38822">
        <ele>2136.6</ele>
        <time>2024-08-11T05:42:43Z</time>
      </trkpt>
      <trkpt lat="44.99525" lon="6.38824">
        <ele>2136.6</ele>
        <time>2024-08-11T05:42:44Z</time>
      </trkpt>
      <trkpt lat="44.99525" lon="6.38824">
        <ele>2136.8</ele>
        <time>2024-08-11T05:42:45Z</time>
      </trkpt>
      <trkpt lat="44.99523" lon="6.38825">
        <ele>2136.8</ele>
        <time>2024-08-11T05:42:46Z</time>
      </trkpt>
      <trkpt lat="44.99523" lon="6.38825">
        <ele>2136.8</ele>
        <time>2024-08-11T05:42:47Z</time>
      </trkpt>
      <trkpt lat="44.99521" lon="6.38825">
        <ele>2136.8</ele>
        <time>2024-08-11T05:42:48Z</time>
      </trkpt>
      <trkpt lat="44.99521" lon="6.38825">
        <ele>2137.2</ele>
        <time>2024-08-11T05:42:49Z</time>
      </trkpt>
      <trkpt lat="44.99518" lon="6.38826">
        <ele>2137.4</ele>
        <time>2024-08-11T05:42:50Z</time>
      </trkpt>
      <trkpt lat="44.99518" lon="6.38826">
        <ele>2137.4</ele>
        <time>2024-08-11T05:42:51Z</time>
      </trkpt>
      <trkpt lat="44.99518" lon="6.38826">
        <ele>2137.4</ele>
        <time>2024-08-11T05:42:52Z</time>
      </trkpt>
      <trkpt lat="44.99516" lon="6.38827">
        <ele>2137.6</ele>
        <time>2024-08-11T05:42:53Z</time>
      </trkpt>
      <trkpt lat="44.99516" lon="6.38827">
        <ele>2138</ele>
        <time>2024-08-11T05:42:54Z</time>
      </trkpt>
      <trkpt lat="44.99514" lon="6.38828">
        <ele>2138</ele>
        <time>2024-08-11T05:42:55Z</time>
      </trkpt>
      <trkpt lat="44.99514" lon="6.38828">
        <ele>2138</ele>
        <time>2024-08-11T05:42:56Z</time>
      </trkpt>
      <trkpt lat="44.99511" lon="6.38828">
        <ele>2138</ele>
        <time>2024-08-11T05:42:57Z</time>
      </trkpt>
      <trkpt lat="44.99511" lon="6.38828">
        <ele>2138.2</ele>
        <time>2024-08-11T05:42:58Z</time>
      </trkpt>
      <trkpt lat="44.99509" lon="6.38827">
        <ele>2138.2</ele>
        <time>2024-08-11T05:42:59Z</time>
      </trkpt>
      <trkpt lat="44.99509" lon="6.38827">
        <ele>2138.6</ele>
        <time>2024-08-11T05:43:00Z</time>
      </trkpt>
      <trkpt lat="44.99507" lon="6.38827">
        <ele>2138.6</ele>
        <time>2024-08-11T05:43:01Z</time>
      </trkpt>
      <trkpt lat="44.99507" lon="6.38827">
        <ele>2138.6</ele>
        <time>2024-08-11T05:43:02Z</time>
      </trkpt>
      <trkpt lat="44.99505" lon="6.38827">
        <ele>2138.6</ele>
        <time>2024-08-11T05:43:03Z</time>
      </trkpt>
      <trkpt lat="44.99505" lon="6.38827">
        <ele>2138.8</ele>
        <time>2024-08-11T05:43:04Z</time>
      </trkpt>
      <trkpt lat="44.99503" lon="6.38827">
        <ele>2138.8</ele>
        <time>2024-08-11T05:43:05Z</time>
      </trkpt>
      <trkpt lat="44.99503" lon="6.38827">
        <ele>2138.8</ele>
        <time>2024-08-11T05:43:06Z</time>
      </trkpt>
      <trkpt lat="44.995" lon="6.38827">
        <ele>2139</ele>
        <time>2024-08-11T05:43:07Z</time>
      </trkpt>
      <trkpt lat="44.995" lon="6.38827">
        <ele>2139.2</ele>
        <time>2024-08-11T05:43:08Z</time>
      </trkpt>
      <trkpt lat="44.995" lon="6.38827">
        <ele>2139.4</ele>
        <time>2024-08-11T05:43:09Z</time>
      </trkpt>
      <trkpt lat="44.99498" lon="6.38827">
        <ele>2139.4</ele>
        <time>2024-08-11T05:43:10Z</time>
      </trkpt>
      <trkpt lat="44.99498" lon="6.38827">
        <ele>2139.4</ele>
        <time>2024-08-11T05:43:11Z</time>
      </trkpt>
      <trkpt lat="44.99496" lon="6.38827">
        <ele>2139.8</ele>
        <time>2024-08-11T05:43:12Z</time>
      </trkpt>
      <trkpt lat="44.99496" lon="6.38827">
        <ele>2140</ele>
        <time>2024-08-11T05:43:13Z</time>
      </trkpt>
      <trkpt lat="44.99493" lon="6.38828">
        <ele>2140</ele>
        <time>2024-08-11T05:43:14Z</time>
      </trkpt>
      <trkpt lat="44.99493" lon="6.38828">
        <ele>2140</ele>
        <time>2024-08-11T05:43:15Z</time>
      </trkpt>
      <trkpt lat="44.99493" lon="6.38828">
        <ele>2140</ele>
        <time>2024-08-11T05:43:16Z</time>
      </trkpt>
      <trkpt lat="44.99491" lon="6.38829">
        <ele>2140</ele>
        <time>2024-08-11T05:43:17Z</time>
      </trkpt>
      <trkpt lat="44.99491" lon="6.38829">
        <ele>2140</ele>
        <time>2024-08-11T05:43:18Z</time>
      </trkpt>
      <trkpt lat="44.99488" lon="6.3883">
        <ele>2140.2</ele>
        <time>2024-08-11T05:43:19Z</time>
      </trkpt>
      <trkpt lat="44.99488" lon="6.3883">
        <ele>2140.2</ele>
        <time>2024-08-11T05:43:20Z</time>
      </trkpt>
      <trkpt lat="44.99486" lon="6.38831">
        <ele>2140.4</ele>
        <time>2024-08-11T05:43:21Z</time>
      </trkpt>
      <trkpt lat="44.99486" lon="6.38831">
        <ele>2140.6</ele>
        <time>2024-08-11T05:43:22Z</time>
      </trkpt>
      <trkpt lat="44.99484" lon="6.38832">
        <ele>2140.6</ele>
        <time>2024-08-11T05:43:23Z</time>
      </trkpt>
      <trkpt lat="44.99484" lon="6.38832">
        <ele>2140.8</ele>
        <time>2024-08-11T05:43:24Z</time>
      </trkpt>
      <trkpt lat="44.99481" lon="6.38832">
        <ele>2141</ele>
        <time>2024-08-11T05:43:25Z</time>
      </trkpt>
      <trkpt lat="44.99481" lon="6.38832">
        <ele>2141</ele>
        <time>2024-08-11T05:43:26Z</time>
      </trkpt>
      <trkpt lat="44.99479" lon="6.38833">
        <ele>2141</ele>
        <time>2024-08-11T05:43:27Z</time>
      </trkpt>
      <trkpt lat="44.99479" lon="6.38833">
        <ele>2141</ele>
        <time>2024-08-11T05:43:28Z</time>
      </trkpt>
      <trkpt lat="44.99477" lon="6.38834">
        <ele>2141</ele>
        <time>2024-08-11T05:43:29Z</time>
      </trkpt>
      <trkpt lat="44.99477" lon="6.38834">
        <ele>2141.2</ele>
        <time>2024-08-11T05:43:30Z</time>
      </trkpt>
      <trkpt lat="44.99474" lon="6.38835">
        <ele>2141.2</ele>
        <time>2024-08-11T05:43:31Z</time>
      </trkpt>
      <trkpt lat="44.99474" lon="6.38835">
        <ele>2141.2</ele>
        <time>2024-08-11T05:43:32Z</time>
      </trkpt>
      <trkpt lat="44.99472" lon="6.38836">
        <ele>2141.2</ele>
        <time>2024-08-11T05:43:33Z</time>
      </trkpt>
      <trkpt lat="44.99472" lon="6.38836">
        <ele>2141</ele>
        <time>2024-08-11T05:43:34Z</time>
      </trkpt>
      <trkpt lat="44.9947" lon="6.38836">
        <ele>2141</ele>
        <time>2024-08-11T05:43:35Z</time>
      </trkpt>
      <trkpt lat="44.9947" lon="6.38836">
        <ele>2141.4</ele>
        <time>2024-08-11T05:43:36Z</time>
      </trkpt>
      <trkpt lat="44.99468" lon="6.38836">
        <ele>2141.4</ele>
        <time>2024-08-11T05:43:37Z</time>
      </trkpt>
      <trkpt lat="44.99468" lon="6.38836">
        <ele>2141.4</ele>
        <time>2024-08-11T05:43:38Z</time>
      </trkpt>
      <trkpt lat="44.99466" lon="6.38836">
        <ele>2141.4</ele>
        <time>2024-08-11T05:43:39Z</time>
      </trkpt>
      <trkpt lat="44.99466" lon="6.38836">
        <ele>2141.6</ele>
        <time>2024-08-11T05:43:40Z</time>
      </trkpt>
      <trkpt lat="44.99463" lon="6.38836">
        <ele>2141.8</ele>
        <time>2024-08-11T05:43:41Z</time>
      </trkpt>
      <trkpt lat="44.99463" lon="6.38836">
        <ele>2142</ele>
        <time>2024-08-11T05:43:42Z</time>
      </trkpt>
      <trkpt lat="44.99461" lon="6.38837">
        <ele>2142.2</ele>
        <time>2024-08-11T05:43:43Z</time>
      </trkpt>
      <trkpt lat="44.99461" lon="6.38837">
        <ele>2142.4</ele>
        <time>2024-08-11T05:43:44Z</time>
      </trkpt>
      <trkpt lat="44.99459" lon="6.38838">
        <ele>2142.4</ele>
        <time>2024-08-11T05:43:45Z</time>
      </trkpt>
      <trkpt lat="44.99459" lon="6.38838">
        <ele>2142.8</ele>
        <time>2024-08-11T05:43:46Z</time>
      </trkpt>
      <trkpt lat="44.99456" lon="6.38839">
        <ele>2143</ele>
        <time>2024-08-11T05:43:47Z</time>
      </trkpt>
      <trkpt lat="44.99456" lon="6.38839">
        <ele>2143</ele>
        <time>2024-08-11T05:43:48Z</time>
      </trkpt>
      <trkpt lat="44.99454" lon="6.3884">
        <ele>2143</ele>
        <time>2024-08-11T05:43:49Z</time>
      </trkpt>
      <trkpt lat="44.99454" lon="6.3884">
        <ele>2143</ele>
        <time>2024-08-11T05:43:50Z</time>
      </trkpt>
      <trkpt lat="44.99452" lon="6.38841">
        <ele>2143.2</ele>
        <time>2024-08-11T05:43:51Z</time>
      </trkpt>
      <trkpt lat="44.99452" lon="6.38841">
        <ele>2143.8</ele>
        <time>2024-08-11T05:43:52Z</time>
      </trkpt>
      <trkpt lat="44.9945" lon="6.38841">
        <ele>2143.8</ele>
        <time>2024-08-11T05:43:53Z</time>
      </trkpt>
      <trkpt lat="44.9945" lon="6.38841">
        <ele>2143.8</ele>
        <time>2024-08-11T05:43:54Z</time>
      </trkpt>
      <trkpt lat="44.99447" lon="6.38842">
        <ele>2143.8</ele>
        <time>2024-08-11T05:43:55Z</time>
      </trkpt>
      <trkpt lat="44.99447" lon="6.38842">
        <ele>2143.8</ele>
        <time>2024-08-11T05:43:56Z</time>
      </trkpt>
      <trkpt lat="44.99445" lon="6.38843">
        <ele>2143.8</ele>
        <time>2024-08-11T05:43:57Z</time>
      </trkpt>
      <trkpt lat="44.99445" lon="6.38843">
        <ele>2144</ele>
        <time>2024-08-11T05:43:58Z</time>
      </trkpt>
      <trkpt lat="44.99443" lon="6.38844">
        <ele>2144</ele>
        <time>2024-08-11T05:43:59Z</time>
      </trkpt>
      <trkpt lat="44.99443" lon="6.38844">
        <ele>2144.4</ele>
        <time>2024-08-11T05:44:00Z</time>
      </trkpt>
      <trkpt lat="44.9944" lon="6.38845">
        <ele>2144.4</ele>
        <time>2024-08-11T05:44:01Z</time>
      </trkpt>
      <trkpt lat="44.9944" lon="6.38845">
        <ele>2144.4</ele>
        <time>2024-08-11T05:44:02Z</time>
      </trkpt>
      <trkpt lat="44.99438" lon="6.38846">
        <ele>2144.4</ele>
        <time>2024-08-11T05:44:03Z</time>
      </trkpt>
      <trkpt lat="44.99438" lon="6.38846">
        <ele>2144.8</ele>
        <time>2024-08-11T05:44:04Z</time>
      </trkpt>
      <trkpt lat="44.99437" lon="6.38848">
        <ele>2145</ele>
        <time>2024-08-11T05:44:05Z</time>
      </trkpt>
      <trkpt lat="44.99437" lon="6.38848">
        <ele>2145</ele>
        <time>2024-08-11T05:44:06Z</time>
      </trkpt>
      <trkpt lat="44.99435" lon="6.38849">
        <ele>2145</ele>
        <time>2024-08-11T05:44:07Z</time>
      </trkpt>
      <trkpt lat="44.99435" lon="6.38849">
        <ele>2145.4</ele>
        <time>2024-08-11T05:44:08Z</time>
      </trkpt>
      <trkpt lat="44.99432" lon="6.38851">
        <ele>2145.6</ele>
        <time>2024-08-11T05:44:09Z</time>
      </trkpt>
      <trkpt lat="44.99432" lon="6.38851">
        <ele>2145.6</ele>
        <time>2024-08-11T05:44:10Z</time>
      </trkpt>
      <trkpt lat="44.9943" lon="6.38851">
        <ele>2145.8</ele>
        <time>2024-08-11T05:44:11Z</time>
      </trkpt>
      <trkpt lat="44.9943" lon="6.38851">
        <ele>2145.8</ele>
        <time>2024-08-11T05:44:12Z</time>
      </trkpt>
      <trkpt lat="44.99428" lon="6.38852">
        <ele>2146</ele>
        <time>2024-08-11T05:44:13Z</time>
      </trkpt>
      <trkpt lat="44.99428" lon="6.38852">
        <ele>2146</ele>
        <time>2024-08-11T05:44:14Z</time>
      </trkpt>
      <trkpt lat="44.99426" lon="6.38853">
        <ele>2146.2</ele>
        <time>2024-08-11T05:44:15Z</time>
      </trkpt>
      <trkpt lat="44.99426" lon="6.38853">
        <ele>2146.2</ele>
        <time>2024-08-11T05:44:16Z</time>
      </trkpt>
      <trkpt lat="44.99424" lon="6.38853">
        <ele>2146.6</ele>
        <time>2024-08-11T05:44:17Z</time>
      </trkpt>
      <trkpt lat="44.99424" lon="6.38853">
        <ele>2146.6</ele>
        <time>2024-08-11T05:44:18Z</time>
      </trkpt>
      <trkpt lat="44.99421" lon="6.38855">
        <ele>2146.6</ele>
        <time>2024-08-11T05:44:19Z</time>
      </trkpt>
      <trkpt lat="44.99421" lon="6.38855">
        <ele>2146.4</ele>
        <time>2024-08-11T05:44:20Z</time>
      </trkpt>
      <trkpt lat="44.99419" lon="6.38855">
        <ele>2146.4</ele>
        <time>2024-08-11T05:44:21Z</time>
      </trkpt>
      <trkpt lat="44.99419" lon="6.38855">
        <ele>2146.6</ele>
        <time>2024-08-11T05:44:22Z</time>
      </trkpt>
      <trkpt lat="44.99416" lon="6.38856">
        <ele>2146.6</ele>
        <time>2024-08-11T05:44:23Z</time>
      </trkpt>
      <trkpt lat="44.99416" lon="6.38856">
        <ele>2146.8</ele>
        <time>2024-08-11T05:44:24Z</time>
      </trkpt>
      <trkpt lat="44.99414" lon="6.38857">
        <ele>2147</ele>
        <time>2024-08-11T05:44:25Z</time>
      </trkpt>
      <trkpt lat="44.99414" lon="6.38857">
        <ele>2147</ele>
        <time>2024-08-11T05:44:26Z</time>
      </trkpt>
      <trkpt lat="44.99412" lon="6.38857">
        <ele>2147</ele>
        <time>2024-08-11T05:44:27Z</time>
      </trkpt>
      <trkpt lat="44.99412" lon="6.38857">
        <ele>2147</ele>
        <time>2024-08-11T05:44:28Z</time>
      </trkpt>
      <trkpt lat="44.9941" lon="6.38859">
        <ele>2146.8</ele>
        <time>2024-08-11T05:44:29Z</time>
      </trkpt>
      <trkpt lat="44.9941" lon="6.38859">
        <ele>2146.8</ele>
        <time>2024-08-11T05:44:30Z</time>
      </trkpt>
      <trkpt lat="44.99408" lon="6.3886">
        <ele>2146.8</ele>
        <time>2024-08-11T05:44:31Z</time>
      </trkpt>
      <trkpt lat="44.99408" lon="6.3886">
        <ele>2147.2</ele>
        <time>2024-08-11T05:44:32Z</time>
      </trkpt>
      <trkpt lat="44.99406" lon="6.38863">
        <ele>2147.2</ele>
        <time>2024-08-11T05:44:33Z</time>
      </trkpt>
      <trkpt lat="44.99406" lon="6.38863">
        <ele>2147</ele>
        <time>2024-08-11T05:44:34Z</time>
      </trkpt>
      <trkpt lat="44.99404" lon="6.38866">
        <ele>2146.4</ele>
        <time>2024-08-11T05:44:35Z</time>
      </trkpt>
      <trkpt lat="44.99404" lon="6.38866">
        <ele>2146.4</ele>
        <time>2024-08-11T05:44:36Z</time>
      </trkpt>
      <trkpt lat="44.99402" lon="6.38868">
        <ele>2146</ele>
        <time>2024-08-11T05:44:37Z</time>
      </trkpt>
      <trkpt lat="44.99402" lon="6.38868">
        <ele>2146</ele>
        <time>2024-08-11T05:44:38Z</time>
      </trkpt>
      <trkpt lat="44.99401" lon="6.38871">
        <ele>2146</ele>
        <time>2024-08-11T05:44:39Z</time>
      </trkpt>
      <trkpt lat="44.99401" lon="6.38871">
        <ele>2146</ele>
        <time>2024-08-11T05:44:40Z</time>
      </trkpt>
      <trkpt lat="44.99399" lon="6.38874">
        <ele>2145.8</ele>
        <time>2024-08-11T05:44:41Z</time>
      </trkpt>
      <trkpt lat="44.99399" lon="6.38874">
        <ele>2145.6</ele>
        <time>2024-08-11T05:44:42Z</time>
      </trkpt>
      <trkpt lat="44.99397" lon="6.38876">
        <ele>2145.6</ele>
        <time>2024-08-11T05:44:43Z</time>
      </trkpt>
      <trkpt lat="44.99397" lon="6.38876">
        <ele>2145.6</ele>
        <time>2024-08-11T05:44:44Z</time>
      </trkpt>
      <trkpt lat="44.99395" lon="6.38876">
        <ele>2145.6</ele>
        <time>2024-08-11T05:44:45Z</time>
      </trkpt>
      <trkpt lat="44.99395" lon="6.38876">
        <ele>2145.8</ele>
        <time>2024-08-11T05:44:46Z</time>
      </trkpt>
      <trkpt lat="44.99392" lon="6.38876">
        <ele>2145.8</ele>
        <time>2024-08-11T05:44:47Z</time>
      </trkpt>
      <trkpt lat="44.99392" lon="6.38876">
        <ele>2146</ele>
        <time>2024-08-11T05:44:48Z</time>
      </trkpt>
      <trkpt lat="44.9939" lon="6.38877">
        <ele>2146</ele>
        <time>2024-08-11T05:44:49Z</time>
      </trkpt>
      <trkpt lat="44.9939" lon="6.38877">
        <ele>2146</ele>
        <time>2024-08-11T05:44:50Z</time>
      </trkpt>
      <trkpt lat="44.99388" lon="6.38878">
        <ele>2145.8</ele>
        <time>2024-08-11T05:44:51Z</time>
      </trkpt>
      <trkpt lat="44.99388" lon="6.38878">
        <ele>2145.8</ele>
        <time>2024-08-11T05:44:52Z</time>
      </trkpt>
      <trkpt lat="44.99386" lon="6.38878">
        <ele>2145.8</ele>
        <time>2024-08-11T05:44:53Z</time>
      </trkpt>
      <trkpt lat="44.99386" lon="6.38878">
        <ele>2145.8</ele>
        <time>2024-08-11T05:44:54Z</time>
      </trkpt>
      <trkpt lat="44.99383" lon="6.38879">
        <ele>2146</ele>
        <time>2024-08-11T05:44:55Z</time>
      </trkpt>
      <trkpt lat="44.99383" lon="6.38879">
        <ele>2146.2</ele>
        <time>2024-08-11T05:44:56Z</time>
      </trkpt>
      <trkpt lat="44.99381" lon="6.38881">
        <ele>2146.2</ele>
        <time>2024-08-11T05:44:57Z</time>
      </trkpt>
      <trkpt lat="44.99381" lon="6.38881">
        <ele>2146.2</ele>
        <time>2024-08-11T05:44:58Z</time>
      </trkpt>
      <trkpt lat="44.99379" lon="6.38883">
        <ele>2146.2</ele>
        <time>2024-08-11T05:44:59Z</time>
      </trkpt>
      <trkpt lat="44.99379" lon="6.38883">
        <ele>2146.2</ele>
        <time>2024-08-11T05:45:00Z</time>
      </trkpt>
      <trkpt lat="44.99377" lon="6.38885">
        <ele>2146.2</ele>
        <time>2024-08-11T05:45:01Z</time>
      </trkpt>
      <trkpt lat="44.99377" lon="6.38885">
        <ele>2146.2</ele>
        <time>2024-08-11T05:45:02Z</time>
      </trkpt>
      <trkpt lat="44.99376" lon="6.38888">
        <ele>2146.4</ele>
        <time>2024-08-11T05:45:03Z</time>
      </trkpt>
      <trkpt lat="44.99376" lon="6.38888">
        <ele>2146.4</ele>
        <time>2024-08-11T05:45:04Z</time>
      </trkpt>
      <trkpt lat="44.99374" lon="6.3889">
        <ele>2146.4</ele>
        <time>2024-08-11T05:45:05Z</time>
      </trkpt>
      <trkpt lat="44.99374" lon="6.3889">
        <ele>2146.4</ele>
        <time>2024-08-11T05:45:06Z</time>
      </trkpt>
      <trkpt lat="44.99372" lon="6.38891">
        <ele>2146.4</ele>
        <time>2024-08-11T05:45:07Z</time>
      </trkpt>
      <trkpt lat="44.99372" lon="6.38891">
        <ele>2146.8</ele>
        <time>2024-08-11T05:45:08Z</time>
      </trkpt>
      <trkpt lat="44.9937" lon="6.38893">
        <ele>2146.8</ele>
        <time>2024-08-11T05:45:09Z</time>
      </trkpt>
      <trkpt lat="44.9937" lon="6.38893">
        <ele>2147</ele>
        <time>2024-08-11T05:45:10Z</time>
      </trkpt>
      <trkpt lat="44.99368" lon="6.38894">
        <ele>2147</ele>
        <time>2024-08-11T05:45:11Z</time>
      </trkpt>
      <trkpt lat="44.99368" lon="6.38894">
        <ele>2147</ele>
        <time>2024-08-11T05:45:12Z</time>
      </trkpt>
      <trkpt lat="44.99365" lon="6.38896">
        <ele>2147</ele>
        <time>2024-08-11T05:45:13Z</time>
      </trkpt>
      <trkpt lat="44.99365" lon="6.38896">
        <ele>2147</ele>
        <time>2024-08-11T05:45:14Z</time>
      </trkpt>
      <trkpt lat="44.99362" lon="6.38898">
        <ele>2147</ele>
        <time>2024-08-11T05:45:15Z</time>
      </trkpt>
      <trkpt lat="44.99362" lon="6.38898">
        <ele>2147</ele>
        <time>2024-08-11T05:45:16Z</time>
      </trkpt>
      <trkpt lat="44.99359" lon="6.38898">
        <ele>2147</ele>
        <time>2024-08-11T05:45:17Z</time>
      </trkpt>
      <trkpt lat="44.99359" lon="6.38898">
        <ele>2147</ele>
        <time>2024-08-11T05:45:18Z</time>
      </trkpt>
      <trkpt lat="44.99357" lon="6.38899">
        <ele>2147</ele>
        <time>2024-08-11T05:45:19Z</time>
      </trkpt>
      <trkpt lat="44.99357" lon="6.38899">
        <ele>2147.2</ele>
        <time>2024-08-11T05:45:20Z</time>
      </trkpt>
      <trkpt lat="44.99355" lon="6.389">
        <ele>2147.2</ele>
        <time>2024-08-11T05:45:21Z</time>
      </trkpt>
      <trkpt lat="44.99355" lon="6.389">
        <ele>2147.4</ele>
        <time>2024-08-11T05:45:22Z</time>
      </trkpt>
      <trkpt lat="44.99355" lon="6.389">
        <ele>2147.8</ele>
        <time>2024-08-11T05:45:23Z</time>
      </trkpt>
      <trkpt lat="44.99353" lon="6.38901">
        <ele>2148</ele>
        <time>2024-08-11T05:45:24Z</time>
      </trkpt>
      <trkpt lat="44.99353" lon="6.38901">
        <ele>2148.2</ele>
        <time>2024-08-11T05:45:25Z</time>
      </trkpt>
      <trkpt lat="44.99353" lon="6.38901">
        <ele>2148.4</ele>
        <time>2024-08-11T05:45:26Z</time>
      </trkpt>
      <trkpt lat="44.99351" lon="6.38902">
        <ele>2148.6</ele>
        <time>2024-08-11T05:45:27Z</time>
      </trkpt>
      <trkpt lat="44.99351" lon="6.38902">
        <ele>2149</ele>
        <time>2024-08-11T05:45:28Z</time>
      </trkpt>
      <trkpt lat="44.99349" lon="6.38901">
        <ele>2149.2</ele>
        <time>2024-08-11T05:45:29Z</time>
      </trkpt>
      <trkpt lat="44.99349" lon="6.38901">
        <ele>2149.2</ele>
        <time>2024-08-11T05:45:30Z</time>
      </trkpt>
      <trkpt lat="44.99346" lon="6.38901">
        <ele>2149.2</ele>
        <time>2024-08-11T05:45:31Z</time>
      </trkpt>
      <trkpt lat="44.99346" lon="6.38901">
        <ele>2149.2</ele>
        <time>2024-08-11T05:45:32Z</time>
      </trkpt>
      <trkpt lat="44.99344" lon="6.389">
        <ele>2149.2</ele>
        <time>2024-08-11T05:45:33Z</time>
      </trkpt>
      <trkpt lat="44.99344" lon="6.389">
        <ele>2149.6</ele>
        <time>2024-08-11T05:45:34Z</time>
      </trkpt>
      <trkpt lat="44.99342" lon="6.389">
        <ele>2149.6</ele>
        <time>2024-08-11T05:45:35Z</time>
      </trkpt>
      <trkpt lat="44.99342" lon="6.389">
        <ele>2149.8</ele>
        <time>2024-08-11T05:45:36Z</time>
      </trkpt>
      <trkpt lat="44.9934" lon="6.38901">
        <ele>2149.8</ele>
        <time>2024-08-11T05:45:37Z</time>
      </trkpt>
      <trkpt lat="44.9934" lon="6.38901">
        <ele>2149.8</ele>
        <time>2024-08-11T05:45:38Z</time>
      </trkpt>
      <trkpt lat="44.9934" lon="6.38901">
        <ele>2150</ele>
        <time>2024-08-11T05:45:39Z</time>
      </trkpt>
      <trkpt lat="44.99337" lon="6.38902">
        <ele>2150.2</ele>
        <time>2024-08-11T05:45:40Z</time>
      </trkpt>
      <trkpt lat="44.99337" lon="6.38902">
        <ele>2150.2</ele>
        <time>2024-08-11T05:45:41Z</time>
      </trkpt>
      <trkpt lat="44.99335" lon="6.38903">
        <ele>2150.8</ele>
        <time>2024-08-11T05:45:42Z</time>
      </trkpt>
      <trkpt lat="44.99335" lon="6.38903">
        <ele>2151</ele>
        <time>2024-08-11T05:45:43Z</time>
      </trkpt>
      <trkpt lat="44.99333" lon="6.38905">
        <ele>2151.4</ele>
        <time>2024-08-11T05:45:44Z</time>
      </trkpt>
      <trkpt lat="44.99333" lon="6.38905">
        <ele>2151.4</ele>
        <time>2024-08-11T05:45:45Z</time>
      </trkpt>
      <trkpt lat="44.99332" lon="6.38906">
        <ele>2151.4</ele>
        <time>2024-08-11T05:45:46Z</time>
      </trkpt>
      <trkpt lat="44.99332" lon="6.38906">
        <ele>2151.4</ele>
        <time>2024-08-11T05:45:47Z</time>
      </trkpt>
      <trkpt lat="44.99332" lon="6.38906">
        <ele>2151.4</ele>
        <time>2024-08-11T05:45:48Z</time>
      </trkpt>
      <trkpt lat="44.99328" lon="6.38908">
        <ele>2151.4</ele>
        <time>2024-08-11T05:45:49Z</time>
      </trkpt>
      <trkpt lat="44.99327" lon="6.38908">
        <ele>2151.4</ele>
        <time>2024-08-11T05:45:50Z</time>
      </trkpt>
      <trkpt lat="44.99327" lon="6.38908">
        <ele>2151.4</ele>
        <time>2024-08-11T05:45:51Z</time>
      </trkpt>
      <trkpt lat="44.99325" lon="6.38909">
        <ele>2151.4</ele>
        <time>2024-08-11T05:45:52Z</time>
      </trkpt>
      <trkpt lat="44.99325" lon="6.38909">
        <ele>2151.6</ele>
        <time>2024-08-11T05:45:53Z</time>
      </trkpt>
      <trkpt lat="44.99323" lon="6.3891">
        <ele>2151.8</ele>
        <time>2024-08-11T05:45:54Z</time>
      </trkpt>
      <trkpt lat="44.99323" lon="6.3891">
        <ele>2151.8</ele>
        <time>2024-08-11T05:45:55Z</time>
      </trkpt>
      <trkpt lat="44.9932" lon="6.38911">
        <ele>2151.8</ele>
        <time>2024-08-11T05:45:56Z</time>
      </trkpt>
      <trkpt lat="44.9932" lon="6.38911">
        <ele>2151.8</ele>
        <time>2024-08-11T05:45:57Z</time>
      </trkpt>
      <trkpt lat="44.99318" lon="6.38912">
        <ele>2151.8</ele>
        <time>2024-08-11T05:45:58Z</time>
      </trkpt>
      <trkpt lat="44.99318" lon="6.38912">
        <ele>2151.8</ele>
        <time>2024-08-11T05:45:59Z</time>
      </trkpt>
      <trkpt lat="44.99315" lon="6.38913">
        <ele>2151.8</ele>
        <time>2024-08-11T05:46:00Z</time>
      </trkpt>
      <trkpt lat="44.99315" lon="6.38913">
        <ele>2152</ele>
        <time>2024-08-11T05:46:01Z</time>
      </trkpt>
      <trkpt lat="44.99313" lon="6.38913">
        <ele>2152</ele>
        <time>2024-08-11T05:46:02Z</time>
      </trkpt>
      <trkpt lat="44.99313" lon="6.38913">
        <ele>2152</ele>
        <time>2024-08-11T05:46:03Z</time>
      </trkpt>
      <trkpt lat="44.99311" lon="6.38913">
        <ele>2152.2</ele>
        <time>2024-08-11T05:46:04Z</time>
      </trkpt>
      <trkpt lat="44.99311" lon="6.38913">
        <ele>2152.2</ele>
        <time>2024-08-11T05:46:05Z</time>
      </trkpt>
      <trkpt lat="44.99308" lon="6.38913">
        <ele>2152.2</ele>
        <time>2024-08-11T05:46:06Z</time>
      </trkpt>
      <trkpt lat="44.99308" lon="6.38913">
        <ele>2152.2</ele>
        <time>2024-08-11T05:46:07Z</time>
      </trkpt>
      <trkpt lat="44.99308" lon="6.38913">
        <ele>2152.4</ele>
        <time>2024-08-11T05:46:08Z</time>
      </trkpt>
      <trkpt lat="44.99305" lon="6.38914">
        <ele>2152.4</ele>
        <time>2024-08-11T05:46:09Z</time>
      </trkpt>
      <trkpt lat="44.99305" lon="6.38914">
        <ele>2152.6</ele>
        <time>2024-08-11T05:46:10Z</time>
      </trkpt>
      <trkpt lat="44.99304" lon="6.38916">
        <ele>2152.6</ele>
        <time>2024-08-11T05:46:11Z</time>
      </trkpt>
      <trkpt lat="44.99304" lon="6.38916">
        <ele>2152.6</ele>
        <time>2024-08-11T05:46:12Z</time>
      </trkpt>
      <trkpt lat="44.99302" lon="6.38918">
        <ele>2153</ele>
        <time>2024-08-11T05:46:13Z</time>
      </trkpt>
      <trkpt lat="44.99302" lon="6.38918">
        <ele>2153.4</ele>
        <time>2024-08-11T05:46:14Z</time>
      </trkpt>
      <trkpt lat="44.99301" lon="6.3892">
        <ele>2153.6</ele>
        <time>2024-08-11T05:46:15Z</time>
      </trkpt>
      <trkpt lat="44.99301" lon="6.3892">
        <ele>2154</ele>
        <time>2024-08-11T05:46:16Z</time>
      </trkpt>
      <trkpt lat="44.99299" lon="6.38922">
        <ele>2154.2</ele>
        <time>2024-08-11T05:46:17Z</time>
      </trkpt>
      <trkpt lat="44.99299" lon="6.38922">
        <ele>2154.2</ele>
        <time>2024-08-11T05:46:18Z</time>
      </trkpt>
      <trkpt lat="44.99296" lon="6.38924">
        <ele>2154.2</ele>
        <time>2024-08-11T05:46:19Z</time>
      </trkpt>
      <trkpt lat="44.99296" lon="6.38924">
        <ele>2154.2</ele>
        <time>2024-08-11T05:46:20Z</time>
      </trkpt>
      <trkpt lat="44.99294" lon="6.38926">
        <ele>2154.2</ele>
        <time>2024-08-11T05:46:21Z</time>
      </trkpt>
      <trkpt lat="44.99294" lon="6.38926">
        <ele>2154.2</ele>
        <time>2024-08-11T05:46:22Z</time>
      </trkpt>
      <trkpt lat="44.99292" lon="6.38928">
        <ele>2154.4</ele>
        <time>2024-08-11T05:46:23Z</time>
      </trkpt>
      <trkpt lat="44.99292" lon="6.38928">
        <ele>2154.4</ele>
        <time>2024-08-11T05:46:24Z</time>
      </trkpt>
      <trkpt lat="44.9929" lon="6.3893">
        <ele>2154.4</ele>
        <time>2024-08-11T05:46:25Z</time>
      </trkpt>
      <trkpt lat="44.9929" lon="6.3893">
        <ele>2154.4</ele>
        <time>2024-08-11T05:46:26Z</time>
      </trkpt>
      <trkpt lat="44.99287" lon="6.38932">
        <ele>2154.4</ele>
        <time>2024-08-11T05:46:27Z</time>
      </trkpt>
      <trkpt lat="44.99287" lon="6.38932">
        <ele>2154.4</ele>
        <time>2024-08-11T05:46:28Z</time>
      </trkpt>
      <trkpt lat="44.99285" lon="6.38934">
        <ele>2154.6</ele>
        <time>2024-08-11T05:46:29Z</time>
      </trkpt>
      <trkpt lat="44.99285" lon="6.38934">
        <ele>2154.8</ele>
        <time>2024-08-11T05:46:30Z</time>
      </trkpt>
      <trkpt lat="44.99284" lon="6.38937">
        <ele>2154.8</ele>
        <time>2024-08-11T05:46:31Z</time>
      </trkpt>
      <trkpt lat="44.99284" lon="6.38937">
        <ele>2154.8</ele>
        <time>2024-08-11T05:46:32Z</time>
      </trkpt>
      <trkpt lat="44.99283" lon="6.38939">
        <ele>2154.8</ele>
        <time>2024-08-11T05:46:33Z</time>
      </trkpt>
      <trkpt lat="44.99283" lon="6.38939">
        <ele>2155</ele>
        <time>2024-08-11T05:46:34Z</time>
      </trkpt>
      <trkpt lat="44.99281" lon="6.38942">
        <ele>2155</ele>
        <time>2024-08-11T05:46:35Z</time>
      </trkpt>
      <trkpt lat="44.99281" lon="6.38942">
        <ele>2155</ele>
        <time>2024-08-11T05:46:36Z</time>
      </trkpt>
      <trkpt lat="44.9928" lon="6.38945">
        <ele>2155.4</ele>
        <time>2024-08-11T05:46:37Z</time>
      </trkpt>
      <trkpt lat="44.9928" lon="6.38945">
        <ele>2155.4</ele>
        <time>2024-08-11T05:46:38Z</time>
      </trkpt>
      <trkpt lat="44.99279" lon="6.38948">
        <ele>2155.4</ele>
        <time>2024-08-11T05:46:39Z</time>
      </trkpt>
      <trkpt lat="44.99279" lon="6.38948">
        <ele>2155.8</ele>
        <time>2024-08-11T05:46:40Z</time>
      </trkpt>
      <trkpt lat="44.99279" lon="6.38948">
        <ele>2155.8</ele>
        <time>2024-08-11T05:46:41Z</time>
      </trkpt>
      <trkpt lat="44.99277" lon="6.38952">
        <ele>2156</ele>
        <time>2024-08-11T05:46:42Z</time>
      </trkpt>
      <trkpt lat="44.99277" lon="6.38954">
        <ele>2156.2</ele>
        <time>2024-08-11T05:46:43Z</time>
      </trkpt>
      <trkpt lat="44.99277" lon="6.38954">
        <ele>2156.4</ele>
        <time>2024-08-11T05:46:44Z</time>
      </trkpt>
      <trkpt lat="44.99277" lon="6.38954">
        <ele>2156.6</ele>
        <time>2024-08-11T05:46:45Z</time>
      </trkpt>
      <trkpt lat="44.99275" lon="6.38958">
        <ele>2156.6</ele>
        <time>2024-08-11T05:46:46Z</time>
      </trkpt>
      <trkpt lat="44.99275" lon="6.38959">
        <ele>2156.8</ele>
        <time>2024-08-11T05:46:47Z</time>
      </trkpt>
      <trkpt lat="44.99275" lon="6.38959">
        <ele>2156.8</ele>
        <time>2024-08-11T05:46:48Z</time>
      </trkpt>
      <trkpt lat="44.99273" lon="6.38962">
        <ele>2156.6</ele>
        <time>2024-08-11T05:46:49Z</time>
      </trkpt>
      <trkpt lat="44.99273" lon="6.38962">
        <ele>2156.6</ele>
        <time>2024-08-11T05:46:50Z</time>
      </trkpt>
      <trkpt lat="44.99271" lon="6.38963">
        <ele>2157</ele>
        <time>2024-08-11T05:46:51Z</time>
      </trkpt>
      <trkpt lat="44.99271" lon="6.38963">
        <ele>2157</ele>
        <time>2024-08-11T05:46:52Z</time>
      </trkpt>
      <trkpt lat="44.99269" lon="6.38963">
        <ele>2157</ele>
        <time>2024-08-11T05:46:53Z</time>
      </trkpt>
      <trkpt lat="44.99269" lon="6.38963">
        <ele>2157</ele>
        <time>2024-08-11T05:46:54Z</time>
      </trkpt>
      <trkpt lat="44.99269" lon="6.38963">
        <ele>2157.2</ele>
        <time>2024-08-11T05:46:55Z</time>
      </trkpt>
      <trkpt lat="44.99268" lon="6.38965">
        <ele>2157.2</ele>
        <time>2024-08-11T05:46:56Z</time>
      </trkpt>
      <trkpt lat="44.99268" lon="6.38965">
        <ele>2157.6</ele>
        <time>2024-08-11T05:46:57Z</time>
      </trkpt>
      <trkpt lat="44.99267" lon="6.38967">
        <ele>2157.8</ele>
        <time>2024-08-11T05:46:58Z</time>
      </trkpt>
      <trkpt lat="44.99267" lon="6.38967">
        <ele>2157.8</ele>
        <time>2024-08-11T05:46:59Z</time>
      </trkpt>
      <trkpt lat="44.99265" lon="6.38969">
        <ele>2157.8</ele>
        <time>2024-08-11T05:47:00Z</time>
      </trkpt>
      <trkpt lat="44.99265" lon="6.38969">
        <ele>2157.8</ele>
        <time>2024-08-11T05:47:01Z</time>
      </trkpt>
      <trkpt lat="44.99264" lon="6.38971">
        <ele>2158.6</ele>
        <time>2024-08-11T05:47:02Z</time>
      </trkpt>
      <trkpt lat="44.99264" lon="6.38971">
        <ele>2158.6</ele>
        <time>2024-08-11T05:47:03Z</time>
      </trkpt>
      <trkpt lat="44.99262" lon="6.38973">
        <ele>2159</ele>
        <time>2024-08-11T05:47:04Z</time>
      </trkpt>
      <trkpt lat="44.99262" lon="6.38973">
        <ele>2159</ele>
        <time>2024-08-11T05:47:05Z</time>
      </trkpt>
      <trkpt lat="44.99261" lon="6.38975">
        <ele>2159</ele>
        <time>2024-08-11T05:47:06Z</time>
      </trkpt>
      <trkpt lat="44.99261" lon="6.38975">
        <ele>2159.4</ele>
        <time>2024-08-11T05:47:07Z</time>
      </trkpt>
      <trkpt lat="44.99259" lon="6.38976">
        <ele>2159.6</ele>
        <time>2024-08-11T05:47:08Z</time>
      </trkpt>
      <trkpt lat="44.99259" lon="6.38976">
        <ele>2159.6</ele>
        <time>2024-08-11T05:47:09Z</time>
      </trkpt>
      <trkpt lat="44.99259" lon="6.38976">
        <ele>2159.8</ele>
        <time>2024-08-11T05:47:10Z</time>
      </trkpt>
      <trkpt lat="44.99257" lon="6.38978">
        <ele>2160</ele>
        <time>2024-08-11T05:47:11Z</time>
      </trkpt>
      <trkpt lat="44.99257" lon="6.38978">
        <ele>2160.4</ele>
        <time>2024-08-11T05:47:12Z</time>
      </trkpt>
      <trkpt lat="44.99256" lon="6.38981">
        <ele>2160.4</ele>
        <time>2024-08-11T05:47:13Z</time>
      </trkpt>
      <trkpt lat="44.99256" lon="6.38981">
        <ele>2160.4</ele>
        <time>2024-08-11T05:47:14Z</time>
      </trkpt>
      <trkpt lat="44.99255" lon="6.38983">
        <ele>2160.6</ele>
        <time>2024-08-11T05:47:15Z</time>
      </trkpt>
      <trkpt lat="44.99255" lon="6.38983">
        <ele>2160.6</ele>
        <time>2024-08-11T05:47:16Z</time>
      </trkpt>
      <trkpt lat="44.99253" lon="6.38985">
        <ele>2160.6</ele>
        <time>2024-08-11T05:47:17Z</time>
      </trkpt>
      <trkpt lat="44.99253" lon="6.38985">
        <ele>2160.6</ele>
        <time>2024-08-11T05:47:18Z</time>
      </trkpt>
      <trkpt lat="44.99252" lon="6.38988">
        <ele>2161</ele>
        <time>2024-08-11T05:47:19Z</time>
      </trkpt>
      <trkpt lat="44.99252" lon="6.38988">
        <ele>2161</ele>
        <time>2024-08-11T05:47:20Z</time>
      </trkpt>
      <trkpt lat="44.9925" lon="6.3899">
        <ele>2161.2</ele>
        <time>2024-08-11T05:47:21Z</time>
      </trkpt>
      <trkpt lat="44.9925" lon="6.3899">
        <ele>2161.2</ele>
        <time>2024-08-11T05:47:22Z</time>
      </trkpt>
      <trkpt lat="44.99248" lon="6.38991">
        <ele>2161.2</ele>
        <time>2024-08-11T05:47:23Z</time>
      </trkpt>
      <trkpt lat="44.99248" lon="6.38991">
        <ele>2161.4</ele>
        <time>2024-08-11T05:47:24Z</time>
      </trkpt>
      <trkpt lat="44.99246" lon="6.38993">
        <ele>2161.6</ele>
        <time>2024-08-11T05:47:25Z</time>
      </trkpt>
      <trkpt lat="44.99246" lon="6.38993">
        <ele>2161.8</ele>
        <time>2024-08-11T05:47:26Z</time>
      </trkpt>
      <trkpt lat="44.99244" lon="6.38995">
        <ele>2162</ele>
        <time>2024-08-11T05:47:27Z</time>
      </trkpt>
      <trkpt lat="44.99244" lon="6.38995">
        <ele>2162</ele>
        <time>2024-08-11T05:47:28Z</time>
      </trkpt>
      <trkpt lat="44.99242" lon="6.38997">
        <ele>2162</ele>
        <time>2024-08-11T05:47:29Z</time>
      </trkpt>
      <trkpt lat="44.99242" lon="6.38997">
        <ele>2161.8</ele>
        <time>2024-08-11T05:47:30Z</time>
      </trkpt>
      <trkpt lat="44.99241" lon="6.38999">
        <ele>2162</ele>
        <time>2024-08-11T05:47:31Z</time>
      </trkpt>
      <trkpt lat="44.99241" lon="6.38999">
        <ele>2162</ele>
        <time>2024-08-11T05:47:32Z</time>
      </trkpt>
      <trkpt lat="44.99238" lon="6.39002">
        <ele>2162.2</ele>
        <time>2024-08-11T05:47:33Z</time>
      </trkpt>
      <trkpt lat="44.99238" lon="6.39002">
        <ele>2162.2</ele>
        <time>2024-08-11T05:47:34Z</time>
      </trkpt>
      <trkpt lat="44.99237" lon="6.39004">
        <ele>2162.4</ele>
        <time>2024-08-11T05:47:35Z</time>
      </trkpt>
      <trkpt lat="44.99237" lon="6.39004">
        <ele>2162.4</ele>
        <time>2024-08-11T05:47:36Z</time>
      </trkpt>
      <trkpt lat="44.99235" lon="6.39005">
        <ele>2162.6</ele>
        <time>2024-08-11T05:47:37Z</time>
      </trkpt>
      <trkpt lat="44.99235" lon="6.39005">
        <ele>2163</ele>
        <time>2024-08-11T05:47:38Z</time>
      </trkpt>
      <trkpt lat="44.99235" lon="6.39005">
        <ele>2163</ele>
        <time>2024-08-11T05:47:39Z</time>
      </trkpt>
      <trkpt lat="44.99232" lon="6.39008">
        <ele>2163</ele>
        <time>2024-08-11T05:47:40Z</time>
      </trkpt>
      <trkpt lat="44.99231" lon="6.39009">
        <ele>2163.2</ele>
        <time>2024-08-11T05:47:41Z</time>
      </trkpt>
      <trkpt lat="44.99231" lon="6.39009">
        <ele>2163.2</ele>
        <time>2024-08-11T05:47:42Z</time>
      </trkpt>
      <trkpt lat="44.99229" lon="6.39011">
        <ele>2163.2</ele>
        <time>2024-08-11T05:47:43Z</time>
      </trkpt>
      <trkpt lat="44.99229" lon="6.39011">
        <ele>2163.2</ele>
        <time>2024-08-11T05:47:44Z</time>
      </trkpt>
      <trkpt lat="44.99227" lon="6.39012">
        <ele>2163.4</ele>
        <time>2024-08-11T05:47:45Z</time>
      </trkpt>
      <trkpt lat="44.99227" lon="6.39012">
        <ele>2163.4</ele>
        <time>2024-08-11T05:47:46Z</time>
      </trkpt>
      <trkpt lat="44.99225" lon="6.39014">
        <ele>2163.4</ele>
        <time>2024-08-11T05:47:47Z</time>
      </trkpt>
      <trkpt lat="44.99225" lon="6.39014">
        <ele>2163.6</ele>
        <time>2024-08-11T05:47:48Z</time>
      </trkpt>
      <trkpt lat="44.99224" lon="6.39017">
        <ele>2164</ele>
        <time>2024-08-11T05:47:49Z</time>
      </trkpt>
      <trkpt lat="44.99224" lon="6.39017">
        <ele>2164</ele>
        <time>2024-08-11T05:47:50Z</time>
      </trkpt>
      <trkpt lat="44.99222" lon="6.39019">
        <ele>2164</ele>
        <time>2024-08-11T05:47:51Z</time>
      </trkpt>
      <trkpt lat="44.99222" lon="6.39019">
        <ele>2164</ele>
        <time>2024-08-11T05:47:52Z</time>
      </trkpt>
      <trkpt lat="44.9922" lon="6.3902">
        <ele>2164.4</ele>
        <time>2024-08-11T05:47:53Z</time>
      </trkpt>
      <trkpt lat="44.9922" lon="6.3902">
        <ele>2164.6</ele>
        <time>2024-08-11T05:47:54Z</time>
      </trkpt>
      <trkpt lat="44.99218" lon="6.39022">
        <ele>2164.6</ele>
        <time>2024-08-11T05:47:55Z</time>
      </trkpt>
      <trkpt lat="44.99218" lon="6.39022">
        <ele>2164.4</ele>
        <time>2024-08-11T05:47:56Z</time>
      </trkpt>
      <trkpt lat="44.99215" lon="6.39024">
        <ele>2164.4</ele>
        <time>2024-08-11T05:47:57Z</time>
      </trkpt>
      <trkpt lat="44.99215" lon="6.39024">
        <ele>2164.6</ele>
        <time>2024-08-11T05:47:58Z</time>
      </trkpt>
      <trkpt lat="44.99213" lon="6.39025">
        <ele>2164.6</ele>
        <time>2024-08-11T05:47:59Z</time>
      </trkpt>
      <trkpt lat="44.99213" lon="6.39025">
        <ele>2164.6</ele>
        <time>2024-08-11T05:48:00Z</time>
      </trkpt>
      <trkpt lat="44.99212" lon="6.39027">
        <ele>2164.6</ele>
        <time>2024-08-11T05:48:01Z</time>
      </trkpt>
      <trkpt lat="44.99212" lon="6.39027">
        <ele>2165.2</ele>
        <time>2024-08-11T05:48:02Z</time>
      </trkpt>
      <trkpt lat="44.9921" lon="6.3903">
        <ele>2165.2</ele>
        <time>2024-08-11T05:48:03Z</time>
      </trkpt>
      <trkpt lat="44.9921" lon="6.3903">
        <ele>2165.4</ele>
        <time>2024-08-11T05:48:04Z</time>
      </trkpt>
      <trkpt lat="44.99208" lon="6.39032">
        <ele>2165.4</ele>
        <time>2024-08-11T05:48:05Z</time>
      </trkpt>
      <trkpt lat="44.99208" lon="6.39032">
        <ele>2165.4</ele>
        <time>2024-08-11T05:48:06Z</time>
      </trkpt>
      <trkpt lat="44.99205" lon="6.39034">
        <ele>2165.6</ele>
        <time>2024-08-11T05:48:07Z</time>
      </trkpt>
      <trkpt lat="44.99205" lon="6.39034">
        <ele>2165.4</ele>
        <time>2024-08-11T05:48:08Z</time>
      </trkpt>
      <trkpt lat="44.99204" lon="6.39036">
        <ele>2165.2</ele>
        <time>2024-08-11T05:48:09Z</time>
      </trkpt>
      <trkpt lat="44.99204" lon="6.39036">
        <ele>2165.2</ele>
        <time>2024-08-11T05:48:10Z</time>
      </trkpt>
      <trkpt lat="44.99201" lon="6.39038">
        <ele>2165.4</ele>
        <time>2024-08-11T05:48:11Z</time>
      </trkpt>
      <trkpt lat="44.99201" lon="6.39038">
        <ele>2165.6</ele>
        <time>2024-08-11T05:48:12Z</time>
      </trkpt>
      <trkpt lat="44.99199" lon="6.3904">
        <ele>2165.6</ele>
        <time>2024-08-11T05:48:13Z</time>
      </trkpt>
      <trkpt lat="44.99199" lon="6.3904">
        <ele>2165.8</ele>
        <time>2024-08-11T05:48:14Z</time>
      </trkpt>
      <trkpt lat="44.99197" lon="6.39042">
        <ele>2165.8</ele>
        <time>2024-08-11T05:48:15Z</time>
      </trkpt>
      <trkpt lat="44.99197" lon="6.39042">
        <ele>2166</ele>
        <time>2024-08-11T05:48:16Z</time>
      </trkpt>
      <trkpt lat="44.99195" lon="6.39044">
        <ele>2165.8</ele>
        <time>2024-08-11T05:48:17Z</time>
      </trkpt>
      <trkpt lat="44.99195" lon="6.39044">
        <ele>2165.8</ele>
        <time>2024-08-11T05:48:18Z</time>
      </trkpt>
      <trkpt lat="44.99193" lon="6.39045">
        <ele>2165.8</ele>
        <time>2024-08-11T05:48:19Z</time>
      </trkpt>
      <trkpt lat="44.99193" lon="6.39045">
        <ele>2166</ele>
        <time>2024-08-11T05:48:20Z</time>
      </trkpt>
      <trkpt lat="44.9919" lon="6.39047">
        <ele>2166.4</ele>
        <time>2024-08-11T05:48:21Z</time>
      </trkpt>
      <trkpt lat="44.9919" lon="6.39047">
        <ele>2166.4</ele>
        <time>2024-08-11T05:48:22Z</time>
      </trkpt>
      <trkpt lat="44.99189" lon="6.39048">
        <ele>2166.2</ele>
        <time>2024-08-11T05:48:23Z</time>
      </trkpt>
      <trkpt lat="44.99189" lon="6.39048">
        <ele>2166.2</ele>
        <time>2024-08-11T05:48:24Z</time>
      </trkpt>
      <trkpt lat="44.99186" lon="6.39049">
        <ele>2166.4</ele>
        <time>2024-08-11T05:48:25Z</time>
      </trkpt>
      <trkpt lat="44.99186" lon="6.39049">
        <ele>2166.8</ele>
        <time>2024-08-11T05:48:26Z</time>
      </trkpt>
      <trkpt lat="44.99184" lon="6.3905">
        <ele>2167</ele>
        <time>2024-08-11T05:48:27Z</time>
      </trkpt>
      <trkpt lat="44.99184" lon="6.3905">
        <ele>2167</ele>
        <time>2024-08-11T05:48:28Z</time>
      </trkpt>
      <trkpt lat="44.99182" lon="6.39051">
        <ele>2167</ele>
        <time>2024-08-11T05:48:29Z</time>
      </trkpt>
      <trkpt lat="44.99182" lon="6.39051">
        <ele>2167</ele>
        <time>2024-08-11T05:48:30Z</time>
      </trkpt>
      <trkpt lat="44.9918" lon="6.39053">
        <ele>2166.8</ele>
        <time>2024-08-11T05:48:31Z</time>
      </trkpt>
      <trkpt lat="44.9918" lon="6.39053">
        <ele>2166.8</ele>
        <time>2024-08-11T05:48:32Z</time>
      </trkpt>
      <trkpt lat="44.99177" lon="6.39054">
        <ele>2166.8</ele>
        <time>2024-08-11T05:48:33Z</time>
      </trkpt>
      <trkpt lat="44.99177" lon="6.39054">
        <ele>2167</ele>
        <time>2024-08-11T05:48:34Z</time>
      </trkpt>
      <trkpt lat="44.99176" lon="6.39055">
        <ele>2167.4</ele>
        <time>2024-08-11T05:48:35Z</time>
      </trkpt>
      <trkpt lat="44.99176" lon="6.39055">
        <ele>2167.4</ele>
        <time>2024-08-11T05:48:36Z</time>
      </trkpt>
      <trkpt lat="44.99174" lon="6.39057">
        <ele>2167.4</ele>
        <time>2024-08-11T05:48:37Z</time>
      </trkpt>
      <trkpt lat="44.99174" lon="6.39057">
        <ele>2168</ele>
        <time>2024-08-11T05:48:38Z</time>
      </trkpt>
      <trkpt lat="44.99172" lon="6.39059">
        <ele>2168.2</ele>
        <time>2024-08-11T05:48:39Z</time>
      </trkpt>
      <trkpt lat="44.99172" lon="6.39059">
        <ele>2168.4</ele>
        <time>2024-08-11T05:48:40Z</time>
      </trkpt>
      <trkpt lat="44.9917" lon="6.3906">
        <ele>2168.6</ele>
        <time>2024-08-11T05:48:41Z</time>
      </trkpt>
      <trkpt lat="44.9917" lon="6.3906">
        <ele>2168.6</ele>
        <time>2024-08-11T05:48:42Z</time>
      </trkpt>
      <trkpt lat="44.99168" lon="6.39061">
        <ele>2168.6</ele>
        <time>2024-08-11T05:48:43Z</time>
      </trkpt>
      <trkpt lat="44.99168" lon="6.39061">
        <ele>2168.8</ele>
        <time>2024-08-11T05:48:44Z</time>
      </trkpt>
      <trkpt lat="44.99166" lon="6.39061">
        <ele>2169</ele>
        <time>2024-08-11T05:48:45Z</time>
      </trkpt>
      <trkpt lat="44.99166" lon="6.39061">
        <ele>2169</ele>
        <time>2024-08-11T05:48:46Z</time>
      </trkpt>
      <trkpt lat="44.99164" lon="6.39062">
        <ele>2169.2</ele>
        <time>2024-08-11T05:48:47Z</time>
      </trkpt>
      <trkpt lat="44.99164" lon="6.39062">
        <ele>2169.6</ele>
        <time>2024-08-11T05:48:48Z</time>
      </trkpt>
      <trkpt lat="44.99164" lon="6.39062">
        <ele>2169.6</ele>
        <time>2024-08-11T05:48:49Z</time>
      </trkpt>
      <trkpt lat="44.99162" lon="6.39064">
        <ele>2169.6</ele>
        <time>2024-08-11T05:48:50Z</time>
      </trkpt>
      <trkpt lat="44.99162" lon="6.39064">
        <ele>2169.6</ele>
        <time>2024-08-11T05:48:51Z</time>
      </trkpt>
      <trkpt lat="44.9916" lon="6.39066">
        <ele>2169.8</ele>
        <time>2024-08-11T05:48:52Z</time>
      </trkpt>
      <trkpt lat="44.9916" lon="6.39066">
        <ele>2170</ele>
        <time>2024-08-11T05:48:53Z</time>
      </trkpt>
      <trkpt lat="44.9916" lon="6.39066">
        <ele>2170.2</ele>
        <time>2024-08-11T05:48:54Z</time>
      </trkpt>
      <trkpt lat="44.99157" lon="6.39067">
        <ele>2170.4</ele>
        <time>2024-08-11T05:48:55Z</time>
      </trkpt>
      <trkpt lat="44.99157" lon="6.39067">
        <ele>2170.6</ele>
        <time>2024-08-11T05:48:56Z</time>
      </trkpt>
      <trkpt lat="44.99157" lon="6.39067">
        <ele>2170.6</ele>
        <time>2024-08-11T05:48:57Z</time>
      </trkpt>
      <trkpt lat="44.99155" lon="6.39068">
        <ele>2170.6</ele>
        <time>2024-08-11T05:48:58Z</time>
      </trkpt>
      <trkpt lat="44.99155" lon="6.39068">
        <ele>2170.8</ele>
        <time>2024-08-11T05:48:59Z</time>
      </trkpt>
      <trkpt lat="44.99153" lon="6.3907">
        <ele>2170.8</ele>
        <time>2024-08-11T05:49:00Z</time>
      </trkpt>
      <trkpt lat="44.99153" lon="6.3907">
        <ele>2170.8</ele>
        <time>2024-08-11T05:49:01Z</time>
      </trkpt>
      <trkpt lat="44.99153" lon="6.3907">
        <ele>2170.8</ele>
        <time>2024-08-11T05:49:02Z</time>
      </trkpt>
      <trkpt lat="44.99153" lon="6.3907">
        <ele>2170.8</ele>
        <time>2024-08-11T05:49:03Z</time>
      </trkpt>
      <trkpt lat="44.99153" lon="6.3907">
        <ele>2170.8</ele>
        <time>2024-08-11T05:49:04Z</time>
      </trkpt>
      <trkpt lat="44.99153" lon="6.3907">
        <ele>2170.8</ele>
        <time>2024-08-11T05:49:05Z</time>
      </trkpt>
      <trkpt lat="44.99153" lon="6.3907">
        <ele>2170.8</ele>
        <time>2024-08-11T05:49:06Z</time>
      </trkpt>
      <trkpt lat="44.99153" lon="6.3907">
        <ele>2170.8</ele>
        <time>2024-08-11T05:49:07Z</time>
      </trkpt>
      <trkpt lat="44.99153" lon="6.3907">
        <ele>2170.8</ele>
        <time>2024-08-11T05:49:08Z</time>
      </trkpt>
      <trkpt lat="44.99153" lon="6.3907">
        <ele>2170.8</ele>
        <time>2024-08-11T05:49:09Z</time>
      </trkpt>
      <trkpt lat="44.99153" lon="6.3907">
        <ele>2170.8</ele>
        <time>2024-08-11T05:49:10Z</time>
      </trkpt>
      <trkpt lat="44.99153" lon="6.3907">
        <ele>2170.8</ele>
        <time>2024-08-11T05:49:11Z</time>
      </trkpt>
      <trkpt lat="44.99153" lon="6.3907">
        <ele>2170.8</ele>
        <time>2024-08-11T05:49:12Z</time>
      </trkpt>
      <trkpt lat="44.99151" lon="6.39073">
        <ele>2170.8</ele>
        <time>2024-08-11T05:49:13Z</time>
      </trkpt>
      <trkpt lat="44.99151" lon="6.39073">
        <ele>2170.8</ele>
        <time>2024-08-11T05:49:14Z</time>
      </trkpt>
      <trkpt lat="44.99149" lon="6.39075">
        <ele>2170.8</ele>
        <time>2024-08-11T05:49:15Z</time>
      </trkpt>
      <trkpt lat="44.99146" lon="6.39077">
        <ele>2170.8</ele>
        <time>2024-08-11T05:49:16Z</time>
      </trkpt>
      <trkpt lat="44.99146" lon="6.39077">
        <ele>2170.8</ele>
        <time>2024-08-11T05:49:17Z</time>
      </trkpt>
      <trkpt lat="44.99146" lon="6.39077">
        <ele>2170.8</ele>
        <time>2024-08-11T05:49:18Z</time>
      </trkpt>
      <trkpt lat="44.99143" lon="6.3908">
        <ele>2170.8</ele>
        <time>2024-08-11T05:49:19Z</time>
      </trkpt>
      <trkpt lat="44.99142" lon="6.39081">
        <ele>2170.8</ele>
        <time>2024-08-11T05:49:20Z</time>
      </trkpt>
      <trkpt lat="44.99142" lon="6.39081">
        <ele>2171</ele>
        <time>2024-08-11T05:49:21Z</time>
      </trkpt>
      <trkpt lat="44.9914" lon="6.39083">
        <ele>2171</ele>
        <time>2024-08-11T05:49:22Z</time>
      </trkpt>
      <trkpt lat="44.9914" lon="6.39083">
        <ele>2171</ele>
        <time>2024-08-11T05:49:23Z</time>
      </trkpt>
      <trkpt lat="44.9914" lon="6.39085">
        <ele>2171</ele>
        <time>2024-08-11T05:49:24Z</time>
      </trkpt>
      <trkpt lat="44.9914" lon="6.39085">
        <ele>2171</ele>
        <time>2024-08-11T05:49:25Z</time>
      </trkpt>
      <trkpt lat="44.99138" lon="6.39088">
        <ele>2171.4</ele>
        <time>2024-08-11T05:49:26Z</time>
      </trkpt>
      <trkpt lat="44.99138" lon="6.39088">
        <ele>2171.6</ele>
        <time>2024-08-11T05:49:27Z</time>
      </trkpt>
      <trkpt lat="44.99137" lon="6.39091">
        <ele>2171.6</ele>
        <time>2024-08-11T05:49:28Z</time>
      </trkpt>
      <trkpt lat="44.99137" lon="6.39091">
        <ele>2171.6</ele>
        <time>2024-08-11T05:49:29Z</time>
      </trkpt>
      <trkpt lat="44.99136" lon="6.39094">
        <ele>2171.6</ele>
        <time>2024-08-11T05:49:30Z</time>
      </trkpt>
      <trkpt lat="44.99136" lon="6.39094">
        <ele>2171.8</ele>
        <time>2024-08-11T05:49:31Z</time>
      </trkpt>
      <trkpt lat="44.99135" lon="6.39097">
        <ele>2171.8</ele>
        <time>2024-08-11T05:49:32Z</time>
      </trkpt>
      <trkpt lat="44.99135" lon="6.39097">
        <ele>2171.8</ele>
        <time>2024-08-11T05:49:33Z</time>
      </trkpt>
      <trkpt lat="44.99134" lon="6.39099">
        <ele>2172</ele>
        <time>2024-08-11T05:49:34Z</time>
      </trkpt>
      <trkpt lat="44.99134" lon="6.39099">
        <ele>2172</ele>
        <time>2024-08-11T05:49:35Z</time>
      </trkpt>
      <trkpt lat="44.99133" lon="6.39102">
        <ele>2172.2</ele>
        <time>2024-08-11T05:49:36Z</time>
      </trkpt>
      <trkpt lat="44.99133" lon="6.39102">
        <ele>2172.6</ele>
        <time>2024-08-11T05:49:37Z</time>
      </trkpt>
      <trkpt lat="44.99132" lon="6.39104">
        <ele>2172.8</ele>
        <time>2024-08-11T05:49:38Z</time>
      </trkpt>
      <trkpt lat="44.99132" lon="6.39104">
        <ele>2172.4</ele>
        <time>2024-08-11T05:49:39Z</time>
      </trkpt>
      <trkpt lat="44.9913" lon="6.39107">
        <ele>2172.6</ele>
        <time>2024-08-11T05:49:40Z</time>
      </trkpt>
      <trkpt lat="44.9913" lon="6.39107">
        <ele>2172.6</ele>
        <time>2024-08-11T05:49:41Z</time>
      </trkpt>
      <trkpt lat="44.9913" lon="6.39107">
        <ele>2172.8</ele>
        <time>2024-08-11T05:49:42Z</time>
      </trkpt>
      <trkpt lat="44.99127" lon="6.39111">
        <ele>2172.8</ele>
        <time>2024-08-11T05:49:43Z</time>
      </trkpt>
      <trkpt lat="44.99126" lon="6.39112">
        <ele>2172.6</ele>
        <time>2024-08-11T05:49:44Z</time>
      </trkpt>
      <trkpt lat="44.99126" lon="6.39112">
        <ele>2172.6</ele>
        <time>2024-08-11T05:49:45Z</time>
      </trkpt>
      <trkpt lat="44.99124" lon="6.39114">
        <ele>2172.4</ele>
        <time>2024-08-11T05:49:46Z</time>
      </trkpt>
      <trkpt lat="44.99124" lon="6.39114">
        <ele>2172.4</ele>
        <time>2024-08-11T05:49:47Z</time>
      </trkpt>
      <trkpt lat="44.99122" lon="6.39116">
        <ele>2172.4</ele>
        <time>2024-08-11T05:49:48Z</time>
      </trkpt>
      <trkpt lat="44.99122" lon="6.39116">
        <ele>2172.4</ele>
        <time>2024-08-11T05:49:49Z</time>
      </trkpt>
      <trkpt lat="44.9912" lon="6.39118">
        <ele>2172.4</ele>
        <time>2024-08-11T05:49:50Z</time>
      </trkpt>
      <trkpt lat="44.9912" lon="6.39118">
        <ele>2172.4</ele>
        <time>2024-08-11T05:49:51Z</time>
      </trkpt>
      <trkpt lat="44.99118" lon="6.3912">
        <ele>2172.4</ele>
        <time>2024-08-11T05:49:52Z</time>
      </trkpt>
      <trkpt lat="44.99118" lon="6.3912">
        <ele>2172.4</ele>
        <time>2024-08-11T05:49:53Z</time>
      </trkpt>
      <trkpt lat="44.99117" lon="6.39124">
        <ele>2172.4</ele>
        <time>2024-08-11T05:49:54Z</time>
      </trkpt>
      <trkpt lat="44.99117" lon="6.39124">
        <ele>2172.4</ele>
        <time>2024-08-11T05:49:55Z</time>
      </trkpt>
      <trkpt lat="44.99115" lon="6.39126">
        <ele>2172.4</ele>
        <time>2024-08-11T05:49:56Z</time>
      </trkpt>
      <trkpt lat="44.99115" lon="6.39126">
        <ele>2172.4</ele>
        <time>2024-08-11T05:49:57Z</time>
      </trkpt>
      <trkpt lat="44.99113" lon="6.39128">
        <ele>2172.6</ele>
        <time>2024-08-11T05:49:58Z</time>
      </trkpt>
      <trkpt lat="44.99113" lon="6.39128">
        <ele>2172.8</ele>
        <time>2024-08-11T05:49:59Z</time>
      </trkpt>
      <trkpt lat="44.99111" lon="6.39129">
        <ele>2172.8</ele>
        <time>2024-08-11T05:50:00Z</time>
      </trkpt>
      <trkpt lat="44.99111" lon="6.39129">
        <ele>2173</ele>
        <time>2024-08-11T05:50:01Z</time>
      </trkpt>
      <trkpt lat="44.99109" lon="6.39131">
        <ele>2173.2</ele>
        <time>2024-08-11T05:50:02Z</time>
      </trkpt>
      <trkpt lat="44.99109" lon="6.39131">
        <ele>2173.4</ele>
        <time>2024-08-11T05:50:03Z</time>
      </trkpt>
      <trkpt lat="44.99107" lon="6.39133">
        <ele>2173.6</ele>
        <time>2024-08-11T05:50:04Z</time>
      </trkpt>
      <trkpt lat="44.99107" lon="6.39133">
        <ele>2173.6</ele>
        <time>2024-08-11T05:50:05Z</time>
      </trkpt>
      <trkpt lat="44.99105" lon="6.39135">
        <ele>2173.6</ele>
        <time>2024-08-11T05:50:06Z</time>
      </trkpt>
      <trkpt lat="44.99105" lon="6.39135">
        <ele>2173.6</ele>
        <time>2024-08-11T05:50:07Z</time>
      </trkpt>
      <trkpt lat="44.99103" lon="6.39137">
        <ele>2174</ele>
        <time>2024-08-11T05:50:08Z</time>
      </trkpt>
      <trkpt lat="44.99103" lon="6.39137">
        <ele>2174</ele>
        <time>2024-08-11T05:50:09Z</time>
      </trkpt>
      <trkpt lat="44.99102" lon="6.3914">
        <ele>2174.2</ele>
        <time>2024-08-11T05:50:10Z</time>
      </trkpt>
      <trkpt lat="44.99102" lon="6.3914">
        <ele>2174.4</ele>
        <time>2024-08-11T05:50:11Z</time>
      </trkpt>
      <trkpt lat="44.991" lon="6.39142">
        <ele>2174.6</ele>
        <time>2024-08-11T05:50:12Z</time>
      </trkpt>
      <trkpt lat="44.991" lon="6.39142">
        <ele>2174.6</ele>
        <time>2024-08-11T05:50:13Z</time>
      </trkpt>
      <trkpt lat="44.99098" lon="6.39144">
        <ele>2174.6</ele>
        <time>2024-08-11T05:50:14Z</time>
      </trkpt>
      <trkpt lat="44.99098" lon="6.39144">
        <ele>2174.8</ele>
        <time>2024-08-11T05:50:15Z</time>
      </trkpt>
      <trkpt lat="44.99096" lon="6.39147">
        <ele>2174.8</ele>
        <time>2024-08-11T05:50:16Z</time>
      </trkpt>
      <trkpt lat="44.99096" lon="6.39147">
        <ele>2174.8</ele>
        <time>2024-08-11T05:50:17Z</time>
      </trkpt>
      <trkpt lat="44.99094" lon="6.39149">
        <ele>2175</ele>
        <time>2024-08-11T05:50:18Z</time>
      </trkpt>
      <trkpt lat="44.99094" lon="6.39149">
        <ele>2175.2</ele>
        <time>2024-08-11T05:50:19Z</time>
      </trkpt>
      <trkpt lat="44.99093" lon="6.3915">
        <ele>2175.2</ele>
        <time>2024-08-11T05:50:20Z</time>
      </trkpt>
      <trkpt lat="44.99093" lon="6.3915">
        <ele>2175.6</ele>
        <time>2024-08-11T05:50:21Z</time>
      </trkpt>
      <trkpt lat="44.99091" lon="6.39153">
        <ele>2175.6</ele>
        <time>2024-08-11T05:50:22Z</time>
      </trkpt>
      <trkpt lat="44.99091" lon="6.39153">
        <ele>2175.6</ele>
        <time>2024-08-11T05:50:23Z</time>
      </trkpt>
      <trkpt lat="44.99089" lon="6.39155">
        <ele>2175.8</ele>
        <time>2024-08-11T05:50:24Z</time>
      </trkpt>
      <trkpt lat="44.99089" lon="6.39155">
        <ele>2176</ele>
        <time>2024-08-11T05:50:25Z</time>
      </trkpt>
      <trkpt lat="44.99088" lon="6.39157">
        <ele>2176.2</ele>
        <time>2024-08-11T05:50:26Z</time>
      </trkpt>
      <trkpt lat="44.99088" lon="6.39157">
        <ele>2176.2</ele>
        <time>2024-08-11T05:50:27Z</time>
      </trkpt>
      <trkpt lat="44.99086" lon="6.3916">
        <ele>2176.4</ele>
        <time>2024-08-11T05:50:28Z</time>
      </trkpt>
      <trkpt lat="44.99086" lon="6.3916">
        <ele>2176.4</ele>
        <time>2024-08-11T05:50:29Z</time>
      </trkpt>
      <trkpt lat="44.99085" lon="6.39162">
        <ele>2176.6</ele>
        <time>2024-08-11T05:50:30Z</time>
      </trkpt>
      <trkpt lat="44.99085" lon="6.39162">
        <ele>2176.8</ele>
        <time>2024-08-11T05:50:31Z</time>
      </trkpt>
      <trkpt lat="44.99083" lon="6.39164">
        <ele>2177</ele>
        <time>2024-08-11T05:50:32Z</time>
      </trkpt>
      <trkpt lat="44.99083" lon="6.39164">
        <ele>2177.2</ele>
        <time>2024-08-11T05:50:33Z</time>
      </trkpt>
      <trkpt lat="44.99081" lon="6.39166">
        <ele>2177.2</ele>
        <time>2024-08-11T05:50:34Z</time>
      </trkpt>
      <trkpt lat="44.99081" lon="6.39166">
        <ele>2177.6</ele>
        <time>2024-08-11T05:50:35Z</time>
      </trkpt>
      <trkpt lat="44.99079" lon="6.39167">
        <ele>2177.6</ele>
        <time>2024-08-11T05:50:36Z</time>
      </trkpt>
      <trkpt lat="44.99079" lon="6.39167">
        <ele>2177.6</ele>
        <time>2024-08-11T05:50:37Z</time>
      </trkpt>
      <trkpt lat="44.99077" lon="6.39168">
        <ele>2177.4</ele>
        <time>2024-08-11T05:50:38Z</time>
      </trkpt>
      <trkpt lat="44.99077" lon="6.39168">
        <ele>2177.4</ele>
        <time>2024-08-11T05:50:39Z</time>
      </trkpt>
      <trkpt lat="44.99075" lon="6.39169">
        <ele>2177.4</ele>
        <time>2024-08-11T05:50:40Z</time>
      </trkpt>
      <trkpt lat="44.99075" lon="6.39169">
        <ele>2177.4</ele>
        <time>2024-08-11T05:50:41Z</time>
      </trkpt>
      <trkpt lat="44.99072" lon="6.39171">
        <ele>2177.4</ele>
        <time>2024-08-11T05:50:42Z</time>
      </trkpt>
      <trkpt lat="44.99072" lon="6.39171">
        <ele>2177.6</ele>
        <time>2024-08-11T05:50:43Z</time>
      </trkpt>
      <trkpt lat="44.9907" lon="6.39172">
        <ele>2177.6</ele>
        <time>2024-08-11T05:50:44Z</time>
      </trkpt>
      <trkpt lat="44.9907" lon="6.39172">
        <ele>2177.6</ele>
        <time>2024-08-11T05:50:45Z</time>
      </trkpt>
      <trkpt lat="44.99068" lon="6.39174">
        <ele>2177.6</ele>
        <time>2024-08-11T05:50:46Z</time>
      </trkpt>
      <trkpt lat="44.99068" lon="6.39174">
        <ele>2177.6</ele>
        <time>2024-08-11T05:50:47Z</time>
      </trkpt>
      <trkpt lat="44.99065" lon="6.39176">
        <ele>2177.6</ele>
        <time>2024-08-11T05:50:48Z</time>
      </trkpt>
      <trkpt lat="44.99065" lon="6.39176">
        <ele>2177.6</ele>
        <time>2024-08-11T05:50:49Z</time>
      </trkpt>
      <trkpt lat="44.99063" lon="6.39178">
        <ele>2177.8</ele>
        <time>2024-08-11T05:50:50Z</time>
      </trkpt>
      <trkpt lat="44.99063" lon="6.39178">
        <ele>2177.8</ele>
        <time>2024-08-11T05:50:51Z</time>
      </trkpt>
      <trkpt lat="44.99061" lon="6.39179">
        <ele>2178</ele>
        <time>2024-08-11T05:50:52Z</time>
      </trkpt>
      <trkpt lat="44.99061" lon="6.39179">
        <ele>2178</ele>
        <time>2024-08-11T05:50:53Z</time>
      </trkpt>
      <trkpt lat="44.99059" lon="6.39182">
        <ele>2178.2</ele>
        <time>2024-08-11T05:50:54Z</time>
      </trkpt>
      <trkpt lat="44.99059" lon="6.39182">
        <ele>2178.6</ele>
        <time>2024-08-11T05:50:55Z</time>
      </trkpt>
      <trkpt lat="44.99057" lon="6.39184">
        <ele>2178.6</ele>
        <time>2024-08-11T05:50:56Z</time>
      </trkpt>
      <trkpt lat="44.99057" lon="6.39184">
        <ele>2178.6</ele>
        <time>2024-08-11T05:50:57Z</time>
      </trkpt>
      <trkpt lat="44.99055" lon="6.39186">
        <ele>2178.8</ele>
        <time>2024-08-11T05:50:58Z</time>
      </trkpt>
      <trkpt lat="44.99055" lon="6.39186">
        <ele>2178.8</ele>
        <time>2024-08-11T05:50:59Z</time>
      </trkpt>
      <trkpt lat="44.99053" lon="6.39187">
        <ele>2178.8</ele>
        <time>2024-08-11T05:51:00Z</time>
      </trkpt>
      <trkpt lat="44.99053" lon="6.39187">
        <ele>2179</ele>
        <time>2024-08-11T05:51:01Z</time>
      </trkpt>
      <trkpt lat="44.99052" lon="6.3919">
        <ele>2179</ele>
        <time>2024-08-11T05:51:02Z</time>
      </trkpt>
      <trkpt lat="44.99052" lon="6.3919">
        <ele>2179</ele>
        <time>2024-08-11T05:51:03Z</time>
      </trkpt>
      <trkpt lat="44.9905" lon="6.39191">
        <ele>2179</ele>
        <time>2024-08-11T05:51:04Z</time>
      </trkpt>
      <trkpt lat="44.9905" lon="6.39191">
        <ele>2179</ele>
        <time>2024-08-11T05:51:05Z</time>
      </trkpt>
      <trkpt lat="44.99048" lon="6.39193">
        <ele>2179</ele>
        <time>2024-08-11T05:51:06Z</time>
      </trkpt>
      <trkpt lat="44.99048" lon="6.39193">
        <ele>2179</ele>
        <time>2024-08-11T05:51:07Z</time>
      </trkpt>
      <trkpt lat="44.99045" lon="6.39194">
        <ele>2179</ele>
        <time>2024-08-11T05:51:08Z</time>
      </trkpt>
      <trkpt lat="44.99045" lon="6.39194">
        <ele>2179.8</ele>
        <time>2024-08-11T05:51:09Z</time>
      </trkpt>
      <trkpt lat="44.99044" lon="6.39196">
        <ele>2179.8</ele>
        <time>2024-08-11T05:51:10Z</time>
      </trkpt>
      <trkpt lat="44.99044" lon="6.39196">
        <ele>2179.6</ele>
        <time>2024-08-11T05:51:11Z</time>
      </trkpt>
      <trkpt lat="44.99041" lon="6.39198">
        <ele>2179.6</ele>
        <time>2024-08-11T05:51:12Z</time>
      </trkpt>
      <trkpt lat="44.99041" lon="6.39198">
        <ele>2179.8</ele>
        <time>2024-08-11T05:51:13Z</time>
      </trkpt>
      <trkpt lat="44.9904" lon="6.392">
        <ele>2180</ele>
        <time>2024-08-11T05:51:14Z</time>
      </trkpt>
      <trkpt lat="44.9904" lon="6.392">
        <ele>2180</ele>
        <time>2024-08-11T05:51:15Z</time>
      </trkpt>
      <trkpt lat="44.99037" lon="6.39203">
        <ele>2180</ele>
        <time>2024-08-11T05:51:16Z</time>
      </trkpt>
      <trkpt lat="44.99037" lon="6.39203">
        <ele>2180.2</ele>
        <time>2024-08-11T05:51:17Z</time>
      </trkpt>
      <trkpt lat="44.99035" lon="6.39204">
        <ele>2180.2</ele>
        <time>2024-08-11T05:51:18Z</time>
      </trkpt>
      <trkpt lat="44.99035" lon="6.39204">
        <ele>2180.2</ele>
        <time>2024-08-11T05:51:19Z</time>
      </trkpt>
      <trkpt lat="44.99033" lon="6.39206">
        <ele>2180</ele>
        <time>2024-08-11T05:51:20Z</time>
      </trkpt>
      <trkpt lat="44.99033" lon="6.39206">
        <ele>2180</ele>
        <time>2024-08-11T05:51:21Z</time>
      </trkpt>
      <trkpt lat="44.99031" lon="6.39208">
        <ele>2180</ele>
        <time>2024-08-11T05:51:22Z</time>
      </trkpt>
      <trkpt lat="44.99031" lon="6.39208">
        <ele>2180</ele>
        <time>2024-08-11T05:51:23Z</time>
      </trkpt>
      <trkpt lat="44.99029" lon="6.3921">
        <ele>2180</ele>
        <time>2024-08-11T05:51:24Z</time>
      </trkpt>
      <trkpt lat="44.99029" lon="6.3921">
        <ele>2180.4</ele>
        <time>2024-08-11T05:51:25Z</time>
      </trkpt>
      <trkpt lat="44.99027" lon="6.39213">
        <ele>2180.4</ele>
        <time>2024-08-11T05:51:26Z</time>
      </trkpt>
      <trkpt lat="44.99027" lon="6.39213">
        <ele>2179.8</ele>
        <time>2024-08-11T05:51:27Z</time>
      </trkpt>
      <trkpt lat="44.99025" lon="6.39215">
        <ele>2179.8</ele>
        <time>2024-08-11T05:51:28Z</time>
      </trkpt>
      <trkpt lat="44.99025" lon="6.39215">
        <ele>2180.2</ele>
        <time>2024-08-11T05:51:29Z</time>
      </trkpt>
      <trkpt lat="44.99023" lon="6.39216">
        <ele>2180.4</ele>
        <time>2024-08-11T05:51:30Z</time>
      </trkpt>
      <trkpt lat="44.99023" lon="6.39216">
        <ele>2180.4</ele>
        <time>2024-08-11T05:51:31Z</time>
      </trkpt>
      <trkpt lat="44.99021" lon="6.39218">
        <ele>2180.6</ele>
        <time>2024-08-11T05:51:32Z</time>
      </trkpt>
      <trkpt lat="44.99021" lon="6.39218">
        <ele>2180.6</ele>
        <time>2024-08-11T05:51:33Z</time>
      </trkpt>
      <trkpt lat="44.99019" lon="6.3922">
        <ele>2180.2</ele>
        <time>2024-08-11T05:51:34Z</time>
      </trkpt>
      <trkpt lat="44.99019" lon="6.3922">
        <ele>2180.2</ele>
        <time>2024-08-11T05:51:35Z</time>
      </trkpt>
      <trkpt lat="44.99017" lon="6.39222">
        <ele>2180.2</ele>
        <time>2024-08-11T05:51:36Z</time>
      </trkpt>
      <trkpt lat="44.99017" lon="6.39222">
        <ele>2180.4</ele>
        <time>2024-08-11T05:51:37Z</time>
      </trkpt>
      <trkpt lat="44.99015" lon="6.39223">
        <ele>2180.6</ele>
        <time>2024-08-11T05:51:38Z</time>
      </trkpt>
      <trkpt lat="44.99015" lon="6.39223">
        <ele>2181</ele>
        <time>2024-08-11T05:51:39Z</time>
      </trkpt>
      <trkpt lat="44.99013" lon="6.39225">
        <ele>2180.8</ele>
        <time>2024-08-11T05:51:40Z</time>
      </trkpt>
      <trkpt lat="44.99013" lon="6.39225">
        <ele>2181.2</ele>
        <time>2024-08-11T05:51:41Z</time>
      </trkpt>
      <trkpt lat="44.99012" lon="6.39227">
        <ele>2181.4</ele>
        <time>2024-08-11T05:51:42Z</time>
      </trkpt>
      <trkpt lat="44.99012" lon="6.39227">
        <ele>2181.6</ele>
        <time>2024-08-11T05:51:43Z</time>
      </trkpt>
      <trkpt lat="44.99012" lon="6.39227">
        <ele>2182</ele>
        <time>2024-08-11T05:51:44Z</time>
      </trkpt>
      <trkpt lat="44.99009" lon="6.39228">
        <ele>2182.4</ele>
        <time>2024-08-11T05:51:45Z</time>
      </trkpt>
      <trkpt lat="44.99009" lon="6.39228">
        <ele>2182.8</ele>
        <time>2024-08-11T05:51:46Z</time>
      </trkpt>
      <trkpt lat="44.99007" lon="6.39229">
        <ele>2182.8</ele>
        <time>2024-08-11T05:51:47Z</time>
      </trkpt>
      <trkpt lat="44.99007" lon="6.39229">
        <ele>2183.2</ele>
        <time>2024-08-11T05:51:48Z</time>
      </trkpt>
      <trkpt lat="44.99005" lon="6.3923">
        <ele>2183.2</ele>
        <time>2024-08-11T05:51:49Z</time>
      </trkpt>
      <trkpt lat="44.99005" lon="6.3923">
        <ele>2183</ele>
        <time>2024-08-11T05:51:50Z</time>
      </trkpt>
      <trkpt lat="44.99003" lon="6.39233">
        <ele>2182.8</ele>
        <time>2024-08-11T05:51:51Z</time>
      </trkpt>
      <trkpt lat="44.99003" lon="6.39233">
        <ele>2182.8</ele>
        <time>2024-08-11T05:51:52Z</time>
      </trkpt>
      <trkpt lat="44.99001" lon="6.39235">
        <ele>2182.8</ele>
        <time>2024-08-11T05:51:53Z</time>
      </trkpt>
      <trkpt lat="44.99001" lon="6.39235">
        <ele>2182.8</ele>
        <time>2024-08-11T05:51:54Z</time>
      </trkpt>
      <trkpt lat="44.98999" lon="6.39237">
        <ele>2182.8</ele>
        <time>2024-08-11T05:51:55Z</time>
      </trkpt>
      <trkpt lat="44.98999" lon="6.39237">
        <ele>2182.8</ele>
        <time>2024-08-11T05:51:56Z</time>
      </trkpt>
      <trkpt lat="44.98997" lon="6.3924">
        <ele>2182.8</ele>
        <time>2024-08-11T05:51:57Z</time>
      </trkpt>
      <trkpt lat="44.98997" lon="6.3924">
        <ele>2182.8</ele>
        <time>2024-08-11T05:51:58Z</time>
      </trkpt>
      <trkpt lat="44.98995" lon="6.39242">
        <ele>2182.6</ele>
        <time>2024-08-11T05:51:59Z</time>
      </trkpt>
      <trkpt lat="44.98995" lon="6.39242">
        <ele>2182.6</ele>
        <time>2024-08-11T05:52:00Z</time>
      </trkpt>
      <trkpt lat="44.98993" lon="6.39244">
        <ele>2182.4</ele>
        <time>2024-08-11T05:52:01Z</time>
      </trkpt>
      <trkpt lat="44.98993" lon="6.39244">
        <ele>2182.8</ele>
        <time>2024-08-11T05:52:02Z</time>
      </trkpt>
      <trkpt lat="44.98991" lon="6.39246">
        <ele>2182.8</ele>
        <time>2024-08-11T05:52:03Z</time>
      </trkpt>
      <trkpt lat="44.98991" lon="6.39246">
        <ele>2182.8</ele>
        <time>2024-08-11T05:52:04Z</time>
      </trkpt>
      <trkpt lat="44.98991" lon="6.39246">
        <ele>2182.8</ele>
        <time>2024-08-11T05:52:05Z</time>
      </trkpt>
      <trkpt lat="44.98991" lon="6.39246">
        <ele>2182.8</ele>
        <time>2024-08-11T05:52:06Z</time>
      </trkpt>
      <trkpt lat="44.98991" lon="6.39246">
        <ele>2182.8</ele>
        <time>2024-08-11T05:52:07Z</time>
      </trkpt>
      <trkpt lat="44.9899" lon="6.39248">
        <ele>2182.6</ele>
        <time>2024-08-11T05:52:08Z</time>
      </trkpt>
      <trkpt lat="44.9899" lon="6.39248">
        <ele>2182.6</ele>
        <time>2024-08-11T05:52:09Z</time>
      </trkpt>
      <trkpt lat="44.98988" lon="6.39251">
        <ele>2182.6</ele>
        <time>2024-08-11T05:52:10Z</time>
      </trkpt>
      <trkpt lat="44.98988" lon="6.39251">
        <ele>2182.6</ele>
        <time>2024-08-11T05:52:11Z</time>
      </trkpt>
      <trkpt lat="44.98985" lon="6.39254">
        <ele>2182.6</ele>
        <time>2024-08-11T05:52:12Z</time>
      </trkpt>
      <trkpt lat="44.98984" lon="6.39255">
        <ele>2182.8</ele>
        <time>2024-08-11T05:52:13Z</time>
      </trkpt>
      <trkpt lat="44.98984" lon="6.39255">
        <ele>2182.8</ele>
        <time>2024-08-11T05:52:14Z</time>
      </trkpt>
      <trkpt lat="44.98982" lon="6.39258">
        <ele>2182.8</ele>
        <time>2024-08-11T05:52:15Z</time>
      </trkpt>
      <trkpt lat="44.98982" lon="6.39258">
        <ele>2182.8</ele>
        <time>2024-08-11T05:52:16Z</time>
      </trkpt>
      <trkpt lat="44.98981" lon="6.39261">
        <ele>2182.8</ele>
        <time>2024-08-11T05:52:17Z</time>
      </trkpt>
      <trkpt lat="44.98981" lon="6.39261">
        <ele>2183</ele>
        <time>2024-08-11T05:52:18Z</time>
      </trkpt>
      <trkpt lat="44.98979" lon="6.39264">
        <ele>2183</ele>
        <time>2024-08-11T05:52:19Z</time>
      </trkpt>
      <trkpt lat="44.98979" lon="6.39264">
        <ele>2183</ele>
        <time>2024-08-11T05:52:20Z</time>
      </trkpt>
      <trkpt lat="44.98978" lon="6.39267">
        <ele>2183</ele>
        <time>2024-08-11T05:52:21Z</time>
      </trkpt>
      <trkpt lat="44.98978" lon="6.39267">
        <ele>2183</ele>
        <time>2024-08-11T05:52:22Z</time>
      </trkpt>
      <trkpt lat="44.98978" lon="6.39267">
        <ele>2183</ele>
        <time>2024-08-11T05:52:23Z</time>
      </trkpt>
      <trkpt lat="44.98975" lon="6.3927">
        <ele>2183</ele>
        <time>2024-08-11T05:52:24Z</time>
      </trkpt>
      <trkpt lat="44.98973" lon="6.39271">
        <ele>2183.2</ele>
        <time>2024-08-11T05:52:25Z</time>
      </trkpt>
      <trkpt lat="44.98973" lon="6.39271">
        <ele>2183.2</ele>
        <time>2024-08-11T05:52:26Z</time>
      </trkpt>
      <trkpt lat="44.98971" lon="6.39274">
        <ele>2183.2</ele>
        <time>2024-08-11T05:52:27Z</time>
      </trkpt>
      <trkpt lat="44.98971" lon="6.39274">
        <ele>2183.2</ele>
        <time>2024-08-11T05:52:28Z</time>
      </trkpt>
      <trkpt lat="44.9897" lon="6.39276">
        <ele>2183.4</ele>
        <time>2024-08-11T05:52:29Z</time>
      </trkpt>
      <trkpt lat="44.9897" lon="6.39276">
        <ele>2183.6</ele>
        <time>2024-08-11T05:52:30Z</time>
      </trkpt>
      <trkpt lat="44.98967" lon="6.39278">
        <ele>2183.6</ele>
        <time>2024-08-11T05:52:31Z</time>
      </trkpt>
      <trkpt lat="44.98967" lon="6.39278">
        <ele>2183.4</ele>
        <time>2024-08-11T05:52:32Z</time>
      </trkpt>
      <trkpt lat="44.98966" lon="6.39281">
        <ele>2183.4</ele>
        <time>2024-08-11T05:52:33Z</time>
      </trkpt>
      <trkpt lat="44.98966" lon="6.39281">
        <ele>2183.4</ele>
        <time>2024-08-11T05:52:34Z</time>
      </trkpt>
      <trkpt lat="44.98964" lon="6.39284">
        <ele>2183.4</ele>
        <time>2024-08-11T05:52:35Z</time>
      </trkpt>
      <trkpt lat="44.98964" lon="6.39284">
        <ele>2183.4</ele>
        <time>2024-08-11T05:52:36Z</time>
      </trkpt>
      <trkpt lat="44.98962" lon="6.39285">
        <ele>2183.6</ele>
        <time>2024-08-11T05:52:37Z</time>
      </trkpt>
      <trkpt lat="44.98962" lon="6.39285">
        <ele>2183.6</ele>
        <time>2024-08-11T05:52:38Z</time>
      </trkpt>
      <trkpt lat="44.98959" lon="6.39286">
        <ele>2183.6</ele>
        <time>2024-08-11T05:52:39Z</time>
      </trkpt>
      <trkpt lat="44.98959" lon="6.39286">
        <ele>2183.8</ele>
        <time>2024-08-11T05:52:40Z</time>
      </trkpt>
      <trkpt lat="44.98957" lon="6.39288">
        <ele>2183.6</ele>
        <time>2024-08-11T05:52:41Z</time>
      </trkpt>
      <trkpt lat="44.98957" lon="6.39288">
        <ele>2183.6</ele>
        <time>2024-08-11T05:52:42Z</time>
      </trkpt>
      <trkpt lat="44.98955" lon="6.39291">
        <ele>2183.6</ele>
        <time>2024-08-11T05:52:43Z</time>
      </trkpt>
      <trkpt lat="44.98955" lon="6.39291">
        <ele>2183.6</ele>
        <time>2024-08-11T05:52:44Z</time>
      </trkpt>
      <trkpt lat="44.98953" lon="6.39293">
        <ele>2183.6</ele>
        <time>2024-08-11T05:52:45Z</time>
      </trkpt>
      <trkpt lat="44.98953" lon="6.39293">
        <ele>2183.6</ele>
        <time>2024-08-11T05:52:46Z</time>
      </trkpt>
      <trkpt lat="44.98953" lon="6.39293">
        <ele>2184</ele>
        <time>2024-08-11T05:52:47Z</time>
      </trkpt>
      <trkpt lat="44.9895" lon="6.39297">
        <ele>2184</ele>
        <time>2024-08-11T05:52:48Z</time>
      </trkpt>
      <trkpt lat="44.98949" lon="6.39298">
        <ele>2184</ele>
        <time>2024-08-11T05:52:49Z</time>
      </trkpt>
      <trkpt lat="44.98949" lon="6.39298">
        <ele>2184</ele>
        <time>2024-08-11T05:52:50Z</time>
      </trkpt>
      <trkpt lat="44.98947" lon="6.393">
        <ele>2183.8</ele>
        <time>2024-08-11T05:52:51Z</time>
      </trkpt>
      <trkpt lat="44.98947" lon="6.393">
        <ele>2183.8</ele>
        <time>2024-08-11T05:52:52Z</time>
      </trkpt>
      <trkpt lat="44.98945" lon="6.39302">
        <ele>2184</ele>
        <time>2024-08-11T05:52:53Z</time>
      </trkpt>
      <trkpt lat="44.98944" lon="6.39303">
        <ele>2184</ele>
        <time>2024-08-11T05:52:54Z</time>
      </trkpt>
      <trkpt lat="44.98944" lon="6.39303">
        <ele>2184</ele>
        <time>2024-08-11T05:52:55Z</time>
      </trkpt>
      <trkpt lat="44.98941" lon="6.39304">
        <ele>2184</ele>
        <time>2024-08-11T05:52:56Z</time>
      </trkpt>
      <trkpt lat="44.98941" lon="6.39304">
        <ele>2184.2</ele>
        <time>2024-08-11T05:52:57Z</time>
      </trkpt>
      <trkpt lat="44.98939" lon="6.39306">
        <ele>2184.2</ele>
        <time>2024-08-11T05:52:58Z</time>
      </trkpt>
      <trkpt lat="44.98939" lon="6.39306">
        <ele>2184.2</ele>
        <time>2024-08-11T05:52:59Z</time>
      </trkpt>
      <trkpt lat="44.98937" lon="6.39309">
        <ele>2184.2</ele>
        <time>2024-08-11T05:53:00Z</time>
      </trkpt>
      <trkpt lat="44.98937" lon="6.39309">
        <ele>2184.6</ele>
        <time>2024-08-11T05:53:01Z</time>
      </trkpt>
      <trkpt lat="44.98937" lon="6.39309">
        <ele>2184.6</ele>
        <time>2024-08-11T05:53:02Z</time>
      </trkpt>
      <trkpt lat="44.98934" lon="6.39312">
        <ele>2184.6</ele>
        <time>2024-08-11T05:53:03Z</time>
      </trkpt>
      <trkpt lat="44.98934" lon="6.39314">
        <ele>2184.6</ele>
        <time>2024-08-11T05:53:04Z</time>
      </trkpt>
      <trkpt lat="44.98934" lon="6.39314">
        <ele>2184.8</ele>
        <time>2024-08-11T05:53:05Z</time>
      </trkpt>
      <trkpt lat="44.98932" lon="6.39316">
        <ele>2184.8</ele>
        <time>2024-08-11T05:53:06Z</time>
      </trkpt>
      <trkpt lat="44.98932" lon="6.39316">
        <ele>2184.8</ele>
        <time>2024-08-11T05:53:07Z</time>
      </trkpt>
      <trkpt lat="44.9893" lon="6.39318">
        <ele>2184.8</ele>
        <time>2024-08-11T05:53:08Z</time>
      </trkpt>
      <trkpt lat="44.9893" lon="6.39318">
        <ele>2185</ele>
        <time>2024-08-11T05:53:09Z</time>
      </trkpt>
      <trkpt lat="44.98929" lon="6.39321">
        <ele>2185</ele>
        <time>2024-08-11T05:53:10Z</time>
      </trkpt>
      <trkpt lat="44.98929" lon="6.39321">
        <ele>2185</ele>
        <time>2024-08-11T05:53:11Z</time>
      </trkpt>
      <trkpt lat="44.98927" lon="6.39324">
        <ele>2185.2</ele>
        <time>2024-08-11T05:53:12Z</time>
      </trkpt>
      <trkpt lat="44.98927" lon="6.39324">
        <ele>2185.4</ele>
        <time>2024-08-11T05:53:13Z</time>
      </trkpt>
      <trkpt lat="44.98927" lon="6.39324">
        <ele>2185.6</ele>
        <time>2024-08-11T05:53:14Z</time>
      </trkpt>
      <trkpt lat="44.98924" lon="6.39326">
        <ele>2185.6</ele>
        <time>2024-08-11T05:53:15Z</time>
      </trkpt>
      <trkpt lat="44.98923" lon="6.39328">
        <ele>2185.4</ele>
        <time>2024-08-11T05:53:16Z</time>
      </trkpt>
      <trkpt lat="44.98923" lon="6.39328">
        <ele>2185.4</ele>
        <time>2024-08-11T05:53:17Z</time>
      </trkpt>
      <trkpt lat="44.98921" lon="6.3933">
        <ele>2185.6</ele>
        <time>2024-08-11T05:53:18Z</time>
      </trkpt>
      <trkpt lat="44.98921" lon="6.3933">
        <ele>2185.8</ele>
        <time>2024-08-11T05:53:19Z</time>
      </trkpt>
      <trkpt lat="44.98921" lon="6.3933">
        <ele>2185.8</ele>
        <time>2024-08-11T05:53:20Z</time>
      </trkpt>
      <trkpt lat="44.98918" lon="6.39332">
        <ele>2185.8</ele>
        <time>2024-08-11T05:53:21Z</time>
      </trkpt>
      <trkpt lat="44.98917" lon="6.39333">
        <ele>2186</ele>
        <time>2024-08-11T05:53:22Z</time>
      </trkpt>
      <trkpt lat="44.98917" lon="6.39333">
        <ele>2186</ele>
        <time>2024-08-11T05:53:23Z</time>
      </trkpt>
      <trkpt lat="44.98914" lon="6.39336">
        <ele>2186</ele>
        <time>2024-08-11T05:53:24Z</time>
      </trkpt>
      <trkpt lat="44.98913" lon="6.39337">
        <ele>2186</ele>
        <time>2024-08-11T05:53:25Z</time>
      </trkpt>
      <trkpt lat="44.98913" lon="6.39338">
        <ele>2186</ele>
        <time>2024-08-11T05:53:26Z</time>
      </trkpt>
      <trkpt lat="44.98912" lon="6.39339">
        <ele>2186</ele>
        <time>2024-08-11T05:53:27Z</time>
      </trkpt>
      <trkpt lat="44.9891" lon="6.3934">
        <ele>2186.2</ele>
        <time>2024-08-11T05:53:28Z</time>
      </trkpt>
      <trkpt lat="44.9891" lon="6.3934">
        <ele>2186.2</ele>
        <time>2024-08-11T05:53:29Z</time>
      </trkpt>
      <trkpt lat="44.98908" lon="6.39342">
        <ele>2186.2</ele>
        <time>2024-08-11T05:53:30Z</time>
      </trkpt>
      <trkpt lat="44.98908" lon="6.39342">
        <ele>2186.2</ele>
        <time>2024-08-11T05:53:31Z</time>
      </trkpt>
      <trkpt lat="44.98908" lon="6.39342">
        <ele>2186.2</ele>
        <time>2024-08-11T05:53:32Z</time>
      </trkpt>
      <trkpt lat="44.98905" lon="6.39345">
        <ele>2186.2</ele>
        <time>2024-08-11T05:53:33Z</time>
      </trkpt>
      <trkpt lat="44.98904" lon="6.39346">
        <ele>2186.2</ele>
        <time>2024-08-11T05:53:34Z</time>
      </trkpt>
      <trkpt lat="44.98904" lon="6.39346">
        <ele>2186.4</ele>
        <time>2024-08-11T05:53:35Z</time>
      </trkpt>
      <trkpt lat="44.98902" lon="6.39349">
        <ele>2186.8</ele>
        <time>2024-08-11T05:53:36Z</time>
      </trkpt>
      <trkpt lat="44.98902" lon="6.39349">
        <ele>2187</ele>
        <time>2024-08-11T05:53:37Z</time>
      </trkpt>
      <trkpt lat="44.98902" lon="6.39349">
        <ele>2187</ele>
        <time>2024-08-11T05:53:38Z</time>
      </trkpt>
      <trkpt lat="44.989" lon="6.39353">
        <ele>2187</ele>
        <time>2024-08-11T05:53:39Z</time>
      </trkpt>
      <trkpt lat="44.98899" lon="6.39354">
        <ele>2187</ele>
        <time>2024-08-11T05:53:40Z</time>
      </trkpt>
      <trkpt lat="44.98899" lon="6.39354">
        <ele>2187.2</ele>
        <time>2024-08-11T05:53:41Z</time>
      </trkpt>
      <trkpt lat="44.98898" lon="6.39357">
        <ele>2187.2</ele>
        <time>2024-08-11T05:53:42Z</time>
      </trkpt>
      <trkpt lat="44.98898" lon="6.39357">
        <ele>2187.4</ele>
        <time>2024-08-11T05:53:43Z</time>
      </trkpt>
      <trkpt lat="44.98896" lon="6.39359">
        <ele>2187.4</ele>
        <time>2024-08-11T05:53:44Z</time>
      </trkpt>
      <trkpt lat="44.98896" lon="6.39359">
        <ele>2187.6</ele>
        <time>2024-08-11T05:53:45Z</time>
      </trkpt>
      <trkpt lat="44.98894" lon="6.39361">
        <ele>2188</ele>
        <time>2024-08-11T05:53:46Z</time>
      </trkpt>
      <trkpt lat="44.98894" lon="6.39361">
        <ele>2188</ele>
        <time>2024-08-11T05:53:47Z</time>
      </trkpt>
      <trkpt lat="44.98892" lon="6.39361">
        <ele>2188.2</ele>
        <time>2024-08-11T05:53:48Z</time>
      </trkpt>
      <trkpt lat="44.98892" lon="6.39361">
        <ele>2188.2</ele>
        <time>2024-08-11T05:53:49Z</time>
      </trkpt>
      <trkpt lat="44.9889" lon="6.39363">
        <ele>2188.2</ele>
        <time>2024-08-11T05:53:50Z</time>
      </trkpt>
      <trkpt lat="44.9889" lon="6.39363">
        <ele>2188.4</ele>
        <time>2024-08-11T05:53:51Z</time>
      </trkpt>
      <trkpt lat="44.98888" lon="6.39365">
        <ele>2188.6</ele>
        <time>2024-08-11T05:53:52Z</time>
      </trkpt>
      <trkpt lat="44.98888" lon="6.39365">
        <ele>2188.6</ele>
        <time>2024-08-11T05:53:53Z</time>
      </trkpt>
      <trkpt lat="44.98887" lon="6.39366">
        <ele>2188.6</ele>
        <time>2024-08-11T05:53:54Z</time>
      </trkpt>
      <trkpt lat="44.98887" lon="6.39366">
        <ele>2189</ele>
        <time>2024-08-11T05:53:55Z</time>
      </trkpt>
      <trkpt lat="44.98885" lon="6.39369">
        <ele>2189.2</ele>
        <time>2024-08-11T05:53:56Z</time>
      </trkpt>
      <trkpt lat="44.98885" lon="6.39369">
        <ele>2189.2</ele>
        <time>2024-08-11T05:53:57Z</time>
      </trkpt>
      <trkpt lat="44.98884" lon="6.39371">
        <ele>2189.2</ele>
        <time>2024-08-11T05:53:58Z</time>
      </trkpt>
      <trkpt lat="44.98884" lon="6.39371">
        <ele>2189.4</ele>
        <time>2024-08-11T05:53:59Z</time>
      </trkpt>
      <trkpt lat="44.98882" lon="6.39374">
        <ele>2189.8</ele>
        <time>2024-08-11T05:54:00Z</time>
      </trkpt>
      <trkpt lat="44.98882" lon="6.39374">
        <ele>2189.8</ele>
        <time>2024-08-11T05:54:01Z</time>
      </trkpt>
      <trkpt lat="44.9888" lon="6.39377">
        <ele>2189.8</ele>
        <time>2024-08-11T05:54:02Z</time>
      </trkpt>
      <trkpt lat="44.9888" lon="6.39377">
        <ele>2189.8</ele>
        <time>2024-08-11T05:54:03Z</time>
      </trkpt>
      <trkpt lat="44.98878" lon="6.39379">
        <ele>2190</ele>
        <time>2024-08-11T05:54:04Z</time>
      </trkpt>
      <trkpt lat="44.98878" lon="6.39379">
        <ele>2190.2</ele>
        <time>2024-08-11T05:54:05Z</time>
      </trkpt>
      <trkpt lat="44.98878" lon="6.39379">
        <ele>2190.4</ele>
        <time>2024-08-11T05:54:06Z</time>
      </trkpt>
      <trkpt lat="44.98876" lon="6.39383">
        <ele>2190.4</ele>
        <time>2024-08-11T05:54:07Z</time>
      </trkpt>
      <trkpt lat="44.98876" lon="6.39383">
        <ele>2190.6</ele>
        <time>2024-08-11T05:54:08Z</time>
      </trkpt>
      <trkpt lat="44.98874" lon="6.39386">
        <ele>2190.8</ele>
        <time>2024-08-11T05:54:09Z</time>
      </trkpt>
      <trkpt lat="44.98874" lon="6.39387">
        <ele>2191</ele>
        <time>2024-08-11T05:54:10Z</time>
      </trkpt>
      <trkpt lat="44.98874" lon="6.39387">
        <ele>2191</ele>
        <time>2024-08-11T05:54:11Z</time>
      </trkpt>
      <trkpt lat="44.98872" lon="6.3939">
        <ele>2191</ele>
        <time>2024-08-11T05:54:12Z</time>
      </trkpt>
      <trkpt lat="44.98872" lon="6.3939">
        <ele>2191.2</ele>
        <time>2024-08-11T05:54:13Z</time>
      </trkpt>
      <trkpt lat="44.98872" lon="6.3939">
        <ele>2191.2</ele>
        <time>2024-08-11T05:54:14Z</time>
      </trkpt>
      <trkpt lat="44.98868" lon="6.39392">
        <ele>2191.2</ele>
        <time>2024-08-11T05:54:15Z</time>
      </trkpt>
      <trkpt lat="44.98867" lon="6.39393">
        <ele>2191.2</ele>
        <time>2024-08-11T05:54:16Z</time>
      </trkpt>
      <trkpt lat="44.98867" lon="6.39393">
        <ele>2191.2</ele>
        <time>2024-08-11T05:54:17Z</time>
      </trkpt>
      <trkpt lat="44.98865" lon="6.39394">
        <ele>2191.4</ele>
        <time>2024-08-11T05:54:18Z</time>
      </trkpt>
      <trkpt lat="44.98865" lon="6.39394">
        <ele>2191.4</ele>
        <time>2024-08-11T05:54:19Z</time>
      </trkpt>
      <trkpt lat="44.98865" lon="6.39394">
        <ele>2191.4</ele>
        <time>2024-08-11T05:54:20Z</time>
      </trkpt>
      <trkpt lat="44.98861" lon="6.39397">
        <ele>2191.4</ele>
        <time>2024-08-11T05:54:21Z</time>
      </trkpt>
      <trkpt lat="44.9886" lon="6.39397">
        <ele>2191.4</ele>
        <time>2024-08-11T05:54:22Z</time>
      </trkpt>
      <trkpt lat="44.9886" lon="6.39397">
        <ele>2191.4</ele>
        <time>2024-08-11T05:54:23Z</time>
      </trkpt>
      <trkpt lat="44.98858" lon="6.39398">
        <ele>2191.6</ele>
        <time>2024-08-11T05:54:24Z</time>
      </trkpt>
      <trkpt lat="44.98858" lon="6.39398">
        <ele>2191.8</ele>
        <time>2024-08-11T05:54:25Z</time>
      </trkpt>
      <trkpt lat="44.98858" lon="6.39398">
        <ele>2191.8</ele>
        <time>2024-08-11T05:54:26Z</time>
      </trkpt>
      <trkpt lat="44.98854" lon="6.394">
        <ele>2191.8</ele>
        <time>2024-08-11T05:54:27Z</time>
      </trkpt>
      <trkpt lat="44.98853" lon="6.39401">
        <ele>2192</ele>
        <time>2024-08-11T05:54:28Z</time>
      </trkpt>
      <trkpt lat="44.98853" lon="6.39401">
        <ele>2192</ele>
        <time>2024-08-11T05:54:29Z</time>
      </trkpt>
      <trkpt lat="44.98851" lon="6.39403">
        <ele>2192</ele>
        <time>2024-08-11T05:54:30Z</time>
      </trkpt>
      <trkpt lat="44.98851" lon="6.39403">
        <ele>2192.2</ele>
        <time>2024-08-11T05:54:31Z</time>
      </trkpt>
      <trkpt lat="44.98851" lon="6.39403">
        <ele>2192.2</ele>
        <time>2024-08-11T05:54:32Z</time>
      </trkpt>
      <trkpt lat="44.98848" lon="6.39406">
        <ele>2192.2</ele>
        <time>2024-08-11T05:54:33Z</time>
      </trkpt>
      <trkpt lat="44.98847" lon="6.39407">
        <ele>2192</ele>
        <time>2024-08-11T05:54:34Z</time>
      </trkpt>
      <trkpt lat="44.98847" lon="6.39407">
        <ele>2192</ele>
        <time>2024-08-11T05:54:35Z</time>
      </trkpt>
      <trkpt lat="44.98844" lon="6.39409">
        <ele>2192.2</ele>
        <time>2024-08-11T05:54:36Z</time>
      </trkpt>
      <trkpt lat="44.98844" lon="6.39409">
        <ele>2192.2</ele>
        <time>2024-08-11T05:54:37Z</time>
      </trkpt>
      <trkpt lat="44.98844" lon="6.39409">
        <ele>2192.2</ele>
        <time>2024-08-11T05:54:38Z</time>
      </trkpt>
      <trkpt lat="44.98841" lon="6.39412">
        <ele>2192.4</ele>
        <time>2024-08-11T05:54:39Z</time>
      </trkpt>
      <trkpt lat="44.9884" lon="6.39412">
        <ele>2192.6</ele>
        <time>2024-08-11T05:54:40Z</time>
      </trkpt>
      <trkpt lat="44.9884" lon="6.39412">
        <ele>2192.8</ele>
        <time>2024-08-11T05:54:41Z</time>
      </trkpt>
      <trkpt lat="44.98838" lon="6.39414">
        <ele>2192.8</ele>
        <time>2024-08-11T05:54:42Z</time>
      </trkpt>
      <trkpt lat="44.98838" lon="6.39414">
        <ele>2192.8</ele>
        <time>2024-08-11T05:54:43Z</time>
      </trkpt>
      <trkpt lat="44.98838" lon="6.39414">
        <ele>2193</ele>
        <time>2024-08-11T05:54:44Z</time>
      </trkpt>
      <trkpt lat="44.98835" lon="6.39417">
        <ele>2193</ele>
        <time>2024-08-11T05:54:45Z</time>
      </trkpt>
      <trkpt lat="44.98834" lon="6.39418">
        <ele>2193</ele>
        <time>2024-08-11T05:54:46Z</time>
      </trkpt>
      <trkpt lat="44.98834" lon="6.39418">
        <ele>2193.2</ele>
        <time>2024-08-11T05:54:47Z</time>
      </trkpt>
      <trkpt lat="44.98832" lon="6.3942">
        <ele>2193.2</ele>
        <time>2024-08-11T05:54:48Z</time>
      </trkpt>
      <trkpt lat="44.98832" lon="6.3942">
        <ele>2193.4</ele>
        <time>2024-08-11T05:54:49Z</time>
      </trkpt>
      <trkpt lat="44.98829" lon="6.39422">
        <ele>2193.4</ele>
        <time>2024-08-11T05:54:50Z</time>
      </trkpt>
      <trkpt lat="44.98829" lon="6.39422">
        <ele>2193.4</ele>
        <time>2024-08-11T05:54:51Z</time>
      </trkpt>
      <trkpt lat="44.98827" lon="6.39424">
        <ele>2193.4</ele>
        <time>2024-08-11T05:54:52Z</time>
      </trkpt>
      <trkpt lat="44.98827" lon="6.39424">
        <ele>2193.4</ele>
        <time>2024-08-11T05:54:53Z</time>
      </trkpt>
      <trkpt lat="44.98826" lon="6.39427">
        <ele>2193.4</ele>
        <time>2024-08-11T05:54:54Z</time>
      </trkpt>
      <trkpt lat="44.98826" lon="6.39427">
        <ele>2193.6</ele>
        <time>2024-08-11T05:54:55Z</time>
      </trkpt>
      <trkpt lat="44.98826" lon="6.39427">
        <ele>2194</ele>
        <time>2024-08-11T05:54:56Z</time>
      </trkpt>
      <trkpt lat="44.98823" lon="6.3943">
        <ele>2194.2</ele>
        <time>2024-08-11T05:54:57Z</time>
      </trkpt>
      <trkpt lat="44.98822" lon="6.39431">
        <ele>2194.2</ele>
        <time>2024-08-11T05:54:58Z</time>
      </trkpt>
      <trkpt lat="44.98822" lon="6.39431">
        <ele>2194</ele>
        <time>2024-08-11T05:54:59Z</time>
      </trkpt>
      <trkpt lat="44.9882" lon="6.39433">
        <ele>2194</ele>
        <time>2024-08-11T05:55:00Z</time>
      </trkpt>
      <trkpt lat="44.9882" lon="6.39433">
        <ele>2194</ele>
        <time>2024-08-11T05:55:01Z</time>
      </trkpt>
      <trkpt lat="44.9882" lon="6.39433">
        <ele>2194.2</ele>
        <time>2024-08-11T05:55:02Z</time>
      </trkpt>
      <trkpt lat="44.98818" lon="6.39436">
        <ele>2194.2</ele>
        <time>2024-08-11T05:55:03Z</time>
      </trkpt>
      <trkpt lat="44.98816" lon="6.39437">
        <ele>2194.4</ele>
        <time>2024-08-11T05:55:04Z</time>
      </trkpt>
      <trkpt lat="44.98816" lon="6.39437">
        <ele>2194.4</ele>
        <time>2024-08-11T05:55:05Z</time>
      </trkpt>
      <trkpt lat="44.98814" lon="6.3944">
        <ele>2194.4</ele>
        <time>2024-08-11T05:55:06Z</time>
      </trkpt>
      <trkpt lat="44.98814" lon="6.3944">
        <ele>2194.6</ele>
        <time>2024-08-11T05:55:07Z</time>
      </trkpt>
      <trkpt lat="44.98813" lon="6.39443">
        <ele>2194.6</ele>
        <time>2024-08-11T05:55:08Z</time>
      </trkpt>
      <trkpt lat="44.98813" lon="6.39443">
        <ele>2194.6</ele>
        <time>2024-08-11T05:55:09Z</time>
      </trkpt>
      <trkpt lat="44.98812" lon="6.39446">
        <ele>2194.6</ele>
        <time>2024-08-11T05:55:10Z</time>
      </trkpt>
      <trkpt lat="44.98812" lon="6.39446">
        <ele>2194.8</ele>
        <time>2024-08-11T05:55:11Z</time>
      </trkpt>
      <trkpt lat="44.98811" lon="6.3945">
        <ele>2195</ele>
        <time>2024-08-11T05:55:12Z</time>
      </trkpt>
      <trkpt lat="44.98811" lon="6.3945">
        <ele>2195</ele>
        <time>2024-08-11T05:55:13Z</time>
      </trkpt>
      <trkpt lat="44.98811" lon="6.3945">
        <ele>2195</ele>
        <time>2024-08-11T05:55:14Z</time>
      </trkpt>
      <trkpt lat="44.98809" lon="6.39454">
        <ele>2195</ele>
        <time>2024-08-11T05:55:15Z</time>
      </trkpt>
      <trkpt lat="44.98809" lon="6.39456">
        <ele>2195</ele>
        <time>2024-08-11T05:55:16Z</time>
      </trkpt>
      <trkpt lat="44.98809" lon="6.39456">
        <ele>2195</ele>
        <time>2024-08-11T05:55:17Z</time>
      </trkpt>
      <trkpt lat="44.98808" lon="6.39459">
        <ele>2195.2</ele>
        <time>2024-08-11T05:55:18Z</time>
      </trkpt>
      <trkpt lat="44.98808" lon="6.39459">
        <ele>2195.6</ele>
        <time>2024-08-11T05:55:19Z</time>
      </trkpt>
      <trkpt lat="44.98808" lon="6.39459">
        <ele>2196</ele>
        <time>2024-08-11T05:55:20Z</time>
      </trkpt>
      <trkpt lat="44.98805" lon="6.39463">
        <ele>2196.2</ele>
        <time>2024-08-11T05:55:21Z</time>
      </trkpt>
      <trkpt lat="44.98805" lon="6.39465">
        <ele>2196.2</ele>
        <time>2024-08-11T05:55:22Z</time>
      </trkpt>
      <trkpt lat="44.98805" lon="6.39465">
        <ele>2196</ele>
        <time>2024-08-11T05:55:23Z</time>
      </trkpt>
      <trkpt lat="44.98803" lon="6.39468">
        <ele>2196</ele>
        <time>2024-08-11T05:55:24Z</time>
      </trkpt>
      <trkpt lat="44.98803" lon="6.39468">
        <ele>2196</ele>
        <time>2024-08-11T05:55:25Z</time>
      </trkpt>
      <trkpt lat="44.98803" lon="6.39468">
        <ele>2196</ele>
        <time>2024-08-11T05:55:26Z</time>
      </trkpt>
      <trkpt lat="44.98799" lon="6.39472">
        <ele>2196.2</ele>
        <time>2024-08-11T05:55:27Z</time>
      </trkpt>
      <trkpt lat="44.98799" lon="6.39473">
        <ele>2196.2</ele>
        <time>2024-08-11T05:55:28Z</time>
      </trkpt>
      <trkpt lat="44.98799" lon="6.39473">
        <ele>2196.2</ele>
        <time>2024-08-11T05:55:29Z</time>
      </trkpt>
      <trkpt lat="44.98797" lon="6.39476">
        <ele>2196</ele>
        <time>2024-08-11T05:55:30Z</time>
      </trkpt>
      <trkpt lat="44.98797" lon="6.39476">
        <ele>2196</ele>
        <time>2024-08-11T05:55:31Z</time>
      </trkpt>
      <trkpt lat="44.98797" lon="6.39476">
        <ele>2196.2</ele>
        <time>2024-08-11T05:55:32Z</time>
      </trkpt>
      <trkpt lat="44.98793" lon="6.39478">
        <ele>2196.2</ele>
        <time>2024-08-11T05:55:33Z</time>
      </trkpt>
      <trkpt lat="44.98792" lon="6.39479">
        <ele>2196.4</ele>
        <time>2024-08-11T05:55:34Z</time>
      </trkpt>
      <trkpt lat="44.98792" lon="6.39479">
        <ele>2196.4</ele>
        <time>2024-08-11T05:55:35Z</time>
      </trkpt>
      <trkpt lat="44.98791" lon="6.39481">
        <ele>2196.4</ele>
        <time>2024-08-11T05:55:36Z</time>
      </trkpt>
      <trkpt lat="44.98791" lon="6.39481">
        <ele>2196.6</ele>
        <time>2024-08-11T05:55:37Z</time>
      </trkpt>
      <trkpt lat="44.98791" lon="6.39481">
        <ele>2197</ele>
        <time>2024-08-11T05:55:38Z</time>
      </trkpt>
      <trkpt lat="44.98788" lon="6.39484">
        <ele>2197.2</ele>
        <time>2024-08-11T05:55:39Z</time>
      </trkpt>
      <trkpt lat="44.98787" lon="6.39485">
        <ele>2197.2</ele>
        <time>2024-08-11T05:55:40Z</time>
      </trkpt>
      <trkpt lat="44.98787" lon="6.39485">
        <ele>2197.4</ele>
        <time>2024-08-11T05:55:41Z</time>
      </trkpt>
      <trkpt lat="44.98785" lon="6.39488">
        <ele>2197.4</ele>
        <time>2024-08-11T05:55:42Z</time>
      </trkpt>
      <trkpt lat="44.98785" lon="6.39488">
        <ele>2197.4</ele>
        <time>2024-08-11T05:55:43Z</time>
      </trkpt>
      <trkpt lat="44.98785" lon="6.39488">
        <ele>2197.8</ele>
        <time>2024-08-11T05:55:44Z</time>
      </trkpt>
      <trkpt lat="44.98785" lon="6.39493">
        <ele>2198</ele>
        <time>2024-08-11T05:55:45Z</time>
      </trkpt>
      <trkpt lat="44.98783" lon="6.39494">
        <ele>2198.2</ele>
        <time>2024-08-11T05:55:46Z</time>
      </trkpt>
      <trkpt lat="44.98783" lon="6.39494">
        <ele>2198.2</ele>
        <time>2024-08-11T05:55:47Z</time>
      </trkpt>
      <trkpt lat="44.98781" lon="6.39494">
        <ele>2198.2</ele>
        <time>2024-08-11T05:55:48Z</time>
      </trkpt>
      <trkpt lat="44.98781" lon="6.39494">
        <ele>2198.4</ele>
        <time>2024-08-11T05:55:49Z</time>
      </trkpt>
      <trkpt lat="44.98781" lon="6.39494">
        <ele>2198.4</ele>
        <time>2024-08-11T05:55:50Z</time>
      </trkpt>
      <trkpt lat="44.98778" lon="6.39497">
        <ele>2198.4</ele>
        <time>2024-08-11T05:55:51Z</time>
      </trkpt>
      <trkpt lat="44.98777" lon="6.39498">
        <ele>2198.4</ele>
        <time>2024-08-11T05:55:52Z</time>
      </trkpt>
      <trkpt lat="44.98777" lon="6.39498">
        <ele>2198</ele>
        <time>2024-08-11T05:55:53Z</time>
      </trkpt>
      <trkpt lat="44.98775" lon="6.39501">
        <ele>2198</ele>
        <time>2024-08-11T05:55:54Z</time>
      </trkpt>
      <trkpt lat="44.98775" lon="6.39501">
        <ele>2197.8</ele>
        <time>2024-08-11T05:55:55Z</time>
      </trkpt>
      <trkpt lat="44.98775" lon="6.39501">
        <ele>2197.8</ele>
        <time>2024-08-11T05:55:56Z</time>
      </trkpt>
      <trkpt lat="44.98774" lon="6.39505">
        <ele>2198</ele>
        <time>2024-08-11T05:55:57Z</time>
      </trkpt>
      <trkpt lat="44.98774" lon="6.39506">
        <ele>2198.2</ele>
        <time>2024-08-11T05:55:58Z</time>
      </trkpt>
      <trkpt lat="44.98774" lon="6.39506">
        <ele>2198.4</ele>
        <time>2024-08-11T05:55:59Z</time>
      </trkpt>
      <trkpt lat="44.98774" lon="6.39506">
        <ele>2198.4</ele>
        <time>2024-08-11T05:56:00Z</time>
      </trkpt>
      <trkpt lat="44.98773" lon="6.39509">
        <ele>2198.4</ele>
        <time>2024-08-11T05:56:01Z</time>
      </trkpt>
      <trkpt lat="44.98773" lon="6.39509">
        <ele>2198.6</ele>
        <time>2024-08-11T05:56:02Z</time>
      </trkpt>
      <trkpt lat="44.98773" lon="6.39509">
        <ele>2198.6</ele>
        <time>2024-08-11T05:56:03Z</time>
      </trkpt>
      <trkpt lat="44.98773" lon="6.39512">
        <ele>2198.8</ele>
        <time>2024-08-11T05:56:04Z</time>
      </trkpt>
      <trkpt lat="44.98773" lon="6.39512">
        <ele>2198.8</ele>
        <time>2024-08-11T05:56:05Z</time>
      </trkpt>
      <trkpt lat="44.98773" lon="6.39512">
        <ele>2199</ele>
        <time>2024-08-11T05:56:06Z</time>
      </trkpt>
      <trkpt lat="44.98771" lon="6.39514">
        <ele>2199</ele>
        <time>2024-08-11T05:56:07Z</time>
      </trkpt>
      <trkpt lat="44.98771" lon="6.39514">
        <ele>2199.2</ele>
        <time>2024-08-11T05:56:08Z</time>
      </trkpt>
      <trkpt lat="44.9877" lon="6.39517">
        <ele>2199</ele>
        <time>2024-08-11T05:56:09Z</time>
      </trkpt>
      <trkpt lat="44.9877" lon="6.39517">
        <ele>2199.2</ele>
        <time>2024-08-11T05:56:10Z</time>
      </trkpt>
      <trkpt lat="44.9877" lon="6.39517">
        <ele>2199.4</ele>
        <time>2024-08-11T05:56:11Z</time>
      </trkpt>
      <trkpt lat="44.98769" lon="6.3952">
        <ele>2199.4</ele>
        <time>2024-08-11T05:56:12Z</time>
      </trkpt>
      <trkpt lat="44.98769" lon="6.3952">
        <ele>2199.2</ele>
        <time>2024-08-11T05:56:13Z</time>
      </trkpt>
      <trkpt lat="44.98769" lon="6.3952">
        <ele>2199.2</ele>
        <time>2024-08-11T05:56:14Z</time>
      </trkpt>
      <trkpt lat="44.98767" lon="6.39521">
        <ele>2199.4</ele>
        <time>2024-08-11T05:56:15Z</time>
      </trkpt>
      <trkpt lat="44.98767" lon="6.39521">
        <ele>2200</ele>
        <time>2024-08-11T05:56:16Z</time>
      </trkpt>
      <trkpt lat="44.98765" lon="6.39522">
        <ele>2200.2</ele>
        <time>2024-08-11T05:56:17Z</time>
      </trkpt>
      <trkpt lat="44.98765" lon="6.39522">
        <ele>2200.2</ele>
        <time>2024-08-11T05:56:18Z</time>
      </trkpt>
      <trkpt lat="44.98765" lon="6.39522">
        <ele>2200.4</ele>
        <time>2024-08-11T05:56:19Z</time>
      </trkpt>
      <trkpt lat="44.98765" lon="6.39522">
        <ele>2200.6</ele>
        <time>2024-08-11T05:56:20Z</time>
      </trkpt>
      <trkpt lat="44.98763" lon="6.39525">
        <ele>2200.6</ele>
        <time>2024-08-11T05:56:21Z</time>
      </trkpt>
      <trkpt lat="44.98763" lon="6.39525">
        <ele>2200.6</ele>
        <time>2024-08-11T05:56:22Z</time>
      </trkpt>
      <trkpt lat="44.98763" lon="6.39525">
        <ele>2200.8</ele>
        <time>2024-08-11T05:56:23Z</time>
      </trkpt>
      <trkpt lat="44.9876" lon="6.39528">
        <ele>2200.8</ele>
        <time>2024-08-11T05:56:24Z</time>
      </trkpt>
      <trkpt lat="44.98759" lon="6.39529">
        <ele>2200.8</ele>
        <time>2024-08-11T05:56:25Z</time>
      </trkpt>
      <trkpt lat="44.98759" lon="6.39529">
        <ele>2200.8</ele>
        <time>2024-08-11T05:56:26Z</time>
      </trkpt>
      <trkpt lat="44.98759" lon="6.39532">
        <ele>2201</ele>
        <time>2024-08-11T05:56:27Z</time>
      </trkpt>
      <trkpt lat="44.98759" lon="6.39532">
        <ele>2200.8</ele>
        <time>2024-08-11T05:56:28Z</time>
      </trkpt>
      <trkpt lat="44.98759" lon="6.39532">
        <ele>2201</ele>
        <time>2024-08-11T05:56:29Z</time>
      </trkpt>
      <trkpt lat="44.98756" lon="6.39533">
        <ele>2201</ele>
        <time>2024-08-11T05:56:30Z</time>
      </trkpt>
      <trkpt lat="44.98756" lon="6.39533">
        <ele>2201</ele>
        <time>2024-08-11T05:56:31Z</time>
      </trkpt>
      <trkpt lat="44.98756" lon="6.39533">
        <ele>2201</ele>
        <time>2024-08-11T05:56:32Z</time>
      </trkpt>
      <trkpt lat="44.98753" lon="6.39535">
        <ele>2201</ele>
        <time>2024-08-11T05:56:33Z</time>
      </trkpt>
      <trkpt lat="44.98753" lon="6.39536">
        <ele>2201</ele>
        <time>2024-08-11T05:56:34Z</time>
      </trkpt>
      <trkpt lat="44.98753" lon="6.39536">
        <ele>2201</ele>
        <time>2024-08-11T05:56:35Z</time>
      </trkpt>
      <trkpt lat="44.98751" lon="6.39538">
        <ele>2201.2</ele>
        <time>2024-08-11T05:56:36Z</time>
      </trkpt>
      <trkpt lat="44.98751" lon="6.39538">
        <ele>2201.2</ele>
        <time>2024-08-11T05:56:37Z</time>
      </trkpt>
      <trkpt lat="44.98751" lon="6.39538">
        <ele>2201</ele>
        <time>2024-08-11T05:56:38Z</time>
      </trkpt>
      <trkpt lat="44.98748" lon="6.39539">
        <ele>2201</ele>
        <time>2024-08-11T05:56:39Z</time>
      </trkpt>
      <trkpt lat="44.98747" lon="6.3954">
        <ele>2201</ele>
        <time>2024-08-11T05:56:40Z</time>
      </trkpt>
      <trkpt lat="44.98747" lon="6.3954">
        <ele>2201</ele>
        <time>2024-08-11T05:56:41Z</time>
      </trkpt>
      <trkpt lat="44.98745" lon="6.39542">
        <ele>2201</ele>
        <time>2024-08-11T05:56:42Z</time>
      </trkpt>
      <trkpt lat="44.98745" lon="6.39542">
        <ele>2201</ele>
        <time>2024-08-11T05:56:43Z</time>
      </trkpt>
      <trkpt lat="44.98745" lon="6.39542">
        <ele>2201</ele>
        <time>2024-08-11T05:56:44Z</time>
      </trkpt>
      <trkpt lat="44.98741" lon="6.39543">
        <ele>2201</ele>
        <time>2024-08-11T05:56:45Z</time>
      </trkpt>
      <trkpt lat="44.98741" lon="6.39544">
        <ele>2201</ele>
        <time>2024-08-11T05:56:46Z</time>
      </trkpt>
      <trkpt lat="44.98741" lon="6.39544">
        <ele>2201</ele>
        <time>2024-08-11T05:56:47Z</time>
      </trkpt>
      <trkpt lat="44.98738" lon="6.39544">
        <ele>2200.8</ele>
        <time>2024-08-11T05:56:48Z</time>
      </trkpt>
      <trkpt lat="44.98738" lon="6.39544">
        <ele>2200.8</ele>
        <time>2024-08-11T05:56:49Z</time>
      </trkpt>
      <trkpt lat="44.98738" lon="6.39544">
        <ele>2200.8</ele>
        <time>2024-08-11T05:56:50Z</time>
      </trkpt>
      <trkpt lat="44.98735" lon="6.39548">
        <ele>2200.8</ele>
        <time>2024-08-11T05:56:51Z</time>
      </trkpt>
      <trkpt lat="44.98734" lon="6.39548">
        <ele>2201</ele>
        <time>2024-08-11T05:56:52Z</time>
      </trkpt>
      <trkpt lat="44.98734" lon="6.39548">
        <ele>2201.2</ele>
        <time>2024-08-11T05:56:53Z</time>
      </trkpt>
      <trkpt lat="44.98733" lon="6.3955">
        <ele>2201.2</ele>
        <time>2024-08-11T05:56:54Z</time>
      </trkpt>
      <trkpt lat="44.98733" lon="6.3955">
        <ele>2201</ele>
        <time>2024-08-11T05:56:55Z</time>
      </trkpt>
      <trkpt lat="44.98733" lon="6.3955">
        <ele>2201</ele>
        <time>2024-08-11T05:56:56Z</time>
      </trkpt>
      <trkpt lat="44.98731" lon="6.39554">
        <ele>2201</ele>
        <time>2024-08-11T05:56:57Z</time>
      </trkpt>
      <trkpt lat="44.98729" lon="6.39555">
        <ele>2201</ele>
        <time>2024-08-11T05:56:58Z</time>
      </trkpt>
      <trkpt lat="44.98729" lon="6.39555">
        <ele>2201.2</ele>
        <time>2024-08-11T05:56:59Z</time>
      </trkpt>
      <trkpt lat="44.98727" lon="6.39557">
        <ele>2201.2</ele>
        <time>2024-08-11T05:57:00Z</time>
      </trkpt>
      <trkpt lat="44.98727" lon="6.39557">
        <ele>2200.6</ele>
        <time>2024-08-11T05:57:01Z</time>
      </trkpt>
      <trkpt lat="44.98727" lon="6.39557">
        <ele>2201</ele>
        <time>2024-08-11T05:57:02Z</time>
      </trkpt>
      <trkpt lat="44.98724" lon="6.39561">
        <ele>2201</ele>
        <time>2024-08-11T05:57:03Z</time>
      </trkpt>
      <trkpt lat="44.98723" lon="6.39562">
        <ele>2200.8</ele>
        <time>2024-08-11T05:57:04Z</time>
      </trkpt>
      <trkpt lat="44.98723" lon="6.39562">
        <ele>2200.8</ele>
        <time>2024-08-11T05:57:05Z</time>
      </trkpt>
      <trkpt lat="44.98722" lon="6.39565">
        <ele>2200.8</ele>
        <time>2024-08-11T05:57:06Z</time>
      </trkpt>
      <trkpt lat="44.98722" lon="6.39565">
        <ele>2201.2</ele>
        <time>2024-08-11T05:57:07Z</time>
      </trkpt>
      <trkpt lat="44.98722" lon="6.39565">
        <ele>2201.2</ele>
        <time>2024-08-11T05:57:08Z</time>
      </trkpt>
      <trkpt lat="44.98721" lon="6.3957">
        <ele>2201.2</ele>
        <time>2024-08-11T05:57:09Z</time>
      </trkpt>
      <trkpt lat="44.9872" lon="6.39572">
        <ele>2201</ele>
        <time>2024-08-11T05:57:10Z</time>
      </trkpt>
      <trkpt lat="44.9872" lon="6.39572">
        <ele>2200.8</ele>
        <time>2024-08-11T05:57:11Z</time>
      </trkpt>
      <trkpt lat="44.98718" lon="6.39574">
        <ele>2200.8</ele>
        <time>2024-08-11T05:57:12Z</time>
      </trkpt>
      <trkpt lat="44.98718" lon="6.39574">
        <ele>2201</ele>
        <time>2024-08-11T05:57:13Z</time>
      </trkpt>
      <trkpt lat="44.98718" lon="6.39574">
        <ele>2201</ele>
        <time>2024-08-11T05:57:14Z</time>
      </trkpt>
      <trkpt lat="44.98715" lon="6.39578">
        <ele>2201</ele>
        <time>2024-08-11T05:57:15Z</time>
      </trkpt>
      <trkpt lat="44.98714" lon="6.39579">
        <ele>2201</ele>
        <time>2024-08-11T05:57:16Z</time>
      </trkpt>
      <trkpt lat="44.98714" lon="6.39579">
        <ele>2201</ele>
        <time>2024-08-11T05:57:17Z</time>
      </trkpt>
      <trkpt lat="44.98711" lon="6.3958">
        <ele>2201</ele>
        <time>2024-08-11T05:57:18Z</time>
      </trkpt>
      <trkpt lat="44.98711" lon="6.3958">
        <ele>2201</ele>
        <time>2024-08-11T05:57:19Z</time>
      </trkpt>
      <trkpt lat="44.98711" lon="6.3958">
        <ele>2201.2</ele>
        <time>2024-08-11T05:57:20Z</time>
      </trkpt>
      <trkpt lat="44.98708" lon="6.39583">
        <ele>2201.4</ele>
        <time>2024-08-11T05:57:21Z</time>
      </trkpt>
      <trkpt lat="44.98707" lon="6.39585">
        <ele>2201.4</ele>
        <time>2024-08-11T05:57:22Z</time>
      </trkpt>
      <trkpt lat="44.98707" lon="6.39585">
        <ele>2201.4</ele>
        <time>2024-08-11T05:57:23Z</time>
      </trkpt>
      <trkpt lat="44.98705" lon="6.39587">
        <ele>2201.4</ele>
        <time>2024-08-11T05:57:24Z</time>
      </trkpt>
      <trkpt lat="44.98705" lon="6.39587">
        <ele>2201.4</ele>
        <time>2024-08-11T05:57:25Z</time>
      </trkpt>
      <trkpt lat="44.98705" lon="6.39587">
        <ele>2201.4</ele>
        <time>2024-08-11T05:57:26Z</time>
      </trkpt>
      <trkpt lat="44.98701" lon="6.3959">
        <ele>2201.4</ele>
        <time>2024-08-11T05:57:27Z</time>
      </trkpt>
      <trkpt lat="44.98701" lon="6.3959">
        <ele>2201.4</ele>
        <time>2024-08-11T05:57:28Z</time>
      </trkpt>
      <trkpt lat="44.987" lon="6.39593">
        <ele>2201.6</ele>
        <time>2024-08-11T05:57:29Z</time>
      </trkpt>
      <trkpt lat="44.987" lon="6.39593">
        <ele>2201.6</ele>
        <time>2024-08-11T05:57:30Z</time>
      </trkpt>
      <trkpt lat="44.98697" lon="6.39595">
        <ele>2201.6</ele>
        <time>2024-08-11T05:57:31Z</time>
      </trkpt>
      <trkpt lat="44.98697" lon="6.39595">
        <ele>2201.6</ele>
        <time>2024-08-11T05:57:32Z</time>
      </trkpt>
      <trkpt lat="44.98694" lon="6.39597">
        <ele>2201.8</ele>
        <time>2024-08-11T05:57:33Z</time>
      </trkpt>
      <trkpt lat="44.98693" lon="6.39598">
        <ele>2202</ele>
        <time>2024-08-11T05:57:34Z</time>
      </trkpt>
      <trkpt lat="44.98693" lon="6.39598">
        <ele>2202</ele>
        <time>2024-08-11T05:57:35Z</time>
      </trkpt>
      <trkpt lat="44.98692" lon="6.39599">
        <ele>2202</ele>
        <time>2024-08-11T05:57:36Z</time>
      </trkpt>
      <trkpt lat="44.98691" lon="6.396">
        <ele>2202.2</ele>
        <time>2024-08-11T05:57:37Z</time>
      </trkpt>
      <trkpt lat="44.98691" lon="6.396">
        <ele>2202.2</ele>
        <time>2024-08-11T05:57:38Z</time>
      </trkpt>
      <trkpt lat="44.98689" lon="6.39601">
        <ele>2202.4</ele>
        <time>2024-08-11T05:57:39Z</time>
      </trkpt>
      <trkpt lat="44.98689" lon="6.39601">
        <ele>2202.6</ele>
        <time>2024-08-11T05:57:40Z</time>
      </trkpt>
      <trkpt lat="44.98689" lon="6.39601">
        <ele>2202.8</ele>
        <time>2024-08-11T05:57:41Z</time>
      </trkpt>
      <trkpt lat="44.98685" lon="6.39603">
        <ele>2203</ele>
        <time>2024-08-11T05:57:42Z</time>
      </trkpt>
      <trkpt lat="44.98684" lon="6.39604">
        <ele>2203</ele>
        <time>2024-08-11T05:57:43Z</time>
      </trkpt>
      <trkpt lat="44.98684" lon="6.39604">
        <ele>2203.2</ele>
        <time>2024-08-11T05:57:44Z</time>
      </trkpt>
      <trkpt lat="44.98682" lon="6.39605">
        <ele>2203.2</ele>
        <time>2024-08-11T05:57:45Z</time>
      </trkpt>
      <trkpt lat="44.98682" lon="6.39605">
        <ele>2203.2</ele>
        <time>2024-08-11T05:57:46Z</time>
      </trkpt>
      <trkpt lat="44.98682" lon="6.39605">
        <ele>2203.4</ele>
        <time>2024-08-11T05:57:47Z</time>
      </trkpt>
      <trkpt lat="44.98678" lon="6.39608">
        <ele>2203.8</ele>
        <time>2024-08-11T05:57:48Z</time>
      </trkpt>
      <trkpt lat="44.98677" lon="6.39609">
        <ele>2203.8</ele>
        <time>2024-08-11T05:57:49Z</time>
      </trkpt>
      <trkpt lat="44.98677" lon="6.39609">
        <ele>2203.8</ele>
        <time>2024-08-11T05:57:50Z</time>
      </trkpt>
      <trkpt lat="44.98674" lon="6.3961">
        <ele>2203.8</ele>
        <time>2024-08-11T05:57:51Z</time>
      </trkpt>
      <trkpt lat="44.98674" lon="6.3961">
        <ele>2203.8</ele>
        <time>2024-08-11T05:57:52Z</time>
      </trkpt>
      <trkpt lat="44.98674" lon="6.3961">
        <ele>2203.6</ele>
        <time>2024-08-11T05:57:53Z</time>
      </trkpt>
      <trkpt lat="44.98671" lon="6.3961">
        <ele>2203.6</ele>
        <time>2024-08-11T05:57:54Z</time>
      </trkpt>
      <trkpt lat="44.98671" lon="6.3961">
        <ele>2203.6</ele>
        <time>2024-08-11T05:57:55Z</time>
      </trkpt>
      <trkpt lat="44.98671" lon="6.3961">
        <ele>2204</ele>
        <time>2024-08-11T05:57:56Z</time>
      </trkpt>
      <trkpt lat="44.9867" lon="6.39613">
        <ele>2204.2</ele>
        <time>2024-08-11T05:57:57Z</time>
      </trkpt>
      <trkpt lat="44.9867" lon="6.39613">
        <ele>2204.6</ele>
        <time>2024-08-11T05:57:58Z</time>
      </trkpt>
      <trkpt lat="44.9867" lon="6.39613">
        <ele>2205.2</ele>
        <time>2024-08-11T05:57:59Z</time>
      </trkpt>
      <trkpt lat="44.98667" lon="6.39616">
        <ele>2205.2</ele>
        <time>2024-08-11T05:58:00Z</time>
      </trkpt>
      <trkpt lat="44.98666" lon="6.39617">
        <ele>2205.2</ele>
        <time>2024-08-11T05:58:01Z</time>
      </trkpt>
      <trkpt lat="44.98666" lon="6.39617">
        <ele>2205.6</ele>
        <time>2024-08-11T05:58:02Z</time>
      </trkpt>
      <trkpt lat="44.98664" lon="6.3962">
        <ele>2205.6</ele>
        <time>2024-08-11T05:58:03Z</time>
      </trkpt>
      <trkpt lat="44.98664" lon="6.3962">
        <ele>2205.6</ele>
        <time>2024-08-11T05:58:04Z</time>
      </trkpt>
      <trkpt lat="44.98664" lon="6.3962">
        <ele>2205.6</ele>
        <time>2024-08-11T05:58:05Z</time>
      </trkpt>
      <trkpt lat="44.98662" lon="6.39624">
        <ele>2205.6</ele>
        <time>2024-08-11T05:58:06Z</time>
      </trkpt>
      <trkpt lat="44.98661" lon="6.39625">
        <ele>2205.6</ele>
        <time>2024-08-11T05:58:07Z</time>
      </trkpt>
      <trkpt lat="44.98661" lon="6.39625">
        <ele>2205.6</ele>
        <time>2024-08-11T05:58:08Z</time>
      </trkpt>
      <trkpt lat="44.98659" lon="6.39628">
        <ele>2205.6</ele>
        <time>2024-08-11T05:58:09Z</time>
      </trkpt>
      <trkpt lat="44.98659" lon="6.39628">
        <ele>2205.6</ele>
        <time>2024-08-11T05:58:10Z</time>
      </trkpt>
      <trkpt lat="44.98658" lon="6.3963">
        <ele>2205.6</ele>
        <time>2024-08-11T05:58:11Z</time>
      </trkpt>
      <trkpt lat="44.98658" lon="6.3963">
        <ele>2205.8</ele>
        <time>2024-08-11T05:58:12Z</time>
      </trkpt>
      <trkpt lat="44.98656" lon="6.39633">
        <ele>2205.8</ele>
        <time>2024-08-11T05:58:13Z</time>
      </trkpt>
      <trkpt lat="44.98656" lon="6.39633">
        <ele>2206</ele>
        <time>2024-08-11T05:58:14Z</time>
      </trkpt>
      <trkpt lat="44.98654" lon="6.39635">
        <ele>2206</ele>
        <time>2024-08-11T05:58:15Z</time>
      </trkpt>
      <trkpt lat="44.98654" lon="6.39635">
        <ele>2205.8</ele>
        <time>2024-08-11T05:58:16Z</time>
      </trkpt>
      <trkpt lat="44.98654" lon="6.39635">
        <ele>2206</ele>
        <time>2024-08-11T05:58:17Z</time>
      </trkpt>
      <trkpt lat="44.98651" lon="6.39639">
        <ele>2206</ele>
        <time>2024-08-11T05:58:18Z</time>
      </trkpt>
      <trkpt lat="44.9865" lon="6.3964">
        <ele>2206.2</ele>
        <time>2024-08-11T05:58:19Z</time>
      </trkpt>
      <trkpt lat="44.9865" lon="6.3964">
        <ele>2206.4</ele>
        <time>2024-08-11T05:58:20Z</time>
      </trkpt>
      <trkpt lat="44.98648" lon="6.39643">
        <ele>2206.4</ele>
        <time>2024-08-11T05:58:21Z</time>
      </trkpt>
      <trkpt lat="44.98648" lon="6.39643">
        <ele>2206.2</ele>
        <time>2024-08-11T05:58:22Z</time>
      </trkpt>
      <trkpt lat="44.98648" lon="6.39643">
        <ele>2206.2</ele>
        <time>2024-08-11T05:58:23Z</time>
      </trkpt>
      <trkpt lat="44.98645" lon="6.39646">
        <ele>2206.4</ele>
        <time>2024-08-11T05:58:24Z</time>
      </trkpt>
      <trkpt lat="44.98644" lon="6.39647">
        <ele>2206.4</ele>
        <time>2024-08-11T05:58:25Z</time>
      </trkpt>
      <trkpt lat="44.98644" lon="6.39647">
        <ele>2206.6</ele>
        <time>2024-08-11T05:58:26Z</time>
      </trkpt>
      <trkpt lat="44.98643" lon="6.39649">
        <ele>2206.6</ele>
        <time>2024-08-11T05:58:27Z</time>
      </trkpt>
      <trkpt lat="44.98643" lon="6.39649">
        <ele>2206.8</ele>
        <time>2024-08-11T05:58:28Z</time>
      </trkpt>
      <trkpt lat="44.98643" lon="6.39649">
        <ele>2207</ele>
        <time>2024-08-11T05:58:29Z</time>
      </trkpt>
      <trkpt lat="44.9864" lon="6.39649">
        <ele>2207</ele>
        <time>2024-08-11T05:58:30Z</time>
      </trkpt>
      <trkpt lat="44.9864" lon="6.39649">
        <ele>2207</ele>
        <time>2024-08-11T05:58:31Z</time>
      </trkpt>
      <trkpt lat="44.9864" lon="6.39649">
        <ele>2206.8</ele>
        <time>2024-08-11T05:58:32Z</time>
      </trkpt>
      <trkpt lat="44.98638" lon="6.39652">
        <ele>2206.8</ele>
        <time>2024-08-11T05:58:33Z</time>
      </trkpt>
      <trkpt lat="44.98638" lon="6.39652">
        <ele>2207</ele>
        <time>2024-08-11T05:58:34Z</time>
      </trkpt>
      <trkpt lat="44.98638" lon="6.39652">
        <ele>2207</ele>
        <time>2024-08-11T05:58:35Z</time>
      </trkpt>
      <trkpt lat="44.98636" lon="6.39655">
        <ele>2207.2</ele>
        <time>2024-08-11T05:58:36Z</time>
      </trkpt>
      <trkpt lat="44.98636" lon="6.39655">
        <ele>2207.2</ele>
        <time>2024-08-11T05:58:37Z</time>
      </trkpt>
      <trkpt lat="44.98635" lon="6.39657">
        <ele>2207.6</ele>
        <time>2024-08-11T05:58:38Z</time>
      </trkpt>
      <trkpt lat="44.98634" lon="6.39658">
        <ele>2207.8</ele>
        <time>2024-08-11T05:58:39Z</time>
      </trkpt>
      <trkpt lat="44.98634" lon="6.39658">
        <ele>2208</ele>
        <time>2024-08-11T05:58:40Z</time>
      </trkpt>
      <trkpt lat="44.98632" lon="6.39661">
        <ele>2208.2</ele>
        <time>2024-08-11T05:58:41Z</time>
      </trkpt>
      <trkpt lat="44.98632" lon="6.39661">
        <ele>2208.2</ele>
        <time>2024-08-11T05:58:42Z</time>
      </trkpt>
      <trkpt lat="44.98631" lon="6.39663">
        <ele>2208.4</ele>
        <time>2024-08-11T05:58:43Z</time>
      </trkpt>
      <trkpt lat="44.98631" lon="6.39663">
        <ele>2208.6</ele>
        <time>2024-08-11T05:58:44Z</time>
      </trkpt>
      <trkpt lat="44.98629" lon="6.39665">
        <ele>2208.8</ele>
        <time>2024-08-11T05:58:45Z</time>
      </trkpt>
      <trkpt lat="44.98629" lon="6.39665">
        <ele>2209</ele>
        <time>2024-08-11T05:58:46Z</time>
      </trkpt>
      <trkpt lat="44.98629" lon="6.39665">
        <ele>2209</ele>
        <time>2024-08-11T05:58:47Z</time>
      </trkpt>
      <trkpt lat="44.98628" lon="6.39667">
        <ele>2209.2</ele>
        <time>2024-08-11T05:58:48Z</time>
      </trkpt>
      <trkpt lat="44.98628" lon="6.39667">
        <ele>2209.4</ele>
        <time>2024-08-11T05:58:49Z</time>
      </trkpt>
      <trkpt lat="44.98628" lon="6.39667">
        <ele>2209.4</ele>
        <time>2024-08-11T05:58:50Z</time>
      </trkpt>
      <trkpt lat="44.98626" lon="6.39671">
        <ele>2209.8</ele>
        <time>2024-08-11T05:58:51Z</time>
      </trkpt>
      <trkpt lat="44.98625" lon="6.39672">
        <ele>2209.8</ele>
        <time>2024-08-11T05:58:52Z</time>
      </trkpt>
      <trkpt lat="44.98625" lon="6.39672">
        <ele>2210</ele>
        <time>2024-08-11T05:58:53Z</time>
      </trkpt>
      <trkpt lat="44.98624" lon="6.39674">
        <ele>2210</ele>
        <time>2024-08-11T05:58:54Z</time>
      </trkpt>
      <trkpt lat="44.98624" lon="6.39674">
        <ele>2210</ele>
        <time>2024-08-11T05:58:55Z</time>
      </trkpt>
      <trkpt lat="44.98621" lon="6.39676">
        <ele>2210</ele>
        <time>2024-08-11T05:58:56Z</time>
      </trkpt>
      <trkpt lat="44.98621" lon="6.39676">
        <ele>2210</ele>
        <time>2024-08-11T05:58:57Z</time>
      </trkpt>
      <trkpt lat="44.9862" lon="6.39678">
        <ele>2210</ele>
        <time>2024-08-11T05:58:58Z</time>
      </trkpt>
      <trkpt lat="44.9862" lon="6.39678">
        <ele>2210</ele>
        <time>2024-08-11T05:58:59Z</time>
      </trkpt>
      <trkpt lat="44.98619" lon="6.3968">
        <ele>2210.2</ele>
        <time>2024-08-11T05:59:00Z</time>
      </trkpt>
      <trkpt lat="44.98619" lon="6.3968">
        <ele>2210.2</ele>
        <time>2024-08-11T05:59:01Z</time>
      </trkpt>
      <trkpt lat="44.98619" lon="6.3968">
        <ele>2210.4</ele>
        <time>2024-08-11T05:59:02Z</time>
      </trkpt>
      <trkpt lat="44.98617" lon="6.39682">
        <ele>2210.4</ele>
        <time>2024-08-11T05:59:03Z</time>
      </trkpt>
      <trkpt lat="44.98616" lon="6.39683">
        <ele>2210.4</ele>
        <time>2024-08-11T05:59:04Z</time>
      </trkpt>
      <trkpt lat="44.98616" lon="6.39683">
        <ele>2210.4</ele>
        <time>2024-08-11T05:59:05Z</time>
      </trkpt>
      <trkpt lat="44.98614" lon="6.39685">
        <ele>2210.4</ele>
        <time>2024-08-11T05:59:06Z</time>
      </trkpt>
      <trkpt lat="44.98614" lon="6.39685">
        <ele>2210.4</ele>
        <time>2024-08-11T05:59:07Z</time>
      </trkpt>
      <trkpt lat="44.98614" lon="6.39685">
        <ele>2210.6</ele>
        <time>2024-08-11T05:59:08Z</time>
      </trkpt>
      <trkpt lat="44.98612" lon="6.39688">
        <ele>2210.8</ele>
        <time>2024-08-11T05:59:09Z</time>
      </trkpt>
      <trkpt lat="44.98612" lon="6.39689">
        <ele>2211.2</ele>
        <time>2024-08-11T05:59:10Z</time>
      </trkpt>
      <trkpt lat="44.98612" lon="6.39689">
        <ele>2211.6</ele>
        <time>2024-08-11T05:59:11Z</time>
      </trkpt>
      <trkpt lat="44.9861" lon="6.39691">
        <ele>2211.6</ele>
        <time>2024-08-11T05:59:12Z</time>
      </trkpt>
      <trkpt lat="44.9861" lon="6.39691">
        <ele>2211.2</ele>
        <time>2024-08-11T05:59:13Z</time>
      </trkpt>
      <trkpt lat="44.9861" lon="6.39691">
        <ele>2211.2</ele>
        <time>2024-08-11T05:59:14Z</time>
      </trkpt>
      <trkpt lat="44.98606" lon="6.39695">
        <ele>2211.2</ele>
        <time>2024-08-11T05:59:15Z</time>
      </trkpt>
      <trkpt lat="44.98605" lon="6.39696">
        <ele>2211</ele>
        <time>2024-08-11T05:59:16Z</time>
      </trkpt>
      <trkpt lat="44.98605" lon="6.39696">
        <ele>2211</ele>
        <time>2024-08-11T05:59:17Z</time>
      </trkpt>
      <trkpt lat="44.98604" lon="6.39698">
        <ele>2211</ele>
        <time>2024-08-11T05:59:18Z</time>
      </trkpt>
      <trkpt lat="44.98604" lon="6.39698">
        <ele>2211</ele>
        <time>2024-08-11T05:59:19Z</time>
      </trkpt>
      <trkpt lat="44.98604" lon="6.39698">
        <ele>2211.2</ele>
        <time>2024-08-11T05:59:20Z</time>
      </trkpt>
      <trkpt lat="44.98601" lon="6.39701">
        <ele>2211.4</ele>
        <time>2024-08-11T05:59:21Z</time>
      </trkpt>
      <trkpt lat="44.986" lon="6.39702">
        <ele>2211.4</ele>
        <time>2024-08-11T05:59:22Z</time>
      </trkpt>
      <trkpt lat="44.986" lon="6.39702">
        <ele>2211.6</ele>
        <time>2024-08-11T05:59:23Z</time>
      </trkpt>
      <trkpt lat="44.98598" lon="6.39704">
        <ele>2211.6</ele>
        <time>2024-08-11T05:59:24Z</time>
      </trkpt>
      <trkpt lat="44.98598" lon="6.39704">
        <ele>2211.8</ele>
        <time>2024-08-11T05:59:25Z</time>
      </trkpt>
      <trkpt lat="44.98598" lon="6.39704">
        <ele>2212</ele>
        <time>2024-08-11T05:59:26Z</time>
      </trkpt>
      <trkpt lat="44.98597" lon="6.39708">
        <ele>2212</ele>
        <time>2024-08-11T05:59:27Z</time>
      </trkpt>
      <trkpt lat="44.98596" lon="6.39709">
        <ele>2212.2</ele>
        <time>2024-08-11T05:59:28Z</time>
      </trkpt>
      <trkpt lat="44.98596" lon="6.39709">
        <ele>2212.4</ele>
        <time>2024-08-11T05:59:29Z</time>
      </trkpt>
      <trkpt lat="44.98594" lon="6.39711">
        <ele>2212.4</ele>
        <time>2024-08-11T05:59:30Z</time>
      </trkpt>
      <trkpt lat="44.98594" lon="6.39711">
        <ele>2212.4</ele>
        <time>2024-08-11T05:59:31Z</time>
      </trkpt>
      <trkpt lat="44.98594" lon="6.39711">
        <ele>2212.6</ele>
        <time>2024-08-11T05:59:32Z</time>
      </trkpt>
      <trkpt lat="44.98592" lon="6.39715">
        <ele>2212.6</ele>
        <time>2024-08-11T05:59:33Z</time>
      </trkpt>
      <trkpt lat="44.98591" lon="6.39716">
        <ele>2213</ele>
        <time>2024-08-11T05:59:34Z</time>
      </trkpt>
      <trkpt lat="44.98591" lon="6.39716">
        <ele>2213</ele>
        <time>2024-08-11T05:59:35Z</time>
      </trkpt>
      <trkpt lat="44.98589" lon="6.39719">
        <ele>2213</ele>
        <time>2024-08-11T05:59:36Z</time>
      </trkpt>
      <trkpt lat="44.98589" lon="6.39719">
        <ele>2213</ele>
        <time>2024-08-11T05:59:37Z</time>
      </trkpt>
      <trkpt lat="44.98589" lon="6.39719">
        <ele>2213.2</ele>
        <time>2024-08-11T05:59:38Z</time>
      </trkpt>
      <trkpt lat="44.98587" lon="6.39723">
        <ele>2213.4</ele>
        <time>2024-08-11T05:59:39Z</time>
      </trkpt>
      <trkpt lat="44.98586" lon="6.39724">
        <ele>2213.4</ele>
        <time>2024-08-11T05:59:40Z</time>
      </trkpt>
      <trkpt lat="44.98586" lon="6.39724">
        <ele>2213.4</ele>
        <time>2024-08-11T05:59:41Z</time>
      </trkpt>
      <trkpt lat="44.98584" lon="6.39726">
        <ele>2213.8</ele>
        <time>2024-08-11T05:59:42Z</time>
      </trkpt>
      <trkpt lat="44.98584" lon="6.39726">
        <ele>2213.8</ele>
        <time>2024-08-11T05:59:43Z</time>
      </trkpt>
      <trkpt lat="44.98584" lon="6.39726">
        <ele>2213.6</ele>
        <time>2024-08-11T05:59:44Z</time>
      </trkpt>
      <trkpt lat="44.98582" lon="6.39731">
        <ele>2213.6</ele>
        <time>2024-08-11T05:59:45Z</time>
      </trkpt>
      <trkpt lat="44.98581" lon="6.39732">
        <ele>2213.6</ele>
        <time>2024-08-11T05:59:46Z</time>
      </trkpt>
      <trkpt lat="44.98581" lon="6.39732">
        <ele>2214.4</ele>
        <time>2024-08-11T05:59:47Z</time>
      </trkpt>
      <trkpt lat="44.9858" lon="6.39735">
        <ele>2214.4</ele>
        <time>2024-08-11T05:59:48Z</time>
      </trkpt>
      <trkpt lat="44.9858" lon="6.39735">
        <ele>2214.4</ele>
        <time>2024-08-11T05:59:49Z</time>
      </trkpt>
      <trkpt lat="44.9858" lon="6.39735">
        <ele>2214.4</ele>
        <time>2024-08-11T05:59:50Z</time>
      </trkpt>
      <trkpt lat="44.98578" lon="6.39739">
        <ele>2214.4</ele>
        <time>2024-08-11T05:59:51Z</time>
      </trkpt>
      <trkpt lat="44.98576" lon="6.3974">
        <ele>2214.4</ele>
        <time>2024-08-11T05:59:52Z</time>
      </trkpt>
      <trkpt lat="44.98576" lon="6.3974">
        <ele>2214.4</ele>
        <time>2024-08-11T05:59:53Z</time>
      </trkpt>
      <trkpt lat="44.98574" lon="6.39742">
        <ele>2214.6</ele>
        <time>2024-08-11T05:59:54Z</time>
      </trkpt>
      <trkpt lat="44.98574" lon="6.39742">
        <ele>2214.8</ele>
        <time>2024-08-11T05:59:55Z</time>
      </trkpt>
      <trkpt lat="44.98573" lon="6.39744">
        <ele>2214.8</ele>
        <time>2024-08-11T05:59:56Z</time>
      </trkpt>
      <trkpt lat="44.98573" lon="6.39744">
        <ele>2214.8</ele>
        <time>2024-08-11T05:59:57Z</time>
      </trkpt>
      <trkpt lat="44.98572" lon="6.39747">
        <ele>2214.8</ele>
        <time>2024-08-11T05:59:58Z</time>
      </trkpt>
      <trkpt lat="44.98572" lon="6.39747">
        <ele>2215.2</ele>
        <time>2024-08-11T05:59:59Z</time>
      </trkpt>
      <trkpt lat="44.98572" lon="6.39747">
        <ele>2215.4</ele>
        <time>2024-08-11T06:00:00Z</time>
      </trkpt>
      <trkpt lat="44.98572" lon="6.39751">
        <ele>2215.6</ele>
        <time>2024-08-11T06:00:01Z</time>
      </trkpt>
      <trkpt lat="44.98572" lon="6.39751">
        <ele>2216</ele>
        <time>2024-08-11T06:00:02Z</time>
      </trkpt>
      <trkpt lat="44.98571" lon="6.39754">
        <ele>2216</ele>
        <time>2024-08-11T06:00:03Z</time>
      </trkpt>
      <trkpt lat="44.98571" lon="6.39754">
        <ele>2216.2</ele>
        <time>2024-08-11T06:00:04Z</time>
      </trkpt>
      <trkpt lat="44.98571" lon="6.39754">
        <ele>2216.2</ele>
        <time>2024-08-11T06:00:05Z</time>
      </trkpt>
      <trkpt lat="44.98568" lon="6.39758">
        <ele>2216.2</ele>
        <time>2024-08-11T06:00:06Z</time>
      </trkpt>
      <trkpt lat="44.98568" lon="6.39759">
        <ele>2216.2</ele>
        <time>2024-08-11T06:00:07Z</time>
      </trkpt>
      <trkpt lat="44.98568" lon="6.39759">
        <ele>2216.4</ele>
        <time>2024-08-11T06:00:08Z</time>
      </trkpt>
      <trkpt lat="44.98566" lon="6.39761">
        <ele>2216.8</ele>
        <time>2024-08-11T06:00:09Z</time>
      </trkpt>
      <trkpt lat="44.98566" lon="6.39761">
        <ele>2216.8</ele>
        <time>2024-08-11T06:00:10Z</time>
      </trkpt>
      <trkpt lat="44.98563" lon="6.39762">
        <ele>2216.8</ele>
        <time>2024-08-11T06:00:11Z</time>
      </trkpt>
      <trkpt lat="44.98563" lon="6.39762">
        <ele>2216.8</ele>
        <time>2024-08-11T06:00:12Z</time>
      </trkpt>
      <trkpt lat="44.98561" lon="6.39764">
        <ele>2217</ele>
        <time>2024-08-11T06:00:13Z</time>
      </trkpt>
      <trkpt lat="44.98561" lon="6.39764">
        <ele>2217</ele>
        <time>2024-08-11T06:00:14Z</time>
      </trkpt>
      <trkpt lat="44.98559" lon="6.39766">
        <ele>2217</ele>
        <time>2024-08-11T06:00:15Z</time>
      </trkpt>
      <trkpt lat="44.98559" lon="6.39766">
        <ele>2217.2</ele>
        <time>2024-08-11T06:00:16Z</time>
      </trkpt>
      <trkpt lat="44.98559" lon="6.39766">
        <ele>2217.2</ele>
        <time>2024-08-11T06:00:17Z</time>
      </trkpt>
      <trkpt lat="44.98556" lon="6.39769">
        <ele>2217.2</ele>
        <time>2024-08-11T06:00:18Z</time>
      </trkpt>
      <trkpt lat="44.98555" lon="6.3977">
        <ele>2217.6</ele>
        <time>2024-08-11T06:00:19Z</time>
      </trkpt>
      <trkpt lat="44.98555" lon="6.3977">
        <ele>2217.6</ele>
        <time>2024-08-11T06:00:20Z</time>
      </trkpt>
      <trkpt lat="44.98553" lon="6.39772">
        <ele>2217.4</ele>
        <time>2024-08-11T06:00:21Z</time>
      </trkpt>
      <trkpt lat="44.98553" lon="6.39772">
        <ele>2217.4</ele>
        <time>2024-08-11T06:00:22Z</time>
      </trkpt>
      <trkpt lat="44.98553" lon="6.39772">
        <ele>2217.6</ele>
        <time>2024-08-11T06:00:23Z</time>
      </trkpt>
      <trkpt lat="44.98549" lon="6.39774">
        <ele>2217.6</ele>
        <time>2024-08-11T06:00:24Z</time>
      </trkpt>
      <trkpt lat="44.98549" lon="6.39775">
        <ele>2217.8</ele>
        <time>2024-08-11T06:00:25Z</time>
      </trkpt>
      <trkpt lat="44.98549" lon="6.39775">
        <ele>2217.8</ele>
        <time>2024-08-11T06:00:26Z</time>
      </trkpt>
      <trkpt lat="44.98546" lon="6.39777">
        <ele>2217.8</ele>
        <time>2024-08-11T06:00:27Z</time>
      </trkpt>
      <trkpt lat="44.98546" lon="6.39777">
        <ele>2217.8</ele>
        <time>2024-08-11T06:00:28Z</time>
      </trkpt>
      <trkpt lat="44.98546" lon="6.39777">
        <ele>2217.8</ele>
        <time>2024-08-11T06:00:29Z</time>
      </trkpt>
      <trkpt lat="44.98543" lon="6.3978">
        <ele>2218</ele>
        <time>2024-08-11T06:00:30Z</time>
      </trkpt>
      <trkpt lat="44.98542" lon="6.3978">
        <ele>2218.2</ele>
        <time>2024-08-11T06:00:31Z</time>
      </trkpt>
      <trkpt lat="44.98542" lon="6.3978">
        <ele>2218.2</ele>
        <time>2024-08-11T06:00:32Z</time>
      </trkpt>
      <trkpt lat="44.9854" lon="6.39783">
        <ele>2218.2</ele>
        <time>2024-08-11T06:00:33Z</time>
      </trkpt>
      <trkpt lat="44.9854" lon="6.39783">
        <ele>2218.6</ele>
        <time>2024-08-11T06:00:34Z</time>
      </trkpt>
      <trkpt lat="44.9854" lon="6.39783">
        <ele>2218.8</ele>
        <time>2024-08-11T06:00:35Z</time>
      </trkpt>
      <trkpt lat="44.98537" lon="6.39786">
        <ele>2218.8</ele>
        <time>2024-08-11T06:00:36Z</time>
      </trkpt>
      <trkpt lat="44.98536" lon="6.39787">
        <ele>2219</ele>
        <time>2024-08-11T06:00:37Z</time>
      </trkpt>
      <trkpt lat="44.98536" lon="6.39787">
        <ele>2219</ele>
        <time>2024-08-11T06:00:38Z</time>
      </trkpt>
      <trkpt lat="44.98533" lon="6.39789">
        <ele>2219.2</ele>
        <time>2024-08-11T06:00:39Z</time>
      </trkpt>
      <trkpt lat="44.98533" lon="6.39789">
        <ele>2219.2</ele>
        <time>2024-08-11T06:00:40Z</time>
      </trkpt>
      <trkpt lat="44.98532" lon="6.39792">
        <ele>2219.2</ele>
        <time>2024-08-11T06:00:41Z</time>
      </trkpt>
      <trkpt lat="44.98532" lon="6.39792">
        <ele>2219.4</ele>
        <time>2024-08-11T06:00:42Z</time>
      </trkpt>
      <trkpt lat="44.9853" lon="6.39794">
        <ele>2219.6</ele>
        <time>2024-08-11T06:00:43Z</time>
      </trkpt>
      <trkpt lat="44.9853" lon="6.39794">
        <ele>2219.6</ele>
        <time>2024-08-11T06:00:44Z</time>
      </trkpt>
      <trkpt lat="44.98528" lon="6.39796">
        <ele>2219.6</ele>
        <time>2024-08-11T06:00:45Z</time>
      </trkpt>
      <trkpt lat="44.98528" lon="6.39796">
        <ele>2219.6</ele>
        <time>2024-08-11T06:00:46Z</time>
      </trkpt>
      <trkpt lat="44.98528" lon="6.39796">
        <ele>2220.2</ele>
        <time>2024-08-11T06:00:47Z</time>
      </trkpt>
      <trkpt lat="44.98526" lon="6.39799">
        <ele>2220.4</ele>
        <time>2024-08-11T06:00:48Z</time>
      </trkpt>
      <trkpt lat="44.98525" lon="6.398">
        <ele>2220.4</ele>
        <time>2024-08-11T06:00:49Z</time>
      </trkpt>
      <trkpt lat="44.98525" lon="6.398">
        <ele>2220.6</ele>
        <time>2024-08-11T06:00:50Z</time>
      </trkpt>
      <trkpt lat="44.98523" lon="6.39802">
        <ele>2220.6</ele>
        <time>2024-08-11T06:00:51Z</time>
      </trkpt>
      <trkpt lat="44.98523" lon="6.39802">
        <ele>2220.6</ele>
        <time>2024-08-11T06:00:52Z</time>
      </trkpt>
      <trkpt lat="44.98521" lon="6.39805">
        <ele>2220.8</ele>
        <time>2024-08-11T06:00:53Z</time>
      </trkpt>
      <trkpt lat="44.98521" lon="6.39805">
        <ele>2221.2</ele>
        <time>2024-08-11T06:00:54Z</time>
      </trkpt>
      <trkpt lat="44.98519" lon="6.39807">
        <ele>2221.4</ele>
        <time>2024-08-11T06:00:55Z</time>
      </trkpt>
      <trkpt lat="44.98519" lon="6.39807">
        <ele>2221.4</ele>
        <time>2024-08-11T06:00:56Z</time>
      </trkpt>
      <trkpt lat="44.98518" lon="6.39809">
        <ele>2221.6</ele>
        <time>2024-08-11T06:00:57Z</time>
      </trkpt>
      <trkpt lat="44.98518" lon="6.39809">
        <ele>2221.6</ele>
        <time>2024-08-11T06:00:58Z</time>
      </trkpt>
      <trkpt lat="44.98518" lon="6.39809">
        <ele>2221.6</ele>
        <time>2024-08-11T06:00:59Z</time>
      </trkpt>
      <trkpt lat="44.98515" lon="6.39813">
        <ele>2221.8</ele>
        <time>2024-08-11T06:01:00Z</time>
      </trkpt>
      <trkpt lat="44.98514" lon="6.39814">
        <ele>2221.8</ele>
        <time>2024-08-11T06:01:01Z</time>
      </trkpt>
      <trkpt lat="44.98514" lon="6.39814">
        <ele>2221.8</ele>
        <time>2024-08-11T06:01:02Z</time>
      </trkpt>
      <trkpt lat="44.98513" lon="6.39817">
        <ele>2221.8</ele>
        <time>2024-08-11T06:01:03Z</time>
      </trkpt>
      <trkpt lat="44.98513" lon="6.39817">
        <ele>2221.8</ele>
        <time>2024-08-11T06:01:04Z</time>
      </trkpt>
      <trkpt lat="44.98513" lon="6.39817">
        <ele>2221.8</ele>
        <time>2024-08-11T06:01:05Z</time>
      </trkpt>
      <trkpt lat="44.98511" lon="6.39821">
        <ele>2222.2</ele>
        <time>2024-08-11T06:01:06Z</time>
      </trkpt>
      <trkpt lat="44.9851" lon="6.39822">
        <ele>2222.2</ele>
        <time>2024-08-11T06:01:07Z</time>
      </trkpt>
      <trkpt lat="44.9851" lon="6.39822">
        <ele>2222.2</ele>
        <time>2024-08-11T06:01:08Z</time>
      </trkpt>
      <trkpt lat="44.98509" lon="6.39825">
        <ele>2222.2</ele>
        <time>2024-08-11T06:01:09Z</time>
      </trkpt>
      <trkpt lat="44.98509" lon="6.39825">
        <ele>2222</ele>
        <time>2024-08-11T06:01:10Z</time>
      </trkpt>
      <trkpt lat="44.98508" lon="6.39829">
        <ele>2222</ele>
        <time>2024-08-11T06:01:11Z</time>
      </trkpt>
      <trkpt lat="44.98508" lon="6.39829">
        <ele>2222.2</ele>
        <time>2024-08-11T06:01:12Z</time>
      </trkpt>
      <trkpt lat="44.98506" lon="6.39831">
        <ele>2222.2</ele>
        <time>2024-08-11T06:01:13Z</time>
      </trkpt>
      <trkpt lat="44.98506" lon="6.39831">
        <ele>2222.4</ele>
        <time>2024-08-11T06:01:14Z</time>
      </trkpt>
      <trkpt lat="44.98505" lon="6.39835">
        <ele>2222.4</ele>
        <time>2024-08-11T06:01:15Z</time>
      </trkpt>
      <trkpt lat="44.98505" lon="6.39835">
        <ele>2222.6</ele>
        <time>2024-08-11T06:01:16Z</time>
      </trkpt>
      <trkpt lat="44.98504" lon="6.39837">
        <ele>2222.8</ele>
        <time>2024-08-11T06:01:17Z</time>
      </trkpt>
      <trkpt lat="44.98504" lon="6.39837">
        <ele>2222.8</ele>
        <time>2024-08-11T06:01:18Z</time>
      </trkpt>
      <trkpt lat="44.98503" lon="6.3984">
        <ele>2222.8</ele>
        <time>2024-08-11T06:01:19Z</time>
      </trkpt>
      <trkpt lat="44.98503" lon="6.3984">
        <ele>2222.8</ele>
        <time>2024-08-11T06:01:20Z</time>
      </trkpt>
      <trkpt lat="44.98501" lon="6.39843">
        <ele>2222.8</ele>
        <time>2024-08-11T06:01:21Z</time>
      </trkpt>
      <trkpt lat="44.98501" lon="6.39843">
        <ele>2223</ele>
        <time>2024-08-11T06:01:22Z</time>
      </trkpt>
      <trkpt lat="44.98501" lon="6.39843">
        <ele>2223.2</ele>
        <time>2024-08-11T06:01:23Z</time>
      </trkpt>
      <trkpt lat="44.98499" lon="6.39848">
        <ele>2223</ele>
        <time>2024-08-11T06:01:24Z</time>
      </trkpt>
      <trkpt lat="44.98498" lon="6.39849">
        <ele>2223.2</ele>
        <time>2024-08-11T06:01:25Z</time>
      </trkpt>
      <trkpt lat="44.98498" lon="6.39849">
        <ele>2223.2</ele>
        <time>2024-08-11T06:01:26Z</time>
      </trkpt>
      <trkpt lat="44.98496" lon="6.39852">
        <ele>2223.2</ele>
        <time>2024-08-11T06:01:27Z</time>
      </trkpt>
      <trkpt lat="44.98496" lon="6.39852">
        <ele>2223.4</ele>
        <time>2024-08-11T06:01:28Z</time>
      </trkpt>
      <trkpt lat="44.98496" lon="6.39852">
        <ele>2223.4</ele>
        <time>2024-08-11T06:01:29Z</time>
      </trkpt>
      <trkpt lat="44.98494" lon="6.39856">
        <ele>2223.4</ele>
        <time>2024-08-11T06:01:30Z</time>
      </trkpt>
      <trkpt lat="44.98493" lon="6.39858">
        <ele>2223.6</ele>
        <time>2024-08-11T06:01:31Z</time>
      </trkpt>
      <trkpt lat="44.98493" lon="6.39858">
        <ele>2223.8</ele>
        <time>2024-08-11T06:01:32Z</time>
      </trkpt>
      <trkpt lat="44.98492" lon="6.39861">
        <ele>2223.8</ele>
        <time>2024-08-11T06:01:33Z</time>
      </trkpt>
      <trkpt lat="44.98492" lon="6.39861">
        <ele>2223.8</ele>
        <time>2024-08-11T06:01:34Z</time>
      </trkpt>
      <trkpt lat="44.98491" lon="6.39863">
        <ele>2223.8</ele>
        <time>2024-08-11T06:01:35Z</time>
      </trkpt>
      <trkpt lat="44.98491" lon="6.39863">
        <ele>2223.8</ele>
        <time>2024-08-11T06:01:36Z</time>
      </trkpt>
      <trkpt lat="44.98489" lon="6.39866">
        <ele>2223.8</ele>
        <time>2024-08-11T06:01:37Z</time>
      </trkpt>
      <trkpt lat="44.98489" lon="6.39866">
        <ele>2224</ele>
        <time>2024-08-11T06:01:38Z</time>
      </trkpt>
      <trkpt lat="44.98487" lon="6.39869">
        <ele>2224</ele>
        <time>2024-08-11T06:01:39Z</time>
      </trkpt>
      <trkpt lat="44.98487" lon="6.39869">
        <ele>2224.2</ele>
        <time>2024-08-11T06:01:40Z</time>
      </trkpt>
      <trkpt lat="44.98487" lon="6.39869">
        <ele>2224.8</ele>
        <time>2024-08-11T06:01:41Z</time>
      </trkpt>
      <trkpt lat="44.98485" lon="6.39873">
        <ele>2224.8</ele>
        <time>2024-08-11T06:01:42Z</time>
      </trkpt>
      <trkpt lat="44.98484" lon="6.39874">
        <ele>2224.8</ele>
        <time>2024-08-11T06:01:43Z</time>
      </trkpt>
      <trkpt lat="44.98484" lon="6.39874">
        <ele>2224.8</ele>
        <time>2024-08-11T06:01:44Z</time>
      </trkpt>
      <trkpt lat="44.98483" lon="6.39877">
        <ele>2225</ele>
        <time>2024-08-11T06:01:45Z</time>
      </trkpt>
      <trkpt lat="44.98483" lon="6.39877">
        <ele>2225</ele>
        <time>2024-08-11T06:01:46Z</time>
      </trkpt>
      <trkpt lat="44.98481" lon="6.3988">
        <ele>2225</ele>
        <time>2024-08-11T06:01:47Z</time>
      </trkpt>
      <trkpt lat="44.98481" lon="6.3988">
        <ele>2225</ele>
        <time>2024-08-11T06:01:48Z</time>
      </trkpt>
      <trkpt lat="44.98481" lon="6.39883">
        <ele>2225</ele>
        <time>2024-08-11T06:01:49Z</time>
      </trkpt>
      <trkpt lat="44.98481" lon="6.39883">
        <ele>2225</ele>
        <time>2024-08-11T06:01:50Z</time>
      </trkpt>
      <trkpt lat="44.98479" lon="6.39886">
        <ele>2225</ele>
        <time>2024-08-11T06:01:51Z</time>
      </trkpt>
      <trkpt lat="44.98479" lon="6.39886">
        <ele>2225.6</ele>
        <time>2024-08-11T06:01:52Z</time>
      </trkpt>
      <trkpt lat="44.98479" lon="6.39886">
        <ele>2225.8</ele>
        <time>2024-08-11T06:01:53Z</time>
      </trkpt>
      <trkpt lat="44.98477" lon="6.39891">
        <ele>2225.8</ele>
        <time>2024-08-11T06:01:54Z</time>
      </trkpt>
      <trkpt lat="44.98477" lon="6.39892">
        <ele>2225.8</ele>
        <time>2024-08-11T06:01:55Z</time>
      </trkpt>
      <trkpt lat="44.98477" lon="6.39892">
        <ele>2225.8</ele>
        <time>2024-08-11T06:01:56Z</time>
      </trkpt>
      <trkpt lat="44.98475" lon="6.39894">
        <ele>2225.6</ele>
        <time>2024-08-11T06:01:57Z</time>
      </trkpt>
      <trkpt lat="44.98475" lon="6.39894">
        <ele>2225.4</ele>
        <time>2024-08-11T06:01:58Z</time>
      </trkpt>
      <trkpt lat="44.98474" lon="6.39897">
        <ele>2225.4</ele>
        <time>2024-08-11T06:01:59Z</time>
      </trkpt>
      <trkpt lat="44.98474" lon="6.39897">
        <ele>2225.8</ele>
        <time>2024-08-11T06:02:00Z</time>
      </trkpt>
      <trkpt lat="44.98472" lon="6.399">
        <ele>2226.2</ele>
        <time>2024-08-11T06:02:01Z</time>
      </trkpt>
      <trkpt lat="44.98472" lon="6.399">
        <ele>2226.4</ele>
        <time>2024-08-11T06:02:02Z</time>
      </trkpt>
      <trkpt lat="44.98471" lon="6.39902">
        <ele>2226.4</ele>
        <time>2024-08-11T06:02:03Z</time>
      </trkpt>
      <trkpt lat="44.98471" lon="6.39902">
        <ele>2226.4</ele>
        <time>2024-08-11T06:02:04Z</time>
      </trkpt>
      <trkpt lat="44.98469" lon="6.39905">
        <ele>2226.6</ele>
        <time>2024-08-11T06:02:05Z</time>
      </trkpt>
      <trkpt lat="44.98469" lon="6.39905">
        <ele>2226.6</ele>
        <time>2024-08-11T06:02:06Z</time>
      </trkpt>
      <trkpt lat="44.98469" lon="6.39905">
        <ele>2226.6</ele>
        <time>2024-08-11T06:02:07Z</time>
      </trkpt>
      <trkpt lat="44.98469" lon="6.39908">
        <ele>2226.6</ele>
        <time>2024-08-11T06:02:08Z</time>
      </trkpt>
      <trkpt lat="44.98469" lon="6.39908">
        <ele>2226.8</ele>
        <time>2024-08-11T06:02:09Z</time>
      </trkpt>
      <trkpt lat="44.98469" lon="6.39908">
        <ele>2226.8</ele>
        <time>2024-08-11T06:02:10Z</time>
      </trkpt>
      <trkpt lat="44.98467" lon="6.39911">
        <ele>2227.2</ele>
        <time>2024-08-11T06:02:11Z</time>
      </trkpt>
      <trkpt lat="44.98465" lon="6.39912">
        <ele>2227.2</ele>
        <time>2024-08-11T06:02:12Z</time>
      </trkpt>
      <trkpt lat="44.98465" lon="6.39912">
        <ele>2227.2</ele>
        <time>2024-08-11T06:02:13Z</time>
      </trkpt>
      <trkpt lat="44.98463" lon="6.39914">
        <ele>2227.4</ele>
        <time>2024-08-11T06:02:14Z</time>
      </trkpt>
      <trkpt lat="44.98463" lon="6.39914">
        <ele>2227.4</ele>
        <time>2024-08-11T06:02:15Z</time>
      </trkpt>
      <trkpt lat="44.98461" lon="6.39916">
        <ele>2227.4</ele>
        <time>2024-08-11T06:02:16Z</time>
      </trkpt>
      <trkpt lat="44.98461" lon="6.39916">
        <ele>2227.4</ele>
        <time>2024-08-11T06:02:17Z</time>
      </trkpt>
      <trkpt lat="44.98461" lon="6.39916">
        <ele>2227.4</ele>
        <time>2024-08-11T06:02:18Z</time>
      </trkpt>
      <trkpt lat="44.98459" lon="6.39919">
        <ele>2227.4</ele>
        <time>2024-08-11T06:02:19Z</time>
      </trkpt>
      <trkpt lat="44.98458" lon="6.3992">
        <ele>2227.4</ele>
        <time>2024-08-11T06:02:20Z</time>
      </trkpt>
      <trkpt lat="44.98458" lon="6.3992">
        <ele>2227.4</ele>
        <time>2024-08-11T06:02:21Z</time>
      </trkpt>
      <trkpt lat="44.98457" lon="6.39922">
        <ele>2227.4</ele>
        <time>2024-08-11T06:02:22Z</time>
      </trkpt>
      <trkpt lat="44.98457" lon="6.39922">
        <ele>2227.4</ele>
        <time>2024-08-11T06:02:23Z</time>
      </trkpt>
      <trkpt lat="44.98457" lon="6.39922">
        <ele>2227.4</ele>
        <time>2024-08-11T06:02:24Z</time>
      </trkpt>
      <trkpt lat="44.98454" lon="6.39924">
        <ele>2227.4</ele>
        <time>2024-08-11T06:02:25Z</time>
      </trkpt>
      <trkpt lat="44.98454" lon="6.39924">
        <ele>2227.4</ele>
        <time>2024-08-11T06:02:26Z</time>
      </trkpt>
      <trkpt lat="44.98454" lon="6.39924">
        <ele>2227.6</ele>
        <time>2024-08-11T06:02:27Z</time>
      </trkpt>
      <trkpt lat="44.98451" lon="6.39925">
        <ele>2227.6</ele>
        <time>2024-08-11T06:02:28Z</time>
      </trkpt>
      <trkpt lat="44.98449" lon="6.39925">
        <ele>2227.8</ele>
        <time>2024-08-11T06:02:29Z</time>
      </trkpt>
      <trkpt lat="44.98449" lon="6.39925">
        <ele>2227.8</ele>
        <time>2024-08-11T06:02:30Z</time>
      </trkpt>
      <trkpt lat="44.98449" lon="6.39925">
        <ele>2227.4</ele>
        <time>2024-08-11T06:02:31Z</time>
      </trkpt>
      <trkpt lat="44.98448" lon="6.39928">
        <ele>2227.6</ele>
        <time>2024-08-11T06:02:32Z</time>
      </trkpt>
      <trkpt lat="44.98448" lon="6.39928">
        <ele>2228</ele>
        <time>2024-08-11T06:02:33Z</time>
      </trkpt>
      <trkpt lat="44.98447" lon="6.39931">
        <ele>2228.2</ele>
        <time>2024-08-11T06:02:34Z</time>
      </trkpt>
      <trkpt lat="44.98447" lon="6.39931">
        <ele>2228.2</ele>
        <time>2024-08-11T06:02:35Z</time>
      </trkpt>
      <trkpt lat="44.98447" lon="6.39931">
        <ele>2228.6</ele>
        <time>2024-08-11T06:02:36Z</time>
      </trkpt>
      <trkpt lat="44.98447" lon="6.39935">
        <ele>2228.6</ele>
        <time>2024-08-11T06:02:37Z</time>
      </trkpt>
      <trkpt lat="44.98447" lon="6.39937">
        <ele>2228.8</ele>
        <time>2024-08-11T06:02:38Z</time>
      </trkpt>
      <trkpt lat="44.98447" lon="6.39937">
        <ele>2228.8</ele>
        <time>2024-08-11T06:02:39Z</time>
      </trkpt>
      <trkpt lat="44.98446" lon="6.39939">
        <ele>2228.8</ele>
        <time>2024-08-11T06:02:40Z</time>
      </trkpt>
      <trkpt lat="44.98446" lon="6.39939">
        <ele>2228.8</ele>
        <time>2024-08-11T06:02:41Z</time>
      </trkpt>
      <trkpt lat="44.98446" lon="6.39939">
        <ele>2228.8</ele>
        <time>2024-08-11T06:02:42Z</time>
      </trkpt>
      <trkpt lat="44.98444" lon="6.39942">
        <ele>2229</ele>
        <time>2024-08-11T06:02:43Z</time>
      </trkpt>
      <trkpt lat="44.98443" lon="6.39943">
        <ele>2229.2</ele>
        <time>2024-08-11T06:02:44Z</time>
      </trkpt>
      <trkpt lat="44.98443" lon="6.39943">
        <ele>2229.4</ele>
        <time>2024-08-11T06:02:45Z</time>
      </trkpt>
      <trkpt lat="44.98443" lon="6.39947">
        <ele>2229.4</ele>
        <time>2024-08-11T06:02:46Z</time>
      </trkpt>
      <trkpt lat="44.98443" lon="6.39947">
        <ele>2229.4</ele>
        <time>2024-08-11T06:02:47Z</time>
      </trkpt>
      <trkpt lat="44.98443" lon="6.39949">
        <ele>2229.4</ele>
        <time>2024-08-11T06:02:48Z</time>
      </trkpt>
      <trkpt lat="44.98443" lon="6.39949">
        <ele>2229.6</ele>
        <time>2024-08-11T06:02:49Z</time>
      </trkpt>
      <trkpt lat="44.98442" lon="6.39952">
        <ele>2229.8</ele>
        <time>2024-08-11T06:02:50Z</time>
      </trkpt>
      <trkpt lat="44.98442" lon="6.39952">
        <ele>2229.8</ele>
        <time>2024-08-11T06:02:51Z</time>
      </trkpt>
      <trkpt lat="44.98441" lon="6.39954">
        <ele>2229.8</ele>
        <time>2024-08-11T06:02:52Z</time>
      </trkpt>
      <trkpt lat="44.98441" lon="6.39954">
        <ele>2229.8</ele>
        <time>2024-08-11T06:02:53Z</time>
      </trkpt>
      <trkpt lat="44.98441" lon="6.39954">
        <ele>2229.8</ele>
        <time>2024-08-11T06:02:54Z</time>
      </trkpt>
      <trkpt lat="44.98439" lon="6.39958">
        <ele>2229.8</ele>
        <time>2024-08-11T06:02:55Z</time>
      </trkpt>
      <trkpt lat="44.98439" lon="6.3996">
        <ele>2229.8</ele>
        <time>2024-08-11T06:02:56Z</time>
      </trkpt>
      <trkpt lat="44.98439" lon="6.3996">
        <ele>2230.2</ele>
        <time>2024-08-11T06:02:57Z</time>
      </trkpt>
      <trkpt lat="44.98438" lon="6.39962">
        <ele>2230.2</ele>
        <time>2024-08-11T06:02:58Z</time>
      </trkpt>
      <trkpt lat="44.98438" lon="6.39962">
        <ele>2230.2</ele>
        <time>2024-08-11T06:02:59Z</time>
      </trkpt>
      <trkpt lat="44.98437" lon="6.39965">
        <ele>2230.2</ele>
        <time>2024-08-11T06:03:00Z</time>
      </trkpt>
      <trkpt lat="44.98437" lon="6.39965">
        <ele>2230.6</ele>
        <time>2024-08-11T06:03:01Z</time>
      </trkpt>
      <trkpt lat="44.98437" lon="6.39969">
        <ele>2230.6</ele>
        <time>2024-08-11T06:03:02Z</time>
      </trkpt>
      <trkpt lat="44.98437" lon="6.39969">
        <ele>2230.6</ele>
        <time>2024-08-11T06:03:03Z</time>
      </trkpt>
      <trkpt lat="44.98437" lon="6.39972">
        <ele>2230.6</ele>
        <time>2024-08-11T06:03:04Z</time>
      </trkpt>
      <trkpt lat="44.98437" lon="6.39972">
        <ele>2230.6</ele>
        <time>2024-08-11T06:03:05Z</time>
      </trkpt>
      <trkpt lat="44.98436" lon="6.39974">
        <ele>2230.6</ele>
        <time>2024-08-11T06:03:06Z</time>
      </trkpt>
      <trkpt lat="44.98436" lon="6.39974">
        <ele>2230.8</ele>
        <time>2024-08-11T06:03:07Z</time>
      </trkpt>
      <trkpt lat="44.98435" lon="6.39977">
        <ele>2230.8</ele>
        <time>2024-08-11T06:03:08Z</time>
      </trkpt>
      <trkpt lat="44.98435" lon="6.39977">
        <ele>2230.8</ele>
        <time>2024-08-11T06:03:09Z</time>
      </trkpt>
      <trkpt lat="44.98434" lon="6.39979">
        <ele>2231.2</ele>
        <time>2024-08-11T06:03:10Z</time>
      </trkpt>
      <trkpt lat="44.98434" lon="6.39979">
        <ele>2231.4</ele>
        <time>2024-08-11T06:03:11Z</time>
      </trkpt>
      <trkpt lat="44.98433" lon="6.39982">
        <ele>2231.4</ele>
        <time>2024-08-11T06:03:12Z</time>
      </trkpt>
      <trkpt lat="44.98433" lon="6.39982">
        <ele>2231.4</ele>
        <time>2024-08-11T06:03:13Z</time>
      </trkpt>
      <trkpt lat="44.98433" lon="6.39982">
        <ele>2231.4</ele>
        <time>2024-08-11T06:03:14Z</time>
      </trkpt>
      <trkpt lat="44.98431" lon="6.39987">
        <ele>2231.4</ele>
        <time>2024-08-11T06:03:15Z</time>
      </trkpt>
      <trkpt lat="44.98431" lon="6.39988">
        <ele>2231.2</ele>
        <time>2024-08-11T06:03:16Z</time>
      </trkpt>
      <trkpt lat="44.98431" lon="6.39988">
        <ele>2231.2</ele>
        <time>2024-08-11T06:03:17Z</time>
      </trkpt>
      <trkpt lat="44.98431" lon="6.39988">
        <ele>2231</ele>
        <time>2024-08-11T06:03:18Z</time>
      </trkpt>
      <trkpt lat="44.98429" lon="6.39989">
        <ele>2231</ele>
        <time>2024-08-11T06:03:19Z</time>
      </trkpt>
      <trkpt lat="44.98429" lon="6.39989">
        <ele>2231</ele>
        <time>2024-08-11T06:03:20Z</time>
      </trkpt>
      <trkpt lat="44.98429" lon="6.39989">
        <ele>2231</ele>
        <time>2024-08-11T06:03:21Z</time>
      </trkpt>
      <trkpt lat="44.98426" lon="6.39991">
        <ele>2231.2</ele>
        <time>2024-08-11T06:03:22Z</time>
      </trkpt>
      <trkpt lat="44.98426" lon="6.39991">
        <ele>2231.2</ele>
        <time>2024-08-11T06:03:23Z</time>
      </trkpt>
      <trkpt lat="44.98424" lon="6.39993">
        <ele>2231</ele>
        <time>2024-08-11T06:03:24Z</time>
      </trkpt>
      <trkpt lat="44.98424" lon="6.39993">
        <ele>2231</ele>
        <time>2024-08-11T06:03:25Z</time>
      </trkpt>
      <trkpt lat="44.98424" lon="6.39993">
        <ele>2231.2</ele>
        <time>2024-08-11T06:03:26Z</time>
      </trkpt>
      <trkpt lat="44.98422" lon="6.39997">
        <ele>2231.2</ele>
        <time>2024-08-11T06:03:27Z</time>
      </trkpt>
      <trkpt lat="44.98422" lon="6.39999">
        <ele>2231.2</ele>
        <time>2024-08-11T06:03:28Z</time>
      </trkpt>
      <trkpt lat="44.98422" lon="6.39999">
        <ele>2231.2</ele>
        <time>2024-08-11T06:03:29Z</time>
      </trkpt>
      <trkpt lat="44.98421" lon="6.40002">
        <ele>2231.4</ele>
        <time>2024-08-11T06:03:30Z</time>
      </trkpt>
      <trkpt lat="44.98421" lon="6.40002">
        <ele>2231.4</ele>
        <time>2024-08-11T06:03:31Z</time>
      </trkpt>
      <trkpt lat="44.98421" lon="6.40006">
        <ele>2231.4</ele>
        <time>2024-08-11T06:03:32Z</time>
      </trkpt>
      <trkpt lat="44.98421" lon="6.40006">
        <ele>2231.6</ele>
        <time>2024-08-11T06:03:33Z</time>
      </trkpt>
      <trkpt lat="44.98421" lon="6.40006">
        <ele>2231.8</ele>
        <time>2024-08-11T06:03:34Z</time>
      </trkpt>
      <trkpt lat="44.9842" lon="6.40009">
        <ele>2231.8</ele>
        <time>2024-08-11T06:03:35Z</time>
      </trkpt>
      <trkpt lat="44.9842" lon="6.40009">
        <ele>2232</ele>
        <time>2024-08-11T06:03:36Z</time>
      </trkpt>
      <trkpt lat="44.9842" lon="6.40009">
        <ele>2232.2</ele>
        <time>2024-08-11T06:03:37Z</time>
      </trkpt>
      <trkpt lat="44.98418" lon="6.40012">
        <ele>2232.4</ele>
        <time>2024-08-11T06:03:38Z</time>
      </trkpt>
      <trkpt lat="44.98417" lon="6.40013">
        <ele>2233</ele>
        <time>2024-08-11T06:03:39Z</time>
      </trkpt>
      <trkpt lat="44.98417" lon="6.40013">
        <ele>2233</ele>
        <time>2024-08-11T06:03:40Z</time>
      </trkpt>
      <trkpt lat="44.98416" lon="6.40015">
        <ele>2233</ele>
        <time>2024-08-11T06:03:41Z</time>
      </trkpt>
      <trkpt lat="44.98416" lon="6.40015">
        <ele>2233.2</ele>
        <time>2024-08-11T06:03:42Z</time>
      </trkpt>
      <trkpt lat="44.98414" lon="6.40017">
        <ele>2233.4</ele>
        <time>2024-08-11T06:03:43Z</time>
      </trkpt>
      <trkpt lat="44.98414" lon="6.40017">
        <ele>2233.4</ele>
        <time>2024-08-11T06:03:44Z</time>
      </trkpt>
      <trkpt lat="44.98414" lon="6.40017">
        <ele>2233.6</ele>
        <time>2024-08-11T06:03:45Z</time>
      </trkpt>
      <trkpt lat="44.98413" lon="6.40021">
        <ele>2233.8</ele>
        <time>2024-08-11T06:03:46Z</time>
      </trkpt>
      <trkpt lat="44.98413" lon="6.40021">
        <ele>2233.8</ele>
        <time>2024-08-11T06:03:47Z</time>
      </trkpt>
      <trkpt lat="44.98413" lon="6.40021">
        <ele>2234</ele>
        <time>2024-08-11T06:03:48Z</time>
      </trkpt>
      <trkpt lat="44.98412" lon="6.40025">
        <ele>2234</ele>
        <time>2024-08-11T06:03:49Z</time>
      </trkpt>
      <trkpt lat="44.98412" lon="6.40027">
        <ele>2234</ele>
        <time>2024-08-11T06:03:50Z</time>
      </trkpt>
      <trkpt lat="44.98412" lon="6.40027">
        <ele>2234</ele>
        <time>2024-08-11T06:03:51Z</time>
      </trkpt>
      <trkpt lat="44.98411" lon="6.4003">
        <ele>2234.2</ele>
        <time>2024-08-11T06:03:52Z</time>
      </trkpt>
      <trkpt lat="44.98411" lon="6.4003">
        <ele>2234.4</ele>
        <time>2024-08-11T06:03:53Z</time>
      </trkpt>
      <trkpt lat="44.98411" lon="6.4003">
        <ele>2234.4</ele>
        <time>2024-08-11T06:03:54Z</time>
      </trkpt>
      <trkpt lat="44.98409" lon="6.40034">
        <ele>2234.2</ele>
        <time>2024-08-11T06:03:55Z</time>
      </trkpt>
      <trkpt lat="44.98408" lon="6.40035">
        <ele>2234.2</ele>
        <time>2024-08-11T06:03:56Z</time>
      </trkpt>
      <trkpt lat="44.98408" lon="6.40035">
        <ele>2234.4</ele>
        <time>2024-08-11T06:03:57Z</time>
      </trkpt>
      <trkpt lat="44.98406" lon="6.40038">
        <ele>2234.8</ele>
        <time>2024-08-11T06:03:58Z</time>
      </trkpt>
      <trkpt lat="44.98406" lon="6.40038">
        <ele>2234.8</ele>
        <time>2024-08-11T06:03:59Z</time>
      </trkpt>
      <trkpt lat="44.98404" lon="6.4004">
        <ele>2234.8</ele>
        <time>2024-08-11T06:04:00Z</time>
      </trkpt>
      <trkpt lat="44.98404" lon="6.4004">
        <ele>2235</ele>
        <time>2024-08-11T06:04:01Z</time>
      </trkpt>
      <trkpt lat="44.98403" lon="6.40042">
        <ele>2235</ele>
        <time>2024-08-11T06:04:02Z</time>
      </trkpt>
      <trkpt lat="44.98403" lon="6.40042">
        <ele>2235</ele>
        <time>2024-08-11T06:04:03Z</time>
      </trkpt>
      <trkpt lat="44.98401" lon="6.40045">
        <ele>2235</ele>
        <time>2024-08-11T06:04:04Z</time>
      </trkpt>
      <trkpt lat="44.98401" lon="6.40045">
        <ele>2235</ele>
        <time>2024-08-11T06:04:05Z</time>
      </trkpt>
      <trkpt lat="44.98399" lon="6.40047">
        <ele>2235</ele>
        <time>2024-08-11T06:04:06Z</time>
      </trkpt>
      <trkpt lat="44.98399" lon="6.40047">
        <ele>2235</ele>
        <time>2024-08-11T06:04:07Z</time>
      </trkpt>
      <trkpt lat="44.98399" lon="6.40047">
        <ele>2235</ele>
        <time>2024-08-11T06:04:08Z</time>
      </trkpt>
      <trkpt lat="44.98396" lon="6.40051">
        <ele>2235.2</ele>
        <time>2024-08-11T06:04:09Z</time>
      </trkpt>
      <trkpt lat="44.98395" lon="6.40052">
        <ele>2235.2</ele>
        <time>2024-08-11T06:04:10Z</time>
      </trkpt>
      <trkpt lat="44.98395" lon="6.40052">
        <ele>2235.2</ele>
        <time>2024-08-11T06:04:11Z</time>
      </trkpt>
      <trkpt lat="44.98393" lon="6.40054">
        <ele>2235.4</ele>
        <time>2024-08-11T06:04:12Z</time>
      </trkpt>
      <trkpt lat="44.98393" lon="6.40054">
        <ele>2235.6</ele>
        <time>2024-08-11T06:04:13Z</time>
      </trkpt>
      <trkpt lat="44.98391" lon="6.40056">
        <ele>2235.6</ele>
        <time>2024-08-11T06:04:14Z</time>
      </trkpt>
      <trkpt lat="44.98391" lon="6.40056">
        <ele>2235.6</ele>
        <time>2024-08-11T06:04:15Z</time>
      </trkpt>
      <trkpt lat="44.98391" lon="6.40056">
        <ele>2235.6</ele>
        <time>2024-08-11T06:04:16Z</time>
      </trkpt>
      <trkpt lat="44.98388" lon="6.4006">
        <ele>2235.6</ele>
        <time>2024-08-11T06:04:17Z</time>
      </trkpt>
      <trkpt lat="44.98387" lon="6.40061">
        <ele>2235.6</ele>
        <time>2024-08-11T06:04:18Z</time>
      </trkpt>
      <trkpt lat="44.98387" lon="6.40061">
        <ele>2235.8</ele>
        <time>2024-08-11T06:04:19Z</time>
      </trkpt>
      <trkpt lat="44.98385" lon="6.40063">
        <ele>2236</ele>
        <time>2024-08-11T06:04:20Z</time>
      </trkpt>
      <trkpt lat="44.98385" lon="6.40063">
        <ele>2236.2</ele>
        <time>2024-08-11T06:04:21Z</time>
      </trkpt>
      <trkpt lat="44.98385" lon="6.40063">
        <ele>2236.6</ele>
        <time>2024-08-11T06:04:22Z</time>
      </trkpt>
      <trkpt lat="44.98382" lon="6.40066">
        <ele>2236.6</ele>
        <time>2024-08-11T06:04:23Z</time>
      </trkpt>
      <trkpt lat="44.98381" lon="6.40068">
        <ele>2236.6</ele>
        <time>2024-08-11T06:04:24Z</time>
      </trkpt>
      <trkpt lat="44.98381" lon="6.40068">
        <ele>2236.6</ele>
        <time>2024-08-11T06:04:25Z</time>
      </trkpt>
      <trkpt lat="44.9838" lon="6.40071">
        <ele>2236.6</ele>
        <time>2024-08-11T06:04:26Z</time>
      </trkpt>
      <trkpt lat="44.9838" lon="6.40071">
        <ele>2236.6</ele>
        <time>2024-08-11T06:04:27Z</time>
      </trkpt>
      <trkpt lat="44.98378" lon="6.40073">
        <ele>2236.6</ele>
        <time>2024-08-11T06:04:28Z</time>
      </trkpt>
      <trkpt lat="44.98378" lon="6.40073">
        <ele>2236.6</ele>
        <time>2024-08-11T06:04:29Z</time>
      </trkpt>
      <trkpt lat="44.98378" lon="6.40073">
        <ele>2236.6</ele>
        <time>2024-08-11T06:04:30Z</time>
      </trkpt>
      <trkpt lat="44.98375" lon="6.40077">
        <ele>2236.8</ele>
        <time>2024-08-11T06:04:31Z</time>
      </trkpt>
      <trkpt lat="44.98375" lon="6.40077">
        <ele>2236.8</ele>
        <time>2024-08-11T06:04:32Z</time>
      </trkpt>
      <trkpt lat="44.98374" lon="6.40079">
        <ele>2237</ele>
        <time>2024-08-11T06:04:33Z</time>
      </trkpt>
      <trkpt lat="44.98374" lon="6.40079">
        <ele>2237</ele>
        <time>2024-08-11T06:04:34Z</time>
      </trkpt>
      <trkpt lat="44.98372" lon="6.40082">
        <ele>2237</ele>
        <time>2024-08-11T06:04:35Z</time>
      </trkpt>
      <trkpt lat="44.98372" lon="6.40082">
        <ele>2237.2</ele>
        <time>2024-08-11T06:04:36Z</time>
      </trkpt>
      <trkpt lat="44.98372" lon="6.40082">
        <ele>2237.2</ele>
        <time>2024-08-11T06:04:37Z</time>
      </trkpt>
      <trkpt lat="44.9837" lon="6.40085">
        <ele>2236.8</ele>
        <time>2024-08-11T06:04:38Z</time>
      </trkpt>
      <trkpt lat="44.98368" lon="6.40086">
        <ele>2236.6</ele>
        <time>2024-08-11T06:04:39Z</time>
      </trkpt>
      <trkpt lat="44.98368" lon="6.40086">
        <ele>2236.6</ele>
        <time>2024-08-11T06:04:40Z</time>
      </trkpt>
      <trkpt lat="44.98367" lon="6.40088">
        <ele>2236.6</ele>
        <time>2024-08-11T06:04:41Z</time>
      </trkpt>
      <trkpt lat="44.98367" lon="6.40088">
        <ele>2236.6</ele>
        <time>2024-08-11T06:04:42Z</time>
      </trkpt>
      <trkpt lat="44.98366" lon="6.40091">
        <ele>2236.8</ele>
        <time>2024-08-11T06:04:43Z</time>
      </trkpt>
      <trkpt lat="44.98366" lon="6.40091">
        <ele>2236.8</ele>
        <time>2024-08-11T06:04:44Z</time>
      </trkpt>
      <trkpt lat="44.98364" lon="6.40094">
        <ele>2236.6</ele>
        <time>2024-08-11T06:04:45Z</time>
      </trkpt>
      <trkpt lat="44.98364" lon="6.40094">
        <ele>2236.6</ele>
        <time>2024-08-11T06:04:46Z</time>
      </trkpt>
      <trkpt lat="44.98363" lon="6.40097">
        <ele>2236.8</ele>
        <time>2024-08-11T06:04:47Z</time>
      </trkpt>
      <trkpt lat="44.98363" lon="6.40097">
        <ele>2236.8</ele>
        <time>2024-08-11T06:04:48Z</time>
      </trkpt>
      <trkpt lat="44.98361" lon="6.401">
        <ele>2236.8</ele>
        <time>2024-08-11T06:04:49Z</time>
      </trkpt>
      <trkpt lat="44.98361" lon="6.401">
        <ele>2237</ele>
        <time>2024-08-11T06:04:50Z</time>
      </trkpt>
      <trkpt lat="44.98359" lon="6.40102">
        <ele>2237</ele>
        <time>2024-08-11T06:04:51Z</time>
      </trkpt>
      <trkpt lat="44.98359" lon="6.40102">
        <ele>2237</ele>
        <time>2024-08-11T06:04:52Z</time>
      </trkpt>
      <trkpt lat="44.98357" lon="6.40105">
        <ele>2237</ele>
        <time>2024-08-11T06:04:53Z</time>
      </trkpt>
      <trkpt lat="44.98357" lon="6.40105">
        <ele>2237</ele>
        <time>2024-08-11T06:04:54Z</time>
      </trkpt>
      <trkpt lat="44.98356" lon="6.40108">
        <ele>2237.2</ele>
        <time>2024-08-11T06:04:55Z</time>
      </trkpt>
      <trkpt lat="44.98356" lon="6.40108">
        <ele>2237.2</ele>
        <time>2024-08-11T06:04:56Z</time>
      </trkpt>
      <trkpt lat="44.98354" lon="6.40111">
        <ele>2237.4</ele>
        <time>2024-08-11T06:04:57Z</time>
      </trkpt>
      <trkpt lat="44.98354" lon="6.40111">
        <ele>2237.4</ele>
        <time>2024-08-11T06:04:58Z</time>
      </trkpt>
      <trkpt lat="44.98352" lon="6.40114">
        <ele>2237.4</ele>
        <time>2024-08-11T06:04:59Z</time>
      </trkpt>
      <trkpt lat="44.98352" lon="6.40114">
        <ele>2237.6</ele>
        <time>2024-08-11T06:05:00Z</time>
      </trkpt>
      <trkpt lat="44.98351" lon="6.40117">
        <ele>2237.6</ele>
        <time>2024-08-11T06:05:01Z</time>
      </trkpt>
      <trkpt lat="44.98351" lon="6.40117">
        <ele>2237.6</ele>
        <time>2024-08-11T06:05:02Z</time>
      </trkpt>
      <trkpt lat="44.98349" lon="6.4012">
        <ele>2237.6</ele>
        <time>2024-08-11T06:05:03Z</time>
      </trkpt>
      <trkpt lat="44.98349" lon="6.4012">
        <ele>2237.6</ele>
        <time>2024-08-11T06:05:04Z</time>
      </trkpt>
      <trkpt lat="44.98347" lon="6.40122">
        <ele>2237.6</ele>
        <time>2024-08-11T06:05:05Z</time>
      </trkpt>
      <trkpt lat="44.98347" lon="6.40122">
        <ele>2238</ele>
        <time>2024-08-11T06:05:06Z</time>
      </trkpt>
      <trkpt lat="44.98344" lon="6.40124">
        <ele>2238</ele>
        <time>2024-08-11T06:05:07Z</time>
      </trkpt>
      <trkpt lat="44.98344" lon="6.40124">
        <ele>2237.8</ele>
        <time>2024-08-11T06:05:08Z</time>
      </trkpt>
      <trkpt lat="44.98344" lon="6.40124">
        <ele>2237.6</ele>
        <time>2024-08-11T06:05:09Z</time>
      </trkpt>
      <trkpt lat="44.98341" lon="6.40126">
        <ele>2237.6</ele>
        <time>2024-08-11T06:05:10Z</time>
      </trkpt>
      <trkpt lat="44.9834" lon="6.40127">
        <ele>2237.6</ele>
        <time>2024-08-11T06:05:11Z</time>
      </trkpt>
      <trkpt lat="44.9834" lon="6.40127">
        <ele>2237.8</ele>
        <time>2024-08-11T06:05:12Z</time>
      </trkpt>
      <trkpt lat="44.98338" lon="6.40128">
        <ele>2237.8</ele>
        <time>2024-08-11T06:05:13Z</time>
      </trkpt>
      <trkpt lat="44.98338" lon="6.40128">
        <ele>2238</ele>
        <time>2024-08-11T06:05:14Z</time>
      </trkpt>
      <trkpt lat="44.98336" lon="6.4013">
        <ele>2238</ele>
        <time>2024-08-11T06:05:15Z</time>
      </trkpt>
      <trkpt lat="44.98336" lon="6.4013">
        <ele>2238</ele>
        <time>2024-08-11T06:05:16Z</time>
      </trkpt>
      <trkpt lat="44.98336" lon="6.4013">
        <ele>2238</ele>
        <time>2024-08-11T06:05:17Z</time>
      </trkpt>
      <trkpt lat="44.98332" lon="6.40133">
        <ele>2238</ele>
        <time>2024-08-11T06:05:18Z</time>
      </trkpt>
      <trkpt lat="44.98331" lon="6.40133">
        <ele>2238</ele>
        <time>2024-08-11T06:05:19Z</time>
      </trkpt>
      <trkpt lat="44.98331" lon="6.40133">
        <ele>2238</ele>
        <time>2024-08-11T06:05:20Z</time>
      </trkpt>
      <trkpt lat="44.98329" lon="6.40135">
        <ele>2238</ele>
        <time>2024-08-11T06:05:21Z</time>
      </trkpt>
      <trkpt lat="44.98329" lon="6.40135">
        <ele>2238</ele>
        <time>2024-08-11T06:05:22Z</time>
      </trkpt>
      <trkpt lat="44.98329" lon="6.40135">
        <ele>2238</ele>
        <time>2024-08-11T06:05:23Z</time>
      </trkpt>
      <trkpt lat="44.98325" lon="6.40137">
        <ele>2238.4</ele>
        <time>2024-08-11T06:05:24Z</time>
      </trkpt>
      <trkpt lat="44.98325" lon="6.40138">
        <ele>2238.4</ele>
        <time>2024-08-11T06:05:25Z</time>
      </trkpt>
      <trkpt lat="44.98325" lon="6.40138">
        <ele>2238.6</ele>
        <time>2024-08-11T06:05:26Z</time>
      </trkpt>
      <trkpt lat="44.98322" lon="6.4014">
        <ele>2238.6</ele>
        <time>2024-08-11T06:05:27Z</time>
      </trkpt>
      <trkpt lat="44.98322" lon="6.4014">
        <ele>2238.6</ele>
        <time>2024-08-11T06:05:28Z</time>
      </trkpt>
      <trkpt lat="44.9832" lon="6.40141">
        <ele>2238.6</ele>
        <time>2024-08-11T06:05:29Z</time>
      </trkpt>
      <trkpt lat="44.9832" lon="6.40141">
        <ele>2238.6</ele>
        <time>2024-08-11T06:05:30Z</time>
      </trkpt>
      <trkpt lat="44.98317" lon="6.40143">
        <ele>2238.6</ele>
        <time>2024-08-11T06:05:31Z</time>
      </trkpt>
      <trkpt lat="44.98317" lon="6.40143">
        <ele>2238.8</ele>
        <time>2024-08-11T06:05:32Z</time>
      </trkpt>
      <trkpt lat="44.98315" lon="6.40145">
        <ele>2238.8</ele>
        <time>2024-08-11T06:05:33Z</time>
      </trkpt>
      <trkpt lat="44.98315" lon="6.40145">
        <ele>2238.8</ele>
        <time>2024-08-11T06:05:34Z</time>
      </trkpt>
      <trkpt lat="44.98312" lon="6.40147">
        <ele>2238.8</ele>
        <time>2024-08-11T06:05:35Z</time>
      </trkpt>
      <trkpt lat="44.98312" lon="6.40147">
        <ele>2238.8</ele>
        <time>2024-08-11T06:05:36Z</time>
      </trkpt>
      <trkpt lat="44.9831" lon="6.40149">
        <ele>2238.8</ele>
        <time>2024-08-11T06:05:37Z</time>
      </trkpt>
      <trkpt lat="44.9831" lon="6.40149">
        <ele>2239</ele>
        <time>2024-08-11T06:05:38Z</time>
      </trkpt>
      <trkpt lat="44.98308" lon="6.4015">
        <ele>2239</ele>
        <time>2024-08-11T06:05:39Z</time>
      </trkpt>
      <trkpt lat="44.98308" lon="6.4015">
        <ele>2239</ele>
        <time>2024-08-11T06:05:40Z</time>
      </trkpt>
      <trkpt lat="44.98305" lon="6.40152">
        <ele>2239</ele>
        <time>2024-08-11T06:05:41Z</time>
      </trkpt>
      <trkpt lat="44.98305" lon="6.40152">
        <ele>2239</ele>
        <time>2024-08-11T06:05:42Z</time>
      </trkpt>
      <trkpt lat="44.98303" lon="6.40153">
        <ele>2239.4</ele>
        <time>2024-08-11T06:05:43Z</time>
      </trkpt>
      <trkpt lat="44.98303" lon="6.40153">
        <ele>2239.4</ele>
        <time>2024-08-11T06:05:44Z</time>
      </trkpt>
      <trkpt lat="44.98301" lon="6.40154">
        <ele>2239.2</ele>
        <time>2024-08-11T06:05:45Z</time>
      </trkpt>
      <trkpt lat="44.98301" lon="6.40154">
        <ele>2239.2</ele>
        <time>2024-08-11T06:05:46Z</time>
      </trkpt>
      <trkpt lat="44.98298" lon="6.40156">
        <ele>2239.4</ele>
        <time>2024-08-11T06:05:47Z</time>
      </trkpt>
      <trkpt lat="44.98298" lon="6.40156">
        <ele>2239.4</ele>
        <time>2024-08-11T06:05:48Z</time>
      </trkpt>
      <trkpt lat="44.98296" lon="6.40158">
        <ele>2239.4</ele>
        <time>2024-08-11T06:05:49Z</time>
      </trkpt>
      <trkpt lat="44.98296" lon="6.40158">
        <ele>2239.4</ele>
        <time>2024-08-11T06:05:50Z</time>
      </trkpt>
      <trkpt lat="44.98294" lon="6.4016">
        <ele>2239.4</ele>
        <time>2024-08-11T06:05:51Z</time>
      </trkpt>
      <trkpt lat="44.98294" lon="6.4016">
        <ele>2239.6</ele>
        <time>2024-08-11T06:05:52Z</time>
      </trkpt>
      <trkpt lat="44.98292" lon="6.40161">
        <ele>2239.6</ele>
        <time>2024-08-11T06:05:53Z</time>
      </trkpt>
      <trkpt lat="44.98292" lon="6.40161">
        <ele>2239.6</ele>
        <time>2024-08-11T06:05:54Z</time>
      </trkpt>
      <trkpt lat="44.9829" lon="6.40163">
        <ele>2239.8</ele>
        <time>2024-08-11T06:05:55Z</time>
      </trkpt>
      <trkpt lat="44.9829" lon="6.40163">
        <ele>2239.8</ele>
        <time>2024-08-11T06:05:56Z</time>
      </trkpt>
      <trkpt lat="44.98287" lon="6.40165">
        <ele>2240</ele>
        <time>2024-08-11T06:05:57Z</time>
      </trkpt>
      <trkpt lat="44.98287" lon="6.40165">
        <ele>2240</ele>
        <time>2024-08-11T06:05:58Z</time>
      </trkpt>
      <trkpt lat="44.98285" lon="6.40168">
        <ele>2240</ele>
        <time>2024-08-11T06:05:59Z</time>
      </trkpt>
      <trkpt lat="44.98285" lon="6.40168">
        <ele>2240.2</ele>
        <time>2024-08-11T06:06:00Z</time>
      </trkpt>
      <trkpt lat="44.98283" lon="6.4017">
        <ele>2240.2</ele>
        <time>2024-08-11T06:06:01Z</time>
      </trkpt>
      <trkpt lat="44.98283" lon="6.4017">
        <ele>2240.2</ele>
        <time>2024-08-11T06:06:02Z</time>
      </trkpt>
      <trkpt lat="44.98281" lon="6.40172">
        <ele>2240.2</ele>
        <time>2024-08-11T06:06:03Z</time>
      </trkpt>
      <trkpt lat="44.98281" lon="6.40172">
        <ele>2240.4</ele>
        <time>2024-08-11T06:06:04Z</time>
      </trkpt>
      <trkpt lat="44.98279" lon="6.40175">
        <ele>2240.4</ele>
        <time>2024-08-11T06:06:05Z</time>
      </trkpt>
      <trkpt lat="44.98279" lon="6.40175">
        <ele>2240.4</ele>
        <time>2024-08-11T06:06:06Z</time>
      </trkpt>
      <trkpt lat="44.98277" lon="6.40177">
        <ele>2240.4</ele>
        <time>2024-08-11T06:06:07Z</time>
      </trkpt>
      <trkpt lat="44.98277" lon="6.40177">
        <ele>2240.4</ele>
        <time>2024-08-11T06:06:08Z</time>
      </trkpt>
      <trkpt lat="44.98275" lon="6.40179">
        <ele>2240.2</ele>
        <time>2024-08-11T06:06:09Z</time>
      </trkpt>
      <trkpt lat="44.98275" lon="6.40179">
        <ele>2240.2</ele>
        <time>2024-08-11T06:06:10Z</time>
      </trkpt>
      <trkpt lat="44.98273" lon="6.40181">
        <ele>2240.6</ele>
        <time>2024-08-11T06:06:11Z</time>
      </trkpt>
      <trkpt lat="44.98273" lon="6.40181">
        <ele>2240.6</ele>
        <time>2024-08-11T06:06:12Z</time>
      </trkpt>
      <trkpt lat="44.9827" lon="6.40183">
        <ele>2240.6</ele>
        <time>2024-08-11T06:06:13Z</time>
      </trkpt>
      <trkpt lat="44.9827" lon="6.40183">
        <ele>2240.8</ele>
        <time>2024-08-11T06:06:14Z</time>
      </trkpt>
      <trkpt lat="44.98268" lon="6.40186">
        <ele>2240.8</ele>
        <time>2024-08-11T06:06:15Z</time>
      </trkpt>
      <trkpt lat="44.98268" lon="6.40186">
        <ele>2240.8</ele>
        <time>2024-08-11T06:06:16Z</time>
      </trkpt>
      <trkpt lat="44.98266" lon="6.40188">
        <ele>2240.8</ele>
        <time>2024-08-11T06:06:17Z</time>
      </trkpt>
      <trkpt lat="44.98266" lon="6.40188">
        <ele>2240.8</ele>
        <time>2024-08-11T06:06:18Z</time>
      </trkpt>
      <trkpt lat="44.98266" lon="6.40188">
        <ele>2241</ele>
        <time>2024-08-11T06:06:19Z</time>
      </trkpt>
      <trkpt lat="44.98263" lon="6.40192">
        <ele>2241</ele>
        <time>2024-08-11T06:06:20Z</time>
      </trkpt>
      <trkpt lat="44.98262" lon="6.40193">
        <ele>2240.8</ele>
        <time>2024-08-11T06:06:21Z</time>
      </trkpt>
      <trkpt lat="44.98262" lon="6.40193">
        <ele>2240.8</ele>
        <time>2024-08-11T06:06:22Z</time>
      </trkpt>
      <trkpt lat="44.98261" lon="6.40195">
        <ele>2241</ele>
        <time>2024-08-11T06:06:23Z</time>
      </trkpt>
      <trkpt lat="44.98261" lon="6.40195">
        <ele>2241</ele>
        <time>2024-08-11T06:06:24Z</time>
      </trkpt>
      <trkpt lat="44.98258" lon="6.40197">
        <ele>2241.2</ele>
        <time>2024-08-11T06:06:25Z</time>
      </trkpt>
      <trkpt lat="44.98258" lon="6.40197">
        <ele>2241.2</ele>
        <time>2024-08-11T06:06:26Z</time>
      </trkpt>
      <trkpt lat="44.98256" lon="6.40199">
        <ele>2241.2</ele>
        <time>2024-08-11T06:06:27Z</time>
      </trkpt>
      <trkpt lat="44.98256" lon="6.40199">
        <ele>2241.4</ele>
        <time>2024-08-11T06:06:28Z</time>
      </trkpt>
      <trkpt lat="44.98256" lon="6.40199">
        <ele>2241.4</ele>
        <time>2024-08-11T06:06:29Z</time>
      </trkpt>
      <trkpt lat="44.98253" lon="6.40202">
        <ele>2241.6</ele>
        <time>2024-08-11T06:06:30Z</time>
      </trkpt>
      <trkpt lat="44.98251" lon="6.40203">
        <ele>2241.6</ele>
        <time>2024-08-11T06:06:31Z</time>
      </trkpt>
      <trkpt lat="44.98251" lon="6.40203">
        <ele>2241.8</ele>
        <time>2024-08-11T06:06:32Z</time>
      </trkpt>
      <trkpt lat="44.98249" lon="6.40205">
        <ele>2241.8</ele>
        <time>2024-08-11T06:06:33Z</time>
      </trkpt>
      <trkpt lat="44.98249" lon="6.40205">
        <ele>2241.8</ele>
        <time>2024-08-11T06:06:34Z</time>
      </trkpt>
      <trkpt lat="44.98249" lon="6.40205">
        <ele>2241.8</ele>
        <time>2024-08-11T06:06:35Z</time>
      </trkpt>
      <trkpt lat="44.98246" lon="6.40206">
        <ele>2241.8</ele>
        <time>2024-08-11T06:06:36Z</time>
      </trkpt>
      <trkpt lat="44.98245" lon="6.40206">
        <ele>2242</ele>
        <time>2024-08-11T06:06:37Z</time>
      </trkpt>
      <trkpt lat="44.98245" lon="6.40206">
        <ele>2242</ele>
        <time>2024-08-11T06:06:38Z</time>
      </trkpt>
      <trkpt lat="44.98242" lon="6.40207">
        <ele>2242</ele>
        <time>2024-08-11T06:06:39Z</time>
      </trkpt>
      <trkpt lat="44.98242" lon="6.40207">
        <ele>2242.4</ele>
        <time>2024-08-11T06:06:40Z</time>
      </trkpt>
      <trkpt lat="44.98239" lon="6.40207">
        <ele>2243</ele>
        <time>2024-08-11T06:06:41Z</time>
      </trkpt>
      <trkpt lat="44.98239" lon="6.40207">
        <ele>2243</ele>
        <time>2024-08-11T06:06:42Z</time>
      </trkpt>
      <trkpt lat="44.98237" lon="6.40208">
        <ele>2242.2</ele>
        <time>2024-08-11T06:06:43Z</time>
      </trkpt>
      <trkpt lat="44.98237" lon="6.40208">
        <ele>2242.2</ele>
        <time>2024-08-11T06:06:44Z</time>
      </trkpt>
      <trkpt lat="44.98234" lon="6.40209">
        <ele>2242.2</ele>
        <time>2024-08-11T06:06:45Z</time>
      </trkpt>
      <trkpt lat="44.98234" lon="6.40209">
        <ele>2242.2</ele>
        <time>2024-08-11T06:06:46Z</time>
      </trkpt>
      <trkpt lat="44.98234" lon="6.40209">
        <ele>2242.2</ele>
        <time>2024-08-11T06:06:47Z</time>
      </trkpt>
      <trkpt lat="44.9823" lon="6.40211">
        <ele>2243</ele>
        <time>2024-08-11T06:06:48Z</time>
      </trkpt>
      <trkpt lat="44.98229" lon="6.40212">
        <ele>2243.2</ele>
        <time>2024-08-11T06:06:49Z</time>
      </trkpt>
      <trkpt lat="44.98229" lon="6.40212">
        <ele>2243.2</ele>
        <time>2024-08-11T06:06:50Z</time>
      </trkpt>
      <trkpt lat="44.98227" lon="6.40214">
        <ele>2243.2</ele>
        <time>2024-08-11T06:06:51Z</time>
      </trkpt>
      <trkpt lat="44.98227" lon="6.40214">
        <ele>2243.2</ele>
        <time>2024-08-11T06:06:52Z</time>
      </trkpt>
      <trkpt lat="44.98227" lon="6.40214">
        <ele>2243.2</ele>
        <time>2024-08-11T06:06:53Z</time>
      </trkpt>
      <trkpt lat="44.98224" lon="6.40216">
        <ele>2243.4</ele>
        <time>2024-08-11T06:06:54Z</time>
      </trkpt>
      <trkpt lat="44.98223" lon="6.40217">
        <ele>2243.6</ele>
        <time>2024-08-11T06:06:55Z</time>
      </trkpt>
      <trkpt lat="44.98223" lon="6.40217">
        <ele>2243.6</ele>
        <time>2024-08-11T06:06:56Z</time>
      </trkpt>
      <trkpt lat="44.98221" lon="6.40218">
        <ele>2243.6</ele>
        <time>2024-08-11T06:06:57Z</time>
      </trkpt>
      <trkpt lat="44.98221" lon="6.40218">
        <ele>2243.8</ele>
        <time>2024-08-11T06:06:58Z</time>
      </trkpt>
      <trkpt lat="44.98221" lon="6.40218">
        <ele>2243.8</ele>
        <time>2024-08-11T06:06:59Z</time>
      </trkpt>
      <trkpt lat="44.98221" lon="6.40218">
        <ele>2244</ele>
        <time>2024-08-11T06:07:00Z</time>
      </trkpt>
      <trkpt lat="44.98221" lon="6.40218">
        <ele>2244.2</ele>
        <time>2024-08-11T06:07:01Z</time>
      </trkpt>
      <trkpt lat="44.98221" lon="6.40218">
        <ele>2244.2</ele>
        <time>2024-08-11T06:07:02Z</time>
      </trkpt>
      <trkpt lat="44.98221" lon="6.40218">
        <ele>2244.2</ele>
        <time>2024-08-11T06:07:03Z</time>
      </trkpt>
      <trkpt lat="44.98221" lon="6.40218">
        <ele>2244.2</ele>
        <time>2024-08-11T06:07:04Z</time>
      </trkpt>
      <trkpt lat="44.98221" lon="6.40218">
        <ele>2244.2</ele>
        <time>2024-08-11T06:07:05Z</time>
      </trkpt>
      <trkpt lat="44.98221" lon="6.40218">
        <ele>2244.2</ele>
        <time>2024-08-11T06:07:06Z</time>
      </trkpt>
      <trkpt lat="44.98221" lon="6.40218">
        <ele>2244</ele>
        <time>2024-08-11T06:07:07Z</time>
      </trkpt>
      <trkpt lat="44.98221" lon="6.40218">
        <ele>2243.6</ele>
        <time>2024-08-11T06:07:08Z</time>
      </trkpt>
      <trkpt lat="44.98221" lon="6.40218">
        <ele>2243.4</ele>
        <time>2024-08-11T06:07:09Z</time>
      </trkpt>
      <trkpt lat="44.98221" lon="6.40218">
        <ele>2243.4</ele>
        <time>2024-08-11T06:07:10Z</time>
      </trkpt>
      <trkpt lat="44.98221" lon="6.40218">
        <ele>2243.4</ele>
        <time>2024-08-11T06:07:11Z</time>
      </trkpt>
      <trkpt lat="44.98221" lon="6.40218">
        <ele>2243.4</ele>
        <time>2024-08-11T06:07:12Z</time>
      </trkpt>
      <trkpt lat="44.98221" lon="6.40218">
        <ele>2243.4</ele>
        <time>2024-08-11T06:07:13Z</time>
      </trkpt>
      <trkpt lat="44.98221" lon="6.40218">
        <ele>2243.4</ele>
        <time>2024-08-11T06:07:14Z</time>
      </trkpt>
      <trkpt lat="44.98221" lon="6.40218">
        <ele>2243.4</ele>
        <time>2024-08-11T06:07:15Z</time>
      </trkpt>
      <trkpt lat="44.98221" lon="6.40218">
        <ele>2243.4</ele>
        <time>2024-08-11T06:07:16Z</time>
      </trkpt>
      <trkpt lat="44.98221" lon="6.40218">
        <ele>2243.2</ele>
        <time>2024-08-11T06:07:17Z</time>
      </trkpt>
      <trkpt lat="44.98221" lon="6.40218">
        <ele>2243.2</ele>
        <time>2024-08-11T06:07:18Z</time>
      </trkpt>
      <trkpt lat="44.98221" lon="6.40218">
        <ele>2243.2</ele>
        <time>2024-08-11T06:07:19Z</time>
      </trkpt>
      <trkpt lat="44.98221" lon="6.40218">
        <ele>2243.2</ele>
        <time>2024-08-11T06:07:20Z</time>
      </trkpt>
      <trkpt lat="44.98221" lon="6.40218">
        <ele>2243.2</ele>
        <time>2024-08-11T06:07:21Z</time>
      </trkpt>
      <trkpt lat="44.98221" lon="6.40218">
        <ele>2243.4</ele>
        <time>2024-08-11T06:07:22Z</time>
      </trkpt>
      <trkpt lat="44.98221" lon="6.40218">
        <ele>2243.6</ele>
        <time>2024-08-11T06:07:23Z</time>
      </trkpt>
      <trkpt lat="44.98221" lon="6.40218">
        <ele>2243.6</ele>
        <time>2024-08-11T06:07:24Z</time>
      </trkpt>
      <trkpt lat="44.98221" lon="6.40218">
        <ele>2243.6</ele>
        <time>2024-08-11T06:07:25Z</time>
      </trkpt>
      <trkpt lat="44.98221" lon="6.40218">
        <ele>2243.8</ele>
        <time>2024-08-11T06:07:26Z</time>
      </trkpt>
      <trkpt lat="44.98221" lon="6.40218">
        <ele>2243.6</ele>
        <time>2024-08-11T06:07:27Z</time>
      </trkpt>
      <trkpt lat="44.98221" lon="6.40218">
        <ele>2243.6</ele>
        <time>2024-08-11T06:07:28Z</time>
      </trkpt>
      <trkpt lat="44.98221" lon="6.40218">
        <ele>2243.6</ele>
        <time>2024-08-11T06:07:29Z</time>
      </trkpt>
      <trkpt lat="44.98221" lon="6.40218">
        <ele>2243.8</ele>
        <time>2024-08-11T06:07:30Z</time>
      </trkpt>
      <trkpt lat="44.98221" lon="6.40218">
        <ele>2243.8</ele>
        <time>2024-08-11T06:07:31Z</time>
      </trkpt>
      <trkpt lat="44.98221" lon="6.40218">
        <ele>2243.8</ele>
        <time>2024-08-11T06:07:32Z</time>
      </trkpt>
      <trkpt lat="44.98221" lon="6.40218">
        <ele>2243.8</ele>
        <time>2024-08-11T06:07:33Z</time>
      </trkpt>
      <trkpt lat="44.98221" lon="6.40218">
        <ele>2243.8</ele>
        <time>2024-08-11T06:07:34Z</time>
      </trkpt>
      <trkpt lat="44.98221" lon="6.40218">
        <ele>2243.8</ele>
        <time>2024-08-11T06:07:35Z</time>
      </trkpt>
      <trkpt lat="44.98221" lon="6.40218">
        <ele>2243.8</ele>
        <time>2024-08-11T06:07:36Z</time>
      </trkpt>
      <trkpt lat="44.98221" lon="6.40218">
        <ele>2243.8</ele>
        <time>2024-08-11T06:07:37Z</time>
      </trkpt>
      <trkpt lat="44.98221" lon="6.40218">
        <ele>2243.8</ele>
        <time>2024-08-11T06:07:38Z</time>
      </trkpt>
      <trkpt lat="44.98221" lon="6.40218">
        <ele>2243.8</ele>
        <time>2024-08-11T06:07:39Z</time>
      </trkpt>
      <trkpt lat="44.98221" lon="6.40218">
        <ele>2243.8</ele>
        <time>2024-08-11T06:07:40Z</time>
      </trkpt>
      <trkpt lat="44.98221" lon="6.40218">
        <ele>2243.8</ele>
        <time>2024-08-11T06:07:41Z</time>
      </trkpt>
      <trkpt lat="44.98221" lon="6.40218">
        <ele>2243.8</ele>
        <time>2024-08-11T06:07:42Z</time>
      </trkpt>
      <trkpt lat="44.98221" lon="6.40218">
        <ele>2243.8</ele>
        <time>2024-08-11T06:07:43Z</time>
      </trkpt>
      <trkpt lat="44.98221" lon="6.40218">
        <ele>2243.8</ele>
        <time>2024-08-11T06:07:44Z</time>
      </trkpt>
      <trkpt lat="44.98221" lon="6.40218">
        <ele>2243.8</ele>
        <time>2024-08-11T06:07:45Z</time>
      </trkpt>
      <trkpt lat="44.98221" lon="6.40218">
        <ele>2243.8</ele>
        <time>2024-08-11T06:07:46Z</time>
      </trkpt>
      <trkpt lat="44.98221" lon="6.40218">
        <ele>2243.8</ele>
        <time>2024-08-11T06:07:47Z</time>
      </trkpt>
      <trkpt lat="44.98221" lon="6.40218">
        <ele>2243.8</ele>
        <time>2024-08-11T06:07:48Z</time>
      </trkpt>
      <trkpt lat="44.98221" lon="6.40218">
        <ele>2243.8</ele>
        <time>2024-08-11T06:07:49Z</time>
      </trkpt>
      <trkpt lat="44.98221" lon="6.40218">
        <ele>2243.8</ele>
        <time>2024-08-11T06:07:50Z</time>
      </trkpt>
      <trkpt lat="44.98221" lon="6.40218">
        <ele>2244</ele>
        <time>2024-08-11T06:07:51Z</time>
      </trkpt>
      <trkpt lat="44.98221" lon="6.40218">
        <ele>2244</ele>
        <time>2024-08-11T06:07:52Z</time>
      </trkpt>
      <trkpt lat="44.98221" lon="6.40218">
        <ele>2243.8</ele>
        <time>2024-08-11T06:07:53Z</time>
      </trkpt>
      <trkpt lat="44.98221" lon="6.40218">
        <ele>2243.2</ele>
        <time>2024-08-11T06:07:54Z</time>
      </trkpt>
      <trkpt lat="44.98219" lon="6.4022">
        <ele>2243.2</ele>
        <time>2024-08-11T06:07:55Z</time>
      </trkpt>
      <trkpt lat="44.98219" lon="6.4022">
        <ele>2243.4</ele>
        <time>2024-08-11T06:07:56Z</time>
      </trkpt>
      <trkpt lat="44.98217" lon="6.40222">
        <ele>2243.4</ele>
        <time>2024-08-11T06:07:57Z</time>
      </trkpt>
      <trkpt lat="44.98215" lon="6.40223">
        <ele>2243.4</ele>
        <time>2024-08-11T06:07:58Z</time>
      </trkpt>
      <trkpt lat="44.98213" lon="6.40224">
        <ele>2243.8</ele>
        <time>2024-08-11T06:07:59Z</time>
      </trkpt>
      <trkpt lat="44.98212" lon="6.40226">
        <ele>2244</ele>
        <time>2024-08-11T06:08:00Z</time>
      </trkpt>
      <trkpt lat="44.98212" lon="6.40226">
        <ele>2244</ele>
        <time>2024-08-11T06:08:01Z</time>
      </trkpt>
      <trkpt lat="44.98209" lon="6.40228">
        <ele>2244.4</ele>
        <time>2024-08-11T06:08:02Z</time>
      </trkpt>
      <trkpt lat="44.98209" lon="6.40228">
        <ele>2244.4</ele>
        <time>2024-08-11T06:08:03Z</time>
      </trkpt>
      <trkpt lat="44.98209" lon="6.40228">
        <ele>2244.4</ele>
        <time>2024-08-11T06:08:04Z</time>
      </trkpt>
      <trkpt lat="44.98207" lon="6.4023">
        <ele>2244.4</ele>
        <time>2024-08-11T06:08:05Z</time>
      </trkpt>
      <trkpt lat="44.98207" lon="6.4023">
        <ele>2244.2</ele>
        <time>2024-08-11T06:08:06Z</time>
      </trkpt>
      <trkpt lat="44.98207" lon="6.4023">
        <ele>2244.2</ele>
        <time>2024-08-11T06:08:07Z</time>
      </trkpt>
      <trkpt lat="44.98205" lon="6.40233">
        <ele>2244.2</ele>
        <time>2024-08-11T06:08:08Z</time>
      </trkpt>
      <trkpt lat="44.98204" lon="6.40234">
        <ele>2244.2</ele>
        <time>2024-08-11T06:08:09Z</time>
      </trkpt>
      <trkpt lat="44.98204" lon="6.40234">
        <ele>2244.6</ele>
        <time>2024-08-11T06:08:10Z</time>
      </trkpt>
      <trkpt lat="44.98201" lon="6.40236">
        <ele>2244.6</ele>
        <time>2024-08-11T06:08:11Z</time>
      </trkpt>
      <trkpt lat="44.98201" lon="6.40236">
        <ele>2244.6</ele>
        <time>2024-08-11T06:08:12Z</time>
      </trkpt>
      <trkpt lat="44.98199" lon="6.40238">
        <ele>2244.6</ele>
        <time>2024-08-11T06:08:13Z</time>
      </trkpt>
      <trkpt lat="44.98199" lon="6.40238">
        <ele>2244.6</ele>
        <time>2024-08-11T06:08:14Z</time>
      </trkpt>
      <trkpt lat="44.98197" lon="6.40241">
        <ele>2244.8</ele>
        <time>2024-08-11T06:08:15Z</time>
      </trkpt>
      <trkpt lat="44.98197" lon="6.40241">
        <ele>2245</ele>
        <time>2024-08-11T06:08:16Z</time>
      </trkpt>
      <trkpt lat="44.98196" lon="6.40243">
        <ele>2245.2</ele>
        <time>2024-08-11T06:08:17Z</time>
      </trkpt>
      <trkpt lat="44.98196" lon="6.40243">
        <ele>2245.2</ele>
        <time>2024-08-11T06:08:18Z</time>
      </trkpt>
      <trkpt lat="44.98194" lon="6.40246">
        <ele>2245.2</ele>
        <time>2024-08-11T06:08:19Z</time>
      </trkpt>
      <trkpt lat="44.98194" lon="6.40246">
        <ele>2245.2</ele>
        <time>2024-08-11T06:08:20Z</time>
      </trkpt>
      <trkpt lat="44.98192" lon="6.40247">
        <ele>2245.2</ele>
        <time>2024-08-11T06:08:21Z</time>
      </trkpt>
      <trkpt lat="44.98192" lon="6.40247">
        <ele>2245.2</ele>
        <time>2024-08-11T06:08:22Z</time>
      </trkpt>
      <trkpt lat="44.9819" lon="6.4025">
        <ele>2245.2</ele>
        <time>2024-08-11T06:08:23Z</time>
      </trkpt>
      <trkpt lat="44.9819" lon="6.4025">
        <ele>2245.4</ele>
        <time>2024-08-11T06:08:24Z</time>
      </trkpt>
      <trkpt lat="44.98189" lon="6.40252">
        <ele>2245.6</ele>
        <time>2024-08-11T06:08:25Z</time>
      </trkpt>
      <trkpt lat="44.98189" lon="6.40252">
        <ele>2246</ele>
        <time>2024-08-11T06:08:26Z</time>
      </trkpt>
      <trkpt lat="44.98187" lon="6.40255">
        <ele>2246.2</ele>
        <time>2024-08-11T06:08:27Z</time>
      </trkpt>
      <trkpt lat="44.98187" lon="6.40255">
        <ele>2246.2</ele>
        <time>2024-08-11T06:08:28Z</time>
      </trkpt>
      <trkpt lat="44.98185" lon="6.40256">
        <ele>2246.2</ele>
        <time>2024-08-11T06:08:29Z</time>
      </trkpt>
      <trkpt lat="44.98185" lon="6.40256">
        <ele>2246.2</ele>
        <time>2024-08-11T06:08:30Z</time>
      </trkpt>
      <trkpt lat="44.98185" lon="6.40256">
        <ele>2246.2</ele>
        <time>2024-08-11T06:08:31Z</time>
      </trkpt>
      <trkpt lat="44.98181" lon="6.40259">
        <ele>2246.2</ele>
        <time>2024-08-11T06:08:32Z</time>
      </trkpt>
      <trkpt lat="44.98181" lon="6.40261">
        <ele>2246.4</ele>
        <time>2024-08-11T06:08:33Z</time>
      </trkpt>
      <trkpt lat="44.98181" lon="6.40261">
        <ele>2246.6</ele>
        <time>2024-08-11T06:08:34Z</time>
      </trkpt>
      <trkpt lat="44.98178" lon="6.40263">
        <ele>2246.6</ele>
        <time>2024-08-11T06:08:35Z</time>
      </trkpt>
      <trkpt lat="44.98177" lon="6.40264">
        <ele>2246.6</ele>
        <time>2024-08-11T06:08:36Z</time>
      </trkpt>
      <trkpt lat="44.98176" lon="6.40264">
        <ele>2246.6</ele>
        <time>2024-08-11T06:08:37Z</time>
      </trkpt>
      <trkpt lat="44.98176" lon="6.40265">
        <ele>2246.8</ele>
        <time>2024-08-11T06:08:38Z</time>
      </trkpt>
      <trkpt lat="44.98174" lon="6.40267">
        <ele>2246.8</ele>
        <time>2024-08-11T06:08:39Z</time>
      </trkpt>
      <trkpt lat="44.98174" lon="6.40267">
        <ele>2246.8</ele>
        <time>2024-08-11T06:08:40Z</time>
      </trkpt>
      <trkpt lat="44.98172" lon="6.40269">
        <ele>2246.8</ele>
        <time>2024-08-11T06:08:41Z</time>
      </trkpt>
      <trkpt lat="44.98172" lon="6.40269">
        <ele>2246.8</ele>
        <time>2024-08-11T06:08:42Z</time>
      </trkpt>
      <trkpt lat="44.98172" lon="6.40269">
        <ele>2246.8</ele>
        <time>2024-08-11T06:08:43Z</time>
      </trkpt>
      <trkpt lat="44.98169" lon="6.40272">
        <ele>2247</ele>
        <time>2024-08-11T06:08:44Z</time>
      </trkpt>
      <trkpt lat="44.98168" lon="6.40273">
        <ele>2247</ele>
        <time>2024-08-11T06:08:45Z</time>
      </trkpt>
      <trkpt lat="44.98168" lon="6.40273">
        <ele>2247.2</ele>
        <time>2024-08-11T06:08:46Z</time>
      </trkpt>
      <trkpt lat="44.98165" lon="6.40276">
        <ele>2247.2</ele>
        <time>2024-08-11T06:08:47Z</time>
      </trkpt>
      <trkpt lat="44.98165" lon="6.40276">
        <ele>2247.2</ele>
        <time>2024-08-11T06:08:48Z</time>
      </trkpt>
      <trkpt lat="44.98164" lon="6.40278">
        <ele>2247.2</ele>
        <time>2024-08-11T06:08:49Z</time>
      </trkpt>
      <trkpt lat="44.98164" lon="6.40278">
        <ele>2247.2</ele>
        <time>2024-08-11T06:08:50Z</time>
      </trkpt>
      <trkpt lat="44.98162" lon="6.40279">
        <ele>2247.4</ele>
        <time>2024-08-11T06:08:51Z</time>
      </trkpt>
      <trkpt lat="44.98162" lon="6.40279">
        <ele>2247.4</ele>
        <time>2024-08-11T06:08:52Z</time>
      </trkpt>
      <trkpt lat="44.98161" lon="6.40282">
        <ele>2247.4</ele>
        <time>2024-08-11T06:08:53Z</time>
      </trkpt>
      <trkpt lat="44.98161" lon="6.40282">
        <ele>2247.2</ele>
        <time>2024-08-11T06:08:54Z</time>
      </trkpt>
      <trkpt lat="44.98161" lon="6.40282">
        <ele>2247.2</ele>
        <time>2024-08-11T06:08:55Z</time>
      </trkpt>
      <trkpt lat="44.9816" lon="6.40285">
        <ele>2247.2</ele>
        <time>2024-08-11T06:08:56Z</time>
      </trkpt>
      <trkpt lat="44.9816" lon="6.40285">
        <ele>2247.4</ele>
        <time>2024-08-11T06:08:57Z</time>
      </trkpt>
      <trkpt lat="44.9816" lon="6.40285">
        <ele>2247.4</ele>
        <time>2024-08-11T06:08:58Z</time>
      </trkpt>
      <trkpt lat="44.98157" lon="6.40286">
        <ele>2247.6</ele>
        <time>2024-08-11T06:08:59Z</time>
      </trkpt>
      <trkpt lat="44.98157" lon="6.40286">
        <ele>2247.6</ele>
        <time>2024-08-11T06:09:00Z</time>
      </trkpt>
      <trkpt lat="44.98156" lon="6.40287">
        <ele>2247.6</ele>
        <time>2024-08-11T06:09:01Z</time>
      </trkpt>
      <trkpt lat="44.98156" lon="6.40287">
        <ele>2247.8</ele>
        <time>2024-08-11T06:09:02Z</time>
      </trkpt>
      <trkpt lat="44.98154" lon="6.40289">
        <ele>2247.8</ele>
        <time>2024-08-11T06:09:03Z</time>
      </trkpt>
      <trkpt lat="44.98154" lon="6.40289">
        <ele>2248</ele>
        <time>2024-08-11T06:09:04Z</time>
      </trkpt>
      <trkpt lat="44.98151" lon="6.40291">
        <ele>2248.2</ele>
        <time>2024-08-11T06:09:05Z</time>
      </trkpt>
      <trkpt lat="44.98151" lon="6.40291">
        <ele>2248.4</ele>
        <time>2024-08-11T06:09:06Z</time>
      </trkpt>
      <trkpt lat="44.98151" lon="6.40291">
        <ele>2248.4</ele>
        <time>2024-08-11T06:09:07Z</time>
      </trkpt>
      <trkpt lat="44.98148" lon="6.40293">
        <ele>2248.4</ele>
        <time>2024-08-11T06:09:08Z</time>
      </trkpt>
      <trkpt lat="44.98147" lon="6.40293">
        <ele>2248.2</ele>
        <time>2024-08-11T06:09:09Z</time>
      </trkpt>
      <trkpt lat="44.98147" lon="6.40293">
        <ele>2248.2</ele>
        <time>2024-08-11T06:09:10Z</time>
      </trkpt>
      <trkpt lat="44.98145" lon="6.40295">
        <ele>2248.4</ele>
        <time>2024-08-11T06:09:11Z</time>
      </trkpt>
      <trkpt lat="44.98145" lon="6.40295">
        <ele>2248.4</ele>
        <time>2024-08-11T06:09:12Z</time>
      </trkpt>
      <trkpt lat="44.98144" lon="6.40298">
        <ele>2248.2</ele>
        <time>2024-08-11T06:09:13Z</time>
      </trkpt>
      <trkpt lat="44.98144" lon="6.40298">
        <ele>2248.2</ele>
        <time>2024-08-11T06:09:14Z</time>
      </trkpt>
      <trkpt lat="44.98142" lon="6.40301">
        <ele>2248.2</ele>
        <time>2024-08-11T06:09:15Z</time>
      </trkpt>
      <trkpt lat="44.98142" lon="6.40301">
        <ele>2248.4</ele>
        <time>2024-08-11T06:09:16Z</time>
      </trkpt>
      <trkpt lat="44.98141" lon="6.40303">
        <ele>2248.4</ele>
        <time>2024-08-11T06:09:17Z</time>
      </trkpt>
      <trkpt lat="44.98141" lon="6.40303">
        <ele>2248.6</ele>
        <time>2024-08-11T06:09:18Z</time>
      </trkpt>
      <trkpt lat="44.98139" lon="6.40305">
        <ele>2248.6</ele>
        <time>2024-08-11T06:09:19Z</time>
      </trkpt>
      <trkpt lat="44.98139" lon="6.40305">
        <ele>2248.8</ele>
        <time>2024-08-11T06:09:20Z</time>
      </trkpt>
      <trkpt lat="44.98137" lon="6.40308">
        <ele>2248.8</ele>
        <time>2024-08-11T06:09:21Z</time>
      </trkpt>
      <trkpt lat="44.98137" lon="6.40308">
        <ele>2248.8</ele>
        <time>2024-08-11T06:09:22Z</time>
      </trkpt>
      <trkpt lat="44.98137" lon="6.40308">
        <ele>2248.8</ele>
        <time>2024-08-11T06:09:23Z</time>
      </trkpt>
      <trkpt lat="44.98137" lon="6.40308">
        <ele>2248.8</ele>
        <time>2024-08-11T06:09:24Z</time>
      </trkpt>
      <trkpt lat="44.98138" lon="6.40313">
        <ele>2248.8</ele>
        <time>2024-08-11T06:09:25Z</time>
      </trkpt>
      <trkpt lat="44.98138" lon="6.40313">
        <ele>2248.8</ele>
        <time>2024-08-11T06:09:26Z</time>
      </trkpt>
      <trkpt lat="44.98138" lon="6.40313">
        <ele>2249</ele>
        <time>2024-08-11T06:09:27Z</time>
      </trkpt>
      <trkpt lat="44.98137" lon="6.40316">
        <ele>2249.2</ele>
        <time>2024-08-11T06:09:28Z</time>
      </trkpt>
      <trkpt lat="44.98136" lon="6.40317">
        <ele>2249.2</ele>
        <time>2024-08-11T06:09:29Z</time>
      </trkpt>
      <trkpt lat="44.98136" lon="6.40317">
        <ele>2249.4</ele>
        <time>2024-08-11T06:09:30Z</time>
      </trkpt>
      <trkpt lat="44.98134" lon="6.40319">
        <ele>2249.4</ele>
        <time>2024-08-11T06:09:31Z</time>
      </trkpt>
      <trkpt lat="44.98134" lon="6.40319">
        <ele>2249.4</ele>
        <time>2024-08-11T06:09:32Z</time>
      </trkpt>
      <trkpt lat="44.98134" lon="6.40319">
        <ele>2249.4</ele>
        <time>2024-08-11T06:09:33Z</time>
      </trkpt>
      <trkpt lat="44.98132" lon="6.40322">
        <ele>2249.4</ele>
        <time>2024-08-11T06:09:34Z</time>
      </trkpt>
      <trkpt lat="44.98132" lon="6.40322">
        <ele>2249.6</ele>
        <time>2024-08-11T06:09:35Z</time>
      </trkpt>
      <trkpt lat="44.98131" lon="6.40324">
        <ele>2249.8</ele>
        <time>2024-08-11T06:09:36Z</time>
      </trkpt>
      <trkpt lat="44.98131" lon="6.40324">
        <ele>2249.8</ele>
        <time>2024-08-11T06:09:37Z</time>
      </trkpt>
      <trkpt lat="44.98129" lon="6.40326">
        <ele>2249.4</ele>
        <time>2024-08-11T06:09:38Z</time>
      </trkpt>
      <trkpt lat="44.98129" lon="6.40326">
        <ele>2249.6</ele>
        <time>2024-08-11T06:09:39Z</time>
      </trkpt>
      <trkpt lat="44.98128" lon="6.40328">
        <ele>2249.8</ele>
        <time>2024-08-11T06:09:40Z</time>
      </trkpt>
      <trkpt lat="44.98128" lon="6.40328">
        <ele>2249.8</ele>
        <time>2024-08-11T06:09:41Z</time>
      </trkpt>
      <trkpt lat="44.98128" lon="6.40328">
        <ele>2250</ele>
        <time>2024-08-11T06:09:42Z</time>
      </trkpt>
      <trkpt lat="44.98125" lon="6.40332">
        <ele>2250</ele>
        <time>2024-08-11T06:09:43Z</time>
      </trkpt>
      <trkpt lat="44.98125" lon="6.40333">
        <ele>2250</ele>
        <time>2024-08-11T06:09:44Z</time>
      </trkpt>
      <trkpt lat="44.98125" lon="6.40333">
        <ele>2250</ele>
        <time>2024-08-11T06:09:45Z</time>
      </trkpt>
      <trkpt lat="44.98125" lon="6.40336">
        <ele>2250</ele>
        <time>2024-08-11T06:09:46Z</time>
      </trkpt>
      <trkpt lat="44.98125" lon="6.40336">
        <ele>2250</ele>
        <time>2024-08-11T06:09:47Z</time>
      </trkpt>
      <trkpt lat="44.98125" lon="6.40336">
        <ele>2250</ele>
        <time>2024-08-11T06:09:48Z</time>
      </trkpt>
      <trkpt lat="44.98123" lon="6.40341">
        <ele>2250.2</ele>
        <time>2024-08-11T06:09:49Z</time>
      </trkpt>
      <trkpt lat="44.98123" lon="6.40342">
        <ele>2250.4</ele>
        <time>2024-08-11T06:09:50Z</time>
      </trkpt>
      <trkpt lat="44.98123" lon="6.40342">
        <ele>2250.4</ele>
        <time>2024-08-11T06:09:51Z</time>
      </trkpt>
      <trkpt lat="44.98123" lon="6.40345">
        <ele>2250.4</ele>
        <time>2024-08-11T06:09:52Z</time>
      </trkpt>
      <trkpt lat="44.98123" lon="6.40345">
        <ele>2250.6</ele>
        <time>2024-08-11T06:09:53Z</time>
      </trkpt>
      <trkpt lat="44.98123" lon="6.40345">
        <ele>2250.8</ele>
        <time>2024-08-11T06:09:54Z</time>
      </trkpt>
      <trkpt lat="44.98121" lon="6.40349">
        <ele>2251</ele>
        <time>2024-08-11T06:09:55Z</time>
      </trkpt>
      <trkpt lat="44.9812" lon="6.40351">
        <ele>2251.4</ele>
        <time>2024-08-11T06:09:56Z</time>
      </trkpt>
      <trkpt lat="44.9812" lon="6.40351">
        <ele>2251.4</ele>
        <time>2024-08-11T06:09:57Z</time>
      </trkpt>
      <trkpt lat="44.98117" lon="6.40355">
        <ele>2251.4</ele>
        <time>2024-08-11T06:09:58Z</time>
      </trkpt>
      <trkpt lat="44.98117" lon="6.40356">
        <ele>2251.2</ele>
        <time>2024-08-11T06:09:59Z</time>
      </trkpt>
      <trkpt lat="44.98116" lon="6.40357">
        <ele>2251.2</ele>
        <time>2024-08-11T06:10:00Z</time>
      </trkpt>
      <trkpt lat="44.98115" lon="6.40358">
        <ele>2251.4</ele>
        <time>2024-08-11T06:10:01Z</time>
      </trkpt>
      <trkpt lat="44.98114" lon="6.40359">
        <ele>2251.8</ele>
        <time>2024-08-11T06:10:02Z</time>
      </trkpt>
      <trkpt lat="44.98114" lon="6.40359">
        <ele>2251.8</ele>
        <time>2024-08-11T06:10:03Z</time>
      </trkpt>
      <trkpt lat="44.98113" lon="6.40361">
        <ele>2251.8</ele>
        <time>2024-08-11T06:10:04Z</time>
      </trkpt>
      <trkpt lat="44.98113" lon="6.40361">
        <ele>2251.8</ele>
        <time>2024-08-11T06:10:05Z</time>
      </trkpt>
      <trkpt lat="44.98113" lon="6.40361">
        <ele>2251.8</ele>
        <time>2024-08-11T06:10:06Z</time>
      </trkpt>
      <trkpt lat="44.98111" lon="6.40366">
        <ele>2251.8</ele>
        <time>2024-08-11T06:10:07Z</time>
      </trkpt>
      <trkpt lat="44.98111" lon="6.40368">
        <ele>2251.8</ele>
        <time>2024-08-11T06:10:08Z</time>
      </trkpt>
      <trkpt lat="44.98111" lon="6.40368">
        <ele>2252</ele>
        <time>2024-08-11T06:10:09Z</time>
      </trkpt>
      <trkpt lat="44.9811" lon="6.40371">
        <ele>2252</ele>
        <time>2024-08-11T06:10:10Z</time>
      </trkpt>
      <trkpt lat="44.9811" lon="6.40371">
        <ele>2252.2</ele>
        <time>2024-08-11T06:10:11Z</time>
      </trkpt>
      <trkpt lat="44.98109" lon="6.40374">
        <ele>2252.2</ele>
        <time>2024-08-11T06:10:12Z</time>
      </trkpt>
      <trkpt lat="44.98109" lon="6.40374">
        <ele>2252</ele>
        <time>2024-08-11T06:10:13Z</time>
      </trkpt>
      <trkpt lat="44.98108" lon="6.40378">
        <ele>2252</ele>
        <time>2024-08-11T06:10:14Z</time>
      </trkpt>
      <trkpt lat="44.98108" lon="6.40378">
        <ele>2252</ele>
        <time>2024-08-11T06:10:15Z</time>
      </trkpt>
      <trkpt lat="44.98107" lon="6.40381">
        <ele>2252</ele>
        <time>2024-08-11T06:10:16Z</time>
      </trkpt>
      <trkpt lat="44.98107" lon="6.40381">
        <ele>2252.6</ele>
        <time>2024-08-11T06:10:17Z</time>
      </trkpt>
      <trkpt lat="44.98107" lon="6.40381">
        <ele>2252.6</ele>
        <time>2024-08-11T06:10:18Z</time>
      </trkpt>
      <trkpt lat="44.98105" lon="6.40386">
        <ele>2252.2</ele>
        <time>2024-08-11T06:10:19Z</time>
      </trkpt>
      <trkpt lat="44.98104" lon="6.40387">
        <ele>2252.2</ele>
        <time>2024-08-11T06:10:20Z</time>
      </trkpt>
      <trkpt lat="44.98104" lon="6.40387">
        <ele>2252.4</ele>
        <time>2024-08-11T06:10:21Z</time>
      </trkpt>
      <trkpt lat="44.98103" lon="6.4039">
        <ele>2252.6</ele>
        <time>2024-08-11T06:10:22Z</time>
      </trkpt>
      <trkpt lat="44.98103" lon="6.4039">
        <ele>2252.8</ele>
        <time>2024-08-11T06:10:23Z</time>
      </trkpt>
      <trkpt lat="44.98103" lon="6.4039">
        <ele>2252.8</ele>
        <time>2024-08-11T06:10:24Z</time>
      </trkpt>
      <trkpt lat="44.98101" lon="6.40395">
        <ele>2252.8</ele>
        <time>2024-08-11T06:10:25Z</time>
      </trkpt>
      <trkpt lat="44.981" lon="6.40396">
        <ele>2252.8</ele>
        <time>2024-08-11T06:10:26Z</time>
      </trkpt>
      <trkpt lat="44.981" lon="6.40396">
        <ele>2252.8</ele>
        <time>2024-08-11T06:10:27Z</time>
      </trkpt>
      <trkpt lat="44.98099" lon="6.40399">
        <ele>2252.8</ele>
        <time>2024-08-11T06:10:28Z</time>
      </trkpt>
      <trkpt lat="44.98099" lon="6.40399">
        <ele>2253</ele>
        <time>2024-08-11T06:10:29Z</time>
      </trkpt>
      <trkpt lat="44.98099" lon="6.40399">
        <ele>2253</ele>
        <time>2024-08-11T06:10:30Z</time>
      </trkpt>
      <trkpt lat="44.98097" lon="6.40403">
        <ele>2253.2</ele>
        <time>2024-08-11T06:10:31Z</time>
      </trkpt>
      <trkpt lat="44.98096" lon="6.40405">
        <ele>2253.4</ele>
        <time>2024-08-11T06:10:32Z</time>
      </trkpt>
      <trkpt lat="44.98096" lon="6.40405">
        <ele>2253.4</ele>
        <time>2024-08-11T06:10:33Z</time>
      </trkpt>
      <trkpt lat="44.98094" lon="6.40407">
        <ele>2253.2</ele>
        <time>2024-08-11T06:10:34Z</time>
      </trkpt>
      <trkpt lat="44.98094" lon="6.40407">
        <ele>2253.2</ele>
        <time>2024-08-11T06:10:35Z</time>
      </trkpt>
      <trkpt lat="44.98094" lon="6.40407">
        <ele>2253.2</ele>
        <time>2024-08-11T06:10:36Z</time>
      </trkpt>
      <trkpt lat="44.98092" lon="6.4041">
        <ele>2253.4</ele>
        <time>2024-08-11T06:10:37Z</time>
      </trkpt>
      <trkpt lat="44.98091" lon="6.40411">
        <ele>2253.6</ele>
        <time>2024-08-11T06:10:38Z</time>
      </trkpt>
      <trkpt lat="44.98091" lon="6.40411">
        <ele>2253.6</ele>
        <time>2024-08-11T06:10:39Z</time>
      </trkpt>
      <trkpt lat="44.98089" lon="6.40414">
        <ele>2253.6</ele>
        <time>2024-08-11T06:10:40Z</time>
      </trkpt>
      <trkpt lat="44.98089" lon="6.40414">
        <ele>2253.6</ele>
        <time>2024-08-11T06:10:41Z</time>
      </trkpt>
      <trkpt lat="44.98087" lon="6.40416">
        <ele>2253.6</ele>
        <time>2024-08-11T06:10:42Z</time>
      </trkpt>
      <trkpt lat="44.98087" lon="6.40416">
        <ele>2253.6</ele>
        <time>2024-08-11T06:10:43Z</time>
      </trkpt>
      <trkpt lat="44.98085" lon="6.40418">
        <ele>2253.8</ele>
        <time>2024-08-11T06:10:44Z</time>
      </trkpt>
      <trkpt lat="44.98085" lon="6.40418">
        <ele>2254</ele>
        <time>2024-08-11T06:10:45Z</time>
      </trkpt>
      <trkpt lat="44.98083" lon="6.4042">
        <ele>2254</ele>
        <time>2024-08-11T06:10:46Z</time>
      </trkpt>
      <trkpt lat="44.98083" lon="6.4042">
        <ele>2254</ele>
        <time>2024-08-11T06:10:47Z</time>
      </trkpt>
      <trkpt lat="44.98081" lon="6.40422">
        <ele>2254</ele>
        <time>2024-08-11T06:10:48Z</time>
      </trkpt>
      <trkpt lat="44.98081" lon="6.40422">
        <ele>2254.2</ele>
        <time>2024-08-11T06:10:49Z</time>
      </trkpt>
      <trkpt lat="44.98081" lon="6.40422">
        <ele>2254.2</ele>
        <time>2024-08-11T06:10:50Z</time>
      </trkpt>
      <trkpt lat="44.98077" lon="6.40423">
        <ele>2254.2</ele>
        <time>2024-08-11T06:10:51Z</time>
      </trkpt>
      <trkpt lat="44.98076" lon="6.40424">
        <ele>2254.2</ele>
        <time>2024-08-11T06:10:52Z</time>
      </trkpt>
      <trkpt lat="44.98076" lon="6.40424">
        <ele>2254.4</ele>
        <time>2024-08-11T06:10:53Z</time>
      </trkpt>
      <trkpt lat="44.98073" lon="6.40425">
        <ele>2254.4</ele>
        <time>2024-08-11T06:10:54Z</time>
      </trkpt>
      <trkpt lat="44.98073" lon="6.40425">
        <ele>2254.6</ele>
        <time>2024-08-11T06:10:55Z</time>
      </trkpt>
      <trkpt lat="44.98073" lon="6.40425">
        <ele>2254.6</ele>
        <time>2024-08-11T06:10:56Z</time>
      </trkpt>
      <trkpt lat="44.9807" lon="6.40427">
        <ele>2255</ele>
        <time>2024-08-11T06:10:57Z</time>
      </trkpt>
      <trkpt lat="44.98069" lon="6.40428">
        <ele>2255</ele>
        <time>2024-08-11T06:10:58Z</time>
      </trkpt>
      <trkpt lat="44.98069" lon="6.40428">
        <ele>2255.2</ele>
        <time>2024-08-11T06:10:59Z</time>
      </trkpt>
      <trkpt lat="44.98066" lon="6.40429">
        <ele>2255.2</ele>
        <time>2024-08-11T06:11:00Z</time>
      </trkpt>
      <trkpt lat="44.98066" lon="6.40429">
        <ele>2255.4</ele>
        <time>2024-08-11T06:11:01Z</time>
      </trkpt>
      <trkpt lat="44.98066" lon="6.40429">
        <ele>2255.6</ele>
        <time>2024-08-11T06:11:02Z</time>
      </trkpt>
      <trkpt lat="44.98063" lon="6.40433">
        <ele>2255.6</ele>
        <time>2024-08-11T06:11:03Z</time>
      </trkpt>
      <trkpt lat="44.98062" lon="6.40434">
        <ele>2255.6</ele>
        <time>2024-08-11T06:11:04Z</time>
      </trkpt>
      <trkpt lat="44.98062" lon="6.40434">
        <ele>2255.8</ele>
        <time>2024-08-11T06:11:05Z</time>
      </trkpt>
      <trkpt lat="44.9806" lon="6.40436">
        <ele>2255.8</ele>
        <time>2024-08-11T06:11:06Z</time>
      </trkpt>
      <trkpt lat="44.9806" lon="6.40436">
        <ele>2255.8</ele>
        <time>2024-08-11T06:11:07Z</time>
      </trkpt>
      <trkpt lat="44.9806" lon="6.40436">
        <ele>2255.8</ele>
        <time>2024-08-11T06:11:08Z</time>
      </trkpt>
      <trkpt lat="44.98058" lon="6.40439">
        <ele>2256</ele>
        <time>2024-08-11T06:11:09Z</time>
      </trkpt>
      <trkpt lat="44.98058" lon="6.40441">
        <ele>2256</ele>
        <time>2024-08-11T06:11:10Z</time>
      </trkpt>
      <trkpt lat="44.98058" lon="6.40441">
        <ele>2256.2</ele>
        <time>2024-08-11T06:11:11Z</time>
      </trkpt>
      <trkpt lat="44.98058" lon="6.40444">
        <ele>2256.2</ele>
        <time>2024-08-11T06:11:12Z</time>
      </trkpt>
      <trkpt lat="44.98058" lon="6.40444">
        <ele>2256.2</ele>
        <time>2024-08-11T06:11:13Z</time>
      </trkpt>
      <trkpt lat="44.98058" lon="6.40444">
        <ele>2256.2</ele>
        <time>2024-08-11T06:11:14Z</time>
      </trkpt>
      <trkpt lat="44.98058" lon="6.40449">
        <ele>2256.2</ele>
        <time>2024-08-11T06:11:15Z</time>
      </trkpt>
      <trkpt lat="44.98057" lon="6.40451">
        <ele>2256.2</ele>
        <time>2024-08-11T06:11:16Z</time>
      </trkpt>
      <trkpt lat="44.98057" lon="6.40451">
        <ele>2256.2</ele>
        <time>2024-08-11T06:11:17Z</time>
      </trkpt>
      <trkpt lat="44.98057" lon="6.40451">
        <ele>2256.6</ele>
        <time>2024-08-11T06:11:18Z</time>
      </trkpt>
      <trkpt lat="44.98055" lon="6.40454">
        <ele>2256.8</ele>
        <time>2024-08-11T06:11:19Z</time>
      </trkpt>
      <trkpt lat="44.98055" lon="6.40454">
        <ele>2256.8</ele>
        <time>2024-08-11T06:11:20Z</time>
      </trkpt>
      <trkpt lat="44.98053" lon="6.40456">
        <ele>2256.8</ele>
        <time>2024-08-11T06:11:21Z</time>
      </trkpt>
      <trkpt lat="44.98053" lon="6.40456">
        <ele>2257</ele>
        <time>2024-08-11T06:11:22Z</time>
      </trkpt>
      <trkpt lat="44.98052" lon="6.40458">
        <ele>2257.4</ele>
        <time>2024-08-11T06:11:23Z</time>
      </trkpt>
      <trkpt lat="44.98052" lon="6.40458">
        <ele>2257.4</ele>
        <time>2024-08-11T06:11:24Z</time>
      </trkpt>
      <trkpt lat="44.98051" lon="6.4046">
        <ele>2257.2</ele>
        <time>2024-08-11T06:11:25Z</time>
      </trkpt>
      <trkpt lat="44.98051" lon="6.4046">
        <ele>2257.2</ele>
        <time>2024-08-11T06:11:26Z</time>
      </trkpt>
      <trkpt lat="44.98049" lon="6.40462">
        <ele>2257.2</ele>
        <time>2024-08-11T06:11:27Z</time>
      </trkpt>
      <trkpt lat="44.98049" lon="6.40462">
        <ele>2257.6</ele>
        <time>2024-08-11T06:11:28Z</time>
      </trkpt>
      <trkpt lat="44.98049" lon="6.40462">
        <ele>2257.6</ele>
        <time>2024-08-11T06:11:29Z</time>
      </trkpt>
      <trkpt lat="44.98047" lon="6.40465">
        <ele>2257.6</ele>
        <time>2024-08-11T06:11:30Z</time>
      </trkpt>
      <trkpt lat="44.98046" lon="6.40467">
        <ele>2257.8</ele>
        <time>2024-08-11T06:11:31Z</time>
      </trkpt>
      <trkpt lat="44.98046" lon="6.40467">
        <ele>2257.8</ele>
        <time>2024-08-11T06:11:32Z</time>
      </trkpt>
      <trkpt lat="44.98045" lon="6.40469">
        <ele>2257.8</ele>
        <time>2024-08-11T06:11:33Z</time>
      </trkpt>
      <trkpt lat="44.98045" lon="6.40469">
        <ele>2257.6</ele>
        <time>2024-08-11T06:11:34Z</time>
      </trkpt>
      <trkpt lat="44.98045" lon="6.40469">
        <ele>2257.6</ele>
        <time>2024-08-11T06:11:35Z</time>
      </trkpt>
      <trkpt lat="44.98042" lon="6.40472">
        <ele>2258.2</ele>
        <time>2024-08-11T06:11:36Z</time>
      </trkpt>
      <trkpt lat="44.98041" lon="6.40473">
        <ele>2258.2</ele>
        <time>2024-08-11T06:11:37Z</time>
      </trkpt>
      <trkpt lat="44.98041" lon="6.40473">
        <ele>2258.2</ele>
        <time>2024-08-11T06:11:38Z</time>
      </trkpt>
      <trkpt lat="44.9804" lon="6.40475">
        <ele>2258.2</ele>
        <time>2024-08-11T06:11:39Z</time>
      </trkpt>
      <trkpt lat="44.9804" lon="6.40475">
        <ele>2258.4</ele>
        <time>2024-08-11T06:11:40Z</time>
      </trkpt>
      <trkpt lat="44.9804" lon="6.40475">
        <ele>2258.4</ele>
        <time>2024-08-11T06:11:41Z</time>
      </trkpt>
      <trkpt lat="44.98038" lon="6.40477">
        <ele>2258.4</ele>
        <time>2024-08-11T06:11:42Z</time>
      </trkpt>
      <trkpt lat="44.98038" lon="6.40477">
        <ele>2258.2</ele>
        <time>2024-08-11T06:11:43Z</time>
      </trkpt>
      <trkpt lat="44.98038" lon="6.40477">
        <ele>2258.2</ele>
        <time>2024-08-11T06:11:44Z</time>
      </trkpt>
      <trkpt lat="44.98036" lon="6.40482">
        <ele>2258.4</ele>
        <time>2024-08-11T06:11:45Z</time>
      </trkpt>
      <trkpt lat="44.98036" lon="6.40483">
        <ele>2258.4</ele>
        <time>2024-08-11T06:11:46Z</time>
      </trkpt>
      <trkpt lat="44.98036" lon="6.40483">
        <ele>2258.4</ele>
        <time>2024-08-11T06:11:47Z</time>
      </trkpt>
      <trkpt lat="44.98034" lon="6.40486">
        <ele>2258.4</ele>
        <time>2024-08-11T06:11:48Z</time>
      </trkpt>
      <trkpt lat="44.98034" lon="6.40486">
        <ele>2258.6</ele>
        <time>2024-08-11T06:11:49Z</time>
      </trkpt>
      <trkpt lat="44.98034" lon="6.40486">
        <ele>2258.6</ele>
        <time>2024-08-11T06:11:50Z</time>
      </trkpt>
      <trkpt lat="44.98034" lon="6.40486">
        <ele>2258.6</ele>
        <time>2024-08-11T06:11:51Z</time>
      </trkpt>
      <trkpt lat="44.98033" lon="6.40489">
        <ele>2258.2</ele>
        <time>2024-08-11T06:11:52Z</time>
      </trkpt>
      <trkpt lat="44.98033" lon="6.40489">
        <ele>2258.2</ele>
        <time>2024-08-11T06:11:53Z</time>
      </trkpt>
      <trkpt lat="44.98033" lon="6.40489">
        <ele>2258.4</ele>
        <time>2024-08-11T06:11:54Z</time>
      </trkpt>
      <trkpt lat="44.98031" lon="6.40491">
        <ele>2258.6</ele>
        <time>2024-08-11T06:11:55Z</time>
      </trkpt>
      <trkpt lat="44.98031" lon="6.40491">
        <ele>2258.8</ele>
        <time>2024-08-11T06:11:56Z</time>
      </trkpt>
      <trkpt lat="44.98031" lon="6.40491">
        <ele>2258.8</ele>
        <time>2024-08-11T06:11:57Z</time>
      </trkpt>
      <trkpt lat="44.98028" lon="6.40491">
        <ele>2258.8</ele>
        <time>2024-08-11T06:11:58Z</time>
      </trkpt>
      <trkpt lat="44.98028" lon="6.40491">
        <ele>2258.8</ele>
        <time>2024-08-11T06:11:59Z</time>
      </trkpt>
      <trkpt lat="44.98026" lon="6.4049">
        <ele>2258.8</ele>
        <time>2024-08-11T06:12:00Z</time>
      </trkpt>
      <trkpt lat="44.98026" lon="6.4049">
        <ele>2258.8</ele>
        <time>2024-08-11T06:12:01Z</time>
      </trkpt>
      <trkpt lat="44.98026" lon="6.4049">
        <ele>2258.8</ele>
        <time>2024-08-11T06:12:02Z</time>
      </trkpt>
      <trkpt lat="44.98026" lon="6.4049">
        <ele>2258.8</ele>
        <time>2024-08-11T06:12:03Z</time>
      </trkpt>
      <trkpt lat="44.98026" lon="6.4049">
        <ele>2258.8</ele>
        <time>2024-08-11T06:12:04Z</time>
      </trkpt>
      <trkpt lat="44.98026" lon="6.4049">
        <ele>2258.8</ele>
        <time>2024-08-11T06:12:05Z</time>
      </trkpt>
      <trkpt lat="44.98026" lon="6.4049">
        <ele>2258.8</ele>
        <time>2024-08-11T06:12:06Z</time>
      </trkpt>
      <trkpt lat="44.98026" lon="6.4049">
        <ele>2258.8</ele>
        <time>2024-08-11T06:12:07Z</time>
      </trkpt>
      <trkpt lat="44.98026" lon="6.4049">
        <ele>2259</ele>
        <time>2024-08-11T06:12:08Z</time>
      </trkpt>
      <trkpt lat="44.98023" lon="6.4049">
        <ele>2259</ele>
        <time>2024-08-11T06:12:09Z</time>
      </trkpt>
      <trkpt lat="44.98023" lon="6.4049">
        <ele>2259</ele>
        <time>2024-08-11T06:12:10Z</time>
      </trkpt>
      <trkpt lat="44.98023" lon="6.4049">
        <ele>2259.2</ele>
        <time>2024-08-11T06:12:11Z</time>
      </trkpt>
      <trkpt lat="44.98021" lon="6.40492">
        <ele>2259.4</ele>
        <time>2024-08-11T06:12:12Z</time>
      </trkpt>
      <trkpt lat="44.9802" lon="6.40493">
        <ele>2259.4</ele>
        <time>2024-08-11T06:12:13Z</time>
      </trkpt>
      <trkpt lat="44.9802" lon="6.40493">
        <ele>2259.6</ele>
        <time>2024-08-11T06:12:14Z</time>
      </trkpt>
      <trkpt lat="44.9802" lon="6.40493">
        <ele>2260</ele>
        <time>2024-08-11T06:12:15Z</time>
      </trkpt>
      <trkpt lat="44.98018" lon="6.40493">
        <ele>2260.4</ele>
        <time>2024-08-11T06:12:16Z</time>
      </trkpt>
      <trkpt lat="44.98018" lon="6.40493">
        <ele>2260.4</ele>
        <time>2024-08-11T06:12:17Z</time>
      </trkpt>
      <trkpt lat="44.98018" lon="6.40493">
        <ele>2260.4</ele>
        <time>2024-08-11T06:12:18Z</time>
      </trkpt>
      <trkpt lat="44.98018" lon="6.40493">
        <ele>2260.4</ele>
        <time>2024-08-11T06:12:19Z</time>
      </trkpt>
      <trkpt lat="44.98018" lon="6.40493">
        <ele>2260.2</ele>
        <time>2024-08-11T06:12:20Z</time>
      </trkpt>
      <trkpt lat="44.98018" lon="6.40493">
        <ele>2260.2</ele>
        <time>2024-08-11T06:12:21Z</time>
      </trkpt>
      <trkpt lat="44.98018" lon="6.40493">
        <ele>2260.2</ele>
        <time>2024-08-11T06:12:22Z</time>
      </trkpt>
      <trkpt lat="44.98018" lon="6.40493">
        <ele>2260.6</ele>
        <time>2024-08-11T06:12:23Z</time>
      </trkpt>
      <trkpt lat="44.98016" lon="6.40494">
        <ele>2260.6</ele>
        <time>2024-08-11T06:12:24Z</time>
      </trkpt>
      <trkpt lat="44.98016" lon="6.40494">
        <ele>2260.6</ele>
        <time>2024-08-11T06:12:25Z</time>
      </trkpt>
      <trkpt lat="44.98016" lon="6.40494">
        <ele>2261</ele>
        <time>2024-08-11T06:12:26Z</time>
      </trkpt>
      <trkpt lat="44.98013" lon="6.40494">
        <ele>2261</ele>
        <time>2024-08-11T06:12:27Z</time>
      </trkpt>
      <trkpt lat="44.98012" lon="6.40493">
        <ele>2261</ele>
        <time>2024-08-11T06:12:28Z</time>
      </trkpt>
      <trkpt lat="44.98012" lon="6.40493">
        <ele>2261.2</ele>
        <time>2024-08-11T06:12:29Z</time>
      </trkpt>
      <trkpt lat="44.98012" lon="6.40493">
        <ele>2261.2</ele>
        <time>2024-08-11T06:12:30Z</time>
      </trkpt>
      <trkpt lat="44.9801" lon="6.40493">
        <ele>2261.4</ele>
        <time>2024-08-11T06:12:31Z</time>
      </trkpt>
      <trkpt lat="44.9801" lon="6.40493">
        <ele>2261.4</ele>
        <time>2024-08-11T06:12:32Z</time>
      </trkpt>
      <trkpt lat="44.9801" lon="6.40493">
        <ele>2261.6</ele>
        <time>2024-08-11T06:12:33Z</time>
      </trkpt>
      <trkpt lat="44.98007" lon="6.40495">
        <ele>2261.6</ele>
        <time>2024-08-11T06:12:34Z</time>
      </trkpt>
      <trkpt lat="44.98007" lon="6.40495">
        <ele>2261.8</ele>
        <time>2024-08-11T06:12:35Z</time>
      </trkpt>
      <trkpt lat="44.98006" lon="6.40497">
        <ele>2262</ele>
        <time>2024-08-11T06:12:36Z</time>
      </trkpt>
      <trkpt lat="44.98006" lon="6.40497">
        <ele>2262</ele>
        <time>2024-08-11T06:12:37Z</time>
      </trkpt>
      <trkpt lat="44.98006" lon="6.40497">
        <ele>2262</ele>
        <time>2024-08-11T06:12:38Z</time>
      </trkpt>
      <trkpt lat="44.98004" lon="6.40499">
        <ele>2262.2</ele>
        <time>2024-08-11T06:12:39Z</time>
      </trkpt>
      <trkpt lat="44.98004" lon="6.40499">
        <ele>2262.4</ele>
        <time>2024-08-11T06:12:40Z</time>
      </trkpt>
      <trkpt lat="44.98004" lon="6.40499">
        <ele>2262.6</ele>
        <time>2024-08-11T06:12:41Z</time>
      </trkpt>
      <trkpt lat="44.98001" lon="6.40501">
        <ele>2262.8</ele>
        <time>2024-08-11T06:12:42Z</time>
      </trkpt>
      <trkpt lat="44.98001" lon="6.40501">
        <ele>2262.8</ele>
        <time>2024-08-11T06:12:43Z</time>
      </trkpt>
      <trkpt lat="44.98001" lon="6.40501">
        <ele>2263</ele>
        <time>2024-08-11T06:12:44Z</time>
      </trkpt>
      <trkpt lat="44.97998" lon="6.40502">
        <ele>2263.2</ele>
        <time>2024-08-11T06:12:45Z</time>
      </trkpt>
      <trkpt lat="44.97998" lon="6.40502">
        <ele>2263.4</ele>
        <time>2024-08-11T06:12:46Z</time>
      </trkpt>
      <trkpt lat="44.97998" lon="6.40502">
        <ele>2263.4</ele>
        <time>2024-08-11T06:12:47Z</time>
      </trkpt>
      <trkpt lat="44.97995" lon="6.40503">
        <ele>2263.4</ele>
        <time>2024-08-11T06:12:48Z</time>
      </trkpt>
      <trkpt lat="44.97994" lon="6.40504">
        <ele>2263.4</ele>
        <time>2024-08-11T06:12:49Z</time>
      </trkpt>
      <trkpt lat="44.97994" lon="6.40504">
        <ele>2263.4</ele>
        <time>2024-08-11T06:12:50Z</time>
      </trkpt>
      <trkpt lat="44.97992" lon="6.40505">
        <ele>2263.6</ele>
        <time>2024-08-11T06:12:51Z</time>
      </trkpt>
      <trkpt lat="44.97992" lon="6.40505">
        <ele>2263.8</ele>
        <time>2024-08-11T06:12:52Z</time>
      </trkpt>
      <trkpt lat="44.97992" lon="6.40505">
        <ele>2263.8</ele>
        <time>2024-08-11T06:12:53Z</time>
      </trkpt>
      <trkpt lat="44.9799" lon="6.40508">
        <ele>2264</ele>
        <time>2024-08-11T06:12:54Z</time>
      </trkpt>
      <trkpt lat="44.9799" lon="6.40509">
        <ele>2264</ele>
        <time>2024-08-11T06:12:55Z</time>
      </trkpt>
      <trkpt lat="44.9799" lon="6.40509">
        <ele>2264.2</ele>
        <time>2024-08-11T06:12:56Z</time>
      </trkpt>
      <trkpt lat="44.97988" lon="6.40511">
        <ele>2264.4</ele>
        <time>2024-08-11T06:12:57Z</time>
      </trkpt>
      <trkpt lat="44.97988" lon="6.40511">
        <ele>2264.4</ele>
        <time>2024-08-11T06:12:58Z</time>
      </trkpt>
      <trkpt lat="44.97988" lon="6.40511">
        <ele>2264.4</ele>
        <time>2024-08-11T06:12:59Z</time>
      </trkpt>
      <trkpt lat="44.97986" lon="6.40514">
        <ele>2264.8</ele>
        <time>2024-08-11T06:13:00Z</time>
      </trkpt>
      <trkpt lat="44.97986" lon="6.40515">
        <ele>2264.8</ele>
        <time>2024-08-11T06:13:01Z</time>
      </trkpt>
      <trkpt lat="44.97986" lon="6.40515">
        <ele>2264.8</ele>
        <time>2024-08-11T06:13:02Z</time>
      </trkpt>
      <trkpt lat="44.97983" lon="6.40517">
        <ele>2264.8</ele>
        <time>2024-08-11T06:13:03Z</time>
      </trkpt>
      <trkpt lat="44.97983" lon="6.40517">
        <ele>2264.8</ele>
        <time>2024-08-11T06:13:04Z</time>
      </trkpt>
      <trkpt lat="44.97983" lon="6.40517">
        <ele>2265</ele>
        <time>2024-08-11T06:13:05Z</time>
      </trkpt>
      <trkpt lat="44.9798" lon="6.40519">
        <ele>2265</ele>
        <time>2024-08-11T06:13:06Z</time>
      </trkpt>
      <trkpt lat="44.9798" lon="6.40519">
        <ele>2264.8</ele>
        <time>2024-08-11T06:13:07Z</time>
      </trkpt>
      <trkpt lat="44.9798" lon="6.40519">
        <ele>2264.8</ele>
        <time>2024-08-11T06:13:08Z</time>
      </trkpt>
      <trkpt lat="44.97978" lon="6.4052">
        <ele>2265</ele>
        <time>2024-08-11T06:13:09Z</time>
      </trkpt>
      <trkpt lat="44.97977" lon="6.4052">
        <ele>2265.2</ele>
        <time>2024-08-11T06:13:10Z</time>
      </trkpt>
      <trkpt lat="44.97977" lon="6.4052">
        <ele>2265.2</ele>
        <time>2024-08-11T06:13:11Z</time>
      </trkpt>
      <trkpt lat="44.97974" lon="6.40519">
        <ele>2265.2</ele>
        <time>2024-08-11T06:13:12Z</time>
      </trkpt>
      <trkpt lat="44.97973" lon="6.40519">
        <ele>2265.2</ele>
        <time>2024-08-11T06:13:13Z</time>
      </trkpt>
      <trkpt lat="44.97973" lon="6.40519">
        <ele>2265.4</ele>
        <time>2024-08-11T06:13:14Z</time>
      </trkpt>
      <trkpt lat="44.97972" lon="6.4052">
        <ele>2265.6</ele>
        <time>2024-08-11T06:13:15Z</time>
      </trkpt>
      <trkpt lat="44.97972" lon="6.4052">
        <ele>2265.6</ele>
        <time>2024-08-11T06:13:16Z</time>
      </trkpt>
      <trkpt lat="44.97972" lon="6.4052">
        <ele>2265.8</ele>
        <time>2024-08-11T06:13:17Z</time>
      </trkpt>
      <trkpt lat="44.97969" lon="6.40521">
        <ele>2266</ele>
        <time>2024-08-11T06:13:18Z</time>
      </trkpt>
      <trkpt lat="44.97969" lon="6.40521">
        <ele>2266</ele>
        <time>2024-08-11T06:13:19Z</time>
      </trkpt>
      <trkpt lat="44.97969" lon="6.40521">
        <ele>2266</ele>
        <time>2024-08-11T06:13:20Z</time>
      </trkpt>
      <trkpt lat="44.97969" lon="6.40521">
        <ele>2266.2</ele>
        <time>2024-08-11T06:13:21Z</time>
      </trkpt>
      <trkpt lat="44.97969" lon="6.40521">
        <ele>2266.2</ele>
        <time>2024-08-11T06:13:22Z</time>
      </trkpt>
      <trkpt lat="44.97969" lon="6.40521">
        <ele>2266.6</ele>
        <time>2024-08-11T06:13:23Z</time>
      </trkpt>
      <trkpt lat="44.97966" lon="6.40522">
        <ele>2266.6</ele>
        <time>2024-08-11T06:13:24Z</time>
      </trkpt>
      <trkpt lat="44.97965" lon="6.40523">
        <ele>2266.8</ele>
        <time>2024-08-11T06:13:25Z</time>
      </trkpt>
      <trkpt lat="44.97965" lon="6.40523">
        <ele>2266.8</ele>
        <time>2024-08-11T06:13:26Z</time>
      </trkpt>
      <trkpt lat="44.97963" lon="6.40525">
        <ele>2267</ele>
        <time>2024-08-11T06:13:27Z</time>
      </trkpt>
      <trkpt lat="44.97963" lon="6.40525">
        <ele>2267</ele>
        <time>2024-08-11T06:13:28Z</time>
      </trkpt>
      <trkpt lat="44.97963" lon="6.40525">
        <ele>2267.2</ele>
        <time>2024-08-11T06:13:29Z</time>
      </trkpt>
      <trkpt lat="44.9796" lon="6.40526">
        <ele>2267.4</ele>
        <time>2024-08-11T06:13:30Z</time>
      </trkpt>
      <trkpt lat="44.97959" lon="6.40527">
        <ele>2267.6</ele>
        <time>2024-08-11T06:13:31Z</time>
      </trkpt>
      <trkpt lat="44.97959" lon="6.40527">
        <ele>2267.8</ele>
        <time>2024-08-11T06:13:32Z</time>
      </trkpt>
      <trkpt lat="44.97957" lon="6.40528">
        <ele>2267.8</ele>
        <time>2024-08-11T06:13:33Z</time>
      </trkpt>
      <trkpt lat="44.97957" lon="6.40528">
        <ele>2268</ele>
        <time>2024-08-11T06:13:34Z</time>
      </trkpt>
      <trkpt lat="44.97957" lon="6.40528">
        <ele>2268</ele>
        <time>2024-08-11T06:13:35Z</time>
      </trkpt>
      <trkpt lat="44.97955" lon="6.40528">
        <ele>2268.2</ele>
        <time>2024-08-11T06:13:36Z</time>
      </trkpt>
      <trkpt lat="44.97955" lon="6.40528">
        <ele>2268.4</ele>
        <time>2024-08-11T06:13:37Z</time>
      </trkpt>
      <trkpt lat="44.97955" lon="6.40528">
        <ele>2268.4</ele>
        <time>2024-08-11T06:13:38Z</time>
      </trkpt>
      <trkpt lat="44.97951" lon="6.4053">
        <ele>2268.6</ele>
        <time>2024-08-11T06:13:39Z</time>
      </trkpt>
      <trkpt lat="44.97951" lon="6.4053">
        <ele>2268.6</ele>
        <time>2024-08-11T06:13:40Z</time>
      </trkpt>
      <trkpt lat="44.97951" lon="6.4053">
        <ele>2268.6</ele>
        <time>2024-08-11T06:13:41Z</time>
      </trkpt>
      <trkpt lat="44.97951" lon="6.4053">
        <ele>2268.8</ele>
        <time>2024-08-11T06:13:42Z</time>
      </trkpt>
      <trkpt lat="44.97951" lon="6.4053">
        <ele>2268.8</ele>
        <time>2024-08-11T06:13:43Z</time>
      </trkpt>
      <trkpt lat="44.97951" lon="6.4053">
        <ele>2268.8</ele>
        <time>2024-08-11T06:13:44Z</time>
      </trkpt>
      <trkpt lat="44.97951" lon="6.4053">
        <ele>2269</ele>
        <time>2024-08-11T06:13:45Z</time>
      </trkpt>
      <trkpt lat="44.97951" lon="6.4053">
        <ele>2269</ele>
        <time>2024-08-11T06:13:46Z</time>
      </trkpt>
      <trkpt lat="44.97951" lon="6.4053">
        <ele>2269.2</ele>
        <time>2024-08-11T06:13:47Z</time>
      </trkpt>
      <trkpt lat="44.97951" lon="6.4053">
        <ele>2269</ele>
        <time>2024-08-11T06:13:48Z</time>
      </trkpt>
      <trkpt lat="44.97951" lon="6.4053">
        <ele>2269</ele>
        <time>2024-08-11T06:13:49Z</time>
      </trkpt>
      <trkpt lat="44.97951" lon="6.4053">
        <ele>2269</ele>
        <time>2024-08-11T06:13:50Z</time>
      </trkpt>
      <trkpt lat="44.97951" lon="6.4053">
        <ele>2269.2</ele>
        <time>2024-08-11T06:13:51Z</time>
      </trkpt>
      <trkpt lat="44.97951" lon="6.40531">
        <ele>2269.2</ele>
        <time>2024-08-11T06:13:52Z</time>
      </trkpt>
      <trkpt lat="44.97951" lon="6.40531">
        <ele>2269.2</ele>
        <time>2024-08-11T06:13:53Z</time>
      </trkpt>
      <trkpt lat="44.97949" lon="6.40534">
        <ele>2269.2</ele>
        <time>2024-08-11T06:13:54Z</time>
      </trkpt>
      <trkpt lat="44.97949" lon="6.40534">
        <ele>2269.2</ele>
        <time>2024-08-11T06:13:55Z</time>
      </trkpt>
      <trkpt lat="44.97949" lon="6.40534">
        <ele>2269.4</ele>
        <time>2024-08-11T06:13:56Z</time>
      </trkpt>
      <trkpt lat="44.97947" lon="6.40537">
        <ele>2269.6</ele>
        <time>2024-08-11T06:13:57Z</time>
      </trkpt>
      <trkpt lat="44.97945" lon="6.40538">
        <ele>2269.6</ele>
        <time>2024-08-11T06:13:58Z</time>
      </trkpt>
      <trkpt lat="44.97945" lon="6.40538">
        <ele>2269.6</ele>
        <time>2024-08-11T06:13:59Z</time>
      </trkpt>
      <trkpt lat="44.97943" lon="6.40538">
        <ele>2270</ele>
        <time>2024-08-11T06:14:00Z</time>
      </trkpt>
      <trkpt lat="44.97943" lon="6.40538">
        <ele>2270.2</ele>
        <time>2024-08-11T06:14:01Z</time>
      </trkpt>
      <trkpt lat="44.97943" lon="6.40538">
        <ele>2270.6</ele>
        <time>2024-08-11T06:14:02Z</time>
      </trkpt>
      <trkpt lat="44.97943" lon="6.40538">
        <ele>2270.6</ele>
        <time>2024-08-11T06:14:03Z</time>
      </trkpt>
      <trkpt lat="44.97942" lon="6.4054">
        <ele>2270.6</ele>
        <time>2024-08-11T06:14:04Z</time>
      </trkpt>
      <trkpt lat="44.97942" lon="6.4054">
        <ele>2271</ele>
        <time>2024-08-11T06:14:05Z</time>
      </trkpt>
      <trkpt lat="44.97942" lon="6.4054">
        <ele>2271.4</ele>
        <time>2024-08-11T06:14:06Z</time>
      </trkpt>
      <trkpt lat="44.97941" lon="6.40542">
        <ele>2271.6</ele>
        <time>2024-08-11T06:14:07Z</time>
      </trkpt>
      <trkpt lat="44.97941" lon="6.40542">
        <ele>2271.6</ele>
        <time>2024-08-11T06:14:08Z</time>
      </trkpt>
      <trkpt lat="44.97941" lon="6.40542">
        <ele>2272</ele>
        <time>2024-08-11T06:14:09Z</time>
      </trkpt>
      <trkpt lat="44.97939" lon="6.40543">
        <ele>2272</ele>
        <time>2024-08-11T06:14:10Z</time>
      </trkpt>
      <trkpt lat="44.97939" lon="6.40543">
        <ele>2272.4</ele>
        <time>2024-08-11T06:14:11Z</time>
      </trkpt>
      <trkpt lat="44.97939" lon="6.40543">
        <ele>2272.4</ele>
        <time>2024-08-11T06:14:12Z</time>
      </trkpt>
      <trkpt lat="44.97936" lon="6.40541">
        <ele>2272.6</ele>
        <time>2024-08-11T06:14:13Z</time>
      </trkpt>
      <trkpt lat="44.97936" lon="6.40541">
        <ele>2273</ele>
        <time>2024-08-11T06:14:14Z</time>
      </trkpt>
      <trkpt lat="44.97934" lon="6.40541">
        <ele>2273.2</ele>
        <time>2024-08-11T06:14:15Z</time>
      </trkpt>
      <trkpt lat="44.97934" lon="6.40541">
        <ele>2273.2</ele>
        <time>2024-08-11T06:14:16Z</time>
      </trkpt>
      <trkpt lat="44.97934" lon="6.40541">
        <ele>2273.6</ele>
        <time>2024-08-11T06:14:17Z</time>
      </trkpt>
      <trkpt lat="44.97932" lon="6.40541">
        <ele>2273.6</ele>
        <time>2024-08-11T06:14:18Z</time>
      </trkpt>
      <trkpt lat="44.97932" lon="6.40541">
        <ele>2274</ele>
        <time>2024-08-11T06:14:19Z</time>
      </trkpt>
      <trkpt lat="44.97932" lon="6.40541">
        <ele>2274</ele>
        <time>2024-08-11T06:14:20Z</time>
      </trkpt>
      <trkpt lat="44.97929" lon="6.40542">
        <ele>2274.4</ele>
        <time>2024-08-11T06:14:21Z</time>
      </trkpt>
      <trkpt lat="44.97928" lon="6.40543">
        <ele>2274.4</ele>
        <time>2024-08-11T06:14:22Z</time>
      </trkpt>
      <trkpt lat="44.97928" lon="6.40543">
        <ele>2274.8</ele>
        <time>2024-08-11T06:14:23Z</time>
      </trkpt>
      <trkpt lat="44.97926" lon="6.40543">
        <ele>2274.8</ele>
        <time>2024-08-11T06:14:24Z</time>
      </trkpt>
      <trkpt lat="44.97926" lon="6.40543">
        <ele>2274.8</ele>
        <time>2024-08-11T06:14:25Z</time>
      </trkpt>
      <trkpt lat="44.97926" lon="6.40543">
        <ele>2275</ele>
        <time>2024-08-11T06:14:26Z</time>
      </trkpt>
      <trkpt lat="44.97924" lon="6.40544">
        <ele>2275.2</ele>
        <time>2024-08-11T06:14:27Z</time>
      </trkpt>
      <trkpt lat="44.97924" lon="6.40544">
        <ele>2275.2</ele>
        <time>2024-08-11T06:14:28Z</time>
      </trkpt>
      <trkpt lat="44.97924" lon="6.40544">
        <ele>2275.2</ele>
        <time>2024-08-11T06:14:29Z</time>
      </trkpt>
      <trkpt lat="44.97921" lon="6.40545">
        <ele>2275.6</ele>
        <time>2024-08-11T06:14:30Z</time>
      </trkpt>
      <trkpt lat="44.9792" lon="6.40546">
        <ele>2275.8</ele>
        <time>2024-08-11T06:14:31Z</time>
      </trkpt>
      <trkpt lat="44.9792" lon="6.40546">
        <ele>2275.8</ele>
        <time>2024-08-11T06:14:32Z</time>
      </trkpt>
      <trkpt lat="44.9792" lon="6.40546">
        <ele>2276.2</ele>
        <time>2024-08-11T06:14:33Z</time>
      </trkpt>
      <trkpt lat="44.97918" lon="6.40547">
        <ele>2276.2</ele>
        <time>2024-08-11T06:14:34Z</time>
      </trkpt>
      <trkpt lat="44.97918" lon="6.40547">
        <ele>2276.4</ele>
        <time>2024-08-11T06:14:35Z</time>
      </trkpt>
      <trkpt lat="44.97917" lon="6.40548">
        <ele>2276.4</ele>
        <time>2024-08-11T06:14:36Z</time>
      </trkpt>
      <trkpt lat="44.97917" lon="6.40548">
        <ele>2276.6</ele>
        <time>2024-08-11T06:14:37Z</time>
      </trkpt>
      <trkpt lat="44.97917" lon="6.40548">
        <ele>2276.8</ele>
        <time>2024-08-11T06:14:38Z</time>
      </trkpt>
      <trkpt lat="44.97913" lon="6.40549">
        <ele>2276.8</ele>
        <time>2024-08-11T06:14:39Z</time>
      </trkpt>
      <trkpt lat="44.97913" lon="6.4055">
        <ele>2277</ele>
        <time>2024-08-11T06:14:40Z</time>
      </trkpt>
      <trkpt lat="44.97913" lon="6.4055">
        <ele>2277.4</ele>
        <time>2024-08-11T06:14:41Z</time>
      </trkpt>
      <trkpt lat="44.97911" lon="6.40551">
        <ele>2277.4</ele>
        <time>2024-08-11T06:14:42Z</time>
      </trkpt>
      <trkpt lat="44.97911" lon="6.40551">
        <ele>2277.6</ele>
        <time>2024-08-11T06:14:43Z</time>
      </trkpt>
      <trkpt lat="44.97911" lon="6.40551">
        <ele>2277.6</ele>
        <time>2024-08-11T06:14:44Z</time>
      </trkpt>
      <trkpt lat="44.97909" lon="6.40553">
        <ele>2278</ele>
        <time>2024-08-11T06:14:45Z</time>
      </trkpt>
      <trkpt lat="44.97909" lon="6.40553">
        <ele>2278.2</ele>
        <time>2024-08-11T06:14:46Z</time>
      </trkpt>
      <trkpt lat="44.97907" lon="6.40554">
        <ele>2278.4</ele>
        <time>2024-08-11T06:14:47Z</time>
      </trkpt>
      <trkpt lat="44.97907" lon="6.40554">
        <ele>2278.6</ele>
        <time>2024-08-11T06:14:48Z</time>
      </trkpt>
      <trkpt lat="44.97907" lon="6.40554">
        <ele>2278.8</ele>
        <time>2024-08-11T06:14:49Z</time>
      </trkpt>
      <trkpt lat="44.97907" lon="6.40554">
        <ele>2278.8</ele>
        <time>2024-08-11T06:14:50Z</time>
      </trkpt>
      <trkpt lat="44.97904" lon="6.40557">
        <ele>2279</ele>
        <time>2024-08-11T06:14:51Z</time>
      </trkpt>
      <trkpt lat="44.97903" lon="6.40558">
        <ele>2279.4</ele>
        <time>2024-08-11T06:14:52Z</time>
      </trkpt>
      <trkpt lat="44.97903" lon="6.40558">
        <ele>2279.6</ele>
        <time>2024-08-11T06:14:53Z</time>
      </trkpt>
      <trkpt lat="44.97903" lon="6.40558">
        <ele>2279.8</ele>
        <time>2024-08-11T06:14:54Z</time>
      </trkpt>
      <trkpt lat="44.97902" lon="6.4056">
        <ele>2280</ele>
        <time>2024-08-11T06:14:55Z</time>
      </trkpt>
      <trkpt lat="44.97902" lon="6.4056">
        <ele>2280.2</ele>
        <time>2024-08-11T06:14:56Z</time>
      </trkpt>
      <trkpt lat="44.97901" lon="6.40562">
        <ele>2280.6</ele>
        <time>2024-08-11T06:14:57Z</time>
      </trkpt>
      <trkpt lat="44.97901" lon="6.40562">
        <ele>2280.6</ele>
        <time>2024-08-11T06:14:58Z</time>
      </trkpt>
      <trkpt lat="44.97901" lon="6.40562">
        <ele>2280.8</ele>
        <time>2024-08-11T06:14:59Z</time>
      </trkpt>
      <trkpt lat="44.979" lon="6.40564">
        <ele>2280.8</ele>
        <time>2024-08-11T06:15:00Z</time>
      </trkpt>
      <trkpt lat="44.979" lon="6.40564">
        <ele>2281</ele>
        <time>2024-08-11T06:15:01Z</time>
      </trkpt>
      <trkpt lat="44.979" lon="6.40564">
        <ele>2281.4</ele>
        <time>2024-08-11T06:15:02Z</time>
      </trkpt>
      <trkpt lat="44.97897" lon="6.40564">
        <ele>2281.4</ele>
        <time>2024-08-11T06:15:03Z</time>
      </trkpt>
      <trkpt lat="44.97897" lon="6.40564">
        <ele>2282</ele>
        <time>2024-08-11T06:15:04Z</time>
      </trkpt>
      <trkpt lat="44.97897" lon="6.40564">
        <ele>2282</ele>
        <time>2024-08-11T06:15:05Z</time>
      </trkpt>
      <trkpt lat="44.97895" lon="6.40565">
        <ele>2282</ele>
        <time>2024-08-11T06:15:06Z</time>
      </trkpt>
      <trkpt lat="44.97895" lon="6.40565">
        <ele>2282.2</ele>
        <time>2024-08-11T06:15:07Z</time>
      </trkpt>
      <trkpt lat="44.97895" lon="6.40565">
        <ele>2282.4</ele>
        <time>2024-08-11T06:15:08Z</time>
      </trkpt>
      <trkpt lat="44.97894" lon="6.40567">
        <ele>2282.6</ele>
        <time>2024-08-11T06:15:09Z</time>
      </trkpt>
      <trkpt lat="44.97894" lon="6.40567">
        <ele>2283</ele>
        <time>2024-08-11T06:15:10Z</time>
      </trkpt>
      <trkpt lat="44.97894" lon="6.40567">
        <ele>2283.4</ele>
        <time>2024-08-11T06:15:11Z</time>
      </trkpt>
      <trkpt lat="44.97892" lon="6.40567">
        <ele>2283.6</ele>
        <time>2024-08-11T06:15:12Z</time>
      </trkpt>
      <trkpt lat="44.97892" lon="6.40567">
        <ele>2283.8</ele>
        <time>2024-08-11T06:15:13Z</time>
      </trkpt>
      <trkpt lat="44.97892" lon="6.40567">
        <ele>2283.8</ele>
        <time>2024-08-11T06:15:14Z</time>
      </trkpt>
      <trkpt lat="44.9789" lon="6.40568">
        <ele>2284</ele>
        <time>2024-08-11T06:15:15Z</time>
      </trkpt>
      <trkpt lat="44.9789" lon="6.40568">
        <ele>2284.2</ele>
        <time>2024-08-11T06:15:16Z</time>
      </trkpt>
      <trkpt lat="44.9789" lon="6.40568">
        <ele>2284.6</ele>
        <time>2024-08-11T06:15:17Z</time>
      </trkpt>
      <trkpt lat="44.97891" lon="6.40571">
        <ele>2285</ele>
        <time>2024-08-11T06:15:18Z</time>
      </trkpt>
      <trkpt lat="44.97891" lon="6.40571">
        <ele>2285.4</ele>
        <time>2024-08-11T06:15:19Z</time>
      </trkpt>
      <trkpt lat="44.97891" lon="6.40571">
        <ele>2285.4</ele>
        <time>2024-08-11T06:15:20Z</time>
      </trkpt>
      <trkpt lat="44.97892" lon="6.40574">
        <ele>2285.4</ele>
        <time>2024-08-11T06:15:21Z</time>
      </trkpt>
      <trkpt lat="44.97892" lon="6.40574">
        <ele>2285.6</ele>
        <time>2024-08-11T06:15:22Z</time>
      </trkpt>
      <trkpt lat="44.97892" lon="6.40574">
        <ele>2285.6</ele>
        <time>2024-08-11T06:15:23Z</time>
      </trkpt>
      <trkpt lat="44.97891" lon="6.40576">
        <ele>2285.6</ele>
        <time>2024-08-11T06:15:24Z</time>
      </trkpt>
      <trkpt lat="44.97891" lon="6.40576">
        <ele>2285.8</ele>
        <time>2024-08-11T06:15:25Z</time>
      </trkpt>
      <trkpt lat="44.97891" lon="6.40576">
        <ele>2286</ele>
        <time>2024-08-11T06:15:26Z</time>
      </trkpt>
      <trkpt lat="44.9789" lon="6.40579">
        <ele>2286.2</ele>
        <time>2024-08-11T06:15:27Z</time>
      </trkpt>
      <trkpt lat="44.9789" lon="6.40579">
        <ele>2286.4</ele>
        <time>2024-08-11T06:15:28Z</time>
      </trkpt>
      <trkpt lat="44.9789" lon="6.40579">
        <ele>2286.4</ele>
        <time>2024-08-11T06:15:29Z</time>
      </trkpt>
      <trkpt lat="44.97887" lon="6.40581">
        <ele>2286.8</ele>
        <time>2024-08-11T06:15:30Z</time>
      </trkpt>
      <trkpt lat="44.97887" lon="6.40581">
        <ele>2286.8</ele>
        <time>2024-08-11T06:15:31Z</time>
      </trkpt>
      <trkpt lat="44.97887" lon="6.40581">
        <ele>2287</ele>
        <time>2024-08-11T06:15:32Z</time>
      </trkpt>
      <trkpt lat="44.97887" lon="6.40581">
        <ele>2287</ele>
        <time>2024-08-11T06:15:33Z</time>
      </trkpt>
      <trkpt lat="44.97885" lon="6.40582">
        <ele>2287.2</ele>
        <time>2024-08-11T06:15:34Z</time>
      </trkpt>
      <trkpt lat="44.97885" lon="6.40582">
        <ele>2287.4</ele>
        <time>2024-08-11T06:15:35Z</time>
      </trkpt>
      <trkpt lat="44.97885" lon="6.40582">
        <ele>2287.6</ele>
        <time>2024-08-11T06:15:36Z</time>
      </trkpt>
      <trkpt lat="44.97883" lon="6.40583">
        <ele>2287.8</ele>
        <time>2024-08-11T06:15:37Z</time>
      </trkpt>
      <trkpt lat="44.97883" lon="6.40583">
        <ele>2288.2</ele>
        <time>2024-08-11T06:15:38Z</time>
      </trkpt>
      <trkpt lat="44.97883" lon="6.40583">
        <ele>2288.2</ele>
        <time>2024-08-11T06:15:39Z</time>
      </trkpt>
      <trkpt lat="44.97881" lon="6.40584">
        <ele>2288.4</ele>
        <time>2024-08-11T06:15:40Z</time>
      </trkpt>
      <trkpt lat="44.97881" lon="6.40584">
        <ele>2288.4</ele>
        <time>2024-08-11T06:15:41Z</time>
      </trkpt>
      <trkpt lat="44.97879" lon="6.40585">
        <ele>2288.8</ele>
        <time>2024-08-11T06:15:42Z</time>
      </trkpt>
      <trkpt lat="44.97879" lon="6.40585">
        <ele>2289.2</ele>
        <time>2024-08-11T06:15:43Z</time>
      </trkpt>
      <trkpt lat="44.97879" lon="6.40585">
        <ele>2289.2</ele>
        <time>2024-08-11T06:15:44Z</time>
      </trkpt>
      <trkpt lat="44.97877" lon="6.40586">
        <ele>2289.6</ele>
        <time>2024-08-11T06:15:45Z</time>
      </trkpt>
      <trkpt lat="44.97877" lon="6.40586">
        <ele>2289.6</ele>
        <time>2024-08-11T06:15:46Z</time>
      </trkpt>
      <trkpt lat="44.97877" lon="6.40586">
        <ele>2289.6</ele>
        <time>2024-08-11T06:15:47Z</time>
      </trkpt>
      <trkpt lat="44.97875" lon="6.40588">
        <ele>2290</ele>
        <time>2024-08-11T06:15:48Z</time>
      </trkpt>
      <trkpt lat="44.97875" lon="6.40588">
        <ele>2290</ele>
        <time>2024-08-11T06:15:49Z</time>
      </trkpt>
      <trkpt lat="44.97875" lon="6.40588">
        <ele>2290.4</ele>
        <time>2024-08-11T06:15:50Z</time>
      </trkpt>
      <trkpt lat="44.97872" lon="6.40589">
        <ele>2290.8</ele>
        <time>2024-08-11T06:15:51Z</time>
      </trkpt>
      <trkpt lat="44.97871" lon="6.4059">
        <ele>2290.8</ele>
        <time>2024-08-11T06:15:52Z</time>
      </trkpt>
      <trkpt lat="44.97871" lon="6.4059">
        <ele>2291</ele>
        <time>2024-08-11T06:15:53Z</time>
      </trkpt>
      <trkpt lat="44.97871" lon="6.4059">
        <ele>2291.2</ele>
        <time>2024-08-11T06:15:54Z</time>
      </trkpt>
      <trkpt lat="44.97869" lon="6.40591">
        <ele>2291.4</ele>
        <time>2024-08-11T06:15:55Z</time>
      </trkpt>
      <trkpt lat="44.97869" lon="6.40591">
        <ele>2291.6</ele>
        <time>2024-08-11T06:15:56Z</time>
      </trkpt>
      <trkpt lat="44.97869" lon="6.40591">
        <ele>2292</ele>
        <time>2024-08-11T06:15:57Z</time>
      </trkpt>
      <trkpt lat="44.97867" lon="6.40591">
        <ele>2292.2</ele>
        <time>2024-08-11T06:15:58Z</time>
      </trkpt>
      <trkpt lat="44.97867" lon="6.40591">
        <ele>2292.2</ele>
        <time>2024-08-11T06:15:59Z</time>
      </trkpt>
      <trkpt lat="44.97867" lon="6.40591">
        <ele>2292.2</ele>
        <time>2024-08-11T06:16:00Z</time>
      </trkpt>
      <trkpt lat="44.97865" lon="6.40592">
        <ele>2292.4</ele>
        <time>2024-08-11T06:16:01Z</time>
      </trkpt>
      <trkpt lat="44.97865" lon="6.40592">
        <ele>2292.8</ele>
        <time>2024-08-11T06:16:02Z</time>
      </trkpt>
      <trkpt lat="44.97865" lon="6.40592">
        <ele>2292.8</ele>
        <time>2024-08-11T06:16:03Z</time>
      </trkpt>
      <trkpt lat="44.97863" lon="6.40591">
        <ele>2293</ele>
        <time>2024-08-11T06:16:04Z</time>
      </trkpt>
      <trkpt lat="44.97863" lon="6.40591">
        <ele>2293.4</ele>
        <time>2024-08-11T06:16:05Z</time>
      </trkpt>
      <trkpt lat="44.97863" lon="6.40591">
        <ele>2293.4</ele>
        <time>2024-08-11T06:16:06Z</time>
      </trkpt>
      <trkpt lat="44.97861" lon="6.40592">
        <ele>2293.6</ele>
        <time>2024-08-11T06:16:07Z</time>
      </trkpt>
      <trkpt lat="44.97861" lon="6.40592">
        <ele>2294.4</ele>
        <time>2024-08-11T06:16:08Z</time>
      </trkpt>
      <trkpt lat="44.97861" lon="6.40592">
        <ele>2294.8</ele>
        <time>2024-08-11T06:16:09Z</time>
      </trkpt>
      <trkpt lat="44.97861" lon="6.40592">
        <ele>2294.8</ele>
        <time>2024-08-11T06:16:10Z</time>
      </trkpt>
      <trkpt lat="44.97861" lon="6.40592">
        <ele>2295</ele>
        <time>2024-08-11T06:16:11Z</time>
      </trkpt>
      <trkpt lat="44.97861" lon="6.40592">
        <ele>2295</ele>
        <time>2024-08-11T06:16:12Z</time>
      </trkpt>
      <trkpt lat="44.97861" lon="6.40592">
        <ele>2294.8</ele>
        <time>2024-08-11T06:16:13Z</time>
      </trkpt>
      <trkpt lat="44.97861" lon="6.40592">
        <ele>2294.8</ele>
        <time>2024-08-11T06:16:14Z</time>
      </trkpt>
      <trkpt lat="44.97861" lon="6.40592">
        <ele>2294.6</ele>
        <time>2024-08-11T06:16:15Z</time>
      </trkpt>
      <trkpt lat="44.97861" lon="6.40592">
        <ele>2294.6</ele>
        <time>2024-08-11T06:16:16Z</time>
      </trkpt>
      <trkpt lat="44.97861" lon="6.40592">
        <ele>2294.6</ele>
        <time>2024-08-11T06:16:17Z</time>
      </trkpt>
      <trkpt lat="44.97861" lon="6.40592">
        <ele>2294.6</ele>
        <time>2024-08-11T06:16:18Z</time>
      </trkpt>
      <trkpt lat="44.97861" lon="6.40592">
        <ele>2294.6</ele>
        <time>2024-08-11T06:16:19Z</time>
      </trkpt>
      <trkpt lat="44.97859" lon="6.40593">
        <ele>2295</ele>
        <time>2024-08-11T06:16:20Z</time>
      </trkpt>
      <trkpt lat="44.97859" lon="6.40593">
        <ele>2295.2</ele>
        <time>2024-08-11T06:16:21Z</time>
      </trkpt>
      <trkpt lat="44.97857" lon="6.40594">
        <ele>2295.2</ele>
        <time>2024-08-11T06:16:22Z</time>
      </trkpt>
      <trkpt lat="44.97857" lon="6.40594">
        <ele>2295.6</ele>
        <time>2024-08-11T06:16:23Z</time>
      </trkpt>
      <trkpt lat="44.97855" lon="6.40595">
        <ele>2295.6</ele>
        <time>2024-08-11T06:16:24Z</time>
      </trkpt>
      <trkpt lat="44.97855" lon="6.40595">
        <ele>2295.8</ele>
        <time>2024-08-11T06:16:25Z</time>
      </trkpt>
      <trkpt lat="44.97855" lon="6.40595">
        <ele>2295.8</ele>
        <time>2024-08-11T06:16:26Z</time>
      </trkpt>
      <trkpt lat="44.97853" lon="6.40595">
        <ele>2296.2</ele>
        <time>2024-08-11T06:16:27Z</time>
      </trkpt>
      <trkpt lat="44.97853" lon="6.40595">
        <ele>2296.4</ele>
        <time>2024-08-11T06:16:28Z</time>
      </trkpt>
      <trkpt lat="44.97853" lon="6.40595">
        <ele>2296.4</ele>
        <time>2024-08-11T06:16:29Z</time>
      </trkpt>
      <trkpt lat="44.97851" lon="6.40595">
        <ele>2297</ele>
        <time>2024-08-11T06:16:30Z</time>
      </trkpt>
      <trkpt lat="44.97851" lon="6.40595">
        <ele>2297.2</ele>
        <time>2024-08-11T06:16:31Z</time>
      </trkpt>
      <trkpt lat="44.97851" lon="6.40595">
        <ele>2297.2</ele>
        <time>2024-08-11T06:16:32Z</time>
      </trkpt>
      <trkpt lat="44.97849" lon="6.40595">
        <ele>2297.4</ele>
        <time>2024-08-11T06:16:33Z</time>
      </trkpt>
      <trkpt lat="44.97849" lon="6.40595">
        <ele>2297.6</ele>
        <time>2024-08-11T06:16:34Z</time>
      </trkpt>
      <trkpt lat="44.97849" lon="6.40595">
        <ele>2297.8</ele>
        <time>2024-08-11T06:16:35Z</time>
      </trkpt>
      <trkpt lat="44.97849" lon="6.40595">
        <ele>2297.8</ele>
        <time>2024-08-11T06:16:36Z</time>
      </trkpt>
      <trkpt lat="44.97846" lon="6.40594">
        <ele>2297.8</ele>
        <time>2024-08-11T06:16:37Z</time>
      </trkpt>
      <trkpt lat="44.97846" lon="6.40594">
        <ele>2298.2</ele>
        <time>2024-08-11T06:16:38Z</time>
      </trkpt>
      <trkpt lat="44.97846" lon="6.40594">
        <ele>2298.6</ele>
        <time>2024-08-11T06:16:39Z</time>
      </trkpt>
      <trkpt lat="44.97846" lon="6.40594">
        <ele>2298.8</ele>
        <time>2024-08-11T06:16:40Z</time>
      </trkpt>
      <trkpt lat="44.97844" lon="6.40594">
        <ele>2298.8</ele>
        <time>2024-08-11T06:16:41Z</time>
      </trkpt>
      <trkpt lat="44.97844" lon="6.40594">
        <ele>2299.2</ele>
        <time>2024-08-11T06:16:42Z</time>
      </trkpt>
      <trkpt lat="44.97842" lon="6.40595">
        <ele>2299.4</ele>
        <time>2024-08-11T06:16:43Z</time>
      </trkpt>
      <trkpt lat="44.97842" lon="6.40595">
        <ele>2299.6</ele>
        <time>2024-08-11T06:16:44Z</time>
      </trkpt>
      <trkpt lat="44.97842" lon="6.40595">
        <ele>2299.6</ele>
        <time>2024-08-11T06:16:45Z</time>
      </trkpt>
      <trkpt lat="44.97839" lon="6.40595">
        <ele>2299.8</ele>
        <time>2024-08-11T06:16:46Z</time>
      </trkpt>
      <trkpt lat="44.97839" lon="6.40595">
        <ele>2300.2</ele>
        <time>2024-08-11T06:16:47Z</time>
      </trkpt>
      <trkpt lat="44.97839" lon="6.40595">
        <ele>2300.4</ele>
        <time>2024-08-11T06:16:48Z</time>
      </trkpt>
      <trkpt lat="44.97839" lon="6.40595">
        <ele>2300.8</ele>
        <time>2024-08-11T06:16:49Z</time>
      </trkpt>
      <trkpt lat="44.97839" lon="6.40595">
        <ele>2300.8</ele>
        <time>2024-08-11T06:16:50Z</time>
      </trkpt>
      <trkpt lat="44.97838" lon="6.40598">
        <ele>2301</ele>
        <time>2024-08-11T06:16:51Z</time>
      </trkpt>
      <trkpt lat="44.97838" lon="6.40598">
        <ele>2301.2</ele>
        <time>2024-08-11T06:16:52Z</time>
      </trkpt>
      <trkpt lat="44.97838" lon="6.40598">
        <ele>2301.4</ele>
        <time>2024-08-11T06:16:53Z</time>
      </trkpt>
      <trkpt lat="44.97836" lon="6.406">
        <ele>2301.6</ele>
        <time>2024-08-11T06:16:54Z</time>
      </trkpt>
      <trkpt lat="44.97836" lon="6.406">
        <ele>2301.6</ele>
        <time>2024-08-11T06:16:55Z</time>
      </trkpt>
      <trkpt lat="44.97836" lon="6.406">
        <ele>2301.8</ele>
        <time>2024-08-11T06:16:56Z</time>
      </trkpt>
      <trkpt lat="44.97836" lon="6.40602">
        <ele>2302</ele>
        <time>2024-08-11T06:16:57Z</time>
      </trkpt>
      <trkpt lat="44.97836" lon="6.40602">
        <ele>2302.4</ele>
        <time>2024-08-11T06:16:58Z</time>
      </trkpt>
      <trkpt lat="44.97836" lon="6.40602">
        <ele>2302.6</ele>
        <time>2024-08-11T06:16:59Z</time>
      </trkpt>
      <trkpt lat="44.97834" lon="6.40604">
        <ele>2302.8</ele>
        <time>2024-08-11T06:17:00Z</time>
      </trkpt>
      <trkpt lat="44.97834" lon="6.40604">
        <ele>2302.8</ele>
        <time>2024-08-11T06:17:01Z</time>
      </trkpt>
      <trkpt lat="44.97834" lon="6.40604">
        <ele>2303.2</ele>
        <time>2024-08-11T06:17:02Z</time>
      </trkpt>
      <trkpt lat="44.97833" lon="6.40607">
        <ele>2303.2</ele>
        <time>2024-08-11T06:17:03Z</time>
      </trkpt>
      <trkpt lat="44.97833" lon="6.40607">
        <ele>2303.4</ele>
        <time>2024-08-11T06:17:04Z</time>
      </trkpt>
      <trkpt lat="44.97833" lon="6.40607">
        <ele>2303.8</ele>
        <time>2024-08-11T06:17:05Z</time>
      </trkpt>
      <trkpt lat="44.97831" lon="6.40609">
        <ele>2304.2</ele>
        <time>2024-08-11T06:17:06Z</time>
      </trkpt>
      <trkpt lat="44.97831" lon="6.40609">
        <ele>2304.2</ele>
        <time>2024-08-11T06:17:07Z</time>
      </trkpt>
      <trkpt lat="44.97831" lon="6.40609">
        <ele>2304.2</ele>
        <time>2024-08-11T06:17:08Z</time>
      </trkpt>
      <trkpt lat="44.9783" lon="6.40611">
        <ele>2304.4</ele>
        <time>2024-08-11T06:17:09Z</time>
      </trkpt>
      <trkpt lat="44.9783" lon="6.40611">
        <ele>2304.8</ele>
        <time>2024-08-11T06:17:10Z</time>
      </trkpt>
      <trkpt lat="44.9783" lon="6.40611">
        <ele>2305.2</ele>
        <time>2024-08-11T06:17:11Z</time>
      </trkpt>
      <trkpt lat="44.9783" lon="6.40611">
        <ele>2305.4</ele>
        <time>2024-08-11T06:17:12Z</time>
      </trkpt>
      <trkpt lat="44.9783" lon="6.40614">
        <ele>2305.6</ele>
        <time>2024-08-11T06:17:13Z</time>
      </trkpt>
      <trkpt lat="44.9783" lon="6.40614">
        <ele>2305.8</ele>
        <time>2024-08-11T06:17:14Z</time>
      </trkpt>
      <trkpt lat="44.9783" lon="6.40614">
        <ele>2305.8</ele>
        <time>2024-08-11T06:17:15Z</time>
      </trkpt>
      <trkpt lat="44.97831" lon="6.40617">
        <ele>2305.8</ele>
        <time>2024-08-11T06:17:16Z</time>
      </trkpt>
      <trkpt lat="44.97831" lon="6.40617">
        <ele>2306</ele>
        <time>2024-08-11T06:17:17Z</time>
      </trkpt>
      <trkpt lat="44.97831" lon="6.40617">
        <ele>2306.6</ele>
        <time>2024-08-11T06:17:18Z</time>
      </trkpt>
      <trkpt lat="44.97831" lon="6.4062">
        <ele>2306.6</ele>
        <time>2024-08-11T06:17:19Z</time>
      </trkpt>
      <trkpt lat="44.97831" lon="6.4062">
        <ele>2307</ele>
        <time>2024-08-11T06:17:20Z</time>
      </trkpt>
      <trkpt lat="44.97831" lon="6.4062">
        <ele>2307</ele>
        <time>2024-08-11T06:17:21Z</time>
      </trkpt>
      <trkpt lat="44.97831" lon="6.40624">
        <ele>2307.4</ele>
        <time>2024-08-11T06:17:22Z</time>
      </trkpt>
      <trkpt lat="44.97831" lon="6.40624">
        <ele>2307.4</ele>
        <time>2024-08-11T06:17:23Z</time>
      </trkpt>
      <trkpt lat="44.97829" lon="6.40627">
        <ele>2307.4</ele>
        <time>2024-08-11T06:17:24Z</time>
      </trkpt>
      <trkpt lat="44.97829" lon="6.40627">
        <ele>2307.2</ele>
        <time>2024-08-11T06:17:25Z</time>
      </trkpt>
      <trkpt lat="44.97829" lon="6.40627">
        <ele>2307.2</ele>
        <time>2024-08-11T06:17:26Z</time>
      </trkpt>
      <trkpt lat="44.97827" lon="6.40629">
        <ele>2307.4</ele>
        <time>2024-08-11T06:17:27Z</time>
      </trkpt>
      <trkpt lat="44.97827" lon="6.40629">
        <ele>2307.4</ele>
        <time>2024-08-11T06:17:28Z</time>
      </trkpt>
      <trkpt lat="44.97827" lon="6.40629">
        <ele>2307.8</ele>
        <time>2024-08-11T06:17:29Z</time>
      </trkpt>
      <trkpt lat="44.97827" lon="6.40629">
        <ele>2308</ele>
        <time>2024-08-11T06:17:30Z</time>
      </trkpt>
      <trkpt lat="44.97825" lon="6.40632">
        <ele>2308.2</ele>
        <time>2024-08-11T06:17:31Z</time>
      </trkpt>
      <trkpt lat="44.97825" lon="6.40632">
        <ele>2308.2</ele>
        <time>2024-08-11T06:17:32Z</time>
      </trkpt>
      <trkpt lat="44.97824" lon="6.40633">
        <ele>2308.6</ele>
        <time>2024-08-11T06:17:33Z</time>
      </trkpt>
      <trkpt lat="44.97824" lon="6.40633">
        <ele>2308.6</ele>
        <time>2024-08-11T06:17:34Z</time>
      </trkpt>
      <trkpt lat="44.97822" lon="6.40634">
        <ele>2308.8</ele>
        <time>2024-08-11T06:17:35Z</time>
      </trkpt>
      <trkpt lat="44.97822" lon="6.40634">
        <ele>2309</ele>
        <time>2024-08-11T06:17:36Z</time>
      </trkpt>
      <trkpt lat="44.97822" lon="6.40634">
        <ele>2309.6</ele>
        <time>2024-08-11T06:17:37Z</time>
      </trkpt>
      <trkpt lat="44.9782" lon="6.40636">
        <ele>2309.6</ele>
        <time>2024-08-11T06:17:38Z</time>
      </trkpt>
      <trkpt lat="44.9782" lon="6.40636">
        <ele>2310</ele>
        <time>2024-08-11T06:17:39Z</time>
      </trkpt>
      <trkpt lat="44.97818" lon="6.40637">
        <ele>2310.2</ele>
        <time>2024-08-11T06:17:40Z</time>
      </trkpt>
      <trkpt lat="44.97818" lon="6.40637">
        <ele>2310.4</ele>
        <time>2024-08-11T06:17:41Z</time>
      </trkpt>
      <trkpt lat="44.97816" lon="6.40639">
        <ele>2310.4</ele>
        <time>2024-08-11T06:17:42Z</time>
      </trkpt>
      <trkpt lat="44.97816" lon="6.40639">
        <ele>2310.4</ele>
        <time>2024-08-11T06:17:43Z</time>
      </trkpt>
      <trkpt lat="44.97814" lon="6.4064">
        <ele>2310.4</ele>
        <time>2024-08-11T06:17:44Z</time>
      </trkpt>
      <trkpt lat="44.97814" lon="6.4064">
        <ele>2310.8</ele>
        <time>2024-08-11T06:17:45Z</time>
      </trkpt>
      <trkpt lat="44.97812" lon="6.4064">
        <ele>2311</ele>
        <time>2024-08-11T06:17:46Z</time>
      </trkpt>
      <trkpt lat="44.97812" lon="6.4064">
        <ele>2311.2</ele>
        <time>2024-08-11T06:17:47Z</time>
      </trkpt>
      <trkpt lat="44.97812" lon="6.4064">
        <ele>2311.6</ele>
        <time>2024-08-11T06:17:48Z</time>
      </trkpt>
      <trkpt lat="44.9781" lon="6.40642">
        <ele>2311.6</ele>
        <time>2024-08-11T06:17:49Z</time>
      </trkpt>
      <trkpt lat="44.9781" lon="6.40642">
        <ele>2311.8</ele>
        <time>2024-08-11T06:17:50Z</time>
      </trkpt>
      <trkpt lat="44.9781" lon="6.40642">
        <ele>2312</ele>
        <time>2024-08-11T06:17:51Z</time>
      </trkpt>
      <trkpt lat="44.97808" lon="6.40644">
        <ele>2312</ele>
        <time>2024-08-11T06:17:52Z</time>
      </trkpt>
      <trkpt lat="44.97808" lon="6.40644">
        <ele>2312</ele>
        <time>2024-08-11T06:17:53Z</time>
      </trkpt>
      <trkpt lat="44.97808" lon="6.40644">
        <ele>2312.4</ele>
        <time>2024-08-11T06:17:54Z</time>
      </trkpt>
      <trkpt lat="44.97805" lon="6.40645">
        <ele>2312.8</ele>
        <time>2024-08-11T06:17:55Z</time>
      </trkpt>
      <trkpt lat="44.97805" lon="6.40645">
        <ele>2312.8</ele>
        <time>2024-08-11T06:17:56Z</time>
      </trkpt>
      <trkpt lat="44.97804" lon="6.40645">
        <ele>2313</ele>
        <time>2024-08-11T06:17:57Z</time>
      </trkpt>
      <trkpt lat="44.97804" lon="6.40645">
        <ele>2313.2</ele>
        <time>2024-08-11T06:17:58Z</time>
      </trkpt>
      <trkpt lat="44.97804" lon="6.40645">
        <ele>2313.2</ele>
        <time>2024-08-11T06:17:59Z</time>
      </trkpt>
      <trkpt lat="44.97804" lon="6.40645">
        <ele>2313.4</ele>
        <time>2024-08-11T06:18:00Z</time>
      </trkpt>
      <trkpt lat="44.97804" lon="6.40645">
        <ele>2313.6</ele>
        <time>2024-08-11T06:18:01Z</time>
      </trkpt>
      <trkpt lat="44.97804" lon="6.40645">
        <ele>2314</ele>
        <time>2024-08-11T06:18:02Z</time>
      </trkpt>
      <trkpt lat="44.97804" lon="6.40645">
        <ele>2314</ele>
        <time>2024-08-11T06:18:03Z</time>
      </trkpt>
      <trkpt lat="44.97804" lon="6.40645">
        <ele>2314</ele>
        <time>2024-08-11T06:18:04Z</time>
      </trkpt>
      <trkpt lat="44.97804" lon="6.40645">
        <ele>2314</ele>
        <time>2024-08-11T06:18:05Z</time>
      </trkpt>
      <trkpt lat="44.97804" lon="6.40645">
        <ele>2314.2</ele>
        <time>2024-08-11T06:18:06Z</time>
      </trkpt>
      <trkpt lat="44.97804" lon="6.40645">
        <ele>2314.2</ele>
        <time>2024-08-11T06:18:07Z</time>
      </trkpt>
      <trkpt lat="44.97804" lon="6.40645">
        <ele>2314</ele>
        <time>2024-08-11T06:18:08Z</time>
      </trkpt>
      <trkpt lat="44.97804" lon="6.40645">
        <ele>2314</ele>
        <time>2024-08-11T06:18:09Z</time>
      </trkpt>
      <trkpt lat="44.97804" lon="6.40645">
        <ele>2314.2</ele>
        <time>2024-08-11T06:18:10Z</time>
      </trkpt>
      <trkpt lat="44.97804" lon="6.40645">
        <ele>2314.2</ele>
        <time>2024-08-11T06:18:11Z</time>
      </trkpt>
      <trkpt lat="44.97804" lon="6.40645">
        <ele>2314</ele>
        <time>2024-08-11T06:18:12Z</time>
      </trkpt>
      <trkpt lat="44.97804" lon="6.40645">
        <ele>2314</ele>
        <time>2024-08-11T06:18:13Z</time>
      </trkpt>
      <trkpt lat="44.97804" lon="6.40645">
        <ele>2314.2</ele>
        <time>2024-08-11T06:18:14Z</time>
      </trkpt>
      <trkpt lat="44.97804" lon="6.40645">
        <ele>2314.2</ele>
        <time>2024-08-11T06:18:16Z</time>
      </trkpt>
      <trkpt lat="44.97804" lon="6.40645">
        <ele>2314.2</ele>
        <time>2024-08-11T06:18:17Z</time>
      </trkpt>
      <trkpt lat="44.97804" lon="6.40645">
        <ele>2314.2</ele>
        <time>2024-08-11T06:18:18Z</time>
      </trkpt>
      <trkpt lat="44.97804" lon="6.40645">
        <ele>2314.2</ele>
        <time>2024-08-11T06:18:19Z</time>
      </trkpt>
      <trkpt lat="44.97804" lon="6.40645">
        <ele>2314.4</ele>
        <time>2024-08-11T06:18:20Z</time>
      </trkpt>
      <trkpt lat="44.97804" lon="6.40645">
        <ele>2314.4</ele>
        <time>2024-08-11T06:18:21Z</time>
      </trkpt>
      <trkpt lat="44.97804" lon="6.40645">
        <ele>2314.4</ele>
        <time>2024-08-11T06:18:22Z</time>
      </trkpt>
      <trkpt lat="44.97804" lon="6.40645">
        <ele>2314.4</ele>
        <time>2024-08-11T06:18:23Z</time>
      </trkpt>
      <trkpt lat="44.97804" lon="6.40645">
        <ele>2314.4</ele>
        <time>2024-08-11T06:18:24Z</time>
      </trkpt>
      <trkpt lat="44.97804" lon="6.40645">
        <ele>2314.4</ele>
        <time>2024-08-11T06:18:25Z</time>
      </trkpt>
      <trkpt lat="44.97804" lon="6.40645">
        <ele>2314.2</ele>
        <time>2024-08-11T06:18:26Z</time>
      </trkpt>
      <trkpt lat="44.97804" lon="6.40645">
        <ele>2314.2</ele>
        <time>2024-08-11T06:18:27Z</time>
      </trkpt>
      <trkpt lat="44.97804" lon="6.40645">
        <ele>2314.2</ele>
        <time>2024-08-11T06:18:28Z</time>
      </trkpt>
      <trkpt lat="44.97804" lon="6.40645">
        <ele>2314.2</ele>
        <time>2024-08-11T06:18:29Z</time>
      </trkpt>
      <trkpt lat="44.97804" lon="6.40645">
        <ele>2314.2</ele>
        <time>2024-08-11T06:18:30Z</time>
      </trkpt>
      <trkpt lat="44.97804" lon="6.40645">
        <ele>2314.2</ele>
        <time>2024-08-11T06:18:31Z</time>
      </trkpt>
      <trkpt lat="44.97804" lon="6.40645">
        <ele>2314.6</ele>
        <time>2024-08-11T06:18:32Z</time>
      </trkpt>
      <trkpt lat="44.97804" lon="6.40645">
        <ele>2314.6</ele>
        <time>2024-08-11T06:18:33Z</time>
      </trkpt>
      <trkpt lat="44.97802" lon="6.40647">
        <ele>2314.6</ele>
        <time>2024-08-11T06:18:34Z</time>
      </trkpt>
      <trkpt lat="44.97802" lon="6.40647">
        <ele>2314.6</ele>
        <time>2024-08-11T06:18:35Z</time>
      </trkpt>
      <trkpt lat="44.978" lon="6.40649">
        <ele>2314.8</ele>
        <time>2024-08-11T06:18:36Z</time>
      </trkpt>
      <trkpt lat="44.978" lon="6.40649">
        <ele>2315.2</ele>
        <time>2024-08-11T06:18:37Z</time>
      </trkpt>
      <trkpt lat="44.97799" lon="6.40652">
        <ele>2315.2</ele>
        <time>2024-08-11T06:18:38Z</time>
      </trkpt>
      <trkpt lat="44.97799" lon="6.40652">
        <ele>2315</ele>
        <time>2024-08-11T06:18:39Z</time>
      </trkpt>
      <trkpt lat="44.97797" lon="6.40654">
        <ele>2315</ele>
        <time>2024-08-11T06:18:40Z</time>
      </trkpt>
      <trkpt lat="44.97797" lon="6.40654">
        <ele>2315.4</ele>
        <time>2024-08-11T06:18:41Z</time>
      </trkpt>
      <trkpt lat="44.97795" lon="6.40655">
        <ele>2315.8</ele>
        <time>2024-08-11T06:18:42Z</time>
      </trkpt>
      <trkpt lat="44.97795" lon="6.40655">
        <ele>2315.8</ele>
        <time>2024-08-11T06:18:43Z</time>
      </trkpt>
      <trkpt lat="44.97793" lon="6.40655">
        <ele>2315.8</ele>
        <time>2024-08-11T06:18:44Z</time>
      </trkpt>
      <trkpt lat="44.97793" lon="6.40655">
        <ele>2316</ele>
        <time>2024-08-11T06:18:45Z</time>
      </trkpt>
      <trkpt lat="44.97791" lon="6.40655">
        <ele>2316</ele>
        <time>2024-08-11T06:18:46Z</time>
      </trkpt>
      <trkpt lat="44.97791" lon="6.40655">
        <ele>2316.4</ele>
        <time>2024-08-11T06:18:47Z</time>
      </trkpt>
      <trkpt lat="44.97789" lon="6.40655">
        <ele>2316.6</ele>
        <time>2024-08-11T06:18:48Z</time>
      </trkpt>
      <trkpt lat="44.97789" lon="6.40655">
        <ele>2317</ele>
        <time>2024-08-11T06:18:49Z</time>
      </trkpt>
      <trkpt lat="44.97789" lon="6.40655">
        <ele>2317</ele>
        <time>2024-08-11T06:18:50Z</time>
      </trkpt>
      <trkpt lat="44.97786" lon="6.40656">
        <ele>2317.2</ele>
        <time>2024-08-11T06:18:51Z</time>
      </trkpt>
      <trkpt lat="44.97786" lon="6.40656">
        <ele>2317.2</ele>
        <time>2024-08-11T06:18:52Z</time>
      </trkpt>
      <trkpt lat="44.97786" lon="6.40656">
        <ele>2317.4</ele>
        <time>2024-08-11T06:18:53Z</time>
      </trkpt>
      <trkpt lat="44.97786" lon="6.40656">
        <ele>2317.6</ele>
        <time>2024-08-11T06:18:54Z</time>
      </trkpt>
      <trkpt lat="44.97784" lon="6.40658">
        <ele>2317.8</ele>
        <time>2024-08-11T06:18:55Z</time>
      </trkpt>
      <trkpt lat="44.97784" lon="6.40658">
        <ele>2318</ele>
        <time>2024-08-11T06:18:56Z</time>
      </trkpt>
      <trkpt lat="44.97784" lon="6.40658">
        <ele>2318.6</ele>
        <time>2024-08-11T06:18:57Z</time>
      </trkpt>
      <trkpt lat="44.97782" lon="6.40659">
        <ele>2318.8</ele>
        <time>2024-08-11T06:18:58Z</time>
      </trkpt>
      <trkpt lat="44.97782" lon="6.40659">
        <ele>2318.8</ele>
        <time>2024-08-11T06:18:59Z</time>
      </trkpt>
      <trkpt lat="44.97782" lon="6.40659">
        <ele>2319</ele>
        <time>2024-08-11T06:19:00Z</time>
      </trkpt>
      <trkpt lat="44.97781" lon="6.40661">
        <ele>2319.4</ele>
        <time>2024-08-11T06:19:01Z</time>
      </trkpt>
      <trkpt lat="44.97781" lon="6.40661">
        <ele>2319.8</ele>
        <time>2024-08-11T06:19:02Z</time>
      </trkpt>
      <trkpt lat="44.97779" lon="6.40662">
        <ele>2319.8</ele>
        <time>2024-08-11T06:19:03Z</time>
      </trkpt>
      <trkpt lat="44.97779" lon="6.40662">
        <ele>2319.8</ele>
        <time>2024-08-11T06:19:04Z</time>
      </trkpt>
      <trkpt lat="44.97777" lon="6.40663">
        <ele>2320</ele>
        <time>2024-08-11T06:19:05Z</time>
      </trkpt>
      <trkpt lat="44.97777" lon="6.40663">
        <ele>2320</ele>
        <time>2024-08-11T06:19:06Z</time>
      </trkpt>
      <trkpt lat="44.97777" lon="6.40663">
        <ele>2320</ele>
        <time>2024-08-11T06:19:07Z</time>
      </trkpt>
      <trkpt lat="44.97774" lon="6.40664">
        <ele>2320.4</ele>
        <time>2024-08-11T06:19:08Z</time>
      </trkpt>
      <trkpt lat="44.97774" lon="6.40664">
        <ele>2320.4</ele>
        <time>2024-08-11T06:19:09Z</time>
      </trkpt>
      <trkpt lat="44.97774" lon="6.40664">
        <ele>2320.4</ele>
        <time>2024-08-11T06:19:10Z</time>
      </trkpt>
      <trkpt lat="44.97773" lon="6.40667">
        <ele>2320.8</ele>
        <time>2024-08-11T06:19:11Z</time>
      </trkpt>
      <trkpt lat="44.97773" lon="6.40667">
        <ele>2320.8</ele>
        <time>2024-08-11T06:19:12Z</time>
      </trkpt>
      <trkpt lat="44.97773" lon="6.40667">
        <ele>2321</ele>
        <time>2024-08-11T06:19:13Z</time>
      </trkpt>
      <trkpt lat="44.97774" lon="6.4067">
        <ele>2321.2</ele>
        <time>2024-08-11T06:19:14Z</time>
      </trkpt>
      <trkpt lat="44.97774" lon="6.4067">
        <ele>2321.4</ele>
        <time>2024-08-11T06:19:15Z</time>
      </trkpt>
      <trkpt lat="44.97774" lon="6.4067">
        <ele>2321.6</ele>
        <time>2024-08-11T06:19:16Z</time>
      </trkpt>
      <trkpt lat="44.97775" lon="6.40671">
        <ele>2321.8</ele>
        <time>2024-08-11T06:19:17Z</time>
      </trkpt>
      <trkpt lat="44.97775" lon="6.40671">
        <ele>2322</ele>
        <time>2024-08-11T06:19:18Z</time>
      </trkpt>
      <trkpt lat="44.97775" lon="6.40671">
        <ele>2322.2</ele>
        <time>2024-08-11T06:19:19Z</time>
      </trkpt>
      <trkpt lat="44.97777" lon="6.40673">
        <ele>2322.2</ele>
        <time>2024-08-11T06:19:20Z</time>
      </trkpt>
      <trkpt lat="44.97777" lon="6.40673">
        <ele>2322.4</ele>
        <time>2024-08-11T06:19:21Z</time>
      </trkpt>
      <trkpt lat="44.97777" lon="6.40673">
        <ele>2322.6</ele>
        <time>2024-08-11T06:19:22Z</time>
      </trkpt>
      <trkpt lat="44.97779" lon="6.40675">
        <ele>2323</ele>
        <time>2024-08-11T06:19:23Z</time>
      </trkpt>
      <trkpt lat="44.97779" lon="6.40675">
        <ele>2323.2</ele>
        <time>2024-08-11T06:19:24Z</time>
      </trkpt>
      <trkpt lat="44.9778" lon="6.40678">
        <ele>2323.6</ele>
        <time>2024-08-11T06:19:25Z</time>
      </trkpt>
      <trkpt lat="44.9778" lon="6.40678">
        <ele>2324</ele>
        <time>2024-08-11T06:19:26Z</time>
      </trkpt>
      <trkpt lat="44.9778" lon="6.40678">
        <ele>2324</ele>
        <time>2024-08-11T06:19:27Z</time>
      </trkpt>
      <trkpt lat="44.97778" lon="6.4068">
        <ele>2324.2</ele>
        <time>2024-08-11T06:19:28Z</time>
      </trkpt>
      <trkpt lat="44.97778" lon="6.4068">
        <ele>2324.4</ele>
        <time>2024-08-11T06:19:29Z</time>
      </trkpt>
      <trkpt lat="44.97776" lon="6.40681">
        <ele>2324.6</ele>
        <time>2024-08-11T06:19:30Z</time>
      </trkpt>
      <trkpt lat="44.97776" lon="6.40681">
        <ele>2324.6</ele>
        <time>2024-08-11T06:19:31Z</time>
      </trkpt>
      <trkpt lat="44.97774" lon="6.40681">
        <ele>2324.6</ele>
        <time>2024-08-11T06:19:32Z</time>
      </trkpt>
      <trkpt lat="44.97774" lon="6.40681">
        <ele>2325</ele>
        <time>2024-08-11T06:19:33Z</time>
      </trkpt>
      <trkpt lat="44.97773" lon="6.40682">
        <ele>2325.2</ele>
        <time>2024-08-11T06:19:34Z</time>
      </trkpt>
      <trkpt lat="44.97773" lon="6.40682">
        <ele>2325.2</ele>
        <time>2024-08-11T06:19:35Z</time>
      </trkpt>
      <trkpt lat="44.97773" lon="6.40682">
        <ele>2325.2</ele>
        <time>2024-08-11T06:19:36Z</time>
      </trkpt>
      <trkpt lat="44.97773" lon="6.40682">
        <ele>2325.2</ele>
        <time>2024-08-11T06:19:37Z</time>
      </trkpt>
      <trkpt lat="44.97771" lon="6.40684">
        <ele>2325.6</ele>
        <time>2024-08-11T06:19:38Z</time>
      </trkpt>
      <trkpt lat="44.97771" lon="6.40684">
        <ele>2326.2</ele>
        <time>2024-08-11T06:19:39Z</time>
      </trkpt>
      <trkpt lat="44.97771" lon="6.40684">
        <ele>2326.2</ele>
        <time>2024-08-11T06:19:40Z</time>
      </trkpt>
      <trkpt lat="44.97771" lon="6.40686">
        <ele>2326.2</ele>
        <time>2024-08-11T06:19:41Z</time>
      </trkpt>
      <trkpt lat="44.97771" lon="6.40686">
        <ele>2326.6</ele>
        <time>2024-08-11T06:19:42Z</time>
      </trkpt>
      <trkpt lat="44.97771" lon="6.40686">
        <ele>2326.6</ele>
        <time>2024-08-11T06:19:43Z</time>
      </trkpt>
      <trkpt lat="44.97771" lon="6.40686">
        <ele>2326.8</ele>
        <time>2024-08-11T06:19:44Z</time>
      </trkpt>
      <trkpt lat="44.97771" lon="6.40686">
        <ele>2326.8</ele>
        <time>2024-08-11T06:19:45Z</time>
      </trkpt>
      <trkpt lat="44.97772" lon="6.4069">
        <ele>2327.4</ele>
        <time>2024-08-11T06:19:46Z</time>
      </trkpt>
      <trkpt lat="44.97772" lon="6.4069">
        <ele>2327.8</ele>
        <time>2024-08-11T06:19:47Z</time>
      </trkpt>
      <trkpt lat="44.97772" lon="6.4069">
        <ele>2328</ele>
        <time>2024-08-11T06:19:48Z</time>
      </trkpt>
      <trkpt lat="44.97772" lon="6.4069">
        <ele>2328</ele>
        <time>2024-08-11T06:19:49Z</time>
      </trkpt>
      <trkpt lat="44.97772" lon="6.40694">
        <ele>2328</ele>
        <time>2024-08-11T06:19:50Z</time>
      </trkpt>
      <trkpt lat="44.97772" lon="6.40694">
        <ele>2328.4</ele>
        <time>2024-08-11T06:19:51Z</time>
      </trkpt>
      <trkpt lat="44.97771" lon="6.40696">
        <ele>2328.6</ele>
        <time>2024-08-11T06:19:52Z</time>
      </trkpt>
      <trkpt lat="44.97771" lon="6.40696">
        <ele>2329</ele>
        <time>2024-08-11T06:19:53Z</time>
      </trkpt>
      <trkpt lat="44.97771" lon="6.40696">
        <ele>2329</ele>
        <time>2024-08-11T06:19:54Z</time>
      </trkpt>
      <trkpt lat="44.97771" lon="6.40696">
        <ele>2329.2</ele>
        <time>2024-08-11T06:19:55Z</time>
      </trkpt>
      <trkpt lat="44.97769" lon="6.40697">
        <ele>2329.6</ele>
        <time>2024-08-11T06:19:56Z</time>
      </trkpt>
      <trkpt lat="44.97769" lon="6.40698">
        <ele>2329.6</ele>
        <time>2024-08-11T06:19:57Z</time>
      </trkpt>
      <trkpt lat="44.9777" lon="6.40699">
        <ele>2330.2</ele>
        <time>2024-08-11T06:19:58Z</time>
      </trkpt>
      <trkpt lat="44.9777" lon="6.407">
        <ele>2330.2</ele>
        <time>2024-08-11T06:19:59Z</time>
      </trkpt>
      <trkpt lat="44.97771" lon="6.40701">
        <ele>2330.2</ele>
        <time>2024-08-11T06:20:02Z</time>
      </trkpt>
      <trkpt lat="44.97772" lon="6.40702">
        <ele>2330.8</ele>
        <time>2024-08-11T06:20:03Z</time>
      </trkpt>
      <trkpt lat="44.97772" lon="6.40702">
        <ele>2331</ele>
        <time>2024-08-11T06:20:04Z</time>
      </trkpt>
      <trkpt lat="44.9777" lon="6.40706">
        <ele>2331.4</ele>
        <time>2024-08-11T06:20:05Z</time>
      </trkpt>
      <trkpt lat="44.9777" lon="6.40706">
        <ele>2331.6</ele>
        <time>2024-08-11T06:20:06Z</time>
      </trkpt>
      <trkpt lat="44.9777" lon="6.40706">
        <ele>2331.6</ele>
        <time>2024-08-11T06:20:07Z</time>
      </trkpt>
      <trkpt lat="44.9777" lon="6.40706">
        <ele>2331.6</ele>
        <time>2024-08-11T06:20:08Z</time>
      </trkpt>
      <trkpt lat="44.9777" lon="6.40706">
        <ele>2331.6</ele>
        <time>2024-08-11T06:20:09Z</time>
      </trkpt>
      <trkpt lat="44.9777" lon="6.40706">
        <ele>2332</ele>
        <time>2024-08-11T06:20:10Z</time>
      </trkpt>
      <trkpt lat="44.97772" lon="6.4071">
        <ele>2332.2</ele>
        <time>2024-08-11T06:20:11Z</time>
      </trkpt>
      <trkpt lat="44.97772" lon="6.4071">
        <ele>2332.4</ele>
        <time>2024-08-11T06:20:12Z</time>
      </trkpt>
      <trkpt lat="44.97772" lon="6.4071">
        <ele>2332.6</ele>
        <time>2024-08-11T06:20:13Z</time>
      </trkpt>
      <trkpt lat="44.97773" lon="6.40714">
        <ele>2332.6</ele>
        <time>2024-08-11T06:20:14Z</time>
      </trkpt>
      <trkpt lat="44.97773" lon="6.40714">
        <ele>2333</ele>
        <time>2024-08-11T06:20:15Z</time>
      </trkpt>
      <trkpt lat="44.97774" lon="6.40716">
        <ele>2333</ele>
        <time>2024-08-11T06:20:16Z</time>
      </trkpt>
      <trkpt lat="44.97774" lon="6.40716">
        <ele>2333.4</ele>
        <time>2024-08-11T06:20:17Z</time>
      </trkpt>
      <trkpt lat="44.97775" lon="6.40719">
        <ele>2333.4</ele>
        <time>2024-08-11T06:20:18Z</time>
      </trkpt>
      <trkpt lat="44.97775" lon="6.40719">
        <ele>2333.4</ele>
        <time>2024-08-11T06:20:19Z</time>
      </trkpt>
      <trkpt lat="44.97776" lon="6.40721">
        <ele>2333.4</ele>
        <time>2024-08-11T06:20:20Z</time>
      </trkpt>
      <trkpt lat="44.97776" lon="6.40721">
        <ele>2334</ele>
        <time>2024-08-11T06:20:21Z</time>
      </trkpt>
      <trkpt lat="44.97777" lon="6.40725">
        <ele>2334</ele>
        <time>2024-08-11T06:20:22Z</time>
      </trkpt>
      <trkpt lat="44.97777" lon="6.40725">
        <ele>2333.8</ele>
        <time>2024-08-11T06:20:23Z</time>
      </trkpt>
      <trkpt lat="44.97778" lon="6.40728">
        <ele>2333.8</ele>
        <time>2024-08-11T06:20:24Z</time>
      </trkpt>
      <trkpt lat="44.97778" lon="6.40728">
        <ele>2333.8</ele>
        <time>2024-08-11T06:20:25Z</time>
      </trkpt>
      <trkpt lat="44.97779" lon="6.40731">
        <ele>2333.8</ele>
        <time>2024-08-11T06:20:26Z</time>
      </trkpt>
      <trkpt lat="44.97779" lon="6.40731">
        <ele>2333.8</ele>
        <time>2024-08-11T06:20:27Z</time>
      </trkpt>
      <trkpt lat="44.9778" lon="6.40734">
        <ele>2333.6</ele>
        <time>2024-08-11T06:20:28Z</time>
      </trkpt>
      <trkpt lat="44.9778" lon="6.40734">
        <ele>2333.6</ele>
        <time>2024-08-11T06:20:29Z</time>
      </trkpt>
      <trkpt lat="44.9778" lon="6.40737">
        <ele>2333.8</ele>
        <time>2024-08-11T06:20:30Z</time>
      </trkpt>
      <trkpt lat="44.9778" lon="6.40737">
        <ele>2333.8</ele>
        <time>2024-08-11T06:20:31Z</time>
      </trkpt>
      <trkpt lat="44.97781" lon="6.40741">
        <ele>2334</ele>
        <time>2024-08-11T06:20:32Z</time>
      </trkpt>
      <trkpt lat="44.97781" lon="6.40741">
        <ele>2334</ele>
        <time>2024-08-11T06:20:33Z</time>
      </trkpt>
      <trkpt lat="44.9778" lon="6.40744">
        <ele>2334</ele>
        <time>2024-08-11T06:20:34Z</time>
      </trkpt>
      <trkpt lat="44.9778" lon="6.40744">
        <ele>2334</ele>
        <time>2024-08-11T06:20:35Z</time>
      </trkpt>
      <trkpt lat="44.9778" lon="6.40747">
        <ele>2334</ele>
        <time>2024-08-11T06:20:36Z</time>
      </trkpt>
      <trkpt lat="44.9778" lon="6.40747">
        <ele>2334.2</ele>
        <time>2024-08-11T06:20:37Z</time>
      </trkpt>
      <trkpt lat="44.97779" lon="6.4075">
        <ele>2334.6</ele>
        <time>2024-08-11T06:20:38Z</time>
      </trkpt>
      <trkpt lat="44.97779" lon="6.4075">
        <ele>2334.8</ele>
        <time>2024-08-11T06:20:39Z</time>
      </trkpt>
      <trkpt lat="44.97778" lon="6.40752">
        <ele>2334.8</ele>
        <time>2024-08-11T06:20:40Z</time>
      </trkpt>
      <trkpt lat="44.97778" lon="6.40752">
        <ele>2334.8</ele>
        <time>2024-08-11T06:20:41Z</time>
      </trkpt>
      <trkpt lat="44.97778" lon="6.40755">
        <ele>2335</ele>
        <time>2024-08-11T06:20:42Z</time>
      </trkpt>
      <trkpt lat="44.97778" lon="6.40755">
        <ele>2335</ele>
        <time>2024-08-11T06:20:43Z</time>
      </trkpt>
      <trkpt lat="44.97778" lon="6.40755">
        <ele>2335.2</ele>
        <time>2024-08-11T06:20:44Z</time>
      </trkpt>
      <trkpt lat="44.97777" lon="6.40758">
        <ele>2335.2</ele>
        <time>2024-08-11T06:20:45Z</time>
      </trkpt>
      <trkpt lat="44.97777" lon="6.40758">
        <ele>2335.2</ele>
        <time>2024-08-11T06:20:46Z</time>
      </trkpt>
      <trkpt lat="44.97777" lon="6.40758">
        <ele>2335.4</ele>
        <time>2024-08-11T06:20:47Z</time>
      </trkpt>
      <trkpt lat="44.97776" lon="6.40761">
        <ele>2336.2</ele>
        <time>2024-08-11T06:20:48Z</time>
      </trkpt>
      <trkpt lat="44.97776" lon="6.40761">
        <ele>2336.2</ele>
        <time>2024-08-11T06:20:49Z</time>
      </trkpt>
      <trkpt lat="44.97776" lon="6.40761">
        <ele>2336.6</ele>
        <time>2024-08-11T06:20:50Z</time>
      </trkpt>
      <trkpt lat="44.97776" lon="6.40764">
        <ele>2336.8</ele>
        <time>2024-08-11T06:20:51Z</time>
      </trkpt>
      <trkpt lat="44.97776" lon="6.40764">
        <ele>2337</ele>
        <time>2024-08-11T06:20:52Z</time>
      </trkpt>
      <trkpt lat="44.97776" lon="6.40764">
        <ele>2337</ele>
        <time>2024-08-11T06:20:53Z</time>
      </trkpt>
      <trkpt lat="44.97775" lon="6.40767">
        <ele>2337.4</ele>
        <time>2024-08-11T06:20:54Z</time>
      </trkpt>
      <trkpt lat="44.97775" lon="6.40767">
        <ele>2337.6</ele>
        <time>2024-08-11T06:20:55Z</time>
      </trkpt>
      <trkpt lat="44.97775" lon="6.40767">
        <ele>2337.8</ele>
        <time>2024-08-11T06:20:56Z</time>
      </trkpt>
      <trkpt lat="44.97775" lon="6.40767">
        <ele>2337.8</ele>
        <time>2024-08-11T06:20:57Z</time>
      </trkpt>
      <trkpt lat="44.97774" lon="6.4077">
        <ele>2338</ele>
        <time>2024-08-11T06:20:58Z</time>
      </trkpt>
      <trkpt lat="44.97774" lon="6.4077">
        <ele>2338.2</ele>
        <time>2024-08-11T06:20:59Z</time>
      </trkpt>
      <trkpt lat="44.97774" lon="6.4077">
        <ele>2338.4</ele>
        <time>2024-08-11T06:21:00Z</time>
      </trkpt>
      <trkpt lat="44.97775" lon="6.40773">
        <ele>2338.4</ele>
        <time>2024-08-11T06:21:01Z</time>
      </trkpt>
      <trkpt lat="44.97775" lon="6.40773">
        <ele>2339.2</ele>
        <time>2024-08-11T06:21:02Z</time>
      </trkpt>
      <trkpt lat="44.97775" lon="6.40773">
        <ele>2339.2</ele>
        <time>2024-08-11T06:21:03Z</time>
      </trkpt>
      <trkpt lat="44.97774" lon="6.40776">
        <ele>2339.6</ele>
        <time>2024-08-11T06:21:04Z</time>
      </trkpt>
      <trkpt lat="44.97774" lon="6.40776">
        <ele>2339.6</ele>
        <time>2024-08-11T06:21:05Z</time>
      </trkpt>
      <trkpt lat="44.97774" lon="6.40776">
        <ele>2340</ele>
        <time>2024-08-11T06:21:06Z</time>
      </trkpt>
      <trkpt lat="44.97774" lon="6.40779">
        <ele>2340</ele>
        <time>2024-08-11T06:21:07Z</time>
      </trkpt>
      <trkpt lat="44.97774" lon="6.40779">
        <ele>2340</ele>
        <time>2024-08-11T06:21:08Z</time>
      </trkpt>
      <trkpt lat="44.97773" lon="6.40781">
        <ele>2340.4</ele>
        <time>2024-08-11T06:21:09Z</time>
      </trkpt>
      <trkpt lat="44.97773" lon="6.40781">
        <ele>2340.4</ele>
        <time>2024-08-11T06:21:10Z</time>
      </trkpt>
      <trkpt lat="44.97773" lon="6.40781">
        <ele>2340.4</ele>
        <time>2024-08-11T06:21:11Z</time>
      </trkpt>
      <trkpt lat="44.97772" lon="6.40782">
        <ele>2340.4</ele>
        <time>2024-08-11T06:21:12Z</time>
      </trkpt>
      <trkpt lat="44.97772" lon="6.40782">
        <ele>2340.8</ele>
        <time>2024-08-11T06:21:13Z</time>
      </trkpt>
      <trkpt lat="44.9777" lon="6.40783">
        <ele>2340.8</ele>
        <time>2024-08-11T06:21:14Z</time>
      </trkpt>
      <trkpt lat="44.9777" lon="6.40783">
        <ele>2340.8</ele>
        <time>2024-08-11T06:21:15Z</time>
      </trkpt>
      <trkpt lat="44.9777" lon="6.40783">
        <ele>2341</ele>
        <time>2024-08-11T06:21:16Z</time>
      </trkpt>
      <trkpt lat="44.9777" lon="6.40783">
        <ele>2341.2</ele>
        <time>2024-08-11T06:21:17Z</time>
      </trkpt>
      <trkpt lat="44.9777" lon="6.40783">
        <ele>2341.4</ele>
        <time>2024-08-11T06:21:18Z</time>
      </trkpt>
      <trkpt lat="44.9777" lon="6.40783">
        <ele>2341.6</ele>
        <time>2024-08-11T06:21:19Z</time>
      </trkpt>
      <trkpt lat="44.9777" lon="6.40783">
        <ele>2341.8</ele>
        <time>2024-08-11T06:21:20Z</time>
      </trkpt>
      <trkpt lat="44.9777" lon="6.40783">
        <ele>2341.8</ele>
        <time>2024-08-11T06:21:21Z</time>
      </trkpt>
      <trkpt lat="44.9777" lon="6.40783">
        <ele>2341.6</ele>
        <time>2024-08-11T06:21:22Z</time>
      </trkpt>
      <trkpt lat="44.9777" lon="6.40783">
        <ele>2341.6</ele>
        <time>2024-08-11T06:21:23Z</time>
      </trkpt>
      <trkpt lat="44.9777" lon="6.40783">
        <ele>2341.6</ele>
        <time>2024-08-11T06:21:24Z</time>
      </trkpt>
      <trkpt lat="44.9777" lon="6.40783">
        <ele>2341.6</ele>
        <time>2024-08-11T06:21:25Z</time>
      </trkpt>
      <trkpt lat="44.9777" lon="6.40783">
        <ele>2341.8</ele>
        <time>2024-08-11T06:21:26Z</time>
      </trkpt>
      <trkpt lat="44.9777" lon="6.40786">
        <ele>2341.8</ele>
        <time>2024-08-11T06:21:27Z</time>
      </trkpt>
      <trkpt lat="44.9777" lon="6.40786">
        <ele>2342</ele>
        <time>2024-08-11T06:21:28Z</time>
      </trkpt>
      <trkpt lat="44.97771" lon="6.40789">
        <ele>2342.2</ele>
        <time>2024-08-11T06:21:29Z</time>
      </trkpt>
      <trkpt lat="44.97771" lon="6.40789">
        <ele>2342.4</ele>
        <time>2024-08-11T06:21:30Z</time>
      </trkpt>
      <trkpt lat="44.97771" lon="6.40789">
        <ele>2342.4</ele>
        <time>2024-08-11T06:21:31Z</time>
      </trkpt>
      <trkpt lat="44.97771" lon="6.40789">
        <ele>2342.4</ele>
        <time>2024-08-11T06:21:32Z</time>
      </trkpt>
      <trkpt lat="44.97772" lon="6.40791">
        <ele>2342.6</ele>
        <time>2024-08-11T06:21:33Z</time>
      </trkpt>
      <trkpt lat="44.97772" lon="6.40791">
        <ele>2342.8</ele>
        <time>2024-08-11T06:21:34Z</time>
      </trkpt>
      <trkpt lat="44.97773" lon="6.40794">
        <ele>2343</ele>
        <time>2024-08-11T06:21:35Z</time>
      </trkpt>
      <trkpt lat="44.97773" lon="6.40794">
        <ele>2343</ele>
        <time>2024-08-11T06:21:36Z</time>
      </trkpt>
      <trkpt lat="44.97773" lon="6.40797">
        <ele>2343.2</ele>
        <time>2024-08-11T06:21:37Z</time>
      </trkpt>
      <trkpt lat="44.97773" lon="6.40797">
        <ele>2343.2</ele>
        <time>2024-08-11T06:21:38Z</time>
      </trkpt>
      <trkpt lat="44.97773" lon="6.40797">
        <ele>2343.6</ele>
        <time>2024-08-11T06:21:39Z</time>
      </trkpt>
      <trkpt lat="44.97773" lon="6.40797">
        <ele>2344</ele>
        <time>2024-08-11T06:21:40Z</time>
      </trkpt>
      <trkpt lat="44.97774" lon="6.40802">
        <ele>2344.2</ele>
        <time>2024-08-11T06:21:41Z</time>
      </trkpt>
      <trkpt lat="44.97774" lon="6.40803">
        <ele>2344.4</ele>
        <time>2024-08-11T06:21:42Z</time>
      </trkpt>
      <trkpt lat="44.97774" lon="6.40803">
        <ele>2344.4</ele>
        <time>2024-08-11T06:21:43Z</time>
      </trkpt>
      <trkpt lat="44.97774" lon="6.40803">
        <ele>2344.4</ele>
        <time>2024-08-11T06:21:44Z</time>
      </trkpt>
      <trkpt lat="44.97775" lon="6.40806">
        <ele>2344.6</ele>
        <time>2024-08-11T06:21:45Z</time>
      </trkpt>
      <trkpt lat="44.97775" lon="6.40806">
        <ele>2344.8</ele>
        <time>2024-08-11T06:21:46Z</time>
      </trkpt>
      <trkpt lat="44.97776" lon="6.40809">
        <ele>2344.8</ele>
        <time>2024-08-11T06:21:47Z</time>
      </trkpt>
      <trkpt lat="44.97776" lon="6.40809">
        <ele>2345</ele>
        <time>2024-08-11T06:21:48Z</time>
      </trkpt>
      <trkpt lat="44.97776" lon="6.40809">
        <ele>2345.4</ele>
        <time>2024-08-11T06:21:49Z</time>
      </trkpt>
      <trkpt lat="44.97776" lon="6.40813">
        <ele>2345.8</ele>
        <time>2024-08-11T06:21:50Z</time>
      </trkpt>
      <trkpt lat="44.97776" lon="6.40813">
        <ele>2345.8</ele>
        <time>2024-08-11T06:21:51Z</time>
      </trkpt>
      <trkpt lat="44.97776" lon="6.40816">
        <ele>2345.8</ele>
        <time>2024-08-11T06:21:52Z</time>
      </trkpt>
      <trkpt lat="44.97776" lon="6.40816">
        <ele>2346</ele>
        <time>2024-08-11T06:21:53Z</time>
      </trkpt>
      <trkpt lat="44.97776" lon="6.40818">
        <ele>2346</ele>
        <time>2024-08-11T06:21:54Z</time>
      </trkpt>
      <trkpt lat="44.97776" lon="6.40818">
        <ele>2346.2</ele>
        <time>2024-08-11T06:21:55Z</time>
      </trkpt>
      <trkpt lat="44.97776" lon="6.40821">
        <ele>2346.8</ele>
        <time>2024-08-11T06:21:56Z</time>
      </trkpt>
      <trkpt lat="44.97776" lon="6.40821">
        <ele>2346.8</ele>
        <time>2024-08-11T06:21:57Z</time>
      </trkpt>
      <trkpt lat="44.97776" lon="6.40821">
        <ele>2347</ele>
        <time>2024-08-11T06:21:58Z</time>
      </trkpt>
      <trkpt lat="44.97776" lon="6.40826">
        <ele>2347</ele>
        <time>2024-08-11T06:21:59Z</time>
      </trkpt>
      <trkpt lat="44.97777" lon="6.40827">
        <ele>2347.4</ele>
        <time>2024-08-11T06:22:00Z</time>
      </trkpt>
      <trkpt lat="44.97777" lon="6.40827">
        <ele>2347.4</ele>
        <time>2024-08-11T06:22:01Z</time>
      </trkpt>
      <trkpt lat="44.97777" lon="6.40827">
        <ele>2347.6</ele>
        <time>2024-08-11T06:22:02Z</time>
      </trkpt>
      <trkpt lat="44.97777" lon="6.40827">
        <ele>2347.6</ele>
        <time>2024-08-11T06:22:03Z</time>
      </trkpt>
      <trkpt lat="44.97777" lon="6.4083">
        <ele>2347.6</ele>
        <time>2024-08-11T06:22:04Z</time>
      </trkpt>
      <trkpt lat="44.97777" lon="6.4083">
        <ele>2348</ele>
        <time>2024-08-11T06:22:05Z</time>
      </trkpt>
      <trkpt lat="44.97777" lon="6.40833">
        <ele>2348.2</ele>
        <time>2024-08-11T06:22:06Z</time>
      </trkpt>
      <trkpt lat="44.97777" lon="6.40833">
        <ele>2348.4</ele>
        <time>2024-08-11T06:22:07Z</time>
      </trkpt>
      <trkpt lat="44.97777" lon="6.40833">
        <ele>2348.4</ele>
        <time>2024-08-11T06:22:08Z</time>
      </trkpt>
      <trkpt lat="44.97776" lon="6.40837">
        <ele>2348.6</ele>
        <time>2024-08-11T06:22:09Z</time>
      </trkpt>
      <trkpt lat="44.97776" lon="6.40837">
        <ele>2349</ele>
        <time>2024-08-11T06:22:10Z</time>
      </trkpt>
      <trkpt lat="44.97776" lon="6.40837">
        <ele>2349.2</ele>
        <time>2024-08-11T06:22:11Z</time>
      </trkpt>
      <trkpt lat="44.97776" lon="6.4084">
        <ele>2349.4</ele>
        <time>2024-08-11T06:22:12Z</time>
      </trkpt>
      <trkpt lat="44.97776" lon="6.4084">
        <ele>2349.6</ele>
        <time>2024-08-11T06:22:13Z</time>
      </trkpt>
      <trkpt lat="44.97776" lon="6.4084">
        <ele>2349.8</ele>
        <time>2024-08-11T06:22:14Z</time>
      </trkpt>
      <trkpt lat="44.97777" lon="6.40843">
        <ele>2350</ele>
        <time>2024-08-11T06:22:15Z</time>
      </trkpt>
      <trkpt lat="44.97777" lon="6.40843">
        <ele>2350</ele>
        <time>2024-08-11T06:22:16Z</time>
      </trkpt>
      <trkpt lat="44.97777" lon="6.40843">
        <ele>2350.4</ele>
        <time>2024-08-11T06:22:17Z</time>
      </trkpt>
      <trkpt lat="44.97778" lon="6.40847">
        <ele>2350.8</ele>
        <time>2024-08-11T06:22:18Z</time>
      </trkpt>
      <trkpt lat="44.97778" lon="6.40847">
        <ele>2350.8</ele>
        <time>2024-08-11T06:22:19Z</time>
      </trkpt>
      <trkpt lat="44.97778" lon="6.4085">
        <ele>2350.6</ele>
        <time>2024-08-11T06:22:20Z</time>
      </trkpt>
      <trkpt lat="44.97778" lon="6.4085">
        <ele>2350.6</ele>
        <time>2024-08-11T06:22:21Z</time>
      </trkpt>
      <trkpt lat="44.97778" lon="6.4085">
        <ele>2350.6</ele>
        <time>2024-08-11T06:22:22Z</time>
      </trkpt>
      <trkpt lat="44.9778" lon="6.40855">
        <ele>2350.6</ele>
        <time>2024-08-11T06:22:23Z</time>
      </trkpt>
      <trkpt lat="44.9778" lon="6.40857">
        <ele>2350.6</ele>
        <time>2024-08-11T06:22:24Z</time>
      </trkpt>
      <trkpt lat="44.9778" lon="6.40857">
        <ele>2350.6</ele>
        <time>2024-08-11T06:22:25Z</time>
      </trkpt>
      <trkpt lat="44.97781" lon="6.4086">
        <ele>2350.6</ele>
        <time>2024-08-11T06:22:26Z</time>
      </trkpt>
      <trkpt lat="44.97781" lon="6.4086">
        <ele>2350.4</ele>
        <time>2024-08-11T06:22:27Z</time>
      </trkpt>
      <trkpt lat="44.97781" lon="6.40864">
        <ele>2350.4</ele>
        <time>2024-08-11T06:22:28Z</time>
      </trkpt>
      <trkpt lat="44.97781" lon="6.40864">
        <ele>2350.6</ele>
        <time>2024-08-11T06:22:29Z</time>
      </trkpt>
      <trkpt lat="44.97781" lon="6.40867">
        <ele>2350.6</ele>
        <time>2024-08-11T06:22:30Z</time>
      </trkpt>
      <trkpt lat="44.97781" lon="6.40867">
        <ele>2350.6</ele>
        <time>2024-08-11T06:22:31Z</time>
      </trkpt>
      <trkpt lat="44.97781" lon="6.40871">
        <ele>2350.4</ele>
        <time>2024-08-11T06:22:32Z</time>
      </trkpt>
      <trkpt lat="44.97781" lon="6.40871">
        <ele>2350.4</ele>
        <time>2024-08-11T06:22:33Z</time>
      </trkpt>
      <trkpt lat="44.97781" lon="6.40875">
        <ele>2350.4</ele>
        <time>2024-08-11T06:22:34Z</time>
      </trkpt>
      <trkpt lat="44.97781" lon="6.40875">
        <ele>2350.4</ele>
        <time>2024-08-11T06:22:35Z</time>
      </trkpt>
      <trkpt lat="44.97781" lon="6.40879">
        <ele>2350.4</ele>
        <time>2024-08-11T06:22:36Z</time>
      </trkpt>
      <trkpt lat="44.97781" lon="6.40879">
        <ele>2350.2</ele>
        <time>2024-08-11T06:22:37Z</time>
      </trkpt>
      <trkpt lat="44.97781" lon="6.40883">
        <ele>2350</ele>
        <time>2024-08-11T06:22:38Z</time>
      </trkpt>
      <trkpt lat="44.97781" lon="6.40883">
        <ele>2350</ele>
        <time>2024-08-11T06:22:39Z</time>
      </trkpt>
      <trkpt lat="44.97781" lon="6.40883">
        <ele>2350.2</ele>
        <time>2024-08-11T06:22:40Z</time>
      </trkpt>
      <trkpt lat="44.97781" lon="6.40888">
        <ele>2350.2</ele>
        <time>2024-08-11T06:22:41Z</time>
      </trkpt>
      <trkpt lat="44.97782" lon="6.4089">
        <ele>2350.4</ele>
        <time>2024-08-11T06:22:42Z</time>
      </trkpt>
      <trkpt lat="44.97782" lon="6.4089">
        <ele>2350.4</ele>
        <time>2024-08-11T06:22:43Z</time>
      </trkpt>
      <trkpt lat="44.97782" lon="6.40893">
        <ele>2350.4</ele>
        <time>2024-08-11T06:22:44Z</time>
      </trkpt>
      <trkpt lat="44.97782" lon="6.40893">
        <ele>2350.4</ele>
        <time>2024-08-11T06:22:45Z</time>
      </trkpt>
      <trkpt lat="44.97782" lon="6.40893">
        <ele>2350.4</ele>
        <time>2024-08-11T06:22:46Z</time>
      </trkpt>
      <trkpt lat="44.97784" lon="6.40898">
        <ele>2350.4</ele>
        <time>2024-08-11T06:22:47Z</time>
      </trkpt>
      <trkpt lat="44.97784" lon="6.409">
        <ele>2350.4</ele>
        <time>2024-08-11T06:22:48Z</time>
      </trkpt>
      <trkpt lat="44.97784" lon="6.409">
        <ele>2350.4</ele>
        <time>2024-08-11T06:22:49Z</time>
      </trkpt>
      <trkpt lat="44.97784" lon="6.40903">
        <ele>2350.4</ele>
        <time>2024-08-11T06:22:50Z</time>
      </trkpt>
      <trkpt lat="44.97784" lon="6.40903">
        <ele>2350.4</ele>
        <time>2024-08-11T06:22:51Z</time>
      </trkpt>
      <trkpt lat="44.97784" lon="6.40907">
        <ele>2350.4</ele>
        <time>2024-08-11T06:22:52Z</time>
      </trkpt>
      <trkpt lat="44.97784" lon="6.40907">
        <ele>2350.4</ele>
        <time>2024-08-11T06:22:53Z</time>
      </trkpt>
      <trkpt lat="44.97784" lon="6.40911">
        <ele>2350.4</ele>
        <time>2024-08-11T06:22:54Z</time>
      </trkpt>
      <trkpt lat="44.97784" lon="6.40911">
        <ele>2350.6</ele>
        <time>2024-08-11T06:22:55Z</time>
      </trkpt>
      <trkpt lat="44.97784" lon="6.40914">
        <ele>2350.6</ele>
        <time>2024-08-11T06:22:56Z</time>
      </trkpt>
      <trkpt lat="44.97784" lon="6.40914">
        <ele>2350.8</ele>
        <time>2024-08-11T06:22:57Z</time>
      </trkpt>
      <trkpt lat="44.97784" lon="6.40914">
        <ele>2350.8</ele>
        <time>2024-08-11T06:22:58Z</time>
      </trkpt>
      <trkpt lat="44.97783" lon="6.40918">
        <ele>2350.8</ele>
        <time>2024-08-11T06:22:59Z</time>
      </trkpt>
      <trkpt lat="44.97783" lon="6.40918">
        <ele>2351.2</ele>
        <time>2024-08-11T06:23:00Z</time>
      </trkpt>
      <trkpt lat="44.97782" lon="6.40921">
        <ele>2351.2</ele>
        <time>2024-08-11T06:23:01Z</time>
      </trkpt>
      <trkpt lat="44.97782" lon="6.40921">
        <ele>2351.6</ele>
        <time>2024-08-11T06:23:02Z</time>
      </trkpt>
      <trkpt lat="44.97781" lon="6.40923">
        <ele>2351.6</ele>
        <time>2024-08-11T06:23:03Z</time>
      </trkpt>
      <trkpt lat="44.97781" lon="6.40923">
        <ele>2351.6</ele>
        <time>2024-08-11T06:23:04Z</time>
      </trkpt>
      <trkpt lat="44.97779" lon="6.40925">
        <ele>2351.6</ele>
        <time>2024-08-11T06:23:05Z</time>
      </trkpt>
      <trkpt lat="44.97779" lon="6.40925">
        <ele>2351.6</ele>
        <time>2024-08-11T06:23:06Z</time>
      </trkpt>
      <trkpt lat="44.97779" lon="6.40925">
        <ele>2352</ele>
        <time>2024-08-11T06:23:07Z</time>
      </trkpt>
      <trkpt lat="44.97779" lon="6.40925">
        <ele>2352</ele>
        <time>2024-08-11T06:23:08Z</time>
      </trkpt>
      <trkpt lat="44.97779" lon="6.40925">
        <ele>2352.4</ele>
        <time>2024-08-11T06:23:09Z</time>
      </trkpt>
      <trkpt lat="44.97779" lon="6.40925">
        <ele>2352.6</ele>
        <time>2024-08-11T06:23:10Z</time>
      </trkpt>
      <trkpt lat="44.97778" lon="6.40927">
        <ele>2352.6</ele>
        <time>2024-08-11T06:23:11Z</time>
      </trkpt>
      <trkpt lat="44.97778" lon="6.40927">
        <ele>2352.6</ele>
        <time>2024-08-11T06:23:12Z</time>
      </trkpt>
      <trkpt lat="44.97778" lon="6.40927">
        <ele>2352.6</ele>
        <time>2024-08-11T06:23:13Z</time>
      </trkpt>
      <trkpt lat="44.97778" lon="6.40927">
        <ele>2352.6</ele>
        <time>2024-08-11T06:23:14Z</time>
      </trkpt>
      <trkpt lat="44.97778" lon="6.40927">
        <ele>2352.6</ele>
        <time>2024-08-11T06:23:15Z</time>
      </trkpt>
      <trkpt lat="44.97778" lon="6.40927">
        <ele>2352.6</ele>
        <time>2024-08-11T06:23:16Z</time>
      </trkpt>
      <trkpt lat="44.97778" lon="6.40927">
        <ele>2352.6</ele>
        <time>2024-08-11T06:23:17Z</time>
      </trkpt>
      <trkpt lat="44.97778" lon="6.40927">
        <ele>2352.6</ele>
        <time>2024-08-11T06:23:18Z</time>
      </trkpt>
      <trkpt lat="44.97778" lon="6.40927">
        <ele>2352.4</ele>
        <time>2024-08-11T06:23:19Z</time>
      </trkpt>
      <trkpt lat="44.97778" lon="6.40927">
        <ele>2352.4</ele>
        <time>2024-08-11T06:23:20Z</time>
      </trkpt>
      <trkpt lat="44.97778" lon="6.40927">
        <ele>2352.4</ele>
        <time>2024-08-11T06:23:21Z</time>
      </trkpt>
      <trkpt lat="44.97778" lon="6.40927">
        <ele>2352.4</ele>
        <time>2024-08-11T06:23:22Z</time>
      </trkpt>
      <trkpt lat="44.97778" lon="6.40927">
        <ele>2352.8</ele>
        <time>2024-08-11T06:23:23Z</time>
      </trkpt>
      <trkpt lat="44.97778" lon="6.40927">
        <ele>2353</ele>
        <time>2024-08-11T06:23:24Z</time>
      </trkpt>
      <trkpt lat="44.97778" lon="6.40927">
        <ele>2353</ele>
        <time>2024-08-11T06:23:25Z</time>
      </trkpt>
      <trkpt lat="44.97778" lon="6.40927">
        <ele>2353.2</ele>
        <time>2024-08-11T06:23:26Z</time>
      </trkpt>
      <trkpt lat="44.97778" lon="6.40927">
        <ele>2353.2</ele>
        <time>2024-08-11T06:23:27Z</time>
      </trkpt>
      <trkpt lat="44.97778" lon="6.40927">
        <ele>2353.2</ele>
        <time>2024-08-11T06:23:28Z</time>
      </trkpt>
      <trkpt lat="44.97778" lon="6.40927">
        <ele>2353</ele>
        <time>2024-08-11T06:23:29Z</time>
      </trkpt>
      <trkpt lat="44.97778" lon="6.40927">
        <ele>2353</ele>
        <time>2024-08-11T06:23:30Z</time>
      </trkpt>
      <trkpt lat="44.97778" lon="6.40927">
        <ele>2353.2</ele>
        <time>2024-08-11T06:23:31Z</time>
      </trkpt>
      <trkpt lat="44.97778" lon="6.40927">
        <ele>2353.2</ele>
        <time>2024-08-11T06:23:32Z</time>
      </trkpt>
      <trkpt lat="44.97778" lon="6.40927">
        <ele>2353.2</ele>
        <time>2024-08-11T06:23:33Z</time>
      </trkpt>
      <trkpt lat="44.97778" lon="6.40927">
        <ele>2353.2</ele>
        <time>2024-08-11T06:23:34Z</time>
      </trkpt>
      <trkpt lat="44.97778" lon="6.40927">
        <ele>2353</ele>
        <time>2024-08-11T06:23:35Z</time>
      </trkpt>
      <trkpt lat="44.97778" lon="6.40927">
        <ele>2353</ele>
        <time>2024-08-11T06:23:36Z</time>
      </trkpt>
      <trkpt lat="44.97778" lon="6.40927">
        <ele>2353.2</ele>
        <time>2024-08-11T06:23:37Z</time>
      </trkpt>
      <trkpt lat="44.97778" lon="6.40927">
        <ele>2353.2</ele>
        <time>2024-08-11T06:23:38Z</time>
      </trkpt>
      <trkpt lat="44.97778" lon="6.40927">
        <ele>2353.2</ele>
        <time>2024-08-11T06:23:39Z</time>
      </trkpt>
      <trkpt lat="44.97778" lon="6.40927">
        <ele>2353.2</ele>
        <time>2024-08-11T06:23:40Z</time>
      </trkpt>
      <trkpt lat="44.97778" lon="6.40927">
        <ele>2353.2</ele>
        <time>2024-08-11T06:23:41Z</time>
      </trkpt>
      <trkpt lat="44.97778" lon="6.40927">
        <ele>2353.2</ele>
        <time>2024-08-11T06:23:42Z</time>
      </trkpt>
      <trkpt lat="44.97778" lon="6.40927">
        <ele>2353.2</ele>
        <time>2024-08-11T06:23:43Z</time>
      </trkpt>
      <trkpt lat="44.97778" lon="6.40927">
        <ele>2353.2</ele>
        <time>2024-08-11T06:23:44Z</time>
      </trkpt>
      <trkpt lat="44.97778" lon="6.40927">
        <ele>2353.2</ele>
        <time>2024-08-11T06:23:45Z</time>
      </trkpt>
      <trkpt lat="44.97778" lon="6.40927">
        <ele>2353</ele>
        <time>2024-08-11T06:23:46Z</time>
      </trkpt>
      <trkpt lat="44.97778" lon="6.40927">
        <ele>2353</ele>
        <time>2024-08-11T06:23:47Z</time>
      </trkpt>
      <trkpt lat="44.97778" lon="6.40927">
        <ele>2353</ele>
        <time>2024-08-11T06:23:48Z</time>
      </trkpt>
      <trkpt lat="44.97778" lon="6.40927">
        <ele>2353</ele>
        <time>2024-08-11T06:23:49Z</time>
      </trkpt>
      <trkpt lat="44.97778" lon="6.40927">
        <ele>2353</ele>
        <time>2024-08-11T06:23:50Z</time>
      </trkpt>
      <trkpt lat="44.97778" lon="6.40927">
        <ele>2353</ele>
        <time>2024-08-11T06:23:51Z</time>
      </trkpt>
      <trkpt lat="44.97778" lon="6.40927">
        <ele>2353</ele>
        <time>2024-08-11T06:23:52Z</time>
      </trkpt>
      <trkpt lat="44.97778" lon="6.40927">
        <ele>2353</ele>
        <time>2024-08-11T06:23:53Z</time>
      </trkpt>
      <trkpt lat="44.97778" lon="6.40927">
        <ele>2353.4</ele>
        <time>2024-08-11T06:23:54Z</time>
      </trkpt>
      <trkpt lat="44.97778" lon="6.40927">
        <ele>2353.4</ele>
        <time>2024-08-11T06:23:55Z</time>
      </trkpt>
      <trkpt lat="44.97778" lon="6.40927">
        <ele>2353.4</ele>
        <time>2024-08-11T06:23:56Z</time>
      </trkpt>
      <trkpt lat="44.97778" lon="6.40927">
        <ele>2353.4</ele>
        <time>2024-08-11T06:23:57Z</time>
      </trkpt>
      <trkpt lat="44.97778" lon="6.40927">
        <ele>2353.6</ele>
        <time>2024-08-11T06:23:58Z</time>
      </trkpt>
      <trkpt lat="44.97778" lon="6.40927">
        <ele>2353.8</ele>
        <time>2024-08-11T06:23:59Z</time>
      </trkpt>
      <trkpt lat="44.97778" lon="6.40927">
        <ele>2353.8</ele>
        <time>2024-08-11T06:24:00Z</time>
      </trkpt>
      <trkpt lat="44.97778" lon="6.40927">
        <ele>2353.6</ele>
        <time>2024-08-11T06:24:01Z</time>
      </trkpt>
      <trkpt lat="44.97778" lon="6.40927">
        <ele>2353.8</ele>
        <time>2024-08-11T06:24:02Z</time>
      </trkpt>
      <trkpt lat="44.97778" lon="6.40927">
        <ele>2353.8</ele>
        <time>2024-08-11T06:24:03Z</time>
      </trkpt>
      <trkpt lat="44.97778" lon="6.40927">
        <ele>2353.6</ele>
        <time>2024-08-11T06:24:04Z</time>
      </trkpt>
      <trkpt lat="44.97778" lon="6.40927">
        <ele>2353.4</ele>
        <time>2024-08-11T06:24:05Z</time>
      </trkpt>
      <trkpt lat="44.97778" lon="6.40927">
        <ele>2353.4</ele>
        <time>2024-08-11T06:24:06Z</time>
      </trkpt>
      <trkpt lat="44.97778" lon="6.40927">
        <ele>2353.4</ele>
        <time>2024-08-11T06:24:07Z</time>
      </trkpt>
      <trkpt lat="44.97778" lon="6.40927">
        <ele>2353.4</ele>
        <time>2024-08-11T06:24:08Z</time>
      </trkpt>
      <trkpt lat="44.97778" lon="6.40927">
        <ele>2353.4</ele>
        <time>2024-08-11T06:24:09Z</time>
      </trkpt>
      <trkpt lat="44.97778" lon="6.40927">
        <ele>2353.8</ele>
        <time>2024-08-11T06:24:10Z</time>
      </trkpt>
      <trkpt lat="44.97778" lon="6.40927">
        <ele>2353.8</ele>
        <time>2024-08-11T06:24:11Z</time>
      </trkpt>
      <trkpt lat="44.97778" lon="6.40927">
        <ele>2353.4</ele>
        <time>2024-08-11T06:24:12Z</time>
      </trkpt>
      <trkpt lat="44.97778" lon="6.40927">
        <ele>2353.4</ele>
        <time>2024-08-11T06:24:13Z</time>
      </trkpt>
      <trkpt lat="44.97778" lon="6.40927">
        <ele>2353.8</ele>
        <time>2024-08-11T06:24:14Z</time>
      </trkpt>
      <trkpt lat="44.97778" lon="6.40927">
        <ele>2353.8</ele>
        <time>2024-08-11T06:24:15Z</time>
      </trkpt>
      <trkpt lat="44.97778" lon="6.40927">
        <ele>2353.8</ele>
        <time>2024-08-11T06:24:16Z</time>
      </trkpt>
      <trkpt lat="44.97778" lon="6.40927">
        <ele>2353.8</ele>
        <time>2024-08-11T06:24:17Z</time>
      </trkpt>
      <trkpt lat="44.97778" lon="6.40927">
        <ele>2353.8</ele>
        <time>2024-08-11T06:24:18Z</time>
      </trkpt>
      <trkpt lat="44.97778" lon="6.40927">
        <ele>2353.8</ele>
        <time>2024-08-11T06:24:19Z</time>
      </trkpt>
      <trkpt lat="44.97778" lon="6.40927">
        <ele>2353.8</ele>
        <time>2024-08-11T06:24:20Z</time>
      </trkpt>
      <trkpt lat="44.97778" lon="6.40927">
        <ele>2353.8</ele>
        <time>2024-08-11T06:24:21Z</time>
      </trkpt>
      <trkpt lat="44.97778" lon="6.40927">
        <ele>2353.6</ele>
        <time>2024-08-11T06:24:22Z</time>
      </trkpt>
      <trkpt lat="44.97778" lon="6.40927">
        <ele>2353.4</ele>
        <time>2024-08-11T06:24:23Z</time>
      </trkpt>
      <trkpt lat="44.97778" lon="6.40927">
        <ele>2353.4</ele>
        <time>2024-08-11T06:24:24Z</time>
      </trkpt>
      <trkpt lat="44.97778" lon="6.40927">
        <ele>2353.4</ele>
        <time>2024-08-11T06:24:25Z</time>
      </trkpt>
      <trkpt lat="44.97778" lon="6.40927">
        <ele>2353.4</ele>
        <time>2024-08-11T06:24:26Z</time>
      </trkpt>
      <trkpt lat="44.97778" lon="6.40927">
        <ele>2353.6</ele>
        <time>2024-08-11T06:24:27Z</time>
      </trkpt>
      <trkpt lat="44.97778" lon="6.40927">
        <ele>2353.4</ele>
        <time>2024-08-11T06:24:28Z</time>
      </trkpt>
      <trkpt lat="44.97778" lon="6.40927">
        <ele>2353.4</ele>
        <time>2024-08-11T06:24:29Z</time>
      </trkpt>
      <trkpt lat="44.97778" lon="6.40927">
        <ele>2353.4</ele>
        <time>2024-08-11T06:24:30Z</time>
      </trkpt>
      <trkpt lat="44.97778" lon="6.40927">
        <ele>2353.4</ele>
        <time>2024-08-11T06:24:31Z</time>
      </trkpt>
      <trkpt lat="44.97778" lon="6.40927">
        <ele>2353.4</ele>
        <time>2024-08-11T06:24:32Z</time>
      </trkpt>
      <trkpt lat="44.97778" lon="6.40927">
        <ele>2353.4</ele>
        <time>2024-08-11T06:24:33Z</time>
      </trkpt>
      <trkpt lat="44.97778" lon="6.40927">
        <ele>2353.4</ele>
        <time>2024-08-11T06:24:34Z</time>
      </trkpt>
      <trkpt lat="44.97778" lon="6.40927">
        <ele>2353.4</ele>
        <time>2024-08-11T06:24:35Z</time>
      </trkpt>
      <trkpt lat="44.97778" lon="6.40927">
        <ele>2353.4</ele>
        <time>2024-08-11T06:24:36Z</time>
      </trkpt>
      <trkpt lat="44.97778" lon="6.40927">
        <ele>2353.4</ele>
        <time>2024-08-11T06:24:37Z</time>
      </trkpt>
      <trkpt lat="44.97778" lon="6.40927">
        <ele>2353.2</ele>
        <time>2024-08-11T06:24:38Z</time>
      </trkpt>
      <trkpt lat="44.97778" lon="6.40927">
        <ele>2353.4</ele>
        <time>2024-08-11T06:24:39Z</time>
      </trkpt>
      <trkpt lat="44.97778" lon="6.40927">
        <ele>2353.4</ele>
        <time>2024-08-11T06:24:40Z</time>
      </trkpt>
      <trkpt lat="44.97778" lon="6.40927">
        <ele>2353.6</ele>
        <time>2024-08-11T06:24:41Z</time>
      </trkpt>
      <trkpt lat="44.97778" lon="6.40927">
        <ele>2353.6</ele>
        <time>2024-08-11T06:24:42Z</time>
      </trkpt>
      <trkpt lat="44.97778" lon="6.40927">
        <ele>2354.2</ele>
        <time>2024-08-11T06:24:43Z</time>
      </trkpt>
      <trkpt lat="44.97778" lon="6.40927">
        <ele>2354.2</ele>
        <time>2024-08-11T06:24:44Z</time>
      </trkpt>
      <trkpt lat="44.97778" lon="6.40927">
        <ele>2354.2</ele>
        <time>2024-08-11T06:24:45Z</time>
      </trkpt>
      <trkpt lat="44.97778" lon="6.40927">
        <ele>2354.2</ele>
        <time>2024-08-11T06:24:46Z</time>
      </trkpt>
      <trkpt lat="44.97778" lon="6.40927">
        <ele>2354.2</ele>
        <time>2024-08-11T06:24:47Z</time>
      </trkpt>
      <trkpt lat="44.97778" lon="6.40927">
        <ele>2354.2</ele>
        <time>2024-08-11T06:24:48Z</time>
      </trkpt>
      <trkpt lat="44.97778" lon="6.40927">
        <ele>2354</ele>
        <time>2024-08-11T06:24:49Z</time>
      </trkpt>
      <trkpt lat="44.97778" lon="6.40927">
        <ele>2354</ele>
        <time>2024-08-11T06:24:50Z</time>
      </trkpt>
      <trkpt lat="44.97778" lon="6.40927">
        <ele>2354.2</ele>
        <time>2024-08-11T06:24:51Z</time>
      </trkpt>
      <trkpt lat="44.97778" lon="6.40927">
        <ele>2354.2</ele>
        <time>2024-08-11T06:24:52Z</time>
      </trkpt>
      <trkpt lat="44.97778" lon="6.40927">
        <ele>2354.2</ele>
        <time>2024-08-11T06:24:53Z</time>
      </trkpt>
      <trkpt lat="44.97778" lon="6.40927">
        <ele>2354.2</ele>
        <time>2024-08-11T06:24:54Z</time>
      </trkpt>
      <trkpt lat="44.97778" lon="6.40927">
        <ele>2354.2</ele>
        <time>2024-08-11T06:24:55Z</time>
      </trkpt>
      <trkpt lat="44.97778" lon="6.40927">
        <ele>2354.2</ele>
        <time>2024-08-11T06:24:56Z</time>
      </trkpt>
      <trkpt lat="44.97776" lon="6.40928">
        <ele>2354.2</ele>
        <time>2024-08-11T06:24:57Z</time>
      </trkpt>
      <trkpt lat="44.97776" lon="6.40928">
        <ele>2354</ele>
        <time>2024-08-11T06:24:58Z</time>
      </trkpt>
      <trkpt lat="44.97773" lon="6.40929">
        <ele>2354</ele>
        <time>2024-08-11T06:24:59Z</time>
      </trkpt>
      <trkpt lat="44.97773" lon="6.40929">
        <ele>2354.2</ele>
        <time>2024-08-11T06:25:00Z</time>
      </trkpt>
      <trkpt lat="44.97773" lon="6.40929">
        <ele>2354.2</ele>
        <time>2024-08-11T06:25:01Z</time>
      </trkpt>
      <trkpt lat="44.97773" lon="6.40929">
        <ele>2354</ele>
        <time>2024-08-11T06:25:02Z</time>
      </trkpt>
      <trkpt lat="44.97773" lon="6.40929">
        <ele>2354</ele>
        <time>2024-08-11T06:25:03Z</time>
      </trkpt>
      <trkpt lat="44.97773" lon="6.40929">
        <ele>2353.8</ele>
        <time>2024-08-11T06:25:04Z</time>
      </trkpt>
      <trkpt lat="44.97773" lon="6.40929">
        <ele>2354</ele>
        <time>2024-08-11T06:25:05Z</time>
      </trkpt>
      <trkpt lat="44.97773" lon="6.40929">
        <ele>2354</ele>
        <time>2024-08-11T06:25:06Z</time>
      </trkpt>
      <trkpt lat="44.97773" lon="6.40929">
        <ele>2354.2</ele>
        <time>2024-08-11T06:25:07Z</time>
      </trkpt>
      <trkpt lat="44.97773" lon="6.40929">
        <ele>2354.2</ele>
        <time>2024-08-11T06:25:08Z</time>
      </trkpt>
      <trkpt lat="44.97773" lon="6.40929">
        <ele>2354</ele>
        <time>2024-08-11T06:25:09Z</time>
      </trkpt>
      <trkpt lat="44.97773" lon="6.40929">
        <ele>2354</ele>
        <time>2024-08-11T06:25:10Z</time>
      </trkpt>
      <trkpt lat="44.97773" lon="6.40929">
        <ele>2354</ele>
        <time>2024-08-11T06:25:11Z</time>
      </trkpt>
      <trkpt lat="44.97773" lon="6.40929">
        <ele>2354.2</ele>
        <time>2024-08-11T06:25:12Z</time>
      </trkpt>
      <trkpt lat="44.97773" lon="6.40929">
        <ele>2354.2</ele>
        <time>2024-08-11T06:25:13Z</time>
      </trkpt>
      <trkpt lat="44.97773" lon="6.40929">
        <ele>2354.2</ele>
        <time>2024-08-11T06:25:14Z</time>
      </trkpt>
      <trkpt lat="44.97773" lon="6.40929">
        <ele>2354.2</ele>
        <time>2024-08-11T06:25:15Z</time>
      </trkpt>
      <trkpt lat="44.97773" lon="6.40929">
        <ele>2354.4</ele>
        <time>2024-08-11T06:25:16Z</time>
      </trkpt>
      <trkpt lat="44.97773" lon="6.40929">
        <ele>2354.4</ele>
        <time>2024-08-11T06:25:17Z</time>
      </trkpt>
      <trkpt lat="44.97773" lon="6.40929">
        <ele>2354.4</ele>
        <time>2024-08-11T06:25:18Z</time>
      </trkpt>
      <trkpt lat="44.97773" lon="6.40929">
        <ele>2354.4</ele>
        <time>2024-08-11T06:25:19Z</time>
      </trkpt>
      <trkpt lat="44.97773" lon="6.40929">
        <ele>2354.6</ele>
        <time>2024-08-11T06:25:20Z</time>
      </trkpt>
      <trkpt lat="44.97773" lon="6.40929">
        <ele>2354.6</ele>
        <time>2024-08-11T06:25:21Z</time>
      </trkpt>
      <trkpt lat="44.97773" lon="6.40929">
        <ele>2354.4</ele>
        <time>2024-08-11T06:25:22Z</time>
      </trkpt>
      <trkpt lat="44.97773" lon="6.40929">
        <ele>2354.4</ele>
        <time>2024-08-11T06:25:23Z</time>
      </trkpt>
      <trkpt lat="44.97773" lon="6.40929">
        <ele>2354.4</ele>
        <time>2024-08-11T06:25:24Z</time>
      </trkpt>
      <trkpt lat="44.97773" lon="6.40929">
        <ele>2354.4</ele>
        <time>2024-08-11T06:25:25Z</time>
      </trkpt>
      <trkpt lat="44.97773" lon="6.40929">
        <ele>2354.4</ele>
        <time>2024-08-11T06:25:26Z</time>
      </trkpt>
      <trkpt lat="44.97773" lon="6.40929">
        <ele>2354.8</ele>
        <time>2024-08-11T06:25:27Z</time>
      </trkpt>
      <trkpt lat="44.97773" lon="6.40929">
        <ele>2355</ele>
        <time>2024-08-11T06:25:28Z</time>
      </trkpt>
      <trkpt lat="44.97773" lon="6.40929">
        <ele>2355.2</ele>
        <time>2024-08-11T06:25:29Z</time>
      </trkpt>
      <trkpt lat="44.97775" lon="6.40928">
        <ele>2355.6</ele>
        <time>2024-08-11T06:25:30Z</time>
      </trkpt>
      <trkpt lat="44.97775" lon="6.40928">
        <ele>2355.6</ele>
        <time>2024-08-11T06:25:31Z</time>
      </trkpt>
      <trkpt lat="44.97775" lon="6.40928">
        <ele>2355.6</ele>
        <time>2024-08-11T06:25:32Z</time>
      </trkpt>
      <trkpt lat="44.97775" lon="6.40928">
        <ele>2355.2</ele>
        <time>2024-08-11T06:25:33Z</time>
      </trkpt>
      <trkpt lat="44.97775" lon="6.40928">
        <ele>2355</ele>
        <time>2024-08-11T06:25:34Z</time>
      </trkpt>
      <trkpt lat="44.97775" lon="6.40928">
        <ele>2354.8</ele>
        <time>2024-08-11T06:25:35Z</time>
      </trkpt>
      <trkpt lat="44.97775" lon="6.40928">
        <ele>2354.8</ele>
        <time>2024-08-11T06:25:36Z</time>
      </trkpt>
      <trkpt lat="44.97775" lon="6.40928">
        <ele>2355</ele>
        <time>2024-08-11T06:25:37Z</time>
      </trkpt>
      <trkpt lat="44.97775" lon="6.40928">
        <ele>2355.2</ele>
        <time>2024-08-11T06:25:38Z</time>
      </trkpt>
      <trkpt lat="44.97775" lon="6.40928">
        <ele>2355.2</ele>
        <time>2024-08-11T06:25:39Z</time>
      </trkpt>
      <trkpt lat="44.97775" lon="6.40928">
        <ele>2355.2</ele>
        <time>2024-08-11T06:25:40Z</time>
      </trkpt>
      <trkpt lat="44.97775" lon="6.40928">
        <ele>2355.2</ele>
        <time>2024-08-11T06:25:41Z</time>
      </trkpt>
      <trkpt lat="44.97775" lon="6.40928">
        <ele>2355.2</ele>
        <time>2024-08-11T06:25:42Z</time>
      </trkpt>
      <trkpt lat="44.97775" lon="6.40928">
        <ele>2355.4</ele>
        <time>2024-08-11T06:25:43Z</time>
      </trkpt>
      <trkpt lat="44.97775" lon="6.40928">
        <ele>2355.4</ele>
        <time>2024-08-11T06:25:44Z</time>
      </trkpt>
      <trkpt lat="44.97775" lon="6.40928">
        <ele>2355.4</ele>
        <time>2024-08-11T06:25:45Z</time>
      </trkpt>
      <trkpt lat="44.97775" lon="6.40928">
        <ele>2355.4</ele>
        <time>2024-08-11T06:25:46Z</time>
      </trkpt>
      <trkpt lat="44.97775" lon="6.40928">
        <ele>2355.4</ele>
        <time>2024-08-11T06:25:47Z</time>
      </trkpt>
      <trkpt lat="44.97775" lon="6.40928">
        <ele>2355.4</ele>
        <time>2024-08-11T06:25:48Z</time>
      </trkpt>
      <trkpt lat="44.97775" lon="6.40928">
        <ele>2355.4</ele>
        <time>2024-08-11T06:25:49Z</time>
      </trkpt>
      <trkpt lat="44.97775" lon="6.40928">
        <ele>2355.4</ele>
        <time>2024-08-11T06:25:50Z</time>
      </trkpt>
      <trkpt lat="44.97775" lon="6.40928">
        <ele>2355.4</ele>
        <time>2024-08-11T06:25:51Z</time>
      </trkpt>
      <trkpt lat="44.97775" lon="6.40928">
        <ele>2355.4</ele>
        <time>2024-08-11T06:25:52Z</time>
      </trkpt>
      <trkpt lat="44.97775" lon="6.40928">
        <ele>2355.4</ele>
        <time>2024-08-11T06:25:53Z</time>
      </trkpt>
      <trkpt lat="44.97775" lon="6.40928">
        <ele>2355.4</ele>
        <time>2024-08-11T06:25:54Z</time>
      </trkpt>
      <trkpt lat="44.97775" lon="6.40928">
        <ele>2355.4</ele>
        <time>2024-08-11T06:25:55Z</time>
      </trkpt>
      <trkpt lat="44.97775" lon="6.40928">
        <ele>2355.4</ele>
        <time>2024-08-11T06:25:56Z</time>
      </trkpt>
      <trkpt lat="44.97775" lon="6.40928">
        <ele>2355.6</ele>
        <time>2024-08-11T06:25:57Z</time>
      </trkpt>
      <trkpt lat="44.97775" lon="6.40928">
        <ele>2355.6</ele>
        <time>2024-08-11T06:25:58Z</time>
      </trkpt>
      <trkpt lat="44.97775" lon="6.40928">
        <ele>2355.6</ele>
        <time>2024-08-11T06:25:59Z</time>
      </trkpt>
      <trkpt lat="44.97775" lon="6.40928">
        <ele>2355.6</ele>
        <time>2024-08-11T06:26:00Z</time>
      </trkpt>
      <trkpt lat="44.97775" lon="6.40928">
        <ele>2355.6</ele>
        <time>2024-08-11T06:26:01Z</time>
      </trkpt>
      <trkpt lat="44.97775" lon="6.40928">
        <ele>2355.4</ele>
        <time>2024-08-11T06:26:02Z</time>
      </trkpt>
      <trkpt lat="44.97775" lon="6.40928">
        <ele>2355.4</ele>
        <time>2024-08-11T06:26:03Z</time>
      </trkpt>
      <trkpt lat="44.97775" lon="6.40928">
        <ele>2355.4</ele>
        <time>2024-08-11T06:26:04Z</time>
      </trkpt>
      <trkpt lat="44.97775" lon="6.40928">
        <ele>2355.4</ele>
        <time>2024-08-11T06:26:05Z</time>
      </trkpt>
      <trkpt lat="44.97777" lon="6.40929">
        <ele>2355.4</ele>
        <time>2024-08-11T06:26:06Z</time>
      </trkpt>
      <trkpt lat="44.97777" lon="6.40929">
        <ele>2355.4</ele>
        <time>2024-08-11T06:26:07Z</time>
      </trkpt>
      <trkpt lat="44.97777" lon="6.40929">
        <ele>2355.4</ele>
        <time>2024-08-11T06:26:08Z</time>
      </trkpt>
      <trkpt lat="44.97778" lon="6.40933">
        <ele>2355.4</ele>
        <time>2024-08-11T06:26:09Z</time>
      </trkpt>
      <trkpt lat="44.97778" lon="6.40933">
        <ele>2355.4</ele>
        <time>2024-08-11T06:26:10Z</time>
      </trkpt>
      <trkpt lat="44.97778" lon="6.40933">
        <ele>2355.4</ele>
        <time>2024-08-11T06:26:11Z</time>
      </trkpt>
      <trkpt lat="44.97781" lon="6.40934">
        <ele>2355.4</ele>
        <time>2024-08-11T06:26:12Z</time>
      </trkpt>
      <trkpt lat="44.97781" lon="6.40934">
        <ele>2355.2</ele>
        <time>2024-08-11T06:26:13Z</time>
      </trkpt>
      <trkpt lat="44.97783" lon="6.40934">
        <ele>2355.2</ele>
        <time>2024-08-11T06:26:14Z</time>
      </trkpt>
      <trkpt lat="44.97783" lon="6.40934">
        <ele>2355</ele>
        <time>2024-08-11T06:26:15Z</time>
      </trkpt>
      <trkpt lat="44.97783" lon="6.40934">
        <ele>2355</ele>
        <time>2024-08-11T06:26:16Z</time>
      </trkpt>
      <trkpt lat="44.97784" lon="6.40937">
        <ele>2355</ele>
        <time>2024-08-11T06:26:17Z</time>
      </trkpt>
      <trkpt lat="44.97784" lon="6.40937">
        <ele>2355</ele>
        <time>2024-08-11T06:26:18Z</time>
      </trkpt>
      <trkpt lat="44.97786" lon="6.4094">
        <ele>2354.8</ele>
        <time>2024-08-11T06:26:19Z</time>
      </trkpt>
      <trkpt lat="44.97786" lon="6.4094">
        <ele>2354.6</ele>
        <time>2024-08-11T06:26:20Z</time>
      </trkpt>
      <trkpt lat="44.97786" lon="6.4094">
        <ele>2354.6</ele>
        <time>2024-08-11T06:26:21Z</time>
      </trkpt>
      <trkpt lat="44.97786" lon="6.4094">
        <ele>2354.6</ele>
        <time>2024-08-11T06:26:22Z</time>
      </trkpt>
      <trkpt lat="44.97789" lon="6.40944">
        <ele>2354.6</ele>
        <time>2024-08-11T06:26:23Z</time>
      </trkpt>
      <trkpt lat="44.97789" lon="6.40945">
        <ele>2354.6</ele>
        <time>2024-08-11T06:26:24Z</time>
      </trkpt>
      <trkpt lat="44.97789" lon="6.40945">
        <ele>2354.6</ele>
        <time>2024-08-11T06:26:25Z</time>
      </trkpt>
      <trkpt lat="44.9779" lon="6.40949">
        <ele>2354.6</ele>
        <time>2024-08-11T06:26:26Z</time>
      </trkpt>
      <trkpt lat="44.9779" lon="6.40949">
        <ele>2354.6</ele>
        <time>2024-08-11T06:26:27Z</time>
      </trkpt>
      <trkpt lat="44.9779" lon="6.40949">
        <ele>2354.6</ele>
        <time>2024-08-11T06:26:28Z</time>
      </trkpt>
      <trkpt lat="44.97793" lon="6.40953">
        <ele>2354.6</ele>
        <time>2024-08-11T06:26:29Z</time>
      </trkpt>
      <trkpt lat="44.97794" lon="6.40954">
        <ele>2354.4</ele>
        <time>2024-08-11T06:26:30Z</time>
      </trkpt>
      <trkpt lat="44.97794" lon="6.40954">
        <ele>2354.2</ele>
        <time>2024-08-11T06:26:31Z</time>
      </trkpt>
      <trkpt lat="44.97796" lon="6.40958">
        <ele>2354.2</ele>
        <time>2024-08-11T06:26:32Z</time>
      </trkpt>
      <trkpt lat="44.97796" lon="6.40958">
        <ele>2354</ele>
        <time>2024-08-11T06:26:33Z</time>
      </trkpt>
      <trkpt lat="44.97796" lon="6.40958">
        <ele>2354</ele>
        <time>2024-08-11T06:26:34Z</time>
      </trkpt>
      <trkpt lat="44.97797" lon="6.40963">
        <ele>2354</ele>
        <time>2024-08-11T06:26:35Z</time>
      </trkpt>
      <trkpt lat="44.97798" lon="6.40965">
        <ele>2354</ele>
        <time>2024-08-11T06:26:36Z</time>
      </trkpt>
      <trkpt lat="44.97798" lon="6.40965">
        <ele>2354</ele>
        <time>2024-08-11T06:26:37Z</time>
      </trkpt>
      <trkpt lat="44.97798" lon="6.40969">
        <ele>2354.2</ele>
        <time>2024-08-11T06:26:38Z</time>
      </trkpt>
      <trkpt lat="44.97798" lon="6.40969">
        <ele>2354</ele>
        <time>2024-08-11T06:26:39Z</time>
      </trkpt>
      <trkpt lat="44.97798" lon="6.40969">
        <ele>2354.2</ele>
        <time>2024-08-11T06:26:40Z</time>
      </trkpt>
      <trkpt lat="44.97797" lon="6.40975">
        <ele>2354.2</ele>
        <time>2024-08-11T06:26:41Z</time>
      </trkpt>
      <trkpt lat="44.97797" lon="6.40976">
        <ele>2354.4</ele>
        <time>2024-08-11T06:26:42Z</time>
      </trkpt>
      <trkpt lat="44.97797" lon="6.40976">
        <ele>2354.4</ele>
        <time>2024-08-11T06:26:43Z</time>
      </trkpt>
      <trkpt lat="44.97796" lon="6.40979">
        <ele>2354.6</ele>
        <time>2024-08-11T06:26:44Z</time>
      </trkpt>
      <trkpt lat="44.97796" lon="6.40979">
        <ele>2354.6</ele>
        <time>2024-08-11T06:26:45Z</time>
      </trkpt>
      <trkpt lat="44.97796" lon="6.40979">
        <ele>2354.8</ele>
        <time>2024-08-11T06:26:46Z</time>
      </trkpt>
      <trkpt lat="44.97795" lon="6.40984">
        <ele>2355</ele>
        <time>2024-08-11T06:26:47Z</time>
      </trkpt>
      <trkpt lat="44.97794" lon="6.40985">
        <ele>2355.2</ele>
        <time>2024-08-11T06:26:48Z</time>
      </trkpt>
      <trkpt lat="44.97794" lon="6.40985">
        <ele>2355.4</ele>
        <time>2024-08-11T06:26:49Z</time>
      </trkpt>
      <trkpt lat="44.97794" lon="6.40989">
        <ele>2355.4</ele>
        <time>2024-08-11T06:26:50Z</time>
      </trkpt>
      <trkpt lat="44.97794" lon="6.40989">
        <ele>2355.6</ele>
        <time>2024-08-11T06:26:51Z</time>
      </trkpt>
      <trkpt lat="44.97794" lon="6.40991">
        <ele>2355.6</ele>
        <time>2024-08-11T06:26:52Z</time>
      </trkpt>
      <trkpt lat="44.97794" lon="6.40991">
        <ele>2355.8</ele>
        <time>2024-08-11T06:26:53Z</time>
      </trkpt>
      <trkpt lat="44.97793" lon="6.40994">
        <ele>2355.8</ele>
        <time>2024-08-11T06:26:54Z</time>
      </trkpt>
      <trkpt lat="44.97793" lon="6.40994">
        <ele>2356.2</ele>
        <time>2024-08-11T06:26:55Z</time>
      </trkpt>
      <trkpt lat="44.97793" lon="6.40997">
        <ele>2356.2</ele>
        <time>2024-08-11T06:26:56Z</time>
      </trkpt>
      <trkpt lat="44.97793" lon="6.40997">
        <ele>2356.2</ele>
        <time>2024-08-11T06:26:57Z</time>
      </trkpt>
      <trkpt lat="44.97794" lon="6.40999">
        <ele>2356.4</ele>
        <time>2024-08-11T06:26:58Z</time>
      </trkpt>
      <trkpt lat="44.97794" lon="6.40999">
        <ele>2356.6</ele>
        <time>2024-08-11T06:26:59Z</time>
      </trkpt>
      <trkpt lat="44.97793" lon="6.41003">
        <ele>2356.8</ele>
        <time>2024-08-11T06:27:00Z</time>
      </trkpt>
      <trkpt lat="44.97793" lon="6.41003">
        <ele>2356.8</ele>
        <time>2024-08-11T06:27:01Z</time>
      </trkpt>
      <trkpt lat="44.97793" lon="6.41006">
        <ele>2357</ele>
        <time>2024-08-11T06:27:02Z</time>
      </trkpt>
      <trkpt lat="44.97793" lon="6.41006">
        <ele>2357</ele>
        <time>2024-08-11T06:27:03Z</time>
      </trkpt>
      <trkpt lat="44.97792" lon="6.4101">
        <ele>2357</ele>
        <time>2024-08-11T06:27:04Z</time>
      </trkpt>
      <trkpt lat="44.97792" lon="6.4101">
        <ele>2357</ele>
        <time>2024-08-11T06:27:05Z</time>
      </trkpt>
      <trkpt lat="44.97792" lon="6.41014">
        <ele>2357</ele>
        <time>2024-08-11T06:27:06Z</time>
      </trkpt>
      <trkpt lat="44.97792" lon="6.41014">
        <ele>2356.8</ele>
        <time>2024-08-11T06:27:07Z</time>
      </trkpt>
      <trkpt lat="44.97792" lon="6.41017">
        <ele>2356.8</ele>
        <time>2024-08-11T06:27:08Z</time>
      </trkpt>
      <trkpt lat="44.97792" lon="6.41017">
        <ele>2356.6</ele>
        <time>2024-08-11T06:27:09Z</time>
      </trkpt>
      <trkpt lat="44.97792" lon="6.41021">
        <ele>2356.6</ele>
        <time>2024-08-11T06:27:10Z</time>
      </trkpt>
      <trkpt lat="44.97792" lon="6.41021">
        <ele>2356.6</ele>
        <time>2024-08-11T06:27:11Z</time>
      </trkpt>
      <trkpt lat="44.97792" lon="6.41025">
        <ele>2356.6</ele>
        <time>2024-08-11T06:27:12Z</time>
      </trkpt>
      <trkpt lat="44.97792" lon="6.41025">
        <ele>2356.6</ele>
        <time>2024-08-11T06:27:13Z</time>
      </trkpt>
      <trkpt lat="44.97792" lon="6.41028">
        <ele>2356.8</ele>
        <time>2024-08-11T06:27:14Z</time>
      </trkpt>
      <trkpt lat="44.97792" lon="6.41028">
        <ele>2356.8</ele>
        <time>2024-08-11T06:27:15Z</time>
      </trkpt>
      <trkpt lat="44.97791" lon="6.41032">
        <ele>2356.8</ele>
        <time>2024-08-11T06:27:16Z</time>
      </trkpt>
      <trkpt lat="44.97791" lon="6.41032">
        <ele>2356.8</ele>
        <time>2024-08-11T06:27:17Z</time>
      </trkpt>
      <trkpt lat="44.97792" lon="6.41035">
        <ele>2356.6</ele>
        <time>2024-08-11T06:27:18Z</time>
      </trkpt>
      <trkpt lat="44.97792" lon="6.41035">
        <ele>2356.6</ele>
        <time>2024-08-11T06:27:19Z</time>
      </trkpt>
      <trkpt lat="44.97792" lon="6.41038">
        <ele>2357</ele>
        <time>2024-08-11T06:27:20Z</time>
      </trkpt>
      <trkpt lat="44.97792" lon="6.41038">
        <ele>2357</ele>
        <time>2024-08-11T06:27:21Z</time>
      </trkpt>
      <trkpt lat="44.97792" lon="6.41042">
        <ele>2356.8</ele>
        <time>2024-08-11T06:27:22Z</time>
      </trkpt>
      <trkpt lat="44.97792" lon="6.41042">
        <ele>2356.6</ele>
        <time>2024-08-11T06:27:23Z</time>
      </trkpt>
      <trkpt lat="44.97793" lon="6.41045">
        <ele>2356.6</ele>
        <time>2024-08-11T06:27:24Z</time>
      </trkpt>
      <trkpt lat="44.97793" lon="6.41045">
        <ele>2356.4</ele>
        <time>2024-08-11T06:27:25Z</time>
      </trkpt>
      <trkpt lat="44.97795" lon="6.41049">
        <ele>2356.4</ele>
        <time>2024-08-11T06:27:26Z</time>
      </trkpt>
      <trkpt lat="44.97795" lon="6.41049">
        <ele>2356.4</ele>
        <time>2024-08-11T06:27:27Z</time>
      </trkpt>
      <trkpt lat="44.97797" lon="6.41052">
        <ele>2356.4</ele>
        <time>2024-08-11T06:27:28Z</time>
      </trkpt>
      <trkpt lat="44.97797" lon="6.41052">
        <ele>2356.6</ele>
        <time>2024-08-11T06:27:29Z</time>
      </trkpt>
      <trkpt lat="44.97798" lon="6.41054">
        <ele>2356.6</ele>
        <time>2024-08-11T06:27:30Z</time>
      </trkpt>
      <trkpt lat="44.97799" lon="6.41057">
        <ele>2356.6</ele>
        <time>2024-08-11T06:27:31Z</time>
      </trkpt>
      <trkpt lat="44.97799" lon="6.41057">
        <ele>2356.8</ele>
        <time>2024-08-11T06:27:32Z</time>
      </trkpt>
      <trkpt lat="44.97801" lon="6.4106">
        <ele>2356.8</ele>
        <time>2024-08-11T06:27:33Z</time>
      </trkpt>
      <trkpt lat="44.97801" lon="6.4106">
        <ele>2357</ele>
        <time>2024-08-11T06:27:34Z</time>
      </trkpt>
      <trkpt lat="44.97802" lon="6.41063">
        <ele>2357</ele>
        <time>2024-08-11T06:27:35Z</time>
      </trkpt>
      <trkpt lat="44.97802" lon="6.41063">
        <ele>2357</ele>
        <time>2024-08-11T06:27:36Z</time>
      </trkpt>
      <trkpt lat="44.97804" lon="6.41066">
        <ele>2357</ele>
        <time>2024-08-11T06:27:37Z</time>
      </trkpt>
      <trkpt lat="44.97804" lon="6.41066">
        <ele>2356.8</ele>
        <time>2024-08-11T06:27:38Z</time>
      </trkpt>
      <trkpt lat="44.97805" lon="6.41069">
        <ele>2356.8</ele>
        <time>2024-08-11T06:27:39Z</time>
      </trkpt>
      <trkpt lat="44.97805" lon="6.41069">
        <ele>2356.8</ele>
        <time>2024-08-11T06:27:40Z</time>
      </trkpt>
      <trkpt lat="44.97807" lon="6.41073">
        <ele>2356.8</ele>
        <time>2024-08-11T06:27:41Z</time>
      </trkpt>
      <trkpt lat="44.97807" lon="6.41073">
        <ele>2356.8</ele>
        <time>2024-08-11T06:27:42Z</time>
      </trkpt>
      <trkpt lat="44.97809" lon="6.41076">
        <ele>2357</ele>
        <time>2024-08-11T06:27:43Z</time>
      </trkpt>
      <trkpt lat="44.97809" lon="6.41076">
        <ele>2357</ele>
        <time>2024-08-11T06:27:44Z</time>
      </trkpt>
      <trkpt lat="44.97812" lon="6.41078">
        <ele>2356.8</ele>
        <time>2024-08-11T06:27:45Z</time>
      </trkpt>
      <trkpt lat="44.97812" lon="6.41078">
        <ele>2356.6</ele>
        <time>2024-08-11T06:27:46Z</time>
      </trkpt>
      <trkpt lat="44.97814" lon="6.41081">
        <ele>2356.4</ele>
        <time>2024-08-11T06:27:47Z</time>
      </trkpt>
      <trkpt lat="44.97814" lon="6.41081">
        <ele>2356.4</ele>
        <time>2024-08-11T06:27:48Z</time>
      </trkpt>
      <trkpt lat="44.97815" lon="6.41084">
        <ele>2356.2</ele>
        <time>2024-08-11T06:27:49Z</time>
      </trkpt>
      <trkpt lat="44.97815" lon="6.41084">
        <ele>2356.2</ele>
        <time>2024-08-11T06:27:50Z</time>
      </trkpt>
      <trkpt lat="44.97816" lon="6.41088">
        <ele>2356.2</ele>
        <time>2024-08-11T06:27:51Z</time>
      </trkpt>
      <trkpt lat="44.97816" lon="6.41088">
        <ele>2356.2</ele>
        <time>2024-08-11T06:27:52Z</time>
      </trkpt>
      <trkpt lat="44.97817" lon="6.41092">
        <ele>2356.2</ele>
        <time>2024-08-11T06:27:53Z</time>
      </trkpt>
      <trkpt lat="44.97817" lon="6.41092">
        <ele>2356.4</ele>
        <time>2024-08-11T06:27:54Z</time>
      </trkpt>
      <trkpt lat="44.97816" lon="6.41096">
        <ele>2356.4</ele>
        <time>2024-08-11T06:27:55Z</time>
      </trkpt>
      <trkpt lat="44.97816" lon="6.41096">
        <ele>2356.4</ele>
        <time>2024-08-11T06:27:56Z</time>
      </trkpt>
      <trkpt lat="44.97816" lon="6.41096">
        <ele>2356.4</ele>
        <time>2024-08-11T06:27:57Z</time>
      </trkpt>
      <trkpt lat="44.97817" lon="6.41101">
        <ele>2356</ele>
        <time>2024-08-11T06:27:58Z</time>
      </trkpt>
      <trkpt lat="44.97817" lon="6.41103">
        <ele>2355.8</ele>
        <time>2024-08-11T06:27:59Z</time>
      </trkpt>
      <trkpt lat="44.97817" lon="6.41103">
        <ele>2355.8</ele>
        <time>2024-08-11T06:28:00Z</time>
      </trkpt>
      <trkpt lat="44.97817" lon="6.41107">
        <ele>2355.6</ele>
        <time>2024-08-11T06:28:01Z</time>
      </trkpt>
      <trkpt lat="44.97817" lon="6.41107">
        <ele>2355.6</ele>
        <time>2024-08-11T06:28:02Z</time>
      </trkpt>
      <trkpt lat="44.97817" lon="6.41111">
        <ele>2355.6</ele>
        <time>2024-08-11T06:28:03Z</time>
      </trkpt>
      <trkpt lat="44.97817" lon="6.41111">
        <ele>2355.6</ele>
        <time>2024-08-11T06:28:04Z</time>
      </trkpt>
      <trkpt lat="44.97818" lon="6.41115">
        <ele>2355.4</ele>
        <time>2024-08-11T06:28:05Z</time>
      </trkpt>
      <trkpt lat="44.97818" lon="6.41115">
        <ele>2355.4</ele>
        <time>2024-08-11T06:28:06Z</time>
      </trkpt>
      <trkpt lat="44.97819" lon="6.41119">
        <ele>2355.4</ele>
        <time>2024-08-11T06:28:07Z</time>
      </trkpt>
      <trkpt lat="44.97819" lon="6.41119">
        <ele>2355.6</ele>
        <time>2024-08-11T06:28:08Z</time>
      </trkpt>
      <trkpt lat="44.9782" lon="6.41122">
        <ele>2355.6</ele>
        <time>2024-08-11T06:28:09Z</time>
      </trkpt>
      <trkpt lat="44.9782" lon="6.41122">
        <ele>2355.6</ele>
        <time>2024-08-11T06:28:10Z</time>
      </trkpt>
      <trkpt lat="44.97822" lon="6.41125">
        <ele>2355.4</ele>
        <time>2024-08-11T06:28:11Z</time>
      </trkpt>
      <trkpt lat="44.97822" lon="6.41125">
        <ele>2355.4</ele>
        <time>2024-08-11T06:28:12Z</time>
      </trkpt>
      <trkpt lat="44.97823" lon="6.41128">
        <ele>2355.6</ele>
        <time>2024-08-11T06:28:13Z</time>
      </trkpt>
      <trkpt lat="44.97823" lon="6.41128">
        <ele>2355.8</ele>
        <time>2024-08-11T06:28:14Z</time>
      </trkpt>
      <trkpt lat="44.97825" lon="6.41132">
        <ele>2355.8</ele>
        <time>2024-08-11T06:28:15Z</time>
      </trkpt>
      <trkpt lat="44.97825" lon="6.41132">
        <ele>2356</ele>
        <time>2024-08-11T06:28:16Z</time>
      </trkpt>
      <trkpt lat="44.97826" lon="6.41135">
        <ele>2356</ele>
        <time>2024-08-11T06:28:17Z</time>
      </trkpt>
      <trkpt lat="44.97826" lon="6.41135">
        <ele>2355.8</ele>
        <time>2024-08-11T06:28:18Z</time>
      </trkpt>
      <trkpt lat="44.97828" lon="6.41139">
        <ele>2355.8</ele>
        <time>2024-08-11T06:28:19Z</time>
      </trkpt>
      <trkpt lat="44.97828" lon="6.41139">
        <ele>2356.2</ele>
        <time>2024-08-11T06:28:20Z</time>
      </trkpt>
      <trkpt lat="44.97829" lon="6.41142">
        <ele>2356.2</ele>
        <time>2024-08-11T06:28:21Z</time>
      </trkpt>
      <trkpt lat="44.97829" lon="6.41142">
        <ele>2356.2</ele>
        <time>2024-08-11T06:28:22Z</time>
      </trkpt>
      <trkpt lat="44.97831" lon="6.41145">
        <ele>2356.2</ele>
        <time>2024-08-11T06:28:23Z</time>
      </trkpt>
      <trkpt lat="44.97831" lon="6.41145">
        <ele>2356.2</ele>
        <time>2024-08-11T06:28:24Z</time>
      </trkpt>
      <trkpt lat="44.97833" lon="6.41148">
        <ele>2356</ele>
        <time>2024-08-11T06:28:25Z</time>
      </trkpt>
      <trkpt lat="44.97833" lon="6.41148">
        <ele>2356</ele>
        <time>2024-08-11T06:28:26Z</time>
      </trkpt>
      <trkpt lat="44.97835" lon="6.41151">
        <ele>2356</ele>
        <time>2024-08-11T06:28:27Z</time>
      </trkpt>
      <trkpt lat="44.97835" lon="6.41151">
        <ele>2356</ele>
        <time>2024-08-11T06:28:28Z</time>
      </trkpt>
      <trkpt lat="44.97837" lon="6.41155">
        <ele>2356</ele>
        <time>2024-08-11T06:28:29Z</time>
      </trkpt>
      <trkpt lat="44.97837" lon="6.41155">
        <ele>2356.4</ele>
        <time>2024-08-11T06:28:30Z</time>
      </trkpt>
      <trkpt lat="44.97839" lon="6.41157">
        <ele>2356.4</ele>
        <time>2024-08-11T06:28:31Z</time>
      </trkpt>
      <trkpt lat="44.97839" lon="6.41157">
        <ele>2356.2</ele>
        <time>2024-08-11T06:28:32Z</time>
      </trkpt>
      <trkpt lat="44.97839" lon="6.41157">
        <ele>2356</ele>
        <time>2024-08-11T06:28:33Z</time>
      </trkpt>
      <trkpt lat="44.97843" lon="6.41162">
        <ele>2356</ele>
        <time>2024-08-11T06:28:34Z</time>
      </trkpt>
      <trkpt lat="44.97843" lon="6.41163">
        <ele>2356</ele>
        <time>2024-08-11T06:28:35Z</time>
      </trkpt>
      <trkpt lat="44.97843" lon="6.41163">
        <ele>2355.8</ele>
        <time>2024-08-11T06:28:36Z</time>
      </trkpt>
      <trkpt lat="44.97845" lon="6.41166">
        <ele>2355.8</ele>
        <time>2024-08-11T06:28:37Z</time>
      </trkpt>
      <trkpt lat="44.97845" lon="6.41166">
        <ele>2356</ele>
        <time>2024-08-11T06:28:38Z</time>
      </trkpt>
      <trkpt lat="44.97846" lon="6.41168">
        <ele>2356</ele>
        <time>2024-08-11T06:28:39Z</time>
      </trkpt>
      <trkpt lat="44.97846" lon="6.41168">
        <ele>2356</ele>
        <time>2024-08-11T06:28:40Z</time>
      </trkpt>
      <trkpt lat="44.97847" lon="6.41171">
        <ele>2356.2</ele>
        <time>2024-08-11T06:28:41Z</time>
      </trkpt>
      <trkpt lat="44.97847" lon="6.41171">
        <ele>2356.4</ele>
        <time>2024-08-11T06:28:42Z</time>
      </trkpt>
      <trkpt lat="44.97848" lon="6.41174">
        <ele>2356.4</ele>
        <time>2024-08-11T06:28:43Z</time>
      </trkpt>
      <trkpt lat="44.97848" lon="6.41174">
        <ele>2356.4</ele>
        <time>2024-08-11T06:28:44Z</time>
      </trkpt>
      <trkpt lat="44.97849" lon="6.41178">
        <ele>2356.4</ele>
        <time>2024-08-11T06:28:45Z</time>
      </trkpt>
      <trkpt lat="44.97849" lon="6.41178">
        <ele>2356.4</ele>
        <time>2024-08-11T06:28:46Z</time>
      </trkpt>
      <trkpt lat="44.9785" lon="6.41182">
        <ele>2356</ele>
        <time>2024-08-11T06:28:47Z</time>
      </trkpt>
      <trkpt lat="44.9785" lon="6.41182">
        <ele>2356</ele>
        <time>2024-08-11T06:28:48Z</time>
      </trkpt>
      <trkpt lat="44.9785" lon="6.41186">
        <ele>2356</ele>
        <time>2024-08-11T06:28:49Z</time>
      </trkpt>
      <trkpt lat="44.9785" lon="6.41186">
        <ele>2355.8</ele>
        <time>2024-08-11T06:28:50Z</time>
      </trkpt>
      <trkpt lat="44.9785" lon="6.4119">
        <ele>2355.8</ele>
        <time>2024-08-11T06:28:51Z</time>
      </trkpt>
      <trkpt lat="44.9785" lon="6.4119">
        <ele>2355.8</ele>
        <time>2024-08-11T06:28:52Z</time>
      </trkpt>
      <trkpt lat="44.97851" lon="6.41194">
        <ele>2355.8</ele>
        <time>2024-08-11T06:28:53Z</time>
      </trkpt>
      <trkpt lat="44.97851" lon="6.41194">
        <ele>2355.8</ele>
        <time>2024-08-11T06:28:54Z</time>
      </trkpt>
      <trkpt lat="44.97852" lon="6.41198">
        <ele>2355.8</ele>
        <time>2024-08-11T06:28:55Z</time>
      </trkpt>
      <trkpt lat="44.97852" lon="6.41198">
        <ele>2355.6</ele>
        <time>2024-08-11T06:28:56Z</time>
      </trkpt>
      <trkpt lat="44.97852" lon="6.41198">
        <ele>2355.6</ele>
        <time>2024-08-11T06:28:57Z</time>
      </trkpt>
      <trkpt lat="44.97852" lon="6.41198">
        <ele>2355.6</ele>
        <time>2024-08-11T06:28:58Z</time>
      </trkpt>
      <trkpt lat="44.97852" lon="6.41198">
        <ele>2355.4</ele>
        <time>2024-08-11T06:28:59Z</time>
      </trkpt>
      <trkpt lat="44.97852" lon="6.41198">
        <ele>2355.2</ele>
        <time>2024-08-11T06:29:00Z</time>
      </trkpt>
      <trkpt lat="44.97852" lon="6.41198">
        <ele>2355.2</ele>
        <time>2024-08-11T06:29:01Z</time>
      </trkpt>
      <trkpt lat="44.97852" lon="6.41198">
        <ele>2355.2</ele>
        <time>2024-08-11T06:29:02Z</time>
      </trkpt>
      <trkpt lat="44.97852" lon="6.41198">
        <ele>2355.2</ele>
        <time>2024-08-11T06:29:03Z</time>
      </trkpt>
      <trkpt lat="44.97852" lon="6.41198">
        <ele>2355.6</ele>
        <time>2024-08-11T06:29:04Z</time>
      </trkpt>
      <trkpt lat="44.97852" lon="6.41198">
        <ele>2355.6</ele>
        <time>2024-08-11T06:29:05Z</time>
      </trkpt>
      <trkpt lat="44.97852" lon="6.41198">
        <ele>2355.4</ele>
        <time>2024-08-11T06:29:06Z</time>
      </trkpt>
      <trkpt lat="44.97852" lon="6.41198">
        <ele>2355.4</ele>
        <time>2024-08-11T06:29:07Z</time>
      </trkpt>
      <trkpt lat="44.97852" lon="6.41198">
        <ele>2355.4</ele>
        <time>2024-08-11T06:29:08Z</time>
      </trkpt>
      <trkpt lat="44.97852" lon="6.41198">
        <ele>2355.4</ele>
        <time>2024-08-11T06:29:09Z</time>
      </trkpt>
      <trkpt lat="44.97852" lon="6.41198">
        <ele>2355.4</ele>
        <time>2024-08-11T06:29:10Z</time>
      </trkpt>
      <trkpt lat="44.97852" lon="6.41198">
        <ele>2355.4</ele>
        <time>2024-08-11T06:29:11Z</time>
      </trkpt>
      <trkpt lat="44.97852" lon="6.41201">
        <ele>2355.2</ele>
        <time>2024-08-11T06:29:12Z</time>
      </trkpt>
      <trkpt lat="44.97852" lon="6.41201">
        <ele>2355.2</ele>
        <time>2024-08-11T06:29:13Z</time>
      </trkpt>
      <trkpt lat="44.97853" lon="6.41205">
        <ele>2355.2</ele>
        <time>2024-08-11T06:29:14Z</time>
      </trkpt>
      <trkpt lat="44.97853" lon="6.41205">
        <ele>2355.4</ele>
        <time>2024-08-11T06:29:15Z</time>
      </trkpt>
      <trkpt lat="44.97853" lon="6.41209">
        <ele>2355.4</ele>
        <time>2024-08-11T06:29:16Z</time>
      </trkpt>
      <trkpt lat="44.97853" lon="6.41209">
        <ele>2355.6</ele>
        <time>2024-08-11T06:29:17Z</time>
      </trkpt>
      <trkpt lat="44.97853" lon="6.41213">
        <ele>2355.8</ele>
        <time>2024-08-11T06:29:18Z</time>
      </trkpt>
      <trkpt lat="44.97853" lon="6.41213">
        <ele>2355.8</ele>
        <time>2024-08-11T06:29:19Z</time>
      </trkpt>
      <trkpt lat="44.97853" lon="6.41217">
        <ele>2356</ele>
        <time>2024-08-11T06:29:20Z</time>
      </trkpt>
      <trkpt lat="44.97853" lon="6.41217">
        <ele>2356.2</ele>
        <time>2024-08-11T06:29:21Z</time>
      </trkpt>
      <trkpt lat="44.97853" lon="6.4122">
        <ele>2356.4</ele>
        <time>2024-08-11T06:29:22Z</time>
      </trkpt>
      <trkpt lat="44.97853" lon="6.4122">
        <ele>2356.6</ele>
        <time>2024-08-11T06:29:23Z</time>
      </trkpt>
      <trkpt lat="44.97853" lon="6.4122">
        <ele>2356.8</ele>
        <time>2024-08-11T06:29:24Z</time>
      </trkpt>
      <trkpt lat="44.97853" lon="6.4122">
        <ele>2357</ele>
        <time>2024-08-11T06:29:25Z</time>
      </trkpt>
      <trkpt lat="44.97853" lon="6.4122">
        <ele>2357</ele>
        <time>2024-08-11T06:29:26Z</time>
      </trkpt>
      <trkpt lat="44.97853" lon="6.4122">
        <ele>2357.2</ele>
        <time>2024-08-11T06:29:27Z</time>
      </trkpt>
      <trkpt lat="44.97853" lon="6.41223">
        <ele>2357.2</ele>
        <time>2024-08-11T06:29:28Z</time>
      </trkpt>
      <trkpt lat="44.97853" lon="6.41223">
        <ele>2357.2</ele>
        <time>2024-08-11T06:29:29Z</time>
      </trkpt>
      <trkpt lat="44.97853" lon="6.41227">
        <ele>2357.2</ele>
        <time>2024-08-11T06:29:30Z</time>
      </trkpt>
      <trkpt lat="44.97853" lon="6.41227">
        <ele>2357.2</ele>
        <time>2024-08-11T06:29:31Z</time>
      </trkpt>
      <trkpt lat="44.97853" lon="6.41227">
        <ele>2357.2</ele>
        <time>2024-08-11T06:29:32Z</time>
      </trkpt>
      <trkpt lat="44.97853" lon="6.41227">
        <ele>2357.4</ele>
        <time>2024-08-11T06:29:33Z</time>
      </trkpt>
      <trkpt lat="44.97853" lon="6.41229">
        <ele>2357.4</ele>
        <time>2024-08-11T06:29:34Z</time>
      </trkpt>
      <trkpt lat="44.97853" lon="6.41229">
        <ele>2357</ele>
        <time>2024-08-11T06:29:35Z</time>
      </trkpt>
      <trkpt lat="44.97853" lon="6.41229">
        <ele>2357</ele>
        <time>2024-08-11T06:29:36Z</time>
      </trkpt>
      <trkpt lat="44.97854" lon="6.41232">
        <ele>2357</ele>
        <time>2024-08-11T06:29:37Z</time>
      </trkpt>
      <trkpt lat="44.97854" lon="6.41232">
        <ele>2357</ele>
        <time>2024-08-11T06:29:38Z</time>
      </trkpt>
      <trkpt lat="44.97855" lon="6.41235">
        <ele>2357</ele>
        <time>2024-08-11T06:29:39Z</time>
      </trkpt>
      <trkpt lat="44.97855" lon="6.41235">
        <ele>2357.2</ele>
        <time>2024-08-11T06:29:40Z</time>
      </trkpt>
      <trkpt lat="44.97855" lon="6.41239">
        <ele>2357.2</ele>
        <time>2024-08-11T06:29:41Z</time>
      </trkpt>
      <trkpt lat="44.97855" lon="6.41239">
        <ele>2357.2</ele>
        <time>2024-08-11T06:29:42Z</time>
      </trkpt>
      <trkpt lat="44.97857" lon="6.41242">
        <ele>2357.4</ele>
        <time>2024-08-11T06:29:43Z</time>
      </trkpt>
      <trkpt lat="44.97857" lon="6.41242">
        <ele>2357.4</ele>
        <time>2024-08-11T06:29:44Z</time>
      </trkpt>
      <trkpt lat="44.97857" lon="6.41242">
        <ele>2357.6</ele>
        <time>2024-08-11T06:29:45Z</time>
      </trkpt>
      <trkpt lat="44.97859" lon="6.41246">
        <ele>2357.6</ele>
        <time>2024-08-11T06:29:46Z</time>
      </trkpt>
      <trkpt lat="44.9786" lon="6.41248">
        <ele>2357.6</ele>
        <time>2024-08-11T06:29:47Z</time>
      </trkpt>
      <trkpt lat="44.9786" lon="6.41248">
        <ele>2357.4</ele>
        <time>2024-08-11T06:29:48Z</time>
      </trkpt>
      <trkpt lat="44.97861" lon="6.41252">
        <ele>2357.2</ele>
        <time>2024-08-11T06:29:49Z</time>
      </trkpt>
      <trkpt lat="44.97861" lon="6.41252">
        <ele>2357.2</ele>
        <time>2024-08-11T06:29:50Z</time>
      </trkpt>
      <trkpt lat="44.97862" lon="6.41256">
        <ele>2357.2</ele>
        <time>2024-08-11T06:29:51Z</time>
      </trkpt>
      <trkpt lat="44.97862" lon="6.41256">
        <ele>2357.2</ele>
        <time>2024-08-11T06:29:52Z</time>
      </trkpt>
      <trkpt lat="44.97863" lon="6.4126">
        <ele>2357</ele>
        <time>2024-08-11T06:29:53Z</time>
      </trkpt>
      <trkpt lat="44.97863" lon="6.4126">
        <ele>2357</ele>
        <time>2024-08-11T06:29:54Z</time>
      </trkpt>
      <trkpt lat="44.97864" lon="6.41263">
        <ele>2357</ele>
        <time>2024-08-11T06:29:55Z</time>
      </trkpt>
      <trkpt lat="44.97864" lon="6.41263">
        <ele>2357</ele>
        <time>2024-08-11T06:29:56Z</time>
      </trkpt>
      <trkpt lat="44.97865" lon="6.41266">
        <ele>2357.2</ele>
        <time>2024-08-11T06:29:57Z</time>
      </trkpt>
      <trkpt lat="44.97865" lon="6.41266">
        <ele>2357.2</ele>
        <time>2024-08-11T06:29:58Z</time>
      </trkpt>
      <trkpt lat="44.97866" lon="6.4127">
        <ele>2357.2</ele>
        <time>2024-08-11T06:29:59Z</time>
      </trkpt>
      <trkpt lat="44.97866" lon="6.4127">
        <ele>2357</ele>
        <time>2024-08-11T06:30:00Z</time>
      </trkpt>
      <trkpt lat="44.97867" lon="6.41273">
        <ele>2357</ele>
        <time>2024-08-11T06:30:01Z</time>
      </trkpt>
      <trkpt lat="44.97867" lon="6.41273">
        <ele>2357</ele>
        <time>2024-08-11T06:30:02Z</time>
      </trkpt>
      <trkpt lat="44.97868" lon="6.41277">
        <ele>2357</ele>
        <time>2024-08-11T06:30:03Z</time>
      </trkpt>
      <trkpt lat="44.97868" lon="6.41277">
        <ele>2357</ele>
        <time>2024-08-11T06:30:04Z</time>
      </trkpt>
      <trkpt lat="44.97869" lon="6.4128">
        <ele>2357.2</ele>
        <time>2024-08-11T06:30:05Z</time>
      </trkpt>
      <trkpt lat="44.97869" lon="6.4128">
        <ele>2357.2</ele>
        <time>2024-08-11T06:30:06Z</time>
      </trkpt>
      <trkpt lat="44.97871" lon="6.41282">
        <ele>2357.2</ele>
        <time>2024-08-11T06:30:07Z</time>
      </trkpt>
      <trkpt lat="44.97871" lon="6.41282">
        <ele>2357.4</ele>
        <time>2024-08-11T06:30:08Z</time>
      </trkpt>
      <trkpt lat="44.97872" lon="6.41285">
        <ele>2357.4</ele>
        <time>2024-08-11T06:30:09Z</time>
      </trkpt>
      <trkpt lat="44.97872" lon="6.41285">
        <ele>2357.2</ele>
        <time>2024-08-11T06:30:10Z</time>
      </trkpt>
      <trkpt lat="44.97873" lon="6.41288">
        <ele>2357.2</ele>
        <time>2024-08-11T06:30:11Z</time>
      </trkpt>
      <trkpt lat="44.97873" lon="6.41288">
        <ele>2357.4</ele>
        <time>2024-08-11T06:30:12Z</time>
      </trkpt>
      <trkpt lat="44.97873" lon="6.41292">
        <ele>2357.4</ele>
        <time>2024-08-11T06:30:13Z</time>
      </trkpt>
      <trkpt lat="44.97873" lon="6.41292">
        <ele>2357.4</ele>
        <time>2024-08-11T06:30:14Z</time>
      </trkpt>
      <trkpt lat="44.97875" lon="6.41295">
        <ele>2357.4</ele>
        <time>2024-08-11T06:30:15Z</time>
      </trkpt>
      <trkpt lat="44.97875" lon="6.41295">
        <ele>2357.2</ele>
        <time>2024-08-11T06:30:16Z</time>
      </trkpt>
      <trkpt lat="44.97876" lon="6.41299">
        <ele>2357.2</ele>
        <time>2024-08-11T06:30:17Z</time>
      </trkpt>
      <trkpt lat="44.97876" lon="6.41299">
        <ele>2357.6</ele>
        <time>2024-08-11T06:30:18Z</time>
      </trkpt>
      <trkpt lat="44.97876" lon="6.41299">
        <ele>2357.6</ele>
        <time>2024-08-11T06:30:19Z</time>
      </trkpt>
      <trkpt lat="44.97878" lon="6.41304">
        <ele>2357.6</ele>
        <time>2024-08-11T06:30:20Z</time>
      </trkpt>
      <trkpt lat="44.97879" lon="6.41305">
        <ele>2357.6</ele>
        <time>2024-08-11T06:30:21Z</time>
      </trkpt>
      <trkpt lat="44.97879" lon="6.41305">
        <ele>2357.6</ele>
        <time>2024-08-11T06:30:22Z</time>
      </trkpt>
      <trkpt lat="44.9788" lon="6.41309">
        <ele>2357.6</ele>
        <time>2024-08-11T06:30:23Z</time>
      </trkpt>
      <trkpt lat="44.9788" lon="6.41309">
        <ele>2357.6</ele>
        <time>2024-08-11T06:30:24Z</time>
      </trkpt>
      <trkpt lat="44.9788" lon="6.41309">
        <ele>2357.4</ele>
        <time>2024-08-11T06:30:25Z</time>
      </trkpt>
      <trkpt lat="44.97882" lon="6.41314">
        <ele>2357.4</ele>
        <time>2024-08-11T06:30:26Z</time>
      </trkpt>
      <trkpt lat="44.97882" lon="6.41316">
        <ele>2357.6</ele>
        <time>2024-08-11T06:30:27Z</time>
      </trkpt>
      <trkpt lat="44.97882" lon="6.41316">
        <ele>2357.4</ele>
        <time>2024-08-11T06:30:28Z</time>
      </trkpt>
      <trkpt lat="44.97883" lon="6.4132">
        <ele>2357.4</ele>
        <time>2024-08-11T06:30:29Z</time>
      </trkpt>
      <trkpt lat="44.97883" lon="6.4132">
        <ele>2357.4</ele>
        <time>2024-08-11T06:30:30Z</time>
      </trkpt>
      <trkpt lat="44.97885" lon="6.41323">
        <ele>2357.2</ele>
        <time>2024-08-11T06:30:31Z</time>
      </trkpt>
      <trkpt lat="44.97885" lon="6.41323">
        <ele>2357.2</ele>
        <time>2024-08-11T06:30:32Z</time>
      </trkpt>
      <trkpt lat="44.97886" lon="6.41326">
        <ele>2357.2</ele>
        <time>2024-08-11T06:30:33Z</time>
      </trkpt>
      <trkpt lat="44.97886" lon="6.41326">
        <ele>2357</ele>
        <time>2024-08-11T06:30:34Z</time>
      </trkpt>
      <trkpt lat="44.97887" lon="6.41329">
        <ele>2357</ele>
        <time>2024-08-11T06:30:35Z</time>
      </trkpt>
      <trkpt lat="44.97887" lon="6.41329">
        <ele>2356.8</ele>
        <time>2024-08-11T06:30:36Z</time>
      </trkpt>
      <trkpt lat="44.97887" lon="6.41333">
        <ele>2356.8</ele>
        <time>2024-08-11T06:30:37Z</time>
      </trkpt>
      <trkpt lat="44.97887" lon="6.41333">
        <ele>2356.6</ele>
        <time>2024-08-11T06:30:38Z</time>
      </trkpt>
      <trkpt lat="44.97887" lon="6.41333">
        <ele>2356.6</ele>
        <time>2024-08-11T06:30:39Z</time>
      </trkpt>
      <trkpt lat="44.97888" lon="6.41339">
        <ele>2356.8</ele>
        <time>2024-08-11T06:30:40Z</time>
      </trkpt>
      <trkpt lat="44.97889" lon="6.41341">
        <ele>2356.8</ele>
        <time>2024-08-11T06:30:41Z</time>
      </trkpt>
      <trkpt lat="44.97889" lon="6.41341">
        <ele>2356.6</ele>
        <time>2024-08-11T06:30:42Z</time>
      </trkpt>
      <trkpt lat="44.9789" lon="6.41344">
        <ele>2356.6</ele>
        <time>2024-08-11T06:30:43Z</time>
      </trkpt>
      <trkpt lat="44.9789" lon="6.41344">
        <ele>2356.6</ele>
        <time>2024-08-11T06:30:44Z</time>
      </trkpt>
      <trkpt lat="44.9789" lon="6.41344">
        <ele>2356.4</ele>
        <time>2024-08-11T06:30:45Z</time>
      </trkpt>
      <trkpt lat="44.9789" lon="6.4135">
        <ele>2356.4</ele>
        <time>2024-08-11T06:30:46Z</time>
      </trkpt>
      <trkpt lat="44.97891" lon="6.41352">
        <ele>2356.4</ele>
        <time>2024-08-11T06:30:47Z</time>
      </trkpt>
      <trkpt lat="44.97891" lon="6.41352">
        <ele>2356.4</ele>
        <time>2024-08-11T06:30:48Z</time>
      </trkpt>
      <trkpt lat="44.97891" lon="6.41356">
        <ele>2356.2</ele>
        <time>2024-08-11T06:30:49Z</time>
      </trkpt>
      <trkpt lat="44.97891" lon="6.41356">
        <ele>2356.2</ele>
        <time>2024-08-11T06:30:50Z</time>
      </trkpt>
      <trkpt lat="44.97891" lon="6.41356">
        <ele>2356</ele>
        <time>2024-08-11T06:30:51Z</time>
      </trkpt>
      <trkpt lat="44.97892" lon="6.41362">
        <ele>2356</ele>
        <time>2024-08-11T06:30:52Z</time>
      </trkpt>
      <trkpt lat="44.97892" lon="6.41364">
        <ele>2356.2</ele>
        <time>2024-08-11T06:30:53Z</time>
      </trkpt>
      <trkpt lat="44.97892" lon="6.41364">
        <ele>2356</ele>
        <time>2024-08-11T06:30:54Z</time>
      </trkpt>
      <trkpt lat="44.97893" lon="6.41368">
        <ele>2355.8</ele>
        <time>2024-08-11T06:30:55Z</time>
      </trkpt>
      <trkpt lat="44.97893" lon="6.41368">
        <ele>2355.6</ele>
        <time>2024-08-11T06:30:56Z</time>
      </trkpt>
      <trkpt lat="44.97893" lon="6.41371">
        <ele>2355.6</ele>
        <time>2024-08-11T06:30:57Z</time>
      </trkpt>
      <trkpt lat="44.97893" lon="6.41371">
        <ele>2355.8</ele>
        <time>2024-08-11T06:30:58Z</time>
      </trkpt>
      <trkpt lat="44.97894" lon="6.41374">
        <ele>2355.8</ele>
        <time>2024-08-11T06:30:59Z</time>
      </trkpt>
      <trkpt lat="44.97894" lon="6.41374">
        <ele>2355.6</ele>
        <time>2024-08-11T06:31:00Z</time>
      </trkpt>
      <trkpt lat="44.97895" lon="6.41378">
        <ele>2355.6</ele>
        <time>2024-08-11T06:31:01Z</time>
      </trkpt>
      <trkpt lat="44.97895" lon="6.41378">
        <ele>2355.6</ele>
        <time>2024-08-11T06:31:02Z</time>
      </trkpt>
      <trkpt lat="44.97895" lon="6.41378">
        <ele>2355.6</ele>
        <time>2024-08-11T06:31:03Z</time>
      </trkpt>
      <trkpt lat="44.97897" lon="6.41381">
        <ele>2355.4</ele>
        <time>2024-08-11T06:31:04Z</time>
      </trkpt>
      <trkpt lat="44.97898" lon="6.41383">
        <ele>2355.2</ele>
        <time>2024-08-11T06:31:05Z</time>
      </trkpt>
      <trkpt lat="44.97898" lon="6.41383">
        <ele>2355.2</ele>
        <time>2024-08-11T06:31:06Z</time>
      </trkpt>
      <trkpt lat="44.97897" lon="6.41386">
        <ele>2355.2</ele>
        <time>2024-08-11T06:31:07Z</time>
      </trkpt>
      <trkpt lat="44.97897" lon="6.41386">
        <ele>2355</ele>
        <time>2024-08-11T06:31:08Z</time>
      </trkpt>
      <trkpt lat="44.97897" lon="6.41386">
        <ele>2355</ele>
        <time>2024-08-11T06:31:09Z</time>
      </trkpt>
      <trkpt lat="44.97899" lon="6.41391">
        <ele>2354.8</ele>
        <time>2024-08-11T06:31:10Z</time>
      </trkpt>
      <trkpt lat="44.97899" lon="6.41393">
        <ele>2354.6</ele>
        <time>2024-08-11T06:31:11Z</time>
      </trkpt>
      <trkpt lat="44.97899" lon="6.41393">
        <ele>2354.6</ele>
        <time>2024-08-11T06:31:12Z</time>
      </trkpt>
      <trkpt lat="44.97901" lon="6.41395">
        <ele>2354.6</ele>
        <time>2024-08-11T06:31:13Z</time>
      </trkpt>
      <trkpt lat="44.97901" lon="6.41395">
        <ele>2354.4</ele>
        <time>2024-08-11T06:31:14Z</time>
      </trkpt>
      <trkpt lat="44.97901" lon="6.41395">
        <ele>2354.4</ele>
        <time>2024-08-11T06:31:15Z</time>
      </trkpt>
      <trkpt lat="44.97903" lon="6.41398">
        <ele>2354.4</ele>
        <time>2024-08-11T06:31:16Z</time>
      </trkpt>
      <trkpt lat="44.97903" lon="6.41399">
        <ele>2354.4</ele>
        <time>2024-08-11T06:31:17Z</time>
      </trkpt>
      <trkpt lat="44.97903" lon="6.41399">
        <ele>2354.2</ele>
        <time>2024-08-11T06:31:18Z</time>
      </trkpt>
      <trkpt lat="44.97905" lon="6.41402">
        <ele>2354.2</ele>
        <time>2024-08-11T06:31:19Z</time>
      </trkpt>
      <trkpt lat="44.97905" lon="6.41402">
        <ele>2354.2</ele>
        <time>2024-08-11T06:31:20Z</time>
      </trkpt>
      <trkpt lat="44.97905" lon="6.41402">
        <ele>2354</ele>
        <time>2024-08-11T06:31:21Z</time>
      </trkpt>
      <trkpt lat="44.97908" lon="6.41406">
        <ele>2354</ele>
        <time>2024-08-11T06:31:22Z</time>
      </trkpt>
      <trkpt lat="44.97909" lon="6.41407">
        <ele>2354.4</ele>
        <time>2024-08-11T06:31:23Z</time>
      </trkpt>
      <trkpt lat="44.97909" lon="6.41407">
        <ele>2354.4</ele>
        <time>2024-08-11T06:31:24Z</time>
      </trkpt>
      <trkpt lat="44.9791" lon="6.4141">
        <ele>2354.4</ele>
        <time>2024-08-11T06:31:25Z</time>
      </trkpt>
      <trkpt lat="44.9791" lon="6.4141">
        <ele>2354.4</ele>
        <time>2024-08-11T06:31:26Z</time>
      </trkpt>
      <trkpt lat="44.9791" lon="6.4141">
        <ele>2354.6</ele>
        <time>2024-08-11T06:31:27Z</time>
      </trkpt>
      <trkpt lat="44.97912" lon="6.41415">
        <ele>2354.6</ele>
        <time>2024-08-11T06:31:28Z</time>
      </trkpt>
      <trkpt lat="44.97913" lon="6.41416">
        <ele>2354.6</ele>
        <time>2024-08-11T06:31:29Z</time>
      </trkpt>
      <trkpt lat="44.97913" lon="6.41416">
        <ele>2354.2</ele>
        <time>2024-08-11T06:31:30Z</time>
      </trkpt>
      <trkpt lat="44.97913" lon="6.41419">
        <ele>2354.2</ele>
        <time>2024-08-11T06:31:31Z</time>
      </trkpt>
      <trkpt lat="44.97913" lon="6.41419">
        <ele>2354</ele>
        <time>2024-08-11T06:31:32Z</time>
      </trkpt>
      <trkpt lat="44.97913" lon="6.41422">
        <ele>2354</ele>
        <time>2024-08-11T06:31:33Z</time>
      </trkpt>
      <trkpt lat="44.97913" lon="6.41422">
        <ele>2353.6</ele>
        <time>2024-08-11T06:31:34Z</time>
      </trkpt>
      <trkpt lat="44.97915" lon="6.41425">
        <ele>2353.4</ele>
        <time>2024-08-11T06:31:35Z</time>
      </trkpt>
      <trkpt lat="44.97915" lon="6.41425">
        <ele>2353.4</ele>
        <time>2024-08-11T06:31:36Z</time>
      </trkpt>
      <trkpt lat="44.97915" lon="6.41428">
        <ele>2353.2</ele>
        <time>2024-08-11T06:31:37Z</time>
      </trkpt>
      <trkpt lat="44.97915" lon="6.41428">
        <ele>2353</ele>
        <time>2024-08-11T06:31:38Z</time>
      </trkpt>
      <trkpt lat="44.97915" lon="6.41428">
        <ele>2353</ele>
        <time>2024-08-11T06:31:39Z</time>
      </trkpt>
      <trkpt lat="44.97917" lon="6.41432">
        <ele>2352.8</ele>
        <time>2024-08-11T06:31:40Z</time>
      </trkpt>
      <trkpt lat="44.97917" lon="6.41434">
        <ele>2352.6</ele>
        <time>2024-08-11T06:31:41Z</time>
      </trkpt>
      <trkpt lat="44.97917" lon="6.41434">
        <ele>2352.4</ele>
        <time>2024-08-11T06:31:42Z</time>
      </trkpt>
      <trkpt lat="44.97917" lon="6.41437">
        <ele>2352.2</ele>
        <time>2024-08-11T06:31:43Z</time>
      </trkpt>
      <trkpt lat="44.97917" lon="6.41437">
        <ele>2351.8</ele>
        <time>2024-08-11T06:31:44Z</time>
      </trkpt>
      <trkpt lat="44.97919" lon="6.4144">
        <ele>2351.6</ele>
        <time>2024-08-11T06:31:45Z</time>
      </trkpt>
      <trkpt lat="44.97919" lon="6.4144">
        <ele>2351.6</ele>
        <time>2024-08-11T06:31:46Z</time>
      </trkpt>
      <trkpt lat="44.97919" lon="6.4144">
        <ele>2351.2</ele>
        <time>2024-08-11T06:31:47Z</time>
      </trkpt>
      <trkpt lat="44.97919" lon="6.41444">
        <ele>2351.2</ele>
        <time>2024-08-11T06:31:48Z</time>
      </trkpt>
      <trkpt lat="44.97919" lon="6.41446">
        <ele>2351</ele>
        <time>2024-08-11T06:31:49Z</time>
      </trkpt>
      <trkpt lat="44.97919" lon="6.41446">
        <ele>2350.6</ele>
        <time>2024-08-11T06:31:50Z</time>
      </trkpt>
      <trkpt lat="44.97919" lon="6.41446">
        <ele>2350.4</ele>
        <time>2024-08-11T06:31:51Z</time>
      </trkpt>
      <trkpt lat="44.97921" lon="6.4145">
        <ele>2350.2</ele>
        <time>2024-08-11T06:31:52Z</time>
      </trkpt>
      <trkpt lat="44.97921" lon="6.4145">
        <ele>2350</ele>
        <time>2024-08-11T06:31:53Z</time>
      </trkpt>
      <trkpt lat="44.97922" lon="6.41452">
        <ele>2349.8</ele>
        <time>2024-08-11T06:31:54Z</time>
      </trkpt>
      <trkpt lat="44.97922" lon="6.41452">
        <ele>2349.6</ele>
        <time>2024-08-11T06:31:55Z</time>
      </trkpt>
      <trkpt lat="44.97922" lon="6.41452">
        <ele>2349.4</ele>
        <time>2024-08-11T06:31:56Z</time>
      </trkpt>
      <trkpt lat="44.97924" lon="6.41456">
        <ele>2349</ele>
        <time>2024-08-11T06:31:57Z</time>
      </trkpt>
      <trkpt lat="44.97925" lon="6.41458">
        <ele>2348.8</ele>
        <time>2024-08-11T06:31:58Z</time>
      </trkpt>
      <trkpt lat="44.97925" lon="6.41458">
        <ele>2348.4</ele>
        <time>2024-08-11T06:31:59Z</time>
      </trkpt>
      <trkpt lat="44.97926" lon="6.41461">
        <ele>2348.4</ele>
        <time>2024-08-11T06:32:00Z</time>
      </trkpt>
      <trkpt lat="44.97926" lon="6.41461">
        <ele>2348.4</ele>
        <time>2024-08-11T06:32:01Z</time>
      </trkpt>
      <trkpt lat="44.97926" lon="6.41461">
        <ele>2348</ele>
        <time>2024-08-11T06:32:02Z</time>
      </trkpt>
      <trkpt lat="44.97928" lon="6.41465">
        <ele>2348</ele>
        <time>2024-08-11T06:32:03Z</time>
      </trkpt>
      <trkpt lat="44.97929" lon="6.41467">
        <ele>2347.8</ele>
        <time>2024-08-11T06:32:04Z</time>
      </trkpt>
      <trkpt lat="44.97929" lon="6.41467">
        <ele>2347.6</ele>
        <time>2024-08-11T06:32:05Z</time>
      </trkpt>
      <trkpt lat="44.97929" lon="6.4147">
        <ele>2347.6</ele>
        <time>2024-08-11T06:32:06Z</time>
      </trkpt>
      <trkpt lat="44.97929" lon="6.4147">
        <ele>2347.2</ele>
        <time>2024-08-11T06:32:07Z</time>
      </trkpt>
      <trkpt lat="44.97929" lon="6.4147">
        <ele>2347.2</ele>
        <time>2024-08-11T06:32:08Z</time>
      </trkpt>
      <trkpt lat="44.97931" lon="6.41476">
        <ele>2347</ele>
        <time>2024-08-11T06:32:09Z</time>
      </trkpt>
      <trkpt lat="44.97932" lon="6.41478">
        <ele>2347</ele>
        <time>2024-08-11T06:32:10Z</time>
      </trkpt>
      <trkpt lat="44.97932" lon="6.41478">
        <ele>2347</ele>
        <time>2024-08-11T06:32:11Z</time>
      </trkpt>
      <trkpt lat="44.97933" lon="6.41481">
        <ele>2347</ele>
        <time>2024-08-11T06:32:12Z</time>
      </trkpt>
      <trkpt lat="44.97933" lon="6.41481">
        <ele>2346.8</ele>
        <time>2024-08-11T06:32:13Z</time>
      </trkpt>
      <trkpt lat="44.97933" lon="6.41481">
        <ele>2346.8</ele>
        <time>2024-08-11T06:32:14Z</time>
      </trkpt>
      <trkpt lat="44.97934" lon="6.41486">
        <ele>2346.4</ele>
        <time>2024-08-11T06:32:15Z</time>
      </trkpt>
      <trkpt lat="44.97934" lon="6.41487">
        <ele>2346.2</ele>
        <time>2024-08-11T06:32:16Z</time>
      </trkpt>
      <trkpt lat="44.97934" lon="6.41487">
        <ele>2346</ele>
        <time>2024-08-11T06:32:17Z</time>
      </trkpt>
      <trkpt lat="44.97934" lon="6.4149">
        <ele>2345.8</ele>
        <time>2024-08-11T06:32:18Z</time>
      </trkpt>
      <trkpt lat="44.97934" lon="6.4149">
        <ele>2345.4</ele>
        <time>2024-08-11T06:32:19Z</time>
      </trkpt>
      <trkpt lat="44.97934" lon="6.4149">
        <ele>2345.4</ele>
        <time>2024-08-11T06:32:20Z</time>
      </trkpt>
      <trkpt lat="44.97935" lon="6.41494">
        <ele>2345.2</ele>
        <time>2024-08-11T06:32:21Z</time>
      </trkpt>
      <trkpt lat="44.97935" lon="6.41494">
        <ele>2345.2</ele>
        <time>2024-08-11T06:32:22Z</time>
      </trkpt>
      <trkpt lat="44.97935" lon="6.41494">
        <ele>2345</ele>
        <time>2024-08-11T06:32:23Z</time>
      </trkpt>
      <trkpt lat="44.97935" lon="6.41497">
        <ele>2344.8</ele>
        <time>2024-08-11T06:32:24Z</time>
      </trkpt>
      <trkpt lat="44.97935" lon="6.41497">
        <ele>2344.4</ele>
        <time>2024-08-11T06:32:25Z</time>
      </trkpt>
      <trkpt lat="44.97935" lon="6.41497">
        <ele>2344</ele>
        <time>2024-08-11T06:32:26Z</time>
      </trkpt>
      <trkpt lat="44.97936" lon="6.415">
        <ele>2343.8</ele>
        <time>2024-08-11T06:32:27Z</time>
      </trkpt>
      <trkpt lat="44.97937" lon="6.41502">
        <ele>2343.8</ele>
        <time>2024-08-11T06:32:28Z</time>
      </trkpt>
      <trkpt lat="44.97937" lon="6.41502">
        <ele>2343.4</ele>
        <time>2024-08-11T06:32:29Z</time>
      </trkpt>
      <trkpt lat="44.97937" lon="6.41504">
        <ele>2343</ele>
        <time>2024-08-11T06:32:30Z</time>
      </trkpt>
      <trkpt lat="44.97937" lon="6.41504">
        <ele>2342.8</ele>
        <time>2024-08-11T06:32:31Z</time>
      </trkpt>
      <trkpt lat="44.97937" lon="6.41504">
        <ele>2342.8</ele>
        <time>2024-08-11T06:32:32Z</time>
      </trkpt>
      <trkpt lat="44.97937" lon="6.41508">
        <ele>2342.8</ele>
        <time>2024-08-11T06:32:33Z</time>
      </trkpt>
      <trkpt lat="44.97937" lon="6.41508">
        <ele>2342.4</ele>
        <time>2024-08-11T06:32:34Z</time>
      </trkpt>
      <trkpt lat="44.97937" lon="6.41508">
        <ele>2341.8</ele>
        <time>2024-08-11T06:32:35Z</time>
      </trkpt>
      <trkpt lat="44.97935" lon="6.41513">
        <ele>2341.8</ele>
        <time>2024-08-11T06:32:36Z</time>
      </trkpt>
      <trkpt lat="44.97935" lon="6.41514">
        <ele>2341.6</ele>
        <time>2024-08-11T06:32:37Z</time>
      </trkpt>
      <trkpt lat="44.97935" lon="6.41514">
        <ele>2341.6</ele>
        <time>2024-08-11T06:32:38Z</time>
      </trkpt>
      <trkpt lat="44.97935" lon="6.41518">
        <ele>2341.6</ele>
        <time>2024-08-11T06:32:39Z</time>
      </trkpt>
      <trkpt lat="44.97935" lon="6.41518">
        <ele>2341.4</ele>
        <time>2024-08-11T06:32:40Z</time>
      </trkpt>
      <trkpt lat="44.97935" lon="6.41518">
        <ele>2341.2</ele>
        <time>2024-08-11T06:32:41Z</time>
      </trkpt>
      <trkpt lat="44.97932" lon="6.41521">
        <ele>2341</ele>
        <time>2024-08-11T06:32:42Z</time>
      </trkpt>
      <trkpt lat="44.97932" lon="6.41523">
        <ele>2340.8</ele>
        <time>2024-08-11T06:32:43Z</time>
      </trkpt>
      <trkpt lat="44.97932" lon="6.41523">
        <ele>2340.6</ele>
        <time>2024-08-11T06:32:44Z</time>
      </trkpt>
      <trkpt lat="44.97932" lon="6.41526">
        <ele>2340.4</ele>
        <time>2024-08-11T06:32:45Z</time>
      </trkpt>
      <trkpt lat="44.97932" lon="6.41526">
        <ele>2340.2</ele>
        <time>2024-08-11T06:32:46Z</time>
      </trkpt>
      <trkpt lat="44.97933" lon="6.41529">
        <ele>2340.2</ele>
        <time>2024-08-11T06:32:47Z</time>
      </trkpt>
      <trkpt lat="44.97933" lon="6.41529">
        <ele>2340</ele>
        <time>2024-08-11T06:32:48Z</time>
      </trkpt>
      <trkpt lat="44.97933" lon="6.41532">
        <ele>2339.8</ele>
        <time>2024-08-11T06:32:49Z</time>
      </trkpt>
      <trkpt lat="44.97933" lon="6.41532">
        <ele>2339.4</ele>
        <time>2024-08-11T06:32:50Z</time>
      </trkpt>
      <trkpt lat="44.97933" lon="6.41535">
        <ele>2339.2</ele>
        <time>2024-08-11T06:32:51Z</time>
      </trkpt>
      <trkpt lat="44.97933" lon="6.41535">
        <ele>2339.2</ele>
        <time>2024-08-11T06:32:52Z</time>
      </trkpt>
      <trkpt lat="44.97933" lon="6.41535">
        <ele>2339</ele>
        <time>2024-08-11T06:32:53Z</time>
      </trkpt>
      <trkpt lat="44.97935" lon="6.41539">
        <ele>2338.6</ele>
        <time>2024-08-11T06:32:54Z</time>
      </trkpt>
      <trkpt lat="44.97935" lon="6.4154">
        <ele>2338.6</ele>
        <time>2024-08-11T06:32:55Z</time>
      </trkpt>
      <trkpt lat="44.97935" lon="6.4154">
        <ele>2338.4</ele>
        <time>2024-08-11T06:32:56Z</time>
      </trkpt>
      <trkpt lat="44.97935" lon="6.41543">
        <ele>2338.2</ele>
        <time>2024-08-11T06:32:57Z</time>
      </trkpt>
      <trkpt lat="44.97935" lon="6.41543">
        <ele>2338</ele>
        <time>2024-08-11T06:32:58Z</time>
      </trkpt>
      <trkpt lat="44.97935" lon="6.41543">
        <ele>2337.8</ele>
        <time>2024-08-11T06:32:59Z</time>
      </trkpt>
      <trkpt lat="44.97936" lon="6.41546">
        <ele>2337.4</ele>
        <time>2024-08-11T06:33:00Z</time>
      </trkpt>
      <trkpt lat="44.97936" lon="6.41546">
        <ele>2337.2</ele>
        <time>2024-08-11T06:33:01Z</time>
      </trkpt>
      <trkpt lat="44.97936" lon="6.41546">
        <ele>2336.8</ele>
        <time>2024-08-11T06:33:02Z</time>
      </trkpt>
      <trkpt lat="44.97937" lon="6.4155">
        <ele>2336.8</ele>
        <time>2024-08-11T06:33:03Z</time>
      </trkpt>
      <trkpt lat="44.97938" lon="6.41552">
        <ele>2336.4</ele>
        <time>2024-08-11T06:33:04Z</time>
      </trkpt>
      <trkpt lat="44.97938" lon="6.41552">
        <ele>2336.2</ele>
        <time>2024-08-11T06:33:05Z</time>
      </trkpt>
      <trkpt lat="44.97939" lon="6.41556">
        <ele>2335.8</ele>
        <time>2024-08-11T06:33:06Z</time>
      </trkpt>
      <trkpt lat="44.97939" lon="6.41556">
        <ele>2335.6</ele>
        <time>2024-08-11T06:33:07Z</time>
      </trkpt>
      <trkpt lat="44.97939" lon="6.41556">
        <ele>2335.4</ele>
        <time>2024-08-11T06:33:08Z</time>
      </trkpt>
      <trkpt lat="44.97941" lon="6.41559">
        <ele>2335.4</ele>
        <time>2024-08-11T06:33:09Z</time>
      </trkpt>
      <trkpt lat="44.97941" lon="6.4156">
        <ele>2335.4</ele>
        <time>2024-08-11T06:33:10Z</time>
      </trkpt>
      <trkpt lat="44.97941" lon="6.4156">
        <ele>2335.2</ele>
        <time>2024-08-11T06:33:11Z</time>
      </trkpt>
      <trkpt lat="44.97943" lon="6.41562">
        <ele>2335.2</ele>
        <time>2024-08-11T06:33:12Z</time>
      </trkpt>
      <trkpt lat="44.97943" lon="6.41562">
        <ele>2335</ele>
        <time>2024-08-11T06:33:13Z</time>
      </trkpt>
      <trkpt lat="44.97943" lon="6.41562">
        <ele>2334.6</ele>
        <time>2024-08-11T06:33:14Z</time>
      </trkpt>
      <trkpt lat="44.97944" lon="6.41566">
        <ele>2334.6</ele>
        <time>2024-08-11T06:33:15Z</time>
      </trkpt>
      <trkpt lat="44.97944" lon="6.41568">
        <ele>2334.6</ele>
        <time>2024-08-11T06:33:16Z</time>
      </trkpt>
      <trkpt lat="44.97944" lon="6.41568">
        <ele>2334.2</ele>
        <time>2024-08-11T06:33:17Z</time>
      </trkpt>
      <trkpt lat="44.97945" lon="6.41571">
        <ele>2333.8</ele>
        <time>2024-08-11T06:33:18Z</time>
      </trkpt>
      <trkpt lat="44.97945" lon="6.41571">
        <ele>2333.4</ele>
        <time>2024-08-11T06:33:19Z</time>
      </trkpt>
      <trkpt lat="44.97945" lon="6.41571">
        <ele>2333</ele>
        <time>2024-08-11T06:33:20Z</time>
      </trkpt>
      <trkpt lat="44.97946" lon="6.41576">
        <ele>2332.8</ele>
        <time>2024-08-11T06:33:21Z</time>
      </trkpt>
      <trkpt lat="44.97947" lon="6.41577">
        <ele>2332.8</ele>
        <time>2024-08-11T06:33:22Z</time>
      </trkpt>
      <trkpt lat="44.97947" lon="6.41577">
        <ele>2332.8</ele>
        <time>2024-08-11T06:33:23Z</time>
      </trkpt>
      <trkpt lat="44.97947" lon="6.41581">
        <ele>2332.6</ele>
        <time>2024-08-11T06:33:24Z</time>
      </trkpt>
      <trkpt lat="44.97947" lon="6.41581">
        <ele>2332.6</ele>
        <time>2024-08-11T06:33:25Z</time>
      </trkpt>
      <trkpt lat="44.97947" lon="6.41581">
        <ele>2332.4</ele>
        <time>2024-08-11T06:33:26Z</time>
      </trkpt>
      <trkpt lat="44.97947" lon="6.41586">
        <ele>2332.2</ele>
        <time>2024-08-11T06:33:27Z</time>
      </trkpt>
      <trkpt lat="44.97947" lon="6.41588">
        <ele>2332</ele>
        <time>2024-08-11T06:33:28Z</time>
      </trkpt>
      <trkpt lat="44.97947" lon="6.41588">
        <ele>2331.8</ele>
        <time>2024-08-11T06:33:29Z</time>
      </trkpt>
      <trkpt lat="44.97948" lon="6.4159">
        <ele>2331.2</ele>
        <time>2024-08-11T06:33:30Z</time>
      </trkpt>
      <trkpt lat="44.97948" lon="6.4159">
        <ele>2331.2</ele>
        <time>2024-08-11T06:33:31Z</time>
      </trkpt>
      <trkpt lat="44.97948" lon="6.4159">
        <ele>2331.2</ele>
        <time>2024-08-11T06:33:32Z</time>
      </trkpt>
      <trkpt lat="44.9795" lon="6.41593">
        <ele>2331</ele>
        <time>2024-08-11T06:33:33Z</time>
      </trkpt>
      <trkpt lat="44.97951" lon="6.41594">
        <ele>2331</ele>
        <time>2024-08-11T06:33:34Z</time>
      </trkpt>
      <trkpt lat="44.97951" lon="6.41594">
        <ele>2330.6</ele>
        <time>2024-08-11T06:33:35Z</time>
      </trkpt>
      <trkpt lat="44.97951" lon="6.41597">
        <ele>2330.6</ele>
        <time>2024-08-11T06:33:36Z</time>
      </trkpt>
      <trkpt lat="44.97951" lon="6.41597">
        <ele>2330.4</ele>
        <time>2024-08-11T06:33:37Z</time>
      </trkpt>
      <trkpt lat="44.97951" lon="6.41597">
        <ele>2330.2</ele>
        <time>2024-08-11T06:33:38Z</time>
      </trkpt>
      <trkpt lat="44.97953" lon="6.416">
        <ele>2330</ele>
        <time>2024-08-11T06:33:39Z</time>
      </trkpt>
      <trkpt lat="44.97953" lon="6.416">
        <ele>2329.8</ele>
        <time>2024-08-11T06:33:40Z</time>
      </trkpt>
      <trkpt lat="44.97953" lon="6.416">
        <ele>2329.6</ele>
        <time>2024-08-11T06:33:41Z</time>
      </trkpt>
      <trkpt lat="44.97954" lon="6.41602">
        <ele>2329.2</ele>
        <time>2024-08-11T06:33:42Z</time>
      </trkpt>
      <trkpt lat="44.97954" lon="6.41602">
        <ele>2329.2</ele>
        <time>2024-08-11T06:33:43Z</time>
      </trkpt>
      <trkpt lat="44.97954" lon="6.41602">
        <ele>2329.2</ele>
        <time>2024-08-11T06:33:44Z</time>
      </trkpt>
      <trkpt lat="44.97954" lon="6.41602">
        <ele>2328.8</ele>
        <time>2024-08-11T06:33:45Z</time>
      </trkpt>
      <trkpt lat="44.97954" lon="6.41602">
        <ele>2328.6</ele>
        <time>2024-08-11T06:33:46Z</time>
      </trkpt>
      <trkpt lat="44.97954" lon="6.41602">
        <ele>2328.6</ele>
        <time>2024-08-11T06:33:47Z</time>
      </trkpt>
      <trkpt lat="44.97954" lon="6.41602">
        <ele>2328.6</ele>
        <time>2024-08-11T06:33:48Z</time>
      </trkpt>
      <trkpt lat="44.97954" lon="6.41602">
        <ele>2328.6</ele>
        <time>2024-08-11T06:33:49Z</time>
      </trkpt>
      <trkpt lat="44.97954" lon="6.41602">
        <ele>2328.6</ele>
        <time>2024-08-11T06:33:50Z</time>
      </trkpt>
      <trkpt lat="44.97954" lon="6.41602">
        <ele>2328.6</ele>
        <time>2024-08-11T06:33:51Z</time>
      </trkpt>
      <trkpt lat="44.97954" lon="6.41602">
        <ele>2328.4</ele>
        <time>2024-08-11T06:33:52Z</time>
      </trkpt>
      <trkpt lat="44.97954" lon="6.41602">
        <ele>2328.4</ele>
        <time>2024-08-11T06:33:53Z</time>
      </trkpt>
      <trkpt lat="44.97954" lon="6.41602">
        <ele>2328.4</ele>
        <time>2024-08-11T06:33:54Z</time>
      </trkpt>
      <trkpt lat="44.97954" lon="6.41602">
        <ele>2328.6</ele>
        <time>2024-08-11T06:33:55Z</time>
      </trkpt>
      <trkpt lat="44.97954" lon="6.41602">
        <ele>2328.6</ele>
        <time>2024-08-11T06:33:56Z</time>
      </trkpt>
      <trkpt lat="44.97954" lon="6.41602">
        <ele>2328.6</ele>
        <time>2024-08-11T06:33:57Z</time>
      </trkpt>
      <trkpt lat="44.97954" lon="6.41602">
        <ele>2328.6</ele>
        <time>2024-08-11T06:33:58Z</time>
      </trkpt>
      <trkpt lat="44.97954" lon="6.41602">
        <ele>2328.6</ele>
        <time>2024-08-11T06:33:59Z</time>
      </trkpt>
      <trkpt lat="44.97954" lon="6.41602">
        <ele>2328.6</ele>
        <time>2024-08-11T06:34:00Z</time>
      </trkpt>
      <trkpt lat="44.97954" lon="6.41602">
        <ele>2328.6</ele>
        <time>2024-08-11T06:34:01Z</time>
      </trkpt>
      <trkpt lat="44.97954" lon="6.41602">
        <ele>2328.4</ele>
        <time>2024-08-11T06:34:02Z</time>
      </trkpt>
      <trkpt lat="44.97954" lon="6.41602">
        <ele>2328.4</ele>
        <time>2024-08-11T06:34:03Z</time>
      </trkpt>
      <trkpt lat="44.97954" lon="6.41602">
        <ele>2328.4</ele>
        <time>2024-08-11T06:34:04Z</time>
      </trkpt>
      <trkpt lat="44.97954" lon="6.41602">
        <ele>2328.4</ele>
        <time>2024-08-11T06:34:05Z</time>
      </trkpt>
      <trkpt lat="44.97954" lon="6.41602">
        <ele>2328.4</ele>
        <time>2024-08-11T06:34:06Z</time>
      </trkpt>
      <trkpt lat="44.97954" lon="6.41602">
        <ele>2328.4</ele>
        <time>2024-08-11T06:34:07Z</time>
      </trkpt>
      <trkpt lat="44.97954" lon="6.41602">
        <ele>2328.6</ele>
        <time>2024-08-11T06:34:08Z</time>
      </trkpt>
      <trkpt lat="44.97954" lon="6.41602">
        <ele>2328.6</ele>
        <time>2024-08-11T06:34:09Z</time>
      </trkpt>
      <trkpt lat="44.97954" lon="6.41602">
        <ele>2328.6</ele>
        <time>2024-08-11T06:34:10Z</time>
      </trkpt>
      <trkpt lat="44.97954" lon="6.41602">
        <ele>2328.2</ele>
        <time>2024-08-11T06:34:11Z</time>
      </trkpt>
      <trkpt lat="44.97954" lon="6.41602">
        <ele>2328.2</ele>
        <time>2024-08-11T06:34:12Z</time>
      </trkpt>
      <trkpt lat="44.97954" lon="6.41602">
        <ele>2329</ele>
        <time>2024-08-11T06:34:13Z</time>
      </trkpt>
      <trkpt lat="44.97954" lon="6.41602">
        <ele>2329</ele>
        <time>2024-08-11T06:34:14Z</time>
      </trkpt>
      <trkpt lat="44.97954" lon="6.41602">
        <ele>2329</ele>
        <time>2024-08-11T06:34:15Z</time>
      </trkpt>
      <trkpt lat="44.97954" lon="6.41602">
        <ele>2329</ele>
        <time>2024-08-11T06:34:16Z</time>
      </trkpt>
      <trkpt lat="44.97954" lon="6.41602">
        <ele>2328.4</ele>
        <time>2024-08-11T06:34:17Z</time>
      </trkpt>
      <trkpt lat="44.97954" lon="6.41602">
        <ele>2328.4</ele>
        <time>2024-08-11T06:34:18Z</time>
      </trkpt>
      <trkpt lat="44.97954" lon="6.41602">
        <ele>2328.4</ele>
        <time>2024-08-11T06:34:19Z</time>
      </trkpt>
      <trkpt lat="44.97954" lon="6.41602">
        <ele>2328.2</ele>
        <time>2024-08-11T06:34:20Z</time>
      </trkpt>
      <trkpt lat="44.97954" lon="6.41602">
        <ele>2328.2</ele>
        <time>2024-08-11T06:34:21Z</time>
      </trkpt>
      <trkpt lat="44.97954" lon="6.41602">
        <ele>2328.2</ele>
        <time>2024-08-11T06:34:22Z</time>
      </trkpt>
      <trkpt lat="44.97954" lon="6.41602">
        <ele>2328.2</ele>
        <time>2024-08-11T06:34:23Z</time>
      </trkpt>
      <trkpt lat="44.97954" lon="6.41602">
        <ele>2328.4</ele>
        <time>2024-08-11T06:34:24Z</time>
      </trkpt>
      <trkpt lat="44.97954" lon="6.41602">
        <ele>2328.4</ele>
        <time>2024-08-11T06:34:25Z</time>
      </trkpt>
      <trkpt lat="44.97954" lon="6.41602">
        <ele>2328.4</ele>
        <time>2024-08-11T06:34:26Z</time>
      </trkpt>
      <trkpt lat="44.97954" lon="6.41602">
        <ele>2328.4</ele>
        <time>2024-08-11T06:34:27Z</time>
      </trkpt>
      <trkpt lat="44.97955" lon="6.41605">
        <ele>2328.4</ele>
        <time>2024-08-11T06:34:28Z</time>
      </trkpt>
      <trkpt lat="44.97955" lon="6.41605">
        <ele>2328.2</ele>
        <time>2024-08-11T06:34:29Z</time>
      </trkpt>
      <trkpt lat="44.97955" lon="6.41605">
        <ele>2328</ele>
        <time>2024-08-11T06:34:30Z</time>
      </trkpt>
      <trkpt lat="44.97955" lon="6.41608">
        <ele>2328</ele>
        <time>2024-08-11T06:34:31Z</time>
      </trkpt>
      <trkpt lat="44.97955" lon="6.41608">
        <ele>2327.8</ele>
        <time>2024-08-11T06:34:32Z</time>
      </trkpt>
      <trkpt lat="44.97955" lon="6.41611">
        <ele>2327.8</ele>
        <time>2024-08-11T06:34:33Z</time>
      </trkpt>
      <trkpt lat="44.97955" lon="6.41611">
        <ele>2327.4</ele>
        <time>2024-08-11T06:34:34Z</time>
      </trkpt>
      <trkpt lat="44.97956" lon="6.41614">
        <ele>2327.2</ele>
        <time>2024-08-11T06:34:35Z</time>
      </trkpt>
      <trkpt lat="44.97956" lon="6.41614">
        <ele>2327.2</ele>
        <time>2024-08-11T06:34:36Z</time>
      </trkpt>
      <trkpt lat="44.97957" lon="6.41617">
        <ele>2326.6</ele>
        <time>2024-08-11T06:34:37Z</time>
      </trkpt>
      <trkpt lat="44.97957" lon="6.41617">
        <ele>2326.6</ele>
        <time>2024-08-11T06:34:38Z</time>
      </trkpt>
      <trkpt lat="44.97957" lon="6.4162">
        <ele>2326.4</ele>
        <time>2024-08-11T06:34:39Z</time>
      </trkpt>
      <trkpt lat="44.97957" lon="6.4162">
        <ele>2325.8</ele>
        <time>2024-08-11T06:34:40Z</time>
      </trkpt>
      <trkpt lat="44.97958" lon="6.41622">
        <ele>2325.6</ele>
        <time>2024-08-11T06:34:41Z</time>
      </trkpt>
      <trkpt lat="44.97958" lon="6.41622">
        <ele>2325.4</ele>
        <time>2024-08-11T06:34:42Z</time>
      </trkpt>
      <trkpt lat="44.97958" lon="6.41622">
        <ele>2325</ele>
        <time>2024-08-11T06:34:43Z</time>
      </trkpt>
      <trkpt lat="44.97958" lon="6.41626">
        <ele>2324.8</ele>
        <time>2024-08-11T06:34:44Z</time>
      </trkpt>
      <trkpt lat="44.97958" lon="6.41626">
        <ele>2324.8</ele>
        <time>2024-08-11T06:34:45Z</time>
      </trkpt>
      <trkpt lat="44.97959" lon="6.41628">
        <ele>2324.6</ele>
        <time>2024-08-11T06:34:46Z</time>
      </trkpt>
      <trkpt lat="44.97959" lon="6.41628">
        <ele>2324.6</ele>
        <time>2024-08-11T06:34:47Z</time>
      </trkpt>
      <trkpt lat="44.9796" lon="6.41631">
        <ele>2324.2</ele>
        <time>2024-08-11T06:34:48Z</time>
      </trkpt>
      <trkpt lat="44.9796" lon="6.41631">
        <ele>2324.2</ele>
        <time>2024-08-11T06:34:49Z</time>
      </trkpt>
      <trkpt lat="44.97961" lon="6.41634">
        <ele>2324</ele>
        <time>2024-08-11T06:34:50Z</time>
      </trkpt>
      <trkpt lat="44.97961" lon="6.41634">
        <ele>2323.8</ele>
        <time>2024-08-11T06:34:51Z</time>
      </trkpt>
      <trkpt lat="44.97963" lon="6.41636">
        <ele>2323.8</ele>
        <time>2024-08-11T06:34:52Z</time>
      </trkpt>
      <trkpt lat="44.97963" lon="6.41636">
        <ele>2323.8</ele>
        <time>2024-08-11T06:34:53Z</time>
      </trkpt>
      <trkpt lat="44.97965" lon="6.41638">
        <ele>2323.4</ele>
        <time>2024-08-11T06:34:54Z</time>
      </trkpt>
      <trkpt lat="44.97965" lon="6.41638">
        <ele>2323.4</ele>
        <time>2024-08-11T06:34:55Z</time>
      </trkpt>
      <trkpt lat="44.97966" lon="6.41641">
        <ele>2323.2</ele>
        <time>2024-08-11T06:34:56Z</time>
      </trkpt>
      <trkpt lat="44.97966" lon="6.41641">
        <ele>2322.6</ele>
        <time>2024-08-11T06:34:57Z</time>
      </trkpt>
      <trkpt lat="44.97967" lon="6.41643">
        <ele>2322.4</ele>
        <time>2024-08-11T06:34:58Z</time>
      </trkpt>
      <trkpt lat="44.97967" lon="6.41643">
        <ele>2322.2</ele>
        <time>2024-08-11T06:34:59Z</time>
      </trkpt>
      <trkpt lat="44.97968" lon="6.41646">
        <ele>2322.2</ele>
        <time>2024-08-11T06:35:00Z</time>
      </trkpt>
      <trkpt lat="44.97968" lon="6.41646">
        <ele>2322</ele>
        <time>2024-08-11T06:35:01Z</time>
      </trkpt>
      <trkpt lat="44.97969" lon="6.41649">
        <ele>2321.8</ele>
        <time>2024-08-11T06:35:02Z</time>
      </trkpt>
      <trkpt lat="44.97969" lon="6.41649">
        <ele>2321.8</ele>
        <time>2024-08-11T06:35:03Z</time>
      </trkpt>
      <trkpt lat="44.97971" lon="6.41652">
        <ele>2321.6</ele>
        <time>2024-08-11T06:35:04Z</time>
      </trkpt>
      <trkpt lat="44.97971" lon="6.41652">
        <ele>2321.4</ele>
        <time>2024-08-11T06:35:05Z</time>
      </trkpt>
      <trkpt lat="44.97973" lon="6.41654">
        <ele>2321</ele>
        <time>2024-08-11T06:35:06Z</time>
      </trkpt>
      <trkpt lat="44.97973" lon="6.41654">
        <ele>2320.8</ele>
        <time>2024-08-11T06:35:07Z</time>
      </trkpt>
      <trkpt lat="44.97975" lon="6.41656">
        <ele>2320.8</ele>
        <time>2024-08-11T06:35:08Z</time>
      </trkpt>
      <trkpt lat="44.97975" lon="6.41656">
        <ele>2320.6</ele>
        <time>2024-08-11T06:35:09Z</time>
      </trkpt>
      <trkpt lat="44.97977" lon="6.41658">
        <ele>2320.6</ele>
        <time>2024-08-11T06:35:10Z</time>
      </trkpt>
      <trkpt lat="44.97977" lon="6.41658">
        <ele>2320.4</ele>
        <time>2024-08-11T06:35:11Z</time>
      </trkpt>
      <trkpt lat="44.97978" lon="6.41661">
        <ele>2320.2</ele>
        <time>2024-08-11T06:35:12Z</time>
      </trkpt>
      <trkpt lat="44.97978" lon="6.41661">
        <ele>2320.2</ele>
        <time>2024-08-11T06:35:13Z</time>
      </trkpt>
      <trkpt lat="44.9798" lon="6.41664">
        <ele>2320.2</ele>
        <time>2024-08-11T06:35:14Z</time>
      </trkpt>
      <trkpt lat="44.9798" lon="6.41664">
        <ele>2320</ele>
        <time>2024-08-11T06:35:15Z</time>
      </trkpt>
      <trkpt lat="44.97981" lon="6.41666">
        <ele>2319.8</ele>
        <time>2024-08-11T06:35:16Z</time>
      </trkpt>
      <trkpt lat="44.97981" lon="6.41666">
        <ele>2319.4</ele>
        <time>2024-08-11T06:35:17Z</time>
      </trkpt>
      <trkpt lat="44.97981" lon="6.41669">
        <ele>2319.2</ele>
        <time>2024-08-11T06:35:18Z</time>
      </trkpt>
      <trkpt lat="44.97981" lon="6.41669">
        <ele>2319</ele>
        <time>2024-08-11T06:35:19Z</time>
      </trkpt>
      <trkpt lat="44.97981" lon="6.41672">
        <ele>2319</ele>
        <time>2024-08-11T06:35:20Z</time>
      </trkpt>
      <trkpt lat="44.97981" lon="6.41672">
        <ele>2318.8</ele>
        <time>2024-08-11T06:35:21Z</time>
      </trkpt>
      <trkpt lat="44.97982" lon="6.41676">
        <ele>2318.4</ele>
        <time>2024-08-11T06:35:22Z</time>
      </trkpt>
      <trkpt lat="44.97982" lon="6.41676">
        <ele>2318.2</ele>
        <time>2024-08-11T06:35:23Z</time>
      </trkpt>
      <trkpt lat="44.97983" lon="6.41679">
        <ele>2318</ele>
        <time>2024-08-11T06:35:24Z</time>
      </trkpt>
      <trkpt lat="44.97983" lon="6.41679">
        <ele>2317.8</ele>
        <time>2024-08-11T06:35:25Z</time>
      </trkpt>
      <trkpt lat="44.97984" lon="6.41682">
        <ele>2317.8</ele>
        <time>2024-08-11T06:35:26Z</time>
      </trkpt>
      <trkpt lat="44.97984" lon="6.41682">
        <ele>2317.4</ele>
        <time>2024-08-11T06:35:27Z</time>
      </trkpt>
      <trkpt lat="44.97986" lon="6.41685">
        <ele>2317.4</ele>
        <time>2024-08-11T06:35:28Z</time>
      </trkpt>
      <trkpt lat="44.97986" lon="6.41685">
        <ele>2317.4</ele>
        <time>2024-08-11T06:35:29Z</time>
      </trkpt>
      <trkpt lat="44.97987" lon="6.41687">
        <ele>2317.4</ele>
        <time>2024-08-11T06:35:30Z</time>
      </trkpt>
      <trkpt lat="44.97987" lon="6.41687">
        <ele>2317.2</ele>
        <time>2024-08-11T06:35:31Z</time>
      </trkpt>
      <trkpt lat="44.97987" lon="6.41687">
        <ele>2317.2</ele>
        <time>2024-08-11T06:35:32Z</time>
      </trkpt>
      <trkpt lat="44.97987" lon="6.4169">
        <ele>2317</ele>
        <time>2024-08-11T06:35:33Z</time>
      </trkpt>
      <trkpt lat="44.97987" lon="6.4169">
        <ele>2317</ele>
        <time>2024-08-11T06:35:34Z</time>
      </trkpt>
      <trkpt lat="44.97987" lon="6.4169">
        <ele>2316.8</ele>
        <time>2024-08-11T06:35:35Z</time>
      </trkpt>
      <trkpt lat="44.97986" lon="6.41693">
        <ele>2316.4</ele>
        <time>2024-08-11T06:35:36Z</time>
      </trkpt>
      <trkpt lat="44.97986" lon="6.41693">
        <ele>2316.2</ele>
        <time>2024-08-11T06:35:37Z</time>
      </trkpt>
      <trkpt lat="44.97987" lon="6.41696">
        <ele>2315.8</ele>
        <time>2024-08-11T06:35:38Z</time>
      </trkpt>
      <trkpt lat="44.97987" lon="6.41696">
        <ele>2315.6</ele>
        <time>2024-08-11T06:35:39Z</time>
      </trkpt>
      <trkpt lat="44.97988" lon="6.417">
        <ele>2315.4</ele>
        <time>2024-08-11T06:35:40Z</time>
      </trkpt>
      <trkpt lat="44.97988" lon="6.417">
        <ele>2315.2</ele>
        <time>2024-08-11T06:35:41Z</time>
      </trkpt>
      <trkpt lat="44.97988" lon="6.41703">
        <ele>2315</ele>
        <time>2024-08-11T06:35:42Z</time>
      </trkpt>
      <trkpt lat="44.97988" lon="6.41703">
        <ele>2314.8</ele>
        <time>2024-08-11T06:35:43Z</time>
      </trkpt>
      <trkpt lat="44.97988" lon="6.41706">
        <ele>2314.6</ele>
        <time>2024-08-11T06:35:44Z</time>
      </trkpt>
      <trkpt lat="44.97988" lon="6.41706">
        <ele>2314.4</ele>
        <time>2024-08-11T06:35:45Z</time>
      </trkpt>
      <trkpt lat="44.97988" lon="6.41709">
        <ele>2314.4</ele>
        <time>2024-08-11T06:35:46Z</time>
      </trkpt>
      <trkpt lat="44.97988" lon="6.41709">
        <ele>2313.8</ele>
        <time>2024-08-11T06:35:47Z</time>
      </trkpt>
      <trkpt lat="44.97989" lon="6.41712">
        <ele>2313.6</ele>
        <time>2024-08-11T06:35:48Z</time>
      </trkpt>
      <trkpt lat="44.97989" lon="6.41712">
        <ele>2313.4</ele>
        <time>2024-08-11T06:35:49Z</time>
      </trkpt>
      <trkpt lat="44.97989" lon="6.41716">
        <ele>2313.2</ele>
        <time>2024-08-11T06:35:50Z</time>
      </trkpt>
      <trkpt lat="44.97989" lon="6.41716">
        <ele>2313</ele>
        <time>2024-08-11T06:35:51Z</time>
      </trkpt>
      <trkpt lat="44.9799" lon="6.41719">
        <ele>2312.8</ele>
        <time>2024-08-11T06:35:52Z</time>
      </trkpt>
      <trkpt lat="44.9799" lon="6.41719">
        <ele>2312.6</ele>
        <time>2024-08-11T06:35:53Z</time>
      </trkpt>
      <trkpt lat="44.9799" lon="6.41722">
        <ele>2312</ele>
        <time>2024-08-11T06:35:54Z</time>
      </trkpt>
      <trkpt lat="44.9799" lon="6.41722">
        <ele>2312</ele>
        <time>2024-08-11T06:35:55Z</time>
      </trkpt>
      <trkpt lat="44.9799" lon="6.41725">
        <ele>2311.8</ele>
        <time>2024-08-11T06:35:56Z</time>
      </trkpt>
      <trkpt lat="44.9799" lon="6.41725">
        <ele>2311.6</ele>
        <time>2024-08-11T06:35:57Z</time>
      </trkpt>
      <trkpt lat="44.97991" lon="6.41728">
        <ele>2311.4</ele>
        <time>2024-08-11T06:35:58Z</time>
      </trkpt>
      <trkpt lat="44.97991" lon="6.41728">
        <ele>2310.8</ele>
        <time>2024-08-11T06:35:59Z</time>
      </trkpt>
      <trkpt lat="44.97991" lon="6.4173">
        <ele>2310.6</ele>
        <time>2024-08-11T06:36:00Z</time>
      </trkpt>
      <trkpt lat="44.97991" lon="6.4173">
        <ele>2310.4</ele>
        <time>2024-08-11T06:36:01Z</time>
      </trkpt>
      <trkpt lat="44.97992" lon="6.41733">
        <ele>2309.8</ele>
        <time>2024-08-11T06:36:02Z</time>
      </trkpt>
      <trkpt lat="44.97992" lon="6.41733">
        <ele>2309.8</ele>
        <time>2024-08-11T06:36:03Z</time>
      </trkpt>
      <trkpt lat="44.97993" lon="6.41736">
        <ele>2309.6</ele>
        <time>2024-08-11T06:36:04Z</time>
      </trkpt>
      <trkpt lat="44.97993" lon="6.41736">
        <ele>2309.2</ele>
        <time>2024-08-11T06:36:05Z</time>
      </trkpt>
      <trkpt lat="44.97994" lon="6.41738">
        <ele>2309</ele>
        <time>2024-08-11T06:36:06Z</time>
      </trkpt>
      <trkpt lat="44.97994" lon="6.41738">
        <ele>2308.8</ele>
        <time>2024-08-11T06:36:07Z</time>
      </trkpt>
      <trkpt lat="44.97997" lon="6.41739">
        <ele>2308.4</ele>
        <time>2024-08-11T06:36:08Z</time>
      </trkpt>
      <trkpt lat="44.97997" lon="6.41739">
        <ele>2308.2</ele>
        <time>2024-08-11T06:36:09Z</time>
      </trkpt>
      <trkpt lat="44.97997" lon="6.41739">
        <ele>2308.2</ele>
        <time>2024-08-11T06:36:10Z</time>
      </trkpt>
      <trkpt lat="44.97998" lon="6.41742">
        <ele>2308</ele>
        <time>2024-08-11T06:36:11Z</time>
      </trkpt>
      <trkpt lat="44.97998" lon="6.41742">
        <ele>2307.6</ele>
        <time>2024-08-11T06:36:12Z</time>
      </trkpt>
      <trkpt lat="44.97998" lon="6.41742">
        <ele>2307.4</ele>
        <time>2024-08-11T06:36:13Z</time>
      </trkpt>
      <trkpt lat="44.97998" lon="6.41742">
        <ele>2307</ele>
        <time>2024-08-11T06:36:14Z</time>
      </trkpt>
      <trkpt lat="44.97999" lon="6.41745">
        <ele>2306.8</ele>
        <time>2024-08-11T06:36:15Z</time>
      </trkpt>
      <trkpt lat="44.97999" lon="6.41745">
        <ele>2306.6</ele>
        <time>2024-08-11T06:36:16Z</time>
      </trkpt>
      <trkpt lat="44.98" lon="6.41749">
        <ele>2306.2</ele>
        <time>2024-08-11T06:36:17Z</time>
      </trkpt>
      <trkpt lat="44.98" lon="6.41749">
        <ele>2305.8</ele>
        <time>2024-08-11T06:36:18Z</time>
      </trkpt>
      <trkpt lat="44.98" lon="6.41753">
        <ele>2305.6</ele>
        <time>2024-08-11T06:36:19Z</time>
      </trkpt>
      <trkpt lat="44.98" lon="6.41753">
        <ele>2305.4</ele>
        <time>2024-08-11T06:36:20Z</time>
      </trkpt>
      <trkpt lat="44.98001" lon="6.41756">
        <ele>2305.4</ele>
        <time>2024-08-11T06:36:21Z</time>
      </trkpt>
      <trkpt lat="44.98001" lon="6.41756">
        <ele>2305.4</ele>
        <time>2024-08-11T06:36:22Z</time>
      </trkpt>
      <trkpt lat="44.98001" lon="6.41756">
        <ele>2305.6</ele>
        <time>2024-08-11T06:36:23Z</time>
      </trkpt>
      <trkpt lat="44.98002" lon="6.41761">
        <ele>2305.6</ele>
        <time>2024-08-11T06:36:24Z</time>
      </trkpt>
      <trkpt lat="44.98002" lon="6.41762">
        <ele>2305.8</ele>
        <time>2024-08-11T06:36:25Z</time>
      </trkpt>
      <trkpt lat="44.98002" lon="6.41762">
        <ele>2305.8</ele>
        <time>2024-08-11T06:36:26Z</time>
      </trkpt>
      <trkpt lat="44.98002" lon="6.41765">
        <ele>2305.8</ele>
        <time>2024-08-11T06:36:27Z</time>
      </trkpt>
      <trkpt lat="44.98002" lon="6.41765">
        <ele>2305.8</ele>
        <time>2024-08-11T06:36:28Z</time>
      </trkpt>
      <trkpt lat="44.98002" lon="6.41765">
        <ele>2305.8</ele>
        <time>2024-08-11T06:36:29Z</time>
      </trkpt>
      <trkpt lat="44.98002" lon="6.4177">
        <ele>2306</ele>
        <time>2024-08-11T06:36:30Z</time>
      </trkpt>
      <trkpt lat="44.98002" lon="6.41771">
        <ele>2306</ele>
        <time>2024-08-11T06:36:31Z</time>
      </trkpt>
      <trkpt lat="44.98002" lon="6.41771">
        <ele>2306.2</ele>
        <time>2024-08-11T06:36:32Z</time>
      </trkpt>
      <trkpt lat="44.98002" lon="6.41774">
        <ele>2306.2</ele>
        <time>2024-08-11T06:36:33Z</time>
      </trkpt>
      <trkpt lat="44.98002" lon="6.41774">
        <ele>2306.2</ele>
        <time>2024-08-11T06:36:34Z</time>
      </trkpt>
      <trkpt lat="44.98002" lon="6.41774">
        <ele>2306</ele>
        <time>2024-08-11T06:36:35Z</time>
      </trkpt>
      <trkpt lat="44.98002" lon="6.41779">
        <ele>2305.6</ele>
        <time>2024-08-11T06:36:36Z</time>
      </trkpt>
      <trkpt lat="44.98003" lon="6.41781">
        <ele>2305.6</ele>
        <time>2024-08-11T06:36:37Z</time>
      </trkpt>
      <trkpt lat="44.98003" lon="6.41781">
        <ele>2305</ele>
        <time>2024-08-11T06:36:38Z</time>
      </trkpt>
      <trkpt lat="44.98004" lon="6.41784">
        <ele>2304.8</ele>
        <time>2024-08-11T06:36:39Z</time>
      </trkpt>
      <trkpt lat="44.98004" lon="6.41784">
        <ele>2304.6</ele>
        <time>2024-08-11T06:36:40Z</time>
      </trkpt>
      <trkpt lat="44.98004" lon="6.41784">
        <ele>2304.6</ele>
        <time>2024-08-11T06:36:41Z</time>
      </trkpt>
      <trkpt lat="44.98004" lon="6.4179">
        <ele>2304.4</ele>
        <time>2024-08-11T06:36:42Z</time>
      </trkpt>
      <trkpt lat="44.98003" lon="6.41792">
        <ele>2303.8</ele>
        <time>2024-08-11T06:36:43Z</time>
      </trkpt>
      <trkpt lat="44.98003" lon="6.41792">
        <ele>2303.6</ele>
        <time>2024-08-11T06:36:44Z</time>
      </trkpt>
      <trkpt lat="44.98003" lon="6.41796">
        <ele>2303.6</ele>
        <time>2024-08-11T06:36:45Z</time>
      </trkpt>
      <trkpt lat="44.98003" lon="6.41796">
        <ele>2303.6</ele>
        <time>2024-08-11T06:36:46Z</time>
      </trkpt>
      <trkpt lat="44.98003" lon="6.41796">
        <ele>2303.6</ele>
        <time>2024-08-11T06:36:47Z</time>
      </trkpt>
      <trkpt lat="44.98001" lon="6.41801">
        <ele>2303.4</ele>
        <time>2024-08-11T06:36:48Z</time>
      </trkpt>
      <trkpt lat="44.98" lon="6.41803">
        <ele>2303.2</ele>
        <time>2024-08-11T06:36:49Z</time>
      </trkpt>
      <trkpt lat="44.98" lon="6.41803">
        <ele>2303.2</ele>
        <time>2024-08-11T06:36:50Z</time>
      </trkpt>
      <trkpt lat="44.98" lon="6.41807">
        <ele>2303</ele>
        <time>2024-08-11T06:36:51Z</time>
      </trkpt>
      <trkpt lat="44.98" lon="6.41807">
        <ele>2303</ele>
        <time>2024-08-11T06:36:52Z</time>
      </trkpt>
      <trkpt lat="44.98" lon="6.41807">
        <ele>2303</ele>
        <time>2024-08-11T06:36:53Z</time>
      </trkpt>
      <trkpt lat="44.98" lon="6.4181">
        <ele>2303</ele>
        <time>2024-08-11T06:36:54Z</time>
      </trkpt>
      <trkpt lat="44.98" lon="6.4181">
        <ele>2302.8</ele>
        <time>2024-08-11T06:36:55Z</time>
      </trkpt>
      <trkpt lat="44.98" lon="6.4181">
        <ele>2302.6</ele>
        <time>2024-08-11T06:36:56Z</time>
      </trkpt>
      <trkpt lat="44.98002" lon="6.41815">
        <ele>2302.4</ele>
        <time>2024-08-11T06:36:57Z</time>
      </trkpt>
      <trkpt lat="44.98002" lon="6.41817">
        <ele>2302.2</ele>
        <time>2024-08-11T06:36:58Z</time>
      </trkpt>
      <trkpt lat="44.98002" lon="6.41817">
        <ele>2302</ele>
        <time>2024-08-11T06:36:59Z</time>
      </trkpt>
      <trkpt lat="44.98003" lon="6.4182">
        <ele>2301.8</ele>
        <time>2024-08-11T06:37:00Z</time>
      </trkpt>
      <trkpt lat="44.98003" lon="6.4182">
        <ele>2301.4</ele>
        <time>2024-08-11T06:37:01Z</time>
      </trkpt>
      <trkpt lat="44.98003" lon="6.4182">
        <ele>2301.2</ele>
        <time>2024-08-11T06:37:02Z</time>
      </trkpt>
      <trkpt lat="44.98006" lon="6.41822">
        <ele>2301.2</ele>
        <time>2024-08-11T06:37:03Z</time>
      </trkpt>
      <trkpt lat="44.98006" lon="6.41822">
        <ele>2301.2</ele>
        <time>2024-08-11T06:37:04Z</time>
      </trkpt>
      <trkpt lat="44.98006" lon="6.41822">
        <ele>2300.8</ele>
        <time>2024-08-11T06:37:05Z</time>
      </trkpt>
      <trkpt lat="44.98006" lon="6.41826">
        <ele>2300.8</ele>
        <time>2024-08-11T06:37:06Z</time>
      </trkpt>
      <trkpt lat="44.98006" lon="6.41828">
        <ele>2300.4</ele>
        <time>2024-08-11T06:37:07Z</time>
      </trkpt>
      <trkpt lat="44.98006" lon="6.41828">
        <ele>2300</ele>
        <time>2024-08-11T06:37:08Z</time>
      </trkpt>
      <trkpt lat="44.98006" lon="6.41828">
        <ele>2299.8</ele>
        <time>2024-08-11T06:37:09Z</time>
      </trkpt>
      <trkpt lat="44.98006" lon="6.41831">
        <ele>2299.6</ele>
        <time>2024-08-11T06:37:10Z</time>
      </trkpt>
      <trkpt lat="44.98006" lon="6.41831">
        <ele>2299.2</ele>
        <time>2024-08-11T06:37:11Z</time>
      </trkpt>
      <trkpt lat="44.98006" lon="6.41831">
        <ele>2298.8</ele>
        <time>2024-08-11T06:37:12Z</time>
      </trkpt>
      <trkpt lat="44.98006" lon="6.41834">
        <ele>2298.6</ele>
        <time>2024-08-11T06:37:13Z</time>
      </trkpt>
      <trkpt lat="44.98006" lon="6.41834">
        <ele>2298.4</ele>
        <time>2024-08-11T06:37:14Z</time>
      </trkpt>
      <trkpt lat="44.98008" lon="6.41835">
        <ele>2298.4</ele>
        <time>2024-08-11T06:37:15Z</time>
      </trkpt>
      <trkpt lat="44.98008" lon="6.41835">
        <ele>2298.2</ele>
        <time>2024-08-11T06:37:16Z</time>
      </trkpt>
      <trkpt lat="44.98008" lon="6.41835">
        <ele>2298</ele>
        <time>2024-08-11T06:37:17Z</time>
      </trkpt>
      <trkpt lat="44.9801" lon="6.41839">
        <ele>2297.8</ele>
        <time>2024-08-11T06:37:18Z</time>
      </trkpt>
      <trkpt lat="44.9801" lon="6.4184">
        <ele>2297.4</ele>
        <time>2024-08-11T06:37:19Z</time>
      </trkpt>
      <trkpt lat="44.9801" lon="6.4184">
        <ele>2297</ele>
        <time>2024-08-11T06:37:20Z</time>
      </trkpt>
      <trkpt lat="44.98011" lon="6.41843">
        <ele>2296.8</ele>
        <time>2024-08-11T06:37:21Z</time>
      </trkpt>
      <trkpt lat="44.98011" lon="6.41843">
        <ele>2296.6</ele>
        <time>2024-08-11T06:37:22Z</time>
      </trkpt>
      <trkpt lat="44.98011" lon="6.41843">
        <ele>2296.4</ele>
        <time>2024-08-11T06:37:23Z</time>
      </trkpt>
      <trkpt lat="44.98012" lon="6.41845">
        <ele>2296.4</ele>
        <time>2024-08-11T06:37:24Z</time>
      </trkpt>
      <trkpt lat="44.98012" lon="6.41845">
        <ele>2296</ele>
        <time>2024-08-11T06:37:25Z</time>
      </trkpt>
      <trkpt lat="44.98012" lon="6.41845">
        <ele>2295.6</ele>
        <time>2024-08-11T06:37:26Z</time>
      </trkpt>
      <trkpt lat="44.98014" lon="6.41848">
        <ele>2295.4</ele>
        <time>2024-08-11T06:37:27Z</time>
      </trkpt>
      <trkpt lat="44.98014" lon="6.41848">
        <ele>2295.2</ele>
        <time>2024-08-11T06:37:28Z</time>
      </trkpt>
      <trkpt lat="44.98015" lon="6.41849">
        <ele>2294.8</ele>
        <time>2024-08-11T06:37:29Z</time>
      </trkpt>
      <trkpt lat="44.98015" lon="6.41849">
        <ele>2294.6</ele>
        <time>2024-08-11T06:37:30Z</time>
      </trkpt>
      <trkpt lat="44.98015" lon="6.41849">
        <ele>2294.4</ele>
        <time>2024-08-11T06:37:31Z</time>
      </trkpt>
      <trkpt lat="44.98016" lon="6.41853">
        <ele>2294</ele>
        <time>2024-08-11T06:37:32Z</time>
      </trkpt>
      <trkpt lat="44.98016" lon="6.41854">
        <ele>2294</ele>
        <time>2024-08-11T06:37:33Z</time>
      </trkpt>
      <trkpt lat="44.98016" lon="6.41854">
        <ele>2293.8</ele>
        <time>2024-08-11T06:37:34Z</time>
      </trkpt>
      <trkpt lat="44.98017" lon="6.41857">
        <ele>2293.6</ele>
        <time>2024-08-11T06:37:35Z</time>
      </trkpt>
      <trkpt lat="44.98017" lon="6.41857">
        <ele>2293.4</ele>
        <time>2024-08-11T06:37:36Z</time>
      </trkpt>
      <trkpt lat="44.98017" lon="6.41857">
        <ele>2293.2</ele>
        <time>2024-08-11T06:37:37Z</time>
      </trkpt>
      <trkpt lat="44.98019" lon="6.41861">
        <ele>2292.8</ele>
        <time>2024-08-11T06:37:38Z</time>
      </trkpt>
      <trkpt lat="44.9802" lon="6.41862">
        <ele>2292.8</ele>
        <time>2024-08-11T06:37:39Z</time>
      </trkpt>
      <trkpt lat="44.9802" lon="6.41862">
        <ele>2292.8</ele>
        <time>2024-08-11T06:37:40Z</time>
      </trkpt>
      <trkpt lat="44.9802" lon="6.41862">
        <ele>2292.4</ele>
        <time>2024-08-11T06:37:41Z</time>
      </trkpt>
      <trkpt lat="44.98021" lon="6.41865">
        <ele>2292.2</ele>
        <time>2024-08-11T06:37:42Z</time>
      </trkpt>
      <trkpt lat="44.98021" lon="6.41865">
        <ele>2292</ele>
        <time>2024-08-11T06:37:43Z</time>
      </trkpt>
      <trkpt lat="44.98021" lon="6.41865">
        <ele>2291.4</ele>
        <time>2024-08-11T06:37:44Z</time>
      </trkpt>
      <trkpt lat="44.98023" lon="6.41867">
        <ele>2291.2</ele>
        <time>2024-08-11T06:37:45Z</time>
      </trkpt>
      <trkpt lat="44.98023" lon="6.41867">
        <ele>2291.2</ele>
        <time>2024-08-11T06:37:46Z</time>
      </trkpt>
      <trkpt lat="44.98025" lon="6.41868">
        <ele>2290.8</ele>
        <time>2024-08-11T06:37:47Z</time>
      </trkpt>
      <trkpt lat="44.98025" lon="6.41868">
        <ele>2290.4</ele>
        <time>2024-08-11T06:37:48Z</time>
      </trkpt>
      <trkpt lat="44.98025" lon="6.41868">
        <ele>2290.2</ele>
        <time>2024-08-11T06:37:49Z</time>
      </trkpt>
      <trkpt lat="44.98028" lon="6.41871">
        <ele>2289.6</ele>
        <time>2024-08-11T06:37:50Z</time>
      </trkpt>
      <trkpt lat="44.98029" lon="6.41872">
        <ele>2289.4</ele>
        <time>2024-08-11T06:37:51Z</time>
      </trkpt>
      <trkpt lat="44.98029" lon="6.41872">
        <ele>2289.4</ele>
        <time>2024-08-11T06:37:52Z</time>
      </trkpt>
      <trkpt lat="44.98032" lon="6.41875">
        <ele>2289</ele>
        <time>2024-08-11T06:37:53Z</time>
      </trkpt>
      <trkpt lat="44.98032" lon="6.41875">
        <ele>2289</ele>
        <time>2024-08-11T06:37:54Z</time>
      </trkpt>
      <trkpt lat="44.98032" lon="6.41875">
        <ele>2289</ele>
        <time>2024-08-11T06:37:55Z</time>
      </trkpt>
      <trkpt lat="44.98034" lon="6.41879">
        <ele>2288.8</ele>
        <time>2024-08-11T06:37:56Z</time>
      </trkpt>
      <trkpt lat="44.98036" lon="6.4188">
        <ele>2288.8</ele>
        <time>2024-08-11T06:37:57Z</time>
      </trkpt>
      <trkpt lat="44.98036" lon="6.4188">
        <ele>2288.8</ele>
        <time>2024-08-11T06:37:58Z</time>
      </trkpt>
      <trkpt lat="44.98037" lon="6.41882">
        <ele>2288.8</ele>
        <time>2024-08-11T06:37:59Z</time>
      </trkpt>
      <trkpt lat="44.98037" lon="6.41882">
        <ele>2288.6</ele>
        <time>2024-08-11T06:38:00Z</time>
      </trkpt>
      <trkpt lat="44.98037" lon="6.41882">
        <ele>2288.4</ele>
        <time>2024-08-11T06:38:01Z</time>
      </trkpt>
      <trkpt lat="44.98041" lon="6.41884">
        <ele>2288.6</ele>
        <time>2024-08-11T06:38:02Z</time>
      </trkpt>
      <trkpt lat="44.98042" lon="6.41884">
        <ele>2288.6</ele>
        <time>2024-08-11T06:38:03Z</time>
      </trkpt>
      <trkpt lat="44.98042" lon="6.41884">
        <ele>2288.4</ele>
        <time>2024-08-11T06:38:04Z</time>
      </trkpt>
      <trkpt lat="44.98044" lon="6.41886">
        <ele>2288.4</ele>
        <time>2024-08-11T06:38:05Z</time>
      </trkpt>
      <trkpt lat="44.98044" lon="6.41886">
        <ele>2288.4</ele>
        <time>2024-08-11T06:38:06Z</time>
      </trkpt>
      <trkpt lat="44.98044" lon="6.41886">
        <ele>2288.4</ele>
        <time>2024-08-11T06:38:07Z</time>
      </trkpt>
      <trkpt lat="44.98046" lon="6.41889">
        <ele>2288.2</ele>
        <time>2024-08-11T06:38:08Z</time>
      </trkpt>
      <trkpt lat="44.98047" lon="6.4189">
        <ele>2288</ele>
        <time>2024-08-11T06:38:09Z</time>
      </trkpt>
      <trkpt lat="44.98047" lon="6.4189">
        <ele>2287.8</ele>
        <time>2024-08-11T06:38:10Z</time>
      </trkpt>
      <trkpt lat="44.98048" lon="6.41893">
        <ele>2287.6</ele>
        <time>2024-08-11T06:38:11Z</time>
      </trkpt>
      <trkpt lat="44.98048" lon="6.41893">
        <ele>2287.6</ele>
        <time>2024-08-11T06:38:12Z</time>
      </trkpt>
      <trkpt lat="44.9805" lon="6.41896">
        <ele>2287.2</ele>
        <time>2024-08-11T06:38:13Z</time>
      </trkpt>
      <trkpt lat="44.9805" lon="6.41896">
        <ele>2287</ele>
        <time>2024-08-11T06:38:14Z</time>
      </trkpt>
      <trkpt lat="44.98052" lon="6.41898">
        <ele>2287</ele>
        <time>2024-08-11T06:38:15Z</time>
      </trkpt>
      <trkpt lat="44.98052" lon="6.41898">
        <ele>2286.8</ele>
        <time>2024-08-11T06:38:16Z</time>
      </trkpt>
      <trkpt lat="44.98053" lon="6.41901">
        <ele>2286.2</ele>
        <time>2024-08-11T06:38:17Z</time>
      </trkpt>
      <trkpt lat="44.98053" lon="6.41901">
        <ele>2286</ele>
        <time>2024-08-11T06:38:18Z</time>
      </trkpt>
      <trkpt lat="44.98054" lon="6.41904">
        <ele>2285.6</ele>
        <time>2024-08-11T06:38:19Z</time>
      </trkpt>
      <trkpt lat="44.98054" lon="6.41904">
        <ele>2285.6</ele>
        <time>2024-08-11T06:38:20Z</time>
      </trkpt>
      <trkpt lat="44.98054" lon="6.41907">
        <ele>2285.4</ele>
        <time>2024-08-11T06:38:21Z</time>
      </trkpt>
      <trkpt lat="44.98054" lon="6.41907">
        <ele>2285.2</ele>
        <time>2024-08-11T06:38:22Z</time>
      </trkpt>
      <trkpt lat="44.98056" lon="6.41911">
        <ele>2285.2</ele>
        <time>2024-08-11T06:38:23Z</time>
      </trkpt>
      <trkpt lat="44.98056" lon="6.41911">
        <ele>2284.8</ele>
        <time>2024-08-11T06:38:24Z</time>
      </trkpt>
      <trkpt lat="44.98056" lon="6.41911">
        <ele>2284.4</ele>
        <time>2024-08-11T06:38:25Z</time>
      </trkpt>
      <trkpt lat="44.98058" lon="6.41916">
        <ele>2284.2</ele>
        <time>2024-08-11T06:38:26Z</time>
      </trkpt>
      <trkpt lat="44.98058" lon="6.41918">
        <ele>2284</ele>
        <time>2024-08-11T06:38:27Z</time>
      </trkpt>
      <trkpt lat="44.98058" lon="6.41918">
        <ele>2283.8</ele>
        <time>2024-08-11T06:38:28Z</time>
      </trkpt>
      <trkpt lat="44.9806" lon="6.41923">
        <ele>2283.8</ele>
        <time>2024-08-11T06:38:29Z</time>
      </trkpt>
      <trkpt lat="44.98061" lon="6.41924">
        <ele>2283.8</ele>
        <time>2024-08-11T06:38:30Z</time>
      </trkpt>
      <trkpt lat="44.98061" lon="6.41925">
        <ele>2283.8</ele>
        <time>2024-08-11T06:38:31Z</time>
      </trkpt>
      <trkpt lat="44.98062" lon="6.41927">
        <ele>2283.6</ele>
        <time>2024-08-11T06:38:32Z</time>
      </trkpt>
      <trkpt lat="44.98062" lon="6.41928">
        <ele>2283.6</ele>
        <time>2024-08-11T06:38:33Z</time>
      </trkpt>
      <trkpt lat="44.98062" lon="6.41928">
        <ele>2283.6</ele>
        <time>2024-08-11T06:38:34Z</time>
      </trkpt>
      <trkpt lat="44.98062" lon="6.41932">
        <ele>2283.4</ele>
        <time>2024-08-11T06:38:35Z</time>
      </trkpt>
      <trkpt lat="44.98062" lon="6.41932">
        <ele>2283.4</ele>
        <time>2024-08-11T06:38:36Z</time>
      </trkpt>
      <trkpt lat="44.98062" lon="6.41932">
        <ele>2283.4</ele>
        <time>2024-08-11T06:38:37Z</time>
      </trkpt>
      <trkpt lat="44.98062" lon="6.41938">
        <ele>2283.4</ele>
        <time>2024-08-11T06:38:38Z</time>
      </trkpt>
      <trkpt lat="44.98063" lon="6.4194">
        <ele>2283.2</ele>
        <time>2024-08-11T06:38:39Z</time>
      </trkpt>
      <trkpt lat="44.98063" lon="6.4194">
        <ele>2282.8</ele>
        <time>2024-08-11T06:38:40Z</time>
      </trkpt>
      <trkpt lat="44.98063" lon="6.41944">
        <ele>2282.8</ele>
        <time>2024-08-11T06:38:41Z</time>
      </trkpt>
      <trkpt lat="44.98063" lon="6.41944">
        <ele>2283</ele>
        <time>2024-08-11T06:38:42Z</time>
      </trkpt>
      <trkpt lat="44.98064" lon="6.41947">
        <ele>2283</ele>
        <time>2024-08-11T06:38:43Z</time>
      </trkpt>
      <trkpt lat="44.98064" lon="6.41947">
        <ele>2282.4</ele>
        <time>2024-08-11T06:38:44Z</time>
      </trkpt>
      <trkpt lat="44.98064" lon="6.41951">
        <ele>2282.2</ele>
        <time>2024-08-11T06:38:45Z</time>
      </trkpt>
      <trkpt lat="44.98064" lon="6.41951">
        <ele>2281.8</ele>
        <time>2024-08-11T06:38:46Z</time>
      </trkpt>
      <trkpt lat="44.98065" lon="6.41955">
        <ele>2281.6</ele>
        <time>2024-08-11T06:38:47Z</time>
      </trkpt>
      <trkpt lat="44.98065" lon="6.41955">
        <ele>2281.4</ele>
        <time>2024-08-11T06:38:48Z</time>
      </trkpt>
      <trkpt lat="44.98066" lon="6.41959">
        <ele>2281.2</ele>
        <time>2024-08-11T06:38:49Z</time>
      </trkpt>
      <trkpt lat="44.98066" lon="6.41959">
        <ele>2281.2</ele>
        <time>2024-08-11T06:38:50Z</time>
      </trkpt>
      <trkpt lat="44.98066" lon="6.41962">
        <ele>2281</ele>
        <time>2024-08-11T06:38:51Z</time>
      </trkpt>
      <trkpt lat="44.98066" lon="6.41962">
        <ele>2281</ele>
        <time>2024-08-11T06:38:52Z</time>
      </trkpt>
      <trkpt lat="44.98066" lon="6.41962">
        <ele>2281</ele>
        <time>2024-08-11T06:38:53Z</time>
      </trkpt>
      <trkpt lat="44.98068" lon="6.41967">
        <ele>2280.8</ele>
        <time>2024-08-11T06:38:54Z</time>
      </trkpt>
      <trkpt lat="44.98068" lon="6.41969">
        <ele>2280.6</ele>
        <time>2024-08-11T06:38:55Z</time>
      </trkpt>
      <trkpt lat="44.98068" lon="6.41969">
        <ele>2280.6</ele>
        <time>2024-08-11T06:38:56Z</time>
      </trkpt>
      <trkpt lat="44.98069" lon="6.41973">
        <ele>2280.6</ele>
        <time>2024-08-11T06:38:57Z</time>
      </trkpt>
      <trkpt lat="44.9807" lon="6.41975">
        <ele>2280.4</ele>
        <time>2024-08-11T06:38:58Z</time>
      </trkpt>
      <trkpt lat="44.9807" lon="6.41976">
        <ele>2280.2</ele>
        <time>2024-08-11T06:38:59Z</time>
      </trkpt>
      <trkpt lat="44.9807" lon="6.41978">
        <ele>2280.2</ele>
        <time>2024-08-11T06:39:00Z</time>
      </trkpt>
      <trkpt lat="44.9807" lon="6.4198">
        <ele>2280</ele>
        <time>2024-08-11T06:39:01Z</time>
      </trkpt>
      <trkpt lat="44.9807" lon="6.4198">
        <ele>2279.6</ele>
        <time>2024-08-11T06:39:02Z</time>
      </trkpt>
      <trkpt lat="44.98071" lon="6.41984">
        <ele>2279.6</ele>
        <time>2024-08-11T06:39:03Z</time>
      </trkpt>
      <trkpt lat="44.98071" lon="6.41984">
        <ele>2279.4</ele>
        <time>2024-08-11T06:39:04Z</time>
      </trkpt>
      <trkpt lat="44.98071" lon="6.41984">
        <ele>2279.4</ele>
        <time>2024-08-11T06:39:05Z</time>
      </trkpt>
      <trkpt lat="44.98072" lon="6.41989">
        <ele>2279.2</ele>
        <time>2024-08-11T06:39:06Z</time>
      </trkpt>
      <trkpt lat="44.98072" lon="6.41991">
        <ele>2279</ele>
        <time>2024-08-11T06:39:07Z</time>
      </trkpt>
      <trkpt lat="44.98072" lon="6.41991">
        <ele>2279</ele>
        <time>2024-08-11T06:39:08Z</time>
      </trkpt>
      <trkpt lat="44.98073" lon="6.41994">
        <ele>2278.8</ele>
        <time>2024-08-11T06:39:09Z</time>
      </trkpt>
      <trkpt lat="44.98073" lon="6.41994">
        <ele>2278.6</ele>
        <time>2024-08-11T06:39:10Z</time>
      </trkpt>
      <trkpt lat="44.98073" lon="6.41994">
        <ele>2278.4</ele>
        <time>2024-08-11T06:39:11Z</time>
      </trkpt>
      <trkpt lat="44.98074" lon="6.41999">
        <ele>2278.2</ele>
        <time>2024-08-11T06:39:12Z</time>
      </trkpt>
      <trkpt lat="44.98076" lon="6.42001">
        <ele>2277.8</ele>
        <time>2024-08-11T06:39:13Z</time>
      </trkpt>
      <trkpt lat="44.98076" lon="6.42001">
        <ele>2277.6</ele>
        <time>2024-08-11T06:39:14Z</time>
      </trkpt>
      <trkpt lat="44.98077" lon="6.42004">
        <ele>2277.2</ele>
        <time>2024-08-11T06:39:15Z</time>
      </trkpt>
      <trkpt lat="44.98077" lon="6.42004">
        <ele>2277</ele>
        <time>2024-08-11T06:39:16Z</time>
      </trkpt>
      <trkpt lat="44.98077" lon="6.42004">
        <ele>2277</ele>
        <time>2024-08-11T06:39:17Z</time>
      </trkpt>
      <trkpt lat="44.98078" lon="6.42007">
        <ele>2276.8</ele>
        <time>2024-08-11T06:39:18Z</time>
      </trkpt>
      <trkpt lat="44.98079" lon="6.42008">
        <ele>2276.8</ele>
        <time>2024-08-11T06:39:19Z</time>
      </trkpt>
      <trkpt lat="44.98079" lon="6.42008">
        <ele>2276.4</ele>
        <time>2024-08-11T06:39:20Z</time>
      </trkpt>
      <trkpt lat="44.98081" lon="6.4201">
        <ele>2276.2</ele>
        <time>2024-08-11T06:39:21Z</time>
      </trkpt>
      <trkpt lat="44.98081" lon="6.4201">
        <ele>2276</ele>
        <time>2024-08-11T06:39:22Z</time>
      </trkpt>
      <trkpt lat="44.98081" lon="6.4201">
        <ele>2276</ele>
        <time>2024-08-11T06:39:23Z</time>
      </trkpt>
      <trkpt lat="44.98082" lon="6.42014">
        <ele>2275.6</ele>
        <time>2024-08-11T06:39:24Z</time>
      </trkpt>
      <trkpt lat="44.98082" lon="6.42014">
        <ele>2275.4</ele>
        <time>2024-08-11T06:39:25Z</time>
      </trkpt>
      <trkpt lat="44.98082" lon="6.42014">
        <ele>2275.2</ele>
        <time>2024-08-11T06:39:26Z</time>
      </trkpt>
      <trkpt lat="44.98083" lon="6.42018">
        <ele>2275</ele>
        <time>2024-08-11T06:39:27Z</time>
      </trkpt>
      <trkpt lat="44.98084" lon="6.42019">
        <ele>2274.6</ele>
        <time>2024-08-11T06:39:28Z</time>
      </trkpt>
      <trkpt lat="44.98084" lon="6.42019">
        <ele>2274.6</ele>
        <time>2024-08-11T06:39:29Z</time>
      </trkpt>
      <trkpt lat="44.98085" lon="6.42021">
        <ele>2274.2</ele>
        <time>2024-08-11T06:39:30Z</time>
      </trkpt>
      <trkpt lat="44.98085" lon="6.42021">
        <ele>2274.2</ele>
        <time>2024-08-11T06:39:31Z</time>
      </trkpt>
      <trkpt lat="44.98087" lon="6.42024">
        <ele>2274.2</ele>
        <time>2024-08-11T06:39:32Z</time>
      </trkpt>
      <trkpt lat="44.98087" lon="6.42024">
        <ele>2273.6</ele>
        <time>2024-08-11T06:39:33Z</time>
      </trkpt>
      <trkpt lat="44.98089" lon="6.42028">
        <ele>2273.2</ele>
        <time>2024-08-11T06:39:34Z</time>
      </trkpt>
      <trkpt lat="44.98089" lon="6.42028">
        <ele>2273.2</ele>
        <time>2024-08-11T06:39:35Z</time>
      </trkpt>
      <trkpt lat="44.98091" lon="6.42031">
        <ele>2273.2</ele>
        <time>2024-08-11T06:39:36Z</time>
      </trkpt>
      <trkpt lat="44.98091" lon="6.42031">
        <ele>2273</ele>
        <time>2024-08-11T06:39:37Z</time>
      </trkpt>
      <trkpt lat="44.98091" lon="6.42031">
        <ele>2273</ele>
        <time>2024-08-11T06:39:38Z</time>
      </trkpt>
      <trkpt lat="44.98094" lon="6.42035">
        <ele>2272.8</ele>
        <time>2024-08-11T06:39:39Z</time>
      </trkpt>
      <trkpt lat="44.98094" lon="6.42037">
        <ele>2272.8</ele>
        <time>2024-08-11T06:39:40Z</time>
      </trkpt>
      <trkpt lat="44.98094" lon="6.42037">
        <ele>2273</ele>
        <time>2024-08-11T06:39:41Z</time>
      </trkpt>
      <trkpt lat="44.98096" lon="6.42041">
        <ele>2273</ele>
        <time>2024-08-11T06:39:42Z</time>
      </trkpt>
      <trkpt lat="44.98096" lon="6.42041">
        <ele>2272.8</ele>
        <time>2024-08-11T06:39:43Z</time>
      </trkpt>
      <trkpt lat="44.98096" lon="6.42041">
        <ele>2272.8</ele>
        <time>2024-08-11T06:39:44Z</time>
      </trkpt>
      <trkpt lat="44.98097" lon="6.42046">
        <ele>2272.6</ele>
        <time>2024-08-11T06:39:45Z</time>
      </trkpt>
      <trkpt lat="44.98098" lon="6.42047">
        <ele>2272.6</ele>
        <time>2024-08-11T06:39:46Z</time>
      </trkpt>
      <trkpt lat="44.98098" lon="6.42047">
        <ele>2273</ele>
        <time>2024-08-11T06:39:47Z</time>
      </trkpt>
      <trkpt lat="44.981" lon="6.42051">
        <ele>2273</ele>
        <time>2024-08-11T06:39:48Z</time>
      </trkpt>
      <trkpt lat="44.981" lon="6.42051">
        <ele>2272.6</ele>
        <time>2024-08-11T06:39:49Z</time>
      </trkpt>
      <trkpt lat="44.981" lon="6.42051">
        <ele>2272.6</ele>
        <time>2024-08-11T06:39:50Z</time>
      </trkpt>
      <trkpt lat="44.981" lon="6.42055">
        <ele>2272.6</ele>
        <time>2024-08-11T06:39:51Z</time>
      </trkpt>
      <trkpt lat="44.98101" lon="6.42057">
        <ele>2272.6</ele>
        <time>2024-08-11T06:39:52Z</time>
      </trkpt>
      <trkpt lat="44.98101" lon="6.42057">
        <ele>2272.6</ele>
        <time>2024-08-11T06:39:53Z</time>
      </trkpt>
      <trkpt lat="44.98103" lon="6.4206">
        <ele>2272.6</ele>
        <time>2024-08-11T06:39:54Z</time>
      </trkpt>
      <trkpt lat="44.98103" lon="6.4206">
        <ele>2272.4</ele>
        <time>2024-08-11T06:39:55Z</time>
      </trkpt>
      <trkpt lat="44.98103" lon="6.4206">
        <ele>2272.2</ele>
        <time>2024-08-11T06:39:56Z</time>
      </trkpt>
      <trkpt lat="44.98104" lon="6.42066">
        <ele>2272</ele>
        <time>2024-08-11T06:39:57Z</time>
      </trkpt>
      <trkpt lat="44.98105" lon="6.42067">
        <ele>2272</ele>
        <time>2024-08-11T06:39:58Z</time>
      </trkpt>
      <trkpt lat="44.98105" lon="6.42067">
        <ele>2271.8</ele>
        <time>2024-08-11T06:39:59Z</time>
      </trkpt>
      <trkpt lat="44.98106" lon="6.4207">
        <ele>2271.8</ele>
        <time>2024-08-11T06:40:00Z</time>
      </trkpt>
      <trkpt lat="44.98106" lon="6.4207">
        <ele>2271.8</ele>
        <time>2024-08-11T06:40:01Z</time>
      </trkpt>
      <trkpt lat="44.98106" lon="6.4207">
        <ele>2271.6</ele>
        <time>2024-08-11T06:40:02Z</time>
      </trkpt>
      <trkpt lat="44.98109" lon="6.42074">
        <ele>2271.4</ele>
        <time>2024-08-11T06:40:03Z</time>
      </trkpt>
      <trkpt lat="44.9811" lon="6.42076">
        <ele>2271.4</ele>
        <time>2024-08-11T06:40:04Z</time>
      </trkpt>
      <trkpt lat="44.9811" lon="6.42076">
        <ele>2271</ele>
        <time>2024-08-11T06:40:05Z</time>
      </trkpt>
      <trkpt lat="44.9811" lon="6.42079">
        <ele>2271</ele>
        <time>2024-08-11T06:40:06Z</time>
      </trkpt>
      <trkpt lat="44.9811" lon="6.42079">
        <ele>2271</ele>
        <time>2024-08-11T06:40:07Z</time>
      </trkpt>
      <trkpt lat="44.98112" lon="6.42082">
        <ele>2271</ele>
        <time>2024-08-11T06:40:08Z</time>
      </trkpt>
      <trkpt lat="44.98112" lon="6.42082">
        <ele>2271</ele>
        <time>2024-08-11T06:40:09Z</time>
      </trkpt>
      <trkpt lat="44.98112" lon="6.42082">
        <ele>2271</ele>
        <time>2024-08-11T06:40:10Z</time>
      </trkpt>
      <trkpt lat="44.98114" lon="6.42087">
        <ele>2271</ele>
        <time>2024-08-11T06:40:11Z</time>
      </trkpt>
      <trkpt lat="44.98115" lon="6.42088">
        <ele>2271</ele>
        <time>2024-08-11T06:40:12Z</time>
      </trkpt>
      <trkpt lat="44.98115" lon="6.42088">
        <ele>2270.8</ele>
        <time>2024-08-11T06:40:13Z</time>
      </trkpt>
      <trkpt lat="44.98116" lon="6.42091">
        <ele>2270.4</ele>
        <time>2024-08-11T06:40:14Z</time>
      </trkpt>
      <trkpt lat="44.98116" lon="6.42091">
        <ele>2270.4</ele>
        <time>2024-08-11T06:40:15Z</time>
      </trkpt>
      <trkpt lat="44.98116" lon="6.42091">
        <ele>2270.4</ele>
        <time>2024-08-11T06:40:16Z</time>
      </trkpt>
      <trkpt lat="44.98118" lon="6.42095">
        <ele>2270.2</ele>
        <time>2024-08-11T06:40:17Z</time>
      </trkpt>
      <trkpt lat="44.98119" lon="6.42096">
        <ele>2269.8</ele>
        <time>2024-08-11T06:40:18Z</time>
      </trkpt>
      <trkpt lat="44.98119" lon="6.42096">
        <ele>2269.6</ele>
        <time>2024-08-11T06:40:19Z</time>
      </trkpt>
      <trkpt lat="44.98119" lon="6.42099">
        <ele>2269.2</ele>
        <time>2024-08-11T06:40:20Z</time>
      </trkpt>
      <trkpt lat="44.98119" lon="6.42099">
        <ele>2268.8</ele>
        <time>2024-08-11T06:40:21Z</time>
      </trkpt>
      <trkpt lat="44.98121" lon="6.42101">
        <ele>2268.2</ele>
        <time>2024-08-11T06:40:22Z</time>
      </trkpt>
      <trkpt lat="44.98121" lon="6.42101">
        <ele>2268.2</ele>
        <time>2024-08-11T06:40:23Z</time>
      </trkpt>
      <trkpt lat="44.98124" lon="6.42102">
        <ele>2267.8</ele>
        <time>2024-08-11T06:40:24Z</time>
      </trkpt>
      <trkpt lat="44.98124" lon="6.42102">
        <ele>2267.6</ele>
        <time>2024-08-11T06:40:25Z</time>
      </trkpt>
      <trkpt lat="44.98126" lon="6.42103">
        <ele>2267.4</ele>
        <time>2024-08-11T06:40:26Z</time>
      </trkpt>
      <trkpt lat="44.98126" lon="6.42103">
        <ele>2267.2</ele>
        <time>2024-08-11T06:40:27Z</time>
      </trkpt>
      <trkpt lat="44.98126" lon="6.42103">
        <ele>2267.2</ele>
        <time>2024-08-11T06:40:28Z</time>
      </trkpt>
      <trkpt lat="44.98129" lon="6.42106">
        <ele>2267</ele>
        <time>2024-08-11T06:40:29Z</time>
      </trkpt>
      <trkpt lat="44.9813" lon="6.42107">
        <ele>2267</ele>
        <time>2024-08-11T06:40:30Z</time>
      </trkpt>
      <trkpt lat="44.9813" lon="6.42107">
        <ele>2266.8</ele>
        <time>2024-08-11T06:40:31Z</time>
      </trkpt>
      <trkpt lat="44.98133" lon="6.42107">
        <ele>2266.4</ele>
        <time>2024-08-11T06:40:32Z</time>
      </trkpt>
      <trkpt lat="44.98133" lon="6.42107">
        <ele>2266.4</ele>
        <time>2024-08-11T06:40:33Z</time>
      </trkpt>
      <trkpt lat="44.98133" lon="6.42107">
        <ele>2266.4</ele>
        <time>2024-08-11T06:40:34Z</time>
      </trkpt>
      <trkpt lat="44.98137" lon="6.42107">
        <ele>2266.4</ele>
        <time>2024-08-11T06:40:35Z</time>
      </trkpt>
      <trkpt lat="44.98138" lon="6.42106">
        <ele>2266.2</ele>
        <time>2024-08-11T06:40:36Z</time>
      </trkpt>
      <trkpt lat="44.98138" lon="6.42106">
        <ele>2265.8</ele>
        <time>2024-08-11T06:40:37Z</time>
      </trkpt>
      <trkpt lat="44.98141" lon="6.42106">
        <ele>2265.8</ele>
        <time>2024-08-11T06:40:38Z</time>
      </trkpt>
      <trkpt lat="44.98141" lon="6.42106">
        <ele>2265.8</ele>
        <time>2024-08-11T06:40:39Z</time>
      </trkpt>
      <trkpt lat="44.98143" lon="6.42107">
        <ele>2265.6</ele>
        <time>2024-08-11T06:40:40Z</time>
      </trkpt>
      <trkpt lat="44.98143" lon="6.42107">
        <ele>2265.4</ele>
        <time>2024-08-11T06:40:41Z</time>
      </trkpt>
      <trkpt lat="44.98145" lon="6.42109">
        <ele>2265.4</ele>
        <time>2024-08-11T06:40:42Z</time>
      </trkpt>
      <trkpt lat="44.98145" lon="6.42109">
        <ele>2265.4</ele>
        <time>2024-08-11T06:40:43Z</time>
      </trkpt>
      <trkpt lat="44.98147" lon="6.4211">
        <ele>2265.2</ele>
        <time>2024-08-11T06:40:44Z</time>
      </trkpt>
      <trkpt lat="44.98147" lon="6.4211">
        <ele>2265.2</ele>
        <time>2024-08-11T06:40:45Z</time>
      </trkpt>
      <trkpt lat="44.98147" lon="6.4211">
        <ele>2265.2</ele>
        <time>2024-08-11T06:40:46Z</time>
      </trkpt>
      <trkpt lat="44.98151" lon="6.42112">
        <ele>2265.2</ele>
        <time>2024-08-11T06:40:47Z</time>
      </trkpt>
      <trkpt lat="44.98152" lon="6.42113">
        <ele>2265</ele>
        <time>2024-08-11T06:40:48Z</time>
      </trkpt>
      <trkpt lat="44.98152" lon="6.42113">
        <ele>2265.4</ele>
        <time>2024-08-11T06:40:49Z</time>
      </trkpt>
      <trkpt lat="44.98154" lon="6.42115">
        <ele>2265.2</ele>
        <time>2024-08-11T06:40:50Z</time>
      </trkpt>
      <trkpt lat="44.98154" lon="6.42115">
        <ele>2265.2</ele>
        <time>2024-08-11T06:40:51Z</time>
      </trkpt>
      <trkpt lat="44.98157" lon="6.42117">
        <ele>2265.2</ele>
        <time>2024-08-11T06:40:52Z</time>
      </trkpt>
      <trkpt lat="44.98157" lon="6.42117">
        <ele>2265.2</ele>
        <time>2024-08-11T06:40:53Z</time>
      </trkpt>
      <trkpt lat="44.98157" lon="6.42117">
        <ele>2265.2</ele>
        <time>2024-08-11T06:40:54Z</time>
      </trkpt>
      <trkpt lat="44.9816" lon="6.42119">
        <ele>2265.2</ele>
        <time>2024-08-11T06:40:55Z</time>
      </trkpt>
      <trkpt lat="44.98161" lon="6.42119">
        <ele>2265.2</ele>
        <time>2024-08-11T06:40:56Z</time>
      </trkpt>
      <trkpt lat="44.98161" lon="6.42119">
        <ele>2265.4</ele>
        <time>2024-08-11T06:40:57Z</time>
      </trkpt>
      <trkpt lat="44.98164" lon="6.4212">
        <ele>2265.4</ele>
        <time>2024-08-11T06:40:58Z</time>
      </trkpt>
      <trkpt lat="44.98164" lon="6.4212">
        <ele>2265.4</ele>
        <time>2024-08-11T06:40:59Z</time>
      </trkpt>
      <trkpt lat="44.98164" lon="6.4212">
        <ele>2265.4</ele>
        <time>2024-08-11T06:41:00Z</time>
      </trkpt>
      <trkpt lat="44.98168" lon="6.42122">
        <ele>2265.4</ele>
        <time>2024-08-11T06:41:01Z</time>
      </trkpt>
      <trkpt lat="44.98169" lon="6.42123">
        <ele>2265.2</ele>
        <time>2024-08-11T06:41:02Z</time>
      </trkpt>
      <trkpt lat="44.98169" lon="6.42123">
        <ele>2265.2</ele>
        <time>2024-08-11T06:41:03Z</time>
      </trkpt>
      <trkpt lat="44.98171" lon="6.42126">
        <ele>2265.2</ele>
        <time>2024-08-11T06:41:04Z</time>
      </trkpt>
      <trkpt lat="44.98171" lon="6.42126">
        <ele>2265.2</ele>
        <time>2024-08-11T06:41:05Z</time>
      </trkpt>
      <trkpt lat="44.98173" lon="6.42129">
        <ele>2265.4</ele>
        <time>2024-08-11T06:41:06Z</time>
      </trkpt>
      <trkpt lat="44.98173" lon="6.42129">
        <ele>2265.4</ele>
        <time>2024-08-11T06:41:07Z</time>
      </trkpt>
      <trkpt lat="44.98175" lon="6.42131">
        <ele>2265.4</ele>
        <time>2024-08-11T06:41:08Z</time>
      </trkpt>
      <trkpt lat="44.98175" lon="6.42131">
        <ele>2265.6</ele>
        <time>2024-08-11T06:41:09Z</time>
      </trkpt>
      <trkpt lat="44.98177" lon="6.42132">
        <ele>2265.6</ele>
        <time>2024-08-11T06:41:10Z</time>
      </trkpt>
      <trkpt lat="44.98177" lon="6.42132">
        <ele>2265.6</ele>
        <time>2024-08-11T06:41:11Z</time>
      </trkpt>
      <trkpt lat="44.98177" lon="6.42132">
        <ele>2265.8</ele>
        <time>2024-08-11T06:41:12Z</time>
      </trkpt>
      <trkpt lat="44.9818" lon="6.42134">
        <ele>2265.8</ele>
        <time>2024-08-11T06:41:13Z</time>
      </trkpt>
      <trkpt lat="44.98181" lon="6.42135">
        <ele>2266.4</ele>
        <time>2024-08-11T06:41:14Z</time>
      </trkpt>
      <trkpt lat="44.98181" lon="6.42135">
        <ele>2266.6</ele>
        <time>2024-08-11T06:41:15Z</time>
      </trkpt>
      <trkpt lat="44.98181" lon="6.42137">
        <ele>2266.6</ele>
        <time>2024-08-11T06:41:16Z</time>
      </trkpt>
      <trkpt lat="44.98181" lon="6.42137">
        <ele>2266.8</ele>
        <time>2024-08-11T06:41:17Z</time>
      </trkpt>
      <trkpt lat="44.98181" lon="6.42137">
        <ele>2267</ele>
        <time>2024-08-11T06:41:18Z</time>
      </trkpt>
      <trkpt lat="44.98184" lon="6.42141">
        <ele>2267</ele>
        <time>2024-08-11T06:41:19Z</time>
      </trkpt>
      <trkpt lat="44.98185" lon="6.42142">
        <ele>2267</ele>
        <time>2024-08-11T06:41:20Z</time>
      </trkpt>
      <trkpt lat="44.98185" lon="6.42142">
        <ele>2267.2</ele>
        <time>2024-08-11T06:41:21Z</time>
      </trkpt>
      <trkpt lat="44.98185" lon="6.42146">
        <ele>2267.4</ele>
        <time>2024-08-11T06:41:22Z</time>
      </trkpt>
      <trkpt lat="44.98185" lon="6.42146">
        <ele>2267.6</ele>
        <time>2024-08-11T06:41:23Z</time>
      </trkpt>
      <trkpt lat="44.98186" lon="6.4215">
        <ele>2267.6</ele>
        <time>2024-08-11T06:41:24Z</time>
      </trkpt>
      <trkpt lat="44.98186" lon="6.4215">
        <ele>2267.6</ele>
        <time>2024-08-11T06:41:25Z</time>
      </trkpt>
      <trkpt lat="44.98186" lon="6.4215">
        <ele>2267.6</ele>
        <time>2024-08-11T06:41:26Z</time>
      </trkpt>
      <trkpt lat="44.98188" lon="6.42154">
        <ele>2267.8</ele>
        <time>2024-08-11T06:41:27Z</time>
      </trkpt>
      <trkpt lat="44.98188" lon="6.42156">
        <ele>2267.8</ele>
        <time>2024-08-11T06:41:28Z</time>
      </trkpt>
      <trkpt lat="44.98188" lon="6.42156">
        <ele>2267.8</ele>
        <time>2024-08-11T06:41:29Z</time>
      </trkpt>
      <trkpt lat="44.98188" lon="6.42156">
        <ele>2267.8</ele>
        <time>2024-08-11T06:41:30Z</time>
      </trkpt>
      <trkpt lat="44.98191" lon="6.4216">
        <ele>2267.8</ele>
        <time>2024-08-11T06:41:31Z</time>
      </trkpt>
      <trkpt lat="44.98191" lon="6.42162">
        <ele>2267.8</ele>
        <time>2024-08-11T06:41:32Z</time>
      </trkpt>
      <trkpt lat="44.98191" lon="6.42162">
        <ele>2267.8</ele>
        <time>2024-08-11T06:41:33Z</time>
      </trkpt>
      <trkpt lat="44.98193" lon="6.42165">
        <ele>2267.8</ele>
        <time>2024-08-11T06:41:34Z</time>
      </trkpt>
      <trkpt lat="44.98193" lon="6.42165">
        <ele>2268</ele>
        <time>2024-08-11T06:41:35Z</time>
      </trkpt>
      <trkpt lat="44.98195" lon="6.42167">
        <ele>2268</ele>
        <time>2024-08-11T06:41:36Z</time>
      </trkpt>
      <trkpt lat="44.98195" lon="6.42167">
        <ele>2268</ele>
        <time>2024-08-11T06:41:37Z</time>
      </trkpt>
      <trkpt lat="44.98197" lon="6.4217">
        <ele>2268</ele>
        <time>2024-08-11T06:41:38Z</time>
      </trkpt>
      <trkpt lat="44.98197" lon="6.4217">
        <ele>2268.4</ele>
        <time>2024-08-11T06:41:39Z</time>
      </trkpt>
      <trkpt lat="44.98198" lon="6.42173">
        <ele>2268.4</ele>
        <time>2024-08-11T06:41:40Z</time>
      </trkpt>
      <trkpt lat="44.98198" lon="6.42173">
        <ele>2268.2</ele>
        <time>2024-08-11T06:41:41Z</time>
      </trkpt>
      <trkpt lat="44.982" lon="6.42176">
        <ele>2268</ele>
        <time>2024-08-11T06:41:42Z</time>
      </trkpt>
      <trkpt lat="44.982" lon="6.42176">
        <ele>2268</ele>
        <time>2024-08-11T06:41:43Z</time>
      </trkpt>
      <trkpt lat="44.98202" lon="6.42178">
        <ele>2268</ele>
        <time>2024-08-11T06:41:44Z</time>
      </trkpt>
      <trkpt lat="44.98202" lon="6.42178">
        <ele>2268</ele>
        <time>2024-08-11T06:41:45Z</time>
      </trkpt>
      <trkpt lat="44.98204" lon="6.42179">
        <ele>2268</ele>
        <time>2024-08-11T06:41:46Z</time>
      </trkpt>
      <trkpt lat="44.98204" lon="6.42179">
        <ele>2267.8</ele>
        <time>2024-08-11T06:41:47Z</time>
      </trkpt>
      <trkpt lat="44.98205" lon="6.42181">
        <ele>2267.6</ele>
        <time>2024-08-11T06:41:48Z</time>
      </trkpt>
      <trkpt lat="44.98205" lon="6.42181">
        <ele>2267.2</ele>
        <time>2024-08-11T06:41:49Z</time>
      </trkpt>
      <trkpt lat="44.98209" lon="6.42182">
        <ele>2267</ele>
        <time>2024-08-11T06:41:50Z</time>
      </trkpt>
      <trkpt lat="44.98209" lon="6.42182">
        <ele>2267</ele>
        <time>2024-08-11T06:41:51Z</time>
      </trkpt>
      <trkpt lat="44.98211" lon="6.42184">
        <ele>2266.6</ele>
        <time>2024-08-11T06:41:52Z</time>
      </trkpt>
      <trkpt lat="44.98211" lon="6.42184">
        <ele>2266.4</ele>
        <time>2024-08-11T06:41:53Z</time>
      </trkpt>
      <trkpt lat="44.98211" lon="6.42184">
        <ele>2266.2</ele>
        <time>2024-08-11T06:41:54Z</time>
      </trkpt>
      <trkpt lat="44.98214" lon="6.42186">
        <ele>2266</ele>
        <time>2024-08-11T06:41:55Z</time>
      </trkpt>
      <trkpt lat="44.98215" lon="6.42187">
        <ele>2266</ele>
        <time>2024-08-11T06:41:56Z</time>
      </trkpt>
      <trkpt lat="44.98215" lon="6.42187">
        <ele>2265.6</ele>
        <time>2024-08-11T06:41:57Z</time>
      </trkpt>
      <trkpt lat="44.98218" lon="6.42188">
        <ele>2265.4</ele>
        <time>2024-08-11T06:41:58Z</time>
      </trkpt>
      <trkpt lat="44.98218" lon="6.42188">
        <ele>2265.2</ele>
        <time>2024-08-11T06:41:59Z</time>
      </trkpt>
      <trkpt lat="44.9822" lon="6.42192">
        <ele>2265</ele>
        <time>2024-08-11T06:42:00Z</time>
      </trkpt>
      <trkpt lat="44.9822" lon="6.42192">
        <ele>2265</ele>
        <time>2024-08-11T06:42:01Z</time>
      </trkpt>
      <trkpt lat="44.9822" lon="6.42192">
        <ele>2265</ele>
        <time>2024-08-11T06:42:02Z</time>
      </trkpt>
      <trkpt lat="44.98221" lon="6.42197">
        <ele>2265</ele>
        <time>2024-08-11T06:42:03Z</time>
      </trkpt>
      <trkpt lat="44.98222" lon="6.42198">
        <ele>2265.2</ele>
        <time>2024-08-11T06:42:04Z</time>
      </trkpt>
      <trkpt lat="44.98222" lon="6.42198">
        <ele>2265.4</ele>
        <time>2024-08-11T06:42:05Z</time>
      </trkpt>
      <trkpt lat="44.98222" lon="6.42198">
        <ele>2265.8</ele>
        <time>2024-08-11T06:42:06Z</time>
      </trkpt>
      <trkpt lat="44.98222" lon="6.42203">
        <ele>2265.8</ele>
        <time>2024-08-11T06:42:07Z</time>
      </trkpt>
      <trkpt lat="44.98222" lon="6.42203">
        <ele>2265.8</ele>
        <time>2024-08-11T06:42:08Z</time>
      </trkpt>
      <trkpt lat="44.98222" lon="6.42207">
        <ele>2265.6</ele>
        <time>2024-08-11T06:42:09Z</time>
      </trkpt>
      <trkpt lat="44.98222" lon="6.42209">
        <ele>2265.4</ele>
        <time>2024-08-11T06:42:10Z</time>
      </trkpt>
      <trkpt lat="44.98222" lon="6.42209">
        <ele>2265.4</ele>
        <time>2024-08-11T06:42:11Z</time>
      </trkpt>
      <trkpt lat="44.98222" lon="6.42209">
        <ele>2265.4</ele>
        <time>2024-08-11T06:42:12Z</time>
      </trkpt>
      <trkpt lat="44.98223" lon="6.42215">
        <ele>2265</ele>
        <time>2024-08-11T06:42:13Z</time>
      </trkpt>
      <trkpt lat="44.98224" lon="6.42217">
        <ele>2265</ele>
        <time>2024-08-11T06:42:14Z</time>
      </trkpt>
      <trkpt lat="44.98224" lon="6.42217">
        <ele>2265</ele>
        <time>2024-08-11T06:42:15Z</time>
      </trkpt>
      <trkpt lat="44.98224" lon="6.4222">
        <ele>2265</ele>
        <time>2024-08-11T06:42:16Z</time>
      </trkpt>
      <trkpt lat="44.98224" lon="6.4222">
        <ele>2265</ele>
        <time>2024-08-11T06:42:17Z</time>
      </trkpt>
      <trkpt lat="44.98224" lon="6.42224">
        <ele>2265</ele>
        <time>2024-08-11T06:42:18Z</time>
      </trkpt>
      <trkpt lat="44.98224" lon="6.42224">
        <ele>2265</ele>
        <time>2024-08-11T06:42:19Z</time>
      </trkpt>
      <trkpt lat="44.98225" lon="6.42228">
        <ele>2265</ele>
        <time>2024-08-11T06:42:20Z</time>
      </trkpt>
      <trkpt lat="44.98225" lon="6.42228">
        <ele>2265</ele>
        <time>2024-08-11T06:42:21Z</time>
      </trkpt>
      <trkpt lat="44.98223" lon="6.42232">
        <ele>2265</ele>
        <time>2024-08-11T06:42:22Z</time>
      </trkpt>
      <trkpt lat="44.98221" lon="6.42233">
        <ele>2265</ele>
        <time>2024-08-11T06:42:23Z</time>
      </trkpt>
      <trkpt lat="44.98221" lon="6.42233">
        <ele>2264.8</ele>
        <time>2024-08-11T06:42:24Z</time>
      </trkpt>
      <trkpt lat="44.98219" lon="6.42235">
        <ele>2264.8</ele>
        <time>2024-08-11T06:42:25Z</time>
      </trkpt>
      <trkpt lat="44.98219" lon="6.42235">
        <ele>2264.8</ele>
        <time>2024-08-11T06:42:26Z</time>
      </trkpt>
      <trkpt lat="44.98217" lon="6.42237">
        <ele>2264.8</ele>
        <time>2024-08-11T06:42:27Z</time>
      </trkpt>
      <trkpt lat="44.98217" lon="6.42237">
        <ele>2264.8</ele>
        <time>2024-08-11T06:42:28Z</time>
      </trkpt>
      <trkpt lat="44.98215" lon="6.4224">
        <ele>2265</ele>
        <time>2024-08-11T06:42:29Z</time>
      </trkpt>
      <trkpt lat="44.98215" lon="6.4224">
        <ele>2265</ele>
        <time>2024-08-11T06:42:30Z</time>
      </trkpt>
      <trkpt lat="44.98213" lon="6.42242">
        <ele>2265.2</ele>
        <time>2024-08-11T06:42:31Z</time>
      </trkpt>
      <trkpt lat="44.98213" lon="6.42242">
        <ele>2265.2</ele>
        <time>2024-08-11T06:42:32Z</time>
      </trkpt>
      <trkpt lat="44.98213" lon="6.42242">
        <ele>2265.2</ele>
        <time>2024-08-11T06:42:33Z</time>
      </trkpt>
      <trkpt lat="44.98209" lon="6.42244">
        <ele>2265.4</ele>
        <time>2024-08-11T06:42:34Z</time>
      </trkpt>
      <trkpt lat="44.98208" lon="6.42245">
        <ele>2265.4</ele>
        <time>2024-08-11T06:42:35Z</time>
      </trkpt>
      <trkpt lat="44.98208" lon="6.42245">
        <ele>2265.4</ele>
        <time>2024-08-11T06:42:36Z</time>
      </trkpt>
      <trkpt lat="44.98208" lon="6.42245">
        <ele>2265.2</ele>
        <time>2024-08-11T06:42:37Z</time>
      </trkpt>
      <trkpt lat="44.98205" lon="6.42249">
        <ele>2265.2</ele>
        <time>2024-08-11T06:42:38Z</time>
      </trkpt>
      <trkpt lat="44.98205" lon="6.4225">
        <ele>2265.4</ele>
        <time>2024-08-11T06:42:39Z</time>
      </trkpt>
      <trkpt lat="44.98205" lon="6.4225">
        <ele>2266</ele>
        <time>2024-08-11T06:42:40Z</time>
      </trkpt>
      <trkpt lat="44.98204" lon="6.42253">
        <ele>2266</ele>
        <time>2024-08-11T06:42:41Z</time>
      </trkpt>
      <trkpt lat="44.98204" lon="6.42253">
        <ele>2265.8</ele>
        <time>2024-08-11T06:42:42Z</time>
      </trkpt>
      <trkpt lat="44.98204" lon="6.42253">
        <ele>2265.8</ele>
        <time>2024-08-11T06:42:43Z</time>
      </trkpt>
      <trkpt lat="44.98204" lon="6.42253">
        <ele>2265.4</ele>
        <time>2024-08-11T06:42:44Z</time>
      </trkpt>
      <trkpt lat="44.98204" lon="6.42253">
        <ele>2265.4</ele>
        <time>2024-08-11T06:42:45Z</time>
      </trkpt>
      <trkpt lat="44.98204" lon="6.42256">
        <ele>2265.4</ele>
        <time>2024-08-11T06:42:46Z</time>
      </trkpt>
      <trkpt lat="44.98204" lon="6.42256">
        <ele>2265.6</ele>
        <time>2024-08-11T06:42:47Z</time>
      </trkpt>
      <trkpt lat="44.98204" lon="6.42256">
        <ele>2265.6</ele>
        <time>2024-08-11T06:42:48Z</time>
      </trkpt>
      <trkpt lat="44.98205" lon="6.42259">
        <ele>2265.6</ele>
        <time>2024-08-11T06:42:49Z</time>
      </trkpt>
      <trkpt lat="44.98206" lon="6.42261">
        <ele>2265.6</ele>
        <time>2024-08-11T06:42:50Z</time>
      </trkpt>
      <trkpt lat="44.98206" lon="6.42261">
        <ele>2265.4</ele>
        <time>2024-08-11T06:42:51Z</time>
      </trkpt>
      <trkpt lat="44.98206" lon="6.42263">
        <ele>2265.4</ele>
        <time>2024-08-11T06:42:52Z</time>
      </trkpt>
      <trkpt lat="44.98206" lon="6.42263">
        <ele>2265.4</ele>
        <time>2024-08-11T06:42:53Z</time>
      </trkpt>
      <trkpt lat="44.98207" lon="6.42267">
        <ele>2265.2</ele>
        <time>2024-08-11T06:42:54Z</time>
      </trkpt>
      <trkpt lat="44.98207" lon="6.42267">
        <ele>2264.8</ele>
        <time>2024-08-11T06:42:55Z</time>
      </trkpt>
      <trkpt lat="44.98208" lon="6.4227">
        <ele>2264.6</ele>
        <time>2024-08-11T06:42:56Z</time>
      </trkpt>
      <trkpt lat="44.98208" lon="6.4227">
        <ele>2264.4</ele>
        <time>2024-08-11T06:42:57Z</time>
      </trkpt>
      <trkpt lat="44.98209" lon="6.42273">
        <ele>2264.2</ele>
        <time>2024-08-11T06:42:58Z</time>
      </trkpt>
      <trkpt lat="44.98209" lon="6.42273">
        <ele>2264</ele>
        <time>2024-08-11T06:42:59Z</time>
      </trkpt>
      <trkpt lat="44.98209" lon="6.42277">
        <ele>2264</ele>
        <time>2024-08-11T06:43:00Z</time>
      </trkpt>
      <trkpt lat="44.98209" lon="6.42277">
        <ele>2263.8</ele>
        <time>2024-08-11T06:43:01Z</time>
      </trkpt>
      <trkpt lat="44.98209" lon="6.42277">
        <ele>2263.4</ele>
        <time>2024-08-11T06:43:02Z</time>
      </trkpt>
      <trkpt lat="44.98212" lon="6.42282">
        <ele>2263.4</ele>
        <time>2024-08-11T06:43:03Z</time>
      </trkpt>
      <trkpt lat="44.98213" lon="6.42283">
        <ele>2263.4</ele>
        <time>2024-08-11T06:43:04Z</time>
      </trkpt>
      <trkpt lat="44.98213" lon="6.42283">
        <ele>2263.4</ele>
        <time>2024-08-11T06:43:05Z</time>
      </trkpt>
      <trkpt lat="44.98214" lon="6.42286">
        <ele>2263.4</ele>
        <time>2024-08-11T06:43:06Z</time>
      </trkpt>
      <trkpt lat="44.98214" lon="6.42286">
        <ele>2263.2</ele>
        <time>2024-08-11T06:43:07Z</time>
      </trkpt>
      <trkpt lat="44.98214" lon="6.42286">
        <ele>2263.2</ele>
        <time>2024-08-11T06:43:08Z</time>
      </trkpt>
      <trkpt lat="44.98216" lon="6.42291">
        <ele>2263.2</ele>
        <time>2024-08-11T06:43:09Z</time>
      </trkpt>
      <trkpt lat="44.98216" lon="6.42293">
        <ele>2263.2</ele>
        <time>2024-08-11T06:43:10Z</time>
      </trkpt>
      <trkpt lat="44.98216" lon="6.42293">
        <ele>2263.2</ele>
        <time>2024-08-11T06:43:11Z</time>
      </trkpt>
      <trkpt lat="44.98217" lon="6.42296">
        <ele>2263.2</ele>
        <time>2024-08-11T06:43:12Z</time>
      </trkpt>
      <trkpt lat="44.98217" lon="6.42296">
        <ele>2263</ele>
        <time>2024-08-11T06:43:13Z</time>
      </trkpt>
      <trkpt lat="44.98217" lon="6.42296">
        <ele>2262.8</ele>
        <time>2024-08-11T06:43:14Z</time>
      </trkpt>
      <trkpt lat="44.98218" lon="6.42301">
        <ele>2262.8</ele>
        <time>2024-08-11T06:43:15Z</time>
      </trkpt>
      <trkpt lat="44.98219" lon="6.42302">
        <ele>2262.6</ele>
        <time>2024-08-11T06:43:16Z</time>
      </trkpt>
      <trkpt lat="44.98219" lon="6.42302">
        <ele>2262.2</ele>
        <time>2024-08-11T06:43:17Z</time>
      </trkpt>
      <trkpt lat="44.98219" lon="6.42305">
        <ele>2262.2</ele>
        <time>2024-08-11T06:43:18Z</time>
      </trkpt>
      <trkpt lat="44.98219" lon="6.42305">
        <ele>2262.2</ele>
        <time>2024-08-11T06:43:19Z</time>
      </trkpt>
      <trkpt lat="44.98218" lon="6.42309">
        <ele>2262.2</ele>
        <time>2024-08-11T06:43:20Z</time>
      </trkpt>
      <trkpt lat="44.98218" lon="6.42309">
        <ele>2261.6</ele>
        <time>2024-08-11T06:43:21Z</time>
      </trkpt>
      <trkpt lat="44.98218" lon="6.42313">
        <ele>2261.6</ele>
        <time>2024-08-11T06:43:22Z</time>
      </trkpt>
      <trkpt lat="44.98218" lon="6.42313">
        <ele>2261.4</ele>
        <time>2024-08-11T06:43:23Z</time>
      </trkpt>
      <trkpt lat="44.98218" lon="6.42317">
        <ele>2261.4</ele>
        <time>2024-08-11T06:43:24Z</time>
      </trkpt>
      <trkpt lat="44.98218" lon="6.42317">
        <ele>2261</ele>
        <time>2024-08-11T06:43:25Z</time>
      </trkpt>
      <trkpt lat="44.98218" lon="6.42317">
        <ele>2261</ele>
        <time>2024-08-11T06:43:26Z</time>
      </trkpt>
      <trkpt lat="44.9822" lon="6.42322">
        <ele>2261</ele>
        <time>2024-08-11T06:43:27Z</time>
      </trkpt>
      <trkpt lat="44.98221" lon="6.42323">
        <ele>2260.8</ele>
        <time>2024-08-11T06:43:28Z</time>
      </trkpt>
      <trkpt lat="44.98221" lon="6.42323">
        <ele>2260.8</ele>
        <time>2024-08-11T06:43:29Z</time>
      </trkpt>
      <trkpt lat="44.98221" lon="6.42326">
        <ele>2260.8</ele>
        <time>2024-08-11T06:43:30Z</time>
      </trkpt>
      <trkpt lat="44.98221" lon="6.42326">
        <ele>2260.8</ele>
        <time>2024-08-11T06:43:31Z</time>
      </trkpt>
      <trkpt lat="44.98221" lon="6.42326">
        <ele>2260.6</ele>
        <time>2024-08-11T06:43:32Z</time>
      </trkpt>
      <trkpt lat="44.98223" lon="6.42331">
        <ele>2260.6</ele>
        <time>2024-08-11T06:43:33Z</time>
      </trkpt>
      <trkpt lat="44.98223" lon="6.42331">
        <ele>2260.8</ele>
        <time>2024-08-11T06:43:34Z</time>
      </trkpt>
      <trkpt lat="44.98224" lon="6.42335">
        <ele>2260.8</ele>
        <time>2024-08-11T06:43:35Z</time>
      </trkpt>
      <trkpt lat="44.98225" lon="6.42336">
        <ele>2260.8</ele>
        <time>2024-08-11T06:43:36Z</time>
      </trkpt>
      <trkpt lat="44.98225" lon="6.42336">
        <ele>2260.8</ele>
        <time>2024-08-11T06:43:37Z</time>
      </trkpt>
      <trkpt lat="44.98227" lon="6.42339">
        <ele>2260.8</ele>
        <time>2024-08-11T06:43:38Z</time>
      </trkpt>
      <trkpt lat="44.98227" lon="6.42339">
        <ele>2260.6</ele>
        <time>2024-08-11T06:43:39Z</time>
      </trkpt>
      <trkpt lat="44.98229" lon="6.4234">
        <ele>2260.2</ele>
        <time>2024-08-11T06:43:40Z</time>
      </trkpt>
      <trkpt lat="44.98229" lon="6.4234">
        <ele>2260.2</ele>
        <time>2024-08-11T06:43:41Z</time>
      </trkpt>
      <trkpt lat="44.9823" lon="6.42343">
        <ele>2259.8</ele>
        <time>2024-08-11T06:43:42Z</time>
      </trkpt>
      <trkpt lat="44.9823" lon="6.42343">
        <ele>2259.6</ele>
        <time>2024-08-11T06:43:43Z</time>
      </trkpt>
      <trkpt lat="44.9823" lon="6.42343">
        <ele>2259.6</ele>
        <time>2024-08-11T06:43:44Z</time>
      </trkpt>
      <trkpt lat="44.98231" lon="6.42348">
        <ele>2259.6</ele>
        <time>2024-08-11T06:43:45Z</time>
      </trkpt>
      <trkpt lat="44.98232" lon="6.42349">
        <ele>2259.6</ele>
        <time>2024-08-11T06:43:46Z</time>
      </trkpt>
      <trkpt lat="44.98232" lon="6.42349">
        <ele>2259.4</ele>
        <time>2024-08-11T06:43:47Z</time>
      </trkpt>
      <trkpt lat="44.98233" lon="6.42353">
        <ele>2259.4</ele>
        <time>2024-08-11T06:43:48Z</time>
      </trkpt>
      <trkpt lat="44.98233" lon="6.42353">
        <ele>2259.2</ele>
        <time>2024-08-11T06:43:49Z</time>
      </trkpt>
      <trkpt lat="44.98233" lon="6.42353">
        <ele>2259</ele>
        <time>2024-08-11T06:43:50Z</time>
      </trkpt>
      <trkpt lat="44.98234" lon="6.42358">
        <ele>2258.8</ele>
        <time>2024-08-11T06:43:51Z</time>
      </trkpt>
      <trkpt lat="44.98235" lon="6.4236">
        <ele>2258.6</ele>
        <time>2024-08-11T06:43:52Z</time>
      </trkpt>
      <trkpt lat="44.98235" lon="6.4236">
        <ele>2258.4</ele>
        <time>2024-08-11T06:43:53Z</time>
      </trkpt>
      <trkpt lat="44.98235" lon="6.4236">
        <ele>2258.2</ele>
        <time>2024-08-11T06:43:54Z</time>
      </trkpt>
      <trkpt lat="44.98236" lon="6.42365">
        <ele>2257.8</ele>
        <time>2024-08-11T06:43:55Z</time>
      </trkpt>
      <trkpt lat="44.98236" lon="6.42365">
        <ele>2257.4</ele>
        <time>2024-08-11T06:43:56Z</time>
      </trkpt>
      <trkpt lat="44.98236" lon="6.42369">
        <ele>2257.4</ele>
        <time>2024-08-11T06:43:57Z</time>
      </trkpt>
      <trkpt lat="44.98236" lon="6.42371">
        <ele>2257.2</ele>
        <time>2024-08-11T06:43:58Z</time>
      </trkpt>
      <trkpt lat="44.98236" lon="6.42371">
        <ele>2257.2</ele>
        <time>2024-08-11T06:43:59Z</time>
      </trkpt>
      <trkpt lat="44.98238" lon="6.42374">
        <ele>2257.2</ele>
        <time>2024-08-11T06:44:00Z</time>
      </trkpt>
      <trkpt lat="44.98238" lon="6.42374">
        <ele>2256.6</ele>
        <time>2024-08-11T06:44:01Z</time>
      </trkpt>
      <trkpt lat="44.98238" lon="6.42374">
        <ele>2256.6</ele>
        <time>2024-08-11T06:44:02Z</time>
      </trkpt>
      <trkpt lat="44.98239" lon="6.42379">
        <ele>2256.6</ele>
        <time>2024-08-11T06:44:03Z</time>
      </trkpt>
      <trkpt lat="44.98239" lon="6.4238">
        <ele>2256.6</ele>
        <time>2024-08-11T06:44:04Z</time>
      </trkpt>
      <trkpt lat="44.98239" lon="6.4238">
        <ele>2256.6</ele>
        <time>2024-08-11T06:44:05Z</time>
      </trkpt>
      <trkpt lat="44.98239" lon="6.4238">
        <ele>2256.6</ele>
        <time>2024-08-11T06:44:06Z</time>
      </trkpt>
      <trkpt lat="44.98241" lon="6.42386">
        <ele>2256.6</ele>
        <time>2024-08-11T06:44:07Z</time>
      </trkpt>
      <trkpt lat="44.98241" lon="6.42386">
        <ele>2256.6</ele>
        <time>2024-08-11T06:44:08Z</time>
      </trkpt>
      <trkpt lat="44.98243" lon="6.42388">
        <ele>2256.6</ele>
        <time>2024-08-11T06:44:09Z</time>
      </trkpt>
      <trkpt lat="44.98243" lon="6.4239">
        <ele>2256.6</ele>
        <time>2024-08-11T06:44:10Z</time>
      </trkpt>
      <trkpt lat="44.98243" lon="6.4239">
        <ele>2256.6</ele>
        <time>2024-08-11T06:44:11Z</time>
      </trkpt>
      <trkpt lat="44.98243" lon="6.4239">
        <ele>2256.8</ele>
        <time>2024-08-11T06:44:12Z</time>
      </trkpt>
      <trkpt lat="44.98241" lon="6.42395">
        <ele>2256.8</ele>
        <time>2024-08-11T06:44:13Z</time>
      </trkpt>
      <trkpt lat="44.98241" lon="6.42395">
        <ele>2256.6</ele>
        <time>2024-08-11T06:44:14Z</time>
      </trkpt>
      <trkpt lat="44.98241" lon="6.42398">
        <ele>2256.6</ele>
        <time>2024-08-11T06:44:15Z</time>
      </trkpt>
      <trkpt lat="44.98241" lon="6.42399">
        <ele>2256.4</ele>
        <time>2024-08-11T06:44:16Z</time>
      </trkpt>
      <trkpt lat="44.98241" lon="6.42399">
        <ele>2256.2</ele>
        <time>2024-08-11T06:44:17Z</time>
      </trkpt>
      <trkpt lat="44.98241" lon="6.42403">
        <ele>2256.2</ele>
        <time>2024-08-11T06:44:18Z</time>
      </trkpt>
      <trkpt lat="44.98241" lon="6.42403">
        <ele>2256</ele>
        <time>2024-08-11T06:44:19Z</time>
      </trkpt>
      <trkpt lat="44.98242" lon="6.42407">
        <ele>2256</ele>
        <time>2024-08-11T06:44:20Z</time>
      </trkpt>
      <trkpt lat="44.98242" lon="6.42407">
        <ele>2255.8</ele>
        <time>2024-08-11T06:44:21Z</time>
      </trkpt>
      <trkpt lat="44.98241" lon="6.4241">
        <ele>2256</ele>
        <time>2024-08-11T06:44:22Z</time>
      </trkpt>
      <trkpt lat="44.98241" lon="6.4241">
        <ele>2256</ele>
        <time>2024-08-11T06:44:23Z</time>
      </trkpt>
      <trkpt lat="44.98239" lon="6.42413">
        <ele>2256</ele>
        <time>2024-08-11T06:44:24Z</time>
      </trkpt>
      <trkpt lat="44.98239" lon="6.42413">
        <ele>2256</ele>
        <time>2024-08-11T06:44:25Z</time>
      </trkpt>
      <trkpt lat="44.98239" lon="6.42417">
        <ele>2255.4</ele>
        <time>2024-08-11T06:44:26Z</time>
      </trkpt>
      <trkpt lat="44.98239" lon="6.42417">
        <ele>2255</ele>
        <time>2024-08-11T06:44:27Z</time>
      </trkpt>
      <trkpt lat="44.98238" lon="6.4242">
        <ele>2255</ele>
        <time>2024-08-11T06:44:28Z</time>
      </trkpt>
      <trkpt lat="44.98238" lon="6.4242">
        <ele>2255</ele>
        <time>2024-08-11T06:44:29Z</time>
      </trkpt>
      <trkpt lat="44.98238" lon="6.4242">
        <ele>2254.8</ele>
        <time>2024-08-11T06:44:30Z</time>
      </trkpt>
      <trkpt lat="44.98238" lon="6.42424">
        <ele>2254.6</ele>
        <time>2024-08-11T06:44:31Z</time>
      </trkpt>
      <trkpt lat="44.98238" lon="6.42426">
        <ele>2254.6</ele>
        <time>2024-08-11T06:44:32Z</time>
      </trkpt>
      <trkpt lat="44.98238" lon="6.42426">
        <ele>2254.4</ele>
        <time>2024-08-11T06:44:33Z</time>
      </trkpt>
      <trkpt lat="44.98237" lon="6.42429">
        <ele>2254.4</ele>
        <time>2024-08-11T06:44:34Z</time>
      </trkpt>
      <trkpt lat="44.98237" lon="6.42429">
        <ele>2253.8</ele>
        <time>2024-08-11T06:44:35Z</time>
      </trkpt>
      <trkpt lat="44.98237" lon="6.42429">
        <ele>2253</ele>
        <time>2024-08-11T06:44:36Z</time>
      </trkpt>
      <trkpt lat="44.98238" lon="6.42432">
        <ele>2252.4</ele>
        <time>2024-08-11T06:44:37Z</time>
      </trkpt>
      <trkpt lat="44.98238" lon="6.42432">
        <ele>2252.2</ele>
        <time>2024-08-11T06:44:38Z</time>
      </trkpt>
      <trkpt lat="44.98238" lon="6.42432">
        <ele>2251.8</ele>
        <time>2024-08-11T06:44:39Z</time>
      </trkpt>
      <trkpt lat="44.98238" lon="6.42432">
        <ele>2251.8</ele>
        <time>2024-08-11T06:44:40Z</time>
      </trkpt>
      <trkpt lat="44.98237" lon="6.42438">
        <ele>2251.4</ele>
        <time>2024-08-11T06:44:41Z</time>
      </trkpt>
      <trkpt lat="44.98237" lon="6.42439">
        <ele>2250.8</ele>
        <time>2024-08-11T06:44:42Z</time>
      </trkpt>
      <trkpt lat="44.98237" lon="6.42439">
        <ele>2250.4</ele>
        <time>2024-08-11T06:44:43Z</time>
      </trkpt>
      <trkpt lat="44.98237" lon="6.42443">
        <ele>2250.4</ele>
        <time>2024-08-11T06:44:44Z</time>
      </trkpt>
      <trkpt lat="44.98237" lon="6.42443">
        <ele>2250</ele>
        <time>2024-08-11T06:44:45Z</time>
      </trkpt>
      <trkpt lat="44.98237" lon="6.42446">
        <ele>2249.6</ele>
        <time>2024-08-11T06:44:46Z</time>
      </trkpt>
      <trkpt lat="44.98237" lon="6.42446">
        <ele>2249.2</ele>
        <time>2024-08-11T06:44:47Z</time>
      </trkpt>
      <trkpt lat="44.98237" lon="6.42451">
        <ele>2249</ele>
        <time>2024-08-11T06:44:48Z</time>
      </trkpt>
      <trkpt lat="44.98237" lon="6.42451">
        <ele>2249</ele>
        <time>2024-08-11T06:44:49Z</time>
      </trkpt>
      <trkpt lat="44.98237" lon="6.42455">
        <ele>2248.6</ele>
        <time>2024-08-11T06:44:50Z</time>
      </trkpt>
      <trkpt lat="44.98237" lon="6.42455">
        <ele>2248.4</ele>
        <time>2024-08-11T06:44:51Z</time>
      </trkpt>
      <trkpt lat="44.98237" lon="6.42455">
        <ele>2248.2</ele>
        <time>2024-08-11T06:44:52Z</time>
      </trkpt>
      <trkpt lat="44.98236" lon="6.42461">
        <ele>2248.2</ele>
        <time>2024-08-11T06:44:53Z</time>
      </trkpt>
      <trkpt lat="44.98236" lon="6.42463">
        <ele>2247.8</ele>
        <time>2024-08-11T06:44:54Z</time>
      </trkpt>
      <trkpt lat="44.98236" lon="6.42463">
        <ele>2247.6</ele>
        <time>2024-08-11T06:44:55Z</time>
      </trkpt>
      <trkpt lat="44.98235" lon="6.42467">
        <ele>2247.4</ele>
        <time>2024-08-11T06:44:56Z</time>
      </trkpt>
      <trkpt lat="44.98235" lon="6.42467">
        <ele>2247.2</ele>
        <time>2024-08-11T06:44:57Z</time>
      </trkpt>
      <trkpt lat="44.98235" lon="6.42471">
        <ele>2247.2</ele>
        <time>2024-08-11T06:44:58Z</time>
      </trkpt>
      <trkpt lat="44.98235" lon="6.42471">
        <ele>2247</ele>
        <time>2024-08-11T06:44:59Z</time>
      </trkpt>
      <trkpt lat="44.98235" lon="6.42474">
        <ele>2246.8</ele>
        <time>2024-08-11T06:45:00Z</time>
      </trkpt>
      <trkpt lat="44.98235" lon="6.42474">
        <ele>2246.4</ele>
        <time>2024-08-11T06:45:01Z</time>
      </trkpt>
      <trkpt lat="44.98236" lon="6.42477">
        <ele>2246</ele>
        <time>2024-08-11T06:45:02Z</time>
      </trkpt>
      <trkpt lat="44.98236" lon="6.42477">
        <ele>2246</ele>
        <time>2024-08-11T06:45:03Z</time>
      </trkpt>
      <trkpt lat="44.98235" lon="6.42481">
        <ele>2245.6</ele>
        <time>2024-08-11T06:45:04Z</time>
      </trkpt>
      <trkpt lat="44.98235" lon="6.42481">
        <ele>2245.6</ele>
        <time>2024-08-11T06:45:05Z</time>
      </trkpt>
      <trkpt lat="44.98235" lon="6.42485">
        <ele>2245.4</ele>
        <time>2024-08-11T06:45:06Z</time>
      </trkpt>
      <trkpt lat="44.98235" lon="6.42485">
        <ele>2245.4</ele>
        <time>2024-08-11T06:45:07Z</time>
      </trkpt>
      <trkpt lat="44.98236" lon="6.42488">
        <ele>2245</ele>
        <time>2024-08-11T06:45:08Z</time>
      </trkpt>
      <trkpt lat="44.98236" lon="6.42488">
        <ele>2245</ele>
        <time>2024-08-11T06:45:09Z</time>
      </trkpt>
      <trkpt lat="44.98236" lon="6.42488">
        <ele>2244.8</ele>
        <time>2024-08-11T06:45:10Z</time>
      </trkpt>
      <trkpt lat="44.98237" lon="6.42493">
        <ele>2244.6</ele>
        <time>2024-08-11T06:45:11Z</time>
      </trkpt>
      <trkpt lat="44.98237" lon="6.42494">
        <ele>2244.4</ele>
        <time>2024-08-11T06:45:12Z</time>
      </trkpt>
      <trkpt lat="44.98237" lon="6.42494">
        <ele>2244.2</ele>
        <time>2024-08-11T06:45:13Z</time>
      </trkpt>
      <trkpt lat="44.98237" lon="6.42498">
        <ele>2244</ele>
        <time>2024-08-11T06:45:14Z</time>
      </trkpt>
      <trkpt lat="44.98237" lon="6.42498">
        <ele>2244</ele>
        <time>2024-08-11T06:45:15Z</time>
      </trkpt>
      <trkpt lat="44.98237" lon="6.42502">
        <ele>2244</ele>
        <time>2024-08-11T06:45:16Z</time>
      </trkpt>
      <trkpt lat="44.98237" lon="6.42502">
        <ele>2243.8</ele>
        <time>2024-08-11T06:45:17Z</time>
      </trkpt>
      <trkpt lat="44.98237" lon="6.42506">
        <ele>2243.4</ele>
        <time>2024-08-11T06:45:18Z</time>
      </trkpt>
      <trkpt lat="44.98237" lon="6.42506">
        <ele>2243.4</ele>
        <time>2024-08-11T06:45:19Z</time>
      </trkpt>
      <trkpt lat="44.98238" lon="6.4251">
        <ele>2243.4</ele>
        <time>2024-08-11T06:45:20Z</time>
      </trkpt>
      <trkpt lat="44.98238" lon="6.4251">
        <ele>2243.2</ele>
        <time>2024-08-11T06:45:21Z</time>
      </trkpt>
      <trkpt lat="44.98238" lon="6.4251">
        <ele>2243</ele>
        <time>2024-08-11T06:45:22Z</time>
      </trkpt>
      <trkpt lat="44.9824" lon="6.42515">
        <ele>2242.6</ele>
        <time>2024-08-11T06:45:23Z</time>
      </trkpt>
      <trkpt lat="44.98241" lon="6.42517">
        <ele>2242.4</ele>
        <time>2024-08-11T06:45:24Z</time>
      </trkpt>
      <trkpt lat="44.98241" lon="6.42517">
        <ele>2242.4</ele>
        <time>2024-08-11T06:45:25Z</time>
      </trkpt>
      <trkpt lat="44.98241" lon="6.42521">
        <ele>2242.2</ele>
        <time>2024-08-11T06:45:26Z</time>
      </trkpt>
      <trkpt lat="44.98241" lon="6.42521">
        <ele>2242</ele>
        <time>2024-08-11T06:45:27Z</time>
      </trkpt>
      <trkpt lat="44.98241" lon="6.42524">
        <ele>2241.8</ele>
        <time>2024-08-11T06:45:28Z</time>
      </trkpt>
      <trkpt lat="44.98241" lon="6.42524">
        <ele>2241.2</ele>
        <time>2024-08-11T06:45:29Z</time>
      </trkpt>
      <trkpt lat="44.98241" lon="6.42527">
        <ele>2241.2</ele>
        <time>2024-08-11T06:45:30Z</time>
      </trkpt>
      <trkpt lat="44.98241" lon="6.42527">
        <ele>2241.2</ele>
        <time>2024-08-11T06:45:31Z</time>
      </trkpt>
      <trkpt lat="44.9824" lon="6.4253">
        <ele>2241</ele>
        <time>2024-08-11T06:45:32Z</time>
      </trkpt>
      <trkpt lat="44.9824" lon="6.4253">
        <ele>2240.6</ele>
        <time>2024-08-11T06:45:33Z</time>
      </trkpt>
      <trkpt lat="44.98239" lon="6.42534">
        <ele>2240.4</ele>
        <time>2024-08-11T06:45:34Z</time>
      </trkpt>
      <trkpt lat="44.98239" lon="6.42534">
        <ele>2240</ele>
        <time>2024-08-11T06:45:35Z</time>
      </trkpt>
      <trkpt lat="44.98239" lon="6.42538">
        <ele>2240</ele>
        <time>2024-08-11T06:45:36Z</time>
      </trkpt>
      <trkpt lat="44.98239" lon="6.42538">
        <ele>2239.6</ele>
        <time>2024-08-11T06:45:37Z</time>
      </trkpt>
      <trkpt lat="44.98239" lon="6.42541">
        <ele>2239.2</ele>
        <time>2024-08-11T06:45:38Z</time>
      </trkpt>
      <trkpt lat="44.98239" lon="6.42541">
        <ele>2239.2</ele>
        <time>2024-08-11T06:45:39Z</time>
      </trkpt>
      <trkpt lat="44.98239" lon="6.42545">
        <ele>2239.2</ele>
        <time>2024-08-11T06:45:40Z</time>
      </trkpt>
      <trkpt lat="44.98239" lon="6.42545">
        <ele>2239</ele>
        <time>2024-08-11T06:45:41Z</time>
      </trkpt>
      <trkpt lat="44.9824" lon="6.42548">
        <ele>2238.8</ele>
        <time>2024-08-11T06:45:42Z</time>
      </trkpt>
      <trkpt lat="44.9824" lon="6.42548">
        <ele>2238.6</ele>
        <time>2024-08-11T06:45:43Z</time>
      </trkpt>
      <trkpt lat="44.9824" lon="6.42551">
        <ele>2238.4</ele>
        <time>2024-08-11T06:45:44Z</time>
      </trkpt>
      <trkpt lat="44.9824" lon="6.42551">
        <ele>2238.2</ele>
        <time>2024-08-11T06:45:45Z</time>
      </trkpt>
      <trkpt lat="44.9824" lon="6.42551">
        <ele>2238</ele>
        <time>2024-08-11T06:45:46Z</time>
      </trkpt>
      <trkpt lat="44.98241" lon="6.42556">
        <ele>2238</ele>
        <time>2024-08-11T06:45:47Z</time>
      </trkpt>
      <trkpt lat="44.98241" lon="6.42558">
        <ele>2237.8</ele>
        <time>2024-08-11T06:45:48Z</time>
      </trkpt>
      <trkpt lat="44.98241" lon="6.42558">
        <ele>2237.4</ele>
        <time>2024-08-11T06:45:49Z</time>
      </trkpt>
      <trkpt lat="44.98242" lon="6.42562">
        <ele>2237.2</ele>
        <time>2024-08-11T06:45:50Z</time>
      </trkpt>
      <trkpt lat="44.98242" lon="6.42562">
        <ele>2237</ele>
        <time>2024-08-11T06:45:51Z</time>
      </trkpt>
      <trkpt lat="44.98242" lon="6.42562">
        <ele>2237</ele>
        <time>2024-08-11T06:45:52Z</time>
      </trkpt>
      <trkpt lat="44.98241" lon="6.42568">
        <ele>2237</ele>
        <time>2024-08-11T06:45:53Z</time>
      </trkpt>
      <trkpt lat="44.98242" lon="6.4257">
        <ele>2237</ele>
        <time>2024-08-11T06:45:54Z</time>
      </trkpt>
      <trkpt lat="44.98242" lon="6.4257">
        <ele>2236.8</ele>
        <time>2024-08-11T06:45:55Z</time>
      </trkpt>
      <trkpt lat="44.98241" lon="6.42574">
        <ele>2236.8</ele>
        <time>2024-08-11T06:45:56Z</time>
      </trkpt>
      <trkpt lat="44.98241" lon="6.42574">
        <ele>2236.8</ele>
        <time>2024-08-11T06:45:57Z</time>
      </trkpt>
      <trkpt lat="44.98241" lon="6.42574">
        <ele>2236.6</ele>
        <time>2024-08-11T06:45:58Z</time>
      </trkpt>
      <trkpt lat="44.98241" lon="6.4258">
        <ele>2236.4</ele>
        <time>2024-08-11T06:45:59Z</time>
      </trkpt>
      <trkpt lat="44.98242" lon="6.42582">
        <ele>2236.4</ele>
        <time>2024-08-11T06:46:00Z</time>
      </trkpt>
      <trkpt lat="44.98242" lon="6.42582">
        <ele>2236</ele>
        <time>2024-08-11T06:46:01Z</time>
      </trkpt>
      <trkpt lat="44.98242" lon="6.42586">
        <ele>2236.4</ele>
        <time>2024-08-11T06:46:02Z</time>
      </trkpt>
      <trkpt lat="44.98242" lon="6.42586">
        <ele>2236.4</ele>
        <time>2024-08-11T06:46:03Z</time>
      </trkpt>
      <trkpt lat="44.98242" lon="6.4259">
        <ele>2236.4</ele>
        <time>2024-08-11T06:46:04Z</time>
      </trkpt>
      <trkpt lat="44.98242" lon="6.4259">
        <ele>2236</ele>
        <time>2024-08-11T06:46:05Z</time>
      </trkpt>
      <trkpt lat="44.98242" lon="6.42593">
        <ele>2235.6</ele>
        <time>2024-08-11T06:46:06Z</time>
      </trkpt>
      <trkpt lat="44.98242" lon="6.42593">
        <ele>2235.4</ele>
        <time>2024-08-11T06:46:07Z</time>
      </trkpt>
      <trkpt lat="44.98242" lon="6.42597">
        <ele>2235.4</ele>
        <time>2024-08-11T06:46:08Z</time>
      </trkpt>
      <trkpt lat="44.98242" lon="6.42597">
        <ele>2235.2</ele>
        <time>2024-08-11T06:46:09Z</time>
      </trkpt>
      <trkpt lat="44.98242" lon="6.42601">
        <ele>2235.2</ele>
        <time>2024-08-11T06:46:10Z</time>
      </trkpt>
      <trkpt lat="44.98243" lon="6.42604">
        <ele>2235.2</ele>
        <time>2024-08-11T06:46:11Z</time>
      </trkpt>
      <trkpt lat="44.98243" lon="6.42604">
        <ele>2235.2</ele>
        <time>2024-08-11T06:46:12Z</time>
      </trkpt>
      <trkpt lat="44.98243" lon="6.42607">
        <ele>2235.2</ele>
        <time>2024-08-11T06:46:13Z</time>
      </trkpt>
      <trkpt lat="44.98243" lon="6.42607">
        <ele>2235</ele>
        <time>2024-08-11T06:46:14Z</time>
      </trkpt>
      <trkpt lat="44.98242" lon="6.42611">
        <ele>2235</ele>
        <time>2024-08-11T06:46:15Z</time>
      </trkpt>
      <trkpt lat="44.98242" lon="6.42611">
        <ele>2234.8</ele>
        <time>2024-08-11T06:46:16Z</time>
      </trkpt>
      <trkpt lat="44.98242" lon="6.42615">
        <ele>2234.6</ele>
        <time>2024-08-11T06:46:17Z</time>
      </trkpt>
      <trkpt lat="44.98242" lon="6.42615">
        <ele>2234.6</ele>
        <time>2024-08-11T06:46:18Z</time>
      </trkpt>
      <trkpt lat="44.98242" lon="6.42619">
        <ele>2234.6</ele>
        <time>2024-08-11T06:46:19Z</time>
      </trkpt>
      <trkpt lat="44.98242" lon="6.42619">
        <ele>2234.6</ele>
        <time>2024-08-11T06:46:20Z</time>
      </trkpt>
      <trkpt lat="44.98241" lon="6.42623">
        <ele>2234.4</ele>
        <time>2024-08-11T06:46:21Z</time>
      </trkpt>
      <trkpt lat="44.98241" lon="6.42623">
        <ele>2234.4</ele>
        <time>2024-08-11T06:46:22Z</time>
      </trkpt>
      <trkpt lat="44.98241" lon="6.42627">
        <ele>2234.4</ele>
        <time>2024-08-11T06:46:23Z</time>
      </trkpt>
      <trkpt lat="44.98241" lon="6.42627">
        <ele>2234.2</ele>
        <time>2024-08-11T06:46:24Z</time>
      </trkpt>
      <trkpt lat="44.98241" lon="6.42631">
        <ele>2234.2</ele>
        <time>2024-08-11T06:46:25Z</time>
      </trkpt>
      <trkpt lat="44.98241" lon="6.42631">
        <ele>2234.4</ele>
        <time>2024-08-11T06:46:26Z</time>
      </trkpt>
      <trkpt lat="44.98241" lon="6.42636">
        <ele>2234.4</ele>
        <time>2024-08-11T06:46:27Z</time>
      </trkpt>
      <trkpt lat="44.98241" lon="6.42636">
        <ele>2234.4</ele>
        <time>2024-08-11T06:46:28Z</time>
      </trkpt>
      <trkpt lat="44.98241" lon="6.4264">
        <ele>2234.4</ele>
        <time>2024-08-11T06:46:29Z</time>
      </trkpt>
      <trkpt lat="44.98241" lon="6.4264">
        <ele>2234.6</ele>
        <time>2024-08-11T06:46:30Z</time>
      </trkpt>
      <trkpt lat="44.98241" lon="6.4264">
        <ele>2234.8</ele>
        <time>2024-08-11T06:46:31Z</time>
      </trkpt>
      <trkpt lat="44.98241" lon="6.42645">
        <ele>2234.8</ele>
        <time>2024-08-11T06:46:32Z</time>
      </trkpt>
      <trkpt lat="44.9824" lon="6.42647">
        <ele>2234.6</ele>
        <time>2024-08-11T06:46:33Z</time>
      </trkpt>
      <trkpt lat="44.9824" lon="6.42647">
        <ele>2234.6</ele>
        <time>2024-08-11T06:46:34Z</time>
      </trkpt>
      <trkpt lat="44.98239" lon="6.4265">
        <ele>2234.6</ele>
        <time>2024-08-11T06:46:35Z</time>
      </trkpt>
      <trkpt lat="44.98239" lon="6.4265">
        <ele>2234.4</ele>
        <time>2024-08-11T06:46:36Z</time>
      </trkpt>
      <trkpt lat="44.98239" lon="6.4265">
        <ele>2234.4</ele>
        <time>2024-08-11T06:46:37Z</time>
      </trkpt>
      <trkpt lat="44.98237" lon="6.42655">
        <ele>2234.2</ele>
        <time>2024-08-11T06:46:38Z</time>
      </trkpt>
      <trkpt lat="44.98237" lon="6.42657">
        <ele>2233.8</ele>
        <time>2024-08-11T06:46:39Z</time>
      </trkpt>
      <trkpt lat="44.98237" lon="6.42657">
        <ele>2233.8</ele>
        <time>2024-08-11T06:46:40Z</time>
      </trkpt>
      <trkpt lat="44.98237" lon="6.42661">
        <ele>2234</ele>
        <time>2024-08-11T06:46:41Z</time>
      </trkpt>
      <trkpt lat="44.98237" lon="6.42661">
        <ele>2234</ele>
        <time>2024-08-11T06:46:42Z</time>
      </trkpt>
      <trkpt lat="44.98237" lon="6.42665">
        <ele>2234</ele>
        <time>2024-08-11T06:46:43Z</time>
      </trkpt>
      <trkpt lat="44.98237" lon="6.42665">
        <ele>2234</ele>
        <time>2024-08-11T06:46:44Z</time>
      </trkpt>
      <trkpt lat="44.98237" lon="6.42669">
        <ele>2233.8</ele>
        <time>2024-08-11T06:46:45Z</time>
      </trkpt>
      <trkpt lat="44.98237" lon="6.42669">
        <ele>2233.8</ele>
        <time>2024-08-11T06:46:46Z</time>
      </trkpt>
      <trkpt lat="44.98237" lon="6.42673">
        <ele>2233.6</ele>
        <time>2024-08-11T06:46:47Z</time>
      </trkpt>
      <trkpt lat="44.98237" lon="6.42673">
        <ele>2233.6</ele>
        <time>2024-08-11T06:46:48Z</time>
      </trkpt>
      <trkpt lat="44.98236" lon="6.42677">
        <ele>2233.6</ele>
        <time>2024-08-11T06:46:49Z</time>
      </trkpt>
      <trkpt lat="44.98236" lon="6.42677">
        <ele>2233.6</ele>
        <time>2024-08-11T06:46:50Z</time>
      </trkpt>
      <trkpt lat="44.98235" lon="6.4268">
        <ele>2233.4</ele>
        <time>2024-08-11T06:46:51Z</time>
      </trkpt>
      <trkpt lat="44.98235" lon="6.4268">
        <ele>2233.4</ele>
        <time>2024-08-11T06:46:52Z</time>
      </trkpt>
      <trkpt lat="44.98233" lon="6.42684">
        <ele>2233.2</ele>
        <time>2024-08-11T06:46:53Z</time>
      </trkpt>
      <trkpt lat="44.98233" lon="6.42684">
        <ele>2232.8</ele>
        <time>2024-08-11T06:46:54Z</time>
      </trkpt>
      <trkpt lat="44.98232" lon="6.42687">
        <ele>2232.4</ele>
        <time>2024-08-11T06:46:55Z</time>
      </trkpt>
      <trkpt lat="44.98232" lon="6.42687">
        <ele>2232</ele>
        <time>2024-08-11T06:46:56Z</time>
      </trkpt>
      <trkpt lat="44.98231" lon="6.42691">
        <ele>2232</ele>
        <time>2024-08-11T06:46:57Z</time>
      </trkpt>
      <trkpt lat="44.98231" lon="6.42691">
        <ele>2232</ele>
        <time>2024-08-11T06:46:58Z</time>
      </trkpt>
      <trkpt lat="44.98231" lon="6.42695">
        <ele>2232.2</ele>
        <time>2024-08-11T06:46:59Z</time>
      </trkpt>
      <trkpt lat="44.98231" lon="6.42695">
        <ele>2232.2</ele>
        <time>2024-08-11T06:47:00Z</time>
      </trkpt>
      <trkpt lat="44.9823" lon="6.42698">
        <ele>2231.8</ele>
        <time>2024-08-11T06:47:01Z</time>
      </trkpt>
      <trkpt lat="44.9823" lon="6.42698">
        <ele>2231.8</ele>
        <time>2024-08-11T06:47:02Z</time>
      </trkpt>
      <trkpt lat="44.9823" lon="6.42702">
        <ele>2231.8</ele>
        <time>2024-08-11T06:47:03Z</time>
      </trkpt>
      <trkpt lat="44.9823" lon="6.42702">
        <ele>2231.6</ele>
        <time>2024-08-11T06:47:04Z</time>
      </trkpt>
      <trkpt lat="44.98229" lon="6.42706">
        <ele>2231.6</ele>
        <time>2024-08-11T06:47:05Z</time>
      </trkpt>
      <trkpt lat="44.98229" lon="6.42706">
        <ele>2231.6</ele>
        <time>2024-08-11T06:47:06Z</time>
      </trkpt>
      <trkpt lat="44.98228" lon="6.42709">
        <ele>2231.6</ele>
        <time>2024-08-11T06:47:07Z</time>
      </trkpt>
      <trkpt lat="44.98228" lon="6.42709">
        <ele>2231.4</ele>
        <time>2024-08-11T06:47:08Z</time>
      </trkpt>
      <trkpt lat="44.98227" lon="6.42712">
        <ele>2231.4</ele>
        <time>2024-08-11T06:47:09Z</time>
      </trkpt>
      <trkpt lat="44.98227" lon="6.42712">
        <ele>2231</ele>
        <time>2024-08-11T06:47:10Z</time>
      </trkpt>
      <trkpt lat="44.98226" lon="6.42716">
        <ele>2230.8</ele>
        <time>2024-08-11T06:47:11Z</time>
      </trkpt>
      <trkpt lat="44.98226" lon="6.42716">
        <ele>2230.8</ele>
        <time>2024-08-11T06:47:12Z</time>
      </trkpt>
      <trkpt lat="44.98226" lon="6.42716">
        <ele>2230.8</ele>
        <time>2024-08-11T06:47:13Z</time>
      </trkpt>
      <trkpt lat="44.98225" lon="6.42721">
        <ele>2230.6</ele>
        <time>2024-08-11T06:47:14Z</time>
      </trkpt>
      <trkpt lat="44.98224" lon="6.42723">
        <ele>2230.6</ele>
        <time>2024-08-11T06:47:15Z</time>
      </trkpt>
      <trkpt lat="44.98224" lon="6.42723">
        <ele>2230.4</ele>
        <time>2024-08-11T06:47:16Z</time>
      </trkpt>
      <trkpt lat="44.98223" lon="6.42727">
        <ele>2230.4</ele>
        <time>2024-08-11T06:47:17Z</time>
      </trkpt>
      <trkpt lat="44.98223" lon="6.42727">
        <ele>2230</ele>
        <time>2024-08-11T06:47:18Z</time>
      </trkpt>
      <trkpt lat="44.98223" lon="6.4273">
        <ele>2230</ele>
        <time>2024-08-11T06:47:19Z</time>
      </trkpt>
      <trkpt lat="44.98223" lon="6.4273">
        <ele>2230</ele>
        <time>2024-08-11T06:47:20Z</time>
      </trkpt>
      <trkpt lat="44.98222" lon="6.42734">
        <ele>2230</ele>
        <time>2024-08-11T06:47:21Z</time>
      </trkpt>
      <trkpt lat="44.98222" lon="6.42734">
        <ele>2230</ele>
        <time>2024-08-11T06:47:22Z</time>
      </trkpt>
      <trkpt lat="44.98221" lon="6.42737">
        <ele>2230.2</ele>
        <time>2024-08-11T06:47:23Z</time>
      </trkpt>
      <trkpt lat="44.98221" lon="6.42737">
        <ele>2230.2</ele>
        <time>2024-08-11T06:47:24Z</time>
      </trkpt>
      <trkpt lat="44.98221" lon="6.42737">
        <ele>2230.2</ele>
        <time>2024-08-11T06:47:25Z</time>
      </trkpt>
      <trkpt lat="44.98219" lon="6.42742">
        <ele>2230.2</ele>
        <time>2024-08-11T06:47:26Z</time>
      </trkpt>
      <trkpt lat="44.98218" lon="6.42743">
        <ele>2230.2</ele>
        <time>2024-08-11T06:47:27Z</time>
      </trkpt>
      <trkpt lat="44.98218" lon="6.42743">
        <ele>2230.4</ele>
        <time>2024-08-11T06:47:28Z</time>
      </trkpt>
      <trkpt lat="44.98215" lon="6.42745">
        <ele>2230.4</ele>
        <time>2024-08-11T06:47:29Z</time>
      </trkpt>
      <trkpt lat="44.98215" lon="6.42745">
        <ele>2230.6</ele>
        <time>2024-08-11T06:47:30Z</time>
      </trkpt>
      <trkpt lat="44.98213" lon="6.42747">
        <ele>2230.6</ele>
        <time>2024-08-11T06:47:31Z</time>
      </trkpt>
      <trkpt lat="44.98213" lon="6.42747">
        <ele>2230.6</ele>
        <time>2024-08-11T06:47:32Z</time>
      </trkpt>
      <trkpt lat="44.98212" lon="6.4275">
        <ele>2230.6</ele>
        <time>2024-08-11T06:47:33Z</time>
      </trkpt>
      <trkpt lat="44.98212" lon="6.4275">
        <ele>2230.6</ele>
        <time>2024-08-11T06:47:34Z</time>
      </trkpt>
      <trkpt lat="44.98211" lon="6.42752">
        <ele>2230.6</ele>
        <time>2024-08-11T06:47:35Z</time>
      </trkpt>
      <trkpt lat="44.98211" lon="6.42752">
        <ele>2230.6</ele>
        <time>2024-08-11T06:47:36Z</time>
      </trkpt>
      <trkpt lat="44.9821" lon="6.42756">
        <ele>2230.4</ele>
        <time>2024-08-11T06:47:37Z</time>
      </trkpt>
      <trkpt lat="44.9821" lon="6.42756">
        <ele>2230.4</ele>
        <time>2024-08-11T06:47:38Z</time>
      </trkpt>
      <trkpt lat="44.9821" lon="6.4276">
        <ele>2230.4</ele>
        <time>2024-08-11T06:47:39Z</time>
      </trkpt>
      <trkpt lat="44.9821" lon="6.4276">
        <ele>2230.4</ele>
        <time>2024-08-11T06:47:40Z</time>
      </trkpt>
      <trkpt lat="44.98209" lon="6.42763">
        <ele>2230.4</ele>
        <time>2024-08-11T06:47:41Z</time>
      </trkpt>
      <trkpt lat="44.98209" lon="6.42763">
        <ele>2230.4</ele>
        <time>2024-08-11T06:47:42Z</time>
      </trkpt>
      <trkpt lat="44.98208" lon="6.42767">
        <ele>2230.4</ele>
        <time>2024-08-11T06:47:43Z</time>
      </trkpt>
      <trkpt lat="44.98208" lon="6.42767">
        <ele>2230.2</ele>
        <time>2024-08-11T06:47:44Z</time>
      </trkpt>
      <trkpt lat="44.98208" lon="6.42771">
        <ele>2230</ele>
        <time>2024-08-11T06:47:45Z</time>
      </trkpt>
      <trkpt lat="44.98208" lon="6.42771">
        <ele>2230.2</ele>
        <time>2024-08-11T06:47:46Z</time>
      </trkpt>
      <trkpt lat="44.98206" lon="6.42776">
        <ele>2230</ele>
        <time>2024-08-11T06:47:47Z</time>
      </trkpt>
      <trkpt lat="44.98206" lon="6.42777">
        <ele>2229.8</ele>
        <time>2024-08-11T06:47:48Z</time>
      </trkpt>
      <trkpt lat="44.98205" lon="6.42778">
        <ele>2229.4</ele>
        <time>2024-08-11T06:47:49Z</time>
      </trkpt>
      <trkpt lat="44.98205" lon="6.42779">
        <ele>2229.4</ele>
        <time>2024-08-11T06:47:50Z</time>
      </trkpt>
      <trkpt lat="44.98204" lon="6.4278">
        <ele>2229.6</ele>
        <time>2024-08-11T06:47:51Z</time>
      </trkpt>
      <trkpt lat="44.98204" lon="6.4278">
        <ele>2229.6</ele>
        <time>2024-08-11T06:47:52Z</time>
      </trkpt>
      <trkpt lat="44.98202" lon="6.42782">
        <ele>2229</ele>
        <time>2024-08-11T06:47:53Z</time>
      </trkpt>
      <trkpt lat="44.98202" lon="6.42782">
        <ele>2229</ele>
        <time>2024-08-11T06:47:54Z</time>
      </trkpt>
      <trkpt lat="44.982" lon="6.42786">
        <ele>2229</ele>
        <time>2024-08-11T06:47:55Z</time>
      </trkpt>
      <trkpt lat="44.982" lon="6.42786">
        <ele>2229</ele>
        <time>2024-08-11T06:47:56Z</time>
      </trkpt>
      <trkpt lat="44.98199" lon="6.42789">
        <ele>2228.6</ele>
        <time>2024-08-11T06:47:57Z</time>
      </trkpt>
      <trkpt lat="44.98199" lon="6.42789">
        <ele>2228.6</ele>
        <time>2024-08-11T06:47:58Z</time>
      </trkpt>
      <trkpt lat="44.98198" lon="6.42793">
        <ele>2228.6</ele>
        <time>2024-08-11T06:47:59Z</time>
      </trkpt>
      <trkpt lat="44.98198" lon="6.42793">
        <ele>2229</ele>
        <time>2024-08-11T06:48:00Z</time>
      </trkpt>
      <trkpt lat="44.98197" lon="6.42797">
        <ele>2229</ele>
        <time>2024-08-11T06:48:01Z</time>
      </trkpt>
      <trkpt lat="44.98197" lon="6.42797">
        <ele>2228.8</ele>
        <time>2024-08-11T06:48:02Z</time>
      </trkpt>
      <trkpt lat="44.98197" lon="6.42801">
        <ele>2228.8</ele>
        <time>2024-08-11T06:48:03Z</time>
      </trkpt>
      <trkpt lat="44.98197" lon="6.42801">
        <ele>2229</ele>
        <time>2024-08-11T06:48:04Z</time>
      </trkpt>
      <trkpt lat="44.98196" lon="6.42805">
        <ele>2229</ele>
        <time>2024-08-11T06:48:05Z</time>
      </trkpt>
      <trkpt lat="44.98196" lon="6.42805">
        <ele>2229</ele>
        <time>2024-08-11T06:48:06Z</time>
      </trkpt>
      <trkpt lat="44.98195" lon="6.42809">
        <ele>2229.2</ele>
        <time>2024-08-11T06:48:07Z</time>
      </trkpt>
      <trkpt lat="44.98195" lon="6.42809">
        <ele>2229.4</ele>
        <time>2024-08-11T06:48:08Z</time>
      </trkpt>
      <trkpt lat="44.98194" lon="6.42813">
        <ele>2229.4</ele>
        <time>2024-08-11T06:48:09Z</time>
      </trkpt>
      <trkpt lat="44.98194" lon="6.42813">
        <ele>2229.4</ele>
        <time>2024-08-11T06:48:10Z</time>
      </trkpt>
      <trkpt lat="44.98193" lon="6.42816">
        <ele>2229.4</ele>
        <time>2024-08-11T06:48:11Z</time>
      </trkpt>
      <trkpt lat="44.98193" lon="6.42816">
        <ele>2229.4</ele>
        <time>2024-08-11T06:48:12Z</time>
      </trkpt>
      <trkpt lat="44.98193" lon="6.4282">
        <ele>2229.6</ele>
        <time>2024-08-11T06:48:13Z</time>
      </trkpt>
      <trkpt lat="44.98193" lon="6.4282">
        <ele>2229.6</ele>
        <time>2024-08-11T06:48:14Z</time>
      </trkpt>
      <trkpt lat="44.98191" lon="6.42823">
        <ele>2229.6</ele>
        <time>2024-08-11T06:48:15Z</time>
      </trkpt>
      <trkpt lat="44.98191" lon="6.42823">
        <ele>2229.6</ele>
        <time>2024-08-11T06:48:16Z</time>
      </trkpt>
      <trkpt lat="44.9819" lon="6.42827">
        <ele>2229.2</ele>
        <time>2024-08-11T06:48:17Z</time>
      </trkpt>
      <trkpt lat="44.9819" lon="6.42827">
        <ele>2229.2</ele>
        <time>2024-08-11T06:48:18Z</time>
      </trkpt>
      <trkpt lat="44.9819" lon="6.42827">
        <ele>2229.2</ele>
        <time>2024-08-11T06:48:19Z</time>
      </trkpt>
      <trkpt lat="44.98189" lon="6.42831">
        <ele>2228.4</ele>
        <time>2024-08-11T06:48:20Z</time>
      </trkpt>
      <trkpt lat="44.98189" lon="6.42833">
        <ele>2228.4</ele>
        <time>2024-08-11T06:48:21Z</time>
      </trkpt>
      <trkpt lat="44.98189" lon="6.42833">
        <ele>2228.8</ele>
        <time>2024-08-11T06:48:22Z</time>
      </trkpt>
      <trkpt lat="44.98188" lon="6.42836">
        <ele>2228.8</ele>
        <time>2024-08-11T06:48:23Z</time>
      </trkpt>
      <trkpt lat="44.98188" lon="6.42836">
        <ele>2228.4</ele>
        <time>2024-08-11T06:48:24Z</time>
      </trkpt>
      <trkpt lat="44.98188" lon="6.42839">
        <ele>2228</ele>
        <time>2024-08-11T06:48:25Z</time>
      </trkpt>
      <trkpt lat="44.98188" lon="6.42839">
        <ele>2227.8</ele>
        <time>2024-08-11T06:48:26Z</time>
      </trkpt>
      <trkpt lat="44.98187" lon="6.42843">
        <ele>2227.8</ele>
        <time>2024-08-11T06:48:27Z</time>
      </trkpt>
      <trkpt lat="44.98187" lon="6.42843">
        <ele>2227.8</ele>
        <time>2024-08-11T06:48:28Z</time>
      </trkpt>
      <trkpt lat="44.98187" lon="6.42847">
        <ele>2227.8</ele>
        <time>2024-08-11T06:48:29Z</time>
      </trkpt>
      <trkpt lat="44.98187" lon="6.42847">
        <ele>2227.6</ele>
        <time>2024-08-11T06:48:30Z</time>
      </trkpt>
      <trkpt lat="44.98186" lon="6.42851">
        <ele>2227.4</ele>
        <time>2024-08-11T06:48:31Z</time>
      </trkpt>
      <trkpt lat="44.98186" lon="6.42851">
        <ele>2227.4</ele>
        <time>2024-08-11T06:48:32Z</time>
      </trkpt>
      <trkpt lat="44.98185" lon="6.42855">
        <ele>2227.4</ele>
        <time>2024-08-11T06:48:33Z</time>
      </trkpt>
      <trkpt lat="44.98185" lon="6.42855">
        <ele>2227.6</ele>
        <time>2024-08-11T06:48:34Z</time>
      </trkpt>
      <trkpt lat="44.98184" lon="6.42858">
        <ele>2227.6</ele>
        <time>2024-08-11T06:48:35Z</time>
      </trkpt>
      <trkpt lat="44.98184" lon="6.42858">
        <ele>2227.4</ele>
        <time>2024-08-11T06:48:36Z</time>
      </trkpt>
      <trkpt lat="44.98183" lon="6.42861">
        <ele>2227.2</ele>
        <time>2024-08-11T06:48:37Z</time>
      </trkpt>
      <trkpt lat="44.98183" lon="6.42861">
        <ele>2227.2</ele>
        <time>2024-08-11T06:48:38Z</time>
      </trkpt>
      <trkpt lat="44.98183" lon="6.42861">
        <ele>2227.2</ele>
        <time>2024-08-11T06:48:39Z</time>
      </trkpt>
      <trkpt lat="44.98181" lon="6.42866">
        <ele>2227.2</ele>
        <time>2024-08-11T06:48:40Z</time>
      </trkpt>
      <trkpt lat="44.98181" lon="6.42867">
        <ele>2227.2</ele>
        <time>2024-08-11T06:48:41Z</time>
      </trkpt>
      <trkpt lat="44.98181" lon="6.42867">
        <ele>2227.2</ele>
        <time>2024-08-11T06:48:42Z</time>
      </trkpt>
      <trkpt lat="44.98179" lon="6.42871">
        <ele>2227</ele>
        <time>2024-08-11T06:48:43Z</time>
      </trkpt>
      <trkpt lat="44.98179" lon="6.42871">
        <ele>2227</ele>
        <time>2024-08-11T06:48:44Z</time>
      </trkpt>
      <trkpt lat="44.98179" lon="6.42871">
        <ele>2227</ele>
        <time>2024-08-11T06:48:45Z</time>
      </trkpt>
      <trkpt lat="44.98178" lon="6.42876">
        <ele>2227</ele>
        <time>2024-08-11T06:48:46Z</time>
      </trkpt>
      <trkpt lat="44.98177" lon="6.42878">
        <ele>2227</ele>
        <time>2024-08-11T06:48:47Z</time>
      </trkpt>
      <trkpt lat="44.98177" lon="6.42878">
        <ele>2226.8</ele>
        <time>2024-08-11T06:48:48Z</time>
      </trkpt>
      <trkpt lat="44.98175" lon="6.4288">
        <ele>2226.2</ele>
        <time>2024-08-11T06:48:49Z</time>
      </trkpt>
      <trkpt lat="44.98175" lon="6.4288">
        <ele>2226.2</ele>
        <time>2024-08-11T06:48:50Z</time>
      </trkpt>
      <trkpt lat="44.98175" lon="6.4288">
        <ele>2226</ele>
        <time>2024-08-11T06:48:51Z</time>
      </trkpt>
      <trkpt lat="44.98173" lon="6.42884">
        <ele>2225.8</ele>
        <time>2024-08-11T06:48:52Z</time>
      </trkpt>
      <trkpt lat="44.98173" lon="6.42886">
        <ele>2225.8</ele>
        <time>2024-08-11T06:48:53Z</time>
      </trkpt>
      <trkpt lat="44.98173" lon="6.42886">
        <ele>2225.8</ele>
        <time>2024-08-11T06:48:54Z</time>
      </trkpt>
      <trkpt lat="44.98172" lon="6.4289">
        <ele>2225.8</ele>
        <time>2024-08-11T06:48:55Z</time>
      </trkpt>
      <trkpt lat="44.98172" lon="6.4289">
        <ele>2225.6</ele>
        <time>2024-08-11T06:48:56Z</time>
      </trkpt>
      <trkpt lat="44.98172" lon="6.4289">
        <ele>2225.4</ele>
        <time>2024-08-11T06:48:57Z</time>
      </trkpt>
      <trkpt lat="44.98172" lon="6.42895">
        <ele>2225.4</ele>
        <time>2024-08-11T06:48:58Z</time>
      </trkpt>
      <trkpt lat="44.98171" lon="6.42897">
        <ele>2225.4</ele>
        <time>2024-08-11T06:48:59Z</time>
      </trkpt>
      <trkpt lat="44.98171" lon="6.42897">
        <ele>2225.2</ele>
        <time>2024-08-11T06:49:00Z</time>
      </trkpt>
      <trkpt lat="44.98172" lon="6.429">
        <ele>2225.2</ele>
        <time>2024-08-11T06:49:01Z</time>
      </trkpt>
      <trkpt lat="44.98172" lon="6.429">
        <ele>2225</ele>
        <time>2024-08-11T06:49:02Z</time>
      </trkpt>
      <trkpt lat="44.98171" lon="6.42904">
        <ele>2225</ele>
        <time>2024-08-11T06:49:03Z</time>
      </trkpt>
      <trkpt lat="44.98171" lon="6.42904">
        <ele>2225</ele>
        <time>2024-08-11T06:49:04Z</time>
      </trkpt>
      <trkpt lat="44.98171" lon="6.42908">
        <ele>2224.6</ele>
        <time>2024-08-11T06:49:05Z</time>
      </trkpt>
      <trkpt lat="44.98171" lon="6.42908">
        <ele>2224.4</ele>
        <time>2024-08-11T06:49:06Z</time>
      </trkpt>
      <trkpt lat="44.98171" lon="6.42912">
        <ele>2224.4</ele>
        <time>2024-08-11T06:49:07Z</time>
      </trkpt>
      <trkpt lat="44.98171" lon="6.42913">
        <ele>2224.4</ele>
        <time>2024-08-11T06:49:08Z</time>
      </trkpt>
      <trkpt lat="44.98171" lon="6.42913">
        <ele>2224.2</ele>
        <time>2024-08-11T06:49:09Z</time>
      </trkpt>
      <trkpt lat="44.98171" lon="6.42913">
        <ele>2224</ele>
        <time>2024-08-11T06:49:10Z</time>
      </trkpt>
      <trkpt lat="44.98169" lon="6.42916">
        <ele>2224.2</ele>
        <time>2024-08-11T06:49:11Z</time>
      </trkpt>
      <trkpt lat="44.98169" lon="6.42916">
        <ele>2224</ele>
        <time>2024-08-11T06:49:12Z</time>
      </trkpt>
      <trkpt lat="44.98167" lon="6.42918">
        <ele>2224</ele>
        <time>2024-08-11T06:49:13Z</time>
      </trkpt>
      <trkpt lat="44.98167" lon="6.42918">
        <ele>2223.6</ele>
        <time>2024-08-11T06:49:14Z</time>
      </trkpt>
      <trkpt lat="44.98167" lon="6.42918">
        <ele>2223.6</ele>
        <time>2024-08-11T06:49:15Z</time>
      </trkpt>
      <trkpt lat="44.98165" lon="6.42922">
        <ele>2223.4</ele>
        <time>2024-08-11T06:49:16Z</time>
      </trkpt>
      <trkpt lat="44.98165" lon="6.42924">
        <ele>2223</ele>
        <time>2024-08-11T06:49:17Z</time>
      </trkpt>
      <trkpt lat="44.98165" lon="6.42924">
        <ele>2223</ele>
        <time>2024-08-11T06:49:18Z</time>
      </trkpt>
      <trkpt lat="44.98163" lon="6.42927">
        <ele>2222.8</ele>
        <time>2024-08-11T06:49:19Z</time>
      </trkpt>
      <trkpt lat="44.98163" lon="6.42927">
        <ele>2222.6</ele>
        <time>2024-08-11T06:49:20Z</time>
      </trkpt>
      <trkpt lat="44.98163" lon="6.42927">
        <ele>2222.4</ele>
        <time>2024-08-11T06:49:21Z</time>
      </trkpt>
      <trkpt lat="44.98163" lon="6.42932">
        <ele>2222.4</ele>
        <time>2024-08-11T06:49:22Z</time>
      </trkpt>
      <trkpt lat="44.98163" lon="6.42934">
        <ele>2222.2</ele>
        <time>2024-08-11T06:49:23Z</time>
      </trkpt>
      <trkpt lat="44.98163" lon="6.42934">
        <ele>2222</ele>
        <time>2024-08-11T06:49:24Z</time>
      </trkpt>
      <trkpt lat="44.98162" lon="6.42937">
        <ele>2221.6</ele>
        <time>2024-08-11T06:49:25Z</time>
      </trkpt>
      <trkpt lat="44.98162" lon="6.42937">
        <ele>2221.6</ele>
        <time>2024-08-11T06:49:26Z</time>
      </trkpt>
      <trkpt lat="44.98162" lon="6.42937">
        <ele>2221.4</ele>
        <time>2024-08-11T06:49:27Z</time>
      </trkpt>
      <trkpt lat="44.98161" lon="6.4294">
        <ele>2221.4</ele>
        <time>2024-08-11T06:49:28Z</time>
      </trkpt>
      <trkpt lat="44.98161" lon="6.4294">
        <ele>2221.2</ele>
        <time>2024-08-11T06:49:29Z</time>
      </trkpt>
      <trkpt lat="44.98161" lon="6.4294">
        <ele>2221</ele>
        <time>2024-08-11T06:49:30Z</time>
      </trkpt>
      <trkpt lat="44.98158" lon="6.42941">
        <ele>2220.6</ele>
        <time>2024-08-11T06:49:31Z</time>
      </trkpt>
      <trkpt lat="44.98157" lon="6.42941">
        <ele>2219.8</ele>
        <time>2024-08-11T06:49:32Z</time>
      </trkpt>
      <trkpt lat="44.98157" lon="6.42941">
        <ele>2219.4</ele>
        <time>2024-08-11T06:49:33Z</time>
      </trkpt>
      <trkpt lat="44.98157" lon="6.42941">
        <ele>2219.4</ele>
        <time>2024-08-11T06:49:34Z</time>
      </trkpt>
      <trkpt lat="44.98157" lon="6.42941">
        <ele>2219.2</ele>
        <time>2024-08-11T06:49:35Z</time>
      </trkpt>
      <trkpt lat="44.98157" lon="6.42947">
        <ele>2219.2</ele>
        <time>2024-08-11T06:49:36Z</time>
      </trkpt>
      <trkpt lat="44.98157" lon="6.42949">
        <ele>2218.8</ele>
        <time>2024-08-11T06:49:37Z</time>
      </trkpt>
      <trkpt lat="44.98157" lon="6.42949">
        <ele>2218.2</ele>
        <time>2024-08-11T06:49:38Z</time>
      </trkpt>
      <trkpt lat="44.98156" lon="6.42952">
        <ele>2217.8</ele>
        <time>2024-08-11T06:49:39Z</time>
      </trkpt>
      <trkpt lat="44.98156" lon="6.42952">
        <ele>2217.4</ele>
        <time>2024-08-11T06:49:40Z</time>
      </trkpt>
      <trkpt lat="44.98156" lon="6.42952">
        <ele>2217.2</ele>
        <time>2024-08-11T06:49:41Z</time>
      </trkpt>
      <trkpt lat="44.98154" lon="6.42955">
        <ele>2216.8</ele>
        <time>2024-08-11T06:49:42Z</time>
      </trkpt>
      <trkpt lat="44.98154" lon="6.42955">
        <ele>2216.4</ele>
        <time>2024-08-11T06:49:43Z</time>
      </trkpt>
      <trkpt lat="44.98152" lon="6.42958">
        <ele>2216.2</ele>
        <time>2024-08-11T06:49:44Z</time>
      </trkpt>
      <trkpt lat="44.98152" lon="6.42958">
        <ele>2215.6</ele>
        <time>2024-08-11T06:49:45Z</time>
      </trkpt>
      <trkpt lat="44.98151" lon="6.42959">
        <ele>2215.2</ele>
        <time>2024-08-11T06:49:46Z</time>
      </trkpt>
      <trkpt lat="44.98151" lon="6.42959">
        <ele>2214.6</ele>
        <time>2024-08-11T06:49:47Z</time>
      </trkpt>
      <trkpt lat="44.98151" lon="6.42959">
        <ele>2214.4</ele>
        <time>2024-08-11T06:49:48Z</time>
      </trkpt>
      <trkpt lat="44.98149" lon="6.42963">
        <ele>2214.2</ele>
        <time>2024-08-11T06:49:49Z</time>
      </trkpt>
      <trkpt lat="44.98149" lon="6.42965">
        <ele>2214.2</ele>
        <time>2024-08-11T06:49:50Z</time>
      </trkpt>
      <trkpt lat="44.98149" lon="6.42965">
        <ele>2213.8</ele>
        <time>2024-08-11T06:49:51Z</time>
      </trkpt>
      <trkpt lat="44.98146" lon="6.42967">
        <ele>2213.6</ele>
        <time>2024-08-11T06:49:52Z</time>
      </trkpt>
      <trkpt lat="44.98146" lon="6.42967">
        <ele>2213.2</ele>
        <time>2024-08-11T06:49:53Z</time>
      </trkpt>
      <trkpt lat="44.98146" lon="6.4297">
        <ele>2213</ele>
        <time>2024-08-11T06:49:54Z</time>
      </trkpt>
      <trkpt lat="44.98146" lon="6.4297">
        <ele>2212.4</ele>
        <time>2024-08-11T06:49:55Z</time>
      </trkpt>
      <trkpt lat="44.98146" lon="6.4297">
        <ele>2212</ele>
        <time>2024-08-11T06:49:56Z</time>
      </trkpt>
      <trkpt lat="44.98147" lon="6.42975">
        <ele>2212</ele>
        <time>2024-08-11T06:49:57Z</time>
      </trkpt>
      <trkpt lat="44.98147" lon="6.42977">
        <ele>2212.2</ele>
        <time>2024-08-11T06:49:58Z</time>
      </trkpt>
      <trkpt lat="44.98147" lon="6.42977">
        <ele>2212.4</ele>
        <time>2024-08-11T06:49:59Z</time>
      </trkpt>
      <trkpt lat="44.98147" lon="6.42977">
        <ele>2212.4</ele>
        <time>2024-08-11T06:50:00Z</time>
      </trkpt>
      <trkpt lat="44.98148" lon="6.42982">
        <ele>2212.2</ele>
        <time>2024-08-11T06:50:01Z</time>
      </trkpt>
      <trkpt lat="44.98148" lon="6.42982">
        <ele>2211.6</ele>
        <time>2024-08-11T06:50:02Z</time>
      </trkpt>
      <trkpt lat="44.98148" lon="6.42985">
        <ele>2211.6</ele>
        <time>2024-08-11T06:50:03Z</time>
      </trkpt>
      <trkpt lat="44.98149" lon="6.42986">
        <ele>2211.4</ele>
        <time>2024-08-11T06:50:04Z</time>
      </trkpt>
      <trkpt lat="44.98149" lon="6.42986">
        <ele>2211.2</ele>
        <time>2024-08-11T06:50:05Z</time>
      </trkpt>
      <trkpt lat="44.98148" lon="6.42989">
        <ele>2211.2</ele>
        <time>2024-08-11T06:50:06Z</time>
      </trkpt>
      <trkpt lat="44.98148" lon="6.42989">
        <ele>2211</ele>
        <time>2024-08-11T06:50:07Z</time>
      </trkpt>
      <trkpt lat="44.98147" lon="6.42992">
        <ele>2210.8</ele>
        <time>2024-08-11T06:50:08Z</time>
      </trkpt>
      <trkpt lat="44.98147" lon="6.42992">
        <ele>2210.6</ele>
        <time>2024-08-11T06:50:09Z</time>
      </trkpt>
      <trkpt lat="44.98145" lon="6.42994">
        <ele>2210.4</ele>
        <time>2024-08-11T06:50:10Z</time>
      </trkpt>
      <trkpt lat="44.98145" lon="6.42994">
        <ele>2210.4</ele>
        <time>2024-08-11T06:50:11Z</time>
      </trkpt>
      <trkpt lat="44.98145" lon="6.42994">
        <ele>2210.2</ele>
        <time>2024-08-11T06:50:12Z</time>
      </trkpt>
      <trkpt lat="44.98144" lon="6.42998">
        <ele>2210</ele>
        <time>2024-08-11T06:50:13Z</time>
      </trkpt>
      <trkpt lat="44.98145" lon="6.42999">
        <ele>2210</ele>
        <time>2024-08-11T06:50:14Z</time>
      </trkpt>
      <trkpt lat="44.98145" lon="6.42999">
        <ele>2210</ele>
        <time>2024-08-11T06:50:15Z</time>
      </trkpt>
      <trkpt lat="44.98146" lon="6.43002">
        <ele>2209.8</ele>
        <time>2024-08-11T06:50:16Z</time>
      </trkpt>
      <trkpt lat="44.98146" lon="6.43002">
        <ele>2209.4</ele>
        <time>2024-08-11T06:50:17Z</time>
      </trkpt>
      <trkpt lat="44.98147" lon="6.43005">
        <ele>2209.4</ele>
        <time>2024-08-11T06:50:18Z</time>
      </trkpt>
      <trkpt lat="44.98147" lon="6.43005">
        <ele>2209.2</ele>
        <time>2024-08-11T06:50:19Z</time>
      </trkpt>
      <trkpt lat="44.98147" lon="6.43005">
        <ele>2208.8</ele>
        <time>2024-08-11T06:50:20Z</time>
      </trkpt>
      <trkpt lat="44.98148" lon="6.4301">
        <ele>2208.6</ele>
        <time>2024-08-11T06:50:21Z</time>
      </trkpt>
      <trkpt lat="44.98148" lon="6.43011">
        <ele>2208.2</ele>
        <time>2024-08-11T06:50:22Z</time>
      </trkpt>
      <trkpt lat="44.98148" lon="6.43011">
        <ele>2207.8</ele>
        <time>2024-08-11T06:50:23Z</time>
      </trkpt>
      <trkpt lat="44.98148" lon="6.43014">
        <ele>2207.8</ele>
        <time>2024-08-11T06:50:24Z</time>
      </trkpt>
      <trkpt lat="44.98148" lon="6.43014">
        <ele>2207.8</ele>
        <time>2024-08-11T06:50:25Z</time>
      </trkpt>
      <trkpt lat="44.98148" lon="6.43014">
        <ele>2207.6</ele>
        <time>2024-08-11T06:50:26Z</time>
      </trkpt>
      <trkpt lat="44.98148" lon="6.43018">
        <ele>2207.6</ele>
        <time>2024-08-11T06:50:27Z</time>
      </trkpt>
      <trkpt lat="44.98148" lon="6.43018">
        <ele>2207.4</ele>
        <time>2024-08-11T06:50:28Z</time>
      </trkpt>
      <trkpt lat="44.98147" lon="6.4302">
        <ele>2207</ele>
        <time>2024-08-11T06:50:29Z</time>
      </trkpt>
      <trkpt lat="44.98147" lon="6.4302">
        <ele>2207</ele>
        <time>2024-08-11T06:50:30Z</time>
      </trkpt>
      <trkpt lat="44.98146" lon="6.43022">
        <ele>2207</ele>
        <time>2024-08-11T06:50:31Z</time>
      </trkpt>
      <trkpt lat="44.98146" lon="6.43022">
        <ele>2206.8</ele>
        <time>2024-08-11T06:50:32Z</time>
      </trkpt>
      <trkpt lat="44.98144" lon="6.43024">
        <ele>2206.2</ele>
        <time>2024-08-11T06:50:33Z</time>
      </trkpt>
      <trkpt lat="44.98144" lon="6.43024">
        <ele>2205.8</ele>
        <time>2024-08-11T06:50:34Z</time>
      </trkpt>
      <trkpt lat="44.98143" lon="6.43027">
        <ele>2205.4</ele>
        <time>2024-08-11T06:50:35Z</time>
      </trkpt>
      <trkpt lat="44.98143" lon="6.43027">
        <ele>2205</ele>
        <time>2024-08-11T06:50:36Z</time>
      </trkpt>
      <trkpt lat="44.98143" lon="6.4303">
        <ele>2204.4</ele>
        <time>2024-08-11T06:50:37Z</time>
      </trkpt>
      <trkpt lat="44.98143" lon="6.4303">
        <ele>2204</ele>
        <time>2024-08-11T06:50:38Z</time>
      </trkpt>
      <trkpt lat="44.98142" lon="6.43033">
        <ele>2204</ele>
        <time>2024-08-11T06:50:39Z</time>
      </trkpt>
      <trkpt lat="44.98142" lon="6.43033">
        <ele>2203.8</ele>
        <time>2024-08-11T06:50:40Z</time>
      </trkpt>
      <trkpt lat="44.98141" lon="6.43037">
        <ele>2203.8</ele>
        <time>2024-08-11T06:50:41Z</time>
      </trkpt>
      <trkpt lat="44.98141" lon="6.43037">
        <ele>2203.6</ele>
        <time>2024-08-11T06:50:42Z</time>
      </trkpt>
      <trkpt lat="44.98142" lon="6.4304">
        <ele>2203.6</ele>
        <time>2024-08-11T06:50:43Z</time>
      </trkpt>
      <trkpt lat="44.98142" lon="6.4304">
        <ele>2203.6</ele>
        <time>2024-08-11T06:50:44Z</time>
      </trkpt>
      <trkpt lat="44.98143" lon="6.43043">
        <ele>2203</ele>
        <time>2024-08-11T06:50:45Z</time>
      </trkpt>
      <trkpt lat="44.98143" lon="6.43043">
        <ele>2203</ele>
        <time>2024-08-11T06:50:46Z</time>
      </trkpt>
      <trkpt lat="44.98143" lon="6.43043">
        <ele>2203</ele>
        <time>2024-08-11T06:50:47Z</time>
      </trkpt>
      <trkpt lat="44.98142" lon="6.43048">
        <ele>2203</ele>
        <time>2024-08-11T06:50:48Z</time>
      </trkpt>
      <trkpt lat="44.98141" lon="6.4305">
        <ele>2202.8</ele>
        <time>2024-08-11T06:50:49Z</time>
      </trkpt>
      <trkpt lat="44.98141" lon="6.4305">
        <ele>2202.8</ele>
        <time>2024-08-11T06:50:50Z</time>
      </trkpt>
      <trkpt lat="44.98141" lon="6.43053">
        <ele>2202.8</ele>
        <time>2024-08-11T06:50:51Z</time>
      </trkpt>
      <trkpt lat="44.98141" lon="6.43053">
        <ele>2202.6</ele>
        <time>2024-08-11T06:50:52Z</time>
      </trkpt>
      <trkpt lat="44.98139" lon="6.43056">
        <ele>2202.6</ele>
        <time>2024-08-11T06:50:53Z</time>
      </trkpt>
      <trkpt lat="44.98139" lon="6.43056">
        <ele>2202.4</ele>
        <time>2024-08-11T06:50:54Z</time>
      </trkpt>
      <trkpt lat="44.9814" lon="6.43059">
        <ele>2202.2</ele>
        <time>2024-08-11T06:50:55Z</time>
      </trkpt>
      <trkpt lat="44.9814" lon="6.43059">
        <ele>2202.2</ele>
        <time>2024-08-11T06:50:56Z</time>
      </trkpt>
      <trkpt lat="44.9814" lon="6.43061">
        <ele>2202.2</ele>
        <time>2024-08-11T06:50:57Z</time>
      </trkpt>
      <trkpt lat="44.9814" lon="6.43061">
        <ele>2202.2</ele>
        <time>2024-08-11T06:50:58Z</time>
      </trkpt>
      <trkpt lat="44.9814" lon="6.43061">
        <ele>2201.8</ele>
        <time>2024-08-11T06:50:59Z</time>
      </trkpt>
      <trkpt lat="44.98141" lon="6.43065">
        <ele>2201.6</ele>
        <time>2024-08-11T06:51:00Z</time>
      </trkpt>
      <trkpt lat="44.98141" lon="6.43065">
        <ele>2201.4</ele>
        <time>2024-08-11T06:51:01Z</time>
      </trkpt>
      <trkpt lat="44.98141" lon="6.43065">
        <ele>2201.4</ele>
        <time>2024-08-11T06:51:02Z</time>
      </trkpt>
      <trkpt lat="44.98139" lon="6.43069">
        <ele>2201.4</ele>
        <time>2024-08-11T06:51:03Z</time>
      </trkpt>
      <trkpt lat="44.98137" lon="6.4307">
        <ele>2201.4</ele>
        <time>2024-08-11T06:51:04Z</time>
      </trkpt>
      <trkpt lat="44.98137" lon="6.4307">
        <ele>2201</ele>
        <time>2024-08-11T06:51:05Z</time>
      </trkpt>
      <trkpt lat="44.98137" lon="6.4307">
        <ele>2200.6</ele>
        <time>2024-08-11T06:51:06Z</time>
      </trkpt>
      <trkpt lat="44.98135" lon="6.43074">
        <ele>2200.4</ele>
        <time>2024-08-11T06:51:07Z</time>
      </trkpt>
      <trkpt lat="44.98135" lon="6.43075">
        <ele>2200.2</ele>
        <time>2024-08-11T06:51:08Z</time>
      </trkpt>
      <trkpt lat="44.98135" lon="6.43075">
        <ele>2200.2</ele>
        <time>2024-08-11T06:51:09Z</time>
      </trkpt>
      <trkpt lat="44.98135" lon="6.43075">
        <ele>2200.2</ele>
        <time>2024-08-11T06:51:10Z</time>
      </trkpt>
      <trkpt lat="44.98135" lon="6.4308">
        <ele>2200</ele>
        <time>2024-08-11T06:51:11Z</time>
      </trkpt>
      <trkpt lat="44.98135" lon="6.4308">
        <ele>2199.8</ele>
        <time>2024-08-11T06:51:12Z</time>
      </trkpt>
      <trkpt lat="44.98135" lon="6.43083">
        <ele>2199.2</ele>
        <time>2024-08-11T06:51:13Z</time>
      </trkpt>
      <trkpt lat="44.98135" lon="6.43083">
        <ele>2199</ele>
        <time>2024-08-11T06:51:14Z</time>
      </trkpt>
      <trkpt lat="44.98135" lon="6.43083">
        <ele>2199</ele>
        <time>2024-08-11T06:51:15Z</time>
      </trkpt>
      <trkpt lat="44.98134" lon="6.43088">
        <ele>2199</ele>
        <time>2024-08-11T06:51:16Z</time>
      </trkpt>
      <trkpt lat="44.98134" lon="6.43089">
        <ele>2199</ele>
        <time>2024-08-11T06:51:17Z</time>
      </trkpt>
      <trkpt lat="44.98134" lon="6.43089">
        <ele>2199</ele>
        <time>2024-08-11T06:51:18Z</time>
      </trkpt>
      <trkpt lat="44.98132" lon="6.43092">
        <ele>2198.8</ele>
        <time>2024-08-11T06:51:19Z</time>
      </trkpt>
      <trkpt lat="44.98132" lon="6.43092">
        <ele>2198.6</ele>
        <time>2024-08-11T06:51:20Z</time>
      </trkpt>
      <trkpt lat="44.98132" lon="6.43092">
        <ele>2198.4</ele>
        <time>2024-08-11T06:51:21Z</time>
      </trkpt>
      <trkpt lat="44.98131" lon="6.43096">
        <ele>2198.4</ele>
        <time>2024-08-11T06:51:22Z</time>
      </trkpt>
      <trkpt lat="44.98131" lon="6.43096">
        <ele>2198.4</ele>
        <time>2024-08-11T06:51:23Z</time>
      </trkpt>
      <trkpt lat="44.98131" lon="6.431">
        <ele>2198.2</ele>
        <time>2024-08-11T06:51:24Z</time>
      </trkpt>
      <trkpt lat="44.98131" lon="6.43102">
        <ele>2198</ele>
        <time>2024-08-11T06:51:25Z</time>
      </trkpt>
      <trkpt lat="44.98131" lon="6.43102">
        <ele>2198</ele>
        <time>2024-08-11T06:51:26Z</time>
      </trkpt>
      <trkpt lat="44.98129" lon="6.43105">
        <ele>2197.6</ele>
        <time>2024-08-11T06:51:27Z</time>
      </trkpt>
      <trkpt lat="44.98129" lon="6.43105">
        <ele>2197.4</ele>
        <time>2024-08-11T06:51:28Z</time>
      </trkpt>
      <trkpt lat="44.98129" lon="6.43105">
        <ele>2197.2</ele>
        <time>2024-08-11T06:51:29Z</time>
      </trkpt>
      <trkpt lat="44.98127" lon="6.4311">
        <ele>2197.2</ele>
        <time>2024-08-11T06:51:30Z</time>
      </trkpt>
      <trkpt lat="44.98127" lon="6.43112">
        <ele>2196.8</ele>
        <time>2024-08-11T06:51:31Z</time>
      </trkpt>
      <trkpt lat="44.98127" lon="6.43112">
        <ele>2196.6</ele>
        <time>2024-08-11T06:51:32Z</time>
      </trkpt>
      <trkpt lat="44.98128" lon="6.43115">
        <ele>2196.4</ele>
        <time>2024-08-11T06:51:33Z</time>
      </trkpt>
      <trkpt lat="44.98128" lon="6.43115">
        <ele>2196.2</ele>
        <time>2024-08-11T06:51:34Z</time>
      </trkpt>
      <trkpt lat="44.98128" lon="6.43115">
        <ele>2196.2</ele>
        <time>2024-08-11T06:51:35Z</time>
      </trkpt>
      <trkpt lat="44.98128" lon="6.4312">
        <ele>2196</ele>
        <time>2024-08-11T06:51:36Z</time>
      </trkpt>
      <trkpt lat="44.98128" lon="6.43122">
        <ele>2195.8</ele>
        <time>2024-08-11T06:51:37Z</time>
      </trkpt>
      <trkpt lat="44.98128" lon="6.43122">
        <ele>2195.8</ele>
        <time>2024-08-11T06:51:38Z</time>
      </trkpt>
      <trkpt lat="44.98128" lon="6.43126">
        <ele>2195.4</ele>
        <time>2024-08-11T06:51:39Z</time>
      </trkpt>
      <trkpt lat="44.98128" lon="6.43126">
        <ele>2195.4</ele>
        <time>2024-08-11T06:51:40Z</time>
      </trkpt>
      <trkpt lat="44.98128" lon="6.43129">
        <ele>2195.2</ele>
        <time>2024-08-11T06:51:41Z</time>
      </trkpt>
      <trkpt lat="44.98128" lon="6.43129">
        <ele>2195.2</ele>
        <time>2024-08-11T06:51:42Z</time>
      </trkpt>
      <trkpt lat="44.98128" lon="6.43133">
        <ele>2194.6</ele>
        <time>2024-08-11T06:51:43Z</time>
      </trkpt>
      <trkpt lat="44.98128" lon="6.43133">
        <ele>2194.6</ele>
        <time>2024-08-11T06:51:44Z</time>
      </trkpt>
      <trkpt lat="44.98128" lon="6.43137">
        <ele>2194.6</ele>
        <time>2024-08-11T06:51:45Z</time>
      </trkpt>
      <trkpt lat="44.98128" lon="6.43137">
        <ele>2194.6</ele>
        <time>2024-08-11T06:51:46Z</time>
      </trkpt>
      <trkpt lat="44.98128" lon="6.43141">
        <ele>2194.4</ele>
        <time>2024-08-11T06:51:47Z</time>
      </trkpt>
      <trkpt lat="44.98128" lon="6.43141">
        <ele>2194</ele>
        <time>2024-08-11T06:51:48Z</time>
      </trkpt>
      <trkpt lat="44.98129" lon="6.43145">
        <ele>2194</ele>
        <time>2024-08-11T06:51:49Z</time>
      </trkpt>
      <trkpt lat="44.98129" lon="6.43145">
        <ele>2194</ele>
        <time>2024-08-11T06:51:50Z</time>
      </trkpt>
      <trkpt lat="44.98129" lon="6.43148">
        <ele>2193.6</ele>
        <time>2024-08-11T06:51:51Z</time>
      </trkpt>
      <trkpt lat="44.98129" lon="6.43148">
        <ele>2193.4</ele>
        <time>2024-08-11T06:51:52Z</time>
      </trkpt>
      <trkpt lat="44.98129" lon="6.43148">
        <ele>2193.4</ele>
        <time>2024-08-11T06:51:53Z</time>
      </trkpt>
      <trkpt lat="44.98129" lon="6.43153">
        <ele>2193.2</ele>
        <time>2024-08-11T06:51:54Z</time>
      </trkpt>
      <trkpt lat="44.98129" lon="6.43155">
        <ele>2193.2</ele>
        <time>2024-08-11T06:51:55Z</time>
      </trkpt>
      <trkpt lat="44.98129" lon="6.43155">
        <ele>2193.2</ele>
        <time>2024-08-11T06:51:56Z</time>
      </trkpt>
      <trkpt lat="44.98128" lon="6.43159">
        <ele>2193</ele>
        <time>2024-08-11T06:51:57Z</time>
      </trkpt>
      <trkpt lat="44.98128" lon="6.43159">
        <ele>2193</ele>
        <time>2024-08-11T06:51:58Z</time>
      </trkpt>
      <trkpt lat="44.98128" lon="6.43159">
        <ele>2192.8</ele>
        <time>2024-08-11T06:51:59Z</time>
      </trkpt>
      <trkpt lat="44.98127" lon="6.43164">
        <ele>2192.6</ele>
        <time>2024-08-11T06:52:00Z</time>
      </trkpt>
      <trkpt lat="44.98126" lon="6.43166">
        <ele>2192.6</ele>
        <time>2024-08-11T06:52:01Z</time>
      </trkpt>
      <trkpt lat="44.98126" lon="6.43166">
        <ele>2192.2</ele>
        <time>2024-08-11T06:52:02Z</time>
      </trkpt>
      <trkpt lat="44.98126" lon="6.43166">
        <ele>2192.2</ele>
        <time>2024-08-11T06:52:03Z</time>
      </trkpt>
      <trkpt lat="44.98124" lon="6.43172">
        <ele>2192.4</ele>
        <time>2024-08-11T06:52:04Z</time>
      </trkpt>
      <trkpt lat="44.98124" lon="6.43173">
        <ele>2192.4</ele>
        <time>2024-08-11T06:52:05Z</time>
      </trkpt>
      <trkpt lat="44.98124" lon="6.43173">
        <ele>2192.4</ele>
        <time>2024-08-11T06:52:06Z</time>
      </trkpt>
      <trkpt lat="44.98123" lon="6.43177">
        <ele>2192.2</ele>
        <time>2024-08-11T06:52:07Z</time>
      </trkpt>
      <trkpt lat="44.98123" lon="6.43177">
        <ele>2191.6</ele>
        <time>2024-08-11T06:52:08Z</time>
      </trkpt>
      <trkpt lat="44.98122" lon="6.4318">
        <ele>2191.6</ele>
        <time>2024-08-11T06:52:09Z</time>
      </trkpt>
      <trkpt lat="44.98122" lon="6.4318">
        <ele>2191.4</ele>
        <time>2024-08-11T06:52:10Z</time>
      </trkpt>
      <trkpt lat="44.98122" lon="6.43184">
        <ele>2191.4</ele>
        <time>2024-08-11T06:52:11Z</time>
      </trkpt>
      <trkpt lat="44.98122" lon="6.43184">
        <ele>2191.4</ele>
        <time>2024-08-11T06:52:12Z</time>
      </trkpt>
      <trkpt lat="44.98122" lon="6.43187">
        <ele>2191.2</ele>
        <time>2024-08-11T06:52:13Z</time>
      </trkpt>
      <trkpt lat="44.98122" lon="6.43187">
        <ele>2191.2</ele>
        <time>2024-08-11T06:52:14Z</time>
      </trkpt>
      <trkpt lat="44.98121" lon="6.43191">
        <ele>2191.2</ele>
        <time>2024-08-11T06:52:15Z</time>
      </trkpt>
      <trkpt lat="44.98121" lon="6.43191">
        <ele>2191</ele>
        <time>2024-08-11T06:52:16Z</time>
      </trkpt>
      <trkpt lat="44.98122" lon="6.43194">
        <ele>2191</ele>
        <time>2024-08-11T06:52:17Z</time>
      </trkpt>
      <trkpt lat="44.98122" lon="6.43194">
        <ele>2190.8</ele>
        <time>2024-08-11T06:52:18Z</time>
      </trkpt>
      <trkpt lat="44.98122" lon="6.43197">
        <ele>2190.6</ele>
        <time>2024-08-11T06:52:19Z</time>
      </trkpt>
      <trkpt lat="44.98122" lon="6.43197">
        <ele>2190.4</ele>
        <time>2024-08-11T06:52:20Z</time>
      </trkpt>
      <trkpt lat="44.98122" lon="6.43201">
        <ele>2190.4</ele>
        <time>2024-08-11T06:52:21Z</time>
      </trkpt>
      <trkpt lat="44.98122" lon="6.43201">
        <ele>2190.2</ele>
        <time>2024-08-11T06:52:22Z</time>
      </trkpt>
      <trkpt lat="44.98121" lon="6.43204">
        <ele>2190</ele>
        <time>2024-08-11T06:52:23Z</time>
      </trkpt>
      <trkpt lat="44.98121" lon="6.43204">
        <ele>2189.8</ele>
        <time>2024-08-11T06:52:24Z</time>
      </trkpt>
      <trkpt lat="44.98122" lon="6.43208">
        <ele>2189.6</ele>
        <time>2024-08-11T06:52:25Z</time>
      </trkpt>
      <trkpt lat="44.98122" lon="6.43208">
        <ele>2189.4</ele>
        <time>2024-08-11T06:52:26Z</time>
      </trkpt>
      <trkpt lat="44.98121" lon="6.43211">
        <ele>2189.2</ele>
        <time>2024-08-11T06:52:27Z</time>
      </trkpt>
      <trkpt lat="44.98121" lon="6.43211">
        <ele>2188.8</ele>
        <time>2024-08-11T06:52:28Z</time>
      </trkpt>
      <trkpt lat="44.98119" lon="6.43214">
        <ele>2188.6</ele>
        <time>2024-08-11T06:52:29Z</time>
      </trkpt>
      <trkpt lat="44.98119" lon="6.43214">
        <ele>2188.6</ele>
        <time>2024-08-11T06:52:30Z</time>
      </trkpt>
      <trkpt lat="44.98118" lon="6.43218">
        <ele>2188.6</ele>
        <time>2024-08-11T06:52:31Z</time>
      </trkpt>
      <trkpt lat="44.98118" lon="6.43218">
        <ele>2188.6</ele>
        <time>2024-08-11T06:52:32Z</time>
      </trkpt>
      <trkpt lat="44.98117" lon="6.43221">
        <ele>2188.6</ele>
        <time>2024-08-11T06:52:33Z</time>
      </trkpt>
      <trkpt lat="44.98117" lon="6.43221">
        <ele>2188.2</ele>
        <time>2024-08-11T06:52:34Z</time>
      </trkpt>
      <trkpt lat="44.98117" lon="6.43224">
        <ele>2188</ele>
        <time>2024-08-11T06:52:35Z</time>
      </trkpt>
      <trkpt lat="44.98117" lon="6.43224">
        <ele>2187.8</ele>
        <time>2024-08-11T06:52:36Z</time>
      </trkpt>
      <trkpt lat="44.98116" lon="6.43227">
        <ele>2187.8</ele>
        <time>2024-08-11T06:52:37Z</time>
      </trkpt>
      <trkpt lat="44.98116" lon="6.43227">
        <ele>2187.6</ele>
        <time>2024-08-11T06:52:38Z</time>
      </trkpt>
      <trkpt lat="44.98116" lon="6.43227">
        <ele>2187.6</ele>
        <time>2024-08-11T06:52:39Z</time>
      </trkpt>
      <trkpt lat="44.98114" lon="6.43231">
        <ele>2187.4</ele>
        <time>2024-08-11T06:52:40Z</time>
      </trkpt>
      <trkpt lat="44.98114" lon="6.43233">
        <ele>2187.4</ele>
        <time>2024-08-11T06:52:41Z</time>
      </trkpt>
      <trkpt lat="44.98114" lon="6.43233">
        <ele>2187.2</ele>
        <time>2024-08-11T06:52:42Z</time>
      </trkpt>
      <trkpt lat="44.98113" lon="6.43237">
        <ele>2187.2</ele>
        <time>2024-08-11T06:52:43Z</time>
      </trkpt>
      <trkpt lat="44.98112" lon="6.43238">
        <ele>2186.8</ele>
        <time>2024-08-11T06:52:44Z</time>
      </trkpt>
      <trkpt lat="44.98112" lon="6.4324">
        <ele>2186.8</ele>
        <time>2024-08-11T06:52:45Z</time>
      </trkpt>
      <trkpt lat="44.98112" lon="6.4324">
        <ele>2186.8</ele>
        <time>2024-08-11T06:52:46Z</time>
      </trkpt>
      <trkpt lat="44.98112" lon="6.4324">
        <ele>2186.2</ele>
        <time>2024-08-11T06:52:47Z</time>
      </trkpt>
      <trkpt lat="44.98111" lon="6.43244">
        <ele>2186.2</ele>
        <time>2024-08-11T06:52:48Z</time>
      </trkpt>
      <trkpt lat="44.98111" lon="6.43246">
        <ele>2186</ele>
        <time>2024-08-11T06:52:49Z</time>
      </trkpt>
      <trkpt lat="44.98111" lon="6.43246">
        <ele>2185.8</ele>
        <time>2024-08-11T06:52:50Z</time>
      </trkpt>
      <trkpt lat="44.98111" lon="6.43246">
        <ele>2185.8</ele>
        <time>2024-08-11T06:52:51Z</time>
      </trkpt>
      <trkpt lat="44.98109" lon="6.43251">
        <ele>2185.4</ele>
        <time>2024-08-11T06:52:52Z</time>
      </trkpt>
      <trkpt lat="44.98108" lon="6.43252">
        <ele>2185.4</ele>
        <time>2024-08-11T06:52:53Z</time>
      </trkpt>
      <trkpt lat="44.98108" lon="6.43252">
        <ele>2185.6</ele>
        <time>2024-08-11T06:52:54Z</time>
      </trkpt>
      <trkpt lat="44.98106" lon="6.43255">
        <ele>2185.6</ele>
        <time>2024-08-11T06:52:55Z</time>
      </trkpt>
      <trkpt lat="44.98106" lon="6.43255">
        <ele>2185.4</ele>
        <time>2024-08-11T06:52:56Z</time>
      </trkpt>
      <trkpt lat="44.98105" lon="6.43258">
        <ele>2185.4</ele>
        <time>2024-08-11T06:52:57Z</time>
      </trkpt>
      <trkpt lat="44.98105" lon="6.43258">
        <ele>2185.4</ele>
        <time>2024-08-11T06:52:58Z</time>
      </trkpt>
      <trkpt lat="44.98105" lon="6.43261">
        <ele>2185</ele>
        <time>2024-08-11T06:52:59Z</time>
      </trkpt>
      <trkpt lat="44.98105" lon="6.43261">
        <ele>2184.6</ele>
        <time>2024-08-11T06:53:00Z</time>
      </trkpt>
      <trkpt lat="44.98103" lon="6.43265">
        <ele>2184.4</ele>
        <time>2024-08-11T06:53:01Z</time>
      </trkpt>
      <trkpt lat="44.98103" lon="6.43265">
        <ele>2184</ele>
        <time>2024-08-11T06:53:02Z</time>
      </trkpt>
      <trkpt lat="44.98103" lon="6.43265">
        <ele>2183.8</ele>
        <time>2024-08-11T06:53:03Z</time>
      </trkpt>
      <trkpt lat="44.98102" lon="6.4327">
        <ele>2183.6</ele>
        <time>2024-08-11T06:53:04Z</time>
      </trkpt>
      <trkpt lat="44.98102" lon="6.43272">
        <ele>2183.4</ele>
        <time>2024-08-11T06:53:05Z</time>
      </trkpt>
      <trkpt lat="44.98102" lon="6.43272">
        <ele>2183.2</ele>
        <time>2024-08-11T06:53:06Z</time>
      </trkpt>
      <trkpt lat="44.98102" lon="6.43274">
        <ele>2183.2</ele>
        <time>2024-08-11T06:53:07Z</time>
      </trkpt>
      <trkpt lat="44.98102" lon="6.43274">
        <ele>2183.2</ele>
        <time>2024-08-11T06:53:08Z</time>
      </trkpt>
      <trkpt lat="44.98102" lon="6.43278">
        <ele>2183</ele>
        <time>2024-08-11T06:53:09Z</time>
      </trkpt>
      <trkpt lat="44.98102" lon="6.43278">
        <ele>2182.6</ele>
        <time>2024-08-11T06:53:10Z</time>
      </trkpt>
      <trkpt lat="44.98103" lon="6.43282">
        <ele>2182.2</ele>
        <time>2024-08-11T06:53:11Z</time>
      </trkpt>
      <trkpt lat="44.98103" lon="6.43282">
        <ele>2182.2</ele>
        <time>2024-08-11T06:53:12Z</time>
      </trkpt>
      <trkpt lat="44.98103" lon="6.43285">
        <ele>2182</ele>
        <time>2024-08-11T06:53:13Z</time>
      </trkpt>
      <trkpt lat="44.98103" lon="6.43285">
        <ele>2182.2</ele>
        <time>2024-08-11T06:53:14Z</time>
      </trkpt>
      <trkpt lat="44.98104" lon="6.43288">
        <ele>2182</ele>
        <time>2024-08-11T06:53:15Z</time>
      </trkpt>
      <trkpt lat="44.98104" lon="6.43288">
        <ele>2182</ele>
        <time>2024-08-11T06:53:16Z</time>
      </trkpt>
      <trkpt lat="44.98104" lon="6.43288">
        <ele>2182</ele>
        <time>2024-08-11T06:53:17Z</time>
      </trkpt>
      <trkpt lat="44.98104" lon="6.43294">
        <ele>2181.8</ele>
        <time>2024-08-11T06:53:18Z</time>
      </trkpt>
      <trkpt lat="44.98104" lon="6.43296">
        <ele>2181.6</ele>
        <time>2024-08-11T06:53:19Z</time>
      </trkpt>
      <trkpt lat="44.98104" lon="6.43296">
        <ele>2181.4</ele>
        <time>2024-08-11T06:53:20Z</time>
      </trkpt>
      <trkpt lat="44.98104" lon="6.433">
        <ele>2181.2</ele>
        <time>2024-08-11T06:53:21Z</time>
      </trkpt>
      <trkpt lat="44.98104" lon="6.433">
        <ele>2181.2</ele>
        <time>2024-08-11T06:53:22Z</time>
      </trkpt>
      <trkpt lat="44.98104" lon="6.433">
        <ele>2181</ele>
        <time>2024-08-11T06:53:23Z</time>
      </trkpt>
      <trkpt lat="44.98104" lon="6.43305">
        <ele>2180.8</ele>
        <time>2024-08-11T06:53:24Z</time>
      </trkpt>
      <trkpt lat="44.98104" lon="6.43306">
        <ele>2180.8</ele>
        <time>2024-08-11T06:53:25Z</time>
      </trkpt>
      <trkpt lat="44.98104" lon="6.43306">
        <ele>2180.8</ele>
        <time>2024-08-11T06:53:26Z</time>
      </trkpt>
      <trkpt lat="44.98104" lon="6.4331">
        <ele>2180.6</ele>
        <time>2024-08-11T06:53:27Z</time>
      </trkpt>
      <trkpt lat="44.98104" lon="6.4331">
        <ele>2180.4</ele>
        <time>2024-08-11T06:53:28Z</time>
      </trkpt>
      <trkpt lat="44.98104" lon="6.4331">
        <ele>2180.4</ele>
        <time>2024-08-11T06:53:29Z</time>
      </trkpt>
      <trkpt lat="44.98105" lon="6.43315">
        <ele>2180.4</ele>
        <time>2024-08-11T06:53:30Z</time>
      </trkpt>
      <trkpt lat="44.98105" lon="6.43317">
        <ele>2180.2</ele>
        <time>2024-08-11T06:53:31Z</time>
      </trkpt>
      <trkpt lat="44.98105" lon="6.43317">
        <ele>2180.2</ele>
        <time>2024-08-11T06:53:32Z</time>
      </trkpt>
      <trkpt lat="44.98105" lon="6.43317">
        <ele>2180.4</ele>
        <time>2024-08-11T06:53:33Z</time>
      </trkpt>
      <trkpt lat="44.98105" lon="6.43322">
        <ele>2180.6</ele>
        <time>2024-08-11T06:53:34Z</time>
      </trkpt>
      <trkpt lat="44.98105" lon="6.43322">
        <ele>2180.6</ele>
        <time>2024-08-11T06:53:35Z</time>
      </trkpt>
      <trkpt lat="44.98105" lon="6.43326">
        <ele>2180.4</ele>
        <time>2024-08-11T06:53:36Z</time>
      </trkpt>
      <trkpt lat="44.98105" lon="6.43328">
        <ele>2180.4</ele>
        <time>2024-08-11T06:53:37Z</time>
      </trkpt>
      <trkpt lat="44.98105" lon="6.43328">
        <ele>2180</ele>
        <time>2024-08-11T06:53:38Z</time>
      </trkpt>
      <trkpt lat="44.98104" lon="6.43331">
        <ele>2180</ele>
        <time>2024-08-11T06:53:39Z</time>
      </trkpt>
      <trkpt lat="44.98104" lon="6.43331">
        <ele>2179.8</ele>
        <time>2024-08-11T06:53:40Z</time>
      </trkpt>
      <trkpt lat="44.98102" lon="6.43334">
        <ele>2179.8</ele>
        <time>2024-08-11T06:53:41Z</time>
      </trkpt>
      <trkpt lat="44.98102" lon="6.43334">
        <ele>2180</ele>
        <time>2024-08-11T06:53:42Z</time>
      </trkpt>
      <trkpt lat="44.981" lon="6.43337">
        <ele>2180</ele>
        <time>2024-08-11T06:53:43Z</time>
      </trkpt>
      <trkpt lat="44.981" lon="6.43337">
        <ele>2180</ele>
        <time>2024-08-11T06:53:44Z</time>
      </trkpt>
      <trkpt lat="44.98097" lon="6.4334">
        <ele>2180</ele>
        <time>2024-08-11T06:53:45Z</time>
      </trkpt>
      <trkpt lat="44.98096" lon="6.43342">
        <ele>2179.6</ele>
        <time>2024-08-11T06:53:46Z</time>
      </trkpt>
      <trkpt lat="44.98096" lon="6.43342">
        <ele>2179.6</ele>
        <time>2024-08-11T06:53:47Z</time>
      </trkpt>
      <trkpt lat="44.98094" lon="6.43345">
        <ele>2179.6</ele>
        <time>2024-08-11T06:53:48Z</time>
      </trkpt>
      <trkpt lat="44.98094" lon="6.43345">
        <ele>2179.6</ele>
        <time>2024-08-11T06:53:49Z</time>
      </trkpt>
      <trkpt lat="44.98094" lon="6.43348">
        <ele>2179.4</ele>
        <time>2024-08-11T06:53:50Z</time>
      </trkpt>
      <trkpt lat="44.98094" lon="6.43348">
        <ele>2179.2</ele>
        <time>2024-08-11T06:53:51Z</time>
      </trkpt>
      <trkpt lat="44.98094" lon="6.43352">
        <ele>2179</ele>
        <time>2024-08-11T06:53:52Z</time>
      </trkpt>
      <trkpt lat="44.98094" lon="6.43352">
        <ele>2179</ele>
        <time>2024-08-11T06:53:53Z</time>
      </trkpt>
      <trkpt lat="44.98093" lon="6.43356">
        <ele>2179</ele>
        <time>2024-08-11T06:53:54Z</time>
      </trkpt>
      <trkpt lat="44.98093" lon="6.43356">
        <ele>2179</ele>
        <time>2024-08-11T06:53:55Z</time>
      </trkpt>
      <trkpt lat="44.98093" lon="6.43356">
        <ele>2178.8</ele>
        <time>2024-08-11T06:53:56Z</time>
      </trkpt>
      <trkpt lat="44.98093" lon="6.43362">
        <ele>2178.4</ele>
        <time>2024-08-11T06:53:57Z</time>
      </trkpt>
      <trkpt lat="44.98093" lon="6.43364">
        <ele>2178.4</ele>
        <time>2024-08-11T06:53:58Z</time>
      </trkpt>
      <trkpt lat="44.98093" lon="6.43364">
        <ele>2178.4</ele>
        <time>2024-08-11T06:53:59Z</time>
      </trkpt>
      <trkpt lat="44.98092" lon="6.43367">
        <ele>2178</ele>
        <time>2024-08-11T06:54:00Z</time>
      </trkpt>
      <trkpt lat="44.98092" lon="6.43367">
        <ele>2177.4</ele>
        <time>2024-08-11T06:54:01Z</time>
      </trkpt>
      <trkpt lat="44.98092" lon="6.43371">
        <ele>2177.4</ele>
        <time>2024-08-11T06:54:02Z</time>
      </trkpt>
      <trkpt lat="44.98092" lon="6.43371">
        <ele>2177.4</ele>
        <time>2024-08-11T06:54:03Z</time>
      </trkpt>
      <trkpt lat="44.98091" lon="6.43375">
        <ele>2177.2</ele>
        <time>2024-08-11T06:54:04Z</time>
      </trkpt>
      <trkpt lat="44.98091" lon="6.43375">
        <ele>2177.2</ele>
        <time>2024-08-11T06:54:05Z</time>
      </trkpt>
      <trkpt lat="44.9809" lon="6.43378">
        <ele>2177.2</ele>
        <time>2024-08-11T06:54:06Z</time>
      </trkpt>
      <trkpt lat="44.9809" lon="6.43378">
        <ele>2177.2</ele>
        <time>2024-08-11T06:54:07Z</time>
      </trkpt>
      <trkpt lat="44.9809" lon="6.43378">
        <ele>2177.2</ele>
        <time>2024-08-11T06:54:08Z</time>
      </trkpt>
      <trkpt lat="44.9809" lon="6.43383">
        <ele>2177.2</ele>
        <time>2024-08-11T06:54:09Z</time>
      </trkpt>
      <trkpt lat="44.9809" lon="6.43384">
        <ele>2177.2</ele>
        <time>2024-08-11T06:54:10Z</time>
      </trkpt>
      <trkpt lat="44.9809" lon="6.43384">
        <ele>2177.2</ele>
        <time>2024-08-11T06:54:11Z</time>
      </trkpt>
      <trkpt lat="44.9809" lon="6.43384">
        <ele>2176.8</ele>
        <time>2024-08-11T06:54:12Z</time>
      </trkpt>
      <trkpt lat="44.9809" lon="6.4339">
        <ele>2176.8</ele>
        <time>2024-08-11T06:54:13Z</time>
      </trkpt>
      <trkpt lat="44.9809" lon="6.43392">
        <ele>2176.8</ele>
        <time>2024-08-11T06:54:14Z</time>
      </trkpt>
      <trkpt lat="44.9809" lon="6.43392">
        <ele>2176.6</ele>
        <time>2024-08-11T06:54:15Z</time>
      </trkpt>
      <trkpt lat="44.98089" lon="6.43396">
        <ele>2176.4</ele>
        <time>2024-08-11T06:54:16Z</time>
      </trkpt>
      <trkpt lat="44.98089" lon="6.43396">
        <ele>2176.2</ele>
        <time>2024-08-11T06:54:17Z</time>
      </trkpt>
      <trkpt lat="44.98088" lon="6.43399">
        <ele>2176</ele>
        <time>2024-08-11T06:54:18Z</time>
      </trkpt>
      <trkpt lat="44.98088" lon="6.43399">
        <ele>2176</ele>
        <time>2024-08-11T06:54:19Z</time>
      </trkpt>
      <trkpt lat="44.98088" lon="6.43402">
        <ele>2175.8</ele>
        <time>2024-08-11T06:54:20Z</time>
      </trkpt>
      <trkpt lat="44.98088" lon="6.43402">
        <ele>2175.6</ele>
        <time>2024-08-11T06:54:21Z</time>
      </trkpt>
      <trkpt lat="44.98088" lon="6.43405">
        <ele>2175.4</ele>
        <time>2024-08-11T06:54:22Z</time>
      </trkpt>
      <trkpt lat="44.98088" lon="6.43405">
        <ele>2175.4</ele>
        <time>2024-08-11T06:54:23Z</time>
      </trkpt>
      <trkpt lat="44.98088" lon="6.43408">
        <ele>2175</ele>
        <time>2024-08-11T06:54:24Z</time>
      </trkpt>
      <trkpt lat="44.98088" lon="6.43408">
        <ele>2175</ele>
        <time>2024-08-11T06:54:25Z</time>
      </trkpt>
      <trkpt lat="44.98089" lon="6.43411">
        <ele>2175.2</ele>
        <time>2024-08-11T06:54:26Z</time>
      </trkpt>
      <trkpt lat="44.98089" lon="6.43411">
        <ele>2175.2</ele>
        <time>2024-08-11T06:54:27Z</time>
      </trkpt>
      <trkpt lat="44.98086" lon="6.43413">
        <ele>2175</ele>
        <time>2024-08-11T06:54:28Z</time>
      </trkpt>
      <trkpt lat="44.98086" lon="6.43413">
        <ele>2175</ele>
        <time>2024-08-11T06:54:29Z</time>
      </trkpt>
      <trkpt lat="44.98086" lon="6.43413">
        <ele>2175</ele>
        <time>2024-08-11T06:54:30Z</time>
      </trkpt>
      <trkpt lat="44.98084" lon="6.43417">
        <ele>2174.8</ele>
        <time>2024-08-11T06:54:31Z</time>
      </trkpt>
      <trkpt lat="44.98084" lon="6.43419">
        <ele>2174.8</ele>
        <time>2024-08-11T06:54:32Z</time>
      </trkpt>
      <trkpt lat="44.98084" lon="6.43419">
        <ele>2174.8</ele>
        <time>2024-08-11T06:54:33Z</time>
      </trkpt>
      <trkpt lat="44.98084" lon="6.43421">
        <ele>2174.4</ele>
        <time>2024-08-11T06:54:34Z</time>
      </trkpt>
      <trkpt lat="44.98084" lon="6.43421">
        <ele>2174.4</ele>
        <time>2024-08-11T06:54:35Z</time>
      </trkpt>
      <trkpt lat="44.98084" lon="6.43424">
        <ele>2174.2</ele>
        <time>2024-08-11T06:54:36Z</time>
      </trkpt>
      <trkpt lat="44.98084" lon="6.43424">
        <ele>2174.2</ele>
        <time>2024-08-11T06:54:37Z</time>
      </trkpt>
      <trkpt lat="44.98084" lon="6.43424">
        <ele>2174.2</ele>
        <time>2024-08-11T06:54:38Z</time>
      </trkpt>
      <trkpt lat="44.98083" lon="6.43428">
        <ele>2174.2</ele>
        <time>2024-08-11T06:54:39Z</time>
      </trkpt>
      <trkpt lat="44.98083" lon="6.43429">
        <ele>2174.4</ele>
        <time>2024-08-11T06:54:40Z</time>
      </trkpt>
      <trkpt lat="44.98083" lon="6.43429">
        <ele>2174.6</ele>
        <time>2024-08-11T06:54:41Z</time>
      </trkpt>
      <trkpt lat="44.98083" lon="6.43429">
        <ele>2174.6</ele>
        <time>2024-08-11T06:54:42Z</time>
      </trkpt>
      <trkpt lat="44.98081" lon="6.43433">
        <ele>2174.6</ele>
        <time>2024-08-11T06:54:43Z</time>
      </trkpt>
      <trkpt lat="44.9808" lon="6.43434">
        <ele>2174.8</ele>
        <time>2024-08-11T06:54:44Z</time>
      </trkpt>
      <trkpt lat="44.9808" lon="6.43434">
        <ele>2174.8</ele>
        <time>2024-08-11T06:54:45Z</time>
      </trkpt>
      <trkpt lat="44.9808" lon="6.43437">
        <ele>2174.4</ele>
        <time>2024-08-11T06:54:46Z</time>
      </trkpt>
      <trkpt lat="44.9808" lon="6.43437">
        <ele>2174.4</ele>
        <time>2024-08-11T06:54:47Z</time>
      </trkpt>
      <trkpt lat="44.9808" lon="6.43437">
        <ele>2174.4</ele>
        <time>2024-08-11T06:54:48Z</time>
      </trkpt>
      <trkpt lat="44.98078" lon="6.43441">
        <ele>2174.2</ele>
        <time>2024-08-11T06:54:49Z</time>
      </trkpt>
      <trkpt lat="44.98078" lon="6.43442">
        <ele>2174.2</ele>
        <time>2024-08-11T06:54:50Z</time>
      </trkpt>
      <trkpt lat="44.98078" lon="6.43442">
        <ele>2174</ele>
        <time>2024-08-11T06:54:51Z</time>
      </trkpt>
      <trkpt lat="44.98077" lon="6.43445">
        <ele>2174</ele>
        <time>2024-08-11T06:54:52Z</time>
      </trkpt>
      <trkpt lat="44.98077" lon="6.43445">
        <ele>2174</ele>
        <time>2024-08-11T06:54:53Z</time>
      </trkpt>
      <trkpt lat="44.98077" lon="6.43445">
        <ele>2173.8</ele>
        <time>2024-08-11T06:54:54Z</time>
      </trkpt>
      <trkpt lat="44.98077" lon="6.43447">
        <ele>2173.8</ele>
        <time>2024-08-11T06:54:55Z</time>
      </trkpt>
      <trkpt lat="44.98077" lon="6.43447">
        <ele>2173.8</ele>
        <time>2024-08-11T06:54:56Z</time>
      </trkpt>
      <trkpt lat="44.98077" lon="6.43447">
        <ele>2173.8</ele>
        <time>2024-08-11T06:54:57Z</time>
      </trkpt>
      <trkpt lat="44.98077" lon="6.43447">
        <ele>2173.8</ele>
        <time>2024-08-11T06:54:58Z</time>
      </trkpt>
      <trkpt lat="44.98079" lon="6.43452">
        <ele>2173.8</ele>
        <time>2024-08-11T06:54:59Z</time>
      </trkpt>
      <trkpt lat="44.9808" lon="6.43453">
        <ele>2174</ele>
        <time>2024-08-11T06:55:00Z</time>
      </trkpt>
      <trkpt lat="44.9808" lon="6.43453">
        <ele>2174</ele>
        <time>2024-08-11T06:55:01Z</time>
      </trkpt>
      <trkpt lat="44.9808" lon="6.43456">
        <ele>2174</ele>
        <time>2024-08-11T06:55:02Z</time>
      </trkpt>
      <trkpt lat="44.9808" lon="6.43456">
        <ele>2174</ele>
        <time>2024-08-11T06:55:03Z</time>
      </trkpt>
      <trkpt lat="44.9808" lon="6.43456">
        <ele>2174</ele>
        <time>2024-08-11T06:55:04Z</time>
      </trkpt>
      <trkpt lat="44.9808" lon="6.43456">
        <ele>2173.8</ele>
        <time>2024-08-11T06:55:05Z</time>
      </trkpt>
      <trkpt lat="44.9808" lon="6.43456">
        <ele>2173.8</ele>
        <time>2024-08-11T06:55:06Z</time>
      </trkpt>
      <trkpt lat="44.98079" lon="6.4346">
        <ele>2173.6</ele>
        <time>2024-08-11T06:55:07Z</time>
      </trkpt>
      <trkpt lat="44.98078" lon="6.43462">
        <ele>2173.6</ele>
        <time>2024-08-11T06:55:08Z</time>
      </trkpt>
      <trkpt lat="44.98078" lon="6.43462">
        <ele>2173.6</ele>
        <time>2024-08-11T06:55:09Z</time>
      </trkpt>
      <trkpt lat="44.98077" lon="6.43465">
        <ele>2173.6</ele>
        <time>2024-08-11T06:55:10Z</time>
      </trkpt>
      <trkpt lat="44.98077" lon="6.43465">
        <ele>2173.6</ele>
        <time>2024-08-11T06:55:11Z</time>
      </trkpt>
      <trkpt lat="44.98077" lon="6.43465">
        <ele>2173.6</ele>
        <time>2024-08-11T06:55:12Z</time>
      </trkpt>
      <trkpt lat="44.98075" lon="6.4347">
        <ele>2173.6</ele>
        <time>2024-08-11T06:55:13Z</time>
      </trkpt>
      <trkpt lat="44.98074" lon="6.43471">
        <ele>2173.2</ele>
        <time>2024-08-11T06:55:14Z</time>
      </trkpt>
      <trkpt lat="44.98074" lon="6.43471">
        <ele>2173.2</ele>
        <time>2024-08-11T06:55:15Z</time>
      </trkpt>
      <trkpt lat="44.98074" lon="6.43474">
        <ele>2173.4</ele>
        <time>2024-08-11T06:55:16Z</time>
      </trkpt>
      <trkpt lat="44.98074" lon="6.43474">
        <ele>2173.4</ele>
        <time>2024-08-11T06:55:17Z</time>
      </trkpt>
      <trkpt lat="44.98074" lon="6.43478">
        <ele>2173.4</ele>
        <time>2024-08-11T06:55:18Z</time>
      </trkpt>
      <trkpt lat="44.98074" lon="6.43478">
        <ele>2173.8</ele>
        <time>2024-08-11T06:55:19Z</time>
      </trkpt>
      <trkpt lat="44.98074" lon="6.43481">
        <ele>2174</ele>
        <time>2024-08-11T06:55:20Z</time>
      </trkpt>
      <trkpt lat="44.98074" lon="6.43481">
        <ele>2174</ele>
        <time>2024-08-11T06:55:21Z</time>
      </trkpt>
      <trkpt lat="44.98074" lon="6.43485">
        <ele>2174</ele>
        <time>2024-08-11T06:55:22Z</time>
      </trkpt>
      <trkpt lat="44.98074" lon="6.43485">
        <ele>2174</ele>
        <time>2024-08-11T06:55:23Z</time>
      </trkpt>
      <trkpt lat="44.98075" lon="6.43489">
        <ele>2174</ele>
        <time>2024-08-11T06:55:24Z</time>
      </trkpt>
      <trkpt lat="44.98075" lon="6.43489">
        <ele>2173.8</ele>
        <time>2024-08-11T06:55:25Z</time>
      </trkpt>
      <trkpt lat="44.98075" lon="6.43489">
        <ele>2173.6</ele>
        <time>2024-08-11T06:55:26Z</time>
      </trkpt>
      <trkpt lat="44.98074" lon="6.43494">
        <ele>2173.6</ele>
        <time>2024-08-11T06:55:27Z</time>
      </trkpt>
      <trkpt lat="44.98074" lon="6.43496">
        <ele>2173.6</ele>
        <time>2024-08-11T06:55:28Z</time>
      </trkpt>
      <trkpt lat="44.98074" lon="6.43496">
        <ele>2173.6</ele>
        <time>2024-08-11T06:55:29Z</time>
      </trkpt>
      <trkpt lat="44.98074" lon="6.43499">
        <ele>2173.6</ele>
        <time>2024-08-11T06:55:30Z</time>
      </trkpt>
      <trkpt lat="44.98074" lon="6.43499">
        <ele>2173.8</ele>
        <time>2024-08-11T06:55:31Z</time>
      </trkpt>
      <trkpt lat="44.98074" lon="6.43499">
        <ele>2173.6</ele>
        <time>2024-08-11T06:55:32Z</time>
      </trkpt>
      <trkpt lat="44.98075" lon="6.43503">
        <ele>2173.6</ele>
        <time>2024-08-11T06:55:33Z</time>
      </trkpt>
      <trkpt lat="44.98075" lon="6.43503">
        <ele>2174</ele>
        <time>2024-08-11T06:55:34Z</time>
      </trkpt>
      <trkpt lat="44.98076" lon="6.43506">
        <ele>2174</ele>
        <time>2024-08-11T06:55:35Z</time>
      </trkpt>
      <trkpt lat="44.98077" lon="6.43507">
        <ele>2173.8</ele>
        <time>2024-08-11T06:55:36Z</time>
      </trkpt>
      <trkpt lat="44.98077" lon="6.43507">
        <ele>2173.8</ele>
        <time>2024-08-11T06:55:37Z</time>
      </trkpt>
      <trkpt lat="44.98077" lon="6.43507">
        <ele>2173.6</ele>
        <time>2024-08-11T06:55:38Z</time>
      </trkpt>
      <trkpt lat="44.9808" lon="6.43512">
        <ele>2173.6</ele>
        <time>2024-08-11T06:55:39Z</time>
      </trkpt>
      <trkpt lat="44.98081" lon="6.43514">
        <ele>2173.6</ele>
        <time>2024-08-11T06:55:40Z</time>
      </trkpt>
      <trkpt lat="44.98081" lon="6.43514">
        <ele>2173.2</ele>
        <time>2024-08-11T06:55:41Z</time>
      </trkpt>
      <trkpt lat="44.98082" lon="6.43517">
        <ele>2173.2</ele>
        <time>2024-08-11T06:55:42Z</time>
      </trkpt>
      <trkpt lat="44.98082" lon="6.43517">
        <ele>2173.4</ele>
        <time>2024-08-11T06:55:43Z</time>
      </trkpt>
      <trkpt lat="44.98082" lon="6.43517">
        <ele>2173.4</ele>
        <time>2024-08-11T06:55:44Z</time>
      </trkpt>
      <trkpt lat="44.9808" lon="6.43523">
        <ele>2173.2</ele>
        <time>2024-08-11T06:55:45Z</time>
      </trkpt>
      <trkpt lat="44.9808" lon="6.43525">
        <ele>2173</ele>
        <time>2024-08-11T06:55:46Z</time>
      </trkpt>
      <trkpt lat="44.9808" lon="6.43525">
        <ele>2173</ele>
        <time>2024-08-11T06:55:47Z</time>
      </trkpt>
      <trkpt lat="44.98079" lon="6.43529">
        <ele>2173</ele>
        <time>2024-08-11T06:55:48Z</time>
      </trkpt>
      <trkpt lat="44.98079" lon="6.43529">
        <ele>2172.8</ele>
        <time>2024-08-11T06:55:49Z</time>
      </trkpt>
      <trkpt lat="44.98079" lon="6.43529">
        <ele>2172.8</ele>
        <time>2024-08-11T06:55:50Z</time>
      </trkpt>
      <trkpt lat="44.98078" lon="6.43534">
        <ele>2172.6</ele>
        <time>2024-08-11T06:55:51Z</time>
      </trkpt>
      <trkpt lat="44.98077" lon="6.43535">
        <ele>2172.4</ele>
        <time>2024-08-11T06:55:52Z</time>
      </trkpt>
      <trkpt lat="44.98077" lon="6.43535">
        <ele>2172.4</ele>
        <time>2024-08-11T06:55:53Z</time>
      </trkpt>
      <trkpt lat="44.98076" lon="6.43538">
        <ele>2172.2</ele>
        <time>2024-08-11T06:55:54Z</time>
      </trkpt>
      <trkpt lat="44.98076" lon="6.43538">
        <ele>2172.2</ele>
        <time>2024-08-11T06:55:55Z</time>
      </trkpt>
      <trkpt lat="44.98074" lon="6.43542">
        <ele>2172.2</ele>
        <time>2024-08-11T06:55:56Z</time>
      </trkpt>
      <trkpt lat="44.98074" lon="6.43542">
        <ele>2172.2</ele>
        <time>2024-08-11T06:55:57Z</time>
      </trkpt>
      <trkpt lat="44.98072" lon="6.43545">
        <ele>2172.2</ele>
        <time>2024-08-11T06:55:58Z</time>
      </trkpt>
      <trkpt lat="44.98072" lon="6.43545">
        <ele>2172</ele>
        <time>2024-08-11T06:55:59Z</time>
      </trkpt>
      <trkpt lat="44.9807" lon="6.43548">
        <ele>2172.2</ele>
        <time>2024-08-11T06:56:00Z</time>
      </trkpt>
      <trkpt lat="44.9807" lon="6.43548">
        <ele>2172.2</ele>
        <time>2024-08-11T06:56:01Z</time>
      </trkpt>
      <trkpt lat="44.98069" lon="6.43551">
        <ele>2172.4</ele>
        <time>2024-08-11T06:56:02Z</time>
      </trkpt>
      <trkpt lat="44.98069" lon="6.43551">
        <ele>2172.4</ele>
        <time>2024-08-11T06:56:03Z</time>
      </trkpt>
      <trkpt lat="44.98069" lon="6.43555">
        <ele>2172.2</ele>
        <time>2024-08-11T06:56:04Z</time>
      </trkpt>
      <trkpt lat="44.98069" lon="6.43555">
        <ele>2172</ele>
        <time>2024-08-11T06:56:05Z</time>
      </trkpt>
      <trkpt lat="44.9807" lon="6.43559">
        <ele>2172</ele>
        <time>2024-08-11T06:56:06Z</time>
      </trkpt>
      <trkpt lat="44.9807" lon="6.43559">
        <ele>2172.2</ele>
        <time>2024-08-11T06:56:07Z</time>
      </trkpt>
      <trkpt lat="44.9807" lon="6.43559">
        <ele>2172.2</ele>
        <time>2024-08-11T06:56:08Z</time>
      </trkpt>
      <trkpt lat="44.98069" lon="6.43565">
        <ele>2172.2</ele>
        <time>2024-08-11T06:56:09Z</time>
      </trkpt>
      <trkpt lat="44.98069" lon="6.43566">
        <ele>2172.2</ele>
        <time>2024-08-11T06:56:10Z</time>
      </trkpt>
      <trkpt lat="44.98069" lon="6.43566">
        <ele>2172.2</ele>
        <time>2024-08-11T06:56:11Z</time>
      </trkpt>
      <trkpt lat="44.98069" lon="6.43566">
        <ele>2172.2</ele>
        <time>2024-08-11T06:56:12Z</time>
      </trkpt>
      <trkpt lat="44.98067" lon="6.4357">
        <ele>2172.2</ele>
        <time>2024-08-11T06:56:13Z</time>
      </trkpt>
      <trkpt lat="44.98067" lon="6.43571">
        <ele>2172.2</ele>
        <time>2024-08-11T06:56:14Z</time>
      </trkpt>
      <trkpt lat="44.98067" lon="6.43571">
        <ele>2172.2</ele>
        <time>2024-08-11T06:56:15Z</time>
      </trkpt>
      <trkpt lat="44.98066" lon="6.43574">
        <ele>2172.2</ele>
        <time>2024-08-11T06:56:16Z</time>
      </trkpt>
      <trkpt lat="44.98066" lon="6.43574">
        <ele>2172.4</ele>
        <time>2024-08-11T06:56:17Z</time>
      </trkpt>
      <trkpt lat="44.98066" lon="6.43577">
        <ele>2172.2</ele>
        <time>2024-08-11T06:56:18Z</time>
      </trkpt>
      <trkpt lat="44.98066" lon="6.43577">
        <ele>2172.4</ele>
        <time>2024-08-11T06:56:19Z</time>
      </trkpt>
      <trkpt lat="44.98066" lon="6.43577">
        <ele>2172.6</ele>
        <time>2024-08-11T06:56:20Z</time>
      </trkpt>
      <trkpt lat="44.98064" lon="6.4358">
        <ele>2172.6</ele>
        <time>2024-08-11T06:56:21Z</time>
      </trkpt>
      <trkpt lat="44.98064" lon="6.4358">
        <ele>2172.6</ele>
        <time>2024-08-11T06:56:22Z</time>
      </trkpt>
      <trkpt lat="44.98064" lon="6.4358">
        <ele>2172.8</ele>
        <time>2024-08-11T06:56:23Z</time>
      </trkpt>
      <trkpt lat="44.98064" lon="6.43585">
        <ele>2172.8</ele>
        <time>2024-08-11T06:56:24Z</time>
      </trkpt>
      <trkpt lat="44.98064" lon="6.43587">
        <ele>2172.8</ele>
        <time>2024-08-11T06:56:25Z</time>
      </trkpt>
      <trkpt lat="44.98064" lon="6.43587">
        <ele>2172.8</ele>
        <time>2024-08-11T06:56:26Z</time>
      </trkpt>
      <trkpt lat="44.98064" lon="6.43587">
        <ele>2172.8</ele>
        <time>2024-08-11T06:56:27Z</time>
      </trkpt>
      <trkpt lat="44.98066" lon="6.43592">
        <ele>2172.8</ele>
        <time>2024-08-11T06:56:28Z</time>
      </trkpt>
      <trkpt lat="44.98066" lon="6.43594">
        <ele>2172.8</ele>
        <time>2024-08-11T06:56:29Z</time>
      </trkpt>
      <trkpt lat="44.98066" lon="6.43594">
        <ele>2172.8</ele>
        <time>2024-08-11T06:56:30Z</time>
      </trkpt>
      <trkpt lat="44.98066" lon="6.43598">
        <ele>2172.8</ele>
        <time>2024-08-11T06:56:31Z</time>
      </trkpt>
      <trkpt lat="44.98066" lon="6.43598">
        <ele>2172.6</ele>
        <time>2024-08-11T06:56:32Z</time>
      </trkpt>
      <trkpt lat="44.98065" lon="6.43601">
        <ele>2172.2</ele>
        <time>2024-08-11T06:56:33Z</time>
      </trkpt>
      <trkpt lat="44.98065" lon="6.43601">
        <ele>2172.2</ele>
        <time>2024-08-11T06:56:34Z</time>
      </trkpt>
      <trkpt lat="44.98066" lon="6.43604">
        <ele>2172.2</ele>
        <time>2024-08-11T06:56:35Z</time>
      </trkpt>
      <trkpt lat="44.98066" lon="6.43604">
        <ele>2172.2</ele>
        <time>2024-08-11T06:56:36Z</time>
      </trkpt>
      <trkpt lat="44.98068" lon="6.43607">
        <ele>2172.2</ele>
        <time>2024-08-11T06:56:37Z</time>
      </trkpt>
      <trkpt lat="44.98068" lon="6.43607">
        <ele>2172</ele>
        <time>2024-08-11T06:56:38Z</time>
      </trkpt>
      <trkpt lat="44.98069" lon="6.43611">
        <ele>2171.8</ele>
        <time>2024-08-11T06:56:39Z</time>
      </trkpt>
      <trkpt lat="44.98069" lon="6.43611">
        <ele>2171.6</ele>
        <time>2024-08-11T06:56:40Z</time>
      </trkpt>
      <trkpt lat="44.9807" lon="6.43614">
        <ele>2171.6</ele>
        <time>2024-08-11T06:56:41Z</time>
      </trkpt>
      <trkpt lat="44.9807" lon="6.43614">
        <ele>2171.6</ele>
        <time>2024-08-11T06:56:42Z</time>
      </trkpt>
      <trkpt lat="44.98069" lon="6.43618">
        <ele>2171.6</ele>
        <time>2024-08-11T06:56:43Z</time>
      </trkpt>
      <trkpt lat="44.98069" lon="6.43618">
        <ele>2171.8</ele>
        <time>2024-08-11T06:56:44Z</time>
      </trkpt>
      <trkpt lat="44.98069" lon="6.43621">
        <ele>2172</ele>
        <time>2024-08-11T06:56:45Z</time>
      </trkpt>
      <trkpt lat="44.98069" lon="6.43621">
        <ele>2172</ele>
        <time>2024-08-11T06:56:46Z</time>
      </trkpt>
      <trkpt lat="44.98069" lon="6.43621">
        <ele>2172</ele>
        <time>2024-08-11T06:56:47Z</time>
      </trkpt>
      <trkpt lat="44.9807" lon="6.43624">
        <ele>2171.8</ele>
        <time>2024-08-11T06:56:48Z</time>
      </trkpt>
      <trkpt lat="44.9807" lon="6.43624">
        <ele>2171.8</ele>
        <time>2024-08-11T06:56:49Z</time>
      </trkpt>
      <trkpt lat="44.9807" lon="6.43624">
        <ele>2171.6</ele>
        <time>2024-08-11T06:56:50Z</time>
      </trkpt>
      <trkpt lat="44.9807" lon="6.43627">
        <ele>2171.6</ele>
        <time>2024-08-11T06:56:51Z</time>
      </trkpt>
      <trkpt lat="44.9807" lon="6.43629">
        <ele>2171.6</ele>
        <time>2024-08-11T06:56:52Z</time>
      </trkpt>
      <trkpt lat="44.9807" lon="6.43629">
        <ele>2171.6</ele>
        <time>2024-08-11T06:56:53Z</time>
      </trkpt>
      <trkpt lat="44.98072" lon="6.43631">
        <ele>2171.6</ele>
        <time>2024-08-11T06:56:54Z</time>
      </trkpt>
      <trkpt lat="44.98072" lon="6.43631">
        <ele>2171.8</ele>
        <time>2024-08-11T06:56:55Z</time>
      </trkpt>
      <trkpt lat="44.98072" lon="6.43634">
        <ele>2171.8</ele>
        <time>2024-08-11T06:56:56Z</time>
      </trkpt>
      <trkpt lat="44.98072" lon="6.43634">
        <ele>2171.8</ele>
        <time>2024-08-11T06:56:57Z</time>
      </trkpt>
      <trkpt lat="44.98072" lon="6.43634">
        <ele>2171.8</ele>
        <time>2024-08-11T06:56:58Z</time>
      </trkpt>
      <trkpt lat="44.98072" lon="6.43634">
        <ele>2171.8</ele>
        <time>2024-08-11T06:56:59Z</time>
      </trkpt>
      <trkpt lat="44.9807" lon="6.43639">
        <ele>2171.8</ele>
        <time>2024-08-11T06:57:00Z</time>
      </trkpt>
      <trkpt lat="44.9807" lon="6.43641">
        <ele>2171.8</ele>
        <time>2024-08-11T06:57:01Z</time>
      </trkpt>
      <trkpt lat="44.9807" lon="6.43641">
        <ele>2171.6</ele>
        <time>2024-08-11T06:57:02Z</time>
      </trkpt>
      <trkpt lat="44.98069" lon="6.43643">
        <ele>2171.6</ele>
        <time>2024-08-11T06:57:03Z</time>
      </trkpt>
      <trkpt lat="44.98069" lon="6.43643">
        <ele>2171.8</ele>
        <time>2024-08-11T06:57:04Z</time>
      </trkpt>
      <trkpt lat="44.98069" lon="6.43646">
        <ele>2171.8</ele>
        <time>2024-08-11T06:57:05Z</time>
      </trkpt>
      <trkpt lat="44.98069" lon="6.43646">
        <ele>2171.8</ele>
        <time>2024-08-11T06:57:06Z</time>
      </trkpt>
      <trkpt lat="44.98069" lon="6.43648">
        <ele>2171.4</ele>
        <time>2024-08-11T06:57:07Z</time>
      </trkpt>
      <trkpt lat="44.98069" lon="6.43648">
        <ele>2171.2</ele>
        <time>2024-08-11T06:57:08Z</time>
      </trkpt>
      <trkpt lat="44.98068" lon="6.43652">
        <ele>2171</ele>
        <time>2024-08-11T06:57:09Z</time>
      </trkpt>
      <trkpt lat="44.98068" lon="6.43652">
        <ele>2170.8</ele>
        <time>2024-08-11T06:57:10Z</time>
      </trkpt>
      <trkpt lat="44.98067" lon="6.43655">
        <ele>2170.8</ele>
        <time>2024-08-11T06:57:11Z</time>
      </trkpt>
      <trkpt lat="44.98067" lon="6.43655">
        <ele>2170.6</ele>
        <time>2024-08-11T06:57:12Z</time>
      </trkpt>
      <trkpt lat="44.98067" lon="6.43655">
        <ele>2170.4</ele>
        <time>2024-08-11T06:57:13Z</time>
      </trkpt>
      <trkpt lat="44.98066" lon="6.43658">
        <ele>2170.4</ele>
        <time>2024-08-11T06:57:14Z</time>
      </trkpt>
      <trkpt lat="44.98066" lon="6.43658">
        <ele>2170.4</ele>
        <time>2024-08-11T06:57:15Z</time>
      </trkpt>
      <trkpt lat="44.98066" lon="6.43658">
        <ele>2170.4</ele>
        <time>2024-08-11T06:57:16Z</time>
      </trkpt>
      <trkpt lat="44.98066" lon="6.43658">
        <ele>2170.4</ele>
        <time>2024-08-11T06:57:17Z</time>
      </trkpt>
      <trkpt lat="44.98065" lon="6.43663">
        <ele>2170.4</ele>
        <time>2024-08-11T06:57:18Z</time>
      </trkpt>
      <trkpt lat="44.98064" lon="6.43664">
        <ele>2170.4</ele>
        <time>2024-08-11T06:57:19Z</time>
      </trkpt>
      <trkpt lat="44.98064" lon="6.43664">
        <ele>2170</ele>
        <time>2024-08-11T06:57:20Z</time>
      </trkpt>
      <trkpt lat="44.98062" lon="6.43665">
        <ele>2169.6</ele>
        <time>2024-08-11T06:57:21Z</time>
      </trkpt>
      <trkpt lat="44.98062" lon="6.43665">
        <ele>2169.4</ele>
        <time>2024-08-11T06:57:22Z</time>
      </trkpt>
      <trkpt lat="44.98062" lon="6.43665">
        <ele>2169.4</ele>
        <time>2024-08-11T06:57:23Z</time>
      </trkpt>
      <trkpt lat="44.98062" lon="6.4367">
        <ele>2169.4</ele>
        <time>2024-08-11T06:57:24Z</time>
      </trkpt>
      <trkpt lat="44.98061" lon="6.43672">
        <ele>2169.4</ele>
        <time>2024-08-11T06:57:25Z</time>
      </trkpt>
      <trkpt lat="44.98061" lon="6.43672">
        <ele>2169.2</ele>
        <time>2024-08-11T06:57:26Z</time>
      </trkpt>
      <trkpt lat="44.98061" lon="6.43675">
        <ele>2169.2</ele>
        <time>2024-08-11T06:57:27Z</time>
      </trkpt>
      <trkpt lat="44.98061" lon="6.43675">
        <ele>2169.2</ele>
        <time>2024-08-11T06:57:28Z</time>
      </trkpt>
      <trkpt lat="44.98061" lon="6.43675">
        <ele>2169.2</ele>
        <time>2024-08-11T06:57:29Z</time>
      </trkpt>
      <trkpt lat="44.98061" lon="6.4368">
        <ele>2169.4</ele>
        <time>2024-08-11T06:57:30Z</time>
      </trkpt>
      <trkpt lat="44.98061" lon="6.43682">
        <ele>2169.6</ele>
        <time>2024-08-11T06:57:31Z</time>
      </trkpt>
      <trkpt lat="44.98061" lon="6.43682">
        <ele>2169.6</ele>
        <time>2024-08-11T06:57:32Z</time>
      </trkpt>
      <trkpt lat="44.98062" lon="6.43685">
        <ele>2169.4</ele>
        <time>2024-08-11T06:57:33Z</time>
      </trkpt>
      <trkpt lat="44.98062" lon="6.43685">
        <ele>2169.2</ele>
        <time>2024-08-11T06:57:34Z</time>
      </trkpt>
      <trkpt lat="44.98062" lon="6.43685">
        <ele>2169.2</ele>
        <time>2024-08-11T06:57:35Z</time>
      </trkpt>
      <trkpt lat="44.98061" lon="6.43691">
        <ele>2169.2</ele>
        <time>2024-08-11T06:57:36Z</time>
      </trkpt>
      <trkpt lat="44.98061" lon="6.43693">
        <ele>2169</ele>
        <time>2024-08-11T06:57:37Z</time>
      </trkpt>
      <trkpt lat="44.98061" lon="6.43693">
        <ele>2169</ele>
        <time>2024-08-11T06:57:38Z</time>
      </trkpt>
      <trkpt lat="44.98063" lon="6.43698">
        <ele>2169</ele>
        <time>2024-08-11T06:57:39Z</time>
      </trkpt>
      <trkpt lat="44.98063" lon="6.43699">
        <ele>2168.8</ele>
        <time>2024-08-11T06:57:40Z</time>
      </trkpt>
      <trkpt lat="44.98064" lon="6.437">
        <ele>2168.8</ele>
        <time>2024-08-11T06:57:41Z</time>
      </trkpt>
      <trkpt lat="44.98064" lon="6.43701">
        <ele>2168.8</ele>
        <time>2024-08-11T06:57:42Z</time>
      </trkpt>
      <trkpt lat="44.98064" lon="6.43703">
        <ele>2168.8</ele>
        <time>2024-08-11T06:57:43Z</time>
      </trkpt>
      <trkpt lat="44.98064" lon="6.43703">
        <ele>2168.8</ele>
        <time>2024-08-11T06:57:44Z</time>
      </trkpt>
      <trkpt lat="44.98065" lon="6.43706">
        <ele>2168.6</ele>
        <time>2024-08-11T06:57:45Z</time>
      </trkpt>
      <trkpt lat="44.98065" lon="6.43706">
        <ele>2168.6</ele>
        <time>2024-08-11T06:57:46Z</time>
      </trkpt>
      <trkpt lat="44.98065" lon="6.43709">
        <ele>2168.8</ele>
        <time>2024-08-11T06:57:47Z</time>
      </trkpt>
      <trkpt lat="44.98065" lon="6.43709">
        <ele>2168.8</ele>
        <time>2024-08-11T06:57:48Z</time>
      </trkpt>
      <trkpt lat="44.98064" lon="6.43713">
        <ele>2168.6</ele>
        <time>2024-08-11T06:57:49Z</time>
      </trkpt>
      <trkpt lat="44.98064" lon="6.43713">
        <ele>2168.4</ele>
        <time>2024-08-11T06:57:50Z</time>
      </trkpt>
      <trkpt lat="44.98065" lon="6.43716">
        <ele>2168.2</ele>
        <time>2024-08-11T06:57:51Z</time>
      </trkpt>
      <trkpt lat="44.98065" lon="6.43716">
        <ele>2167.8</ele>
        <time>2024-08-11T06:57:52Z</time>
      </trkpt>
      <trkpt lat="44.98065" lon="6.43716">
        <ele>2167.8</ele>
        <time>2024-08-11T06:57:53Z</time>
      </trkpt>
      <trkpt lat="44.98065" lon="6.4372">
        <ele>2167.4</ele>
        <time>2024-08-11T06:57:54Z</time>
      </trkpt>
      <trkpt lat="44.98065" lon="6.4372">
        <ele>2167.2</ele>
        <time>2024-08-11T06:57:55Z</time>
      </trkpt>
      <trkpt lat="44.98065" lon="6.43723">
        <ele>2167</ele>
        <time>2024-08-11T06:57:56Z</time>
      </trkpt>
      <trkpt lat="44.98065" lon="6.43723">
        <ele>2166.8</ele>
        <time>2024-08-11T06:57:57Z</time>
      </trkpt>
      <trkpt lat="44.98065" lon="6.43727">
        <ele>2166.6</ele>
        <time>2024-08-11T06:57:58Z</time>
      </trkpt>
      <trkpt lat="44.98065" lon="6.43727">
        <ele>2166.6</ele>
        <time>2024-08-11T06:57:59Z</time>
      </trkpt>
      <trkpt lat="44.98066" lon="6.4373">
        <ele>2166.4</ele>
        <time>2024-08-11T06:58:00Z</time>
      </trkpt>
      <trkpt lat="44.98066" lon="6.4373">
        <ele>2166.2</ele>
        <time>2024-08-11T06:58:01Z</time>
      </trkpt>
      <trkpt lat="44.98066" lon="6.4373">
        <ele>2165.6</ele>
        <time>2024-08-11T06:58:02Z</time>
      </trkpt>
      <trkpt lat="44.98066" lon="6.43735">
        <ele>2165.6</ele>
        <time>2024-08-11T06:58:03Z</time>
      </trkpt>
      <trkpt lat="44.98066" lon="6.43736">
        <ele>2165.6</ele>
        <time>2024-08-11T06:58:04Z</time>
      </trkpt>
      <trkpt lat="44.98066" lon="6.43736">
        <ele>2165.6</ele>
        <time>2024-08-11T06:58:05Z</time>
      </trkpt>
      <trkpt lat="44.98066" lon="6.4374">
        <ele>2165.4</ele>
        <time>2024-08-11T06:58:06Z</time>
      </trkpt>
      <trkpt lat="44.98066" lon="6.4374">
        <ele>2165.2</ele>
        <time>2024-08-11T06:58:07Z</time>
      </trkpt>
      <trkpt lat="44.98066" lon="6.43743">
        <ele>2165</ele>
        <time>2024-08-11T06:58:08Z</time>
      </trkpt>
      <trkpt lat="44.98066" lon="6.43743">
        <ele>2164.8</ele>
        <time>2024-08-11T06:58:09Z</time>
      </trkpt>
      <trkpt lat="44.98066" lon="6.43743">
        <ele>2164.6</ele>
        <time>2024-08-11T06:58:10Z</time>
      </trkpt>
      <trkpt lat="44.98065" lon="6.43748">
        <ele>2164.4</ele>
        <time>2024-08-11T06:58:11Z</time>
      </trkpt>
      <trkpt lat="44.98065" lon="6.4375">
        <ele>2164.4</ele>
        <time>2024-08-11T06:58:12Z</time>
      </trkpt>
      <trkpt lat="44.98065" lon="6.4375">
        <ele>2164.2</ele>
        <time>2024-08-11T06:58:13Z</time>
      </trkpt>
      <trkpt lat="44.98065" lon="6.4375">
        <ele>2163.8</ele>
        <time>2024-08-11T06:58:14Z</time>
      </trkpt>
      <trkpt lat="44.98066" lon="6.43753">
        <ele>2163.2</ele>
        <time>2024-08-11T06:58:15Z</time>
      </trkpt>
      <trkpt lat="44.98066" lon="6.43755">
        <ele>2163</ele>
        <time>2024-08-11T06:58:16Z</time>
      </trkpt>
      <trkpt lat="44.98066" lon="6.43755">
        <ele>2162.8</ele>
        <time>2024-08-11T06:58:17Z</time>
      </trkpt>
      <trkpt lat="44.98066" lon="6.43758">
        <ele>2162.6</ele>
        <time>2024-08-11T06:58:18Z</time>
      </trkpt>
      <trkpt lat="44.98066" lon="6.43758">
        <ele>2162.4</ele>
        <time>2024-08-11T06:58:19Z</time>
      </trkpt>
      <trkpt lat="44.98067" lon="6.43761">
        <ele>2162.2</ele>
        <time>2024-08-11T06:58:20Z</time>
      </trkpt>
      <trkpt lat="44.98067" lon="6.43761">
        <ele>2162.2</ele>
        <time>2024-08-11T06:58:21Z</time>
      </trkpt>
      <trkpt lat="44.98067" lon="6.43761">
        <ele>2162</ele>
        <time>2024-08-11T06:58:22Z</time>
      </trkpt>
      <trkpt lat="44.98066" lon="6.43766">
        <ele>2161.6</ele>
        <time>2024-08-11T06:58:23Z</time>
      </trkpt>
      <trkpt lat="44.98066" lon="6.43768">
        <ele>2161.6</ele>
        <time>2024-08-11T06:58:24Z</time>
      </trkpt>
      <trkpt lat="44.98066" lon="6.43768">
        <ele>2161.4</ele>
        <time>2024-08-11T06:58:25Z</time>
      </trkpt>
      <trkpt lat="44.98064" lon="6.43771">
        <ele>2161.2</ele>
        <time>2024-08-11T06:58:26Z</time>
      </trkpt>
      <trkpt lat="44.98064" lon="6.43771">
        <ele>2161</ele>
        <time>2024-08-11T06:58:27Z</time>
      </trkpt>
      <trkpt lat="44.98063" lon="6.43774">
        <ele>2160.8</ele>
        <time>2024-08-11T06:58:28Z</time>
      </trkpt>
      <trkpt lat="44.98063" lon="6.43774">
        <ele>2160.8</ele>
        <time>2024-08-11T06:58:29Z</time>
      </trkpt>
      <trkpt lat="44.98062" lon="6.43777">
        <ele>2160.6</ele>
        <time>2024-08-11T06:58:30Z</time>
      </trkpt>
      <trkpt lat="44.98062" lon="6.43777">
        <ele>2160.4</ele>
        <time>2024-08-11T06:58:31Z</time>
      </trkpt>
      <trkpt lat="44.98061" lon="6.4378">
        <ele>2160.2</ele>
        <time>2024-08-11T06:58:32Z</time>
      </trkpt>
      <trkpt lat="44.98061" lon="6.4378">
        <ele>2160</ele>
        <time>2024-08-11T06:58:33Z</time>
      </trkpt>
      <trkpt lat="44.98061" lon="6.43784">
        <ele>2160</ele>
        <time>2024-08-11T06:58:34Z</time>
      </trkpt>
      <trkpt lat="44.98061" lon="6.43784">
        <ele>2159.8</ele>
        <time>2024-08-11T06:58:35Z</time>
      </trkpt>
      <trkpt lat="44.9806" lon="6.43788">
        <ele>2159.6</ele>
        <time>2024-08-11T06:58:36Z</time>
      </trkpt>
      <trkpt lat="44.9806" lon="6.43788">
        <ele>2159.6</ele>
        <time>2024-08-11T06:58:37Z</time>
      </trkpt>
      <trkpt lat="44.9806" lon="6.43793">
        <ele>2159.6</ele>
        <time>2024-08-11T06:58:38Z</time>
      </trkpt>
      <trkpt lat="44.9806" lon="6.43793">
        <ele>2159.6</ele>
        <time>2024-08-11T06:58:39Z</time>
      </trkpt>
      <trkpt lat="44.9806" lon="6.43797">
        <ele>2159.6</ele>
        <time>2024-08-11T06:58:40Z</time>
      </trkpt>
      <trkpt lat="44.9806" lon="6.43797">
        <ele>2159.6</ele>
        <time>2024-08-11T06:58:41Z</time>
      </trkpt>
      <trkpt lat="44.9806" lon="6.438">
        <ele>2159.6</ele>
        <time>2024-08-11T06:58:42Z</time>
      </trkpt>
      <trkpt lat="44.9806" lon="6.438">
        <ele>2159.6</ele>
        <time>2024-08-11T06:58:43Z</time>
      </trkpt>
      <trkpt lat="44.98058" lon="6.43803">
        <ele>2159.6</ele>
        <time>2024-08-11T06:58:44Z</time>
      </trkpt>
      <trkpt lat="44.98058" lon="6.43803">
        <ele>2159.6</ele>
        <time>2024-08-11T06:58:45Z</time>
      </trkpt>
      <trkpt lat="44.98057" lon="6.43806">
        <ele>2159.8</ele>
        <time>2024-08-11T06:58:46Z</time>
      </trkpt>
      <trkpt lat="44.98057" lon="6.43806">
        <ele>2160</ele>
        <time>2024-08-11T06:58:47Z</time>
      </trkpt>
      <trkpt lat="44.98056" lon="6.43809">
        <ele>2160.2</ele>
        <time>2024-08-11T06:58:48Z</time>
      </trkpt>
      <trkpt lat="44.98056" lon="6.43809">
        <ele>2160.4</ele>
        <time>2024-08-11T06:58:49Z</time>
      </trkpt>
      <trkpt lat="44.98056" lon="6.43813">
        <ele>2160.8</ele>
        <time>2024-08-11T06:58:50Z</time>
      </trkpt>
      <trkpt lat="44.98056" lon="6.43813">
        <ele>2160.8</ele>
        <time>2024-08-11T06:58:51Z</time>
      </trkpt>
      <trkpt lat="44.98056" lon="6.43816">
        <ele>2160.8</ele>
        <time>2024-08-11T06:58:52Z</time>
      </trkpt>
      <trkpt lat="44.98056" lon="6.43816">
        <ele>2161</ele>
        <time>2024-08-11T06:58:53Z</time>
      </trkpt>
      <trkpt lat="44.98055" lon="6.43821">
        <ele>2161</ele>
        <time>2024-08-11T06:58:54Z</time>
      </trkpt>
      <trkpt lat="44.98055" lon="6.43821">
        <ele>2161</ele>
        <time>2024-08-11T06:58:55Z</time>
      </trkpt>
      <trkpt lat="44.98055" lon="6.43824">
        <ele>2161</ele>
        <time>2024-08-11T06:58:56Z</time>
      </trkpt>
      <trkpt lat="44.98055" lon="6.43824">
        <ele>2161</ele>
        <time>2024-08-11T06:58:57Z</time>
      </trkpt>
      <trkpt lat="44.98053" lon="6.43827">
        <ele>2161.2</ele>
        <time>2024-08-11T06:58:58Z</time>
      </trkpt>
      <trkpt lat="44.98053" lon="6.43827">
        <ele>2161.2</ele>
        <time>2024-08-11T06:58:59Z</time>
      </trkpt>
      <trkpt lat="44.98052" lon="6.4383">
        <ele>2160.8</ele>
        <time>2024-08-11T06:59:00Z</time>
      </trkpt>
      <trkpt lat="44.98052" lon="6.4383">
        <ele>2160.8</ele>
        <time>2024-08-11T06:59:01Z</time>
      </trkpt>
      <trkpt lat="44.98052" lon="6.4383">
        <ele>2160</ele>
        <time>2024-08-11T06:59:02Z</time>
      </trkpt>
      <trkpt lat="44.98051" lon="6.43835">
        <ele>2160</ele>
        <time>2024-08-11T06:59:03Z</time>
      </trkpt>
      <trkpt lat="44.9805" lon="6.43837">
        <ele>2159.8</ele>
        <time>2024-08-11T06:59:04Z</time>
      </trkpt>
      <trkpt lat="44.9805" lon="6.43837">
        <ele>2159.6</ele>
        <time>2024-08-11T06:59:05Z</time>
      </trkpt>
      <trkpt lat="44.98049" lon="6.4384">
        <ele>2159.4</ele>
        <time>2024-08-11T06:59:06Z</time>
      </trkpt>
      <trkpt lat="44.98049" lon="6.4384">
        <ele>2159.2</ele>
        <time>2024-08-11T06:59:07Z</time>
      </trkpt>
      <trkpt lat="44.98048" lon="6.43843">
        <ele>2159</ele>
        <time>2024-08-11T06:59:08Z</time>
      </trkpt>
      <trkpt lat="44.98048" lon="6.43843">
        <ele>2158.4</ele>
        <time>2024-08-11T06:59:09Z</time>
      </trkpt>
      <trkpt lat="44.98047" lon="6.43847">
        <ele>2158.4</ele>
        <time>2024-08-11T06:59:10Z</time>
      </trkpt>
      <trkpt lat="44.98047" lon="6.43847">
        <ele>2158.2</ele>
        <time>2024-08-11T06:59:11Z</time>
      </trkpt>
      <trkpt lat="44.98047" lon="6.43847">
        <ele>2158</ele>
        <time>2024-08-11T06:59:12Z</time>
      </trkpt>
      <trkpt lat="44.98045" lon="6.43852">
        <ele>2157.8</ele>
        <time>2024-08-11T06:59:13Z</time>
      </trkpt>
      <trkpt lat="44.98045" lon="6.43854">
        <ele>2157.8</ele>
        <time>2024-08-11T06:59:14Z</time>
      </trkpt>
      <trkpt lat="44.98045" lon="6.43854">
        <ele>2158</ele>
        <time>2024-08-11T06:59:15Z</time>
      </trkpt>
      <trkpt lat="44.98045" lon="6.43857">
        <ele>2158.2</ele>
        <time>2024-08-11T06:59:16Z</time>
      </trkpt>
      <trkpt lat="44.98045" lon="6.43857">
        <ele>2158.4</ele>
        <time>2024-08-11T06:59:17Z</time>
      </trkpt>
      <trkpt lat="44.98046" lon="6.43859">
        <ele>2158.4</ele>
        <time>2024-08-11T06:59:18Z</time>
      </trkpt>
      <trkpt lat="44.98046" lon="6.43859">
        <ele>2158.6</ele>
        <time>2024-08-11T06:59:19Z</time>
      </trkpt>
      <trkpt lat="44.98046" lon="6.43859">
        <ele>2158.8</ele>
        <time>2024-08-11T06:59:20Z</time>
      </trkpt>
      <trkpt lat="44.98043" lon="6.43864">
        <ele>2159</ele>
        <time>2024-08-11T06:59:21Z</time>
      </trkpt>
      <trkpt lat="44.98042" lon="6.43865">
        <ele>2159.2</ele>
        <time>2024-08-11T06:59:22Z</time>
      </trkpt>
      <trkpt lat="44.98042" lon="6.43865">
        <ele>2159.4</ele>
        <time>2024-08-11T06:59:23Z</time>
      </trkpt>
      <trkpt lat="44.98042" lon="6.43865">
        <ele>2159.4</ele>
        <time>2024-08-11T06:59:24Z</time>
      </trkpt>
      <trkpt lat="44.9804" lon="6.43869">
        <ele>2159.4</ele>
        <time>2024-08-11T06:59:25Z</time>
      </trkpt>
      <trkpt lat="44.98039" lon="6.4387">
        <ele>2159.4</ele>
        <time>2024-08-11T06:59:26Z</time>
      </trkpt>
      <trkpt lat="44.98039" lon="6.4387">
        <ele>2159.4</ele>
        <time>2024-08-11T06:59:27Z</time>
      </trkpt>
      <trkpt lat="44.98037" lon="6.43873">
        <ele>2159.2</ele>
        <time>2024-08-11T06:59:28Z</time>
      </trkpt>
      <trkpt lat="44.98037" lon="6.43873">
        <ele>2159.2</ele>
        <time>2024-08-11T06:59:29Z</time>
      </trkpt>
      <trkpt lat="44.98035" lon="6.43876">
        <ele>2159.2</ele>
        <time>2024-08-11T06:59:30Z</time>
      </trkpt>
      <trkpt lat="44.98035" lon="6.43876">
        <ele>2159.2</ele>
        <time>2024-08-11T06:59:31Z</time>
      </trkpt>
      <trkpt lat="44.98035" lon="6.43876">
        <ele>2159.2</ele>
        <time>2024-08-11T06:59:32Z</time>
      </trkpt>
      <trkpt lat="44.98032" lon="6.4388">
        <ele>2159.2</ele>
        <time>2024-08-11T06:59:33Z</time>
      </trkpt>
      <trkpt lat="44.98031" lon="6.43881">
        <ele>2159.2</ele>
        <time>2024-08-11T06:59:34Z</time>
      </trkpt>
      <trkpt lat="44.98031" lon="6.43881">
        <ele>2159.2</ele>
        <time>2024-08-11T06:59:35Z</time>
      </trkpt>
      <trkpt lat="44.98029" lon="6.43884">
        <ele>2159</ele>
        <time>2024-08-11T06:59:36Z</time>
      </trkpt>
      <trkpt lat="44.98029" lon="6.43884">
        <ele>2158.8</ele>
        <time>2024-08-11T06:59:37Z</time>
      </trkpt>
      <trkpt lat="44.98027" lon="6.43886">
        <ele>2158.8</ele>
        <time>2024-08-11T06:59:38Z</time>
      </trkpt>
      <trkpt lat="44.98027" lon="6.43886">
        <ele>2158.8</ele>
        <time>2024-08-11T06:59:39Z</time>
      </trkpt>
      <trkpt lat="44.98024" lon="6.43889">
        <ele>2158.6</ele>
        <time>2024-08-11T06:59:40Z</time>
      </trkpt>
      <trkpt lat="44.98024" lon="6.43889">
        <ele>2158.4</ele>
        <time>2024-08-11T06:59:41Z</time>
      </trkpt>
      <trkpt lat="44.98023" lon="6.43892">
        <ele>2158.2</ele>
        <time>2024-08-11T06:59:42Z</time>
      </trkpt>
      <trkpt lat="44.98022" lon="6.43894">
        <ele>2158.2</ele>
        <time>2024-08-11T06:59:43Z</time>
      </trkpt>
      <trkpt lat="44.98022" lon="6.43894">
        <ele>2158.2</ele>
        <time>2024-08-11T06:59:44Z</time>
      </trkpt>
      <trkpt lat="44.9802" lon="6.43896">
        <ele>2158</ele>
        <time>2024-08-11T06:59:45Z</time>
      </trkpt>
      <trkpt lat="44.9802" lon="6.43896">
        <ele>2157.8</ele>
        <time>2024-08-11T06:59:46Z</time>
      </trkpt>
      <trkpt lat="44.98018" lon="6.43898">
        <ele>2157.8</ele>
        <time>2024-08-11T06:59:47Z</time>
      </trkpt>
      <trkpt lat="44.98018" lon="6.43898">
        <ele>2157.8</ele>
        <time>2024-08-11T06:59:48Z</time>
      </trkpt>
      <trkpt lat="44.98016" lon="6.43899">
        <ele>2157.6</ele>
        <time>2024-08-11T06:59:49Z</time>
      </trkpt>
      <trkpt lat="44.98016" lon="6.43899">
        <ele>2157.2</ele>
        <time>2024-08-11T06:59:50Z</time>
      </trkpt>
      <trkpt lat="44.98014" lon="6.43902">
        <ele>2157.2</ele>
        <time>2024-08-11T06:59:51Z</time>
      </trkpt>
      <trkpt lat="44.98014" lon="6.43902">
        <ele>2156.8</ele>
        <time>2024-08-11T06:59:52Z</time>
      </trkpt>
      <trkpt lat="44.98014" lon="6.43902">
        <ele>2156.8</ele>
        <time>2024-08-11T06:59:53Z</time>
      </trkpt>
      <trkpt lat="44.98012" lon="6.43904">
        <ele>2156.6</ele>
        <time>2024-08-11T06:59:54Z</time>
      </trkpt>
      <trkpt lat="44.9801" lon="6.43905">
        <ele>2156.2</ele>
        <time>2024-08-11T06:59:55Z</time>
      </trkpt>
      <trkpt lat="44.9801" lon="6.43905">
        <ele>2156.2</ele>
        <time>2024-08-11T06:59:56Z</time>
      </trkpt>
      <trkpt lat="44.98008" lon="6.43907">
        <ele>2156.2</ele>
        <time>2024-08-11T06:59:57Z</time>
      </trkpt>
      <trkpt lat="44.98008" lon="6.43907">
        <ele>2156</ele>
        <time>2024-08-11T06:59:58Z</time>
      </trkpt>
      <trkpt lat="44.98007" lon="6.4391">
        <ele>2155.6</ele>
        <time>2024-08-11T06:59:59Z</time>
      </trkpt>
      <trkpt lat="44.98007" lon="6.4391">
        <ele>2155.4</ele>
        <time>2024-08-11T07:00:00Z</time>
      </trkpt>
      <trkpt lat="44.98006" lon="6.43913">
        <ele>2155.4</ele>
        <time>2024-08-11T07:00:01Z</time>
      </trkpt>
      <trkpt lat="44.98006" lon="6.43913">
        <ele>2155.2</ele>
        <time>2024-08-11T07:00:02Z</time>
      </trkpt>
      <trkpt lat="44.98005" lon="6.43917">
        <ele>2155.2</ele>
        <time>2024-08-11T07:00:03Z</time>
      </trkpt>
      <trkpt lat="44.98005" lon="6.43917">
        <ele>2155</ele>
        <time>2024-08-11T07:00:04Z</time>
      </trkpt>
      <trkpt lat="44.98005" lon="6.4392">
        <ele>2155</ele>
        <time>2024-08-11T07:00:05Z</time>
      </trkpt>
      <trkpt lat="44.98005" lon="6.4392">
        <ele>2155</ele>
        <time>2024-08-11T07:00:06Z</time>
      </trkpt>
      <trkpt lat="44.98005" lon="6.43923">
        <ele>2154.8</ele>
        <time>2024-08-11T07:00:07Z</time>
      </trkpt>
      <trkpt lat="44.98005" lon="6.43923">
        <ele>2154.8</ele>
        <time>2024-08-11T07:00:08Z</time>
      </trkpt>
      <trkpt lat="44.98003" lon="6.43926">
        <ele>2154.4</ele>
        <time>2024-08-11T07:00:09Z</time>
      </trkpt>
      <trkpt lat="44.98003" lon="6.43926">
        <ele>2154.2</ele>
        <time>2024-08-11T07:00:10Z</time>
      </trkpt>
      <trkpt lat="44.98002" lon="6.43929">
        <ele>2154</ele>
        <time>2024-08-11T07:00:11Z</time>
      </trkpt>
      <trkpt lat="44.98002" lon="6.43929">
        <ele>2153.8</ele>
        <time>2024-08-11T07:00:12Z</time>
      </trkpt>
      <trkpt lat="44.98001" lon="6.43931">
        <ele>2153.4</ele>
        <time>2024-08-11T07:00:13Z</time>
      </trkpt>
      <trkpt lat="44.98001" lon="6.43931">
        <ele>2153.2</ele>
        <time>2024-08-11T07:00:14Z</time>
      </trkpt>
      <trkpt lat="44.98" lon="6.43934">
        <ele>2153</ele>
        <time>2024-08-11T07:00:15Z</time>
      </trkpt>
      <trkpt lat="44.98" lon="6.43934">
        <ele>2152.4</ele>
        <time>2024-08-11T07:00:16Z</time>
      </trkpt>
      <trkpt lat="44.98" lon="6.43934">
        <ele>2152.2</ele>
        <time>2024-08-11T07:00:17Z</time>
      </trkpt>
      <trkpt lat="44.97998" lon="6.43938">
        <ele>2152</ele>
        <time>2024-08-11T07:00:18Z</time>
      </trkpt>
      <trkpt lat="44.97998" lon="6.43939">
        <ele>2151.6</ele>
        <time>2024-08-11T07:00:19Z</time>
      </trkpt>
      <trkpt lat="44.97998" lon="6.43939">
        <ele>2151.2</ele>
        <time>2024-08-11T07:00:20Z</time>
      </trkpt>
      <trkpt lat="44.97996" lon="6.43942">
        <ele>2151</ele>
        <time>2024-08-11T07:00:21Z</time>
      </trkpt>
      <trkpt lat="44.97996" lon="6.43942">
        <ele>2150.6</ele>
        <time>2024-08-11T07:00:22Z</time>
      </trkpt>
      <trkpt lat="44.97996" lon="6.43945">
        <ele>2150.6</ele>
        <time>2024-08-11T07:00:23Z</time>
      </trkpt>
      <trkpt lat="44.97996" lon="6.43945">
        <ele>2150.4</ele>
        <time>2024-08-11T07:00:24Z</time>
      </trkpt>
      <trkpt lat="44.97996" lon="6.43948">
        <ele>2150.4</ele>
        <time>2024-08-11T07:00:25Z</time>
      </trkpt>
      <trkpt lat="44.97996" lon="6.43948">
        <ele>2150.2</ele>
        <time>2024-08-11T07:00:26Z</time>
      </trkpt>
      <trkpt lat="44.97995" lon="6.4395">
        <ele>2150</ele>
        <time>2024-08-11T07:00:27Z</time>
      </trkpt>
      <trkpt lat="44.97995" lon="6.4395">
        <ele>2149.8</ele>
        <time>2024-08-11T07:00:28Z</time>
      </trkpt>
      <trkpt lat="44.97995" lon="6.4395">
        <ele>2149.8</ele>
        <time>2024-08-11T07:00:29Z</time>
      </trkpt>
      <trkpt lat="44.97992" lon="6.43954">
        <ele>2149.6</ele>
        <time>2024-08-11T07:00:30Z</time>
      </trkpt>
      <trkpt lat="44.97991" lon="6.43956">
        <ele>2149.2</ele>
        <time>2024-08-11T07:00:31Z</time>
      </trkpt>
      <trkpt lat="44.97991" lon="6.43956">
        <ele>2149</ele>
        <time>2024-08-11T07:00:32Z</time>
      </trkpt>
      <trkpt lat="44.97991" lon="6.43956">
        <ele>2148.8</ele>
        <time>2024-08-11T07:00:33Z</time>
      </trkpt>
      <trkpt lat="44.97989" lon="6.4396">
        <ele>2148.6</ele>
        <time>2024-08-11T07:00:34Z</time>
      </trkpt>
      <trkpt lat="44.97989" lon="6.4396">
        <ele>2148.4</ele>
        <time>2024-08-11T07:00:35Z</time>
      </trkpt>
      <trkpt lat="44.97988" lon="6.43964">
        <ele>2147.8</ele>
        <time>2024-08-11T07:00:36Z</time>
      </trkpt>
      <trkpt lat="44.97989" lon="6.43965">
        <ele>2147.6</ele>
        <time>2024-08-11T07:00:37Z</time>
      </trkpt>
      <trkpt lat="44.97989" lon="6.43965">
        <ele>2147.4</ele>
        <time>2024-08-11T07:00:38Z</time>
      </trkpt>
      <trkpt lat="44.97989" lon="6.43969">
        <ele>2147</ele>
        <time>2024-08-11T07:00:39Z</time>
      </trkpt>
      <trkpt lat="44.97989" lon="6.43969">
        <ele>2146.8</ele>
        <time>2024-08-11T07:00:40Z</time>
      </trkpt>
      <trkpt lat="44.97989" lon="6.43973">
        <ele>2146.8</ele>
        <time>2024-08-11T07:00:41Z</time>
      </trkpt>
      <trkpt lat="44.97989" lon="6.43973">
        <ele>2146.8</ele>
        <time>2024-08-11T07:00:42Z</time>
      </trkpt>
      <trkpt lat="44.97988" lon="6.43976">
        <ele>2147</ele>
        <time>2024-08-11T07:00:43Z</time>
      </trkpt>
      <trkpt lat="44.97988" lon="6.43976">
        <ele>2147</ele>
        <time>2024-08-11T07:00:44Z</time>
      </trkpt>
      <trkpt lat="44.97988" lon="6.4398">
        <ele>2146.8</ele>
        <time>2024-08-11T07:00:45Z</time>
      </trkpt>
      <trkpt lat="44.97988" lon="6.4398">
        <ele>2146.6</ele>
        <time>2024-08-11T07:00:46Z</time>
      </trkpt>
      <trkpt lat="44.97988" lon="6.4398">
        <ele>2146.4</ele>
        <time>2024-08-11T07:00:47Z</time>
      </trkpt>
      <trkpt lat="44.97987" lon="6.43985">
        <ele>2146.4</ele>
        <time>2024-08-11T07:00:48Z</time>
      </trkpt>
      <trkpt lat="44.97987" lon="6.43986">
        <ele>2146.2</ele>
        <time>2024-08-11T07:00:49Z</time>
      </trkpt>
      <trkpt lat="44.97987" lon="6.43986">
        <ele>2145.8</ele>
        <time>2024-08-11T07:00:50Z</time>
      </trkpt>
      <trkpt lat="44.97986" lon="6.43988">
        <ele>2145.4</ele>
        <time>2024-08-11T07:00:51Z</time>
      </trkpt>
      <trkpt lat="44.97986" lon="6.43988">
        <ele>2145.4</ele>
        <time>2024-08-11T07:00:52Z</time>
      </trkpt>
      <trkpt lat="44.97984" lon="6.4399">
        <ele>2145</ele>
        <time>2024-08-11T07:00:53Z</time>
      </trkpt>
      <trkpt lat="44.97984" lon="6.4399">
        <ele>2144.6</ele>
        <time>2024-08-11T07:00:54Z</time>
      </trkpt>
      <trkpt lat="44.97984" lon="6.4399">
        <ele>2144.4</ele>
        <time>2024-08-11T07:00:55Z</time>
      </trkpt>
      <trkpt lat="44.97983" lon="6.43994">
        <ele>2144.2</ele>
        <time>2024-08-11T07:00:56Z</time>
      </trkpt>
      <trkpt lat="44.97983" lon="6.43994">
        <ele>2143.8</ele>
        <time>2024-08-11T07:00:57Z</time>
      </trkpt>
      <trkpt lat="44.97983" lon="6.43994">
        <ele>2143.6</ele>
        <time>2024-08-11T07:00:58Z</time>
      </trkpt>
      <trkpt lat="44.97983" lon="6.43994">
        <ele>2142.8</ele>
        <time>2024-08-11T07:00:59Z</time>
      </trkpt>
      <trkpt lat="44.97983" lon="6.43999">
        <ele>2142.8</ele>
        <time>2024-08-11T07:01:00Z</time>
      </trkpt>
      <trkpt lat="44.97982" lon="6.44">
        <ele>2143</ele>
        <time>2024-08-11T07:01:01Z</time>
      </trkpt>
      <trkpt lat="44.97982" lon="6.44">
        <ele>2142.8</ele>
        <time>2024-08-11T07:01:02Z</time>
      </trkpt>
      <trkpt lat="44.97982" lon="6.44">
        <ele>2142.6</ele>
        <time>2024-08-11T07:01:03Z</time>
      </trkpt>
      <trkpt lat="44.97981" lon="6.44002">
        <ele>2142.2</ele>
        <time>2024-08-11T07:01:04Z</time>
      </trkpt>
      <trkpt lat="44.97981" lon="6.44002">
        <ele>2141.8</ele>
        <time>2024-08-11T07:01:05Z</time>
      </trkpt>
      <trkpt lat="44.97981" lon="6.44004">
        <ele>2141.4</ele>
        <time>2024-08-11T07:01:06Z</time>
      </trkpt>
      <trkpt lat="44.97981" lon="6.44004">
        <ele>2141</ele>
        <time>2024-08-11T07:01:07Z</time>
      </trkpt>
      <trkpt lat="44.97979" lon="6.44006">
        <ele>2141</ele>
        <time>2024-08-11T07:01:08Z</time>
      </trkpt>
      <trkpt lat="44.97979" lon="6.44006">
        <ele>2141</ele>
        <time>2024-08-11T07:01:09Z</time>
      </trkpt>
      <trkpt lat="44.97979" lon="6.44006">
        <ele>2140.6</ele>
        <time>2024-08-11T07:01:10Z</time>
      </trkpt>
      <trkpt lat="44.97977" lon="6.44008">
        <ele>2140.2</ele>
        <time>2024-08-11T07:01:11Z</time>
      </trkpt>
      <trkpt lat="44.97977" lon="6.44008">
        <ele>2140</ele>
        <time>2024-08-11T07:01:12Z</time>
      </trkpt>
      <trkpt lat="44.97977" lon="6.44008">
        <ele>2139.8</ele>
        <time>2024-08-11T07:01:13Z</time>
      </trkpt>
      <trkpt lat="44.97977" lon="6.44008">
        <ele>2139.6</ele>
        <time>2024-08-11T07:01:14Z</time>
      </trkpt>
      <trkpt lat="44.97976" lon="6.44013">
        <ele>2139.6</ele>
        <time>2024-08-11T07:01:15Z</time>
      </trkpt>
      <trkpt lat="44.97976" lon="6.44013">
        <ele>2139.6</ele>
        <time>2024-08-11T07:01:16Z</time>
      </trkpt>
      <trkpt lat="44.97976" lon="6.44015">
        <ele>2139</ele>
        <time>2024-08-11T07:01:17Z</time>
      </trkpt>
      <trkpt lat="44.97976" lon="6.44015">
        <ele>2139</ele>
        <time>2024-08-11T07:01:18Z</time>
      </trkpt>
      <trkpt lat="44.97976" lon="6.44015">
        <ele>2138.8</ele>
        <time>2024-08-11T07:01:19Z</time>
      </trkpt>
      <trkpt lat="44.97976" lon="6.44018">
        <ele>2138.8</ele>
        <time>2024-08-11T07:01:20Z</time>
      </trkpt>
      <trkpt lat="44.97976" lon="6.44018">
        <ele>2138.6</ele>
        <time>2024-08-11T07:01:21Z</time>
      </trkpt>
      <trkpt lat="44.97976" lon="6.44018">
        <ele>2138.4</ele>
        <time>2024-08-11T07:01:22Z</time>
      </trkpt>
      <trkpt lat="44.97976" lon="6.44018">
        <ele>2138</ele>
        <time>2024-08-11T07:01:23Z</time>
      </trkpt>
      <trkpt lat="44.97974" lon="6.4402">
        <ele>2137.8</ele>
        <time>2024-08-11T07:01:24Z</time>
      </trkpt>
      <trkpt lat="44.97974" lon="6.4402">
        <ele>2137.2</ele>
        <time>2024-08-11T07:01:25Z</time>
      </trkpt>
      <trkpt lat="44.97973" lon="6.44022">
        <ele>2137.2</ele>
        <time>2024-08-11T07:01:26Z</time>
      </trkpt>
      <trkpt lat="44.97973" lon="6.44022">
        <ele>2137.2</ele>
        <time>2024-08-11T07:01:27Z</time>
      </trkpt>
      <trkpt lat="44.97973" lon="6.44022">
        <ele>2136.8</ele>
        <time>2024-08-11T07:01:28Z</time>
      </trkpt>
      <trkpt lat="44.97973" lon="6.44022">
        <ele>2136.2</ele>
        <time>2024-08-11T07:01:29Z</time>
      </trkpt>
      <trkpt lat="44.97971" lon="6.44025">
        <ele>2136</ele>
        <time>2024-08-11T07:01:30Z</time>
      </trkpt>
      <trkpt lat="44.97971" lon="6.44025">
        <ele>2136</ele>
        <time>2024-08-11T07:01:31Z</time>
      </trkpt>
      <trkpt lat="44.9797" lon="6.44027">
        <ele>2135.8</ele>
        <time>2024-08-11T07:01:32Z</time>
      </trkpt>
      <trkpt lat="44.9797" lon="6.44027">
        <ele>2135.8</ele>
        <time>2024-08-11T07:01:33Z</time>
      </trkpt>
      <trkpt lat="44.97969" lon="6.44029">
        <ele>2135.6</ele>
        <time>2024-08-11T07:01:34Z</time>
      </trkpt>
      <trkpt lat="44.97969" lon="6.44029">
        <ele>2135</ele>
        <time>2024-08-11T07:01:35Z</time>
      </trkpt>
      <trkpt lat="44.97969" lon="6.44032">
        <ele>2134.8</ele>
        <time>2024-08-11T07:01:36Z</time>
      </trkpt>
      <trkpt lat="44.97969" lon="6.44032">
        <ele>2134.8</ele>
        <time>2024-08-11T07:01:37Z</time>
      </trkpt>
      <trkpt lat="44.97968" lon="6.44035">
        <ele>2134.4</ele>
        <time>2024-08-11T07:01:38Z</time>
      </trkpt>
      <trkpt lat="44.97968" lon="6.44035">
        <ele>2134</ele>
        <time>2024-08-11T07:01:39Z</time>
      </trkpt>
      <trkpt lat="44.97968" lon="6.44038">
        <ele>2134</ele>
        <time>2024-08-11T07:01:40Z</time>
      </trkpt>
      <trkpt lat="44.97968" lon="6.44038">
        <ele>2133.6</ele>
        <time>2024-08-11T07:01:41Z</time>
      </trkpt>
      <trkpt lat="44.97968" lon="6.44042">
        <ele>2133.2</ele>
        <time>2024-08-11T07:01:42Z</time>
      </trkpt>
      <trkpt lat="44.97968" lon="6.44042">
        <ele>2133</ele>
        <time>2024-08-11T07:01:43Z</time>
      </trkpt>
      <trkpt lat="44.97968" lon="6.44042">
        <ele>2132.8</ele>
        <time>2024-08-11T07:01:44Z</time>
      </trkpt>
      <trkpt lat="44.97966" lon="6.44046">
        <ele>2132.4</ele>
        <time>2024-08-11T07:01:45Z</time>
      </trkpt>
      <trkpt lat="44.97965" lon="6.44048">
        <ele>2132.2</ele>
        <time>2024-08-11T07:01:46Z</time>
      </trkpt>
      <trkpt lat="44.97965" lon="6.44048">
        <ele>2131.8</ele>
        <time>2024-08-11T07:01:47Z</time>
      </trkpt>
      <trkpt lat="44.97963" lon="6.4405">
        <ele>2131.4</ele>
        <time>2024-08-11T07:01:48Z</time>
      </trkpt>
      <trkpt lat="44.97963" lon="6.4405">
        <ele>2131.2</ele>
        <time>2024-08-11T07:01:49Z</time>
      </trkpt>
      <trkpt lat="44.97961" lon="6.44052">
        <ele>2131</ele>
        <time>2024-08-11T07:01:50Z</time>
      </trkpt>
      <trkpt lat="44.97961" lon="6.44052">
        <ele>2130.8</ele>
        <time>2024-08-11T07:01:51Z</time>
      </trkpt>
      <trkpt lat="44.97958" lon="6.44055">
        <ele>2130.6</ele>
        <time>2024-08-11T07:01:52Z</time>
      </trkpt>
      <trkpt lat="44.97958" lon="6.44055">
        <ele>2130.4</ele>
        <time>2024-08-11T07:01:53Z</time>
      </trkpt>
      <trkpt lat="44.97957" lon="6.44057">
        <ele>2130</ele>
        <time>2024-08-11T07:01:54Z</time>
      </trkpt>
      <trkpt lat="44.97957" lon="6.44057">
        <ele>2129.6</ele>
        <time>2024-08-11T07:01:55Z</time>
      </trkpt>
      <trkpt lat="44.97957" lon="6.44057">
        <ele>2129.6</ele>
        <time>2024-08-11T07:01:56Z</time>
      </trkpt>
      <trkpt lat="44.97954" lon="6.44061">
        <ele>2129.2</ele>
        <time>2024-08-11T07:01:57Z</time>
      </trkpt>
      <trkpt lat="44.97953" lon="6.44063">
        <ele>2128.4</ele>
        <time>2024-08-11T07:01:58Z</time>
      </trkpt>
      <trkpt lat="44.97953" lon="6.44063">
        <ele>2127.8</ele>
        <time>2024-08-11T07:01:59Z</time>
      </trkpt>
      <trkpt lat="44.97953" lon="6.44063">
        <ele>2127.6</ele>
        <time>2024-08-11T07:02:00Z</time>
      </trkpt>
      <trkpt lat="44.97951" lon="6.44068">
        <ele>2127.6</ele>
        <time>2024-08-11T07:02:01Z</time>
      </trkpt>
      <trkpt lat="44.97951" lon="6.44069">
        <ele>2127.2</ele>
        <time>2024-08-11T07:02:02Z</time>
      </trkpt>
      <trkpt lat="44.97951" lon="6.44069">
        <ele>2127.2</ele>
        <time>2024-08-11T07:02:03Z</time>
      </trkpt>
      <trkpt lat="44.97951" lon="6.44069">
        <ele>2127.2</ele>
        <time>2024-08-11T07:02:04Z</time>
      </trkpt>
      <trkpt lat="44.9795" lon="6.44074">
        <ele>2127</ele>
        <time>2024-08-11T07:02:05Z</time>
      </trkpt>
      <trkpt lat="44.97949" lon="6.44076">
        <ele>2127</ele>
        <time>2024-08-11T07:02:06Z</time>
      </trkpt>
      <trkpt lat="44.97949" lon="6.44076">
        <ele>2126.8</ele>
        <time>2024-08-11T07:02:07Z</time>
      </trkpt>
      <trkpt lat="44.97949" lon="6.44079">
        <ele>2126.4</ele>
        <time>2024-08-11T07:02:08Z</time>
      </trkpt>
      <trkpt lat="44.97949" lon="6.44079">
        <ele>2126</ele>
        <time>2024-08-11T07:02:09Z</time>
      </trkpt>
      <trkpt lat="44.97948" lon="6.44082">
        <ele>2125.8</ele>
        <time>2024-08-11T07:02:10Z</time>
      </trkpt>
      <trkpt lat="44.97948" lon="6.44082">
        <ele>2125.8</ele>
        <time>2024-08-11T07:02:11Z</time>
      </trkpt>
      <trkpt lat="44.97947" lon="6.44086">
        <ele>2125.6</ele>
        <time>2024-08-11T07:02:12Z</time>
      </trkpt>
      <trkpt lat="44.97947" lon="6.44086">
        <ele>2125.6</ele>
        <time>2024-08-11T07:02:13Z</time>
      </trkpt>
      <trkpt lat="44.97947" lon="6.44086">
        <ele>2125.6</ele>
        <time>2024-08-11T07:02:14Z</time>
      </trkpt>
      <trkpt lat="44.97946" lon="6.4409">
        <ele>2125.2</ele>
        <time>2024-08-11T07:02:15Z</time>
      </trkpt>
      <trkpt lat="44.97945" lon="6.44092">
        <ele>2124.8</ele>
        <time>2024-08-11T07:02:16Z</time>
      </trkpt>
      <trkpt lat="44.97945" lon="6.44092">
        <ele>2124.4</ele>
        <time>2024-08-11T07:02:17Z</time>
      </trkpt>
      <trkpt lat="44.97945" lon="6.44095">
        <ele>2124.2</ele>
        <time>2024-08-11T07:02:18Z</time>
      </trkpt>
      <trkpt lat="44.97945" lon="6.44095">
        <ele>2124.2</ele>
        <time>2024-08-11T07:02:19Z</time>
      </trkpt>
      <trkpt lat="44.97944" lon="6.44099">
        <ele>2124</ele>
        <time>2024-08-11T07:02:20Z</time>
      </trkpt>
      <trkpt lat="44.97944" lon="6.44099">
        <ele>2123.6</ele>
        <time>2024-08-11T07:02:21Z</time>
      </trkpt>
      <trkpt lat="44.97944" lon="6.44102">
        <ele>2123.4</ele>
        <time>2024-08-11T07:02:22Z</time>
      </trkpt>
      <trkpt lat="44.97944" lon="6.44102">
        <ele>2123</ele>
        <time>2024-08-11T07:02:23Z</time>
      </trkpt>
      <trkpt lat="44.97943" lon="6.44105">
        <ele>2122.8</ele>
        <time>2024-08-11T07:02:24Z</time>
      </trkpt>
      <trkpt lat="44.97943" lon="6.44105">
        <ele>2122.4</ele>
        <time>2024-08-11T07:02:25Z</time>
      </trkpt>
      <trkpt lat="44.97943" lon="6.44105">
        <ele>2122.2</ele>
        <time>2024-08-11T07:02:26Z</time>
      </trkpt>
      <trkpt lat="44.97942" lon="6.4411">
        <ele>2121.8</ele>
        <time>2024-08-11T07:02:27Z</time>
      </trkpt>
      <trkpt lat="44.97942" lon="6.44112">
        <ele>2121.8</ele>
        <time>2024-08-11T07:02:28Z</time>
      </trkpt>
      <trkpt lat="44.97942" lon="6.44112">
        <ele>2121.6</ele>
        <time>2024-08-11T07:02:29Z</time>
      </trkpt>
      <trkpt lat="44.97942" lon="6.44115">
        <ele>2121.4</ele>
        <time>2024-08-11T07:02:30Z</time>
      </trkpt>
      <trkpt lat="44.97942" lon="6.44115">
        <ele>2121.2</ele>
        <time>2024-08-11T07:02:31Z</time>
      </trkpt>
      <trkpt lat="44.97942" lon="6.44118">
        <ele>2121</ele>
        <time>2024-08-11T07:02:32Z</time>
      </trkpt>
      <trkpt lat="44.97942" lon="6.44118">
        <ele>2120.8</ele>
        <time>2024-08-11T07:02:33Z</time>
      </trkpt>
      <trkpt lat="44.97942" lon="6.44122">
        <ele>2120.8</ele>
        <time>2024-08-11T07:02:34Z</time>
      </trkpt>
      <trkpt lat="44.97942" lon="6.44122">
        <ele>2120.8</ele>
        <time>2024-08-11T07:02:35Z</time>
      </trkpt>
      <trkpt lat="44.97942" lon="6.44122">
        <ele>2120.6</ele>
        <time>2024-08-11T07:02:36Z</time>
      </trkpt>
      <trkpt lat="44.9794" lon="6.44125">
        <ele>2119.8</ele>
        <time>2024-08-11T07:02:37Z</time>
      </trkpt>
      <trkpt lat="44.9794" lon="6.44125">
        <ele>2119.6</ele>
        <time>2024-08-11T07:02:38Z</time>
      </trkpt>
      <trkpt lat="44.9794" lon="6.44125">
        <ele>2119.2</ele>
        <time>2024-08-11T07:02:39Z</time>
      </trkpt>
      <trkpt lat="44.97939" lon="6.44128">
        <ele>2119</ele>
        <time>2024-08-11T07:02:40Z</time>
      </trkpt>
      <trkpt lat="44.97939" lon="6.44128">
        <ele>2119</ele>
        <time>2024-08-11T07:02:41Z</time>
      </trkpt>
      <trkpt lat="44.97939" lon="6.44128">
        <ele>2118.6</ele>
        <time>2024-08-11T07:02:42Z</time>
      </trkpt>
      <trkpt lat="44.97939" lon="6.44132">
        <ele>2118.4</ele>
        <time>2024-08-11T07:02:43Z</time>
      </trkpt>
      <trkpt lat="44.97939" lon="6.44132">
        <ele>2118.2</ele>
        <time>2024-08-11T07:02:44Z</time>
      </trkpt>
      <trkpt lat="44.97939" lon="6.44135">
        <ele>2117.8</ele>
        <time>2024-08-11T07:02:45Z</time>
      </trkpt>
      <trkpt lat="44.97938" lon="6.44136">
        <ele>2117.6</ele>
        <time>2024-08-11T07:02:46Z</time>
      </trkpt>
      <trkpt lat="44.97938" lon="6.44136">
        <ele>2117.4</ele>
        <time>2024-08-11T07:02:47Z</time>
      </trkpt>
      <trkpt lat="44.97938" lon="6.44136">
        <ele>2117.2</ele>
        <time>2024-08-11T07:02:48Z</time>
      </trkpt>
      <trkpt lat="44.97937" lon="6.44139">
        <ele>2117</ele>
        <time>2024-08-11T07:02:49Z</time>
      </trkpt>
      <trkpt lat="44.97937" lon="6.44139">
        <ele>2116.6</ele>
        <time>2024-08-11T07:02:50Z</time>
      </trkpt>
      <trkpt lat="44.97937" lon="6.44139">
        <ele>2116.4</ele>
        <time>2024-08-11T07:02:51Z</time>
      </trkpt>
      <trkpt lat="44.97936" lon="6.44142">
        <ele>2116.2</ele>
        <time>2024-08-11T07:02:52Z</time>
      </trkpt>
      <trkpt lat="44.97936" lon="6.44142">
        <ele>2115.8</ele>
        <time>2024-08-11T07:02:53Z</time>
      </trkpt>
      <trkpt lat="44.97936" lon="6.44142">
        <ele>2115.6</ele>
        <time>2024-08-11T07:02:54Z</time>
      </trkpt>
      <trkpt lat="44.97936" lon="6.44142">
        <ele>2115.4</ele>
        <time>2024-08-11T07:02:55Z</time>
      </trkpt>
      <trkpt lat="44.97936" lon="6.44142">
        <ele>2115</ele>
        <time>2024-08-11T07:02:56Z</time>
      </trkpt>
      <trkpt lat="44.97936" lon="6.44142">
        <ele>2115</ele>
        <time>2024-08-11T07:02:57Z</time>
      </trkpt>
      <trkpt lat="44.97936" lon="6.44142">
        <ele>2115.2</ele>
        <time>2024-08-11T07:02:58Z</time>
      </trkpt>
      <trkpt lat="44.97936" lon="6.44142">
        <ele>2115.2</ele>
        <time>2024-08-11T07:02:59Z</time>
      </trkpt>
      <trkpt lat="44.97936" lon="6.44142">
        <ele>2115</ele>
        <time>2024-08-11T07:03:00Z</time>
      </trkpt>
      <trkpt lat="44.97936" lon="6.44142">
        <ele>2115</ele>
        <time>2024-08-11T07:03:01Z</time>
      </trkpt>
      <trkpt lat="44.97935" lon="6.44145">
        <ele>2114.4</ele>
        <time>2024-08-11T07:03:02Z</time>
      </trkpt>
      <trkpt lat="44.97935" lon="6.44145">
        <ele>2114.4</ele>
        <time>2024-08-11T07:03:03Z</time>
      </trkpt>
      <trkpt lat="44.97935" lon="6.44148">
        <ele>2113.8</ele>
        <time>2024-08-11T07:03:04Z</time>
      </trkpt>
      <trkpt lat="44.97935" lon="6.44148">
        <ele>2113.6</ele>
        <time>2024-08-11T07:03:05Z</time>
      </trkpt>
      <trkpt lat="44.97935" lon="6.44148">
        <ele>2113.2</ele>
        <time>2024-08-11T07:03:06Z</time>
      </trkpt>
      <trkpt lat="44.97933" lon="6.44153">
        <ele>2112.8</ele>
        <time>2024-08-11T07:03:07Z</time>
      </trkpt>
      <trkpt lat="44.97933" lon="6.44155">
        <ele>2112.6</ele>
        <time>2024-08-11T07:03:08Z</time>
      </trkpt>
      <trkpt lat="44.97933" lon="6.44155">
        <ele>2112.4</ele>
        <time>2024-08-11T07:03:09Z</time>
      </trkpt>
      <trkpt lat="44.97933" lon="6.44155">
        <ele>2112.2</ele>
        <time>2024-08-11T07:03:10Z</time>
      </trkpt>
      <trkpt lat="44.97933" lon="6.44158">
        <ele>2112</ele>
        <time>2024-08-11T07:03:11Z</time>
      </trkpt>
      <trkpt lat="44.97933" lon="6.44158">
        <ele>2111.6</ele>
        <time>2024-08-11T07:03:12Z</time>
      </trkpt>
      <trkpt lat="44.97933" lon="6.44158">
        <ele>2111.2</ele>
        <time>2024-08-11T07:03:13Z</time>
      </trkpt>
      <trkpt lat="44.97932" lon="6.44162">
        <ele>2111</ele>
        <time>2024-08-11T07:03:14Z</time>
      </trkpt>
      <trkpt lat="44.97932" lon="6.44162">
        <ele>2110.6</ele>
        <time>2024-08-11T07:03:15Z</time>
      </trkpt>
      <trkpt lat="44.97932" lon="6.44162">
        <ele>2110.6</ele>
        <time>2024-08-11T07:03:16Z</time>
      </trkpt>
      <trkpt lat="44.97931" lon="6.44164">
        <ele>2110.2</ele>
        <time>2024-08-11T07:03:17Z</time>
      </trkpt>
      <trkpt lat="44.97931" lon="6.44164">
        <ele>2110</ele>
        <time>2024-08-11T07:03:18Z</time>
      </trkpt>
      <trkpt lat="44.9793" lon="6.44167">
        <ele>2109.6</ele>
        <time>2024-08-11T07:03:19Z</time>
      </trkpt>
      <trkpt lat="44.9793" lon="6.44167">
        <ele>2109.6</ele>
        <time>2024-08-11T07:03:20Z</time>
      </trkpt>
      <trkpt lat="44.97929" lon="6.4417">
        <ele>2109.4</ele>
        <time>2024-08-11T07:03:21Z</time>
      </trkpt>
      <trkpt lat="44.97929" lon="6.4417">
        <ele>2109.2</ele>
        <time>2024-08-11T07:03:22Z</time>
      </trkpt>
      <trkpt lat="44.97929" lon="6.44173">
        <ele>2108.6</ele>
        <time>2024-08-11T07:03:23Z</time>
      </trkpt>
      <trkpt lat="44.97929" lon="6.44173">
        <ele>2108.2</ele>
        <time>2024-08-11T07:03:24Z</time>
      </trkpt>
      <trkpt lat="44.97929" lon="6.44173">
        <ele>2108</ele>
        <time>2024-08-11T07:03:25Z</time>
      </trkpt>
      <trkpt lat="44.97928" lon="6.44177">
        <ele>2107.8</ele>
        <time>2024-08-11T07:03:26Z</time>
      </trkpt>
      <trkpt lat="44.97928" lon="6.44177">
        <ele>2107.4</ele>
        <time>2024-08-11T07:03:27Z</time>
      </trkpt>
      <trkpt lat="44.97927" lon="6.4418">
        <ele>2107</ele>
        <time>2024-08-11T07:03:28Z</time>
      </trkpt>
      <trkpt lat="44.97927" lon="6.4418">
        <ele>2106.8</ele>
        <time>2024-08-11T07:03:29Z</time>
      </trkpt>
      <trkpt lat="44.97927" lon="6.4418">
        <ele>2106.4</ele>
        <time>2024-08-11T07:03:30Z</time>
      </trkpt>
      <trkpt lat="44.97926" lon="6.44184">
        <ele>2106</ele>
        <time>2024-08-11T07:03:31Z</time>
      </trkpt>
      <trkpt lat="44.97926" lon="6.44184">
        <ele>2105.8</ele>
        <time>2024-08-11T07:03:32Z</time>
      </trkpt>
      <trkpt lat="44.97926" lon="6.44186">
        <ele>2105.6</ele>
        <time>2024-08-11T07:03:33Z</time>
      </trkpt>
      <trkpt lat="44.97926" lon="6.44186">
        <ele>2105.2</ele>
        <time>2024-08-11T07:03:34Z</time>
      </trkpt>
      <trkpt lat="44.97926" lon="6.44189">
        <ele>2105</ele>
        <time>2024-08-11T07:03:35Z</time>
      </trkpt>
      <trkpt lat="44.97926" lon="6.44189">
        <ele>2104.6</ele>
        <time>2024-08-11T07:03:36Z</time>
      </trkpt>
      <trkpt lat="44.97925" lon="6.44191">
        <ele>2104.4</ele>
        <time>2024-08-11T07:03:37Z</time>
      </trkpt>
      <trkpt lat="44.97925" lon="6.44191">
        <ele>2104</ele>
        <time>2024-08-11T07:03:38Z</time>
      </trkpt>
      <trkpt lat="44.97925" lon="6.44191">
        <ele>2103.8</ele>
        <time>2024-08-11T07:03:39Z</time>
      </trkpt>
      <trkpt lat="44.97924" lon="6.44194">
        <ele>2103.6</ele>
        <time>2024-08-11T07:03:40Z</time>
      </trkpt>
      <trkpt lat="44.97924" lon="6.44194">
        <ele>2103</ele>
        <time>2024-08-11T07:03:41Z</time>
      </trkpt>
      <trkpt lat="44.97923" lon="6.44197">
        <ele>2102.8</ele>
        <time>2024-08-11T07:03:42Z</time>
      </trkpt>
      <trkpt lat="44.97923" lon="6.44197">
        <ele>2102.8</ele>
        <time>2024-08-11T07:03:43Z</time>
      </trkpt>
      <trkpt lat="44.97923" lon="6.442">
        <ele>2102.2</ele>
        <time>2024-08-11T07:03:44Z</time>
      </trkpt>
      <trkpt lat="44.97923" lon="6.442">
        <ele>2102</ele>
        <time>2024-08-11T07:03:45Z</time>
      </trkpt>
      <trkpt lat="44.97923" lon="6.44203">
        <ele>2101.8</ele>
        <time>2024-08-11T07:03:46Z</time>
      </trkpt>
      <trkpt lat="44.97923" lon="6.44203">
        <ele>2101.8</ele>
        <time>2024-08-11T07:03:47Z</time>
      </trkpt>
      <trkpt lat="44.97923" lon="6.44203">
        <ele>2101.4</ele>
        <time>2024-08-11T07:03:48Z</time>
      </trkpt>
      <trkpt lat="44.97923" lon="6.44207">
        <ele>2101</ele>
        <time>2024-08-11T07:03:49Z</time>
      </trkpt>
      <trkpt lat="44.97923" lon="6.44207">
        <ele>2100.8</ele>
        <time>2024-08-11T07:03:50Z</time>
      </trkpt>
      <trkpt lat="44.97924" lon="6.4421">
        <ele>2100.8</ele>
        <time>2024-08-11T07:03:51Z</time>
      </trkpt>
      <trkpt lat="44.97924" lon="6.4421">
        <ele>2100.8</ele>
        <time>2024-08-11T07:03:52Z</time>
      </trkpt>
      <trkpt lat="44.97925" lon="6.44214">
        <ele>2100.8</ele>
        <time>2024-08-11T07:03:53Z</time>
      </trkpt>
      <trkpt lat="44.97925" lon="6.44214">
        <ele>2100.6</ele>
        <time>2024-08-11T07:03:54Z</time>
      </trkpt>
      <trkpt lat="44.97926" lon="6.44218">
        <ele>2100.6</ele>
        <time>2024-08-11T07:03:55Z</time>
      </trkpt>
      <trkpt lat="44.97926" lon="6.44218">
        <ele>2100.4</ele>
        <time>2024-08-11T07:03:56Z</time>
      </trkpt>
      <trkpt lat="44.97927" lon="6.44221">
        <ele>2100.2</ele>
        <time>2024-08-11T07:03:57Z</time>
      </trkpt>
      <trkpt lat="44.97927" lon="6.44221">
        <ele>2100.2</ele>
        <time>2024-08-11T07:03:58Z</time>
      </trkpt>
      <trkpt lat="44.97926" lon="6.44225">
        <ele>2100.6</ele>
        <time>2024-08-11T07:03:59Z</time>
      </trkpt>
      <trkpt lat="44.97926" lon="6.44225">
        <ele>2100.6</ele>
        <time>2024-08-11T07:04:00Z</time>
      </trkpt>
      <trkpt lat="44.97925" lon="6.44229">
        <ele>2100.4</ele>
        <time>2024-08-11T07:04:01Z</time>
      </trkpt>
      <trkpt lat="44.97925" lon="6.44229">
        <ele>2100.4</ele>
        <time>2024-08-11T07:04:02Z</time>
      </trkpt>
      <trkpt lat="44.97925" lon="6.44232">
        <ele>2100.4</ele>
        <time>2024-08-11T07:04:03Z</time>
      </trkpt>
      <trkpt lat="44.97925" lon="6.44232">
        <ele>2100.2</ele>
        <time>2024-08-11T07:04:04Z</time>
      </trkpt>
      <trkpt lat="44.97924" lon="6.44235">
        <ele>2100.2</ele>
        <time>2024-08-11T07:04:05Z</time>
      </trkpt>
      <trkpt lat="44.97924" lon="6.44235">
        <ele>2100.2</ele>
        <time>2024-08-11T07:04:06Z</time>
      </trkpt>
      <trkpt lat="44.97923" lon="6.44238">
        <ele>2099.8</ele>
        <time>2024-08-11T07:04:07Z</time>
      </trkpt>
      <trkpt lat="44.97923" lon="6.44238">
        <ele>2099.6</ele>
        <time>2024-08-11T07:04:08Z</time>
      </trkpt>
      <trkpt lat="44.97921" lon="6.4424">
        <ele>2099.6</ele>
        <time>2024-08-11T07:04:09Z</time>
      </trkpt>
      <trkpt lat="44.97921" lon="6.4424">
        <ele>2099.4</ele>
        <time>2024-08-11T07:04:10Z</time>
      </trkpt>
      <trkpt lat="44.9792" lon="6.44244">
        <ele>2098.8</ele>
        <time>2024-08-11T07:04:11Z</time>
      </trkpt>
      <trkpt lat="44.9792" lon="6.44244">
        <ele>2098.6</ele>
        <time>2024-08-11T07:04:12Z</time>
      </trkpt>
      <trkpt lat="44.9792" lon="6.44244">
        <ele>2098.4</ele>
        <time>2024-08-11T07:04:13Z</time>
      </trkpt>
      <trkpt lat="44.97919" lon="6.44249">
        <ele>2098.2</ele>
        <time>2024-08-11T07:04:14Z</time>
      </trkpt>
      <trkpt lat="44.97919" lon="6.4425">
        <ele>2098</ele>
        <time>2024-08-11T07:04:15Z</time>
      </trkpt>
      <trkpt lat="44.97919" lon="6.4425">
        <ele>2098</ele>
        <time>2024-08-11T07:04:16Z</time>
      </trkpt>
      <trkpt lat="44.97919" lon="6.4425">
        <ele>2097.6</ele>
        <time>2024-08-11T07:04:17Z</time>
      </trkpt>
      <trkpt lat="44.97917" lon="6.44255">
        <ele>2097.4</ele>
        <time>2024-08-11T07:04:18Z</time>
      </trkpt>
      <trkpt lat="44.97917" lon="6.44257">
        <ele>2097.4</ele>
        <time>2024-08-11T07:04:19Z</time>
      </trkpt>
      <trkpt lat="44.97917" lon="6.44257">
        <ele>2097.2</ele>
        <time>2024-08-11T07:04:20Z</time>
      </trkpt>
      <trkpt lat="44.97917" lon="6.44257">
        <ele>2096.8</ele>
        <time>2024-08-11T07:04:21Z</time>
      </trkpt>
      <trkpt lat="44.97915" lon="6.4426">
        <ele>2096.6</ele>
        <time>2024-08-11T07:04:22Z</time>
      </trkpt>
      <trkpt lat="44.97915" lon="6.4426">
        <ele>2096.2</ele>
        <time>2024-08-11T07:04:23Z</time>
      </trkpt>
      <trkpt lat="44.97915" lon="6.4426">
        <ele>2096</ele>
        <time>2024-08-11T07:04:24Z</time>
      </trkpt>
      <trkpt lat="44.97914" lon="6.44258">
        <ele>2095.8</ele>
        <time>2024-08-11T07:04:25Z</time>
      </trkpt>
      <trkpt lat="44.97914" lon="6.44258">
        <ele>2095.6</ele>
        <time>2024-08-11T07:04:26Z</time>
      </trkpt>
      <trkpt lat="44.97913" lon="6.44255">
        <ele>2095.4</ele>
        <time>2024-08-11T07:04:27Z</time>
      </trkpt>
      <trkpt lat="44.97913" lon="6.44255">
        <ele>2095.4</ele>
        <time>2024-08-11T07:04:28Z</time>
      </trkpt>
      <trkpt lat="44.97914" lon="6.44252">
        <ele>2095.2</ele>
        <time>2024-08-11T07:04:29Z</time>
      </trkpt>
      <trkpt lat="44.97914" lon="6.44252">
        <ele>2094.6</ele>
        <time>2024-08-11T07:04:30Z</time>
      </trkpt>
      <trkpt lat="44.97914" lon="6.44252">
        <ele>2094.2</ele>
        <time>2024-08-11T07:04:31Z</time>
      </trkpt>
      <trkpt lat="44.97913" lon="6.44249">
        <ele>2094</ele>
        <time>2024-08-11T07:04:32Z</time>
      </trkpt>
      <trkpt lat="44.97913" lon="6.44249">
        <ele>2093.8</ele>
        <time>2024-08-11T07:04:33Z</time>
      </trkpt>
      <trkpt lat="44.97911" lon="6.44247">
        <ele>2093.6</ele>
        <time>2024-08-11T07:04:34Z</time>
      </trkpt>
      <trkpt lat="44.97911" lon="6.44247">
        <ele>2093</ele>
        <time>2024-08-11T07:04:35Z</time>
      </trkpt>
      <trkpt lat="44.9791" lon="6.44244">
        <ele>2092.6</ele>
        <time>2024-08-11T07:04:36Z</time>
      </trkpt>
      <trkpt lat="44.9791" lon="6.44244">
        <ele>2092.4</ele>
        <time>2024-08-11T07:04:37Z</time>
      </trkpt>
      <trkpt lat="44.9791" lon="6.44244">
        <ele>2092</ele>
        <time>2024-08-11T07:04:38Z</time>
      </trkpt>
      <trkpt lat="44.97909" lon="6.4424">
        <ele>2091.8</ele>
        <time>2024-08-11T07:04:39Z</time>
      </trkpt>
      <trkpt lat="44.9791" lon="6.44238">
        <ele>2091.6</ele>
        <time>2024-08-11T07:04:40Z</time>
      </trkpt>
      <trkpt lat="44.9791" lon="6.44238">
        <ele>2091.4</ele>
        <time>2024-08-11T07:04:41Z</time>
      </trkpt>
      <trkpt lat="44.97909" lon="6.44235">
        <ele>2091.2</ele>
        <time>2024-08-11T07:04:42Z</time>
      </trkpt>
      <trkpt lat="44.97909" lon="6.44235">
        <ele>2090.8</ele>
        <time>2024-08-11T07:04:43Z</time>
      </trkpt>
      <trkpt lat="44.97909" lon="6.44235">
        <ele>2090.8</ele>
        <time>2024-08-11T07:04:44Z</time>
      </trkpt>
      <trkpt lat="44.9791" lon="6.4423">
        <ele>2090.6</ele>
        <time>2024-08-11T07:04:45Z</time>
      </trkpt>
      <trkpt lat="44.9791" lon="6.44228">
        <ele>2090.2</ele>
        <time>2024-08-11T07:04:46Z</time>
      </trkpt>
      <trkpt lat="44.9791" lon="6.44228">
        <ele>2090.2</ele>
        <time>2024-08-11T07:04:47Z</time>
      </trkpt>
      <trkpt lat="44.9791" lon="6.44228">
        <ele>2090.2</ele>
        <time>2024-08-11T07:04:48Z</time>
      </trkpt>
      <trkpt lat="44.9791" lon="6.44225">
        <ele>2090.2</ele>
        <time>2024-08-11T07:04:49Z</time>
      </trkpt>
      <trkpt lat="44.9791" lon="6.44225">
        <ele>2090.2</ele>
        <time>2024-08-11T07:04:50Z</time>
      </trkpt>
      <trkpt lat="44.97909" lon="6.44223">
        <ele>2090</ele>
        <time>2024-08-11T07:04:51Z</time>
      </trkpt>
      <trkpt lat="44.97909" lon="6.44223">
        <ele>2089.6</ele>
        <time>2024-08-11T07:04:52Z</time>
      </trkpt>
      <trkpt lat="44.97909" lon="6.44223">
        <ele>2089.6</ele>
        <time>2024-08-11T07:04:53Z</time>
      </trkpt>
      <trkpt lat="44.97907" lon="6.4422">
        <ele>2089.2</ele>
        <time>2024-08-11T07:04:54Z</time>
      </trkpt>
      <trkpt lat="44.97907" lon="6.4422">
        <ele>2088.8</ele>
        <time>2024-08-11T07:04:55Z</time>
      </trkpt>
      <trkpt lat="44.97907" lon="6.4422">
        <ele>2088.6</ele>
        <time>2024-08-11T07:04:56Z</time>
      </trkpt>
      <trkpt lat="44.97907" lon="6.4422">
        <ele>2088.4</ele>
        <time>2024-08-11T07:04:57Z</time>
      </trkpt>
      <trkpt lat="44.97905" lon="6.44221">
        <ele>2088.4</ele>
        <time>2024-08-11T07:04:58Z</time>
      </trkpt>
      <trkpt lat="44.97905" lon="6.44221">
        <ele>2088</ele>
        <time>2024-08-11T07:04:59Z</time>
      </trkpt>
      <trkpt lat="44.97905" lon="6.44221">
        <ele>2087.6</ele>
        <time>2024-08-11T07:05:00Z</time>
      </trkpt>
      <trkpt lat="44.97904" lon="6.44223">
        <ele>2087.4</ele>
        <time>2024-08-11T07:05:01Z</time>
      </trkpt>
      <trkpt lat="44.97904" lon="6.44223">
        <ele>2087</ele>
        <time>2024-08-11T07:05:02Z</time>
      </trkpt>
      <trkpt lat="44.97904" lon="6.44223">
        <ele>2087</ele>
        <time>2024-08-11T07:05:03Z</time>
      </trkpt>
      <trkpt lat="44.97904" lon="6.44227">
        <ele>2086.8</ele>
        <time>2024-08-11T07:05:04Z</time>
      </trkpt>
      <trkpt lat="44.97904" lon="6.44229">
        <ele>2086.2</ele>
        <time>2024-08-11T07:05:05Z</time>
      </trkpt>
      <trkpt lat="44.97904" lon="6.44229">
        <ele>2086.2</ele>
        <time>2024-08-11T07:05:06Z</time>
      </trkpt>
      <trkpt lat="44.97904" lon="6.44229">
        <ele>2085.8</ele>
        <time>2024-08-11T07:05:07Z</time>
      </trkpt>
      <trkpt lat="44.97904" lon="6.44229">
        <ele>2085.6</ele>
        <time>2024-08-11T07:05:08Z</time>
      </trkpt>
      <trkpt lat="44.97904" lon="6.44229">
        <ele>2085.4</ele>
        <time>2024-08-11T07:05:09Z</time>
      </trkpt>
      <trkpt lat="44.97904" lon="6.44229">
        <ele>2085.2</ele>
        <time>2024-08-11T07:05:10Z</time>
      </trkpt>
      <trkpt lat="44.97903" lon="6.44232">
        <ele>2084.8</ele>
        <time>2024-08-11T07:05:11Z</time>
      </trkpt>
      <trkpt lat="44.97903" lon="6.44232">
        <ele>2084.6</ele>
        <time>2024-08-11T07:05:12Z</time>
      </trkpt>
      <trkpt lat="44.97901" lon="6.44234">
        <ele>2084.4</ele>
        <time>2024-08-11T07:05:13Z</time>
      </trkpt>
      <trkpt lat="44.97901" lon="6.44234">
        <ele>2084</ele>
        <time>2024-08-11T07:05:14Z</time>
      </trkpt>
      <trkpt lat="44.97901" lon="6.44234">
        <ele>2083.8</ele>
        <time>2024-08-11T07:05:15Z</time>
      </trkpt>
      <trkpt lat="44.97897" lon="6.44237">
        <ele>2083.4</ele>
        <time>2024-08-11T07:05:16Z</time>
      </trkpt>
      <trkpt lat="44.97897" lon="6.44238">
        <ele>2083.2</ele>
        <time>2024-08-11T07:05:17Z</time>
      </trkpt>
      <trkpt lat="44.97897" lon="6.44238">
        <ele>2082.6</ele>
        <time>2024-08-11T07:05:18Z</time>
      </trkpt>
      <trkpt lat="44.97897" lon="6.44238">
        <ele>2082.2</ele>
        <time>2024-08-11T07:05:19Z</time>
      </trkpt>
      <trkpt lat="44.97897" lon="6.44241">
        <ele>2082.2</ele>
        <time>2024-08-11T07:05:20Z</time>
      </trkpt>
      <trkpt lat="44.97897" lon="6.44241">
        <ele>2082.2</ele>
        <time>2024-08-11T07:05:21Z</time>
      </trkpt>
      <trkpt lat="44.97897" lon="6.44241">
        <ele>2081.6</ele>
        <time>2024-08-11T07:05:22Z</time>
      </trkpt>
      <trkpt lat="44.97894" lon="6.44243">
        <ele>2081.4</ele>
        <time>2024-08-11T07:05:23Z</time>
      </trkpt>
      <trkpt lat="44.97893" lon="6.44243">
        <ele>2081.2</ele>
        <time>2024-08-11T07:05:24Z</time>
      </trkpt>
      <trkpt lat="44.97893" lon="6.44243">
        <ele>2080.8</ele>
        <time>2024-08-11T07:05:25Z</time>
      </trkpt>
      <trkpt lat="44.97893" lon="6.44243">
        <ele>2080.8</ele>
        <time>2024-08-11T07:05:26Z</time>
      </trkpt>
      <trkpt lat="44.97893" lon="6.44243">
        <ele>2080.4</ele>
        <time>2024-08-11T07:05:27Z</time>
      </trkpt>
      <trkpt lat="44.97891" lon="6.44246">
        <ele>2080.2</ele>
        <time>2024-08-11T07:05:28Z</time>
      </trkpt>
      <trkpt lat="44.97891" lon="6.44247">
        <ele>2080</ele>
        <time>2024-08-11T07:05:29Z</time>
      </trkpt>
      <trkpt lat="44.97891" lon="6.44247">
        <ele>2079.6</ele>
        <time>2024-08-11T07:05:30Z</time>
      </trkpt>
      <trkpt lat="44.97889" lon="6.44249">
        <ele>2079.2</ele>
        <time>2024-08-11T07:05:31Z</time>
      </trkpt>
      <trkpt lat="44.97889" lon="6.44249">
        <ele>2079</ele>
        <time>2024-08-11T07:05:32Z</time>
      </trkpt>
      <trkpt lat="44.97887" lon="6.44251">
        <ele>2078.6</ele>
        <time>2024-08-11T07:05:33Z</time>
      </trkpt>
      <trkpt lat="44.97887" lon="6.44251">
        <ele>2078.6</ele>
        <time>2024-08-11T07:05:34Z</time>
      </trkpt>
      <trkpt lat="44.97887" lon="6.44251">
        <ele>2078.4</ele>
        <time>2024-08-11T07:05:35Z</time>
      </trkpt>
      <trkpt lat="44.97886" lon="6.44254">
        <ele>2078.2</ele>
        <time>2024-08-11T07:05:36Z</time>
      </trkpt>
      <trkpt lat="44.97886" lon="6.44254">
        <ele>2078</ele>
        <time>2024-08-11T07:05:37Z</time>
      </trkpt>
      <trkpt lat="44.97886" lon="6.44254">
        <ele>2078</ele>
        <time>2024-08-11T07:05:38Z</time>
      </trkpt>
      <trkpt lat="44.97884" lon="6.44257">
        <ele>2077.4</ele>
        <time>2024-08-11T07:05:39Z</time>
      </trkpt>
      <trkpt lat="44.97884" lon="6.44257">
        <ele>2077</ele>
        <time>2024-08-11T07:05:40Z</time>
      </trkpt>
      <trkpt lat="44.97884" lon="6.44257">
        <ele>2077</ele>
        <time>2024-08-11T07:05:41Z</time>
      </trkpt>
      <trkpt lat="44.97884" lon="6.44257">
        <ele>2076.8</ele>
        <time>2024-08-11T07:05:42Z</time>
      </trkpt>
      <trkpt lat="44.97884" lon="6.44257">
        <ele>2076.8</ele>
        <time>2024-08-11T07:05:43Z</time>
      </trkpt>
      <trkpt lat="44.97884" lon="6.44257">
        <ele>2077</ele>
        <time>2024-08-11T07:05:44Z</time>
      </trkpt>
      <trkpt lat="44.97884" lon="6.44257">
        <ele>2077</ele>
        <time>2024-08-11T07:05:45Z</time>
      </trkpt>
      <trkpt lat="44.97884" lon="6.44257">
        <ele>2077</ele>
        <time>2024-08-11T07:05:46Z</time>
      </trkpt>
      <trkpt lat="44.97884" lon="6.44257">
        <ele>2077</ele>
        <time>2024-08-11T07:05:47Z</time>
      </trkpt>
      <trkpt lat="44.97884" lon="6.44257">
        <ele>2077</ele>
        <time>2024-08-11T07:05:48Z</time>
      </trkpt>
      <trkpt lat="44.97884" lon="6.44257">
        <ele>2077</ele>
        <time>2024-08-11T07:05:49Z</time>
      </trkpt>
      <trkpt lat="44.97884" lon="6.44257">
        <ele>2077</ele>
        <time>2024-08-11T07:05:50Z</time>
      </trkpt>
      <trkpt lat="44.97884" lon="6.44257">
        <ele>2077</ele>
        <time>2024-08-11T07:05:51Z</time>
      </trkpt>
      <trkpt lat="44.97884" lon="6.44257">
        <ele>2076.8</ele>
        <time>2024-08-11T07:05:52Z</time>
      </trkpt>
      <trkpt lat="44.97884" lon="6.44257">
        <ele>2076.8</ele>
        <time>2024-08-11T07:05:53Z</time>
      </trkpt>
      <trkpt lat="44.97884" lon="6.44257">
        <ele>2077</ele>
        <time>2024-08-11T07:05:54Z</time>
      </trkpt>
      <trkpt lat="44.97884" lon="6.44257">
        <ele>2077</ele>
        <time>2024-08-11T07:05:55Z</time>
      </trkpt>
      <trkpt lat="44.97884" lon="6.44257">
        <ele>2077</ele>
        <time>2024-08-11T07:05:56Z</time>
      </trkpt>
      <trkpt lat="44.97884" lon="6.44257">
        <ele>2077</ele>
        <time>2024-08-11T07:05:57Z</time>
      </trkpt>
      <trkpt lat="44.97884" lon="6.44257">
        <ele>2077</ele>
        <time>2024-08-11T07:05:58Z</time>
      </trkpt>
      <trkpt lat="44.97884" lon="6.44257">
        <ele>2076.8</ele>
        <time>2024-08-11T07:05:59Z</time>
      </trkpt>
      <trkpt lat="44.97884" lon="6.44257">
        <ele>2076.8</ele>
        <time>2024-08-11T07:06:00Z</time>
      </trkpt>
      <trkpt lat="44.97884" lon="6.44257">
        <ele>2076.6</ele>
        <time>2024-08-11T07:06:01Z</time>
      </trkpt>
      <trkpt lat="44.97884" lon="6.44259">
        <ele>2076.2</ele>
        <time>2024-08-11T07:06:02Z</time>
      </trkpt>
      <trkpt lat="44.97884" lon="6.44259">
        <ele>2076.2</ele>
        <time>2024-08-11T07:06:03Z</time>
      </trkpt>
      <trkpt lat="44.97884" lon="6.44262">
        <ele>2076</ele>
        <time>2024-08-11T07:06:04Z</time>
      </trkpt>
      <trkpt lat="44.97884" lon="6.44262">
        <ele>2076</ele>
        <time>2024-08-11T07:06:05Z</time>
      </trkpt>
      <trkpt lat="44.97884" lon="6.44262">
        <ele>2076</ele>
        <time>2024-08-11T07:06:06Z</time>
      </trkpt>
      <trkpt lat="44.97882" lon="6.44265">
        <ele>2075.6</ele>
        <time>2024-08-11T07:06:07Z</time>
      </trkpt>
      <trkpt lat="44.97882" lon="6.44265">
        <ele>2075.2</ele>
        <time>2024-08-11T07:06:08Z</time>
      </trkpt>
      <trkpt lat="44.97882" lon="6.44265">
        <ele>2075</ele>
        <time>2024-08-11T07:06:09Z</time>
      </trkpt>
      <trkpt lat="44.97881" lon="6.44268">
        <ele>2074.8</ele>
        <time>2024-08-11T07:06:10Z</time>
      </trkpt>
      <trkpt lat="44.97881" lon="6.44268">
        <ele>2074.4</ele>
        <time>2024-08-11T07:06:11Z</time>
      </trkpt>
      <trkpt lat="44.97881" lon="6.44268">
        <ele>2074.2</ele>
        <time>2024-08-11T07:06:12Z</time>
      </trkpt>
      <trkpt lat="44.97879" lon="6.4427">
        <ele>2074</ele>
        <time>2024-08-11T07:06:13Z</time>
      </trkpt>
      <trkpt lat="44.97879" lon="6.4427">
        <ele>2073.6</ele>
        <time>2024-08-11T07:06:14Z</time>
      </trkpt>
      <trkpt lat="44.97879" lon="6.4427">
        <ele>2073.4</ele>
        <time>2024-08-11T07:06:15Z</time>
      </trkpt>
      <trkpt lat="44.97879" lon="6.44274">
        <ele>2073.4</ele>
        <time>2024-08-11T07:06:16Z</time>
      </trkpt>
      <trkpt lat="44.97879" lon="6.44274">
        <ele>2072.8</ele>
        <time>2024-08-11T07:06:17Z</time>
      </trkpt>
      <trkpt lat="44.97879" lon="6.44274">
        <ele>2072.6</ele>
        <time>2024-08-11T07:06:18Z</time>
      </trkpt>
      <trkpt lat="44.97879" lon="6.44278">
        <ele>2072.2</ele>
        <time>2024-08-11T07:06:19Z</time>
      </trkpt>
      <trkpt lat="44.97879" lon="6.44279">
        <ele>2072.2</ele>
        <time>2024-08-11T07:06:20Z</time>
      </trkpt>
      <trkpt lat="44.97879" lon="6.44279">
        <ele>2072</ele>
        <time>2024-08-11T07:06:21Z</time>
      </trkpt>
      <trkpt lat="44.97879" lon="6.44279">
        <ele>2071.8</ele>
        <time>2024-08-11T07:06:22Z</time>
      </trkpt>
      <trkpt lat="44.97879" lon="6.44279">
        <ele>2071.6</ele>
        <time>2024-08-11T07:06:23Z</time>
      </trkpt>
      <trkpt lat="44.97879" lon="6.44285">
        <ele>2071.4</ele>
        <time>2024-08-11T07:06:24Z</time>
      </trkpt>
      <trkpt lat="44.97879" lon="6.44285">
        <ele>2071</ele>
        <time>2024-08-11T07:06:25Z</time>
      </trkpt>
      <trkpt lat="44.97879" lon="6.44285">
        <ele>2070.8</ele>
        <time>2024-08-11T07:06:26Z</time>
      </trkpt>
      <trkpt lat="44.9788" lon="6.44287">
        <ele>2070.8</ele>
        <time>2024-08-11T07:06:27Z</time>
      </trkpt>
      <trkpt lat="44.9788" lon="6.44287">
        <ele>2070.6</ele>
        <time>2024-08-11T07:06:28Z</time>
      </trkpt>
      <trkpt lat="44.9788" lon="6.44287">
        <ele>2070.4</ele>
        <time>2024-08-11T07:06:29Z</time>
      </trkpt>
      <trkpt lat="44.97879" lon="6.44291">
        <ele>2070</ele>
        <time>2024-08-11T07:06:30Z</time>
      </trkpt>
      <trkpt lat="44.97879" lon="6.44291">
        <ele>2069.8</ele>
        <time>2024-08-11T07:06:31Z</time>
      </trkpt>
      <trkpt lat="44.97879" lon="6.44291">
        <ele>2069.8</ele>
        <time>2024-08-11T07:06:32Z</time>
      </trkpt>
      <trkpt lat="44.9788" lon="6.44293">
        <ele>2069.4</ele>
        <time>2024-08-11T07:06:33Z</time>
      </trkpt>
      <trkpt lat="44.9788" lon="6.44293">
        <ele>2069.2</ele>
        <time>2024-08-11T07:06:34Z</time>
      </trkpt>
      <trkpt lat="44.9788" lon="6.44296">
        <ele>2069</ele>
        <time>2024-08-11T07:06:35Z</time>
      </trkpt>
      <trkpt lat="44.9788" lon="6.44296">
        <ele>2069</ele>
        <time>2024-08-11T07:06:36Z</time>
      </trkpt>
      <trkpt lat="44.9788" lon="6.44296">
        <ele>2068.8</ele>
        <time>2024-08-11T07:06:37Z</time>
      </trkpt>
      <trkpt lat="44.9788" lon="6.44299">
        <ele>2068.4</ele>
        <time>2024-08-11T07:06:38Z</time>
      </trkpt>
      <trkpt lat="44.9788" lon="6.44299">
        <ele>2068.2</ele>
        <time>2024-08-11T07:06:39Z</time>
      </trkpt>
      <trkpt lat="44.97881" lon="6.44302">
        <ele>2068</ele>
        <time>2024-08-11T07:06:40Z</time>
      </trkpt>
      <trkpt lat="44.97881" lon="6.44302">
        <ele>2067.8</ele>
        <time>2024-08-11T07:06:41Z</time>
      </trkpt>
      <trkpt lat="44.97881" lon="6.44302">
        <ele>2067.8</ele>
        <time>2024-08-11T07:06:42Z</time>
      </trkpt>
      <trkpt lat="44.9788" lon="6.44306">
        <ele>2067.4</ele>
        <time>2024-08-11T07:06:43Z</time>
      </trkpt>
      <trkpt lat="44.9788" lon="6.44306">
        <ele>2067</ele>
        <time>2024-08-11T07:06:44Z</time>
      </trkpt>
      <trkpt lat="44.9788" lon="6.44306">
        <ele>2066.8</ele>
        <time>2024-08-11T07:06:45Z</time>
      </trkpt>
      <trkpt lat="44.9788" lon="6.44309">
        <ele>2066.6</ele>
        <time>2024-08-11T07:06:46Z</time>
      </trkpt>
      <trkpt lat="44.9788" lon="6.44309">
        <ele>2066.6</ele>
        <time>2024-08-11T07:06:47Z</time>
      </trkpt>
      <trkpt lat="44.9788" lon="6.44309">
        <ele>2066.2</ele>
        <time>2024-08-11T07:06:48Z</time>
      </trkpt>
      <trkpt lat="44.97878" lon="6.44311">
        <ele>2066</ele>
        <time>2024-08-11T07:06:49Z</time>
      </trkpt>
      <trkpt lat="44.97878" lon="6.44311">
        <ele>2065.6</ele>
        <time>2024-08-11T07:06:50Z</time>
      </trkpt>
      <trkpt lat="44.97877" lon="6.44311">
        <ele>2065</ele>
        <time>2024-08-11T07:06:51Z</time>
      </trkpt>
      <trkpt lat="44.97877" lon="6.44311">
        <ele>2064.6</ele>
        <time>2024-08-11T07:06:52Z</time>
      </trkpt>
      <trkpt lat="44.97877" lon="6.44311">
        <ele>2064.6</ele>
        <time>2024-08-11T07:06:53Z</time>
      </trkpt>
      <trkpt lat="44.97877" lon="6.44311">
        <ele>2064.2</ele>
        <time>2024-08-11T07:06:54Z</time>
      </trkpt>
      <trkpt lat="44.97874" lon="6.44313">
        <ele>2064</ele>
        <time>2024-08-11T07:06:55Z</time>
      </trkpt>
      <trkpt lat="44.97874" lon="6.44313">
        <ele>2064</ele>
        <time>2024-08-11T07:06:56Z</time>
      </trkpt>
      <trkpt lat="44.97874" lon="6.44315">
        <ele>2063.6</ele>
        <time>2024-08-11T07:06:57Z</time>
      </trkpt>
      <trkpt lat="44.97874" lon="6.44315">
        <ele>2063.2</ele>
        <time>2024-08-11T07:06:58Z</time>
      </trkpt>
      <trkpt lat="44.97874" lon="6.44315">
        <ele>2063</ele>
        <time>2024-08-11T07:06:59Z</time>
      </trkpt>
      <trkpt lat="44.97874" lon="6.44315">
        <ele>2062.6</ele>
        <time>2024-08-11T07:07:00Z</time>
      </trkpt>
      <trkpt lat="44.97874" lon="6.44315">
        <ele>2062.4</ele>
        <time>2024-08-11T07:07:01Z</time>
      </trkpt>
      <trkpt lat="44.97873" lon="6.44318">
        <ele>2062.4</ele>
        <time>2024-08-11T07:07:02Z</time>
      </trkpt>
      <trkpt lat="44.97873" lon="6.44318">
        <ele>2062.4</ele>
        <time>2024-08-11T07:07:03Z</time>
      </trkpt>
      <trkpt lat="44.97873" lon="6.44318">
        <ele>2062.2</ele>
        <time>2024-08-11T07:07:04Z</time>
      </trkpt>
      <trkpt lat="44.97873" lon="6.44318">
        <ele>2062.2</ele>
        <time>2024-08-11T07:07:05Z</time>
      </trkpt>
      <trkpt lat="44.97873" lon="6.44318">
        <ele>2062.2</ele>
        <time>2024-08-11T07:07:06Z</time>
      </trkpt>
      <trkpt lat="44.97873" lon="6.44318">
        <ele>2062.2</ele>
        <time>2024-08-11T07:07:07Z</time>
      </trkpt>
      <trkpt lat="44.97873" lon="6.44318">
        <ele>2062</ele>
        <time>2024-08-11T07:07:08Z</time>
      </trkpt>
      <trkpt lat="44.97873" lon="6.44318">
        <ele>2062</ele>
        <time>2024-08-11T07:07:09Z</time>
      </trkpt>
      <trkpt lat="44.97873" lon="6.44318">
        <ele>2062</ele>
        <time>2024-08-11T07:07:10Z</time>
      </trkpt>
      <trkpt lat="44.97873" lon="6.44318">
        <ele>2062</ele>
        <time>2024-08-11T07:07:11Z</time>
      </trkpt>
      <trkpt lat="44.97873" lon="6.44318">
        <ele>2062.2</ele>
        <time>2024-08-11T07:07:12Z</time>
      </trkpt>
      <trkpt lat="44.97873" lon="6.44318">
        <ele>2062.2</ele>
        <time>2024-08-11T07:07:13Z</time>
      </trkpt>
      <trkpt lat="44.97873" lon="6.44318">
        <ele>2062</ele>
        <time>2024-08-11T07:07:14Z</time>
      </trkpt>
      <trkpt lat="44.97873" lon="6.44318">
        <ele>2062</ele>
        <time>2024-08-11T07:07:15Z</time>
      </trkpt>
      <trkpt lat="44.97873" lon="6.44318">
        <ele>2062</ele>
        <time>2024-08-11T07:07:16Z</time>
      </trkpt>
      <trkpt lat="44.97873" lon="6.44318">
        <ele>2062</ele>
        <time>2024-08-11T07:07:17Z</time>
      </trkpt>
      <trkpt lat="44.97873" lon="6.44318">
        <ele>2062</ele>
        <time>2024-08-11T07:07:18Z</time>
      </trkpt>
      <trkpt lat="44.97873" lon="6.44318">
        <ele>2062</ele>
        <time>2024-08-11T07:07:19Z</time>
      </trkpt>
      <trkpt lat="44.97873" lon="6.44318">
        <ele>2062</ele>
        <time>2024-08-11T07:07:20Z</time>
      </trkpt>
      <trkpt lat="44.97873" lon="6.44318">
        <ele>2062</ele>
        <time>2024-08-11T07:07:21Z</time>
      </trkpt>
      <trkpt lat="44.97873" lon="6.44318">
        <ele>2062.2</ele>
        <time>2024-08-11T07:07:22Z</time>
      </trkpt>
      <trkpt lat="44.97873" lon="6.44318">
        <ele>2062.2</ele>
        <time>2024-08-11T07:07:23Z</time>
      </trkpt>
      <trkpt lat="44.97873" lon="6.44318">
        <ele>2062.2</ele>
        <time>2024-08-11T07:07:24Z</time>
      </trkpt>
      <trkpt lat="44.97873" lon="6.44318">
        <ele>2062</ele>
        <time>2024-08-11T07:07:25Z</time>
      </trkpt>
      <trkpt lat="44.97873" lon="6.44318">
        <ele>2061.6</ele>
        <time>2024-08-11T07:07:26Z</time>
      </trkpt>
      <trkpt lat="44.97874" lon="6.44324">
        <ele>2061.4</ele>
        <time>2024-08-11T07:07:27Z</time>
      </trkpt>
      <trkpt lat="44.97873" lon="6.44325">
        <ele>2061</ele>
        <time>2024-08-11T07:07:28Z</time>
      </trkpt>
      <trkpt lat="44.97873" lon="6.44325">
        <ele>2060.6</ele>
        <time>2024-08-11T07:07:29Z</time>
      </trkpt>
      <trkpt lat="44.97872" lon="6.44328">
        <ele>2060.4</ele>
        <time>2024-08-11T07:07:30Z</time>
      </trkpt>
      <trkpt lat="44.97872" lon="6.44328">
        <ele>2060</ele>
        <time>2024-08-11T07:07:31Z</time>
      </trkpt>
      <trkpt lat="44.97872" lon="6.44328">
        <ele>2059.6</ele>
        <time>2024-08-11T07:07:32Z</time>
      </trkpt>
      <trkpt lat="44.97872" lon="6.44332">
        <ele>2059.2</ele>
        <time>2024-08-11T07:07:33Z</time>
      </trkpt>
      <trkpt lat="44.97871" lon="6.44334">
        <ele>2059.2</ele>
        <time>2024-08-11T07:07:34Z</time>
      </trkpt>
      <trkpt lat="44.97871" lon="6.44334">
        <ele>2059</ele>
        <time>2024-08-11T07:07:35Z</time>
      </trkpt>
      <trkpt lat="44.97871" lon="6.44334">
        <ele>2059</ele>
        <time>2024-08-11T07:07:36Z</time>
      </trkpt>
      <trkpt lat="44.9787" lon="6.44337">
        <ele>2058.8</ele>
        <time>2024-08-11T07:07:37Z</time>
      </trkpt>
      <trkpt lat="44.9787" lon="6.44337">
        <ele>2058.2</ele>
        <time>2024-08-11T07:07:38Z</time>
      </trkpt>
      <trkpt lat="44.97869" lon="6.44339">
        <ele>2058.2</ele>
        <time>2024-08-11T07:07:39Z</time>
      </trkpt>
      <trkpt lat="44.97869" lon="6.44339">
        <ele>2058</ele>
        <time>2024-08-11T07:07:40Z</time>
      </trkpt>
      <trkpt lat="44.97869" lon="6.44339">
        <ele>2057.8</ele>
        <time>2024-08-11T07:07:41Z</time>
      </trkpt>
      <trkpt lat="44.97868" lon="6.44342">
        <ele>2057.4</ele>
        <time>2024-08-11T07:07:42Z</time>
      </trkpt>
      <trkpt lat="44.97867" lon="6.44343">
        <ele>2057.2</ele>
        <time>2024-08-11T07:07:43Z</time>
      </trkpt>
      <trkpt lat="44.97867" lon="6.44343">
        <ele>2056.8</ele>
        <time>2024-08-11T07:07:44Z</time>
      </trkpt>
      <trkpt lat="44.97867" lon="6.44343">
        <ele>2056.2</ele>
        <time>2024-08-11T07:07:45Z</time>
      </trkpt>
      <trkpt lat="44.97865" lon="6.4434">
        <ele>2056.2</ele>
        <time>2024-08-11T07:07:46Z</time>
      </trkpt>
      <trkpt lat="44.97865" lon="6.4434">
        <ele>2056.2</ele>
        <time>2024-08-11T07:07:47Z</time>
      </trkpt>
      <trkpt lat="44.97864" lon="6.44337">
        <ele>2056</ele>
        <time>2024-08-11T07:07:48Z</time>
      </trkpt>
      <trkpt lat="44.97864" lon="6.44337">
        <ele>2055.8</ele>
        <time>2024-08-11T07:07:49Z</time>
      </trkpt>
      <trkpt lat="44.97864" lon="6.44337">
        <ele>2055.6</ele>
        <time>2024-08-11T07:07:50Z</time>
      </trkpt>
      <trkpt lat="44.97863" lon="6.44332">
        <ele>2055.2</ele>
        <time>2024-08-11T07:07:51Z</time>
      </trkpt>
      <trkpt lat="44.97863" lon="6.44332">
        <ele>2055.2</ele>
        <time>2024-08-11T07:07:52Z</time>
      </trkpt>
      <trkpt lat="44.97863" lon="6.44329">
        <ele>2055.2</ele>
        <time>2024-08-11T07:07:53Z</time>
      </trkpt>
      <trkpt lat="44.97863" lon="6.44329">
        <ele>2054.8</ele>
        <time>2024-08-11T07:07:54Z</time>
      </trkpt>
      <trkpt lat="44.97862" lon="6.44326">
        <ele>2054.6</ele>
        <time>2024-08-11T07:07:55Z</time>
      </trkpt>
      <trkpt lat="44.97862" lon="6.44326">
        <ele>2054.4</ele>
        <time>2024-08-11T07:07:56Z</time>
      </trkpt>
      <trkpt lat="44.97861" lon="6.44324">
        <ele>2053.8</ele>
        <time>2024-08-11T07:07:57Z</time>
      </trkpt>
      <trkpt lat="44.9786" lon="6.44322">
        <ele>2053.8</ele>
        <time>2024-08-11T07:07:58Z</time>
      </trkpt>
      <trkpt lat="44.9786" lon="6.44322">
        <ele>2053.6</ele>
        <time>2024-08-11T07:07:59Z</time>
      </trkpt>
      <trkpt lat="44.9786" lon="6.44322">
        <ele>2053.4</ele>
        <time>2024-08-11T07:08:00Z</time>
      </trkpt>
      <trkpt lat="44.97859" lon="6.44317">
        <ele>2053.4</ele>
        <time>2024-08-11T07:08:01Z</time>
      </trkpt>
      <trkpt lat="44.97859" lon="6.44317">
        <ele>2053</ele>
        <time>2024-08-11T07:08:02Z</time>
      </trkpt>
      <trkpt lat="44.97857" lon="6.44316">
        <ele>2053</ele>
        <time>2024-08-11T07:08:03Z</time>
      </trkpt>
      <trkpt lat="44.97857" lon="6.44316">
        <ele>2052.8</ele>
        <time>2024-08-11T07:08:04Z</time>
      </trkpt>
      <trkpt lat="44.97857" lon="6.44316">
        <ele>2052.8</ele>
        <time>2024-08-11T07:08:05Z</time>
      </trkpt>
      <trkpt lat="44.97855" lon="6.44312">
        <ele>2052.8</ele>
        <time>2024-08-11T07:08:06Z</time>
      </trkpt>
      <trkpt lat="44.97854" lon="6.44311">
        <ele>2052.8</ele>
        <time>2024-08-11T07:08:07Z</time>
      </trkpt>
      <trkpt lat="44.97854" lon="6.44311">
        <ele>2052.8</ele>
        <time>2024-08-11T07:08:08Z</time>
      </trkpt>
      <trkpt lat="44.97854" lon="6.44311">
        <ele>2052.8</ele>
        <time>2024-08-11T07:08:09Z</time>
      </trkpt>
      <trkpt lat="44.97854" lon="6.44311">
        <ele>2052.6</ele>
        <time>2024-08-11T07:08:10Z</time>
      </trkpt>
      <trkpt lat="44.97853" lon="6.44313">
        <ele>2052.4</ele>
        <time>2024-08-11T07:08:11Z</time>
      </trkpt>
      <trkpt lat="44.97853" lon="6.44313">
        <ele>2052.4</ele>
        <time>2024-08-11T07:08:12Z</time>
      </trkpt>
      <trkpt lat="44.97853" lon="6.44313">
        <ele>2052.2</ele>
        <time>2024-08-11T07:08:13Z</time>
      </trkpt>
      <trkpt lat="44.97853" lon="6.44313">
        <ele>2052</ele>
        <time>2024-08-11T07:08:14Z</time>
      </trkpt>
      <trkpt lat="44.97853" lon="6.44313">
        <ele>2051.8</ele>
        <time>2024-08-11T07:08:15Z</time>
      </trkpt>
      <trkpt lat="44.97851" lon="6.44315">
        <ele>2051.6</ele>
        <time>2024-08-11T07:08:16Z</time>
      </trkpt>
      <trkpt lat="44.97851" lon="6.44315">
        <ele>2051.6</ele>
        <time>2024-08-11T07:08:17Z</time>
      </trkpt>
      <trkpt lat="44.97852" lon="6.44317">
        <ele>2051.4</ele>
        <time>2024-08-11T07:08:18Z</time>
      </trkpt>
      <trkpt lat="44.97852" lon="6.44317">
        <ele>2051</ele>
        <time>2024-08-11T07:08:19Z</time>
      </trkpt>
      <trkpt lat="44.97852" lon="6.44317">
        <ele>2050.8</ele>
        <time>2024-08-11T07:08:20Z</time>
      </trkpt>
      <trkpt lat="44.97853" lon="6.44319">
        <ele>2050.8</ele>
        <time>2024-08-11T07:08:21Z</time>
      </trkpt>
      <trkpt lat="44.97853" lon="6.44319">
        <ele>2050.8</ele>
        <time>2024-08-11T07:08:22Z</time>
      </trkpt>
      <trkpt lat="44.97853" lon="6.44319">
        <ele>2050.6</ele>
        <time>2024-08-11T07:08:23Z</time>
      </trkpt>
      <trkpt lat="44.97855" lon="6.44323">
        <ele>2050.6</ele>
        <time>2024-08-11T07:08:24Z</time>
      </trkpt>
      <trkpt lat="44.97855" lon="6.44324">
        <ele>2050.6</ele>
        <time>2024-08-11T07:08:25Z</time>
      </trkpt>
      <trkpt lat="44.97855" lon="6.44324">
        <ele>2050.4</ele>
        <time>2024-08-11T07:08:26Z</time>
      </trkpt>
      <trkpt lat="44.97855" lon="6.44324">
        <ele>2050.4</ele>
        <time>2024-08-11T07:08:27Z</time>
      </trkpt>
      <trkpt lat="44.97855" lon="6.44328">
        <ele>2050.2</ele>
        <time>2024-08-11T07:08:28Z</time>
      </trkpt>
      <trkpt lat="44.97855" lon="6.44328">
        <ele>2050.2</ele>
        <time>2024-08-11T07:08:29Z</time>
      </trkpt>
      <trkpt lat="44.97855" lon="6.44331">
        <ele>2050</ele>
        <time>2024-08-11T07:08:30Z</time>
      </trkpt>
      <trkpt lat="44.97855" lon="6.44333">
        <ele>2049.6</ele>
        <time>2024-08-11T07:08:31Z</time>
      </trkpt>
      <trkpt lat="44.97855" lon="6.44333">
        <ele>2049.4</ele>
        <time>2024-08-11T07:08:32Z</time>
      </trkpt>
      <trkpt lat="44.97855" lon="6.44333">
        <ele>2049.2</ele>
        <time>2024-08-11T07:08:33Z</time>
      </trkpt>
      <trkpt lat="44.97853" lon="6.44336">
        <ele>2049.2</ele>
        <time>2024-08-11T07:08:34Z</time>
      </trkpt>
      <trkpt lat="44.97853" lon="6.44338">
        <ele>2048.8</ele>
        <time>2024-08-11T07:08:35Z</time>
      </trkpt>
      <trkpt lat="44.97853" lon="6.44338">
        <ele>2048.6</ele>
        <time>2024-08-11T07:08:36Z</time>
      </trkpt>
      <trkpt lat="44.97853" lon="6.44338">
        <ele>2048.4</ele>
        <time>2024-08-11T07:08:37Z</time>
      </trkpt>
      <trkpt lat="44.97852" lon="6.44343">
        <ele>2048.2</ele>
        <time>2024-08-11T07:08:38Z</time>
      </trkpt>
      <trkpt lat="44.97852" lon="6.44343">
        <ele>2048</ele>
        <time>2024-08-11T07:08:39Z</time>
      </trkpt>
      <trkpt lat="44.97851" lon="6.44346">
        <ele>2048</ele>
        <time>2024-08-11T07:08:40Z</time>
      </trkpt>
      <trkpt lat="44.97851" lon="6.44346">
        <ele>2048</ele>
        <time>2024-08-11T07:08:41Z</time>
      </trkpt>
      <trkpt lat="44.97849" lon="6.44349">
        <ele>2048</ele>
        <time>2024-08-11T07:08:42Z</time>
      </trkpt>
      <trkpt lat="44.97849" lon="6.44351">
        <ele>2048</ele>
        <time>2024-08-11T07:08:43Z</time>
      </trkpt>
      <trkpt lat="44.97849" lon="6.44351">
        <ele>2047.8</ele>
        <time>2024-08-11T07:08:44Z</time>
      </trkpt>
      <trkpt lat="44.97849" lon="6.44354">
        <ele>2047.8</ele>
        <time>2024-08-11T07:08:45Z</time>
      </trkpt>
      <trkpt lat="44.97849" lon="6.44354">
        <ele>2047.4</ele>
        <time>2024-08-11T07:08:46Z</time>
      </trkpt>
      <trkpt lat="44.97849" lon="6.44354">
        <ele>2047.4</ele>
        <time>2024-08-11T07:08:47Z</time>
      </trkpt>
      <trkpt lat="44.97849" lon="6.44358">
        <ele>2047.2</ele>
        <time>2024-08-11T07:08:48Z</time>
      </trkpt>
      <trkpt lat="44.97848" lon="6.44359">
        <ele>2046.8</ele>
        <time>2024-08-11T07:08:49Z</time>
      </trkpt>
      <trkpt lat="44.97848" lon="6.44359">
        <ele>2046.6</ele>
        <time>2024-08-11T07:08:50Z</time>
      </trkpt>
      <trkpt lat="44.97848" lon="6.44362">
        <ele>2046.6</ele>
        <time>2024-08-11T07:08:51Z</time>
      </trkpt>
      <trkpt lat="44.97848" lon="6.44362">
        <ele>2046.4</ele>
        <time>2024-08-11T07:08:52Z</time>
      </trkpt>
      <trkpt lat="44.97848" lon="6.44362">
        <ele>2046</ele>
        <time>2024-08-11T07:08:53Z</time>
      </trkpt>
      <trkpt lat="44.97847" lon="6.44366">
        <ele>2045.8</ele>
        <time>2024-08-11T07:08:54Z</time>
      </trkpt>
      <trkpt lat="44.97847" lon="6.44366">
        <ele>2045.6</ele>
        <time>2024-08-11T07:08:55Z</time>
      </trkpt>
      <trkpt lat="44.97847" lon="6.44366">
        <ele>2045.4</ele>
        <time>2024-08-11T07:08:56Z</time>
      </trkpt>
      <trkpt lat="44.97847" lon="6.44368">
        <ele>2045.2</ele>
        <time>2024-08-11T07:08:57Z</time>
      </trkpt>
      <trkpt lat="44.97847" lon="6.44368">
        <ele>2045</ele>
        <time>2024-08-11T07:08:58Z</time>
      </trkpt>
      <trkpt lat="44.97846" lon="6.4437">
        <ele>2045</ele>
        <time>2024-08-11T07:08:59Z</time>
      </trkpt>
      <trkpt lat="44.97846" lon="6.4437">
        <ele>2044.8</ele>
        <time>2024-08-11T07:09:00Z</time>
      </trkpt>
      <trkpt lat="44.97844" lon="6.44372">
        <ele>2044.6</ele>
        <time>2024-08-11T07:09:01Z</time>
      </trkpt>
      <trkpt lat="44.97844" lon="6.44372">
        <ele>2044</ele>
        <time>2024-08-11T07:09:02Z</time>
      </trkpt>
      <trkpt lat="44.97844" lon="6.44372">
        <ele>2044</ele>
        <time>2024-08-11T07:09:03Z</time>
      </trkpt>
      <trkpt lat="44.97844" lon="6.44372">
        <ele>2043.8</ele>
        <time>2024-08-11T07:09:04Z</time>
      </trkpt>
      <trkpt lat="44.97843" lon="6.44375">
        <ele>2043.4</ele>
        <time>2024-08-11T07:09:05Z</time>
      </trkpt>
      <trkpt lat="44.97843" lon="6.44375">
        <ele>2043.4</ele>
        <time>2024-08-11T07:09:06Z</time>
      </trkpt>
      <trkpt lat="44.97843" lon="6.44375">
        <ele>2043</ele>
        <time>2024-08-11T07:09:07Z</time>
      </trkpt>
      <trkpt lat="44.97843" lon="6.44378">
        <ele>2042.8</ele>
        <time>2024-08-11T07:09:08Z</time>
      </trkpt>
      <trkpt lat="44.97843" lon="6.44378">
        <ele>2042.6</ele>
        <time>2024-08-11T07:09:09Z</time>
      </trkpt>
      <trkpt lat="44.97843" lon="6.44378">
        <ele>2042.4</ele>
        <time>2024-08-11T07:09:10Z</time>
      </trkpt>
      <trkpt lat="44.97843" lon="6.44378">
        <ele>2042.2</ele>
        <time>2024-08-11T07:09:11Z</time>
      </trkpt>
      <trkpt lat="44.97843" lon="6.44381">
        <ele>2042</ele>
        <time>2024-08-11T07:09:12Z</time>
      </trkpt>
      <trkpt lat="44.97843" lon="6.44381">
        <ele>2041.6</ele>
        <time>2024-08-11T07:09:13Z</time>
      </trkpt>
      <trkpt lat="44.97843" lon="6.44381">
        <ele>2041.4</ele>
        <time>2024-08-11T07:09:14Z</time>
      </trkpt>
      <trkpt lat="44.97841" lon="6.44384">
        <ele>2041.2</ele>
        <time>2024-08-11T07:09:15Z</time>
      </trkpt>
      <trkpt lat="44.97841" lon="6.44384">
        <ele>2041.2</ele>
        <time>2024-08-11T07:09:16Z</time>
      </trkpt>
      <trkpt lat="44.97841" lon="6.44384">
        <ele>2041</ele>
        <time>2024-08-11T07:09:17Z</time>
      </trkpt>
      <trkpt lat="44.97841" lon="6.44384">
        <ele>2040.8</ele>
        <time>2024-08-11T07:09:18Z</time>
      </trkpt>
      <trkpt lat="44.97841" lon="6.44384">
        <ele>2040.6</ele>
        <time>2024-08-11T07:09:19Z</time>
      </trkpt>
      <trkpt lat="44.9784" lon="6.44384">
        <ele>2040.4</ele>
        <time>2024-08-11T07:09:20Z</time>
      </trkpt>
      <trkpt lat="44.97838" lon="6.44385">
        <ele>2039.8</ele>
        <time>2024-08-11T07:09:21Z</time>
      </trkpt>
      <trkpt lat="44.97838" lon="6.44385">
        <ele>2039.6</ele>
        <time>2024-08-11T07:09:22Z</time>
      </trkpt>
      <trkpt lat="44.97838" lon="6.44385">
        <ele>2039.6</ele>
        <time>2024-08-11T07:09:23Z</time>
      </trkpt>
      <trkpt lat="44.97837" lon="6.44386">
        <ele>2039.6</ele>
        <time>2024-08-11T07:09:24Z</time>
      </trkpt>
      <trkpt lat="44.97837" lon="6.44386">
        <ele>2039.2</ele>
        <time>2024-08-11T07:09:25Z</time>
      </trkpt>
      <trkpt lat="44.97837" lon="6.44386">
        <ele>2039</ele>
        <time>2024-08-11T07:09:26Z</time>
      </trkpt>
      <trkpt lat="44.97835" lon="6.44387">
        <ele>2038.6</ele>
        <time>2024-08-11T07:09:27Z</time>
      </trkpt>
      <trkpt lat="44.97835" lon="6.44387">
        <ele>2038.4</ele>
        <time>2024-08-11T07:09:28Z</time>
      </trkpt>
      <trkpt lat="44.97835" lon="6.44387">
        <ele>2038.2</ele>
        <time>2024-08-11T07:09:29Z</time>
      </trkpt>
      <trkpt lat="44.97834" lon="6.44383">
        <ele>2037.6</ele>
        <time>2024-08-11T07:09:30Z</time>
      </trkpt>
      <trkpt lat="44.97834" lon="6.44382">
        <ele>2037.6</ele>
        <time>2024-08-11T07:09:31Z</time>
      </trkpt>
      <trkpt lat="44.97834" lon="6.44382">
        <ele>2037.2</ele>
        <time>2024-08-11T07:09:32Z</time>
      </trkpt>
      <trkpt lat="44.97834" lon="6.44382">
        <ele>2037</ele>
        <time>2024-08-11T07:09:33Z</time>
      </trkpt>
      <trkpt lat="44.97834" lon="6.44382">
        <ele>2036.8</ele>
        <time>2024-08-11T07:09:34Z</time>
      </trkpt>
      <trkpt lat="44.97833" lon="6.44378">
        <ele>2036.4</ele>
        <time>2024-08-11T07:09:35Z</time>
      </trkpt>
      <trkpt lat="44.97832" lon="6.44378">
        <ele>2036.2</ele>
        <time>2024-08-11T07:09:36Z</time>
      </trkpt>
      <trkpt lat="44.97832" lon="6.44378">
        <ele>2035.8</ele>
        <time>2024-08-11T07:09:37Z</time>
      </trkpt>
      <trkpt lat="44.97832" lon="6.44378">
        <ele>2035.8</ele>
        <time>2024-08-11T07:09:38Z</time>
      </trkpt>
      <trkpt lat="44.97831" lon="6.44381">
        <ele>2035.8</ele>
        <time>2024-08-11T07:09:39Z</time>
      </trkpt>
      <trkpt lat="44.97831" lon="6.44381">
        <ele>2035.6</ele>
        <time>2024-08-11T07:09:40Z</time>
      </trkpt>
      <trkpt lat="44.97831" lon="6.44384">
        <ele>2035.4</ele>
        <time>2024-08-11T07:09:41Z</time>
      </trkpt>
      <trkpt lat="44.97831" lon="6.44384">
        <ele>2035.4</ele>
        <time>2024-08-11T07:09:42Z</time>
      </trkpt>
      <trkpt lat="44.97829" lon="6.44386">
        <ele>2035.2</ele>
        <time>2024-08-11T07:09:43Z</time>
      </trkpt>
      <trkpt lat="44.97829" lon="6.44386">
        <ele>2035</ele>
        <time>2024-08-11T07:09:44Z</time>
      </trkpt>
      <trkpt lat="44.97829" lon="6.44389">
        <ele>2034.8</ele>
        <time>2024-08-11T07:09:45Z</time>
      </trkpt>
      <trkpt lat="44.97829" lon="6.44389">
        <ele>2034.6</ele>
        <time>2024-08-11T07:09:46Z</time>
      </trkpt>
      <trkpt lat="44.97829" lon="6.44389">
        <ele>2034.2</ele>
        <time>2024-08-11T07:09:47Z</time>
      </trkpt>
      <trkpt lat="44.97828" lon="6.44394">
        <ele>2034</ele>
        <time>2024-08-11T07:09:48Z</time>
      </trkpt>
      <trkpt lat="44.97827" lon="6.44395">
        <ele>2033.8</ele>
        <time>2024-08-11T07:09:49Z</time>
      </trkpt>
      <trkpt lat="44.97827" lon="6.44395">
        <ele>2033.6</ele>
        <time>2024-08-11T07:09:50Z</time>
      </trkpt>
      <trkpt lat="44.97827" lon="6.44395">
        <ele>2033.4</ele>
        <time>2024-08-11T07:09:51Z</time>
      </trkpt>
      <trkpt lat="44.97827" lon="6.44399">
        <ele>2033</ele>
        <time>2024-08-11T07:09:52Z</time>
      </trkpt>
      <trkpt lat="44.97827" lon="6.44399">
        <ele>2032.8</ele>
        <time>2024-08-11T07:09:53Z</time>
      </trkpt>
      <trkpt lat="44.97827" lon="6.44399">
        <ele>2032.8</ele>
        <time>2024-08-11T07:09:54Z</time>
      </trkpt>
      <trkpt lat="44.97827" lon="6.44399">
        <ele>2032.4</ele>
        <time>2024-08-11T07:09:55Z</time>
      </trkpt>
      <trkpt lat="44.97825" lon="6.44397">
        <ele>2032.2</ele>
        <time>2024-08-11T07:09:56Z</time>
      </trkpt>
      <trkpt lat="44.97825" lon="6.44397">
        <ele>2032</ele>
        <time>2024-08-11T07:09:57Z</time>
      </trkpt>
      <trkpt lat="44.97825" lon="6.44394">
        <ele>2031.8</ele>
        <time>2024-08-11T07:09:58Z</time>
      </trkpt>
      <trkpt lat="44.97825" lon="6.44394">
        <ele>2031.8</ele>
        <time>2024-08-11T07:09:59Z</time>
      </trkpt>
      <trkpt lat="44.97824" lon="6.44391">
        <ele>2031.6</ele>
        <time>2024-08-11T07:10:00Z</time>
      </trkpt>
      <trkpt lat="44.97824" lon="6.44391">
        <ele>2031.4</ele>
        <time>2024-08-11T07:10:01Z</time>
      </trkpt>
      <trkpt lat="44.97822" lon="6.44389">
        <ele>2031.2</ele>
        <time>2024-08-11T07:10:02Z</time>
      </trkpt>
      <trkpt lat="44.97822" lon="6.44389">
        <ele>2031.2</ele>
        <time>2024-08-11T07:10:03Z</time>
      </trkpt>
      <trkpt lat="44.97822" lon="6.44389">
        <ele>2030.8</ele>
        <time>2024-08-11T07:10:04Z</time>
      </trkpt>
      <trkpt lat="44.9782" lon="6.44388">
        <ele>2030.8</ele>
        <time>2024-08-11T07:10:05Z</time>
      </trkpt>
      <trkpt lat="44.9782" lon="6.44388">
        <ele>2030.8</ele>
        <time>2024-08-11T07:10:06Z</time>
      </trkpt>
      <trkpt lat="44.97818" lon="6.44385">
        <ele>2030.8</ele>
        <time>2024-08-11T07:10:07Z</time>
      </trkpt>
      <trkpt lat="44.97818" lon="6.44385">
        <ele>2030.6</ele>
        <time>2024-08-11T07:10:08Z</time>
      </trkpt>
      <trkpt lat="44.97816" lon="6.44384">
        <ele>2030</ele>
        <time>2024-08-11T07:10:09Z</time>
      </trkpt>
      <trkpt lat="44.97816" lon="6.44384">
        <ele>2030</ele>
        <time>2024-08-11T07:10:10Z</time>
      </trkpt>
      <trkpt lat="44.97816" lon="6.44384">
        <ele>2029.6</ele>
        <time>2024-08-11T07:10:11Z</time>
      </trkpt>
      <trkpt lat="44.97816" lon="6.44384">
        <ele>2029.6</ele>
        <time>2024-08-11T07:10:12Z</time>
      </trkpt>
      <trkpt lat="44.97816" lon="6.44384">
        <ele>2029.6</ele>
        <time>2024-08-11T07:10:13Z</time>
      </trkpt>
      <trkpt lat="44.97816" lon="6.44384">
        <ele>2029.4</ele>
        <time>2024-08-11T07:10:14Z</time>
      </trkpt>
      <trkpt lat="44.97816" lon="6.44384">
        <ele>2029.4</ele>
        <time>2024-08-11T07:10:15Z</time>
      </trkpt>
      <trkpt lat="44.97815" lon="6.44387">
        <ele>2029.2</ele>
        <time>2024-08-11T07:10:16Z</time>
      </trkpt>
      <trkpt lat="44.97815" lon="6.44387">
        <ele>2029</ele>
        <time>2024-08-11T07:10:17Z</time>
      </trkpt>
      <trkpt lat="44.97815" lon="6.44387">
        <ele>2028.6</ele>
        <time>2024-08-11T07:10:18Z</time>
      </trkpt>
      <trkpt lat="44.97814" lon="6.4439">
        <ele>2028.6</ele>
        <time>2024-08-11T07:10:19Z</time>
      </trkpt>
      <trkpt lat="44.97814" lon="6.4439">
        <ele>2027.8</ele>
        <time>2024-08-11T07:10:20Z</time>
      </trkpt>
      <trkpt lat="44.97815" lon="6.44392">
        <ele>2027.8</ele>
        <time>2024-08-11T07:10:21Z</time>
      </trkpt>
      <trkpt lat="44.97815" lon="6.44392">
        <ele>2027.6</ele>
        <time>2024-08-11T07:10:22Z</time>
      </trkpt>
      <trkpt lat="44.97814" lon="6.44395">
        <ele>2027.4</ele>
        <time>2024-08-11T07:10:23Z</time>
      </trkpt>
      <trkpt lat="44.97814" lon="6.44395">
        <ele>2027.2</ele>
        <time>2024-08-11T07:10:24Z</time>
      </trkpt>
      <trkpt lat="44.97814" lon="6.44395">
        <ele>2027</ele>
        <time>2024-08-11T07:10:25Z</time>
      </trkpt>
      <trkpt lat="44.97813" lon="6.44398">
        <ele>2026.8</ele>
        <time>2024-08-11T07:10:26Z</time>
      </trkpt>
      <trkpt lat="44.97813" lon="6.44398">
        <ele>2026.4</ele>
        <time>2024-08-11T07:10:27Z</time>
      </trkpt>
      <trkpt lat="44.97813" lon="6.44401">
        <ele>2026.4</ele>
        <time>2024-08-11T07:10:28Z</time>
      </trkpt>
      <trkpt lat="44.97813" lon="6.44401">
        <ele>2026</ele>
        <time>2024-08-11T07:10:29Z</time>
      </trkpt>
      <trkpt lat="44.97813" lon="6.44401">
        <ele>2025.8</ele>
        <time>2024-08-11T07:10:30Z</time>
      </trkpt>
      <trkpt lat="44.97812" lon="6.44404">
        <ele>2025.6</ele>
        <time>2024-08-11T07:10:31Z</time>
      </trkpt>
      <trkpt lat="44.97812" lon="6.44404">
        <ele>2025.6</ele>
        <time>2024-08-11T07:10:32Z</time>
      </trkpt>
      <trkpt lat="44.97812" lon="6.44404">
        <ele>2025</ele>
        <time>2024-08-11T07:10:33Z</time>
      </trkpt>
      <trkpt lat="44.9781" lon="6.44406">
        <ele>2024.8</ele>
        <time>2024-08-11T07:10:34Z</time>
      </trkpt>
      <trkpt lat="44.9781" lon="6.44406">
        <ele>2024.6</ele>
        <time>2024-08-11T07:10:35Z</time>
      </trkpt>
      <trkpt lat="44.9781" lon="6.44406">
        <ele>2024.2</ele>
        <time>2024-08-11T07:10:36Z</time>
      </trkpt>
      <trkpt lat="44.9781" lon="6.44406">
        <ele>2023.8</ele>
        <time>2024-08-11T07:10:37Z</time>
      </trkpt>
      <trkpt lat="44.97811" lon="6.44411">
        <ele>2023.6</ele>
        <time>2024-08-11T07:10:38Z</time>
      </trkpt>
      <trkpt lat="44.97811" lon="6.44413">
        <ele>2023.4</ele>
        <time>2024-08-11T07:10:39Z</time>
      </trkpt>
      <trkpt lat="44.97811" lon="6.44413">
        <ele>2023.2</ele>
        <time>2024-08-11T07:10:40Z</time>
      </trkpt>
      <trkpt lat="44.97811" lon="6.44413">
        <ele>2023</ele>
        <time>2024-08-11T07:10:41Z</time>
      </trkpt>
      <trkpt lat="44.97811" lon="6.44416">
        <ele>2023</ele>
        <time>2024-08-11T07:10:42Z</time>
      </trkpt>
      <trkpt lat="44.97811" lon="6.44416">
        <ele>2022.6</ele>
        <time>2024-08-11T07:10:43Z</time>
      </trkpt>
      <trkpt lat="44.9781" lon="6.44419">
        <ele>2022.4</ele>
        <time>2024-08-11T07:10:44Z</time>
      </trkpt>
      <trkpt lat="44.9781" lon="6.44419">
        <ele>2022.2</ele>
        <time>2024-08-11T07:10:45Z</time>
      </trkpt>
      <trkpt lat="44.97808" lon="6.44421">
        <ele>2022</ele>
        <time>2024-08-11T07:10:46Z</time>
      </trkpt>
      <trkpt lat="44.97808" lon="6.44421">
        <ele>2021.8</ele>
        <time>2024-08-11T07:10:47Z</time>
      </trkpt>
      <trkpt lat="44.97808" lon="6.44421">
        <ele>2021.6</ele>
        <time>2024-08-11T07:10:48Z</time>
      </trkpt>
      <trkpt lat="44.97806" lon="6.4442">
        <ele>2021.4</ele>
        <time>2024-08-11T07:10:49Z</time>
      </trkpt>
      <trkpt lat="44.97806" lon="6.4442">
        <ele>2021.2</ele>
        <time>2024-08-11T07:10:50Z</time>
      </trkpt>
      <trkpt lat="44.97804" lon="6.4442">
        <ele>2021</ele>
        <time>2024-08-11T07:10:51Z</time>
      </trkpt>
      <trkpt lat="44.97804" lon="6.4442">
        <ele>2021</ele>
        <time>2024-08-11T07:10:52Z</time>
      </trkpt>
      <trkpt lat="44.97804" lon="6.4442">
        <ele>2020.8</ele>
        <time>2024-08-11T07:10:53Z</time>
      </trkpt>
      <trkpt lat="44.97804" lon="6.44423">
        <ele>2020.2</ele>
        <time>2024-08-11T07:10:54Z</time>
      </trkpt>
      <trkpt lat="44.97804" lon="6.44423">
        <ele>2020.2</ele>
        <time>2024-08-11T07:10:55Z</time>
      </trkpt>
      <trkpt lat="44.97805" lon="6.44425">
        <ele>2020</ele>
        <time>2024-08-11T07:10:56Z</time>
      </trkpt>
      <trkpt lat="44.97805" lon="6.44425">
        <ele>2020</ele>
        <time>2024-08-11T07:10:57Z</time>
      </trkpt>
      <trkpt lat="44.97805" lon="6.44425">
        <ele>2019.6</ele>
        <time>2024-08-11T07:10:58Z</time>
      </trkpt>
      <trkpt lat="44.97806" lon="6.44428">
        <ele>2019.6</ele>
        <time>2024-08-11T07:10:59Z</time>
      </trkpt>
      <trkpt lat="44.97806" lon="6.44428">
        <ele>2019.2</ele>
        <time>2024-08-11T07:11:00Z</time>
      </trkpt>
      <trkpt lat="44.97804" lon="6.4443">
        <ele>2018.8</ele>
        <time>2024-08-11T07:11:01Z</time>
      </trkpt>
      <trkpt lat="44.97804" lon="6.4443">
        <ele>2018.6</ele>
        <time>2024-08-11T07:11:02Z</time>
      </trkpt>
      <trkpt lat="44.97802" lon="6.44431">
        <ele>2018.6</ele>
        <time>2024-08-11T07:11:03Z</time>
      </trkpt>
      <trkpt lat="44.97802" lon="6.44431">
        <ele>2018.4</ele>
        <time>2024-08-11T07:11:04Z</time>
      </trkpt>
      <trkpt lat="44.97802" lon="6.44431">
        <ele>2018.2</ele>
        <time>2024-08-11T07:11:05Z</time>
      </trkpt>
      <trkpt lat="44.97799" lon="6.44431">
        <ele>2018</ele>
        <time>2024-08-11T07:11:06Z</time>
      </trkpt>
      <trkpt lat="44.97799" lon="6.44431">
        <ele>2017.6</ele>
        <time>2024-08-11T07:11:07Z</time>
      </trkpt>
      <trkpt lat="44.97797" lon="6.44431">
        <ele>2017.4</ele>
        <time>2024-08-11T07:11:08Z</time>
      </trkpt>
      <trkpt lat="44.97797" lon="6.44431">
        <ele>2017.2</ele>
        <time>2024-08-11T07:11:09Z</time>
      </trkpt>
      <trkpt lat="44.97797" lon="6.44431">
        <ele>2017.2</ele>
        <time>2024-08-11T07:11:10Z</time>
      </trkpt>
      <trkpt lat="44.97797" lon="6.44433">
        <ele>2017.2</ele>
        <time>2024-08-11T07:11:11Z</time>
      </trkpt>
      <trkpt lat="44.97797" lon="6.44433">
        <ele>2017</ele>
        <time>2024-08-11T07:11:12Z</time>
      </trkpt>
      <trkpt lat="44.97797" lon="6.44433">
        <ele>2016.6</ele>
        <time>2024-08-11T07:11:13Z</time>
      </trkpt>
      <trkpt lat="44.97796" lon="6.44435">
        <ele>2016</ele>
        <time>2024-08-11T07:11:14Z</time>
      </trkpt>
      <trkpt lat="44.97796" lon="6.44435">
        <ele>2015.8</ele>
        <time>2024-08-11T07:11:15Z</time>
      </trkpt>
      <trkpt lat="44.97794" lon="6.44435">
        <ele>2015.8</ele>
        <time>2024-08-11T07:11:16Z</time>
      </trkpt>
      <trkpt lat="44.97794" lon="6.44435">
        <ele>2015.8</ele>
        <time>2024-08-11T07:11:17Z</time>
      </trkpt>
      <trkpt lat="44.97792" lon="6.44436">
        <ele>2015.4</ele>
        <time>2024-08-11T07:11:18Z</time>
      </trkpt>
      <trkpt lat="44.97792" lon="6.44436">
        <ele>2015.2</ele>
        <time>2024-08-11T07:11:19Z</time>
      </trkpt>
      <trkpt lat="44.97791" lon="6.44439">
        <ele>2015</ele>
        <time>2024-08-11T07:11:20Z</time>
      </trkpt>
      <trkpt lat="44.97791" lon="6.44439">
        <ele>2014.8</ele>
        <time>2024-08-11T07:11:21Z</time>
      </trkpt>
      <trkpt lat="44.97791" lon="6.44439">
        <ele>2014.6</ele>
        <time>2024-08-11T07:11:22Z</time>
      </trkpt>
      <trkpt lat="44.97791" lon="6.44439">
        <ele>2014.4</ele>
        <time>2024-08-11T07:11:23Z</time>
      </trkpt>
      <trkpt lat="44.97792" lon="6.44443">
        <ele>2014.2</ele>
        <time>2024-08-11T07:11:24Z</time>
      </trkpt>
      <trkpt lat="44.97792" lon="6.44443">
        <ele>2014</ele>
        <time>2024-08-11T07:11:25Z</time>
      </trkpt>
      <trkpt lat="44.97793" lon="6.44445">
        <ele>2014</ele>
        <time>2024-08-11T07:11:26Z</time>
      </trkpt>
      <trkpt lat="44.97793" lon="6.44445">
        <ele>2013.6</ele>
        <time>2024-08-11T07:11:27Z</time>
      </trkpt>
      <trkpt lat="44.97792" lon="6.44448">
        <ele>2013.2</ele>
        <time>2024-08-11T07:11:28Z</time>
      </trkpt>
      <trkpt lat="44.97792" lon="6.44448">
        <ele>2012.8</ele>
        <time>2024-08-11T07:11:29Z</time>
      </trkpt>
      <trkpt lat="44.97792" lon="6.44448">
        <ele>2012.8</ele>
        <time>2024-08-11T07:11:30Z</time>
      </trkpt>
      <trkpt lat="44.9779" lon="6.44449">
        <ele>2012.6</ele>
        <time>2024-08-11T07:11:31Z</time>
      </trkpt>
      <trkpt lat="44.9779" lon="6.44449">
        <ele>2012.4</ele>
        <time>2024-08-11T07:11:32Z</time>
      </trkpt>
      <trkpt lat="44.97788" lon="6.44451">
        <ele>2012.4</ele>
        <time>2024-08-11T07:11:33Z</time>
      </trkpt>
      <trkpt lat="44.97788" lon="6.44451">
        <ele>2012</ele>
        <time>2024-08-11T07:11:34Z</time>
      </trkpt>
      <trkpt lat="44.97786" lon="6.44451">
        <ele>2011.6</ele>
        <time>2024-08-11T07:11:35Z</time>
      </trkpt>
      <trkpt lat="44.97786" lon="6.44451">
        <ele>2011.2</ele>
        <time>2024-08-11T07:11:36Z</time>
      </trkpt>
      <trkpt lat="44.97786" lon="6.44451">
        <ele>2011</ele>
        <time>2024-08-11T07:11:37Z</time>
      </trkpt>
      <trkpt lat="44.97784" lon="6.44454">
        <ele>2011</ele>
        <time>2024-08-11T07:11:38Z</time>
      </trkpt>
      <trkpt lat="44.97784" lon="6.44454">
        <ele>2010.8</ele>
        <time>2024-08-11T07:11:39Z</time>
      </trkpt>
      <trkpt lat="44.97784" lon="6.44454">
        <ele>2010.6</ele>
        <time>2024-08-11T07:11:40Z</time>
      </trkpt>
      <trkpt lat="44.97784" lon="6.44456">
        <ele>2010.4</ele>
        <time>2024-08-11T07:11:41Z</time>
      </trkpt>
      <trkpt lat="44.97784" lon="6.44456">
        <ele>2010.2</ele>
        <time>2024-08-11T07:11:42Z</time>
      </trkpt>
      <trkpt lat="44.97784" lon="6.44456">
        <ele>2010</ele>
        <time>2024-08-11T07:11:43Z</time>
      </trkpt>
      <trkpt lat="44.97783" lon="6.44459">
        <ele>2009.6</ele>
        <time>2024-08-11T07:11:44Z</time>
      </trkpt>
      <trkpt lat="44.97783" lon="6.44459">
        <ele>2009.6</ele>
        <time>2024-08-11T07:11:45Z</time>
      </trkpt>
      <trkpt lat="44.97782" lon="6.44461">
        <ele>2009.6</ele>
        <time>2024-08-11T07:11:46Z</time>
      </trkpt>
      <trkpt lat="44.97782" lon="6.44461">
        <ele>2009.4</ele>
        <time>2024-08-11T07:11:47Z</time>
      </trkpt>
      <trkpt lat="44.97784" lon="6.44464">
        <ele>2009</ele>
        <time>2024-08-11T07:11:48Z</time>
      </trkpt>
      <trkpt lat="44.97784" lon="6.44464">
        <ele>2008.6</ele>
        <time>2024-08-11T07:11:49Z</time>
      </trkpt>
      <trkpt lat="44.97784" lon="6.44464">
        <ele>2008.4</ele>
        <time>2024-08-11T07:11:50Z</time>
      </trkpt>
      <trkpt lat="44.97784" lon="6.44464">
        <ele>2008.2</ele>
        <time>2024-08-11T07:11:51Z</time>
      </trkpt>
      <trkpt lat="44.97784" lon="6.44468">
        <ele>2007.6</ele>
        <time>2024-08-11T07:11:52Z</time>
      </trkpt>
      <trkpt lat="44.97784" lon="6.44468">
        <ele>2007.4</ele>
        <time>2024-08-11T07:11:53Z</time>
      </trkpt>
      <trkpt lat="44.97784" lon="6.4447">
        <ele>2007.4</ele>
        <time>2024-08-11T07:11:54Z</time>
      </trkpt>
      <trkpt lat="44.97784" lon="6.4447">
        <ele>2007.2</ele>
        <time>2024-08-11T07:11:55Z</time>
      </trkpt>
      <trkpt lat="44.97784" lon="6.4447">
        <ele>2006.8</ele>
        <time>2024-08-11T07:11:56Z</time>
      </trkpt>
      <trkpt lat="44.97783" lon="6.44474">
        <ele>2006.2</ele>
        <time>2024-08-11T07:11:57Z</time>
      </trkpt>
      <trkpt lat="44.97782" lon="6.44475">
        <ele>2006.2</ele>
        <time>2024-08-11T07:11:58Z</time>
      </trkpt>
      <trkpt lat="44.97782" lon="6.44475">
        <ele>2006</ele>
        <time>2024-08-11T07:11:59Z</time>
      </trkpt>
      <trkpt lat="44.9778" lon="6.44477">
        <ele>2005.6</ele>
        <time>2024-08-11T07:12:00Z</time>
      </trkpt>
      <trkpt lat="44.9778" lon="6.44477">
        <ele>2005.4</ele>
        <time>2024-08-11T07:12:01Z</time>
      </trkpt>
      <trkpt lat="44.9778" lon="6.44477">
        <ele>2005.2</ele>
        <time>2024-08-11T07:12:02Z</time>
      </trkpt>
      <trkpt lat="44.9778" lon="6.44477">
        <ele>2005.2</ele>
        <time>2024-08-11T07:12:03Z</time>
      </trkpt>
      <trkpt lat="44.9778" lon="6.44477">
        <ele>2005</ele>
        <time>2024-08-11T07:12:04Z</time>
      </trkpt>
      <trkpt lat="44.97779" lon="6.44474">
        <ele>2004.8</ele>
        <time>2024-08-11T07:12:05Z</time>
      </trkpt>
      <trkpt lat="44.97779" lon="6.44474">
        <ele>2004.6</ele>
        <time>2024-08-11T07:12:06Z</time>
      </trkpt>
      <trkpt lat="44.97779" lon="6.44474">
        <ele>2004.4</ele>
        <time>2024-08-11T07:12:07Z</time>
      </trkpt>
      <trkpt lat="44.97777" lon="6.44473">
        <ele>2004.2</ele>
        <time>2024-08-11T07:12:08Z</time>
      </trkpt>
      <trkpt lat="44.97777" lon="6.44473">
        <ele>2004</ele>
        <time>2024-08-11T07:12:09Z</time>
      </trkpt>
      <trkpt lat="44.97774" lon="6.44472">
        <ele>2003.6</ele>
        <time>2024-08-11T07:12:10Z</time>
      </trkpt>
      <trkpt lat="44.97774" lon="6.44472">
        <ele>2003.6</ele>
        <time>2024-08-11T07:12:11Z</time>
      </trkpt>
      <trkpt lat="44.97774" lon="6.44472">
        <ele>2003.4</ele>
        <time>2024-08-11T07:12:12Z</time>
      </trkpt>
      <trkpt lat="44.97774" lon="6.44472">
        <ele>2003</ele>
        <time>2024-08-11T07:12:13Z</time>
      </trkpt>
      <trkpt lat="44.97774" lon="6.44475">
        <ele>2003</ele>
        <time>2024-08-11T07:12:14Z</time>
      </trkpt>
      <trkpt lat="44.97774" lon="6.44475">
        <ele>2002.6</ele>
        <time>2024-08-11T07:12:15Z</time>
      </trkpt>
      <trkpt lat="44.97773" lon="6.44477">
        <ele>2002.4</ele>
        <time>2024-08-11T07:12:16Z</time>
      </trkpt>
      <trkpt lat="44.97773" lon="6.44477">
        <ele>2002.4</ele>
        <time>2024-08-11T07:12:17Z</time>
      </trkpt>
      <trkpt lat="44.97773" lon="6.44477">
        <ele>2002</ele>
        <time>2024-08-11T07:12:18Z</time>
      </trkpt>
      <trkpt lat="44.97773" lon="6.44477">
        <ele>2001.8</ele>
        <time>2024-08-11T07:12:19Z</time>
      </trkpt>
      <trkpt lat="44.97771" lon="6.44479">
        <ele>2001.8</ele>
        <time>2024-08-11T07:12:20Z</time>
      </trkpt>
      <trkpt lat="44.97771" lon="6.44479">
        <ele>2001.2</ele>
        <time>2024-08-11T07:12:21Z</time>
      </trkpt>
      <trkpt lat="44.97769" lon="6.44482">
        <ele>2000.8</ele>
        <time>2024-08-11T07:12:22Z</time>
      </trkpt>
      <trkpt lat="44.97769" lon="6.44482">
        <ele>2000.8</ele>
        <time>2024-08-11T07:12:23Z</time>
      </trkpt>
      <trkpt lat="44.97769" lon="6.44482">
        <ele>2000.8</ele>
        <time>2024-08-11T07:12:24Z</time>
      </trkpt>
      <trkpt lat="44.97769" lon="6.44486">
        <ele>2000.4</ele>
        <time>2024-08-11T07:12:25Z</time>
      </trkpt>
      <trkpt lat="44.97769" lon="6.44486">
        <ele>2000</ele>
        <time>2024-08-11T07:12:26Z</time>
      </trkpt>
      <trkpt lat="44.97769" lon="6.44486">
        <ele>1999.8</ele>
        <time>2024-08-11T07:12:27Z</time>
      </trkpt>
      <trkpt lat="44.9777" lon="6.4449">
        <ele>1999.8</ele>
        <time>2024-08-11T07:12:28Z</time>
      </trkpt>
      <trkpt lat="44.9777" lon="6.4449">
        <ele>1999.4</ele>
        <time>2024-08-11T07:12:29Z</time>
      </trkpt>
      <trkpt lat="44.9777" lon="6.4449">
        <ele>1999.2</ele>
        <time>2024-08-11T07:12:30Z</time>
      </trkpt>
      <trkpt lat="44.97771" lon="6.44494">
        <ele>1998.8</ele>
        <time>2024-08-11T07:12:31Z</time>
      </trkpt>
      <trkpt lat="44.97771" lon="6.44494">
        <ele>1998.8</ele>
        <time>2024-08-11T07:12:32Z</time>
      </trkpt>
      <trkpt lat="44.97772" lon="6.44496">
        <ele>1998.6</ele>
        <time>2024-08-11T07:12:33Z</time>
      </trkpt>
      <trkpt lat="44.9777" lon="6.44498">
        <ele>1998.4</ele>
        <time>2024-08-11T07:12:34Z</time>
      </trkpt>
      <trkpt lat="44.9777" lon="6.44498">
        <ele>1998.2</ele>
        <time>2024-08-11T07:12:35Z</time>
      </trkpt>
      <trkpt lat="44.97768" lon="6.44499">
        <ele>1998</ele>
        <time>2024-08-11T07:12:36Z</time>
      </trkpt>
      <trkpt lat="44.97768" lon="6.44499">
        <ele>1997.6</ele>
        <time>2024-08-11T07:12:37Z</time>
      </trkpt>
      <trkpt lat="44.97768" lon="6.44499">
        <ele>1997</ele>
        <time>2024-08-11T07:12:38Z</time>
      </trkpt>
      <trkpt lat="44.97768" lon="6.44499">
        <ele>1996.8</ele>
        <time>2024-08-11T07:12:39Z</time>
      </trkpt>
      <trkpt lat="44.97767" lon="6.44497">
        <ele>1996.8</ele>
        <time>2024-08-11T07:12:40Z</time>
      </trkpt>
      <trkpt lat="44.97767" lon="6.44497">
        <ele>1996.6</ele>
        <time>2024-08-11T07:12:41Z</time>
      </trkpt>
      <trkpt lat="44.97766" lon="6.44494">
        <ele>1996.4</ele>
        <time>2024-08-11T07:12:42Z</time>
      </trkpt>
      <trkpt lat="44.97766" lon="6.44494">
        <ele>1996.2</ele>
        <time>2024-08-11T07:12:43Z</time>
      </trkpt>
      <trkpt lat="44.97766" lon="6.44494">
        <ele>1995.8</ele>
        <time>2024-08-11T07:12:44Z</time>
      </trkpt>
      <trkpt lat="44.97766" lon="6.44494">
        <ele>1995.6</ele>
        <time>2024-08-11T07:12:45Z</time>
      </trkpt>
      <trkpt lat="44.97766" lon="6.44494">
        <ele>1995.6</ele>
        <time>2024-08-11T07:12:46Z</time>
      </trkpt>
      <trkpt lat="44.97766" lon="6.44494">
        <ele>1995.6</ele>
        <time>2024-08-11T07:12:47Z</time>
      </trkpt>
      <trkpt lat="44.97766" lon="6.44494">
        <ele>1995.6</ele>
        <time>2024-08-11T07:12:48Z</time>
      </trkpt>
      <trkpt lat="44.97766" lon="6.44494">
        <ele>1995.6</ele>
        <time>2024-08-11T07:12:49Z</time>
      </trkpt>
      <trkpt lat="44.97766" lon="6.44494">
        <ele>1995.6</ele>
        <time>2024-08-11T07:12:50Z</time>
      </trkpt>
      <trkpt lat="44.97766" lon="6.44494">
        <ele>1995.6</ele>
        <time>2024-08-11T07:12:51Z</time>
      </trkpt>
      <trkpt lat="44.97766" lon="6.44494">
        <ele>1995.2</ele>
        <time>2024-08-11T07:12:52Z</time>
      </trkpt>
      <trkpt lat="44.97765" lon="6.44493">
        <ele>1995</ele>
        <time>2024-08-11T07:12:53Z</time>
      </trkpt>
      <trkpt lat="44.97765" lon="6.44493">
        <ele>1995</ele>
        <time>2024-08-11T07:12:54Z</time>
      </trkpt>
      <trkpt lat="44.97763" lon="6.44495">
        <ele>1995</ele>
        <time>2024-08-11T07:12:55Z</time>
      </trkpt>
      <trkpt lat="44.97763" lon="6.44495">
        <ele>1994.8</ele>
        <time>2024-08-11T07:12:56Z</time>
      </trkpt>
      <trkpt lat="44.97763" lon="6.44499">
        <ele>1994.8</ele>
        <time>2024-08-11T07:12:57Z</time>
      </trkpt>
      <trkpt lat="44.97763" lon="6.44499">
        <ele>1994.8</ele>
        <time>2024-08-11T07:12:58Z</time>
      </trkpt>
      <trkpt lat="44.97763" lon="6.44502">
        <ele>1994.4</ele>
        <time>2024-08-11T07:12:59Z</time>
      </trkpt>
      <trkpt lat="44.97763" lon="6.44502">
        <ele>1994.2</ele>
        <time>2024-08-11T07:13:00Z</time>
      </trkpt>
      <trkpt lat="44.97763" lon="6.44502">
        <ele>1994.2</ele>
        <time>2024-08-11T07:13:01Z</time>
      </trkpt>
      <trkpt lat="44.97762" lon="6.44506">
        <ele>1993.2</ele>
        <time>2024-08-11T07:13:02Z</time>
      </trkpt>
      <trkpt lat="44.97762" lon="6.44506">
        <ele>1993.2</ele>
        <time>2024-08-11T07:13:03Z</time>
      </trkpt>
      <trkpt lat="44.97762" lon="6.44506">
        <ele>1993</ele>
        <time>2024-08-11T07:13:04Z</time>
      </trkpt>
      <trkpt lat="44.97763" lon="6.44511">
        <ele>1993</ele>
        <time>2024-08-11T07:13:05Z</time>
      </trkpt>
      <trkpt lat="44.97763" lon="6.44511">
        <ele>1993</ele>
        <time>2024-08-11T07:13:06Z</time>
      </trkpt>
      <trkpt lat="44.97764" lon="6.44513">
        <ele>1992.6</ele>
        <time>2024-08-11T07:13:07Z</time>
      </trkpt>
      <trkpt lat="44.97764" lon="6.44513">
        <ele>1992.2</ele>
        <time>2024-08-11T07:13:08Z</time>
      </trkpt>
      <trkpt lat="44.97764" lon="6.44513">
        <ele>1991.8</ele>
        <time>2024-08-11T07:13:09Z</time>
      </trkpt>
      <trkpt lat="44.97763" lon="6.44516">
        <ele>1991.6</ele>
        <time>2024-08-11T07:13:10Z</time>
      </trkpt>
      <trkpt lat="44.97763" lon="6.44516">
        <ele>1991.4</ele>
        <time>2024-08-11T07:13:11Z</time>
      </trkpt>
      <trkpt lat="44.97763" lon="6.44516">
        <ele>1991</ele>
        <time>2024-08-11T07:13:12Z</time>
      </trkpt>
      <trkpt lat="44.97763" lon="6.44516">
        <ele>1990.8</ele>
        <time>2024-08-11T07:13:13Z</time>
      </trkpt>
      <trkpt lat="44.97763" lon="6.44521">
        <ele>1990.4</ele>
        <time>2024-08-11T07:13:14Z</time>
      </trkpt>
      <trkpt lat="44.97762" lon="6.44522">
        <ele>1990.2</ele>
        <time>2024-08-11T07:13:15Z</time>
      </trkpt>
      <trkpt lat="44.97762" lon="6.44522">
        <ele>1989.8</ele>
        <time>2024-08-11T07:13:16Z</time>
      </trkpt>
      <trkpt lat="44.9776" lon="6.44523">
        <ele>1989.6</ele>
        <time>2024-08-11T07:13:17Z</time>
      </trkpt>
      <trkpt lat="44.9776" lon="6.44523">
        <ele>1989.4</ele>
        <time>2024-08-11T07:13:18Z</time>
      </trkpt>
      <trkpt lat="44.9776" lon="6.44523">
        <ele>1989</ele>
        <time>2024-08-11T07:13:19Z</time>
      </trkpt>
      <trkpt lat="44.97758" lon="6.44525">
        <ele>1988.4</ele>
        <time>2024-08-11T07:13:20Z</time>
      </trkpt>
      <trkpt lat="44.97758" lon="6.44525">
        <ele>1987.8</ele>
        <time>2024-08-11T07:13:21Z</time>
      </trkpt>
      <trkpt lat="44.97758" lon="6.44525">
        <ele>1987.8</ele>
        <time>2024-08-11T07:13:22Z</time>
      </trkpt>
      <trkpt lat="44.97756" lon="6.44527">
        <ele>1987.2</ele>
        <time>2024-08-11T07:13:23Z</time>
      </trkpt>
      <trkpt lat="44.97756" lon="6.44527">
        <ele>1987</ele>
        <time>2024-08-11T07:13:24Z</time>
      </trkpt>
      <trkpt lat="44.97756" lon="6.44527">
        <ele>1986.8</ele>
        <time>2024-08-11T07:13:25Z</time>
      </trkpt>
      <trkpt lat="44.97756" lon="6.44527">
        <ele>1986.8</ele>
        <time>2024-08-11T07:13:26Z</time>
      </trkpt>
      <trkpt lat="44.97755" lon="6.44524">
        <ele>1986.8</ele>
        <time>2024-08-11T07:13:27Z</time>
      </trkpt>
      <trkpt lat="44.97754" lon="6.44523">
        <ele>1986.2</ele>
        <time>2024-08-11T07:13:28Z</time>
      </trkpt>
      <trkpt lat="44.97754" lon="6.44523">
        <ele>1986</ele>
        <time>2024-08-11T07:13:29Z</time>
      </trkpt>
      <trkpt lat="44.97754" lon="6.44523">
        <ele>1986</ele>
        <time>2024-08-11T07:13:30Z</time>
      </trkpt>
      <trkpt lat="44.97752" lon="6.44522">
        <ele>1985.6</ele>
        <time>2024-08-11T07:13:31Z</time>
      </trkpt>
      <trkpt lat="44.97752" lon="6.44522">
        <ele>1985.2</ele>
        <time>2024-08-11T07:13:32Z</time>
      </trkpt>
      <trkpt lat="44.97752" lon="6.44522">
        <ele>1985</ele>
        <time>2024-08-11T07:13:33Z</time>
      </trkpt>
      <trkpt lat="44.97752" lon="6.44522">
        <ele>1984.8</ele>
        <time>2024-08-11T07:13:34Z</time>
      </trkpt>
      <trkpt lat="44.9775" lon="6.4452">
        <ele>1984.8</ele>
        <time>2024-08-11T07:13:35Z</time>
      </trkpt>
      <trkpt lat="44.9775" lon="6.4452">
        <ele>1984.6</ele>
        <time>2024-08-11T07:13:36Z</time>
      </trkpt>
      <trkpt lat="44.9775" lon="6.4452">
        <ele>1984.2</ele>
        <time>2024-08-11T07:13:37Z</time>
      </trkpt>
      <trkpt lat="44.9775" lon="6.4452">
        <ele>1984.2</ele>
        <time>2024-08-11T07:13:38Z</time>
      </trkpt>
      <trkpt lat="44.9775" lon="6.44522">
        <ele>1984.2</ele>
        <time>2024-08-11T07:13:39Z</time>
      </trkpt>
      <trkpt lat="44.9775" lon="6.44522">
        <ele>1983.8</ele>
        <time>2024-08-11T07:13:40Z</time>
      </trkpt>
      <trkpt lat="44.9775" lon="6.44522">
        <ele>1983.6</ele>
        <time>2024-08-11T07:13:41Z</time>
      </trkpt>
      <trkpt lat="44.97749" lon="6.44525">
        <ele>1983.4</ele>
        <time>2024-08-11T07:13:42Z</time>
      </trkpt>
      <trkpt lat="44.97749" lon="6.44525">
        <ele>1983.2</ele>
        <time>2024-08-11T07:13:43Z</time>
      </trkpt>
      <trkpt lat="44.97749" lon="6.44528">
        <ele>1982.8</ele>
        <time>2024-08-11T07:13:44Z</time>
      </trkpt>
      <trkpt lat="44.97749" lon="6.44528">
        <ele>1982.6</ele>
        <time>2024-08-11T07:13:45Z</time>
      </trkpt>
      <trkpt lat="44.97749" lon="6.44531">
        <ele>1982.2</ele>
        <time>2024-08-11T07:13:46Z</time>
      </trkpt>
      <trkpt lat="44.97749" lon="6.44531">
        <ele>1982</ele>
        <time>2024-08-11T07:13:47Z</time>
      </trkpt>
      <trkpt lat="44.97749" lon="6.44534">
        <ele>1981.6</ele>
        <time>2024-08-11T07:13:48Z</time>
      </trkpt>
      <trkpt lat="44.97749" lon="6.44534">
        <ele>1981.4</ele>
        <time>2024-08-11T07:13:49Z</time>
      </trkpt>
      <trkpt lat="44.97749" lon="6.44534">
        <ele>1981.4</ele>
        <time>2024-08-11T07:13:50Z</time>
      </trkpt>
      <trkpt lat="44.97749" lon="6.44539">
        <ele>1981</ele>
        <time>2024-08-11T07:13:51Z</time>
      </trkpt>
      <trkpt lat="44.97749" lon="6.44539">
        <ele>1980.6</ele>
        <time>2024-08-11T07:13:52Z</time>
      </trkpt>
      <trkpt lat="44.9775" lon="6.44542">
        <ele>1980.6</ele>
        <time>2024-08-11T07:13:53Z</time>
      </trkpt>
      <trkpt lat="44.9775" lon="6.44542">
        <ele>1980.6</ele>
        <time>2024-08-11T07:13:54Z</time>
      </trkpt>
      <trkpt lat="44.9775" lon="6.44544">
        <ele>1980.6</ele>
        <time>2024-08-11T07:13:55Z</time>
      </trkpt>
      <trkpt lat="44.9775" lon="6.44544">
        <ele>1980.6</ele>
        <time>2024-08-11T07:13:56Z</time>
      </trkpt>
      <trkpt lat="44.97748" lon="6.44546">
        <ele>1980.4</ele>
        <time>2024-08-11T07:13:57Z</time>
      </trkpt>
      <trkpt lat="44.97748" lon="6.44546">
        <ele>1980.4</ele>
        <time>2024-08-11T07:13:58Z</time>
      </trkpt>
      <trkpt lat="44.97748" lon="6.44546">
        <ele>1980.2</ele>
        <time>2024-08-11T07:13:59Z</time>
      </trkpt>
      <trkpt lat="44.97748" lon="6.44549">
        <ele>1979.6</ele>
        <time>2024-08-11T07:14:00Z</time>
      </trkpt>
      <trkpt lat="44.97748" lon="6.44549">
        <ele>1979.2</ele>
        <time>2024-08-11T07:14:01Z</time>
      </trkpt>
      <trkpt lat="44.97748" lon="6.44549">
        <ele>1979.4</ele>
        <time>2024-08-11T07:14:02Z</time>
      </trkpt>
      <trkpt lat="44.97748" lon="6.44552">
        <ele>1979.4</ele>
        <time>2024-08-11T07:14:03Z</time>
      </trkpt>
      <trkpt lat="44.97748" lon="6.44552">
        <ele>1979</ele>
        <time>2024-08-11T07:14:04Z</time>
      </trkpt>
      <trkpt lat="44.97749" lon="6.44555">
        <ele>1978.6</ele>
        <time>2024-08-11T07:14:05Z</time>
      </trkpt>
      <trkpt lat="44.97749" lon="6.44555">
        <ele>1978.6</ele>
        <time>2024-08-11T07:14:06Z</time>
      </trkpt>
      <trkpt lat="44.97748" lon="6.44557">
        <ele>1978.6</ele>
        <time>2024-08-11T07:14:07Z</time>
      </trkpt>
      <trkpt lat="44.97748" lon="6.44557">
        <ele>1978.2</ele>
        <time>2024-08-11T07:14:08Z</time>
      </trkpt>
      <trkpt lat="44.97746" lon="6.4456">
        <ele>1978</ele>
        <time>2024-08-11T07:14:09Z</time>
      </trkpt>
      <trkpt lat="44.97746" lon="6.4456">
        <ele>1977.6</ele>
        <time>2024-08-11T07:14:10Z</time>
      </trkpt>
      <trkpt lat="44.97746" lon="6.4456">
        <ele>1977.2</ele>
        <time>2024-08-11T07:14:11Z</time>
      </trkpt>
      <trkpt lat="44.97744" lon="6.44564">
        <ele>1977.2</ele>
        <time>2024-08-11T07:14:12Z</time>
      </trkpt>
      <trkpt lat="44.97742" lon="6.44565">
        <ele>1976.8</ele>
        <time>2024-08-11T07:14:13Z</time>
      </trkpt>
      <trkpt lat="44.97742" lon="6.44565">
        <ele>1976.4</ele>
        <time>2024-08-11T07:14:14Z</time>
      </trkpt>
      <trkpt lat="44.97742" lon="6.44565">
        <ele>1976.2</ele>
        <time>2024-08-11T07:14:15Z</time>
      </trkpt>
      <trkpt lat="44.97742" lon="6.44565">
        <ele>1976</ele>
        <time>2024-08-11T07:14:16Z</time>
      </trkpt>
      <trkpt lat="44.97742" lon="6.44565">
        <ele>1976</ele>
        <time>2024-08-11T07:14:17Z</time>
      </trkpt>
      <trkpt lat="44.97743" lon="6.44569">
        <ele>1975.6</ele>
        <time>2024-08-11T07:14:18Z</time>
      </trkpt>
      <trkpt lat="44.97743" lon="6.44569">
        <ele>1975.2</ele>
        <time>2024-08-11T07:14:19Z</time>
      </trkpt>
      <trkpt lat="44.97744" lon="6.44571">
        <ele>1975</ele>
        <time>2024-08-11T07:14:20Z</time>
      </trkpt>
      <trkpt lat="44.97744" lon="6.44571">
        <ele>1975</ele>
        <time>2024-08-11T07:14:21Z</time>
      </trkpt>
      <trkpt lat="44.97744" lon="6.44574">
        <ele>1974.8</ele>
        <time>2024-08-11T07:14:22Z</time>
      </trkpt>
      <trkpt lat="44.97744" lon="6.44574">
        <ele>1974.4</ele>
        <time>2024-08-11T07:14:23Z</time>
      </trkpt>
      <trkpt lat="44.97743" lon="6.44577">
        <ele>1974</ele>
        <time>2024-08-11T07:14:24Z</time>
      </trkpt>
      <trkpt lat="44.97743" lon="6.44577">
        <ele>1973.6</ele>
        <time>2024-08-11T07:14:25Z</time>
      </trkpt>
      <trkpt lat="44.97744" lon="6.4458">
        <ele>1973.4</ele>
        <time>2024-08-11T07:14:26Z</time>
      </trkpt>
      <trkpt lat="44.97744" lon="6.4458">
        <ele>1973.4</ele>
        <time>2024-08-11T07:14:27Z</time>
      </trkpt>
      <trkpt lat="44.97744" lon="6.44584">
        <ele>1973</ele>
        <time>2024-08-11T07:14:28Z</time>
      </trkpt>
      <trkpt lat="44.97744" lon="6.44584">
        <ele>1972.6</ele>
        <time>2024-08-11T07:14:29Z</time>
      </trkpt>
      <trkpt lat="44.97744" lon="6.44584">
        <ele>1972</ele>
        <time>2024-08-11T07:14:30Z</time>
      </trkpt>
      <trkpt lat="44.97744" lon="6.44589">
        <ele>1971.4</ele>
        <time>2024-08-11T07:14:31Z</time>
      </trkpt>
      <trkpt lat="44.97744" lon="6.44591">
        <ele>1971.2</ele>
        <time>2024-08-11T07:14:32Z</time>
      </trkpt>
      <trkpt lat="44.97744" lon="6.44591">
        <ele>1971.2</ele>
        <time>2024-08-11T07:14:33Z</time>
      </trkpt>
      <trkpt lat="44.97742" lon="6.44593">
        <ele>1970.8</ele>
        <time>2024-08-11T07:14:34Z</time>
      </trkpt>
      <trkpt lat="44.97742" lon="6.44593">
        <ele>1970.4</ele>
        <time>2024-08-11T07:14:35Z</time>
      </trkpt>
      <trkpt lat="44.97741" lon="6.44596">
        <ele>1970</ele>
        <time>2024-08-11T07:14:36Z</time>
      </trkpt>
      <trkpt lat="44.97741" lon="6.44596">
        <ele>1969.6</ele>
        <time>2024-08-11T07:14:37Z</time>
      </trkpt>
      <trkpt lat="44.97741" lon="6.446">
        <ele>1969.4</ele>
        <time>2024-08-11T07:14:38Z</time>
      </trkpt>
      <trkpt lat="44.97741" lon="6.446">
        <ele>1969.2</ele>
        <time>2024-08-11T07:14:39Z</time>
      </trkpt>
      <trkpt lat="44.9774" lon="6.44602">
        <ele>1969</ele>
        <time>2024-08-11T07:14:40Z</time>
      </trkpt>
      <trkpt lat="44.9774" lon="6.44602">
        <ele>1969</ele>
        <time>2024-08-11T07:14:41Z</time>
      </trkpt>
      <trkpt lat="44.9774" lon="6.44602">
        <ele>1968.6</ele>
        <time>2024-08-11T07:14:42Z</time>
      </trkpt>
      <trkpt lat="44.9774" lon="6.44602">
        <ele>1968.4</ele>
        <time>2024-08-11T07:14:43Z</time>
      </trkpt>
      <trkpt lat="44.97739" lon="6.446">
        <ele>1968</ele>
        <time>2024-08-11T07:14:44Z</time>
      </trkpt>
      <trkpt lat="44.97739" lon="6.446">
        <ele>1968</ele>
        <time>2024-08-11T07:14:45Z</time>
      </trkpt>
      <trkpt lat="44.97739" lon="6.446">
        <ele>1968</ele>
        <time>2024-08-11T07:14:46Z</time>
      </trkpt>
      <trkpt lat="44.97738" lon="6.44596">
        <ele>1967.4</ele>
        <time>2024-08-11T07:14:47Z</time>
      </trkpt>
      <trkpt lat="44.97738" lon="6.44594">
        <ele>1967.4</ele>
        <time>2024-08-11T07:14:48Z</time>
      </trkpt>
      <trkpt lat="44.97738" lon="6.44594">
        <ele>1967.2</ele>
        <time>2024-08-11T07:14:49Z</time>
      </trkpt>
      <trkpt lat="44.97736" lon="6.44591">
        <ele>1967</ele>
        <time>2024-08-11T07:14:50Z</time>
      </trkpt>
      <trkpt lat="44.97736" lon="6.44591">
        <ele>1966.6</ele>
        <time>2024-08-11T07:14:51Z</time>
      </trkpt>
      <trkpt lat="44.97734" lon="6.44589">
        <ele>1966.4</ele>
        <time>2024-08-11T07:14:52Z</time>
      </trkpt>
      <trkpt lat="44.97734" lon="6.44589">
        <ele>1965.8</ele>
        <time>2024-08-11T07:14:53Z</time>
      </trkpt>
      <trkpt lat="44.97734" lon="6.44589">
        <ele>1965.8</ele>
        <time>2024-08-11T07:14:54Z</time>
      </trkpt>
      <trkpt lat="44.97733" lon="6.44586">
        <ele>1965.4</ele>
        <time>2024-08-11T07:14:55Z</time>
      </trkpt>
      <trkpt lat="44.97733" lon="6.44586">
        <ele>1965.4</ele>
        <time>2024-08-11T07:14:56Z</time>
      </trkpt>
      <trkpt lat="44.97733" lon="6.44586">
        <ele>1965</ele>
        <time>2024-08-11T07:14:57Z</time>
      </trkpt>
      <trkpt lat="44.97733" lon="6.44586">
        <ele>1964.4</ele>
        <time>2024-08-11T07:14:58Z</time>
      </trkpt>
      <trkpt lat="44.97733" lon="6.44586">
        <ele>1964.4</ele>
        <time>2024-08-11T07:14:59Z</time>
      </trkpt>
      <trkpt lat="44.97733" lon="6.44586">
        <ele>1964.2</ele>
        <time>2024-08-11T07:15:00Z</time>
      </trkpt>
      <trkpt lat="44.97733" lon="6.44586">
        <ele>1964.2</ele>
        <time>2024-08-11T07:15:01Z</time>
      </trkpt>
      <trkpt lat="44.97733" lon="6.44586">
        <ele>1963.8</ele>
        <time>2024-08-11T07:15:02Z</time>
      </trkpt>
      <trkpt lat="44.97733" lon="6.44586">
        <ele>1963.8</ele>
        <time>2024-08-11T07:15:03Z</time>
      </trkpt>
      <trkpt lat="44.97733" lon="6.44586">
        <ele>1963.8</ele>
        <time>2024-08-11T07:15:04Z</time>
      </trkpt>
      <trkpt lat="44.97733" lon="6.44586">
        <ele>1963.8</ele>
        <time>2024-08-11T07:15:05Z</time>
      </trkpt>
      <trkpt lat="44.97733" lon="6.44586">
        <ele>1963.8</ele>
        <time>2024-08-11T07:15:06Z</time>
      </trkpt>
      <trkpt lat="44.97733" lon="6.44586">
        <ele>1963.8</ele>
        <time>2024-08-11T07:15:07Z</time>
      </trkpt>
      <trkpt lat="44.97733" lon="6.44586">
        <ele>1963.8</ele>
        <time>2024-08-11T07:15:08Z</time>
      </trkpt>
      <trkpt lat="44.97733" lon="6.44586">
        <ele>1963.8</ele>
        <time>2024-08-11T07:15:09Z</time>
      </trkpt>
      <trkpt lat="44.97733" lon="6.44586">
        <ele>1963.8</ele>
        <time>2024-08-11T07:15:10Z</time>
      </trkpt>
      <trkpt lat="44.97733" lon="6.44586">
        <ele>1963.8</ele>
        <time>2024-08-11T07:15:11Z</time>
      </trkpt>
      <trkpt lat="44.97733" lon="6.44586">
        <ele>1964</ele>
        <time>2024-08-11T07:15:12Z</time>
      </trkpt>
      <trkpt lat="44.97733" lon="6.44586">
        <ele>1964</ele>
        <time>2024-08-11T07:15:13Z</time>
      </trkpt>
      <trkpt lat="44.97733" lon="6.44586">
        <ele>1964</ele>
        <time>2024-08-11T07:15:14Z</time>
      </trkpt>
      <trkpt lat="44.97733" lon="6.44586">
        <ele>1964</ele>
        <time>2024-08-11T07:15:15Z</time>
      </trkpt>
      <trkpt lat="44.97733" lon="6.44586">
        <ele>1963.8</ele>
        <time>2024-08-11T07:15:16Z</time>
      </trkpt>
      <trkpt lat="44.97733" lon="6.44586">
        <ele>1964</ele>
        <time>2024-08-11T07:15:17Z</time>
      </trkpt>
      <trkpt lat="44.97733" lon="6.44586">
        <ele>1964</ele>
        <time>2024-08-11T07:15:18Z</time>
      </trkpt>
      <trkpt lat="44.97733" lon="6.44586">
        <ele>1964</ele>
        <time>2024-08-11T07:15:19Z</time>
      </trkpt>
      <trkpt lat="44.97733" lon="6.44586">
        <ele>1964</ele>
        <time>2024-08-11T07:15:20Z</time>
      </trkpt>
      <trkpt lat="44.97733" lon="6.44586">
        <ele>1964</ele>
        <time>2024-08-11T07:15:21Z</time>
      </trkpt>
      <trkpt lat="44.97733" lon="6.44586">
        <ele>1964.2</ele>
        <time>2024-08-11T07:15:22Z</time>
      </trkpt>
      <trkpt lat="44.97733" lon="6.44586">
        <ele>1964.4</ele>
        <time>2024-08-11T07:15:23Z</time>
      </trkpt>
      <trkpt lat="44.97733" lon="6.44586">
        <ele>1964.4</ele>
        <time>2024-08-11T07:15:24Z</time>
      </trkpt>
      <trkpt lat="44.97733" lon="6.44586">
        <ele>1964.2</ele>
        <time>2024-08-11T07:15:25Z</time>
      </trkpt>
      <trkpt lat="44.97733" lon="6.44586">
        <ele>1963.8</ele>
        <time>2024-08-11T07:15:26Z</time>
      </trkpt>
      <trkpt lat="44.97733" lon="6.44586">
        <ele>1963.6</ele>
        <time>2024-08-11T07:15:27Z</time>
      </trkpt>
      <trkpt lat="44.97733" lon="6.44586">
        <ele>1963.6</ele>
        <time>2024-08-11T07:15:28Z</time>
      </trkpt>
      <trkpt lat="44.97732" lon="6.44589">
        <ele>1963.6</ele>
        <time>2024-08-11T07:15:29Z</time>
      </trkpt>
      <trkpt lat="44.97732" lon="6.44589">
        <ele>1963.6</ele>
        <time>2024-08-11T07:15:30Z</time>
      </trkpt>
      <trkpt lat="44.97732" lon="6.44592">
        <ele>1963.4</ele>
        <time>2024-08-11T07:15:31Z</time>
      </trkpt>
      <trkpt lat="44.97732" lon="6.44592">
        <ele>1963</ele>
        <time>2024-08-11T07:15:32Z</time>
      </trkpt>
      <trkpt lat="44.97732" lon="6.44596">
        <ele>1962.6</ele>
        <time>2024-08-11T07:15:33Z</time>
      </trkpt>
      <trkpt lat="44.97732" lon="6.44596">
        <ele>1962.4</ele>
        <time>2024-08-11T07:15:34Z</time>
      </trkpt>
      <trkpt lat="44.97731" lon="6.44599">
        <ele>1962.2</ele>
        <time>2024-08-11T07:15:35Z</time>
      </trkpt>
      <trkpt lat="44.97731" lon="6.44599">
        <ele>1961.8</ele>
        <time>2024-08-11T07:15:36Z</time>
      </trkpt>
      <trkpt lat="44.97731" lon="6.44602">
        <ele>1961.6</ele>
        <time>2024-08-11T07:15:37Z</time>
      </trkpt>
      <trkpt lat="44.97731" lon="6.44602">
        <ele>1961.6</ele>
        <time>2024-08-11T07:15:38Z</time>
      </trkpt>
      <trkpt lat="44.97731" lon="6.44602">
        <ele>1961.4</ele>
        <time>2024-08-11T07:15:39Z</time>
      </trkpt>
      <trkpt lat="44.97731" lon="6.44606">
        <ele>1961</ele>
        <time>2024-08-11T07:15:40Z</time>
      </trkpt>
      <trkpt lat="44.97731" lon="6.44606">
        <ele>1960.6</ele>
        <time>2024-08-11T07:15:41Z</time>
      </trkpt>
      <trkpt lat="44.97731" lon="6.44606">
        <ele>1960.6</ele>
        <time>2024-08-11T07:15:42Z</time>
      </trkpt>
      <trkpt lat="44.97728" lon="6.44608">
        <ele>1960.4</ele>
        <time>2024-08-11T07:15:43Z</time>
      </trkpt>
      <trkpt lat="44.97728" lon="6.44608">
        <ele>1960</ele>
        <time>2024-08-11T07:15:44Z</time>
      </trkpt>
      <trkpt lat="44.97728" lon="6.44608">
        <ele>1959.6</ele>
        <time>2024-08-11T07:15:45Z</time>
      </trkpt>
      <trkpt lat="44.97728" lon="6.44611">
        <ele>1959.2</ele>
        <time>2024-08-11T07:15:46Z</time>
      </trkpt>
      <trkpt lat="44.97728" lon="6.44611">
        <ele>1959</ele>
        <time>2024-08-11T07:15:47Z</time>
      </trkpt>
      <trkpt lat="44.97728" lon="6.44611">
        <ele>1958.6</ele>
        <time>2024-08-11T07:15:48Z</time>
      </trkpt>
      <trkpt lat="44.97728" lon="6.44613">
        <ele>1958.6</ele>
        <time>2024-08-11T07:15:49Z</time>
      </trkpt>
      <trkpt lat="44.97728" lon="6.44613">
        <ele>1958.4</ele>
        <time>2024-08-11T07:15:50Z</time>
      </trkpt>
      <trkpt lat="44.97728" lon="6.44613">
        <ele>1958</ele>
        <time>2024-08-11T07:15:51Z</time>
      </trkpt>
      <trkpt lat="44.97728" lon="6.44613">
        <ele>1957.6</ele>
        <time>2024-08-11T07:15:52Z</time>
      </trkpt>
      <trkpt lat="44.97727" lon="6.44617">
        <ele>1957.2</ele>
        <time>2024-08-11T07:15:53Z</time>
      </trkpt>
      <trkpt lat="44.97727" lon="6.44617">
        <ele>1957</ele>
        <time>2024-08-11T07:15:54Z</time>
      </trkpt>
      <trkpt lat="44.97727" lon="6.44619">
        <ele>1956.8</ele>
        <time>2024-08-11T07:15:55Z</time>
      </trkpt>
      <trkpt lat="44.97727" lon="6.44619">
        <ele>1956.6</ele>
        <time>2024-08-11T07:15:56Z</time>
      </trkpt>
      <trkpt lat="44.97727" lon="6.44619">
        <ele>1956.2</ele>
        <time>2024-08-11T07:15:57Z</time>
      </trkpt>
      <trkpt lat="44.97724" lon="6.4462">
        <ele>1955.6</ele>
        <time>2024-08-11T07:15:58Z</time>
      </trkpt>
      <trkpt lat="44.97724" lon="6.4462">
        <ele>1955.2</ele>
        <time>2024-08-11T07:15:59Z</time>
      </trkpt>
      <trkpt lat="44.97723" lon="6.44619">
        <ele>1954.8</ele>
        <time>2024-08-11T07:16:00Z</time>
      </trkpt>
      <trkpt lat="44.97723" lon="6.44619">
        <ele>1954.6</ele>
        <time>2024-08-11T07:16:01Z</time>
      </trkpt>
      <trkpt lat="44.97723" lon="6.44619">
        <ele>1954.2</ele>
        <time>2024-08-11T07:16:02Z</time>
      </trkpt>
      <trkpt lat="44.9772" lon="6.44615">
        <ele>1954.2</ele>
        <time>2024-08-11T07:16:03Z</time>
      </trkpt>
      <trkpt lat="44.9772" lon="6.44614">
        <ele>1954</ele>
        <time>2024-08-11T07:16:04Z</time>
      </trkpt>
      <trkpt lat="44.9772" lon="6.44614">
        <ele>1953.8</ele>
        <time>2024-08-11T07:16:05Z</time>
      </trkpt>
      <trkpt lat="44.97718" lon="6.44613">
        <ele>1953.6</ele>
        <time>2024-08-11T07:16:06Z</time>
      </trkpt>
      <trkpt lat="44.97718" lon="6.44613">
        <ele>1953.6</ele>
        <time>2024-08-11T07:16:07Z</time>
      </trkpt>
      <trkpt lat="44.97718" lon="6.44613">
        <ele>1953.4</ele>
        <time>2024-08-11T07:16:08Z</time>
      </trkpt>
      <trkpt lat="44.97716" lon="6.44612">
        <ele>1953</ele>
        <time>2024-08-11T07:16:09Z</time>
      </trkpt>
      <trkpt lat="44.97716" lon="6.44612">
        <ele>1952.8</ele>
        <time>2024-08-11T07:16:10Z</time>
      </trkpt>
      <trkpt lat="44.97716" lon="6.44612">
        <ele>1952.6</ele>
        <time>2024-08-11T07:16:11Z</time>
      </trkpt>
      <trkpt lat="44.97716" lon="6.44612">
        <ele>1952.2</ele>
        <time>2024-08-11T07:16:12Z</time>
      </trkpt>
      <trkpt lat="44.97715" lon="6.44617">
        <ele>1952</ele>
        <time>2024-08-11T07:16:13Z</time>
      </trkpt>
      <trkpt lat="44.97715" lon="6.44618">
        <ele>1951.8</ele>
        <time>2024-08-11T07:16:14Z</time>
      </trkpt>
      <trkpt lat="44.97715" lon="6.44618">
        <ele>1951.6</ele>
        <time>2024-08-11T07:16:15Z</time>
      </trkpt>
      <trkpt lat="44.97716" lon="6.4462">
        <ele>1951.6</ele>
        <time>2024-08-11T07:16:16Z</time>
      </trkpt>
      <trkpt lat="44.97716" lon="6.4462">
        <ele>1951.2</ele>
        <time>2024-08-11T07:16:17Z</time>
      </trkpt>
      <trkpt lat="44.97716" lon="6.44623">
        <ele>1951.2</ele>
        <time>2024-08-11T07:16:18Z</time>
      </trkpt>
      <trkpt lat="44.97716" lon="6.44623">
        <ele>1950.8</ele>
        <time>2024-08-11T07:16:19Z</time>
      </trkpt>
      <trkpt lat="44.97716" lon="6.44626">
        <ele>1950.2</ele>
        <time>2024-08-11T07:16:20Z</time>
      </trkpt>
      <trkpt lat="44.97716" lon="6.44626">
        <ele>1950</ele>
        <time>2024-08-11T07:16:21Z</time>
      </trkpt>
      <trkpt lat="44.97716" lon="6.44626">
        <ele>1950</ele>
        <time>2024-08-11T07:16:22Z</time>
      </trkpt>
      <trkpt lat="44.97716" lon="6.4463">
        <ele>1949.8</ele>
        <time>2024-08-11T07:16:23Z</time>
      </trkpt>
      <trkpt lat="44.97716" lon="6.4463">
        <ele>1949.4</ele>
        <time>2024-08-11T07:16:24Z</time>
      </trkpt>
      <trkpt lat="44.97716" lon="6.44633">
        <ele>1949.2</ele>
        <time>2024-08-11T07:16:25Z</time>
      </trkpt>
      <trkpt lat="44.97716" lon="6.44633">
        <ele>1949</ele>
        <time>2024-08-11T07:16:26Z</time>
      </trkpt>
      <trkpt lat="44.97715" lon="6.44635">
        <ele>1948.8</ele>
        <time>2024-08-11T07:16:27Z</time>
      </trkpt>
      <trkpt lat="44.97715" lon="6.44635">
        <ele>1948.8</ele>
        <time>2024-08-11T07:16:28Z</time>
      </trkpt>
      <trkpt lat="44.97715" lon="6.44638">
        <ele>1948.2</ele>
        <time>2024-08-11T07:16:29Z</time>
      </trkpt>
      <trkpt lat="44.97715" lon="6.44638">
        <ele>1948</ele>
        <time>2024-08-11T07:16:30Z</time>
      </trkpt>
      <trkpt lat="44.97715" lon="6.44638">
        <ele>1947.8</ele>
        <time>2024-08-11T07:16:31Z</time>
      </trkpt>
      <trkpt lat="44.97714" lon="6.44642">
        <ele>1947.4</ele>
        <time>2024-08-11T07:16:32Z</time>
      </trkpt>
      <trkpt lat="44.97714" lon="6.44642">
        <ele>1947.2</ele>
        <time>2024-08-11T07:16:33Z</time>
      </trkpt>
      <trkpt lat="44.97714" lon="6.44646">
        <ele>1947</ele>
        <time>2024-08-11T07:16:34Z</time>
      </trkpt>
      <trkpt lat="44.97714" lon="6.44647">
        <ele>1946.8</ele>
        <time>2024-08-11T07:16:35Z</time>
      </trkpt>
      <trkpt lat="44.97714" lon="6.44648">
        <ele>1946.4</ele>
        <time>2024-08-11T07:16:36Z</time>
      </trkpt>
      <trkpt lat="44.97714" lon="6.44649">
        <ele>1946.2</ele>
        <time>2024-08-11T07:16:37Z</time>
      </trkpt>
      <trkpt lat="44.97714" lon="6.44649">
        <ele>1946</ele>
        <time>2024-08-11T07:16:38Z</time>
      </trkpt>
      <trkpt lat="44.97714" lon="6.44649">
        <ele>1945.8</ele>
        <time>2024-08-11T07:16:39Z</time>
      </trkpt>
      <trkpt lat="44.97712" lon="6.44651">
        <ele>1945.2</ele>
        <time>2024-08-11T07:16:40Z</time>
      </trkpt>
      <trkpt lat="44.97712" lon="6.44651">
        <ele>1945</ele>
        <time>2024-08-11T07:16:41Z</time>
      </trkpt>
      <trkpt lat="44.97711" lon="6.44653">
        <ele>1944.8</ele>
        <time>2024-08-11T07:16:42Z</time>
      </trkpt>
      <trkpt lat="44.97711" lon="6.44653">
        <ele>1944.6</ele>
        <time>2024-08-11T07:16:43Z</time>
      </trkpt>
      <trkpt lat="44.97711" lon="6.44653">
        <ele>1944.2</ele>
        <time>2024-08-11T07:16:44Z</time>
      </trkpt>
      <trkpt lat="44.97711" lon="6.44653">
        <ele>1944.2</ele>
        <time>2024-08-11T07:16:45Z</time>
      </trkpt>
      <trkpt lat="44.9771" lon="6.44657">
        <ele>1944</ele>
        <time>2024-08-11T07:16:46Z</time>
      </trkpt>
      <trkpt lat="44.9771" lon="6.44657">
        <ele>1943.4</ele>
        <time>2024-08-11T07:16:47Z</time>
      </trkpt>
      <trkpt lat="44.9771" lon="6.4466">
        <ele>1943</ele>
        <time>2024-08-11T07:16:48Z</time>
      </trkpt>
      <trkpt lat="44.9771" lon="6.4466">
        <ele>1943</ele>
        <time>2024-08-11T07:16:49Z</time>
      </trkpt>
      <trkpt lat="44.97709" lon="6.44663">
        <ele>1942.6</ele>
        <time>2024-08-11T07:16:50Z</time>
      </trkpt>
      <trkpt lat="44.97709" lon="6.44663">
        <ele>1942.4</ele>
        <time>2024-08-11T07:16:51Z</time>
      </trkpt>
      <trkpt lat="44.97709" lon="6.44663">
        <ele>1942</ele>
        <time>2024-08-11T07:16:52Z</time>
      </trkpt>
      <trkpt lat="44.97709" lon="6.44666">
        <ele>1941.8</ele>
        <time>2024-08-11T07:16:53Z</time>
      </trkpt>
      <trkpt lat="44.97709" lon="6.44666">
        <ele>1941.8</ele>
        <time>2024-08-11T07:16:54Z</time>
      </trkpt>
      <trkpt lat="44.97708" lon="6.44669">
        <ele>1941.2</ele>
        <time>2024-08-11T07:16:55Z</time>
      </trkpt>
      <trkpt lat="44.97708" lon="6.44669">
        <ele>1941.2</ele>
        <time>2024-08-11T07:16:56Z</time>
      </trkpt>
      <trkpt lat="44.97708" lon="6.44669">
        <ele>1941</ele>
        <time>2024-08-11T07:16:57Z</time>
      </trkpt>
      <trkpt lat="44.97705" lon="6.44667">
        <ele>1940.8</ele>
        <time>2024-08-11T07:16:58Z</time>
      </trkpt>
      <trkpt lat="44.97705" lon="6.44667">
        <ele>1940.4</ele>
        <time>2024-08-11T07:16:59Z</time>
      </trkpt>
      <trkpt lat="44.97705" lon="6.44667">
        <ele>1940.4</ele>
        <time>2024-08-11T07:17:00Z</time>
      </trkpt>
      <trkpt lat="44.97704" lon="6.44665">
        <ele>1940</ele>
        <time>2024-08-11T07:17:01Z</time>
      </trkpt>
      <trkpt lat="44.97704" lon="6.44665">
        <ele>1939.8</ele>
        <time>2024-08-11T07:17:02Z</time>
      </trkpt>
      <trkpt lat="44.97702" lon="6.44662">
        <ele>1939.8</ele>
        <time>2024-08-11T07:17:03Z</time>
      </trkpt>
      <trkpt lat="44.97702" lon="6.44662">
        <ele>1939.6</ele>
        <time>2024-08-11T07:17:04Z</time>
      </trkpt>
      <trkpt lat="44.97702" lon="6.44662">
        <ele>1939.4</ele>
        <time>2024-08-11T07:17:05Z</time>
      </trkpt>
      <trkpt lat="44.97702" lon="6.44662">
        <ele>1939</ele>
        <time>2024-08-11T07:17:06Z</time>
      </trkpt>
      <trkpt lat="44.97702" lon="6.44662">
        <ele>1938.8</ele>
        <time>2024-08-11T07:17:07Z</time>
      </trkpt>
      <trkpt lat="44.97702" lon="6.44662">
        <ele>1938.6</ele>
        <time>2024-08-11T07:17:08Z</time>
      </trkpt>
      <trkpt lat="44.97701" lon="6.44665">
        <ele>1938.4</ele>
        <time>2024-08-11T07:17:09Z</time>
      </trkpt>
      <trkpt lat="44.97701" lon="6.44665">
        <ele>1938.2</ele>
        <time>2024-08-11T07:17:10Z</time>
      </trkpt>
      <trkpt lat="44.97701" lon="6.44665">
        <ele>1938</ele>
        <time>2024-08-11T07:17:11Z</time>
      </trkpt>
      <trkpt lat="44.97701" lon="6.44665">
        <ele>1937.8</ele>
        <time>2024-08-11T07:17:12Z</time>
      </trkpt>
      <trkpt lat="44.97701" lon="6.4467">
        <ele>1937.8</ele>
        <time>2024-08-11T07:17:13Z</time>
      </trkpt>
      <trkpt lat="44.97701" lon="6.4467">
        <ele>1937.6</ele>
        <time>2024-08-11T07:17:14Z</time>
      </trkpt>
      <trkpt lat="44.97701" lon="6.4467">
        <ele>1937.4</ele>
        <time>2024-08-11T07:17:15Z</time>
      </trkpt>
      <trkpt lat="44.97701" lon="6.4467">
        <ele>1936.8</ele>
        <time>2024-08-11T07:17:16Z</time>
      </trkpt>
      <trkpt lat="44.97701" lon="6.4467">
        <ele>1936.6</ele>
        <time>2024-08-11T07:17:17Z</time>
      </trkpt>
      <trkpt lat="44.97701" lon="6.4467">
        <ele>1936.4</ele>
        <time>2024-08-11T07:17:18Z</time>
      </trkpt>
      <trkpt lat="44.977" lon="6.44672">
        <ele>1936.4</ele>
        <time>2024-08-11T07:17:19Z</time>
      </trkpt>
      <trkpt lat="44.977" lon="6.44672">
        <ele>1936.4</ele>
        <time>2024-08-11T07:17:20Z</time>
      </trkpt>
      <trkpt lat="44.977" lon="6.44672">
        <ele>1936.2</ele>
        <time>2024-08-11T07:17:21Z</time>
      </trkpt>
      <trkpt lat="44.97699" lon="6.44676">
        <ele>1935.8</ele>
        <time>2024-08-11T07:17:22Z</time>
      </trkpt>
      <trkpt lat="44.97699" lon="6.44676">
        <ele>1935.4</ele>
        <time>2024-08-11T07:17:23Z</time>
      </trkpt>
      <trkpt lat="44.97698" lon="6.44679">
        <ele>1935</ele>
        <time>2024-08-11T07:17:24Z</time>
      </trkpt>
      <trkpt lat="44.97698" lon="6.44679">
        <ele>1934.8</ele>
        <time>2024-08-11T07:17:25Z</time>
      </trkpt>
      <trkpt lat="44.97698" lon="6.44679">
        <ele>1934.8</ele>
        <time>2024-08-11T07:17:26Z</time>
      </trkpt>
      <trkpt lat="44.97698" lon="6.44684">
        <ele>1934.4</ele>
        <time>2024-08-11T07:17:27Z</time>
      </trkpt>
      <trkpt lat="44.97698" lon="6.44685">
        <ele>1934.2</ele>
        <time>2024-08-11T07:17:28Z</time>
      </trkpt>
      <trkpt lat="44.97698" lon="6.44685">
        <ele>1934</ele>
        <time>2024-08-11T07:17:29Z</time>
      </trkpt>
      <trkpt lat="44.97698" lon="6.44688">
        <ele>1933.8</ele>
        <time>2024-08-11T07:17:30Z</time>
      </trkpt>
      <trkpt lat="44.97698" lon="6.44688">
        <ele>1933.6</ele>
        <time>2024-08-11T07:17:31Z</time>
      </trkpt>
      <trkpt lat="44.97698" lon="6.44688">
        <ele>1933</ele>
        <time>2024-08-11T07:17:32Z</time>
      </trkpt>
      <trkpt lat="44.97695" lon="6.44691">
        <ele>1932.6</ele>
        <time>2024-08-11T07:17:33Z</time>
      </trkpt>
      <trkpt lat="44.97695" lon="6.44692">
        <ele>1932.4</ele>
        <time>2024-08-11T07:17:34Z</time>
      </trkpt>
      <trkpt lat="44.97695" lon="6.44692">
        <ele>1932</ele>
        <time>2024-08-11T07:17:35Z</time>
      </trkpt>
      <trkpt lat="44.97695" lon="6.44692">
        <ele>1931.8</ele>
        <time>2024-08-11T07:17:36Z</time>
      </trkpt>
      <trkpt lat="44.97696" lon="6.44697">
        <ele>1931.6</ele>
        <time>2024-08-11T07:17:37Z</time>
      </trkpt>
      <trkpt lat="44.97696" lon="6.44697">
        <ele>1931.4</ele>
        <time>2024-08-11T07:17:38Z</time>
      </trkpt>
      <trkpt lat="44.97695" lon="6.44699">
        <ele>1931</ele>
        <time>2024-08-11T07:17:39Z</time>
      </trkpt>
      <trkpt lat="44.97695" lon="6.44701">
        <ele>1930.6</ele>
        <time>2024-08-11T07:17:40Z</time>
      </trkpt>
      <trkpt lat="44.97695" lon="6.44701">
        <ele>1930.4</ele>
        <time>2024-08-11T07:17:41Z</time>
      </trkpt>
      <trkpt lat="44.97695" lon="6.44701">
        <ele>1930</ele>
        <time>2024-08-11T07:17:42Z</time>
      </trkpt>
      <trkpt lat="44.97694" lon="6.44705">
        <ele>1929.8</ele>
        <time>2024-08-11T07:17:43Z</time>
      </trkpt>
      <trkpt lat="44.97694" lon="6.44705">
        <ele>1929.6</ele>
        <time>2024-08-11T07:17:44Z</time>
      </trkpt>
      <trkpt lat="44.97694" lon="6.44705">
        <ele>1929.4</ele>
        <time>2024-08-11T07:17:45Z</time>
      </trkpt>
      <trkpt lat="44.97693" lon="6.44709">
        <ele>1929.2</ele>
        <time>2024-08-11T07:17:46Z</time>
      </trkpt>
      <trkpt lat="44.97692" lon="6.4471">
        <ele>1929</ele>
        <time>2024-08-11T07:17:47Z</time>
      </trkpt>
      <trkpt lat="44.97692" lon="6.4471">
        <ele>1928.8</ele>
        <time>2024-08-11T07:17:48Z</time>
      </trkpt>
      <trkpt lat="44.97691" lon="6.44713">
        <ele>1928.6</ele>
        <time>2024-08-11T07:17:49Z</time>
      </trkpt>
      <trkpt lat="44.97691" lon="6.44713">
        <ele>1928.4</ele>
        <time>2024-08-11T07:17:50Z</time>
      </trkpt>
      <trkpt lat="44.97691" lon="6.44715">
        <ele>1928.4</ele>
        <time>2024-08-11T07:17:51Z</time>
      </trkpt>
      <trkpt lat="44.97691" lon="6.44715">
        <ele>1928.2</ele>
        <time>2024-08-11T07:17:52Z</time>
      </trkpt>
      <trkpt lat="44.97691" lon="6.44715">
        <ele>1928</ele>
        <time>2024-08-11T07:17:53Z</time>
      </trkpt>
      <trkpt lat="44.9769" lon="6.44718">
        <ele>1927.8</ele>
        <time>2024-08-11T07:17:54Z</time>
      </trkpt>
      <trkpt lat="44.9769" lon="6.44718">
        <ele>1927.6</ele>
        <time>2024-08-11T07:17:55Z</time>
      </trkpt>
      <trkpt lat="44.9769" lon="6.44718">
        <ele>1927.4</ele>
        <time>2024-08-11T07:17:56Z</time>
      </trkpt>
      <trkpt lat="44.97689" lon="6.44721">
        <ele>1927.2</ele>
        <time>2024-08-11T07:17:57Z</time>
      </trkpt>
      <trkpt lat="44.97689" lon="6.44721">
        <ele>1927</ele>
        <time>2024-08-11T07:17:58Z</time>
      </trkpt>
      <trkpt lat="44.97688" lon="6.44724">
        <ele>1926.6</ele>
        <time>2024-08-11T07:17:59Z</time>
      </trkpt>
      <trkpt lat="44.97688" lon="6.44724">
        <ele>1926.2</ele>
        <time>2024-08-11T07:18:00Z</time>
      </trkpt>
      <trkpt lat="44.97687" lon="6.44727">
        <ele>1926</ele>
        <time>2024-08-11T07:18:01Z</time>
      </trkpt>
      <trkpt lat="44.97687" lon="6.44727">
        <ele>1926</ele>
        <time>2024-08-11T07:18:02Z</time>
      </trkpt>
      <trkpt lat="44.97685" lon="6.44729">
        <ele>1926</ele>
        <time>2024-08-11T07:18:03Z</time>
      </trkpt>
      <trkpt lat="44.97685" lon="6.44729">
        <ele>1925.8</ele>
        <time>2024-08-11T07:18:04Z</time>
      </trkpt>
      <trkpt lat="44.97685" lon="6.44729">
        <ele>1925.6</ele>
        <time>2024-08-11T07:18:05Z</time>
      </trkpt>
      <trkpt lat="44.97683" lon="6.44732">
        <ele>1925.6</ele>
        <time>2024-08-11T07:18:06Z</time>
      </trkpt>
      <trkpt lat="44.97682" lon="6.44734">
        <ele>1925.6</ele>
        <time>2024-08-11T07:18:07Z</time>
      </trkpt>
      <trkpt lat="44.97682" lon="6.44734">
        <ele>1925.6</ele>
        <time>2024-08-11T07:18:08Z</time>
      </trkpt>
      <trkpt lat="44.97681" lon="6.44736">
        <ele>1925.6</ele>
        <time>2024-08-11T07:18:09Z</time>
      </trkpt>
      <trkpt lat="44.97681" lon="6.44736">
        <ele>1925.6</ele>
        <time>2024-08-11T07:18:10Z</time>
      </trkpt>
      <trkpt lat="44.97679" lon="6.44738">
        <ele>1925.6</ele>
        <time>2024-08-11T07:18:11Z</time>
      </trkpt>
      <trkpt lat="44.97679" lon="6.44738">
        <ele>1925.6</ele>
        <time>2024-08-11T07:18:12Z</time>
      </trkpt>
      <trkpt lat="44.97678" lon="6.4474">
        <ele>1925.6</ele>
        <time>2024-08-11T07:18:13Z</time>
      </trkpt>
      <trkpt lat="44.97678" lon="6.4474">
        <ele>1925.6</ele>
        <time>2024-08-11T07:18:14Z</time>
      </trkpt>
      <trkpt lat="44.97677" lon="6.44742">
        <ele>1925.6</ele>
        <time>2024-08-11T07:18:15Z</time>
      </trkpt>
      <trkpt lat="44.97677" lon="6.44742">
        <ele>1925.4</ele>
        <time>2024-08-11T07:18:16Z</time>
      </trkpt>
      <trkpt lat="44.97677" lon="6.44742">
        <ele>1925.4</ele>
        <time>2024-08-11T07:18:17Z</time>
      </trkpt>
      <trkpt lat="44.97675" lon="6.44746">
        <ele>1925.4</ele>
        <time>2024-08-11T07:18:18Z</time>
      </trkpt>
      <trkpt lat="44.97674" lon="6.44748">
        <ele>1925.4</ele>
        <time>2024-08-11T07:18:19Z</time>
      </trkpt>
      <trkpt lat="44.97674" lon="6.44748">
        <ele>1925.4</ele>
        <time>2024-08-11T07:18:20Z</time>
      </trkpt>
      <trkpt lat="44.97673" lon="6.44751">
        <ele>1925.4</ele>
        <time>2024-08-11T07:18:21Z</time>
      </trkpt>
      <trkpt lat="44.97673" lon="6.44751">
        <ele>1925.2</ele>
        <time>2024-08-11T07:18:22Z</time>
      </trkpt>
      <trkpt lat="44.97673" lon="6.44751">
        <ele>1925.2</ele>
        <time>2024-08-11T07:18:23Z</time>
      </trkpt>
      <trkpt lat="44.97672" lon="6.44755">
        <ele>1925.2</ele>
        <time>2024-08-11T07:18:24Z</time>
      </trkpt>
      <trkpt lat="44.97671" lon="6.44756">
        <ele>1925</ele>
        <time>2024-08-11T07:18:25Z</time>
      </trkpt>
      <trkpt lat="44.97671" lon="6.44756">
        <ele>1924.6</ele>
        <time>2024-08-11T07:18:26Z</time>
      </trkpt>
      <trkpt lat="44.9767" lon="6.44758">
        <ele>1924.6</ele>
        <time>2024-08-11T07:18:27Z</time>
      </trkpt>
      <trkpt lat="44.9767" lon="6.44758">
        <ele>1924.4</ele>
        <time>2024-08-11T07:18:28Z</time>
      </trkpt>
      <trkpt lat="44.9767" lon="6.44758">
        <ele>1924.4</ele>
        <time>2024-08-11T07:18:29Z</time>
      </trkpt>
      <trkpt lat="44.97668" lon="6.44761">
        <ele>1924.4</ele>
        <time>2024-08-11T07:18:30Z</time>
      </trkpt>
      <trkpt lat="44.97667" lon="6.44762">
        <ele>1924.2</ele>
        <time>2024-08-11T07:18:31Z</time>
      </trkpt>
      <trkpt lat="44.97667" lon="6.44762">
        <ele>1923.6</ele>
        <time>2024-08-11T07:18:32Z</time>
      </trkpt>
      <trkpt lat="44.97666" lon="6.44765">
        <ele>1923.6</ele>
        <time>2024-08-11T07:18:33Z</time>
      </trkpt>
      <trkpt lat="44.97666" lon="6.44765">
        <ele>1923.4</ele>
        <time>2024-08-11T07:18:34Z</time>
      </trkpt>
      <trkpt lat="44.97665" lon="6.44768">
        <ele>1923.4</ele>
        <time>2024-08-11T07:18:35Z</time>
      </trkpt>
      <trkpt lat="44.97665" lon="6.44768">
        <ele>1923.2</ele>
        <time>2024-08-11T07:18:36Z</time>
      </trkpt>
      <trkpt lat="44.97665" lon="6.44772">
        <ele>1923</ele>
        <time>2024-08-11T07:18:37Z</time>
      </trkpt>
      <trkpt lat="44.97665" lon="6.44772">
        <ele>1922.8</ele>
        <time>2024-08-11T07:18:38Z</time>
      </trkpt>
      <trkpt lat="44.97665" lon="6.44772">
        <ele>1922.6</ele>
        <time>2024-08-11T07:18:39Z</time>
      </trkpt>
      <trkpt lat="44.97665" lon="6.44777">
        <ele>1922.2</ele>
        <time>2024-08-11T07:18:40Z</time>
      </trkpt>
      <trkpt lat="44.97665" lon="6.44779">
        <ele>1922.2</ele>
        <time>2024-08-11T07:18:41Z</time>
      </trkpt>
      <trkpt lat="44.97665" lon="6.44779">
        <ele>1922</ele>
        <time>2024-08-11T07:18:42Z</time>
      </trkpt>
      <trkpt lat="44.97663" lon="6.44781">
        <ele>1922</ele>
        <time>2024-08-11T07:18:43Z</time>
      </trkpt>
      <trkpt lat="44.97663" lon="6.44781">
        <ele>1922</ele>
        <time>2024-08-11T07:18:44Z</time>
      </trkpt>
      <trkpt lat="44.97662" lon="6.44784">
        <ele>1922</ele>
        <time>2024-08-11T07:18:45Z</time>
      </trkpt>
      <trkpt lat="44.97662" lon="6.44784">
        <ele>1921.8</ele>
        <time>2024-08-11T07:18:46Z</time>
      </trkpt>
      <trkpt lat="44.9766" lon="6.44786">
        <ele>1921.8</ele>
        <time>2024-08-11T07:18:47Z</time>
      </trkpt>
      <trkpt lat="44.9766" lon="6.44786">
        <ele>1921.8</ele>
        <time>2024-08-11T07:18:48Z</time>
      </trkpt>
      <trkpt lat="44.97659" lon="6.44788">
        <ele>1921.8</ele>
        <time>2024-08-11T07:18:49Z</time>
      </trkpt>
      <trkpt lat="44.97659" lon="6.44788">
        <ele>1921.8</ele>
        <time>2024-08-11T07:18:50Z</time>
      </trkpt>
      <trkpt lat="44.97657" lon="6.44791">
        <ele>1921.6</ele>
        <time>2024-08-11T07:18:51Z</time>
      </trkpt>
      <trkpt lat="44.97657" lon="6.44791">
        <ele>1921.4</ele>
        <time>2024-08-11T07:18:52Z</time>
      </trkpt>
      <trkpt lat="44.97657" lon="6.44791">
        <ele>1921.4</ele>
        <time>2024-08-11T07:18:53Z</time>
      </trkpt>
      <trkpt lat="44.97656" lon="6.44795">
        <ele>1920.8</ele>
        <time>2024-08-11T07:18:54Z</time>
      </trkpt>
      <trkpt lat="44.97655" lon="6.44797">
        <ele>1920.8</ele>
        <time>2024-08-11T07:18:55Z</time>
      </trkpt>
      <trkpt lat="44.97655" lon="6.44797">
        <ele>1920.4</ele>
        <time>2024-08-11T07:18:56Z</time>
      </trkpt>
      <trkpt lat="44.97654" lon="6.448">
        <ele>1920.4</ele>
        <time>2024-08-11T07:18:57Z</time>
      </trkpt>
      <trkpt lat="44.97654" lon="6.448">
        <ele>1920.4</ele>
        <time>2024-08-11T07:18:58Z</time>
      </trkpt>
      <trkpt lat="44.97654" lon="6.448">
        <ele>1920.4</ele>
        <time>2024-08-11T07:18:59Z</time>
      </trkpt>
      <trkpt lat="44.97653" lon="6.44802">
        <ele>1920.4</ele>
        <time>2024-08-11T07:19:00Z</time>
      </trkpt>
      <trkpt lat="44.97653" lon="6.44802">
        <ele>1920.6</ele>
        <time>2024-08-11T07:19:01Z</time>
      </trkpt>
      <trkpt lat="44.97651" lon="6.44804">
        <ele>1920.6</ele>
        <time>2024-08-11T07:19:02Z</time>
      </trkpt>
      <trkpt lat="44.97651" lon="6.44804">
        <ele>1920.6</ele>
        <time>2024-08-11T07:19:03Z</time>
      </trkpt>
      <trkpt lat="44.97651" lon="6.44804">
        <ele>1920.6</ele>
        <time>2024-08-11T07:19:04Z</time>
      </trkpt>
      <trkpt lat="44.97651" lon="6.44804">
        <ele>1920.6</ele>
        <time>2024-08-11T07:19:05Z</time>
      </trkpt>
      <trkpt lat="44.97651" lon="6.44804">
        <ele>1920.8</ele>
        <time>2024-08-11T07:19:06Z</time>
      </trkpt>
      <trkpt lat="44.9765" lon="6.44807">
        <ele>1920.8</ele>
        <time>2024-08-11T07:19:07Z</time>
      </trkpt>
      <trkpt lat="44.9765" lon="6.44807">
        <ele>1920.6</ele>
        <time>2024-08-11T07:19:08Z</time>
      </trkpt>
      <trkpt lat="44.9765" lon="6.44807">
        <ele>1920.6</ele>
        <time>2024-08-11T07:19:09Z</time>
      </trkpt>
      <trkpt lat="44.9765" lon="6.4481">
        <ele>1920.6</ele>
        <time>2024-08-11T07:19:10Z</time>
      </trkpt>
      <trkpt lat="44.9765" lon="6.4481">
        <ele>1920.6</ele>
        <time>2024-08-11T07:19:11Z</time>
      </trkpt>
      <trkpt lat="44.97649" lon="6.44813">
        <ele>1920.6</ele>
        <time>2024-08-11T07:19:12Z</time>
      </trkpt>
      <trkpt lat="44.97649" lon="6.44813">
        <ele>1920.6</ele>
        <time>2024-08-11T07:19:13Z</time>
      </trkpt>
      <trkpt lat="44.97649" lon="6.44813">
        <ele>1920.6</ele>
        <time>2024-08-11T07:19:14Z</time>
      </trkpt>
      <trkpt lat="44.97646" lon="6.44815">
        <ele>1920.6</ele>
        <time>2024-08-11T07:19:15Z</time>
      </trkpt>
      <trkpt lat="44.97646" lon="6.44815">
        <ele>1920.6</ele>
        <time>2024-08-11T07:19:16Z</time>
      </trkpt>
      <trkpt lat="44.97646" lon="6.44815">
        <ele>1920.6</ele>
        <time>2024-08-11T07:19:17Z</time>
      </trkpt>
      <trkpt lat="44.97646" lon="6.44815">
        <ele>1920.4</ele>
        <time>2024-08-11T07:19:18Z</time>
      </trkpt>
      <trkpt lat="44.97645" lon="6.44816">
        <ele>1920.4</ele>
        <time>2024-08-11T07:19:19Z</time>
      </trkpt>
      <trkpt lat="44.97645" lon="6.44816">
        <ele>1920.6</ele>
        <time>2024-08-11T07:19:20Z</time>
      </trkpt>
      <trkpt lat="44.97645" lon="6.44816">
        <ele>1920.6</ele>
        <time>2024-08-11T07:19:21Z</time>
      </trkpt>
      <trkpt lat="44.97645" lon="6.44816">
        <ele>1920.4</ele>
        <time>2024-08-11T07:19:22Z</time>
      </trkpt>
      <trkpt lat="44.97645" lon="6.44816">
        <ele>1920.2</ele>
        <time>2024-08-11T07:19:23Z</time>
      </trkpt>
      <trkpt lat="44.97645" lon="6.44816">
        <ele>1920.2</ele>
        <time>2024-08-11T07:19:24Z</time>
      </trkpt>
      <trkpt lat="44.97645" lon="6.44816">
        <ele>1920.2</ele>
        <time>2024-08-11T07:19:25Z</time>
      </trkpt>
      <trkpt lat="44.97645" lon="6.44816">
        <ele>1920.2</ele>
        <time>2024-08-11T07:19:26Z</time>
      </trkpt>
      <trkpt lat="44.97643" lon="6.44814">
        <ele>1920.2</ele>
        <time>2024-08-11T07:19:27Z</time>
      </trkpt>
      <trkpt lat="44.97643" lon="6.44814">
        <ele>1920.2</ele>
        <time>2024-08-11T07:19:28Z</time>
      </trkpt>
      <trkpt lat="44.97643" lon="6.44814">
        <ele>1920.2</ele>
        <time>2024-08-11T07:19:29Z</time>
      </trkpt>
      <trkpt lat="44.97643" lon="6.44814">
        <ele>1920.4</ele>
        <time>2024-08-11T07:19:30Z</time>
      </trkpt>
      <trkpt lat="44.97643" lon="6.44814">
        <ele>1920.4</ele>
        <time>2024-08-11T07:19:31Z</time>
      </trkpt>
      <trkpt lat="44.97643" lon="6.44814">
        <ele>1920.4</ele>
        <time>2024-08-11T07:19:32Z</time>
      </trkpt>
      <trkpt lat="44.97643" lon="6.44814">
        <ele>1920.2</ele>
        <time>2024-08-11T07:19:33Z</time>
      </trkpt>
      <trkpt lat="44.97643" lon="6.44814">
        <ele>1920.2</ele>
        <time>2024-08-11T07:19:34Z</time>
      </trkpt>
      <trkpt lat="44.97643" lon="6.44814">
        <ele>1920</ele>
        <time>2024-08-11T07:19:35Z</time>
      </trkpt>
      <trkpt lat="44.97643" lon="6.44814">
        <ele>1920</ele>
        <time>2024-08-11T07:19:36Z</time>
      </trkpt>
      <trkpt lat="44.97643" lon="6.44814">
        <ele>1920.2</ele>
        <time>2024-08-11T07:19:37Z</time>
      </trkpt>
      <trkpt lat="44.97643" lon="6.44814">
        <ele>1920.2</ele>
        <time>2024-08-11T07:19:38Z</time>
      </trkpt>
      <trkpt lat="44.97643" lon="6.44814">
        <ele>1920.2</ele>
        <time>2024-08-11T07:19:39Z</time>
      </trkpt>
      <trkpt lat="44.97643" lon="6.44814">
        <ele>1919.8</ele>
        <time>2024-08-11T07:19:40Z</time>
      </trkpt>
      <trkpt lat="44.97643" lon="6.44814">
        <ele>1919.8</ele>
        <time>2024-08-11T07:19:41Z</time>
      </trkpt>
      <trkpt lat="44.97643" lon="6.44814">
        <ele>1919.8</ele>
        <time>2024-08-11T07:19:42Z</time>
      </trkpt>
      <trkpt lat="44.97643" lon="6.44814">
        <ele>1919.8</ele>
        <time>2024-08-11T07:19:43Z</time>
      </trkpt>
      <trkpt lat="44.97643" lon="6.44814">
        <ele>1919.8</ele>
        <time>2024-08-11T07:19:44Z</time>
      </trkpt>
      <trkpt lat="44.97643" lon="6.44814">
        <ele>1920</ele>
        <time>2024-08-11T07:19:45Z</time>
      </trkpt>
      <trkpt lat="44.97643" lon="6.44814">
        <ele>1920</ele>
        <time>2024-08-11T07:19:46Z</time>
      </trkpt>
      <trkpt lat="44.97643" lon="6.44814">
        <ele>1920</ele>
        <time>2024-08-11T07:19:47Z</time>
      </trkpt>
      <trkpt lat="44.97643" lon="6.44814">
        <ele>1920</ele>
        <time>2024-08-11T07:19:48Z</time>
      </trkpt>
      <trkpt lat="44.97643" lon="6.44814">
        <ele>1920</ele>
        <time>2024-08-11T07:19:49Z</time>
      </trkpt>
      <trkpt lat="44.97643" lon="6.44814">
        <ele>1920</ele>
        <time>2024-08-11T07:19:50Z</time>
      </trkpt>
      <trkpt lat="44.97643" lon="6.44814">
        <ele>1919.8</ele>
        <time>2024-08-11T07:19:51Z</time>
      </trkpt>
      <trkpt lat="44.97643" lon="6.44814">
        <ele>1919.8</ele>
        <time>2024-08-11T07:19:52Z</time>
      </trkpt>
      <trkpt lat="44.97643" lon="6.44814">
        <ele>1919.8</ele>
        <time>2024-08-11T07:19:53Z</time>
      </trkpt>
      <trkpt lat="44.97643" lon="6.44814">
        <ele>1919.6</ele>
        <time>2024-08-11T07:19:54Z</time>
      </trkpt>
      <trkpt lat="44.97643" lon="6.44814">
        <ele>1919.6</ele>
        <time>2024-08-11T07:19:55Z</time>
      </trkpt>
      <trkpt lat="44.97643" lon="6.44814">
        <ele>1919.8</ele>
        <time>2024-08-11T07:19:56Z</time>
      </trkpt>
      <trkpt lat="44.97643" lon="6.44814">
        <ele>1919.8</ele>
        <time>2024-08-11T07:19:57Z</time>
      </trkpt>
      <trkpt lat="44.97643" lon="6.44814">
        <ele>1919.6</ele>
        <time>2024-08-11T07:19:58Z</time>
      </trkpt>
      <trkpt lat="44.97643" lon="6.44814">
        <ele>1919.4</ele>
        <time>2024-08-11T07:19:59Z</time>
      </trkpt>
      <trkpt lat="44.97643" lon="6.44814">
        <ele>1919.4</ele>
        <time>2024-08-11T07:20:00Z</time>
      </trkpt>
      <trkpt lat="44.97643" lon="6.44814">
        <ele>1919.2</ele>
        <time>2024-08-11T07:20:01Z</time>
      </trkpt>
      <trkpt lat="44.97643" lon="6.44814">
        <ele>1919.4</ele>
        <time>2024-08-11T07:20:02Z</time>
      </trkpt>
      <trkpt lat="44.97643" lon="6.44814">
        <ele>1919.4</ele>
        <time>2024-08-11T07:20:03Z</time>
      </trkpt>
      <trkpt lat="44.97643" lon="6.44814">
        <ele>1919.4</ele>
        <time>2024-08-11T07:20:04Z</time>
      </trkpt>
      <trkpt lat="44.97643" lon="6.44814">
        <ele>1919.4</ele>
        <time>2024-08-11T07:20:05Z</time>
      </trkpt>
      <trkpt lat="44.97643" lon="6.44814">
        <ele>1919.2</ele>
        <time>2024-08-11T07:20:06Z</time>
      </trkpt>
      <trkpt lat="44.97643" lon="6.44814">
        <ele>1919.2</ele>
        <time>2024-08-11T07:20:07Z</time>
      </trkpt>
      <trkpt lat="44.97643" lon="6.44814">
        <ele>1919.2</ele>
        <time>2024-08-11T07:20:08Z</time>
      </trkpt>
      <trkpt lat="44.97643" lon="6.44814">
        <ele>1919.2</ele>
        <time>2024-08-11T07:20:09Z</time>
      </trkpt>
      <trkpt lat="44.97643" lon="6.44814">
        <ele>1919.2</ele>
        <time>2024-08-11T07:20:10Z</time>
      </trkpt>
      <trkpt lat="44.97643" lon="6.44814">
        <ele>1919.2</ele>
        <time>2024-08-11T07:20:11Z</time>
      </trkpt>
      <trkpt lat="44.97643" lon="6.44814">
        <ele>1919.2</ele>
        <time>2024-08-11T07:20:12Z</time>
      </trkpt>
      <trkpt lat="44.97643" lon="6.44814">
        <ele>1919.2</ele>
        <time>2024-08-11T07:20:13Z</time>
      </trkpt>
      <trkpt lat="44.97643" lon="6.44814">
        <ele>1919.4</ele>
        <time>2024-08-11T07:20:14Z</time>
      </trkpt>
      <trkpt lat="44.97643" lon="6.44814">
        <ele>1919.4</ele>
        <time>2024-08-11T07:20:15Z</time>
      </trkpt>
      <trkpt lat="44.97643" lon="6.44814">
        <ele>1919.4</ele>
        <time>2024-08-11T07:20:16Z</time>
      </trkpt>
      <trkpt lat="44.97643" lon="6.44814">
        <ele>1919.4</ele>
        <time>2024-08-11T07:20:17Z</time>
      </trkpt>
      <trkpt lat="44.97643" lon="6.44814">
        <ele>1919.2</ele>
        <time>2024-08-11T07:20:18Z</time>
      </trkpt>
      <trkpt lat="44.97643" lon="6.44814">
        <ele>1919.2</ele>
        <time>2024-08-11T07:20:19Z</time>
      </trkpt>
      <trkpt lat="44.97643" lon="6.44814">
        <ele>1919.4</ele>
        <time>2024-08-11T07:20:20Z</time>
      </trkpt>
      <trkpt lat="44.97643" lon="6.44814">
        <ele>1919.4</ele>
        <time>2024-08-11T07:20:21Z</time>
      </trkpt>
      <trkpt lat="44.97643" lon="6.44814">
        <ele>1919.6</ele>
        <time>2024-08-11T07:20:22Z</time>
      </trkpt>
      <trkpt lat="44.97643" lon="6.44814">
        <ele>1919.6</ele>
        <time>2024-08-11T07:20:23Z</time>
      </trkpt>
      <trkpt lat="44.97643" lon="6.44814">
        <ele>1919.4</ele>
        <time>2024-08-11T07:20:24Z</time>
      </trkpt>
      <trkpt lat="44.97643" lon="6.44814">
        <ele>1919.4</ele>
        <time>2024-08-11T07:20:25Z</time>
      </trkpt>
      <trkpt lat="44.97643" lon="6.44814">
        <ele>1919.4</ele>
        <time>2024-08-11T07:20:26Z</time>
      </trkpt>
      <trkpt lat="44.97643" lon="6.44814">
        <ele>1919.4</ele>
        <time>2024-08-11T07:20:27Z</time>
      </trkpt>
      <trkpt lat="44.97641" lon="6.44815">
        <ele>1919.4</ele>
        <time>2024-08-11T07:20:28Z</time>
      </trkpt>
      <trkpt lat="44.97641" lon="6.44815">
        <ele>1919.4</ele>
        <time>2024-08-11T07:20:29Z</time>
      </trkpt>
      <trkpt lat="44.97638" lon="6.44814">
        <ele>1919.4</ele>
        <time>2024-08-11T07:20:30Z</time>
      </trkpt>
      <trkpt lat="44.97638" lon="6.44814">
        <ele>1919.4</ele>
        <time>2024-08-11T07:20:31Z</time>
      </trkpt>
      <trkpt lat="44.97638" lon="6.44814">
        <ele>1919.4</ele>
        <time>2024-08-11T07:20:32Z</time>
      </trkpt>
      <trkpt lat="44.97635" lon="6.44813">
        <ele>1919.2</ele>
        <time>2024-08-11T07:20:33Z</time>
      </trkpt>
      <trkpt lat="44.97635" lon="6.44812">
        <ele>1919</ele>
        <time>2024-08-11T07:20:34Z</time>
      </trkpt>
      <trkpt lat="44.97633" lon="6.44812">
        <ele>1919</ele>
        <time>2024-08-11T07:20:35Z</time>
      </trkpt>
      <trkpt lat="44.97633" lon="6.44812">
        <ele>1919.2</ele>
        <time>2024-08-11T07:20:36Z</time>
      </trkpt>
      <trkpt lat="44.97629" lon="6.44811">
        <ele>1919.2</ele>
        <time>2024-08-11T07:20:37Z</time>
      </trkpt>
      <trkpt lat="44.97629" lon="6.44811">
        <ele>1919.2</ele>
        <time>2024-08-11T07:20:38Z</time>
      </trkpt>
      <trkpt lat="44.97627" lon="6.44811">
        <ele>1919.2</ele>
        <time>2024-08-11T07:20:39Z</time>
      </trkpt>
      <trkpt lat="44.97627" lon="6.44811">
        <ele>1919.2</ele>
        <time>2024-08-11T07:20:40Z</time>
      </trkpt>
      <trkpt lat="44.97625" lon="6.44811">
        <ele>1919.2</ele>
        <time>2024-08-11T07:20:41Z</time>
      </trkpt>
      <trkpt lat="44.97625" lon="6.44811">
        <ele>1919.2</ele>
        <time>2024-08-11T07:20:42Z</time>
      </trkpt>
      <trkpt lat="44.97623" lon="6.44811">
        <ele>1919.4</ele>
        <time>2024-08-11T07:20:43Z</time>
      </trkpt>
      <trkpt lat="44.97623" lon="6.44811">
        <ele>1919.2</ele>
        <time>2024-08-11T07:20:44Z</time>
      </trkpt>
      <trkpt lat="44.97623" lon="6.44811">
        <ele>1919.2</ele>
        <time>2024-08-11T07:20:45Z</time>
      </trkpt>
      <trkpt lat="44.97623" lon="6.44811">
        <ele>1919.2</ele>
        <time>2024-08-11T07:20:46Z</time>
      </trkpt>
      <trkpt lat="44.97623" lon="6.44811">
        <ele>1919.4</ele>
        <time>2024-08-11T07:20:47Z</time>
      </trkpt>
      <trkpt lat="44.97623" lon="6.44811">
        <ele>1919.4</ele>
        <time>2024-08-11T07:20:48Z</time>
      </trkpt>
      <trkpt lat="44.97623" lon="6.44811">
        <ele>1919.2</ele>
        <time>2024-08-11T07:20:49Z</time>
      </trkpt>
      <trkpt lat="44.97621" lon="6.4481">
        <ele>1919.2</ele>
        <time>2024-08-11T07:20:50Z</time>
      </trkpt>
      <trkpt lat="44.97621" lon="6.4481">
        <ele>1919</ele>
        <time>2024-08-11T07:20:51Z</time>
      </trkpt>
      <trkpt lat="44.97621" lon="6.4481">
        <ele>1919</ele>
        <time>2024-08-11T07:20:52Z</time>
      </trkpt>
      <trkpt lat="44.97621" lon="6.4481">
        <ele>1919</ele>
        <time>2024-08-11T07:20:53Z</time>
      </trkpt>
      <trkpt lat="44.97621" lon="6.4481">
        <ele>1918.8</ele>
        <time>2024-08-11T07:20:54Z</time>
      </trkpt>
      <trkpt lat="44.97621" lon="6.4481">
        <ele>1918.8</ele>
        <time>2024-08-11T07:20:55Z</time>
      </trkpt>
      <trkpt lat="44.97621" lon="6.4481">
        <ele>1919</ele>
        <time>2024-08-11T07:20:56Z</time>
      </trkpt>
      <trkpt lat="44.97621" lon="6.4481">
        <ele>1919</ele>
        <time>2024-08-11T07:20:57Z</time>
      </trkpt>
      <trkpt lat="44.97621" lon="6.4481">
        <ele>1919</ele>
        <time>2024-08-11T07:20:58Z</time>
      </trkpt>
      <trkpt lat="44.97621" lon="6.4481">
        <ele>1919</ele>
        <time>2024-08-11T07:20:59Z</time>
      </trkpt>
      <trkpt lat="44.97621" lon="6.4481">
        <ele>1919</ele>
        <time>2024-08-11T07:21:00Z</time>
      </trkpt>
      <trkpt lat="44.97621" lon="6.4481">
        <ele>1919</ele>
        <time>2024-08-11T07:21:01Z</time>
      </trkpt>
      <trkpt lat="44.97621" lon="6.4481">
        <ele>1919.2</ele>
        <time>2024-08-11T07:21:02Z</time>
      </trkpt>
      <trkpt lat="44.97619" lon="6.44811">
        <ele>1919</ele>
        <time>2024-08-11T07:21:03Z</time>
      </trkpt>
      <trkpt lat="44.97619" lon="6.44811">
        <ele>1919</ele>
        <time>2024-08-11T07:21:04Z</time>
      </trkpt>
      <trkpt lat="44.97616" lon="6.44811">
        <ele>1919</ele>
        <time>2024-08-11T07:21:05Z</time>
      </trkpt>
      <trkpt lat="44.97616" lon="6.44811">
        <ele>1919.2</ele>
        <time>2024-08-11T07:21:06Z</time>
      </trkpt>
      <trkpt lat="44.97613" lon="6.44811">
        <ele>1919.2</ele>
        <time>2024-08-11T07:21:07Z</time>
      </trkpt>
      <trkpt lat="44.97613" lon="6.44811">
        <ele>1919.4</ele>
        <time>2024-08-11T07:21:08Z</time>
      </trkpt>
      <trkpt lat="44.97613" lon="6.44811">
        <ele>1919.8</ele>
        <time>2024-08-11T07:21:09Z</time>
      </trkpt>
      <trkpt lat="44.97613" lon="6.44811">
        <ele>1919.8</ele>
        <time>2024-08-11T07:21:10Z</time>
      </trkpt>
      <trkpt lat="44.97613" lon="6.44811">
        <ele>1919.8</ele>
        <time>2024-08-11T07:21:11Z</time>
      </trkpt>
      <trkpt lat="44.97613" lon="6.44811">
        <ele>1919.8</ele>
        <time>2024-08-11T07:21:12Z</time>
      </trkpt>
      <trkpt lat="44.97613" lon="6.44811">
        <ele>1919.8</ele>
        <time>2024-08-11T07:21:13Z</time>
      </trkpt>
      <trkpt lat="44.97613" lon="6.44811">
        <ele>1920</ele>
        <time>2024-08-11T07:21:14Z</time>
      </trkpt>
      <trkpt lat="44.97613" lon="6.44811">
        <ele>1920</ele>
        <time>2024-08-11T07:21:15Z</time>
      </trkpt>
      <trkpt lat="44.97613" lon="6.44811">
        <ele>1920</ele>
        <time>2024-08-11T07:21:16Z</time>
      </trkpt>
      <trkpt lat="44.97613" lon="6.44811">
        <ele>1920.2</ele>
        <time>2024-08-11T07:21:17Z</time>
      </trkpt>
      <trkpt lat="44.97613" lon="6.44811">
        <ele>1920.2</ele>
        <time>2024-08-11T07:21:18Z</time>
      </trkpt>
      <trkpt lat="44.97613" lon="6.44811">
        <ele>1920.2</ele>
        <time>2024-08-11T07:21:19Z</time>
      </trkpt>
      <trkpt lat="44.97613" lon="6.44811">
        <ele>1920.2</ele>
        <time>2024-08-11T07:21:20Z</time>
      </trkpt>
      <trkpt lat="44.97613" lon="6.44811">
        <ele>1920</ele>
        <time>2024-08-11T07:21:21Z</time>
      </trkpt>
      <trkpt lat="44.97613" lon="6.44811">
        <ele>1920</ele>
        <time>2024-08-11T07:21:22Z</time>
      </trkpt>
      <trkpt lat="44.97612" lon="6.44809">
        <ele>1920.2</ele>
        <time>2024-08-11T07:21:23Z</time>
      </trkpt>
      <trkpt lat="44.97612" lon="6.44809">
        <ele>1920.2</ele>
        <time>2024-08-11T07:21:24Z</time>
      </trkpt>
      <trkpt lat="44.97612" lon="6.44809">
        <ele>1920.4</ele>
        <time>2024-08-11T07:21:25Z</time>
      </trkpt>
      <trkpt lat="44.97612" lon="6.44809">
        <ele>1920.6</ele>
        <time>2024-08-11T07:21:26Z</time>
      </trkpt>
      <trkpt lat="44.97612" lon="6.44809">
        <ele>1920.6</ele>
        <time>2024-08-11T07:21:27Z</time>
      </trkpt>
      <trkpt lat="44.97612" lon="6.44809">
        <ele>1920.6</ele>
        <time>2024-08-11T07:21:28Z</time>
      </trkpt>
      <trkpt lat="44.97612" lon="6.44809">
        <ele>1920</ele>
        <time>2024-08-11T07:21:29Z</time>
      </trkpt>
      <trkpt lat="44.97612" lon="6.44809">
        <ele>1919.8</ele>
        <time>2024-08-11T07:21:30Z</time>
      </trkpt>
      <trkpt lat="44.97612" lon="6.44809">
        <ele>1919.8</ele>
        <time>2024-08-11T07:21:31Z</time>
      </trkpt>
      <trkpt lat="44.97612" lon="6.44809">
        <ele>1919.8</ele>
        <time>2024-08-11T07:21:32Z</time>
      </trkpt>
      <trkpt lat="44.97612" lon="6.44809">
        <ele>1919.6</ele>
        <time>2024-08-11T07:21:33Z</time>
      </trkpt>
      <trkpt lat="44.97612" lon="6.44809">
        <ele>1919.6</ele>
        <time>2024-08-11T07:21:34Z</time>
      </trkpt>
      <trkpt lat="44.97612" lon="6.44809">
        <ele>1919.6</ele>
        <time>2024-08-11T07:21:35Z</time>
      </trkpt>
      <trkpt lat="44.97613" lon="6.44812">
        <ele>1919.6</ele>
        <time>2024-08-11T07:21:36Z</time>
      </trkpt>
      <trkpt lat="44.97613" lon="6.44812">
        <ele>1919.4</ele>
        <time>2024-08-11T07:21:37Z</time>
      </trkpt>
      <trkpt lat="44.97613" lon="6.44812">
        <ele>1919.4</ele>
        <time>2024-08-11T07:21:38Z</time>
      </trkpt>
      <trkpt lat="44.97613" lon="6.44812">
        <ele>1919.4</ele>
        <time>2024-08-11T07:21:39Z</time>
      </trkpt>
      <trkpt lat="44.97613" lon="6.44812">
        <ele>1919.4</ele>
        <time>2024-08-11T07:21:40Z</time>
      </trkpt>
      <trkpt lat="44.97613" lon="6.44812">
        <ele>1919.4</ele>
        <time>2024-08-11T07:21:41Z</time>
      </trkpt>
      <trkpt lat="44.97613" lon="6.44814">
        <ele>1919.4</ele>
        <time>2024-08-11T07:21:42Z</time>
      </trkpt>
      <trkpt lat="44.97613" lon="6.44814">
        <ele>1919.6</ele>
        <time>2024-08-11T07:21:43Z</time>
      </trkpt>
      <trkpt lat="44.97614" lon="6.44817">
        <ele>1919.6</ele>
        <time>2024-08-11T07:21:44Z</time>
      </trkpt>
      <trkpt lat="44.97615" lon="6.44819">
        <ele>1919.4</ele>
        <time>2024-08-11T07:21:45Z</time>
      </trkpt>
      <trkpt lat="44.97615" lon="6.44819">
        <ele>1919.2</ele>
        <time>2024-08-11T07:21:46Z</time>
      </trkpt>
      <trkpt lat="44.97615" lon="6.44824">
        <ele>1919.2</ele>
        <time>2024-08-11T07:21:47Z</time>
      </trkpt>
      <trkpt lat="44.97614" lon="6.44826">
        <ele>1919.2</ele>
        <time>2024-08-11T07:21:48Z</time>
      </trkpt>
      <trkpt lat="44.97613" lon="6.44828">
        <ele>1919.2</ele>
        <time>2024-08-11T07:21:49Z</time>
      </trkpt>
      <trkpt lat="44.97613" lon="6.44828">
        <ele>1919.4</ele>
        <time>2024-08-11T07:21:50Z</time>
      </trkpt>
      <trkpt lat="44.97611" lon="6.44831">
        <ele>1919.6</ele>
        <time>2024-08-11T07:21:51Z</time>
      </trkpt>
      <trkpt lat="44.97611" lon="6.44831">
        <ele>1919.6</ele>
        <time>2024-08-11T07:21:52Z</time>
      </trkpt>
      <trkpt lat="44.97611" lon="6.44831">
        <ele>1919.8</ele>
        <time>2024-08-11T07:21:53Z</time>
      </trkpt>
      <trkpt lat="44.97609" lon="6.44835">
        <ele>1919.8</ele>
        <time>2024-08-11T07:21:54Z</time>
      </trkpt>
      <trkpt lat="44.97609" lon="6.44836">
        <ele>1919.8</ele>
        <time>2024-08-11T07:21:55Z</time>
      </trkpt>
      <trkpt lat="44.97609" lon="6.44836">
        <ele>1919.8</ele>
        <time>2024-08-11T07:21:56Z</time>
      </trkpt>
      <trkpt lat="44.97609" lon="6.44836">
        <ele>1919.8</ele>
        <time>2024-08-11T07:21:57Z</time>
      </trkpt>
      <trkpt lat="44.9761" lon="6.4484">
        <ele>1919.8</ele>
        <time>2024-08-11T07:21:58Z</time>
      </trkpt>
      <trkpt lat="44.9761" lon="6.4484">
        <ele>1919.6</ele>
        <time>2024-08-11T07:21:59Z</time>
      </trkpt>
      <trkpt lat="44.97609" lon="6.44844">
        <ele>1919.6</ele>
        <time>2024-08-11T07:22:00Z</time>
      </trkpt>
      <trkpt lat="44.97608" lon="6.44845">
        <ele>1919.4</ele>
        <time>2024-08-11T07:22:01Z</time>
      </trkpt>
      <trkpt lat="44.97608" lon="6.44845">
        <ele>1919.4</ele>
        <time>2024-08-11T07:22:02Z</time>
      </trkpt>
      <trkpt lat="44.97605" lon="6.44847">
        <ele>1919.4</ele>
        <time>2024-08-11T07:22:03Z</time>
      </trkpt>
      <trkpt lat="44.97605" lon="6.44847">
        <ele>1919.4</ele>
        <time>2024-08-11T07:22:04Z</time>
      </trkpt>
      <trkpt lat="44.97604" lon="6.4485">
        <ele>1919.6</ele>
        <time>2024-08-11T07:22:05Z</time>
      </trkpt>
      <trkpt lat="44.97604" lon="6.4485">
        <ele>1919.6</ele>
        <time>2024-08-11T07:22:06Z</time>
      </trkpt>
      <trkpt lat="44.97602" lon="6.44852">
        <ele>1919.6</ele>
        <time>2024-08-11T07:22:07Z</time>
      </trkpt>
      <trkpt lat="44.97602" lon="6.44852">
        <ele>1919.6</ele>
        <time>2024-08-11T07:22:08Z</time>
      </trkpt>
      <trkpt lat="44.976" lon="6.44855">
        <ele>1919.8</ele>
        <time>2024-08-11T07:22:09Z</time>
      </trkpt>
      <trkpt lat="44.976" lon="6.44855">
        <ele>1919.8</ele>
        <time>2024-08-11T07:22:10Z</time>
      </trkpt>
      <trkpt lat="44.97598" lon="6.44856">
        <ele>1919.8</ele>
        <time>2024-08-11T07:22:11Z</time>
      </trkpt>
      <trkpt lat="44.97598" lon="6.44856">
        <ele>1919.8</ele>
        <time>2024-08-11T07:22:12Z</time>
      </trkpt>
      <trkpt lat="44.97597" lon="6.44858">
        <ele>1919.8</ele>
        <time>2024-08-11T07:22:13Z</time>
      </trkpt>
      <trkpt lat="44.97597" lon="6.44858">
        <ele>1920.2</ele>
        <time>2024-08-11T07:22:14Z</time>
      </trkpt>
      <trkpt lat="44.97597" lon="6.44858">
        <ele>1920.2</ele>
        <time>2024-08-11T07:22:15Z</time>
      </trkpt>
      <trkpt lat="44.97597" lon="6.44858">
        <ele>1920.2</ele>
        <time>2024-08-11T07:22:16Z</time>
      </trkpt>
      <trkpt lat="44.97597" lon="6.44862">
        <ele>1920.4</ele>
        <time>2024-08-11T07:22:17Z</time>
      </trkpt>
      <trkpt lat="44.97597" lon="6.44862">
        <ele>1920.4</ele>
        <time>2024-08-11T07:22:18Z</time>
      </trkpt>
      <trkpt lat="44.97597" lon="6.44862">
        <ele>1920.2</ele>
        <time>2024-08-11T07:22:19Z</time>
      </trkpt>
      <trkpt lat="44.97598" lon="6.44865">
        <ele>1920.2</ele>
        <time>2024-08-11T07:22:20Z</time>
      </trkpt>
      <trkpt lat="44.97598" lon="6.44867">
        <ele>1920.2</ele>
        <time>2024-08-11T07:22:21Z</time>
      </trkpt>
      <trkpt lat="44.97598" lon="6.44867">
        <ele>1920</ele>
        <time>2024-08-11T07:22:22Z</time>
      </trkpt>
      <trkpt lat="44.97598" lon="6.4487">
        <ele>1919.8</ele>
        <time>2024-08-11T07:22:23Z</time>
      </trkpt>
      <trkpt lat="44.97598" lon="6.4487">
        <ele>1919.8</ele>
        <time>2024-08-11T07:22:24Z</time>
      </trkpt>
      <trkpt lat="44.97599" lon="6.44873">
        <ele>1919.8</ele>
        <time>2024-08-11T07:22:25Z</time>
      </trkpt>
      <trkpt lat="44.97599" lon="6.44873">
        <ele>1919.8</ele>
        <time>2024-08-11T07:22:26Z</time>
      </trkpt>
      <trkpt lat="44.97599" lon="6.44873">
        <ele>1919.8</ele>
        <time>2024-08-11T07:22:27Z</time>
      </trkpt>
      <trkpt lat="44.97599" lon="6.44877">
        <ele>1919.8</ele>
        <time>2024-08-11T07:22:28Z</time>
      </trkpt>
      <trkpt lat="44.97599" lon="6.44879">
        <ele>1919.8</ele>
        <time>2024-08-11T07:22:29Z</time>
      </trkpt>
      <trkpt lat="44.97599" lon="6.44879">
        <ele>1919.6</ele>
        <time>2024-08-11T07:22:30Z</time>
      </trkpt>
      <trkpt lat="44.97599" lon="6.44882">
        <ele>1919.6</ele>
        <time>2024-08-11T07:22:31Z</time>
      </trkpt>
      <trkpt lat="44.97599" lon="6.44882">
        <ele>1919.4</ele>
        <time>2024-08-11T07:22:32Z</time>
      </trkpt>
      <trkpt lat="44.97598" lon="6.44885">
        <ele>1919.4</ele>
        <time>2024-08-11T07:22:33Z</time>
      </trkpt>
      <trkpt lat="44.97598" lon="6.44885">
        <ele>1919.4</ele>
        <time>2024-08-11T07:22:34Z</time>
      </trkpt>
      <trkpt lat="44.97598" lon="6.44888">
        <ele>1919.4</ele>
        <time>2024-08-11T07:22:35Z</time>
      </trkpt>
      <trkpt lat="44.97598" lon="6.44888">
        <ele>1919.4</ele>
        <time>2024-08-11T07:22:36Z</time>
      </trkpt>
      <trkpt lat="44.97598" lon="6.44891">
        <ele>1919.2</ele>
        <time>2024-08-11T07:22:37Z</time>
      </trkpt>
      <trkpt lat="44.97598" lon="6.44891">
        <ele>1919</ele>
        <time>2024-08-11T07:22:38Z</time>
      </trkpt>
      <trkpt lat="44.97599" lon="6.44893">
        <ele>1919</ele>
        <time>2024-08-11T07:22:39Z</time>
      </trkpt>
      <trkpt lat="44.97599" lon="6.44893">
        <ele>1918.8</ele>
        <time>2024-08-11T07:22:40Z</time>
      </trkpt>
      <trkpt lat="44.97599" lon="6.44893">
        <ele>1918.4</ele>
        <time>2024-08-11T07:22:41Z</time>
      </trkpt>
      <trkpt lat="44.976" lon="6.44897">
        <ele>1918.4</ele>
        <time>2024-08-11T07:22:42Z</time>
      </trkpt>
      <trkpt lat="44.97601" lon="6.44898">
        <ele>1918.4</ele>
        <time>2024-08-11T07:22:43Z</time>
      </trkpt>
      <trkpt lat="44.97601" lon="6.44898">
        <ele>1918.2</ele>
        <time>2024-08-11T07:22:44Z</time>
      </trkpt>
      <trkpt lat="44.97601" lon="6.44902">
        <ele>1918.2</ele>
        <time>2024-08-11T07:22:45Z</time>
      </trkpt>
      <trkpt lat="44.97601" lon="6.44902">
        <ele>1918</ele>
        <time>2024-08-11T07:22:46Z</time>
      </trkpt>
      <trkpt lat="44.97601" lon="6.44902">
        <ele>1918</ele>
        <time>2024-08-11T07:22:47Z</time>
      </trkpt>
      <trkpt lat="44.97598" lon="6.44907">
        <ele>1917.6</ele>
        <time>2024-08-11T07:22:48Z</time>
      </trkpt>
      <trkpt lat="44.97597" lon="6.44908">
        <ele>1917.6</ele>
        <time>2024-08-11T07:22:49Z</time>
      </trkpt>
      <trkpt lat="44.97596" lon="6.4491">
        <ele>1917.6</ele>
        <time>2024-08-11T07:22:50Z</time>
      </trkpt>
      <trkpt lat="44.97596" lon="6.4491">
        <ele>1917.4</ele>
        <time>2024-08-11T07:22:51Z</time>
      </trkpt>
      <trkpt lat="44.97594" lon="6.44913">
        <ele>1917.2</ele>
        <time>2024-08-11T07:22:52Z</time>
      </trkpt>
      <trkpt lat="44.97594" lon="6.44913">
        <ele>1917.2</ele>
        <time>2024-08-11T07:22:53Z</time>
      </trkpt>
      <trkpt lat="44.97594" lon="6.44913">
        <ele>1917.2</ele>
        <time>2024-08-11T07:22:54Z</time>
      </trkpt>
      <trkpt lat="44.97592" lon="6.44917">
        <ele>1917.4</ele>
        <time>2024-08-11T07:22:55Z</time>
      </trkpt>
      <trkpt lat="44.97592" lon="6.44919">
        <ele>1917.4</ele>
        <time>2024-08-11T07:22:56Z</time>
      </trkpt>
      <trkpt lat="44.97592" lon="6.44919">
        <ele>1917.4</ele>
        <time>2024-08-11T07:22:57Z</time>
      </trkpt>
      <trkpt lat="44.97591" lon="6.44923">
        <ele>1917.4</ele>
        <time>2024-08-11T07:22:58Z</time>
      </trkpt>
      <trkpt lat="44.97591" lon="6.44923">
        <ele>1917.4</ele>
        <time>2024-08-11T07:22:59Z</time>
      </trkpt>
      <trkpt lat="44.97595" lon="6.44926">
        <ele>1917.4</ele>
        <time>2024-08-11T07:23:00Z</time>
      </trkpt>
      <trkpt lat="44.97595" lon="6.44926">
        <ele>1917.4</ele>
        <time>2024-08-11T07:23:01Z</time>
      </trkpt>
      <trkpt lat="44.97595" lon="6.44929">
        <ele>1917</ele>
        <time>2024-08-11T07:23:02Z</time>
      </trkpt>
      <trkpt lat="44.97595" lon="6.44929">
        <ele>1917</ele>
        <time>2024-08-11T07:23:03Z</time>
      </trkpt>
      <trkpt lat="44.97595" lon="6.44932">
        <ele>1917</ele>
        <time>2024-08-11T07:23:04Z</time>
      </trkpt>
      <trkpt lat="44.97595" lon="6.44932">
        <ele>1917</ele>
        <time>2024-08-11T07:23:05Z</time>
      </trkpt>
      <trkpt lat="44.97596" lon="6.44935">
        <ele>1917</ele>
        <time>2024-08-11T07:23:06Z</time>
      </trkpt>
      <trkpt lat="44.97596" lon="6.44935">
        <ele>1917</ele>
        <time>2024-08-11T07:23:07Z</time>
      </trkpt>
      <trkpt lat="44.97596" lon="6.44935">
        <ele>1917</ele>
        <time>2024-08-11T07:23:08Z</time>
      </trkpt>
      <trkpt lat="44.97597" lon="6.44939">
        <ele>1916.8</ele>
        <time>2024-08-11T07:23:09Z</time>
      </trkpt>
      <trkpt lat="44.97596" lon="6.44941">
        <ele>1916.4</ele>
        <time>2024-08-11T07:23:10Z</time>
      </trkpt>
      <trkpt lat="44.97596" lon="6.44941">
        <ele>1916.4</ele>
        <time>2024-08-11T07:23:11Z</time>
      </trkpt>
      <trkpt lat="44.97596" lon="6.44941">
        <ele>1916.4</ele>
        <time>2024-08-11T07:23:12Z</time>
      </trkpt>
      <trkpt lat="44.97597" lon="6.44943">
        <ele>1916.4</ele>
        <time>2024-08-11T07:23:13Z</time>
      </trkpt>
      <trkpt lat="44.97597" lon="6.44943">
        <ele>1916.4</ele>
        <time>2024-08-11T07:23:14Z</time>
      </trkpt>
      <trkpt lat="44.97598" lon="6.44946">
        <ele>1916.4</ele>
        <time>2024-08-11T07:23:15Z</time>
      </trkpt>
      <trkpt lat="44.97598" lon="6.44946">
        <ele>1916.4</ele>
        <time>2024-08-11T07:23:16Z</time>
      </trkpt>
      <trkpt lat="44.97598" lon="6.44949">
        <ele>1916</ele>
        <time>2024-08-11T07:23:17Z</time>
      </trkpt>
      <trkpt lat="44.97598" lon="6.44949">
        <ele>1915.8</ele>
        <time>2024-08-11T07:23:18Z</time>
      </trkpt>
      <trkpt lat="44.97599" lon="6.44953">
        <ele>1915.6</ele>
        <time>2024-08-11T07:23:19Z</time>
      </trkpt>
      <trkpt lat="44.97599" lon="6.44953">
        <ele>1915.2</ele>
        <time>2024-08-11T07:23:20Z</time>
      </trkpt>
      <trkpt lat="44.97599" lon="6.44956">
        <ele>1915.2</ele>
        <time>2024-08-11T07:23:21Z</time>
      </trkpt>
      <trkpt lat="44.97597" lon="6.44958">
        <ele>1915.2</ele>
        <time>2024-08-11T07:23:22Z</time>
      </trkpt>
      <trkpt lat="44.97597" lon="6.44958">
        <ele>1915.2</ele>
        <time>2024-08-11T07:23:23Z</time>
      </trkpt>
      <trkpt lat="44.97596" lon="6.44961">
        <ele>1915.2</ele>
        <time>2024-08-11T07:23:24Z</time>
      </trkpt>
      <trkpt lat="44.97596" lon="6.44961">
        <ele>1915</ele>
        <time>2024-08-11T07:23:25Z</time>
      </trkpt>
      <trkpt lat="44.97597" lon="6.44963">
        <ele>1914.6</ele>
        <time>2024-08-11T07:23:26Z</time>
      </trkpt>
      <trkpt lat="44.97597" lon="6.44963">
        <ele>1914.4</ele>
        <time>2024-08-11T07:23:27Z</time>
      </trkpt>
      <trkpt lat="44.97597" lon="6.44963">
        <ele>1914.4</ele>
        <time>2024-08-11T07:23:28Z</time>
      </trkpt>
      <trkpt lat="44.97597" lon="6.44966">
        <ele>1914.4</ele>
        <time>2024-08-11T07:23:29Z</time>
      </trkpt>
      <trkpt lat="44.97597" lon="6.44966">
        <ele>1914.2</ele>
        <time>2024-08-11T07:23:30Z</time>
      </trkpt>
      <trkpt lat="44.97598" lon="6.44969">
        <ele>1914.2</ele>
        <time>2024-08-11T07:23:31Z</time>
      </trkpt>
      <trkpt lat="44.97598" lon="6.44969">
        <ele>1914</ele>
        <time>2024-08-11T07:23:32Z</time>
      </trkpt>
      <trkpt lat="44.97599" lon="6.44972">
        <ele>1913.6</ele>
        <time>2024-08-11T07:23:33Z</time>
      </trkpt>
      <trkpt lat="44.97599" lon="6.44972">
        <ele>1913.2</ele>
        <time>2024-08-11T07:23:34Z</time>
      </trkpt>
      <trkpt lat="44.97599" lon="6.44976">
        <ele>1913.2</ele>
        <time>2024-08-11T07:23:35Z</time>
      </trkpt>
      <trkpt lat="44.97599" lon="6.44976">
        <ele>1913</ele>
        <time>2024-08-11T07:23:36Z</time>
      </trkpt>
      <trkpt lat="44.97597" lon="6.4498">
        <ele>1912.6</ele>
        <time>2024-08-11T07:23:37Z</time>
      </trkpt>
      <trkpt lat="44.97596" lon="6.44982">
        <ele>1912.6</ele>
        <time>2024-08-11T07:23:38Z</time>
      </trkpt>
      <trkpt lat="44.97596" lon="6.44982">
        <ele>1912.6</ele>
        <time>2024-08-11T07:23:39Z</time>
      </trkpt>
      <trkpt lat="44.97595" lon="6.44985">
        <ele>1912.4</ele>
        <time>2024-08-11T07:23:40Z</time>
      </trkpt>
      <trkpt lat="44.97595" lon="6.44985">
        <ele>1912.2</ele>
        <time>2024-08-11T07:23:41Z</time>
      </trkpt>
      <trkpt lat="44.97594" lon="6.44989">
        <ele>1912</ele>
        <time>2024-08-11T07:23:42Z</time>
      </trkpt>
      <trkpt lat="44.97594" lon="6.44989">
        <ele>1912</ele>
        <time>2024-08-11T07:23:43Z</time>
      </trkpt>
      <trkpt lat="44.97593" lon="6.44992">
        <ele>1912.2</ele>
        <time>2024-08-11T07:23:44Z</time>
      </trkpt>
      <trkpt lat="44.97593" lon="6.44992">
        <ele>1912.2</ele>
        <time>2024-08-11T07:23:45Z</time>
      </trkpt>
      <trkpt lat="44.97592" lon="6.44995">
        <ele>1911.8</ele>
        <time>2024-08-11T07:23:46Z</time>
      </trkpt>
      <trkpt lat="44.97592" lon="6.44995">
        <ele>1911.8</ele>
        <time>2024-08-11T07:23:47Z</time>
      </trkpt>
      <trkpt lat="44.97589" lon="6.44998">
        <ele>1912</ele>
        <time>2024-08-11T07:23:48Z</time>
      </trkpt>
      <trkpt lat="44.97589" lon="6.44998">
        <ele>1912</ele>
        <time>2024-08-11T07:23:49Z</time>
      </trkpt>
      <trkpt lat="44.97589" lon="6.45001">
        <ele>1911.8</ele>
        <time>2024-08-11T07:23:50Z</time>
      </trkpt>
      <trkpt lat="44.97589" lon="6.45001">
        <ele>1911.8</ele>
        <time>2024-08-11T07:23:51Z</time>
      </trkpt>
      <trkpt lat="44.97587" lon="6.45003">
        <ele>1911.8</ele>
        <time>2024-08-11T07:23:52Z</time>
      </trkpt>
      <trkpt lat="44.97587" lon="6.45003">
        <ele>1911.8</ele>
        <time>2024-08-11T07:23:53Z</time>
      </trkpt>
      <trkpt lat="44.97586" lon="6.45006">
        <ele>1911.8</ele>
        <time>2024-08-11T07:23:54Z</time>
      </trkpt>
      <trkpt lat="44.97586" lon="6.45006">
        <ele>1911.6</ele>
        <time>2024-08-11T07:23:55Z</time>
      </trkpt>
      <trkpt lat="44.97585" lon="6.45009">
        <ele>1911.4</ele>
        <time>2024-08-11T07:23:56Z</time>
      </trkpt>
      <trkpt lat="44.97585" lon="6.45009">
        <ele>1911.2</ele>
        <time>2024-08-11T07:23:57Z</time>
      </trkpt>
      <trkpt lat="44.97585" lon="6.45012">
        <ele>1911</ele>
        <time>2024-08-11T07:23:58Z</time>
      </trkpt>
      <trkpt lat="44.97585" lon="6.45012">
        <ele>1911</ele>
        <time>2024-08-11T07:23:59Z</time>
      </trkpt>
      <trkpt lat="44.97585" lon="6.45012">
        <ele>1911</ele>
        <time>2024-08-11T07:24:00Z</time>
      </trkpt>
      <trkpt lat="44.97585" lon="6.45016">
        <ele>1910.8</ele>
        <time>2024-08-11T07:24:01Z</time>
      </trkpt>
      <trkpt lat="44.97585" lon="6.45018">
        <ele>1910.6</ele>
        <time>2024-08-11T07:24:02Z</time>
      </trkpt>
      <trkpt lat="44.97585" lon="6.45018">
        <ele>1910.6</ele>
        <time>2024-08-11T07:24:03Z</time>
      </trkpt>
      <trkpt lat="44.97583" lon="6.4502">
        <ele>1910.4</ele>
        <time>2024-08-11T07:24:04Z</time>
      </trkpt>
      <trkpt lat="44.97583" lon="6.4502">
        <ele>1910.2</ele>
        <time>2024-08-11T07:24:05Z</time>
      </trkpt>
      <trkpt lat="44.97583" lon="6.4502">
        <ele>1910.2</ele>
        <time>2024-08-11T07:24:06Z</time>
      </trkpt>
      <trkpt lat="44.97582" lon="6.45023">
        <ele>1910.2</ele>
        <time>2024-08-11T07:24:07Z</time>
      </trkpt>
      <trkpt lat="44.97582" lon="6.45023">
        <ele>1910.4</ele>
        <time>2024-08-11T07:24:08Z</time>
      </trkpt>
      <trkpt lat="44.97583" lon="6.45026">
        <ele>1910.4</ele>
        <time>2024-08-11T07:24:09Z</time>
      </trkpt>
      <trkpt lat="44.97583" lon="6.45026">
        <ele>1910.2</ele>
        <time>2024-08-11T07:24:10Z</time>
      </trkpt>
      <trkpt lat="44.97582" lon="6.45029">
        <ele>1910</ele>
        <time>2024-08-11T07:24:11Z</time>
      </trkpt>
      <trkpt lat="44.97582" lon="6.45029">
        <ele>1909.6</ele>
        <time>2024-08-11T07:24:12Z</time>
      </trkpt>
      <trkpt lat="44.97582" lon="6.45029">
        <ele>1909.4</ele>
        <time>2024-08-11T07:24:13Z</time>
      </trkpt>
      <trkpt lat="44.97581" lon="6.45034">
        <ele>1909</ele>
        <time>2024-08-11T07:24:14Z</time>
      </trkpt>
      <trkpt lat="44.97581" lon="6.45036">
        <ele>1908.6</ele>
        <time>2024-08-11T07:24:15Z</time>
      </trkpt>
      <trkpt lat="44.97581" lon="6.45036">
        <ele>1908.4</ele>
        <time>2024-08-11T07:24:16Z</time>
      </trkpt>
      <trkpt lat="44.97582" lon="6.45039">
        <ele>1908.2</ele>
        <time>2024-08-11T07:24:17Z</time>
      </trkpt>
      <trkpt lat="44.97582" lon="6.45039">
        <ele>1908.2</ele>
        <time>2024-08-11T07:24:18Z</time>
      </trkpt>
      <trkpt lat="44.97581" lon="6.45042">
        <ele>1908</ele>
        <time>2024-08-11T07:24:19Z</time>
      </trkpt>
      <trkpt lat="44.97581" lon="6.45042">
        <ele>1907.8</ele>
        <time>2024-08-11T07:24:20Z</time>
      </trkpt>
      <trkpt lat="44.97581" lon="6.45045">
        <ele>1907.4</ele>
        <time>2024-08-11T07:24:21Z</time>
      </trkpt>
      <trkpt lat="44.97581" lon="6.45045">
        <ele>1907.2</ele>
        <time>2024-08-11T07:24:22Z</time>
      </trkpt>
      <trkpt lat="44.9758" lon="6.45049">
        <ele>1906.8</ele>
        <time>2024-08-11T07:24:23Z</time>
      </trkpt>
      <trkpt lat="44.9758" lon="6.45049">
        <ele>1906.6</ele>
        <time>2024-08-11T07:24:24Z</time>
      </trkpt>
      <trkpt lat="44.97579" lon="6.45052">
        <ele>1906.6</ele>
        <time>2024-08-11T07:24:25Z</time>
      </trkpt>
      <trkpt lat="44.97579" lon="6.45052">
        <ele>1906.4</ele>
        <time>2024-08-11T07:24:26Z</time>
      </trkpt>
      <trkpt lat="44.97577" lon="6.45055">
        <ele>1906.4</ele>
        <time>2024-08-11T07:24:27Z</time>
      </trkpt>
      <trkpt lat="44.97577" lon="6.45055">
        <ele>1906.2</ele>
        <time>2024-08-11T07:24:28Z</time>
      </trkpt>
      <trkpt lat="44.97577" lon="6.45055">
        <ele>1906</ele>
        <time>2024-08-11T07:24:29Z</time>
      </trkpt>
      <trkpt lat="44.97578" lon="6.45059">
        <ele>1905.8</ele>
        <time>2024-08-11T07:24:30Z</time>
      </trkpt>
      <trkpt lat="44.97578" lon="6.45059">
        <ele>1905.8</ele>
        <time>2024-08-11T07:24:31Z</time>
      </trkpt>
      <trkpt lat="44.9758" lon="6.4506">
        <ele>1905.6</ele>
        <time>2024-08-11T07:24:32Z</time>
      </trkpt>
      <trkpt lat="44.9758" lon="6.4506">
        <ele>1905.4</ele>
        <time>2024-08-11T07:24:33Z</time>
      </trkpt>
      <trkpt lat="44.97581" lon="6.45063">
        <ele>1905.4</ele>
        <time>2024-08-11T07:24:34Z</time>
      </trkpt>
      <trkpt lat="44.97581" lon="6.45063">
        <ele>1905.2</ele>
        <time>2024-08-11T07:24:35Z</time>
      </trkpt>
      <trkpt lat="44.97583" lon="6.45066">
        <ele>1904.8</ele>
        <time>2024-08-11T07:24:36Z</time>
      </trkpt>
      <trkpt lat="44.97583" lon="6.45066">
        <ele>1904.6</ele>
        <time>2024-08-11T07:24:37Z</time>
      </trkpt>
      <trkpt lat="44.97583" lon="6.45069">
        <ele>1904</ele>
        <time>2024-08-11T07:24:38Z</time>
      </trkpt>
      <trkpt lat="44.97583" lon="6.45069">
        <ele>1903.8</ele>
        <time>2024-08-11T07:24:39Z</time>
      </trkpt>
      <trkpt lat="44.97583" lon="6.45072">
        <ele>1903.6</ele>
        <time>2024-08-11T07:24:40Z</time>
      </trkpt>
      <trkpt lat="44.97583" lon="6.45072">
        <ele>1903.2</ele>
        <time>2024-08-11T07:24:41Z</time>
      </trkpt>
      <trkpt lat="44.97583" lon="6.45075">
        <ele>1903.2</ele>
        <time>2024-08-11T07:24:42Z</time>
      </trkpt>
      <trkpt lat="44.97583" lon="6.45075">
        <ele>1903.2</ele>
        <time>2024-08-11T07:24:43Z</time>
      </trkpt>
      <trkpt lat="44.97586" lon="6.45078">
        <ele>1902.8</ele>
        <time>2024-08-11T07:24:44Z</time>
      </trkpt>
      <trkpt lat="44.97586" lon="6.45078">
        <ele>1902.6</ele>
        <time>2024-08-11T07:24:45Z</time>
      </trkpt>
      <trkpt lat="44.97588" lon="6.4508">
        <ele>1902.4</ele>
        <time>2024-08-11T07:24:46Z</time>
      </trkpt>
      <trkpt lat="44.97588" lon="6.4508">
        <ele>1902.2</ele>
        <time>2024-08-11T07:24:47Z</time>
      </trkpt>
      <trkpt lat="44.97589" lon="6.45082">
        <ele>1902</ele>
        <time>2024-08-11T07:24:48Z</time>
      </trkpt>
      <trkpt lat="44.97589" lon="6.45082">
        <ele>1901.6</ele>
        <time>2024-08-11T07:24:49Z</time>
      </trkpt>
      <trkpt lat="44.97589" lon="6.45085">
        <ele>1901.6</ele>
        <time>2024-08-11T07:24:50Z</time>
      </trkpt>
      <trkpt lat="44.97585" lon="6.45088">
        <ele>1901.4</ele>
        <time>2024-08-11T07:24:51Z</time>
      </trkpt>
      <trkpt lat="44.97585" lon="6.45088">
        <ele>1901.2</ele>
        <time>2024-08-11T07:24:52Z</time>
      </trkpt>
      <trkpt lat="44.97585" lon="6.45088">
        <ele>1901</ele>
        <time>2024-08-11T07:24:53Z</time>
      </trkpt>
      <trkpt lat="44.97583" lon="6.45092">
        <ele>1900.8</ele>
        <time>2024-08-11T07:24:54Z</time>
      </trkpt>
      <trkpt lat="44.97583" lon="6.45094">
        <ele>1900.8</ele>
        <time>2024-08-11T07:24:55Z</time>
      </trkpt>
      <trkpt lat="44.97583" lon="6.45094">
        <ele>1900.6</ele>
        <time>2024-08-11T07:24:56Z</time>
      </trkpt>
      <trkpt lat="44.97581" lon="6.45097">
        <ele>1900.4</ele>
        <time>2024-08-11T07:24:57Z</time>
      </trkpt>
      <trkpt lat="44.97581" lon="6.45097">
        <ele>1900.4</ele>
        <time>2024-08-11T07:24:58Z</time>
      </trkpt>
      <trkpt lat="44.97579" lon="6.451">
        <ele>1900.2</ele>
        <time>2024-08-11T07:24:59Z</time>
      </trkpt>
      <trkpt lat="44.97579" lon="6.451">
        <ele>1899.8</ele>
        <time>2024-08-11T07:25:00Z</time>
      </trkpt>
      <trkpt lat="44.97577" lon="6.45102">
        <ele>1899.8</ele>
        <time>2024-08-11T07:25:01Z</time>
      </trkpt>
      <trkpt lat="44.97577" lon="6.45102">
        <ele>1899.4</ele>
        <time>2024-08-11T07:25:02Z</time>
      </trkpt>
      <trkpt lat="44.97577" lon="6.45102">
        <ele>1899.4</ele>
        <time>2024-08-11T07:25:03Z</time>
      </trkpt>
      <trkpt lat="44.97578" lon="6.45106">
        <ele>1899</ele>
        <time>2024-08-11T07:25:04Z</time>
      </trkpt>
      <trkpt lat="44.97578" lon="6.45106">
        <ele>1899</ele>
        <time>2024-08-11T07:25:05Z</time>
      </trkpt>
      <trkpt lat="44.9758" lon="6.45106">
        <ele>1898.8</ele>
        <time>2024-08-11T07:25:06Z</time>
      </trkpt>
      <trkpt lat="44.9758" lon="6.45106">
        <ele>1898.6</ele>
        <time>2024-08-11T07:25:07Z</time>
      </trkpt>
      <trkpt lat="44.9758" lon="6.45106">
        <ele>1898.4</ele>
        <time>2024-08-11T07:25:08Z</time>
      </trkpt>
      <trkpt lat="44.9758" lon="6.45106">
        <ele>1897.8</ele>
        <time>2024-08-11T07:25:09Z</time>
      </trkpt>
      <trkpt lat="44.97581" lon="6.45109">
        <ele>1897.6</ele>
        <time>2024-08-11T07:25:10Z</time>
      </trkpt>
      <trkpt lat="44.97583" lon="6.4511">
        <ele>1897.4</ele>
        <time>2024-08-11T07:25:11Z</time>
      </trkpt>
      <trkpt lat="44.97583" lon="6.4511">
        <ele>1897</ele>
        <time>2024-08-11T07:25:12Z</time>
      </trkpt>
      <trkpt lat="44.97586" lon="6.45112">
        <ele>1897</ele>
        <time>2024-08-11T07:25:13Z</time>
      </trkpt>
      <trkpt lat="44.97586" lon="6.45112">
        <ele>1896.8</ele>
        <time>2024-08-11T07:25:14Z</time>
      </trkpt>
      <trkpt lat="44.97587" lon="6.45114">
        <ele>1896.4</ele>
        <time>2024-08-11T07:25:15Z</time>
      </trkpt>
      <trkpt lat="44.97587" lon="6.45114">
        <ele>1896.4</ele>
        <time>2024-08-11T07:25:16Z</time>
      </trkpt>
      <trkpt lat="44.97589" lon="6.45116">
        <ele>1896</ele>
        <time>2024-08-11T07:25:17Z</time>
      </trkpt>
      <trkpt lat="44.97589" lon="6.45116">
        <ele>1895.8</ele>
        <time>2024-08-11T07:25:18Z</time>
      </trkpt>
      <trkpt lat="44.97589" lon="6.45118">
        <ele>1895.6</ele>
        <time>2024-08-11T07:25:19Z</time>
      </trkpt>
      <trkpt lat="44.97589" lon="6.45118">
        <ele>1895.4</ele>
        <time>2024-08-11T07:25:20Z</time>
      </trkpt>
      <trkpt lat="44.97588" lon="6.45122">
        <ele>1895.2</ele>
        <time>2024-08-11T07:25:21Z</time>
      </trkpt>
      <trkpt lat="44.97588" lon="6.45122">
        <ele>1895</ele>
        <time>2024-08-11T07:25:22Z</time>
      </trkpt>
      <trkpt lat="44.97588" lon="6.45125">
        <ele>1895</ele>
        <time>2024-08-11T07:25:23Z</time>
      </trkpt>
      <trkpt lat="44.97588" lon="6.45125">
        <ele>1894.8</ele>
        <time>2024-08-11T07:25:24Z</time>
      </trkpt>
      <trkpt lat="44.97587" lon="6.45128">
        <ele>1894.6</ele>
        <time>2024-08-11T07:25:25Z</time>
      </trkpt>
      <trkpt lat="44.97587" lon="6.45128">
        <ele>1894.4</ele>
        <time>2024-08-11T07:25:26Z</time>
      </trkpt>
      <trkpt lat="44.97587" lon="6.45128">
        <ele>1894.4</ele>
        <time>2024-08-11T07:25:27Z</time>
      </trkpt>
      <trkpt lat="44.97587" lon="6.45128">
        <ele>1894.2</ele>
        <time>2024-08-11T07:25:28Z</time>
      </trkpt>
      <trkpt lat="44.97587" lon="6.45128">
        <ele>1894.2</ele>
        <time>2024-08-11T07:25:29Z</time>
      </trkpt>
      <trkpt lat="44.97589" lon="6.4513">
        <ele>1894.2</ele>
        <time>2024-08-11T07:25:30Z</time>
      </trkpt>
      <trkpt lat="44.97589" lon="6.4513">
        <ele>1893.8</ele>
        <time>2024-08-11T07:25:31Z</time>
      </trkpt>
      <trkpt lat="44.9759" lon="6.45133">
        <ele>1893.4</ele>
        <time>2024-08-11T07:25:32Z</time>
      </trkpt>
      <trkpt lat="44.9759" lon="6.45133">
        <ele>1893.2</ele>
        <time>2024-08-11T07:25:33Z</time>
      </trkpt>
      <trkpt lat="44.9759" lon="6.45133">
        <ele>1893.2</ele>
        <time>2024-08-11T07:25:34Z</time>
      </trkpt>
      <trkpt lat="44.97592" lon="6.45136">
        <ele>1893.2</ele>
        <time>2024-08-11T07:25:35Z</time>
      </trkpt>
      <trkpt lat="44.97592" lon="6.45138">
        <ele>1893</ele>
        <time>2024-08-11T07:25:36Z</time>
      </trkpt>
      <trkpt lat="44.97592" lon="6.45138">
        <ele>1893</ele>
        <time>2024-08-11T07:25:37Z</time>
      </trkpt>
      <trkpt lat="44.97591" lon="6.4514">
        <ele>1893</ele>
        <time>2024-08-11T07:25:38Z</time>
      </trkpt>
      <trkpt lat="44.97589" lon="6.45142">
        <ele>1892.6</ele>
        <time>2024-08-11T07:25:39Z</time>
      </trkpt>
      <trkpt lat="44.97587" lon="6.45143">
        <ele>1892.2</ele>
        <time>2024-08-11T07:25:40Z</time>
      </trkpt>
      <trkpt lat="44.97587" lon="6.45143">
        <ele>1892</ele>
        <time>2024-08-11T07:25:41Z</time>
      </trkpt>
      <trkpt lat="44.97585" lon="6.45144">
        <ele>1892</ele>
        <time>2024-08-11T07:25:42Z</time>
      </trkpt>
      <trkpt lat="44.97585" lon="6.45144">
        <ele>1891.6</ele>
        <time>2024-08-11T07:25:43Z</time>
      </trkpt>
      <trkpt lat="44.97584" lon="6.45147">
        <ele>1891.4</ele>
        <time>2024-08-11T07:25:44Z</time>
      </trkpt>
      <trkpt lat="44.97584" lon="6.45147">
        <ele>1891.2</ele>
        <time>2024-08-11T07:25:45Z</time>
      </trkpt>
      <trkpt lat="44.97584" lon="6.45147">
        <ele>1891</ele>
        <time>2024-08-11T07:25:46Z</time>
      </trkpt>
      <trkpt lat="44.97584" lon="6.45147">
        <ele>1890.8</ele>
        <time>2024-08-11T07:25:47Z</time>
      </trkpt>
      <trkpt lat="44.97586" lon="6.45151">
        <ele>1890.6</ele>
        <time>2024-08-11T07:25:48Z</time>
      </trkpt>
      <trkpt lat="44.97586" lon="6.45151">
        <ele>1890.4</ele>
        <time>2024-08-11T07:25:49Z</time>
      </trkpt>
      <trkpt lat="44.97586" lon="6.45154">
        <ele>1890.2</ele>
        <time>2024-08-11T07:25:50Z</time>
      </trkpt>
      <trkpt lat="44.97587" lon="6.45156">
        <ele>1890.2</ele>
        <time>2024-08-11T07:25:51Z</time>
      </trkpt>
      <trkpt lat="44.97587" lon="6.45156">
        <ele>1890</ele>
        <time>2024-08-11T07:25:52Z</time>
      </trkpt>
      <trkpt lat="44.97586" lon="6.45159">
        <ele>1890</ele>
        <time>2024-08-11T07:25:53Z</time>
      </trkpt>
      <trkpt lat="44.97586" lon="6.45159">
        <ele>1889.8</ele>
        <time>2024-08-11T07:25:54Z</time>
      </trkpt>
      <trkpt lat="44.97586" lon="6.45159">
        <ele>1889.6</ele>
        <time>2024-08-11T07:25:55Z</time>
      </trkpt>
      <trkpt lat="44.97586" lon="6.45159">
        <ele>1889.2</ele>
        <time>2024-08-11T07:25:56Z</time>
      </trkpt>
      <trkpt lat="44.97585" lon="6.45164">
        <ele>1889.2</ele>
        <time>2024-08-11T07:25:57Z</time>
      </trkpt>
      <trkpt lat="44.97584" lon="6.45165">
        <ele>1889.2</ele>
        <time>2024-08-11T07:25:58Z</time>
      </trkpt>
      <trkpt lat="44.97584" lon="6.45165">
        <ele>1888.8</ele>
        <time>2024-08-11T07:25:59Z</time>
      </trkpt>
      <trkpt lat="44.97586" lon="6.45167">
        <ele>1888.4</ele>
        <time>2024-08-11T07:26:00Z</time>
      </trkpt>
      <trkpt lat="44.97586" lon="6.45167">
        <ele>1888.2</ele>
        <time>2024-08-11T07:26:01Z</time>
      </trkpt>
      <trkpt lat="44.97585" lon="6.45169">
        <ele>1887.6</ele>
        <time>2024-08-11T07:26:02Z</time>
      </trkpt>
      <trkpt lat="44.97585" lon="6.45169">
        <ele>1887.6</ele>
        <time>2024-08-11T07:26:03Z</time>
      </trkpt>
      <trkpt lat="44.97586" lon="6.45172">
        <ele>1887.2</ele>
        <time>2024-08-11T07:26:04Z</time>
      </trkpt>
      <trkpt lat="44.97586" lon="6.45172">
        <ele>1887.2</ele>
        <time>2024-08-11T07:26:05Z</time>
      </trkpt>
      <trkpt lat="44.97585" lon="6.45176">
        <ele>1887</ele>
        <time>2024-08-11T07:26:06Z</time>
      </trkpt>
      <trkpt lat="44.97585" lon="6.45176">
        <ele>1886.8</ele>
        <time>2024-08-11T07:26:07Z</time>
      </trkpt>
      <trkpt lat="44.97585" lon="6.45179">
        <ele>1886.6</ele>
        <time>2024-08-11T07:26:08Z</time>
      </trkpt>
      <trkpt lat="44.97585" lon="6.45179">
        <ele>1886.6</ele>
        <time>2024-08-11T07:26:09Z</time>
      </trkpt>
      <trkpt lat="44.97586" lon="6.45181">
        <ele>1886.2</ele>
        <time>2024-08-11T07:26:10Z</time>
      </trkpt>
      <trkpt lat="44.97586" lon="6.45181">
        <ele>1886</ele>
        <time>2024-08-11T07:26:11Z</time>
      </trkpt>
      <trkpt lat="44.97586" lon="6.45181">
        <ele>1886</ele>
        <time>2024-08-11T07:26:12Z</time>
      </trkpt>
      <trkpt lat="44.97587" lon="6.45184">
        <ele>1885.8</ele>
        <time>2024-08-11T07:26:13Z</time>
      </trkpt>
      <trkpt lat="44.97587" lon="6.45184">
        <ele>1885.6</ele>
        <time>2024-08-11T07:26:14Z</time>
      </trkpt>
      <trkpt lat="44.97587" lon="6.45184">
        <ele>1885.4</ele>
        <time>2024-08-11T07:26:15Z</time>
      </trkpt>
      <trkpt lat="44.97588" lon="6.45188">
        <ele>1885.2</ele>
        <time>2024-08-11T07:26:16Z</time>
      </trkpt>
      <trkpt lat="44.97588" lon="6.45188">
        <ele>1885</ele>
        <time>2024-08-11T07:26:17Z</time>
      </trkpt>
      <trkpt lat="44.97589" lon="6.45191">
        <ele>1884.8</ele>
        <time>2024-08-11T07:26:18Z</time>
      </trkpt>
      <trkpt lat="44.97587" lon="6.45193">
        <ele>1884.6</ele>
        <time>2024-08-11T07:26:19Z</time>
      </trkpt>
      <trkpt lat="44.97587" lon="6.45193">
        <ele>1884.4</ele>
        <time>2024-08-11T07:26:20Z</time>
      </trkpt>
      <trkpt lat="44.97586" lon="6.45196">
        <ele>1884.2</ele>
        <time>2024-08-11T07:26:21Z</time>
      </trkpt>
      <trkpt lat="44.97586" lon="6.45196">
        <ele>1884</ele>
        <time>2024-08-11T07:26:22Z</time>
      </trkpt>
      <trkpt lat="44.97586" lon="6.45196">
        <ele>1884</ele>
        <time>2024-08-11T07:26:23Z</time>
      </trkpt>
      <trkpt lat="44.97584" lon="6.45199">
        <ele>1884</ele>
        <time>2024-08-11T07:26:24Z</time>
      </trkpt>
      <trkpt lat="44.97584" lon="6.45199">
        <ele>1883.8</ele>
        <time>2024-08-11T07:26:25Z</time>
      </trkpt>
      <trkpt lat="44.97584" lon="6.45199">
        <ele>1883.4</ele>
        <time>2024-08-11T07:26:26Z</time>
      </trkpt>
      <trkpt lat="44.97584" lon="6.45199">
        <ele>1883.2</ele>
        <time>2024-08-11T07:26:27Z</time>
      </trkpt>
      <trkpt lat="44.97585" lon="6.45203">
        <ele>1883</ele>
        <time>2024-08-11T07:26:28Z</time>
      </trkpt>
      <trkpt lat="44.97585" lon="6.45203">
        <ele>1882.8</ele>
        <time>2024-08-11T07:26:29Z</time>
      </trkpt>
      <trkpt lat="44.97584" lon="6.45204">
        <ele>1882.6</ele>
        <time>2024-08-11T07:26:30Z</time>
      </trkpt>
      <trkpt lat="44.97582" lon="6.45207">
        <ele>1882.2</ele>
        <time>2024-08-11T07:26:31Z</time>
      </trkpt>
      <trkpt lat="44.97582" lon="6.45207">
        <ele>1881.8</ele>
        <time>2024-08-11T07:26:32Z</time>
      </trkpt>
      <trkpt lat="44.97581" lon="6.4521">
        <ele>1881.8</ele>
        <time>2024-08-11T07:26:33Z</time>
      </trkpt>
      <trkpt lat="44.97581" lon="6.4521">
        <ele>1881.6</ele>
        <time>2024-08-11T07:26:34Z</time>
      </trkpt>
      <trkpt lat="44.97579" lon="6.45213">
        <ele>1881.4</ele>
        <time>2024-08-11T07:26:35Z</time>
      </trkpt>
      <trkpt lat="44.97579" lon="6.45213">
        <ele>1881.4</ele>
        <time>2024-08-11T07:26:36Z</time>
      </trkpt>
      <trkpt lat="44.97577" lon="6.45216">
        <ele>1881</ele>
        <time>2024-08-11T07:26:37Z</time>
      </trkpt>
      <trkpt lat="44.97577" lon="6.45216">
        <ele>1880.6</ele>
        <time>2024-08-11T07:26:38Z</time>
      </trkpt>
      <trkpt lat="44.97576" lon="6.45219">
        <ele>1880.6</ele>
        <time>2024-08-11T07:26:39Z</time>
      </trkpt>
      <trkpt lat="44.97576" lon="6.45219">
        <ele>1880.6</ele>
        <time>2024-08-11T07:26:40Z</time>
      </trkpt>
      <trkpt lat="44.97576" lon="6.45219">
        <ele>1880</ele>
        <time>2024-08-11T07:26:41Z</time>
      </trkpt>
      <trkpt lat="44.97576" lon="6.45222">
        <ele>1880</ele>
        <time>2024-08-11T07:26:42Z</time>
      </trkpt>
      <trkpt lat="44.97576" lon="6.45222">
        <ele>1879.8</ele>
        <time>2024-08-11T07:26:43Z</time>
      </trkpt>
      <trkpt lat="44.97576" lon="6.45222">
        <ele>1879.4</ele>
        <time>2024-08-11T07:26:44Z</time>
      </trkpt>
      <trkpt lat="44.97577" lon="6.45226">
        <ele>1879.2</ele>
        <time>2024-08-11T07:26:45Z</time>
      </trkpt>
      <trkpt lat="44.97577" lon="6.45226">
        <ele>1879</ele>
        <time>2024-08-11T07:26:46Z</time>
      </trkpt>
      <trkpt lat="44.97578" lon="6.45229">
        <ele>1878.6</ele>
        <time>2024-08-11T07:26:47Z</time>
      </trkpt>
      <trkpt lat="44.97578" lon="6.45229">
        <ele>1878.4</ele>
        <time>2024-08-11T07:26:48Z</time>
      </trkpt>
      <trkpt lat="44.97579" lon="6.45231">
        <ele>1878.4</ele>
        <time>2024-08-11T07:26:49Z</time>
      </trkpt>
      <trkpt lat="44.97579" lon="6.45231">
        <ele>1878.2</ele>
        <time>2024-08-11T07:26:50Z</time>
      </trkpt>
      <trkpt lat="44.97579" lon="6.45235">
        <ele>1878.2</ele>
        <time>2024-08-11T07:26:51Z</time>
      </trkpt>
      <trkpt lat="44.97579" lon="6.45235">
        <ele>1878.2</ele>
        <time>2024-08-11T07:26:52Z</time>
      </trkpt>
      <trkpt lat="44.97576" lon="6.45238">
        <ele>1878</ele>
        <time>2024-08-11T07:26:53Z</time>
      </trkpt>
      <trkpt lat="44.97573" lon="6.4524">
        <ele>1878</ele>
        <time>2024-08-11T07:26:54Z</time>
      </trkpt>
      <trkpt lat="44.97573" lon="6.4524">
        <ele>1878</ele>
        <time>2024-08-11T07:26:55Z</time>
      </trkpt>
      <trkpt lat="44.97571" lon="6.45242">
        <ele>1878</ele>
        <time>2024-08-11T07:26:56Z</time>
      </trkpt>
      <trkpt lat="44.97571" lon="6.45242">
        <ele>1877.8</ele>
        <time>2024-08-11T07:26:57Z</time>
      </trkpt>
      <trkpt lat="44.97569" lon="6.45245">
        <ele>1877.8</ele>
        <time>2024-08-11T07:26:58Z</time>
      </trkpt>
      <trkpt lat="44.97569" lon="6.45245">
        <ele>1877.8</ele>
        <time>2024-08-11T07:26:59Z</time>
      </trkpt>
      <trkpt lat="44.97567" lon="6.45248">
        <ele>1877.6</ele>
        <time>2024-08-11T07:27:00Z</time>
      </trkpt>
      <trkpt lat="44.97567" lon="6.45248">
        <ele>1877.2</ele>
        <time>2024-08-11T07:27:01Z</time>
      </trkpt>
      <trkpt lat="44.97567" lon="6.45248">
        <ele>1877.2</ele>
        <time>2024-08-11T07:27:02Z</time>
      </trkpt>
      <trkpt lat="44.97567" lon="6.45248">
        <ele>1877.2</ele>
        <time>2024-08-11T07:27:03Z</time>
      </trkpt>
      <trkpt lat="44.97569" lon="6.45252">
        <ele>1877.2</ele>
        <time>2024-08-11T07:27:04Z</time>
      </trkpt>
      <trkpt lat="44.97569" lon="6.45252">
        <ele>1877</ele>
        <time>2024-08-11T07:27:05Z</time>
      </trkpt>
      <trkpt lat="44.97569" lon="6.45252">
        <ele>1876.6</ele>
        <time>2024-08-11T07:27:06Z</time>
      </trkpt>
      <trkpt lat="44.97569" lon="6.45252">
        <ele>1876.4</ele>
        <time>2024-08-11T07:27:07Z</time>
      </trkpt>
      <trkpt lat="44.97571" lon="6.45256">
        <ele>1876.2</ele>
        <time>2024-08-11T07:27:08Z</time>
      </trkpt>
      <trkpt lat="44.97571" lon="6.45256">
        <ele>1875.8</ele>
        <time>2024-08-11T07:27:09Z</time>
      </trkpt>
      <trkpt lat="44.97571" lon="6.45259">
        <ele>1875.6</ele>
        <time>2024-08-11T07:27:10Z</time>
      </trkpt>
      <trkpt lat="44.97571" lon="6.45259">
        <ele>1875.2</ele>
        <time>2024-08-11T07:27:11Z</time>
      </trkpt>
      <trkpt lat="44.97571" lon="6.45259">
        <ele>1875</ele>
        <time>2024-08-11T07:27:12Z</time>
      </trkpt>
      <trkpt lat="44.97573" lon="6.45263">
        <ele>1874.6</ele>
        <time>2024-08-11T07:27:13Z</time>
      </trkpt>
      <trkpt lat="44.97573" lon="6.45263">
        <ele>1874.4</ele>
        <time>2024-08-11T07:27:14Z</time>
      </trkpt>
      <trkpt lat="44.97575" lon="6.45264">
        <ele>1874</ele>
        <time>2024-08-11T07:27:15Z</time>
      </trkpt>
      <trkpt lat="44.97575" lon="6.45264">
        <ele>1873.8</ele>
        <time>2024-08-11T07:27:16Z</time>
      </trkpt>
      <trkpt lat="44.97575" lon="6.45264">
        <ele>1873.4</ele>
        <time>2024-08-11T07:27:17Z</time>
      </trkpt>
      <trkpt lat="44.97577" lon="6.45266">
        <ele>1873</ele>
        <time>2024-08-11T07:27:18Z</time>
      </trkpt>
      <trkpt lat="44.97577" lon="6.45266">
        <ele>1872.8</ele>
        <time>2024-08-11T07:27:19Z</time>
      </trkpt>
      <trkpt lat="44.97579" lon="6.45267">
        <ele>1872.6</ele>
        <time>2024-08-11T07:27:20Z</time>
      </trkpt>
      <trkpt lat="44.97579" lon="6.45267">
        <ele>1872.2</ele>
        <time>2024-08-11T07:27:21Z</time>
      </trkpt>
      <trkpt lat="44.97579" lon="6.45267">
        <ele>1872.2</ele>
        <time>2024-08-11T07:27:22Z</time>
      </trkpt>
      <trkpt lat="44.97581" lon="6.4527">
        <ele>1871.8</ele>
        <time>2024-08-11T07:27:23Z</time>
      </trkpt>
      <trkpt lat="44.97581" lon="6.4527">
        <ele>1871.2</ele>
        <time>2024-08-11T07:27:24Z</time>
      </trkpt>
      <trkpt lat="44.97581" lon="6.45272">
        <ele>1871.2</ele>
        <time>2024-08-11T07:27:25Z</time>
      </trkpt>
      <trkpt lat="44.97581" lon="6.45272">
        <ele>1870.8</ele>
        <time>2024-08-11T07:27:26Z</time>
      </trkpt>
      <trkpt lat="44.97582" lon="6.45275">
        <ele>1870.8</ele>
        <time>2024-08-11T07:27:27Z</time>
      </trkpt>
      <trkpt lat="44.97582" lon="6.45275">
        <ele>1870.6</ele>
        <time>2024-08-11T07:27:28Z</time>
      </trkpt>
      <trkpt lat="44.97582" lon="6.45275">
        <ele>1870.2</ele>
        <time>2024-08-11T07:27:29Z</time>
      </trkpt>
      <trkpt lat="44.97581" lon="6.45279">
        <ele>1870.2</ele>
        <time>2024-08-11T07:27:30Z</time>
      </trkpt>
      <trkpt lat="44.97579" lon="6.45281">
        <ele>1870</ele>
        <time>2024-08-11T07:27:31Z</time>
      </trkpt>
      <trkpt lat="44.97579" lon="6.45281">
        <ele>1869.8</ele>
        <time>2024-08-11T07:27:32Z</time>
      </trkpt>
      <trkpt lat="44.97577" lon="6.45284">
        <ele>1869.6</ele>
        <time>2024-08-11T07:27:33Z</time>
      </trkpt>
      <trkpt lat="44.97577" lon="6.45284">
        <ele>1869.2</ele>
        <time>2024-08-11T07:27:34Z</time>
      </trkpt>
      <trkpt lat="44.97574" lon="6.45285">
        <ele>1869.2</ele>
        <time>2024-08-11T07:27:35Z</time>
      </trkpt>
      <trkpt lat="44.97574" lon="6.45285">
        <ele>1869.2</ele>
        <time>2024-08-11T07:27:36Z</time>
      </trkpt>
      <trkpt lat="44.97574" lon="6.45285">
        <ele>1868.8</ele>
        <time>2024-08-11T07:27:37Z</time>
      </trkpt>
      <trkpt lat="44.97572" lon="6.45289">
        <ele>1868.6</ele>
        <time>2024-08-11T07:27:38Z</time>
      </trkpt>
      <trkpt lat="44.97572" lon="6.45289">
        <ele>1868.6</ele>
        <time>2024-08-11T07:27:39Z</time>
      </trkpt>
      <trkpt lat="44.97569" lon="6.45292">
        <ele>1868.4</ele>
        <time>2024-08-11T07:27:40Z</time>
      </trkpt>
      <trkpt lat="44.97569" lon="6.45292">
        <ele>1868.4</ele>
        <time>2024-08-11T07:27:41Z</time>
      </trkpt>
      <trkpt lat="44.97567" lon="6.45295">
        <ele>1868.2</ele>
        <time>2024-08-11T07:27:42Z</time>
      </trkpt>
      <trkpt lat="44.97567" lon="6.45295">
        <ele>1868</ele>
        <time>2024-08-11T07:27:43Z</time>
      </trkpt>
      <trkpt lat="44.97567" lon="6.45295">
        <ele>1867.8</ele>
        <time>2024-08-11T07:27:44Z</time>
      </trkpt>
      <trkpt lat="44.97564" lon="6.45299">
        <ele>1868</ele>
        <time>2024-08-11T07:27:45Z</time>
      </trkpt>
      <trkpt lat="44.97563" lon="6.45299">
        <ele>1868</ele>
        <time>2024-08-11T07:27:46Z</time>
      </trkpt>
      <trkpt lat="44.97563" lon="6.45299">
        <ele>1867.8</ele>
        <time>2024-08-11T07:27:47Z</time>
      </trkpt>
      <trkpt lat="44.97561" lon="6.45301">
        <ele>1867.8</ele>
        <time>2024-08-11T07:27:48Z</time>
      </trkpt>
      <trkpt lat="44.97559" lon="6.45303">
        <ele>1867.6</ele>
        <time>2024-08-11T07:27:49Z</time>
      </trkpt>
      <trkpt lat="44.97559" lon="6.45303">
        <ele>1867.6</ele>
        <time>2024-08-11T07:27:50Z</time>
      </trkpt>
      <trkpt lat="44.97557" lon="6.45303">
        <ele>1867.4</ele>
        <time>2024-08-11T07:27:51Z</time>
      </trkpt>
      <trkpt lat="44.97557" lon="6.45303">
        <ele>1867.2</ele>
        <time>2024-08-11T07:27:52Z</time>
      </trkpt>
      <trkpt lat="44.97554" lon="6.45305">
        <ele>1867.2</ele>
        <time>2024-08-11T07:27:53Z</time>
      </trkpt>
      <trkpt lat="44.97554" lon="6.45305">
        <ele>1867</ele>
        <time>2024-08-11T07:27:54Z</time>
      </trkpt>
      <trkpt lat="44.97551" lon="6.45306">
        <ele>1866.8</ele>
        <time>2024-08-11T07:27:55Z</time>
      </trkpt>
      <trkpt lat="44.97551" lon="6.45306">
        <ele>1866.6</ele>
        <time>2024-08-11T07:27:56Z</time>
      </trkpt>
      <trkpt lat="44.9755" lon="6.45308">
        <ele>1866.6</ele>
        <time>2024-08-11T07:27:57Z</time>
      </trkpt>
      <trkpt lat="44.9755" lon="6.45308">
        <ele>1866.4</ele>
        <time>2024-08-11T07:27:58Z</time>
      </trkpt>
      <trkpt lat="44.9755" lon="6.45308">
        <ele>1866</ele>
        <time>2024-08-11T07:27:59Z</time>
      </trkpt>
      <trkpt lat="44.97549" lon="6.45312">
        <ele>1865.8</ele>
        <time>2024-08-11T07:28:00Z</time>
      </trkpt>
      <trkpt lat="44.97549" lon="6.45312">
        <ele>1865.6</ele>
        <time>2024-08-11T07:28:01Z</time>
      </trkpt>
      <trkpt lat="44.97549" lon="6.45312">
        <ele>1865.2</ele>
        <time>2024-08-11T07:28:02Z</time>
      </trkpt>
      <trkpt lat="44.97546" lon="6.45316">
        <ele>1865.2</ele>
        <time>2024-08-11T07:28:03Z</time>
      </trkpt>
      <trkpt lat="44.97546" lon="6.45316">
        <ele>1865</ele>
        <time>2024-08-11T07:28:04Z</time>
      </trkpt>
      <trkpt lat="44.97545" lon="6.45318">
        <ele>1864.8</ele>
        <time>2024-08-11T07:28:05Z</time>
      </trkpt>
      <trkpt lat="44.97544" lon="6.45319">
        <ele>1864.6</ele>
        <time>2024-08-11T07:28:06Z</time>
      </trkpt>
      <trkpt lat="44.97544" lon="6.45319">
        <ele>1864.4</ele>
        <time>2024-08-11T07:28:07Z</time>
      </trkpt>
      <trkpt lat="44.97543" lon="6.45323">
        <ele>1864.4</ele>
        <time>2024-08-11T07:28:08Z</time>
      </trkpt>
      <trkpt lat="44.97543" lon="6.45323">
        <ele>1864.4</ele>
        <time>2024-08-11T07:28:09Z</time>
      </trkpt>
      <trkpt lat="44.97542" lon="6.45325">
        <ele>1864.4</ele>
        <time>2024-08-11T07:28:10Z</time>
      </trkpt>
      <trkpt lat="44.97542" lon="6.45325">
        <ele>1864</ele>
        <time>2024-08-11T07:28:11Z</time>
      </trkpt>
      <trkpt lat="44.97541" lon="6.45329">
        <ele>1863.8</ele>
        <time>2024-08-11T07:28:12Z</time>
      </trkpt>
      <trkpt lat="44.97541" lon="6.45329">
        <ele>1863.8</ele>
        <time>2024-08-11T07:28:13Z</time>
      </trkpt>
      <trkpt lat="44.97541" lon="6.45329">
        <ele>1863.6</ele>
        <time>2024-08-11T07:28:14Z</time>
      </trkpt>
      <trkpt lat="44.9754" lon="6.45333">
        <ele>1863.4</ele>
        <time>2024-08-11T07:28:15Z</time>
      </trkpt>
      <trkpt lat="44.9754" lon="6.45333">
        <ele>1863.2</ele>
        <time>2024-08-11T07:28:16Z</time>
      </trkpt>
      <trkpt lat="44.9754" lon="6.45336">
        <ele>1863.2</ele>
        <time>2024-08-11T07:28:17Z</time>
      </trkpt>
      <trkpt lat="44.9754" lon="6.45336">
        <ele>1863.2</ele>
        <time>2024-08-11T07:28:18Z</time>
      </trkpt>
      <trkpt lat="44.97543" lon="6.45337">
        <ele>1862.8</ele>
        <time>2024-08-11T07:28:19Z</time>
      </trkpt>
      <trkpt lat="44.97546" lon="6.45337">
        <ele>1862.6</ele>
        <time>2024-08-11T07:28:20Z</time>
      </trkpt>
      <trkpt lat="44.97546" lon="6.45337">
        <ele>1862.4</ele>
        <time>2024-08-11T07:28:21Z</time>
      </trkpt>
      <trkpt lat="44.97548" lon="6.45339">
        <ele>1862</ele>
        <time>2024-08-11T07:28:22Z</time>
      </trkpt>
      <trkpt lat="44.97548" lon="6.45339">
        <ele>1861.6</ele>
        <time>2024-08-11T07:28:23Z</time>
      </trkpt>
      <trkpt lat="44.9755" lon="6.4534">
        <ele>1861.2</ele>
        <time>2024-08-11T07:28:24Z</time>
      </trkpt>
      <trkpt lat="44.9755" lon="6.4534">
        <ele>1861.2</ele>
        <time>2024-08-11T07:28:25Z</time>
      </trkpt>
      <trkpt lat="44.97551" lon="6.45342">
        <ele>1861</ele>
        <time>2024-08-11T07:28:26Z</time>
      </trkpt>
      <trkpt lat="44.97551" lon="6.45342">
        <ele>1860.6</ele>
        <time>2024-08-11T07:28:27Z</time>
      </trkpt>
      <trkpt lat="44.97553" lon="6.45344">
        <ele>1860.2</ele>
        <time>2024-08-11T07:28:28Z</time>
      </trkpt>
      <trkpt lat="44.97553" lon="6.45344">
        <ele>1860</ele>
        <time>2024-08-11T07:28:29Z</time>
      </trkpt>
      <trkpt lat="44.97553" lon="6.45344">
        <ele>1859.8</ele>
        <time>2024-08-11T07:28:30Z</time>
      </trkpt>
      <trkpt lat="44.97554" lon="6.45347">
        <ele>1859.8</ele>
        <time>2024-08-11T07:28:31Z</time>
      </trkpt>
      <trkpt lat="44.97554" lon="6.45347">
        <ele>1859.6</ele>
        <time>2024-08-11T07:28:32Z</time>
      </trkpt>
      <trkpt lat="44.97554" lon="6.45347">
        <ele>1859.6</ele>
        <time>2024-08-11T07:28:33Z</time>
      </trkpt>
      <trkpt lat="44.97555" lon="6.4535">
        <ele>1859.4</ele>
        <time>2024-08-11T07:28:34Z</time>
      </trkpt>
      <trkpt lat="44.97555" lon="6.4535">
        <ele>1859</ele>
        <time>2024-08-11T07:28:35Z</time>
      </trkpt>
      <trkpt lat="44.97555" lon="6.4535">
        <ele>1858.8</ele>
        <time>2024-08-11T07:28:36Z</time>
      </trkpt>
      <trkpt lat="44.97555" lon="6.45354">
        <ele>1858.6</ele>
        <time>2024-08-11T07:28:37Z</time>
      </trkpt>
      <trkpt lat="44.97554" lon="6.45356">
        <ele>1858.4</ele>
        <time>2024-08-11T07:28:38Z</time>
      </trkpt>
      <trkpt lat="44.97554" lon="6.45356">
        <ele>1858.4</ele>
        <time>2024-08-11T07:28:39Z</time>
      </trkpt>
      <trkpt lat="44.97554" lon="6.45356">
        <ele>1858.2</ele>
        <time>2024-08-11T07:28:40Z</time>
      </trkpt>
      <trkpt lat="44.97555" lon="6.45359">
        <ele>1858.2</ele>
        <time>2024-08-11T07:28:41Z</time>
      </trkpt>
      <trkpt lat="44.97555" lon="6.45359">
        <ele>1857.6</ele>
        <time>2024-08-11T07:28:42Z</time>
      </trkpt>
      <trkpt lat="44.97556" lon="6.45362">
        <ele>1857.4</ele>
        <time>2024-08-11T07:28:43Z</time>
      </trkpt>
      <trkpt lat="44.97556" lon="6.45362">
        <ele>1857.2</ele>
        <time>2024-08-11T07:28:44Z</time>
      </trkpt>
      <trkpt lat="44.97557" lon="6.45364">
        <ele>1857</ele>
        <time>2024-08-11T07:28:45Z</time>
      </trkpt>
      <trkpt lat="44.97557" lon="6.45364">
        <ele>1856.8</ele>
        <time>2024-08-11T07:28:46Z</time>
      </trkpt>
      <trkpt lat="44.97557" lon="6.45367">
        <ele>1856.6</ele>
        <time>2024-08-11T07:28:47Z</time>
      </trkpt>
      <trkpt lat="44.97557" lon="6.45367">
        <ele>1856.4</ele>
        <time>2024-08-11T07:28:48Z</time>
      </trkpt>
      <trkpt lat="44.97557" lon="6.45367">
        <ele>1856.2</ele>
        <time>2024-08-11T07:28:49Z</time>
      </trkpt>
      <trkpt lat="44.97558" lon="6.4537">
        <ele>1856</ele>
        <time>2024-08-11T07:28:50Z</time>
      </trkpt>
      <trkpt lat="44.97558" lon="6.4537">
        <ele>1855.8</ele>
        <time>2024-08-11T07:28:51Z</time>
      </trkpt>
      <trkpt lat="44.97557" lon="6.45372">
        <ele>1855.4</ele>
        <time>2024-08-11T07:28:52Z</time>
      </trkpt>
      <trkpt lat="44.97557" lon="6.45372">
        <ele>1855</ele>
        <time>2024-08-11T07:28:53Z</time>
      </trkpt>
      <trkpt lat="44.97557" lon="6.45372">
        <ele>1855</ele>
        <time>2024-08-11T07:28:54Z</time>
      </trkpt>
      <trkpt lat="44.97557" lon="6.45375">
        <ele>1854.8</ele>
        <time>2024-08-11T07:28:55Z</time>
      </trkpt>
      <trkpt lat="44.97557" lon="6.45375">
        <ele>1854.8</ele>
        <time>2024-08-11T07:28:56Z</time>
      </trkpt>
      <trkpt lat="44.97557" lon="6.45375">
        <ele>1854.8</ele>
        <time>2024-08-11T07:28:57Z</time>
      </trkpt>
      <trkpt lat="44.97557" lon="6.45379">
        <ele>1854.8</ele>
        <time>2024-08-11T07:28:58Z</time>
      </trkpt>
      <trkpt lat="44.97557" lon="6.45379">
        <ele>1854.8</ele>
        <time>2024-08-11T07:28:59Z</time>
      </trkpt>
      <trkpt lat="44.97557" lon="6.45382">
        <ele>1854.6</ele>
        <time>2024-08-11T07:29:00Z</time>
      </trkpt>
      <trkpt lat="44.97557" lon="6.45382">
        <ele>1854.6</ele>
        <time>2024-08-11T07:29:01Z</time>
      </trkpt>
      <trkpt lat="44.97557" lon="6.45382">
        <ele>1854.6</ele>
        <time>2024-08-11T07:29:02Z</time>
      </trkpt>
      <trkpt lat="44.97556" lon="6.45386">
        <ele>1854.6</ele>
        <time>2024-08-11T07:29:03Z</time>
      </trkpt>
      <trkpt lat="44.97557" lon="6.45387">
        <ele>1854.6</ele>
        <time>2024-08-11T07:29:04Z</time>
      </trkpt>
      <trkpt lat="44.97557" lon="6.45387">
        <ele>1854.6</ele>
        <time>2024-08-11T07:29:05Z</time>
      </trkpt>
      <trkpt lat="44.97557" lon="6.45387">
        <ele>1854.6</ele>
        <time>2024-08-11T07:29:06Z</time>
      </trkpt>
      <trkpt lat="44.97558" lon="6.45391">
        <ele>1854.6</ele>
        <time>2024-08-11T07:29:07Z</time>
      </trkpt>
      <trkpt lat="44.97558" lon="6.45391">
        <ele>1854.4</ele>
        <time>2024-08-11T07:29:08Z</time>
      </trkpt>
      <trkpt lat="44.97558" lon="6.45394">
        <ele>1854.4</ele>
        <time>2024-08-11T07:29:09Z</time>
      </trkpt>
      <trkpt lat="44.97558" lon="6.45394">
        <ele>1854.4</ele>
        <time>2024-08-11T07:29:10Z</time>
      </trkpt>
      <trkpt lat="44.97558" lon="6.45394">
        <ele>1854.4</ele>
        <time>2024-08-11T07:29:11Z</time>
      </trkpt>
      <trkpt lat="44.97559" lon="6.45396">
        <ele>1854.4</ele>
        <time>2024-08-11T07:29:12Z</time>
      </trkpt>
      <trkpt lat="44.97559" lon="6.45396">
        <ele>1854.2</ele>
        <time>2024-08-11T07:29:13Z</time>
      </trkpt>
      <trkpt lat="44.97559" lon="6.45396">
        <ele>1854</ele>
        <time>2024-08-11T07:29:14Z</time>
      </trkpt>
      <trkpt lat="44.9756" lon="6.454">
        <ele>1854</ele>
        <time>2024-08-11T07:29:15Z</time>
      </trkpt>
      <trkpt lat="44.9756" lon="6.454">
        <ele>1853.8</ele>
        <time>2024-08-11T07:29:16Z</time>
      </trkpt>
      <trkpt lat="44.9756" lon="6.454">
        <ele>1853.8</ele>
        <time>2024-08-11T07:29:17Z</time>
      </trkpt>
      <trkpt lat="44.97562" lon="6.45402">
        <ele>1853.6</ele>
        <time>2024-08-11T07:29:18Z</time>
      </trkpt>
      <trkpt lat="44.97562" lon="6.45402">
        <ele>1853.6</ele>
        <time>2024-08-11T07:29:19Z</time>
      </trkpt>
      <trkpt lat="44.97562" lon="6.45402">
        <ele>1853.4</ele>
        <time>2024-08-11T07:29:20Z</time>
      </trkpt>
      <trkpt lat="44.97564" lon="6.45404">
        <ele>1853</ele>
        <time>2024-08-11T07:29:21Z</time>
      </trkpt>
      <trkpt lat="44.97564" lon="6.45405">
        <ele>1852.8</ele>
        <time>2024-08-11T07:29:22Z</time>
      </trkpt>
      <trkpt lat="44.97564" lon="6.45405">
        <ele>1852.6</ele>
        <time>2024-08-11T07:29:23Z</time>
      </trkpt>
      <trkpt lat="44.97564" lon="6.45405">
        <ele>1852</ele>
        <time>2024-08-11T07:29:24Z</time>
      </trkpt>
      <trkpt lat="44.97564" lon="6.45408">
        <ele>1851.6</ele>
        <time>2024-08-11T07:29:25Z</time>
      </trkpt>
      <trkpt lat="44.97564" lon="6.45408">
        <ele>1851.2</ele>
        <time>2024-08-11T07:29:26Z</time>
      </trkpt>
      <trkpt lat="44.97564" lon="6.45408">
        <ele>1850.8</ele>
        <time>2024-08-11T07:29:27Z</time>
      </trkpt>
      <trkpt lat="44.97565" lon="6.45412">
        <ele>1850.6</ele>
        <time>2024-08-11T07:29:28Z</time>
      </trkpt>
      <trkpt lat="44.97565" lon="6.45412">
        <ele>1850.4</ele>
        <time>2024-08-11T07:29:29Z</time>
      </trkpt>
      <trkpt lat="44.97565" lon="6.45412">
        <ele>1850.4</ele>
        <time>2024-08-11T07:29:30Z</time>
      </trkpt>
      <trkpt lat="44.97567" lon="6.45414">
        <ele>1850</ele>
        <time>2024-08-11T07:29:31Z</time>
      </trkpt>
      <trkpt lat="44.97567" lon="6.45414">
        <ele>1849.6</ele>
        <time>2024-08-11T07:29:32Z</time>
      </trkpt>
      <trkpt lat="44.97567" lon="6.45414">
        <ele>1849.4</ele>
        <time>2024-08-11T07:29:33Z</time>
      </trkpt>
      <trkpt lat="44.97567" lon="6.45417">
        <ele>1848.8</ele>
        <time>2024-08-11T07:29:34Z</time>
      </trkpt>
      <trkpt lat="44.97567" lon="6.45417">
        <ele>1848.6</ele>
        <time>2024-08-11T07:29:35Z</time>
      </trkpt>
      <trkpt lat="44.97569" lon="6.45418">
        <ele>1848.4</ele>
        <time>2024-08-11T07:29:36Z</time>
      </trkpt>
      <trkpt lat="44.97569" lon="6.45418">
        <ele>1848.2</ele>
        <time>2024-08-11T07:29:37Z</time>
      </trkpt>
      <trkpt lat="44.97569" lon="6.45418">
        <ele>1847.8</ele>
        <time>2024-08-11T07:29:38Z</time>
      </trkpt>
      <trkpt lat="44.97571" lon="6.4542">
        <ele>1847.2</ele>
        <time>2024-08-11T07:29:39Z</time>
      </trkpt>
      <trkpt lat="44.97571" lon="6.4542">
        <ele>1847</ele>
        <time>2024-08-11T07:29:40Z</time>
      </trkpt>
      <trkpt lat="44.97571" lon="6.4542">
        <ele>1846.8</ele>
        <time>2024-08-11T07:29:41Z</time>
      </trkpt>
      <trkpt lat="44.97571" lon="6.4542">
        <ele>1846.4</ele>
        <time>2024-08-11T07:29:42Z</time>
      </trkpt>
      <trkpt lat="44.97573" lon="6.45422">
        <ele>1846.2</ele>
        <time>2024-08-11T07:29:43Z</time>
      </trkpt>
      <trkpt lat="44.97573" lon="6.45422">
        <ele>1845.8</ele>
        <time>2024-08-11T07:29:44Z</time>
      </trkpt>
      <trkpt lat="44.97573" lon="6.45422">
        <ele>1845.6</ele>
        <time>2024-08-11T07:29:45Z</time>
      </trkpt>
      <trkpt lat="44.97573" lon="6.45422">
        <ele>1845.6</ele>
        <time>2024-08-11T07:29:46Z</time>
      </trkpt>
      <trkpt lat="44.97573" lon="6.45422">
        <ele>1845.6</ele>
        <time>2024-08-11T07:29:47Z</time>
      </trkpt>
      <trkpt lat="44.97573" lon="6.45422">
        <ele>1845.6</ele>
        <time>2024-08-11T07:29:48Z</time>
      </trkpt>
      <trkpt lat="44.97573" lon="6.45422">
        <ele>1845.6</ele>
        <time>2024-08-11T07:29:49Z</time>
      </trkpt>
      <trkpt lat="44.97574" lon="6.45424">
        <ele>1845.4</ele>
        <time>2024-08-11T07:29:50Z</time>
      </trkpt>
      <trkpt lat="44.97574" lon="6.45424">
        <ele>1845.2</ele>
        <time>2024-08-11T07:29:51Z</time>
      </trkpt>
      <trkpt lat="44.97575" lon="6.45428">
        <ele>1844.8</ele>
        <time>2024-08-11T07:29:52Z</time>
      </trkpt>
      <trkpt lat="44.97575" lon="6.45428">
        <ele>1844.8</ele>
        <time>2024-08-11T07:29:53Z</time>
      </trkpt>
      <trkpt lat="44.97576" lon="6.45432">
        <ele>1844.8</ele>
        <time>2024-08-11T07:29:54Z</time>
      </trkpt>
      <trkpt lat="44.97576" lon="6.45432">
        <ele>1844.6</ele>
        <time>2024-08-11T07:29:55Z</time>
      </trkpt>
      <trkpt lat="44.97577" lon="6.45434">
        <ele>1844.2</ele>
        <time>2024-08-11T07:29:56Z</time>
      </trkpt>
      <trkpt lat="44.97577" lon="6.45434">
        <ele>1844</ele>
        <time>2024-08-11T07:29:57Z</time>
      </trkpt>
      <trkpt lat="44.97577" lon="6.45434">
        <ele>1844</ele>
        <time>2024-08-11T07:29:58Z</time>
      </trkpt>
      <trkpt lat="44.97579" lon="6.45437">
        <ele>1844</ele>
        <time>2024-08-11T07:29:59Z</time>
      </trkpt>
      <trkpt lat="44.97579" lon="6.45437">
        <ele>1843.6</ele>
        <time>2024-08-11T07:30:01Z</time>
      </trkpt>
      <trkpt lat="44.97579" lon="6.4544">
        <ele>1843.4</ele>
        <time>2024-08-11T07:30:02Z</time>
      </trkpt>
      <trkpt lat="44.97579" lon="6.4544">
        <ele>1843.2</ele>
        <time>2024-08-11T07:30:03Z</time>
      </trkpt>
      <trkpt lat="44.97579" lon="6.4544">
        <ele>1843.2</ele>
        <time>2024-08-11T07:30:04Z</time>
      </trkpt>
      <trkpt lat="44.9758" lon="6.45444">
        <ele>1843.2</ele>
        <time>2024-08-11T07:30:05Z</time>
      </trkpt>
      <trkpt lat="44.9758" lon="6.45444">
        <ele>1842.8</ele>
        <time>2024-08-11T07:30:06Z</time>
      </trkpt>
      <trkpt lat="44.97582" lon="6.45447">
        <ele>1842.6</ele>
        <time>2024-08-11T07:30:07Z</time>
      </trkpt>
      <trkpt lat="44.97582" lon="6.45447">
        <ele>1842.6</ele>
        <time>2024-08-11T07:30:08Z</time>
      </trkpt>
      <trkpt lat="44.97584" lon="6.4545">
        <ele>1842.4</ele>
        <time>2024-08-11T07:30:09Z</time>
      </trkpt>
      <trkpt lat="44.97584" lon="6.4545">
        <ele>1842.2</ele>
        <time>2024-08-11T07:30:10Z</time>
      </trkpt>
      <trkpt lat="44.97587" lon="6.45451">
        <ele>1842</ele>
        <time>2024-08-11T07:30:11Z</time>
      </trkpt>
      <trkpt lat="44.97587" lon="6.45451">
        <ele>1841.8</ele>
        <time>2024-08-11T07:30:12Z</time>
      </trkpt>
      <trkpt lat="44.97589" lon="6.45453">
        <ele>1841.6</ele>
        <time>2024-08-11T07:30:13Z</time>
      </trkpt>
      <trkpt lat="44.97589" lon="6.45453">
        <ele>1841.2</ele>
        <time>2024-08-11T07:30:14Z</time>
      </trkpt>
      <trkpt lat="44.97591" lon="6.45454">
        <ele>1841.2</ele>
        <time>2024-08-11T07:30:15Z</time>
      </trkpt>
      <trkpt lat="44.97593" lon="6.45455">
        <ele>1841</ele>
        <time>2024-08-11T07:30:16Z</time>
      </trkpt>
      <trkpt lat="44.97595" lon="6.45456">
        <ele>1840.8</ele>
        <time>2024-08-11T07:30:17Z</time>
      </trkpt>
      <trkpt lat="44.97595" lon="6.45456">
        <ele>1840.4</ele>
        <time>2024-08-11T07:30:18Z</time>
      </trkpt>
      <trkpt lat="44.97597" lon="6.45458">
        <ele>1840.4</ele>
        <time>2024-08-11T07:30:19Z</time>
      </trkpt>
      <trkpt lat="44.97597" lon="6.45458">
        <ele>1840</ele>
        <time>2024-08-11T07:30:20Z</time>
      </trkpt>
      <trkpt lat="44.97598" lon="6.4546">
        <ele>1840</ele>
        <time>2024-08-11T07:30:21Z</time>
      </trkpt>
      <trkpt lat="44.97598" lon="6.4546">
        <ele>1839.8</ele>
        <time>2024-08-11T07:30:22Z</time>
      </trkpt>
      <trkpt lat="44.97597" lon="6.45464">
        <ele>1839.6</ele>
        <time>2024-08-11T07:30:23Z</time>
      </trkpt>
      <trkpt lat="44.97597" lon="6.45464">
        <ele>1839.4</ele>
        <time>2024-08-11T07:30:24Z</time>
      </trkpt>
      <trkpt lat="44.97597" lon="6.45467">
        <ele>1839.2</ele>
        <time>2024-08-11T07:30:25Z</time>
      </trkpt>
      <trkpt lat="44.97597" lon="6.45467">
        <ele>1839</ele>
        <time>2024-08-11T07:30:26Z</time>
      </trkpt>
      <trkpt lat="44.97597" lon="6.4547">
        <ele>1838.8</ele>
        <time>2024-08-11T07:30:27Z</time>
      </trkpt>
      <trkpt lat="44.97597" lon="6.4547">
        <ele>1838.6</ele>
        <time>2024-08-11T07:30:28Z</time>
      </trkpt>
      <trkpt lat="44.97598" lon="6.45473">
        <ele>1838.6</ele>
        <time>2024-08-11T07:30:29Z</time>
      </trkpt>
      <trkpt lat="44.97598" lon="6.45473">
        <ele>1838.4</ele>
        <time>2024-08-11T07:30:30Z</time>
      </trkpt>
      <trkpt lat="44.97597" lon="6.45476">
        <ele>1838.2</ele>
        <time>2024-08-11T07:30:31Z</time>
      </trkpt>
      <trkpt lat="44.97597" lon="6.45476">
        <ele>1838.2</ele>
        <time>2024-08-11T07:30:32Z</time>
      </trkpt>
      <trkpt lat="44.97597" lon="6.45476">
        <ele>1838.2</ele>
        <time>2024-08-11T07:30:33Z</time>
      </trkpt>
      <trkpt lat="44.97597" lon="6.45478">
        <ele>1838</ele>
        <time>2024-08-11T07:30:34Z</time>
      </trkpt>
      <trkpt lat="44.97597" lon="6.45478">
        <ele>1837.8</ele>
        <time>2024-08-11T07:30:35Z</time>
      </trkpt>
      <trkpt lat="44.97597" lon="6.45481">
        <ele>1837.6</ele>
        <time>2024-08-11T07:30:36Z</time>
      </trkpt>
      <trkpt lat="44.97597" lon="6.45481">
        <ele>1837.2</ele>
        <time>2024-08-11T07:30:37Z</time>
      </trkpt>
      <trkpt lat="44.97599" lon="6.45483">
        <ele>1837</ele>
        <time>2024-08-11T07:30:38Z</time>
      </trkpt>
      <trkpt lat="44.97599" lon="6.45483">
        <ele>1836.6</ele>
        <time>2024-08-11T07:30:39Z</time>
      </trkpt>
      <trkpt lat="44.97599" lon="6.45483">
        <ele>1836.4</ele>
        <time>2024-08-11T07:30:40Z</time>
      </trkpt>
      <trkpt lat="44.97599" lon="6.45486">
        <ele>1836.2</ele>
        <time>2024-08-11T07:30:41Z</time>
      </trkpt>
      <trkpt lat="44.97599" lon="6.45486">
        <ele>1836</ele>
        <time>2024-08-11T07:30:42Z</time>
      </trkpt>
      <trkpt lat="44.97599" lon="6.45486">
        <ele>1836</ele>
        <time>2024-08-11T07:30:43Z</time>
      </trkpt>
      <trkpt lat="44.97601" lon="6.45489">
        <ele>1835.6</ele>
        <time>2024-08-11T07:30:44Z</time>
      </trkpt>
      <trkpt lat="44.97601" lon="6.45489">
        <ele>1835.4</ele>
        <time>2024-08-11T07:30:45Z</time>
      </trkpt>
      <trkpt lat="44.97601" lon="6.45489">
        <ele>1835.4</ele>
        <time>2024-08-11T07:30:46Z</time>
      </trkpt>
      <trkpt lat="44.97603" lon="6.45491">
        <ele>1835</ele>
        <time>2024-08-11T07:30:47Z</time>
      </trkpt>
      <trkpt lat="44.97603" lon="6.45491">
        <ele>1834.8</ele>
        <time>2024-08-11T07:30:48Z</time>
      </trkpt>
      <trkpt lat="44.97604" lon="6.45494">
        <ele>1834.4</ele>
        <time>2024-08-11T07:30:49Z</time>
      </trkpt>
      <trkpt lat="44.97604" lon="6.45494">
        <ele>1834.2</ele>
        <time>2024-08-11T07:30:50Z</time>
      </trkpt>
      <trkpt lat="44.97605" lon="6.45496">
        <ele>1834</ele>
        <time>2024-08-11T07:30:51Z</time>
      </trkpt>
      <trkpt lat="44.97605" lon="6.45496">
        <ele>1833.8</ele>
        <time>2024-08-11T07:30:52Z</time>
      </trkpt>
      <trkpt lat="44.97606" lon="6.45499">
        <ele>1833.4</ele>
        <time>2024-08-11T07:30:53Z</time>
      </trkpt>
      <trkpt lat="44.97606" lon="6.45499">
        <ele>1833.2</ele>
        <time>2024-08-11T07:30:54Z</time>
      </trkpt>
      <trkpt lat="44.97606" lon="6.45503">
        <ele>1833.2</ele>
        <time>2024-08-11T07:30:55Z</time>
      </trkpt>
      <trkpt lat="44.97606" lon="6.45503">
        <ele>1833</ele>
        <time>2024-08-11T07:30:56Z</time>
      </trkpt>
      <trkpt lat="44.97606" lon="6.45503">
        <ele>1832.8</ele>
        <time>2024-08-11T07:30:57Z</time>
      </trkpt>
      <trkpt lat="44.97605" lon="6.45507">
        <ele>1832.6</ele>
        <time>2024-08-11T07:30:58Z</time>
      </trkpt>
      <trkpt lat="44.97604" lon="6.45508">
        <ele>1832.4</ele>
        <time>2024-08-11T07:30:59Z</time>
      </trkpt>
      <trkpt lat="44.97604" lon="6.45508">
        <ele>1832.4</ele>
        <time>2024-08-11T07:31:00Z</time>
      </trkpt>
      <trkpt lat="44.97604" lon="6.45511">
        <ele>1832.2</ele>
        <time>2024-08-11T07:31:01Z</time>
      </trkpt>
      <trkpt lat="44.97604" lon="6.45511">
        <ele>1831.8</ele>
        <time>2024-08-11T07:31:02Z</time>
      </trkpt>
      <trkpt lat="44.97603" lon="6.45515">
        <ele>1831.8</ele>
        <time>2024-08-11T07:31:03Z</time>
      </trkpt>
      <trkpt lat="44.97603" lon="6.45515">
        <ele>1831.8</ele>
        <time>2024-08-11T07:31:04Z</time>
      </trkpt>
      <trkpt lat="44.97603" lon="6.45515">
        <ele>1831.4</ele>
        <time>2024-08-11T07:31:05Z</time>
      </trkpt>
      <trkpt lat="44.97601" lon="6.45518">
        <ele>1831.2</ele>
        <time>2024-08-11T07:31:06Z</time>
      </trkpt>
      <trkpt lat="44.97601" lon="6.45518">
        <ele>1831</ele>
        <time>2024-08-11T07:31:07Z</time>
      </trkpt>
      <trkpt lat="44.97601" lon="6.45521">
        <ele>1830.6</ele>
        <time>2024-08-11T07:31:08Z</time>
      </trkpt>
      <trkpt lat="44.97601" lon="6.45521">
        <ele>1830.4</ele>
        <time>2024-08-11T07:31:09Z</time>
      </trkpt>
      <trkpt lat="44.97601" lon="6.45521">
        <ele>1830.2</ele>
        <time>2024-08-11T07:31:10Z</time>
      </trkpt>
      <trkpt lat="44.976" lon="6.45524">
        <ele>1830.2</ele>
        <time>2024-08-11T07:31:11Z</time>
      </trkpt>
      <trkpt lat="44.976" lon="6.45524">
        <ele>1830</ele>
        <time>2024-08-11T07:31:12Z</time>
      </trkpt>
      <trkpt lat="44.97601" lon="6.45528">
        <ele>1829.8</ele>
        <time>2024-08-11T07:31:13Z</time>
      </trkpt>
      <trkpt lat="44.97601" lon="6.45528">
        <ele>1829.6</ele>
        <time>2024-08-11T07:31:14Z</time>
      </trkpt>
      <trkpt lat="44.97601" lon="6.45528">
        <ele>1829.4</ele>
        <time>2024-08-11T07:31:15Z</time>
      </trkpt>
      <trkpt lat="44.97603" lon="6.45531">
        <ele>1829.2</ele>
        <time>2024-08-11T07:31:16Z</time>
      </trkpt>
      <trkpt lat="44.97603" lon="6.45531">
        <ele>1828.8</ele>
        <time>2024-08-11T07:31:17Z</time>
      </trkpt>
      <trkpt lat="44.97604" lon="6.45533">
        <ele>1828.8</ele>
        <time>2024-08-11T07:31:18Z</time>
      </trkpt>
      <trkpt lat="44.97604" lon="6.45533">
        <ele>1828.8</ele>
        <time>2024-08-11T07:31:19Z</time>
      </trkpt>
      <trkpt lat="44.97605" lon="6.45535">
        <ele>1828.6</ele>
        <time>2024-08-11T07:31:20Z</time>
      </trkpt>
      <trkpt lat="44.97605" lon="6.45535">
        <ele>1828.2</ele>
        <time>2024-08-11T07:31:21Z</time>
      </trkpt>
      <trkpt lat="44.97605" lon="6.45535">
        <ele>1828.2</ele>
        <time>2024-08-11T07:31:22Z</time>
      </trkpt>
      <trkpt lat="44.97605" lon="6.45538">
        <ele>1828.2</ele>
        <time>2024-08-11T07:31:23Z</time>
      </trkpt>
      <trkpt lat="44.97605" lon="6.45538">
        <ele>1827.6</ele>
        <time>2024-08-11T07:31:24Z</time>
      </trkpt>
      <trkpt lat="44.97605" lon="6.45541">
        <ele>1827.8</ele>
        <time>2024-08-11T07:31:25Z</time>
      </trkpt>
      <trkpt lat="44.97605" lon="6.45541">
        <ele>1827.2</ele>
        <time>2024-08-11T07:31:26Z</time>
      </trkpt>
      <trkpt lat="44.97606" lon="6.45544">
        <ele>1827.2</ele>
        <time>2024-08-11T07:31:27Z</time>
      </trkpt>
      <trkpt lat="44.97606" lon="6.45544">
        <ele>1826.8</ele>
        <time>2024-08-11T07:31:28Z</time>
      </trkpt>
      <trkpt lat="44.97607" lon="6.45547">
        <ele>1826.8</ele>
        <time>2024-08-11T07:31:29Z</time>
      </trkpt>
      <trkpt lat="44.97607" lon="6.45547">
        <ele>1826.4</ele>
        <time>2024-08-11T07:31:30Z</time>
      </trkpt>
      <trkpt lat="44.97607" lon="6.45547">
        <ele>1826.4</ele>
        <time>2024-08-11T07:31:31Z</time>
      </trkpt>
      <trkpt lat="44.97609" lon="6.4555">
        <ele>1826.2</ele>
        <time>2024-08-11T07:31:32Z</time>
      </trkpt>
      <trkpt lat="44.97609" lon="6.4555">
        <ele>1825.8</ele>
        <time>2024-08-11T07:31:33Z</time>
      </trkpt>
      <trkpt lat="44.97611" lon="6.45551">
        <ele>1825.6</ele>
        <time>2024-08-11T07:31:34Z</time>
      </trkpt>
      <trkpt lat="44.97611" lon="6.45551">
        <ele>1825.6</ele>
        <time>2024-08-11T07:31:35Z</time>
      </trkpt>
      <trkpt lat="44.97611" lon="6.45551">
        <ele>1825.2</ele>
        <time>2024-08-11T07:31:36Z</time>
      </trkpt>
      <trkpt lat="44.97611" lon="6.45551">
        <ele>1825</ele>
        <time>2024-08-11T07:31:37Z</time>
      </trkpt>
      <trkpt lat="44.97613" lon="6.45553">
        <ele>1824.8</ele>
        <time>2024-08-11T07:31:38Z</time>
      </trkpt>
      <trkpt lat="44.97613" lon="6.45553">
        <ele>1824.8</ele>
        <time>2024-08-11T07:31:39Z</time>
      </trkpt>
      <trkpt lat="44.97613" lon="6.45553">
        <ele>1824.6</ele>
        <time>2024-08-11T07:31:40Z</time>
      </trkpt>
      <trkpt lat="44.97613" lon="6.45556">
        <ele>1824.4</ele>
        <time>2024-08-11T07:31:41Z</time>
      </trkpt>
      <trkpt lat="44.97613" lon="6.45556">
        <ele>1824</ele>
        <time>2024-08-11T07:31:42Z</time>
      </trkpt>
      <trkpt lat="44.97613" lon="6.45556">
        <ele>1823.8</ele>
        <time>2024-08-11T07:31:43Z</time>
      </trkpt>
      <trkpt lat="44.97613" lon="6.45556">
        <ele>1823.8</ele>
        <time>2024-08-11T07:31:44Z</time>
      </trkpt>
      <trkpt lat="44.97613" lon="6.45556">
        <ele>1823.4</ele>
        <time>2024-08-11T07:31:45Z</time>
      </trkpt>
      <trkpt lat="44.97613" lon="6.45559">
        <ele>1823.2</ele>
        <time>2024-08-11T07:31:46Z</time>
      </trkpt>
      <trkpt lat="44.97613" lon="6.45559">
        <ele>1823</ele>
        <time>2024-08-11T07:31:47Z</time>
      </trkpt>
      <trkpt lat="44.97614" lon="6.45561">
        <ele>1822.6</ele>
        <time>2024-08-11T07:31:48Z</time>
      </trkpt>
      <trkpt lat="44.97614" lon="6.45561">
        <ele>1822.4</ele>
        <time>2024-08-11T07:31:49Z</time>
      </trkpt>
      <trkpt lat="44.97616" lon="6.45563">
        <ele>1822.4</ele>
        <time>2024-08-11T07:31:50Z</time>
      </trkpt>
      <trkpt lat="44.97616" lon="6.45563">
        <ele>1822.2</ele>
        <time>2024-08-11T07:31:51Z</time>
      </trkpt>
      <trkpt lat="44.97616" lon="6.45566">
        <ele>1821.8</ele>
        <time>2024-08-11T07:31:52Z</time>
      </trkpt>
      <trkpt lat="44.97616" lon="6.45566">
        <ele>1821.4</ele>
        <time>2024-08-11T07:31:53Z</time>
      </trkpt>
      <trkpt lat="44.97619" lon="6.45566">
        <ele>1821</ele>
        <time>2024-08-11T07:31:54Z</time>
      </trkpt>
      <trkpt lat="44.97619" lon="6.45566">
        <ele>1821</ele>
        <time>2024-08-11T07:31:55Z</time>
      </trkpt>
      <trkpt lat="44.97619" lon="6.45566">
        <ele>1821</ele>
        <time>2024-08-11T07:31:56Z</time>
      </trkpt>
      <trkpt lat="44.97621" lon="6.45567">
        <ele>1820.8</ele>
        <time>2024-08-11T07:31:57Z</time>
      </trkpt>
      <trkpt lat="44.97621" lon="6.45567">
        <ele>1820.4</ele>
        <time>2024-08-11T07:31:58Z</time>
      </trkpt>
      <trkpt lat="44.97621" lon="6.45567">
        <ele>1820.4</ele>
        <time>2024-08-11T07:31:59Z</time>
      </trkpt>
      <trkpt lat="44.97622" lon="6.45568">
        <ele>1820.2</ele>
        <time>2024-08-11T07:32:00Z</time>
      </trkpt>
      <trkpt lat="44.97622" lon="6.45568">
        <ele>1819.8</ele>
        <time>2024-08-11T07:32:01Z</time>
      </trkpt>
      <trkpt lat="44.97622" lon="6.45568">
        <ele>1819.4</ele>
        <time>2024-08-11T07:32:02Z</time>
      </trkpt>
      <trkpt lat="44.97624" lon="6.45572">
        <ele>1819.4</ele>
        <time>2024-08-11T07:32:03Z</time>
      </trkpt>
      <trkpt lat="44.97624" lon="6.45572">
        <ele>1819.2</ele>
        <time>2024-08-11T07:32:04Z</time>
      </trkpt>
      <trkpt lat="44.97627" lon="6.45576">
        <ele>1819</ele>
        <time>2024-08-11T07:32:05Z</time>
      </trkpt>
      <trkpt lat="44.97627" lon="6.45576">
        <ele>1819</ele>
        <time>2024-08-11T07:32:06Z</time>
      </trkpt>
      <trkpt lat="44.97629" lon="6.45577">
        <ele>1818.8</ele>
        <time>2024-08-11T07:32:07Z</time>
      </trkpt>
      <trkpt lat="44.97629" lon="6.45577">
        <ele>1818.6</ele>
        <time>2024-08-11T07:32:08Z</time>
      </trkpt>
      <trkpt lat="44.97629" lon="6.45577">
        <ele>1818.4</ele>
        <time>2024-08-11T07:32:09Z</time>
      </trkpt>
      <trkpt lat="44.97631" lon="6.45578">
        <ele>1818.2</ele>
        <time>2024-08-11T07:32:10Z</time>
      </trkpt>
      <trkpt lat="44.97631" lon="6.45578">
        <ele>1818</ele>
        <time>2024-08-11T07:32:11Z</time>
      </trkpt>
      <trkpt lat="44.97633" lon="6.4558">
        <ele>1817.8</ele>
        <time>2024-08-11T07:32:12Z</time>
      </trkpt>
      <trkpt lat="44.97633" lon="6.4558">
        <ele>1817.6</ele>
        <time>2024-08-11T07:32:13Z</time>
      </trkpt>
      <trkpt lat="44.97634" lon="6.45582">
        <ele>1817.4</ele>
        <time>2024-08-11T07:32:14Z</time>
      </trkpt>
      <trkpt lat="44.97634" lon="6.45582">
        <ele>1817.2</ele>
        <time>2024-08-11T07:32:15Z</time>
      </trkpt>
      <trkpt lat="44.97634" lon="6.45582">
        <ele>1817</ele>
        <time>2024-08-11T07:32:16Z</time>
      </trkpt>
      <trkpt lat="44.97636" lon="6.45586">
        <ele>1816.6</ele>
        <time>2024-08-11T07:32:17Z</time>
      </trkpt>
      <trkpt lat="44.97637" lon="6.45587">
        <ele>1816.2</ele>
        <time>2024-08-11T07:32:18Z</time>
      </trkpt>
      <trkpt lat="44.97637" lon="6.45587">
        <ele>1816.2</ele>
        <time>2024-08-11T07:32:19Z</time>
      </trkpt>
      <trkpt lat="44.97637" lon="6.4559">
        <ele>1816</ele>
        <time>2024-08-11T07:32:20Z</time>
      </trkpt>
      <trkpt lat="44.97637" lon="6.4559">
        <ele>1815.8</ele>
        <time>2024-08-11T07:32:21Z</time>
      </trkpt>
      <trkpt lat="44.97637" lon="6.4559">
        <ele>1815.8</ele>
        <time>2024-08-11T07:32:22Z</time>
      </trkpt>
      <trkpt lat="44.97637" lon="6.4559">
        <ele>1815.6</ele>
        <time>2024-08-11T07:32:23Z</time>
      </trkpt>
      <trkpt lat="44.97636" lon="6.45592">
        <ele>1815.4</ele>
        <time>2024-08-11T07:32:24Z</time>
      </trkpt>
      <trkpt lat="44.97636" lon="6.45592">
        <ele>1815.4</ele>
        <time>2024-08-11T07:32:25Z</time>
      </trkpt>
      <trkpt lat="44.97636" lon="6.45592">
        <ele>1815.4</ele>
        <time>2024-08-11T07:32:26Z</time>
      </trkpt>
      <trkpt lat="44.97637" lon="6.45595">
        <ele>1815.4</ele>
        <time>2024-08-11T07:32:27Z</time>
      </trkpt>
      <trkpt lat="44.97637" lon="6.45595">
        <ele>1815.4</ele>
        <time>2024-08-11T07:32:28Z</time>
      </trkpt>
      <trkpt lat="44.97637" lon="6.45595">
        <ele>1815</ele>
        <time>2024-08-11T07:32:29Z</time>
      </trkpt>
      <trkpt lat="44.97637" lon="6.45599">
        <ele>1814.8</ele>
        <time>2024-08-11T07:32:30Z</time>
      </trkpt>
      <trkpt lat="44.97637" lon="6.45599">
        <ele>1814.8</ele>
        <time>2024-08-11T07:32:31Z</time>
      </trkpt>
      <trkpt lat="44.97637" lon="6.45599">
        <ele>1814.6</ele>
        <time>2024-08-11T07:32:32Z</time>
      </trkpt>
      <trkpt lat="44.97636" lon="6.45604">
        <ele>1814.6</ele>
        <time>2024-08-11T07:32:33Z</time>
      </trkpt>
      <trkpt lat="44.97636" lon="6.45605">
        <ele>1814.4</ele>
        <time>2024-08-11T07:32:34Z</time>
      </trkpt>
      <trkpt lat="44.97636" lon="6.45605">
        <ele>1814.4</ele>
        <time>2024-08-11T07:32:35Z</time>
      </trkpt>
      <trkpt lat="44.97636" lon="6.45608">
        <ele>1814.2</ele>
        <time>2024-08-11T07:32:36Z</time>
      </trkpt>
      <trkpt lat="44.97636" lon="6.45608">
        <ele>1813.8</ele>
        <time>2024-08-11T07:32:37Z</time>
      </trkpt>
      <trkpt lat="44.97637" lon="6.45611">
        <ele>1813.8</ele>
        <time>2024-08-11T07:32:38Z</time>
      </trkpt>
      <trkpt lat="44.97637" lon="6.45611">
        <ele>1813.4</ele>
        <time>2024-08-11T07:32:39Z</time>
      </trkpt>
      <trkpt lat="44.97637" lon="6.45611">
        <ele>1813.4</ele>
        <time>2024-08-11T07:32:40Z</time>
      </trkpt>
      <trkpt lat="44.97637" lon="6.45614">
        <ele>1813.2</ele>
        <time>2024-08-11T07:32:41Z</time>
      </trkpt>
      <trkpt lat="44.97637" lon="6.45614">
        <ele>1813.2</ele>
        <time>2024-08-11T07:32:42Z</time>
      </trkpt>
      <trkpt lat="44.97637" lon="6.45614">
        <ele>1813</ele>
        <time>2024-08-11T07:32:43Z</time>
      </trkpt>
      <trkpt lat="44.97637" lon="6.45617">
        <ele>1812.8</ele>
        <time>2024-08-11T07:32:44Z</time>
      </trkpt>
      <trkpt lat="44.97637" lon="6.45617">
        <ele>1812.4</ele>
        <time>2024-08-11T07:32:45Z</time>
      </trkpt>
      <trkpt lat="44.97637" lon="6.4562">
        <ele>1812.4</ele>
        <time>2024-08-11T07:32:46Z</time>
      </trkpt>
      <trkpt lat="44.97637" lon="6.4562">
        <ele>1812.2</ele>
        <time>2024-08-11T07:32:47Z</time>
      </trkpt>
      <trkpt lat="44.97638" lon="6.45622">
        <ele>1812</ele>
        <time>2024-08-11T07:32:48Z</time>
      </trkpt>
      <trkpt lat="44.97638" lon="6.45622">
        <ele>1812</ele>
        <time>2024-08-11T07:32:49Z</time>
      </trkpt>
      <trkpt lat="44.97638" lon="6.45625">
        <ele>1811.8</ele>
        <time>2024-08-11T07:32:50Z</time>
      </trkpt>
      <trkpt lat="44.97638" lon="6.45625">
        <ele>1811.6</ele>
        <time>2024-08-11T07:32:51Z</time>
      </trkpt>
      <trkpt lat="44.9764" lon="6.45628">
        <ele>1811.4</ele>
        <time>2024-08-11T07:32:52Z</time>
      </trkpt>
      <trkpt lat="44.9764" lon="6.45628">
        <ele>1811.4</ele>
        <time>2024-08-11T07:32:53Z</time>
      </trkpt>
      <trkpt lat="44.9764" lon="6.45628">
        <ele>1811.2</ele>
        <time>2024-08-11T07:32:54Z</time>
      </trkpt>
      <trkpt lat="44.9764" lon="6.45628">
        <ele>1811</ele>
        <time>2024-08-11T07:32:55Z</time>
      </trkpt>
      <trkpt lat="44.9764" lon="6.45628">
        <ele>1811</ele>
        <time>2024-08-11T07:32:56Z</time>
      </trkpt>
      <trkpt lat="44.9764" lon="6.45628">
        <ele>1810.6</ele>
        <time>2024-08-11T07:32:57Z</time>
      </trkpt>
      <trkpt lat="44.97642" lon="6.45631">
        <ele>1810.4</ele>
        <time>2024-08-11T07:32:58Z</time>
      </trkpt>
      <trkpt lat="44.97643" lon="6.45632">
        <ele>1810.4</ele>
        <time>2024-08-11T07:32:59Z</time>
      </trkpt>
      <trkpt lat="44.97643" lon="6.45632">
        <ele>1810</ele>
        <time>2024-08-11T07:33:00Z</time>
      </trkpt>
      <trkpt lat="44.97645" lon="6.45635">
        <ele>1809.8</ele>
        <time>2024-08-11T07:33:01Z</time>
      </trkpt>
      <trkpt lat="44.97645" lon="6.45635">
        <ele>1809.6</ele>
        <time>2024-08-11T07:33:02Z</time>
      </trkpt>
      <trkpt lat="44.97645" lon="6.45635">
        <ele>1809.6</ele>
        <time>2024-08-11T07:33:03Z</time>
      </trkpt>
      <trkpt lat="44.97645" lon="6.45637">
        <ele>1809.4</ele>
        <time>2024-08-11T07:33:04Z</time>
      </trkpt>
      <trkpt lat="44.97645" lon="6.45637">
        <ele>1809.2</ele>
        <time>2024-08-11T07:33:05Z</time>
      </trkpt>
      <trkpt lat="44.97647" lon="6.45638">
        <ele>1808.8</ele>
        <time>2024-08-11T07:33:06Z</time>
      </trkpt>
      <trkpt lat="44.97647" lon="6.45638">
        <ele>1808.6</ele>
        <time>2024-08-11T07:33:07Z</time>
      </trkpt>
      <trkpt lat="44.97647" lon="6.45638">
        <ele>1808.6</ele>
        <time>2024-08-11T07:33:08Z</time>
      </trkpt>
      <trkpt lat="44.9765" lon="6.4564">
        <ele>1808</ele>
        <time>2024-08-11T07:33:09Z</time>
      </trkpt>
      <trkpt lat="44.9765" lon="6.4564">
        <ele>1807.8</ele>
        <time>2024-08-11T07:33:10Z</time>
      </trkpt>
      <trkpt lat="44.9765" lon="6.45642">
        <ele>1807.6</ele>
        <time>2024-08-11T07:33:11Z</time>
      </trkpt>
      <trkpt lat="44.9765" lon="6.45642">
        <ele>1807.2</ele>
        <time>2024-08-11T07:33:12Z</time>
      </trkpt>
      <trkpt lat="44.9765" lon="6.45642">
        <ele>1807.2</ele>
        <time>2024-08-11T07:33:13Z</time>
      </trkpt>
      <trkpt lat="44.97651" lon="6.45646">
        <ele>1807</ele>
        <time>2024-08-11T07:33:14Z</time>
      </trkpt>
      <trkpt lat="44.97651" lon="6.45646">
        <ele>1806.8</ele>
        <time>2024-08-11T07:33:15Z</time>
      </trkpt>
      <trkpt lat="44.97651" lon="6.45646">
        <ele>1806.4</ele>
        <time>2024-08-11T07:33:16Z</time>
      </trkpt>
      <trkpt lat="44.97652" lon="6.45649">
        <ele>1806.4</ele>
        <time>2024-08-11T07:33:17Z</time>
      </trkpt>
      <trkpt lat="44.97652" lon="6.45649">
        <ele>1806.2</ele>
        <time>2024-08-11T07:33:18Z</time>
      </trkpt>
      <trkpt lat="44.97653" lon="6.45651">
        <ele>1805.6</ele>
        <time>2024-08-11T07:33:19Z</time>
      </trkpt>
      <trkpt lat="44.97653" lon="6.45651">
        <ele>1805</ele>
        <time>2024-08-11T07:33:20Z</time>
      </trkpt>
      <trkpt lat="44.97653" lon="6.45651">
        <ele>1805</ele>
        <time>2024-08-11T07:33:21Z</time>
      </trkpt>
      <trkpt lat="44.97653" lon="6.45651">
        <ele>1804.8</ele>
        <time>2024-08-11T07:33:22Z</time>
      </trkpt>
      <trkpt lat="44.97654" lon="6.45652">
        <ele>1804.8</ele>
        <time>2024-08-11T07:33:23Z</time>
      </trkpt>
      <trkpt lat="44.97654" lon="6.45652">
        <ele>1804.8</ele>
        <time>2024-08-11T07:33:24Z</time>
      </trkpt>
      <trkpt lat="44.97655" lon="6.45654">
        <ele>1804.6</ele>
        <time>2024-08-11T07:33:25Z</time>
      </trkpt>
      <trkpt lat="44.97655" lon="6.45654">
        <ele>1804.4</ele>
        <time>2024-08-11T07:33:26Z</time>
      </trkpt>
      <trkpt lat="44.97657" lon="6.45658">
        <ele>1804</ele>
        <time>2024-08-11T07:33:27Z</time>
      </trkpt>
      <trkpt lat="44.97659" lon="6.45661">
        <ele>1803.8</ele>
        <time>2024-08-11T07:33:28Z</time>
      </trkpt>
      <trkpt lat="44.97659" lon="6.45661">
        <ele>1803.6</ele>
        <time>2024-08-11T07:33:29Z</time>
      </trkpt>
      <trkpt lat="44.9766" lon="6.45665">
        <ele>1803.4</ele>
        <time>2024-08-11T07:33:30Z</time>
      </trkpt>
      <trkpt lat="44.9766" lon="6.45665">
        <ele>1803.4</ele>
        <time>2024-08-11T07:33:31Z</time>
      </trkpt>
      <trkpt lat="44.9766" lon="6.45665">
        <ele>1803.4</ele>
        <time>2024-08-11T07:33:32Z</time>
      </trkpt>
      <trkpt lat="44.97661" lon="6.45669">
        <ele>1803.2</ele>
        <time>2024-08-11T07:33:33Z</time>
      </trkpt>
      <trkpt lat="44.97661" lon="6.4567">
        <ele>1803</ele>
        <time>2024-08-11T07:33:34Z</time>
      </trkpt>
      <trkpt lat="44.97661" lon="6.4567">
        <ele>1802.6</ele>
        <time>2024-08-11T07:33:35Z</time>
      </trkpt>
      <trkpt lat="44.97661" lon="6.4567">
        <ele>1802.2</ele>
        <time>2024-08-11T07:33:36Z</time>
      </trkpt>
      <trkpt lat="44.97661" lon="6.45673">
        <ele>1802</ele>
        <time>2024-08-11T07:33:37Z</time>
      </trkpt>
      <trkpt lat="44.97661" lon="6.45673">
        <ele>1801.8</ele>
        <time>2024-08-11T07:33:38Z</time>
      </trkpt>
      <trkpt lat="44.97663" lon="6.45675">
        <ele>1801.8</ele>
        <time>2024-08-11T07:33:39Z</time>
      </trkpt>
      <trkpt lat="44.97663" lon="6.45675">
        <ele>1801.8</ele>
        <time>2024-08-11T07:33:40Z</time>
      </trkpt>
      <trkpt lat="44.97663" lon="6.45675">
        <ele>1801.6</ele>
        <time>2024-08-11T07:33:41Z</time>
      </trkpt>
      <trkpt lat="44.97665" lon="6.4568">
        <ele>1801.4</ele>
        <time>2024-08-11T07:33:42Z</time>
      </trkpt>
      <trkpt lat="44.97665" lon="6.4568">
        <ele>1801.2</ele>
        <time>2024-08-11T07:33:43Z</time>
      </trkpt>
      <trkpt lat="44.97665" lon="6.4568">
        <ele>1801</ele>
        <time>2024-08-11T07:33:44Z</time>
      </trkpt>
      <trkpt lat="44.97666" lon="6.45684">
        <ele>1801</ele>
        <time>2024-08-11T07:33:45Z</time>
      </trkpt>
      <trkpt lat="44.97666" lon="6.45684">
        <ele>1800.6</ele>
        <time>2024-08-11T07:33:46Z</time>
      </trkpt>
      <trkpt lat="44.97668" lon="6.45685">
        <ele>1800.2</ele>
        <time>2024-08-11T07:33:47Z</time>
      </trkpt>
      <trkpt lat="44.97668" lon="6.45685">
        <ele>1800</ele>
        <time>2024-08-11T07:33:48Z</time>
      </trkpt>
      <trkpt lat="44.97667" lon="6.45687">
        <ele>1799.6</ele>
        <time>2024-08-11T07:33:49Z</time>
      </trkpt>
      <trkpt lat="44.97667" lon="6.45687">
        <ele>1799.4</ele>
        <time>2024-08-11T07:33:50Z</time>
      </trkpt>
      <trkpt lat="44.97667" lon="6.45687">
        <ele>1799</ele>
        <time>2024-08-11T07:33:51Z</time>
      </trkpt>
      <trkpt lat="44.97667" lon="6.45691">
        <ele>1798.8</ele>
        <time>2024-08-11T07:33:52Z</time>
      </trkpt>
      <trkpt lat="44.97667" lon="6.45691">
        <ele>1798.8</ele>
        <time>2024-08-11T07:33:53Z</time>
      </trkpt>
      <trkpt lat="44.97665" lon="6.45695">
        <ele>1798.8</ele>
        <time>2024-08-11T07:33:54Z</time>
      </trkpt>
      <trkpt lat="44.97665" lon="6.45695">
        <ele>1798.8</ele>
        <time>2024-08-11T07:33:55Z</time>
      </trkpt>
      <trkpt lat="44.97665" lon="6.45695">
        <ele>1798.6</ele>
        <time>2024-08-11T07:33:56Z</time>
      </trkpt>
      <trkpt lat="44.97666" lon="6.45699">
        <ele>1798.4</ele>
        <time>2024-08-11T07:33:57Z</time>
      </trkpt>
      <trkpt lat="44.97666" lon="6.45699">
        <ele>1798.4</ele>
        <time>2024-08-11T07:33:58Z</time>
      </trkpt>
      <trkpt lat="44.97666" lon="6.45701">
        <ele>1798.4</ele>
        <time>2024-08-11T07:33:59Z</time>
      </trkpt>
      <trkpt lat="44.97666" lon="6.45701">
        <ele>1798.2</ele>
        <time>2024-08-11T07:34:00Z</time>
      </trkpt>
      <trkpt lat="44.97666" lon="6.45701">
        <ele>1798.2</ele>
        <time>2024-08-11T07:34:01Z</time>
      </trkpt>
      <trkpt lat="44.97666" lon="6.45701">
        <ele>1798</ele>
        <time>2024-08-11T07:34:02Z</time>
      </trkpt>
      <trkpt lat="44.97666" lon="6.45707">
        <ele>1798</ele>
        <time>2024-08-11T07:34:03Z</time>
      </trkpt>
      <trkpt lat="44.97665" lon="6.45708">
        <ele>1798</ele>
        <time>2024-08-11T07:34:04Z</time>
      </trkpt>
      <trkpt lat="44.97665" lon="6.45708">
        <ele>1797.8</ele>
        <time>2024-08-11T07:34:05Z</time>
      </trkpt>
      <trkpt lat="44.97665" lon="6.45708">
        <ele>1797.6</ele>
        <time>2024-08-11T07:34:06Z</time>
      </trkpt>
      <trkpt lat="44.97666" lon="6.45711">
        <ele>1797.6</ele>
        <time>2024-08-11T07:34:07Z</time>
      </trkpt>
      <trkpt lat="44.97666" lon="6.45711">
        <ele>1797.4</ele>
        <time>2024-08-11T07:34:08Z</time>
      </trkpt>
      <trkpt lat="44.97666" lon="6.45711">
        <ele>1797.4</ele>
        <time>2024-08-11T07:34:09Z</time>
      </trkpt>
      <trkpt lat="44.97669" lon="6.45713">
        <ele>1797.2</ele>
        <time>2024-08-11T07:34:10Z</time>
      </trkpt>
      <trkpt lat="44.97669" lon="6.45713">
        <ele>1797</ele>
        <time>2024-08-11T07:34:11Z</time>
      </trkpt>
      <trkpt lat="44.97668" lon="6.45716">
        <ele>1796.6</ele>
        <time>2024-08-11T07:34:12Z</time>
      </trkpt>
      <trkpt lat="44.97667" lon="6.45718">
        <ele>1796.4</ele>
        <time>2024-08-11T07:34:13Z</time>
      </trkpt>
      <trkpt lat="44.97668" lon="6.45719">
        <ele>1796.4</ele>
        <time>2024-08-11T07:34:14Z</time>
      </trkpt>
      <trkpt lat="44.97668" lon="6.4572">
        <ele>1796</ele>
        <time>2024-08-11T07:34:15Z</time>
      </trkpt>
      <trkpt lat="44.97668" lon="6.4572">
        <ele>1796</ele>
        <time>2024-08-11T07:34:16Z</time>
      </trkpt>
      <trkpt lat="44.97668" lon="6.45723">
        <ele>1795.6</ele>
        <time>2024-08-11T07:34:17Z</time>
      </trkpt>
      <trkpt lat="44.97668" lon="6.45723">
        <ele>1795.4</ele>
        <time>2024-08-11T07:34:18Z</time>
      </trkpt>
      <trkpt lat="44.97668" lon="6.45723">
        <ele>1795.2</ele>
        <time>2024-08-11T07:34:19Z</time>
      </trkpt>
      <trkpt lat="44.97668" lon="6.45723">
        <ele>1795.2</ele>
        <time>2024-08-11T07:34:20Z</time>
      </trkpt>
      <trkpt lat="44.9767" lon="6.45728">
        <ele>1794.8</ele>
        <time>2024-08-11T07:34:21Z</time>
      </trkpt>
      <trkpt lat="44.97671" lon="6.45729">
        <ele>1794.6</ele>
        <time>2024-08-11T07:34:22Z</time>
      </trkpt>
      <trkpt lat="44.97671" lon="6.45729">
        <ele>1794.6</ele>
        <time>2024-08-11T07:34:23Z</time>
      </trkpt>
      <trkpt lat="44.97671" lon="6.45732">
        <ele>1794.2</ele>
        <time>2024-08-11T07:34:24Z</time>
      </trkpt>
      <trkpt lat="44.97671" lon="6.45732">
        <ele>1793.8</ele>
        <time>2024-08-11T07:34:25Z</time>
      </trkpt>
      <trkpt lat="44.97671" lon="6.45732">
        <ele>1793.6</ele>
        <time>2024-08-11T07:34:26Z</time>
      </trkpt>
      <trkpt lat="44.97672" lon="6.45736">
        <ele>1793.2</ele>
        <time>2024-08-11T07:34:27Z</time>
      </trkpt>
      <trkpt lat="44.97672" lon="6.45738">
        <ele>1793</ele>
        <time>2024-08-11T07:34:28Z</time>
      </trkpt>
      <trkpt lat="44.97672" lon="6.45738">
        <ele>1792.6</ele>
        <time>2024-08-11T07:34:29Z</time>
      </trkpt>
      <trkpt lat="44.97671" lon="6.45741">
        <ele>1792.6</ele>
        <time>2024-08-11T07:34:30Z</time>
      </trkpt>
      <trkpt lat="44.97671" lon="6.45741">
        <ele>1792.6</ele>
        <time>2024-08-11T07:34:31Z</time>
      </trkpt>
      <trkpt lat="44.97671" lon="6.45741">
        <ele>1792.6</ele>
        <time>2024-08-11T07:34:32Z</time>
      </trkpt>
      <trkpt lat="44.97671" lon="6.45745">
        <ele>1792.4</ele>
        <time>2024-08-11T07:34:33Z</time>
      </trkpt>
      <trkpt lat="44.97671" lon="6.45747">
        <ele>1791.8</ele>
        <time>2024-08-11T07:34:34Z</time>
      </trkpt>
      <trkpt lat="44.97671" lon="6.45747">
        <ele>1791.6</ele>
        <time>2024-08-11T07:34:35Z</time>
      </trkpt>
      <trkpt lat="44.97672" lon="6.45749">
        <ele>1791.4</ele>
        <time>2024-08-11T07:34:36Z</time>
      </trkpt>
      <trkpt lat="44.97672" lon="6.45749">
        <ele>1791.2</ele>
        <time>2024-08-11T07:34:37Z</time>
      </trkpt>
      <trkpt lat="44.97672" lon="6.45752">
        <ele>1790.8</ele>
        <time>2024-08-11T07:34:38Z</time>
      </trkpt>
      <trkpt lat="44.97672" lon="6.45752">
        <ele>1790.4</ele>
        <time>2024-08-11T07:34:39Z</time>
      </trkpt>
      <trkpt lat="44.97673" lon="6.45755">
        <ele>1790.2</ele>
        <time>2024-08-11T07:34:40Z</time>
      </trkpt>
      <trkpt lat="44.97673" lon="6.45755">
        <ele>1790</ele>
        <time>2024-08-11T07:34:41Z</time>
      </trkpt>
      <trkpt lat="44.97674" lon="6.45757">
        <ele>1789.6</ele>
        <time>2024-08-11T07:34:42Z</time>
      </trkpt>
      <trkpt lat="44.97674" lon="6.45757">
        <ele>1789.4</ele>
        <time>2024-08-11T07:34:43Z</time>
      </trkpt>
      <trkpt lat="44.97675" lon="6.4576">
        <ele>1788.8</ele>
        <time>2024-08-11T07:34:44Z</time>
      </trkpt>
      <trkpt lat="44.97675" lon="6.4576">
        <ele>1788.6</ele>
        <time>2024-08-11T07:34:45Z</time>
      </trkpt>
      <trkpt lat="44.97675" lon="6.4576">
        <ele>1788.4</ele>
        <time>2024-08-11T07:34:46Z</time>
      </trkpt>
      <trkpt lat="44.97675" lon="6.4576">
        <ele>1788</ele>
        <time>2024-08-11T07:34:47Z</time>
      </trkpt>
      <trkpt lat="44.97676" lon="6.45765">
        <ele>1787.4</ele>
        <time>2024-08-11T07:34:48Z</time>
      </trkpt>
      <trkpt lat="44.97677" lon="6.45766">
        <ele>1787.2</ele>
        <time>2024-08-11T07:34:49Z</time>
      </trkpt>
      <trkpt lat="44.97677" lon="6.45766">
        <ele>1787</ele>
        <time>2024-08-11T07:34:50Z</time>
      </trkpt>
      <trkpt lat="44.97676" lon="6.4577">
        <ele>1786.6</ele>
        <time>2024-08-11T07:34:51Z</time>
      </trkpt>
      <trkpt lat="44.97676" lon="6.4577">
        <ele>1786.2</ele>
        <time>2024-08-11T07:34:52Z</time>
      </trkpt>
      <trkpt lat="44.97676" lon="6.45773">
        <ele>1786</ele>
        <time>2024-08-11T07:34:53Z</time>
      </trkpt>
      <trkpt lat="44.97676" lon="6.45773">
        <ele>1785.8</ele>
        <time>2024-08-11T07:34:54Z</time>
      </trkpt>
      <trkpt lat="44.97675" lon="6.45775">
        <ele>1785.8</ele>
        <time>2024-08-11T07:34:55Z</time>
      </trkpt>
      <trkpt lat="44.97675" lon="6.45775">
        <ele>1785.6</ele>
        <time>2024-08-11T07:34:56Z</time>
      </trkpt>
      <trkpt lat="44.97674" lon="6.45779">
        <ele>1785.6</ele>
        <time>2024-08-11T07:34:57Z</time>
      </trkpt>
      <trkpt lat="44.97674" lon="6.45779">
        <ele>1785.6</ele>
        <time>2024-08-11T07:34:58Z</time>
      </trkpt>
      <trkpt lat="44.97673" lon="6.45782">
        <ele>1785.6</ele>
        <time>2024-08-11T07:34:59Z</time>
      </trkpt>
      <trkpt lat="44.97673" lon="6.45782">
        <ele>1785.6</ele>
        <time>2024-08-11T07:35:00Z</time>
      </trkpt>
      <trkpt lat="44.97673" lon="6.45784">
        <ele>1785.6</ele>
        <time>2024-08-11T07:35:01Z</time>
      </trkpt>
      <trkpt lat="44.97673" lon="6.45784">
        <ele>1785.6</ele>
        <time>2024-08-11T07:35:02Z</time>
      </trkpt>
      <trkpt lat="44.97673" lon="6.45787">
        <ele>1785.4</ele>
        <time>2024-08-11T07:35:03Z</time>
      </trkpt>
      <trkpt lat="44.97673" lon="6.45787">
        <ele>1785.4</ele>
        <time>2024-08-11T07:35:04Z</time>
      </trkpt>
      <trkpt lat="44.97673" lon="6.45791">
        <ele>1785.4</ele>
        <time>2024-08-11T07:35:05Z</time>
      </trkpt>
      <trkpt lat="44.97673" lon="6.45791">
        <ele>1785.4</ele>
        <time>2024-08-11T07:35:06Z</time>
      </trkpt>
      <trkpt lat="44.97673" lon="6.45791">
        <ele>1784.8</ele>
        <time>2024-08-11T07:35:07Z</time>
      </trkpt>
      <trkpt lat="44.97672" lon="6.45796">
        <ele>1784.8</ele>
        <time>2024-08-11T07:35:08Z</time>
      </trkpt>
      <trkpt lat="44.97672" lon="6.45796">
        <ele>1784.8</ele>
        <time>2024-08-11T07:35:09Z</time>
      </trkpt>
      <trkpt lat="44.97672" lon="6.45799">
        <ele>1784.8</ele>
        <time>2024-08-11T07:35:10Z</time>
      </trkpt>
      <trkpt lat="44.97672" lon="6.45801">
        <ele>1784.4</ele>
        <time>2024-08-11T07:35:11Z</time>
      </trkpt>
      <trkpt lat="44.97672" lon="6.45801">
        <ele>1784.2</ele>
        <time>2024-08-11T07:35:12Z</time>
      </trkpt>
      <trkpt lat="44.97672" lon="6.45804">
        <ele>1784.2</ele>
        <time>2024-08-11T07:35:13Z</time>
      </trkpt>
      <trkpt lat="44.97672" lon="6.45804">
        <ele>1784.2</ele>
        <time>2024-08-11T07:35:14Z</time>
      </trkpt>
      <trkpt lat="44.97673" lon="6.45807">
        <ele>1784</ele>
        <time>2024-08-11T07:35:15Z</time>
      </trkpt>
      <trkpt lat="44.97673" lon="6.45807">
        <ele>1783.8</ele>
        <time>2024-08-11T07:35:16Z</time>
      </trkpt>
      <trkpt lat="44.97671" lon="6.4581">
        <ele>1783.6</ele>
        <time>2024-08-11T07:35:17Z</time>
      </trkpt>
      <trkpt lat="44.97671" lon="6.4581">
        <ele>1783.2</ele>
        <time>2024-08-11T07:35:18Z</time>
      </trkpt>
      <trkpt lat="44.9767" lon="6.45814">
        <ele>1783.2</ele>
        <time>2024-08-11T07:35:19Z</time>
      </trkpt>
      <trkpt lat="44.9767" lon="6.45814">
        <ele>1783</ele>
        <time>2024-08-11T07:35:20Z</time>
      </trkpt>
      <trkpt lat="44.9767" lon="6.45818">
        <ele>1783</ele>
        <time>2024-08-11T07:35:21Z</time>
      </trkpt>
      <trkpt lat="44.9767" lon="6.45818">
        <ele>1782.8</ele>
        <time>2024-08-11T07:35:22Z</time>
      </trkpt>
      <trkpt lat="44.97669" lon="6.45821">
        <ele>1782.6</ele>
        <time>2024-08-11T07:35:23Z</time>
      </trkpt>
      <trkpt lat="44.97669" lon="6.45821">
        <ele>1782.4</ele>
        <time>2024-08-11T07:35:24Z</time>
      </trkpt>
      <trkpt lat="44.97669" lon="6.45825">
        <ele>1782.4</ele>
        <time>2024-08-11T07:35:25Z</time>
      </trkpt>
      <trkpt lat="44.97669" lon="6.45825">
        <ele>1782.2</ele>
        <time>2024-08-11T07:35:26Z</time>
      </trkpt>
      <trkpt lat="44.97669" lon="6.45829">
        <ele>1782</ele>
        <time>2024-08-11T07:35:27Z</time>
      </trkpt>
      <trkpt lat="44.97669" lon="6.45829">
        <ele>1782</ele>
        <time>2024-08-11T07:35:28Z</time>
      </trkpt>
      <trkpt lat="44.97668" lon="6.45832">
        <ele>1782</ele>
        <time>2024-08-11T07:35:29Z</time>
      </trkpt>
      <trkpt lat="44.97668" lon="6.45832">
        <ele>1782</ele>
        <time>2024-08-11T07:35:30Z</time>
      </trkpt>
      <trkpt lat="44.97668" lon="6.45832">
        <ele>1781.8</ele>
        <time>2024-08-11T07:35:31Z</time>
      </trkpt>
      <trkpt lat="44.97667" lon="6.45837">
        <ele>1781.2</ele>
        <time>2024-08-11T07:35:32Z</time>
      </trkpt>
      <trkpt lat="44.97667" lon="6.45837">
        <ele>1781.2</ele>
        <time>2024-08-11T07:35:33Z</time>
      </trkpt>
      <trkpt lat="44.97667" lon="6.45839">
        <ele>1781.2</ele>
        <time>2024-08-11T07:35:34Z</time>
      </trkpt>
      <trkpt lat="44.97667" lon="6.45839">
        <ele>1781.2</ele>
        <time>2024-08-11T07:35:35Z</time>
      </trkpt>
      <trkpt lat="44.97666" lon="6.45842">
        <ele>1781</ele>
        <time>2024-08-11T07:35:36Z</time>
      </trkpt>
      <trkpt lat="44.97666" lon="6.45842">
        <ele>1780.8</ele>
        <time>2024-08-11T07:35:37Z</time>
      </trkpt>
      <trkpt lat="44.97667" lon="6.45845">
        <ele>1780.6</ele>
        <time>2024-08-11T07:35:38Z</time>
      </trkpt>
      <trkpt lat="44.97667" lon="6.45845">
        <ele>1780.4</ele>
        <time>2024-08-11T07:35:39Z</time>
      </trkpt>
      <trkpt lat="44.97668" lon="6.45847">
        <ele>1780.2</ele>
        <time>2024-08-11T07:35:40Z</time>
      </trkpt>
      <trkpt lat="44.97668" lon="6.45847">
        <ele>1780</ele>
        <time>2024-08-11T07:35:41Z</time>
      </trkpt>
      <trkpt lat="44.9767" lon="6.45849">
        <ele>1780</ele>
        <time>2024-08-11T07:35:42Z</time>
      </trkpt>
      <trkpt lat="44.9767" lon="6.45849">
        <ele>1779.4</ele>
        <time>2024-08-11T07:35:43Z</time>
      </trkpt>
      <trkpt lat="44.97673" lon="6.45851">
        <ele>1779.2</ele>
        <time>2024-08-11T07:35:44Z</time>
      </trkpt>
      <trkpt lat="44.97674" lon="6.45853">
        <ele>1779</ele>
        <time>2024-08-11T07:35:45Z</time>
      </trkpt>
      <trkpt lat="44.97676" lon="6.45854">
        <ele>1779</ele>
        <time>2024-08-11T07:35:46Z</time>
      </trkpt>
      <trkpt lat="44.97676" lon="6.45854">
        <ele>1779</ele>
        <time>2024-08-11T07:35:47Z</time>
      </trkpt>
      <trkpt lat="44.97678" lon="6.45856">
        <ele>1779</ele>
        <time>2024-08-11T07:35:48Z</time>
      </trkpt>
      <trkpt lat="44.97678" lon="6.45856">
        <ele>1778.4</ele>
        <time>2024-08-11T07:35:49Z</time>
      </trkpt>
      <trkpt lat="44.97678" lon="6.45856">
        <ele>1778</ele>
        <time>2024-08-11T07:35:50Z</time>
      </trkpt>
      <trkpt lat="44.9768" lon="6.4586">
        <ele>1777.8</ele>
        <time>2024-08-11T07:35:51Z</time>
      </trkpt>
      <trkpt lat="44.9768" lon="6.45862">
        <ele>1777.4</ele>
        <time>2024-08-11T07:35:52Z</time>
      </trkpt>
      <trkpt lat="44.9768" lon="6.45862">
        <ele>1777.2</ele>
        <time>2024-08-11T07:35:53Z</time>
      </trkpt>
      <trkpt lat="44.97681" lon="6.45864">
        <ele>1777</ele>
        <time>2024-08-11T07:35:54Z</time>
      </trkpt>
      <trkpt lat="44.97681" lon="6.45864">
        <ele>1776.6</ele>
        <time>2024-08-11T07:35:55Z</time>
      </trkpt>
      <trkpt lat="44.97683" lon="6.45866">
        <ele>1776.4</ele>
        <time>2024-08-11T07:35:56Z</time>
      </trkpt>
      <trkpt lat="44.97683" lon="6.45866">
        <ele>1776</ele>
        <time>2024-08-11T07:35:57Z</time>
      </trkpt>
      <trkpt lat="44.97683" lon="6.45866">
        <ele>1775.8</ele>
        <time>2024-08-11T07:35:58Z</time>
      </trkpt>
      <trkpt lat="44.97685" lon="6.4587">
        <ele>1775.6</ele>
        <time>2024-08-11T07:35:59Z</time>
      </trkpt>
      <trkpt lat="44.97685" lon="6.4587">
        <ele>1775.4</ele>
        <time>2024-08-11T07:36:00Z</time>
      </trkpt>
      <trkpt lat="44.97687" lon="6.45872">
        <ele>1774.8</ele>
        <time>2024-08-11T07:36:01Z</time>
      </trkpt>
      <trkpt lat="44.97689" lon="6.45874">
        <ele>1774</ele>
        <time>2024-08-11T07:36:02Z</time>
      </trkpt>
      <trkpt lat="44.97689" lon="6.45874">
        <ele>1774</ele>
        <time>2024-08-11T07:36:03Z</time>
      </trkpt>
      <trkpt lat="44.9769" lon="6.45877">
        <ele>1773.8</ele>
        <time>2024-08-11T07:36:04Z</time>
      </trkpt>
      <trkpt lat="44.9769" lon="6.45877">
        <ele>1773.6</ele>
        <time>2024-08-11T07:36:05Z</time>
      </trkpt>
      <trkpt lat="44.9769" lon="6.45877">
        <ele>1773.6</ele>
        <time>2024-08-11T07:36:06Z</time>
      </trkpt>
      <trkpt lat="44.9769" lon="6.45877">
        <ele>1773.2</ele>
        <time>2024-08-11T07:36:07Z</time>
      </trkpt>
      <trkpt lat="44.97693" lon="6.45879">
        <ele>1772.8</ele>
        <time>2024-08-11T07:36:08Z</time>
      </trkpt>
      <trkpt lat="44.97693" lon="6.45879">
        <ele>1772.6</ele>
        <time>2024-08-11T07:36:09Z</time>
      </trkpt>
      <trkpt lat="44.97694" lon="6.45881">
        <ele>1772.6</ele>
        <time>2024-08-11T07:36:10Z</time>
      </trkpt>
      <trkpt lat="44.97694" lon="6.45881">
        <ele>1772.2</ele>
        <time>2024-08-11T07:36:11Z</time>
      </trkpt>
      <trkpt lat="44.97695" lon="6.45884">
        <ele>1772.2</ele>
        <time>2024-08-11T07:36:12Z</time>
      </trkpt>
      <trkpt lat="44.97695" lon="6.45884">
        <ele>1772</ele>
        <time>2024-08-11T07:36:13Z</time>
      </trkpt>
      <trkpt lat="44.97696" lon="6.45888">
        <ele>1771.8</ele>
        <time>2024-08-11T07:36:14Z</time>
      </trkpt>
      <trkpt lat="44.97696" lon="6.45888">
        <ele>1771.2</ele>
        <time>2024-08-11T07:36:15Z</time>
      </trkpt>
      <trkpt lat="44.97697" lon="6.45891">
        <ele>1770.8</ele>
        <time>2024-08-11T07:36:16Z</time>
      </trkpt>
      <trkpt lat="44.97695" lon="6.45893">
        <ele>1770.8</ele>
        <time>2024-08-11T07:36:17Z</time>
      </trkpt>
      <trkpt lat="44.97694" lon="6.45896">
        <ele>1770.6</ele>
        <time>2024-08-11T07:36:18Z</time>
      </trkpt>
      <trkpt lat="44.97693" lon="6.45899">
        <ele>1770.4</ele>
        <time>2024-08-11T07:36:19Z</time>
      </trkpt>
      <trkpt lat="44.97691" lon="6.45901">
        <ele>1770.2</ele>
        <time>2024-08-11T07:36:20Z</time>
      </trkpt>
      <trkpt lat="44.97691" lon="6.45901">
        <ele>1769.8</ele>
        <time>2024-08-11T07:36:21Z</time>
      </trkpt>
      <trkpt lat="44.9769" lon="6.45905">
        <ele>1769.4</ele>
        <time>2024-08-11T07:36:22Z</time>
      </trkpt>
      <trkpt lat="44.9769" lon="6.45905">
        <ele>1769</ele>
        <time>2024-08-11T07:36:23Z</time>
      </trkpt>
      <trkpt lat="44.97689" lon="6.45909">
        <ele>1768.8</ele>
        <time>2024-08-11T07:36:24Z</time>
      </trkpt>
      <trkpt lat="44.97689" lon="6.45909">
        <ele>1768.6</ele>
        <time>2024-08-11T07:36:25Z</time>
      </trkpt>
      <trkpt lat="44.97689" lon="6.45912">
        <ele>1768.2</ele>
        <time>2024-08-11T07:36:26Z</time>
      </trkpt>
      <trkpt lat="44.97689" lon="6.45912">
        <ele>1768.2</ele>
        <time>2024-08-11T07:36:27Z</time>
      </trkpt>
      <trkpt lat="44.97689" lon="6.45912">
        <ele>1768.2</ele>
        <time>2024-08-11T07:36:28Z</time>
      </trkpt>
      <trkpt lat="44.97688" lon="6.45916">
        <ele>1767.8</ele>
        <time>2024-08-11T07:36:29Z</time>
      </trkpt>
      <trkpt lat="44.97688" lon="6.45916">
        <ele>1767.8</ele>
        <time>2024-08-11T07:36:30Z</time>
      </trkpt>
      <trkpt lat="44.97688" lon="6.45916">
        <ele>1767.6</ele>
        <time>2024-08-11T07:36:31Z</time>
      </trkpt>
      <trkpt lat="44.97688" lon="6.45922">
        <ele>1767.4</ele>
        <time>2024-08-11T07:36:32Z</time>
      </trkpt>
      <trkpt lat="44.97688" lon="6.45924">
        <ele>1767.4</ele>
        <time>2024-08-11T07:36:33Z</time>
      </trkpt>
      <trkpt lat="44.97688" lon="6.45924">
        <ele>1767.2</ele>
        <time>2024-08-11T07:36:34Z</time>
      </trkpt>
      <trkpt lat="44.97688" lon="6.45927">
        <ele>1767</ele>
        <time>2024-08-11T07:36:35Z</time>
      </trkpt>
      <trkpt lat="44.97688" lon="6.45927">
        <ele>1766.8</ele>
        <time>2024-08-11T07:36:36Z</time>
      </trkpt>
      <trkpt lat="44.97688" lon="6.4593">
        <ele>1766.6</ele>
        <time>2024-08-11T07:36:37Z</time>
      </trkpt>
      <trkpt lat="44.97688" lon="6.4593">
        <ele>1766.6</ele>
        <time>2024-08-11T07:36:38Z</time>
      </trkpt>
      <trkpt lat="44.97689" lon="6.45933">
        <ele>1766.6</ele>
        <time>2024-08-11T07:36:39Z</time>
      </trkpt>
      <trkpt lat="44.97689" lon="6.45933">
        <ele>1766.2</ele>
        <time>2024-08-11T07:36:40Z</time>
      </trkpt>
      <trkpt lat="44.97688" lon="6.45937">
        <ele>1766.2</ele>
        <time>2024-08-11T07:36:41Z</time>
      </trkpt>
      <trkpt lat="44.97688" lon="6.45937">
        <ele>1766.2</ele>
        <time>2024-08-11T07:36:42Z</time>
      </trkpt>
      <trkpt lat="44.97687" lon="6.45941">
        <ele>1766</ele>
        <time>2024-08-11T07:36:43Z</time>
      </trkpt>
      <trkpt lat="44.97687" lon="6.45941">
        <ele>1766</ele>
        <time>2024-08-11T07:36:44Z</time>
      </trkpt>
      <trkpt lat="44.97688" lon="6.45944">
        <ele>1765.8</ele>
        <time>2024-08-11T07:36:45Z</time>
      </trkpt>
      <trkpt lat="44.97688" lon="6.45944">
        <ele>1765.2</ele>
        <time>2024-08-11T07:36:46Z</time>
      </trkpt>
      <trkpt lat="44.97689" lon="6.45947">
        <ele>1765</ele>
        <time>2024-08-11T07:36:47Z</time>
      </trkpt>
      <trkpt lat="44.97689" lon="6.45947">
        <ele>1765</ele>
        <time>2024-08-11T07:36:48Z</time>
      </trkpt>
      <trkpt lat="44.97689" lon="6.45951">
        <ele>1764.8</ele>
        <time>2024-08-11T07:36:49Z</time>
      </trkpt>
      <trkpt lat="44.97689" lon="6.45951">
        <ele>1764.6</ele>
        <time>2024-08-11T07:36:50Z</time>
      </trkpt>
      <trkpt lat="44.97688" lon="6.45954">
        <ele>1764.4</ele>
        <time>2024-08-11T07:36:51Z</time>
      </trkpt>
      <trkpt lat="44.97688" lon="6.45954">
        <ele>1764</ele>
        <time>2024-08-11T07:36:52Z</time>
      </trkpt>
      <trkpt lat="44.97688" lon="6.45958">
        <ele>1764</ele>
        <time>2024-08-11T07:36:53Z</time>
      </trkpt>
      <trkpt lat="44.97688" lon="6.45958">
        <ele>1763.6</ele>
        <time>2024-08-11T07:36:54Z</time>
      </trkpt>
      <trkpt lat="44.97687" lon="6.45961">
        <ele>1763.4</ele>
        <time>2024-08-11T07:36:55Z</time>
      </trkpt>
      <trkpt lat="44.97687" lon="6.45961">
        <ele>1763.4</ele>
        <time>2024-08-11T07:36:56Z</time>
      </trkpt>
      <trkpt lat="44.97686" lon="6.45965">
        <ele>1763.2</ele>
        <time>2024-08-11T07:36:57Z</time>
      </trkpt>
      <trkpt lat="44.97686" lon="6.45965">
        <ele>1762.8</ele>
        <time>2024-08-11T07:36:58Z</time>
      </trkpt>
      <trkpt lat="44.97686" lon="6.45969">
        <ele>1762.8</ele>
        <time>2024-08-11T07:36:59Z</time>
      </trkpt>
      <trkpt lat="44.97686" lon="6.45969">
        <ele>1762.8</ele>
        <time>2024-08-11T07:37:00Z</time>
      </trkpt>
      <trkpt lat="44.97688" lon="6.45972">
        <ele>1762.2</ele>
        <time>2024-08-11T07:37:01Z</time>
      </trkpt>
      <trkpt lat="44.97688" lon="6.45972">
        <ele>1762.2</ele>
        <time>2024-08-11T07:37:02Z</time>
      </trkpt>
      <trkpt lat="44.97688" lon="6.45975">
        <ele>1762.2</ele>
        <time>2024-08-11T07:37:03Z</time>
      </trkpt>
      <trkpt lat="44.97688" lon="6.45975">
        <ele>1762</ele>
        <time>2024-08-11T07:37:04Z</time>
      </trkpt>
      <trkpt lat="44.97688" lon="6.45975">
        <ele>1761.8</ele>
        <time>2024-08-11T07:37:05Z</time>
      </trkpt>
      <trkpt lat="44.9769" lon="6.45979">
        <ele>1761.4</ele>
        <time>2024-08-11T07:37:06Z</time>
      </trkpt>
      <trkpt lat="44.97691" lon="6.45981">
        <ele>1761.2</ele>
        <time>2024-08-11T07:37:07Z</time>
      </trkpt>
      <trkpt lat="44.97693" lon="6.45983">
        <ele>1760.8</ele>
        <time>2024-08-11T07:37:08Z</time>
      </trkpt>
      <trkpt lat="44.97693" lon="6.45983">
        <ele>1760.6</ele>
        <time>2024-08-11T07:37:09Z</time>
      </trkpt>
      <trkpt lat="44.97694" lon="6.45985">
        <ele>1760.4</ele>
        <time>2024-08-11T07:37:10Z</time>
      </trkpt>
      <trkpt lat="44.97694" lon="6.45985">
        <ele>1760.2</ele>
        <time>2024-08-11T07:37:11Z</time>
      </trkpt>
      <trkpt lat="44.97694" lon="6.45985">
        <ele>1760</ele>
        <time>2024-08-11T07:37:12Z</time>
      </trkpt>
      <trkpt lat="44.97694" lon="6.45988">
        <ele>1759.8</ele>
        <time>2024-08-11T07:37:13Z</time>
      </trkpt>
      <trkpt lat="44.97694" lon="6.45988">
        <ele>1759.4</ele>
        <time>2024-08-11T07:37:14Z</time>
      </trkpt>
      <trkpt lat="44.97694" lon="6.45988">
        <ele>1759.2</ele>
        <time>2024-08-11T07:37:15Z</time>
      </trkpt>
      <trkpt lat="44.97694" lon="6.45991">
        <ele>1759</ele>
        <time>2024-08-11T07:37:16Z</time>
      </trkpt>
      <trkpt lat="44.97694" lon="6.45991">
        <ele>1759</ele>
        <time>2024-08-11T07:37:17Z</time>
      </trkpt>
      <trkpt lat="44.97694" lon="6.45991">
        <ele>1758.6</ele>
        <time>2024-08-11T07:37:18Z</time>
      </trkpt>
      <trkpt lat="44.97696" lon="6.45992">
        <ele>1758.4</ele>
        <time>2024-08-11T07:37:19Z</time>
      </trkpt>
      <trkpt lat="44.97696" lon="6.45992">
        <ele>1758.2</ele>
        <time>2024-08-11T07:37:20Z</time>
      </trkpt>
      <trkpt lat="44.97698" lon="6.45995">
        <ele>1757.6</ele>
        <time>2024-08-11T07:37:21Z</time>
      </trkpt>
      <trkpt lat="44.97699" lon="6.45997">
        <ele>1757.6</ele>
        <time>2024-08-11T07:37:22Z</time>
      </trkpt>
      <trkpt lat="44.97699" lon="6.45997">
        <ele>1757.4</ele>
        <time>2024-08-11T07:37:23Z</time>
      </trkpt>
      <trkpt lat="44.977" lon="6.46001">
        <ele>1757</ele>
        <time>2024-08-11T07:37:24Z</time>
      </trkpt>
      <trkpt lat="44.977" lon="6.46001">
        <ele>1756.6</ele>
        <time>2024-08-11T07:37:25Z</time>
      </trkpt>
      <trkpt lat="44.977" lon="6.46001">
        <ele>1756.6</ele>
        <time>2024-08-11T07:37:26Z</time>
      </trkpt>
      <trkpt lat="44.977" lon="6.46006">
        <ele>1756.4</ele>
        <time>2024-08-11T07:37:27Z</time>
      </trkpt>
      <trkpt lat="44.977" lon="6.46006">
        <ele>1756.2</ele>
        <time>2024-08-11T07:37:28Z</time>
      </trkpt>
      <trkpt lat="44.97701" lon="6.46008">
        <ele>1755.8</ele>
        <time>2024-08-11T07:37:29Z</time>
      </trkpt>
      <trkpt lat="44.97701" lon="6.46008">
        <ele>1755.4</ele>
        <time>2024-08-11T07:37:30Z</time>
      </trkpt>
      <trkpt lat="44.97703" lon="6.4601">
        <ele>1755.4</ele>
        <time>2024-08-11T07:37:31Z</time>
      </trkpt>
      <trkpt lat="44.97703" lon="6.4601">
        <ele>1755.2</ele>
        <time>2024-08-11T07:37:32Z</time>
      </trkpt>
      <trkpt lat="44.97703" lon="6.46015">
        <ele>1754.8</ele>
        <time>2024-08-11T07:37:33Z</time>
      </trkpt>
      <trkpt lat="44.97703" lon="6.46015">
        <ele>1754.8</ele>
        <time>2024-08-11T07:37:34Z</time>
      </trkpt>
      <trkpt lat="44.97704" lon="6.46018">
        <ele>1754.6</ele>
        <time>2024-08-11T07:37:35Z</time>
      </trkpt>
      <trkpt lat="44.97704" lon="6.46018">
        <ele>1754.6</ele>
        <time>2024-08-11T07:37:36Z</time>
      </trkpt>
      <trkpt lat="44.97704" lon="6.46018">
        <ele>1754.4</ele>
        <time>2024-08-11T07:37:37Z</time>
      </trkpt>
      <trkpt lat="44.97705" lon="6.46023">
        <ele>1754</ele>
        <time>2024-08-11T07:37:38Z</time>
      </trkpt>
      <trkpt lat="44.97705" lon="6.46025">
        <ele>1753.6</ele>
        <time>2024-08-11T07:37:39Z</time>
      </trkpt>
      <trkpt lat="44.97705" lon="6.46025">
        <ele>1753.6</ele>
        <time>2024-08-11T07:37:40Z</time>
      </trkpt>
      <trkpt lat="44.97706" lon="6.46029">
        <ele>1753.4</ele>
        <time>2024-08-11T07:37:41Z</time>
      </trkpt>
      <trkpt lat="44.97706" lon="6.46029">
        <ele>1753.4</ele>
        <time>2024-08-11T07:37:42Z</time>
      </trkpt>
      <trkpt lat="44.97706" lon="6.46033">
        <ele>1753</ele>
        <time>2024-08-11T07:37:43Z</time>
      </trkpt>
      <trkpt lat="44.97706" lon="6.46033">
        <ele>1752.6</ele>
        <time>2024-08-11T07:37:44Z</time>
      </trkpt>
      <trkpt lat="44.97707" lon="6.46036">
        <ele>1752.6</ele>
        <time>2024-08-11T07:37:45Z</time>
      </trkpt>
      <trkpt lat="44.97707" lon="6.46036">
        <ele>1752.4</ele>
        <time>2024-08-11T07:37:46Z</time>
      </trkpt>
      <trkpt lat="44.97707" lon="6.46039">
        <ele>1752</ele>
        <time>2024-08-11T07:37:47Z</time>
      </trkpt>
      <trkpt lat="44.97707" lon="6.46039">
        <ele>1751.6</ele>
        <time>2024-08-11T07:37:48Z</time>
      </trkpt>
      <trkpt lat="44.97707" lon="6.46043">
        <ele>1751.4</ele>
        <time>2024-08-11T07:37:49Z</time>
      </trkpt>
      <trkpt lat="44.97707" lon="6.46043">
        <ele>1751</ele>
        <time>2024-08-11T07:37:50Z</time>
      </trkpt>
      <trkpt lat="44.97707" lon="6.46046">
        <ele>1750.6</ele>
        <time>2024-08-11T07:37:51Z</time>
      </trkpt>
      <trkpt lat="44.97707" lon="6.46046">
        <ele>1750.6</ele>
        <time>2024-08-11T07:37:52Z</time>
      </trkpt>
      <trkpt lat="44.97708" lon="6.46048">
        <ele>1750.6</ele>
        <time>2024-08-11T07:37:53Z</time>
      </trkpt>
      <trkpt lat="44.97708" lon="6.46048">
        <ele>1750.4</ele>
        <time>2024-08-11T07:37:54Z</time>
      </trkpt>
      <trkpt lat="44.97709" lon="6.46052">
        <ele>1750.2</ele>
        <time>2024-08-11T07:37:55Z</time>
      </trkpt>
      <trkpt lat="44.97709" lon="6.46052">
        <ele>1750.2</ele>
        <time>2024-08-11T07:37:56Z</time>
      </trkpt>
      <trkpt lat="44.97708" lon="6.46055">
        <ele>1750.2</ele>
        <time>2024-08-11T07:37:57Z</time>
      </trkpt>
      <trkpt lat="44.97708" lon="6.46055">
        <ele>1750</ele>
        <time>2024-08-11T07:37:58Z</time>
      </trkpt>
      <trkpt lat="44.97707" lon="6.46059">
        <ele>1749.8</ele>
        <time>2024-08-11T07:37:59Z</time>
      </trkpt>
      <trkpt lat="44.97707" lon="6.46059">
        <ele>1749.8</ele>
        <time>2024-08-11T07:38:00Z</time>
      </trkpt>
      <trkpt lat="44.97706" lon="6.46063">
        <ele>1749.8</ele>
        <time>2024-08-11T07:38:01Z</time>
      </trkpt>
      <trkpt lat="44.97706" lon="6.46063">
        <ele>1749.8</ele>
        <time>2024-08-11T07:38:02Z</time>
      </trkpt>
      <trkpt lat="44.97706" lon="6.46067">
        <ele>1749.6</ele>
        <time>2024-08-11T07:38:03Z</time>
      </trkpt>
      <trkpt lat="44.97706" lon="6.46067">
        <ele>1749.6</ele>
        <time>2024-08-11T07:38:04Z</time>
      </trkpt>
      <trkpt lat="44.97706" lon="6.46071">
        <ele>1749.4</ele>
        <time>2024-08-11T07:38:05Z</time>
      </trkpt>
      <trkpt lat="44.97706" lon="6.46071">
        <ele>1749.4</ele>
        <time>2024-08-11T07:38:06Z</time>
      </trkpt>
      <trkpt lat="44.97706" lon="6.46075">
        <ele>1749.2</ele>
        <time>2024-08-11T07:38:07Z</time>
      </trkpt>
      <trkpt lat="44.97706" lon="6.46075">
        <ele>1749.2</ele>
        <time>2024-08-11T07:38:08Z</time>
      </trkpt>
      <trkpt lat="44.97708" lon="6.46079">
        <ele>1749</ele>
        <time>2024-08-11T07:38:09Z</time>
      </trkpt>
      <trkpt lat="44.97708" lon="6.46079">
        <ele>1749</ele>
        <time>2024-08-11T07:38:10Z</time>
      </trkpt>
      <trkpt lat="44.97709" lon="6.46082">
        <ele>1748.8</ele>
        <time>2024-08-11T07:38:11Z</time>
      </trkpt>
      <trkpt lat="44.97709" lon="6.46082">
        <ele>1748.6</ele>
        <time>2024-08-11T07:38:12Z</time>
      </trkpt>
      <trkpt lat="44.9771" lon="6.46086">
        <ele>1748.4</ele>
        <time>2024-08-11T07:38:13Z</time>
      </trkpt>
      <trkpt lat="44.9771" lon="6.46086">
        <ele>1748.2</ele>
        <time>2024-08-11T07:38:14Z</time>
      </trkpt>
      <trkpt lat="44.9771" lon="6.46089">
        <ele>1748.2</ele>
        <time>2024-08-11T07:38:15Z</time>
      </trkpt>
      <trkpt lat="44.9771" lon="6.46089">
        <ele>1748.2</ele>
        <time>2024-08-11T07:38:16Z</time>
      </trkpt>
      <trkpt lat="44.9771" lon="6.46089">
        <ele>1748.2</ele>
        <time>2024-08-11T07:38:17Z</time>
      </trkpt>
      <trkpt lat="44.97712" lon="6.46094">
        <ele>1748</ele>
        <time>2024-08-11T07:38:18Z</time>
      </trkpt>
      <trkpt lat="44.97712" lon="6.46094">
        <ele>1747.8</ele>
        <time>2024-08-11T07:38:19Z</time>
      </trkpt>
      <trkpt lat="44.97713" lon="6.46097">
        <ele>1747.4</ele>
        <time>2024-08-11T07:38:20Z</time>
      </trkpt>
      <trkpt lat="44.97714" lon="6.46098">
        <ele>1747.2</ele>
        <time>2024-08-11T07:38:21Z</time>
      </trkpt>
      <trkpt lat="44.97714" lon="6.46098">
        <ele>1747</ele>
        <time>2024-08-11T07:38:22Z</time>
      </trkpt>
      <trkpt lat="44.97715" lon="6.461">
        <ele>1746.8</ele>
        <time>2024-08-11T07:38:23Z</time>
      </trkpt>
      <trkpt lat="44.97715" lon="6.461">
        <ele>1746.8</ele>
        <time>2024-08-11T07:38:24Z</time>
      </trkpt>
      <trkpt lat="44.97717" lon="6.46103">
        <ele>1746.4</ele>
        <time>2024-08-11T07:38:25Z</time>
      </trkpt>
      <trkpt lat="44.97717" lon="6.46103">
        <ele>1746.4</ele>
        <time>2024-08-11T07:38:26Z</time>
      </trkpt>
      <trkpt lat="44.97719" lon="6.46105">
        <ele>1746</ele>
        <time>2024-08-11T07:38:27Z</time>
      </trkpt>
      <trkpt lat="44.97719" lon="6.46105">
        <ele>1745.6</ele>
        <time>2024-08-11T07:38:28Z</time>
      </trkpt>
      <trkpt lat="44.97719" lon="6.46109">
        <ele>1745.4</ele>
        <time>2024-08-11T07:38:29Z</time>
      </trkpt>
      <trkpt lat="44.97719" lon="6.46109">
        <ele>1745.2</ele>
        <time>2024-08-11T07:38:30Z</time>
      </trkpt>
      <trkpt lat="44.97719" lon="6.46112">
        <ele>1744.8</ele>
        <time>2024-08-11T07:38:31Z</time>
      </trkpt>
      <trkpt lat="44.97719" lon="6.46112">
        <ele>1744.4</ele>
        <time>2024-08-11T07:38:32Z</time>
      </trkpt>
      <trkpt lat="44.9772" lon="6.46114">
        <ele>1744.2</ele>
        <time>2024-08-11T07:38:33Z</time>
      </trkpt>
      <trkpt lat="44.97722" lon="6.46116">
        <ele>1744.2</ele>
        <time>2024-08-11T07:38:34Z</time>
      </trkpt>
      <trkpt lat="44.97724" lon="6.46117">
        <ele>1744</ele>
        <time>2024-08-11T07:38:35Z</time>
      </trkpt>
      <trkpt lat="44.97724" lon="6.46117">
        <ele>1743.6</ele>
        <time>2024-08-11T07:38:36Z</time>
      </trkpt>
      <trkpt lat="44.97726" lon="6.46119">
        <ele>1743.4</ele>
        <time>2024-08-11T07:38:37Z</time>
      </trkpt>
      <trkpt lat="44.97726" lon="6.46119">
        <ele>1743.2</ele>
        <time>2024-08-11T07:38:38Z</time>
      </trkpt>
      <trkpt lat="44.97728" lon="6.46122">
        <ele>1743</ele>
        <time>2024-08-11T07:38:39Z</time>
      </trkpt>
      <trkpt lat="44.9773" lon="6.46124">
        <ele>1742.8</ele>
        <time>2024-08-11T07:38:40Z</time>
      </trkpt>
      <trkpt lat="44.9773" lon="6.46124">
        <ele>1742.6</ele>
        <time>2024-08-11T07:38:41Z</time>
      </trkpt>
      <trkpt lat="44.9773" lon="6.46124">
        <ele>1742.4</ele>
        <time>2024-08-11T07:38:42Z</time>
      </trkpt>
      <trkpt lat="44.97732" lon="6.46129">
        <ele>1742.2</ele>
        <time>2024-08-11T07:38:43Z</time>
      </trkpt>
      <trkpt lat="44.97733" lon="6.4613">
        <ele>1742</ele>
        <time>2024-08-11T07:38:44Z</time>
      </trkpt>
      <trkpt lat="44.97734" lon="6.46132">
        <ele>1741.6</ele>
        <time>2024-08-11T07:38:45Z</time>
      </trkpt>
      <trkpt lat="44.97734" lon="6.46132">
        <ele>1741.4</ele>
        <time>2024-08-11T07:38:46Z</time>
      </trkpt>
      <trkpt lat="44.97736" lon="6.46135">
        <ele>1741.4</ele>
        <time>2024-08-11T07:38:47Z</time>
      </trkpt>
      <trkpt lat="44.97736" lon="6.46135">
        <ele>1741.2</ele>
        <time>2024-08-11T07:38:48Z</time>
      </trkpt>
      <trkpt lat="44.97738" lon="6.46138">
        <ele>1741</ele>
        <time>2024-08-11T07:38:49Z</time>
      </trkpt>
      <trkpt lat="44.97738" lon="6.46138">
        <ele>1740.8</ele>
        <time>2024-08-11T07:38:50Z</time>
      </trkpt>
      <trkpt lat="44.97738" lon="6.46141">
        <ele>1740.4</ele>
        <time>2024-08-11T07:38:51Z</time>
      </trkpt>
      <trkpt lat="44.97738" lon="6.46141">
        <ele>1740</ele>
        <time>2024-08-11T07:38:52Z</time>
      </trkpt>
      <trkpt lat="44.97739" lon="6.46145">
        <ele>1740</ele>
        <time>2024-08-11T07:38:53Z</time>
      </trkpt>
      <trkpt lat="44.97739" lon="6.46145">
        <ele>1740</ele>
        <time>2024-08-11T07:38:54Z</time>
      </trkpt>
      <trkpt lat="44.9774" lon="6.46148">
        <ele>1740.2</ele>
        <time>2024-08-11T07:38:55Z</time>
      </trkpt>
      <trkpt lat="44.9774" lon="6.46148">
        <ele>1740.2</ele>
        <time>2024-08-11T07:38:56Z</time>
      </trkpt>
      <trkpt lat="44.97741" lon="6.46151">
        <ele>1740.2</ele>
        <time>2024-08-11T07:38:57Z</time>
      </trkpt>
      <trkpt lat="44.97741" lon="6.46151">
        <ele>1740</ele>
        <time>2024-08-11T07:38:58Z</time>
      </trkpt>
      <trkpt lat="44.97742" lon="6.46154">
        <ele>1739.6</ele>
        <time>2024-08-11T07:38:59Z</time>
      </trkpt>
      <trkpt lat="44.97742" lon="6.46154">
        <ele>1739.4</ele>
        <time>2024-08-11T07:39:00Z</time>
      </trkpt>
      <trkpt lat="44.97743" lon="6.46157">
        <ele>1739.2</ele>
        <time>2024-08-11T07:39:01Z</time>
      </trkpt>
      <trkpt lat="44.97743" lon="6.46157">
        <ele>1738.8</ele>
        <time>2024-08-11T07:39:02Z</time>
      </trkpt>
      <trkpt lat="44.97744" lon="6.46161">
        <ele>1738.8</ele>
        <time>2024-08-11T07:39:03Z</time>
      </trkpt>
      <trkpt lat="44.97744" lon="6.46161">
        <ele>1738.8</ele>
        <time>2024-08-11T07:39:04Z</time>
      </trkpt>
      <trkpt lat="44.97746" lon="6.46164">
        <ele>1738.6</ele>
        <time>2024-08-11T07:39:05Z</time>
      </trkpt>
      <trkpt lat="44.97746" lon="6.46164">
        <ele>1738.4</ele>
        <time>2024-08-11T07:39:06Z</time>
      </trkpt>
      <trkpt lat="44.97747" lon="6.46168">
        <ele>1738.2</ele>
        <time>2024-08-11T07:39:07Z</time>
      </trkpt>
      <trkpt lat="44.97747" lon="6.46168">
        <ele>1737.8</ele>
        <time>2024-08-11T07:39:08Z</time>
      </trkpt>
      <trkpt lat="44.97748" lon="6.46171">
        <ele>1737.8</ele>
        <time>2024-08-11T07:39:09Z</time>
      </trkpt>
      <trkpt lat="44.97748" lon="6.46171">
        <ele>1737.8</ele>
        <time>2024-08-11T07:39:10Z</time>
      </trkpt>
      <trkpt lat="44.9775" lon="6.46175">
        <ele>1737.6</ele>
        <time>2024-08-11T07:39:11Z</time>
      </trkpt>
      <trkpt lat="44.9775" lon="6.46175">
        <ele>1737.4</ele>
        <time>2024-08-11T07:39:12Z</time>
      </trkpt>
      <trkpt lat="44.97752" lon="6.46178">
        <ele>1737.4</ele>
        <time>2024-08-11T07:39:13Z</time>
      </trkpt>
      <trkpt lat="44.97752" lon="6.46178">
        <ele>1737</ele>
        <time>2024-08-11T07:39:14Z</time>
      </trkpt>
      <trkpt lat="44.97752" lon="6.46182">
        <ele>1736.6</ele>
        <time>2024-08-11T07:39:15Z</time>
      </trkpt>
      <trkpt lat="44.97752" lon="6.46182">
        <ele>1736.4</ele>
        <time>2024-08-11T07:39:16Z</time>
      </trkpt>
      <trkpt lat="44.97753" lon="6.46185">
        <ele>1736.2</ele>
        <time>2024-08-11T07:39:17Z</time>
      </trkpt>
      <trkpt lat="44.97753" lon="6.46185">
        <ele>1736</ele>
        <time>2024-08-11T07:39:18Z</time>
      </trkpt>
      <trkpt lat="44.97754" lon="6.46189">
        <ele>1735.8</ele>
        <time>2024-08-11T07:39:19Z</time>
      </trkpt>
      <trkpt lat="44.97754" lon="6.46189">
        <ele>1735.8</ele>
        <time>2024-08-11T07:39:20Z</time>
      </trkpt>
      <trkpt lat="44.97755" lon="6.46192">
        <ele>1735.8</ele>
        <time>2024-08-11T07:39:21Z</time>
      </trkpt>
      <trkpt lat="44.97755" lon="6.46192">
        <ele>1735.6</ele>
        <time>2024-08-11T07:39:22Z</time>
      </trkpt>
      <trkpt lat="44.97756" lon="6.46196">
        <ele>1735.2</ele>
        <time>2024-08-11T07:39:23Z</time>
      </trkpt>
      <trkpt lat="44.97756" lon="6.46196">
        <ele>1735</ele>
        <time>2024-08-11T07:39:24Z</time>
      </trkpt>
      <trkpt lat="44.97756" lon="6.46196">
        <ele>1734.8</ele>
        <time>2024-08-11T07:39:25Z</time>
      </trkpt>
      <trkpt lat="44.97759" lon="6.462">
        <ele>1734.6</ele>
        <time>2024-08-11T07:39:26Z</time>
      </trkpt>
      <trkpt lat="44.9776" lon="6.46201">
        <ele>1734.4</ele>
        <time>2024-08-11T07:39:27Z</time>
      </trkpt>
      <trkpt lat="44.9776" lon="6.46201">
        <ele>1734.4</ele>
        <time>2024-08-11T07:39:28Z</time>
      </trkpt>
      <trkpt lat="44.9776" lon="6.46205">
        <ele>1733.8</ele>
        <time>2024-08-11T07:39:29Z</time>
      </trkpt>
      <trkpt lat="44.9776" lon="6.46205">
        <ele>1733.6</ele>
        <time>2024-08-11T07:39:30Z</time>
      </trkpt>
      <trkpt lat="44.9776" lon="6.46207">
        <ele>1733.4</ele>
        <time>2024-08-11T07:39:31Z</time>
      </trkpt>
      <trkpt lat="44.9776" lon="6.46207">
        <ele>1733.4</ele>
        <time>2024-08-11T07:39:32Z</time>
      </trkpt>
      <trkpt lat="44.97762" lon="6.4621">
        <ele>1733</ele>
        <time>2024-08-11T07:39:33Z</time>
      </trkpt>
      <trkpt lat="44.97762" lon="6.4621">
        <ele>1732.8</ele>
        <time>2024-08-11T07:39:34Z</time>
      </trkpt>
      <trkpt lat="44.97763" lon="6.46213">
        <ele>1732.6</ele>
        <time>2024-08-11T07:39:35Z</time>
      </trkpt>
      <trkpt lat="44.97763" lon="6.46213">
        <ele>1732.6</ele>
        <time>2024-08-11T07:39:36Z</time>
      </trkpt>
      <trkpt lat="44.97764" lon="6.46215">
        <ele>1732.2</ele>
        <time>2024-08-11T07:39:37Z</time>
      </trkpt>
      <trkpt lat="44.97765" lon="6.46217">
        <ele>1732</ele>
        <time>2024-08-11T07:39:38Z</time>
      </trkpt>
      <trkpt lat="44.97765" lon="6.46217">
        <ele>1731.8</ele>
        <time>2024-08-11T07:39:39Z</time>
      </trkpt>
      <trkpt lat="44.97766" lon="6.46221">
        <ele>1731.6</ele>
        <time>2024-08-11T07:39:40Z</time>
      </trkpt>
      <trkpt lat="44.97766" lon="6.46221">
        <ele>1731.2</ele>
        <time>2024-08-11T07:39:41Z</time>
      </trkpt>
      <trkpt lat="44.97768" lon="6.46224">
        <ele>1731</ele>
        <time>2024-08-11T07:39:42Z</time>
      </trkpt>
      <trkpt lat="44.97768" lon="6.46224">
        <ele>1731</ele>
        <time>2024-08-11T07:39:43Z</time>
      </trkpt>
      <trkpt lat="44.97768" lon="6.46227">
        <ele>1730.8</ele>
        <time>2024-08-11T07:39:44Z</time>
      </trkpt>
      <trkpt lat="44.97768" lon="6.46227">
        <ele>1730.6</ele>
        <time>2024-08-11T07:39:45Z</time>
      </trkpt>
      <trkpt lat="44.97768" lon="6.46227">
        <ele>1730.6</ele>
        <time>2024-08-11T07:39:46Z</time>
      </trkpt>
      <trkpt lat="44.97769" lon="6.46232">
        <ele>1730.4</ele>
        <time>2024-08-11T07:39:47Z</time>
      </trkpt>
      <trkpt lat="44.97769" lon="6.46233">
        <ele>1730</ele>
        <time>2024-08-11T07:39:48Z</time>
      </trkpt>
      <trkpt lat="44.97769" lon="6.46233">
        <ele>1729.8</ele>
        <time>2024-08-11T07:39:49Z</time>
      </trkpt>
      <trkpt lat="44.97771" lon="6.46235">
        <ele>1729.6</ele>
        <time>2024-08-11T07:39:50Z</time>
      </trkpt>
      <trkpt lat="44.97771" lon="6.46235">
        <ele>1729.6</ele>
        <time>2024-08-11T07:39:51Z</time>
      </trkpt>
      <trkpt lat="44.97773" lon="6.46238">
        <ele>1729.4</ele>
        <time>2024-08-11T07:39:52Z</time>
      </trkpt>
      <trkpt lat="44.97773" lon="6.46238">
        <ele>1729.2</ele>
        <time>2024-08-11T07:39:53Z</time>
      </trkpt>
      <trkpt lat="44.97775" lon="6.4624">
        <ele>1728.8</ele>
        <time>2024-08-11T07:39:54Z</time>
      </trkpt>
      <trkpt lat="44.97775" lon="6.4624">
        <ele>1728.4</ele>
        <time>2024-08-11T07:39:55Z</time>
      </trkpt>
      <trkpt lat="44.97778" lon="6.46243">
        <ele>1728.4</ele>
        <time>2024-08-11T07:39:56Z</time>
      </trkpt>
      <trkpt lat="44.97778" lon="6.46243">
        <ele>1728.4</ele>
        <time>2024-08-11T07:39:57Z</time>
      </trkpt>
      <trkpt lat="44.9778" lon="6.46247">
        <ele>1728.4</ele>
        <time>2024-08-11T07:39:58Z</time>
      </trkpt>
      <trkpt lat="44.9778" lon="6.46247">
        <ele>1727.8</ele>
        <time>2024-08-11T07:39:59Z</time>
      </trkpt>
      <trkpt lat="44.9778" lon="6.46247">
        <ele>1727.4</ele>
        <time>2024-08-11T07:40:00Z</time>
      </trkpt>
      <trkpt lat="44.97782" lon="6.46251">
        <ele>1727.2</ele>
        <time>2024-08-11T07:40:01Z</time>
      </trkpt>
      <trkpt lat="44.97784" lon="6.46252">
        <ele>1726.8</ele>
        <time>2024-08-11T07:40:02Z</time>
      </trkpt>
      <trkpt lat="44.97784" lon="6.46252">
        <ele>1726.8</ele>
        <time>2024-08-11T07:40:03Z</time>
      </trkpt>
      <trkpt lat="44.97786" lon="6.46255">
        <ele>1726.6</ele>
        <time>2024-08-11T07:40:04Z</time>
      </trkpt>
      <trkpt lat="44.97786" lon="6.46255">
        <ele>1726.4</ele>
        <time>2024-08-11T07:40:05Z</time>
      </trkpt>
      <trkpt lat="44.97786" lon="6.46255">
        <ele>1726.4</ele>
        <time>2024-08-11T07:40:06Z</time>
      </trkpt>
      <trkpt lat="44.97789" lon="6.46258">
        <ele>1726</ele>
        <time>2024-08-11T07:40:07Z</time>
      </trkpt>
      <trkpt lat="44.9779" lon="6.46259">
        <ele>1726</ele>
        <time>2024-08-11T07:40:08Z</time>
      </trkpt>
      <trkpt lat="44.9779" lon="6.46259">
        <ele>1725.8</ele>
        <time>2024-08-11T07:40:09Z</time>
      </trkpt>
      <trkpt lat="44.9779" lon="6.46259">
        <ele>1725.8</ele>
        <time>2024-08-11T07:40:10Z</time>
      </trkpt>
      <trkpt lat="44.97792" lon="6.46261">
        <ele>1725.6</ele>
        <time>2024-08-11T07:40:11Z</time>
      </trkpt>
      <trkpt lat="44.97792" lon="6.46261">
        <ele>1725</ele>
        <time>2024-08-11T07:40:12Z</time>
      </trkpt>
      <trkpt lat="44.97794" lon="6.46263">
        <ele>1724.8</ele>
        <time>2024-08-11T07:40:13Z</time>
      </trkpt>
      <trkpt lat="44.97795" lon="6.46263">
        <ele>1724.8</ele>
        <time>2024-08-11T07:40:14Z</time>
      </trkpt>
      <trkpt lat="44.97795" lon="6.46263">
        <ele>1724.6</ele>
        <time>2024-08-11T07:40:15Z</time>
      </trkpt>
      <trkpt lat="44.97795" lon="6.46263">
        <ele>1724.4</ele>
        <time>2024-08-11T07:40:16Z</time>
      </trkpt>
      <trkpt lat="44.97795" lon="6.46263">
        <ele>1724.2</ele>
        <time>2024-08-11T07:40:17Z</time>
      </trkpt>
      <trkpt lat="44.97795" lon="6.46263">
        <ele>1724.2</ele>
        <time>2024-08-11T07:40:18Z</time>
      </trkpt>
      <trkpt lat="44.97795" lon="6.46263">
        <ele>1724</ele>
        <time>2024-08-11T07:40:19Z</time>
      </trkpt>
      <trkpt lat="44.97795" lon="6.46263">
        <ele>1723.8</ele>
        <time>2024-08-11T07:40:20Z</time>
      </trkpt>
      <trkpt lat="44.97795" lon="6.46263">
        <ele>1723.6</ele>
        <time>2024-08-11T07:40:21Z</time>
      </trkpt>
      <trkpt lat="44.97795" lon="6.46263">
        <ele>1723.6</ele>
        <time>2024-08-11T07:40:22Z</time>
      </trkpt>
      <trkpt lat="44.97795" lon="6.46263">
        <ele>1723.2</ele>
        <time>2024-08-11T07:40:23Z</time>
      </trkpt>
      <trkpt lat="44.97795" lon="6.46263">
        <ele>1723</ele>
        <time>2024-08-11T07:40:24Z</time>
      </trkpt>
      <trkpt lat="44.97797" lon="6.46266">
        <ele>1723</ele>
        <time>2024-08-11T07:40:25Z</time>
      </trkpt>
      <trkpt lat="44.97797" lon="6.46266">
        <ele>1722.8</ele>
        <time>2024-08-11T07:40:26Z</time>
      </trkpt>
      <trkpt lat="44.978" lon="6.46269">
        <ele>1722.4</ele>
        <time>2024-08-11T07:40:27Z</time>
      </trkpt>
      <trkpt lat="44.97803" lon="6.46272">
        <ele>1722.4</ele>
        <time>2024-08-11T07:40:28Z</time>
      </trkpt>
      <trkpt lat="44.97805" lon="6.46274">
        <ele>1722.2</ele>
        <time>2024-08-11T07:40:29Z</time>
      </trkpt>
      <trkpt lat="44.97807" lon="6.46276">
        <ele>1722</ele>
        <time>2024-08-11T07:40:30Z</time>
      </trkpt>
      <trkpt lat="44.97809" lon="6.46277">
        <ele>1722</ele>
        <time>2024-08-11T07:40:31Z</time>
      </trkpt>
      <trkpt lat="44.97809" lon="6.46277">
        <ele>1721.8</ele>
        <time>2024-08-11T07:40:32Z</time>
      </trkpt>
      <trkpt lat="44.97812" lon="6.46278">
        <ele>1721.8</ele>
        <time>2024-08-11T07:40:33Z</time>
      </trkpt>
      <trkpt lat="44.97812" lon="6.46278">
        <ele>1721.2</ele>
        <time>2024-08-11T07:40:34Z</time>
      </trkpt>
      <trkpt lat="44.97814" lon="6.46279">
        <ele>1721.2</ele>
        <time>2024-08-11T07:40:35Z</time>
      </trkpt>
      <trkpt lat="44.97816" lon="6.46279">
        <ele>1721</ele>
        <time>2024-08-11T07:40:36Z</time>
      </trkpt>
      <trkpt lat="44.97816" lon="6.46279">
        <ele>1720.8</ele>
        <time>2024-08-11T07:40:37Z</time>
      </trkpt>
      <trkpt lat="44.97816" lon="6.46279">
        <ele>1720.8</ele>
        <time>2024-08-11T07:40:38Z</time>
      </trkpt>
      <trkpt lat="44.97818" lon="6.46279">
        <ele>1720.8</ele>
        <time>2024-08-11T07:40:39Z</time>
      </trkpt>
      <trkpt lat="44.97818" lon="6.46279">
        <ele>1720.6</ele>
        <time>2024-08-11T07:40:40Z</time>
      </trkpt>
      <trkpt lat="44.9782" lon="6.46281">
        <ele>1720.4</ele>
        <time>2024-08-11T07:40:41Z</time>
      </trkpt>
      <trkpt lat="44.97822" lon="6.46282">
        <ele>1720.2</ele>
        <time>2024-08-11T07:40:42Z</time>
      </trkpt>
      <trkpt lat="44.97823" lon="6.46283">
        <ele>1720</ele>
        <time>2024-08-11T07:40:43Z</time>
      </trkpt>
      <trkpt lat="44.97823" lon="6.46283">
        <ele>1720</ele>
        <time>2024-08-11T07:40:44Z</time>
      </trkpt>
      <trkpt lat="44.97826" lon="6.46284">
        <ele>1719.8</ele>
        <time>2024-08-11T07:40:45Z</time>
      </trkpt>
      <trkpt lat="44.97828" lon="6.46285">
        <ele>1719.2</ele>
        <time>2024-08-11T07:40:46Z</time>
      </trkpt>
      <trkpt lat="44.9783" lon="6.46285">
        <ele>1719.2</ele>
        <time>2024-08-11T07:40:47Z</time>
      </trkpt>
      <trkpt lat="44.97832" lon="6.46287">
        <ele>1719</ele>
        <time>2024-08-11T07:40:48Z</time>
      </trkpt>
      <trkpt lat="44.97832" lon="6.46287">
        <ele>1718.8</ele>
        <time>2024-08-11T07:40:49Z</time>
      </trkpt>
      <trkpt lat="44.97832" lon="6.46287">
        <ele>1718.8</ele>
        <time>2024-08-11T07:40:50Z</time>
      </trkpt>
      <trkpt lat="44.97834" lon="6.46289">
        <ele>1718.8</ele>
        <time>2024-08-11T07:40:51Z</time>
      </trkpt>
      <trkpt lat="44.97835" lon="6.4629">
        <ele>1718.6</ele>
        <time>2024-08-11T07:40:52Z</time>
      </trkpt>
      <trkpt lat="44.97836" lon="6.4629">
        <ele>1718</ele>
        <time>2024-08-11T07:40:53Z</time>
      </trkpt>
      <trkpt lat="44.97837" lon="6.46291">
        <ele>1718</ele>
        <time>2024-08-11T07:40:54Z</time>
      </trkpt>
      <trkpt lat="44.97837" lon="6.46291">
        <ele>1717.8</ele>
        <time>2024-08-11T07:40:55Z</time>
      </trkpt>
      <trkpt lat="44.97839" lon="6.46291">
        <ele>1717.4</ele>
        <time>2024-08-11T07:40:56Z</time>
      </trkpt>
      <trkpt lat="44.97839" lon="6.46291">
        <ele>1717.4</ele>
        <time>2024-08-11T07:40:57Z</time>
      </trkpt>
      <trkpt lat="44.97841" lon="6.46292">
        <ele>1717.4</ele>
        <time>2024-08-11T07:40:58Z</time>
      </trkpt>
      <trkpt lat="44.97841" lon="6.46292">
        <ele>1717</ele>
        <time>2024-08-11T07:40:59Z</time>
      </trkpt>
      <trkpt lat="44.97844" lon="6.46293">
        <ele>1716.8</ele>
        <time>2024-08-11T07:41:00Z</time>
      </trkpt>
      <trkpt lat="44.97844" lon="6.46293">
        <ele>1716.6</ele>
        <time>2024-08-11T07:41:01Z</time>
      </trkpt>
      <trkpt lat="44.97845" lon="6.46295">
        <ele>1716.6</ele>
        <time>2024-08-11T07:41:02Z</time>
      </trkpt>
      <trkpt lat="44.97845" lon="6.46295">
        <ele>1716.6</ele>
        <time>2024-08-11T07:41:03Z</time>
      </trkpt>
      <trkpt lat="44.97847" lon="6.46296">
        <ele>1716.4</ele>
        <time>2024-08-11T07:41:04Z</time>
      </trkpt>
      <trkpt lat="44.97847" lon="6.46296">
        <ele>1716.2</ele>
        <time>2024-08-11T07:41:05Z</time>
      </trkpt>
      <trkpt lat="44.9785" lon="6.46296">
        <ele>1716.2</ele>
        <time>2024-08-11T07:41:06Z</time>
      </trkpt>
      <trkpt lat="44.9785" lon="6.46296">
        <ele>1716</ele>
        <time>2024-08-11T07:41:07Z</time>
      </trkpt>
      <trkpt lat="44.97853" lon="6.46296">
        <ele>1715.8</ele>
        <time>2024-08-11T07:41:08Z</time>
      </trkpt>
      <trkpt lat="44.97853" lon="6.46296">
        <ele>1715.6</ele>
        <time>2024-08-11T07:41:09Z</time>
      </trkpt>
      <trkpt lat="44.97853" lon="6.46296">
        <ele>1715.4</ele>
        <time>2024-08-11T07:41:10Z</time>
      </trkpt>
      <trkpt lat="44.97853" lon="6.46296">
        <ele>1715.2</ele>
        <time>2024-08-11T07:41:11Z</time>
      </trkpt>
      <trkpt lat="44.97855" lon="6.46297">
        <ele>1715.2</ele>
        <time>2024-08-11T07:41:12Z</time>
      </trkpt>
      <trkpt lat="44.97855" lon="6.46297">
        <ele>1715</ele>
        <time>2024-08-11T07:41:13Z</time>
      </trkpt>
      <trkpt lat="44.97857" lon="6.46298">
        <ele>1714.8</ele>
        <time>2024-08-11T07:41:14Z</time>
      </trkpt>
      <trkpt lat="44.97857" lon="6.46298">
        <ele>1714.6</ele>
        <time>2024-08-11T07:41:15Z</time>
      </trkpt>
      <trkpt lat="44.9786" lon="6.46299">
        <ele>1714.4</ele>
        <time>2024-08-11T07:41:16Z</time>
      </trkpt>
      <trkpt lat="44.9786" lon="6.46299">
        <ele>1714</ele>
        <time>2024-08-11T07:41:17Z</time>
      </trkpt>
      <trkpt lat="44.97862" lon="6.463">
        <ele>1713.8</ele>
        <time>2024-08-11T07:41:18Z</time>
      </trkpt>
      <trkpt lat="44.97862" lon="6.463">
        <ele>1713.6</ele>
        <time>2024-08-11T07:41:19Z</time>
      </trkpt>
      <trkpt lat="44.97862" lon="6.463">
        <ele>1713.4</ele>
        <time>2024-08-11T07:41:20Z</time>
      </trkpt>
      <trkpt lat="44.97863" lon="6.46302">
        <ele>1712.8</ele>
        <time>2024-08-11T07:41:21Z</time>
      </trkpt>
      <trkpt lat="44.97863" lon="6.46302">
        <ele>1712.8</ele>
        <time>2024-08-11T07:41:22Z</time>
      </trkpt>
      <trkpt lat="44.97864" lon="6.46305">
        <ele>1712.8</ele>
        <time>2024-08-11T07:41:23Z</time>
      </trkpt>
      <trkpt lat="44.97864" lon="6.46305">
        <ele>1712.4</ele>
        <time>2024-08-11T07:41:24Z</time>
      </trkpt>
      <trkpt lat="44.97865" lon="6.46307">
        <ele>1712.2</ele>
        <time>2024-08-11T07:41:25Z</time>
      </trkpt>
      <trkpt lat="44.97865" lon="6.46307">
        <ele>1712.2</ele>
        <time>2024-08-11T07:41:26Z</time>
      </trkpt>
      <trkpt lat="44.97867" lon="6.46311">
        <ele>1712</ele>
        <time>2024-08-11T07:41:27Z</time>
      </trkpt>
      <trkpt lat="44.97867" lon="6.46311">
        <ele>1711.8</ele>
        <time>2024-08-11T07:41:28Z</time>
      </trkpt>
      <trkpt lat="44.97869" lon="6.46314">
        <ele>1711.6</ele>
        <time>2024-08-11T07:41:29Z</time>
      </trkpt>
      <trkpt lat="44.97869" lon="6.46314">
        <ele>1711.2</ele>
        <time>2024-08-11T07:41:30Z</time>
      </trkpt>
      <trkpt lat="44.97871" lon="6.46318">
        <ele>1711</ele>
        <time>2024-08-11T07:41:31Z</time>
      </trkpt>
      <trkpt lat="44.97871" lon="6.46318">
        <ele>1710.8</ele>
        <time>2024-08-11T07:41:32Z</time>
      </trkpt>
      <trkpt lat="44.97871" lon="6.46318">
        <ele>1710.6</ele>
        <time>2024-08-11T07:41:33Z</time>
      </trkpt>
      <trkpt lat="44.97872" lon="6.46321">
        <ele>1710.4</ele>
        <time>2024-08-11T07:41:34Z</time>
      </trkpt>
      <trkpt lat="44.97872" lon="6.46321">
        <ele>1710</ele>
        <time>2024-08-11T07:41:35Z</time>
      </trkpt>
      <trkpt lat="44.97873" lon="6.46324">
        <ele>1709.8</ele>
        <time>2024-08-11T07:41:36Z</time>
      </trkpt>
      <trkpt lat="44.97873" lon="6.46324">
        <ele>1709.2</ele>
        <time>2024-08-11T07:41:37Z</time>
      </trkpt>
      <trkpt lat="44.97872" lon="6.46328">
        <ele>1708.8</ele>
        <time>2024-08-11T07:41:38Z</time>
      </trkpt>
      <trkpt lat="44.97872" lon="6.46328">
        <ele>1708.6</ele>
        <time>2024-08-11T07:41:39Z</time>
      </trkpt>
      <trkpt lat="44.97871" lon="6.46333">
        <ele>1708.4</ele>
        <time>2024-08-11T07:41:40Z</time>
      </trkpt>
      <trkpt lat="44.97871" lon="6.46333">
        <ele>1708.4</ele>
        <time>2024-08-11T07:41:41Z</time>
      </trkpt>
      <trkpt lat="44.97869" lon="6.46336">
        <ele>1708.4</ele>
        <time>2024-08-11T07:41:42Z</time>
      </trkpt>
      <trkpt lat="44.97869" lon="6.46336">
        <ele>1708.2</ele>
        <time>2024-08-11T07:41:43Z</time>
      </trkpt>
      <trkpt lat="44.97869" lon="6.4634">
        <ele>1708.2</ele>
        <time>2024-08-11T07:41:44Z</time>
      </trkpt>
      <trkpt lat="44.97869" lon="6.4634">
        <ele>1708.2</ele>
        <time>2024-08-11T07:41:45Z</time>
      </trkpt>
      <trkpt lat="44.97868" lon="6.46343">
        <ele>1708.2</ele>
        <time>2024-08-11T07:41:46Z</time>
      </trkpt>
      <trkpt lat="44.97868" lon="6.46343">
        <ele>1708.2</ele>
        <time>2024-08-11T07:41:47Z</time>
      </trkpt>
      <trkpt lat="44.97865" lon="6.46344">
        <ele>1708.4</ele>
        <time>2024-08-11T07:41:48Z</time>
      </trkpt>
      <trkpt lat="44.97865" lon="6.46344">
        <ele>1708.6</ele>
        <time>2024-08-11T07:41:49Z</time>
      </trkpt>
      <trkpt lat="44.97863" lon="6.46344">
        <ele>1708.6</ele>
        <time>2024-08-11T07:41:50Z</time>
      </trkpt>
      <trkpt lat="44.97863" lon="6.46344">
        <ele>1708.6</ele>
        <time>2024-08-11T07:41:51Z</time>
      </trkpt>
      <trkpt lat="44.97861" lon="6.46343">
        <ele>1708.8</ele>
        <time>2024-08-11T07:41:52Z</time>
      </trkpt>
      <trkpt lat="44.97861" lon="6.46343">
        <ele>1709.4</ele>
        <time>2024-08-11T07:41:53Z</time>
      </trkpt>
      <trkpt lat="44.97861" lon="6.46343">
        <ele>1709.6</ele>
        <time>2024-08-11T07:41:54Z</time>
      </trkpt>
      <trkpt lat="44.97859" lon="6.46343">
        <ele>1710</ele>
        <time>2024-08-11T07:41:55Z</time>
      </trkpt>
      <trkpt lat="44.97859" lon="6.46343">
        <ele>1710.2</ele>
        <time>2024-08-11T07:41:56Z</time>
      </trkpt>
      <trkpt lat="44.97859" lon="6.46343">
        <ele>1710.4</ele>
        <time>2024-08-11T07:41:57Z</time>
      </trkpt>
      <trkpt lat="44.97859" lon="6.46343">
        <ele>1710.8</ele>
        <time>2024-08-11T07:41:58Z</time>
      </trkpt>
      <trkpt lat="44.97859" lon="6.46343">
        <ele>1710.8</ele>
        <time>2024-08-11T07:41:59Z</time>
      </trkpt>
      <trkpt lat="44.97859" lon="6.46343">
        <ele>1710.8</ele>
        <time>2024-08-11T07:42:00Z</time>
      </trkpt>
      <trkpt lat="44.97859" lon="6.46343">
        <ele>1710.8</ele>
        <time>2024-08-11T07:42:01Z</time>
      </trkpt>
      <trkpt lat="44.97859" lon="6.46343">
        <ele>1710.8</ele>
        <time>2024-08-11T07:42:02Z</time>
      </trkpt>
      <trkpt lat="44.97861" lon="6.46343">
        <ele>1710.8</ele>
        <time>2024-08-11T07:42:03Z</time>
      </trkpt>
      <trkpt lat="44.97861" lon="6.46343">
        <ele>1711</ele>
        <time>2024-08-11T07:42:04Z</time>
      </trkpt>
      <trkpt lat="44.97861" lon="6.46343">
        <ele>1711</ele>
        <time>2024-08-11T07:42:05Z</time>
      </trkpt>
      <trkpt lat="44.97861" lon="6.46343">
        <ele>1710.8</ele>
        <time>2024-08-11T07:42:06Z</time>
      </trkpt>
      <trkpt lat="44.97861" lon="6.46343">
        <ele>1710.8</ele>
        <time>2024-08-11T07:42:07Z</time>
      </trkpt>
      <trkpt lat="44.97861" lon="6.46343">
        <ele>1711</ele>
        <time>2024-08-11T07:42:08Z</time>
      </trkpt>
      <trkpt lat="44.97861" lon="6.46343">
        <ele>1711</ele>
        <time>2024-08-11T07:42:09Z</time>
      </trkpt>
      <trkpt lat="44.97861" lon="6.46343">
        <ele>1711</ele>
        <time>2024-08-11T07:42:10Z</time>
      </trkpt>
      <trkpt lat="44.97861" lon="6.46343">
        <ele>1711.2</ele>
        <time>2024-08-11T07:42:11Z</time>
      </trkpt>
      <trkpt lat="44.97861" lon="6.46343">
        <ele>1711.6</ele>
        <time>2024-08-11T07:42:12Z</time>
      </trkpt>
      <trkpt lat="44.97861" lon="6.46343">
        <ele>1711.6</ele>
        <time>2024-08-11T07:42:13Z</time>
      </trkpt>
      <trkpt lat="44.97861" lon="6.46343">
        <ele>1711.6</ele>
        <time>2024-08-11T07:42:14Z</time>
      </trkpt>
      <trkpt lat="44.97861" lon="6.46343">
        <ele>1711.6</ele>
        <time>2024-08-11T07:42:15Z</time>
      </trkpt>
      <trkpt lat="44.97861" lon="6.46343">
        <ele>1711.6</ele>
        <time>2024-08-11T07:42:16Z</time>
      </trkpt>
      <trkpt lat="44.97861" lon="6.46343">
        <ele>1711.6</ele>
        <time>2024-08-11T07:42:17Z</time>
      </trkpt>
      <trkpt lat="44.97861" lon="6.46343">
        <ele>1711.6</ele>
        <time>2024-08-11T07:42:18Z</time>
      </trkpt>
      <trkpt lat="44.97861" lon="6.46343">
        <ele>1711.4</ele>
        <time>2024-08-11T07:42:19Z</time>
      </trkpt>
      <trkpt lat="44.97861" lon="6.46343">
        <ele>1711.2</ele>
        <time>2024-08-11T07:42:20Z</time>
      </trkpt>
      <trkpt lat="44.97861" lon="6.46343">
        <ele>1711.2</ele>
        <time>2024-08-11T07:42:21Z</time>
      </trkpt>
      <trkpt lat="44.97861" lon="6.46343">
        <ele>1711.2</ele>
        <time>2024-08-11T07:42:22Z</time>
      </trkpt>
      <trkpt lat="44.97861" lon="6.46343">
        <ele>1711.2</ele>
        <time>2024-08-11T07:42:23Z</time>
      </trkpt>
      <trkpt lat="44.97861" lon="6.46343">
        <ele>1711.2</ele>
        <time>2024-08-11T07:42:24Z</time>
      </trkpt>
      <trkpt lat="44.97861" lon="6.46343">
        <ele>1711.2</ele>
        <time>2024-08-11T07:42:25Z</time>
      </trkpt>
      <trkpt lat="44.97861" lon="6.46343">
        <ele>1711.2</ele>
        <time>2024-08-11T07:42:26Z</time>
      </trkpt>
      <trkpt lat="44.97861" lon="6.46343">
        <ele>1711</ele>
        <time>2024-08-11T07:42:27Z</time>
      </trkpt>
      <trkpt lat="44.97861" lon="6.46343">
        <ele>1710.6</ele>
        <time>2024-08-11T07:42:28Z</time>
      </trkpt>
      <trkpt lat="44.97861" lon="6.46343">
        <ele>1710.6</ele>
        <time>2024-08-11T07:42:29Z</time>
      </trkpt>
      <trkpt lat="44.97861" lon="6.46343">
        <ele>1710.8</ele>
        <time>2024-08-11T07:42:30Z</time>
      </trkpt>
      <trkpt lat="44.97861" lon="6.46343">
        <ele>1710.8</ele>
        <time>2024-08-11T07:42:31Z</time>
      </trkpt>
      <trkpt lat="44.97861" lon="6.46343">
        <ele>1710.8</ele>
        <time>2024-08-11T07:42:32Z</time>
      </trkpt>
      <trkpt lat="44.97861" lon="6.46343">
        <ele>1710.8</ele>
        <time>2024-08-11T07:42:33Z</time>
      </trkpt>
      <trkpt lat="44.97861" lon="6.46343">
        <ele>1710.6</ele>
        <time>2024-08-11T07:42:34Z</time>
      </trkpt>
      <trkpt lat="44.97861" lon="6.46343">
        <ele>1710.6</ele>
        <time>2024-08-11T07:42:35Z</time>
      </trkpt>
      <trkpt lat="44.97861" lon="6.46343">
        <ele>1710.6</ele>
        <time>2024-08-11T07:42:36Z</time>
      </trkpt>
      <trkpt lat="44.97861" lon="6.46343">
        <ele>1710.4</ele>
        <time>2024-08-11T07:42:37Z</time>
      </trkpt>
      <trkpt lat="44.97861" lon="6.46343">
        <ele>1710.2</ele>
        <time>2024-08-11T07:42:38Z</time>
      </trkpt>
      <trkpt lat="44.97861" lon="6.46343">
        <ele>1710</ele>
        <time>2024-08-11T07:42:39Z</time>
      </trkpt>
      <trkpt lat="44.97861" lon="6.46343">
        <ele>1710</ele>
        <time>2024-08-11T07:42:40Z</time>
      </trkpt>
      <trkpt lat="44.97861" lon="6.46343">
        <ele>1710</ele>
        <time>2024-08-11T07:42:41Z</time>
      </trkpt>
      <trkpt lat="44.97861" lon="6.46343">
        <ele>1710</ele>
        <time>2024-08-11T07:42:42Z</time>
      </trkpt>
      <trkpt lat="44.97861" lon="6.46343">
        <ele>1710</ele>
        <time>2024-08-11T07:42:43Z</time>
      </trkpt>
      <trkpt lat="44.97861" lon="6.46343">
        <ele>1709.8</ele>
        <time>2024-08-11T07:42:44Z</time>
      </trkpt>
      <trkpt lat="44.97861" lon="6.46343">
        <ele>1709.8</ele>
        <time>2024-08-11T07:42:45Z</time>
      </trkpt>
      <trkpt lat="44.97861" lon="6.46343">
        <ele>1709.8</ele>
        <time>2024-08-11T07:42:46Z</time>
      </trkpt>
      <trkpt lat="44.97861" lon="6.46343">
        <ele>1709.8</ele>
        <time>2024-08-11T07:42:47Z</time>
      </trkpt>
      <trkpt lat="44.97861" lon="6.46343">
        <ele>1709.6</ele>
        <time>2024-08-11T07:42:48Z</time>
      </trkpt>
      <trkpt lat="44.97861" lon="6.46343">
        <ele>1709.4</ele>
        <time>2024-08-11T07:42:49Z</time>
      </trkpt>
      <trkpt lat="44.97861" lon="6.46343">
        <ele>1709.4</ele>
        <time>2024-08-11T07:42:50Z</time>
      </trkpt>
      <trkpt lat="44.97861" lon="6.46343">
        <ele>1709.2</ele>
        <time>2024-08-11T07:42:51Z</time>
      </trkpt>
      <trkpt lat="44.97861" lon="6.46343">
        <ele>1709</ele>
        <time>2024-08-11T07:42:52Z</time>
      </trkpt>
      <trkpt lat="44.97861" lon="6.46343">
        <ele>1709</ele>
        <time>2024-08-11T07:42:53Z</time>
      </trkpt>
      <trkpt lat="44.97861" lon="6.46343">
        <ele>1709</ele>
        <time>2024-08-11T07:42:54Z</time>
      </trkpt>
      <trkpt lat="44.97861" lon="6.46343">
        <ele>1709</ele>
        <time>2024-08-11T07:42:55Z</time>
      </trkpt>
      <trkpt lat="44.97861" lon="6.46343">
        <ele>1709</ele>
        <time>2024-08-11T07:42:56Z</time>
      </trkpt>
      <trkpt lat="44.97861" lon="6.46343">
        <ele>1709</ele>
        <time>2024-08-11T07:42:57Z</time>
      </trkpt>
      <trkpt lat="44.97861" lon="6.46343">
        <ele>1709</ele>
        <time>2024-08-11T07:42:58Z</time>
      </trkpt>
      <trkpt lat="44.97861" lon="6.46343">
        <ele>1709.4</ele>
        <time>2024-08-11T07:42:59Z</time>
      </trkpt>
      <trkpt lat="44.97861" lon="6.46343">
        <ele>1709.4</ele>
        <time>2024-08-11T07:43:00Z</time>
      </trkpt>
      <trkpt lat="44.97861" lon="6.46343">
        <ele>1709</ele>
        <time>2024-08-11T07:43:01Z</time>
      </trkpt>
      <trkpt lat="44.97861" lon="6.46343">
        <ele>1709</ele>
        <time>2024-08-11T07:43:02Z</time>
      </trkpt>
      <trkpt lat="44.97861" lon="6.46343">
        <ele>1709</ele>
        <time>2024-08-11T07:43:03Z</time>
      </trkpt>
      <trkpt lat="44.97861" lon="6.46343">
        <ele>1709</ele>
        <time>2024-08-11T07:43:04Z</time>
      </trkpt>
      <trkpt lat="44.97861" lon="6.46343">
        <ele>1709</ele>
        <time>2024-08-11T07:43:05Z</time>
      </trkpt>
      <trkpt lat="44.97861" lon="6.46343">
        <ele>1709</ele>
        <time>2024-08-11T07:43:06Z</time>
      </trkpt>
      <trkpt lat="44.97861" lon="6.46343">
        <ele>1709</ele>
        <time>2024-08-11T07:43:07Z</time>
      </trkpt>
      <trkpt lat="44.97861" lon="6.46343">
        <ele>1709</ele>
        <time>2024-08-11T07:43:08Z</time>
      </trkpt>
      <trkpt lat="44.97861" lon="6.46343">
        <ele>1708.8</ele>
        <time>2024-08-11T07:43:09Z</time>
      </trkpt>
      <trkpt lat="44.97861" lon="6.46343">
        <ele>1708.8</ele>
        <time>2024-08-11T07:43:10Z</time>
      </trkpt>
      <trkpt lat="44.97861" lon="6.46343">
        <ele>1708.6</ele>
        <time>2024-08-11T07:43:11Z</time>
      </trkpt>
      <trkpt lat="44.97861" lon="6.46343">
        <ele>1708.4</ele>
        <time>2024-08-11T07:43:12Z</time>
      </trkpt>
      <trkpt lat="44.97861" lon="6.46343">
        <ele>1708.4</ele>
        <time>2024-08-11T07:43:13Z</time>
      </trkpt>
      <trkpt lat="44.97861" lon="6.46343">
        <ele>1708.4</ele>
        <time>2024-08-11T07:43:14Z</time>
      </trkpt>
      <trkpt lat="44.97861" lon="6.46343">
        <ele>1708.4</ele>
        <time>2024-08-11T07:43:15Z</time>
      </trkpt>
      <trkpt lat="44.97861" lon="6.46343">
        <ele>1708.8</ele>
        <time>2024-08-11T07:43:16Z</time>
      </trkpt>
      <trkpt lat="44.97861" lon="6.46343">
        <ele>1708.8</ele>
        <time>2024-08-11T07:43:17Z</time>
      </trkpt>
      <trkpt lat="44.97861" lon="6.46343">
        <ele>1708.8</ele>
        <time>2024-08-11T07:43:18Z</time>
      </trkpt>
      <trkpt lat="44.97861" lon="6.46343">
        <ele>1708.8</ele>
        <time>2024-08-11T07:43:19Z</time>
      </trkpt>
      <trkpt lat="44.97861" lon="6.46343">
        <ele>1708.8</ele>
        <time>2024-08-11T07:43:20Z</time>
      </trkpt>
      <trkpt lat="44.97861" lon="6.46343">
        <ele>1708.8</ele>
        <time>2024-08-11T07:43:21Z</time>
      </trkpt>
      <trkpt lat="44.97861" lon="6.46343">
        <ele>1708.8</ele>
        <time>2024-08-11T07:43:22Z</time>
      </trkpt>
      <trkpt lat="44.97861" lon="6.46343">
        <ele>1708.6</ele>
        <time>2024-08-11T07:43:23Z</time>
      </trkpt>
      <trkpt lat="44.97861" lon="6.46343">
        <ele>1708.4</ele>
        <time>2024-08-11T07:43:24Z</time>
      </trkpt>
      <trkpt lat="44.97861" lon="6.46343">
        <ele>1708.2</ele>
        <time>2024-08-11T07:43:25Z</time>
      </trkpt>
      <trkpt lat="44.97861" lon="6.46343">
        <ele>1708.2</ele>
        <time>2024-08-11T07:43:26Z</time>
      </trkpt>
      <trkpt lat="44.97861" lon="6.46343">
        <ele>1708.2</ele>
        <time>2024-08-11T07:43:27Z</time>
      </trkpt>
      <trkpt lat="44.97861" lon="6.46343">
        <ele>1708.2</ele>
        <time>2024-08-11T07:43:28Z</time>
      </trkpt>
      <trkpt lat="44.97861" lon="6.46343">
        <ele>1708.2</ele>
        <time>2024-08-11T07:43:29Z</time>
      </trkpt>
      <trkpt lat="44.97861" lon="6.46343">
        <ele>1708</ele>
        <time>2024-08-11T07:43:30Z</time>
      </trkpt>
      <trkpt lat="44.97861" lon="6.46343">
        <ele>1708</ele>
        <time>2024-08-11T07:43:31Z</time>
      </trkpt>
      <trkpt lat="44.97861" lon="6.46343">
        <ele>1707.4</ele>
        <time>2024-08-11T07:43:32Z</time>
      </trkpt>
      <trkpt lat="44.97861" lon="6.46343">
        <ele>1707.4</ele>
        <time>2024-08-11T07:43:33Z</time>
      </trkpt>
      <trkpt lat="44.97861" lon="6.46343">
        <ele>1707.4</ele>
        <time>2024-08-11T07:43:34Z</time>
      </trkpt>
      <trkpt lat="44.97861" lon="6.46343">
        <ele>1707.2</ele>
        <time>2024-08-11T07:43:35Z</time>
      </trkpt>
      <trkpt lat="44.97861" lon="6.46343">
        <ele>1707.2</ele>
        <time>2024-08-11T07:43:36Z</time>
      </trkpt>
      <trkpt lat="44.97861" lon="6.46343">
        <ele>1707.2</ele>
        <time>2024-08-11T07:43:37Z</time>
      </trkpt>
      <trkpt lat="44.97861" lon="6.46343">
        <ele>1707.2</ele>
        <time>2024-08-11T07:43:38Z</time>
      </trkpt>
      <trkpt lat="44.97861" lon="6.46343">
        <ele>1707.8</ele>
        <time>2024-08-11T07:43:39Z</time>
      </trkpt>
      <trkpt lat="44.97861" lon="6.46343">
        <ele>1708</ele>
        <time>2024-08-11T07:43:40Z</time>
      </trkpt>
      <trkpt lat="44.97861" lon="6.46343">
        <ele>1708</ele>
        <time>2024-08-11T07:43:41Z</time>
      </trkpt>
      <trkpt lat="44.97861" lon="6.46343">
        <ele>1708</ele>
        <time>2024-08-11T07:43:42Z</time>
      </trkpt>
      <trkpt lat="44.97861" lon="6.46343">
        <ele>1708</ele>
        <time>2024-08-11T07:43:43Z</time>
      </trkpt>
      <trkpt lat="44.97861" lon="6.46343">
        <ele>1707.6</ele>
        <time>2024-08-11T07:43:44Z</time>
      </trkpt>
      <trkpt lat="44.97861" lon="6.46343">
        <ele>1707.6</ele>
        <time>2024-08-11T07:43:45Z</time>
      </trkpt>
      <trkpt lat="44.97861" lon="6.46343">
        <ele>1707.6</ele>
        <time>2024-08-11T07:43:46Z</time>
      </trkpt>
      <trkpt lat="44.97861" lon="6.46343">
        <ele>1707.8</ele>
        <time>2024-08-11T07:43:47Z</time>
      </trkpt>
      <trkpt lat="44.97861" lon="6.46343">
        <ele>1707.8</ele>
        <time>2024-08-11T07:43:48Z</time>
      </trkpt>
      <trkpt lat="44.97861" lon="6.46343">
        <ele>1707.6</ele>
        <time>2024-08-11T07:43:49Z</time>
      </trkpt>
      <trkpt lat="44.97861" lon="6.46343">
        <ele>1707.6</ele>
        <time>2024-08-11T07:43:50Z</time>
      </trkpt>
      <trkpt lat="44.97861" lon="6.46343">
        <ele>1707.6</ele>
        <time>2024-08-11T07:43:51Z</time>
      </trkpt>
      <trkpt lat="44.97861" lon="6.46343">
        <ele>1707.6</ele>
        <time>2024-08-11T07:43:52Z</time>
      </trkpt>
      <trkpt lat="44.97861" lon="6.46343">
        <ele>1707.8</ele>
        <time>2024-08-11T07:43:53Z</time>
      </trkpt>
      <trkpt lat="44.97861" lon="6.46343">
        <ele>1707.8</ele>
        <time>2024-08-11T07:43:54Z</time>
      </trkpt>
      <trkpt lat="44.97861" lon="6.46343">
        <ele>1707.8</ele>
        <time>2024-08-11T07:43:55Z</time>
      </trkpt>
      <trkpt lat="44.97861" lon="6.46343">
        <ele>1707.8</ele>
        <time>2024-08-11T07:43:56Z</time>
      </trkpt>
      <trkpt lat="44.97861" lon="6.46343">
        <ele>1707.6</ele>
        <time>2024-08-11T07:43:57Z</time>
      </trkpt>
      <trkpt lat="44.97861" lon="6.46343">
        <ele>1707.6</ele>
        <time>2024-08-11T07:43:58Z</time>
      </trkpt>
      <trkpt lat="44.97861" lon="6.46343">
        <ele>1707.8</ele>
        <time>2024-08-11T07:43:59Z</time>
      </trkpt>
      <trkpt lat="44.97861" lon="6.46343">
        <ele>1707.8</ele>
        <time>2024-08-11T07:44:00Z</time>
      </trkpt>
      <trkpt lat="44.97861" lon="6.46343">
        <ele>1707.8</ele>
        <time>2024-08-11T07:44:01Z</time>
      </trkpt>
      <trkpt lat="44.97861" lon="6.46343">
        <ele>1707.8</ele>
        <time>2024-08-11T07:44:02Z</time>
      </trkpt>
      <trkpt lat="44.97861" lon="6.46343">
        <ele>1707.6</ele>
        <time>2024-08-11T07:44:03Z</time>
      </trkpt>
      <trkpt lat="44.97861" lon="6.46343">
        <ele>1707.6</ele>
        <time>2024-08-11T07:44:04Z</time>
      </trkpt>
      <trkpt lat="44.97861" lon="6.46343">
        <ele>1707.6</ele>
        <time>2024-08-11T07:44:05Z</time>
      </trkpt>
      <trkpt lat="44.97861" lon="6.46343">
        <ele>1707.8</ele>
        <time>2024-08-11T07:44:06Z</time>
      </trkpt>
      <trkpt lat="44.97861" lon="6.46343">
        <ele>1707.8</ele>
        <time>2024-08-11T07:44:07Z</time>
      </trkpt>
      <trkpt lat="44.97861" lon="6.46343">
        <ele>1707.8</ele>
        <time>2024-08-11T07:44:08Z</time>
      </trkpt>
      <trkpt lat="44.97861" lon="6.46343">
        <ele>1707.6</ele>
        <time>2024-08-11T07:44:09Z</time>
      </trkpt>
      <trkpt lat="44.97861" lon="6.46343">
        <ele>1707.6</ele>
        <time>2024-08-11T07:44:10Z</time>
      </trkpt>
      <trkpt lat="44.97861" lon="6.46343">
        <ele>1707.4</ele>
        <time>2024-08-11T07:44:11Z</time>
      </trkpt>
      <trkpt lat="44.97861" lon="6.46343">
        <ele>1707.4</ele>
        <time>2024-08-11T07:44:12Z</time>
      </trkpt>
      <trkpt lat="44.97861" lon="6.46343">
        <ele>1707.4</ele>
        <time>2024-08-11T07:44:13Z</time>
      </trkpt>
      <trkpt lat="44.97861" lon="6.46343">
        <ele>1707.4</ele>
        <time>2024-08-11T07:44:14Z</time>
      </trkpt>
      <trkpt lat="44.97861" lon="6.46343">
        <ele>1707.2</ele>
        <time>2024-08-11T07:44:15Z</time>
      </trkpt>
      <trkpt lat="44.97861" lon="6.46343">
        <ele>1707.2</ele>
        <time>2024-08-11T07:44:16Z</time>
      </trkpt>
      <trkpt lat="44.97861" lon="6.46343">
        <ele>1707.2</ele>
        <time>2024-08-11T07:44:17Z</time>
      </trkpt>
      <trkpt lat="44.97861" lon="6.46343">
        <ele>1707</ele>
        <time>2024-08-11T07:44:18Z</time>
      </trkpt>
      <trkpt lat="44.97861" lon="6.46343">
        <ele>1707</ele>
        <time>2024-08-11T07:44:19Z</time>
      </trkpt>
      <trkpt lat="44.97861" lon="6.46343">
        <ele>1707</ele>
        <time>2024-08-11T07:44:20Z</time>
      </trkpt>
      <trkpt lat="44.97861" lon="6.46343">
        <ele>1707</ele>
        <time>2024-08-11T07:44:21Z</time>
      </trkpt>
      <trkpt lat="44.97861" lon="6.46343">
        <ele>1707.2</ele>
        <time>2024-08-11T07:44:22Z</time>
      </trkpt>
      <trkpt lat="44.97861" lon="6.46343">
        <ele>1707.2</ele>
        <time>2024-08-11T07:44:23Z</time>
      </trkpt>
      <trkpt lat="44.97861" lon="6.46343">
        <ele>1706.8</ele>
        <time>2024-08-11T07:44:24Z</time>
      </trkpt>
      <trkpt lat="44.97861" lon="6.46343">
        <ele>1706.6</ele>
        <time>2024-08-11T07:44:25Z</time>
      </trkpt>
      <trkpt lat="44.97861" lon="6.46343">
        <ele>1706.6</ele>
        <time>2024-08-11T07:44:26Z</time>
      </trkpt>
      <trkpt lat="44.97861" lon="6.46343">
        <ele>1706.6</ele>
        <time>2024-08-11T07:44:27Z</time>
      </trkpt>
      <trkpt lat="44.97861" lon="6.46343">
        <ele>1706.8</ele>
        <time>2024-08-11T07:44:28Z</time>
      </trkpt>
      <trkpt lat="44.97861" lon="6.46343">
        <ele>1706.8</ele>
        <time>2024-08-11T07:44:29Z</time>
      </trkpt>
      <trkpt lat="44.97861" lon="6.46343">
        <ele>1706.8</ele>
        <time>2024-08-11T07:44:30Z</time>
      </trkpt>
      <trkpt lat="44.97861" lon="6.46343">
        <ele>1706.8</ele>
        <time>2024-08-11T07:44:31Z</time>
      </trkpt>
      <trkpt lat="44.97861" lon="6.46343">
        <ele>1706.8</ele>
        <time>2024-08-11T07:44:32Z</time>
      </trkpt>
      <trkpt lat="44.97861" lon="6.46343">
        <ele>1706.8</ele>
        <time>2024-08-11T07:44:33Z</time>
      </trkpt>
      <trkpt lat="44.97861" lon="6.46343">
        <ele>1706.8</ele>
        <time>2024-08-11T07:44:34Z</time>
      </trkpt>
      <trkpt lat="44.97861" lon="6.46343">
        <ele>1707</ele>
        <time>2024-08-11T07:44:35Z</time>
      </trkpt>
      <trkpt lat="44.97861" lon="6.46343">
        <ele>1706.8</ele>
        <time>2024-08-11T07:44:36Z</time>
      </trkpt>
      <trkpt lat="44.97861" lon="6.46343">
        <ele>1706.8</ele>
        <time>2024-08-11T07:44:37Z</time>
      </trkpt>
      <trkpt lat="44.97861" lon="6.46343">
        <ele>1706.8</ele>
        <time>2024-08-11T07:44:38Z</time>
      </trkpt>
      <trkpt lat="44.97861" lon="6.46343">
        <ele>1706.8</ele>
        <time>2024-08-11T07:44:39Z</time>
      </trkpt>
      <trkpt lat="44.97861" lon="6.46343">
        <ele>1706.8</ele>
        <time>2024-08-11T07:44:40Z</time>
      </trkpt>
      <trkpt lat="44.97861" lon="6.46343">
        <ele>1706.8</ele>
        <time>2024-08-11T07:44:41Z</time>
      </trkpt>
      <trkpt lat="44.97861" lon="6.46343">
        <ele>1706.8</ele>
        <time>2024-08-11T07:44:42Z</time>
      </trkpt>
      <trkpt lat="44.97861" lon="6.46343">
        <ele>1707</ele>
        <time>2024-08-11T07:44:43Z</time>
      </trkpt>
      <trkpt lat="44.97861" lon="6.46343">
        <ele>1707.4</ele>
        <time>2024-08-11T07:44:44Z</time>
      </trkpt>
      <trkpt lat="44.97861" lon="6.46343">
        <ele>1707.4</ele>
        <time>2024-08-11T07:44:45Z</time>
      </trkpt>
      <trkpt lat="44.97861" lon="6.46343">
        <ele>1707.4</ele>
        <time>2024-08-11T07:44:46Z</time>
      </trkpt>
      <trkpt lat="44.97861" lon="6.46343">
        <ele>1707.4</ele>
        <time>2024-08-11T07:44:47Z</time>
      </trkpt>
      <trkpt lat="44.97861" lon="6.46343">
        <ele>1707.6</ele>
        <time>2024-08-11T07:44:48Z</time>
      </trkpt>
      <trkpt lat="44.97861" lon="6.46343">
        <ele>1707.6</ele>
        <time>2024-08-11T07:44:49Z</time>
      </trkpt>
      <trkpt lat="44.97861" lon="6.46343">
        <ele>1707.6</ele>
        <time>2024-08-11T07:44:50Z</time>
      </trkpt>
      <trkpt lat="44.97861" lon="6.46343">
        <ele>1707.8</ele>
        <time>2024-08-11T07:44:51Z</time>
      </trkpt>
      <trkpt lat="44.97861" lon="6.46343">
        <ele>1707.8</ele>
        <time>2024-08-11T07:44:52Z</time>
      </trkpt>
      <trkpt lat="44.97861" lon="6.46343">
        <ele>1707.6</ele>
        <time>2024-08-11T07:44:53Z</time>
      </trkpt>
      <trkpt lat="44.97861" lon="6.46343">
        <ele>1707.6</ele>
        <time>2024-08-11T07:44:54Z</time>
      </trkpt>
      <trkpt lat="44.97861" lon="6.46343">
        <ele>1707.6</ele>
        <time>2024-08-11T07:44:55Z</time>
      </trkpt>
      <trkpt lat="44.97861" lon="6.46343">
        <ele>1707.4</ele>
        <time>2024-08-11T07:44:56Z</time>
      </trkpt>
      <trkpt lat="44.97861" lon="6.46343">
        <ele>1707.6</ele>
        <time>2024-08-11T07:44:57Z</time>
      </trkpt>
      <trkpt lat="44.97861" lon="6.46343">
        <ele>1707.4</ele>
        <time>2024-08-11T07:44:58Z</time>
      </trkpt>
      <trkpt lat="44.97861" lon="6.46343">
        <ele>1707.4</ele>
        <time>2024-08-11T07:44:59Z</time>
      </trkpt>
      <trkpt lat="44.97861" lon="6.46343">
        <ele>1707</ele>
        <time>2024-08-11T07:45:00Z</time>
      </trkpt>
      <trkpt lat="44.97861" lon="6.46343">
        <ele>1707</ele>
        <time>2024-08-11T07:45:01Z</time>
      </trkpt>
      <trkpt lat="44.97861" lon="6.46343">
        <ele>1707</ele>
        <time>2024-08-11T07:45:02Z</time>
      </trkpt>
      <trkpt lat="44.97861" lon="6.46343">
        <ele>1707</ele>
        <time>2024-08-11T07:45:03Z</time>
      </trkpt>
      <trkpt lat="44.97861" lon="6.46343">
        <ele>1707</ele>
        <time>2024-08-11T07:45:04Z</time>
      </trkpt>
      <trkpt lat="44.97861" lon="6.46343">
        <ele>1707</ele>
        <time>2024-08-11T07:45:05Z</time>
      </trkpt>
      <trkpt lat="44.97861" lon="6.46343">
        <ele>1707</ele>
        <time>2024-08-11T07:45:06Z</time>
      </trkpt>
      <trkpt lat="44.97861" lon="6.46343">
        <ele>1707.2</ele>
        <time>2024-08-11T07:45:07Z</time>
      </trkpt>
      <trkpt lat="44.97861" lon="6.46343">
        <ele>1707.2</ele>
        <time>2024-08-11T07:45:08Z</time>
      </trkpt>
      <trkpt lat="44.97861" lon="6.46343">
        <ele>1707</ele>
        <time>2024-08-11T07:45:09Z</time>
      </trkpt>
      <trkpt lat="44.97861" lon="6.46343">
        <ele>1707</ele>
        <time>2024-08-11T07:45:10Z</time>
      </trkpt>
      <trkpt lat="44.97861" lon="6.46343">
        <ele>1707</ele>
        <time>2024-08-11T07:45:11Z</time>
      </trkpt>
      <trkpt lat="44.97861" lon="6.46343">
        <ele>1707</ele>
        <time>2024-08-11T07:45:12Z</time>
      </trkpt>
      <trkpt lat="44.97861" lon="6.46343">
        <ele>1707</ele>
        <time>2024-08-11T07:45:13Z</time>
      </trkpt>
      <trkpt lat="44.97861" lon="6.46343">
        <ele>1707</ele>
        <time>2024-08-11T07:45:14Z</time>
      </trkpt>
      <trkpt lat="44.97861" lon="6.46343">
        <ele>1707</ele>
        <time>2024-08-11T07:45:15Z</time>
      </trkpt>
      <trkpt lat="44.97861" lon="6.46343">
        <ele>1706.8</ele>
        <time>2024-08-11T07:45:16Z</time>
      </trkpt>
      <trkpt lat="44.97861" lon="6.46343">
        <ele>1706.8</ele>
        <time>2024-08-11T07:45:17Z</time>
      </trkpt>
      <trkpt lat="44.97861" lon="6.46343">
        <ele>1706.6</ele>
        <time>2024-08-11T07:45:18Z</time>
      </trkpt>
      <trkpt lat="44.97861" lon="6.46343">
        <ele>1706.6</ele>
        <time>2024-08-11T07:45:19Z</time>
      </trkpt>
      <trkpt lat="44.97861" lon="6.46343">
        <ele>1706.6</ele>
        <time>2024-08-11T07:45:20Z</time>
      </trkpt>
      <trkpt lat="44.97861" lon="6.46343">
        <ele>1706.8</ele>
        <time>2024-08-11T07:45:21Z</time>
      </trkpt>
      <trkpt lat="44.97861" lon="6.46343">
        <ele>1706.8</ele>
        <time>2024-08-11T07:45:22Z</time>
      </trkpt>
      <trkpt lat="44.97861" lon="6.46343">
        <ele>1706.8</ele>
        <time>2024-08-11T07:45:23Z</time>
      </trkpt>
      <trkpt lat="44.97861" lon="6.46343">
        <ele>1707</ele>
        <time>2024-08-11T07:45:24Z</time>
      </trkpt>
      <trkpt lat="44.97861" lon="6.46343">
        <ele>1707</ele>
        <time>2024-08-11T07:45:25Z</time>
      </trkpt>
      <trkpt lat="44.97861" lon="6.46343">
        <ele>1707</ele>
        <time>2024-08-11T07:45:26Z</time>
      </trkpt>
      <trkpt lat="44.97861" lon="6.46343">
        <ele>1707</ele>
        <time>2024-08-11T07:45:27Z</time>
      </trkpt>
      <trkpt lat="44.97861" lon="6.46343">
        <ele>1706.8</ele>
        <time>2024-08-11T07:45:28Z</time>
      </trkpt>
      <trkpt lat="44.97861" lon="6.46343">
        <ele>1706.8</ele>
        <time>2024-08-11T07:45:29Z</time>
      </trkpt>
      <trkpt lat="44.97861" lon="6.46343">
        <ele>1707</ele>
        <time>2024-08-11T07:45:30Z</time>
      </trkpt>
      <trkpt lat="44.97861" lon="6.46343">
        <ele>1707.2</ele>
        <time>2024-08-11T07:45:31Z</time>
      </trkpt>
      <trkpt lat="44.97861" lon="6.46343">
        <ele>1707.2</ele>
        <time>2024-08-11T07:45:32Z</time>
      </trkpt>
      <trkpt lat="44.97861" lon="6.46343">
        <ele>1707.2</ele>
        <time>2024-08-11T07:45:33Z</time>
      </trkpt>
      <trkpt lat="44.97861" lon="6.46343">
        <ele>1707</ele>
        <time>2024-08-11T07:45:34Z</time>
      </trkpt>
      <trkpt lat="44.97861" lon="6.46343">
        <ele>1707</ele>
        <time>2024-08-11T07:45:35Z</time>
      </trkpt>
      <trkpt lat="44.97861" lon="6.46343">
        <ele>1707</ele>
        <time>2024-08-11T07:45:36Z</time>
      </trkpt>
      <trkpt lat="44.97861" lon="6.46343">
        <ele>1707.2</ele>
        <time>2024-08-11T07:45:37Z</time>
      </trkpt>
      <trkpt lat="44.97861" lon="6.46343">
        <ele>1706.8</ele>
        <time>2024-08-11T07:45:38Z</time>
      </trkpt>
      <trkpt lat="44.97861" lon="6.46343">
        <ele>1707</ele>
        <time>2024-08-11T07:45:39Z</time>
      </trkpt>
      <trkpt lat="44.97861" lon="6.46343">
        <ele>1707</ele>
        <time>2024-08-11T07:45:40Z</time>
      </trkpt>
      <trkpt lat="44.97861" lon="6.46343">
        <ele>1707</ele>
        <time>2024-08-11T07:45:41Z</time>
      </trkpt>
      <trkpt lat="44.97861" lon="6.46343">
        <ele>1707</ele>
        <time>2024-08-11T07:45:42Z</time>
      </trkpt>
      <trkpt lat="44.97861" lon="6.46343">
        <ele>1707</ele>
        <time>2024-08-11T07:45:43Z</time>
      </trkpt>
      <trkpt lat="44.97861" lon="6.46343">
        <ele>1707</ele>
        <time>2024-08-11T07:45:44Z</time>
      </trkpt>
      <trkpt lat="44.97861" lon="6.46343">
        <ele>1707</ele>
        <time>2024-08-11T07:45:45Z</time>
      </trkpt>
      <trkpt lat="44.97861" lon="6.46343">
        <ele>1707</ele>
        <time>2024-08-11T07:45:46Z</time>
      </trkpt>
      <trkpt lat="44.97861" lon="6.46343">
        <ele>1707.2</ele>
        <time>2024-08-11T07:45:47Z</time>
      </trkpt>
      <trkpt lat="44.97861" lon="6.46343">
        <ele>1707.2</ele>
        <time>2024-08-11T07:45:48Z</time>
      </trkpt>
      <trkpt lat="44.97861" lon="6.46343">
        <ele>1707.2</ele>
        <time>2024-08-11T07:45:49Z</time>
      </trkpt>
      <trkpt lat="44.97861" lon="6.46343">
        <ele>1707</ele>
        <time>2024-08-11T07:45:50Z</time>
      </trkpt>
      <trkpt lat="44.97861" lon="6.46343">
        <ele>1706.8</ele>
        <time>2024-08-11T07:45:51Z</time>
      </trkpt>
      <trkpt lat="44.97861" lon="6.46343">
        <ele>1706.8</ele>
        <time>2024-08-11T07:45:52Z</time>
      </trkpt>
      <trkpt lat="44.97861" lon="6.46343">
        <ele>1707</ele>
        <time>2024-08-11T07:45:53Z</time>
      </trkpt>
      <trkpt lat="44.97861" lon="6.46343">
        <ele>1707.2</ele>
        <time>2024-08-11T07:45:54Z</time>
      </trkpt>
      <trkpt lat="44.97861" lon="6.46343">
        <ele>1707.2</ele>
        <time>2024-08-11T07:45:55Z</time>
      </trkpt>
      <trkpt lat="44.97861" lon="6.46343">
        <ele>1707.2</ele>
        <time>2024-08-11T07:45:56Z</time>
      </trkpt>
      <trkpt lat="44.97861" lon="6.46343">
        <ele>1707.2</ele>
        <time>2024-08-11T07:45:57Z</time>
      </trkpt>
      <trkpt lat="44.97861" lon="6.46343">
        <ele>1706.8</ele>
        <time>2024-08-11T07:45:58Z</time>
      </trkpt>
      <trkpt lat="44.97861" lon="6.46343">
        <ele>1706.8</ele>
        <time>2024-08-11T07:45:59Z</time>
      </trkpt>
      <trkpt lat="44.97861" lon="6.46343">
        <ele>1706.8</ele>
        <time>2024-08-11T07:46:00Z</time>
      </trkpt>
      <trkpt lat="44.97861" lon="6.46343">
        <ele>1706.8</ele>
        <time>2024-08-11T07:46:01Z</time>
      </trkpt>
      <trkpt lat="44.97861" lon="6.46343">
        <ele>1706.6</ele>
        <time>2024-08-11T07:46:02Z</time>
      </trkpt>
      <trkpt lat="44.97861" lon="6.46343">
        <ele>1706.6</ele>
        <time>2024-08-11T07:46:03Z</time>
      </trkpt>
      <trkpt lat="44.97861" lon="6.46343">
        <ele>1706.6</ele>
        <time>2024-08-11T07:46:04Z</time>
      </trkpt>
      <trkpt lat="44.97861" lon="6.46343">
        <ele>1706.6</ele>
        <time>2024-08-11T07:46:05Z</time>
      </trkpt>
      <trkpt lat="44.97861" lon="6.46343">
        <ele>1706.6</ele>
        <time>2024-08-11T07:46:06Z</time>
      </trkpt>
      <trkpt lat="44.97861" lon="6.46343">
        <ele>1707</ele>
        <time>2024-08-11T07:46:07Z</time>
      </trkpt>
      <trkpt lat="44.97861" lon="6.46343">
        <ele>1707</ele>
        <time>2024-08-11T07:46:08Z</time>
      </trkpt>
      <trkpt lat="44.97861" lon="6.46343">
        <ele>1707</ele>
        <time>2024-08-11T07:46:09Z</time>
      </trkpt>
      <trkpt lat="44.97861" lon="6.46343">
        <ele>1707</ele>
        <time>2024-08-11T07:46:10Z</time>
      </trkpt>
      <trkpt lat="44.97861" lon="6.46343">
        <ele>1707</ele>
        <time>2024-08-11T07:46:11Z</time>
      </trkpt>
      <trkpt lat="44.97861" lon="6.46343">
        <ele>1707</ele>
        <time>2024-08-11T07:46:12Z</time>
      </trkpt>
      <trkpt lat="44.97861" lon="6.46343">
        <ele>1706.8</ele>
        <time>2024-08-11T07:46:13Z</time>
      </trkpt>
      <trkpt lat="44.97861" lon="6.46343">
        <ele>1707</ele>
        <time>2024-08-11T07:46:14Z</time>
      </trkpt>
      <trkpt lat="44.97861" lon="6.46343">
        <ele>1707</ele>
        <time>2024-08-11T07:46:15Z</time>
      </trkpt>
      <trkpt lat="44.97861" lon="6.46343">
        <ele>1707</ele>
        <time>2024-08-11T07:46:16Z</time>
      </trkpt>
      <trkpt lat="44.97861" lon="6.46343">
        <ele>1706.8</ele>
        <time>2024-08-11T07:46:17Z</time>
      </trkpt>
      <trkpt lat="44.97861" lon="6.46343">
        <ele>1706.8</ele>
        <time>2024-08-11T07:46:18Z</time>
      </trkpt>
      <trkpt lat="44.97861" lon="6.46343">
        <ele>1707</ele>
        <time>2024-08-11T07:46:19Z</time>
      </trkpt>
      <trkpt lat="44.97861" lon="6.46343">
        <ele>1707.2</ele>
        <time>2024-08-11T07:46:20Z</time>
      </trkpt>
      <trkpt lat="44.97861" lon="6.46343">
        <ele>1707.2</ele>
        <time>2024-08-11T07:46:21Z</time>
      </trkpt>
      <trkpt lat="44.97861" lon="6.46343">
        <ele>1707.2</ele>
        <time>2024-08-11T07:46:22Z</time>
      </trkpt>
      <trkpt lat="44.97861" lon="6.46343">
        <ele>1707.2</ele>
        <time>2024-08-11T07:46:23Z</time>
      </trkpt>
      <trkpt lat="44.97861" lon="6.46343">
        <ele>1707.2</ele>
        <time>2024-08-11T07:46:24Z</time>
      </trkpt>
      <trkpt lat="44.97861" lon="6.46343">
        <ele>1707</ele>
        <time>2024-08-11T07:46:25Z</time>
      </trkpt>
      <trkpt lat="44.97861" lon="6.46343">
        <ele>1707</ele>
        <time>2024-08-11T07:46:26Z</time>
      </trkpt>
      <trkpt lat="44.97861" lon="6.46343">
        <ele>1706.8</ele>
        <time>2024-08-11T07:46:27Z</time>
      </trkpt>
      <trkpt lat="44.97861" lon="6.46343">
        <ele>1706.8</ele>
        <time>2024-08-11T07:46:28Z</time>
      </trkpt>
      <trkpt lat="44.97861" lon="6.46343">
        <ele>1707</ele>
        <time>2024-08-11T07:46:29Z</time>
      </trkpt>
      <trkpt lat="44.97861" lon="6.46343">
        <ele>1707</ele>
        <time>2024-08-11T07:46:30Z</time>
      </trkpt>
      <trkpt lat="44.97861" lon="6.46343">
        <ele>1707</ele>
        <time>2024-08-11T07:46:31Z</time>
      </trkpt>
      <trkpt lat="44.97861" lon="6.46343">
        <ele>1707.2</ele>
        <time>2024-08-11T07:46:32Z</time>
      </trkpt>
      <trkpt lat="44.97861" lon="6.46343">
        <ele>1707.2</ele>
        <time>2024-08-11T07:46:33Z</time>
      </trkpt>
      <trkpt lat="44.97861" lon="6.46343">
        <ele>1707.4</ele>
        <time>2024-08-11T07:46:34Z</time>
      </trkpt>
      <trkpt lat="44.97861" lon="6.46343">
        <ele>1707.6</ele>
        <time>2024-08-11T07:46:35Z</time>
      </trkpt>
      <trkpt lat="44.97861" lon="6.46343">
        <ele>1707.6</ele>
        <time>2024-08-11T07:46:36Z</time>
      </trkpt>
      <trkpt lat="44.97861" lon="6.46343">
        <ele>1707.6</ele>
        <time>2024-08-11T07:46:37Z</time>
      </trkpt>
      <trkpt lat="44.97861" lon="6.46343">
        <ele>1707.6</ele>
        <time>2024-08-11T07:46:38Z</time>
      </trkpt>
      <trkpt lat="44.97861" lon="6.46343">
        <ele>1707.6</ele>
        <time>2024-08-11T07:46:39Z</time>
      </trkpt>
      <trkpt lat="44.97861" lon="6.46343">
        <ele>1707.4</ele>
        <time>2024-08-11T07:46:40Z</time>
      </trkpt>
      <trkpt lat="44.97861" lon="6.46343">
        <ele>1707.2</ele>
        <time>2024-08-11T07:46:41Z</time>
      </trkpt>
      <trkpt lat="44.97861" lon="6.46343">
        <ele>1707</ele>
        <time>2024-08-11T07:46:42Z</time>
      </trkpt>
      <trkpt lat="44.97861" lon="6.46343">
        <ele>1706.8</ele>
        <time>2024-08-11T07:46:43Z</time>
      </trkpt>
      <trkpt lat="44.97861" lon="6.46343">
        <ele>1706.8</ele>
        <time>2024-08-11T07:46:44Z</time>
      </trkpt>
      <trkpt lat="44.97861" lon="6.46343">
        <ele>1706.8</ele>
        <time>2024-08-11T07:46:45Z</time>
      </trkpt>
      <trkpt lat="44.97861" lon="6.46343">
        <ele>1706.8</ele>
        <time>2024-08-11T07:46:46Z</time>
      </trkpt>
      <trkpt lat="44.97861" lon="6.46343">
        <ele>1706.8</ele>
        <time>2024-08-11T07:46:47Z</time>
      </trkpt>
      <trkpt lat="44.97861" lon="6.46343">
        <ele>1706.8</ele>
        <time>2024-08-11T07:46:48Z</time>
      </trkpt>
      <trkpt lat="44.97861" lon="6.46343">
        <ele>1706.8</ele>
        <time>2024-08-11T07:46:49Z</time>
      </trkpt>
      <trkpt lat="44.97861" lon="6.46343">
        <ele>1706.8</ele>
        <time>2024-08-11T07:46:50Z</time>
      </trkpt>
      <trkpt lat="44.97861" lon="6.46343">
        <ele>1706.8</ele>
        <time>2024-08-11T07:46:51Z</time>
      </trkpt>
      <trkpt lat="44.97861" lon="6.46343">
        <ele>1706.8</ele>
        <time>2024-08-11T07:46:52Z</time>
      </trkpt>
      <trkpt lat="44.97861" lon="6.46343">
        <ele>1706.8</ele>
        <time>2024-08-11T07:46:53Z</time>
      </trkpt>
      <trkpt lat="44.97861" lon="6.46343">
        <ele>1706.8</ele>
        <time>2024-08-11T07:46:54Z</time>
      </trkpt>
      <trkpt lat="44.97861" lon="6.46343">
        <ele>1706.8</ele>
        <time>2024-08-11T07:46:55Z</time>
      </trkpt>
      <trkpt lat="44.97861" lon="6.46343">
        <ele>1706.6</ele>
        <time>2024-08-11T07:46:56Z</time>
      </trkpt>
      <trkpt lat="44.97861" lon="6.46343">
        <ele>1706.6</ele>
        <time>2024-08-11T07:46:57Z</time>
      </trkpt>
      <trkpt lat="44.97861" lon="6.46343">
        <ele>1706.8</ele>
        <time>2024-08-11T07:46:58Z</time>
      </trkpt>
      <trkpt lat="44.97861" lon="6.46343">
        <ele>1706.8</ele>
        <time>2024-08-11T07:46:59Z</time>
      </trkpt>
      <trkpt lat="44.97861" lon="6.46343">
        <ele>1707</ele>
        <time>2024-08-11T07:47:00Z</time>
      </trkpt>
      <trkpt lat="44.97861" lon="6.46343">
        <ele>1707</ele>
        <time>2024-08-11T07:47:01Z</time>
      </trkpt>
      <trkpt lat="44.97861" lon="6.46343">
        <ele>1707</ele>
        <time>2024-08-11T07:47:02Z</time>
      </trkpt>
      <trkpt lat="44.97861" lon="6.46343">
        <ele>1707</ele>
        <time>2024-08-11T07:47:03Z</time>
      </trkpt>
      <trkpt lat="44.97861" lon="6.46343">
        <ele>1707</ele>
        <time>2024-08-11T07:47:04Z</time>
      </trkpt>
      <trkpt lat="44.97861" lon="6.46343">
        <ele>1707</ele>
        <time>2024-08-11T07:47:05Z</time>
      </trkpt>
      <trkpt lat="44.97861" lon="6.46343">
        <ele>1706.8</ele>
        <time>2024-08-11T07:47:06Z</time>
      </trkpt>
      <trkpt lat="44.97861" lon="6.46343">
        <ele>1706.8</ele>
        <time>2024-08-11T07:47:07Z</time>
      </trkpt>
      <trkpt lat="44.97861" lon="6.46343">
        <ele>1706.6</ele>
        <time>2024-08-11T07:47:08Z</time>
      </trkpt>
      <trkpt lat="44.97861" lon="6.46343">
        <ele>1706.4</ele>
        <time>2024-08-11T07:47:09Z</time>
      </trkpt>
      <trkpt lat="44.97861" lon="6.46343">
        <ele>1706.4</ele>
        <time>2024-08-11T07:47:10Z</time>
      </trkpt>
      <trkpt lat="44.97861" lon="6.46343">
        <ele>1706.4</ele>
        <time>2024-08-11T07:47:11Z</time>
      </trkpt>
      <trkpt lat="44.97861" lon="6.46343">
        <ele>1706.4</ele>
        <time>2024-08-11T07:47:12Z</time>
      </trkpt>
      <trkpt lat="44.97861" lon="6.46343">
        <ele>1706.4</ele>
        <time>2024-08-11T07:47:13Z</time>
      </trkpt>
      <trkpt lat="44.97861" lon="6.46343">
        <ele>1706.4</ele>
        <time>2024-08-11T07:47:14Z</time>
      </trkpt>
      <trkpt lat="44.97861" lon="6.46343">
        <ele>1706.4</ele>
        <time>2024-08-11T07:47:15Z</time>
      </trkpt>
      <trkpt lat="44.97861" lon="6.46343">
        <ele>1706.4</ele>
        <time>2024-08-11T07:47:16Z</time>
      </trkpt>
      <trkpt lat="44.97861" lon="6.46343">
        <ele>1706.4</ele>
        <time>2024-08-11T07:47:17Z</time>
      </trkpt>
      <trkpt lat="44.97861" lon="6.46343">
        <ele>1706.2</ele>
        <time>2024-08-11T07:47:18Z</time>
      </trkpt>
      <trkpt lat="44.97861" lon="6.46343">
        <ele>1706</ele>
        <time>2024-08-11T07:47:19Z</time>
      </trkpt>
      <trkpt lat="44.97861" lon="6.46343">
        <ele>1706</ele>
        <time>2024-08-11T07:47:20Z</time>
      </trkpt>
      <trkpt lat="44.97863" lon="6.46342">
        <ele>1705.6</ele>
        <time>2024-08-11T07:47:21Z</time>
      </trkpt>
      <trkpt lat="44.97863" lon="6.46342">
        <ele>1705.6</ele>
        <time>2024-08-11T07:47:22Z</time>
      </trkpt>
      <trkpt lat="44.97866" lon="6.46344">
        <ele>1705.2</ele>
        <time>2024-08-11T07:47:23Z</time>
      </trkpt>
      <trkpt lat="44.97866" lon="6.46344">
        <ele>1705</ele>
        <time>2024-08-11T07:47:24Z</time>
      </trkpt>
      <trkpt lat="44.97868" lon="6.46347">
        <ele>1704.8</ele>
        <time>2024-08-11T07:47:25Z</time>
      </trkpt>
      <trkpt lat="44.97869" lon="6.46348">
        <ele>1704.6</ele>
        <time>2024-08-11T07:47:26Z</time>
      </trkpt>
      <trkpt lat="44.97869" lon="6.46348">
        <ele>1704.4</ele>
        <time>2024-08-11T07:47:27Z</time>
      </trkpt>
      <trkpt lat="44.9787" lon="6.46352">
        <ele>1704.4</ele>
        <time>2024-08-11T07:47:28Z</time>
      </trkpt>
      <trkpt lat="44.9787" lon="6.46352">
        <ele>1704.2</ele>
        <time>2024-08-11T07:47:29Z</time>
      </trkpt>
      <trkpt lat="44.97872" lon="6.46356">
        <ele>1704.2</ele>
        <time>2024-08-11T07:47:30Z</time>
      </trkpt>
      <trkpt lat="44.97872" lon="6.46356">
        <ele>1704.2</ele>
        <time>2024-08-11T07:47:31Z</time>
      </trkpt>
      <trkpt lat="44.97872" lon="6.46356">
        <ele>1704.6</ele>
        <time>2024-08-11T07:47:32Z</time>
      </trkpt>
      <trkpt lat="44.97875" lon="6.4636">
        <ele>1704.6</ele>
        <time>2024-08-11T07:47:33Z</time>
      </trkpt>
      <trkpt lat="44.97876" lon="6.46361">
        <ele>1704.4</ele>
        <time>2024-08-11T07:47:34Z</time>
      </trkpt>
      <trkpt lat="44.97876" lon="6.46361">
        <ele>1704.4</ele>
        <time>2024-08-11T07:47:35Z</time>
      </trkpt>
      <trkpt lat="44.97879" lon="6.46362">
        <ele>1704</ele>
        <time>2024-08-11T07:47:36Z</time>
      </trkpt>
      <trkpt lat="44.97879" lon="6.46362">
        <ele>1704</ele>
        <time>2024-08-11T07:47:37Z</time>
      </trkpt>
      <trkpt lat="44.97881" lon="6.46364">
        <ele>1704</ele>
        <time>2024-08-11T07:47:38Z</time>
      </trkpt>
      <trkpt lat="44.97881" lon="6.46364">
        <ele>1704</ele>
        <time>2024-08-11T07:47:39Z</time>
      </trkpt>
      <trkpt lat="44.97884" lon="6.46364">
        <ele>1704</ele>
        <time>2024-08-11T07:47:40Z</time>
      </trkpt>
      <trkpt lat="44.97884" lon="6.46364">
        <ele>1704</ele>
        <time>2024-08-11T07:47:41Z</time>
      </trkpt>
      <trkpt lat="44.97887" lon="6.46365">
        <ele>1703.8</ele>
        <time>2024-08-11T07:47:42Z</time>
      </trkpt>
      <trkpt lat="44.97887" lon="6.46365">
        <ele>1703.6</ele>
        <time>2024-08-11T07:47:43Z</time>
      </trkpt>
      <trkpt lat="44.9789" lon="6.46366">
        <ele>1703.6</ele>
        <time>2024-08-11T07:47:44Z</time>
      </trkpt>
      <trkpt lat="44.9789" lon="6.46366">
        <ele>1703.6</ele>
        <time>2024-08-11T07:47:45Z</time>
      </trkpt>
      <trkpt lat="44.97893" lon="6.46366">
        <ele>1703.6</ele>
        <time>2024-08-11T07:47:46Z</time>
      </trkpt>
      <trkpt lat="44.97893" lon="6.46366">
        <ele>1703.6</ele>
        <time>2024-08-11T07:47:47Z</time>
      </trkpt>
      <trkpt lat="44.97895" lon="6.46368">
        <ele>1703.6</ele>
        <time>2024-08-11T07:47:48Z</time>
      </trkpt>
      <trkpt lat="44.97895" lon="6.46368">
        <ele>1703.6</ele>
        <time>2024-08-11T07:47:49Z</time>
      </trkpt>
      <trkpt lat="44.97897" lon="6.4637">
        <ele>1703.6</ele>
        <time>2024-08-11T07:47:50Z</time>
      </trkpt>
      <trkpt lat="44.97897" lon="6.4637">
        <ele>1703.6</ele>
        <time>2024-08-11T07:47:51Z</time>
      </trkpt>
      <trkpt lat="44.97897" lon="6.4637">
        <ele>1703.6</ele>
        <time>2024-08-11T07:47:52Z</time>
      </trkpt>
      <trkpt lat="44.979" lon="6.46375">
        <ele>1703.4</ele>
        <time>2024-08-11T07:47:53Z</time>
      </trkpt>
      <trkpt lat="44.97901" lon="6.46376">
        <ele>1703.4</ele>
        <time>2024-08-11T07:47:54Z</time>
      </trkpt>
      <trkpt lat="44.97901" lon="6.46376">
        <ele>1703.4</ele>
        <time>2024-08-11T07:47:55Z</time>
      </trkpt>
      <trkpt lat="44.97902" lon="6.46379">
        <ele>1703.4</ele>
        <time>2024-08-11T07:47:56Z</time>
      </trkpt>
      <trkpt lat="44.97902" lon="6.46379">
        <ele>1703.4</ele>
        <time>2024-08-11T07:47:57Z</time>
      </trkpt>
      <trkpt lat="44.97903" lon="6.46383">
        <ele>1703.2</ele>
        <time>2024-08-11T07:47:58Z</time>
      </trkpt>
      <trkpt lat="44.97903" lon="6.46383">
        <ele>1703</ele>
        <time>2024-08-11T07:47:59Z</time>
      </trkpt>
      <trkpt lat="44.97904" lon="6.46387">
        <ele>1702.8</ele>
        <time>2024-08-11T07:48:00Z</time>
      </trkpt>
      <trkpt lat="44.97904" lon="6.46387">
        <ele>1702.6</ele>
        <time>2024-08-11T07:48:01Z</time>
      </trkpt>
      <trkpt lat="44.97904" lon="6.4639">
        <ele>1702.4</ele>
        <time>2024-08-11T07:48:02Z</time>
      </trkpt>
      <trkpt lat="44.97904" lon="6.4639">
        <ele>1702.2</ele>
        <time>2024-08-11T07:48:03Z</time>
      </trkpt>
      <trkpt lat="44.97905" lon="6.46394">
        <ele>1702.2</ele>
        <time>2024-08-11T07:48:04Z</time>
      </trkpt>
      <trkpt lat="44.97905" lon="6.46394">
        <ele>1702.2</ele>
        <time>2024-08-11T07:48:05Z</time>
      </trkpt>
      <trkpt lat="44.97905" lon="6.46398">
        <ele>1702</ele>
        <time>2024-08-11T07:48:06Z</time>
      </trkpt>
      <trkpt lat="44.97905" lon="6.46398">
        <ele>1701.8</ele>
        <time>2024-08-11T07:48:07Z</time>
      </trkpt>
      <trkpt lat="44.97906" lon="6.46401">
        <ele>1701.8</ele>
        <time>2024-08-11T07:48:08Z</time>
      </trkpt>
      <trkpt lat="44.97906" lon="6.46401">
        <ele>1701.6</ele>
        <time>2024-08-11T07:48:09Z</time>
      </trkpt>
      <trkpt lat="44.97907" lon="6.46405">
        <ele>1701.6</ele>
        <time>2024-08-11T07:48:10Z</time>
      </trkpt>
      <trkpt lat="44.97907" lon="6.46405">
        <ele>1701.6</ele>
        <time>2024-08-11T07:48:11Z</time>
      </trkpt>
      <trkpt lat="44.97909" lon="6.46408">
        <ele>1701.2</ele>
        <time>2024-08-11T07:48:12Z</time>
      </trkpt>
      <trkpt lat="44.97909" lon="6.46408">
        <ele>1701.2</ele>
        <time>2024-08-11T07:48:13Z</time>
      </trkpt>
      <trkpt lat="44.97909" lon="6.46408">
        <ele>1701.2</ele>
        <time>2024-08-11T07:48:14Z</time>
      </trkpt>
      <trkpt lat="44.9791" lon="6.46413">
        <ele>1700.8</ele>
        <time>2024-08-11T07:48:15Z</time>
      </trkpt>
      <trkpt lat="44.97911" lon="6.46415">
        <ele>1700.6</ele>
        <time>2024-08-11T07:48:16Z</time>
      </trkpt>
      <trkpt lat="44.97911" lon="6.46415">
        <ele>1700.4</ele>
        <time>2024-08-11T07:48:17Z</time>
      </trkpt>
      <trkpt lat="44.97913" lon="6.46418">
        <ele>1700.4</ele>
        <time>2024-08-11T07:48:18Z</time>
      </trkpt>
      <trkpt lat="44.97913" lon="6.46418">
        <ele>1700.2</ele>
        <time>2024-08-11T07:48:19Z</time>
      </trkpt>
      <trkpt lat="44.97914" lon="6.46421">
        <ele>1700</ele>
        <time>2024-08-11T07:48:20Z</time>
      </trkpt>
      <trkpt lat="44.97914" lon="6.46421">
        <ele>1700</ele>
        <time>2024-08-11T07:48:21Z</time>
      </trkpt>
      <trkpt lat="44.97916" lon="6.46425">
        <ele>1699.8</ele>
        <time>2024-08-11T07:48:22Z</time>
      </trkpt>
      <trkpt lat="44.97916" lon="6.46425">
        <ele>1699.8</ele>
        <time>2024-08-11T07:48:23Z</time>
      </trkpt>
      <trkpt lat="44.97917" lon="6.46428">
        <ele>1699.4</ele>
        <time>2024-08-11T07:48:24Z</time>
      </trkpt>
      <trkpt lat="44.97917" lon="6.46428">
        <ele>1699.4</ele>
        <time>2024-08-11T07:48:25Z</time>
      </trkpt>
      <trkpt lat="44.97917" lon="6.46428">
        <ele>1699.2</ele>
        <time>2024-08-11T07:48:26Z</time>
      </trkpt>
      <trkpt lat="44.97919" lon="6.46434">
        <ele>1698.8</ele>
        <time>2024-08-11T07:48:27Z</time>
      </trkpt>
      <trkpt lat="44.9792" lon="6.46435">
        <ele>1698.8</ele>
        <time>2024-08-11T07:48:28Z</time>
      </trkpt>
      <trkpt lat="44.9792" lon="6.46435">
        <ele>1698.6</ele>
        <time>2024-08-11T07:48:29Z</time>
      </trkpt>
      <trkpt lat="44.97921" lon="6.46438">
        <ele>1698.6</ele>
        <time>2024-08-11T07:48:30Z</time>
      </trkpt>
      <trkpt lat="44.97921" lon="6.46438">
        <ele>1698.6</ele>
        <time>2024-08-11T07:48:31Z</time>
      </trkpt>
      <trkpt lat="44.97921" lon="6.46438">
        <ele>1698.6</ele>
        <time>2024-08-11T07:48:32Z</time>
      </trkpt>
      <trkpt lat="44.97924" lon="6.46442">
        <ele>1698.6</ele>
        <time>2024-08-11T07:48:33Z</time>
      </trkpt>
      <trkpt lat="44.97925" lon="6.46443">
        <ele>1698.4</ele>
        <time>2024-08-11T07:48:34Z</time>
      </trkpt>
      <trkpt lat="44.97925" lon="6.46443">
        <ele>1698.4</ele>
        <time>2024-08-11T07:48:35Z</time>
      </trkpt>
      <trkpt lat="44.97926" lon="6.46446">
        <ele>1698.4</ele>
        <time>2024-08-11T07:48:36Z</time>
      </trkpt>
      <trkpt lat="44.97926" lon="6.46446">
        <ele>1698</ele>
        <time>2024-08-11T07:48:37Z</time>
      </trkpt>
      <trkpt lat="44.97928" lon="6.46448">
        <ele>1697.8</ele>
        <time>2024-08-11T07:48:38Z</time>
      </trkpt>
      <trkpt lat="44.97928" lon="6.46448">
        <ele>1697.6</ele>
        <time>2024-08-11T07:48:39Z</time>
      </trkpt>
      <trkpt lat="44.9793" lon="6.46451">
        <ele>1697.6</ele>
        <time>2024-08-11T07:48:40Z</time>
      </trkpt>
      <trkpt lat="44.9793" lon="6.46451">
        <ele>1697.4</ele>
        <time>2024-08-11T07:48:41Z</time>
      </trkpt>
      <trkpt lat="44.97932" lon="6.46454">
        <ele>1697</ele>
        <time>2024-08-11T07:48:42Z</time>
      </trkpt>
      <trkpt lat="44.97932" lon="6.46454">
        <ele>1697</ele>
        <time>2024-08-11T07:48:43Z</time>
      </trkpt>
      <trkpt lat="44.97932" lon="6.46454">
        <ele>1696.6</ele>
        <time>2024-08-11T07:48:44Z</time>
      </trkpt>
      <trkpt lat="44.97935" lon="6.46458">
        <ele>1696.6</ele>
        <time>2024-08-11T07:48:45Z</time>
      </trkpt>
      <trkpt lat="44.97936" lon="6.46459">
        <ele>1696.6</ele>
        <time>2024-08-11T07:48:46Z</time>
      </trkpt>
      <trkpt lat="44.97936" lon="6.46459">
        <ele>1696.6</ele>
        <time>2024-08-11T07:48:47Z</time>
      </trkpt>
      <trkpt lat="44.97939" lon="6.46461">
        <ele>1696.6</ele>
        <time>2024-08-11T07:48:48Z</time>
      </trkpt>
      <trkpt lat="44.97939" lon="6.46461">
        <ele>1696.4</ele>
        <time>2024-08-11T07:48:49Z</time>
      </trkpt>
      <trkpt lat="44.9794" lon="6.46464">
        <ele>1696.2</ele>
        <time>2024-08-11T07:48:50Z</time>
      </trkpt>
      <trkpt lat="44.9794" lon="6.46464">
        <ele>1695.8</ele>
        <time>2024-08-11T07:48:51Z</time>
      </trkpt>
      <trkpt lat="44.97942" lon="6.46467">
        <ele>1695.6</ele>
        <time>2024-08-11T07:48:52Z</time>
      </trkpt>
      <trkpt lat="44.97942" lon="6.46467">
        <ele>1695.6</ele>
        <time>2024-08-11T07:48:53Z</time>
      </trkpt>
      <trkpt lat="44.97943" lon="6.46469">
        <ele>1695.4</ele>
        <time>2024-08-11T07:48:54Z</time>
      </trkpt>
      <trkpt lat="44.97943" lon="6.46469">
        <ele>1695</ele>
        <time>2024-08-11T07:48:55Z</time>
      </trkpt>
      <trkpt lat="44.97945" lon="6.46472">
        <ele>1695</ele>
        <time>2024-08-11T07:48:56Z</time>
      </trkpt>
      <trkpt lat="44.97945" lon="6.46472">
        <ele>1694.8</ele>
        <time>2024-08-11T07:48:57Z</time>
      </trkpt>
      <trkpt lat="44.97947" lon="6.46475">
        <ele>1694.8</ele>
        <time>2024-08-11T07:48:58Z</time>
      </trkpt>
      <trkpt lat="44.97947" lon="6.46475">
        <ele>1694.6</ele>
        <time>2024-08-11T07:48:59Z</time>
      </trkpt>
      <trkpt lat="44.9795" lon="6.46476">
        <ele>1694.4</ele>
        <time>2024-08-11T07:49:00Z</time>
      </trkpt>
      <trkpt lat="44.9795" lon="6.46476">
        <ele>1694.4</ele>
        <time>2024-08-11T07:49:01Z</time>
      </trkpt>
      <trkpt lat="44.97951" lon="6.46479">
        <ele>1694.2</ele>
        <time>2024-08-11T07:49:02Z</time>
      </trkpt>
      <trkpt lat="44.97951" lon="6.46479">
        <ele>1694.2</ele>
        <time>2024-08-11T07:49:03Z</time>
      </trkpt>
      <trkpt lat="44.97953" lon="6.46482">
        <ele>1694.2</ele>
        <time>2024-08-11T07:49:04Z</time>
      </trkpt>
      <trkpt lat="44.97953" lon="6.46482">
        <ele>1694</ele>
        <time>2024-08-11T07:49:05Z</time>
      </trkpt>
      <trkpt lat="44.97955" lon="6.46485">
        <ele>1694</ele>
        <time>2024-08-11T07:49:06Z</time>
      </trkpt>
      <trkpt lat="44.97955" lon="6.46485">
        <ele>1693.8</ele>
        <time>2024-08-11T07:49:07Z</time>
      </trkpt>
      <trkpt lat="44.97955" lon="6.46485">
        <ele>1693.6</ele>
        <time>2024-08-11T07:49:08Z</time>
      </trkpt>
      <trkpt lat="44.97958" lon="6.46488">
        <ele>1693.4</ele>
        <time>2024-08-11T07:49:09Z</time>
      </trkpt>
      <trkpt lat="44.97959" lon="6.46489">
        <ele>1693.4</ele>
        <time>2024-08-11T07:49:10Z</time>
      </trkpt>
      <trkpt lat="44.97959" lon="6.46489">
        <ele>1693.2</ele>
        <time>2024-08-11T07:49:11Z</time>
      </trkpt>
      <trkpt lat="44.97961" lon="6.46492">
        <ele>1693.2</ele>
        <time>2024-08-11T07:49:12Z</time>
      </trkpt>
      <trkpt lat="44.97961" lon="6.46492">
        <ele>1693</ele>
        <time>2024-08-11T07:49:13Z</time>
      </trkpt>
      <trkpt lat="44.97964" lon="6.46494">
        <ele>1692.8</ele>
        <time>2024-08-11T07:49:14Z</time>
      </trkpt>
      <trkpt lat="44.97964" lon="6.46494">
        <ele>1692.8</ele>
        <time>2024-08-11T07:49:15Z</time>
      </trkpt>
      <trkpt lat="44.97966" lon="6.46496">
        <ele>1692.8</ele>
        <time>2024-08-11T07:49:16Z</time>
      </trkpt>
      <trkpt lat="44.97966" lon="6.46496">
        <ele>1692.6</ele>
        <time>2024-08-11T07:49:17Z</time>
      </trkpt>
      <trkpt lat="44.97969" lon="6.46498">
        <ele>1692.4</ele>
        <time>2024-08-11T07:49:18Z</time>
      </trkpt>
      <trkpt lat="44.97969" lon="6.46498">
        <ele>1692.4</ele>
        <time>2024-08-11T07:49:19Z</time>
      </trkpt>
      <trkpt lat="44.97971" lon="6.465">
        <ele>1692.2</ele>
        <time>2024-08-11T07:49:20Z</time>
      </trkpt>
      <trkpt lat="44.97971" lon="6.465">
        <ele>1692</ele>
        <time>2024-08-11T07:49:21Z</time>
      </trkpt>
      <trkpt lat="44.97973" lon="6.46501">
        <ele>1692</ele>
        <time>2024-08-11T07:49:22Z</time>
      </trkpt>
      <trkpt lat="44.97973" lon="6.46501">
        <ele>1691.8</ele>
        <time>2024-08-11T07:49:23Z</time>
      </trkpt>
      <trkpt lat="44.97975" lon="6.46503">
        <ele>1691.8</ele>
        <time>2024-08-11T07:49:24Z</time>
      </trkpt>
      <trkpt lat="44.97975" lon="6.46503">
        <ele>1691.8</ele>
        <time>2024-08-11T07:49:25Z</time>
      </trkpt>
      <trkpt lat="44.97978" lon="6.46505">
        <ele>1691.8</ele>
        <time>2024-08-11T07:49:26Z</time>
      </trkpt>
      <trkpt lat="44.97978" lon="6.46505">
        <ele>1691.6</ele>
        <time>2024-08-11T07:49:27Z</time>
      </trkpt>
      <trkpt lat="44.97979" lon="6.46507">
        <ele>1691.2</ele>
        <time>2024-08-11T07:49:28Z</time>
      </trkpt>
      <trkpt lat="44.97979" lon="6.46507">
        <ele>1691.2</ele>
        <time>2024-08-11T07:49:29Z</time>
      </trkpt>
      <trkpt lat="44.97982" lon="6.46509">
        <ele>1691.2</ele>
        <time>2024-08-11T07:49:30Z</time>
      </trkpt>
      <trkpt lat="44.97982" lon="6.46509">
        <ele>1691</ele>
        <time>2024-08-11T07:49:31Z</time>
      </trkpt>
      <trkpt lat="44.97984" lon="6.46512">
        <ele>1691</ele>
        <time>2024-08-11T07:49:32Z</time>
      </trkpt>
      <trkpt lat="44.97984" lon="6.46512">
        <ele>1691</ele>
        <time>2024-08-11T07:49:33Z</time>
      </trkpt>
      <trkpt lat="44.97985" lon="6.46514">
        <ele>1690.8</ele>
        <time>2024-08-11T07:49:34Z</time>
      </trkpt>
      <trkpt lat="44.97985" lon="6.46514">
        <ele>1690.4</ele>
        <time>2024-08-11T07:49:35Z</time>
      </trkpt>
      <trkpt lat="44.97987" lon="6.46518">
        <ele>1690.2</ele>
        <time>2024-08-11T07:49:36Z</time>
      </trkpt>
      <trkpt lat="44.97987" lon="6.46518">
        <ele>1690</ele>
        <time>2024-08-11T07:49:37Z</time>
      </trkpt>
      <trkpt lat="44.97989" lon="6.46521">
        <ele>1690</ele>
        <time>2024-08-11T07:49:38Z</time>
      </trkpt>
      <trkpt lat="44.97989" lon="6.46521">
        <ele>1689.8</ele>
        <time>2024-08-11T07:49:39Z</time>
      </trkpt>
      <trkpt lat="44.9799" lon="6.46524">
        <ele>1689.6</ele>
        <time>2024-08-11T07:49:40Z</time>
      </trkpt>
      <trkpt lat="44.9799" lon="6.46524">
        <ele>1689.6</ele>
        <time>2024-08-11T07:49:41Z</time>
      </trkpt>
      <trkpt lat="44.9799" lon="6.46527">
        <ele>1689.6</ele>
        <time>2024-08-11T07:49:42Z</time>
      </trkpt>
      <trkpt lat="44.9799" lon="6.46527">
        <ele>1689.6</ele>
        <time>2024-08-11T07:49:43Z</time>
      </trkpt>
      <trkpt lat="44.97991" lon="6.4653">
        <ele>1689.4</ele>
        <time>2024-08-11T07:49:44Z</time>
      </trkpt>
      <trkpt lat="44.97991" lon="6.4653">
        <ele>1689.4</ele>
        <time>2024-08-11T07:49:45Z</time>
      </trkpt>
      <trkpt lat="44.97992" lon="6.46533">
        <ele>1689.2</ele>
        <time>2024-08-11T07:49:46Z</time>
      </trkpt>
      <trkpt lat="44.97992" lon="6.46533">
        <ele>1688.8</ele>
        <time>2024-08-11T07:49:47Z</time>
      </trkpt>
      <trkpt lat="44.97994" lon="6.46536">
        <ele>1688.8</ele>
        <time>2024-08-11T07:49:48Z</time>
      </trkpt>
      <trkpt lat="44.97994" lon="6.46536">
        <ele>1688.2</ele>
        <time>2024-08-11T07:49:49Z</time>
      </trkpt>
      <trkpt lat="44.97994" lon="6.4654">
        <ele>1688.2</ele>
        <time>2024-08-11T07:49:50Z</time>
      </trkpt>
      <trkpt lat="44.97994" lon="6.4654">
        <ele>1688.2</ele>
        <time>2024-08-11T07:49:51Z</time>
      </trkpt>
      <trkpt lat="44.97995" lon="6.46544">
        <ele>1687.8</ele>
        <time>2024-08-11T07:49:52Z</time>
      </trkpt>
      <trkpt lat="44.97995" lon="6.46544">
        <ele>1687.6</ele>
        <time>2024-08-11T07:49:53Z</time>
      </trkpt>
      <trkpt lat="44.97997" lon="6.46548">
        <ele>1687.4</ele>
        <time>2024-08-11T07:49:54Z</time>
      </trkpt>
      <trkpt lat="44.97997" lon="6.46548">
        <ele>1687.2</ele>
        <time>2024-08-11T07:49:55Z</time>
      </trkpt>
      <trkpt lat="44.97997" lon="6.46551">
        <ele>1687</ele>
        <time>2024-08-11T07:49:56Z</time>
      </trkpt>
      <trkpt lat="44.97997" lon="6.46551">
        <ele>1687</ele>
        <time>2024-08-11T07:49:57Z</time>
      </trkpt>
      <trkpt lat="44.97998" lon="6.46555">
        <ele>1686.8</ele>
        <time>2024-08-11T07:49:58Z</time>
      </trkpt>
      <trkpt lat="44.97998" lon="6.46555">
        <ele>1686.8</ele>
        <time>2024-08-11T07:49:59Z</time>
      </trkpt>
      <trkpt lat="44.97998" lon="6.46558">
        <ele>1686.8</ele>
        <time>2024-08-11T07:50:00Z</time>
      </trkpt>
      <trkpt lat="44.97998" lon="6.46558">
        <ele>1686.6</ele>
        <time>2024-08-11T07:50:01Z</time>
      </trkpt>
      <trkpt lat="44.97998" lon="6.46558">
        <ele>1686.4</ele>
        <time>2024-08-11T07:50:02Z</time>
      </trkpt>
      <trkpt lat="44.97998" lon="6.46558">
        <ele>1686.4</ele>
        <time>2024-08-11T07:50:03Z</time>
      </trkpt>
      <trkpt lat="44.98" lon="6.46559">
        <ele>1686.2</ele>
        <time>2024-08-11T07:50:04Z</time>
      </trkpt>
      <trkpt lat="44.98" lon="6.46559">
        <ele>1685.8</ele>
        <time>2024-08-11T07:50:05Z</time>
      </trkpt>
      <trkpt lat="44.98" lon="6.46559">
        <ele>1685.6</ele>
        <time>2024-08-11T07:50:06Z</time>
      </trkpt>
      <trkpt lat="44.98002" lon="6.46558">
        <ele>1685.6</ele>
        <time>2024-08-11T07:50:07Z</time>
      </trkpt>
      <trkpt lat="44.98002" lon="6.46558">
        <ele>1685.4</ele>
        <time>2024-08-11T07:50:08Z</time>
      </trkpt>
      <trkpt lat="44.98002" lon="6.46558">
        <ele>1685.4</ele>
        <time>2024-08-11T07:50:09Z</time>
      </trkpt>
      <trkpt lat="44.98004" lon="6.4656">
        <ele>1685</ele>
        <time>2024-08-11T07:50:10Z</time>
      </trkpt>
      <trkpt lat="44.98004" lon="6.4656">
        <ele>1684.8</ele>
        <time>2024-08-11T07:50:11Z</time>
      </trkpt>
      <trkpt lat="44.98006" lon="6.46563">
        <ele>1684.6</ele>
        <time>2024-08-11T07:50:12Z</time>
      </trkpt>
      <trkpt lat="44.98006" lon="6.46563">
        <ele>1684.6</ele>
        <time>2024-08-11T07:50:13Z</time>
      </trkpt>
      <trkpt lat="44.98007" lon="6.46565">
        <ele>1684.2</ele>
        <time>2024-08-11T07:50:14Z</time>
      </trkpt>
      <trkpt lat="44.98007" lon="6.46565">
        <ele>1684</ele>
        <time>2024-08-11T07:50:15Z</time>
      </trkpt>
      <trkpt lat="44.98008" lon="6.46567">
        <ele>1683.8</ele>
        <time>2024-08-11T07:50:16Z</time>
      </trkpt>
      <trkpt lat="44.98008" lon="6.46567">
        <ele>1683.4</ele>
        <time>2024-08-11T07:50:17Z</time>
      </trkpt>
      <trkpt lat="44.98011" lon="6.46569">
        <ele>1683.2</ele>
        <time>2024-08-11T07:50:18Z</time>
      </trkpt>
      <trkpt lat="44.98011" lon="6.46569">
        <ele>1683</ele>
        <time>2024-08-11T07:50:19Z</time>
      </trkpt>
      <trkpt lat="44.98013" lon="6.46571">
        <ele>1682.8</ele>
        <time>2024-08-11T07:50:20Z</time>
      </trkpt>
      <trkpt lat="44.98013" lon="6.46571">
        <ele>1682.6</ele>
        <time>2024-08-11T07:50:21Z</time>
      </trkpt>
      <trkpt lat="44.98015" lon="6.46574">
        <ele>1682.4</ele>
        <time>2024-08-11T07:50:22Z</time>
      </trkpt>
      <trkpt lat="44.98016" lon="6.46575">
        <ele>1682.2</ele>
        <time>2024-08-11T07:50:23Z</time>
      </trkpt>
      <trkpt lat="44.98016" lon="6.46575">
        <ele>1681.8</ele>
        <time>2024-08-11T07:50:24Z</time>
      </trkpt>
      <trkpt lat="44.98018" lon="6.46577">
        <ele>1681.6</ele>
        <time>2024-08-11T07:50:25Z</time>
      </trkpt>
      <trkpt lat="44.98018" lon="6.46577">
        <ele>1681.6</ele>
        <time>2024-08-11T07:50:26Z</time>
      </trkpt>
      <trkpt lat="44.98019" lon="6.4658">
        <ele>1681.4</ele>
        <time>2024-08-11T07:50:27Z</time>
      </trkpt>
      <trkpt lat="44.98019" lon="6.4658">
        <ele>1681</ele>
        <time>2024-08-11T07:50:28Z</time>
      </trkpt>
      <trkpt lat="44.9802" lon="6.46581">
        <ele>1680.8</ele>
        <time>2024-08-11T07:50:29Z</time>
      </trkpt>
      <trkpt lat="44.9802" lon="6.46581">
        <ele>1680.6</ele>
        <time>2024-08-11T07:50:30Z</time>
      </trkpt>
      <trkpt lat="44.9802" lon="6.46581">
        <ele>1680.4</ele>
        <time>2024-08-11T07:50:31Z</time>
      </trkpt>
      <trkpt lat="44.98022" lon="6.46582">
        <ele>1680</ele>
        <time>2024-08-11T07:50:32Z</time>
      </trkpt>
      <trkpt lat="44.98022" lon="6.46582">
        <ele>1679.2</ele>
        <time>2024-08-11T07:50:33Z</time>
      </trkpt>
      <trkpt lat="44.98024" lon="6.4658">
        <ele>1679</ele>
        <time>2024-08-11T07:50:34Z</time>
      </trkpt>
      <trkpt lat="44.98024" lon="6.4658">
        <ele>1678.8</ele>
        <time>2024-08-11T07:50:35Z</time>
      </trkpt>
      <trkpt lat="44.98024" lon="6.46577">
        <ele>1678.6</ele>
        <time>2024-08-11T07:50:36Z</time>
      </trkpt>
      <trkpt lat="44.98024" lon="6.46577">
        <ele>1678.2</ele>
        <time>2024-08-11T07:50:37Z</time>
      </trkpt>
      <trkpt lat="44.98024" lon="6.46573">
        <ele>1678.2</ele>
        <time>2024-08-11T07:50:38Z</time>
      </trkpt>
      <trkpt lat="44.98024" lon="6.46573">
        <ele>1677.8</ele>
        <time>2024-08-11T07:50:39Z</time>
      </trkpt>
      <trkpt lat="44.98024" lon="6.46569">
        <ele>1677.8</ele>
        <time>2024-08-11T07:50:40Z</time>
      </trkpt>
      <trkpt lat="44.98024" lon="6.46569">
        <ele>1677.8</ele>
        <time>2024-08-11T07:50:41Z</time>
      </trkpt>
      <trkpt lat="44.98025" lon="6.46566">
        <ele>1677.6</ele>
        <time>2024-08-11T07:50:42Z</time>
      </trkpt>
      <trkpt lat="44.98025" lon="6.46566">
        <ele>1677.6</ele>
        <time>2024-08-11T07:50:43Z</time>
      </trkpt>
      <trkpt lat="44.98026" lon="6.46562">
        <ele>1677.6</ele>
        <time>2024-08-11T07:50:44Z</time>
      </trkpt>
      <trkpt lat="44.98026" lon="6.46562">
        <ele>1677.6</ele>
        <time>2024-08-11T07:50:45Z</time>
      </trkpt>
      <trkpt lat="44.98026" lon="6.46559">
        <ele>1677.2</ele>
        <time>2024-08-11T07:50:46Z</time>
      </trkpt>
      <trkpt lat="44.98026" lon="6.46559">
        <ele>1677.2</ele>
        <time>2024-08-11T07:50:47Z</time>
      </trkpt>
      <trkpt lat="44.98027" lon="6.46555">
        <ele>1676.8</ele>
        <time>2024-08-11T07:50:48Z</time>
      </trkpt>
      <trkpt lat="44.98027" lon="6.46555">
        <ele>1676.8</ele>
        <time>2024-08-11T07:50:49Z</time>
      </trkpt>
      <trkpt lat="44.98027" lon="6.46551">
        <ele>1676.6</ele>
        <time>2024-08-11T07:50:50Z</time>
      </trkpt>
      <trkpt lat="44.98027" lon="6.46551">
        <ele>1676.6</ele>
        <time>2024-08-11T07:50:51Z</time>
      </trkpt>
      <trkpt lat="44.98028" lon="6.46547">
        <ele>1676.4</ele>
        <time>2024-08-11T07:50:52Z</time>
      </trkpt>
      <trkpt lat="44.98028" lon="6.46547">
        <ele>1676.2</ele>
        <time>2024-08-11T07:50:53Z</time>
      </trkpt>
      <trkpt lat="44.9803" lon="6.46544">
        <ele>1676.2</ele>
        <time>2024-08-11T07:50:54Z</time>
      </trkpt>
      <trkpt lat="44.9803" lon="6.46544">
        <ele>1676.2</ele>
        <time>2024-08-11T07:50:55Z</time>
      </trkpt>
      <trkpt lat="44.9803" lon="6.46544">
        <ele>1676</ele>
        <time>2024-08-11T07:50:56Z</time>
      </trkpt>
      <trkpt lat="44.98032" lon="6.46539">
        <ele>1676</ele>
        <time>2024-08-11T07:50:57Z</time>
      </trkpt>
      <trkpt lat="44.98032" lon="6.46537">
        <ele>1676</ele>
        <time>2024-08-11T07:50:58Z</time>
      </trkpt>
      <trkpt lat="44.98032" lon="6.46537">
        <ele>1675.6</ele>
        <time>2024-08-11T07:50:59Z</time>
      </trkpt>
      <trkpt lat="44.98034" lon="6.46533">
        <ele>1675.6</ele>
        <time>2024-08-11T07:51:00Z</time>
      </trkpt>
      <trkpt lat="44.98034" lon="6.46533">
        <ele>1675.2</ele>
        <time>2024-08-11T07:51:01Z</time>
      </trkpt>
      <trkpt lat="44.98035" lon="6.4653">
        <ele>1675.2</ele>
        <time>2024-08-11T07:51:02Z</time>
      </trkpt>
      <trkpt lat="44.98035" lon="6.4653">
        <ele>1675.2</ele>
        <time>2024-08-11T07:51:03Z</time>
      </trkpt>
      <trkpt lat="44.98036" lon="6.46526">
        <ele>1674.8</ele>
        <time>2024-08-11T07:51:04Z</time>
      </trkpt>
      <trkpt lat="44.98036" lon="6.46526">
        <ele>1674.8</ele>
        <time>2024-08-11T07:51:05Z</time>
      </trkpt>
      <trkpt lat="44.98038" lon="6.46523">
        <ele>1674.8</ele>
        <time>2024-08-11T07:51:06Z</time>
      </trkpt>
      <trkpt lat="44.98038" lon="6.46523">
        <ele>1674.4</ele>
        <time>2024-08-11T07:51:07Z</time>
      </trkpt>
      <trkpt lat="44.98041" lon="6.46522">
        <ele>1674.2</ele>
        <time>2024-08-11T07:51:08Z</time>
      </trkpt>
      <trkpt lat="44.98041" lon="6.46522">
        <ele>1674</ele>
        <time>2024-08-11T07:51:09Z</time>
      </trkpt>
      <trkpt lat="44.98044" lon="6.46522">
        <ele>1673.8</ele>
        <time>2024-08-11T07:51:10Z</time>
      </trkpt>
      <trkpt lat="44.98045" lon="6.46522">
        <ele>1673.6</ele>
        <time>2024-08-11T07:51:11Z</time>
      </trkpt>
      <trkpt lat="44.98047" lon="6.46523">
        <ele>1673.6</ele>
        <time>2024-08-11T07:51:12Z</time>
      </trkpt>
      <trkpt lat="44.98048" lon="6.46524">
        <ele>1673.4</ele>
        <time>2024-08-11T07:51:13Z</time>
      </trkpt>
      <trkpt lat="44.98048" lon="6.46524">
        <ele>1673.2</ele>
        <time>2024-08-11T07:51:14Z</time>
      </trkpt>
      <trkpt lat="44.98051" lon="6.46526">
        <ele>1673</ele>
        <time>2024-08-11T07:51:15Z</time>
      </trkpt>
      <trkpt lat="44.98051" lon="6.46526">
        <ele>1672.8</ele>
        <time>2024-08-11T07:51:16Z</time>
      </trkpt>
      <trkpt lat="44.98051" lon="6.46526">
        <ele>1672.6</ele>
        <time>2024-08-11T07:51:17Z</time>
      </trkpt>
      <trkpt lat="44.98052" lon="6.46531">
        <ele>1672.6</ele>
        <time>2024-08-11T07:51:18Z</time>
      </trkpt>
      <trkpt lat="44.98053" lon="6.46532">
        <ele>1672.2</ele>
        <time>2024-08-11T07:51:19Z</time>
      </trkpt>
      <trkpt lat="44.98053" lon="6.46532">
        <ele>1672.2</ele>
        <time>2024-08-11T07:51:20Z</time>
      </trkpt>
      <trkpt lat="44.98054" lon="6.46535">
        <ele>1672.2</ele>
        <time>2024-08-11T07:51:21Z</time>
      </trkpt>
      <trkpt lat="44.98054" lon="6.46535">
        <ele>1671.6</ele>
        <time>2024-08-11T07:51:22Z</time>
      </trkpt>
      <trkpt lat="44.98054" lon="6.46539">
        <ele>1671.6</ele>
        <time>2024-08-11T07:51:23Z</time>
      </trkpt>
      <trkpt lat="44.98054" lon="6.46539">
        <ele>1671.4</ele>
        <time>2024-08-11T07:51:24Z</time>
      </trkpt>
      <trkpt lat="44.98055" lon="6.46543">
        <ele>1671.4</ele>
        <time>2024-08-11T07:51:25Z</time>
      </trkpt>
      <trkpt lat="44.98055" lon="6.46543">
        <ele>1671.2</ele>
        <time>2024-08-11T07:51:26Z</time>
      </trkpt>
      <trkpt lat="44.98055" lon="6.46546">
        <ele>1671.2</ele>
        <time>2024-08-11T07:51:27Z</time>
      </trkpt>
      <trkpt lat="44.98055" lon="6.46546">
        <ele>1671</ele>
        <time>2024-08-11T07:51:28Z</time>
      </trkpt>
      <trkpt lat="44.98056" lon="6.4655">
        <ele>1671</ele>
        <time>2024-08-11T07:51:29Z</time>
      </trkpt>
      <trkpt lat="44.98056" lon="6.4655">
        <ele>1671</ele>
        <time>2024-08-11T07:51:30Z</time>
      </trkpt>
      <trkpt lat="44.98055" lon="6.46554">
        <ele>1670.6</ele>
        <time>2024-08-11T07:51:31Z</time>
      </trkpt>
      <trkpt lat="44.98055" lon="6.46554">
        <ele>1670.6</ele>
        <time>2024-08-11T07:51:32Z</time>
      </trkpt>
      <trkpt lat="44.98055" lon="6.46554">
        <ele>1670.2</ele>
        <time>2024-08-11T07:51:33Z</time>
      </trkpt>
      <trkpt lat="44.98055" lon="6.46559">
        <ele>1670.2</ele>
        <time>2024-08-11T07:51:34Z</time>
      </trkpt>
      <trkpt lat="44.98054" lon="6.46561">
        <ele>1669.8</ele>
        <time>2024-08-11T07:51:35Z</time>
      </trkpt>
      <trkpt lat="44.98054" lon="6.46561">
        <ele>1669.6</ele>
        <time>2024-08-11T07:51:36Z</time>
      </trkpt>
      <trkpt lat="44.98054" lon="6.46564">
        <ele>1669.6</ele>
        <time>2024-08-11T07:51:37Z</time>
      </trkpt>
      <trkpt lat="44.98054" lon="6.46564">
        <ele>1669.2</ele>
        <time>2024-08-11T07:51:38Z</time>
      </trkpt>
      <trkpt lat="44.98053" lon="6.46567">
        <ele>1669.2</ele>
        <time>2024-08-11T07:51:39Z</time>
      </trkpt>
      <trkpt lat="44.98053" lon="6.46567">
        <ele>1669.2</ele>
        <time>2024-08-11T07:51:40Z</time>
      </trkpt>
      <trkpt lat="44.98052" lon="6.4657">
        <ele>1668.8</ele>
        <time>2024-08-11T07:51:41Z</time>
      </trkpt>
      <trkpt lat="44.98052" lon="6.4657">
        <ele>1668.6</ele>
        <time>2024-08-11T07:51:42Z</time>
      </trkpt>
      <trkpt lat="44.98052" lon="6.4657">
        <ele>1668.4</ele>
        <time>2024-08-11T07:51:43Z</time>
      </trkpt>
      <trkpt lat="44.98051" lon="6.46575">
        <ele>1668.4</ele>
        <time>2024-08-11T07:51:44Z</time>
      </trkpt>
      <trkpt lat="44.98051" lon="6.46575">
        <ele>1668.2</ele>
        <time>2024-08-11T07:51:45Z</time>
      </trkpt>
      <trkpt lat="44.98051" lon="6.46578">
        <ele>1668.2</ele>
        <time>2024-08-11T07:51:46Z</time>
      </trkpt>
      <trkpt lat="44.98052" lon="6.4658">
        <ele>1668</ele>
        <time>2024-08-11T07:51:47Z</time>
      </trkpt>
      <trkpt lat="44.98052" lon="6.4658">
        <ele>1667.8</ele>
        <time>2024-08-11T07:51:48Z</time>
      </trkpt>
      <trkpt lat="44.98053" lon="6.46583">
        <ele>1667.6</ele>
        <time>2024-08-11T07:51:49Z</time>
      </trkpt>
      <trkpt lat="44.98053" lon="6.46583">
        <ele>1667.6</ele>
        <time>2024-08-11T07:51:50Z</time>
      </trkpt>
      <trkpt lat="44.98053" lon="6.46586">
        <ele>1667.4</ele>
        <time>2024-08-11T07:51:51Z</time>
      </trkpt>
      <trkpt lat="44.98053" lon="6.46586">
        <ele>1667.2</ele>
        <time>2024-08-11T07:51:52Z</time>
      </trkpt>
      <trkpt lat="44.98053" lon="6.46586">
        <ele>1667.2</ele>
        <time>2024-08-11T07:51:53Z</time>
      </trkpt>
      <trkpt lat="44.98055" lon="6.46591">
        <ele>1667</ele>
        <time>2024-08-11T07:51:54Z</time>
      </trkpt>
      <trkpt lat="44.98055" lon="6.46593">
        <ele>1667</ele>
        <time>2024-08-11T07:51:55Z</time>
      </trkpt>
      <trkpt lat="44.98055" lon="6.46593">
        <ele>1666.6</ele>
        <time>2024-08-11T07:51:56Z</time>
      </trkpt>
      <trkpt lat="44.98055" lon="6.46596">
        <ele>1666.6</ele>
        <time>2024-08-11T07:51:57Z</time>
      </trkpt>
      <trkpt lat="44.98055" lon="6.46596">
        <ele>1666.6</ele>
        <time>2024-08-11T07:51:58Z</time>
      </trkpt>
      <trkpt lat="44.98055" lon="6.46596">
        <ele>1666.4</ele>
        <time>2024-08-11T07:51:59Z</time>
      </trkpt>
      <trkpt lat="44.98056" lon="6.46602">
        <ele>1666.4</ele>
        <time>2024-08-11T07:52:00Z</time>
      </trkpt>
      <trkpt lat="44.98056" lon="6.46604">
        <ele>1666</ele>
        <time>2024-08-11T07:52:01Z</time>
      </trkpt>
      <trkpt lat="44.98056" lon="6.46604">
        <ele>1665.8</ele>
        <time>2024-08-11T07:52:02Z</time>
      </trkpt>
      <trkpt lat="44.98055" lon="6.46607">
        <ele>1665.8</ele>
        <time>2024-08-11T07:52:03Z</time>
      </trkpt>
      <trkpt lat="44.98055" lon="6.46607">
        <ele>1665.6</ele>
        <time>2024-08-11T07:52:04Z</time>
      </trkpt>
      <trkpt lat="44.98055" lon="6.46607">
        <ele>1665.6</ele>
        <time>2024-08-11T07:52:05Z</time>
      </trkpt>
      <trkpt lat="44.98054" lon="6.46613">
        <ele>1665.2</ele>
        <time>2024-08-11T07:52:06Z</time>
      </trkpt>
      <trkpt lat="44.98053" lon="6.46615">
        <ele>1665</ele>
        <time>2024-08-11T07:52:07Z</time>
      </trkpt>
      <trkpt lat="44.98053" lon="6.46615">
        <ele>1665</ele>
        <time>2024-08-11T07:52:08Z</time>
      </trkpt>
      <trkpt lat="44.98053" lon="6.46615">
        <ele>1664.8</ele>
        <time>2024-08-11T07:52:09Z</time>
      </trkpt>
      <trkpt lat="44.98054" lon="6.4662">
        <ele>1664.6</ele>
        <time>2024-08-11T07:52:10Z</time>
      </trkpt>
      <trkpt lat="44.98054" lon="6.46622">
        <ele>1664.4</ele>
        <time>2024-08-11T07:52:11Z</time>
      </trkpt>
      <trkpt lat="44.98054" lon="6.46622">
        <ele>1664.2</ele>
        <time>2024-08-11T07:52:12Z</time>
      </trkpt>
      <trkpt lat="44.98055" lon="6.46625">
        <ele>1664.2</ele>
        <time>2024-08-11T07:52:13Z</time>
      </trkpt>
      <trkpt lat="44.98055" lon="6.46625">
        <ele>1664.2</ele>
        <time>2024-08-11T07:52:14Z</time>
      </trkpt>
      <trkpt lat="44.98056" lon="6.46629">
        <ele>1663.8</ele>
        <time>2024-08-11T07:52:15Z</time>
      </trkpt>
      <trkpt lat="44.98056" lon="6.46629">
        <ele>1663.8</ele>
        <time>2024-08-11T07:52:16Z</time>
      </trkpt>
      <trkpt lat="44.98057" lon="6.46631">
        <ele>1663.6</ele>
        <time>2024-08-11T07:52:17Z</time>
      </trkpt>
      <trkpt lat="44.98057" lon="6.46631">
        <ele>1663.2</ele>
        <time>2024-08-11T07:52:18Z</time>
      </trkpt>
      <trkpt lat="44.98059" lon="6.46634">
        <ele>1663.2</ele>
        <time>2024-08-11T07:52:19Z</time>
      </trkpt>
      <trkpt lat="44.98059" lon="6.46634">
        <ele>1663</ele>
        <time>2024-08-11T07:52:20Z</time>
      </trkpt>
      <trkpt lat="44.98061" lon="6.46637">
        <ele>1663</ele>
        <time>2024-08-11T07:52:21Z</time>
      </trkpt>
      <trkpt lat="44.98061" lon="6.46637">
        <ele>1662.6</ele>
        <time>2024-08-11T07:52:22Z</time>
      </trkpt>
      <trkpt lat="44.98061" lon="6.46637">
        <ele>1662.6</ele>
        <time>2024-08-11T07:52:23Z</time>
      </trkpt>
      <trkpt lat="44.98063" lon="6.46641">
        <ele>1662.6</ele>
        <time>2024-08-11T07:52:24Z</time>
      </trkpt>
      <trkpt lat="44.98064" lon="6.46643">
        <ele>1662.4</ele>
        <time>2024-08-11T07:52:25Z</time>
      </trkpt>
      <trkpt lat="44.98064" lon="6.46643">
        <ele>1662.4</ele>
        <time>2024-08-11T07:52:26Z</time>
      </trkpt>
      <trkpt lat="44.98065" lon="6.46646">
        <ele>1662</ele>
        <time>2024-08-11T07:52:27Z</time>
      </trkpt>
      <trkpt lat="44.98065" lon="6.46646">
        <ele>1662</ele>
        <time>2024-08-11T07:52:28Z</time>
      </trkpt>
      <trkpt lat="44.98065" lon="6.46646">
        <ele>1661.8</ele>
        <time>2024-08-11T07:52:29Z</time>
      </trkpt>
      <trkpt lat="44.98067" lon="6.46651">
        <ele>1661.8</ele>
        <time>2024-08-11T07:52:30Z</time>
      </trkpt>
      <trkpt lat="44.98068" lon="6.46653">
        <ele>1661.4</ele>
        <time>2024-08-11T07:52:31Z</time>
      </trkpt>
      <trkpt lat="44.98068" lon="6.46653">
        <ele>1661.2</ele>
        <time>2024-08-11T07:52:32Z</time>
      </trkpt>
      <trkpt lat="44.98069" lon="6.46656">
        <ele>1661.2</ele>
        <time>2024-08-11T07:52:33Z</time>
      </trkpt>
      <trkpt lat="44.98069" lon="6.46656">
        <ele>1661</ele>
        <time>2024-08-11T07:52:34Z</time>
      </trkpt>
      <trkpt lat="44.98069" lon="6.46656">
        <ele>1661</ele>
        <time>2024-08-11T07:52:35Z</time>
      </trkpt>
      <trkpt lat="44.9807" lon="6.46661">
        <ele>1660.8</ele>
        <time>2024-08-11T07:52:36Z</time>
      </trkpt>
      <trkpt lat="44.9807" lon="6.46663">
        <ele>1660.6</ele>
        <time>2024-08-11T07:52:37Z</time>
      </trkpt>
      <trkpt lat="44.9807" lon="6.46663">
        <ele>1660.6</ele>
        <time>2024-08-11T07:52:38Z</time>
      </trkpt>
      <trkpt lat="44.98071" lon="6.46666">
        <ele>1660.6</ele>
        <time>2024-08-11T07:52:39Z</time>
      </trkpt>
      <trkpt lat="44.98071" lon="6.46666">
        <ele>1660.4</ele>
        <time>2024-08-11T07:52:40Z</time>
      </trkpt>
      <trkpt lat="44.98071" lon="6.4667">
        <ele>1660.4</ele>
        <time>2024-08-11T07:52:41Z</time>
      </trkpt>
      <trkpt lat="44.98071" lon="6.4667">
        <ele>1660.4</ele>
        <time>2024-08-11T07:52:42Z</time>
      </trkpt>
      <trkpt lat="44.98072" lon="6.46674">
        <ele>1660</ele>
        <time>2024-08-11T07:52:43Z</time>
      </trkpt>
      <trkpt lat="44.98072" lon="6.46674">
        <ele>1659.8</ele>
        <time>2024-08-11T07:52:44Z</time>
      </trkpt>
      <trkpt lat="44.98072" lon="6.46674">
        <ele>1659.8</ele>
        <time>2024-08-11T07:52:45Z</time>
      </trkpt>
      <trkpt lat="44.98072" lon="6.46679">
        <ele>1659.8</ele>
        <time>2024-08-11T07:52:46Z</time>
      </trkpt>
      <trkpt lat="44.98072" lon="6.46681">
        <ele>1659.6</ele>
        <time>2024-08-11T07:52:47Z</time>
      </trkpt>
      <trkpt lat="44.98072" lon="6.46681">
        <ele>1659.4</ele>
        <time>2024-08-11T07:52:48Z</time>
      </trkpt>
      <trkpt lat="44.98073" lon="6.46685">
        <ele>1659.2</ele>
        <time>2024-08-11T07:52:49Z</time>
      </trkpt>
      <trkpt lat="44.98073" lon="6.46685">
        <ele>1659.2</ele>
        <time>2024-08-11T07:52:50Z</time>
      </trkpt>
      <trkpt lat="44.98073" lon="6.46688">
        <ele>1659</ele>
        <time>2024-08-11T07:52:51Z</time>
      </trkpt>
      <trkpt lat="44.98073" lon="6.46688">
        <ele>1659</ele>
        <time>2024-08-11T07:52:52Z</time>
      </trkpt>
      <trkpt lat="44.98073" lon="6.46688">
        <ele>1658.8</ele>
        <time>2024-08-11T07:52:53Z</time>
      </trkpt>
      <trkpt lat="44.98075" lon="6.46693">
        <ele>1658.6</ele>
        <time>2024-08-11T07:52:54Z</time>
      </trkpt>
      <trkpt lat="44.98076" lon="6.46695">
        <ele>1658.4</ele>
        <time>2024-08-11T07:52:55Z</time>
      </trkpt>
      <trkpt lat="44.98076" lon="6.46695">
        <ele>1658.4</ele>
        <time>2024-08-11T07:52:56Z</time>
      </trkpt>
      <trkpt lat="44.98077" lon="6.46698">
        <ele>1658.2</ele>
        <time>2024-08-11T07:52:57Z</time>
      </trkpt>
      <trkpt lat="44.98077" lon="6.46698">
        <ele>1658.2</ele>
        <time>2024-08-11T07:52:58Z</time>
      </trkpt>
      <trkpt lat="44.98077" lon="6.46698">
        <ele>1658</ele>
        <time>2024-08-11T07:52:59Z</time>
      </trkpt>
      <trkpt lat="44.98078" lon="6.46702">
        <ele>1657.8</ele>
        <time>2024-08-11T07:53:00Z</time>
      </trkpt>
      <trkpt lat="44.98079" lon="6.46704">
        <ele>1657.6</ele>
        <time>2024-08-11T07:53:01Z</time>
      </trkpt>
      <trkpt lat="44.98079" lon="6.46704">
        <ele>1657.4</ele>
        <time>2024-08-11T07:53:02Z</time>
      </trkpt>
      <trkpt lat="44.98081" lon="6.46707">
        <ele>1657.4</ele>
        <time>2024-08-11T07:53:03Z</time>
      </trkpt>
      <trkpt lat="44.98081" lon="6.46707">
        <ele>1657.2</ele>
        <time>2024-08-11T07:53:04Z</time>
      </trkpt>
      <trkpt lat="44.98084" lon="6.46709">
        <ele>1657.2</ele>
        <time>2024-08-11T07:53:05Z</time>
      </trkpt>
      <trkpt lat="44.98084" lon="6.46709">
        <ele>1657</ele>
        <time>2024-08-11T07:53:06Z</time>
      </trkpt>
      <trkpt lat="44.98085" lon="6.46711">
        <ele>1657</ele>
        <time>2024-08-11T07:53:07Z</time>
      </trkpt>
      <trkpt lat="44.98085" lon="6.46711">
        <ele>1656.8</ele>
        <time>2024-08-11T07:53:08Z</time>
      </trkpt>
      <trkpt lat="44.98087" lon="6.46714">
        <ele>1656.6</ele>
        <time>2024-08-11T07:53:09Z</time>
      </trkpt>
      <trkpt lat="44.98087" lon="6.46714">
        <ele>1656.6</ele>
        <time>2024-08-11T07:53:10Z</time>
      </trkpt>
      <trkpt lat="44.98089" lon="6.46717">
        <ele>1656.4</ele>
        <time>2024-08-11T07:53:11Z</time>
      </trkpt>
      <trkpt lat="44.98089" lon="6.46717">
        <ele>1656.2</ele>
        <time>2024-08-11T07:53:12Z</time>
      </trkpt>
      <trkpt lat="44.98092" lon="6.46719">
        <ele>1656</ele>
        <time>2024-08-11T07:53:13Z</time>
      </trkpt>
      <trkpt lat="44.98092" lon="6.46719">
        <ele>1656</ele>
        <time>2024-08-11T07:53:14Z</time>
      </trkpt>
      <trkpt lat="44.98093" lon="6.46721">
        <ele>1656</ele>
        <time>2024-08-11T07:53:15Z</time>
      </trkpt>
      <trkpt lat="44.98093" lon="6.46721">
        <ele>1655.8</ele>
        <time>2024-08-11T07:53:16Z</time>
      </trkpt>
      <trkpt lat="44.98093" lon="6.46721">
        <ele>1655.6</ele>
        <time>2024-08-11T07:53:17Z</time>
      </trkpt>
      <trkpt lat="44.98096" lon="6.46724">
        <ele>1655.4</ele>
        <time>2024-08-11T07:53:18Z</time>
      </trkpt>
      <trkpt lat="44.98097" lon="6.46726">
        <ele>1655.2</ele>
        <time>2024-08-11T07:53:19Z</time>
      </trkpt>
      <trkpt lat="44.98097" lon="6.46726">
        <ele>1655.2</ele>
        <time>2024-08-11T07:53:20Z</time>
      </trkpt>
      <trkpt lat="44.98099" lon="6.46727">
        <ele>1655</ele>
        <time>2024-08-11T07:53:21Z</time>
      </trkpt>
      <trkpt lat="44.98099" lon="6.46727">
        <ele>1654.8</ele>
        <time>2024-08-11T07:53:22Z</time>
      </trkpt>
      <trkpt lat="44.98101" lon="6.46729">
        <ele>1654.6</ele>
        <time>2024-08-11T07:53:23Z</time>
      </trkpt>
      <trkpt lat="44.98101" lon="6.46729">
        <ele>1654.4</ele>
        <time>2024-08-11T07:53:24Z</time>
      </trkpt>
      <trkpt lat="44.98101" lon="6.46729">
        <ele>1654.2</ele>
        <time>2024-08-11T07:53:25Z</time>
      </trkpt>
      <trkpt lat="44.98101" lon="6.46729">
        <ele>1654</ele>
        <time>2024-08-11T07:53:26Z</time>
      </trkpt>
      <trkpt lat="44.98103" lon="6.46733">
        <ele>1654</ele>
        <time>2024-08-11T07:53:27Z</time>
      </trkpt>
      <trkpt lat="44.98104" lon="6.46734">
        <ele>1653.8</ele>
        <time>2024-08-11T07:53:28Z</time>
      </trkpt>
      <trkpt lat="44.98104" lon="6.46734">
        <ele>1653.6</ele>
        <time>2024-08-11T07:53:29Z</time>
      </trkpt>
      <trkpt lat="44.98106" lon="6.46735">
        <ele>1653.2</ele>
        <time>2024-08-11T07:53:30Z</time>
      </trkpt>
      <trkpt lat="44.98106" lon="6.46735">
        <ele>1653.2</ele>
        <time>2024-08-11T07:53:31Z</time>
      </trkpt>
      <trkpt lat="44.98106" lon="6.46735">
        <ele>1653.2</ele>
        <time>2024-08-11T07:53:32Z</time>
      </trkpt>
      <trkpt lat="44.98108" lon="6.4674">
        <ele>1653.2</ele>
        <time>2024-08-11T07:53:33Z</time>
      </trkpt>
      <trkpt lat="44.98109" lon="6.4674">
        <ele>1653</ele>
        <time>2024-08-11T07:53:34Z</time>
      </trkpt>
      <trkpt lat="44.98109" lon="6.4674">
        <ele>1652.8</ele>
        <time>2024-08-11T07:53:35Z</time>
      </trkpt>
      <trkpt lat="44.98109" lon="6.4674">
        <ele>1652.4</ele>
        <time>2024-08-11T07:53:36Z</time>
      </trkpt>
      <trkpt lat="44.98109" lon="6.4674">
        <ele>1652.4</ele>
        <time>2024-08-11T07:53:37Z</time>
      </trkpt>
      <trkpt lat="44.98111" lon="6.4674">
        <ele>1652.4</ele>
        <time>2024-08-11T07:53:38Z</time>
      </trkpt>
      <trkpt lat="44.98111" lon="6.4674">
        <ele>1652</ele>
        <time>2024-08-11T07:53:39Z</time>
      </trkpt>
      <trkpt lat="44.98112" lon="6.46742">
        <ele>1651.8</ele>
        <time>2024-08-11T07:53:40Z</time>
      </trkpt>
      <trkpt lat="44.98112" lon="6.46742">
        <ele>1651.8</ele>
        <time>2024-08-11T07:53:41Z</time>
      </trkpt>
      <trkpt lat="44.98115" lon="6.46745">
        <ele>1651.8</ele>
        <time>2024-08-11T07:53:42Z</time>
      </trkpt>
      <trkpt lat="44.98118" lon="6.46748">
        <ele>1651.6</ele>
        <time>2024-08-11T07:53:43Z</time>
      </trkpt>
      <trkpt lat="44.98119" lon="6.4675">
        <ele>1651.2</ele>
        <time>2024-08-11T07:53:44Z</time>
      </trkpt>
      <trkpt lat="44.9812" lon="6.46751">
        <ele>1651</ele>
        <time>2024-08-11T07:53:45Z</time>
      </trkpt>
      <trkpt lat="44.9812" lon="6.46751">
        <ele>1651</ele>
        <time>2024-08-11T07:53:46Z</time>
      </trkpt>
      <trkpt lat="44.98123" lon="6.46753">
        <ele>1651</ele>
        <time>2024-08-11T07:53:47Z</time>
      </trkpt>
      <trkpt lat="44.98123" lon="6.46753">
        <ele>1650.8</ele>
        <time>2024-08-11T07:53:48Z</time>
      </trkpt>
      <trkpt lat="44.98125" lon="6.46755">
        <ele>1650.6</ele>
        <time>2024-08-11T07:53:49Z</time>
      </trkpt>
      <trkpt lat="44.98127" lon="6.46757">
        <ele>1650.4</ele>
        <time>2024-08-11T07:53:50Z</time>
      </trkpt>
      <trkpt lat="44.98127" lon="6.46757">
        <ele>1650.4</ele>
        <time>2024-08-11T07:53:51Z</time>
      </trkpt>
      <trkpt lat="44.98128" lon="6.46761">
        <ele>1650.4</ele>
        <time>2024-08-11T07:53:52Z</time>
      </trkpt>
      <trkpt lat="44.98128" lon="6.46761">
        <ele>1650.2</ele>
        <time>2024-08-11T07:53:53Z</time>
      </trkpt>
      <trkpt lat="44.98129" lon="6.46764">
        <ele>1650</ele>
        <time>2024-08-11T07:53:54Z</time>
      </trkpt>
      <trkpt lat="44.98129" lon="6.46764">
        <ele>1649.8</ele>
        <time>2024-08-11T07:53:55Z</time>
      </trkpt>
      <trkpt lat="44.98129" lon="6.46764">
        <ele>1649.8</ele>
        <time>2024-08-11T07:53:56Z</time>
      </trkpt>
      <trkpt lat="44.98129" lon="6.46768">
        <ele>1649.8</ele>
        <time>2024-08-11T07:53:57Z</time>
      </trkpt>
      <trkpt lat="44.98129" lon="6.46769">
        <ele>1649.8</ele>
        <time>2024-08-11T07:53:58Z</time>
      </trkpt>
      <trkpt lat="44.98129" lon="6.46769">
        <ele>1649.8</ele>
        <time>2024-08-11T07:53:59Z</time>
      </trkpt>
      <trkpt lat="44.98127" lon="6.46774">
        <ele>1649.8</ele>
        <time>2024-08-11T07:54:00Z</time>
      </trkpt>
      <trkpt lat="44.98127" lon="6.46776">
        <ele>1649.4</ele>
        <time>2024-08-11T07:54:01Z</time>
      </trkpt>
      <trkpt lat="44.98127" lon="6.46776">
        <ele>1649.4</ele>
        <time>2024-08-11T07:54:02Z</time>
      </trkpt>
      <trkpt lat="44.98126" lon="6.4678">
        <ele>1649.4</ele>
        <time>2024-08-11T07:54:03Z</time>
      </trkpt>
      <trkpt lat="44.98126" lon="6.4678">
        <ele>1649.4</ele>
        <time>2024-08-11T07:54:04Z</time>
      </trkpt>
      <trkpt lat="44.98126" lon="6.4678">
        <ele>1649</ele>
        <time>2024-08-11T07:54:05Z</time>
      </trkpt>
      <trkpt lat="44.98125" lon="6.46784">
        <ele>1648.8</ele>
        <time>2024-08-11T07:54:06Z</time>
      </trkpt>
      <trkpt lat="44.98124" lon="6.46786">
        <ele>1648.6</ele>
        <time>2024-08-11T07:54:07Z</time>
      </trkpt>
      <trkpt lat="44.98124" lon="6.46786">
        <ele>1648.6</ele>
        <time>2024-08-11T07:54:08Z</time>
      </trkpt>
      <trkpt lat="44.98123" lon="6.4679">
        <ele>1648.6</ele>
        <time>2024-08-11T07:54:09Z</time>
      </trkpt>
      <trkpt lat="44.98123" lon="6.4679">
        <ele>1648.2</ele>
        <time>2024-08-11T07:54:10Z</time>
      </trkpt>
      <trkpt lat="44.98122" lon="6.46794">
        <ele>1648</ele>
        <time>2024-08-11T07:54:11Z</time>
      </trkpt>
      <trkpt lat="44.98122" lon="6.46794">
        <ele>1648</ele>
        <time>2024-08-11T07:54:12Z</time>
      </trkpt>
      <trkpt lat="44.98123" lon="6.46798">
        <ele>1648</ele>
        <time>2024-08-11T07:54:13Z</time>
      </trkpt>
      <trkpt lat="44.98123" lon="6.46798">
        <ele>1647.8</ele>
        <time>2024-08-11T07:54:14Z</time>
      </trkpt>
      <trkpt lat="44.98122" lon="6.46802">
        <ele>1647.8</ele>
        <time>2024-08-11T07:54:15Z</time>
      </trkpt>
      <trkpt lat="44.98122" lon="6.46802">
        <ele>1647.6</ele>
        <time>2024-08-11T07:54:16Z</time>
      </trkpt>
      <trkpt lat="44.98121" lon="6.46806">
        <ele>1647.4</ele>
        <time>2024-08-11T07:54:17Z</time>
      </trkpt>
      <trkpt lat="44.98121" lon="6.46806">
        <ele>1647.2</ele>
        <time>2024-08-11T07:54:18Z</time>
      </trkpt>
      <trkpt lat="44.9812" lon="6.46809">
        <ele>1647.2</ele>
        <time>2024-08-11T07:54:19Z</time>
      </trkpt>
      <trkpt lat="44.9812" lon="6.46809">
        <ele>1647.2</ele>
        <time>2024-08-11T07:54:20Z</time>
      </trkpt>
      <trkpt lat="44.98121" lon="6.46813">
        <ele>1647.2</ele>
        <time>2024-08-11T07:54:21Z</time>
      </trkpt>
      <trkpt lat="44.98121" lon="6.46813">
        <ele>1646.8</ele>
        <time>2024-08-11T07:54:22Z</time>
      </trkpt>
      <trkpt lat="44.98121" lon="6.46816">
        <ele>1646.6</ele>
        <time>2024-08-11T07:54:23Z</time>
      </trkpt>
      <trkpt lat="44.98121" lon="6.46816">
        <ele>1646.6</ele>
        <time>2024-08-11T07:54:24Z</time>
      </trkpt>
      <trkpt lat="44.98121" lon="6.4682">
        <ele>1646.4</ele>
        <time>2024-08-11T07:54:25Z</time>
      </trkpt>
      <trkpt lat="44.98121" lon="6.4682">
        <ele>1646</ele>
        <time>2024-08-11T07:54:26Z</time>
      </trkpt>
      <trkpt lat="44.9812" lon="6.46823">
        <ele>1646</ele>
        <time>2024-08-11T07:54:27Z</time>
      </trkpt>
      <trkpt lat="44.9812" lon="6.46823">
        <ele>1645.8</ele>
        <time>2024-08-11T07:54:28Z</time>
      </trkpt>
      <trkpt lat="44.98121" lon="6.46825">
        <ele>1645.4</ele>
        <time>2024-08-11T07:54:29Z</time>
      </trkpt>
      <trkpt lat="44.98121" lon="6.46825">
        <ele>1645.2</ele>
        <time>2024-08-11T07:54:30Z</time>
      </trkpt>
      <trkpt lat="44.98123" lon="6.46828">
        <ele>1645.2</ele>
        <time>2024-08-11T07:54:31Z</time>
      </trkpt>
      <trkpt lat="44.98123" lon="6.46828">
        <ele>1645</ele>
        <time>2024-08-11T07:54:32Z</time>
      </trkpt>
      <trkpt lat="44.98127" lon="6.46829">
        <ele>1645</ele>
        <time>2024-08-11T07:54:33Z</time>
      </trkpt>
      <trkpt lat="44.98127" lon="6.46829">
        <ele>1644.6</ele>
        <time>2024-08-11T07:54:34Z</time>
      </trkpt>
      <trkpt lat="44.98127" lon="6.46829">
        <ele>1644.4</ele>
        <time>2024-08-11T07:54:35Z</time>
      </trkpt>
      <trkpt lat="44.9813" lon="6.46828">
        <ele>1644.4</ele>
        <time>2024-08-11T07:54:36Z</time>
      </trkpt>
      <trkpt lat="44.9813" lon="6.46828">
        <ele>1644.2</ele>
        <time>2024-08-11T07:54:37Z</time>
      </trkpt>
      <trkpt lat="44.98132" lon="6.46826">
        <ele>1644.2</ele>
        <time>2024-08-11T07:54:38Z</time>
      </trkpt>
      <trkpt lat="44.98132" lon="6.46826">
        <ele>1644</ele>
        <time>2024-08-11T07:54:39Z</time>
      </trkpt>
      <trkpt lat="44.98135" lon="6.46824">
        <ele>1643.8</ele>
        <time>2024-08-11T07:54:40Z</time>
      </trkpt>
      <trkpt lat="44.98135" lon="6.46824">
        <ele>1643.6</ele>
        <time>2024-08-11T07:54:41Z</time>
      </trkpt>
      <trkpt lat="44.98137" lon="6.46822">
        <ele>1643.6</ele>
        <time>2024-08-11T07:54:42Z</time>
      </trkpt>
      <trkpt lat="44.98137" lon="6.46822">
        <ele>1643.6</ele>
        <time>2024-08-11T07:54:43Z</time>
      </trkpt>
      <trkpt lat="44.98137" lon="6.46822">
        <ele>1643.6</ele>
        <time>2024-08-11T07:54:44Z</time>
      </trkpt>
      <trkpt lat="44.98141" lon="6.46819">
        <ele>1643.4</ele>
        <time>2024-08-11T07:54:45Z</time>
      </trkpt>
      <trkpt lat="44.98141" lon="6.46818">
        <ele>1643.2</ele>
        <time>2024-08-11T07:54:46Z</time>
      </trkpt>
      <trkpt lat="44.98141" lon="6.46818">
        <ele>1642.8</ele>
        <time>2024-08-11T07:54:47Z</time>
      </trkpt>
      <trkpt lat="44.98142" lon="6.46813">
        <ele>1642.8</ele>
        <time>2024-08-11T07:54:48Z</time>
      </trkpt>
      <trkpt lat="44.98142" lon="6.46813">
        <ele>1642.4</ele>
        <time>2024-08-11T07:54:49Z</time>
      </trkpt>
      <trkpt lat="44.98143" lon="6.4681">
        <ele>1642.2</ele>
        <time>2024-08-11T07:54:50Z</time>
      </trkpt>
      <trkpt lat="44.98143" lon="6.4681">
        <ele>1642.2</ele>
        <time>2024-08-11T07:54:51Z</time>
      </trkpt>
      <trkpt lat="44.98144" lon="6.46807">
        <ele>1642.2</ele>
        <time>2024-08-11T07:54:52Z</time>
      </trkpt>
      <trkpt lat="44.98144" lon="6.46807">
        <ele>1642.2</ele>
        <time>2024-08-11T07:54:53Z</time>
      </trkpt>
      <trkpt lat="44.98145" lon="6.46803">
        <ele>1642</ele>
        <time>2024-08-11T07:54:54Z</time>
      </trkpt>
      <trkpt lat="44.98145" lon="6.46803">
        <ele>1641.8</ele>
        <time>2024-08-11T07:54:55Z</time>
      </trkpt>
      <trkpt lat="44.98147" lon="6.46799">
        <ele>1641.6</ele>
        <time>2024-08-11T07:54:56Z</time>
      </trkpt>
      <trkpt lat="44.98147" lon="6.46799">
        <ele>1641.4</ele>
        <time>2024-08-11T07:54:57Z</time>
      </trkpt>
      <trkpt lat="44.9815" lon="6.46795">
        <ele>1641.4</ele>
        <time>2024-08-11T07:54:58Z</time>
      </trkpt>
      <trkpt lat="44.9815" lon="6.46795">
        <ele>1641</ele>
        <time>2024-08-11T07:54:59Z</time>
      </trkpt>
      <trkpt lat="44.98152" lon="6.46793">
        <ele>1641</ele>
        <time>2024-08-11T07:55:00Z</time>
      </trkpt>
      <trkpt lat="44.98152" lon="6.46793">
        <ele>1641</ele>
        <time>2024-08-11T07:55:01Z</time>
      </trkpt>
      <trkpt lat="44.98152" lon="6.46793">
        <ele>1640.6</ele>
        <time>2024-08-11T07:55:02Z</time>
      </trkpt>
      <trkpt lat="44.98155" lon="6.46789">
        <ele>1640.6</ele>
        <time>2024-08-11T07:55:03Z</time>
      </trkpt>
      <trkpt lat="44.98155" lon="6.46789">
        <ele>1640.6</ele>
        <time>2024-08-11T07:55:04Z</time>
      </trkpt>
      <trkpt lat="44.98156" lon="6.46787">
        <ele>1640.6</ele>
        <time>2024-08-11T07:55:05Z</time>
      </trkpt>
      <trkpt lat="44.98156" lon="6.46787">
        <ele>1640.2</ele>
        <time>2024-08-11T07:55:06Z</time>
      </trkpt>
      <trkpt lat="44.98158" lon="6.46786">
        <ele>1640.2</ele>
        <time>2024-08-11T07:55:07Z</time>
      </trkpt>
      <trkpt lat="44.98158" lon="6.46786">
        <ele>1640.2</ele>
        <time>2024-08-11T07:55:08Z</time>
      </trkpt>
      <trkpt lat="44.98161" lon="6.46786">
        <ele>1640.2</ele>
        <time>2024-08-11T07:55:09Z</time>
      </trkpt>
      <trkpt lat="44.98161" lon="6.46786">
        <ele>1640.2</ele>
        <time>2024-08-11T07:55:10Z</time>
      </trkpt>
      <trkpt lat="44.98161" lon="6.46786">
        <ele>1640.2</ele>
        <time>2024-08-11T07:55:11Z</time>
      </trkpt>
      <trkpt lat="44.98165" lon="6.46787">
        <ele>1640</ele>
        <time>2024-08-11T07:55:12Z</time>
      </trkpt>
      <trkpt lat="44.98165" lon="6.46787">
        <ele>1639.4</ele>
        <time>2024-08-11T07:55:13Z</time>
      </trkpt>
      <trkpt lat="44.98167" lon="6.46789">
        <ele>1639.2</ele>
        <time>2024-08-11T07:55:14Z</time>
      </trkpt>
      <trkpt lat="44.98167" lon="6.46791">
        <ele>1639.2</ele>
        <time>2024-08-11T07:55:15Z</time>
      </trkpt>
      <trkpt lat="44.98167" lon="6.46791">
        <ele>1639.2</ele>
        <time>2024-08-11T07:55:16Z</time>
      </trkpt>
      <trkpt lat="44.98169" lon="6.46794">
        <ele>1639</ele>
        <time>2024-08-11T07:55:17Z</time>
      </trkpt>
      <trkpt lat="44.98169" lon="6.46794">
        <ele>1638.8</ele>
        <time>2024-08-11T07:55:18Z</time>
      </trkpt>
      <trkpt lat="44.98171" lon="6.46797">
        <ele>1638.6</ele>
        <time>2024-08-11T07:55:19Z</time>
      </trkpt>
      <trkpt lat="44.98171" lon="6.46797">
        <ele>1638.6</ele>
        <time>2024-08-11T07:55:20Z</time>
      </trkpt>
      <trkpt lat="44.98171" lon="6.46802">
        <ele>1638.4</ele>
        <time>2024-08-11T07:55:21Z</time>
      </trkpt>
      <trkpt lat="44.98171" lon="6.46802">
        <ele>1638.2</ele>
        <time>2024-08-11T07:55:22Z</time>
      </trkpt>
      <trkpt lat="44.98171" lon="6.46806">
        <ele>1638.2</ele>
        <time>2024-08-11T07:55:23Z</time>
      </trkpt>
      <trkpt lat="44.98171" lon="6.46806">
        <ele>1638</ele>
        <time>2024-08-11T07:55:24Z</time>
      </trkpt>
      <trkpt lat="44.98172" lon="6.4681">
        <ele>1637.8</ele>
        <time>2024-08-11T07:55:25Z</time>
      </trkpt>
      <trkpt lat="44.98172" lon="6.4681">
        <ele>1637.8</ele>
        <time>2024-08-11T07:55:26Z</time>
      </trkpt>
      <trkpt lat="44.98172" lon="6.46814">
        <ele>1637.8</ele>
        <time>2024-08-11T07:55:27Z</time>
      </trkpt>
      <trkpt lat="44.98172" lon="6.46814">
        <ele>1637.8</ele>
        <time>2024-08-11T07:55:28Z</time>
      </trkpt>
      <trkpt lat="44.98172" lon="6.46818">
        <ele>1637.6</ele>
        <time>2024-08-11T07:55:29Z</time>
      </trkpt>
      <trkpt lat="44.98172" lon="6.46818">
        <ele>1637.6</ele>
        <time>2024-08-11T07:55:30Z</time>
      </trkpt>
      <trkpt lat="44.98172" lon="6.46822">
        <ele>1637.6</ele>
        <time>2024-08-11T07:55:31Z</time>
      </trkpt>
      <trkpt lat="44.98172" lon="6.46822">
        <ele>1637.4</ele>
        <time>2024-08-11T07:55:32Z</time>
      </trkpt>
      <trkpt lat="44.98171" lon="6.46825">
        <ele>1637.2</ele>
        <time>2024-08-11T07:55:33Z</time>
      </trkpt>
      <trkpt lat="44.98171" lon="6.46825">
        <ele>1637</ele>
        <time>2024-08-11T07:55:34Z</time>
      </trkpt>
      <trkpt lat="44.98171" lon="6.46829">
        <ele>1637</ele>
        <time>2024-08-11T07:55:35Z</time>
      </trkpt>
      <trkpt lat="44.98171" lon="6.46829">
        <ele>1637</ele>
        <time>2024-08-11T07:55:36Z</time>
      </trkpt>
      <trkpt lat="44.98171" lon="6.46829">
        <ele>1636.8</ele>
        <time>2024-08-11T07:55:37Z</time>
      </trkpt>
      <trkpt lat="44.98172" lon="6.46835">
        <ele>1636.6</ele>
        <time>2024-08-11T07:55:38Z</time>
      </trkpt>
      <trkpt lat="44.98172" lon="6.46838">
        <ele>1636.6</ele>
        <time>2024-08-11T07:55:39Z</time>
      </trkpt>
      <trkpt lat="44.98172" lon="6.46838">
        <ele>1636.6</ele>
        <time>2024-08-11T07:55:40Z</time>
      </trkpt>
      <trkpt lat="44.98172" lon="6.46842">
        <ele>1636.4</ele>
        <time>2024-08-11T07:55:41Z</time>
      </trkpt>
      <trkpt lat="44.98172" lon="6.46842">
        <ele>1636.2</ele>
        <time>2024-08-11T07:55:42Z</time>
      </trkpt>
      <trkpt lat="44.98171" lon="6.46846">
        <ele>1635.8</ele>
        <time>2024-08-11T07:55:43Z</time>
      </trkpt>
      <trkpt lat="44.98171" lon="6.46846">
        <ele>1635.8</ele>
        <time>2024-08-11T07:55:44Z</time>
      </trkpt>
      <trkpt lat="44.98172" lon="6.46849">
        <ele>1635.8</ele>
        <time>2024-08-11T07:55:45Z</time>
      </trkpt>
      <trkpt lat="44.98172" lon="6.46849">
        <ele>1635.8</ele>
        <time>2024-08-11T07:55:46Z</time>
      </trkpt>
      <trkpt lat="44.98173" lon="6.46852">
        <ele>1635.8</ele>
        <time>2024-08-11T07:55:47Z</time>
      </trkpt>
      <trkpt lat="44.98173" lon="6.46852">
        <ele>1635.8</ele>
        <time>2024-08-11T07:55:48Z</time>
      </trkpt>
      <trkpt lat="44.98173" lon="6.46855">
        <ele>1635.6</ele>
        <time>2024-08-11T07:55:49Z</time>
      </trkpt>
      <trkpt lat="44.98173" lon="6.46855">
        <ele>1635.4</ele>
        <time>2024-08-11T07:55:50Z</time>
      </trkpt>
      <trkpt lat="44.98174" lon="6.46858">
        <ele>1635.2</ele>
        <time>2024-08-11T07:55:51Z</time>
      </trkpt>
      <trkpt lat="44.98174" lon="6.46858">
        <ele>1635</ele>
        <time>2024-08-11T07:55:52Z</time>
      </trkpt>
      <trkpt lat="44.98173" lon="6.46862">
        <ele>1634.8</ele>
        <time>2024-08-11T07:55:53Z</time>
      </trkpt>
      <trkpt lat="44.98173" lon="6.46865">
        <ele>1634.6</ele>
        <time>2024-08-11T07:55:54Z</time>
      </trkpt>
      <trkpt lat="44.98173" lon="6.46865">
        <ele>1634.4</ele>
        <time>2024-08-11T07:55:55Z</time>
      </trkpt>
      <trkpt lat="44.98173" lon="6.46869">
        <ele>1634.4</ele>
        <time>2024-08-11T07:55:56Z</time>
      </trkpt>
      <trkpt lat="44.98172" lon="6.46872">
        <ele>1634.4</ele>
        <time>2024-08-11T07:55:57Z</time>
      </trkpt>
      <trkpt lat="44.98172" lon="6.46872">
        <ele>1634.2</ele>
        <time>2024-08-11T07:55:58Z</time>
      </trkpt>
      <trkpt lat="44.98171" lon="6.46875">
        <ele>1634</ele>
        <time>2024-08-11T07:55:59Z</time>
      </trkpt>
      <trkpt lat="44.98171" lon="6.46875">
        <ele>1633.8</ele>
        <time>2024-08-11T07:56:00Z</time>
      </trkpt>
      <trkpt lat="44.98171" lon="6.46879">
        <ele>1633.8</ele>
        <time>2024-08-11T07:56:01Z</time>
      </trkpt>
      <trkpt lat="44.98171" lon="6.46879">
        <ele>1633.6</ele>
        <time>2024-08-11T07:56:02Z</time>
      </trkpt>
      <trkpt lat="44.98169" lon="6.46882">
        <ele>1633.6</ele>
        <time>2024-08-11T07:56:03Z</time>
      </trkpt>
      <trkpt lat="44.98169" lon="6.46882">
        <ele>1633.4</ele>
        <time>2024-08-11T07:56:04Z</time>
      </trkpt>
      <trkpt lat="44.9817" lon="6.46886">
        <ele>1633</ele>
        <time>2024-08-11T07:56:05Z</time>
      </trkpt>
      <trkpt lat="44.9817" lon="6.46886">
        <ele>1633</ele>
        <time>2024-08-11T07:56:06Z</time>
      </trkpt>
      <trkpt lat="44.98171" lon="6.4689">
        <ele>1632.8</ele>
        <time>2024-08-11T07:56:07Z</time>
      </trkpt>
      <trkpt lat="44.98171" lon="6.4689">
        <ele>1632.6</ele>
        <time>2024-08-11T07:56:08Z</time>
      </trkpt>
      <trkpt lat="44.98173" lon="6.46893">
        <ele>1632.6</ele>
        <time>2024-08-11T07:56:09Z</time>
      </trkpt>
      <trkpt lat="44.98173" lon="6.46893">
        <ele>1632.6</ele>
        <time>2024-08-11T07:56:10Z</time>
      </trkpt>
      <trkpt lat="44.98175" lon="6.46895">
        <ele>1632.2</ele>
        <time>2024-08-11T07:56:11Z</time>
      </trkpt>
      <trkpt lat="44.98175" lon="6.46895">
        <ele>1632.2</ele>
        <time>2024-08-11T07:56:12Z</time>
      </trkpt>
      <trkpt lat="44.98176" lon="6.46897">
        <ele>1632</ele>
        <time>2024-08-11T07:56:13Z</time>
      </trkpt>
      <trkpt lat="44.98178" lon="6.46899">
        <ele>1631.6</ele>
        <time>2024-08-11T07:56:14Z</time>
      </trkpt>
      <trkpt lat="44.98178" lon="6.46899">
        <ele>1631.6</ele>
        <time>2024-08-11T07:56:15Z</time>
      </trkpt>
      <trkpt lat="44.9818" lon="6.46902">
        <ele>1631.4</ele>
        <time>2024-08-11T07:56:16Z</time>
      </trkpt>
      <trkpt lat="44.9818" lon="6.46902">
        <ele>1631.4</ele>
        <time>2024-08-11T07:56:17Z</time>
      </trkpt>
      <trkpt lat="44.98181" lon="6.46906">
        <ele>1631.4</ele>
        <time>2024-08-11T07:56:18Z</time>
      </trkpt>
      <trkpt lat="44.98181" lon="6.46906">
        <ele>1631</ele>
        <time>2024-08-11T07:56:19Z</time>
      </trkpt>
      <trkpt lat="44.98182" lon="6.46908">
        <ele>1631</ele>
        <time>2024-08-11T07:56:20Z</time>
      </trkpt>
      <trkpt lat="44.98182" lon="6.46908">
        <ele>1631</ele>
        <time>2024-08-11T07:56:21Z</time>
      </trkpt>
      <trkpt lat="44.98183" lon="6.46912">
        <ele>1630.8</ele>
        <time>2024-08-11T07:56:22Z</time>
      </trkpt>
      <trkpt lat="44.98185" lon="6.46914">
        <ele>1630.8</ele>
        <time>2024-08-11T07:56:23Z</time>
      </trkpt>
      <trkpt lat="44.98186" lon="6.46915">
        <ele>1630.6</ele>
        <time>2024-08-11T07:56:24Z</time>
      </trkpt>
      <trkpt lat="44.98186" lon="6.46915">
        <ele>1630.6</ele>
        <time>2024-08-11T07:56:25Z</time>
      </trkpt>
      <trkpt lat="44.98188" lon="6.46919">
        <ele>1630.4</ele>
        <time>2024-08-11T07:56:26Z</time>
      </trkpt>
      <trkpt lat="44.98188" lon="6.46919">
        <ele>1630.2</ele>
        <time>2024-08-11T07:56:27Z</time>
      </trkpt>
      <trkpt lat="44.98191" lon="6.46921">
        <ele>1630</ele>
        <time>2024-08-11T07:56:28Z</time>
      </trkpt>
      <trkpt lat="44.98193" lon="6.46921">
        <ele>1629.8</ele>
        <time>2024-08-11T07:56:29Z</time>
      </trkpt>
      <trkpt lat="44.98193" lon="6.46921">
        <ele>1629.8</ele>
        <time>2024-08-11T07:56:30Z</time>
      </trkpt>
      <trkpt lat="44.98196" lon="6.46923">
        <ele>1629.6</ele>
        <time>2024-08-11T07:56:31Z</time>
      </trkpt>
      <trkpt lat="44.98196" lon="6.46923">
        <ele>1629.6</ele>
        <time>2024-08-11T07:56:32Z</time>
      </trkpt>
      <trkpt lat="44.98197" lon="6.46923">
        <ele>1629.4</ele>
        <time>2024-08-11T07:56:33Z</time>
      </trkpt>
      <trkpt lat="44.98197" lon="6.46923">
        <ele>1629.2</ele>
        <time>2024-08-11T07:56:34Z</time>
      </trkpt>
      <trkpt lat="44.982" lon="6.46921">
        <ele>1629.2</ele>
        <time>2024-08-11T07:56:35Z</time>
      </trkpt>
      <trkpt lat="44.982" lon="6.46921">
        <ele>1629</ele>
        <time>2024-08-11T07:56:36Z</time>
      </trkpt>
      <trkpt lat="44.98203" lon="6.4692">
        <ele>1628.8</ele>
        <time>2024-08-11T07:56:37Z</time>
      </trkpt>
      <trkpt lat="44.98203" lon="6.4692">
        <ele>1628.6</ele>
        <time>2024-08-11T07:56:38Z</time>
      </trkpt>
      <trkpt lat="44.98205" lon="6.46918">
        <ele>1628.6</ele>
        <time>2024-08-11T07:56:39Z</time>
      </trkpt>
      <trkpt lat="44.98205" lon="6.46918">
        <ele>1628.2</ele>
        <time>2024-08-11T07:56:40Z</time>
      </trkpt>
      <trkpt lat="44.98207" lon="6.46915">
        <ele>1628.2</ele>
        <time>2024-08-11T07:56:41Z</time>
      </trkpt>
      <trkpt lat="44.98207" lon="6.46915">
        <ele>1628.2</ele>
        <time>2024-08-11T07:56:42Z</time>
      </trkpt>
      <trkpt lat="44.98209" lon="6.46913">
        <ele>1628</ele>
        <time>2024-08-11T07:56:43Z</time>
      </trkpt>
      <trkpt lat="44.98209" lon="6.46913">
        <ele>1627.8</ele>
        <time>2024-08-11T07:56:44Z</time>
      </trkpt>
      <trkpt lat="44.98211" lon="6.46911">
        <ele>1627.6</ele>
        <time>2024-08-11T07:56:45Z</time>
      </trkpt>
      <trkpt lat="44.98211" lon="6.46911">
        <ele>1627.6</ele>
        <time>2024-08-11T07:56:46Z</time>
      </trkpt>
      <trkpt lat="44.98213" lon="6.46909">
        <ele>1627.2</ele>
        <time>2024-08-11T07:56:47Z</time>
      </trkpt>
      <trkpt lat="44.98213" lon="6.46909">
        <ele>1627.2</ele>
        <time>2024-08-11T07:56:48Z</time>
      </trkpt>
      <trkpt lat="44.98214" lon="6.46907">
        <ele>1627.2</ele>
        <time>2024-08-11T07:56:49Z</time>
      </trkpt>
      <trkpt lat="44.98214" lon="6.46907">
        <ele>1627.2</ele>
        <time>2024-08-11T07:56:50Z</time>
      </trkpt>
      <trkpt lat="44.98214" lon="6.46907">
        <ele>1626.8</ele>
        <time>2024-08-11T07:56:51Z</time>
      </trkpt>
      <trkpt lat="44.98217" lon="6.46904">
        <ele>1626.8</ele>
        <time>2024-08-11T07:56:52Z</time>
      </trkpt>
      <trkpt lat="44.98217" lon="6.46904">
        <ele>1626.8</ele>
        <time>2024-08-11T07:56:53Z</time>
      </trkpt>
      <trkpt lat="44.98219" lon="6.46902">
        <ele>1626.4</ele>
        <time>2024-08-11T07:56:54Z</time>
      </trkpt>
      <trkpt lat="44.98221" lon="6.469">
        <ele>1626.2</ele>
        <time>2024-08-11T07:56:55Z</time>
      </trkpt>
      <trkpt lat="44.98221" lon="6.469">
        <ele>1626.2</ele>
        <time>2024-08-11T07:56:56Z</time>
      </trkpt>
      <trkpt lat="44.98224" lon="6.469">
        <ele>1626.2</ele>
        <time>2024-08-11T07:56:57Z</time>
      </trkpt>
      <trkpt lat="44.98226" lon="6.46899">
        <ele>1626.2</ele>
        <time>2024-08-11T07:56:58Z</time>
      </trkpt>
      <trkpt lat="44.98226" lon="6.46899">
        <ele>1626</ele>
        <time>2024-08-11T07:56:59Z</time>
      </trkpt>
      <trkpt lat="44.98229" lon="6.46898">
        <ele>1625.8</ele>
        <time>2024-08-11T07:57:00Z</time>
      </trkpt>
      <trkpt lat="44.98229" lon="6.46898">
        <ele>1625.6</ele>
        <time>2024-08-11T07:57:01Z</time>
      </trkpt>
      <trkpt lat="44.98229" lon="6.46898">
        <ele>1625.6</ele>
        <time>2024-08-11T07:57:02Z</time>
      </trkpt>
      <trkpt lat="44.98233" lon="6.469">
        <ele>1625.6</ele>
        <time>2024-08-11T07:57:03Z</time>
      </trkpt>
      <trkpt lat="44.98234" lon="6.46902">
        <ele>1625.6</ele>
        <time>2024-08-11T07:57:04Z</time>
      </trkpt>
      <trkpt lat="44.98234" lon="6.46902">
        <ele>1625.4</ele>
        <time>2024-08-11T07:57:05Z</time>
      </trkpt>
      <trkpt lat="44.98235" lon="6.46906">
        <ele>1625.2</ele>
        <time>2024-08-11T07:57:06Z</time>
      </trkpt>
      <trkpt lat="44.98235" lon="6.46906">
        <ele>1625</ele>
        <time>2024-08-11T07:57:07Z</time>
      </trkpt>
      <trkpt lat="44.98237" lon="6.46909">
        <ele>1624.6</ele>
        <time>2024-08-11T07:57:08Z</time>
      </trkpt>
      <trkpt lat="44.98238" lon="6.46911">
        <ele>1624.4</ele>
        <time>2024-08-11T07:57:09Z</time>
      </trkpt>
      <trkpt lat="44.98239" lon="6.46913">
        <ele>1624.4</ele>
        <time>2024-08-11T07:57:10Z</time>
      </trkpt>
      <trkpt lat="44.98241" lon="6.46915">
        <ele>1624.4</ele>
        <time>2024-08-11T07:57:11Z</time>
      </trkpt>
      <trkpt lat="44.98241" lon="6.46915">
        <ele>1624.2</ele>
        <time>2024-08-11T07:57:12Z</time>
      </trkpt>
      <trkpt lat="44.98243" lon="6.46918">
        <ele>1624.2</ele>
        <time>2024-08-11T07:57:13Z</time>
      </trkpt>
      <trkpt lat="44.98243" lon="6.4692">
        <ele>1624</ele>
        <time>2024-08-11T07:57:14Z</time>
      </trkpt>
      <trkpt lat="44.98243" lon="6.4692">
        <ele>1624</ele>
        <time>2024-08-11T07:57:15Z</time>
      </trkpt>
      <trkpt lat="44.98243" lon="6.46924">
        <ele>1623.8</ele>
        <time>2024-08-11T07:57:16Z</time>
      </trkpt>
      <trkpt lat="44.98243" lon="6.46924">
        <ele>1623.8</ele>
        <time>2024-08-11T07:57:17Z</time>
      </trkpt>
      <trkpt lat="44.98243" lon="6.46924">
        <ele>1623.8</ele>
        <time>2024-08-11T07:57:18Z</time>
      </trkpt>
      <trkpt lat="44.98244" lon="6.46929">
        <ele>1623.4</ele>
        <time>2024-08-11T07:57:19Z</time>
      </trkpt>
      <trkpt lat="44.98245" lon="6.4693">
        <ele>1623.4</ele>
        <time>2024-08-11T07:57:20Z</time>
      </trkpt>
      <trkpt lat="44.98245" lon="6.4693">
        <ele>1623.2</ele>
        <time>2024-08-11T07:57:21Z</time>
      </trkpt>
      <trkpt lat="44.98245" lon="6.4693">
        <ele>1623.2</ele>
        <time>2024-08-11T07:57:22Z</time>
      </trkpt>
      <trkpt lat="44.98246" lon="6.46936">
        <ele>1623</ele>
        <time>2024-08-11T07:57:23Z</time>
      </trkpt>
      <trkpt lat="44.98246" lon="6.46937">
        <ele>1623</ele>
        <time>2024-08-11T07:57:24Z</time>
      </trkpt>
      <trkpt lat="44.98246" lon="6.46937">
        <ele>1623</ele>
        <time>2024-08-11T07:57:25Z</time>
      </trkpt>
      <trkpt lat="44.98248" lon="6.46939">
        <ele>1623</ele>
        <time>2024-08-11T07:57:26Z</time>
      </trkpt>
      <trkpt lat="44.98248" lon="6.46939">
        <ele>1622.8</ele>
        <time>2024-08-11T07:57:27Z</time>
      </trkpt>
      <trkpt lat="44.98248" lon="6.46939">
        <ele>1622.6</ele>
        <time>2024-08-11T07:57:28Z</time>
      </trkpt>
      <trkpt lat="44.9825" lon="6.46941">
        <ele>1622.6</ele>
        <time>2024-08-11T07:57:29Z</time>
      </trkpt>
      <trkpt lat="44.9825" lon="6.46941">
        <ele>1622.6</ele>
        <time>2024-08-11T07:57:30Z</time>
      </trkpt>
      <trkpt lat="44.98253" lon="6.46941">
        <ele>1622.4</ele>
        <time>2024-08-11T07:57:31Z</time>
      </trkpt>
      <trkpt lat="44.98253" lon="6.46941">
        <ele>1622.2</ele>
        <time>2024-08-11T07:57:32Z</time>
      </trkpt>
      <trkpt lat="44.98254" lon="6.46942">
        <ele>1622.2</ele>
        <time>2024-08-11T07:57:33Z</time>
      </trkpt>
      <trkpt lat="44.98254" lon="6.46942">
        <ele>1622.2</ele>
        <time>2024-08-11T07:57:34Z</time>
      </trkpt>
      <trkpt lat="44.98257" lon="6.46945">
        <ele>1622</ele>
        <time>2024-08-11T07:57:35Z</time>
      </trkpt>
      <trkpt lat="44.98257" lon="6.46945">
        <ele>1622</ele>
        <time>2024-08-11T07:57:36Z</time>
      </trkpt>
      <trkpt lat="44.98258" lon="6.46948">
        <ele>1621.8</ele>
        <time>2024-08-11T07:57:37Z</time>
      </trkpt>
      <trkpt lat="44.98258" lon="6.46948">
        <ele>1621.6</ele>
        <time>2024-08-11T07:57:38Z</time>
      </trkpt>
      <trkpt lat="44.9826" lon="6.46951">
        <ele>1621.2</ele>
        <time>2024-08-11T07:57:39Z</time>
      </trkpt>
      <trkpt lat="44.9826" lon="6.46951">
        <ele>1621.2</ele>
        <time>2024-08-11T07:57:40Z</time>
      </trkpt>
      <trkpt lat="44.98261" lon="6.46954">
        <ele>1621</ele>
        <time>2024-08-11T07:57:41Z</time>
      </trkpt>
      <trkpt lat="44.98261" lon="6.46954">
        <ele>1621</ele>
        <time>2024-08-11T07:57:42Z</time>
      </trkpt>
      <trkpt lat="44.98261" lon="6.46954">
        <ele>1620.8</ele>
        <time>2024-08-11T07:57:43Z</time>
      </trkpt>
      <trkpt lat="44.98263" lon="6.46956">
        <ele>1620.8</ele>
        <time>2024-08-11T07:57:44Z</time>
      </trkpt>
      <trkpt lat="44.98263" lon="6.46956">
        <ele>1620.4</ele>
        <time>2024-08-11T07:57:45Z</time>
      </trkpt>
      <trkpt lat="44.98265" lon="6.46958">
        <ele>1620.2</ele>
        <time>2024-08-11T07:57:46Z</time>
      </trkpt>
      <trkpt lat="44.98265" lon="6.46958">
        <ele>1620</ele>
        <time>2024-08-11T07:57:47Z</time>
      </trkpt>
      <trkpt lat="44.98267" lon="6.46962">
        <ele>1620</ele>
        <time>2024-08-11T07:57:48Z</time>
      </trkpt>
      <trkpt lat="44.98269" lon="6.46963">
        <ele>1620</ele>
        <time>2024-08-11T07:57:49Z</time>
      </trkpt>
      <trkpt lat="44.98269" lon="6.46963">
        <ele>1619.8</ele>
        <time>2024-08-11T07:57:50Z</time>
      </trkpt>
      <trkpt lat="44.98271" lon="6.46964">
        <ele>1619.6</ele>
        <time>2024-08-11T07:57:51Z</time>
      </trkpt>
      <trkpt lat="44.98271" lon="6.46964">
        <ele>1619.6</ele>
        <time>2024-08-11T07:57:52Z</time>
      </trkpt>
      <trkpt lat="44.98273" lon="6.46966">
        <ele>1619.4</ele>
        <time>2024-08-11T07:57:53Z</time>
      </trkpt>
      <trkpt lat="44.98273" lon="6.46966">
        <ele>1619.4</ele>
        <time>2024-08-11T07:57:54Z</time>
      </trkpt>
      <trkpt lat="44.98276" lon="6.46968">
        <ele>1619.2</ele>
        <time>2024-08-11T07:57:55Z</time>
      </trkpt>
      <trkpt lat="44.98276" lon="6.46968">
        <ele>1619.2</ele>
        <time>2024-08-11T07:57:56Z</time>
      </trkpt>
      <trkpt lat="44.98276" lon="6.46968">
        <ele>1619</ele>
        <time>2024-08-11T07:57:57Z</time>
      </trkpt>
      <trkpt lat="44.98278" lon="6.4697">
        <ele>1618.8</ele>
        <time>2024-08-11T07:57:58Z</time>
      </trkpt>
      <trkpt lat="44.98278" lon="6.4697">
        <ele>1618.8</ele>
        <time>2024-08-11T07:57:59Z</time>
      </trkpt>
      <trkpt lat="44.98281" lon="6.46973">
        <ele>1618.6</ele>
        <time>2024-08-11T07:58:00Z</time>
      </trkpt>
      <trkpt lat="44.98281" lon="6.46973">
        <ele>1618.6</ele>
        <time>2024-08-11T07:58:01Z</time>
      </trkpt>
      <trkpt lat="44.98284" lon="6.46975">
        <ele>1618.6</ele>
        <time>2024-08-11T07:58:02Z</time>
      </trkpt>
      <trkpt lat="44.98284" lon="6.46975">
        <ele>1618.6</ele>
        <time>2024-08-11T07:58:03Z</time>
      </trkpt>
      <trkpt lat="44.98286" lon="6.46977">
        <ele>1618.4</ele>
        <time>2024-08-11T07:58:04Z</time>
      </trkpt>
      <trkpt lat="44.98286" lon="6.46977">
        <ele>1618.2</ele>
        <time>2024-08-11T07:58:05Z</time>
      </trkpt>
      <trkpt lat="44.98288" lon="6.46979">
        <ele>1618.2</ele>
        <time>2024-08-11T07:58:06Z</time>
      </trkpt>
      <trkpt lat="44.98288" lon="6.46979">
        <ele>1618</ele>
        <time>2024-08-11T07:58:07Z</time>
      </trkpt>
      <trkpt lat="44.9829" lon="6.46983">
        <ele>1618</ele>
        <time>2024-08-11T07:58:08Z</time>
      </trkpt>
      <trkpt lat="44.9829" lon="6.46983">
        <ele>1618</ele>
        <time>2024-08-11T07:58:09Z</time>
      </trkpt>
      <trkpt lat="44.98292" lon="6.46986">
        <ele>1618</ele>
        <time>2024-08-11T07:58:10Z</time>
      </trkpt>
      <trkpt lat="44.98292" lon="6.46986">
        <ele>1617.6</ele>
        <time>2024-08-11T07:58:11Z</time>
      </trkpt>
      <trkpt lat="44.98294" lon="6.46989">
        <ele>1617.4</ele>
        <time>2024-08-11T07:58:12Z</time>
      </trkpt>
      <trkpt lat="44.98294" lon="6.46989">
        <ele>1617.4</ele>
        <time>2024-08-11T07:58:13Z</time>
      </trkpt>
      <trkpt lat="44.98296" lon="6.46991">
        <ele>1617.4</ele>
        <time>2024-08-11T07:58:14Z</time>
      </trkpt>
      <trkpt lat="44.98296" lon="6.46991">
        <ele>1617.2</ele>
        <time>2024-08-11T07:58:15Z</time>
      </trkpt>
      <trkpt lat="44.98299" lon="6.46994">
        <ele>1617</ele>
        <time>2024-08-11T07:58:16Z</time>
      </trkpt>
      <trkpt lat="44.98299" lon="6.46994">
        <ele>1616.8</ele>
        <time>2024-08-11T07:58:17Z</time>
      </trkpt>
      <trkpt lat="44.98301" lon="6.46995">
        <ele>1616.6</ele>
        <time>2024-08-11T07:58:18Z</time>
      </trkpt>
      <trkpt lat="44.98301" lon="6.46995">
        <ele>1616.4</ele>
        <time>2024-08-11T07:58:19Z</time>
      </trkpt>
      <trkpt lat="44.98303" lon="6.46996">
        <ele>1616.4</ele>
        <time>2024-08-11T07:58:20Z</time>
      </trkpt>
      <trkpt lat="44.98303" lon="6.46996">
        <ele>1616.2</ele>
        <time>2024-08-11T07:58:21Z</time>
      </trkpt>
      <trkpt lat="44.98306" lon="6.46998">
        <ele>1616</ele>
        <time>2024-08-11T07:58:22Z</time>
      </trkpt>
      <trkpt lat="44.98306" lon="6.46998">
        <ele>1615.8</ele>
        <time>2024-08-11T07:58:23Z</time>
      </trkpt>
      <trkpt lat="44.98308" lon="6.47">
        <ele>1615.8</ele>
        <time>2024-08-11T07:58:24Z</time>
      </trkpt>
      <trkpt lat="44.98308" lon="6.47">
        <ele>1615.8</ele>
        <time>2024-08-11T07:58:25Z</time>
      </trkpt>
      <trkpt lat="44.9831" lon="6.47002">
        <ele>1615.4</ele>
        <time>2024-08-11T07:58:26Z</time>
      </trkpt>
      <trkpt lat="44.9831" lon="6.47002">
        <ele>1615</ele>
        <time>2024-08-11T07:58:27Z</time>
      </trkpt>
      <trkpt lat="44.98312" lon="6.47004">
        <ele>1615</ele>
        <time>2024-08-11T07:58:28Z</time>
      </trkpt>
      <trkpt lat="44.98312" lon="6.47004">
        <ele>1615</ele>
        <time>2024-08-11T07:58:29Z</time>
      </trkpt>
      <trkpt lat="44.98315" lon="6.47005">
        <ele>1615</ele>
        <time>2024-08-11T07:58:30Z</time>
      </trkpt>
      <trkpt lat="44.98315" lon="6.47005">
        <ele>1614.8</ele>
        <time>2024-08-11T07:58:31Z</time>
      </trkpt>
      <trkpt lat="44.98315" lon="6.47005">
        <ele>1614.8</ele>
        <time>2024-08-11T07:58:32Z</time>
      </trkpt>
      <trkpt lat="44.98317" lon="6.47006">
        <ele>1614.6</ele>
        <time>2024-08-11T07:58:33Z</time>
      </trkpt>
      <trkpt lat="44.98317" lon="6.47006">
        <ele>1614.2</ele>
        <time>2024-08-11T07:58:34Z</time>
      </trkpt>
      <trkpt lat="44.98317" lon="6.47006">
        <ele>1614.2</ele>
        <time>2024-08-11T07:58:35Z</time>
      </trkpt>
      <trkpt lat="44.9832" lon="6.47006">
        <ele>1614</ele>
        <time>2024-08-11T07:58:36Z</time>
      </trkpt>
      <trkpt lat="44.98322" lon="6.47006">
        <ele>1614</ele>
        <time>2024-08-11T07:58:37Z</time>
      </trkpt>
      <trkpt lat="44.98324" lon="6.47006">
        <ele>1613.6</ele>
        <time>2024-08-11T07:58:38Z</time>
      </trkpt>
      <trkpt lat="44.98326" lon="6.47007">
        <ele>1613.4</ele>
        <time>2024-08-11T07:58:39Z</time>
      </trkpt>
      <trkpt lat="44.98328" lon="6.47008">
        <ele>1613.4</ele>
        <time>2024-08-11T07:58:40Z</time>
      </trkpt>
      <trkpt lat="44.9833" lon="6.47009">
        <ele>1613.2</ele>
        <time>2024-08-11T07:58:41Z</time>
      </trkpt>
      <trkpt lat="44.9833" lon="6.47009">
        <ele>1613.2</ele>
        <time>2024-08-11T07:58:42Z</time>
      </trkpt>
      <trkpt lat="44.98333" lon="6.47011">
        <ele>1613</ele>
        <time>2024-08-11T07:58:43Z</time>
      </trkpt>
      <trkpt lat="44.98333" lon="6.47011">
        <ele>1612.6</ele>
        <time>2024-08-11T07:58:44Z</time>
      </trkpt>
      <trkpt lat="44.98335" lon="6.47012">
        <ele>1612.6</ele>
        <time>2024-08-11T07:58:45Z</time>
      </trkpt>
      <trkpt lat="44.98335" lon="6.47012">
        <ele>1612.6</ele>
        <time>2024-08-11T07:58:46Z</time>
      </trkpt>
      <trkpt lat="44.98337" lon="6.47015">
        <ele>1612.4</ele>
        <time>2024-08-11T07:58:47Z</time>
      </trkpt>
      <trkpt lat="44.98337" lon="6.47015">
        <ele>1612.4</ele>
        <time>2024-08-11T07:58:48Z</time>
      </trkpt>
      <trkpt lat="44.98339" lon="6.47017">
        <ele>1612.2</ele>
        <time>2024-08-11T07:58:49Z</time>
      </trkpt>
      <trkpt lat="44.98339" lon="6.47017">
        <ele>1612.2</ele>
        <time>2024-08-11T07:58:50Z</time>
      </trkpt>
      <trkpt lat="44.98341" lon="6.47018">
        <ele>1611.8</ele>
        <time>2024-08-11T07:58:51Z</time>
      </trkpt>
      <trkpt lat="44.98341" lon="6.47018">
        <ele>1611.8</ele>
        <time>2024-08-11T07:58:52Z</time>
      </trkpt>
      <trkpt lat="44.98344" lon="6.4702">
        <ele>1611.8</ele>
        <time>2024-08-11T07:58:53Z</time>
      </trkpt>
      <trkpt lat="44.98344" lon="6.4702">
        <ele>1611.6</ele>
        <time>2024-08-11T07:58:54Z</time>
      </trkpt>
      <trkpt lat="44.98345" lon="6.47023">
        <ele>1611.4</ele>
        <time>2024-08-11T07:58:55Z</time>
      </trkpt>
      <trkpt lat="44.98345" lon="6.47023">
        <ele>1611.2</ele>
        <time>2024-08-11T07:58:56Z</time>
      </trkpt>
      <trkpt lat="44.98348" lon="6.47026">
        <ele>1611</ele>
        <time>2024-08-11T07:58:57Z</time>
      </trkpt>
      <trkpt lat="44.98348" lon="6.47026">
        <ele>1611</ele>
        <time>2024-08-11T07:58:58Z</time>
      </trkpt>
      <trkpt lat="44.9835" lon="6.47029">
        <ele>1611</ele>
        <time>2024-08-11T07:58:59Z</time>
      </trkpt>
      <trkpt lat="44.98352" lon="6.47031">
        <ele>1611</ele>
        <time>2024-08-11T07:59:00Z</time>
      </trkpt>
      <trkpt lat="44.98353" lon="6.47033">
        <ele>1610.8</ele>
        <time>2024-08-11T07:59:01Z</time>
      </trkpt>
      <trkpt lat="44.98355" lon="6.47034">
        <ele>1610.6</ele>
        <time>2024-08-11T07:59:02Z</time>
      </trkpt>
      <trkpt lat="44.98355" lon="6.47034">
        <ele>1610.6</ele>
        <time>2024-08-11T07:59:03Z</time>
      </trkpt>
      <trkpt lat="44.98357" lon="6.47035">
        <ele>1610.2</ele>
        <time>2024-08-11T07:59:04Z</time>
      </trkpt>
      <trkpt lat="44.98357" lon="6.47035">
        <ele>1610.2</ele>
        <time>2024-08-11T07:59:05Z</time>
      </trkpt>
      <trkpt lat="44.98357" lon="6.47035">
        <ele>1610.2</ele>
        <time>2024-08-11T07:59:06Z</time>
      </trkpt>
      <trkpt lat="44.98356" lon="6.47037">
        <ele>1610.4</ele>
        <time>2024-08-11T07:59:07Z</time>
      </trkpt>
      <trkpt lat="44.98356" lon="6.47037">
        <ele>1610.6</ele>
        <time>2024-08-11T07:59:08Z</time>
      </trkpt>
      <trkpt lat="44.98356" lon="6.47037">
        <ele>1610.6</ele>
        <time>2024-08-11T07:59:09Z</time>
      </trkpt>
      <trkpt lat="44.98353" lon="6.47037">
        <ele>1610.4</ele>
        <time>2024-08-11T07:59:10Z</time>
      </trkpt>
      <trkpt lat="44.98353" lon="6.47037">
        <ele>1610.4</ele>
        <time>2024-08-11T07:59:11Z</time>
      </trkpt>
      <trkpt lat="44.98353" lon="6.47037">
        <ele>1610.2</ele>
        <time>2024-08-11T07:59:12Z</time>
      </trkpt>
      <trkpt lat="44.98353" lon="6.47037">
        <ele>1610.2</ele>
        <time>2024-08-11T07:59:13Z</time>
      </trkpt>
      <trkpt lat="44.98353" lon="6.47037">
        <ele>1611</ele>
        <time>2024-08-11T07:59:14Z</time>
      </trkpt>
      <trkpt lat="44.98353" lon="6.47037">
        <ele>1611</ele>
        <time>2024-08-11T07:59:15Z</time>
      </trkpt>
      <trkpt lat="44.98353" lon="6.47037">
        <ele>1610.6</ele>
        <time>2024-08-11T07:59:16Z</time>
      </trkpt>
      <trkpt lat="44.98353" lon="6.47037">
        <ele>1610.6</ele>
        <time>2024-08-11T07:59:17Z</time>
      </trkpt>
      <trkpt lat="44.98353" lon="6.47037">
        <ele>1611</ele>
        <time>2024-08-11T07:59:18Z</time>
      </trkpt>
      <trkpt lat="44.98353" lon="6.47037">
        <ele>1611</ele>
        <time>2024-08-11T07:59:19Z</time>
      </trkpt>
      <trkpt lat="44.98351" lon="6.4704">
        <ele>1611</ele>
        <time>2024-08-11T07:59:20Z</time>
      </trkpt>
      <trkpt lat="44.9835" lon="6.47042">
        <ele>1610.6</ele>
        <time>2024-08-11T07:59:21Z</time>
      </trkpt>
      <trkpt lat="44.98349" lon="6.47044">
        <ele>1610.6</ele>
        <time>2024-08-11T07:59:22Z</time>
      </trkpt>
      <trkpt lat="44.98349" lon="6.47045">
        <ele>1610.2</ele>
        <time>2024-08-11T07:59:23Z</time>
      </trkpt>
      <trkpt lat="44.98349" lon="6.47045">
        <ele>1610</ele>
        <time>2024-08-11T07:59:24Z</time>
      </trkpt>
      <trkpt lat="44.98345" lon="6.47046">
        <ele>1610</ele>
        <time>2024-08-11T07:59:25Z</time>
      </trkpt>
      <trkpt lat="44.98345" lon="6.47046">
        <ele>1609.8</ele>
        <time>2024-08-11T07:59:26Z</time>
      </trkpt>
      <trkpt lat="44.98342" lon="6.47046">
        <ele>1609.8</ele>
        <time>2024-08-11T07:59:27Z</time>
      </trkpt>
      <trkpt lat="44.98342" lon="6.47046">
        <ele>1609.6</ele>
        <time>2024-08-11T07:59:28Z</time>
      </trkpt>
      <trkpt lat="44.98342" lon="6.47046">
        <ele>1609.4</ele>
        <time>2024-08-11T07:59:29Z</time>
      </trkpt>
      <trkpt lat="44.98338" lon="6.47047">
        <ele>1609.2</ele>
        <time>2024-08-11T07:59:30Z</time>
      </trkpt>
      <trkpt lat="44.98336" lon="6.47048">
        <ele>1609.2</ele>
        <time>2024-08-11T07:59:31Z</time>
      </trkpt>
      <trkpt lat="44.98336" lon="6.47048">
        <ele>1609</ele>
        <time>2024-08-11T07:59:32Z</time>
      </trkpt>
      <trkpt lat="44.98336" lon="6.47048">
        <ele>1608.8</ele>
        <time>2024-08-11T07:59:33Z</time>
      </trkpt>
      <trkpt lat="44.98333" lon="6.47049">
        <ele>1608.8</ele>
        <time>2024-08-11T07:59:34Z</time>
      </trkpt>
      <trkpt lat="44.98332" lon="6.4705">
        <ele>1608.8</ele>
        <time>2024-08-11T07:59:35Z</time>
      </trkpt>
      <trkpt lat="44.98332" lon="6.4705">
        <ele>1608.8</ele>
        <time>2024-08-11T07:59:36Z</time>
      </trkpt>
      <trkpt lat="44.98329" lon="6.47052">
        <ele>1608.6</ele>
        <time>2024-08-11T07:59:37Z</time>
      </trkpt>
      <trkpt lat="44.98329" lon="6.47052">
        <ele>1608.2</ele>
        <time>2024-08-11T07:59:38Z</time>
      </trkpt>
      <trkpt lat="44.98326" lon="6.47055">
        <ele>1607.8</ele>
        <time>2024-08-11T07:59:39Z</time>
      </trkpt>
      <trkpt lat="44.98326" lon="6.47055">
        <ele>1607.6</ele>
        <time>2024-08-11T07:59:40Z</time>
      </trkpt>
      <trkpt lat="44.98324" lon="6.47058">
        <ele>1607.2</ele>
        <time>2024-08-11T07:59:41Z</time>
      </trkpt>
      <trkpt lat="44.98324" lon="6.47058">
        <ele>1607</ele>
        <time>2024-08-11T07:59:42Z</time>
      </trkpt>
      <trkpt lat="44.98322" lon="6.4706">
        <ele>1606.8</ele>
        <time>2024-08-11T07:59:43Z</time>
      </trkpt>
      <trkpt lat="44.98322" lon="6.4706">
        <ele>1606.6</ele>
        <time>2024-08-11T07:59:44Z</time>
      </trkpt>
      <trkpt lat="44.98322" lon="6.4706">
        <ele>1606.6</ele>
        <time>2024-08-11T07:59:45Z</time>
      </trkpt>
      <trkpt lat="44.98319" lon="6.47064">
        <ele>1606.4</ele>
        <time>2024-08-11T07:59:46Z</time>
      </trkpt>
      <trkpt lat="44.98318" lon="6.47066">
        <ele>1606.2</ele>
        <time>2024-08-11T07:59:47Z</time>
      </trkpt>
      <trkpt lat="44.98318" lon="6.47066">
        <ele>1606.2</ele>
        <time>2024-08-11T07:59:48Z</time>
      </trkpt>
      <trkpt lat="44.98316" lon="6.47068">
        <ele>1606</ele>
        <time>2024-08-11T07:59:49Z</time>
      </trkpt>
      <trkpt lat="44.98316" lon="6.47068">
        <ele>1605.8</ele>
        <time>2024-08-11T07:59:50Z</time>
      </trkpt>
      <trkpt lat="44.98315" lon="6.47071">
        <ele>1605.6</ele>
        <time>2024-08-11T07:59:51Z</time>
      </trkpt>
      <trkpt lat="44.98315" lon="6.47071">
        <ele>1605.4</ele>
        <time>2024-08-11T07:59:52Z</time>
      </trkpt>
      <trkpt lat="44.98313" lon="6.47074">
        <ele>1605.2</ele>
        <time>2024-08-11T07:59:53Z</time>
      </trkpt>
      <trkpt lat="44.98313" lon="6.47074">
        <ele>1604.8</ele>
        <time>2024-08-11T07:59:54Z</time>
      </trkpt>
      <trkpt lat="44.9831" lon="6.47075">
        <ele>1604.6</ele>
        <time>2024-08-11T07:59:55Z</time>
      </trkpt>
      <trkpt lat="44.9831" lon="6.47075">
        <ele>1604.4</ele>
        <time>2024-08-11T07:59:56Z</time>
      </trkpt>
      <trkpt lat="44.98308" lon="6.47076">
        <ele>1604.2</ele>
        <time>2024-08-11T07:59:57Z</time>
      </trkpt>
      <trkpt lat="44.98308" lon="6.47076">
        <ele>1604.2</ele>
        <time>2024-08-11T07:59:58Z</time>
      </trkpt>
      <trkpt lat="44.98307" lon="6.47077">
        <ele>1604</ele>
        <time>2024-08-11T07:59:59Z</time>
      </trkpt>
      <trkpt lat="44.98307" lon="6.47077">
        <ele>1603.8</ele>
        <time>2024-08-11T08:00:00Z</time>
      </trkpt>
      <trkpt lat="44.98307" lon="6.47077">
        <ele>1603.6</ele>
        <time>2024-08-11T08:00:01Z</time>
      </trkpt>
      <trkpt lat="44.98306" lon="6.4708">
        <ele>1603.6</ele>
        <time>2024-08-11T08:00:02Z</time>
      </trkpt>
      <trkpt lat="44.98306" lon="6.4708">
        <ele>1603.4</ele>
        <time>2024-08-11T08:00:03Z</time>
      </trkpt>
      <trkpt lat="44.98304" lon="6.47083">
        <ele>1603.2</ele>
        <time>2024-08-11T08:00:04Z</time>
      </trkpt>
      <trkpt lat="44.98304" lon="6.47083">
        <ele>1603</ele>
        <time>2024-08-11T08:00:05Z</time>
      </trkpt>
      <trkpt lat="44.98304" lon="6.47083">
        <ele>1603</ele>
        <time>2024-08-11T08:00:06Z</time>
      </trkpt>
      <trkpt lat="44.98305" lon="6.47087">
        <ele>1603</ele>
        <time>2024-08-11T08:00:07Z</time>
      </trkpt>
      <trkpt lat="44.98305" lon="6.47088">
        <ele>1602.8</ele>
        <time>2024-08-11T08:00:08Z</time>
      </trkpt>
      <trkpt lat="44.98305" lon="6.47088">
        <ele>1602.6</ele>
        <time>2024-08-11T08:00:09Z</time>
      </trkpt>
      <trkpt lat="44.98306" lon="6.47091">
        <ele>1602.6</ele>
        <time>2024-08-11T08:00:10Z</time>
      </trkpt>
      <trkpt lat="44.98306" lon="6.47091">
        <ele>1602.4</ele>
        <time>2024-08-11T08:00:11Z</time>
      </trkpt>
      <trkpt lat="44.98307" lon="6.47094">
        <ele>1602.4</ele>
        <time>2024-08-11T08:00:12Z</time>
      </trkpt>
      <trkpt lat="44.98307" lon="6.47094">
        <ele>1602.4</ele>
        <time>2024-08-11T08:00:13Z</time>
      </trkpt>
      <trkpt lat="44.98307" lon="6.47094">
        <ele>1602.4</ele>
        <time>2024-08-11T08:00:14Z</time>
      </trkpt>
      <trkpt lat="44.98311" lon="6.47095">
        <ele>1602</ele>
        <time>2024-08-11T08:00:15Z</time>
      </trkpt>
      <trkpt lat="44.98312" lon="6.47096">
        <ele>1601.6</ele>
        <time>2024-08-11T08:00:16Z</time>
      </trkpt>
      <trkpt lat="44.98312" lon="6.47096">
        <ele>1601.4</ele>
        <time>2024-08-11T08:00:17Z</time>
      </trkpt>
      <trkpt lat="44.98315" lon="6.47097">
        <ele>1601.4</ele>
        <time>2024-08-11T08:00:18Z</time>
      </trkpt>
      <trkpt lat="44.98315" lon="6.47097">
        <ele>1601.2</ele>
        <time>2024-08-11T08:00:19Z</time>
      </trkpt>
      <trkpt lat="44.98317" lon="6.471">
        <ele>1601</ele>
        <time>2024-08-11T08:00:20Z</time>
      </trkpt>
      <trkpt lat="44.98317" lon="6.471">
        <ele>1600.8</ele>
        <time>2024-08-11T08:00:21Z</time>
      </trkpt>
      <trkpt lat="44.98319" lon="6.47103">
        <ele>1600.6</ele>
        <time>2024-08-11T08:00:22Z</time>
      </trkpt>
      <trkpt lat="44.9832" lon="6.47105">
        <ele>1600.4</ele>
        <time>2024-08-11T08:00:23Z</time>
      </trkpt>
      <trkpt lat="44.9832" lon="6.47105">
        <ele>1600.4</ele>
        <time>2024-08-11T08:00:24Z</time>
      </trkpt>
      <trkpt lat="44.9832" lon="6.47105">
        <ele>1600.2</ele>
        <time>2024-08-11T08:00:25Z</time>
      </trkpt>
      <trkpt lat="44.98322" lon="6.47108">
        <ele>1600.2</ele>
        <time>2024-08-11T08:00:26Z</time>
      </trkpt>
      <trkpt lat="44.98322" lon="6.47108">
        <ele>1600.2</ele>
        <time>2024-08-11T08:00:27Z</time>
      </trkpt>
      <trkpt lat="44.98324" lon="6.47109">
        <ele>1600.2</ele>
        <time>2024-08-11T08:00:28Z</time>
      </trkpt>
      <trkpt lat="44.98324" lon="6.47109">
        <ele>1600</ele>
        <time>2024-08-11T08:00:29Z</time>
      </trkpt>
      <trkpt lat="44.98324" lon="6.47109">
        <ele>1600</ele>
        <time>2024-08-11T08:00:30Z</time>
      </trkpt>
      <trkpt lat="44.98327" lon="6.47107">
        <ele>1599.8</ele>
        <time>2024-08-11T08:00:31Z</time>
      </trkpt>
      <trkpt lat="44.98328" lon="6.47105">
        <ele>1599.8</ele>
        <time>2024-08-11T08:00:32Z</time>
      </trkpt>
      <trkpt lat="44.98328" lon="6.47105">
        <ele>1599.8</ele>
        <time>2024-08-11T08:00:33Z</time>
      </trkpt>
      <trkpt lat="44.98328" lon="6.471">
        <ele>1599.6</ele>
        <time>2024-08-11T08:00:34Z</time>
      </trkpt>
      <trkpt lat="44.98328" lon="6.471">
        <ele>1599.2</ele>
        <time>2024-08-11T08:00:35Z</time>
      </trkpt>
      <trkpt lat="44.9833" lon="6.47097">
        <ele>1599.2</ele>
        <time>2024-08-11T08:00:36Z</time>
      </trkpt>
      <trkpt lat="44.9833" lon="6.47097">
        <ele>1598.8</ele>
        <time>2024-08-11T08:00:37Z</time>
      </trkpt>
      <trkpt lat="44.98332" lon="6.47094">
        <ele>1598.6</ele>
        <time>2024-08-11T08:00:38Z</time>
      </trkpt>
      <trkpt lat="44.98332" lon="6.47094">
        <ele>1598.4</ele>
        <time>2024-08-11T08:00:39Z</time>
      </trkpt>
      <trkpt lat="44.98333" lon="6.4709">
        <ele>1598.4</ele>
        <time>2024-08-11T08:00:40Z</time>
      </trkpt>
      <trkpt lat="44.98333" lon="6.4709">
        <ele>1598</ele>
        <time>2024-08-11T08:00:41Z</time>
      </trkpt>
      <trkpt lat="44.98335" lon="6.47087">
        <ele>1597.6</ele>
        <time>2024-08-11T08:00:42Z</time>
      </trkpt>
      <trkpt lat="44.98335" lon="6.47087">
        <ele>1597.6</ele>
        <time>2024-08-11T08:00:43Z</time>
      </trkpt>
      <trkpt lat="44.98336" lon="6.47084">
        <ele>1597.8</ele>
        <time>2024-08-11T08:00:44Z</time>
      </trkpt>
      <trkpt lat="44.98336" lon="6.47084">
        <ele>1597.6</ele>
        <time>2024-08-11T08:00:45Z</time>
      </trkpt>
      <trkpt lat="44.98338" lon="6.47081">
        <ele>1597.8</ele>
        <time>2024-08-11T08:00:46Z</time>
      </trkpt>
      <trkpt lat="44.98338" lon="6.47081">
        <ele>1597.8</ele>
        <time>2024-08-11T08:00:47Z</time>
      </trkpt>
      <trkpt lat="44.9834" lon="6.47079">
        <ele>1597.2</ele>
        <time>2024-08-11T08:00:48Z</time>
      </trkpt>
      <trkpt lat="44.9834" lon="6.47079">
        <ele>1596.8</ele>
        <time>2024-08-11T08:00:49Z</time>
      </trkpt>
      <trkpt lat="44.98342" lon="6.47078">
        <ele>1596.8</ele>
        <time>2024-08-11T08:00:50Z</time>
      </trkpt>
      <trkpt lat="44.98342" lon="6.47078">
        <ele>1596.6</ele>
        <time>2024-08-11T08:00:51Z</time>
      </trkpt>
      <trkpt lat="44.98344" lon="6.47076">
        <ele>1596.4</ele>
        <time>2024-08-11T08:00:52Z</time>
      </trkpt>
      <trkpt lat="44.98346" lon="6.47076">
        <ele>1596.4</ele>
        <time>2024-08-11T08:00:53Z</time>
      </trkpt>
      <trkpt lat="44.98346" lon="6.47076">
        <ele>1596.4</ele>
        <time>2024-08-11T08:00:54Z</time>
      </trkpt>
      <trkpt lat="44.98349" lon="6.47078">
        <ele>1596</ele>
        <time>2024-08-11T08:00:55Z</time>
      </trkpt>
      <trkpt lat="44.9835" lon="6.4708">
        <ele>1595.8</ele>
        <time>2024-08-11T08:00:56Z</time>
      </trkpt>
      <trkpt lat="44.98351" lon="6.47082">
        <ele>1595.6</ele>
        <time>2024-08-11T08:00:57Z</time>
      </trkpt>
      <trkpt lat="44.98351" lon="6.47082">
        <ele>1595.6</ele>
        <time>2024-08-11T08:00:58Z</time>
      </trkpt>
      <trkpt lat="44.98352" lon="6.47086">
        <ele>1595.4</ele>
        <time>2024-08-11T08:00:59Z</time>
      </trkpt>
      <trkpt lat="44.98352" lon="6.47086">
        <ele>1595</ele>
        <time>2024-08-11T08:01:00Z</time>
      </trkpt>
      <trkpt lat="44.98352" lon="6.47091">
        <ele>1594.8</ele>
        <time>2024-08-11T08:01:01Z</time>
      </trkpt>
      <trkpt lat="44.98352" lon="6.47091">
        <ele>1594.8</ele>
        <time>2024-08-11T08:01:02Z</time>
      </trkpt>
      <trkpt lat="44.98352" lon="6.47091">
        <ele>1594.8</ele>
        <time>2024-08-11T08:01:03Z</time>
      </trkpt>
      <trkpt lat="44.9835" lon="6.47096">
        <ele>1594.4</ele>
        <time>2024-08-11T08:01:04Z</time>
      </trkpt>
      <trkpt lat="44.98349" lon="6.47098">
        <ele>1594.4</ele>
        <time>2024-08-11T08:01:05Z</time>
      </trkpt>
      <trkpt lat="44.98349" lon="6.47098">
        <ele>1594.4</ele>
        <time>2024-08-11T08:01:06Z</time>
      </trkpt>
      <trkpt lat="44.98347" lon="6.47101">
        <ele>1594</ele>
        <time>2024-08-11T08:01:07Z</time>
      </trkpt>
      <trkpt lat="44.98347" lon="6.47101">
        <ele>1594</ele>
        <time>2024-08-11T08:01:08Z</time>
      </trkpt>
      <trkpt lat="44.98345" lon="6.47105">
        <ele>1594</ele>
        <time>2024-08-11T08:01:09Z</time>
      </trkpt>
      <trkpt lat="44.98345" lon="6.47105">
        <ele>1594</ele>
        <time>2024-08-11T08:01:10Z</time>
      </trkpt>
      <trkpt lat="44.98344" lon="6.47108">
        <ele>1594</ele>
        <time>2024-08-11T08:01:11Z</time>
      </trkpt>
      <trkpt lat="44.98344" lon="6.47108">
        <ele>1594</ele>
        <time>2024-08-11T08:01:12Z</time>
      </trkpt>
      <trkpt lat="44.98345" lon="6.47111">
        <ele>1593.8</ele>
        <time>2024-08-11T08:01:13Z</time>
      </trkpt>
      <trkpt lat="44.98345" lon="6.47111">
        <ele>1593.8</ele>
        <time>2024-08-11T08:01:14Z</time>
      </trkpt>
      <trkpt lat="44.98345" lon="6.47115">
        <ele>1593.6</ele>
        <time>2024-08-11T08:01:15Z</time>
      </trkpt>
      <trkpt lat="44.98345" lon="6.47115">
        <ele>1593.4</ele>
        <time>2024-08-11T08:01:16Z</time>
      </trkpt>
      <trkpt lat="44.98345" lon="6.47115">
        <ele>1593.4</ele>
        <time>2024-08-11T08:01:17Z</time>
      </trkpt>
      <trkpt lat="44.98348" lon="6.47118">
        <ele>1593</ele>
        <time>2024-08-11T08:01:18Z</time>
      </trkpt>
      <trkpt lat="44.98349" lon="6.47119">
        <ele>1592.8</ele>
        <time>2024-08-11T08:01:19Z</time>
      </trkpt>
      <trkpt lat="44.98349" lon="6.47119">
        <ele>1592.8</ele>
        <time>2024-08-11T08:01:20Z</time>
      </trkpt>
      <trkpt lat="44.98352" lon="6.47121">
        <ele>1592.8</ele>
        <time>2024-08-11T08:01:21Z</time>
      </trkpt>
      <trkpt lat="44.98352" lon="6.47121">
        <ele>1592.2</ele>
        <time>2024-08-11T08:01:22Z</time>
      </trkpt>
      <trkpt lat="44.98355" lon="6.47123">
        <ele>1592.2</ele>
        <time>2024-08-11T08:01:23Z</time>
      </trkpt>
      <trkpt lat="44.98355" lon="6.47123">
        <ele>1592</ele>
        <time>2024-08-11T08:01:24Z</time>
      </trkpt>
      <trkpt lat="44.98357" lon="6.47124">
        <ele>1592</ele>
        <time>2024-08-11T08:01:25Z</time>
      </trkpt>
      <trkpt lat="44.98357" lon="6.47124">
        <ele>1591.6</ele>
        <time>2024-08-11T08:01:26Z</time>
      </trkpt>
      <trkpt lat="44.98359" lon="6.47125">
        <ele>1591.2</ele>
        <time>2024-08-11T08:01:27Z</time>
      </trkpt>
      <trkpt lat="44.98359" lon="6.47125">
        <ele>1591.2</ele>
        <time>2024-08-11T08:01:28Z</time>
      </trkpt>
      <trkpt lat="44.98362" lon="6.47125">
        <ele>1591</ele>
        <time>2024-08-11T08:01:29Z</time>
      </trkpt>
      <trkpt lat="44.98362" lon="6.47125">
        <ele>1591</ele>
        <time>2024-08-11T08:01:30Z</time>
      </trkpt>
      <trkpt lat="44.98364" lon="6.47126">
        <ele>1591</ele>
        <time>2024-08-11T08:01:31Z</time>
      </trkpt>
      <trkpt lat="44.98364" lon="6.47126">
        <ele>1590.8</ele>
        <time>2024-08-11T08:01:32Z</time>
      </trkpt>
      <trkpt lat="44.98365" lon="6.47129">
        <ele>1590.8</ele>
        <time>2024-08-11T08:01:33Z</time>
      </trkpt>
      <trkpt lat="44.98365" lon="6.47129">
        <ele>1590.8</ele>
        <time>2024-08-11T08:01:34Z</time>
      </trkpt>
      <trkpt lat="44.98366" lon="6.47132">
        <ele>1591</ele>
        <time>2024-08-11T08:01:35Z</time>
      </trkpt>
      <trkpt lat="44.98366" lon="6.47132">
        <ele>1591</ele>
        <time>2024-08-11T08:01:36Z</time>
      </trkpt>
      <trkpt lat="44.98367" lon="6.47136">
        <ele>1591</ele>
        <time>2024-08-11T08:01:37Z</time>
      </trkpt>
      <trkpt lat="44.98367" lon="6.47136">
        <ele>1590.8</ele>
        <time>2024-08-11T08:01:38Z</time>
      </trkpt>
      <trkpt lat="44.98369" lon="6.47139">
        <ele>1590.4</ele>
        <time>2024-08-11T08:01:39Z</time>
      </trkpt>
      <trkpt lat="44.98369" lon="6.47139">
        <ele>1590.2</ele>
        <time>2024-08-11T08:01:40Z</time>
      </trkpt>
      <trkpt lat="44.98371" lon="6.47142">
        <ele>1590</ele>
        <time>2024-08-11T08:01:41Z</time>
      </trkpt>
      <trkpt lat="44.98371" lon="6.47142">
        <ele>1589.8</ele>
        <time>2024-08-11T08:01:42Z</time>
      </trkpt>
      <trkpt lat="44.98373" lon="6.47145">
        <ele>1589.6</ele>
        <time>2024-08-11T08:01:43Z</time>
      </trkpt>
      <trkpt lat="44.98373" lon="6.47145">
        <ele>1589.6</ele>
        <time>2024-08-11T08:01:44Z</time>
      </trkpt>
      <trkpt lat="44.98374" lon="6.47148">
        <ele>1589.4</ele>
        <time>2024-08-11T08:01:45Z</time>
      </trkpt>
      <trkpt lat="44.98374" lon="6.47148">
        <ele>1589.2</ele>
        <time>2024-08-11T08:01:46Z</time>
      </trkpt>
      <trkpt lat="44.98374" lon="6.47148">
        <ele>1589.2</ele>
        <time>2024-08-11T08:01:47Z</time>
      </trkpt>
      <trkpt lat="44.98376" lon="6.47148">
        <ele>1589</ele>
        <time>2024-08-11T08:01:48Z</time>
      </trkpt>
      <trkpt lat="44.98376" lon="6.47148">
        <ele>1589</ele>
        <time>2024-08-11T08:01:49Z</time>
      </trkpt>
      <trkpt lat="44.98378" lon="6.47147">
        <ele>1589</ele>
        <time>2024-08-11T08:01:50Z</time>
      </trkpt>
      <trkpt lat="44.98378" lon="6.47147">
        <ele>1588.8</ele>
        <time>2024-08-11T08:01:51Z</time>
      </trkpt>
      <trkpt lat="44.98378" lon="6.47147">
        <ele>1588.8</ele>
        <time>2024-08-11T08:01:52Z</time>
      </trkpt>
      <trkpt lat="44.98378" lon="6.47147">
        <ele>1588.6</ele>
        <time>2024-08-11T08:01:53Z</time>
      </trkpt>
      <trkpt lat="44.98378" lon="6.47147">
        <ele>1588.8</ele>
        <time>2024-08-11T08:01:54Z</time>
      </trkpt>
      <trkpt lat="44.98378" lon="6.47147">
        <ele>1588.8</ele>
        <time>2024-08-11T08:01:55Z</time>
      </trkpt>
      <trkpt lat="44.98378" lon="6.47147">
        <ele>1589</ele>
        <time>2024-08-11T08:01:56Z</time>
      </trkpt>
      <trkpt lat="44.98378" lon="6.47147">
        <ele>1589</ele>
        <time>2024-08-11T08:01:57Z</time>
      </trkpt>
      <trkpt lat="44.98378" lon="6.47147">
        <ele>1589</ele>
        <time>2024-08-11T08:01:58Z</time>
      </trkpt>
      <trkpt lat="44.98378" lon="6.47147">
        <ele>1588.8</ele>
        <time>2024-08-11T08:01:59Z</time>
      </trkpt>
      <trkpt lat="44.98378" lon="6.47147">
        <ele>1588.8</ele>
        <time>2024-08-11T08:02:00Z</time>
      </trkpt>
      <trkpt lat="44.98378" lon="6.47147">
        <ele>1588.8</ele>
        <time>2024-08-11T08:02:01Z</time>
      </trkpt>
      <trkpt lat="44.98378" lon="6.47147">
        <ele>1589</ele>
        <time>2024-08-11T08:02:02Z</time>
      </trkpt>
      <trkpt lat="44.98378" lon="6.47147">
        <ele>1589</ele>
        <time>2024-08-11T08:02:03Z</time>
      </trkpt>
      <trkpt lat="44.98378" lon="6.47147">
        <ele>1589</ele>
        <time>2024-08-11T08:02:04Z</time>
      </trkpt>
      <trkpt lat="44.98378" lon="6.47147">
        <ele>1588.8</ele>
        <time>2024-08-11T08:02:05Z</time>
      </trkpt>
      <trkpt lat="44.98378" lon="6.47147">
        <ele>1588.8</ele>
        <time>2024-08-11T08:02:06Z</time>
      </trkpt>
      <trkpt lat="44.98378" lon="6.47147">
        <ele>1588.8</ele>
        <time>2024-08-11T08:02:07Z</time>
      </trkpt>
      <trkpt lat="44.98378" lon="6.47147">
        <ele>1588.8</ele>
        <time>2024-08-11T08:02:08Z</time>
      </trkpt>
      <trkpt lat="44.98378" lon="6.47147">
        <ele>1588.8</ele>
        <time>2024-08-11T08:02:09Z</time>
      </trkpt>
      <trkpt lat="44.98378" lon="6.47147">
        <ele>1588.8</ele>
        <time>2024-08-11T08:02:10Z</time>
      </trkpt>
      <trkpt lat="44.98378" lon="6.47147">
        <ele>1588.6</ele>
        <time>2024-08-11T08:02:11Z</time>
      </trkpt>
      <trkpt lat="44.98378" lon="6.47147">
        <ele>1588.6</ele>
        <time>2024-08-11T08:02:12Z</time>
      </trkpt>
      <trkpt lat="44.98378" lon="6.47147">
        <ele>1588.6</ele>
        <time>2024-08-11T08:02:13Z</time>
      </trkpt>
      <trkpt lat="44.98378" lon="6.47147">
        <ele>1588.8</ele>
        <time>2024-08-11T08:02:14Z</time>
      </trkpt>
      <trkpt lat="44.98378" lon="6.47147">
        <ele>1588.8</ele>
        <time>2024-08-11T08:02:15Z</time>
      </trkpt>
      <trkpt lat="44.98378" lon="6.47147">
        <ele>1588.8</ele>
        <time>2024-08-11T08:02:16Z</time>
      </trkpt>
      <trkpt lat="44.98378" lon="6.47147">
        <ele>1588.8</ele>
        <time>2024-08-11T08:02:17Z</time>
      </trkpt>
      <trkpt lat="44.98378" lon="6.47147">
        <ele>1588.6</ele>
        <time>2024-08-11T08:02:18Z</time>
      </trkpt>
      <trkpt lat="44.98378" lon="6.47147">
        <ele>1588.6</ele>
        <time>2024-08-11T08:02:19Z</time>
      </trkpt>
      <trkpt lat="44.98378" lon="6.47147">
        <ele>1588.6</ele>
        <time>2024-08-11T08:02:20Z</time>
      </trkpt>
      <trkpt lat="44.98378" lon="6.47147">
        <ele>1588.6</ele>
        <time>2024-08-11T08:02:21Z</time>
      </trkpt>
      <trkpt lat="44.98378" lon="6.47147">
        <ele>1588.6</ele>
        <time>2024-08-11T08:02:22Z</time>
      </trkpt>
      <trkpt lat="44.98378" lon="6.47147">
        <ele>1588.6</ele>
        <time>2024-08-11T08:02:23Z</time>
      </trkpt>
      <trkpt lat="44.98378" lon="6.47147">
        <ele>1588.8</ele>
        <time>2024-08-11T08:02:24Z</time>
      </trkpt>
      <trkpt lat="44.98378" lon="6.47147">
        <ele>1588.8</ele>
        <time>2024-08-11T08:02:25Z</time>
      </trkpt>
      <trkpt lat="44.98378" lon="6.47147">
        <ele>1588.8</ele>
        <time>2024-08-11T08:02:26Z</time>
      </trkpt>
      <trkpt lat="44.98378" lon="6.47147">
        <ele>1588.6</ele>
        <time>2024-08-11T08:02:27Z</time>
      </trkpt>
      <trkpt lat="44.98378" lon="6.47147">
        <ele>1588.6</ele>
        <time>2024-08-11T08:02:28Z</time>
      </trkpt>
      <trkpt lat="44.98378" lon="6.47147">
        <ele>1588.6</ele>
        <time>2024-08-11T08:02:29Z</time>
      </trkpt>
      <trkpt lat="44.98378" lon="6.47147">
        <ele>1588.6</ele>
        <time>2024-08-11T08:02:30Z</time>
      </trkpt>
      <trkpt lat="44.98378" lon="6.47147">
        <ele>1588.6</ele>
        <time>2024-08-11T08:02:31Z</time>
      </trkpt>
      <trkpt lat="44.98378" lon="6.47147">
        <ele>1588.6</ele>
        <time>2024-08-11T08:02:32Z</time>
      </trkpt>
      <trkpt lat="44.98378" lon="6.47147">
        <ele>1588.6</ele>
        <time>2024-08-11T08:02:33Z</time>
      </trkpt>
      <trkpt lat="44.98378" lon="6.47147">
        <ele>1588.6</ele>
        <time>2024-08-11T08:02:34Z</time>
      </trkpt>
      <trkpt lat="44.98378" lon="6.47147">
        <ele>1588.4</ele>
        <time>2024-08-11T08:02:35Z</time>
      </trkpt>
      <trkpt lat="44.98378" lon="6.47147">
        <ele>1588.4</ele>
        <time>2024-08-11T08:02:36Z</time>
      </trkpt>
      <trkpt lat="44.98378" lon="6.47147">
        <ele>1588.4</ele>
        <time>2024-08-11T08:02:37Z</time>
      </trkpt>
      <trkpt lat="44.98378" lon="6.47147">
        <ele>1588.4</ele>
        <time>2024-08-11T08:02:38Z</time>
      </trkpt>
      <trkpt lat="44.98378" lon="6.47147">
        <ele>1588.6</ele>
        <time>2024-08-11T08:02:39Z</time>
      </trkpt>
      <trkpt lat="44.98378" lon="6.47147">
        <ele>1588.6</ele>
        <time>2024-08-11T08:02:40Z</time>
      </trkpt>
      <trkpt lat="44.98378" lon="6.47147">
        <ele>1588.4</ele>
        <time>2024-08-11T08:02:41Z</time>
      </trkpt>
      <trkpt lat="44.98378" lon="6.47147">
        <ele>1588.4</ele>
        <time>2024-08-11T08:02:42Z</time>
      </trkpt>
      <trkpt lat="44.98378" lon="6.47147">
        <ele>1588.4</ele>
        <time>2024-08-11T08:02:43Z</time>
      </trkpt>
      <trkpt lat="44.98378" lon="6.47147">
        <ele>1588.4</ele>
        <time>2024-08-11T08:02:44Z</time>
      </trkpt>
      <trkpt lat="44.98378" lon="6.47147">
        <ele>1588.4</ele>
        <time>2024-08-11T08:02:45Z</time>
      </trkpt>
      <trkpt lat="44.98378" lon="6.47147">
        <ele>1588.6</ele>
        <time>2024-08-11T08:02:46Z</time>
      </trkpt>
      <trkpt lat="44.98378" lon="6.47147">
        <ele>1588.6</ele>
        <time>2024-08-11T08:02:47Z</time>
      </trkpt>
      <trkpt lat="44.98378" lon="6.47147">
        <ele>1588.4</ele>
        <time>2024-08-11T08:02:48Z</time>
      </trkpt>
      <trkpt lat="44.98378" lon="6.47147">
        <ele>1588.2</ele>
        <time>2024-08-11T08:02:49Z</time>
      </trkpt>
      <trkpt lat="44.98378" lon="6.47147">
        <ele>1588.2</ele>
        <time>2024-08-11T08:02:50Z</time>
      </trkpt>
      <trkpt lat="44.98378" lon="6.47147">
        <ele>1588.2</ele>
        <time>2024-08-11T08:02:51Z</time>
      </trkpt>
      <trkpt lat="44.98378" lon="6.47147">
        <ele>1588.2</ele>
        <time>2024-08-11T08:02:52Z</time>
      </trkpt>
      <trkpt lat="44.98378" lon="6.47147">
        <ele>1588.2</ele>
        <time>2024-08-11T08:02:53Z</time>
      </trkpt>
      <trkpt lat="44.98378" lon="6.47147">
        <ele>1588.2</ele>
        <time>2024-08-11T08:02:54Z</time>
      </trkpt>
      <trkpt lat="44.98378" lon="6.47147">
        <ele>1588.2</ele>
        <time>2024-08-11T08:02:55Z</time>
      </trkpt>
      <trkpt lat="44.98378" lon="6.47147">
        <ele>1588.2</ele>
        <time>2024-08-11T08:02:56Z</time>
      </trkpt>
      <trkpt lat="44.98379" lon="6.4715">
        <ele>1588.2</ele>
        <time>2024-08-11T08:02:57Z</time>
      </trkpt>
      <trkpt lat="44.98379" lon="6.4715">
        <ele>1588.2</ele>
        <time>2024-08-11T08:02:58Z</time>
      </trkpt>
      <trkpt lat="44.9838" lon="6.47155">
        <ele>1588</ele>
        <time>2024-08-11T08:02:59Z</time>
      </trkpt>
      <trkpt lat="44.9838" lon="6.47155">
        <ele>1587.8</ele>
        <time>2024-08-11T08:03:00Z</time>
      </trkpt>
      <trkpt lat="44.98381" lon="6.47159">
        <ele>1587.2</ele>
        <time>2024-08-11T08:03:01Z</time>
      </trkpt>
      <trkpt lat="44.98381" lon="6.47159">
        <ele>1587.4</ele>
        <time>2024-08-11T08:03:02Z</time>
      </trkpt>
      <trkpt lat="44.98381" lon="6.47159">
        <ele>1587.4</ele>
        <time>2024-08-11T08:03:03Z</time>
      </trkpt>
      <trkpt lat="44.98381" lon="6.47165">
        <ele>1587.2</ele>
        <time>2024-08-11T08:03:04Z</time>
      </trkpt>
      <trkpt lat="44.98382" lon="6.47166">
        <ele>1587</ele>
        <time>2024-08-11T08:03:05Z</time>
      </trkpt>
      <trkpt lat="44.98382" lon="6.47166">
        <ele>1587</ele>
        <time>2024-08-11T08:03:06Z</time>
      </trkpt>
      <trkpt lat="44.98382" lon="6.47169">
        <ele>1586.8</ele>
        <time>2024-08-11T08:03:07Z</time>
      </trkpt>
      <trkpt lat="44.98384" lon="6.47171">
        <ele>1586.4</ele>
        <time>2024-08-11T08:03:08Z</time>
      </trkpt>
      <trkpt lat="44.98384" lon="6.47171">
        <ele>1586.4</ele>
        <time>2024-08-11T08:03:09Z</time>
      </trkpt>
      <trkpt lat="44.98385" lon="6.47174">
        <ele>1586.2</ele>
        <time>2024-08-11T08:03:10Z</time>
      </trkpt>
      <trkpt lat="44.98385" lon="6.47174">
        <ele>1586</ele>
        <time>2024-08-11T08:03:11Z</time>
      </trkpt>
      <trkpt lat="44.98386" lon="6.47177">
        <ele>1585.8</ele>
        <time>2024-08-11T08:03:12Z</time>
      </trkpt>
      <trkpt lat="44.98386" lon="6.47177">
        <ele>1585.8</ele>
        <time>2024-08-11T08:03:13Z</time>
      </trkpt>
      <trkpt lat="44.98386" lon="6.47181">
        <ele>1585.8</ele>
        <time>2024-08-11T08:03:14Z</time>
      </trkpt>
      <trkpt lat="44.98386" lon="6.47181">
        <ele>1585.8</ele>
        <time>2024-08-11T08:03:15Z</time>
      </trkpt>
      <trkpt lat="44.98387" lon="6.47183">
        <ele>1585.8</ele>
        <time>2024-08-11T08:03:16Z</time>
      </trkpt>
      <trkpt lat="44.98389" lon="6.47185">
        <ele>1585.6</ele>
        <time>2024-08-11T08:03:17Z</time>
      </trkpt>
      <trkpt lat="44.98389" lon="6.47185">
        <ele>1585.6</ele>
        <time>2024-08-11T08:03:18Z</time>
      </trkpt>
      <trkpt lat="44.98391" lon="6.47187">
        <ele>1585.6</ele>
        <time>2024-08-11T08:03:19Z</time>
      </trkpt>
      <trkpt lat="44.98391" lon="6.47187">
        <ele>1585.6</ele>
        <time>2024-08-11T08:03:20Z</time>
      </trkpt>
      <trkpt lat="44.98393" lon="6.47189">
        <ele>1585.4</ele>
        <time>2024-08-11T08:03:21Z</time>
      </trkpt>
      <trkpt lat="44.98393" lon="6.47189">
        <ele>1585.4</ele>
        <time>2024-08-11T08:03:22Z</time>
      </trkpt>
      <trkpt lat="44.98394" lon="6.47192">
        <ele>1585.4</ele>
        <time>2024-08-11T08:03:23Z</time>
      </trkpt>
      <trkpt lat="44.98396" lon="6.47194">
        <ele>1585.4</ele>
        <time>2024-08-11T08:03:24Z</time>
      </trkpt>
      <trkpt lat="44.98398" lon="6.47196">
        <ele>1585.4</ele>
        <time>2024-08-11T08:03:25Z</time>
      </trkpt>
      <trkpt lat="44.98399" lon="6.47198">
        <ele>1585.4</ele>
        <time>2024-08-11T08:03:26Z</time>
      </trkpt>
      <trkpt lat="44.98399" lon="6.47198">
        <ele>1585.2</ele>
        <time>2024-08-11T08:03:27Z</time>
      </trkpt>
      <trkpt lat="44.98401" lon="6.47201">
        <ele>1585.2</ele>
        <time>2024-08-11T08:03:28Z</time>
      </trkpt>
      <trkpt lat="44.98402" lon="6.47204">
        <ele>1585</ele>
        <time>2024-08-11T08:03:29Z</time>
      </trkpt>
      <trkpt lat="44.98403" lon="6.47205">
        <ele>1585</ele>
        <time>2024-08-11T08:03:30Z</time>
      </trkpt>
      <trkpt lat="44.98404" lon="6.47206">
        <ele>1585</ele>
        <time>2024-08-11T08:03:31Z</time>
      </trkpt>
      <trkpt lat="44.98404" lon="6.47206">
        <ele>1584.6</ele>
        <time>2024-08-11T08:03:32Z</time>
      </trkpt>
      <trkpt lat="44.98405" lon="6.4721">
        <ele>1584.6</ele>
        <time>2024-08-11T08:03:33Z</time>
      </trkpt>
      <trkpt lat="44.98405" lon="6.4721">
        <ele>1584.4</ele>
        <time>2024-08-11T08:03:34Z</time>
      </trkpt>
      <trkpt lat="44.98407" lon="6.47212">
        <ele>1584.2</ele>
        <time>2024-08-11T08:03:35Z</time>
      </trkpt>
      <trkpt lat="44.98407" lon="6.47212">
        <ele>1584.2</ele>
        <time>2024-08-11T08:03:36Z</time>
      </trkpt>
      <trkpt lat="44.98407" lon="6.47216">
        <ele>1584.2</ele>
        <time>2024-08-11T08:03:37Z</time>
      </trkpt>
      <trkpt lat="44.98407" lon="6.47216">
        <ele>1584</ele>
        <time>2024-08-11T08:03:38Z</time>
      </trkpt>
      <trkpt lat="44.98408" lon="6.4722">
        <ele>1583.6</ele>
        <time>2024-08-11T08:03:39Z</time>
      </trkpt>
      <trkpt lat="44.98408" lon="6.4722">
        <ele>1583.6</ele>
        <time>2024-08-11T08:03:40Z</time>
      </trkpt>
      <trkpt lat="44.98409" lon="6.47224">
        <ele>1583.4</ele>
        <time>2024-08-11T08:03:41Z</time>
      </trkpt>
      <trkpt lat="44.98409" lon="6.47224">
        <ele>1583.4</ele>
        <time>2024-08-11T08:03:42Z</time>
      </trkpt>
      <trkpt lat="44.98411" lon="6.47227">
        <ele>1583.2</ele>
        <time>2024-08-11T08:03:43Z</time>
      </trkpt>
      <trkpt lat="44.98413" lon="6.47229">
        <ele>1583.2</ele>
        <time>2024-08-11T08:03:44Z</time>
      </trkpt>
      <trkpt lat="44.98413" lon="6.47229">
        <ele>1583</ele>
        <time>2024-08-11T08:03:45Z</time>
      </trkpt>
      <trkpt lat="44.98413" lon="6.47233">
        <ele>1583</ele>
        <time>2024-08-11T08:03:46Z</time>
      </trkpt>
      <trkpt lat="44.98414" lon="6.47236">
        <ele>1583</ele>
        <time>2024-08-11T08:03:47Z</time>
      </trkpt>
      <trkpt lat="44.98414" lon="6.47236">
        <ele>1582.8</ele>
        <time>2024-08-11T08:03:48Z</time>
      </trkpt>
      <trkpt lat="44.98414" lon="6.47241">
        <ele>1582.6</ele>
        <time>2024-08-11T08:03:49Z</time>
      </trkpt>
      <trkpt lat="44.98414" lon="6.47241">
        <ele>1582.6</ele>
        <time>2024-08-11T08:03:50Z</time>
      </trkpt>
      <trkpt lat="44.98413" lon="6.47245">
        <ele>1582.4</ele>
        <time>2024-08-11T08:03:51Z</time>
      </trkpt>
      <trkpt lat="44.98413" lon="6.47245">
        <ele>1582.2</ele>
        <time>2024-08-11T08:03:52Z</time>
      </trkpt>
      <trkpt lat="44.98413" lon="6.47249">
        <ele>1582.2</ele>
        <time>2024-08-11T08:03:53Z</time>
      </trkpt>
      <trkpt lat="44.98413" lon="6.47249">
        <ele>1582</ele>
        <time>2024-08-11T08:03:54Z</time>
      </trkpt>
      <trkpt lat="44.98413" lon="6.47253">
        <ele>1581.8</ele>
        <time>2024-08-11T08:03:55Z</time>
      </trkpt>
      <trkpt lat="44.98413" lon="6.47253">
        <ele>1581.6</ele>
        <time>2024-08-11T08:03:56Z</time>
      </trkpt>
      <trkpt lat="44.98414" lon="6.47256">
        <ele>1581.6</ele>
        <time>2024-08-11T08:03:57Z</time>
      </trkpt>
      <trkpt lat="44.98414" lon="6.47256">
        <ele>1581.6</ele>
        <time>2024-08-11T08:03:58Z</time>
      </trkpt>
      <trkpt lat="44.98414" lon="6.47259">
        <ele>1581.6</ele>
        <time>2024-08-11T08:03:59Z</time>
      </trkpt>
      <trkpt lat="44.98414" lon="6.47259">
        <ele>1581.4</ele>
        <time>2024-08-11T08:04:00Z</time>
      </trkpt>
      <trkpt lat="44.98414" lon="6.47262">
        <ele>1581.2</ele>
        <time>2024-08-11T08:04:01Z</time>
      </trkpt>
      <trkpt lat="44.98414" lon="6.47262">
        <ele>1581.2</ele>
        <time>2024-08-11T08:04:02Z</time>
      </trkpt>
      <trkpt lat="44.98414" lon="6.47266">
        <ele>1581.2</ele>
        <time>2024-08-11T08:04:03Z</time>
      </trkpt>
      <trkpt lat="44.98414" lon="6.47266">
        <ele>1581</ele>
        <time>2024-08-11T08:04:04Z</time>
      </trkpt>
      <trkpt lat="44.98415" lon="6.47269">
        <ele>1581</ele>
        <time>2024-08-11T08:04:05Z</time>
      </trkpt>
      <trkpt lat="44.98415" lon="6.47269">
        <ele>1580.8</ele>
        <time>2024-08-11T08:04:06Z</time>
      </trkpt>
      <trkpt lat="44.98416" lon="6.47272">
        <ele>1580.6</ele>
        <time>2024-08-11T08:04:07Z</time>
      </trkpt>
      <trkpt lat="44.98417" lon="6.47274">
        <ele>1580.6</ele>
        <time>2024-08-11T08:04:08Z</time>
      </trkpt>
      <trkpt lat="44.98417" lon="6.47274">
        <ele>1580.6</ele>
        <time>2024-08-11T08:04:09Z</time>
      </trkpt>
      <trkpt lat="44.98418" lon="6.47279">
        <ele>1580.4</ele>
        <time>2024-08-11T08:04:10Z</time>
      </trkpt>
      <trkpt lat="44.98418" lon="6.47279">
        <ele>1580.4</ele>
        <time>2024-08-11T08:04:11Z</time>
      </trkpt>
      <trkpt lat="44.98419" lon="6.47283">
        <ele>1580.4</ele>
        <time>2024-08-11T08:04:12Z</time>
      </trkpt>
      <trkpt lat="44.98419" lon="6.47283">
        <ele>1580.2</ele>
        <time>2024-08-11T08:04:13Z</time>
      </trkpt>
      <trkpt lat="44.98419" lon="6.47286">
        <ele>1580</ele>
        <time>2024-08-11T08:04:14Z</time>
      </trkpt>
      <trkpt lat="44.98419" lon="6.47286">
        <ele>1580</ele>
        <time>2024-08-11T08:04:15Z</time>
      </trkpt>
      <trkpt lat="44.98421" lon="6.47289">
        <ele>1579.6</ele>
        <time>2024-08-11T08:04:16Z</time>
      </trkpt>
      <trkpt lat="44.98421" lon="6.47289">
        <ele>1579.6</ele>
        <time>2024-08-11T08:04:17Z</time>
      </trkpt>
      <trkpt lat="44.98422" lon="6.47293">
        <ele>1579.6</ele>
        <time>2024-08-11T08:04:18Z</time>
      </trkpt>
      <trkpt lat="44.98422" lon="6.47293">
        <ele>1579.4</ele>
        <time>2024-08-11T08:04:19Z</time>
      </trkpt>
      <trkpt lat="44.98424" lon="6.47296">
        <ele>1579.4</ele>
        <time>2024-08-11T08:04:20Z</time>
      </trkpt>
      <trkpt lat="44.98426" lon="6.47297">
        <ele>1579.2</ele>
        <time>2024-08-11T08:04:21Z</time>
      </trkpt>
      <trkpt lat="44.98426" lon="6.47297">
        <ele>1579</ele>
        <time>2024-08-11T08:04:22Z</time>
      </trkpt>
      <trkpt lat="44.98428" lon="6.47301">
        <ele>1579</ele>
        <time>2024-08-11T08:04:23Z</time>
      </trkpt>
      <trkpt lat="44.98428" lon="6.47301">
        <ele>1578.8</ele>
        <time>2024-08-11T08:04:24Z</time>
      </trkpt>
      <trkpt lat="44.98428" lon="6.47304">
        <ele>1578.8</ele>
        <time>2024-08-11T08:04:25Z</time>
      </trkpt>
      <trkpt lat="44.98429" lon="6.47307">
        <ele>1578.8</ele>
        <time>2024-08-11T08:04:26Z</time>
      </trkpt>
      <trkpt lat="44.98429" lon="6.47307">
        <ele>1578.6</ele>
        <time>2024-08-11T08:04:27Z</time>
      </trkpt>
      <trkpt lat="44.98428" lon="6.47311">
        <ele>1578.4</ele>
        <time>2024-08-11T08:04:28Z</time>
      </trkpt>
      <trkpt lat="44.98428" lon="6.47311">
        <ele>1578.4</ele>
        <time>2024-08-11T08:04:29Z</time>
      </trkpt>
      <trkpt lat="44.98429" lon="6.47315">
        <ele>1578.4</ele>
        <time>2024-08-11T08:04:30Z</time>
      </trkpt>
      <trkpt lat="44.98429" lon="6.47315">
        <ele>1578.4</ele>
        <time>2024-08-11T08:04:31Z</time>
      </trkpt>
      <trkpt lat="44.98429" lon="6.47318">
        <ele>1578.2</ele>
        <time>2024-08-11T08:04:32Z</time>
      </trkpt>
      <trkpt lat="44.98429" lon="6.47318">
        <ele>1578.2</ele>
        <time>2024-08-11T08:04:33Z</time>
      </trkpt>
      <trkpt lat="44.9843" lon="6.47322">
        <ele>1578.2</ele>
        <time>2024-08-11T08:04:34Z</time>
      </trkpt>
      <trkpt lat="44.98431" lon="6.47325">
        <ele>1578.2</ele>
        <time>2024-08-11T08:04:35Z</time>
      </trkpt>
      <trkpt lat="44.98431" lon="6.47325">
        <ele>1578</ele>
        <time>2024-08-11T08:04:36Z</time>
      </trkpt>
      <trkpt lat="44.98433" lon="6.47328">
        <ele>1577.8</ele>
        <time>2024-08-11T08:04:37Z</time>
      </trkpt>
      <trkpt lat="44.98433" lon="6.47328">
        <ele>1577.8</ele>
        <time>2024-08-11T08:04:38Z</time>
      </trkpt>
      <trkpt lat="44.98435" lon="6.47331">
        <ele>1577.8</ele>
        <time>2024-08-11T08:04:39Z</time>
      </trkpt>
      <trkpt lat="44.98437" lon="6.47333">
        <ele>1577.4</ele>
        <time>2024-08-11T08:04:40Z</time>
      </trkpt>
      <trkpt lat="44.98437" lon="6.47333">
        <ele>1577.4</ele>
        <time>2024-08-11T08:04:41Z</time>
      </trkpt>
      <trkpt lat="44.98437" lon="6.47336">
        <ele>1577.4</ele>
        <time>2024-08-11T08:04:42Z</time>
      </trkpt>
      <trkpt lat="44.98437" lon="6.47336">
        <ele>1577.4</ele>
        <time>2024-08-11T08:04:43Z</time>
      </trkpt>
      <trkpt lat="44.98437" lon="6.47339">
        <ele>1577.2</ele>
        <time>2024-08-11T08:04:44Z</time>
      </trkpt>
      <trkpt lat="44.98437" lon="6.47339">
        <ele>1577.2</ele>
        <time>2024-08-11T08:04:45Z</time>
      </trkpt>
      <trkpt lat="44.98437" lon="6.47339">
        <ele>1577</ele>
        <time>2024-08-11T08:04:46Z</time>
      </trkpt>
      <trkpt lat="44.98439" lon="6.47344">
        <ele>1577</ele>
        <time>2024-08-11T08:04:47Z</time>
      </trkpt>
      <trkpt lat="44.98441" lon="6.47346">
        <ele>1577</ele>
        <time>2024-08-11T08:04:48Z</time>
      </trkpt>
      <trkpt lat="44.98441" lon="6.47346">
        <ele>1577</ele>
        <time>2024-08-11T08:04:49Z</time>
      </trkpt>
      <trkpt lat="44.98443" lon="6.47349">
        <ele>1576.8</ele>
        <time>2024-08-11T08:04:50Z</time>
      </trkpt>
      <trkpt lat="44.98443" lon="6.47349">
        <ele>1576.8</ele>
        <time>2024-08-11T08:04:51Z</time>
      </trkpt>
      <trkpt lat="44.98445" lon="6.47353">
        <ele>1576.8</ele>
        <time>2024-08-11T08:04:52Z</time>
      </trkpt>
      <trkpt lat="44.98445" lon="6.47353">
        <ele>1576.4</ele>
        <time>2024-08-11T08:04:53Z</time>
      </trkpt>
      <trkpt lat="44.98444" lon="6.47356">
        <ele>1576.2</ele>
        <time>2024-08-11T08:04:54Z</time>
      </trkpt>
      <trkpt lat="44.98444" lon="6.47356">
        <ele>1576.2</ele>
        <time>2024-08-11T08:04:55Z</time>
      </trkpt>
      <trkpt lat="44.98445" lon="6.4736">
        <ele>1576.2</ele>
        <time>2024-08-11T08:04:56Z</time>
      </trkpt>
      <trkpt lat="44.98445" lon="6.4736">
        <ele>1576.2</ele>
        <time>2024-08-11T08:04:57Z</time>
      </trkpt>
      <trkpt lat="44.98446" lon="6.47364">
        <ele>1576.2</ele>
        <time>2024-08-11T08:04:58Z</time>
      </trkpt>
      <trkpt lat="44.98447" lon="6.47367">
        <ele>1576</ele>
        <time>2024-08-11T08:04:59Z</time>
      </trkpt>
      <trkpt lat="44.98447" lon="6.47367">
        <ele>1575.8</ele>
        <time>2024-08-11T08:05:00Z</time>
      </trkpt>
      <trkpt lat="44.98448" lon="6.47371">
        <ele>1575.6</ele>
        <time>2024-08-11T08:05:01Z</time>
      </trkpt>
      <trkpt lat="44.98448" lon="6.47371">
        <ele>1575.4</ele>
        <time>2024-08-11T08:05:02Z</time>
      </trkpt>
      <trkpt lat="44.98449" lon="6.47374">
        <ele>1575.4</ele>
        <time>2024-08-11T08:05:03Z</time>
      </trkpt>
      <trkpt lat="44.98449" lon="6.47374">
        <ele>1575.4</ele>
        <time>2024-08-11T08:05:04Z</time>
      </trkpt>
      <trkpt lat="44.9845" lon="6.47378">
        <ele>1575.4</ele>
        <time>2024-08-11T08:05:05Z</time>
      </trkpt>
      <trkpt lat="44.9845" lon="6.47378">
        <ele>1575.2</ele>
        <time>2024-08-11T08:05:06Z</time>
      </trkpt>
      <trkpt lat="44.98452" lon="6.47382">
        <ele>1575.2</ele>
        <time>2024-08-11T08:05:07Z</time>
      </trkpt>
      <trkpt lat="44.98452" lon="6.47382">
        <ele>1575.2</ele>
        <time>2024-08-11T08:05:08Z</time>
      </trkpt>
      <trkpt lat="44.98453" lon="6.47386">
        <ele>1575</ele>
        <time>2024-08-11T08:05:09Z</time>
      </trkpt>
      <trkpt lat="44.98453" lon="6.47386">
        <ele>1575</ele>
        <time>2024-08-11T08:05:10Z</time>
      </trkpt>
      <trkpt lat="44.98453" lon="6.47391">
        <ele>1575</ele>
        <time>2024-08-11T08:05:11Z</time>
      </trkpt>
      <trkpt lat="44.98453" lon="6.47391">
        <ele>1575</ele>
        <time>2024-08-11T08:05:12Z</time>
      </trkpt>
      <trkpt lat="44.98453" lon="6.47395">
        <ele>1575</ele>
        <time>2024-08-11T08:05:13Z</time>
      </trkpt>
      <trkpt lat="44.98453" lon="6.47395">
        <ele>1574.8</ele>
        <time>2024-08-11T08:05:14Z</time>
      </trkpt>
      <trkpt lat="44.98453" lon="6.47398">
        <ele>1574.4</ele>
        <time>2024-08-11T08:05:15Z</time>
      </trkpt>
      <trkpt lat="44.98453" lon="6.47398">
        <ele>1574.2</ele>
        <time>2024-08-11T08:05:16Z</time>
      </trkpt>
      <trkpt lat="44.98453" lon="6.47402">
        <ele>1574</ele>
        <time>2024-08-11T08:05:17Z</time>
      </trkpt>
      <trkpt lat="44.98453" lon="6.47402">
        <ele>1574</ele>
        <time>2024-08-11T08:05:18Z</time>
      </trkpt>
      <trkpt lat="44.98453" lon="6.47405">
        <ele>1574</ele>
        <time>2024-08-11T08:05:19Z</time>
      </trkpt>
      <trkpt lat="44.98453" lon="6.47405">
        <ele>1573.6</ele>
        <time>2024-08-11T08:05:20Z</time>
      </trkpt>
      <trkpt lat="44.98454" lon="6.47408">
        <ele>1573.2</ele>
        <time>2024-08-11T08:05:21Z</time>
      </trkpt>
      <trkpt lat="44.98454" lon="6.47408">
        <ele>1573.2</ele>
        <time>2024-08-11T08:05:22Z</time>
      </trkpt>
      <trkpt lat="44.98454" lon="6.47413">
        <ele>1573.2</ele>
        <time>2024-08-11T08:05:23Z</time>
      </trkpt>
      <trkpt lat="44.98454" lon="6.47413">
        <ele>1573.2</ele>
        <time>2024-08-11T08:05:24Z</time>
      </trkpt>
      <trkpt lat="44.98454" lon="6.47416">
        <ele>1573</ele>
        <time>2024-08-11T08:05:25Z</time>
      </trkpt>
      <trkpt lat="44.98454" lon="6.47416">
        <ele>1573</ele>
        <time>2024-08-11T08:05:26Z</time>
      </trkpt>
      <trkpt lat="44.98454" lon="6.4742">
        <ele>1573</ele>
        <time>2024-08-11T08:05:27Z</time>
      </trkpt>
      <trkpt lat="44.98454" lon="6.4742">
        <ele>1572.8</ele>
        <time>2024-08-11T08:05:28Z</time>
      </trkpt>
      <trkpt lat="44.98454" lon="6.4742">
        <ele>1572.8</ele>
        <time>2024-08-11T08:05:29Z</time>
      </trkpt>
      <trkpt lat="44.98455" lon="6.47425">
        <ele>1572.8</ele>
        <time>2024-08-11T08:05:30Z</time>
      </trkpt>
      <trkpt lat="44.98456" lon="6.47426">
        <ele>1572.8</ele>
        <time>2024-08-11T08:05:31Z</time>
      </trkpt>
      <trkpt lat="44.98456" lon="6.47426">
        <ele>1572.8</ele>
        <time>2024-08-11T08:05:32Z</time>
      </trkpt>
      <trkpt lat="44.98457" lon="6.4743">
        <ele>1572.8</ele>
        <time>2024-08-11T08:05:33Z</time>
      </trkpt>
      <trkpt lat="44.98457" lon="6.4743">
        <ele>1572.8</ele>
        <time>2024-08-11T08:05:34Z</time>
      </trkpt>
      <trkpt lat="44.98457" lon="6.47433">
        <ele>1572.6</ele>
        <time>2024-08-11T08:05:35Z</time>
      </trkpt>
      <trkpt lat="44.98457" lon="6.47433">
        <ele>1572.6</ele>
        <time>2024-08-11T08:05:36Z</time>
      </trkpt>
      <trkpt lat="44.98457" lon="6.47433">
        <ele>1572.4</ele>
        <time>2024-08-11T08:05:37Z</time>
      </trkpt>
      <trkpt lat="44.98459" lon="6.4744">
        <ele>1572.4</ele>
        <time>2024-08-11T08:05:38Z</time>
      </trkpt>
      <trkpt lat="44.9846" lon="6.47442">
        <ele>1572</ele>
        <time>2024-08-11T08:05:39Z</time>
      </trkpt>
      <trkpt lat="44.98461" lon="6.47444">
        <ele>1572</ele>
        <time>2024-08-11T08:05:40Z</time>
      </trkpt>
      <trkpt lat="44.98461" lon="6.47444">
        <ele>1571.8</ele>
        <time>2024-08-11T08:05:41Z</time>
      </trkpt>
      <trkpt lat="44.98461" lon="6.47448">
        <ele>1571.8</ele>
        <time>2024-08-11T08:05:42Z</time>
      </trkpt>
      <trkpt lat="44.98461" lon="6.47448">
        <ele>1571.6</ele>
        <time>2024-08-11T08:05:43Z</time>
      </trkpt>
      <trkpt lat="44.98463" lon="6.47452">
        <ele>1571.6</ele>
        <time>2024-08-11T08:05:44Z</time>
      </trkpt>
      <trkpt lat="44.98463" lon="6.47452">
        <ele>1571.4</ele>
        <time>2024-08-11T08:05:45Z</time>
      </trkpt>
      <trkpt lat="44.98463" lon="6.47456">
        <ele>1571.4</ele>
        <time>2024-08-11T08:05:46Z</time>
      </trkpt>
      <trkpt lat="44.98463" lon="6.47456">
        <ele>1571.2</ele>
        <time>2024-08-11T08:05:47Z</time>
      </trkpt>
      <trkpt lat="44.98464" lon="6.4746">
        <ele>1571</ele>
        <time>2024-08-11T08:05:48Z</time>
      </trkpt>
      <trkpt lat="44.98464" lon="6.4746">
        <ele>1571</ele>
        <time>2024-08-11T08:05:49Z</time>
      </trkpt>
      <trkpt lat="44.98463" lon="6.47463">
        <ele>1570.8</ele>
        <time>2024-08-11T08:05:50Z</time>
      </trkpt>
      <trkpt lat="44.98463" lon="6.47463">
        <ele>1570.6</ele>
        <time>2024-08-11T08:05:51Z</time>
      </trkpt>
      <trkpt lat="44.98463" lon="6.47466">
        <ele>1570.6</ele>
        <time>2024-08-11T08:05:52Z</time>
      </trkpt>
      <trkpt lat="44.98463" lon="6.47466">
        <ele>1570.4</ele>
        <time>2024-08-11T08:05:53Z</time>
      </trkpt>
      <trkpt lat="44.98465" lon="6.47468">
        <ele>1570.2</ele>
        <time>2024-08-11T08:05:54Z</time>
      </trkpt>
      <trkpt lat="44.98465" lon="6.47468">
        <ele>1570.2</ele>
        <time>2024-08-11T08:05:55Z</time>
      </trkpt>
      <trkpt lat="44.98465" lon="6.47472">
        <ele>1570</ele>
        <time>2024-08-11T08:05:56Z</time>
      </trkpt>
      <trkpt lat="44.98465" lon="6.47472">
        <ele>1570</ele>
        <time>2024-08-11T08:05:57Z</time>
      </trkpt>
      <trkpt lat="44.98466" lon="6.47475">
        <ele>1570</ele>
        <time>2024-08-11T08:05:58Z</time>
      </trkpt>
      <trkpt lat="44.98466" lon="6.47475">
        <ele>1569.8</ele>
        <time>2024-08-11T08:05:59Z</time>
      </trkpt>
      <trkpt lat="44.98466" lon="6.47479">
        <ele>1569.8</ele>
        <time>2024-08-11T08:06:00Z</time>
      </trkpt>
      <trkpt lat="44.98466" lon="6.47479">
        <ele>1569.6</ele>
        <time>2024-08-11T08:06:01Z</time>
      </trkpt>
      <trkpt lat="44.98467" lon="6.47483">
        <ele>1569.4</ele>
        <time>2024-08-11T08:06:02Z</time>
      </trkpt>
      <trkpt lat="44.98467" lon="6.47483">
        <ele>1569.4</ele>
        <time>2024-08-11T08:06:03Z</time>
      </trkpt>
      <trkpt lat="44.98467" lon="6.47487">
        <ele>1569.2</ele>
        <time>2024-08-11T08:06:04Z</time>
      </trkpt>
      <trkpt lat="44.98467" lon="6.47487">
        <ele>1569</ele>
        <time>2024-08-11T08:06:05Z</time>
      </trkpt>
      <trkpt lat="44.98467" lon="6.47487">
        <ele>1569</ele>
        <time>2024-08-11T08:06:06Z</time>
      </trkpt>
      <trkpt lat="44.98468" lon="6.47491">
        <ele>1568.8</ele>
        <time>2024-08-11T08:06:07Z</time>
      </trkpt>
      <trkpt lat="44.98468" lon="6.47491">
        <ele>1568.8</ele>
        <time>2024-08-11T08:06:08Z</time>
      </trkpt>
      <trkpt lat="44.98468" lon="6.47494">
        <ele>1568.6</ele>
        <time>2024-08-11T08:06:09Z</time>
      </trkpt>
      <trkpt lat="44.98468" lon="6.47494">
        <ele>1568.6</ele>
        <time>2024-08-11T08:06:10Z</time>
      </trkpt>
      <trkpt lat="44.98469" lon="6.47498">
        <ele>1568.6</ele>
        <time>2024-08-11T08:06:11Z</time>
      </trkpt>
      <trkpt lat="44.98469" lon="6.47498">
        <ele>1568.6</ele>
        <time>2024-08-11T08:06:12Z</time>
      </trkpt>
      <trkpt lat="44.98469" lon="6.47502">
        <ele>1568.6</ele>
        <time>2024-08-11T08:06:13Z</time>
      </trkpt>
      <trkpt lat="44.98469" lon="6.47502">
        <ele>1568.2</ele>
        <time>2024-08-11T08:06:14Z</time>
      </trkpt>
      <trkpt lat="44.98469" lon="6.47505">
        <ele>1568.2</ele>
        <time>2024-08-11T08:06:15Z</time>
      </trkpt>
      <trkpt lat="44.98469" lon="6.47505">
        <ele>1568</ele>
        <time>2024-08-11T08:06:16Z</time>
      </trkpt>
      <trkpt lat="44.9847" lon="6.4751">
        <ele>1568</ele>
        <time>2024-08-11T08:06:17Z</time>
      </trkpt>
      <trkpt lat="44.9847" lon="6.4751">
        <ele>1567.6</ele>
        <time>2024-08-11T08:06:18Z</time>
      </trkpt>
      <trkpt lat="44.9847" lon="6.47514">
        <ele>1567.4</ele>
        <time>2024-08-11T08:06:19Z</time>
      </trkpt>
      <trkpt lat="44.9847" lon="6.47514">
        <ele>1567.4</ele>
        <time>2024-08-11T08:06:20Z</time>
      </trkpt>
      <trkpt lat="44.98472" lon="6.47517">
        <ele>1567.4</ele>
        <time>2024-08-11T08:06:21Z</time>
      </trkpt>
      <trkpt lat="44.98472" lon="6.47517">
        <ele>1567.4</ele>
        <time>2024-08-11T08:06:22Z</time>
      </trkpt>
      <trkpt lat="44.98473" lon="6.47519">
        <ele>1567.4</ele>
        <time>2024-08-11T08:06:23Z</time>
      </trkpt>
      <trkpt lat="44.98473" lon="6.47519">
        <ele>1567.4</ele>
        <time>2024-08-11T08:06:24Z</time>
      </trkpt>
      <trkpt lat="44.98476" lon="6.47522">
        <ele>1567.2</ele>
        <time>2024-08-11T08:06:25Z</time>
      </trkpt>
      <trkpt lat="44.98476" lon="6.47522">
        <ele>1567.2</ele>
        <time>2024-08-11T08:06:26Z</time>
      </trkpt>
      <trkpt lat="44.98477" lon="6.47525">
        <ele>1567.2</ele>
        <time>2024-08-11T08:06:27Z</time>
      </trkpt>
      <trkpt lat="44.98477" lon="6.47525">
        <ele>1567.2</ele>
        <time>2024-08-11T08:06:28Z</time>
      </trkpt>
      <trkpt lat="44.98479" lon="6.47527">
        <ele>1566.8</ele>
        <time>2024-08-11T08:06:29Z</time>
      </trkpt>
      <trkpt lat="44.98479" lon="6.47527">
        <ele>1566.8</ele>
        <time>2024-08-11T08:06:30Z</time>
      </trkpt>
      <trkpt lat="44.98481" lon="6.4753">
        <ele>1566.8</ele>
        <time>2024-08-11T08:06:31Z</time>
      </trkpt>
      <trkpt lat="44.98481" lon="6.4753">
        <ele>1566.8</ele>
        <time>2024-08-11T08:06:32Z</time>
      </trkpt>
      <trkpt lat="44.98483" lon="6.47534">
        <ele>1566.8</ele>
        <time>2024-08-11T08:06:33Z</time>
      </trkpt>
      <trkpt lat="44.98483" lon="6.47534">
        <ele>1566.8</ele>
        <time>2024-08-11T08:06:34Z</time>
      </trkpt>
      <trkpt lat="44.98485" lon="6.47537">
        <ele>1566.6</ele>
        <time>2024-08-11T08:06:35Z</time>
      </trkpt>
      <trkpt lat="44.98485" lon="6.47537">
        <ele>1566.6</ele>
        <time>2024-08-11T08:06:36Z</time>
      </trkpt>
      <trkpt lat="44.98486" lon="6.4754">
        <ele>1566.4</ele>
        <time>2024-08-11T08:06:37Z</time>
      </trkpt>
      <trkpt lat="44.98486" lon="6.4754">
        <ele>1566.4</ele>
        <time>2024-08-11T08:06:38Z</time>
      </trkpt>
      <trkpt lat="44.98487" lon="6.47544">
        <ele>1566.4</ele>
        <time>2024-08-11T08:06:39Z</time>
      </trkpt>
      <trkpt lat="44.98487" lon="6.47544">
        <ele>1566.2</ele>
        <time>2024-08-11T08:06:40Z</time>
      </trkpt>
      <trkpt lat="44.98488" lon="6.47548">
        <ele>1566.2</ele>
        <time>2024-08-11T08:06:41Z</time>
      </trkpt>
      <trkpt lat="44.98488" lon="6.47548">
        <ele>1566</ele>
        <time>2024-08-11T08:06:42Z</time>
      </trkpt>
      <trkpt lat="44.9849" lon="6.47551">
        <ele>1566</ele>
        <time>2024-08-11T08:06:43Z</time>
      </trkpt>
      <trkpt lat="44.9849" lon="6.47551">
        <ele>1566</ele>
        <time>2024-08-11T08:06:44Z</time>
      </trkpt>
      <trkpt lat="44.98492" lon="6.47554">
        <ele>1565.6</ele>
        <time>2024-08-11T08:06:45Z</time>
      </trkpt>
      <trkpt lat="44.98492" lon="6.47554">
        <ele>1565.2</ele>
        <time>2024-08-11T08:06:46Z</time>
      </trkpt>
      <trkpt lat="44.98493" lon="6.47556">
        <ele>1565.2</ele>
        <time>2024-08-11T08:06:47Z</time>
      </trkpt>
      <trkpt lat="44.98493" lon="6.47556">
        <ele>1565</ele>
        <time>2024-08-11T08:06:48Z</time>
      </trkpt>
      <trkpt lat="44.98495" lon="6.47558">
        <ele>1565</ele>
        <time>2024-08-11T08:06:49Z</time>
      </trkpt>
      <trkpt lat="44.98495" lon="6.47558">
        <ele>1564.8</ele>
        <time>2024-08-11T08:06:50Z</time>
      </trkpt>
      <trkpt lat="44.98497" lon="6.47561">
        <ele>1564.8</ele>
        <time>2024-08-11T08:06:51Z</time>
      </trkpt>
      <trkpt lat="44.98497" lon="6.47561">
        <ele>1564.4</ele>
        <time>2024-08-11T08:06:52Z</time>
      </trkpt>
      <trkpt lat="44.98498" lon="6.47564">
        <ele>1564.2</ele>
        <time>2024-08-11T08:06:53Z</time>
      </trkpt>
      <trkpt lat="44.98498" lon="6.47564">
        <ele>1564</ele>
        <time>2024-08-11T08:06:54Z</time>
      </trkpt>
      <trkpt lat="44.98499" lon="6.47567">
        <ele>1563.8</ele>
        <time>2024-08-11T08:06:55Z</time>
      </trkpt>
      <trkpt lat="44.98499" lon="6.47567">
        <ele>1563.4</ele>
        <time>2024-08-11T08:06:56Z</time>
      </trkpt>
      <trkpt lat="44.985" lon="6.4757">
        <ele>1563.2</ele>
        <time>2024-08-11T08:06:57Z</time>
      </trkpt>
      <trkpt lat="44.985" lon="6.4757">
        <ele>1563</ele>
        <time>2024-08-11T08:06:58Z</time>
      </trkpt>
      <trkpt lat="44.98501" lon="6.47574">
        <ele>1563</ele>
        <time>2024-08-11T08:06:59Z</time>
      </trkpt>
      <trkpt lat="44.98501" lon="6.47574">
        <ele>1562.8</ele>
        <time>2024-08-11T08:07:00Z</time>
      </trkpt>
      <trkpt lat="44.98503" lon="6.47577">
        <ele>1562.8</ele>
        <time>2024-08-11T08:07:01Z</time>
      </trkpt>
      <trkpt lat="44.98503" lon="6.47577">
        <ele>1562.6</ele>
        <time>2024-08-11T08:07:02Z</time>
      </trkpt>
      <trkpt lat="44.98505" lon="6.4758">
        <ele>1562.6</ele>
        <time>2024-08-11T08:07:03Z</time>
      </trkpt>
      <trkpt lat="44.98505" lon="6.4758">
        <ele>1562.4</ele>
        <time>2024-08-11T08:07:04Z</time>
      </trkpt>
      <trkpt lat="44.98505" lon="6.4758">
        <ele>1562.2</ele>
        <time>2024-08-11T08:07:05Z</time>
      </trkpt>
      <trkpt lat="44.98507" lon="6.47585">
        <ele>1562</ele>
        <time>2024-08-11T08:07:06Z</time>
      </trkpt>
      <trkpt lat="44.98507" lon="6.47585">
        <ele>1561.8</ele>
        <time>2024-08-11T08:07:07Z</time>
      </trkpt>
      <trkpt lat="44.98509" lon="6.47589">
        <ele>1561.6</ele>
        <time>2024-08-11T08:07:08Z</time>
      </trkpt>
      <trkpt lat="44.98509" lon="6.47591">
        <ele>1561.6</ele>
        <time>2024-08-11T08:07:09Z</time>
      </trkpt>
      <trkpt lat="44.98509" lon="6.47591">
        <ele>1561.4</ele>
        <time>2024-08-11T08:07:10Z</time>
      </trkpt>
      <trkpt lat="44.9851" lon="6.47595">
        <ele>1561.4</ele>
        <time>2024-08-11T08:07:11Z</time>
      </trkpt>
      <trkpt lat="44.9851" lon="6.47595">
        <ele>1561.2</ele>
        <time>2024-08-11T08:07:12Z</time>
      </trkpt>
      <trkpt lat="44.9851" lon="6.47595">
        <ele>1561</ele>
        <time>2024-08-11T08:07:13Z</time>
      </trkpt>
      <trkpt lat="44.9851" lon="6.476">
        <ele>1561</ele>
        <time>2024-08-11T08:07:14Z</time>
      </trkpt>
      <trkpt lat="44.98511" lon="6.47602">
        <ele>1560.8</ele>
        <time>2024-08-11T08:07:15Z</time>
      </trkpt>
      <trkpt lat="44.98511" lon="6.47602">
        <ele>1560.4</ele>
        <time>2024-08-11T08:07:16Z</time>
      </trkpt>
      <trkpt lat="44.98511" lon="6.47602">
        <ele>1560.4</ele>
        <time>2024-08-11T08:07:17Z</time>
      </trkpt>
      <trkpt lat="44.98514" lon="6.47606">
        <ele>1560.4</ele>
        <time>2024-08-11T08:07:18Z</time>
      </trkpt>
      <trkpt lat="44.98515" lon="6.47607">
        <ele>1560.4</ele>
        <time>2024-08-11T08:07:19Z</time>
      </trkpt>
      <trkpt lat="44.98515" lon="6.47607">
        <ele>1560.4</ele>
        <time>2024-08-11T08:07:20Z</time>
      </trkpt>
      <trkpt lat="44.98515" lon="6.47611">
        <ele>1560.2</ele>
        <time>2024-08-11T08:07:21Z</time>
      </trkpt>
      <trkpt lat="44.98515" lon="6.47611">
        <ele>1560</ele>
        <time>2024-08-11T08:07:22Z</time>
      </trkpt>
      <trkpt lat="44.98517" lon="6.47615">
        <ele>1560</ele>
        <time>2024-08-11T08:07:23Z</time>
      </trkpt>
      <trkpt lat="44.98517" lon="6.47615">
        <ele>1559.8</ele>
        <time>2024-08-11T08:07:24Z</time>
      </trkpt>
      <trkpt lat="44.98518" lon="6.47618">
        <ele>1559.4</ele>
        <time>2024-08-11T08:07:25Z</time>
      </trkpt>
      <trkpt lat="44.98518" lon="6.47618">
        <ele>1559.4</ele>
        <time>2024-08-11T08:07:26Z</time>
      </trkpt>
      <trkpt lat="44.98519" lon="6.47621">
        <ele>1559.4</ele>
        <time>2024-08-11T08:07:27Z</time>
      </trkpt>
      <trkpt lat="44.98519" lon="6.47621">
        <ele>1559.4</ele>
        <time>2024-08-11T08:07:28Z</time>
      </trkpt>
      <trkpt lat="44.98521" lon="6.47625">
        <ele>1559.4</ele>
        <time>2024-08-11T08:07:29Z</time>
      </trkpt>
      <trkpt lat="44.98521" lon="6.47625">
        <ele>1559</ele>
        <time>2024-08-11T08:07:30Z</time>
      </trkpt>
      <trkpt lat="44.98521" lon="6.47625">
        <ele>1559</ele>
        <time>2024-08-11T08:07:31Z</time>
      </trkpt>
      <trkpt lat="44.98522" lon="6.4763">
        <ele>1559</ele>
        <time>2024-08-11T08:07:32Z</time>
      </trkpt>
      <trkpt lat="44.98522" lon="6.47632">
        <ele>1558.8</ele>
        <time>2024-08-11T08:07:33Z</time>
      </trkpt>
      <trkpt lat="44.98522" lon="6.47632">
        <ele>1558.8</ele>
        <time>2024-08-11T08:07:34Z</time>
      </trkpt>
      <trkpt lat="44.98523" lon="6.47635">
        <ele>1558.6</ele>
        <time>2024-08-11T08:07:35Z</time>
      </trkpt>
      <trkpt lat="44.98523" lon="6.47635">
        <ele>1558.4</ele>
        <time>2024-08-11T08:07:36Z</time>
      </trkpt>
      <trkpt lat="44.98524" lon="6.47639">
        <ele>1558.4</ele>
        <time>2024-08-11T08:07:37Z</time>
      </trkpt>
      <trkpt lat="44.98524" lon="6.47639">
        <ele>1558.2</ele>
        <time>2024-08-11T08:07:38Z</time>
      </trkpt>
      <trkpt lat="44.98525" lon="6.47642">
        <ele>1558.2</ele>
        <time>2024-08-11T08:07:39Z</time>
      </trkpt>
      <trkpt lat="44.98525" lon="6.47642">
        <ele>1558.2</ele>
        <time>2024-08-11T08:07:40Z</time>
      </trkpt>
      <trkpt lat="44.98526" lon="6.47646">
        <ele>1558.2</ele>
        <time>2024-08-11T08:07:41Z</time>
      </trkpt>
      <trkpt lat="44.98526" lon="6.47646">
        <ele>1558</ele>
        <time>2024-08-11T08:07:42Z</time>
      </trkpt>
      <trkpt lat="44.98528" lon="6.4765">
        <ele>1558</ele>
        <time>2024-08-11T08:07:43Z</time>
      </trkpt>
      <trkpt lat="44.98528" lon="6.4765">
        <ele>1557.8</ele>
        <time>2024-08-11T08:07:44Z</time>
      </trkpt>
      <trkpt lat="44.98529" lon="6.47653">
        <ele>1557.8</ele>
        <time>2024-08-11T08:07:45Z</time>
      </trkpt>
      <trkpt lat="44.98529" lon="6.47653">
        <ele>1557.8</ele>
        <time>2024-08-11T08:07:46Z</time>
      </trkpt>
      <trkpt lat="44.9853" lon="6.47657">
        <ele>1557.8</ele>
        <time>2024-08-11T08:07:47Z</time>
      </trkpt>
      <trkpt lat="44.9853" lon="6.47657">
        <ele>1557.6</ele>
        <time>2024-08-11T08:07:48Z</time>
      </trkpt>
      <trkpt lat="44.98532" lon="6.4766">
        <ele>1557.6</ele>
        <time>2024-08-11T08:07:49Z</time>
      </trkpt>
      <trkpt lat="44.98532" lon="6.4766">
        <ele>1557.6</ele>
        <time>2024-08-11T08:07:50Z</time>
      </trkpt>
      <trkpt lat="44.98533" lon="6.47664">
        <ele>1557.6</ele>
        <time>2024-08-11T08:07:51Z</time>
      </trkpt>
      <trkpt lat="44.98533" lon="6.47664">
        <ele>1557.6</ele>
        <time>2024-08-11T08:07:52Z</time>
      </trkpt>
      <trkpt lat="44.98533" lon="6.47668">
        <ele>1557.6</ele>
        <time>2024-08-11T08:07:53Z</time>
      </trkpt>
      <trkpt lat="44.98533" lon="6.47668">
        <ele>1557.6</ele>
        <time>2024-08-11T08:07:54Z</time>
      </trkpt>
      <trkpt lat="44.98533" lon="6.47671">
        <ele>1557.8</ele>
        <time>2024-08-11T08:07:55Z</time>
      </trkpt>
      <trkpt lat="44.98533" lon="6.47671">
        <ele>1557.8</ele>
        <time>2024-08-11T08:07:56Z</time>
      </trkpt>
      <trkpt lat="44.98533" lon="6.47675">
        <ele>1557.8</ele>
        <time>2024-08-11T08:07:57Z</time>
      </trkpt>
      <trkpt lat="44.98533" lon="6.47675">
        <ele>1557.6</ele>
        <time>2024-08-11T08:07:58Z</time>
      </trkpt>
      <trkpt lat="44.98534" lon="6.47679">
        <ele>1557.4</ele>
        <time>2024-08-11T08:07:59Z</time>
      </trkpt>
      <trkpt lat="44.98534" lon="6.47679">
        <ele>1557.2</ele>
        <time>2024-08-11T08:08:00Z</time>
      </trkpt>
      <trkpt lat="44.98535" lon="6.47683">
        <ele>1557.2</ele>
        <time>2024-08-11T08:08:01Z</time>
      </trkpt>
      <trkpt lat="44.98535" lon="6.47683">
        <ele>1557</ele>
        <time>2024-08-11T08:08:02Z</time>
      </trkpt>
      <trkpt lat="44.98536" lon="6.47687">
        <ele>1557</ele>
        <time>2024-08-11T08:08:03Z</time>
      </trkpt>
      <trkpt lat="44.98536" lon="6.47687">
        <ele>1556.8</ele>
        <time>2024-08-11T08:08:04Z</time>
      </trkpt>
      <trkpt lat="44.98538" lon="6.4769">
        <ele>1556.8</ele>
        <time>2024-08-11T08:08:05Z</time>
      </trkpt>
      <trkpt lat="44.98538" lon="6.4769">
        <ele>1556.8</ele>
        <time>2024-08-11T08:08:06Z</time>
      </trkpt>
      <trkpt lat="44.98538" lon="6.47693">
        <ele>1557</ele>
        <time>2024-08-11T08:08:07Z</time>
      </trkpt>
      <trkpt lat="44.98538" lon="6.47693">
        <ele>1556.8</ele>
        <time>2024-08-11T08:08:08Z</time>
      </trkpt>
      <trkpt lat="44.9854" lon="6.47697">
        <ele>1556.8</ele>
        <time>2024-08-11T08:08:09Z</time>
      </trkpt>
      <trkpt lat="44.9854" lon="6.47697">
        <ele>1556.8</ele>
        <time>2024-08-11T08:08:10Z</time>
      </trkpt>
      <trkpt lat="44.98541" lon="6.477">
        <ele>1556.6</ele>
        <time>2024-08-11T08:08:11Z</time>
      </trkpt>
      <trkpt lat="44.98541" lon="6.477">
        <ele>1556.6</ele>
        <time>2024-08-11T08:08:12Z</time>
      </trkpt>
      <trkpt lat="44.98541" lon="6.47704">
        <ele>1556.6</ele>
        <time>2024-08-11T08:08:13Z</time>
      </trkpt>
      <trkpt lat="44.98541" lon="6.47704">
        <ele>1556.6</ele>
        <time>2024-08-11T08:08:14Z</time>
      </trkpt>
      <trkpt lat="44.98541" lon="6.47707">
        <ele>1556.8</ele>
        <time>2024-08-11T08:08:15Z</time>
      </trkpt>
      <trkpt lat="44.98541" lon="6.47707">
        <ele>1556.8</ele>
        <time>2024-08-11T08:08:16Z</time>
      </trkpt>
      <trkpt lat="44.98541" lon="6.4771">
        <ele>1556.6</ele>
        <time>2024-08-11T08:08:17Z</time>
      </trkpt>
      <trkpt lat="44.98541" lon="6.4771">
        <ele>1556.4</ele>
        <time>2024-08-11T08:08:18Z</time>
      </trkpt>
      <trkpt lat="44.98541" lon="6.47713">
        <ele>1556.4</ele>
        <time>2024-08-11T08:08:19Z</time>
      </trkpt>
      <trkpt lat="44.98541" lon="6.47713">
        <ele>1556.2</ele>
        <time>2024-08-11T08:08:20Z</time>
      </trkpt>
      <trkpt lat="44.98542" lon="6.47716">
        <ele>1556.2</ele>
        <time>2024-08-11T08:08:21Z</time>
      </trkpt>
      <trkpt lat="44.98542" lon="6.47716">
        <ele>1556.2</ele>
        <time>2024-08-11T08:08:22Z</time>
      </trkpt>
      <trkpt lat="44.98543" lon="6.4772">
        <ele>1555.8</ele>
        <time>2024-08-11T08:08:23Z</time>
      </trkpt>
      <trkpt lat="44.98543" lon="6.4772">
        <ele>1555.8</ele>
        <time>2024-08-11T08:08:24Z</time>
      </trkpt>
      <trkpt lat="44.98542" lon="6.47722">
        <ele>1555.6</ele>
        <time>2024-08-11T08:08:25Z</time>
      </trkpt>
      <trkpt lat="44.98542" lon="6.47722">
        <ele>1555.6</ele>
        <time>2024-08-11T08:08:26Z</time>
      </trkpt>
      <trkpt lat="44.98544" lon="6.47726">
        <ele>1555.6</ele>
        <time>2024-08-11T08:08:27Z</time>
      </trkpt>
      <trkpt lat="44.98544" lon="6.47726">
        <ele>1555.6</ele>
        <time>2024-08-11T08:08:28Z</time>
      </trkpt>
      <trkpt lat="44.98546" lon="6.47729">
        <ele>1555.4</ele>
        <time>2024-08-11T08:08:29Z</time>
      </trkpt>
      <trkpt lat="44.98546" lon="6.47729">
        <ele>1555.4</ele>
        <time>2024-08-11T08:08:30Z</time>
      </trkpt>
      <trkpt lat="44.98546" lon="6.47732">
        <ele>1555.4</ele>
        <time>2024-08-11T08:08:31Z</time>
      </trkpt>
      <trkpt lat="44.98546" lon="6.47732">
        <ele>1555.4</ele>
        <time>2024-08-11T08:08:32Z</time>
      </trkpt>
      <trkpt lat="44.98548" lon="6.47735">
        <ele>1555.4</ele>
        <time>2024-08-11T08:08:33Z</time>
      </trkpt>
      <trkpt lat="44.98548" lon="6.47735">
        <ele>1555.4</ele>
        <time>2024-08-11T08:08:34Z</time>
      </trkpt>
      <trkpt lat="44.98549" lon="6.47739">
        <ele>1555.2</ele>
        <time>2024-08-11T08:08:35Z</time>
      </trkpt>
      <trkpt lat="44.98549" lon="6.47739">
        <ele>1555</ele>
        <time>2024-08-11T08:08:36Z</time>
      </trkpt>
      <trkpt lat="44.98549" lon="6.47739">
        <ele>1555</ele>
        <time>2024-08-11T08:08:37Z</time>
      </trkpt>
      <trkpt lat="44.9855" lon="6.47743">
        <ele>1555</ele>
        <time>2024-08-11T08:08:38Z</time>
      </trkpt>
      <trkpt lat="44.98551" lon="6.47745">
        <ele>1555</ele>
        <time>2024-08-11T08:08:39Z</time>
      </trkpt>
      <trkpt lat="44.98551" lon="6.47745">
        <ele>1555</ele>
        <time>2024-08-11T08:08:40Z</time>
      </trkpt>
      <trkpt lat="44.98551" lon="6.47749">
        <ele>1555</ele>
        <time>2024-08-11T08:08:41Z</time>
      </trkpt>
      <trkpt lat="44.98551" lon="6.47749">
        <ele>1555</ele>
        <time>2024-08-11T08:08:42Z</time>
      </trkpt>
      <trkpt lat="44.98552" lon="6.47753">
        <ele>1554.8</ele>
        <time>2024-08-11T08:08:43Z</time>
      </trkpt>
      <trkpt lat="44.98552" lon="6.47753">
        <ele>1554.4</ele>
        <time>2024-08-11T08:08:44Z</time>
      </trkpt>
      <trkpt lat="44.98552" lon="6.47758">
        <ele>1554.4</ele>
        <time>2024-08-11T08:08:45Z</time>
      </trkpt>
      <trkpt lat="44.98552" lon="6.47758">
        <ele>1554.4</ele>
        <time>2024-08-11T08:08:46Z</time>
      </trkpt>
      <trkpt lat="44.98554" lon="6.47762">
        <ele>1554.2</ele>
        <time>2024-08-11T08:08:47Z</time>
      </trkpt>
      <trkpt lat="44.98554" lon="6.47762">
        <ele>1554</ele>
        <time>2024-08-11T08:08:48Z</time>
      </trkpt>
      <trkpt lat="44.98554" lon="6.47766">
        <ele>1554</ele>
        <time>2024-08-11T08:08:49Z</time>
      </trkpt>
      <trkpt lat="44.98554" lon="6.47766">
        <ele>1553.8</ele>
        <time>2024-08-11T08:08:50Z</time>
      </trkpt>
      <trkpt lat="44.98554" lon="6.4777">
        <ele>1553.8</ele>
        <time>2024-08-11T08:08:51Z</time>
      </trkpt>
      <trkpt lat="44.98554" lon="6.4777">
        <ele>1553.6</ele>
        <time>2024-08-11T08:08:52Z</time>
      </trkpt>
      <trkpt lat="44.98555" lon="6.47774">
        <ele>1553.6</ele>
        <time>2024-08-11T08:08:53Z</time>
      </trkpt>
      <trkpt lat="44.98555" lon="6.47774">
        <ele>1553.6</ele>
        <time>2024-08-11T08:08:54Z</time>
      </trkpt>
      <trkpt lat="44.98556" lon="6.47778">
        <ele>1553.4</ele>
        <time>2024-08-11T08:08:55Z</time>
      </trkpt>
      <trkpt lat="44.98556" lon="6.47778">
        <ele>1553.4</ele>
        <time>2024-08-11T08:08:56Z</time>
      </trkpt>
      <trkpt lat="44.98556" lon="6.47781">
        <ele>1553.4</ele>
        <time>2024-08-11T08:08:57Z</time>
      </trkpt>
      <trkpt lat="44.98556" lon="6.47781">
        <ele>1553.4</ele>
        <time>2024-08-11T08:08:58Z</time>
      </trkpt>
      <trkpt lat="44.98557" lon="6.47785">
        <ele>1553.2</ele>
        <time>2024-08-11T08:08:59Z</time>
      </trkpt>
      <trkpt lat="44.98557" lon="6.47785">
        <ele>1553.2</ele>
        <time>2024-08-11T08:09:00Z</time>
      </trkpt>
      <trkpt lat="44.98557" lon="6.47785">
        <ele>1553.2</ele>
        <time>2024-08-11T08:09:01Z</time>
      </trkpt>
      <trkpt lat="44.98558" lon="6.47789">
        <ele>1553.2</ele>
        <time>2024-08-11T08:09:02Z</time>
      </trkpt>
      <trkpt lat="44.98558" lon="6.4779">
        <ele>1553.2</ele>
        <time>2024-08-11T08:09:03Z</time>
      </trkpt>
      <trkpt lat="44.98558" lon="6.4779">
        <ele>1553</ele>
        <time>2024-08-11T08:09:04Z</time>
      </trkpt>
      <trkpt lat="44.98558" lon="6.47794">
        <ele>1552.8</ele>
        <time>2024-08-11T08:09:05Z</time>
      </trkpt>
      <trkpt lat="44.9856" lon="6.47796">
        <ele>1552.8</ele>
        <time>2024-08-11T08:09:06Z</time>
      </trkpt>
      <trkpt lat="44.9856" lon="6.47796">
        <ele>1552.8</ele>
        <time>2024-08-11T08:09:07Z</time>
      </trkpt>
      <trkpt lat="44.98561" lon="6.47798">
        <ele>1552.8</ele>
        <time>2024-08-11T08:09:08Z</time>
      </trkpt>
      <trkpt lat="44.98561" lon="6.47798">
        <ele>1552.8</ele>
        <time>2024-08-11T08:09:09Z</time>
      </trkpt>
      <trkpt lat="44.98562" lon="6.47801">
        <ele>1552.6</ele>
        <time>2024-08-11T08:09:10Z</time>
      </trkpt>
      <trkpt lat="44.98562" lon="6.47801">
        <ele>1552.6</ele>
        <time>2024-08-11T08:09:11Z</time>
      </trkpt>
      <trkpt lat="44.98564" lon="6.47804">
        <ele>1552.4</ele>
        <time>2024-08-11T08:09:12Z</time>
      </trkpt>
      <trkpt lat="44.98565" lon="6.47806">
        <ele>1552.4</ele>
        <time>2024-08-11T08:09:13Z</time>
      </trkpt>
      <trkpt lat="44.98565" lon="6.47806">
        <ele>1552.4</ele>
        <time>2024-08-11T08:09:14Z</time>
      </trkpt>
      <trkpt lat="44.98566" lon="6.4781">
        <ele>1552.2</ele>
        <time>2024-08-11T08:09:15Z</time>
      </trkpt>
      <trkpt lat="44.98566" lon="6.4781">
        <ele>1552.2</ele>
        <time>2024-08-11T08:09:16Z</time>
      </trkpt>
      <trkpt lat="44.98568" lon="6.47813">
        <ele>1552.2</ele>
        <time>2024-08-11T08:09:17Z</time>
      </trkpt>
      <trkpt lat="44.98568" lon="6.47813">
        <ele>1552.2</ele>
        <time>2024-08-11T08:09:18Z</time>
      </trkpt>
      <trkpt lat="44.9857" lon="6.47815">
        <ele>1552.2</ele>
        <time>2024-08-11T08:09:19Z</time>
      </trkpt>
      <trkpt lat="44.9857" lon="6.47815">
        <ele>1552.2</ele>
        <time>2024-08-11T08:09:20Z</time>
      </trkpt>
      <trkpt lat="44.98572" lon="6.47818">
        <ele>1551.8</ele>
        <time>2024-08-11T08:09:21Z</time>
      </trkpt>
      <trkpt lat="44.98574" lon="6.47821">
        <ele>1551.8</ele>
        <time>2024-08-11T08:09:22Z</time>
      </trkpt>
      <trkpt lat="44.98574" lon="6.47825">
        <ele>1552</ele>
        <time>2024-08-11T08:09:23Z</time>
      </trkpt>
      <trkpt lat="44.98576" lon="6.47829">
        <ele>1552</ele>
        <time>2024-08-11T08:09:24Z</time>
      </trkpt>
      <trkpt lat="44.98576" lon="6.47829">
        <ele>1552</ele>
        <time>2024-08-11T08:09:25Z</time>
      </trkpt>
      <trkpt lat="44.98575" lon="6.47832">
        <ele>1551.8</ele>
        <time>2024-08-11T08:09:26Z</time>
      </trkpt>
      <trkpt lat="44.98575" lon="6.47832">
        <ele>1551.8</ele>
        <time>2024-08-11T08:09:27Z</time>
      </trkpt>
      <trkpt lat="44.98576" lon="6.47835">
        <ele>1551.8</ele>
        <time>2024-08-11T08:09:28Z</time>
      </trkpt>
      <trkpt lat="44.98576" lon="6.47835">
        <ele>1552</ele>
        <time>2024-08-11T08:09:29Z</time>
      </trkpt>
      <trkpt lat="44.98578" lon="6.47839">
        <ele>1552</ele>
        <time>2024-08-11T08:09:30Z</time>
      </trkpt>
      <trkpt lat="44.98578" lon="6.47839">
        <ele>1552.4</ele>
        <time>2024-08-11T08:09:31Z</time>
      </trkpt>
      <trkpt lat="44.98578" lon="6.47839">
        <ele>1552.4</ele>
        <time>2024-08-11T08:09:32Z</time>
      </trkpt>
      <trkpt lat="44.9858" lon="6.47845">
        <ele>1552.2</ele>
        <time>2024-08-11T08:09:33Z</time>
      </trkpt>
      <trkpt lat="44.9858" lon="6.47845">
        <ele>1552</ele>
        <time>2024-08-11T08:09:34Z</time>
      </trkpt>
      <trkpt lat="44.9858" lon="6.47845">
        <ele>1552</ele>
        <time>2024-08-11T08:09:35Z</time>
      </trkpt>
      <trkpt lat="44.98582" lon="6.47847">
        <ele>1552</ele>
        <time>2024-08-11T08:09:36Z</time>
      </trkpt>
      <trkpt lat="44.98583" lon="6.47849">
        <ele>1552</ele>
        <time>2024-08-11T08:09:37Z</time>
      </trkpt>
      <trkpt lat="44.98583" lon="6.47849">
        <ele>1552</ele>
        <time>2024-08-11T08:09:38Z</time>
      </trkpt>
      <trkpt lat="44.98584" lon="6.47852">
        <ele>1552</ele>
        <time>2024-08-11T08:09:39Z</time>
      </trkpt>
      <trkpt lat="44.98584" lon="6.47852">
        <ele>1551.8</ele>
        <time>2024-08-11T08:09:40Z</time>
      </trkpt>
      <trkpt lat="44.98586" lon="6.47856">
        <ele>1551.8</ele>
        <time>2024-08-11T08:09:41Z</time>
      </trkpt>
      <trkpt lat="44.98586" lon="6.47856">
        <ele>1551.8</ele>
        <time>2024-08-11T08:09:42Z</time>
      </trkpt>
      <trkpt lat="44.98588" lon="6.47859">
        <ele>1552</ele>
        <time>2024-08-11T08:09:43Z</time>
      </trkpt>
      <trkpt lat="44.98588" lon="6.47859">
        <ele>1552.2</ele>
        <time>2024-08-11T08:09:44Z</time>
      </trkpt>
      <trkpt lat="44.98588" lon="6.47859">
        <ele>1552.2</ele>
        <time>2024-08-11T08:09:45Z</time>
      </trkpt>
      <trkpt lat="44.98589" lon="6.47863">
        <ele>1552.2</ele>
        <time>2024-08-11T08:09:46Z</time>
      </trkpt>
      <trkpt lat="44.98589" lon="6.47863">
        <ele>1551.8</ele>
        <time>2024-08-11T08:09:47Z</time>
      </trkpt>
      <trkpt lat="44.98591" lon="6.47866">
        <ele>1551.8</ele>
        <time>2024-08-11T08:09:48Z</time>
      </trkpt>
      <trkpt lat="44.98592" lon="6.47869">
        <ele>1551.8</ele>
        <time>2024-08-11T08:09:49Z</time>
      </trkpt>
      <trkpt lat="44.98593" lon="6.4787">
        <ele>1551.8</ele>
        <time>2024-08-11T08:09:50Z</time>
      </trkpt>
      <trkpt lat="44.98593" lon="6.47871">
        <ele>1551.4</ele>
        <time>2024-08-11T08:09:51Z</time>
      </trkpt>
      <trkpt lat="44.98593" lon="6.47871">
        <ele>1551.4</ele>
        <time>2024-08-11T08:09:52Z</time>
      </trkpt>
      <trkpt lat="44.98595" lon="6.47875">
        <ele>1551.2</ele>
        <time>2024-08-11T08:09:53Z</time>
      </trkpt>
      <trkpt lat="44.98595" lon="6.47875">
        <ele>1551.2</ele>
        <time>2024-08-11T08:09:54Z</time>
      </trkpt>
      <trkpt lat="44.98597" lon="6.47879">
        <ele>1551</ele>
        <time>2024-08-11T08:09:55Z</time>
      </trkpt>
      <trkpt lat="44.98598" lon="6.4788">
        <ele>1550.8</ele>
        <time>2024-08-11T08:09:56Z</time>
      </trkpt>
      <trkpt lat="44.98598" lon="6.4788">
        <ele>1550.8</ele>
        <time>2024-08-11T08:09:57Z</time>
      </trkpt>
      <trkpt lat="44.986" lon="6.47883">
        <ele>1550.8</ele>
        <time>2024-08-11T08:09:58Z</time>
      </trkpt>
      <trkpt lat="44.986" lon="6.47883">
        <ele>1550.8</ele>
        <time>2024-08-11T08:09:59Z</time>
      </trkpt>
      <trkpt lat="44.98602" lon="6.47887">
        <ele>1550.8</ele>
        <time>2024-08-11T08:10:00Z</time>
      </trkpt>
      <trkpt lat="44.98602" lon="6.47887">
        <ele>1550.6</ele>
        <time>2024-08-11T08:10:01Z</time>
      </trkpt>
      <trkpt lat="44.98603" lon="6.47889">
        <ele>1550.2</ele>
        <time>2024-08-11T08:10:02Z</time>
      </trkpt>
      <trkpt lat="44.98603" lon="6.47889">
        <ele>1550.2</ele>
        <time>2024-08-11T08:10:03Z</time>
      </trkpt>
      <trkpt lat="44.98605" lon="6.47892">
        <ele>1550.2</ele>
        <time>2024-08-11T08:10:04Z</time>
      </trkpt>
      <trkpt lat="44.98605" lon="6.47892">
        <ele>1550.2</ele>
        <time>2024-08-11T08:10:05Z</time>
      </trkpt>
      <trkpt lat="44.98606" lon="6.47894">
        <ele>1550</ele>
        <time>2024-08-11T08:10:06Z</time>
      </trkpt>
      <trkpt lat="44.98606" lon="6.47894">
        <ele>1550</ele>
        <time>2024-08-11T08:10:07Z</time>
      </trkpt>
      <trkpt lat="44.98606" lon="6.47894">
        <ele>1550</ele>
        <time>2024-08-11T08:10:08Z</time>
      </trkpt>
      <trkpt lat="44.98607" lon="6.47898">
        <ele>1549.8</ele>
        <time>2024-08-11T08:10:09Z</time>
      </trkpt>
      <trkpt lat="44.98608" lon="6.479">
        <ele>1549.4</ele>
        <time>2024-08-11T08:10:10Z</time>
      </trkpt>
      <trkpt lat="44.98608" lon="6.479">
        <ele>1549.4</ele>
        <time>2024-08-11T08:10:11Z</time>
      </trkpt>
      <trkpt lat="44.98608" lon="6.479">
        <ele>1549.2</ele>
        <time>2024-08-11T08:10:12Z</time>
      </trkpt>
      <trkpt lat="44.9861" lon="6.47906">
        <ele>1549</ele>
        <time>2024-08-11T08:10:13Z</time>
      </trkpt>
      <trkpt lat="44.9861" lon="6.47908">
        <ele>1548.8</ele>
        <time>2024-08-11T08:10:14Z</time>
      </trkpt>
      <trkpt lat="44.98611" lon="6.47911">
        <ele>1548.8</ele>
        <time>2024-08-11T08:10:15Z</time>
      </trkpt>
      <trkpt lat="44.98611" lon="6.47913">
        <ele>1548.6</ele>
        <time>2024-08-11T08:10:16Z</time>
      </trkpt>
      <trkpt lat="44.98611" lon="6.47915">
        <ele>1548.6</ele>
        <time>2024-08-11T08:10:17Z</time>
      </trkpt>
      <trkpt lat="44.98611" lon="6.47917">
        <ele>1548.8</ele>
        <time>2024-08-11T08:10:18Z</time>
      </trkpt>
      <trkpt lat="44.98611" lon="6.47917">
        <ele>1548.8</ele>
        <time>2024-08-11T08:10:19Z</time>
      </trkpt>
      <trkpt lat="44.98611" lon="6.47917">
        <ele>1548.6</ele>
        <time>2024-08-11T08:10:20Z</time>
      </trkpt>
      <trkpt lat="44.98612" lon="6.47923">
        <ele>1548.6</ele>
        <time>2024-08-11T08:10:21Z</time>
      </trkpt>
      <trkpt lat="44.98613" lon="6.47925">
        <ele>1548.6</ele>
        <time>2024-08-11T08:10:22Z</time>
      </trkpt>
      <trkpt lat="44.98613" lon="6.47925">
        <ele>1548.2</ele>
        <time>2024-08-11T08:10:23Z</time>
      </trkpt>
      <trkpt lat="44.98613" lon="6.47929">
        <ele>1548.2</ele>
        <time>2024-08-11T08:10:24Z</time>
      </trkpt>
      <trkpt lat="44.98613" lon="6.47929">
        <ele>1548.2</ele>
        <time>2024-08-11T08:10:25Z</time>
      </trkpt>
      <trkpt lat="44.98614" lon="6.47934">
        <ele>1547.8</ele>
        <time>2024-08-11T08:10:26Z</time>
      </trkpt>
      <trkpt lat="44.98614" lon="6.47934">
        <ele>1547.6</ele>
        <time>2024-08-11T08:10:27Z</time>
      </trkpt>
      <trkpt lat="44.98615" lon="6.47937">
        <ele>1547.6</ele>
        <time>2024-08-11T08:10:28Z</time>
      </trkpt>
      <trkpt lat="44.98615" lon="6.47937">
        <ele>1547.6</ele>
        <time>2024-08-11T08:10:29Z</time>
      </trkpt>
      <trkpt lat="44.98616" lon="6.47941">
        <ele>1547.4</ele>
        <time>2024-08-11T08:10:30Z</time>
      </trkpt>
      <trkpt lat="44.98616" lon="6.47941">
        <ele>1547.4</ele>
        <time>2024-08-11T08:10:31Z</time>
      </trkpt>
      <trkpt lat="44.98616" lon="6.47941">
        <ele>1547</ele>
        <time>2024-08-11T08:10:32Z</time>
      </trkpt>
      <trkpt lat="44.98616" lon="6.47945">
        <ele>1547</ele>
        <time>2024-08-11T08:10:33Z</time>
      </trkpt>
      <trkpt lat="44.98617" lon="6.47947">
        <ele>1546.8</ele>
        <time>2024-08-11T08:10:34Z</time>
      </trkpt>
      <trkpt lat="44.98618" lon="6.47949">
        <ele>1546.6</ele>
        <time>2024-08-11T08:10:35Z</time>
      </trkpt>
      <trkpt lat="44.98619" lon="6.47952">
        <ele>1546.6</ele>
        <time>2024-08-11T08:10:36Z</time>
      </trkpt>
      <trkpt lat="44.9862" lon="6.47954">
        <ele>1546.4</ele>
        <time>2024-08-11T08:10:37Z</time>
      </trkpt>
      <trkpt lat="44.98621" lon="6.47956">
        <ele>1546.4</ele>
        <time>2024-08-11T08:10:38Z</time>
      </trkpt>
      <trkpt lat="44.98621" lon="6.47956">
        <ele>1546.4</ele>
        <time>2024-08-11T08:10:39Z</time>
      </trkpt>
      <trkpt lat="44.98622" lon="6.47961">
        <ele>1546.4</ele>
        <time>2024-08-11T08:10:40Z</time>
      </trkpt>
      <trkpt lat="44.98623" lon="6.47963">
        <ele>1546.2</ele>
        <time>2024-08-11T08:10:41Z</time>
      </trkpt>
      <trkpt lat="44.98623" lon="6.47963">
        <ele>1546.2</ele>
        <time>2024-08-11T08:10:42Z</time>
      </trkpt>
      <trkpt lat="44.98624" lon="6.47967">
        <ele>1546</ele>
        <time>2024-08-11T08:10:43Z</time>
      </trkpt>
      <trkpt lat="44.98624" lon="6.47967">
        <ele>1545.8</ele>
        <time>2024-08-11T08:10:44Z</time>
      </trkpt>
      <trkpt lat="44.98625" lon="6.4797">
        <ele>1545.6</ele>
        <time>2024-08-11T08:10:45Z</time>
      </trkpt>
      <trkpt lat="44.98625" lon="6.4797">
        <ele>1545.6</ele>
        <time>2024-08-11T08:10:46Z</time>
      </trkpt>
      <trkpt lat="44.98626" lon="6.47972">
        <ele>1545.6</ele>
        <time>2024-08-11T08:10:47Z</time>
      </trkpt>
      <trkpt lat="44.98626" lon="6.47972">
        <ele>1545.6</ele>
        <time>2024-08-11T08:10:48Z</time>
      </trkpt>
      <trkpt lat="44.98626" lon="6.47977">
        <ele>1545.6</ele>
        <time>2024-08-11T08:10:49Z</time>
      </trkpt>
      <trkpt lat="44.98626" lon="6.47977">
        <ele>1545.4</ele>
        <time>2024-08-11T08:10:50Z</time>
      </trkpt>
      <trkpt lat="44.98627" lon="6.4798">
        <ele>1545.4</ele>
        <time>2024-08-11T08:10:51Z</time>
      </trkpt>
      <trkpt lat="44.98627" lon="6.4798">
        <ele>1545.2</ele>
        <time>2024-08-11T08:10:52Z</time>
      </trkpt>
      <trkpt lat="44.98628" lon="6.47983">
        <ele>1545.2</ele>
        <time>2024-08-11T08:10:53Z</time>
      </trkpt>
      <trkpt lat="44.98629" lon="6.47985">
        <ele>1544.8</ele>
        <time>2024-08-11T08:10:54Z</time>
      </trkpt>
      <trkpt lat="44.9863" lon="6.47988">
        <ele>1544.6</ele>
        <time>2024-08-11T08:10:55Z</time>
      </trkpt>
      <trkpt lat="44.9863" lon="6.47988">
        <ele>1544.6</ele>
        <time>2024-08-11T08:10:56Z</time>
      </trkpt>
      <trkpt lat="44.98631" lon="6.47992">
        <ele>1544.4</ele>
        <time>2024-08-11T08:10:57Z</time>
      </trkpt>
      <trkpt lat="44.98631" lon="6.47992">
        <ele>1544.2</ele>
        <time>2024-08-11T08:10:58Z</time>
      </trkpt>
      <trkpt lat="44.98633" lon="6.47995">
        <ele>1544.2</ele>
        <time>2024-08-11T08:10:59Z</time>
      </trkpt>
      <trkpt lat="44.98633" lon="6.47995">
        <ele>1544</ele>
        <time>2024-08-11T08:11:00Z</time>
      </trkpt>
      <trkpt lat="44.98635" lon="6.47999">
        <ele>1543.8</ele>
        <time>2024-08-11T08:11:01Z</time>
      </trkpt>
      <trkpt lat="44.98635" lon="6.47999">
        <ele>1543.4</ele>
        <time>2024-08-11T08:11:02Z</time>
      </trkpt>
      <trkpt lat="44.98636" lon="6.48003">
        <ele>1543.4</ele>
        <time>2024-08-11T08:11:03Z</time>
      </trkpt>
      <trkpt lat="44.98637" lon="6.48005">
        <ele>1543.4</ele>
        <time>2024-08-11T08:11:04Z</time>
      </trkpt>
      <trkpt lat="44.98637" lon="6.48005">
        <ele>1543.4</ele>
        <time>2024-08-11T08:11:05Z</time>
      </trkpt>
      <trkpt lat="44.98639" lon="6.48008">
        <ele>1543.2</ele>
        <time>2024-08-11T08:11:06Z</time>
      </trkpt>
      <trkpt lat="44.98639" lon="6.48008">
        <ele>1543.2</ele>
        <time>2024-08-11T08:11:07Z</time>
      </trkpt>
      <trkpt lat="44.98641" lon="6.48011">
        <ele>1543</ele>
        <time>2024-08-11T08:11:08Z</time>
      </trkpt>
      <trkpt lat="44.98641" lon="6.48011">
        <ele>1542.8</ele>
        <time>2024-08-11T08:11:09Z</time>
      </trkpt>
      <trkpt lat="44.98644" lon="6.48015">
        <ele>1542.6</ele>
        <time>2024-08-11T08:11:10Z</time>
      </trkpt>
      <trkpt lat="44.98645" lon="6.48016">
        <ele>1542.6</ele>
        <time>2024-08-11T08:11:11Z</time>
      </trkpt>
      <trkpt lat="44.98645" lon="6.48016">
        <ele>1542.6</ele>
        <time>2024-08-11T08:11:12Z</time>
      </trkpt>
      <trkpt lat="44.98647" lon="6.4802">
        <ele>1542.6</ele>
        <time>2024-08-11T08:11:13Z</time>
      </trkpt>
      <trkpt lat="44.98648" lon="6.48021">
        <ele>1542.4</ele>
        <time>2024-08-11T08:11:14Z</time>
      </trkpt>
      <trkpt lat="44.98648" lon="6.48021">
        <ele>1542</ele>
        <time>2024-08-11T08:11:15Z</time>
      </trkpt>
      <trkpt lat="44.98649" lon="6.48025">
        <ele>1542</ele>
        <time>2024-08-11T08:11:16Z</time>
      </trkpt>
      <trkpt lat="44.98649" lon="6.48025">
        <ele>1542.2</ele>
        <time>2024-08-11T08:11:17Z</time>
      </trkpt>
      <trkpt lat="44.98651" lon="6.48029">
        <ele>1542.2</ele>
        <time>2024-08-11T08:11:18Z</time>
      </trkpt>
      <trkpt lat="44.98651" lon="6.48029">
        <ele>1542.4</ele>
        <time>2024-08-11T08:11:19Z</time>
      </trkpt>
      <trkpt lat="44.98651" lon="6.48029">
        <ele>1542.6</ele>
        <time>2024-08-11T08:11:20Z</time>
      </trkpt>
      <trkpt lat="44.98652" lon="6.48035">
        <ele>1542.4</ele>
        <time>2024-08-11T08:11:21Z</time>
      </trkpt>
      <trkpt lat="44.98653" lon="6.48037">
        <ele>1542.6</ele>
        <time>2024-08-11T08:11:22Z</time>
      </trkpt>
      <trkpt lat="44.98653" lon="6.48037">
        <ele>1542.8</ele>
        <time>2024-08-11T08:11:23Z</time>
      </trkpt>
      <trkpt lat="44.98654" lon="6.4804">
        <ele>1542.8</ele>
        <time>2024-08-11T08:11:24Z</time>
      </trkpt>
      <trkpt lat="44.98654" lon="6.4804">
        <ele>1542.8</ele>
        <time>2024-08-11T08:11:25Z</time>
      </trkpt>
      <trkpt lat="44.98655" lon="6.48043">
        <ele>1542.8</ele>
        <time>2024-08-11T08:11:26Z</time>
      </trkpt>
      <trkpt lat="44.98655" lon="6.48043">
        <ele>1542.8</ele>
        <time>2024-08-11T08:11:27Z</time>
      </trkpt>
      <trkpt lat="44.98657" lon="6.48047">
        <ele>1542.6</ele>
        <time>2024-08-11T08:11:28Z</time>
      </trkpt>
      <trkpt lat="44.98657" lon="6.48047">
        <ele>1542.4</ele>
        <time>2024-08-11T08:11:29Z</time>
      </trkpt>
      <trkpt lat="44.98658" lon="6.48051">
        <ele>1542</ele>
        <time>2024-08-11T08:11:30Z</time>
      </trkpt>
      <trkpt lat="44.98658" lon="6.48051">
        <ele>1542</ele>
        <time>2024-08-11T08:11:31Z</time>
      </trkpt>
      <trkpt lat="44.98658" lon="6.48051">
        <ele>1542.2</ele>
        <time>2024-08-11T08:11:32Z</time>
      </trkpt>
      <trkpt lat="44.9866" lon="6.48056">
        <ele>1542.2</ele>
        <time>2024-08-11T08:11:33Z</time>
      </trkpt>
      <trkpt lat="44.98661" lon="6.48057">
        <ele>1542.2</ele>
        <time>2024-08-11T08:11:34Z</time>
      </trkpt>
      <trkpt lat="44.98661" lon="6.48057">
        <ele>1541.8</ele>
        <time>2024-08-11T08:11:35Z</time>
      </trkpt>
      <trkpt lat="44.98664" lon="6.4806">
        <ele>1541.6</ele>
        <time>2024-08-11T08:11:36Z</time>
      </trkpt>
      <trkpt lat="44.98664" lon="6.4806">
        <ele>1541.4</ele>
        <time>2024-08-11T08:11:37Z</time>
      </trkpt>
      <trkpt lat="44.98664" lon="6.4806">
        <ele>1541.4</ele>
        <time>2024-08-11T08:11:38Z</time>
      </trkpt>
      <trkpt lat="44.98667" lon="6.48064">
        <ele>1541.4</ele>
        <time>2024-08-11T08:11:39Z</time>
      </trkpt>
      <trkpt lat="44.98668" lon="6.48065">
        <ele>1541</ele>
        <time>2024-08-11T08:11:40Z</time>
      </trkpt>
      <trkpt lat="44.98668" lon="6.48065">
        <ele>1540.8</ele>
        <time>2024-08-11T08:11:41Z</time>
      </trkpt>
      <trkpt lat="44.98668" lon="6.48065">
        <ele>1540.8</ele>
        <time>2024-08-11T08:11:42Z</time>
      </trkpt>
      <trkpt lat="44.98672" lon="6.48067">
        <ele>1540.6</ele>
        <time>2024-08-11T08:11:43Z</time>
      </trkpt>
      <trkpt lat="44.98673" lon="6.48068">
        <ele>1540.2</ele>
        <time>2024-08-11T08:11:44Z</time>
      </trkpt>
      <trkpt lat="44.98673" lon="6.48068">
        <ele>1540.2</ele>
        <time>2024-08-11T08:11:45Z</time>
      </trkpt>
      <trkpt lat="44.98676" lon="6.48068">
        <ele>1540</ele>
        <time>2024-08-11T08:11:46Z</time>
      </trkpt>
      <trkpt lat="44.98676" lon="6.48068">
        <ele>1540</ele>
        <time>2024-08-11T08:11:47Z</time>
      </trkpt>
      <trkpt lat="44.98679" lon="6.4807">
        <ele>1539.8</ele>
        <time>2024-08-11T08:11:48Z</time>
      </trkpt>
      <trkpt lat="44.98679" lon="6.4807">
        <ele>1539.6</ele>
        <time>2024-08-11T08:11:49Z</time>
      </trkpt>
      <trkpt lat="44.98682" lon="6.48071">
        <ele>1539.4</ele>
        <time>2024-08-11T08:11:50Z</time>
      </trkpt>
      <trkpt lat="44.98682" lon="6.48071">
        <ele>1539.4</ele>
        <time>2024-08-11T08:11:51Z</time>
      </trkpt>
      <trkpt lat="44.98682" lon="6.48071">
        <ele>1539.4</ele>
        <time>2024-08-11T08:11:52Z</time>
      </trkpt>
      <trkpt lat="44.98686" lon="6.4807">
        <ele>1539.2</ele>
        <time>2024-08-11T08:11:53Z</time>
      </trkpt>
      <trkpt lat="44.98687" lon="6.48071">
        <ele>1539.2</ele>
        <time>2024-08-11T08:11:54Z</time>
      </trkpt>
      <trkpt lat="44.98687" lon="6.48071">
        <ele>1539.2</ele>
        <time>2024-08-11T08:11:55Z</time>
      </trkpt>
      <trkpt lat="44.98691" lon="6.48072">
        <ele>1539.2</ele>
        <time>2024-08-11T08:11:56Z</time>
      </trkpt>
      <trkpt lat="44.98691" lon="6.48072">
        <ele>1539.2</ele>
        <time>2024-08-11T08:11:57Z</time>
      </trkpt>
      <trkpt lat="44.98693" lon="6.48072">
        <ele>1538.8</ele>
        <time>2024-08-11T08:11:58Z</time>
      </trkpt>
      <trkpt lat="44.98693" lon="6.48072">
        <ele>1538.8</ele>
        <time>2024-08-11T08:11:59Z</time>
      </trkpt>
      <trkpt lat="44.98696" lon="6.48072">
        <ele>1538.6</ele>
        <time>2024-08-11T08:12:00Z</time>
      </trkpt>
      <trkpt lat="44.98696" lon="6.48072">
        <ele>1538.6</ele>
        <time>2024-08-11T08:12:01Z</time>
      </trkpt>
      <trkpt lat="44.98699" lon="6.48073">
        <ele>1538.4</ele>
        <time>2024-08-11T08:12:02Z</time>
      </trkpt>
      <trkpt lat="44.98699" lon="6.48073">
        <ele>1538.2</ele>
        <time>2024-08-11T08:12:03Z</time>
      </trkpt>
      <trkpt lat="44.98702" lon="6.48074">
        <ele>1538</ele>
        <time>2024-08-11T08:12:04Z</time>
      </trkpt>
      <trkpt lat="44.98702" lon="6.48074">
        <ele>1538</ele>
        <time>2024-08-11T08:12:05Z</time>
      </trkpt>
      <trkpt lat="44.98705" lon="6.48075">
        <ele>1538</ele>
        <time>2024-08-11T08:12:06Z</time>
      </trkpt>
      <trkpt lat="44.98705" lon="6.48075">
        <ele>1537.8</ele>
        <time>2024-08-11T08:12:07Z</time>
      </trkpt>
      <trkpt lat="44.98707" lon="6.48076">
        <ele>1537.8</ele>
        <time>2024-08-11T08:12:08Z</time>
      </trkpt>
      <trkpt lat="44.98707" lon="6.48076">
        <ele>1537.6</ele>
        <time>2024-08-11T08:12:09Z</time>
      </trkpt>
      <trkpt lat="44.98709" lon="6.48078">
        <ele>1537.4</ele>
        <time>2024-08-11T08:12:10Z</time>
      </trkpt>
      <trkpt lat="44.98709" lon="6.48078">
        <ele>1537.4</ele>
        <time>2024-08-11T08:12:11Z</time>
      </trkpt>
      <trkpt lat="44.98713" lon="6.48079">
        <ele>1537.4</ele>
        <time>2024-08-11T08:12:12Z</time>
      </trkpt>
      <trkpt lat="44.98713" lon="6.48079">
        <ele>1537.4</ele>
        <time>2024-08-11T08:12:13Z</time>
      </trkpt>
      <trkpt lat="44.98716" lon="6.48081">
        <ele>1537.4</ele>
        <time>2024-08-11T08:12:14Z</time>
      </trkpt>
      <trkpt lat="44.98716" lon="6.48081">
        <ele>1537.4</ele>
        <time>2024-08-11T08:12:15Z</time>
      </trkpt>
      <trkpt lat="44.98718" lon="6.48084">
        <ele>1537.4</ele>
        <time>2024-08-11T08:12:16Z</time>
      </trkpt>
      <trkpt lat="44.98718" lon="6.48084">
        <ele>1537.4</ele>
        <time>2024-08-11T08:12:17Z</time>
      </trkpt>
      <trkpt lat="44.98721" lon="6.48085">
        <ele>1537.4</ele>
        <time>2024-08-11T08:12:18Z</time>
      </trkpt>
      <trkpt lat="44.98721" lon="6.48085">
        <ele>1537.6</ele>
        <time>2024-08-11T08:12:19Z</time>
      </trkpt>
      <trkpt lat="44.98723" lon="6.48087">
        <ele>1537.6</ele>
        <time>2024-08-11T08:12:20Z</time>
      </trkpt>
      <trkpt lat="44.98723" lon="6.48087">
        <ele>1537.6</ele>
        <time>2024-08-11T08:12:21Z</time>
      </trkpt>
      <trkpt lat="44.98723" lon="6.48087">
        <ele>1537.6</ele>
        <time>2024-08-11T08:12:22Z</time>
      </trkpt>
      <trkpt lat="44.98725" lon="6.48089">
        <ele>1537.6</ele>
        <time>2024-08-11T08:12:23Z</time>
      </trkpt>
      <trkpt lat="44.98725" lon="6.48089">
        <ele>1537.6</ele>
        <time>2024-08-11T08:12:24Z</time>
      </trkpt>
      <trkpt lat="44.98728" lon="6.48091">
        <ele>1537.6</ele>
        <time>2024-08-11T08:12:25Z</time>
      </trkpt>
      <trkpt lat="44.98728" lon="6.48091">
        <ele>1537.8</ele>
        <time>2024-08-11T08:12:26Z</time>
      </trkpt>
      <trkpt lat="44.98728" lon="6.48091">
        <ele>1538</ele>
        <time>2024-08-11T08:12:27Z</time>
      </trkpt>
      <trkpt lat="44.98728" lon="6.48091">
        <ele>1538</ele>
        <time>2024-08-11T08:12:28Z</time>
      </trkpt>
      <trkpt lat="44.98728" lon="6.48091">
        <ele>1538</ele>
        <time>2024-08-11T08:12:29Z</time>
      </trkpt>
      <trkpt lat="44.98728" lon="6.48091">
        <ele>1537.8</ele>
        <time>2024-08-11T08:12:30Z</time>
      </trkpt>
      <trkpt lat="44.98728" lon="6.48091">
        <ele>1537.8</ele>
        <time>2024-08-11T08:12:31Z</time>
      </trkpt>
      <trkpt lat="44.98728" lon="6.48091">
        <ele>1537.8</ele>
        <time>2024-08-11T08:12:32Z</time>
      </trkpt>
      <trkpt lat="44.98728" lon="6.48091">
        <ele>1537.8</ele>
        <time>2024-08-11T08:12:33Z</time>
      </trkpt>
      <trkpt lat="44.98728" lon="6.48091">
        <ele>1537.8</ele>
        <time>2024-08-11T08:12:34Z</time>
      </trkpt>
      <trkpt lat="44.98727" lon="6.48093">
        <ele>1538</ele>
        <time>2024-08-11T08:12:35Z</time>
      </trkpt>
      <trkpt lat="44.98727" lon="6.48093">
        <ele>1538</ele>
        <time>2024-08-11T08:12:36Z</time>
      </trkpt>
      <trkpt lat="44.98727" lon="6.48093">
        <ele>1538</ele>
        <time>2024-08-11T08:12:37Z</time>
      </trkpt>
      <trkpt lat="44.98729" lon="6.48096">
        <ele>1538</ele>
        <time>2024-08-11T08:12:38Z</time>
      </trkpt>
      <trkpt lat="44.98731" lon="6.48098">
        <ele>1537.8</ele>
        <time>2024-08-11T08:12:39Z</time>
      </trkpt>
      <trkpt lat="44.98733" lon="6.481">
        <ele>1537.6</ele>
        <time>2024-08-11T08:12:40Z</time>
      </trkpt>
      <trkpt lat="44.98734" lon="6.48102">
        <ele>1537.6</ele>
        <time>2024-08-11T08:12:41Z</time>
      </trkpt>
      <trkpt lat="44.98736" lon="6.48105">
        <ele>1537.6</ele>
        <time>2024-08-11T08:12:42Z</time>
      </trkpt>
      <trkpt lat="44.98736" lon="6.48106">
        <ele>1537.6</ele>
        <time>2024-08-11T08:12:43Z</time>
      </trkpt>
      <trkpt lat="44.98737" lon="6.48107">
        <ele>1537.4</ele>
        <time>2024-08-11T08:12:44Z</time>
      </trkpt>
      <trkpt lat="44.98738" lon="6.48108">
        <ele>1537.2</ele>
        <time>2024-08-11T08:12:45Z</time>
      </trkpt>
      <trkpt lat="44.98739" lon="6.48109">
        <ele>1537.2</ele>
        <time>2024-08-11T08:12:46Z</time>
      </trkpt>
      <trkpt lat="44.98739" lon="6.48109">
        <ele>1537</ele>
        <time>2024-08-11T08:12:47Z</time>
      </trkpt>
      <trkpt lat="44.98741" lon="6.48112">
        <ele>1537</ele>
        <time>2024-08-11T08:12:48Z</time>
      </trkpt>
      <trkpt lat="44.98741" lon="6.48112">
        <ele>1537</ele>
        <time>2024-08-11T08:12:49Z</time>
      </trkpt>
      <trkpt lat="44.98741" lon="6.48115">
        <ele>1537</ele>
        <time>2024-08-11T08:12:50Z</time>
      </trkpt>
      <trkpt lat="44.98741" lon="6.48115">
        <ele>1536.8</ele>
        <time>2024-08-11T08:12:51Z</time>
      </trkpt>
      <trkpt lat="44.98742" lon="6.4812">
        <ele>1536.6</ele>
        <time>2024-08-11T08:12:52Z</time>
      </trkpt>
      <trkpt lat="44.98742" lon="6.4812">
        <ele>1536.4</ele>
        <time>2024-08-11T08:12:53Z</time>
      </trkpt>
      <trkpt lat="44.98742" lon="6.48124">
        <ele>1536.4</ele>
        <time>2024-08-11T08:12:54Z</time>
      </trkpt>
      <trkpt lat="44.98742" lon="6.48124">
        <ele>1536.4</ele>
        <time>2024-08-11T08:12:55Z</time>
      </trkpt>
      <trkpt lat="44.98743" lon="6.48127">
        <ele>1536.4</ele>
        <time>2024-08-11T08:12:56Z</time>
      </trkpt>
      <trkpt lat="44.98743" lon="6.48127">
        <ele>1536.4</ele>
        <time>2024-08-11T08:12:57Z</time>
      </trkpt>
      <trkpt lat="44.98743" lon="6.48132">
        <ele>1536.4</ele>
        <time>2024-08-11T08:12:58Z</time>
      </trkpt>
      <trkpt lat="44.98743" lon="6.48132">
        <ele>1536.4</ele>
        <time>2024-08-11T08:12:59Z</time>
      </trkpt>
      <trkpt lat="44.98742" lon="6.48136">
        <ele>1536.4</ele>
        <time>2024-08-11T08:13:00Z</time>
      </trkpt>
      <trkpt lat="44.98742" lon="6.48136">
        <ele>1536.4</ele>
        <time>2024-08-11T08:13:01Z</time>
      </trkpt>
      <trkpt lat="44.98741" lon="6.48139">
        <ele>1536.4</ele>
        <time>2024-08-11T08:13:02Z</time>
      </trkpt>
      <trkpt lat="44.98741" lon="6.48139">
        <ele>1536.2</ele>
        <time>2024-08-11T08:13:03Z</time>
      </trkpt>
      <trkpt lat="44.98741" lon="6.48143">
        <ele>1536</ele>
        <time>2024-08-11T08:13:04Z</time>
      </trkpt>
      <trkpt lat="44.98741" lon="6.48143">
        <ele>1536</ele>
        <time>2024-08-11T08:13:05Z</time>
      </trkpt>
      <trkpt lat="44.98741" lon="6.48147">
        <ele>1536.4</ele>
        <time>2024-08-11T08:13:06Z</time>
      </trkpt>
      <trkpt lat="44.98741" lon="6.48147">
        <ele>1536.6</ele>
        <time>2024-08-11T08:13:07Z</time>
      </trkpt>
      <trkpt lat="44.98741" lon="6.48147">
        <ele>1536.6</ele>
        <time>2024-08-11T08:13:08Z</time>
      </trkpt>
      <trkpt lat="44.98741" lon="6.48153">
        <ele>1536.6</ele>
        <time>2024-08-11T08:13:09Z</time>
      </trkpt>
      <trkpt lat="44.98741" lon="6.48154">
        <ele>1536.6</ele>
        <time>2024-08-11T08:13:10Z</time>
      </trkpt>
      <trkpt lat="44.98741" lon="6.48154">
        <ele>1536.6</ele>
        <time>2024-08-11T08:13:11Z</time>
      </trkpt>
      <trkpt lat="44.98741" lon="6.48159">
        <ele>1536.4</ele>
        <time>2024-08-11T08:13:12Z</time>
      </trkpt>
      <trkpt lat="44.98741" lon="6.48159">
        <ele>1536.4</ele>
        <time>2024-08-11T08:13:13Z</time>
      </trkpt>
      <trkpt lat="44.9874" lon="6.48163">
        <ele>1536.6</ele>
        <time>2024-08-11T08:13:14Z</time>
      </trkpt>
      <trkpt lat="44.9874" lon="6.48163">
        <ele>1536.6</ele>
        <time>2024-08-11T08:13:15Z</time>
      </trkpt>
      <trkpt lat="44.98739" lon="6.48168">
        <ele>1536.6</ele>
        <time>2024-08-11T08:13:16Z</time>
      </trkpt>
      <trkpt lat="44.98739" lon="6.48168">
        <ele>1536.8</ele>
        <time>2024-08-11T08:13:17Z</time>
      </trkpt>
      <trkpt lat="44.98738" lon="6.48171">
        <ele>1536.8</ele>
        <time>2024-08-11T08:13:18Z</time>
      </trkpt>
      <trkpt lat="44.98738" lon="6.48171">
        <ele>1536.8</ele>
        <time>2024-08-11T08:13:19Z</time>
      </trkpt>
      <trkpt lat="44.98736" lon="6.48174">
        <ele>1536.8</ele>
        <time>2024-08-11T08:13:20Z</time>
      </trkpt>
      <trkpt lat="44.98736" lon="6.48174">
        <ele>1536.8</ele>
        <time>2024-08-11T08:13:21Z</time>
      </trkpt>
      <trkpt lat="44.98733" lon="6.48176">
        <ele>1536.8</ele>
        <time>2024-08-11T08:13:22Z</time>
      </trkpt>
      <trkpt lat="44.98733" lon="6.48176">
        <ele>1536.8</ele>
        <time>2024-08-11T08:13:23Z</time>
      </trkpt>
      <trkpt lat="44.98732" lon="6.48179">
        <ele>1536.6</ele>
        <time>2024-08-11T08:13:24Z</time>
      </trkpt>
      <trkpt lat="44.98732" lon="6.48179">
        <ele>1536.6</ele>
        <time>2024-08-11T08:13:25Z</time>
      </trkpt>
      <trkpt lat="44.9873" lon="6.48181">
        <ele>1536.6</ele>
        <time>2024-08-11T08:13:26Z</time>
      </trkpt>
      <trkpt lat="44.9873" lon="6.48181">
        <ele>1536.8</ele>
        <time>2024-08-11T08:13:27Z</time>
      </trkpt>
      <trkpt lat="44.98729" lon="6.48184">
        <ele>1536.8</ele>
        <time>2024-08-11T08:13:28Z</time>
      </trkpt>
      <trkpt lat="44.98729" lon="6.48184">
        <ele>1536.8</ele>
        <time>2024-08-11T08:13:29Z</time>
      </trkpt>
      <trkpt lat="44.98727" lon="6.48188">
        <ele>1536.8</ele>
        <time>2024-08-11T08:13:30Z</time>
      </trkpt>
      <trkpt lat="44.98727" lon="6.48188">
        <ele>1537</ele>
        <time>2024-08-11T08:13:31Z</time>
      </trkpt>
      <trkpt lat="44.98727" lon="6.48192">
        <ele>1537</ele>
        <time>2024-08-11T08:13:32Z</time>
      </trkpt>
      <trkpt lat="44.98727" lon="6.48192">
        <ele>1536.6</ele>
        <time>2024-08-11T08:13:33Z</time>
      </trkpt>
      <trkpt lat="44.98725" lon="6.48196">
        <ele>1536.6</ele>
        <time>2024-08-11T08:13:34Z</time>
      </trkpt>
      <trkpt lat="44.98725" lon="6.48196">
        <ele>1536.8</ele>
        <time>2024-08-11T08:13:35Z</time>
      </trkpt>
      <trkpt lat="44.98723" lon="6.48198">
        <ele>1536.8</ele>
        <time>2024-08-11T08:13:36Z</time>
      </trkpt>
      <trkpt lat="44.98723" lon="6.48198">
        <ele>1536.6</ele>
        <time>2024-08-11T08:13:37Z</time>
      </trkpt>
      <trkpt lat="44.98722" lon="6.482">
        <ele>1536.6</ele>
        <time>2024-08-11T08:13:38Z</time>
      </trkpt>
      <trkpt lat="44.98722" lon="6.482">
        <ele>1536.6</ele>
        <time>2024-08-11T08:13:39Z</time>
      </trkpt>
      <trkpt lat="44.98719" lon="6.48202">
        <ele>1536.4</ele>
        <time>2024-08-11T08:13:40Z</time>
      </trkpt>
      <trkpt lat="44.98719" lon="6.48202">
        <ele>1536.2</ele>
        <time>2024-08-11T08:13:41Z</time>
      </trkpt>
      <trkpt lat="44.98716" lon="6.48204">
        <ele>1536.2</ele>
        <time>2024-08-11T08:13:42Z</time>
      </trkpt>
      <trkpt lat="44.98716" lon="6.48204">
        <ele>1536.4</ele>
        <time>2024-08-11T08:13:43Z</time>
      </trkpt>
      <trkpt lat="44.98713" lon="6.48206">
        <ele>1536.4</ele>
        <time>2024-08-11T08:13:44Z</time>
      </trkpt>
      <trkpt lat="44.98713" lon="6.48206">
        <ele>1536.4</ele>
        <time>2024-08-11T08:13:45Z</time>
      </trkpt>
      <trkpt lat="44.98711" lon="6.48208">
        <ele>1536.4</ele>
        <time>2024-08-11T08:13:46Z</time>
      </trkpt>
      <trkpt lat="44.98711" lon="6.48208">
        <ele>1536.4</ele>
        <time>2024-08-11T08:13:47Z</time>
      </trkpt>
      <trkpt lat="44.98709" lon="6.48208">
        <ele>1536</ele>
        <time>2024-08-11T08:13:48Z</time>
      </trkpt>
      <trkpt lat="44.98707" lon="6.48209">
        <ele>1535.8</ele>
        <time>2024-08-11T08:13:49Z</time>
      </trkpt>
      <trkpt lat="44.98707" lon="6.48209">
        <ele>1535.8</ele>
        <time>2024-08-11T08:13:50Z</time>
      </trkpt>
      <trkpt lat="44.98704" lon="6.4821">
        <ele>1535.6</ele>
        <time>2024-08-11T08:13:51Z</time>
      </trkpt>
      <trkpt lat="44.98702" lon="6.48211">
        <ele>1535.6</ele>
        <time>2024-08-11T08:13:52Z</time>
      </trkpt>
      <trkpt lat="44.98702" lon="6.48211">
        <ele>1535.6</ele>
        <time>2024-08-11T08:13:53Z</time>
      </trkpt>
      <trkpt lat="44.98699" lon="6.48212">
        <ele>1535.6</ele>
        <time>2024-08-11T08:13:54Z</time>
      </trkpt>
      <trkpt lat="44.98699" lon="6.48212">
        <ele>1535.4</ele>
        <time>2024-08-11T08:13:55Z</time>
      </trkpt>
      <trkpt lat="44.98697" lon="6.48214">
        <ele>1535.4</ele>
        <time>2024-08-11T08:13:56Z</time>
      </trkpt>
      <trkpt lat="44.98697" lon="6.48214">
        <ele>1535.4</ele>
        <time>2024-08-11T08:13:57Z</time>
      </trkpt>
      <trkpt lat="44.98694" lon="6.48214">
        <ele>1535.2</ele>
        <time>2024-08-11T08:13:58Z</time>
      </trkpt>
      <trkpt lat="44.98694" lon="6.48214">
        <ele>1535.2</ele>
        <time>2024-08-11T08:13:59Z</time>
      </trkpt>
      <trkpt lat="44.98693" lon="6.48216">
        <ele>1535.2</ele>
        <time>2024-08-11T08:14:00Z</time>
      </trkpt>
      <trkpt lat="44.98693" lon="6.48216">
        <ele>1534.8</ele>
        <time>2024-08-11T08:14:01Z</time>
      </trkpt>
      <trkpt lat="44.9869" lon="6.48219">
        <ele>1534.8</ele>
        <time>2024-08-11T08:14:02Z</time>
      </trkpt>
      <trkpt lat="44.9869" lon="6.48219">
        <ele>1534.4</ele>
        <time>2024-08-11T08:14:03Z</time>
      </trkpt>
      <trkpt lat="44.9869" lon="6.48219">
        <ele>1534.4</ele>
        <time>2024-08-11T08:14:04Z</time>
      </trkpt>
      <trkpt lat="44.98687" lon="6.48223">
        <ele>1534.4</ele>
        <time>2024-08-11T08:14:05Z</time>
      </trkpt>
      <trkpt lat="44.98686" lon="6.48225">
        <ele>1534</ele>
        <time>2024-08-11T08:14:06Z</time>
      </trkpt>
      <trkpt lat="44.98686" lon="6.48225">
        <ele>1533.8</ele>
        <time>2024-08-11T08:14:07Z</time>
      </trkpt>
      <trkpt lat="44.98684" lon="6.48227">
        <ele>1533.6</ele>
        <time>2024-08-11T08:14:08Z</time>
      </trkpt>
      <trkpt lat="44.98684" lon="6.48227">
        <ele>1533.6</ele>
        <time>2024-08-11T08:14:09Z</time>
      </trkpt>
      <trkpt lat="44.98684" lon="6.48227">
        <ele>1533.6</ele>
        <time>2024-08-11T08:14:10Z</time>
      </trkpt>
      <trkpt lat="44.98681" lon="6.48229">
        <ele>1533.4</ele>
        <time>2024-08-11T08:14:11Z</time>
      </trkpt>
      <trkpt lat="44.9868" lon="6.48231">
        <ele>1533.2</ele>
        <time>2024-08-11T08:14:12Z</time>
      </trkpt>
      <trkpt lat="44.9868" lon="6.48231">
        <ele>1533.2</ele>
        <time>2024-08-11T08:14:13Z</time>
      </trkpt>
      <trkpt lat="44.98679" lon="6.48233">
        <ele>1533</ele>
        <time>2024-08-11T08:14:14Z</time>
      </trkpt>
      <trkpt lat="44.98679" lon="6.48233">
        <ele>1533</ele>
        <time>2024-08-11T08:14:15Z</time>
      </trkpt>
      <trkpt lat="44.98677" lon="6.48235">
        <ele>1533</ele>
        <time>2024-08-11T08:14:16Z</time>
      </trkpt>
      <trkpt lat="44.98677" lon="6.48235">
        <ele>1533</ele>
        <time>2024-08-11T08:14:17Z</time>
      </trkpt>
      <trkpt lat="44.98676" lon="6.48237">
        <ele>1532.8</ele>
        <time>2024-08-11T08:14:18Z</time>
      </trkpt>
      <trkpt lat="44.98674" lon="6.48239">
        <ele>1532.8</ele>
        <time>2024-08-11T08:14:19Z</time>
      </trkpt>
      <trkpt lat="44.98674" lon="6.48239">
        <ele>1532.8</ele>
        <time>2024-08-11T08:14:20Z</time>
      </trkpt>
      <trkpt lat="44.98675" lon="6.48242">
        <ele>1532.6</ele>
        <time>2024-08-11T08:14:21Z</time>
      </trkpt>
      <trkpt lat="44.98674" lon="6.48243">
        <ele>1532.6</ele>
        <time>2024-08-11T08:14:22Z</time>
      </trkpt>
      <trkpt lat="44.98673" lon="6.48244">
        <ele>1532.6</ele>
        <time>2024-08-11T08:14:23Z</time>
      </trkpt>
      <trkpt lat="44.98671" lon="6.48246">
        <ele>1532.4</ele>
        <time>2024-08-11T08:14:24Z</time>
      </trkpt>
      <trkpt lat="44.98671" lon="6.48246">
        <ele>1532.4</ele>
        <time>2024-08-11T08:14:25Z</time>
      </trkpt>
      <trkpt lat="44.98669" lon="6.48248">
        <ele>1532.2</ele>
        <time>2024-08-11T08:14:26Z</time>
      </trkpt>
      <trkpt lat="44.98667" lon="6.48249">
        <ele>1532.2</ele>
        <time>2024-08-11T08:14:27Z</time>
      </trkpt>
      <trkpt lat="44.98667" lon="6.48249">
        <ele>1532.2</ele>
        <time>2024-08-11T08:14:28Z</time>
      </trkpt>
      <trkpt lat="44.98665" lon="6.48252">
        <ele>1532</ele>
        <time>2024-08-11T08:14:29Z</time>
      </trkpt>
      <trkpt lat="44.98665" lon="6.48252">
        <ele>1532</ele>
        <time>2024-08-11T08:14:30Z</time>
      </trkpt>
      <trkpt lat="44.98664" lon="6.48256">
        <ele>1532</ele>
        <time>2024-08-11T08:14:31Z</time>
      </trkpt>
      <trkpt lat="44.98664" lon="6.48256">
        <ele>1532</ele>
        <time>2024-08-11T08:14:32Z</time>
      </trkpt>
      <trkpt lat="44.98663" lon="6.48258">
        <ele>1532</ele>
        <time>2024-08-11T08:14:33Z</time>
      </trkpt>
      <trkpt lat="44.98663" lon="6.48258">
        <ele>1532</ele>
        <time>2024-08-11T08:14:34Z</time>
      </trkpt>
      <trkpt lat="44.98661" lon="6.48261">
        <ele>1532</ele>
        <time>2024-08-11T08:14:35Z</time>
      </trkpt>
      <trkpt lat="44.98661" lon="6.48261">
        <ele>1532</ele>
        <time>2024-08-11T08:14:36Z</time>
      </trkpt>
      <trkpt lat="44.98659" lon="6.48263">
        <ele>1532</ele>
        <time>2024-08-11T08:14:37Z</time>
      </trkpt>
      <trkpt lat="44.98659" lon="6.48263">
        <ele>1532</ele>
        <time>2024-08-11T08:14:38Z</time>
      </trkpt>
      <trkpt lat="44.98658" lon="6.48265">
        <ele>1531.8</ele>
        <time>2024-08-11T08:14:39Z</time>
      </trkpt>
      <trkpt lat="44.98658" lon="6.48265">
        <ele>1531.8</ele>
        <time>2024-08-11T08:14:40Z</time>
      </trkpt>
      <trkpt lat="44.98657" lon="6.48268">
        <ele>1531.8</ele>
        <time>2024-08-11T08:14:41Z</time>
      </trkpt>
      <trkpt lat="44.98657" lon="6.48268">
        <ele>1532</ele>
        <time>2024-08-11T08:14:42Z</time>
      </trkpt>
      <trkpt lat="44.98656" lon="6.48272">
        <ele>1531.8</ele>
        <time>2024-08-11T08:14:43Z</time>
      </trkpt>
      <trkpt lat="44.98656" lon="6.48272">
        <ele>1532</ele>
        <time>2024-08-11T08:14:44Z</time>
      </trkpt>
      <trkpt lat="44.98655" lon="6.48275">
        <ele>1532</ele>
        <time>2024-08-11T08:14:45Z</time>
      </trkpt>
      <trkpt lat="44.98655" lon="6.48275">
        <ele>1532</ele>
        <time>2024-08-11T08:14:46Z</time>
      </trkpt>
      <trkpt lat="44.98655" lon="6.48279">
        <ele>1532</ele>
        <time>2024-08-11T08:14:47Z</time>
      </trkpt>
      <trkpt lat="44.98655" lon="6.48281">
        <ele>1532</ele>
        <time>2024-08-11T08:14:48Z</time>
      </trkpt>
      <trkpt lat="44.98654" lon="6.48284">
        <ele>1531.8</ele>
        <time>2024-08-11T08:14:49Z</time>
      </trkpt>
      <trkpt lat="44.98654" lon="6.48284">
        <ele>1531.8</ele>
        <time>2024-08-11T08:14:50Z</time>
      </trkpt>
      <trkpt lat="44.98652" lon="6.48288">
        <ele>1531.8</ele>
        <time>2024-08-11T08:14:51Z</time>
      </trkpt>
      <trkpt lat="44.98652" lon="6.48288">
        <ele>1531.8</ele>
        <time>2024-08-11T08:14:52Z</time>
      </trkpt>
      <trkpt lat="44.9865" lon="6.48291">
        <ele>1531.8</ele>
        <time>2024-08-11T08:14:53Z</time>
      </trkpt>
      <trkpt lat="44.9865" lon="6.48291">
        <ele>1531.8</ele>
        <time>2024-08-11T08:14:54Z</time>
      </trkpt>
      <trkpt lat="44.98648" lon="6.48294">
        <ele>1531.8</ele>
        <time>2024-08-11T08:14:55Z</time>
      </trkpt>
      <trkpt lat="44.98648" lon="6.48294">
        <ele>1532</ele>
        <time>2024-08-11T08:14:56Z</time>
      </trkpt>
      <trkpt lat="44.98648" lon="6.48297">
        <ele>1532</ele>
        <time>2024-08-11T08:14:57Z</time>
      </trkpt>
      <trkpt lat="44.98648" lon="6.48297">
        <ele>1531.8</ele>
        <time>2024-08-11T08:14:58Z</time>
      </trkpt>
      <trkpt lat="44.98647" lon="6.483">
        <ele>1531.8</ele>
        <time>2024-08-11T08:14:59Z</time>
      </trkpt>
      <trkpt lat="44.98647" lon="6.483">
        <ele>1531.8</ele>
        <time>2024-08-11T08:15:00Z</time>
      </trkpt>
      <trkpt lat="44.98646" lon="6.48303">
        <ele>1531.8</ele>
        <time>2024-08-11T08:15:01Z</time>
      </trkpt>
      <trkpt lat="44.98646" lon="6.48303">
        <ele>1531.8</ele>
        <time>2024-08-11T08:15:02Z</time>
      </trkpt>
      <trkpt lat="44.98644" lon="6.48306">
        <ele>1531.8</ele>
        <time>2024-08-11T08:15:03Z</time>
      </trkpt>
      <trkpt lat="44.98644" lon="6.48306">
        <ele>1531.8</ele>
        <time>2024-08-11T08:15:04Z</time>
      </trkpt>
      <trkpt lat="44.98642" lon="6.48308">
        <ele>1531.8</ele>
        <time>2024-08-11T08:15:05Z</time>
      </trkpt>
      <trkpt lat="44.98642" lon="6.48308">
        <ele>1531.8</ele>
        <time>2024-08-11T08:15:06Z</time>
      </trkpt>
      <trkpt lat="44.98642" lon="6.48308">
        <ele>1531.8</ele>
        <time>2024-08-11T08:15:07Z</time>
      </trkpt>
      <trkpt lat="44.98639" lon="6.48313">
        <ele>1532</ele>
        <time>2024-08-11T08:15:08Z</time>
      </trkpt>
      <trkpt lat="44.98638" lon="6.48315">
        <ele>1532</ele>
        <time>2024-08-11T08:15:09Z</time>
      </trkpt>
      <trkpt lat="44.98638" lon="6.48315">
        <ele>1531.8</ele>
        <time>2024-08-11T08:15:10Z</time>
      </trkpt>
      <trkpt lat="44.98638" lon="6.48315">
        <ele>1531.8</ele>
        <time>2024-08-11T08:15:11Z</time>
      </trkpt>
      <trkpt lat="44.98636" lon="6.48318">
        <ele>1531.8</ele>
        <time>2024-08-11T08:15:12Z</time>
      </trkpt>
      <trkpt lat="44.98634" lon="6.4832">
        <ele>1531.8</ele>
        <time>2024-08-11T08:15:13Z</time>
      </trkpt>
      <trkpt lat="44.98634" lon="6.4832">
        <ele>1531.8</ele>
        <time>2024-08-11T08:15:14Z</time>
      </trkpt>
      <trkpt lat="44.98634" lon="6.48323">
        <ele>1531.8</ele>
        <time>2024-08-11T08:15:15Z</time>
      </trkpt>
      <trkpt lat="44.98634" lon="6.48323">
        <ele>1531.8</ele>
        <time>2024-08-11T08:15:16Z</time>
      </trkpt>
      <trkpt lat="44.9863" lon="6.48324">
        <ele>1531.8</ele>
        <time>2024-08-11T08:15:17Z</time>
      </trkpt>
      <trkpt lat="44.9863" lon="6.48324">
        <ele>1531.8</ele>
        <time>2024-08-11T08:15:18Z</time>
      </trkpt>
      <trkpt lat="44.98628" lon="6.48326">
        <ele>1531.8</ele>
        <time>2024-08-11T08:15:19Z</time>
      </trkpt>
      <trkpt lat="44.98624" lon="6.48324">
        <ele>1531.8</ele>
        <time>2024-08-11T08:15:20Z</time>
      </trkpt>
      <trkpt lat="44.98621" lon="6.48323">
        <ele>1531.6</ele>
        <time>2024-08-11T08:15:21Z</time>
      </trkpt>
      <trkpt lat="44.98617" lon="6.48323">
        <ele>1531.4</ele>
        <time>2024-08-11T08:15:22Z</time>
      </trkpt>
      <trkpt lat="44.98615" lon="6.48322">
        <ele>1531.2</ele>
        <time>2024-08-11T08:15:23Z</time>
      </trkpt>
      <trkpt lat="44.98614" lon="6.48322">
        <ele>1531.2</ele>
        <time>2024-08-11T08:15:24Z</time>
      </trkpt>
      <trkpt lat="44.98612" lon="6.48322">
        <ele>1531.2</ele>
        <time>2024-08-11T08:15:25Z</time>
      </trkpt>
      <trkpt lat="44.9861" lon="6.48322">
        <ele>1531</ele>
        <time>2024-08-11T08:15:26Z</time>
      </trkpt>
      <trkpt lat="44.98609" lon="6.48322">
        <ele>1531</ele>
        <time>2024-08-11T08:15:27Z</time>
      </trkpt>
      <trkpt lat="44.98609" lon="6.48322">
        <ele>1530.8</ele>
        <time>2024-08-11T08:15:28Z</time>
      </trkpt>
      <trkpt lat="44.98607" lon="6.48322">
        <ele>1530.6</ele>
        <time>2024-08-11T08:15:29Z</time>
      </trkpt>
      <trkpt lat="44.98607" lon="6.48322">
        <ele>1530.4</ele>
        <time>2024-08-11T08:15:30Z</time>
      </trkpt>
      <trkpt lat="44.98605" lon="6.48322">
        <ele>1530.2</ele>
        <time>2024-08-11T08:15:31Z</time>
      </trkpt>
      <trkpt lat="44.98605" lon="6.48322">
        <ele>1530</ele>
        <time>2024-08-11T08:15:32Z</time>
      </trkpt>
      <trkpt lat="44.98602" lon="6.48323">
        <ele>1530</ele>
        <time>2024-08-11T08:15:33Z</time>
      </trkpt>
      <trkpt lat="44.98602" lon="6.48323">
        <ele>1530</ele>
        <time>2024-08-11T08:15:34Z</time>
      </trkpt>
      <trkpt lat="44.98598" lon="6.48324">
        <ele>1529.8</ele>
        <time>2024-08-11T08:15:35Z</time>
      </trkpt>
      <trkpt lat="44.98598" lon="6.48324">
        <ele>1529.4</ele>
        <time>2024-08-11T08:15:36Z</time>
      </trkpt>
      <trkpt lat="44.98595" lon="6.48324">
        <ele>1529</ele>
        <time>2024-08-11T08:15:37Z</time>
      </trkpt>
      <trkpt lat="44.98595" lon="6.48324">
        <ele>1529</ele>
        <time>2024-08-11T08:15:38Z</time>
      </trkpt>
      <trkpt lat="44.98593" lon="6.48325">
        <ele>1529</ele>
        <time>2024-08-11T08:15:39Z</time>
      </trkpt>
      <trkpt lat="44.98593" lon="6.48325">
        <ele>1528.8</ele>
        <time>2024-08-11T08:15:40Z</time>
      </trkpt>
      <trkpt lat="44.98591" lon="6.48326">
        <ele>1528.8</ele>
        <time>2024-08-11T08:15:41Z</time>
      </trkpt>
      <trkpt lat="44.98591" lon="6.48326">
        <ele>1528.8</ele>
        <time>2024-08-11T08:15:42Z</time>
      </trkpt>
      <trkpt lat="44.98588" lon="6.48328">
        <ele>1528.2</ele>
        <time>2024-08-11T08:15:43Z</time>
      </trkpt>
      <trkpt lat="44.98588" lon="6.48328">
        <ele>1528.2</ele>
        <time>2024-08-11T08:15:44Z</time>
      </trkpt>
      <trkpt lat="44.98586" lon="6.48331">
        <ele>1528.2</ele>
        <time>2024-08-11T08:15:45Z</time>
      </trkpt>
      <trkpt lat="44.98586" lon="6.48331">
        <ele>1528.2</ele>
        <time>2024-08-11T08:15:46Z</time>
      </trkpt>
      <trkpt lat="44.98585" lon="6.48334">
        <ele>1528.4</ele>
        <time>2024-08-11T08:15:47Z</time>
      </trkpt>
      <trkpt lat="44.98585" lon="6.48334">
        <ele>1528.4</ele>
        <time>2024-08-11T08:15:48Z</time>
      </trkpt>
      <trkpt lat="44.98585" lon="6.48334">
        <ele>1528.4</ele>
        <time>2024-08-11T08:15:49Z</time>
      </trkpt>
      <trkpt lat="44.98583" lon="6.48338">
        <ele>1528.4</ele>
        <time>2024-08-11T08:15:50Z</time>
      </trkpt>
      <trkpt lat="44.98582" lon="6.4834">
        <ele>1528.6</ele>
        <time>2024-08-11T08:15:51Z</time>
      </trkpt>
      <trkpt lat="44.98582" lon="6.4834">
        <ele>1528.6</ele>
        <time>2024-08-11T08:15:52Z</time>
      </trkpt>
      <trkpt lat="44.98578" lon="6.4834">
        <ele>1528.6</ele>
        <time>2024-08-11T08:15:53Z</time>
      </trkpt>
      <trkpt lat="44.98576" lon="6.4834">
        <ele>1528.4</ele>
        <time>2024-08-11T08:15:54Z</time>
      </trkpt>
      <trkpt lat="44.98576" lon="6.4834">
        <ele>1528.4</ele>
        <time>2024-08-11T08:15:55Z</time>
      </trkpt>
      <trkpt lat="44.98573" lon="6.48343">
        <ele>1528.4</ele>
        <time>2024-08-11T08:15:56Z</time>
      </trkpt>
      <trkpt lat="44.98573" lon="6.48343">
        <ele>1528.2</ele>
        <time>2024-08-11T08:15:57Z</time>
      </trkpt>
      <trkpt lat="44.98571" lon="6.48346">
        <ele>1528.2</ele>
        <time>2024-08-11T08:15:58Z</time>
      </trkpt>
      <trkpt lat="44.98571" lon="6.48346">
        <ele>1528.2</ele>
        <time>2024-08-11T08:15:59Z</time>
      </trkpt>
      <trkpt lat="44.98571" lon="6.48346">
        <ele>1528.2</ele>
        <time>2024-08-11T08:16:00Z</time>
      </trkpt>
      <trkpt lat="44.9857" lon="6.48349">
        <ele>1528.2</ele>
        <time>2024-08-11T08:16:01Z</time>
      </trkpt>
      <trkpt lat="44.9857" lon="6.48349">
        <ele>1528</ele>
        <time>2024-08-11T08:16:02Z</time>
      </trkpt>
      <trkpt lat="44.98568" lon="6.48352">
        <ele>1528</ele>
        <time>2024-08-11T08:16:03Z</time>
      </trkpt>
      <trkpt lat="44.98568" lon="6.48352">
        <ele>1528</ele>
        <time>2024-08-11T08:16:04Z</time>
      </trkpt>
      <trkpt lat="44.98567" lon="6.48356">
        <ele>1528</ele>
        <time>2024-08-11T08:16:05Z</time>
      </trkpt>
      <trkpt lat="44.98567" lon="6.48356">
        <ele>1527.8</ele>
        <time>2024-08-11T08:16:06Z</time>
      </trkpt>
      <trkpt lat="44.98567" lon="6.48356">
        <ele>1527.8</ele>
        <time>2024-08-11T08:16:07Z</time>
      </trkpt>
      <trkpt lat="44.98566" lon="6.4836">
        <ele>1527.8</ele>
        <time>2024-08-11T08:16:08Z</time>
      </trkpt>
      <trkpt lat="44.98566" lon="6.4836">
        <ele>1527.6</ele>
        <time>2024-08-11T08:16:09Z</time>
      </trkpt>
      <trkpt lat="44.98565" lon="6.48364">
        <ele>1527.8</ele>
        <time>2024-08-11T08:16:10Z</time>
      </trkpt>
      <trkpt lat="44.98565" lon="6.48365">
        <ele>1527.6</ele>
        <time>2024-08-11T08:16:11Z</time>
      </trkpt>
      <trkpt lat="44.98565" lon="6.48365">
        <ele>1527.6</ele>
        <time>2024-08-11T08:16:12Z</time>
      </trkpt>
      <trkpt lat="44.98563" lon="6.48368">
        <ele>1527.4</ele>
        <time>2024-08-11T08:16:13Z</time>
      </trkpt>
      <trkpt lat="44.98563" lon="6.48368">
        <ele>1527.4</ele>
        <time>2024-08-11T08:16:14Z</time>
      </trkpt>
      <trkpt lat="44.98563" lon="6.48372">
        <ele>1527.4</ele>
        <time>2024-08-11T08:16:15Z</time>
      </trkpt>
      <trkpt lat="44.98563" lon="6.48372">
        <ele>1527.4</ele>
        <time>2024-08-11T08:16:16Z</time>
      </trkpt>
      <trkpt lat="44.98563" lon="6.48376">
        <ele>1527.4</ele>
        <time>2024-08-11T08:16:17Z</time>
      </trkpt>
      <trkpt lat="44.98563" lon="6.48376">
        <ele>1527.2</ele>
        <time>2024-08-11T08:16:18Z</time>
      </trkpt>
      <trkpt lat="44.98563" lon="6.48379">
        <ele>1527</ele>
        <time>2024-08-11T08:16:19Z</time>
      </trkpt>
      <trkpt lat="44.98563" lon="6.48379">
        <ele>1527</ele>
        <time>2024-08-11T08:16:20Z</time>
      </trkpt>
      <trkpt lat="44.98562" lon="6.48383">
        <ele>1526.8</ele>
        <time>2024-08-11T08:16:21Z</time>
      </trkpt>
      <trkpt lat="44.98562" lon="6.48383">
        <ele>1526.8</ele>
        <time>2024-08-11T08:16:22Z</time>
      </trkpt>
      <trkpt lat="44.98561" lon="6.48387">
        <ele>1526.8</ele>
        <time>2024-08-11T08:16:23Z</time>
      </trkpt>
      <trkpt lat="44.98561" lon="6.48387">
        <ele>1526.8</ele>
        <time>2024-08-11T08:16:24Z</time>
      </trkpt>
      <trkpt lat="44.98559" lon="6.4839">
        <ele>1526.8</ele>
        <time>2024-08-11T08:16:25Z</time>
      </trkpt>
      <trkpt lat="44.98559" lon="6.4839">
        <ele>1526.6</ele>
        <time>2024-08-11T08:16:26Z</time>
      </trkpt>
      <trkpt lat="44.98557" lon="6.48394">
        <ele>1526.6</ele>
        <time>2024-08-11T08:16:27Z</time>
      </trkpt>
      <trkpt lat="44.98557" lon="6.48394">
        <ele>1526.6</ele>
        <time>2024-08-11T08:16:28Z</time>
      </trkpt>
      <trkpt lat="44.98554" lon="6.48397">
        <ele>1526.4</ele>
        <time>2024-08-11T08:16:29Z</time>
      </trkpt>
      <trkpt lat="44.98554" lon="6.48397">
        <ele>1526.4</ele>
        <time>2024-08-11T08:16:30Z</time>
      </trkpt>
      <trkpt lat="44.98553" lon="6.48399">
        <ele>1526.4</ele>
        <time>2024-08-11T08:16:31Z</time>
      </trkpt>
      <trkpt lat="44.98553" lon="6.48399">
        <ele>1526.2</ele>
        <time>2024-08-11T08:16:32Z</time>
      </trkpt>
      <trkpt lat="44.9855" lon="6.48401">
        <ele>1526.2</ele>
        <time>2024-08-11T08:16:33Z</time>
      </trkpt>
      <trkpt lat="44.98548" lon="6.48403">
        <ele>1526</ele>
        <time>2024-08-11T08:16:34Z</time>
      </trkpt>
      <trkpt lat="44.98548" lon="6.48403">
        <ele>1526</ele>
        <time>2024-08-11T08:16:35Z</time>
      </trkpt>
      <trkpt lat="44.98545" lon="6.48404">
        <ele>1526.2</ele>
        <time>2024-08-11T08:16:36Z</time>
      </trkpt>
      <trkpt lat="44.98545" lon="6.48404">
        <ele>1526.4</ele>
        <time>2024-08-11T08:16:37Z</time>
      </trkpt>
      <trkpt lat="44.98545" lon="6.48404">
        <ele>1526.4</ele>
        <time>2024-08-11T08:16:38Z</time>
      </trkpt>
      <trkpt lat="44.98545" lon="6.48404">
        <ele>1526.2</ele>
        <time>2024-08-11T08:16:39Z</time>
      </trkpt>
      <trkpt lat="44.98545" lon="6.48404">
        <ele>1526.2</ele>
        <time>2024-08-11T08:16:40Z</time>
      </trkpt>
      <trkpt lat="44.98545" lon="6.48404">
        <ele>1526.2</ele>
        <time>2024-08-11T08:16:41Z</time>
      </trkpt>
      <trkpt lat="44.98545" lon="6.48404">
        <ele>1526.2</ele>
        <time>2024-08-11T08:16:42Z</time>
      </trkpt>
      <trkpt lat="44.98545" lon="6.48404">
        <ele>1526.4</ele>
        <time>2024-08-11T08:16:43Z</time>
      </trkpt>
      <trkpt lat="44.98545" lon="6.48404">
        <ele>1526.4</ele>
        <time>2024-08-11T08:16:44Z</time>
      </trkpt>
      <trkpt lat="44.98545" lon="6.48404">
        <ele>1526.6</ele>
        <time>2024-08-11T08:16:45Z</time>
      </trkpt>
      <trkpt lat="44.98545" lon="6.48404">
        <ele>1526.6</ele>
        <time>2024-08-11T08:16:46Z</time>
      </trkpt>
      <trkpt lat="44.98545" lon="6.48404">
        <ele>1526.6</ele>
        <time>2024-08-11T08:16:47Z</time>
      </trkpt>
      <trkpt lat="44.98545" lon="6.48404">
        <ele>1526.4</ele>
        <time>2024-08-11T08:16:48Z</time>
      </trkpt>
      <trkpt lat="44.98545" lon="6.48404">
        <ele>1526.4</ele>
        <time>2024-08-11T08:16:49Z</time>
      </trkpt>
      <trkpt lat="44.98545" lon="6.48404">
        <ele>1526.4</ele>
        <time>2024-08-11T08:16:50Z</time>
      </trkpt>
      <trkpt lat="44.98545" lon="6.48404">
        <ele>1526.6</ele>
        <time>2024-08-11T08:16:51Z</time>
      </trkpt>
      <trkpt lat="44.98545" lon="6.48404">
        <ele>1526.6</ele>
        <time>2024-08-11T08:16:52Z</time>
      </trkpt>
      <trkpt lat="44.98545" lon="6.48404">
        <ele>1526.6</ele>
        <time>2024-08-11T08:16:53Z</time>
      </trkpt>
      <trkpt lat="44.98545" lon="6.48404">
        <ele>1526.6</ele>
        <time>2024-08-11T08:16:54Z</time>
      </trkpt>
      <trkpt lat="44.98545" lon="6.48404">
        <ele>1526.6</ele>
        <time>2024-08-11T08:16:55Z</time>
      </trkpt>
      <trkpt lat="44.98545" lon="6.48404">
        <ele>1526.6</ele>
        <time>2024-08-11T08:16:56Z</time>
      </trkpt>
      <trkpt lat="44.98545" lon="6.48404">
        <ele>1526.6</ele>
        <time>2024-08-11T08:16:57Z</time>
      </trkpt>
      <trkpt lat="44.98544" lon="6.48405">
        <ele>1526.6</ele>
        <time>2024-08-11T08:16:58Z</time>
      </trkpt>
      <trkpt lat="44.98544" lon="6.48405">
        <ele>1526.4</ele>
        <time>2024-08-11T08:16:59Z</time>
      </trkpt>
      <trkpt lat="44.98542" lon="6.48406">
        <ele>1526.2</ele>
        <time>2024-08-11T08:17:00Z</time>
      </trkpt>
      <trkpt lat="44.9854" lon="6.48407">
        <ele>1526.2</ele>
        <time>2024-08-11T08:17:01Z</time>
      </trkpt>
      <trkpt lat="44.98538" lon="6.48408">
        <ele>1526.4</ele>
        <time>2024-08-11T08:17:02Z</time>
      </trkpt>
      <trkpt lat="44.98536" lon="6.48408">
        <ele>1526.4</ele>
        <time>2024-08-11T08:17:03Z</time>
      </trkpt>
      <trkpt lat="44.98536" lon="6.48408">
        <ele>1526.4</ele>
        <time>2024-08-11T08:17:04Z</time>
      </trkpt>
      <trkpt lat="44.98536" lon="6.48408">
        <ele>1526.4</ele>
        <time>2024-08-11T08:17:05Z</time>
      </trkpt>
      <trkpt lat="44.98531" lon="6.4841">
        <ele>1526.4</ele>
        <time>2024-08-11T08:17:06Z</time>
      </trkpt>
      <trkpt lat="44.98529" lon="6.48411">
        <ele>1526.8</ele>
        <time>2024-08-11T08:17:07Z</time>
      </trkpt>
      <trkpt lat="44.98529" lon="6.48411">
        <ele>1526.8</ele>
        <time>2024-08-11T08:17:08Z</time>
      </trkpt>
      <trkpt lat="44.98526" lon="6.48413">
        <ele>1526.6</ele>
        <time>2024-08-11T08:17:09Z</time>
      </trkpt>
      <trkpt lat="44.98526" lon="6.48413">
        <ele>1526.6</ele>
        <time>2024-08-11T08:17:10Z</time>
      </trkpt>
      <trkpt lat="44.98525" lon="6.48414">
        <ele>1526.8</ele>
        <time>2024-08-11T08:17:11Z</time>
      </trkpt>
      <trkpt lat="44.98525" lon="6.48414">
        <ele>1527.2</ele>
        <time>2024-08-11T08:17:12Z</time>
      </trkpt>
      <trkpt lat="44.98522" lon="6.48415">
        <ele>1527.2</ele>
        <time>2024-08-11T08:17:13Z</time>
      </trkpt>
      <trkpt lat="44.98522" lon="6.48415">
        <ele>1527.2</ele>
        <time>2024-08-11T08:17:14Z</time>
      </trkpt>
      <trkpt lat="44.98519" lon="6.48417">
        <ele>1527.2</ele>
        <time>2024-08-11T08:17:15Z</time>
      </trkpt>
      <trkpt lat="44.98519" lon="6.48417">
        <ele>1526.8</ele>
        <time>2024-08-11T08:17:16Z</time>
      </trkpt>
      <trkpt lat="44.98517" lon="6.48419">
        <ele>1526.6</ele>
        <time>2024-08-11T08:17:17Z</time>
      </trkpt>
      <trkpt lat="44.98517" lon="6.48419">
        <ele>1526.6</ele>
        <time>2024-08-11T08:17:18Z</time>
      </trkpt>
      <trkpt lat="44.98514" lon="6.4842">
        <ele>1526.4</ele>
        <time>2024-08-11T08:17:19Z</time>
      </trkpt>
      <trkpt lat="44.98514" lon="6.4842">
        <ele>1526.2</ele>
        <time>2024-08-11T08:17:20Z</time>
      </trkpt>
      <trkpt lat="44.98511" lon="6.48422">
        <ele>1525.8</ele>
        <time>2024-08-11T08:17:21Z</time>
      </trkpt>
      <trkpt lat="44.98511" lon="6.48422">
        <ele>1525.4</ele>
        <time>2024-08-11T08:17:22Z</time>
      </trkpt>
      <trkpt lat="44.98509" lon="6.48423">
        <ele>1525.4</ele>
        <time>2024-08-11T08:17:23Z</time>
      </trkpt>
      <trkpt lat="44.98509" lon="6.48423">
        <ele>1525.4</ele>
        <time>2024-08-11T08:17:24Z</time>
      </trkpt>
      <trkpt lat="44.98506" lon="6.48424">
        <ele>1525.4</ele>
        <time>2024-08-11T08:17:25Z</time>
      </trkpt>
      <trkpt lat="44.98506" lon="6.48424">
        <ele>1525.2</ele>
        <time>2024-08-11T08:17:26Z</time>
      </trkpt>
      <trkpt lat="44.98504" lon="6.48425">
        <ele>1525.2</ele>
        <time>2024-08-11T08:17:27Z</time>
      </trkpt>
      <trkpt lat="44.98504" lon="6.48425">
        <ele>1525</ele>
        <time>2024-08-11T08:17:28Z</time>
      </trkpt>
      <trkpt lat="44.98504" lon="6.48425">
        <ele>1524.8</ele>
        <time>2024-08-11T08:17:29Z</time>
      </trkpt>
      <trkpt lat="44.985" lon="6.48425">
        <ele>1524.8</ele>
        <time>2024-08-11T08:17:30Z</time>
      </trkpt>
      <trkpt lat="44.98499" lon="6.48425">
        <ele>1524.6</ele>
        <time>2024-08-11T08:17:31Z</time>
      </trkpt>
      <trkpt lat="44.98499" lon="6.48425">
        <ele>1524.4</ele>
        <time>2024-08-11T08:17:32Z</time>
      </trkpt>
      <trkpt lat="44.98496" lon="6.48427">
        <ele>1524.4</ele>
        <time>2024-08-11T08:17:33Z</time>
      </trkpt>
      <trkpt lat="44.98496" lon="6.48427">
        <ele>1524.4</ele>
        <time>2024-08-11T08:17:34Z</time>
      </trkpt>
      <trkpt lat="44.98494" lon="6.48429">
        <ele>1524.4</ele>
        <time>2024-08-11T08:17:35Z</time>
      </trkpt>
      <trkpt lat="44.98494" lon="6.48429">
        <ele>1524.4</ele>
        <time>2024-08-11T08:17:36Z</time>
      </trkpt>
      <trkpt lat="44.98493" lon="6.48431">
        <ele>1524.2</ele>
        <time>2024-08-11T08:17:37Z</time>
      </trkpt>
      <trkpt lat="44.98493" lon="6.48431">
        <ele>1524</ele>
        <time>2024-08-11T08:17:38Z</time>
      </trkpt>
      <trkpt lat="44.9849" lon="6.48433">
        <ele>1523.8</ele>
        <time>2024-08-11T08:17:39Z</time>
      </trkpt>
      <trkpt lat="44.9849" lon="6.48433">
        <ele>1523.4</ele>
        <time>2024-08-11T08:17:40Z</time>
      </trkpt>
      <trkpt lat="44.98489" lon="6.48435">
        <ele>1523.2</ele>
        <time>2024-08-11T08:17:41Z</time>
      </trkpt>
      <trkpt lat="44.98489" lon="6.48435">
        <ele>1523.2</ele>
        <time>2024-08-11T08:17:42Z</time>
      </trkpt>
      <trkpt lat="44.98487" lon="6.48438">
        <ele>1523.2</ele>
        <time>2024-08-11T08:17:43Z</time>
      </trkpt>
      <trkpt lat="44.98487" lon="6.48438">
        <ele>1523.2</ele>
        <time>2024-08-11T08:17:44Z</time>
      </trkpt>
      <trkpt lat="44.98485" lon="6.48441">
        <ele>1523</ele>
        <time>2024-08-11T08:17:45Z</time>
      </trkpt>
      <trkpt lat="44.98483" lon="6.48443">
        <ele>1523</ele>
        <time>2024-08-11T08:17:46Z</time>
      </trkpt>
      <trkpt lat="44.98483" lon="6.48443">
        <ele>1523</ele>
        <time>2024-08-11T08:17:47Z</time>
      </trkpt>
      <trkpt lat="44.98481" lon="6.48446">
        <ele>1523</ele>
        <time>2024-08-11T08:17:48Z</time>
      </trkpt>
      <trkpt lat="44.98481" lon="6.48446">
        <ele>1523</ele>
        <time>2024-08-11T08:17:49Z</time>
      </trkpt>
      <trkpt lat="44.98479" lon="6.4845">
        <ele>1522.8</ele>
        <time>2024-08-11T08:17:50Z</time>
      </trkpt>
      <trkpt lat="44.98479" lon="6.4845">
        <ele>1522.8</ele>
        <time>2024-08-11T08:17:51Z</time>
      </trkpt>
      <trkpt lat="44.98478" lon="6.48454">
        <ele>1522.6</ele>
        <time>2024-08-11T08:17:52Z</time>
      </trkpt>
      <trkpt lat="44.98478" lon="6.48454">
        <ele>1522.6</ele>
        <time>2024-08-11T08:17:53Z</time>
      </trkpt>
      <trkpt lat="44.98478" lon="6.48458">
        <ele>1522.6</ele>
        <time>2024-08-11T08:17:54Z</time>
      </trkpt>
      <trkpt lat="44.98478" lon="6.48458">
        <ele>1522.6</ele>
        <time>2024-08-11T08:17:55Z</time>
      </trkpt>
      <trkpt lat="44.98478" lon="6.48462">
        <ele>1522.6</ele>
        <time>2024-08-11T08:17:56Z</time>
      </trkpt>
      <trkpt lat="44.98478" lon="6.48462">
        <ele>1522.6</ele>
        <time>2024-08-11T08:17:57Z</time>
      </trkpt>
      <trkpt lat="44.98477" lon="6.48466">
        <ele>1522.6</ele>
        <time>2024-08-11T08:17:58Z</time>
      </trkpt>
      <trkpt lat="44.98477" lon="6.48466">
        <ele>1522.6</ele>
        <time>2024-08-11T08:17:59Z</time>
      </trkpt>
      <trkpt lat="44.98477" lon="6.4847">
        <ele>1522.6</ele>
        <time>2024-08-11T08:18:00Z</time>
      </trkpt>
      <trkpt lat="44.98477" lon="6.4847">
        <ele>1522.4</ele>
        <time>2024-08-11T08:18:01Z</time>
      </trkpt>
      <trkpt lat="44.98476" lon="6.48474">
        <ele>1522.4</ele>
        <time>2024-08-11T08:18:02Z</time>
      </trkpt>
      <trkpt lat="44.98476" lon="6.48474">
        <ele>1522.4</ele>
        <time>2024-08-11T08:18:03Z</time>
      </trkpt>
      <trkpt lat="44.98475" lon="6.48477">
        <ele>1522.2</ele>
        <time>2024-08-11T08:18:04Z</time>
      </trkpt>
      <trkpt lat="44.98475" lon="6.48477">
        <ele>1522.2</ele>
        <time>2024-08-11T08:18:05Z</time>
      </trkpt>
      <trkpt lat="44.98473" lon="6.48481">
        <ele>1522</ele>
        <time>2024-08-11T08:18:06Z</time>
      </trkpt>
      <trkpt lat="44.98473" lon="6.48481">
        <ele>1521.8</ele>
        <time>2024-08-11T08:18:07Z</time>
      </trkpt>
      <trkpt lat="44.98471" lon="6.48485">
        <ele>1521.8</ele>
        <time>2024-08-11T08:18:08Z</time>
      </trkpt>
      <trkpt lat="44.98471" lon="6.48485">
        <ele>1522</ele>
        <time>2024-08-11T08:18:09Z</time>
      </trkpt>
      <trkpt lat="44.98471" lon="6.48485">
        <ele>1522</ele>
        <time>2024-08-11T08:18:10Z</time>
      </trkpt>
      <trkpt lat="44.98471" lon="6.48485">
        <ele>1522</ele>
        <time>2024-08-11T08:18:11Z</time>
      </trkpt>
      <trkpt lat="44.98471" lon="6.48485">
        <ele>1521.8</ele>
        <time>2024-08-11T08:18:12Z</time>
      </trkpt>
      <trkpt lat="44.98471" lon="6.48485">
        <ele>1521.8</ele>
        <time>2024-08-11T08:18:13Z</time>
      </trkpt>
      <trkpt lat="44.98471" lon="6.48485">
        <ele>1522.2</ele>
        <time>2024-08-11T08:18:14Z</time>
      </trkpt>
      <trkpt lat="44.98471" lon="6.48485">
        <ele>1522.4</ele>
        <time>2024-08-11T08:18:15Z</time>
      </trkpt>
      <trkpt lat="44.98471" lon="6.48485">
        <ele>1522.4</ele>
        <time>2024-08-11T08:18:16Z</time>
      </trkpt>
      <trkpt lat="44.98471" lon="6.48485">
        <ele>1522.2</ele>
        <time>2024-08-11T08:18:17Z</time>
      </trkpt>
      <trkpt lat="44.98471" lon="6.48485">
        <ele>1522</ele>
        <time>2024-08-11T08:18:18Z</time>
      </trkpt>
      <trkpt lat="44.98471" lon="6.48485">
        <ele>1522</ele>
        <time>2024-08-11T08:18:19Z</time>
      </trkpt>
      <trkpt lat="44.98471" lon="6.48481">
        <ele>1522</ele>
        <time>2024-08-11T08:18:20Z</time>
      </trkpt>
      <trkpt lat="44.98471" lon="6.48481">
        <ele>1522</ele>
        <time>2024-08-11T08:18:21Z</time>
      </trkpt>
      <trkpt lat="44.98473" lon="6.48477">
        <ele>1522</ele>
        <time>2024-08-11T08:18:22Z</time>
      </trkpt>
      <trkpt lat="44.98473" lon="6.48477">
        <ele>1521.8</ele>
        <time>2024-08-11T08:18:23Z</time>
      </trkpt>
      <trkpt lat="44.98475" lon="6.48474">
        <ele>1521.8</ele>
        <time>2024-08-11T08:18:24Z</time>
      </trkpt>
      <trkpt lat="44.98475" lon="6.48474">
        <ele>1522</ele>
        <time>2024-08-11T08:18:25Z</time>
      </trkpt>
      <trkpt lat="44.98475" lon="6.4847">
        <ele>1522</ele>
        <time>2024-08-11T08:18:26Z</time>
      </trkpt>
      <trkpt lat="44.98475" lon="6.4847">
        <ele>1522.2</ele>
        <time>2024-08-11T08:18:27Z</time>
      </trkpt>
      <trkpt lat="44.98475" lon="6.48467">
        <ele>1522.2</ele>
        <time>2024-08-11T08:18:28Z</time>
      </trkpt>
      <trkpt lat="44.98475" lon="6.48467">
        <ele>1521.8</ele>
        <time>2024-08-11T08:18:29Z</time>
      </trkpt>
      <trkpt lat="44.98476" lon="6.48463">
        <ele>1521.8</ele>
        <time>2024-08-11T08:18:30Z</time>
      </trkpt>
      <trkpt lat="44.98476" lon="6.48463">
        <ele>1522</ele>
        <time>2024-08-11T08:18:31Z</time>
      </trkpt>
      <trkpt lat="44.98477" lon="6.48459">
        <ele>1522.2</ele>
        <time>2024-08-11T08:18:32Z</time>
      </trkpt>
      <trkpt lat="44.98477" lon="6.48459">
        <ele>1522.2</ele>
        <time>2024-08-11T08:18:33Z</time>
      </trkpt>
      <trkpt lat="44.98477" lon="6.48456">
        <ele>1522.2</ele>
        <time>2024-08-11T08:18:34Z</time>
      </trkpt>
      <trkpt lat="44.98477" lon="6.48456">
        <ele>1522.4</ele>
        <time>2024-08-11T08:18:35Z</time>
      </trkpt>
      <trkpt lat="44.98478" lon="6.48451">
        <ele>1522.4</ele>
        <time>2024-08-11T08:18:36Z</time>
      </trkpt>
      <trkpt lat="44.98478" lon="6.48451">
        <ele>1522.4</ele>
        <time>2024-08-11T08:18:37Z</time>
      </trkpt>
      <trkpt lat="44.98479" lon="6.48448">
        <ele>1522.6</ele>
        <time>2024-08-11T08:18:38Z</time>
      </trkpt>
      <trkpt lat="44.9848" lon="6.48445">
        <ele>1522.8</ele>
        <time>2024-08-11T08:18:39Z</time>
      </trkpt>
      <trkpt lat="44.9848" lon="6.48445">
        <ele>1523</ele>
        <time>2024-08-11T08:18:40Z</time>
      </trkpt>
      <trkpt lat="44.98482" lon="6.48442">
        <ele>1523</ele>
        <time>2024-08-11T08:18:41Z</time>
      </trkpt>
      <trkpt lat="44.98482" lon="6.48442">
        <ele>1523</ele>
        <time>2024-08-11T08:18:42Z</time>
      </trkpt>
      <trkpt lat="44.98484" lon="6.48438">
        <ele>1523.4</ele>
        <time>2024-08-11T08:18:43Z</time>
      </trkpt>
      <trkpt lat="44.98484" lon="6.48438">
        <ele>1523.4</ele>
        <time>2024-08-11T08:18:44Z</time>
      </trkpt>
      <trkpt lat="44.98485" lon="6.48434">
        <ele>1523.4</ele>
        <time>2024-08-11T08:18:45Z</time>
      </trkpt>
      <trkpt lat="44.98485" lon="6.48434">
        <ele>1523.4</ele>
        <time>2024-08-11T08:18:46Z</time>
      </trkpt>
      <trkpt lat="44.98487" lon="6.48432">
        <ele>1523.4</ele>
        <time>2024-08-11T08:18:47Z</time>
      </trkpt>
      <trkpt lat="44.98487" lon="6.48432">
        <ele>1523.4</ele>
        <time>2024-08-11T08:18:48Z</time>
      </trkpt>
      <trkpt lat="44.98489" lon="6.48428">
        <ele>1523.6</ele>
        <time>2024-08-11T08:18:49Z</time>
      </trkpt>
      <trkpt lat="44.98489" lon="6.48428">
        <ele>1523.6</ele>
        <time>2024-08-11T08:18:50Z</time>
      </trkpt>
      <trkpt lat="44.98491" lon="6.48425">
        <ele>1523.6</ele>
        <time>2024-08-11T08:18:51Z</time>
      </trkpt>
      <trkpt lat="44.98491" lon="6.48425">
        <ele>1523.6</ele>
        <time>2024-08-11T08:18:52Z</time>
      </trkpt>
      <trkpt lat="44.98493" lon="6.48423">
        <ele>1523.6</ele>
        <time>2024-08-11T08:18:53Z</time>
      </trkpt>
      <trkpt lat="44.98493" lon="6.48423">
        <ele>1524.2</ele>
        <time>2024-08-11T08:18:54Z</time>
      </trkpt>
      <trkpt lat="44.98496" lon="6.48421">
        <ele>1524.2</ele>
        <time>2024-08-11T08:18:55Z</time>
      </trkpt>
      <trkpt lat="44.98496" lon="6.48421">
        <ele>1524.2</ele>
        <time>2024-08-11T08:18:56Z</time>
      </trkpt>
      <trkpt lat="44.98498" lon="6.4842">
        <ele>1524.2</ele>
        <time>2024-08-11T08:18:57Z</time>
      </trkpt>
      <trkpt lat="44.98498" lon="6.4842">
        <ele>1524.2</ele>
        <time>2024-08-11T08:18:58Z</time>
      </trkpt>
      <trkpt lat="44.98501" lon="6.48419">
        <ele>1524.6</ele>
        <time>2024-08-11T08:18:59Z</time>
      </trkpt>
      <trkpt lat="44.98501" lon="6.48419">
        <ele>1524.8</ele>
        <time>2024-08-11T08:19:00Z</time>
      </trkpt>
      <trkpt lat="44.98502" lon="6.48419">
        <ele>1524.8</ele>
        <time>2024-08-11T08:19:01Z</time>
      </trkpt>
      <trkpt lat="44.98502" lon="6.48419">
        <ele>1524.8</ele>
        <time>2024-08-11T08:19:02Z</time>
      </trkpt>
      <trkpt lat="44.98505" lon="6.48418">
        <ele>1525</ele>
        <time>2024-08-11T08:19:03Z</time>
      </trkpt>
      <trkpt lat="44.98507" lon="6.48417">
        <ele>1525</ele>
        <time>2024-08-11T08:19:04Z</time>
      </trkpt>
      <trkpt lat="44.98507" lon="6.48417">
        <ele>1525.2</ele>
        <time>2024-08-11T08:19:05Z</time>
      </trkpt>
      <trkpt lat="44.98509" lon="6.48415">
        <ele>1525.2</ele>
        <time>2024-08-11T08:19:06Z</time>
      </trkpt>
      <trkpt lat="44.98509" lon="6.48415">
        <ele>1525.4</ele>
        <time>2024-08-11T08:19:07Z</time>
      </trkpt>
      <trkpt lat="44.98511" lon="6.48413">
        <ele>1525.4</ele>
        <time>2024-08-11T08:19:08Z</time>
      </trkpt>
      <trkpt lat="44.98511" lon="6.48413">
        <ele>1525.4</ele>
        <time>2024-08-11T08:19:09Z</time>
      </trkpt>
      <trkpt lat="44.98514" lon="6.48411">
        <ele>1525.4</ele>
        <time>2024-08-11T08:19:10Z</time>
      </trkpt>
      <trkpt lat="44.98514" lon="6.48411">
        <ele>1525.6</ele>
        <time>2024-08-11T08:19:11Z</time>
      </trkpt>
      <trkpt lat="44.98517" lon="6.4841">
        <ele>1525.6</ele>
        <time>2024-08-11T08:19:12Z</time>
      </trkpt>
      <trkpt lat="44.98517" lon="6.4841">
        <ele>1525.8</ele>
        <time>2024-08-11T08:19:13Z</time>
      </trkpt>
      <trkpt lat="44.9852" lon="6.48409">
        <ele>1525.8</ele>
        <time>2024-08-11T08:19:14Z</time>
      </trkpt>
      <trkpt lat="44.98522" lon="6.48409">
        <ele>1525.8</ele>
        <time>2024-08-11T08:19:15Z</time>
      </trkpt>
      <trkpt lat="44.98522" lon="6.48409">
        <ele>1525.8</ele>
        <time>2024-08-11T08:19:16Z</time>
      </trkpt>
      <trkpt lat="44.98525" lon="6.48409">
        <ele>1525.8</ele>
        <time>2024-08-11T08:19:17Z</time>
      </trkpt>
      <trkpt lat="44.98525" lon="6.48409">
        <ele>1525.8</ele>
        <time>2024-08-11T08:19:18Z</time>
      </trkpt>
      <trkpt lat="44.98528" lon="6.48407">
        <ele>1525.8</ele>
        <time>2024-08-11T08:19:19Z</time>
      </trkpt>
      <trkpt lat="44.98528" lon="6.48407">
        <ele>1525.8</ele>
        <time>2024-08-11T08:19:20Z</time>
      </trkpt>
      <trkpt lat="44.98531" lon="6.48404">
        <ele>1525.8</ele>
        <time>2024-08-11T08:19:21Z</time>
      </trkpt>
      <trkpt lat="44.98531" lon="6.48404">
        <ele>1526</ele>
        <time>2024-08-11T08:19:22Z</time>
      </trkpt>
      <trkpt lat="44.98531" lon="6.48404">
        <ele>1526</ele>
        <time>2024-08-11T08:19:23Z</time>
      </trkpt>
      <trkpt lat="44.98535" lon="6.48402">
        <ele>1526</ele>
        <time>2024-08-11T08:19:24Z</time>
      </trkpt>
      <trkpt lat="44.98535" lon="6.48402">
        <ele>1526.2</ele>
        <time>2024-08-11T08:19:25Z</time>
      </trkpt>
      <trkpt lat="44.98537" lon="6.48401">
        <ele>1526.2</ele>
        <time>2024-08-11T08:19:26Z</time>
      </trkpt>
      <trkpt lat="44.98538" lon="6.48401">
        <ele>1526.2</ele>
        <time>2024-08-11T08:19:27Z</time>
      </trkpt>
      <trkpt lat="44.98538" lon="6.48401">
        <ele>1526.4</ele>
        <time>2024-08-11T08:19:28Z</time>
      </trkpt>
      <trkpt lat="44.9854" lon="6.484">
        <ele>1526.4</ele>
        <time>2024-08-11T08:19:29Z</time>
      </trkpt>
      <trkpt lat="44.9854" lon="6.484">
        <ele>1526.4</ele>
        <time>2024-08-11T08:19:30Z</time>
      </trkpt>
      <trkpt lat="44.98542" lon="6.48398">
        <ele>1526.4</ele>
        <time>2024-08-11T08:19:31Z</time>
      </trkpt>
      <trkpt lat="44.98542" lon="6.48398">
        <ele>1526.4</ele>
        <time>2024-08-11T08:19:32Z</time>
      </trkpt>
      <trkpt lat="44.98545" lon="6.48396">
        <ele>1526.4</ele>
        <time>2024-08-11T08:19:33Z</time>
      </trkpt>
      <trkpt lat="44.98545" lon="6.48396">
        <ele>1526.6</ele>
        <time>2024-08-11T08:19:34Z</time>
      </trkpt>
      <trkpt lat="44.98546" lon="6.48393">
        <ele>1526.6</ele>
        <time>2024-08-11T08:19:35Z</time>
      </trkpt>
      <trkpt lat="44.98546" lon="6.48393">
        <ele>1526.6</ele>
        <time>2024-08-11T08:19:36Z</time>
      </trkpt>
      <trkpt lat="44.98546" lon="6.48389">
        <ele>1526.6</ele>
        <time>2024-08-11T08:19:37Z</time>
      </trkpt>
      <trkpt lat="44.98546" lon="6.48389">
        <ele>1526.6</ele>
        <time>2024-08-11T08:19:38Z</time>
      </trkpt>
      <trkpt lat="44.98548" lon="6.48386">
        <ele>1526.6</ele>
        <time>2024-08-11T08:19:39Z</time>
      </trkpt>
      <trkpt lat="44.98548" lon="6.48386">
        <ele>1526.6</ele>
        <time>2024-08-11T08:19:40Z</time>
      </trkpt>
      <trkpt lat="44.9855" lon="6.48383">
        <ele>1526.8</ele>
        <time>2024-08-11T08:19:41Z</time>
      </trkpt>
      <trkpt lat="44.9855" lon="6.48383">
        <ele>1526.8</ele>
        <time>2024-08-11T08:19:42Z</time>
      </trkpt>
      <trkpt lat="44.98552" lon="6.4838">
        <ele>1526.8</ele>
        <time>2024-08-11T08:19:43Z</time>
      </trkpt>
      <trkpt lat="44.98552" lon="6.4838">
        <ele>1526.8</ele>
        <time>2024-08-11T08:19:44Z</time>
      </trkpt>
      <trkpt lat="44.98554" lon="6.48376">
        <ele>1526.4</ele>
        <time>2024-08-11T08:19:45Z</time>
      </trkpt>
      <trkpt lat="44.98554" lon="6.48376">
        <ele>1526.4</ele>
        <time>2024-08-11T08:19:46Z</time>
      </trkpt>
      <trkpt lat="44.98554" lon="6.48376">
        <ele>1526.6</ele>
        <time>2024-08-11T08:19:47Z</time>
      </trkpt>
      <trkpt lat="44.98556" lon="6.48373">
        <ele>1526.6</ele>
        <time>2024-08-11T08:19:48Z</time>
      </trkpt>
      <trkpt lat="44.98556" lon="6.48373">
        <ele>1526.6</ele>
        <time>2024-08-11T08:19:49Z</time>
      </trkpt>
      <trkpt lat="44.98558" lon="6.4837">
        <ele>1526.8</ele>
        <time>2024-08-11T08:19:50Z</time>
      </trkpt>
      <trkpt lat="44.98558" lon="6.4837">
        <ele>1526.8</ele>
        <time>2024-08-11T08:19:51Z</time>
      </trkpt>
      <trkpt lat="44.98558" lon="6.48367">
        <ele>1526.8</ele>
        <time>2024-08-11T08:19:52Z</time>
      </trkpt>
      <trkpt lat="44.98558" lon="6.48367">
        <ele>1526.8</ele>
        <time>2024-08-11T08:19:53Z</time>
      </trkpt>
      <trkpt lat="44.9856" lon="6.48364">
        <ele>1526.8</ele>
        <time>2024-08-11T08:19:54Z</time>
      </trkpt>
      <trkpt lat="44.9856" lon="6.48364">
        <ele>1526.8</ele>
        <time>2024-08-11T08:19:55Z</time>
      </trkpt>
      <trkpt lat="44.98562" lon="6.48361">
        <ele>1526.8</ele>
        <time>2024-08-11T08:19:56Z</time>
      </trkpt>
      <trkpt lat="44.98562" lon="6.48361">
        <ele>1526.8</ele>
        <time>2024-08-11T08:19:57Z</time>
      </trkpt>
      <trkpt lat="44.98564" lon="6.48357">
        <ele>1526.8</ele>
        <time>2024-08-11T08:19:58Z</time>
      </trkpt>
      <trkpt lat="44.98564" lon="6.48357">
        <ele>1526.8</ele>
        <time>2024-08-11T08:19:59Z</time>
      </trkpt>
      <trkpt lat="44.98565" lon="6.48354">
        <ele>1526.8</ele>
        <time>2024-08-11T08:20:00Z</time>
      </trkpt>
      <trkpt lat="44.98565" lon="6.48354">
        <ele>1526.8</ele>
        <time>2024-08-11T08:20:01Z</time>
      </trkpt>
      <trkpt lat="44.98566" lon="6.4835">
        <ele>1526.8</ele>
        <time>2024-08-11T08:20:02Z</time>
      </trkpt>
      <trkpt lat="44.98566" lon="6.4835">
        <ele>1527</ele>
        <time>2024-08-11T08:20:03Z</time>
      </trkpt>
      <trkpt lat="44.98568" lon="6.48347">
        <ele>1527</ele>
        <time>2024-08-11T08:20:04Z</time>
      </trkpt>
      <trkpt lat="44.98568" lon="6.48347">
        <ele>1527</ele>
        <time>2024-08-11T08:20:05Z</time>
      </trkpt>
      <trkpt lat="44.9857" lon="6.48344">
        <ele>1527</ele>
        <time>2024-08-11T08:20:06Z</time>
      </trkpt>
      <trkpt lat="44.9857" lon="6.48344">
        <ele>1527</ele>
        <time>2024-08-11T08:20:07Z</time>
      </trkpt>
      <trkpt lat="44.98572" lon="6.4834">
        <ele>1527</ele>
        <time>2024-08-11T08:20:08Z</time>
      </trkpt>
      <trkpt lat="44.98572" lon="6.4834">
        <ele>1527</ele>
        <time>2024-08-11T08:20:09Z</time>
      </trkpt>
      <trkpt lat="44.98574" lon="6.48337">
        <ele>1527.2</ele>
        <time>2024-08-11T08:20:10Z</time>
      </trkpt>
      <trkpt lat="44.98574" lon="6.48337">
        <ele>1527.4</ele>
        <time>2024-08-11T08:20:11Z</time>
      </trkpt>
      <trkpt lat="44.98576" lon="6.48334">
        <ele>1527.4</ele>
        <time>2024-08-11T08:20:12Z</time>
      </trkpt>
      <trkpt lat="44.98576" lon="6.48334">
        <ele>1527.2</ele>
        <time>2024-08-11T08:20:13Z</time>
      </trkpt>
      <trkpt lat="44.98578" lon="6.48332">
        <ele>1527.2</ele>
        <time>2024-08-11T08:20:14Z</time>
      </trkpt>
      <trkpt lat="44.98578" lon="6.48332">
        <ele>1527.2</ele>
        <time>2024-08-11T08:20:15Z</time>
      </trkpt>
      <trkpt lat="44.9858" lon="6.48329">
        <ele>1527.2</ele>
        <time>2024-08-11T08:20:16Z</time>
      </trkpt>
      <trkpt lat="44.9858" lon="6.48329">
        <ele>1527.2</ele>
        <time>2024-08-11T08:20:17Z</time>
      </trkpt>
      <trkpt lat="44.98583" lon="6.48327">
        <ele>1527.4</ele>
        <time>2024-08-11T08:20:18Z</time>
      </trkpt>
      <trkpt lat="44.98583" lon="6.48327">
        <ele>1527.4</ele>
        <time>2024-08-11T08:20:19Z</time>
      </trkpt>
      <trkpt lat="44.98586" lon="6.48326">
        <ele>1527.6</ele>
        <time>2024-08-11T08:20:20Z</time>
      </trkpt>
      <trkpt lat="44.98588" lon="6.48325">
        <ele>1527.6</ele>
        <time>2024-08-11T08:20:21Z</time>
      </trkpt>
      <trkpt lat="44.98588" lon="6.48325">
        <ele>1527.6</ele>
        <time>2024-08-11T08:20:22Z</time>
      </trkpt>
      <trkpt lat="44.98589" lon="6.48323">
        <ele>1527.4</ele>
        <time>2024-08-11T08:20:23Z</time>
      </trkpt>
      <trkpt lat="44.98589" lon="6.48323">
        <ele>1527.6</ele>
        <time>2024-08-11T08:20:24Z</time>
      </trkpt>
      <trkpt lat="44.98592" lon="6.4832">
        <ele>1527.6</ele>
        <time>2024-08-11T08:20:25Z</time>
      </trkpt>
      <trkpt lat="44.98592" lon="6.4832">
        <ele>1527.2</ele>
        <time>2024-08-11T08:20:26Z</time>
      </trkpt>
      <trkpt lat="44.98594" lon="6.48319">
        <ele>1527.2</ele>
        <time>2024-08-11T08:20:27Z</time>
      </trkpt>
      <trkpt lat="44.98594" lon="6.48319">
        <ele>1527.2</ele>
        <time>2024-08-11T08:20:28Z</time>
      </trkpt>
      <trkpt lat="44.98596" lon="6.48317">
        <ele>1527.2</ele>
        <time>2024-08-11T08:20:29Z</time>
      </trkpt>
      <trkpt lat="44.98596" lon="6.48317">
        <ele>1527.2</ele>
        <time>2024-08-11T08:20:30Z</time>
      </trkpt>
      <trkpt lat="44.98598" lon="6.48315">
        <ele>1527.2</ele>
        <time>2024-08-11T08:20:31Z</time>
      </trkpt>
      <trkpt lat="44.98598" lon="6.48315">
        <ele>1527.4</ele>
        <time>2024-08-11T08:20:32Z</time>
      </trkpt>
      <trkpt lat="44.98601" lon="6.48315">
        <ele>1527.4</ele>
        <time>2024-08-11T08:20:33Z</time>
      </trkpt>
      <trkpt lat="44.98601" lon="6.48315">
        <ele>1527.4</ele>
        <time>2024-08-11T08:20:34Z</time>
      </trkpt>
      <trkpt lat="44.98601" lon="6.48315">
        <ele>1527.4</ele>
        <time>2024-08-11T08:20:35Z</time>
      </trkpt>
      <trkpt lat="44.98605" lon="6.48315">
        <ele>1527.6</ele>
        <time>2024-08-11T08:20:36Z</time>
      </trkpt>
      <trkpt lat="44.98606" lon="6.48315">
        <ele>1527.8</ele>
        <time>2024-08-11T08:20:37Z</time>
      </trkpt>
      <trkpt lat="44.98606" lon="6.48315">
        <ele>1528.2</ele>
        <time>2024-08-11T08:20:38Z</time>
      </trkpt>
      <trkpt lat="44.98609" lon="6.48315">
        <ele>1528.2</ele>
        <time>2024-08-11T08:20:39Z</time>
      </trkpt>
      <trkpt lat="44.98609" lon="6.48315">
        <ele>1528.2</ele>
        <time>2024-08-11T08:20:40Z</time>
      </trkpt>
      <trkpt lat="44.98612" lon="6.48315">
        <ele>1528.2</ele>
        <time>2024-08-11T08:20:41Z</time>
      </trkpt>
      <trkpt lat="44.98612" lon="6.48315">
        <ele>1528.2</ele>
        <time>2024-08-11T08:20:42Z</time>
      </trkpt>
      <trkpt lat="44.98614" lon="6.48317">
        <ele>1528.2</ele>
        <time>2024-08-11T08:20:43Z</time>
      </trkpt>
      <trkpt lat="44.98614" lon="6.48317">
        <ele>1528.4</ele>
        <time>2024-08-11T08:20:44Z</time>
      </trkpt>
      <trkpt lat="44.98617" lon="6.48317">
        <ele>1528.4</ele>
        <time>2024-08-11T08:20:45Z</time>
      </trkpt>
      <trkpt lat="44.98617" lon="6.48317">
        <ele>1528.4</ele>
        <time>2024-08-11T08:20:46Z</time>
      </trkpt>
      <trkpt lat="44.9862" lon="6.48317">
        <ele>1528.4</ele>
        <time>2024-08-11T08:20:47Z</time>
      </trkpt>
      <trkpt lat="44.9862" lon="6.48317">
        <ele>1528.6</ele>
        <time>2024-08-11T08:20:48Z</time>
      </trkpt>
      <trkpt lat="44.98622" lon="6.48318">
        <ele>1528.6</ele>
        <time>2024-08-11T08:20:49Z</time>
      </trkpt>
      <trkpt lat="44.98622" lon="6.48318">
        <ele>1528.8</ele>
        <time>2024-08-11T08:20:50Z</time>
      </trkpt>
      <trkpt lat="44.98623" lon="6.4832">
        <ele>1529</ele>
        <time>2024-08-11T08:20:51Z</time>
      </trkpt>
      <trkpt lat="44.98623" lon="6.4832">
        <ele>1529.2</ele>
        <time>2024-08-11T08:20:52Z</time>
      </trkpt>
      <trkpt lat="44.98623" lon="6.4832">
        <ele>1529.6</ele>
        <time>2024-08-11T08:20:53Z</time>
      </trkpt>
      <trkpt lat="44.98623" lon="6.4832">
        <ele>1529.6</ele>
        <time>2024-08-11T08:20:54Z</time>
      </trkpt>
      <trkpt lat="44.98623" lon="6.4832">
        <ele>1529.6</ele>
        <time>2024-08-11T08:20:55Z</time>
      </trkpt>
      <trkpt lat="44.98625" lon="6.48316">
        <ele>1529.4</ele>
        <time>2024-08-11T08:20:56Z</time>
      </trkpt>
      <trkpt lat="44.98625" lon="6.48316">
        <ele>1529.4</ele>
        <time>2024-08-11T08:20:57Z</time>
      </trkpt>
      <trkpt lat="44.98628" lon="6.48312">
        <ele>1529.4</ele>
        <time>2024-08-11T08:20:58Z</time>
      </trkpt>
      <trkpt lat="44.98628" lon="6.48312">
        <ele>1529.4</ele>
        <time>2024-08-11T08:20:59Z</time>
      </trkpt>
      <trkpt lat="44.9863" lon="6.48309">
        <ele>1529.4</ele>
        <time>2024-08-11T08:21:00Z</time>
      </trkpt>
      <trkpt lat="44.9863" lon="6.48309">
        <ele>1529.4</ele>
        <time>2024-08-11T08:21:01Z</time>
      </trkpt>
      <trkpt lat="44.9863" lon="6.48309">
        <ele>1529.2</ele>
        <time>2024-08-11T08:21:02Z</time>
      </trkpt>
      <trkpt lat="44.98634" lon="6.48305">
        <ele>1529.2</ele>
        <time>2024-08-11T08:21:03Z</time>
      </trkpt>
      <trkpt lat="44.98636" lon="6.48304">
        <ele>1529.2</ele>
        <time>2024-08-11T08:21:04Z</time>
      </trkpt>
      <trkpt lat="44.98636" lon="6.48304">
        <ele>1529.2</ele>
        <time>2024-08-11T08:21:05Z</time>
      </trkpt>
      <trkpt lat="44.98638" lon="6.48302">
        <ele>1529.2</ele>
        <time>2024-08-11T08:21:06Z</time>
      </trkpt>
      <trkpt lat="44.98638" lon="6.48302">
        <ele>1529.2</ele>
        <time>2024-08-11T08:21:07Z</time>
      </trkpt>
      <trkpt lat="44.9864" lon="6.483">
        <ele>1529.2</ele>
        <time>2024-08-11T08:21:08Z</time>
      </trkpt>
      <trkpt lat="44.9864" lon="6.483">
        <ele>1529.2</ele>
        <time>2024-08-11T08:21:09Z</time>
      </trkpt>
      <trkpt lat="44.98641" lon="6.48296">
        <ele>1529.2</ele>
        <time>2024-08-11T08:21:10Z</time>
      </trkpt>
      <trkpt lat="44.98641" lon="6.48296">
        <ele>1529.2</ele>
        <time>2024-08-11T08:21:11Z</time>
      </trkpt>
      <trkpt lat="44.98642" lon="6.48292">
        <ele>1529.2</ele>
        <time>2024-08-11T08:21:12Z</time>
      </trkpt>
      <trkpt lat="44.98642" lon="6.48292">
        <ele>1529.2</ele>
        <time>2024-08-11T08:21:13Z</time>
      </trkpt>
      <trkpt lat="44.98642" lon="6.48292">
        <ele>1529.2</ele>
        <time>2024-08-11T08:21:14Z</time>
      </trkpt>
      <trkpt lat="44.98644" lon="6.48286">
        <ele>1529</ele>
        <time>2024-08-11T08:21:15Z</time>
      </trkpt>
      <trkpt lat="44.98644" lon="6.48284">
        <ele>1529</ele>
        <time>2024-08-11T08:21:16Z</time>
      </trkpt>
      <trkpt lat="44.98644" lon="6.48284">
        <ele>1529</ele>
        <time>2024-08-11T08:21:17Z</time>
      </trkpt>
      <trkpt lat="44.98645" lon="6.48281">
        <ele>1529.2</ele>
        <time>2024-08-11T08:21:18Z</time>
      </trkpt>
      <trkpt lat="44.98645" lon="6.48281">
        <ele>1529</ele>
        <time>2024-08-11T08:21:19Z</time>
      </trkpt>
      <trkpt lat="44.98645" lon="6.48276">
        <ele>1529</ele>
        <time>2024-08-11T08:21:20Z</time>
      </trkpt>
      <trkpt lat="44.98645" lon="6.48276">
        <ele>1528.6</ele>
        <time>2024-08-11T08:21:21Z</time>
      </trkpt>
      <trkpt lat="44.98647" lon="6.48273">
        <ele>1528.6</ele>
        <time>2024-08-11T08:21:22Z</time>
      </trkpt>
      <trkpt lat="44.98647" lon="6.48273">
        <ele>1528.6</ele>
        <time>2024-08-11T08:21:23Z</time>
      </trkpt>
      <trkpt lat="44.98649" lon="6.4827">
        <ele>1528.6</ele>
        <time>2024-08-11T08:21:24Z</time>
      </trkpt>
      <trkpt lat="44.98649" lon="6.4827">
        <ele>1528.6</ele>
        <time>2024-08-11T08:21:25Z</time>
      </trkpt>
      <trkpt lat="44.98649" lon="6.48266">
        <ele>1528.8</ele>
        <time>2024-08-11T08:21:26Z</time>
      </trkpt>
      <trkpt lat="44.98649" lon="6.48266">
        <ele>1528.8</ele>
        <time>2024-08-11T08:21:27Z</time>
      </trkpt>
      <trkpt lat="44.9865" lon="6.48262">
        <ele>1528.8</ele>
        <time>2024-08-11T08:21:28Z</time>
      </trkpt>
      <trkpt lat="44.9865" lon="6.48262">
        <ele>1528.8</ele>
        <time>2024-08-11T08:21:29Z</time>
      </trkpt>
      <trkpt lat="44.98648" lon="6.4826">
        <ele>1528.8</ele>
        <time>2024-08-11T08:21:30Z</time>
      </trkpt>
      <trkpt lat="44.98648" lon="6.4826">
        <ele>1528.8</ele>
        <time>2024-08-11T08:21:31Z</time>
      </trkpt>
      <trkpt lat="44.98646" lon="6.48258">
        <ele>1529</ele>
        <time>2024-08-11T08:21:32Z</time>
      </trkpt>
      <trkpt lat="44.98646" lon="6.48258">
        <ele>1529</ele>
        <time>2024-08-11T08:21:33Z</time>
      </trkpt>
      <trkpt lat="44.98644" lon="6.48257">
        <ele>1529</ele>
        <time>2024-08-11T08:21:34Z</time>
      </trkpt>
      <trkpt lat="44.98644" lon="6.48257">
        <ele>1528.8</ele>
        <time>2024-08-11T08:21:35Z</time>
      </trkpt>
      <trkpt lat="44.98642" lon="6.48256">
        <ele>1528.6</ele>
        <time>2024-08-11T08:21:36Z</time>
      </trkpt>
      <trkpt lat="44.98642" lon="6.48256">
        <ele>1528.6</ele>
        <time>2024-08-11T08:21:37Z</time>
      </trkpt>
      <trkpt lat="44.98639" lon="6.48256">
        <ele>1528.8</ele>
        <time>2024-08-11T08:21:38Z</time>
      </trkpt>
      <trkpt lat="44.98639" lon="6.48256">
        <ele>1529</ele>
        <time>2024-08-11T08:21:39Z</time>
      </trkpt>
      <trkpt lat="44.98637" lon="6.48257">
        <ele>1529</ele>
        <time>2024-08-11T08:21:40Z</time>
      </trkpt>
      <trkpt lat="44.98637" lon="6.48257">
        <ele>1529</ele>
        <time>2024-08-11T08:21:41Z</time>
      </trkpt>
      <trkpt lat="44.98634" lon="6.48259">
        <ele>1528.8</ele>
        <time>2024-08-11T08:21:42Z</time>
      </trkpt>
      <trkpt lat="44.98634" lon="6.48259">
        <ele>1528.8</ele>
        <time>2024-08-11T08:21:43Z</time>
      </trkpt>
      <trkpt lat="44.98632" lon="6.48262">
        <ele>1528.8</ele>
        <time>2024-08-11T08:21:44Z</time>
      </trkpt>
      <trkpt lat="44.98632" lon="6.48262">
        <ele>1528.6</ele>
        <time>2024-08-11T08:21:45Z</time>
      </trkpt>
      <trkpt lat="44.9863" lon="6.48264">
        <ele>1528.6</ele>
        <time>2024-08-11T08:21:46Z</time>
      </trkpt>
      <trkpt lat="44.9863" lon="6.48264">
        <ele>1528.4</ele>
        <time>2024-08-11T08:21:47Z</time>
      </trkpt>
      <trkpt lat="44.9863" lon="6.48264">
        <ele>1528.4</ele>
        <time>2024-08-11T08:21:48Z</time>
      </trkpt>
      <trkpt lat="44.98627" lon="6.48267">
        <ele>1528.2</ele>
        <time>2024-08-11T08:21:49Z</time>
      </trkpt>
      <trkpt lat="44.98625" lon="6.48268">
        <ele>1528</ele>
        <time>2024-08-11T08:21:50Z</time>
      </trkpt>
      <trkpt lat="44.98623" lon="6.48268">
        <ele>1527.8</ele>
        <time>2024-08-11T08:21:51Z</time>
      </trkpt>
      <trkpt lat="44.98621" lon="6.48269">
        <ele>1527.8</ele>
        <time>2024-08-11T08:21:52Z</time>
      </trkpt>
      <trkpt lat="44.98621" lon="6.48269">
        <ele>1527.8</ele>
        <time>2024-08-11T08:21:53Z</time>
      </trkpt>
      <trkpt lat="44.98619" lon="6.4827">
        <ele>1527.8</ele>
        <time>2024-08-11T08:21:54Z</time>
      </trkpt>
      <trkpt lat="44.98619" lon="6.4827">
        <ele>1528</ele>
        <time>2024-08-11T08:21:55Z</time>
      </trkpt>
      <trkpt lat="44.98617" lon="6.48272">
        <ele>1528</ele>
        <time>2024-08-11T08:21:56Z</time>
      </trkpt>
      <trkpt lat="44.98616" lon="6.48273">
        <ele>1527.8</ele>
        <time>2024-08-11T08:21:57Z</time>
      </trkpt>
      <trkpt lat="44.98614" lon="6.48275">
        <ele>1527.6</ele>
        <time>2024-08-11T08:21:58Z</time>
      </trkpt>
      <trkpt lat="44.98613" lon="6.48276">
        <ele>1527.6</ele>
        <time>2024-08-11T08:21:59Z</time>
      </trkpt>
      <trkpt lat="44.98613" lon="6.48276">
        <ele>1527.6</ele>
        <time>2024-08-11T08:22:00Z</time>
      </trkpt>
      <trkpt lat="44.98609" lon="6.48278">
        <ele>1527.6</ele>
        <time>2024-08-11T08:22:01Z</time>
      </trkpt>
      <trkpt lat="44.98609" lon="6.48278">
        <ele>1527.6</ele>
        <time>2024-08-11T08:22:02Z</time>
      </trkpt>
      <trkpt lat="44.98606" lon="6.4828">
        <ele>1527.6</ele>
        <time>2024-08-11T08:22:03Z</time>
      </trkpt>
      <trkpt lat="44.98606" lon="6.4828">
        <ele>1527.6</ele>
        <time>2024-08-11T08:22:04Z</time>
      </trkpt>
      <trkpt lat="44.98604" lon="6.48281">
        <ele>1527.6</ele>
        <time>2024-08-11T08:22:05Z</time>
      </trkpt>
      <trkpt lat="44.98604" lon="6.48281">
        <ele>1527.6</ele>
        <time>2024-08-11T08:22:06Z</time>
      </trkpt>
      <trkpt lat="44.98601" lon="6.48283">
        <ele>1527.6</ele>
        <time>2024-08-11T08:22:07Z</time>
      </trkpt>
      <trkpt lat="44.98601" lon="6.48283">
        <ele>1527.2</ele>
        <time>2024-08-11T08:22:08Z</time>
      </trkpt>
      <trkpt lat="44.98599" lon="6.48284">
        <ele>1527.2</ele>
        <time>2024-08-11T08:22:09Z</time>
      </trkpt>
      <trkpt lat="44.98599" lon="6.48284">
        <ele>1527.2</ele>
        <time>2024-08-11T08:22:10Z</time>
      </trkpt>
      <trkpt lat="44.98596" lon="6.48285">
        <ele>1527.4</ele>
        <time>2024-08-11T08:22:11Z</time>
      </trkpt>
      <trkpt lat="44.98596" lon="6.48285">
        <ele>1527.6</ele>
        <time>2024-08-11T08:22:12Z</time>
      </trkpt>
      <trkpt lat="44.98594" lon="6.48285">
        <ele>1527.6</ele>
        <time>2024-08-11T08:22:13Z</time>
      </trkpt>
      <trkpt lat="44.98592" lon="6.48285">
        <ele>1527.8</ele>
        <time>2024-08-11T08:22:14Z</time>
      </trkpt>
      <trkpt lat="44.9859" lon="6.48285">
        <ele>1527.8</ele>
        <time>2024-08-11T08:22:15Z</time>
      </trkpt>
      <trkpt lat="44.98588" lon="6.48284">
        <ele>1528</ele>
        <time>2024-08-11T08:22:16Z</time>
      </trkpt>
      <trkpt lat="44.98588" lon="6.48284">
        <ele>1528.2</ele>
        <time>2024-08-11T08:22:17Z</time>
      </trkpt>
      <trkpt lat="44.98586" lon="6.48283">
        <ele>1528.4</ele>
        <time>2024-08-11T08:22:18Z</time>
      </trkpt>
      <trkpt lat="44.98586" lon="6.48283">
        <ele>1528.6</ele>
        <time>2024-08-11T08:22:19Z</time>
      </trkpt>
      <trkpt lat="44.98586" lon="6.48283">
        <ele>1528.8</ele>
        <time>2024-08-11T08:22:20Z</time>
      </trkpt>
      <trkpt lat="44.98583" lon="6.48283">
        <ele>1528.8</ele>
        <time>2024-08-11T08:22:21Z</time>
      </trkpt>
      <trkpt lat="44.98583" lon="6.48283">
        <ele>1528.8</ele>
        <time>2024-08-11T08:22:22Z</time>
      </trkpt>
      <trkpt lat="44.98583" lon="6.48283">
        <ele>1528.6</ele>
        <time>2024-08-11T08:22:23Z</time>
      </trkpt>
      <trkpt lat="44.9858" lon="6.48282">
        <ele>1528.6</ele>
        <time>2024-08-11T08:22:24Z</time>
      </trkpt>
      <trkpt lat="44.9858" lon="6.48282">
        <ele>1528.6</ele>
        <time>2024-08-11T08:22:25Z</time>
      </trkpt>
      <trkpt lat="44.9858" lon="6.48282">
        <ele>1528.6</ele>
        <time>2024-08-11T08:22:26Z</time>
      </trkpt>
      <trkpt lat="44.98576" lon="6.48282">
        <ele>1528.6</ele>
        <time>2024-08-11T08:22:27Z</time>
      </trkpt>
      <trkpt lat="44.98575" lon="6.48282">
        <ele>1528.6</ele>
        <time>2024-08-11T08:22:28Z</time>
      </trkpt>
      <trkpt lat="44.98575" lon="6.48282">
        <ele>1528.6</ele>
        <time>2024-08-11T08:22:29Z</time>
      </trkpt>
      <trkpt lat="44.98573" lon="6.48283">
        <ele>1528.4</ele>
        <time>2024-08-11T08:22:30Z</time>
      </trkpt>
      <trkpt lat="44.98573" lon="6.48283">
        <ele>1528.4</ele>
        <time>2024-08-11T08:22:31Z</time>
      </trkpt>
      <trkpt lat="44.9857" lon="6.48284">
        <ele>1528.6</ele>
        <time>2024-08-11T08:22:32Z</time>
      </trkpt>
      <trkpt lat="44.9857" lon="6.48284">
        <ele>1528.6</ele>
        <time>2024-08-11T08:22:33Z</time>
      </trkpt>
      <trkpt lat="44.98568" lon="6.48284">
        <ele>1528.8</ele>
        <time>2024-08-11T08:22:34Z</time>
      </trkpt>
      <trkpt lat="44.98568" lon="6.48284">
        <ele>1528.8</ele>
        <time>2024-08-11T08:22:35Z</time>
      </trkpt>
      <trkpt lat="44.98567" lon="6.48285">
        <ele>1529</ele>
        <time>2024-08-11T08:22:36Z</time>
      </trkpt>
      <trkpt lat="44.98567" lon="6.48285">
        <ele>1529</ele>
        <time>2024-08-11T08:22:37Z</time>
      </trkpt>
      <trkpt lat="44.98564" lon="6.48286">
        <ele>1529.2</ele>
        <time>2024-08-11T08:22:38Z</time>
      </trkpt>
      <trkpt lat="44.98564" lon="6.48286">
        <ele>1529.4</ele>
        <time>2024-08-11T08:22:39Z</time>
      </trkpt>
      <trkpt lat="44.98562" lon="6.48288">
        <ele>1529.4</ele>
        <time>2024-08-11T08:22:40Z</time>
      </trkpt>
      <trkpt lat="44.9856" lon="6.48288">
        <ele>1529.6</ele>
        <time>2024-08-11T08:22:41Z</time>
      </trkpt>
      <trkpt lat="44.9856" lon="6.48288">
        <ele>1529.8</ele>
        <time>2024-08-11T08:22:42Z</time>
      </trkpt>
      <trkpt lat="44.98557" lon="6.4829">
        <ele>1529.8</ele>
        <time>2024-08-11T08:22:43Z</time>
      </trkpt>
      <trkpt lat="44.98556" lon="6.4829">
        <ele>1529.8</ele>
        <time>2024-08-11T08:22:44Z</time>
      </trkpt>
      <trkpt lat="44.98556" lon="6.4829">
        <ele>1529.8</ele>
        <time>2024-08-11T08:22:45Z</time>
      </trkpt>
      <trkpt lat="44.98553" lon="6.48291">
        <ele>1529.6</ele>
        <time>2024-08-11T08:22:46Z</time>
      </trkpt>
      <trkpt lat="44.98553" lon="6.48291">
        <ele>1529.6</ele>
        <time>2024-08-11T08:22:47Z</time>
      </trkpt>
      <trkpt lat="44.9855" lon="6.48293">
        <ele>1529.6</ele>
        <time>2024-08-11T08:22:48Z</time>
      </trkpt>
      <trkpt lat="44.9855" lon="6.48293">
        <ele>1529.6</ele>
        <time>2024-08-11T08:22:49Z</time>
      </trkpt>
      <trkpt lat="44.98548" lon="6.48295">
        <ele>1529.6</ele>
        <time>2024-08-11T08:22:50Z</time>
      </trkpt>
      <trkpt lat="44.98548" lon="6.48295">
        <ele>1529.6</ele>
        <time>2024-08-11T08:22:51Z</time>
      </trkpt>
      <trkpt lat="44.98545" lon="6.48295">
        <ele>1529.6</ele>
        <time>2024-08-11T08:22:52Z</time>
      </trkpt>
      <trkpt lat="44.98545" lon="6.48295">
        <ele>1529.6</ele>
        <time>2024-08-11T08:22:53Z</time>
      </trkpt>
      <trkpt lat="44.98545" lon="6.48295">
        <ele>1529.6</ele>
        <time>2024-08-11T08:22:54Z</time>
      </trkpt>
      <trkpt lat="44.98542" lon="6.48296">
        <ele>1530</ele>
        <time>2024-08-11T08:22:55Z</time>
      </trkpt>
      <trkpt lat="44.98542" lon="6.48296">
        <ele>1530</ele>
        <time>2024-08-11T08:22:56Z</time>
      </trkpt>
      <trkpt lat="44.9854" lon="6.48296">
        <ele>1530</ele>
        <time>2024-08-11T08:22:57Z</time>
      </trkpt>
      <trkpt lat="44.9854" lon="6.48296">
        <ele>1530</ele>
        <time>2024-08-11T08:22:58Z</time>
      </trkpt>
      <trkpt lat="44.98537" lon="6.48297">
        <ele>1529.8</ele>
        <time>2024-08-11T08:22:59Z</time>
      </trkpt>
      <trkpt lat="44.98537" lon="6.48297">
        <ele>1529.8</ele>
        <time>2024-08-11T08:23:00Z</time>
      </trkpt>
      <trkpt lat="44.98535" lon="6.48297">
        <ele>1529.8</ele>
        <time>2024-08-11T08:23:01Z</time>
      </trkpt>
      <trkpt lat="44.98535" lon="6.48297">
        <ele>1529.8</ele>
        <time>2024-08-11T08:23:02Z</time>
      </trkpt>
      <trkpt lat="44.98533" lon="6.48299">
        <ele>1529.8</ele>
        <time>2024-08-11T08:23:03Z</time>
      </trkpt>
      <trkpt lat="44.98533" lon="6.48299">
        <ele>1529.8</ele>
        <time>2024-08-11T08:23:04Z</time>
      </trkpt>
      <trkpt lat="44.98531" lon="6.48301">
        <ele>1530</ele>
        <time>2024-08-11T08:23:05Z</time>
      </trkpt>
      <trkpt lat="44.98531" lon="6.48301">
        <ele>1530</ele>
        <time>2024-08-11T08:23:06Z</time>
      </trkpt>
      <trkpt lat="44.98529" lon="6.48303">
        <ele>1529.8</ele>
        <time>2024-08-11T08:23:07Z</time>
      </trkpt>
      <trkpt lat="44.98529" lon="6.48303">
        <ele>1529.8</ele>
        <time>2024-08-11T08:23:08Z</time>
      </trkpt>
      <trkpt lat="44.98526" lon="6.48304">
        <ele>1529.6</ele>
        <time>2024-08-11T08:23:09Z</time>
      </trkpt>
      <trkpt lat="44.98526" lon="6.48304">
        <ele>1529.6</ele>
        <time>2024-08-11T08:23:10Z</time>
      </trkpt>
      <trkpt lat="44.98526" lon="6.48304">
        <ele>1529.6</ele>
        <time>2024-08-11T08:23:11Z</time>
      </trkpt>
      <trkpt lat="44.98524" lon="6.48305">
        <ele>1529.8</ele>
        <time>2024-08-11T08:23:12Z</time>
      </trkpt>
      <trkpt lat="44.98524" lon="6.48305">
        <ele>1529.8</ele>
        <time>2024-08-11T08:23:13Z</time>
      </trkpt>
      <trkpt lat="44.98522" lon="6.48307">
        <ele>1529.8</ele>
        <time>2024-08-11T08:23:14Z</time>
      </trkpt>
      <trkpt lat="44.98522" lon="6.48307">
        <ele>1529.8</ele>
        <time>2024-08-11T08:23:15Z</time>
      </trkpt>
      <trkpt lat="44.98519" lon="6.48309">
        <ele>1530</ele>
        <time>2024-08-11T08:23:16Z</time>
      </trkpt>
      <trkpt lat="44.98519" lon="6.48309">
        <ele>1530</ele>
        <time>2024-08-11T08:23:17Z</time>
      </trkpt>
      <trkpt lat="44.98517" lon="6.48312">
        <ele>1529.8</ele>
        <time>2024-08-11T08:23:18Z</time>
      </trkpt>
      <trkpt lat="44.98515" lon="6.48313">
        <ele>1529.8</ele>
        <time>2024-08-11T08:23:19Z</time>
      </trkpt>
      <trkpt lat="44.98513" lon="6.48315">
        <ele>1529.8</ele>
        <time>2024-08-11T08:23:20Z</time>
      </trkpt>
      <trkpt lat="44.98511" lon="6.48317">
        <ele>1529.8</ele>
        <time>2024-08-11T08:23:21Z</time>
      </trkpt>
      <trkpt lat="44.98509" lon="6.48318">
        <ele>1529.8</ele>
        <time>2024-08-11T08:23:22Z</time>
      </trkpt>
      <trkpt lat="44.98508" lon="6.4832">
        <ele>1529.6</ele>
        <time>2024-08-11T08:23:23Z</time>
      </trkpt>
      <trkpt lat="44.98507" lon="6.48322">
        <ele>1529.6</ele>
        <time>2024-08-11T08:23:24Z</time>
      </trkpt>
      <trkpt lat="44.98505" lon="6.48324">
        <ele>1529.6</ele>
        <time>2024-08-11T08:23:25Z</time>
      </trkpt>
      <trkpt lat="44.98505" lon="6.48324">
        <ele>1529.6</ele>
        <time>2024-08-11T08:23:26Z</time>
      </trkpt>
      <trkpt lat="44.98502" lon="6.48326">
        <ele>1529.4</ele>
        <time>2024-08-11T08:23:27Z</time>
      </trkpt>
      <trkpt lat="44.98501" lon="6.48327">
        <ele>1529.4</ele>
        <time>2024-08-11T08:23:28Z</time>
      </trkpt>
      <trkpt lat="44.98501" lon="6.48327">
        <ele>1529.2</ele>
        <time>2024-08-11T08:23:29Z</time>
      </trkpt>
      <trkpt lat="44.98498" lon="6.4833">
        <ele>1529.2</ele>
        <time>2024-08-11T08:23:30Z</time>
      </trkpt>
      <trkpt lat="44.98498" lon="6.4833">
        <ele>1529.2</ele>
        <time>2024-08-11T08:23:31Z</time>
      </trkpt>
      <trkpt lat="44.98498" lon="6.4833">
        <ele>1529.2</ele>
        <time>2024-08-11T08:23:32Z</time>
      </trkpt>
      <trkpt lat="44.98494" lon="6.48332">
        <ele>1529.2</ele>
        <time>2024-08-11T08:23:33Z</time>
      </trkpt>
      <trkpt lat="44.98493" lon="6.48333">
        <ele>1529.2</ele>
        <time>2024-08-11T08:23:34Z</time>
      </trkpt>
      <trkpt lat="44.98493" lon="6.48333">
        <ele>1529.2</ele>
        <time>2024-08-11T08:23:35Z</time>
      </trkpt>
      <trkpt lat="44.98491" lon="6.48335">
        <ele>1529</ele>
        <time>2024-08-11T08:23:36Z</time>
      </trkpt>
      <trkpt lat="44.98491" lon="6.48335">
        <ele>1529</ele>
        <time>2024-08-11T08:23:37Z</time>
      </trkpt>
      <trkpt lat="44.98487" lon="6.48337">
        <ele>1528.8</ele>
        <time>2024-08-11T08:23:38Z</time>
      </trkpt>
      <trkpt lat="44.98487" lon="6.48337">
        <ele>1528.8</ele>
        <time>2024-08-11T08:23:39Z</time>
      </trkpt>
      <trkpt lat="44.98484" lon="6.48339">
        <ele>1528.8</ele>
        <time>2024-08-11T08:23:40Z</time>
      </trkpt>
      <trkpt lat="44.98484" lon="6.48339">
        <ele>1528.8</ele>
        <time>2024-08-11T08:23:41Z</time>
      </trkpt>
      <trkpt lat="44.98481" lon="6.4834">
        <ele>1528.8</ele>
        <time>2024-08-11T08:23:42Z</time>
      </trkpt>
      <trkpt lat="44.98479" lon="6.4834">
        <ele>1528.8</ele>
        <time>2024-08-11T08:23:43Z</time>
      </trkpt>
      <trkpt lat="44.98477" lon="6.4834">
        <ele>1528.8</ele>
        <time>2024-08-11T08:23:44Z</time>
      </trkpt>
      <trkpt lat="44.98475" lon="6.4834">
        <ele>1529</ele>
        <time>2024-08-11T08:23:45Z</time>
      </trkpt>
      <trkpt lat="44.98474" lon="6.48341">
        <ele>1529</ele>
        <time>2024-08-11T08:23:46Z</time>
      </trkpt>
      <trkpt lat="44.98474" lon="6.48341">
        <ele>1529</ele>
        <time>2024-08-11T08:23:47Z</time>
      </trkpt>
      <trkpt lat="44.98471" lon="6.48342">
        <ele>1528.8</ele>
        <time>2024-08-11T08:23:48Z</time>
      </trkpt>
      <trkpt lat="44.98471" lon="6.48342">
        <ele>1528.8</ele>
        <time>2024-08-11T08:23:49Z</time>
      </trkpt>
      <trkpt lat="44.98469" lon="6.48342">
        <ele>1528.8</ele>
        <time>2024-08-11T08:23:50Z</time>
      </trkpt>
      <trkpt lat="44.98469" lon="6.48342">
        <ele>1528.8</ele>
        <time>2024-08-11T08:23:51Z</time>
      </trkpt>
      <trkpt lat="44.98466" lon="6.48343">
        <ele>1529</ele>
        <time>2024-08-11T08:23:52Z</time>
      </trkpt>
      <trkpt lat="44.98466" lon="6.48343">
        <ele>1529</ele>
        <time>2024-08-11T08:23:53Z</time>
      </trkpt>
      <trkpt lat="44.98463" lon="6.48344">
        <ele>1529</ele>
        <time>2024-08-11T08:23:54Z</time>
      </trkpt>
      <trkpt lat="44.98461" lon="6.48345">
        <ele>1529</ele>
        <time>2024-08-11T08:23:55Z</time>
      </trkpt>
      <trkpt lat="44.98461" lon="6.48345">
        <ele>1528.6</ele>
        <time>2024-08-11T08:23:56Z</time>
      </trkpt>
      <trkpt lat="44.98459" lon="6.48346">
        <ele>1528.4</ele>
        <time>2024-08-11T08:23:57Z</time>
      </trkpt>
      <trkpt lat="44.98459" lon="6.48346">
        <ele>1528.2</ele>
        <time>2024-08-11T08:23:58Z</time>
      </trkpt>
      <trkpt lat="44.98456" lon="6.48347">
        <ele>1528.2</ele>
        <time>2024-08-11T08:23:59Z</time>
      </trkpt>
      <trkpt lat="44.98456" lon="6.48347">
        <ele>1528.2</ele>
        <time>2024-08-11T08:24:00Z</time>
      </trkpt>
      <trkpt lat="44.98453" lon="6.48348">
        <ele>1527.8</ele>
        <time>2024-08-11T08:24:01Z</time>
      </trkpt>
      <trkpt lat="44.98453" lon="6.48348">
        <ele>1527.6</ele>
        <time>2024-08-11T08:24:02Z</time>
      </trkpt>
      <trkpt lat="44.98451" lon="6.4835">
        <ele>1527.6</ele>
        <time>2024-08-11T08:24:03Z</time>
      </trkpt>
      <trkpt lat="44.98451" lon="6.4835">
        <ele>1527.6</ele>
        <time>2024-08-11T08:24:04Z</time>
      </trkpt>
      <trkpt lat="44.98448" lon="6.48351">
        <ele>1527.6</ele>
        <time>2024-08-11T08:24:05Z</time>
      </trkpt>
      <trkpt lat="44.98448" lon="6.48351">
        <ele>1527.6</ele>
        <time>2024-08-11T08:24:06Z</time>
      </trkpt>
      <trkpt lat="44.98446" lon="6.48353">
        <ele>1527.6</ele>
        <time>2024-08-11T08:24:07Z</time>
      </trkpt>
      <trkpt lat="44.98446" lon="6.48353">
        <ele>1527.4</ele>
        <time>2024-08-11T08:24:08Z</time>
      </trkpt>
      <trkpt lat="44.98444" lon="6.48355">
        <ele>1527.4</ele>
        <time>2024-08-11T08:24:09Z</time>
      </trkpt>
      <trkpt lat="44.98444" lon="6.48355">
        <ele>1527.4</ele>
        <time>2024-08-11T08:24:10Z</time>
      </trkpt>
      <trkpt lat="44.98441" lon="6.48356">
        <ele>1527.4</ele>
        <time>2024-08-11T08:24:11Z</time>
      </trkpt>
      <trkpt lat="44.98441" lon="6.48356">
        <ele>1527.4</ele>
        <time>2024-08-11T08:24:12Z</time>
      </trkpt>
      <trkpt lat="44.98439" lon="6.48357">
        <ele>1527.2</ele>
        <time>2024-08-11T08:24:13Z</time>
      </trkpt>
      <trkpt lat="44.98439" lon="6.48357">
        <ele>1527.2</ele>
        <time>2024-08-11T08:24:14Z</time>
      </trkpt>
      <trkpt lat="44.98437" lon="6.48358">
        <ele>1527</ele>
        <time>2024-08-11T08:24:15Z</time>
      </trkpt>
      <trkpt lat="44.98437" lon="6.48358">
        <ele>1526.8</ele>
        <time>2024-08-11T08:24:16Z</time>
      </trkpt>
      <trkpt lat="44.98435" lon="6.48358">
        <ele>1526.8</ele>
        <time>2024-08-11T08:24:17Z</time>
      </trkpt>
      <trkpt lat="44.98433" lon="6.48359">
        <ele>1526.8</ele>
        <time>2024-08-11T08:24:18Z</time>
      </trkpt>
      <trkpt lat="44.98431" lon="6.4836">
        <ele>1526.8</ele>
        <time>2024-08-11T08:24:19Z</time>
      </trkpt>
      <trkpt lat="44.98429" lon="6.48361">
        <ele>1526.8</ele>
        <time>2024-08-11T08:24:20Z</time>
      </trkpt>
      <trkpt lat="44.98429" lon="6.48361">
        <ele>1526.8</ele>
        <time>2024-08-11T08:24:21Z</time>
      </trkpt>
      <trkpt lat="44.98426" lon="6.48362">
        <ele>1526.8</ele>
        <time>2024-08-11T08:24:22Z</time>
      </trkpt>
      <trkpt lat="44.98426" lon="6.48362">
        <ele>1526.6</ele>
        <time>2024-08-11T08:24:23Z</time>
      </trkpt>
      <trkpt lat="44.98423" lon="6.48364">
        <ele>1526.6</ele>
        <time>2024-08-11T08:24:24Z</time>
      </trkpt>
      <trkpt lat="44.98423" lon="6.48364">
        <ele>1526.6</ele>
        <time>2024-08-11T08:24:25Z</time>
      </trkpt>
      <trkpt lat="44.98421" lon="6.48366">
        <ele>1526.6</ele>
        <time>2024-08-11T08:24:26Z</time>
      </trkpt>
      <trkpt lat="44.98421" lon="6.48366">
        <ele>1526.6</ele>
        <time>2024-08-11T08:24:27Z</time>
      </trkpt>
      <trkpt lat="44.98419" lon="6.48367">
        <ele>1526.4</ele>
        <time>2024-08-11T08:24:28Z</time>
      </trkpt>
      <trkpt lat="44.98419" lon="6.48367">
        <ele>1526</ele>
        <time>2024-08-11T08:24:29Z</time>
      </trkpt>
      <trkpt lat="44.98416" lon="6.48368">
        <ele>1526</ele>
        <time>2024-08-11T08:24:30Z</time>
      </trkpt>
      <trkpt lat="44.98416" lon="6.48368">
        <ele>1526</ele>
        <time>2024-08-11T08:24:31Z</time>
      </trkpt>
      <trkpt lat="44.98414" lon="6.4837">
        <ele>1526</ele>
        <time>2024-08-11T08:24:32Z</time>
      </trkpt>
      <trkpt lat="44.98414" lon="6.4837">
        <ele>1525.8</ele>
        <time>2024-08-11T08:24:33Z</time>
      </trkpt>
      <trkpt lat="44.98411" lon="6.48371">
        <ele>1525.8</ele>
        <time>2024-08-11T08:24:34Z</time>
      </trkpt>
      <trkpt lat="44.9841" lon="6.48373">
        <ele>1525.8</ele>
        <time>2024-08-11T08:24:35Z</time>
      </trkpt>
      <trkpt lat="44.9841" lon="6.48373">
        <ele>1525.8</ele>
        <time>2024-08-11T08:24:36Z</time>
      </trkpt>
      <trkpt lat="44.98407" lon="6.48374">
        <ele>1526</ele>
        <time>2024-08-11T08:24:37Z</time>
      </trkpt>
      <trkpt lat="44.98407" lon="6.48374">
        <ele>1525.8</ele>
        <time>2024-08-11T08:24:38Z</time>
      </trkpt>
      <trkpt lat="44.98404" lon="6.48375">
        <ele>1525.8</ele>
        <time>2024-08-11T08:24:39Z</time>
      </trkpt>
      <trkpt lat="44.98404" lon="6.48375">
        <ele>1525.6</ele>
        <time>2024-08-11T08:24:40Z</time>
      </trkpt>
      <trkpt lat="44.98401" lon="6.48377">
        <ele>1525.6</ele>
        <time>2024-08-11T08:24:41Z</time>
      </trkpt>
      <trkpt lat="44.98401" lon="6.48377">
        <ele>1525.8</ele>
        <time>2024-08-11T08:24:42Z</time>
      </trkpt>
      <trkpt lat="44.98398" lon="6.48379">
        <ele>1525.6</ele>
        <time>2024-08-11T08:24:43Z</time>
      </trkpt>
      <trkpt lat="44.98398" lon="6.48379">
        <ele>1525.6</ele>
        <time>2024-08-11T08:24:44Z</time>
      </trkpt>
      <trkpt lat="44.98398" lon="6.48379">
        <ele>1525.6</ele>
        <time>2024-08-11T08:24:45Z</time>
      </trkpt>
      <trkpt lat="44.98396" lon="6.48381">
        <ele>1525.4</ele>
        <time>2024-08-11T08:24:46Z</time>
      </trkpt>
      <trkpt lat="44.98396" lon="6.48381">
        <ele>1525.4</ele>
        <time>2024-08-11T08:24:47Z</time>
      </trkpt>
      <trkpt lat="44.98394" lon="6.48383">
        <ele>1525</ele>
        <time>2024-08-11T08:24:48Z</time>
      </trkpt>
      <trkpt lat="44.98394" lon="6.48383">
        <ele>1525</ele>
        <time>2024-08-11T08:24:49Z</time>
      </trkpt>
      <trkpt lat="44.98392" lon="6.48385">
        <ele>1525</ele>
        <time>2024-08-11T08:24:50Z</time>
      </trkpt>
      <trkpt lat="44.98392" lon="6.48385">
        <ele>1525</ele>
        <time>2024-08-11T08:24:51Z</time>
      </trkpt>
      <trkpt lat="44.98391" lon="6.48389">
        <ele>1524.8</ele>
        <time>2024-08-11T08:24:52Z</time>
      </trkpt>
      <trkpt lat="44.98391" lon="6.48389">
        <ele>1524.4</ele>
        <time>2024-08-11T08:24:53Z</time>
      </trkpt>
      <trkpt lat="44.98391" lon="6.48392">
        <ele>1524.2</ele>
        <time>2024-08-11T08:24:54Z</time>
      </trkpt>
      <trkpt lat="44.98391" lon="6.48392">
        <ele>1524.2</ele>
        <time>2024-08-11T08:24:55Z</time>
      </trkpt>
      <trkpt lat="44.9839" lon="6.48396">
        <ele>1524</ele>
        <time>2024-08-11T08:24:56Z</time>
      </trkpt>
      <trkpt lat="44.9839" lon="6.48396">
        <ele>1524</ele>
        <time>2024-08-11T08:24:57Z</time>
      </trkpt>
      <trkpt lat="44.9839" lon="6.484">
        <ele>1523.8</ele>
        <time>2024-08-11T08:24:58Z</time>
      </trkpt>
      <trkpt lat="44.9839" lon="6.484">
        <ele>1523.8</ele>
        <time>2024-08-11T08:24:59Z</time>
      </trkpt>
      <trkpt lat="44.98388" lon="6.48403">
        <ele>1523.6</ele>
        <time>2024-08-11T08:25:00Z</time>
      </trkpt>
      <trkpt lat="44.98388" lon="6.48403">
        <ele>1523.4</ele>
        <time>2024-08-11T08:25:01Z</time>
      </trkpt>
      <trkpt lat="44.98386" lon="6.48407">
        <ele>1523.6</ele>
        <time>2024-08-11T08:25:02Z</time>
      </trkpt>
      <trkpt lat="44.98386" lon="6.48407">
        <ele>1523.6</ele>
        <time>2024-08-11T08:25:03Z</time>
      </trkpt>
      <trkpt lat="44.98384" lon="6.48411">
        <ele>1523.2</ele>
        <time>2024-08-11T08:25:04Z</time>
      </trkpt>
      <trkpt lat="44.98384" lon="6.48411">
        <ele>1523</ele>
        <time>2024-08-11T08:25:05Z</time>
      </trkpt>
      <trkpt lat="44.98382" lon="6.48414">
        <ele>1523</ele>
        <time>2024-08-11T08:25:06Z</time>
      </trkpt>
      <trkpt lat="44.98381" lon="6.48415">
        <ele>1522.8</ele>
        <time>2024-08-11T08:25:07Z</time>
      </trkpt>
      <trkpt lat="44.9838" lon="6.48416">
        <ele>1522.8</ele>
        <time>2024-08-11T08:25:08Z</time>
      </trkpt>
      <trkpt lat="44.98378" lon="6.48418">
        <ele>1522.8</ele>
        <time>2024-08-11T08:25:09Z</time>
      </trkpt>
      <trkpt lat="44.98378" lon="6.48418">
        <ele>1522.8</ele>
        <time>2024-08-11T08:25:10Z</time>
      </trkpt>
      <trkpt lat="44.98376" lon="6.4842">
        <ele>1522.8</ele>
        <time>2024-08-11T08:25:11Z</time>
      </trkpt>
      <trkpt lat="44.98376" lon="6.4842">
        <ele>1522.8</ele>
        <time>2024-08-11T08:25:12Z</time>
      </trkpt>
      <trkpt lat="44.98373" lon="6.48422">
        <ele>1522.8</ele>
        <time>2024-08-11T08:25:13Z</time>
      </trkpt>
      <trkpt lat="44.98373" lon="6.48422">
        <ele>1522.6</ele>
        <time>2024-08-11T08:25:14Z</time>
      </trkpt>
      <trkpt lat="44.9837" lon="6.48424">
        <ele>1522.6</ele>
        <time>2024-08-11T08:25:15Z</time>
      </trkpt>
      <trkpt lat="44.9837" lon="6.48424">
        <ele>1522.4</ele>
        <time>2024-08-11T08:25:16Z</time>
      </trkpt>
      <trkpt lat="44.98368" lon="6.48426">
        <ele>1522.2</ele>
        <time>2024-08-11T08:25:17Z</time>
      </trkpt>
      <trkpt lat="44.98368" lon="6.48426">
        <ele>1522.2</ele>
        <time>2024-08-11T08:25:18Z</time>
      </trkpt>
      <trkpt lat="44.98366" lon="6.48428">
        <ele>1522.2</ele>
        <time>2024-08-11T08:25:19Z</time>
      </trkpt>
      <trkpt lat="44.98366" lon="6.48428">
        <ele>1522.2</ele>
        <time>2024-08-11T08:25:20Z</time>
      </trkpt>
      <trkpt lat="44.98364" lon="6.4843">
        <ele>1522.2</ele>
        <time>2024-08-11T08:25:21Z</time>
      </trkpt>
      <trkpt lat="44.98364" lon="6.4843">
        <ele>1522.2</ele>
        <time>2024-08-11T08:25:22Z</time>
      </trkpt>
      <trkpt lat="44.98362" lon="6.48431">
        <ele>1522</ele>
        <time>2024-08-11T08:25:23Z</time>
      </trkpt>
      <trkpt lat="44.98362" lon="6.48431">
        <ele>1522</ele>
        <time>2024-08-11T08:25:24Z</time>
      </trkpt>
      <trkpt lat="44.9836" lon="6.48434">
        <ele>1522</ele>
        <time>2024-08-11T08:25:25Z</time>
      </trkpt>
      <trkpt lat="44.9836" lon="6.48434">
        <ele>1522</ele>
        <time>2024-08-11T08:25:26Z</time>
      </trkpt>
      <trkpt lat="44.98358" lon="6.48436">
        <ele>1522</ele>
        <time>2024-08-11T08:25:27Z</time>
      </trkpt>
      <trkpt lat="44.98358" lon="6.48436">
        <ele>1522</ele>
        <time>2024-08-11T08:25:28Z</time>
      </trkpt>
      <trkpt lat="44.98358" lon="6.48436">
        <ele>1521.6</ele>
        <time>2024-08-11T08:25:29Z</time>
      </trkpt>
      <trkpt lat="44.98356" lon="6.48439">
        <ele>1521.2</ele>
        <time>2024-08-11T08:25:30Z</time>
      </trkpt>
      <trkpt lat="44.98354" lon="6.48441">
        <ele>1521.2</ele>
        <time>2024-08-11T08:25:31Z</time>
      </trkpt>
      <trkpt lat="44.98354" lon="6.48441">
        <ele>1521.2</ele>
        <time>2024-08-11T08:25:32Z</time>
      </trkpt>
      <trkpt lat="44.98352" lon="6.48443">
        <ele>1521</ele>
        <time>2024-08-11T08:25:33Z</time>
      </trkpt>
      <trkpt lat="44.98352" lon="6.48443">
        <ele>1520.6</ele>
        <time>2024-08-11T08:25:34Z</time>
      </trkpt>
      <trkpt lat="44.98352" lon="6.48443">
        <ele>1520.6</ele>
        <time>2024-08-11T08:25:35Z</time>
      </trkpt>
      <trkpt lat="44.9835" lon="6.48444">
        <ele>1520.4</ele>
        <time>2024-08-11T08:25:36Z</time>
      </trkpt>
      <trkpt lat="44.9835" lon="6.48444">
        <ele>1520.4</ele>
        <time>2024-08-11T08:25:37Z</time>
      </trkpt>
      <trkpt lat="44.9835" lon="6.48444">
        <ele>1520.4</ele>
        <time>2024-08-11T08:25:38Z</time>
      </trkpt>
      <trkpt lat="44.9835" lon="6.48444">
        <ele>1520.2</ele>
        <time>2024-08-11T08:25:39Z</time>
      </trkpt>
      <trkpt lat="44.9835" lon="6.48444">
        <ele>1520.2</ele>
        <time>2024-08-11T08:25:40Z</time>
      </trkpt>
      <trkpt lat="44.9835" lon="6.48444">
        <ele>1520.2</ele>
        <time>2024-08-11T08:25:41Z</time>
      </trkpt>
      <trkpt lat="44.9835" lon="6.48444">
        <ele>1520.2</ele>
        <time>2024-08-11T08:25:42Z</time>
      </trkpt>
      <trkpt lat="44.9835" lon="6.48444">
        <ele>1520</ele>
        <time>2024-08-11T08:25:43Z</time>
      </trkpt>
      <trkpt lat="44.9835" lon="6.48444">
        <ele>1519.8</ele>
        <time>2024-08-11T08:25:44Z</time>
      </trkpt>
      <trkpt lat="44.9835" lon="6.48444">
        <ele>1519.8</ele>
        <time>2024-08-11T08:25:45Z</time>
      </trkpt>
      <trkpt lat="44.9835" lon="6.48444">
        <ele>1519.6</ele>
        <time>2024-08-11T08:25:46Z</time>
      </trkpt>
      <trkpt lat="44.9835" lon="6.48444">
        <ele>1519.6</ele>
        <time>2024-08-11T08:25:47Z</time>
      </trkpt>
      <trkpt lat="44.9835" lon="6.48444">
        <ele>1519.6</ele>
        <time>2024-08-11T08:25:48Z</time>
      </trkpt>
      <trkpt lat="44.9835" lon="6.48444">
        <ele>1519.6</ele>
        <time>2024-08-11T08:25:49Z</time>
      </trkpt>
      <trkpt lat="44.9835" lon="6.48444">
        <ele>1519.6</ele>
        <time>2024-08-11T08:25:50Z</time>
      </trkpt>
      <trkpt lat="44.98352" lon="6.48443">
        <ele>1519.6</ele>
        <time>2024-08-11T08:25:51Z</time>
      </trkpt>
      <trkpt lat="44.98352" lon="6.48443">
        <ele>1519.6</ele>
        <time>2024-08-11T08:25:52Z</time>
      </trkpt>
      <trkpt lat="44.98352" lon="6.48443">
        <ele>1519.6</ele>
        <time>2024-08-11T08:25:53Z</time>
      </trkpt>
      <trkpt lat="44.98354" lon="6.48441">
        <ele>1519.6</ele>
        <time>2024-08-11T08:25:54Z</time>
      </trkpt>
      <trkpt lat="44.98354" lon="6.48441">
        <ele>1519.6</ele>
        <time>2024-08-11T08:25:55Z</time>
      </trkpt>
      <trkpt lat="44.98354" lon="6.48441">
        <ele>1519.8</ele>
        <time>2024-08-11T08:25:56Z</time>
      </trkpt>
      <trkpt lat="44.98354" lon="6.48441">
        <ele>1519.8</ele>
        <time>2024-08-11T08:25:57Z</time>
      </trkpt>
      <trkpt lat="44.98352" lon="6.48444">
        <ele>1519.8</ele>
        <time>2024-08-11T08:25:58Z</time>
      </trkpt>
      <trkpt lat="44.98352" lon="6.48444">
        <ele>1519.6</ele>
        <time>2024-08-11T08:25:59Z</time>
      </trkpt>
      <trkpt lat="44.98352" lon="6.48444">
        <ele>1519.4</ele>
        <time>2024-08-11T08:26:00Z</time>
      </trkpt>
      <trkpt lat="44.98349" lon="6.48448">
        <ele>1519.4</ele>
        <time>2024-08-11T08:26:01Z</time>
      </trkpt>
      <trkpt lat="44.98349" lon="6.48448">
        <ele>1519.2</ele>
        <time>2024-08-11T08:26:02Z</time>
      </trkpt>
      <trkpt lat="44.98347" lon="6.48452">
        <ele>1519.2</ele>
        <time>2024-08-11T08:26:03Z</time>
      </trkpt>
      <trkpt lat="44.98346" lon="6.48453">
        <ele>1519.2</ele>
        <time>2024-08-11T08:26:04Z</time>
      </trkpt>
      <trkpt lat="44.98346" lon="6.48453">
        <ele>1519.2</ele>
        <time>2024-08-11T08:26:05Z</time>
      </trkpt>
      <trkpt lat="44.98344" lon="6.48456">
        <ele>1519</ele>
        <time>2024-08-11T08:26:06Z</time>
      </trkpt>
      <trkpt lat="44.98344" lon="6.48456">
        <ele>1518.6</ele>
        <time>2024-08-11T08:26:07Z</time>
      </trkpt>
      <trkpt lat="44.98344" lon="6.48456">
        <ele>1518.4</ele>
        <time>2024-08-11T08:26:08Z</time>
      </trkpt>
      <trkpt lat="44.98342" lon="6.48461">
        <ele>1518.2</ele>
        <time>2024-08-11T08:26:09Z</time>
      </trkpt>
      <trkpt lat="44.98341" lon="6.48464">
        <ele>1518</ele>
        <time>2024-08-11T08:26:10Z</time>
      </trkpt>
      <trkpt lat="44.98341" lon="6.48464">
        <ele>1518</ele>
        <time>2024-08-11T08:26:11Z</time>
      </trkpt>
      <trkpt lat="44.98341" lon="6.48464">
        <ele>1518</ele>
        <time>2024-08-11T08:26:12Z</time>
      </trkpt>
      <trkpt lat="44.98339" lon="6.48469">
        <ele>1517.8</ele>
        <time>2024-08-11T08:26:13Z</time>
      </trkpt>
      <trkpt lat="44.98338" lon="6.4847">
        <ele>1517.8</ele>
        <time>2024-08-11T08:26:14Z</time>
      </trkpt>
      <trkpt lat="44.98338" lon="6.4847">
        <ele>1517.8</ele>
        <time>2024-08-11T08:26:15Z</time>
      </trkpt>
      <trkpt lat="44.98337" lon="6.48474">
        <ele>1517.8</ele>
        <time>2024-08-11T08:26:16Z</time>
      </trkpt>
      <trkpt lat="44.98337" lon="6.48474">
        <ele>1517.8</ele>
        <time>2024-08-11T08:26:17Z</time>
      </trkpt>
      <trkpt lat="44.98335" lon="6.48478">
        <ele>1517.6</ele>
        <time>2024-08-11T08:26:18Z</time>
      </trkpt>
      <trkpt lat="44.98335" lon="6.48478">
        <ele>1517.4</ele>
        <time>2024-08-11T08:26:19Z</time>
      </trkpt>
      <trkpt lat="44.98335" lon="6.48478">
        <ele>1517.4</ele>
        <time>2024-08-11T08:26:20Z</time>
      </trkpt>
      <trkpt lat="44.98334" lon="6.4848">
        <ele>1517.4</ele>
        <time>2024-08-11T08:26:21Z</time>
      </trkpt>
      <trkpt lat="44.98334" lon="6.4848">
        <ele>1517.6</ele>
        <time>2024-08-11T08:26:22Z</time>
      </trkpt>
      <trkpt lat="44.98334" lon="6.4848">
        <ele>1517.6</ele>
        <time>2024-08-11T08:26:23Z</time>
      </trkpt>
      <trkpt lat="44.98334" lon="6.4848">
        <ele>1517.6</ele>
        <time>2024-08-11T08:26:24Z</time>
      </trkpt>
      <trkpt lat="44.98336" lon="6.48481">
        <ele>1517.6</ele>
        <time>2024-08-11T08:26:25Z</time>
      </trkpt>
      <trkpt lat="44.98336" lon="6.48481">
        <ele>1517.6</ele>
        <time>2024-08-11T08:26:26Z</time>
      </trkpt>
      <trkpt lat="44.98336" lon="6.48481">
        <ele>1517.6</ele>
        <time>2024-08-11T08:26:27Z</time>
      </trkpt>
      <trkpt lat="44.98336" lon="6.48481">
        <ele>1517.6</ele>
        <time>2024-08-11T08:26:28Z</time>
      </trkpt>
      <trkpt lat="44.98336" lon="6.48484">
        <ele>1517.6</ele>
        <time>2024-08-11T08:26:29Z</time>
      </trkpt>
      <trkpt lat="44.98336" lon="6.48484">
        <ele>1517.6</ele>
        <time>2024-08-11T08:26:30Z</time>
      </trkpt>
      <trkpt lat="44.98335" lon="6.48487">
        <ele>1517.4</ele>
        <time>2024-08-11T08:26:31Z</time>
      </trkpt>
      <trkpt lat="44.98335" lon="6.48487">
        <ele>1517.4</ele>
        <time>2024-08-11T08:26:32Z</time>
      </trkpt>
      <trkpt lat="44.98334" lon="6.48489">
        <ele>1517.4</ele>
        <time>2024-08-11T08:26:33Z</time>
      </trkpt>
      <trkpt lat="44.98334" lon="6.48489">
        <ele>1517.4</ele>
        <time>2024-08-11T08:26:34Z</time>
      </trkpt>
      <trkpt lat="44.98332" lon="6.48492">
        <ele>1517.4</ele>
        <time>2024-08-11T08:26:35Z</time>
      </trkpt>
      <trkpt lat="44.98332" lon="6.48492">
        <ele>1517.4</ele>
        <time>2024-08-11T08:26:36Z</time>
      </trkpt>
      <trkpt lat="44.98331" lon="6.48494">
        <ele>1517.4</ele>
        <time>2024-08-11T08:26:37Z</time>
      </trkpt>
      <trkpt lat="44.98331" lon="6.48494">
        <ele>1517.4</ele>
        <time>2024-08-11T08:26:38Z</time>
      </trkpt>
      <trkpt lat="44.98331" lon="6.48494">
        <ele>1517.4</ele>
        <time>2024-08-11T08:26:39Z</time>
      </trkpt>
      <trkpt lat="44.98329" lon="6.48497">
        <ele>1517.4</ele>
        <time>2024-08-11T08:26:40Z</time>
      </trkpt>
      <trkpt lat="44.98329" lon="6.48497">
        <ele>1517.4</ele>
        <time>2024-08-11T08:26:41Z</time>
      </trkpt>
      <trkpt lat="44.98329" lon="6.48497">
        <ele>1517.4</ele>
        <time>2024-08-11T08:26:42Z</time>
      </trkpt>
      <trkpt lat="44.98328" lon="6.48499">
        <ele>1517.4</ele>
        <time>2024-08-11T08:26:43Z</time>
      </trkpt>
      <trkpt lat="44.98327" lon="6.48501">
        <ele>1517.4</ele>
        <time>2024-08-11T08:26:44Z</time>
      </trkpt>
      <trkpt lat="44.98327" lon="6.48501">
        <ele>1517.4</ele>
        <time>2024-08-11T08:26:45Z</time>
      </trkpt>
      <trkpt lat="44.98326" lon="6.48505">
        <ele>1517.6</ele>
        <time>2024-08-11T08:26:46Z</time>
      </trkpt>
      <trkpt lat="44.98326" lon="6.48505">
        <ele>1517.6</ele>
        <time>2024-08-11T08:26:47Z</time>
      </trkpt>
      <trkpt lat="44.98325" lon="6.48508">
        <ele>1517.6</ele>
        <time>2024-08-11T08:26:48Z</time>
      </trkpt>
      <trkpt lat="44.98325" lon="6.48508">
        <ele>1517.6</ele>
        <time>2024-08-11T08:26:49Z</time>
      </trkpt>
      <trkpt lat="44.98324" lon="6.48512">
        <ele>1517.6</ele>
        <time>2024-08-11T08:26:50Z</time>
      </trkpt>
      <trkpt lat="44.98322" lon="6.48514">
        <ele>1517.6</ele>
        <time>2024-08-11T08:26:51Z</time>
      </trkpt>
      <trkpt lat="44.9832" lon="6.48516">
        <ele>1517.6</ele>
        <time>2024-08-11T08:26:52Z</time>
      </trkpt>
      <trkpt lat="44.98319" lon="6.48519">
        <ele>1517.8</ele>
        <time>2024-08-11T08:26:53Z</time>
      </trkpt>
      <trkpt lat="44.98317" lon="6.48521">
        <ele>1518</ele>
        <time>2024-08-11T08:26:54Z</time>
      </trkpt>
      <trkpt lat="44.98316" lon="6.48524">
        <ele>1518</ele>
        <time>2024-08-11T08:26:55Z</time>
      </trkpt>
      <trkpt lat="44.98316" lon="6.48524">
        <ele>1517.8</ele>
        <time>2024-08-11T08:26:56Z</time>
      </trkpt>
      <trkpt lat="44.98315" lon="6.48528">
        <ele>1517.8</ele>
        <time>2024-08-11T08:26:57Z</time>
      </trkpt>
      <trkpt lat="44.98314" lon="6.48529">
        <ele>1517.8</ele>
        <time>2024-08-11T08:26:58Z</time>
      </trkpt>
      <trkpt lat="44.98312" lon="6.4853">
        <ele>1518.2</ele>
        <time>2024-08-11T08:26:59Z</time>
      </trkpt>
      <trkpt lat="44.98312" lon="6.4853">
        <ele>1518.2</ele>
        <time>2024-08-11T08:27:00Z</time>
      </trkpt>
      <trkpt lat="44.98309" lon="6.48533">
        <ele>1518.2</ele>
        <time>2024-08-11T08:27:01Z</time>
      </trkpt>
      <trkpt lat="44.98309" lon="6.48533">
        <ele>1518.2</ele>
        <time>2024-08-11T08:27:02Z</time>
      </trkpt>
      <trkpt lat="44.98307" lon="6.48536">
        <ele>1518.2</ele>
        <time>2024-08-11T08:27:03Z</time>
      </trkpt>
      <trkpt lat="44.98307" lon="6.48536">
        <ele>1518</ele>
        <time>2024-08-11T08:27:04Z</time>
      </trkpt>
      <trkpt lat="44.98303" lon="6.48537">
        <ele>1517.8</ele>
        <time>2024-08-11T08:27:05Z</time>
      </trkpt>
      <trkpt lat="44.98303" lon="6.48537">
        <ele>1517.8</ele>
        <time>2024-08-11T08:27:06Z</time>
      </trkpt>
      <trkpt lat="44.98303" lon="6.48537">
        <ele>1518.2</ele>
        <time>2024-08-11T08:27:07Z</time>
      </trkpt>
      <trkpt lat="44.98299" lon="6.48539">
        <ele>1518.2</ele>
        <time>2024-08-11T08:27:08Z</time>
      </trkpt>
      <trkpt lat="44.98298" lon="6.4854">
        <ele>1518.2</ele>
        <time>2024-08-11T08:27:09Z</time>
      </trkpt>
      <trkpt lat="44.98298" lon="6.4854">
        <ele>1518.2</ele>
        <time>2024-08-11T08:27:10Z</time>
      </trkpt>
      <trkpt lat="44.98295" lon="6.48542">
        <ele>1518.2</ele>
        <time>2024-08-11T08:27:11Z</time>
      </trkpt>
      <trkpt lat="44.98295" lon="6.48542">
        <ele>1518.2</ele>
        <time>2024-08-11T08:27:12Z</time>
      </trkpt>
      <trkpt lat="44.98292" lon="6.48545">
        <ele>1518</ele>
        <time>2024-08-11T08:27:13Z</time>
      </trkpt>
      <trkpt lat="44.98292" lon="6.48545">
        <ele>1518</ele>
        <time>2024-08-11T08:27:14Z</time>
      </trkpt>
      <trkpt lat="44.98291" lon="6.48548">
        <ele>1518</ele>
        <time>2024-08-11T08:27:15Z</time>
      </trkpt>
      <trkpt lat="44.98291" lon="6.48548">
        <ele>1518.4</ele>
        <time>2024-08-11T08:27:16Z</time>
      </trkpt>
      <trkpt lat="44.9829" lon="6.48551">
        <ele>1518.4</ele>
        <time>2024-08-11T08:27:17Z</time>
      </trkpt>
      <trkpt lat="44.9829" lon="6.48551">
        <ele>1518.4</ele>
        <time>2024-08-11T08:27:18Z</time>
      </trkpt>
      <trkpt lat="44.98289" lon="6.48554">
        <ele>1518.2</ele>
        <time>2024-08-11T08:27:19Z</time>
      </trkpt>
      <trkpt lat="44.98289" lon="6.48554">
        <ele>1518.2</ele>
        <time>2024-08-11T08:27:20Z</time>
      </trkpt>
      <trkpt lat="44.98288" lon="6.48558">
        <ele>1518.2</ele>
        <time>2024-08-11T08:27:21Z</time>
      </trkpt>
      <trkpt lat="44.98288" lon="6.48561">
        <ele>1518.2</ele>
        <time>2024-08-11T08:27:22Z</time>
      </trkpt>
      <trkpt lat="44.98286" lon="6.48563">
        <ele>1518.4</ele>
        <time>2024-08-11T08:27:23Z</time>
      </trkpt>
      <trkpt lat="44.98285" lon="6.48564">
        <ele>1518.4</ele>
        <time>2024-08-11T08:27:24Z</time>
      </trkpt>
      <trkpt lat="44.98285" lon="6.48564">
        <ele>1518.8</ele>
        <time>2024-08-11T08:27:25Z</time>
      </trkpt>
      <trkpt lat="44.98282" lon="6.48567">
        <ele>1519</ele>
        <time>2024-08-11T08:27:26Z</time>
      </trkpt>
      <trkpt lat="44.98282" lon="6.48568">
        <ele>1519.2</ele>
        <time>2024-08-11T08:27:27Z</time>
      </trkpt>
      <trkpt lat="44.98282" lon="6.48568">
        <ele>1519.2</ele>
        <time>2024-08-11T08:27:28Z</time>
      </trkpt>
      <trkpt lat="44.98281" lon="6.48571">
        <ele>1519.4</ele>
        <time>2024-08-11T08:27:29Z</time>
      </trkpt>
      <trkpt lat="44.98281" lon="6.48571">
        <ele>1519.4</ele>
        <time>2024-08-11T08:27:30Z</time>
      </trkpt>
      <trkpt lat="44.98282" lon="6.48574">
        <ele>1519.4</ele>
        <time>2024-08-11T08:27:31Z</time>
      </trkpt>
      <trkpt lat="44.98282" lon="6.48574">
        <ele>1519.4</ele>
        <time>2024-08-11T08:27:32Z</time>
      </trkpt>
      <trkpt lat="44.98281" lon="6.48577">
        <ele>1519.4</ele>
        <time>2024-08-11T08:27:33Z</time>
      </trkpt>
      <trkpt lat="44.98281" lon="6.48577">
        <ele>1519.2</ele>
        <time>2024-08-11T08:27:34Z</time>
      </trkpt>
      <trkpt lat="44.9828" lon="6.48581">
        <ele>1519.2</ele>
        <time>2024-08-11T08:27:35Z</time>
      </trkpt>
      <trkpt lat="44.9828" lon="6.48581">
        <ele>1519</ele>
        <time>2024-08-11T08:27:36Z</time>
      </trkpt>
      <trkpt lat="44.98281" lon="6.48585">
        <ele>1519</ele>
        <time>2024-08-11T08:27:37Z</time>
      </trkpt>
      <trkpt lat="44.98281" lon="6.48585">
        <ele>1518.8</ele>
        <time>2024-08-11T08:27:38Z</time>
      </trkpt>
      <trkpt lat="44.98281" lon="6.48585">
        <ele>1518.8</ele>
        <time>2024-08-11T08:27:39Z</time>
      </trkpt>
      <trkpt lat="44.98282" lon="6.4859">
        <ele>1518.6</ele>
        <time>2024-08-11T08:27:40Z</time>
      </trkpt>
      <trkpt lat="44.98282" lon="6.48591">
        <ele>1518.6</ele>
        <time>2024-08-11T08:27:41Z</time>
      </trkpt>
      <trkpt lat="44.98282" lon="6.48591">
        <ele>1518.6</ele>
        <time>2024-08-11T08:27:42Z</time>
      </trkpt>
      <trkpt lat="44.98282" lon="6.48594">
        <ele>1518.8</ele>
        <time>2024-08-11T08:27:43Z</time>
      </trkpt>
      <trkpt lat="44.98282" lon="6.48594">
        <ele>1518.8</ele>
        <time>2024-08-11T08:27:44Z</time>
      </trkpt>
      <trkpt lat="44.9828" lon="6.48598">
        <ele>1518.4</ele>
        <time>2024-08-11T08:27:45Z</time>
      </trkpt>
      <trkpt lat="44.98279" lon="6.486">
        <ele>1518.4</ele>
        <time>2024-08-11T08:27:46Z</time>
      </trkpt>
      <trkpt lat="44.98279" lon="6.486">
        <ele>1518.4</ele>
        <time>2024-08-11T08:27:47Z</time>
      </trkpt>
      <trkpt lat="44.98278" lon="6.48604">
        <ele>1518.4</ele>
        <time>2024-08-11T08:27:48Z</time>
      </trkpt>
      <trkpt lat="44.98278" lon="6.48604">
        <ele>1518.4</ele>
        <time>2024-08-11T08:27:49Z</time>
      </trkpt>
      <trkpt lat="44.98277" lon="6.48608">
        <ele>1518.4</ele>
        <time>2024-08-11T08:27:50Z</time>
      </trkpt>
      <trkpt lat="44.98277" lon="6.48608">
        <ele>1518.4</ele>
        <time>2024-08-11T08:27:51Z</time>
      </trkpt>
      <trkpt lat="44.98276" lon="6.48611">
        <ele>1518.4</ele>
        <time>2024-08-11T08:27:52Z</time>
      </trkpt>
      <trkpt lat="44.98276" lon="6.48611">
        <ele>1518.4</ele>
        <time>2024-08-11T08:27:53Z</time>
      </trkpt>
      <trkpt lat="44.98275" lon="6.48615">
        <ele>1518.4</ele>
        <time>2024-08-11T08:27:54Z</time>
      </trkpt>
      <trkpt lat="44.98275" lon="6.48615">
        <ele>1518.6</ele>
        <time>2024-08-11T08:27:55Z</time>
      </trkpt>
      <trkpt lat="44.98274" lon="6.48619">
        <ele>1518.6</ele>
        <time>2024-08-11T08:27:56Z</time>
      </trkpt>
      <trkpt lat="44.98274" lon="6.48619">
        <ele>1518.8</ele>
        <time>2024-08-11T08:27:57Z</time>
      </trkpt>
      <trkpt lat="44.98272" lon="6.48623">
        <ele>1518.8</ele>
        <time>2024-08-11T08:27:58Z</time>
      </trkpt>
      <trkpt lat="44.98272" lon="6.48626">
        <ele>1518.8</ele>
        <time>2024-08-11T08:27:59Z</time>
      </trkpt>
      <trkpt lat="44.98271" lon="6.48628">
        <ele>1518.6</ele>
        <time>2024-08-11T08:28:00Z</time>
      </trkpt>
      <trkpt lat="44.98271" lon="6.48629">
        <ele>1518.4</ele>
        <time>2024-08-11T08:28:01Z</time>
      </trkpt>
      <trkpt lat="44.98271" lon="6.48629">
        <ele>1518.4</ele>
        <time>2024-08-11T08:28:02Z</time>
      </trkpt>
      <trkpt lat="44.9827" lon="6.48633">
        <ele>1518.4</ele>
        <time>2024-08-11T08:28:03Z</time>
      </trkpt>
      <trkpt lat="44.9827" lon="6.48633">
        <ele>1518.2</ele>
        <time>2024-08-11T08:28:04Z</time>
      </trkpt>
      <trkpt lat="44.98269" lon="6.48637">
        <ele>1518.2</ele>
        <time>2024-08-11T08:28:05Z</time>
      </trkpt>
      <trkpt lat="44.98269" lon="6.48637">
        <ele>1518.2</ele>
        <time>2024-08-11T08:28:06Z</time>
      </trkpt>
      <trkpt lat="44.98269" lon="6.48641">
        <ele>1518</ele>
        <time>2024-08-11T08:28:07Z</time>
      </trkpt>
      <trkpt lat="44.98269" lon="6.48641">
        <ele>1517.8</ele>
        <time>2024-08-11T08:28:08Z</time>
      </trkpt>
      <trkpt lat="44.98268" lon="6.48645">
        <ele>1517.8</ele>
        <time>2024-08-11T08:28:09Z</time>
      </trkpt>
      <trkpt lat="44.98268" lon="6.48645">
        <ele>1517.8</ele>
        <time>2024-08-11T08:28:10Z</time>
      </trkpt>
      <trkpt lat="44.98269" lon="6.48649">
        <ele>1517.8</ele>
        <time>2024-08-11T08:28:11Z</time>
      </trkpt>
      <trkpt lat="44.98268" lon="6.48651">
        <ele>1517.6</ele>
        <time>2024-08-11T08:28:12Z</time>
      </trkpt>
      <trkpt lat="44.98268" lon="6.48651">
        <ele>1517.4</ele>
        <time>2024-08-11T08:28:13Z</time>
      </trkpt>
      <trkpt lat="44.98267" lon="6.48656">
        <ele>1517.2</ele>
        <time>2024-08-11T08:28:14Z</time>
      </trkpt>
      <trkpt lat="44.98267" lon="6.48656">
        <ele>1517</ele>
        <time>2024-08-11T08:28:15Z</time>
      </trkpt>
      <trkpt lat="44.98264" lon="6.48659">
        <ele>1516.8</ele>
        <time>2024-08-11T08:28:16Z</time>
      </trkpt>
      <trkpt lat="44.98264" lon="6.48659">
        <ele>1516.8</ele>
        <time>2024-08-11T08:28:17Z</time>
      </trkpt>
      <trkpt lat="44.98263" lon="6.48663">
        <ele>1516.6</ele>
        <time>2024-08-11T08:28:18Z</time>
      </trkpt>
      <trkpt lat="44.98263" lon="6.48663">
        <ele>1516.4</ele>
        <time>2024-08-11T08:28:19Z</time>
      </trkpt>
      <trkpt lat="44.98261" lon="6.48667">
        <ele>1516.4</ele>
        <time>2024-08-11T08:28:20Z</time>
      </trkpt>
      <trkpt lat="44.98261" lon="6.48667">
        <ele>1516.4</ele>
        <time>2024-08-11T08:28:21Z</time>
      </trkpt>
      <trkpt lat="44.9826" lon="6.4867">
        <ele>1516.4</ele>
        <time>2024-08-11T08:28:22Z</time>
      </trkpt>
      <trkpt lat="44.9826" lon="6.4867">
        <ele>1516</ele>
        <time>2024-08-11T08:28:23Z</time>
      </trkpt>
      <trkpt lat="44.98258" lon="6.48674">
        <ele>1516</ele>
        <time>2024-08-11T08:28:24Z</time>
      </trkpt>
      <trkpt lat="44.98258" lon="6.48674">
        <ele>1516.2</ele>
        <time>2024-08-11T08:28:25Z</time>
      </trkpt>
      <trkpt lat="44.98257" lon="6.48677">
        <ele>1516.2</ele>
        <time>2024-08-11T08:28:26Z</time>
      </trkpt>
      <trkpt lat="44.98257" lon="6.48677">
        <ele>1516.2</ele>
        <time>2024-08-11T08:28:27Z</time>
      </trkpt>
      <trkpt lat="44.98256" lon="6.4868">
        <ele>1516</ele>
        <time>2024-08-11T08:28:28Z</time>
      </trkpt>
      <trkpt lat="44.98256" lon="6.4868">
        <ele>1515.8</ele>
        <time>2024-08-11T08:28:29Z</time>
      </trkpt>
      <trkpt lat="44.98253" lon="6.48682">
        <ele>1515.8</ele>
        <time>2024-08-11T08:28:30Z</time>
      </trkpt>
      <trkpt lat="44.98253" lon="6.48682">
        <ele>1515.8</ele>
        <time>2024-08-11T08:28:31Z</time>
      </trkpt>
      <trkpt lat="44.98251" lon="6.48684">
        <ele>1515.8</ele>
        <time>2024-08-11T08:28:32Z</time>
      </trkpt>
      <trkpt lat="44.98249" lon="6.48686">
        <ele>1515.8</ele>
        <time>2024-08-11T08:28:33Z</time>
      </trkpt>
      <trkpt lat="44.98247" lon="6.48687">
        <ele>1515.6</ele>
        <time>2024-08-11T08:28:34Z</time>
      </trkpt>
      <trkpt lat="44.98247" lon="6.48687">
        <ele>1515.6</ele>
        <time>2024-08-11T08:28:35Z</time>
      </trkpt>
      <trkpt lat="44.98245" lon="6.4869">
        <ele>1515.6</ele>
        <time>2024-08-11T08:28:36Z</time>
      </trkpt>
      <trkpt lat="44.98245" lon="6.4869">
        <ele>1515.4</ele>
        <time>2024-08-11T08:28:37Z</time>
      </trkpt>
      <trkpt lat="44.98243" lon="6.48694">
        <ele>1515.4</ele>
        <time>2024-08-11T08:28:38Z</time>
      </trkpt>
      <trkpt lat="44.98243" lon="6.48694">
        <ele>1515.4</ele>
        <time>2024-08-11T08:28:39Z</time>
      </trkpt>
      <trkpt lat="44.98242" lon="6.48697">
        <ele>1515.4</ele>
        <time>2024-08-11T08:28:40Z</time>
      </trkpt>
      <trkpt lat="44.98242" lon="6.48697">
        <ele>1515</ele>
        <time>2024-08-11T08:28:41Z</time>
      </trkpt>
      <trkpt lat="44.9824" lon="6.487">
        <ele>1515</ele>
        <time>2024-08-11T08:28:42Z</time>
      </trkpt>
      <trkpt lat="44.9824" lon="6.487">
        <ele>1515</ele>
        <time>2024-08-11T08:28:43Z</time>
      </trkpt>
      <trkpt lat="44.98238" lon="6.48704">
        <ele>1515</ele>
        <time>2024-08-11T08:28:44Z</time>
      </trkpt>
      <trkpt lat="44.98238" lon="6.48704">
        <ele>1515</ele>
        <time>2024-08-11T08:28:45Z</time>
      </trkpt>
      <trkpt lat="44.98236" lon="6.48706">
        <ele>1515</ele>
        <time>2024-08-11T08:28:46Z</time>
      </trkpt>
      <trkpt lat="44.98236" lon="6.48706">
        <ele>1515</ele>
        <time>2024-08-11T08:28:47Z</time>
      </trkpt>
      <trkpt lat="44.98235" lon="6.4871">
        <ele>1515</ele>
        <time>2024-08-11T08:28:48Z</time>
      </trkpt>
      <trkpt lat="44.98235" lon="6.4871">
        <ele>1515</ele>
        <time>2024-08-11T08:28:49Z</time>
      </trkpt>
      <trkpt lat="44.98234" lon="6.48713">
        <ele>1514.8</ele>
        <time>2024-08-11T08:28:50Z</time>
      </trkpt>
      <trkpt lat="44.98234" lon="6.48713">
        <ele>1514.6</ele>
        <time>2024-08-11T08:28:51Z</time>
      </trkpt>
      <trkpt lat="44.98233" lon="6.48716">
        <ele>1514.6</ele>
        <time>2024-08-11T08:28:52Z</time>
      </trkpt>
      <trkpt lat="44.98233" lon="6.48716">
        <ele>1514.6</ele>
        <time>2024-08-11T08:28:53Z</time>
      </trkpt>
      <trkpt lat="44.98233" lon="6.4872">
        <ele>1514.4</ele>
        <time>2024-08-11T08:28:54Z</time>
      </trkpt>
      <trkpt lat="44.98233" lon="6.4872">
        <ele>1514.4</ele>
        <time>2024-08-11T08:28:55Z</time>
      </trkpt>
      <trkpt lat="44.98232" lon="6.48724">
        <ele>1514.4</ele>
        <time>2024-08-11T08:28:56Z</time>
      </trkpt>
      <trkpt lat="44.98231" lon="6.48726">
        <ele>1514.4</ele>
        <time>2024-08-11T08:28:57Z</time>
      </trkpt>
      <trkpt lat="44.98231" lon="6.48726">
        <ele>1514.4</ele>
        <time>2024-08-11T08:28:58Z</time>
      </trkpt>
      <trkpt lat="44.98229" lon="6.4873">
        <ele>1514.4</ele>
        <time>2024-08-11T08:28:59Z</time>
      </trkpt>
      <trkpt lat="44.98229" lon="6.4873">
        <ele>1514.6</ele>
        <time>2024-08-11T08:29:00Z</time>
      </trkpt>
      <trkpt lat="44.98228" lon="6.48733">
        <ele>1514.6</ele>
        <time>2024-08-11T08:29:01Z</time>
      </trkpt>
      <trkpt lat="44.98228" lon="6.48733">
        <ele>1514</ele>
        <time>2024-08-11T08:29:02Z</time>
      </trkpt>
      <trkpt lat="44.98226" lon="6.48737">
        <ele>1514</ele>
        <time>2024-08-11T08:29:03Z</time>
      </trkpt>
      <trkpt lat="44.98225" lon="6.4874">
        <ele>1514</ele>
        <time>2024-08-11T08:29:04Z</time>
      </trkpt>
      <trkpt lat="44.98225" lon="6.4874">
        <ele>1514.2</ele>
        <time>2024-08-11T08:29:05Z</time>
      </trkpt>
      <trkpt lat="44.98225" lon="6.48744">
        <ele>1514.2</ele>
        <time>2024-08-11T08:29:06Z</time>
      </trkpt>
      <trkpt lat="44.98225" lon="6.48744">
        <ele>1514.2</ele>
        <time>2024-08-11T08:29:07Z</time>
      </trkpt>
      <trkpt lat="44.98224" lon="6.48747">
        <ele>1514.2</ele>
        <time>2024-08-11T08:29:08Z</time>
      </trkpt>
      <trkpt lat="44.98224" lon="6.48747">
        <ele>1514</ele>
        <time>2024-08-11T08:29:09Z</time>
      </trkpt>
      <trkpt lat="44.98224" lon="6.48751">
        <ele>1514</ele>
        <time>2024-08-11T08:29:10Z</time>
      </trkpt>
      <trkpt lat="44.98224" lon="6.48751">
        <ele>1514.4</ele>
        <time>2024-08-11T08:29:11Z</time>
      </trkpt>
      <trkpt lat="44.98224" lon="6.48755">
        <ele>1514.4</ele>
        <time>2024-08-11T08:29:12Z</time>
      </trkpt>
      <trkpt lat="44.98224" lon="6.48755">
        <ele>1514.4</ele>
        <time>2024-08-11T08:29:13Z</time>
      </trkpt>
      <trkpt lat="44.98224" lon="6.48759">
        <ele>1514.4</ele>
        <time>2024-08-11T08:29:14Z</time>
      </trkpt>
      <trkpt lat="44.98224" lon="6.48759">
        <ele>1514.4</ele>
        <time>2024-08-11T08:29:15Z</time>
      </trkpt>
      <trkpt lat="44.98224" lon="6.48763">
        <ele>1514.4</ele>
        <time>2024-08-11T08:29:16Z</time>
      </trkpt>
      <trkpt lat="44.98224" lon="6.48763">
        <ele>1514.2</ele>
        <time>2024-08-11T08:29:17Z</time>
      </trkpt>
      <trkpt lat="44.98223" lon="6.48766">
        <ele>1514</ele>
        <time>2024-08-11T08:29:18Z</time>
      </trkpt>
      <trkpt lat="44.98223" lon="6.48766">
        <ele>1514</ele>
        <time>2024-08-11T08:29:19Z</time>
      </trkpt>
      <trkpt lat="44.98223" lon="6.4877">
        <ele>1514</ele>
        <time>2024-08-11T08:29:20Z</time>
      </trkpt>
      <trkpt lat="44.98223" lon="6.4877">
        <ele>1514.2</ele>
        <time>2024-08-11T08:29:21Z</time>
      </trkpt>
      <trkpt lat="44.98221" lon="6.48773">
        <ele>1514.2</ele>
        <time>2024-08-11T08:29:22Z</time>
      </trkpt>
      <trkpt lat="44.98221" lon="6.48773">
        <ele>1514.4</ele>
        <time>2024-08-11T08:29:23Z</time>
      </trkpt>
      <trkpt lat="44.98221" lon="6.48777">
        <ele>1514.4</ele>
        <time>2024-08-11T08:29:24Z</time>
      </trkpt>
      <trkpt lat="44.98221" lon="6.48777">
        <ele>1514.4</ele>
        <time>2024-08-11T08:29:25Z</time>
      </trkpt>
      <trkpt lat="44.9822" lon="6.4878">
        <ele>1514</ele>
        <time>2024-08-11T08:29:26Z</time>
      </trkpt>
      <trkpt lat="44.9822" lon="6.4878">
        <ele>1514</ele>
        <time>2024-08-11T08:29:27Z</time>
      </trkpt>
      <trkpt lat="44.98219" lon="6.48784">
        <ele>1514.2</ele>
        <time>2024-08-11T08:29:28Z</time>
      </trkpt>
      <trkpt lat="44.98219" lon="6.48784">
        <ele>1514.2</ele>
        <time>2024-08-11T08:29:29Z</time>
      </trkpt>
      <trkpt lat="44.98218" lon="6.48787">
        <ele>1514</ele>
        <time>2024-08-11T08:29:30Z</time>
      </trkpt>
      <trkpt lat="44.98218" lon="6.48787">
        <ele>1514</ele>
        <time>2024-08-11T08:29:31Z</time>
      </trkpt>
      <trkpt lat="44.98217" lon="6.48791">
        <ele>1514</ele>
        <time>2024-08-11T08:29:32Z</time>
      </trkpt>
      <trkpt lat="44.98217" lon="6.48791">
        <ele>1514</ele>
        <time>2024-08-11T08:29:33Z</time>
      </trkpt>
      <trkpt lat="44.98216" lon="6.48795">
        <ele>1514</ele>
        <time>2024-08-11T08:29:34Z</time>
      </trkpt>
      <trkpt lat="44.98215" lon="6.48798">
        <ele>1514</ele>
        <time>2024-08-11T08:29:35Z</time>
      </trkpt>
      <trkpt lat="44.98215" lon="6.48798">
        <ele>1514</ele>
        <time>2024-08-11T08:29:36Z</time>
      </trkpt>
      <trkpt lat="44.98214" lon="6.48802">
        <ele>1513.8</ele>
        <time>2024-08-11T08:29:37Z</time>
      </trkpt>
      <trkpt lat="44.98213" lon="6.48805">
        <ele>1513.8</ele>
        <time>2024-08-11T08:29:38Z</time>
      </trkpt>
      <trkpt lat="44.98213" lon="6.48805">
        <ele>1514</ele>
        <time>2024-08-11T08:29:39Z</time>
      </trkpt>
      <trkpt lat="44.98212" lon="6.48808">
        <ele>1514</ele>
        <time>2024-08-11T08:29:40Z</time>
      </trkpt>
      <trkpt lat="44.98212" lon="6.48808">
        <ele>1514</ele>
        <time>2024-08-11T08:29:41Z</time>
      </trkpt>
      <trkpt lat="44.9821" lon="6.48812">
        <ele>1514</ele>
        <time>2024-08-11T08:29:42Z</time>
      </trkpt>
      <trkpt lat="44.9821" lon="6.48812">
        <ele>1514.4</ele>
        <time>2024-08-11T08:29:43Z</time>
      </trkpt>
      <trkpt lat="44.98209" lon="6.48815">
        <ele>1514.6</ele>
        <time>2024-08-11T08:29:44Z</time>
      </trkpt>
      <trkpt lat="44.98209" lon="6.48815">
        <ele>1514.8</ele>
        <time>2024-08-11T08:29:45Z</time>
      </trkpt>
      <trkpt lat="44.98208" lon="6.48819">
        <ele>1514.8</ele>
        <time>2024-08-11T08:29:46Z</time>
      </trkpt>
      <trkpt lat="44.98208" lon="6.48819">
        <ele>1514.8</ele>
        <time>2024-08-11T08:29:47Z</time>
      </trkpt>
      <trkpt lat="44.98207" lon="6.48823">
        <ele>1514.8</ele>
        <time>2024-08-11T08:29:48Z</time>
      </trkpt>
      <trkpt lat="44.98207" lon="6.48823">
        <ele>1515.2</ele>
        <time>2024-08-11T08:29:49Z</time>
      </trkpt>
      <trkpt lat="44.98206" lon="6.48826">
        <ele>1515.4</ele>
        <time>2024-08-11T08:29:50Z</time>
      </trkpt>
      <trkpt lat="44.98206" lon="6.48826">
        <ele>1515.4</ele>
        <time>2024-08-11T08:29:51Z</time>
      </trkpt>
      <trkpt lat="44.98204" lon="6.48829">
        <ele>1515.4</ele>
        <time>2024-08-11T08:29:52Z</time>
      </trkpt>
      <trkpt lat="44.98204" lon="6.48829">
        <ele>1515.4</ele>
        <time>2024-08-11T08:29:53Z</time>
      </trkpt>
      <trkpt lat="44.98203" lon="6.48833">
        <ele>1515.4</ele>
        <time>2024-08-11T08:29:54Z</time>
      </trkpt>
      <trkpt lat="44.98203" lon="6.48833">
        <ele>1515.6</ele>
        <time>2024-08-11T08:29:55Z</time>
      </trkpt>
      <trkpt lat="44.98203" lon="6.48833">
        <ele>1515.6</ele>
        <time>2024-08-11T08:29:56Z</time>
      </trkpt>
      <trkpt lat="44.98202" lon="6.48838">
        <ele>1515.4</ele>
        <time>2024-08-11T08:29:57Z</time>
      </trkpt>
      <trkpt lat="44.98201" lon="6.48841">
        <ele>1515.2</ele>
        <time>2024-08-11T08:29:58Z</time>
      </trkpt>
      <trkpt lat="44.98201" lon="6.48842">
        <ele>1515.2</ele>
        <time>2024-08-11T08:29:59Z</time>
      </trkpt>
      <trkpt lat="44.98201" lon="6.48844">
        <ele>1514.8</ele>
        <time>2024-08-11T08:30:00Z</time>
      </trkpt>
      <trkpt lat="44.98201" lon="6.48844">
        <ele>1514.6</ele>
        <time>2024-08-11T08:30:01Z</time>
      </trkpt>
      <trkpt lat="44.98201" lon="6.48847">
        <ele>1515</ele>
        <time>2024-08-11T08:30:02Z</time>
      </trkpt>
      <trkpt lat="44.98201" lon="6.4885">
        <ele>1515</ele>
        <time>2024-08-11T08:30:03Z</time>
      </trkpt>
      <trkpt lat="44.98201" lon="6.4885">
        <ele>1515</ele>
        <time>2024-08-11T08:30:04Z</time>
      </trkpt>
      <trkpt lat="44.98201" lon="6.4885">
        <ele>1514.8</ele>
        <time>2024-08-11T08:30:05Z</time>
      </trkpt>
      <trkpt lat="44.982" lon="6.48856">
        <ele>1514.6</ele>
        <time>2024-08-11T08:30:06Z</time>
      </trkpt>
      <trkpt lat="44.982" lon="6.48858">
        <ele>1514.2</ele>
        <time>2024-08-11T08:30:07Z</time>
      </trkpt>
      <trkpt lat="44.982" lon="6.48858">
        <ele>1513.6</ele>
        <time>2024-08-11T08:30:08Z</time>
      </trkpt>
      <trkpt lat="44.98199" lon="6.48862">
        <ele>1513.6</ele>
        <time>2024-08-11T08:30:09Z</time>
      </trkpt>
      <trkpt lat="44.98199" lon="6.48862">
        <ele>1513.4</ele>
        <time>2024-08-11T08:30:10Z</time>
      </trkpt>
      <trkpt lat="44.98198" lon="6.48865">
        <ele>1513.4</ele>
        <time>2024-08-11T08:30:11Z</time>
      </trkpt>
      <trkpt lat="44.98198" lon="6.48865">
        <ele>1513.2</ele>
        <time>2024-08-11T08:30:12Z</time>
      </trkpt>
      <trkpt lat="44.98197" lon="6.48868">
        <ele>1513.2</ele>
        <time>2024-08-11T08:30:13Z</time>
      </trkpt>
      <trkpt lat="44.98197" lon="6.48868">
        <ele>1513.2</ele>
        <time>2024-08-11T08:30:14Z</time>
      </trkpt>
      <trkpt lat="44.98197" lon="6.48868">
        <ele>1513.2</ele>
        <time>2024-08-11T08:30:15Z</time>
      </trkpt>
      <trkpt lat="44.98195" lon="6.48874">
        <ele>1513.4</ele>
        <time>2024-08-11T08:30:16Z</time>
      </trkpt>
      <trkpt lat="44.98195" lon="6.48874">
        <ele>1513.4</ele>
        <time>2024-08-11T08:30:17Z</time>
      </trkpt>
      <trkpt lat="44.98193" lon="6.48878">
        <ele>1513.2</ele>
        <time>2024-08-11T08:30:18Z</time>
      </trkpt>
      <trkpt lat="44.98193" lon="6.48879">
        <ele>1513.2</ele>
        <time>2024-08-11T08:30:19Z</time>
      </trkpt>
      <trkpt lat="44.98193" lon="6.48879">
        <ele>1513.2</ele>
        <time>2024-08-11T08:30:20Z</time>
      </trkpt>
      <trkpt lat="44.98193" lon="6.48879">
        <ele>1513.2</ele>
        <time>2024-08-11T08:30:21Z</time>
      </trkpt>
      <trkpt lat="44.9819" lon="6.48885">
        <ele>1513.2</ele>
        <time>2024-08-11T08:30:22Z</time>
      </trkpt>
      <trkpt lat="44.98189" lon="6.48887">
        <ele>1513.6</ele>
        <time>2024-08-11T08:30:23Z</time>
      </trkpt>
      <trkpt lat="44.98189" lon="6.48887">
        <ele>1513.6</ele>
        <time>2024-08-11T08:30:24Z</time>
      </trkpt>
      <trkpt lat="44.98189" lon="6.4889">
        <ele>1513.6</ele>
        <time>2024-08-11T08:30:25Z</time>
      </trkpt>
      <trkpt lat="44.98189" lon="6.4889">
        <ele>1513.6</ele>
        <time>2024-08-11T08:30:26Z</time>
      </trkpt>
      <trkpt lat="44.98187" lon="6.48894">
        <ele>1513.6</ele>
        <time>2024-08-11T08:30:27Z</time>
      </trkpt>
      <trkpt lat="44.98187" lon="6.48894">
        <ele>1513.6</ele>
        <time>2024-08-11T08:30:28Z</time>
      </trkpt>
      <trkpt lat="44.98186" lon="6.48898">
        <ele>1513.4</ele>
        <time>2024-08-11T08:30:29Z</time>
      </trkpt>
      <trkpt lat="44.98185" lon="6.489">
        <ele>1513.4</ele>
        <time>2024-08-11T08:30:30Z</time>
      </trkpt>
      <trkpt lat="44.98185" lon="6.489">
        <ele>1513.4</ele>
        <time>2024-08-11T08:30:31Z</time>
      </trkpt>
      <trkpt lat="44.98183" lon="6.48903">
        <ele>1513.4</ele>
        <time>2024-08-11T08:30:32Z</time>
      </trkpt>
      <trkpt lat="44.98183" lon="6.48903">
        <ele>1513.4</ele>
        <time>2024-08-11T08:30:33Z</time>
      </trkpt>
      <trkpt lat="44.98182" lon="6.48907">
        <ele>1513.4</ele>
        <time>2024-08-11T08:30:34Z</time>
      </trkpt>
      <trkpt lat="44.98182" lon="6.48907">
        <ele>1513.4</ele>
        <time>2024-08-11T08:30:35Z</time>
      </trkpt>
      <trkpt lat="44.98181" lon="6.4891">
        <ele>1513.4</ele>
        <time>2024-08-11T08:30:36Z</time>
      </trkpt>
      <trkpt lat="44.98181" lon="6.4891">
        <ele>1513.4</ele>
        <time>2024-08-11T08:30:37Z</time>
      </trkpt>
      <trkpt lat="44.9818" lon="6.48913">
        <ele>1513.2</ele>
        <time>2024-08-11T08:30:38Z</time>
      </trkpt>
      <trkpt lat="44.9818" lon="6.48913">
        <ele>1513.2</ele>
        <time>2024-08-11T08:30:39Z</time>
      </trkpt>
      <trkpt lat="44.98178" lon="6.48917">
        <ele>1513.2</ele>
        <time>2024-08-11T08:30:40Z</time>
      </trkpt>
      <trkpt lat="44.98178" lon="6.48917">
        <ele>1513</ele>
        <time>2024-08-11T08:30:41Z</time>
      </trkpt>
      <trkpt lat="44.98177" lon="6.48921">
        <ele>1513</ele>
        <time>2024-08-11T08:30:42Z</time>
      </trkpt>
      <trkpt lat="44.98177" lon="6.48921">
        <ele>1513</ele>
        <time>2024-08-11T08:30:43Z</time>
      </trkpt>
      <trkpt lat="44.98175" lon="6.48925">
        <ele>1513</ele>
        <time>2024-08-11T08:30:44Z</time>
      </trkpt>
      <trkpt lat="44.98173" lon="6.48927">
        <ele>1513</ele>
        <time>2024-08-11T08:30:45Z</time>
      </trkpt>
      <trkpt lat="44.98172" lon="6.48929">
        <ele>1512.8</ele>
        <time>2024-08-11T08:30:46Z</time>
      </trkpt>
      <trkpt lat="44.98172" lon="6.48929">
        <ele>1512.6</ele>
        <time>2024-08-11T08:30:47Z</time>
      </trkpt>
      <trkpt lat="44.98171" lon="6.48932">
        <ele>1512.6</ele>
        <time>2024-08-11T08:30:48Z</time>
      </trkpt>
      <trkpt lat="44.98169" lon="6.48934">
        <ele>1512.6</ele>
        <time>2024-08-11T08:30:49Z</time>
      </trkpt>
      <trkpt lat="44.98169" lon="6.48934">
        <ele>1512.6</ele>
        <time>2024-08-11T08:30:50Z</time>
      </trkpt>
      <trkpt lat="44.98167" lon="6.48937">
        <ele>1512.6</ele>
        <time>2024-08-11T08:30:51Z</time>
      </trkpt>
      <trkpt lat="44.98167" lon="6.48937">
        <ele>1512.4</ele>
        <time>2024-08-11T08:30:52Z</time>
      </trkpt>
      <trkpt lat="44.98165" lon="6.48939">
        <ele>1512.4</ele>
        <time>2024-08-11T08:30:53Z</time>
      </trkpt>
      <trkpt lat="44.98165" lon="6.48939">
        <ele>1512.4</ele>
        <time>2024-08-11T08:30:54Z</time>
      </trkpt>
      <trkpt lat="44.98163" lon="6.48942">
        <ele>1512.4</ele>
        <time>2024-08-11T08:30:55Z</time>
      </trkpt>
      <trkpt lat="44.98163" lon="6.48942">
        <ele>1512.4</ele>
        <time>2024-08-11T08:30:56Z</time>
      </trkpt>
      <trkpt lat="44.98161" lon="6.48943">
        <ele>1512.4</ele>
        <time>2024-08-11T08:30:57Z</time>
      </trkpt>
      <trkpt lat="44.98161" lon="6.48943">
        <ele>1512.4</ele>
        <time>2024-08-11T08:30:58Z</time>
      </trkpt>
      <trkpt lat="44.98159" lon="6.48947">
        <ele>1512.2</ele>
        <time>2024-08-11T08:30:59Z</time>
      </trkpt>
      <trkpt lat="44.98159" lon="6.48947">
        <ele>1512.2</ele>
        <time>2024-08-11T08:31:00Z</time>
      </trkpt>
      <trkpt lat="44.98157" lon="6.48948">
        <ele>1512.2</ele>
        <time>2024-08-11T08:31:01Z</time>
      </trkpt>
      <trkpt lat="44.98157" lon="6.48948">
        <ele>1511.6</ele>
        <time>2024-08-11T08:31:02Z</time>
      </trkpt>
      <trkpt lat="44.98155" lon="6.4895">
        <ele>1511.6</ele>
        <time>2024-08-11T08:31:03Z</time>
      </trkpt>
      <trkpt lat="44.98155" lon="6.4895">
        <ele>1511.8</ele>
        <time>2024-08-11T08:31:04Z</time>
      </trkpt>
      <trkpt lat="44.98154" lon="6.48952">
        <ele>1511.8</ele>
        <time>2024-08-11T08:31:05Z</time>
      </trkpt>
      <trkpt lat="44.98152" lon="6.48953">
        <ele>1511.8</ele>
        <time>2024-08-11T08:31:06Z</time>
      </trkpt>
      <trkpt lat="44.9815" lon="6.48953">
        <ele>1511.6</ele>
        <time>2024-08-11T08:31:07Z</time>
      </trkpt>
      <trkpt lat="44.98148" lon="6.48954">
        <ele>1511.6</ele>
        <time>2024-08-11T08:31:08Z</time>
      </trkpt>
      <trkpt lat="44.98148" lon="6.48954">
        <ele>1511.6</ele>
        <time>2024-08-11T08:31:09Z</time>
      </trkpt>
      <trkpt lat="44.98148" lon="6.48954">
        <ele>1511.6</ele>
        <time>2024-08-11T08:31:10Z</time>
      </trkpt>
      <trkpt lat="44.98143" lon="6.48955">
        <ele>1511.6</ele>
        <time>2024-08-11T08:31:11Z</time>
      </trkpt>
      <trkpt lat="44.98141" lon="6.48956">
        <ele>1511.8</ele>
        <time>2024-08-11T08:31:12Z</time>
      </trkpt>
      <trkpt lat="44.98141" lon="6.48956">
        <ele>1511.8</ele>
        <time>2024-08-11T08:31:13Z</time>
      </trkpt>
      <trkpt lat="44.98139" lon="6.48958">
        <ele>1511.6</ele>
        <time>2024-08-11T08:31:14Z</time>
      </trkpt>
      <trkpt lat="44.98139" lon="6.48958">
        <ele>1511.4</ele>
        <time>2024-08-11T08:31:15Z</time>
      </trkpt>
      <trkpt lat="44.98137" lon="6.4896">
        <ele>1511.4</ele>
        <time>2024-08-11T08:31:16Z</time>
      </trkpt>
      <trkpt lat="44.98137" lon="6.4896">
        <ele>1511.4</ele>
        <time>2024-08-11T08:31:17Z</time>
      </trkpt>
      <trkpt lat="44.98133" lon="6.48961">
        <ele>1511.4</ele>
        <time>2024-08-11T08:31:18Z</time>
      </trkpt>
      <trkpt lat="44.98131" lon="6.48961">
        <ele>1511.4</ele>
        <time>2024-08-11T08:31:19Z</time>
      </trkpt>
      <trkpt lat="44.98131" lon="6.48961">
        <ele>1511.4</ele>
        <time>2024-08-11T08:31:20Z</time>
      </trkpt>
      <trkpt lat="44.98128" lon="6.48963">
        <ele>1511.4</ele>
        <time>2024-08-11T08:31:21Z</time>
      </trkpt>
      <trkpt lat="44.98128" lon="6.48963">
        <ele>1511.6</ele>
        <time>2024-08-11T08:31:22Z</time>
      </trkpt>
      <trkpt lat="44.98128" lon="6.48963">
        <ele>1511.6</ele>
        <time>2024-08-11T08:31:23Z</time>
      </trkpt>
      <trkpt lat="44.98123" lon="6.48964">
        <ele>1511.6</ele>
        <time>2024-08-11T08:31:24Z</time>
      </trkpt>
      <trkpt lat="44.98122" lon="6.48965">
        <ele>1511.6</ele>
        <time>2024-08-11T08:31:25Z</time>
      </trkpt>
      <trkpt lat="44.98122" lon="6.48965">
        <ele>1511.6</ele>
        <time>2024-08-11T08:31:26Z</time>
      </trkpt>
      <trkpt lat="44.98122" lon="6.48965">
        <ele>1511.6</ele>
        <time>2024-08-11T08:31:27Z</time>
      </trkpt>
      <trkpt lat="44.98119" lon="6.48966">
        <ele>1511.4</ele>
        <time>2024-08-11T08:31:28Z</time>
      </trkpt>
      <trkpt lat="44.98119" lon="6.48966">
        <ele>1511.2</ele>
        <time>2024-08-11T08:31:29Z</time>
      </trkpt>
      <trkpt lat="44.98116" lon="6.48968">
        <ele>1511.2</ele>
        <time>2024-08-11T08:31:30Z</time>
      </trkpt>
      <trkpt lat="44.98115" lon="6.48969">
        <ele>1511.2</ele>
        <time>2024-08-11T08:31:31Z</time>
      </trkpt>
      <trkpt lat="44.98115" lon="6.48969">
        <ele>1511.2</ele>
        <time>2024-08-11T08:31:32Z</time>
      </trkpt>
      <trkpt lat="44.98113" lon="6.48971">
        <ele>1511</ele>
        <time>2024-08-11T08:31:33Z</time>
      </trkpt>
      <trkpt lat="44.98113" lon="6.48971">
        <ele>1511</ele>
        <time>2024-08-11T08:31:34Z</time>
      </trkpt>
      <trkpt lat="44.9811" lon="6.48974">
        <ele>1511</ele>
        <time>2024-08-11T08:31:35Z</time>
      </trkpt>
      <trkpt lat="44.9811" lon="6.48974">
        <ele>1511</ele>
        <time>2024-08-11T08:31:36Z</time>
      </trkpt>
      <trkpt lat="44.98108" lon="6.48976">
        <ele>1511</ele>
        <time>2024-08-11T08:31:37Z</time>
      </trkpt>
      <trkpt lat="44.98108" lon="6.48976">
        <ele>1510.8</ele>
        <time>2024-08-11T08:31:38Z</time>
      </trkpt>
      <trkpt lat="44.98108" lon="6.48976">
        <ele>1510.8</ele>
        <time>2024-08-11T08:31:39Z</time>
      </trkpt>
      <trkpt lat="44.98107" lon="6.4898">
        <ele>1510.8</ele>
        <time>2024-08-11T08:31:40Z</time>
      </trkpt>
      <trkpt lat="44.98107" lon="6.4898">
        <ele>1510.8</ele>
        <time>2024-08-11T08:31:41Z</time>
      </trkpt>
      <trkpt lat="44.98105" lon="6.48982">
        <ele>1510.8</ele>
        <time>2024-08-11T08:31:42Z</time>
      </trkpt>
      <trkpt lat="44.98105" lon="6.48982">
        <ele>1510.6</ele>
        <time>2024-08-11T08:31:43Z</time>
      </trkpt>
      <trkpt lat="44.98105" lon="6.48982">
        <ele>1510.4</ele>
        <time>2024-08-11T08:31:44Z</time>
      </trkpt>
      <trkpt lat="44.98103" lon="6.48985">
        <ele>1510.4</ele>
        <time>2024-08-11T08:31:45Z</time>
      </trkpt>
      <trkpt lat="44.98103" lon="6.48985">
        <ele>1510.4</ele>
        <time>2024-08-11T08:31:46Z</time>
      </trkpt>
      <trkpt lat="44.98103" lon="6.48985">
        <ele>1510.4</ele>
        <time>2024-08-11T08:31:47Z</time>
      </trkpt>
      <trkpt lat="44.98102" lon="6.48986">
        <ele>1510.4</ele>
        <time>2024-08-11T08:31:48Z</time>
      </trkpt>
      <trkpt lat="44.98102" lon="6.48986">
        <ele>1510.4</ele>
        <time>2024-08-11T08:31:49Z</time>
      </trkpt>
      <trkpt lat="44.98102" lon="6.48986">
        <ele>1510.4</ele>
        <time>2024-08-11T08:31:50Z</time>
      </trkpt>
      <trkpt lat="44.98102" lon="6.48986">
        <ele>1510.4</ele>
        <time>2024-08-11T08:31:51Z</time>
      </trkpt>
      <trkpt lat="44.98102" lon="6.48986">
        <ele>1510.4</ele>
        <time>2024-08-11T08:31:52Z</time>
      </trkpt>
      <trkpt lat="44.98102" lon="6.48986">
        <ele>1510.4</ele>
        <time>2024-08-11T08:31:53Z</time>
      </trkpt>
      <trkpt lat="44.98102" lon="6.48986">
        <ele>1510.4</ele>
        <time>2024-08-11T08:31:54Z</time>
      </trkpt>
      <trkpt lat="44.98102" lon="6.48986">
        <ele>1510.4</ele>
        <time>2024-08-11T08:31:55Z</time>
      </trkpt>
      <trkpt lat="44.98102" lon="6.48986">
        <ele>1510.4</ele>
        <time>2024-08-11T08:31:56Z</time>
      </trkpt>
      <trkpt lat="44.98102" lon="6.48986">
        <ele>1510.4</ele>
        <time>2024-08-11T08:31:57Z</time>
      </trkpt>
      <trkpt lat="44.98102" lon="6.48986">
        <ele>1510.4</ele>
        <time>2024-08-11T08:31:58Z</time>
      </trkpt>
      <trkpt lat="44.98102" lon="6.48986">
        <ele>1510.4</ele>
        <time>2024-08-11T08:31:59Z</time>
      </trkpt>
      <trkpt lat="44.98102" lon="6.48986">
        <ele>1510.2</ele>
        <time>2024-08-11T08:32:00Z</time>
      </trkpt>
      <trkpt lat="44.98102" lon="6.48986">
        <ele>1510.2</ele>
        <time>2024-08-11T08:32:01Z</time>
      </trkpt>
      <trkpt lat="44.98102" lon="6.48986">
        <ele>1510.2</ele>
        <time>2024-08-11T08:32:02Z</time>
      </trkpt>
      <trkpt lat="44.98102" lon="6.48986">
        <ele>1510.2</ele>
        <time>2024-08-11T08:32:03Z</time>
      </trkpt>
      <trkpt lat="44.98102" lon="6.48986">
        <ele>1510.2</ele>
        <time>2024-08-11T08:32:04Z</time>
      </trkpt>
      <trkpt lat="44.98102" lon="6.48986">
        <ele>1510.2</ele>
        <time>2024-08-11T08:32:05Z</time>
      </trkpt>
      <trkpt lat="44.98102" lon="6.48986">
        <ele>1510</ele>
        <time>2024-08-11T08:32:06Z</time>
      </trkpt>
      <trkpt lat="44.98102" lon="6.48986">
        <ele>1510</ele>
        <time>2024-08-11T08:32:07Z</time>
      </trkpt>
      <trkpt lat="44.98102" lon="6.48986">
        <ele>1510</ele>
        <time>2024-08-11T08:32:08Z</time>
      </trkpt>
      <trkpt lat="44.98102" lon="6.48986">
        <ele>1510</ele>
        <time>2024-08-11T08:32:09Z</time>
      </trkpt>
      <trkpt lat="44.98102" lon="6.48986">
        <ele>1510.2</ele>
        <time>2024-08-11T08:32:10Z</time>
      </trkpt>
      <trkpt lat="44.98102" lon="6.48986">
        <ele>1510.2</ele>
        <time>2024-08-11T08:32:11Z</time>
      </trkpt>
      <trkpt lat="44.98102" lon="6.48986">
        <ele>1510.2</ele>
        <time>2024-08-11T08:32:12Z</time>
      </trkpt>
      <trkpt lat="44.98102" lon="6.48986">
        <ele>1510.2</ele>
        <time>2024-08-11T08:32:13Z</time>
      </trkpt>
      <trkpt lat="44.98102" lon="6.48986">
        <ele>1510.2</ele>
        <time>2024-08-11T08:32:14Z</time>
      </trkpt>
      <trkpt lat="44.98102" lon="6.48986">
        <ele>1510.4</ele>
        <time>2024-08-11T08:32:15Z</time>
      </trkpt>
      <trkpt lat="44.98102" lon="6.48986">
        <ele>1510.4</ele>
        <time>2024-08-11T08:32:16Z</time>
      </trkpt>
      <trkpt lat="44.98102" lon="6.48986">
        <ele>1510</ele>
        <time>2024-08-11T08:32:17Z</time>
      </trkpt>
      <trkpt lat="44.981" lon="6.48986">
        <ele>1510</ele>
        <time>2024-08-11T08:32:18Z</time>
      </trkpt>
      <trkpt lat="44.98098" lon="6.48986">
        <ele>1510.2</ele>
        <time>2024-08-11T08:32:19Z</time>
      </trkpt>
      <trkpt lat="44.98098" lon="6.48986">
        <ele>1510.2</ele>
        <time>2024-08-11T08:32:20Z</time>
      </trkpt>
      <trkpt lat="44.98096" lon="6.48988">
        <ele>1510.2</ele>
        <time>2024-08-11T08:32:21Z</time>
      </trkpt>
      <trkpt lat="44.98096" lon="6.48988">
        <ele>1510.2</ele>
        <time>2024-08-11T08:32:22Z</time>
      </trkpt>
      <trkpt lat="44.98093" lon="6.48989">
        <ele>1510.2</ele>
        <time>2024-08-11T08:32:23Z</time>
      </trkpt>
      <trkpt lat="44.98093" lon="6.48989">
        <ele>1510.2</ele>
        <time>2024-08-11T08:32:24Z</time>
      </trkpt>
      <trkpt lat="44.98091" lon="6.48991">
        <ele>1510.2</ele>
        <time>2024-08-11T08:32:25Z</time>
      </trkpt>
      <trkpt lat="44.98091" lon="6.48991">
        <ele>1510.2</ele>
        <time>2024-08-11T08:32:26Z</time>
      </trkpt>
      <trkpt lat="44.98088" lon="6.48992">
        <ele>1510.2</ele>
        <time>2024-08-11T08:32:27Z</time>
      </trkpt>
      <trkpt lat="44.98086" lon="6.48993">
        <ele>1510.2</ele>
        <time>2024-08-11T08:32:28Z</time>
      </trkpt>
      <trkpt lat="44.98084" lon="6.48994">
        <ele>1510.2</ele>
        <time>2024-08-11T08:32:29Z</time>
      </trkpt>
      <trkpt lat="44.98084" lon="6.48994">
        <ele>1510.2</ele>
        <time>2024-08-11T08:32:30Z</time>
      </trkpt>
      <trkpt lat="44.9808" lon="6.48996">
        <ele>1510.2</ele>
        <time>2024-08-11T08:32:31Z</time>
      </trkpt>
      <trkpt lat="44.9808" lon="6.48996">
        <ele>1510.2</ele>
        <time>2024-08-11T08:32:32Z</time>
      </trkpt>
      <trkpt lat="44.98078" lon="6.48999">
        <ele>1510.2</ele>
        <time>2024-08-11T08:32:33Z</time>
      </trkpt>
      <trkpt lat="44.98078" lon="6.48999">
        <ele>1510.2</ele>
        <time>2024-08-11T08:32:34Z</time>
      </trkpt>
      <trkpt lat="44.98077" lon="6.49002">
        <ele>1510.2</ele>
        <time>2024-08-11T08:32:35Z</time>
      </trkpt>
      <trkpt lat="44.98077" lon="6.49002">
        <ele>1510.2</ele>
        <time>2024-08-11T08:32:36Z</time>
      </trkpt>
      <trkpt lat="44.98076" lon="6.49005">
        <ele>1510.2</ele>
        <time>2024-08-11T08:32:37Z</time>
      </trkpt>
      <trkpt lat="44.98076" lon="6.49005">
        <ele>1510</ele>
        <time>2024-08-11T08:32:38Z</time>
      </trkpt>
      <trkpt lat="44.98074" lon="6.49007">
        <ele>1510</ele>
        <time>2024-08-11T08:32:39Z</time>
      </trkpt>
      <trkpt lat="44.98074" lon="6.49007">
        <ele>1510</ele>
        <time>2024-08-11T08:32:40Z</time>
      </trkpt>
      <trkpt lat="44.98072" lon="6.4901">
        <ele>1510.2</ele>
        <time>2024-08-11T08:32:41Z</time>
      </trkpt>
      <trkpt lat="44.98072" lon="6.4901">
        <ele>1510.2</ele>
        <time>2024-08-11T08:32:42Z</time>
      </trkpt>
      <trkpt lat="44.9807" lon="6.49012">
        <ele>1510</ele>
        <time>2024-08-11T08:32:43Z</time>
      </trkpt>
      <trkpt lat="44.9807" lon="6.49012">
        <ele>1509.8</ele>
        <time>2024-08-11T08:32:44Z</time>
      </trkpt>
      <trkpt lat="44.98068" lon="6.49015">
        <ele>1509.8</ele>
        <time>2024-08-11T08:32:45Z</time>
      </trkpt>
      <trkpt lat="44.98066" lon="6.49017">
        <ele>1509.8</ele>
        <time>2024-08-11T08:32:46Z</time>
      </trkpt>
      <trkpt lat="44.98063" lon="6.49019">
        <ele>1509.8</ele>
        <time>2024-08-11T08:32:47Z</time>
      </trkpt>
      <trkpt lat="44.98061" lon="6.4902">
        <ele>1509.8</ele>
        <time>2024-08-11T08:32:48Z</time>
      </trkpt>
      <trkpt lat="44.9806" lon="6.49021">
        <ele>1510</ele>
        <time>2024-08-11T08:32:49Z</time>
      </trkpt>
      <trkpt lat="44.98058" lon="6.49023">
        <ele>1510</ele>
        <time>2024-08-11T08:32:50Z</time>
      </trkpt>
      <trkpt lat="44.98057" lon="6.49025">
        <ele>1510</ele>
        <time>2024-08-11T08:32:51Z</time>
      </trkpt>
      <trkpt lat="44.98057" lon="6.49025">
        <ele>1510.2</ele>
        <time>2024-08-11T08:32:52Z</time>
      </trkpt>
      <trkpt lat="44.98054" lon="6.49028">
        <ele>1510.2</ele>
        <time>2024-08-11T08:32:53Z</time>
      </trkpt>
      <trkpt lat="44.98054" lon="6.49028">
        <ele>1510.2</ele>
        <time>2024-08-11T08:32:54Z</time>
      </trkpt>
      <trkpt lat="44.98052" lon="6.49031">
        <ele>1510</ele>
        <time>2024-08-11T08:32:55Z</time>
      </trkpt>
      <trkpt lat="44.98052" lon="6.49031">
        <ele>1510</ele>
        <time>2024-08-11T08:32:56Z</time>
      </trkpt>
      <trkpt lat="44.9805" lon="6.49034">
        <ele>1509.6</ele>
        <time>2024-08-11T08:32:57Z</time>
      </trkpt>
      <trkpt lat="44.9805" lon="6.49034">
        <ele>1509.4</ele>
        <time>2024-08-11T08:32:58Z</time>
      </trkpt>
      <trkpt lat="44.98048" lon="6.49037">
        <ele>1509.4</ele>
        <time>2024-08-11T08:32:59Z</time>
      </trkpt>
      <trkpt lat="44.98048" lon="6.49037">
        <ele>1509.2</ele>
        <time>2024-08-11T08:33:00Z</time>
      </trkpt>
      <trkpt lat="44.98046" lon="6.49041">
        <ele>1508.8</ele>
        <time>2024-08-11T08:33:01Z</time>
      </trkpt>
      <trkpt lat="44.98046" lon="6.49041">
        <ele>1508.4</ele>
        <time>2024-08-11T08:33:02Z</time>
      </trkpt>
      <trkpt lat="44.98044" lon="6.49044">
        <ele>1508.4</ele>
        <time>2024-08-11T08:33:03Z</time>
      </trkpt>
      <trkpt lat="44.98044" lon="6.49044">
        <ele>1508.4</ele>
        <time>2024-08-11T08:33:04Z</time>
      </trkpt>
      <trkpt lat="44.98043" lon="6.49048">
        <ele>1508.2</ele>
        <time>2024-08-11T08:33:05Z</time>
      </trkpt>
      <trkpt lat="44.98043" lon="6.49048">
        <ele>1508</ele>
        <time>2024-08-11T08:33:06Z</time>
      </trkpt>
      <trkpt lat="44.98042" lon="6.49052">
        <ele>1508</ele>
        <time>2024-08-11T08:33:07Z</time>
      </trkpt>
      <trkpt lat="44.98042" lon="6.49052">
        <ele>1507.8</ele>
        <time>2024-08-11T08:33:08Z</time>
      </trkpt>
      <trkpt lat="44.98041" lon="6.49056">
        <ele>1507.6</ele>
        <time>2024-08-11T08:33:09Z</time>
      </trkpt>
      <trkpt lat="44.98041" lon="6.49056">
        <ele>1507.6</ele>
        <time>2024-08-11T08:33:10Z</time>
      </trkpt>
      <trkpt lat="44.9804" lon="6.4906">
        <ele>1507.4</ele>
        <time>2024-08-11T08:33:11Z</time>
      </trkpt>
      <trkpt lat="44.9804" lon="6.4906">
        <ele>1507.2</ele>
        <time>2024-08-11T08:33:12Z</time>
      </trkpt>
      <trkpt lat="44.9804" lon="6.49064">
        <ele>1507</ele>
        <time>2024-08-11T08:33:13Z</time>
      </trkpt>
      <trkpt lat="44.9804" lon="6.49064">
        <ele>1507</ele>
        <time>2024-08-11T08:33:14Z</time>
      </trkpt>
      <trkpt lat="44.9804" lon="6.49068">
        <ele>1507</ele>
        <time>2024-08-11T08:33:15Z</time>
      </trkpt>
      <trkpt lat="44.9804" lon="6.49068">
        <ele>1506.8</ele>
        <time>2024-08-11T08:33:16Z</time>
      </trkpt>
      <trkpt lat="44.9804" lon="6.49072">
        <ele>1506.6</ele>
        <time>2024-08-11T08:33:17Z</time>
      </trkpt>
      <trkpt lat="44.9804" lon="6.49072">
        <ele>1506.6</ele>
        <time>2024-08-11T08:33:18Z</time>
      </trkpt>
      <trkpt lat="44.98039" lon="6.49076">
        <ele>1506.6</ele>
        <time>2024-08-11T08:33:19Z</time>
      </trkpt>
      <trkpt lat="44.98039" lon="6.49076">
        <ele>1506.6</ele>
        <time>2024-08-11T08:33:20Z</time>
      </trkpt>
      <trkpt lat="44.98039" lon="6.4908">
        <ele>1506.6</ele>
        <time>2024-08-11T08:33:21Z</time>
      </trkpt>
      <trkpt lat="44.98039" lon="6.4908">
        <ele>1506.8</ele>
        <time>2024-08-11T08:33:22Z</time>
      </trkpt>
      <trkpt lat="44.98039" lon="6.4908">
        <ele>1506.8</ele>
        <time>2024-08-11T08:33:23Z</time>
      </trkpt>
      <trkpt lat="44.98038" lon="6.49086">
        <ele>1506.8</ele>
        <time>2024-08-11T08:33:24Z</time>
      </trkpt>
      <trkpt lat="44.98038" lon="6.49088">
        <ele>1506.8</ele>
        <time>2024-08-11T08:33:25Z</time>
      </trkpt>
      <trkpt lat="44.98038" lon="6.49088">
        <ele>1506.8</ele>
        <time>2024-08-11T08:33:26Z</time>
      </trkpt>
      <trkpt lat="44.98037" lon="6.49093">
        <ele>1506.8</ele>
        <time>2024-08-11T08:33:27Z</time>
      </trkpt>
      <trkpt lat="44.98037" lon="6.49093">
        <ele>1506.8</ele>
        <time>2024-08-11T08:33:28Z</time>
      </trkpt>
      <trkpt lat="44.98036" lon="6.49097">
        <ele>1506.8</ele>
        <time>2024-08-11T08:33:29Z</time>
      </trkpt>
      <trkpt lat="44.98036" lon="6.49097">
        <ele>1507</ele>
        <time>2024-08-11T08:33:30Z</time>
      </trkpt>
      <trkpt lat="44.98036" lon="6.491">
        <ele>1507</ele>
        <time>2024-08-11T08:33:31Z</time>
      </trkpt>
      <trkpt lat="44.98036" lon="6.491">
        <ele>1507</ele>
        <time>2024-08-11T08:33:32Z</time>
      </trkpt>
      <trkpt lat="44.98036" lon="6.49103">
        <ele>1507</ele>
        <time>2024-08-11T08:33:33Z</time>
      </trkpt>
      <trkpt lat="44.98036" lon="6.49103">
        <ele>1507</ele>
        <time>2024-08-11T08:33:34Z</time>
      </trkpt>
      <trkpt lat="44.98035" lon="6.49107">
        <ele>1506.6</ele>
        <time>2024-08-11T08:33:35Z</time>
      </trkpt>
      <trkpt lat="44.98035" lon="6.49107">
        <ele>1506.6</ele>
        <time>2024-08-11T08:33:36Z</time>
      </trkpt>
      <trkpt lat="44.98034" lon="6.4911">
        <ele>1506.6</ele>
        <time>2024-08-11T08:33:37Z</time>
      </trkpt>
      <trkpt lat="44.98034" lon="6.4911">
        <ele>1506.6</ele>
        <time>2024-08-11T08:33:38Z</time>
      </trkpt>
      <trkpt lat="44.98034" lon="6.49114">
        <ele>1506.6</ele>
        <time>2024-08-11T08:33:39Z</time>
      </trkpt>
      <trkpt lat="44.98036" lon="6.49116">
        <ele>1506.6</ele>
        <time>2024-08-11T08:33:40Z</time>
      </trkpt>
      <trkpt lat="44.98036" lon="6.49116">
        <ele>1506.6</ele>
        <time>2024-08-11T08:33:41Z</time>
      </trkpt>
      <trkpt lat="44.98036" lon="6.49121">
        <ele>1506.6</ele>
        <time>2024-08-11T08:33:42Z</time>
      </trkpt>
      <trkpt lat="44.98036" lon="6.49121">
        <ele>1506.4</ele>
        <time>2024-08-11T08:33:43Z</time>
      </trkpt>
      <trkpt lat="44.98036" lon="6.49125">
        <ele>1506.4</ele>
        <time>2024-08-11T08:33:44Z</time>
      </trkpt>
      <trkpt lat="44.98036" lon="6.49125">
        <ele>1506.6</ele>
        <time>2024-08-11T08:33:45Z</time>
      </trkpt>
      <trkpt lat="44.98036" lon="6.49128">
        <ele>1506.6</ele>
        <time>2024-08-11T08:33:46Z</time>
      </trkpt>
      <trkpt lat="44.98036" lon="6.49128">
        <ele>1506.6</ele>
        <time>2024-08-11T08:33:47Z</time>
      </trkpt>
      <trkpt lat="44.98037" lon="6.49133">
        <ele>1506.6</ele>
        <time>2024-08-11T08:33:48Z</time>
      </trkpt>
      <trkpt lat="44.98037" lon="6.49133">
        <ele>1506.6</ele>
        <time>2024-08-11T08:33:49Z</time>
      </trkpt>
      <trkpt lat="44.98038" lon="6.49137">
        <ele>1506.6</ele>
        <time>2024-08-11T08:33:50Z</time>
      </trkpt>
      <trkpt lat="44.98038" lon="6.49137">
        <ele>1506.8</ele>
        <time>2024-08-11T08:33:51Z</time>
      </trkpt>
      <trkpt lat="44.98038" lon="6.49141">
        <ele>1506.8</ele>
        <time>2024-08-11T08:33:52Z</time>
      </trkpt>
      <trkpt lat="44.98038" lon="6.49141">
        <ele>1506.6</ele>
        <time>2024-08-11T08:33:53Z</time>
      </trkpt>
      <trkpt lat="44.98037" lon="6.49145">
        <ele>1506.6</ele>
        <time>2024-08-11T08:33:54Z</time>
      </trkpt>
      <trkpt lat="44.98037" lon="6.49145">
        <ele>1506.6</ele>
        <time>2024-08-11T08:33:55Z</time>
      </trkpt>
      <trkpt lat="44.98036" lon="6.49149">
        <ele>1506.6</ele>
        <time>2024-08-11T08:33:56Z</time>
      </trkpt>
      <trkpt lat="44.98036" lon="6.49149">
        <ele>1506.8</ele>
        <time>2024-08-11T08:33:57Z</time>
      </trkpt>
      <trkpt lat="44.98036" lon="6.49153">
        <ele>1506.8</ele>
        <time>2024-08-11T08:33:58Z</time>
      </trkpt>
      <trkpt lat="44.98036" lon="6.49153">
        <ele>1506.8</ele>
        <time>2024-08-11T08:33:59Z</time>
      </trkpt>
      <trkpt lat="44.98034" lon="6.49157">
        <ele>1506.8</ele>
        <time>2024-08-11T08:34:00Z</time>
      </trkpt>
      <trkpt lat="44.98034" lon="6.49157">
        <ele>1506.8</ele>
        <time>2024-08-11T08:34:01Z</time>
      </trkpt>
      <trkpt lat="44.98033" lon="6.49161">
        <ele>1506.8</ele>
        <time>2024-08-11T08:34:02Z</time>
      </trkpt>
      <trkpt lat="44.98033" lon="6.49161">
        <ele>1506.8</ele>
        <time>2024-08-11T08:34:03Z</time>
      </trkpt>
      <trkpt lat="44.98032" lon="6.49165">
        <ele>1506.8</ele>
        <time>2024-08-11T08:34:04Z</time>
      </trkpt>
      <trkpt lat="44.98032" lon="6.49165">
        <ele>1506.6</ele>
        <time>2024-08-11T08:34:05Z</time>
      </trkpt>
      <trkpt lat="44.98031" lon="6.49168">
        <ele>1506.4</ele>
        <time>2024-08-11T08:34:06Z</time>
      </trkpt>
      <trkpt lat="44.98031" lon="6.49168">
        <ele>1506.4</ele>
        <time>2024-08-11T08:34:07Z</time>
      </trkpt>
      <trkpt lat="44.9803" lon="6.49171">
        <ele>1506.4</ele>
        <time>2024-08-11T08:34:08Z</time>
      </trkpt>
      <trkpt lat="44.9803" lon="6.49171">
        <ele>1506.4</ele>
        <time>2024-08-11T08:34:09Z</time>
      </trkpt>
      <trkpt lat="44.98029" lon="6.49175">
        <ele>1506.4</ele>
        <time>2024-08-11T08:34:10Z</time>
      </trkpt>
      <trkpt lat="44.98029" lon="6.49175">
        <ele>1506.4</ele>
        <time>2024-08-11T08:34:11Z</time>
      </trkpt>
      <trkpt lat="44.98028" lon="6.49179">
        <ele>1506.4</ele>
        <time>2024-08-11T08:34:12Z</time>
      </trkpt>
      <trkpt lat="44.98027" lon="6.49181">
        <ele>1506.4</ele>
        <time>2024-08-11T08:34:13Z</time>
      </trkpt>
      <trkpt lat="44.98027" lon="6.49181">
        <ele>1506.4</ele>
        <time>2024-08-11T08:34:14Z</time>
      </trkpt>
      <trkpt lat="44.98026" lon="6.49185">
        <ele>1506.2</ele>
        <time>2024-08-11T08:34:15Z</time>
      </trkpt>
      <trkpt lat="44.98026" lon="6.49185">
        <ele>1505.8</ele>
        <time>2024-08-11T08:34:16Z</time>
      </trkpt>
      <trkpt lat="44.98024" lon="6.49188">
        <ele>1505.8</ele>
        <time>2024-08-11T08:34:17Z</time>
      </trkpt>
      <trkpt lat="44.98024" lon="6.49188">
        <ele>1505.8</ele>
        <time>2024-08-11T08:34:18Z</time>
      </trkpt>
      <trkpt lat="44.98023" lon="6.49191">
        <ele>1505.8</ele>
        <time>2024-08-11T08:34:19Z</time>
      </trkpt>
      <trkpt lat="44.98023" lon="6.49191">
        <ele>1505.8</ele>
        <time>2024-08-11T08:34:20Z</time>
      </trkpt>
      <trkpt lat="44.98021" lon="6.49195">
        <ele>1505.8</ele>
        <time>2024-08-11T08:34:21Z</time>
      </trkpt>
      <trkpt lat="44.98021" lon="6.49195">
        <ele>1505.6</ele>
        <time>2024-08-11T08:34:22Z</time>
      </trkpt>
      <trkpt lat="44.9802" lon="6.49198">
        <ele>1505.6</ele>
        <time>2024-08-11T08:34:23Z</time>
      </trkpt>
      <trkpt lat="44.9802" lon="6.49198">
        <ele>1505.8</ele>
        <time>2024-08-11T08:34:24Z</time>
      </trkpt>
      <trkpt lat="44.98019" lon="6.49202">
        <ele>1505.8</ele>
        <time>2024-08-11T08:34:25Z</time>
      </trkpt>
      <trkpt lat="44.98019" lon="6.49202">
        <ele>1505.8</ele>
        <time>2024-08-11T08:34:26Z</time>
      </trkpt>
      <trkpt lat="44.98018" lon="6.49206">
        <ele>1505.8</ele>
        <time>2024-08-11T08:34:27Z</time>
      </trkpt>
      <trkpt lat="44.98016" lon="6.49206">
        <ele>1505.8</ele>
        <time>2024-08-11T08:34:28Z</time>
      </trkpt>
      <trkpt lat="44.98016" lon="6.49206">
        <ele>1505.8</ele>
        <time>2024-08-11T08:34:29Z</time>
      </trkpt>
      <trkpt lat="44.98013" lon="6.49208">
        <ele>1505.8</ele>
        <time>2024-08-11T08:34:30Z</time>
      </trkpt>
      <trkpt lat="44.98013" lon="6.49208">
        <ele>1505.8</ele>
        <time>2024-08-11T08:34:31Z</time>
      </trkpt>
      <trkpt lat="44.98011" lon="6.4921">
        <ele>1505.6</ele>
        <time>2024-08-11T08:34:32Z</time>
      </trkpt>
      <trkpt lat="44.98011" lon="6.4921">
        <ele>1505.6</ele>
        <time>2024-08-11T08:34:33Z</time>
      </trkpt>
      <trkpt lat="44.98009" lon="6.49213">
        <ele>1505.6</ele>
        <time>2024-08-11T08:34:34Z</time>
      </trkpt>
      <trkpt lat="44.98009" lon="6.49213">
        <ele>1505.6</ele>
        <time>2024-08-11T08:34:35Z</time>
      </trkpt>
      <trkpt lat="44.98008" lon="6.49217">
        <ele>1505.8</ele>
        <time>2024-08-11T08:34:36Z</time>
      </trkpt>
      <trkpt lat="44.98008" lon="6.49217">
        <ele>1505.8</ele>
        <time>2024-08-11T08:34:37Z</time>
      </trkpt>
      <trkpt lat="44.98006" lon="6.4922">
        <ele>1505.8</ele>
        <time>2024-08-11T08:34:38Z</time>
      </trkpt>
      <trkpt lat="44.98006" lon="6.4922">
        <ele>1505.6</ele>
        <time>2024-08-11T08:34:39Z</time>
      </trkpt>
      <trkpt lat="44.98005" lon="6.49223">
        <ele>1505.6</ele>
        <time>2024-08-11T08:34:40Z</time>
      </trkpt>
      <trkpt lat="44.98005" lon="6.49223">
        <ele>1505.6</ele>
        <time>2024-08-11T08:34:41Z</time>
      </trkpt>
      <trkpt lat="44.98003" lon="6.49226">
        <ele>1505.6</ele>
        <time>2024-08-11T08:34:42Z</time>
      </trkpt>
      <trkpt lat="44.98003" lon="6.49226">
        <ele>1505.6</ele>
        <time>2024-08-11T08:34:43Z</time>
      </trkpt>
      <trkpt lat="44.98" lon="6.49229">
        <ele>1505.4</ele>
        <time>2024-08-11T08:34:44Z</time>
      </trkpt>
      <trkpt lat="44.98" lon="6.49229">
        <ele>1505.4</ele>
        <time>2024-08-11T08:34:45Z</time>
      </trkpt>
      <trkpt lat="44.97998" lon="6.49233">
        <ele>1505.4</ele>
        <time>2024-08-11T08:34:46Z</time>
      </trkpt>
      <trkpt lat="44.97998" lon="6.49233">
        <ele>1505.4</ele>
        <time>2024-08-11T08:34:47Z</time>
      </trkpt>
      <trkpt lat="44.97996" lon="6.49236">
        <ele>1505.4</ele>
        <time>2024-08-11T08:34:48Z</time>
      </trkpt>
      <trkpt lat="44.97996" lon="6.49236">
        <ele>1505.4</ele>
        <time>2024-08-11T08:34:49Z</time>
      </trkpt>
      <trkpt lat="44.97993" lon="6.49238">
        <ele>1505.4</ele>
        <time>2024-08-11T08:34:50Z</time>
      </trkpt>
      <trkpt lat="44.97993" lon="6.49238">
        <ele>1505.2</ele>
        <time>2024-08-11T08:34:51Z</time>
      </trkpt>
      <trkpt lat="44.97992" lon="6.49241">
        <ele>1505.2</ele>
        <time>2024-08-11T08:34:52Z</time>
      </trkpt>
      <trkpt lat="44.97992" lon="6.49241">
        <ele>1505.2</ele>
        <time>2024-08-11T08:34:53Z</time>
      </trkpt>
      <trkpt lat="44.9799" lon="6.49244">
        <ele>1505.2</ele>
        <time>2024-08-11T08:34:54Z</time>
      </trkpt>
      <trkpt lat="44.9799" lon="6.49244">
        <ele>1505</ele>
        <time>2024-08-11T08:34:55Z</time>
      </trkpt>
      <trkpt lat="44.97989" lon="6.49247">
        <ele>1505</ele>
        <time>2024-08-11T08:34:56Z</time>
      </trkpt>
      <trkpt lat="44.97989" lon="6.49247">
        <ele>1505</ele>
        <time>2024-08-11T08:34:57Z</time>
      </trkpt>
      <trkpt lat="44.97989" lon="6.49251">
        <ele>1505</ele>
        <time>2024-08-11T08:34:58Z</time>
      </trkpt>
      <trkpt lat="44.97989" lon="6.49251">
        <ele>1505</ele>
        <time>2024-08-11T08:34:59Z</time>
      </trkpt>
      <trkpt lat="44.97987" lon="6.49255">
        <ele>1505</ele>
        <time>2024-08-11T08:35:00Z</time>
      </trkpt>
      <trkpt lat="44.97987" lon="6.49255">
        <ele>1504.8</ele>
        <time>2024-08-11T08:35:01Z</time>
      </trkpt>
      <trkpt lat="44.97986" lon="6.49258">
        <ele>1504.6</ele>
        <time>2024-08-11T08:35:02Z</time>
      </trkpt>
      <trkpt lat="44.97986" lon="6.49258">
        <ele>1504.6</ele>
        <time>2024-08-11T08:35:03Z</time>
      </trkpt>
      <trkpt lat="44.97985" lon="6.49262">
        <ele>1504.6</ele>
        <time>2024-08-11T08:35:04Z</time>
      </trkpt>
      <trkpt lat="44.97985" lon="6.49262">
        <ele>1504.6</ele>
        <time>2024-08-11T08:35:05Z</time>
      </trkpt>
      <trkpt lat="44.97984" lon="6.49265">
        <ele>1504.6</ele>
        <time>2024-08-11T08:35:06Z</time>
      </trkpt>
      <trkpt lat="44.97984" lon="6.49265">
        <ele>1504.6</ele>
        <time>2024-08-11T08:35:07Z</time>
      </trkpt>
      <trkpt lat="44.97984" lon="6.4927">
        <ele>1504.6</ele>
        <time>2024-08-11T08:35:08Z</time>
      </trkpt>
      <trkpt lat="44.97984" lon="6.4927">
        <ele>1504.4</ele>
        <time>2024-08-11T08:35:09Z</time>
      </trkpt>
      <trkpt lat="44.97982" lon="6.49274">
        <ele>1504.2</ele>
        <time>2024-08-11T08:35:10Z</time>
      </trkpt>
      <trkpt lat="44.97982" lon="6.49274">
        <ele>1504.2</ele>
        <time>2024-08-11T08:35:11Z</time>
      </trkpt>
      <trkpt lat="44.97981" lon="6.49278">
        <ele>1504.2</ele>
        <time>2024-08-11T08:35:12Z</time>
      </trkpt>
      <trkpt lat="44.97981" lon="6.4928">
        <ele>1504.2</ele>
        <time>2024-08-11T08:35:13Z</time>
      </trkpt>
      <trkpt lat="44.97981" lon="6.4928">
        <ele>1504.2</ele>
        <time>2024-08-11T08:35:14Z</time>
      </trkpt>
      <trkpt lat="44.97979" lon="6.49284">
        <ele>1504.4</ele>
        <time>2024-08-11T08:35:15Z</time>
      </trkpt>
      <trkpt lat="44.97979" lon="6.49284">
        <ele>1504.4</ele>
        <time>2024-08-11T08:35:16Z</time>
      </trkpt>
      <trkpt lat="44.97979" lon="6.49284">
        <ele>1504.4</ele>
        <time>2024-08-11T08:35:17Z</time>
      </trkpt>
      <trkpt lat="44.97976" lon="6.4929">
        <ele>1504.4</ele>
        <time>2024-08-11T08:35:18Z</time>
      </trkpt>
      <trkpt lat="44.97975" lon="6.49291">
        <ele>1504.4</ele>
        <time>2024-08-11T08:35:19Z</time>
      </trkpt>
      <trkpt lat="44.97974" lon="6.49293">
        <ele>1504.4</ele>
        <time>2024-08-11T08:35:20Z</time>
      </trkpt>
      <trkpt lat="44.97974" lon="6.49293">
        <ele>1504.4</ele>
        <time>2024-08-11T08:35:21Z</time>
      </trkpt>
      <trkpt lat="44.97972" lon="6.49297">
        <ele>1504.2</ele>
        <time>2024-08-11T08:35:22Z</time>
      </trkpt>
      <trkpt lat="44.97972" lon="6.49297">
        <ele>1504.2</ele>
        <time>2024-08-11T08:35:23Z</time>
      </trkpt>
      <trkpt lat="44.97971" lon="6.49301">
        <ele>1504</ele>
        <time>2024-08-11T08:35:24Z</time>
      </trkpt>
      <trkpt lat="44.97971" lon="6.49301">
        <ele>1504</ele>
        <time>2024-08-11T08:35:25Z</time>
      </trkpt>
      <trkpt lat="44.97969" lon="6.49303">
        <ele>1504</ele>
        <time>2024-08-11T08:35:26Z</time>
      </trkpt>
      <trkpt lat="44.97969" lon="6.49303">
        <ele>1504</ele>
        <time>2024-08-11T08:35:27Z</time>
      </trkpt>
      <trkpt lat="44.97968" lon="6.49307">
        <ele>1504</ele>
        <time>2024-08-11T08:35:28Z</time>
      </trkpt>
      <trkpt lat="44.97966" lon="6.49309">
        <ele>1504</ele>
        <time>2024-08-11T08:35:29Z</time>
      </trkpt>
      <trkpt lat="44.97966" lon="6.49309">
        <ele>1504</ele>
        <time>2024-08-11T08:35:30Z</time>
      </trkpt>
      <trkpt lat="44.97965" lon="6.49312">
        <ele>1503.8</ele>
        <time>2024-08-11T08:35:31Z</time>
      </trkpt>
      <trkpt lat="44.97965" lon="6.49312">
        <ele>1503.8</ele>
        <time>2024-08-11T08:35:32Z</time>
      </trkpt>
      <trkpt lat="44.97962" lon="6.49316">
        <ele>1503.8</ele>
        <time>2024-08-11T08:35:33Z</time>
      </trkpt>
      <trkpt lat="44.97961" lon="6.49318">
        <ele>1503.8</ele>
        <time>2024-08-11T08:35:34Z</time>
      </trkpt>
      <trkpt lat="44.97961" lon="6.49318">
        <ele>1503.6</ele>
        <time>2024-08-11T08:35:35Z</time>
      </trkpt>
      <trkpt lat="44.97959" lon="6.49322">
        <ele>1503.6</ele>
        <time>2024-08-11T08:35:36Z</time>
      </trkpt>
      <trkpt lat="44.97959" lon="6.49322">
        <ele>1503.6</ele>
        <time>2024-08-11T08:35:37Z</time>
      </trkpt>
      <trkpt lat="44.97957" lon="6.49325">
        <ele>1503.8</ele>
        <time>2024-08-11T08:35:38Z</time>
      </trkpt>
      <trkpt lat="44.97957" lon="6.49325">
        <ele>1503.6</ele>
        <time>2024-08-11T08:35:39Z</time>
      </trkpt>
      <trkpt lat="44.97955" lon="6.49329">
        <ele>1503.8</ele>
        <time>2024-08-11T08:35:40Z</time>
      </trkpt>
      <trkpt lat="44.97955" lon="6.49329">
        <ele>1503.8</ele>
        <time>2024-08-11T08:35:41Z</time>
      </trkpt>
      <trkpt lat="44.97954" lon="6.49333">
        <ele>1503.8</ele>
        <time>2024-08-11T08:35:42Z</time>
      </trkpt>
      <trkpt lat="44.97954" lon="6.49333">
        <ele>1503.6</ele>
        <time>2024-08-11T08:35:43Z</time>
      </trkpt>
      <trkpt lat="44.97953" lon="6.49335">
        <ele>1503.6</ele>
        <time>2024-08-11T08:35:44Z</time>
      </trkpt>
      <trkpt lat="44.97953" lon="6.49335">
        <ele>1503.6</ele>
        <time>2024-08-11T08:35:45Z</time>
      </trkpt>
      <trkpt lat="44.97951" lon="6.49339">
        <ele>1503.4</ele>
        <time>2024-08-11T08:35:46Z</time>
      </trkpt>
      <trkpt lat="44.97951" lon="6.49339">
        <ele>1503.4</ele>
        <time>2024-08-11T08:35:47Z</time>
      </trkpt>
      <trkpt lat="44.97949" lon="6.49342">
        <ele>1503.2</ele>
        <time>2024-08-11T08:35:48Z</time>
      </trkpt>
      <trkpt lat="44.97949" lon="6.49342">
        <ele>1503.2</ele>
        <time>2024-08-11T08:35:49Z</time>
      </trkpt>
      <trkpt lat="44.97949" lon="6.49342">
        <ele>1503.2</ele>
        <time>2024-08-11T08:35:50Z</time>
      </trkpt>
      <trkpt lat="44.97946" lon="6.49347">
        <ele>1503.2</ele>
        <time>2024-08-11T08:35:51Z</time>
      </trkpt>
      <trkpt lat="44.97946" lon="6.49349">
        <ele>1503</ele>
        <time>2024-08-11T08:35:52Z</time>
      </trkpt>
      <trkpt lat="44.97946" lon="6.49349">
        <ele>1503</ele>
        <time>2024-08-11T08:35:53Z</time>
      </trkpt>
      <trkpt lat="44.97945" lon="6.49353">
        <ele>1503</ele>
        <time>2024-08-11T08:35:54Z</time>
      </trkpt>
      <trkpt lat="44.97945" lon="6.49353">
        <ele>1503</ele>
        <time>2024-08-11T08:35:55Z</time>
      </trkpt>
      <trkpt lat="44.97943" lon="6.49356">
        <ele>1503</ele>
        <time>2024-08-11T08:35:56Z</time>
      </trkpt>
      <trkpt lat="44.97943" lon="6.49356">
        <ele>1503</ele>
        <time>2024-08-11T08:35:57Z</time>
      </trkpt>
      <trkpt lat="44.97942" lon="6.49359">
        <ele>1502.8</ele>
        <time>2024-08-11T08:35:58Z</time>
      </trkpt>
      <trkpt lat="44.97942" lon="6.49359">
        <ele>1502.8</ele>
        <time>2024-08-11T08:35:59Z</time>
      </trkpt>
      <trkpt lat="44.97941" lon="6.49362">
        <ele>1502.6</ele>
        <time>2024-08-11T08:36:00Z</time>
      </trkpt>
      <trkpt lat="44.97941" lon="6.49362">
        <ele>1502.6</ele>
        <time>2024-08-11T08:36:01Z</time>
      </trkpt>
      <trkpt lat="44.9794" lon="6.49366">
        <ele>1502.6</ele>
        <time>2024-08-11T08:36:02Z</time>
      </trkpt>
      <trkpt lat="44.9794" lon="6.49366">
        <ele>1502.6</ele>
        <time>2024-08-11T08:36:03Z</time>
      </trkpt>
      <trkpt lat="44.97939" lon="6.49369">
        <ele>1502.6</ele>
        <time>2024-08-11T08:36:04Z</time>
      </trkpt>
      <trkpt lat="44.97939" lon="6.49369">
        <ele>1502.2</ele>
        <time>2024-08-11T08:36:05Z</time>
      </trkpt>
      <trkpt lat="44.97938" lon="6.49373">
        <ele>1502.4</ele>
        <time>2024-08-11T08:36:06Z</time>
      </trkpt>
      <trkpt lat="44.97938" lon="6.49373">
        <ele>1502.4</ele>
        <time>2024-08-11T08:36:07Z</time>
      </trkpt>
      <trkpt lat="44.97936" lon="6.49376">
        <ele>1502.4</ele>
        <time>2024-08-11T08:36:08Z</time>
      </trkpt>
      <trkpt lat="44.97936" lon="6.49376">
        <ele>1502.4</ele>
        <time>2024-08-11T08:36:09Z</time>
      </trkpt>
      <trkpt lat="44.97934" lon="6.4938">
        <ele>1502.4</ele>
        <time>2024-08-11T08:36:10Z</time>
      </trkpt>
      <trkpt lat="44.97933" lon="6.49382">
        <ele>1502.2</ele>
        <time>2024-08-11T08:36:11Z</time>
      </trkpt>
      <trkpt lat="44.97933" lon="6.49382">
        <ele>1502.2</ele>
        <time>2024-08-11T08:36:12Z</time>
      </trkpt>
      <trkpt lat="44.97932" lon="6.49385">
        <ele>1502.2</ele>
        <time>2024-08-11T08:36:13Z</time>
      </trkpt>
      <trkpt lat="44.97932" lon="6.49385">
        <ele>1502.2</ele>
        <time>2024-08-11T08:36:14Z</time>
      </trkpt>
      <trkpt lat="44.9793" lon="6.49388">
        <ele>1502</ele>
        <time>2024-08-11T08:36:15Z</time>
      </trkpt>
      <trkpt lat="44.9793" lon="6.49388">
        <ele>1502</ele>
        <time>2024-08-11T08:36:16Z</time>
      </trkpt>
      <trkpt lat="44.97929" lon="6.49392">
        <ele>1502</ele>
        <time>2024-08-11T08:36:17Z</time>
      </trkpt>
      <trkpt lat="44.97929" lon="6.49392">
        <ele>1502</ele>
        <time>2024-08-11T08:36:18Z</time>
      </trkpt>
      <trkpt lat="44.97928" lon="6.49396">
        <ele>1502</ele>
        <time>2024-08-11T08:36:19Z</time>
      </trkpt>
      <trkpt lat="44.97927" lon="6.49398">
        <ele>1502</ele>
        <time>2024-08-11T08:36:20Z</time>
      </trkpt>
      <trkpt lat="44.97927" lon="6.49398">
        <ele>1501.8</ele>
        <time>2024-08-11T08:36:21Z</time>
      </trkpt>
      <trkpt lat="44.97925" lon="6.49401">
        <ele>1501.8</ele>
        <time>2024-08-11T08:36:22Z</time>
      </trkpt>
      <trkpt lat="44.97925" lon="6.49401">
        <ele>1501.8</ele>
        <time>2024-08-11T08:36:23Z</time>
      </trkpt>
      <trkpt lat="44.97924" lon="6.49404">
        <ele>1501.8</ele>
        <time>2024-08-11T08:36:24Z</time>
      </trkpt>
      <trkpt lat="44.97924" lon="6.49404">
        <ele>1501.6</ele>
        <time>2024-08-11T08:36:25Z</time>
      </trkpt>
      <trkpt lat="44.97923" lon="6.49408">
        <ele>1501.6</ele>
        <time>2024-08-11T08:36:26Z</time>
      </trkpt>
      <trkpt lat="44.97923" lon="6.49408">
        <ele>1501.6</ele>
        <time>2024-08-11T08:36:27Z</time>
      </trkpt>
      <trkpt lat="44.97922" lon="6.49411">
        <ele>1501.6</ele>
        <time>2024-08-11T08:36:28Z</time>
      </trkpt>
      <trkpt lat="44.97922" lon="6.49411">
        <ele>1501.6</ele>
        <time>2024-08-11T08:36:29Z</time>
      </trkpt>
      <trkpt lat="44.9792" lon="6.49415">
        <ele>1501.6</ele>
        <time>2024-08-11T08:36:30Z</time>
      </trkpt>
      <trkpt lat="44.9792" lon="6.49415">
        <ele>1501.6</ele>
        <time>2024-08-11T08:36:31Z</time>
      </trkpt>
      <trkpt lat="44.97918" lon="6.49418">
        <ele>1501.6</ele>
        <time>2024-08-11T08:36:32Z</time>
      </trkpt>
      <trkpt lat="44.97917" lon="6.49421">
        <ele>1501.6</ele>
        <time>2024-08-11T08:36:33Z</time>
      </trkpt>
      <trkpt lat="44.97917" lon="6.49423">
        <ele>1501.6</ele>
        <time>2024-08-11T08:36:34Z</time>
      </trkpt>
      <trkpt lat="44.97916" lon="6.49424">
        <ele>1501.6</ele>
        <time>2024-08-11T08:36:35Z</time>
      </trkpt>
      <trkpt lat="44.97916" lon="6.49424">
        <ele>1501.6</ele>
        <time>2024-08-11T08:36:36Z</time>
      </trkpt>
      <trkpt lat="44.97915" lon="6.49427">
        <ele>1501.4</ele>
        <time>2024-08-11T08:36:37Z</time>
      </trkpt>
      <trkpt lat="44.97915" lon="6.49427">
        <ele>1501.4</ele>
        <time>2024-08-11T08:36:38Z</time>
      </trkpt>
      <trkpt lat="44.97913" lon="6.49431">
        <ele>1501.4</ele>
        <time>2024-08-11T08:36:39Z</time>
      </trkpt>
      <trkpt lat="44.97913" lon="6.49431">
        <ele>1501.4</ele>
        <time>2024-08-11T08:36:40Z</time>
      </trkpt>
      <trkpt lat="44.97912" lon="6.49434">
        <ele>1501.4</ele>
        <time>2024-08-11T08:36:41Z</time>
      </trkpt>
      <trkpt lat="44.97912" lon="6.49434">
        <ele>1501.6</ele>
        <time>2024-08-11T08:36:42Z</time>
      </trkpt>
      <trkpt lat="44.97911" lon="6.49438">
        <ele>1501.6</ele>
        <time>2024-08-11T08:36:43Z</time>
      </trkpt>
      <trkpt lat="44.97911" lon="6.49438">
        <ele>1501.6</ele>
        <time>2024-08-11T08:36:44Z</time>
      </trkpt>
      <trkpt lat="44.9791" lon="6.49442">
        <ele>1501.6</ele>
        <time>2024-08-11T08:36:45Z</time>
      </trkpt>
      <trkpt lat="44.9791" lon="6.49442">
        <ele>1501.6</ele>
        <time>2024-08-11T08:36:46Z</time>
      </trkpt>
      <trkpt lat="44.97909" lon="6.49446">
        <ele>1501.6</ele>
        <time>2024-08-11T08:36:47Z</time>
      </trkpt>
      <trkpt lat="44.97909" lon="6.49446">
        <ele>1501.6</ele>
        <time>2024-08-11T08:36:48Z</time>
      </trkpt>
      <trkpt lat="44.97909" lon="6.49449">
        <ele>1501.6</ele>
        <time>2024-08-11T08:36:49Z</time>
      </trkpt>
      <trkpt lat="44.97909" lon="6.49449">
        <ele>1501.6</ele>
        <time>2024-08-11T08:36:50Z</time>
      </trkpt>
      <trkpt lat="44.97909" lon="6.49452">
        <ele>1501.6</ele>
        <time>2024-08-11T08:36:51Z</time>
      </trkpt>
      <trkpt lat="44.97909" lon="6.49452">
        <ele>1501.6</ele>
        <time>2024-08-11T08:36:52Z</time>
      </trkpt>
      <trkpt lat="44.97908" lon="6.49455">
        <ele>1501.6</ele>
        <time>2024-08-11T08:36:53Z</time>
      </trkpt>
      <trkpt lat="44.97908" lon="6.49455">
        <ele>1501.4</ele>
        <time>2024-08-11T08:36:54Z</time>
      </trkpt>
      <trkpt lat="44.97907" lon="6.49458">
        <ele>1501.4</ele>
        <time>2024-08-11T08:36:55Z</time>
      </trkpt>
      <trkpt lat="44.97907" lon="6.49458">
        <ele>1501.4</ele>
        <time>2024-08-11T08:36:56Z</time>
      </trkpt>
      <trkpt lat="44.97906" lon="6.49461">
        <ele>1501.4</ele>
        <time>2024-08-11T08:36:57Z</time>
      </trkpt>
      <trkpt lat="44.97906" lon="6.49461">
        <ele>1501.2</ele>
        <time>2024-08-11T08:36:58Z</time>
      </trkpt>
      <trkpt lat="44.97904" lon="6.49464">
        <ele>1501.2</ele>
        <time>2024-08-11T08:36:59Z</time>
      </trkpt>
      <trkpt lat="44.97904" lon="6.49464">
        <ele>1501.2</ele>
        <time>2024-08-11T08:37:00Z</time>
      </trkpt>
      <trkpt lat="44.97903" lon="6.49468">
        <ele>1501.4</ele>
        <time>2024-08-11T08:37:01Z</time>
      </trkpt>
      <trkpt lat="44.97903" lon="6.49468">
        <ele>1501.4</ele>
        <time>2024-08-11T08:37:02Z</time>
      </trkpt>
      <trkpt lat="44.97902" lon="6.49472">
        <ele>1501.4</ele>
        <time>2024-08-11T08:37:03Z</time>
      </trkpt>
      <trkpt lat="44.97902" lon="6.49472">
        <ele>1501.4</ele>
        <time>2024-08-11T08:37:04Z</time>
      </trkpt>
      <trkpt lat="44.97901" lon="6.49475">
        <ele>1501.4</ele>
        <time>2024-08-11T08:37:05Z</time>
      </trkpt>
      <trkpt lat="44.97901" lon="6.49475">
        <ele>1501.4</ele>
        <time>2024-08-11T08:37:06Z</time>
      </trkpt>
      <trkpt lat="44.979" lon="6.49478">
        <ele>1501.2</ele>
        <time>2024-08-11T08:37:07Z</time>
      </trkpt>
      <trkpt lat="44.979" lon="6.49478">
        <ele>1501.2</ele>
        <time>2024-08-11T08:37:08Z</time>
      </trkpt>
      <trkpt lat="44.97899" lon="6.49482">
        <ele>1501.2</ele>
        <time>2024-08-11T08:37:09Z</time>
      </trkpt>
      <trkpt lat="44.97899" lon="6.49482">
        <ele>1501.2</ele>
        <time>2024-08-11T08:37:10Z</time>
      </trkpt>
      <trkpt lat="44.97897" lon="6.49487">
        <ele>1501.2</ele>
        <time>2024-08-11T08:37:11Z</time>
      </trkpt>
      <trkpt lat="44.97897" lon="6.49487">
        <ele>1501.2</ele>
        <time>2024-08-11T08:37:12Z</time>
      </trkpt>
      <trkpt lat="44.97896" lon="6.49492">
        <ele>1501</ele>
        <time>2024-08-11T08:37:13Z</time>
      </trkpt>
      <trkpt lat="44.97896" lon="6.49492">
        <ele>1501</ele>
        <time>2024-08-11T08:37:14Z</time>
      </trkpt>
      <trkpt lat="44.97895" lon="6.49496">
        <ele>1501</ele>
        <time>2024-08-11T08:37:15Z</time>
      </trkpt>
      <trkpt lat="44.97895" lon="6.49496">
        <ele>1500.6</ele>
        <time>2024-08-11T08:37:16Z</time>
      </trkpt>
      <trkpt lat="44.97894" lon="6.49499">
        <ele>1500.6</ele>
        <time>2024-08-11T08:37:17Z</time>
      </trkpt>
      <trkpt lat="44.97894" lon="6.49499">
        <ele>1500.6</ele>
        <time>2024-08-11T08:37:18Z</time>
      </trkpt>
      <trkpt lat="44.97893" lon="6.49503">
        <ele>1500.6</ele>
        <time>2024-08-11T08:37:19Z</time>
      </trkpt>
      <trkpt lat="44.97893" lon="6.49503">
        <ele>1500.6</ele>
        <time>2024-08-11T08:37:20Z</time>
      </trkpt>
      <trkpt lat="44.97893" lon="6.49506">
        <ele>1500.6</ele>
        <time>2024-08-11T08:37:21Z</time>
      </trkpt>
      <trkpt lat="44.97893" lon="6.49506">
        <ele>1500.6</ele>
        <time>2024-08-11T08:37:22Z</time>
      </trkpt>
      <trkpt lat="44.97891" lon="6.4951">
        <ele>1500.4</ele>
        <time>2024-08-11T08:37:23Z</time>
      </trkpt>
      <trkpt lat="44.97891" lon="6.4951">
        <ele>1500.4</ele>
        <time>2024-08-11T08:37:24Z</time>
      </trkpt>
      <trkpt lat="44.97891" lon="6.4951">
        <ele>1500.4</ele>
        <time>2024-08-11T08:37:25Z</time>
      </trkpt>
      <trkpt lat="44.97889" lon="6.49515">
        <ele>1500.4</ele>
        <time>2024-08-11T08:37:26Z</time>
      </trkpt>
      <trkpt lat="44.97889" lon="6.49516">
        <ele>1500.4</ele>
        <time>2024-08-11T08:37:27Z</time>
      </trkpt>
      <trkpt lat="44.97889" lon="6.49516">
        <ele>1500.4</ele>
        <time>2024-08-11T08:37:28Z</time>
      </trkpt>
      <trkpt lat="44.97888" lon="6.4952">
        <ele>1500.4</ele>
        <time>2024-08-11T08:37:29Z</time>
      </trkpt>
      <trkpt lat="44.97887" lon="6.49522">
        <ele>1500.4</ele>
        <time>2024-08-11T08:37:30Z</time>
      </trkpt>
      <trkpt lat="44.97887" lon="6.49522">
        <ele>1500.4</ele>
        <time>2024-08-11T08:37:31Z</time>
      </trkpt>
      <trkpt lat="44.97887" lon="6.49522">
        <ele>1500.4</ele>
        <time>2024-08-11T08:37:32Z</time>
      </trkpt>
      <trkpt lat="44.97886" lon="6.49528">
        <ele>1500.2</ele>
        <time>2024-08-11T08:37:33Z</time>
      </trkpt>
      <trkpt lat="44.97885" lon="6.4953">
        <ele>1500</ele>
        <time>2024-08-11T08:37:34Z</time>
      </trkpt>
      <trkpt lat="44.97885" lon="6.4953">
        <ele>1500</ele>
        <time>2024-08-11T08:37:35Z</time>
      </trkpt>
      <trkpt lat="44.97883" lon="6.49533">
        <ele>1500</ele>
        <time>2024-08-11T08:37:36Z</time>
      </trkpt>
      <trkpt lat="44.97881" lon="6.49534">
        <ele>1499.8</ele>
        <time>2024-08-11T08:37:37Z</time>
      </trkpt>
      <trkpt lat="44.9788" lon="6.49536">
        <ele>1499.8</ele>
        <time>2024-08-11T08:37:38Z</time>
      </trkpt>
      <trkpt lat="44.9788" lon="6.49536">
        <ele>1500</ele>
        <time>2024-08-11T08:37:39Z</time>
      </trkpt>
      <trkpt lat="44.97877" lon="6.49539">
        <ele>1500</ele>
        <time>2024-08-11T08:37:40Z</time>
      </trkpt>
      <trkpt lat="44.97877" lon="6.49539">
        <ele>1499.8</ele>
        <time>2024-08-11T08:37:41Z</time>
      </trkpt>
      <trkpt lat="44.97876" lon="6.49543">
        <ele>1499.8</ele>
        <time>2024-08-11T08:37:42Z</time>
      </trkpt>
      <trkpt lat="44.97876" lon="6.49543">
        <ele>1499.8</ele>
        <time>2024-08-11T08:37:43Z</time>
      </trkpt>
      <trkpt lat="44.97874" lon="6.49547">
        <ele>1499.8</ele>
        <time>2024-08-11T08:37:44Z</time>
      </trkpt>
      <trkpt lat="44.97874" lon="6.49547">
        <ele>1499.8</ele>
        <time>2024-08-11T08:37:45Z</time>
      </trkpt>
      <trkpt lat="44.97872" lon="6.49551">
        <ele>1499.8</ele>
        <time>2024-08-11T08:37:46Z</time>
      </trkpt>
      <trkpt lat="44.97872" lon="6.49551">
        <ele>1499.8</ele>
        <time>2024-08-11T08:37:47Z</time>
      </trkpt>
      <trkpt lat="44.97871" lon="6.49553">
        <ele>1499.8</ele>
        <time>2024-08-11T08:37:48Z</time>
      </trkpt>
      <trkpt lat="44.97871" lon="6.49553">
        <ele>1499.8</ele>
        <time>2024-08-11T08:37:49Z</time>
      </trkpt>
      <trkpt lat="44.97869" lon="6.49556">
        <ele>1499.8</ele>
        <time>2024-08-11T08:37:50Z</time>
      </trkpt>
      <trkpt lat="44.97869" lon="6.49556">
        <ele>1499.6</ele>
        <time>2024-08-11T08:37:51Z</time>
      </trkpt>
      <trkpt lat="44.97867" lon="6.4956">
        <ele>1499.6</ele>
        <time>2024-08-11T08:37:52Z</time>
      </trkpt>
      <trkpt lat="44.97867" lon="6.4956">
        <ele>1499.6</ele>
        <time>2024-08-11T08:37:53Z</time>
      </trkpt>
      <trkpt lat="44.97867" lon="6.49564">
        <ele>1499.6</ele>
        <time>2024-08-11T08:37:54Z</time>
      </trkpt>
      <trkpt lat="44.97867" lon="6.49564">
        <ele>1499.6</ele>
        <time>2024-08-11T08:37:55Z</time>
      </trkpt>
      <trkpt lat="44.97867" lon="6.49568">
        <ele>1499.6</ele>
        <time>2024-08-11T08:37:56Z</time>
      </trkpt>
      <trkpt lat="44.97867" lon="6.49568">
        <ele>1499.6</ele>
        <time>2024-08-11T08:37:57Z</time>
      </trkpt>
      <trkpt lat="44.97866" lon="6.49572">
        <ele>1499.4</ele>
        <time>2024-08-11T08:37:58Z</time>
      </trkpt>
      <trkpt lat="44.97866" lon="6.49572">
        <ele>1499.4</ele>
        <time>2024-08-11T08:37:59Z</time>
      </trkpt>
      <trkpt lat="44.97865" lon="6.49576">
        <ele>1499.4</ele>
        <time>2024-08-11T08:38:00Z</time>
      </trkpt>
      <trkpt lat="44.97864" lon="6.49578">
        <ele>1499.4</ele>
        <time>2024-08-11T08:38:01Z</time>
      </trkpt>
      <trkpt lat="44.97864" lon="6.49578">
        <ele>1499.4</ele>
        <time>2024-08-11T08:38:02Z</time>
      </trkpt>
      <trkpt lat="44.97864" lon="6.49583">
        <ele>1499.4</ele>
        <time>2024-08-11T08:38:03Z</time>
      </trkpt>
      <trkpt lat="44.97864" lon="6.49583">
        <ele>1499.2</ele>
        <time>2024-08-11T08:38:04Z</time>
      </trkpt>
      <trkpt lat="44.97862" lon="6.49587">
        <ele>1499.2</ele>
        <time>2024-08-11T08:38:05Z</time>
      </trkpt>
      <trkpt lat="44.97862" lon="6.49587">
        <ele>1499.2</ele>
        <time>2024-08-11T08:38:06Z</time>
      </trkpt>
      <trkpt lat="44.97861" lon="6.4959">
        <ele>1499.2</ele>
        <time>2024-08-11T08:38:07Z</time>
      </trkpt>
      <trkpt lat="44.97861" lon="6.4959">
        <ele>1499.2</ele>
        <time>2024-08-11T08:38:08Z</time>
      </trkpt>
      <trkpt lat="44.97859" lon="6.49594">
        <ele>1499</ele>
        <time>2024-08-11T08:38:09Z</time>
      </trkpt>
      <trkpt lat="44.97859" lon="6.49594">
        <ele>1499</ele>
        <time>2024-08-11T08:38:10Z</time>
      </trkpt>
      <trkpt lat="44.97858" lon="6.49597">
        <ele>1499</ele>
        <time>2024-08-11T08:38:11Z</time>
      </trkpt>
      <trkpt lat="44.97858" lon="6.49597">
        <ele>1499</ele>
        <time>2024-08-11T08:38:12Z</time>
      </trkpt>
      <trkpt lat="44.97856" lon="6.496">
        <ele>1499</ele>
        <time>2024-08-11T08:38:13Z</time>
      </trkpt>
      <trkpt lat="44.97856" lon="6.496">
        <ele>1499.2</ele>
        <time>2024-08-11T08:38:14Z</time>
      </trkpt>
      <trkpt lat="44.97854" lon="6.49604">
        <ele>1499.2</ele>
        <time>2024-08-11T08:38:15Z</time>
      </trkpt>
      <trkpt lat="44.97854" lon="6.49604">
        <ele>1499</ele>
        <time>2024-08-11T08:38:16Z</time>
      </trkpt>
      <trkpt lat="44.97853" lon="6.49608">
        <ele>1499</ele>
        <time>2024-08-11T08:38:17Z</time>
      </trkpt>
      <trkpt lat="44.97853" lon="6.49611">
        <ele>1499</ele>
        <time>2024-08-11T08:38:18Z</time>
      </trkpt>
      <trkpt lat="44.97852" lon="6.49613">
        <ele>1499</ele>
        <time>2024-08-11T08:38:19Z</time>
      </trkpt>
      <trkpt lat="44.97852" lon="6.49613">
        <ele>1499</ele>
        <time>2024-08-11T08:38:20Z</time>
      </trkpt>
      <trkpt lat="44.9785" lon="6.49616">
        <ele>1499</ele>
        <time>2024-08-11T08:38:21Z</time>
      </trkpt>
      <trkpt lat="44.9785" lon="6.49616">
        <ele>1499</ele>
        <time>2024-08-11T08:38:22Z</time>
      </trkpt>
      <trkpt lat="44.97849" lon="6.4962">
        <ele>1499</ele>
        <time>2024-08-11T08:38:23Z</time>
      </trkpt>
      <trkpt lat="44.97849" lon="6.4962">
        <ele>1499</ele>
        <time>2024-08-11T08:38:24Z</time>
      </trkpt>
      <trkpt lat="44.97847" lon="6.49623">
        <ele>1499</ele>
        <time>2024-08-11T08:38:25Z</time>
      </trkpt>
      <trkpt lat="44.97847" lon="6.49623">
        <ele>1499</ele>
        <time>2024-08-11T08:38:26Z</time>
      </trkpt>
      <trkpt lat="44.97846" lon="6.49625">
        <ele>1499</ele>
        <time>2024-08-11T08:38:27Z</time>
      </trkpt>
      <trkpt lat="44.97846" lon="6.49625">
        <ele>1499</ele>
        <time>2024-08-11T08:38:28Z</time>
      </trkpt>
      <trkpt lat="44.97846" lon="6.49625">
        <ele>1499</ele>
        <time>2024-08-11T08:38:29Z</time>
      </trkpt>
      <trkpt lat="44.97844" lon="6.49629">
        <ele>1499</ele>
        <time>2024-08-11T08:38:30Z</time>
      </trkpt>
      <trkpt lat="44.97844" lon="6.49629">
        <ele>1499</ele>
        <time>2024-08-11T08:38:31Z</time>
      </trkpt>
      <trkpt lat="44.97842" lon="6.4963">
        <ele>1499.2</ele>
        <time>2024-08-11T08:38:32Z</time>
      </trkpt>
      <trkpt lat="44.97842" lon="6.4963">
        <ele>1499.2</ele>
        <time>2024-08-11T08:38:33Z</time>
      </trkpt>
      <trkpt lat="44.97839" lon="6.49632">
        <ele>1499</ele>
        <time>2024-08-11T08:38:34Z</time>
      </trkpt>
      <trkpt lat="44.97836" lon="6.49633">
        <ele>1499</ele>
        <time>2024-08-11T08:38:35Z</time>
      </trkpt>
      <trkpt lat="44.97836" lon="6.49633">
        <ele>1499</ele>
        <time>2024-08-11T08:38:36Z</time>
      </trkpt>
      <trkpt lat="44.97834" lon="6.49633">
        <ele>1499</ele>
        <time>2024-08-11T08:38:37Z</time>
      </trkpt>
      <trkpt lat="44.97834" lon="6.49633">
        <ele>1498.8</ele>
        <time>2024-08-11T08:38:38Z</time>
      </trkpt>
      <trkpt lat="44.97831" lon="6.49633">
        <ele>1498.8</ele>
        <time>2024-08-11T08:38:39Z</time>
      </trkpt>
      <trkpt lat="44.97831" lon="6.49633">
        <ele>1498.8</ele>
        <time>2024-08-11T08:38:40Z</time>
      </trkpt>
      <trkpt lat="44.97828" lon="6.49632">
        <ele>1498.8</ele>
        <time>2024-08-11T08:38:41Z</time>
      </trkpt>
      <trkpt lat="44.97828" lon="6.49632">
        <ele>1498.6</ele>
        <time>2024-08-11T08:38:42Z</time>
      </trkpt>
      <trkpt lat="44.97824" lon="6.49631">
        <ele>1498.2</ele>
        <time>2024-08-11T08:38:43Z</time>
      </trkpt>
      <trkpt lat="44.97824" lon="6.49631">
        <ele>1498.2</ele>
        <time>2024-08-11T08:38:44Z</time>
      </trkpt>
      <trkpt lat="44.97821" lon="6.49631">
        <ele>1498.6</ele>
        <time>2024-08-11T08:38:45Z</time>
      </trkpt>
      <trkpt lat="44.97821" lon="6.49631">
        <ele>1498.8</ele>
        <time>2024-08-11T08:38:46Z</time>
      </trkpt>
      <trkpt lat="44.97818" lon="6.49631">
        <ele>1499</ele>
        <time>2024-08-11T08:38:47Z</time>
      </trkpt>
      <trkpt lat="44.97818" lon="6.49631">
        <ele>1499</ele>
        <time>2024-08-11T08:38:48Z</time>
      </trkpt>
      <trkpt lat="44.97816" lon="6.49631">
        <ele>1499</ele>
        <time>2024-08-11T08:38:49Z</time>
      </trkpt>
      <trkpt lat="44.97816" lon="6.49631">
        <ele>1498.8</ele>
        <time>2024-08-11T08:38:50Z</time>
      </trkpt>
      <trkpt lat="44.97813" lon="6.4963">
        <ele>1498.8</ele>
        <time>2024-08-11T08:38:51Z</time>
      </trkpt>
      <trkpt lat="44.97811" lon="6.4963">
        <ele>1498.8</ele>
        <time>2024-08-11T08:38:52Z</time>
      </trkpt>
      <trkpt lat="44.97811" lon="6.4963">
        <ele>1499</ele>
        <time>2024-08-11T08:38:53Z</time>
      </trkpt>
      <trkpt lat="44.97807" lon="6.49629">
        <ele>1499.2</ele>
        <time>2024-08-11T08:38:54Z</time>
      </trkpt>
      <trkpt lat="44.97807" lon="6.49629">
        <ele>1499.2</ele>
        <time>2024-08-11T08:38:55Z</time>
      </trkpt>
      <trkpt lat="44.97804" lon="6.49628">
        <ele>1499</ele>
        <time>2024-08-11T08:38:56Z</time>
      </trkpt>
      <trkpt lat="44.97804" lon="6.49628">
        <ele>1499</ele>
        <time>2024-08-11T08:38:57Z</time>
      </trkpt>
      <trkpt lat="44.97801" lon="6.49625">
        <ele>1499</ele>
        <time>2024-08-11T08:38:58Z</time>
      </trkpt>
      <trkpt lat="44.97801" lon="6.49625">
        <ele>1498.8</ele>
        <time>2024-08-11T08:38:59Z</time>
      </trkpt>
      <trkpt lat="44.97798" lon="6.49623">
        <ele>1498.8</ele>
        <time>2024-08-11T08:39:00Z</time>
      </trkpt>
      <trkpt lat="44.97797" lon="6.49623">
        <ele>1499</ele>
        <time>2024-08-11T08:39:01Z</time>
      </trkpt>
      <trkpt lat="44.97797" lon="6.49623">
        <ele>1499</ele>
        <time>2024-08-11T08:39:02Z</time>
      </trkpt>
      <trkpt lat="44.97794" lon="6.49623">
        <ele>1499</ele>
        <time>2024-08-11T08:39:03Z</time>
      </trkpt>
      <trkpt lat="44.97793" lon="6.49626">
        <ele>1499</ele>
        <time>2024-08-11T08:39:04Z</time>
      </trkpt>
      <trkpt lat="44.97793" lon="6.49626">
        <ele>1499</ele>
        <time>2024-08-11T08:39:05Z</time>
      </trkpt>
      <trkpt lat="44.97792" lon="6.49628">
        <ele>1499</ele>
        <time>2024-08-11T08:39:06Z</time>
      </trkpt>
      <trkpt lat="44.97792" lon="6.49628">
        <ele>1498.8</ele>
        <time>2024-08-11T08:39:07Z</time>
      </trkpt>
      <trkpt lat="44.97789" lon="6.49629">
        <ele>1498.6</ele>
        <time>2024-08-11T08:39:08Z</time>
      </trkpt>
      <trkpt lat="44.97789" lon="6.49629">
        <ele>1498.6</ele>
        <time>2024-08-11T08:39:09Z</time>
      </trkpt>
      <trkpt lat="44.97787" lon="6.49629">
        <ele>1498.6</ele>
        <time>2024-08-11T08:39:10Z</time>
      </trkpt>
      <trkpt lat="44.97787" lon="6.49629">
        <ele>1498.8</ele>
        <time>2024-08-11T08:39:11Z</time>
      </trkpt>
      <trkpt lat="44.97785" lon="6.49629">
        <ele>1498.8</ele>
        <time>2024-08-11T08:39:12Z</time>
      </trkpt>
      <trkpt lat="44.97785" lon="6.49629">
        <ele>1498.8</ele>
        <time>2024-08-11T08:39:13Z</time>
      </trkpt>
      <trkpt lat="44.97781" lon="6.49631">
        <ele>1498.8</ele>
        <time>2024-08-11T08:39:14Z</time>
      </trkpt>
      <trkpt lat="44.97781" lon="6.49631">
        <ele>1498.6</ele>
        <time>2024-08-11T08:39:15Z</time>
      </trkpt>
      <trkpt lat="44.97778" lon="6.49633">
        <ele>1498.6</ele>
        <time>2024-08-11T08:39:16Z</time>
      </trkpt>
      <trkpt lat="44.97776" lon="6.49633">
        <ele>1498.6</ele>
        <time>2024-08-11T08:39:17Z</time>
      </trkpt>
      <trkpt lat="44.97774" lon="6.49634">
        <ele>1498.6</ele>
        <time>2024-08-11T08:39:18Z</time>
      </trkpt>
      <trkpt lat="44.97774" lon="6.49634">
        <ele>1498.6</ele>
        <time>2024-08-11T08:39:19Z</time>
      </trkpt>
      <trkpt lat="44.97771" lon="6.49635">
        <ele>1498.6</ele>
        <time>2024-08-11T08:39:20Z</time>
      </trkpt>
      <trkpt lat="44.97769" lon="6.49636">
        <ele>1498.6</ele>
        <time>2024-08-11T08:39:21Z</time>
      </trkpt>
      <trkpt lat="44.97769" lon="6.49636">
        <ele>1498.6</ele>
        <time>2024-08-11T08:39:22Z</time>
      </trkpt>
      <trkpt lat="44.97766" lon="6.49638">
        <ele>1498.4</ele>
        <time>2024-08-11T08:39:23Z</time>
      </trkpt>
      <trkpt lat="44.97766" lon="6.49638">
        <ele>1498.2</ele>
        <time>2024-08-11T08:39:24Z</time>
      </trkpt>
      <trkpt lat="44.97764" lon="6.4964">
        <ele>1498.2</ele>
        <time>2024-08-11T08:39:25Z</time>
      </trkpt>
      <trkpt lat="44.97764" lon="6.4964">
        <ele>1498.2</ele>
        <time>2024-08-11T08:39:26Z</time>
      </trkpt>
      <trkpt lat="44.97764" lon="6.4964">
        <ele>1498</ele>
        <time>2024-08-11T08:39:27Z</time>
      </trkpt>
      <trkpt lat="44.97762" lon="6.49643">
        <ele>1498</ele>
        <time>2024-08-11T08:39:28Z</time>
      </trkpt>
      <trkpt lat="44.97762" lon="6.49643">
        <ele>1498.2</ele>
        <time>2024-08-11T08:39:29Z</time>
      </trkpt>
      <trkpt lat="44.9776" lon="6.49643">
        <ele>1498.2</ele>
        <time>2024-08-11T08:39:30Z</time>
      </trkpt>
      <trkpt lat="44.9776" lon="6.49643">
        <ele>1498</ele>
        <time>2024-08-11T08:39:31Z</time>
      </trkpt>
      <trkpt lat="44.97759" lon="6.49645">
        <ele>1498</ele>
        <time>2024-08-11T08:39:32Z</time>
      </trkpt>
      <trkpt lat="44.97759" lon="6.49645">
        <ele>1497.8</ele>
        <time>2024-08-11T08:39:33Z</time>
      </trkpt>
      <trkpt lat="44.97759" lon="6.49645">
        <ele>1497.6</ele>
        <time>2024-08-11T08:39:34Z</time>
      </trkpt>
      <trkpt lat="44.97756" lon="6.49647">
        <ele>1497.6</ele>
        <time>2024-08-11T08:39:35Z</time>
      </trkpt>
      <trkpt lat="44.97756" lon="6.49647">
        <ele>1497.6</ele>
        <time>2024-08-11T08:39:36Z</time>
      </trkpt>
      <trkpt lat="44.97754" lon="6.4965">
        <ele>1497.8</ele>
        <time>2024-08-11T08:39:37Z</time>
      </trkpt>
      <trkpt lat="44.97754" lon="6.4965">
        <ele>1497.8</ele>
        <time>2024-08-11T08:39:38Z</time>
      </trkpt>
      <trkpt lat="44.97752" lon="6.49653">
        <ele>1497.8</ele>
        <time>2024-08-11T08:39:39Z</time>
      </trkpt>
      <trkpt lat="44.97752" lon="6.49653">
        <ele>1497.6</ele>
        <time>2024-08-11T08:39:40Z</time>
      </trkpt>
      <trkpt lat="44.97751" lon="6.49655">
        <ele>1497.6</ele>
        <time>2024-08-11T08:39:41Z</time>
      </trkpt>
      <trkpt lat="44.97751" lon="6.49655">
        <ele>1497.8</ele>
        <time>2024-08-11T08:39:42Z</time>
      </trkpt>
      <trkpt lat="44.97748" lon="6.49657">
        <ele>1497.8</ele>
        <time>2024-08-11T08:39:43Z</time>
      </trkpt>
      <trkpt lat="44.97746" lon="6.49657">
        <ele>1497.8</ele>
        <time>2024-08-11T08:39:44Z</time>
      </trkpt>
      <trkpt lat="44.97746" lon="6.49657">
        <ele>1497.6</ele>
        <time>2024-08-11T08:39:45Z</time>
      </trkpt>
      <trkpt lat="44.97743" lon="6.49658">
        <ele>1497.4</ele>
        <time>2024-08-11T08:39:46Z</time>
      </trkpt>
      <trkpt lat="44.97741" lon="6.49658">
        <ele>1497.4</ele>
        <time>2024-08-11T08:39:47Z</time>
      </trkpt>
      <trkpt lat="44.97741" lon="6.49658">
        <ele>1497.4</ele>
        <time>2024-08-11T08:39:48Z</time>
      </trkpt>
      <trkpt lat="44.97739" lon="6.4966">
        <ele>1497.4</ele>
        <time>2024-08-11T08:39:49Z</time>
      </trkpt>
      <trkpt lat="44.97736" lon="6.49661">
        <ele>1497.4</ele>
        <time>2024-08-11T08:39:50Z</time>
      </trkpt>
      <trkpt lat="44.97734" lon="6.49662">
        <ele>1497.4</ele>
        <time>2024-08-11T08:39:51Z</time>
      </trkpt>
      <trkpt lat="44.97734" lon="6.49662">
        <ele>1497.2</ele>
        <time>2024-08-11T08:39:52Z</time>
      </trkpt>
      <trkpt lat="44.97732" lon="6.49664">
        <ele>1497.2</ele>
        <time>2024-08-11T08:39:53Z</time>
      </trkpt>
      <trkpt lat="44.9773" lon="6.49665">
        <ele>1497.2</ele>
        <time>2024-08-11T08:39:54Z</time>
      </trkpt>
      <trkpt lat="44.97728" lon="6.49666">
        <ele>1497</ele>
        <time>2024-08-11T08:39:55Z</time>
      </trkpt>
      <trkpt lat="44.97728" lon="6.49666">
        <ele>1497</ele>
        <time>2024-08-11T08:39:56Z</time>
      </trkpt>
      <trkpt lat="44.97726" lon="6.49667">
        <ele>1496.8</ele>
        <time>2024-08-11T08:39:57Z</time>
      </trkpt>
      <trkpt lat="44.97726" lon="6.49667">
        <ele>1496.6</ele>
        <time>2024-08-11T08:39:58Z</time>
      </trkpt>
      <trkpt lat="44.97723" lon="6.49666">
        <ele>1496.4</ele>
        <time>2024-08-11T08:39:59Z</time>
      </trkpt>
      <trkpt lat="44.9772" lon="6.49667">
        <ele>1496.4</ele>
        <time>2024-08-11T08:40:01Z</time>
      </trkpt>
      <trkpt lat="44.97719" lon="6.49668">
        <ele>1496.4</ele>
        <time>2024-08-11T08:40:02Z</time>
      </trkpt>
      <trkpt lat="44.97719" lon="6.49668">
        <ele>1496.4</ele>
        <time>2024-08-11T08:40:03Z</time>
      </trkpt>
      <trkpt lat="44.97717" lon="6.49671">
        <ele>1496.4</ele>
        <time>2024-08-11T08:40:04Z</time>
      </trkpt>
      <trkpt lat="44.97717" lon="6.49671">
        <ele>1496.2</ele>
        <time>2024-08-11T08:40:05Z</time>
      </trkpt>
      <trkpt lat="44.97717" lon="6.49671">
        <ele>1496</ele>
        <time>2024-08-11T08:40:06Z</time>
      </trkpt>
      <trkpt lat="44.97713" lon="6.49675">
        <ele>1496</ele>
        <time>2024-08-11T08:40:07Z</time>
      </trkpt>
      <trkpt lat="44.97711" lon="6.49676">
        <ele>1496</ele>
        <time>2024-08-11T08:40:08Z</time>
      </trkpt>
      <trkpt lat="44.97711" lon="6.49676">
        <ele>1496</ele>
        <time>2024-08-11T08:40:09Z</time>
      </trkpt>
      <trkpt lat="44.9771" lon="6.49678">
        <ele>1496.2</ele>
        <time>2024-08-11T08:40:10Z</time>
      </trkpt>
      <trkpt lat="44.9771" lon="6.49678">
        <ele>1496.2</ele>
        <time>2024-08-11T08:40:11Z</time>
      </trkpt>
      <trkpt lat="44.97708" lon="6.49681">
        <ele>1496.2</ele>
        <time>2024-08-11T08:40:12Z</time>
      </trkpt>
      <trkpt lat="44.97708" lon="6.49681">
        <ele>1496</ele>
        <time>2024-08-11T08:40:13Z</time>
      </trkpt>
      <trkpt lat="44.97706" lon="6.49684">
        <ele>1495.8</ele>
        <time>2024-08-11T08:40:14Z</time>
      </trkpt>
      <trkpt lat="44.97706" lon="6.49684">
        <ele>1495.8</ele>
        <time>2024-08-11T08:40:15Z</time>
      </trkpt>
      <trkpt lat="44.97704" lon="6.49686">
        <ele>1495.8</ele>
        <time>2024-08-11T08:40:16Z</time>
      </trkpt>
      <trkpt lat="44.97704" lon="6.49686">
        <ele>1495.8</ele>
        <time>2024-08-11T08:40:17Z</time>
      </trkpt>
      <trkpt lat="44.97701" lon="6.49687">
        <ele>1495.8</ele>
        <time>2024-08-11T08:40:18Z</time>
      </trkpt>
      <trkpt lat="44.97701" lon="6.49687">
        <ele>1495.8</ele>
        <time>2024-08-11T08:40:19Z</time>
      </trkpt>
      <trkpt lat="44.97699" lon="6.49688">
        <ele>1496</ele>
        <time>2024-08-11T08:40:20Z</time>
      </trkpt>
      <trkpt lat="44.97699" lon="6.49688">
        <ele>1496</ele>
        <time>2024-08-11T08:40:21Z</time>
      </trkpt>
      <trkpt lat="44.97697" lon="6.49691">
        <ele>1495.8</ele>
        <time>2024-08-11T08:40:22Z</time>
      </trkpt>
      <trkpt lat="44.97697" lon="6.49691">
        <ele>1495.6</ele>
        <time>2024-08-11T08:40:23Z</time>
      </trkpt>
      <trkpt lat="44.97695" lon="6.49693">
        <ele>1495.6</ele>
        <time>2024-08-11T08:40:24Z</time>
      </trkpt>
      <trkpt lat="44.97695" lon="6.49693">
        <ele>1495.6</ele>
        <time>2024-08-11T08:40:25Z</time>
      </trkpt>
      <trkpt lat="44.97695" lon="6.49693">
        <ele>1495.6</ele>
        <time>2024-08-11T08:40:26Z</time>
      </trkpt>
      <trkpt lat="44.97695" lon="6.49693">
        <ele>1495.6</ele>
        <time>2024-08-11T08:40:27Z</time>
      </trkpt>
      <trkpt lat="44.97694" lon="6.49699">
        <ele>1495.6</ele>
        <time>2024-08-11T08:40:28Z</time>
      </trkpt>
      <trkpt lat="44.97693" lon="6.49701">
        <ele>1495.6</ele>
        <time>2024-08-11T08:40:29Z</time>
      </trkpt>
      <trkpt lat="44.97693" lon="6.49701">
        <ele>1495.6</ele>
        <time>2024-08-11T08:40:30Z</time>
      </trkpt>
      <trkpt lat="44.97693" lon="6.49706">
        <ele>1495.6</ele>
        <time>2024-08-11T08:40:31Z</time>
      </trkpt>
      <trkpt lat="44.97694" lon="6.49709">
        <ele>1495.6</ele>
        <time>2024-08-11T08:40:32Z</time>
      </trkpt>
      <trkpt lat="44.97694" lon="6.49709">
        <ele>1495.6</ele>
        <time>2024-08-11T08:40:33Z</time>
      </trkpt>
      <trkpt lat="44.97694" lon="6.49709">
        <ele>1495.4</ele>
        <time>2024-08-11T08:40:34Z</time>
      </trkpt>
      <trkpt lat="44.97694" lon="6.49715">
        <ele>1495.4</ele>
        <time>2024-08-11T08:40:35Z</time>
      </trkpt>
      <trkpt lat="44.97694" lon="6.49716">
        <ele>1495.4</ele>
        <time>2024-08-11T08:40:36Z</time>
      </trkpt>
      <trkpt lat="44.97694" lon="6.49716">
        <ele>1495.4</ele>
        <time>2024-08-11T08:40:37Z</time>
      </trkpt>
      <trkpt lat="44.97693" lon="6.49719">
        <ele>1495.2</ele>
        <time>2024-08-11T08:40:38Z</time>
      </trkpt>
      <trkpt lat="44.97693" lon="6.49719">
        <ele>1495.2</ele>
        <time>2024-08-11T08:40:39Z</time>
      </trkpt>
      <trkpt lat="44.97692" lon="6.49723">
        <ele>1495.2</ele>
        <time>2024-08-11T08:40:40Z</time>
      </trkpt>
      <trkpt lat="44.97692" lon="6.49724">
        <ele>1495.4</ele>
        <time>2024-08-11T08:40:41Z</time>
      </trkpt>
      <trkpt lat="44.97691" lon="6.49726">
        <ele>1495.4</ele>
        <time>2024-08-11T08:40:42Z</time>
      </trkpt>
      <trkpt lat="44.97691" lon="6.49728">
        <ele>1495.4</ele>
        <time>2024-08-11T08:40:43Z</time>
      </trkpt>
      <trkpt lat="44.97691" lon="6.49728">
        <ele>1495</ele>
        <time>2024-08-11T08:40:44Z</time>
      </trkpt>
      <trkpt lat="44.97691" lon="6.49728">
        <ele>1495</ele>
        <time>2024-08-11T08:40:45Z</time>
      </trkpt>
      <trkpt lat="44.97691" lon="6.49732">
        <ele>1495</ele>
        <time>2024-08-11T08:40:46Z</time>
      </trkpt>
      <trkpt lat="44.97691" lon="6.49732">
        <ele>1495.2</ele>
        <time>2024-08-11T08:40:47Z</time>
      </trkpt>
      <trkpt lat="44.97688" lon="6.49732">
        <ele>1495</ele>
        <time>2024-08-11T08:40:48Z</time>
      </trkpt>
      <trkpt lat="44.97681" lon="6.49735">
        <ele>1495</ele>
        <time>2024-08-11T08:40:49Z</time>
      </trkpt>
      <trkpt lat="44.97679" lon="6.49736">
        <ele>1495</ele>
        <time>2024-08-11T08:40:50Z</time>
      </trkpt>
      <trkpt lat="44.97677" lon="6.49737">
        <ele>1495</ele>
        <time>2024-08-11T08:40:51Z</time>
      </trkpt>
      <trkpt lat="44.97675" lon="6.49739">
        <ele>1495.2</ele>
        <time>2024-08-11T08:40:52Z</time>
      </trkpt>
      <trkpt lat="44.97675" lon="6.49739">
        <ele>1495</ele>
        <time>2024-08-11T08:40:53Z</time>
      </trkpt>
      <trkpt lat="44.97673" lon="6.49743">
        <ele>1495</ele>
        <time>2024-08-11T08:40:54Z</time>
      </trkpt>
      <trkpt lat="44.97673" lon="6.49743">
        <ele>1495</ele>
        <time>2024-08-11T08:40:55Z</time>
      </trkpt>
      <trkpt lat="44.97671" lon="6.49746">
        <ele>1495.2</ele>
        <time>2024-08-11T08:40:56Z</time>
      </trkpt>
      <trkpt lat="44.97671" lon="6.49746">
        <ele>1495.2</ele>
        <time>2024-08-11T08:40:57Z</time>
      </trkpt>
      <trkpt lat="44.9767" lon="6.4975">
        <ele>1495</ele>
        <time>2024-08-11T08:40:58Z</time>
      </trkpt>
      <trkpt lat="44.9767" lon="6.4975">
        <ele>1495</ele>
        <time>2024-08-11T08:40:59Z</time>
      </trkpt>
      <trkpt lat="44.97669" lon="6.49754">
        <ele>1495</ele>
        <time>2024-08-11T08:41:00Z</time>
      </trkpt>
      <trkpt lat="44.97669" lon="6.49754">
        <ele>1495.2</ele>
        <time>2024-08-11T08:41:01Z</time>
      </trkpt>
      <trkpt lat="44.97668" lon="6.49758">
        <ele>1495.4</ele>
        <time>2024-08-11T08:41:02Z</time>
      </trkpt>
      <trkpt lat="44.97668" lon="6.49758">
        <ele>1495.4</ele>
        <time>2024-08-11T08:41:03Z</time>
      </trkpt>
      <trkpt lat="44.97665" lon="6.49761">
        <ele>1495.6</ele>
        <time>2024-08-11T08:41:04Z</time>
      </trkpt>
      <trkpt lat="44.97665" lon="6.49761">
        <ele>1495.6</ele>
        <time>2024-08-11T08:41:05Z</time>
      </trkpt>
      <trkpt lat="44.97663" lon="6.49764">
        <ele>1495.8</ele>
        <time>2024-08-11T08:41:06Z</time>
      </trkpt>
      <trkpt lat="44.97663" lon="6.49764">
        <ele>1496</ele>
        <time>2024-08-11T08:41:07Z</time>
      </trkpt>
      <trkpt lat="44.97662" lon="6.49766">
        <ele>1496.2</ele>
        <time>2024-08-11T08:41:08Z</time>
      </trkpt>
      <trkpt lat="44.97662" lon="6.49766">
        <ele>1496.2</ele>
        <time>2024-08-11T08:41:09Z</time>
      </trkpt>
      <trkpt lat="44.97661" lon="6.49769">
        <ele>1496.2</ele>
        <time>2024-08-11T08:41:10Z</time>
      </trkpt>
      <trkpt lat="44.9766" lon="6.49771">
        <ele>1496.2</ele>
        <time>2024-08-11T08:41:11Z</time>
      </trkpt>
      <trkpt lat="44.9766" lon="6.49771">
        <ele>1496.4</ele>
        <time>2024-08-11T08:41:12Z</time>
      </trkpt>
      <trkpt lat="44.97658" lon="6.49775">
        <ele>1496.6</ele>
        <time>2024-08-11T08:41:13Z</time>
      </trkpt>
      <trkpt lat="44.97658" lon="6.49775">
        <ele>1496.6</ele>
        <time>2024-08-11T08:41:14Z</time>
      </trkpt>
      <trkpt lat="44.97655" lon="6.49778">
        <ele>1496.6</ele>
        <time>2024-08-11T08:41:15Z</time>
      </trkpt>
      <trkpt lat="44.97655" lon="6.49778">
        <ele>1496.6</ele>
        <time>2024-08-11T08:41:16Z</time>
      </trkpt>
      <trkpt lat="44.97653" lon="6.4978">
        <ele>1496.6</ele>
        <time>2024-08-11T08:41:17Z</time>
      </trkpt>
      <trkpt lat="44.97653" lon="6.4978">
        <ele>1496.6</ele>
        <time>2024-08-11T08:41:18Z</time>
      </trkpt>
      <trkpt lat="44.97651" lon="6.49782">
        <ele>1496.6</ele>
        <time>2024-08-11T08:41:19Z</time>
      </trkpt>
      <trkpt lat="44.97651" lon="6.49782">
        <ele>1496.6</ele>
        <time>2024-08-11T08:41:20Z</time>
      </trkpt>
      <trkpt lat="44.97649" lon="6.49784">
        <ele>1496.6</ele>
        <time>2024-08-11T08:41:21Z</time>
      </trkpt>
      <trkpt lat="44.97649" lon="6.49784">
        <ele>1496.6</ele>
        <time>2024-08-11T08:41:22Z</time>
      </trkpt>
      <trkpt lat="44.97646" lon="6.49785">
        <ele>1496.6</ele>
        <time>2024-08-11T08:41:23Z</time>
      </trkpt>
      <trkpt lat="44.97646" lon="6.49785">
        <ele>1496.6</ele>
        <time>2024-08-11T08:41:24Z</time>
      </trkpt>
      <trkpt lat="44.97644" lon="6.49786">
        <ele>1496.8</ele>
        <time>2024-08-11T08:41:25Z</time>
      </trkpt>
      <trkpt lat="44.97644" lon="6.49786">
        <ele>1496.8</ele>
        <time>2024-08-11T08:41:26Z</time>
      </trkpt>
      <trkpt lat="44.97641" lon="6.49787">
        <ele>1496.8</ele>
        <time>2024-08-11T08:41:27Z</time>
      </trkpt>
      <trkpt lat="44.97641" lon="6.49787">
        <ele>1496.4</ele>
        <time>2024-08-11T08:41:28Z</time>
      </trkpt>
      <trkpt lat="44.97639" lon="6.4979">
        <ele>1496.4</ele>
        <time>2024-08-11T08:41:29Z</time>
      </trkpt>
      <trkpt lat="44.97639" lon="6.4979">
        <ele>1496.2</ele>
        <time>2024-08-11T08:41:30Z</time>
      </trkpt>
      <trkpt lat="44.97636" lon="6.49793">
        <ele>1496</ele>
        <time>2024-08-11T08:41:31Z</time>
      </trkpt>
      <trkpt lat="44.97636" lon="6.49793">
        <ele>1496</ele>
        <time>2024-08-11T08:41:32Z</time>
      </trkpt>
      <trkpt lat="44.97634" lon="6.49796">
        <ele>1496</ele>
        <time>2024-08-11T08:41:33Z</time>
      </trkpt>
      <trkpt lat="44.97634" lon="6.49796">
        <ele>1496.4</ele>
        <time>2024-08-11T08:41:34Z</time>
      </trkpt>
      <trkpt lat="44.97632" lon="6.49799">
        <ele>1496.4</ele>
        <time>2024-08-11T08:41:35Z</time>
      </trkpt>
      <trkpt lat="44.97632" lon="6.49799">
        <ele>1496.2</ele>
        <time>2024-08-11T08:41:36Z</time>
      </trkpt>
      <trkpt lat="44.97629" lon="6.49802">
        <ele>1496</ele>
        <time>2024-08-11T08:41:37Z</time>
      </trkpt>
      <trkpt lat="44.97629" lon="6.49802">
        <ele>1496</ele>
        <time>2024-08-11T08:41:38Z</time>
      </trkpt>
      <trkpt lat="44.97628" lon="6.49804">
        <ele>1495.8</ele>
        <time>2024-08-11T08:41:39Z</time>
      </trkpt>
      <trkpt lat="44.97628" lon="6.49804">
        <ele>1495.6</ele>
        <time>2024-08-11T08:41:40Z</time>
      </trkpt>
      <trkpt lat="44.97625" lon="6.49806">
        <ele>1495.6</ele>
        <time>2024-08-11T08:41:41Z</time>
      </trkpt>
      <trkpt lat="44.97625" lon="6.49806">
        <ele>1495.6</ele>
        <time>2024-08-11T08:41:42Z</time>
      </trkpt>
      <trkpt lat="44.97623" lon="6.49808">
        <ele>1495.6</ele>
        <time>2024-08-11T08:41:43Z</time>
      </trkpt>
      <trkpt lat="44.97623" lon="6.49808">
        <ele>1495.4</ele>
        <time>2024-08-11T08:41:44Z</time>
      </trkpt>
      <trkpt lat="44.97621" lon="6.49809">
        <ele>1495.2</ele>
        <time>2024-08-11T08:41:45Z</time>
      </trkpt>
      <trkpt lat="44.97621" lon="6.49809">
        <ele>1495.2</ele>
        <time>2024-08-11T08:41:46Z</time>
      </trkpt>
      <trkpt lat="44.97619" lon="6.49812">
        <ele>1495.6</ele>
        <time>2024-08-11T08:41:47Z</time>
      </trkpt>
      <trkpt lat="44.97619" lon="6.49812">
        <ele>1495.6</ele>
        <time>2024-08-11T08:41:48Z</time>
      </trkpt>
      <trkpt lat="44.97616" lon="6.49813">
        <ele>1495.6</ele>
        <time>2024-08-11T08:41:49Z</time>
      </trkpt>
      <trkpt lat="44.97616" lon="6.49813">
        <ele>1495.8</ele>
        <time>2024-08-11T08:41:50Z</time>
      </trkpt>
      <trkpt lat="44.97614" lon="6.49814">
        <ele>1495.8</ele>
        <time>2024-08-11T08:41:51Z</time>
      </trkpt>
      <trkpt lat="44.97614" lon="6.49814">
        <ele>1495.6</ele>
        <time>2024-08-11T08:41:52Z</time>
      </trkpt>
      <trkpt lat="44.97613" lon="6.49817">
        <ele>1495.6</ele>
        <time>2024-08-11T08:41:53Z</time>
      </trkpt>
      <trkpt lat="44.97613" lon="6.49817">
        <ele>1495.8</ele>
        <time>2024-08-11T08:41:54Z</time>
      </trkpt>
      <trkpt lat="44.97611" lon="6.49819">
        <ele>1495.8</ele>
        <time>2024-08-11T08:41:55Z</time>
      </trkpt>
      <trkpt lat="44.97611" lon="6.49819">
        <ele>1495.8</ele>
        <time>2024-08-11T08:41:56Z</time>
      </trkpt>
      <trkpt lat="44.97609" lon="6.49822">
        <ele>1495.8</ele>
        <time>2024-08-11T08:41:57Z</time>
      </trkpt>
      <trkpt lat="44.97609" lon="6.49822">
        <ele>1495.8</ele>
        <time>2024-08-11T08:41:58Z</time>
      </trkpt>
      <trkpt lat="44.97609" lon="6.49825">
        <ele>1495.8</ele>
        <time>2024-08-11T08:41:59Z</time>
      </trkpt>
      <trkpt lat="44.97609" lon="6.49825">
        <ele>1495.8</ele>
        <time>2024-08-11T08:42:00Z</time>
      </trkpt>
      <trkpt lat="44.97608" lon="6.49828">
        <ele>1495.8</ele>
        <time>2024-08-11T08:42:01Z</time>
      </trkpt>
      <trkpt lat="44.97608" lon="6.49828">
        <ele>1495.2</ele>
        <time>2024-08-11T08:42:02Z</time>
      </trkpt>
      <trkpt lat="44.97609" lon="6.49832">
        <ele>1495.2</ele>
        <time>2024-08-11T08:42:03Z</time>
      </trkpt>
      <trkpt lat="44.97609" lon="6.49832">
        <ele>1495.4</ele>
        <time>2024-08-11T08:42:04Z</time>
      </trkpt>
      <trkpt lat="44.97609" lon="6.49835">
        <ele>1495.4</ele>
        <time>2024-08-11T08:42:05Z</time>
      </trkpt>
      <trkpt lat="44.97609" lon="6.49835">
        <ele>1495.2</ele>
        <time>2024-08-11T08:42:06Z</time>
      </trkpt>
      <trkpt lat="44.9761" lon="6.49839">
        <ele>1495</ele>
        <time>2024-08-11T08:42:07Z</time>
      </trkpt>
      <trkpt lat="44.9761" lon="6.49839">
        <ele>1495</ele>
        <time>2024-08-11T08:42:08Z</time>
      </trkpt>
      <trkpt lat="44.97611" lon="6.49843">
        <ele>1495.2</ele>
        <time>2024-08-11T08:42:09Z</time>
      </trkpt>
      <trkpt lat="44.97611" lon="6.49843">
        <ele>1495.2</ele>
        <time>2024-08-11T08:42:10Z</time>
      </trkpt>
      <trkpt lat="44.97611" lon="6.49848">
        <ele>1495.2</ele>
        <time>2024-08-11T08:42:11Z</time>
      </trkpt>
      <trkpt lat="44.9761" lon="6.4985">
        <ele>1495</ele>
        <time>2024-08-11T08:42:12Z</time>
      </trkpt>
      <trkpt lat="44.9761" lon="6.4985">
        <ele>1494.8</ele>
        <time>2024-08-11T08:42:13Z</time>
      </trkpt>
      <trkpt lat="44.97609" lon="6.49854">
        <ele>1494.6</ele>
        <time>2024-08-11T08:42:14Z</time>
      </trkpt>
      <trkpt lat="44.97609" lon="6.49854">
        <ele>1494.6</ele>
        <time>2024-08-11T08:42:15Z</time>
      </trkpt>
      <trkpt lat="44.97607" lon="6.49858">
        <ele>1494.6</ele>
        <time>2024-08-11T08:42:16Z</time>
      </trkpt>
      <trkpt lat="44.97607" lon="6.49858">
        <ele>1494.6</ele>
        <time>2024-08-11T08:42:17Z</time>
      </trkpt>
      <trkpt lat="44.97606" lon="6.49861">
        <ele>1494.6</ele>
        <time>2024-08-11T08:42:18Z</time>
      </trkpt>
      <trkpt lat="44.97606" lon="6.49861">
        <ele>1494.8</ele>
        <time>2024-08-11T08:42:19Z</time>
      </trkpt>
      <trkpt lat="44.97606" lon="6.49861">
        <ele>1494.8</ele>
        <time>2024-08-11T08:42:20Z</time>
      </trkpt>
      <trkpt lat="44.97603" lon="6.49866">
        <ele>1494.8</ele>
        <time>2024-08-11T08:42:21Z</time>
      </trkpt>
      <trkpt lat="44.97602" lon="6.49867">
        <ele>1494.6</ele>
        <time>2024-08-11T08:42:22Z</time>
      </trkpt>
      <trkpt lat="44.97602" lon="6.49867">
        <ele>1494.6</ele>
        <time>2024-08-11T08:42:23Z</time>
      </trkpt>
      <trkpt lat="44.976" lon="6.4987">
        <ele>1494.6</ele>
        <time>2024-08-11T08:42:24Z</time>
      </trkpt>
      <trkpt lat="44.97599" lon="6.49872">
        <ele>1494.8</ele>
        <time>2024-08-11T08:42:25Z</time>
      </trkpt>
      <trkpt lat="44.97599" lon="6.49872">
        <ele>1494.8</ele>
        <time>2024-08-11T08:42:26Z</time>
      </trkpt>
      <trkpt lat="44.97597" lon="6.49875">
        <ele>1494.8</ele>
        <time>2024-08-11T08:42:27Z</time>
      </trkpt>
      <trkpt lat="44.97597" lon="6.49875">
        <ele>1494.8</ele>
        <time>2024-08-11T08:42:28Z</time>
      </trkpt>
      <trkpt lat="44.97596" lon="6.49878">
        <ele>1494.8</ele>
        <time>2024-08-11T08:42:29Z</time>
      </trkpt>
      <trkpt lat="44.97596" lon="6.49878">
        <ele>1494.8</ele>
        <time>2024-08-11T08:42:30Z</time>
      </trkpt>
      <trkpt lat="44.97595" lon="6.49881">
        <ele>1494.8</ele>
        <time>2024-08-11T08:42:31Z</time>
      </trkpt>
      <trkpt lat="44.97595" lon="6.49881">
        <ele>1494.8</ele>
        <time>2024-08-11T08:42:32Z</time>
      </trkpt>
      <trkpt lat="44.97593" lon="6.49884">
        <ele>1494.8</ele>
        <time>2024-08-11T08:42:33Z</time>
      </trkpt>
      <trkpt lat="44.97593" lon="6.49884">
        <ele>1494.8</ele>
        <time>2024-08-11T08:42:34Z</time>
      </trkpt>
      <trkpt lat="44.9759" lon="6.49886">
        <ele>1494.8</ele>
        <time>2024-08-11T08:42:35Z</time>
      </trkpt>
      <trkpt lat="44.9759" lon="6.49886">
        <ele>1494.8</ele>
        <time>2024-08-11T08:42:36Z</time>
      </trkpt>
      <trkpt lat="44.97589" lon="6.49889">
        <ele>1494.6</ele>
        <time>2024-08-11T08:42:37Z</time>
      </trkpt>
      <trkpt lat="44.97589" lon="6.49889">
        <ele>1494.6</ele>
        <time>2024-08-11T08:42:38Z</time>
      </trkpt>
      <trkpt lat="44.97587" lon="6.49893">
        <ele>1494.8</ele>
        <time>2024-08-11T08:42:39Z</time>
      </trkpt>
      <trkpt lat="44.97587" lon="6.49893">
        <ele>1494.8</ele>
        <time>2024-08-11T08:42:40Z</time>
      </trkpt>
      <trkpt lat="44.97585" lon="6.49896">
        <ele>1494.8</ele>
        <time>2024-08-11T08:42:41Z</time>
      </trkpt>
      <trkpt lat="44.97585" lon="6.49896">
        <ele>1494.8</ele>
        <time>2024-08-11T08:42:42Z</time>
      </trkpt>
      <trkpt lat="44.97584" lon="6.49899">
        <ele>1494.6</ele>
        <time>2024-08-11T08:42:43Z</time>
      </trkpt>
      <trkpt lat="44.97584" lon="6.49899">
        <ele>1494.4</ele>
        <time>2024-08-11T08:42:44Z</time>
      </trkpt>
      <trkpt lat="44.97583" lon="6.49902">
        <ele>1494.4</ele>
        <time>2024-08-11T08:42:45Z</time>
      </trkpt>
      <trkpt lat="44.97583" lon="6.49902">
        <ele>1494.2</ele>
        <time>2024-08-11T08:42:46Z</time>
      </trkpt>
      <trkpt lat="44.97582" lon="6.49905">
        <ele>1494.2</ele>
        <time>2024-08-11T08:42:47Z</time>
      </trkpt>
      <trkpt lat="44.97582" lon="6.49905">
        <ele>1494.2</ele>
        <time>2024-08-11T08:42:48Z</time>
      </trkpt>
      <trkpt lat="44.97581" lon="6.49908">
        <ele>1494.4</ele>
        <time>2024-08-11T08:42:49Z</time>
      </trkpt>
      <trkpt lat="44.97581" lon="6.49908">
        <ele>1494.4</ele>
        <time>2024-08-11T08:42:50Z</time>
      </trkpt>
      <trkpt lat="44.97579" lon="6.4991">
        <ele>1494.4</ele>
        <time>2024-08-11T08:42:51Z</time>
      </trkpt>
      <trkpt lat="44.97579" lon="6.4991">
        <ele>1494.2</ele>
        <time>2024-08-11T08:42:52Z</time>
      </trkpt>
      <trkpt lat="44.97576" lon="6.49913">
        <ele>1494.2</ele>
        <time>2024-08-11T08:42:53Z</time>
      </trkpt>
      <trkpt lat="44.97576" lon="6.49913">
        <ele>1494.2</ele>
        <time>2024-08-11T08:42:54Z</time>
      </trkpt>
      <trkpt lat="44.97574" lon="6.49915">
        <ele>1494.2</ele>
        <time>2024-08-11T08:42:55Z</time>
      </trkpt>
      <trkpt lat="44.97574" lon="6.49915">
        <ele>1494.2</ele>
        <time>2024-08-11T08:42:56Z</time>
      </trkpt>
      <trkpt lat="44.97573" lon="6.49918">
        <ele>1494.2</ele>
        <time>2024-08-11T08:42:57Z</time>
      </trkpt>
      <trkpt lat="44.97573" lon="6.49918">
        <ele>1494</ele>
        <time>2024-08-11T08:42:58Z</time>
      </trkpt>
      <trkpt lat="44.97571" lon="6.49919">
        <ele>1494</ele>
        <time>2024-08-11T08:42:59Z</time>
      </trkpt>
      <trkpt lat="44.97571" lon="6.49919">
        <ele>1493.8</ele>
        <time>2024-08-11T08:43:00Z</time>
      </trkpt>
      <trkpt lat="44.97569" lon="6.49921">
        <ele>1493.8</ele>
        <time>2024-08-11T08:43:01Z</time>
      </trkpt>
      <trkpt lat="44.97569" lon="6.49921">
        <ele>1494.4</ele>
        <time>2024-08-11T08:43:02Z</time>
      </trkpt>
      <trkpt lat="44.97566" lon="6.49923">
        <ele>1494.4</ele>
        <time>2024-08-11T08:43:03Z</time>
      </trkpt>
      <trkpt lat="44.97566" lon="6.49923">
        <ele>1494.6</ele>
        <time>2024-08-11T08:43:04Z</time>
      </trkpt>
      <trkpt lat="44.97564" lon="6.49925">
        <ele>1494.6</ele>
        <time>2024-08-11T08:43:05Z</time>
      </trkpt>
      <trkpt lat="44.97564" lon="6.49925">
        <ele>1494.8</ele>
        <time>2024-08-11T08:43:06Z</time>
      </trkpt>
      <trkpt lat="44.97562" lon="6.49926">
        <ele>1495.2</ele>
        <time>2024-08-11T08:43:07Z</time>
      </trkpt>
      <trkpt lat="44.97562" lon="6.49926">
        <ele>1495.4</ele>
        <time>2024-08-11T08:43:08Z</time>
      </trkpt>
      <trkpt lat="44.97562" lon="6.49926">
        <ele>1495.6</ele>
        <time>2024-08-11T08:43:09Z</time>
      </trkpt>
      <trkpt lat="44.97562" lon="6.49926">
        <ele>1496</ele>
        <time>2024-08-11T08:43:10Z</time>
      </trkpt>
      <trkpt lat="44.9756" lon="6.49929">
        <ele>1496</ele>
        <time>2024-08-11T08:43:11Z</time>
      </trkpt>
      <trkpt lat="44.9756" lon="6.49929">
        <ele>1496</ele>
        <time>2024-08-11T08:43:12Z</time>
      </trkpt>
      <trkpt lat="44.97558" lon="6.49932">
        <ele>1496.2</ele>
        <time>2024-08-11T08:43:13Z</time>
      </trkpt>
      <trkpt lat="44.97558" lon="6.49932">
        <ele>1496.6</ele>
        <time>2024-08-11T08:43:14Z</time>
      </trkpt>
      <trkpt lat="44.97557" lon="6.49935">
        <ele>1496.6</ele>
        <time>2024-08-11T08:43:15Z</time>
      </trkpt>
      <trkpt lat="44.97557" lon="6.49935">
        <ele>1497</ele>
        <time>2024-08-11T08:43:16Z</time>
      </trkpt>
      <trkpt lat="44.97556" lon="6.49937">
        <ele>1497</ele>
        <time>2024-08-11T08:43:17Z</time>
      </trkpt>
      <trkpt lat="44.97556" lon="6.49937">
        <ele>1497</ele>
        <time>2024-08-11T08:43:18Z</time>
      </trkpt>
      <trkpt lat="44.97556" lon="6.49941">
        <ele>1497.2</ele>
        <time>2024-08-11T08:43:19Z</time>
      </trkpt>
      <trkpt lat="44.97556" lon="6.49941">
        <ele>1497.2</ele>
        <time>2024-08-11T08:43:20Z</time>
      </trkpt>
      <trkpt lat="44.97556" lon="6.49945">
        <ele>1497.2</ele>
        <time>2024-08-11T08:43:21Z</time>
      </trkpt>
      <trkpt lat="44.97556" lon="6.49945">
        <ele>1497.4</ele>
        <time>2024-08-11T08:43:22Z</time>
      </trkpt>
      <trkpt lat="44.97554" lon="6.49947">
        <ele>1497.4</ele>
        <time>2024-08-11T08:43:23Z</time>
      </trkpt>
      <trkpt lat="44.97554" lon="6.49947">
        <ele>1497.6</ele>
        <time>2024-08-11T08:43:24Z</time>
      </trkpt>
      <trkpt lat="44.97551" lon="6.49949">
        <ele>1497.6</ele>
        <time>2024-08-11T08:43:25Z</time>
      </trkpt>
      <trkpt lat="44.97551" lon="6.49949">
        <ele>1497.6</ele>
        <time>2024-08-11T08:43:26Z</time>
      </trkpt>
      <trkpt lat="44.97549" lon="6.49951">
        <ele>1497.4</ele>
        <time>2024-08-11T08:43:27Z</time>
      </trkpt>
      <trkpt lat="44.97546" lon="6.49952">
        <ele>1497.4</ele>
        <time>2024-08-11T08:43:28Z</time>
      </trkpt>
      <trkpt lat="44.97546" lon="6.49952">
        <ele>1497.4</ele>
        <time>2024-08-11T08:43:29Z</time>
      </trkpt>
      <trkpt lat="44.97544" lon="6.49953">
        <ele>1497.4</ele>
        <time>2024-08-11T08:43:30Z</time>
      </trkpt>
      <trkpt lat="44.97544" lon="6.49953">
        <ele>1497.4</ele>
        <time>2024-08-11T08:43:31Z</time>
      </trkpt>
      <trkpt lat="44.97542" lon="6.49956">
        <ele>1497.4</ele>
        <time>2024-08-11T08:43:32Z</time>
      </trkpt>
      <trkpt lat="44.97542" lon="6.49956">
        <ele>1497.4</ele>
        <time>2024-08-11T08:43:33Z</time>
      </trkpt>
      <trkpt lat="44.9754" lon="6.49959">
        <ele>1497</ele>
        <time>2024-08-11T08:43:34Z</time>
      </trkpt>
      <trkpt lat="44.97538" lon="6.4996">
        <ele>1497</ele>
        <time>2024-08-11T08:43:35Z</time>
      </trkpt>
      <trkpt lat="44.97538" lon="6.4996">
        <ele>1497</ele>
        <time>2024-08-11T08:43:36Z</time>
      </trkpt>
      <trkpt lat="44.97535" lon="6.49963">
        <ele>1497</ele>
        <time>2024-08-11T08:43:37Z</time>
      </trkpt>
      <trkpt lat="44.97534" lon="6.49965">
        <ele>1496.8</ele>
        <time>2024-08-11T08:43:38Z</time>
      </trkpt>
      <trkpt lat="44.97534" lon="6.49965">
        <ele>1496.8</ele>
        <time>2024-08-11T08:43:39Z</time>
      </trkpt>
      <trkpt lat="44.97532" lon="6.49967">
        <ele>1496.8</ele>
        <time>2024-08-11T08:43:40Z</time>
      </trkpt>
      <trkpt lat="44.97532" lon="6.49967">
        <ele>1496.8</ele>
        <time>2024-08-11T08:43:41Z</time>
      </trkpt>
      <trkpt lat="44.9753" lon="6.4997">
        <ele>1496.8</ele>
        <time>2024-08-11T08:43:42Z</time>
      </trkpt>
      <trkpt lat="44.9753" lon="6.4997">
        <ele>1496.8</ele>
        <time>2024-08-11T08:43:43Z</time>
      </trkpt>
      <trkpt lat="44.9753" lon="6.4997">
        <ele>1496.8</ele>
        <time>2024-08-11T08:43:44Z</time>
      </trkpt>
      <trkpt lat="44.97527" lon="6.49976">
        <ele>1496.8</ele>
        <time>2024-08-11T08:43:45Z</time>
      </trkpt>
      <trkpt lat="44.97526" lon="6.49978">
        <ele>1496.8</ele>
        <time>2024-08-11T08:43:46Z</time>
      </trkpt>
      <trkpt lat="44.97526" lon="6.49978">
        <ele>1496.6</ele>
        <time>2024-08-11T08:43:47Z</time>
      </trkpt>
      <trkpt lat="44.97524" lon="6.49981">
        <ele>1496.6</ele>
        <time>2024-08-11T08:43:48Z</time>
      </trkpt>
      <trkpt lat="44.97524" lon="6.49981">
        <ele>1496.6</ele>
        <time>2024-08-11T08:43:49Z</time>
      </trkpt>
      <trkpt lat="44.97524" lon="6.49985">
        <ele>1496.4</ele>
        <time>2024-08-11T08:43:50Z</time>
      </trkpt>
      <trkpt lat="44.97524" lon="6.49985">
        <ele>1496.4</ele>
        <time>2024-08-11T08:43:51Z</time>
      </trkpt>
      <trkpt lat="44.97522" lon="6.49988">
        <ele>1496.4</ele>
        <time>2024-08-11T08:43:52Z</time>
      </trkpt>
      <trkpt lat="44.97522" lon="6.49988">
        <ele>1496.4</ele>
        <time>2024-08-11T08:43:53Z</time>
      </trkpt>
      <trkpt lat="44.9752" lon="6.49992">
        <ele>1496.4</ele>
        <time>2024-08-11T08:43:54Z</time>
      </trkpt>
      <trkpt lat="44.9752" lon="6.49992">
        <ele>1496.2</ele>
        <time>2024-08-11T08:43:55Z</time>
      </trkpt>
      <trkpt lat="44.97518" lon="6.49995">
        <ele>1495.8</ele>
        <time>2024-08-11T08:43:56Z</time>
      </trkpt>
      <trkpt lat="44.97518" lon="6.49995">
        <ele>1495.8</ele>
        <time>2024-08-11T08:43:57Z</time>
      </trkpt>
      <trkpt lat="44.97517" lon="6.49998">
        <ele>1495.8</ele>
        <time>2024-08-11T08:43:58Z</time>
      </trkpt>
      <trkpt lat="44.97517" lon="6.49998">
        <ele>1495.8</ele>
        <time>2024-08-11T08:43:59Z</time>
      </trkpt>
      <trkpt lat="44.97514" lon="6.50001">
        <ele>1495.8</ele>
        <time>2024-08-11T08:44:00Z</time>
      </trkpt>
      <trkpt lat="44.97514" lon="6.50001">
        <ele>1495.8</ele>
        <time>2024-08-11T08:44:01Z</time>
      </trkpt>
      <trkpt lat="44.97512" lon="6.50003">
        <ele>1496</ele>
        <time>2024-08-11T08:44:02Z</time>
      </trkpt>
      <trkpt lat="44.97512" lon="6.50003">
        <ele>1496</ele>
        <time>2024-08-11T08:44:03Z</time>
      </trkpt>
      <trkpt lat="44.97511" lon="6.50006">
        <ele>1496</ele>
        <time>2024-08-11T08:44:04Z</time>
      </trkpt>
      <trkpt lat="44.97511" lon="6.50006">
        <ele>1496</ele>
        <time>2024-08-11T08:44:05Z</time>
      </trkpt>
      <trkpt lat="44.97509" lon="6.50009">
        <ele>1496</ele>
        <time>2024-08-11T08:44:06Z</time>
      </trkpt>
      <trkpt lat="44.97509" lon="6.50009">
        <ele>1496.2</ele>
        <time>2024-08-11T08:44:07Z</time>
      </trkpt>
      <trkpt lat="44.97508" lon="6.50013">
        <ele>1496.2</ele>
        <time>2024-08-11T08:44:08Z</time>
      </trkpt>
      <trkpt lat="44.97508" lon="6.50013">
        <ele>1496.2</ele>
        <time>2024-08-11T08:44:09Z</time>
      </trkpt>
      <trkpt lat="44.97507" lon="6.50017">
        <ele>1496.2</ele>
        <time>2024-08-11T08:44:10Z</time>
      </trkpt>
      <trkpt lat="44.97507" lon="6.50017">
        <ele>1496.2</ele>
        <time>2024-08-11T08:44:11Z</time>
      </trkpt>
      <trkpt lat="44.97506" lon="6.50021">
        <ele>1496</ele>
        <time>2024-08-11T08:44:12Z</time>
      </trkpt>
      <trkpt lat="44.97505" lon="6.50023">
        <ele>1496</ele>
        <time>2024-08-11T08:44:13Z</time>
      </trkpt>
      <trkpt lat="44.97504" lon="6.50024">
        <ele>1495.8</ele>
        <time>2024-08-11T08:44:14Z</time>
      </trkpt>
      <trkpt lat="44.97504" lon="6.50024">
        <ele>1496</ele>
        <time>2024-08-11T08:44:15Z</time>
      </trkpt>
      <trkpt lat="44.97503" lon="6.50028">
        <ele>1496</ele>
        <time>2024-08-11T08:44:16Z</time>
      </trkpt>
      <trkpt lat="44.97503" lon="6.50028">
        <ele>1496</ele>
        <time>2024-08-11T08:44:17Z</time>
      </trkpt>
      <trkpt lat="44.97501" lon="6.50031">
        <ele>1495.8</ele>
        <time>2024-08-11T08:44:18Z</time>
      </trkpt>
      <trkpt lat="44.97501" lon="6.50031">
        <ele>1495.8</ele>
        <time>2024-08-11T08:44:19Z</time>
      </trkpt>
      <trkpt lat="44.97501" lon="6.50035">
        <ele>1495.8</ele>
        <time>2024-08-11T08:44:20Z</time>
      </trkpt>
      <trkpt lat="44.97501" lon="6.50035">
        <ele>1496</ele>
        <time>2024-08-11T08:44:21Z</time>
      </trkpt>
      <trkpt lat="44.975" lon="6.5004">
        <ele>1496</ele>
        <time>2024-08-11T08:44:22Z</time>
      </trkpt>
      <trkpt lat="44.975" lon="6.5004">
        <ele>1496</ele>
        <time>2024-08-11T08:44:23Z</time>
      </trkpt>
      <trkpt lat="44.975" lon="6.50044">
        <ele>1496</ele>
        <time>2024-08-11T08:44:24Z</time>
      </trkpt>
      <trkpt lat="44.975" lon="6.50044">
        <ele>1496</ele>
        <time>2024-08-11T08:44:25Z</time>
      </trkpt>
      <trkpt lat="44.97498" lon="6.50046">
        <ele>1496.2</ele>
        <time>2024-08-11T08:44:26Z</time>
      </trkpt>
      <trkpt lat="44.97498" lon="6.50046">
        <ele>1496.2</ele>
        <time>2024-08-11T08:44:27Z</time>
      </trkpt>
      <trkpt lat="44.97497" lon="6.5005">
        <ele>1496.4</ele>
        <time>2024-08-11T08:44:28Z</time>
      </trkpt>
      <trkpt lat="44.97497" lon="6.5005">
        <ele>1496.4</ele>
        <time>2024-08-11T08:44:29Z</time>
      </trkpt>
      <trkpt lat="44.97496" lon="6.50053">
        <ele>1496.4</ele>
        <time>2024-08-11T08:44:30Z</time>
      </trkpt>
      <trkpt lat="44.97496" lon="6.50053">
        <ele>1496.4</ele>
        <time>2024-08-11T08:44:31Z</time>
      </trkpt>
      <trkpt lat="44.97496" lon="6.50055">
        <ele>1496.4</ele>
        <time>2024-08-11T08:44:32Z</time>
      </trkpt>
      <trkpt lat="44.97496" lon="6.50055">
        <ele>1496.4</ele>
        <time>2024-08-11T08:44:33Z</time>
      </trkpt>
      <trkpt lat="44.97495" lon="6.50059">
        <ele>1496.4</ele>
        <time>2024-08-11T08:44:34Z</time>
      </trkpt>
      <trkpt lat="44.97495" lon="6.50059">
        <ele>1496.4</ele>
        <time>2024-08-11T08:44:35Z</time>
      </trkpt>
      <trkpt lat="44.97494" lon="6.50063">
        <ele>1496.4</ele>
        <time>2024-08-11T08:44:36Z</time>
      </trkpt>
      <trkpt lat="44.97494" lon="6.50063">
        <ele>1496.4</ele>
        <time>2024-08-11T08:44:37Z</time>
      </trkpt>
      <trkpt lat="44.97493" lon="6.50067">
        <ele>1496.6</ele>
        <time>2024-08-11T08:44:38Z</time>
      </trkpt>
      <trkpt lat="44.97493" lon="6.50067">
        <ele>1496.6</ele>
        <time>2024-08-11T08:44:39Z</time>
      </trkpt>
      <trkpt lat="44.97493" lon="6.5007">
        <ele>1496.4</ele>
        <time>2024-08-11T08:44:40Z</time>
      </trkpt>
      <trkpt lat="44.97493" lon="6.5007">
        <ele>1496.4</ele>
        <time>2024-08-11T08:44:41Z</time>
      </trkpt>
      <trkpt lat="44.97492" lon="6.50074">
        <ele>1496.4</ele>
        <time>2024-08-11T08:44:42Z</time>
      </trkpt>
      <trkpt lat="44.97492" lon="6.50074">
        <ele>1496.4</ele>
        <time>2024-08-11T08:44:43Z</time>
      </trkpt>
      <trkpt lat="44.97491" lon="6.50078">
        <ele>1496.4</ele>
        <time>2024-08-11T08:44:44Z</time>
      </trkpt>
      <trkpt lat="44.9749" lon="6.50081">
        <ele>1496.4</ele>
        <time>2024-08-11T08:44:45Z</time>
      </trkpt>
      <trkpt lat="44.9749" lon="6.50081">
        <ele>1496</ele>
        <time>2024-08-11T08:44:46Z</time>
      </trkpt>
      <trkpt lat="44.97489" lon="6.50085">
        <ele>1496</ele>
        <time>2024-08-11T08:44:47Z</time>
      </trkpt>
      <trkpt lat="44.97489" lon="6.50085">
        <ele>1496</ele>
        <time>2024-08-11T08:44:48Z</time>
      </trkpt>
      <trkpt lat="44.97487" lon="6.5009">
        <ele>1496</ele>
        <time>2024-08-11T08:44:49Z</time>
      </trkpt>
      <trkpt lat="44.97487" lon="6.5009">
        <ele>1495.8</ele>
        <time>2024-08-11T08:44:50Z</time>
      </trkpt>
      <trkpt lat="44.97486" lon="6.50094">
        <ele>1495.6</ele>
        <time>2024-08-11T08:44:51Z</time>
      </trkpt>
      <trkpt lat="44.97486" lon="6.50094">
        <ele>1495.4</ele>
        <time>2024-08-11T08:44:52Z</time>
      </trkpt>
      <trkpt lat="44.97486" lon="6.50097">
        <ele>1495.4</ele>
        <time>2024-08-11T08:44:53Z</time>
      </trkpt>
      <trkpt lat="44.97486" lon="6.50097">
        <ele>1495.6</ele>
        <time>2024-08-11T08:44:54Z</time>
      </trkpt>
      <trkpt lat="44.97485" lon="6.50101">
        <ele>1495.6</ele>
        <time>2024-08-11T08:44:55Z</time>
      </trkpt>
      <trkpt lat="44.97485" lon="6.50101">
        <ele>1495.2</ele>
        <time>2024-08-11T08:44:56Z</time>
      </trkpt>
      <trkpt lat="44.97484" lon="6.50104">
        <ele>1495.2</ele>
        <time>2024-08-11T08:44:57Z</time>
      </trkpt>
      <trkpt lat="44.97483" lon="6.50107">
        <ele>1495.2</ele>
        <time>2024-08-11T08:44:58Z</time>
      </trkpt>
      <trkpt lat="44.97483" lon="6.5011">
        <ele>1495.2</ele>
        <time>2024-08-11T08:44:59Z</time>
      </trkpt>
      <trkpt lat="44.97483" lon="6.5011">
        <ele>1494.8</ele>
        <time>2024-08-11T08:45:00Z</time>
      </trkpt>
      <trkpt lat="44.97482" lon="6.50114">
        <ele>1494.6</ele>
        <time>2024-08-11T08:45:01Z</time>
      </trkpt>
      <trkpt lat="44.97482" lon="6.50114">
        <ele>1494.8</ele>
        <time>2024-08-11T08:45:02Z</time>
      </trkpt>
      <trkpt lat="44.97482" lon="6.50114">
        <ele>1494.8</ele>
        <time>2024-08-11T08:45:03Z</time>
      </trkpt>
      <trkpt lat="44.97481" lon="6.50118">
        <ele>1494.6</ele>
        <time>2024-08-11T08:45:04Z</time>
      </trkpt>
      <trkpt lat="44.97481" lon="6.50118">
        <ele>1494.6</ele>
        <time>2024-08-11T08:45:05Z</time>
      </trkpt>
      <trkpt lat="44.97481" lon="6.50121">
        <ele>1494.4</ele>
        <time>2024-08-11T08:45:06Z</time>
      </trkpt>
      <trkpt lat="44.97481" lon="6.50121">
        <ele>1494.2</ele>
        <time>2024-08-11T08:45:07Z</time>
      </trkpt>
      <trkpt lat="44.9748" lon="6.50125">
        <ele>1494.2</ele>
        <time>2024-08-11T08:45:08Z</time>
      </trkpt>
      <trkpt lat="44.9748" lon="6.50125">
        <ele>1494.2</ele>
        <time>2024-08-11T08:45:09Z</time>
      </trkpt>
      <trkpt lat="44.97479" lon="6.50129">
        <ele>1494</ele>
        <time>2024-08-11T08:45:10Z</time>
      </trkpt>
      <trkpt lat="44.97479" lon="6.50129">
        <ele>1493.8</ele>
        <time>2024-08-11T08:45:11Z</time>
      </trkpt>
      <trkpt lat="44.97478" lon="6.50132">
        <ele>1493.6</ele>
        <time>2024-08-11T08:45:12Z</time>
      </trkpt>
      <trkpt lat="44.97478" lon="6.50132">
        <ele>1493.4</ele>
        <time>2024-08-11T08:45:13Z</time>
      </trkpt>
      <trkpt lat="44.97478" lon="6.50136">
        <ele>1493.4</ele>
        <time>2024-08-11T08:45:14Z</time>
      </trkpt>
      <trkpt lat="44.97478" lon="6.50136">
        <ele>1493</ele>
        <time>2024-08-11T08:45:15Z</time>
      </trkpt>
      <trkpt lat="44.97477" lon="6.50139">
        <ele>1492.8</ele>
        <time>2024-08-11T08:45:16Z</time>
      </trkpt>
      <trkpt lat="44.97477" lon="6.50139">
        <ele>1492.8</ele>
        <time>2024-08-11T08:45:17Z</time>
      </trkpt>
      <trkpt lat="44.97476" lon="6.50142">
        <ele>1492.8</ele>
        <time>2024-08-11T08:45:18Z</time>
      </trkpt>
      <trkpt lat="44.97476" lon="6.50142">
        <ele>1492.6</ele>
        <time>2024-08-11T08:45:19Z</time>
      </trkpt>
      <trkpt lat="44.97476" lon="6.50145">
        <ele>1492.6</ele>
        <time>2024-08-11T08:45:20Z</time>
      </trkpt>
      <trkpt lat="44.97476" lon="6.50145">
        <ele>1492.4</ele>
        <time>2024-08-11T08:45:21Z</time>
      </trkpt>
      <trkpt lat="44.97476" lon="6.50149">
        <ele>1492.4</ele>
        <time>2024-08-11T08:45:22Z</time>
      </trkpt>
      <trkpt lat="44.97476" lon="6.50149">
        <ele>1492.4</ele>
        <time>2024-08-11T08:45:23Z</time>
      </trkpt>
      <trkpt lat="44.97475" lon="6.50153">
        <ele>1492.4</ele>
        <time>2024-08-11T08:45:24Z</time>
      </trkpt>
      <trkpt lat="44.97475" lon="6.50153">
        <ele>1492.2</ele>
        <time>2024-08-11T08:45:25Z</time>
      </trkpt>
      <trkpt lat="44.97473" lon="6.50157">
        <ele>1492</ele>
        <time>2024-08-11T08:45:26Z</time>
      </trkpt>
      <trkpt lat="44.97473" lon="6.5016">
        <ele>1492</ele>
        <time>2024-08-11T08:45:27Z</time>
      </trkpt>
      <trkpt lat="44.97473" lon="6.5016">
        <ele>1491.8</ele>
        <time>2024-08-11T08:45:28Z</time>
      </trkpt>
      <trkpt lat="44.97472" lon="6.50164">
        <ele>1491.8</ele>
        <time>2024-08-11T08:45:29Z</time>
      </trkpt>
      <trkpt lat="44.97472" lon="6.50164">
        <ele>1491.8</ele>
        <time>2024-08-11T08:45:30Z</time>
      </trkpt>
      <trkpt lat="44.97472" lon="6.50168">
        <ele>1491.4</ele>
        <time>2024-08-11T08:45:31Z</time>
      </trkpt>
      <trkpt lat="44.97472" lon="6.50168">
        <ele>1491.4</ele>
        <time>2024-08-11T08:45:32Z</time>
      </trkpt>
      <trkpt lat="44.97471" lon="6.50172">
        <ele>1491.6</ele>
        <time>2024-08-11T08:45:33Z</time>
      </trkpt>
      <trkpt lat="44.97471" lon="6.50172">
        <ele>1491.6</ele>
        <time>2024-08-11T08:45:34Z</time>
      </trkpt>
      <trkpt lat="44.9747" lon="6.50176">
        <ele>1491.6</ele>
        <time>2024-08-11T08:45:35Z</time>
      </trkpt>
      <trkpt lat="44.9747" lon="6.50176">
        <ele>1491.6</ele>
        <time>2024-08-11T08:45:36Z</time>
      </trkpt>
      <trkpt lat="44.97469" lon="6.5018">
        <ele>1491.2</ele>
        <time>2024-08-11T08:45:37Z</time>
      </trkpt>
      <trkpt lat="44.97469" lon="6.5018">
        <ele>1491.2</ele>
        <time>2024-08-11T08:45:38Z</time>
      </trkpt>
      <trkpt lat="44.97469" lon="6.50184">
        <ele>1491</ele>
        <time>2024-08-11T08:45:39Z</time>
      </trkpt>
      <trkpt lat="44.97469" lon="6.50184">
        <ele>1491</ele>
        <time>2024-08-11T08:45:40Z</time>
      </trkpt>
      <trkpt lat="44.97467" lon="6.50187">
        <ele>1490.4</ele>
        <time>2024-08-11T08:45:41Z</time>
      </trkpt>
      <trkpt lat="44.97466" lon="6.50189">
        <ele>1490.4</ele>
        <time>2024-08-11T08:45:42Z</time>
      </trkpt>
      <trkpt lat="44.97466" lon="6.50189">
        <ele>1490.6</ele>
        <time>2024-08-11T08:45:43Z</time>
      </trkpt>
      <trkpt lat="44.97466" lon="6.50189">
        <ele>1490.6</ele>
        <time>2024-08-11T08:45:44Z</time>
      </trkpt>
      <trkpt lat="44.97464" lon="6.50195">
        <ele>1490.8</ele>
        <time>2024-08-11T08:45:45Z</time>
      </trkpt>
      <trkpt lat="44.97463" lon="6.50197">
        <ele>1491</ele>
        <time>2024-08-11T08:45:46Z</time>
      </trkpt>
      <trkpt lat="44.97463" lon="6.50197">
        <ele>1491.2</ele>
        <time>2024-08-11T08:45:47Z</time>
      </trkpt>
      <trkpt lat="44.97462" lon="6.502">
        <ele>1491.4</ele>
        <time>2024-08-11T08:45:48Z</time>
      </trkpt>
      <trkpt lat="44.97462" lon="6.502">
        <ele>1491.4</ele>
        <time>2024-08-11T08:45:49Z</time>
      </trkpt>
      <trkpt lat="44.97461" lon="6.50204">
        <ele>1491.4</ele>
        <time>2024-08-11T08:45:50Z</time>
      </trkpt>
      <trkpt lat="44.97461" lon="6.50204">
        <ele>1491.2</ele>
        <time>2024-08-11T08:45:51Z</time>
      </trkpt>
      <trkpt lat="44.97461" lon="6.50208">
        <ele>1491</ele>
        <time>2024-08-11T08:45:52Z</time>
      </trkpt>
      <trkpt lat="44.97461" lon="6.50208">
        <ele>1490.8</ele>
        <time>2024-08-11T08:45:53Z</time>
      </trkpt>
      <trkpt lat="44.9746" lon="6.50212">
        <ele>1490.4</ele>
        <time>2024-08-11T08:45:54Z</time>
      </trkpt>
      <trkpt lat="44.9746" lon="6.50212">
        <ele>1490.2</ele>
        <time>2024-08-11T08:45:55Z</time>
      </trkpt>
      <trkpt lat="44.97458" lon="6.50215">
        <ele>1490.2</ele>
        <time>2024-08-11T08:45:56Z</time>
      </trkpt>
      <trkpt lat="44.97458" lon="6.50215">
        <ele>1490.2</ele>
        <time>2024-08-11T08:45:57Z</time>
      </trkpt>
      <trkpt lat="44.97457" lon="6.50219">
        <ele>1490.2</ele>
        <time>2024-08-11T08:45:58Z</time>
      </trkpt>
      <trkpt lat="44.97457" lon="6.50219">
        <ele>1490</ele>
        <time>2024-08-11T08:45:59Z</time>
      </trkpt>
      <trkpt lat="44.97456" lon="6.50222">
        <ele>1490</ele>
        <time>2024-08-11T08:46:00Z</time>
      </trkpt>
      <trkpt lat="44.97456" lon="6.50222">
        <ele>1489.8</ele>
        <time>2024-08-11T08:46:01Z</time>
      </trkpt>
      <trkpt lat="44.97456" lon="6.50222">
        <ele>1489.8</ele>
        <time>2024-08-11T08:46:02Z</time>
      </trkpt>
      <trkpt lat="44.97454" lon="6.50228">
        <ele>1489.8</ele>
        <time>2024-08-11T08:46:03Z</time>
      </trkpt>
      <trkpt lat="44.97454" lon="6.50228">
        <ele>1490</ele>
        <time>2024-08-11T08:46:04Z</time>
      </trkpt>
      <trkpt lat="44.97452" lon="6.5023">
        <ele>1490</ele>
        <time>2024-08-11T08:46:05Z</time>
      </trkpt>
      <trkpt lat="44.97451" lon="6.5023">
        <ele>1489.8</ele>
        <time>2024-08-11T08:46:06Z</time>
      </trkpt>
      <trkpt lat="44.97451" lon="6.5023">
        <ele>1489.6</ele>
        <time>2024-08-11T08:46:07Z</time>
      </trkpt>
      <trkpt lat="44.97451" lon="6.5023">
        <ele>1489.4</ele>
        <time>2024-08-11T08:46:08Z</time>
      </trkpt>
      <trkpt lat="44.97451" lon="6.5023">
        <ele>1489.4</ele>
        <time>2024-08-11T08:46:09Z</time>
      </trkpt>
      <trkpt lat="44.97451" lon="6.5023">
        <ele>1489.4</ele>
        <time>2024-08-11T08:46:10Z</time>
      </trkpt>
      <trkpt lat="44.97451" lon="6.5023">
        <ele>1489.4</ele>
        <time>2024-08-11T08:46:11Z</time>
      </trkpt>
      <trkpt lat="44.97451" lon="6.5023">
        <ele>1489.4</ele>
        <time>2024-08-11T08:46:12Z</time>
      </trkpt>
      <trkpt lat="44.97451" lon="6.5023">
        <ele>1489.4</ele>
        <time>2024-08-11T08:46:13Z</time>
      </trkpt>
      <trkpt lat="44.97451" lon="6.5023">
        <ele>1489.4</ele>
        <time>2024-08-11T08:46:14Z</time>
      </trkpt>
      <trkpt lat="44.97451" lon="6.5023">
        <ele>1489.4</ele>
        <time>2024-08-11T08:46:15Z</time>
      </trkpt>
      <trkpt lat="44.97451" lon="6.5023">
        <ele>1489.4</ele>
        <time>2024-08-11T08:46:16Z</time>
      </trkpt>
      <trkpt lat="44.97453" lon="6.50233">
        <ele>1489.4</ele>
        <time>2024-08-11T08:46:17Z</time>
      </trkpt>
      <trkpt lat="44.97453" lon="6.50233">
        <ele>1489.4</ele>
        <time>2024-08-11T08:46:18Z</time>
      </trkpt>
      <trkpt lat="44.97453" lon="6.50237">
        <ele>1489.4</ele>
        <time>2024-08-11T08:46:19Z</time>
      </trkpt>
      <trkpt lat="44.97453" lon="6.50237">
        <ele>1489</ele>
        <time>2024-08-11T08:46:20Z</time>
      </trkpt>
      <trkpt lat="44.97454" lon="6.5024">
        <ele>1489</ele>
        <time>2024-08-11T08:46:21Z</time>
      </trkpt>
      <trkpt lat="44.97454" lon="6.5024">
        <ele>1489</ele>
        <time>2024-08-11T08:46:22Z</time>
      </trkpt>
      <trkpt lat="44.97455" lon="6.50244">
        <ele>1489</ele>
        <time>2024-08-11T08:46:23Z</time>
      </trkpt>
      <trkpt lat="44.97455" lon="6.50244">
        <ele>1489</ele>
        <time>2024-08-11T08:46:24Z</time>
      </trkpt>
      <trkpt lat="44.97456" lon="6.50248">
        <ele>1488.8</ele>
        <time>2024-08-11T08:46:25Z</time>
      </trkpt>
      <trkpt lat="44.97456" lon="6.50248">
        <ele>1488.6</ele>
        <time>2024-08-11T08:46:26Z</time>
      </trkpt>
      <trkpt lat="44.97456" lon="6.50252">
        <ele>1488.4</ele>
        <time>2024-08-11T08:46:27Z</time>
      </trkpt>
      <trkpt lat="44.97456" lon="6.50252">
        <ele>1488.4</ele>
        <time>2024-08-11T08:46:28Z</time>
      </trkpt>
      <trkpt lat="44.97456" lon="6.50252">
        <ele>1488.4</ele>
        <time>2024-08-11T08:46:29Z</time>
      </trkpt>
      <trkpt lat="44.97456" lon="6.50258">
        <ele>1488.4</ele>
        <time>2024-08-11T08:46:30Z</time>
      </trkpt>
      <trkpt lat="44.97456" lon="6.50258">
        <ele>1488.4</ele>
        <time>2024-08-11T08:46:31Z</time>
      </trkpt>
      <trkpt lat="44.97456" lon="6.50258">
        <ele>1488.4</ele>
        <time>2024-08-11T08:46:32Z</time>
      </trkpt>
      <trkpt lat="44.97456" lon="6.50258">
        <ele>1488.4</ele>
        <time>2024-08-11T08:46:33Z</time>
      </trkpt>
      <trkpt lat="44.97456" lon="6.50258">
        <ele>1488.2</ele>
        <time>2024-08-11T08:46:34Z</time>
      </trkpt>
      <trkpt lat="44.97456" lon="6.50258">
        <ele>1487.8</ele>
        <time>2024-08-11T08:46:35Z</time>
      </trkpt>
      <trkpt lat="44.97456" lon="6.50258">
        <ele>1487.8</ele>
        <time>2024-08-11T08:46:36Z</time>
      </trkpt>
      <trkpt lat="44.97456" lon="6.50258">
        <ele>1487.8</ele>
        <time>2024-08-11T08:46:37Z</time>
      </trkpt>
      <trkpt lat="44.97458" lon="6.50253">
        <ele>1487.8</ele>
        <time>2024-08-11T08:46:38Z</time>
      </trkpt>
      <trkpt lat="44.97458" lon="6.50253">
        <ele>1487.8</ele>
        <time>2024-08-11T08:46:39Z</time>
      </trkpt>
      <trkpt lat="44.97459" lon="6.50251">
        <ele>1488</ele>
        <time>2024-08-11T08:46:40Z</time>
      </trkpt>
      <trkpt lat="44.97459" lon="6.50251">
        <ele>1488</ele>
        <time>2024-08-11T08:46:41Z</time>
      </trkpt>
      <trkpt lat="44.97459" lon="6.50251">
        <ele>1488.2</ele>
        <time>2024-08-11T08:46:42Z</time>
      </trkpt>
      <trkpt lat="44.97459" lon="6.50251">
        <ele>1488.2</ele>
        <time>2024-08-11T08:46:43Z</time>
      </trkpt>
      <trkpt lat="44.97459" lon="6.50251">
        <ele>1488.2</ele>
        <time>2024-08-11T08:46:44Z</time>
      </trkpt>
      <trkpt lat="44.97459" lon="6.50251">
        <ele>1488.2</ele>
        <time>2024-08-11T08:46:45Z</time>
      </trkpt>
      <trkpt lat="44.97459" lon="6.50251">
        <ele>1488</ele>
        <time>2024-08-11T08:46:46Z</time>
      </trkpt>
      <trkpt lat="44.97459" lon="6.50251">
        <ele>1488</ele>
        <time>2024-08-11T08:46:47Z</time>
      </trkpt>
      <trkpt lat="44.97459" lon="6.50251">
        <ele>1488</ele>
        <time>2024-08-11T08:46:48Z</time>
      </trkpt>
      <trkpt lat="44.97459" lon="6.50251">
        <ele>1488</ele>
        <time>2024-08-11T08:46:49Z</time>
      </trkpt>
      <trkpt lat="44.97459" lon="6.50251">
        <ele>1488</ele>
        <time>2024-08-11T08:46:50Z</time>
      </trkpt>
      <trkpt lat="44.97459" lon="6.50251">
        <ele>1488.2</ele>
        <time>2024-08-11T08:46:51Z</time>
      </trkpt>
      <trkpt lat="44.97459" lon="6.50251">
        <ele>1488.2</ele>
        <time>2024-08-11T08:46:52Z</time>
      </trkpt>
      <trkpt lat="44.97459" lon="6.50251">
        <ele>1488</ele>
        <time>2024-08-11T08:46:53Z</time>
      </trkpt>
      <trkpt lat="44.97459" lon="6.50251">
        <ele>1488</ele>
        <time>2024-08-11T08:46:54Z</time>
      </trkpt>
      <trkpt lat="44.97459" lon="6.50251">
        <ele>1488</ele>
        <time>2024-08-11T08:46:55Z</time>
      </trkpt>
      <trkpt lat="44.97459" lon="6.50251">
        <ele>1488</ele>
        <time>2024-08-11T08:46:56Z</time>
      </trkpt>
      <trkpt lat="44.97459" lon="6.50251">
        <ele>1487.8</ele>
        <time>2024-08-11T08:46:57Z</time>
      </trkpt>
      <trkpt lat="44.97459" lon="6.50251">
        <ele>1487.8</ele>
        <time>2024-08-11T08:46:58Z</time>
      </trkpt>
      <trkpt lat="44.97459" lon="6.50251">
        <ele>1487.8</ele>
        <time>2024-08-11T08:46:59Z</time>
      </trkpt>
      <trkpt lat="44.97459" lon="6.50251">
        <ele>1488</ele>
        <time>2024-08-11T08:47:00Z</time>
      </trkpt>
      <trkpt lat="44.97459" lon="6.50251">
        <ele>1488</ele>
        <time>2024-08-11T08:47:01Z</time>
      </trkpt>
      <trkpt lat="44.97459" lon="6.50251">
        <ele>1488</ele>
        <time>2024-08-11T08:47:02Z</time>
      </trkpt>
      <trkpt lat="44.97459" lon="6.50251">
        <ele>1488</ele>
        <time>2024-08-11T08:47:03Z</time>
      </trkpt>
      <trkpt lat="44.97459" lon="6.50251">
        <ele>1488</ele>
        <time>2024-08-11T08:47:04Z</time>
      </trkpt>
      <trkpt lat="44.97459" lon="6.50251">
        <ele>1487.8</ele>
        <time>2024-08-11T08:47:05Z</time>
      </trkpt>
      <trkpt lat="44.97459" lon="6.50251">
        <ele>1487.8</ele>
        <time>2024-08-11T08:47:06Z</time>
      </trkpt>
      <trkpt lat="44.97459" lon="6.50251">
        <ele>1487.8</ele>
        <time>2024-08-11T08:47:07Z</time>
      </trkpt>
      <trkpt lat="44.97459" lon="6.50251">
        <ele>1488</ele>
        <time>2024-08-11T08:47:08Z</time>
      </trkpt>
      <trkpt lat="44.97459" lon="6.50251">
        <ele>1488</ele>
        <time>2024-08-11T08:47:09Z</time>
      </trkpt>
      <trkpt lat="44.97459" lon="6.50251">
        <ele>1488</ele>
        <time>2024-08-11T08:47:10Z</time>
      </trkpt>
      <trkpt lat="44.97459" lon="6.50251">
        <ele>1488</ele>
        <time>2024-08-11T08:47:11Z</time>
      </trkpt>
      <trkpt lat="44.97459" lon="6.50251">
        <ele>1488</ele>
        <time>2024-08-11T08:47:12Z</time>
      </trkpt>
      <trkpt lat="44.97459" lon="6.50251">
        <ele>1487.8</ele>
        <time>2024-08-11T08:47:13Z</time>
      </trkpt>
      <trkpt lat="44.97459" lon="6.50251">
        <ele>1487.8</ele>
        <time>2024-08-11T08:47:14Z</time>
      </trkpt>
      <trkpt lat="44.97459" lon="6.50251">
        <ele>1487.8</ele>
        <time>2024-08-11T08:47:15Z</time>
      </trkpt>
      <trkpt lat="44.97459" lon="6.50251">
        <ele>1487.8</ele>
        <time>2024-08-11T08:47:16Z</time>
      </trkpt>
      <trkpt lat="44.97459" lon="6.50251">
        <ele>1487.8</ele>
        <time>2024-08-11T08:47:17Z</time>
      </trkpt>
      <trkpt lat="44.97459" lon="6.50251">
        <ele>1487.8</ele>
        <time>2024-08-11T08:47:18Z</time>
      </trkpt>
      <trkpt lat="44.97459" lon="6.50251">
        <ele>1487.8</ele>
        <time>2024-08-11T08:47:19Z</time>
      </trkpt>
      <trkpt lat="44.97459" lon="6.50251">
        <ele>1487.8</ele>
        <time>2024-08-11T08:47:20Z</time>
      </trkpt>
      <trkpt lat="44.97459" lon="6.50251">
        <ele>1488</ele>
        <time>2024-08-11T08:47:21Z</time>
      </trkpt>
      <trkpt lat="44.97459" lon="6.50251">
        <ele>1488</ele>
        <time>2024-08-11T08:47:22Z</time>
      </trkpt>
      <trkpt lat="44.97459" lon="6.50251">
        <ele>1487.8</ele>
        <time>2024-08-11T08:47:23Z</time>
      </trkpt>
      <trkpt lat="44.97459" lon="6.50251">
        <ele>1487.8</ele>
        <time>2024-08-11T08:47:24Z</time>
      </trkpt>
      <trkpt lat="44.97459" lon="6.50251">
        <ele>1487.8</ele>
        <time>2024-08-11T08:47:25Z</time>
      </trkpt>
      <trkpt lat="44.97459" lon="6.50251">
        <ele>1488</ele>
        <time>2024-08-11T08:47:26Z</time>
      </trkpt>
      <trkpt lat="44.97459" lon="6.50251">
        <ele>1488</ele>
        <time>2024-08-11T08:47:27Z</time>
      </trkpt>
      <trkpt lat="44.97459" lon="6.50251">
        <ele>1487.8</ele>
        <time>2024-08-11T08:47:28Z</time>
      </trkpt>
      <trkpt lat="44.97459" lon="6.50251">
        <ele>1487.8</ele>
        <time>2024-08-11T08:47:29Z</time>
      </trkpt>
      <trkpt lat="44.97459" lon="6.50251">
        <ele>1487.8</ele>
        <time>2024-08-11T08:47:30Z</time>
      </trkpt>
      <trkpt lat="44.97459" lon="6.50251">
        <ele>1487.8</ele>
        <time>2024-08-11T08:47:31Z</time>
      </trkpt>
      <trkpt lat="44.97459" lon="6.50251">
        <ele>1487.6</ele>
        <time>2024-08-11T08:47:32Z</time>
      </trkpt>
      <trkpt lat="44.97459" lon="6.50251">
        <ele>1487.6</ele>
        <time>2024-08-11T08:47:33Z</time>
      </trkpt>
      <trkpt lat="44.97459" lon="6.50251">
        <ele>1487.6</ele>
        <time>2024-08-11T08:47:34Z</time>
      </trkpt>
      <trkpt lat="44.97459" lon="6.50251">
        <ele>1487.6</ele>
        <time>2024-08-11T08:47:35Z</time>
      </trkpt>
      <trkpt lat="44.97459" lon="6.50251">
        <ele>1487.6</ele>
        <time>2024-08-11T08:47:36Z</time>
      </trkpt>
      <trkpt lat="44.97459" lon="6.50251">
        <ele>1487.6</ele>
        <time>2024-08-11T08:47:37Z</time>
      </trkpt>
      <trkpt lat="44.97459" lon="6.50251">
        <ele>1487.6</ele>
        <time>2024-08-11T08:47:38Z</time>
      </trkpt>
      <trkpt lat="44.97459" lon="6.50251">
        <ele>1487.6</ele>
        <time>2024-08-11T08:47:39Z</time>
      </trkpt>
      <trkpt lat="44.97459" lon="6.50251">
        <ele>1487.6</ele>
        <time>2024-08-11T08:47:40Z</time>
      </trkpt>
      <trkpt lat="44.97459" lon="6.50251">
        <ele>1487.6</ele>
        <time>2024-08-11T08:47:41Z</time>
      </trkpt>
      <trkpt lat="44.97459" lon="6.50251">
        <ele>1487.6</ele>
        <time>2024-08-11T08:47:42Z</time>
      </trkpt>
      <trkpt lat="44.97459" lon="6.50251">
        <ele>1487.8</ele>
        <time>2024-08-11T08:47:43Z</time>
      </trkpt>
      <trkpt lat="44.97459" lon="6.50251">
        <ele>1487.8</ele>
        <time>2024-08-11T08:47:44Z</time>
      </trkpt>
      <trkpt lat="44.97459" lon="6.50251">
        <ele>1487.6</ele>
        <time>2024-08-11T08:47:45Z</time>
      </trkpt>
      <trkpt lat="44.97459" lon="6.50251">
        <ele>1487.6</ele>
        <time>2024-08-11T08:47:46Z</time>
      </trkpt>
      <trkpt lat="44.97459" lon="6.50251">
        <ele>1487.8</ele>
        <time>2024-08-11T08:47:47Z</time>
      </trkpt>
      <trkpt lat="44.97459" lon="6.50251">
        <ele>1487.8</ele>
        <time>2024-08-11T08:47:48Z</time>
      </trkpt>
      <trkpt lat="44.97459" lon="6.50251">
        <ele>1487.6</ele>
        <time>2024-08-11T08:47:49Z</time>
      </trkpt>
      <trkpt lat="44.97459" lon="6.50251">
        <ele>1487.6</ele>
        <time>2024-08-11T08:47:50Z</time>
      </trkpt>
      <trkpt lat="44.97459" lon="6.50251">
        <ele>1487.4</ele>
        <time>2024-08-11T08:47:51Z</time>
      </trkpt>
      <trkpt lat="44.97459" lon="6.50251">
        <ele>1487.4</ele>
        <time>2024-08-11T08:47:52Z</time>
      </trkpt>
      <trkpt lat="44.97459" lon="6.50251">
        <ele>1487.4</ele>
        <time>2024-08-11T08:47:53Z</time>
      </trkpt>
      <trkpt lat="44.97459" lon="6.50251">
        <ele>1487.6</ele>
        <time>2024-08-11T08:47:54Z</time>
      </trkpt>
      <trkpt lat="44.97459" lon="6.50251">
        <ele>1487.6</ele>
        <time>2024-08-11T08:47:55Z</time>
      </trkpt>
      <trkpt lat="44.97459" lon="6.50251">
        <ele>1487.6</ele>
        <time>2024-08-11T08:47:56Z</time>
      </trkpt>
      <trkpt lat="44.97459" lon="6.50251">
        <ele>1487.6</ele>
        <time>2024-08-11T08:47:57Z</time>
      </trkpt>
      <trkpt lat="44.97459" lon="6.50251">
        <ele>1487.6</ele>
        <time>2024-08-11T08:47:58Z</time>
      </trkpt>
      <trkpt lat="44.97459" lon="6.50251">
        <ele>1487.4</ele>
        <time>2024-08-11T08:47:59Z</time>
      </trkpt>
      <trkpt lat="44.97459" lon="6.50251">
        <ele>1487.6</ele>
        <time>2024-08-11T08:48:00Z</time>
      </trkpt>
      <trkpt lat="44.97459" lon="6.50251">
        <ele>1487.6</ele>
        <time>2024-08-11T08:48:01Z</time>
      </trkpt>
      <trkpt lat="44.97459" lon="6.50251">
        <ele>1487.6</ele>
        <time>2024-08-11T08:48:02Z</time>
      </trkpt>
      <trkpt lat="44.97459" lon="6.50251">
        <ele>1487.6</ele>
        <time>2024-08-11T08:48:03Z</time>
      </trkpt>
      <trkpt lat="44.97459" lon="6.50251">
        <ele>1487.6</ele>
        <time>2024-08-11T08:48:04Z</time>
      </trkpt>
      <trkpt lat="44.97459" lon="6.50251">
        <ele>1487.6</ele>
        <time>2024-08-11T08:48:05Z</time>
      </trkpt>
      <trkpt lat="44.97459" lon="6.50251">
        <ele>1487.6</ele>
        <time>2024-08-11T08:48:06Z</time>
      </trkpt>
      <trkpt lat="44.97459" lon="6.50251">
        <ele>1487.6</ele>
        <time>2024-08-11T08:48:07Z</time>
      </trkpt>
      <trkpt lat="44.97459" lon="6.50251">
        <ele>1487.6</ele>
        <time>2024-08-11T08:48:08Z</time>
      </trkpt>
      <trkpt lat="44.97459" lon="6.50251">
        <ele>1487.6</ele>
        <time>2024-08-11T08:48:09Z</time>
      </trkpt>
      <trkpt lat="44.97459" lon="6.50251">
        <ele>1487.6</ele>
        <time>2024-08-11T08:48:10Z</time>
      </trkpt>
      <trkpt lat="44.97459" lon="6.50251">
        <ele>1487.8</ele>
        <time>2024-08-11T08:48:11Z</time>
      </trkpt>
      <trkpt lat="44.97459" lon="6.50251">
        <ele>1487.8</ele>
        <time>2024-08-11T08:48:12Z</time>
      </trkpt>
      <trkpt lat="44.97459" lon="6.50251">
        <ele>1487.8</ele>
        <time>2024-08-11T08:48:13Z</time>
      </trkpt>
      <trkpt lat="44.97459" lon="6.50251">
        <ele>1487.4</ele>
        <time>2024-08-11T08:48:14Z</time>
      </trkpt>
      <trkpt lat="44.97459" lon="6.50251">
        <ele>1487.4</ele>
        <time>2024-08-11T08:48:15Z</time>
      </trkpt>
      <trkpt lat="44.97459" lon="6.50251">
        <ele>1487.6</ele>
        <time>2024-08-11T08:48:16Z</time>
      </trkpt>
      <trkpt lat="44.97459" lon="6.50251">
        <ele>1487.6</ele>
        <time>2024-08-11T08:48:17Z</time>
      </trkpt>
      <trkpt lat="44.97459" lon="6.50251">
        <ele>1487.6</ele>
        <time>2024-08-11T08:48:18Z</time>
      </trkpt>
      <trkpt lat="44.97459" lon="6.50251">
        <ele>1487.6</ele>
        <time>2024-08-11T08:48:19Z</time>
      </trkpt>
      <trkpt lat="44.97459" lon="6.50251">
        <ele>1487.6</ele>
        <time>2024-08-11T08:48:20Z</time>
      </trkpt>
      <trkpt lat="44.97459" lon="6.50251">
        <ele>1487.6</ele>
        <time>2024-08-11T08:48:21Z</time>
      </trkpt>
      <trkpt lat="44.97459" lon="6.50251">
        <ele>1487.6</ele>
        <time>2024-08-11T08:48:22Z</time>
      </trkpt>
      <trkpt lat="44.97459" lon="6.50251">
        <ele>1487.8</ele>
        <time>2024-08-11T08:48:23Z</time>
      </trkpt>
      <trkpt lat="44.97459" lon="6.50251">
        <ele>1487.8</ele>
        <time>2024-08-11T08:48:24Z</time>
      </trkpt>
      <trkpt lat="44.97459" lon="6.50251">
        <ele>1487.8</ele>
        <time>2024-08-11T08:48:25Z</time>
      </trkpt>
      <trkpt lat="44.97459" lon="6.50251">
        <ele>1487.6</ele>
        <time>2024-08-11T08:48:26Z</time>
      </trkpt>
      <trkpt lat="44.97459" lon="6.50251">
        <ele>1487.6</ele>
        <time>2024-08-11T08:48:27Z</time>
      </trkpt>
      <trkpt lat="44.97459" lon="6.50251">
        <ele>1487.6</ele>
        <time>2024-08-11T08:48:28Z</time>
      </trkpt>
      <trkpt lat="44.97459" lon="6.50251">
        <ele>1487.4</ele>
        <time>2024-08-11T08:48:29Z</time>
      </trkpt>
      <trkpt lat="44.97459" lon="6.50251">
        <ele>1487.4</ele>
        <time>2024-08-11T08:48:30Z</time>
      </trkpt>
      <trkpt lat="44.97459" lon="6.50251">
        <ele>1487.4</ele>
        <time>2024-08-11T08:48:31Z</time>
      </trkpt>
      <trkpt lat="44.97459" lon="6.50251">
        <ele>1487.8</ele>
        <time>2024-08-11T08:48:32Z</time>
      </trkpt>
      <trkpt lat="44.97459" lon="6.50251">
        <ele>1487.8</ele>
        <time>2024-08-11T08:48:33Z</time>
      </trkpt>
      <trkpt lat="44.97459" lon="6.50251">
        <ele>1487.8</ele>
        <time>2024-08-11T08:48:34Z</time>
      </trkpt>
      <trkpt lat="44.97459" lon="6.50251">
        <ele>1487.6</ele>
        <time>2024-08-11T08:48:35Z</time>
      </trkpt>
      <trkpt lat="44.97458" lon="6.50249">
        <ele>1487.6</ele>
        <time>2024-08-11T08:48:36Z</time>
      </trkpt>
      <trkpt lat="44.97458" lon="6.50249">
        <ele>1487.8</ele>
        <time>2024-08-11T08:48:37Z</time>
      </trkpt>
      <trkpt lat="44.97455" lon="6.50245">
        <ele>1488.2</ele>
        <time>2024-08-11T08:48:38Z</time>
      </trkpt>
      <trkpt lat="44.97455" lon="6.50245">
        <ele>1488.2</ele>
        <time>2024-08-11T08:48:39Z</time>
      </trkpt>
      <trkpt lat="44.97452" lon="6.50242">
        <ele>1488.2</ele>
        <time>2024-08-11T08:48:40Z</time>
      </trkpt>
      <trkpt lat="44.97452" lon="6.50242">
        <ele>1488.2</ele>
        <time>2024-08-11T08:48:41Z</time>
      </trkpt>
      <trkpt lat="44.9745" lon="6.50239">
        <ele>1488.4</ele>
        <time>2024-08-11T08:48:42Z</time>
      </trkpt>
      <trkpt lat="44.9745" lon="6.50239">
        <ele>1488.8</ele>
        <time>2024-08-11T08:48:43Z</time>
      </trkpt>
      <trkpt lat="44.9745" lon="6.50235">
        <ele>1488.8</ele>
        <time>2024-08-11T08:48:44Z</time>
      </trkpt>
      <trkpt lat="44.9745" lon="6.50235">
        <ele>1488.8</ele>
        <time>2024-08-11T08:48:45Z</time>
      </trkpt>
      <trkpt lat="44.97449" lon="6.50232">
        <ele>1488.8</ele>
        <time>2024-08-11T08:48:46Z</time>
      </trkpt>
      <trkpt lat="44.97449" lon="6.50232">
        <ele>1488.8</ele>
        <time>2024-08-11T08:48:47Z</time>
      </trkpt>
      <trkpt lat="44.97448" lon="6.50229">
        <ele>1488.8</ele>
        <time>2024-08-11T08:48:48Z</time>
      </trkpt>
      <trkpt lat="44.97448" lon="6.50229">
        <ele>1489</ele>
        <time>2024-08-11T08:48:49Z</time>
      </trkpt>
      <trkpt lat="44.97447" lon="6.50225">
        <ele>1489</ele>
        <time>2024-08-11T08:48:50Z</time>
      </trkpt>
      <trkpt lat="44.97447" lon="6.50225">
        <ele>1489.2</ele>
        <time>2024-08-11T08:48:51Z</time>
      </trkpt>
      <trkpt lat="44.97446" lon="6.50222">
        <ele>1489.2</ele>
        <time>2024-08-11T08:48:52Z</time>
      </trkpt>
      <trkpt lat="44.97446" lon="6.50222">
        <ele>1489.2</ele>
        <time>2024-08-11T08:48:53Z</time>
      </trkpt>
      <trkpt lat="44.97445" lon="6.50218">
        <ele>1489.2</ele>
        <time>2024-08-11T08:48:54Z</time>
      </trkpt>
      <trkpt lat="44.97445" lon="6.50218">
        <ele>1489.4</ele>
        <time>2024-08-11T08:48:55Z</time>
      </trkpt>
      <trkpt lat="44.97445" lon="6.50218">
        <ele>1489.4</ele>
        <time>2024-08-11T08:48:56Z</time>
      </trkpt>
      <trkpt lat="44.97445" lon="6.50218">
        <ele>1489.6</ele>
        <time>2024-08-11T08:48:57Z</time>
      </trkpt>
      <trkpt lat="44.97444" lon="6.50216">
        <ele>1489.6</ele>
        <time>2024-08-11T08:48:58Z</time>
      </trkpt>
      <trkpt lat="44.97444" lon="6.50216">
        <ele>1489.6</ele>
        <time>2024-08-11T08:48:59Z</time>
      </trkpt>
      <trkpt lat="44.97444" lon="6.50216">
        <ele>1489.6</ele>
        <time>2024-08-11T08:49:00Z</time>
      </trkpt>
      <trkpt lat="44.97444" lon="6.50216">
        <ele>1490</ele>
        <time>2024-08-11T08:49:01Z</time>
      </trkpt>
      <trkpt lat="44.97444" lon="6.50216">
        <ele>1490</ele>
        <time>2024-08-11T08:49:02Z</time>
      </trkpt>
      <trkpt lat="44.97444" lon="6.50216">
        <ele>1490</ele>
        <time>2024-08-11T08:49:03Z</time>
      </trkpt>
      <trkpt lat="44.97444" lon="6.50216">
        <ele>1490</ele>
        <time>2024-08-11T08:49:04Z</time>
      </trkpt>
      <trkpt lat="44.97444" lon="6.50216">
        <ele>1489.6</ele>
        <time>2024-08-11T08:49:05Z</time>
      </trkpt>
      <trkpt lat="44.97444" lon="6.50216">
        <ele>1489.6</ele>
        <time>2024-08-11T08:49:06Z</time>
      </trkpt>
      <trkpt lat="44.97444" lon="6.50216">
        <ele>1489.8</ele>
        <time>2024-08-11T08:49:07Z</time>
      </trkpt>
      <trkpt lat="44.97444" lon="6.50216">
        <ele>1489.8</ele>
        <time>2024-08-11T08:49:08Z</time>
      </trkpt>
      <trkpt lat="44.97444" lon="6.50216">
        <ele>1489.8</ele>
        <time>2024-08-11T08:49:09Z</time>
      </trkpt>
      <trkpt lat="44.97444" lon="6.50216">
        <ele>1489.8</ele>
        <time>2024-08-11T08:49:10Z</time>
      </trkpt>
      <trkpt lat="44.97444" lon="6.50216">
        <ele>1489.6</ele>
        <time>2024-08-11T08:49:11Z</time>
      </trkpt>
      <trkpt lat="44.97444" lon="6.50216">
        <ele>1489.6</ele>
        <time>2024-08-11T08:49:12Z</time>
      </trkpt>
      <trkpt lat="44.97444" lon="6.50216">
        <ele>1489.6</ele>
        <time>2024-08-11T08:49:13Z</time>
      </trkpt>
      <trkpt lat="44.97444" lon="6.50216">
        <ele>1489.8</ele>
        <time>2024-08-11T08:49:14Z</time>
      </trkpt>
      <trkpt lat="44.97444" lon="6.50216">
        <ele>1489.8</ele>
        <time>2024-08-11T08:49:15Z</time>
      </trkpt>
      <trkpt lat="44.97444" lon="6.50216">
        <ele>1489.6</ele>
        <time>2024-08-11T08:49:16Z</time>
      </trkpt>
      <trkpt lat="44.97444" lon="6.50216">
        <ele>1489.6</ele>
        <time>2024-08-11T08:49:17Z</time>
      </trkpt>
      <trkpt lat="44.97444" lon="6.50216">
        <ele>1489.6</ele>
        <time>2024-08-11T08:49:18Z</time>
      </trkpt>
      <trkpt lat="44.97444" lon="6.50216">
        <ele>1489.6</ele>
        <time>2024-08-11T08:49:19Z</time>
      </trkpt>
      <trkpt lat="44.97445" lon="6.50218">
        <ele>1489.4</ele>
        <time>2024-08-11T08:49:20Z</time>
      </trkpt>
      <trkpt lat="44.97445" lon="6.50218">
        <ele>1489.4</ele>
        <time>2024-08-11T08:49:21Z</time>
      </trkpt>
      <trkpt lat="44.97445" lon="6.50222">
        <ele>1489.4</ele>
        <time>2024-08-11T08:49:22Z</time>
      </trkpt>
      <trkpt lat="44.97445" lon="6.50222">
        <ele>1489.4</ele>
        <time>2024-08-11T08:49:23Z</time>
      </trkpt>
      <trkpt lat="44.97445" lon="6.50222">
        <ele>1489.2</ele>
        <time>2024-08-11T08:49:24Z</time>
      </trkpt>
      <trkpt lat="44.97443" lon="6.50226">
        <ele>1489.4</ele>
        <time>2024-08-11T08:49:25Z</time>
      </trkpt>
      <trkpt lat="44.97443" lon="6.50226">
        <ele>1489.4</ele>
        <time>2024-08-11T08:49:26Z</time>
      </trkpt>
      <trkpt lat="44.9744" lon="6.50227">
        <ele>1489.4</ele>
        <time>2024-08-11T08:49:27Z</time>
      </trkpt>
      <trkpt lat="44.97439" lon="6.50227">
        <ele>1489.2</ele>
        <time>2024-08-11T08:49:28Z</time>
      </trkpt>
      <trkpt lat="44.97439" lon="6.50227">
        <ele>1489.2</ele>
        <time>2024-08-11T08:49:29Z</time>
      </trkpt>
      <trkpt lat="44.97436" lon="6.50227">
        <ele>1489.4</ele>
        <time>2024-08-11T08:49:30Z</time>
      </trkpt>
      <trkpt lat="44.97436" lon="6.50227">
        <ele>1489.4</ele>
        <time>2024-08-11T08:49:31Z</time>
      </trkpt>
      <trkpt lat="44.97436" lon="6.50227">
        <ele>1489.4</ele>
        <time>2024-08-11T08:49:32Z</time>
      </trkpt>
      <trkpt lat="44.97432" lon="6.50225">
        <ele>1489.4</ele>
        <time>2024-08-11T08:49:33Z</time>
      </trkpt>
      <trkpt lat="44.97431" lon="6.50225">
        <ele>1489.4</ele>
        <time>2024-08-11T08:49:34Z</time>
      </trkpt>
      <trkpt lat="44.97431" lon="6.50225">
        <ele>1489.6</ele>
        <time>2024-08-11T08:49:35Z</time>
      </trkpt>
      <trkpt lat="44.97429" lon="6.50224">
        <ele>1489.6</ele>
        <time>2024-08-11T08:49:36Z</time>
      </trkpt>
      <trkpt lat="44.97429" lon="6.50224">
        <ele>1489.8</ele>
        <time>2024-08-11T08:49:37Z</time>
      </trkpt>
      <trkpt lat="44.97429" lon="6.50224">
        <ele>1490</ele>
        <time>2024-08-11T08:49:38Z</time>
      </trkpt>
      <trkpt lat="44.97425" lon="6.50223">
        <ele>1490</ele>
        <time>2024-08-11T08:49:39Z</time>
      </trkpt>
      <trkpt lat="44.97424" lon="6.50222">
        <ele>1490</ele>
        <time>2024-08-11T08:49:40Z</time>
      </trkpt>
      <trkpt lat="44.97424" lon="6.50222">
        <ele>1490.4</ele>
        <time>2024-08-11T08:49:41Z</time>
      </trkpt>
      <trkpt lat="44.97424" lon="6.50222">
        <ele>1490.4</ele>
        <time>2024-08-11T08:49:42Z</time>
      </trkpt>
      <trkpt lat="44.9742" lon="6.50221">
        <ele>1490.2</ele>
        <time>2024-08-11T08:49:43Z</time>
      </trkpt>
      <trkpt lat="44.9742" lon="6.50221">
        <ele>1490</ele>
        <time>2024-08-11T08:49:44Z</time>
      </trkpt>
      <trkpt lat="44.97417" lon="6.50221">
        <ele>1490</ele>
        <time>2024-08-11T08:49:45Z</time>
      </trkpt>
      <trkpt lat="44.97416" lon="6.5022">
        <ele>1490.2</ele>
        <time>2024-08-11T08:49:46Z</time>
      </trkpt>
      <trkpt lat="44.97416" lon="6.5022">
        <ele>1490.4</ele>
        <time>2024-08-11T08:49:47Z</time>
      </trkpt>
      <trkpt lat="44.97413" lon="6.50219">
        <ele>1490.2</ele>
        <time>2024-08-11T08:49:48Z</time>
      </trkpt>
      <trkpt lat="44.97413" lon="6.50219">
        <ele>1490.4</ele>
        <time>2024-08-11T08:49:49Z</time>
      </trkpt>
      <trkpt lat="44.97413" lon="6.50219">
        <ele>1490.4</ele>
        <time>2024-08-11T08:49:50Z</time>
      </trkpt>
      <trkpt lat="44.97409" lon="6.50217">
        <ele>1490.6</ele>
        <time>2024-08-11T08:49:51Z</time>
      </trkpt>
      <trkpt lat="44.97409" lon="6.50217">
        <ele>1490.8</ele>
        <time>2024-08-11T08:49:52Z</time>
      </trkpt>
      <trkpt lat="44.97407" lon="6.50216">
        <ele>1490.8</ele>
        <time>2024-08-11T08:49:53Z</time>
      </trkpt>
      <trkpt lat="44.97406" lon="6.50215">
        <ele>1490.8</ele>
        <time>2024-08-11T08:49:54Z</time>
      </trkpt>
      <trkpt lat="44.97406" lon="6.50215">
        <ele>1490.8</ele>
        <time>2024-08-11T08:49:55Z</time>
      </trkpt>
      <trkpt lat="44.97406" lon="6.50215">
        <ele>1491</ele>
        <time>2024-08-11T08:49:56Z</time>
      </trkpt>
      <trkpt lat="44.97403" lon="6.50212">
        <ele>1491</ele>
        <time>2024-08-11T08:49:57Z</time>
      </trkpt>
      <trkpt lat="44.97403" lon="6.50212">
        <ele>1491.2</ele>
        <time>2024-08-11T08:49:58Z</time>
      </trkpt>
      <trkpt lat="44.97401" lon="6.5021">
        <ele>1491.4</ele>
        <time>2024-08-11T08:49:59Z</time>
      </trkpt>
      <trkpt lat="44.974" lon="6.50209">
        <ele>1491.4</ele>
        <time>2024-08-11T08:50:00Z</time>
      </trkpt>
      <trkpt lat="44.974" lon="6.50209">
        <ele>1491.4</ele>
        <time>2024-08-11T08:50:01Z</time>
      </trkpt>
      <trkpt lat="44.974" lon="6.50209">
        <ele>1491.6</ele>
        <time>2024-08-11T08:50:02Z</time>
      </trkpt>
      <trkpt lat="44.97396" lon="6.50207">
        <ele>1491.4</ele>
        <time>2024-08-11T08:50:03Z</time>
      </trkpt>
      <trkpt lat="44.97395" lon="6.50205">
        <ele>1491.4</ele>
        <time>2024-08-11T08:50:04Z</time>
      </trkpt>
      <trkpt lat="44.97395" lon="6.50205">
        <ele>1491.4</ele>
        <time>2024-08-11T08:50:05Z</time>
      </trkpt>
      <trkpt lat="44.97393" lon="6.50204">
        <ele>1491.6</ele>
        <time>2024-08-11T08:50:06Z</time>
      </trkpt>
      <trkpt lat="44.97393" lon="6.50204">
        <ele>1491.8</ele>
        <time>2024-08-11T08:50:07Z</time>
      </trkpt>
      <trkpt lat="44.97393" lon="6.50204">
        <ele>1491.8</ele>
        <time>2024-08-11T08:50:08Z</time>
      </trkpt>
      <trkpt lat="44.9739" lon="6.50201">
        <ele>1491.8</ele>
        <time>2024-08-11T08:50:09Z</time>
      </trkpt>
      <trkpt lat="44.97389" lon="6.502">
        <ele>1491.8</ele>
        <time>2024-08-11T08:50:10Z</time>
      </trkpt>
      <trkpt lat="44.97389" lon="6.502">
        <ele>1492</ele>
        <time>2024-08-11T08:50:11Z</time>
      </trkpt>
      <trkpt lat="44.97387" lon="6.50199">
        <ele>1492.2</ele>
        <time>2024-08-11T08:50:12Z</time>
      </trkpt>
      <trkpt lat="44.97387" lon="6.50199">
        <ele>1492.4</ele>
        <time>2024-08-11T08:50:13Z</time>
      </trkpt>
      <trkpt lat="44.97385" lon="6.50198">
        <ele>1492.6</ele>
        <time>2024-08-11T08:50:14Z</time>
      </trkpt>
      <trkpt lat="44.97385" lon="6.50198">
        <ele>1493</ele>
        <time>2024-08-11T08:50:15Z</time>
      </trkpt>
      <trkpt lat="44.97382" lon="6.50196">
        <ele>1493</ele>
        <time>2024-08-11T08:50:16Z</time>
      </trkpt>
      <trkpt lat="44.97382" lon="6.50196">
        <ele>1493</ele>
        <time>2024-08-11T08:50:17Z</time>
      </trkpt>
      <trkpt lat="44.97381" lon="6.50194">
        <ele>1493</ele>
        <time>2024-08-11T08:50:18Z</time>
      </trkpt>
      <trkpt lat="44.97381" lon="6.50194">
        <ele>1493.2</ele>
        <time>2024-08-11T08:50:19Z</time>
      </trkpt>
      <trkpt lat="44.97381" lon="6.50194">
        <ele>1493.2</ele>
        <time>2024-08-11T08:50:20Z</time>
      </trkpt>
      <trkpt lat="44.97378" lon="6.50192">
        <ele>1493.6</ele>
        <time>2024-08-11T08:50:21Z</time>
      </trkpt>
      <trkpt lat="44.97378" lon="6.50192">
        <ele>1493.8</ele>
        <time>2024-08-11T08:50:22Z</time>
      </trkpt>
      <trkpt lat="44.97375" lon="6.50191">
        <ele>1493.8</ele>
        <time>2024-08-11T08:50:23Z</time>
      </trkpt>
      <trkpt lat="44.97375" lon="6.5019">
        <ele>1494.2</ele>
        <time>2024-08-11T08:50:24Z</time>
      </trkpt>
      <trkpt lat="44.97375" lon="6.5019">
        <ele>1494.4</ele>
        <time>2024-08-11T08:50:25Z</time>
      </trkpt>
      <trkpt lat="44.97375" lon="6.5019">
        <ele>1494.6</ele>
        <time>2024-08-11T08:50:26Z</time>
      </trkpt>
      <trkpt lat="44.97371" lon="6.50189">
        <ele>1494.6</ele>
        <time>2024-08-11T08:50:27Z</time>
      </trkpt>
      <trkpt lat="44.9737" lon="6.50189">
        <ele>1494.6</ele>
        <time>2024-08-11T08:50:28Z</time>
      </trkpt>
      <trkpt lat="44.9737" lon="6.50189">
        <ele>1494.8</ele>
        <time>2024-08-11T08:50:29Z</time>
      </trkpt>
      <trkpt lat="44.97368" lon="6.50188">
        <ele>1494.8</ele>
        <time>2024-08-11T08:50:30Z</time>
      </trkpt>
      <trkpt lat="44.97368" lon="6.50188">
        <ele>1494.6</ele>
        <time>2024-08-11T08:50:31Z</time>
      </trkpt>
      <trkpt lat="44.97368" lon="6.50188">
        <ele>1494.6</ele>
        <time>2024-08-11T08:50:32Z</time>
      </trkpt>
      <trkpt lat="44.97364" lon="6.50188">
        <ele>1494.6</ele>
        <time>2024-08-11T08:50:33Z</time>
      </trkpt>
      <trkpt lat="44.97363" lon="6.50188">
        <ele>1494.8</ele>
        <time>2024-08-11T08:50:34Z</time>
      </trkpt>
      <trkpt lat="44.97363" lon="6.50188">
        <ele>1495</ele>
        <time>2024-08-11T08:50:35Z</time>
      </trkpt>
      <trkpt lat="44.9736" lon="6.50189">
        <ele>1495</ele>
        <time>2024-08-11T08:50:36Z</time>
      </trkpt>
      <trkpt lat="44.9736" lon="6.50189">
        <ele>1495.4</ele>
        <time>2024-08-11T08:50:37Z</time>
      </trkpt>
      <trkpt lat="44.97357" lon="6.50191">
        <ele>1495.4</ele>
        <time>2024-08-11T08:50:38Z</time>
      </trkpt>
      <trkpt lat="44.97357" lon="6.50191">
        <ele>1495.2</ele>
        <time>2024-08-11T08:50:39Z</time>
      </trkpt>
      <trkpt lat="44.97355" lon="6.50194">
        <ele>1495.2</ele>
        <time>2024-08-11T08:50:40Z</time>
      </trkpt>
      <trkpt lat="44.97355" lon="6.50194">
        <ele>1495.4</ele>
        <time>2024-08-11T08:50:41Z</time>
      </trkpt>
      <trkpt lat="44.97353" lon="6.50197">
        <ele>1495.4</ele>
        <time>2024-08-11T08:50:42Z</time>
      </trkpt>
      <trkpt lat="44.97353" lon="6.50197">
        <ele>1495.2</ele>
        <time>2024-08-11T08:50:43Z</time>
      </trkpt>
      <trkpt lat="44.97351" lon="6.50199">
        <ele>1495.2</ele>
        <time>2024-08-11T08:50:44Z</time>
      </trkpt>
      <trkpt lat="44.97351" lon="6.50199">
        <ele>1495.2</ele>
        <time>2024-08-11T08:50:45Z</time>
      </trkpt>
      <trkpt lat="44.97349" lon="6.50202">
        <ele>1495.4</ele>
        <time>2024-08-11T08:50:46Z</time>
      </trkpt>
      <trkpt lat="44.97349" lon="6.50202">
        <ele>1495.4</ele>
        <time>2024-08-11T08:50:47Z</time>
      </trkpt>
      <trkpt lat="44.97347" lon="6.50204">
        <ele>1495.4</ele>
        <time>2024-08-11T08:50:48Z</time>
      </trkpt>
      <trkpt lat="44.97347" lon="6.50204">
        <ele>1495.4</ele>
        <time>2024-08-11T08:50:49Z</time>
      </trkpt>
      <trkpt lat="44.97344" lon="6.50207">
        <ele>1495</ele>
        <time>2024-08-11T08:50:50Z</time>
      </trkpt>
      <trkpt lat="44.97344" lon="6.50207">
        <ele>1495</ele>
        <time>2024-08-11T08:50:51Z</time>
      </trkpt>
      <trkpt lat="44.97343" lon="6.5021">
        <ele>1494.8</ele>
        <time>2024-08-11T08:50:52Z</time>
      </trkpt>
      <trkpt lat="44.97343" lon="6.5021">
        <ele>1494.8</ele>
        <time>2024-08-11T08:50:53Z</time>
      </trkpt>
      <trkpt lat="44.97341" lon="6.50213">
        <ele>1494.8</ele>
        <time>2024-08-11T08:50:54Z</time>
      </trkpt>
      <trkpt lat="44.97341" lon="6.50213">
        <ele>1494.6</ele>
        <time>2024-08-11T08:50:55Z</time>
      </trkpt>
      <trkpt lat="44.9734" lon="6.50216">
        <ele>1494.4</ele>
        <time>2024-08-11T08:50:56Z</time>
      </trkpt>
      <trkpt lat="44.9734" lon="6.50216">
        <ele>1494.4</ele>
        <time>2024-08-11T08:50:57Z</time>
      </trkpt>
      <trkpt lat="44.97339" lon="6.5022">
        <ele>1494.2</ele>
        <time>2024-08-11T08:50:58Z</time>
      </trkpt>
      <trkpt lat="44.97339" lon="6.5022">
        <ele>1494.2</ele>
        <time>2024-08-11T08:50:59Z</time>
      </trkpt>
      <trkpt lat="44.97337" lon="6.50223">
        <ele>1494.2</ele>
        <time>2024-08-11T08:51:00Z</time>
      </trkpt>
      <trkpt lat="44.97337" lon="6.50223">
        <ele>1494</ele>
        <time>2024-08-11T08:51:01Z</time>
      </trkpt>
      <trkpt lat="44.97336" lon="6.50226">
        <ele>1494</ele>
        <time>2024-08-11T08:51:02Z</time>
      </trkpt>
      <trkpt lat="44.97336" lon="6.50226">
        <ele>1494</ele>
        <time>2024-08-11T08:51:03Z</time>
      </trkpt>
      <trkpt lat="44.97335" lon="6.5023">
        <ele>1494</ele>
        <time>2024-08-11T08:51:04Z</time>
      </trkpt>
      <trkpt lat="44.97335" lon="6.5023">
        <ele>1494</ele>
        <time>2024-08-11T08:51:05Z</time>
      </trkpt>
      <trkpt lat="44.97334" lon="6.50234">
        <ele>1493.8</ele>
        <time>2024-08-11T08:51:06Z</time>
      </trkpt>
      <trkpt lat="44.97334" lon="6.50234">
        <ele>1493.8</ele>
        <time>2024-08-11T08:51:07Z</time>
      </trkpt>
      <trkpt lat="44.97333" lon="6.50238">
        <ele>1493.8</ele>
        <time>2024-08-11T08:51:08Z</time>
      </trkpt>
      <trkpt lat="44.97333" lon="6.50238">
        <ele>1493.8</ele>
        <time>2024-08-11T08:51:09Z</time>
      </trkpt>
      <trkpt lat="44.97332" lon="6.50241">
        <ele>1493.6</ele>
        <time>2024-08-11T08:51:10Z</time>
      </trkpt>
      <trkpt lat="44.97332" lon="6.50241">
        <ele>1493.6</ele>
        <time>2024-08-11T08:51:11Z</time>
      </trkpt>
      <trkpt lat="44.97331" lon="6.50245">
        <ele>1493.4</ele>
        <time>2024-08-11T08:51:12Z</time>
      </trkpt>
      <trkpt lat="44.97331" lon="6.50245">
        <ele>1493.2</ele>
        <time>2024-08-11T08:51:13Z</time>
      </trkpt>
      <trkpt lat="44.97331" lon="6.50249">
        <ele>1493.2</ele>
        <time>2024-08-11T08:51:14Z</time>
      </trkpt>
      <trkpt lat="44.97331" lon="6.50249">
        <ele>1493.2</ele>
        <time>2024-08-11T08:51:15Z</time>
      </trkpt>
      <trkpt lat="44.9733" lon="6.50253">
        <ele>1493.4</ele>
        <time>2024-08-11T08:51:16Z</time>
      </trkpt>
      <trkpt lat="44.9733" lon="6.50253">
        <ele>1493.4</ele>
        <time>2024-08-11T08:51:17Z</time>
      </trkpt>
      <trkpt lat="44.97329" lon="6.50257">
        <ele>1493.4</ele>
        <time>2024-08-11T08:51:18Z</time>
      </trkpt>
      <trkpt lat="44.97329" lon="6.50257">
        <ele>1493.2</ele>
        <time>2024-08-11T08:51:19Z</time>
      </trkpt>
      <trkpt lat="44.97328" lon="6.5026">
        <ele>1493</ele>
        <time>2024-08-11T08:51:20Z</time>
      </trkpt>
      <trkpt lat="44.97328" lon="6.5026">
        <ele>1492.8</ele>
        <time>2024-08-11T08:51:21Z</time>
      </trkpt>
      <trkpt lat="44.97328" lon="6.50264">
        <ele>1492.8</ele>
        <time>2024-08-11T08:51:22Z</time>
      </trkpt>
      <trkpt lat="44.97328" lon="6.50264">
        <ele>1492.8</ele>
        <time>2024-08-11T08:51:23Z</time>
      </trkpt>
      <trkpt lat="44.97327" lon="6.50268">
        <ele>1492.8</ele>
        <time>2024-08-11T08:51:24Z</time>
      </trkpt>
      <trkpt lat="44.97327" lon="6.50268">
        <ele>1492.8</ele>
        <time>2024-08-11T08:51:25Z</time>
      </trkpt>
      <trkpt lat="44.97326" lon="6.50271">
        <ele>1492.8</ele>
        <time>2024-08-11T08:51:26Z</time>
      </trkpt>
      <trkpt lat="44.97326" lon="6.50271">
        <ele>1492.6</ele>
        <time>2024-08-11T08:51:27Z</time>
      </trkpt>
      <trkpt lat="44.97325" lon="6.50275">
        <ele>1492.4</ele>
        <time>2024-08-11T08:51:28Z</time>
      </trkpt>
      <trkpt lat="44.97325" lon="6.50275">
        <ele>1492.4</ele>
        <time>2024-08-11T08:51:29Z</time>
      </trkpt>
      <trkpt lat="44.97323" lon="6.50276">
        <ele>1492.4</ele>
        <time>2024-08-11T08:51:30Z</time>
      </trkpt>
      <trkpt lat="44.97323" lon="6.50276">
        <ele>1492.2</ele>
        <time>2024-08-11T08:51:31Z</time>
      </trkpt>
      <trkpt lat="44.97323" lon="6.50276">
        <ele>1492</ele>
        <time>2024-08-11T08:51:32Z</time>
      </trkpt>
      <trkpt lat="44.97318" lon="6.50278">
        <ele>1492</ele>
        <time>2024-08-11T08:51:33Z</time>
      </trkpt>
      <trkpt lat="44.97317" lon="6.50278">
        <ele>1491.8</ele>
        <time>2024-08-11T08:51:34Z</time>
      </trkpt>
      <trkpt lat="44.97317" lon="6.50278">
        <ele>1491.8</ele>
        <time>2024-08-11T08:51:35Z</time>
      </trkpt>
      <trkpt lat="44.97314" lon="6.50278">
        <ele>1492</ele>
        <time>2024-08-11T08:51:36Z</time>
      </trkpt>
      <trkpt lat="44.97314" lon="6.50278">
        <ele>1492.2</ele>
        <time>2024-08-11T08:51:37Z</time>
      </trkpt>
      <trkpt lat="44.97311" lon="6.50278">
        <ele>1492.2</ele>
        <time>2024-08-11T08:51:38Z</time>
      </trkpt>
      <trkpt lat="44.97311" lon="6.50278">
        <ele>1492.4</ele>
        <time>2024-08-11T08:51:39Z</time>
      </trkpt>
      <trkpt lat="44.97309" lon="6.50278">
        <ele>1492.4</ele>
        <time>2024-08-11T08:51:40Z</time>
      </trkpt>
      <trkpt lat="44.97309" lon="6.50278">
        <ele>1492.4</ele>
        <time>2024-08-11T08:51:41Z</time>
      </trkpt>
      <trkpt lat="44.97306" lon="6.50277">
        <ele>1492.4</ele>
        <time>2024-08-11T08:51:42Z</time>
      </trkpt>
      <trkpt lat="44.97306" lon="6.50277">
        <ele>1492.4</ele>
        <time>2024-08-11T08:51:43Z</time>
      </trkpt>
      <trkpt lat="44.97303" lon="6.50276">
        <ele>1492.2</ele>
        <time>2024-08-11T08:51:44Z</time>
      </trkpt>
      <trkpt lat="44.97303" lon="6.50276">
        <ele>1492.2</ele>
        <time>2024-08-11T08:51:45Z</time>
      </trkpt>
      <trkpt lat="44.97301" lon="6.50276">
        <ele>1492.2</ele>
        <time>2024-08-11T08:51:46Z</time>
      </trkpt>
      <trkpt lat="44.97301" lon="6.50276">
        <ele>1492.2</ele>
        <time>2024-08-11T08:51:47Z</time>
      </trkpt>
      <trkpt lat="44.97299" lon="6.50279">
        <ele>1492.4</ele>
        <time>2024-08-11T08:51:48Z</time>
      </trkpt>
      <trkpt lat="44.97299" lon="6.50279">
        <ele>1492.4</ele>
        <time>2024-08-11T08:51:49Z</time>
      </trkpt>
      <trkpt lat="44.97297" lon="6.50282">
        <ele>1492.6</ele>
        <time>2024-08-11T08:51:50Z</time>
      </trkpt>
      <trkpt lat="44.97297" lon="6.50282">
        <ele>1492.6</ele>
        <time>2024-08-11T08:51:51Z</time>
      </trkpt>
      <trkpt lat="44.97296" lon="6.50286">
        <ele>1492.6</ele>
        <time>2024-08-11T08:51:52Z</time>
      </trkpt>
      <trkpt lat="44.97296" lon="6.50286">
        <ele>1492.6</ele>
        <time>2024-08-11T08:51:53Z</time>
      </trkpt>
      <trkpt lat="44.97295" lon="6.5029">
        <ele>1492.4</ele>
        <time>2024-08-11T08:51:54Z</time>
      </trkpt>
      <trkpt lat="44.97295" lon="6.5029">
        <ele>1492.4</ele>
        <time>2024-08-11T08:51:55Z</time>
      </trkpt>
      <trkpt lat="44.97294" lon="6.50293">
        <ele>1492.2</ele>
        <time>2024-08-11T08:51:56Z</time>
      </trkpt>
      <trkpt lat="44.97294" lon="6.50293">
        <ele>1492.2</ele>
        <time>2024-08-11T08:51:57Z</time>
      </trkpt>
      <trkpt lat="44.97293" lon="6.50297">
        <ele>1492.2</ele>
        <time>2024-08-11T08:51:58Z</time>
      </trkpt>
      <trkpt lat="44.97293" lon="6.50297">
        <ele>1492.2</ele>
        <time>2024-08-11T08:51:59Z</time>
      </trkpt>
      <trkpt lat="44.97293" lon="6.50301">
        <ele>1492</ele>
        <time>2024-08-11T08:52:00Z</time>
      </trkpt>
      <trkpt lat="44.97293" lon="6.50301">
        <ele>1492</ele>
        <time>2024-08-11T08:52:01Z</time>
      </trkpt>
      <trkpt lat="44.97293" lon="6.50301">
        <ele>1491.8</ele>
        <time>2024-08-11T08:52:02Z</time>
      </trkpt>
      <trkpt lat="44.97291" lon="6.50307">
        <ele>1491.6</ele>
        <time>2024-08-11T08:52:03Z</time>
      </trkpt>
      <trkpt lat="44.97291" lon="6.50309">
        <ele>1491.4</ele>
        <time>2024-08-11T08:52:04Z</time>
      </trkpt>
      <trkpt lat="44.97291" lon="6.50309">
        <ele>1491.4</ele>
        <time>2024-08-11T08:52:05Z</time>
      </trkpt>
      <trkpt lat="44.9729" lon="6.50314">
        <ele>1491.2</ele>
        <time>2024-08-11T08:52:06Z</time>
      </trkpt>
      <trkpt lat="44.9729" lon="6.50314">
        <ele>1491.2</ele>
        <time>2024-08-11T08:52:07Z</time>
      </trkpt>
      <trkpt lat="44.97289" lon="6.50317">
        <ele>1491.2</ele>
        <time>2024-08-11T08:52:08Z</time>
      </trkpt>
      <trkpt lat="44.97289" lon="6.50317">
        <ele>1491.4</ele>
        <time>2024-08-11T08:52:09Z</time>
      </trkpt>
      <trkpt lat="44.97288" lon="6.50321">
        <ele>1491.6</ele>
        <time>2024-08-11T08:52:10Z</time>
      </trkpt>
      <trkpt lat="44.97288" lon="6.50321">
        <ele>1491.6</ele>
        <time>2024-08-11T08:52:11Z</time>
      </trkpt>
      <trkpt lat="44.97287" lon="6.50324">
        <ele>1491.6</ele>
        <time>2024-08-11T08:52:12Z</time>
      </trkpt>
      <trkpt lat="44.97287" lon="6.50324">
        <ele>1491.2</ele>
        <time>2024-08-11T08:52:13Z</time>
      </trkpt>
      <trkpt lat="44.97285" lon="6.50328">
        <ele>1491.2</ele>
        <time>2024-08-11T08:52:14Z</time>
      </trkpt>
      <trkpt lat="44.97285" lon="6.50328">
        <ele>1491.2</ele>
        <time>2024-08-11T08:52:15Z</time>
      </trkpt>
      <trkpt lat="44.97284" lon="6.50332">
        <ele>1491</ele>
        <time>2024-08-11T08:52:16Z</time>
      </trkpt>
      <trkpt lat="44.97284" lon="6.50332">
        <ele>1491</ele>
        <time>2024-08-11T08:52:17Z</time>
      </trkpt>
      <trkpt lat="44.97283" lon="6.50336">
        <ele>1490.6</ele>
        <time>2024-08-11T08:52:18Z</time>
      </trkpt>
      <trkpt lat="44.97283" lon="6.50336">
        <ele>1490.6</ele>
        <time>2024-08-11T08:52:19Z</time>
      </trkpt>
      <trkpt lat="44.97281" lon="6.50339">
        <ele>1490.6</ele>
        <time>2024-08-11T08:52:20Z</time>
      </trkpt>
      <trkpt lat="44.97281" lon="6.50339">
        <ele>1490.6</ele>
        <time>2024-08-11T08:52:21Z</time>
      </trkpt>
      <trkpt lat="44.97281" lon="6.50339">
        <ele>1490.4</ele>
        <time>2024-08-11T08:52:22Z</time>
      </trkpt>
      <trkpt lat="44.97279" lon="6.50345">
        <ele>1490.4</ele>
        <time>2024-08-11T08:52:23Z</time>
      </trkpt>
      <trkpt lat="44.97278" lon="6.50346">
        <ele>1490.4</ele>
        <time>2024-08-11T08:52:24Z</time>
      </trkpt>
      <trkpt lat="44.97278" lon="6.50346">
        <ele>1490.2</ele>
        <time>2024-08-11T08:52:25Z</time>
      </trkpt>
      <trkpt lat="44.97276" lon="6.5035">
        <ele>1490.2</ele>
        <time>2024-08-11T08:52:26Z</time>
      </trkpt>
      <trkpt lat="44.97276" lon="6.5035">
        <ele>1490.2</ele>
        <time>2024-08-11T08:52:27Z</time>
      </trkpt>
      <trkpt lat="44.97275" lon="6.50354">
        <ele>1490.2</ele>
        <time>2024-08-11T08:52:28Z</time>
      </trkpt>
      <trkpt lat="44.97275" lon="6.50354">
        <ele>1490.2</ele>
        <time>2024-08-11T08:52:29Z</time>
      </trkpt>
      <trkpt lat="44.97274" lon="6.50357">
        <ele>1490</ele>
        <time>2024-08-11T08:52:30Z</time>
      </trkpt>
      <trkpt lat="44.97274" lon="6.50357">
        <ele>1489.8</ele>
        <time>2024-08-11T08:52:31Z</time>
      </trkpt>
      <trkpt lat="44.97273" lon="6.50361">
        <ele>1489.8</ele>
        <time>2024-08-11T08:52:32Z</time>
      </trkpt>
      <trkpt lat="44.97273" lon="6.50361">
        <ele>1489.8</ele>
        <time>2024-08-11T08:52:33Z</time>
      </trkpt>
      <trkpt lat="44.97272" lon="6.50365">
        <ele>1489.8</ele>
        <time>2024-08-11T08:52:34Z</time>
      </trkpt>
      <trkpt lat="44.97272" lon="6.50365">
        <ele>1489.6</ele>
        <time>2024-08-11T08:52:35Z</time>
      </trkpt>
      <trkpt lat="44.97271" lon="6.50369">
        <ele>1489.6</ele>
        <time>2024-08-11T08:52:36Z</time>
      </trkpt>
      <trkpt lat="44.97271" lon="6.50369">
        <ele>1489.6</ele>
        <time>2024-08-11T08:52:37Z</time>
      </trkpt>
      <trkpt lat="44.97271" lon="6.50373">
        <ele>1489.8</ele>
        <time>2024-08-11T08:52:38Z</time>
      </trkpt>
      <trkpt lat="44.97271" lon="6.50373">
        <ele>1489.6</ele>
        <time>2024-08-11T08:52:39Z</time>
      </trkpt>
      <trkpt lat="44.9727" lon="6.50377">
        <ele>1489.8</ele>
        <time>2024-08-11T08:52:40Z</time>
      </trkpt>
      <trkpt lat="44.9727" lon="6.50377">
        <ele>1489.8</ele>
        <time>2024-08-11T08:52:41Z</time>
      </trkpt>
      <trkpt lat="44.97269" lon="6.5038">
        <ele>1489.6</ele>
        <time>2024-08-11T08:52:42Z</time>
      </trkpt>
      <trkpt lat="44.97269" lon="6.5038">
        <ele>1489.6</ele>
        <time>2024-08-11T08:52:43Z</time>
      </trkpt>
      <trkpt lat="44.97269" lon="6.5038">
        <ele>1489.6</ele>
        <time>2024-08-11T08:52:44Z</time>
      </trkpt>
      <trkpt lat="44.97267" lon="6.50386">
        <ele>1489.4</ele>
        <time>2024-08-11T08:52:45Z</time>
      </trkpt>
      <trkpt lat="44.97267" lon="6.50388">
        <ele>1489</ele>
        <time>2024-08-11T08:52:46Z</time>
      </trkpt>
      <trkpt lat="44.97267" lon="6.50388">
        <ele>1488.8</ele>
        <time>2024-08-11T08:52:47Z</time>
      </trkpt>
      <trkpt lat="44.97265" lon="6.50391">
        <ele>1488.8</ele>
        <time>2024-08-11T08:52:48Z</time>
      </trkpt>
      <trkpt lat="44.97265" lon="6.50391">
        <ele>1488.8</ele>
        <time>2024-08-11T08:52:49Z</time>
      </trkpt>
      <trkpt lat="44.97264" lon="6.50395">
        <ele>1488.8</ele>
        <time>2024-08-11T08:52:50Z</time>
      </trkpt>
      <trkpt lat="44.97264" lon="6.50395">
        <ele>1488.6</ele>
        <time>2024-08-11T08:52:51Z</time>
      </trkpt>
      <trkpt lat="44.97263" lon="6.50398">
        <ele>1488.6</ele>
        <time>2024-08-11T08:52:52Z</time>
      </trkpt>
      <trkpt lat="44.97263" lon="6.50398">
        <ele>1488.6</ele>
        <time>2024-08-11T08:52:53Z</time>
      </trkpt>
      <trkpt lat="44.97262" lon="6.50402">
        <ele>1488.6</ele>
        <time>2024-08-11T08:52:54Z</time>
      </trkpt>
      <trkpt lat="44.97261" lon="6.50403">
        <ele>1488.6</ele>
        <time>2024-08-11T08:52:55Z</time>
      </trkpt>
      <trkpt lat="44.97261" lon="6.50403">
        <ele>1488.6</ele>
        <time>2024-08-11T08:52:56Z</time>
      </trkpt>
      <trkpt lat="44.9726" lon="6.50407">
        <ele>1488.6</ele>
        <time>2024-08-11T08:52:57Z</time>
      </trkpt>
      <trkpt lat="44.9726" lon="6.50407">
        <ele>1488.6</ele>
        <time>2024-08-11T08:52:58Z</time>
      </trkpt>
      <trkpt lat="44.97258" lon="6.5041">
        <ele>1488.4</ele>
        <time>2024-08-11T08:52:59Z</time>
      </trkpt>
      <trkpt lat="44.97258" lon="6.5041">
        <ele>1488.2</ele>
        <time>2024-08-11T08:53:00Z</time>
      </trkpt>
      <trkpt lat="44.97257" lon="6.50413">
        <ele>1488.2</ele>
        <time>2024-08-11T08:53:01Z</time>
      </trkpt>
      <trkpt lat="44.97257" lon="6.50413">
        <ele>1488.2</ele>
        <time>2024-08-11T08:53:02Z</time>
      </trkpt>
      <trkpt lat="44.97255" lon="6.50416">
        <ele>1488.2</ele>
        <time>2024-08-11T08:53:03Z</time>
      </trkpt>
      <trkpt lat="44.97253" lon="6.50418">
        <ele>1487.8</ele>
        <time>2024-08-11T08:53:04Z</time>
      </trkpt>
      <trkpt lat="44.97253" lon="6.50418">
        <ele>1487.8</ele>
        <time>2024-08-11T08:53:05Z</time>
      </trkpt>
      <trkpt lat="44.97252" lon="6.50421">
        <ele>1487.8</ele>
        <time>2024-08-11T08:53:06Z</time>
      </trkpt>
      <trkpt lat="44.97252" lon="6.50421">
        <ele>1487.8</ele>
        <time>2024-08-11T08:53:07Z</time>
      </trkpt>
      <trkpt lat="44.9725" lon="6.50424">
        <ele>1488</ele>
        <time>2024-08-11T08:53:08Z</time>
      </trkpt>
      <trkpt lat="44.9725" lon="6.50424">
        <ele>1488</ele>
        <time>2024-08-11T08:53:09Z</time>
      </trkpt>
      <trkpt lat="44.97248" lon="6.50427">
        <ele>1488</ele>
        <time>2024-08-11T08:53:10Z</time>
      </trkpt>
      <trkpt lat="44.97248" lon="6.50427">
        <ele>1487.8</ele>
        <time>2024-08-11T08:53:11Z</time>
      </trkpt>
      <trkpt lat="44.97246" lon="6.50429">
        <ele>1487.8</ele>
        <time>2024-08-11T08:53:12Z</time>
      </trkpt>
      <trkpt lat="44.97246" lon="6.50429">
        <ele>1487.6</ele>
        <time>2024-08-11T08:53:13Z</time>
      </trkpt>
      <trkpt lat="44.97244" lon="6.50432">
        <ele>1487.4</ele>
        <time>2024-08-11T08:53:14Z</time>
      </trkpt>
      <trkpt lat="44.97244" lon="6.50432">
        <ele>1487.4</ele>
        <time>2024-08-11T08:53:15Z</time>
      </trkpt>
      <trkpt lat="44.97242" lon="6.50435">
        <ele>1487.4</ele>
        <time>2024-08-11T08:53:16Z</time>
      </trkpt>
      <trkpt lat="44.97242" lon="6.50435">
        <ele>1487.8</ele>
        <time>2024-08-11T08:53:17Z</time>
      </trkpt>
      <trkpt lat="44.9724" lon="6.50436">
        <ele>1487.8</ele>
        <time>2024-08-11T08:53:18Z</time>
      </trkpt>
      <trkpt lat="44.9724" lon="6.50436">
        <ele>1487.8</ele>
        <time>2024-08-11T08:53:19Z</time>
      </trkpt>
      <trkpt lat="44.97237" lon="6.50438">
        <ele>1487.8</ele>
        <time>2024-08-11T08:53:20Z</time>
      </trkpt>
      <trkpt lat="44.97237" lon="6.50438">
        <ele>1488</ele>
        <time>2024-08-11T08:53:21Z</time>
      </trkpt>
      <trkpt lat="44.97237" lon="6.50438">
        <ele>1488.2</ele>
        <time>2024-08-11T08:53:22Z</time>
      </trkpt>
      <trkpt lat="44.97234" lon="6.50439">
        <ele>1488.2</ele>
        <time>2024-08-11T08:53:23Z</time>
      </trkpt>
      <trkpt lat="44.97234" lon="6.50439">
        <ele>1487.6</ele>
        <time>2024-08-11T08:53:24Z</time>
      </trkpt>
      <trkpt lat="44.97232" lon="6.50437">
        <ele>1487.6</ele>
        <time>2024-08-11T08:53:25Z</time>
      </trkpt>
      <trkpt lat="44.97232" lon="6.50437">
        <ele>1487.6</ele>
        <time>2024-08-11T08:53:26Z</time>
      </trkpt>
      <trkpt lat="44.9723" lon="6.50434">
        <ele>1487.6</ele>
        <time>2024-08-11T08:53:27Z</time>
      </trkpt>
      <trkpt lat="44.9723" lon="6.50434">
        <ele>1487.6</ele>
        <time>2024-08-11T08:53:28Z</time>
      </trkpt>
      <trkpt lat="44.9723" lon="6.50434">
        <ele>1487.8</ele>
        <time>2024-08-11T08:53:29Z</time>
      </trkpt>
      <trkpt lat="44.97228" lon="6.50429">
        <ele>1487.8</ele>
        <time>2024-08-11T08:53:30Z</time>
      </trkpt>
      <trkpt lat="44.97226" lon="6.50428">
        <ele>1488</ele>
        <time>2024-08-11T08:53:31Z</time>
      </trkpt>
      <trkpt lat="44.97226" lon="6.50428">
        <ele>1488</ele>
        <time>2024-08-11T08:53:32Z</time>
      </trkpt>
      <trkpt lat="44.97226" lon="6.50428">
        <ele>1488.2</ele>
        <time>2024-08-11T08:53:33Z</time>
      </trkpt>
      <trkpt lat="44.97222" lon="6.50424">
        <ele>1488.4</ele>
        <time>2024-08-11T08:53:34Z</time>
      </trkpt>
      <trkpt lat="44.97222" lon="6.50424">
        <ele>1488.4</ele>
        <time>2024-08-11T08:53:35Z</time>
      </trkpt>
      <trkpt lat="44.97221" lon="6.50421">
        <ele>1488.4</ele>
        <time>2024-08-11T08:53:36Z</time>
      </trkpt>
      <trkpt lat="44.97221" lon="6.50421">
        <ele>1488.6</ele>
        <time>2024-08-11T08:53:37Z</time>
      </trkpt>
      <trkpt lat="44.97219" lon="6.50418">
        <ele>1488.6</ele>
        <time>2024-08-11T08:53:38Z</time>
      </trkpt>
      <trkpt lat="44.97218" lon="6.50417">
        <ele>1488.6</ele>
        <time>2024-08-11T08:53:39Z</time>
      </trkpt>
      <trkpt lat="44.97218" lon="6.50417">
        <ele>1488.4</ele>
        <time>2024-08-11T08:53:40Z</time>
      </trkpt>
      <trkpt lat="44.97216" lon="6.50414">
        <ele>1488.4</ele>
        <time>2024-08-11T08:53:41Z</time>
      </trkpt>
      <trkpt lat="44.97216" lon="6.50414">
        <ele>1488.6</ele>
        <time>2024-08-11T08:53:42Z</time>
      </trkpt>
      <trkpt lat="44.97215" lon="6.50411">
        <ele>1488.8</ele>
        <time>2024-08-11T08:53:43Z</time>
      </trkpt>
      <trkpt lat="44.97215" lon="6.50411">
        <ele>1488.8</ele>
        <time>2024-08-11T08:53:44Z</time>
      </trkpt>
      <trkpt lat="44.97215" lon="6.50411">
        <ele>1489</ele>
        <time>2024-08-11T08:53:45Z</time>
      </trkpt>
      <trkpt lat="44.97213" lon="6.50406">
        <ele>1489</ele>
        <time>2024-08-11T08:53:46Z</time>
      </trkpt>
      <trkpt lat="44.97213" lon="6.50406">
        <ele>1489</ele>
        <time>2024-08-11T08:53:47Z</time>
      </trkpt>
      <trkpt lat="44.97211" lon="6.50403">
        <ele>1489.2</ele>
        <time>2024-08-11T08:53:48Z</time>
      </trkpt>
      <trkpt lat="44.97211" lon="6.50403">
        <ele>1489.4</ele>
        <time>2024-08-11T08:53:49Z</time>
      </trkpt>
      <trkpt lat="44.97209" lon="6.504">
        <ele>1489.4</ele>
        <time>2024-08-11T08:53:50Z</time>
      </trkpt>
      <trkpt lat="44.97209" lon="6.50398">
        <ele>1489.6</ele>
        <time>2024-08-11T08:53:51Z</time>
      </trkpt>
      <trkpt lat="44.97209" lon="6.50398">
        <ele>1489.8</ele>
        <time>2024-08-11T08:53:52Z</time>
      </trkpt>
      <trkpt lat="44.97208" lon="6.50395">
        <ele>1490</ele>
        <time>2024-08-11T08:53:53Z</time>
      </trkpt>
      <trkpt lat="44.97208" lon="6.50395">
        <ele>1490.2</ele>
        <time>2024-08-11T08:53:54Z</time>
      </trkpt>
      <trkpt lat="44.97207" lon="6.50391">
        <ele>1490.2</ele>
        <time>2024-08-11T08:53:55Z</time>
      </trkpt>
      <trkpt lat="44.97207" lon="6.50391">
        <ele>1490.2</ele>
        <time>2024-08-11T08:53:56Z</time>
      </trkpt>
      <trkpt lat="44.97206" lon="6.50388">
        <ele>1490.2</ele>
        <time>2024-08-11T08:53:57Z</time>
      </trkpt>
      <trkpt lat="44.97206" lon="6.50388">
        <ele>1490.2</ele>
        <time>2024-08-11T08:53:58Z</time>
      </trkpt>
      <trkpt lat="44.97205" lon="6.50384">
        <ele>1490.4</ele>
        <time>2024-08-11T08:53:59Z</time>
      </trkpt>
      <trkpt lat="44.97205" lon="6.50384">
        <ele>1490.4</ele>
        <time>2024-08-11T08:54:00Z</time>
      </trkpt>
      <trkpt lat="44.97204" lon="6.50381">
        <ele>1490.4</ele>
        <time>2024-08-11T08:54:01Z</time>
      </trkpt>
      <trkpt lat="44.97204" lon="6.50381">
        <ele>1490.8</ele>
        <time>2024-08-11T08:54:02Z</time>
      </trkpt>
      <trkpt lat="44.97203" lon="6.50377">
        <ele>1490.8</ele>
        <time>2024-08-11T08:54:03Z</time>
      </trkpt>
      <trkpt lat="44.97203" lon="6.50377">
        <ele>1490.8</ele>
        <time>2024-08-11T08:54:04Z</time>
      </trkpt>
      <trkpt lat="44.97203" lon="6.50377">
        <ele>1490.8</ele>
        <time>2024-08-11T08:54:05Z</time>
      </trkpt>
      <trkpt lat="44.97202" lon="6.50372">
        <ele>1490.8</ele>
        <time>2024-08-11T08:54:06Z</time>
      </trkpt>
      <trkpt lat="44.97201" lon="6.5037">
        <ele>1491</ele>
        <time>2024-08-11T08:54:07Z</time>
      </trkpt>
      <trkpt lat="44.97201" lon="6.5037">
        <ele>1491.2</ele>
        <time>2024-08-11T08:54:08Z</time>
      </trkpt>
      <trkpt lat="44.972" lon="6.50367">
        <ele>1491.4</ele>
        <time>2024-08-11T08:54:09Z</time>
      </trkpt>
      <trkpt lat="44.972" lon="6.50367">
        <ele>1491.4</ele>
        <time>2024-08-11T08:54:10Z</time>
      </trkpt>
      <trkpt lat="44.972" lon="6.50367">
        <ele>1491.4</ele>
        <time>2024-08-11T08:54:11Z</time>
      </trkpt>
      <trkpt lat="44.97199" lon="6.50361">
        <ele>1491.4</ele>
        <time>2024-08-11T08:54:12Z</time>
      </trkpt>
      <trkpt lat="44.97199" lon="6.50359">
        <ele>1491.4</ele>
        <time>2024-08-11T08:54:13Z</time>
      </trkpt>
      <trkpt lat="44.97199" lon="6.50359">
        <ele>1491.6</ele>
        <time>2024-08-11T08:54:14Z</time>
      </trkpt>
      <trkpt lat="44.97199" lon="6.50356">
        <ele>1491.8</ele>
        <time>2024-08-11T08:54:15Z</time>
      </trkpt>
      <trkpt lat="44.97199" lon="6.50356">
        <ele>1492</ele>
        <time>2024-08-11T08:54:16Z</time>
      </trkpt>
      <trkpt lat="44.97199" lon="6.50356">
        <ele>1492</ele>
        <time>2024-08-11T08:54:17Z</time>
      </trkpt>
      <trkpt lat="44.97197" lon="6.50351">
        <ele>1492</ele>
        <time>2024-08-11T08:54:18Z</time>
      </trkpt>
      <trkpt lat="44.97196" lon="6.50349">
        <ele>1492</ele>
        <time>2024-08-11T08:54:19Z</time>
      </trkpt>
      <trkpt lat="44.97196" lon="6.50349">
        <ele>1492</ele>
        <time>2024-08-11T08:54:20Z</time>
      </trkpt>
      <trkpt lat="44.97195" lon="6.50346">
        <ele>1492.2</ele>
        <time>2024-08-11T08:54:21Z</time>
      </trkpt>
      <trkpt lat="44.97195" lon="6.50346">
        <ele>1492.2</ele>
        <time>2024-08-11T08:54:22Z</time>
      </trkpt>
      <trkpt lat="44.97193" lon="6.50344">
        <ele>1492.2</ele>
        <time>2024-08-11T08:54:23Z</time>
      </trkpt>
      <trkpt lat="44.97193" lon="6.50344">
        <ele>1492.2</ele>
        <time>2024-08-11T08:54:24Z</time>
      </trkpt>
      <trkpt lat="44.97192" lon="6.50341">
        <ele>1492.4</ele>
        <time>2024-08-11T08:54:25Z</time>
      </trkpt>
      <trkpt lat="44.97192" lon="6.50341">
        <ele>1492.8</ele>
        <time>2024-08-11T08:54:26Z</time>
      </trkpt>
      <trkpt lat="44.9719" lon="6.50338">
        <ele>1492.8</ele>
        <time>2024-08-11T08:54:27Z</time>
      </trkpt>
      <trkpt lat="44.9719" lon="6.50338">
        <ele>1492.8</ele>
        <time>2024-08-11T08:54:28Z</time>
      </trkpt>
      <trkpt lat="44.9719" lon="6.50338">
        <ele>1493</ele>
        <time>2024-08-11T08:54:29Z</time>
      </trkpt>
      <trkpt lat="44.97188" lon="6.50334">
        <ele>1493.2</ele>
        <time>2024-08-11T08:54:30Z</time>
      </trkpt>
      <trkpt lat="44.97186" lon="6.50333">
        <ele>1493.2</ele>
        <time>2024-08-11T08:54:31Z</time>
      </trkpt>
      <trkpt lat="44.97186" lon="6.50333">
        <ele>1493.2</ele>
        <time>2024-08-11T08:54:32Z</time>
      </trkpt>
      <trkpt lat="44.97184" lon="6.5033">
        <ele>1493.2</ele>
        <time>2024-08-11T08:54:33Z</time>
      </trkpt>
      <trkpt lat="44.97184" lon="6.5033">
        <ele>1493.4</ele>
        <time>2024-08-11T08:54:34Z</time>
      </trkpt>
      <trkpt lat="44.97182" lon="6.50328">
        <ele>1493.6</ele>
        <time>2024-08-11T08:54:35Z</time>
      </trkpt>
      <trkpt lat="44.97182" lon="6.50328">
        <ele>1493.6</ele>
        <time>2024-08-11T08:54:36Z</time>
      </trkpt>
      <trkpt lat="44.9718" lon="6.50325">
        <ele>1493.6</ele>
        <time>2024-08-11T08:54:37Z</time>
      </trkpt>
      <trkpt lat="44.9718" lon="6.50325">
        <ele>1493.8</ele>
        <time>2024-08-11T08:54:38Z</time>
      </trkpt>
      <trkpt lat="44.97179" lon="6.50322">
        <ele>1493.8</ele>
        <time>2024-08-11T08:54:39Z</time>
      </trkpt>
      <trkpt lat="44.97179" lon="6.50322">
        <ele>1494</ele>
        <time>2024-08-11T08:54:40Z</time>
      </trkpt>
      <trkpt lat="44.97179" lon="6.50322">
        <ele>1494</ele>
        <time>2024-08-11T08:54:41Z</time>
      </trkpt>
      <trkpt lat="44.97178" lon="6.50317">
        <ele>1494</ele>
        <time>2024-08-11T08:54:42Z</time>
      </trkpt>
      <trkpt lat="44.97177" lon="6.50315">
        <ele>1494.2</ele>
        <time>2024-08-11T08:54:43Z</time>
      </trkpt>
      <trkpt lat="44.97176" lon="6.50313">
        <ele>1494.2</ele>
        <time>2024-08-11T08:54:44Z</time>
      </trkpt>
      <trkpt lat="44.97176" lon="6.50313">
        <ele>1494.2</ele>
        <time>2024-08-11T08:54:45Z</time>
      </trkpt>
      <trkpt lat="44.97175" lon="6.5031">
        <ele>1494.4</ele>
        <time>2024-08-11T08:54:46Z</time>
      </trkpt>
      <trkpt lat="44.97175" lon="6.5031">
        <ele>1494.4</ele>
        <time>2024-08-11T08:54:47Z</time>
      </trkpt>
      <trkpt lat="44.97173" lon="6.50307">
        <ele>1494.4</ele>
        <time>2024-08-11T08:54:48Z</time>
      </trkpt>
      <trkpt lat="44.97173" lon="6.50307">
        <ele>1494.6</ele>
        <time>2024-08-11T08:54:49Z</time>
      </trkpt>
      <trkpt lat="44.97172" lon="6.50303">
        <ele>1494.6</ele>
        <time>2024-08-11T08:54:50Z</time>
      </trkpt>
      <trkpt lat="44.97172" lon="6.50303">
        <ele>1494.8</ele>
        <time>2024-08-11T08:54:51Z</time>
      </trkpt>
      <trkpt lat="44.9717" lon="6.503">
        <ele>1494.8</ele>
        <time>2024-08-11T08:54:52Z</time>
      </trkpt>
      <trkpt lat="44.9717" lon="6.503">
        <ele>1494.8</ele>
        <time>2024-08-11T08:54:53Z</time>
      </trkpt>
      <trkpt lat="44.9717" lon="6.50297">
        <ele>1494.8</ele>
        <time>2024-08-11T08:54:54Z</time>
      </trkpt>
      <trkpt lat="44.9717" lon="6.50297">
        <ele>1495.2</ele>
        <time>2024-08-11T08:54:55Z</time>
      </trkpt>
      <trkpt lat="44.97168" lon="6.50293">
        <ele>1495.2</ele>
        <time>2024-08-11T08:54:56Z</time>
      </trkpt>
      <trkpt lat="44.97168" lon="6.50293">
        <ele>1495.4</ele>
        <time>2024-08-11T08:54:57Z</time>
      </trkpt>
      <trkpt lat="44.97168" lon="6.5029">
        <ele>1495.4</ele>
        <time>2024-08-11T08:54:58Z</time>
      </trkpt>
      <trkpt lat="44.97168" lon="6.5029">
        <ele>1495.4</ele>
        <time>2024-08-11T08:54:59Z</time>
      </trkpt>
      <trkpt lat="44.97167" lon="6.50286">
        <ele>1495.4</ele>
        <time>2024-08-11T08:55:00Z</time>
      </trkpt>
      <trkpt lat="44.97167" lon="6.50286">
        <ele>1495.4</ele>
        <time>2024-08-11T08:55:01Z</time>
      </trkpt>
      <trkpt lat="44.97166" lon="6.50283">
        <ele>1495.6</ele>
        <time>2024-08-11T08:55:02Z</time>
      </trkpt>
      <trkpt lat="44.97166" lon="6.50283">
        <ele>1495.6</ele>
        <time>2024-08-11T08:55:03Z</time>
      </trkpt>
      <trkpt lat="44.97165" lon="6.50279">
        <ele>1496</ele>
        <time>2024-08-11T08:55:04Z</time>
      </trkpt>
      <trkpt lat="44.97165" lon="6.50279">
        <ele>1496</ele>
        <time>2024-08-11T08:55:05Z</time>
      </trkpt>
      <trkpt lat="44.97165" lon="6.50276">
        <ele>1496</ele>
        <time>2024-08-11T08:55:06Z</time>
      </trkpt>
      <trkpt lat="44.97165" lon="6.50276">
        <ele>1496.2</ele>
        <time>2024-08-11T08:55:07Z</time>
      </trkpt>
      <trkpt lat="44.97164" lon="6.50272">
        <ele>1496.2</ele>
        <time>2024-08-11T08:55:08Z</time>
      </trkpt>
      <trkpt lat="44.97164" lon="6.50272">
        <ele>1496.4</ele>
        <time>2024-08-11T08:55:09Z</time>
      </trkpt>
      <trkpt lat="44.97164" lon="6.50268">
        <ele>1496.4</ele>
        <time>2024-08-11T08:55:10Z</time>
      </trkpt>
      <trkpt lat="44.97164" lon="6.50268">
        <ele>1496.2</ele>
        <time>2024-08-11T08:55:11Z</time>
      </trkpt>
      <trkpt lat="44.97163" lon="6.50265">
        <ele>1496.2</ele>
        <time>2024-08-11T08:55:12Z</time>
      </trkpt>
      <trkpt lat="44.97163" lon="6.50265">
        <ele>1496.4</ele>
        <time>2024-08-11T08:55:13Z</time>
      </trkpt>
      <trkpt lat="44.97163" lon="6.50261">
        <ele>1496.4</ele>
        <time>2024-08-11T08:55:14Z</time>
      </trkpt>
      <trkpt lat="44.97163" lon="6.50261">
        <ele>1496.4</ele>
        <time>2024-08-11T08:55:15Z</time>
      </trkpt>
      <trkpt lat="44.97162" lon="6.50258">
        <ele>1496.4</ele>
        <time>2024-08-11T08:55:16Z</time>
      </trkpt>
      <trkpt lat="44.97162" lon="6.50258">
        <ele>1496.4</ele>
        <time>2024-08-11T08:55:17Z</time>
      </trkpt>
      <trkpt lat="44.97161" lon="6.50254">
        <ele>1496.4</ele>
        <time>2024-08-11T08:55:18Z</time>
      </trkpt>
      <trkpt lat="44.97161" lon="6.50254">
        <ele>1496.6</ele>
        <time>2024-08-11T08:55:19Z</time>
      </trkpt>
      <trkpt lat="44.9716" lon="6.5025">
        <ele>1496.8</ele>
        <time>2024-08-11T08:55:20Z</time>
      </trkpt>
      <trkpt lat="44.9716" lon="6.5025">
        <ele>1497</ele>
        <time>2024-08-11T08:55:21Z</time>
      </trkpt>
      <trkpt lat="44.97159" lon="6.50247">
        <ele>1497</ele>
        <time>2024-08-11T08:55:22Z</time>
      </trkpt>
      <trkpt lat="44.97159" lon="6.50247">
        <ele>1497</ele>
        <time>2024-08-11T08:55:23Z</time>
      </trkpt>
      <trkpt lat="44.97158" lon="6.50243">
        <ele>1497</ele>
        <time>2024-08-11T08:55:24Z</time>
      </trkpt>
      <trkpt lat="44.97158" lon="6.50243">
        <ele>1497.4</ele>
        <time>2024-08-11T08:55:25Z</time>
      </trkpt>
      <trkpt lat="44.97157" lon="6.5024">
        <ele>1497.4</ele>
        <time>2024-08-11T08:55:26Z</time>
      </trkpt>
      <trkpt lat="44.97157" lon="6.5024">
        <ele>1497.4</ele>
        <time>2024-08-11T08:55:27Z</time>
      </trkpt>
      <trkpt lat="44.97156" lon="6.50237">
        <ele>1497.6</ele>
        <time>2024-08-11T08:55:28Z</time>
      </trkpt>
      <trkpt lat="44.97156" lon="6.50237">
        <ele>1497.6</ele>
        <time>2024-08-11T08:55:29Z</time>
      </trkpt>
      <trkpt lat="44.97155" lon="6.50234">
        <ele>1497.6</ele>
        <time>2024-08-11T08:55:30Z</time>
      </trkpt>
      <trkpt lat="44.97155" lon="6.50234">
        <ele>1497.6</ele>
        <time>2024-08-11T08:55:31Z</time>
      </trkpt>
      <trkpt lat="44.97153" lon="6.50231">
        <ele>1497.6</ele>
        <time>2024-08-11T08:55:32Z</time>
      </trkpt>
      <trkpt lat="44.97153" lon="6.50231">
        <ele>1497.8</ele>
        <time>2024-08-11T08:55:33Z</time>
      </trkpt>
      <trkpt lat="44.97151" lon="6.50229">
        <ele>1497.8</ele>
        <time>2024-08-11T08:55:34Z</time>
      </trkpt>
      <trkpt lat="44.97151" lon="6.50229">
        <ele>1498</ele>
        <time>2024-08-11T08:55:35Z</time>
      </trkpt>
      <trkpt lat="44.97149" lon="6.50227">
        <ele>1498.2</ele>
        <time>2024-08-11T08:55:36Z</time>
      </trkpt>
      <trkpt lat="44.97149" lon="6.50227">
        <ele>1498.2</ele>
        <time>2024-08-11T08:55:37Z</time>
      </trkpt>
      <trkpt lat="44.97147" lon="6.50225">
        <ele>1498.2</ele>
        <time>2024-08-11T08:55:38Z</time>
      </trkpt>
      <trkpt lat="44.97147" lon="6.50225">
        <ele>1498.2</ele>
        <time>2024-08-11T08:55:39Z</time>
      </trkpt>
      <trkpt lat="44.97146" lon="6.50222">
        <ele>1498.2</ele>
        <time>2024-08-11T08:55:40Z</time>
      </trkpt>
      <trkpt lat="44.97146" lon="6.50222">
        <ele>1498.2</ele>
        <time>2024-08-11T08:55:41Z</time>
      </trkpt>
      <trkpt lat="44.97144" lon="6.50219">
        <ele>1498.2</ele>
        <time>2024-08-11T08:55:42Z</time>
      </trkpt>
      <trkpt lat="44.97144" lon="6.50219">
        <ele>1498.4</ele>
        <time>2024-08-11T08:55:43Z</time>
      </trkpt>
      <trkpt lat="44.97142" lon="6.50217">
        <ele>1498.4</ele>
        <time>2024-08-11T08:55:44Z</time>
      </trkpt>
      <trkpt lat="44.97142" lon="6.50217">
        <ele>1498.6</ele>
        <time>2024-08-11T08:55:45Z</time>
      </trkpt>
      <trkpt lat="44.9714" lon="6.50214">
        <ele>1498.8</ele>
        <time>2024-08-11T08:55:46Z</time>
      </trkpt>
      <trkpt lat="44.9714" lon="6.50214">
        <ele>1498.8</ele>
        <time>2024-08-11T08:55:47Z</time>
      </trkpt>
      <trkpt lat="44.97139" lon="6.50212">
        <ele>1499</ele>
        <time>2024-08-11T08:55:48Z</time>
      </trkpt>
      <trkpt lat="44.97139" lon="6.50212">
        <ele>1499</ele>
        <time>2024-08-11T08:55:49Z</time>
      </trkpt>
      <trkpt lat="44.97137" lon="6.50209">
        <ele>1499.2</ele>
        <time>2024-08-11T08:55:50Z</time>
      </trkpt>
      <trkpt lat="44.97137" lon="6.50209">
        <ele>1499.4</ele>
        <time>2024-08-11T08:55:51Z</time>
      </trkpt>
      <trkpt lat="44.97135" lon="6.50207">
        <ele>1499.6</ele>
        <time>2024-08-11T08:55:52Z</time>
      </trkpt>
      <trkpt lat="44.97135" lon="6.50207">
        <ele>1499.6</ele>
        <time>2024-08-11T08:55:53Z</time>
      </trkpt>
      <trkpt lat="44.97133" lon="6.50204">
        <ele>1499.8</ele>
        <time>2024-08-11T08:55:54Z</time>
      </trkpt>
      <trkpt lat="44.97133" lon="6.50204">
        <ele>1500</ele>
        <time>2024-08-11T08:55:55Z</time>
      </trkpt>
      <trkpt lat="44.97132" lon="6.50201">
        <ele>1500</ele>
        <time>2024-08-11T08:55:56Z</time>
      </trkpt>
      <trkpt lat="44.97132" lon="6.50201">
        <ele>1500</ele>
        <time>2024-08-11T08:55:57Z</time>
      </trkpt>
      <trkpt lat="44.97131" lon="6.50197">
        <ele>1500.2</ele>
        <time>2024-08-11T08:55:58Z</time>
      </trkpt>
      <trkpt lat="44.97131" lon="6.50197">
        <ele>1500.2</ele>
        <time>2024-08-11T08:55:59Z</time>
      </trkpt>
      <trkpt lat="44.9713" lon="6.50193">
        <ele>1500.2</ele>
        <time>2024-08-11T08:56:00Z</time>
      </trkpt>
      <trkpt lat="44.9713" lon="6.50193">
        <ele>1500.2</ele>
        <time>2024-08-11T08:56:01Z</time>
      </trkpt>
      <trkpt lat="44.9713" lon="6.50189">
        <ele>1500.4</ele>
        <time>2024-08-11T08:56:02Z</time>
      </trkpt>
      <trkpt lat="44.9713" lon="6.50189">
        <ele>1500.4</ele>
        <time>2024-08-11T08:56:03Z</time>
      </trkpt>
      <trkpt lat="44.9713" lon="6.50185">
        <ele>1500.6</ele>
        <time>2024-08-11T08:56:04Z</time>
      </trkpt>
      <trkpt lat="44.9713" lon="6.50185">
        <ele>1500.6</ele>
        <time>2024-08-11T08:56:05Z</time>
      </trkpt>
      <trkpt lat="44.97129" lon="6.50182">
        <ele>1500.8</ele>
        <time>2024-08-11T08:56:06Z</time>
      </trkpt>
      <trkpt lat="44.97129" lon="6.50182">
        <ele>1500.8</ele>
        <time>2024-08-11T08:56:07Z</time>
      </trkpt>
      <trkpt lat="44.97128" lon="6.50179">
        <ele>1501</ele>
        <time>2024-08-11T08:56:08Z</time>
      </trkpt>
      <trkpt lat="44.97128" lon="6.50179">
        <ele>1501</ele>
        <time>2024-08-11T08:56:09Z</time>
      </trkpt>
      <trkpt lat="44.97127" lon="6.50175">
        <ele>1501</ele>
        <time>2024-08-11T08:56:10Z</time>
      </trkpt>
      <trkpt lat="44.97127" lon="6.50175">
        <ele>1501.2</ele>
        <time>2024-08-11T08:56:11Z</time>
      </trkpt>
      <trkpt lat="44.97126" lon="6.50172">
        <ele>1501.4</ele>
        <time>2024-08-11T08:56:12Z</time>
      </trkpt>
      <trkpt lat="44.97126" lon="6.50172">
        <ele>1501.4</ele>
        <time>2024-08-11T08:56:13Z</time>
      </trkpt>
      <trkpt lat="44.97125" lon="6.50168">
        <ele>1501.4</ele>
        <time>2024-08-11T08:56:14Z</time>
      </trkpt>
      <trkpt lat="44.97125" lon="6.50168">
        <ele>1501.6</ele>
        <time>2024-08-11T08:56:15Z</time>
      </trkpt>
      <trkpt lat="44.97125" lon="6.50165">
        <ele>1501.6</ele>
        <time>2024-08-11T08:56:16Z</time>
      </trkpt>
      <trkpt lat="44.97125" lon="6.50165">
        <ele>1501.8</ele>
        <time>2024-08-11T08:56:17Z</time>
      </trkpt>
      <trkpt lat="44.97125" lon="6.50162">
        <ele>1502</ele>
        <time>2024-08-11T08:56:18Z</time>
      </trkpt>
      <trkpt lat="44.97125" lon="6.50162">
        <ele>1502</ele>
        <time>2024-08-11T08:56:19Z</time>
      </trkpt>
      <trkpt lat="44.97126" lon="6.50158">
        <ele>1502.2</ele>
        <time>2024-08-11T08:56:20Z</time>
      </trkpt>
      <trkpt lat="44.97126" lon="6.50158">
        <ele>1502.2</ele>
        <time>2024-08-11T08:56:21Z</time>
      </trkpt>
      <trkpt lat="44.97125" lon="6.50155">
        <ele>1502.4</ele>
        <time>2024-08-11T08:56:22Z</time>
      </trkpt>
      <trkpt lat="44.97125" lon="6.50155">
        <ele>1502.6</ele>
        <time>2024-08-11T08:56:23Z</time>
      </trkpt>
      <trkpt lat="44.97125" lon="6.50152">
        <ele>1502.6</ele>
        <time>2024-08-11T08:56:24Z</time>
      </trkpt>
      <trkpt lat="44.97125" lon="6.50152">
        <ele>1502.6</ele>
        <time>2024-08-11T08:56:25Z</time>
      </trkpt>
      <trkpt lat="44.97124" lon="6.50148">
        <ele>1503</ele>
        <time>2024-08-11T08:56:26Z</time>
      </trkpt>
      <trkpt lat="44.97124" lon="6.50148">
        <ele>1503</ele>
        <time>2024-08-11T08:56:27Z</time>
      </trkpt>
      <trkpt lat="44.97123" lon="6.50145">
        <ele>1503.2</ele>
        <time>2024-08-11T08:56:28Z</time>
      </trkpt>
      <trkpt lat="44.97123" lon="6.50145">
        <ele>1503.4</ele>
        <time>2024-08-11T08:56:29Z</time>
      </trkpt>
      <trkpt lat="44.97123" lon="6.50145">
        <ele>1503.8</ele>
        <time>2024-08-11T08:56:30Z</time>
      </trkpt>
      <trkpt lat="44.97121" lon="6.50141">
        <ele>1504</ele>
        <time>2024-08-11T08:56:31Z</time>
      </trkpt>
      <trkpt lat="44.97121" lon="6.50139">
        <ele>1504</ele>
        <time>2024-08-11T08:56:32Z</time>
      </trkpt>
      <trkpt lat="44.97121" lon="6.50139">
        <ele>1504</ele>
        <time>2024-08-11T08:56:33Z</time>
      </trkpt>
      <trkpt lat="44.9712" lon="6.50136">
        <ele>1504</ele>
        <time>2024-08-11T08:56:34Z</time>
      </trkpt>
      <trkpt lat="44.9712" lon="6.50136">
        <ele>1504</ele>
        <time>2024-08-11T08:56:35Z</time>
      </trkpt>
      <trkpt lat="44.97119" lon="6.50133">
        <ele>1504</ele>
        <time>2024-08-11T08:56:36Z</time>
      </trkpt>
      <trkpt lat="44.97119" lon="6.50133">
        <ele>1504.2</ele>
        <time>2024-08-11T08:56:37Z</time>
      </trkpt>
      <trkpt lat="44.97117" lon="6.5013">
        <ele>1504.6</ele>
        <time>2024-08-11T08:56:38Z</time>
      </trkpt>
      <trkpt lat="44.97117" lon="6.5013">
        <ele>1505.2</ele>
        <time>2024-08-11T08:56:39Z</time>
      </trkpt>
      <trkpt lat="44.97116" lon="6.50127">
        <ele>1505.2</ele>
        <time>2024-08-11T08:56:40Z</time>
      </trkpt>
      <trkpt lat="44.97116" lon="6.50127">
        <ele>1504.8</ele>
        <time>2024-08-11T08:56:41Z</time>
      </trkpt>
      <trkpt lat="44.97114" lon="6.50125">
        <ele>1504.8</ele>
        <time>2024-08-11T08:56:42Z</time>
      </trkpt>
      <trkpt lat="44.97114" lon="6.50125">
        <ele>1504.8</ele>
        <time>2024-08-11T08:56:43Z</time>
      </trkpt>
      <trkpt lat="44.97111" lon="6.50123">
        <ele>1504.8</ele>
        <time>2024-08-11T08:56:44Z</time>
      </trkpt>
      <trkpt lat="44.97111" lon="6.50123">
        <ele>1504.8</ele>
        <time>2024-08-11T08:56:45Z</time>
      </trkpt>
      <trkpt lat="44.9711" lon="6.50121">
        <ele>1505.2</ele>
        <time>2024-08-11T08:56:46Z</time>
      </trkpt>
      <trkpt lat="44.9711" lon="6.50121">
        <ele>1505.4</ele>
        <time>2024-08-11T08:56:47Z</time>
      </trkpt>
      <trkpt lat="44.97108" lon="6.50118">
        <ele>1505.6</ele>
        <time>2024-08-11T08:56:48Z</time>
      </trkpt>
      <trkpt lat="44.97108" lon="6.50118">
        <ele>1505.8</ele>
        <time>2024-08-11T08:56:49Z</time>
      </trkpt>
      <trkpt lat="44.97107" lon="6.50115">
        <ele>1505.8</ele>
        <time>2024-08-11T08:56:50Z</time>
      </trkpt>
      <trkpt lat="44.97107" lon="6.50115">
        <ele>1506</ele>
        <time>2024-08-11T08:56:51Z</time>
      </trkpt>
      <trkpt lat="44.97105" lon="6.50112">
        <ele>1506.2</ele>
        <time>2024-08-11T08:56:52Z</time>
      </trkpt>
      <trkpt lat="44.97105" lon="6.50112">
        <ele>1506.4</ele>
        <time>2024-08-11T08:56:53Z</time>
      </trkpt>
      <trkpt lat="44.97103" lon="6.50109">
        <ele>1506.4</ele>
        <time>2024-08-11T08:56:54Z</time>
      </trkpt>
      <trkpt lat="44.97103" lon="6.50109">
        <ele>1506.4</ele>
        <time>2024-08-11T08:56:55Z</time>
      </trkpt>
      <trkpt lat="44.97102" lon="6.50106">
        <ele>1506.4</ele>
        <time>2024-08-11T08:56:56Z</time>
      </trkpt>
      <trkpt lat="44.97102" lon="6.50106">
        <ele>1506.4</ele>
        <time>2024-08-11T08:56:57Z</time>
      </trkpt>
      <trkpt lat="44.97101" lon="6.50103">
        <ele>1506.4</ele>
        <time>2024-08-11T08:56:58Z</time>
      </trkpt>
      <trkpt lat="44.97101" lon="6.50103">
        <ele>1506.4</ele>
        <time>2024-08-11T08:56:59Z</time>
      </trkpt>
      <trkpt lat="44.97099" lon="6.50101">
        <ele>1507</ele>
        <time>2024-08-11T08:57:00Z</time>
      </trkpt>
      <trkpt lat="44.97099" lon="6.50101">
        <ele>1507</ele>
        <time>2024-08-11T08:57:01Z</time>
      </trkpt>
      <trkpt lat="44.97098" lon="6.50099">
        <ele>1507.4</ele>
        <time>2024-08-11T08:57:02Z</time>
      </trkpt>
      <trkpt lat="44.97098" lon="6.50099">
        <ele>1507.4</ele>
        <time>2024-08-11T08:57:03Z</time>
      </trkpt>
      <trkpt lat="44.97097" lon="6.50096">
        <ele>1507.6</ele>
        <time>2024-08-11T08:57:04Z</time>
      </trkpt>
      <trkpt lat="44.97097" lon="6.50096">
        <ele>1507.6</ele>
        <time>2024-08-11T08:57:05Z</time>
      </trkpt>
      <trkpt lat="44.97096" lon="6.50093">
        <ele>1507.6</ele>
        <time>2024-08-11T08:57:06Z</time>
      </trkpt>
      <trkpt lat="44.97096" lon="6.50093">
        <ele>1507.6</ele>
        <time>2024-08-11T08:57:07Z</time>
      </trkpt>
      <trkpt lat="44.97095" lon="6.5009">
        <ele>1507.6</ele>
        <time>2024-08-11T08:57:08Z</time>
      </trkpt>
      <trkpt lat="44.97095" lon="6.5009">
        <ele>1507.6</ele>
        <time>2024-08-11T08:57:09Z</time>
      </trkpt>
      <trkpt lat="44.97095" lon="6.50087">
        <ele>1507.8</ele>
        <time>2024-08-11T08:57:10Z</time>
      </trkpt>
      <trkpt lat="44.97095" lon="6.50087">
        <ele>1508</ele>
        <time>2024-08-11T08:57:11Z</time>
      </trkpt>
      <trkpt lat="44.97094" lon="6.50083">
        <ele>1508</ele>
        <time>2024-08-11T08:57:12Z</time>
      </trkpt>
      <trkpt lat="44.97094" lon="6.50083">
        <ele>1508</ele>
        <time>2024-08-11T08:57:13Z</time>
      </trkpt>
      <trkpt lat="44.97093" lon="6.5008">
        <ele>1508.2</ele>
        <time>2024-08-11T08:57:14Z</time>
      </trkpt>
      <trkpt lat="44.97093" lon="6.5008">
        <ele>1508.2</ele>
        <time>2024-08-11T08:57:15Z</time>
      </trkpt>
      <trkpt lat="44.97093" lon="6.50076">
        <ele>1508.4</ele>
        <time>2024-08-11T08:57:16Z</time>
      </trkpt>
      <trkpt lat="44.97093" lon="6.50076">
        <ele>1508.8</ele>
        <time>2024-08-11T08:57:17Z</time>
      </trkpt>
      <trkpt lat="44.97093" lon="6.50073">
        <ele>1508.8</ele>
        <time>2024-08-11T08:57:18Z</time>
      </trkpt>
      <trkpt lat="44.97093" lon="6.50073">
        <ele>1508.8</ele>
        <time>2024-08-11T08:57:19Z</time>
      </trkpt>
      <trkpt lat="44.97092" lon="6.5007">
        <ele>1509</ele>
        <time>2024-08-11T08:57:20Z</time>
      </trkpt>
      <trkpt lat="44.97092" lon="6.5007">
        <ele>1509</ele>
        <time>2024-08-11T08:57:21Z</time>
      </trkpt>
      <trkpt lat="44.97091" lon="6.50066">
        <ele>1509.2</ele>
        <time>2024-08-11T08:57:22Z</time>
      </trkpt>
      <trkpt lat="44.97091" lon="6.50066">
        <ele>1509.2</ele>
        <time>2024-08-11T08:57:23Z</time>
      </trkpt>
      <trkpt lat="44.9709" lon="6.50063">
        <ele>1509.4</ele>
        <time>2024-08-11T08:57:24Z</time>
      </trkpt>
      <trkpt lat="44.9709" lon="6.50063">
        <ele>1509.6</ele>
        <time>2024-08-11T08:57:25Z</time>
      </trkpt>
      <trkpt lat="44.97089" lon="6.5006">
        <ele>1509.8</ele>
        <time>2024-08-11T08:57:26Z</time>
      </trkpt>
      <trkpt lat="44.97089" lon="6.5006">
        <ele>1509.8</ele>
        <time>2024-08-11T08:57:27Z</time>
      </trkpt>
      <trkpt lat="44.97089" lon="6.50056">
        <ele>1510</ele>
        <time>2024-08-11T08:57:28Z</time>
      </trkpt>
      <trkpt lat="44.97089" lon="6.50056">
        <ele>1510</ele>
        <time>2024-08-11T08:57:29Z</time>
      </trkpt>
      <trkpt lat="44.97087" lon="6.50052">
        <ele>1510.2</ele>
        <time>2024-08-11T08:57:30Z</time>
      </trkpt>
      <trkpt lat="44.97087" lon="6.50052">
        <ele>1510.4</ele>
        <time>2024-08-11T08:57:31Z</time>
      </trkpt>
      <trkpt lat="44.97086" lon="6.50049">
        <ele>1510.4</ele>
        <time>2024-08-11T08:57:32Z</time>
      </trkpt>
      <trkpt lat="44.97086" lon="6.50049">
        <ele>1510.8</ele>
        <time>2024-08-11T08:57:33Z</time>
      </trkpt>
      <trkpt lat="44.97084" lon="6.50046">
        <ele>1511</ele>
        <time>2024-08-11T08:57:34Z</time>
      </trkpt>
      <trkpt lat="44.97084" lon="6.50046">
        <ele>1511.2</ele>
        <time>2024-08-11T08:57:35Z</time>
      </trkpt>
      <trkpt lat="44.97081" lon="6.50044">
        <ele>1511.4</ele>
        <time>2024-08-11T08:57:36Z</time>
      </trkpt>
      <trkpt lat="44.97081" lon="6.50044">
        <ele>1511.6</ele>
        <time>2024-08-11T08:57:37Z</time>
      </trkpt>
      <trkpt lat="44.97079" lon="6.50042">
        <ele>1511.6</ele>
        <time>2024-08-11T08:57:38Z</time>
      </trkpt>
      <trkpt lat="44.97079" lon="6.50042">
        <ele>1512</ele>
        <time>2024-08-11T08:57:39Z</time>
      </trkpt>
      <trkpt lat="44.97077" lon="6.5004">
        <ele>1512.2</ele>
        <time>2024-08-11T08:57:40Z</time>
      </trkpt>
      <trkpt lat="44.97077" lon="6.5004">
        <ele>1512.2</ele>
        <time>2024-08-11T08:57:41Z</time>
      </trkpt>
      <trkpt lat="44.97075" lon="6.50038">
        <ele>1512.4</ele>
        <time>2024-08-11T08:57:42Z</time>
      </trkpt>
      <trkpt lat="44.97075" lon="6.50038">
        <ele>1512.8</ele>
        <time>2024-08-11T08:57:43Z</time>
      </trkpt>
      <trkpt lat="44.97073" lon="6.50034">
        <ele>1512.8</ele>
        <time>2024-08-11T08:57:44Z</time>
      </trkpt>
      <trkpt lat="44.97073" lon="6.50034">
        <ele>1512.8</ele>
        <time>2024-08-11T08:57:45Z</time>
      </trkpt>
      <trkpt lat="44.97072" lon="6.50031">
        <ele>1512.8</ele>
        <time>2024-08-11T08:57:46Z</time>
      </trkpt>
      <trkpt lat="44.97072" lon="6.50031">
        <ele>1512.8</ele>
        <time>2024-08-11T08:57:47Z</time>
      </trkpt>
      <trkpt lat="44.97071" lon="6.50028">
        <ele>1512.8</ele>
        <time>2024-08-11T08:57:48Z</time>
      </trkpt>
      <trkpt lat="44.97071" lon="6.50028">
        <ele>1512.8</ele>
        <time>2024-08-11T08:57:49Z</time>
      </trkpt>
      <trkpt lat="44.9707" lon="6.50025">
        <ele>1513</ele>
        <time>2024-08-11T08:57:50Z</time>
      </trkpt>
      <trkpt lat="44.9707" lon="6.50025">
        <ele>1513.2</ele>
        <time>2024-08-11T08:57:51Z</time>
      </trkpt>
      <trkpt lat="44.97069" lon="6.50021">
        <ele>1513.2</ele>
        <time>2024-08-11T08:57:52Z</time>
      </trkpt>
      <trkpt lat="44.97069" lon="6.50021">
        <ele>1513.2</ele>
        <time>2024-08-11T08:57:53Z</time>
      </trkpt>
      <trkpt lat="44.97069" lon="6.50017">
        <ele>1513.4</ele>
        <time>2024-08-11T08:57:54Z</time>
      </trkpt>
      <trkpt lat="44.97069" lon="6.50017">
        <ele>1513.6</ele>
        <time>2024-08-11T08:57:55Z</time>
      </trkpt>
      <trkpt lat="44.97069" lon="6.50013">
        <ele>1513.8</ele>
        <time>2024-08-11T08:57:56Z</time>
      </trkpt>
      <trkpt lat="44.97069" lon="6.50013">
        <ele>1514</ele>
        <time>2024-08-11T08:57:57Z</time>
      </trkpt>
      <trkpt lat="44.97069" lon="6.50009">
        <ele>1514</ele>
        <time>2024-08-11T08:57:58Z</time>
      </trkpt>
      <trkpt lat="44.97069" lon="6.50009">
        <ele>1514</ele>
        <time>2024-08-11T08:57:59Z</time>
      </trkpt>
      <trkpt lat="44.97068" lon="6.50005">
        <ele>1514</ele>
        <time>2024-08-11T08:58:00Z</time>
      </trkpt>
      <trkpt lat="44.97068" lon="6.50005">
        <ele>1514.2</ele>
        <time>2024-08-11T08:58:01Z</time>
      </trkpt>
      <trkpt lat="44.97068" lon="6.5">
        <ele>1514</ele>
        <time>2024-08-11T08:58:02Z</time>
      </trkpt>
      <trkpt lat="44.97068" lon="6.5">
        <ele>1514</ele>
        <time>2024-08-11T08:58:03Z</time>
      </trkpt>
      <trkpt lat="44.97068" lon="6.49997">
        <ele>1514</ele>
        <time>2024-08-11T08:58:04Z</time>
      </trkpt>
      <trkpt lat="44.97068" lon="6.49997">
        <ele>1514.2</ele>
        <time>2024-08-11T08:58:05Z</time>
      </trkpt>
      <trkpt lat="44.97067" lon="6.49993">
        <ele>1514.4</ele>
        <time>2024-08-11T08:58:06Z</time>
      </trkpt>
      <trkpt lat="44.97067" lon="6.49993">
        <ele>1514.6</ele>
        <time>2024-08-11T08:58:07Z</time>
      </trkpt>
      <trkpt lat="44.97067" lon="6.49989">
        <ele>1514.6</ele>
        <time>2024-08-11T08:58:08Z</time>
      </trkpt>
      <trkpt lat="44.97067" lon="6.49989">
        <ele>1514.8</ele>
        <time>2024-08-11T08:58:09Z</time>
      </trkpt>
      <trkpt lat="44.97067" lon="6.49985">
        <ele>1514.8</ele>
        <time>2024-08-11T08:58:10Z</time>
      </trkpt>
      <trkpt lat="44.97067" lon="6.49985">
        <ele>1515.2</ele>
        <time>2024-08-11T08:58:11Z</time>
      </trkpt>
      <trkpt lat="44.97067" lon="6.49981">
        <ele>1515.2</ele>
        <time>2024-08-11T08:58:12Z</time>
      </trkpt>
      <trkpt lat="44.97067" lon="6.49981">
        <ele>1515.4</ele>
        <time>2024-08-11T08:58:13Z</time>
      </trkpt>
      <trkpt lat="44.97066" lon="6.49977">
        <ele>1515.8</ele>
        <time>2024-08-11T08:58:14Z</time>
      </trkpt>
      <trkpt lat="44.97066" lon="6.49977">
        <ele>1515.8</ele>
        <time>2024-08-11T08:58:15Z</time>
      </trkpt>
      <trkpt lat="44.97065" lon="6.49973">
        <ele>1515.6</ele>
        <time>2024-08-11T08:58:16Z</time>
      </trkpt>
      <trkpt lat="44.97065" lon="6.49973">
        <ele>1515.6</ele>
        <time>2024-08-11T08:58:17Z</time>
      </trkpt>
      <trkpt lat="44.97065" lon="6.49969">
        <ele>1515.8</ele>
        <time>2024-08-11T08:58:18Z</time>
      </trkpt>
      <trkpt lat="44.97065" lon="6.49969">
        <ele>1516</ele>
        <time>2024-08-11T08:58:19Z</time>
      </trkpt>
      <trkpt lat="44.97065" lon="6.49969">
        <ele>1516</ele>
        <time>2024-08-11T08:58:20Z</time>
      </trkpt>
      <trkpt lat="44.97065" lon="6.49967">
        <ele>1516.2</ele>
        <time>2024-08-11T08:58:21Z</time>
      </trkpt>
      <trkpt lat="44.97065" lon="6.49967">
        <ele>1516.4</ele>
        <time>2024-08-11T08:58:22Z</time>
      </trkpt>
      <trkpt lat="44.97065" lon="6.49967">
        <ele>1516.4</ele>
        <time>2024-08-11T08:58:23Z</time>
      </trkpt>
      <trkpt lat="44.97065" lon="6.49967">
        <ele>1516.6</ele>
        <time>2024-08-11T08:58:24Z</time>
      </trkpt>
      <trkpt lat="44.97065" lon="6.49967">
        <ele>1516.6</ele>
        <time>2024-08-11T08:58:25Z</time>
      </trkpt>
      <trkpt lat="44.97065" lon="6.49967">
        <ele>1516.8</ele>
        <time>2024-08-11T08:58:26Z</time>
      </trkpt>
      <trkpt lat="44.97063" lon="6.49965">
        <ele>1516.8</ele>
        <time>2024-08-11T08:58:27Z</time>
      </trkpt>
      <trkpt lat="44.97063" lon="6.49965">
        <ele>1516.6</ele>
        <time>2024-08-11T08:58:28Z</time>
      </trkpt>
      <trkpt lat="44.97063" lon="6.49965">
        <ele>1516.4</ele>
        <time>2024-08-11T08:58:29Z</time>
      </trkpt>
      <trkpt lat="44.97061" lon="6.49962">
        <ele>1516.4</ele>
        <time>2024-08-11T08:58:30Z</time>
      </trkpt>
      <trkpt lat="44.97061" lon="6.49962">
        <ele>1516.6</ele>
        <time>2024-08-11T08:58:31Z</time>
      </trkpt>
      <trkpt lat="44.97061" lon="6.49962">
        <ele>1516.8</ele>
        <time>2024-08-11T08:58:32Z</time>
      </trkpt>
      <trkpt lat="44.97061" lon="6.49962">
        <ele>1517.2</ele>
        <time>2024-08-11T08:58:33Z</time>
      </trkpt>
      <trkpt lat="44.97061" lon="6.49962">
        <ele>1517.6</ele>
        <time>2024-08-11T08:58:34Z</time>
      </trkpt>
      <trkpt lat="44.97061" lon="6.49959">
        <ele>1517.8</ele>
        <time>2024-08-11T08:58:35Z</time>
      </trkpt>
      <trkpt lat="44.97061" lon="6.49959">
        <ele>1518</ele>
        <time>2024-08-11T08:58:36Z</time>
      </trkpt>
      <trkpt lat="44.9706" lon="6.49956">
        <ele>1518</ele>
        <time>2024-08-11T08:58:37Z</time>
      </trkpt>
      <trkpt lat="44.9706" lon="6.49956">
        <ele>1518</ele>
        <time>2024-08-11T08:58:38Z</time>
      </trkpt>
      <trkpt lat="44.9706" lon="6.49956">
        <ele>1518</ele>
        <time>2024-08-11T08:58:39Z</time>
      </trkpt>
      <trkpt lat="44.97059" lon="6.49952">
        <ele>1518.4</ele>
        <time>2024-08-11T08:58:40Z</time>
      </trkpt>
      <trkpt lat="44.97059" lon="6.49951">
        <ele>1518.6</ele>
        <time>2024-08-11T08:58:41Z</time>
      </trkpt>
      <trkpt lat="44.97059" lon="6.49951">
        <ele>1518.8</ele>
        <time>2024-08-11T08:58:42Z</time>
      </trkpt>
      <trkpt lat="44.97059" lon="6.49951">
        <ele>1519</ele>
        <time>2024-08-11T08:58:43Z</time>
      </trkpt>
      <trkpt lat="44.97056" lon="6.4995">
        <ele>1519</ele>
        <time>2024-08-11T08:58:44Z</time>
      </trkpt>
      <trkpt lat="44.97056" lon="6.4995">
        <ele>1519.2</ele>
        <time>2024-08-11T08:58:45Z</time>
      </trkpt>
      <trkpt lat="44.97054" lon="6.49949">
        <ele>1519.2</ele>
        <time>2024-08-11T08:58:46Z</time>
      </trkpt>
      <trkpt lat="44.97054" lon="6.49949">
        <ele>1519.4</ele>
        <time>2024-08-11T08:58:47Z</time>
      </trkpt>
      <trkpt lat="44.97051" lon="6.4995">
        <ele>1519.4</ele>
        <time>2024-08-11T08:58:48Z</time>
      </trkpt>
      <trkpt lat="44.97051" lon="6.4995">
        <ele>1519.4</ele>
        <time>2024-08-11T08:58:49Z</time>
      </trkpt>
      <trkpt lat="44.97051" lon="6.4995">
        <ele>1519.6</ele>
        <time>2024-08-11T08:58:50Z</time>
      </trkpt>
      <trkpt lat="44.97049" lon="6.49951">
        <ele>1519.6</ele>
        <time>2024-08-11T08:58:51Z</time>
      </trkpt>
      <trkpt lat="44.97049" lon="6.49951">
        <ele>1519.6</ele>
        <time>2024-08-11T08:58:52Z</time>
      </trkpt>
      <trkpt lat="44.97049" lon="6.49951">
        <ele>1519.8</ele>
        <time>2024-08-11T08:58:53Z</time>
      </trkpt>
      <trkpt lat="44.97049" lon="6.49951">
        <ele>1520</ele>
        <time>2024-08-11T08:58:54Z</time>
      </trkpt>
      <trkpt lat="44.97049" lon="6.49951">
        <ele>1520</ele>
        <time>2024-08-11T08:58:55Z</time>
      </trkpt>
      <trkpt lat="44.97047" lon="6.49952">
        <ele>1520</ele>
        <time>2024-08-11T08:58:56Z</time>
      </trkpt>
      <trkpt lat="44.97047" lon="6.49952">
        <ele>1520</ele>
        <time>2024-08-11T08:58:57Z</time>
      </trkpt>
      <trkpt lat="44.97047" lon="6.49952">
        <ele>1520</ele>
        <time>2024-08-11T08:58:58Z</time>
      </trkpt>
      <trkpt lat="44.97045" lon="6.49951">
        <ele>1520</ele>
        <time>2024-08-11T08:58:59Z</time>
      </trkpt>
      <trkpt lat="44.97045" lon="6.49951">
        <ele>1520.2</ele>
        <time>2024-08-11T08:59:00Z</time>
      </trkpt>
      <trkpt lat="44.97045" lon="6.49951">
        <ele>1520.2</ele>
        <time>2024-08-11T08:59:01Z</time>
      </trkpt>
      <trkpt lat="44.97045" lon="6.49951">
        <ele>1520.4</ele>
        <time>2024-08-11T08:59:02Z</time>
      </trkpt>
      <trkpt lat="44.97045" lon="6.49951">
        <ele>1520.4</ele>
        <time>2024-08-11T08:59:03Z</time>
      </trkpt>
      <trkpt lat="44.97045" lon="6.49951">
        <ele>1520.4</ele>
        <time>2024-08-11T08:59:04Z</time>
      </trkpt>
      <trkpt lat="44.97045" lon="6.49951">
        <ele>1520.4</ele>
        <time>2024-08-11T08:59:05Z</time>
      </trkpt>
      <trkpt lat="44.97045" lon="6.49951">
        <ele>1520.2</ele>
        <time>2024-08-11T08:59:06Z</time>
      </trkpt>
      <trkpt lat="44.97045" lon="6.49951">
        <ele>1520.2</ele>
        <time>2024-08-11T08:59:07Z</time>
      </trkpt>
      <trkpt lat="44.97045" lon="6.49948">
        <ele>1520.2</ele>
        <time>2024-08-11T08:59:08Z</time>
      </trkpt>
      <trkpt lat="44.97045" lon="6.49948">
        <ele>1520.2</ele>
        <time>2024-08-11T08:59:09Z</time>
      </trkpt>
      <trkpt lat="44.97045" lon="6.49948">
        <ele>1520.2</ele>
        <time>2024-08-11T08:59:10Z</time>
      </trkpt>
      <trkpt lat="44.97045" lon="6.49948">
        <ele>1520.2</ele>
        <time>2024-08-11T08:59:11Z</time>
      </trkpt>
      <trkpt lat="44.97045" lon="6.49948">
        <ele>1520.4</ele>
        <time>2024-08-11T08:59:12Z</time>
      </trkpt>
      <trkpt lat="44.97045" lon="6.49948">
        <ele>1520.4</ele>
        <time>2024-08-11T08:59:13Z</time>
      </trkpt>
      <trkpt lat="44.97045" lon="6.49948">
        <ele>1520.4</ele>
        <time>2024-08-11T08:59:14Z</time>
      </trkpt>
      <trkpt lat="44.97045" lon="6.49948">
        <ele>1520.4</ele>
        <time>2024-08-11T08:59:15Z</time>
      </trkpt>
      <trkpt lat="44.97045" lon="6.49948">
        <ele>1520.6</ele>
        <time>2024-08-11T08:59:16Z</time>
      </trkpt>
      <trkpt lat="44.97045" lon="6.49948">
        <ele>1520.6</ele>
        <time>2024-08-11T08:59:17Z</time>
      </trkpt>
      <trkpt lat="44.97045" lon="6.49948">
        <ele>1520.4</ele>
        <time>2024-08-11T08:59:18Z</time>
      </trkpt>
      <trkpt lat="44.97045" lon="6.49948">
        <ele>1520.4</ele>
        <time>2024-08-11T08:59:19Z</time>
      </trkpt>
      <trkpt lat="44.97045" lon="6.49948">
        <ele>1520.8</ele>
        <time>2024-08-11T08:59:20Z</time>
      </trkpt>
      <trkpt lat="44.97045" lon="6.49948">
        <ele>1520.8</ele>
        <time>2024-08-11T08:59:21Z</time>
      </trkpt>
      <trkpt lat="44.97045" lon="6.49948">
        <ele>1520.8</ele>
        <time>2024-08-11T08:59:22Z</time>
      </trkpt>
      <trkpt lat="44.97045" lon="6.49948">
        <ele>1521</ele>
        <time>2024-08-11T08:59:23Z</time>
      </trkpt>
      <trkpt lat="44.97045" lon="6.49948">
        <ele>1521</ele>
        <time>2024-08-11T08:59:24Z</time>
      </trkpt>
      <trkpt lat="44.97043" lon="6.49945">
        <ele>1520.8</ele>
        <time>2024-08-11T08:59:25Z</time>
      </trkpt>
      <trkpt lat="44.97043" lon="6.49945">
        <ele>1520.8</ele>
        <time>2024-08-11T08:59:26Z</time>
      </trkpt>
      <trkpt lat="44.97043" lon="6.49945">
        <ele>1520.8</ele>
        <time>2024-08-11T08:59:27Z</time>
      </trkpt>
      <trkpt lat="44.97043" lon="6.49945">
        <ele>1520.6</ele>
        <time>2024-08-11T08:59:28Z</time>
      </trkpt>
      <trkpt lat="44.97043" lon="6.49945">
        <ele>1520.8</ele>
        <time>2024-08-11T08:59:29Z</time>
      </trkpt>
      <trkpt lat="44.97043" lon="6.49945">
        <ele>1520.8</ele>
        <time>2024-08-11T08:59:30Z</time>
      </trkpt>
      <trkpt lat="44.97043" lon="6.49945">
        <ele>1521</ele>
        <time>2024-08-11T08:59:31Z</time>
      </trkpt>
      <trkpt lat="44.97043" lon="6.49945">
        <ele>1521</ele>
        <time>2024-08-11T08:59:32Z</time>
      </trkpt>
      <trkpt lat="44.97043" lon="6.49945">
        <ele>1521</ele>
        <time>2024-08-11T08:59:33Z</time>
      </trkpt>
      <trkpt lat="44.97043" lon="6.49945">
        <ele>1521</ele>
        <time>2024-08-11T08:59:34Z</time>
      </trkpt>
      <trkpt lat="44.97043" lon="6.49945">
        <ele>1521</ele>
        <time>2024-08-11T08:59:35Z</time>
      </trkpt>
      <trkpt lat="44.97043" lon="6.49945">
        <ele>1521.4</ele>
        <time>2024-08-11T08:59:36Z</time>
      </trkpt>
      <trkpt lat="44.97043" lon="6.49945">
        <ele>1521.4</ele>
        <time>2024-08-11T08:59:37Z</time>
      </trkpt>
      <trkpt lat="44.97043" lon="6.49945">
        <ele>1521.2</ele>
        <time>2024-08-11T08:59:38Z</time>
      </trkpt>
      <trkpt lat="44.97043" lon="6.49945">
        <ele>1521</ele>
        <time>2024-08-11T08:59:39Z</time>
      </trkpt>
      <trkpt lat="44.97043" lon="6.49945">
        <ele>1521</ele>
        <time>2024-08-11T08:59:40Z</time>
      </trkpt>
      <trkpt lat="44.97043" lon="6.49945">
        <ele>1521.2</ele>
        <time>2024-08-11T08:59:41Z</time>
      </trkpt>
      <trkpt lat="44.97043" lon="6.49945">
        <ele>1521.6</ele>
        <time>2024-08-11T08:59:42Z</time>
      </trkpt>
      <trkpt lat="44.97043" lon="6.49945">
        <ele>1521.6</ele>
        <time>2024-08-11T08:59:43Z</time>
      </trkpt>
      <trkpt lat="44.97043" lon="6.49945">
        <ele>1521.8</ele>
        <time>2024-08-11T08:59:44Z</time>
      </trkpt>
      <trkpt lat="44.97043" lon="6.49945">
        <ele>1521.8</ele>
        <time>2024-08-11T08:59:45Z</time>
      </trkpt>
      <trkpt lat="44.97043" lon="6.49945">
        <ele>1521.6</ele>
        <time>2024-08-11T08:59:46Z</time>
      </trkpt>
      <trkpt lat="44.97043" lon="6.49945">
        <ele>1521.2</ele>
        <time>2024-08-11T08:59:47Z</time>
      </trkpt>
      <trkpt lat="44.97043" lon="6.49945">
        <ele>1521.2</ele>
        <time>2024-08-11T08:59:48Z</time>
      </trkpt>
      <trkpt lat="44.97043" lon="6.49945">
        <ele>1521.2</ele>
        <time>2024-08-11T08:59:49Z</time>
      </trkpt>
      <trkpt lat="44.97043" lon="6.49945">
        <ele>1521.2</ele>
        <time>2024-08-11T08:59:50Z</time>
      </trkpt>
      <trkpt lat="44.97043" lon="6.49945">
        <ele>1521.4</ele>
        <time>2024-08-11T08:59:51Z</time>
      </trkpt>
      <trkpt lat="44.97043" lon="6.49945">
        <ele>1521.4</ele>
        <time>2024-08-11T08:59:52Z</time>
      </trkpt>
      <trkpt lat="44.97043" lon="6.49945">
        <ele>1521.4</ele>
        <time>2024-08-11T08:59:53Z</time>
      </trkpt>
      <trkpt lat="44.97043" lon="6.49945">
        <ele>1521.4</ele>
        <time>2024-08-11T08:59:54Z</time>
      </trkpt>
      <trkpt lat="44.97043" lon="6.49945">
        <ele>1521.4</ele>
        <time>2024-08-11T08:59:55Z</time>
      </trkpt>
      <trkpt lat="44.97043" lon="6.49945">
        <ele>1521.4</ele>
        <time>2024-08-11T08:59:56Z</time>
      </trkpt>
      <trkpt lat="44.97043" lon="6.49945">
        <ele>1521.4</ele>
        <time>2024-08-11T08:59:57Z</time>
      </trkpt>
      <trkpt lat="44.97043" lon="6.49945">
        <ele>1521.6</ele>
        <time>2024-08-11T08:59:58Z</time>
      </trkpt>
      <trkpt lat="44.97043" lon="6.49945">
        <ele>1521.6</ele>
        <time>2024-08-11T08:59:59Z</time>
      </trkpt>
      <trkpt lat="44.97043" lon="6.49945">
        <ele>1521.6</ele>
        <time>2024-08-11T09:00:00Z</time>
      </trkpt>
      <trkpt lat="44.97043" lon="6.49945">
        <ele>1521.6</ele>
        <time>2024-08-11T09:00:01Z</time>
      </trkpt>
      <trkpt lat="44.97043" lon="6.49945">
        <ele>1521.8</ele>
        <time>2024-08-11T09:00:02Z</time>
      </trkpt>
      <trkpt lat="44.97043" lon="6.49945">
        <ele>1521.8</ele>
        <time>2024-08-11T09:00:03Z</time>
      </trkpt>
      <trkpt lat="44.97043" lon="6.49945">
        <ele>1521.8</ele>
        <time>2024-08-11T09:00:04Z</time>
      </trkpt>
      <trkpt lat="44.97043" lon="6.49945">
        <ele>1521.8</ele>
        <time>2024-08-11T09:00:05Z</time>
      </trkpt>
      <trkpt lat="44.97043" lon="6.49945">
        <ele>1521.8</ele>
        <time>2024-08-11T09:00:06Z</time>
      </trkpt>
      <trkpt lat="44.97043" lon="6.49945">
        <ele>1521.8</ele>
        <time>2024-08-11T09:00:07Z</time>
      </trkpt>
      <trkpt lat="44.97043" lon="6.49945">
        <ele>1521.8</ele>
        <time>2024-08-11T09:00:08Z</time>
      </trkpt>
      <trkpt lat="44.97043" lon="6.49945">
        <ele>1521.6</ele>
        <time>2024-08-11T09:00:09Z</time>
      </trkpt>
      <trkpt lat="44.97043" lon="6.49945">
        <ele>1521.4</ele>
        <time>2024-08-11T09:00:10Z</time>
      </trkpt>
      <trkpt lat="44.97043" lon="6.49945">
        <ele>1521.2</ele>
        <time>2024-08-11T09:00:11Z</time>
      </trkpt>
      <trkpt lat="44.97043" lon="6.49945">
        <ele>1521.2</ele>
        <time>2024-08-11T09:00:12Z</time>
      </trkpt>
      <trkpt lat="44.97043" lon="6.49945">
        <ele>1521</ele>
        <time>2024-08-11T09:00:13Z</time>
      </trkpt>
      <trkpt lat="44.97043" lon="6.49945">
        <ele>1521.2</ele>
        <time>2024-08-11T09:00:14Z</time>
      </trkpt>
      <trkpt lat="44.97041" lon="6.49943">
        <ele>1521.4</ele>
        <time>2024-08-11T09:00:15Z</time>
      </trkpt>
      <trkpt lat="44.97041" lon="6.49943">
        <ele>1521.4</ele>
        <time>2024-08-11T09:00:16Z</time>
      </trkpt>
      <trkpt lat="44.97041" lon="6.49943">
        <ele>1521.4</ele>
        <time>2024-08-11T09:00:17Z</time>
      </trkpt>
      <trkpt lat="44.97041" lon="6.49943">
        <ele>1522</ele>
        <time>2024-08-11T09:00:18Z</time>
      </trkpt>
      <trkpt lat="44.97041" lon="6.49943">
        <ele>1522</ele>
        <time>2024-08-11T09:00:19Z</time>
      </trkpt>
      <trkpt lat="44.97041" lon="6.49943">
        <ele>1522</ele>
        <time>2024-08-11T09:00:20Z</time>
      </trkpt>
      <trkpt lat="44.97041" lon="6.49943">
        <ele>1522</ele>
        <time>2024-08-11T09:00:21Z</time>
      </trkpt>
      <trkpt lat="44.97041" lon="6.49943">
        <ele>1522</ele>
        <time>2024-08-11T09:00:22Z</time>
      </trkpt>
      <trkpt lat="44.97041" lon="6.49943">
        <ele>1522</ele>
        <time>2024-08-11T09:00:23Z</time>
      </trkpt>
      <trkpt lat="44.97041" lon="6.49943">
        <ele>1522</ele>
        <time>2024-08-11T09:00:24Z</time>
      </trkpt>
      <trkpt lat="44.97041" lon="6.49943">
        <ele>1522</ele>
        <time>2024-08-11T09:00:25Z</time>
      </trkpt>
      <trkpt lat="44.97041" lon="6.49943">
        <ele>1521.6</ele>
        <time>2024-08-11T09:00:26Z</time>
      </trkpt>
      <trkpt lat="44.97041" lon="6.49943">
        <ele>1521.6</ele>
        <time>2024-08-11T09:00:27Z</time>
      </trkpt>
      <trkpt lat="44.97041" lon="6.49943">
        <ele>1521.4</ele>
        <time>2024-08-11T09:00:28Z</time>
      </trkpt>
      <trkpt lat="44.97041" lon="6.49943">
        <ele>1521.4</ele>
        <time>2024-08-11T09:00:29Z</time>
      </trkpt>
      <trkpt lat="44.97041" lon="6.49943">
        <ele>1521</ele>
        <time>2024-08-11T09:00:30Z</time>
      </trkpt>
      <trkpt lat="44.97041" lon="6.49943">
        <ele>1521</ele>
        <time>2024-08-11T09:00:31Z</time>
      </trkpt>
      <trkpt lat="44.97041" lon="6.49943">
        <ele>1521</ele>
        <time>2024-08-11T09:00:32Z</time>
      </trkpt>
      <trkpt lat="44.97041" lon="6.49943">
        <ele>1521</ele>
        <time>2024-08-11T09:00:33Z</time>
      </trkpt>
      <trkpt lat="44.97041" lon="6.49943">
        <ele>1521</ele>
        <time>2024-08-11T09:00:34Z</time>
      </trkpt>
      <trkpt lat="44.97041" lon="6.49943">
        <ele>1521</ele>
        <time>2024-08-11T09:00:35Z</time>
      </trkpt>
      <trkpt lat="44.97041" lon="6.49943">
        <ele>1521</ele>
        <time>2024-08-11T09:00:36Z</time>
      </trkpt>
      <trkpt lat="44.97041" lon="6.49943">
        <ele>1520.8</ele>
        <time>2024-08-11T09:00:37Z</time>
      </trkpt>
      <trkpt lat="44.97041" lon="6.49943">
        <ele>1520.6</ele>
        <time>2024-08-11T09:00:38Z</time>
      </trkpt>
      <trkpt lat="44.97041" lon="6.49943">
        <ele>1520.6</ele>
        <time>2024-08-11T09:00:39Z</time>
      </trkpt>
      <trkpt lat="44.97041" lon="6.49943">
        <ele>1520.6</ele>
        <time>2024-08-11T09:00:40Z</time>
      </trkpt>
      <trkpt lat="44.97041" lon="6.49943">
        <ele>1520.6</ele>
        <time>2024-08-11T09:00:41Z</time>
      </trkpt>
      <trkpt lat="44.97041" lon="6.49943">
        <ele>1520.6</ele>
        <time>2024-08-11T09:00:42Z</time>
      </trkpt>
      <trkpt lat="44.97041" lon="6.49943">
        <ele>1521</ele>
        <time>2024-08-11T09:00:43Z</time>
      </trkpt>
      <trkpt lat="44.97041" lon="6.49943">
        <ele>1521</ele>
        <time>2024-08-11T09:00:44Z</time>
      </trkpt>
      <trkpt lat="44.97041" lon="6.49943">
        <ele>1521</ele>
        <time>2024-08-11T09:00:45Z</time>
      </trkpt>
      <trkpt lat="44.97041" lon="6.49943">
        <ele>1521</ele>
        <time>2024-08-11T09:00:46Z</time>
      </trkpt>
      <trkpt lat="44.97041" lon="6.49943">
        <ele>1520.8</ele>
        <time>2024-08-11T09:00:47Z</time>
      </trkpt>
      <trkpt lat="44.97041" lon="6.49943">
        <ele>1520.8</ele>
        <time>2024-08-11T09:00:48Z</time>
      </trkpt>
      <trkpt lat="44.97041" lon="6.49943">
        <ele>1520.8</ele>
        <time>2024-08-11T09:00:49Z</time>
      </trkpt>
      <trkpt lat="44.97041" lon="6.49943">
        <ele>1520.8</ele>
        <time>2024-08-11T09:00:50Z</time>
      </trkpt>
      <trkpt lat="44.97041" lon="6.49943">
        <ele>1520.8</ele>
        <time>2024-08-11T09:00:51Z</time>
      </trkpt>
      <trkpt lat="44.97041" lon="6.49943">
        <ele>1520.8</ele>
        <time>2024-08-11T09:00:52Z</time>
      </trkpt>
      <trkpt lat="44.97041" lon="6.49943">
        <ele>1520.8</ele>
        <time>2024-08-11T09:00:53Z</time>
      </trkpt>
      <trkpt lat="44.97041" lon="6.49943">
        <ele>1520.8</ele>
        <time>2024-08-11T09:00:54Z</time>
      </trkpt>
      <trkpt lat="44.97041" lon="6.49943">
        <ele>1520.8</ele>
        <time>2024-08-11T09:00:55Z</time>
      </trkpt>
      <trkpt lat="44.97041" lon="6.49943">
        <ele>1520.8</ele>
        <time>2024-08-11T09:00:56Z</time>
      </trkpt>
      <trkpt lat="44.97041" lon="6.49943">
        <ele>1520.8</ele>
        <time>2024-08-11T09:00:57Z</time>
      </trkpt>
      <trkpt lat="44.97041" lon="6.49943">
        <ele>1520.8</ele>
        <time>2024-08-11T09:00:58Z</time>
      </trkpt>
      <trkpt lat="44.97041" lon="6.49943">
        <ele>1520.6</ele>
        <time>2024-08-11T09:00:59Z</time>
      </trkpt>
      <trkpt lat="44.97041" lon="6.49943">
        <ele>1520.6</ele>
        <time>2024-08-11T09:01:00Z</time>
      </trkpt>
      <trkpt lat="44.97041" lon="6.49943">
        <ele>1520.6</ele>
        <time>2024-08-11T09:01:01Z</time>
      </trkpt>
      <trkpt lat="44.97041" lon="6.49943">
        <ele>1520.6</ele>
        <time>2024-08-11T09:01:02Z</time>
      </trkpt>
      <trkpt lat="44.97041" lon="6.49943">
        <ele>1520.6</ele>
        <time>2024-08-11T09:01:03Z</time>
      </trkpt>
      <trkpt lat="44.97041" lon="6.49943">
        <ele>1520.6</ele>
        <time>2024-08-11T09:01:04Z</time>
      </trkpt>
      <trkpt lat="44.97041" lon="6.49943">
        <ele>1520.6</ele>
        <time>2024-08-11T09:01:05Z</time>
      </trkpt>
      <trkpt lat="44.97041" lon="6.49943">
        <ele>1520.6</ele>
        <time>2024-08-11T09:01:06Z</time>
      </trkpt>
      <trkpt lat="44.97041" lon="6.49943">
        <ele>1520.8</ele>
        <time>2024-08-11T09:01:07Z</time>
      </trkpt>
      <trkpt lat="44.97041" lon="6.49943">
        <ele>1520.8</ele>
        <time>2024-08-11T09:01:08Z</time>
      </trkpt>
      <trkpt lat="44.97041" lon="6.49943">
        <ele>1520.8</ele>
        <time>2024-08-11T09:01:09Z</time>
      </trkpt>
      <trkpt lat="44.97041" lon="6.49943">
        <ele>1520.6</ele>
        <time>2024-08-11T09:01:10Z</time>
      </trkpt>
      <trkpt lat="44.97041" lon="6.49943">
        <ele>1520.6</ele>
        <time>2024-08-11T09:01:11Z</time>
      </trkpt>
      <trkpt lat="44.97041" lon="6.49943">
        <ele>1520.6</ele>
        <time>2024-08-11T09:01:12Z</time>
      </trkpt>
      <trkpt lat="44.97041" lon="6.49943">
        <ele>1520.6</ele>
        <time>2024-08-11T09:01:13Z</time>
      </trkpt>
      <trkpt lat="44.97041" lon="6.49943">
        <ele>1520.8</ele>
        <time>2024-08-11T09:01:14Z</time>
      </trkpt>
      <trkpt lat="44.97041" lon="6.49943">
        <ele>1520.8</ele>
        <time>2024-08-11T09:01:15Z</time>
      </trkpt>
      <trkpt lat="44.97041" lon="6.49943">
        <ele>1520.8</ele>
        <time>2024-08-11T09:01:16Z</time>
      </trkpt>
      <trkpt lat="44.97041" lon="6.49943">
        <ele>1520.8</ele>
        <time>2024-08-11T09:01:17Z</time>
      </trkpt>
      <trkpt lat="44.97041" lon="6.49943">
        <ele>1520.8</ele>
        <time>2024-08-11T09:01:18Z</time>
      </trkpt>
      <trkpt lat="44.97041" lon="6.49943">
        <ele>1520.6</ele>
        <time>2024-08-11T09:01:19Z</time>
      </trkpt>
      <trkpt lat="44.97041" lon="6.49943">
        <ele>1520.6</ele>
        <time>2024-08-11T09:01:20Z</time>
      </trkpt>
      <trkpt lat="44.97041" lon="6.49943">
        <ele>1520.6</ele>
        <time>2024-08-11T09:01:21Z</time>
      </trkpt>
      <trkpt lat="44.97041" lon="6.49943">
        <ele>1520.8</ele>
        <time>2024-08-11T09:01:22Z</time>
      </trkpt>
      <trkpt lat="44.97041" lon="6.49943">
        <ele>1520.8</ele>
        <time>2024-08-11T09:01:23Z</time>
      </trkpt>
      <trkpt lat="44.97041" lon="6.49943">
        <ele>1520.8</ele>
        <time>2024-08-11T09:01:24Z</time>
      </trkpt>
      <trkpt lat="44.97041" lon="6.49943">
        <ele>1520.8</ele>
        <time>2024-08-11T09:01:25Z</time>
      </trkpt>
      <trkpt lat="44.97041" lon="6.49943">
        <ele>1520.8</ele>
        <time>2024-08-11T09:01:26Z</time>
      </trkpt>
      <trkpt lat="44.97041" lon="6.49943">
        <ele>1520.8</ele>
        <time>2024-08-11T09:01:27Z</time>
      </trkpt>
      <trkpt lat="44.97041" lon="6.49943">
        <ele>1520.8</ele>
        <time>2024-08-11T09:01:28Z</time>
      </trkpt>
      <trkpt lat="44.97041" lon="6.49943">
        <ele>1520.8</ele>
        <time>2024-08-11T09:01:29Z</time>
      </trkpt>
      <trkpt lat="44.97041" lon="6.49943">
        <ele>1520.8</ele>
        <time>2024-08-11T09:01:30Z</time>
      </trkpt>
      <trkpt lat="44.97041" lon="6.49943">
        <ele>1520.8</ele>
        <time>2024-08-11T09:01:31Z</time>
      </trkpt>
      <trkpt lat="44.97041" lon="6.49943">
        <ele>1520.6</ele>
        <time>2024-08-11T09:01:32Z</time>
      </trkpt>
      <trkpt lat="44.97041" lon="6.49943">
        <ele>1520.6</ele>
        <time>2024-08-11T09:01:33Z</time>
      </trkpt>
      <trkpt lat="44.97041" lon="6.49943">
        <ele>1520.6</ele>
        <time>2024-08-11T09:01:34Z</time>
      </trkpt>
      <trkpt lat="44.97041" lon="6.49943">
        <ele>1520.6</ele>
        <time>2024-08-11T09:01:35Z</time>
      </trkpt>
      <trkpt lat="44.97041" lon="6.49943">
        <ele>1520.8</ele>
        <time>2024-08-11T09:01:36Z</time>
      </trkpt>
      <trkpt lat="44.97041" lon="6.49943">
        <ele>1521</ele>
        <time>2024-08-11T09:01:37Z</time>
      </trkpt>
      <trkpt lat="44.97041" lon="6.49943">
        <ele>1521</ele>
        <time>2024-08-11T09:01:38Z</time>
      </trkpt>
      <trkpt lat="44.97041" lon="6.49943">
        <ele>1520.8</ele>
        <time>2024-08-11T09:01:39Z</time>
      </trkpt>
      <trkpt lat="44.97041" lon="6.49943">
        <ele>1520.8</ele>
        <time>2024-08-11T09:01:40Z</time>
      </trkpt>
      <trkpt lat="44.97041" lon="6.49943">
        <ele>1520.6</ele>
        <time>2024-08-11T09:01:41Z</time>
      </trkpt>
      <trkpt lat="44.97041" lon="6.49943">
        <ele>1520.6</ele>
        <time>2024-08-11T09:01:42Z</time>
      </trkpt>
      <trkpt lat="44.97041" lon="6.49943">
        <ele>1520.6</ele>
        <time>2024-08-11T09:01:43Z</time>
      </trkpt>
      <trkpt lat="44.97041" lon="6.49943">
        <ele>1520.6</ele>
        <time>2024-08-11T09:01:44Z</time>
      </trkpt>
      <trkpt lat="44.97041" lon="6.49943">
        <ele>1520.6</ele>
        <time>2024-08-11T09:01:45Z</time>
      </trkpt>
      <trkpt lat="44.97041" lon="6.49943">
        <ele>1520.8</ele>
        <time>2024-08-11T09:01:46Z</time>
      </trkpt>
      <trkpt lat="44.97041" lon="6.49943">
        <ele>1520.6</ele>
        <time>2024-08-11T09:01:47Z</time>
      </trkpt>
      <trkpt lat="44.97041" lon="6.49943">
        <ele>1520.6</ele>
        <time>2024-08-11T09:01:48Z</time>
      </trkpt>
      <trkpt lat="44.97041" lon="6.49943">
        <ele>1520.6</ele>
        <time>2024-08-11T09:01:49Z</time>
      </trkpt>
      <trkpt lat="44.97041" lon="6.49943">
        <ele>1520.6</ele>
        <time>2024-08-11T09:01:50Z</time>
      </trkpt>
      <trkpt lat="44.97041" lon="6.49943">
        <ele>1520.6</ele>
        <time>2024-08-11T09:01:51Z</time>
      </trkpt>
      <trkpt lat="44.97041" lon="6.49943">
        <ele>1520.6</ele>
        <time>2024-08-11T09:01:52Z</time>
      </trkpt>
      <trkpt lat="44.97041" lon="6.49943">
        <ele>1520.8</ele>
        <time>2024-08-11T09:01:53Z</time>
      </trkpt>
      <trkpt lat="44.97041" lon="6.49943">
        <ele>1520.8</ele>
        <time>2024-08-11T09:01:54Z</time>
      </trkpt>
      <trkpt lat="44.97041" lon="6.49943">
        <ele>1520.4</ele>
        <time>2024-08-11T09:01:55Z</time>
      </trkpt>
      <trkpt lat="44.97041" lon="6.49943">
        <ele>1520.4</ele>
        <time>2024-08-11T09:01:56Z</time>
      </trkpt>
      <trkpt lat="44.97041" lon="6.49943">
        <ele>1520.6</ele>
        <time>2024-08-11T09:01:57Z</time>
      </trkpt>
      <trkpt lat="44.97041" lon="6.49943">
        <ele>1520.8</ele>
        <time>2024-08-11T09:01:58Z</time>
      </trkpt>
      <trkpt lat="44.97041" lon="6.49943">
        <ele>1520.6</ele>
        <time>2024-08-11T09:01:59Z</time>
      </trkpt>
      <trkpt lat="44.97041" lon="6.49943">
        <ele>1520.6</ele>
        <time>2024-08-11T09:02:00Z</time>
      </trkpt>
      <trkpt lat="44.97041" lon="6.49943">
        <ele>1520.6</ele>
        <time>2024-08-11T09:02:01Z</time>
      </trkpt>
      <trkpt lat="44.97041" lon="6.49943">
        <ele>1520.8</ele>
        <time>2024-08-11T09:02:02Z</time>
      </trkpt>
      <trkpt lat="44.97041" lon="6.49943">
        <ele>1520.8</ele>
        <time>2024-08-11T09:02:03Z</time>
      </trkpt>
      <trkpt lat="44.97041" lon="6.49943">
        <ele>1520.8</ele>
        <time>2024-08-11T09:02:04Z</time>
      </trkpt>
      <trkpt lat="44.97041" lon="6.49943">
        <ele>1521</ele>
        <time>2024-08-11T09:02:05Z</time>
      </trkpt>
      <trkpt lat="44.97041" lon="6.49943">
        <ele>1521</ele>
        <time>2024-08-11T09:02:06Z</time>
      </trkpt>
      <trkpt lat="44.97041" lon="6.49943">
        <ele>1520.8</ele>
        <time>2024-08-11T09:02:07Z</time>
      </trkpt>
      <trkpt lat="44.97041" lon="6.49943">
        <ele>1520.8</ele>
        <time>2024-08-11T09:02:08Z</time>
      </trkpt>
      <trkpt lat="44.97041" lon="6.49943">
        <ele>1520.8</ele>
        <time>2024-08-11T09:02:09Z</time>
      </trkpt>
      <trkpt lat="44.97041" lon="6.49943">
        <ele>1520.8</ele>
        <time>2024-08-11T09:02:10Z</time>
      </trkpt>
      <trkpt lat="44.97041" lon="6.49943">
        <ele>1520.8</ele>
        <time>2024-08-11T09:02:11Z</time>
      </trkpt>
      <trkpt lat="44.97041" lon="6.49943">
        <ele>1520.8</ele>
        <time>2024-08-11T09:02:12Z</time>
      </trkpt>
      <trkpt lat="44.97041" lon="6.49943">
        <ele>1520.8</ele>
        <time>2024-08-11T09:02:13Z</time>
      </trkpt>
      <trkpt lat="44.97041" lon="6.49943">
        <ele>1520.6</ele>
        <time>2024-08-11T09:02:14Z</time>
      </trkpt>
      <trkpt lat="44.97041" lon="6.49943">
        <ele>1520.6</ele>
        <time>2024-08-11T09:02:15Z</time>
      </trkpt>
      <trkpt lat="44.97041" lon="6.49943">
        <ele>1520.6</ele>
        <time>2024-08-11T09:02:16Z</time>
      </trkpt>
      <trkpt lat="44.97041" lon="6.49943">
        <ele>1520.8</ele>
        <time>2024-08-11T09:02:17Z</time>
      </trkpt>
      <trkpt lat="44.97041" lon="6.49943">
        <ele>1521</ele>
        <time>2024-08-11T09:02:18Z</time>
      </trkpt>
      <trkpt lat="44.97041" lon="6.49943">
        <ele>1521</ele>
        <time>2024-08-11T09:02:19Z</time>
      </trkpt>
      <trkpt lat="44.97041" lon="6.49943">
        <ele>1520.8</ele>
        <time>2024-08-11T09:02:20Z</time>
      </trkpt>
      <trkpt lat="44.97041" lon="6.49943">
        <ele>1520.8</ele>
        <time>2024-08-11T09:02:21Z</time>
      </trkpt>
      <trkpt lat="44.97041" lon="6.49943">
        <ele>1520.8</ele>
        <time>2024-08-11T09:02:22Z</time>
      </trkpt>
      <trkpt lat="44.97041" lon="6.49943">
        <ele>1520.8</ele>
        <time>2024-08-11T09:02:23Z</time>
      </trkpt>
      <trkpt lat="44.97041" lon="6.49943">
        <ele>1520.8</ele>
        <time>2024-08-11T09:02:24Z</time>
      </trkpt>
      <trkpt lat="44.97041" lon="6.49943">
        <ele>1520.8</ele>
        <time>2024-08-11T09:02:25Z</time>
      </trkpt>
      <trkpt lat="44.97041" lon="6.49943">
        <ele>1520.8</ele>
        <time>2024-08-11T09:02:26Z</time>
      </trkpt>
      <trkpt lat="44.97041" lon="6.49943">
        <ele>1520.8</ele>
        <time>2024-08-11T09:02:27Z</time>
      </trkpt>
      <trkpt lat="44.97041" lon="6.49943">
        <ele>1520.8</ele>
        <time>2024-08-11T09:02:28Z</time>
      </trkpt>
      <trkpt lat="44.97041" lon="6.49943">
        <ele>1520.8</ele>
        <time>2024-08-11T09:02:29Z</time>
      </trkpt>
      <trkpt lat="44.97041" lon="6.49943">
        <ele>1520.8</ele>
        <time>2024-08-11T09:02:30Z</time>
      </trkpt>
      <trkpt lat="44.97041" lon="6.49943">
        <ele>1520.8</ele>
        <time>2024-08-11T09:02:31Z</time>
      </trkpt>
      <trkpt lat="44.97041" lon="6.49943">
        <ele>1520.8</ele>
        <time>2024-08-11T09:02:32Z</time>
      </trkpt>
      <trkpt lat="44.97041" lon="6.49943">
        <ele>1520.6</ele>
        <time>2024-08-11T09:02:33Z</time>
      </trkpt>
      <trkpt lat="44.97041" lon="6.49943">
        <ele>1520.6</ele>
        <time>2024-08-11T09:02:34Z</time>
      </trkpt>
      <trkpt lat="44.97041" lon="6.49943">
        <ele>1520.8</ele>
        <time>2024-08-11T09:02:35Z</time>
      </trkpt>
      <trkpt lat="44.97041" lon="6.49943">
        <ele>1520.8</ele>
        <time>2024-08-11T09:02:36Z</time>
      </trkpt>
      <trkpt lat="44.97041" lon="6.49943">
        <ele>1520.6</ele>
        <time>2024-08-11T09:02:37Z</time>
      </trkpt>
      <trkpt lat="44.97041" lon="6.49943">
        <ele>1520.6</ele>
        <time>2024-08-11T09:02:38Z</time>
      </trkpt>
      <trkpt lat="44.97041" lon="6.49943">
        <ele>1520.6</ele>
        <time>2024-08-11T09:02:39Z</time>
      </trkpt>
      <trkpt lat="44.97041" lon="6.49943">
        <ele>1520.8</ele>
        <time>2024-08-11T09:02:40Z</time>
      </trkpt>
      <trkpt lat="44.97041" lon="6.49943">
        <ele>1520.8</ele>
        <time>2024-08-11T09:02:41Z</time>
      </trkpt>
      <trkpt lat="44.97041" lon="6.49943">
        <ele>1520.8</ele>
        <time>2024-08-11T09:02:42Z</time>
      </trkpt>
      <trkpt lat="44.97041" lon="6.49943">
        <ele>1520.8</ele>
        <time>2024-08-11T09:02:43Z</time>
      </trkpt>
      <trkpt lat="44.97041" lon="6.49943">
        <ele>1520.8</ele>
        <time>2024-08-11T09:02:44Z</time>
      </trkpt>
      <trkpt lat="44.97041" lon="6.49943">
        <ele>1520.8</ele>
        <time>2024-08-11T09:02:45Z</time>
      </trkpt>
      <trkpt lat="44.97041" lon="6.49943">
        <ele>1520.6</ele>
        <time>2024-08-11T09:02:46Z</time>
      </trkpt>
      <trkpt lat="44.97041" lon="6.49943">
        <ele>1520.6</ele>
        <time>2024-08-11T09:02:47Z</time>
      </trkpt>
      <trkpt lat="44.97041" lon="6.49943">
        <ele>1520.6</ele>
        <time>2024-08-11T09:02:48Z</time>
      </trkpt>
      <trkpt lat="44.97041" lon="6.49943">
        <ele>1520.6</ele>
        <time>2024-08-11T09:02:49Z</time>
      </trkpt>
      <trkpt lat="44.97041" lon="6.49943">
        <ele>1520.6</ele>
        <time>2024-08-11T09:02:50Z</time>
      </trkpt>
      <trkpt lat="44.97041" lon="6.49943">
        <ele>1520.6</ele>
        <time>2024-08-11T09:02:51Z</time>
      </trkpt>
      <trkpt lat="44.97041" lon="6.49943">
        <ele>1520.8</ele>
        <time>2024-08-11T09:02:52Z</time>
      </trkpt>
      <trkpt lat="44.97041" lon="6.49943">
        <ele>1520.8</ele>
        <time>2024-08-11T09:02:53Z</time>
      </trkpt>
      <trkpt lat="44.97041" lon="6.49943">
        <ele>1520.8</ele>
        <time>2024-08-11T09:02:54Z</time>
      </trkpt>
      <trkpt lat="44.97041" lon="6.49943">
        <ele>1520.8</ele>
        <time>2024-08-11T09:02:55Z</time>
      </trkpt>
      <trkpt lat="44.97041" lon="6.49943">
        <ele>1520.8</ele>
        <time>2024-08-11T09:02:56Z</time>
      </trkpt>
      <trkpt lat="44.97041" lon="6.49943">
        <ele>1520.8</ele>
        <time>2024-08-11T09:02:57Z</time>
      </trkpt>
      <trkpt lat="44.97041" lon="6.49943">
        <ele>1520.8</ele>
        <time>2024-08-11T09:02:58Z</time>
      </trkpt>
      <trkpt lat="44.97041" lon="6.49943">
        <ele>1520.8</ele>
        <time>2024-08-11T09:02:59Z</time>
      </trkpt>
      <trkpt lat="44.97041" lon="6.49943">
        <ele>1520.8</ele>
        <time>2024-08-11T09:03:00Z</time>
      </trkpt>
      <trkpt lat="44.97041" lon="6.49943">
        <ele>1520.8</ele>
        <time>2024-08-11T09:03:01Z</time>
      </trkpt>
      <trkpt lat="44.97041" lon="6.49943">
        <ele>1521</ele>
        <time>2024-08-11T09:03:02Z</time>
      </trkpt>
      <trkpt lat="44.97041" lon="6.49943">
        <ele>1521</ele>
        <time>2024-08-11T09:03:03Z</time>
      </trkpt>
      <trkpt lat="44.97041" lon="6.49943">
        <ele>1520.8</ele>
        <time>2024-08-11T09:03:04Z</time>
      </trkpt>
      <trkpt lat="44.97041" lon="6.49943">
        <ele>1520.8</ele>
        <time>2024-08-11T09:03:05Z</time>
      </trkpt>
      <trkpt lat="44.97041" lon="6.49943">
        <ele>1520.8</ele>
        <time>2024-08-11T09:03:06Z</time>
      </trkpt>
      <trkpt lat="44.97041" lon="6.49943">
        <ele>1520.6</ele>
        <time>2024-08-11T09:03:07Z</time>
      </trkpt>
      <trkpt lat="44.97041" lon="6.49943">
        <ele>1520.6</ele>
        <time>2024-08-11T09:03:08Z</time>
      </trkpt>
      <trkpt lat="44.97041" lon="6.49943">
        <ele>1520.6</ele>
        <time>2024-08-11T09:03:09Z</time>
      </trkpt>
      <trkpt lat="44.97041" lon="6.49943">
        <ele>1520.6</ele>
        <time>2024-08-11T09:03:10Z</time>
      </trkpt>
      <trkpt lat="44.97041" lon="6.49943">
        <ele>1521</ele>
        <time>2024-08-11T09:03:11Z</time>
      </trkpt>
      <trkpt lat="44.97041" lon="6.49943">
        <ele>1521</ele>
        <time>2024-08-11T09:03:12Z</time>
      </trkpt>
      <trkpt lat="44.97041" lon="6.49943">
        <ele>1520.8</ele>
        <time>2024-08-11T09:03:13Z</time>
      </trkpt>
      <trkpt lat="44.97041" lon="6.49943">
        <ele>1520.8</ele>
        <time>2024-08-11T09:03:14Z</time>
      </trkpt>
      <trkpt lat="44.97041" lon="6.49943">
        <ele>1520.8</ele>
        <time>2024-08-11T09:03:15Z</time>
      </trkpt>
      <trkpt lat="44.97041" lon="6.49943">
        <ele>1520.8</ele>
        <time>2024-08-11T09:03:16Z</time>
      </trkpt>
      <trkpt lat="44.97041" lon="6.49943">
        <ele>1520.8</ele>
        <time>2024-08-11T09:03:17Z</time>
      </trkpt>
      <trkpt lat="44.97041" lon="6.49943">
        <ele>1521</ele>
        <time>2024-08-11T09:03:18Z</time>
      </trkpt>
      <trkpt lat="44.97041" lon="6.49943">
        <ele>1521.2</ele>
        <time>2024-08-11T09:03:19Z</time>
      </trkpt>
      <trkpt lat="44.97041" lon="6.49943">
        <ele>1521.2</ele>
        <time>2024-08-11T09:03:20Z</time>
      </trkpt>
      <trkpt lat="44.97041" lon="6.49943">
        <ele>1521.2</ele>
        <time>2024-08-11T09:03:21Z</time>
      </trkpt>
      <trkpt lat="44.97041" lon="6.49943">
        <ele>1521.2</ele>
        <time>2024-08-11T09:03:22Z</time>
      </trkpt>
      <trkpt lat="44.97041" lon="6.49943">
        <ele>1521.2</ele>
        <time>2024-08-11T09:03:23Z</time>
      </trkpt>
      <trkpt lat="44.97041" lon="6.49943">
        <ele>1521.2</ele>
        <time>2024-08-11T09:03:24Z</time>
      </trkpt>
      <trkpt lat="44.97041" lon="6.49943">
        <ele>1521.2</ele>
        <time>2024-08-11T09:03:25Z</time>
      </trkpt>
      <trkpt lat="44.97041" lon="6.49943">
        <ele>1521</ele>
        <time>2024-08-11T09:03:26Z</time>
      </trkpt>
      <trkpt lat="44.97041" lon="6.49943">
        <ele>1521</ele>
        <time>2024-08-11T09:03:27Z</time>
      </trkpt>
      <trkpt lat="44.97041" lon="6.49943">
        <ele>1520.8</ele>
        <time>2024-08-11T09:03:28Z</time>
      </trkpt>
      <trkpt lat="44.97041" lon="6.49943">
        <ele>1521</ele>
        <time>2024-08-11T09:03:29Z</time>
      </trkpt>
      <trkpt lat="44.97041" lon="6.49943">
        <ele>1521</ele>
        <time>2024-08-11T09:03:30Z</time>
      </trkpt>
      <trkpt lat="44.97041" lon="6.49943">
        <ele>1521.2</ele>
        <time>2024-08-11T09:03:31Z</time>
      </trkpt>
      <trkpt lat="44.97041" lon="6.49943">
        <ele>1521.2</ele>
        <time>2024-08-11T09:03:32Z</time>
      </trkpt>
      <trkpt lat="44.97041" lon="6.49943">
        <ele>1521</ele>
        <time>2024-08-11T09:03:33Z</time>
      </trkpt>
      <trkpt lat="44.97041" lon="6.49943">
        <ele>1521</ele>
        <time>2024-08-11T09:03:34Z</time>
      </trkpt>
      <trkpt lat="44.97041" lon="6.49943">
        <ele>1520.8</ele>
        <time>2024-08-11T09:03:35Z</time>
      </trkpt>
      <trkpt lat="44.97041" lon="6.49943">
        <ele>1520.8</ele>
        <time>2024-08-11T09:03:36Z</time>
      </trkpt>
      <trkpt lat="44.97041" lon="6.49943">
        <ele>1520.8</ele>
        <time>2024-08-11T09:03:37Z</time>
      </trkpt>
      <trkpt lat="44.97041" lon="6.49943">
        <ele>1520.8</ele>
        <time>2024-08-11T09:03:38Z</time>
      </trkpt>
      <trkpt lat="44.97041" lon="6.49943">
        <ele>1520.8</ele>
        <time>2024-08-11T09:03:39Z</time>
      </trkpt>
      <trkpt lat="44.97041" lon="6.49943">
        <ele>1521</ele>
        <time>2024-08-11T09:03:40Z</time>
      </trkpt>
      <trkpt lat="44.97041" lon="6.49943">
        <ele>1521.2</ele>
        <time>2024-08-11T09:03:41Z</time>
      </trkpt>
      <trkpt lat="44.97041" lon="6.49943">
        <ele>1521.2</ele>
        <time>2024-08-11T09:03:42Z</time>
      </trkpt>
      <trkpt lat="44.97041" lon="6.49943">
        <ele>1521.2</ele>
        <time>2024-08-11T09:03:43Z</time>
      </trkpt>
      <trkpt lat="44.97041" lon="6.49943">
        <ele>1521.2</ele>
        <time>2024-08-11T09:03:44Z</time>
      </trkpt>
      <trkpt lat="44.97041" lon="6.49943">
        <ele>1521.2</ele>
        <time>2024-08-11T09:03:45Z</time>
      </trkpt>
      <trkpt lat="44.97041" lon="6.49943">
        <ele>1521.2</ele>
        <time>2024-08-11T09:03:46Z</time>
      </trkpt>
      <trkpt lat="44.97041" lon="6.49943">
        <ele>1521</ele>
        <time>2024-08-11T09:03:47Z</time>
      </trkpt>
      <trkpt lat="44.97041" lon="6.49943">
        <ele>1520.8</ele>
        <time>2024-08-11T09:03:48Z</time>
      </trkpt>
      <trkpt lat="44.97041" lon="6.49943">
        <ele>1520.8</ele>
        <time>2024-08-11T09:03:49Z</time>
      </trkpt>
      <trkpt lat="44.97041" lon="6.49943">
        <ele>1520.8</ele>
        <time>2024-08-11T09:03:50Z</time>
      </trkpt>
      <trkpt lat="44.97041" lon="6.49943">
        <ele>1520.8</ele>
        <time>2024-08-11T09:03:51Z</time>
      </trkpt>
      <trkpt lat="44.97041" lon="6.49943">
        <ele>1520.8</ele>
        <time>2024-08-11T09:03:52Z</time>
      </trkpt>
      <trkpt lat="44.97041" lon="6.49943">
        <ele>1520.8</ele>
        <time>2024-08-11T09:03:53Z</time>
      </trkpt>
      <trkpt lat="44.97041" lon="6.49943">
        <ele>1520.6</ele>
        <time>2024-08-11T09:03:54Z</time>
      </trkpt>
      <trkpt lat="44.97041" lon="6.49943">
        <ele>1520.4</ele>
        <time>2024-08-11T09:03:55Z</time>
      </trkpt>
      <trkpt lat="44.97041" lon="6.49943">
        <ele>1520.4</ele>
        <time>2024-08-11T09:03:56Z</time>
      </trkpt>
      <trkpt lat="44.97041" lon="6.49943">
        <ele>1520.4</ele>
        <time>2024-08-11T09:03:57Z</time>
      </trkpt>
      <trkpt lat="44.97041" lon="6.49943">
        <ele>1520.4</ele>
        <time>2024-08-11T09:03:58Z</time>
      </trkpt>
      <trkpt lat="44.97041" lon="6.49943">
        <ele>1520.2</ele>
        <time>2024-08-11T09:03:59Z</time>
      </trkpt>
      <trkpt lat="44.97041" lon="6.49943">
        <ele>1520.2</ele>
        <time>2024-08-11T09:04:00Z</time>
      </trkpt>
      <trkpt lat="44.97041" lon="6.49943">
        <ele>1520.2</ele>
        <time>2024-08-11T09:04:01Z</time>
      </trkpt>
      <trkpt lat="44.97041" lon="6.49943">
        <ele>1520.2</ele>
        <time>2024-08-11T09:04:02Z</time>
      </trkpt>
      <trkpt lat="44.97041" lon="6.49943">
        <ele>1520.2</ele>
        <time>2024-08-11T09:04:03Z</time>
      </trkpt>
      <trkpt lat="44.97041" lon="6.49943">
        <ele>1520.2</ele>
        <time>2024-08-11T09:04:04Z</time>
      </trkpt>
      <trkpt lat="44.97041" lon="6.49943">
        <ele>1520.4</ele>
        <time>2024-08-11T09:04:05Z</time>
      </trkpt>
      <trkpt lat="44.97041" lon="6.49943">
        <ele>1520.2</ele>
        <time>2024-08-11T09:04:06Z</time>
      </trkpt>
      <trkpt lat="44.97041" lon="6.49943">
        <ele>1520.4</ele>
        <time>2024-08-11T09:04:07Z</time>
      </trkpt>
      <trkpt lat="44.97041" lon="6.49943">
        <ele>1520.4</ele>
        <time>2024-08-11T09:04:08Z</time>
      </trkpt>
      <trkpt lat="44.97041" lon="6.49943">
        <ele>1520.6</ele>
        <time>2024-08-11T09:04:09Z</time>
      </trkpt>
      <trkpt lat="44.97041" lon="6.49943">
        <ele>1520.6</ele>
        <time>2024-08-11T09:04:10Z</time>
      </trkpt>
      <trkpt lat="44.97041" lon="6.49943">
        <ele>1520.6</ele>
        <time>2024-08-11T09:04:11Z</time>
      </trkpt>
      <trkpt lat="44.97041" lon="6.49943">
        <ele>1520.4</ele>
        <time>2024-08-11T09:04:12Z</time>
      </trkpt>
      <trkpt lat="44.97041" lon="6.49943">
        <ele>1520.4</ele>
        <time>2024-08-11T09:04:13Z</time>
      </trkpt>
      <trkpt lat="44.97041" lon="6.49943">
        <ele>1520.4</ele>
        <time>2024-08-11T09:04:14Z</time>
      </trkpt>
      <trkpt lat="44.97041" lon="6.49943">
        <ele>1520.4</ele>
        <time>2024-08-11T09:04:15Z</time>
      </trkpt>
      <trkpt lat="44.97041" lon="6.49943">
        <ele>1520.6</ele>
        <time>2024-08-11T09:04:16Z</time>
      </trkpt>
      <trkpt lat="44.97041" lon="6.49943">
        <ele>1520.6</ele>
        <time>2024-08-11T09:04:17Z</time>
      </trkpt>
      <trkpt lat="44.97041" lon="6.49943">
        <ele>1520.8</ele>
        <time>2024-08-11T09:04:18Z</time>
      </trkpt>
      <trkpt lat="44.97041" lon="6.49943">
        <ele>1521</ele>
        <time>2024-08-11T09:04:19Z</time>
      </trkpt>
      <trkpt lat="44.97041" lon="6.49943">
        <ele>1521</ele>
        <time>2024-08-11T09:04:20Z</time>
      </trkpt>
      <trkpt lat="44.97041" lon="6.49943">
        <ele>1521</ele>
        <time>2024-08-11T09:04:21Z</time>
      </trkpt>
      <trkpt lat="44.97041" lon="6.49943">
        <ele>1521</ele>
        <time>2024-08-11T09:04:22Z</time>
      </trkpt>
      <trkpt lat="44.97041" lon="6.49943">
        <ele>1520.8</ele>
        <time>2024-08-11T09:04:23Z</time>
      </trkpt>
      <trkpt lat="44.97041" lon="6.49943">
        <ele>1520.8</ele>
        <time>2024-08-11T09:04:24Z</time>
      </trkpt>
      <trkpt lat="44.97041" lon="6.49943">
        <ele>1520.8</ele>
        <time>2024-08-11T09:04:25Z</time>
      </trkpt>
      <trkpt lat="44.97041" lon="6.49943">
        <ele>1520.8</ele>
        <time>2024-08-11T09:04:26Z</time>
      </trkpt>
      <trkpt lat="44.97041" lon="6.49943">
        <ele>1520.8</ele>
        <time>2024-08-11T09:04:27Z</time>
      </trkpt>
      <trkpt lat="44.97041" lon="6.49943">
        <ele>1520.8</ele>
        <time>2024-08-11T09:04:28Z</time>
      </trkpt>
      <trkpt lat="44.97041" lon="6.49943">
        <ele>1520.8</ele>
        <time>2024-08-11T09:04:29Z</time>
      </trkpt>
      <trkpt lat="44.97041" lon="6.49943">
        <ele>1520.8</ele>
        <time>2024-08-11T09:04:30Z</time>
      </trkpt>
      <trkpt lat="44.97041" lon="6.49943">
        <ele>1520.8</ele>
        <time>2024-08-11T09:04:31Z</time>
      </trkpt>
      <trkpt lat="44.97041" lon="6.49943">
        <ele>1520.6</ele>
        <time>2024-08-11T09:04:32Z</time>
      </trkpt>
      <trkpt lat="44.97041" lon="6.49943">
        <ele>1520.8</ele>
        <time>2024-08-11T09:04:33Z</time>
      </trkpt>
      <trkpt lat="44.97041" lon="6.49943">
        <ele>1520.8</ele>
        <time>2024-08-11T09:04:34Z</time>
      </trkpt>
      <trkpt lat="44.97041" lon="6.49943">
        <ele>1520.8</ele>
        <time>2024-08-11T09:04:35Z</time>
      </trkpt>
      <trkpt lat="44.97041" lon="6.49943">
        <ele>1520.8</ele>
        <time>2024-08-11T09:04:36Z</time>
      </trkpt>
      <trkpt lat="44.97041" lon="6.49943">
        <ele>1520.8</ele>
        <time>2024-08-11T09:04:37Z</time>
      </trkpt>
      <trkpt lat="44.97041" lon="6.49943">
        <ele>1520.8</ele>
        <time>2024-08-11T09:04:38Z</time>
      </trkpt>
      <trkpt lat="44.97041" lon="6.49943">
        <ele>1520.8</ele>
        <time>2024-08-11T09:04:39Z</time>
      </trkpt>
      <trkpt lat="44.97041" lon="6.49943">
        <ele>1520.8</ele>
        <time>2024-08-11T09:04:40Z</time>
      </trkpt>
      <trkpt lat="44.97041" lon="6.49943">
        <ele>1521.2</ele>
        <time>2024-08-11T09:04:41Z</time>
      </trkpt>
      <trkpt lat="44.97041" lon="6.49943">
        <ele>1521.6</ele>
        <time>2024-08-11T09:04:42Z</time>
      </trkpt>
      <trkpt lat="44.97041" lon="6.49943">
        <ele>1521.6</ele>
        <time>2024-08-11T09:04:43Z</time>
      </trkpt>
      <trkpt lat="44.97041" lon="6.49943">
        <ele>1521.6</ele>
        <time>2024-08-11T09:04:44Z</time>
      </trkpt>
      <trkpt lat="44.97041" lon="6.49943">
        <ele>1521.4</ele>
        <time>2024-08-11T09:04:45Z</time>
      </trkpt>
      <trkpt lat="44.97041" lon="6.49943">
        <ele>1521.4</ele>
        <time>2024-08-11T09:04:46Z</time>
      </trkpt>
      <trkpt lat="44.97041" lon="6.49943">
        <ele>1521.4</ele>
        <time>2024-08-11T09:04:47Z</time>
      </trkpt>
      <trkpt lat="44.97041" lon="6.49943">
        <ele>1521.4</ele>
        <time>2024-08-11T09:04:48Z</time>
      </trkpt>
      <trkpt lat="44.97041" lon="6.49943">
        <ele>1521.4</ele>
        <time>2024-08-11T09:04:49Z</time>
      </trkpt>
      <trkpt lat="44.97041" lon="6.49943">
        <ele>1521.4</ele>
        <time>2024-08-11T09:04:50Z</time>
      </trkpt>
      <trkpt lat="44.97041" lon="6.49943">
        <ele>1521.2</ele>
        <time>2024-08-11T09:04:51Z</time>
      </trkpt>
      <trkpt lat="44.97041" lon="6.49943">
        <ele>1521</ele>
        <time>2024-08-11T09:04:52Z</time>
      </trkpt>
      <trkpt lat="44.97041" lon="6.49943">
        <ele>1521</ele>
        <time>2024-08-11T09:04:53Z</time>
      </trkpt>
      <trkpt lat="44.97041" lon="6.49943">
        <ele>1521.2</ele>
        <time>2024-08-11T09:04:54Z</time>
      </trkpt>
      <trkpt lat="44.97041" lon="6.49943">
        <ele>1521.2</ele>
        <time>2024-08-11T09:04:55Z</time>
      </trkpt>
      <trkpt lat="44.97041" lon="6.49943">
        <ele>1521.2</ele>
        <time>2024-08-11T09:04:56Z</time>
      </trkpt>
      <trkpt lat="44.97041" lon="6.49943">
        <ele>1521.2</ele>
        <time>2024-08-11T09:04:57Z</time>
      </trkpt>
      <trkpt lat="44.97041" lon="6.49943">
        <ele>1521.2</ele>
        <time>2024-08-11T09:04:58Z</time>
      </trkpt>
      <trkpt lat="44.97041" lon="6.49943">
        <ele>1521</ele>
        <time>2024-08-11T09:04:59Z</time>
      </trkpt>
      <trkpt lat="44.97041" lon="6.49943">
        <ele>1520.8</ele>
        <time>2024-08-11T09:05:00Z</time>
      </trkpt>
      <trkpt lat="44.97041" lon="6.49943">
        <ele>1520.6</ele>
        <time>2024-08-11T09:05:01Z</time>
      </trkpt>
      <trkpt lat="44.97041" lon="6.49943">
        <ele>1520.6</ele>
        <time>2024-08-11T09:05:02Z</time>
      </trkpt>
      <trkpt lat="44.97041" lon="6.49943">
        <ele>1520.4</ele>
        <time>2024-08-11T09:05:03Z</time>
      </trkpt>
      <trkpt lat="44.97041" lon="6.49943">
        <ele>1520.4</ele>
        <time>2024-08-11T09:05:04Z</time>
      </trkpt>
      <trkpt lat="44.97041" lon="6.49943">
        <ele>1520.4</ele>
        <time>2024-08-11T09:05:05Z</time>
      </trkpt>
      <trkpt lat="44.97041" lon="6.49943">
        <ele>1520.6</ele>
        <time>2024-08-11T09:05:06Z</time>
      </trkpt>
      <trkpt lat="44.97041" lon="6.49943">
        <ele>1520.6</ele>
        <time>2024-08-11T09:05:07Z</time>
      </trkpt>
      <trkpt lat="44.97041" lon="6.49943">
        <ele>1520.6</ele>
        <time>2024-08-11T09:05:08Z</time>
      </trkpt>
      <trkpt lat="44.97041" lon="6.49943">
        <ele>1520.6</ele>
        <time>2024-08-11T09:05:09Z</time>
      </trkpt>
      <trkpt lat="44.97041" lon="6.49943">
        <ele>1520.4</ele>
        <time>2024-08-11T09:05:10Z</time>
      </trkpt>
      <trkpt lat="44.97041" lon="6.49943">
        <ele>1520.4</ele>
        <time>2024-08-11T09:05:11Z</time>
      </trkpt>
      <trkpt lat="44.97041" lon="6.49943">
        <ele>1520.4</ele>
        <time>2024-08-11T09:05:12Z</time>
      </trkpt>
      <trkpt lat="44.97041" lon="6.49943">
        <ele>1520.4</ele>
        <time>2024-08-11T09:05:13Z</time>
      </trkpt>
      <trkpt lat="44.97041" lon="6.49943">
        <ele>1520.6</ele>
        <time>2024-08-11T09:05:14Z</time>
      </trkpt>
      <trkpt lat="44.97041" lon="6.49943">
        <ele>1520.6</ele>
        <time>2024-08-11T09:05:15Z</time>
      </trkpt>
      <trkpt lat="44.97041" lon="6.49943">
        <ele>1520.6</ele>
        <time>2024-08-11T09:05:16Z</time>
      </trkpt>
      <trkpt lat="44.97041" lon="6.49943">
        <ele>1520.6</ele>
        <time>2024-08-11T09:05:17Z</time>
      </trkpt>
      <trkpt lat="44.97041" lon="6.49943">
        <ele>1520.6</ele>
        <time>2024-08-11T09:05:18Z</time>
      </trkpt>
      <trkpt lat="44.97041" lon="6.49943">
        <ele>1520.6</ele>
        <time>2024-08-11T09:05:19Z</time>
      </trkpt>
      <trkpt lat="44.97041" lon="6.49943">
        <ele>1520.6</ele>
        <time>2024-08-11T09:05:20Z</time>
      </trkpt>
      <trkpt lat="44.97041" lon="6.49943">
        <ele>1520.6</ele>
        <time>2024-08-11T09:05:21Z</time>
      </trkpt>
      <trkpt lat="44.97041" lon="6.49943">
        <ele>1520.6</ele>
        <time>2024-08-11T09:05:22Z</time>
      </trkpt>
      <trkpt lat="44.97041" lon="6.49943">
        <ele>1520.6</ele>
        <time>2024-08-11T09:05:23Z</time>
      </trkpt>
      <trkpt lat="44.97041" lon="6.49943">
        <ele>1520.6</ele>
        <time>2024-08-11T09:05:24Z</time>
      </trkpt>
      <trkpt lat="44.97041" lon="6.49943">
        <ele>1520.6</ele>
        <time>2024-08-11T09:05:25Z</time>
      </trkpt>
      <trkpt lat="44.97041" lon="6.49943">
        <ele>1520.6</ele>
        <time>2024-08-11T09:05:26Z</time>
      </trkpt>
      <trkpt lat="44.97041" lon="6.49943">
        <ele>1520.6</ele>
        <time>2024-08-11T09:05:27Z</time>
      </trkpt>
      <trkpt lat="44.97041" lon="6.49943">
        <ele>1520.6</ele>
        <time>2024-08-11T09:05:28Z</time>
      </trkpt>
      <trkpt lat="44.97041" lon="6.49943">
        <ele>1520.6</ele>
        <time>2024-08-11T09:05:29Z</time>
      </trkpt>
      <trkpt lat="44.97041" lon="6.49943">
        <ele>1520.6</ele>
        <time>2024-08-11T09:05:30Z</time>
      </trkpt>
      <trkpt lat="44.97041" lon="6.49943">
        <ele>1520.8</ele>
        <time>2024-08-11T09:05:31Z</time>
      </trkpt>
      <trkpt lat="44.97041" lon="6.49943">
        <ele>1520.8</ele>
        <time>2024-08-11T09:05:32Z</time>
      </trkpt>
      <trkpt lat="44.97041" lon="6.49943">
        <ele>1520.8</ele>
        <time>2024-08-11T09:05:33Z</time>
      </trkpt>
      <trkpt lat="44.97041" lon="6.49943">
        <ele>1520.6</ele>
        <time>2024-08-11T09:05:34Z</time>
      </trkpt>
      <trkpt lat="44.97041" lon="6.49943">
        <ele>1520.6</ele>
        <time>2024-08-11T09:05:35Z</time>
      </trkpt>
      <trkpt lat="44.97041" lon="6.49943">
        <ele>1520.6</ele>
        <time>2024-08-11T09:05:36Z</time>
      </trkpt>
      <trkpt lat="44.97041" lon="6.49943">
        <ele>1520.6</ele>
        <time>2024-08-11T09:05:37Z</time>
      </trkpt>
      <trkpt lat="44.97041" lon="6.49943">
        <ele>1520.2</ele>
        <time>2024-08-11T09:05:38Z</time>
      </trkpt>
      <trkpt lat="44.97041" lon="6.49943">
        <ele>1520.2</ele>
        <time>2024-08-11T09:05:39Z</time>
      </trkpt>
      <trkpt lat="44.97041" lon="6.49943">
        <ele>1520.6</ele>
        <time>2024-08-11T09:05:40Z</time>
      </trkpt>
      <trkpt lat="44.97041" lon="6.49943">
        <ele>1520.8</ele>
        <time>2024-08-11T09:05:41Z</time>
      </trkpt>
      <trkpt lat="44.97041" lon="6.49943">
        <ele>1520.8</ele>
        <time>2024-08-11T09:05:42Z</time>
      </trkpt>
      <trkpt lat="44.97041" lon="6.49943">
        <ele>1520.8</ele>
        <time>2024-08-11T09:05:43Z</time>
      </trkpt>
      <trkpt lat="44.97041" lon="6.49943">
        <ele>1520.8</ele>
        <time>2024-08-11T09:05:44Z</time>
      </trkpt>
      <trkpt lat="44.97041" lon="6.49943">
        <ele>1520.8</ele>
        <time>2024-08-11T09:05:45Z</time>
      </trkpt>
      <trkpt lat="44.97041" lon="6.49943">
        <ele>1520.6</ele>
        <time>2024-08-11T09:05:46Z</time>
      </trkpt>
      <trkpt lat="44.97041" lon="6.49943">
        <ele>1520.6</ele>
        <time>2024-08-11T09:05:47Z</time>
      </trkpt>
      <trkpt lat="44.97041" lon="6.49943">
        <ele>1520.6</ele>
        <time>2024-08-11T09:05:48Z</time>
      </trkpt>
      <trkpt lat="44.97041" lon="6.49943">
        <ele>1520.6</ele>
        <time>2024-08-11T09:05:49Z</time>
      </trkpt>
      <trkpt lat="44.97041" lon="6.49943">
        <ele>1520.4</ele>
        <time>2024-08-11T09:05:50Z</time>
      </trkpt>
      <trkpt lat="44.97041" lon="6.49943">
        <ele>1520.4</ele>
        <time>2024-08-11T09:05:51Z</time>
      </trkpt>
      <trkpt lat="44.97041" lon="6.49943">
        <ele>1520.4</ele>
        <time>2024-08-11T09:05:52Z</time>
      </trkpt>
      <trkpt lat="44.97041" lon="6.49943">
        <ele>1520.4</ele>
        <time>2024-08-11T09:05:53Z</time>
      </trkpt>
      <trkpt lat="44.97041" lon="6.49943">
        <ele>1520.4</ele>
        <time>2024-08-11T09:05:54Z</time>
      </trkpt>
      <trkpt lat="44.97041" lon="6.49943">
        <ele>1520.4</ele>
        <time>2024-08-11T09:05:55Z</time>
      </trkpt>
      <trkpt lat="44.97041" lon="6.49943">
        <ele>1520.4</ele>
        <time>2024-08-11T09:05:56Z</time>
      </trkpt>
      <trkpt lat="44.97041" lon="6.49943">
        <ele>1520.2</ele>
        <time>2024-08-11T09:05:57Z</time>
      </trkpt>
      <trkpt lat="44.97041" lon="6.49943">
        <ele>1520.2</ele>
        <time>2024-08-11T09:05:58Z</time>
      </trkpt>
      <trkpt lat="44.97041" lon="6.49943">
        <ele>1520</ele>
        <time>2024-08-11T09:05:59Z</time>
      </trkpt>
      <trkpt lat="44.97041" lon="6.49943">
        <ele>1520</ele>
        <time>2024-08-11T09:06:00Z</time>
      </trkpt>
      <trkpt lat="44.97041" lon="6.49943">
        <ele>1520</ele>
        <time>2024-08-11T09:06:01Z</time>
      </trkpt>
      <trkpt lat="44.97041" lon="6.49943">
        <ele>1520.2</ele>
        <time>2024-08-11T09:06:02Z</time>
      </trkpt>
      <trkpt lat="44.97041" lon="6.49943">
        <ele>1520.2</ele>
        <time>2024-08-11T09:06:03Z</time>
      </trkpt>
      <trkpt lat="44.97041" lon="6.49943">
        <ele>1520.2</ele>
        <time>2024-08-11T09:06:04Z</time>
      </trkpt>
      <trkpt lat="44.97041" lon="6.49943">
        <ele>1520.2</ele>
        <time>2024-08-11T09:06:05Z</time>
      </trkpt>
      <trkpt lat="44.97041" lon="6.49943">
        <ele>1520</ele>
        <time>2024-08-11T09:06:06Z</time>
      </trkpt>
      <trkpt lat="44.97041" lon="6.49943">
        <ele>1520</ele>
        <time>2024-08-11T09:06:07Z</time>
      </trkpt>
      <trkpt lat="44.97041" lon="6.49943">
        <ele>1520</ele>
        <time>2024-08-11T09:06:08Z</time>
      </trkpt>
      <trkpt lat="44.97041" lon="6.49943">
        <ele>1520</ele>
        <time>2024-08-11T09:06:09Z</time>
      </trkpt>
      <trkpt lat="44.97041" lon="6.49943">
        <ele>1519.8</ele>
        <time>2024-08-11T09:06:10Z</time>
      </trkpt>
      <trkpt lat="44.97041" lon="6.49943">
        <ele>1519.8</ele>
        <time>2024-08-11T09:06:11Z</time>
      </trkpt>
      <trkpt lat="44.97041" lon="6.49943">
        <ele>1519.8</ele>
        <time>2024-08-11T09:06:12Z</time>
      </trkpt>
      <trkpt lat="44.97041" lon="6.49943">
        <ele>1519.8</ele>
        <time>2024-08-11T09:06:13Z</time>
      </trkpt>
      <trkpt lat="44.97043" lon="6.49942">
        <ele>1519.6</ele>
        <time>2024-08-11T09:06:14Z</time>
      </trkpt>
      <trkpt lat="44.97043" lon="6.49942">
        <ele>1519.6</ele>
        <time>2024-08-11T09:06:15Z</time>
      </trkpt>
      <trkpt lat="44.97046" lon="6.49942">
        <ele>1519.4</ele>
        <time>2024-08-11T09:06:16Z</time>
      </trkpt>
      <trkpt lat="44.97046" lon="6.49942">
        <ele>1519.4</ele>
        <time>2024-08-11T09:06:17Z</time>
      </trkpt>
      <trkpt lat="44.97049" lon="6.49942">
        <ele>1519.4</ele>
        <time>2024-08-11T09:06:18Z</time>
      </trkpt>
      <trkpt lat="44.97049" lon="6.49942">
        <ele>1519.4</ele>
        <time>2024-08-11T09:06:19Z</time>
      </trkpt>
      <trkpt lat="44.97052" lon="6.49943">
        <ele>1519.4</ele>
        <time>2024-08-11T09:06:20Z</time>
      </trkpt>
      <trkpt lat="44.97052" lon="6.49943">
        <ele>1519.2</ele>
        <time>2024-08-11T09:06:21Z</time>
      </trkpt>
      <trkpt lat="44.97052" lon="6.49943">
        <ele>1519.2</ele>
        <time>2024-08-11T09:06:22Z</time>
      </trkpt>
      <trkpt lat="44.97052" lon="6.49943">
        <ele>1519.2</ele>
        <time>2024-08-11T09:06:23Z</time>
      </trkpt>
      <trkpt lat="44.97052" lon="6.49943">
        <ele>1519</ele>
        <time>2024-08-11T09:06:24Z</time>
      </trkpt>
      <trkpt lat="44.97052" lon="6.49943">
        <ele>1519</ele>
        <time>2024-08-11T09:06:25Z</time>
      </trkpt>
      <trkpt lat="44.97051" lon="6.49946">
        <ele>1519</ele>
        <time>2024-08-11T09:06:26Z</time>
      </trkpt>
      <trkpt lat="44.97051" lon="6.49946">
        <ele>1518.8</ele>
        <time>2024-08-11T09:06:27Z</time>
      </trkpt>
      <trkpt lat="44.97048" lon="6.49946">
        <ele>1518.8</ele>
        <time>2024-08-11T09:06:28Z</time>
      </trkpt>
      <trkpt lat="44.97048" lon="6.49946">
        <ele>1519.2</ele>
        <time>2024-08-11T09:06:29Z</time>
      </trkpt>
      <trkpt lat="44.97046" lon="6.49946">
        <ele>1519.2</ele>
        <time>2024-08-11T09:06:30Z</time>
      </trkpt>
      <trkpt lat="44.97046" lon="6.49946">
        <ele>1519.2</ele>
        <time>2024-08-11T09:06:31Z</time>
      </trkpt>
      <trkpt lat="44.97045" lon="6.49946">
        <ele>1519.4</ele>
        <time>2024-08-11T09:06:32Z</time>
      </trkpt>
      <trkpt lat="44.97045" lon="6.49946">
        <ele>1519.4</ele>
        <time>2024-08-11T09:06:33Z</time>
      </trkpt>
      <trkpt lat="44.97045" lon="6.49946">
        <ele>1519.2</ele>
        <time>2024-08-11T09:06:34Z</time>
      </trkpt>
      <trkpt lat="44.97045" lon="6.49946">
        <ele>1519.2</ele>
        <time>2024-08-11T09:06:35Z</time>
      </trkpt>
      <trkpt lat="44.97045" lon="6.49946">
        <ele>1519.6</ele>
        <time>2024-08-11T09:06:36Z</time>
      </trkpt>
      <trkpt lat="44.97045" lon="6.49946">
        <ele>1519.6</ele>
        <time>2024-08-11T09:06:37Z</time>
      </trkpt>
      <trkpt lat="44.97045" lon="6.49946">
        <ele>1519.6</ele>
        <time>2024-08-11T09:06:38Z</time>
      </trkpt>
      <trkpt lat="44.97045" lon="6.49946">
        <ele>1519.6</ele>
        <time>2024-08-11T09:06:39Z</time>
      </trkpt>
      <trkpt lat="44.97045" lon="6.49946">
        <ele>1519.8</ele>
        <time>2024-08-11T09:06:40Z</time>
      </trkpt>
      <trkpt lat="44.97045" lon="6.49946">
        <ele>1519.8</ele>
        <time>2024-08-11T09:06:41Z</time>
      </trkpt>
      <trkpt lat="44.97045" lon="6.49946">
        <ele>1519.8</ele>
        <time>2024-08-11T09:06:42Z</time>
      </trkpt>
      <trkpt lat="44.97045" lon="6.49946">
        <ele>1519.6</ele>
        <time>2024-08-11T09:06:43Z</time>
      </trkpt>
      <trkpt lat="44.97045" lon="6.49946">
        <ele>1519.6</ele>
        <time>2024-08-11T09:06:44Z</time>
      </trkpt>
      <trkpt lat="44.97045" lon="6.49946">
        <ele>1519.6</ele>
        <time>2024-08-11T09:06:45Z</time>
      </trkpt>
      <trkpt lat="44.97045" lon="6.49946">
        <ele>1519.6</ele>
        <time>2024-08-11T09:06:46Z</time>
      </trkpt>
      <trkpt lat="44.97045" lon="6.49946">
        <ele>1519.6</ele>
        <time>2024-08-11T09:06:47Z</time>
      </trkpt>
      <trkpt lat="44.97045" lon="6.49946">
        <ele>1519.6</ele>
        <time>2024-08-11T09:06:48Z</time>
      </trkpt>
      <trkpt lat="44.97043" lon="6.49942">
        <ele>1519.6</ele>
        <time>2024-08-11T09:06:49Z</time>
      </trkpt>
      <trkpt lat="44.97043" lon="6.49942">
        <ele>1519.6</ele>
        <time>2024-08-11T09:06:50Z</time>
      </trkpt>
      <trkpt lat="44.97042" lon="6.4994">
        <ele>1519.8</ele>
        <time>2024-08-11T09:06:51Z</time>
      </trkpt>
      <trkpt lat="44.97042" lon="6.4994">
        <ele>1519.8</ele>
        <time>2024-08-11T09:06:52Z</time>
      </trkpt>
      <trkpt lat="44.97042" lon="6.4994">
        <ele>1519.8</ele>
        <time>2024-08-11T09:06:53Z</time>
      </trkpt>
      <trkpt lat="44.97042" lon="6.4994">
        <ele>1519.8</ele>
        <time>2024-08-11T09:06:54Z</time>
      </trkpt>
      <trkpt lat="44.97042" lon="6.4994">
        <ele>1519.8</ele>
        <time>2024-08-11T09:06:55Z</time>
      </trkpt>
      <trkpt lat="44.97042" lon="6.4994">
        <ele>1520</ele>
        <time>2024-08-11T09:06:56Z</time>
      </trkpt>
      <trkpt lat="44.97042" lon="6.4994">
        <ele>1520</ele>
        <time>2024-08-11T09:06:57Z</time>
      </trkpt>
      <trkpt lat="44.97042" lon="6.4994">
        <ele>1520.2</ele>
        <time>2024-08-11T09:06:58Z</time>
      </trkpt>
      <trkpt lat="44.97042" lon="6.4994">
        <ele>1520.4</ele>
        <time>2024-08-11T09:06:59Z</time>
      </trkpt>
      <trkpt lat="44.97042" lon="6.4994">
        <ele>1520.6</ele>
        <time>2024-08-11T09:07:00Z</time>
      </trkpt>
      <trkpt lat="44.97042" lon="6.4994">
        <ele>1520.6</ele>
        <time>2024-08-11T09:07:01Z</time>
      </trkpt>
      <trkpt lat="44.97042" lon="6.4994">
        <ele>1520.4</ele>
        <time>2024-08-11T09:07:02Z</time>
      </trkpt>
      <trkpt lat="44.97042" lon="6.4994">
        <ele>1520.4</ele>
        <time>2024-08-11T09:07:03Z</time>
      </trkpt>
      <trkpt lat="44.97042" lon="6.4994">
        <ele>1520.4</ele>
        <time>2024-08-11T09:07:04Z</time>
      </trkpt>
      <trkpt lat="44.97042" lon="6.4994">
        <ele>1520.4</ele>
        <time>2024-08-11T09:07:05Z</time>
      </trkpt>
      <trkpt lat="44.97042" lon="6.4994">
        <ele>1520.4</ele>
        <time>2024-08-11T09:07:06Z</time>
      </trkpt>
      <trkpt lat="44.97042" lon="6.4994">
        <ele>1520.4</ele>
        <time>2024-08-11T09:07:07Z</time>
      </trkpt>
      <trkpt lat="44.97042" lon="6.4994">
        <ele>1520.2</ele>
        <time>2024-08-11T09:07:08Z</time>
      </trkpt>
      <trkpt lat="44.97042" lon="6.4994">
        <ele>1520.2</ele>
        <time>2024-08-11T09:07:09Z</time>
      </trkpt>
      <trkpt lat="44.97042" lon="6.4994">
        <ele>1520.2</ele>
        <time>2024-08-11T09:07:10Z</time>
      </trkpt>
      <trkpt lat="44.97042" lon="6.4994">
        <ele>1520.4</ele>
        <time>2024-08-11T09:07:11Z</time>
      </trkpt>
      <trkpt lat="44.97042" lon="6.4994">
        <ele>1520.4</ele>
        <time>2024-08-11T09:07:12Z</time>
      </trkpt>
      <trkpt lat="44.97042" lon="6.4994">
        <ele>1520.2</ele>
        <time>2024-08-11T09:07:13Z</time>
      </trkpt>
      <trkpt lat="44.97042" lon="6.4994">
        <ele>1520.2</ele>
        <time>2024-08-11T09:07:14Z</time>
      </trkpt>
      <trkpt lat="44.97042" lon="6.4994">
        <ele>1520.4</ele>
        <time>2024-08-11T09:07:15Z</time>
      </trkpt>
      <trkpt lat="44.97042" lon="6.4994">
        <ele>1520.4</ele>
        <time>2024-08-11T09:07:16Z</time>
      </trkpt>
      <trkpt lat="44.97042" lon="6.4994">
        <ele>1520.4</ele>
        <time>2024-08-11T09:07:17Z</time>
      </trkpt>
      <trkpt lat="44.97042" lon="6.4994">
        <ele>1520.6</ele>
        <time>2024-08-11T09:07:18Z</time>
      </trkpt>
      <trkpt lat="44.97042" lon="6.4994">
        <ele>1520.6</ele>
        <time>2024-08-11T09:07:19Z</time>
      </trkpt>
      <trkpt lat="44.97042" lon="6.4994">
        <ele>1520.6</ele>
        <time>2024-08-11T09:07:20Z</time>
      </trkpt>
      <trkpt lat="44.97042" lon="6.4994">
        <ele>1520.8</ele>
        <time>2024-08-11T09:07:21Z</time>
      </trkpt>
      <trkpt lat="44.97042" lon="6.4994">
        <ele>1520.8</ele>
        <time>2024-08-11T09:07:22Z</time>
      </trkpt>
      <trkpt lat="44.97042" lon="6.4994">
        <ele>1520.6</ele>
        <time>2024-08-11T09:07:23Z</time>
      </trkpt>
      <trkpt lat="44.97042" lon="6.4994">
        <ele>1520.4</ele>
        <time>2024-08-11T09:07:24Z</time>
      </trkpt>
      <trkpt lat="44.97042" lon="6.4994">
        <ele>1520.4</ele>
        <time>2024-08-11T09:07:25Z</time>
      </trkpt>
      <trkpt lat="44.97042" lon="6.4994">
        <ele>1520.4</ele>
        <time>2024-08-11T09:07:26Z</time>
      </trkpt>
      <trkpt lat="44.97042" lon="6.4994">
        <ele>1520.2</ele>
        <time>2024-08-11T09:07:27Z</time>
      </trkpt>
      <trkpt lat="44.97042" lon="6.4994">
        <ele>1520.6</ele>
        <time>2024-08-11T09:07:28Z</time>
      </trkpt>
      <trkpt lat="44.97042" lon="6.4994">
        <ele>1520.8</ele>
        <time>2024-08-11T09:07:29Z</time>
      </trkpt>
      <trkpt lat="44.97042" lon="6.4994">
        <ele>1520.8</ele>
        <time>2024-08-11T09:07:30Z</time>
      </trkpt>
      <trkpt lat="44.97042" lon="6.4994">
        <ele>1520.8</ele>
        <time>2024-08-11T09:07:31Z</time>
      </trkpt>
      <trkpt lat="44.97042" lon="6.4994">
        <ele>1520.6</ele>
        <time>2024-08-11T09:07:32Z</time>
      </trkpt>
      <trkpt lat="44.97042" lon="6.4994">
        <ele>1520.6</ele>
        <time>2024-08-11T09:07:33Z</time>
      </trkpt>
      <trkpt lat="44.97042" lon="6.4994">
        <ele>1520.6</ele>
        <time>2024-08-11T09:07:34Z</time>
      </trkpt>
      <trkpt lat="44.97042" lon="6.4994">
        <ele>1520.6</ele>
        <time>2024-08-11T09:07:35Z</time>
      </trkpt>
      <trkpt lat="44.97042" lon="6.4994">
        <ele>1520.4</ele>
        <time>2024-08-11T09:07:36Z</time>
      </trkpt>
      <trkpt lat="44.97042" lon="6.4994">
        <ele>1520.4</ele>
        <time>2024-08-11T09:07:37Z</time>
      </trkpt>
      <trkpt lat="44.97042" lon="6.4994">
        <ele>1520.8</ele>
        <time>2024-08-11T09:07:38Z</time>
      </trkpt>
      <trkpt lat="44.97042" lon="6.4994">
        <ele>1520.8</ele>
        <time>2024-08-11T09:07:39Z</time>
      </trkpt>
      <trkpt lat="44.97042" lon="6.4994">
        <ele>1520.8</ele>
        <time>2024-08-11T09:07:40Z</time>
      </trkpt>
      <trkpt lat="44.97042" lon="6.4994">
        <ele>1520.6</ele>
        <time>2024-08-11T09:07:41Z</time>
      </trkpt>
      <trkpt lat="44.97042" lon="6.4994">
        <ele>1520.6</ele>
        <time>2024-08-11T09:07:42Z</time>
      </trkpt>
      <trkpt lat="44.97042" lon="6.4994">
        <ele>1520.4</ele>
        <time>2024-08-11T09:07:43Z</time>
      </trkpt>
      <trkpt lat="44.97042" lon="6.4994">
        <ele>1520.4</ele>
        <time>2024-08-11T09:07:44Z</time>
      </trkpt>
      <trkpt lat="44.97042" lon="6.4994">
        <ele>1520.4</ele>
        <time>2024-08-11T09:07:45Z</time>
      </trkpt>
      <trkpt lat="44.97042" lon="6.4994">
        <ele>1520.4</ele>
        <time>2024-08-11T09:07:46Z</time>
      </trkpt>
      <trkpt lat="44.97042" lon="6.4994">
        <ele>1520.4</ele>
        <time>2024-08-11T09:07:47Z</time>
      </trkpt>
      <trkpt lat="44.97042" lon="6.4994">
        <ele>1520.4</ele>
        <time>2024-08-11T09:07:48Z</time>
      </trkpt>
      <trkpt lat="44.97042" lon="6.4994">
        <ele>1520.4</ele>
        <time>2024-08-11T09:07:49Z</time>
      </trkpt>
      <trkpt lat="44.97042" lon="6.4994">
        <ele>1520.4</ele>
        <time>2024-08-11T09:07:50Z</time>
      </trkpt>
      <trkpt lat="44.97042" lon="6.4994">
        <ele>1520.4</ele>
        <time>2024-08-11T09:07:51Z</time>
      </trkpt>
      <trkpt lat="44.97042" lon="6.4994">
        <ele>1520.2</ele>
        <time>2024-08-11T09:07:52Z</time>
      </trkpt>
      <trkpt lat="44.97042" lon="6.4994">
        <ele>1520</ele>
        <time>2024-08-11T09:07:53Z</time>
      </trkpt>
      <trkpt lat="44.97042" lon="6.4994">
        <ele>1520</ele>
        <time>2024-08-11T09:07:54Z</time>
      </trkpt>
      <trkpt lat="44.97042" lon="6.4994">
        <ele>1520.4</ele>
        <time>2024-08-11T09:07:55Z</time>
      </trkpt>
      <trkpt lat="44.97042" lon="6.4994">
        <ele>1520.4</ele>
        <time>2024-08-11T09:07:56Z</time>
      </trkpt>
      <trkpt lat="44.97042" lon="6.4994">
        <ele>1520.2</ele>
        <time>2024-08-11T09:07:57Z</time>
      </trkpt>
      <trkpt lat="44.97042" lon="6.4994">
        <ele>1520.2</ele>
        <time>2024-08-11T09:07:58Z</time>
      </trkpt>
      <trkpt lat="44.97042" lon="6.4994">
        <ele>1520.2</ele>
        <time>2024-08-11T09:07:59Z</time>
      </trkpt>
      <trkpt lat="44.97042" lon="6.4994">
        <ele>1520.6</ele>
        <time>2024-08-11T09:08:00Z</time>
      </trkpt>
      <trkpt lat="44.9704" lon="6.49941">
        <ele>1520.6</ele>
        <time>2024-08-11T09:08:01Z</time>
      </trkpt>
      <trkpt lat="44.9704" lon="6.49941">
        <ele>1520.4</ele>
        <time>2024-08-11T09:08:02Z</time>
      </trkpt>
      <trkpt lat="44.97037" lon="6.49942">
        <ele>1520.4</ele>
        <time>2024-08-11T09:08:03Z</time>
      </trkpt>
      <trkpt lat="44.97037" lon="6.49942">
        <ele>1520.8</ele>
        <time>2024-08-11T09:08:04Z</time>
      </trkpt>
      <trkpt lat="44.97035" lon="6.49941">
        <ele>1520.8</ele>
        <time>2024-08-11T09:08:05Z</time>
      </trkpt>
      <trkpt lat="44.97035" lon="6.49941">
        <ele>1520.6</ele>
        <time>2024-08-11T09:08:06Z</time>
      </trkpt>
      <trkpt lat="44.97035" lon="6.49941">
        <ele>1520.4</ele>
        <time>2024-08-11T09:08:07Z</time>
      </trkpt>
      <trkpt lat="44.97035" lon="6.49941">
        <ele>1520.4</ele>
        <time>2024-08-11T09:08:08Z</time>
      </trkpt>
      <trkpt lat="44.97035" lon="6.49941">
        <ele>1520.2</ele>
        <time>2024-08-11T09:08:09Z</time>
      </trkpt>
      <trkpt lat="44.97035" lon="6.49941">
        <ele>1520</ele>
        <time>2024-08-11T09:08:10Z</time>
      </trkpt>
      <trkpt lat="44.97035" lon="6.49941">
        <ele>1520</ele>
        <time>2024-08-11T09:08:11Z</time>
      </trkpt>
      <trkpt lat="44.97035" lon="6.49941">
        <ele>1520</ele>
        <time>2024-08-11T09:08:12Z</time>
      </trkpt>
      <trkpt lat="44.97035" lon="6.49941">
        <ele>1520</ele>
        <time>2024-08-11T09:08:13Z</time>
      </trkpt>
      <trkpt lat="44.97035" lon="6.49941">
        <ele>1520.2</ele>
        <time>2024-08-11T09:08:14Z</time>
      </trkpt>
      <trkpt lat="44.97035" lon="6.49941">
        <ele>1520.4</ele>
        <time>2024-08-11T09:08:15Z</time>
      </trkpt>
      <trkpt lat="44.97035" lon="6.49941">
        <ele>1520.4</ele>
        <time>2024-08-11T09:08:16Z</time>
      </trkpt>
      <trkpt lat="44.97035" lon="6.49941">
        <ele>1520.4</ele>
        <time>2024-08-11T09:08:17Z</time>
      </trkpt>
      <trkpt lat="44.97035" lon="6.49941">
        <ele>1520.4</ele>
        <time>2024-08-11T09:08:18Z</time>
      </trkpt>
      <trkpt lat="44.97035" lon="6.49941">
        <ele>1520.4</ele>
        <time>2024-08-11T09:08:19Z</time>
      </trkpt>
      <trkpt lat="44.97035" lon="6.49941">
        <ele>1520.6</ele>
        <time>2024-08-11T09:08:20Z</time>
      </trkpt>
      <trkpt lat="44.97035" lon="6.49941">
        <ele>1520.6</ele>
        <time>2024-08-11T09:08:21Z</time>
      </trkpt>
      <trkpt lat="44.97035" lon="6.49941">
        <ele>1520.6</ele>
        <time>2024-08-11T09:08:22Z</time>
      </trkpt>
      <trkpt lat="44.97035" lon="6.49941">
        <ele>1520.8</ele>
        <time>2024-08-11T09:08:23Z</time>
      </trkpt>
      <trkpt lat="44.97035" lon="6.49941">
        <ele>1520.8</ele>
        <time>2024-08-11T09:08:24Z</time>
      </trkpt>
      <trkpt lat="44.97035" lon="6.49941">
        <ele>1520.6</ele>
        <time>2024-08-11T09:08:25Z</time>
      </trkpt>
      <trkpt lat="44.97035" lon="6.49941">
        <ele>1520.6</ele>
        <time>2024-08-11T09:08:26Z</time>
      </trkpt>
      <trkpt lat="44.97035" lon="6.49941">
        <ele>1520.6</ele>
        <time>2024-08-11T09:08:27Z</time>
      </trkpt>
      <trkpt lat="44.97035" lon="6.49941">
        <ele>1520.6</ele>
        <time>2024-08-11T09:08:28Z</time>
      </trkpt>
      <trkpt lat="44.97035" lon="6.49941">
        <ele>1520.6</ele>
        <time>2024-08-11T09:08:29Z</time>
      </trkpt>
      <trkpt lat="44.97035" lon="6.49941">
        <ele>1520.6</ele>
        <time>2024-08-11T09:08:30Z</time>
      </trkpt>
      <trkpt lat="44.97035" lon="6.49941">
        <ele>1520.6</ele>
        <time>2024-08-11T09:08:31Z</time>
      </trkpt>
      <trkpt lat="44.97035" lon="6.49941">
        <ele>1520.8</ele>
        <time>2024-08-11T09:08:32Z</time>
      </trkpt>
      <trkpt lat="44.97035" lon="6.49941">
        <ele>1521.4</ele>
        <time>2024-08-11T09:08:33Z</time>
      </trkpt>
      <trkpt lat="44.97035" lon="6.49941">
        <ele>1521.6</ele>
        <time>2024-08-11T09:08:34Z</time>
      </trkpt>
      <trkpt lat="44.97035" lon="6.49941">
        <ele>1521.6</ele>
        <time>2024-08-11T09:08:35Z</time>
      </trkpt>
      <trkpt lat="44.97035" lon="6.49941">
        <ele>1521.2</ele>
        <time>2024-08-11T09:08:36Z</time>
      </trkpt>
      <trkpt lat="44.97035" lon="6.49941">
        <ele>1520.8</ele>
        <time>2024-08-11T09:08:37Z</time>
      </trkpt>
      <trkpt lat="44.97035" lon="6.49941">
        <ele>1520.6</ele>
        <time>2024-08-11T09:08:38Z</time>
      </trkpt>
      <trkpt lat="44.97035" lon="6.49941">
        <ele>1520.6</ele>
        <time>2024-08-11T09:08:39Z</time>
      </trkpt>
      <trkpt lat="44.97035" lon="6.49941">
        <ele>1521</ele>
        <time>2024-08-11T09:08:40Z</time>
      </trkpt>
      <trkpt lat="44.97035" lon="6.49941">
        <ele>1521</ele>
        <time>2024-08-11T09:08:41Z</time>
      </trkpt>
      <trkpt lat="44.97035" lon="6.49941">
        <ele>1521</ele>
        <time>2024-08-11T09:08:42Z</time>
      </trkpt>
      <trkpt lat="44.97035" lon="6.49941">
        <ele>1521</ele>
        <time>2024-08-11T09:08:43Z</time>
      </trkpt>
      <trkpt lat="44.97035" lon="6.49941">
        <ele>1521</ele>
        <time>2024-08-11T09:08:44Z</time>
      </trkpt>
      <trkpt lat="44.97035" lon="6.49941">
        <ele>1520.8</ele>
        <time>2024-08-11T09:08:45Z</time>
      </trkpt>
      <trkpt lat="44.97035" lon="6.49941">
        <ele>1520.8</ele>
        <time>2024-08-11T09:08:46Z</time>
      </trkpt>
      <trkpt lat="44.97035" lon="6.49941">
        <ele>1521</ele>
        <time>2024-08-11T09:08:47Z</time>
      </trkpt>
      <trkpt lat="44.97035" lon="6.49941">
        <ele>1521</ele>
        <time>2024-08-11T09:08:48Z</time>
      </trkpt>
      <trkpt lat="44.97035" lon="6.49941">
        <ele>1521</ele>
        <time>2024-08-11T09:08:49Z</time>
      </trkpt>
      <trkpt lat="44.97035" lon="6.49941">
        <ele>1520.8</ele>
        <time>2024-08-11T09:08:50Z</time>
      </trkpt>
      <trkpt lat="44.97035" lon="6.49941">
        <ele>1520.6</ele>
        <time>2024-08-11T09:08:51Z</time>
      </trkpt>
      <trkpt lat="44.97035" lon="6.49941">
        <ele>1520.6</ele>
        <time>2024-08-11T09:08:52Z</time>
      </trkpt>
      <trkpt lat="44.97035" lon="6.49941">
        <ele>1520.4</ele>
        <time>2024-08-11T09:08:53Z</time>
      </trkpt>
      <trkpt lat="44.97035" lon="6.49941">
        <ele>1520.4</ele>
        <time>2024-08-11T09:08:54Z</time>
      </trkpt>
      <trkpt lat="44.97035" lon="6.49941">
        <ele>1520.2</ele>
        <time>2024-08-11T09:08:55Z</time>
      </trkpt>
      <trkpt lat="44.97035" lon="6.49941">
        <ele>1520.2</ele>
        <time>2024-08-11T09:08:56Z</time>
      </trkpt>
      <trkpt lat="44.97035" lon="6.49941">
        <ele>1520.2</ele>
        <time>2024-08-11T09:08:57Z</time>
      </trkpt>
      <trkpt lat="44.97035" lon="6.49941">
        <ele>1520.2</ele>
        <time>2024-08-11T09:08:58Z</time>
      </trkpt>
      <trkpt lat="44.97035" lon="6.49941">
        <ele>1520.4</ele>
        <time>2024-08-11T09:08:59Z</time>
      </trkpt>
      <trkpt lat="44.97035" lon="6.49941">
        <ele>1520.4</ele>
        <time>2024-08-11T09:09:00Z</time>
      </trkpt>
      <trkpt lat="44.97035" lon="6.49941">
        <ele>1520.4</ele>
        <time>2024-08-11T09:09:01Z</time>
      </trkpt>
      <trkpt lat="44.97035" lon="6.49941">
        <ele>1520.4</ele>
        <time>2024-08-11T09:09:02Z</time>
      </trkpt>
      <trkpt lat="44.97035" lon="6.49941">
        <ele>1520.6</ele>
        <time>2024-08-11T09:09:03Z</time>
      </trkpt>
      <trkpt lat="44.97035" lon="6.49941">
        <ele>1520.6</ele>
        <time>2024-08-11T09:09:04Z</time>
      </trkpt>
      <trkpt lat="44.97035" lon="6.49941">
        <ele>1520.6</ele>
        <time>2024-08-11T09:09:05Z</time>
      </trkpt>
      <trkpt lat="44.97035" lon="6.49941">
        <ele>1520.2</ele>
        <time>2024-08-11T09:09:06Z</time>
      </trkpt>
      <trkpt lat="44.97035" lon="6.49941">
        <ele>1520</ele>
        <time>2024-08-11T09:09:07Z</time>
      </trkpt>
      <trkpt lat="44.97035" lon="6.49941">
        <ele>1520</ele>
        <time>2024-08-11T09:09:08Z</time>
      </trkpt>
      <trkpt lat="44.97035" lon="6.49941">
        <ele>1520</ele>
        <time>2024-08-11T09:09:09Z</time>
      </trkpt>
      <trkpt lat="44.97035" lon="6.49941">
        <ele>1520.2</ele>
        <time>2024-08-11T09:09:10Z</time>
      </trkpt>
      <trkpt lat="44.97035" lon="6.49941">
        <ele>1520.2</ele>
        <time>2024-08-11T09:09:11Z</time>
      </trkpt>
      <trkpt lat="44.97037" lon="6.49941">
        <ele>1520.2</ele>
        <time>2024-08-11T09:09:12Z</time>
      </trkpt>
      <trkpt lat="44.97037" lon="6.49941">
        <ele>1520.4</ele>
        <time>2024-08-11T09:09:13Z</time>
      </trkpt>
      <trkpt lat="44.97037" lon="6.49941">
        <ele>1520.4</ele>
        <time>2024-08-11T09:09:14Z</time>
      </trkpt>
      <trkpt lat="44.97037" lon="6.49941">
        <ele>1520</ele>
        <time>2024-08-11T09:09:15Z</time>
      </trkpt>
      <trkpt lat="44.97037" lon="6.49941">
        <ele>1520</ele>
        <time>2024-08-11T09:09:16Z</time>
      </trkpt>
      <trkpt lat="44.97038" lon="6.49942">
        <ele>1520.2</ele>
        <time>2024-08-11T09:09:17Z</time>
      </trkpt>
      <trkpt lat="44.97038" lon="6.49942">
        <ele>1520.4</ele>
        <time>2024-08-11T09:09:18Z</time>
      </trkpt>
      <trkpt lat="44.97038" lon="6.49942">
        <ele>1520.4</ele>
        <time>2024-08-11T09:09:19Z</time>
      </trkpt>
      <trkpt lat="44.97038" lon="6.49942">
        <ele>1520.4</ele>
        <time>2024-08-11T09:09:20Z</time>
      </trkpt>
      <trkpt lat="44.9704" lon="6.49948">
        <ele>1520.4</ele>
        <time>2024-08-11T09:09:21Z</time>
      </trkpt>
      <trkpt lat="44.97041" lon="6.4995">
        <ele>1520.4</ele>
        <time>2024-08-11T09:09:22Z</time>
      </trkpt>
      <trkpt lat="44.97041" lon="6.4995">
        <ele>1520</ele>
        <time>2024-08-11T09:09:23Z</time>
      </trkpt>
      <trkpt lat="44.97041" lon="6.49953">
        <ele>1519.8</ele>
        <time>2024-08-11T09:09:24Z</time>
      </trkpt>
      <trkpt lat="44.97041" lon="6.49953">
        <ele>1519.8</ele>
        <time>2024-08-11T09:09:25Z</time>
      </trkpt>
      <trkpt lat="44.97041" lon="6.49953">
        <ele>1520</ele>
        <time>2024-08-11T09:09:26Z</time>
      </trkpt>
      <trkpt lat="44.97041" lon="6.49953">
        <ele>1520</ele>
        <time>2024-08-11T09:09:27Z</time>
      </trkpt>
      <trkpt lat="44.97041" lon="6.49953">
        <ele>1520</ele>
        <time>2024-08-11T09:09:28Z</time>
      </trkpt>
      <trkpt lat="44.97041" lon="6.49953">
        <ele>1520</ele>
        <time>2024-08-11T09:09:29Z</time>
      </trkpt>
      <trkpt lat="44.97041" lon="6.49953">
        <ele>1520</ele>
        <time>2024-08-11T09:09:30Z</time>
      </trkpt>
      <trkpt lat="44.97041" lon="6.49953">
        <ele>1520</ele>
        <time>2024-08-11T09:09:31Z</time>
      </trkpt>
      <trkpt lat="44.97041" lon="6.49953">
        <ele>1520</ele>
        <time>2024-08-11T09:09:32Z</time>
      </trkpt>
      <trkpt lat="44.97041" lon="6.49953">
        <ele>1520</ele>
        <time>2024-08-11T09:09:33Z</time>
      </trkpt>
      <trkpt lat="44.97041" lon="6.49953">
        <ele>1520</ele>
        <time>2024-08-11T09:09:34Z</time>
      </trkpt>
      <trkpt lat="44.97041" lon="6.49953">
        <ele>1520</ele>
        <time>2024-08-11T09:09:35Z</time>
      </trkpt>
      <trkpt lat="44.97041" lon="6.49953">
        <ele>1520</ele>
        <time>2024-08-11T09:09:36Z</time>
      </trkpt>
      <trkpt lat="44.97043" lon="6.49951">
        <ele>1520</ele>
        <time>2024-08-11T09:09:37Z</time>
      </trkpt>
      <trkpt lat="44.97043" lon="6.49951">
        <ele>1519.8</ele>
        <time>2024-08-11T09:09:38Z</time>
      </trkpt>
      <trkpt lat="44.97043" lon="6.49951">
        <ele>1519.8</ele>
        <time>2024-08-11T09:09:39Z</time>
      </trkpt>
      <trkpt lat="44.97043" lon="6.49951">
        <ele>1519.8</ele>
        <time>2024-08-11T09:09:40Z</time>
      </trkpt>
      <trkpt lat="44.97043" lon="6.49951">
        <ele>1519.6</ele>
        <time>2024-08-11T09:09:41Z</time>
      </trkpt>
      <trkpt lat="44.97044" lon="6.49954">
        <ele>1519.4</ele>
        <time>2024-08-11T09:09:42Z</time>
      </trkpt>
      <trkpt lat="44.97044" lon="6.49954">
        <ele>1519.6</ele>
        <time>2024-08-11T09:09:43Z</time>
      </trkpt>
      <trkpt lat="44.97043" lon="6.49957">
        <ele>1519.6</ele>
        <time>2024-08-11T09:09:44Z</time>
      </trkpt>
      <trkpt lat="44.97043" lon="6.49957">
        <ele>1519.6</ele>
        <time>2024-08-11T09:09:45Z</time>
      </trkpt>
      <trkpt lat="44.97043" lon="6.49957">
        <ele>1519.8</ele>
        <time>2024-08-11T09:09:46Z</time>
      </trkpt>
      <trkpt lat="44.97043" lon="6.49957">
        <ele>1519.8</ele>
        <time>2024-08-11T09:09:47Z</time>
      </trkpt>
      <trkpt lat="44.97043" lon="6.49957">
        <ele>1519.8</ele>
        <time>2024-08-11T09:09:48Z</time>
      </trkpt>
      <trkpt lat="44.97043" lon="6.49957">
        <ele>1519.8</ele>
        <time>2024-08-11T09:09:49Z</time>
      </trkpt>
      <trkpt lat="44.97043" lon="6.49957">
        <ele>1519.8</ele>
        <time>2024-08-11T09:09:50Z</time>
      </trkpt>
      <trkpt lat="44.97043" lon="6.49957">
        <ele>1519.8</ele>
        <time>2024-08-11T09:09:51Z</time>
      </trkpt>
      <trkpt lat="44.97043" lon="6.49957">
        <ele>1519.8</ele>
        <time>2024-08-11T09:09:52Z</time>
      </trkpt>
      <trkpt lat="44.97043" lon="6.49957">
        <ele>1519.8</ele>
        <time>2024-08-11T09:09:53Z</time>
      </trkpt>
      <trkpt lat="44.97043" lon="6.49957">
        <ele>1519.8</ele>
        <time>2024-08-11T09:09:54Z</time>
      </trkpt>
      <trkpt lat="44.97043" lon="6.49957">
        <ele>1519.8</ele>
        <time>2024-08-11T09:09:55Z</time>
      </trkpt>
      <trkpt lat="44.97043" lon="6.49957">
        <ele>1519.8</ele>
        <time>2024-08-11T09:09:56Z</time>
      </trkpt>
      <trkpt lat="44.97043" lon="6.49957">
        <ele>1519.8</ele>
        <time>2024-08-11T09:09:57Z</time>
      </trkpt>
      <trkpt lat="44.97043" lon="6.49957">
        <ele>1519.6</ele>
        <time>2024-08-11T09:09:58Z</time>
      </trkpt>
      <trkpt lat="44.97043" lon="6.49957">
        <ele>1519.6</ele>
        <time>2024-08-11T09:09:59Z</time>
      </trkpt>
      <trkpt lat="44.97043" lon="6.49957">
        <ele>1519.6</ele>
        <time>2024-08-11T09:10:00Z</time>
      </trkpt>
      <trkpt lat="44.97043" lon="6.49957">
        <ele>1519.6</ele>
        <time>2024-08-11T09:10:01Z</time>
      </trkpt>
      <trkpt lat="44.97043" lon="6.49957">
        <ele>1519.4</ele>
        <time>2024-08-11T09:10:02Z</time>
      </trkpt>
      <trkpt lat="44.97043" lon="6.49957">
        <ele>1519.4</ele>
        <time>2024-08-11T09:10:03Z</time>
      </trkpt>
      <trkpt lat="44.97043" lon="6.49957">
        <ele>1519.4</ele>
        <time>2024-08-11T09:10:04Z</time>
      </trkpt>
      <trkpt lat="44.97043" lon="6.49957">
        <ele>1519.2</ele>
        <time>2024-08-11T09:10:05Z</time>
      </trkpt>
      <trkpt lat="44.97043" lon="6.49957">
        <ele>1519.2</ele>
        <time>2024-08-11T09:10:06Z</time>
      </trkpt>
      <trkpt lat="44.97043" lon="6.49957">
        <ele>1519.2</ele>
        <time>2024-08-11T09:10:07Z</time>
      </trkpt>
      <trkpt lat="44.97043" lon="6.49957">
        <ele>1519.2</ele>
        <time>2024-08-11T09:10:08Z</time>
      </trkpt>
      <trkpt lat="44.97043" lon="6.49957">
        <ele>1519.2</ele>
        <time>2024-08-11T09:10:09Z</time>
      </trkpt>
      <trkpt lat="44.97043" lon="6.49957">
        <ele>1519.2</ele>
        <time>2024-08-11T09:10:10Z</time>
      </trkpt>
      <trkpt lat="44.97043" lon="6.49957">
        <ele>1519.2</ele>
        <time>2024-08-11T09:10:11Z</time>
      </trkpt>
      <trkpt lat="44.97043" lon="6.49957">
        <ele>1519</ele>
        <time>2024-08-11T09:10:12Z</time>
      </trkpt>
      <trkpt lat="44.97043" lon="6.49957">
        <ele>1519</ele>
        <time>2024-08-11T09:10:13Z</time>
      </trkpt>
      <trkpt lat="44.97043" lon="6.49957">
        <ele>1519</ele>
        <time>2024-08-11T09:10:14Z</time>
      </trkpt>
      <trkpt lat="44.97043" lon="6.49957">
        <ele>1519.2</ele>
        <time>2024-08-11T09:10:15Z</time>
      </trkpt>
      <trkpt lat="44.97043" lon="6.49957">
        <ele>1519</ele>
        <time>2024-08-11T09:10:16Z</time>
      </trkpt>
      <trkpt lat="44.97043" lon="6.49957">
        <ele>1519</ele>
        <time>2024-08-11T09:10:17Z</time>
      </trkpt>
      <trkpt lat="44.97043" lon="6.49957">
        <ele>1519</ele>
        <time>2024-08-11T09:10:18Z</time>
      </trkpt>
      <trkpt lat="44.97043" lon="6.49957">
        <ele>1519</ele>
        <time>2024-08-11T09:10:19Z</time>
      </trkpt>
      <trkpt lat="44.97043" lon="6.49957">
        <ele>1519</ele>
        <time>2024-08-11T09:10:20Z</time>
      </trkpt>
      <trkpt lat="44.97043" lon="6.49957">
        <ele>1519.2</ele>
        <time>2024-08-11T09:10:21Z</time>
      </trkpt>
      <trkpt lat="44.97043" lon="6.49957">
        <ele>1519.4</ele>
        <time>2024-08-11T09:10:22Z</time>
      </trkpt>
      <trkpt lat="44.97043" lon="6.49959">
        <ele>1519.4</ele>
        <time>2024-08-11T09:10:23Z</time>
      </trkpt>
      <trkpt lat="44.97043" lon="6.49959">
        <ele>1519.4</ele>
        <time>2024-08-11T09:10:24Z</time>
      </trkpt>
      <trkpt lat="44.97041" lon="6.49963">
        <ele>1519.6</ele>
        <time>2024-08-11T09:10:25Z</time>
      </trkpt>
      <trkpt lat="44.97041" lon="6.49963">
        <ele>1519.6</ele>
        <time>2024-08-11T09:10:26Z</time>
      </trkpt>
      <trkpt lat="44.97039" lon="6.49967">
        <ele>1519.6</ele>
        <time>2024-08-11T09:10:27Z</time>
      </trkpt>
      <trkpt lat="44.97039" lon="6.49967">
        <ele>1519.8</ele>
        <time>2024-08-11T09:10:28Z</time>
      </trkpt>
      <trkpt lat="44.97038" lon="6.4997">
        <ele>1519.8</ele>
        <time>2024-08-11T09:10:29Z</time>
      </trkpt>
      <trkpt lat="44.97038" lon="6.4997">
        <ele>1519.8</ele>
        <time>2024-08-11T09:10:30Z</time>
      </trkpt>
      <trkpt lat="44.97038" lon="6.49973">
        <ele>1520</ele>
        <time>2024-08-11T09:10:31Z</time>
      </trkpt>
      <trkpt lat="44.97038" lon="6.49973">
        <ele>1520</ele>
        <time>2024-08-11T09:10:32Z</time>
      </trkpt>
      <trkpt lat="44.97037" lon="6.49976">
        <ele>1520</ele>
        <time>2024-08-11T09:10:33Z</time>
      </trkpt>
      <trkpt lat="44.97037" lon="6.49976">
        <ele>1520</ele>
        <time>2024-08-11T09:10:34Z</time>
      </trkpt>
      <trkpt lat="44.97037" lon="6.49976">
        <ele>1520</ele>
        <time>2024-08-11T09:10:35Z</time>
      </trkpt>
      <trkpt lat="44.97037" lon="6.49976">
        <ele>1520</ele>
        <time>2024-08-11T09:10:36Z</time>
      </trkpt>
      <trkpt lat="44.97037" lon="6.49976">
        <ele>1520.2</ele>
        <time>2024-08-11T09:10:37Z</time>
      </trkpt>
      <trkpt lat="44.97037" lon="6.49976">
        <ele>1520.2</ele>
        <time>2024-08-11T09:10:38Z</time>
      </trkpt>
      <trkpt lat="44.97037" lon="6.49976">
        <ele>1520.2</ele>
        <time>2024-08-11T09:10:39Z</time>
      </trkpt>
      <trkpt lat="44.97037" lon="6.49976">
        <ele>1520.2</ele>
        <time>2024-08-11T09:10:40Z</time>
      </trkpt>
      <trkpt lat="44.97037" lon="6.49976">
        <ele>1520.4</ele>
        <time>2024-08-11T09:10:41Z</time>
      </trkpt>
      <trkpt lat="44.97037" lon="6.49976">
        <ele>1520.4</ele>
        <time>2024-08-11T09:10:42Z</time>
      </trkpt>
      <trkpt lat="44.97037" lon="6.49981">
        <ele>1520.2</ele>
        <time>2024-08-11T09:10:43Z</time>
      </trkpt>
      <trkpt lat="44.97037" lon="6.49981">
        <ele>1520.2</ele>
        <time>2024-08-11T09:10:44Z</time>
      </trkpt>
      <trkpt lat="44.97037" lon="6.49985">
        <ele>1520.4</ele>
        <time>2024-08-11T09:10:45Z</time>
      </trkpt>
      <trkpt lat="44.97036" lon="6.49986">
        <ele>1520.4</ele>
        <time>2024-08-11T09:10:46Z</time>
      </trkpt>
      <trkpt lat="44.97036" lon="6.49986">
        <ele>1520.8</ele>
        <time>2024-08-11T09:10:47Z</time>
      </trkpt>
      <trkpt lat="44.97036" lon="6.49989">
        <ele>1520.8</ele>
        <time>2024-08-11T09:10:48Z</time>
      </trkpt>
      <trkpt lat="44.97036" lon="6.49989">
        <ele>1520.8</ele>
        <time>2024-08-11T09:10:49Z</time>
      </trkpt>
      <trkpt lat="44.97035" lon="6.49993">
        <ele>1520.8</ele>
        <time>2024-08-11T09:10:50Z</time>
      </trkpt>
      <trkpt lat="44.97035" lon="6.49993">
        <ele>1520.8</ele>
        <time>2024-08-11T09:10:51Z</time>
      </trkpt>
      <trkpt lat="44.97035" lon="6.49993">
        <ele>1521</ele>
        <time>2024-08-11T09:10:52Z</time>
      </trkpt>
      <trkpt lat="44.97034" lon="6.49997">
        <ele>1521</ele>
        <time>2024-08-11T09:10:53Z</time>
      </trkpt>
      <trkpt lat="44.97033" lon="6.49998">
        <ele>1521.2</ele>
        <time>2024-08-11T09:10:54Z</time>
      </trkpt>
      <trkpt lat="44.97033" lon="6.49998">
        <ele>1521.4</ele>
        <time>2024-08-11T09:10:55Z</time>
      </trkpt>
      <trkpt lat="44.97033" lon="6.50002">
        <ele>1521.4</ele>
        <time>2024-08-11T09:10:56Z</time>
      </trkpt>
      <trkpt lat="44.97033" lon="6.50002">
        <ele>1521.4</ele>
        <time>2024-08-11T09:10:57Z</time>
      </trkpt>
      <trkpt lat="44.97032" lon="6.50005">
        <ele>1521.4</ele>
        <time>2024-08-11T09:10:58Z</time>
      </trkpt>
      <trkpt lat="44.97032" lon="6.50005">
        <ele>1521.6</ele>
        <time>2024-08-11T09:10:59Z</time>
      </trkpt>
      <trkpt lat="44.97031" lon="6.50008">
        <ele>1521.6</ele>
        <time>2024-08-11T09:11:00Z</time>
      </trkpt>
      <trkpt lat="44.97031" lon="6.50008">
        <ele>1521.6</ele>
        <time>2024-08-11T09:11:01Z</time>
      </trkpt>
      <trkpt lat="44.9703" lon="6.50011">
        <ele>1521.8</ele>
        <time>2024-08-11T09:11:02Z</time>
      </trkpt>
      <trkpt lat="44.9703" lon="6.50011">
        <ele>1521.8</ele>
        <time>2024-08-11T09:11:03Z</time>
      </trkpt>
      <trkpt lat="44.97029" lon="6.50015">
        <ele>1521.8</ele>
        <time>2024-08-11T09:11:04Z</time>
      </trkpt>
      <trkpt lat="44.97029" lon="6.50015">
        <ele>1521.8</ele>
        <time>2024-08-11T09:11:05Z</time>
      </trkpt>
      <trkpt lat="44.97029" lon="6.50018">
        <ele>1521.8</ele>
        <time>2024-08-11T09:11:06Z</time>
      </trkpt>
      <trkpt lat="44.97029" lon="6.50018">
        <ele>1521.8</ele>
        <time>2024-08-11T09:11:07Z</time>
      </trkpt>
      <trkpt lat="44.97028" lon="6.50022">
        <ele>1521.8</ele>
        <time>2024-08-11T09:11:08Z</time>
      </trkpt>
      <trkpt lat="44.97028" lon="6.50022">
        <ele>1522</ele>
        <time>2024-08-11T09:11:09Z</time>
      </trkpt>
      <trkpt lat="44.97028" lon="6.50025">
        <ele>1522.2</ele>
        <time>2024-08-11T09:11:10Z</time>
      </trkpt>
      <trkpt lat="44.97028" lon="6.50025">
        <ele>1522.4</ele>
        <time>2024-08-11T09:11:11Z</time>
      </trkpt>
      <trkpt lat="44.97028" lon="6.50029">
        <ele>1522.4</ele>
        <time>2024-08-11T09:11:12Z</time>
      </trkpt>
      <trkpt lat="44.97028" lon="6.50029">
        <ele>1522.4</ele>
        <time>2024-08-11T09:11:13Z</time>
      </trkpt>
      <trkpt lat="44.97028" lon="6.50032">
        <ele>1522.4</ele>
        <time>2024-08-11T09:11:14Z</time>
      </trkpt>
      <trkpt lat="44.97028" lon="6.50032">
        <ele>1522.4</ele>
        <time>2024-08-11T09:11:15Z</time>
      </trkpt>
      <trkpt lat="44.97027" lon="6.50036">
        <ele>1522.6</ele>
        <time>2024-08-11T09:11:16Z</time>
      </trkpt>
      <trkpt lat="44.97027" lon="6.50036">
        <ele>1522.6</ele>
        <time>2024-08-11T09:11:17Z</time>
      </trkpt>
      <trkpt lat="44.97027" lon="6.5004">
        <ele>1522.6</ele>
        <time>2024-08-11T09:11:18Z</time>
      </trkpt>
      <trkpt lat="44.97027" lon="6.5004">
        <ele>1522.8</ele>
        <time>2024-08-11T09:11:19Z</time>
      </trkpt>
      <trkpt lat="44.97026" lon="6.50043">
        <ele>1522.8</ele>
        <time>2024-08-11T09:11:20Z</time>
      </trkpt>
      <trkpt lat="44.97026" lon="6.50043">
        <ele>1523</ele>
        <time>2024-08-11T09:11:21Z</time>
      </trkpt>
      <trkpt lat="44.97025" lon="6.50046">
        <ele>1523.4</ele>
        <time>2024-08-11T09:11:22Z</time>
      </trkpt>
      <trkpt lat="44.97025" lon="6.50046">
        <ele>1523.4</ele>
        <time>2024-08-11T09:11:23Z</time>
      </trkpt>
      <trkpt lat="44.97024" lon="6.5005">
        <ele>1523.4</ele>
        <time>2024-08-11T09:11:24Z</time>
      </trkpt>
      <trkpt lat="44.97024" lon="6.5005">
        <ele>1523.6</ele>
        <time>2024-08-11T09:11:25Z</time>
      </trkpt>
      <trkpt lat="44.97023" lon="6.50053">
        <ele>1523.6</ele>
        <time>2024-08-11T09:11:26Z</time>
      </trkpt>
      <trkpt lat="44.97023" lon="6.50053">
        <ele>1523.6</ele>
        <time>2024-08-11T09:11:27Z</time>
      </trkpt>
      <trkpt lat="44.97023" lon="6.50057">
        <ele>1523.6</ele>
        <time>2024-08-11T09:11:28Z</time>
      </trkpt>
      <trkpt lat="44.97023" lon="6.50057">
        <ele>1523.8</ele>
        <time>2024-08-11T09:11:29Z</time>
      </trkpt>
      <trkpt lat="44.97022" lon="6.5006">
        <ele>1524</ele>
        <time>2024-08-11T09:11:30Z</time>
      </trkpt>
      <trkpt lat="44.97022" lon="6.5006">
        <ele>1524</ele>
        <time>2024-08-11T09:11:31Z</time>
      </trkpt>
      <trkpt lat="44.97021" lon="6.50063">
        <ele>1524</ele>
        <time>2024-08-11T09:11:32Z</time>
      </trkpt>
      <trkpt lat="44.97021" lon="6.50063">
        <ele>1524.2</ele>
        <time>2024-08-11T09:11:33Z</time>
      </trkpt>
      <trkpt lat="44.9702" lon="6.50066">
        <ele>1524.4</ele>
        <time>2024-08-11T09:11:34Z</time>
      </trkpt>
      <trkpt lat="44.9702" lon="6.50066">
        <ele>1524.4</ele>
        <time>2024-08-11T09:11:35Z</time>
      </trkpt>
      <trkpt lat="44.97018" lon="6.50069">
        <ele>1524.2</ele>
        <time>2024-08-11T09:11:36Z</time>
      </trkpt>
      <trkpt lat="44.97018" lon="6.50069">
        <ele>1524.2</ele>
        <time>2024-08-11T09:11:37Z</time>
      </trkpt>
      <trkpt lat="44.97017" lon="6.50072">
        <ele>1524.6</ele>
        <time>2024-08-11T09:11:38Z</time>
      </trkpt>
      <trkpt lat="44.97017" lon="6.50072">
        <ele>1524.6</ele>
        <time>2024-08-11T09:11:39Z</time>
      </trkpt>
      <trkpt lat="44.97017" lon="6.50076">
        <ele>1524.6</ele>
        <time>2024-08-11T09:11:40Z</time>
      </trkpt>
      <trkpt lat="44.97017" lon="6.50076">
        <ele>1524.8</ele>
        <time>2024-08-11T09:11:41Z</time>
      </trkpt>
      <trkpt lat="44.97016" lon="6.50079">
        <ele>1524.8</ele>
        <time>2024-08-11T09:11:42Z</time>
      </trkpt>
      <trkpt lat="44.97016" lon="6.50079">
        <ele>1524.8</ele>
        <time>2024-08-11T09:11:43Z</time>
      </trkpt>
      <trkpt lat="44.97015" lon="6.50082">
        <ele>1525</ele>
        <time>2024-08-11T09:11:44Z</time>
      </trkpt>
      <trkpt lat="44.97015" lon="6.50082">
        <ele>1525</ele>
        <time>2024-08-11T09:11:45Z</time>
      </trkpt>
      <trkpt lat="44.97014" lon="6.50086">
        <ele>1525</ele>
        <time>2024-08-11T09:11:46Z</time>
      </trkpt>
      <trkpt lat="44.97014" lon="6.50086">
        <ele>1525</ele>
        <time>2024-08-11T09:11:47Z</time>
      </trkpt>
      <trkpt lat="44.97013" lon="6.50089">
        <ele>1525.2</ele>
        <time>2024-08-11T09:11:48Z</time>
      </trkpt>
      <trkpt lat="44.97013" lon="6.50089">
        <ele>1525.2</ele>
        <time>2024-08-11T09:11:49Z</time>
      </trkpt>
      <trkpt lat="44.97013" lon="6.50093">
        <ele>1525.2</ele>
        <time>2024-08-11T09:11:50Z</time>
      </trkpt>
      <trkpt lat="44.97013" lon="6.50093">
        <ele>1525.2</ele>
        <time>2024-08-11T09:11:51Z</time>
      </trkpt>
      <trkpt lat="44.97013" lon="6.50096">
        <ele>1525.2</ele>
        <time>2024-08-11T09:11:52Z</time>
      </trkpt>
      <trkpt lat="44.97013" lon="6.50096">
        <ele>1525.4</ele>
        <time>2024-08-11T09:11:53Z</time>
      </trkpt>
      <trkpt lat="44.97012" lon="6.501">
        <ele>1525.6</ele>
        <time>2024-08-11T09:11:54Z</time>
      </trkpt>
      <trkpt lat="44.97012" lon="6.501">
        <ele>1525.6</ele>
        <time>2024-08-11T09:11:55Z</time>
      </trkpt>
      <trkpt lat="44.97011" lon="6.50103">
        <ele>1525.6</ele>
        <time>2024-08-11T09:11:56Z</time>
      </trkpt>
      <trkpt lat="44.97011" lon="6.50103">
        <ele>1525.8</ele>
        <time>2024-08-11T09:11:57Z</time>
      </trkpt>
      <trkpt lat="44.97009" lon="6.50106">
        <ele>1525.8</ele>
        <time>2024-08-11T09:11:58Z</time>
      </trkpt>
      <trkpt lat="44.97009" lon="6.50106">
        <ele>1526</ele>
        <time>2024-08-11T09:11:59Z</time>
      </trkpt>
      <trkpt lat="44.97007" lon="6.50111">
        <ele>1526.2</ele>
        <time>2024-08-11T09:12:00Z</time>
      </trkpt>
      <trkpt lat="44.97007" lon="6.50111">
        <ele>1526.2</ele>
        <time>2024-08-11T09:12:01Z</time>
      </trkpt>
      <trkpt lat="44.97006" lon="6.50114">
        <ele>1526.2</ele>
        <time>2024-08-11T09:12:02Z</time>
      </trkpt>
      <trkpt lat="44.97006" lon="6.50114">
        <ele>1526.4</ele>
        <time>2024-08-11T09:12:03Z</time>
      </trkpt>
      <trkpt lat="44.97004" lon="6.50117">
        <ele>1526.4</ele>
        <time>2024-08-11T09:12:04Z</time>
      </trkpt>
      <trkpt lat="44.97004" lon="6.50117">
        <ele>1526.6</ele>
        <time>2024-08-11T09:12:05Z</time>
      </trkpt>
      <trkpt lat="44.97004" lon="6.50117">
        <ele>1526.6</ele>
        <time>2024-08-11T09:12:06Z</time>
      </trkpt>
      <trkpt lat="44.97003" lon="6.5012">
        <ele>1526.4</ele>
        <time>2024-08-11T09:12:07Z</time>
      </trkpt>
      <trkpt lat="44.97003" lon="6.5012">
        <ele>1526.4</ele>
        <time>2024-08-11T09:12:08Z</time>
      </trkpt>
      <trkpt lat="44.97001" lon="6.50122">
        <ele>1526.4</ele>
        <time>2024-08-11T09:12:09Z</time>
      </trkpt>
      <trkpt lat="44.97001" lon="6.50122">
        <ele>1526.6</ele>
        <time>2024-08-11T09:12:10Z</time>
      </trkpt>
      <trkpt lat="44.96999" lon="6.50124">
        <ele>1526.8</ele>
        <time>2024-08-11T09:12:11Z</time>
      </trkpt>
      <trkpt lat="44.96999" lon="6.50124">
        <ele>1526.8</ele>
        <time>2024-08-11T09:12:12Z</time>
      </trkpt>
      <trkpt lat="44.96997" lon="6.50126">
        <ele>1526.8</ele>
        <time>2024-08-11T09:12:13Z</time>
      </trkpt>
      <trkpt lat="44.96997" lon="6.50126">
        <ele>1527</ele>
        <time>2024-08-11T09:12:14Z</time>
      </trkpt>
      <trkpt lat="44.96997" lon="6.50126">
        <ele>1527.2</ele>
        <time>2024-08-11T09:12:15Z</time>
      </trkpt>
      <trkpt lat="44.96997" lon="6.50126">
        <ele>1527.2</ele>
        <time>2024-08-11T09:12:16Z</time>
      </trkpt>
      <trkpt lat="44.96997" lon="6.50126">
        <ele>1527.4</ele>
        <time>2024-08-11T09:12:17Z</time>
      </trkpt>
      <trkpt lat="44.96997" lon="6.50126">
        <ele>1527.4</ele>
        <time>2024-08-11T09:12:18Z</time>
      </trkpt>
      <trkpt lat="44.96997" lon="6.50126">
        <ele>1527.6</ele>
        <time>2024-08-11T09:12:19Z</time>
      </trkpt>
      <trkpt lat="44.96997" lon="6.50126">
        <ele>1527.6</ele>
        <time>2024-08-11T09:12:20Z</time>
      </trkpt>
      <trkpt lat="44.96997" lon="6.50126">
        <ele>1527.8</ele>
        <time>2024-08-11T09:12:21Z</time>
      </trkpt>
      <trkpt lat="44.96995" lon="6.50127">
        <ele>1527.8</ele>
        <time>2024-08-11T09:12:22Z</time>
      </trkpt>
      <trkpt lat="44.96995" lon="6.50127">
        <ele>1527.8</ele>
        <time>2024-08-11T09:12:23Z</time>
      </trkpt>
      <trkpt lat="44.96992" lon="6.50129">
        <ele>1527.6</ele>
        <time>2024-08-11T09:12:24Z</time>
      </trkpt>
      <trkpt lat="44.96992" lon="6.50129">
        <ele>1527.6</ele>
        <time>2024-08-11T09:12:25Z</time>
      </trkpt>
      <trkpt lat="44.96989" lon="6.50129">
        <ele>1527.8</ele>
        <time>2024-08-11T09:12:26Z</time>
      </trkpt>
      <trkpt lat="44.96989" lon="6.50129">
        <ele>1528</ele>
        <time>2024-08-11T09:12:27Z</time>
      </trkpt>
      <trkpt lat="44.96987" lon="6.50128">
        <ele>1528</ele>
        <time>2024-08-11T09:12:28Z</time>
      </trkpt>
      <trkpt lat="44.96987" lon="6.50128">
        <ele>1528.2</ele>
        <time>2024-08-11T09:12:29Z</time>
      </trkpt>
      <trkpt lat="44.96987" lon="6.50128">
        <ele>1528.6</ele>
        <time>2024-08-11T09:12:30Z</time>
      </trkpt>
      <trkpt lat="44.96987" lon="6.50128">
        <ele>1529</ele>
        <time>2024-08-11T09:12:31Z</time>
      </trkpt>
      <trkpt lat="44.96985" lon="6.5013">
        <ele>1529</ele>
        <time>2024-08-11T09:12:32Z</time>
      </trkpt>
      <trkpt lat="44.96985" lon="6.5013">
        <ele>1529.4</ele>
        <time>2024-08-11T09:12:33Z</time>
      </trkpt>
      <trkpt lat="44.96985" lon="6.5013">
        <ele>1529.8</ele>
        <time>2024-08-11T09:12:34Z</time>
      </trkpt>
      <trkpt lat="44.96983" lon="6.5013">
        <ele>1529.8</ele>
        <time>2024-08-11T09:12:35Z</time>
      </trkpt>
      <trkpt lat="44.96983" lon="6.5013">
        <ele>1529.8</ele>
        <time>2024-08-11T09:12:36Z</time>
      </trkpt>
      <trkpt lat="44.96981" lon="6.50128">
        <ele>1530.2</ele>
        <time>2024-08-11T09:12:37Z</time>
      </trkpt>
      <trkpt lat="44.96981" lon="6.50128">
        <ele>1530.4</ele>
        <time>2024-08-11T09:12:38Z</time>
      </trkpt>
      <trkpt lat="44.96981" lon="6.50128">
        <ele>1530.6</ele>
        <time>2024-08-11T09:12:39Z</time>
      </trkpt>
      <trkpt lat="44.96979" lon="6.50127">
        <ele>1530.8</ele>
        <time>2024-08-11T09:12:40Z</time>
      </trkpt>
      <trkpt lat="44.96979" lon="6.50127">
        <ele>1531</ele>
        <time>2024-08-11T09:12:41Z</time>
      </trkpt>
      <trkpt lat="44.96979" lon="6.50127">
        <ele>1531.6</ele>
        <time>2024-08-11T09:12:42Z</time>
      </trkpt>
      <trkpt lat="44.96978" lon="6.50125">
        <ele>1531.8</ele>
        <time>2024-08-11T09:12:43Z</time>
      </trkpt>
      <trkpt lat="44.96978" lon="6.50125">
        <ele>1531.8</ele>
        <time>2024-08-11T09:12:44Z</time>
      </trkpt>
      <trkpt lat="44.96978" lon="6.50125">
        <ele>1532.4</ele>
        <time>2024-08-11T09:12:45Z</time>
      </trkpt>
      <trkpt lat="44.96978" lon="6.50125">
        <ele>1532.4</ele>
        <time>2024-08-11T09:12:46Z</time>
      </trkpt>
      <trkpt lat="44.96979" lon="6.50122">
        <ele>1532.6</ele>
        <time>2024-08-11T09:12:47Z</time>
      </trkpt>
      <trkpt lat="44.96979" lon="6.50122">
        <ele>1532.8</ele>
        <time>2024-08-11T09:12:48Z</time>
      </trkpt>
      <trkpt lat="44.96979" lon="6.50122">
        <ele>1533</ele>
        <time>2024-08-11T09:12:49Z</time>
      </trkpt>
      <trkpt lat="44.9698" lon="6.5012">
        <ele>1533</ele>
        <time>2024-08-11T09:12:50Z</time>
      </trkpt>
      <trkpt lat="44.9698" lon="6.5012">
        <ele>1533.2</ele>
        <time>2024-08-11T09:12:51Z</time>
      </trkpt>
      <trkpt lat="44.9698" lon="6.5012">
        <ele>1533.6</ele>
        <time>2024-08-11T09:12:52Z</time>
      </trkpt>
      <trkpt lat="44.9698" lon="6.5012">
        <ele>1533.6</ele>
        <time>2024-08-11T09:12:53Z</time>
      </trkpt>
      <trkpt lat="44.9698" lon="6.50117">
        <ele>1534</ele>
        <time>2024-08-11T09:12:54Z</time>
      </trkpt>
      <trkpt lat="44.9698" lon="6.50117">
        <ele>1534.2</ele>
        <time>2024-08-11T09:12:55Z</time>
      </trkpt>
      <trkpt lat="44.96981" lon="6.50115">
        <ele>1534.2</ele>
        <time>2024-08-11T09:12:56Z</time>
      </trkpt>
      <trkpt lat="44.96981" lon="6.50115">
        <ele>1534.6</ele>
        <time>2024-08-11T09:12:57Z</time>
      </trkpt>
      <trkpt lat="44.96981" lon="6.50115">
        <ele>1534.6</ele>
        <time>2024-08-11T09:12:58Z</time>
      </trkpt>
      <trkpt lat="44.96981" lon="6.50115">
        <ele>1534.8</ele>
        <time>2024-08-11T09:12:59Z</time>
      </trkpt>
      <trkpt lat="44.96981" lon="6.50115">
        <ele>1534.8</ele>
        <time>2024-08-11T09:13:00Z</time>
      </trkpt>
      <trkpt lat="44.9698" lon="6.50114">
        <ele>1535</ele>
        <time>2024-08-11T09:13:01Z</time>
      </trkpt>
      <trkpt lat="44.9698" lon="6.50114">
        <ele>1535.4</ele>
        <time>2024-08-11T09:13:02Z</time>
      </trkpt>
      <trkpt lat="44.9698" lon="6.50114">
        <ele>1535.6</ele>
        <time>2024-08-11T09:13:03Z</time>
      </trkpt>
      <trkpt lat="44.9698" lon="6.50114">
        <ele>1535.8</ele>
        <time>2024-08-11T09:13:04Z</time>
      </trkpt>
      <trkpt lat="44.96978" lon="6.50113">
        <ele>1536</ele>
        <time>2024-08-11T09:13:05Z</time>
      </trkpt>
      <trkpt lat="44.96978" lon="6.50113">
        <ele>1536.2</ele>
        <time>2024-08-11T09:13:06Z</time>
      </trkpt>
      <trkpt lat="44.96978" lon="6.50113">
        <ele>1536.4</ele>
        <time>2024-08-11T09:13:07Z</time>
      </trkpt>
      <trkpt lat="44.96978" lon="6.50113">
        <ele>1536.6</ele>
        <time>2024-08-11T09:13:08Z</time>
      </trkpt>
      <trkpt lat="44.96978" lon="6.50113">
        <ele>1537</ele>
        <time>2024-08-11T09:13:09Z</time>
      </trkpt>
      <trkpt lat="44.96978" lon="6.50113">
        <ele>1537.4</ele>
        <time>2024-08-11T09:13:10Z</time>
      </trkpt>
      <trkpt lat="44.96977" lon="6.50111">
        <ele>1537.6</ele>
        <time>2024-08-11T09:13:11Z</time>
      </trkpt>
      <trkpt lat="44.96977" lon="6.50111">
        <ele>1537.8</ele>
        <time>2024-08-11T09:13:12Z</time>
      </trkpt>
      <trkpt lat="44.96977" lon="6.50111">
        <ele>1537.8</ele>
        <time>2024-08-11T09:13:13Z</time>
      </trkpt>
      <trkpt lat="44.96976" lon="6.50107">
        <ele>1537.8</ele>
        <time>2024-08-11T09:13:14Z</time>
      </trkpt>
      <trkpt lat="44.96976" lon="6.50107">
        <ele>1537.8</ele>
        <time>2024-08-11T09:13:15Z</time>
      </trkpt>
      <trkpt lat="44.96976" lon="6.50107">
        <ele>1538.2</ele>
        <time>2024-08-11T09:13:16Z</time>
      </trkpt>
      <trkpt lat="44.96974" lon="6.50105">
        <ele>1538.4</ele>
        <time>2024-08-11T09:13:17Z</time>
      </trkpt>
      <trkpt lat="44.96974" lon="6.50105">
        <ele>1538.8</ele>
        <time>2024-08-11T09:13:18Z</time>
      </trkpt>
      <trkpt lat="44.96973" lon="6.50101">
        <ele>1539</ele>
        <time>2024-08-11T09:13:19Z</time>
      </trkpt>
      <trkpt lat="44.96973" lon="6.50101">
        <ele>1539</ele>
        <time>2024-08-11T09:13:20Z</time>
      </trkpt>
      <trkpt lat="44.96973" lon="6.50101">
        <ele>1539</ele>
        <time>2024-08-11T09:13:21Z</time>
      </trkpt>
      <trkpt lat="44.9697" lon="6.50099">
        <ele>1539.2</ele>
        <time>2024-08-11T09:13:22Z</time>
      </trkpt>
      <trkpt lat="44.9697" lon="6.50099">
        <ele>1539.2</ele>
        <time>2024-08-11T09:13:23Z</time>
      </trkpt>
      <trkpt lat="44.9697" lon="6.50099">
        <ele>1539.4</ele>
        <time>2024-08-11T09:13:24Z</time>
      </trkpt>
      <trkpt lat="44.9697" lon="6.50096">
        <ele>1539.6</ele>
        <time>2024-08-11T09:13:25Z</time>
      </trkpt>
      <trkpt lat="44.9697" lon="6.50096">
        <ele>1539.8</ele>
        <time>2024-08-11T09:13:26Z</time>
      </trkpt>
      <trkpt lat="44.9697" lon="6.50096">
        <ele>1539.8</ele>
        <time>2024-08-11T09:13:27Z</time>
      </trkpt>
      <trkpt lat="44.96971" lon="6.50095">
        <ele>1540.2</ele>
        <time>2024-08-11T09:13:28Z</time>
      </trkpt>
      <trkpt lat="44.96971" lon="6.50095">
        <ele>1540.4</ele>
        <time>2024-08-11T09:13:29Z</time>
      </trkpt>
      <trkpt lat="44.96971" lon="6.50095">
        <ele>1540.6</ele>
        <time>2024-08-11T09:13:30Z</time>
      </trkpt>
      <trkpt lat="44.96972" lon="6.50091">
        <ele>1540.6</ele>
        <time>2024-08-11T09:13:31Z</time>
      </trkpt>
      <trkpt lat="44.96972" lon="6.50091">
        <ele>1540.8</ele>
        <time>2024-08-11T09:13:32Z</time>
      </trkpt>
      <trkpt lat="44.96972" lon="6.50091">
        <ele>1541.2</ele>
        <time>2024-08-11T09:13:33Z</time>
      </trkpt>
      <trkpt lat="44.96972" lon="6.50087">
        <ele>1541.4</ele>
        <time>2024-08-11T09:13:34Z</time>
      </trkpt>
      <trkpt lat="44.96972" lon="6.50087">
        <ele>1541.8</ele>
        <time>2024-08-11T09:13:35Z</time>
      </trkpt>
      <trkpt lat="44.96972" lon="6.50084">
        <ele>1542</ele>
        <time>2024-08-11T09:13:36Z</time>
      </trkpt>
      <trkpt lat="44.96972" lon="6.50084">
        <ele>1542</ele>
        <time>2024-08-11T09:13:37Z</time>
      </trkpt>
      <trkpt lat="44.96973" lon="6.50081">
        <ele>1542.2</ele>
        <time>2024-08-11T09:13:38Z</time>
      </trkpt>
      <trkpt lat="44.96973" lon="6.50081">
        <ele>1542.4</ele>
        <time>2024-08-11T09:13:39Z</time>
      </trkpt>
      <trkpt lat="44.96973" lon="6.50081">
        <ele>1542.4</ele>
        <time>2024-08-11T09:13:40Z</time>
      </trkpt>
      <trkpt lat="44.96973" lon="6.50078">
        <ele>1542.4</ele>
        <time>2024-08-11T09:13:41Z</time>
      </trkpt>
      <trkpt lat="44.96973" lon="6.50078">
        <ele>1542.6</ele>
        <time>2024-08-11T09:13:42Z</time>
      </trkpt>
      <trkpt lat="44.96973" lon="6.50078">
        <ele>1543</ele>
        <time>2024-08-11T09:13:43Z</time>
      </trkpt>
      <trkpt lat="44.96973" lon="6.50075">
        <ele>1543.2</ele>
        <time>2024-08-11T09:13:44Z</time>
      </trkpt>
      <trkpt lat="44.96973" lon="6.50075">
        <ele>1543.2</ele>
        <time>2024-08-11T09:13:45Z</time>
      </trkpt>
      <trkpt lat="44.96973" lon="6.50075">
        <ele>1543.6</ele>
        <time>2024-08-11T09:13:46Z</time>
      </trkpt>
      <trkpt lat="44.96973" lon="6.50072">
        <ele>1543.6</ele>
        <time>2024-08-11T09:13:47Z</time>
      </trkpt>
      <trkpt lat="44.96973" lon="6.50072">
        <ele>1543.6</ele>
        <time>2024-08-11T09:13:48Z</time>
      </trkpt>
      <trkpt lat="44.96973" lon="6.50072">
        <ele>1544</ele>
        <time>2024-08-11T09:13:49Z</time>
      </trkpt>
      <trkpt lat="44.96973" lon="6.50072">
        <ele>1544.2</ele>
        <time>2024-08-11T09:13:50Z</time>
      </trkpt>
      <trkpt lat="44.96972" lon="6.50069">
        <ele>1544.4</ele>
        <time>2024-08-11T09:13:51Z</time>
      </trkpt>
      <trkpt lat="44.96972" lon="6.50069">
        <ele>1544.4</ele>
        <time>2024-08-11T09:13:52Z</time>
      </trkpt>
      <trkpt lat="44.96972" lon="6.50069">
        <ele>1544.8</ele>
        <time>2024-08-11T09:13:53Z</time>
      </trkpt>
      <trkpt lat="44.96972" lon="6.50069">
        <ele>1545</ele>
        <time>2024-08-11T09:13:54Z</time>
      </trkpt>
      <trkpt lat="44.9697" lon="6.50068">
        <ele>1545</ele>
        <time>2024-08-11T09:13:55Z</time>
      </trkpt>
      <trkpt lat="44.9697" lon="6.50068">
        <ele>1545</ele>
        <time>2024-08-11T09:13:56Z</time>
      </trkpt>
      <trkpt lat="44.9697" lon="6.50068">
        <ele>1545</ele>
        <time>2024-08-11T09:13:57Z</time>
      </trkpt>
      <trkpt lat="44.96969" lon="6.50065">
        <ele>1545.4</ele>
        <time>2024-08-11T09:13:58Z</time>
      </trkpt>
      <trkpt lat="44.96969" lon="6.50065">
        <ele>1545.8</ele>
        <time>2024-08-11T09:13:59Z</time>
      </trkpt>
      <trkpt lat="44.96969" lon="6.50065">
        <ele>1546</ele>
        <time>2024-08-11T09:14:00Z</time>
      </trkpt>
      <trkpt lat="44.96969" lon="6.50062">
        <ele>1546</ele>
        <time>2024-08-11T09:14:01Z</time>
      </trkpt>
      <trkpt lat="44.96969" lon="6.50062">
        <ele>1546.2</ele>
        <time>2024-08-11T09:14:02Z</time>
      </trkpt>
      <trkpt lat="44.96969" lon="6.50062">
        <ele>1546.2</ele>
        <time>2024-08-11T09:14:03Z</time>
      </trkpt>
      <trkpt lat="44.9697" lon="6.50059">
        <ele>1546.4</ele>
        <time>2024-08-11T09:14:04Z</time>
      </trkpt>
      <trkpt lat="44.9697" lon="6.50059">
        <ele>1546.6</ele>
        <time>2024-08-11T09:14:05Z</time>
      </trkpt>
      <trkpt lat="44.96971" lon="6.50056">
        <ele>1546.8</ele>
        <time>2024-08-11T09:14:06Z</time>
      </trkpt>
      <trkpt lat="44.96971" lon="6.50056">
        <ele>1546.8</ele>
        <time>2024-08-11T09:14:07Z</time>
      </trkpt>
      <trkpt lat="44.96971" lon="6.50056">
        <ele>1546.8</ele>
        <time>2024-08-11T09:14:08Z</time>
      </trkpt>
      <trkpt lat="44.96971" lon="6.50053">
        <ele>1546.8</ele>
        <time>2024-08-11T09:14:09Z</time>
      </trkpt>
      <trkpt lat="44.96971" lon="6.50053">
        <ele>1547</ele>
        <time>2024-08-11T09:14:10Z</time>
      </trkpt>
      <trkpt lat="44.96971" lon="6.50053">
        <ele>1547.4</ele>
        <time>2024-08-11T09:14:11Z</time>
      </trkpt>
      <trkpt lat="44.96972" lon="6.50049">
        <ele>1547.6</ele>
        <time>2024-08-11T09:14:12Z</time>
      </trkpt>
      <trkpt lat="44.96972" lon="6.50049">
        <ele>1547.6</ele>
        <time>2024-08-11T09:14:13Z</time>
      </trkpt>
      <trkpt lat="44.96973" lon="6.50047">
        <ele>1547.6</ele>
        <time>2024-08-11T09:14:14Z</time>
      </trkpt>
      <trkpt lat="44.96973" lon="6.50047">
        <ele>1548</ele>
        <time>2024-08-11T09:14:15Z</time>
      </trkpt>
      <trkpt lat="44.96973" lon="6.50044">
        <ele>1548.2</ele>
        <time>2024-08-11T09:14:16Z</time>
      </trkpt>
      <trkpt lat="44.96973" lon="6.50044">
        <ele>1548.2</ele>
        <time>2024-08-11T09:14:17Z</time>
      </trkpt>
      <trkpt lat="44.96973" lon="6.50044">
        <ele>1548.2</ele>
        <time>2024-08-11T09:14:18Z</time>
      </trkpt>
      <trkpt lat="44.96974" lon="6.5004">
        <ele>1548.4</ele>
        <time>2024-08-11T09:14:19Z</time>
      </trkpt>
      <trkpt lat="44.96974" lon="6.5004">
        <ele>1548.8</ele>
        <time>2024-08-11T09:14:20Z</time>
      </trkpt>
      <trkpt lat="44.96974" lon="6.50036">
        <ele>1549</ele>
        <time>2024-08-11T09:14:21Z</time>
      </trkpt>
      <trkpt lat="44.96974" lon="6.50036">
        <ele>1549</ele>
        <time>2024-08-11T09:14:22Z</time>
      </trkpt>
      <trkpt lat="44.96974" lon="6.50036">
        <ele>1549.4</ele>
        <time>2024-08-11T09:14:23Z</time>
      </trkpt>
      <trkpt lat="44.96974" lon="6.50036">
        <ele>1549.4</ele>
        <time>2024-08-11T09:14:24Z</time>
      </trkpt>
      <trkpt lat="44.96973" lon="6.50034">
        <ele>1549.4</ele>
        <time>2024-08-11T09:14:25Z</time>
      </trkpt>
      <trkpt lat="44.96973" lon="6.50034">
        <ele>1549.4</ele>
        <time>2024-08-11T09:14:26Z</time>
      </trkpt>
      <trkpt lat="44.96973" lon="6.50034">
        <ele>1549.4</ele>
        <time>2024-08-11T09:14:27Z</time>
      </trkpt>
      <trkpt lat="44.96972" lon="6.50032">
        <ele>1549.6</ele>
        <time>2024-08-11T09:14:28Z</time>
      </trkpt>
      <trkpt lat="44.96972" lon="6.50032">
        <ele>1549.6</ele>
        <time>2024-08-11T09:14:29Z</time>
      </trkpt>
      <trkpt lat="44.9697" lon="6.5003">
        <ele>1549.6</ele>
        <time>2024-08-11T09:14:30Z</time>
      </trkpt>
      <trkpt lat="44.9697" lon="6.5003">
        <ele>1550</ele>
        <time>2024-08-11T09:14:31Z</time>
      </trkpt>
      <trkpt lat="44.96969" lon="6.50027">
        <ele>1550</ele>
        <time>2024-08-11T09:14:32Z</time>
      </trkpt>
      <trkpt lat="44.96969" lon="6.50027">
        <ele>1550.2</ele>
        <time>2024-08-11T09:14:33Z</time>
      </trkpt>
      <trkpt lat="44.96968" lon="6.50025">
        <ele>1550.2</ele>
        <time>2024-08-11T09:14:34Z</time>
      </trkpt>
      <trkpt lat="44.96968" lon="6.50025">
        <ele>1550.4</ele>
        <time>2024-08-11T09:14:35Z</time>
      </trkpt>
      <trkpt lat="44.96966" lon="6.50023">
        <ele>1550.6</ele>
        <time>2024-08-11T09:14:36Z</time>
      </trkpt>
      <trkpt lat="44.96966" lon="6.50023">
        <ele>1550.6</ele>
        <time>2024-08-11T09:14:37Z</time>
      </trkpt>
      <trkpt lat="44.96964" lon="6.50021">
        <ele>1550.8</ele>
        <time>2024-08-11T09:14:38Z</time>
      </trkpt>
      <trkpt lat="44.96964" lon="6.50021">
        <ele>1550.8</ele>
        <time>2024-08-11T09:14:39Z</time>
      </trkpt>
      <trkpt lat="44.96962" lon="6.50018">
        <ele>1550.8</ele>
        <time>2024-08-11T09:14:40Z</time>
      </trkpt>
      <trkpt lat="44.96962" lon="6.50018">
        <ele>1550.8</ele>
        <time>2024-08-11T09:14:41Z</time>
      </trkpt>
      <trkpt lat="44.96962" lon="6.50015">
        <ele>1550.8</ele>
        <time>2024-08-11T09:14:42Z</time>
      </trkpt>
      <trkpt lat="44.96962" lon="6.50015">
        <ele>1551</ele>
        <time>2024-08-11T09:14:43Z</time>
      </trkpt>
      <trkpt lat="44.96962" lon="6.50015">
        <ele>1551.2</ele>
        <time>2024-08-11T09:14:44Z</time>
      </trkpt>
      <trkpt lat="44.96962" lon="6.50012">
        <ele>1551.2</ele>
        <time>2024-08-11T09:14:45Z</time>
      </trkpt>
      <trkpt lat="44.96962" lon="6.50012">
        <ele>1551.2</ele>
        <time>2024-08-11T09:14:46Z</time>
      </trkpt>
      <trkpt lat="44.96962" lon="6.50012">
        <ele>1551.4</ele>
        <time>2024-08-11T09:14:47Z</time>
      </trkpt>
      <trkpt lat="44.96962" lon="6.50009">
        <ele>1551.6</ele>
        <time>2024-08-11T09:14:48Z</time>
      </trkpt>
      <trkpt lat="44.96962" lon="6.50009">
        <ele>1551.8</ele>
        <time>2024-08-11T09:14:49Z</time>
      </trkpt>
      <trkpt lat="44.96962" lon="6.50009">
        <ele>1551.8</ele>
        <time>2024-08-11T09:14:50Z</time>
      </trkpt>
      <trkpt lat="44.96963" lon="6.50006">
        <ele>1551.8</ele>
        <time>2024-08-11T09:14:51Z</time>
      </trkpt>
      <trkpt lat="44.96963" lon="6.50006">
        <ele>1552.2</ele>
        <time>2024-08-11T09:14:52Z</time>
      </trkpt>
      <trkpt lat="44.96963" lon="6.50006">
        <ele>1552.6</ele>
        <time>2024-08-11T09:14:53Z</time>
      </trkpt>
      <trkpt lat="44.96964" lon="6.50003">
        <ele>1552.6</ele>
        <time>2024-08-11T09:14:54Z</time>
      </trkpt>
      <trkpt lat="44.96964" lon="6.50003">
        <ele>1552.8</ele>
        <time>2024-08-11T09:14:55Z</time>
      </trkpt>
      <trkpt lat="44.96964" lon="6.50003">
        <ele>1553.2</ele>
        <time>2024-08-11T09:14:56Z</time>
      </trkpt>
      <trkpt lat="44.96965" lon="6.5">
        <ele>1553.6</ele>
        <time>2024-08-11T09:14:57Z</time>
      </trkpt>
      <trkpt lat="44.96965" lon="6.5">
        <ele>1553.6</ele>
        <time>2024-08-11T09:14:58Z</time>
      </trkpt>
      <trkpt lat="44.96965" lon="6.5">
        <ele>1553.8</ele>
        <time>2024-08-11T09:14:59Z</time>
      </trkpt>
      <trkpt lat="44.96965" lon="6.49996">
        <ele>1554</ele>
        <time>2024-08-11T09:15:00Z</time>
      </trkpt>
      <trkpt lat="44.96965" lon="6.49996">
        <ele>1554</ele>
        <time>2024-08-11T09:15:01Z</time>
      </trkpt>
      <trkpt lat="44.96965" lon="6.49996">
        <ele>1554.2</ele>
        <time>2024-08-11T09:15:02Z</time>
      </trkpt>
      <trkpt lat="44.96965" lon="6.49996">
        <ele>1554.2</ele>
        <time>2024-08-11T09:15:03Z</time>
      </trkpt>
      <trkpt lat="44.96965" lon="6.49996">
        <ele>1554.2</ele>
        <time>2024-08-11T09:15:04Z</time>
      </trkpt>
      <trkpt lat="44.96966" lon="6.49992">
        <ele>1554.8</ele>
        <time>2024-08-11T09:15:05Z</time>
      </trkpt>
      <trkpt lat="44.96966" lon="6.49992">
        <ele>1555</ele>
        <time>2024-08-11T09:15:06Z</time>
      </trkpt>
      <trkpt lat="44.96966" lon="6.49992">
        <ele>1555</ele>
        <time>2024-08-11T09:15:07Z</time>
      </trkpt>
      <trkpt lat="44.96966" lon="6.49992">
        <ele>1555.4</ele>
        <time>2024-08-11T09:15:08Z</time>
      </trkpt>
      <trkpt lat="44.96967" lon="6.49989">
        <ele>1555.6</ele>
        <time>2024-08-11T09:15:09Z</time>
      </trkpt>
      <trkpt lat="44.96967" lon="6.49989">
        <ele>1555.6</ele>
        <time>2024-08-11T09:15:10Z</time>
      </trkpt>
      <trkpt lat="44.96969" lon="6.49988">
        <ele>1555.8</ele>
        <time>2024-08-11T09:15:11Z</time>
      </trkpt>
      <trkpt lat="44.96969" lon="6.49988">
        <ele>1555.8</ele>
        <time>2024-08-11T09:15:12Z</time>
      </trkpt>
      <trkpt lat="44.96969" lon="6.49988">
        <ele>1556.2</ele>
        <time>2024-08-11T09:15:13Z</time>
      </trkpt>
      <trkpt lat="44.9697" lon="6.49986">
        <ele>1556.4</ele>
        <time>2024-08-11T09:15:14Z</time>
      </trkpt>
      <trkpt lat="44.9697" lon="6.49986">
        <ele>1556.4</ele>
        <time>2024-08-11T09:15:15Z</time>
      </trkpt>
      <trkpt lat="44.9697" lon="6.49986">
        <ele>1556.8</ele>
        <time>2024-08-11T09:15:16Z</time>
      </trkpt>
      <trkpt lat="44.9697" lon="6.49986">
        <ele>1557.2</ele>
        <time>2024-08-11T09:15:17Z</time>
      </trkpt>
      <trkpt lat="44.9697" lon="6.49983">
        <ele>1557.4</ele>
        <time>2024-08-11T09:15:18Z</time>
      </trkpt>
      <trkpt lat="44.9697" lon="6.49983">
        <ele>1557.8</ele>
        <time>2024-08-11T09:15:19Z</time>
      </trkpt>
      <trkpt lat="44.9697" lon="6.49983">
        <ele>1558</ele>
        <time>2024-08-11T09:15:20Z</time>
      </trkpt>
      <trkpt lat="44.9697" lon="6.49983">
        <ele>1558.2</ele>
        <time>2024-08-11T09:15:21Z</time>
      </trkpt>
      <trkpt lat="44.9697" lon="6.49979">
        <ele>1558.2</ele>
        <time>2024-08-11T09:15:22Z</time>
      </trkpt>
      <trkpt lat="44.9697" lon="6.49979">
        <ele>1558.4</ele>
        <time>2024-08-11T09:15:23Z</time>
      </trkpt>
      <trkpt lat="44.96971" lon="6.49977">
        <ele>1558.6</ele>
        <time>2024-08-11T09:15:24Z</time>
      </trkpt>
      <trkpt lat="44.96971" lon="6.49977">
        <ele>1559</ele>
        <time>2024-08-11T09:15:25Z</time>
      </trkpt>
      <trkpt lat="44.96971" lon="6.49977">
        <ele>1559.2</ele>
        <time>2024-08-11T09:15:26Z</time>
      </trkpt>
      <trkpt lat="44.96972" lon="6.49975">
        <ele>1559.6</ele>
        <time>2024-08-11T09:15:27Z</time>
      </trkpt>
      <trkpt lat="44.96972" lon="6.49975">
        <ele>1559.6</ele>
        <time>2024-08-11T09:15:28Z</time>
      </trkpt>
      <trkpt lat="44.96972" lon="6.49975">
        <ele>1559.8</ele>
        <time>2024-08-11T09:15:29Z</time>
      </trkpt>
      <trkpt lat="44.96973" lon="6.49972">
        <ele>1560</ele>
        <time>2024-08-11T09:15:30Z</time>
      </trkpt>
      <trkpt lat="44.96973" lon="6.49972">
        <ele>1560.2</ele>
        <time>2024-08-11T09:15:31Z</time>
      </trkpt>
      <trkpt lat="44.96973" lon="6.4997">
        <ele>1560.2</ele>
        <time>2024-08-11T09:15:32Z</time>
      </trkpt>
      <trkpt lat="44.96973" lon="6.4997">
        <ele>1560.2</ele>
        <time>2024-08-11T09:15:33Z</time>
      </trkpt>
      <trkpt lat="44.96973" lon="6.4997">
        <ele>1560.6</ele>
        <time>2024-08-11T09:15:34Z</time>
      </trkpt>
      <trkpt lat="44.96973" lon="6.49967">
        <ele>1560.6</ele>
        <time>2024-08-11T09:15:35Z</time>
      </trkpt>
      <trkpt lat="44.96973" lon="6.49967">
        <ele>1560.8</ele>
        <time>2024-08-11T09:15:36Z</time>
      </trkpt>
      <trkpt lat="44.96973" lon="6.49967">
        <ele>1560.8</ele>
        <time>2024-08-11T09:15:37Z</time>
      </trkpt>
      <trkpt lat="44.96975" lon="6.49963">
        <ele>1561</ele>
        <time>2024-08-11T09:15:38Z</time>
      </trkpt>
      <trkpt lat="44.96975" lon="6.49963">
        <ele>1561.4</ele>
        <time>2024-08-11T09:15:39Z</time>
      </trkpt>
      <trkpt lat="44.96975" lon="6.49963">
        <ele>1561.4</ele>
        <time>2024-08-11T09:15:40Z</time>
      </trkpt>
      <trkpt lat="44.96975" lon="6.4996">
        <ele>1561.8</ele>
        <time>2024-08-11T09:15:41Z</time>
      </trkpt>
      <trkpt lat="44.96975" lon="6.4996">
        <ele>1562</ele>
        <time>2024-08-11T09:15:42Z</time>
      </trkpt>
      <trkpt lat="44.96975" lon="6.4996">
        <ele>1562</ele>
        <time>2024-08-11T09:15:43Z</time>
      </trkpt>
      <trkpt lat="44.96975" lon="6.49957">
        <ele>1562.4</ele>
        <time>2024-08-11T09:15:44Z</time>
      </trkpt>
      <trkpt lat="44.96975" lon="6.49957">
        <ele>1562.6</ele>
        <time>2024-08-11T09:15:45Z</time>
      </trkpt>
      <trkpt lat="44.96975" lon="6.49957">
        <ele>1562.6</ele>
        <time>2024-08-11T09:15:46Z</time>
      </trkpt>
      <trkpt lat="44.96974" lon="6.49955">
        <ele>1563</ele>
        <time>2024-08-11T09:15:47Z</time>
      </trkpt>
      <trkpt lat="44.96974" lon="6.49955">
        <ele>1563.2</ele>
        <time>2024-08-11T09:15:48Z</time>
      </trkpt>
      <trkpt lat="44.96974" lon="6.49955">
        <ele>1563.4</ele>
        <time>2024-08-11T09:15:49Z</time>
      </trkpt>
      <trkpt lat="44.96974" lon="6.49955">
        <ele>1563.6</ele>
        <time>2024-08-11T09:15:50Z</time>
      </trkpt>
      <trkpt lat="44.96974" lon="6.49952">
        <ele>1563.8</ele>
        <time>2024-08-11T09:15:51Z</time>
      </trkpt>
      <trkpt lat="44.96974" lon="6.49952">
        <ele>1564.2</ele>
        <time>2024-08-11T09:15:52Z</time>
      </trkpt>
      <trkpt lat="44.96974" lon="6.49952">
        <ele>1564.2</ele>
        <time>2024-08-11T09:15:53Z</time>
      </trkpt>
      <trkpt lat="44.96973" lon="6.49949">
        <ele>1564.2</ele>
        <time>2024-08-11T09:15:54Z</time>
      </trkpt>
      <trkpt lat="44.96973" lon="6.49949">
        <ele>1564.4</ele>
        <time>2024-08-11T09:15:55Z</time>
      </trkpt>
      <trkpt lat="44.96973" lon="6.49949">
        <ele>1564.6</ele>
        <time>2024-08-11T09:15:56Z</time>
      </trkpt>
      <trkpt lat="44.96973" lon="6.49945">
        <ele>1564.6</ele>
        <time>2024-08-11T09:15:57Z</time>
      </trkpt>
      <trkpt lat="44.96973" lon="6.49945">
        <ele>1565.2</ele>
        <time>2024-08-11T09:15:58Z</time>
      </trkpt>
      <trkpt lat="44.96974" lon="6.49942">
        <ele>1565.4</ele>
        <time>2024-08-11T09:15:59Z</time>
      </trkpt>
      <trkpt lat="44.96974" lon="6.49942">
        <ele>1565.6</ele>
        <time>2024-08-11T09:16:00Z</time>
      </trkpt>
      <trkpt lat="44.96974" lon="6.4994">
        <ele>1565.8</ele>
        <time>2024-08-11T09:16:01Z</time>
      </trkpt>
      <trkpt lat="44.96974" lon="6.4994">
        <ele>1566.2</ele>
        <time>2024-08-11T09:16:02Z</time>
      </trkpt>
      <trkpt lat="44.96974" lon="6.4994">
        <ele>1566.2</ele>
        <time>2024-08-11T09:16:03Z</time>
      </trkpt>
      <trkpt lat="44.96974" lon="6.49937">
        <ele>1566.2</ele>
        <time>2024-08-11T09:16:04Z</time>
      </trkpt>
      <trkpt lat="44.96974" lon="6.49937">
        <ele>1566.4</ele>
        <time>2024-08-11T09:16:05Z</time>
      </trkpt>
      <trkpt lat="44.96975" lon="6.49933">
        <ele>1566.6</ele>
        <time>2024-08-11T09:16:06Z</time>
      </trkpt>
      <trkpt lat="44.96975" lon="6.49933">
        <ele>1566.8</ele>
        <time>2024-08-11T09:16:07Z</time>
      </trkpt>
      <trkpt lat="44.96975" lon="6.49933">
        <ele>1567</ele>
        <time>2024-08-11T09:16:08Z</time>
      </trkpt>
      <trkpt lat="44.96976" lon="6.4993">
        <ele>1567.2</ele>
        <time>2024-08-11T09:16:09Z</time>
      </trkpt>
      <trkpt lat="44.96976" lon="6.4993">
        <ele>1567.4</ele>
        <time>2024-08-11T09:16:10Z</time>
      </trkpt>
      <trkpt lat="44.96976" lon="6.4993">
        <ele>1568</ele>
        <time>2024-08-11T09:16:11Z</time>
      </trkpt>
      <trkpt lat="44.96976" lon="6.4993">
        <ele>1568.2</ele>
        <time>2024-08-11T09:16:12Z</time>
      </trkpt>
      <trkpt lat="44.96975" lon="6.49926">
        <ele>1568.4</ele>
        <time>2024-08-11T09:16:13Z</time>
      </trkpt>
      <trkpt lat="44.96975" lon="6.49926">
        <ele>1568.4</ele>
        <time>2024-08-11T09:16:14Z</time>
      </trkpt>
      <trkpt lat="44.96974" lon="6.49925">
        <ele>1568.4</ele>
        <time>2024-08-11T09:16:15Z</time>
      </trkpt>
      <trkpt lat="44.96974" lon="6.49925">
        <ele>1568.6</ele>
        <time>2024-08-11T09:16:16Z</time>
      </trkpt>
      <trkpt lat="44.96974" lon="6.49925">
        <ele>1568.8</ele>
        <time>2024-08-11T09:16:17Z</time>
      </trkpt>
      <trkpt lat="44.96974" lon="6.49925">
        <ele>1569.4</ele>
        <time>2024-08-11T09:16:18Z</time>
      </trkpt>
      <trkpt lat="44.96973" lon="6.49922">
        <ele>1569.4</ele>
        <time>2024-08-11T09:16:19Z</time>
      </trkpt>
      <trkpt lat="44.96973" lon="6.49922">
        <ele>1569.6</ele>
        <time>2024-08-11T09:16:20Z</time>
      </trkpt>
      <trkpt lat="44.96973" lon="6.49922">
        <ele>1569.6</ele>
        <time>2024-08-11T09:16:21Z</time>
      </trkpt>
      <trkpt lat="44.96973" lon="6.49919">
        <ele>1569.8</ele>
        <time>2024-08-11T09:16:22Z</time>
      </trkpt>
      <trkpt lat="44.96973" lon="6.49919">
        <ele>1570</ele>
        <time>2024-08-11T09:16:23Z</time>
      </trkpt>
      <trkpt lat="44.96973" lon="6.49919">
        <ele>1570</ele>
        <time>2024-08-11T09:16:24Z</time>
      </trkpt>
      <trkpt lat="44.96972" lon="6.49917">
        <ele>1570.4</ele>
        <time>2024-08-11T09:16:25Z</time>
      </trkpt>
      <trkpt lat="44.96972" lon="6.49917">
        <ele>1570.6</ele>
        <time>2024-08-11T09:16:26Z</time>
      </trkpt>
      <trkpt lat="44.96972" lon="6.49917">
        <ele>1570.8</ele>
        <time>2024-08-11T09:16:27Z</time>
      </trkpt>
      <trkpt lat="44.96972" lon="6.49914">
        <ele>1571.2</ele>
        <time>2024-08-11T09:16:28Z</time>
      </trkpt>
      <trkpt lat="44.96972" lon="6.49914">
        <ele>1571.2</ele>
        <time>2024-08-11T09:16:29Z</time>
      </trkpt>
      <trkpt lat="44.96972" lon="6.49914">
        <ele>1571.4</ele>
        <time>2024-08-11T09:16:30Z</time>
      </trkpt>
      <trkpt lat="44.96972" lon="6.49911">
        <ele>1571.4</ele>
        <time>2024-08-11T09:16:31Z</time>
      </trkpt>
      <trkpt lat="44.96972" lon="6.49911">
        <ele>1571.6</ele>
        <time>2024-08-11T09:16:32Z</time>
      </trkpt>
      <trkpt lat="44.96972" lon="6.49911">
        <ele>1571.8</ele>
        <time>2024-08-11T09:16:33Z</time>
      </trkpt>
      <trkpt lat="44.96971" lon="6.49908">
        <ele>1571.8</ele>
        <time>2024-08-11T09:16:34Z</time>
      </trkpt>
      <trkpt lat="44.96971" lon="6.49908">
        <ele>1572</ele>
        <time>2024-08-11T09:16:35Z</time>
      </trkpt>
      <trkpt lat="44.96971" lon="6.49908">
        <ele>1572.4</ele>
        <time>2024-08-11T09:16:36Z</time>
      </trkpt>
      <trkpt lat="44.9697" lon="6.49906">
        <ele>1572.8</ele>
        <time>2024-08-11T09:16:37Z</time>
      </trkpt>
      <trkpt lat="44.9697" lon="6.49906">
        <ele>1572.8</ele>
        <time>2024-08-11T09:16:38Z</time>
      </trkpt>
      <trkpt lat="44.9697" lon="6.49906">
        <ele>1573</ele>
        <time>2024-08-11T09:16:39Z</time>
      </trkpt>
      <trkpt lat="44.96969" lon="6.49903">
        <ele>1573.2</ele>
        <time>2024-08-11T09:16:40Z</time>
      </trkpt>
      <trkpt lat="44.96969" lon="6.49903">
        <ele>1573.2</ele>
        <time>2024-08-11T09:16:41Z</time>
      </trkpt>
      <trkpt lat="44.96969" lon="6.49903">
        <ele>1573.6</ele>
        <time>2024-08-11T09:16:42Z</time>
      </trkpt>
      <trkpt lat="44.96967" lon="6.499">
        <ele>1573.8</ele>
        <time>2024-08-11T09:16:43Z</time>
      </trkpt>
      <trkpt lat="44.96967" lon="6.499">
        <ele>1574</ele>
        <time>2024-08-11T09:16:44Z</time>
      </trkpt>
      <trkpt lat="44.96966" lon="6.49898">
        <ele>1574.2</ele>
        <time>2024-08-11T09:16:45Z</time>
      </trkpt>
      <trkpt lat="44.96966" lon="6.49898">
        <ele>1574.2</ele>
        <time>2024-08-11T09:16:46Z</time>
      </trkpt>
      <trkpt lat="44.96966" lon="6.49898">
        <ele>1574.4</ele>
        <time>2024-08-11T09:16:47Z</time>
      </trkpt>
      <trkpt lat="44.96966" lon="6.49898">
        <ele>1574.6</ele>
        <time>2024-08-11T09:16:48Z</time>
      </trkpt>
      <trkpt lat="44.96966" lon="6.49894">
        <ele>1574.6</ele>
        <time>2024-08-11T09:16:49Z</time>
      </trkpt>
      <trkpt lat="44.96966" lon="6.49894">
        <ele>1574.6</ele>
        <time>2024-08-11T09:16:50Z</time>
      </trkpt>
      <trkpt lat="44.96966" lon="6.49894">
        <ele>1574.6</ele>
        <time>2024-08-11T09:16:51Z</time>
      </trkpt>
      <trkpt lat="44.96966" lon="6.49894">
        <ele>1575.2</ele>
        <time>2024-08-11T09:16:52Z</time>
      </trkpt>
      <trkpt lat="44.96966" lon="6.49894">
        <ele>1575.2</ele>
        <time>2024-08-11T09:16:53Z</time>
      </trkpt>
      <trkpt lat="44.96964" lon="6.49892">
        <ele>1575.6</ele>
        <time>2024-08-11T09:16:54Z</time>
      </trkpt>
      <trkpt lat="44.96964" lon="6.49892">
        <ele>1575.6</ele>
        <time>2024-08-11T09:16:55Z</time>
      </trkpt>
      <trkpt lat="44.96964" lon="6.4989">
        <ele>1575.8</ele>
        <time>2024-08-11T09:16:56Z</time>
      </trkpt>
      <trkpt lat="44.96964" lon="6.4989">
        <ele>1575.8</ele>
        <time>2024-08-11T09:16:57Z</time>
      </trkpt>
      <trkpt lat="44.96964" lon="6.4989">
        <ele>1576.2</ele>
        <time>2024-08-11T09:16:58Z</time>
      </trkpt>
      <trkpt lat="44.96964" lon="6.49887">
        <ele>1576.4</ele>
        <time>2024-08-11T09:16:59Z</time>
      </trkpt>
      <trkpt lat="44.96964" lon="6.49887">
        <ele>1576.8</ele>
        <time>2024-08-11T09:17:00Z</time>
      </trkpt>
      <trkpt lat="44.96964" lon="6.49887">
        <ele>1577</ele>
        <time>2024-08-11T09:17:01Z</time>
      </trkpt>
      <trkpt lat="44.96964" lon="6.49884">
        <ele>1577.2</ele>
        <time>2024-08-11T09:17:02Z</time>
      </trkpt>
      <trkpt lat="44.96964" lon="6.49884">
        <ele>1577.2</ele>
        <time>2024-08-11T09:17:03Z</time>
      </trkpt>
      <trkpt lat="44.96964" lon="6.49884">
        <ele>1577.4</ele>
        <time>2024-08-11T09:17:04Z</time>
      </trkpt>
      <trkpt lat="44.96964" lon="6.49884">
        <ele>1577.4</ele>
        <time>2024-08-11T09:17:05Z</time>
      </trkpt>
      <trkpt lat="44.96965" lon="6.49881">
        <ele>1577.8</ele>
        <time>2024-08-11T09:17:06Z</time>
      </trkpt>
      <trkpt lat="44.96965" lon="6.49881">
        <ele>1577.8</ele>
        <time>2024-08-11T09:17:07Z</time>
      </trkpt>
      <trkpt lat="44.96965" lon="6.49881">
        <ele>1577.8</ele>
        <time>2024-08-11T09:17:08Z</time>
      </trkpt>
      <trkpt lat="44.96963" lon="6.49878">
        <ele>1578.4</ele>
        <time>2024-08-11T09:17:09Z</time>
      </trkpt>
      <trkpt lat="44.96963" lon="6.49878">
        <ele>1578.4</ele>
        <time>2024-08-11T09:17:10Z</time>
      </trkpt>
      <trkpt lat="44.96963" lon="6.49878">
        <ele>1578.6</ele>
        <time>2024-08-11T09:17:11Z</time>
      </trkpt>
      <trkpt lat="44.96962" lon="6.49876">
        <ele>1578.6</ele>
        <time>2024-08-11T09:17:12Z</time>
      </trkpt>
      <trkpt lat="44.96962" lon="6.49876">
        <ele>1579.2</ele>
        <time>2024-08-11T09:17:13Z</time>
      </trkpt>
      <trkpt lat="44.96962" lon="6.49876">
        <ele>1579.2</ele>
        <time>2024-08-11T09:17:14Z</time>
      </trkpt>
      <trkpt lat="44.96962" lon="6.49876">
        <ele>1579.2</ele>
        <time>2024-08-11T09:17:15Z</time>
      </trkpt>
      <trkpt lat="44.96962" lon="6.49876">
        <ele>1579.6</ele>
        <time>2024-08-11T09:17:16Z</time>
      </trkpt>
      <trkpt lat="44.96961" lon="6.49873">
        <ele>1579.6</ele>
        <time>2024-08-11T09:17:17Z</time>
      </trkpt>
      <trkpt lat="44.96961" lon="6.49873">
        <ele>1580</ele>
        <time>2024-08-11T09:17:18Z</time>
      </trkpt>
      <trkpt lat="44.9696" lon="6.49871">
        <ele>1580.4</ele>
        <time>2024-08-11T09:17:19Z</time>
      </trkpt>
      <trkpt lat="44.9696" lon="6.49871">
        <ele>1580.6</ele>
        <time>2024-08-11T09:17:20Z</time>
      </trkpt>
      <trkpt lat="44.9696" lon="6.49871">
        <ele>1580.6</ele>
        <time>2024-08-11T09:17:21Z</time>
      </trkpt>
      <trkpt lat="44.9696" lon="6.49868">
        <ele>1580.6</ele>
        <time>2024-08-11T09:17:22Z</time>
      </trkpt>
      <trkpt lat="44.9696" lon="6.49868">
        <ele>1580.8</ele>
        <time>2024-08-11T09:17:23Z</time>
      </trkpt>
      <trkpt lat="44.9696" lon="6.49868">
        <ele>1581</ele>
        <time>2024-08-11T09:17:24Z</time>
      </trkpt>
      <trkpt lat="44.96959" lon="6.49864">
        <ele>1581</ele>
        <time>2024-08-11T09:17:25Z</time>
      </trkpt>
      <trkpt lat="44.96959" lon="6.49864">
        <ele>1581.2</ele>
        <time>2024-08-11T09:17:26Z</time>
      </trkpt>
      <trkpt lat="44.96958" lon="6.49862">
        <ele>1581.4</ele>
        <time>2024-08-11T09:17:27Z</time>
      </trkpt>
      <trkpt lat="44.96958" lon="6.49862">
        <ele>1581.6</ele>
        <time>2024-08-11T09:17:28Z</time>
      </trkpt>
      <trkpt lat="44.96958" lon="6.49862">
        <ele>1581.6</ele>
        <time>2024-08-11T09:17:29Z</time>
      </trkpt>
      <trkpt lat="44.96957" lon="6.49859">
        <ele>1581.6</ele>
        <time>2024-08-11T09:17:30Z</time>
      </trkpt>
      <trkpt lat="44.96957" lon="6.49859">
        <ele>1581.8</ele>
        <time>2024-08-11T09:17:31Z</time>
      </trkpt>
      <trkpt lat="44.96956" lon="6.49857">
        <ele>1581.8</ele>
        <time>2024-08-11T09:17:32Z</time>
      </trkpt>
      <trkpt lat="44.96956" lon="6.49857">
        <ele>1582</ele>
        <time>2024-08-11T09:17:33Z</time>
      </trkpt>
      <trkpt lat="44.96954" lon="6.49855">
        <ele>1582</ele>
        <time>2024-08-11T09:17:34Z</time>
      </trkpt>
      <trkpt lat="44.96954" lon="6.49855">
        <ele>1582</ele>
        <time>2024-08-11T09:17:35Z</time>
      </trkpt>
      <trkpt lat="44.96954" lon="6.49855">
        <ele>1582.4</ele>
        <time>2024-08-11T09:17:36Z</time>
      </trkpt>
      <trkpt lat="44.96953" lon="6.49852">
        <ele>1582.6</ele>
        <time>2024-08-11T09:17:37Z</time>
      </trkpt>
      <trkpt lat="44.96953" lon="6.49852">
        <ele>1582.8</ele>
        <time>2024-08-11T09:17:38Z</time>
      </trkpt>
      <trkpt lat="44.96953" lon="6.49852">
        <ele>1582.8</ele>
        <time>2024-08-11T09:17:39Z</time>
      </trkpt>
      <trkpt lat="44.96952" lon="6.49849">
        <ele>1583</ele>
        <time>2024-08-11T09:17:40Z</time>
      </trkpt>
      <trkpt lat="44.96952" lon="6.49849">
        <ele>1583</ele>
        <time>2024-08-11T09:17:41Z</time>
      </trkpt>
      <trkpt lat="44.96952" lon="6.49849">
        <ele>1583</ele>
        <time>2024-08-11T09:17:42Z</time>
      </trkpt>
      <trkpt lat="44.9695" lon="6.49847">
        <ele>1583.6</ele>
        <time>2024-08-11T09:17:43Z</time>
      </trkpt>
      <trkpt lat="44.9695" lon="6.49847">
        <ele>1583.8</ele>
        <time>2024-08-11T09:17:44Z</time>
      </trkpt>
      <trkpt lat="44.9695" lon="6.49847">
        <ele>1584</ele>
        <time>2024-08-11T09:17:45Z</time>
      </trkpt>
      <trkpt lat="44.96949" lon="6.49845">
        <ele>1584</ele>
        <time>2024-08-11T09:17:46Z</time>
      </trkpt>
      <trkpt lat="44.96949" lon="6.49845">
        <ele>1584.4</ele>
        <time>2024-08-11T09:17:47Z</time>
      </trkpt>
      <trkpt lat="44.96949" lon="6.49845">
        <ele>1584.4</ele>
        <time>2024-08-11T09:17:48Z</time>
      </trkpt>
      <trkpt lat="44.96947" lon="6.49843">
        <ele>1584.8</ele>
        <time>2024-08-11T09:17:49Z</time>
      </trkpt>
      <trkpt lat="44.96947" lon="6.49843">
        <ele>1585</ele>
        <time>2024-08-11T09:17:50Z</time>
      </trkpt>
      <trkpt lat="44.96946" lon="6.49841">
        <ele>1585.2</ele>
        <time>2024-08-11T09:17:51Z</time>
      </trkpt>
      <trkpt lat="44.96946" lon="6.49841">
        <ele>1585.2</ele>
        <time>2024-08-11T09:17:52Z</time>
      </trkpt>
      <trkpt lat="44.96946" lon="6.49841">
        <ele>1585.8</ele>
        <time>2024-08-11T09:17:53Z</time>
      </trkpt>
      <trkpt lat="44.96946" lon="6.49838">
        <ele>1585.8</ele>
        <time>2024-08-11T09:17:54Z</time>
      </trkpt>
      <trkpt lat="44.96946" lon="6.49838">
        <ele>1586.2</ele>
        <time>2024-08-11T09:17:55Z</time>
      </trkpt>
      <trkpt lat="44.96946" lon="6.49838">
        <ele>1586.6</ele>
        <time>2024-08-11T09:17:56Z</time>
      </trkpt>
      <trkpt lat="44.96944" lon="6.49835">
        <ele>1586.8</ele>
        <time>2024-08-11T09:17:57Z</time>
      </trkpt>
      <trkpt lat="44.96944" lon="6.49835">
        <ele>1586.6</ele>
        <time>2024-08-11T09:17:58Z</time>
      </trkpt>
      <trkpt lat="44.96942" lon="6.49834">
        <ele>1586.6</ele>
        <time>2024-08-11T09:17:59Z</time>
      </trkpt>
      <trkpt lat="44.96942" lon="6.49834">
        <ele>1586.6</ele>
        <time>2024-08-11T09:18:00Z</time>
      </trkpt>
      <trkpt lat="44.96941" lon="6.49832">
        <ele>1586.8</ele>
        <time>2024-08-11T09:18:01Z</time>
      </trkpt>
      <trkpt lat="44.96941" lon="6.49832">
        <ele>1586.6</ele>
        <time>2024-08-11T09:18:02Z</time>
      </trkpt>
      <trkpt lat="44.96939" lon="6.4983">
        <ele>1586.6</ele>
        <time>2024-08-11T09:18:03Z</time>
      </trkpt>
      <trkpt lat="44.96939" lon="6.4983">
        <ele>1586.8</ele>
        <time>2024-08-11T09:18:04Z</time>
      </trkpt>
      <trkpt lat="44.96938" lon="6.49827">
        <ele>1586.8</ele>
        <time>2024-08-11T09:18:05Z</time>
      </trkpt>
      <trkpt lat="44.96938" lon="6.49827">
        <ele>1586.6</ele>
        <time>2024-08-11T09:18:06Z</time>
      </trkpt>
      <trkpt lat="44.96938" lon="6.49825">
        <ele>1586.6</ele>
        <time>2024-08-11T09:18:07Z</time>
      </trkpt>
      <trkpt lat="44.96938" lon="6.49825">
        <ele>1586.8</ele>
        <time>2024-08-11T09:18:08Z</time>
      </trkpt>
      <trkpt lat="44.96937" lon="6.49822">
        <ele>1587.2</ele>
        <time>2024-08-11T09:18:09Z</time>
      </trkpt>
      <trkpt lat="44.96937" lon="6.49822">
        <ele>1587.6</ele>
        <time>2024-08-11T09:18:10Z</time>
      </trkpt>
      <trkpt lat="44.96937" lon="6.49822">
        <ele>1587.6</ele>
        <time>2024-08-11T09:18:11Z</time>
      </trkpt>
      <trkpt lat="44.96938" lon="6.49819">
        <ele>1587.8</ele>
        <time>2024-08-11T09:18:12Z</time>
      </trkpt>
      <trkpt lat="44.96938" lon="6.49819">
        <ele>1588.2</ele>
        <time>2024-08-11T09:18:13Z</time>
      </trkpt>
      <trkpt lat="44.96938" lon="6.49819">
        <ele>1588.4</ele>
        <time>2024-08-11T09:18:14Z</time>
      </trkpt>
      <trkpt lat="44.96938" lon="6.49819">
        <ele>1588.8</ele>
        <time>2024-08-11T09:18:15Z</time>
      </trkpt>
      <trkpt lat="44.96938" lon="6.49815">
        <ele>1589</ele>
        <time>2024-08-11T09:18:16Z</time>
      </trkpt>
      <trkpt lat="44.96938" lon="6.49815">
        <ele>1589.4</ele>
        <time>2024-08-11T09:18:17Z</time>
      </trkpt>
      <trkpt lat="44.96936" lon="6.49813">
        <ele>1589.4</ele>
        <time>2024-08-11T09:18:18Z</time>
      </trkpt>
      <trkpt lat="44.96936" lon="6.49813">
        <ele>1589.4</ele>
        <time>2024-08-11T09:18:19Z</time>
      </trkpt>
      <trkpt lat="44.96936" lon="6.49813">
        <ele>1589.4</ele>
        <time>2024-08-11T09:18:20Z</time>
      </trkpt>
      <trkpt lat="44.96935" lon="6.4981">
        <ele>1589.4</ele>
        <time>2024-08-11T09:18:21Z</time>
      </trkpt>
      <trkpt lat="44.96935" lon="6.4981">
        <ele>1589.4</ele>
        <time>2024-08-11T09:18:22Z</time>
      </trkpt>
      <trkpt lat="44.96933" lon="6.49808">
        <ele>1589.4</ele>
        <time>2024-08-11T09:18:23Z</time>
      </trkpt>
      <trkpt lat="44.96933" lon="6.49808">
        <ele>1589.6</ele>
        <time>2024-08-11T09:18:24Z</time>
      </trkpt>
      <trkpt lat="44.96933" lon="6.49808">
        <ele>1589.6</ele>
        <time>2024-08-11T09:18:25Z</time>
      </trkpt>
      <trkpt lat="44.96933" lon="6.49805">
        <ele>1589.6</ele>
        <time>2024-08-11T09:18:26Z</time>
      </trkpt>
      <trkpt lat="44.96933" lon="6.49805">
        <ele>1589.6</ele>
        <time>2024-08-11T09:18:27Z</time>
      </trkpt>
      <trkpt lat="44.96933" lon="6.49805">
        <ele>1590</ele>
        <time>2024-08-11T09:18:28Z</time>
      </trkpt>
      <trkpt lat="44.96933" lon="6.49805">
        <ele>1590.2</ele>
        <time>2024-08-11T09:18:29Z</time>
      </trkpt>
      <trkpt lat="44.9693" lon="6.49803">
        <ele>1590.4</ele>
        <time>2024-08-11T09:18:30Z</time>
      </trkpt>
      <trkpt lat="44.9693" lon="6.49803">
        <ele>1590.8</ele>
        <time>2024-08-11T09:18:31Z</time>
      </trkpt>
      <trkpt lat="44.9693" lon="6.49803">
        <ele>1590.8</ele>
        <time>2024-08-11T09:18:32Z</time>
      </trkpt>
      <trkpt lat="44.96928" lon="6.49802">
        <ele>1591</ele>
        <time>2024-08-11T09:18:33Z</time>
      </trkpt>
      <trkpt lat="44.96928" lon="6.49802">
        <ele>1591.2</ele>
        <time>2024-08-11T09:18:34Z</time>
      </trkpt>
      <trkpt lat="44.96928" lon="6.49802">
        <ele>1591.2</ele>
        <time>2024-08-11T09:18:35Z</time>
      </trkpt>
      <trkpt lat="44.96926" lon="6.49799">
        <ele>1591.4</ele>
        <time>2024-08-11T09:18:36Z</time>
      </trkpt>
      <trkpt lat="44.96926" lon="6.49799">
        <ele>1591.6</ele>
        <time>2024-08-11T09:18:37Z</time>
      </trkpt>
      <trkpt lat="44.96925" lon="6.49797">
        <ele>1591.6</ele>
        <time>2024-08-11T09:18:38Z</time>
      </trkpt>
      <trkpt lat="44.96925" lon="6.49797">
        <ele>1592</ele>
        <time>2024-08-11T09:18:39Z</time>
      </trkpt>
      <trkpt lat="44.96925" lon="6.49797">
        <ele>1592</ele>
        <time>2024-08-11T09:18:40Z</time>
      </trkpt>
      <trkpt lat="44.96925" lon="6.49797">
        <ele>1592</ele>
        <time>2024-08-11T09:18:41Z</time>
      </trkpt>
      <trkpt lat="44.96924" lon="6.49795">
        <ele>1592.2</ele>
        <time>2024-08-11T09:18:42Z</time>
      </trkpt>
      <trkpt lat="44.96924" lon="6.49795">
        <ele>1592.4</ele>
        <time>2024-08-11T09:18:43Z</time>
      </trkpt>
      <trkpt lat="44.96922" lon="6.49794">
        <ele>1592.6</ele>
        <time>2024-08-11T09:18:44Z</time>
      </trkpt>
      <trkpt lat="44.96922" lon="6.49794">
        <ele>1592.8</ele>
        <time>2024-08-11T09:18:45Z</time>
      </trkpt>
      <trkpt lat="44.9692" lon="6.49793">
        <ele>1593.2</ele>
        <time>2024-08-11T09:18:46Z</time>
      </trkpt>
      <trkpt lat="44.9692" lon="6.49793">
        <ele>1593.4</ele>
        <time>2024-08-11T09:18:47Z</time>
      </trkpt>
      <trkpt lat="44.9692" lon="6.49793">
        <ele>1593.4</ele>
        <time>2024-08-11T09:18:48Z</time>
      </trkpt>
      <trkpt lat="44.96918" lon="6.49792">
        <ele>1593.4</ele>
        <time>2024-08-11T09:18:49Z</time>
      </trkpt>
      <trkpt lat="44.96918" lon="6.49792">
        <ele>1593.4</ele>
        <time>2024-08-11T09:18:50Z</time>
      </trkpt>
      <trkpt lat="44.96916" lon="6.49791">
        <ele>1593.4</ele>
        <time>2024-08-11T09:18:51Z</time>
      </trkpt>
      <trkpt lat="44.96916" lon="6.49791">
        <ele>1593.2</ele>
        <time>2024-08-11T09:18:52Z</time>
      </trkpt>
      <trkpt lat="44.96914" lon="6.49791">
        <ele>1593.2</ele>
        <time>2024-08-11T09:18:53Z</time>
      </trkpt>
      <trkpt lat="44.96914" lon="6.49791">
        <ele>1593.2</ele>
        <time>2024-08-11T09:18:54Z</time>
      </trkpt>
      <trkpt lat="44.96912" lon="6.49791">
        <ele>1593.6</ele>
        <time>2024-08-11T09:18:55Z</time>
      </trkpt>
      <trkpt lat="44.96912" lon="6.49791">
        <ele>1593.6</ele>
        <time>2024-08-11T09:18:56Z</time>
      </trkpt>
      <trkpt lat="44.9691" lon="6.4979">
        <ele>1593.6</ele>
        <time>2024-08-11T09:18:57Z</time>
      </trkpt>
      <trkpt lat="44.9691" lon="6.4979">
        <ele>1593.6</ele>
        <time>2024-08-11T09:18:58Z</time>
      </trkpt>
      <trkpt lat="44.9691" lon="6.4979">
        <ele>1593.6</ele>
        <time>2024-08-11T09:18:59Z</time>
      </trkpt>
      <trkpt lat="44.96908" lon="6.49789">
        <ele>1593.6</ele>
        <time>2024-08-11T09:19:00Z</time>
      </trkpt>
      <trkpt lat="44.96908" lon="6.49789">
        <ele>1593.6</ele>
        <time>2024-08-11T09:19:01Z</time>
      </trkpt>
      <trkpt lat="44.96908" lon="6.49789">
        <ele>1593.8</ele>
        <time>2024-08-11T09:19:02Z</time>
      </trkpt>
      <trkpt lat="44.96905" lon="6.49788">
        <ele>1593.8</ele>
        <time>2024-08-11T09:19:03Z</time>
      </trkpt>
      <trkpt lat="44.96905" lon="6.49788">
        <ele>1594</ele>
        <time>2024-08-11T09:19:04Z</time>
      </trkpt>
      <trkpt lat="44.96904" lon="6.49787">
        <ele>1594.4</ele>
        <time>2024-08-11T09:19:05Z</time>
      </trkpt>
      <trkpt lat="44.96904" lon="6.49787">
        <ele>1594.4</ele>
        <time>2024-08-11T09:19:06Z</time>
      </trkpt>
      <trkpt lat="44.96904" lon="6.49787">
        <ele>1595</ele>
        <time>2024-08-11T09:19:07Z</time>
      </trkpt>
      <trkpt lat="44.96904" lon="6.49787">
        <ele>1595.2</ele>
        <time>2024-08-11T09:19:08Z</time>
      </trkpt>
      <trkpt lat="44.96902" lon="6.49788">
        <ele>1595.2</ele>
        <time>2024-08-11T09:19:09Z</time>
      </trkpt>
      <trkpt lat="44.96902" lon="6.49788">
        <ele>1595.4</ele>
        <time>2024-08-11T09:19:10Z</time>
      </trkpt>
      <trkpt lat="44.96902" lon="6.49788">
        <ele>1595.4</ele>
        <time>2024-08-11T09:19:11Z</time>
      </trkpt>
      <trkpt lat="44.969" lon="6.49787">
        <ele>1595.6</ele>
        <time>2024-08-11T09:19:12Z</time>
      </trkpt>
      <trkpt lat="44.969" lon="6.49787">
        <ele>1595.6</ele>
        <time>2024-08-11T09:19:13Z</time>
      </trkpt>
      <trkpt lat="44.96898" lon="6.49786">
        <ele>1595.8</ele>
        <time>2024-08-11T09:19:14Z</time>
      </trkpt>
      <trkpt lat="44.96898" lon="6.49786">
        <ele>1595.8</ele>
        <time>2024-08-11T09:19:15Z</time>
      </trkpt>
      <trkpt lat="44.96898" lon="6.49786">
        <ele>1596</ele>
        <time>2024-08-11T09:19:16Z</time>
      </trkpt>
      <trkpt lat="44.96896" lon="6.49785">
        <ele>1596.4</ele>
        <time>2024-08-11T09:19:17Z</time>
      </trkpt>
      <trkpt lat="44.96896" lon="6.49785">
        <ele>1596.6</ele>
        <time>2024-08-11T09:19:18Z</time>
      </trkpt>
      <trkpt lat="44.96896" lon="6.49785">
        <ele>1596.8</ele>
        <time>2024-08-11T09:19:19Z</time>
      </trkpt>
      <trkpt lat="44.96894" lon="6.49784">
        <ele>1597</ele>
        <time>2024-08-11T09:19:20Z</time>
      </trkpt>
      <trkpt lat="44.96894" lon="6.49784">
        <ele>1597</ele>
        <time>2024-08-11T09:19:21Z</time>
      </trkpt>
      <trkpt lat="44.96894" lon="6.49784">
        <ele>1597</ele>
        <time>2024-08-11T09:19:22Z</time>
      </trkpt>
      <trkpt lat="44.96892" lon="6.49783">
        <ele>1597.4</ele>
        <time>2024-08-11T09:19:23Z</time>
      </trkpt>
      <trkpt lat="44.96892" lon="6.49783">
        <ele>1597.6</ele>
        <time>2024-08-11T09:19:24Z</time>
      </trkpt>
      <trkpt lat="44.96892" lon="6.49783">
        <ele>1597.6</ele>
        <time>2024-08-11T09:19:25Z</time>
      </trkpt>
      <trkpt lat="44.96889" lon="6.49783">
        <ele>1597.8</ele>
        <time>2024-08-11T09:19:26Z</time>
      </trkpt>
      <trkpt lat="44.96889" lon="6.49783">
        <ele>1598.2</ele>
        <time>2024-08-11T09:19:27Z</time>
      </trkpt>
      <trkpt lat="44.96889" lon="6.49783">
        <ele>1598.2</ele>
        <time>2024-08-11T09:19:28Z</time>
      </trkpt>
      <trkpt lat="44.96887" lon="6.49783">
        <ele>1598.4</ele>
        <time>2024-08-11T09:19:29Z</time>
      </trkpt>
      <trkpt lat="44.96887" lon="6.49783">
        <ele>1598.4</ele>
        <time>2024-08-11T09:19:30Z</time>
      </trkpt>
      <trkpt lat="44.96887" lon="6.49783">
        <ele>1598.6</ele>
        <time>2024-08-11T09:19:31Z</time>
      </trkpt>
      <trkpt lat="44.96884" lon="6.49782">
        <ele>1598.6</ele>
        <time>2024-08-11T09:19:32Z</time>
      </trkpt>
      <trkpt lat="44.96884" lon="6.49782">
        <ele>1599</ele>
        <time>2024-08-11T09:19:33Z</time>
      </trkpt>
      <trkpt lat="44.96884" lon="6.49782">
        <ele>1599.2</ele>
        <time>2024-08-11T09:19:34Z</time>
      </trkpt>
      <trkpt lat="44.96882" lon="6.49782">
        <ele>1599.4</ele>
        <time>2024-08-11T09:19:35Z</time>
      </trkpt>
      <trkpt lat="44.96882" lon="6.49782">
        <ele>1599.6</ele>
        <time>2024-08-11T09:19:36Z</time>
      </trkpt>
      <trkpt lat="44.96882" lon="6.49782">
        <ele>1600</ele>
        <time>2024-08-11T09:19:37Z</time>
      </trkpt>
      <trkpt lat="44.96882" lon="6.49782">
        <ele>1600.4</ele>
        <time>2024-08-11T09:19:38Z</time>
      </trkpt>
      <trkpt lat="44.96882" lon="6.49782">
        <ele>1600.6</ele>
        <time>2024-08-11T09:19:39Z</time>
      </trkpt>
      <trkpt lat="44.9688" lon="6.49783">
        <ele>1601</ele>
        <time>2024-08-11T09:19:40Z</time>
      </trkpt>
      <trkpt lat="44.9688" lon="6.49783">
        <ele>1601</ele>
        <time>2024-08-11T09:19:41Z</time>
      </trkpt>
      <trkpt lat="44.9688" lon="6.49783">
        <ele>1601.2</ele>
        <time>2024-08-11T09:19:42Z</time>
      </trkpt>
      <trkpt lat="44.96878" lon="6.49784">
        <ele>1601.6</ele>
        <time>2024-08-11T09:19:43Z</time>
      </trkpt>
      <trkpt lat="44.96878" lon="6.49784">
        <ele>1601.8</ele>
        <time>2024-08-11T09:19:44Z</time>
      </trkpt>
      <trkpt lat="44.96878" lon="6.49784">
        <ele>1601.8</ele>
        <time>2024-08-11T09:19:45Z</time>
      </trkpt>
      <trkpt lat="44.96876" lon="6.49784">
        <ele>1602</ele>
        <time>2024-08-11T09:19:46Z</time>
      </trkpt>
      <trkpt lat="44.96876" lon="6.49784">
        <ele>1602.2</ele>
        <time>2024-08-11T09:19:47Z</time>
      </trkpt>
      <trkpt lat="44.96876" lon="6.49784">
        <ele>1602.2</ele>
        <time>2024-08-11T09:19:48Z</time>
      </trkpt>
      <trkpt lat="44.96876" lon="6.49784">
        <ele>1602.4</ele>
        <time>2024-08-11T09:19:49Z</time>
      </trkpt>
      <trkpt lat="44.96874" lon="6.49783">
        <ele>1602.8</ele>
        <time>2024-08-11T09:19:50Z</time>
      </trkpt>
      <trkpt lat="44.96874" lon="6.49783">
        <ele>1602.8</ele>
        <time>2024-08-11T09:19:51Z</time>
      </trkpt>
      <trkpt lat="44.96874" lon="6.49783">
        <ele>1603</ele>
        <time>2024-08-11T09:19:52Z</time>
      </trkpt>
      <trkpt lat="44.96872" lon="6.49783">
        <ele>1603.4</ele>
        <time>2024-08-11T09:19:53Z</time>
      </trkpt>
      <trkpt lat="44.96872" lon="6.49783">
        <ele>1603.6</ele>
        <time>2024-08-11T09:19:54Z</time>
      </trkpt>
      <trkpt lat="44.96872" lon="6.49783">
        <ele>1603.6</ele>
        <time>2024-08-11T09:19:55Z</time>
      </trkpt>
      <trkpt lat="44.9687" lon="6.49785">
        <ele>1603.6</ele>
        <time>2024-08-11T09:19:56Z</time>
      </trkpt>
      <trkpt lat="44.9687" lon="6.49785">
        <ele>1603.8</ele>
        <time>2024-08-11T09:19:57Z</time>
      </trkpt>
      <trkpt lat="44.9687" lon="6.49785">
        <ele>1604</ele>
        <time>2024-08-11T09:19:58Z</time>
      </trkpt>
      <trkpt lat="44.96868" lon="6.49786">
        <ele>1604</ele>
        <time>2024-08-11T09:19:59Z</time>
      </trkpt>
      <trkpt lat="44.96866" lon="6.49788">
        <ele>1604</ele>
        <time>2024-08-11T09:20:04Z</time>
      </trkpt>
      <trkpt lat="44.96866" lon="6.49788">
        <ele>1605</ele>
        <time>2024-08-11T09:20:05Z</time>
      </trkpt>
      <trkpt lat="44.96864" lon="6.49789">
        <ele>1605.6</ele>
        <time>2024-08-11T09:20:06Z</time>
      </trkpt>
      <trkpt lat="44.96864" lon="6.49789">
        <ele>1605.8</ele>
        <time>2024-08-11T09:20:07Z</time>
      </trkpt>
      <trkpt lat="44.96863" lon="6.49791">
        <ele>1605.8</ele>
        <time>2024-08-11T09:20:08Z</time>
      </trkpt>
      <trkpt lat="44.96863" lon="6.49791">
        <ele>1606.2</ele>
        <time>2024-08-11T09:20:09Z</time>
      </trkpt>
      <trkpt lat="44.96863" lon="6.49791">
        <ele>1606.4</ele>
        <time>2024-08-11T09:20:10Z</time>
      </trkpt>
      <trkpt lat="44.96861" lon="6.49793">
        <ele>1606.4</ele>
        <time>2024-08-11T09:20:11Z</time>
      </trkpt>
      <trkpt lat="44.96861" lon="6.49793">
        <ele>1606.6</ele>
        <time>2024-08-11T09:20:12Z</time>
      </trkpt>
      <trkpt lat="44.96861" lon="6.49793">
        <ele>1606.6</ele>
        <time>2024-08-11T09:20:13Z</time>
      </trkpt>
      <trkpt lat="44.9686" lon="6.49795">
        <ele>1606.8</ele>
        <time>2024-08-11T09:20:14Z</time>
      </trkpt>
      <trkpt lat="44.9686" lon="6.49795">
        <ele>1607</ele>
        <time>2024-08-11T09:20:15Z</time>
      </trkpt>
      <trkpt lat="44.9686" lon="6.49795">
        <ele>1607.2</ele>
        <time>2024-08-11T09:20:16Z</time>
      </trkpt>
      <trkpt lat="44.9686" lon="6.49795">
        <ele>1607.4</ele>
        <time>2024-08-11T09:20:17Z</time>
      </trkpt>
      <trkpt lat="44.96858" lon="6.49797">
        <ele>1607.6</ele>
        <time>2024-08-11T09:20:18Z</time>
      </trkpt>
      <trkpt lat="44.96858" lon="6.49797">
        <ele>1607.6</ele>
        <time>2024-08-11T09:20:19Z</time>
      </trkpt>
      <trkpt lat="44.96857" lon="6.49799">
        <ele>1607.8</ele>
        <time>2024-08-11T09:20:20Z</time>
      </trkpt>
      <trkpt lat="44.96857" lon="6.49799">
        <ele>1608</ele>
        <time>2024-08-11T09:20:21Z</time>
      </trkpt>
      <trkpt lat="44.96855" lon="6.49801">
        <ele>1608.2</ele>
        <time>2024-08-11T09:20:22Z</time>
      </trkpt>
      <trkpt lat="44.96855" lon="6.49801">
        <ele>1608.2</ele>
        <time>2024-08-11T09:20:23Z</time>
      </trkpt>
      <trkpt lat="44.96855" lon="6.49801">
        <ele>1608.4</ele>
        <time>2024-08-11T09:20:24Z</time>
      </trkpt>
      <trkpt lat="44.96853" lon="6.49802">
        <ele>1608.6</ele>
        <time>2024-08-11T09:20:25Z</time>
      </trkpt>
      <trkpt lat="44.96853" lon="6.49802">
        <ele>1608.6</ele>
        <time>2024-08-11T09:20:26Z</time>
      </trkpt>
      <trkpt lat="44.96851" lon="6.49804">
        <ele>1608.6</ele>
        <time>2024-08-11T09:20:27Z</time>
      </trkpt>
      <trkpt lat="44.96851" lon="6.49804">
        <ele>1608.6</ele>
        <time>2024-08-11T09:20:28Z</time>
      </trkpt>
      <trkpt lat="44.9685" lon="6.49807">
        <ele>1609</ele>
        <time>2024-08-11T09:20:29Z</time>
      </trkpt>
      <trkpt lat="44.9685" lon="6.49807">
        <ele>1609.2</ele>
        <time>2024-08-11T09:20:30Z</time>
      </trkpt>
      <trkpt lat="44.9685" lon="6.4981">
        <ele>1609.4</ele>
        <time>2024-08-11T09:20:31Z</time>
      </trkpt>
      <trkpt lat="44.9685" lon="6.4981">
        <ele>1609.6</ele>
        <time>2024-08-11T09:20:32Z</time>
      </trkpt>
      <trkpt lat="44.9685" lon="6.4981">
        <ele>1609.6</ele>
        <time>2024-08-11T09:20:33Z</time>
      </trkpt>
      <trkpt lat="44.96849" lon="6.49812">
        <ele>1609.8</ele>
        <time>2024-08-11T09:20:34Z</time>
      </trkpt>
      <trkpt lat="44.96849" lon="6.49812">
        <ele>1610</ele>
        <time>2024-08-11T09:20:35Z</time>
      </trkpt>
      <trkpt lat="44.96849" lon="6.49812">
        <ele>1610</ele>
        <time>2024-08-11T09:20:36Z</time>
      </trkpt>
      <trkpt lat="44.96846" lon="6.49812">
        <ele>1610.2</ele>
        <time>2024-08-11T09:20:37Z</time>
      </trkpt>
      <trkpt lat="44.96846" lon="6.49812">
        <ele>1610.2</ele>
        <time>2024-08-11T09:20:38Z</time>
      </trkpt>
      <trkpt lat="44.96844" lon="6.49814">
        <ele>1610.2</ele>
        <time>2024-08-11T09:20:39Z</time>
      </trkpt>
      <trkpt lat="44.96844" lon="6.49814">
        <ele>1610.6</ele>
        <time>2024-08-11T09:20:40Z</time>
      </trkpt>
      <trkpt lat="44.96843" lon="6.49816">
        <ele>1610.6</ele>
        <time>2024-08-11T09:20:41Z</time>
      </trkpt>
      <trkpt lat="44.96843" lon="6.49816">
        <ele>1610.6</ele>
        <time>2024-08-11T09:20:42Z</time>
      </trkpt>
      <trkpt lat="44.96841" lon="6.49819">
        <ele>1610.6</ele>
        <time>2024-08-11T09:20:43Z</time>
      </trkpt>
      <trkpt lat="44.96841" lon="6.49819">
        <ele>1610.8</ele>
        <time>2024-08-11T09:20:44Z</time>
      </trkpt>
      <trkpt lat="44.96841" lon="6.49819">
        <ele>1611</ele>
        <time>2024-08-11T09:20:45Z</time>
      </trkpt>
      <trkpt lat="44.96839" lon="6.49821">
        <ele>1611.2</ele>
        <time>2024-08-11T09:20:46Z</time>
      </trkpt>
      <trkpt lat="44.96839" lon="6.49821">
        <ele>1611.2</ele>
        <time>2024-08-11T09:20:47Z</time>
      </trkpt>
      <trkpt lat="44.96838" lon="6.49824">
        <ele>1611.2</ele>
        <time>2024-08-11T09:20:48Z</time>
      </trkpt>
      <trkpt lat="44.96838" lon="6.49824">
        <ele>1611.4</ele>
        <time>2024-08-11T09:20:49Z</time>
      </trkpt>
      <trkpt lat="44.96837" lon="6.49827">
        <ele>1611.4</ele>
        <time>2024-08-11T09:20:50Z</time>
      </trkpt>
      <trkpt lat="44.96837" lon="6.49827">
        <ele>1611.4</ele>
        <time>2024-08-11T09:20:51Z</time>
      </trkpt>
      <trkpt lat="44.96837" lon="6.4983">
        <ele>1611.6</ele>
        <time>2024-08-11T09:20:52Z</time>
      </trkpt>
      <trkpt lat="44.96837" lon="6.4983">
        <ele>1611.6</ele>
        <time>2024-08-11T09:20:53Z</time>
      </trkpt>
      <trkpt lat="44.96835" lon="6.49832">
        <ele>1612</ele>
        <time>2024-08-11T09:20:54Z</time>
      </trkpt>
      <trkpt lat="44.96835" lon="6.49832">
        <ele>1612</ele>
        <time>2024-08-11T09:20:55Z</time>
      </trkpt>
      <trkpt lat="44.96835" lon="6.49835">
        <ele>1611.8</ele>
        <time>2024-08-11T09:20:56Z</time>
      </trkpt>
      <trkpt lat="44.96835" lon="6.49835">
        <ele>1611.8</ele>
        <time>2024-08-11T09:20:57Z</time>
      </trkpt>
      <trkpt lat="44.96833" lon="6.49837">
        <ele>1612</ele>
        <time>2024-08-11T09:20:58Z</time>
      </trkpt>
      <trkpt lat="44.96833" lon="6.49837">
        <ele>1612.4</ele>
        <time>2024-08-11T09:20:59Z</time>
      </trkpt>
      <trkpt lat="44.96833" lon="6.49837">
        <ele>1612.6</ele>
        <time>2024-08-11T09:21:00Z</time>
      </trkpt>
      <trkpt lat="44.96832" lon="6.4984">
        <ele>1612.6</ele>
        <time>2024-08-11T09:21:01Z</time>
      </trkpt>
      <trkpt lat="44.96832" lon="6.4984">
        <ele>1613.2</ele>
        <time>2024-08-11T09:21:02Z</time>
      </trkpt>
      <trkpt lat="44.96832" lon="6.4984">
        <ele>1613.2</ele>
        <time>2024-08-11T09:21:03Z</time>
      </trkpt>
      <trkpt lat="44.96831" lon="6.49842">
        <ele>1613.2</ele>
        <time>2024-08-11T09:21:04Z</time>
      </trkpt>
      <trkpt lat="44.96831" lon="6.49842">
        <ele>1613.4</ele>
        <time>2024-08-11T09:21:05Z</time>
      </trkpt>
      <trkpt lat="44.96831" lon="6.49842">
        <ele>1613.8</ele>
        <time>2024-08-11T09:21:06Z</time>
      </trkpt>
      <trkpt lat="44.96829" lon="6.49845">
        <ele>1614.2</ele>
        <time>2024-08-11T09:21:07Z</time>
      </trkpt>
      <trkpt lat="44.96829" lon="6.49845">
        <ele>1614.2</ele>
        <time>2024-08-11T09:21:08Z</time>
      </trkpt>
      <trkpt lat="44.96829" lon="6.49845">
        <ele>1614.2</ele>
        <time>2024-08-11T09:21:09Z</time>
      </trkpt>
      <trkpt lat="44.96828" lon="6.49849">
        <ele>1614.4</ele>
        <time>2024-08-11T09:21:10Z</time>
      </trkpt>
      <trkpt lat="44.96828" lon="6.49849">
        <ele>1614.6</ele>
        <time>2024-08-11T09:21:11Z</time>
      </trkpt>
      <trkpt lat="44.96827" lon="6.49852">
        <ele>1614.6</ele>
        <time>2024-08-11T09:21:12Z</time>
      </trkpt>
      <trkpt lat="44.96827" lon="6.49852">
        <ele>1614.6</ele>
        <time>2024-08-11T09:21:13Z</time>
      </trkpt>
      <trkpt lat="44.96827" lon="6.49852">
        <ele>1614.8</ele>
        <time>2024-08-11T09:21:14Z</time>
      </trkpt>
      <trkpt lat="44.96826" lon="6.49856">
        <ele>1614.8</ele>
        <time>2024-08-11T09:21:15Z</time>
      </trkpt>
      <trkpt lat="44.96825" lon="6.49857">
        <ele>1614.8</ele>
        <time>2024-08-11T09:21:16Z</time>
      </trkpt>
      <trkpt lat="44.96825" lon="6.49857">
        <ele>1615</ele>
        <time>2024-08-11T09:21:17Z</time>
      </trkpt>
      <trkpt lat="44.96825" lon="6.4986">
        <ele>1615</ele>
        <time>2024-08-11T09:21:18Z</time>
      </trkpt>
      <trkpt lat="44.96825" lon="6.4986">
        <ele>1615.2</ele>
        <time>2024-08-11T09:21:19Z</time>
      </trkpt>
      <trkpt lat="44.96823" lon="6.49862">
        <ele>1615.6</ele>
        <time>2024-08-11T09:21:20Z</time>
      </trkpt>
      <trkpt lat="44.96823" lon="6.49862">
        <ele>1615.6</ele>
        <time>2024-08-11T09:21:21Z</time>
      </trkpt>
      <trkpt lat="44.96822" lon="6.49865">
        <ele>1615.8</ele>
        <time>2024-08-11T09:21:22Z</time>
      </trkpt>
      <trkpt lat="44.96822" lon="6.49865">
        <ele>1615.8</ele>
        <time>2024-08-11T09:21:23Z</time>
      </trkpt>
      <trkpt lat="44.96821" lon="6.49867">
        <ele>1616</ele>
        <time>2024-08-11T09:21:24Z</time>
      </trkpt>
      <trkpt lat="44.96821" lon="6.49867">
        <ele>1616.6</ele>
        <time>2024-08-11T09:21:25Z</time>
      </trkpt>
      <trkpt lat="44.96821" lon="6.49867">
        <ele>1616.6</ele>
        <time>2024-08-11T09:21:26Z</time>
      </trkpt>
      <trkpt lat="44.96818" lon="6.49871">
        <ele>1616.8</ele>
        <time>2024-08-11T09:21:27Z</time>
      </trkpt>
      <trkpt lat="44.96817" lon="6.49873">
        <ele>1617.2</ele>
        <time>2024-08-11T09:21:28Z</time>
      </trkpt>
      <trkpt lat="44.96816" lon="6.49874">
        <ele>1617.2</ele>
        <time>2024-08-11T09:21:29Z</time>
      </trkpt>
      <trkpt lat="44.96816" lon="6.49875">
        <ele>1617</ele>
        <time>2024-08-11T09:21:30Z</time>
      </trkpt>
      <trkpt lat="44.96816" lon="6.49875">
        <ele>1617</ele>
        <time>2024-08-11T09:21:31Z</time>
      </trkpt>
      <trkpt lat="44.96816" lon="6.49875">
        <ele>1616.8</ele>
        <time>2024-08-11T09:21:32Z</time>
      </trkpt>
      <trkpt lat="44.96813" lon="6.49876">
        <ele>1616.8</ele>
        <time>2024-08-11T09:21:33Z</time>
      </trkpt>
      <trkpt lat="44.96813" lon="6.49876">
        <ele>1616.8</ele>
        <time>2024-08-11T09:21:34Z</time>
      </trkpt>
      <trkpt lat="44.96813" lon="6.49876">
        <ele>1617</ele>
        <time>2024-08-11T09:21:35Z</time>
      </trkpt>
      <trkpt lat="44.96813" lon="6.49876">
        <ele>1617</ele>
        <time>2024-08-11T09:21:36Z</time>
      </trkpt>
      <trkpt lat="44.96812" lon="6.49879">
        <ele>1617</ele>
        <time>2024-08-11T09:21:37Z</time>
      </trkpt>
      <trkpt lat="44.96812" lon="6.49879">
        <ele>1617.2</ele>
        <time>2024-08-11T09:21:38Z</time>
      </trkpt>
      <trkpt lat="44.96809" lon="6.4988">
        <ele>1617.4</ele>
        <time>2024-08-11T09:21:39Z</time>
      </trkpt>
      <trkpt lat="44.96809" lon="6.4988">
        <ele>1617.6</ele>
        <time>2024-08-11T09:21:40Z</time>
      </trkpt>
      <trkpt lat="44.96809" lon="6.4988">
        <ele>1617.6</ele>
        <time>2024-08-11T09:21:41Z</time>
      </trkpt>
      <trkpt lat="44.96809" lon="6.4988">
        <ele>1617.6</ele>
        <time>2024-08-11T09:21:42Z</time>
      </trkpt>
      <trkpt lat="44.96806" lon="6.4988">
        <ele>1617.8</ele>
        <time>2024-08-11T09:21:43Z</time>
      </trkpt>
      <trkpt lat="44.96806" lon="6.4988">
        <ele>1617.8</ele>
        <time>2024-08-11T09:21:44Z</time>
      </trkpt>
      <trkpt lat="44.96806" lon="6.4988">
        <ele>1618</ele>
        <time>2024-08-11T09:21:45Z</time>
      </trkpt>
      <trkpt lat="44.96805" lon="6.49879">
        <ele>1618</ele>
        <time>2024-08-11T09:21:46Z</time>
      </trkpt>
      <trkpt lat="44.96805" lon="6.49879">
        <ele>1618</ele>
        <time>2024-08-11T09:21:47Z</time>
      </trkpt>
      <trkpt lat="44.96805" lon="6.49879">
        <ele>1618</ele>
        <time>2024-08-11T09:21:48Z</time>
      </trkpt>
      <trkpt lat="44.96805" lon="6.49879">
        <ele>1618.4</ele>
        <time>2024-08-11T09:21:49Z</time>
      </trkpt>
      <trkpt lat="44.96805" lon="6.49879">
        <ele>1618.4</ele>
        <time>2024-08-11T09:21:50Z</time>
      </trkpt>
      <trkpt lat="44.96805" lon="6.49879">
        <ele>1618.4</ele>
        <time>2024-08-11T09:21:51Z</time>
      </trkpt>
      <trkpt lat="44.96805" lon="6.49879">
        <ele>1618.2</ele>
        <time>2024-08-11T09:21:52Z</time>
      </trkpt>
      <trkpt lat="44.96805" lon="6.49879">
        <ele>1618.2</ele>
        <time>2024-08-11T09:21:53Z</time>
      </trkpt>
      <trkpt lat="44.96805" lon="6.49879">
        <ele>1618.2</ele>
        <time>2024-08-11T09:21:54Z</time>
      </trkpt>
      <trkpt lat="44.96805" lon="6.49879">
        <ele>1618.2</ele>
        <time>2024-08-11T09:21:55Z</time>
      </trkpt>
      <trkpt lat="44.96805" lon="6.49879">
        <ele>1618</ele>
        <time>2024-08-11T09:21:56Z</time>
      </trkpt>
      <trkpt lat="44.96805" lon="6.49879">
        <ele>1618</ele>
        <time>2024-08-11T09:21:57Z</time>
      </trkpt>
      <trkpt lat="44.96802" lon="6.49878">
        <ele>1618.2</ele>
        <time>2024-08-11T09:21:58Z</time>
      </trkpt>
      <trkpt lat="44.96802" lon="6.49878">
        <ele>1618.2</ele>
        <time>2024-08-11T09:21:59Z</time>
      </trkpt>
      <trkpt lat="44.96799" lon="6.49878">
        <ele>1618.4</ele>
        <time>2024-08-11T09:22:00Z</time>
      </trkpt>
      <trkpt lat="44.96799" lon="6.49878">
        <ele>1618.4</ele>
        <time>2024-08-11T09:22:01Z</time>
      </trkpt>
      <trkpt lat="44.96799" lon="6.49878">
        <ele>1618.6</ele>
        <time>2024-08-11T09:22:02Z</time>
      </trkpt>
      <trkpt lat="44.96795" lon="6.49878">
        <ele>1618.6</ele>
        <time>2024-08-11T09:22:03Z</time>
      </trkpt>
      <trkpt lat="44.96794" lon="6.49877">
        <ele>1618.6</ele>
        <time>2024-08-11T09:22:04Z</time>
      </trkpt>
      <trkpt lat="44.96794" lon="6.49877">
        <ele>1618.4</ele>
        <time>2024-08-11T09:22:05Z</time>
      </trkpt>
      <trkpt lat="44.96794" lon="6.49877">
        <ele>1618.4</ele>
        <time>2024-08-11T09:22:06Z</time>
      </trkpt>
      <trkpt lat="44.96791" lon="6.49876">
        <ele>1618.6</ele>
        <time>2024-08-11T09:22:07Z</time>
      </trkpt>
      <trkpt lat="44.96791" lon="6.49876">
        <ele>1618.6</ele>
        <time>2024-08-11T09:22:08Z</time>
      </trkpt>
      <trkpt lat="44.96789" lon="6.49876">
        <ele>1618.6</ele>
        <time>2024-08-11T09:22:09Z</time>
      </trkpt>
      <trkpt lat="44.96789" lon="6.49876">
        <ele>1619</ele>
        <time>2024-08-11T09:22:10Z</time>
      </trkpt>
      <trkpt lat="44.96789" lon="6.49876">
        <ele>1619</ele>
        <time>2024-08-11T09:22:11Z</time>
      </trkpt>
      <trkpt lat="44.96786" lon="6.49876">
        <ele>1619</ele>
        <time>2024-08-11T09:22:12Z</time>
      </trkpt>
      <trkpt lat="44.96785" lon="6.49875">
        <ele>1619.2</ele>
        <time>2024-08-11T09:22:13Z</time>
      </trkpt>
      <trkpt lat="44.96785" lon="6.49875">
        <ele>1619.2</ele>
        <time>2024-08-11T09:22:14Z</time>
      </trkpt>
      <trkpt lat="44.96784" lon="6.49873">
        <ele>1619.4</ele>
        <time>2024-08-11T09:22:15Z</time>
      </trkpt>
      <trkpt lat="44.96784" lon="6.49873">
        <ele>1619.4</ele>
        <time>2024-08-11T09:22:16Z</time>
      </trkpt>
      <trkpt lat="44.96783" lon="6.49871">
        <ele>1619.4</ele>
        <time>2024-08-11T09:22:17Z</time>
      </trkpt>
      <trkpt lat="44.96783" lon="6.49871">
        <ele>1619.4</ele>
        <time>2024-08-11T09:22:18Z</time>
      </trkpt>
      <trkpt lat="44.96781" lon="6.49868">
        <ele>1619.6</ele>
        <time>2024-08-11T09:22:19Z</time>
      </trkpt>
      <trkpt lat="44.96781" lon="6.49868">
        <ele>1619.8</ele>
        <time>2024-08-11T09:22:20Z</time>
      </trkpt>
      <trkpt lat="44.9678" lon="6.49865">
        <ele>1619.8</ele>
        <time>2024-08-11T09:22:21Z</time>
      </trkpt>
      <trkpt lat="44.9678" lon="6.49865">
        <ele>1619.8</ele>
        <time>2024-08-11T09:22:22Z</time>
      </trkpt>
      <trkpt lat="44.9678" lon="6.49862">
        <ele>1620.2</ele>
        <time>2024-08-11T09:22:23Z</time>
      </trkpt>
      <trkpt lat="44.9678" lon="6.49862">
        <ele>1620.4</ele>
        <time>2024-08-11T09:22:24Z</time>
      </trkpt>
      <trkpt lat="44.96779" lon="6.49859">
        <ele>1620.6</ele>
        <time>2024-08-11T09:22:25Z</time>
      </trkpt>
      <trkpt lat="44.96779" lon="6.49859">
        <ele>1620.6</ele>
        <time>2024-08-11T09:22:26Z</time>
      </trkpt>
      <trkpt lat="44.96779" lon="6.49857">
        <ele>1621</ele>
        <time>2024-08-11T09:22:27Z</time>
      </trkpt>
      <trkpt lat="44.96779" lon="6.49857">
        <ele>1621.2</ele>
        <time>2024-08-11T09:22:28Z</time>
      </trkpt>
      <trkpt lat="44.96778" lon="6.49853">
        <ele>1621.4</ele>
        <time>2024-08-11T09:22:29Z</time>
      </trkpt>
      <trkpt lat="44.96778" lon="6.49853">
        <ele>1621.2</ele>
        <time>2024-08-11T09:22:30Z</time>
      </trkpt>
      <trkpt lat="44.96777" lon="6.4985">
        <ele>1621.2</ele>
        <time>2024-08-11T09:22:31Z</time>
      </trkpt>
      <trkpt lat="44.96777" lon="6.4985">
        <ele>1621.6</ele>
        <time>2024-08-11T09:22:32Z</time>
      </trkpt>
      <trkpt lat="44.96777" lon="6.4985">
        <ele>1621.8</ele>
        <time>2024-08-11T09:22:33Z</time>
      </trkpt>
      <trkpt lat="44.96777" lon="6.49847">
        <ele>1621.8</ele>
        <time>2024-08-11T09:22:34Z</time>
      </trkpt>
      <trkpt lat="44.96777" lon="6.49847">
        <ele>1622</ele>
        <time>2024-08-11T09:22:35Z</time>
      </trkpt>
      <trkpt lat="44.96776" lon="6.49845">
        <ele>1622.2</ele>
        <time>2024-08-11T09:22:36Z</time>
      </trkpt>
      <trkpt lat="44.96776" lon="6.49845">
        <ele>1622.4</ele>
        <time>2024-08-11T09:22:37Z</time>
      </trkpt>
      <trkpt lat="44.96776" lon="6.49845">
        <ele>1622.6</ele>
        <time>2024-08-11T09:22:38Z</time>
      </trkpt>
      <trkpt lat="44.96775" lon="6.49842">
        <ele>1622.6</ele>
        <time>2024-08-11T09:22:39Z</time>
      </trkpt>
      <trkpt lat="44.96775" lon="6.49842">
        <ele>1622.8</ele>
        <time>2024-08-11T09:22:40Z</time>
      </trkpt>
      <trkpt lat="44.96775" lon="6.49842">
        <ele>1622.8</ele>
        <time>2024-08-11T09:22:41Z</time>
      </trkpt>
      <trkpt lat="44.96775" lon="6.49838">
        <ele>1623</ele>
        <time>2024-08-11T09:22:42Z</time>
      </trkpt>
      <trkpt lat="44.96775" lon="6.49838">
        <ele>1623</ele>
        <time>2024-08-11T09:22:43Z</time>
      </trkpt>
      <trkpt lat="44.96775" lon="6.49838">
        <ele>1623.2</ele>
        <time>2024-08-11T09:22:44Z</time>
      </trkpt>
      <trkpt lat="44.96774" lon="6.49835">
        <ele>1623.4</ele>
        <time>2024-08-11T09:22:45Z</time>
      </trkpt>
      <trkpt lat="44.96774" lon="6.49835">
        <ele>1623.4</ele>
        <time>2024-08-11T09:22:46Z</time>
      </trkpt>
      <trkpt lat="44.96774" lon="6.49835">
        <ele>1623.6</ele>
        <time>2024-08-11T09:22:47Z</time>
      </trkpt>
      <trkpt lat="44.96774" lon="6.49835">
        <ele>1623.6</ele>
        <time>2024-08-11T09:22:48Z</time>
      </trkpt>
      <trkpt lat="44.96772" lon="6.49833">
        <ele>1623.8</ele>
        <time>2024-08-11T09:22:49Z</time>
      </trkpt>
      <trkpt lat="44.96772" lon="6.49833">
        <ele>1624</ele>
        <time>2024-08-11T09:22:50Z</time>
      </trkpt>
      <trkpt lat="44.96771" lon="6.49831">
        <ele>1624</ele>
        <time>2024-08-11T09:22:51Z</time>
      </trkpt>
      <trkpt lat="44.96771" lon="6.49831">
        <ele>1624.4</ele>
        <time>2024-08-11T09:22:52Z</time>
      </trkpt>
      <trkpt lat="44.9677" lon="6.49829">
        <ele>1624.4</ele>
        <time>2024-08-11T09:22:53Z</time>
      </trkpt>
      <trkpt lat="44.9677" lon="6.49829">
        <ele>1624.6</ele>
        <time>2024-08-11T09:22:54Z</time>
      </trkpt>
      <trkpt lat="44.96769" lon="6.49826">
        <ele>1625</ele>
        <time>2024-08-11T09:22:55Z</time>
      </trkpt>
      <trkpt lat="44.96769" lon="6.49826">
        <ele>1625</ele>
        <time>2024-08-11T09:22:56Z</time>
      </trkpt>
      <trkpt lat="44.96769" lon="6.49826">
        <ele>1625</ele>
        <time>2024-08-11T09:22:57Z</time>
      </trkpt>
      <trkpt lat="44.96769" lon="6.49826">
        <ele>1625</ele>
        <time>2024-08-11T09:22:58Z</time>
      </trkpt>
      <trkpt lat="44.96768" lon="6.49824">
        <ele>1625.2</ele>
        <time>2024-08-11T09:22:59Z</time>
      </trkpt>
      <trkpt lat="44.96768" lon="6.49824">
        <ele>1625.2</ele>
        <time>2024-08-11T09:23:00Z</time>
      </trkpt>
      <trkpt lat="44.96768" lon="6.49824">
        <ele>1625.6</ele>
        <time>2024-08-11T09:23:01Z</time>
      </trkpt>
      <trkpt lat="44.96768" lon="6.49824">
        <ele>1626</ele>
        <time>2024-08-11T09:23:02Z</time>
      </trkpt>
      <trkpt lat="44.96765" lon="6.49821">
        <ele>1626</ele>
        <time>2024-08-11T09:23:03Z</time>
      </trkpt>
      <trkpt lat="44.96764" lon="6.4982">
        <ele>1626.2</ele>
        <time>2024-08-11T09:23:04Z</time>
      </trkpt>
      <trkpt lat="44.96764" lon="6.4982">
        <ele>1626.2</ele>
        <time>2024-08-11T09:23:05Z</time>
      </trkpt>
      <trkpt lat="44.96763" lon="6.49818">
        <ele>1626.6</ele>
        <time>2024-08-11T09:23:06Z</time>
      </trkpt>
      <trkpt lat="44.96763" lon="6.49818">
        <ele>1626.6</ele>
        <time>2024-08-11T09:23:07Z</time>
      </trkpt>
      <trkpt lat="44.96761" lon="6.49816">
        <ele>1626.8</ele>
        <time>2024-08-11T09:23:08Z</time>
      </trkpt>
      <trkpt lat="44.96761" lon="6.49816">
        <ele>1627</ele>
        <time>2024-08-11T09:23:09Z</time>
      </trkpt>
      <trkpt lat="44.96759" lon="6.49814">
        <ele>1627</ele>
        <time>2024-08-11T09:23:10Z</time>
      </trkpt>
      <trkpt lat="44.96759" lon="6.49814">
        <ele>1627</ele>
        <time>2024-08-11T09:23:11Z</time>
      </trkpt>
      <trkpt lat="44.96759" lon="6.49811">
        <ele>1627.4</ele>
        <time>2024-08-11T09:23:12Z</time>
      </trkpt>
      <trkpt lat="44.96759" lon="6.49811">
        <ele>1627.6</ele>
        <time>2024-08-11T09:23:13Z</time>
      </trkpt>
      <trkpt lat="44.96757" lon="6.49809">
        <ele>1627.8</ele>
        <time>2024-08-11T09:23:14Z</time>
      </trkpt>
      <trkpt lat="44.96757" lon="6.49809">
        <ele>1627.8</ele>
        <time>2024-08-11T09:23:15Z</time>
      </trkpt>
      <trkpt lat="44.96756" lon="6.49807">
        <ele>1628.2</ele>
        <time>2024-08-11T09:23:16Z</time>
      </trkpt>
      <trkpt lat="44.96756" lon="6.49807">
        <ele>1628.4</ele>
        <time>2024-08-11T09:23:17Z</time>
      </trkpt>
      <trkpt lat="44.96756" lon="6.49807">
        <ele>1628.4</ele>
        <time>2024-08-11T09:23:18Z</time>
      </trkpt>
      <trkpt lat="44.96755" lon="6.49804">
        <ele>1628.6</ele>
        <time>2024-08-11T09:23:19Z</time>
      </trkpt>
      <trkpt lat="44.96755" lon="6.49804">
        <ele>1629.2</ele>
        <time>2024-08-11T09:23:20Z</time>
      </trkpt>
      <trkpt lat="44.96755" lon="6.49804">
        <ele>1629.2</ele>
        <time>2024-08-11T09:23:21Z</time>
      </trkpt>
      <trkpt lat="44.96755" lon="6.49804">
        <ele>1629.4</ele>
        <time>2024-08-11T09:23:22Z</time>
      </trkpt>
      <trkpt lat="44.96754" lon="6.498">
        <ele>1629.6</ele>
        <time>2024-08-11T09:23:23Z</time>
      </trkpt>
      <trkpt lat="44.96754" lon="6.498">
        <ele>1629.8</ele>
        <time>2024-08-11T09:23:24Z</time>
      </trkpt>
      <trkpt lat="44.96754" lon="6.498">
        <ele>1630.2</ele>
        <time>2024-08-11T09:23:25Z</time>
      </trkpt>
      <trkpt lat="44.96753" lon="6.49798">
        <ele>1630.2</ele>
        <time>2024-08-11T09:23:26Z</time>
      </trkpt>
      <trkpt lat="44.96753" lon="6.49798">
        <ele>1630.4</ele>
        <time>2024-08-11T09:23:27Z</time>
      </trkpt>
      <trkpt lat="44.96753" lon="6.49798">
        <ele>1630.6</ele>
        <time>2024-08-11T09:23:28Z</time>
      </trkpt>
      <trkpt lat="44.96751" lon="6.49795">
        <ele>1631</ele>
        <time>2024-08-11T09:23:29Z</time>
      </trkpt>
      <trkpt lat="44.96751" lon="6.49795">
        <ele>1631</ele>
        <time>2024-08-11T09:23:30Z</time>
      </trkpt>
      <trkpt lat="44.96751" lon="6.49795">
        <ele>1631.6</ele>
        <time>2024-08-11T09:23:31Z</time>
      </trkpt>
      <trkpt lat="44.96751" lon="6.49795">
        <ele>1632</ele>
        <time>2024-08-11T09:23:32Z</time>
      </trkpt>
      <trkpt lat="44.96749" lon="6.49791">
        <ele>1632</ele>
        <time>2024-08-11T09:23:33Z</time>
      </trkpt>
      <trkpt lat="44.96749" lon="6.49791">
        <ele>1632</ele>
        <time>2024-08-11T09:23:34Z</time>
      </trkpt>
      <trkpt lat="44.96749" lon="6.49789">
        <ele>1632</ele>
        <time>2024-08-11T09:23:35Z</time>
      </trkpt>
      <trkpt lat="44.96749" lon="6.49789">
        <ele>1632.2</ele>
        <time>2024-08-11T09:23:36Z</time>
      </trkpt>
      <trkpt lat="44.96749" lon="6.49789">
        <ele>1632.4</ele>
        <time>2024-08-11T09:23:37Z</time>
      </trkpt>
      <trkpt lat="44.96749" lon="6.49789">
        <ele>1632.4</ele>
        <time>2024-08-11T09:23:38Z</time>
      </trkpt>
      <trkpt lat="44.96749" lon="6.49787">
        <ele>1632.8</ele>
        <time>2024-08-11T09:23:39Z</time>
      </trkpt>
      <trkpt lat="44.96749" lon="6.49787">
        <ele>1632.8</ele>
        <time>2024-08-11T09:23:40Z</time>
      </trkpt>
      <trkpt lat="44.96749" lon="6.49787">
        <ele>1633</ele>
        <time>2024-08-11T09:23:41Z</time>
      </trkpt>
      <trkpt lat="44.96747" lon="6.49786">
        <ele>1633.4</ele>
        <time>2024-08-11T09:23:42Z</time>
      </trkpt>
      <trkpt lat="44.96747" lon="6.49786">
        <ele>1633.4</ele>
        <time>2024-08-11T09:23:43Z</time>
      </trkpt>
      <trkpt lat="44.96747" lon="6.49786">
        <ele>1633.6</ele>
        <time>2024-08-11T09:23:44Z</time>
      </trkpt>
      <trkpt lat="44.96744" lon="6.49786">
        <ele>1633.8</ele>
        <time>2024-08-11T09:23:45Z</time>
      </trkpt>
      <trkpt lat="44.96744" lon="6.49786">
        <ele>1634</ele>
        <time>2024-08-11T09:23:46Z</time>
      </trkpt>
      <trkpt lat="44.96744" lon="6.49786">
        <ele>1634</ele>
        <time>2024-08-11T09:23:47Z</time>
      </trkpt>
      <trkpt lat="44.96744" lon="6.49786">
        <ele>1634</ele>
        <time>2024-08-11T09:23:48Z</time>
      </trkpt>
      <trkpt lat="44.96742" lon="6.49784">
        <ele>1634.4</ele>
        <time>2024-08-11T09:23:49Z</time>
      </trkpt>
      <trkpt lat="44.96742" lon="6.49784">
        <ele>1634.8</ele>
        <time>2024-08-11T09:23:50Z</time>
      </trkpt>
      <trkpt lat="44.96742" lon="6.49784">
        <ele>1634.8</ele>
        <time>2024-08-11T09:23:51Z</time>
      </trkpt>
      <trkpt lat="44.96741" lon="6.49782">
        <ele>1634.8</ele>
        <time>2024-08-11T09:23:52Z</time>
      </trkpt>
      <trkpt lat="44.96741" lon="6.49782">
        <ele>1634.8</ele>
        <time>2024-08-11T09:23:53Z</time>
      </trkpt>
      <trkpt lat="44.96741" lon="6.49782">
        <ele>1635</ele>
        <time>2024-08-11T09:23:54Z</time>
      </trkpt>
      <trkpt lat="44.9674" lon="6.49779">
        <ele>1635.4</ele>
        <time>2024-08-11T09:23:55Z</time>
      </trkpt>
      <trkpt lat="44.9674" lon="6.49779">
        <ele>1635.4</ele>
        <time>2024-08-11T09:23:56Z</time>
      </trkpt>
      <trkpt lat="44.9674" lon="6.49779">
        <ele>1635.6</ele>
        <time>2024-08-11T09:23:57Z</time>
      </trkpt>
      <trkpt lat="44.96738" lon="6.49777">
        <ele>1635.6</ele>
        <time>2024-08-11T09:23:58Z</time>
      </trkpt>
      <trkpt lat="44.96738" lon="6.49777">
        <ele>1636</ele>
        <time>2024-08-11T09:23:59Z</time>
      </trkpt>
      <trkpt lat="44.96738" lon="6.49777">
        <ele>1636.4</ele>
        <time>2024-08-11T09:24:00Z</time>
      </trkpt>
      <trkpt lat="44.96736" lon="6.49776">
        <ele>1636.8</ele>
        <time>2024-08-11T09:24:01Z</time>
      </trkpt>
      <trkpt lat="44.96736" lon="6.49776">
        <ele>1637</ele>
        <time>2024-08-11T09:24:02Z</time>
      </trkpt>
      <trkpt lat="44.96736" lon="6.49776">
        <ele>1637</ele>
        <time>2024-08-11T09:24:03Z</time>
      </trkpt>
      <trkpt lat="44.96736" lon="6.49776">
        <ele>1637</ele>
        <time>2024-08-11T09:24:04Z</time>
      </trkpt>
      <trkpt lat="44.96734" lon="6.49774">
        <ele>1637.2</ele>
        <time>2024-08-11T09:24:05Z</time>
      </trkpt>
      <trkpt lat="44.96734" lon="6.49774">
        <ele>1637.6</ele>
        <time>2024-08-11T09:24:06Z</time>
      </trkpt>
      <trkpt lat="44.96734" lon="6.49774">
        <ele>1637.6</ele>
        <time>2024-08-11T09:24:07Z</time>
      </trkpt>
      <trkpt lat="44.96734" lon="6.49774">
        <ele>1637.8</ele>
        <time>2024-08-11T09:24:08Z</time>
      </trkpt>
      <trkpt lat="44.96734" lon="6.49774">
        <ele>1638</ele>
        <time>2024-08-11T09:24:09Z</time>
      </trkpt>
      <trkpt lat="44.96732" lon="6.49773">
        <ele>1638.2</ele>
        <time>2024-08-11T09:24:10Z</time>
      </trkpt>
      <trkpt lat="44.96732" lon="6.49773">
        <ele>1638.6</ele>
        <time>2024-08-11T09:24:11Z</time>
      </trkpt>
      <trkpt lat="44.96732" lon="6.49773">
        <ele>1638.6</ele>
        <time>2024-08-11T09:24:12Z</time>
      </trkpt>
      <trkpt lat="44.9673" lon="6.49773">
        <ele>1638.8</ele>
        <time>2024-08-11T09:24:13Z</time>
      </trkpt>
      <trkpt lat="44.9673" lon="6.49773">
        <ele>1638.8</ele>
        <time>2024-08-11T09:24:14Z</time>
      </trkpt>
      <trkpt lat="44.9673" lon="6.49773">
        <ele>1639</ele>
        <time>2024-08-11T09:24:15Z</time>
      </trkpt>
      <trkpt lat="44.96728" lon="6.49772">
        <ele>1639.2</ele>
        <time>2024-08-11T09:24:16Z</time>
      </trkpt>
      <trkpt lat="44.96728" lon="6.49772">
        <ele>1639.6</ele>
        <time>2024-08-11T09:24:17Z</time>
      </trkpt>
      <trkpt lat="44.96728" lon="6.49772">
        <ele>1639.6</ele>
        <time>2024-08-11T09:24:18Z</time>
      </trkpt>
      <trkpt lat="44.96726" lon="6.4977">
        <ele>1639.6</ele>
        <time>2024-08-11T09:24:19Z</time>
      </trkpt>
      <trkpt lat="44.96726" lon="6.4977">
        <ele>1640</ele>
        <time>2024-08-11T09:24:20Z</time>
      </trkpt>
      <trkpt lat="44.96726" lon="6.4977">
        <ele>1640.2</ele>
        <time>2024-08-11T09:24:21Z</time>
      </trkpt>
      <trkpt lat="44.96726" lon="6.4977">
        <ele>1640.2</ele>
        <time>2024-08-11T09:24:22Z</time>
      </trkpt>
      <trkpt lat="44.96726" lon="6.4977">
        <ele>1640.4</ele>
        <time>2024-08-11T09:24:23Z</time>
      </trkpt>
      <trkpt lat="44.96724" lon="6.49769">
        <ele>1640.6</ele>
        <time>2024-08-11T09:24:24Z</time>
      </trkpt>
      <trkpt lat="44.96724" lon="6.49769">
        <ele>1640.8</ele>
        <time>2024-08-11T09:24:25Z</time>
      </trkpt>
      <trkpt lat="44.96724" lon="6.49769">
        <ele>1641.2</ele>
        <time>2024-08-11T09:24:26Z</time>
      </trkpt>
      <trkpt lat="44.96724" lon="6.49769">
        <ele>1641.8</ele>
        <time>2024-08-11T09:24:27Z</time>
      </trkpt>
      <trkpt lat="44.96723" lon="6.49766">
        <ele>1641.8</ele>
        <time>2024-08-11T09:24:28Z</time>
      </trkpt>
      <trkpt lat="44.96723" lon="6.49766">
        <ele>1642</ele>
        <time>2024-08-11T09:24:29Z</time>
      </trkpt>
      <trkpt lat="44.96723" lon="6.49766">
        <ele>1642</ele>
        <time>2024-08-11T09:24:30Z</time>
      </trkpt>
      <trkpt lat="44.96722" lon="6.49765">
        <ele>1642</ele>
        <time>2024-08-11T09:24:31Z</time>
      </trkpt>
      <trkpt lat="44.96722" lon="6.49765">
        <ele>1642.4</ele>
        <time>2024-08-11T09:24:32Z</time>
      </trkpt>
      <trkpt lat="44.96722" lon="6.49765">
        <ele>1642.4</ele>
        <time>2024-08-11T09:24:33Z</time>
      </trkpt>
      <trkpt lat="44.96722" lon="6.49762">
        <ele>1642.6</ele>
        <time>2024-08-11T09:24:34Z</time>
      </trkpt>
      <trkpt lat="44.96722" lon="6.49762">
        <ele>1642.8</ele>
        <time>2024-08-11T09:24:35Z</time>
      </trkpt>
      <trkpt lat="44.96722" lon="6.49759">
        <ele>1643</ele>
        <time>2024-08-11T09:24:36Z</time>
      </trkpt>
      <trkpt lat="44.96722" lon="6.49759">
        <ele>1643</ele>
        <time>2024-08-11T09:24:37Z</time>
      </trkpt>
      <trkpt lat="44.96722" lon="6.49759">
        <ele>1643.2</ele>
        <time>2024-08-11T09:24:38Z</time>
      </trkpt>
      <trkpt lat="44.96721" lon="6.49755">
        <ele>1643.2</ele>
        <time>2024-08-11T09:24:39Z</time>
      </trkpt>
      <trkpt lat="44.96721" lon="6.49755">
        <ele>1643.4</ele>
        <time>2024-08-11T09:24:40Z</time>
      </trkpt>
      <trkpt lat="44.96719" lon="6.49753">
        <ele>1643.6</ele>
        <time>2024-08-11T09:24:41Z</time>
      </trkpt>
      <trkpt lat="44.96719" lon="6.49753">
        <ele>1643.6</ele>
        <time>2024-08-11T09:24:42Z</time>
      </trkpt>
      <trkpt lat="44.96718" lon="6.49751">
        <ele>1643.8</ele>
        <time>2024-08-11T09:24:43Z</time>
      </trkpt>
      <trkpt lat="44.96718" lon="6.49751">
        <ele>1643.8</ele>
        <time>2024-08-11T09:24:44Z</time>
      </trkpt>
      <trkpt lat="44.96718" lon="6.49751">
        <ele>1644</ele>
        <time>2024-08-11T09:24:45Z</time>
      </trkpt>
      <trkpt lat="44.96716" lon="6.4975">
        <ele>1644.2</ele>
        <time>2024-08-11T09:24:46Z</time>
      </trkpt>
      <trkpt lat="44.96716" lon="6.4975">
        <ele>1644.2</ele>
        <time>2024-08-11T09:24:47Z</time>
      </trkpt>
      <trkpt lat="44.96716" lon="6.4975">
        <ele>1644.4</ele>
        <time>2024-08-11T09:24:48Z</time>
      </trkpt>
      <trkpt lat="44.96715" lon="6.49749">
        <ele>1644.6</ele>
        <time>2024-08-11T09:24:49Z</time>
      </trkpt>
      <trkpt lat="44.96715" lon="6.49749">
        <ele>1645.2</ele>
        <time>2024-08-11T09:24:50Z</time>
      </trkpt>
      <trkpt lat="44.96715" lon="6.49749">
        <ele>1645.4</ele>
        <time>2024-08-11T09:24:51Z</time>
      </trkpt>
      <trkpt lat="44.96713" lon="6.49747">
        <ele>1645.2</ele>
        <time>2024-08-11T09:24:52Z</time>
      </trkpt>
      <trkpt lat="44.96713" lon="6.49747">
        <ele>1645.8</ele>
        <time>2024-08-11T09:24:53Z</time>
      </trkpt>
      <trkpt lat="44.96713" lon="6.49747">
        <ele>1645.8</ele>
        <time>2024-08-11T09:24:54Z</time>
      </trkpt>
      <trkpt lat="44.96713" lon="6.49747">
        <ele>1646.2</ele>
        <time>2024-08-11T09:24:55Z</time>
      </trkpt>
      <trkpt lat="44.96713" lon="6.49747">
        <ele>1646.8</ele>
        <time>2024-08-11T09:24:56Z</time>
      </trkpt>
      <trkpt lat="44.96711" lon="6.49746">
        <ele>1646.8</ele>
        <time>2024-08-11T09:24:57Z</time>
      </trkpt>
      <trkpt lat="44.96711" lon="6.49746">
        <ele>1646.6</ele>
        <time>2024-08-11T09:24:58Z</time>
      </trkpt>
      <trkpt lat="44.96711" lon="6.49746">
        <ele>1646.6</ele>
        <time>2024-08-11T09:24:59Z</time>
      </trkpt>
      <trkpt lat="44.96711" lon="6.49746">
        <ele>1647.2</ele>
        <time>2024-08-11T09:25:00Z</time>
      </trkpt>
      <trkpt lat="44.9671" lon="6.49743">
        <ele>1647.4</ele>
        <time>2024-08-11T09:25:01Z</time>
      </trkpt>
      <trkpt lat="44.9671" lon="6.49743">
        <ele>1647.8</ele>
        <time>2024-08-11T09:25:02Z</time>
      </trkpt>
      <trkpt lat="44.9671" lon="6.49743">
        <ele>1647.8</ele>
        <time>2024-08-11T09:25:03Z</time>
      </trkpt>
      <trkpt lat="44.9671" lon="6.49743">
        <ele>1648.2</ele>
        <time>2024-08-11T09:25:04Z</time>
      </trkpt>
      <trkpt lat="44.9671" lon="6.49743">
        <ele>1648.4</ele>
        <time>2024-08-11T09:25:05Z</time>
      </trkpt>
      <trkpt lat="44.96709" lon="6.4974">
        <ele>1648.4</ele>
        <time>2024-08-11T09:25:06Z</time>
      </trkpt>
      <trkpt lat="44.96709" lon="6.4974">
        <ele>1648.4</ele>
        <time>2024-08-11T09:25:07Z</time>
      </trkpt>
      <trkpt lat="44.96708" lon="6.49738">
        <ele>1648.4</ele>
        <time>2024-08-11T09:25:08Z</time>
      </trkpt>
      <trkpt lat="44.96708" lon="6.49738">
        <ele>1648.4</ele>
        <time>2024-08-11T09:25:09Z</time>
      </trkpt>
      <trkpt lat="44.96708" lon="6.49738">
        <ele>1648.6</ele>
        <time>2024-08-11T09:25:10Z</time>
      </trkpt>
      <trkpt lat="44.96705" lon="6.49738">
        <ele>1648.8</ele>
        <time>2024-08-11T09:25:11Z</time>
      </trkpt>
      <trkpt lat="44.96705" lon="6.49738">
        <ele>1649</ele>
        <time>2024-08-11T09:25:12Z</time>
      </trkpt>
      <trkpt lat="44.96705" lon="6.49738">
        <ele>1649.2</ele>
        <time>2024-08-11T09:25:13Z</time>
      </trkpt>
      <trkpt lat="44.96705" lon="6.49738">
        <ele>1649.4</ele>
        <time>2024-08-11T09:25:14Z</time>
      </trkpt>
      <trkpt lat="44.96705" lon="6.49735">
        <ele>1649.6</ele>
        <time>2024-08-11T09:25:15Z</time>
      </trkpt>
      <trkpt lat="44.96705" lon="6.49735">
        <ele>1649.6</ele>
        <time>2024-08-11T09:25:16Z</time>
      </trkpt>
      <trkpt lat="44.96705" lon="6.49735">
        <ele>1649.4</ele>
        <time>2024-08-11T09:25:17Z</time>
      </trkpt>
      <trkpt lat="44.96705" lon="6.49732">
        <ele>1649.4</ele>
        <time>2024-08-11T09:25:18Z</time>
      </trkpt>
      <trkpt lat="44.96705" lon="6.49732">
        <ele>1649.6</ele>
        <time>2024-08-11T09:25:19Z</time>
      </trkpt>
      <trkpt lat="44.96705" lon="6.49732">
        <ele>1649.6</ele>
        <time>2024-08-11T09:25:20Z</time>
      </trkpt>
      <trkpt lat="44.96706" lon="6.49729">
        <ele>1649.8</ele>
        <time>2024-08-11T09:25:21Z</time>
      </trkpt>
      <trkpt lat="44.96706" lon="6.49729">
        <ele>1649.8</ele>
        <time>2024-08-11T09:25:22Z</time>
      </trkpt>
      <trkpt lat="44.96708" lon="6.49727">
        <ele>1650</ele>
        <time>2024-08-11T09:25:23Z</time>
      </trkpt>
      <trkpt lat="44.96708" lon="6.49727">
        <ele>1650.2</ele>
        <time>2024-08-11T09:25:24Z</time>
      </trkpt>
      <trkpt lat="44.96709" lon="6.49725">
        <ele>1650.2</ele>
        <time>2024-08-11T09:25:25Z</time>
      </trkpt>
      <trkpt lat="44.96709" lon="6.49725">
        <ele>1650</ele>
        <time>2024-08-11T09:25:26Z</time>
      </trkpt>
      <trkpt lat="44.96709" lon="6.49725">
        <ele>1650</ele>
        <time>2024-08-11T09:25:27Z</time>
      </trkpt>
      <trkpt lat="44.96711" lon="6.49723">
        <ele>1650</ele>
        <time>2024-08-11T09:25:28Z</time>
      </trkpt>
      <trkpt lat="44.96711" lon="6.49723">
        <ele>1650</ele>
        <time>2024-08-11T09:25:29Z</time>
      </trkpt>
      <trkpt lat="44.96713" lon="6.49721">
        <ele>1650</ele>
        <time>2024-08-11T09:25:30Z</time>
      </trkpt>
      <trkpt lat="44.96713" lon="6.49721">
        <ele>1650</ele>
        <time>2024-08-11T09:25:31Z</time>
      </trkpt>
      <trkpt lat="44.96715" lon="6.49718">
        <ele>1650</ele>
        <time>2024-08-11T09:25:32Z</time>
      </trkpt>
      <trkpt lat="44.96715" lon="6.49718">
        <ele>1650</ele>
        <time>2024-08-11T09:25:33Z</time>
      </trkpt>
      <trkpt lat="44.96716" lon="6.49716">
        <ele>1650</ele>
        <time>2024-08-11T09:25:34Z</time>
      </trkpt>
      <trkpt lat="44.96716" lon="6.49716">
        <ele>1650</ele>
        <time>2024-08-11T09:25:35Z</time>
      </trkpt>
      <trkpt lat="44.96717" lon="6.49714">
        <ele>1650</ele>
        <time>2024-08-11T09:25:36Z</time>
      </trkpt>
      <trkpt lat="44.96717" lon="6.49714">
        <ele>1650</ele>
        <time>2024-08-11T09:25:37Z</time>
      </trkpt>
      <trkpt lat="44.96719" lon="6.49711">
        <ele>1649.8</ele>
        <time>2024-08-11T09:25:38Z</time>
      </trkpt>
      <trkpt lat="44.96719" lon="6.49711">
        <ele>1649.8</ele>
        <time>2024-08-11T09:25:39Z</time>
      </trkpt>
      <trkpt lat="44.96721" lon="6.4971">
        <ele>1649.8</ele>
        <time>2024-08-11T09:25:40Z</time>
      </trkpt>
      <trkpt lat="44.96721" lon="6.4971">
        <ele>1649.8</ele>
        <time>2024-08-11T09:25:41Z</time>
      </trkpt>
      <trkpt lat="44.96723" lon="6.49708">
        <ele>1649.8</ele>
        <time>2024-08-11T09:25:42Z</time>
      </trkpt>
      <trkpt lat="44.96723" lon="6.49708">
        <ele>1650</ele>
        <time>2024-08-11T09:25:43Z</time>
      </trkpt>
      <trkpt lat="44.96726" lon="6.49706">
        <ele>1650</ele>
        <time>2024-08-11T09:25:44Z</time>
      </trkpt>
      <trkpt lat="44.96726" lon="6.49706">
        <ele>1650</ele>
        <time>2024-08-11T09:25:45Z</time>
      </trkpt>
      <trkpt lat="44.96727" lon="6.49703">
        <ele>1650</ele>
        <time>2024-08-11T09:25:46Z</time>
      </trkpt>
      <trkpt lat="44.96727" lon="6.49703">
        <ele>1650</ele>
        <time>2024-08-11T09:25:47Z</time>
      </trkpt>
      <trkpt lat="44.96727" lon="6.49703">
        <ele>1650.2</ele>
        <time>2024-08-11T09:25:48Z</time>
      </trkpt>
      <trkpt lat="44.96728" lon="6.49699">
        <ele>1650.2</ele>
        <time>2024-08-11T09:25:49Z</time>
      </trkpt>
      <trkpt lat="44.96728" lon="6.49699">
        <ele>1650.2</ele>
        <time>2024-08-11T09:25:50Z</time>
      </trkpt>
      <trkpt lat="44.96729" lon="6.49696">
        <ele>1650</ele>
        <time>2024-08-11T09:25:51Z</time>
      </trkpt>
      <trkpt lat="44.96729" lon="6.49695">
        <ele>1650</ele>
        <time>2024-08-11T09:25:52Z</time>
      </trkpt>
      <trkpt lat="44.96729" lon="6.49695">
        <ele>1650</ele>
        <time>2024-08-11T09:25:53Z</time>
      </trkpt>
      <trkpt lat="44.9673" lon="6.49692">
        <ele>1650.2</ele>
        <time>2024-08-11T09:25:54Z</time>
      </trkpt>
      <trkpt lat="44.9673" lon="6.49692">
        <ele>1650.2</ele>
        <time>2024-08-11T09:25:55Z</time>
      </trkpt>
      <trkpt lat="44.9673" lon="6.49692">
        <ele>1650.2</ele>
        <time>2024-08-11T09:25:56Z</time>
      </trkpt>
      <trkpt lat="44.96731" lon="6.49687">
        <ele>1650.4</ele>
        <time>2024-08-11T09:25:57Z</time>
      </trkpt>
      <trkpt lat="44.96731" lon="6.49687">
        <ele>1650.6</ele>
        <time>2024-08-11T09:25:58Z</time>
      </trkpt>
      <trkpt lat="44.96732" lon="6.49685">
        <ele>1650.8</ele>
        <time>2024-08-11T09:25:59Z</time>
      </trkpt>
      <trkpt lat="44.96732" lon="6.49685">
        <ele>1650.8</ele>
        <time>2024-08-11T09:26:00Z</time>
      </trkpt>
      <trkpt lat="44.96733" lon="6.49682">
        <ele>1650.8</ele>
        <time>2024-08-11T09:26:01Z</time>
      </trkpt>
      <trkpt lat="44.96733" lon="6.49682">
        <ele>1650.8</ele>
        <time>2024-08-11T09:26:02Z</time>
      </trkpt>
      <trkpt lat="44.96735" lon="6.49681">
        <ele>1650.8</ele>
        <time>2024-08-11T09:26:03Z</time>
      </trkpt>
      <trkpt lat="44.96735" lon="6.49681">
        <ele>1650.8</ele>
        <time>2024-08-11T09:26:04Z</time>
      </trkpt>
      <trkpt lat="44.96737" lon="6.49679">
        <ele>1650.8</ele>
        <time>2024-08-11T09:26:05Z</time>
      </trkpt>
      <trkpt lat="44.96737" lon="6.49679">
        <ele>1651</ele>
        <time>2024-08-11T09:26:06Z</time>
      </trkpt>
      <trkpt lat="44.96741" lon="6.49678">
        <ele>1651</ele>
        <time>2024-08-11T09:26:07Z</time>
      </trkpt>
      <trkpt lat="44.96741" lon="6.49678">
        <ele>1651.2</ele>
        <time>2024-08-11T09:26:08Z</time>
      </trkpt>
      <trkpt lat="44.96743" lon="6.49677">
        <ele>1651.2</ele>
        <time>2024-08-11T09:26:09Z</time>
      </trkpt>
      <trkpt lat="44.96743" lon="6.49677">
        <ele>1651.2</ele>
        <time>2024-08-11T09:26:10Z</time>
      </trkpt>
      <trkpt lat="44.96745" lon="6.49675">
        <ele>1651.2</ele>
        <time>2024-08-11T09:26:11Z</time>
      </trkpt>
      <trkpt lat="44.96745" lon="6.49675">
        <ele>1651.2</ele>
        <time>2024-08-11T09:26:12Z</time>
      </trkpt>
      <trkpt lat="44.96748" lon="6.49675">
        <ele>1651.2</ele>
        <time>2024-08-11T09:26:13Z</time>
      </trkpt>
      <trkpt lat="44.96748" lon="6.49675">
        <ele>1651.2</ele>
        <time>2024-08-11T09:26:14Z</time>
      </trkpt>
      <trkpt lat="44.9675" lon="6.49675">
        <ele>1651.4</ele>
        <time>2024-08-11T09:26:15Z</time>
      </trkpt>
      <trkpt lat="44.9675" lon="6.49675">
        <ele>1651.4</ele>
        <time>2024-08-11T09:26:16Z</time>
      </trkpt>
      <trkpt lat="44.96752" lon="6.49674">
        <ele>1651.4</ele>
        <time>2024-08-11T09:26:17Z</time>
      </trkpt>
      <trkpt lat="44.96752" lon="6.49674">
        <ele>1651.2</ele>
        <time>2024-08-11T09:26:18Z</time>
      </trkpt>
      <trkpt lat="44.96754" lon="6.49673">
        <ele>1651.2</ele>
        <time>2024-08-11T09:26:19Z</time>
      </trkpt>
      <trkpt lat="44.96754" lon="6.49673">
        <ele>1651.2</ele>
        <time>2024-08-11T09:26:20Z</time>
      </trkpt>
      <trkpt lat="44.96756" lon="6.49671">
        <ele>1651.4</ele>
        <time>2024-08-11T09:26:21Z</time>
      </trkpt>
      <trkpt lat="44.96756" lon="6.49671">
        <ele>1651.4</ele>
        <time>2024-08-11T09:26:22Z</time>
      </trkpt>
      <trkpt lat="44.96756" lon="6.49671">
        <ele>1651.4</ele>
        <time>2024-08-11T09:26:23Z</time>
      </trkpt>
      <trkpt lat="44.96757" lon="6.4967">
        <ele>1651.2</ele>
        <time>2024-08-11T09:26:24Z</time>
      </trkpt>
      <trkpt lat="44.96757" lon="6.4967">
        <ele>1651.2</ele>
        <time>2024-08-11T09:26:25Z</time>
      </trkpt>
      <trkpt lat="44.96757" lon="6.4967">
        <ele>1651.2</ele>
        <time>2024-08-11T09:26:26Z</time>
      </trkpt>
      <trkpt lat="44.96759" lon="6.4967">
        <ele>1651.2</ele>
        <time>2024-08-11T09:26:27Z</time>
      </trkpt>
      <trkpt lat="44.96759" lon="6.4967">
        <ele>1651.6</ele>
        <time>2024-08-11T09:26:28Z</time>
      </trkpt>
      <trkpt lat="44.96762" lon="6.49671">
        <ele>1651.8</ele>
        <time>2024-08-11T09:26:29Z</time>
      </trkpt>
      <trkpt lat="44.96762" lon="6.49671">
        <ele>1651.8</ele>
        <time>2024-08-11T09:26:30Z</time>
      </trkpt>
      <trkpt lat="44.96762" lon="6.49671">
        <ele>1651.6</ele>
        <time>2024-08-11T09:26:31Z</time>
      </trkpt>
      <trkpt lat="44.96762" lon="6.49671">
        <ele>1651.6</ele>
        <time>2024-08-11T09:26:32Z</time>
      </trkpt>
      <trkpt lat="44.96765" lon="6.49669">
        <ele>1651.6</ele>
        <time>2024-08-11T09:26:33Z</time>
      </trkpt>
      <trkpt lat="44.96765" lon="6.49669">
        <ele>1651.6</ele>
        <time>2024-08-11T09:26:34Z</time>
      </trkpt>
      <trkpt lat="44.96768" lon="6.49667">
        <ele>1651.8</ele>
        <time>2024-08-11T09:26:35Z</time>
      </trkpt>
      <trkpt lat="44.96768" lon="6.49667">
        <ele>1651.8</ele>
        <time>2024-08-11T09:26:36Z</time>
      </trkpt>
      <trkpt lat="44.9677" lon="6.49666">
        <ele>1651.8</ele>
        <time>2024-08-11T09:26:37Z</time>
      </trkpt>
      <trkpt lat="44.9677" lon="6.49666">
        <ele>1651.8</ele>
        <time>2024-08-11T09:26:38Z</time>
      </trkpt>
      <trkpt lat="44.96773" lon="6.49665">
        <ele>1652</ele>
        <time>2024-08-11T09:26:39Z</time>
      </trkpt>
      <trkpt lat="44.96773" lon="6.49665">
        <ele>1652</ele>
        <time>2024-08-11T09:26:40Z</time>
      </trkpt>
      <trkpt lat="44.96774" lon="6.49665">
        <ele>1652.4</ele>
        <time>2024-08-11T09:26:41Z</time>
      </trkpt>
      <trkpt lat="44.96774" lon="6.49665">
        <ele>1652.4</ele>
        <time>2024-08-11T09:26:42Z</time>
      </trkpt>
      <trkpt lat="44.96774" lon="6.49665">
        <ele>1652.4</ele>
        <time>2024-08-11T09:26:43Z</time>
      </trkpt>
      <trkpt lat="44.96777" lon="6.49662">
        <ele>1652.4</ele>
        <time>2024-08-11T09:26:44Z</time>
      </trkpt>
      <trkpt lat="44.96777" lon="6.49662">
        <ele>1652.4</ele>
        <time>2024-08-11T09:26:45Z</time>
      </trkpt>
      <trkpt lat="44.96779" lon="6.49661">
        <ele>1652.6</ele>
        <time>2024-08-11T09:26:46Z</time>
      </trkpt>
      <trkpt lat="44.96779" lon="6.49661">
        <ele>1652.8</ele>
        <time>2024-08-11T09:26:47Z</time>
      </trkpt>
      <trkpt lat="44.96781" lon="6.4966">
        <ele>1653.2</ele>
        <time>2024-08-11T09:26:48Z</time>
      </trkpt>
      <trkpt lat="44.96781" lon="6.4966">
        <ele>1653.2</ele>
        <time>2024-08-11T09:26:49Z</time>
      </trkpt>
      <trkpt lat="44.96783" lon="6.49659">
        <ele>1653.2</ele>
        <time>2024-08-11T09:26:50Z</time>
      </trkpt>
      <trkpt lat="44.96783" lon="6.49659">
        <ele>1653</ele>
        <time>2024-08-11T09:26:51Z</time>
      </trkpt>
      <trkpt lat="44.96786" lon="6.49658">
        <ele>1653</ele>
        <time>2024-08-11T09:26:52Z</time>
      </trkpt>
      <trkpt lat="44.96786" lon="6.49658">
        <ele>1653.6</ele>
        <time>2024-08-11T09:26:53Z</time>
      </trkpt>
      <trkpt lat="44.96788" lon="6.49658">
        <ele>1653.6</ele>
        <time>2024-08-11T09:26:54Z</time>
      </trkpt>
      <trkpt lat="44.96788" lon="6.49658">
        <ele>1653.6</ele>
        <time>2024-08-11T09:26:55Z</time>
      </trkpt>
      <trkpt lat="44.9679" lon="6.49657">
        <ele>1653.6</ele>
        <time>2024-08-11T09:26:56Z</time>
      </trkpt>
      <trkpt lat="44.9679" lon="6.49657">
        <ele>1653.8</ele>
        <time>2024-08-11T09:26:57Z</time>
      </trkpt>
      <trkpt lat="44.96792" lon="6.49656">
        <ele>1653.8</ele>
        <time>2024-08-11T09:26:58Z</time>
      </trkpt>
      <trkpt lat="44.96792" lon="6.49656">
        <ele>1653.8</ele>
        <time>2024-08-11T09:26:59Z</time>
      </trkpt>
      <trkpt lat="44.96795" lon="6.49655">
        <ele>1653.8</ele>
        <time>2024-08-11T09:27:00Z</time>
      </trkpt>
      <trkpt lat="44.96795" lon="6.49655">
        <ele>1654</ele>
        <time>2024-08-11T09:27:01Z</time>
      </trkpt>
      <trkpt lat="44.96795" lon="6.49655">
        <ele>1654.2</ele>
        <time>2024-08-11T09:27:02Z</time>
      </trkpt>
      <trkpt lat="44.96799" lon="6.49655">
        <ele>1654.4</ele>
        <time>2024-08-11T09:27:03Z</time>
      </trkpt>
      <trkpt lat="44.968" lon="6.49654">
        <ele>1654.6</ele>
        <time>2024-08-11T09:27:04Z</time>
      </trkpt>
      <trkpt lat="44.968" lon="6.49654">
        <ele>1654.6</ele>
        <time>2024-08-11T09:27:05Z</time>
      </trkpt>
      <trkpt lat="44.96802" lon="6.49655">
        <ele>1654.8</ele>
        <time>2024-08-11T09:27:06Z</time>
      </trkpt>
      <trkpt lat="44.96802" lon="6.49655">
        <ele>1654.8</ele>
        <time>2024-08-11T09:27:07Z</time>
      </trkpt>
      <trkpt lat="44.96805" lon="6.49655">
        <ele>1654.8</ele>
        <time>2024-08-11T09:27:08Z</time>
      </trkpt>
      <trkpt lat="44.96805" lon="6.49655">
        <ele>1655</ele>
        <time>2024-08-11T09:27:09Z</time>
      </trkpt>
      <trkpt lat="44.96807" lon="6.49653">
        <ele>1655</ele>
        <time>2024-08-11T09:27:10Z</time>
      </trkpt>
      <trkpt lat="44.96807" lon="6.49653">
        <ele>1654.8</ele>
        <time>2024-08-11T09:27:11Z</time>
      </trkpt>
      <trkpt lat="44.96809" lon="6.49652">
        <ele>1654.8</ele>
        <time>2024-08-11T09:27:12Z</time>
      </trkpt>
      <trkpt lat="44.96809" lon="6.49652">
        <ele>1655</ele>
        <time>2024-08-11T09:27:13Z</time>
      </trkpt>
      <trkpt lat="44.96811" lon="6.49651">
        <ele>1655</ele>
        <time>2024-08-11T09:27:14Z</time>
      </trkpt>
      <trkpt lat="44.96811" lon="6.49651">
        <ele>1654.6</ele>
        <time>2024-08-11T09:27:15Z</time>
      </trkpt>
      <trkpt lat="44.96813" lon="6.4965">
        <ele>1654.6</ele>
        <time>2024-08-11T09:27:16Z</time>
      </trkpt>
      <trkpt lat="44.96813" lon="6.4965">
        <ele>1654.6</ele>
        <time>2024-08-11T09:27:17Z</time>
      </trkpt>
      <trkpt lat="44.96815" lon="6.49649">
        <ele>1654.8</ele>
        <time>2024-08-11T09:27:18Z</time>
      </trkpt>
      <trkpt lat="44.96815" lon="6.49649">
        <ele>1654.6</ele>
        <time>2024-08-11T09:27:19Z</time>
      </trkpt>
      <trkpt lat="44.96818" lon="6.49648">
        <ele>1654.4</ele>
        <time>2024-08-11T09:27:20Z</time>
      </trkpt>
      <trkpt lat="44.96818" lon="6.49648">
        <ele>1654</ele>
        <time>2024-08-11T09:27:21Z</time>
      </trkpt>
      <trkpt lat="44.96821" lon="6.49647">
        <ele>1654</ele>
        <time>2024-08-11T09:27:22Z</time>
      </trkpt>
      <trkpt lat="44.96821" lon="6.49647">
        <ele>1654</ele>
        <time>2024-08-11T09:27:23Z</time>
      </trkpt>
      <trkpt lat="44.96823" lon="6.49646">
        <ele>1653.8</ele>
        <time>2024-08-11T09:27:24Z</time>
      </trkpt>
      <trkpt lat="44.96823" lon="6.49646">
        <ele>1653.8</ele>
        <time>2024-08-11T09:27:25Z</time>
      </trkpt>
      <trkpt lat="44.96825" lon="6.49645">
        <ele>1654</ele>
        <time>2024-08-11T09:27:26Z</time>
      </trkpt>
      <trkpt lat="44.96825" lon="6.49645">
        <ele>1654</ele>
        <time>2024-08-11T09:27:27Z</time>
      </trkpt>
      <trkpt lat="44.96828" lon="6.49644">
        <ele>1654</ele>
        <time>2024-08-11T09:27:28Z</time>
      </trkpt>
      <trkpt lat="44.96828" lon="6.49644">
        <ele>1654.2</ele>
        <time>2024-08-11T09:27:29Z</time>
      </trkpt>
      <trkpt lat="44.9683" lon="6.49641">
        <ele>1654.2</ele>
        <time>2024-08-11T09:27:30Z</time>
      </trkpt>
      <trkpt lat="44.9683" lon="6.49641">
        <ele>1654.4</ele>
        <time>2024-08-11T09:27:31Z</time>
      </trkpt>
      <trkpt lat="44.9683" lon="6.49641">
        <ele>1654.4</ele>
        <time>2024-08-11T09:27:32Z</time>
      </trkpt>
      <trkpt lat="44.96831" lon="6.49639">
        <ele>1654.4</ele>
        <time>2024-08-11T09:27:33Z</time>
      </trkpt>
      <trkpt lat="44.96831" lon="6.49639">
        <ele>1654.6</ele>
        <time>2024-08-11T09:27:34Z</time>
      </trkpt>
      <trkpt lat="44.96831" lon="6.49639">
        <ele>1654.8</ele>
        <time>2024-08-11T09:27:35Z</time>
      </trkpt>
      <trkpt lat="44.9683" lon="6.49635">
        <ele>1654.8</ele>
        <time>2024-08-11T09:27:36Z</time>
      </trkpt>
      <trkpt lat="44.9683" lon="6.49635">
        <ele>1654.8</ele>
        <time>2024-08-11T09:27:37Z</time>
      </trkpt>
      <trkpt lat="44.9683" lon="6.49635">
        <ele>1655</ele>
        <time>2024-08-11T09:27:38Z</time>
      </trkpt>
      <trkpt lat="44.96829" lon="6.49633">
        <ele>1655</ele>
        <time>2024-08-11T09:27:39Z</time>
      </trkpt>
      <trkpt lat="44.96829" lon="6.49633">
        <ele>1655.2</ele>
        <time>2024-08-11T09:27:40Z</time>
      </trkpt>
      <trkpt lat="44.96829" lon="6.49633">
        <ele>1655.2</ele>
        <time>2024-08-11T09:27:41Z</time>
      </trkpt>
      <trkpt lat="44.96827" lon="6.4963">
        <ele>1655.6</ele>
        <time>2024-08-11T09:27:42Z</time>
      </trkpt>
      <trkpt lat="44.96827" lon="6.4963">
        <ele>1656</ele>
        <time>2024-08-11T09:27:43Z</time>
      </trkpt>
      <trkpt lat="44.96827" lon="6.4963">
        <ele>1656.2</ele>
        <time>2024-08-11T09:27:44Z</time>
      </trkpt>
      <trkpt lat="44.96826" lon="6.49627">
        <ele>1656.2</ele>
        <time>2024-08-11T09:27:45Z</time>
      </trkpt>
      <trkpt lat="44.96826" lon="6.49627">
        <ele>1656.2</ele>
        <time>2024-08-11T09:27:46Z</time>
      </trkpt>
      <trkpt lat="44.96826" lon="6.49627">
        <ele>1656.2</ele>
        <time>2024-08-11T09:27:47Z</time>
      </trkpt>
      <trkpt lat="44.96826" lon="6.49627">
        <ele>1656</ele>
        <time>2024-08-11T09:27:48Z</time>
      </trkpt>
      <trkpt lat="44.96825" lon="6.49624">
        <ele>1656</ele>
        <time>2024-08-11T09:27:49Z</time>
      </trkpt>
      <trkpt lat="44.96825" lon="6.49624">
        <ele>1656</ele>
        <time>2024-08-11T09:27:50Z</time>
      </trkpt>
      <trkpt lat="44.96825" lon="6.4962">
        <ele>1655.8</ele>
        <time>2024-08-11T09:27:51Z</time>
      </trkpt>
      <trkpt lat="44.96825" lon="6.4962">
        <ele>1655.8</ele>
        <time>2024-08-11T09:27:52Z</time>
      </trkpt>
      <trkpt lat="44.96824" lon="6.49617">
        <ele>1655.8</ele>
        <time>2024-08-11T09:27:53Z</time>
      </trkpt>
      <trkpt lat="44.96824" lon="6.49617">
        <ele>1656</ele>
        <time>2024-08-11T09:27:54Z</time>
      </trkpt>
      <trkpt lat="44.96824" lon="6.49617">
        <ele>1656</ele>
        <time>2024-08-11T09:27:55Z</time>
      </trkpt>
      <trkpt lat="44.96824" lon="6.49617">
        <ele>1656</ele>
        <time>2024-08-11T09:27:56Z</time>
      </trkpt>
      <trkpt lat="44.96824" lon="6.49617">
        <ele>1656.2</ele>
        <time>2024-08-11T09:27:57Z</time>
      </trkpt>
      <trkpt lat="44.96824" lon="6.49617">
        <ele>1656.4</ele>
        <time>2024-08-11T09:27:58Z</time>
      </trkpt>
      <trkpt lat="44.96824" lon="6.49617">
        <ele>1656.4</ele>
        <time>2024-08-11T09:27:59Z</time>
      </trkpt>
      <trkpt lat="44.96824" lon="6.49617">
        <ele>1656.4</ele>
        <time>2024-08-11T09:28:00Z</time>
      </trkpt>
      <trkpt lat="44.96824" lon="6.49617">
        <ele>1656.4</ele>
        <time>2024-08-11T09:28:01Z</time>
      </trkpt>
      <trkpt lat="44.96824" lon="6.49617">
        <ele>1656.4</ele>
        <time>2024-08-11T09:28:02Z</time>
      </trkpt>
      <trkpt lat="44.96824" lon="6.49617">
        <ele>1656.4</ele>
        <time>2024-08-11T09:28:03Z</time>
      </trkpt>
      <trkpt lat="44.96824" lon="6.49617">
        <ele>1656.2</ele>
        <time>2024-08-11T09:28:04Z</time>
      </trkpt>
      <trkpt lat="44.96824" lon="6.49617">
        <ele>1656.2</ele>
        <time>2024-08-11T09:28:05Z</time>
      </trkpt>
      <trkpt lat="44.96824" lon="6.49617">
        <ele>1656.2</ele>
        <time>2024-08-11T09:28:06Z</time>
      </trkpt>
      <trkpt lat="44.96824" lon="6.49617">
        <ele>1656.4</ele>
        <time>2024-08-11T09:28:07Z</time>
      </trkpt>
      <trkpt lat="44.96824" lon="6.49617">
        <ele>1656.4</ele>
        <time>2024-08-11T09:28:08Z</time>
      </trkpt>
      <trkpt lat="44.96824" lon="6.49617">
        <ele>1656.6</ele>
        <time>2024-08-11T09:28:09Z</time>
      </trkpt>
      <trkpt lat="44.96824" lon="6.49617">
        <ele>1656.6</ele>
        <time>2024-08-11T09:28:10Z</time>
      </trkpt>
      <trkpt lat="44.96824" lon="6.49617">
        <ele>1656.6</ele>
        <time>2024-08-11T09:28:11Z</time>
      </trkpt>
      <trkpt lat="44.96824" lon="6.49617">
        <ele>1656.8</ele>
        <time>2024-08-11T09:28:12Z</time>
      </trkpt>
      <trkpt lat="44.96824" lon="6.49617">
        <ele>1657.2</ele>
        <time>2024-08-11T09:28:13Z</time>
      </trkpt>
      <trkpt lat="44.96824" lon="6.49617">
        <ele>1657.4</ele>
        <time>2024-08-11T09:28:14Z</time>
      </trkpt>
      <trkpt lat="44.96824" lon="6.49617">
        <ele>1657.4</ele>
        <time>2024-08-11T09:28:15Z</time>
      </trkpt>
      <trkpt lat="44.96823" lon="6.49615">
        <ele>1657.4</ele>
        <time>2024-08-11T09:28:16Z</time>
      </trkpt>
      <trkpt lat="44.96823" lon="6.49615">
        <ele>1657.8</ele>
        <time>2024-08-11T09:28:17Z</time>
      </trkpt>
      <trkpt lat="44.96821" lon="6.49611">
        <ele>1658.2</ele>
        <time>2024-08-11T09:28:18Z</time>
      </trkpt>
      <trkpt lat="44.96821" lon="6.49611">
        <ele>1658.4</ele>
        <time>2024-08-11T09:28:19Z</time>
      </trkpt>
      <trkpt lat="44.9682" lon="6.49606">
        <ele>1658.6</ele>
        <time>2024-08-11T09:28:20Z</time>
      </trkpt>
      <trkpt lat="44.9682" lon="6.49606">
        <ele>1658.8</ele>
        <time>2024-08-11T09:28:21Z</time>
      </trkpt>
      <trkpt lat="44.96818" lon="6.49604">
        <ele>1659.4</ele>
        <time>2024-08-11T09:28:22Z</time>
      </trkpt>
      <trkpt lat="44.96818" lon="6.49604">
        <ele>1659.4</ele>
        <time>2024-08-11T09:28:23Z</time>
      </trkpt>
      <trkpt lat="44.96817" lon="6.49601">
        <ele>1659.4</ele>
        <time>2024-08-11T09:28:24Z</time>
      </trkpt>
      <trkpt lat="44.96817" lon="6.49601">
        <ele>1659.4</ele>
        <time>2024-08-11T09:28:25Z</time>
      </trkpt>
      <trkpt lat="44.96817" lon="6.49601">
        <ele>1659.6</ele>
        <time>2024-08-11T09:28:26Z</time>
      </trkpt>
      <trkpt lat="44.96817" lon="6.49598">
        <ele>1659.8</ele>
        <time>2024-08-11T09:28:27Z</time>
      </trkpt>
      <trkpt lat="44.96817" lon="6.49598">
        <ele>1659.8</ele>
        <time>2024-08-11T09:28:28Z</time>
      </trkpt>
      <trkpt lat="44.96817" lon="6.49598">
        <ele>1659.8</ele>
        <time>2024-08-11T09:28:29Z</time>
      </trkpt>
      <trkpt lat="44.96817" lon="6.49598">
        <ele>1660.2</ele>
        <time>2024-08-11T09:28:30Z</time>
      </trkpt>
      <trkpt lat="44.96815" lon="6.49594">
        <ele>1660.4</ele>
        <time>2024-08-11T09:28:31Z</time>
      </trkpt>
      <trkpt lat="44.96815" lon="6.49594">
        <ele>1660.6</ele>
        <time>2024-08-11T09:28:32Z</time>
      </trkpt>
      <trkpt lat="44.96815" lon="6.49594">
        <ele>1661</ele>
        <time>2024-08-11T09:28:33Z</time>
      </trkpt>
      <trkpt lat="44.96815" lon="6.49592">
        <ele>1661</ele>
        <time>2024-08-11T09:28:34Z</time>
      </trkpt>
      <trkpt lat="44.96815" lon="6.49592">
        <ele>1661.4</ele>
        <time>2024-08-11T09:28:35Z</time>
      </trkpt>
      <trkpt lat="44.96815" lon="6.49592">
        <ele>1661.6</ele>
        <time>2024-08-11T09:28:36Z</time>
      </trkpt>
      <trkpt lat="44.96813" lon="6.49589">
        <ele>1661.8</ele>
        <time>2024-08-11T09:28:37Z</time>
      </trkpt>
      <trkpt lat="44.96813" lon="6.49589">
        <ele>1661.8</ele>
        <time>2024-08-11T09:28:38Z</time>
      </trkpt>
      <trkpt lat="44.96813" lon="6.49589">
        <ele>1662</ele>
        <time>2024-08-11T09:28:39Z</time>
      </trkpt>
      <trkpt lat="44.96813" lon="6.49589">
        <ele>1662.2</ele>
        <time>2024-08-11T09:28:40Z</time>
      </trkpt>
      <trkpt lat="44.96812" lon="6.49587">
        <ele>1662.2</ele>
        <time>2024-08-11T09:28:41Z</time>
      </trkpt>
      <trkpt lat="44.96812" lon="6.49587">
        <ele>1662.8</ele>
        <time>2024-08-11T09:28:42Z</time>
      </trkpt>
      <trkpt lat="44.96812" lon="6.49587">
        <ele>1662.8</ele>
        <time>2024-08-11T09:28:43Z</time>
      </trkpt>
      <trkpt lat="44.96812" lon="6.49587">
        <ele>1663</ele>
        <time>2024-08-11T09:28:44Z</time>
      </trkpt>
      <trkpt lat="44.96812" lon="6.49584">
        <ele>1663.4</ele>
        <time>2024-08-11T09:28:45Z</time>
      </trkpt>
      <trkpt lat="44.96812" lon="6.49584">
        <ele>1663.4</ele>
        <time>2024-08-11T09:28:46Z</time>
      </trkpt>
      <trkpt lat="44.96812" lon="6.49584">
        <ele>1663.4</ele>
        <time>2024-08-11T09:28:47Z</time>
      </trkpt>
      <trkpt lat="44.9681" lon="6.49581">
        <ele>1663.6</ele>
        <time>2024-08-11T09:28:48Z</time>
      </trkpt>
      <trkpt lat="44.9681" lon="6.49581">
        <ele>1664</ele>
        <time>2024-08-11T09:28:49Z</time>
      </trkpt>
      <trkpt lat="44.9681" lon="6.49581">
        <ele>1664.4</ele>
        <time>2024-08-11T09:28:50Z</time>
      </trkpt>
      <trkpt lat="44.9681" lon="6.49581">
        <ele>1664.8</ele>
        <time>2024-08-11T09:28:51Z</time>
      </trkpt>
      <trkpt lat="44.96809" lon="6.49579">
        <ele>1664.8</ele>
        <time>2024-08-11T09:28:52Z</time>
      </trkpt>
      <trkpt lat="44.96809" lon="6.49579">
        <ele>1664.8</ele>
        <time>2024-08-11T09:28:53Z</time>
      </trkpt>
      <trkpt lat="44.96809" lon="6.49579">
        <ele>1665</ele>
        <time>2024-08-11T09:28:54Z</time>
      </trkpt>
      <trkpt lat="44.96809" lon="6.49579">
        <ele>1665.2</ele>
        <time>2024-08-11T09:28:55Z</time>
      </trkpt>
      <trkpt lat="44.96809" lon="6.49579">
        <ele>1665.4</ele>
        <time>2024-08-11T09:28:56Z</time>
      </trkpt>
      <trkpt lat="44.96809" lon="6.49575">
        <ele>1665.4</ele>
        <time>2024-08-11T09:28:57Z</time>
      </trkpt>
      <trkpt lat="44.96809" lon="6.49575">
        <ele>1665.4</ele>
        <time>2024-08-11T09:28:58Z</time>
      </trkpt>
      <trkpt lat="44.96807" lon="6.49573">
        <ele>1666.2</ele>
        <time>2024-08-11T09:28:59Z</time>
      </trkpt>
      <trkpt lat="44.96807" lon="6.49573">
        <ele>1666.2</ele>
        <time>2024-08-11T09:29:00Z</time>
      </trkpt>
      <trkpt lat="44.96807" lon="6.49573">
        <ele>1666.4</ele>
        <time>2024-08-11T09:29:01Z</time>
      </trkpt>
      <trkpt lat="44.96807" lon="6.49573">
        <ele>1666.4</ele>
        <time>2024-08-11T09:29:02Z</time>
      </trkpt>
      <trkpt lat="44.96805" lon="6.49571">
        <ele>1666.4</ele>
        <time>2024-08-11T09:29:03Z</time>
      </trkpt>
      <trkpt lat="44.96805" lon="6.49571">
        <ele>1666.8</ele>
        <time>2024-08-11T09:29:04Z</time>
      </trkpt>
      <trkpt lat="44.96804" lon="6.49571">
        <ele>1667</ele>
        <time>2024-08-11T09:29:05Z</time>
      </trkpt>
      <trkpt lat="44.96804" lon="6.49571">
        <ele>1667.2</ele>
        <time>2024-08-11T09:29:06Z</time>
      </trkpt>
      <trkpt lat="44.96804" lon="6.49571">
        <ele>1667.4</ele>
        <time>2024-08-11T09:29:07Z</time>
      </trkpt>
      <trkpt lat="44.96804" lon="6.49571">
        <ele>1668</ele>
        <time>2024-08-11T09:29:08Z</time>
      </trkpt>
      <trkpt lat="44.96802" lon="6.49569">
        <ele>1668</ele>
        <time>2024-08-11T09:29:09Z</time>
      </trkpt>
      <trkpt lat="44.96802" lon="6.49569">
        <ele>1668.2</ele>
        <time>2024-08-11T09:29:10Z</time>
      </trkpt>
      <trkpt lat="44.96802" lon="6.49569">
        <ele>1668.2</ele>
        <time>2024-08-11T09:29:11Z</time>
      </trkpt>
      <trkpt lat="44.96802" lon="6.49569">
        <ele>1668.4</ele>
        <time>2024-08-11T09:29:12Z</time>
      </trkpt>
      <trkpt lat="44.968" lon="6.49568">
        <ele>1668.6</ele>
        <time>2024-08-11T09:29:13Z</time>
      </trkpt>
      <trkpt lat="44.968" lon="6.49568">
        <ele>1668.8</ele>
        <time>2024-08-11T09:29:14Z</time>
      </trkpt>
      <trkpt lat="44.968" lon="6.49568">
        <ele>1669.4</ele>
        <time>2024-08-11T09:29:15Z</time>
      </trkpt>
      <trkpt lat="44.96799" lon="6.49566">
        <ele>1669.4</ele>
        <time>2024-08-11T09:29:16Z</time>
      </trkpt>
      <trkpt lat="44.96799" lon="6.49566">
        <ele>1669.4</ele>
        <time>2024-08-11T09:29:17Z</time>
      </trkpt>
      <trkpt lat="44.96799" lon="6.49566">
        <ele>1669.8</ele>
        <time>2024-08-11T09:29:18Z</time>
      </trkpt>
      <trkpt lat="44.96799" lon="6.49566">
        <ele>1670</ele>
        <time>2024-08-11T09:29:19Z</time>
      </trkpt>
      <trkpt lat="44.96799" lon="6.49566">
        <ele>1670.4</ele>
        <time>2024-08-11T09:29:20Z</time>
      </trkpt>
      <trkpt lat="44.96797" lon="6.49563">
        <ele>1670.4</ele>
        <time>2024-08-11T09:29:21Z</time>
      </trkpt>
      <trkpt lat="44.96797" lon="6.49563">
        <ele>1670.4</ele>
        <time>2024-08-11T09:29:22Z</time>
      </trkpt>
      <trkpt lat="44.96795" lon="6.49562">
        <ele>1670.8</ele>
        <time>2024-08-11T09:29:23Z</time>
      </trkpt>
      <trkpt lat="44.96795" lon="6.49562">
        <ele>1670.8</ele>
        <time>2024-08-11T09:29:24Z</time>
      </trkpt>
      <trkpt lat="44.96793" lon="6.49561">
        <ele>1670.8</ele>
        <time>2024-08-11T09:29:25Z</time>
      </trkpt>
      <trkpt lat="44.96793" lon="6.49561">
        <ele>1670.8</ele>
        <time>2024-08-11T09:29:26Z</time>
      </trkpt>
      <trkpt lat="44.9679" lon="6.4956">
        <ele>1670.6</ele>
        <time>2024-08-11T09:29:27Z</time>
      </trkpt>
      <trkpt lat="44.9679" lon="6.4956">
        <ele>1670.8</ele>
        <time>2024-08-11T09:29:28Z</time>
      </trkpt>
      <trkpt lat="44.96788" lon="6.49558">
        <ele>1670.8</ele>
        <time>2024-08-11T09:29:29Z</time>
      </trkpt>
      <trkpt lat="44.96788" lon="6.49558">
        <ele>1670.8</ele>
        <time>2024-08-11T09:29:30Z</time>
      </trkpt>
      <trkpt lat="44.96785" lon="6.49556">
        <ele>1670.6</ele>
        <time>2024-08-11T09:29:31Z</time>
      </trkpt>
      <trkpt lat="44.96785" lon="6.49556">
        <ele>1670.6</ele>
        <time>2024-08-11T09:29:32Z</time>
      </trkpt>
      <trkpt lat="44.96783" lon="6.49554">
        <ele>1670.6</ele>
        <time>2024-08-11T09:29:33Z</time>
      </trkpt>
      <trkpt lat="44.96783" lon="6.49554">
        <ele>1670.6</ele>
        <time>2024-08-11T09:29:34Z</time>
      </trkpt>
      <trkpt lat="44.96782" lon="6.49552">
        <ele>1670.6</ele>
        <time>2024-08-11T09:29:35Z</time>
      </trkpt>
      <trkpt lat="44.96782" lon="6.49552">
        <ele>1670.8</ele>
        <time>2024-08-11T09:29:36Z</time>
      </trkpt>
      <trkpt lat="44.96781" lon="6.4955">
        <ele>1670.8</ele>
        <time>2024-08-11T09:29:37Z</time>
      </trkpt>
      <trkpt lat="44.96781" lon="6.4955">
        <ele>1670.8</ele>
        <time>2024-08-11T09:29:38Z</time>
      </trkpt>
      <trkpt lat="44.96778" lon="6.49549">
        <ele>1670.8</ele>
        <time>2024-08-11T09:29:39Z</time>
      </trkpt>
      <trkpt lat="44.96778" lon="6.49549">
        <ele>1670.8</ele>
        <time>2024-08-11T09:29:40Z</time>
      </trkpt>
      <trkpt lat="44.96775" lon="6.49549">
        <ele>1671.4</ele>
        <time>2024-08-11T09:29:41Z</time>
      </trkpt>
      <trkpt lat="44.96775" lon="6.49549">
        <ele>1671.4</ele>
        <time>2024-08-11T09:29:42Z</time>
      </trkpt>
      <trkpt lat="44.96773" lon="6.49548">
        <ele>1671.2</ele>
        <time>2024-08-11T09:29:43Z</time>
      </trkpt>
      <trkpt lat="44.96773" lon="6.49548">
        <ele>1671.2</ele>
        <time>2024-08-11T09:29:44Z</time>
      </trkpt>
      <trkpt lat="44.96771" lon="6.49547">
        <ele>1671.2</ele>
        <time>2024-08-11T09:29:45Z</time>
      </trkpt>
      <trkpt lat="44.96771" lon="6.49547">
        <ele>1671.2</ele>
        <time>2024-08-11T09:29:46Z</time>
      </trkpt>
      <trkpt lat="44.96769" lon="6.49546">
        <ele>1671.2</ele>
        <time>2024-08-11T09:29:47Z</time>
      </trkpt>
      <trkpt lat="44.96769" lon="6.49546">
        <ele>1671.2</ele>
        <time>2024-08-11T09:29:48Z</time>
      </trkpt>
      <trkpt lat="44.96766" lon="6.49545">
        <ele>1671.2</ele>
        <time>2024-08-11T09:29:49Z</time>
      </trkpt>
      <trkpt lat="44.96766" lon="6.49545">
        <ele>1671.2</ele>
        <time>2024-08-11T09:29:50Z</time>
      </trkpt>
      <trkpt lat="44.96765" lon="6.49543">
        <ele>1671.2</ele>
        <time>2024-08-11T09:29:51Z</time>
      </trkpt>
      <trkpt lat="44.96765" lon="6.49543">
        <ele>1671.2</ele>
        <time>2024-08-11T09:29:52Z</time>
      </trkpt>
      <trkpt lat="44.96763" lon="6.49543">
        <ele>1671.4</ele>
        <time>2024-08-11T09:29:53Z</time>
      </trkpt>
      <trkpt lat="44.96763" lon="6.49543">
        <ele>1671.4</ele>
        <time>2024-08-11T09:29:54Z</time>
      </trkpt>
      <trkpt lat="44.9676" lon="6.49543">
        <ele>1671.8</ele>
        <time>2024-08-11T09:29:55Z</time>
      </trkpt>
      <trkpt lat="44.9676" lon="6.49543">
        <ele>1671.8</ele>
        <time>2024-08-11T09:29:56Z</time>
      </trkpt>
      <trkpt lat="44.96757" lon="6.49544">
        <ele>1671.8</ele>
        <time>2024-08-11T09:29:57Z</time>
      </trkpt>
      <trkpt lat="44.96757" lon="6.49544">
        <ele>1672</ele>
        <time>2024-08-11T09:29:58Z</time>
      </trkpt>
      <trkpt lat="44.96757" lon="6.49544">
        <ele>1672.2</ele>
        <time>2024-08-11T09:29:59Z</time>
      </trkpt>
      <trkpt lat="44.96755" lon="6.49545">
        <ele>1672.6</ele>
        <time>2024-08-11T09:30:00Z</time>
      </trkpt>
      <trkpt lat="44.96755" lon="6.49545">
        <ele>1672.6</ele>
        <time>2024-08-11T09:30:01Z</time>
      </trkpt>
      <trkpt lat="44.96753" lon="6.49546">
        <ele>1672.6</ele>
        <time>2024-08-11T09:30:02Z</time>
      </trkpt>
      <trkpt lat="44.96753" lon="6.49546">
        <ele>1672.8</ele>
        <time>2024-08-11T09:30:03Z</time>
      </trkpt>
      <trkpt lat="44.96751" lon="6.49547">
        <ele>1672.8</ele>
        <time>2024-08-11T09:30:04Z</time>
      </trkpt>
      <trkpt lat="44.96751" lon="6.49547">
        <ele>1672.8</ele>
        <time>2024-08-11T09:30:05Z</time>
      </trkpt>
      <trkpt lat="44.96751" lon="6.49547">
        <ele>1673</ele>
        <time>2024-08-11T09:30:06Z</time>
      </trkpt>
      <trkpt lat="44.96749" lon="6.49547">
        <ele>1673.2</ele>
        <time>2024-08-11T09:30:07Z</time>
      </trkpt>
      <trkpt lat="44.96749" lon="6.49547">
        <ele>1673.6</ele>
        <time>2024-08-11T09:30:08Z</time>
      </trkpt>
      <trkpt lat="44.96749" lon="6.49547">
        <ele>1673.8</ele>
        <time>2024-08-11T09:30:09Z</time>
      </trkpt>
      <trkpt lat="44.96746" lon="6.49548">
        <ele>1673.8</ele>
        <time>2024-08-11T09:30:10Z</time>
      </trkpt>
      <trkpt lat="44.96746" lon="6.49548">
        <ele>1673.8</ele>
        <time>2024-08-11T09:30:11Z</time>
      </trkpt>
      <trkpt lat="44.96746" lon="6.49548">
        <ele>1674.2</ele>
        <time>2024-08-11T09:30:12Z</time>
      </trkpt>
      <trkpt lat="44.96744" lon="6.49549">
        <ele>1674.2</ele>
        <time>2024-08-11T09:30:13Z</time>
      </trkpt>
      <trkpt lat="44.96744" lon="6.49549">
        <ele>1674.4</ele>
        <time>2024-08-11T09:30:14Z</time>
      </trkpt>
      <trkpt lat="44.96744" lon="6.49549">
        <ele>1674.6</ele>
        <time>2024-08-11T09:30:15Z</time>
      </trkpt>
      <trkpt lat="44.96744" lon="6.49549">
        <ele>1674.8</ele>
        <time>2024-08-11T09:30:16Z</time>
      </trkpt>
      <trkpt lat="44.96744" lon="6.49549">
        <ele>1674.8</ele>
        <time>2024-08-11T09:30:17Z</time>
      </trkpt>
      <trkpt lat="44.96742" lon="6.49551">
        <ele>1675.4</ele>
        <time>2024-08-11T09:30:18Z</time>
      </trkpt>
      <trkpt lat="44.96742" lon="6.49551">
        <ele>1675.6</ele>
        <time>2024-08-11T09:30:19Z</time>
      </trkpt>
      <trkpt lat="44.96742" lon="6.49551">
        <ele>1675.6</ele>
        <time>2024-08-11T09:30:20Z</time>
      </trkpt>
      <trkpt lat="44.9674" lon="6.49551">
        <ele>1675.8</ele>
        <time>2024-08-11T09:30:21Z</time>
      </trkpt>
      <trkpt lat="44.9674" lon="6.49551">
        <ele>1676.2</ele>
        <time>2024-08-11T09:30:22Z</time>
      </trkpt>
      <trkpt lat="44.9674" lon="6.49551">
        <ele>1676.6</ele>
        <time>2024-08-11T09:30:23Z</time>
      </trkpt>
      <trkpt lat="44.96738" lon="6.49553">
        <ele>1676.8</ele>
        <time>2024-08-11T09:30:24Z</time>
      </trkpt>
      <trkpt lat="44.96738" lon="6.49553">
        <ele>1676.8</ele>
        <time>2024-08-11T09:30:25Z</time>
      </trkpt>
      <trkpt lat="44.96736" lon="6.49554">
        <ele>1677</ele>
        <time>2024-08-11T09:30:26Z</time>
      </trkpt>
      <trkpt lat="44.96736" lon="6.49554">
        <ele>1677.2</ele>
        <time>2024-08-11T09:30:27Z</time>
      </trkpt>
      <trkpt lat="44.96734" lon="6.49554">
        <ele>1677.2</ele>
        <time>2024-08-11T09:30:28Z</time>
      </trkpt>
      <trkpt lat="44.96734" lon="6.49554">
        <ele>1677.6</ele>
        <time>2024-08-11T09:30:29Z</time>
      </trkpt>
      <trkpt lat="44.96732" lon="6.49554">
        <ele>1677.6</ele>
        <time>2024-08-11T09:30:30Z</time>
      </trkpt>
      <trkpt lat="44.96732" lon="6.49554">
        <ele>1677.6</ele>
        <time>2024-08-11T09:30:31Z</time>
      </trkpt>
      <trkpt lat="44.96732" lon="6.49554">
        <ele>1678</ele>
        <time>2024-08-11T09:30:32Z</time>
      </trkpt>
      <trkpt lat="44.96729" lon="6.49553">
        <ele>1678</ele>
        <time>2024-08-11T09:30:33Z</time>
      </trkpt>
      <trkpt lat="44.96729" lon="6.49553">
        <ele>1678.2</ele>
        <time>2024-08-11T09:30:34Z</time>
      </trkpt>
      <trkpt lat="44.96729" lon="6.49553">
        <ele>1678.6</ele>
        <time>2024-08-11T09:30:35Z</time>
      </trkpt>
      <trkpt lat="44.96727" lon="6.49553">
        <ele>1678.6</ele>
        <time>2024-08-11T09:30:36Z</time>
      </trkpt>
      <trkpt lat="44.96727" lon="6.49553">
        <ele>1678.8</ele>
        <time>2024-08-11T09:30:37Z</time>
      </trkpt>
      <trkpt lat="44.96725" lon="6.49553">
        <ele>1679</ele>
        <time>2024-08-11T09:30:38Z</time>
      </trkpt>
      <trkpt lat="44.96725" lon="6.49553">
        <ele>1679</ele>
        <time>2024-08-11T09:30:39Z</time>
      </trkpt>
      <trkpt lat="44.96724" lon="6.49553">
        <ele>1679.2</ele>
        <time>2024-08-11T09:30:40Z</time>
      </trkpt>
      <trkpt lat="44.96724" lon="6.49553">
        <ele>1679.4</ele>
        <time>2024-08-11T09:30:41Z</time>
      </trkpt>
      <trkpt lat="44.96722" lon="6.49554">
        <ele>1679.6</ele>
        <time>2024-08-11T09:30:42Z</time>
      </trkpt>
      <trkpt lat="44.96722" lon="6.49554">
        <ele>1679.8</ele>
        <time>2024-08-11T09:30:43Z</time>
      </trkpt>
      <trkpt lat="44.96722" lon="6.49554">
        <ele>1680</ele>
        <time>2024-08-11T09:30:44Z</time>
      </trkpt>
      <trkpt lat="44.96719" lon="6.49555">
        <ele>1680</ele>
        <time>2024-08-11T09:30:45Z</time>
      </trkpt>
      <trkpt lat="44.96719" lon="6.49555">
        <ele>1680</ele>
        <time>2024-08-11T09:30:46Z</time>
      </trkpt>
      <trkpt lat="44.96719" lon="6.49555">
        <ele>1680.4</ele>
        <time>2024-08-11T09:30:47Z</time>
      </trkpt>
      <trkpt lat="44.96718" lon="6.49556">
        <ele>1680.6</ele>
        <time>2024-08-11T09:30:48Z</time>
      </trkpt>
      <trkpt lat="44.96718" lon="6.49556">
        <ele>1680.8</ele>
        <time>2024-08-11T09:30:49Z</time>
      </trkpt>
      <trkpt lat="44.96718" lon="6.49556">
        <ele>1681</ele>
        <time>2024-08-11T09:30:50Z</time>
      </trkpt>
      <trkpt lat="44.96718" lon="6.49556">
        <ele>1681</ele>
        <time>2024-08-11T09:30:51Z</time>
      </trkpt>
      <trkpt lat="44.96718" lon="6.49556">
        <ele>1681.2</ele>
        <time>2024-08-11T09:30:52Z</time>
      </trkpt>
      <trkpt lat="44.96718" lon="6.49556">
        <ele>1681.2</ele>
        <time>2024-08-11T09:30:53Z</time>
      </trkpt>
      <trkpt lat="44.96715" lon="6.49557">
        <ele>1681.2</ele>
        <time>2024-08-11T09:30:54Z</time>
      </trkpt>
      <trkpt lat="44.96715" lon="6.49557">
        <ele>1681</ele>
        <time>2024-08-11T09:30:55Z</time>
      </trkpt>
      <trkpt lat="44.96713" lon="6.49557">
        <ele>1680.6</ele>
        <time>2024-08-11T09:30:56Z</time>
      </trkpt>
      <trkpt lat="44.96713" lon="6.49557">
        <ele>1680.4</ele>
        <time>2024-08-11T09:30:57Z</time>
      </trkpt>
      <trkpt lat="44.96709" lon="6.49559">
        <ele>1680.4</ele>
        <time>2024-08-11T09:30:58Z</time>
      </trkpt>
      <trkpt lat="44.96709" lon="6.49559">
        <ele>1680.4</ele>
        <time>2024-08-11T09:30:59Z</time>
      </trkpt>
      <trkpt lat="44.96707" lon="6.49559">
        <ele>1680.4</ele>
        <time>2024-08-11T09:31:00Z</time>
      </trkpt>
      <trkpt lat="44.96707" lon="6.49559">
        <ele>1680.4</ele>
        <time>2024-08-11T09:31:01Z</time>
      </trkpt>
      <trkpt lat="44.96705" lon="6.4956">
        <ele>1680.2</ele>
        <time>2024-08-11T09:31:02Z</time>
      </trkpt>
      <trkpt lat="44.96705" lon="6.4956">
        <ele>1680.2</ele>
        <time>2024-08-11T09:31:03Z</time>
      </trkpt>
      <trkpt lat="44.96703" lon="6.4956">
        <ele>1680.6</ele>
        <time>2024-08-11T09:31:04Z</time>
      </trkpt>
      <trkpt lat="44.96703" lon="6.4956">
        <ele>1681.2</ele>
        <time>2024-08-11T09:31:05Z</time>
      </trkpt>
      <trkpt lat="44.96703" lon="6.4956">
        <ele>1681.2</ele>
        <time>2024-08-11T09:31:06Z</time>
      </trkpt>
      <trkpt lat="44.967" lon="6.4956">
        <ele>1681.2</ele>
        <time>2024-08-11T09:31:07Z</time>
      </trkpt>
      <trkpt lat="44.967" lon="6.4956">
        <ele>1681.2</ele>
        <time>2024-08-11T09:31:08Z</time>
      </trkpt>
      <trkpt lat="44.96698" lon="6.49558">
        <ele>1681.2</ele>
        <time>2024-08-11T09:31:09Z</time>
      </trkpt>
      <trkpt lat="44.96698" lon="6.49558">
        <ele>1681.6</ele>
        <time>2024-08-11T09:31:10Z</time>
      </trkpt>
      <trkpt lat="44.96698" lon="6.49558">
        <ele>1681.8</ele>
        <time>2024-08-11T09:31:11Z</time>
      </trkpt>
      <trkpt lat="44.96696" lon="6.49556">
        <ele>1682</ele>
        <time>2024-08-11T09:31:12Z</time>
      </trkpt>
      <trkpt lat="44.96696" lon="6.49556">
        <ele>1682.2</ele>
        <time>2024-08-11T09:31:13Z</time>
      </trkpt>
      <trkpt lat="44.96696" lon="6.49556">
        <ele>1682.2</ele>
        <time>2024-08-11T09:31:14Z</time>
      </trkpt>
      <trkpt lat="44.96693" lon="6.49555">
        <ele>1682.6</ele>
        <time>2024-08-11T09:31:15Z</time>
      </trkpt>
      <trkpt lat="44.96693" lon="6.49555">
        <ele>1683</ele>
        <time>2024-08-11T09:31:16Z</time>
      </trkpt>
      <trkpt lat="44.96693" lon="6.49555">
        <ele>1683</ele>
        <time>2024-08-11T09:31:17Z</time>
      </trkpt>
      <trkpt lat="44.96691" lon="6.49555">
        <ele>1683.2</ele>
        <time>2024-08-11T09:31:18Z</time>
      </trkpt>
      <trkpt lat="44.96691" lon="6.49555">
        <ele>1683.6</ele>
        <time>2024-08-11T09:31:19Z</time>
      </trkpt>
      <trkpt lat="44.96691" lon="6.49555">
        <ele>1683.6</ele>
        <time>2024-08-11T09:31:20Z</time>
      </trkpt>
      <trkpt lat="44.96688" lon="6.49555">
        <ele>1684</ele>
        <time>2024-08-11T09:31:21Z</time>
      </trkpt>
      <trkpt lat="44.96688" lon="6.49555">
        <ele>1684</ele>
        <time>2024-08-11T09:31:22Z</time>
      </trkpt>
      <trkpt lat="44.96688" lon="6.49555">
        <ele>1684</ele>
        <time>2024-08-11T09:31:23Z</time>
      </trkpt>
      <trkpt lat="44.96686" lon="6.49556">
        <ele>1684.2</ele>
        <time>2024-08-11T09:31:24Z</time>
      </trkpt>
      <trkpt lat="44.96686" lon="6.49556">
        <ele>1684.2</ele>
        <time>2024-08-11T09:31:25Z</time>
      </trkpt>
      <trkpt lat="44.96684" lon="6.49557">
        <ele>1684.2</ele>
        <time>2024-08-11T09:31:26Z</time>
      </trkpt>
      <trkpt lat="44.96684" lon="6.49557">
        <ele>1684.4</ele>
        <time>2024-08-11T09:31:27Z</time>
      </trkpt>
      <trkpt lat="44.96684" lon="6.49557">
        <ele>1684.4</ele>
        <time>2024-08-11T09:31:28Z</time>
      </trkpt>
      <trkpt lat="44.96682" lon="6.49554">
        <ele>1684.6</ele>
        <time>2024-08-11T09:31:29Z</time>
      </trkpt>
      <trkpt lat="44.96682" lon="6.49554">
        <ele>1684.8</ele>
        <time>2024-08-11T09:31:30Z</time>
      </trkpt>
      <trkpt lat="44.9668" lon="6.49553">
        <ele>1685</ele>
        <time>2024-08-11T09:31:31Z</time>
      </trkpt>
      <trkpt lat="44.9668" lon="6.49553">
        <ele>1685.2</ele>
        <time>2024-08-11T09:31:32Z</time>
      </trkpt>
      <trkpt lat="44.9668" lon="6.49553">
        <ele>1685.2</ele>
        <time>2024-08-11T09:31:33Z</time>
      </trkpt>
      <trkpt lat="44.9668" lon="6.49553">
        <ele>1685.4</ele>
        <time>2024-08-11T09:31:34Z</time>
      </trkpt>
      <trkpt lat="44.96678" lon="6.49553">
        <ele>1685.8</ele>
        <time>2024-08-11T09:31:35Z</time>
      </trkpt>
      <trkpt lat="44.96678" lon="6.49553">
        <ele>1686.2</ele>
        <time>2024-08-11T09:31:36Z</time>
      </trkpt>
      <trkpt lat="44.96677" lon="6.49556">
        <ele>1686.2</ele>
        <time>2024-08-11T09:31:37Z</time>
      </trkpt>
      <trkpt lat="44.96677" lon="6.49556">
        <ele>1686.2</ele>
        <time>2024-08-11T09:31:38Z</time>
      </trkpt>
      <trkpt lat="44.96676" lon="6.49558">
        <ele>1686.2</ele>
        <time>2024-08-11T09:31:39Z</time>
      </trkpt>
      <trkpt lat="44.96676" lon="6.49558">
        <ele>1686.6</ele>
        <time>2024-08-11T09:31:40Z</time>
      </trkpt>
      <trkpt lat="44.96676" lon="6.49558">
        <ele>1686.8</ele>
        <time>2024-08-11T09:31:41Z</time>
      </trkpt>
      <trkpt lat="44.96676" lon="6.49558">
        <ele>1687.2</ele>
        <time>2024-08-11T09:31:42Z</time>
      </trkpt>
      <trkpt lat="44.96674" lon="6.4956">
        <ele>1687.4</ele>
        <time>2024-08-11T09:31:43Z</time>
      </trkpt>
      <trkpt lat="44.96674" lon="6.4956">
        <ele>1687.4</ele>
        <time>2024-08-11T09:31:44Z</time>
      </trkpt>
      <trkpt lat="44.96674" lon="6.4956">
        <ele>1687.6</ele>
        <time>2024-08-11T09:31:45Z</time>
      </trkpt>
      <trkpt lat="44.96674" lon="6.4956">
        <ele>1687.8</ele>
        <time>2024-08-11T09:31:46Z</time>
      </trkpt>
      <trkpt lat="44.96672" lon="6.49562">
        <ele>1688</ele>
        <time>2024-08-11T09:31:47Z</time>
      </trkpt>
      <trkpt lat="44.96672" lon="6.49562">
        <ele>1688.6</ele>
        <time>2024-08-11T09:31:48Z</time>
      </trkpt>
      <trkpt lat="44.96672" lon="6.49562">
        <ele>1689</ele>
        <time>2024-08-11T09:31:49Z</time>
      </trkpt>
      <trkpt lat="44.96672" lon="6.49562">
        <ele>1689</ele>
        <time>2024-08-11T09:31:50Z</time>
      </trkpt>
      <trkpt lat="44.9667" lon="6.49562">
        <ele>1689</ele>
        <time>2024-08-11T09:31:51Z</time>
      </trkpt>
      <trkpt lat="44.9667" lon="6.49562">
        <ele>1689</ele>
        <time>2024-08-11T09:31:52Z</time>
      </trkpt>
      <trkpt lat="44.9667" lon="6.49562">
        <ele>1689.6</ele>
        <time>2024-08-11T09:31:53Z</time>
      </trkpt>
      <trkpt lat="44.9667" lon="6.49562">
        <ele>1689.6</ele>
        <time>2024-08-11T09:31:54Z</time>
      </trkpt>
      <trkpt lat="44.9667" lon="6.49562">
        <ele>1689.8</ele>
        <time>2024-08-11T09:31:55Z</time>
      </trkpt>
      <trkpt lat="44.9667" lon="6.49562">
        <ele>1689.8</ele>
        <time>2024-08-11T09:31:56Z</time>
      </trkpt>
      <trkpt lat="44.9667" lon="6.49562">
        <ele>1690</ele>
        <time>2024-08-11T09:31:57Z</time>
      </trkpt>
      <trkpt lat="44.9667" lon="6.49562">
        <ele>1690</ele>
        <time>2024-08-11T09:31:58Z</time>
      </trkpt>
      <trkpt lat="44.9667" lon="6.49562">
        <ele>1690.4</ele>
        <time>2024-08-11T09:31:59Z</time>
      </trkpt>
      <trkpt lat="44.96668" lon="6.49563">
        <ele>1690.4</ele>
        <time>2024-08-11T09:32:00Z</time>
      </trkpt>
      <trkpt lat="44.96668" lon="6.49563">
        <ele>1690.6</ele>
        <time>2024-08-11T09:32:01Z</time>
      </trkpt>
      <trkpt lat="44.96668" lon="6.49563">
        <ele>1691.4</ele>
        <time>2024-08-11T09:32:02Z</time>
      </trkpt>
      <trkpt lat="44.96668" lon="6.49563">
        <ele>1691.4</ele>
        <time>2024-08-11T09:32:03Z</time>
      </trkpt>
      <trkpt lat="44.96668" lon="6.49563">
        <ele>1691.4</ele>
        <time>2024-08-11T09:32:04Z</time>
      </trkpt>
      <trkpt lat="44.96668" lon="6.49563">
        <ele>1691.6</ele>
        <time>2024-08-11T09:32:05Z</time>
      </trkpt>
      <trkpt lat="44.96668" lon="6.49563">
        <ele>1692</ele>
        <time>2024-08-11T09:32:06Z</time>
      </trkpt>
      <trkpt lat="44.96668" lon="6.49563">
        <ele>1692.4</ele>
        <time>2024-08-11T09:32:07Z</time>
      </trkpt>
      <trkpt lat="44.96668" lon="6.49563">
        <ele>1692.4</ele>
        <time>2024-08-11T09:32:08Z</time>
      </trkpt>
      <trkpt lat="44.96668" lon="6.49563">
        <ele>1692.6</ele>
        <time>2024-08-11T09:32:09Z</time>
      </trkpt>
      <trkpt lat="44.96668" lon="6.49563">
        <ele>1692.8</ele>
        <time>2024-08-11T09:32:10Z</time>
      </trkpt>
      <trkpt lat="44.96666" lon="6.49566">
        <ele>1693</ele>
        <time>2024-08-11T09:32:11Z</time>
      </trkpt>
      <trkpt lat="44.96666" lon="6.49566">
        <ele>1693</ele>
        <time>2024-08-11T09:32:12Z</time>
      </trkpt>
      <trkpt lat="44.96663" lon="6.49568">
        <ele>1693.4</ele>
        <time>2024-08-11T09:32:13Z</time>
      </trkpt>
      <trkpt lat="44.96663" lon="6.49568">
        <ele>1693.6</ele>
        <time>2024-08-11T09:32:14Z</time>
      </trkpt>
      <trkpt lat="44.9666" lon="6.49569">
        <ele>1693.8</ele>
        <time>2024-08-11T09:32:15Z</time>
      </trkpt>
      <trkpt lat="44.9666" lon="6.49569">
        <ele>1693.8</ele>
        <time>2024-08-11T09:32:16Z</time>
      </trkpt>
      <trkpt lat="44.96658" lon="6.4957">
        <ele>1693.8</ele>
        <time>2024-08-11T09:32:17Z</time>
      </trkpt>
      <trkpt lat="44.96658" lon="6.4957">
        <ele>1693.8</ele>
        <time>2024-08-11T09:32:18Z</time>
      </trkpt>
      <trkpt lat="44.96656" lon="6.49571">
        <ele>1693.8</ele>
        <time>2024-08-11T09:32:19Z</time>
      </trkpt>
      <trkpt lat="44.96656" lon="6.49571">
        <ele>1694</ele>
        <time>2024-08-11T09:32:20Z</time>
      </trkpt>
      <trkpt lat="44.96654" lon="6.49573">
        <ele>1694</ele>
        <time>2024-08-11T09:32:21Z</time>
      </trkpt>
      <trkpt lat="44.96654" lon="6.49573">
        <ele>1694</ele>
        <time>2024-08-11T09:32:22Z</time>
      </trkpt>
      <trkpt lat="44.96652" lon="6.49573">
        <ele>1694</ele>
        <time>2024-08-11T09:32:23Z</time>
      </trkpt>
      <trkpt lat="44.96652" lon="6.49573">
        <ele>1694.2</ele>
        <time>2024-08-11T09:32:24Z</time>
      </trkpt>
      <trkpt lat="44.96652" lon="6.49573">
        <ele>1694.4</ele>
        <time>2024-08-11T09:32:25Z</time>
      </trkpt>
      <trkpt lat="44.9665" lon="6.49575">
        <ele>1694.4</ele>
        <time>2024-08-11T09:32:26Z</time>
      </trkpt>
      <trkpt lat="44.9665" lon="6.49575">
        <ele>1694.8</ele>
        <time>2024-08-11T09:32:27Z</time>
      </trkpt>
      <trkpt lat="44.9665" lon="6.49575">
        <ele>1694.8</ele>
        <time>2024-08-11T09:32:28Z</time>
      </trkpt>
      <trkpt lat="44.9665" lon="6.49575">
        <ele>1695</ele>
        <time>2024-08-11T09:32:29Z</time>
      </trkpt>
      <trkpt lat="44.9665" lon="6.49575">
        <ele>1695</ele>
        <time>2024-08-11T09:32:30Z</time>
      </trkpt>
      <trkpt lat="44.96648" lon="6.49576">
        <ele>1695.2</ele>
        <time>2024-08-11T09:32:31Z</time>
      </trkpt>
      <trkpt lat="44.96648" lon="6.49576">
        <ele>1696</ele>
        <time>2024-08-11T09:32:32Z</time>
      </trkpt>
      <trkpt lat="44.96648" lon="6.49576">
        <ele>1696.2</ele>
        <time>2024-08-11T09:32:33Z</time>
      </trkpt>
      <trkpt lat="44.96648" lon="6.49576">
        <ele>1696.4</ele>
        <time>2024-08-11T09:32:34Z</time>
      </trkpt>
      <trkpt lat="44.96647" lon="6.49578">
        <ele>1696.6</ele>
        <time>2024-08-11T09:32:35Z</time>
      </trkpt>
      <trkpt lat="44.96647" lon="6.49578">
        <ele>1696.6</ele>
        <time>2024-08-11T09:32:36Z</time>
      </trkpt>
      <trkpt lat="44.96647" lon="6.49578">
        <ele>1696.6</ele>
        <time>2024-08-11T09:32:37Z</time>
      </trkpt>
      <trkpt lat="44.96647" lon="6.49578">
        <ele>1697</ele>
        <time>2024-08-11T09:32:38Z</time>
      </trkpt>
      <trkpt lat="44.96647" lon="6.49578">
        <ele>1697.2</ele>
        <time>2024-08-11T09:32:39Z</time>
      </trkpt>
      <trkpt lat="44.96647" lon="6.49578">
        <ele>1697.2</ele>
        <time>2024-08-11T09:32:40Z</time>
      </trkpt>
      <trkpt lat="44.96647" lon="6.49578">
        <ele>1697.4</ele>
        <time>2024-08-11T09:32:41Z</time>
      </trkpt>
      <trkpt lat="44.96647" lon="6.49578">
        <ele>1697.4</ele>
        <time>2024-08-11T09:32:42Z</time>
      </trkpt>
      <trkpt lat="44.96647" lon="6.49578">
        <ele>1697.6</ele>
        <time>2024-08-11T09:32:43Z</time>
      </trkpt>
      <trkpt lat="44.96647" lon="6.49578">
        <ele>1697.8</ele>
        <time>2024-08-11T09:32:44Z</time>
      </trkpt>
      <trkpt lat="44.96647" lon="6.49578">
        <ele>1698</ele>
        <time>2024-08-11T09:32:45Z</time>
      </trkpt>
      <trkpt lat="44.96647" lon="6.49578">
        <ele>1698</ele>
        <time>2024-08-11T09:32:46Z</time>
      </trkpt>
      <trkpt lat="44.96644" lon="6.49579">
        <ele>1698.2</ele>
        <time>2024-08-11T09:32:47Z</time>
      </trkpt>
      <trkpt lat="44.96644" lon="6.49579">
        <ele>1698.6</ele>
        <time>2024-08-11T09:32:48Z</time>
      </trkpt>
      <trkpt lat="44.96644" lon="6.49579">
        <ele>1698.6</ele>
        <time>2024-08-11T09:32:49Z</time>
      </trkpt>
      <trkpt lat="44.96642" lon="6.49579">
        <ele>1698.8</ele>
        <time>2024-08-11T09:32:50Z</time>
      </trkpt>
      <trkpt lat="44.96642" lon="6.49579">
        <ele>1698.8</ele>
        <time>2024-08-11T09:32:51Z</time>
      </trkpt>
      <trkpt lat="44.96638" lon="6.4958">
        <ele>1699</ele>
        <time>2024-08-11T09:32:52Z</time>
      </trkpt>
      <trkpt lat="44.96638" lon="6.4958">
        <ele>1699.2</ele>
        <time>2024-08-11T09:32:53Z</time>
      </trkpt>
      <trkpt lat="44.96636" lon="6.49579">
        <ele>1699.6</ele>
        <time>2024-08-11T09:32:54Z</time>
      </trkpt>
      <trkpt lat="44.96636" lon="6.49579">
        <ele>1699.8</ele>
        <time>2024-08-11T09:32:55Z</time>
      </trkpt>
      <trkpt lat="44.96636" lon="6.49579">
        <ele>1700</ele>
        <time>2024-08-11T09:32:56Z</time>
      </trkpt>
      <trkpt lat="44.96636" lon="6.49579">
        <ele>1700.2</ele>
        <time>2024-08-11T09:32:57Z</time>
      </trkpt>
      <trkpt lat="44.96636" lon="6.49579">
        <ele>1700.2</ele>
        <time>2024-08-11T09:32:58Z</time>
      </trkpt>
      <trkpt lat="44.96634" lon="6.49579">
        <ele>1700.2</ele>
        <time>2024-08-11T09:32:59Z</time>
      </trkpt>
      <trkpt lat="44.96634" lon="6.49579">
        <ele>1700.6</ele>
        <time>2024-08-11T09:33:00Z</time>
      </trkpt>
      <trkpt lat="44.96634" lon="6.49579">
        <ele>1700.8</ele>
        <time>2024-08-11T09:33:01Z</time>
      </trkpt>
      <trkpt lat="44.96631" lon="6.49581">
        <ele>1701</ele>
        <time>2024-08-11T09:33:02Z</time>
      </trkpt>
      <trkpt lat="44.96631" lon="6.49581">
        <ele>1701</ele>
        <time>2024-08-11T09:33:03Z</time>
      </trkpt>
      <trkpt lat="44.96629" lon="6.49581">
        <ele>1701.2</ele>
        <time>2024-08-11T09:33:04Z</time>
      </trkpt>
      <trkpt lat="44.96629" lon="6.49581">
        <ele>1701.2</ele>
        <time>2024-08-11T09:33:05Z</time>
      </trkpt>
      <trkpt lat="44.96629" lon="6.49581">
        <ele>1701.4</ele>
        <time>2024-08-11T09:33:06Z</time>
      </trkpt>
      <trkpt lat="44.96629" lon="6.49581">
        <ele>1701.8</ele>
        <time>2024-08-11T09:33:07Z</time>
      </trkpt>
      <trkpt lat="44.96628" lon="6.49583">
        <ele>1702</ele>
        <time>2024-08-11T09:33:08Z</time>
      </trkpt>
      <trkpt lat="44.96628" lon="6.49583">
        <ele>1702</ele>
        <time>2024-08-11T09:33:09Z</time>
      </trkpt>
      <trkpt lat="44.96626" lon="6.49584">
        <ele>1702.4</ele>
        <time>2024-08-11T09:33:10Z</time>
      </trkpt>
      <trkpt lat="44.96626" lon="6.49584">
        <ele>1702.4</ele>
        <time>2024-08-11T09:33:11Z</time>
      </trkpt>
      <trkpt lat="44.96626" lon="6.49584">
        <ele>1702.6</ele>
        <time>2024-08-11T09:33:12Z</time>
      </trkpt>
      <trkpt lat="44.96626" lon="6.49584">
        <ele>1702.8</ele>
        <time>2024-08-11T09:33:13Z</time>
      </trkpt>
      <trkpt lat="44.96626" lon="6.49584">
        <ele>1703</ele>
        <time>2024-08-11T09:33:14Z</time>
      </trkpt>
      <trkpt lat="44.96624" lon="6.49585">
        <ele>1703</ele>
        <time>2024-08-11T09:33:15Z</time>
      </trkpt>
      <trkpt lat="44.96624" lon="6.49585">
        <ele>1703.2</ele>
        <time>2024-08-11T09:33:16Z</time>
      </trkpt>
      <trkpt lat="44.96624" lon="6.49585">
        <ele>1703.6</ele>
        <time>2024-08-11T09:33:17Z</time>
      </trkpt>
      <trkpt lat="44.96622" lon="6.49586">
        <ele>1704</ele>
        <time>2024-08-11T09:33:18Z</time>
      </trkpt>
      <trkpt lat="44.96622" lon="6.49586">
        <ele>1704.2</ele>
        <time>2024-08-11T09:33:19Z</time>
      </trkpt>
      <trkpt lat="44.96622" lon="6.49586">
        <ele>1704.4</ele>
        <time>2024-08-11T09:33:20Z</time>
      </trkpt>
      <trkpt lat="44.96621" lon="6.49587">
        <ele>1704.6</ele>
        <time>2024-08-11T09:33:21Z</time>
      </trkpt>
      <trkpt lat="44.96621" lon="6.49587">
        <ele>1704.8</ele>
        <time>2024-08-11T09:33:22Z</time>
      </trkpt>
      <trkpt lat="44.96621" lon="6.49587">
        <ele>1704.8</ele>
        <time>2024-08-11T09:33:23Z</time>
      </trkpt>
      <trkpt lat="44.9662" lon="6.49589">
        <ele>1704.8</ele>
        <time>2024-08-11T09:33:24Z</time>
      </trkpt>
      <trkpt lat="44.9662" lon="6.49589">
        <ele>1705</ele>
        <time>2024-08-11T09:33:25Z</time>
      </trkpt>
      <trkpt lat="44.96619" lon="6.49591">
        <ele>1705.2</ele>
        <time>2024-08-11T09:33:26Z</time>
      </trkpt>
      <trkpt lat="44.96619" lon="6.49591">
        <ele>1705.4</ele>
        <time>2024-08-11T09:33:27Z</time>
      </trkpt>
      <trkpt lat="44.96619" lon="6.49591">
        <ele>1705.6</ele>
        <time>2024-08-11T09:33:28Z</time>
      </trkpt>
      <trkpt lat="44.96618" lon="6.49594">
        <ele>1705.8</ele>
        <time>2024-08-11T09:33:29Z</time>
      </trkpt>
      <trkpt lat="44.96618" lon="6.49594">
        <ele>1706.2</ele>
        <time>2024-08-11T09:33:30Z</time>
      </trkpt>
      <trkpt lat="44.96618" lon="6.49594">
        <ele>1706.2</ele>
        <time>2024-08-11T09:33:31Z</time>
      </trkpt>
      <trkpt lat="44.96618" lon="6.49594">
        <ele>1706.2</ele>
        <time>2024-08-11T09:33:32Z</time>
      </trkpt>
      <trkpt lat="44.96618" lon="6.49594">
        <ele>1706.4</ele>
        <time>2024-08-11T09:33:33Z</time>
      </trkpt>
      <trkpt lat="44.96618" lon="6.49594">
        <ele>1706.4</ele>
        <time>2024-08-11T09:33:34Z</time>
      </trkpt>
      <trkpt lat="44.96619" lon="6.49596">
        <ele>1706.4</ele>
        <time>2024-08-11T09:33:35Z</time>
      </trkpt>
      <trkpt lat="44.96619" lon="6.49596">
        <ele>1706.6</ele>
        <time>2024-08-11T09:33:36Z</time>
      </trkpt>
      <trkpt lat="44.96619" lon="6.49596">
        <ele>1706.6</ele>
        <time>2024-08-11T09:33:37Z</time>
      </trkpt>
      <trkpt lat="44.96619" lon="6.49596">
        <ele>1706.6</ele>
        <time>2024-08-11T09:33:38Z</time>
      </trkpt>
      <trkpt lat="44.96619" lon="6.49596">
        <ele>1706.6</ele>
        <time>2024-08-11T09:33:39Z</time>
      </trkpt>
      <trkpt lat="44.96619" lon="6.49596">
        <ele>1706.4</ele>
        <time>2024-08-11T09:33:40Z</time>
      </trkpt>
      <trkpt lat="44.96619" lon="6.49596">
        <ele>1706</ele>
        <time>2024-08-11T09:33:41Z</time>
      </trkpt>
      <trkpt lat="44.96619" lon="6.49596">
        <ele>1706</ele>
        <time>2024-08-11T09:33:42Z</time>
      </trkpt>
      <trkpt lat="44.96619" lon="6.49596">
        <ele>1706</ele>
        <time>2024-08-11T09:33:43Z</time>
      </trkpt>
      <trkpt lat="44.96619" lon="6.49596">
        <ele>1706</ele>
        <time>2024-08-11T09:33:44Z</time>
      </trkpt>
      <trkpt lat="44.96619" lon="6.49596">
        <ele>1706</ele>
        <time>2024-08-11T09:33:45Z</time>
      </trkpt>
      <trkpt lat="44.96619" lon="6.49596">
        <ele>1706</ele>
        <time>2024-08-11T09:33:46Z</time>
      </trkpt>
      <trkpt lat="44.96619" lon="6.49596">
        <ele>1706</ele>
        <time>2024-08-11T09:33:47Z</time>
      </trkpt>
      <trkpt lat="44.96619" lon="6.49596">
        <ele>1706</ele>
        <time>2024-08-11T09:33:48Z</time>
      </trkpt>
      <trkpt lat="44.96619" lon="6.49596">
        <ele>1706</ele>
        <time>2024-08-11T09:33:49Z</time>
      </trkpt>
      <trkpt lat="44.96619" lon="6.49596">
        <ele>1706</ele>
        <time>2024-08-11T09:33:50Z</time>
      </trkpt>
      <trkpt lat="44.96619" lon="6.49596">
        <ele>1705.8</ele>
        <time>2024-08-11T09:33:51Z</time>
      </trkpt>
      <trkpt lat="44.96619" lon="6.49596">
        <ele>1705.8</ele>
        <time>2024-08-11T09:33:52Z</time>
      </trkpt>
      <trkpt lat="44.96619" lon="6.49596">
        <ele>1705.8</ele>
        <time>2024-08-11T09:33:53Z</time>
      </trkpt>
      <trkpt lat="44.96619" lon="6.49596">
        <ele>1705.8</ele>
        <time>2024-08-11T09:33:54Z</time>
      </trkpt>
      <trkpt lat="44.96619" lon="6.49596">
        <ele>1705.6</ele>
        <time>2024-08-11T09:33:55Z</time>
      </trkpt>
      <trkpt lat="44.96619" lon="6.49596">
        <ele>1705.6</ele>
        <time>2024-08-11T09:33:56Z</time>
      </trkpt>
      <trkpt lat="44.96619" lon="6.49596">
        <ele>1705.8</ele>
        <time>2024-08-11T09:33:57Z</time>
      </trkpt>
      <trkpt lat="44.96619" lon="6.49596">
        <ele>1705.8</ele>
        <time>2024-08-11T09:33:58Z</time>
      </trkpt>
      <trkpt lat="44.96619" lon="6.49596">
        <ele>1705.8</ele>
        <time>2024-08-11T09:33:59Z</time>
      </trkpt>
      <trkpt lat="44.96619" lon="6.49596">
        <ele>1705.8</ele>
        <time>2024-08-11T09:34:00Z</time>
      </trkpt>
      <trkpt lat="44.96619" lon="6.49596">
        <ele>1705.8</ele>
        <time>2024-08-11T09:34:01Z</time>
      </trkpt>
      <trkpt lat="44.96619" lon="6.49596">
        <ele>1705.6</ele>
        <time>2024-08-11T09:34:02Z</time>
      </trkpt>
      <trkpt lat="44.96619" lon="6.49596">
        <ele>1705.6</ele>
        <time>2024-08-11T09:34:03Z</time>
      </trkpt>
      <trkpt lat="44.96619" lon="6.49596">
        <ele>1705.8</ele>
        <time>2024-08-11T09:34:04Z</time>
      </trkpt>
      <trkpt lat="44.96619" lon="6.49596">
        <ele>1705.8</ele>
        <time>2024-08-11T09:34:05Z</time>
      </trkpt>
      <trkpt lat="44.96619" lon="6.49596">
        <ele>1705.8</ele>
        <time>2024-08-11T09:34:06Z</time>
      </trkpt>
      <trkpt lat="44.96619" lon="6.49596">
        <ele>1706</ele>
        <time>2024-08-11T09:34:07Z</time>
      </trkpt>
      <trkpt lat="44.96619" lon="6.49596">
        <ele>1706</ele>
        <time>2024-08-11T09:34:08Z</time>
      </trkpt>
      <trkpt lat="44.96619" lon="6.49596">
        <ele>1706</ele>
        <time>2024-08-11T09:34:09Z</time>
      </trkpt>
      <trkpt lat="44.96619" lon="6.49596">
        <ele>1706</ele>
        <time>2024-08-11T09:34:10Z</time>
      </trkpt>
      <trkpt lat="44.96619" lon="6.49596">
        <ele>1706</ele>
        <time>2024-08-11T09:34:11Z</time>
      </trkpt>
      <trkpt lat="44.96619" lon="6.49596">
        <ele>1706</ele>
        <time>2024-08-11T09:34:12Z</time>
      </trkpt>
      <trkpt lat="44.96619" lon="6.49596">
        <ele>1706.2</ele>
        <time>2024-08-11T09:34:13Z</time>
      </trkpt>
      <trkpt lat="44.96619" lon="6.49596">
        <ele>1706.2</ele>
        <time>2024-08-11T09:34:14Z</time>
      </trkpt>
      <trkpt lat="44.96619" lon="6.49596">
        <ele>1706.2</ele>
        <time>2024-08-11T09:34:15Z</time>
      </trkpt>
      <trkpt lat="44.96619" lon="6.49596">
        <ele>1706.4</ele>
        <time>2024-08-11T09:34:16Z</time>
      </trkpt>
      <trkpt lat="44.96619" lon="6.49596">
        <ele>1706.4</ele>
        <time>2024-08-11T09:34:17Z</time>
      </trkpt>
      <trkpt lat="44.96619" lon="6.49596">
        <ele>1706.6</ele>
        <time>2024-08-11T09:34:18Z</time>
      </trkpt>
      <trkpt lat="44.96619" lon="6.49596">
        <ele>1706.6</ele>
        <time>2024-08-11T09:34:19Z</time>
      </trkpt>
      <trkpt lat="44.96619" lon="6.49596">
        <ele>1706.6</ele>
        <time>2024-08-11T09:34:20Z</time>
      </trkpt>
      <trkpt lat="44.96619" lon="6.49596">
        <ele>1706.8</ele>
        <time>2024-08-11T09:34:21Z</time>
      </trkpt>
      <trkpt lat="44.96619" lon="6.49596">
        <ele>1707.2</ele>
        <time>2024-08-11T09:34:22Z</time>
      </trkpt>
      <trkpt lat="44.96619" lon="6.49596">
        <ele>1707.2</ele>
        <time>2024-08-11T09:34:23Z</time>
      </trkpt>
      <trkpt lat="44.96619" lon="6.49596">
        <ele>1707.2</ele>
        <time>2024-08-11T09:34:24Z</time>
      </trkpt>
      <trkpt lat="44.96619" lon="6.49596">
        <ele>1707.2</ele>
        <time>2024-08-11T09:34:25Z</time>
      </trkpt>
      <trkpt lat="44.96619" lon="6.49596">
        <ele>1707.2</ele>
        <time>2024-08-11T09:34:26Z</time>
      </trkpt>
      <trkpt lat="44.96619" lon="6.49596">
        <ele>1707.2</ele>
        <time>2024-08-11T09:34:27Z</time>
      </trkpt>
      <trkpt lat="44.96619" lon="6.49596">
        <ele>1707</ele>
        <time>2024-08-11T09:34:28Z</time>
      </trkpt>
      <trkpt lat="44.96619" lon="6.49596">
        <ele>1707</ele>
        <time>2024-08-11T09:34:29Z</time>
      </trkpt>
      <trkpt lat="44.96619" lon="6.49596">
        <ele>1707</ele>
        <time>2024-08-11T09:34:30Z</time>
      </trkpt>
      <trkpt lat="44.96619" lon="6.49596">
        <ele>1707</ele>
        <time>2024-08-11T09:34:31Z</time>
      </trkpt>
      <trkpt lat="44.96619" lon="6.49596">
        <ele>1707</ele>
        <time>2024-08-11T09:34:32Z</time>
      </trkpt>
      <trkpt lat="44.96619" lon="6.49596">
        <ele>1707</ele>
        <time>2024-08-11T09:34:33Z</time>
      </trkpt>
      <trkpt lat="44.96619" lon="6.49596">
        <ele>1706.8</ele>
        <time>2024-08-11T09:34:34Z</time>
      </trkpt>
      <trkpt lat="44.96619" lon="6.49596">
        <ele>1706.8</ele>
        <time>2024-08-11T09:34:35Z</time>
      </trkpt>
      <trkpt lat="44.96619" lon="6.49596">
        <ele>1707</ele>
        <time>2024-08-11T09:34:36Z</time>
      </trkpt>
      <trkpt lat="44.96619" lon="6.49596">
        <ele>1707</ele>
        <time>2024-08-11T09:34:37Z</time>
      </trkpt>
      <trkpt lat="44.96619" lon="6.49596">
        <ele>1707</ele>
        <time>2024-08-11T09:34:38Z</time>
      </trkpt>
      <trkpt lat="44.96619" lon="6.49596">
        <ele>1706.8</ele>
        <time>2024-08-11T09:34:39Z</time>
      </trkpt>
      <trkpt lat="44.96619" lon="6.49596">
        <ele>1706.8</ele>
        <time>2024-08-11T09:34:40Z</time>
      </trkpt>
      <trkpt lat="44.96619" lon="6.49596">
        <ele>1706.6</ele>
        <time>2024-08-11T09:34:41Z</time>
      </trkpt>
      <trkpt lat="44.96619" lon="6.49596">
        <ele>1706.6</ele>
        <time>2024-08-11T09:34:42Z</time>
      </trkpt>
      <trkpt lat="44.96619" lon="6.49596">
        <ele>1706.4</ele>
        <time>2024-08-11T09:34:43Z</time>
      </trkpt>
      <trkpt lat="44.96619" lon="6.49596">
        <ele>1706.4</ele>
        <time>2024-08-11T09:34:44Z</time>
      </trkpt>
      <trkpt lat="44.96619" lon="6.49596">
        <ele>1706.4</ele>
        <time>2024-08-11T09:34:45Z</time>
      </trkpt>
      <trkpt lat="44.96619" lon="6.49596">
        <ele>1706.4</ele>
        <time>2024-08-11T09:34:46Z</time>
      </trkpt>
      <trkpt lat="44.96619" lon="6.49596">
        <ele>1706.4</ele>
        <time>2024-08-11T09:34:47Z</time>
      </trkpt>
      <trkpt lat="44.96619" lon="6.49596">
        <ele>1706.4</ele>
        <time>2024-08-11T09:34:48Z</time>
      </trkpt>
      <trkpt lat="44.96619" lon="6.49596">
        <ele>1706.6</ele>
        <time>2024-08-11T09:34:49Z</time>
      </trkpt>
      <trkpt lat="44.96619" lon="6.49596">
        <ele>1706.6</ele>
        <time>2024-08-11T09:34:50Z</time>
      </trkpt>
      <trkpt lat="44.96619" lon="6.49596">
        <ele>1706.4</ele>
        <time>2024-08-11T09:34:51Z</time>
      </trkpt>
      <trkpt lat="44.96619" lon="6.49596">
        <ele>1706.4</ele>
        <time>2024-08-11T09:34:52Z</time>
      </trkpt>
      <trkpt lat="44.96619" lon="6.49596">
        <ele>1706.4</ele>
        <time>2024-08-11T09:34:53Z</time>
      </trkpt>
      <trkpt lat="44.96619" lon="6.49596">
        <ele>1706.4</ele>
        <time>2024-08-11T09:34:54Z</time>
      </trkpt>
      <trkpt lat="44.96619" lon="6.49596">
        <ele>1706.6</ele>
        <time>2024-08-11T09:34:55Z</time>
      </trkpt>
      <trkpt lat="44.96619" lon="6.49596">
        <ele>1706.6</ele>
        <time>2024-08-11T09:34:56Z</time>
      </trkpt>
      <trkpt lat="44.96619" lon="6.49596">
        <ele>1706.6</ele>
        <time>2024-08-11T09:34:57Z</time>
      </trkpt>
      <trkpt lat="44.96619" lon="6.49596">
        <ele>1706.6</ele>
        <time>2024-08-11T09:34:58Z</time>
      </trkpt>
      <trkpt lat="44.96619" lon="6.49596">
        <ele>1706.6</ele>
        <time>2024-08-11T09:34:59Z</time>
      </trkpt>
      <trkpt lat="44.96619" lon="6.49596">
        <ele>1706.4</ele>
        <time>2024-08-11T09:35:00Z</time>
      </trkpt>
      <trkpt lat="44.96619" lon="6.49596">
        <ele>1706.4</ele>
        <time>2024-08-11T09:35:01Z</time>
      </trkpt>
      <trkpt lat="44.96619" lon="6.49596">
        <ele>1706.4</ele>
        <time>2024-08-11T09:35:02Z</time>
      </trkpt>
      <trkpt lat="44.96619" lon="6.49596">
        <ele>1706.4</ele>
        <time>2024-08-11T09:35:03Z</time>
      </trkpt>
      <trkpt lat="44.96616" lon="6.49598">
        <ele>1706.2</ele>
        <time>2024-08-11T09:35:04Z</time>
      </trkpt>
      <trkpt lat="44.96616" lon="6.49598">
        <ele>1706.2</ele>
        <time>2024-08-11T09:35:05Z</time>
      </trkpt>
      <trkpt lat="44.96613" lon="6.49599">
        <ele>1706.2</ele>
        <time>2024-08-11T09:35:06Z</time>
      </trkpt>
      <trkpt lat="44.96611" lon="6.496">
        <ele>1706.2</ele>
        <time>2024-08-11T09:35:07Z</time>
      </trkpt>
      <trkpt lat="44.96611" lon="6.496">
        <ele>1706.2</ele>
        <time>2024-08-11T09:35:08Z</time>
      </trkpt>
      <trkpt lat="44.96608" lon="6.496">
        <ele>1706.4</ele>
        <time>2024-08-11T09:35:09Z</time>
      </trkpt>
      <trkpt lat="44.96608" lon="6.496">
        <ele>1706.8</ele>
        <time>2024-08-11T09:35:10Z</time>
      </trkpt>
      <trkpt lat="44.96606" lon="6.49599">
        <ele>1706.8</ele>
        <time>2024-08-11T09:35:11Z</time>
      </trkpt>
      <trkpt lat="44.96606" lon="6.49599">
        <ele>1707</ele>
        <time>2024-08-11T09:35:12Z</time>
      </trkpt>
      <trkpt lat="44.96604" lon="6.49598">
        <ele>1707.2</ele>
        <time>2024-08-11T09:35:13Z</time>
      </trkpt>
      <trkpt lat="44.96604" lon="6.49598">
        <ele>1707.2</ele>
        <time>2024-08-11T09:35:14Z</time>
      </trkpt>
      <trkpt lat="44.96604" lon="6.49598">
        <ele>1707.8</ele>
        <time>2024-08-11T09:35:15Z</time>
      </trkpt>
      <trkpt lat="44.96604" lon="6.49598">
        <ele>1707.8</ele>
        <time>2024-08-11T09:35:16Z</time>
      </trkpt>
      <trkpt lat="44.96602" lon="6.49595">
        <ele>1707.8</ele>
        <time>2024-08-11T09:35:17Z</time>
      </trkpt>
      <trkpt lat="44.96602" lon="6.49595">
        <ele>1708</ele>
        <time>2024-08-11T09:35:18Z</time>
      </trkpt>
      <trkpt lat="44.96602" lon="6.49595">
        <ele>1708.4</ele>
        <time>2024-08-11T09:35:19Z</time>
      </trkpt>
      <trkpt lat="44.96602" lon="6.49595">
        <ele>1708.4</ele>
        <time>2024-08-11T09:35:20Z</time>
      </trkpt>
      <trkpt lat="44.96601" lon="6.49592">
        <ele>1708.6</ele>
        <time>2024-08-11T09:35:21Z</time>
      </trkpt>
      <trkpt lat="44.96601" lon="6.49592">
        <ele>1708.6</ele>
        <time>2024-08-11T09:35:22Z</time>
      </trkpt>
      <trkpt lat="44.96601" lon="6.49592">
        <ele>1709</ele>
        <time>2024-08-11T09:35:23Z</time>
      </trkpt>
      <trkpt lat="44.966" lon="6.4959">
        <ele>1709</ele>
        <time>2024-08-11T09:35:24Z</time>
      </trkpt>
      <trkpt lat="44.966" lon="6.4959">
        <ele>1709.4</ele>
        <time>2024-08-11T09:35:25Z</time>
      </trkpt>
      <trkpt lat="44.966" lon="6.4959">
        <ele>1709.4</ele>
        <time>2024-08-11T09:35:26Z</time>
      </trkpt>
      <trkpt lat="44.966" lon="6.49587">
        <ele>1709.6</ele>
        <time>2024-08-11T09:35:27Z</time>
      </trkpt>
      <trkpt lat="44.966" lon="6.49587">
        <ele>1709.8</ele>
        <time>2024-08-11T09:35:28Z</time>
      </trkpt>
      <trkpt lat="44.96602" lon="6.49584">
        <ele>1710</ele>
        <time>2024-08-11T09:35:29Z</time>
      </trkpt>
      <trkpt lat="44.96602" lon="6.49584">
        <ele>1710.6</ele>
        <time>2024-08-11T09:35:30Z</time>
      </trkpt>
      <trkpt lat="44.96603" lon="6.49581">
        <ele>1710.6</ele>
        <time>2024-08-11T09:35:31Z</time>
      </trkpt>
      <trkpt lat="44.96603" lon="6.49581">
        <ele>1710.6</ele>
        <time>2024-08-11T09:35:32Z</time>
      </trkpt>
      <trkpt lat="44.96604" lon="6.49579">
        <ele>1710.6</ele>
        <time>2024-08-11T09:35:33Z</time>
      </trkpt>
      <trkpt lat="44.96604" lon="6.49579">
        <ele>1710.8</ele>
        <time>2024-08-11T09:35:34Z</time>
      </trkpt>
      <trkpt lat="44.96605" lon="6.49577">
        <ele>1711</ele>
        <time>2024-08-11T09:35:35Z</time>
      </trkpt>
      <trkpt lat="44.96605" lon="6.49577">
        <ele>1711.2</ele>
        <time>2024-08-11T09:35:36Z</time>
      </trkpt>
      <trkpt lat="44.96607" lon="6.49575">
        <ele>1711.4</ele>
        <time>2024-08-11T09:35:37Z</time>
      </trkpt>
      <trkpt lat="44.96607" lon="6.49575">
        <ele>1711.4</ele>
        <time>2024-08-11T09:35:38Z</time>
      </trkpt>
      <trkpt lat="44.96608" lon="6.49573">
        <ele>1711.6</ele>
        <time>2024-08-11T09:35:39Z</time>
      </trkpt>
      <trkpt lat="44.96608" lon="6.49573">
        <ele>1711.8</ele>
        <time>2024-08-11T09:35:40Z</time>
      </trkpt>
      <trkpt lat="44.96608" lon="6.49573">
        <ele>1712</ele>
        <time>2024-08-11T09:35:41Z</time>
      </trkpt>
      <trkpt lat="44.96609" lon="6.49569">
        <ele>1712</ele>
        <time>2024-08-11T09:35:42Z</time>
      </trkpt>
      <trkpt lat="44.96609" lon="6.49569">
        <ele>1712.4</ele>
        <time>2024-08-11T09:35:43Z</time>
      </trkpt>
      <trkpt lat="44.96609" lon="6.49569">
        <ele>1712.6</ele>
        <time>2024-08-11T09:35:44Z</time>
      </trkpt>
      <trkpt lat="44.9661" lon="6.49566">
        <ele>1712.6</ele>
        <time>2024-08-11T09:35:45Z</time>
      </trkpt>
      <trkpt lat="44.9661" lon="6.49566">
        <ele>1712.8</ele>
        <time>2024-08-11T09:35:46Z</time>
      </trkpt>
      <trkpt lat="44.9661" lon="6.49566">
        <ele>1713.2</ele>
        <time>2024-08-11T09:35:47Z</time>
      </trkpt>
      <trkpt lat="44.96608" lon="6.49564">
        <ele>1713.4</ele>
        <time>2024-08-11T09:35:48Z</time>
      </trkpt>
      <trkpt lat="44.96608" lon="6.49564">
        <ele>1713.6</ele>
        <time>2024-08-11T09:35:49Z</time>
      </trkpt>
      <trkpt lat="44.96608" lon="6.49564">
        <ele>1713.6</ele>
        <time>2024-08-11T09:35:50Z</time>
      </trkpt>
      <trkpt lat="44.96606" lon="6.49563">
        <ele>1713.8</ele>
        <time>2024-08-11T09:35:51Z</time>
      </trkpt>
      <trkpt lat="44.96606" lon="6.49563">
        <ele>1714</ele>
        <time>2024-08-11T09:35:52Z</time>
      </trkpt>
      <trkpt lat="44.96606" lon="6.49563">
        <ele>1714.4</ele>
        <time>2024-08-11T09:35:53Z</time>
      </trkpt>
      <trkpt lat="44.96606" lon="6.49563">
        <ele>1714.4</ele>
        <time>2024-08-11T09:35:54Z</time>
      </trkpt>
      <trkpt lat="44.96606" lon="6.49563">
        <ele>1714.6</ele>
        <time>2024-08-11T09:35:55Z</time>
      </trkpt>
      <trkpt lat="44.96604" lon="6.49562">
        <ele>1714.8</ele>
        <time>2024-08-11T09:35:56Z</time>
      </trkpt>
      <trkpt lat="44.96604" lon="6.49562">
        <ele>1715</ele>
        <time>2024-08-11T09:35:57Z</time>
      </trkpt>
      <trkpt lat="44.96604" lon="6.49562">
        <ele>1715.2</ele>
        <time>2024-08-11T09:35:58Z</time>
      </trkpt>
      <trkpt lat="44.96604" lon="6.49562">
        <ele>1715.2</ele>
        <time>2024-08-11T09:35:59Z</time>
      </trkpt>
      <trkpt lat="44.96604" lon="6.49562">
        <ele>1715.6</ele>
        <time>2024-08-11T09:36:00Z</time>
      </trkpt>
      <trkpt lat="44.96604" lon="6.49562">
        <ele>1716</ele>
        <time>2024-08-11T09:36:01Z</time>
      </trkpt>
      <trkpt lat="44.96604" lon="6.49562">
        <ele>1716.4</ele>
        <time>2024-08-11T09:36:02Z</time>
      </trkpt>
      <trkpt lat="44.96604" lon="6.49562">
        <ele>1716.4</ele>
        <time>2024-08-11T09:36:03Z</time>
      </trkpt>
      <trkpt lat="44.96604" lon="6.49562">
        <ele>1716.4</ele>
        <time>2024-08-11T09:36:04Z</time>
      </trkpt>
      <trkpt lat="44.96604" lon="6.49562">
        <ele>1716.6</ele>
        <time>2024-08-11T09:36:05Z</time>
      </trkpt>
      <trkpt lat="44.966" lon="6.49563">
        <ele>1717</ele>
        <time>2024-08-11T09:36:06Z</time>
      </trkpt>
      <trkpt lat="44.966" lon="6.49564">
        <ele>1717</ele>
        <time>2024-08-11T09:36:07Z</time>
      </trkpt>
      <trkpt lat="44.966" lon="6.49564">
        <ele>1717.2</ele>
        <time>2024-08-11T09:36:08Z</time>
      </trkpt>
      <trkpt lat="44.96598" lon="6.49564">
        <ele>1717.4</ele>
        <time>2024-08-11T09:36:09Z</time>
      </trkpt>
      <trkpt lat="44.96598" lon="6.49564">
        <ele>1717.6</ele>
        <time>2024-08-11T09:36:10Z</time>
      </trkpt>
      <trkpt lat="44.96598" lon="6.49564">
        <ele>1717.8</ele>
        <time>2024-08-11T09:36:11Z</time>
      </trkpt>
      <trkpt lat="44.96596" lon="6.49566">
        <ele>1718</ele>
        <time>2024-08-11T09:36:12Z</time>
      </trkpt>
      <trkpt lat="44.96596" lon="6.49566">
        <ele>1718</ele>
        <time>2024-08-11T09:36:13Z</time>
      </trkpt>
      <trkpt lat="44.96596" lon="6.49566">
        <ele>1718</ele>
        <time>2024-08-11T09:36:14Z</time>
      </trkpt>
      <trkpt lat="44.96594" lon="6.49566">
        <ele>1718.2</ele>
        <time>2024-08-11T09:36:15Z</time>
      </trkpt>
      <trkpt lat="44.96594" lon="6.49566">
        <ele>1718.2</ele>
        <time>2024-08-11T09:36:16Z</time>
      </trkpt>
      <trkpt lat="44.96594" lon="6.49566">
        <ele>1718.6</ele>
        <time>2024-08-11T09:36:17Z</time>
      </trkpt>
      <trkpt lat="44.96594" lon="6.49566">
        <ele>1718.6</ele>
        <time>2024-08-11T09:36:18Z</time>
      </trkpt>
      <trkpt lat="44.96592" lon="6.49567">
        <ele>1718.6</ele>
        <time>2024-08-11T09:36:19Z</time>
      </trkpt>
      <trkpt lat="44.96592" lon="6.49567">
        <ele>1719</ele>
        <time>2024-08-11T09:36:20Z</time>
      </trkpt>
      <trkpt lat="44.96592" lon="6.49567">
        <ele>1719.4</ele>
        <time>2024-08-11T09:36:21Z</time>
      </trkpt>
      <trkpt lat="44.96592" lon="6.49567">
        <ele>1719.4</ele>
        <time>2024-08-11T09:36:22Z</time>
      </trkpt>
      <trkpt lat="44.96592" lon="6.49567">
        <ele>1719.6</ele>
        <time>2024-08-11T09:36:23Z</time>
      </trkpt>
      <trkpt lat="44.9659" lon="6.49566">
        <ele>1720</ele>
        <time>2024-08-11T09:36:24Z</time>
      </trkpt>
      <trkpt lat="44.9659" lon="6.49566">
        <ele>1720.2</ele>
        <time>2024-08-11T09:36:25Z</time>
      </trkpt>
      <trkpt lat="44.9659" lon="6.49566">
        <ele>1720.4</ele>
        <time>2024-08-11T09:36:26Z</time>
      </trkpt>
      <trkpt lat="44.9659" lon="6.49566">
        <ele>1720.4</ele>
        <time>2024-08-11T09:36:27Z</time>
      </trkpt>
      <trkpt lat="44.96587" lon="6.49565">
        <ele>1720.6</ele>
        <time>2024-08-11T09:36:28Z</time>
      </trkpt>
      <trkpt lat="44.96587" lon="6.49565">
        <ele>1720.6</ele>
        <time>2024-08-11T09:36:29Z</time>
      </trkpt>
      <trkpt lat="44.96587" lon="6.49565">
        <ele>1720.8</ele>
        <time>2024-08-11T09:36:30Z</time>
      </trkpt>
      <trkpt lat="44.96587" lon="6.49565">
        <ele>1721</ele>
        <time>2024-08-11T09:36:31Z</time>
      </trkpt>
      <trkpt lat="44.96587" lon="6.49565">
        <ele>1721</ele>
        <time>2024-08-11T09:36:32Z</time>
      </trkpt>
      <trkpt lat="44.96584" lon="6.49566">
        <ele>1721</ele>
        <time>2024-08-11T09:36:33Z</time>
      </trkpt>
      <trkpt lat="44.96584" lon="6.49566">
        <ele>1721.4</ele>
        <time>2024-08-11T09:36:34Z</time>
      </trkpt>
      <trkpt lat="44.96584" lon="6.49566">
        <ele>1721.6</ele>
        <time>2024-08-11T09:36:35Z</time>
      </trkpt>
      <trkpt lat="44.96583" lon="6.49566">
        <ele>1721.8</ele>
        <time>2024-08-11T09:36:36Z</time>
      </trkpt>
      <trkpt lat="44.96583" lon="6.49566">
        <ele>1722</ele>
        <time>2024-08-11T09:36:37Z</time>
      </trkpt>
      <trkpt lat="44.96583" lon="6.49566">
        <ele>1722.2</ele>
        <time>2024-08-11T09:36:38Z</time>
      </trkpt>
      <trkpt lat="44.96581" lon="6.49568">
        <ele>1722.2</ele>
        <time>2024-08-11T09:36:39Z</time>
      </trkpt>
      <trkpt lat="44.96581" lon="6.49568">
        <ele>1722.4</ele>
        <time>2024-08-11T09:36:40Z</time>
      </trkpt>
      <trkpt lat="44.96581" lon="6.49568">
        <ele>1722.8</ele>
        <time>2024-08-11T09:36:41Z</time>
      </trkpt>
      <trkpt lat="44.96581" lon="6.49568">
        <ele>1723.4</ele>
        <time>2024-08-11T09:36:42Z</time>
      </trkpt>
      <trkpt lat="44.96581" lon="6.49568">
        <ele>1723.4</ele>
        <time>2024-08-11T09:36:43Z</time>
      </trkpt>
      <trkpt lat="44.96578" lon="6.49568">
        <ele>1723.4</ele>
        <time>2024-08-11T09:36:44Z</time>
      </trkpt>
      <trkpt lat="44.96578" lon="6.49568">
        <ele>1723.6</ele>
        <time>2024-08-11T09:36:45Z</time>
      </trkpt>
      <trkpt lat="44.96578" lon="6.49568">
        <ele>1723.8</ele>
        <time>2024-08-11T09:36:46Z</time>
      </trkpt>
      <trkpt lat="44.96576" lon="6.49569">
        <ele>1724</ele>
        <time>2024-08-11T09:36:47Z</time>
      </trkpt>
      <trkpt lat="44.96576" lon="6.49569">
        <ele>1724</ele>
        <time>2024-08-11T09:36:48Z</time>
      </trkpt>
      <trkpt lat="44.96576" lon="6.49569">
        <ele>1724.2</ele>
        <time>2024-08-11T09:36:49Z</time>
      </trkpt>
      <trkpt lat="44.96576" lon="6.49569">
        <ele>1724.6</ele>
        <time>2024-08-11T09:36:50Z</time>
      </trkpt>
      <trkpt lat="44.96576" lon="6.49569">
        <ele>1724.8</ele>
        <time>2024-08-11T09:36:51Z</time>
      </trkpt>
      <trkpt lat="44.96576" lon="6.49569">
        <ele>1725</ele>
        <time>2024-08-11T09:36:52Z</time>
      </trkpt>
      <trkpt lat="44.96576" lon="6.49569">
        <ele>1725</ele>
        <time>2024-08-11T09:36:53Z</time>
      </trkpt>
      <trkpt lat="44.96576" lon="6.49569">
        <ele>1725.2</ele>
        <time>2024-08-11T09:36:54Z</time>
      </trkpt>
      <trkpt lat="44.96576" lon="6.49569">
        <ele>1725.2</ele>
        <time>2024-08-11T09:36:55Z</time>
      </trkpt>
      <trkpt lat="44.96576" lon="6.49569">
        <ele>1725.2</ele>
        <time>2024-08-11T09:36:56Z</time>
      </trkpt>
      <trkpt lat="44.96576" lon="6.49569">
        <ele>1725.2</ele>
        <time>2024-08-11T09:36:57Z</time>
      </trkpt>
      <trkpt lat="44.96576" lon="6.49569">
        <ele>1725</ele>
        <time>2024-08-11T09:36:58Z</time>
      </trkpt>
      <trkpt lat="44.96576" lon="6.49569">
        <ele>1725</ele>
        <time>2024-08-11T09:36:59Z</time>
      </trkpt>
      <trkpt lat="44.96576" lon="6.49569">
        <ele>1725</ele>
        <time>2024-08-11T09:37:00Z</time>
      </trkpt>
      <trkpt lat="44.96576" lon="6.49569">
        <ele>1725.2</ele>
        <time>2024-08-11T09:37:01Z</time>
      </trkpt>
      <trkpt lat="44.96576" lon="6.49569">
        <ele>1725</ele>
        <time>2024-08-11T09:37:02Z</time>
      </trkpt>
      <trkpt lat="44.96576" lon="6.49569">
        <ele>1725</ele>
        <time>2024-08-11T09:37:03Z</time>
      </trkpt>
      <trkpt lat="44.96576" lon="6.49569">
        <ele>1725.2</ele>
        <time>2024-08-11T09:37:04Z</time>
      </trkpt>
      <trkpt lat="44.96576" lon="6.49569">
        <ele>1725.4</ele>
        <time>2024-08-11T09:37:05Z</time>
      </trkpt>
      <trkpt lat="44.96576" lon="6.49569">
        <ele>1725.6</ele>
        <time>2024-08-11T09:37:06Z</time>
      </trkpt>
      <trkpt lat="44.96576" lon="6.49569">
        <ele>1725.8</ele>
        <time>2024-08-11T09:37:07Z</time>
      </trkpt>
      <trkpt lat="44.96576" lon="6.49569">
        <ele>1725.8</ele>
        <time>2024-08-11T09:37:08Z</time>
      </trkpt>
      <trkpt lat="44.96576" lon="6.49569">
        <ele>1725.8</ele>
        <time>2024-08-11T09:37:09Z</time>
      </trkpt>
      <trkpt lat="44.96576" lon="6.49569">
        <ele>1726.2</ele>
        <time>2024-08-11T09:37:10Z</time>
      </trkpt>
      <trkpt lat="44.96576" lon="6.49569">
        <ele>1726.6</ele>
        <time>2024-08-11T09:37:11Z</time>
      </trkpt>
      <trkpt lat="44.96576" lon="6.49569">
        <ele>1726.8</ele>
        <time>2024-08-11T09:37:12Z</time>
      </trkpt>
      <trkpt lat="44.96576" lon="6.49569">
        <ele>1726.8</ele>
        <time>2024-08-11T09:37:13Z</time>
      </trkpt>
      <trkpt lat="44.96576" lon="6.49569">
        <ele>1727.2</ele>
        <time>2024-08-11T09:37:14Z</time>
      </trkpt>
      <trkpt lat="44.96573" lon="6.49568">
        <ele>1727.6</ele>
        <time>2024-08-11T09:37:15Z</time>
      </trkpt>
      <trkpt lat="44.96573" lon="6.49568">
        <ele>1727.6</ele>
        <time>2024-08-11T09:37:16Z</time>
      </trkpt>
      <trkpt lat="44.9657" lon="6.49566">
        <ele>1728</ele>
        <time>2024-08-11T09:37:17Z</time>
      </trkpt>
      <trkpt lat="44.9657" lon="6.49566">
        <ele>1728.2</ele>
        <time>2024-08-11T09:37:18Z</time>
      </trkpt>
      <trkpt lat="44.96569" lon="6.49564">
        <ele>1728.4</ele>
        <time>2024-08-11T09:37:19Z</time>
      </trkpt>
      <trkpt lat="44.96569" lon="6.49564">
        <ele>1728.4</ele>
        <time>2024-08-11T09:37:20Z</time>
      </trkpt>
      <trkpt lat="44.96569" lon="6.49562">
        <ele>1728.8</ele>
        <time>2024-08-11T09:37:21Z</time>
      </trkpt>
      <trkpt lat="44.96569" lon="6.49562">
        <ele>1729.2</ele>
        <time>2024-08-11T09:37:22Z</time>
      </trkpt>
      <trkpt lat="44.9657" lon="6.49559">
        <ele>1729.4</ele>
        <time>2024-08-11T09:37:23Z</time>
      </trkpt>
      <trkpt lat="44.9657" lon="6.49559">
        <ele>1729.4</ele>
        <time>2024-08-11T09:37:24Z</time>
      </trkpt>
      <trkpt lat="44.9657" lon="6.49559">
        <ele>1729.8</ele>
        <time>2024-08-11T09:37:25Z</time>
      </trkpt>
      <trkpt lat="44.9657" lon="6.49559">
        <ele>1729.8</ele>
        <time>2024-08-11T09:37:26Z</time>
      </trkpt>
      <trkpt lat="44.9657" lon="6.49556">
        <ele>1730</ele>
        <time>2024-08-11T09:37:27Z</time>
      </trkpt>
      <trkpt lat="44.9657" lon="6.49556">
        <ele>1730</ele>
        <time>2024-08-11T09:37:28Z</time>
      </trkpt>
      <trkpt lat="44.9657" lon="6.49556">
        <ele>1730</ele>
        <time>2024-08-11T09:37:29Z</time>
      </trkpt>
      <trkpt lat="44.96572" lon="6.49555">
        <ele>1730</ele>
        <time>2024-08-11T09:37:30Z</time>
      </trkpt>
      <trkpt lat="44.96572" lon="6.49555">
        <ele>1730</ele>
        <time>2024-08-11T09:37:31Z</time>
      </trkpt>
      <trkpt lat="44.96572" lon="6.49555">
        <ele>1729.8</ele>
        <time>2024-08-11T09:37:32Z</time>
      </trkpt>
      <trkpt lat="44.96574" lon="6.49554">
        <ele>1729.2</ele>
        <time>2024-08-11T09:37:33Z</time>
      </trkpt>
      <trkpt lat="44.96574" lon="6.49554">
        <ele>1729</ele>
        <time>2024-08-11T09:37:34Z</time>
      </trkpt>
      <trkpt lat="44.96574" lon="6.49554">
        <ele>1728.8</ele>
        <time>2024-08-11T09:37:35Z</time>
      </trkpt>
      <trkpt lat="44.96574" lon="6.49554">
        <ele>1728.4</ele>
        <time>2024-08-11T09:37:36Z</time>
      </trkpt>
      <trkpt lat="44.96574" lon="6.49554">
        <ele>1728.4</ele>
        <time>2024-08-11T09:37:37Z</time>
      </trkpt>
      <trkpt lat="44.96574" lon="6.49554">
        <ele>1728.2</ele>
        <time>2024-08-11T09:37:38Z</time>
      </trkpt>
      <trkpt lat="44.96574" lon="6.49554">
        <ele>1728.2</ele>
        <time>2024-08-11T09:37:39Z</time>
      </trkpt>
      <trkpt lat="44.96574" lon="6.49554">
        <ele>1728.2</ele>
        <time>2024-08-11T09:37:40Z</time>
      </trkpt>
      <trkpt lat="44.96574" lon="6.49554">
        <ele>1728</ele>
        <time>2024-08-11T09:37:41Z</time>
      </trkpt>
      <trkpt lat="44.96574" lon="6.49554">
        <ele>1728</ele>
        <time>2024-08-11T09:37:42Z</time>
      </trkpt>
      <trkpt lat="44.96574" lon="6.49554">
        <ele>1728</ele>
        <time>2024-08-11T09:37:43Z</time>
      </trkpt>
      <trkpt lat="44.96574" lon="6.49554">
        <ele>1728.4</ele>
        <time>2024-08-11T09:37:44Z</time>
      </trkpt>
      <trkpt lat="44.96574" lon="6.49554">
        <ele>1728.4</ele>
        <time>2024-08-11T09:37:45Z</time>
      </trkpt>
      <trkpt lat="44.96574" lon="6.49554">
        <ele>1728.2</ele>
        <time>2024-08-11T09:37:46Z</time>
      </trkpt>
      <trkpt lat="44.96574" lon="6.49554">
        <ele>1728.2</ele>
        <time>2024-08-11T09:37:47Z</time>
      </trkpt>
      <trkpt lat="44.96574" lon="6.49554">
        <ele>1728.2</ele>
        <time>2024-08-11T09:37:48Z</time>
      </trkpt>
      <trkpt lat="44.96574" lon="6.49554">
        <ele>1728.4</ele>
        <time>2024-08-11T09:37:49Z</time>
      </trkpt>
      <trkpt lat="44.96574" lon="6.49554">
        <ele>1728.4</ele>
        <time>2024-08-11T09:37:50Z</time>
      </trkpt>
      <trkpt lat="44.96574" lon="6.49554">
        <ele>1728.4</ele>
        <time>2024-08-11T09:37:51Z</time>
      </trkpt>
      <trkpt lat="44.96574" lon="6.49554">
        <ele>1728.2</ele>
        <time>2024-08-11T09:37:52Z</time>
      </trkpt>
      <trkpt lat="44.96574" lon="6.49554">
        <ele>1728.2</ele>
        <time>2024-08-11T09:37:53Z</time>
      </trkpt>
      <trkpt lat="44.96574" lon="6.49554">
        <ele>1728.4</ele>
        <time>2024-08-11T09:37:54Z</time>
      </trkpt>
      <trkpt lat="44.96574" lon="6.49554">
        <ele>1728.6</ele>
        <time>2024-08-11T09:37:55Z</time>
      </trkpt>
      <trkpt lat="44.96574" lon="6.49554">
        <ele>1728.6</ele>
        <time>2024-08-11T09:37:56Z</time>
      </trkpt>
      <trkpt lat="44.96574" lon="6.49554">
        <ele>1729.2</ele>
        <time>2024-08-11T09:37:57Z</time>
      </trkpt>
      <trkpt lat="44.96571" lon="6.49554">
        <ele>1729.4</ele>
        <time>2024-08-11T09:37:58Z</time>
      </trkpt>
      <trkpt lat="44.96571" lon="6.49554">
        <ele>1729.4</ele>
        <time>2024-08-11T09:37:59Z</time>
      </trkpt>
      <trkpt lat="44.96571" lon="6.49554">
        <ele>1729.8</ele>
        <time>2024-08-11T09:38:00Z</time>
      </trkpt>
      <trkpt lat="44.96569" lon="6.49555">
        <ele>1729.8</ele>
        <time>2024-08-11T09:38:01Z</time>
      </trkpt>
      <trkpt lat="44.96569" lon="6.49555">
        <ele>1730.2</ele>
        <time>2024-08-11T09:38:02Z</time>
      </trkpt>
      <trkpt lat="44.96569" lon="6.49555">
        <ele>1730.2</ele>
        <time>2024-08-11T09:38:03Z</time>
      </trkpt>
      <trkpt lat="44.96567" lon="6.49556">
        <ele>1730.4</ele>
        <time>2024-08-11T09:38:04Z</time>
      </trkpt>
      <trkpt lat="44.96567" lon="6.49556">
        <ele>1730.8</ele>
        <time>2024-08-11T09:38:05Z</time>
      </trkpt>
      <trkpt lat="44.96567" lon="6.49556">
        <ele>1730.8</ele>
        <time>2024-08-11T09:38:06Z</time>
      </trkpt>
      <trkpt lat="44.96565" lon="6.49556">
        <ele>1730.8</ele>
        <time>2024-08-11T09:38:07Z</time>
      </trkpt>
      <trkpt lat="44.96565" lon="6.49556">
        <ele>1731.2</ele>
        <time>2024-08-11T09:38:08Z</time>
      </trkpt>
      <trkpt lat="44.96565" lon="6.49556">
        <ele>1731.2</ele>
        <time>2024-08-11T09:38:09Z</time>
      </trkpt>
      <trkpt lat="44.96563" lon="6.49556">
        <ele>1731.4</ele>
        <time>2024-08-11T09:38:10Z</time>
      </trkpt>
      <trkpt lat="44.96563" lon="6.49556">
        <ele>1731.8</ele>
        <time>2024-08-11T09:38:11Z</time>
      </trkpt>
      <trkpt lat="44.96563" lon="6.49556">
        <ele>1732</ele>
        <time>2024-08-11T09:38:12Z</time>
      </trkpt>
      <trkpt lat="44.96561" lon="6.49555">
        <ele>1732.2</ele>
        <time>2024-08-11T09:38:13Z</time>
      </trkpt>
      <trkpt lat="44.96561" lon="6.49555">
        <ele>1732.2</ele>
        <time>2024-08-11T09:38:14Z</time>
      </trkpt>
      <trkpt lat="44.96561" lon="6.49555">
        <ele>1732.4</ele>
        <time>2024-08-11T09:38:15Z</time>
      </trkpt>
      <trkpt lat="44.96561" lon="6.49555">
        <ele>1733</ele>
        <time>2024-08-11T09:38:16Z</time>
      </trkpt>
      <trkpt lat="44.96559" lon="6.49555">
        <ele>1733.2</ele>
        <time>2024-08-11T09:38:17Z</time>
      </trkpt>
      <trkpt lat="44.96559" lon="6.49555">
        <ele>1733.2</ele>
        <time>2024-08-11T09:38:18Z</time>
      </trkpt>
      <trkpt lat="44.96559" lon="6.49555">
        <ele>1733.4</ele>
        <time>2024-08-11T09:38:19Z</time>
      </trkpt>
      <trkpt lat="44.96557" lon="6.49557">
        <ele>1733.6</ele>
        <time>2024-08-11T09:38:20Z</time>
      </trkpt>
      <trkpt lat="44.96557" lon="6.49557">
        <ele>1734</ele>
        <time>2024-08-11T09:38:21Z</time>
      </trkpt>
      <trkpt lat="44.96555" lon="6.49558">
        <ele>1734</ele>
        <time>2024-08-11T09:38:22Z</time>
      </trkpt>
      <trkpt lat="44.96555" lon="6.49558">
        <ele>1734.2</ele>
        <time>2024-08-11T09:38:23Z</time>
      </trkpt>
      <trkpt lat="44.96555" lon="6.49558">
        <ele>1734.6</ele>
        <time>2024-08-11T09:38:24Z</time>
      </trkpt>
      <trkpt lat="44.96553" lon="6.49558">
        <ele>1734.6</ele>
        <time>2024-08-11T09:38:25Z</time>
      </trkpt>
      <trkpt lat="44.96553" lon="6.49558">
        <ele>1734.8</ele>
        <time>2024-08-11T09:38:26Z</time>
      </trkpt>
      <trkpt lat="44.96553" lon="6.49558">
        <ele>1735</ele>
        <time>2024-08-11T09:38:27Z</time>
      </trkpt>
      <trkpt lat="44.96553" lon="6.49558">
        <ele>1735.2</ele>
        <time>2024-08-11T09:38:28Z</time>
      </trkpt>
      <trkpt lat="44.96551" lon="6.49557">
        <ele>1735.4</ele>
        <time>2024-08-11T09:38:29Z</time>
      </trkpt>
      <trkpt lat="44.96551" lon="6.49557">
        <ele>1735.6</ele>
        <time>2024-08-11T09:38:30Z</time>
      </trkpt>
      <trkpt lat="44.96551" lon="6.49557">
        <ele>1736.2</ele>
        <time>2024-08-11T09:38:31Z</time>
      </trkpt>
      <trkpt lat="44.96551" lon="6.49557">
        <ele>1736.2</ele>
        <time>2024-08-11T09:38:32Z</time>
      </trkpt>
      <trkpt lat="44.96549" lon="6.49557">
        <ele>1736.4</ele>
        <time>2024-08-11T09:38:33Z</time>
      </trkpt>
      <trkpt lat="44.96549" lon="6.49557">
        <ele>1736.4</ele>
        <time>2024-08-11T09:38:34Z</time>
      </trkpt>
      <trkpt lat="44.96549" lon="6.49557">
        <ele>1736.4</ele>
        <time>2024-08-11T09:38:35Z</time>
      </trkpt>
      <trkpt lat="44.96549" lon="6.49557">
        <ele>1736.8</ele>
        <time>2024-08-11T09:38:36Z</time>
      </trkpt>
      <trkpt lat="44.96547" lon="6.49557">
        <ele>1736.8</ele>
        <time>2024-08-11T09:38:37Z</time>
      </trkpt>
      <trkpt lat="44.96547" lon="6.49557">
        <ele>1737</ele>
        <time>2024-08-11T09:38:38Z</time>
      </trkpt>
      <trkpt lat="44.96547" lon="6.49557">
        <ele>1737.4</ele>
        <time>2024-08-11T09:38:39Z</time>
      </trkpt>
      <trkpt lat="44.96545" lon="6.49558">
        <ele>1737.4</ele>
        <time>2024-08-11T09:38:40Z</time>
      </trkpt>
      <trkpt lat="44.96545" lon="6.49558">
        <ele>1737.6</ele>
        <time>2024-08-11T09:38:41Z</time>
      </trkpt>
      <trkpt lat="44.96543" lon="6.49559">
        <ele>1738</ele>
        <time>2024-08-11T09:38:42Z</time>
      </trkpt>
      <trkpt lat="44.96543" lon="6.49559">
        <ele>1738.2</ele>
        <time>2024-08-11T09:38:43Z</time>
      </trkpt>
      <trkpt lat="44.96543" lon="6.49559">
        <ele>1738.4</ele>
        <time>2024-08-11T09:38:44Z</time>
      </trkpt>
      <trkpt lat="44.96541" lon="6.49558">
        <ele>1738.4</ele>
        <time>2024-08-11T09:38:45Z</time>
      </trkpt>
      <trkpt lat="44.96541" lon="6.49558">
        <ele>1738.8</ele>
        <time>2024-08-11T09:38:46Z</time>
      </trkpt>
      <trkpt lat="44.96539" lon="6.49557">
        <ele>1738.8</ele>
        <time>2024-08-11T09:38:47Z</time>
      </trkpt>
      <trkpt lat="44.96539" lon="6.49557">
        <ele>1739</ele>
        <time>2024-08-11T09:38:48Z</time>
      </trkpt>
      <trkpt lat="44.96539" lon="6.49557">
        <ele>1739</ele>
        <time>2024-08-11T09:38:49Z</time>
      </trkpt>
      <trkpt lat="44.96539" lon="6.49557">
        <ele>1739.2</ele>
        <time>2024-08-11T09:38:50Z</time>
      </trkpt>
      <trkpt lat="44.96537" lon="6.49558">
        <ele>1739.6</ele>
        <time>2024-08-11T09:38:51Z</time>
      </trkpt>
      <trkpt lat="44.96537" lon="6.49558">
        <ele>1740</ele>
        <time>2024-08-11T09:38:52Z</time>
      </trkpt>
      <trkpt lat="44.96537" lon="6.49558">
        <ele>1740</ele>
        <time>2024-08-11T09:38:53Z</time>
      </trkpt>
      <trkpt lat="44.96535" lon="6.49559">
        <ele>1740.2</ele>
        <time>2024-08-11T09:38:54Z</time>
      </trkpt>
      <trkpt lat="44.96535" lon="6.49559">
        <ele>1740.4</ele>
        <time>2024-08-11T09:38:55Z</time>
      </trkpt>
      <trkpt lat="44.96535" lon="6.49559">
        <ele>1740.4</ele>
        <time>2024-08-11T09:38:56Z</time>
      </trkpt>
      <trkpt lat="44.96533" lon="6.49561">
        <ele>1740.4</ele>
        <time>2024-08-11T09:38:57Z</time>
      </trkpt>
      <trkpt lat="44.96533" lon="6.49561">
        <ele>1740.4</ele>
        <time>2024-08-11T09:38:58Z</time>
      </trkpt>
      <trkpt lat="44.96533" lon="6.49561">
        <ele>1740.6</ele>
        <time>2024-08-11T09:38:59Z</time>
      </trkpt>
      <trkpt lat="44.9653" lon="6.49561">
        <ele>1740.8</ele>
        <time>2024-08-11T09:39:00Z</time>
      </trkpt>
      <trkpt lat="44.9653" lon="6.49561">
        <ele>1740.8</ele>
        <time>2024-08-11T09:39:01Z</time>
      </trkpt>
      <trkpt lat="44.9653" lon="6.49561">
        <ele>1741</ele>
        <time>2024-08-11T09:39:02Z</time>
      </trkpt>
      <trkpt lat="44.96527" lon="6.49561">
        <ele>1741</ele>
        <time>2024-08-11T09:39:03Z</time>
      </trkpt>
      <trkpt lat="44.96527" lon="6.49561">
        <ele>1741</ele>
        <time>2024-08-11T09:39:04Z</time>
      </trkpt>
      <trkpt lat="44.96527" lon="6.49561">
        <ele>1741.6</ele>
        <time>2024-08-11T09:39:05Z</time>
      </trkpt>
      <trkpt lat="44.96525" lon="6.49561">
        <ele>1741.8</ele>
        <time>2024-08-11T09:39:06Z</time>
      </trkpt>
      <trkpt lat="44.96525" lon="6.49561">
        <ele>1741.8</ele>
        <time>2024-08-11T09:39:07Z</time>
      </trkpt>
      <trkpt lat="44.96525" lon="6.49561">
        <ele>1741.8</ele>
        <time>2024-08-11T09:39:08Z</time>
      </trkpt>
      <trkpt lat="44.96523" lon="6.49559">
        <ele>1741.8</ele>
        <time>2024-08-11T09:39:09Z</time>
      </trkpt>
      <trkpt lat="44.96523" lon="6.49559">
        <ele>1742.2</ele>
        <time>2024-08-11T09:39:10Z</time>
      </trkpt>
      <trkpt lat="44.96523" lon="6.49559">
        <ele>1742.4</ele>
        <time>2024-08-11T09:39:11Z</time>
      </trkpt>
      <trkpt lat="44.96521" lon="6.49558">
        <ele>1742.6</ele>
        <time>2024-08-11T09:39:12Z</time>
      </trkpt>
      <trkpt lat="44.96521" lon="6.49558">
        <ele>1742.8</ele>
        <time>2024-08-11T09:39:13Z</time>
      </trkpt>
      <trkpt lat="44.96519" lon="6.49556">
        <ele>1743</ele>
        <time>2024-08-11T09:39:14Z</time>
      </trkpt>
      <trkpt lat="44.96519" lon="6.49556">
        <ele>1743</ele>
        <time>2024-08-11T09:39:15Z</time>
      </trkpt>
      <trkpt lat="44.96517" lon="6.49556">
        <ele>1743</ele>
        <time>2024-08-11T09:39:16Z</time>
      </trkpt>
      <trkpt lat="44.96517" lon="6.49556">
        <ele>1743.2</ele>
        <time>2024-08-11T09:39:17Z</time>
      </trkpt>
      <trkpt lat="44.96516" lon="6.49555">
        <ele>1743.2</ele>
        <time>2024-08-11T09:39:18Z</time>
      </trkpt>
      <trkpt lat="44.96516" lon="6.49555">
        <ele>1743.2</ele>
        <time>2024-08-11T09:39:19Z</time>
      </trkpt>
      <trkpt lat="44.96513" lon="6.49555">
        <ele>1743.4</ele>
        <time>2024-08-11T09:39:20Z</time>
      </trkpt>
      <trkpt lat="44.96513" lon="6.49555">
        <ele>1743.6</ele>
        <time>2024-08-11T09:39:21Z</time>
      </trkpt>
      <trkpt lat="44.96511" lon="6.49554">
        <ele>1743.8</ele>
        <time>2024-08-11T09:39:22Z</time>
      </trkpt>
      <trkpt lat="44.96511" lon="6.49554">
        <ele>1744</ele>
        <time>2024-08-11T09:39:23Z</time>
      </trkpt>
      <trkpt lat="44.96511" lon="6.49554">
        <ele>1744</ele>
        <time>2024-08-11T09:39:24Z</time>
      </trkpt>
      <trkpt lat="44.96509" lon="6.49553">
        <ele>1744.2</ele>
        <time>2024-08-11T09:39:25Z</time>
      </trkpt>
      <trkpt lat="44.96509" lon="6.49553">
        <ele>1744.2</ele>
        <time>2024-08-11T09:39:26Z</time>
      </trkpt>
      <trkpt lat="44.96509" lon="6.49553">
        <ele>1744.4</ele>
        <time>2024-08-11T09:39:27Z</time>
      </trkpt>
      <trkpt lat="44.96507" lon="6.49552">
        <ele>1744.4</ele>
        <time>2024-08-11T09:39:28Z</time>
      </trkpt>
      <trkpt lat="44.96507" lon="6.49552">
        <ele>1744.8</ele>
        <time>2024-08-11T09:39:29Z</time>
      </trkpt>
      <trkpt lat="44.96504" lon="6.49552">
        <ele>1745</ele>
        <time>2024-08-11T09:39:30Z</time>
      </trkpt>
      <trkpt lat="44.96504" lon="6.49552">
        <ele>1745</ele>
        <time>2024-08-11T09:39:31Z</time>
      </trkpt>
      <trkpt lat="44.96504" lon="6.49552">
        <ele>1745.2</ele>
        <time>2024-08-11T09:39:32Z</time>
      </trkpt>
      <trkpt lat="44.96502" lon="6.49551">
        <ele>1745.4</ele>
        <time>2024-08-11T09:39:33Z</time>
      </trkpt>
      <trkpt lat="44.96502" lon="6.49551">
        <ele>1745.6</ele>
        <time>2024-08-11T09:39:34Z</time>
      </trkpt>
      <trkpt lat="44.96502" lon="6.49551">
        <ele>1746</ele>
        <time>2024-08-11T09:39:35Z</time>
      </trkpt>
      <trkpt lat="44.96501" lon="6.49551">
        <ele>1746.2</ele>
        <time>2024-08-11T09:39:36Z</time>
      </trkpt>
      <trkpt lat="44.96501" lon="6.49551">
        <ele>1746.2</ele>
        <time>2024-08-11T09:39:37Z</time>
      </trkpt>
      <trkpt lat="44.96501" lon="6.49551">
        <ele>1746.6</ele>
        <time>2024-08-11T09:39:38Z</time>
      </trkpt>
      <trkpt lat="44.96499" lon="6.49551">
        <ele>1746.8</ele>
        <time>2024-08-11T09:39:39Z</time>
      </trkpt>
      <trkpt lat="44.96499" lon="6.49551">
        <ele>1747</ele>
        <time>2024-08-11T09:39:40Z</time>
      </trkpt>
      <trkpt lat="44.96499" lon="6.49551">
        <ele>1747.2</ele>
        <time>2024-08-11T09:39:41Z</time>
      </trkpt>
      <trkpt lat="44.96497" lon="6.49549">
        <ele>1747.6</ele>
        <time>2024-08-11T09:39:42Z</time>
      </trkpt>
      <trkpt lat="44.96497" lon="6.49549">
        <ele>1747.8</ele>
        <time>2024-08-11T09:39:43Z</time>
      </trkpt>
      <trkpt lat="44.96497" lon="6.49549">
        <ele>1747.8</ele>
        <time>2024-08-11T09:39:44Z</time>
      </trkpt>
      <trkpt lat="44.96497" lon="6.49549">
        <ele>1748.6</ele>
        <time>2024-08-11T09:39:45Z</time>
      </trkpt>
      <trkpt lat="44.96494" lon="6.49547">
        <ele>1748.6</ele>
        <time>2024-08-11T09:39:46Z</time>
      </trkpt>
      <trkpt lat="44.96494" lon="6.49547">
        <ele>1748.6</ele>
        <time>2024-08-11T09:39:47Z</time>
      </trkpt>
      <trkpt lat="44.96494" lon="6.49547">
        <ele>1748.8</ele>
        <time>2024-08-11T09:39:48Z</time>
      </trkpt>
      <trkpt lat="44.96493" lon="6.49546">
        <ele>1749.2</ele>
        <time>2024-08-11T09:39:49Z</time>
      </trkpt>
      <trkpt lat="44.96493" lon="6.49546">
        <ele>1749.2</ele>
        <time>2024-08-11T09:39:50Z</time>
      </trkpt>
      <trkpt lat="44.96493" lon="6.49546">
        <ele>1749.2</ele>
        <time>2024-08-11T09:39:51Z</time>
      </trkpt>
      <trkpt lat="44.96491" lon="6.49543">
        <ele>1749.6</ele>
        <time>2024-08-11T09:39:52Z</time>
      </trkpt>
      <trkpt lat="44.96491" lon="6.49543">
        <ele>1749.8</ele>
        <time>2024-08-11T09:39:53Z</time>
      </trkpt>
      <trkpt lat="44.96491" lon="6.49543">
        <ele>1749.8</ele>
        <time>2024-08-11T09:39:54Z</time>
      </trkpt>
      <trkpt lat="44.96489" lon="6.49541">
        <ele>1749.8</ele>
        <time>2024-08-11T09:39:55Z</time>
      </trkpt>
      <trkpt lat="44.96489" lon="6.49541">
        <ele>1750.2</ele>
        <time>2024-08-11T09:39:56Z</time>
      </trkpt>
      <trkpt lat="44.96489" lon="6.49541">
        <ele>1750.4</ele>
        <time>2024-08-11T09:39:57Z</time>
      </trkpt>
      <trkpt lat="44.96487" lon="6.49541">
        <ele>1750.6</ele>
        <time>2024-08-11T09:39:58Z</time>
      </trkpt>
      <trkpt lat="44.96487" lon="6.49541">
        <ele>1750.8</ele>
        <time>2024-08-11T09:39:59Z</time>
      </trkpt>
      <trkpt lat="44.96487" lon="6.49541">
        <ele>1751</ele>
        <time>2024-08-11T09:40:00Z</time>
      </trkpt>
      <trkpt lat="44.96487" lon="6.49541">
        <ele>1751</ele>
        <time>2024-08-11T09:40:01Z</time>
      </trkpt>
      <trkpt lat="44.96485" lon="6.4954">
        <ele>1751.4</ele>
        <time>2024-08-11T09:40:02Z</time>
      </trkpt>
      <trkpt lat="44.96485" lon="6.4954">
        <ele>1751.6</ele>
        <time>2024-08-11T09:40:03Z</time>
      </trkpt>
      <trkpt lat="44.96485" lon="6.4954">
        <ele>1751.8</ele>
        <time>2024-08-11T09:40:04Z</time>
      </trkpt>
      <trkpt lat="44.96483" lon="6.4954">
        <ele>1752.2</ele>
        <time>2024-08-11T09:40:05Z</time>
      </trkpt>
      <trkpt lat="44.96483" lon="6.4954">
        <ele>1752.2</ele>
        <time>2024-08-11T09:40:06Z</time>
      </trkpt>
      <trkpt lat="44.96483" lon="6.4954">
        <ele>1752.2</ele>
        <time>2024-08-11T09:40:07Z</time>
      </trkpt>
      <trkpt lat="44.96482" lon="6.49538">
        <ele>1752.6</ele>
        <time>2024-08-11T09:40:08Z</time>
      </trkpt>
      <trkpt lat="44.96482" lon="6.49538">
        <ele>1752.6</ele>
        <time>2024-08-11T09:40:09Z</time>
      </trkpt>
      <trkpt lat="44.96482" lon="6.49538">
        <ele>1752.8</ele>
        <time>2024-08-11T09:40:10Z</time>
      </trkpt>
      <trkpt lat="44.96482" lon="6.49538">
        <ele>1753.4</ele>
        <time>2024-08-11T09:40:11Z</time>
      </trkpt>
      <trkpt lat="44.9648" lon="6.49537">
        <ele>1753.4</ele>
        <time>2024-08-11T09:40:12Z</time>
      </trkpt>
      <trkpt lat="44.9648" lon="6.49537">
        <ele>1753.4</ele>
        <time>2024-08-11T09:40:13Z</time>
      </trkpt>
      <trkpt lat="44.9648" lon="6.49537">
        <ele>1753.6</ele>
        <time>2024-08-11T09:40:14Z</time>
      </trkpt>
      <trkpt lat="44.9648" lon="6.49537">
        <ele>1753.6</ele>
        <time>2024-08-11T09:40:15Z</time>
      </trkpt>
      <trkpt lat="44.96478" lon="6.49535">
        <ele>1753.8</ele>
        <time>2024-08-11T09:40:16Z</time>
      </trkpt>
      <trkpt lat="44.96478" lon="6.49535">
        <ele>1754</ele>
        <time>2024-08-11T09:40:17Z</time>
      </trkpt>
      <trkpt lat="44.96478" lon="6.49535">
        <ele>1754.4</ele>
        <time>2024-08-11T09:40:18Z</time>
      </trkpt>
      <trkpt lat="44.96476" lon="6.49534">
        <ele>1754.6</ele>
        <time>2024-08-11T09:40:19Z</time>
      </trkpt>
      <trkpt lat="44.96476" lon="6.49534">
        <ele>1754.8</ele>
        <time>2024-08-11T09:40:20Z</time>
      </trkpt>
      <trkpt lat="44.96476" lon="6.49534">
        <ele>1754.8</ele>
        <time>2024-08-11T09:40:21Z</time>
      </trkpt>
      <trkpt lat="44.96476" lon="6.49534">
        <ele>1755</ele>
        <time>2024-08-11T09:40:22Z</time>
      </trkpt>
      <trkpt lat="44.96474" lon="6.49533">
        <ele>1755</ele>
        <time>2024-08-11T09:40:23Z</time>
      </trkpt>
      <trkpt lat="44.96474" lon="6.49533">
        <ele>1755.6</ele>
        <time>2024-08-11T09:40:24Z</time>
      </trkpt>
      <trkpt lat="44.96474" lon="6.49533">
        <ele>1755.6</ele>
        <time>2024-08-11T09:40:25Z</time>
      </trkpt>
      <trkpt lat="44.96474" lon="6.49533">
        <ele>1755.6</ele>
        <time>2024-08-11T09:40:26Z</time>
      </trkpt>
      <trkpt lat="44.96471" lon="6.49533">
        <ele>1756</ele>
        <time>2024-08-11T09:40:27Z</time>
      </trkpt>
      <trkpt lat="44.96471" lon="6.49533">
        <ele>1756.2</ele>
        <time>2024-08-11T09:40:28Z</time>
      </trkpt>
      <trkpt lat="44.9647" lon="6.49534">
        <ele>1756.8</ele>
        <time>2024-08-11T09:40:29Z</time>
      </trkpt>
      <trkpt lat="44.9647" lon="6.49534">
        <ele>1756.8</ele>
        <time>2024-08-11T09:40:30Z</time>
      </trkpt>
      <trkpt lat="44.9647" lon="6.49534">
        <ele>1756.8</ele>
        <time>2024-08-11T09:40:31Z</time>
      </trkpt>
      <trkpt lat="44.9647" lon="6.49534">
        <ele>1756.8</ele>
        <time>2024-08-11T09:40:32Z</time>
      </trkpt>
      <trkpt lat="44.96468" lon="6.49534">
        <ele>1757.2</ele>
        <time>2024-08-11T09:40:33Z</time>
      </trkpt>
      <trkpt lat="44.96468" lon="6.49534">
        <ele>1757.2</ele>
        <time>2024-08-11T09:40:34Z</time>
      </trkpt>
      <trkpt lat="44.96468" lon="6.49534">
        <ele>1757.4</ele>
        <time>2024-08-11T09:40:35Z</time>
      </trkpt>
      <trkpt lat="44.96466" lon="6.49534">
        <ele>1757.6</ele>
        <time>2024-08-11T09:40:36Z</time>
      </trkpt>
      <trkpt lat="44.96466" lon="6.49534">
        <ele>1757.8</ele>
        <time>2024-08-11T09:40:37Z</time>
      </trkpt>
      <trkpt lat="44.96466" lon="6.49534">
        <ele>1758.2</ele>
        <time>2024-08-11T09:40:38Z</time>
      </trkpt>
      <trkpt lat="44.96464" lon="6.49533">
        <ele>1758.6</ele>
        <time>2024-08-11T09:40:39Z</time>
      </trkpt>
      <trkpt lat="44.96464" lon="6.49533">
        <ele>1758.6</ele>
        <time>2024-08-11T09:40:40Z</time>
      </trkpt>
      <trkpt lat="44.96464" lon="6.49533">
        <ele>1758.6</ele>
        <time>2024-08-11T09:40:41Z</time>
      </trkpt>
      <trkpt lat="44.96462" lon="6.49533">
        <ele>1759</ele>
        <time>2024-08-11T09:40:42Z</time>
      </trkpt>
      <trkpt lat="44.96462" lon="6.49533">
        <ele>1759</ele>
        <time>2024-08-11T09:40:43Z</time>
      </trkpt>
      <trkpt lat="44.96462" lon="6.49533">
        <ele>1759.2</ele>
        <time>2024-08-11T09:40:44Z</time>
      </trkpt>
      <trkpt lat="44.96462" lon="6.49533">
        <ele>1759.6</ele>
        <time>2024-08-11T09:40:45Z</time>
      </trkpt>
      <trkpt lat="44.96462" lon="6.49533">
        <ele>1759.8</ele>
        <time>2024-08-11T09:40:46Z</time>
      </trkpt>
      <trkpt lat="44.96462" lon="6.49533">
        <ele>1759.8</ele>
        <time>2024-08-11T09:40:47Z</time>
      </trkpt>
      <trkpt lat="44.9646" lon="6.49533">
        <ele>1760</ele>
        <time>2024-08-11T09:40:48Z</time>
      </trkpt>
      <trkpt lat="44.9646" lon="6.49533">
        <ele>1760.4</ele>
        <time>2024-08-11T09:40:49Z</time>
      </trkpt>
      <trkpt lat="44.9646" lon="6.49533">
        <ele>1760.4</ele>
        <time>2024-08-11T09:40:50Z</time>
      </trkpt>
      <trkpt lat="44.9646" lon="6.49533">
        <ele>1760.6</ele>
        <time>2024-08-11T09:40:51Z</time>
      </trkpt>
      <trkpt lat="44.9646" lon="6.49533">
        <ele>1761</ele>
        <time>2024-08-11T09:40:52Z</time>
      </trkpt>
      <trkpt lat="44.96458" lon="6.49533">
        <ele>1761.2</ele>
        <time>2024-08-11T09:40:53Z</time>
      </trkpt>
      <trkpt lat="44.96458" lon="6.49533">
        <ele>1761.2</ele>
        <time>2024-08-11T09:40:54Z</time>
      </trkpt>
      <trkpt lat="44.96458" lon="6.49533">
        <ele>1761.6</ele>
        <time>2024-08-11T09:40:55Z</time>
      </trkpt>
      <trkpt lat="44.96456" lon="6.49532">
        <ele>1761.8</ele>
        <time>2024-08-11T09:40:56Z</time>
      </trkpt>
      <trkpt lat="44.96456" lon="6.49532">
        <ele>1762</ele>
        <time>2024-08-11T09:40:57Z</time>
      </trkpt>
      <trkpt lat="44.96456" lon="6.49532">
        <ele>1762.2</ele>
        <time>2024-08-11T09:40:58Z</time>
      </trkpt>
      <trkpt lat="44.96456" lon="6.49532">
        <ele>1762.4</ele>
        <time>2024-08-11T09:40:59Z</time>
      </trkpt>
      <trkpt lat="44.96456" lon="6.49532">
        <ele>1762.4</ele>
        <time>2024-08-11T09:41:00Z</time>
      </trkpt>
      <trkpt lat="44.96456" lon="6.49532">
        <ele>1762.6</ele>
        <time>2024-08-11T09:41:01Z</time>
      </trkpt>
      <trkpt lat="44.96453" lon="6.49531">
        <ele>1762.8</ele>
        <time>2024-08-11T09:41:02Z</time>
      </trkpt>
      <trkpt lat="44.96453" lon="6.49531">
        <ele>1762.8</ele>
        <time>2024-08-11T09:41:03Z</time>
      </trkpt>
      <trkpt lat="44.96451" lon="6.4953">
        <ele>1763.2</ele>
        <time>2024-08-11T09:41:04Z</time>
      </trkpt>
      <trkpt lat="44.96451" lon="6.4953">
        <ele>1763.2</ele>
        <time>2024-08-11T09:41:05Z</time>
      </trkpt>
      <trkpt lat="44.96451" lon="6.4953">
        <ele>1763.4</ele>
        <time>2024-08-11T09:41:06Z</time>
      </trkpt>
      <trkpt lat="44.96449" lon="6.49531">
        <ele>1763.8</ele>
        <time>2024-08-11T09:41:07Z</time>
      </trkpt>
      <trkpt lat="44.96449" lon="6.49531">
        <ele>1763.8</ele>
        <time>2024-08-11T09:41:08Z</time>
      </trkpt>
      <trkpt lat="44.96449" lon="6.49531">
        <ele>1763.8</ele>
        <time>2024-08-11T09:41:09Z</time>
      </trkpt>
      <trkpt lat="44.96447" lon="6.4953">
        <ele>1764.2</ele>
        <time>2024-08-11T09:41:10Z</time>
      </trkpt>
      <trkpt lat="44.96447" lon="6.4953">
        <ele>1764.6</ele>
        <time>2024-08-11T09:41:11Z</time>
      </trkpt>
      <trkpt lat="44.96446" lon="6.49529">
        <ele>1764.8</ele>
        <time>2024-08-11T09:41:12Z</time>
      </trkpt>
      <trkpt lat="44.96446" lon="6.49529">
        <ele>1765</ele>
        <time>2024-08-11T09:41:13Z</time>
      </trkpt>
      <trkpt lat="44.96446" lon="6.49529">
        <ele>1765.2</ele>
        <time>2024-08-11T09:41:14Z</time>
      </trkpt>
      <trkpt lat="44.96444" lon="6.49529">
        <ele>1765.2</ele>
        <time>2024-08-11T09:41:15Z</time>
      </trkpt>
      <trkpt lat="44.96444" lon="6.49529">
        <ele>1765.2</ele>
        <time>2024-08-11T09:41:16Z</time>
      </trkpt>
      <trkpt lat="44.96442" lon="6.4953">
        <ele>1765.2</ele>
        <time>2024-08-11T09:41:17Z</time>
      </trkpt>
      <trkpt lat="44.96442" lon="6.4953">
        <ele>1765.8</ele>
        <time>2024-08-11T09:41:18Z</time>
      </trkpt>
      <trkpt lat="44.96442" lon="6.4953">
        <ele>1765.8</ele>
        <time>2024-08-11T09:41:19Z</time>
      </trkpt>
      <trkpt lat="44.96439" lon="6.49529">
        <ele>1765.8</ele>
        <time>2024-08-11T09:41:20Z</time>
      </trkpt>
      <trkpt lat="44.96439" lon="6.49529">
        <ele>1765.8</ele>
        <time>2024-08-11T09:41:21Z</time>
      </trkpt>
      <trkpt lat="44.96439" lon="6.49529">
        <ele>1766.2</ele>
        <time>2024-08-11T09:41:22Z</time>
      </trkpt>
      <trkpt lat="44.96437" lon="6.49528">
        <ele>1766.4</ele>
        <time>2024-08-11T09:41:23Z</time>
      </trkpt>
      <trkpt lat="44.96437" lon="6.49528">
        <ele>1766.8</ele>
        <time>2024-08-11T09:41:24Z</time>
      </trkpt>
      <trkpt lat="44.96437" lon="6.49528">
        <ele>1767</ele>
        <time>2024-08-11T09:41:25Z</time>
      </trkpt>
      <trkpt lat="44.96435" lon="6.49526">
        <ele>1767.2</ele>
        <time>2024-08-11T09:41:26Z</time>
      </trkpt>
      <trkpt lat="44.96435" lon="6.49526">
        <ele>1767.2</ele>
        <time>2024-08-11T09:41:27Z</time>
      </trkpt>
      <trkpt lat="44.96435" lon="6.49526">
        <ele>1767.2</ele>
        <time>2024-08-11T09:41:28Z</time>
      </trkpt>
      <trkpt lat="44.96433" lon="6.49525">
        <ele>1767.4</ele>
        <time>2024-08-11T09:41:29Z</time>
      </trkpt>
      <trkpt lat="44.96433" lon="6.49525">
        <ele>1767.6</ele>
        <time>2024-08-11T09:41:30Z</time>
      </trkpt>
      <trkpt lat="44.96431" lon="6.49523">
        <ele>1767.6</ele>
        <time>2024-08-11T09:41:31Z</time>
      </trkpt>
      <trkpt lat="44.96431" lon="6.49523">
        <ele>1767.8</ele>
        <time>2024-08-11T09:41:32Z</time>
      </trkpt>
      <trkpt lat="44.96429" lon="6.49523">
        <ele>1768</ele>
        <time>2024-08-11T09:41:33Z</time>
      </trkpt>
      <trkpt lat="44.96429" lon="6.49523">
        <ele>1768.4</ele>
        <time>2024-08-11T09:41:34Z</time>
      </trkpt>
      <trkpt lat="44.96429" lon="6.49523">
        <ele>1768.4</ele>
        <time>2024-08-11T09:41:35Z</time>
      </trkpt>
      <trkpt lat="44.96428" lon="6.49522">
        <ele>1768.4</ele>
        <time>2024-08-11T09:41:36Z</time>
      </trkpt>
      <trkpt lat="44.96428" lon="6.49522">
        <ele>1768.6</ele>
        <time>2024-08-11T09:41:37Z</time>
      </trkpt>
      <trkpt lat="44.96428" lon="6.49522">
        <ele>1768.6</ele>
        <time>2024-08-11T09:41:38Z</time>
      </trkpt>
      <trkpt lat="44.96425" lon="6.49521">
        <ele>1769</ele>
        <time>2024-08-11T09:41:39Z</time>
      </trkpt>
      <trkpt lat="44.96425" lon="6.49521">
        <ele>1769.6</ele>
        <time>2024-08-11T09:41:40Z</time>
      </trkpt>
      <trkpt lat="44.96425" lon="6.49521">
        <ele>1769.8</ele>
        <time>2024-08-11T09:41:41Z</time>
      </trkpt>
      <trkpt lat="44.96425" lon="6.49521">
        <ele>1770</ele>
        <time>2024-08-11T09:41:42Z</time>
      </trkpt>
      <trkpt lat="44.96425" lon="6.49521">
        <ele>1770.4</ele>
        <time>2024-08-11T09:41:43Z</time>
      </trkpt>
      <trkpt lat="44.96424" lon="6.4952">
        <ele>1770.6</ele>
        <time>2024-08-11T09:41:44Z</time>
      </trkpt>
      <trkpt lat="44.96424" lon="6.4952">
        <ele>1770.6</ele>
        <time>2024-08-11T09:41:45Z</time>
      </trkpt>
      <trkpt lat="44.96424" lon="6.4952">
        <ele>1770.6</ele>
        <time>2024-08-11T09:41:46Z</time>
      </trkpt>
      <trkpt lat="44.96422" lon="6.49518">
        <ele>1770.8</ele>
        <time>2024-08-11T09:41:47Z</time>
      </trkpt>
      <trkpt lat="44.96422" lon="6.49518">
        <ele>1771.2</ele>
        <time>2024-08-11T09:41:48Z</time>
      </trkpt>
      <trkpt lat="44.96422" lon="6.49518">
        <ele>1771.2</ele>
        <time>2024-08-11T09:41:49Z</time>
      </trkpt>
      <trkpt lat="44.9642" lon="6.49515">
        <ele>1771.4</ele>
        <time>2024-08-11T09:41:50Z</time>
      </trkpt>
      <trkpt lat="44.9642" lon="6.49515">
        <ele>1771.6</ele>
        <time>2024-08-11T09:41:51Z</time>
      </trkpt>
      <trkpt lat="44.96418" lon="6.49514">
        <ele>1771.8</ele>
        <time>2024-08-11T09:41:52Z</time>
      </trkpt>
      <trkpt lat="44.96418" lon="6.49514">
        <ele>1772</ele>
        <time>2024-08-11T09:41:53Z</time>
      </trkpt>
      <trkpt lat="44.96418" lon="6.49514">
        <ele>1772.2</ele>
        <time>2024-08-11T09:41:54Z</time>
      </trkpt>
      <trkpt lat="44.96416" lon="6.49513">
        <ele>1772.2</ele>
        <time>2024-08-11T09:41:55Z</time>
      </trkpt>
      <trkpt lat="44.96416" lon="6.49513">
        <ele>1772.4</ele>
        <time>2024-08-11T09:41:56Z</time>
      </trkpt>
      <trkpt lat="44.96416" lon="6.49513">
        <ele>1772.6</ele>
        <time>2024-08-11T09:41:57Z</time>
      </trkpt>
      <trkpt lat="44.96413" lon="6.49514">
        <ele>1772.8</ele>
        <time>2024-08-11T09:41:58Z</time>
      </trkpt>
      <trkpt lat="44.96413" lon="6.49514">
        <ele>1773</ele>
        <time>2024-08-11T09:41:59Z</time>
      </trkpt>
      <trkpt lat="44.96413" lon="6.49514">
        <ele>1773.2</ele>
        <time>2024-08-11T09:42:00Z</time>
      </trkpt>
      <trkpt lat="44.96411" lon="6.49516">
        <ele>1773.4</ele>
        <time>2024-08-11T09:42:01Z</time>
      </trkpt>
      <trkpt lat="44.96411" lon="6.49516">
        <ele>1773.6</ele>
        <time>2024-08-11T09:42:02Z</time>
      </trkpt>
      <trkpt lat="44.96411" lon="6.49516">
        <ele>1773.6</ele>
        <time>2024-08-11T09:42:03Z</time>
      </trkpt>
      <trkpt lat="44.9641" lon="6.49517">
        <ele>1773.6</ele>
        <time>2024-08-11T09:42:04Z</time>
      </trkpt>
      <trkpt lat="44.9641" lon="6.49517">
        <ele>1773.8</ele>
        <time>2024-08-11T09:42:05Z</time>
      </trkpt>
      <trkpt lat="44.9641" lon="6.49517">
        <ele>1774.2</ele>
        <time>2024-08-11T09:42:06Z</time>
      </trkpt>
      <trkpt lat="44.9641" lon="6.49517">
        <ele>1774.2</ele>
        <time>2024-08-11T09:42:07Z</time>
      </trkpt>
      <trkpt lat="44.96408" lon="6.49518">
        <ele>1774.4</ele>
        <time>2024-08-11T09:42:08Z</time>
      </trkpt>
      <trkpt lat="44.96408" lon="6.49518">
        <ele>1774.6</ele>
        <time>2024-08-11T09:42:09Z</time>
      </trkpt>
      <trkpt lat="44.96406" lon="6.49519">
        <ele>1774.8</ele>
        <time>2024-08-11T09:42:10Z</time>
      </trkpt>
      <trkpt lat="44.96406" lon="6.49519">
        <ele>1775</ele>
        <time>2024-08-11T09:42:11Z</time>
      </trkpt>
      <trkpt lat="44.96404" lon="6.4952">
        <ele>1775.2</ele>
        <time>2024-08-11T09:42:12Z</time>
      </trkpt>
      <trkpt lat="44.96404" lon="6.4952">
        <ele>1775.4</ele>
        <time>2024-08-11T09:42:13Z</time>
      </trkpt>
      <trkpt lat="44.96404" lon="6.4952">
        <ele>1775.4</ele>
        <time>2024-08-11T09:42:14Z</time>
      </trkpt>
      <trkpt lat="44.96404" lon="6.4952">
        <ele>1775.4</ele>
        <time>2024-08-11T09:42:15Z</time>
      </trkpt>
      <trkpt lat="44.96401" lon="6.49518">
        <ele>1775.4</ele>
        <time>2024-08-11T09:42:16Z</time>
      </trkpt>
      <trkpt lat="44.96401" lon="6.49518">
        <ele>1775.4</ele>
        <time>2024-08-11T09:42:17Z</time>
      </trkpt>
      <trkpt lat="44.96401" lon="6.49518">
        <ele>1775.4</ele>
        <time>2024-08-11T09:42:18Z</time>
      </trkpt>
      <trkpt lat="44.96401" lon="6.49518">
        <ele>1775.6</ele>
        <time>2024-08-11T09:42:19Z</time>
      </trkpt>
      <trkpt lat="44.96401" lon="6.49518">
        <ele>1775.6</ele>
        <time>2024-08-11T09:42:20Z</time>
      </trkpt>
      <trkpt lat="44.96401" lon="6.49518">
        <ele>1775.8</ele>
        <time>2024-08-11T09:42:21Z</time>
      </trkpt>
      <trkpt lat="44.96401" lon="6.49518">
        <ele>1776</ele>
        <time>2024-08-11T09:42:22Z</time>
      </trkpt>
      <trkpt lat="44.96401" lon="6.49518">
        <ele>1776</ele>
        <time>2024-08-11T09:42:23Z</time>
      </trkpt>
      <trkpt lat="44.96401" lon="6.49518">
        <ele>1776</ele>
        <time>2024-08-11T09:42:24Z</time>
      </trkpt>
      <trkpt lat="44.96401" lon="6.49518">
        <ele>1776.2</ele>
        <time>2024-08-11T09:42:25Z</time>
      </trkpt>
      <trkpt lat="44.96401" lon="6.49518">
        <ele>1776.2</ele>
        <time>2024-08-11T09:42:26Z</time>
      </trkpt>
      <trkpt lat="44.96401" lon="6.49518">
        <ele>1776.2</ele>
        <time>2024-08-11T09:42:27Z</time>
      </trkpt>
      <trkpt lat="44.96401" lon="6.49518">
        <ele>1776</ele>
        <time>2024-08-11T09:42:28Z</time>
      </trkpt>
      <trkpt lat="44.96401" lon="6.49518">
        <ele>1776</ele>
        <time>2024-08-11T09:42:29Z</time>
      </trkpt>
      <trkpt lat="44.96399" lon="6.49518">
        <ele>1776</ele>
        <time>2024-08-11T09:42:30Z</time>
      </trkpt>
      <trkpt lat="44.96399" lon="6.49518">
        <ele>1776</ele>
        <time>2024-08-11T09:42:31Z</time>
      </trkpt>
      <trkpt lat="44.96396" lon="6.4952">
        <ele>1776</ele>
        <time>2024-08-11T09:42:32Z</time>
      </trkpt>
      <trkpt lat="44.96396" lon="6.4952">
        <ele>1775.6</ele>
        <time>2024-08-11T09:42:33Z</time>
      </trkpt>
      <trkpt lat="44.96393" lon="6.49523">
        <ele>1775</ele>
        <time>2024-08-11T09:42:34Z</time>
      </trkpt>
      <trkpt lat="44.96391" lon="6.49523">
        <ele>1775</ele>
        <time>2024-08-11T09:42:35Z</time>
      </trkpt>
      <trkpt lat="44.96389" lon="6.49523">
        <ele>1775.4</ele>
        <time>2024-08-11T09:42:36Z</time>
      </trkpt>
      <trkpt lat="44.96389" lon="6.49523">
        <ele>1775.6</ele>
        <time>2024-08-11T09:42:37Z</time>
      </trkpt>
      <trkpt lat="44.96387" lon="6.49522">
        <ele>1775.8</ele>
        <time>2024-08-11T09:42:38Z</time>
      </trkpt>
      <trkpt lat="44.96387" lon="6.49522">
        <ele>1776.2</ele>
        <time>2024-08-11T09:42:39Z</time>
      </trkpt>
      <trkpt lat="44.96387" lon="6.49522">
        <ele>1776.4</ele>
        <time>2024-08-11T09:42:40Z</time>
      </trkpt>
      <trkpt lat="44.96387" lon="6.49522">
        <ele>1776.4</ele>
        <time>2024-08-11T09:42:41Z</time>
      </trkpt>
      <trkpt lat="44.96387" lon="6.49522">
        <ele>1776.4</ele>
        <time>2024-08-11T09:42:42Z</time>
      </trkpt>
      <trkpt lat="44.96387" lon="6.49522">
        <ele>1776.6</ele>
        <time>2024-08-11T09:42:43Z</time>
      </trkpt>
      <trkpt lat="44.96387" lon="6.49522">
        <ele>1776.6</ele>
        <time>2024-08-11T09:42:44Z</time>
      </trkpt>
      <trkpt lat="44.96387" lon="6.49522">
        <ele>1776.6</ele>
        <time>2024-08-11T09:42:45Z</time>
      </trkpt>
      <trkpt lat="44.96387" lon="6.49522">
        <ele>1776.6</ele>
        <time>2024-08-11T09:42:46Z</time>
      </trkpt>
      <trkpt lat="44.96387" lon="6.49522">
        <ele>1776.6</ele>
        <time>2024-08-11T09:42:47Z</time>
      </trkpt>
      <trkpt lat="44.96387" lon="6.49522">
        <ele>1776.6</ele>
        <time>2024-08-11T09:42:48Z</time>
      </trkpt>
      <trkpt lat="44.96387" lon="6.49522">
        <ele>1776.6</ele>
        <time>2024-08-11T09:42:49Z</time>
      </trkpt>
      <trkpt lat="44.96387" lon="6.49522">
        <ele>1776.6</ele>
        <time>2024-08-11T09:42:50Z</time>
      </trkpt>
      <trkpt lat="44.96387" lon="6.49522">
        <ele>1776.8</ele>
        <time>2024-08-11T09:42:51Z</time>
      </trkpt>
      <trkpt lat="44.96387" lon="6.49522">
        <ele>1777</ele>
        <time>2024-08-11T09:42:52Z</time>
      </trkpt>
      <trkpt lat="44.96387" lon="6.49522">
        <ele>1777</ele>
        <time>2024-08-11T09:42:53Z</time>
      </trkpt>
      <trkpt lat="44.96387" lon="6.49522">
        <ele>1776.6</ele>
        <time>2024-08-11T09:42:54Z</time>
      </trkpt>
      <trkpt lat="44.96387" lon="6.49522">
        <ele>1776.6</ele>
        <time>2024-08-11T09:42:55Z</time>
      </trkpt>
      <trkpt lat="44.96385" lon="6.49519">
        <ele>1776.6</ele>
        <time>2024-08-11T09:42:56Z</time>
      </trkpt>
      <trkpt lat="44.96385" lon="6.49519">
        <ele>1776.4</ele>
        <time>2024-08-11T09:42:57Z</time>
      </trkpt>
      <trkpt lat="44.96383" lon="6.49515">
        <ele>1775.8</ele>
        <time>2024-08-11T09:42:58Z</time>
      </trkpt>
      <trkpt lat="44.96382" lon="6.49513">
        <ele>1775.8</ele>
        <time>2024-08-11T09:42:59Z</time>
      </trkpt>
      <trkpt lat="44.9638" lon="6.49512">
        <ele>1775.6</ele>
        <time>2024-08-11T09:43:00Z</time>
      </trkpt>
      <trkpt lat="44.9638" lon="6.49512">
        <ele>1775.6</ele>
        <time>2024-08-11T09:43:01Z</time>
      </trkpt>
      <trkpt lat="44.96378" lon="6.4951">
        <ele>1775.2</ele>
        <time>2024-08-11T09:43:02Z</time>
      </trkpt>
      <trkpt lat="44.96378" lon="6.4951">
        <ele>1775.2</ele>
        <time>2024-08-11T09:43:03Z</time>
      </trkpt>
      <trkpt lat="44.96375" lon="6.49508">
        <ele>1775.2</ele>
        <time>2024-08-11T09:43:04Z</time>
      </trkpt>
      <trkpt lat="44.96375" lon="6.49508">
        <ele>1775.2</ele>
        <time>2024-08-11T09:43:05Z</time>
      </trkpt>
      <trkpt lat="44.96372" lon="6.49508">
        <ele>1775.2</ele>
        <time>2024-08-11T09:43:06Z</time>
      </trkpt>
      <trkpt lat="44.9637" lon="6.49508">
        <ele>1775</ele>
        <time>2024-08-11T09:43:07Z</time>
      </trkpt>
      <trkpt lat="44.9637" lon="6.49508">
        <ele>1775</ele>
        <time>2024-08-11T09:43:08Z</time>
      </trkpt>
      <trkpt lat="44.96368" lon="6.49507">
        <ele>1775</ele>
        <time>2024-08-11T09:43:09Z</time>
      </trkpt>
      <trkpt lat="44.96368" lon="6.49507">
        <ele>1775.4</ele>
        <time>2024-08-11T09:43:10Z</time>
      </trkpt>
      <trkpt lat="44.96368" lon="6.49507">
        <ele>1775.4</ele>
        <time>2024-08-11T09:43:11Z</time>
      </trkpt>
      <trkpt lat="44.96368" lon="6.49507">
        <ele>1775.6</ele>
        <time>2024-08-11T09:43:12Z</time>
      </trkpt>
      <trkpt lat="44.96365" lon="6.49505">
        <ele>1776</ele>
        <time>2024-08-11T09:43:13Z</time>
      </trkpt>
      <trkpt lat="44.96364" lon="6.49505">
        <ele>1776</ele>
        <time>2024-08-11T09:43:14Z</time>
      </trkpt>
      <trkpt lat="44.96364" lon="6.49505">
        <ele>1776.2</ele>
        <time>2024-08-11T09:43:15Z</time>
      </trkpt>
      <trkpt lat="44.96362" lon="6.49505">
        <ele>1776.2</ele>
        <time>2024-08-11T09:43:16Z</time>
      </trkpt>
      <trkpt lat="44.96362" lon="6.49505">
        <ele>1776.2</ele>
        <time>2024-08-11T09:43:17Z</time>
      </trkpt>
      <trkpt lat="44.96362" lon="6.49505">
        <ele>1776.6</ele>
        <time>2024-08-11T09:43:18Z</time>
      </trkpt>
      <trkpt lat="44.96362" lon="6.49505">
        <ele>1777</ele>
        <time>2024-08-11T09:43:19Z</time>
      </trkpt>
      <trkpt lat="44.96358" lon="6.49505">
        <ele>1777.2</ele>
        <time>2024-08-11T09:43:20Z</time>
      </trkpt>
      <trkpt lat="44.96358" lon="6.49505">
        <ele>1777.2</ele>
        <time>2024-08-11T09:43:21Z</time>
      </trkpt>
      <trkpt lat="44.96358" lon="6.49505">
        <ele>1777.4</ele>
        <time>2024-08-11T09:43:22Z</time>
      </trkpt>
      <trkpt lat="44.96356" lon="6.49504">
        <ele>1777.8</ele>
        <time>2024-08-11T09:43:23Z</time>
      </trkpt>
      <trkpt lat="44.96356" lon="6.49504">
        <ele>1777.8</ele>
        <time>2024-08-11T09:43:24Z</time>
      </trkpt>
      <trkpt lat="44.96354" lon="6.49503">
        <ele>1777.8</ele>
        <time>2024-08-11T09:43:25Z</time>
      </trkpt>
      <trkpt lat="44.96354" lon="6.49503">
        <ele>1778</ele>
        <time>2024-08-11T09:43:26Z</time>
      </trkpt>
      <trkpt lat="44.96351" lon="6.49501">
        <ele>1778</ele>
        <time>2024-08-11T09:43:27Z</time>
      </trkpt>
      <trkpt lat="44.96351" lon="6.49501">
        <ele>1778.2</ele>
        <time>2024-08-11T09:43:28Z</time>
      </trkpt>
      <trkpt lat="44.96349" lon="6.49499">
        <ele>1778.2</ele>
        <time>2024-08-11T09:43:29Z</time>
      </trkpt>
      <trkpt lat="44.96349" lon="6.49499">
        <ele>1778.2</ele>
        <time>2024-08-11T09:43:30Z</time>
      </trkpt>
      <trkpt lat="44.96348" lon="6.49498">
        <ele>1778.2</ele>
        <time>2024-08-11T09:43:31Z</time>
      </trkpt>
      <trkpt lat="44.96348" lon="6.49498">
        <ele>1778.6</ele>
        <time>2024-08-11T09:43:32Z</time>
      </trkpt>
      <trkpt lat="44.96346" lon="6.49495">
        <ele>1779</ele>
        <time>2024-08-11T09:43:33Z</time>
      </trkpt>
      <trkpt lat="44.96346" lon="6.49495">
        <ele>1779.2</ele>
        <time>2024-08-11T09:43:34Z</time>
      </trkpt>
      <trkpt lat="44.96344" lon="6.49493">
        <ele>1779.2</ele>
        <time>2024-08-11T09:43:35Z</time>
      </trkpt>
      <trkpt lat="44.96344" lon="6.49493">
        <ele>1779.6</ele>
        <time>2024-08-11T09:43:36Z</time>
      </trkpt>
      <trkpt lat="44.96342" lon="6.49491">
        <ele>1779.6</ele>
        <time>2024-08-11T09:43:37Z</time>
      </trkpt>
      <trkpt lat="44.96342" lon="6.49491">
        <ele>1779.6</ele>
        <time>2024-08-11T09:43:38Z</time>
      </trkpt>
      <trkpt lat="44.9634" lon="6.49491">
        <ele>1779.6</ele>
        <time>2024-08-11T09:43:39Z</time>
      </trkpt>
      <trkpt lat="44.9634" lon="6.49491">
        <ele>1779.8</ele>
        <time>2024-08-11T09:43:40Z</time>
      </trkpt>
      <trkpt lat="44.96338" lon="6.4949">
        <ele>1779.8</ele>
        <time>2024-08-11T09:43:41Z</time>
      </trkpt>
      <trkpt lat="44.96338" lon="6.4949">
        <ele>1780</ele>
        <time>2024-08-11T09:43:42Z</time>
      </trkpt>
      <trkpt lat="44.96336" lon="6.49487">
        <ele>1780</ele>
        <time>2024-08-11T09:43:43Z</time>
      </trkpt>
      <trkpt lat="44.96336" lon="6.49487">
        <ele>1780.2</ele>
        <time>2024-08-11T09:43:44Z</time>
      </trkpt>
      <trkpt lat="44.96335" lon="6.49484">
        <ele>1780.2</ele>
        <time>2024-08-11T09:43:45Z</time>
      </trkpt>
      <trkpt lat="44.96335" lon="6.49484">
        <ele>1780.4</ele>
        <time>2024-08-11T09:43:46Z</time>
      </trkpt>
      <trkpt lat="44.96334" lon="6.49481">
        <ele>1780.4</ele>
        <time>2024-08-11T09:43:47Z</time>
      </trkpt>
      <trkpt lat="44.96334" lon="6.49481">
        <ele>1780.4</ele>
        <time>2024-08-11T09:43:48Z</time>
      </trkpt>
      <trkpt lat="44.96332" lon="6.49478">
        <ele>1780.6</ele>
        <time>2024-08-11T09:43:49Z</time>
      </trkpt>
      <trkpt lat="44.9633" lon="6.49477">
        <ele>1780.8</ele>
        <time>2024-08-11T09:43:50Z</time>
      </trkpt>
      <trkpt lat="44.9633" lon="6.49477">
        <ele>1781</ele>
        <time>2024-08-11T09:43:51Z</time>
      </trkpt>
      <trkpt lat="44.96328" lon="6.49477">
        <ele>1781.2</ele>
        <time>2024-08-11T09:43:52Z</time>
      </trkpt>
      <trkpt lat="44.96328" lon="6.49477">
        <ele>1781.2</ele>
        <time>2024-08-11T09:43:53Z</time>
      </trkpt>
      <trkpt lat="44.96326" lon="6.49476">
        <ele>1781.4</ele>
        <time>2024-08-11T09:43:54Z</time>
      </trkpt>
      <trkpt lat="44.96326" lon="6.49476">
        <ele>1781.4</ele>
        <time>2024-08-11T09:43:55Z</time>
      </trkpt>
      <trkpt lat="44.96324" lon="6.49473">
        <ele>1781.6</ele>
        <time>2024-08-11T09:43:56Z</time>
      </trkpt>
      <trkpt lat="44.96324" lon="6.49473">
        <ele>1781.6</ele>
        <time>2024-08-11T09:43:57Z</time>
      </trkpt>
      <trkpt lat="44.96323" lon="6.49472">
        <ele>1781.6</ele>
        <time>2024-08-11T09:43:58Z</time>
      </trkpt>
      <trkpt lat="44.96323" lon="6.49472">
        <ele>1781.6</ele>
        <time>2024-08-11T09:43:59Z</time>
      </trkpt>
      <trkpt lat="44.9632" lon="6.4947">
        <ele>1781.8</ele>
        <time>2024-08-11T09:44:00Z</time>
      </trkpt>
      <trkpt lat="44.9632" lon="6.4947">
        <ele>1782</ele>
        <time>2024-08-11T09:44:01Z</time>
      </trkpt>
      <trkpt lat="44.96318" lon="6.49468">
        <ele>1782</ele>
        <time>2024-08-11T09:44:02Z</time>
      </trkpt>
      <trkpt lat="44.96318" lon="6.49468">
        <ele>1782</ele>
        <time>2024-08-11T09:44:03Z</time>
      </trkpt>
      <trkpt lat="44.96317" lon="6.49465">
        <ele>1782.4</ele>
        <time>2024-08-11T09:44:04Z</time>
      </trkpt>
      <trkpt lat="44.96317" lon="6.49465">
        <ele>1782.4</ele>
        <time>2024-08-11T09:44:05Z</time>
      </trkpt>
      <trkpt lat="44.96317" lon="6.49465">
        <ele>1782.6</ele>
        <time>2024-08-11T09:44:06Z</time>
      </trkpt>
      <trkpt lat="44.96315" lon="6.49462">
        <ele>1783</ele>
        <time>2024-08-11T09:44:07Z</time>
      </trkpt>
      <trkpt lat="44.96315" lon="6.49462">
        <ele>1783</ele>
        <time>2024-08-11T09:44:08Z</time>
      </trkpt>
      <trkpt lat="44.96315" lon="6.49462">
        <ele>1783.2</ele>
        <time>2024-08-11T09:44:09Z</time>
      </trkpt>
      <trkpt lat="44.96314" lon="6.4946">
        <ele>1783.4</ele>
        <time>2024-08-11T09:44:10Z</time>
      </trkpt>
      <trkpt lat="44.96314" lon="6.4946">
        <ele>1783.6</ele>
        <time>2024-08-11T09:44:11Z</time>
      </trkpt>
      <trkpt lat="44.96314" lon="6.4946">
        <ele>1783.8</ele>
        <time>2024-08-11T09:44:12Z</time>
      </trkpt>
      <trkpt lat="44.96311" lon="6.49459">
        <ele>1784</ele>
        <time>2024-08-11T09:44:13Z</time>
      </trkpt>
      <trkpt lat="44.96311" lon="6.49459">
        <ele>1784</ele>
        <time>2024-08-11T09:44:14Z</time>
      </trkpt>
      <trkpt lat="44.96311" lon="6.49459">
        <ele>1784.2</ele>
        <time>2024-08-11T09:44:15Z</time>
      </trkpt>
      <trkpt lat="44.96309" lon="6.49458">
        <ele>1784.6</ele>
        <time>2024-08-11T09:44:16Z</time>
      </trkpt>
      <trkpt lat="44.96309" lon="6.49458">
        <ele>1784.8</ele>
        <time>2024-08-11T09:44:17Z</time>
      </trkpt>
      <trkpt lat="44.96308" lon="6.49457">
        <ele>1785.2</ele>
        <time>2024-08-11T09:44:18Z</time>
      </trkpt>
      <trkpt lat="44.96308" lon="6.49457">
        <ele>1785.4</ele>
        <time>2024-08-11T09:44:19Z</time>
      </trkpt>
      <trkpt lat="44.96306" lon="6.49456">
        <ele>1785.4</ele>
        <time>2024-08-11T09:44:20Z</time>
      </trkpt>
      <trkpt lat="44.96306" lon="6.49456">
        <ele>1785.8</ele>
        <time>2024-08-11T09:44:21Z</time>
      </trkpt>
      <trkpt lat="44.96304" lon="6.49456">
        <ele>1785.8</ele>
        <time>2024-08-11T09:44:22Z</time>
      </trkpt>
      <trkpt lat="44.96304" lon="6.49456">
        <ele>1785.8</ele>
        <time>2024-08-11T09:44:23Z</time>
      </trkpt>
      <trkpt lat="44.96301" lon="6.49455">
        <ele>1786</ele>
        <time>2024-08-11T09:44:24Z</time>
      </trkpt>
      <trkpt lat="44.96301" lon="6.49455">
        <ele>1786</ele>
        <time>2024-08-11T09:44:25Z</time>
      </trkpt>
      <trkpt lat="44.96299" lon="6.49455">
        <ele>1786.4</ele>
        <time>2024-08-11T09:44:26Z</time>
      </trkpt>
      <trkpt lat="44.96299" lon="6.49455">
        <ele>1786.4</ele>
        <time>2024-08-11T09:44:27Z</time>
      </trkpt>
      <trkpt lat="44.96297" lon="6.49456">
        <ele>1786.8</ele>
        <time>2024-08-11T09:44:28Z</time>
      </trkpt>
      <trkpt lat="44.96297" lon="6.49456">
        <ele>1787</ele>
        <time>2024-08-11T09:44:29Z</time>
      </trkpt>
      <trkpt lat="44.96295" lon="6.49455">
        <ele>1787</ele>
        <time>2024-08-11T09:44:30Z</time>
      </trkpt>
      <trkpt lat="44.96295" lon="6.49455">
        <ele>1787.4</ele>
        <time>2024-08-11T09:44:31Z</time>
      </trkpt>
      <trkpt lat="44.96294" lon="6.49453">
        <ele>1787.8</ele>
        <time>2024-08-11T09:44:32Z</time>
      </trkpt>
      <trkpt lat="44.96294" lon="6.49453">
        <ele>1787.8</ele>
        <time>2024-08-11T09:44:33Z</time>
      </trkpt>
      <trkpt lat="44.96292" lon="6.4945">
        <ele>1787.8</ele>
        <time>2024-08-11T09:44:34Z</time>
      </trkpt>
      <trkpt lat="44.96292" lon="6.4945">
        <ele>1787.8</ele>
        <time>2024-08-11T09:44:35Z</time>
      </trkpt>
      <trkpt lat="44.9629" lon="6.49448">
        <ele>1787.6</ele>
        <time>2024-08-11T09:44:36Z</time>
      </trkpt>
      <trkpt lat="44.9629" lon="6.49448">
        <ele>1787.6</ele>
        <time>2024-08-11T09:44:37Z</time>
      </trkpt>
      <trkpt lat="44.96288" lon="6.49446">
        <ele>1787.6</ele>
        <time>2024-08-11T09:44:38Z</time>
      </trkpt>
      <trkpt lat="44.96288" lon="6.49446">
        <ele>1787.2</ele>
        <time>2024-08-11T09:44:39Z</time>
      </trkpt>
      <trkpt lat="44.96286" lon="6.49443">
        <ele>1787.2</ele>
        <time>2024-08-11T09:44:40Z</time>
      </trkpt>
      <trkpt lat="44.96286" lon="6.49443">
        <ele>1787.2</ele>
        <time>2024-08-11T09:44:41Z</time>
      </trkpt>
      <trkpt lat="44.96284" lon="6.49441">
        <ele>1787.2</ele>
        <time>2024-08-11T09:44:42Z</time>
      </trkpt>
      <trkpt lat="44.96284" lon="6.49441">
        <ele>1787.2</ele>
        <time>2024-08-11T09:44:43Z</time>
      </trkpt>
      <trkpt lat="44.96283" lon="6.49439">
        <ele>1787.2</ele>
        <time>2024-08-11T09:44:44Z</time>
      </trkpt>
      <trkpt lat="44.96283" lon="6.49439">
        <ele>1787.2</ele>
        <time>2024-08-11T09:44:45Z</time>
      </trkpt>
      <trkpt lat="44.96281" lon="6.49437">
        <ele>1787.4</ele>
        <time>2024-08-11T09:44:46Z</time>
      </trkpt>
      <trkpt lat="44.96281" lon="6.49437">
        <ele>1787.4</ele>
        <time>2024-08-11T09:44:47Z</time>
      </trkpt>
      <trkpt lat="44.9628" lon="6.49434">
        <ele>1787.2</ele>
        <time>2024-08-11T09:44:48Z</time>
      </trkpt>
      <trkpt lat="44.9628" lon="6.49434">
        <ele>1787</ele>
        <time>2024-08-11T09:44:49Z</time>
      </trkpt>
      <trkpt lat="44.96278" lon="6.49432">
        <ele>1787</ele>
        <time>2024-08-11T09:44:50Z</time>
      </trkpt>
      <trkpt lat="44.96278" lon="6.49432">
        <ele>1787</ele>
        <time>2024-08-11T09:44:51Z</time>
      </trkpt>
      <trkpt lat="44.96276" lon="6.49432">
        <ele>1787.4</ele>
        <time>2024-08-11T09:44:52Z</time>
      </trkpt>
      <trkpt lat="44.96275" lon="6.49433">
        <ele>1787.6</ele>
        <time>2024-08-11T09:44:53Z</time>
      </trkpt>
      <trkpt lat="44.96273" lon="6.49433">
        <ele>1787.8</ele>
        <time>2024-08-11T09:44:54Z</time>
      </trkpt>
      <trkpt lat="44.96272" lon="6.49433">
        <ele>1787.8</ele>
        <time>2024-08-11T09:44:55Z</time>
      </trkpt>
      <trkpt lat="44.96272" lon="6.49433">
        <ele>1788.2</ele>
        <time>2024-08-11T09:44:56Z</time>
      </trkpt>
      <trkpt lat="44.9627" lon="6.49433">
        <ele>1788.2</ele>
        <time>2024-08-11T09:44:57Z</time>
      </trkpt>
      <trkpt lat="44.9627" lon="6.49433">
        <ele>1788.6</ele>
        <time>2024-08-11T09:44:58Z</time>
      </trkpt>
      <trkpt lat="44.96267" lon="6.49434">
        <ele>1788.6</ele>
        <time>2024-08-11T09:44:59Z</time>
      </trkpt>
      <trkpt lat="44.96267" lon="6.49434">
        <ele>1788.4</ele>
        <time>2024-08-11T09:45:00Z</time>
      </trkpt>
      <trkpt lat="44.96264" lon="6.49434">
        <ele>1788</ele>
        <time>2024-08-11T09:45:01Z</time>
      </trkpt>
      <trkpt lat="44.96264" lon="6.49434">
        <ele>1787.8</ele>
        <time>2024-08-11T09:45:02Z</time>
      </trkpt>
      <trkpt lat="44.96262" lon="6.49434">
        <ele>1788</ele>
        <time>2024-08-11T09:45:03Z</time>
      </trkpt>
      <trkpt lat="44.96262" lon="6.49434">
        <ele>1787.8</ele>
        <time>2024-08-11T09:45:04Z</time>
      </trkpt>
      <trkpt lat="44.9626" lon="6.49433">
        <ele>1787.8</ele>
        <time>2024-08-11T09:45:05Z</time>
      </trkpt>
      <trkpt lat="44.9626" lon="6.49433">
        <ele>1788</ele>
        <time>2024-08-11T09:45:06Z</time>
      </trkpt>
      <trkpt lat="44.96258" lon="6.49433">
        <ele>1788</ele>
        <time>2024-08-11T09:45:07Z</time>
      </trkpt>
      <trkpt lat="44.96258" lon="6.49433">
        <ele>1787.6</ele>
        <time>2024-08-11T09:45:08Z</time>
      </trkpt>
      <trkpt lat="44.96255" lon="6.49432">
        <ele>1787.6</ele>
        <time>2024-08-11T09:45:09Z</time>
      </trkpt>
      <trkpt lat="44.96255" lon="6.49432">
        <ele>1787.4</ele>
        <time>2024-08-11T09:45:10Z</time>
      </trkpt>
      <trkpt lat="44.96253" lon="6.49431">
        <ele>1787.4</ele>
        <time>2024-08-11T09:45:11Z</time>
      </trkpt>
      <trkpt lat="44.96253" lon="6.49431">
        <ele>1787.2</ele>
        <time>2024-08-11T09:45:12Z</time>
      </trkpt>
      <trkpt lat="44.96251" lon="6.4943">
        <ele>1787.2</ele>
        <time>2024-08-11T09:45:13Z</time>
      </trkpt>
      <trkpt lat="44.96251" lon="6.4943">
        <ele>1787</ele>
        <time>2024-08-11T09:45:14Z</time>
      </trkpt>
      <trkpt lat="44.96249" lon="6.49428">
        <ele>1787</ele>
        <time>2024-08-11T09:45:15Z</time>
      </trkpt>
      <trkpt lat="44.96249" lon="6.49428">
        <ele>1786.8</ele>
        <time>2024-08-11T09:45:16Z</time>
      </trkpt>
      <trkpt lat="44.96246" lon="6.49427">
        <ele>1786.8</ele>
        <time>2024-08-11T09:45:17Z</time>
      </trkpt>
      <trkpt lat="44.96246" lon="6.49427">
        <ele>1786.8</ele>
        <time>2024-08-11T09:45:18Z</time>
      </trkpt>
      <trkpt lat="44.96246" lon="6.49427">
        <ele>1786.8</ele>
        <time>2024-08-11T09:45:19Z</time>
      </trkpt>
      <trkpt lat="44.96244" lon="6.49426">
        <ele>1787.4</ele>
        <time>2024-08-11T09:45:20Z</time>
      </trkpt>
      <trkpt lat="44.96244" lon="6.49426">
        <ele>1787.6</ele>
        <time>2024-08-11T09:45:21Z</time>
      </trkpt>
      <trkpt lat="44.96244" lon="6.49426">
        <ele>1787.6</ele>
        <time>2024-08-11T09:45:22Z</time>
      </trkpt>
      <trkpt lat="44.96241" lon="6.49424">
        <ele>1788</ele>
        <time>2024-08-11T09:45:23Z</time>
      </trkpt>
      <trkpt lat="44.96241" lon="6.49424">
        <ele>1788</ele>
        <time>2024-08-11T09:45:24Z</time>
      </trkpt>
      <trkpt lat="44.96239" lon="6.49423">
        <ele>1788.2</ele>
        <time>2024-08-11T09:45:25Z</time>
      </trkpt>
      <trkpt lat="44.96239" lon="6.49423">
        <ele>1788.2</ele>
        <time>2024-08-11T09:45:26Z</time>
      </trkpt>
      <trkpt lat="44.96237" lon="6.49422">
        <ele>1788.4</ele>
        <time>2024-08-11T09:45:27Z</time>
      </trkpt>
      <trkpt lat="44.96237" lon="6.49422">
        <ele>1788.6</ele>
        <time>2024-08-11T09:45:28Z</time>
      </trkpt>
      <trkpt lat="44.96237" lon="6.49422">
        <ele>1789</ele>
        <time>2024-08-11T09:45:29Z</time>
      </trkpt>
      <trkpt lat="44.96236" lon="6.4942">
        <ele>1789</ele>
        <time>2024-08-11T09:45:30Z</time>
      </trkpt>
      <trkpt lat="44.96236" lon="6.4942">
        <ele>1789.2</ele>
        <time>2024-08-11T09:45:31Z</time>
      </trkpt>
      <trkpt lat="44.96234" lon="6.49418">
        <ele>1789.4</ele>
        <time>2024-08-11T09:45:32Z</time>
      </trkpt>
      <trkpt lat="44.96234" lon="6.49418">
        <ele>1789.6</ele>
        <time>2024-08-11T09:45:33Z</time>
      </trkpt>
      <trkpt lat="44.96232" lon="6.49416">
        <ele>1789.6</ele>
        <time>2024-08-11T09:45:34Z</time>
      </trkpt>
      <trkpt lat="44.96232" lon="6.49416">
        <ele>1789.6</ele>
        <time>2024-08-11T09:45:35Z</time>
      </trkpt>
      <trkpt lat="44.9623" lon="6.49413">
        <ele>1789.6</ele>
        <time>2024-08-11T09:45:36Z</time>
      </trkpt>
      <trkpt lat="44.9623" lon="6.49413">
        <ele>1789.6</ele>
        <time>2024-08-11T09:45:37Z</time>
      </trkpt>
      <trkpt lat="44.9623" lon="6.49413">
        <ele>1789.8</ele>
        <time>2024-08-11T09:45:38Z</time>
      </trkpt>
      <trkpt lat="44.96229" lon="6.49412">
        <ele>1790.2</ele>
        <time>2024-08-11T09:45:39Z</time>
      </trkpt>
      <trkpt lat="44.96229" lon="6.49412">
        <ele>1790.2</ele>
        <time>2024-08-11T09:45:40Z</time>
      </trkpt>
      <trkpt lat="44.96229" lon="6.49412">
        <ele>1790.4</ele>
        <time>2024-08-11T09:45:41Z</time>
      </trkpt>
      <trkpt lat="44.96229" lon="6.49412">
        <ele>1791</ele>
        <time>2024-08-11T09:45:42Z</time>
      </trkpt>
      <trkpt lat="44.96229" lon="6.49412">
        <ele>1791.2</ele>
        <time>2024-08-11T09:45:43Z</time>
      </trkpt>
      <trkpt lat="44.96229" lon="6.49412">
        <ele>1791.4</ele>
        <time>2024-08-11T09:45:44Z</time>
      </trkpt>
      <trkpt lat="44.96227" lon="6.4941">
        <ele>1791.6</ele>
        <time>2024-08-11T09:45:45Z</time>
      </trkpt>
      <trkpt lat="44.96227" lon="6.4941">
        <ele>1791.8</ele>
        <time>2024-08-11T09:45:46Z</time>
      </trkpt>
      <trkpt lat="44.96225" lon="6.49407">
        <ele>1791.8</ele>
        <time>2024-08-11T09:45:47Z</time>
      </trkpt>
      <trkpt lat="44.96225" lon="6.49407">
        <ele>1791.8</ele>
        <time>2024-08-11T09:45:48Z</time>
      </trkpt>
      <trkpt lat="44.96223" lon="6.49405">
        <ele>1791.8</ele>
        <time>2024-08-11T09:45:49Z</time>
      </trkpt>
      <trkpt lat="44.96223" lon="6.49405">
        <ele>1791.8</ele>
        <time>2024-08-11T09:45:50Z</time>
      </trkpt>
      <trkpt lat="44.96221" lon="6.49401">
        <ele>1792</ele>
        <time>2024-08-11T09:45:51Z</time>
      </trkpt>
      <trkpt lat="44.96221" lon="6.49401">
        <ele>1792</ele>
        <time>2024-08-11T09:45:52Z</time>
      </trkpt>
      <trkpt lat="44.96219" lon="6.49399">
        <ele>1792.2</ele>
        <time>2024-08-11T09:45:53Z</time>
      </trkpt>
      <trkpt lat="44.96219" lon="6.49399">
        <ele>1792.4</ele>
        <time>2024-08-11T09:45:54Z</time>
      </trkpt>
      <trkpt lat="44.96219" lon="6.49399">
        <ele>1792.4</ele>
        <time>2024-08-11T09:45:55Z</time>
      </trkpt>
      <trkpt lat="44.96218" lon="6.49396">
        <ele>1792.2</ele>
        <time>2024-08-11T09:45:56Z</time>
      </trkpt>
      <trkpt lat="44.96218" lon="6.49396">
        <ele>1792</ele>
        <time>2024-08-11T09:45:57Z</time>
      </trkpt>
      <trkpt lat="44.96217" lon="6.49392">
        <ele>1791.8</ele>
        <time>2024-08-11T09:45:58Z</time>
      </trkpt>
      <trkpt lat="44.96217" lon="6.49392">
        <ele>1791.6</ele>
        <time>2024-08-11T09:45:59Z</time>
      </trkpt>
      <trkpt lat="44.96215" lon="6.49389">
        <ele>1791.6</ele>
        <time>2024-08-11T09:46:00Z</time>
      </trkpt>
      <trkpt lat="44.96215" lon="6.49389">
        <ele>1791.6</ele>
        <time>2024-08-11T09:46:01Z</time>
      </trkpt>
      <trkpt lat="44.96213" lon="6.49387">
        <ele>1791.6</ele>
        <time>2024-08-11T09:46:02Z</time>
      </trkpt>
      <trkpt lat="44.96213" lon="6.49387">
        <ele>1791.6</ele>
        <time>2024-08-11T09:46:03Z</time>
      </trkpt>
      <trkpt lat="44.96211" lon="6.49385">
        <ele>1791.6</ele>
        <time>2024-08-11T09:46:04Z</time>
      </trkpt>
      <trkpt lat="44.96211" lon="6.49385">
        <ele>1791.8</ele>
        <time>2024-08-11T09:46:05Z</time>
      </trkpt>
      <trkpt lat="44.96211" lon="6.49385">
        <ele>1791.8</ele>
        <time>2024-08-11T09:46:06Z</time>
      </trkpt>
      <trkpt lat="44.96208" lon="6.49384">
        <ele>1791.8</ele>
        <time>2024-08-11T09:46:07Z</time>
      </trkpt>
      <trkpt lat="44.96206" lon="6.49384">
        <ele>1791.8</ele>
        <time>2024-08-11T09:46:08Z</time>
      </trkpt>
      <trkpt lat="44.96206" lon="6.49384">
        <ele>1791.8</ele>
        <time>2024-08-11T09:46:09Z</time>
      </trkpt>
      <trkpt lat="44.96205" lon="6.49381">
        <ele>1791.8</ele>
        <time>2024-08-11T09:46:10Z</time>
      </trkpt>
      <trkpt lat="44.96205" lon="6.49381">
        <ele>1792</ele>
        <time>2024-08-11T09:46:11Z</time>
      </trkpt>
      <trkpt lat="44.96203" lon="6.4938">
        <ele>1792.4</ele>
        <time>2024-08-11T09:46:12Z</time>
      </trkpt>
      <trkpt lat="44.96203" lon="6.4938">
        <ele>1792.6</ele>
        <time>2024-08-11T09:46:13Z</time>
      </trkpt>
      <trkpt lat="44.96201" lon="6.49378">
        <ele>1792.8</ele>
        <time>2024-08-11T09:46:14Z</time>
      </trkpt>
      <trkpt lat="44.96201" lon="6.49378">
        <ele>1793</ele>
        <time>2024-08-11T09:46:15Z</time>
      </trkpt>
      <trkpt lat="44.96201" lon="6.49378">
        <ele>1793.2</ele>
        <time>2024-08-11T09:46:16Z</time>
      </trkpt>
      <trkpt lat="44.96199" lon="6.49376">
        <ele>1793.6</ele>
        <time>2024-08-11T09:46:17Z</time>
      </trkpt>
      <trkpt lat="44.96199" lon="6.49376">
        <ele>1793.8</ele>
        <time>2024-08-11T09:46:18Z</time>
      </trkpt>
      <trkpt lat="44.96197" lon="6.49374">
        <ele>1794.2</ele>
        <time>2024-08-11T09:46:19Z</time>
      </trkpt>
      <trkpt lat="44.96197" lon="6.49374">
        <ele>1794.2</ele>
        <time>2024-08-11T09:46:20Z</time>
      </trkpt>
      <trkpt lat="44.96195" lon="6.49373">
        <ele>1794.2</ele>
        <time>2024-08-11T09:46:21Z</time>
      </trkpt>
      <trkpt lat="44.96195" lon="6.49373">
        <ele>1794.2</ele>
        <time>2024-08-11T09:46:22Z</time>
      </trkpt>
      <trkpt lat="44.96193" lon="6.49373">
        <ele>1794.2</ele>
        <time>2024-08-11T09:46:23Z</time>
      </trkpt>
      <trkpt lat="44.96193" lon="6.49373">
        <ele>1794.2</ele>
        <time>2024-08-11T09:46:24Z</time>
      </trkpt>
      <trkpt lat="44.96191" lon="6.49371">
        <ele>1794.2</ele>
        <time>2024-08-11T09:46:25Z</time>
      </trkpt>
      <trkpt lat="44.96191" lon="6.49371">
        <ele>1794.6</ele>
        <time>2024-08-11T09:46:26Z</time>
      </trkpt>
      <trkpt lat="44.96189" lon="6.49368">
        <ele>1794.4</ele>
        <time>2024-08-11T09:46:27Z</time>
      </trkpt>
      <trkpt lat="44.96189" lon="6.49368">
        <ele>1794.6</ele>
        <time>2024-08-11T09:46:28Z</time>
      </trkpt>
      <trkpt lat="44.96187" lon="6.49367">
        <ele>1794.6</ele>
        <time>2024-08-11T09:46:29Z</time>
      </trkpt>
      <trkpt lat="44.96187" lon="6.49367">
        <ele>1794.8</ele>
        <time>2024-08-11T09:46:30Z</time>
      </trkpt>
      <trkpt lat="44.96185" lon="6.49366">
        <ele>1794.8</ele>
        <time>2024-08-11T09:46:31Z</time>
      </trkpt>
      <trkpt lat="44.96185" lon="6.49366">
        <ele>1794.8</ele>
        <time>2024-08-11T09:46:32Z</time>
      </trkpt>
      <trkpt lat="44.96183" lon="6.49364">
        <ele>1794.8</ele>
        <time>2024-08-11T09:46:33Z</time>
      </trkpt>
      <trkpt lat="44.96183" lon="6.49364">
        <ele>1794.6</ele>
        <time>2024-08-11T09:46:34Z</time>
      </trkpt>
      <trkpt lat="44.96181" lon="6.49363">
        <ele>1794.6</ele>
        <time>2024-08-11T09:46:35Z</time>
      </trkpt>
      <trkpt lat="44.96181" lon="6.49363">
        <ele>1794.6</ele>
        <time>2024-08-11T09:46:36Z</time>
      </trkpt>
      <trkpt lat="44.96179" lon="6.49362">
        <ele>1794.6</ele>
        <time>2024-08-11T09:46:37Z</time>
      </trkpt>
      <trkpt lat="44.96179" lon="6.49362">
        <ele>1794.6</ele>
        <time>2024-08-11T09:46:38Z</time>
      </trkpt>
      <trkpt lat="44.96176" lon="6.49362">
        <ele>1794.4</ele>
        <time>2024-08-11T09:46:39Z</time>
      </trkpt>
      <trkpt lat="44.96176" lon="6.49362">
        <ele>1794.4</ele>
        <time>2024-08-11T09:46:40Z</time>
      </trkpt>
      <trkpt lat="44.96173" lon="6.49361">
        <ele>1794.4</ele>
        <time>2024-08-11T09:46:41Z</time>
      </trkpt>
      <trkpt lat="44.96173" lon="6.49361">
        <ele>1794.4</ele>
        <time>2024-08-11T09:46:42Z</time>
      </trkpt>
      <trkpt lat="44.96171" lon="6.49362">
        <ele>1794.4</ele>
        <time>2024-08-11T09:46:43Z</time>
      </trkpt>
      <trkpt lat="44.96169" lon="6.49363">
        <ele>1794.6</ele>
        <time>2024-08-11T09:46:44Z</time>
      </trkpt>
      <trkpt lat="44.96169" lon="6.49363">
        <ele>1794.6</ele>
        <time>2024-08-11T09:46:45Z</time>
      </trkpt>
      <trkpt lat="44.96166" lon="6.49364">
        <ele>1794.6</ele>
        <time>2024-08-11T09:46:46Z</time>
      </trkpt>
      <trkpt lat="44.96166" lon="6.49364">
        <ele>1794.6</ele>
        <time>2024-08-11T09:46:47Z</time>
      </trkpt>
      <trkpt lat="44.96164" lon="6.49364">
        <ele>1794.4</ele>
        <time>2024-08-11T09:46:48Z</time>
      </trkpt>
      <trkpt lat="44.96164" lon="6.49364">
        <ele>1794.4</ele>
        <time>2024-08-11T09:46:49Z</time>
      </trkpt>
      <trkpt lat="44.96161" lon="6.49364">
        <ele>1794.6</ele>
        <time>2024-08-11T09:46:50Z</time>
      </trkpt>
      <trkpt lat="44.9616" lon="6.49362">
        <ele>1794.8</ele>
        <time>2024-08-11T09:46:51Z</time>
      </trkpt>
      <trkpt lat="44.9616" lon="6.49362">
        <ele>1794.8</ele>
        <time>2024-08-11T09:46:52Z</time>
      </trkpt>
      <trkpt lat="44.96157" lon="6.49361">
        <ele>1794.8</ele>
        <time>2024-08-11T09:46:53Z</time>
      </trkpt>
      <trkpt lat="44.96157" lon="6.49361">
        <ele>1795</ele>
        <time>2024-08-11T09:46:54Z</time>
      </trkpt>
      <trkpt lat="44.96155" lon="6.49362">
        <ele>1795</ele>
        <time>2024-08-11T09:46:55Z</time>
      </trkpt>
      <trkpt lat="44.96155" lon="6.49362">
        <ele>1795.4</ele>
        <time>2024-08-11T09:46:56Z</time>
      </trkpt>
      <trkpt lat="44.96153" lon="6.49359">
        <ele>1795.4</ele>
        <time>2024-08-11T09:46:57Z</time>
      </trkpt>
      <trkpt lat="44.96153" lon="6.49359">
        <ele>1795.6</ele>
        <time>2024-08-11T09:46:58Z</time>
      </trkpt>
      <trkpt lat="44.96153" lon="6.49359">
        <ele>1795.6</ele>
        <time>2024-08-11T09:46:59Z</time>
      </trkpt>
      <trkpt lat="44.96151" lon="6.49358">
        <ele>1795.6</ele>
        <time>2024-08-11T09:47:00Z</time>
      </trkpt>
      <trkpt lat="44.96151" lon="6.49358">
        <ele>1795.6</ele>
        <time>2024-08-11T09:47:01Z</time>
      </trkpt>
      <trkpt lat="44.96151" lon="6.49358">
        <ele>1795.8</ele>
        <time>2024-08-11T09:47:02Z</time>
      </trkpt>
      <trkpt lat="44.96148" lon="6.49358">
        <ele>1795.8</ele>
        <time>2024-08-11T09:47:03Z</time>
      </trkpt>
      <trkpt lat="44.96146" lon="6.49359">
        <ele>1796</ele>
        <time>2024-08-11T09:47:04Z</time>
      </trkpt>
      <trkpt lat="44.96146" lon="6.49359">
        <ele>1796</ele>
        <time>2024-08-11T09:47:05Z</time>
      </trkpt>
      <trkpt lat="44.96143" lon="6.49359">
        <ele>1796.2</ele>
        <time>2024-08-11T09:47:06Z</time>
      </trkpt>
      <trkpt lat="44.96143" lon="6.49359">
        <ele>1796.4</ele>
        <time>2024-08-11T09:47:07Z</time>
      </trkpt>
      <trkpt lat="44.9614" lon="6.4936">
        <ele>1796.4</ele>
        <time>2024-08-11T09:47:08Z</time>
      </trkpt>
      <trkpt lat="44.9614" lon="6.4936">
        <ele>1796.4</ele>
        <time>2024-08-11T09:47:09Z</time>
      </trkpt>
      <trkpt lat="44.96138" lon="6.4936">
        <ele>1796.6</ele>
        <time>2024-08-11T09:47:10Z</time>
      </trkpt>
      <trkpt lat="44.96138" lon="6.4936">
        <ele>1796.6</ele>
        <time>2024-08-11T09:47:11Z</time>
      </trkpt>
      <trkpt lat="44.96138" lon="6.4936">
        <ele>1797</ele>
        <time>2024-08-11T09:47:12Z</time>
      </trkpt>
      <trkpt lat="44.96138" lon="6.4936">
        <ele>1797.2</ele>
        <time>2024-08-11T09:47:13Z</time>
      </trkpt>
      <trkpt lat="44.96138" lon="6.4936">
        <ele>1797.8</ele>
        <time>2024-08-11T09:47:14Z</time>
      </trkpt>
      <trkpt lat="44.96136" lon="6.4936">
        <ele>1797.8</ele>
        <time>2024-08-11T09:47:15Z</time>
      </trkpt>
      <trkpt lat="44.96136" lon="6.4936">
        <ele>1797.6</ele>
        <time>2024-08-11T09:47:16Z</time>
      </trkpt>
      <trkpt lat="44.96136" lon="6.4936">
        <ele>1797.6</ele>
        <time>2024-08-11T09:47:17Z</time>
      </trkpt>
      <trkpt lat="44.96136" lon="6.4936">
        <ele>1797.8</ele>
        <time>2024-08-11T09:47:18Z</time>
      </trkpt>
      <trkpt lat="44.96136" lon="6.4936">
        <ele>1798</ele>
        <time>2024-08-11T09:47:19Z</time>
      </trkpt>
      <trkpt lat="44.96136" lon="6.49358">
        <ele>1798</ele>
        <time>2024-08-11T09:47:20Z</time>
      </trkpt>
      <trkpt lat="44.96136" lon="6.49358">
        <ele>1798</ele>
        <time>2024-08-11T09:47:21Z</time>
      </trkpt>
      <trkpt lat="44.96138" lon="6.49356">
        <ele>1798</ele>
        <time>2024-08-11T09:47:22Z</time>
      </trkpt>
      <trkpt lat="44.96138" lon="6.49356">
        <ele>1797.8</ele>
        <time>2024-08-11T09:47:23Z</time>
      </trkpt>
      <trkpt lat="44.96138" lon="6.49356">
        <ele>1797.8</ele>
        <time>2024-08-11T09:47:24Z</time>
      </trkpt>
      <trkpt lat="44.96138" lon="6.49356">
        <ele>1797.8</ele>
        <time>2024-08-11T09:47:25Z</time>
      </trkpt>
      <trkpt lat="44.96138" lon="6.49356">
        <ele>1797.6</ele>
        <time>2024-08-11T09:47:26Z</time>
      </trkpt>
      <trkpt lat="44.96138" lon="6.49356">
        <ele>1797.6</ele>
        <time>2024-08-11T09:47:27Z</time>
      </trkpt>
      <trkpt lat="44.96138" lon="6.49356">
        <ele>1797.4</ele>
        <time>2024-08-11T09:47:28Z</time>
      </trkpt>
      <trkpt lat="44.96138" lon="6.49356">
        <ele>1797.4</ele>
        <time>2024-08-11T09:47:29Z</time>
      </trkpt>
      <trkpt lat="44.96138" lon="6.49356">
        <ele>1797.8</ele>
        <time>2024-08-11T09:47:30Z</time>
      </trkpt>
      <trkpt lat="44.96138" lon="6.49356">
        <ele>1798</ele>
        <time>2024-08-11T09:47:31Z</time>
      </trkpt>
      <trkpt lat="44.96138" lon="6.49356">
        <ele>1797.8</ele>
        <time>2024-08-11T09:47:32Z</time>
      </trkpt>
      <trkpt lat="44.96138" lon="6.49356">
        <ele>1797.8</ele>
        <time>2024-08-11T09:47:33Z</time>
      </trkpt>
      <trkpt lat="44.96138" lon="6.49356">
        <ele>1797.8</ele>
        <time>2024-08-11T09:47:34Z</time>
      </trkpt>
      <trkpt lat="44.96138" lon="6.49356">
        <ele>1797.6</ele>
        <time>2024-08-11T09:47:35Z</time>
      </trkpt>
      <trkpt lat="44.96138" lon="6.49356">
        <ele>1797.4</ele>
        <time>2024-08-11T09:47:36Z</time>
      </trkpt>
      <trkpt lat="44.96138" lon="6.49356">
        <ele>1797.4</ele>
        <time>2024-08-11T09:47:37Z</time>
      </trkpt>
      <trkpt lat="44.96138" lon="6.49356">
        <ele>1797.6</ele>
        <time>2024-08-11T09:47:38Z</time>
      </trkpt>
      <trkpt lat="44.96138" lon="6.49356">
        <ele>1797.6</ele>
        <time>2024-08-11T09:47:39Z</time>
      </trkpt>
      <trkpt lat="44.96138" lon="6.49356">
        <ele>1797.8</ele>
        <time>2024-08-11T09:47:40Z</time>
      </trkpt>
      <trkpt lat="44.96138" lon="6.49356">
        <ele>1797.6</ele>
        <time>2024-08-11T09:47:41Z</time>
      </trkpt>
      <trkpt lat="44.96138" lon="6.49356">
        <ele>1797.6</ele>
        <time>2024-08-11T09:47:42Z</time>
      </trkpt>
      <trkpt lat="44.96138" lon="6.49356">
        <ele>1797.6</ele>
        <time>2024-08-11T09:47:43Z</time>
      </trkpt>
      <trkpt lat="44.96138" lon="6.49353">
        <ele>1797.4</ele>
        <time>2024-08-11T09:47:44Z</time>
      </trkpt>
      <trkpt lat="44.96138" lon="6.49353">
        <ele>1796.8</ele>
        <time>2024-08-11T09:47:45Z</time>
      </trkpt>
      <trkpt lat="44.96136" lon="6.4935">
        <ele>1796.4</ele>
        <time>2024-08-11T09:47:46Z</time>
      </trkpt>
      <trkpt lat="44.96136" lon="6.4935">
        <ele>1796.2</ele>
        <time>2024-08-11T09:47:47Z</time>
      </trkpt>
      <trkpt lat="44.96134" lon="6.49347">
        <ele>1796.2</ele>
        <time>2024-08-11T09:47:48Z</time>
      </trkpt>
      <trkpt lat="44.96134" lon="6.49347">
        <ele>1796</ele>
        <time>2024-08-11T09:47:49Z</time>
      </trkpt>
      <trkpt lat="44.96133" lon="6.49345">
        <ele>1795.6</ele>
        <time>2024-08-11T09:47:50Z</time>
      </trkpt>
      <trkpt lat="44.96133" lon="6.49345">
        <ele>1795.6</ele>
        <time>2024-08-11T09:47:51Z</time>
      </trkpt>
      <trkpt lat="44.96133" lon="6.49345">
        <ele>1795.6</ele>
        <time>2024-08-11T09:47:52Z</time>
      </trkpt>
      <trkpt lat="44.96133" lon="6.49345">
        <ele>1795.4</ele>
        <time>2024-08-11T09:47:53Z</time>
      </trkpt>
      <trkpt lat="44.96132" lon="6.49342">
        <ele>1795.4</ele>
        <time>2024-08-11T09:47:54Z</time>
      </trkpt>
      <trkpt lat="44.96132" lon="6.49342">
        <ele>1795.4</ele>
        <time>2024-08-11T09:47:55Z</time>
      </trkpt>
      <trkpt lat="44.96132" lon="6.49342">
        <ele>1795.6</ele>
        <time>2024-08-11T09:47:56Z</time>
      </trkpt>
      <trkpt lat="44.96132" lon="6.49342">
        <ele>1795.8</ele>
        <time>2024-08-11T09:47:57Z</time>
      </trkpt>
      <trkpt lat="44.96132" lon="6.49342">
        <ele>1795.8</ele>
        <time>2024-08-11T09:47:58Z</time>
      </trkpt>
      <trkpt lat="44.96132" lon="6.49342">
        <ele>1795.6</ele>
        <time>2024-08-11T09:47:59Z</time>
      </trkpt>
      <trkpt lat="44.96133" lon="6.4934">
        <ele>1795.2</ele>
        <time>2024-08-11T09:48:00Z</time>
      </trkpt>
      <trkpt lat="44.96133" lon="6.4934">
        <ele>1795.2</ele>
        <time>2024-08-11T09:48:01Z</time>
      </trkpt>
      <trkpt lat="44.96133" lon="6.4934">
        <ele>1795.4</ele>
        <time>2024-08-11T09:48:02Z</time>
      </trkpt>
      <trkpt lat="44.96133" lon="6.4934">
        <ele>1795.4</ele>
        <time>2024-08-11T09:48:03Z</time>
      </trkpt>
      <trkpt lat="44.96133" lon="6.4934">
        <ele>1795.4</ele>
        <time>2024-08-11T09:48:04Z</time>
      </trkpt>
      <trkpt lat="44.96133" lon="6.4934">
        <ele>1795.2</ele>
        <time>2024-08-11T09:48:05Z</time>
      </trkpt>
      <trkpt lat="44.96133" lon="6.4934">
        <ele>1795.2</ele>
        <time>2024-08-11T09:48:06Z</time>
      </trkpt>
      <trkpt lat="44.96133" lon="6.4934">
        <ele>1795.2</ele>
        <time>2024-08-11T09:48:07Z</time>
      </trkpt>
      <trkpt lat="44.96133" lon="6.4934">
        <ele>1795.4</ele>
        <time>2024-08-11T09:48:08Z</time>
      </trkpt>
      <trkpt lat="44.96133" lon="6.4934">
        <ele>1795.4</ele>
        <time>2024-08-11T09:48:09Z</time>
      </trkpt>
      <trkpt lat="44.96133" lon="6.4934">
        <ele>1795.4</ele>
        <time>2024-08-11T09:48:10Z</time>
      </trkpt>
      <trkpt lat="44.96133" lon="6.4934">
        <ele>1795.4</ele>
        <time>2024-08-11T09:48:11Z</time>
      </trkpt>
      <trkpt lat="44.96133" lon="6.4934">
        <ele>1795.4</ele>
        <time>2024-08-11T09:48:12Z</time>
      </trkpt>
      <trkpt lat="44.96133" lon="6.4934">
        <ele>1795.4</ele>
        <time>2024-08-11T09:48:13Z</time>
      </trkpt>
      <trkpt lat="44.96133" lon="6.4934">
        <ele>1795.4</ele>
        <time>2024-08-11T09:48:14Z</time>
      </trkpt>
      <trkpt lat="44.96133" lon="6.4934">
        <ele>1795.2</ele>
        <time>2024-08-11T09:48:15Z</time>
      </trkpt>
      <trkpt lat="44.96133" lon="6.4934">
        <ele>1795.4</ele>
        <time>2024-08-11T09:48:16Z</time>
      </trkpt>
      <trkpt lat="44.96133" lon="6.4934">
        <ele>1795.4</ele>
        <time>2024-08-11T09:48:17Z</time>
      </trkpt>
      <trkpt lat="44.96133" lon="6.4934">
        <ele>1795.4</ele>
        <time>2024-08-11T09:48:18Z</time>
      </trkpt>
      <trkpt lat="44.96133" lon="6.4934">
        <ele>1795.4</ele>
        <time>2024-08-11T09:48:19Z</time>
      </trkpt>
      <trkpt lat="44.96133" lon="6.4934">
        <ele>1795.6</ele>
        <time>2024-08-11T09:48:20Z</time>
      </trkpt>
      <trkpt lat="44.96133" lon="6.4934">
        <ele>1795.6</ele>
        <time>2024-08-11T09:48:21Z</time>
      </trkpt>
      <trkpt lat="44.96133" lon="6.4934">
        <ele>1795.4</ele>
        <time>2024-08-11T09:48:22Z</time>
      </trkpt>
      <trkpt lat="44.96133" lon="6.4934">
        <ele>1795.4</ele>
        <time>2024-08-11T09:48:23Z</time>
      </trkpt>
      <trkpt lat="44.96133" lon="6.4934">
        <ele>1795.6</ele>
        <time>2024-08-11T09:48:24Z</time>
      </trkpt>
      <trkpt lat="44.96133" lon="6.4934">
        <ele>1795.6</ele>
        <time>2024-08-11T09:48:25Z</time>
      </trkpt>
      <trkpt lat="44.96133" lon="6.4934">
        <ele>1795.4</ele>
        <time>2024-08-11T09:48:26Z</time>
      </trkpt>
      <trkpt lat="44.96133" lon="6.4934">
        <ele>1795.4</ele>
        <time>2024-08-11T09:48:27Z</time>
      </trkpt>
      <trkpt lat="44.96133" lon="6.4934">
        <ele>1795.4</ele>
        <time>2024-08-11T09:48:28Z</time>
      </trkpt>
      <trkpt lat="44.96133" lon="6.4934">
        <ele>1795.4</ele>
        <time>2024-08-11T09:48:29Z</time>
      </trkpt>
      <trkpt lat="44.96133" lon="6.4934">
        <ele>1795.4</ele>
        <time>2024-08-11T09:48:30Z</time>
      </trkpt>
      <trkpt lat="44.96133" lon="6.4934">
        <ele>1795.4</ele>
        <time>2024-08-11T09:48:31Z</time>
      </trkpt>
      <trkpt lat="44.96133" lon="6.4934">
        <ele>1795.4</ele>
        <time>2024-08-11T09:48:32Z</time>
      </trkpt>
      <trkpt lat="44.96133" lon="6.4934">
        <ele>1795.4</ele>
        <time>2024-08-11T09:48:33Z</time>
      </trkpt>
      <trkpt lat="44.96133" lon="6.4934">
        <ele>1795.4</ele>
        <time>2024-08-11T09:48:34Z</time>
      </trkpt>
      <trkpt lat="44.96133" lon="6.4934">
        <ele>1795.4</ele>
        <time>2024-08-11T09:48:35Z</time>
      </trkpt>
      <trkpt lat="44.96133" lon="6.4934">
        <ele>1795.4</ele>
        <time>2024-08-11T09:48:36Z</time>
      </trkpt>
      <trkpt lat="44.96133" lon="6.4934">
        <ele>1795.6</ele>
        <time>2024-08-11T09:48:37Z</time>
      </trkpt>
      <trkpt lat="44.96133" lon="6.4934">
        <ele>1795.8</ele>
        <time>2024-08-11T09:48:38Z</time>
      </trkpt>
      <trkpt lat="44.96133" lon="6.4934">
        <ele>1795.8</ele>
        <time>2024-08-11T09:48:39Z</time>
      </trkpt>
      <trkpt lat="44.96133" lon="6.4934">
        <ele>1795.8</ele>
        <time>2024-08-11T09:48:40Z</time>
      </trkpt>
      <trkpt lat="44.96133" lon="6.4934">
        <ele>1795.6</ele>
        <time>2024-08-11T09:48:41Z</time>
      </trkpt>
      <trkpt lat="44.96133" lon="6.4934">
        <ele>1795.6</ele>
        <time>2024-08-11T09:48:42Z</time>
      </trkpt>
      <trkpt lat="44.96133" lon="6.4934">
        <ele>1795.6</ele>
        <time>2024-08-11T09:48:43Z</time>
      </trkpt>
      <trkpt lat="44.96133" lon="6.4934">
        <ele>1795.6</ele>
        <time>2024-08-11T09:48:44Z</time>
      </trkpt>
      <trkpt lat="44.96133" lon="6.4934">
        <ele>1795.6</ele>
        <time>2024-08-11T09:48:45Z</time>
      </trkpt>
      <trkpt lat="44.96133" lon="6.4934">
        <ele>1795.6</ele>
        <time>2024-08-11T09:48:46Z</time>
      </trkpt>
      <trkpt lat="44.96133" lon="6.4934">
        <ele>1795.6</ele>
        <time>2024-08-11T09:48:47Z</time>
      </trkpt>
      <trkpt lat="44.96133" lon="6.4934">
        <ele>1795.6</ele>
        <time>2024-08-11T09:48:48Z</time>
      </trkpt>
      <trkpt lat="44.96133" lon="6.4934">
        <ele>1795.6</ele>
        <time>2024-08-11T09:48:49Z</time>
      </trkpt>
      <trkpt lat="44.96133" lon="6.4934">
        <ele>1795.6</ele>
        <time>2024-08-11T09:48:50Z</time>
      </trkpt>
      <trkpt lat="44.96133" lon="6.4934">
        <ele>1795.6</ele>
        <time>2024-08-11T09:48:51Z</time>
      </trkpt>
      <trkpt lat="44.96133" lon="6.4934">
        <ele>1795.6</ele>
        <time>2024-08-11T09:48:52Z</time>
      </trkpt>
      <trkpt lat="44.96133" lon="6.4934">
        <ele>1795.8</ele>
        <time>2024-08-11T09:48:53Z</time>
      </trkpt>
      <trkpt lat="44.96133" lon="6.4934">
        <ele>1795.8</ele>
        <time>2024-08-11T09:48:54Z</time>
      </trkpt>
      <trkpt lat="44.96133" lon="6.4934">
        <ele>1796</ele>
        <time>2024-08-11T09:48:55Z</time>
      </trkpt>
      <trkpt lat="44.96133" lon="6.4934">
        <ele>1796</ele>
        <time>2024-08-11T09:48:56Z</time>
      </trkpt>
      <trkpt lat="44.96133" lon="6.4934">
        <ele>1796.2</ele>
        <time>2024-08-11T09:48:57Z</time>
      </trkpt>
      <trkpt lat="44.96133" lon="6.4934">
        <ele>1796.2</ele>
        <time>2024-08-11T09:48:58Z</time>
      </trkpt>
      <trkpt lat="44.96133" lon="6.4934">
        <ele>1796.2</ele>
        <time>2024-08-11T09:48:59Z</time>
      </trkpt>
      <trkpt lat="44.96133" lon="6.4934">
        <ele>1796.2</ele>
        <time>2024-08-11T09:49:00Z</time>
      </trkpt>
      <trkpt lat="44.96133" lon="6.4934">
        <ele>1796</ele>
        <time>2024-08-11T09:49:01Z</time>
      </trkpt>
      <trkpt lat="44.96133" lon="6.4934">
        <ele>1796</ele>
        <time>2024-08-11T09:49:02Z</time>
      </trkpt>
      <trkpt lat="44.96133" lon="6.4934">
        <ele>1796</ele>
        <time>2024-08-11T09:49:03Z</time>
      </trkpt>
      <trkpt lat="44.96133" lon="6.4934">
        <ele>1796.4</ele>
        <time>2024-08-11T09:49:04Z</time>
      </trkpt>
      <trkpt lat="44.96133" lon="6.4934">
        <ele>1796.4</ele>
        <time>2024-08-11T09:49:05Z</time>
      </trkpt>
      <trkpt lat="44.96133" lon="6.4934">
        <ele>1796.4</ele>
        <time>2024-08-11T09:49:06Z</time>
      </trkpt>
      <trkpt lat="44.96133" lon="6.4934">
        <ele>1796.4</ele>
        <time>2024-08-11T09:49:07Z</time>
      </trkpt>
      <trkpt lat="44.96133" lon="6.4934">
        <ele>1796.4</ele>
        <time>2024-08-11T09:49:08Z</time>
      </trkpt>
      <trkpt lat="44.96133" lon="6.4934">
        <ele>1796.4</ele>
        <time>2024-08-11T09:49:09Z</time>
      </trkpt>
      <trkpt lat="44.96133" lon="6.4934">
        <ele>1796.4</ele>
        <time>2024-08-11T09:49:10Z</time>
      </trkpt>
      <trkpt lat="44.96133" lon="6.4934">
        <ele>1796.4</ele>
        <time>2024-08-11T09:49:11Z</time>
      </trkpt>
      <trkpt lat="44.96133" lon="6.4934">
        <ele>1796.6</ele>
        <time>2024-08-11T09:49:12Z</time>
      </trkpt>
      <trkpt lat="44.96133" lon="6.4934">
        <ele>1796.6</ele>
        <time>2024-08-11T09:49:13Z</time>
      </trkpt>
      <trkpt lat="44.96133" lon="6.4934">
        <ele>1796.6</ele>
        <time>2024-08-11T09:49:14Z</time>
      </trkpt>
      <trkpt lat="44.96133" lon="6.4934">
        <ele>1796.6</ele>
        <time>2024-08-11T09:49:15Z</time>
      </trkpt>
      <trkpt lat="44.96133" lon="6.4934">
        <ele>1796.8</ele>
        <time>2024-08-11T09:49:16Z</time>
      </trkpt>
      <trkpt lat="44.96133" lon="6.4934">
        <ele>1796.8</ele>
        <time>2024-08-11T09:49:17Z</time>
      </trkpt>
      <trkpt lat="44.96133" lon="6.4934">
        <ele>1796.8</ele>
        <time>2024-08-11T09:49:18Z</time>
      </trkpt>
      <trkpt lat="44.96133" lon="6.4934">
        <ele>1796.8</ele>
        <time>2024-08-11T09:49:19Z</time>
      </trkpt>
      <trkpt lat="44.96133" lon="6.4934">
        <ele>1796.8</ele>
        <time>2024-08-11T09:49:20Z</time>
      </trkpt>
      <trkpt lat="44.96133" lon="6.4934">
        <ele>1796.6</ele>
        <time>2024-08-11T09:49:21Z</time>
      </trkpt>
      <trkpt lat="44.96133" lon="6.4934">
        <ele>1796.6</ele>
        <time>2024-08-11T09:49:22Z</time>
      </trkpt>
      <trkpt lat="44.96133" lon="6.4934">
        <ele>1796.6</ele>
        <time>2024-08-11T09:49:23Z</time>
      </trkpt>
      <trkpt lat="44.96133" lon="6.4934">
        <ele>1796.6</ele>
        <time>2024-08-11T09:49:24Z</time>
      </trkpt>
      <trkpt lat="44.96133" lon="6.4934">
        <ele>1796.6</ele>
        <time>2024-08-11T09:49:25Z</time>
      </trkpt>
      <trkpt lat="44.96133" lon="6.4934">
        <ele>1796.6</ele>
        <time>2024-08-11T09:49:26Z</time>
      </trkpt>
      <trkpt lat="44.96133" lon="6.4934">
        <ele>1796.6</ele>
        <time>2024-08-11T09:49:27Z</time>
      </trkpt>
      <trkpt lat="44.96133" lon="6.4934">
        <ele>1796.6</ele>
        <time>2024-08-11T09:49:28Z</time>
      </trkpt>
      <trkpt lat="44.96133" lon="6.4934">
        <ele>1796.8</ele>
        <time>2024-08-11T09:49:29Z</time>
      </trkpt>
      <trkpt lat="44.96133" lon="6.4934">
        <ele>1796.8</ele>
        <time>2024-08-11T09:49:30Z</time>
      </trkpt>
      <trkpt lat="44.96133" lon="6.4934">
        <ele>1796.4</ele>
        <time>2024-08-11T09:49:31Z</time>
      </trkpt>
      <trkpt lat="44.96133" lon="6.4934">
        <ele>1796.4</ele>
        <time>2024-08-11T09:49:32Z</time>
      </trkpt>
      <trkpt lat="44.96133" lon="6.4934">
        <ele>1796.4</ele>
        <time>2024-08-11T09:49:33Z</time>
      </trkpt>
      <trkpt lat="44.96133" lon="6.4934">
        <ele>1796.2</ele>
        <time>2024-08-11T09:49:34Z</time>
      </trkpt>
      <trkpt lat="44.96133" lon="6.4934">
        <ele>1796.2</ele>
        <time>2024-08-11T09:49:35Z</time>
      </trkpt>
      <trkpt lat="44.96133" lon="6.4934">
        <ele>1796.2</ele>
        <time>2024-08-11T09:49:36Z</time>
      </trkpt>
      <trkpt lat="44.96133" lon="6.4934">
        <ele>1796.2</ele>
        <time>2024-08-11T09:49:37Z</time>
      </trkpt>
      <trkpt lat="44.96133" lon="6.4934">
        <ele>1796.2</ele>
        <time>2024-08-11T09:49:38Z</time>
      </trkpt>
      <trkpt lat="44.96133" lon="6.4934">
        <ele>1796.2</ele>
        <time>2024-08-11T09:49:39Z</time>
      </trkpt>
      <trkpt lat="44.96133" lon="6.4934">
        <ele>1796.2</ele>
        <time>2024-08-11T09:49:40Z</time>
      </trkpt>
      <trkpt lat="44.96133" lon="6.4934">
        <ele>1796.2</ele>
        <time>2024-08-11T09:49:41Z</time>
      </trkpt>
      <trkpt lat="44.96133" lon="6.4934">
        <ele>1796.2</ele>
        <time>2024-08-11T09:49:42Z</time>
      </trkpt>
      <trkpt lat="44.96133" lon="6.4934">
        <ele>1796.4</ele>
        <time>2024-08-11T09:49:43Z</time>
      </trkpt>
      <trkpt lat="44.96133" lon="6.4934">
        <ele>1796.4</ele>
        <time>2024-08-11T09:49:44Z</time>
      </trkpt>
      <trkpt lat="44.96133" lon="6.4934">
        <ele>1796.4</ele>
        <time>2024-08-11T09:49:45Z</time>
      </trkpt>
      <trkpt lat="44.96133" lon="6.4934">
        <ele>1796.4</ele>
        <time>2024-08-11T09:49:46Z</time>
      </trkpt>
      <trkpt lat="44.96133" lon="6.4934">
        <ele>1796.2</ele>
        <time>2024-08-11T09:49:47Z</time>
      </trkpt>
      <trkpt lat="44.96133" lon="6.4934">
        <ele>1796</ele>
        <time>2024-08-11T09:49:48Z</time>
      </trkpt>
      <trkpt lat="44.96133" lon="6.4934">
        <ele>1796.2</ele>
        <time>2024-08-11T09:49:49Z</time>
      </trkpt>
      <trkpt lat="44.96133" lon="6.4934">
        <ele>1796.2</ele>
        <time>2024-08-11T09:49:50Z</time>
      </trkpt>
      <trkpt lat="44.96133" lon="6.4934">
        <ele>1796.2</ele>
        <time>2024-08-11T09:49:51Z</time>
      </trkpt>
      <trkpt lat="44.96133" lon="6.4934">
        <ele>1796.2</ele>
        <time>2024-08-11T09:49:52Z</time>
      </trkpt>
      <trkpt lat="44.96133" lon="6.4934">
        <ele>1796.2</ele>
        <time>2024-08-11T09:49:53Z</time>
      </trkpt>
      <trkpt lat="44.96133" lon="6.4934">
        <ele>1796.2</ele>
        <time>2024-08-11T09:49:54Z</time>
      </trkpt>
      <trkpt lat="44.96133" lon="6.4934">
        <ele>1796.2</ele>
        <time>2024-08-11T09:49:55Z</time>
      </trkpt>
      <trkpt lat="44.96133" lon="6.4934">
        <ele>1796.6</ele>
        <time>2024-08-11T09:49:56Z</time>
      </trkpt>
      <trkpt lat="44.96133" lon="6.4934">
        <ele>1797</ele>
        <time>2024-08-11T09:49:57Z</time>
      </trkpt>
      <trkpt lat="44.96133" lon="6.4934">
        <ele>1797</ele>
        <time>2024-08-11T09:49:58Z</time>
      </trkpt>
      <trkpt lat="44.96133" lon="6.4934">
        <ele>1796.8</ele>
        <time>2024-08-11T09:49:59Z</time>
      </trkpt>
      <trkpt lat="44.96133" lon="6.4934">
        <ele>1796.4</ele>
        <time>2024-08-11T09:50:05Z</time>
      </trkpt>
      <trkpt lat="44.96133" lon="6.4934">
        <ele>1796.4</ele>
        <time>2024-08-11T09:50:06Z</time>
      </trkpt>
      <trkpt lat="44.96133" lon="6.4934">
        <ele>1796.8</ele>
        <time>2024-08-11T09:50:07Z</time>
      </trkpt>
      <trkpt lat="44.96133" lon="6.4934">
        <ele>1796.8</ele>
        <time>2024-08-11T09:50:08Z</time>
      </trkpt>
      <trkpt lat="44.96133" lon="6.4934">
        <ele>1797</ele>
        <time>2024-08-11T09:50:09Z</time>
      </trkpt>
      <trkpt lat="44.96133" lon="6.4934">
        <ele>1797.2</ele>
        <time>2024-08-11T09:50:10Z</time>
      </trkpt>
      <trkpt lat="44.96133" lon="6.4934">
        <ele>1797.2</ele>
        <time>2024-08-11T09:50:11Z</time>
      </trkpt>
      <trkpt lat="44.96134" lon="6.49343">
        <ele>1797</ele>
        <time>2024-08-11T09:50:12Z</time>
      </trkpt>
      <trkpt lat="44.96134" lon="6.49343">
        <ele>1797</ele>
        <time>2024-08-11T09:50:13Z</time>
      </trkpt>
      <trkpt lat="44.96135" lon="6.49348">
        <ele>1797</ele>
        <time>2024-08-11T09:50:14Z</time>
      </trkpt>
      <trkpt lat="44.96136" lon="6.4935">
        <ele>1797</ele>
        <time>2024-08-11T09:50:15Z</time>
      </trkpt>
      <trkpt lat="44.96136" lon="6.4935">
        <ele>1797</ele>
        <time>2024-08-11T09:50:16Z</time>
      </trkpt>
      <trkpt lat="44.96138" lon="6.49354">
        <ele>1797</ele>
        <time>2024-08-11T09:50:17Z</time>
      </trkpt>
      <trkpt lat="44.96138" lon="6.49354">
        <ele>1797.4</ele>
        <time>2024-08-11T09:50:18Z</time>
      </trkpt>
      <trkpt lat="44.96139" lon="6.49355">
        <ele>1797.4</ele>
        <time>2024-08-11T09:50:19Z</time>
      </trkpt>
      <trkpt lat="44.96139" lon="6.49355">
        <ele>1797.4</ele>
        <time>2024-08-11T09:50:20Z</time>
      </trkpt>
      <trkpt lat="44.96139" lon="6.49355">
        <ele>1797.4</ele>
        <time>2024-08-11T09:50:21Z</time>
      </trkpt>
      <trkpt lat="44.96139" lon="6.49355">
        <ele>1797.8</ele>
        <time>2024-08-11T09:50:22Z</time>
      </trkpt>
      <trkpt lat="44.96139" lon="6.49355">
        <ele>1798</ele>
        <time>2024-08-11T09:50:23Z</time>
      </trkpt>
      <trkpt lat="44.96139" lon="6.49355">
        <ele>1798.2</ele>
        <time>2024-08-11T09:50:24Z</time>
      </trkpt>
      <trkpt lat="44.96139" lon="6.49355">
        <ele>1798.6</ele>
        <time>2024-08-11T09:50:25Z</time>
      </trkpt>
      <trkpt lat="44.96139" lon="6.49355">
        <ele>1799</ele>
        <time>2024-08-11T09:50:26Z</time>
      </trkpt>
      <trkpt lat="44.96139" lon="6.49358">
        <ele>1799</ele>
        <time>2024-08-11T09:50:27Z</time>
      </trkpt>
      <trkpt lat="44.96139" lon="6.49358">
        <ele>1798.8</ele>
        <time>2024-08-11T09:50:28Z</time>
      </trkpt>
      <trkpt lat="44.96139" lon="6.49358">
        <ele>1798.8</ele>
        <time>2024-08-11T09:50:29Z</time>
      </trkpt>
      <trkpt lat="44.96139" lon="6.49358">
        <ele>1798.8</ele>
        <time>2024-08-11T09:50:30Z</time>
      </trkpt>
      <trkpt lat="44.96139" lon="6.49358">
        <ele>1799</ele>
        <time>2024-08-11T09:50:31Z</time>
      </trkpt>
      <trkpt lat="44.96139" lon="6.49358">
        <ele>1799</ele>
        <time>2024-08-11T09:50:32Z</time>
      </trkpt>
      <trkpt lat="44.96139" lon="6.49358">
        <ele>1799</ele>
        <time>2024-08-11T09:50:33Z</time>
      </trkpt>
      <trkpt lat="44.96139" lon="6.49358">
        <ele>1799</ele>
        <time>2024-08-11T09:50:34Z</time>
      </trkpt>
      <trkpt lat="44.96139" lon="6.49358">
        <ele>1799</ele>
        <time>2024-08-11T09:50:35Z</time>
      </trkpt>
      <trkpt lat="44.96139" lon="6.49358">
        <ele>1799</ele>
        <time>2024-08-11T09:50:36Z</time>
      </trkpt>
      <trkpt lat="44.96139" lon="6.49358">
        <ele>1798.8</ele>
        <time>2024-08-11T09:50:37Z</time>
      </trkpt>
      <trkpt lat="44.96139" lon="6.49358">
        <ele>1798.8</ele>
        <time>2024-08-11T09:50:38Z</time>
      </trkpt>
      <trkpt lat="44.96139" lon="6.49358">
        <ele>1799</ele>
        <time>2024-08-11T09:50:39Z</time>
      </trkpt>
      <trkpt lat="44.96139" lon="6.49358">
        <ele>1799</ele>
        <time>2024-08-11T09:50:40Z</time>
      </trkpt>
      <trkpt lat="44.96139" lon="6.49358">
        <ele>1799</ele>
        <time>2024-08-11T09:50:41Z</time>
      </trkpt>
      <trkpt lat="44.96139" lon="6.49358">
        <ele>1799</ele>
        <time>2024-08-11T09:50:42Z</time>
      </trkpt>
      <trkpt lat="44.96139" lon="6.49358">
        <ele>1799</ele>
        <time>2024-08-11T09:50:43Z</time>
      </trkpt>
      <trkpt lat="44.96139" lon="6.49358">
        <ele>1799</ele>
        <time>2024-08-11T09:50:44Z</time>
      </trkpt>
      <trkpt lat="44.96139" lon="6.49358">
        <ele>1799</ele>
        <time>2024-08-11T09:50:45Z</time>
      </trkpt>
      <trkpt lat="44.96139" lon="6.49358">
        <ele>1799</ele>
        <time>2024-08-11T09:50:46Z</time>
      </trkpt>
      <trkpt lat="44.96139" lon="6.49358">
        <ele>1799.2</ele>
        <time>2024-08-11T09:50:47Z</time>
      </trkpt>
      <trkpt lat="44.96139" lon="6.49358">
        <ele>1799.2</ele>
        <time>2024-08-11T09:50:48Z</time>
      </trkpt>
      <trkpt lat="44.96139" lon="6.49358">
        <ele>1798.8</ele>
        <time>2024-08-11T09:50:49Z</time>
      </trkpt>
      <trkpt lat="44.96139" lon="6.49358">
        <ele>1798.8</ele>
        <time>2024-08-11T09:50:50Z</time>
      </trkpt>
      <trkpt lat="44.96139" lon="6.49358">
        <ele>1798.8</ele>
        <time>2024-08-11T09:50:51Z</time>
      </trkpt>
      <trkpt lat="44.96139" lon="6.49358">
        <ele>1799</ele>
        <time>2024-08-11T09:50:52Z</time>
      </trkpt>
      <trkpt lat="44.96139" lon="6.49358">
        <ele>1799</ele>
        <time>2024-08-11T09:50:53Z</time>
      </trkpt>
      <trkpt lat="44.96139" lon="6.49358">
        <ele>1799</ele>
        <time>2024-08-11T09:50:54Z</time>
      </trkpt>
      <trkpt lat="44.96139" lon="6.49358">
        <ele>1798.8</ele>
        <time>2024-08-11T09:50:55Z</time>
      </trkpt>
      <trkpt lat="44.96139" lon="6.49358">
        <ele>1798.8</ele>
        <time>2024-08-11T09:50:56Z</time>
      </trkpt>
      <trkpt lat="44.96139" lon="6.49358">
        <ele>1799</ele>
        <time>2024-08-11T09:50:57Z</time>
      </trkpt>
      <trkpt lat="44.96139" lon="6.49358">
        <ele>1799</ele>
        <time>2024-08-11T09:50:58Z</time>
      </trkpt>
      <trkpt lat="44.96139" lon="6.49358">
        <ele>1799</ele>
        <time>2024-08-11T09:50:59Z</time>
      </trkpt>
      <trkpt lat="44.96139" lon="6.49358">
        <ele>1798.8</ele>
        <time>2024-08-11T09:51:00Z</time>
      </trkpt>
      <trkpt lat="44.96139" lon="6.49358">
        <ele>1798.8</ele>
        <time>2024-08-11T09:51:01Z</time>
      </trkpt>
      <trkpt lat="44.96139" lon="6.49358">
        <ele>1799</ele>
        <time>2024-08-11T09:51:02Z</time>
      </trkpt>
      <trkpt lat="44.96139" lon="6.49358">
        <ele>1798.8</ele>
        <time>2024-08-11T09:51:03Z</time>
      </trkpt>
      <trkpt lat="44.96139" lon="6.49358">
        <ele>1798.8</ele>
        <time>2024-08-11T09:51:04Z</time>
      </trkpt>
      <trkpt lat="44.96139" lon="6.49358">
        <ele>1798.8</ele>
        <time>2024-08-11T09:51:05Z</time>
      </trkpt>
      <trkpt lat="44.96139" lon="6.49358">
        <ele>1798.8</ele>
        <time>2024-08-11T09:51:06Z</time>
      </trkpt>
      <trkpt lat="44.96139" lon="6.49358">
        <ele>1798.8</ele>
        <time>2024-08-11T09:51:07Z</time>
      </trkpt>
      <trkpt lat="44.96139" lon="6.49358">
        <ele>1799</ele>
        <time>2024-08-11T09:51:08Z</time>
      </trkpt>
      <trkpt lat="44.96139" lon="6.49358">
        <ele>1799</ele>
        <time>2024-08-11T09:51:09Z</time>
      </trkpt>
      <trkpt lat="44.96139" lon="6.49358">
        <ele>1799</ele>
        <time>2024-08-11T09:51:10Z</time>
      </trkpt>
      <trkpt lat="44.96139" lon="6.49358">
        <ele>1799</ele>
        <time>2024-08-11T09:51:11Z</time>
      </trkpt>
      <trkpt lat="44.96139" lon="6.49358">
        <ele>1799</ele>
        <time>2024-08-11T09:51:12Z</time>
      </trkpt>
      <trkpt lat="44.96139" lon="6.49358">
        <ele>1799</ele>
        <time>2024-08-11T09:51:13Z</time>
      </trkpt>
      <trkpt lat="44.96139" lon="6.49358">
        <ele>1799</ele>
        <time>2024-08-11T09:51:14Z</time>
      </trkpt>
      <trkpt lat="44.96139" lon="6.49358">
        <ele>1799</ele>
        <time>2024-08-11T09:51:15Z</time>
      </trkpt>
      <trkpt lat="44.96139" lon="6.49358">
        <ele>1799</ele>
        <time>2024-08-11T09:51:16Z</time>
      </trkpt>
      <trkpt lat="44.96139" lon="6.49358">
        <ele>1799</ele>
        <time>2024-08-11T09:51:17Z</time>
      </trkpt>
      <trkpt lat="44.96139" lon="6.49358">
        <ele>1799</ele>
        <time>2024-08-11T09:51:18Z</time>
      </trkpt>
      <trkpt lat="44.96139" lon="6.49358">
        <ele>1799</ele>
        <time>2024-08-11T09:51:19Z</time>
      </trkpt>
      <trkpt lat="44.96139" lon="6.49358">
        <ele>1799.4</ele>
        <time>2024-08-11T09:51:20Z</time>
      </trkpt>
      <trkpt lat="44.96139" lon="6.49358">
        <ele>1799.4</ele>
        <time>2024-08-11T09:51:21Z</time>
      </trkpt>
      <trkpt lat="44.96139" lon="6.49358">
        <ele>1799.4</ele>
        <time>2024-08-11T09:51:22Z</time>
      </trkpt>
      <trkpt lat="44.96139" lon="6.49358">
        <ele>1799.4</ele>
        <time>2024-08-11T09:51:23Z</time>
      </trkpt>
      <trkpt lat="44.96139" lon="6.49358">
        <ele>1799.6</ele>
        <time>2024-08-11T09:51:24Z</time>
      </trkpt>
      <trkpt lat="44.96139" lon="6.49358">
        <ele>1799.6</ele>
        <time>2024-08-11T09:51:25Z</time>
      </trkpt>
      <trkpt lat="44.96139" lon="6.49358">
        <ele>1799.6</ele>
        <time>2024-08-11T09:51:26Z</time>
      </trkpt>
      <trkpt lat="44.96139" lon="6.49358">
        <ele>1799.6</ele>
        <time>2024-08-11T09:51:27Z</time>
      </trkpt>
      <trkpt lat="44.96139" lon="6.49358">
        <ele>1799.4</ele>
        <time>2024-08-11T09:51:28Z</time>
      </trkpt>
      <trkpt lat="44.96139" lon="6.49358">
        <ele>1799.4</ele>
        <time>2024-08-11T09:51:29Z</time>
      </trkpt>
      <trkpt lat="44.96139" lon="6.49358">
        <ele>1799.4</ele>
        <time>2024-08-11T09:51:30Z</time>
      </trkpt>
      <trkpt lat="44.96141" lon="6.49358">
        <ele>1799.6</ele>
        <time>2024-08-11T09:51:31Z</time>
      </trkpt>
      <trkpt lat="44.96141" lon="6.49358">
        <ele>1799.6</ele>
        <time>2024-08-11T09:51:32Z</time>
      </trkpt>
      <trkpt lat="44.96141" lon="6.49358">
        <ele>1799.4</ele>
        <time>2024-08-11T09:51:33Z</time>
      </trkpt>
      <trkpt lat="44.96143" lon="6.49359">
        <ele>1799.2</ele>
        <time>2024-08-11T09:51:34Z</time>
      </trkpt>
      <trkpt lat="44.96143" lon="6.49359">
        <ele>1799</ele>
        <time>2024-08-11T09:51:35Z</time>
      </trkpt>
      <trkpt lat="44.96143" lon="6.49359">
        <ele>1799</ele>
        <time>2024-08-11T09:51:36Z</time>
      </trkpt>
      <trkpt lat="44.96143" lon="6.49359">
        <ele>1799</ele>
        <time>2024-08-11T09:51:37Z</time>
      </trkpt>
      <trkpt lat="44.96143" lon="6.49359">
        <ele>1799.2</ele>
        <time>2024-08-11T09:51:38Z</time>
      </trkpt>
      <trkpt lat="44.96143" lon="6.49359">
        <ele>1799.2</ele>
        <time>2024-08-11T09:51:39Z</time>
      </trkpt>
      <trkpt lat="44.96143" lon="6.49359">
        <ele>1799.2</ele>
        <time>2024-08-11T09:51:40Z</time>
      </trkpt>
      <trkpt lat="44.96143" lon="6.49359">
        <ele>1799.2</ele>
        <time>2024-08-11T09:51:41Z</time>
      </trkpt>
      <trkpt lat="44.96143" lon="6.49359">
        <ele>1799.2</ele>
        <time>2024-08-11T09:51:42Z</time>
      </trkpt>
      <trkpt lat="44.96143" lon="6.49359">
        <ele>1799.2</ele>
        <time>2024-08-11T09:51:43Z</time>
      </trkpt>
      <trkpt lat="44.96143" lon="6.49359">
        <ele>1799.2</ele>
        <time>2024-08-11T09:51:44Z</time>
      </trkpt>
      <trkpt lat="44.96143" lon="6.49359">
        <ele>1799.4</ele>
        <time>2024-08-11T09:51:45Z</time>
      </trkpt>
      <trkpt lat="44.96143" lon="6.49359">
        <ele>1799.4</ele>
        <time>2024-08-11T09:51:46Z</time>
      </trkpt>
      <trkpt lat="44.96143" lon="6.49359">
        <ele>1799.4</ele>
        <time>2024-08-11T09:51:47Z</time>
      </trkpt>
      <trkpt lat="44.96143" lon="6.49359">
        <ele>1799.4</ele>
        <time>2024-08-11T09:51:48Z</time>
      </trkpt>
      <trkpt lat="44.96143" lon="6.49359">
        <ele>1799.4</ele>
        <time>2024-08-11T09:51:49Z</time>
      </trkpt>
      <trkpt lat="44.96143" lon="6.49359">
        <ele>1799.6</ele>
        <time>2024-08-11T09:51:50Z</time>
      </trkpt>
      <trkpt lat="44.96143" lon="6.49359">
        <ele>1799.6</ele>
        <time>2024-08-11T09:51:51Z</time>
      </trkpt>
      <trkpt lat="44.96143" lon="6.49359">
        <ele>1799.8</ele>
        <time>2024-08-11T09:51:52Z</time>
      </trkpt>
      <trkpt lat="44.96143" lon="6.49359">
        <ele>1799.8</ele>
        <time>2024-08-11T09:51:53Z</time>
      </trkpt>
      <trkpt lat="44.96143" lon="6.49359">
        <ele>1799.8</ele>
        <time>2024-08-11T09:51:54Z</time>
      </trkpt>
      <trkpt lat="44.96143" lon="6.49359">
        <ele>1800</ele>
        <time>2024-08-11T09:51:55Z</time>
      </trkpt>
      <trkpt lat="44.96143" lon="6.49359">
        <ele>1800</ele>
        <time>2024-08-11T09:51:56Z</time>
      </trkpt>
      <trkpt lat="44.96143" lon="6.49359">
        <ele>1800.2</ele>
        <time>2024-08-11T09:51:57Z</time>
      </trkpt>
      <trkpt lat="44.96143" lon="6.49359">
        <ele>1800.2</ele>
        <time>2024-08-11T09:51:58Z</time>
      </trkpt>
      <trkpt lat="44.96143" lon="6.49359">
        <ele>1800.2</ele>
        <time>2024-08-11T09:51:59Z</time>
      </trkpt>
      <trkpt lat="44.96143" lon="6.49359">
        <ele>1800.2</ele>
        <time>2024-08-11T09:52:00Z</time>
      </trkpt>
      <trkpt lat="44.96141" lon="6.49361">
        <ele>1800.4</ele>
        <time>2024-08-11T09:52:01Z</time>
      </trkpt>
      <trkpt lat="44.96139" lon="6.49362">
        <ele>1800.6</ele>
        <time>2024-08-11T09:52:02Z</time>
      </trkpt>
      <trkpt lat="44.96136" lon="6.49363">
        <ele>1800.6</ele>
        <time>2024-08-11T09:52:03Z</time>
      </trkpt>
      <trkpt lat="44.96135" lon="6.49364">
        <ele>1800.8</ele>
        <time>2024-08-11T09:52:04Z</time>
      </trkpt>
      <trkpt lat="44.96135" lon="6.49364">
        <ele>1801</ele>
        <time>2024-08-11T09:52:05Z</time>
      </trkpt>
      <trkpt lat="44.96132" lon="6.49366">
        <ele>1801.4</ele>
        <time>2024-08-11T09:52:06Z</time>
      </trkpt>
      <trkpt lat="44.96132" lon="6.49366">
        <ele>1801.4</ele>
        <time>2024-08-11T09:52:07Z</time>
      </trkpt>
      <trkpt lat="44.96132" lon="6.49366">
        <ele>1801.6</ele>
        <time>2024-08-11T09:52:08Z</time>
      </trkpt>
      <trkpt lat="44.96128" lon="6.49367">
        <ele>1801.8</ele>
        <time>2024-08-11T09:52:09Z</time>
      </trkpt>
      <trkpt lat="44.96128" lon="6.49367">
        <ele>1802</ele>
        <time>2024-08-11T09:52:10Z</time>
      </trkpt>
      <trkpt lat="44.96128" lon="6.49367">
        <ele>1802</ele>
        <time>2024-08-11T09:52:11Z</time>
      </trkpt>
      <trkpt lat="44.96128" lon="6.49367">
        <ele>1802.4</ele>
        <time>2024-08-11T09:52:12Z</time>
      </trkpt>
      <trkpt lat="44.96126" lon="6.49367">
        <ele>1802.6</ele>
        <time>2024-08-11T09:52:13Z</time>
      </trkpt>
      <trkpt lat="44.96126" lon="6.49367">
        <ele>1802.8</ele>
        <time>2024-08-11T09:52:14Z</time>
      </trkpt>
      <trkpt lat="44.96126" lon="6.49367">
        <ele>1803</ele>
        <time>2024-08-11T09:52:15Z</time>
      </trkpt>
      <trkpt lat="44.96123" lon="6.49366">
        <ele>1803</ele>
        <time>2024-08-11T09:52:16Z</time>
      </trkpt>
      <trkpt lat="44.96123" lon="6.49366">
        <ele>1803.4</ele>
        <time>2024-08-11T09:52:17Z</time>
      </trkpt>
      <trkpt lat="44.96121" lon="6.49367">
        <ele>1803.6</ele>
        <time>2024-08-11T09:52:18Z</time>
      </trkpt>
      <trkpt lat="44.96121" lon="6.49367">
        <ele>1803.6</ele>
        <time>2024-08-11T09:52:19Z</time>
      </trkpt>
      <trkpt lat="44.96121" lon="6.49367">
        <ele>1804</ele>
        <time>2024-08-11T09:52:20Z</time>
      </trkpt>
      <trkpt lat="44.96119" lon="6.49367">
        <ele>1804</ele>
        <time>2024-08-11T09:52:21Z</time>
      </trkpt>
      <trkpt lat="44.96119" lon="6.49367">
        <ele>1804.2</ele>
        <time>2024-08-11T09:52:22Z</time>
      </trkpt>
      <trkpt lat="44.96119" lon="6.49367">
        <ele>1804.4</ele>
        <time>2024-08-11T09:52:23Z</time>
      </trkpt>
      <trkpt lat="44.96119" lon="6.49367">
        <ele>1804.6</ele>
        <time>2024-08-11T09:52:24Z</time>
      </trkpt>
      <trkpt lat="44.96119" lon="6.49367">
        <ele>1804.6</ele>
        <time>2024-08-11T09:52:25Z</time>
      </trkpt>
      <trkpt lat="44.96119" lon="6.49367">
        <ele>1804.8</ele>
        <time>2024-08-11T09:52:26Z</time>
      </trkpt>
      <trkpt lat="44.96119" lon="6.49367">
        <ele>1805</ele>
        <time>2024-08-11T09:52:27Z</time>
      </trkpt>
      <trkpt lat="44.96119" lon="6.49367">
        <ele>1805</ele>
        <time>2024-08-11T09:52:28Z</time>
      </trkpt>
      <trkpt lat="44.96119" lon="6.49367">
        <ele>1805.4</ele>
        <time>2024-08-11T09:52:29Z</time>
      </trkpt>
      <trkpt lat="44.96119" lon="6.49367">
        <ele>1805.6</ele>
        <time>2024-08-11T09:52:30Z</time>
      </trkpt>
      <trkpt lat="44.96117" lon="6.49369">
        <ele>1806</ele>
        <time>2024-08-11T09:52:31Z</time>
      </trkpt>
      <trkpt lat="44.96117" lon="6.49369">
        <ele>1806</ele>
        <time>2024-08-11T09:52:32Z</time>
      </trkpt>
      <trkpt lat="44.96117" lon="6.49369">
        <ele>1806.2</ele>
        <time>2024-08-11T09:52:33Z</time>
      </trkpt>
      <trkpt lat="44.96117" lon="6.49369">
        <ele>1806.2</ele>
        <time>2024-08-11T09:52:34Z</time>
      </trkpt>
      <trkpt lat="44.96117" lon="6.49369">
        <ele>1806.6</ele>
        <time>2024-08-11T09:52:35Z</time>
      </trkpt>
      <trkpt lat="44.96117" lon="6.49369">
        <ele>1806.8</ele>
        <time>2024-08-11T09:52:36Z</time>
      </trkpt>
      <trkpt lat="44.96114" lon="6.4937">
        <ele>1807</ele>
        <time>2024-08-11T09:52:37Z</time>
      </trkpt>
      <trkpt lat="44.96114" lon="6.4937">
        <ele>1807</ele>
        <time>2024-08-11T09:52:38Z</time>
      </trkpt>
      <trkpt lat="44.96114" lon="6.4937">
        <ele>1807.2</ele>
        <time>2024-08-11T09:52:39Z</time>
      </trkpt>
      <trkpt lat="44.96112" lon="6.4937">
        <ele>1807.4</ele>
        <time>2024-08-11T09:52:40Z</time>
      </trkpt>
      <trkpt lat="44.96112" lon="6.4937">
        <ele>1807.6</ele>
        <time>2024-08-11T09:52:41Z</time>
      </trkpt>
      <trkpt lat="44.9611" lon="6.49371">
        <ele>1807.6</ele>
        <time>2024-08-11T09:52:42Z</time>
      </trkpt>
      <trkpt lat="44.9611" lon="6.49371">
        <ele>1807.8</ele>
        <time>2024-08-11T09:52:43Z</time>
      </trkpt>
      <trkpt lat="44.96108" lon="6.49372">
        <ele>1808</ele>
        <time>2024-08-11T09:52:44Z</time>
      </trkpt>
      <trkpt lat="44.96108" lon="6.49372">
        <ele>1808.2</ele>
        <time>2024-08-11T09:52:45Z</time>
      </trkpt>
      <trkpt lat="44.96108" lon="6.49372">
        <ele>1808.4</ele>
        <time>2024-08-11T09:52:46Z</time>
      </trkpt>
      <trkpt lat="44.96108" lon="6.49372">
        <ele>1808.6</ele>
        <time>2024-08-11T09:52:47Z</time>
      </trkpt>
      <trkpt lat="44.96107" lon="6.49374">
        <ele>1808.8</ele>
        <time>2024-08-11T09:52:48Z</time>
      </trkpt>
      <trkpt lat="44.96107" lon="6.49374">
        <ele>1808.8</ele>
        <time>2024-08-11T09:52:49Z</time>
      </trkpt>
      <trkpt lat="44.96107" lon="6.49374">
        <ele>1809</ele>
        <time>2024-08-11T09:52:50Z</time>
      </trkpt>
      <trkpt lat="44.96106" lon="6.49377">
        <ele>1809.2</ele>
        <time>2024-08-11T09:52:51Z</time>
      </trkpt>
      <trkpt lat="44.96106" lon="6.49377">
        <ele>1809.2</ele>
        <time>2024-08-11T09:52:52Z</time>
      </trkpt>
      <trkpt lat="44.96106" lon="6.49377">
        <ele>1809.6</ele>
        <time>2024-08-11T09:52:53Z</time>
      </trkpt>
      <trkpt lat="44.96106" lon="6.49377">
        <ele>1809.6</ele>
        <time>2024-08-11T09:52:54Z</time>
      </trkpt>
      <trkpt lat="44.96106" lon="6.49377">
        <ele>1810</ele>
        <time>2024-08-11T09:52:55Z</time>
      </trkpt>
      <trkpt lat="44.96106" lon="6.4938">
        <ele>1810.2</ele>
        <time>2024-08-11T09:52:56Z</time>
      </trkpt>
      <trkpt lat="44.96106" lon="6.4938">
        <ele>1810.2</ele>
        <time>2024-08-11T09:52:57Z</time>
      </trkpt>
      <trkpt lat="44.96106" lon="6.4938">
        <ele>1810.6</ele>
        <time>2024-08-11T09:52:58Z</time>
      </trkpt>
      <trkpt lat="44.96106" lon="6.4938">
        <ele>1810.6</ele>
        <time>2024-08-11T09:52:59Z</time>
      </trkpt>
      <trkpt lat="44.96104" lon="6.49382">
        <ele>1810.6</ele>
        <time>2024-08-11T09:53:00Z</time>
      </trkpt>
      <trkpt lat="44.96104" lon="6.49382">
        <ele>1811</ele>
        <time>2024-08-11T09:53:01Z</time>
      </trkpt>
      <trkpt lat="44.96104" lon="6.49382">
        <ele>1811.6</ele>
        <time>2024-08-11T09:53:02Z</time>
      </trkpt>
      <trkpt lat="44.96104" lon="6.49382">
        <ele>1811.6</ele>
        <time>2024-08-11T09:53:03Z</time>
      </trkpt>
      <trkpt lat="44.96102" lon="6.49381">
        <ele>1811.6</ele>
        <time>2024-08-11T09:53:04Z</time>
      </trkpt>
      <trkpt lat="44.96102" lon="6.49381">
        <ele>1811.8</ele>
        <time>2024-08-11T09:53:05Z</time>
      </trkpt>
      <trkpt lat="44.96102" lon="6.49381">
        <ele>1812</ele>
        <time>2024-08-11T09:53:06Z</time>
      </trkpt>
      <trkpt lat="44.96102" lon="6.49381">
        <ele>1812.4</ele>
        <time>2024-08-11T09:53:07Z</time>
      </trkpt>
      <trkpt lat="44.96101" lon="6.49382">
        <ele>1812.6</ele>
        <time>2024-08-11T09:53:08Z</time>
      </trkpt>
      <trkpt lat="44.96101" lon="6.49382">
        <ele>1812.6</ele>
        <time>2024-08-11T09:53:09Z</time>
      </trkpt>
      <trkpt lat="44.96101" lon="6.49382">
        <ele>1812.6</ele>
        <time>2024-08-11T09:53:10Z</time>
      </trkpt>
      <trkpt lat="44.96101" lon="6.49382">
        <ele>1812.8</ele>
        <time>2024-08-11T09:53:11Z</time>
      </trkpt>
      <trkpt lat="44.96099" lon="6.49384">
        <ele>1813.2</ele>
        <time>2024-08-11T09:53:12Z</time>
      </trkpt>
      <trkpt lat="44.96099" lon="6.49384">
        <ele>1813.4</ele>
        <time>2024-08-11T09:53:13Z</time>
      </trkpt>
      <trkpt lat="44.96099" lon="6.49384">
        <ele>1813.6</ele>
        <time>2024-08-11T09:53:14Z</time>
      </trkpt>
      <trkpt lat="44.96099" lon="6.49384">
        <ele>1813.8</ele>
        <time>2024-08-11T09:53:15Z</time>
      </trkpt>
      <trkpt lat="44.96096" lon="6.49385">
        <ele>1813.8</ele>
        <time>2024-08-11T09:53:16Z</time>
      </trkpt>
      <trkpt lat="44.96096" lon="6.49385">
        <ele>1814</ele>
        <time>2024-08-11T09:53:17Z</time>
      </trkpt>
      <trkpt lat="44.96096" lon="6.49385">
        <ele>1814.4</ele>
        <time>2024-08-11T09:53:18Z</time>
      </trkpt>
      <trkpt lat="44.96096" lon="6.49385">
        <ele>1814.6</ele>
        <time>2024-08-11T09:53:19Z</time>
      </trkpt>
      <trkpt lat="44.96096" lon="6.49388">
        <ele>1814.6</ele>
        <time>2024-08-11T09:53:20Z</time>
      </trkpt>
      <trkpt lat="44.96096" lon="6.49388">
        <ele>1814.6</ele>
        <time>2024-08-11T09:53:21Z</time>
      </trkpt>
      <trkpt lat="44.96096" lon="6.49388">
        <ele>1814.8</ele>
        <time>2024-08-11T09:53:22Z</time>
      </trkpt>
      <trkpt lat="44.96096" lon="6.49388">
        <ele>1815.4</ele>
        <time>2024-08-11T09:53:23Z</time>
      </trkpt>
      <trkpt lat="44.96096" lon="6.49388">
        <ele>1815.4</ele>
        <time>2024-08-11T09:53:24Z</time>
      </trkpt>
      <trkpt lat="44.96096" lon="6.49388">
        <ele>1815.6</ele>
        <time>2024-08-11T09:53:25Z</time>
      </trkpt>
      <trkpt lat="44.96094" lon="6.4939">
        <ele>1815.6</ele>
        <time>2024-08-11T09:53:26Z</time>
      </trkpt>
      <trkpt lat="44.96094" lon="6.4939">
        <ele>1815.8</ele>
        <time>2024-08-11T09:53:27Z</time>
      </trkpt>
      <trkpt lat="44.96094" lon="6.4939">
        <ele>1816</ele>
        <time>2024-08-11T09:53:28Z</time>
      </trkpt>
      <trkpt lat="44.96094" lon="6.4939">
        <ele>1816</ele>
        <time>2024-08-11T09:53:29Z</time>
      </trkpt>
      <trkpt lat="44.96094" lon="6.4939">
        <ele>1816.2</ele>
        <time>2024-08-11T09:53:30Z</time>
      </trkpt>
      <trkpt lat="44.96093" lon="6.49392">
        <ele>1816.4</ele>
        <time>2024-08-11T09:53:31Z</time>
      </trkpt>
      <trkpt lat="44.96093" lon="6.49392">
        <ele>1816.8</ele>
        <time>2024-08-11T09:53:32Z</time>
      </trkpt>
      <trkpt lat="44.96093" lon="6.49392">
        <ele>1817</ele>
        <time>2024-08-11T09:53:33Z</time>
      </trkpt>
      <trkpt lat="44.96093" lon="6.49392">
        <ele>1817</ele>
        <time>2024-08-11T09:53:34Z</time>
      </trkpt>
      <trkpt lat="44.96093" lon="6.49392">
        <ele>1817.6</ele>
        <time>2024-08-11T09:53:35Z</time>
      </trkpt>
      <trkpt lat="44.96093" lon="6.49392">
        <ele>1817.6</ele>
        <time>2024-08-11T09:53:36Z</time>
      </trkpt>
      <trkpt lat="44.96093" lon="6.49392">
        <ele>1817.6</ele>
        <time>2024-08-11T09:53:37Z</time>
      </trkpt>
      <trkpt lat="44.96093" lon="6.49392">
        <ele>1818</ele>
        <time>2024-08-11T09:53:38Z</time>
      </trkpt>
      <trkpt lat="44.96093" lon="6.49392">
        <ele>1818.2</ele>
        <time>2024-08-11T09:53:39Z</time>
      </trkpt>
      <trkpt lat="44.96093" lon="6.49392">
        <ele>1818.2</ele>
        <time>2024-08-11T09:53:40Z</time>
      </trkpt>
      <trkpt lat="44.96093" lon="6.49392">
        <ele>1818.6</ele>
        <time>2024-08-11T09:53:41Z</time>
      </trkpt>
      <trkpt lat="44.96093" lon="6.49392">
        <ele>1818.6</ele>
        <time>2024-08-11T09:53:42Z</time>
      </trkpt>
      <trkpt lat="44.96093" lon="6.49392">
        <ele>1818.8</ele>
        <time>2024-08-11T09:53:43Z</time>
      </trkpt>
      <trkpt lat="44.96093" lon="6.49392">
        <ele>1819.2</ele>
        <time>2024-08-11T09:53:44Z</time>
      </trkpt>
      <trkpt lat="44.96093" lon="6.49392">
        <ele>1819.4</ele>
        <time>2024-08-11T09:53:45Z</time>
      </trkpt>
      <trkpt lat="44.96091" lon="6.49393">
        <ele>1819.4</ele>
        <time>2024-08-11T09:53:46Z</time>
      </trkpt>
      <trkpt lat="44.96091" lon="6.49393">
        <ele>1819.8</ele>
        <time>2024-08-11T09:53:47Z</time>
      </trkpt>
      <trkpt lat="44.96088" lon="6.49395">
        <ele>1819.8</ele>
        <time>2024-08-11T09:53:48Z</time>
      </trkpt>
      <trkpt lat="44.96088" lon="6.49395">
        <ele>1819.8</ele>
        <time>2024-08-11T09:53:49Z</time>
      </trkpt>
      <trkpt lat="44.96086" lon="6.49396">
        <ele>1820.4</ele>
        <time>2024-08-11T09:53:50Z</time>
      </trkpt>
      <trkpt lat="44.96086" lon="6.49396">
        <ele>1820.4</ele>
        <time>2024-08-11T09:53:51Z</time>
      </trkpt>
      <trkpt lat="44.96084" lon="6.49396">
        <ele>1820.6</ele>
        <time>2024-08-11T09:53:52Z</time>
      </trkpt>
      <trkpt lat="44.96084" lon="6.49396">
        <ele>1820.8</ele>
        <time>2024-08-11T09:53:53Z</time>
      </trkpt>
      <trkpt lat="44.96084" lon="6.49396">
        <ele>1821</ele>
        <time>2024-08-11T09:53:54Z</time>
      </trkpt>
      <trkpt lat="44.96084" lon="6.49396">
        <ele>1821</ele>
        <time>2024-08-11T09:53:55Z</time>
      </trkpt>
      <trkpt lat="44.96084" lon="6.49396">
        <ele>1821.4</ele>
        <time>2024-08-11T09:53:56Z</time>
      </trkpt>
      <trkpt lat="44.96082" lon="6.49395">
        <ele>1821.4</ele>
        <time>2024-08-11T09:53:57Z</time>
      </trkpt>
      <trkpt lat="44.96082" lon="6.49395">
        <ele>1821.8</ele>
        <time>2024-08-11T09:53:58Z</time>
      </trkpt>
      <trkpt lat="44.96082" lon="6.49395">
        <ele>1822</ele>
        <time>2024-08-11T09:53:59Z</time>
      </trkpt>
      <trkpt lat="44.96082" lon="6.49395">
        <ele>1822</ele>
        <time>2024-08-11T09:54:00Z</time>
      </trkpt>
      <trkpt lat="44.9608" lon="6.49393">
        <ele>1822</ele>
        <time>2024-08-11T09:54:01Z</time>
      </trkpt>
      <trkpt lat="44.9608" lon="6.49393">
        <ele>1822.6</ele>
        <time>2024-08-11T09:54:02Z</time>
      </trkpt>
      <trkpt lat="44.9608" lon="6.49393">
        <ele>1822.6</ele>
        <time>2024-08-11T09:54:03Z</time>
      </trkpt>
      <trkpt lat="44.9608" lon="6.49393">
        <ele>1822.6</ele>
        <time>2024-08-11T09:54:04Z</time>
      </trkpt>
      <trkpt lat="44.9608" lon="6.49393">
        <ele>1823</ele>
        <time>2024-08-11T09:54:05Z</time>
      </trkpt>
      <trkpt lat="44.96078" lon="6.49395">
        <ele>1823.2</ele>
        <time>2024-08-11T09:54:06Z</time>
      </trkpt>
      <trkpt lat="44.96078" lon="6.49395">
        <ele>1823.2</ele>
        <time>2024-08-11T09:54:07Z</time>
      </trkpt>
      <trkpt lat="44.96078" lon="6.49395">
        <ele>1823.8</ele>
        <time>2024-08-11T09:54:08Z</time>
      </trkpt>
      <trkpt lat="44.96078" lon="6.49395">
        <ele>1823.8</ele>
        <time>2024-08-11T09:54:09Z</time>
      </trkpt>
      <trkpt lat="44.96078" lon="6.49395">
        <ele>1823.8</ele>
        <time>2024-08-11T09:54:10Z</time>
      </trkpt>
      <trkpt lat="44.96076" lon="6.49396">
        <ele>1823.8</ele>
        <time>2024-08-11T09:54:11Z</time>
      </trkpt>
      <trkpt lat="44.96076" lon="6.49396">
        <ele>1824.2</ele>
        <time>2024-08-11T09:54:12Z</time>
      </trkpt>
      <trkpt lat="44.96076" lon="6.49396">
        <ele>1824.6</ele>
        <time>2024-08-11T09:54:13Z</time>
      </trkpt>
      <trkpt lat="44.96076" lon="6.49396">
        <ele>1824.6</ele>
        <time>2024-08-11T09:54:14Z</time>
      </trkpt>
      <trkpt lat="44.96076" lon="6.49396">
        <ele>1824.8</ele>
        <time>2024-08-11T09:54:15Z</time>
      </trkpt>
      <trkpt lat="44.96076" lon="6.49396">
        <ele>1825</ele>
        <time>2024-08-11T09:54:16Z</time>
      </trkpt>
      <trkpt lat="44.96076" lon="6.49396">
        <ele>1825</ele>
        <time>2024-08-11T09:54:17Z</time>
      </trkpt>
      <trkpt lat="44.96076" lon="6.49396">
        <ele>1825</ele>
        <time>2024-08-11T09:54:18Z</time>
      </trkpt>
      <trkpt lat="44.96076" lon="6.49396">
        <ele>1825.6</ele>
        <time>2024-08-11T09:54:19Z</time>
      </trkpt>
      <trkpt lat="44.96076" lon="6.49396">
        <ele>1825.6</ele>
        <time>2024-08-11T09:54:20Z</time>
      </trkpt>
      <trkpt lat="44.96076" lon="6.49396">
        <ele>1825.8</ele>
        <time>2024-08-11T09:54:21Z</time>
      </trkpt>
      <trkpt lat="44.96076" lon="6.49396">
        <ele>1825.8</ele>
        <time>2024-08-11T09:54:22Z</time>
      </trkpt>
      <trkpt lat="44.96076" lon="6.49396">
        <ele>1825.8</ele>
        <time>2024-08-11T09:54:23Z</time>
      </trkpt>
      <trkpt lat="44.96076" lon="6.49396">
        <ele>1826.4</ele>
        <time>2024-08-11T09:54:24Z</time>
      </trkpt>
      <trkpt lat="44.96076" lon="6.49396">
        <ele>1826.6</ele>
        <time>2024-08-11T09:54:25Z</time>
      </trkpt>
      <trkpt lat="44.96074" lon="6.49397">
        <ele>1826.6</ele>
        <time>2024-08-11T09:54:26Z</time>
      </trkpt>
      <trkpt lat="44.96074" lon="6.49397">
        <ele>1826.8</ele>
        <time>2024-08-11T09:54:27Z</time>
      </trkpt>
      <trkpt lat="44.96071" lon="6.49397">
        <ele>1827.2</ele>
        <time>2024-08-11T09:54:28Z</time>
      </trkpt>
      <trkpt lat="44.96071" lon="6.49397">
        <ele>1827.2</ele>
        <time>2024-08-11T09:54:29Z</time>
      </trkpt>
      <trkpt lat="44.96069" lon="6.49398">
        <ele>1827.2</ele>
        <time>2024-08-11T09:54:30Z</time>
      </trkpt>
      <trkpt lat="44.96069" lon="6.49398">
        <ele>1827.4</ele>
        <time>2024-08-11T09:54:31Z</time>
      </trkpt>
      <trkpt lat="44.96069" lon="6.49398">
        <ele>1827.6</ele>
        <time>2024-08-11T09:54:32Z</time>
      </trkpt>
      <trkpt lat="44.96069" lon="6.49398">
        <ele>1827.8</ele>
        <time>2024-08-11T09:54:33Z</time>
      </trkpt>
      <trkpt lat="44.96069" lon="6.49398">
        <ele>1828</ele>
        <time>2024-08-11T09:54:34Z</time>
      </trkpt>
      <trkpt lat="44.96067" lon="6.49398">
        <ele>1828.2</ele>
        <time>2024-08-11T09:54:35Z</time>
      </trkpt>
      <trkpt lat="44.96067" lon="6.49398">
        <ele>1828.4</ele>
        <time>2024-08-11T09:54:36Z</time>
      </trkpt>
      <trkpt lat="44.96067" lon="6.49398">
        <ele>1828.6</ele>
        <time>2024-08-11T09:54:37Z</time>
      </trkpt>
      <trkpt lat="44.96067" lon="6.49398">
        <ele>1829</ele>
        <time>2024-08-11T09:54:38Z</time>
      </trkpt>
      <trkpt lat="44.96067" lon="6.49398">
        <ele>1829</ele>
        <time>2024-08-11T09:54:39Z</time>
      </trkpt>
      <trkpt lat="44.96067" lon="6.49398">
        <ele>1829.2</ele>
        <time>2024-08-11T09:54:40Z</time>
      </trkpt>
      <trkpt lat="44.96067" lon="6.49398">
        <ele>1829.4</ele>
        <time>2024-08-11T09:54:41Z</time>
      </trkpt>
      <trkpt lat="44.96067" lon="6.49398">
        <ele>1829.4</ele>
        <time>2024-08-11T09:54:42Z</time>
      </trkpt>
      <trkpt lat="44.96067" lon="6.49398">
        <ele>1829.2</ele>
        <time>2024-08-11T09:54:43Z</time>
      </trkpt>
      <trkpt lat="44.96067" lon="6.49398">
        <ele>1829.2</ele>
        <time>2024-08-11T09:54:44Z</time>
      </trkpt>
      <trkpt lat="44.96067" lon="6.49398">
        <ele>1829.4</ele>
        <time>2024-08-11T09:54:45Z</time>
      </trkpt>
      <trkpt lat="44.96067" lon="6.49398">
        <ele>1829.4</ele>
        <time>2024-08-11T09:54:46Z</time>
      </trkpt>
      <trkpt lat="44.96067" lon="6.49398">
        <ele>1829.4</ele>
        <time>2024-08-11T09:54:47Z</time>
      </trkpt>
      <trkpt lat="44.96067" lon="6.49398">
        <ele>1829.4</ele>
        <time>2024-08-11T09:54:48Z</time>
      </trkpt>
      <trkpt lat="44.96067" lon="6.49398">
        <ele>1829.2</ele>
        <time>2024-08-11T09:54:49Z</time>
      </trkpt>
      <trkpt lat="44.96067" lon="6.49398">
        <ele>1829.2</ele>
        <time>2024-08-11T09:54:50Z</time>
      </trkpt>
      <trkpt lat="44.96067" lon="6.49398">
        <ele>1829.2</ele>
        <time>2024-08-11T09:54:51Z</time>
      </trkpt>
      <trkpt lat="44.96067" lon="6.49398">
        <ele>1829.4</ele>
        <time>2024-08-11T09:54:52Z</time>
      </trkpt>
      <trkpt lat="44.96067" lon="6.49398">
        <ele>1829.6</ele>
        <time>2024-08-11T09:54:53Z</time>
      </trkpt>
      <trkpt lat="44.96067" lon="6.49398">
        <ele>1830</ele>
        <time>2024-08-11T09:54:54Z</time>
      </trkpt>
      <trkpt lat="44.96067" lon="6.49398">
        <ele>1830.2</ele>
        <time>2024-08-11T09:54:55Z</time>
      </trkpt>
      <trkpt lat="44.96067" lon="6.49398">
        <ele>1830.2</ele>
        <time>2024-08-11T09:54:56Z</time>
      </trkpt>
      <trkpt lat="44.96067" lon="6.49398">
        <ele>1830.6</ele>
        <time>2024-08-11T09:54:57Z</time>
      </trkpt>
      <trkpt lat="44.96067" lon="6.49398">
        <ele>1830.6</ele>
        <time>2024-08-11T09:54:58Z</time>
      </trkpt>
      <trkpt lat="44.96064" lon="6.49399">
        <ele>1830.8</ele>
        <time>2024-08-11T09:54:59Z</time>
      </trkpt>
      <trkpt lat="44.96064" lon="6.49399">
        <ele>1830.8</ele>
        <time>2024-08-11T09:55:00Z</time>
      </trkpt>
      <trkpt lat="44.9606" lon="6.494">
        <ele>1831.2</ele>
        <time>2024-08-11T09:55:01Z</time>
      </trkpt>
      <trkpt lat="44.9606" lon="6.494">
        <ele>1831.2</ele>
        <time>2024-08-11T09:55:02Z</time>
      </trkpt>
      <trkpt lat="44.96057" lon="6.49401">
        <ele>1831.2</ele>
        <time>2024-08-11T09:55:03Z</time>
      </trkpt>
      <trkpt lat="44.96057" lon="6.49401">
        <ele>1831.4</ele>
        <time>2024-08-11T09:55:04Z</time>
      </trkpt>
      <trkpt lat="44.96054" lon="6.49401">
        <ele>1831.4</ele>
        <time>2024-08-11T09:55:05Z</time>
      </trkpt>
      <trkpt lat="44.96054" lon="6.49401">
        <ele>1831.6</ele>
        <time>2024-08-11T09:55:06Z</time>
      </trkpt>
      <trkpt lat="44.96054" lon="6.49401">
        <ele>1831.8</ele>
        <time>2024-08-11T09:55:07Z</time>
      </trkpt>
      <trkpt lat="44.96052" lon="6.49401">
        <ele>1832</ele>
        <time>2024-08-11T09:55:08Z</time>
      </trkpt>
      <trkpt lat="44.96052" lon="6.49401">
        <ele>1832</ele>
        <time>2024-08-11T09:55:09Z</time>
      </trkpt>
      <trkpt lat="44.96052" lon="6.49401">
        <ele>1832.4</ele>
        <time>2024-08-11T09:55:10Z</time>
      </trkpt>
      <trkpt lat="44.9605" lon="6.494">
        <ele>1833</ele>
        <time>2024-08-11T09:55:11Z</time>
      </trkpt>
      <trkpt lat="44.9605" lon="6.494">
        <ele>1833</ele>
        <time>2024-08-11T09:55:12Z</time>
      </trkpt>
      <trkpt lat="44.9605" lon="6.494">
        <ele>1833</ele>
        <time>2024-08-11T09:55:13Z</time>
      </trkpt>
      <trkpt lat="44.96048" lon="6.49401">
        <ele>1833</ele>
        <time>2024-08-11T09:55:14Z</time>
      </trkpt>
      <trkpt lat="44.96048" lon="6.49401">
        <ele>1833.2</ele>
        <time>2024-08-11T09:55:15Z</time>
      </trkpt>
      <trkpt lat="44.96048" lon="6.49401">
        <ele>1833.4</ele>
        <time>2024-08-11T09:55:16Z</time>
      </trkpt>
      <trkpt lat="44.96045" lon="6.49402">
        <ele>1833.6</ele>
        <time>2024-08-11T09:55:17Z</time>
      </trkpt>
      <trkpt lat="44.96045" lon="6.49402">
        <ele>1833.8</ele>
        <time>2024-08-11T09:55:18Z</time>
      </trkpt>
      <trkpt lat="44.96045" lon="6.49402">
        <ele>1833.8</ele>
        <time>2024-08-11T09:55:19Z</time>
      </trkpt>
      <trkpt lat="44.96044" lon="6.49404">
        <ele>1834.2</ele>
        <time>2024-08-11T09:55:20Z</time>
      </trkpt>
      <trkpt lat="44.96044" lon="6.49404">
        <ele>1834.4</ele>
        <time>2024-08-11T09:55:21Z</time>
      </trkpt>
      <trkpt lat="44.96044" lon="6.49404">
        <ele>1834.6</ele>
        <time>2024-08-11T09:55:22Z</time>
      </trkpt>
      <trkpt lat="44.96044" lon="6.49404">
        <ele>1834.6</ele>
        <time>2024-08-11T09:55:23Z</time>
      </trkpt>
      <trkpt lat="44.96044" lon="6.49404">
        <ele>1834.6</ele>
        <time>2024-08-11T09:55:24Z</time>
      </trkpt>
      <trkpt lat="44.96042" lon="6.49406">
        <ele>1835.4</ele>
        <time>2024-08-11T09:55:25Z</time>
      </trkpt>
      <trkpt lat="44.96042" lon="6.49406">
        <ele>1835.4</ele>
        <time>2024-08-11T09:55:26Z</time>
      </trkpt>
      <trkpt lat="44.96042" lon="6.49406">
        <ele>1835.6</ele>
        <time>2024-08-11T09:55:27Z</time>
      </trkpt>
      <trkpt lat="44.96042" lon="6.49406">
        <ele>1835.6</ele>
        <time>2024-08-11T09:55:28Z</time>
      </trkpt>
      <trkpt lat="44.9604" lon="6.49407">
        <ele>1835.8</ele>
        <time>2024-08-11T09:55:29Z</time>
      </trkpt>
      <trkpt lat="44.9604" lon="6.49407">
        <ele>1835.8</ele>
        <time>2024-08-11T09:55:30Z</time>
      </trkpt>
      <trkpt lat="44.96038" lon="6.49407">
        <ele>1836.2</ele>
        <time>2024-08-11T09:55:31Z</time>
      </trkpt>
      <trkpt lat="44.96038" lon="6.49407">
        <ele>1836.2</ele>
        <time>2024-08-11T09:55:32Z</time>
      </trkpt>
      <trkpt lat="44.96038" lon="6.49407">
        <ele>1836.2</ele>
        <time>2024-08-11T09:55:33Z</time>
      </trkpt>
      <trkpt lat="44.96038" lon="6.49407">
        <ele>1836.6</ele>
        <time>2024-08-11T09:55:34Z</time>
      </trkpt>
      <trkpt lat="44.96035" lon="6.49408">
        <ele>1837</ele>
        <time>2024-08-11T09:55:35Z</time>
      </trkpt>
      <trkpt lat="44.96035" lon="6.49408">
        <ele>1837</ele>
        <time>2024-08-11T09:55:36Z</time>
      </trkpt>
      <trkpt lat="44.96035" lon="6.49408">
        <ele>1837.6</ele>
        <time>2024-08-11T09:55:37Z</time>
      </trkpt>
      <trkpt lat="44.96035" lon="6.49408">
        <ele>1837.6</ele>
        <time>2024-08-11T09:55:38Z</time>
      </trkpt>
      <trkpt lat="44.96033" lon="6.49409">
        <ele>1837.8</ele>
        <time>2024-08-11T09:55:39Z</time>
      </trkpt>
      <trkpt lat="44.96033" lon="6.49409">
        <ele>1837.8</ele>
        <time>2024-08-11T09:55:40Z</time>
      </trkpt>
      <trkpt lat="44.96033" lon="6.49409">
        <ele>1838.2</ele>
        <time>2024-08-11T09:55:41Z</time>
      </trkpt>
      <trkpt lat="44.96033" lon="6.49409">
        <ele>1838.2</ele>
        <time>2024-08-11T09:55:42Z</time>
      </trkpt>
      <trkpt lat="44.96033" lon="6.49409">
        <ele>1838.2</ele>
        <time>2024-08-11T09:55:43Z</time>
      </trkpt>
      <trkpt lat="44.9603" lon="6.4941">
        <ele>1839</ele>
        <time>2024-08-11T09:55:44Z</time>
      </trkpt>
      <trkpt lat="44.9603" lon="6.4941">
        <ele>1839</ele>
        <time>2024-08-11T09:55:45Z</time>
      </trkpt>
      <trkpt lat="44.9603" lon="6.4941">
        <ele>1839.2</ele>
        <time>2024-08-11T09:55:46Z</time>
      </trkpt>
      <trkpt lat="44.96028" lon="6.49411">
        <ele>1839.6</ele>
        <time>2024-08-11T09:55:47Z</time>
      </trkpt>
      <trkpt lat="44.96028" lon="6.49411">
        <ele>1839.8</ele>
        <time>2024-08-11T09:55:48Z</time>
      </trkpt>
      <trkpt lat="44.96028" lon="6.49411">
        <ele>1840.2</ele>
        <time>2024-08-11T09:55:49Z</time>
      </trkpt>
      <trkpt lat="44.96028" lon="6.49411">
        <ele>1840.6</ele>
        <time>2024-08-11T09:55:50Z</time>
      </trkpt>
      <trkpt lat="44.96028" lon="6.49411">
        <ele>1840.6</ele>
        <time>2024-08-11T09:55:51Z</time>
      </trkpt>
      <trkpt lat="44.96027" lon="6.49413">
        <ele>1840.8</ele>
        <time>2024-08-11T09:55:52Z</time>
      </trkpt>
      <trkpt lat="44.96027" lon="6.49413">
        <ele>1841</ele>
        <time>2024-08-11T09:55:53Z</time>
      </trkpt>
      <trkpt lat="44.96027" lon="6.49413">
        <ele>1841.2</ele>
        <time>2024-08-11T09:55:54Z</time>
      </trkpt>
      <trkpt lat="44.96027" lon="6.49413">
        <ele>1841.4</ele>
        <time>2024-08-11T09:55:55Z</time>
      </trkpt>
      <trkpt lat="44.96027" lon="6.49413">
        <ele>1841.4</ele>
        <time>2024-08-11T09:55:56Z</time>
      </trkpt>
      <trkpt lat="44.96027" lon="6.49413">
        <ele>1841.8</ele>
        <time>2024-08-11T09:55:57Z</time>
      </trkpt>
      <trkpt lat="44.96024" lon="6.49414">
        <ele>1842.2</ele>
        <time>2024-08-11T09:55:58Z</time>
      </trkpt>
      <trkpt lat="44.96024" lon="6.49414">
        <ele>1842.2</ele>
        <time>2024-08-11T09:55:59Z</time>
      </trkpt>
      <trkpt lat="44.96024" lon="6.49414">
        <ele>1842.4</ele>
        <time>2024-08-11T09:56:00Z</time>
      </trkpt>
      <trkpt lat="44.96024" lon="6.49414">
        <ele>1842.6</ele>
        <time>2024-08-11T09:56:01Z</time>
      </trkpt>
      <trkpt lat="44.96024" lon="6.49414">
        <ele>1842.8</ele>
        <time>2024-08-11T09:56:02Z</time>
      </trkpt>
      <trkpt lat="44.96022" lon="6.49415">
        <ele>1842.8</ele>
        <time>2024-08-11T09:56:03Z</time>
      </trkpt>
      <trkpt lat="44.96022" lon="6.49415">
        <ele>1843.4</ele>
        <time>2024-08-11T09:56:04Z</time>
      </trkpt>
      <trkpt lat="44.96022" lon="6.49415">
        <ele>1843.4</ele>
        <time>2024-08-11T09:56:05Z</time>
      </trkpt>
      <trkpt lat="44.96021" lon="6.49415">
        <ele>1843.4</ele>
        <time>2024-08-11T09:56:06Z</time>
      </trkpt>
      <trkpt lat="44.96021" lon="6.49415">
        <ele>1843.8</ele>
        <time>2024-08-11T09:56:07Z</time>
      </trkpt>
      <trkpt lat="44.96021" lon="6.49415">
        <ele>1844</ele>
        <time>2024-08-11T09:56:08Z</time>
      </trkpt>
      <trkpt lat="44.96021" lon="6.49415">
        <ele>1844.2</ele>
        <time>2024-08-11T09:56:09Z</time>
      </trkpt>
      <trkpt lat="44.96018" lon="6.49415">
        <ele>1844.4</ele>
        <time>2024-08-11T09:56:10Z</time>
      </trkpt>
      <trkpt lat="44.96018" lon="6.49415">
        <ele>1844.6</ele>
        <time>2024-08-11T09:56:11Z</time>
      </trkpt>
      <trkpt lat="44.96018" lon="6.49415">
        <ele>1845.2</ele>
        <time>2024-08-11T09:56:12Z</time>
      </trkpt>
      <trkpt lat="44.96018" lon="6.49415">
        <ele>1845.4</ele>
        <time>2024-08-11T09:56:13Z</time>
      </trkpt>
      <trkpt lat="44.96018" lon="6.49415">
        <ele>1845.4</ele>
        <time>2024-08-11T09:56:14Z</time>
      </trkpt>
      <trkpt lat="44.96018" lon="6.49415">
        <ele>1845.4</ele>
        <time>2024-08-11T09:56:15Z</time>
      </trkpt>
      <trkpt lat="44.96018" lon="6.49415">
        <ele>1845.8</ele>
        <time>2024-08-11T09:56:16Z</time>
      </trkpt>
      <trkpt lat="44.96018" lon="6.49415">
        <ele>1846</ele>
        <time>2024-08-11T09:56:17Z</time>
      </trkpt>
      <trkpt lat="44.96016" lon="6.49414">
        <ele>1846</ele>
        <time>2024-08-11T09:56:18Z</time>
      </trkpt>
      <trkpt lat="44.96016" lon="6.49414">
        <ele>1846</ele>
        <time>2024-08-11T09:56:19Z</time>
      </trkpt>
      <trkpt lat="44.96014" lon="6.49415">
        <ele>1846.2</ele>
        <time>2024-08-11T09:56:20Z</time>
      </trkpt>
      <trkpt lat="44.96014" lon="6.49415">
        <ele>1846.4</ele>
        <time>2024-08-11T09:56:21Z</time>
      </trkpt>
      <trkpt lat="44.96014" lon="6.49415">
        <ele>1846.6</ele>
        <time>2024-08-11T09:56:22Z</time>
      </trkpt>
      <trkpt lat="44.96014" lon="6.49415">
        <ele>1846.8</ele>
        <time>2024-08-11T09:56:23Z</time>
      </trkpt>
      <trkpt lat="44.96012" lon="6.49415">
        <ele>1847</ele>
        <time>2024-08-11T09:56:24Z</time>
      </trkpt>
      <trkpt lat="44.96012" lon="6.49415">
        <ele>1847.4</ele>
        <time>2024-08-11T09:56:25Z</time>
      </trkpt>
      <trkpt lat="44.9601" lon="6.49415">
        <ele>1847.6</ele>
        <time>2024-08-11T09:56:26Z</time>
      </trkpt>
      <trkpt lat="44.9601" lon="6.49415">
        <ele>1847.6</ele>
        <time>2024-08-11T09:56:27Z</time>
      </trkpt>
      <trkpt lat="44.9601" lon="6.49415">
        <ele>1847.8</ele>
        <time>2024-08-11T09:56:28Z</time>
      </trkpt>
      <trkpt lat="44.9601" lon="6.49415">
        <ele>1848.2</ele>
        <time>2024-08-11T09:56:29Z</time>
      </trkpt>
      <trkpt lat="44.9601" lon="6.49415">
        <ele>1848.2</ele>
        <time>2024-08-11T09:56:30Z</time>
      </trkpt>
      <trkpt lat="44.96008" lon="6.49417">
        <ele>1848.2</ele>
        <time>2024-08-11T09:56:31Z</time>
      </trkpt>
      <trkpt lat="44.96008" lon="6.49417">
        <ele>1848.6</ele>
        <time>2024-08-11T09:56:32Z</time>
      </trkpt>
      <trkpt lat="44.96008" lon="6.49417">
        <ele>1848.6</ele>
        <time>2024-08-11T09:56:33Z</time>
      </trkpt>
      <trkpt lat="44.96008" lon="6.49417">
        <ele>1848.6</ele>
        <time>2024-08-11T09:56:34Z</time>
      </trkpt>
      <trkpt lat="44.96006" lon="6.49417">
        <ele>1849</ele>
        <time>2024-08-11T09:56:35Z</time>
      </trkpt>
      <trkpt lat="44.96006" lon="6.49417">
        <ele>1849.4</ele>
        <time>2024-08-11T09:56:36Z</time>
      </trkpt>
      <trkpt lat="44.96006" lon="6.49417">
        <ele>1849.4</ele>
        <time>2024-08-11T09:56:37Z</time>
      </trkpt>
      <trkpt lat="44.96006" lon="6.49417">
        <ele>1849.4</ele>
        <time>2024-08-11T09:56:38Z</time>
      </trkpt>
      <trkpt lat="44.96005" lon="6.49416">
        <ele>1850</ele>
        <time>2024-08-11T09:56:39Z</time>
      </trkpt>
      <trkpt lat="44.96005" lon="6.49416">
        <ele>1850.2</ele>
        <time>2024-08-11T09:56:40Z</time>
      </trkpt>
      <trkpt lat="44.96005" lon="6.49416">
        <ele>1850.4</ele>
        <time>2024-08-11T09:56:41Z</time>
      </trkpt>
      <trkpt lat="44.96005" lon="6.49416">
        <ele>1850.6</ele>
        <time>2024-08-11T09:56:42Z</time>
      </trkpt>
      <trkpt lat="44.96005" lon="6.49416">
        <ele>1850.8</ele>
        <time>2024-08-11T09:56:43Z</time>
      </trkpt>
      <trkpt lat="44.96003" lon="6.49416">
        <ele>1851</ele>
        <time>2024-08-11T09:56:44Z</time>
      </trkpt>
      <trkpt lat="44.96003" lon="6.49416">
        <ele>1851</ele>
        <time>2024-08-11T09:56:45Z</time>
      </trkpt>
      <trkpt lat="44.96" lon="6.49416">
        <ele>1851</ele>
        <time>2024-08-11T09:56:46Z</time>
      </trkpt>
      <trkpt lat="44.96" lon="6.49416">
        <ele>1851</ele>
        <time>2024-08-11T09:56:47Z</time>
      </trkpt>
      <trkpt lat="44.95998" lon="6.49416">
        <ele>1851.4</ele>
        <time>2024-08-11T09:56:48Z</time>
      </trkpt>
      <trkpt lat="44.95998" lon="6.49416">
        <ele>1851.6</ele>
        <time>2024-08-11T09:56:49Z</time>
      </trkpt>
      <trkpt lat="44.95998" lon="6.49416">
        <ele>1852.2</ele>
        <time>2024-08-11T09:56:50Z</time>
      </trkpt>
      <trkpt lat="44.95997" lon="6.49419">
        <ele>1852.2</ele>
        <time>2024-08-11T09:56:51Z</time>
      </trkpt>
      <trkpt lat="44.95997" lon="6.49419">
        <ele>1852.4</ele>
        <time>2024-08-11T09:56:52Z</time>
      </trkpt>
      <trkpt lat="44.95997" lon="6.49419">
        <ele>1852.4</ele>
        <time>2024-08-11T09:56:53Z</time>
      </trkpt>
      <trkpt lat="44.95997" lon="6.49419">
        <ele>1852.8</ele>
        <time>2024-08-11T09:56:54Z</time>
      </trkpt>
      <trkpt lat="44.95995" lon="6.49421">
        <ele>1853</ele>
        <time>2024-08-11T09:56:55Z</time>
      </trkpt>
      <trkpt lat="44.95995" lon="6.49421">
        <ele>1853.2</ele>
        <time>2024-08-11T09:56:56Z</time>
      </trkpt>
      <trkpt lat="44.95995" lon="6.49421">
        <ele>1853.6</ele>
        <time>2024-08-11T09:56:57Z</time>
      </trkpt>
      <trkpt lat="44.95993" lon="6.49421">
        <ele>1853.8</ele>
        <time>2024-08-11T09:56:58Z</time>
      </trkpt>
      <trkpt lat="44.95993" lon="6.49421">
        <ele>1854</ele>
        <time>2024-08-11T09:56:59Z</time>
      </trkpt>
      <trkpt lat="44.95993" lon="6.49421">
        <ele>1854</ele>
        <time>2024-08-11T09:57:00Z</time>
      </trkpt>
      <trkpt lat="44.9599" lon="6.49421">
        <ele>1854.4</ele>
        <time>2024-08-11T09:57:01Z</time>
      </trkpt>
      <trkpt lat="44.9599" lon="6.49421">
        <ele>1855</ele>
        <time>2024-08-11T09:57:02Z</time>
      </trkpt>
      <trkpt lat="44.9599" lon="6.49421">
        <ele>1855</ele>
        <time>2024-08-11T09:57:03Z</time>
      </trkpt>
      <trkpt lat="44.95988" lon="6.49422">
        <ele>1855</ele>
        <time>2024-08-11T09:57:04Z</time>
      </trkpt>
      <trkpt lat="44.95988" lon="6.49422">
        <ele>1855</ele>
        <time>2024-08-11T09:57:05Z</time>
      </trkpt>
      <trkpt lat="44.95988" lon="6.49422">
        <ele>1855.2</ele>
        <time>2024-08-11T09:57:06Z</time>
      </trkpt>
      <trkpt lat="44.95985" lon="6.49421">
        <ele>1855.2</ele>
        <time>2024-08-11T09:57:07Z</time>
      </trkpt>
      <trkpt lat="44.95985" lon="6.49421">
        <ele>1855.6</ele>
        <time>2024-08-11T09:57:08Z</time>
      </trkpt>
      <trkpt lat="44.95985" lon="6.49421">
        <ele>1855.6</ele>
        <time>2024-08-11T09:57:09Z</time>
      </trkpt>
      <trkpt lat="44.95985" lon="6.49421">
        <ele>1855.6</ele>
        <time>2024-08-11T09:57:10Z</time>
      </trkpt>
      <trkpt lat="44.95985" lon="6.49421">
        <ele>1856.4</ele>
        <time>2024-08-11T09:57:11Z</time>
      </trkpt>
      <trkpt lat="44.95983" lon="6.49421">
        <ele>1856.4</ele>
        <time>2024-08-11T09:57:12Z</time>
      </trkpt>
      <trkpt lat="44.95983" lon="6.49421">
        <ele>1856.6</ele>
        <time>2024-08-11T09:57:13Z</time>
      </trkpt>
      <trkpt lat="44.95983" lon="6.49421">
        <ele>1856.8</ele>
        <time>2024-08-11T09:57:14Z</time>
      </trkpt>
      <trkpt lat="44.95983" lon="6.49421">
        <ele>1857</ele>
        <time>2024-08-11T09:57:15Z</time>
      </trkpt>
      <trkpt lat="44.95981" lon="6.4942">
        <ele>1857.2</ele>
        <time>2024-08-11T09:57:16Z</time>
      </trkpt>
      <trkpt lat="44.95981" lon="6.4942">
        <ele>1857.4</ele>
        <time>2024-08-11T09:57:17Z</time>
      </trkpt>
      <trkpt lat="44.95981" lon="6.4942">
        <ele>1857.6</ele>
        <time>2024-08-11T09:57:18Z</time>
      </trkpt>
      <trkpt lat="44.95979" lon="6.49418">
        <ele>1857.8</ele>
        <time>2024-08-11T09:57:19Z</time>
      </trkpt>
      <trkpt lat="44.95979" lon="6.49418">
        <ele>1858.2</ele>
        <time>2024-08-11T09:57:20Z</time>
      </trkpt>
      <trkpt lat="44.95979" lon="6.49418">
        <ele>1858.4</ele>
        <time>2024-08-11T09:57:21Z</time>
      </trkpt>
      <trkpt lat="44.95979" lon="6.49418">
        <ele>1858.4</ele>
        <time>2024-08-11T09:57:22Z</time>
      </trkpt>
      <trkpt lat="44.95979" lon="6.49418">
        <ele>1858.6</ele>
        <time>2024-08-11T09:57:23Z</time>
      </trkpt>
      <trkpt lat="44.95979" lon="6.49418">
        <ele>1859</ele>
        <time>2024-08-11T09:57:24Z</time>
      </trkpt>
      <trkpt lat="44.95977" lon="6.49416">
        <ele>1859</ele>
        <time>2024-08-11T09:57:25Z</time>
      </trkpt>
      <trkpt lat="44.95977" lon="6.49416">
        <ele>1859.2</ele>
        <time>2024-08-11T09:57:26Z</time>
      </trkpt>
      <trkpt lat="44.95977" lon="6.49416">
        <ele>1859.4</ele>
        <time>2024-08-11T09:57:27Z</time>
      </trkpt>
      <trkpt lat="44.95975" lon="6.49417">
        <ele>1859.6</ele>
        <time>2024-08-11T09:57:28Z</time>
      </trkpt>
      <trkpt lat="44.95975" lon="6.49417">
        <ele>1859.8</ele>
        <time>2024-08-11T09:57:29Z</time>
      </trkpt>
      <trkpt lat="44.95975" lon="6.49417">
        <ele>1860</ele>
        <time>2024-08-11T09:57:30Z</time>
      </trkpt>
      <trkpt lat="44.95975" lon="6.49417">
        <ele>1860.4</ele>
        <time>2024-08-11T09:57:31Z</time>
      </trkpt>
      <trkpt lat="44.95975" lon="6.49417">
        <ele>1860.6</ele>
        <time>2024-08-11T09:57:32Z</time>
      </trkpt>
      <trkpt lat="44.95975" lon="6.49417">
        <ele>1860.6</ele>
        <time>2024-08-11T09:57:33Z</time>
      </trkpt>
      <trkpt lat="44.95975" lon="6.49417">
        <ele>1861</ele>
        <time>2024-08-11T09:57:34Z</time>
      </trkpt>
      <trkpt lat="44.95973" lon="6.49418">
        <ele>1861.2</ele>
        <time>2024-08-11T09:57:35Z</time>
      </trkpt>
      <trkpt lat="44.95973" lon="6.49418">
        <ele>1861.2</ele>
        <time>2024-08-11T09:57:36Z</time>
      </trkpt>
      <trkpt lat="44.95973" lon="6.49418">
        <ele>1861.4</ele>
        <time>2024-08-11T09:57:37Z</time>
      </trkpt>
      <trkpt lat="44.95971" lon="6.4942">
        <ele>1861.6</ele>
        <time>2024-08-11T09:57:38Z</time>
      </trkpt>
      <trkpt lat="44.95971" lon="6.4942">
        <ele>1861.8</ele>
        <time>2024-08-11T09:57:39Z</time>
      </trkpt>
      <trkpt lat="44.95971" lon="6.4942">
        <ele>1862</ele>
        <time>2024-08-11T09:57:40Z</time>
      </trkpt>
      <trkpt lat="44.9597" lon="6.49422">
        <ele>1862</ele>
        <time>2024-08-11T09:57:41Z</time>
      </trkpt>
      <trkpt lat="44.9597" lon="6.49422">
        <ele>1862.2</ele>
        <time>2024-08-11T09:57:42Z</time>
      </trkpt>
      <trkpt lat="44.9597" lon="6.49422">
        <ele>1862.4</ele>
        <time>2024-08-11T09:57:43Z</time>
      </trkpt>
      <trkpt lat="44.9597" lon="6.49422">
        <ele>1862.6</ele>
        <time>2024-08-11T09:57:44Z</time>
      </trkpt>
      <trkpt lat="44.95968" lon="6.49421">
        <ele>1862.8</ele>
        <time>2024-08-11T09:57:45Z</time>
      </trkpt>
      <trkpt lat="44.95968" lon="6.49421">
        <ele>1863</ele>
        <time>2024-08-11T09:57:46Z</time>
      </trkpt>
      <trkpt lat="44.95968" lon="6.49421">
        <ele>1863</ele>
        <time>2024-08-11T09:57:47Z</time>
      </trkpt>
      <trkpt lat="44.95968" lon="6.49421">
        <ele>1863.4</ele>
        <time>2024-08-11T09:57:48Z</time>
      </trkpt>
      <trkpt lat="44.95968" lon="6.49421">
        <ele>1863.6</ele>
        <time>2024-08-11T09:57:49Z</time>
      </trkpt>
      <trkpt lat="44.95968" lon="6.49421">
        <ele>1863.6</ele>
        <time>2024-08-11T09:57:50Z</time>
      </trkpt>
      <trkpt lat="44.95968" lon="6.49421">
        <ele>1863.8</ele>
        <time>2024-08-11T09:57:51Z</time>
      </trkpt>
      <trkpt lat="44.95968" lon="6.49421">
        <ele>1864</ele>
        <time>2024-08-11T09:57:52Z</time>
      </trkpt>
      <trkpt lat="44.95965" lon="6.49421">
        <ele>1864.4</ele>
        <time>2024-08-11T09:57:53Z</time>
      </trkpt>
      <trkpt lat="44.95965" lon="6.49421">
        <ele>1864.6</ele>
        <time>2024-08-11T09:57:54Z</time>
      </trkpt>
      <trkpt lat="44.95965" lon="6.49421">
        <ele>1864.8</ele>
        <time>2024-08-11T09:57:55Z</time>
      </trkpt>
      <trkpt lat="44.95965" lon="6.49421">
        <ele>1865</ele>
        <time>2024-08-11T09:57:56Z</time>
      </trkpt>
      <trkpt lat="44.95965" lon="6.49421">
        <ele>1865</ele>
        <time>2024-08-11T09:57:57Z</time>
      </trkpt>
      <trkpt lat="44.95965" lon="6.49421">
        <ele>1865.2</ele>
        <time>2024-08-11T09:57:58Z</time>
      </trkpt>
      <trkpt lat="44.95965" lon="6.49421">
        <ele>1865.4</ele>
        <time>2024-08-11T09:57:59Z</time>
      </trkpt>
      <trkpt lat="44.95965" lon="6.49421">
        <ele>1865.6</ele>
        <time>2024-08-11T09:58:00Z</time>
      </trkpt>
      <trkpt lat="44.95963" lon="6.49421">
        <ele>1865.6</ele>
        <time>2024-08-11T09:58:01Z</time>
      </trkpt>
      <trkpt lat="44.95963" lon="6.49421">
        <ele>1866.6</ele>
        <time>2024-08-11T09:58:02Z</time>
      </trkpt>
      <trkpt lat="44.95961" lon="6.49422">
        <ele>1866.6</ele>
        <time>2024-08-11T09:58:03Z</time>
      </trkpt>
      <trkpt lat="44.95961" lon="6.49422">
        <ele>1866.6</ele>
        <time>2024-08-11T09:58:04Z</time>
      </trkpt>
      <trkpt lat="44.95961" lon="6.49422">
        <ele>1866.6</ele>
        <time>2024-08-11T09:58:05Z</time>
      </trkpt>
      <trkpt lat="44.95959" lon="6.49423">
        <ele>1866.8</ele>
        <time>2024-08-11T09:58:06Z</time>
      </trkpt>
      <trkpt lat="44.95959" lon="6.49423">
        <ele>1866.8</ele>
        <time>2024-08-11T09:58:07Z</time>
      </trkpt>
      <trkpt lat="44.95959" lon="6.49423">
        <ele>1867</ele>
        <time>2024-08-11T09:58:08Z</time>
      </trkpt>
      <trkpt lat="44.95959" lon="6.49423">
        <ele>1867.4</ele>
        <time>2024-08-11T09:58:09Z</time>
      </trkpt>
      <trkpt lat="44.95957" lon="6.49424">
        <ele>1867.4</ele>
        <time>2024-08-11T09:58:10Z</time>
      </trkpt>
      <trkpt lat="44.95957" lon="6.49424">
        <ele>1867.6</ele>
        <time>2024-08-11T09:58:11Z</time>
      </trkpt>
      <trkpt lat="44.95957" lon="6.49424">
        <ele>1867.8</ele>
        <time>2024-08-11T09:58:12Z</time>
      </trkpt>
      <trkpt lat="44.95957" lon="6.49424">
        <ele>1868.4</ele>
        <time>2024-08-11T09:58:13Z</time>
      </trkpt>
      <trkpt lat="44.95955" lon="6.49425">
        <ele>1868.4</ele>
        <time>2024-08-11T09:58:14Z</time>
      </trkpt>
      <trkpt lat="44.95955" lon="6.49425">
        <ele>1868.4</ele>
        <time>2024-08-11T09:58:15Z</time>
      </trkpt>
      <trkpt lat="44.95955" lon="6.49425">
        <ele>1868.8</ele>
        <time>2024-08-11T09:58:16Z</time>
      </trkpt>
      <trkpt lat="44.95953" lon="6.49425">
        <ele>1869</ele>
        <time>2024-08-11T09:58:17Z</time>
      </trkpt>
      <trkpt lat="44.95953" lon="6.49425">
        <ele>1869</ele>
        <time>2024-08-11T09:58:18Z</time>
      </trkpt>
      <trkpt lat="44.95953" lon="6.49425">
        <ele>1869.4</ele>
        <time>2024-08-11T09:58:19Z</time>
      </trkpt>
      <trkpt lat="44.95951" lon="6.49425">
        <ele>1869.4</ele>
        <time>2024-08-11T09:58:20Z</time>
      </trkpt>
      <trkpt lat="44.95951" lon="6.49425">
        <ele>1869.6</ele>
        <time>2024-08-11T09:58:21Z</time>
      </trkpt>
      <trkpt lat="44.95951" lon="6.49425">
        <ele>1870</ele>
        <time>2024-08-11T09:58:22Z</time>
      </trkpt>
      <trkpt lat="44.95951" lon="6.49425">
        <ele>1870.2</ele>
        <time>2024-08-11T09:58:23Z</time>
      </trkpt>
      <trkpt lat="44.9595" lon="6.49428">
        <ele>1870.4</ele>
        <time>2024-08-11T09:58:24Z</time>
      </trkpt>
      <trkpt lat="44.9595" lon="6.49428">
        <ele>1870.4</ele>
        <time>2024-08-11T09:58:25Z</time>
      </trkpt>
      <trkpt lat="44.9595" lon="6.49428">
        <ele>1870.8</ele>
        <time>2024-08-11T09:58:26Z</time>
      </trkpt>
      <trkpt lat="44.9595" lon="6.49428">
        <ele>1871</ele>
        <time>2024-08-11T09:58:27Z</time>
      </trkpt>
      <trkpt lat="44.95948" lon="6.49429">
        <ele>1871.4</ele>
        <time>2024-08-11T09:58:28Z</time>
      </trkpt>
      <trkpt lat="44.95948" lon="6.49429">
        <ele>1871.6</ele>
        <time>2024-08-11T09:58:29Z</time>
      </trkpt>
      <trkpt lat="44.95948" lon="6.49429">
        <ele>1871.6</ele>
        <time>2024-08-11T09:58:30Z</time>
      </trkpt>
      <trkpt lat="44.95948" lon="6.49429">
        <ele>1871.6</ele>
        <time>2024-08-11T09:58:31Z</time>
      </trkpt>
      <trkpt lat="44.95948" lon="6.49429">
        <ele>1871.6</ele>
        <time>2024-08-11T09:58:32Z</time>
      </trkpt>
      <trkpt lat="44.95946" lon="6.4943">
        <ele>1872.2</ele>
        <time>2024-08-11T09:58:33Z</time>
      </trkpt>
      <trkpt lat="44.95946" lon="6.4943">
        <ele>1872.2</ele>
        <time>2024-08-11T09:58:34Z</time>
      </trkpt>
      <trkpt lat="44.95946" lon="6.4943">
        <ele>1872.4</ele>
        <time>2024-08-11T09:58:35Z</time>
      </trkpt>
      <trkpt lat="44.95946" lon="6.4943">
        <ele>1872.8</ele>
        <time>2024-08-11T09:58:36Z</time>
      </trkpt>
      <trkpt lat="44.95944" lon="6.49429">
        <ele>1872.8</ele>
        <time>2024-08-11T09:58:37Z</time>
      </trkpt>
      <trkpt lat="44.95944" lon="6.49429">
        <ele>1873.2</ele>
        <time>2024-08-11T09:58:38Z</time>
      </trkpt>
      <trkpt lat="44.95944" lon="6.49429">
        <ele>1873.2</ele>
        <time>2024-08-11T09:58:39Z</time>
      </trkpt>
      <trkpt lat="44.95942" lon="6.49429">
        <ele>1873.6</ele>
        <time>2024-08-11T09:58:40Z</time>
      </trkpt>
      <trkpt lat="44.95942" lon="6.49429">
        <ele>1874</ele>
        <time>2024-08-11T09:58:41Z</time>
      </trkpt>
      <trkpt lat="44.95941" lon="6.4943">
        <ele>1874.2</ele>
        <time>2024-08-11T09:58:42Z</time>
      </trkpt>
      <trkpt lat="44.95941" lon="6.4943">
        <ele>1874.2</ele>
        <time>2024-08-11T09:58:43Z</time>
      </trkpt>
      <trkpt lat="44.95939" lon="6.49431">
        <ele>1874.8</ele>
        <time>2024-08-11T09:58:44Z</time>
      </trkpt>
      <trkpt lat="44.95939" lon="6.49431">
        <ele>1874.8</ele>
        <time>2024-08-11T09:58:45Z</time>
      </trkpt>
      <trkpt lat="44.95939" lon="6.49431">
        <ele>1874.8</ele>
        <time>2024-08-11T09:58:46Z</time>
      </trkpt>
      <trkpt lat="44.95937" lon="6.49432">
        <ele>1875.2</ele>
        <time>2024-08-11T09:58:47Z</time>
      </trkpt>
      <trkpt lat="44.95937" lon="6.49432">
        <ele>1875.6</ele>
        <time>2024-08-11T09:58:48Z</time>
      </trkpt>
      <trkpt lat="44.95937" lon="6.49432">
        <ele>1875.6</ele>
        <time>2024-08-11T09:58:49Z</time>
      </trkpt>
      <trkpt lat="44.95937" lon="6.49432">
        <ele>1875.8</ele>
        <time>2024-08-11T09:58:50Z</time>
      </trkpt>
      <trkpt lat="44.95935" lon="6.49432">
        <ele>1875.8</ele>
        <time>2024-08-11T09:58:51Z</time>
      </trkpt>
      <trkpt lat="44.95935" lon="6.49432">
        <ele>1876</ele>
        <time>2024-08-11T09:58:52Z</time>
      </trkpt>
      <trkpt lat="44.95935" lon="6.49432">
        <ele>1876.2</ele>
        <time>2024-08-11T09:58:53Z</time>
      </trkpt>
      <trkpt lat="44.95935" lon="6.49432">
        <ele>1876.6</ele>
        <time>2024-08-11T09:58:54Z</time>
      </trkpt>
      <trkpt lat="44.95933" lon="6.49431">
        <ele>1876.8</ele>
        <time>2024-08-11T09:58:55Z</time>
      </trkpt>
      <trkpt lat="44.95933" lon="6.49431">
        <ele>1877</ele>
        <time>2024-08-11T09:58:56Z</time>
      </trkpt>
      <trkpt lat="44.95933" lon="6.49431">
        <ele>1877.4</ele>
        <time>2024-08-11T09:58:57Z</time>
      </trkpt>
      <trkpt lat="44.95931" lon="6.4943">
        <ele>1877.8</ele>
        <time>2024-08-11T09:58:58Z</time>
      </trkpt>
      <trkpt lat="44.95931" lon="6.4943">
        <ele>1877.8</ele>
        <time>2024-08-11T09:58:59Z</time>
      </trkpt>
      <trkpt lat="44.95931" lon="6.4943">
        <ele>1878</ele>
        <time>2024-08-11T09:59:00Z</time>
      </trkpt>
      <trkpt lat="44.95929" lon="6.4943">
        <ele>1878.4</ele>
        <time>2024-08-11T09:59:01Z</time>
      </trkpt>
      <trkpt lat="44.95929" lon="6.4943">
        <ele>1878.6</ele>
        <time>2024-08-11T09:59:02Z</time>
      </trkpt>
      <trkpt lat="44.95929" lon="6.4943">
        <ele>1878.6</ele>
        <time>2024-08-11T09:59:03Z</time>
      </trkpt>
      <trkpt lat="44.95927" lon="6.4943">
        <ele>1878.6</ele>
        <time>2024-08-11T09:59:04Z</time>
      </trkpt>
      <trkpt lat="44.95927" lon="6.4943">
        <ele>1879</ele>
        <time>2024-08-11T09:59:05Z</time>
      </trkpt>
      <trkpt lat="44.95927" lon="6.4943">
        <ele>1879</ele>
        <time>2024-08-11T09:59:06Z</time>
      </trkpt>
      <trkpt lat="44.95924" lon="6.49429">
        <ele>1879</ele>
        <time>2024-08-11T09:59:07Z</time>
      </trkpt>
      <trkpt lat="44.95924" lon="6.49429">
        <ele>1879</ele>
        <time>2024-08-11T09:59:08Z</time>
      </trkpt>
      <trkpt lat="44.95924" lon="6.49429">
        <ele>1879.2</ele>
        <time>2024-08-11T09:59:09Z</time>
      </trkpt>
      <trkpt lat="44.95921" lon="6.49429">
        <ele>1879.4</ele>
        <time>2024-08-11T09:59:10Z</time>
      </trkpt>
      <trkpt lat="44.95921" lon="6.49429">
        <ele>1879.8</ele>
        <time>2024-08-11T09:59:11Z</time>
      </trkpt>
      <trkpt lat="44.95919" lon="6.4943">
        <ele>1880</ele>
        <time>2024-08-11T09:59:12Z</time>
      </trkpt>
      <trkpt lat="44.95919" lon="6.4943">
        <ele>1880</ele>
        <time>2024-08-11T09:59:13Z</time>
      </trkpt>
      <trkpt lat="44.95919" lon="6.4943">
        <ele>1880.2</ele>
        <time>2024-08-11T09:59:14Z</time>
      </trkpt>
      <trkpt lat="44.95918" lon="6.49432">
        <ele>1880.2</ele>
        <time>2024-08-11T09:59:15Z</time>
      </trkpt>
      <trkpt lat="44.95918" lon="6.49432">
        <ele>1880.4</ele>
        <time>2024-08-11T09:59:16Z</time>
      </trkpt>
      <trkpt lat="44.95918" lon="6.49432">
        <ele>1880.6</ele>
        <time>2024-08-11T09:59:17Z</time>
      </trkpt>
      <trkpt lat="44.95918" lon="6.49432">
        <ele>1880.6</ele>
        <time>2024-08-11T09:59:18Z</time>
      </trkpt>
      <trkpt lat="44.95916" lon="6.49433">
        <ele>1880.6</ele>
        <time>2024-08-11T09:59:19Z</time>
      </trkpt>
      <trkpt lat="44.95916" lon="6.49433">
        <ele>1880.8</ele>
        <time>2024-08-11T09:59:20Z</time>
      </trkpt>
      <trkpt lat="44.95916" lon="6.49433">
        <ele>1881.4</ele>
        <time>2024-08-11T09:59:21Z</time>
      </trkpt>
      <trkpt lat="44.95916" lon="6.49433">
        <ele>1881.4</ele>
        <time>2024-08-11T09:59:22Z</time>
      </trkpt>
      <trkpt lat="44.95916" lon="6.49433">
        <ele>1881.6</ele>
        <time>2024-08-11T09:59:23Z</time>
      </trkpt>
      <trkpt lat="44.95915" lon="6.49436">
        <ele>1881.8</ele>
        <time>2024-08-11T09:59:24Z</time>
      </trkpt>
      <trkpt lat="44.95915" lon="6.49436">
        <ele>1882</ele>
        <time>2024-08-11T09:59:25Z</time>
      </trkpt>
      <trkpt lat="44.95915" lon="6.49436">
        <ele>1882.6</ele>
        <time>2024-08-11T09:59:26Z</time>
      </trkpt>
      <trkpt lat="44.95913" lon="6.49437">
        <ele>1882.6</ele>
        <time>2024-08-11T09:59:27Z</time>
      </trkpt>
      <trkpt lat="44.95913" lon="6.49437">
        <ele>1882.8</ele>
        <time>2024-08-11T09:59:28Z</time>
      </trkpt>
      <trkpt lat="44.95913" lon="6.49437">
        <ele>1883</ele>
        <time>2024-08-11T09:59:29Z</time>
      </trkpt>
      <trkpt lat="44.95911" lon="6.49437">
        <ele>1883.4</ele>
        <time>2024-08-11T09:59:30Z</time>
      </trkpt>
      <trkpt lat="44.95911" lon="6.49437">
        <ele>1883.4</ele>
        <time>2024-08-11T09:59:31Z</time>
      </trkpt>
      <trkpt lat="44.95911" lon="6.49437">
        <ele>1883.6</ele>
        <time>2024-08-11T09:59:32Z</time>
      </trkpt>
      <trkpt lat="44.95909" lon="6.49438">
        <ele>1883.6</ele>
        <time>2024-08-11T09:59:33Z</time>
      </trkpt>
      <trkpt lat="44.95909" lon="6.49438">
        <ele>1883.8</ele>
        <time>2024-08-11T09:59:34Z</time>
      </trkpt>
      <trkpt lat="44.95909" lon="6.49438">
        <ele>1884</ele>
        <time>2024-08-11T09:59:35Z</time>
      </trkpt>
      <trkpt lat="44.95907" lon="6.49438">
        <ele>1884.6</ele>
        <time>2024-08-11T09:59:36Z</time>
      </trkpt>
      <trkpt lat="44.95907" lon="6.49438">
        <ele>1884.6</ele>
        <time>2024-08-11T09:59:37Z</time>
      </trkpt>
      <trkpt lat="44.95907" lon="6.49438">
        <ele>1884.8</ele>
        <time>2024-08-11T09:59:38Z</time>
      </trkpt>
      <trkpt lat="44.95905" lon="6.4944">
        <ele>1885</ele>
        <time>2024-08-11T09:59:39Z</time>
      </trkpt>
      <trkpt lat="44.95905" lon="6.4944">
        <ele>1885.2</ele>
        <time>2024-08-11T09:59:40Z</time>
      </trkpt>
      <trkpt lat="44.95905" lon="6.4944">
        <ele>1885.2</ele>
        <time>2024-08-11T09:59:41Z</time>
      </trkpt>
      <trkpt lat="44.95903" lon="6.49441">
        <ele>1885.4</ele>
        <time>2024-08-11T09:59:42Z</time>
      </trkpt>
      <trkpt lat="44.95903" lon="6.49441">
        <ele>1885.6</ele>
        <time>2024-08-11T09:59:43Z</time>
      </trkpt>
      <trkpt lat="44.95903" lon="6.49441">
        <ele>1885.8</ele>
        <time>2024-08-11T09:59:44Z</time>
      </trkpt>
      <trkpt lat="44.95902" lon="6.49444">
        <ele>1886.2</ele>
        <time>2024-08-11T09:59:45Z</time>
      </trkpt>
      <trkpt lat="44.95902" lon="6.49444">
        <ele>1886.4</ele>
        <time>2024-08-11T09:59:46Z</time>
      </trkpt>
      <trkpt lat="44.95902" lon="6.49444">
        <ele>1886.4</ele>
        <time>2024-08-11T09:59:47Z</time>
      </trkpt>
      <trkpt lat="44.95901" lon="6.49446">
        <ele>1886.6</ele>
        <time>2024-08-11T09:59:48Z</time>
      </trkpt>
      <trkpt lat="44.95901" lon="6.49446">
        <ele>1887</ele>
        <time>2024-08-11T09:59:49Z</time>
      </trkpt>
      <trkpt lat="44.95901" lon="6.49446">
        <ele>1887.4</ele>
        <time>2024-08-11T09:59:50Z</time>
      </trkpt>
      <trkpt lat="44.95899" lon="6.49447">
        <ele>1887.6</ele>
        <time>2024-08-11T09:59:51Z</time>
      </trkpt>
      <trkpt lat="44.95899" lon="6.49447">
        <ele>1887.8</ele>
        <time>2024-08-11T09:59:52Z</time>
      </trkpt>
      <trkpt lat="44.95896" lon="6.49448">
        <ele>1888.2</ele>
        <time>2024-08-11T09:59:53Z</time>
      </trkpt>
      <trkpt lat="44.95896" lon="6.49448">
        <ele>1888.2</ele>
        <time>2024-08-11T09:59:54Z</time>
      </trkpt>
      <trkpt lat="44.95896" lon="6.49448">
        <ele>1888.6</ele>
        <time>2024-08-11T09:59:55Z</time>
      </trkpt>
      <trkpt lat="44.95896" lon="6.49448">
        <ele>1888.6</ele>
        <time>2024-08-11T09:59:56Z</time>
      </trkpt>
      <trkpt lat="44.95895" lon="6.49449">
        <ele>1888.8</ele>
        <time>2024-08-11T09:59:57Z</time>
      </trkpt>
      <trkpt lat="44.95895" lon="6.49449">
        <ele>1888.8</ele>
        <time>2024-08-11T09:59:58Z</time>
      </trkpt>
      <trkpt lat="44.95895" lon="6.49449">
        <ele>1889</ele>
        <time>2024-08-11T09:59:59Z</time>
      </trkpt>
      <trkpt lat="44.95893" lon="6.4945">
        <ele>1889.2</ele>
        <time>2024-08-11T10:00:00Z</time>
      </trkpt>
      <trkpt lat="44.95893" lon="6.4945">
        <ele>1889.4</ele>
        <time>2024-08-11T10:00:01Z</time>
      </trkpt>
      <trkpt lat="44.95893" lon="6.4945">
        <ele>1890</ele>
        <time>2024-08-11T10:00:02Z</time>
      </trkpt>
      <trkpt lat="44.95893" lon="6.4945">
        <ele>1890</ele>
        <time>2024-08-11T10:00:03Z</time>
      </trkpt>
      <trkpt lat="44.95893" lon="6.4945">
        <ele>1890</ele>
        <time>2024-08-11T10:00:04Z</time>
      </trkpt>
      <trkpt lat="44.95892" lon="6.49454">
        <ele>1890</ele>
        <time>2024-08-11T10:00:05Z</time>
      </trkpt>
      <trkpt lat="44.95892" lon="6.49454">
        <ele>1890.4</ele>
        <time>2024-08-11T10:00:06Z</time>
      </trkpt>
      <trkpt lat="44.95892" lon="6.49454">
        <ele>1890.8</ele>
        <time>2024-08-11T10:00:07Z</time>
      </trkpt>
      <trkpt lat="44.9589" lon="6.49455">
        <ele>1890.8</ele>
        <time>2024-08-11T10:00:08Z</time>
      </trkpt>
      <trkpt lat="44.9589" lon="6.49455">
        <ele>1890.8</ele>
        <time>2024-08-11T10:00:09Z</time>
      </trkpt>
      <trkpt lat="44.9589" lon="6.49455">
        <ele>1891.4</ele>
        <time>2024-08-11T10:00:10Z</time>
      </trkpt>
      <trkpt lat="44.9589" lon="6.49455">
        <ele>1891.4</ele>
        <time>2024-08-11T10:00:11Z</time>
      </trkpt>
      <trkpt lat="44.95888" lon="6.49457">
        <ele>1891.6</ele>
        <time>2024-08-11T10:00:12Z</time>
      </trkpt>
      <trkpt lat="44.95888" lon="6.49457">
        <ele>1892</ele>
        <time>2024-08-11T10:00:13Z</time>
      </trkpt>
      <trkpt lat="44.95888" lon="6.49457">
        <ele>1892.4</ele>
        <time>2024-08-11T10:00:14Z</time>
      </trkpt>
      <trkpt lat="44.95886" lon="6.49457">
        <ele>1892.4</ele>
        <time>2024-08-11T10:00:15Z</time>
      </trkpt>
      <trkpt lat="44.95886" lon="6.49457">
        <ele>1892.4</ele>
        <time>2024-08-11T10:00:16Z</time>
      </trkpt>
      <trkpt lat="44.95886" lon="6.49457">
        <ele>1893</ele>
        <time>2024-08-11T10:00:17Z</time>
      </trkpt>
      <trkpt lat="44.95886" lon="6.49457">
        <ele>1893.2</ele>
        <time>2024-08-11T10:00:18Z</time>
      </trkpt>
      <trkpt lat="44.95886" lon="6.49457">
        <ele>1893.4</ele>
        <time>2024-08-11T10:00:19Z</time>
      </trkpt>
      <trkpt lat="44.95884" lon="6.49457">
        <ele>1893.8</ele>
        <time>2024-08-11T10:00:20Z</time>
      </trkpt>
      <trkpt lat="44.95884" lon="6.49457">
        <ele>1893.8</ele>
        <time>2024-08-11T10:00:21Z</time>
      </trkpt>
      <trkpt lat="44.95882" lon="6.49458">
        <ele>1893.8</ele>
        <time>2024-08-11T10:00:22Z</time>
      </trkpt>
      <trkpt lat="44.95882" lon="6.49458">
        <ele>1894.2</ele>
        <time>2024-08-11T10:00:23Z</time>
      </trkpt>
      <trkpt lat="44.95882" lon="6.49458">
        <ele>1894.4</ele>
        <time>2024-08-11T10:00:24Z</time>
      </trkpt>
      <trkpt lat="44.9588" lon="6.49459">
        <ele>1894.4</ele>
        <time>2024-08-11T10:00:25Z</time>
      </trkpt>
      <trkpt lat="44.9588" lon="6.49459">
        <ele>1894.4</ele>
        <time>2024-08-11T10:00:26Z</time>
      </trkpt>
      <trkpt lat="44.9588" lon="6.49459">
        <ele>1894.6</ele>
        <time>2024-08-11T10:00:27Z</time>
      </trkpt>
      <trkpt lat="44.95878" lon="6.49461">
        <ele>1895.2</ele>
        <time>2024-08-11T10:00:28Z</time>
      </trkpt>
      <trkpt lat="44.95878" lon="6.49461">
        <ele>1895.4</ele>
        <time>2024-08-11T10:00:29Z</time>
      </trkpt>
      <trkpt lat="44.95878" lon="6.49461">
        <ele>1895.4</ele>
        <time>2024-08-11T10:00:30Z</time>
      </trkpt>
      <trkpt lat="44.95878" lon="6.49461">
        <ele>1896</ele>
        <time>2024-08-11T10:00:31Z</time>
      </trkpt>
      <trkpt lat="44.95878" lon="6.49461">
        <ele>1896</ele>
        <time>2024-08-11T10:00:32Z</time>
      </trkpt>
      <trkpt lat="44.95876" lon="6.49463">
        <ele>1896.2</ele>
        <time>2024-08-11T10:00:33Z</time>
      </trkpt>
      <trkpt lat="44.95876" lon="6.49463">
        <ele>1896.4</ele>
        <time>2024-08-11T10:00:34Z</time>
      </trkpt>
      <trkpt lat="44.95876" lon="6.49463">
        <ele>1896.6</ele>
        <time>2024-08-11T10:00:35Z</time>
      </trkpt>
      <trkpt lat="44.95876" lon="6.49463">
        <ele>1896.8</ele>
        <time>2024-08-11T10:00:36Z</time>
      </trkpt>
      <trkpt lat="44.95876" lon="6.49463">
        <ele>1897</ele>
        <time>2024-08-11T10:00:37Z</time>
      </trkpt>
      <trkpt lat="44.95874" lon="6.49462">
        <ele>1897.4</ele>
        <time>2024-08-11T10:00:38Z</time>
      </trkpt>
      <trkpt lat="44.95874" lon="6.49462">
        <ele>1897.4</ele>
        <time>2024-08-11T10:00:39Z</time>
      </trkpt>
      <trkpt lat="44.95874" lon="6.49462">
        <ele>1897.4</ele>
        <time>2024-08-11T10:00:40Z</time>
      </trkpt>
      <trkpt lat="44.95874" lon="6.49462">
        <ele>1897.8</ele>
        <time>2024-08-11T10:00:41Z</time>
      </trkpt>
      <trkpt lat="44.95874" lon="6.49462">
        <ele>1897.8</ele>
        <time>2024-08-11T10:00:42Z</time>
      </trkpt>
      <trkpt lat="44.95874" lon="6.49462">
        <ele>1898.2</ele>
        <time>2024-08-11T10:00:43Z</time>
      </trkpt>
      <trkpt lat="44.95872" lon="6.49463">
        <ele>1898.2</ele>
        <time>2024-08-11T10:00:44Z</time>
      </trkpt>
      <trkpt lat="44.95872" lon="6.49463">
        <ele>1898.4</ele>
        <time>2024-08-11T10:00:45Z</time>
      </trkpt>
      <trkpt lat="44.95872" lon="6.49463">
        <ele>1898.8</ele>
        <time>2024-08-11T10:00:46Z</time>
      </trkpt>
      <trkpt lat="44.95869" lon="6.49464">
        <ele>1898.8</ele>
        <time>2024-08-11T10:00:47Z</time>
      </trkpt>
      <trkpt lat="44.95869" lon="6.49464">
        <ele>1899</ele>
        <time>2024-08-11T10:00:48Z</time>
      </trkpt>
      <trkpt lat="44.95869" lon="6.49464">
        <ele>1899</ele>
        <time>2024-08-11T10:00:49Z</time>
      </trkpt>
      <trkpt lat="44.95868" lon="6.49466">
        <ele>1899.2</ele>
        <time>2024-08-11T10:00:50Z</time>
      </trkpt>
      <trkpt lat="44.95868" lon="6.49466">
        <ele>1899.2</ele>
        <time>2024-08-11T10:00:51Z</time>
      </trkpt>
      <trkpt lat="44.95868" lon="6.49466">
        <ele>1899.2</ele>
        <time>2024-08-11T10:00:52Z</time>
      </trkpt>
      <trkpt lat="44.95868" lon="6.49466">
        <ele>1899.6</ele>
        <time>2024-08-11T10:00:53Z</time>
      </trkpt>
      <trkpt lat="44.95867" lon="6.49468">
        <ele>1899.6</ele>
        <time>2024-08-11T10:00:54Z</time>
      </trkpt>
      <trkpt lat="44.95867" lon="6.49468">
        <ele>1899.8</ele>
        <time>2024-08-11T10:00:55Z</time>
      </trkpt>
      <trkpt lat="44.95867" lon="6.49468">
        <ele>1900.6</ele>
        <time>2024-08-11T10:00:56Z</time>
      </trkpt>
      <trkpt lat="44.95867" lon="6.49468">
        <ele>1900.8</ele>
        <time>2024-08-11T10:00:57Z</time>
      </trkpt>
      <trkpt lat="44.95866" lon="6.49471">
        <ele>1900.8</ele>
        <time>2024-08-11T10:00:58Z</time>
      </trkpt>
      <trkpt lat="44.95866" lon="6.49471">
        <ele>1900.8</ele>
        <time>2024-08-11T10:00:59Z</time>
      </trkpt>
      <trkpt lat="44.95866" lon="6.49471">
        <ele>1900.8</ele>
        <time>2024-08-11T10:01:00Z</time>
      </trkpt>
      <trkpt lat="44.95864" lon="6.49474">
        <ele>1901</ele>
        <time>2024-08-11T10:01:01Z</time>
      </trkpt>
      <trkpt lat="44.95864" lon="6.49474">
        <ele>1900.8</ele>
        <time>2024-08-11T10:01:02Z</time>
      </trkpt>
      <trkpt lat="44.95863" lon="6.49476">
        <ele>1900.8</ele>
        <time>2024-08-11T10:01:03Z</time>
      </trkpt>
      <trkpt lat="44.95863" lon="6.49476">
        <ele>1900.8</ele>
        <time>2024-08-11T10:01:04Z</time>
      </trkpt>
      <trkpt lat="44.95861" lon="6.49479">
        <ele>1900.8</ele>
        <time>2024-08-11T10:01:05Z</time>
      </trkpt>
      <trkpt lat="44.95861" lon="6.49479">
        <ele>1901</ele>
        <time>2024-08-11T10:01:06Z</time>
      </trkpt>
      <trkpt lat="44.95859" lon="6.49481">
        <ele>1901.2</ele>
        <time>2024-08-11T10:01:07Z</time>
      </trkpt>
      <trkpt lat="44.95859" lon="6.49481">
        <ele>1901.2</ele>
        <time>2024-08-11T10:01:08Z</time>
      </trkpt>
      <trkpt lat="44.95859" lon="6.49481">
        <ele>1901.4</ele>
        <time>2024-08-11T10:01:09Z</time>
      </trkpt>
      <trkpt lat="44.95858" lon="6.49484">
        <ele>1901.6</ele>
        <time>2024-08-11T10:01:10Z</time>
      </trkpt>
      <trkpt lat="44.95858" lon="6.49484">
        <ele>1901.6</ele>
        <time>2024-08-11T10:01:11Z</time>
      </trkpt>
      <trkpt lat="44.95858" lon="6.49484">
        <ele>1901.6</ele>
        <time>2024-08-11T10:01:12Z</time>
      </trkpt>
      <trkpt lat="44.95857" lon="6.49487">
        <ele>1901.6</ele>
        <time>2024-08-11T10:01:13Z</time>
      </trkpt>
      <trkpt lat="44.95857" lon="6.49487">
        <ele>1902.4</ele>
        <time>2024-08-11T10:01:14Z</time>
      </trkpt>
      <trkpt lat="44.95857" lon="6.49487">
        <ele>1902.4</ele>
        <time>2024-08-11T10:01:15Z</time>
      </trkpt>
      <trkpt lat="44.95856" lon="6.4949">
        <ele>1902.4</ele>
        <time>2024-08-11T10:01:16Z</time>
      </trkpt>
      <trkpt lat="44.95856" lon="6.4949">
        <ele>1902.8</ele>
        <time>2024-08-11T10:01:17Z</time>
      </trkpt>
      <trkpt lat="44.95856" lon="6.4949">
        <ele>1903</ele>
        <time>2024-08-11T10:01:18Z</time>
      </trkpt>
      <trkpt lat="44.95855" lon="6.49493">
        <ele>1903</ele>
        <time>2024-08-11T10:01:19Z</time>
      </trkpt>
      <trkpt lat="44.95855" lon="6.49493">
        <ele>1903.8</ele>
        <time>2024-08-11T10:01:20Z</time>
      </trkpt>
      <trkpt lat="44.95855" lon="6.49493">
        <ele>1904</ele>
        <time>2024-08-11T10:01:21Z</time>
      </trkpt>
      <trkpt lat="44.95854" lon="6.49495">
        <ele>1904</ele>
        <time>2024-08-11T10:01:22Z</time>
      </trkpt>
      <trkpt lat="44.95854" lon="6.49495">
        <ele>1904</ele>
        <time>2024-08-11T10:01:23Z</time>
      </trkpt>
      <trkpt lat="44.95854" lon="6.49495">
        <ele>1904.2</ele>
        <time>2024-08-11T10:01:24Z</time>
      </trkpt>
      <trkpt lat="44.95853" lon="6.49497">
        <ele>1904.4</ele>
        <time>2024-08-11T10:01:25Z</time>
      </trkpt>
      <trkpt lat="44.95853" lon="6.49497">
        <ele>1904.6</ele>
        <time>2024-08-11T10:01:26Z</time>
      </trkpt>
      <trkpt lat="44.95853" lon="6.49497">
        <ele>1904.8</ele>
        <time>2024-08-11T10:01:27Z</time>
      </trkpt>
      <trkpt lat="44.95852" lon="6.49499">
        <ele>1905</ele>
        <time>2024-08-11T10:01:28Z</time>
      </trkpt>
      <trkpt lat="44.95852" lon="6.49499">
        <ele>1905.2</ele>
        <time>2024-08-11T10:01:29Z</time>
      </trkpt>
      <trkpt lat="44.95852" lon="6.49499">
        <ele>1905.4</ele>
        <time>2024-08-11T10:01:30Z</time>
      </trkpt>
      <trkpt lat="44.95852" lon="6.49499">
        <ele>1905.4</ele>
        <time>2024-08-11T10:01:31Z</time>
      </trkpt>
      <trkpt lat="44.95851" lon="6.49502">
        <ele>1906</ele>
        <time>2024-08-11T10:01:32Z</time>
      </trkpt>
      <trkpt lat="44.95851" lon="6.49502">
        <ele>1906</ele>
        <time>2024-08-11T10:01:33Z</time>
      </trkpt>
      <trkpt lat="44.95851" lon="6.49502">
        <ele>1906</ele>
        <time>2024-08-11T10:01:34Z</time>
      </trkpt>
      <trkpt lat="44.95851" lon="6.49505">
        <ele>1906.2</ele>
        <time>2024-08-11T10:01:35Z</time>
      </trkpt>
      <trkpt lat="44.95851" lon="6.49505">
        <ele>1906.4</ele>
        <time>2024-08-11T10:01:36Z</time>
      </trkpt>
      <trkpt lat="44.95851" lon="6.49505">
        <ele>1906.8</ele>
        <time>2024-08-11T10:01:37Z</time>
      </trkpt>
      <trkpt lat="44.95851" lon="6.49505">
        <ele>1907.2</ele>
        <time>2024-08-11T10:01:38Z</time>
      </trkpt>
      <trkpt lat="44.95851" lon="6.49508">
        <ele>1907.2</ele>
        <time>2024-08-11T10:01:39Z</time>
      </trkpt>
      <trkpt lat="44.95851" lon="6.49508">
        <ele>1907.6</ele>
        <time>2024-08-11T10:01:40Z</time>
      </trkpt>
      <trkpt lat="44.95851" lon="6.49508">
        <ele>1907.8</ele>
        <time>2024-08-11T10:01:41Z</time>
      </trkpt>
      <trkpt lat="44.95851" lon="6.49508">
        <ele>1908</ele>
        <time>2024-08-11T10:01:42Z</time>
      </trkpt>
      <trkpt lat="44.9585" lon="6.4951">
        <ele>1908</ele>
        <time>2024-08-11T10:01:43Z</time>
      </trkpt>
      <trkpt lat="44.9585" lon="6.4951">
        <ele>1908.4</ele>
        <time>2024-08-11T10:01:44Z</time>
      </trkpt>
      <trkpt lat="44.9585" lon="6.4951">
        <ele>1908.4</ele>
        <time>2024-08-11T10:01:45Z</time>
      </trkpt>
      <trkpt lat="44.9585" lon="6.4951">
        <ele>1908.6</ele>
        <time>2024-08-11T10:01:46Z</time>
      </trkpt>
      <trkpt lat="44.9585" lon="6.4951">
        <ele>1908.8</ele>
        <time>2024-08-11T10:01:47Z</time>
      </trkpt>
      <trkpt lat="44.9585" lon="6.4951">
        <ele>1909</ele>
        <time>2024-08-11T10:01:48Z</time>
      </trkpt>
      <trkpt lat="44.95848" lon="6.49512">
        <ele>1909.2</ele>
        <time>2024-08-11T10:01:49Z</time>
      </trkpt>
      <trkpt lat="44.95848" lon="6.49512">
        <ele>1909.4</ele>
        <time>2024-08-11T10:01:50Z</time>
      </trkpt>
      <trkpt lat="44.95848" lon="6.49512">
        <ele>1910</ele>
        <time>2024-08-11T10:01:51Z</time>
      </trkpt>
      <trkpt lat="44.95848" lon="6.49512">
        <ele>1910</ele>
        <time>2024-08-11T10:01:52Z</time>
      </trkpt>
      <trkpt lat="44.95846" lon="6.49514">
        <ele>1910.4</ele>
        <time>2024-08-11T10:01:53Z</time>
      </trkpt>
      <trkpt lat="44.95846" lon="6.49514">
        <ele>1910.6</ele>
        <time>2024-08-11T10:01:54Z</time>
      </trkpt>
      <trkpt lat="44.95846" lon="6.49514">
        <ele>1910.6</ele>
        <time>2024-08-11T10:01:55Z</time>
      </trkpt>
      <trkpt lat="44.95846" lon="6.49514">
        <ele>1910.8</ele>
        <time>2024-08-11T10:01:56Z</time>
      </trkpt>
      <trkpt lat="44.95845" lon="6.49517">
        <ele>1910.8</ele>
        <time>2024-08-11T10:01:57Z</time>
      </trkpt>
      <trkpt lat="44.95845" lon="6.49517">
        <ele>1911</ele>
        <time>2024-08-11T10:01:58Z</time>
      </trkpt>
      <trkpt lat="44.95845" lon="6.49517">
        <ele>1911.4</ele>
        <time>2024-08-11T10:01:59Z</time>
      </trkpt>
      <trkpt lat="44.95845" lon="6.49517">
        <ele>1911.8</ele>
        <time>2024-08-11T10:02:00Z</time>
      </trkpt>
      <trkpt lat="44.95845" lon="6.49517">
        <ele>1912</ele>
        <time>2024-08-11T10:02:01Z</time>
      </trkpt>
      <trkpt lat="44.95845" lon="6.49517">
        <ele>1912.4</ele>
        <time>2024-08-11T10:02:02Z</time>
      </trkpt>
      <trkpt lat="44.95845" lon="6.49517">
        <ele>1912.4</ele>
        <time>2024-08-11T10:02:03Z</time>
      </trkpt>
      <trkpt lat="44.95845" lon="6.49517">
        <ele>1912.4</ele>
        <time>2024-08-11T10:02:04Z</time>
      </trkpt>
      <trkpt lat="44.95845" lon="6.49517">
        <ele>1912.6</ele>
        <time>2024-08-11T10:02:05Z</time>
      </trkpt>
      <trkpt lat="44.95845" lon="6.49517">
        <ele>1913.2</ele>
        <time>2024-08-11T10:02:06Z</time>
      </trkpt>
      <trkpt lat="44.95845" lon="6.49517">
        <ele>1913.2</ele>
        <time>2024-08-11T10:02:07Z</time>
      </trkpt>
      <trkpt lat="44.95845" lon="6.49517">
        <ele>1913.6</ele>
        <time>2024-08-11T10:02:08Z</time>
      </trkpt>
      <trkpt lat="44.95845" lon="6.49517">
        <ele>1913.6</ele>
        <time>2024-08-11T10:02:09Z</time>
      </trkpt>
      <trkpt lat="44.95845" lon="6.49517">
        <ele>1913.8</ele>
        <time>2024-08-11T10:02:10Z</time>
      </trkpt>
      <trkpt lat="44.95845" lon="6.49517">
        <ele>1914</ele>
        <time>2024-08-11T10:02:11Z</time>
      </trkpt>
      <trkpt lat="44.95845" lon="6.49517">
        <ele>1914.4</ele>
        <time>2024-08-11T10:02:12Z</time>
      </trkpt>
      <trkpt lat="44.95845" lon="6.49517">
        <ele>1914.6</ele>
        <time>2024-08-11T10:02:13Z</time>
      </trkpt>
      <trkpt lat="44.95845" lon="6.49517">
        <ele>1915</ele>
        <time>2024-08-11T10:02:14Z</time>
      </trkpt>
      <trkpt lat="44.95845" lon="6.49517">
        <ele>1915</ele>
        <time>2024-08-11T10:02:15Z</time>
      </trkpt>
      <trkpt lat="44.95845" lon="6.49517">
        <ele>1915</ele>
        <time>2024-08-11T10:02:16Z</time>
      </trkpt>
      <trkpt lat="44.95845" lon="6.49517">
        <ele>1915.4</ele>
        <time>2024-08-11T10:02:17Z</time>
      </trkpt>
      <trkpt lat="44.95845" lon="6.49517">
        <ele>1915.6</ele>
        <time>2024-08-11T10:02:18Z</time>
      </trkpt>
      <trkpt lat="44.95845" lon="6.49521">
        <ele>1915.8</ele>
        <time>2024-08-11T10:02:19Z</time>
      </trkpt>
      <trkpt lat="44.95845" lon="6.49521">
        <ele>1915.8</ele>
        <time>2024-08-11T10:02:20Z</time>
      </trkpt>
      <trkpt lat="44.95844" lon="6.49524">
        <ele>1915.8</ele>
        <time>2024-08-11T10:02:21Z</time>
      </trkpt>
      <trkpt lat="44.95844" lon="6.49524">
        <ele>1916.4</ele>
        <time>2024-08-11T10:02:22Z</time>
      </trkpt>
      <trkpt lat="44.95844" lon="6.49528">
        <ele>1916.8</ele>
        <time>2024-08-11T10:02:23Z</time>
      </trkpt>
      <trkpt lat="44.95844" lon="6.49528">
        <ele>1916.8</ele>
        <time>2024-08-11T10:02:24Z</time>
      </trkpt>
      <trkpt lat="44.95842" lon="6.49531">
        <ele>1916.8</ele>
        <time>2024-08-11T10:02:25Z</time>
      </trkpt>
      <trkpt lat="44.95842" lon="6.49531">
        <ele>1917.2</ele>
        <time>2024-08-11T10:02:26Z</time>
      </trkpt>
      <trkpt lat="44.95842" lon="6.49531">
        <ele>1917.4</ele>
        <time>2024-08-11T10:02:27Z</time>
      </trkpt>
      <trkpt lat="44.95842" lon="6.49531">
        <ele>1917.6</ele>
        <time>2024-08-11T10:02:28Z</time>
      </trkpt>
      <trkpt lat="44.95841" lon="6.49534">
        <ele>1917.6</ele>
        <time>2024-08-11T10:02:29Z</time>
      </trkpt>
      <trkpt lat="44.95841" lon="6.49534">
        <ele>1917.8</ele>
        <time>2024-08-11T10:02:30Z</time>
      </trkpt>
      <trkpt lat="44.95841" lon="6.49534">
        <ele>1917.8</ele>
        <time>2024-08-11T10:02:31Z</time>
      </trkpt>
      <trkpt lat="44.95841" lon="6.49534">
        <ele>1918</ele>
        <time>2024-08-11T10:02:32Z</time>
      </trkpt>
      <trkpt lat="44.95839" lon="6.49535">
        <ele>1918.4</ele>
        <time>2024-08-11T10:02:33Z</time>
      </trkpt>
      <trkpt lat="44.95839" lon="6.49535">
        <ele>1918.4</ele>
        <time>2024-08-11T10:02:34Z</time>
      </trkpt>
      <trkpt lat="44.95839" lon="6.49535">
        <ele>1918.4</ele>
        <time>2024-08-11T10:02:35Z</time>
      </trkpt>
      <trkpt lat="44.95837" lon="6.49537">
        <ele>1918.8</ele>
        <time>2024-08-11T10:02:36Z</time>
      </trkpt>
      <trkpt lat="44.95837" lon="6.49537">
        <ele>1919</ele>
        <time>2024-08-11T10:02:37Z</time>
      </trkpt>
      <trkpt lat="44.95837" lon="6.49537">
        <ele>1919</ele>
        <time>2024-08-11T10:02:38Z</time>
      </trkpt>
      <trkpt lat="44.95837" lon="6.49537">
        <ele>1919.4</ele>
        <time>2024-08-11T10:02:39Z</time>
      </trkpt>
      <trkpt lat="44.95836" lon="6.49539">
        <ele>1919.8</ele>
        <time>2024-08-11T10:02:40Z</time>
      </trkpt>
      <trkpt lat="44.95836" lon="6.49539">
        <ele>1919.8</ele>
        <time>2024-08-11T10:02:41Z</time>
      </trkpt>
      <trkpt lat="44.95836" lon="6.49539">
        <ele>1919.8</ele>
        <time>2024-08-11T10:02:42Z</time>
      </trkpt>
      <trkpt lat="44.95836" lon="6.49539">
        <ele>1920</ele>
        <time>2024-08-11T10:02:43Z</time>
      </trkpt>
      <trkpt lat="44.95834" lon="6.4954">
        <ele>1920.4</ele>
        <time>2024-08-11T10:02:44Z</time>
      </trkpt>
      <trkpt lat="44.95834" lon="6.4954">
        <ele>1920.6</ele>
        <time>2024-08-11T10:02:45Z</time>
      </trkpt>
      <trkpt lat="44.95834" lon="6.4954">
        <ele>1920.8</ele>
        <time>2024-08-11T10:02:46Z</time>
      </trkpt>
      <trkpt lat="44.95832" lon="6.49541">
        <ele>1920.8</ele>
        <time>2024-08-11T10:02:47Z</time>
      </trkpt>
      <trkpt lat="44.95832" lon="6.49541">
        <ele>1921</ele>
        <time>2024-08-11T10:02:48Z</time>
      </trkpt>
      <trkpt lat="44.95832" lon="6.49541">
        <ele>1921.2</ele>
        <time>2024-08-11T10:02:49Z</time>
      </trkpt>
      <trkpt lat="44.95832" lon="6.49541">
        <ele>1921.4</ele>
        <time>2024-08-11T10:02:50Z</time>
      </trkpt>
      <trkpt lat="44.95832" lon="6.49544">
        <ele>1921.6</ele>
        <time>2024-08-11T10:02:51Z</time>
      </trkpt>
      <trkpt lat="44.95832" lon="6.49544">
        <ele>1922</ele>
        <time>2024-08-11T10:02:52Z</time>
      </trkpt>
      <trkpt lat="44.95832" lon="6.49544">
        <ele>1922.2</ele>
        <time>2024-08-11T10:02:53Z</time>
      </trkpt>
      <trkpt lat="44.95832" lon="6.49544">
        <ele>1922.4</ele>
        <time>2024-08-11T10:02:54Z</time>
      </trkpt>
      <trkpt lat="44.9583" lon="6.49545">
        <ele>1922.6</ele>
        <time>2024-08-11T10:02:55Z</time>
      </trkpt>
      <trkpt lat="44.9583" lon="6.49545">
        <ele>1922.8</ele>
        <time>2024-08-11T10:02:56Z</time>
      </trkpt>
      <trkpt lat="44.9583" lon="6.49545">
        <ele>1922.8</ele>
        <time>2024-08-11T10:02:57Z</time>
      </trkpt>
      <trkpt lat="44.9583" lon="6.49545">
        <ele>1923.2</ele>
        <time>2024-08-11T10:02:58Z</time>
      </trkpt>
      <trkpt lat="44.95828" lon="6.49546">
        <ele>1923.6</ele>
        <time>2024-08-11T10:02:59Z</time>
      </trkpt>
      <trkpt lat="44.95828" lon="6.49546">
        <ele>1923.8</ele>
        <time>2024-08-11T10:03:00Z</time>
      </trkpt>
      <trkpt lat="44.95828" lon="6.49546">
        <ele>1924.2</ele>
        <time>2024-08-11T10:03:01Z</time>
      </trkpt>
      <trkpt lat="44.95828" lon="6.49546">
        <ele>1924.6</ele>
        <time>2024-08-11T10:03:02Z</time>
      </trkpt>
      <trkpt lat="44.95826" lon="6.49547">
        <ele>1924.6</ele>
        <time>2024-08-11T10:03:03Z</time>
      </trkpt>
      <trkpt lat="44.95826" lon="6.49547">
        <ele>1924.8</ele>
        <time>2024-08-11T10:03:04Z</time>
      </trkpt>
      <trkpt lat="44.95826" lon="6.49547">
        <ele>1925</ele>
        <time>2024-08-11T10:03:05Z</time>
      </trkpt>
      <trkpt lat="44.95826" lon="6.49547">
        <ele>1925</ele>
        <time>2024-08-11T10:03:06Z</time>
      </trkpt>
      <trkpt lat="44.95825" lon="6.4955">
        <ele>1925.2</ele>
        <time>2024-08-11T10:03:07Z</time>
      </trkpt>
      <trkpt lat="44.95825" lon="6.4955">
        <ele>1925.4</ele>
        <time>2024-08-11T10:03:08Z</time>
      </trkpt>
      <trkpt lat="44.95825" lon="6.4955">
        <ele>1925.4</ele>
        <time>2024-08-11T10:03:09Z</time>
      </trkpt>
      <trkpt lat="44.95825" lon="6.4955">
        <ele>1926.2</ele>
        <time>2024-08-11T10:03:10Z</time>
      </trkpt>
      <trkpt lat="44.95825" lon="6.4955">
        <ele>1926.2</ele>
        <time>2024-08-11T10:03:11Z</time>
      </trkpt>
      <trkpt lat="44.95823" lon="6.49551">
        <ele>1926.2</ele>
        <time>2024-08-11T10:03:12Z</time>
      </trkpt>
      <trkpt lat="44.95823" lon="6.49551">
        <ele>1926.2</ele>
        <time>2024-08-11T10:03:13Z</time>
      </trkpt>
      <trkpt lat="44.95823" lon="6.49551">
        <ele>1926.6</ele>
        <time>2024-08-11T10:03:14Z</time>
      </trkpt>
      <trkpt lat="44.95823" lon="6.49551">
        <ele>1927</ele>
        <time>2024-08-11T10:03:15Z</time>
      </trkpt>
      <trkpt lat="44.95821" lon="6.49552">
        <ele>1927</ele>
        <time>2024-08-11T10:03:16Z</time>
      </trkpt>
      <trkpt lat="44.95821" lon="6.49552">
        <ele>1927.2</ele>
        <time>2024-08-11T10:03:17Z</time>
      </trkpt>
      <trkpt lat="44.95821" lon="6.49552">
        <ele>1927.4</ele>
        <time>2024-08-11T10:03:18Z</time>
      </trkpt>
      <trkpt lat="44.95821" lon="6.49552">
        <ele>1927.6</ele>
        <time>2024-08-11T10:03:19Z</time>
      </trkpt>
      <trkpt lat="44.95821" lon="6.49552">
        <ele>1928.4</ele>
        <time>2024-08-11T10:03:20Z</time>
      </trkpt>
      <trkpt lat="44.9582" lon="6.49555">
        <ele>1928.8</ele>
        <time>2024-08-11T10:03:21Z</time>
      </trkpt>
      <trkpt lat="44.9582" lon="6.49555">
        <ele>1928.8</ele>
        <time>2024-08-11T10:03:22Z</time>
      </trkpt>
      <trkpt lat="44.95818" lon="6.49555">
        <ele>1928.6</ele>
        <time>2024-08-11T10:03:23Z</time>
      </trkpt>
      <trkpt lat="44.95818" lon="6.49555">
        <ele>1928.6</ele>
        <time>2024-08-11T10:03:24Z</time>
      </trkpt>
      <trkpt lat="44.95818" lon="6.49555">
        <ele>1929</ele>
        <time>2024-08-11T10:03:25Z</time>
      </trkpt>
      <trkpt lat="44.95816" lon="6.49555">
        <ele>1929.2</ele>
        <time>2024-08-11T10:03:26Z</time>
      </trkpt>
      <trkpt lat="44.95816" lon="6.49555">
        <ele>1929.2</ele>
        <time>2024-08-11T10:03:27Z</time>
      </trkpt>
      <trkpt lat="44.95816" lon="6.49555">
        <ele>1929.4</ele>
        <time>2024-08-11T10:03:28Z</time>
      </trkpt>
      <trkpt lat="44.95816" lon="6.49555">
        <ele>1929.8</ele>
        <time>2024-08-11T10:03:29Z</time>
      </trkpt>
      <trkpt lat="44.95814" lon="6.49556">
        <ele>1930.2</ele>
        <time>2024-08-11T10:03:30Z</time>
      </trkpt>
      <trkpt lat="44.95814" lon="6.49556">
        <ele>1930.2</ele>
        <time>2024-08-11T10:03:31Z</time>
      </trkpt>
      <trkpt lat="44.95814" lon="6.49556">
        <ele>1930.4</ele>
        <time>2024-08-11T10:03:32Z</time>
      </trkpt>
      <trkpt lat="44.95814" lon="6.49556">
        <ele>1930.6</ele>
        <time>2024-08-11T10:03:33Z</time>
      </trkpt>
      <trkpt lat="44.95814" lon="6.49556">
        <ele>1930.6</ele>
        <time>2024-08-11T10:03:34Z</time>
      </trkpt>
      <trkpt lat="44.95813" lon="6.49558">
        <ele>1931</ele>
        <time>2024-08-11T10:03:35Z</time>
      </trkpt>
      <trkpt lat="44.95813" lon="6.49558">
        <ele>1931.2</ele>
        <time>2024-08-11T10:03:36Z</time>
      </trkpt>
      <trkpt lat="44.95813" lon="6.49558">
        <ele>1931.2</ele>
        <time>2024-08-11T10:03:37Z</time>
      </trkpt>
      <trkpt lat="44.95813" lon="6.49558">
        <ele>1931.6</ele>
        <time>2024-08-11T10:03:38Z</time>
      </trkpt>
      <trkpt lat="44.95812" lon="6.4956">
        <ele>1931.6</ele>
        <time>2024-08-11T10:03:39Z</time>
      </trkpt>
      <trkpt lat="44.95812" lon="6.4956">
        <ele>1931.6</ele>
        <time>2024-08-11T10:03:40Z</time>
      </trkpt>
      <trkpt lat="44.95812" lon="6.4956">
        <ele>1932</ele>
        <time>2024-08-11T10:03:41Z</time>
      </trkpt>
      <trkpt lat="44.95811" lon="6.49563">
        <ele>1932.4</ele>
        <time>2024-08-11T10:03:42Z</time>
      </trkpt>
      <trkpt lat="44.95811" lon="6.49563">
        <ele>1932.6</ele>
        <time>2024-08-11T10:03:43Z</time>
      </trkpt>
      <trkpt lat="44.95811" lon="6.49563">
        <ele>1932.6</ele>
        <time>2024-08-11T10:03:44Z</time>
      </trkpt>
      <trkpt lat="44.95811" lon="6.49563">
        <ele>1932.6</ele>
        <time>2024-08-11T10:03:45Z</time>
      </trkpt>
      <trkpt lat="44.95808" lon="6.49564">
        <ele>1933</ele>
        <time>2024-08-11T10:03:46Z</time>
      </trkpt>
      <trkpt lat="44.95808" lon="6.49564">
        <ele>1933.4</ele>
        <time>2024-08-11T10:03:47Z</time>
      </trkpt>
      <trkpt lat="44.95806" lon="6.49563">
        <ele>1933.6</ele>
        <time>2024-08-11T10:03:48Z</time>
      </trkpt>
      <trkpt lat="44.95806" lon="6.49563">
        <ele>1933.8</ele>
        <time>2024-08-11T10:03:49Z</time>
      </trkpt>
      <trkpt lat="44.95806" lon="6.49563">
        <ele>1934</ele>
        <time>2024-08-11T10:03:50Z</time>
      </trkpt>
      <trkpt lat="44.95806" lon="6.49563">
        <ele>1934.2</ele>
        <time>2024-08-11T10:03:51Z</time>
      </trkpt>
      <trkpt lat="44.95805" lon="6.49566">
        <ele>1934.2</ele>
        <time>2024-08-11T10:03:52Z</time>
      </trkpt>
      <trkpt lat="44.95805" lon="6.49566">
        <ele>1934.4</ele>
        <time>2024-08-11T10:03:53Z</time>
      </trkpt>
      <trkpt lat="44.95805" lon="6.49566">
        <ele>1934.8</ele>
        <time>2024-08-11T10:03:54Z</time>
      </trkpt>
      <trkpt lat="44.95805" lon="6.49566">
        <ele>1934.8</ele>
        <time>2024-08-11T10:03:55Z</time>
      </trkpt>
      <trkpt lat="44.95804" lon="6.49567">
        <ele>1935</ele>
        <time>2024-08-11T10:03:56Z</time>
      </trkpt>
      <trkpt lat="44.95804" lon="6.49567">
        <ele>1935</ele>
        <time>2024-08-11T10:03:57Z</time>
      </trkpt>
      <trkpt lat="44.95801" lon="6.49568">
        <ele>1935.2</ele>
        <time>2024-08-11T10:03:58Z</time>
      </trkpt>
      <trkpt lat="44.95801" lon="6.49568">
        <ele>1935.4</ele>
        <time>2024-08-11T10:03:59Z</time>
      </trkpt>
      <trkpt lat="44.95801" lon="6.49568">
        <ele>1935.8</ele>
        <time>2024-08-11T10:04:00Z</time>
      </trkpt>
      <trkpt lat="44.95799" lon="6.49568">
        <ele>1935.8</ele>
        <time>2024-08-11T10:04:01Z</time>
      </trkpt>
      <trkpt lat="44.95799" lon="6.49568">
        <ele>1936.6</ele>
        <time>2024-08-11T10:04:02Z</time>
      </trkpt>
      <trkpt lat="44.95799" lon="6.49568">
        <ele>1936.6</ele>
        <time>2024-08-11T10:04:03Z</time>
      </trkpt>
      <trkpt lat="44.95799" lon="6.49568">
        <ele>1936.6</ele>
        <time>2024-08-11T10:04:04Z</time>
      </trkpt>
      <trkpt lat="44.95797" lon="6.49567">
        <ele>1936.6</ele>
        <time>2024-08-11T10:04:05Z</time>
      </trkpt>
      <trkpt lat="44.95797" lon="6.49567">
        <ele>1937</ele>
        <time>2024-08-11T10:04:06Z</time>
      </trkpt>
      <trkpt lat="44.95796" lon="6.49565">
        <ele>1937.2</ele>
        <time>2024-08-11T10:04:07Z</time>
      </trkpt>
      <trkpt lat="44.95796" lon="6.49565">
        <ele>1937.2</ele>
        <time>2024-08-11T10:04:08Z</time>
      </trkpt>
      <trkpt lat="44.95796" lon="6.49565">
        <ele>1937.8</ele>
        <time>2024-08-11T10:04:09Z</time>
      </trkpt>
      <trkpt lat="44.95796" lon="6.49565">
        <ele>1937.8</ele>
        <time>2024-08-11T10:04:10Z</time>
      </trkpt>
      <trkpt lat="44.95796" lon="6.49565">
        <ele>1937.8</ele>
        <time>2024-08-11T10:04:11Z</time>
      </trkpt>
      <trkpt lat="44.95796" lon="6.49565">
        <ele>1938</ele>
        <time>2024-08-11T10:04:12Z</time>
      </trkpt>
      <trkpt lat="44.95796" lon="6.49565">
        <ele>1938.4</ele>
        <time>2024-08-11T10:04:13Z</time>
      </trkpt>
      <trkpt lat="44.95796" lon="6.49565">
        <ele>1938.6</ele>
        <time>2024-08-11T10:04:14Z</time>
      </trkpt>
      <trkpt lat="44.95794" lon="6.49565">
        <ele>1938.6</ele>
        <time>2024-08-11T10:04:15Z</time>
      </trkpt>
      <trkpt lat="44.95794" lon="6.49565">
        <ele>1938.8</ele>
        <time>2024-08-11T10:04:16Z</time>
      </trkpt>
      <trkpt lat="44.95794" lon="6.49565">
        <ele>1938.8</ele>
        <time>2024-08-11T10:04:17Z</time>
      </trkpt>
      <trkpt lat="44.95794" lon="6.49565">
        <ele>1939.2</ele>
        <time>2024-08-11T10:04:18Z</time>
      </trkpt>
      <trkpt lat="44.95794" lon="6.49565">
        <ele>1939.2</ele>
        <time>2024-08-11T10:04:19Z</time>
      </trkpt>
      <trkpt lat="44.95794" lon="6.49565">
        <ele>1939.4</ele>
        <time>2024-08-11T10:04:20Z</time>
      </trkpt>
      <trkpt lat="44.95794" lon="6.49565">
        <ele>1939.8</ele>
        <time>2024-08-11T10:04:21Z</time>
      </trkpt>
      <trkpt lat="44.95794" lon="6.49565">
        <ele>1940</ele>
        <time>2024-08-11T10:04:22Z</time>
      </trkpt>
      <trkpt lat="44.95794" lon="6.49565">
        <ele>1940.2</ele>
        <time>2024-08-11T10:04:23Z</time>
      </trkpt>
      <trkpt lat="44.95794" lon="6.49565">
        <ele>1940.4</ele>
        <time>2024-08-11T10:04:24Z</time>
      </trkpt>
      <trkpt lat="44.95794" lon="6.49565">
        <ele>1940.6</ele>
        <time>2024-08-11T10:04:25Z</time>
      </trkpt>
      <trkpt lat="44.95794" lon="6.49565">
        <ele>1940.8</ele>
        <time>2024-08-11T10:04:26Z</time>
      </trkpt>
      <trkpt lat="44.95794" lon="6.49565">
        <ele>1941</ele>
        <time>2024-08-11T10:04:27Z</time>
      </trkpt>
      <trkpt lat="44.95794" lon="6.49565">
        <ele>1941.4</ele>
        <time>2024-08-11T10:04:28Z</time>
      </trkpt>
      <trkpt lat="44.95794" lon="6.49565">
        <ele>1941.4</ele>
        <time>2024-08-11T10:04:29Z</time>
      </trkpt>
      <trkpt lat="44.95794" lon="6.49565">
        <ele>1941.4</ele>
        <time>2024-08-11T10:04:30Z</time>
      </trkpt>
      <trkpt lat="44.95794" lon="6.49565">
        <ele>1941.4</ele>
        <time>2024-08-11T10:04:31Z</time>
      </trkpt>
      <trkpt lat="44.95794" lon="6.49565">
        <ele>1941.8</ele>
        <time>2024-08-11T10:04:32Z</time>
      </trkpt>
      <trkpt lat="44.95794" lon="6.49565">
        <ele>1942</ele>
        <time>2024-08-11T10:04:33Z</time>
      </trkpt>
      <trkpt lat="44.95794" lon="6.49565">
        <ele>1942.2</ele>
        <time>2024-08-11T10:04:34Z</time>
      </trkpt>
      <trkpt lat="44.95794" lon="6.49565">
        <ele>1942.6</ele>
        <time>2024-08-11T10:04:35Z</time>
      </trkpt>
      <trkpt lat="44.95794" lon="6.49565">
        <ele>1942.6</ele>
        <time>2024-08-11T10:04:36Z</time>
      </trkpt>
      <trkpt lat="44.95791" lon="6.49564">
        <ele>1942.8</ele>
        <time>2024-08-11T10:04:37Z</time>
      </trkpt>
      <trkpt lat="44.95791" lon="6.49564">
        <ele>1943</ele>
        <time>2024-08-11T10:04:38Z</time>
      </trkpt>
      <trkpt lat="44.95789" lon="6.49566">
        <ele>1943.4</ele>
        <time>2024-08-11T10:04:39Z</time>
      </trkpt>
      <trkpt lat="44.95789" lon="6.49566">
        <ele>1943.4</ele>
        <time>2024-08-11T10:04:40Z</time>
      </trkpt>
      <trkpt lat="44.95786" lon="6.49568">
        <ele>1943.4</ele>
        <time>2024-08-11T10:04:41Z</time>
      </trkpt>
      <trkpt lat="44.95786" lon="6.49568">
        <ele>1943.8</ele>
        <time>2024-08-11T10:04:42Z</time>
      </trkpt>
      <trkpt lat="44.95783" lon="6.4957">
        <ele>1944</ele>
        <time>2024-08-11T10:04:43Z</time>
      </trkpt>
      <trkpt lat="44.95783" lon="6.4957">
        <ele>1944</ele>
        <time>2024-08-11T10:04:44Z</time>
      </trkpt>
      <trkpt lat="44.95781" lon="6.49572">
        <ele>1944.4</ele>
        <time>2024-08-11T10:04:45Z</time>
      </trkpt>
      <trkpt lat="44.95781" lon="6.49572">
        <ele>1944.4</ele>
        <time>2024-08-11T10:04:46Z</time>
      </trkpt>
      <trkpt lat="44.9578" lon="6.49572">
        <ele>1944.6</ele>
        <time>2024-08-11T10:04:47Z</time>
      </trkpt>
      <trkpt lat="44.9578" lon="6.49572">
        <ele>1944.6</ele>
        <time>2024-08-11T10:04:48Z</time>
      </trkpt>
      <trkpt lat="44.9578" lon="6.49572">
        <ele>1944.8</ele>
        <time>2024-08-11T10:04:49Z</time>
      </trkpt>
      <trkpt lat="44.95777" lon="6.49572">
        <ele>1944.8</ele>
        <time>2024-08-11T10:04:50Z</time>
      </trkpt>
      <trkpt lat="44.95777" lon="6.49572">
        <ele>1945.4</ele>
        <time>2024-08-11T10:04:51Z</time>
      </trkpt>
      <trkpt lat="44.95775" lon="6.49571">
        <ele>1945.4</ele>
        <time>2024-08-11T10:04:52Z</time>
      </trkpt>
      <trkpt lat="44.95775" lon="6.49571">
        <ele>1945.6</ele>
        <time>2024-08-11T10:04:53Z</time>
      </trkpt>
      <trkpt lat="44.95775" lon="6.49571">
        <ele>1945.8</ele>
        <time>2024-08-11T10:04:54Z</time>
      </trkpt>
      <trkpt lat="44.95773" lon="6.49572">
        <ele>1945.8</ele>
        <time>2024-08-11T10:04:55Z</time>
      </trkpt>
      <trkpt lat="44.95773" lon="6.49572">
        <ele>1946.4</ele>
        <time>2024-08-11T10:04:56Z</time>
      </trkpt>
      <trkpt lat="44.95773" lon="6.49572">
        <ele>1946.4</ele>
        <time>2024-08-11T10:04:57Z</time>
      </trkpt>
      <trkpt lat="44.95771" lon="6.49573">
        <ele>1946.4</ele>
        <time>2024-08-11T10:04:58Z</time>
      </trkpt>
      <trkpt lat="44.95771" lon="6.49573">
        <ele>1946.4</ele>
        <time>2024-08-11T10:04:59Z</time>
      </trkpt>
      <trkpt lat="44.95769" lon="6.49573">
        <ele>1947</ele>
        <time>2024-08-11T10:05:00Z</time>
      </trkpt>
      <trkpt lat="44.95769" lon="6.49573">
        <ele>1947</ele>
        <time>2024-08-11T10:05:01Z</time>
      </trkpt>
      <trkpt lat="44.95769" lon="6.49573">
        <ele>1947</ele>
        <time>2024-08-11T10:05:02Z</time>
      </trkpt>
      <trkpt lat="44.95769" lon="6.49573">
        <ele>1947</ele>
        <time>2024-08-11T10:05:03Z</time>
      </trkpt>
      <trkpt lat="44.95767" lon="6.49572">
        <ele>1947.4</ele>
        <time>2024-08-11T10:05:04Z</time>
      </trkpt>
      <trkpt lat="44.95767" lon="6.49572">
        <ele>1947.4</ele>
        <time>2024-08-11T10:05:05Z</time>
      </trkpt>
      <trkpt lat="44.95767" lon="6.49572">
        <ele>1947.4</ele>
        <time>2024-08-11T10:05:06Z</time>
      </trkpt>
      <trkpt lat="44.95765" lon="6.49575">
        <ele>1947.6</ele>
        <time>2024-08-11T10:05:07Z</time>
      </trkpt>
      <trkpt lat="44.95765" lon="6.49575">
        <ele>1947.6</ele>
        <time>2024-08-11T10:05:08Z</time>
      </trkpt>
      <trkpt lat="44.95765" lon="6.49575">
        <ele>1948</ele>
        <time>2024-08-11T10:05:09Z</time>
      </trkpt>
      <trkpt lat="44.95764" lon="6.49576">
        <ele>1948.2</ele>
        <time>2024-08-11T10:05:10Z</time>
      </trkpt>
      <trkpt lat="44.95764" lon="6.49576">
        <ele>1948.2</ele>
        <time>2024-08-11T10:05:11Z</time>
      </trkpt>
      <trkpt lat="44.95764" lon="6.49576">
        <ele>1948.4</ele>
        <time>2024-08-11T10:05:12Z</time>
      </trkpt>
      <trkpt lat="44.95762" lon="6.49578">
        <ele>1948.8</ele>
        <time>2024-08-11T10:05:13Z</time>
      </trkpt>
      <trkpt lat="44.95762" lon="6.49578">
        <ele>1948.8</ele>
        <time>2024-08-11T10:05:14Z</time>
      </trkpt>
      <trkpt lat="44.95762" lon="6.49578">
        <ele>1948.8</ele>
        <time>2024-08-11T10:05:15Z</time>
      </trkpt>
      <trkpt lat="44.95759" lon="6.49579">
        <ele>1949</ele>
        <time>2024-08-11T10:05:16Z</time>
      </trkpt>
      <trkpt lat="44.95759" lon="6.49579">
        <ele>1949.2</ele>
        <time>2024-08-11T10:05:17Z</time>
      </trkpt>
      <trkpt lat="44.95758" lon="6.49579">
        <ele>1949.2</ele>
        <time>2024-08-11T10:05:18Z</time>
      </trkpt>
      <trkpt lat="44.95758" lon="6.49579">
        <ele>1949.2</ele>
        <time>2024-08-11T10:05:19Z</time>
      </trkpt>
      <trkpt lat="44.95755" lon="6.4958">
        <ele>1949.2</ele>
        <time>2024-08-11T10:05:20Z</time>
      </trkpt>
      <trkpt lat="44.95755" lon="6.4958">
        <ele>1949.6</ele>
        <time>2024-08-11T10:05:21Z</time>
      </trkpt>
      <trkpt lat="44.95753" lon="6.49579">
        <ele>1950</ele>
        <time>2024-08-11T10:05:22Z</time>
      </trkpt>
      <trkpt lat="44.95753" lon="6.49579">
        <ele>1950</ele>
        <time>2024-08-11T10:05:23Z</time>
      </trkpt>
      <trkpt lat="44.95751" lon="6.49578">
        <ele>1950</ele>
        <time>2024-08-11T10:05:24Z</time>
      </trkpt>
      <trkpt lat="44.95751" lon="6.49578">
        <ele>1950</ele>
        <time>2024-08-11T10:05:25Z</time>
      </trkpt>
      <trkpt lat="44.95749" lon="6.49578">
        <ele>1950</ele>
        <time>2024-08-11T10:05:26Z</time>
      </trkpt>
      <trkpt lat="44.95749" lon="6.49578">
        <ele>1950</ele>
        <time>2024-08-11T10:05:27Z</time>
      </trkpt>
      <trkpt lat="44.95747" lon="6.49579">
        <ele>1950</ele>
        <time>2024-08-11T10:05:28Z</time>
      </trkpt>
      <trkpt lat="44.95747" lon="6.49579">
        <ele>1950.2</ele>
        <time>2024-08-11T10:05:29Z</time>
      </trkpt>
      <trkpt lat="44.95744" lon="6.4958">
        <ele>1950.2</ele>
        <time>2024-08-11T10:05:30Z</time>
      </trkpt>
      <trkpt lat="44.95744" lon="6.4958">
        <ele>1950.4</ele>
        <time>2024-08-11T10:05:31Z</time>
      </trkpt>
      <trkpt lat="44.95742" lon="6.4958">
        <ele>1950.4</ele>
        <time>2024-08-11T10:05:32Z</time>
      </trkpt>
      <trkpt lat="44.95742" lon="6.4958">
        <ele>1950.4</ele>
        <time>2024-08-11T10:05:33Z</time>
      </trkpt>
      <trkpt lat="44.95742" lon="6.4958">
        <ele>1950.6</ele>
        <time>2024-08-11T10:05:34Z</time>
      </trkpt>
      <trkpt lat="44.9574" lon="6.4958">
        <ele>1951.2</ele>
        <time>2024-08-11T10:05:35Z</time>
      </trkpt>
      <trkpt lat="44.9574" lon="6.4958">
        <ele>1951.2</ele>
        <time>2024-08-11T10:05:36Z</time>
      </trkpt>
      <trkpt lat="44.95738" lon="6.49581">
        <ele>1951.4</ele>
        <time>2024-08-11T10:05:37Z</time>
      </trkpt>
      <trkpt lat="44.95738" lon="6.49581">
        <ele>1951.8</ele>
        <time>2024-08-11T10:05:38Z</time>
      </trkpt>
      <trkpt lat="44.95738" lon="6.49581">
        <ele>1951.8</ele>
        <time>2024-08-11T10:05:39Z</time>
      </trkpt>
      <trkpt lat="44.95735" lon="6.49581">
        <ele>1952</ele>
        <time>2024-08-11T10:05:40Z</time>
      </trkpt>
      <trkpt lat="44.95735" lon="6.49581">
        <ele>1952.2</ele>
        <time>2024-08-11T10:05:41Z</time>
      </trkpt>
      <trkpt lat="44.95735" lon="6.49581">
        <ele>1952.6</ele>
        <time>2024-08-11T10:05:42Z</time>
      </trkpt>
      <trkpt lat="44.95733" lon="6.49582">
        <ele>1952.8</ele>
        <time>2024-08-11T10:05:43Z</time>
      </trkpt>
      <trkpt lat="44.95733" lon="6.49582">
        <ele>1952.8</ele>
        <time>2024-08-11T10:05:44Z</time>
      </trkpt>
      <trkpt lat="44.95733" lon="6.49582">
        <ele>1952.8</ele>
        <time>2024-08-11T10:05:45Z</time>
      </trkpt>
      <trkpt lat="44.95731" lon="6.49582">
        <ele>1953.2</ele>
        <time>2024-08-11T10:05:46Z</time>
      </trkpt>
      <trkpt lat="44.95731" lon="6.49582">
        <ele>1953.4</ele>
        <time>2024-08-11T10:05:47Z</time>
      </trkpt>
      <trkpt lat="44.95731" lon="6.49582">
        <ele>1953.4</ele>
        <time>2024-08-11T10:05:48Z</time>
      </trkpt>
      <trkpt lat="44.95729" lon="6.49581">
        <ele>1953.8</ele>
        <time>2024-08-11T10:05:49Z</time>
      </trkpt>
      <trkpt lat="44.95729" lon="6.49581">
        <ele>1953.8</ele>
        <time>2024-08-11T10:05:50Z</time>
      </trkpt>
      <trkpt lat="44.95729" lon="6.49581">
        <ele>1953.8</ele>
        <time>2024-08-11T10:05:51Z</time>
      </trkpt>
      <trkpt lat="44.95727" lon="6.49581">
        <ele>1954.2</ele>
        <time>2024-08-11T10:05:52Z</time>
      </trkpt>
      <trkpt lat="44.95727" lon="6.49581">
        <ele>1954.4</ele>
        <time>2024-08-11T10:05:53Z</time>
      </trkpt>
      <trkpt lat="44.95727" lon="6.49581">
        <ele>1954.6</ele>
        <time>2024-08-11T10:05:54Z</time>
      </trkpt>
      <trkpt lat="44.95727" lon="6.49581">
        <ele>1955.2</ele>
        <time>2024-08-11T10:05:55Z</time>
      </trkpt>
      <trkpt lat="44.95725" lon="6.49582">
        <ele>1955.2</ele>
        <time>2024-08-11T10:05:56Z</time>
      </trkpt>
      <trkpt lat="44.95725" lon="6.49582">
        <ele>1955.4</ele>
        <time>2024-08-11T10:05:57Z</time>
      </trkpt>
      <trkpt lat="44.95725" lon="6.49582">
        <ele>1955.8</ele>
        <time>2024-08-11T10:05:58Z</time>
      </trkpt>
      <trkpt lat="44.95723" lon="6.49583">
        <ele>1956.2</ele>
        <time>2024-08-11T10:05:59Z</time>
      </trkpt>
      <trkpt lat="44.95723" lon="6.49583">
        <ele>1956.2</ele>
        <time>2024-08-11T10:06:00Z</time>
      </trkpt>
      <trkpt lat="44.95723" lon="6.49583">
        <ele>1956.2</ele>
        <time>2024-08-11T10:06:01Z</time>
      </trkpt>
      <trkpt lat="44.95721" lon="6.49586">
        <ele>1956.6</ele>
        <time>2024-08-11T10:06:02Z</time>
      </trkpt>
      <trkpt lat="44.95721" lon="6.49586">
        <ele>1956.6</ele>
        <time>2024-08-11T10:06:03Z</time>
      </trkpt>
      <trkpt lat="44.95721" lon="6.49586">
        <ele>1956.6</ele>
        <time>2024-08-11T10:06:04Z</time>
      </trkpt>
      <trkpt lat="44.9572" lon="6.49588">
        <ele>1957</ele>
        <time>2024-08-11T10:06:05Z</time>
      </trkpt>
      <trkpt lat="44.9572" lon="6.49588">
        <ele>1957.2</ele>
        <time>2024-08-11T10:06:06Z</time>
      </trkpt>
      <trkpt lat="44.9572" lon="6.49588">
        <ele>1957.2</ele>
        <time>2024-08-11T10:06:07Z</time>
      </trkpt>
      <trkpt lat="44.95718" lon="6.49589">
        <ele>1957.6</ele>
        <time>2024-08-11T10:06:08Z</time>
      </trkpt>
      <trkpt lat="44.95718" lon="6.49589">
        <ele>1957.8</ele>
        <time>2024-08-11T10:06:09Z</time>
      </trkpt>
      <trkpt lat="44.95718" lon="6.49589">
        <ele>1957.8</ele>
        <time>2024-08-11T10:06:10Z</time>
      </trkpt>
      <trkpt lat="44.95716" lon="6.49589">
        <ele>1958.2</ele>
        <time>2024-08-11T10:06:11Z</time>
      </trkpt>
      <trkpt lat="44.95716" lon="6.49589">
        <ele>1958.2</ele>
        <time>2024-08-11T10:06:12Z</time>
      </trkpt>
      <trkpt lat="44.95716" lon="6.49589">
        <ele>1958.4</ele>
        <time>2024-08-11T10:06:13Z</time>
      </trkpt>
      <trkpt lat="44.95714" lon="6.4959">
        <ele>1958.6</ele>
        <time>2024-08-11T10:06:14Z</time>
      </trkpt>
      <trkpt lat="44.95714" lon="6.4959">
        <ele>1958.8</ele>
        <time>2024-08-11T10:06:15Z</time>
      </trkpt>
      <trkpt lat="44.95714" lon="6.4959">
        <ele>1958.8</ele>
        <time>2024-08-11T10:06:16Z</time>
      </trkpt>
      <trkpt lat="44.95712" lon="6.49591">
        <ele>1959</ele>
        <time>2024-08-11T10:06:17Z</time>
      </trkpt>
      <trkpt lat="44.95712" lon="6.49591">
        <ele>1959.4</ele>
        <time>2024-08-11T10:06:18Z</time>
      </trkpt>
      <trkpt lat="44.95712" lon="6.49591">
        <ele>1959.6</ele>
        <time>2024-08-11T10:06:19Z</time>
      </trkpt>
      <trkpt lat="44.9571" lon="6.49592">
        <ele>1959.8</ele>
        <time>2024-08-11T10:06:20Z</time>
      </trkpt>
      <trkpt lat="44.9571" lon="6.49592">
        <ele>1959.8</ele>
        <time>2024-08-11T10:06:21Z</time>
      </trkpt>
      <trkpt lat="44.9571" lon="6.49592">
        <ele>1960</ele>
        <time>2024-08-11T10:06:22Z</time>
      </trkpt>
      <trkpt lat="44.95709" lon="6.49593">
        <ele>1960.4</ele>
        <time>2024-08-11T10:06:23Z</time>
      </trkpt>
      <trkpt lat="44.95709" lon="6.49593">
        <ele>1960.6</ele>
        <time>2024-08-11T10:06:24Z</time>
      </trkpt>
      <trkpt lat="44.95709" lon="6.49593">
        <ele>1960.6</ele>
        <time>2024-08-11T10:06:25Z</time>
      </trkpt>
      <trkpt lat="44.95706" lon="6.49594">
        <ele>1960.8</ele>
        <time>2024-08-11T10:06:26Z</time>
      </trkpt>
      <trkpt lat="44.95706" lon="6.49594">
        <ele>1961.2</ele>
        <time>2024-08-11T10:06:27Z</time>
      </trkpt>
      <trkpt lat="44.95706" lon="6.49594">
        <ele>1961.2</ele>
        <time>2024-08-11T10:06:28Z</time>
      </trkpt>
      <trkpt lat="44.95704" lon="6.49594">
        <ele>1961.4</ele>
        <time>2024-08-11T10:06:29Z</time>
      </trkpt>
      <trkpt lat="44.95704" lon="6.49594">
        <ele>1961.4</ele>
        <time>2024-08-11T10:06:30Z</time>
      </trkpt>
      <trkpt lat="44.95702" lon="6.49594">
        <ele>1961.6</ele>
        <time>2024-08-11T10:06:31Z</time>
      </trkpt>
      <trkpt lat="44.95702" lon="6.49594">
        <ele>1962</ele>
        <time>2024-08-11T10:06:32Z</time>
      </trkpt>
      <trkpt lat="44.95702" lon="6.49594">
        <ele>1962.2</ele>
        <time>2024-08-11T10:06:33Z</time>
      </trkpt>
      <trkpt lat="44.957" lon="6.49596">
        <ele>1962.2</ele>
        <time>2024-08-11T10:06:34Z</time>
      </trkpt>
      <trkpt lat="44.957" lon="6.49596">
        <ele>1962.6</ele>
        <time>2024-08-11T10:06:35Z</time>
      </trkpt>
      <trkpt lat="44.95698" lon="6.49597">
        <ele>1962.6</ele>
        <time>2024-08-11T10:06:36Z</time>
      </trkpt>
      <trkpt lat="44.95698" lon="6.49597">
        <ele>1962.8</ele>
        <time>2024-08-11T10:06:37Z</time>
      </trkpt>
      <trkpt lat="44.95698" lon="6.49597">
        <ele>1963.4</ele>
        <time>2024-08-11T10:06:38Z</time>
      </trkpt>
      <trkpt lat="44.95696" lon="6.49598">
        <ele>1963.8</ele>
        <time>2024-08-11T10:06:39Z</time>
      </trkpt>
      <trkpt lat="44.95696" lon="6.49598">
        <ele>1964</ele>
        <time>2024-08-11T10:06:40Z</time>
      </trkpt>
      <trkpt lat="44.95696" lon="6.49598">
        <ele>1964</ele>
        <time>2024-08-11T10:06:41Z</time>
      </trkpt>
      <trkpt lat="44.95694" lon="6.49599">
        <ele>1964.4</ele>
        <time>2024-08-11T10:06:42Z</time>
      </trkpt>
      <trkpt lat="44.95694" lon="6.49599">
        <ele>1964.6</ele>
        <time>2024-08-11T10:06:43Z</time>
      </trkpt>
      <trkpt lat="44.95694" lon="6.49599">
        <ele>1964.6</ele>
        <time>2024-08-11T10:06:44Z</time>
      </trkpt>
      <trkpt lat="44.95694" lon="6.49599">
        <ele>1964.6</ele>
        <time>2024-08-11T10:06:45Z</time>
      </trkpt>
      <trkpt lat="44.95693" lon="6.49601">
        <ele>1964.8</ele>
        <time>2024-08-11T10:06:46Z</time>
      </trkpt>
      <trkpt lat="44.95693" lon="6.49601">
        <ele>1965.2</ele>
        <time>2024-08-11T10:06:47Z</time>
      </trkpt>
      <trkpt lat="44.95693" lon="6.49601">
        <ele>1965.2</ele>
        <time>2024-08-11T10:06:48Z</time>
      </trkpt>
      <trkpt lat="44.95693" lon="6.49601">
        <ele>1965.6</ele>
        <time>2024-08-11T10:06:49Z</time>
      </trkpt>
      <trkpt lat="44.95691" lon="6.49604">
        <ele>1965.8</ele>
        <time>2024-08-11T10:06:50Z</time>
      </trkpt>
      <trkpt lat="44.95691" lon="6.49604">
        <ele>1966</ele>
        <time>2024-08-11T10:06:51Z</time>
      </trkpt>
      <trkpt lat="44.95691" lon="6.49604">
        <ele>1966</ele>
        <time>2024-08-11T10:06:52Z</time>
      </trkpt>
      <trkpt lat="44.95689" lon="6.49605">
        <ele>1966.2</ele>
        <time>2024-08-11T10:06:53Z</time>
      </trkpt>
      <trkpt lat="44.95689" lon="6.49605">
        <ele>1966.2</ele>
        <time>2024-08-11T10:06:54Z</time>
      </trkpt>
      <trkpt lat="44.95689" lon="6.49605">
        <ele>1966.2</ele>
        <time>2024-08-11T10:06:55Z</time>
      </trkpt>
      <trkpt lat="44.95687" lon="6.49604">
        <ele>1966.4</ele>
        <time>2024-08-11T10:06:56Z</time>
      </trkpt>
      <trkpt lat="44.95687" lon="6.49604">
        <ele>1966.6</ele>
        <time>2024-08-11T10:06:57Z</time>
      </trkpt>
      <trkpt lat="44.95685" lon="6.49604">
        <ele>1966.6</ele>
        <time>2024-08-11T10:06:58Z</time>
      </trkpt>
      <trkpt lat="44.95685" lon="6.49604">
        <ele>1966.6</ele>
        <time>2024-08-11T10:06:59Z</time>
      </trkpt>
      <trkpt lat="44.95685" lon="6.49604">
        <ele>1967.2</ele>
        <time>2024-08-11T10:07:00Z</time>
      </trkpt>
      <trkpt lat="44.95683" lon="6.49604">
        <ele>1967.8</ele>
        <time>2024-08-11T10:07:01Z</time>
      </trkpt>
      <trkpt lat="44.95683" lon="6.49604">
        <ele>1967.6</ele>
        <time>2024-08-11T10:07:02Z</time>
      </trkpt>
      <trkpt lat="44.95683" lon="6.49604">
        <ele>1967.6</ele>
        <time>2024-08-11T10:07:03Z</time>
      </trkpt>
      <trkpt lat="44.95683" lon="6.49604">
        <ele>1968.2</ele>
        <time>2024-08-11T10:07:04Z</time>
      </trkpt>
      <trkpt lat="44.9568" lon="6.49604">
        <ele>1968.2</ele>
        <time>2024-08-11T10:07:05Z</time>
      </trkpt>
      <trkpt lat="44.9568" lon="6.49604">
        <ele>1968.4</ele>
        <time>2024-08-11T10:07:06Z</time>
      </trkpt>
      <trkpt lat="44.95678" lon="6.49605">
        <ele>1969</ele>
        <time>2024-08-11T10:07:07Z</time>
      </trkpt>
      <trkpt lat="44.95678" lon="6.49605">
        <ele>1969.2</ele>
        <time>2024-08-11T10:07:08Z</time>
      </trkpt>
      <trkpt lat="44.95678" lon="6.49605">
        <ele>1969.2</ele>
        <time>2024-08-11T10:07:09Z</time>
      </trkpt>
      <trkpt lat="44.95677" lon="6.49606">
        <ele>1969.4</ele>
        <time>2024-08-11T10:07:10Z</time>
      </trkpt>
      <trkpt lat="44.95677" lon="6.49606">
        <ele>1969.4</ele>
        <time>2024-08-11T10:07:11Z</time>
      </trkpt>
      <trkpt lat="44.95677" lon="6.49606">
        <ele>1969.8</ele>
        <time>2024-08-11T10:07:12Z</time>
      </trkpt>
      <trkpt lat="44.95675" lon="6.49607">
        <ele>1969.8</ele>
        <time>2024-08-11T10:07:13Z</time>
      </trkpt>
      <trkpt lat="44.95675" lon="6.49607">
        <ele>1970</ele>
        <time>2024-08-11T10:07:14Z</time>
      </trkpt>
      <trkpt lat="44.95673" lon="6.49609">
        <ele>1970.2</ele>
        <time>2024-08-11T10:07:15Z</time>
      </trkpt>
      <trkpt lat="44.95673" lon="6.49609">
        <ele>1970.4</ele>
        <time>2024-08-11T10:07:16Z</time>
      </trkpt>
      <trkpt lat="44.95673" lon="6.49609">
        <ele>1970.6</ele>
        <time>2024-08-11T10:07:17Z</time>
      </trkpt>
      <trkpt lat="44.95671" lon="6.49611">
        <ele>1970.8</ele>
        <time>2024-08-11T10:07:18Z</time>
      </trkpt>
      <trkpt lat="44.95671" lon="6.49611">
        <ele>1970.8</ele>
        <time>2024-08-11T10:07:19Z</time>
      </trkpt>
      <trkpt lat="44.95671" lon="6.49611">
        <ele>1971</ele>
        <time>2024-08-11T10:07:20Z</time>
      </trkpt>
      <trkpt lat="44.95671" lon="6.49611">
        <ele>1971.2</ele>
        <time>2024-08-11T10:07:21Z</time>
      </trkpt>
      <trkpt lat="44.95669" lon="6.49611">
        <ele>1971.2</ele>
        <time>2024-08-11T10:07:22Z</time>
      </trkpt>
      <trkpt lat="44.95669" lon="6.49611">
        <ele>1971.2</ele>
        <time>2024-08-11T10:07:23Z</time>
      </trkpt>
      <trkpt lat="44.95669" lon="6.49611">
        <ele>1971.4</ele>
        <time>2024-08-11T10:07:24Z</time>
      </trkpt>
      <trkpt lat="44.95668" lon="6.4961">
        <ele>1971.6</ele>
        <time>2024-08-11T10:07:25Z</time>
      </trkpt>
      <trkpt lat="44.95668" lon="6.4961">
        <ele>1971.8</ele>
        <time>2024-08-11T10:07:26Z</time>
      </trkpt>
      <trkpt lat="44.95668" lon="6.4961">
        <ele>1972.2</ele>
        <time>2024-08-11T10:07:27Z</time>
      </trkpt>
      <trkpt lat="44.95668" lon="6.4961">
        <ele>1972.4</ele>
        <time>2024-08-11T10:07:28Z</time>
      </trkpt>
      <trkpt lat="44.95668" lon="6.4961">
        <ele>1972.6</ele>
        <time>2024-08-11T10:07:29Z</time>
      </trkpt>
      <trkpt lat="44.95665" lon="6.49609">
        <ele>1973</ele>
        <time>2024-08-11T10:07:30Z</time>
      </trkpt>
      <trkpt lat="44.95665" lon="6.49609">
        <ele>1973</ele>
        <time>2024-08-11T10:07:31Z</time>
      </trkpt>
      <trkpt lat="44.95665" lon="6.49609">
        <ele>1973</ele>
        <time>2024-08-11T10:07:32Z</time>
      </trkpt>
      <trkpt lat="44.95665" lon="6.49609">
        <ele>1973.4</ele>
        <time>2024-08-11T10:07:33Z</time>
      </trkpt>
      <trkpt lat="44.95665" lon="6.49609">
        <ele>1973.6</ele>
        <time>2024-08-11T10:07:34Z</time>
      </trkpt>
      <trkpt lat="44.95665" lon="6.49609">
        <ele>1973.6</ele>
        <time>2024-08-11T10:07:35Z</time>
      </trkpt>
      <trkpt lat="44.95664" lon="6.49611">
        <ele>1973.6</ele>
        <time>2024-08-11T10:07:36Z</time>
      </trkpt>
      <trkpt lat="44.95664" lon="6.49611">
        <ele>1973.6</ele>
        <time>2024-08-11T10:07:37Z</time>
      </trkpt>
      <trkpt lat="44.95664" lon="6.49611">
        <ele>1974</ele>
        <time>2024-08-11T10:07:38Z</time>
      </trkpt>
      <trkpt lat="44.95662" lon="6.49613">
        <ele>1974.2</ele>
        <time>2024-08-11T10:07:39Z</time>
      </trkpt>
      <trkpt lat="44.95662" lon="6.49613">
        <ele>1974.2</ele>
        <time>2024-08-11T10:07:40Z</time>
      </trkpt>
      <trkpt lat="44.95662" lon="6.49613">
        <ele>1974.4</ele>
        <time>2024-08-11T10:07:41Z</time>
      </trkpt>
      <trkpt lat="44.9566" lon="6.49614">
        <ele>1974.6</ele>
        <time>2024-08-11T10:07:42Z</time>
      </trkpt>
      <trkpt lat="44.9566" lon="6.49614">
        <ele>1974.6</ele>
        <time>2024-08-11T10:07:43Z</time>
      </trkpt>
      <trkpt lat="44.95658" lon="6.49615">
        <ele>1974.8</ele>
        <time>2024-08-11T10:07:44Z</time>
      </trkpt>
      <trkpt lat="44.95658" lon="6.49615">
        <ele>1975</ele>
        <time>2024-08-11T10:07:45Z</time>
      </trkpt>
      <trkpt lat="44.95656" lon="6.49616">
        <ele>1975.4</ele>
        <time>2024-08-11T10:07:46Z</time>
      </trkpt>
      <trkpt lat="44.95656" lon="6.49616">
        <ele>1975.4</ele>
        <time>2024-08-11T10:07:47Z</time>
      </trkpt>
      <trkpt lat="44.95653" lon="6.49616">
        <ele>1975.6</ele>
        <time>2024-08-11T10:07:48Z</time>
      </trkpt>
      <trkpt lat="44.95653" lon="6.49616">
        <ele>1976</ele>
        <time>2024-08-11T10:07:49Z</time>
      </trkpt>
      <trkpt lat="44.95653" lon="6.49616">
        <ele>1976</ele>
        <time>2024-08-11T10:07:50Z</time>
      </trkpt>
      <trkpt lat="44.95653" lon="6.49616">
        <ele>1976</ele>
        <time>2024-08-11T10:07:51Z</time>
      </trkpt>
      <trkpt lat="44.95653" lon="6.49616">
        <ele>1976.6</ele>
        <time>2024-08-11T10:07:52Z</time>
      </trkpt>
      <trkpt lat="44.95652" lon="6.49618">
        <ele>1977</ele>
        <time>2024-08-11T10:07:53Z</time>
      </trkpt>
      <trkpt lat="44.95652" lon="6.49618">
        <ele>1977.2</ele>
        <time>2024-08-11T10:07:54Z</time>
      </trkpt>
      <trkpt lat="44.95651" lon="6.4962">
        <ele>1977.2</ele>
        <time>2024-08-11T10:07:55Z</time>
      </trkpt>
      <trkpt lat="44.95651" lon="6.4962">
        <ele>1977.2</ele>
        <time>2024-08-11T10:07:56Z</time>
      </trkpt>
      <trkpt lat="44.95651" lon="6.4962">
        <ele>1977.2</ele>
        <time>2024-08-11T10:07:57Z</time>
      </trkpt>
      <trkpt lat="44.95649" lon="6.49621">
        <ele>1977.2</ele>
        <time>2024-08-11T10:07:58Z</time>
      </trkpt>
      <trkpt lat="44.95649" lon="6.49621">
        <ele>1977.2</ele>
        <time>2024-08-11T10:07:59Z</time>
      </trkpt>
      <trkpt lat="44.95649" lon="6.49621">
        <ele>1977.4</ele>
        <time>2024-08-11T10:08:00Z</time>
      </trkpt>
      <trkpt lat="44.95647" lon="6.49622">
        <ele>1977.8</ele>
        <time>2024-08-11T10:08:01Z</time>
      </trkpt>
      <trkpt lat="44.95647" lon="6.49622">
        <ele>1978.2</ele>
        <time>2024-08-11T10:08:02Z</time>
      </trkpt>
      <trkpt lat="44.95647" lon="6.49622">
        <ele>1978.2</ele>
        <time>2024-08-11T10:08:03Z</time>
      </trkpt>
      <trkpt lat="44.95645" lon="6.49624">
        <ele>1978.4</ele>
        <time>2024-08-11T10:08:04Z</time>
      </trkpt>
      <trkpt lat="44.95645" lon="6.49624">
        <ele>1978.4</ele>
        <time>2024-08-11T10:08:05Z</time>
      </trkpt>
      <trkpt lat="44.95645" lon="6.49624">
        <ele>1978.6</ele>
        <time>2024-08-11T10:08:06Z</time>
      </trkpt>
      <trkpt lat="44.95643" lon="6.49625">
        <ele>1979</ele>
        <time>2024-08-11T10:08:07Z</time>
      </trkpt>
      <trkpt lat="44.95643" lon="6.49625">
        <ele>1979.2</ele>
        <time>2024-08-11T10:08:08Z</time>
      </trkpt>
      <trkpt lat="44.9564" lon="6.49625">
        <ele>1979.2</ele>
        <time>2024-08-11T10:08:09Z</time>
      </trkpt>
      <trkpt lat="44.9564" lon="6.49625">
        <ele>1979.2</ele>
        <time>2024-08-11T10:08:10Z</time>
      </trkpt>
      <trkpt lat="44.9564" lon="6.49625">
        <ele>1979.4</ele>
        <time>2024-08-11T10:08:11Z</time>
      </trkpt>
      <trkpt lat="44.95638" lon="6.49624">
        <ele>1979.8</ele>
        <time>2024-08-11T10:08:12Z</time>
      </trkpt>
      <trkpt lat="44.95638" lon="6.49624">
        <ele>1979.8</ele>
        <time>2024-08-11T10:08:13Z</time>
      </trkpt>
      <trkpt lat="44.95638" lon="6.49624">
        <ele>1979.8</ele>
        <time>2024-08-11T10:08:14Z</time>
      </trkpt>
      <trkpt lat="44.95638" lon="6.49624">
        <ele>1980.4</ele>
        <time>2024-08-11T10:08:15Z</time>
      </trkpt>
      <trkpt lat="44.95638" lon="6.49624">
        <ele>1980.4</ele>
        <time>2024-08-11T10:08:16Z</time>
      </trkpt>
      <trkpt lat="44.95637" lon="6.49622">
        <ele>1980.4</ele>
        <time>2024-08-11T10:08:17Z</time>
      </trkpt>
      <trkpt lat="44.95637" lon="6.49622">
        <ele>1980.4</ele>
        <time>2024-08-11T10:08:18Z</time>
      </trkpt>
      <trkpt lat="44.95637" lon="6.49622">
        <ele>1980.8</ele>
        <time>2024-08-11T10:08:19Z</time>
      </trkpt>
      <trkpt lat="44.95637" lon="6.49622">
        <ele>1980.8</ele>
        <time>2024-08-11T10:08:20Z</time>
      </trkpt>
      <trkpt lat="44.95635" lon="6.49621">
        <ele>1981.4</ele>
        <time>2024-08-11T10:08:21Z</time>
      </trkpt>
      <trkpt lat="44.95635" lon="6.49621">
        <ele>1981.4</ele>
        <time>2024-08-11T10:08:22Z</time>
      </trkpt>
      <trkpt lat="44.95635" lon="6.49621">
        <ele>1981.6</ele>
        <time>2024-08-11T10:08:23Z</time>
      </trkpt>
      <trkpt lat="44.95634" lon="6.49619">
        <ele>1981.8</ele>
        <time>2024-08-11T10:08:24Z</time>
      </trkpt>
      <trkpt lat="44.95634" lon="6.49619">
        <ele>1981.8</ele>
        <time>2024-08-11T10:08:25Z</time>
      </trkpt>
      <trkpt lat="44.95634" lon="6.49619">
        <ele>1982.2</ele>
        <time>2024-08-11T10:08:26Z</time>
      </trkpt>
      <trkpt lat="44.95633" lon="6.49616">
        <ele>1982.2</ele>
        <time>2024-08-11T10:08:27Z</time>
      </trkpt>
      <trkpt lat="44.95633" lon="6.49616">
        <ele>1982.4</ele>
        <time>2024-08-11T10:08:28Z</time>
      </trkpt>
      <trkpt lat="44.95632" lon="6.49613">
        <ele>1982.4</ele>
        <time>2024-08-11T10:08:29Z</time>
      </trkpt>
      <trkpt lat="44.95632" lon="6.49613">
        <ele>1982.6</ele>
        <time>2024-08-11T10:08:30Z</time>
      </trkpt>
      <trkpt lat="44.95632" lon="6.49613">
        <ele>1982.8</ele>
        <time>2024-08-11T10:08:31Z</time>
      </trkpt>
      <trkpt lat="44.95631" lon="6.49611">
        <ele>1982.8</ele>
        <time>2024-08-11T10:08:32Z</time>
      </trkpt>
      <trkpt lat="44.95631" lon="6.49611">
        <ele>1983</ele>
        <time>2024-08-11T10:08:33Z</time>
      </trkpt>
      <trkpt lat="44.95629" lon="6.4961">
        <ele>1983.4</ele>
        <time>2024-08-11T10:08:34Z</time>
      </trkpt>
      <trkpt lat="44.95629" lon="6.4961">
        <ele>1983.4</ele>
        <time>2024-08-11T10:08:35Z</time>
      </trkpt>
      <trkpt lat="44.95629" lon="6.4961">
        <ele>1983.4</ele>
        <time>2024-08-11T10:08:36Z</time>
      </trkpt>
      <trkpt lat="44.95627" lon="6.49607">
        <ele>1983.6</ele>
        <time>2024-08-11T10:08:37Z</time>
      </trkpt>
      <trkpt lat="44.95627" lon="6.49607">
        <ele>1984.2</ele>
        <time>2024-08-11T10:08:38Z</time>
      </trkpt>
      <trkpt lat="44.95627" lon="6.49607">
        <ele>1984.4</ele>
        <time>2024-08-11T10:08:39Z</time>
      </trkpt>
      <trkpt lat="44.95625" lon="6.49606">
        <ele>1985</ele>
        <time>2024-08-11T10:08:40Z</time>
      </trkpt>
      <trkpt lat="44.95625" lon="6.49606">
        <ele>1985.2</ele>
        <time>2024-08-11T10:08:41Z</time>
      </trkpt>
      <trkpt lat="44.95625" lon="6.49606">
        <ele>1985.4</ele>
        <time>2024-08-11T10:08:42Z</time>
      </trkpt>
      <trkpt lat="44.95625" lon="6.49606">
        <ele>1985.4</ele>
        <time>2024-08-11T10:08:43Z</time>
      </trkpt>
      <trkpt lat="44.95625" lon="6.49606">
        <ele>1985.8</ele>
        <time>2024-08-11T10:08:44Z</time>
      </trkpt>
      <trkpt lat="44.95625" lon="6.49606">
        <ele>1986.2</ele>
        <time>2024-08-11T10:08:45Z</time>
      </trkpt>
      <trkpt lat="44.95625" lon="6.49606">
        <ele>1986.2</ele>
        <time>2024-08-11T10:08:46Z</time>
      </trkpt>
      <trkpt lat="44.95625" lon="6.49606">
        <ele>1986.2</ele>
        <time>2024-08-11T10:08:47Z</time>
      </trkpt>
      <trkpt lat="44.95623" lon="6.49606">
        <ele>1986.2</ele>
        <time>2024-08-11T10:08:48Z</time>
      </trkpt>
      <trkpt lat="44.95623" lon="6.49606">
        <ele>1986.2</ele>
        <time>2024-08-11T10:08:49Z</time>
      </trkpt>
      <trkpt lat="44.95623" lon="6.49606">
        <ele>1986.2</ele>
        <time>2024-08-11T10:08:50Z</time>
      </trkpt>
      <trkpt lat="44.95621" lon="6.49606">
        <ele>1986.2</ele>
        <time>2024-08-11T10:08:51Z</time>
      </trkpt>
      <trkpt lat="44.95621" lon="6.49606">
        <ele>1986.2</ele>
        <time>2024-08-11T10:08:52Z</time>
      </trkpt>
      <trkpt lat="44.95621" lon="6.49606">
        <ele>1986.2</ele>
        <time>2024-08-11T10:08:53Z</time>
      </trkpt>
      <trkpt lat="44.95621" lon="6.49606">
        <ele>1986.2</ele>
        <time>2024-08-11T10:08:54Z</time>
      </trkpt>
      <trkpt lat="44.95621" lon="6.49606">
        <ele>1986.4</ele>
        <time>2024-08-11T10:08:55Z</time>
      </trkpt>
      <trkpt lat="44.95619" lon="6.49606">
        <ele>1986.4</ele>
        <time>2024-08-11T10:08:56Z</time>
      </trkpt>
      <trkpt lat="44.95619" lon="6.49606">
        <ele>1986.6</ele>
        <time>2024-08-11T10:08:57Z</time>
      </trkpt>
      <trkpt lat="44.95617" lon="6.49605">
        <ele>1987</ele>
        <time>2024-08-11T10:08:58Z</time>
      </trkpt>
      <trkpt lat="44.95615" lon="6.49605">
        <ele>1987</ele>
        <time>2024-08-11T10:08:59Z</time>
      </trkpt>
      <trkpt lat="44.95615" lon="6.49605">
        <ele>1986.8</ele>
        <time>2024-08-11T10:09:00Z</time>
      </trkpt>
      <trkpt lat="44.95612" lon="6.49603">
        <ele>1986.8</ele>
        <time>2024-08-11T10:09:01Z</time>
      </trkpt>
      <trkpt lat="44.95612" lon="6.49603">
        <ele>1987.2</ele>
        <time>2024-08-11T10:09:02Z</time>
      </trkpt>
      <trkpt lat="44.9561" lon="6.496">
        <ele>1987.2</ele>
        <time>2024-08-11T10:09:03Z</time>
      </trkpt>
      <trkpt lat="44.9561" lon="6.496">
        <ele>1987.2</ele>
        <time>2024-08-11T10:09:04Z</time>
      </trkpt>
      <trkpt lat="44.9561" lon="6.496">
        <ele>1987.4</ele>
        <time>2024-08-11T10:09:05Z</time>
      </trkpt>
      <trkpt lat="44.95608" lon="6.49598">
        <ele>1987.8</ele>
        <time>2024-08-11T10:09:06Z</time>
      </trkpt>
      <trkpt lat="44.95608" lon="6.49598">
        <ele>1987.8</ele>
        <time>2024-08-11T10:09:07Z</time>
      </trkpt>
      <trkpt lat="44.95606" lon="6.49598">
        <ele>1988</ele>
        <time>2024-08-11T10:09:08Z</time>
      </trkpt>
      <trkpt lat="44.95606" lon="6.49598">
        <ele>1988</ele>
        <time>2024-08-11T10:09:09Z</time>
      </trkpt>
      <trkpt lat="44.95604" lon="6.49598">
        <ele>1988.4</ele>
        <time>2024-08-11T10:09:10Z</time>
      </trkpt>
      <trkpt lat="44.95604" lon="6.49598">
        <ele>1988.6</ele>
        <time>2024-08-11T10:09:11Z</time>
      </trkpt>
      <trkpt lat="44.95602" lon="6.49596">
        <ele>1989.2</ele>
        <time>2024-08-11T10:09:12Z</time>
      </trkpt>
      <trkpt lat="44.95602" lon="6.49596">
        <ele>1989.2</ele>
        <time>2024-08-11T10:09:13Z</time>
      </trkpt>
      <trkpt lat="44.95602" lon="6.49596">
        <ele>1989.4</ele>
        <time>2024-08-11T10:09:14Z</time>
      </trkpt>
      <trkpt lat="44.956" lon="6.49595">
        <ele>1989.8</ele>
        <time>2024-08-11T10:09:15Z</time>
      </trkpt>
      <trkpt lat="44.956" lon="6.49595">
        <ele>1989.8</ele>
        <time>2024-08-11T10:09:16Z</time>
      </trkpt>
      <trkpt lat="44.95597" lon="6.49594">
        <ele>1989.8</ele>
        <time>2024-08-11T10:09:17Z</time>
      </trkpt>
      <trkpt lat="44.95597" lon="6.49594">
        <ele>1989.8</ele>
        <time>2024-08-11T10:09:18Z</time>
      </trkpt>
      <trkpt lat="44.95595" lon="6.49593">
        <ele>1989.8</ele>
        <time>2024-08-11T10:09:19Z</time>
      </trkpt>
      <trkpt lat="44.95595" lon="6.49593">
        <ele>1989.8</ele>
        <time>2024-08-11T10:09:20Z</time>
      </trkpt>
      <trkpt lat="44.95595" lon="6.49593">
        <ele>1990</ele>
        <time>2024-08-11T10:09:21Z</time>
      </trkpt>
      <trkpt lat="44.95593" lon="6.49592">
        <ele>1990</ele>
        <time>2024-08-11T10:09:22Z</time>
      </trkpt>
      <trkpt lat="44.95593" lon="6.49592">
        <ele>1990</ele>
        <time>2024-08-11T10:09:23Z</time>
      </trkpt>
      <trkpt lat="44.95591" lon="6.49592">
        <ele>1989.8</ele>
        <time>2024-08-11T10:09:24Z</time>
      </trkpt>
      <trkpt lat="44.95591" lon="6.49592">
        <ele>1989.6</ele>
        <time>2024-08-11T10:09:25Z</time>
      </trkpt>
      <trkpt lat="44.95589" lon="6.49593">
        <ele>1989.6</ele>
        <time>2024-08-11T10:09:26Z</time>
      </trkpt>
      <trkpt lat="44.95589" lon="6.49593">
        <ele>1989.6</ele>
        <time>2024-08-11T10:09:27Z</time>
      </trkpt>
      <trkpt lat="44.95587" lon="6.49593">
        <ele>1989.4</ele>
        <time>2024-08-11T10:09:28Z</time>
      </trkpt>
      <trkpt lat="44.95587" lon="6.49593">
        <ele>1989.4</ele>
        <time>2024-08-11T10:09:29Z</time>
      </trkpt>
      <trkpt lat="44.95585" lon="6.49594">
        <ele>1989.4</ele>
        <time>2024-08-11T10:09:30Z</time>
      </trkpt>
      <trkpt lat="44.95585" lon="6.49594">
        <ele>1989.6</ele>
        <time>2024-08-11T10:09:31Z</time>
      </trkpt>
      <trkpt lat="44.95583" lon="6.49595">
        <ele>1989.4</ele>
        <time>2024-08-11T10:09:32Z</time>
      </trkpt>
      <trkpt lat="44.95583" lon="6.49595">
        <ele>1989.6</ele>
        <time>2024-08-11T10:09:33Z</time>
      </trkpt>
      <trkpt lat="44.95581" lon="6.49595">
        <ele>1989.6</ele>
        <time>2024-08-11T10:09:34Z</time>
      </trkpt>
      <trkpt lat="44.95581" lon="6.49595">
        <ele>1989.6</ele>
        <time>2024-08-11T10:09:35Z</time>
      </trkpt>
      <trkpt lat="44.95578" lon="6.49596">
        <ele>1989.2</ele>
        <time>2024-08-11T10:09:36Z</time>
      </trkpt>
      <trkpt lat="44.95578" lon="6.49596">
        <ele>1989.2</ele>
        <time>2024-08-11T10:09:37Z</time>
      </trkpt>
      <trkpt lat="44.95576" lon="6.49596">
        <ele>1989</ele>
        <time>2024-08-11T10:09:38Z</time>
      </trkpt>
      <trkpt lat="44.95576" lon="6.49596">
        <ele>1988.8</ele>
        <time>2024-08-11T10:09:39Z</time>
      </trkpt>
      <trkpt lat="44.95573" lon="6.49596">
        <ele>1988.6</ele>
        <time>2024-08-11T10:09:40Z</time>
      </trkpt>
      <trkpt lat="44.95573" lon="6.49596">
        <ele>1988.4</ele>
        <time>2024-08-11T10:09:41Z</time>
      </trkpt>
      <trkpt lat="44.95571" lon="6.49596">
        <ele>1988.4</ele>
        <time>2024-08-11T10:09:42Z</time>
      </trkpt>
      <trkpt lat="44.95571" lon="6.49596">
        <ele>1988.4</ele>
        <time>2024-08-11T10:09:43Z</time>
      </trkpt>
      <trkpt lat="44.95569" lon="6.49595">
        <ele>1988.2</ele>
        <time>2024-08-11T10:09:44Z</time>
      </trkpt>
      <trkpt lat="44.95569" lon="6.49595">
        <ele>1987.8</ele>
        <time>2024-08-11T10:09:45Z</time>
      </trkpt>
      <trkpt lat="44.95567" lon="6.49596">
        <ele>1987.6</ele>
        <time>2024-08-11T10:09:46Z</time>
      </trkpt>
      <trkpt lat="44.95567" lon="6.49596">
        <ele>1987.6</ele>
        <time>2024-08-11T10:09:47Z</time>
      </trkpt>
      <trkpt lat="44.95565" lon="6.49595">
        <ele>1987.6</ele>
        <time>2024-08-11T10:09:48Z</time>
      </trkpt>
      <trkpt lat="44.95565" lon="6.49595">
        <ele>1987.6</ele>
        <time>2024-08-11T10:09:49Z</time>
      </trkpt>
      <trkpt lat="44.95563" lon="6.49593">
        <ele>1987.6</ele>
        <time>2024-08-11T10:09:50Z</time>
      </trkpt>
      <trkpt lat="44.95563" lon="6.49593">
        <ele>1987.6</ele>
        <time>2024-08-11T10:09:51Z</time>
      </trkpt>
      <trkpt lat="44.95562" lon="6.4959">
        <ele>1987.6</ele>
        <time>2024-08-11T10:09:52Z</time>
      </trkpt>
      <trkpt lat="44.95562" lon="6.4959">
        <ele>1987.6</ele>
        <time>2024-08-11T10:09:53Z</time>
      </trkpt>
      <trkpt lat="44.9556" lon="6.49588">
        <ele>1987.4</ele>
        <time>2024-08-11T10:09:54Z</time>
      </trkpt>
      <trkpt lat="44.9556" lon="6.49588">
        <ele>1987.4</ele>
        <time>2024-08-11T10:09:55Z</time>
      </trkpt>
      <trkpt lat="44.95558" lon="6.49587">
        <ele>1987</ele>
        <time>2024-08-11T10:09:56Z</time>
      </trkpt>
      <trkpt lat="44.95558" lon="6.49587">
        <ele>1986.8</ele>
        <time>2024-08-11T10:09:57Z</time>
      </trkpt>
      <trkpt lat="44.95555" lon="6.49587">
        <ele>1986.6</ele>
        <time>2024-08-11T10:09:58Z</time>
      </trkpt>
      <trkpt lat="44.95555" lon="6.49587">
        <ele>1986.4</ele>
        <time>2024-08-11T10:09:59Z</time>
      </trkpt>
      <trkpt lat="44.95555" lon="6.49587">
        <ele>1986.4</ele>
        <time>2024-08-11T10:10:00Z</time>
      </trkpt>
      <trkpt lat="44.95552" lon="6.49586">
        <ele>1986.6</ele>
        <time>2024-08-11T10:10:01Z</time>
      </trkpt>
      <trkpt lat="44.95552" lon="6.49586">
        <ele>1986.6</ele>
        <time>2024-08-11T10:10:02Z</time>
      </trkpt>
      <trkpt lat="44.9555" lon="6.49585">
        <ele>1986.6</ele>
        <time>2024-08-11T10:10:03Z</time>
      </trkpt>
      <trkpt lat="44.9555" lon="6.49585">
        <ele>1986.6</ele>
        <time>2024-08-11T10:10:04Z</time>
      </trkpt>
      <trkpt lat="44.9555" lon="6.49585">
        <ele>1986.6</ele>
        <time>2024-08-11T10:10:05Z</time>
      </trkpt>
      <trkpt lat="44.95549" lon="6.49584">
        <ele>1986.6</ele>
        <time>2024-08-11T10:10:06Z</time>
      </trkpt>
      <trkpt lat="44.95549" lon="6.49584">
        <ele>1986.6</ele>
        <time>2024-08-11T10:10:07Z</time>
      </trkpt>
      <trkpt lat="44.95549" lon="6.49584">
        <ele>1986.6</ele>
        <time>2024-08-11T10:10:08Z</time>
      </trkpt>
      <trkpt lat="44.95546" lon="6.49584">
        <ele>1986.6</ele>
        <time>2024-08-11T10:10:09Z</time>
      </trkpt>
      <trkpt lat="44.95546" lon="6.49584">
        <ele>1986.4</ele>
        <time>2024-08-11T10:10:10Z</time>
      </trkpt>
      <trkpt lat="44.95546" lon="6.49584">
        <ele>1986.4</ele>
        <time>2024-08-11T10:10:11Z</time>
      </trkpt>
      <trkpt lat="44.95546" lon="6.49584">
        <ele>1986.4</ele>
        <time>2024-08-11T10:10:12Z</time>
      </trkpt>
      <trkpt lat="44.95546" lon="6.49584">
        <ele>1986.4</ele>
        <time>2024-08-11T10:10:13Z</time>
      </trkpt>
      <trkpt lat="44.95546" lon="6.49584">
        <ele>1986.6</ele>
        <time>2024-08-11T10:10:14Z</time>
      </trkpt>
      <trkpt lat="44.95546" lon="6.49584">
        <ele>1986.4</ele>
        <time>2024-08-11T10:10:15Z</time>
      </trkpt>
      <trkpt lat="44.95546" lon="6.49584">
        <ele>1986.4</ele>
        <time>2024-08-11T10:10:16Z</time>
      </trkpt>
      <trkpt lat="44.95544" lon="6.49581">
        <ele>1986.4</ele>
        <time>2024-08-11T10:10:17Z</time>
      </trkpt>
      <trkpt lat="44.95544" lon="6.49581">
        <ele>1986.4</ele>
        <time>2024-08-11T10:10:18Z</time>
      </trkpt>
      <trkpt lat="44.95544" lon="6.49581">
        <ele>1986.2</ele>
        <time>2024-08-11T10:10:19Z</time>
      </trkpt>
      <trkpt lat="44.95544" lon="6.49577">
        <ele>1986</ele>
        <time>2024-08-11T10:10:20Z</time>
      </trkpt>
      <trkpt lat="44.95544" lon="6.49577">
        <ele>1986</ele>
        <time>2024-08-11T10:10:21Z</time>
      </trkpt>
      <trkpt lat="44.95544" lon="6.49574">
        <ele>1986</ele>
        <time>2024-08-11T10:10:22Z</time>
      </trkpt>
      <trkpt lat="44.95544" lon="6.49574">
        <ele>1986</ele>
        <time>2024-08-11T10:10:23Z</time>
      </trkpt>
      <trkpt lat="44.95544" lon="6.49574">
        <ele>1986</ele>
        <time>2024-08-11T10:10:24Z</time>
      </trkpt>
      <trkpt lat="44.95544" lon="6.49574">
        <ele>1986</ele>
        <time>2024-08-11T10:10:25Z</time>
      </trkpt>
      <trkpt lat="44.95544" lon="6.49574">
        <ele>1986</ele>
        <time>2024-08-11T10:10:26Z</time>
      </trkpt>
      <trkpt lat="44.95544" lon="6.49574">
        <ele>1986</ele>
        <time>2024-08-11T10:10:27Z</time>
      </trkpt>
      <trkpt lat="44.95544" lon="6.49574">
        <ele>1986.2</ele>
        <time>2024-08-11T10:10:28Z</time>
      </trkpt>
      <trkpt lat="44.95544" lon="6.49574">
        <ele>1986.2</ele>
        <time>2024-08-11T10:10:29Z</time>
      </trkpt>
      <trkpt lat="44.95544" lon="6.49574">
        <ele>1986.4</ele>
        <time>2024-08-11T10:10:30Z</time>
      </trkpt>
      <trkpt lat="44.95544" lon="6.49574">
        <ele>1986.6</ele>
        <time>2024-08-11T10:10:31Z</time>
      </trkpt>
      <trkpt lat="44.95544" lon="6.49574">
        <ele>1986.6</ele>
        <time>2024-08-11T10:10:32Z</time>
      </trkpt>
      <trkpt lat="44.95544" lon="6.49574">
        <ele>1986.4</ele>
        <time>2024-08-11T10:10:33Z</time>
      </trkpt>
      <trkpt lat="44.95544" lon="6.49574">
        <ele>1986.4</ele>
        <time>2024-08-11T10:10:34Z</time>
      </trkpt>
      <trkpt lat="44.95544" lon="6.49574">
        <ele>1986.4</ele>
        <time>2024-08-11T10:10:35Z</time>
      </trkpt>
      <trkpt lat="44.95544" lon="6.49574">
        <ele>1986.2</ele>
        <time>2024-08-11T10:10:36Z</time>
      </trkpt>
      <trkpt lat="44.95544" lon="6.49574">
        <ele>1986.2</ele>
        <time>2024-08-11T10:10:37Z</time>
      </trkpt>
      <trkpt lat="44.95544" lon="6.49574">
        <ele>1986.2</ele>
        <time>2024-08-11T10:10:38Z</time>
      </trkpt>
      <trkpt lat="44.95544" lon="6.49574">
        <ele>1986.4</ele>
        <time>2024-08-11T10:10:39Z</time>
      </trkpt>
      <trkpt lat="44.95544" lon="6.49574">
        <ele>1986.8</ele>
        <time>2024-08-11T10:10:40Z</time>
      </trkpt>
      <trkpt lat="44.95544" lon="6.49574">
        <ele>1986.8</ele>
        <time>2024-08-11T10:10:41Z</time>
      </trkpt>
      <trkpt lat="44.95543" lon="6.49578">
        <ele>1986.8</ele>
        <time>2024-08-11T10:10:42Z</time>
      </trkpt>
      <trkpt lat="44.95543" lon="6.49578">
        <ele>1986.6</ele>
        <time>2024-08-11T10:10:43Z</time>
      </trkpt>
      <trkpt lat="44.95543" lon="6.49581">
        <ele>1986.6</ele>
        <time>2024-08-11T10:10:44Z</time>
      </trkpt>
      <trkpt lat="44.95543" lon="6.49581">
        <ele>1987</ele>
        <time>2024-08-11T10:10:45Z</time>
      </trkpt>
      <trkpt lat="44.95543" lon="6.49584">
        <ele>1987</ele>
        <time>2024-08-11T10:10:46Z</time>
      </trkpt>
      <trkpt lat="44.95543" lon="6.49584">
        <ele>1987</ele>
        <time>2024-08-11T10:10:47Z</time>
      </trkpt>
      <trkpt lat="44.95543" lon="6.49584">
        <ele>1987</ele>
        <time>2024-08-11T10:10:48Z</time>
      </trkpt>
      <trkpt lat="44.95543" lon="6.49584">
        <ele>1987</ele>
        <time>2024-08-11T10:10:49Z</time>
      </trkpt>
      <trkpt lat="44.95543" lon="6.49584">
        <ele>1987.2</ele>
        <time>2024-08-11T10:10:50Z</time>
      </trkpt>
      <trkpt lat="44.95543" lon="6.49584">
        <ele>1987.2</ele>
        <time>2024-08-11T10:10:51Z</time>
      </trkpt>
      <trkpt lat="44.95543" lon="6.49584">
        <ele>1987</ele>
        <time>2024-08-11T10:10:52Z</time>
      </trkpt>
      <trkpt lat="44.95543" lon="6.49584">
        <ele>1986.8</ele>
        <time>2024-08-11T10:10:53Z</time>
      </trkpt>
      <trkpt lat="44.95543" lon="6.49584">
        <ele>1986.8</ele>
        <time>2024-08-11T10:10:54Z</time>
      </trkpt>
      <trkpt lat="44.95543" lon="6.49584">
        <ele>1986.8</ele>
        <time>2024-08-11T10:10:55Z</time>
      </trkpt>
      <trkpt lat="44.95543" lon="6.49584">
        <ele>1986.6</ele>
        <time>2024-08-11T10:10:56Z</time>
      </trkpt>
      <trkpt lat="44.95543" lon="6.49584">
        <ele>1986.6</ele>
        <time>2024-08-11T10:10:57Z</time>
      </trkpt>
      <trkpt lat="44.95543" lon="6.49584">
        <ele>1986.8</ele>
        <time>2024-08-11T10:10:58Z</time>
      </trkpt>
      <trkpt lat="44.95543" lon="6.49584">
        <ele>1987</ele>
        <time>2024-08-11T10:10:59Z</time>
      </trkpt>
      <trkpt lat="44.95543" lon="6.49584">
        <ele>1987.2</ele>
        <time>2024-08-11T10:11:00Z</time>
      </trkpt>
      <trkpt lat="44.95543" lon="6.49584">
        <ele>1987.2</ele>
        <time>2024-08-11T10:11:01Z</time>
      </trkpt>
      <trkpt lat="44.95543" lon="6.49584">
        <ele>1987.4</ele>
        <time>2024-08-11T10:11:02Z</time>
      </trkpt>
      <trkpt lat="44.95543" lon="6.49584">
        <ele>1987.4</ele>
        <time>2024-08-11T10:11:03Z</time>
      </trkpt>
      <trkpt lat="44.95543" lon="6.49584">
        <ele>1987.4</ele>
        <time>2024-08-11T10:11:04Z</time>
      </trkpt>
      <trkpt lat="44.95543" lon="6.49584">
        <ele>1987.4</ele>
        <time>2024-08-11T10:11:05Z</time>
      </trkpt>
      <trkpt lat="44.95543" lon="6.49584">
        <ele>1987.4</ele>
        <time>2024-08-11T10:11:06Z</time>
      </trkpt>
      <trkpt lat="44.95543" lon="6.49584">
        <ele>1987.4</ele>
        <time>2024-08-11T10:11:07Z</time>
      </trkpt>
      <trkpt lat="44.95543" lon="6.49584">
        <ele>1987.4</ele>
        <time>2024-08-11T10:11:08Z</time>
      </trkpt>
      <trkpt lat="44.95543" lon="6.49584">
        <ele>1987.4</ele>
        <time>2024-08-11T10:11:09Z</time>
      </trkpt>
      <trkpt lat="44.95543" lon="6.49584">
        <ele>1987.4</ele>
        <time>2024-08-11T10:11:10Z</time>
      </trkpt>
      <trkpt lat="44.95543" lon="6.49584">
        <ele>1987.4</ele>
        <time>2024-08-11T10:11:11Z</time>
      </trkpt>
      <trkpt lat="44.95543" lon="6.49584">
        <ele>1987.4</ele>
        <time>2024-08-11T10:11:12Z</time>
      </trkpt>
      <trkpt lat="44.95543" lon="6.49584">
        <ele>1987.6</ele>
        <time>2024-08-11T10:11:13Z</time>
      </trkpt>
      <trkpt lat="44.95543" lon="6.49584">
        <ele>1987.6</ele>
        <time>2024-08-11T10:11:14Z</time>
      </trkpt>
      <trkpt lat="44.95543" lon="6.49584">
        <ele>1987.6</ele>
        <time>2024-08-11T10:11:15Z</time>
      </trkpt>
      <trkpt lat="44.95543" lon="6.49584">
        <ele>1987.8</ele>
        <time>2024-08-11T10:11:16Z</time>
      </trkpt>
      <trkpt lat="44.95543" lon="6.49584">
        <ele>1988.2</ele>
        <time>2024-08-11T10:11:17Z</time>
      </trkpt>
      <trkpt lat="44.95543" lon="6.49584">
        <ele>1988.6</ele>
        <time>2024-08-11T10:11:18Z</time>
      </trkpt>
      <trkpt lat="44.95543" lon="6.49584">
        <ele>1988.6</ele>
        <time>2024-08-11T10:11:19Z</time>
      </trkpt>
      <trkpt lat="44.95543" lon="6.49584">
        <ele>1988</ele>
        <time>2024-08-11T10:11:20Z</time>
      </trkpt>
      <trkpt lat="44.95543" lon="6.49584">
        <ele>1987.8</ele>
        <time>2024-08-11T10:11:21Z</time>
      </trkpt>
      <trkpt lat="44.95543" lon="6.49584">
        <ele>1987.6</ele>
        <time>2024-08-11T10:11:22Z</time>
      </trkpt>
      <trkpt lat="44.95543" lon="6.49584">
        <ele>1987.6</ele>
        <time>2024-08-11T10:11:23Z</time>
      </trkpt>
      <trkpt lat="44.95543" lon="6.49584">
        <ele>1987.6</ele>
        <time>2024-08-11T10:11:24Z</time>
      </trkpt>
      <trkpt lat="44.95543" lon="6.49584">
        <ele>1987.6</ele>
        <time>2024-08-11T10:11:25Z</time>
      </trkpt>
      <trkpt lat="44.95543" lon="6.49584">
        <ele>1987.6</ele>
        <time>2024-08-11T10:11:26Z</time>
      </trkpt>
      <trkpt lat="44.95543" lon="6.49584">
        <ele>1987.6</ele>
        <time>2024-08-11T10:11:27Z</time>
      </trkpt>
      <trkpt lat="44.95543" lon="6.49584">
        <ele>1987.6</ele>
        <time>2024-08-11T10:11:28Z</time>
      </trkpt>
      <trkpt lat="44.95543" lon="6.49584">
        <ele>1987.8</ele>
        <time>2024-08-11T10:11:29Z</time>
      </trkpt>
      <trkpt lat="44.95543" lon="6.49584">
        <ele>1988</ele>
        <time>2024-08-11T10:11:30Z</time>
      </trkpt>
      <trkpt lat="44.95543" lon="6.49584">
        <ele>1988.2</ele>
        <time>2024-08-11T10:11:31Z</time>
      </trkpt>
      <trkpt lat="44.95543" lon="6.49584">
        <ele>1988.2</ele>
        <time>2024-08-11T10:11:32Z</time>
      </trkpt>
      <trkpt lat="44.95543" lon="6.49584">
        <ele>1988.2</ele>
        <time>2024-08-11T10:11:33Z</time>
      </trkpt>
      <trkpt lat="44.95543" lon="6.49584">
        <ele>1988.2</ele>
        <time>2024-08-11T10:11:34Z</time>
      </trkpt>
      <trkpt lat="44.95543" lon="6.49584">
        <ele>1988.2</ele>
        <time>2024-08-11T10:11:35Z</time>
      </trkpt>
      <trkpt lat="44.95543" lon="6.49584">
        <ele>1988.6</ele>
        <time>2024-08-11T10:11:36Z</time>
      </trkpt>
      <trkpt lat="44.95543" lon="6.49584">
        <ele>1988.6</ele>
        <time>2024-08-11T10:11:37Z</time>
      </trkpt>
      <trkpt lat="44.95543" lon="6.49584">
        <ele>1988.6</ele>
        <time>2024-08-11T10:11:38Z</time>
      </trkpt>
      <trkpt lat="44.95543" lon="6.49584">
        <ele>1988.6</ele>
        <time>2024-08-11T10:11:39Z</time>
      </trkpt>
      <trkpt lat="44.95543" lon="6.49584">
        <ele>1988.4</ele>
        <time>2024-08-11T10:11:40Z</time>
      </trkpt>
      <trkpt lat="44.95543" lon="6.49584">
        <ele>1988.4</ele>
        <time>2024-08-11T10:11:41Z</time>
      </trkpt>
      <trkpt lat="44.95543" lon="6.49584">
        <ele>1988.6</ele>
        <time>2024-08-11T10:11:42Z</time>
      </trkpt>
      <trkpt lat="44.95543" lon="6.49584">
        <ele>1988.6</ele>
        <time>2024-08-11T10:11:43Z</time>
      </trkpt>
      <trkpt lat="44.95543" lon="6.49584">
        <ele>1987.8</ele>
        <time>2024-08-11T10:11:44Z</time>
      </trkpt>
      <trkpt lat="44.95543" lon="6.49584">
        <ele>1987.6</ele>
        <time>2024-08-11T10:11:45Z</time>
      </trkpt>
      <trkpt lat="44.95543" lon="6.49584">
        <ele>1987.6</ele>
        <time>2024-08-11T10:11:46Z</time>
      </trkpt>
      <trkpt lat="44.95543" lon="6.49584">
        <ele>1987.6</ele>
        <time>2024-08-11T10:11:47Z</time>
      </trkpt>
      <trkpt lat="44.95543" lon="6.49584">
        <ele>1987.6</ele>
        <time>2024-08-11T10:11:48Z</time>
      </trkpt>
      <trkpt lat="44.95543" lon="6.49584">
        <ele>1987.8</ele>
        <time>2024-08-11T10:11:49Z</time>
      </trkpt>
      <trkpt lat="44.95543" lon="6.49584">
        <ele>1987.8</ele>
        <time>2024-08-11T10:11:50Z</time>
      </trkpt>
      <trkpt lat="44.95543" lon="6.49584">
        <ele>1987.8</ele>
        <time>2024-08-11T10:11:51Z</time>
      </trkpt>
      <trkpt lat="44.95543" lon="6.49584">
        <ele>1987.8</ele>
        <time>2024-08-11T10:11:52Z</time>
      </trkpt>
      <trkpt lat="44.95543" lon="6.49584">
        <ele>1987.6</ele>
        <time>2024-08-11T10:11:53Z</time>
      </trkpt>
      <trkpt lat="44.95543" lon="6.4958">
        <ele>1987.6</ele>
        <time>2024-08-11T10:11:54Z</time>
      </trkpt>
      <trkpt lat="44.95543" lon="6.4958">
        <ele>1987.4</ele>
        <time>2024-08-11T10:11:55Z</time>
      </trkpt>
      <trkpt lat="44.95543" lon="6.49576">
        <ele>1987.4</ele>
        <time>2024-08-11T10:11:56Z</time>
      </trkpt>
      <trkpt lat="44.95543" lon="6.49576">
        <ele>1987.2</ele>
        <time>2024-08-11T10:11:57Z</time>
      </trkpt>
      <trkpt lat="44.95543" lon="6.49576">
        <ele>1987.2</ele>
        <time>2024-08-11T10:11:58Z</time>
      </trkpt>
      <trkpt lat="44.95543" lon="6.49576">
        <ele>1987.4</ele>
        <time>2024-08-11T10:11:59Z</time>
      </trkpt>
      <trkpt lat="44.95543" lon="6.49576">
        <ele>1987.4</ele>
        <time>2024-08-11T10:12:00Z</time>
      </trkpt>
      <trkpt lat="44.95543" lon="6.49576">
        <ele>1987.4</ele>
        <time>2024-08-11T10:12:01Z</time>
      </trkpt>
      <trkpt lat="44.95543" lon="6.49576">
        <ele>1987.4</ele>
        <time>2024-08-11T10:12:02Z</time>
      </trkpt>
      <trkpt lat="44.95543" lon="6.49576">
        <ele>1987.4</ele>
        <time>2024-08-11T10:12:03Z</time>
      </trkpt>
      <trkpt lat="44.95543" lon="6.49576">
        <ele>1987.4</ele>
        <time>2024-08-11T10:12:04Z</time>
      </trkpt>
      <trkpt lat="44.95543" lon="6.49576">
        <ele>1987.4</ele>
        <time>2024-08-11T10:12:05Z</time>
      </trkpt>
      <trkpt lat="44.95543" lon="6.49576">
        <ele>1987.4</ele>
        <time>2024-08-11T10:12:06Z</time>
      </trkpt>
      <trkpt lat="44.95543" lon="6.49576">
        <ele>1987.4</ele>
        <time>2024-08-11T10:12:07Z</time>
      </trkpt>
      <trkpt lat="44.95543" lon="6.49576">
        <ele>1987.6</ele>
        <time>2024-08-11T10:12:08Z</time>
      </trkpt>
      <trkpt lat="44.95543" lon="6.49576">
        <ele>1987.6</ele>
        <time>2024-08-11T10:12:09Z</time>
      </trkpt>
      <trkpt lat="44.95543" lon="6.49576">
        <ele>1987.6</ele>
        <time>2024-08-11T10:12:10Z</time>
      </trkpt>
      <trkpt lat="44.95543" lon="6.49576">
        <ele>1987.4</ele>
        <time>2024-08-11T10:12:11Z</time>
      </trkpt>
      <trkpt lat="44.95543" lon="6.49576">
        <ele>1987.4</ele>
        <time>2024-08-11T10:12:12Z</time>
      </trkpt>
      <trkpt lat="44.95543" lon="6.49576">
        <ele>1987.6</ele>
        <time>2024-08-11T10:12:13Z</time>
      </trkpt>
      <trkpt lat="44.95543" lon="6.49576">
        <ele>1987.6</ele>
        <time>2024-08-11T10:12:14Z</time>
      </trkpt>
      <trkpt lat="44.95543" lon="6.49576">
        <ele>1987.6</ele>
        <time>2024-08-11T10:12:15Z</time>
      </trkpt>
      <trkpt lat="44.95543" lon="6.49576">
        <ele>1987.6</ele>
        <time>2024-08-11T10:12:16Z</time>
      </trkpt>
      <trkpt lat="44.95543" lon="6.49576">
        <ele>1987.4</ele>
        <time>2024-08-11T10:12:17Z</time>
      </trkpt>
      <trkpt lat="44.95543" lon="6.49576">
        <ele>1987.4</ele>
        <time>2024-08-11T10:12:18Z</time>
      </trkpt>
      <trkpt lat="44.95543" lon="6.49576">
        <ele>1987.4</ele>
        <time>2024-08-11T10:12:19Z</time>
      </trkpt>
      <trkpt lat="44.95543" lon="6.49576">
        <ele>1987.4</ele>
        <time>2024-08-11T10:12:20Z</time>
      </trkpt>
      <trkpt lat="44.95543" lon="6.49576">
        <ele>1987.8</ele>
        <time>2024-08-11T10:12:21Z</time>
      </trkpt>
      <trkpt lat="44.95543" lon="6.49576">
        <ele>1987.8</ele>
        <time>2024-08-11T10:12:22Z</time>
      </trkpt>
      <trkpt lat="44.95543" lon="6.49576">
        <ele>1987.8</ele>
        <time>2024-08-11T10:12:23Z</time>
      </trkpt>
      <trkpt lat="44.95543" lon="6.49576">
        <ele>1987.8</ele>
        <time>2024-08-11T10:12:24Z</time>
      </trkpt>
      <trkpt lat="44.95543" lon="6.49576">
        <ele>1987.8</ele>
        <time>2024-08-11T10:12:25Z</time>
      </trkpt>
      <trkpt lat="44.95543" lon="6.49576">
        <ele>1987.8</ele>
        <time>2024-08-11T10:12:26Z</time>
      </trkpt>
      <trkpt lat="44.95543" lon="6.49576">
        <ele>1987.8</ele>
        <time>2024-08-11T10:12:27Z</time>
      </trkpt>
      <trkpt lat="44.95543" lon="6.49576">
        <ele>1987.8</ele>
        <time>2024-08-11T10:12:28Z</time>
      </trkpt>
      <trkpt lat="44.95543" lon="6.49576">
        <ele>1987.6</ele>
        <time>2024-08-11T10:12:29Z</time>
      </trkpt>
      <trkpt lat="44.95543" lon="6.49576">
        <ele>1987.6</ele>
        <time>2024-08-11T10:12:30Z</time>
      </trkpt>
      <trkpt lat="44.95543" lon="6.49576">
        <ele>1987.6</ele>
        <time>2024-08-11T10:12:31Z</time>
      </trkpt>
      <trkpt lat="44.95543" lon="6.49576">
        <ele>1987.6</ele>
        <time>2024-08-11T10:12:32Z</time>
      </trkpt>
      <trkpt lat="44.95543" lon="6.49576">
        <ele>1987.8</ele>
        <time>2024-08-11T10:12:33Z</time>
      </trkpt>
      <trkpt lat="44.95543" lon="6.49576">
        <ele>1988</ele>
        <time>2024-08-11T10:12:34Z</time>
      </trkpt>
      <trkpt lat="44.95543" lon="6.49576">
        <ele>1988</ele>
        <time>2024-08-11T10:12:35Z</time>
      </trkpt>
      <trkpt lat="44.95543" lon="6.49576">
        <ele>1988</ele>
        <time>2024-08-11T10:12:36Z</time>
      </trkpt>
      <trkpt lat="44.95543" lon="6.49576">
        <ele>1987.8</ele>
        <time>2024-08-11T10:12:37Z</time>
      </trkpt>
      <trkpt lat="44.95543" lon="6.49576">
        <ele>1987.8</ele>
        <time>2024-08-11T10:12:38Z</time>
      </trkpt>
      <trkpt lat="44.95543" lon="6.49576">
        <ele>1987.8</ele>
        <time>2024-08-11T10:12:39Z</time>
      </trkpt>
      <trkpt lat="44.95543" lon="6.49576">
        <ele>1987.8</ele>
        <time>2024-08-11T10:12:40Z</time>
      </trkpt>
      <trkpt lat="44.95543" lon="6.49576">
        <ele>1987.8</ele>
        <time>2024-08-11T10:12:41Z</time>
      </trkpt>
      <trkpt lat="44.95543" lon="6.49576">
        <ele>1988</ele>
        <time>2024-08-11T10:12:42Z</time>
      </trkpt>
      <trkpt lat="44.95543" lon="6.49576">
        <ele>1987.8</ele>
        <time>2024-08-11T10:12:43Z</time>
      </trkpt>
      <trkpt lat="44.95543" lon="6.49576">
        <ele>1987.8</ele>
        <time>2024-08-11T10:12:44Z</time>
      </trkpt>
      <trkpt lat="44.95543" lon="6.49576">
        <ele>1987.8</ele>
        <time>2024-08-11T10:12:45Z</time>
      </trkpt>
      <trkpt lat="44.95543" lon="6.49576">
        <ele>1988.2</ele>
        <time>2024-08-11T10:12:46Z</time>
      </trkpt>
      <trkpt lat="44.95543" lon="6.49576">
        <ele>1988.6</ele>
        <time>2024-08-11T10:12:47Z</time>
      </trkpt>
      <trkpt lat="44.95543" lon="6.49576">
        <ele>1988.6</ele>
        <time>2024-08-11T10:12:48Z</time>
      </trkpt>
      <trkpt lat="44.95543" lon="6.49576">
        <ele>1988.8</ele>
        <time>2024-08-11T10:12:49Z</time>
      </trkpt>
      <trkpt lat="44.95543" lon="6.49576">
        <ele>1988.8</ele>
        <time>2024-08-11T10:12:50Z</time>
      </trkpt>
      <trkpt lat="44.95543" lon="6.49576">
        <ele>1988.6</ele>
        <time>2024-08-11T10:12:51Z</time>
      </trkpt>
      <trkpt lat="44.95543" lon="6.49576">
        <ele>1988.6</ele>
        <time>2024-08-11T10:12:52Z</time>
      </trkpt>
      <trkpt lat="44.95543" lon="6.49576">
        <ele>1988.2</ele>
        <time>2024-08-11T10:12:53Z</time>
      </trkpt>
      <trkpt lat="44.95543" lon="6.49576">
        <ele>1988.2</ele>
        <time>2024-08-11T10:12:54Z</time>
      </trkpt>
      <trkpt lat="44.95543" lon="6.49576">
        <ele>1988.2</ele>
        <time>2024-08-11T10:12:55Z</time>
      </trkpt>
      <trkpt lat="44.95543" lon="6.49576">
        <ele>1988</ele>
        <time>2024-08-11T10:12:56Z</time>
      </trkpt>
      <trkpt lat="44.95543" lon="6.49576">
        <ele>1987.8</ele>
        <time>2024-08-11T10:12:57Z</time>
      </trkpt>
      <trkpt lat="44.95543" lon="6.49576">
        <ele>1987.8</ele>
        <time>2024-08-11T10:12:58Z</time>
      </trkpt>
      <trkpt lat="44.95543" lon="6.49576">
        <ele>1987.8</ele>
        <time>2024-08-11T10:12:59Z</time>
      </trkpt>
      <trkpt lat="44.95543" lon="6.49576">
        <ele>1987.8</ele>
        <time>2024-08-11T10:13:00Z</time>
      </trkpt>
      <trkpt lat="44.95543" lon="6.49576">
        <ele>1987.8</ele>
        <time>2024-08-11T10:13:01Z</time>
      </trkpt>
      <trkpt lat="44.95543" lon="6.49576">
        <ele>1987.8</ele>
        <time>2024-08-11T10:13:02Z</time>
      </trkpt>
      <trkpt lat="44.95543" lon="6.49576">
        <ele>1987.8</ele>
        <time>2024-08-11T10:13:03Z</time>
      </trkpt>
      <trkpt lat="44.95543" lon="6.49576">
        <ele>1988</ele>
        <time>2024-08-11T10:13:04Z</time>
      </trkpt>
      <trkpt lat="44.95543" lon="6.49576">
        <ele>1988</ele>
        <time>2024-08-11T10:13:05Z</time>
      </trkpt>
      <trkpt lat="44.95543" lon="6.49576">
        <ele>1988</ele>
        <time>2024-08-11T10:13:06Z</time>
      </trkpt>
      <trkpt lat="44.95543" lon="6.49576">
        <ele>1988</ele>
        <time>2024-08-11T10:13:07Z</time>
      </trkpt>
      <trkpt lat="44.95543" lon="6.49576">
        <ele>1988</ele>
        <time>2024-08-11T10:13:08Z</time>
      </trkpt>
      <trkpt lat="44.95543" lon="6.49576">
        <ele>1988</ele>
        <time>2024-08-11T10:13:09Z</time>
      </trkpt>
      <trkpt lat="44.95543" lon="6.49576">
        <ele>1988</ele>
        <time>2024-08-11T10:13:10Z</time>
      </trkpt>
      <trkpt lat="44.95543" lon="6.49576">
        <ele>1988</ele>
        <time>2024-08-11T10:13:11Z</time>
      </trkpt>
      <trkpt lat="44.95543" lon="6.49576">
        <ele>1988</ele>
        <time>2024-08-11T10:13:12Z</time>
      </trkpt>
      <trkpt lat="44.95543" lon="6.49576">
        <ele>1988.2</ele>
        <time>2024-08-11T10:13:13Z</time>
      </trkpt>
      <trkpt lat="44.95543" lon="6.49576">
        <ele>1988.2</ele>
        <time>2024-08-11T10:13:14Z</time>
      </trkpt>
      <trkpt lat="44.95543" lon="6.49576">
        <ele>1988.2</ele>
        <time>2024-08-11T10:13:15Z</time>
      </trkpt>
      <trkpt lat="44.95543" lon="6.49576">
        <ele>1988.2</ele>
        <time>2024-08-11T10:13:16Z</time>
      </trkpt>
      <trkpt lat="44.95543" lon="6.49576">
        <ele>1988.2</ele>
        <time>2024-08-11T10:13:17Z</time>
      </trkpt>
      <trkpt lat="44.95543" lon="6.49576">
        <ele>1988.6</ele>
        <time>2024-08-11T10:13:18Z</time>
      </trkpt>
      <trkpt lat="44.95543" lon="6.49576">
        <ele>1988.6</ele>
        <time>2024-08-11T10:13:19Z</time>
      </trkpt>
      <trkpt lat="44.95543" lon="6.49576">
        <ele>1988.4</ele>
        <time>2024-08-11T10:13:20Z</time>
      </trkpt>
      <trkpt lat="44.95543" lon="6.49576">
        <ele>1988.4</ele>
        <time>2024-08-11T10:13:21Z</time>
      </trkpt>
      <trkpt lat="44.95543" lon="6.49576">
        <ele>1988.4</ele>
        <time>2024-08-11T10:13:22Z</time>
      </trkpt>
      <trkpt lat="44.95543" lon="6.49576">
        <ele>1988.6</ele>
        <time>2024-08-11T10:13:23Z</time>
      </trkpt>
      <trkpt lat="44.95543" lon="6.49576">
        <ele>1988.6</ele>
        <time>2024-08-11T10:13:24Z</time>
      </trkpt>
      <trkpt lat="44.95543" lon="6.49576">
        <ele>1988.6</ele>
        <time>2024-08-11T10:13:25Z</time>
      </trkpt>
      <trkpt lat="44.95543" lon="6.49576">
        <ele>1988.6</ele>
        <time>2024-08-11T10:13:26Z</time>
      </trkpt>
      <trkpt lat="44.95543" lon="6.49576">
        <ele>1988.8</ele>
        <time>2024-08-11T10:13:27Z</time>
      </trkpt>
      <trkpt lat="44.95543" lon="6.49576">
        <ele>1988.8</ele>
        <time>2024-08-11T10:13:28Z</time>
      </trkpt>
      <trkpt lat="44.95543" lon="6.49576">
        <ele>1988.8</ele>
        <time>2024-08-11T10:13:29Z</time>
      </trkpt>
      <trkpt lat="44.95543" lon="6.49576">
        <ele>1988.8</ele>
        <time>2024-08-11T10:13:30Z</time>
      </trkpt>
      <trkpt lat="44.95543" lon="6.49576">
        <ele>1988.8</ele>
        <time>2024-08-11T10:13:31Z</time>
      </trkpt>
      <trkpt lat="44.95543" lon="6.49576">
        <ele>1989</ele>
        <time>2024-08-11T10:13:32Z</time>
      </trkpt>
      <trkpt lat="44.95543" lon="6.49576">
        <ele>1989</ele>
        <time>2024-08-11T10:13:33Z</time>
      </trkpt>
      <trkpt lat="44.95543" lon="6.49576">
        <ele>1989</ele>
        <time>2024-08-11T10:13:34Z</time>
      </trkpt>
      <trkpt lat="44.95543" lon="6.49576">
        <ele>1989</ele>
        <time>2024-08-11T10:13:35Z</time>
      </trkpt>
      <trkpt lat="44.95543" lon="6.49576">
        <ele>1989</ele>
        <time>2024-08-11T10:13:36Z</time>
      </trkpt>
      <trkpt lat="44.95543" lon="6.49576">
        <ele>1989</ele>
        <time>2024-08-11T10:13:37Z</time>
      </trkpt>
      <trkpt lat="44.95543" lon="6.49576">
        <ele>1989.2</ele>
        <time>2024-08-11T10:13:38Z</time>
      </trkpt>
      <trkpt lat="44.95543" lon="6.49576">
        <ele>1989.2</ele>
        <time>2024-08-11T10:13:39Z</time>
      </trkpt>
      <trkpt lat="44.95543" lon="6.49576">
        <ele>1989.2</ele>
        <time>2024-08-11T10:13:40Z</time>
      </trkpt>
      <trkpt lat="44.95543" lon="6.49576">
        <ele>1989</ele>
        <time>2024-08-11T10:13:41Z</time>
      </trkpt>
      <trkpt lat="44.95543" lon="6.49576">
        <ele>1989</ele>
        <time>2024-08-11T10:13:42Z</time>
      </trkpt>
      <trkpt lat="44.95543" lon="6.49576">
        <ele>1989</ele>
        <time>2024-08-11T10:13:43Z</time>
      </trkpt>
      <trkpt lat="44.95543" lon="6.49576">
        <ele>1989</ele>
        <time>2024-08-11T10:13:44Z</time>
      </trkpt>
      <trkpt lat="44.95543" lon="6.49576">
        <ele>1989.2</ele>
        <time>2024-08-11T10:13:45Z</time>
      </trkpt>
      <trkpt lat="44.95543" lon="6.49576">
        <ele>1988.6</ele>
        <time>2024-08-11T10:13:46Z</time>
      </trkpt>
      <trkpt lat="44.95543" lon="6.49576">
        <ele>1988.4</ele>
        <time>2024-08-11T10:13:47Z</time>
      </trkpt>
      <trkpt lat="44.95543" lon="6.49576">
        <ele>1988.4</ele>
        <time>2024-08-11T10:13:48Z</time>
      </trkpt>
      <trkpt lat="44.95543" lon="6.49576">
        <ele>1988.4</ele>
        <time>2024-08-11T10:13:49Z</time>
      </trkpt>
      <trkpt lat="44.95543" lon="6.49576">
        <ele>1988.6</ele>
        <time>2024-08-11T10:13:50Z</time>
      </trkpt>
      <trkpt lat="44.95543" lon="6.49576">
        <ele>1988.6</ele>
        <time>2024-08-11T10:13:51Z</time>
      </trkpt>
      <trkpt lat="44.95543" lon="6.49576">
        <ele>1988.4</ele>
        <time>2024-08-11T10:13:52Z</time>
      </trkpt>
      <trkpt lat="44.95543" lon="6.49576">
        <ele>1988.4</ele>
        <time>2024-08-11T10:13:53Z</time>
      </trkpt>
      <trkpt lat="44.95543" lon="6.49576">
        <ele>1989</ele>
        <time>2024-08-11T10:13:54Z</time>
      </trkpt>
      <trkpt lat="44.95543" lon="6.49576">
        <ele>1989</ele>
        <time>2024-08-11T10:13:55Z</time>
      </trkpt>
      <trkpt lat="44.95543" lon="6.49576">
        <ele>1989</ele>
        <time>2024-08-11T10:13:56Z</time>
      </trkpt>
      <trkpt lat="44.95543" lon="6.49576">
        <ele>1989</ele>
        <time>2024-08-11T10:13:57Z</time>
      </trkpt>
      <trkpt lat="44.95543" lon="6.49576">
        <ele>1989.2</ele>
        <time>2024-08-11T10:13:58Z</time>
      </trkpt>
      <trkpt lat="44.95543" lon="6.49576">
        <ele>1989.2</ele>
        <time>2024-08-11T10:13:59Z</time>
      </trkpt>
      <trkpt lat="44.95543" lon="6.49576">
        <ele>1989.2</ele>
        <time>2024-08-11T10:14:00Z</time>
      </trkpt>
      <trkpt lat="44.95543" lon="6.49576">
        <ele>1989</ele>
        <time>2024-08-11T10:14:01Z</time>
      </trkpt>
      <trkpt lat="44.95543" lon="6.49576">
        <ele>1989.2</ele>
        <time>2024-08-11T10:14:02Z</time>
      </trkpt>
      <trkpt lat="44.95543" lon="6.49576">
        <ele>1989.2</ele>
        <time>2024-08-11T10:14:03Z</time>
      </trkpt>
      <trkpt lat="44.95543" lon="6.49576">
        <ele>1989.2</ele>
        <time>2024-08-11T10:14:04Z</time>
      </trkpt>
      <trkpt lat="44.95543" lon="6.49576">
        <ele>1989.6</ele>
        <time>2024-08-11T10:14:05Z</time>
      </trkpt>
      <trkpt lat="44.95543" lon="6.49576">
        <ele>1989.8</ele>
        <time>2024-08-11T10:14:06Z</time>
      </trkpt>
      <trkpt lat="44.95543" lon="6.49576">
        <ele>1989.4</ele>
        <time>2024-08-11T10:14:07Z</time>
      </trkpt>
      <trkpt lat="44.95543" lon="6.49576">
        <ele>1989.4</ele>
        <time>2024-08-11T10:14:08Z</time>
      </trkpt>
      <trkpt lat="44.95543" lon="6.49576">
        <ele>1989.2</ele>
        <time>2024-08-11T10:14:09Z</time>
      </trkpt>
      <trkpt lat="44.95543" lon="6.49576">
        <ele>1989</ele>
        <time>2024-08-11T10:14:10Z</time>
      </trkpt>
      <trkpt lat="44.95543" lon="6.49576">
        <ele>1989</ele>
        <time>2024-08-11T10:14:11Z</time>
      </trkpt>
      <trkpt lat="44.95543" lon="6.49576">
        <ele>1989.4</ele>
        <time>2024-08-11T10:14:12Z</time>
      </trkpt>
      <trkpt lat="44.95543" lon="6.49576">
        <ele>1989.6</ele>
        <time>2024-08-11T10:14:13Z</time>
      </trkpt>
      <trkpt lat="44.95543" lon="6.49576">
        <ele>1989.6</ele>
        <time>2024-08-11T10:14:14Z</time>
      </trkpt>
      <trkpt lat="44.95543" lon="6.49576">
        <ele>1989.6</ele>
        <time>2024-08-11T10:14:15Z</time>
      </trkpt>
      <trkpt lat="44.95543" lon="6.49576">
        <ele>1989.4</ele>
        <time>2024-08-11T10:14:16Z</time>
      </trkpt>
      <trkpt lat="44.95543" lon="6.49576">
        <ele>1989.4</ele>
        <time>2024-08-11T10:14:17Z</time>
      </trkpt>
      <trkpt lat="44.95543" lon="6.49576">
        <ele>1989.4</ele>
        <time>2024-08-11T10:14:18Z</time>
      </trkpt>
      <trkpt lat="44.95543" lon="6.49576">
        <ele>1989.4</ele>
        <time>2024-08-11T10:14:19Z</time>
      </trkpt>
      <trkpt lat="44.95543" lon="6.49576">
        <ele>1989.4</ele>
        <time>2024-08-11T10:14:20Z</time>
      </trkpt>
      <trkpt lat="44.95544" lon="6.49574">
        <ele>1989</ele>
        <time>2024-08-11T10:14:21Z</time>
      </trkpt>
      <trkpt lat="44.95544" lon="6.49574">
        <ele>1989</ele>
        <time>2024-08-11T10:14:22Z</time>
      </trkpt>
      <trkpt lat="44.95544" lon="6.49574">
        <ele>1989.4</ele>
        <time>2024-08-11T10:14:23Z</time>
      </trkpt>
      <trkpt lat="44.95544" lon="6.49574">
        <ele>1989.6</ele>
        <time>2024-08-11T10:14:24Z</time>
      </trkpt>
      <trkpt lat="44.95544" lon="6.49574">
        <ele>1989.6</ele>
        <time>2024-08-11T10:14:25Z</time>
      </trkpt>
      <trkpt lat="44.95544" lon="6.49574">
        <ele>1989.6</ele>
        <time>2024-08-11T10:14:26Z</time>
      </trkpt>
      <trkpt lat="44.95544" lon="6.49574">
        <ele>1989.6</ele>
        <time>2024-08-11T10:14:27Z</time>
      </trkpt>
      <trkpt lat="44.95544" lon="6.49574">
        <ele>1989.6</ele>
        <time>2024-08-11T10:14:28Z</time>
      </trkpt>
      <trkpt lat="44.95544" lon="6.49574">
        <ele>1989.6</ele>
        <time>2024-08-11T10:14:29Z</time>
      </trkpt>
      <trkpt lat="44.95544" lon="6.49574">
        <ele>1989.8</ele>
        <time>2024-08-11T10:14:30Z</time>
      </trkpt>
      <trkpt lat="44.95544" lon="6.49574">
        <ele>1989.8</ele>
        <time>2024-08-11T10:14:31Z</time>
      </trkpt>
      <trkpt lat="44.95544" lon="6.49574">
        <ele>1990</ele>
        <time>2024-08-11T10:14:32Z</time>
      </trkpt>
      <trkpt lat="44.95544" lon="6.49574">
        <ele>1990.2</ele>
        <time>2024-08-11T10:14:33Z</time>
      </trkpt>
      <trkpt lat="44.95544" lon="6.49574">
        <ele>1990.4</ele>
        <time>2024-08-11T10:14:34Z</time>
      </trkpt>
      <trkpt lat="44.95544" lon="6.49574">
        <ele>1990.6</ele>
        <time>2024-08-11T10:14:35Z</time>
      </trkpt>
      <trkpt lat="44.95542" lon="6.49571">
        <ele>1990.8</ele>
        <time>2024-08-11T10:14:36Z</time>
      </trkpt>
      <trkpt lat="44.95542" lon="6.49571">
        <ele>1990.8</ele>
        <time>2024-08-11T10:14:37Z</time>
      </trkpt>
      <trkpt lat="44.95542" lon="6.49571">
        <ele>1991.2</ele>
        <time>2024-08-11T10:14:38Z</time>
      </trkpt>
      <trkpt lat="44.9554" lon="6.49569">
        <ele>1991.2</ele>
        <time>2024-08-11T10:14:39Z</time>
      </trkpt>
      <trkpt lat="44.9554" lon="6.49569">
        <ele>1991.4</ele>
        <time>2024-08-11T10:14:40Z</time>
      </trkpt>
      <trkpt lat="44.95538" lon="6.49567">
        <ele>1991.4</ele>
        <time>2024-08-11T10:14:41Z</time>
      </trkpt>
      <trkpt lat="44.95538" lon="6.49567">
        <ele>1991.4</ele>
        <time>2024-08-11T10:14:42Z</time>
      </trkpt>
      <trkpt lat="44.95538" lon="6.49567">
        <ele>1991.6</ele>
        <time>2024-08-11T10:14:43Z</time>
      </trkpt>
      <trkpt lat="44.95538" lon="6.49563">
        <ele>1991.8</ele>
        <time>2024-08-11T10:14:44Z</time>
      </trkpt>
      <trkpt lat="44.95538" lon="6.49563">
        <ele>1991.8</ele>
        <time>2024-08-11T10:14:45Z</time>
      </trkpt>
      <trkpt lat="44.95538" lon="6.49563">
        <ele>1991.8</ele>
        <time>2024-08-11T10:14:46Z</time>
      </trkpt>
      <trkpt lat="44.95538" lon="6.49563">
        <ele>1992.2</ele>
        <time>2024-08-11T10:14:47Z</time>
      </trkpt>
      <trkpt lat="44.95538" lon="6.49563">
        <ele>1992.4</ele>
        <time>2024-08-11T10:14:48Z</time>
      </trkpt>
      <trkpt lat="44.95536" lon="6.49563">
        <ele>1992.8</ele>
        <time>2024-08-11T10:14:49Z</time>
      </trkpt>
      <trkpt lat="44.95536" lon="6.49563">
        <ele>1993</ele>
        <time>2024-08-11T10:14:50Z</time>
      </trkpt>
      <trkpt lat="44.95536" lon="6.49563">
        <ele>1993</ele>
        <time>2024-08-11T10:14:51Z</time>
      </trkpt>
      <trkpt lat="44.95536" lon="6.49563">
        <ele>1993.2</ele>
        <time>2024-08-11T10:14:52Z</time>
      </trkpt>
      <trkpt lat="44.95534" lon="6.49561">
        <ele>1993.6</ele>
        <time>2024-08-11T10:14:53Z</time>
      </trkpt>
      <trkpt lat="44.95534" lon="6.49561">
        <ele>1993.8</ele>
        <time>2024-08-11T10:14:54Z</time>
      </trkpt>
      <trkpt lat="44.95534" lon="6.49561">
        <ele>1993.8</ele>
        <time>2024-08-11T10:14:55Z</time>
      </trkpt>
      <trkpt lat="44.95533" lon="6.49558">
        <ele>1993.8</ele>
        <time>2024-08-11T10:14:56Z</time>
      </trkpt>
      <trkpt lat="44.95533" lon="6.49558">
        <ele>1994</ele>
        <time>2024-08-11T10:14:57Z</time>
      </trkpt>
      <trkpt lat="44.95533" lon="6.49558">
        <ele>1994.2</ele>
        <time>2024-08-11T10:14:58Z</time>
      </trkpt>
      <trkpt lat="44.95532" lon="6.49556">
        <ele>1994.2</ele>
        <time>2024-08-11T10:14:59Z</time>
      </trkpt>
      <trkpt lat="44.95532" lon="6.49556">
        <ele>1994.2</ele>
        <time>2024-08-11T10:15:00Z</time>
      </trkpt>
      <trkpt lat="44.95532" lon="6.49556">
        <ele>1994.4</ele>
        <time>2024-08-11T10:15:01Z</time>
      </trkpt>
      <trkpt lat="44.9553" lon="6.49554">
        <ele>1994.6</ele>
        <time>2024-08-11T10:15:02Z</time>
      </trkpt>
      <trkpt lat="44.9553" lon="6.49554">
        <ele>1994.6</ele>
        <time>2024-08-11T10:15:03Z</time>
      </trkpt>
      <trkpt lat="44.9553" lon="6.49554">
        <ele>1994.8</ele>
        <time>2024-08-11T10:15:04Z</time>
      </trkpt>
      <trkpt lat="44.95529" lon="6.49553">
        <ele>1995</ele>
        <time>2024-08-11T10:15:05Z</time>
      </trkpt>
      <trkpt lat="44.95529" lon="6.49553">
        <ele>1995.4</ele>
        <time>2024-08-11T10:15:06Z</time>
      </trkpt>
      <trkpt lat="44.95529" lon="6.49553">
        <ele>1995.6</ele>
        <time>2024-08-11T10:15:07Z</time>
      </trkpt>
      <trkpt lat="44.95529" lon="6.49553">
        <ele>1995.6</ele>
        <time>2024-08-11T10:15:08Z</time>
      </trkpt>
      <trkpt lat="44.95529" lon="6.49553">
        <ele>1995.6</ele>
        <time>2024-08-11T10:15:09Z</time>
      </trkpt>
      <trkpt lat="44.95527" lon="6.4955">
        <ele>1995.6</ele>
        <time>2024-08-11T10:15:10Z</time>
      </trkpt>
      <trkpt lat="44.95527" lon="6.4955">
        <ele>1996</ele>
        <time>2024-08-11T10:15:11Z</time>
      </trkpt>
      <trkpt lat="44.95527" lon="6.4955">
        <ele>1996</ele>
        <time>2024-08-11T10:15:12Z</time>
      </trkpt>
      <trkpt lat="44.95525" lon="6.49549">
        <ele>1996.2</ele>
        <time>2024-08-11T10:15:13Z</time>
      </trkpt>
      <trkpt lat="44.95525" lon="6.49549">
        <ele>1996.2</ele>
        <time>2024-08-11T10:15:14Z</time>
      </trkpt>
      <trkpt lat="44.95524" lon="6.49547">
        <ele>1996.4</ele>
        <time>2024-08-11T10:15:15Z</time>
      </trkpt>
      <trkpt lat="44.95524" lon="6.49547">
        <ele>1996.6</ele>
        <time>2024-08-11T10:15:16Z</time>
      </trkpt>
      <trkpt lat="44.95523" lon="6.49544">
        <ele>1996.8</ele>
        <time>2024-08-11T10:15:17Z</time>
      </trkpt>
      <trkpt lat="44.95523" lon="6.49544">
        <ele>1997</ele>
        <time>2024-08-11T10:15:18Z</time>
      </trkpt>
      <trkpt lat="44.95522" lon="6.49542">
        <ele>1997</ele>
        <time>2024-08-11T10:15:19Z</time>
      </trkpt>
      <trkpt lat="44.95522" lon="6.49542">
        <ele>1997.2</ele>
        <time>2024-08-11T10:15:20Z</time>
      </trkpt>
      <trkpt lat="44.95521" lon="6.49539">
        <ele>1997.2</ele>
        <time>2024-08-11T10:15:21Z</time>
      </trkpt>
      <trkpt lat="44.95521" lon="6.49539">
        <ele>1997.2</ele>
        <time>2024-08-11T10:15:22Z</time>
      </trkpt>
      <trkpt lat="44.9552" lon="6.49537">
        <ele>1997.2</ele>
        <time>2024-08-11T10:15:23Z</time>
      </trkpt>
      <trkpt lat="44.9552" lon="6.49537">
        <ele>1997.4</ele>
        <time>2024-08-11T10:15:24Z</time>
      </trkpt>
      <trkpt lat="44.9552" lon="6.49537">
        <ele>1997.4</ele>
        <time>2024-08-11T10:15:25Z</time>
      </trkpt>
      <trkpt lat="44.9552" lon="6.49533">
        <ele>1997.4</ele>
        <time>2024-08-11T10:15:26Z</time>
      </trkpt>
      <trkpt lat="44.9552" lon="6.49533">
        <ele>1997.4</ele>
        <time>2024-08-11T10:15:27Z</time>
      </trkpt>
      <trkpt lat="44.9552" lon="6.49533">
        <ele>1997.6</ele>
        <time>2024-08-11T10:15:28Z</time>
      </trkpt>
      <trkpt lat="44.9552" lon="6.4953">
        <ele>1997.8</ele>
        <time>2024-08-11T10:15:29Z</time>
      </trkpt>
      <trkpt lat="44.9552" lon="6.4953">
        <ele>1998</ele>
        <time>2024-08-11T10:15:30Z</time>
      </trkpt>
      <trkpt lat="44.95519" lon="6.49527">
        <ele>1998</ele>
        <time>2024-08-11T10:15:31Z</time>
      </trkpt>
      <trkpt lat="44.95519" lon="6.49527">
        <ele>1998.2</ele>
        <time>2024-08-11T10:15:32Z</time>
      </trkpt>
      <trkpt lat="44.95519" lon="6.49527">
        <ele>1998.4</ele>
        <time>2024-08-11T10:15:33Z</time>
      </trkpt>
      <trkpt lat="44.95519" lon="6.49523">
        <ele>1998.6</ele>
        <time>2024-08-11T10:15:34Z</time>
      </trkpt>
      <trkpt lat="44.95519" lon="6.49523">
        <ele>1998.6</ele>
        <time>2024-08-11T10:15:35Z</time>
      </trkpt>
      <trkpt lat="44.9552" lon="6.49521">
        <ele>1999</ele>
        <time>2024-08-11T10:15:36Z</time>
      </trkpt>
      <trkpt lat="44.9552" lon="6.49521">
        <ele>1999</ele>
        <time>2024-08-11T10:15:37Z</time>
      </trkpt>
      <trkpt lat="44.9552" lon="6.49521">
        <ele>1999</ele>
        <time>2024-08-11T10:15:38Z</time>
      </trkpt>
      <trkpt lat="44.95521" lon="6.49518">
        <ele>1999</ele>
        <time>2024-08-11T10:15:39Z</time>
      </trkpt>
      <trkpt lat="44.95521" lon="6.49518">
        <ele>1999</ele>
        <time>2024-08-11T10:15:40Z</time>
      </trkpt>
      <trkpt lat="44.95522" lon="6.49516">
        <ele>1999</ele>
        <time>2024-08-11T10:15:41Z</time>
      </trkpt>
      <trkpt lat="44.95522" lon="6.49516">
        <ele>1999</ele>
        <time>2024-08-11T10:15:42Z</time>
      </trkpt>
      <trkpt lat="44.95522" lon="6.49516">
        <ele>1999.2</ele>
        <time>2024-08-11T10:15:43Z</time>
      </trkpt>
      <trkpt lat="44.95522" lon="6.49513">
        <ele>1999.2</ele>
        <time>2024-08-11T10:15:44Z</time>
      </trkpt>
      <trkpt lat="44.95522" lon="6.49513">
        <ele>1999.2</ele>
        <time>2024-08-11T10:15:45Z</time>
      </trkpt>
      <trkpt lat="44.95522" lon="6.49513">
        <ele>1999.8</ele>
        <time>2024-08-11T10:15:46Z</time>
      </trkpt>
      <trkpt lat="44.95522" lon="6.49513">
        <ele>2000.2</ele>
        <time>2024-08-11T10:15:47Z</time>
      </trkpt>
      <trkpt lat="44.9552" lon="6.49513">
        <ele>2000.2</ele>
        <time>2024-08-11T10:15:48Z</time>
      </trkpt>
      <trkpt lat="44.9552" lon="6.49513">
        <ele>2000.4</ele>
        <time>2024-08-11T10:15:49Z</time>
      </trkpt>
      <trkpt lat="44.95518" lon="6.49515">
        <ele>2000.6</ele>
        <time>2024-08-11T10:15:50Z</time>
      </trkpt>
      <trkpt lat="44.95518" lon="6.49515">
        <ele>2000.6</ele>
        <time>2024-08-11T10:15:51Z</time>
      </trkpt>
      <trkpt lat="44.95518" lon="6.49515">
        <ele>2000.8</ele>
        <time>2024-08-11T10:15:52Z</time>
      </trkpt>
      <trkpt lat="44.95518" lon="6.49515">
        <ele>2001.4</ele>
        <time>2024-08-11T10:15:53Z</time>
      </trkpt>
      <trkpt lat="44.95518" lon="6.49515">
        <ele>2002</ele>
        <time>2024-08-11T10:15:54Z</time>
      </trkpt>
      <trkpt lat="44.95518" lon="6.49515">
        <ele>2002.4</ele>
        <time>2024-08-11T10:15:55Z</time>
      </trkpt>
      <trkpt lat="44.95517" lon="6.49515">
        <ele>2002.6</ele>
        <time>2024-08-11T10:15:56Z</time>
      </trkpt>
      <trkpt lat="44.95517" lon="6.49515">
        <ele>2003</ele>
        <time>2024-08-11T10:15:57Z</time>
      </trkpt>
      <trkpt lat="44.95517" lon="6.49515">
        <ele>2003</ele>
        <time>2024-08-11T10:15:58Z</time>
      </trkpt>
      <trkpt lat="44.95517" lon="6.49515">
        <ele>2002.8</ele>
        <time>2024-08-11T10:15:59Z</time>
      </trkpt>
      <trkpt lat="44.95517" lon="6.49515">
        <ele>2002.8</ele>
        <time>2024-08-11T10:16:00Z</time>
      </trkpt>
      <trkpt lat="44.95517" lon="6.49515">
        <ele>2003.2</ele>
        <time>2024-08-11T10:16:01Z</time>
      </trkpt>
      <trkpt lat="44.95517" lon="6.49515">
        <ele>2003.4</ele>
        <time>2024-08-11T10:16:02Z</time>
      </trkpt>
      <trkpt lat="44.95514" lon="6.49513">
        <ele>2003.4</ele>
        <time>2024-08-11T10:16:03Z</time>
      </trkpt>
      <trkpt lat="44.95514" lon="6.49513">
        <ele>2003.8</ele>
        <time>2024-08-11T10:16:04Z</time>
      </trkpt>
      <trkpt lat="44.95511" lon="6.49513">
        <ele>2004</ele>
        <time>2024-08-11T10:16:05Z</time>
      </trkpt>
      <trkpt lat="44.95511" lon="6.49513">
        <ele>2004</ele>
        <time>2024-08-11T10:16:06Z</time>
      </trkpt>
      <trkpt lat="44.95509" lon="6.49513">
        <ele>2004.2</ele>
        <time>2024-08-11T10:16:07Z</time>
      </trkpt>
      <trkpt lat="44.95509" lon="6.49513">
        <ele>2004.6</ele>
        <time>2024-08-11T10:16:08Z</time>
      </trkpt>
      <trkpt lat="44.95508" lon="6.49514">
        <ele>2004.6</ele>
        <time>2024-08-11T10:16:09Z</time>
      </trkpt>
      <trkpt lat="44.95508" lon="6.49514">
        <ele>2004.6</ele>
        <time>2024-08-11T10:16:10Z</time>
      </trkpt>
      <trkpt lat="44.95508" lon="6.49514">
        <ele>2004.6</ele>
        <time>2024-08-11T10:16:11Z</time>
      </trkpt>
      <trkpt lat="44.95508" lon="6.49514">
        <ele>2004.6</ele>
        <time>2024-08-11T10:16:12Z</time>
      </trkpt>
      <trkpt lat="44.95506" lon="6.49515">
        <ele>2004.8</ele>
        <time>2024-08-11T10:16:13Z</time>
      </trkpt>
      <trkpt lat="44.95506" lon="6.49515">
        <ele>2005</ele>
        <time>2024-08-11T10:16:14Z</time>
      </trkpt>
      <trkpt lat="44.95506" lon="6.49515">
        <ele>2005</ele>
        <time>2024-08-11T10:16:15Z</time>
      </trkpt>
      <trkpt lat="44.95506" lon="6.49515">
        <ele>2005.4</ele>
        <time>2024-08-11T10:16:16Z</time>
      </trkpt>
      <trkpt lat="44.95504" lon="6.49516">
        <ele>2005.6</ele>
        <time>2024-08-11T10:16:17Z</time>
      </trkpt>
      <trkpt lat="44.95504" lon="6.49516">
        <ele>2005.8</ele>
        <time>2024-08-11T10:16:18Z</time>
      </trkpt>
      <trkpt lat="44.95504" lon="6.49516">
        <ele>2005.8</ele>
        <time>2024-08-11T10:16:19Z</time>
      </trkpt>
      <trkpt lat="44.95504" lon="6.49516">
        <ele>2006.2</ele>
        <time>2024-08-11T10:16:20Z</time>
      </trkpt>
      <trkpt lat="44.95502" lon="6.49515">
        <ele>2006.2</ele>
        <time>2024-08-11T10:16:21Z</time>
      </trkpt>
      <trkpt lat="44.95502" lon="6.49515">
        <ele>2006.4</ele>
        <time>2024-08-11T10:16:22Z</time>
      </trkpt>
      <trkpt lat="44.95502" lon="6.49515">
        <ele>2006.6</ele>
        <time>2024-08-11T10:16:23Z</time>
      </trkpt>
      <trkpt lat="44.95502" lon="6.49515">
        <ele>2006.6</ele>
        <time>2024-08-11T10:16:24Z</time>
      </trkpt>
      <trkpt lat="44.95502" lon="6.49515">
        <ele>2006.8</ele>
        <time>2024-08-11T10:16:25Z</time>
      </trkpt>
      <trkpt lat="44.955" lon="6.49516">
        <ele>2007</ele>
        <time>2024-08-11T10:16:26Z</time>
      </trkpt>
      <trkpt lat="44.955" lon="6.49516">
        <ele>2007.2</ele>
        <time>2024-08-11T10:16:27Z</time>
      </trkpt>
      <trkpt lat="44.955" lon="6.49516">
        <ele>2007.4</ele>
        <time>2024-08-11T10:16:28Z</time>
      </trkpt>
      <trkpt lat="44.955" lon="6.49516">
        <ele>2007.8</ele>
        <time>2024-08-11T10:16:29Z</time>
      </trkpt>
      <trkpt lat="44.95498" lon="6.49517">
        <ele>2008</ele>
        <time>2024-08-11T10:16:30Z</time>
      </trkpt>
      <trkpt lat="44.95498" lon="6.49517">
        <ele>2008</ele>
        <time>2024-08-11T10:16:31Z</time>
      </trkpt>
      <trkpt lat="44.95496" lon="6.49517">
        <ele>2008.2</ele>
        <time>2024-08-11T10:16:32Z</time>
      </trkpt>
      <trkpt lat="44.95496" lon="6.49517">
        <ele>2008.6</ele>
        <time>2024-08-11T10:16:33Z</time>
      </trkpt>
      <trkpt lat="44.95496" lon="6.49517">
        <ele>2008.6</ele>
        <time>2024-08-11T10:16:34Z</time>
      </trkpt>
      <trkpt lat="44.95495" lon="6.49515">
        <ele>2008.6</ele>
        <time>2024-08-11T10:16:35Z</time>
      </trkpt>
      <trkpt lat="44.95495" lon="6.49515">
        <ele>2008.6</ele>
        <time>2024-08-11T10:16:36Z</time>
      </trkpt>
      <trkpt lat="44.95495" lon="6.49515">
        <ele>2009</ele>
        <time>2024-08-11T10:16:37Z</time>
      </trkpt>
      <trkpt lat="44.95493" lon="6.49515">
        <ele>2009</ele>
        <time>2024-08-11T10:16:38Z</time>
      </trkpt>
      <trkpt lat="44.95493" lon="6.49515">
        <ele>2009</ele>
        <time>2024-08-11T10:16:39Z</time>
      </trkpt>
      <trkpt lat="44.95493" lon="6.49515">
        <ele>2009.2</ele>
        <time>2024-08-11T10:16:40Z</time>
      </trkpt>
      <trkpt lat="44.95491" lon="6.49516">
        <ele>2009.4</ele>
        <time>2024-08-11T10:16:41Z</time>
      </trkpt>
      <trkpt lat="44.95491" lon="6.49516">
        <ele>2009.6</ele>
        <time>2024-08-11T10:16:42Z</time>
      </trkpt>
      <trkpt lat="44.95491" lon="6.49516">
        <ele>2009.8</ele>
        <time>2024-08-11T10:16:43Z</time>
      </trkpt>
      <trkpt lat="44.9549" lon="6.49518">
        <ele>2010.2</ele>
        <time>2024-08-11T10:16:44Z</time>
      </trkpt>
      <trkpt lat="44.9549" lon="6.49518">
        <ele>2010.2</ele>
        <time>2024-08-11T10:16:45Z</time>
      </trkpt>
      <trkpt lat="44.9549" lon="6.49518">
        <ele>2010.2</ele>
        <time>2024-08-11T10:16:46Z</time>
      </trkpt>
      <trkpt lat="44.95488" lon="6.4952">
        <ele>2010.6</ele>
        <time>2024-08-11T10:16:47Z</time>
      </trkpt>
      <trkpt lat="44.95488" lon="6.4952">
        <ele>2010.6</ele>
        <time>2024-08-11T10:16:48Z</time>
      </trkpt>
      <trkpt lat="44.95488" lon="6.4952">
        <ele>2010.8</ele>
        <time>2024-08-11T10:16:49Z</time>
      </trkpt>
      <trkpt lat="44.95488" lon="6.4952">
        <ele>2011</ele>
        <time>2024-08-11T10:16:50Z</time>
      </trkpt>
      <trkpt lat="44.95487" lon="6.49522">
        <ele>2011</ele>
        <time>2024-08-11T10:16:51Z</time>
      </trkpt>
      <trkpt lat="44.95487" lon="6.49522">
        <ele>2011.2</ele>
        <time>2024-08-11T10:16:52Z</time>
      </trkpt>
      <trkpt lat="44.95487" lon="6.49522">
        <ele>2011.4</ele>
        <time>2024-08-11T10:16:53Z</time>
      </trkpt>
      <trkpt lat="44.95487" lon="6.49522">
        <ele>2011.4</ele>
        <time>2024-08-11T10:16:54Z</time>
      </trkpt>
      <trkpt lat="44.95485" lon="6.49524">
        <ele>2011.6</ele>
        <time>2024-08-11T10:16:55Z</time>
      </trkpt>
      <trkpt lat="44.95485" lon="6.49524">
        <ele>2011.8</ele>
        <time>2024-08-11T10:16:56Z</time>
      </trkpt>
      <trkpt lat="44.95485" lon="6.49524">
        <ele>2012</ele>
        <time>2024-08-11T10:16:57Z</time>
      </trkpt>
      <trkpt lat="44.95483" lon="6.49526">
        <ele>2012</ele>
        <time>2024-08-11T10:16:58Z</time>
      </trkpt>
      <trkpt lat="44.95483" lon="6.49526">
        <ele>2012.2</ele>
        <time>2024-08-11T10:16:59Z</time>
      </trkpt>
      <trkpt lat="44.95483" lon="6.49526">
        <ele>2012.2</ele>
        <time>2024-08-11T10:17:00Z</time>
      </trkpt>
      <trkpt lat="44.95482" lon="6.49529">
        <ele>2012.2</ele>
        <time>2024-08-11T10:17:01Z</time>
      </trkpt>
      <trkpt lat="44.95482" lon="6.49529">
        <ele>2012.2</ele>
        <time>2024-08-11T10:17:02Z</time>
      </trkpt>
      <trkpt lat="44.95482" lon="6.49529">
        <ele>2012.2</ele>
        <time>2024-08-11T10:17:03Z</time>
      </trkpt>
      <trkpt lat="44.9548" lon="6.49531">
        <ele>2012.2</ele>
        <time>2024-08-11T10:17:04Z</time>
      </trkpt>
      <trkpt lat="44.9548" lon="6.49531">
        <ele>2012.2</ele>
        <time>2024-08-11T10:17:05Z</time>
      </trkpt>
      <trkpt lat="44.9548" lon="6.49531">
        <ele>2012.4</ele>
        <time>2024-08-11T10:17:06Z</time>
      </trkpt>
      <trkpt lat="44.95478" lon="6.49532">
        <ele>2012.6</ele>
        <time>2024-08-11T10:17:07Z</time>
      </trkpt>
      <trkpt lat="44.95478" lon="6.49532">
        <ele>2013</ele>
        <time>2024-08-11T10:17:08Z</time>
      </trkpt>
      <trkpt lat="44.95476" lon="6.49533">
        <ele>2013.2</ele>
        <time>2024-08-11T10:17:09Z</time>
      </trkpt>
      <trkpt lat="44.95476" lon="6.49533">
        <ele>2013.8</ele>
        <time>2024-08-11T10:17:10Z</time>
      </trkpt>
      <trkpt lat="44.95474" lon="6.49534">
        <ele>2013.8</ele>
        <time>2024-08-11T10:17:11Z</time>
      </trkpt>
      <trkpt lat="44.95474" lon="6.49534">
        <ele>2014</ele>
        <time>2024-08-11T10:17:12Z</time>
      </trkpt>
      <trkpt lat="44.95473" lon="6.49536">
        <ele>2014.2</ele>
        <time>2024-08-11T10:17:13Z</time>
      </trkpt>
      <trkpt lat="44.95473" lon="6.49536">
        <ele>2014.2</ele>
        <time>2024-08-11T10:17:14Z</time>
      </trkpt>
      <trkpt lat="44.95473" lon="6.49536">
        <ele>2014.2</ele>
        <time>2024-08-11T10:17:15Z</time>
      </trkpt>
      <trkpt lat="44.95471" lon="6.49536">
        <ele>2014.4</ele>
        <time>2024-08-11T10:17:16Z</time>
      </trkpt>
      <trkpt lat="44.95471" lon="6.49536">
        <ele>2015</ele>
        <time>2024-08-11T10:17:17Z</time>
      </trkpt>
      <trkpt lat="44.95471" lon="6.49536">
        <ele>2015.4</ele>
        <time>2024-08-11T10:17:18Z</time>
      </trkpt>
      <trkpt lat="44.95471" lon="6.49536">
        <ele>2015.6</ele>
        <time>2024-08-11T10:17:19Z</time>
      </trkpt>
      <trkpt lat="44.95471" lon="6.49536">
        <ele>2015.6</ele>
        <time>2024-08-11T10:17:20Z</time>
      </trkpt>
      <trkpt lat="44.95469" lon="6.49538">
        <ele>2015.2</ele>
        <time>2024-08-11T10:17:21Z</time>
      </trkpt>
      <trkpt lat="44.95469" lon="6.49538">
        <ele>2015.2</ele>
        <time>2024-08-11T10:17:22Z</time>
      </trkpt>
      <trkpt lat="44.95469" lon="6.49538">
        <ele>2015.4</ele>
        <time>2024-08-11T10:17:23Z</time>
      </trkpt>
      <trkpt lat="44.95469" lon="6.49538">
        <ele>2015.6</ele>
        <time>2024-08-11T10:17:24Z</time>
      </trkpt>
      <trkpt lat="44.95467" lon="6.49539">
        <ele>2015.8</ele>
        <time>2024-08-11T10:17:25Z</time>
      </trkpt>
      <trkpt lat="44.95467" lon="6.49539">
        <ele>2016</ele>
        <time>2024-08-11T10:17:26Z</time>
      </trkpt>
      <trkpt lat="44.95467" lon="6.49539">
        <ele>2016.2</ele>
        <time>2024-08-11T10:17:27Z</time>
      </trkpt>
      <trkpt lat="44.95467" lon="6.49539">
        <ele>2016.2</ele>
        <time>2024-08-11T10:17:28Z</time>
      </trkpt>
      <trkpt lat="44.95465" lon="6.49541">
        <ele>2016.2</ele>
        <time>2024-08-11T10:17:29Z</time>
      </trkpt>
      <trkpt lat="44.95465" lon="6.49541">
        <ele>2016.6</ele>
        <time>2024-08-11T10:17:30Z</time>
      </trkpt>
      <trkpt lat="44.95465" lon="6.49541">
        <ele>2016.8</ele>
        <time>2024-08-11T10:17:31Z</time>
      </trkpt>
      <trkpt lat="44.95465" lon="6.49541">
        <ele>2017.2</ele>
        <time>2024-08-11T10:17:32Z</time>
      </trkpt>
      <trkpt lat="44.95463" lon="6.49543">
        <ele>2017.2</ele>
        <time>2024-08-11T10:17:33Z</time>
      </trkpt>
      <trkpt lat="44.95463" lon="6.49543">
        <ele>2017.4</ele>
        <time>2024-08-11T10:17:34Z</time>
      </trkpt>
      <trkpt lat="44.95462" lon="6.49545">
        <ele>2017.6</ele>
        <time>2024-08-11T10:17:35Z</time>
      </trkpt>
      <trkpt lat="44.95462" lon="6.49545">
        <ele>2017.8</ele>
        <time>2024-08-11T10:17:36Z</time>
      </trkpt>
      <trkpt lat="44.95462" lon="6.49545">
        <ele>2017.8</ele>
        <time>2024-08-11T10:17:37Z</time>
      </trkpt>
      <trkpt lat="44.9546" lon="6.49548">
        <ele>2018</ele>
        <time>2024-08-11T10:17:38Z</time>
      </trkpt>
      <trkpt lat="44.9546" lon="6.49548">
        <ele>2018.2</ele>
        <time>2024-08-11T10:17:39Z</time>
      </trkpt>
      <trkpt lat="44.9546" lon="6.49548">
        <ele>2018.2</ele>
        <time>2024-08-11T10:17:40Z</time>
      </trkpt>
      <trkpt lat="44.95459" lon="6.4955">
        <ele>2018.4</ele>
        <time>2024-08-11T10:17:41Z</time>
      </trkpt>
      <trkpt lat="44.95459" lon="6.4955">
        <ele>2018.6</ele>
        <time>2024-08-11T10:17:42Z</time>
      </trkpt>
      <trkpt lat="44.95459" lon="6.4955">
        <ele>2019.2</ele>
        <time>2024-08-11T10:17:43Z</time>
      </trkpt>
      <trkpt lat="44.95459" lon="6.4955">
        <ele>2019.4</ele>
        <time>2024-08-11T10:17:44Z</time>
      </trkpt>
      <trkpt lat="44.95457" lon="6.49552">
        <ele>2019.6</ele>
        <time>2024-08-11T10:17:45Z</time>
      </trkpt>
      <trkpt lat="44.95457" lon="6.49552">
        <ele>2019.6</ele>
        <time>2024-08-11T10:17:46Z</time>
      </trkpt>
      <trkpt lat="44.95457" lon="6.49552">
        <ele>2020</ele>
        <time>2024-08-11T10:17:47Z</time>
      </trkpt>
      <trkpt lat="44.95456" lon="6.49555">
        <ele>2020</ele>
        <time>2024-08-11T10:17:48Z</time>
      </trkpt>
      <trkpt lat="44.95456" lon="6.49555">
        <ele>2020</ele>
        <time>2024-08-11T10:17:49Z</time>
      </trkpt>
      <trkpt lat="44.95455" lon="6.49557">
        <ele>2020</ele>
        <time>2024-08-11T10:17:50Z</time>
      </trkpt>
      <trkpt lat="44.95455" lon="6.49557">
        <ele>2020.2</ele>
        <time>2024-08-11T10:17:51Z</time>
      </trkpt>
      <trkpt lat="44.95454" lon="6.49559">
        <ele>2020.2</ele>
        <time>2024-08-11T10:17:52Z</time>
      </trkpt>
      <trkpt lat="44.95454" lon="6.49559">
        <ele>2020.8</ele>
        <time>2024-08-11T10:17:53Z</time>
      </trkpt>
      <trkpt lat="44.95454" lon="6.49559">
        <ele>2021</ele>
        <time>2024-08-11T10:17:54Z</time>
      </trkpt>
      <trkpt lat="44.95452" lon="6.49561">
        <ele>2021</ele>
        <time>2024-08-11T10:17:55Z</time>
      </trkpt>
      <trkpt lat="44.95452" lon="6.49561">
        <ele>2021.4</ele>
        <time>2024-08-11T10:17:56Z</time>
      </trkpt>
      <trkpt lat="44.95451" lon="6.49563">
        <ele>2021.6</ele>
        <time>2024-08-11T10:17:57Z</time>
      </trkpt>
      <trkpt lat="44.95451" lon="6.49563">
        <ele>2021.8</ele>
        <time>2024-08-11T10:17:58Z</time>
      </trkpt>
      <trkpt lat="44.95451" lon="6.49563">
        <ele>2021.8</ele>
        <time>2024-08-11T10:17:59Z</time>
      </trkpt>
      <trkpt lat="44.95449" lon="6.49564">
        <ele>2022</ele>
        <time>2024-08-11T10:18:00Z</time>
      </trkpt>
      <trkpt lat="44.95449" lon="6.49564">
        <ele>2022.2</ele>
        <time>2024-08-11T10:18:01Z</time>
      </trkpt>
      <trkpt lat="44.95449" lon="6.49564">
        <ele>2022.2</ele>
        <time>2024-08-11T10:18:02Z</time>
      </trkpt>
      <trkpt lat="44.95446" lon="6.49566">
        <ele>2022.2</ele>
        <time>2024-08-11T10:18:03Z</time>
      </trkpt>
      <trkpt lat="44.95446" lon="6.49566">
        <ele>2022.6</ele>
        <time>2024-08-11T10:18:04Z</time>
      </trkpt>
      <trkpt lat="44.95446" lon="6.49566">
        <ele>2022.6</ele>
        <time>2024-08-11T10:18:05Z</time>
      </trkpt>
      <trkpt lat="44.95444" lon="6.49567">
        <ele>2023</ele>
        <time>2024-08-11T10:18:06Z</time>
      </trkpt>
      <trkpt lat="44.95444" lon="6.49567">
        <ele>2023.6</ele>
        <time>2024-08-11T10:18:07Z</time>
      </trkpt>
      <trkpt lat="44.95444" lon="6.49567">
        <ele>2023.8</ele>
        <time>2024-08-11T10:18:08Z</time>
      </trkpt>
      <trkpt lat="44.95442" lon="6.49566">
        <ele>2024</ele>
        <time>2024-08-11T10:18:09Z</time>
      </trkpt>
      <trkpt lat="44.95442" lon="6.49566">
        <ele>2024.2</ele>
        <time>2024-08-11T10:18:10Z</time>
      </trkpt>
      <trkpt lat="44.95442" lon="6.49566">
        <ele>2024.2</ele>
        <time>2024-08-11T10:18:11Z</time>
      </trkpt>
      <trkpt lat="44.9544" lon="6.49566">
        <ele>2024.6</ele>
        <time>2024-08-11T10:18:12Z</time>
      </trkpt>
      <trkpt lat="44.9544" lon="6.49566">
        <ele>2024.8</ele>
        <time>2024-08-11T10:18:13Z</time>
      </trkpt>
      <trkpt lat="44.95438" lon="6.49566">
        <ele>2024.8</ele>
        <time>2024-08-11T10:18:14Z</time>
      </trkpt>
      <trkpt lat="44.95438" lon="6.49566">
        <ele>2025</ele>
        <time>2024-08-11T10:18:15Z</time>
      </trkpt>
      <trkpt lat="44.95438" lon="6.49566">
        <ele>2025.2</ele>
        <time>2024-08-11T10:18:16Z</time>
      </trkpt>
      <trkpt lat="44.95438" lon="6.49566">
        <ele>2025.4</ele>
        <time>2024-08-11T10:18:17Z</time>
      </trkpt>
      <trkpt lat="44.95436" lon="6.49564">
        <ele>2025.6</ele>
        <time>2024-08-11T10:18:18Z</time>
      </trkpt>
      <trkpt lat="44.95436" lon="6.49564">
        <ele>2025.6</ele>
        <time>2024-08-11T10:18:19Z</time>
      </trkpt>
      <trkpt lat="44.95436" lon="6.49564">
        <ele>2025.8</ele>
        <time>2024-08-11T10:18:20Z</time>
      </trkpt>
      <trkpt lat="44.95436" lon="6.49564">
        <ele>2026.2</ele>
        <time>2024-08-11T10:18:21Z</time>
      </trkpt>
      <trkpt lat="44.95434" lon="6.49564">
        <ele>2026.6</ele>
        <time>2024-08-11T10:18:22Z</time>
      </trkpt>
      <trkpt lat="44.95434" lon="6.49564">
        <ele>2026.8</ele>
        <time>2024-08-11T10:18:23Z</time>
      </trkpt>
      <trkpt lat="44.95434" lon="6.49564">
        <ele>2026.8</ele>
        <time>2024-08-11T10:18:24Z</time>
      </trkpt>
      <trkpt lat="44.95434" lon="6.49564">
        <ele>2027.2</ele>
        <time>2024-08-11T10:18:25Z</time>
      </trkpt>
      <trkpt lat="44.95434" lon="6.49564">
        <ele>2027.4</ele>
        <time>2024-08-11T10:18:26Z</time>
      </trkpt>
      <trkpt lat="44.95434" lon="6.49564">
        <ele>2027.4</ele>
        <time>2024-08-11T10:18:27Z</time>
      </trkpt>
      <trkpt lat="44.95432" lon="6.49565">
        <ele>2027.6</ele>
        <time>2024-08-11T10:18:28Z</time>
      </trkpt>
      <trkpt lat="44.95432" lon="6.49565">
        <ele>2028</ele>
        <time>2024-08-11T10:18:29Z</time>
      </trkpt>
      <trkpt lat="44.95432" lon="6.49565">
        <ele>2028</ele>
        <time>2024-08-11T10:18:30Z</time>
      </trkpt>
      <trkpt lat="44.95432" lon="6.49565">
        <ele>2028.2</ele>
        <time>2024-08-11T10:18:31Z</time>
      </trkpt>
      <trkpt lat="44.9543" lon="6.49563">
        <ele>2028.4</ele>
        <time>2024-08-11T10:18:32Z</time>
      </trkpt>
      <trkpt lat="44.9543" lon="6.49563">
        <ele>2028.8</ele>
        <time>2024-08-11T10:18:33Z</time>
      </trkpt>
      <trkpt lat="44.9543" lon="6.49563">
        <ele>2028.8</ele>
        <time>2024-08-11T10:18:34Z</time>
      </trkpt>
      <trkpt lat="44.95429" lon="6.49564">
        <ele>2029</ele>
        <time>2024-08-11T10:18:35Z</time>
      </trkpt>
      <trkpt lat="44.95429" lon="6.49564">
        <ele>2029.4</ele>
        <time>2024-08-11T10:18:36Z</time>
      </trkpt>
      <trkpt lat="44.95429" lon="6.49564">
        <ele>2029.4</ele>
        <time>2024-08-11T10:18:37Z</time>
      </trkpt>
      <trkpt lat="44.95427" lon="6.49565">
        <ele>2029.4</ele>
        <time>2024-08-11T10:18:38Z</time>
      </trkpt>
      <trkpt lat="44.95427" lon="6.49565">
        <ele>2029.6</ele>
        <time>2024-08-11T10:18:39Z</time>
      </trkpt>
      <trkpt lat="44.95427" lon="6.49565">
        <ele>2029.6</ele>
        <time>2024-08-11T10:18:40Z</time>
      </trkpt>
      <trkpt lat="44.95425" lon="6.49565">
        <ele>2029.6</ele>
        <time>2024-08-11T10:18:41Z</time>
      </trkpt>
      <trkpt lat="44.95425" lon="6.49565">
        <ele>2029.8</ele>
        <time>2024-08-11T10:18:42Z</time>
      </trkpt>
      <trkpt lat="44.95425" lon="6.49565">
        <ele>2030.2</ele>
        <time>2024-08-11T10:18:43Z</time>
      </trkpt>
      <trkpt lat="44.95423" lon="6.49564">
        <ele>2030.2</ele>
        <time>2024-08-11T10:18:44Z</time>
      </trkpt>
      <trkpt lat="44.95423" lon="6.49564">
        <ele>2030.4</ele>
        <time>2024-08-11T10:18:45Z</time>
      </trkpt>
      <trkpt lat="44.95423" lon="6.49564">
        <ele>2030.8</ele>
        <time>2024-08-11T10:18:46Z</time>
      </trkpt>
      <trkpt lat="44.95423" lon="6.49564">
        <ele>2031.2</ele>
        <time>2024-08-11T10:18:47Z</time>
      </trkpt>
      <trkpt lat="44.95423" lon="6.49564">
        <ele>2031.4</ele>
        <time>2024-08-11T10:18:48Z</time>
      </trkpt>
      <trkpt lat="44.95421" lon="6.49565">
        <ele>2031.4</ele>
        <time>2024-08-11T10:18:49Z</time>
      </trkpt>
      <trkpt lat="44.95419" lon="6.49566">
        <ele>2031.4</ele>
        <time>2024-08-11T10:18:50Z</time>
      </trkpt>
      <trkpt lat="44.95419" lon="6.49566">
        <ele>2031.4</ele>
        <time>2024-08-11T10:18:51Z</time>
      </trkpt>
      <trkpt lat="44.95417" lon="6.49567">
        <ele>2031.4</ele>
        <time>2024-08-11T10:18:52Z</time>
      </trkpt>
      <trkpt lat="44.95417" lon="6.49567">
        <ele>2031.4</ele>
        <time>2024-08-11T10:18:53Z</time>
      </trkpt>
      <trkpt lat="44.95417" lon="6.49567">
        <ele>2031.6</ele>
        <time>2024-08-11T10:18:54Z</time>
      </trkpt>
      <trkpt lat="44.95414" lon="6.49568">
        <ele>2031.6</ele>
        <time>2024-08-11T10:18:55Z</time>
      </trkpt>
      <trkpt lat="44.95414" lon="6.49568">
        <ele>2031.6</ele>
        <time>2024-08-11T10:18:56Z</time>
      </trkpt>
      <trkpt lat="44.95412" lon="6.49569">
        <ele>2031.6</ele>
        <time>2024-08-11T10:18:57Z</time>
      </trkpt>
      <trkpt lat="44.95412" lon="6.49569">
        <ele>2031.8</ele>
        <time>2024-08-11T10:18:58Z</time>
      </trkpt>
      <trkpt lat="44.9541" lon="6.4957">
        <ele>2032</ele>
        <time>2024-08-11T10:18:59Z</time>
      </trkpt>
      <trkpt lat="44.9541" lon="6.4957">
        <ele>2032</ele>
        <time>2024-08-11T10:19:00Z</time>
      </trkpt>
      <trkpt lat="44.95407" lon="6.49572">
        <ele>2032</ele>
        <time>2024-08-11T10:19:01Z</time>
      </trkpt>
      <trkpt lat="44.95407" lon="6.49572">
        <ele>2032.4</ele>
        <time>2024-08-11T10:19:02Z</time>
      </trkpt>
      <trkpt lat="44.95405" lon="6.49573">
        <ele>2032.4</ele>
        <time>2024-08-11T10:19:03Z</time>
      </trkpt>
      <trkpt lat="44.95405" lon="6.49573">
        <ele>2032.4</ele>
        <time>2024-08-11T10:19:04Z</time>
      </trkpt>
      <trkpt lat="44.95405" lon="6.49573">
        <ele>2032.4</ele>
        <time>2024-08-11T10:19:05Z</time>
      </trkpt>
      <trkpt lat="44.95403" lon="6.49576">
        <ele>2032.6</ele>
        <time>2024-08-11T10:19:06Z</time>
      </trkpt>
      <trkpt lat="44.95403" lon="6.49576">
        <ele>2032.8</ele>
        <time>2024-08-11T10:19:07Z</time>
      </trkpt>
      <trkpt lat="44.95401" lon="6.49577">
        <ele>2033</ele>
        <time>2024-08-11T10:19:08Z</time>
      </trkpt>
      <trkpt lat="44.95401" lon="6.49577">
        <ele>2033</ele>
        <time>2024-08-11T10:19:09Z</time>
      </trkpt>
      <trkpt lat="44.95399" lon="6.49579">
        <ele>2033</ele>
        <time>2024-08-11T10:19:10Z</time>
      </trkpt>
      <trkpt lat="44.95399" lon="6.49579">
        <ele>2033.4</ele>
        <time>2024-08-11T10:19:11Z</time>
      </trkpt>
      <trkpt lat="44.95399" lon="6.49579">
        <ele>2033.4</ele>
        <time>2024-08-11T10:19:12Z</time>
      </trkpt>
      <trkpt lat="44.95397" lon="6.49579">
        <ele>2033.6</ele>
        <time>2024-08-11T10:19:13Z</time>
      </trkpt>
      <trkpt lat="44.95397" lon="6.49579">
        <ele>2033.8</ele>
        <time>2024-08-11T10:19:14Z</time>
      </trkpt>
      <trkpt lat="44.95395" lon="6.4958">
        <ele>2034.2</ele>
        <time>2024-08-11T10:19:15Z</time>
      </trkpt>
      <trkpt lat="44.95395" lon="6.4958">
        <ele>2034.2</ele>
        <time>2024-08-11T10:19:16Z</time>
      </trkpt>
      <trkpt lat="44.95393" lon="6.49582">
        <ele>2034.4</ele>
        <time>2024-08-11T10:19:17Z</time>
      </trkpt>
      <trkpt lat="44.95393" lon="6.49582">
        <ele>2034.6</ele>
        <time>2024-08-11T10:19:18Z</time>
      </trkpt>
      <trkpt lat="44.95393" lon="6.49582">
        <ele>2034.6</ele>
        <time>2024-08-11T10:19:19Z</time>
      </trkpt>
      <trkpt lat="44.95391" lon="6.49583">
        <ele>2034.8</ele>
        <time>2024-08-11T10:19:20Z</time>
      </trkpt>
      <trkpt lat="44.95391" lon="6.49583">
        <ele>2035</ele>
        <time>2024-08-11T10:19:21Z</time>
      </trkpt>
      <trkpt lat="44.95391" lon="6.49583">
        <ele>2035.2</ele>
        <time>2024-08-11T10:19:22Z</time>
      </trkpt>
      <trkpt lat="44.95389" lon="6.49585">
        <ele>2035.6</ele>
        <time>2024-08-11T10:19:23Z</time>
      </trkpt>
      <trkpt lat="44.95389" lon="6.49585">
        <ele>2035.6</ele>
        <time>2024-08-11T10:19:24Z</time>
      </trkpt>
      <trkpt lat="44.95387" lon="6.49586">
        <ele>2035.6</ele>
        <time>2024-08-11T10:19:25Z</time>
      </trkpt>
      <trkpt lat="44.95387" lon="6.49586">
        <ele>2035.6</ele>
        <time>2024-08-11T10:19:26Z</time>
      </trkpt>
      <trkpt lat="44.95385" lon="6.49586">
        <ele>2035.6</ele>
        <time>2024-08-11T10:19:27Z</time>
      </trkpt>
      <trkpt lat="44.95385" lon="6.49586">
        <ele>2035.8</ele>
        <time>2024-08-11T10:19:28Z</time>
      </trkpt>
      <trkpt lat="44.95383" lon="6.49586">
        <ele>2036</ele>
        <time>2024-08-11T10:19:29Z</time>
      </trkpt>
      <trkpt lat="44.95383" lon="6.49586">
        <ele>2036</ele>
        <time>2024-08-11T10:19:30Z</time>
      </trkpt>
      <trkpt lat="44.95383" lon="6.49586">
        <ele>2036.2</ele>
        <time>2024-08-11T10:19:31Z</time>
      </trkpt>
      <trkpt lat="44.95381" lon="6.49587">
        <ele>2036.4</ele>
        <time>2024-08-11T10:19:32Z</time>
      </trkpt>
      <trkpt lat="44.95381" lon="6.49587">
        <ele>2036.4</ele>
        <time>2024-08-11T10:19:33Z</time>
      </trkpt>
      <trkpt lat="44.95379" lon="6.49588">
        <ele>2036.4</ele>
        <time>2024-08-11T10:19:34Z</time>
      </trkpt>
      <trkpt lat="44.95379" lon="6.49588">
        <ele>2036.6</ele>
        <time>2024-08-11T10:19:35Z</time>
      </trkpt>
      <trkpt lat="44.95377" lon="6.4959">
        <ele>2036.8</ele>
        <time>2024-08-11T10:19:36Z</time>
      </trkpt>
      <trkpt lat="44.95377" lon="6.4959">
        <ele>2036.8</ele>
        <time>2024-08-11T10:19:37Z</time>
      </trkpt>
      <trkpt lat="44.95375" lon="6.49591">
        <ele>2037</ele>
        <time>2024-08-11T10:19:38Z</time>
      </trkpt>
      <trkpt lat="44.95375" lon="6.49591">
        <ele>2037</ele>
        <time>2024-08-11T10:19:39Z</time>
      </trkpt>
      <trkpt lat="44.95373" lon="6.49593">
        <ele>2037.2</ele>
        <time>2024-08-11T10:19:40Z</time>
      </trkpt>
      <trkpt lat="44.95373" lon="6.49593">
        <ele>2037.4</ele>
        <time>2024-08-11T10:19:41Z</time>
      </trkpt>
      <trkpt lat="44.95373" lon="6.49593">
        <ele>2037.4</ele>
        <time>2024-08-11T10:19:42Z</time>
      </trkpt>
      <trkpt lat="44.95371" lon="6.49594">
        <ele>2037.4</ele>
        <time>2024-08-11T10:19:43Z</time>
      </trkpt>
      <trkpt lat="44.95371" lon="6.49594">
        <ele>2037.4</ele>
        <time>2024-08-11T10:19:44Z</time>
      </trkpt>
      <trkpt lat="44.95368" lon="6.49594">
        <ele>2037.4</ele>
        <time>2024-08-11T10:19:45Z</time>
      </trkpt>
      <trkpt lat="44.95368" lon="6.49594">
        <ele>2037.4</ele>
        <time>2024-08-11T10:19:46Z</time>
      </trkpt>
      <trkpt lat="44.95368" lon="6.49594">
        <ele>2037.6</ele>
        <time>2024-08-11T10:19:47Z</time>
      </trkpt>
      <trkpt lat="44.95366" lon="6.49595">
        <ele>2037.6</ele>
        <time>2024-08-11T10:19:48Z</time>
      </trkpt>
      <trkpt lat="44.95366" lon="6.49595">
        <ele>2037.6</ele>
        <time>2024-08-11T10:19:49Z</time>
      </trkpt>
      <trkpt lat="44.95364" lon="6.49595">
        <ele>2037.6</ele>
        <time>2024-08-11T10:19:50Z</time>
      </trkpt>
      <trkpt lat="44.95364" lon="6.49595">
        <ele>2037.6</ele>
        <time>2024-08-11T10:19:51Z</time>
      </trkpt>
      <trkpt lat="44.95364" lon="6.49595">
        <ele>2037.6</ele>
        <time>2024-08-11T10:19:52Z</time>
      </trkpt>
      <trkpt lat="44.95362" lon="6.49596">
        <ele>2037</ele>
        <time>2024-08-11T10:19:53Z</time>
      </trkpt>
      <trkpt lat="44.95362" lon="6.49596">
        <ele>2036.8</ele>
        <time>2024-08-11T10:19:54Z</time>
      </trkpt>
      <trkpt lat="44.95362" lon="6.49596">
        <ele>2036.8</ele>
        <time>2024-08-11T10:19:55Z</time>
      </trkpt>
      <trkpt lat="44.95362" lon="6.49596">
        <ele>2036.4</ele>
        <time>2024-08-11T10:19:56Z</time>
      </trkpt>
      <trkpt lat="44.95362" lon="6.49596">
        <ele>2036.4</ele>
        <time>2024-08-11T10:19:57Z</time>
      </trkpt>
      <trkpt lat="44.95362" lon="6.49596">
        <ele>2036.4</ele>
        <time>2024-08-11T10:19:58Z</time>
      </trkpt>
      <trkpt lat="44.95362" lon="6.49596">
        <ele>2036.6</ele>
        <time>2024-08-11T10:19:59Z</time>
      </trkpt>
      <trkpt lat="44.95362" lon="6.49596">
        <ele>2036.8</ele>
        <time>2024-08-11T10:20:00Z</time>
      </trkpt>
      <trkpt lat="44.95362" lon="6.49596">
        <ele>2036.8</ele>
        <time>2024-08-11T10:20:01Z</time>
      </trkpt>
      <trkpt lat="44.95362" lon="6.49596">
        <ele>2036.8</ele>
        <time>2024-08-11T10:20:02Z</time>
      </trkpt>
      <trkpt lat="44.95362" lon="6.49596">
        <ele>2036.8</ele>
        <time>2024-08-11T10:20:03Z</time>
      </trkpt>
      <trkpt lat="44.95362" lon="6.49596">
        <ele>2037</ele>
        <time>2024-08-11T10:20:04Z</time>
      </trkpt>
      <trkpt lat="44.95362" lon="6.49596">
        <ele>2037</ele>
        <time>2024-08-11T10:20:05Z</time>
      </trkpt>
      <trkpt lat="44.95362" lon="6.49596">
        <ele>2037</ele>
        <time>2024-08-11T10:20:06Z</time>
      </trkpt>
      <trkpt lat="44.95362" lon="6.49596">
        <ele>2037</ele>
        <time>2024-08-11T10:20:07Z</time>
      </trkpt>
      <trkpt lat="44.95362" lon="6.49596">
        <ele>2037</ele>
        <time>2024-08-11T10:20:08Z</time>
      </trkpt>
      <trkpt lat="44.95362" lon="6.49596">
        <ele>2037</ele>
        <time>2024-08-11T10:20:09Z</time>
      </trkpt>
      <trkpt lat="44.95362" lon="6.49596">
        <ele>2037</ele>
        <time>2024-08-11T10:20:10Z</time>
      </trkpt>
      <trkpt lat="44.95362" lon="6.49596">
        <ele>2037</ele>
        <time>2024-08-11T10:20:11Z</time>
      </trkpt>
      <trkpt lat="44.95362" lon="6.49596">
        <ele>2037</ele>
        <time>2024-08-11T10:20:12Z</time>
      </trkpt>
      <trkpt lat="44.95359" lon="6.49599">
        <ele>2036.8</ele>
        <time>2024-08-11T10:20:13Z</time>
      </trkpt>
      <trkpt lat="44.95359" lon="6.49599">
        <ele>2036.8</ele>
        <time>2024-08-11T10:20:14Z</time>
      </trkpt>
      <trkpt lat="44.95357" lon="6.496">
        <ele>2036.6</ele>
        <time>2024-08-11T10:20:15Z</time>
      </trkpt>
      <trkpt lat="44.95357" lon="6.496">
        <ele>2036.8</ele>
        <time>2024-08-11T10:20:16Z</time>
      </trkpt>
      <trkpt lat="44.95357" lon="6.496">
        <ele>2036.8</ele>
        <time>2024-08-11T10:20:17Z</time>
      </trkpt>
      <trkpt lat="44.95352" lon="6.49602">
        <ele>2036.8</ele>
        <time>2024-08-11T10:20:18Z</time>
      </trkpt>
      <trkpt lat="44.95351" lon="6.49602">
        <ele>2036.8</ele>
        <time>2024-08-11T10:20:19Z</time>
      </trkpt>
      <trkpt lat="44.95351" lon="6.49602">
        <ele>2036.8</ele>
        <time>2024-08-11T10:20:20Z</time>
      </trkpt>
      <trkpt lat="44.95349" lon="6.49602">
        <ele>2037</ele>
        <time>2024-08-11T10:20:21Z</time>
      </trkpt>
      <trkpt lat="44.95349" lon="6.49602">
        <ele>2037.4</ele>
        <time>2024-08-11T10:20:22Z</time>
      </trkpt>
      <trkpt lat="44.95349" lon="6.49602">
        <ele>2037.4</ele>
        <time>2024-08-11T10:20:23Z</time>
      </trkpt>
      <trkpt lat="44.95347" lon="6.49602">
        <ele>2037.4</ele>
        <time>2024-08-11T10:20:24Z</time>
      </trkpt>
      <trkpt lat="44.95347" lon="6.49602">
        <ele>2037.8</ele>
        <time>2024-08-11T10:20:25Z</time>
      </trkpt>
      <trkpt lat="44.95347" lon="6.49602">
        <ele>2037.8</ele>
        <time>2024-08-11T10:20:26Z</time>
      </trkpt>
      <trkpt lat="44.95344" lon="6.49602">
        <ele>2038.2</ele>
        <time>2024-08-11T10:20:27Z</time>
      </trkpt>
      <trkpt lat="44.95344" lon="6.49602">
        <ele>2038.6</ele>
        <time>2024-08-11T10:20:28Z</time>
      </trkpt>
      <trkpt lat="44.95342" lon="6.49601">
        <ele>2038.6</ele>
        <time>2024-08-11T10:20:29Z</time>
      </trkpt>
      <trkpt lat="44.95342" lon="6.49601">
        <ele>2038.6</ele>
        <time>2024-08-11T10:20:30Z</time>
      </trkpt>
      <trkpt lat="44.95342" lon="6.49601">
        <ele>2038.6</ele>
        <time>2024-08-11T10:20:31Z</time>
      </trkpt>
      <trkpt lat="44.9534" lon="6.49602">
        <ele>2038.6</ele>
        <time>2024-08-11T10:20:32Z</time>
      </trkpt>
      <trkpt lat="44.9534" lon="6.49602">
        <ele>2038.8</ele>
        <time>2024-08-11T10:20:33Z</time>
      </trkpt>
      <trkpt lat="44.9534" lon="6.49602">
        <ele>2039.2</ele>
        <time>2024-08-11T10:20:34Z</time>
      </trkpt>
      <trkpt lat="44.95338" lon="6.49602">
        <ele>2039.6</ele>
        <time>2024-08-11T10:20:35Z</time>
      </trkpt>
      <trkpt lat="44.95338" lon="6.49602">
        <ele>2039.6</ele>
        <time>2024-08-11T10:20:36Z</time>
      </trkpt>
      <trkpt lat="44.95338" lon="6.49602">
        <ele>2039.6</ele>
        <time>2024-08-11T10:20:37Z</time>
      </trkpt>
      <trkpt lat="44.95338" lon="6.49602">
        <ele>2040</ele>
        <time>2024-08-11T10:20:38Z</time>
      </trkpt>
      <trkpt lat="44.95335" lon="6.49602">
        <ele>2040</ele>
        <time>2024-08-11T10:20:39Z</time>
      </trkpt>
      <trkpt lat="44.95335" lon="6.49602">
        <ele>2039.6</ele>
        <time>2024-08-11T10:20:40Z</time>
      </trkpt>
      <trkpt lat="44.95333" lon="6.496">
        <ele>2039.6</ele>
        <time>2024-08-11T10:20:41Z</time>
      </trkpt>
      <trkpt lat="44.95333" lon="6.496">
        <ele>2040</ele>
        <time>2024-08-11T10:20:42Z</time>
      </trkpt>
      <trkpt lat="44.95332" lon="6.496">
        <ele>2040</ele>
        <time>2024-08-11T10:20:43Z</time>
      </trkpt>
      <trkpt lat="44.95332" lon="6.496">
        <ele>2040</ele>
        <time>2024-08-11T10:20:44Z</time>
      </trkpt>
      <trkpt lat="44.9533" lon="6.496">
        <ele>2040</ele>
        <time>2024-08-11T10:20:45Z</time>
      </trkpt>
      <trkpt lat="44.9533" lon="6.496">
        <ele>2040.2</ele>
        <time>2024-08-11T10:20:46Z</time>
      </trkpt>
      <trkpt lat="44.9533" lon="6.496">
        <ele>2040.2</ele>
        <time>2024-08-11T10:20:47Z</time>
      </trkpt>
      <trkpt lat="44.9533" lon="6.496">
        <ele>2040.2</ele>
        <time>2024-08-11T10:20:48Z</time>
      </trkpt>
      <trkpt lat="44.95327" lon="6.49601">
        <ele>2040.4</ele>
        <time>2024-08-11T10:20:49Z</time>
      </trkpt>
      <trkpt lat="44.95327" lon="6.49601">
        <ele>2040.4</ele>
        <time>2024-08-11T10:20:50Z</time>
      </trkpt>
      <trkpt lat="44.95327" lon="6.49601">
        <ele>2040.2</ele>
        <time>2024-08-11T10:20:51Z</time>
      </trkpt>
      <trkpt lat="44.95326" lon="6.49603">
        <ele>2040.2</ele>
        <time>2024-08-11T10:20:52Z</time>
      </trkpt>
      <trkpt lat="44.95326" lon="6.49603">
        <ele>2040.2</ele>
        <time>2024-08-11T10:20:53Z</time>
      </trkpt>
      <trkpt lat="44.95325" lon="6.49606">
        <ele>2040.2</ele>
        <time>2024-08-11T10:20:54Z</time>
      </trkpt>
      <trkpt lat="44.95325" lon="6.49606">
        <ele>2040.2</ele>
        <time>2024-08-11T10:20:55Z</time>
      </trkpt>
      <trkpt lat="44.95325" lon="6.49609">
        <ele>2040.6</ele>
        <time>2024-08-11T10:20:56Z</time>
      </trkpt>
      <trkpt lat="44.95325" lon="6.49609">
        <ele>2040.6</ele>
        <time>2024-08-11T10:20:57Z</time>
      </trkpt>
      <trkpt lat="44.95325" lon="6.49612">
        <ele>2040.6</ele>
        <time>2024-08-11T10:20:58Z</time>
      </trkpt>
      <trkpt lat="44.95325" lon="6.49612">
        <ele>2040.6</ele>
        <time>2024-08-11T10:20:59Z</time>
      </trkpt>
      <trkpt lat="44.95324" lon="6.49615">
        <ele>2040.6</ele>
        <time>2024-08-11T10:21:00Z</time>
      </trkpt>
      <trkpt lat="44.95324" lon="6.49615">
        <ele>2040.4</ele>
        <time>2024-08-11T10:21:01Z</time>
      </trkpt>
      <trkpt lat="44.95323" lon="6.49618">
        <ele>2040.6</ele>
        <time>2024-08-11T10:21:02Z</time>
      </trkpt>
      <trkpt lat="44.95323" lon="6.49618">
        <ele>2040.6</ele>
        <time>2024-08-11T10:21:03Z</time>
      </trkpt>
      <trkpt lat="44.95321" lon="6.49618">
        <ele>2040.8</ele>
        <time>2024-08-11T10:21:04Z</time>
      </trkpt>
      <trkpt lat="44.95321" lon="6.49618">
        <ele>2041</ele>
        <time>2024-08-11T10:21:05Z</time>
      </trkpt>
      <trkpt lat="44.95319" lon="6.49618">
        <ele>2041</ele>
        <time>2024-08-11T10:21:06Z</time>
      </trkpt>
      <trkpt lat="44.95319" lon="6.49618">
        <ele>2041.2</ele>
        <time>2024-08-11T10:21:07Z</time>
      </trkpt>
      <trkpt lat="44.95316" lon="6.49618">
        <ele>2041.4</ele>
        <time>2024-08-11T10:21:08Z</time>
      </trkpt>
      <trkpt lat="44.95316" lon="6.49618">
        <ele>2041.4</ele>
        <time>2024-08-11T10:21:09Z</time>
      </trkpt>
      <trkpt lat="44.95316" lon="6.49618">
        <ele>2041.6</ele>
        <time>2024-08-11T10:21:10Z</time>
      </trkpt>
      <trkpt lat="44.95314" lon="6.49619">
        <ele>2041.8</ele>
        <time>2024-08-11T10:21:11Z</time>
      </trkpt>
      <trkpt lat="44.95314" lon="6.49619">
        <ele>2042</ele>
        <time>2024-08-11T10:21:12Z</time>
      </trkpt>
      <trkpt lat="44.95314" lon="6.49619">
        <ele>2042</ele>
        <time>2024-08-11T10:21:13Z</time>
      </trkpt>
      <trkpt lat="44.95312" lon="6.49619">
        <ele>2042.2</ele>
        <time>2024-08-11T10:21:14Z</time>
      </trkpt>
      <trkpt lat="44.95312" lon="6.49619">
        <ele>2042.4</ele>
        <time>2024-08-11T10:21:15Z</time>
      </trkpt>
      <trkpt lat="44.9531" lon="6.49619">
        <ele>2042.4</ele>
        <time>2024-08-11T10:21:16Z</time>
      </trkpt>
      <trkpt lat="44.9531" lon="6.49619">
        <ele>2042.6</ele>
        <time>2024-08-11T10:21:17Z</time>
      </trkpt>
      <trkpt lat="44.9531" lon="6.49619">
        <ele>2043</ele>
        <time>2024-08-11T10:21:18Z</time>
      </trkpt>
      <trkpt lat="44.95308" lon="6.49619">
        <ele>2043.4</ele>
        <time>2024-08-11T10:21:19Z</time>
      </trkpt>
      <trkpt lat="44.95308" lon="6.49619">
        <ele>2043.4</ele>
        <time>2024-08-11T10:21:20Z</time>
      </trkpt>
      <trkpt lat="44.95306" lon="6.49619">
        <ele>2043.4</ele>
        <time>2024-08-11T10:21:21Z</time>
      </trkpt>
      <trkpt lat="44.95306" lon="6.49619">
        <ele>2043.6</ele>
        <time>2024-08-11T10:21:22Z</time>
      </trkpt>
      <trkpt lat="44.95304" lon="6.49618">
        <ele>2043.6</ele>
        <time>2024-08-11T10:21:23Z</time>
      </trkpt>
      <trkpt lat="44.95304" lon="6.49618">
        <ele>2043.6</ele>
        <time>2024-08-11T10:21:24Z</time>
      </trkpt>
      <trkpt lat="44.95304" lon="6.49618">
        <ele>2043.6</ele>
        <time>2024-08-11T10:21:25Z</time>
      </trkpt>
      <trkpt lat="44.95302" lon="6.49619">
        <ele>2043.8</ele>
        <time>2024-08-11T10:21:26Z</time>
      </trkpt>
      <trkpt lat="44.95302" lon="6.49619">
        <ele>2044.2</ele>
        <time>2024-08-11T10:21:27Z</time>
      </trkpt>
      <trkpt lat="44.95302" lon="6.49619">
        <ele>2044.6</ele>
        <time>2024-08-11T10:21:28Z</time>
      </trkpt>
      <trkpt lat="44.953" lon="6.4962">
        <ele>2044.8</ele>
        <time>2024-08-11T10:21:29Z</time>
      </trkpt>
      <trkpt lat="44.953" lon="6.4962">
        <ele>2045.2</ele>
        <time>2024-08-11T10:21:30Z</time>
      </trkpt>
      <trkpt lat="44.953" lon="6.4962">
        <ele>2045.6</ele>
        <time>2024-08-11T10:21:31Z</time>
      </trkpt>
      <trkpt lat="44.95298" lon="6.49622">
        <ele>2045.8</ele>
        <time>2024-08-11T10:21:32Z</time>
      </trkpt>
      <trkpt lat="44.95298" lon="6.49622">
        <ele>2046</ele>
        <time>2024-08-11T10:21:33Z</time>
      </trkpt>
      <trkpt lat="44.95298" lon="6.49622">
        <ele>2046.6</ele>
        <time>2024-08-11T10:21:34Z</time>
      </trkpt>
      <trkpt lat="44.95296" lon="6.49623">
        <ele>2046.6</ele>
        <time>2024-08-11T10:21:35Z</time>
      </trkpt>
      <trkpt lat="44.95294" lon="6.49623">
        <ele>2047</ele>
        <time>2024-08-11T10:21:36Z</time>
      </trkpt>
      <trkpt lat="44.95294" lon="6.49623">
        <ele>2047</ele>
        <time>2024-08-11T10:21:37Z</time>
      </trkpt>
      <trkpt lat="44.95292" lon="6.49623">
        <ele>2047</ele>
        <time>2024-08-11T10:21:38Z</time>
      </trkpt>
      <trkpt lat="44.95292" lon="6.49623">
        <ele>2046.8</ele>
        <time>2024-08-11T10:21:39Z</time>
      </trkpt>
      <trkpt lat="44.95289" lon="6.49623">
        <ele>2046.8</ele>
        <time>2024-08-11T10:21:40Z</time>
      </trkpt>
      <trkpt lat="44.95289" lon="6.49623">
        <ele>2046.8</ele>
        <time>2024-08-11T10:21:41Z</time>
      </trkpt>
      <trkpt lat="44.95287" lon="6.49624">
        <ele>2046.8</ele>
        <time>2024-08-11T10:21:42Z</time>
      </trkpt>
      <trkpt lat="44.95287" lon="6.49624">
        <ele>2047</ele>
        <time>2024-08-11T10:21:43Z</time>
      </trkpt>
      <trkpt lat="44.95285" lon="6.49625">
        <ele>2047.4</ele>
        <time>2024-08-11T10:21:44Z</time>
      </trkpt>
      <trkpt lat="44.95285" lon="6.49625">
        <ele>2047.6</ele>
        <time>2024-08-11T10:21:45Z</time>
      </trkpt>
      <trkpt lat="44.95285" lon="6.49625">
        <ele>2048</ele>
        <time>2024-08-11T10:21:46Z</time>
      </trkpt>
      <trkpt lat="44.95283" lon="6.49626">
        <ele>2048.2</ele>
        <time>2024-08-11T10:21:47Z</time>
      </trkpt>
      <trkpt lat="44.95283" lon="6.49626">
        <ele>2048.2</ele>
        <time>2024-08-11T10:21:48Z</time>
      </trkpt>
      <trkpt lat="44.95283" lon="6.49626">
        <ele>2048.4</ele>
        <time>2024-08-11T10:21:49Z</time>
      </trkpt>
      <trkpt lat="44.9528" lon="6.49626">
        <ele>2048.4</ele>
        <time>2024-08-11T10:21:50Z</time>
      </trkpt>
      <trkpt lat="44.9528" lon="6.49626">
        <ele>2048.6</ele>
        <time>2024-08-11T10:21:51Z</time>
      </trkpt>
      <trkpt lat="44.95278" lon="6.49626">
        <ele>2048.8</ele>
        <time>2024-08-11T10:21:52Z</time>
      </trkpt>
      <trkpt lat="44.95278" lon="6.49626">
        <ele>2049</ele>
        <time>2024-08-11T10:21:53Z</time>
      </trkpt>
      <trkpt lat="44.95278" lon="6.49626">
        <ele>2049.4</ele>
        <time>2024-08-11T10:21:54Z</time>
      </trkpt>
      <trkpt lat="44.95276" lon="6.49627">
        <ele>2049.8</ele>
        <time>2024-08-11T10:21:55Z</time>
      </trkpt>
      <trkpt lat="44.95276" lon="6.49627">
        <ele>2049.8</ele>
        <time>2024-08-11T10:21:56Z</time>
      </trkpt>
      <trkpt lat="44.95276" lon="6.49627">
        <ele>2050</ele>
        <time>2024-08-11T10:21:57Z</time>
      </trkpt>
      <trkpt lat="44.95274" lon="6.49629">
        <ele>2050.2</ele>
        <time>2024-08-11T10:21:58Z</time>
      </trkpt>
      <trkpt lat="44.95274" lon="6.49629">
        <ele>2050.6</ele>
        <time>2024-08-11T10:21:59Z</time>
      </trkpt>
      <trkpt lat="44.95274" lon="6.49629">
        <ele>2051</ele>
        <time>2024-08-11T10:22:00Z</time>
      </trkpt>
      <trkpt lat="44.95274" lon="6.49629">
        <ele>2051.2</ele>
        <time>2024-08-11T10:22:01Z</time>
      </trkpt>
      <trkpt lat="44.95274" lon="6.49632">
        <ele>2051.4</ele>
        <time>2024-08-11T10:22:02Z</time>
      </trkpt>
      <trkpt lat="44.95274" lon="6.49632">
        <ele>2051.4</ele>
        <time>2024-08-11T10:22:03Z</time>
      </trkpt>
      <trkpt lat="44.95274" lon="6.49632">
        <ele>2051.4</ele>
        <time>2024-08-11T10:22:04Z</time>
      </trkpt>
      <trkpt lat="44.95274" lon="6.49632">
        <ele>2051.8</ele>
        <time>2024-08-11T10:22:05Z</time>
      </trkpt>
      <trkpt lat="44.95272" lon="6.49634">
        <ele>2052.4</ele>
        <time>2024-08-11T10:22:06Z</time>
      </trkpt>
      <trkpt lat="44.95272" lon="6.49634">
        <ele>2052.4</ele>
        <time>2024-08-11T10:22:07Z</time>
      </trkpt>
      <trkpt lat="44.95272" lon="6.49634">
        <ele>2052.4</ele>
        <time>2024-08-11T10:22:08Z</time>
      </trkpt>
      <trkpt lat="44.9527" lon="6.49636">
        <ele>2052.2</ele>
        <time>2024-08-11T10:22:09Z</time>
      </trkpt>
      <trkpt lat="44.9527" lon="6.49636">
        <ele>2052.2</ele>
        <time>2024-08-11T10:22:10Z</time>
      </trkpt>
      <trkpt lat="44.9527" lon="6.49636">
        <ele>2052.6</ele>
        <time>2024-08-11T10:22:11Z</time>
      </trkpt>
      <trkpt lat="44.95268" lon="6.49638">
        <ele>2053</ele>
        <time>2024-08-11T10:22:12Z</time>
      </trkpt>
      <trkpt lat="44.95268" lon="6.49638">
        <ele>2053</ele>
        <time>2024-08-11T10:22:13Z</time>
      </trkpt>
      <trkpt lat="44.95266" lon="6.49638">
        <ele>2053.2</ele>
        <time>2024-08-11T10:22:14Z</time>
      </trkpt>
      <trkpt lat="44.95266" lon="6.49638">
        <ele>2053.4</ele>
        <time>2024-08-11T10:22:15Z</time>
      </trkpt>
      <trkpt lat="44.95264" lon="6.4964">
        <ele>2053.6</ele>
        <time>2024-08-11T10:22:16Z</time>
      </trkpt>
      <trkpt lat="44.95264" lon="6.4964">
        <ele>2053.8</ele>
        <time>2024-08-11T10:22:17Z</time>
      </trkpt>
      <trkpt lat="44.95262" lon="6.49641">
        <ele>2053.8</ele>
        <time>2024-08-11T10:22:18Z</time>
      </trkpt>
      <trkpt lat="44.95262" lon="6.49641">
        <ele>2053.8</ele>
        <time>2024-08-11T10:22:19Z</time>
      </trkpt>
      <trkpt lat="44.95261" lon="6.49642">
        <ele>2053.8</ele>
        <time>2024-08-11T10:22:20Z</time>
      </trkpt>
      <trkpt lat="44.95261" lon="6.49642">
        <ele>2054.4</ele>
        <time>2024-08-11T10:22:21Z</time>
      </trkpt>
      <trkpt lat="44.95259" lon="6.49644">
        <ele>2054.4</ele>
        <time>2024-08-11T10:22:22Z</time>
      </trkpt>
      <trkpt lat="44.95259" lon="6.49644">
        <ele>2054.6</ele>
        <time>2024-08-11T10:22:23Z</time>
      </trkpt>
      <trkpt lat="44.95257" lon="6.49646">
        <ele>2054.6</ele>
        <time>2024-08-11T10:22:24Z</time>
      </trkpt>
      <trkpt lat="44.95257" lon="6.49646">
        <ele>2055</ele>
        <time>2024-08-11T10:22:25Z</time>
      </trkpt>
      <trkpt lat="44.95254" lon="6.49646">
        <ele>2055.2</ele>
        <time>2024-08-11T10:22:26Z</time>
      </trkpt>
      <trkpt lat="44.95254" lon="6.49646">
        <ele>2055.4</ele>
        <time>2024-08-11T10:22:27Z</time>
      </trkpt>
      <trkpt lat="44.95253" lon="6.49646">
        <ele>2055.4</ele>
        <time>2024-08-11T10:22:28Z</time>
      </trkpt>
      <trkpt lat="44.95253" lon="6.49646">
        <ele>2055.4</ele>
        <time>2024-08-11T10:22:29Z</time>
      </trkpt>
      <trkpt lat="44.95251" lon="6.49646">
        <ele>2055.6</ele>
        <time>2024-08-11T10:22:30Z</time>
      </trkpt>
      <trkpt lat="44.95251" lon="6.49646">
        <ele>2055.6</ele>
        <time>2024-08-11T10:22:31Z</time>
      </trkpt>
      <trkpt lat="44.95251" lon="6.49646">
        <ele>2056</ele>
        <time>2024-08-11T10:22:32Z</time>
      </trkpt>
      <trkpt lat="44.95248" lon="6.49647">
        <ele>2056</ele>
        <time>2024-08-11T10:22:33Z</time>
      </trkpt>
      <trkpt lat="44.95248" lon="6.49647">
        <ele>2056.2</ele>
        <time>2024-08-11T10:22:34Z</time>
      </trkpt>
      <trkpt lat="44.95246" lon="6.49649">
        <ele>2056.2</ele>
        <time>2024-08-11T10:22:35Z</time>
      </trkpt>
      <trkpt lat="44.95246" lon="6.49649">
        <ele>2056.6</ele>
        <time>2024-08-11T10:22:36Z</time>
      </trkpt>
      <trkpt lat="44.95246" lon="6.49649">
        <ele>2056.6</ele>
        <time>2024-08-11T10:22:37Z</time>
      </trkpt>
      <trkpt lat="44.95245" lon="6.49649">
        <ele>2056.8</ele>
        <time>2024-08-11T10:22:38Z</time>
      </trkpt>
      <trkpt lat="44.95245" lon="6.49649">
        <ele>2056.8</ele>
        <time>2024-08-11T10:22:39Z</time>
      </trkpt>
      <trkpt lat="44.95245" lon="6.49649">
        <ele>2057</ele>
        <time>2024-08-11T10:22:40Z</time>
      </trkpt>
      <trkpt lat="44.95242" lon="6.49648">
        <ele>2057</ele>
        <time>2024-08-11T10:22:41Z</time>
      </trkpt>
      <trkpt lat="44.95242" lon="6.49648">
        <ele>2057</ele>
        <time>2024-08-11T10:22:42Z</time>
      </trkpt>
      <trkpt lat="44.9524" lon="6.49649">
        <ele>2057</ele>
        <time>2024-08-11T10:22:43Z</time>
      </trkpt>
      <trkpt lat="44.9524" lon="6.49649">
        <ele>2057.2</ele>
        <time>2024-08-11T10:22:44Z</time>
      </trkpt>
      <trkpt lat="44.95237" lon="6.49649">
        <ele>2057.6</ele>
        <time>2024-08-11T10:22:45Z</time>
      </trkpt>
      <trkpt lat="44.95237" lon="6.49649">
        <ele>2057.8</ele>
        <time>2024-08-11T10:22:46Z</time>
      </trkpt>
      <trkpt lat="44.95235" lon="6.49649">
        <ele>2057.8</ele>
        <time>2024-08-11T10:22:47Z</time>
      </trkpt>
      <trkpt lat="44.95235" lon="6.49649">
        <ele>2057.8</ele>
        <time>2024-08-11T10:22:48Z</time>
      </trkpt>
      <trkpt lat="44.95232" lon="6.4965">
        <ele>2057.8</ele>
        <time>2024-08-11T10:22:49Z</time>
      </trkpt>
      <trkpt lat="44.95232" lon="6.4965">
        <ele>2058</ele>
        <time>2024-08-11T10:22:50Z</time>
      </trkpt>
      <trkpt lat="44.9523" lon="6.49651">
        <ele>2058.2</ele>
        <time>2024-08-11T10:22:51Z</time>
      </trkpt>
      <trkpt lat="44.9523" lon="6.49651">
        <ele>2058.2</ele>
        <time>2024-08-11T10:22:52Z</time>
      </trkpt>
      <trkpt lat="44.95228" lon="6.49652">
        <ele>2058.4</ele>
        <time>2024-08-11T10:22:53Z</time>
      </trkpt>
      <trkpt lat="44.95228" lon="6.49652">
        <ele>2058.4</ele>
        <time>2024-08-11T10:22:54Z</time>
      </trkpt>
      <trkpt lat="44.95228" lon="6.49652">
        <ele>2058.2</ele>
        <time>2024-08-11T10:22:55Z</time>
      </trkpt>
      <trkpt lat="44.95226" lon="6.49653">
        <ele>2058.2</ele>
        <time>2024-08-11T10:22:56Z</time>
      </trkpt>
      <trkpt lat="44.95226" lon="6.49653">
        <ele>2058.4</ele>
        <time>2024-08-11T10:22:57Z</time>
      </trkpt>
      <trkpt lat="44.95223" lon="6.49654">
        <ele>2058.4</ele>
        <time>2024-08-11T10:22:58Z</time>
      </trkpt>
      <trkpt lat="44.95223" lon="6.49654">
        <ele>2058.2</ele>
        <time>2024-08-11T10:22:59Z</time>
      </trkpt>
      <trkpt lat="44.95221" lon="6.49655">
        <ele>2058.2</ele>
        <time>2024-08-11T10:23:00Z</time>
      </trkpt>
      <trkpt lat="44.95221" lon="6.49655">
        <ele>2058.4</ele>
        <time>2024-08-11T10:23:01Z</time>
      </trkpt>
      <trkpt lat="44.95219" lon="6.49656">
        <ele>2058.6</ele>
        <time>2024-08-11T10:23:02Z</time>
      </trkpt>
      <trkpt lat="44.95219" lon="6.49656">
        <ele>2058.6</ele>
        <time>2024-08-11T10:23:03Z</time>
      </trkpt>
      <trkpt lat="44.95217" lon="6.49656">
        <ele>2058.8</ele>
        <time>2024-08-11T10:23:04Z</time>
      </trkpt>
      <trkpt lat="44.95217" lon="6.49656">
        <ele>2059</ele>
        <time>2024-08-11T10:23:05Z</time>
      </trkpt>
      <trkpt lat="44.95217" lon="6.49656">
        <ele>2059.2</ele>
        <time>2024-08-11T10:23:06Z</time>
      </trkpt>
      <trkpt lat="44.95214" lon="6.49657">
        <ele>2059.4</ele>
        <time>2024-08-11T10:23:07Z</time>
      </trkpt>
      <trkpt lat="44.95214" lon="6.49657">
        <ele>2059.4</ele>
        <time>2024-08-11T10:23:08Z</time>
      </trkpt>
      <trkpt lat="44.95212" lon="6.49658">
        <ele>2059.4</ele>
        <time>2024-08-11T10:23:09Z</time>
      </trkpt>
      <trkpt lat="44.95212" lon="6.49658">
        <ele>2059.6</ele>
        <time>2024-08-11T10:23:10Z</time>
      </trkpt>
      <trkpt lat="44.95212" lon="6.49658">
        <ele>2059.6</ele>
        <time>2024-08-11T10:23:11Z</time>
      </trkpt>
      <trkpt lat="44.9521" lon="6.49658">
        <ele>2059.8</ele>
        <time>2024-08-11T10:23:12Z</time>
      </trkpt>
      <trkpt lat="44.9521" lon="6.49658">
        <ele>2060</ele>
        <time>2024-08-11T10:23:13Z</time>
      </trkpt>
      <trkpt lat="44.95208" lon="6.49658">
        <ele>2060.2</ele>
        <time>2024-08-11T10:23:14Z</time>
      </trkpt>
      <trkpt lat="44.95208" lon="6.49658">
        <ele>2060.2</ele>
        <time>2024-08-11T10:23:15Z</time>
      </trkpt>
      <trkpt lat="44.95206" lon="6.49658">
        <ele>2060.4</ele>
        <time>2024-08-11T10:23:16Z</time>
      </trkpt>
      <trkpt lat="44.95206" lon="6.49658">
        <ele>2060.6</ele>
        <time>2024-08-11T10:23:17Z</time>
      </trkpt>
      <trkpt lat="44.95204" lon="6.4966">
        <ele>2061.4</ele>
        <time>2024-08-11T10:23:18Z</time>
      </trkpt>
      <trkpt lat="44.95204" lon="6.4966">
        <ele>2061.8</ele>
        <time>2024-08-11T10:23:19Z</time>
      </trkpt>
      <trkpt lat="44.95202" lon="6.49662">
        <ele>2061.8</ele>
        <time>2024-08-11T10:23:20Z</time>
      </trkpt>
      <trkpt lat="44.95202" lon="6.49662">
        <ele>2061.8</ele>
        <time>2024-08-11T10:23:21Z</time>
      </trkpt>
      <trkpt lat="44.952" lon="6.49662">
        <ele>2061.8</ele>
        <time>2024-08-11T10:23:22Z</time>
      </trkpt>
      <trkpt lat="44.952" lon="6.49662">
        <ele>2062</ele>
        <time>2024-08-11T10:23:23Z</time>
      </trkpt>
      <trkpt lat="44.95198" lon="6.49662">
        <ele>2062.2</ele>
        <time>2024-08-11T10:23:24Z</time>
      </trkpt>
      <trkpt lat="44.95198" lon="6.49662">
        <ele>2062.4</ele>
        <time>2024-08-11T10:23:25Z</time>
      </trkpt>
      <trkpt lat="44.95197" lon="6.49664">
        <ele>2062.6</ele>
        <time>2024-08-11T10:23:26Z</time>
      </trkpt>
      <trkpt lat="44.95197" lon="6.49664">
        <ele>2062.6</ele>
        <time>2024-08-11T10:23:27Z</time>
      </trkpt>
      <trkpt lat="44.95197" lon="6.49664">
        <ele>2062.6</ele>
        <time>2024-08-11T10:23:28Z</time>
      </trkpt>
      <trkpt lat="44.95195" lon="6.49665">
        <ele>2062.6</ele>
        <time>2024-08-11T10:23:29Z</time>
      </trkpt>
      <trkpt lat="44.95195" lon="6.49665">
        <ele>2062.8</ele>
        <time>2024-08-11T10:23:30Z</time>
      </trkpt>
      <trkpt lat="44.95192" lon="6.49666">
        <ele>2062.8</ele>
        <time>2024-08-11T10:23:31Z</time>
      </trkpt>
      <trkpt lat="44.95192" lon="6.49666">
        <ele>2063</ele>
        <time>2024-08-11T10:23:32Z</time>
      </trkpt>
      <trkpt lat="44.9519" lon="6.49666">
        <ele>2063.4</ele>
        <time>2024-08-11T10:23:33Z</time>
      </trkpt>
      <trkpt lat="44.9519" lon="6.49666">
        <ele>2063.6</ele>
        <time>2024-08-11T10:23:34Z</time>
      </trkpt>
      <trkpt lat="44.95188" lon="6.49666">
        <ele>2063.6</ele>
        <time>2024-08-11T10:23:35Z</time>
      </trkpt>
      <trkpt lat="44.95188" lon="6.49666">
        <ele>2063.6</ele>
        <time>2024-08-11T10:23:36Z</time>
      </trkpt>
      <trkpt lat="44.95186" lon="6.49667">
        <ele>2063.8</ele>
        <time>2024-08-11T10:23:37Z</time>
      </trkpt>
      <trkpt lat="44.95186" lon="6.49667">
        <ele>2063.8</ele>
        <time>2024-08-11T10:23:38Z</time>
      </trkpt>
      <trkpt lat="44.95184" lon="6.49668">
        <ele>2064.2</ele>
        <time>2024-08-11T10:23:39Z</time>
      </trkpt>
      <trkpt lat="44.95184" lon="6.49668">
        <ele>2064.4</ele>
        <time>2024-08-11T10:23:40Z</time>
      </trkpt>
      <trkpt lat="44.95184" lon="6.49668">
        <ele>2064.4</ele>
        <time>2024-08-11T10:23:41Z</time>
      </trkpt>
      <trkpt lat="44.95182" lon="6.49668">
        <ele>2064.4</ele>
        <time>2024-08-11T10:23:42Z</time>
      </trkpt>
      <trkpt lat="44.95182" lon="6.49668">
        <ele>2064.8</ele>
        <time>2024-08-11T10:23:43Z</time>
      </trkpt>
      <trkpt lat="44.95181" lon="6.49669">
        <ele>2065.4</ele>
        <time>2024-08-11T10:23:44Z</time>
      </trkpt>
      <trkpt lat="44.95181" lon="6.49669">
        <ele>2065.6</ele>
        <time>2024-08-11T10:23:45Z</time>
      </trkpt>
      <trkpt lat="44.95181" lon="6.49669">
        <ele>2065.6</ele>
        <time>2024-08-11T10:23:46Z</time>
      </trkpt>
      <trkpt lat="44.95178" lon="6.49671">
        <ele>2065.4</ele>
        <time>2024-08-11T10:23:47Z</time>
      </trkpt>
      <trkpt lat="44.95178" lon="6.49671">
        <ele>2065.6</ele>
        <time>2024-08-11T10:23:48Z</time>
      </trkpt>
      <trkpt lat="44.95176" lon="6.4967">
        <ele>2065.8</ele>
        <time>2024-08-11T10:23:49Z</time>
      </trkpt>
      <trkpt lat="44.95176" lon="6.4967">
        <ele>2065.8</ele>
        <time>2024-08-11T10:23:50Z</time>
      </trkpt>
      <trkpt lat="44.95176" lon="6.4967">
        <ele>2065.8</ele>
        <time>2024-08-11T10:23:51Z</time>
      </trkpt>
      <trkpt lat="44.95175" lon="6.49672">
        <ele>2066</ele>
        <time>2024-08-11T10:23:52Z</time>
      </trkpt>
      <trkpt lat="44.95175" lon="6.49672">
        <ele>2066.2</ele>
        <time>2024-08-11T10:23:53Z</time>
      </trkpt>
      <trkpt lat="44.95175" lon="6.49672">
        <ele>2066.4</ele>
        <time>2024-08-11T10:23:54Z</time>
      </trkpt>
      <trkpt lat="44.95173" lon="6.49673">
        <ele>2066.6</ele>
        <time>2024-08-11T10:23:55Z</time>
      </trkpt>
      <trkpt lat="44.95173" lon="6.49673">
        <ele>2066.6</ele>
        <time>2024-08-11T10:23:56Z</time>
      </trkpt>
      <trkpt lat="44.95172" lon="6.49676">
        <ele>2066.8</ele>
        <time>2024-08-11T10:23:57Z</time>
      </trkpt>
      <trkpt lat="44.95172" lon="6.49676">
        <ele>2067</ele>
        <time>2024-08-11T10:23:58Z</time>
      </trkpt>
      <trkpt lat="44.9517" lon="6.49676">
        <ele>2067</ele>
        <time>2024-08-11T10:23:59Z</time>
      </trkpt>
      <trkpt lat="44.9517" lon="6.49676">
        <ele>2067.2</ele>
        <time>2024-08-11T10:24:00Z</time>
      </trkpt>
      <trkpt lat="44.9517" lon="6.49676">
        <ele>2067.2</ele>
        <time>2024-08-11T10:24:01Z</time>
      </trkpt>
      <trkpt lat="44.95168" lon="6.49676">
        <ele>2067.6</ele>
        <time>2024-08-11T10:24:02Z</time>
      </trkpt>
      <trkpt lat="44.95168" lon="6.49676">
        <ele>2067.6</ele>
        <time>2024-08-11T10:24:03Z</time>
      </trkpt>
      <trkpt lat="44.95168" lon="6.49676">
        <ele>2067.6</ele>
        <time>2024-08-11T10:24:04Z</time>
      </trkpt>
      <trkpt lat="44.95166" lon="6.49677">
        <ele>2067.8</ele>
        <time>2024-08-11T10:24:05Z</time>
      </trkpt>
      <trkpt lat="44.95166" lon="6.49677">
        <ele>2068</ele>
        <time>2024-08-11T10:24:06Z</time>
      </trkpt>
      <trkpt lat="44.95166" lon="6.49677">
        <ele>2068</ele>
        <time>2024-08-11T10:24:07Z</time>
      </trkpt>
      <trkpt lat="44.95164" lon="6.49678">
        <ele>2068</ele>
        <time>2024-08-11T10:24:08Z</time>
      </trkpt>
      <trkpt lat="44.95164" lon="6.49678">
        <ele>2068</ele>
        <time>2024-08-11T10:24:09Z</time>
      </trkpt>
      <trkpt lat="44.95162" lon="6.49679">
        <ele>2068.2</ele>
        <time>2024-08-11T10:24:10Z</time>
      </trkpt>
      <trkpt lat="44.95162" lon="6.49679">
        <ele>2068.4</ele>
        <time>2024-08-11T10:24:11Z</time>
      </trkpt>
      <trkpt lat="44.9516" lon="6.4968">
        <ele>2068.6</ele>
        <time>2024-08-11T10:24:12Z</time>
      </trkpt>
      <trkpt lat="44.9516" lon="6.4968">
        <ele>2068.8</ele>
        <time>2024-08-11T10:24:13Z</time>
      </trkpt>
      <trkpt lat="44.9516" lon="6.4968">
        <ele>2069</ele>
        <time>2024-08-11T10:24:14Z</time>
      </trkpt>
      <trkpt lat="44.95157" lon="6.4968">
        <ele>2069.2</ele>
        <time>2024-08-11T10:24:15Z</time>
      </trkpt>
      <trkpt lat="44.95157" lon="6.4968">
        <ele>2069.2</ele>
        <time>2024-08-11T10:24:16Z</time>
      </trkpt>
      <trkpt lat="44.95155" lon="6.4968">
        <ele>2069.4</ele>
        <time>2024-08-11T10:24:17Z</time>
      </trkpt>
      <trkpt lat="44.95155" lon="6.4968">
        <ele>2069.4</ele>
        <time>2024-08-11T10:24:18Z</time>
      </trkpt>
      <trkpt lat="44.95155" lon="6.4968">
        <ele>2069.6</ele>
        <time>2024-08-11T10:24:19Z</time>
      </trkpt>
      <trkpt lat="44.95153" lon="6.49681">
        <ele>2069.6</ele>
        <time>2024-08-11T10:24:20Z</time>
      </trkpt>
      <trkpt lat="44.95153" lon="6.49681">
        <ele>2069.6</ele>
        <time>2024-08-11T10:24:21Z</time>
      </trkpt>
      <trkpt lat="44.95151" lon="6.49683">
        <ele>2069.6</ele>
        <time>2024-08-11T10:24:22Z</time>
      </trkpt>
      <trkpt lat="44.95151" lon="6.49683">
        <ele>2069.6</ele>
        <time>2024-08-11T10:24:23Z</time>
      </trkpt>
      <trkpt lat="44.9515" lon="6.49685">
        <ele>2070</ele>
        <time>2024-08-11T10:24:24Z</time>
      </trkpt>
      <trkpt lat="44.9515" lon="6.49685">
        <ele>2070.2</ele>
        <time>2024-08-11T10:24:25Z</time>
      </trkpt>
      <trkpt lat="44.95148" lon="6.49687">
        <ele>2070.2</ele>
        <time>2024-08-11T10:24:26Z</time>
      </trkpt>
      <trkpt lat="44.95148" lon="6.49687">
        <ele>2070.6</ele>
        <time>2024-08-11T10:24:27Z</time>
      </trkpt>
      <trkpt lat="44.95147" lon="6.49689">
        <ele>2070.8</ele>
        <time>2024-08-11T10:24:28Z</time>
      </trkpt>
      <trkpt lat="44.95147" lon="6.49689">
        <ele>2071</ele>
        <time>2024-08-11T10:24:29Z</time>
      </trkpt>
      <trkpt lat="44.95145" lon="6.49689">
        <ele>2071</ele>
        <time>2024-08-11T10:24:30Z</time>
      </trkpt>
      <trkpt lat="44.95145" lon="6.49689">
        <ele>2071</ele>
        <time>2024-08-11T10:24:31Z</time>
      </trkpt>
      <trkpt lat="44.95145" lon="6.49689">
        <ele>2071.4</ele>
        <time>2024-08-11T10:24:32Z</time>
      </trkpt>
      <trkpt lat="44.95142" lon="6.49691">
        <ele>2071.8</ele>
        <time>2024-08-11T10:24:33Z</time>
      </trkpt>
      <trkpt lat="44.95142" lon="6.49691">
        <ele>2071.8</ele>
        <time>2024-08-11T10:24:34Z</time>
      </trkpt>
      <trkpt lat="44.95142" lon="6.49691">
        <ele>2071.8</ele>
        <time>2024-08-11T10:24:35Z</time>
      </trkpt>
      <trkpt lat="44.95142" lon="6.49691">
        <ele>2072.2</ele>
        <time>2024-08-11T10:24:36Z</time>
      </trkpt>
      <trkpt lat="44.95142" lon="6.49691">
        <ele>2072.2</ele>
        <time>2024-08-11T10:24:37Z</time>
      </trkpt>
      <trkpt lat="44.95142" lon="6.49691">
        <ele>2072.6</ele>
        <time>2024-08-11T10:24:38Z</time>
      </trkpt>
      <trkpt lat="44.95142" lon="6.49691">
        <ele>2073</ele>
        <time>2024-08-11T10:24:39Z</time>
      </trkpt>
      <trkpt lat="44.95142" lon="6.49691">
        <ele>2073.4</ele>
        <time>2024-08-11T10:24:40Z</time>
      </trkpt>
      <trkpt lat="44.95142" lon="6.49691">
        <ele>2073.4</ele>
        <time>2024-08-11T10:24:41Z</time>
      </trkpt>
      <trkpt lat="44.95142" lon="6.49691">
        <ele>2073.2</ele>
        <time>2024-08-11T10:24:42Z</time>
      </trkpt>
      <trkpt lat="44.95142" lon="6.49691">
        <ele>2073</ele>
        <time>2024-08-11T10:24:43Z</time>
      </trkpt>
      <trkpt lat="44.95142" lon="6.49691">
        <ele>2073</ele>
        <time>2024-08-11T10:24:44Z</time>
      </trkpt>
      <trkpt lat="44.95142" lon="6.49691">
        <ele>2072.8</ele>
        <time>2024-08-11T10:24:45Z</time>
      </trkpt>
      <trkpt lat="44.95142" lon="6.49691">
        <ele>2072.8</ele>
        <time>2024-08-11T10:24:46Z</time>
      </trkpt>
      <trkpt lat="44.95142" lon="6.49691">
        <ele>2072.8</ele>
        <time>2024-08-11T10:24:47Z</time>
      </trkpt>
      <trkpt lat="44.95142" lon="6.49691">
        <ele>2072.6</ele>
        <time>2024-08-11T10:24:48Z</time>
      </trkpt>
      <trkpt lat="44.95142" lon="6.49691">
        <ele>2072.4</ele>
        <time>2024-08-11T10:24:49Z</time>
      </trkpt>
      <trkpt lat="44.95142" lon="6.49691">
        <ele>2072.4</ele>
        <time>2024-08-11T10:24:50Z</time>
      </trkpt>
      <trkpt lat="44.95141" lon="6.49692">
        <ele>2072.4</ele>
        <time>2024-08-11T10:24:51Z</time>
      </trkpt>
      <trkpt lat="44.95141" lon="6.49692">
        <ele>2072.4</ele>
        <time>2024-08-11T10:24:52Z</time>
      </trkpt>
      <trkpt lat="44.95139" lon="6.49692">
        <ele>2072.8</ele>
        <time>2024-08-11T10:24:53Z</time>
      </trkpt>
      <trkpt lat="44.95139" lon="6.49692">
        <ele>2073.6</ele>
        <time>2024-08-11T10:24:54Z</time>
      </trkpt>
      <trkpt lat="44.95136" lon="6.49694">
        <ele>2073.6</ele>
        <time>2024-08-11T10:24:55Z</time>
      </trkpt>
      <trkpt lat="44.95136" lon="6.49694">
        <ele>2073.6</ele>
        <time>2024-08-11T10:24:56Z</time>
      </trkpt>
      <trkpt lat="44.95134" lon="6.49696">
        <ele>2073.6</ele>
        <time>2024-08-11T10:24:57Z</time>
      </trkpt>
      <trkpt lat="44.95134" lon="6.49696">
        <ele>2073.6</ele>
        <time>2024-08-11T10:24:58Z</time>
      </trkpt>
      <trkpt lat="44.95133" lon="6.49699">
        <ele>2074</ele>
        <time>2024-08-11T10:24:59Z</time>
      </trkpt>
      <trkpt lat="44.95133" lon="6.49699">
        <ele>2074.2</ele>
        <time>2024-08-11T10:25:00Z</time>
      </trkpt>
      <trkpt lat="44.95133" lon="6.49699">
        <ele>2074.4</ele>
        <time>2024-08-11T10:25:01Z</time>
      </trkpt>
      <trkpt lat="44.95131" lon="6.49702">
        <ele>2074.4</ele>
        <time>2024-08-11T10:25:02Z</time>
      </trkpt>
      <trkpt lat="44.95131" lon="6.49702">
        <ele>2074.4</ele>
        <time>2024-08-11T10:25:03Z</time>
      </trkpt>
      <trkpt lat="44.95131" lon="6.49702">
        <ele>2074.4</ele>
        <time>2024-08-11T10:25:04Z</time>
      </trkpt>
      <trkpt lat="44.95131" lon="6.49702">
        <ele>2074.8</ele>
        <time>2024-08-11T10:25:05Z</time>
      </trkpt>
      <trkpt lat="44.95129" lon="6.49704">
        <ele>2075</ele>
        <time>2024-08-11T10:25:06Z</time>
      </trkpt>
      <trkpt lat="44.95129" lon="6.49704">
        <ele>2075.2</ele>
        <time>2024-08-11T10:25:07Z</time>
      </trkpt>
      <trkpt lat="44.95129" lon="6.49704">
        <ele>2075.2</ele>
        <time>2024-08-11T10:25:08Z</time>
      </trkpt>
      <trkpt lat="44.95128" lon="6.49707">
        <ele>2075.4</ele>
        <time>2024-08-11T10:25:09Z</time>
      </trkpt>
      <trkpt lat="44.95128" lon="6.49707">
        <ele>2075.4</ele>
        <time>2024-08-11T10:25:10Z</time>
      </trkpt>
      <trkpt lat="44.95128" lon="6.49707">
        <ele>2075.4</ele>
        <time>2024-08-11T10:25:11Z</time>
      </trkpt>
      <trkpt lat="44.95125" lon="6.49708">
        <ele>2075.8</ele>
        <time>2024-08-11T10:25:12Z</time>
      </trkpt>
      <trkpt lat="44.95125" lon="6.49708">
        <ele>2075.8</ele>
        <time>2024-08-11T10:25:13Z</time>
      </trkpt>
      <trkpt lat="44.95124" lon="6.4971">
        <ele>2075.6</ele>
        <time>2024-08-11T10:25:14Z</time>
      </trkpt>
      <trkpt lat="44.95124" lon="6.4971">
        <ele>2075.6</ele>
        <time>2024-08-11T10:25:15Z</time>
      </trkpt>
      <trkpt lat="44.95122" lon="6.49713">
        <ele>2075.6</ele>
        <time>2024-08-11T10:25:16Z</time>
      </trkpt>
      <trkpt lat="44.95122" lon="6.49713">
        <ele>2075.6</ele>
        <time>2024-08-11T10:25:17Z</time>
      </trkpt>
      <trkpt lat="44.95122" lon="6.49713">
        <ele>2075.6</ele>
        <time>2024-08-11T10:25:18Z</time>
      </trkpt>
      <trkpt lat="44.95121" lon="6.49715">
        <ele>2075.6</ele>
        <time>2024-08-11T10:25:19Z</time>
      </trkpt>
      <trkpt lat="44.95121" lon="6.49715">
        <ele>2075.8</ele>
        <time>2024-08-11T10:25:20Z</time>
      </trkpt>
      <trkpt lat="44.9512" lon="6.49717">
        <ele>2075.8</ele>
        <time>2024-08-11T10:25:21Z</time>
      </trkpt>
      <trkpt lat="44.9512" lon="6.49717">
        <ele>2076</ele>
        <time>2024-08-11T10:25:22Z</time>
      </trkpt>
      <trkpt lat="44.95119" lon="6.49719">
        <ele>2076.2</ele>
        <time>2024-08-11T10:25:23Z</time>
      </trkpt>
      <trkpt lat="44.95119" lon="6.49719">
        <ele>2076.6</ele>
        <time>2024-08-11T10:25:24Z</time>
      </trkpt>
      <trkpt lat="44.95117" lon="6.49721">
        <ele>2076.8</ele>
        <time>2024-08-11T10:25:25Z</time>
      </trkpt>
      <trkpt lat="44.95117" lon="6.49721">
        <ele>2076.8</ele>
        <time>2024-08-11T10:25:26Z</time>
      </trkpt>
      <trkpt lat="44.95116" lon="6.49722">
        <ele>2076.8</ele>
        <time>2024-08-11T10:25:27Z</time>
      </trkpt>
      <trkpt lat="44.95116" lon="6.49722">
        <ele>2077</ele>
        <time>2024-08-11T10:25:28Z</time>
      </trkpt>
      <trkpt lat="44.95116" lon="6.49722">
        <ele>2077.4</ele>
        <time>2024-08-11T10:25:29Z</time>
      </trkpt>
      <trkpt lat="44.95115" lon="6.49725">
        <ele>2077.4</ele>
        <time>2024-08-11T10:25:30Z</time>
      </trkpt>
      <trkpt lat="44.95115" lon="6.49725">
        <ele>2077.6</ele>
        <time>2024-08-11T10:25:31Z</time>
      </trkpt>
      <trkpt lat="44.95113" lon="6.49726">
        <ele>2077.6</ele>
        <time>2024-08-11T10:25:32Z</time>
      </trkpt>
      <trkpt lat="44.95113" lon="6.49726">
        <ele>2078</ele>
        <time>2024-08-11T10:25:33Z</time>
      </trkpt>
      <trkpt lat="44.95113" lon="6.49726">
        <ele>2078</ele>
        <time>2024-08-11T10:25:34Z</time>
      </trkpt>
      <trkpt lat="44.95111" lon="6.49728">
        <ele>2077.8</ele>
        <time>2024-08-11T10:25:35Z</time>
      </trkpt>
      <trkpt lat="44.95111" lon="6.49728">
        <ele>2077.8</ele>
        <time>2024-08-11T10:25:36Z</time>
      </trkpt>
      <trkpt lat="44.95111" lon="6.49728">
        <ele>2078.2</ele>
        <time>2024-08-11T10:25:37Z</time>
      </trkpt>
      <trkpt lat="44.95109" lon="6.4973">
        <ele>2078.4</ele>
        <time>2024-08-11T10:25:38Z</time>
      </trkpt>
      <trkpt lat="44.95109" lon="6.4973">
        <ele>2078.6</ele>
        <time>2024-08-11T10:25:39Z</time>
      </trkpt>
      <trkpt lat="44.95109" lon="6.4973">
        <ele>2078.6</ele>
        <time>2024-08-11T10:25:40Z</time>
      </trkpt>
      <trkpt lat="44.95107" lon="6.49731">
        <ele>2079</ele>
        <time>2024-08-11T10:25:41Z</time>
      </trkpt>
      <trkpt lat="44.95107" lon="6.49731">
        <ele>2079</ele>
        <time>2024-08-11T10:25:42Z</time>
      </trkpt>
      <trkpt lat="44.95107" lon="6.49731">
        <ele>2079</ele>
        <time>2024-08-11T10:25:43Z</time>
      </trkpt>
      <trkpt lat="44.95105" lon="6.49734">
        <ele>2079</ele>
        <time>2024-08-11T10:25:44Z</time>
      </trkpt>
      <trkpt lat="44.95105" lon="6.49734">
        <ele>2079.2</ele>
        <time>2024-08-11T10:25:45Z</time>
      </trkpt>
      <trkpt lat="44.95105" lon="6.49734">
        <ele>2079.2</ele>
        <time>2024-08-11T10:25:46Z</time>
      </trkpt>
      <trkpt lat="44.95103" lon="6.49735">
        <ele>2079.2</ele>
        <time>2024-08-11T10:25:47Z</time>
      </trkpt>
      <trkpt lat="44.95103" lon="6.49735">
        <ele>2079.6</ele>
        <time>2024-08-11T10:25:48Z</time>
      </trkpt>
      <trkpt lat="44.95101" lon="6.49737">
        <ele>2079.8</ele>
        <time>2024-08-11T10:25:49Z</time>
      </trkpt>
      <trkpt lat="44.95101" lon="6.49737">
        <ele>2079.8</ele>
        <time>2024-08-11T10:25:50Z</time>
      </trkpt>
      <trkpt lat="44.95099" lon="6.49738">
        <ele>2080</ele>
        <time>2024-08-11T10:25:51Z</time>
      </trkpt>
      <trkpt lat="44.95099" lon="6.49738">
        <ele>2080</ele>
        <time>2024-08-11T10:25:52Z</time>
      </trkpt>
      <trkpt lat="44.95099" lon="6.49738">
        <ele>2080.4</ele>
        <time>2024-08-11T10:25:53Z</time>
      </trkpt>
      <trkpt lat="44.95098" lon="6.4974">
        <ele>2080.4</ele>
        <time>2024-08-11T10:25:54Z</time>
      </trkpt>
      <trkpt lat="44.95098" lon="6.4974">
        <ele>2080.8</ele>
        <time>2024-08-11T10:25:55Z</time>
      </trkpt>
      <trkpt lat="44.95096" lon="6.49742">
        <ele>2080.8</ele>
        <time>2024-08-11T10:25:56Z</time>
      </trkpt>
      <trkpt lat="44.95096" lon="6.49742">
        <ele>2081</ele>
        <time>2024-08-11T10:25:57Z</time>
      </trkpt>
      <trkpt lat="44.95094" lon="6.49744">
        <ele>2081.2</ele>
        <time>2024-08-11T10:25:58Z</time>
      </trkpt>
      <trkpt lat="44.95094" lon="6.49744">
        <ele>2081.2</ele>
        <time>2024-08-11T10:25:59Z</time>
      </trkpt>
      <trkpt lat="44.95093" lon="6.49745">
        <ele>2081.2</ele>
        <time>2024-08-11T10:26:00Z</time>
      </trkpt>
      <trkpt lat="44.95093" lon="6.49745">
        <ele>2081.2</ele>
        <time>2024-08-11T10:26:01Z</time>
      </trkpt>
      <trkpt lat="44.95093" lon="6.49745">
        <ele>2081.2</ele>
        <time>2024-08-11T10:26:02Z</time>
      </trkpt>
      <trkpt lat="44.9509" lon="6.49746">
        <ele>2081.2</ele>
        <time>2024-08-11T10:26:03Z</time>
      </trkpt>
      <trkpt lat="44.9509" lon="6.49746">
        <ele>2081.6</ele>
        <time>2024-08-11T10:26:04Z</time>
      </trkpt>
      <trkpt lat="44.95089" lon="6.49747">
        <ele>2081.6</ele>
        <time>2024-08-11T10:26:05Z</time>
      </trkpt>
      <trkpt lat="44.95089" lon="6.49747">
        <ele>2081.6</ele>
        <time>2024-08-11T10:26:06Z</time>
      </trkpt>
      <trkpt lat="44.95089" lon="6.49747">
        <ele>2081.8</ele>
        <time>2024-08-11T10:26:07Z</time>
      </trkpt>
      <trkpt lat="44.95087" lon="6.49749">
        <ele>2082.2</ele>
        <time>2024-08-11T10:26:08Z</time>
      </trkpt>
      <trkpt lat="44.95087" lon="6.49749">
        <ele>2082.2</ele>
        <time>2024-08-11T10:26:09Z</time>
      </trkpt>
      <trkpt lat="44.95085" lon="6.4975">
        <ele>2082.4</ele>
        <time>2024-08-11T10:26:10Z</time>
      </trkpt>
      <trkpt lat="44.95085" lon="6.4975">
        <ele>2082.6</ele>
        <time>2024-08-11T10:26:11Z</time>
      </trkpt>
      <trkpt lat="44.95085" lon="6.4975">
        <ele>2082.6</ele>
        <time>2024-08-11T10:26:12Z</time>
      </trkpt>
      <trkpt lat="44.95083" lon="6.49751">
        <ele>2082.6</ele>
        <time>2024-08-11T10:26:13Z</time>
      </trkpt>
      <trkpt lat="44.95083" lon="6.49751">
        <ele>2082.6</ele>
        <time>2024-08-11T10:26:14Z</time>
      </trkpt>
      <trkpt lat="44.95083" lon="6.49751">
        <ele>2082.8</ele>
        <time>2024-08-11T10:26:15Z</time>
      </trkpt>
      <trkpt lat="44.9508" lon="6.49752">
        <ele>2082.8</ele>
        <time>2024-08-11T10:26:16Z</time>
      </trkpt>
      <trkpt lat="44.9508" lon="6.49752">
        <ele>2082.8</ele>
        <time>2024-08-11T10:26:17Z</time>
      </trkpt>
      <trkpt lat="44.9508" lon="6.49752">
        <ele>2082.8</ele>
        <time>2024-08-11T10:26:18Z</time>
      </trkpt>
      <trkpt lat="44.95078" lon="6.49753">
        <ele>2083.2</ele>
        <time>2024-08-11T10:26:19Z</time>
      </trkpt>
      <trkpt lat="44.95078" lon="6.49753">
        <ele>2083.2</ele>
        <time>2024-08-11T10:26:20Z</time>
      </trkpt>
      <trkpt lat="44.95077" lon="6.49755">
        <ele>2083.2</ele>
        <time>2024-08-11T10:26:21Z</time>
      </trkpt>
      <trkpt lat="44.95077" lon="6.49755">
        <ele>2083.2</ele>
        <time>2024-08-11T10:26:22Z</time>
      </trkpt>
      <trkpt lat="44.95075" lon="6.49756">
        <ele>2083.2</ele>
        <time>2024-08-11T10:26:23Z</time>
      </trkpt>
      <trkpt lat="44.95075" lon="6.49756">
        <ele>2083.4</ele>
        <time>2024-08-11T10:26:24Z</time>
      </trkpt>
      <trkpt lat="44.95072" lon="6.49756">
        <ele>2083.4</ele>
        <time>2024-08-11T10:26:25Z</time>
      </trkpt>
      <trkpt lat="44.95072" lon="6.49756">
        <ele>2083.4</ele>
        <time>2024-08-11T10:26:26Z</time>
      </trkpt>
      <trkpt lat="44.9507" lon="6.49756">
        <ele>2083.4</ele>
        <time>2024-08-11T10:26:27Z</time>
      </trkpt>
      <trkpt lat="44.9507" lon="6.49756">
        <ele>2083.6</ele>
        <time>2024-08-11T10:26:28Z</time>
      </trkpt>
      <trkpt lat="44.95069" lon="6.49756">
        <ele>2083.8</ele>
        <time>2024-08-11T10:26:29Z</time>
      </trkpt>
      <trkpt lat="44.95069" lon="6.49756">
        <ele>2084</ele>
        <time>2024-08-11T10:26:30Z</time>
      </trkpt>
      <trkpt lat="44.95069" lon="6.49756">
        <ele>2084</ele>
        <time>2024-08-11T10:26:31Z</time>
      </trkpt>
      <trkpt lat="44.95065" lon="6.49757">
        <ele>2084.2</ele>
        <time>2024-08-11T10:26:32Z</time>
      </trkpt>
      <trkpt lat="44.95065" lon="6.49757">
        <ele>2084.2</ele>
        <time>2024-08-11T10:26:33Z</time>
      </trkpt>
      <trkpt lat="44.95063" lon="6.49757">
        <ele>2084.2</ele>
        <time>2024-08-11T10:26:34Z</time>
      </trkpt>
      <trkpt lat="44.95063" lon="6.49757">
        <ele>2084.2</ele>
        <time>2024-08-11T10:26:35Z</time>
      </trkpt>
      <trkpt lat="44.95063" lon="6.49757">
        <ele>2084.4</ele>
        <time>2024-08-11T10:26:36Z</time>
      </trkpt>
      <trkpt lat="44.95061" lon="6.49757">
        <ele>2084.6</ele>
        <time>2024-08-11T10:26:37Z</time>
      </trkpt>
      <trkpt lat="44.95061" lon="6.49757">
        <ele>2084.8</ele>
        <time>2024-08-11T10:26:38Z</time>
      </trkpt>
      <trkpt lat="44.95059" lon="6.49758">
        <ele>2084.8</ele>
        <time>2024-08-11T10:26:39Z</time>
      </trkpt>
      <trkpt lat="44.95059" lon="6.49758">
        <ele>2084.8</ele>
        <time>2024-08-11T10:26:40Z</time>
      </trkpt>
      <trkpt lat="44.95057" lon="6.49758">
        <ele>2084.8</ele>
        <time>2024-08-11T10:26:41Z</time>
      </trkpt>
      <trkpt lat="44.95057" lon="6.49758">
        <ele>2085</ele>
        <time>2024-08-11T10:26:42Z</time>
      </trkpt>
      <trkpt lat="44.95055" lon="6.49758">
        <ele>2085.2</ele>
        <time>2024-08-11T10:26:43Z</time>
      </trkpt>
      <trkpt lat="44.95055" lon="6.49758">
        <ele>2085.2</ele>
        <time>2024-08-11T10:26:44Z</time>
      </trkpt>
      <trkpt lat="44.95055" lon="6.49758">
        <ele>2085.4</ele>
        <time>2024-08-11T10:26:45Z</time>
      </trkpt>
      <trkpt lat="44.95053" lon="6.4976">
        <ele>2085.4</ele>
        <time>2024-08-11T10:26:46Z</time>
      </trkpt>
      <trkpt lat="44.95053" lon="6.4976">
        <ele>2085.4</ele>
        <time>2024-08-11T10:26:47Z</time>
      </trkpt>
      <trkpt lat="44.95053" lon="6.4976">
        <ele>2085.6</ele>
        <time>2024-08-11T10:26:48Z</time>
      </trkpt>
      <trkpt lat="44.95051" lon="6.49761">
        <ele>2086</ele>
        <time>2024-08-11T10:26:49Z</time>
      </trkpt>
      <trkpt lat="44.95051" lon="6.49761">
        <ele>2086.2</ele>
        <time>2024-08-11T10:26:50Z</time>
      </trkpt>
      <trkpt lat="44.95051" lon="6.49761">
        <ele>2086.2</ele>
        <time>2024-08-11T10:26:51Z</time>
      </trkpt>
      <trkpt lat="44.95049" lon="6.49762">
        <ele>2086.2</ele>
        <time>2024-08-11T10:26:52Z</time>
      </trkpt>
      <trkpt lat="44.95049" lon="6.49762">
        <ele>2086.2</ele>
        <time>2024-08-11T10:26:53Z</time>
      </trkpt>
      <trkpt lat="44.95049" lon="6.49762">
        <ele>2086.4</ele>
        <time>2024-08-11T10:26:54Z</time>
      </trkpt>
      <trkpt lat="44.95046" lon="6.49762">
        <ele>2086.4</ele>
        <time>2024-08-11T10:26:55Z</time>
      </trkpt>
      <trkpt lat="44.95046" lon="6.49762">
        <ele>2086.8</ele>
        <time>2024-08-11T10:26:56Z</time>
      </trkpt>
      <trkpt lat="44.95046" lon="6.49762">
        <ele>2087.2</ele>
        <time>2024-08-11T10:26:57Z</time>
      </trkpt>
      <trkpt lat="44.95044" lon="6.49762">
        <ele>2087.2</ele>
        <time>2024-08-11T10:26:58Z</time>
      </trkpt>
      <trkpt lat="44.95044" lon="6.49762">
        <ele>2087.8</ele>
        <time>2024-08-11T10:26:59Z</time>
      </trkpt>
      <trkpt lat="44.95044" lon="6.49762">
        <ele>2088</ele>
        <time>2024-08-11T10:27:00Z</time>
      </trkpt>
      <trkpt lat="44.95042" lon="6.49762">
        <ele>2088</ele>
        <time>2024-08-11T10:27:01Z</time>
      </trkpt>
      <trkpt lat="44.95042" lon="6.49762">
        <ele>2088.4</ele>
        <time>2024-08-11T10:27:02Z</time>
      </trkpt>
      <trkpt lat="44.95042" lon="6.49762">
        <ele>2088.4</ele>
        <time>2024-08-11T10:27:03Z</time>
      </trkpt>
      <trkpt lat="44.95039" lon="6.49763">
        <ele>2088.6</ele>
        <time>2024-08-11T10:27:04Z</time>
      </trkpt>
      <trkpt lat="44.95039" lon="6.49763">
        <ele>2088.8</ele>
        <time>2024-08-11T10:27:05Z</time>
      </trkpt>
      <trkpt lat="44.95037" lon="6.49764">
        <ele>2088.8</ele>
        <time>2024-08-11T10:27:06Z</time>
      </trkpt>
      <trkpt lat="44.95037" lon="6.49764">
        <ele>2089</ele>
        <time>2024-08-11T10:27:07Z</time>
      </trkpt>
      <trkpt lat="44.95037" lon="6.49764">
        <ele>2089.4</ele>
        <time>2024-08-11T10:27:08Z</time>
      </trkpt>
      <trkpt lat="44.95035" lon="6.49766">
        <ele>2089.6</ele>
        <time>2024-08-11T10:27:09Z</time>
      </trkpt>
      <trkpt lat="44.95035" lon="6.49766">
        <ele>2089.6</ele>
        <time>2024-08-11T10:27:10Z</time>
      </trkpt>
      <trkpt lat="44.95033" lon="6.49766">
        <ele>2089.8</ele>
        <time>2024-08-11T10:27:11Z</time>
      </trkpt>
      <trkpt lat="44.95033" lon="6.49766">
        <ele>2089.8</ele>
        <time>2024-08-11T10:27:12Z</time>
      </trkpt>
      <trkpt lat="44.95033" lon="6.49766">
        <ele>2090.2</ele>
        <time>2024-08-11T10:27:13Z</time>
      </trkpt>
      <trkpt lat="44.95031" lon="6.49767">
        <ele>2090.2</ele>
        <time>2024-08-11T10:27:14Z</time>
      </trkpt>
      <trkpt lat="44.95031" lon="6.49767">
        <ele>2090.2</ele>
        <time>2024-08-11T10:27:15Z</time>
      </trkpt>
      <trkpt lat="44.95029" lon="6.49768">
        <ele>2090.2</ele>
        <time>2024-08-11T10:27:16Z</time>
      </trkpt>
      <trkpt lat="44.95029" lon="6.49768">
        <ele>2090.6</ele>
        <time>2024-08-11T10:27:17Z</time>
      </trkpt>
      <trkpt lat="44.95029" lon="6.49768">
        <ele>2090.8</ele>
        <time>2024-08-11T10:27:18Z</time>
      </trkpt>
      <trkpt lat="44.95027" lon="6.49771">
        <ele>2091</ele>
        <time>2024-08-11T10:27:19Z</time>
      </trkpt>
      <trkpt lat="44.95027" lon="6.49771">
        <ele>2091.2</ele>
        <time>2024-08-11T10:27:20Z</time>
      </trkpt>
      <trkpt lat="44.95027" lon="6.49771">
        <ele>2091.2</ele>
        <time>2024-08-11T10:27:21Z</time>
      </trkpt>
      <trkpt lat="44.95025" lon="6.49772">
        <ele>2091.2</ele>
        <time>2024-08-11T10:27:22Z</time>
      </trkpt>
      <trkpt lat="44.95025" lon="6.49772">
        <ele>2091.2</ele>
        <time>2024-08-11T10:27:23Z</time>
      </trkpt>
      <trkpt lat="44.95025" lon="6.49772">
        <ele>2091.6</ele>
        <time>2024-08-11T10:27:24Z</time>
      </trkpt>
      <trkpt lat="44.95023" lon="6.49772">
        <ele>2091.8</ele>
        <time>2024-08-11T10:27:25Z</time>
      </trkpt>
      <trkpt lat="44.95023" lon="6.49772">
        <ele>2091.8</ele>
        <time>2024-08-11T10:27:26Z</time>
      </trkpt>
      <trkpt lat="44.95023" lon="6.49772">
        <ele>2092.2</ele>
        <time>2024-08-11T10:27:27Z</time>
      </trkpt>
      <trkpt lat="44.95023" lon="6.49772">
        <ele>2092.4</ele>
        <time>2024-08-11T10:27:28Z</time>
      </trkpt>
      <trkpt lat="44.95021" lon="6.49773">
        <ele>2092.6</ele>
        <time>2024-08-11T10:27:29Z</time>
      </trkpt>
      <trkpt lat="44.95021" lon="6.49773">
        <ele>2093</ele>
        <time>2024-08-11T10:27:30Z</time>
      </trkpt>
      <trkpt lat="44.95021" lon="6.49773">
        <ele>2093</ele>
        <time>2024-08-11T10:27:31Z</time>
      </trkpt>
      <trkpt lat="44.95021" lon="6.49773">
        <ele>2093.2</ele>
        <time>2024-08-11T10:27:32Z</time>
      </trkpt>
      <trkpt lat="44.95018" lon="6.49774">
        <ele>2093.4</ele>
        <time>2024-08-11T10:27:33Z</time>
      </trkpt>
      <trkpt lat="44.95018" lon="6.49774">
        <ele>2093.6</ele>
        <time>2024-08-11T10:27:34Z</time>
      </trkpt>
      <trkpt lat="44.95018" lon="6.49776">
        <ele>2093.6</ele>
        <time>2024-08-11T10:27:35Z</time>
      </trkpt>
      <trkpt lat="44.95018" lon="6.49776">
        <ele>2093.6</ele>
        <time>2024-08-11T10:27:36Z</time>
      </trkpt>
      <trkpt lat="44.95018" lon="6.49776">
        <ele>2094</ele>
        <time>2024-08-11T10:27:37Z</time>
      </trkpt>
      <trkpt lat="44.95018" lon="6.49776">
        <ele>2094</ele>
        <time>2024-08-11T10:27:38Z</time>
      </trkpt>
      <trkpt lat="44.95016" lon="6.49777">
        <ele>2094.2</ele>
        <time>2024-08-11T10:27:39Z</time>
      </trkpt>
      <trkpt lat="44.95016" lon="6.49777">
        <ele>2094.6</ele>
        <time>2024-08-11T10:27:40Z</time>
      </trkpt>
      <trkpt lat="44.95014" lon="6.49777">
        <ele>2094.6</ele>
        <time>2024-08-11T10:27:41Z</time>
      </trkpt>
      <trkpt lat="44.95014" lon="6.49777">
        <ele>2094.6</ele>
        <time>2024-08-11T10:27:42Z</time>
      </trkpt>
      <trkpt lat="44.95014" lon="6.49777">
        <ele>2094.4</ele>
        <time>2024-08-11T10:27:43Z</time>
      </trkpt>
      <trkpt lat="44.95012" lon="6.49778">
        <ele>2094.6</ele>
        <time>2024-08-11T10:27:44Z</time>
      </trkpt>
      <trkpt lat="44.95012" lon="6.49778">
        <ele>2094.6</ele>
        <time>2024-08-11T10:27:45Z</time>
      </trkpt>
      <trkpt lat="44.95012" lon="6.49778">
        <ele>2094.8</ele>
        <time>2024-08-11T10:27:46Z</time>
      </trkpt>
      <trkpt lat="44.9501" lon="6.4978">
        <ele>2095.2</ele>
        <time>2024-08-11T10:27:47Z</time>
      </trkpt>
      <trkpt lat="44.9501" lon="6.4978">
        <ele>2095.6</ele>
        <time>2024-08-11T10:27:48Z</time>
      </trkpt>
      <trkpt lat="44.95008" lon="6.4978">
        <ele>2095.8</ele>
        <time>2024-08-11T10:27:49Z</time>
      </trkpt>
      <trkpt lat="44.95008" lon="6.4978">
        <ele>2096</ele>
        <time>2024-08-11T10:27:50Z</time>
      </trkpt>
      <trkpt lat="44.95006" lon="6.49781">
        <ele>2096</ele>
        <time>2024-08-11T10:27:51Z</time>
      </trkpt>
      <trkpt lat="44.95006" lon="6.49781">
        <ele>2096</ele>
        <time>2024-08-11T10:27:52Z</time>
      </trkpt>
      <trkpt lat="44.95006" lon="6.49781">
        <ele>2096</ele>
        <time>2024-08-11T10:27:53Z</time>
      </trkpt>
      <trkpt lat="44.95004" lon="6.49782">
        <ele>2096</ele>
        <time>2024-08-11T10:27:54Z</time>
      </trkpt>
      <trkpt lat="44.95004" lon="6.49782">
        <ele>2096</ele>
        <time>2024-08-11T10:27:55Z</time>
      </trkpt>
      <trkpt lat="44.95002" lon="6.49783">
        <ele>2096.2</ele>
        <time>2024-08-11T10:27:56Z</time>
      </trkpt>
      <trkpt lat="44.95002" lon="6.49783">
        <ele>2096.4</ele>
        <time>2024-08-11T10:27:57Z</time>
      </trkpt>
      <trkpt lat="44.95" lon="6.49785">
        <ele>2096.6</ele>
        <time>2024-08-11T10:27:58Z</time>
      </trkpt>
      <trkpt lat="44.95" lon="6.49785">
        <ele>2096.6</ele>
        <time>2024-08-11T10:27:59Z</time>
      </trkpt>
      <trkpt lat="44.95" lon="6.49785">
        <ele>2096.8</ele>
        <time>2024-08-11T10:28:00Z</time>
      </trkpt>
      <trkpt lat="44.94998" lon="6.49787">
        <ele>2097</ele>
        <time>2024-08-11T10:28:01Z</time>
      </trkpt>
      <trkpt lat="44.94998" lon="6.49787">
        <ele>2097.2</ele>
        <time>2024-08-11T10:28:02Z</time>
      </trkpt>
      <trkpt lat="44.94998" lon="6.49787">
        <ele>2097.4</ele>
        <time>2024-08-11T10:28:03Z</time>
      </trkpt>
      <trkpt lat="44.94995" lon="6.49788">
        <ele>2097.8</ele>
        <time>2024-08-11T10:28:04Z</time>
      </trkpt>
      <trkpt lat="44.94995" lon="6.49788">
        <ele>2097.8</ele>
        <time>2024-08-11T10:28:05Z</time>
      </trkpt>
      <trkpt lat="44.94993" lon="6.4979">
        <ele>2097.8</ele>
        <time>2024-08-11T10:28:06Z</time>
      </trkpt>
      <trkpt lat="44.94993" lon="6.4979">
        <ele>2097.8</ele>
        <time>2024-08-11T10:28:07Z</time>
      </trkpt>
      <trkpt lat="44.9499" lon="6.49791">
        <ele>2098</ele>
        <time>2024-08-11T10:28:08Z</time>
      </trkpt>
      <trkpt lat="44.9499" lon="6.49791">
        <ele>2098.4</ele>
        <time>2024-08-11T10:28:09Z</time>
      </trkpt>
      <trkpt lat="44.94989" lon="6.49793">
        <ele>2098.4</ele>
        <time>2024-08-11T10:28:10Z</time>
      </trkpt>
      <trkpt lat="44.94989" lon="6.49793">
        <ele>2098.6</ele>
        <time>2024-08-11T10:28:11Z</time>
      </trkpt>
      <trkpt lat="44.94989" lon="6.49793">
        <ele>2098.8</ele>
        <time>2024-08-11T10:28:12Z</time>
      </trkpt>
      <trkpt lat="44.94986" lon="6.49795">
        <ele>2099</ele>
        <time>2024-08-11T10:28:13Z</time>
      </trkpt>
      <trkpt lat="44.94986" lon="6.49795">
        <ele>2099</ele>
        <time>2024-08-11T10:28:14Z</time>
      </trkpt>
      <trkpt lat="44.94986" lon="6.49795">
        <ele>2099.2</ele>
        <time>2024-08-11T10:28:15Z</time>
      </trkpt>
      <trkpt lat="44.94983" lon="6.49795">
        <ele>2099.2</ele>
        <time>2024-08-11T10:28:16Z</time>
      </trkpt>
      <trkpt lat="44.94983" lon="6.49795">
        <ele>2099.4</ele>
        <time>2024-08-11T10:28:17Z</time>
      </trkpt>
      <trkpt lat="44.94981" lon="6.49796">
        <ele>2099.6</ele>
        <time>2024-08-11T10:28:18Z</time>
      </trkpt>
      <trkpt lat="44.94981" lon="6.49796">
        <ele>2099.8</ele>
        <time>2024-08-11T10:28:19Z</time>
      </trkpt>
      <trkpt lat="44.94981" lon="6.49796">
        <ele>2100</ele>
        <time>2024-08-11T10:28:20Z</time>
      </trkpt>
      <trkpt lat="44.94978" lon="6.49798">
        <ele>2100</ele>
        <time>2024-08-11T10:28:21Z</time>
      </trkpt>
      <trkpt lat="44.94978" lon="6.49798">
        <ele>2100.2</ele>
        <time>2024-08-11T10:28:22Z</time>
      </trkpt>
      <trkpt lat="44.94976" lon="6.49798">
        <ele>2100.4</ele>
        <time>2024-08-11T10:28:23Z</time>
      </trkpt>
      <trkpt lat="44.94976" lon="6.49798">
        <ele>2100.8</ele>
        <time>2024-08-11T10:28:24Z</time>
      </trkpt>
      <trkpt lat="44.94974" lon="6.49799">
        <ele>2101</ele>
        <time>2024-08-11T10:28:25Z</time>
      </trkpt>
      <trkpt lat="44.94974" lon="6.49799">
        <ele>2101</ele>
        <time>2024-08-11T10:28:26Z</time>
      </trkpt>
      <trkpt lat="44.94974" lon="6.49799">
        <ele>2101</ele>
        <time>2024-08-11T10:28:27Z</time>
      </trkpt>
      <trkpt lat="44.94972" lon="6.498">
        <ele>2101.4</ele>
        <time>2024-08-11T10:28:28Z</time>
      </trkpt>
      <trkpt lat="44.94972" lon="6.498">
        <ele>2101.4</ele>
        <time>2024-08-11T10:28:29Z</time>
      </trkpt>
      <trkpt lat="44.94972" lon="6.498">
        <ele>2101.4</ele>
        <time>2024-08-11T10:28:30Z</time>
      </trkpt>
      <trkpt lat="44.9497" lon="6.49802">
        <ele>2101.4</ele>
        <time>2024-08-11T10:28:31Z</time>
      </trkpt>
      <trkpt lat="44.9497" lon="6.49802">
        <ele>2101.6</ele>
        <time>2024-08-11T10:28:32Z</time>
      </trkpt>
      <trkpt lat="44.9497" lon="6.49802">
        <ele>2102</ele>
        <time>2024-08-11T10:28:33Z</time>
      </trkpt>
      <trkpt lat="44.9497" lon="6.49802">
        <ele>2102.2</ele>
        <time>2024-08-11T10:28:34Z</time>
      </trkpt>
      <trkpt lat="44.9497" lon="6.49802">
        <ele>2102.4</ele>
        <time>2024-08-11T10:28:35Z</time>
      </trkpt>
      <trkpt lat="44.9497" lon="6.49805">
        <ele>2102.4</ele>
        <time>2024-08-11T10:28:36Z</time>
      </trkpt>
      <trkpt lat="44.9497" lon="6.49805">
        <ele>2103</ele>
        <time>2024-08-11T10:28:37Z</time>
      </trkpt>
      <trkpt lat="44.9497" lon="6.49805">
        <ele>2103</ele>
        <time>2024-08-11T10:28:38Z</time>
      </trkpt>
      <trkpt lat="44.94969" lon="6.49808">
        <ele>2103</ele>
        <time>2024-08-11T10:28:39Z</time>
      </trkpt>
      <trkpt lat="44.94969" lon="6.49808">
        <ele>2103</ele>
        <time>2024-08-11T10:28:40Z</time>
      </trkpt>
      <trkpt lat="44.94968" lon="6.4981">
        <ele>2103</ele>
        <time>2024-08-11T10:28:41Z</time>
      </trkpt>
      <trkpt lat="44.94968" lon="6.4981">
        <ele>2103.2</ele>
        <time>2024-08-11T10:28:42Z</time>
      </trkpt>
      <trkpt lat="44.94968" lon="6.4981">
        <ele>2103.4</ele>
        <time>2024-08-11T10:28:43Z</time>
      </trkpt>
      <trkpt lat="44.94966" lon="6.49812">
        <ele>2103.8</ele>
        <time>2024-08-11T10:28:44Z</time>
      </trkpt>
      <trkpt lat="44.94966" lon="6.49812">
        <ele>2104.8</ele>
        <time>2024-08-11T10:28:45Z</time>
      </trkpt>
      <trkpt lat="44.94966" lon="6.49812">
        <ele>2105</ele>
        <time>2024-08-11T10:28:46Z</time>
      </trkpt>
      <trkpt lat="44.94966" lon="6.49812">
        <ele>2105.2</ele>
        <time>2024-08-11T10:28:47Z</time>
      </trkpt>
      <trkpt lat="44.94966" lon="6.49812">
        <ele>2105.2</ele>
        <time>2024-08-11T10:28:48Z</time>
      </trkpt>
      <trkpt lat="44.94965" lon="6.49815">
        <ele>2105.2</ele>
        <time>2024-08-11T10:28:49Z</time>
      </trkpt>
      <trkpt lat="44.94965" lon="6.49815">
        <ele>2105.2</ele>
        <time>2024-08-11T10:28:50Z</time>
      </trkpt>
      <trkpt lat="44.94965" lon="6.49815">
        <ele>2104.8</ele>
        <time>2024-08-11T10:28:51Z</time>
      </trkpt>
      <trkpt lat="44.94963" lon="6.49817">
        <ele>2104.8</ele>
        <time>2024-08-11T10:28:52Z</time>
      </trkpt>
      <trkpt lat="44.94963" lon="6.49817">
        <ele>2105.4</ele>
        <time>2024-08-11T10:28:53Z</time>
      </trkpt>
      <trkpt lat="44.94963" lon="6.49817">
        <ele>2105.6</ele>
        <time>2024-08-11T10:28:54Z</time>
      </trkpt>
      <trkpt lat="44.9496" lon="6.49819">
        <ele>2105.8</ele>
        <time>2024-08-11T10:28:55Z</time>
      </trkpt>
      <trkpt lat="44.9496" lon="6.49819">
        <ele>2105.8</ele>
        <time>2024-08-11T10:28:56Z</time>
      </trkpt>
      <trkpt lat="44.9496" lon="6.49819">
        <ele>2105.8</ele>
        <time>2024-08-11T10:28:57Z</time>
      </trkpt>
      <trkpt lat="44.94958" lon="6.49822">
        <ele>2105.8</ele>
        <time>2024-08-11T10:28:58Z</time>
      </trkpt>
      <trkpt lat="44.94958" lon="6.49822">
        <ele>2105.8</ele>
        <time>2024-08-11T10:28:59Z</time>
      </trkpt>
      <trkpt lat="44.94958" lon="6.49822">
        <ele>2106</ele>
        <time>2024-08-11T10:29:00Z</time>
      </trkpt>
      <trkpt lat="44.94956" lon="6.49824">
        <ele>2106.2</ele>
        <time>2024-08-11T10:29:01Z</time>
      </trkpt>
      <trkpt lat="44.94956" lon="6.49824">
        <ele>2106.6</ele>
        <time>2024-08-11T10:29:02Z</time>
      </trkpt>
      <trkpt lat="44.94954" lon="6.49825">
        <ele>2106.6</ele>
        <time>2024-08-11T10:29:03Z</time>
      </trkpt>
      <trkpt lat="44.94954" lon="6.49825">
        <ele>2106.6</ele>
        <time>2024-08-11T10:29:04Z</time>
      </trkpt>
      <trkpt lat="44.94954" lon="6.49825">
        <ele>2106.8</ele>
        <time>2024-08-11T10:29:05Z</time>
      </trkpt>
      <trkpt lat="44.94952" lon="6.49826">
        <ele>2107</ele>
        <time>2024-08-11T10:29:06Z</time>
      </trkpt>
      <trkpt lat="44.94952" lon="6.49826">
        <ele>2107</ele>
        <time>2024-08-11T10:29:07Z</time>
      </trkpt>
      <trkpt lat="44.94952" lon="6.49826">
        <ele>2107</ele>
        <time>2024-08-11T10:29:08Z</time>
      </trkpt>
      <trkpt lat="44.9495" lon="6.49828">
        <ele>2107.2</ele>
        <time>2024-08-11T10:29:09Z</time>
      </trkpt>
      <trkpt lat="44.9495" lon="6.49828">
        <ele>2107.8</ele>
        <time>2024-08-11T10:29:10Z</time>
      </trkpt>
      <trkpt lat="44.9495" lon="6.49828">
        <ele>2108</ele>
        <time>2024-08-11T10:29:11Z</time>
      </trkpt>
      <trkpt lat="44.94948" lon="6.4983">
        <ele>2108.2</ele>
        <time>2024-08-11T10:29:12Z</time>
      </trkpt>
      <trkpt lat="44.94948" lon="6.4983">
        <ele>2108.4</ele>
        <time>2024-08-11T10:29:13Z</time>
      </trkpt>
      <trkpt lat="44.94948" lon="6.4983">
        <ele>2108.4</ele>
        <time>2024-08-11T10:29:14Z</time>
      </trkpt>
      <trkpt lat="44.94947" lon="6.49832">
        <ele>2108.6</ele>
        <time>2024-08-11T10:29:15Z</time>
      </trkpt>
      <trkpt lat="44.94947" lon="6.49832">
        <ele>2108.8</ele>
        <time>2024-08-11T10:29:16Z</time>
      </trkpt>
      <trkpt lat="44.94947" lon="6.49832">
        <ele>2109.2</ele>
        <time>2024-08-11T10:29:17Z</time>
      </trkpt>
      <trkpt lat="44.94944" lon="6.49834">
        <ele>2109.4</ele>
        <time>2024-08-11T10:29:18Z</time>
      </trkpt>
      <trkpt lat="44.94944" lon="6.49834">
        <ele>2109.4</ele>
        <time>2024-08-11T10:29:19Z</time>
      </trkpt>
      <trkpt lat="44.94944" lon="6.49834">
        <ele>2109.4</ele>
        <time>2024-08-11T10:29:20Z</time>
      </trkpt>
      <trkpt lat="44.94944" lon="6.49834">
        <ele>2109.6</ele>
        <time>2024-08-11T10:29:21Z</time>
      </trkpt>
      <trkpt lat="44.94943" lon="6.49837">
        <ele>2110</ele>
        <time>2024-08-11T10:29:22Z</time>
      </trkpt>
      <trkpt lat="44.94943" lon="6.49837">
        <ele>2110</ele>
        <time>2024-08-11T10:29:23Z</time>
      </trkpt>
      <trkpt lat="44.94943" lon="6.49837">
        <ele>2110</ele>
        <time>2024-08-11T10:29:24Z</time>
      </trkpt>
      <trkpt lat="44.94941" lon="6.49839">
        <ele>2110.6</ele>
        <time>2024-08-11T10:29:25Z</time>
      </trkpt>
      <trkpt lat="44.94941" lon="6.49839">
        <ele>2110.8</ele>
        <time>2024-08-11T10:29:26Z</time>
      </trkpt>
      <trkpt lat="44.94941" lon="6.49839">
        <ele>2110.8</ele>
        <time>2024-08-11T10:29:27Z</time>
      </trkpt>
      <trkpt lat="44.94939" lon="6.49839">
        <ele>2110.8</ele>
        <time>2024-08-11T10:29:28Z</time>
      </trkpt>
      <trkpt lat="44.94939" lon="6.49839">
        <ele>2111</ele>
        <time>2024-08-11T10:29:29Z</time>
      </trkpt>
      <trkpt lat="44.94939" lon="6.49839">
        <ele>2111</ele>
        <time>2024-08-11T10:29:30Z</time>
      </trkpt>
      <trkpt lat="44.94936" lon="6.49839">
        <ele>2111.4</ele>
        <time>2024-08-11T10:29:31Z</time>
      </trkpt>
      <trkpt lat="44.94936" lon="6.49839">
        <ele>2111.4</ele>
        <time>2024-08-11T10:29:32Z</time>
      </trkpt>
      <trkpt lat="44.94936" lon="6.49839">
        <ele>2111.6</ele>
        <time>2024-08-11T10:29:33Z</time>
      </trkpt>
      <trkpt lat="44.94936" lon="6.49839">
        <ele>2111.6</ele>
        <time>2024-08-11T10:29:34Z</time>
      </trkpt>
      <trkpt lat="44.94936" lon="6.49839">
        <ele>2111.8</ele>
        <time>2024-08-11T10:29:35Z</time>
      </trkpt>
      <trkpt lat="44.94934" lon="6.49838">
        <ele>2111.8</ele>
        <time>2024-08-11T10:29:36Z</time>
      </trkpt>
      <trkpt lat="44.94934" lon="6.49838">
        <ele>2112.2</ele>
        <time>2024-08-11T10:29:37Z</time>
      </trkpt>
      <trkpt lat="44.94934" lon="6.49838">
        <ele>2112.2</ele>
        <time>2024-08-11T10:29:38Z</time>
      </trkpt>
      <trkpt lat="44.94934" lon="6.49838">
        <ele>2112.2</ele>
        <time>2024-08-11T10:29:39Z</time>
      </trkpt>
      <trkpt lat="44.94933" lon="6.49841">
        <ele>2112.6</ele>
        <time>2024-08-11T10:29:40Z</time>
      </trkpt>
      <trkpt lat="44.94933" lon="6.49841">
        <ele>2112.8</ele>
        <time>2024-08-11T10:29:41Z</time>
      </trkpt>
      <trkpt lat="44.94933" lon="6.49841">
        <ele>2112.8</ele>
        <time>2024-08-11T10:29:42Z</time>
      </trkpt>
      <trkpt lat="44.94932" lon="6.49842">
        <ele>2113.2</ele>
        <time>2024-08-11T10:29:43Z</time>
      </trkpt>
      <trkpt lat="44.94932" lon="6.49842">
        <ele>2113.6</ele>
        <time>2024-08-11T10:29:44Z</time>
      </trkpt>
      <trkpt lat="44.9493" lon="6.49843">
        <ele>2113.8</ele>
        <time>2024-08-11T10:29:45Z</time>
      </trkpt>
      <trkpt lat="44.9493" lon="6.49843">
        <ele>2114</ele>
        <time>2024-08-11T10:29:46Z</time>
      </trkpt>
      <trkpt lat="44.9493" lon="6.49843">
        <ele>2114</ele>
        <time>2024-08-11T10:29:47Z</time>
      </trkpt>
      <trkpt lat="44.94927" lon="6.49843">
        <ele>2114.2</ele>
        <time>2024-08-11T10:29:48Z</time>
      </trkpt>
      <trkpt lat="44.94927" lon="6.49843">
        <ele>2114.4</ele>
        <time>2024-08-11T10:29:49Z</time>
      </trkpt>
      <trkpt lat="44.94927" lon="6.49843">
        <ele>2114.4</ele>
        <time>2024-08-11T10:29:50Z</time>
      </trkpt>
      <trkpt lat="44.94927" lon="6.49843">
        <ele>2114.8</ele>
        <time>2024-08-11T10:29:51Z</time>
      </trkpt>
      <trkpt lat="44.94927" lon="6.49843">
        <ele>2114.8</ele>
        <time>2024-08-11T10:29:52Z</time>
      </trkpt>
      <trkpt lat="44.94925" lon="6.49844">
        <ele>2115</ele>
        <time>2024-08-11T10:29:53Z</time>
      </trkpt>
      <trkpt lat="44.94925" lon="6.49844">
        <ele>2115.2</ele>
        <time>2024-08-11T10:29:54Z</time>
      </trkpt>
      <trkpt lat="44.94925" lon="6.49844">
        <ele>2115.2</ele>
        <time>2024-08-11T10:29:55Z</time>
      </trkpt>
      <trkpt lat="44.94925" lon="6.49844">
        <ele>2115.6</ele>
        <time>2024-08-11T10:29:56Z</time>
      </trkpt>
      <trkpt lat="44.94924" lon="6.49844">
        <ele>2116</ele>
        <time>2024-08-11T10:29:57Z</time>
      </trkpt>
      <trkpt lat="44.94924" lon="6.49844">
        <ele>2116.2</ele>
        <time>2024-08-11T10:29:58Z</time>
      </trkpt>
      <trkpt lat="44.94924" lon="6.49844">
        <ele>2116.4</ele>
        <time>2024-08-11T10:29:59Z</time>
      </trkpt>
      <trkpt lat="44.94924" lon="6.49844">
        <ele>2116.4</ele>
        <time>2024-08-11T10:30:00Z</time>
      </trkpt>
      <trkpt lat="44.94924" lon="6.49844">
        <ele>2116.6</ele>
        <time>2024-08-11T10:30:01Z</time>
      </trkpt>
      <trkpt lat="44.94924" lon="6.49844">
        <ele>2117.2</ele>
        <time>2024-08-11T10:30:02Z</time>
      </trkpt>
      <trkpt lat="44.94921" lon="6.49843">
        <ele>2117.2</ele>
        <time>2024-08-11T10:30:03Z</time>
      </trkpt>
      <trkpt lat="44.94921" lon="6.49843">
        <ele>2117.2</ele>
        <time>2024-08-11T10:30:04Z</time>
      </trkpt>
      <trkpt lat="44.94921" lon="6.49843">
        <ele>2117.6</ele>
        <time>2024-08-11T10:30:05Z</time>
      </trkpt>
      <trkpt lat="44.94921" lon="6.49843">
        <ele>2117.8</ele>
        <time>2024-08-11T10:30:06Z</time>
      </trkpt>
      <trkpt lat="44.94921" lon="6.49843">
        <ele>2118</ele>
        <time>2024-08-11T10:30:07Z</time>
      </trkpt>
      <trkpt lat="44.94919" lon="6.49843">
        <ele>2118</ele>
        <time>2024-08-11T10:30:08Z</time>
      </trkpt>
      <trkpt lat="44.94919" lon="6.49843">
        <ele>2118.2</ele>
        <time>2024-08-11T10:30:09Z</time>
      </trkpt>
      <trkpt lat="44.94919" lon="6.49843">
        <ele>2119</ele>
        <time>2024-08-11T10:30:10Z</time>
      </trkpt>
      <trkpt lat="44.94919" lon="6.49843">
        <ele>2119</ele>
        <time>2024-08-11T10:30:11Z</time>
      </trkpt>
      <trkpt lat="44.94919" lon="6.49843">
        <ele>2119</ele>
        <time>2024-08-11T10:30:12Z</time>
      </trkpt>
      <trkpt lat="44.94919" lon="6.49843">
        <ele>2119.2</ele>
        <time>2024-08-11T10:30:13Z</time>
      </trkpt>
      <trkpt lat="44.94919" lon="6.49843">
        <ele>2119.4</ele>
        <time>2024-08-11T10:30:14Z</time>
      </trkpt>
      <trkpt lat="44.94919" lon="6.49843">
        <ele>2119.4</ele>
        <time>2024-08-11T10:30:15Z</time>
      </trkpt>
      <trkpt lat="44.94919" lon="6.49843">
        <ele>2120.2</ele>
        <time>2024-08-11T10:30:16Z</time>
      </trkpt>
      <trkpt lat="44.94919" lon="6.49843">
        <ele>2120.4</ele>
        <time>2024-08-11T10:30:17Z</time>
      </trkpt>
      <trkpt lat="44.94919" lon="6.49843">
        <ele>2120.4</ele>
        <time>2024-08-11T10:30:18Z</time>
      </trkpt>
      <trkpt lat="44.94919" lon="6.49843">
        <ele>2120.6</ele>
        <time>2024-08-11T10:30:19Z</time>
      </trkpt>
      <trkpt lat="44.94917" lon="6.49842">
        <ele>2120.8</ele>
        <time>2024-08-11T10:30:20Z</time>
      </trkpt>
      <trkpt lat="44.94917" lon="6.49842">
        <ele>2121</ele>
        <time>2024-08-11T10:30:21Z</time>
      </trkpt>
      <trkpt lat="44.94914" lon="6.49844">
        <ele>2121.4</ele>
        <time>2024-08-11T10:30:22Z</time>
      </trkpt>
      <trkpt lat="44.94914" lon="6.49844">
        <ele>2121.4</ele>
        <time>2024-08-11T10:30:23Z</time>
      </trkpt>
      <trkpt lat="44.94912" lon="6.49846">
        <ele>2121.8</ele>
        <time>2024-08-11T10:30:24Z</time>
      </trkpt>
      <trkpt lat="44.94912" lon="6.49846">
        <ele>2121.8</ele>
        <time>2024-08-11T10:30:25Z</time>
      </trkpt>
      <trkpt lat="44.9491" lon="6.49848">
        <ele>2122</ele>
        <time>2024-08-11T10:30:26Z</time>
      </trkpt>
      <trkpt lat="44.9491" lon="6.49848">
        <ele>2122.4</ele>
        <time>2024-08-11T10:30:27Z</time>
      </trkpt>
      <trkpt lat="44.9491" lon="6.49848">
        <ele>2122.8</ele>
        <time>2024-08-11T10:30:28Z</time>
      </trkpt>
      <trkpt lat="44.94908" lon="6.4985">
        <ele>2122.8</ele>
        <time>2024-08-11T10:30:29Z</time>
      </trkpt>
      <trkpt lat="44.94908" lon="6.4985">
        <ele>2123</ele>
        <time>2024-08-11T10:30:30Z</time>
      </trkpt>
      <trkpt lat="44.94906" lon="6.49851">
        <ele>2123.2</ele>
        <time>2024-08-11T10:30:31Z</time>
      </trkpt>
      <trkpt lat="44.94906" lon="6.49851">
        <ele>2123.2</ele>
        <time>2024-08-11T10:30:32Z</time>
      </trkpt>
      <trkpt lat="44.94906" lon="6.49851">
        <ele>2123.4</ele>
        <time>2024-08-11T10:30:33Z</time>
      </trkpt>
      <trkpt lat="44.94906" lon="6.49851">
        <ele>2123.8</ele>
        <time>2024-08-11T10:30:34Z</time>
      </trkpt>
      <trkpt lat="44.94904" lon="6.49852">
        <ele>2124</ele>
        <time>2024-08-11T10:30:35Z</time>
      </trkpt>
      <trkpt lat="44.94904" lon="6.49852">
        <ele>2124</ele>
        <time>2024-08-11T10:30:36Z</time>
      </trkpt>
      <trkpt lat="44.94904" lon="6.49852">
        <ele>2124</ele>
        <time>2024-08-11T10:30:37Z</time>
      </trkpt>
      <trkpt lat="44.94904" lon="6.49852">
        <ele>2124.4</ele>
        <time>2024-08-11T10:30:38Z</time>
      </trkpt>
      <trkpt lat="44.94904" lon="6.49852">
        <ele>2124.4</ele>
        <time>2024-08-11T10:30:39Z</time>
      </trkpt>
      <trkpt lat="44.94904" lon="6.49852">
        <ele>2124.4</ele>
        <time>2024-08-11T10:30:40Z</time>
      </trkpt>
      <trkpt lat="44.94904" lon="6.49852">
        <ele>2125</ele>
        <time>2024-08-11T10:30:41Z</time>
      </trkpt>
      <trkpt lat="44.94904" lon="6.49852">
        <ele>2125</ele>
        <time>2024-08-11T10:30:42Z</time>
      </trkpt>
      <trkpt lat="44.94904" lon="6.49852">
        <ele>2124.8</ele>
        <time>2024-08-11T10:30:43Z</time>
      </trkpt>
      <trkpt lat="44.94904" lon="6.49852">
        <ele>2124.6</ele>
        <time>2024-08-11T10:30:44Z</time>
      </trkpt>
      <trkpt lat="44.94904" lon="6.49852">
        <ele>2124.4</ele>
        <time>2024-08-11T10:30:45Z</time>
      </trkpt>
      <trkpt lat="44.94904" lon="6.49856">
        <ele>2124.4</ele>
        <time>2024-08-11T10:30:46Z</time>
      </trkpt>
      <trkpt lat="44.94904" lon="6.49856">
        <ele>2124.2</ele>
        <time>2024-08-11T10:30:47Z</time>
      </trkpt>
      <trkpt lat="44.94904" lon="6.49859">
        <ele>2124.2</ele>
        <time>2024-08-11T10:30:48Z</time>
      </trkpt>
      <trkpt lat="44.94904" lon="6.49859">
        <ele>2124.2</ele>
        <time>2024-08-11T10:30:49Z</time>
      </trkpt>
      <trkpt lat="44.94906" lon="6.49862">
        <ele>2124.2</ele>
        <time>2024-08-11T10:30:50Z</time>
      </trkpt>
      <trkpt lat="44.94906" lon="6.49862">
        <ele>2124.2</ele>
        <time>2024-08-11T10:30:51Z</time>
      </trkpt>
      <trkpt lat="44.94906" lon="6.49862">
        <ele>2124.6</ele>
        <time>2024-08-11T10:30:52Z</time>
      </trkpt>
      <trkpt lat="44.94906" lon="6.49862">
        <ele>2125.2</ele>
        <time>2024-08-11T10:30:53Z</time>
      </trkpt>
      <trkpt lat="44.94907" lon="6.49864">
        <ele>2125.2</ele>
        <time>2024-08-11T10:30:54Z</time>
      </trkpt>
      <trkpt lat="44.94907" lon="6.49864">
        <ele>2125.2</ele>
        <time>2024-08-11T10:30:55Z</time>
      </trkpt>
      <trkpt lat="44.94907" lon="6.49864">
        <ele>2125.2</ele>
        <time>2024-08-11T10:30:56Z</time>
      </trkpt>
      <trkpt lat="44.94909" lon="6.49866">
        <ele>2125.4</ele>
        <time>2024-08-11T10:30:57Z</time>
      </trkpt>
      <trkpt lat="44.94909" lon="6.49866">
        <ele>2125.6</ele>
        <time>2024-08-11T10:30:58Z</time>
      </trkpt>
      <trkpt lat="44.94909" lon="6.49866">
        <ele>2125.8</ele>
        <time>2024-08-11T10:30:59Z</time>
      </trkpt>
      <trkpt lat="44.94911" lon="6.49866">
        <ele>2126</ele>
        <time>2024-08-11T10:31:00Z</time>
      </trkpt>
      <trkpt lat="44.94911" lon="6.49866">
        <ele>2126</ele>
        <time>2024-08-11T10:31:01Z</time>
      </trkpt>
      <trkpt lat="44.94911" lon="6.49866">
        <ele>2126.2</ele>
        <time>2024-08-11T10:31:02Z</time>
      </trkpt>
      <trkpt lat="44.94913" lon="6.49866">
        <ele>2126.2</ele>
        <time>2024-08-11T10:31:03Z</time>
      </trkpt>
      <trkpt lat="44.94913" lon="6.49866">
        <ele>2126.2</ele>
        <time>2024-08-11T10:31:04Z</time>
      </trkpt>
      <trkpt lat="44.94913" lon="6.49866">
        <ele>2126.6</ele>
        <time>2024-08-11T10:31:05Z</time>
      </trkpt>
      <trkpt lat="44.94915" lon="6.49866">
        <ele>2126.8</ele>
        <time>2024-08-11T10:31:06Z</time>
      </trkpt>
      <trkpt lat="44.94915" lon="6.49866">
        <ele>2127</ele>
        <time>2024-08-11T10:31:07Z</time>
      </trkpt>
      <trkpt lat="44.94915" lon="6.49866">
        <ele>2127.6</ele>
        <time>2024-08-11T10:31:08Z</time>
      </trkpt>
      <trkpt lat="44.94915" lon="6.49866">
        <ele>2127.8</ele>
        <time>2024-08-11T10:31:09Z</time>
      </trkpt>
      <trkpt lat="44.94915" lon="6.49866">
        <ele>2128</ele>
        <time>2024-08-11T10:31:10Z</time>
      </trkpt>
      <trkpt lat="44.94916" lon="6.49868">
        <ele>2128.2</ele>
        <time>2024-08-11T10:31:11Z</time>
      </trkpt>
      <trkpt lat="44.94916" lon="6.49868">
        <ele>2128.6</ele>
        <time>2024-08-11T10:31:12Z</time>
      </trkpt>
      <trkpt lat="44.94916" lon="6.49868">
        <ele>2128.6</ele>
        <time>2024-08-11T10:31:13Z</time>
      </trkpt>
      <trkpt lat="44.94918" lon="6.49869">
        <ele>2129.2</ele>
        <time>2024-08-11T10:31:14Z</time>
      </trkpt>
      <trkpt lat="44.94918" lon="6.49869">
        <ele>2129.4</ele>
        <time>2024-08-11T10:31:15Z</time>
      </trkpt>
      <trkpt lat="44.94918" lon="6.49869">
        <ele>2129.4</ele>
        <time>2024-08-11T10:31:16Z</time>
      </trkpt>
      <trkpt lat="44.9492" lon="6.4987">
        <ele>2129.4</ele>
        <time>2024-08-11T10:31:17Z</time>
      </trkpt>
      <trkpt lat="44.9492" lon="6.4987">
        <ele>2129.4</ele>
        <time>2024-08-11T10:31:18Z</time>
      </trkpt>
      <trkpt lat="44.9492" lon="6.4987">
        <ele>2129.6</ele>
        <time>2024-08-11T10:31:19Z</time>
      </trkpt>
      <trkpt lat="44.9492" lon="6.4987">
        <ele>2130.2</ele>
        <time>2024-08-11T10:31:20Z</time>
      </trkpt>
      <trkpt lat="44.9492" lon="6.49873">
        <ele>2130.2</ele>
        <time>2024-08-11T10:31:21Z</time>
      </trkpt>
      <trkpt lat="44.9492" lon="6.49873">
        <ele>2130.2</ele>
        <time>2024-08-11T10:31:22Z</time>
      </trkpt>
      <trkpt lat="44.9492" lon="6.49873">
        <ele>2130.4</ele>
        <time>2024-08-11T10:31:23Z</time>
      </trkpt>
      <trkpt lat="44.9492" lon="6.49873">
        <ele>2130.6</ele>
        <time>2024-08-11T10:31:24Z</time>
      </trkpt>
      <trkpt lat="44.9492" lon="6.49873">
        <ele>2131</ele>
        <time>2024-08-11T10:31:25Z</time>
      </trkpt>
      <trkpt lat="44.94919" lon="6.49876">
        <ele>2131.6</ele>
        <time>2024-08-11T10:31:26Z</time>
      </trkpt>
      <trkpt lat="44.94919" lon="6.49876">
        <ele>2131.8</ele>
        <time>2024-08-11T10:31:27Z</time>
      </trkpt>
      <trkpt lat="44.94919" lon="6.49876">
        <ele>2132</ele>
        <time>2024-08-11T10:31:28Z</time>
      </trkpt>
      <trkpt lat="44.94918" lon="6.49879">
        <ele>2132</ele>
        <time>2024-08-11T10:31:29Z</time>
      </trkpt>
      <trkpt lat="44.94918" lon="6.49879">
        <ele>2132</ele>
        <time>2024-08-11T10:31:30Z</time>
      </trkpt>
      <trkpt lat="44.94918" lon="6.49879">
        <ele>2132</ele>
        <time>2024-08-11T10:31:31Z</time>
      </trkpt>
      <trkpt lat="44.94919" lon="6.49882">
        <ele>2132</ele>
        <time>2024-08-11T10:31:32Z</time>
      </trkpt>
      <trkpt lat="44.94919" lon="6.49882">
        <ele>2132.4</ele>
        <time>2024-08-11T10:31:33Z</time>
      </trkpt>
      <trkpt lat="44.94919" lon="6.49882">
        <ele>2132.6</ele>
        <time>2024-08-11T10:31:34Z</time>
      </trkpt>
      <trkpt lat="44.9492" lon="6.49885">
        <ele>2132.6</ele>
        <time>2024-08-11T10:31:35Z</time>
      </trkpt>
      <trkpt lat="44.9492" lon="6.49885">
        <ele>2132.8</ele>
        <time>2024-08-11T10:31:36Z</time>
      </trkpt>
      <trkpt lat="44.9492" lon="6.49888">
        <ele>2133</ele>
        <time>2024-08-11T10:31:37Z</time>
      </trkpt>
      <trkpt lat="44.9492" lon="6.49888">
        <ele>2133.2</ele>
        <time>2024-08-11T10:31:38Z</time>
      </trkpt>
      <trkpt lat="44.94919" lon="6.49891">
        <ele>2133.2</ele>
        <time>2024-08-11T10:31:39Z</time>
      </trkpt>
      <trkpt lat="44.94919" lon="6.49891">
        <ele>2133.2</ele>
        <time>2024-08-11T10:31:40Z</time>
      </trkpt>
      <trkpt lat="44.94918" lon="6.49893">
        <ele>2133.6</ele>
        <time>2024-08-11T10:31:41Z</time>
      </trkpt>
      <trkpt lat="44.94918" lon="6.49893">
        <ele>2133.8</ele>
        <time>2024-08-11T10:31:42Z</time>
      </trkpt>
      <trkpt lat="44.94918" lon="6.49896">
        <ele>2133.8</ele>
        <time>2024-08-11T10:31:43Z</time>
      </trkpt>
      <trkpt lat="44.94918" lon="6.49896">
        <ele>2134</ele>
        <time>2024-08-11T10:31:44Z</time>
      </trkpt>
      <trkpt lat="44.94917" lon="6.49899">
        <ele>2134.2</ele>
        <time>2024-08-11T10:31:45Z</time>
      </trkpt>
      <trkpt lat="44.94917" lon="6.49899">
        <ele>2134.2</ele>
        <time>2024-08-11T10:31:46Z</time>
      </trkpt>
      <trkpt lat="44.94917" lon="6.49901">
        <ele>2134.6</ele>
        <time>2024-08-11T10:31:47Z</time>
      </trkpt>
      <trkpt lat="44.94917" lon="6.49901">
        <ele>2134.8</ele>
        <time>2024-08-11T10:31:48Z</time>
      </trkpt>
      <trkpt lat="44.94916" lon="6.49904">
        <ele>2134.8</ele>
        <time>2024-08-11T10:31:49Z</time>
      </trkpt>
      <trkpt lat="44.94916" lon="6.49904">
        <ele>2135.2</ele>
        <time>2024-08-11T10:31:50Z</time>
      </trkpt>
      <trkpt lat="44.94916" lon="6.49904">
        <ele>2135.2</ele>
        <time>2024-08-11T10:31:51Z</time>
      </trkpt>
      <trkpt lat="44.94915" lon="6.49907">
        <ele>2135.2</ele>
        <time>2024-08-11T10:31:52Z</time>
      </trkpt>
      <trkpt lat="44.94915" lon="6.49907">
        <ele>2135.4</ele>
        <time>2024-08-11T10:31:53Z</time>
      </trkpt>
      <trkpt lat="44.94915" lon="6.49907">
        <ele>2135.4</ele>
        <time>2024-08-11T10:31:54Z</time>
      </trkpt>
      <trkpt lat="44.94914" lon="6.49909">
        <ele>2135.4</ele>
        <time>2024-08-11T10:31:55Z</time>
      </trkpt>
      <trkpt lat="44.94914" lon="6.49909">
        <ele>2135.6</ele>
        <time>2024-08-11T10:31:56Z</time>
      </trkpt>
      <trkpt lat="44.94914" lon="6.49909">
        <ele>2136.2</ele>
        <time>2024-08-11T10:31:57Z</time>
      </trkpt>
      <trkpt lat="44.94912" lon="6.49911">
        <ele>2136.2</ele>
        <time>2024-08-11T10:31:58Z</time>
      </trkpt>
      <trkpt lat="44.94912" lon="6.49911">
        <ele>2136.6</ele>
        <time>2024-08-11T10:31:59Z</time>
      </trkpt>
      <trkpt lat="44.94912" lon="6.49914">
        <ele>2136.6</ele>
        <time>2024-08-11T10:32:00Z</time>
      </trkpt>
      <trkpt lat="44.94912" lon="6.49914">
        <ele>2136.6</ele>
        <time>2024-08-11T10:32:01Z</time>
      </trkpt>
      <trkpt lat="44.94912" lon="6.49914">
        <ele>2137</ele>
        <time>2024-08-11T10:32:02Z</time>
      </trkpt>
      <trkpt lat="44.94911" lon="6.49917">
        <ele>2137.2</ele>
        <time>2024-08-11T10:32:03Z</time>
      </trkpt>
      <trkpt lat="44.94911" lon="6.49917">
        <ele>2137.6</ele>
        <time>2024-08-11T10:32:04Z</time>
      </trkpt>
      <trkpt lat="44.94911" lon="6.49917">
        <ele>2137.6</ele>
        <time>2024-08-11T10:32:05Z</time>
      </trkpt>
      <trkpt lat="44.94909" lon="6.4992">
        <ele>2138</ele>
        <time>2024-08-11T10:32:06Z</time>
      </trkpt>
      <trkpt lat="44.94909" lon="6.4992">
        <ele>2138.2</ele>
        <time>2024-08-11T10:32:07Z</time>
      </trkpt>
      <trkpt lat="44.94908" lon="6.49921">
        <ele>2138.4</ele>
        <time>2024-08-11T10:32:08Z</time>
      </trkpt>
      <trkpt lat="44.94908" lon="6.49921">
        <ele>2138.4</ele>
        <time>2024-08-11T10:32:09Z</time>
      </trkpt>
      <trkpt lat="44.94908" lon="6.49921">
        <ele>2139</ele>
        <time>2024-08-11T10:32:10Z</time>
      </trkpt>
      <trkpt lat="44.94908" lon="6.49921">
        <ele>2139</ele>
        <time>2024-08-11T10:32:11Z</time>
      </trkpt>
      <trkpt lat="44.94906" lon="6.49923">
        <ele>2139.4</ele>
        <time>2024-08-11T10:32:12Z</time>
      </trkpt>
      <trkpt lat="44.94906" lon="6.49923">
        <ele>2140</ele>
        <time>2024-08-11T10:32:13Z</time>
      </trkpt>
      <trkpt lat="44.94906" lon="6.49923">
        <ele>2140</ele>
        <time>2024-08-11T10:32:14Z</time>
      </trkpt>
      <trkpt lat="44.94906" lon="6.49923">
        <ele>2140</ele>
        <time>2024-08-11T10:32:15Z</time>
      </trkpt>
      <trkpt lat="44.94906" lon="6.49923">
        <ele>2140.4</ele>
        <time>2024-08-11T10:32:16Z</time>
      </trkpt>
      <trkpt lat="44.94906" lon="6.49923">
        <ele>2140.4</ele>
        <time>2024-08-11T10:32:17Z</time>
      </trkpt>
      <trkpt lat="44.94906" lon="6.49923">
        <ele>2140.6</ele>
        <time>2024-08-11T10:32:18Z</time>
      </trkpt>
      <trkpt lat="44.94906" lon="6.49923">
        <ele>2140.4</ele>
        <time>2024-08-11T10:32:19Z</time>
      </trkpt>
      <trkpt lat="44.94906" lon="6.49923">
        <ele>2140.2</ele>
        <time>2024-08-11T10:32:20Z</time>
      </trkpt>
      <trkpt lat="44.94906" lon="6.49923">
        <ele>2140</ele>
        <time>2024-08-11T10:32:21Z</time>
      </trkpt>
      <trkpt lat="44.94906" lon="6.49923">
        <ele>2140</ele>
        <time>2024-08-11T10:32:22Z</time>
      </trkpt>
      <trkpt lat="44.94906" lon="6.49923">
        <ele>2140</ele>
        <time>2024-08-11T10:32:23Z</time>
      </trkpt>
      <trkpt lat="44.94906" lon="6.49923">
        <ele>2140.2</ele>
        <time>2024-08-11T10:32:24Z</time>
      </trkpt>
      <trkpt lat="44.94906" lon="6.49923">
        <ele>2140.2</ele>
        <time>2024-08-11T10:32:25Z</time>
      </trkpt>
      <trkpt lat="44.94906" lon="6.49923">
        <ele>2140.2</ele>
        <time>2024-08-11T10:32:26Z</time>
      </trkpt>
      <trkpt lat="44.94906" lon="6.49923">
        <ele>2140.2</ele>
        <time>2024-08-11T10:32:27Z</time>
      </trkpt>
      <trkpt lat="44.94906" lon="6.49923">
        <ele>2140.2</ele>
        <time>2024-08-11T10:32:28Z</time>
      </trkpt>
      <trkpt lat="44.94906" lon="6.49923">
        <ele>2140.2</ele>
        <time>2024-08-11T10:32:29Z</time>
      </trkpt>
      <trkpt lat="44.94905" lon="6.49925">
        <ele>2140.6</ele>
        <time>2024-08-11T10:32:30Z</time>
      </trkpt>
      <trkpt lat="44.94905" lon="6.49925">
        <ele>2141</ele>
        <time>2024-08-11T10:32:31Z</time>
      </trkpt>
      <trkpt lat="44.94905" lon="6.49925">
        <ele>2141.2</ele>
        <time>2024-08-11T10:32:32Z</time>
      </trkpt>
      <trkpt lat="44.94904" lon="6.49928">
        <ele>2141.6</ele>
        <time>2024-08-11T10:32:33Z</time>
      </trkpt>
      <trkpt lat="44.94904" lon="6.49928">
        <ele>2142</ele>
        <time>2024-08-11T10:32:34Z</time>
      </trkpt>
      <trkpt lat="44.94904" lon="6.49928">
        <ele>2142</ele>
        <time>2024-08-11T10:32:35Z</time>
      </trkpt>
      <trkpt lat="44.94902" lon="6.4993">
        <ele>2142.2</ele>
        <time>2024-08-11T10:32:36Z</time>
      </trkpt>
      <trkpt lat="44.94902" lon="6.4993">
        <ele>2142.2</ele>
        <time>2024-08-11T10:32:37Z</time>
      </trkpt>
      <trkpt lat="44.94902" lon="6.4993">
        <ele>2142.2</ele>
        <time>2024-08-11T10:32:38Z</time>
      </trkpt>
      <trkpt lat="44.94902" lon="6.4993">
        <ele>2142.4</ele>
        <time>2024-08-11T10:32:39Z</time>
      </trkpt>
      <trkpt lat="44.94901" lon="6.49933">
        <ele>2142.8</ele>
        <time>2024-08-11T10:32:40Z</time>
      </trkpt>
      <trkpt lat="44.94901" lon="6.49933">
        <ele>2143.2</ele>
        <time>2024-08-11T10:32:41Z</time>
      </trkpt>
      <trkpt lat="44.94901" lon="6.49933">
        <ele>2143.2</ele>
        <time>2024-08-11T10:32:42Z</time>
      </trkpt>
      <trkpt lat="44.94899" lon="6.49936">
        <ele>2143.6</ele>
        <time>2024-08-11T10:32:43Z</time>
      </trkpt>
      <trkpt lat="44.94899" lon="6.49936">
        <ele>2143.8</ele>
        <time>2024-08-11T10:32:44Z</time>
      </trkpt>
      <trkpt lat="44.94899" lon="6.49936">
        <ele>2144</ele>
        <time>2024-08-11T10:32:45Z</time>
      </trkpt>
      <trkpt lat="44.94899" lon="6.49938">
        <ele>2144</ele>
        <time>2024-08-11T10:32:46Z</time>
      </trkpt>
      <trkpt lat="44.94899" lon="6.49938">
        <ele>2144.6</ele>
        <time>2024-08-11T10:32:47Z</time>
      </trkpt>
      <trkpt lat="44.94899" lon="6.49938">
        <ele>2144.6</ele>
        <time>2024-08-11T10:32:48Z</time>
      </trkpt>
      <trkpt lat="44.94899" lon="6.49938">
        <ele>2144.8</ele>
        <time>2024-08-11T10:32:49Z</time>
      </trkpt>
      <trkpt lat="44.94897" lon="6.49941">
        <ele>2145</ele>
        <time>2024-08-11T10:32:50Z</time>
      </trkpt>
      <trkpt lat="44.94897" lon="6.49941">
        <ele>2145</ele>
        <time>2024-08-11T10:32:51Z</time>
      </trkpt>
      <trkpt lat="44.94897" lon="6.49941">
        <ele>2145.2</ele>
        <time>2024-08-11T10:32:52Z</time>
      </trkpt>
      <trkpt lat="44.94897" lon="6.49941">
        <ele>2145.6</ele>
        <time>2024-08-11T10:32:53Z</time>
      </trkpt>
      <trkpt lat="44.94896" lon="6.49943">
        <ele>2145.8</ele>
        <time>2024-08-11T10:32:54Z</time>
      </trkpt>
      <trkpt lat="44.94896" lon="6.49943">
        <ele>2146</ele>
        <time>2024-08-11T10:32:55Z</time>
      </trkpt>
      <trkpt lat="44.94896" lon="6.49943">
        <ele>2146.4</ele>
        <time>2024-08-11T10:32:56Z</time>
      </trkpt>
      <trkpt lat="44.94894" lon="6.49945">
        <ele>2146.4</ele>
        <time>2024-08-11T10:32:57Z</time>
      </trkpt>
      <trkpt lat="44.94894" lon="6.49945">
        <ele>2146.6</ele>
        <time>2024-08-11T10:32:58Z</time>
      </trkpt>
      <trkpt lat="44.94894" lon="6.49945">
        <ele>2146.6</ele>
        <time>2024-08-11T10:32:59Z</time>
      </trkpt>
      <trkpt lat="44.94894" lon="6.49945">
        <ele>2146.8</ele>
        <time>2024-08-11T10:33:00Z</time>
      </trkpt>
      <trkpt lat="44.94894" lon="6.49945">
        <ele>2147.4</ele>
        <time>2024-08-11T10:33:01Z</time>
      </trkpt>
      <trkpt lat="44.94893" lon="6.49948">
        <ele>2147.4</ele>
        <time>2024-08-11T10:33:02Z</time>
      </trkpt>
      <trkpt lat="44.94893" lon="6.49948">
        <ele>2147.4</ele>
        <time>2024-08-11T10:33:03Z</time>
      </trkpt>
      <trkpt lat="44.94893" lon="6.49948">
        <ele>2147.8</ele>
        <time>2024-08-11T10:33:04Z</time>
      </trkpt>
      <trkpt lat="44.94893" lon="6.49948">
        <ele>2148.2</ele>
        <time>2024-08-11T10:33:05Z</time>
      </trkpt>
      <trkpt lat="44.94891" lon="6.4995">
        <ele>2148.2</ele>
        <time>2024-08-11T10:33:06Z</time>
      </trkpt>
      <trkpt lat="44.94891" lon="6.4995">
        <ele>2148.4</ele>
        <time>2024-08-11T10:33:07Z</time>
      </trkpt>
      <trkpt lat="44.94891" lon="6.4995">
        <ele>2148.6</ele>
        <time>2024-08-11T10:33:08Z</time>
      </trkpt>
      <trkpt lat="44.94891" lon="6.4995">
        <ele>2149</ele>
        <time>2024-08-11T10:33:09Z</time>
      </trkpt>
      <trkpt lat="44.9489" lon="6.49952">
        <ele>2149.2</ele>
        <time>2024-08-11T10:33:10Z</time>
      </trkpt>
      <trkpt lat="44.9489" lon="6.49952">
        <ele>2149.4</ele>
        <time>2024-08-11T10:33:11Z</time>
      </trkpt>
      <trkpt lat="44.9489" lon="6.49952">
        <ele>2149.8</ele>
        <time>2024-08-11T10:33:12Z</time>
      </trkpt>
      <trkpt lat="44.94888" lon="6.49954">
        <ele>2150</ele>
        <time>2024-08-11T10:33:13Z</time>
      </trkpt>
      <trkpt lat="44.94888" lon="6.49954">
        <ele>2150.2</ele>
        <time>2024-08-11T10:33:14Z</time>
      </trkpt>
      <trkpt lat="44.94888" lon="6.49954">
        <ele>2150.4</ele>
        <time>2024-08-11T10:33:15Z</time>
      </trkpt>
      <trkpt lat="44.94888" lon="6.49954">
        <ele>2150.6</ele>
        <time>2024-08-11T10:33:16Z</time>
      </trkpt>
      <trkpt lat="44.94887" lon="6.49957">
        <ele>2150.6</ele>
        <time>2024-08-11T10:33:17Z</time>
      </trkpt>
      <trkpt lat="44.94887" lon="6.49957">
        <ele>2151</ele>
        <time>2024-08-11T10:33:18Z</time>
      </trkpt>
      <trkpt lat="44.94887" lon="6.49957">
        <ele>2151</ele>
        <time>2024-08-11T10:33:19Z</time>
      </trkpt>
      <trkpt lat="44.94886" lon="6.4996">
        <ele>2151.2</ele>
        <time>2024-08-11T10:33:20Z</time>
      </trkpt>
      <trkpt lat="44.94886" lon="6.4996">
        <ele>2152</ele>
        <time>2024-08-11T10:33:21Z</time>
      </trkpt>
      <trkpt lat="44.94886" lon="6.4996">
        <ele>2152</ele>
        <time>2024-08-11T10:33:22Z</time>
      </trkpt>
      <trkpt lat="44.94885" lon="6.49961">
        <ele>2152</ele>
        <time>2024-08-11T10:33:23Z</time>
      </trkpt>
      <trkpt lat="44.94885" lon="6.49961">
        <ele>2152.2</ele>
        <time>2024-08-11T10:33:24Z</time>
      </trkpt>
      <trkpt lat="44.94885" lon="6.49961">
        <ele>2152.4</ele>
        <time>2024-08-11T10:33:25Z</time>
      </trkpt>
      <trkpt lat="44.94885" lon="6.49961">
        <ele>2152.6</ele>
        <time>2024-08-11T10:33:26Z</time>
      </trkpt>
      <trkpt lat="44.94882" lon="6.49963">
        <ele>2152.8</ele>
        <time>2024-08-11T10:33:27Z</time>
      </trkpt>
      <trkpt lat="44.94882" lon="6.49963">
        <ele>2152.8</ele>
        <time>2024-08-11T10:33:28Z</time>
      </trkpt>
      <trkpt lat="44.9488" lon="6.49963">
        <ele>2152.8</ele>
        <time>2024-08-11T10:33:29Z</time>
      </trkpt>
      <trkpt lat="44.9488" lon="6.49963">
        <ele>2153</ele>
        <time>2024-08-11T10:33:30Z</time>
      </trkpt>
      <trkpt lat="44.94878" lon="6.49963">
        <ele>2153.2</ele>
        <time>2024-08-11T10:33:31Z</time>
      </trkpt>
      <trkpt lat="44.94878" lon="6.49963">
        <ele>2153.2</ele>
        <time>2024-08-11T10:33:32Z</time>
      </trkpt>
      <trkpt lat="44.94877" lon="6.49963">
        <ele>2153.4</ele>
        <time>2024-08-11T10:33:33Z</time>
      </trkpt>
      <trkpt lat="44.94877" lon="6.49963">
        <ele>2153.4</ele>
        <time>2024-08-11T10:33:34Z</time>
      </trkpt>
      <trkpt lat="44.94877" lon="6.49963">
        <ele>2153.4</ele>
        <time>2024-08-11T10:33:35Z</time>
      </trkpt>
      <trkpt lat="44.94874" lon="6.49964">
        <ele>2153.6</ele>
        <time>2024-08-11T10:33:36Z</time>
      </trkpt>
      <trkpt lat="44.94874" lon="6.49964">
        <ele>2153.6</ele>
        <time>2024-08-11T10:33:37Z</time>
      </trkpt>
      <trkpt lat="44.94874" lon="6.49964">
        <ele>2153.8</ele>
        <time>2024-08-11T10:33:38Z</time>
      </trkpt>
      <trkpt lat="44.94872" lon="6.49965">
        <ele>2154</ele>
        <time>2024-08-11T10:33:39Z</time>
      </trkpt>
      <trkpt lat="44.94872" lon="6.49965">
        <ele>2154</ele>
        <time>2024-08-11T10:33:40Z</time>
      </trkpt>
      <trkpt lat="44.94872" lon="6.49965">
        <ele>2154.4</ele>
        <time>2024-08-11T10:33:41Z</time>
      </trkpt>
      <trkpt lat="44.9487" lon="6.49967">
        <ele>2154.4</ele>
        <time>2024-08-11T10:33:42Z</time>
      </trkpt>
      <trkpt lat="44.9487" lon="6.49967">
        <ele>2154.4</ele>
        <time>2024-08-11T10:33:43Z</time>
      </trkpt>
      <trkpt lat="44.9487" lon="6.49967">
        <ele>2155</ele>
        <time>2024-08-11T10:33:44Z</time>
      </trkpt>
      <trkpt lat="44.94869" lon="6.49968">
        <ele>2155</ele>
        <time>2024-08-11T10:33:45Z</time>
      </trkpt>
      <trkpt lat="44.94869" lon="6.49968">
        <ele>2155</ele>
        <time>2024-08-11T10:33:46Z</time>
      </trkpt>
      <trkpt lat="44.94867" lon="6.4997">
        <ele>2155.4</ele>
        <time>2024-08-11T10:33:47Z</time>
      </trkpt>
      <trkpt lat="44.94867" lon="6.4997">
        <ele>2155.6</ele>
        <time>2024-08-11T10:33:48Z</time>
      </trkpt>
      <trkpt lat="44.94867" lon="6.4997">
        <ele>2156.2</ele>
        <time>2024-08-11T10:33:49Z</time>
      </trkpt>
      <trkpt lat="44.94864" lon="6.49972">
        <ele>2156.6</ele>
        <time>2024-08-11T10:33:50Z</time>
      </trkpt>
      <trkpt lat="44.94864" lon="6.49972">
        <ele>2156.6</ele>
        <time>2024-08-11T10:33:51Z</time>
      </trkpt>
      <trkpt lat="44.94864" lon="6.49972">
        <ele>2156.6</ele>
        <time>2024-08-11T10:33:52Z</time>
      </trkpt>
      <trkpt lat="44.94862" lon="6.49973">
        <ele>2156.6</ele>
        <time>2024-08-11T10:33:53Z</time>
      </trkpt>
      <trkpt lat="44.94862" lon="6.49973">
        <ele>2156.8</ele>
        <time>2024-08-11T10:33:54Z</time>
      </trkpt>
      <trkpt lat="44.94862" lon="6.49973">
        <ele>2156.8</ele>
        <time>2024-08-11T10:33:55Z</time>
      </trkpt>
      <trkpt lat="44.9486" lon="6.49976">
        <ele>2157.2</ele>
        <time>2024-08-11T10:33:56Z</time>
      </trkpt>
      <trkpt lat="44.9486" lon="6.49976">
        <ele>2157.4</ele>
        <time>2024-08-11T10:33:57Z</time>
      </trkpt>
      <trkpt lat="44.9486" lon="6.49976">
        <ele>2157.4</ele>
        <time>2024-08-11T10:33:58Z</time>
      </trkpt>
      <trkpt lat="44.9486" lon="6.49976">
        <ele>2157.4</ele>
        <time>2024-08-11T10:33:59Z</time>
      </trkpt>
      <trkpt lat="44.94859" lon="6.4998">
        <ele>2157.8</ele>
        <time>2024-08-11T10:34:00Z</time>
      </trkpt>
      <trkpt lat="44.94859" lon="6.4998">
        <ele>2157.8</ele>
        <time>2024-08-11T10:34:01Z</time>
      </trkpt>
      <trkpt lat="44.94857" lon="6.49982">
        <ele>2158</ele>
        <time>2024-08-11T10:34:02Z</time>
      </trkpt>
      <trkpt lat="44.94857" lon="6.49982">
        <ele>2158</ele>
        <time>2024-08-11T10:34:03Z</time>
      </trkpt>
      <trkpt lat="44.94857" lon="6.49982">
        <ele>2158</ele>
        <time>2024-08-11T10:34:04Z</time>
      </trkpt>
      <trkpt lat="44.94856" lon="6.49985">
        <ele>2158.2</ele>
        <time>2024-08-11T10:34:05Z</time>
      </trkpt>
      <trkpt lat="44.94856" lon="6.49985">
        <ele>2158.4</ele>
        <time>2024-08-11T10:34:06Z</time>
      </trkpt>
      <trkpt lat="44.94855" lon="6.49988">
        <ele>2158.6</ele>
        <time>2024-08-11T10:34:07Z</time>
      </trkpt>
      <trkpt lat="44.94855" lon="6.49988">
        <ele>2158.6</ele>
        <time>2024-08-11T10:34:08Z</time>
      </trkpt>
      <trkpt lat="44.94855" lon="6.49988">
        <ele>2158.6</ele>
        <time>2024-08-11T10:34:09Z</time>
      </trkpt>
      <trkpt lat="44.94854" lon="6.49991">
        <ele>2158.6</ele>
        <time>2024-08-11T10:34:10Z</time>
      </trkpt>
      <trkpt lat="44.94854" lon="6.49991">
        <ele>2158.6</ele>
        <time>2024-08-11T10:34:11Z</time>
      </trkpt>
      <trkpt lat="44.94854" lon="6.49991">
        <ele>2158.6</ele>
        <time>2024-08-11T10:34:12Z</time>
      </trkpt>
      <trkpt lat="44.94854" lon="6.49991">
        <ele>2158.6</ele>
        <time>2024-08-11T10:34:13Z</time>
      </trkpt>
      <trkpt lat="44.94854" lon="6.49991">
        <ele>2158.8</ele>
        <time>2024-08-11T10:34:14Z</time>
      </trkpt>
      <trkpt lat="44.94854" lon="6.49991">
        <ele>2159</ele>
        <time>2024-08-11T10:34:15Z</time>
      </trkpt>
      <trkpt lat="44.94854" lon="6.49991">
        <ele>2158.8</ele>
        <time>2024-08-11T10:34:16Z</time>
      </trkpt>
      <trkpt lat="44.94854" lon="6.49991">
        <ele>2158.8</ele>
        <time>2024-08-11T10:34:17Z</time>
      </trkpt>
      <trkpt lat="44.94854" lon="6.49991">
        <ele>2159.2</ele>
        <time>2024-08-11T10:34:18Z</time>
      </trkpt>
      <trkpt lat="44.94854" lon="6.49991">
        <ele>2159.2</ele>
        <time>2024-08-11T10:34:19Z</time>
      </trkpt>
      <trkpt lat="44.94854" lon="6.49991">
        <ele>2158.8</ele>
        <time>2024-08-11T10:34:20Z</time>
      </trkpt>
      <trkpt lat="44.94854" lon="6.49991">
        <ele>2158.8</ele>
        <time>2024-08-11T10:34:21Z</time>
      </trkpt>
      <trkpt lat="44.94854" lon="6.49991">
        <ele>2158.6</ele>
        <time>2024-08-11T10:34:22Z</time>
      </trkpt>
      <trkpt lat="44.94854" lon="6.49991">
        <ele>2158.6</ele>
        <time>2024-08-11T10:34:23Z</time>
      </trkpt>
      <trkpt lat="44.94854" lon="6.49991">
        <ele>2158.8</ele>
        <time>2024-08-11T10:34:24Z</time>
      </trkpt>
      <trkpt lat="44.94854" lon="6.49995">
        <ele>2159</ele>
        <time>2024-08-11T10:34:25Z</time>
      </trkpt>
      <trkpt lat="44.94854" lon="6.49995">
        <ele>2159.2</ele>
        <time>2024-08-11T10:34:26Z</time>
      </trkpt>
      <trkpt lat="44.94854" lon="6.49995">
        <ele>2159.2</ele>
        <time>2024-08-11T10:34:27Z</time>
      </trkpt>
      <trkpt lat="44.94854" lon="6.5">
        <ele>2159</ele>
        <time>2024-08-11T10:34:28Z</time>
      </trkpt>
      <trkpt lat="44.94855" lon="6.50001">
        <ele>2159</ele>
        <time>2024-08-11T10:34:29Z</time>
      </trkpt>
      <trkpt lat="44.94855" lon="6.50001">
        <ele>2159</ele>
        <time>2024-08-11T10:34:30Z</time>
      </trkpt>
      <trkpt lat="44.94856" lon="6.50003">
        <ele>2159.2</ele>
        <time>2024-08-11T10:34:31Z</time>
      </trkpt>
      <trkpt lat="44.94856" lon="6.50003">
        <ele>2159.4</ele>
        <time>2024-08-11T10:34:32Z</time>
      </trkpt>
      <trkpt lat="44.94858" lon="6.50005">
        <ele>2159.6</ele>
        <time>2024-08-11T10:34:33Z</time>
      </trkpt>
      <trkpt lat="44.94858" lon="6.50005">
        <ele>2159.6</ele>
        <time>2024-08-11T10:34:34Z</time>
      </trkpt>
      <trkpt lat="44.94858" lon="6.50005">
        <ele>2159.6</ele>
        <time>2024-08-11T10:34:35Z</time>
      </trkpt>
      <trkpt lat="44.9486" lon="6.50006">
        <ele>2159.8</ele>
        <time>2024-08-11T10:34:36Z</time>
      </trkpt>
      <trkpt lat="44.9486" lon="6.50006">
        <ele>2159.8</ele>
        <time>2024-08-11T10:34:37Z</time>
      </trkpt>
      <trkpt lat="44.9486" lon="6.50006">
        <ele>2160</ele>
        <time>2024-08-11T10:34:38Z</time>
      </trkpt>
      <trkpt lat="44.94862" lon="6.50007">
        <ele>2160.2</ele>
        <time>2024-08-11T10:34:39Z</time>
      </trkpt>
      <trkpt lat="44.94862" lon="6.50007">
        <ele>2160.4</ele>
        <time>2024-08-11T10:34:40Z</time>
      </trkpt>
      <trkpt lat="44.94864" lon="6.50008">
        <ele>2160.6</ele>
        <time>2024-08-11T10:34:41Z</time>
      </trkpt>
      <trkpt lat="44.94864" lon="6.50008">
        <ele>2160.6</ele>
        <time>2024-08-11T10:34:42Z</time>
      </trkpt>
      <trkpt lat="44.94864" lon="6.50008">
        <ele>2160.8</ele>
        <time>2024-08-11T10:34:43Z</time>
      </trkpt>
      <trkpt lat="44.94866" lon="6.5001">
        <ele>2161</ele>
        <time>2024-08-11T10:34:44Z</time>
      </trkpt>
      <trkpt lat="44.94866" lon="6.5001">
        <ele>2161.2</ele>
        <time>2024-08-11T10:34:45Z</time>
      </trkpt>
      <trkpt lat="44.94866" lon="6.5001">
        <ele>2161.4</ele>
        <time>2024-08-11T10:34:46Z</time>
      </trkpt>
      <trkpt lat="44.94869" lon="6.50011">
        <ele>2161.6</ele>
        <time>2024-08-11T10:34:47Z</time>
      </trkpt>
      <trkpt lat="44.94869" lon="6.50011">
        <ele>2161.6</ele>
        <time>2024-08-11T10:34:48Z</time>
      </trkpt>
      <trkpt lat="44.94869" lon="6.50011">
        <ele>2162</ele>
        <time>2024-08-11T10:34:49Z</time>
      </trkpt>
      <trkpt lat="44.94871" lon="6.50012">
        <ele>2162.2</ele>
        <time>2024-08-11T10:34:50Z</time>
      </trkpt>
      <trkpt lat="44.94871" lon="6.50012">
        <ele>2162.6</ele>
        <time>2024-08-11T10:34:51Z</time>
      </trkpt>
      <trkpt lat="44.94873" lon="6.50013">
        <ele>2162.6</ele>
        <time>2024-08-11T10:34:52Z</time>
      </trkpt>
      <trkpt lat="44.94873" lon="6.50013">
        <ele>2162.6</ele>
        <time>2024-08-11T10:34:53Z</time>
      </trkpt>
      <trkpt lat="44.94874" lon="6.50014">
        <ele>2162.6</ele>
        <time>2024-08-11T10:34:54Z</time>
      </trkpt>
      <trkpt lat="44.94874" lon="6.50014">
        <ele>2163</ele>
        <time>2024-08-11T10:34:55Z</time>
      </trkpt>
      <trkpt lat="44.94874" lon="6.50014">
        <ele>2163.2</ele>
        <time>2024-08-11T10:34:56Z</time>
      </trkpt>
      <trkpt lat="44.94877" lon="6.50015">
        <ele>2163.4</ele>
        <time>2024-08-11T10:34:57Z</time>
      </trkpt>
      <trkpt lat="44.94877" lon="6.50015">
        <ele>2163.6</ele>
        <time>2024-08-11T10:34:58Z</time>
      </trkpt>
      <trkpt lat="44.94878" lon="6.50016">
        <ele>2163.8</ele>
        <time>2024-08-11T10:34:59Z</time>
      </trkpt>
      <trkpt lat="44.94878" lon="6.50016">
        <ele>2164</ele>
        <time>2024-08-11T10:35:00Z</time>
      </trkpt>
      <trkpt lat="44.9488" lon="6.50016">
        <ele>2164.2</ele>
        <time>2024-08-11T10:35:01Z</time>
      </trkpt>
      <trkpt lat="44.9488" lon="6.50016">
        <ele>2164.4</ele>
        <time>2024-08-11T10:35:02Z</time>
      </trkpt>
      <trkpt lat="44.94882" lon="6.50017">
        <ele>2164.4</ele>
        <time>2024-08-11T10:35:03Z</time>
      </trkpt>
      <trkpt lat="44.94882" lon="6.50017">
        <ele>2164.8</ele>
        <time>2024-08-11T10:35:04Z</time>
      </trkpt>
      <trkpt lat="44.94882" lon="6.50017">
        <ele>2165</ele>
        <time>2024-08-11T10:35:05Z</time>
      </trkpt>
      <trkpt lat="44.94885" lon="6.50018">
        <ele>2165</ele>
        <time>2024-08-11T10:35:06Z</time>
      </trkpt>
      <trkpt lat="44.94885" lon="6.50018">
        <ele>2165</ele>
        <time>2024-08-11T10:35:07Z</time>
      </trkpt>
      <trkpt lat="44.94886" lon="6.50021">
        <ele>2165.2</ele>
        <time>2024-08-11T10:35:08Z</time>
      </trkpt>
      <trkpt lat="44.94886" lon="6.50021">
        <ele>2165.4</ele>
        <time>2024-08-11T10:35:09Z</time>
      </trkpt>
      <trkpt lat="44.94886" lon="6.50023">
        <ele>2165.8</ele>
        <time>2024-08-11T10:35:10Z</time>
      </trkpt>
      <trkpt lat="44.94886" lon="6.50023">
        <ele>2166</ele>
        <time>2024-08-11T10:35:11Z</time>
      </trkpt>
      <trkpt lat="44.94884" lon="6.50025">
        <ele>2166.6</ele>
        <time>2024-08-11T10:35:12Z</time>
      </trkpt>
      <trkpt lat="44.94884" lon="6.50025">
        <ele>2166.8</ele>
        <time>2024-08-11T10:35:13Z</time>
      </trkpt>
      <trkpt lat="44.94883" lon="6.50027">
        <ele>2166.8</ele>
        <time>2024-08-11T10:35:14Z</time>
      </trkpt>
      <trkpt lat="44.94883" lon="6.50027">
        <ele>2167</ele>
        <time>2024-08-11T10:35:15Z</time>
      </trkpt>
      <trkpt lat="44.94883" lon="6.50027">
        <ele>2167</ele>
        <time>2024-08-11T10:35:16Z</time>
      </trkpt>
      <trkpt lat="44.94883" lon="6.50027">
        <ele>2167.4</ele>
        <time>2024-08-11T10:35:17Z</time>
      </trkpt>
      <trkpt lat="44.94883" lon="6.50027">
        <ele>2167.6</ele>
        <time>2024-08-11T10:35:18Z</time>
      </trkpt>
      <trkpt lat="44.94883" lon="6.50027">
        <ele>2167.6</ele>
        <time>2024-08-11T10:35:19Z</time>
      </trkpt>
      <trkpt lat="44.94883" lon="6.50027">
        <ele>2167.6</ele>
        <time>2024-08-11T10:35:20Z</time>
      </trkpt>
      <trkpt lat="44.94883" lon="6.50027">
        <ele>2167.6</ele>
        <time>2024-08-11T10:35:21Z</time>
      </trkpt>
      <trkpt lat="44.94883" lon="6.50027">
        <ele>2167.6</ele>
        <time>2024-08-11T10:35:22Z</time>
      </trkpt>
      <trkpt lat="44.94883" lon="6.50027">
        <ele>2167.6</ele>
        <time>2024-08-11T10:35:23Z</time>
      </trkpt>
      <trkpt lat="44.94883" lon="6.50027">
        <ele>2167.4</ele>
        <time>2024-08-11T10:35:24Z</time>
      </trkpt>
      <trkpt lat="44.94883" lon="6.50027">
        <ele>2167.4</ele>
        <time>2024-08-11T10:35:25Z</time>
      </trkpt>
      <trkpt lat="44.94883" lon="6.50027">
        <ele>2167.6</ele>
        <time>2024-08-11T10:35:26Z</time>
      </trkpt>
      <trkpt lat="44.94883" lon="6.50027">
        <ele>2167.6</ele>
        <time>2024-08-11T10:35:27Z</time>
      </trkpt>
      <trkpt lat="44.94883" lon="6.50027">
        <ele>2167.6</ele>
        <time>2024-08-11T10:35:28Z</time>
      </trkpt>
      <trkpt lat="44.94883" lon="6.50027">
        <ele>2167.8</ele>
        <time>2024-08-11T10:35:29Z</time>
      </trkpt>
      <trkpt lat="44.94883" lon="6.50027">
        <ele>2167.8</ele>
        <time>2024-08-11T10:35:30Z</time>
      </trkpt>
      <trkpt lat="44.94883" lon="6.50027">
        <ele>2167.8</ele>
        <time>2024-08-11T10:35:31Z</time>
      </trkpt>
      <trkpt lat="44.9488" lon="6.50027">
        <ele>2167.8</ele>
        <time>2024-08-11T10:35:32Z</time>
      </trkpt>
      <trkpt lat="44.9488" lon="6.50027">
        <ele>2168</ele>
        <time>2024-08-11T10:35:33Z</time>
      </trkpt>
      <trkpt lat="44.94878" lon="6.50029">
        <ele>2168</ele>
        <time>2024-08-11T10:35:34Z</time>
      </trkpt>
      <trkpt lat="44.94878" lon="6.50029">
        <ele>2168</ele>
        <time>2024-08-11T10:35:35Z</time>
      </trkpt>
      <trkpt lat="44.94876" lon="6.50032">
        <ele>2168.4</ele>
        <time>2024-08-11T10:35:36Z</time>
      </trkpt>
      <trkpt lat="44.94876" lon="6.50032">
        <ele>2168.4</ele>
        <time>2024-08-11T10:35:37Z</time>
      </trkpt>
      <trkpt lat="44.94874" lon="6.50034">
        <ele>2168.6</ele>
        <time>2024-08-11T10:35:38Z</time>
      </trkpt>
      <trkpt lat="44.94874" lon="6.50034">
        <ele>2168.8</ele>
        <time>2024-08-11T10:35:39Z</time>
      </trkpt>
      <trkpt lat="44.94872" lon="6.50035">
        <ele>2168.8</ele>
        <time>2024-08-11T10:35:40Z</time>
      </trkpt>
      <trkpt lat="44.94872" lon="6.50035">
        <ele>2168.8</ele>
        <time>2024-08-11T10:35:41Z</time>
      </trkpt>
      <trkpt lat="44.94872" lon="6.50035">
        <ele>2169</ele>
        <time>2024-08-11T10:35:42Z</time>
      </trkpt>
      <trkpt lat="44.94869" lon="6.50037">
        <ele>2169</ele>
        <time>2024-08-11T10:35:43Z</time>
      </trkpt>
      <trkpt lat="44.94869" lon="6.50037">
        <ele>2169.2</ele>
        <time>2024-08-11T10:35:44Z</time>
      </trkpt>
      <trkpt lat="44.94869" lon="6.50037">
        <ele>2169.4</ele>
        <time>2024-08-11T10:35:45Z</time>
      </trkpt>
      <trkpt lat="44.94867" lon="6.50038">
        <ele>2169.4</ele>
        <time>2024-08-11T10:35:46Z</time>
      </trkpt>
      <trkpt lat="44.94867" lon="6.50038">
        <ele>2169.4</ele>
        <time>2024-08-11T10:35:47Z</time>
      </trkpt>
      <trkpt lat="44.94865" lon="6.50039">
        <ele>2169.6</ele>
        <time>2024-08-11T10:35:48Z</time>
      </trkpt>
      <trkpt lat="44.94865" lon="6.50039">
        <ele>2169.6</ele>
        <time>2024-08-11T10:35:49Z</time>
      </trkpt>
      <trkpt lat="44.94863" lon="6.5004">
        <ele>2169.8</ele>
        <time>2024-08-11T10:35:50Z</time>
      </trkpt>
      <trkpt lat="44.94863" lon="6.5004">
        <ele>2170</ele>
        <time>2024-08-11T10:35:51Z</time>
      </trkpt>
      <trkpt lat="44.94862" lon="6.50041">
        <ele>2170</ele>
        <time>2024-08-11T10:35:52Z</time>
      </trkpt>
      <trkpt lat="44.94862" lon="6.50041">
        <ele>2170.4</ele>
        <time>2024-08-11T10:35:53Z</time>
      </trkpt>
      <trkpt lat="44.9486" lon="6.50043">
        <ele>2170.6</ele>
        <time>2024-08-11T10:35:54Z</time>
      </trkpt>
      <trkpt lat="44.9486" lon="6.50043">
        <ele>2170.8</ele>
        <time>2024-08-11T10:35:55Z</time>
      </trkpt>
      <trkpt lat="44.9486" lon="6.50043">
        <ele>2170.8</ele>
        <time>2024-08-11T10:35:56Z</time>
      </trkpt>
      <trkpt lat="44.94859" lon="6.50045">
        <ele>2170.8</ele>
        <time>2024-08-11T10:35:57Z</time>
      </trkpt>
      <trkpt lat="44.94859" lon="6.50045">
        <ele>2171.2</ele>
        <time>2024-08-11T10:35:58Z</time>
      </trkpt>
      <trkpt lat="44.94857" lon="6.50047">
        <ele>2171.2</ele>
        <time>2024-08-11T10:35:59Z</time>
      </trkpt>
      <trkpt lat="44.94857" lon="6.50047">
        <ele>2171.2</ele>
        <time>2024-08-11T10:36:00Z</time>
      </trkpt>
      <trkpt lat="44.94855" lon="6.50049">
        <ele>2171.2</ele>
        <time>2024-08-11T10:36:01Z</time>
      </trkpt>
      <trkpt lat="44.94855" lon="6.50049">
        <ele>2171.6</ele>
        <time>2024-08-11T10:36:02Z</time>
      </trkpt>
      <trkpt lat="44.94855" lon="6.50049">
        <ele>2171.6</ele>
        <time>2024-08-11T10:36:03Z</time>
      </trkpt>
      <trkpt lat="44.94855" lon="6.50049">
        <ele>2171.6</ele>
        <time>2024-08-11T10:36:04Z</time>
      </trkpt>
      <trkpt lat="44.94853" lon="6.50051">
        <ele>2172</ele>
        <time>2024-08-11T10:36:05Z</time>
      </trkpt>
      <trkpt lat="44.94853" lon="6.50051">
        <ele>2172.2</ele>
        <time>2024-08-11T10:36:06Z</time>
      </trkpt>
      <trkpt lat="44.94853" lon="6.50051">
        <ele>2172.2</ele>
        <time>2024-08-11T10:36:07Z</time>
      </trkpt>
      <trkpt lat="44.94852" lon="6.50054">
        <ele>2172.4</ele>
        <time>2024-08-11T10:36:08Z</time>
      </trkpt>
      <trkpt lat="44.94852" lon="6.50054">
        <ele>2172.6</ele>
        <time>2024-08-11T10:36:09Z</time>
      </trkpt>
      <trkpt lat="44.94852" lon="6.50054">
        <ele>2172.8</ele>
        <time>2024-08-11T10:36:10Z</time>
      </trkpt>
      <trkpt lat="44.94851" lon="6.50055">
        <ele>2173.2</ele>
        <time>2024-08-11T10:36:11Z</time>
      </trkpt>
      <trkpt lat="44.94851" lon="6.50055">
        <ele>2173.2</ele>
        <time>2024-08-11T10:36:12Z</time>
      </trkpt>
      <trkpt lat="44.94851" lon="6.50055">
        <ele>2173.2</ele>
        <time>2024-08-11T10:36:13Z</time>
      </trkpt>
      <trkpt lat="44.94849" lon="6.50057">
        <ele>2173.8</ele>
        <time>2024-08-11T10:36:14Z</time>
      </trkpt>
      <trkpt lat="44.94849" lon="6.50057">
        <ele>2173.8</ele>
        <time>2024-08-11T10:36:15Z</time>
      </trkpt>
      <trkpt lat="44.94847" lon="6.50059">
        <ele>2173.8</ele>
        <time>2024-08-11T10:36:16Z</time>
      </trkpt>
      <trkpt lat="44.94847" lon="6.50059">
        <ele>2173.8</ele>
        <time>2024-08-11T10:36:17Z</time>
      </trkpt>
      <trkpt lat="44.94845" lon="6.50059">
        <ele>2173.8</ele>
        <time>2024-08-11T10:36:18Z</time>
      </trkpt>
      <trkpt lat="44.94845" lon="6.50059">
        <ele>2173.8</ele>
        <time>2024-08-11T10:36:19Z</time>
      </trkpt>
      <trkpt lat="44.94844" lon="6.50059">
        <ele>2173.8</ele>
        <time>2024-08-11T10:36:20Z</time>
      </trkpt>
      <trkpt lat="44.94844" lon="6.50059">
        <ele>2173.8</ele>
        <time>2024-08-11T10:36:21Z</time>
      </trkpt>
      <trkpt lat="44.94841" lon="6.5006">
        <ele>2174</ele>
        <time>2024-08-11T10:36:22Z</time>
      </trkpt>
      <trkpt lat="44.94841" lon="6.5006">
        <ele>2174</ele>
        <time>2024-08-11T10:36:23Z</time>
      </trkpt>
      <trkpt lat="44.94839" lon="6.50061">
        <ele>2174</ele>
        <time>2024-08-11T10:36:24Z</time>
      </trkpt>
      <trkpt lat="44.94839" lon="6.50061">
        <ele>2174.2</ele>
        <time>2024-08-11T10:36:25Z</time>
      </trkpt>
      <trkpt lat="44.94837" lon="6.50062">
        <ele>2174.4</ele>
        <time>2024-08-11T10:36:26Z</time>
      </trkpt>
      <trkpt lat="44.94837" lon="6.50062">
        <ele>2174.4</ele>
        <time>2024-08-11T10:36:27Z</time>
      </trkpt>
      <trkpt lat="44.94835" lon="6.50062">
        <ele>2174.6</ele>
        <time>2024-08-11T10:36:28Z</time>
      </trkpt>
      <trkpt lat="44.94835" lon="6.50062">
        <ele>2174.6</ele>
        <time>2024-08-11T10:36:29Z</time>
      </trkpt>
      <trkpt lat="44.94833" lon="6.50063">
        <ele>2174.6</ele>
        <time>2024-08-11T10:36:30Z</time>
      </trkpt>
      <trkpt lat="44.94833" lon="6.50063">
        <ele>2174.8</ele>
        <time>2024-08-11T10:36:31Z</time>
      </trkpt>
      <trkpt lat="44.94831" lon="6.50064">
        <ele>2175</ele>
        <time>2024-08-11T10:36:32Z</time>
      </trkpt>
      <trkpt lat="44.94831" lon="6.50064">
        <ele>2175</ele>
        <time>2024-08-11T10:36:33Z</time>
      </trkpt>
      <trkpt lat="44.94831" lon="6.50064">
        <ele>2175.2</ele>
        <time>2024-08-11T10:36:34Z</time>
      </trkpt>
      <trkpt lat="44.94829" lon="6.50064">
        <ele>2175.4</ele>
        <time>2024-08-11T10:36:35Z</time>
      </trkpt>
      <trkpt lat="44.94829" lon="6.50064">
        <ele>2175.8</ele>
        <time>2024-08-11T10:36:36Z</time>
      </trkpt>
      <trkpt lat="44.94829" lon="6.50064">
        <ele>2175.8</ele>
        <time>2024-08-11T10:36:37Z</time>
      </trkpt>
      <trkpt lat="44.94827" lon="6.50066">
        <ele>2175.8</ele>
        <time>2024-08-11T10:36:38Z</time>
      </trkpt>
      <trkpt lat="44.94827" lon="6.50066">
        <ele>2176.2</ele>
        <time>2024-08-11T10:36:39Z</time>
      </trkpt>
      <trkpt lat="44.94827" lon="6.50066">
        <ele>2176.4</ele>
        <time>2024-08-11T10:36:40Z</time>
      </trkpt>
      <trkpt lat="44.94825" lon="6.50067">
        <ele>2176.6</ele>
        <time>2024-08-11T10:36:41Z</time>
      </trkpt>
      <trkpt lat="44.94825" lon="6.50067">
        <ele>2177</ele>
        <time>2024-08-11T10:36:42Z</time>
      </trkpt>
      <trkpt lat="44.94825" lon="6.50067">
        <ele>2177</ele>
        <time>2024-08-11T10:36:43Z</time>
      </trkpt>
      <trkpt lat="44.94825" lon="6.50067">
        <ele>2177.2</ele>
        <time>2024-08-11T10:36:44Z</time>
      </trkpt>
      <trkpt lat="44.94823" lon="6.50067">
        <ele>2177.2</ele>
        <time>2024-08-11T10:36:45Z</time>
      </trkpt>
      <trkpt lat="44.94823" lon="6.50067">
        <ele>2177.4</ele>
        <time>2024-08-11T10:36:46Z</time>
      </trkpt>
      <trkpt lat="44.94821" lon="6.50067">
        <ele>2177.8</ele>
        <time>2024-08-11T10:36:47Z</time>
      </trkpt>
      <trkpt lat="44.94821" lon="6.50067">
        <ele>2177.8</ele>
        <time>2024-08-11T10:36:48Z</time>
      </trkpt>
      <trkpt lat="44.94821" lon="6.50067">
        <ele>2178.2</ele>
        <time>2024-08-11T10:36:49Z</time>
      </trkpt>
      <trkpt lat="44.94819" lon="6.50067">
        <ele>2178.2</ele>
        <time>2024-08-11T10:36:50Z</time>
      </trkpt>
      <trkpt lat="44.94819" lon="6.50067">
        <ele>2178.8</ele>
        <time>2024-08-11T10:36:51Z</time>
      </trkpt>
      <trkpt lat="44.94819" lon="6.50067">
        <ele>2179</ele>
        <time>2024-08-11T10:36:52Z</time>
      </trkpt>
      <trkpt lat="44.94816" lon="6.50069">
        <ele>2179</ele>
        <time>2024-08-11T10:36:53Z</time>
      </trkpt>
      <trkpt lat="44.94816" lon="6.50069">
        <ele>2179</ele>
        <time>2024-08-11T10:36:54Z</time>
      </trkpt>
      <trkpt lat="44.94816" lon="6.50069">
        <ele>2179</ele>
        <time>2024-08-11T10:36:55Z</time>
      </trkpt>
      <trkpt lat="44.94815" lon="6.50071">
        <ele>2179.4</ele>
        <time>2024-08-11T10:36:56Z</time>
      </trkpt>
      <trkpt lat="44.94815" lon="6.50071">
        <ele>2179.4</ele>
        <time>2024-08-11T10:36:57Z</time>
      </trkpt>
      <trkpt lat="44.94815" lon="6.50071">
        <ele>2179.8</ele>
        <time>2024-08-11T10:36:58Z</time>
      </trkpt>
      <trkpt lat="44.94815" lon="6.50071">
        <ele>2180.2</ele>
        <time>2024-08-11T10:36:59Z</time>
      </trkpt>
      <trkpt lat="44.94813" lon="6.50073">
        <ele>2180.6</ele>
        <time>2024-08-11T10:37:00Z</time>
      </trkpt>
      <trkpt lat="44.94813" lon="6.50073">
        <ele>2180.6</ele>
        <time>2024-08-11T10:37:01Z</time>
      </trkpt>
      <trkpt lat="44.94813" lon="6.50073">
        <ele>2180.6</ele>
        <time>2024-08-11T10:37:02Z</time>
      </trkpt>
      <trkpt lat="44.94812" lon="6.50074">
        <ele>2180.6</ele>
        <time>2024-08-11T10:37:03Z</time>
      </trkpt>
      <trkpt lat="44.94812" lon="6.50074">
        <ele>2180.8</ele>
        <time>2024-08-11T10:37:04Z</time>
      </trkpt>
      <trkpt lat="44.94812" lon="6.50074">
        <ele>2181.2</ele>
        <time>2024-08-11T10:37:05Z</time>
      </trkpt>
      <trkpt lat="44.94809" lon="6.50076">
        <ele>2181.2</ele>
        <time>2024-08-11T10:37:06Z</time>
      </trkpt>
      <trkpt lat="44.94809" lon="6.50076">
        <ele>2181.4</ele>
        <time>2024-08-11T10:37:07Z</time>
      </trkpt>
      <trkpt lat="44.94809" lon="6.50076">
        <ele>2181.8</ele>
        <time>2024-08-11T10:37:08Z</time>
      </trkpt>
      <trkpt lat="44.94809" lon="6.50076">
        <ele>2181.8</ele>
        <time>2024-08-11T10:37:09Z</time>
      </trkpt>
      <trkpt lat="44.94809" lon="6.50076">
        <ele>2182</ele>
        <time>2024-08-11T10:37:10Z</time>
      </trkpt>
      <trkpt lat="44.94809" lon="6.50076">
        <ele>2182.2</ele>
        <time>2024-08-11T10:37:11Z</time>
      </trkpt>
      <trkpt lat="44.94809" lon="6.50076">
        <ele>2182.4</ele>
        <time>2024-08-11T10:37:12Z</time>
      </trkpt>
      <trkpt lat="44.94809" lon="6.50076">
        <ele>2182.4</ele>
        <time>2024-08-11T10:37:13Z</time>
      </trkpt>
      <trkpt lat="44.94809" lon="6.50076">
        <ele>2182.4</ele>
        <time>2024-08-11T10:37:14Z</time>
      </trkpt>
      <trkpt lat="44.94809" lon="6.50076">
        <ele>2182.4</ele>
        <time>2024-08-11T10:37:15Z</time>
      </trkpt>
      <trkpt lat="44.94809" lon="6.50076">
        <ele>2182.6</ele>
        <time>2024-08-11T10:37:16Z</time>
      </trkpt>
      <trkpt lat="44.94807" lon="6.50077">
        <ele>2182.6</ele>
        <time>2024-08-11T10:37:17Z</time>
      </trkpt>
      <trkpt lat="44.94807" lon="6.50077">
        <ele>2182.8</ele>
        <time>2024-08-11T10:37:18Z</time>
      </trkpt>
      <trkpt lat="44.94807" lon="6.50077">
        <ele>2183</ele>
        <time>2024-08-11T10:37:19Z</time>
      </trkpt>
      <trkpt lat="44.94805" lon="6.50079">
        <ele>2183</ele>
        <time>2024-08-11T10:37:20Z</time>
      </trkpt>
      <trkpt lat="44.94805" lon="6.50079">
        <ele>2183.2</ele>
        <time>2024-08-11T10:37:21Z</time>
      </trkpt>
      <trkpt lat="44.94805" lon="6.50079">
        <ele>2183.4</ele>
        <time>2024-08-11T10:37:22Z</time>
      </trkpt>
      <trkpt lat="44.94804" lon="6.50081">
        <ele>2183.4</ele>
        <time>2024-08-11T10:37:23Z</time>
      </trkpt>
      <trkpt lat="44.94804" lon="6.50081">
        <ele>2183.8</ele>
        <time>2024-08-11T10:37:24Z</time>
      </trkpt>
      <trkpt lat="44.94804" lon="6.50081">
        <ele>2183.8</ele>
        <time>2024-08-11T10:37:25Z</time>
      </trkpt>
      <trkpt lat="44.94804" lon="6.50081">
        <ele>2184</ele>
        <time>2024-08-11T10:37:26Z</time>
      </trkpt>
      <trkpt lat="44.94801" lon="6.50083">
        <ele>2184.4</ele>
        <time>2024-08-11T10:37:27Z</time>
      </trkpt>
      <trkpt lat="44.94801" lon="6.50083">
        <ele>2184.6</ele>
        <time>2024-08-11T10:37:28Z</time>
      </trkpt>
      <trkpt lat="44.94801" lon="6.50083">
        <ele>2184.8</ele>
        <time>2024-08-11T10:37:29Z</time>
      </trkpt>
      <trkpt lat="44.94801" lon="6.50083">
        <ele>2185.2</ele>
        <time>2024-08-11T10:37:30Z</time>
      </trkpt>
      <trkpt lat="44.948" lon="6.50084">
        <ele>2185.4</ele>
        <time>2024-08-11T10:37:31Z</time>
      </trkpt>
      <trkpt lat="44.948" lon="6.50084">
        <ele>2185.4</ele>
        <time>2024-08-11T10:37:32Z</time>
      </trkpt>
      <trkpt lat="44.948" lon="6.50084">
        <ele>2185.6</ele>
        <time>2024-08-11T10:37:33Z</time>
      </trkpt>
      <trkpt lat="44.94797" lon="6.50086">
        <ele>2185.8</ele>
        <time>2024-08-11T10:37:34Z</time>
      </trkpt>
      <trkpt lat="44.94797" lon="6.50086">
        <ele>2186</ele>
        <time>2024-08-11T10:37:35Z</time>
      </trkpt>
      <trkpt lat="44.94797" lon="6.50086">
        <ele>2186</ele>
        <time>2024-08-11T10:37:36Z</time>
      </trkpt>
      <trkpt lat="44.94796" lon="6.50087">
        <ele>2186.6</ele>
        <time>2024-08-11T10:37:37Z</time>
      </trkpt>
      <trkpt lat="44.94796" lon="6.50087">
        <ele>2186.8</ele>
        <time>2024-08-11T10:37:38Z</time>
      </trkpt>
      <trkpt lat="44.94796" lon="6.50087">
        <ele>2187</ele>
        <time>2024-08-11T10:37:39Z</time>
      </trkpt>
      <trkpt lat="44.94794" lon="6.50088">
        <ele>2187.2</ele>
        <time>2024-08-11T10:37:40Z</time>
      </trkpt>
      <trkpt lat="44.94794" lon="6.50088">
        <ele>2187.8</ele>
        <time>2024-08-11T10:37:41Z</time>
      </trkpt>
      <trkpt lat="44.94794" lon="6.50088">
        <ele>2187.8</ele>
        <time>2024-08-11T10:37:42Z</time>
      </trkpt>
      <trkpt lat="44.94794" lon="6.50088">
        <ele>2187.8</ele>
        <time>2024-08-11T10:37:43Z</time>
      </trkpt>
      <trkpt lat="44.94794" lon="6.50088">
        <ele>2188</ele>
        <time>2024-08-11T10:37:44Z</time>
      </trkpt>
      <trkpt lat="44.94794" lon="6.50088">
        <ele>2188.2</ele>
        <time>2024-08-11T10:37:45Z</time>
      </trkpt>
      <trkpt lat="44.94794" lon="6.50088">
        <ele>2188.2</ele>
        <time>2024-08-11T10:37:46Z</time>
      </trkpt>
      <trkpt lat="44.94794" lon="6.50088">
        <ele>2188.2</ele>
        <time>2024-08-11T10:37:47Z</time>
      </trkpt>
      <trkpt lat="44.94794" lon="6.50088">
        <ele>2188.2</ele>
        <time>2024-08-11T10:37:48Z</time>
      </trkpt>
      <trkpt lat="44.94794" lon="6.50088">
        <ele>2188.2</ele>
        <time>2024-08-11T10:37:49Z</time>
      </trkpt>
      <trkpt lat="44.94794" lon="6.50088">
        <ele>2188.4</ele>
        <time>2024-08-11T10:37:50Z</time>
      </trkpt>
      <trkpt lat="44.94791" lon="6.5009">
        <ele>2188.6</ele>
        <time>2024-08-11T10:37:51Z</time>
      </trkpt>
      <trkpt lat="44.94791" lon="6.5009">
        <ele>2188.8</ele>
        <time>2024-08-11T10:37:52Z</time>
      </trkpt>
      <trkpt lat="44.94789" lon="6.50092">
        <ele>2189</ele>
        <time>2024-08-11T10:37:53Z</time>
      </trkpt>
      <trkpt lat="44.94789" lon="6.50092">
        <ele>2189</ele>
        <time>2024-08-11T10:37:54Z</time>
      </trkpt>
      <trkpt lat="44.94787" lon="6.50093">
        <ele>2189</ele>
        <time>2024-08-11T10:37:55Z</time>
      </trkpt>
      <trkpt lat="44.94787" lon="6.50093">
        <ele>2189</ele>
        <time>2024-08-11T10:37:56Z</time>
      </trkpt>
      <trkpt lat="44.94784" lon="6.50094">
        <ele>2189.2</ele>
        <time>2024-08-11T10:37:57Z</time>
      </trkpt>
      <trkpt lat="44.94784" lon="6.50094">
        <ele>2189.2</ele>
        <time>2024-08-11T10:37:58Z</time>
      </trkpt>
      <trkpt lat="44.94782" lon="6.50095">
        <ele>2189.4</ele>
        <time>2024-08-11T10:37:59Z</time>
      </trkpt>
      <trkpt lat="44.94782" lon="6.50095">
        <ele>2189.4</ele>
        <time>2024-08-11T10:38:00Z</time>
      </trkpt>
      <trkpt lat="44.94782" lon="6.50095">
        <ele>2189.4</ele>
        <time>2024-08-11T10:38:01Z</time>
      </trkpt>
      <trkpt lat="44.94782" lon="6.50095">
        <ele>2190</ele>
        <time>2024-08-11T10:38:02Z</time>
      </trkpt>
      <trkpt lat="44.9478" lon="6.50097">
        <ele>2190</ele>
        <time>2024-08-11T10:38:03Z</time>
      </trkpt>
      <trkpt lat="44.9478" lon="6.50097">
        <ele>2190.2</ele>
        <time>2024-08-11T10:38:04Z</time>
      </trkpt>
      <trkpt lat="44.9478" lon="6.50097">
        <ele>2190.4</ele>
        <time>2024-08-11T10:38:05Z</time>
      </trkpt>
      <trkpt lat="44.94778" lon="6.50098">
        <ele>2190.4</ele>
        <time>2024-08-11T10:38:06Z</time>
      </trkpt>
      <trkpt lat="44.94778" lon="6.50098">
        <ele>2190.4</ele>
        <time>2024-08-11T10:38:07Z</time>
      </trkpt>
      <trkpt lat="44.94776" lon="6.50098">
        <ele>2190.4</ele>
        <time>2024-08-11T10:38:08Z</time>
      </trkpt>
      <trkpt lat="44.94776" lon="6.50098">
        <ele>2190.6</ele>
        <time>2024-08-11T10:38:09Z</time>
      </trkpt>
      <trkpt lat="44.94776" lon="6.50098">
        <ele>2191.2</ele>
        <time>2024-08-11T10:38:10Z</time>
      </trkpt>
      <trkpt lat="44.94776" lon="6.50098">
        <ele>2191.2</ele>
        <time>2024-08-11T10:38:11Z</time>
      </trkpt>
      <trkpt lat="44.94774" lon="6.50099">
        <ele>2191.2</ele>
        <time>2024-08-11T10:38:12Z</time>
      </trkpt>
      <trkpt lat="44.94774" lon="6.50099">
        <ele>2191.4</ele>
        <time>2024-08-11T10:38:13Z</time>
      </trkpt>
      <trkpt lat="44.94774" lon="6.50099">
        <ele>2191.6</ele>
        <time>2024-08-11T10:38:14Z</time>
      </trkpt>
      <trkpt lat="44.94773" lon="6.50101">
        <ele>2192</ele>
        <time>2024-08-11T10:38:15Z</time>
      </trkpt>
      <trkpt lat="44.94773" lon="6.50101">
        <ele>2192.4</ele>
        <time>2024-08-11T10:38:16Z</time>
      </trkpt>
      <trkpt lat="44.94771" lon="6.50102">
        <ele>2192.6</ele>
        <time>2024-08-11T10:38:17Z</time>
      </trkpt>
      <trkpt lat="44.94771" lon="6.50102">
        <ele>2192.8</ele>
        <time>2024-08-11T10:38:18Z</time>
      </trkpt>
      <trkpt lat="44.94771" lon="6.50102">
        <ele>2193</ele>
        <time>2024-08-11T10:38:19Z</time>
      </trkpt>
      <trkpt lat="44.9477" lon="6.50104">
        <ele>2193.2</ele>
        <time>2024-08-11T10:38:20Z</time>
      </trkpt>
      <trkpt lat="44.9477" lon="6.50104">
        <ele>2193.4</ele>
        <time>2024-08-11T10:38:21Z</time>
      </trkpt>
      <trkpt lat="44.9477" lon="6.50104">
        <ele>2193.6</ele>
        <time>2024-08-11T10:38:22Z</time>
      </trkpt>
      <trkpt lat="44.94767" lon="6.50105">
        <ele>2193.8</ele>
        <time>2024-08-11T10:38:23Z</time>
      </trkpt>
      <trkpt lat="44.94767" lon="6.50105">
        <ele>2194</ele>
        <time>2024-08-11T10:38:24Z</time>
      </trkpt>
      <trkpt lat="44.94767" lon="6.50105">
        <ele>2194.2</ele>
        <time>2024-08-11T10:38:25Z</time>
      </trkpt>
      <trkpt lat="44.94767" lon="6.50105">
        <ele>2194.2</ele>
        <time>2024-08-11T10:38:26Z</time>
      </trkpt>
      <trkpt lat="44.94766" lon="6.50107">
        <ele>2194.2</ele>
        <time>2024-08-11T10:38:27Z</time>
      </trkpt>
      <trkpt lat="44.94766" lon="6.50107">
        <ele>2194.6</ele>
        <time>2024-08-11T10:38:28Z</time>
      </trkpt>
      <trkpt lat="44.94766" lon="6.50107">
        <ele>2195</ele>
        <time>2024-08-11T10:38:29Z</time>
      </trkpt>
      <trkpt lat="44.94764" lon="6.50108">
        <ele>2195.2</ele>
        <time>2024-08-11T10:38:30Z</time>
      </trkpt>
      <trkpt lat="44.94764" lon="6.50108">
        <ele>2195.2</ele>
        <time>2024-08-11T10:38:31Z</time>
      </trkpt>
      <trkpt lat="44.94764" lon="6.50108">
        <ele>2195.6</ele>
        <time>2024-08-11T10:38:32Z</time>
      </trkpt>
      <trkpt lat="44.94762" lon="6.5011">
        <ele>2195.8</ele>
        <time>2024-08-11T10:38:33Z</time>
      </trkpt>
      <trkpt lat="44.94762" lon="6.5011">
        <ele>2196</ele>
        <time>2024-08-11T10:38:34Z</time>
      </trkpt>
      <trkpt lat="44.94762" lon="6.5011">
        <ele>2196</ele>
        <time>2024-08-11T10:38:35Z</time>
      </trkpt>
      <trkpt lat="44.9476" lon="6.50112">
        <ele>2196.4</ele>
        <time>2024-08-11T10:38:36Z</time>
      </trkpt>
      <trkpt lat="44.9476" lon="6.50112">
        <ele>2196.4</ele>
        <time>2024-08-11T10:38:37Z</time>
      </trkpt>
      <trkpt lat="44.9476" lon="6.50112">
        <ele>2196.6</ele>
        <time>2024-08-11T10:38:38Z</time>
      </trkpt>
      <trkpt lat="44.94758" lon="6.50113">
        <ele>2196.8</ele>
        <time>2024-08-11T10:38:39Z</time>
      </trkpt>
      <trkpt lat="44.94758" lon="6.50113">
        <ele>2196.8</ele>
        <time>2024-08-11T10:38:40Z</time>
      </trkpt>
      <trkpt lat="44.94758" lon="6.50113">
        <ele>2197.4</ele>
        <time>2024-08-11T10:38:41Z</time>
      </trkpt>
      <trkpt lat="44.94756" lon="6.50114">
        <ele>2197.6</ele>
        <time>2024-08-11T10:38:42Z</time>
      </trkpt>
      <trkpt lat="44.94756" lon="6.50114">
        <ele>2197.8</ele>
        <time>2024-08-11T10:38:43Z</time>
      </trkpt>
      <trkpt lat="44.94756" lon="6.50114">
        <ele>2197.8</ele>
        <time>2024-08-11T10:38:44Z</time>
      </trkpt>
      <trkpt lat="44.94754" lon="6.50115">
        <ele>2198.4</ele>
        <time>2024-08-11T10:38:45Z</time>
      </trkpt>
      <trkpt lat="44.94754" lon="6.50115">
        <ele>2198.6</ele>
        <time>2024-08-11T10:38:46Z</time>
      </trkpt>
      <trkpt lat="44.94754" lon="6.50115">
        <ele>2198.6</ele>
        <time>2024-08-11T10:38:47Z</time>
      </trkpt>
      <trkpt lat="44.94752" lon="6.50116">
        <ele>2199</ele>
        <time>2024-08-11T10:38:48Z</time>
      </trkpt>
      <trkpt lat="44.94752" lon="6.50116">
        <ele>2199</ele>
        <time>2024-08-11T10:38:49Z</time>
      </trkpt>
      <trkpt lat="44.94752" lon="6.50116">
        <ele>2199</ele>
        <time>2024-08-11T10:38:50Z</time>
      </trkpt>
      <trkpt lat="44.9475" lon="6.50117">
        <ele>2199.2</ele>
        <time>2024-08-11T10:38:51Z</time>
      </trkpt>
      <trkpt lat="44.9475" lon="6.50117">
        <ele>2199.4</ele>
        <time>2024-08-11T10:38:52Z</time>
      </trkpt>
      <trkpt lat="44.9475" lon="6.50117">
        <ele>2199.6</ele>
        <time>2024-08-11T10:38:53Z</time>
      </trkpt>
      <trkpt lat="44.9475" lon="6.50117">
        <ele>2200</ele>
        <time>2024-08-11T10:38:54Z</time>
      </trkpt>
      <trkpt lat="44.94748" lon="6.50119">
        <ele>2200</ele>
        <time>2024-08-11T10:38:55Z</time>
      </trkpt>
      <trkpt lat="44.94748" lon="6.50119">
        <ele>2200.2</ele>
        <time>2024-08-11T10:38:56Z</time>
      </trkpt>
      <trkpt lat="44.94748" lon="6.50119">
        <ele>2200.4</ele>
        <time>2024-08-11T10:38:57Z</time>
      </trkpt>
      <trkpt lat="44.94746" lon="6.5012">
        <ele>2200.4</ele>
        <time>2024-08-11T10:38:58Z</time>
      </trkpt>
      <trkpt lat="44.94746" lon="6.5012">
        <ele>2200.6</ele>
        <time>2024-08-11T10:38:59Z</time>
      </trkpt>
      <trkpt lat="44.94746" lon="6.5012">
        <ele>2200.8</ele>
        <time>2024-08-11T10:39:00Z</time>
      </trkpt>
      <trkpt lat="44.94746" lon="6.5012">
        <ele>2200.8</ele>
        <time>2024-08-11T10:39:01Z</time>
      </trkpt>
      <trkpt lat="44.94745" lon="6.50123">
        <ele>2201.4</ele>
        <time>2024-08-11T10:39:02Z</time>
      </trkpt>
      <trkpt lat="44.94745" lon="6.50123">
        <ele>2201.4</ele>
        <time>2024-08-11T10:39:03Z</time>
      </trkpt>
      <trkpt lat="44.94745" lon="6.50123">
        <ele>2201.6</ele>
        <time>2024-08-11T10:39:04Z</time>
      </trkpt>
      <trkpt lat="44.94745" lon="6.50123">
        <ele>2201.6</ele>
        <time>2024-08-11T10:39:05Z</time>
      </trkpt>
      <trkpt lat="44.94743" lon="6.50126">
        <ele>2201.6</ele>
        <time>2024-08-11T10:39:06Z</time>
      </trkpt>
      <trkpt lat="44.94743" lon="6.50126">
        <ele>2202</ele>
        <time>2024-08-11T10:39:07Z</time>
      </trkpt>
      <trkpt lat="44.94742" lon="6.50127">
        <ele>2202.2</ele>
        <time>2024-08-11T10:39:08Z</time>
      </trkpt>
      <trkpt lat="44.94742" lon="6.50127">
        <ele>2202.4</ele>
        <time>2024-08-11T10:39:09Z</time>
      </trkpt>
      <trkpt lat="44.9474" lon="6.50128">
        <ele>2202.4</ele>
        <time>2024-08-11T10:39:10Z</time>
      </trkpt>
      <trkpt lat="44.9474" lon="6.50128">
        <ele>2202.6</ele>
        <time>2024-08-11T10:39:11Z</time>
      </trkpt>
      <trkpt lat="44.9474" lon="6.50128">
        <ele>2203</ele>
        <time>2024-08-11T10:39:12Z</time>
      </trkpt>
      <trkpt lat="44.9474" lon="6.50128">
        <ele>2203.4</ele>
        <time>2024-08-11T10:39:13Z</time>
      </trkpt>
      <trkpt lat="44.94739" lon="6.5013">
        <ele>2203.6</ele>
        <time>2024-08-11T10:39:14Z</time>
      </trkpt>
      <trkpt lat="44.94739" lon="6.5013">
        <ele>2203.8</ele>
        <time>2024-08-11T10:39:15Z</time>
      </trkpt>
      <trkpt lat="44.94739" lon="6.5013">
        <ele>2203.8</ele>
        <time>2024-08-11T10:39:16Z</time>
      </trkpt>
      <trkpt lat="44.94737" lon="6.50132">
        <ele>2204</ele>
        <time>2024-08-11T10:39:17Z</time>
      </trkpt>
      <trkpt lat="44.94737" lon="6.50132">
        <ele>2204.2</ele>
        <time>2024-08-11T10:39:18Z</time>
      </trkpt>
      <trkpt lat="44.94737" lon="6.50132">
        <ele>2204.2</ele>
        <time>2024-08-11T10:39:19Z</time>
      </trkpt>
      <trkpt lat="44.94735" lon="6.50134">
        <ele>2204.2</ele>
        <time>2024-08-11T10:39:20Z</time>
      </trkpt>
      <trkpt lat="44.94735" lon="6.50134">
        <ele>2204.6</ele>
        <time>2024-08-11T10:39:21Z</time>
      </trkpt>
      <trkpt lat="44.94735" lon="6.50134">
        <ele>2204.8</ele>
        <time>2024-08-11T10:39:22Z</time>
      </trkpt>
      <trkpt lat="44.94733" lon="6.50135">
        <ele>2205.2</ele>
        <time>2024-08-11T10:39:23Z</time>
      </trkpt>
      <trkpt lat="44.94733" lon="6.50135">
        <ele>2205.2</ele>
        <time>2024-08-11T10:39:24Z</time>
      </trkpt>
      <trkpt lat="44.94733" lon="6.50135">
        <ele>2205.2</ele>
        <time>2024-08-11T10:39:25Z</time>
      </trkpt>
      <trkpt lat="44.9473" lon="6.50136">
        <ele>2205.4</ele>
        <time>2024-08-11T10:39:26Z</time>
      </trkpt>
      <trkpt lat="44.9473" lon="6.50136">
        <ele>2205.8</ele>
        <time>2024-08-11T10:39:27Z</time>
      </trkpt>
      <trkpt lat="44.9473" lon="6.50136">
        <ele>2206.4</ele>
        <time>2024-08-11T10:39:28Z</time>
      </trkpt>
      <trkpt lat="44.9473" lon="6.50136">
        <ele>2206.4</ele>
        <time>2024-08-11T10:39:29Z</time>
      </trkpt>
      <trkpt lat="44.9473" lon="6.50136">
        <ele>2206.2</ele>
        <time>2024-08-11T10:39:30Z</time>
      </trkpt>
      <trkpt lat="44.9473" lon="6.50136">
        <ele>2206.2</ele>
        <time>2024-08-11T10:39:31Z</time>
      </trkpt>
      <trkpt lat="44.9473" lon="6.50136">
        <ele>2206.2</ele>
        <time>2024-08-11T10:39:32Z</time>
      </trkpt>
      <trkpt lat="44.9473" lon="6.50136">
        <ele>2206.2</ele>
        <time>2024-08-11T10:39:33Z</time>
      </trkpt>
      <trkpt lat="44.9473" lon="6.50136">
        <ele>2206.2</ele>
        <time>2024-08-11T10:39:34Z</time>
      </trkpt>
      <trkpt lat="44.9473" lon="6.50136">
        <ele>2206.2</ele>
        <time>2024-08-11T10:39:35Z</time>
      </trkpt>
      <trkpt lat="44.9473" lon="6.50136">
        <ele>2206.2</ele>
        <time>2024-08-11T10:39:36Z</time>
      </trkpt>
      <trkpt lat="44.9473" lon="6.50136">
        <ele>2206.2</ele>
        <time>2024-08-11T10:39:37Z</time>
      </trkpt>
      <trkpt lat="44.9473" lon="6.50136">
        <ele>2206.2</ele>
        <time>2024-08-11T10:39:38Z</time>
      </trkpt>
      <trkpt lat="44.9473" lon="6.50136">
        <ele>2206.2</ele>
        <time>2024-08-11T10:39:39Z</time>
      </trkpt>
      <trkpt lat="44.9473" lon="6.50136">
        <ele>2206.2</ele>
        <time>2024-08-11T10:39:40Z</time>
      </trkpt>
      <trkpt lat="44.9473" lon="6.50136">
        <ele>2206.2</ele>
        <time>2024-08-11T10:39:41Z</time>
      </trkpt>
      <trkpt lat="44.9473" lon="6.50136">
        <ele>2206.4</ele>
        <time>2024-08-11T10:39:42Z</time>
      </trkpt>
      <trkpt lat="44.9473" lon="6.50136">
        <ele>2206.4</ele>
        <time>2024-08-11T10:39:43Z</time>
      </trkpt>
      <trkpt lat="44.9473" lon="6.50136">
        <ele>2206.4</ele>
        <time>2024-08-11T10:39:44Z</time>
      </trkpt>
      <trkpt lat="44.94728" lon="6.50136">
        <ele>2206.4</ele>
        <time>2024-08-11T10:39:45Z</time>
      </trkpt>
      <trkpt lat="44.94728" lon="6.50136">
        <ele>2206.6</ele>
        <time>2024-08-11T10:39:46Z</time>
      </trkpt>
      <trkpt lat="44.94726" lon="6.50136">
        <ele>2206.8</ele>
        <time>2024-08-11T10:39:47Z</time>
      </trkpt>
      <trkpt lat="44.94726" lon="6.50136">
        <ele>2207</ele>
        <time>2024-08-11T10:39:48Z</time>
      </trkpt>
      <trkpt lat="44.94724" lon="6.50137">
        <ele>2207</ele>
        <time>2024-08-11T10:39:49Z</time>
      </trkpt>
      <trkpt lat="44.94724" lon="6.50137">
        <ele>2207.2</ele>
        <time>2024-08-11T10:39:50Z</time>
      </trkpt>
      <trkpt lat="44.94721" lon="6.50138">
        <ele>2207.4</ele>
        <time>2024-08-11T10:39:51Z</time>
      </trkpt>
      <trkpt lat="44.94721" lon="6.50138">
        <ele>2207.4</ele>
        <time>2024-08-11T10:39:52Z</time>
      </trkpt>
      <trkpt lat="44.94721" lon="6.50138">
        <ele>2207.4</ele>
        <time>2024-08-11T10:39:53Z</time>
      </trkpt>
      <trkpt lat="44.94719" lon="6.50139">
        <ele>2207.6</ele>
        <time>2024-08-11T10:39:54Z</time>
      </trkpt>
      <trkpt lat="44.94719" lon="6.50139">
        <ele>2207.8</ele>
        <time>2024-08-11T10:39:55Z</time>
      </trkpt>
      <trkpt lat="44.94717" lon="6.5014">
        <ele>2207.8</ele>
        <time>2024-08-11T10:39:56Z</time>
      </trkpt>
      <trkpt lat="44.94717" lon="6.5014">
        <ele>2208.2</ele>
        <time>2024-08-11T10:39:57Z</time>
      </trkpt>
      <trkpt lat="44.94716" lon="6.50141">
        <ele>2208.4</ele>
        <time>2024-08-11T10:39:58Z</time>
      </trkpt>
      <trkpt lat="44.94716" lon="6.50141">
        <ele>2208.4</ele>
        <time>2024-08-11T10:39:59Z</time>
      </trkpt>
      <trkpt lat="44.94716" lon="6.50141">
        <ele>2208.6</ele>
        <time>2024-08-11T10:40:00Z</time>
      </trkpt>
      <trkpt lat="44.94713" lon="6.50142">
        <ele>2208.8</ele>
        <time>2024-08-11T10:40:01Z</time>
      </trkpt>
      <trkpt lat="44.94713" lon="6.50142">
        <ele>2209.2</ele>
        <time>2024-08-11T10:40:02Z</time>
      </trkpt>
      <trkpt lat="44.94711" lon="6.50144">
        <ele>2209.2</ele>
        <time>2024-08-11T10:40:03Z</time>
      </trkpt>
      <trkpt lat="44.94711" lon="6.50144">
        <ele>2209.4</ele>
        <time>2024-08-11T10:40:04Z</time>
      </trkpt>
      <trkpt lat="44.9471" lon="6.50145">
        <ele>2209.4</ele>
        <time>2024-08-11T10:40:05Z</time>
      </trkpt>
      <trkpt lat="44.9471" lon="6.50145">
        <ele>2209.6</ele>
        <time>2024-08-11T10:40:06Z</time>
      </trkpt>
      <trkpt lat="44.9471" lon="6.50145">
        <ele>2210</ele>
        <time>2024-08-11T10:40:07Z</time>
      </trkpt>
      <trkpt lat="44.94708" lon="6.50147">
        <ele>2210</ele>
        <time>2024-08-11T10:40:08Z</time>
      </trkpt>
      <trkpt lat="44.94708" lon="6.50147">
        <ele>2210.2</ele>
        <time>2024-08-11T10:40:09Z</time>
      </trkpt>
      <trkpt lat="44.94708" lon="6.50147">
        <ele>2210.2</ele>
        <time>2024-08-11T10:40:10Z</time>
      </trkpt>
      <trkpt lat="44.94706" lon="6.50149">
        <ele>2210.2</ele>
        <time>2024-08-11T10:40:11Z</time>
      </trkpt>
      <trkpt lat="44.94706" lon="6.50149">
        <ele>2210.4</ele>
        <time>2024-08-11T10:40:12Z</time>
      </trkpt>
      <trkpt lat="44.94704" lon="6.50149">
        <ele>2210.6</ele>
        <time>2024-08-11T10:40:13Z</time>
      </trkpt>
      <trkpt lat="44.94704" lon="6.50149">
        <ele>2210.8</ele>
        <time>2024-08-11T10:40:14Z</time>
      </trkpt>
      <trkpt lat="44.94704" lon="6.50149">
        <ele>2210.8</ele>
        <time>2024-08-11T10:40:15Z</time>
      </trkpt>
      <trkpt lat="44.94702" lon="6.50147">
        <ele>2210.8</ele>
        <time>2024-08-11T10:40:16Z</time>
      </trkpt>
      <trkpt lat="44.94702" lon="6.50147">
        <ele>2210.8</ele>
        <time>2024-08-11T10:40:17Z</time>
      </trkpt>
      <trkpt lat="44.94702" lon="6.50147">
        <ele>2211</ele>
        <time>2024-08-11T10:40:18Z</time>
      </trkpt>
      <trkpt lat="44.947" lon="6.50147">
        <ele>2211</ele>
        <time>2024-08-11T10:40:19Z</time>
      </trkpt>
      <trkpt lat="44.947" lon="6.50147">
        <ele>2211</ele>
        <time>2024-08-11T10:40:20Z</time>
      </trkpt>
      <trkpt lat="44.947" lon="6.50147">
        <ele>2211</ele>
        <time>2024-08-11T10:40:21Z</time>
      </trkpt>
      <trkpt lat="44.94698" lon="6.50146">
        <ele>2211.4</ele>
        <time>2024-08-11T10:40:22Z</time>
      </trkpt>
      <trkpt lat="44.94698" lon="6.50146">
        <ele>2211.4</ele>
        <time>2024-08-11T10:40:23Z</time>
      </trkpt>
      <trkpt lat="44.94698" lon="6.50146">
        <ele>2211.4</ele>
        <time>2024-08-11T10:40:24Z</time>
      </trkpt>
      <trkpt lat="44.94698" lon="6.50146">
        <ele>2212</ele>
        <time>2024-08-11T10:40:25Z</time>
      </trkpt>
      <trkpt lat="44.94696" lon="6.50146">
        <ele>2212.2</ele>
        <time>2024-08-11T10:40:26Z</time>
      </trkpt>
      <trkpt lat="44.94696" lon="6.50146">
        <ele>2212.4</ele>
        <time>2024-08-11T10:40:27Z</time>
      </trkpt>
      <trkpt lat="44.94696" lon="6.50146">
        <ele>2212.6</ele>
        <time>2024-08-11T10:40:28Z</time>
      </trkpt>
      <trkpt lat="44.94694" lon="6.50146">
        <ele>2212.6</ele>
        <time>2024-08-11T10:40:29Z</time>
      </trkpt>
      <trkpt lat="44.94694" lon="6.50146">
        <ele>2213.2</ele>
        <time>2024-08-11T10:40:30Z</time>
      </trkpt>
      <trkpt lat="44.94694" lon="6.50146">
        <ele>2213.2</ele>
        <time>2024-08-11T10:40:31Z</time>
      </trkpt>
      <trkpt lat="44.94694" lon="6.50146">
        <ele>2213.6</ele>
        <time>2024-08-11T10:40:32Z</time>
      </trkpt>
      <trkpt lat="44.94692" lon="6.50145">
        <ele>2214.2</ele>
        <time>2024-08-11T10:40:33Z</time>
      </trkpt>
      <trkpt lat="44.94692" lon="6.50145">
        <ele>2214.2</ele>
        <time>2024-08-11T10:40:34Z</time>
      </trkpt>
      <trkpt lat="44.94692" lon="6.50145">
        <ele>2214.2</ele>
        <time>2024-08-11T10:40:35Z</time>
      </trkpt>
      <trkpt lat="44.94691" lon="6.50144">
        <ele>2214.2</ele>
        <time>2024-08-11T10:40:36Z</time>
      </trkpt>
      <trkpt lat="44.94691" lon="6.50144">
        <ele>2214.4</ele>
        <time>2024-08-11T10:40:37Z</time>
      </trkpt>
      <trkpt lat="44.94691" lon="6.50144">
        <ele>2214.6</ele>
        <time>2024-08-11T10:40:38Z</time>
      </trkpt>
      <trkpt lat="44.94691" lon="6.50144">
        <ele>2214.8</ele>
        <time>2024-08-11T10:40:39Z</time>
      </trkpt>
      <trkpt lat="44.94688" lon="6.50142">
        <ele>2215.2</ele>
        <time>2024-08-11T10:40:40Z</time>
      </trkpt>
      <trkpt lat="44.94688" lon="6.50142">
        <ele>2215.2</ele>
        <time>2024-08-11T10:40:41Z</time>
      </trkpt>
      <trkpt lat="44.94688" lon="6.50142">
        <ele>2215.6</ele>
        <time>2024-08-11T10:40:42Z</time>
      </trkpt>
      <trkpt lat="44.94686" lon="6.50141">
        <ele>2215.6</ele>
        <time>2024-08-11T10:40:43Z</time>
      </trkpt>
      <trkpt lat="44.94686" lon="6.50141">
        <ele>2215.8</ele>
        <time>2024-08-11T10:40:44Z</time>
      </trkpt>
      <trkpt lat="44.94685" lon="6.50141">
        <ele>2215.8</ele>
        <time>2024-08-11T10:40:45Z</time>
      </trkpt>
      <trkpt lat="44.94685" lon="6.50141">
        <ele>2216</ele>
        <time>2024-08-11T10:40:46Z</time>
      </trkpt>
      <trkpt lat="44.94682" lon="6.50141">
        <ele>2216</ele>
        <time>2024-08-11T10:40:47Z</time>
      </trkpt>
      <trkpt lat="44.94682" lon="6.50141">
        <ele>2216.2</ele>
        <time>2024-08-11T10:40:48Z</time>
      </trkpt>
      <trkpt lat="44.9468" lon="6.5014">
        <ele>2216.4</ele>
        <time>2024-08-11T10:40:49Z</time>
      </trkpt>
      <trkpt lat="44.9468" lon="6.5014">
        <ele>2216.6</ele>
        <time>2024-08-11T10:40:50Z</time>
      </trkpt>
      <trkpt lat="44.94678" lon="6.5014">
        <ele>2216.8</ele>
        <time>2024-08-11T10:40:51Z</time>
      </trkpt>
      <trkpt lat="44.94678" lon="6.5014">
        <ele>2217</ele>
        <time>2024-08-11T10:40:52Z</time>
      </trkpt>
      <trkpt lat="44.94678" lon="6.5014">
        <ele>2217</ele>
        <time>2024-08-11T10:40:53Z</time>
      </trkpt>
      <trkpt lat="44.94676" lon="6.50139">
        <ele>2217</ele>
        <time>2024-08-11T10:40:54Z</time>
      </trkpt>
      <trkpt lat="44.94676" lon="6.50139">
        <ele>2217.6</ele>
        <time>2024-08-11T10:40:55Z</time>
      </trkpt>
      <trkpt lat="44.94676" lon="6.50139">
        <ele>2217.6</ele>
        <time>2024-08-11T10:40:56Z</time>
      </trkpt>
      <trkpt lat="44.94674" lon="6.50139">
        <ele>2217.8</ele>
        <time>2024-08-11T10:40:57Z</time>
      </trkpt>
      <trkpt lat="44.94674" lon="6.50139">
        <ele>2218.2</ele>
        <time>2024-08-11T10:40:58Z</time>
      </trkpt>
      <trkpt lat="44.94674" lon="6.50139">
        <ele>2218.2</ele>
        <time>2024-08-11T10:40:59Z</time>
      </trkpt>
      <trkpt lat="44.94674" lon="6.50139">
        <ele>2218.4</ele>
        <time>2024-08-11T10:41:00Z</time>
      </trkpt>
      <trkpt lat="44.94672" lon="6.5014">
        <ele>2218.4</ele>
        <time>2024-08-11T10:41:01Z</time>
      </trkpt>
      <trkpt lat="44.94672" lon="6.5014">
        <ele>2219</ele>
        <time>2024-08-11T10:41:02Z</time>
      </trkpt>
      <trkpt lat="44.94672" lon="6.5014">
        <ele>2219</ele>
        <time>2024-08-11T10:41:03Z</time>
      </trkpt>
      <trkpt lat="44.94672" lon="6.5014">
        <ele>2219.2</ele>
        <time>2024-08-11T10:41:04Z</time>
      </trkpt>
      <trkpt lat="44.94672" lon="6.5014">
        <ele>2219.2</ele>
        <time>2024-08-11T10:41:05Z</time>
      </trkpt>
      <trkpt lat="44.94672" lon="6.5014">
        <ele>2219.2</ele>
        <time>2024-08-11T10:41:06Z</time>
      </trkpt>
      <trkpt lat="44.94672" lon="6.5014">
        <ele>2219.4</ele>
        <time>2024-08-11T10:41:07Z</time>
      </trkpt>
      <trkpt lat="44.94672" lon="6.5014">
        <ele>2219.6</ele>
        <time>2024-08-11T10:41:08Z</time>
      </trkpt>
      <trkpt lat="44.94672" lon="6.5014">
        <ele>2220</ele>
        <time>2024-08-11T10:41:09Z</time>
      </trkpt>
      <trkpt lat="44.94672" lon="6.5014">
        <ele>2220</ele>
        <time>2024-08-11T10:41:10Z</time>
      </trkpt>
      <trkpt lat="44.94672" lon="6.5014">
        <ele>2220</ele>
        <time>2024-08-11T10:41:11Z</time>
      </trkpt>
      <trkpt lat="44.94672" lon="6.50142">
        <ele>2220</ele>
        <time>2024-08-11T10:41:12Z</time>
      </trkpt>
      <trkpt lat="44.94672" lon="6.50142">
        <ele>2219.6</ele>
        <time>2024-08-11T10:41:13Z</time>
      </trkpt>
      <trkpt lat="44.94671" lon="6.50145">
        <ele>2219.6</ele>
        <time>2024-08-11T10:41:14Z</time>
      </trkpt>
      <trkpt lat="44.94671" lon="6.50145">
        <ele>2220</ele>
        <time>2024-08-11T10:41:15Z</time>
      </trkpt>
      <trkpt lat="44.9467" lon="6.50148">
        <ele>2220</ele>
        <time>2024-08-11T10:41:16Z</time>
      </trkpt>
      <trkpt lat="44.9467" lon="6.50148">
        <ele>2220</ele>
        <time>2024-08-11T10:41:17Z</time>
      </trkpt>
      <trkpt lat="44.94669" lon="6.5015">
        <ele>2220</ele>
        <time>2024-08-11T10:41:18Z</time>
      </trkpt>
      <trkpt lat="44.94669" lon="6.5015">
        <ele>2220</ele>
        <time>2024-08-11T10:41:19Z</time>
      </trkpt>
      <trkpt lat="44.94666" lon="6.50151">
        <ele>2220.4</ele>
        <time>2024-08-11T10:41:20Z</time>
      </trkpt>
      <trkpt lat="44.94666" lon="6.50151">
        <ele>2220.4</ele>
        <time>2024-08-11T10:41:21Z</time>
      </trkpt>
      <trkpt lat="44.94664" lon="6.50152">
        <ele>2220.6</ele>
        <time>2024-08-11T10:41:22Z</time>
      </trkpt>
      <trkpt lat="44.94664" lon="6.50152">
        <ele>2220.6</ele>
        <time>2024-08-11T10:41:23Z</time>
      </trkpt>
      <trkpt lat="44.94662" lon="6.50153">
        <ele>2220.6</ele>
        <time>2024-08-11T10:41:24Z</time>
      </trkpt>
      <trkpt lat="44.94662" lon="6.50153">
        <ele>2220.6</ele>
        <time>2024-08-11T10:41:25Z</time>
      </trkpt>
      <trkpt lat="44.9466" lon="6.50155">
        <ele>2220.6</ele>
        <time>2024-08-11T10:41:26Z</time>
      </trkpt>
      <trkpt lat="44.9466" lon="6.50155">
        <ele>2221</ele>
        <time>2024-08-11T10:41:27Z</time>
      </trkpt>
      <trkpt lat="44.94658" lon="6.50156">
        <ele>2221.4</ele>
        <time>2024-08-11T10:41:28Z</time>
      </trkpt>
      <trkpt lat="44.94658" lon="6.50156">
        <ele>2221.4</ele>
        <time>2024-08-11T10:41:29Z</time>
      </trkpt>
      <trkpt lat="44.94656" lon="6.50157">
        <ele>2221.4</ele>
        <time>2024-08-11T10:41:30Z</time>
      </trkpt>
      <trkpt lat="44.94656" lon="6.50157">
        <ele>2221.4</ele>
        <time>2024-08-11T10:41:31Z</time>
      </trkpt>
      <trkpt lat="44.94654" lon="6.50157">
        <ele>2221.8</ele>
        <time>2024-08-11T10:41:32Z</time>
      </trkpt>
      <trkpt lat="44.94654" lon="6.50157">
        <ele>2221.8</ele>
        <time>2024-08-11T10:41:33Z</time>
      </trkpt>
      <trkpt lat="44.94654" lon="6.50157">
        <ele>2221.8</ele>
        <time>2024-08-11T10:41:34Z</time>
      </trkpt>
      <trkpt lat="44.94651" lon="6.50158">
        <ele>2222</ele>
        <time>2024-08-11T10:41:35Z</time>
      </trkpt>
      <trkpt lat="44.94651" lon="6.50158">
        <ele>2222.2</ele>
        <time>2024-08-11T10:41:36Z</time>
      </trkpt>
      <trkpt lat="44.94651" lon="6.50158">
        <ele>2222.4</ele>
        <time>2024-08-11T10:41:37Z</time>
      </trkpt>
      <trkpt lat="44.94648" lon="6.5016">
        <ele>2222.6</ele>
        <time>2024-08-11T10:41:38Z</time>
      </trkpt>
      <trkpt lat="44.94648" lon="6.5016">
        <ele>2222.6</ele>
        <time>2024-08-11T10:41:39Z</time>
      </trkpt>
      <trkpt lat="44.94646" lon="6.5016">
        <ele>2222.8</ele>
        <time>2024-08-11T10:41:40Z</time>
      </trkpt>
      <trkpt lat="44.94646" lon="6.5016">
        <ele>2223.2</ele>
        <time>2024-08-11T10:41:41Z</time>
      </trkpt>
      <trkpt lat="44.94645" lon="6.50161">
        <ele>2223.6</ele>
        <time>2024-08-11T10:41:42Z</time>
      </trkpt>
      <trkpt lat="44.94645" lon="6.50161">
        <ele>2223.6</ele>
        <time>2024-08-11T10:41:43Z</time>
      </trkpt>
      <trkpt lat="44.94643" lon="6.50161">
        <ele>2223.6</ele>
        <time>2024-08-11T10:41:44Z</time>
      </trkpt>
      <trkpt lat="44.94643" lon="6.50161">
        <ele>2223.8</ele>
        <time>2024-08-11T10:41:45Z</time>
      </trkpt>
      <trkpt lat="44.94641" lon="6.50162">
        <ele>2224</ele>
        <time>2024-08-11T10:41:46Z</time>
      </trkpt>
      <trkpt lat="44.94641" lon="6.50162">
        <ele>2224</ele>
        <time>2024-08-11T10:41:47Z</time>
      </trkpt>
      <trkpt lat="44.94638" lon="6.50163">
        <ele>2224.2</ele>
        <time>2024-08-11T10:41:48Z</time>
      </trkpt>
      <trkpt lat="44.94638" lon="6.50163">
        <ele>2224.4</ele>
        <time>2024-08-11T10:41:49Z</time>
      </trkpt>
      <trkpt lat="44.94636" lon="6.50164">
        <ele>2224.4</ele>
        <time>2024-08-11T10:41:50Z</time>
      </trkpt>
      <trkpt lat="44.94636" lon="6.50164">
        <ele>2224.4</ele>
        <time>2024-08-11T10:41:51Z</time>
      </trkpt>
      <trkpt lat="44.94633" lon="6.50165">
        <ele>2224.4</ele>
        <time>2024-08-11T10:41:52Z</time>
      </trkpt>
      <trkpt lat="44.94633" lon="6.50165">
        <ele>2224.6</ele>
        <time>2024-08-11T10:41:53Z</time>
      </trkpt>
      <trkpt lat="44.94631" lon="6.50167">
        <ele>2224.6</ele>
        <time>2024-08-11T10:41:54Z</time>
      </trkpt>
      <trkpt lat="44.94631" lon="6.50167">
        <ele>2224.6</ele>
        <time>2024-08-11T10:41:55Z</time>
      </trkpt>
      <trkpt lat="44.94629" lon="6.50169">
        <ele>2224.6</ele>
        <time>2024-08-11T10:41:56Z</time>
      </trkpt>
      <trkpt lat="44.94629" lon="6.50169">
        <ele>2224.8</ele>
        <time>2024-08-11T10:41:57Z</time>
      </trkpt>
      <trkpt lat="44.94628" lon="6.50171">
        <ele>2224.8</ele>
        <time>2024-08-11T10:41:58Z</time>
      </trkpt>
      <trkpt lat="44.94628" lon="6.50171">
        <ele>2224.8</ele>
        <time>2024-08-11T10:41:59Z</time>
      </trkpt>
      <trkpt lat="44.94626" lon="6.50173">
        <ele>2224.8</ele>
        <time>2024-08-11T10:42:00Z</time>
      </trkpt>
      <trkpt lat="44.94626" lon="6.50173">
        <ele>2225</ele>
        <time>2024-08-11T10:42:01Z</time>
      </trkpt>
      <trkpt lat="44.94624" lon="6.50175">
        <ele>2225</ele>
        <time>2024-08-11T10:42:02Z</time>
      </trkpt>
      <trkpt lat="44.94624" lon="6.50175">
        <ele>2225</ele>
        <time>2024-08-11T10:42:03Z</time>
      </trkpt>
      <trkpt lat="44.94622" lon="6.50177">
        <ele>2225.4</ele>
        <time>2024-08-11T10:42:04Z</time>
      </trkpt>
      <trkpt lat="44.94622" lon="6.50177">
        <ele>2225.6</ele>
        <time>2024-08-11T10:42:05Z</time>
      </trkpt>
      <trkpt lat="44.94621" lon="6.50179">
        <ele>2225.6</ele>
        <time>2024-08-11T10:42:06Z</time>
      </trkpt>
      <trkpt lat="44.94621" lon="6.50179">
        <ele>2225.6</ele>
        <time>2024-08-11T10:42:07Z</time>
      </trkpt>
      <trkpt lat="44.94619" lon="6.50181">
        <ele>2225.6</ele>
        <time>2024-08-11T10:42:08Z</time>
      </trkpt>
      <trkpt lat="44.94619" lon="6.50181">
        <ele>2225.8</ele>
        <time>2024-08-11T10:42:09Z</time>
      </trkpt>
      <trkpt lat="44.94619" lon="6.50181">
        <ele>2226</ele>
        <time>2024-08-11T10:42:10Z</time>
      </trkpt>
      <trkpt lat="44.94617" lon="6.50183">
        <ele>2226</ele>
        <time>2024-08-11T10:42:11Z</time>
      </trkpt>
      <trkpt lat="44.94617" lon="6.50183">
        <ele>2226.4</ele>
        <time>2024-08-11T10:42:12Z</time>
      </trkpt>
      <trkpt lat="44.94616" lon="6.50185">
        <ele>2226.4</ele>
        <time>2024-08-11T10:42:13Z</time>
      </trkpt>
      <trkpt lat="44.94616" lon="6.50185">
        <ele>2226.6</ele>
        <time>2024-08-11T10:42:14Z</time>
      </trkpt>
      <trkpt lat="44.94614" lon="6.50187">
        <ele>2226.6</ele>
        <time>2024-08-11T10:42:15Z</time>
      </trkpt>
      <trkpt lat="44.94614" lon="6.50187">
        <ele>2227</ele>
        <time>2024-08-11T10:42:16Z</time>
      </trkpt>
      <trkpt lat="44.94612" lon="6.50188">
        <ele>2227</ele>
        <time>2024-08-11T10:42:17Z</time>
      </trkpt>
      <trkpt lat="44.94612" lon="6.50188">
        <ele>2227</ele>
        <time>2024-08-11T10:42:18Z</time>
      </trkpt>
      <trkpt lat="44.94612" lon="6.50188">
        <ele>2227.4</ele>
        <time>2024-08-11T10:42:19Z</time>
      </trkpt>
      <trkpt lat="44.9461" lon="6.50188">
        <ele>2227.6</ele>
        <time>2024-08-11T10:42:20Z</time>
      </trkpt>
      <trkpt lat="44.9461" lon="6.50188">
        <ele>2228.2</ele>
        <time>2024-08-11T10:42:21Z</time>
      </trkpt>
      <trkpt lat="44.9461" lon="6.50188">
        <ele>2228.2</ele>
        <time>2024-08-11T10:42:22Z</time>
      </trkpt>
      <trkpt lat="44.94607" lon="6.50189">
        <ele>2228.2</ele>
        <time>2024-08-11T10:42:23Z</time>
      </trkpt>
      <trkpt lat="44.94607" lon="6.50189">
        <ele>2228.2</ele>
        <time>2024-08-11T10:42:24Z</time>
      </trkpt>
      <trkpt lat="44.94607" lon="6.50189">
        <ele>2228.2</ele>
        <time>2024-08-11T10:42:25Z</time>
      </trkpt>
      <trkpt lat="44.94605" lon="6.5019">
        <ele>2228.6</ele>
        <time>2024-08-11T10:42:26Z</time>
      </trkpt>
      <trkpt lat="44.94605" lon="6.5019">
        <ele>2228.8</ele>
        <time>2024-08-11T10:42:27Z</time>
      </trkpt>
      <trkpt lat="44.94603" lon="6.5019">
        <ele>2229.2</ele>
        <time>2024-08-11T10:42:28Z</time>
      </trkpt>
      <trkpt lat="44.94603" lon="6.5019">
        <ele>2229.2</ele>
        <time>2024-08-11T10:42:29Z</time>
      </trkpt>
      <trkpt lat="44.94601" lon="6.5019">
        <ele>2229.6</ele>
        <time>2024-08-11T10:42:30Z</time>
      </trkpt>
      <trkpt lat="44.94601" lon="6.5019">
        <ele>2230.2</ele>
        <time>2024-08-11T10:42:31Z</time>
      </trkpt>
      <trkpt lat="44.94601" lon="6.5019">
        <ele>2230.4</ele>
        <time>2024-08-11T10:42:32Z</time>
      </trkpt>
      <trkpt lat="44.94601" lon="6.5019">
        <ele>2230.6</ele>
        <time>2024-08-11T10:42:33Z</time>
      </trkpt>
      <trkpt lat="44.94598" lon="6.5019">
        <ele>2230.6</ele>
        <time>2024-08-11T10:42:34Z</time>
      </trkpt>
      <trkpt lat="44.94598" lon="6.5019">
        <ele>2231</ele>
        <time>2024-08-11T10:42:35Z</time>
      </trkpt>
      <trkpt lat="44.94598" lon="6.5019">
        <ele>2231</ele>
        <time>2024-08-11T10:42:36Z</time>
      </trkpt>
      <trkpt lat="44.94597" lon="6.5019">
        <ele>2231</ele>
        <time>2024-08-11T10:42:37Z</time>
      </trkpt>
      <trkpt lat="44.94597" lon="6.5019">
        <ele>2231.4</ele>
        <time>2024-08-11T10:42:38Z</time>
      </trkpt>
      <trkpt lat="44.94597" lon="6.5019">
        <ele>2231.4</ele>
        <time>2024-08-11T10:42:39Z</time>
      </trkpt>
      <trkpt lat="44.94597" lon="6.5019">
        <ele>2231.8</ele>
        <time>2024-08-11T10:42:40Z</time>
      </trkpt>
      <trkpt lat="44.94594" lon="6.5019">
        <ele>2232</ele>
        <time>2024-08-11T10:42:41Z</time>
      </trkpt>
      <trkpt lat="44.94594" lon="6.5019">
        <ele>2232</ele>
        <time>2024-08-11T10:42:42Z</time>
      </trkpt>
      <trkpt lat="44.94594" lon="6.5019">
        <ele>2232.2</ele>
        <time>2024-08-11T10:42:43Z</time>
      </trkpt>
      <trkpt lat="44.94592" lon="6.5019">
        <ele>2232.6</ele>
        <time>2024-08-11T10:42:44Z</time>
      </trkpt>
      <trkpt lat="44.94592" lon="6.5019">
        <ele>2232.6</ele>
        <time>2024-08-11T10:42:45Z</time>
      </trkpt>
      <trkpt lat="44.94592" lon="6.5019">
        <ele>2232.6</ele>
        <time>2024-08-11T10:42:46Z</time>
      </trkpt>
      <trkpt lat="44.94592" lon="6.5019">
        <ele>2232.8</ele>
        <time>2024-08-11T10:42:47Z</time>
      </trkpt>
      <trkpt lat="44.94592" lon="6.5019">
        <ele>2232.8</ele>
        <time>2024-08-11T10:42:48Z</time>
      </trkpt>
      <trkpt lat="44.94592" lon="6.5019">
        <ele>2232.8</ele>
        <time>2024-08-11T10:42:49Z</time>
      </trkpt>
      <trkpt lat="44.94592" lon="6.5019">
        <ele>2233</ele>
        <time>2024-08-11T10:42:50Z</time>
      </trkpt>
      <trkpt lat="44.94592" lon="6.5019">
        <ele>2233</ele>
        <time>2024-08-11T10:42:51Z</time>
      </trkpt>
      <trkpt lat="44.94592" lon="6.5019">
        <ele>2233</ele>
        <time>2024-08-11T10:42:52Z</time>
      </trkpt>
      <trkpt lat="44.94592" lon="6.5019">
        <ele>2233</ele>
        <time>2024-08-11T10:42:53Z</time>
      </trkpt>
      <trkpt lat="44.94592" lon="6.5019">
        <ele>2233</ele>
        <time>2024-08-11T10:42:54Z</time>
      </trkpt>
      <trkpt lat="44.94592" lon="6.5019">
        <ele>2233.2</ele>
        <time>2024-08-11T10:42:55Z</time>
      </trkpt>
      <trkpt lat="44.94592" lon="6.5019">
        <ele>2233.2</ele>
        <time>2024-08-11T10:42:56Z</time>
      </trkpt>
      <trkpt lat="44.94592" lon="6.5019">
        <ele>2233</ele>
        <time>2024-08-11T10:42:57Z</time>
      </trkpt>
      <trkpt lat="44.94592" lon="6.5019">
        <ele>2233</ele>
        <time>2024-08-11T10:42:58Z</time>
      </trkpt>
      <trkpt lat="44.94592" lon="6.5019">
        <ele>2233</ele>
        <time>2024-08-11T10:42:59Z</time>
      </trkpt>
      <trkpt lat="44.94592" lon="6.5019">
        <ele>2233</ele>
        <time>2024-08-11T10:43:00Z</time>
      </trkpt>
      <trkpt lat="44.94592" lon="6.5019">
        <ele>2233</ele>
        <time>2024-08-11T10:43:01Z</time>
      </trkpt>
      <trkpt lat="44.94592" lon="6.5019">
        <ele>2233</ele>
        <time>2024-08-11T10:43:02Z</time>
      </trkpt>
      <trkpt lat="44.94592" lon="6.5019">
        <ele>2233</ele>
        <time>2024-08-11T10:43:03Z</time>
      </trkpt>
      <trkpt lat="44.94591" lon="6.50189">
        <ele>2232.8</ele>
        <time>2024-08-11T10:43:04Z</time>
      </trkpt>
      <trkpt lat="44.94591" lon="6.50189">
        <ele>2232.8</ele>
        <time>2024-08-11T10:43:05Z</time>
      </trkpt>
      <trkpt lat="44.94589" lon="6.50188">
        <ele>2233</ele>
        <time>2024-08-11T10:43:06Z</time>
      </trkpt>
      <trkpt lat="44.94589" lon="6.50188">
        <ele>2233</ele>
        <time>2024-08-11T10:43:07Z</time>
      </trkpt>
      <trkpt lat="44.94586" lon="6.50186">
        <ele>2232.8</ele>
        <time>2024-08-11T10:43:08Z</time>
      </trkpt>
      <trkpt lat="44.94586" lon="6.50186">
        <ele>2232.8</ele>
        <time>2024-08-11T10:43:09Z</time>
      </trkpt>
      <trkpt lat="44.94583" lon="6.50186">
        <ele>2233</ele>
        <time>2024-08-11T10:43:10Z</time>
      </trkpt>
      <trkpt lat="44.94583" lon="6.50186">
        <ele>2233.2</ele>
        <time>2024-08-11T10:43:11Z</time>
      </trkpt>
      <trkpt lat="44.94583" lon="6.50186">
        <ele>2233.2</ele>
        <time>2024-08-11T10:43:12Z</time>
      </trkpt>
      <trkpt lat="44.94583" lon="6.50186">
        <ele>2233.2</ele>
        <time>2024-08-11T10:43:13Z</time>
      </trkpt>
      <trkpt lat="44.94583" lon="6.50186">
        <ele>2233.2</ele>
        <time>2024-08-11T10:43:14Z</time>
      </trkpt>
      <trkpt lat="44.94583" lon="6.50186">
        <ele>2233.2</ele>
        <time>2024-08-11T10:43:15Z</time>
      </trkpt>
      <trkpt lat="44.94583" lon="6.50186">
        <ele>2233.4</ele>
        <time>2024-08-11T10:43:16Z</time>
      </trkpt>
      <trkpt lat="44.94581" lon="6.50184">
        <ele>2233.6</ele>
        <time>2024-08-11T10:43:17Z</time>
      </trkpt>
      <trkpt lat="44.94581" lon="6.50184">
        <ele>2233.6</ele>
        <time>2024-08-11T10:43:18Z</time>
      </trkpt>
      <trkpt lat="44.94581" lon="6.50184">
        <ele>2233.6</ele>
        <time>2024-08-11T10:43:19Z</time>
      </trkpt>
      <trkpt lat="44.94579" lon="6.50183">
        <ele>2233.6</ele>
        <time>2024-08-11T10:43:20Z</time>
      </trkpt>
      <trkpt lat="44.94579" lon="6.50183">
        <ele>2233.6</ele>
        <time>2024-08-11T10:43:21Z</time>
      </trkpt>
      <trkpt lat="44.94577" lon="6.50182">
        <ele>2233.6</ele>
        <time>2024-08-11T10:43:22Z</time>
      </trkpt>
      <trkpt lat="44.94577" lon="6.50182">
        <ele>2233.8</ele>
        <time>2024-08-11T10:43:23Z</time>
      </trkpt>
      <trkpt lat="44.94574" lon="6.50181">
        <ele>2233.8</ele>
        <time>2024-08-11T10:43:24Z</time>
      </trkpt>
      <trkpt lat="44.94574" lon="6.50181">
        <ele>2233.6</ele>
        <time>2024-08-11T10:43:25Z</time>
      </trkpt>
      <trkpt lat="44.94572" lon="6.5018">
        <ele>2233.6</ele>
        <time>2024-08-11T10:43:26Z</time>
      </trkpt>
      <trkpt lat="44.94572" lon="6.5018">
        <ele>2233.8</ele>
        <time>2024-08-11T10:43:27Z</time>
      </trkpt>
      <trkpt lat="44.9457" lon="6.50179">
        <ele>2234</ele>
        <time>2024-08-11T10:43:28Z</time>
      </trkpt>
      <trkpt lat="44.9457" lon="6.50179">
        <ele>2234.2</ele>
        <time>2024-08-11T10:43:29Z</time>
      </trkpt>
      <trkpt lat="44.94568" lon="6.50178">
        <ele>2234.2</ele>
        <time>2024-08-11T10:43:30Z</time>
      </trkpt>
      <trkpt lat="44.94568" lon="6.50178">
        <ele>2234.4</ele>
        <time>2024-08-11T10:43:31Z</time>
      </trkpt>
      <trkpt lat="44.94566" lon="6.50178">
        <ele>2234.6</ele>
        <time>2024-08-11T10:43:32Z</time>
      </trkpt>
      <trkpt lat="44.94566" lon="6.50178">
        <ele>2234.6</ele>
        <time>2024-08-11T10:43:33Z</time>
      </trkpt>
      <trkpt lat="44.94565" lon="6.50177">
        <ele>2234.6</ele>
        <time>2024-08-11T10:43:34Z</time>
      </trkpt>
      <trkpt lat="44.94565" lon="6.50177">
        <ele>2234.8</ele>
        <time>2024-08-11T10:43:35Z</time>
      </trkpt>
      <trkpt lat="44.94563" lon="6.50176">
        <ele>2234.8</ele>
        <time>2024-08-11T10:43:36Z</time>
      </trkpt>
      <trkpt lat="44.94563" lon="6.50176">
        <ele>2235.4</ele>
        <time>2024-08-11T10:43:37Z</time>
      </trkpt>
      <trkpt lat="44.9456" lon="6.50175">
        <ele>2235.4</ele>
        <time>2024-08-11T10:43:38Z</time>
      </trkpt>
      <trkpt lat="44.9456" lon="6.50175">
        <ele>2235.4</ele>
        <time>2024-08-11T10:43:39Z</time>
      </trkpt>
      <trkpt lat="44.94558" lon="6.50174">
        <ele>2235.4</ele>
        <time>2024-08-11T10:43:40Z</time>
      </trkpt>
      <trkpt lat="44.94558" lon="6.50174">
        <ele>2235.4</ele>
        <time>2024-08-11T10:43:41Z</time>
      </trkpt>
      <trkpt lat="44.94558" lon="6.50174">
        <ele>2235.4</ele>
        <time>2024-08-11T10:43:42Z</time>
      </trkpt>
      <trkpt lat="44.94556" lon="6.50173">
        <ele>2235.6</ele>
        <time>2024-08-11T10:43:43Z</time>
      </trkpt>
      <trkpt lat="44.94556" lon="6.50173">
        <ele>2235.6</ele>
        <time>2024-08-11T10:43:44Z</time>
      </trkpt>
      <trkpt lat="44.94554" lon="6.50173">
        <ele>2236</ele>
        <time>2024-08-11T10:43:45Z</time>
      </trkpt>
      <trkpt lat="44.94554" lon="6.50173">
        <ele>2236.4</ele>
        <time>2024-08-11T10:43:46Z</time>
      </trkpt>
      <trkpt lat="44.94551" lon="6.50172">
        <ele>2236.6</ele>
        <time>2024-08-11T10:43:47Z</time>
      </trkpt>
      <trkpt lat="44.94551" lon="6.50172">
        <ele>2236.8</ele>
        <time>2024-08-11T10:43:48Z</time>
      </trkpt>
      <trkpt lat="44.94549" lon="6.50172">
        <ele>2236.8</ele>
        <time>2024-08-11T10:43:49Z</time>
      </trkpt>
      <trkpt lat="44.94549" lon="6.50172">
        <ele>2237</ele>
        <time>2024-08-11T10:43:50Z</time>
      </trkpt>
      <trkpt lat="44.94547" lon="6.50171">
        <ele>2237.2</ele>
        <time>2024-08-11T10:43:51Z</time>
      </trkpt>
      <trkpt lat="44.94547" lon="6.50171">
        <ele>2237.2</ele>
        <time>2024-08-11T10:43:52Z</time>
      </trkpt>
      <trkpt lat="44.94545" lon="6.50171">
        <ele>2237.4</ele>
        <time>2024-08-11T10:43:53Z</time>
      </trkpt>
      <trkpt lat="44.94545" lon="6.50171">
        <ele>2237.4</ele>
        <time>2024-08-11T10:43:54Z</time>
      </trkpt>
      <trkpt lat="44.94545" lon="6.50171">
        <ele>2237.6</ele>
        <time>2024-08-11T10:43:55Z</time>
      </trkpt>
      <trkpt lat="44.94545" lon="6.50171">
        <ele>2237.6</ele>
        <time>2024-08-11T10:43:56Z</time>
      </trkpt>
      <trkpt lat="44.94545" lon="6.50171">
        <ele>2237.8</ele>
        <time>2024-08-11T10:43:57Z</time>
      </trkpt>
      <trkpt lat="44.94545" lon="6.50171">
        <ele>2238</ele>
        <time>2024-08-11T10:43:58Z</time>
      </trkpt>
      <trkpt lat="44.94545" lon="6.50171">
        <ele>2238</ele>
        <time>2024-08-11T10:43:59Z</time>
      </trkpt>
      <trkpt lat="44.94545" lon="6.50171">
        <ele>2237.8</ele>
        <time>2024-08-11T10:44:00Z</time>
      </trkpt>
      <trkpt lat="44.94545" lon="6.50171">
        <ele>2237.8</ele>
        <time>2024-08-11T10:44:01Z</time>
      </trkpt>
      <trkpt lat="44.94545" lon="6.50171">
        <ele>2237.8</ele>
        <time>2024-08-11T10:44:02Z</time>
      </trkpt>
      <trkpt lat="44.94543" lon="6.5017">
        <ele>2237.8</ele>
        <time>2024-08-11T10:44:03Z</time>
      </trkpt>
      <trkpt lat="44.94543" lon="6.5017">
        <ele>2237.8</ele>
        <time>2024-08-11T10:44:04Z</time>
      </trkpt>
      <trkpt lat="44.94541" lon="6.5017">
        <ele>2238</ele>
        <time>2024-08-11T10:44:05Z</time>
      </trkpt>
      <trkpt lat="44.94541" lon="6.5017">
        <ele>2238.4</ele>
        <time>2024-08-11T10:44:06Z</time>
      </trkpt>
      <trkpt lat="44.94538" lon="6.50169">
        <ele>2238.4</ele>
        <time>2024-08-11T10:44:07Z</time>
      </trkpt>
      <trkpt lat="44.94538" lon="6.50169">
        <ele>2238.4</ele>
        <time>2024-08-11T10:44:08Z</time>
      </trkpt>
      <trkpt lat="44.94536" lon="6.50169">
        <ele>2238.4</ele>
        <time>2024-08-11T10:44:09Z</time>
      </trkpt>
      <trkpt lat="44.94536" lon="6.50169">
        <ele>2238.4</ele>
        <time>2024-08-11T10:44:10Z</time>
      </trkpt>
      <trkpt lat="44.94536" lon="6.50169">
        <ele>2238.8</ele>
        <time>2024-08-11T10:44:11Z</time>
      </trkpt>
      <trkpt lat="44.94534" lon="6.50167">
        <ele>2238.8</ele>
        <time>2024-08-11T10:44:12Z</time>
      </trkpt>
      <trkpt lat="44.94534" lon="6.50167">
        <ele>2239.2</ele>
        <time>2024-08-11T10:44:13Z</time>
      </trkpt>
      <trkpt lat="44.94534" lon="6.50167">
        <ele>2239.4</ele>
        <time>2024-08-11T10:44:14Z</time>
      </trkpt>
      <trkpt lat="44.94534" lon="6.50167">
        <ele>2239.6</ele>
        <time>2024-08-11T10:44:15Z</time>
      </trkpt>
      <trkpt lat="44.94534" lon="6.50167">
        <ele>2239.6</ele>
        <time>2024-08-11T10:44:16Z</time>
      </trkpt>
      <trkpt lat="44.94534" lon="6.50167">
        <ele>2239.6</ele>
        <time>2024-08-11T10:44:17Z</time>
      </trkpt>
      <trkpt lat="44.94534" lon="6.50167">
        <ele>2239.6</ele>
        <time>2024-08-11T10:44:18Z</time>
      </trkpt>
      <trkpt lat="44.94534" lon="6.50167">
        <ele>2239.6</ele>
        <time>2024-08-11T10:44:19Z</time>
      </trkpt>
      <trkpt lat="44.94534" lon="6.50167">
        <ele>2239.4</ele>
        <time>2024-08-11T10:44:20Z</time>
      </trkpt>
      <trkpt lat="44.94533" lon="6.5017">
        <ele>2239.4</ele>
        <time>2024-08-11T10:44:21Z</time>
      </trkpt>
      <trkpt lat="44.94533" lon="6.5017">
        <ele>2239.4</ele>
        <time>2024-08-11T10:44:22Z</time>
      </trkpt>
      <trkpt lat="44.94533" lon="6.50174">
        <ele>2239.4</ele>
        <time>2024-08-11T10:44:23Z</time>
      </trkpt>
      <trkpt lat="44.94533" lon="6.50174">
        <ele>2239.2</ele>
        <time>2024-08-11T10:44:24Z</time>
      </trkpt>
      <trkpt lat="44.94533" lon="6.50179">
        <ele>2239</ele>
        <time>2024-08-11T10:44:25Z</time>
      </trkpt>
      <trkpt lat="44.94533" lon="6.50179">
        <ele>2239</ele>
        <time>2024-08-11T10:44:26Z</time>
      </trkpt>
      <trkpt lat="44.94532" lon="6.50182">
        <ele>2239</ele>
        <time>2024-08-11T10:44:27Z</time>
      </trkpt>
      <trkpt lat="44.94532" lon="6.50182">
        <ele>2239.2</ele>
        <time>2024-08-11T10:44:28Z</time>
      </trkpt>
      <trkpt lat="44.94531" lon="6.50185">
        <ele>2239.2</ele>
        <time>2024-08-11T10:44:29Z</time>
      </trkpt>
      <trkpt lat="44.94531" lon="6.50185">
        <ele>2239.2</ele>
        <time>2024-08-11T10:44:30Z</time>
      </trkpt>
      <trkpt lat="44.9453" lon="6.50189">
        <ele>2239.2</ele>
        <time>2024-08-11T10:44:31Z</time>
      </trkpt>
      <trkpt lat="44.9453" lon="6.50189">
        <ele>2239.4</ele>
        <time>2024-08-11T10:44:32Z</time>
      </trkpt>
      <trkpt lat="44.94529" lon="6.50191">
        <ele>2239.4</ele>
        <time>2024-08-11T10:44:33Z</time>
      </trkpt>
      <trkpt lat="44.94529" lon="6.50191">
        <ele>2239.4</ele>
        <time>2024-08-11T10:44:34Z</time>
      </trkpt>
      <trkpt lat="44.94527" lon="6.50193">
        <ele>2239.4</ele>
        <time>2024-08-11T10:44:35Z</time>
      </trkpt>
      <trkpt lat="44.94527" lon="6.50193">
        <ele>2239.6</ele>
        <time>2024-08-11T10:44:36Z</time>
      </trkpt>
      <trkpt lat="44.94525" lon="6.50195">
        <ele>2239.6</ele>
        <time>2024-08-11T10:44:37Z</time>
      </trkpt>
      <trkpt lat="44.94525" lon="6.50195">
        <ele>2239.6</ele>
        <time>2024-08-11T10:44:38Z</time>
      </trkpt>
      <trkpt lat="44.94524" lon="6.50196">
        <ele>2240</ele>
        <time>2024-08-11T10:44:39Z</time>
      </trkpt>
      <trkpt lat="44.94524" lon="6.50196">
        <ele>2240.2</ele>
        <time>2024-08-11T10:44:40Z</time>
      </trkpt>
      <trkpt lat="44.94523" lon="6.50198">
        <ele>2240.4</ele>
        <time>2024-08-11T10:44:41Z</time>
      </trkpt>
      <trkpt lat="44.94523" lon="6.50198">
        <ele>2240.8</ele>
        <time>2024-08-11T10:44:42Z</time>
      </trkpt>
      <trkpt lat="44.94523" lon="6.50198">
        <ele>2240.6</ele>
        <time>2024-08-11T10:44:43Z</time>
      </trkpt>
      <trkpt lat="44.94524" lon="6.50201">
        <ele>2240.8</ele>
        <time>2024-08-11T10:44:44Z</time>
      </trkpt>
      <trkpt lat="44.94524" lon="6.50201">
        <ele>2240.8</ele>
        <time>2024-08-11T10:44:45Z</time>
      </trkpt>
      <trkpt lat="44.94524" lon="6.50201">
        <ele>2240.8</ele>
        <time>2024-08-11T10:44:46Z</time>
      </trkpt>
      <trkpt lat="44.94525" lon="6.50202">
        <ele>2240.8</ele>
        <time>2024-08-11T10:44:47Z</time>
      </trkpt>
      <trkpt lat="44.94525" lon="6.50202">
        <ele>2241.2</ele>
        <time>2024-08-11T10:44:48Z</time>
      </trkpt>
      <trkpt lat="44.94525" lon="6.50202">
        <ele>2241.8</ele>
        <time>2024-08-11T10:44:49Z</time>
      </trkpt>
      <trkpt lat="44.94525" lon="6.50202">
        <ele>2242</ele>
        <time>2024-08-11T10:44:50Z</time>
      </trkpt>
      <trkpt lat="44.94528" lon="6.50201">
        <ele>2242.2</ele>
        <time>2024-08-11T10:44:51Z</time>
      </trkpt>
      <trkpt lat="44.94528" lon="6.50201">
        <ele>2242.4</ele>
        <time>2024-08-11T10:44:52Z</time>
      </trkpt>
      <trkpt lat="44.94528" lon="6.50201">
        <ele>2242.6</ele>
        <time>2024-08-11T10:44:53Z</time>
      </trkpt>
      <trkpt lat="44.9453" lon="6.502">
        <ele>2242.8</ele>
        <time>2024-08-11T10:44:54Z</time>
      </trkpt>
      <trkpt lat="44.9453" lon="6.502">
        <ele>2242.8</ele>
        <time>2024-08-11T10:44:55Z</time>
      </trkpt>
      <trkpt lat="44.94532" lon="6.50201">
        <ele>2243</ele>
        <time>2024-08-11T10:44:56Z</time>
      </trkpt>
      <trkpt lat="44.94532" lon="6.50201">
        <ele>2242.8</ele>
        <time>2024-08-11T10:44:57Z</time>
      </trkpt>
      <trkpt lat="44.94532" lon="6.50201">
        <ele>2242.6</ele>
        <time>2024-08-11T10:44:58Z</time>
      </trkpt>
      <trkpt lat="44.94532" lon="6.50201">
        <ele>2242.6</ele>
        <time>2024-08-11T10:44:59Z</time>
      </trkpt>
      <trkpt lat="44.94532" lon="6.50201">
        <ele>2242.6</ele>
        <time>2024-08-11T10:45:00Z</time>
      </trkpt>
      <trkpt lat="44.94532" lon="6.50201">
        <ele>2242.6</ele>
        <time>2024-08-11T10:45:01Z</time>
      </trkpt>
      <trkpt lat="44.94532" lon="6.50201">
        <ele>2242.6</ele>
        <time>2024-08-11T10:45:02Z</time>
      </trkpt>
      <trkpt lat="44.94532" lon="6.50201">
        <ele>2242.6</ele>
        <time>2024-08-11T10:45:03Z</time>
      </trkpt>
      <trkpt lat="44.94532" lon="6.50201">
        <ele>2242.8</ele>
        <time>2024-08-11T10:45:04Z</time>
      </trkpt>
      <trkpt lat="44.94532" lon="6.50201">
        <ele>2242.8</ele>
        <time>2024-08-11T10:45:05Z</time>
      </trkpt>
      <trkpt lat="44.94532" lon="6.50201">
        <ele>2242.8</ele>
        <time>2024-08-11T10:45:06Z</time>
      </trkpt>
      <trkpt lat="44.94532" lon="6.50201">
        <ele>2242.8</ele>
        <time>2024-08-11T10:45:07Z</time>
      </trkpt>
      <trkpt lat="44.94532" lon="6.50201">
        <ele>2242.8</ele>
        <time>2024-08-11T10:45:08Z</time>
      </trkpt>
      <trkpt lat="44.94532" lon="6.50201">
        <ele>2243</ele>
        <time>2024-08-11T10:45:09Z</time>
      </trkpt>
      <trkpt lat="44.94532" lon="6.50201">
        <ele>2243.2</ele>
        <time>2024-08-11T10:45:10Z</time>
      </trkpt>
      <trkpt lat="44.94532" lon="6.50201">
        <ele>2243.2</ele>
        <time>2024-08-11T10:45:11Z</time>
      </trkpt>
      <trkpt lat="44.94532" lon="6.50201">
        <ele>2243.4</ele>
        <time>2024-08-11T10:45:12Z</time>
      </trkpt>
      <trkpt lat="44.94532" lon="6.50201">
        <ele>2243.4</ele>
        <time>2024-08-11T10:45:13Z</time>
      </trkpt>
      <trkpt lat="44.94532" lon="6.50201">
        <ele>2243.2</ele>
        <time>2024-08-11T10:45:14Z</time>
      </trkpt>
      <trkpt lat="44.94532" lon="6.50201">
        <ele>2243.2</ele>
        <time>2024-08-11T10:45:15Z</time>
      </trkpt>
      <trkpt lat="44.94532" lon="6.50201">
        <ele>2243.2</ele>
        <time>2024-08-11T10:45:16Z</time>
      </trkpt>
      <trkpt lat="44.94532" lon="6.50201">
        <ele>2243.2</ele>
        <time>2024-08-11T10:45:17Z</time>
      </trkpt>
      <trkpt lat="44.94532" lon="6.50201">
        <ele>2243.2</ele>
        <time>2024-08-11T10:45:18Z</time>
      </trkpt>
      <trkpt lat="44.94532" lon="6.50201">
        <ele>2243.2</ele>
        <time>2024-08-11T10:45:19Z</time>
      </trkpt>
      <trkpt lat="44.94532" lon="6.50201">
        <ele>2243.2</ele>
        <time>2024-08-11T10:45:20Z</time>
      </trkpt>
      <trkpt lat="44.94532" lon="6.50201">
        <ele>2243.4</ele>
        <time>2024-08-11T10:45:21Z</time>
      </trkpt>
      <trkpt lat="44.94532" lon="6.50201">
        <ele>2243.4</ele>
        <time>2024-08-11T10:45:22Z</time>
      </trkpt>
      <trkpt lat="44.94532" lon="6.50201">
        <ele>2243.4</ele>
        <time>2024-08-11T10:45:23Z</time>
      </trkpt>
      <trkpt lat="44.94532" lon="6.50201">
        <ele>2243.4</ele>
        <time>2024-08-11T10:45:24Z</time>
      </trkpt>
      <trkpt lat="44.94532" lon="6.50201">
        <ele>2243.4</ele>
        <time>2024-08-11T10:45:25Z</time>
      </trkpt>
      <trkpt lat="44.94532" lon="6.50201">
        <ele>2243.4</ele>
        <time>2024-08-11T10:45:26Z</time>
      </trkpt>
      <trkpt lat="44.94532" lon="6.50201">
        <ele>2243.4</ele>
        <time>2024-08-11T10:45:27Z</time>
      </trkpt>
      <trkpt lat="44.94532" lon="6.50201">
        <ele>2243.4</ele>
        <time>2024-08-11T10:45:28Z</time>
      </trkpt>
      <trkpt lat="44.94532" lon="6.50201">
        <ele>2243.4</ele>
        <time>2024-08-11T10:45:29Z</time>
      </trkpt>
      <trkpt lat="44.94532" lon="6.50201">
        <ele>2243.6</ele>
        <time>2024-08-11T10:45:30Z</time>
      </trkpt>
      <trkpt lat="44.94532" lon="6.50201">
        <ele>2243.6</ele>
        <time>2024-08-11T10:45:31Z</time>
      </trkpt>
      <trkpt lat="44.94532" lon="6.50201">
        <ele>2243.8</ele>
        <time>2024-08-11T10:45:32Z</time>
      </trkpt>
      <trkpt lat="44.94532" lon="6.50201">
        <ele>2243.8</ele>
        <time>2024-08-11T10:45:33Z</time>
      </trkpt>
      <trkpt lat="44.94532" lon="6.50201">
        <ele>2244</ele>
        <time>2024-08-11T10:45:34Z</time>
      </trkpt>
      <trkpt lat="44.94532" lon="6.50201">
        <ele>2244.2</ele>
        <time>2024-08-11T10:45:35Z</time>
      </trkpt>
      <trkpt lat="44.94532" lon="6.50201">
        <ele>2244.2</ele>
        <time>2024-08-11T10:45:36Z</time>
      </trkpt>
      <trkpt lat="44.94532" lon="6.50201">
        <ele>2244.2</ele>
        <time>2024-08-11T10:45:37Z</time>
      </trkpt>
      <trkpt lat="44.94532" lon="6.50201">
        <ele>2244.2</ele>
        <time>2024-08-11T10:45:38Z</time>
      </trkpt>
      <trkpt lat="44.94532" lon="6.50201">
        <ele>2244.2</ele>
        <time>2024-08-11T10:45:39Z</time>
      </trkpt>
      <trkpt lat="44.94532" lon="6.50201">
        <ele>2243.8</ele>
        <time>2024-08-11T10:45:40Z</time>
      </trkpt>
      <trkpt lat="44.94532" lon="6.50201">
        <ele>2243.6</ele>
        <time>2024-08-11T10:45:41Z</time>
      </trkpt>
      <trkpt lat="44.94532" lon="6.50201">
        <ele>2243.6</ele>
        <time>2024-08-11T10:45:42Z</time>
      </trkpt>
      <trkpt lat="44.94532" lon="6.50201">
        <ele>2244</ele>
        <time>2024-08-11T10:45:43Z</time>
      </trkpt>
      <trkpt lat="44.94532" lon="6.50201">
        <ele>2244</ele>
        <time>2024-08-11T10:45:44Z</time>
      </trkpt>
      <trkpt lat="44.94532" lon="6.50201">
        <ele>2244</ele>
        <time>2024-08-11T10:45:45Z</time>
      </trkpt>
      <trkpt lat="44.94532" lon="6.50201">
        <ele>2243.8</ele>
        <time>2024-08-11T10:45:46Z</time>
      </trkpt>
      <trkpt lat="44.94532" lon="6.50201">
        <ele>2243.8</ele>
        <time>2024-08-11T10:45:47Z</time>
      </trkpt>
      <trkpt lat="44.94532" lon="6.50201">
        <ele>2244</ele>
        <time>2024-08-11T10:45:48Z</time>
      </trkpt>
      <trkpt lat="44.94532" lon="6.50201">
        <ele>2244.2</ele>
        <time>2024-08-11T10:45:49Z</time>
      </trkpt>
      <trkpt lat="44.94532" lon="6.50201">
        <ele>2244.2</ele>
        <time>2024-08-11T10:45:50Z</time>
      </trkpt>
      <trkpt lat="44.94532" lon="6.50201">
        <ele>2244</ele>
        <time>2024-08-11T10:45:51Z</time>
      </trkpt>
      <trkpt lat="44.94532" lon="6.50201">
        <ele>2244.2</ele>
        <time>2024-08-11T10:45:52Z</time>
      </trkpt>
      <trkpt lat="44.94532" lon="6.50201">
        <ele>2244.4</ele>
        <time>2024-08-11T10:45:53Z</time>
      </trkpt>
      <trkpt lat="44.94532" lon="6.50201">
        <ele>2244.8</ele>
        <time>2024-08-11T10:45:54Z</time>
      </trkpt>
      <trkpt lat="44.94532" lon="6.50201">
        <ele>2244.8</ele>
        <time>2024-08-11T10:45:55Z</time>
      </trkpt>
      <trkpt lat="44.94532" lon="6.50201">
        <ele>2244.8</ele>
        <time>2024-08-11T10:45:56Z</time>
      </trkpt>
      <trkpt lat="44.94532" lon="6.50201">
        <ele>2244.8</ele>
        <time>2024-08-11T10:45:57Z</time>
      </trkpt>
      <trkpt lat="44.94532" lon="6.50201">
        <ele>2244.8</ele>
        <time>2024-08-11T10:45:58Z</time>
      </trkpt>
      <trkpt lat="44.94532" lon="6.50201">
        <ele>2244.8</ele>
        <time>2024-08-11T10:45:59Z</time>
      </trkpt>
      <trkpt lat="44.94532" lon="6.50201">
        <ele>2244.6</ele>
        <time>2024-08-11T10:46:00Z</time>
      </trkpt>
      <trkpt lat="44.94532" lon="6.50201">
        <ele>2244.6</ele>
        <time>2024-08-11T10:46:01Z</time>
      </trkpt>
      <trkpt lat="44.94532" lon="6.50201">
        <ele>2245</ele>
        <time>2024-08-11T10:46:02Z</time>
      </trkpt>
      <trkpt lat="44.94532" lon="6.50201">
        <ele>2245</ele>
        <time>2024-08-11T10:46:03Z</time>
      </trkpt>
      <trkpt lat="44.94532" lon="6.50201">
        <ele>2245.2</ele>
        <time>2024-08-11T10:46:04Z</time>
      </trkpt>
      <trkpt lat="44.94532" lon="6.50201">
        <ele>2245.4</ele>
        <time>2024-08-11T10:46:05Z</time>
      </trkpt>
      <trkpt lat="44.94532" lon="6.50201">
        <ele>2245.4</ele>
        <time>2024-08-11T10:46:06Z</time>
      </trkpt>
      <trkpt lat="44.94532" lon="6.50201">
        <ele>2245.4</ele>
        <time>2024-08-11T10:46:07Z</time>
      </trkpt>
      <trkpt lat="44.94532" lon="6.50201">
        <ele>2245.4</ele>
        <time>2024-08-11T10:46:08Z</time>
      </trkpt>
      <trkpt lat="44.94532" lon="6.50201">
        <ele>2245.4</ele>
        <time>2024-08-11T10:46:09Z</time>
      </trkpt>
      <trkpt lat="44.94532" lon="6.50201">
        <ele>2245.4</ele>
        <time>2024-08-11T10:46:10Z</time>
      </trkpt>
      <trkpt lat="44.94532" lon="6.50201">
        <ele>2245.4</ele>
        <time>2024-08-11T10:46:11Z</time>
      </trkpt>
      <trkpt lat="44.94532" lon="6.50201">
        <ele>2245.8</ele>
        <time>2024-08-11T10:46:12Z</time>
      </trkpt>
      <trkpt lat="44.94532" lon="6.50201">
        <ele>2245.8</ele>
        <time>2024-08-11T10:46:13Z</time>
      </trkpt>
      <trkpt lat="44.94532" lon="6.50201">
        <ele>2245.6</ele>
        <time>2024-08-11T10:46:14Z</time>
      </trkpt>
      <trkpt lat="44.94532" lon="6.50201">
        <ele>2245.4</ele>
        <time>2024-08-11T10:46:15Z</time>
      </trkpt>
      <trkpt lat="44.94532" lon="6.50201">
        <ele>2245.4</ele>
        <time>2024-08-11T10:46:16Z</time>
      </trkpt>
      <trkpt lat="44.94532" lon="6.50201">
        <ele>2245.8</ele>
        <time>2024-08-11T10:46:17Z</time>
      </trkpt>
      <trkpt lat="44.94532" lon="6.50201">
        <ele>2245.8</ele>
        <time>2024-08-11T10:46:18Z</time>
      </trkpt>
      <trkpt lat="44.94532" lon="6.50201">
        <ele>2245.8</ele>
        <time>2024-08-11T10:46:19Z</time>
      </trkpt>
      <trkpt lat="44.94532" lon="6.50201">
        <ele>2245.6</ele>
        <time>2024-08-11T10:46:20Z</time>
      </trkpt>
      <trkpt lat="44.94532" lon="6.50201">
        <ele>2245.4</ele>
        <time>2024-08-11T10:46:21Z</time>
      </trkpt>
      <trkpt lat="44.94532" lon="6.50201">
        <ele>2245.4</ele>
        <time>2024-08-11T10:46:22Z</time>
      </trkpt>
      <trkpt lat="44.94532" lon="6.50201">
        <ele>2245.6</ele>
        <time>2024-08-11T10:46:23Z</time>
      </trkpt>
      <trkpt lat="44.94532" lon="6.50201">
        <ele>2245.6</ele>
        <time>2024-08-11T10:46:24Z</time>
      </trkpt>
      <trkpt lat="44.94532" lon="6.50201">
        <ele>2245.6</ele>
        <time>2024-08-11T10:46:25Z</time>
      </trkpt>
      <trkpt lat="44.94532" lon="6.50201">
        <ele>2245.6</ele>
        <time>2024-08-11T10:46:26Z</time>
      </trkpt>
      <trkpt lat="44.94532" lon="6.50201">
        <ele>2245.6</ele>
        <time>2024-08-11T10:46:27Z</time>
      </trkpt>
      <trkpt lat="44.94532" lon="6.50201">
        <ele>2245.6</ele>
        <time>2024-08-11T10:46:28Z</time>
      </trkpt>
      <trkpt lat="44.94532" lon="6.50201">
        <ele>2245.6</ele>
        <time>2024-08-11T10:46:29Z</time>
      </trkpt>
      <trkpt lat="44.94532" lon="6.50201">
        <ele>2245.6</ele>
        <time>2024-08-11T10:46:30Z</time>
      </trkpt>
      <trkpt lat="44.94532" lon="6.50201">
        <ele>2245.6</ele>
        <time>2024-08-11T10:46:31Z</time>
      </trkpt>
      <trkpt lat="44.94532" lon="6.50201">
        <ele>2245.8</ele>
        <time>2024-08-11T10:46:32Z</time>
      </trkpt>
      <trkpt lat="44.94532" lon="6.50201">
        <ele>2245.8</ele>
        <time>2024-08-11T10:46:33Z</time>
      </trkpt>
      <trkpt lat="44.94532" lon="6.50201">
        <ele>2245.8</ele>
        <time>2024-08-11T10:46:34Z</time>
      </trkpt>
      <trkpt lat="44.94532" lon="6.50201">
        <ele>2245.8</ele>
        <time>2024-08-11T10:46:35Z</time>
      </trkpt>
      <trkpt lat="44.94532" lon="6.50201">
        <ele>2245.8</ele>
        <time>2024-08-11T10:46:36Z</time>
      </trkpt>
      <trkpt lat="44.94532" lon="6.50201">
        <ele>2245.8</ele>
        <time>2024-08-11T10:46:37Z</time>
      </trkpt>
      <trkpt lat="44.94532" lon="6.50201">
        <ele>2245.6</ele>
        <time>2024-08-11T10:46:38Z</time>
      </trkpt>
      <trkpt lat="44.94532" lon="6.50201">
        <ele>2245.6</ele>
        <time>2024-08-11T10:46:39Z</time>
      </trkpt>
      <trkpt lat="44.94532" lon="6.50201">
        <ele>2245.6</ele>
        <time>2024-08-11T10:46:40Z</time>
      </trkpt>
      <trkpt lat="44.94532" lon="6.50201">
        <ele>2245.6</ele>
        <time>2024-08-11T10:46:41Z</time>
      </trkpt>
      <trkpt lat="44.94532" lon="6.50201">
        <ele>2245.6</ele>
        <time>2024-08-11T10:46:42Z</time>
      </trkpt>
      <trkpt lat="44.94532" lon="6.50201">
        <ele>2245.8</ele>
        <time>2024-08-11T10:46:43Z</time>
      </trkpt>
      <trkpt lat="44.94532" lon="6.50201">
        <ele>2245.8</ele>
        <time>2024-08-11T10:46:44Z</time>
      </trkpt>
      <trkpt lat="44.94532" lon="6.50201">
        <ele>2245.8</ele>
        <time>2024-08-11T10:46:45Z</time>
      </trkpt>
      <trkpt lat="44.94532" lon="6.50201">
        <ele>2245.8</ele>
        <time>2024-08-11T10:46:46Z</time>
      </trkpt>
      <trkpt lat="44.94532" lon="6.50201">
        <ele>2245.8</ele>
        <time>2024-08-11T10:46:47Z</time>
      </trkpt>
      <trkpt lat="44.94532" lon="6.50201">
        <ele>2245.8</ele>
        <time>2024-08-11T10:46:48Z</time>
      </trkpt>
      <trkpt lat="44.94532" lon="6.50201">
        <ele>2245.8</ele>
        <time>2024-08-11T10:46:49Z</time>
      </trkpt>
      <trkpt lat="44.94532" lon="6.50201">
        <ele>2246</ele>
        <time>2024-08-11T10:46:50Z</time>
      </trkpt>
      <trkpt lat="44.94532" lon="6.50201">
        <ele>2246.4</ele>
        <time>2024-08-11T10:46:51Z</time>
      </trkpt>
      <trkpt lat="44.94532" lon="6.50201">
        <ele>2246.4</ele>
        <time>2024-08-11T10:46:52Z</time>
      </trkpt>
      <trkpt lat="44.94532" lon="6.50201">
        <ele>2246.2</ele>
        <time>2024-08-11T10:46:53Z</time>
      </trkpt>
      <trkpt lat="44.94532" lon="6.50201">
        <ele>2246.2</ele>
        <time>2024-08-11T10:46:54Z</time>
      </trkpt>
      <trkpt lat="44.94532" lon="6.50201">
        <ele>2246.2</ele>
        <time>2024-08-11T10:46:55Z</time>
      </trkpt>
      <trkpt lat="44.94532" lon="6.50201">
        <ele>2246.2</ele>
        <time>2024-08-11T10:46:56Z</time>
      </trkpt>
      <trkpt lat="44.94532" lon="6.50201">
        <ele>2246.2</ele>
        <time>2024-08-11T10:46:57Z</time>
      </trkpt>
      <trkpt lat="44.94532" lon="6.50201">
        <ele>2246.2</ele>
        <time>2024-08-11T10:46:58Z</time>
      </trkpt>
      <trkpt lat="44.94532" lon="6.50201">
        <ele>2246.2</ele>
        <time>2024-08-11T10:46:59Z</time>
      </trkpt>
      <trkpt lat="44.94532" lon="6.50201">
        <ele>2246.4</ele>
        <time>2024-08-11T10:47:00Z</time>
      </trkpt>
      <trkpt lat="44.94532" lon="6.50201">
        <ele>2246.4</ele>
        <time>2024-08-11T10:47:01Z</time>
      </trkpt>
      <trkpt lat="44.94532" lon="6.50201">
        <ele>2246.2</ele>
        <time>2024-08-11T10:47:02Z</time>
      </trkpt>
      <trkpt lat="44.94532" lon="6.50201">
        <ele>2246.2</ele>
        <time>2024-08-11T10:47:03Z</time>
      </trkpt>
      <trkpt lat="44.94532" lon="6.50201">
        <ele>2246.4</ele>
        <time>2024-08-11T10:47:04Z</time>
      </trkpt>
      <trkpt lat="44.94532" lon="6.50201">
        <ele>2246.4</ele>
        <time>2024-08-11T10:47:05Z</time>
      </trkpt>
      <trkpt lat="44.94532" lon="6.50201">
        <ele>2246.2</ele>
        <time>2024-08-11T10:47:06Z</time>
      </trkpt>
      <trkpt lat="44.94532" lon="6.50201">
        <ele>2246.2</ele>
        <time>2024-08-11T10:47:07Z</time>
      </trkpt>
      <trkpt lat="44.94532" lon="6.50201">
        <ele>2246.4</ele>
        <time>2024-08-11T10:47:08Z</time>
      </trkpt>
      <trkpt lat="44.94532" lon="6.50201">
        <ele>2246.4</ele>
        <time>2024-08-11T10:47:09Z</time>
      </trkpt>
      <trkpt lat="44.94532" lon="6.50201">
        <ele>2246.6</ele>
        <time>2024-08-11T10:47:10Z</time>
      </trkpt>
      <trkpt lat="44.94532" lon="6.50201">
        <ele>2246.6</ele>
        <time>2024-08-11T10:47:11Z</time>
      </trkpt>
      <trkpt lat="44.94532" lon="6.50201">
        <ele>2246.6</ele>
        <time>2024-08-11T10:47:12Z</time>
      </trkpt>
      <trkpt lat="44.94532" lon="6.50201">
        <ele>2246.4</ele>
        <time>2024-08-11T10:47:13Z</time>
      </trkpt>
      <trkpt lat="44.94532" lon="6.50201">
        <ele>2246.4</ele>
        <time>2024-08-11T10:47:14Z</time>
      </trkpt>
      <trkpt lat="44.94532" lon="6.50201">
        <ele>2246.4</ele>
        <time>2024-08-11T10:47:15Z</time>
      </trkpt>
      <trkpt lat="44.94532" lon="6.50201">
        <ele>2246.2</ele>
        <time>2024-08-11T10:47:16Z</time>
      </trkpt>
      <trkpt lat="44.94532" lon="6.50201">
        <ele>2246.2</ele>
        <time>2024-08-11T10:47:17Z</time>
      </trkpt>
      <trkpt lat="44.94532" lon="6.50201">
        <ele>2246.4</ele>
        <time>2024-08-11T10:47:18Z</time>
      </trkpt>
      <trkpt lat="44.94532" lon="6.50201">
        <ele>2246.4</ele>
        <time>2024-08-11T10:47:19Z</time>
      </trkpt>
      <trkpt lat="44.94532" lon="6.50201">
        <ele>2246.6</ele>
        <time>2024-08-11T10:47:20Z</time>
      </trkpt>
      <trkpt lat="44.94532" lon="6.50201">
        <ele>2246.6</ele>
        <time>2024-08-11T10:47:21Z</time>
      </trkpt>
      <trkpt lat="44.94532" lon="6.50201">
        <ele>2246.6</ele>
        <time>2024-08-11T10:47:22Z</time>
      </trkpt>
      <trkpt lat="44.94532" lon="6.50201">
        <ele>2246.6</ele>
        <time>2024-08-11T10:47:23Z</time>
      </trkpt>
      <trkpt lat="44.94532" lon="6.50201">
        <ele>2246.6</ele>
        <time>2024-08-11T10:47:24Z</time>
      </trkpt>
      <trkpt lat="44.94532" lon="6.50201">
        <ele>2246.4</ele>
        <time>2024-08-11T10:47:25Z</time>
      </trkpt>
      <trkpt lat="44.94532" lon="6.50201">
        <ele>2246.4</ele>
        <time>2024-08-11T10:47:26Z</time>
      </trkpt>
      <trkpt lat="44.94532" lon="6.50201">
        <ele>2246.4</ele>
        <time>2024-08-11T10:47:27Z</time>
      </trkpt>
      <trkpt lat="44.94532" lon="6.50201">
        <ele>2246.4</ele>
        <time>2024-08-11T10:47:28Z</time>
      </trkpt>
      <trkpt lat="44.94532" lon="6.50201">
        <ele>2246.6</ele>
        <time>2024-08-11T10:47:29Z</time>
      </trkpt>
      <trkpt lat="44.94532" lon="6.50201">
        <ele>2246.8</ele>
        <time>2024-08-11T10:47:30Z</time>
      </trkpt>
      <trkpt lat="44.94532" lon="6.50201">
        <ele>2246.8</ele>
        <time>2024-08-11T10:47:31Z</time>
      </trkpt>
      <trkpt lat="44.94532" lon="6.50201">
        <ele>2246.8</ele>
        <time>2024-08-11T10:47:32Z</time>
      </trkpt>
      <trkpt lat="44.94532" lon="6.50201">
        <ele>2246.8</ele>
        <time>2024-08-11T10:47:33Z</time>
      </trkpt>
      <trkpt lat="44.94532" lon="6.50201">
        <ele>2246.8</ele>
        <time>2024-08-11T10:47:34Z</time>
      </trkpt>
      <trkpt lat="44.94532" lon="6.50201">
        <ele>2246.6</ele>
        <time>2024-08-11T10:47:35Z</time>
      </trkpt>
      <trkpt lat="44.94532" lon="6.50201">
        <ele>2246.6</ele>
        <time>2024-08-11T10:47:36Z</time>
      </trkpt>
      <trkpt lat="44.94532" lon="6.50201">
        <ele>2246.6</ele>
        <time>2024-08-11T10:47:37Z</time>
      </trkpt>
      <trkpt lat="44.94532" lon="6.50201">
        <ele>2246.6</ele>
        <time>2024-08-11T10:47:38Z</time>
      </trkpt>
      <trkpt lat="44.94532" lon="6.50201">
        <ele>2246.6</ele>
        <time>2024-08-11T10:47:39Z</time>
      </trkpt>
      <trkpt lat="44.94532" lon="6.50201">
        <ele>2246.8</ele>
        <time>2024-08-11T10:47:40Z</time>
      </trkpt>
      <trkpt lat="44.94532" lon="6.50201">
        <ele>2247</ele>
        <time>2024-08-11T10:47:41Z</time>
      </trkpt>
      <trkpt lat="44.94532" lon="6.50201">
        <ele>2247</ele>
        <time>2024-08-11T10:47:42Z</time>
      </trkpt>
      <trkpt lat="44.94532" lon="6.50201">
        <ele>2247</ele>
        <time>2024-08-11T10:47:43Z</time>
      </trkpt>
      <trkpt lat="44.94532" lon="6.50201">
        <ele>2246.8</ele>
        <time>2024-08-11T10:47:44Z</time>
      </trkpt>
      <trkpt lat="44.94532" lon="6.50201">
        <ele>2246.8</ele>
        <time>2024-08-11T10:47:45Z</time>
      </trkpt>
      <trkpt lat="44.94532" lon="6.50201">
        <ele>2246.8</ele>
        <time>2024-08-11T10:47:46Z</time>
      </trkpt>
      <trkpt lat="44.94532" lon="6.50201">
        <ele>2246.8</ele>
        <time>2024-08-11T10:47:47Z</time>
      </trkpt>
      <trkpt lat="44.94532" lon="6.50201">
        <ele>2246.8</ele>
        <time>2024-08-11T10:47:48Z</time>
      </trkpt>
      <trkpt lat="44.94532" lon="6.50201">
        <ele>2246.6</ele>
        <time>2024-08-11T10:47:49Z</time>
      </trkpt>
      <trkpt lat="44.94532" lon="6.50201">
        <ele>2246.6</ele>
        <time>2024-08-11T10:47:50Z</time>
      </trkpt>
      <trkpt lat="44.94532" lon="6.50201">
        <ele>2246.6</ele>
        <time>2024-08-11T10:47:51Z</time>
      </trkpt>
      <trkpt lat="44.94532" lon="6.50201">
        <ele>2246.8</ele>
        <time>2024-08-11T10:47:52Z</time>
      </trkpt>
      <trkpt lat="44.94532" lon="6.50201">
        <ele>2247</ele>
        <time>2024-08-11T10:47:53Z</time>
      </trkpt>
      <trkpt lat="44.94532" lon="6.50201">
        <ele>2247</ele>
        <time>2024-08-11T10:47:54Z</time>
      </trkpt>
      <trkpt lat="44.94532" lon="6.50201">
        <ele>2247</ele>
        <time>2024-08-11T10:47:55Z</time>
      </trkpt>
      <trkpt lat="44.94532" lon="6.50201">
        <ele>2247</ele>
        <time>2024-08-11T10:47:56Z</time>
      </trkpt>
      <trkpt lat="44.94532" lon="6.50201">
        <ele>2247</ele>
        <time>2024-08-11T10:47:57Z</time>
      </trkpt>
      <trkpt lat="44.94532" lon="6.50201">
        <ele>2247</ele>
        <time>2024-08-11T10:47:58Z</time>
      </trkpt>
      <trkpt lat="44.94532" lon="6.50201">
        <ele>2247</ele>
        <time>2024-08-11T10:47:59Z</time>
      </trkpt>
      <trkpt lat="44.94532" lon="6.50201">
        <ele>2247</ele>
        <time>2024-08-11T10:48:00Z</time>
      </trkpt>
      <trkpt lat="44.94532" lon="6.50201">
        <ele>2247.2</ele>
        <time>2024-08-11T10:48:01Z</time>
      </trkpt>
      <trkpt lat="44.94532" lon="6.50201">
        <ele>2247.2</ele>
        <time>2024-08-11T10:48:02Z</time>
      </trkpt>
      <trkpt lat="44.94532" lon="6.50201">
        <ele>2247.2</ele>
        <time>2024-08-11T10:48:03Z</time>
      </trkpt>
      <trkpt lat="44.94532" lon="6.50201">
        <ele>2247.2</ele>
        <time>2024-08-11T10:48:04Z</time>
      </trkpt>
      <trkpt lat="44.94532" lon="6.50201">
        <ele>2247</ele>
        <time>2024-08-11T10:48:05Z</time>
      </trkpt>
      <trkpt lat="44.94532" lon="6.50201">
        <ele>2247.2</ele>
        <time>2024-08-11T10:48:06Z</time>
      </trkpt>
      <trkpt lat="44.94532" lon="6.50201">
        <ele>2247.2</ele>
        <time>2024-08-11T10:48:07Z</time>
      </trkpt>
      <trkpt lat="44.94532" lon="6.50201">
        <ele>2247.2</ele>
        <time>2024-08-11T10:48:08Z</time>
      </trkpt>
      <trkpt lat="44.94532" lon="6.50201">
        <ele>2247.2</ele>
        <time>2024-08-11T10:48:09Z</time>
      </trkpt>
      <trkpt lat="44.94532" lon="6.50201">
        <ele>2247.2</ele>
        <time>2024-08-11T10:48:10Z</time>
      </trkpt>
      <trkpt lat="44.94532" lon="6.50201">
        <ele>2247.2</ele>
        <time>2024-08-11T10:48:11Z</time>
      </trkpt>
      <trkpt lat="44.94532" lon="6.50201">
        <ele>2247.2</ele>
        <time>2024-08-11T10:48:12Z</time>
      </trkpt>
      <trkpt lat="44.94532" lon="6.50201">
        <ele>2247.2</ele>
        <time>2024-08-11T10:48:13Z</time>
      </trkpt>
      <trkpt lat="44.94532" lon="6.50201">
        <ele>2247.2</ele>
        <time>2024-08-11T10:48:14Z</time>
      </trkpt>
      <trkpt lat="44.94532" lon="6.50201">
        <ele>2247.2</ele>
        <time>2024-08-11T10:48:15Z</time>
      </trkpt>
      <trkpt lat="44.94532" lon="6.50201">
        <ele>2247.2</ele>
        <time>2024-08-11T10:48:16Z</time>
      </trkpt>
      <trkpt lat="44.94532" lon="6.50201">
        <ele>2247.4</ele>
        <time>2024-08-11T10:48:17Z</time>
      </trkpt>
      <trkpt lat="44.94532" lon="6.50201">
        <ele>2247.4</ele>
        <time>2024-08-11T10:48:18Z</time>
      </trkpt>
      <trkpt lat="44.94532" lon="6.50201">
        <ele>2247.2</ele>
        <time>2024-08-11T10:48:19Z</time>
      </trkpt>
      <trkpt lat="44.94532" lon="6.50201">
        <ele>2247</ele>
        <time>2024-08-11T10:48:20Z</time>
      </trkpt>
      <trkpt lat="44.94532" lon="6.50201">
        <ele>2247</ele>
        <time>2024-08-11T10:48:21Z</time>
      </trkpt>
      <trkpt lat="44.94532" lon="6.50201">
        <ele>2247</ele>
        <time>2024-08-11T10:48:22Z</time>
      </trkpt>
      <trkpt lat="44.94532" lon="6.50201">
        <ele>2247.2</ele>
        <time>2024-08-11T10:48:23Z</time>
      </trkpt>
      <trkpt lat="44.94532" lon="6.50201">
        <ele>2247.2</ele>
        <time>2024-08-11T10:48:24Z</time>
      </trkpt>
      <trkpt lat="44.94532" lon="6.50201">
        <ele>2247.4</ele>
        <time>2024-08-11T10:48:25Z</time>
      </trkpt>
      <trkpt lat="44.94532" lon="6.50201">
        <ele>2247.4</ele>
        <time>2024-08-11T10:48:26Z</time>
      </trkpt>
      <trkpt lat="44.94532" lon="6.50201">
        <ele>2247.2</ele>
        <time>2024-08-11T10:48:27Z</time>
      </trkpt>
      <trkpt lat="44.94532" lon="6.50201">
        <ele>2247.4</ele>
        <time>2024-08-11T10:48:28Z</time>
      </trkpt>
      <trkpt lat="44.94532" lon="6.50201">
        <ele>2247.4</ele>
        <time>2024-08-11T10:48:29Z</time>
      </trkpt>
      <trkpt lat="44.94532" lon="6.50201">
        <ele>2247.4</ele>
        <time>2024-08-11T10:48:30Z</time>
      </trkpt>
      <trkpt lat="44.94532" lon="6.50201">
        <ele>2247.4</ele>
        <time>2024-08-11T10:48:31Z</time>
      </trkpt>
      <trkpt lat="44.94532" lon="6.50201">
        <ele>2247.4</ele>
        <time>2024-08-11T10:48:32Z</time>
      </trkpt>
      <trkpt lat="44.94532" lon="6.50201">
        <ele>2247.4</ele>
        <time>2024-08-11T10:48:33Z</time>
      </trkpt>
      <trkpt lat="44.94532" lon="6.50201">
        <ele>2247.4</ele>
        <time>2024-08-11T10:48:34Z</time>
      </trkpt>
      <trkpt lat="44.94532" lon="6.50201">
        <ele>2247.4</ele>
        <time>2024-08-11T10:48:35Z</time>
      </trkpt>
      <trkpt lat="44.94532" lon="6.50201">
        <ele>2247.4</ele>
        <time>2024-08-11T10:48:36Z</time>
      </trkpt>
      <trkpt lat="44.94532" lon="6.50201">
        <ele>2247.4</ele>
        <time>2024-08-11T10:48:37Z</time>
      </trkpt>
      <trkpt lat="44.94532" lon="6.50201">
        <ele>2247.2</ele>
        <time>2024-08-11T10:48:38Z</time>
      </trkpt>
      <trkpt lat="44.94532" lon="6.50201">
        <ele>2247.4</ele>
        <time>2024-08-11T10:48:39Z</time>
      </trkpt>
      <trkpt lat="44.94532" lon="6.50201">
        <ele>2247.6</ele>
        <time>2024-08-11T10:48:40Z</time>
      </trkpt>
      <trkpt lat="44.94532" lon="6.50201">
        <ele>2247.6</ele>
        <time>2024-08-11T10:48:41Z</time>
      </trkpt>
      <trkpt lat="44.94532" lon="6.50201">
        <ele>2247.4</ele>
        <time>2024-08-11T10:48:42Z</time>
      </trkpt>
      <trkpt lat="44.94532" lon="6.50201">
        <ele>2247.4</ele>
        <time>2024-08-11T10:48:43Z</time>
      </trkpt>
      <trkpt lat="44.94532" lon="6.50201">
        <ele>2247.2</ele>
        <time>2024-08-11T10:48:44Z</time>
      </trkpt>
      <trkpt lat="44.94532" lon="6.50201">
        <ele>2247.2</ele>
        <time>2024-08-11T10:48:45Z</time>
      </trkpt>
      <trkpt lat="44.94532" lon="6.50201">
        <ele>2247.4</ele>
        <time>2024-08-11T10:48:46Z</time>
      </trkpt>
      <trkpt lat="44.94532" lon="6.50201">
        <ele>2247.4</ele>
        <time>2024-08-11T10:48:47Z</time>
      </trkpt>
      <trkpt lat="44.94532" lon="6.50201">
        <ele>2247.4</ele>
        <time>2024-08-11T10:48:48Z</time>
      </trkpt>
      <trkpt lat="44.94532" lon="6.50201">
        <ele>2247.4</ele>
        <time>2024-08-11T10:48:49Z</time>
      </trkpt>
      <trkpt lat="44.94532" lon="6.50201">
        <ele>2247.4</ele>
        <time>2024-08-11T10:48:50Z</time>
      </trkpt>
      <trkpt lat="44.94532" lon="6.50201">
        <ele>2247.4</ele>
        <time>2024-08-11T10:48:51Z</time>
      </trkpt>
      <trkpt lat="44.94532" lon="6.50201">
        <ele>2247.6</ele>
        <time>2024-08-11T10:48:52Z</time>
      </trkpt>
      <trkpt lat="44.94532" lon="6.50201">
        <ele>2247.6</ele>
        <time>2024-08-11T10:48:53Z</time>
      </trkpt>
      <trkpt lat="44.94532" lon="6.50201">
        <ele>2247.6</ele>
        <time>2024-08-11T10:48:54Z</time>
      </trkpt>
      <trkpt lat="44.94532" lon="6.50201">
        <ele>2247.4</ele>
        <time>2024-08-11T10:48:55Z</time>
      </trkpt>
      <trkpt lat="44.94532" lon="6.50201">
        <ele>2247.4</ele>
        <time>2024-08-11T10:48:56Z</time>
      </trkpt>
      <trkpt lat="44.94532" lon="6.50201">
        <ele>2247.4</ele>
        <time>2024-08-11T10:48:57Z</time>
      </trkpt>
      <trkpt lat="44.94532" lon="6.50201">
        <ele>2247.4</ele>
        <time>2024-08-11T10:48:58Z</time>
      </trkpt>
      <trkpt lat="44.94532" lon="6.50201">
        <ele>2247.6</ele>
        <time>2024-08-11T10:48:59Z</time>
      </trkpt>
      <trkpt lat="44.94532" lon="6.50201">
        <ele>2247.6</ele>
        <time>2024-08-11T10:49:00Z</time>
      </trkpt>
      <trkpt lat="44.94532" lon="6.50201">
        <ele>2247.6</ele>
        <time>2024-08-11T10:49:01Z</time>
      </trkpt>
      <trkpt lat="44.94532" lon="6.50201">
        <ele>2247.4</ele>
        <time>2024-08-11T10:49:02Z</time>
      </trkpt>
      <trkpt lat="44.94532" lon="6.50201">
        <ele>2247.4</ele>
        <time>2024-08-11T10:49:03Z</time>
      </trkpt>
      <trkpt lat="44.94532" lon="6.50201">
        <ele>2247.4</ele>
        <time>2024-08-11T10:49:04Z</time>
      </trkpt>
      <trkpt lat="44.94532" lon="6.50201">
        <ele>2247.4</ele>
        <time>2024-08-11T10:49:05Z</time>
      </trkpt>
      <trkpt lat="44.94532" lon="6.50201">
        <ele>2247.6</ele>
        <time>2024-08-11T10:49:06Z</time>
      </trkpt>
      <trkpt lat="44.94532" lon="6.50201">
        <ele>2247.6</ele>
        <time>2024-08-11T10:49:07Z</time>
      </trkpt>
      <trkpt lat="44.94532" lon="6.50201">
        <ele>2247.8</ele>
        <time>2024-08-11T10:49:08Z</time>
      </trkpt>
      <trkpt lat="44.94532" lon="6.50201">
        <ele>2247.8</ele>
        <time>2024-08-11T10:49:09Z</time>
      </trkpt>
      <trkpt lat="44.94532" lon="6.50201">
        <ele>2247.8</ele>
        <time>2024-08-11T10:49:10Z</time>
      </trkpt>
      <trkpt lat="44.94532" lon="6.50201">
        <ele>2247.8</ele>
        <time>2024-08-11T10:49:11Z</time>
      </trkpt>
      <trkpt lat="44.94532" lon="6.50201">
        <ele>2247.8</ele>
        <time>2024-08-11T10:49:12Z</time>
      </trkpt>
      <trkpt lat="44.94532" lon="6.50201">
        <ele>2247.8</ele>
        <time>2024-08-11T10:49:13Z</time>
      </trkpt>
      <trkpt lat="44.94532" lon="6.50201">
        <ele>2248</ele>
        <time>2024-08-11T10:49:14Z</time>
      </trkpt>
      <trkpt lat="44.94532" lon="6.50201">
        <ele>2248</ele>
        <time>2024-08-11T10:49:15Z</time>
      </trkpt>
      <trkpt lat="44.94532" lon="6.50201">
        <ele>2247.8</ele>
        <time>2024-08-11T10:49:16Z</time>
      </trkpt>
      <trkpt lat="44.94532" lon="6.50201">
        <ele>2247.8</ele>
        <time>2024-08-11T10:49:17Z</time>
      </trkpt>
      <trkpt lat="44.94532" lon="6.50201">
        <ele>2247.8</ele>
        <time>2024-08-11T10:49:18Z</time>
      </trkpt>
      <trkpt lat="44.94532" lon="6.50201">
        <ele>2248</ele>
        <time>2024-08-11T10:49:19Z</time>
      </trkpt>
      <trkpt lat="44.94532" lon="6.50201">
        <ele>2248</ele>
        <time>2024-08-11T10:49:20Z</time>
      </trkpt>
      <trkpt lat="44.94532" lon="6.50201">
        <ele>2248.2</ele>
        <time>2024-08-11T10:49:21Z</time>
      </trkpt>
      <trkpt lat="44.94532" lon="6.50201">
        <ele>2248.2</ele>
        <time>2024-08-11T10:49:22Z</time>
      </trkpt>
      <trkpt lat="44.94532" lon="6.50201">
        <ele>2248.2</ele>
        <time>2024-08-11T10:49:23Z</time>
      </trkpt>
      <trkpt lat="44.94532" lon="6.50201">
        <ele>2247.8</ele>
        <time>2024-08-11T10:49:24Z</time>
      </trkpt>
      <trkpt lat="44.94532" lon="6.50201">
        <ele>2247.8</ele>
        <time>2024-08-11T10:49:25Z</time>
      </trkpt>
      <trkpt lat="44.94532" lon="6.50201">
        <ele>2247.8</ele>
        <time>2024-08-11T10:49:26Z</time>
      </trkpt>
      <trkpt lat="44.94532" lon="6.50201">
        <ele>2247.8</ele>
        <time>2024-08-11T10:49:27Z</time>
      </trkpt>
      <trkpt lat="44.94532" lon="6.50201">
        <ele>2247.8</ele>
        <time>2024-08-11T10:49:28Z</time>
      </trkpt>
      <trkpt lat="44.94532" lon="6.50201">
        <ele>2248</ele>
        <time>2024-08-11T10:49:29Z</time>
      </trkpt>
      <trkpt lat="44.94532" lon="6.50201">
        <ele>2248</ele>
        <time>2024-08-11T10:49:30Z</time>
      </trkpt>
      <trkpt lat="44.94532" lon="6.50201">
        <ele>2248</ele>
        <time>2024-08-11T10:49:31Z</time>
      </trkpt>
      <trkpt lat="44.94532" lon="6.50201">
        <ele>2248</ele>
        <time>2024-08-11T10:49:32Z</time>
      </trkpt>
      <trkpt lat="44.94532" lon="6.50201">
        <ele>2248.4</ele>
        <time>2024-08-11T10:49:33Z</time>
      </trkpt>
      <trkpt lat="44.94532" lon="6.50201">
        <ele>2248.4</ele>
        <time>2024-08-11T10:49:34Z</time>
      </trkpt>
      <trkpt lat="44.94532" lon="6.50201">
        <ele>2248.2</ele>
        <time>2024-08-11T10:49:35Z</time>
      </trkpt>
      <trkpt lat="44.94532" lon="6.50201">
        <ele>2248</ele>
        <time>2024-08-11T10:49:36Z</time>
      </trkpt>
      <trkpt lat="44.94532" lon="6.50201">
        <ele>2248</ele>
        <time>2024-08-11T10:49:37Z</time>
      </trkpt>
      <trkpt lat="44.94532" lon="6.50201">
        <ele>2248.2</ele>
        <time>2024-08-11T10:49:38Z</time>
      </trkpt>
      <trkpt lat="44.94532" lon="6.50201">
        <ele>2248.2</ele>
        <time>2024-08-11T10:49:39Z</time>
      </trkpt>
      <trkpt lat="44.94532" lon="6.50201">
        <ele>2248.2</ele>
        <time>2024-08-11T10:49:40Z</time>
      </trkpt>
      <trkpt lat="44.94532" lon="6.50201">
        <ele>2248.2</ele>
        <time>2024-08-11T10:49:41Z</time>
      </trkpt>
      <trkpt lat="44.94532" lon="6.50201">
        <ele>2248</ele>
        <time>2024-08-11T10:49:42Z</time>
      </trkpt>
      <trkpt lat="44.94532" lon="6.50201">
        <ele>2248</ele>
        <time>2024-08-11T10:49:43Z</time>
      </trkpt>
      <trkpt lat="44.94532" lon="6.50201">
        <ele>2248</ele>
        <time>2024-08-11T10:49:44Z</time>
      </trkpt>
      <trkpt lat="44.94532" lon="6.50201">
        <ele>2248</ele>
        <time>2024-08-11T10:49:45Z</time>
      </trkpt>
      <trkpt lat="44.94532" lon="6.50201">
        <ele>2247.8</ele>
        <time>2024-08-11T10:49:46Z</time>
      </trkpt>
      <trkpt lat="44.94532" lon="6.50201">
        <ele>2248.2</ele>
        <time>2024-08-11T10:49:47Z</time>
      </trkpt>
      <trkpt lat="44.94532" lon="6.50201">
        <ele>2248.2</ele>
        <time>2024-08-11T10:49:48Z</time>
      </trkpt>
      <trkpt lat="44.94532" lon="6.50201">
        <ele>2248.2</ele>
        <time>2024-08-11T10:49:49Z</time>
      </trkpt>
      <trkpt lat="44.94532" lon="6.50201">
        <ele>2248.2</ele>
        <time>2024-08-11T10:49:50Z</time>
      </trkpt>
      <trkpt lat="44.94532" lon="6.50201">
        <ele>2248.2</ele>
        <time>2024-08-11T10:49:51Z</time>
      </trkpt>
      <trkpt lat="44.94532" lon="6.50201">
        <ele>2248.2</ele>
        <time>2024-08-11T10:49:52Z</time>
      </trkpt>
      <trkpt lat="44.94532" lon="6.50201">
        <ele>2248.2</ele>
        <time>2024-08-11T10:49:53Z</time>
      </trkpt>
      <trkpt lat="44.94532" lon="6.50201">
        <ele>2248.2</ele>
        <time>2024-08-11T10:49:54Z</time>
      </trkpt>
      <trkpt lat="44.94532" lon="6.50201">
        <ele>2248.2</ele>
        <time>2024-08-11T10:49:55Z</time>
      </trkpt>
      <trkpt lat="44.94532" lon="6.50201">
        <ele>2248.2</ele>
        <time>2024-08-11T10:49:56Z</time>
      </trkpt>
      <trkpt lat="44.94532" lon="6.50201">
        <ele>2248.2</ele>
        <time>2024-08-11T10:49:57Z</time>
      </trkpt>
      <trkpt lat="44.94532" lon="6.50201">
        <ele>2248.4</ele>
        <time>2024-08-11T10:49:58Z</time>
      </trkpt>
      <trkpt lat="44.94532" lon="6.50201">
        <ele>2248.6</ele>
        <time>2024-08-11T10:49:59Z</time>
      </trkpt>
      <trkpt lat="44.94532" lon="6.50201">
        <ele>2248.6</ele>
        <time>2024-08-11T10:50:00Z</time>
      </trkpt>
      <trkpt lat="44.94532" lon="6.50201">
        <ele>2248.6</ele>
        <time>2024-08-11T10:50:01Z</time>
      </trkpt>
      <trkpt lat="44.94532" lon="6.50201">
        <ele>2248.4</ele>
        <time>2024-08-11T10:50:02Z</time>
      </trkpt>
      <trkpt lat="44.94532" lon="6.50201">
        <ele>2248.4</ele>
        <time>2024-08-11T10:50:03Z</time>
      </trkpt>
      <trkpt lat="44.94532" lon="6.50201">
        <ele>2248.4</ele>
        <time>2024-08-11T10:50:04Z</time>
      </trkpt>
      <trkpt lat="44.94532" lon="6.50201">
        <ele>2248.6</ele>
        <time>2024-08-11T10:50:05Z</time>
      </trkpt>
      <trkpt lat="44.94532" lon="6.50201">
        <ele>2248.6</ele>
        <time>2024-08-11T10:50:06Z</time>
      </trkpt>
      <trkpt lat="44.94532" lon="6.50201">
        <ele>2248.6</ele>
        <time>2024-08-11T10:50:07Z</time>
      </trkpt>
      <trkpt lat="44.94532" lon="6.50201">
        <ele>2248.4</ele>
        <time>2024-08-11T10:50:08Z</time>
      </trkpt>
      <trkpt lat="44.94532" lon="6.50201">
        <ele>2248.4</ele>
        <time>2024-08-11T10:50:09Z</time>
      </trkpt>
      <trkpt lat="44.94532" lon="6.50201">
        <ele>2248.6</ele>
        <time>2024-08-11T10:50:10Z</time>
      </trkpt>
      <trkpt lat="44.94532" lon="6.50201">
        <ele>2248.6</ele>
        <time>2024-08-11T10:50:11Z</time>
      </trkpt>
      <trkpt lat="44.94532" lon="6.50201">
        <ele>2248.6</ele>
        <time>2024-08-11T10:50:12Z</time>
      </trkpt>
      <trkpt lat="44.94532" lon="6.50201">
        <ele>2248.8</ele>
        <time>2024-08-11T10:50:13Z</time>
      </trkpt>
      <trkpt lat="44.94532" lon="6.50201">
        <ele>2249</ele>
        <time>2024-08-11T10:50:14Z</time>
      </trkpt>
      <trkpt lat="44.94532" lon="6.50201">
        <ele>2249.2</ele>
        <time>2024-08-11T10:50:15Z</time>
      </trkpt>
      <trkpt lat="44.94532" lon="6.50201">
        <ele>2249.2</ele>
        <time>2024-08-11T10:50:16Z</time>
      </trkpt>
      <trkpt lat="44.94532" lon="6.50201">
        <ele>2248.8</ele>
        <time>2024-08-11T10:50:17Z</time>
      </trkpt>
      <trkpt lat="44.94532" lon="6.50201">
        <ele>2248.8</ele>
        <time>2024-08-11T10:50:18Z</time>
      </trkpt>
      <trkpt lat="44.94532" lon="6.50201">
        <ele>2249</ele>
        <time>2024-08-11T10:50:19Z</time>
      </trkpt>
      <trkpt lat="44.94532" lon="6.50201">
        <ele>2249</ele>
        <time>2024-08-11T10:50:20Z</time>
      </trkpt>
      <trkpt lat="44.94532" lon="6.50201">
        <ele>2248.8</ele>
        <time>2024-08-11T10:50:21Z</time>
      </trkpt>
      <trkpt lat="44.94532" lon="6.50201">
        <ele>2248.8</ele>
        <time>2024-08-11T10:50:22Z</time>
      </trkpt>
      <trkpt lat="44.94532" lon="6.50201">
        <ele>2249</ele>
        <time>2024-08-11T10:50:23Z</time>
      </trkpt>
      <trkpt lat="44.94532" lon="6.50201">
        <ele>2249</ele>
        <time>2024-08-11T10:50:24Z</time>
      </trkpt>
      <trkpt lat="44.94532" lon="6.50201">
        <ele>2249</ele>
        <time>2024-08-11T10:50:25Z</time>
      </trkpt>
      <trkpt lat="44.94532" lon="6.50201">
        <ele>2249</ele>
        <time>2024-08-11T10:50:26Z</time>
      </trkpt>
      <trkpt lat="44.94532" lon="6.50201">
        <ele>2249.2</ele>
        <time>2024-08-11T10:50:27Z</time>
      </trkpt>
      <trkpt lat="44.94532" lon="6.50201">
        <ele>2249.2</ele>
        <time>2024-08-11T10:50:28Z</time>
      </trkpt>
      <trkpt lat="44.94532" lon="6.50201">
        <ele>2249.2</ele>
        <time>2024-08-11T10:50:29Z</time>
      </trkpt>
      <trkpt lat="44.94532" lon="6.50201">
        <ele>2249.2</ele>
        <time>2024-08-11T10:50:30Z</time>
      </trkpt>
      <trkpt lat="44.94532" lon="6.50201">
        <ele>2249</ele>
        <time>2024-08-11T10:50:31Z</time>
      </trkpt>
      <trkpt lat="44.94532" lon="6.50201">
        <ele>2249</ele>
        <time>2024-08-11T10:50:32Z</time>
      </trkpt>
      <trkpt lat="44.94532" lon="6.50201">
        <ele>2249</ele>
        <time>2024-08-11T10:50:33Z</time>
      </trkpt>
      <trkpt lat="44.94532" lon="6.50201">
        <ele>2249</ele>
        <time>2024-08-11T10:50:34Z</time>
      </trkpt>
      <trkpt lat="44.94532" lon="6.50201">
        <ele>2249</ele>
        <time>2024-08-11T10:50:35Z</time>
      </trkpt>
      <trkpt lat="44.94532" lon="6.50201">
        <ele>2249.2</ele>
        <time>2024-08-11T10:50:36Z</time>
      </trkpt>
      <trkpt lat="44.94532" lon="6.50201">
        <ele>2249.2</ele>
        <time>2024-08-11T10:50:37Z</time>
      </trkpt>
      <trkpt lat="44.94532" lon="6.50201">
        <ele>2249.2</ele>
        <time>2024-08-11T10:50:38Z</time>
      </trkpt>
      <trkpt lat="44.94532" lon="6.50201">
        <ele>2249.2</ele>
        <time>2024-08-11T10:50:39Z</time>
      </trkpt>
      <trkpt lat="44.94532" lon="6.50201">
        <ele>2249.2</ele>
        <time>2024-08-11T10:50:40Z</time>
      </trkpt>
      <trkpt lat="44.94532" lon="6.50201">
        <ele>2249.2</ele>
        <time>2024-08-11T10:50:41Z</time>
      </trkpt>
      <trkpt lat="44.94532" lon="6.50201">
        <ele>2249.4</ele>
        <time>2024-08-11T10:50:42Z</time>
      </trkpt>
      <trkpt lat="44.94532" lon="6.50201">
        <ele>2249.6</ele>
        <time>2024-08-11T10:50:43Z</time>
      </trkpt>
      <trkpt lat="44.94532" lon="6.50201">
        <ele>2249.6</ele>
        <time>2024-08-11T10:50:44Z</time>
      </trkpt>
      <trkpt lat="44.94532" lon="6.50201">
        <ele>2249.6</ele>
        <time>2024-08-11T10:50:45Z</time>
      </trkpt>
      <trkpt lat="44.94532" lon="6.50201">
        <ele>2249.6</ele>
        <time>2024-08-11T10:50:46Z</time>
      </trkpt>
      <trkpt lat="44.94532" lon="6.50201">
        <ele>2249.6</ele>
        <time>2024-08-11T10:50:47Z</time>
      </trkpt>
      <trkpt lat="44.94532" lon="6.50201">
        <ele>2249.6</ele>
        <time>2024-08-11T10:50:48Z</time>
      </trkpt>
      <trkpt lat="44.94532" lon="6.50201">
        <ele>2249.6</ele>
        <time>2024-08-11T10:50:49Z</time>
      </trkpt>
      <trkpt lat="44.94532" lon="6.50201">
        <ele>2249.6</ele>
        <time>2024-08-11T10:50:50Z</time>
      </trkpt>
      <trkpt lat="44.94532" lon="6.50201">
        <ele>2249.6</ele>
        <time>2024-08-11T10:50:51Z</time>
      </trkpt>
      <trkpt lat="44.94532" lon="6.50201">
        <ele>2249.4</ele>
        <time>2024-08-11T10:50:52Z</time>
      </trkpt>
      <trkpt lat="44.94532" lon="6.50201">
        <ele>2249.4</ele>
        <time>2024-08-11T10:50:53Z</time>
      </trkpt>
      <trkpt lat="44.94532" lon="6.50201">
        <ele>2249.4</ele>
        <time>2024-08-11T10:50:54Z</time>
      </trkpt>
      <trkpt lat="44.94532" lon="6.50201">
        <ele>2249.4</ele>
        <time>2024-08-11T10:50:55Z</time>
      </trkpt>
      <trkpt lat="44.94532" lon="6.50201">
        <ele>2249.2</ele>
        <time>2024-08-11T10:50:56Z</time>
      </trkpt>
      <trkpt lat="44.94532" lon="6.50201">
        <ele>2249.2</ele>
        <time>2024-08-11T10:50:57Z</time>
      </trkpt>
      <trkpt lat="44.94532" lon="6.50201">
        <ele>2249.2</ele>
        <time>2024-08-11T10:50:58Z</time>
      </trkpt>
      <trkpt lat="44.94532" lon="6.50201">
        <ele>2249.2</ele>
        <time>2024-08-11T10:50:59Z</time>
      </trkpt>
      <trkpt lat="44.94532" lon="6.50201">
        <ele>2249.2</ele>
        <time>2024-08-11T10:51:00Z</time>
      </trkpt>
      <trkpt lat="44.94532" lon="6.50201">
        <ele>2249.4</ele>
        <time>2024-08-11T10:51:01Z</time>
      </trkpt>
      <trkpt lat="44.94532" lon="6.50201">
        <ele>2249.2</ele>
        <time>2024-08-11T10:51:02Z</time>
      </trkpt>
      <trkpt lat="44.94532" lon="6.50201">
        <ele>2249.4</ele>
        <time>2024-08-11T10:51:03Z</time>
      </trkpt>
      <trkpt lat="44.94532" lon="6.50201">
        <ele>2249.4</ele>
        <time>2024-08-11T10:51:04Z</time>
      </trkpt>
      <trkpt lat="44.94532" lon="6.50201">
        <ele>2249.2</ele>
        <time>2024-08-11T10:51:05Z</time>
      </trkpt>
      <trkpt lat="44.94532" lon="6.50201">
        <ele>2249</ele>
        <time>2024-08-11T10:51:06Z</time>
      </trkpt>
      <trkpt lat="44.94532" lon="6.50201">
        <ele>2249</ele>
        <time>2024-08-11T10:51:07Z</time>
      </trkpt>
      <trkpt lat="44.94532" lon="6.50201">
        <ele>2249.2</ele>
        <time>2024-08-11T10:51:08Z</time>
      </trkpt>
      <trkpt lat="44.94532" lon="6.50201">
        <ele>2249.4</ele>
        <time>2024-08-11T10:51:09Z</time>
      </trkpt>
      <trkpt lat="44.94532" lon="6.50201">
        <ele>2249.4</ele>
        <time>2024-08-11T10:51:10Z</time>
      </trkpt>
      <trkpt lat="44.94532" lon="6.50201">
        <ele>2249.4</ele>
        <time>2024-08-11T10:51:11Z</time>
      </trkpt>
      <trkpt lat="44.94532" lon="6.50201">
        <ele>2249.4</ele>
        <time>2024-08-11T10:51:12Z</time>
      </trkpt>
      <trkpt lat="44.94532" lon="6.50201">
        <ele>2249.6</ele>
        <time>2024-08-11T10:51:13Z</time>
      </trkpt>
      <trkpt lat="44.94532" lon="6.50201">
        <ele>2249.6</ele>
        <time>2024-08-11T10:51:14Z</time>
      </trkpt>
      <trkpt lat="44.94532" lon="6.50201">
        <ele>2249.6</ele>
        <time>2024-08-11T10:51:15Z</time>
      </trkpt>
      <trkpt lat="44.94532" lon="6.50201">
        <ele>2249.6</ele>
        <time>2024-08-11T10:51:16Z</time>
      </trkpt>
      <trkpt lat="44.94532" lon="6.50201">
        <ele>2249.6</ele>
        <time>2024-08-11T10:51:17Z</time>
      </trkpt>
      <trkpt lat="44.94532" lon="6.50201">
        <ele>2249.8</ele>
        <time>2024-08-11T10:51:18Z</time>
      </trkpt>
      <trkpt lat="44.94532" lon="6.50201">
        <ele>2250</ele>
        <time>2024-08-11T10:51:19Z</time>
      </trkpt>
      <trkpt lat="44.94532" lon="6.50201">
        <ele>2250</ele>
        <time>2024-08-11T10:51:20Z</time>
      </trkpt>
      <trkpt lat="44.94532" lon="6.50201">
        <ele>2250</ele>
        <time>2024-08-11T10:51:21Z</time>
      </trkpt>
      <trkpt lat="44.94532" lon="6.50201">
        <ele>2250</ele>
        <time>2024-08-11T10:51:22Z</time>
      </trkpt>
      <trkpt lat="44.94532" lon="6.50201">
        <ele>2250</ele>
        <time>2024-08-11T10:51:23Z</time>
      </trkpt>
      <trkpt lat="44.94532" lon="6.50201">
        <ele>2249.8</ele>
        <time>2024-08-11T10:51:24Z</time>
      </trkpt>
      <trkpt lat="44.94532" lon="6.50201">
        <ele>2249.8</ele>
        <time>2024-08-11T10:51:25Z</time>
      </trkpt>
      <trkpt lat="44.94532" lon="6.50201">
        <ele>2249.8</ele>
        <time>2024-08-11T10:51:26Z</time>
      </trkpt>
      <trkpt lat="44.94532" lon="6.50201">
        <ele>2249.8</ele>
        <time>2024-08-11T10:51:27Z</time>
      </trkpt>
      <trkpt lat="44.94532" lon="6.50201">
        <ele>2249.8</ele>
        <time>2024-08-11T10:51:28Z</time>
      </trkpt>
      <trkpt lat="44.94532" lon="6.50201">
        <ele>2249.8</ele>
        <time>2024-08-11T10:51:29Z</time>
      </trkpt>
      <trkpt lat="44.94532" lon="6.50201">
        <ele>2249.8</ele>
        <time>2024-08-11T10:51:30Z</time>
      </trkpt>
      <trkpt lat="44.94532" lon="6.50201">
        <ele>2249.8</ele>
        <time>2024-08-11T10:51:31Z</time>
      </trkpt>
      <trkpt lat="44.94532" lon="6.50201">
        <ele>2249.8</ele>
        <time>2024-08-11T10:51:32Z</time>
      </trkpt>
      <trkpt lat="44.94532" lon="6.50201">
        <ele>2250</ele>
        <time>2024-08-11T10:51:33Z</time>
      </trkpt>
      <trkpt lat="44.94532" lon="6.50201">
        <ele>2250</ele>
        <time>2024-08-11T10:51:34Z</time>
      </trkpt>
      <trkpt lat="44.94532" lon="6.50201">
        <ele>2250</ele>
        <time>2024-08-11T10:51:35Z</time>
      </trkpt>
      <trkpt lat="44.94532" lon="6.50201">
        <ele>2250</ele>
        <time>2024-08-11T10:51:36Z</time>
      </trkpt>
      <trkpt lat="44.94532" lon="6.50201">
        <ele>2250</ele>
        <time>2024-08-11T10:51:37Z</time>
      </trkpt>
      <trkpt lat="44.94532" lon="6.50201">
        <ele>2250</ele>
        <time>2024-08-11T10:51:38Z</time>
      </trkpt>
      <trkpt lat="44.94532" lon="6.50201">
        <ele>2250</ele>
        <time>2024-08-11T10:51:39Z</time>
      </trkpt>
      <trkpt lat="44.94532" lon="6.50201">
        <ele>2250</ele>
        <time>2024-08-11T10:51:40Z</time>
      </trkpt>
      <trkpt lat="44.94532" lon="6.50201">
        <ele>2250.4</ele>
        <time>2024-08-11T10:51:41Z</time>
      </trkpt>
      <trkpt lat="44.94532" lon="6.50201">
        <ele>2250.4</ele>
        <time>2024-08-11T10:51:42Z</time>
      </trkpt>
      <trkpt lat="44.94532" lon="6.50201">
        <ele>2250.4</ele>
        <time>2024-08-11T10:51:43Z</time>
      </trkpt>
      <trkpt lat="44.94532" lon="6.50201">
        <ele>2250.2</ele>
        <time>2024-08-11T10:51:44Z</time>
      </trkpt>
      <trkpt lat="44.94532" lon="6.50201">
        <ele>2250</ele>
        <time>2024-08-11T10:51:45Z</time>
      </trkpt>
      <trkpt lat="44.94532" lon="6.50201">
        <ele>2250</ele>
        <time>2024-08-11T10:51:46Z</time>
      </trkpt>
      <trkpt lat="44.94532" lon="6.50201">
        <ele>2250.2</ele>
        <time>2024-08-11T10:51:47Z</time>
      </trkpt>
      <trkpt lat="44.94532" lon="6.50201">
        <ele>2250.2</ele>
        <time>2024-08-11T10:51:48Z</time>
      </trkpt>
      <trkpt lat="44.94532" lon="6.50201">
        <ele>2250</ele>
        <time>2024-08-11T10:51:49Z</time>
      </trkpt>
      <trkpt lat="44.94532" lon="6.50201">
        <ele>2250</ele>
        <time>2024-08-11T10:51:50Z</time>
      </trkpt>
      <trkpt lat="44.94532" lon="6.50201">
        <ele>2250</ele>
        <time>2024-08-11T10:51:51Z</time>
      </trkpt>
      <trkpt lat="44.94532" lon="6.50201">
        <ele>2250</ele>
        <time>2024-08-11T10:51:52Z</time>
      </trkpt>
      <trkpt lat="44.94532" lon="6.50201">
        <ele>2249.8</ele>
        <time>2024-08-11T10:51:53Z</time>
      </trkpt>
      <trkpt lat="44.94532" lon="6.50201">
        <ele>2250</ele>
        <time>2024-08-11T10:51:54Z</time>
      </trkpt>
      <trkpt lat="44.94532" lon="6.50201">
        <ele>2250</ele>
        <time>2024-08-11T10:51:55Z</time>
      </trkpt>
      <trkpt lat="44.94532" lon="6.50201">
        <ele>2250</ele>
        <time>2024-08-11T10:51:56Z</time>
      </trkpt>
      <trkpt lat="44.94532" lon="6.50201">
        <ele>2250</ele>
        <time>2024-08-11T10:51:57Z</time>
      </trkpt>
      <trkpt lat="44.94532" lon="6.50201">
        <ele>2250</ele>
        <time>2024-08-11T10:51:58Z</time>
      </trkpt>
      <trkpt lat="44.94532" lon="6.50201">
        <ele>2250</ele>
        <time>2024-08-11T10:51:59Z</time>
      </trkpt>
      <trkpt lat="44.94532" lon="6.50201">
        <ele>2250.4</ele>
        <time>2024-08-11T10:52:00Z</time>
      </trkpt>
      <trkpt lat="44.94532" lon="6.50201">
        <ele>2250.4</ele>
        <time>2024-08-11T10:52:01Z</time>
      </trkpt>
      <trkpt lat="44.94532" lon="6.50201">
        <ele>2250.4</ele>
        <time>2024-08-11T10:52:02Z</time>
      </trkpt>
      <trkpt lat="44.94532" lon="6.50201">
        <ele>2250.4</ele>
        <time>2024-08-11T10:52:03Z</time>
      </trkpt>
      <trkpt lat="44.94532" lon="6.50201">
        <ele>2250.2</ele>
        <time>2024-08-11T10:52:04Z</time>
      </trkpt>
      <trkpt lat="44.94532" lon="6.50201">
        <ele>2250.2</ele>
        <time>2024-08-11T10:52:05Z</time>
      </trkpt>
      <trkpt lat="44.94532" lon="6.50201">
        <ele>2250.2</ele>
        <time>2024-08-11T10:52:06Z</time>
      </trkpt>
      <trkpt lat="44.94532" lon="6.50201">
        <ele>2250.2</ele>
        <time>2024-08-11T10:52:07Z</time>
      </trkpt>
      <trkpt lat="44.94532" lon="6.50201">
        <ele>2250</ele>
        <time>2024-08-11T10:52:08Z</time>
      </trkpt>
      <trkpt lat="44.94532" lon="6.50201">
        <ele>2250</ele>
        <time>2024-08-11T10:52:09Z</time>
      </trkpt>
      <trkpt lat="44.94532" lon="6.50201">
        <ele>2250</ele>
        <time>2024-08-11T10:52:10Z</time>
      </trkpt>
      <trkpt lat="44.94532" lon="6.50201">
        <ele>2249.8</ele>
        <time>2024-08-11T10:52:11Z</time>
      </trkpt>
      <trkpt lat="44.94532" lon="6.50201">
        <ele>2249.6</ele>
        <time>2024-08-11T10:52:12Z</time>
      </trkpt>
      <trkpt lat="44.94532" lon="6.50201">
        <ele>2249.6</ele>
        <time>2024-08-11T10:52:13Z</time>
      </trkpt>
      <trkpt lat="44.94532" lon="6.50201">
        <ele>2249.8</ele>
        <time>2024-08-11T10:52:14Z</time>
      </trkpt>
      <trkpt lat="44.94532" lon="6.50201">
        <ele>2249.8</ele>
        <time>2024-08-11T10:52:15Z</time>
      </trkpt>
      <trkpt lat="44.94532" lon="6.50201">
        <ele>2249.8</ele>
        <time>2024-08-11T10:52:16Z</time>
      </trkpt>
      <trkpt lat="44.94532" lon="6.50201">
        <ele>2249.8</ele>
        <time>2024-08-11T10:52:17Z</time>
      </trkpt>
      <trkpt lat="44.94532" lon="6.50201">
        <ele>2249.8</ele>
        <time>2024-08-11T10:52:18Z</time>
      </trkpt>
      <trkpt lat="44.94532" lon="6.50201">
        <ele>2249.8</ele>
        <time>2024-08-11T10:52:19Z</time>
      </trkpt>
      <trkpt lat="44.94532" lon="6.50201">
        <ele>2249.8</ele>
        <time>2024-08-11T10:52:20Z</time>
      </trkpt>
      <trkpt lat="44.94532" lon="6.50201">
        <ele>2250.4</ele>
        <time>2024-08-11T10:52:21Z</time>
      </trkpt>
      <trkpt lat="44.94532" lon="6.50201">
        <ele>2250.4</ele>
        <time>2024-08-11T10:52:22Z</time>
      </trkpt>
      <trkpt lat="44.94532" lon="6.50201">
        <ele>2250.4</ele>
        <time>2024-08-11T10:52:23Z</time>
      </trkpt>
      <trkpt lat="44.94532" lon="6.50201">
        <ele>2250.4</ele>
        <time>2024-08-11T10:52:24Z</time>
      </trkpt>
      <trkpt lat="44.94532" lon="6.50201">
        <ele>2250.6</ele>
        <time>2024-08-11T10:52:25Z</time>
      </trkpt>
      <trkpt lat="44.94532" lon="6.50201">
        <ele>2250.6</ele>
        <time>2024-08-11T10:52:26Z</time>
      </trkpt>
      <trkpt lat="44.94532" lon="6.50201">
        <ele>2250.6</ele>
        <time>2024-08-11T10:52:27Z</time>
      </trkpt>
      <trkpt lat="44.94532" lon="6.50201">
        <ele>2250.4</ele>
        <time>2024-08-11T10:52:28Z</time>
      </trkpt>
      <trkpt lat="44.94532" lon="6.50201">
        <ele>2250.4</ele>
        <time>2024-08-11T10:52:29Z</time>
      </trkpt>
      <trkpt lat="44.94532" lon="6.50201">
        <ele>2250.6</ele>
        <time>2024-08-11T10:52:30Z</time>
      </trkpt>
      <trkpt lat="44.94532" lon="6.50201">
        <ele>2250.6</ele>
        <time>2024-08-11T10:52:31Z</time>
      </trkpt>
      <trkpt lat="44.94532" lon="6.50201">
        <ele>2250.6</ele>
        <time>2024-08-11T10:52:32Z</time>
      </trkpt>
      <trkpt lat="44.94532" lon="6.50201">
        <ele>2250.4</ele>
        <time>2024-08-11T10:52:33Z</time>
      </trkpt>
      <trkpt lat="44.94532" lon="6.50201">
        <ele>2250.4</ele>
        <time>2024-08-11T10:52:34Z</time>
      </trkpt>
      <trkpt lat="44.94532" lon="6.50201">
        <ele>2250.4</ele>
        <time>2024-08-11T10:52:35Z</time>
      </trkpt>
      <trkpt lat="44.94532" lon="6.50201">
        <ele>2250.6</ele>
        <time>2024-08-11T10:52:36Z</time>
      </trkpt>
      <trkpt lat="44.94532" lon="6.50201">
        <ele>2250.6</ele>
        <time>2024-08-11T10:52:37Z</time>
      </trkpt>
      <trkpt lat="44.94532" lon="6.50201">
        <ele>2250.6</ele>
        <time>2024-08-11T10:52:38Z</time>
      </trkpt>
      <trkpt lat="44.94532" lon="6.50201">
        <ele>2250.6</ele>
        <time>2024-08-11T10:52:39Z</time>
      </trkpt>
      <trkpt lat="44.94532" lon="6.50201">
        <ele>2251</ele>
        <time>2024-08-11T10:52:40Z</time>
      </trkpt>
      <trkpt lat="44.94532" lon="6.50201">
        <ele>2251</ele>
        <time>2024-08-11T10:52:41Z</time>
      </trkpt>
      <trkpt lat="44.94532" lon="6.50201">
        <ele>2251</ele>
        <time>2024-08-11T10:52:42Z</time>
      </trkpt>
      <trkpt lat="44.94532" lon="6.50201">
        <ele>2251</ele>
        <time>2024-08-11T10:52:43Z</time>
      </trkpt>
      <trkpt lat="44.94532" lon="6.50201">
        <ele>2250.8</ele>
        <time>2024-08-11T10:52:44Z</time>
      </trkpt>
      <trkpt lat="44.94532" lon="6.50201">
        <ele>2250.8</ele>
        <time>2024-08-11T10:52:45Z</time>
      </trkpt>
      <trkpt lat="44.94532" lon="6.50201">
        <ele>2250.8</ele>
        <time>2024-08-11T10:52:46Z</time>
      </trkpt>
      <trkpt lat="44.94532" lon="6.50201">
        <ele>2250.8</ele>
        <time>2024-08-11T10:52:47Z</time>
      </trkpt>
      <trkpt lat="44.94532" lon="6.50201">
        <ele>2250.6</ele>
        <time>2024-08-11T10:52:48Z</time>
      </trkpt>
      <trkpt lat="44.94532" lon="6.50201">
        <ele>2250.6</ele>
        <time>2024-08-11T10:52:49Z</time>
      </trkpt>
      <trkpt lat="44.94532" lon="6.50201">
        <ele>2250.8</ele>
        <time>2024-08-11T10:52:50Z</time>
      </trkpt>
      <trkpt lat="44.94532" lon="6.50201">
        <ele>2250.8</ele>
        <time>2024-08-11T10:52:51Z</time>
      </trkpt>
      <trkpt lat="44.94532" lon="6.50201">
        <ele>2250.8</ele>
        <time>2024-08-11T10:52:52Z</time>
      </trkpt>
      <trkpt lat="44.94532" lon="6.50201">
        <ele>2251</ele>
        <time>2024-08-11T10:52:53Z</time>
      </trkpt>
      <trkpt lat="44.94532" lon="6.50201">
        <ele>2251</ele>
        <time>2024-08-11T10:52:54Z</time>
      </trkpt>
      <trkpt lat="44.94532" lon="6.50201">
        <ele>2251</ele>
        <time>2024-08-11T10:52:55Z</time>
      </trkpt>
      <trkpt lat="44.94532" lon="6.50201">
        <ele>2251</ele>
        <time>2024-08-11T10:52:56Z</time>
      </trkpt>
      <trkpt lat="44.94532" lon="6.50201">
        <ele>2251</ele>
        <time>2024-08-11T10:52:57Z</time>
      </trkpt>
      <trkpt lat="44.94532" lon="6.50201">
        <ele>2251.2</ele>
        <time>2024-08-11T10:52:58Z</time>
      </trkpt>
      <trkpt lat="44.94532" lon="6.50201">
        <ele>2251.2</ele>
        <time>2024-08-11T10:52:59Z</time>
      </trkpt>
      <trkpt lat="44.94532" lon="6.50201">
        <ele>2251.2</ele>
        <time>2024-08-11T10:53:00Z</time>
      </trkpt>
      <trkpt lat="44.94532" lon="6.50201">
        <ele>2251.2</ele>
        <time>2024-08-11T10:53:01Z</time>
      </trkpt>
      <trkpt lat="44.94532" lon="6.50201">
        <ele>2251.2</ele>
        <time>2024-08-11T10:53:02Z</time>
      </trkpt>
      <trkpt lat="44.94532" lon="6.50201">
        <ele>2251.2</ele>
        <time>2024-08-11T10:53:03Z</time>
      </trkpt>
      <trkpt lat="44.94532" lon="6.50201">
        <ele>2251.2</ele>
        <time>2024-08-11T10:53:04Z</time>
      </trkpt>
      <trkpt lat="44.94532" lon="6.50201">
        <ele>2251.2</ele>
        <time>2024-08-11T10:53:05Z</time>
      </trkpt>
      <trkpt lat="44.94532" lon="6.50201">
        <ele>2251</ele>
        <time>2024-08-11T10:53:06Z</time>
      </trkpt>
      <trkpt lat="44.94532" lon="6.50201">
        <ele>2251</ele>
        <time>2024-08-11T10:53:07Z</time>
      </trkpt>
      <trkpt lat="44.94532" lon="6.50201">
        <ele>2250.8</ele>
        <time>2024-08-11T10:53:08Z</time>
      </trkpt>
      <trkpt lat="44.94532" lon="6.50201">
        <ele>2250.8</ele>
        <time>2024-08-11T10:53:09Z</time>
      </trkpt>
      <trkpt lat="44.94532" lon="6.50201">
        <ele>2250.8</ele>
        <time>2024-08-11T10:53:10Z</time>
      </trkpt>
      <trkpt lat="44.94532" lon="6.50201">
        <ele>2250.8</ele>
        <time>2024-08-11T10:53:11Z</time>
      </trkpt>
      <trkpt lat="44.94532" lon="6.50201">
        <ele>2250.8</ele>
        <time>2024-08-11T10:53:12Z</time>
      </trkpt>
      <trkpt lat="44.94532" lon="6.50201">
        <ele>2250.8</ele>
        <time>2024-08-11T10:53:13Z</time>
      </trkpt>
      <trkpt lat="44.94532" lon="6.50201">
        <ele>2250.8</ele>
        <time>2024-08-11T10:53:14Z</time>
      </trkpt>
      <trkpt lat="44.94532" lon="6.50201">
        <ele>2250.6</ele>
        <time>2024-08-11T10:53:15Z</time>
      </trkpt>
      <trkpt lat="44.94532" lon="6.50201">
        <ele>2250.6</ele>
        <time>2024-08-11T10:53:16Z</time>
      </trkpt>
      <trkpt lat="44.94532" lon="6.50201">
        <ele>2250.4</ele>
        <time>2024-08-11T10:53:17Z</time>
      </trkpt>
      <trkpt lat="44.94532" lon="6.50201">
        <ele>2250.4</ele>
        <time>2024-08-11T10:53:18Z</time>
      </trkpt>
      <trkpt lat="44.94532" lon="6.50201">
        <ele>2250.6</ele>
        <time>2024-08-11T10:53:19Z</time>
      </trkpt>
      <trkpt lat="44.94532" lon="6.50201">
        <ele>2250.8</ele>
        <time>2024-08-11T10:53:20Z</time>
      </trkpt>
      <trkpt lat="44.94532" lon="6.50201">
        <ele>2250.8</ele>
        <time>2024-08-11T10:53:21Z</time>
      </trkpt>
      <trkpt lat="44.94532" lon="6.50201">
        <ele>2250.6</ele>
        <time>2024-08-11T10:53:22Z</time>
      </trkpt>
      <trkpt lat="44.94532" lon="6.50201">
        <ele>2250.6</ele>
        <time>2024-08-11T10:53:23Z</time>
      </trkpt>
      <trkpt lat="44.94532" lon="6.50201">
        <ele>2250.8</ele>
        <time>2024-08-11T10:53:24Z</time>
      </trkpt>
      <trkpt lat="44.94532" lon="6.50201">
        <ele>2250.8</ele>
        <time>2024-08-11T10:53:25Z</time>
      </trkpt>
      <trkpt lat="44.94532" lon="6.50201">
        <ele>2250.6</ele>
        <time>2024-08-11T10:53:26Z</time>
      </trkpt>
      <trkpt lat="44.94532" lon="6.50201">
        <ele>2250.6</ele>
        <time>2024-08-11T10:53:27Z</time>
      </trkpt>
      <trkpt lat="44.94532" lon="6.50201">
        <ele>2250.8</ele>
        <time>2024-08-11T10:53:28Z</time>
      </trkpt>
      <trkpt lat="44.94532" lon="6.50201">
        <ele>2250.8</ele>
        <time>2024-08-11T10:53:29Z</time>
      </trkpt>
      <trkpt lat="44.94532" lon="6.50201">
        <ele>2250.8</ele>
        <time>2024-08-11T10:53:30Z</time>
      </trkpt>
      <trkpt lat="44.94532" lon="6.50201">
        <ele>2250.6</ele>
        <time>2024-08-11T10:53:31Z</time>
      </trkpt>
      <trkpt lat="44.94532" lon="6.50201">
        <ele>2250.6</ele>
        <time>2024-08-11T10:53:32Z</time>
      </trkpt>
      <trkpt lat="44.94532" lon="6.50201">
        <ele>2250.6</ele>
        <time>2024-08-11T10:53:33Z</time>
      </trkpt>
      <trkpt lat="44.94532" lon="6.50201">
        <ele>2250.6</ele>
        <time>2024-08-11T10:53:34Z</time>
      </trkpt>
      <trkpt lat="44.94532" lon="6.50201">
        <ele>2250.8</ele>
        <time>2024-08-11T10:53:35Z</time>
      </trkpt>
      <trkpt lat="44.94532" lon="6.50201">
        <ele>2250.8</ele>
        <time>2024-08-11T10:53:36Z</time>
      </trkpt>
      <trkpt lat="44.94532" lon="6.50201">
        <ele>2250.8</ele>
        <time>2024-08-11T10:53:37Z</time>
      </trkpt>
      <trkpt lat="44.94532" lon="6.50201">
        <ele>2250.8</ele>
        <time>2024-08-11T10:53:38Z</time>
      </trkpt>
      <trkpt lat="44.94532" lon="6.50201">
        <ele>2251</ele>
        <time>2024-08-11T10:53:39Z</time>
      </trkpt>
      <trkpt lat="44.94532" lon="6.50201">
        <ele>2251</ele>
        <time>2024-08-11T10:53:40Z</time>
      </trkpt>
      <trkpt lat="44.94532" lon="6.50201">
        <ele>2251</ele>
        <time>2024-08-11T10:53:41Z</time>
      </trkpt>
      <trkpt lat="44.94532" lon="6.50201">
        <ele>2251.2</ele>
        <time>2024-08-11T10:53:42Z</time>
      </trkpt>
      <trkpt lat="44.94532" lon="6.50201">
        <ele>2251.2</ele>
        <time>2024-08-11T10:53:43Z</time>
      </trkpt>
      <trkpt lat="44.94532" lon="6.50201">
        <ele>2251.2</ele>
        <time>2024-08-11T10:53:44Z</time>
      </trkpt>
      <trkpt lat="44.94532" lon="6.50201">
        <ele>2251</ele>
        <time>2024-08-11T10:53:45Z</time>
      </trkpt>
      <trkpt lat="44.94532" lon="6.50201">
        <ele>2251</ele>
        <time>2024-08-11T10:53:46Z</time>
      </trkpt>
      <trkpt lat="44.94532" lon="6.50201">
        <ele>2251</ele>
        <time>2024-08-11T10:53:47Z</time>
      </trkpt>
      <trkpt lat="44.94532" lon="6.50201">
        <ele>2251</ele>
        <time>2024-08-11T10:53:48Z</time>
      </trkpt>
      <trkpt lat="44.94532" lon="6.50201">
        <ele>2251</ele>
        <time>2024-08-11T10:53:49Z</time>
      </trkpt>
      <trkpt lat="44.94532" lon="6.50201">
        <ele>2251</ele>
        <time>2024-08-11T10:53:50Z</time>
      </trkpt>
      <trkpt lat="44.94532" lon="6.50201">
        <ele>2251</ele>
        <time>2024-08-11T10:53:51Z</time>
      </trkpt>
      <trkpt lat="44.94532" lon="6.50201">
        <ele>2251.2</ele>
        <time>2024-08-11T10:53:52Z</time>
      </trkpt>
      <trkpt lat="44.94532" lon="6.50201">
        <ele>2251.2</ele>
        <time>2024-08-11T10:53:53Z</time>
      </trkpt>
      <trkpt lat="44.94532" lon="6.50201">
        <ele>2251.2</ele>
        <time>2024-08-11T10:53:54Z</time>
      </trkpt>
      <trkpt lat="44.94532" lon="6.50201">
        <ele>2251.2</ele>
        <time>2024-08-11T10:53:55Z</time>
      </trkpt>
      <trkpt lat="44.94532" lon="6.50201">
        <ele>2251.2</ele>
        <time>2024-08-11T10:53:56Z</time>
      </trkpt>
      <trkpt lat="44.94532" lon="6.50201">
        <ele>2251.2</ele>
        <time>2024-08-11T10:53:57Z</time>
      </trkpt>
      <trkpt lat="44.94532" lon="6.50201">
        <ele>2251</ele>
        <time>2024-08-11T10:53:58Z</time>
      </trkpt>
      <trkpt lat="44.94532" lon="6.50201">
        <ele>2251</ele>
        <time>2024-08-11T10:53:59Z</time>
      </trkpt>
      <trkpt lat="44.94532" lon="6.50201">
        <ele>2251.2</ele>
        <time>2024-08-11T10:54:00Z</time>
      </trkpt>
      <trkpt lat="44.94532" lon="6.50201">
        <ele>2251.2</ele>
        <time>2024-08-11T10:54:01Z</time>
      </trkpt>
      <trkpt lat="44.94532" lon="6.50201">
        <ele>2251.6</ele>
        <time>2024-08-11T10:54:02Z</time>
      </trkpt>
      <trkpt lat="44.94532" lon="6.50201">
        <ele>2251.6</ele>
        <time>2024-08-11T10:54:03Z</time>
      </trkpt>
      <trkpt lat="44.94532" lon="6.50201">
        <ele>2251.4</ele>
        <time>2024-08-11T10:54:04Z</time>
      </trkpt>
      <trkpt lat="44.94532" lon="6.50201">
        <ele>2251.4</ele>
        <time>2024-08-11T10:54:05Z</time>
      </trkpt>
      <trkpt lat="44.94532" lon="6.50201">
        <ele>2251.2</ele>
        <time>2024-08-11T10:54:06Z</time>
      </trkpt>
      <trkpt lat="44.94532" lon="6.50201">
        <ele>2251.2</ele>
        <time>2024-08-11T10:54:07Z</time>
      </trkpt>
      <trkpt lat="44.94532" lon="6.50201">
        <ele>2251.2</ele>
        <time>2024-08-11T10:54:08Z</time>
      </trkpt>
      <trkpt lat="44.94532" lon="6.50201">
        <ele>2251.2</ele>
        <time>2024-08-11T10:54:09Z</time>
      </trkpt>
      <trkpt lat="44.94532" lon="6.50201">
        <ele>2251.2</ele>
        <time>2024-08-11T10:54:10Z</time>
      </trkpt>
      <trkpt lat="44.94532" lon="6.50201">
        <ele>2251.2</ele>
        <time>2024-08-11T10:54:11Z</time>
      </trkpt>
      <trkpt lat="44.94532" lon="6.50201">
        <ele>2251</ele>
        <time>2024-08-11T10:54:12Z</time>
      </trkpt>
      <trkpt lat="44.94532" lon="6.50201">
        <ele>2251</ele>
        <time>2024-08-11T10:54:13Z</time>
      </trkpt>
      <trkpt lat="44.94532" lon="6.50201">
        <ele>2251.2</ele>
        <time>2024-08-11T10:54:14Z</time>
      </trkpt>
      <trkpt lat="44.94532" lon="6.50201">
        <ele>2251.4</ele>
        <time>2024-08-11T10:54:15Z</time>
      </trkpt>
      <trkpt lat="44.94532" lon="6.50201">
        <ele>2251.4</ele>
        <time>2024-08-11T10:54:16Z</time>
      </trkpt>
      <trkpt lat="44.94532" lon="6.50201">
        <ele>2251.4</ele>
        <time>2024-08-11T10:54:17Z</time>
      </trkpt>
      <trkpt lat="44.94532" lon="6.50201">
        <ele>2251.6</ele>
        <time>2024-08-11T10:54:18Z</time>
      </trkpt>
      <trkpt lat="44.94532" lon="6.50201">
        <ele>2251.6</ele>
        <time>2024-08-11T10:54:19Z</time>
      </trkpt>
      <trkpt lat="44.94532" lon="6.50201">
        <ele>2251.8</ele>
        <time>2024-08-11T10:54:20Z</time>
      </trkpt>
      <trkpt lat="44.94532" lon="6.50201">
        <ele>2251.8</ele>
        <time>2024-08-11T10:54:21Z</time>
      </trkpt>
      <trkpt lat="44.94532" lon="6.50201">
        <ele>2251.8</ele>
        <time>2024-08-11T10:54:22Z</time>
      </trkpt>
      <trkpt lat="44.94532" lon="6.50201">
        <ele>2252</ele>
        <time>2024-08-11T10:54:23Z</time>
      </trkpt>
      <trkpt lat="44.94532" lon="6.50201">
        <ele>2252</ele>
        <time>2024-08-11T10:54:24Z</time>
      </trkpt>
      <trkpt lat="44.94532" lon="6.50201">
        <ele>2251.8</ele>
        <time>2024-08-11T10:54:25Z</time>
      </trkpt>
      <trkpt lat="44.94532" lon="6.50201">
        <ele>2251.8</ele>
        <time>2024-08-11T10:54:26Z</time>
      </trkpt>
      <trkpt lat="44.94532" lon="6.50201">
        <ele>2252</ele>
        <time>2024-08-11T10:54:27Z</time>
      </trkpt>
      <trkpt lat="44.94532" lon="6.50201">
        <ele>2252</ele>
        <time>2024-08-11T10:54:28Z</time>
      </trkpt>
      <trkpt lat="44.94532" lon="6.50201">
        <ele>2252</ele>
        <time>2024-08-11T10:54:29Z</time>
      </trkpt>
      <trkpt lat="44.94532" lon="6.50201">
        <ele>2252</ele>
        <time>2024-08-11T10:54:30Z</time>
      </trkpt>
      <trkpt lat="44.94532" lon="6.50201">
        <ele>2251.8</ele>
        <time>2024-08-11T10:54:31Z</time>
      </trkpt>
      <trkpt lat="44.94532" lon="6.50201">
        <ele>2251.8</ele>
        <time>2024-08-11T10:54:32Z</time>
      </trkpt>
      <trkpt lat="44.94532" lon="6.50201">
        <ele>2251.8</ele>
        <time>2024-08-11T10:54:33Z</time>
      </trkpt>
      <trkpt lat="44.94532" lon="6.50201">
        <ele>2251.8</ele>
        <time>2024-08-11T10:54:34Z</time>
      </trkpt>
      <trkpt lat="44.94532" lon="6.50201">
        <ele>2251.8</ele>
        <time>2024-08-11T10:54:35Z</time>
      </trkpt>
      <trkpt lat="44.94532" lon="6.50201">
        <ele>2251.8</ele>
        <time>2024-08-11T10:54:36Z</time>
      </trkpt>
      <trkpt lat="44.94532" lon="6.50201">
        <ele>2251.8</ele>
        <time>2024-08-11T10:54:37Z</time>
      </trkpt>
      <trkpt lat="44.94532" lon="6.50201">
        <ele>2251.8</ele>
        <time>2024-08-11T10:54:38Z</time>
      </trkpt>
      <trkpt lat="44.94532" lon="6.50201">
        <ele>2251.8</ele>
        <time>2024-08-11T10:54:39Z</time>
      </trkpt>
      <trkpt lat="44.94532" lon="6.50201">
        <ele>2251.8</ele>
        <time>2024-08-11T10:54:40Z</time>
      </trkpt>
      <trkpt lat="44.94532" lon="6.50201">
        <ele>2251.6</ele>
        <time>2024-08-11T10:54:41Z</time>
      </trkpt>
      <trkpt lat="44.94532" lon="6.50201">
        <ele>2251.6</ele>
        <time>2024-08-11T10:54:42Z</time>
      </trkpt>
      <trkpt lat="44.94532" lon="6.50201">
        <ele>2251.6</ele>
        <time>2024-08-11T10:54:43Z</time>
      </trkpt>
      <trkpt lat="44.94532" lon="6.50201">
        <ele>2251.6</ele>
        <time>2024-08-11T10:54:44Z</time>
      </trkpt>
      <trkpt lat="44.94532" lon="6.50201">
        <ele>2251.4</ele>
        <time>2024-08-11T10:54:45Z</time>
      </trkpt>
      <trkpt lat="44.94532" lon="6.50201">
        <ele>2251.4</ele>
        <time>2024-08-11T10:54:46Z</time>
      </trkpt>
      <trkpt lat="44.94532" lon="6.50201">
        <ele>2251.8</ele>
        <time>2024-08-11T10:54:47Z</time>
      </trkpt>
      <trkpt lat="44.94532" lon="6.50201">
        <ele>2252</ele>
        <time>2024-08-11T10:54:48Z</time>
      </trkpt>
      <trkpt lat="44.94532" lon="6.50201">
        <ele>2252</ele>
        <time>2024-08-11T10:54:49Z</time>
      </trkpt>
      <trkpt lat="44.94532" lon="6.50201">
        <ele>2251.8</ele>
        <time>2024-08-11T10:54:50Z</time>
      </trkpt>
      <trkpt lat="44.94532" lon="6.50201">
        <ele>2251.6</ele>
        <time>2024-08-11T10:54:51Z</time>
      </trkpt>
      <trkpt lat="44.94532" lon="6.50201">
        <ele>2251.6</ele>
        <time>2024-08-11T10:54:52Z</time>
      </trkpt>
      <trkpt lat="44.94532" lon="6.50201">
        <ele>2251.6</ele>
        <time>2024-08-11T10:54:53Z</time>
      </trkpt>
      <trkpt lat="44.94532" lon="6.50201">
        <ele>2251.8</ele>
        <time>2024-08-11T10:54:54Z</time>
      </trkpt>
      <trkpt lat="44.94532" lon="6.50201">
        <ele>2251.8</ele>
        <time>2024-08-11T10:54:55Z</time>
      </trkpt>
      <trkpt lat="44.94532" lon="6.50201">
        <ele>2251.6</ele>
        <time>2024-08-11T10:54:56Z</time>
      </trkpt>
      <trkpt lat="44.94532" lon="6.50201">
        <ele>2251.6</ele>
        <time>2024-08-11T10:54:57Z</time>
      </trkpt>
      <trkpt lat="44.94532" lon="6.50201">
        <ele>2251.6</ele>
        <time>2024-08-11T10:54:58Z</time>
      </trkpt>
      <trkpt lat="44.94532" lon="6.50201">
        <ele>2251.6</ele>
        <time>2024-08-11T10:54:59Z</time>
      </trkpt>
      <trkpt lat="44.94532" lon="6.50201">
        <ele>2251.6</ele>
        <time>2024-08-11T10:55:00Z</time>
      </trkpt>
      <trkpt lat="44.94532" lon="6.50201">
        <ele>2251.6</ele>
        <time>2024-08-11T10:55:01Z</time>
      </trkpt>
      <trkpt lat="44.94532" lon="6.50201">
        <ele>2252.2</ele>
        <time>2024-08-11T10:55:02Z</time>
      </trkpt>
      <trkpt lat="44.94532" lon="6.50201">
        <ele>2252.2</ele>
        <time>2024-08-11T10:55:03Z</time>
      </trkpt>
      <trkpt lat="44.94532" lon="6.50201">
        <ele>2252</ele>
        <time>2024-08-11T10:55:04Z</time>
      </trkpt>
      <trkpt lat="44.94532" lon="6.50201">
        <ele>2252</ele>
        <time>2024-08-11T10:55:05Z</time>
      </trkpt>
      <trkpt lat="44.94532" lon="6.50201">
        <ele>2252</ele>
        <time>2024-08-11T10:55:06Z</time>
      </trkpt>
      <trkpt lat="44.94532" lon="6.50201">
        <ele>2252.2</ele>
        <time>2024-08-11T10:55:07Z</time>
      </trkpt>
      <trkpt lat="44.94532" lon="6.50201">
        <ele>2252.2</ele>
        <time>2024-08-11T10:55:08Z</time>
      </trkpt>
      <trkpt lat="44.94532" lon="6.50201">
        <ele>2252.2</ele>
        <time>2024-08-11T10:55:09Z</time>
      </trkpt>
      <trkpt lat="44.94532" lon="6.50201">
        <ele>2252</ele>
        <time>2024-08-11T10:55:10Z</time>
      </trkpt>
      <trkpt lat="44.94532" lon="6.50201">
        <ele>2252</ele>
        <time>2024-08-11T10:55:11Z</time>
      </trkpt>
      <trkpt lat="44.94532" lon="6.50201">
        <ele>2252.2</ele>
        <time>2024-08-11T10:55:12Z</time>
      </trkpt>
      <trkpt lat="44.94532" lon="6.50201">
        <ele>2252.2</ele>
        <time>2024-08-11T10:55:13Z</time>
      </trkpt>
      <trkpt lat="44.94532" lon="6.50201">
        <ele>2252.4</ele>
        <time>2024-08-11T10:55:14Z</time>
      </trkpt>
      <trkpt lat="44.94532" lon="6.50201">
        <ele>2252.4</ele>
        <time>2024-08-11T10:55:15Z</time>
      </trkpt>
      <trkpt lat="44.94532" lon="6.50201">
        <ele>2252.6</ele>
        <time>2024-08-11T10:55:16Z</time>
      </trkpt>
      <trkpt lat="44.94532" lon="6.50201">
        <ele>2252.6</ele>
        <time>2024-08-11T10:55:17Z</time>
      </trkpt>
      <trkpt lat="44.94532" lon="6.50201">
        <ele>2252.6</ele>
        <time>2024-08-11T10:55:18Z</time>
      </trkpt>
      <trkpt lat="44.94532" lon="6.50201">
        <ele>2252.6</ele>
        <time>2024-08-11T10:55:19Z</time>
      </trkpt>
      <trkpt lat="44.94532" lon="6.50201">
        <ele>2252.6</ele>
        <time>2024-08-11T10:55:20Z</time>
      </trkpt>
      <trkpt lat="44.94532" lon="6.50201">
        <ele>2252.4</ele>
        <time>2024-08-11T10:55:21Z</time>
      </trkpt>
      <trkpt lat="44.94532" lon="6.50201">
        <ele>2252.4</ele>
        <time>2024-08-11T10:55:22Z</time>
      </trkpt>
      <trkpt lat="44.94532" lon="6.50201">
        <ele>2252.6</ele>
        <time>2024-08-11T10:55:23Z</time>
      </trkpt>
      <trkpt lat="44.94532" lon="6.50201">
        <ele>2252.6</ele>
        <time>2024-08-11T10:55:24Z</time>
      </trkpt>
      <trkpt lat="44.94532" lon="6.50201">
        <ele>2252.6</ele>
        <time>2024-08-11T10:55:25Z</time>
      </trkpt>
      <trkpt lat="44.94532" lon="6.50201">
        <ele>2252.6</ele>
        <time>2024-08-11T10:55:26Z</time>
      </trkpt>
      <trkpt lat="44.94532" lon="6.50201">
        <ele>2252.6</ele>
        <time>2024-08-11T10:55:27Z</time>
      </trkpt>
      <trkpt lat="44.94532" lon="6.50201">
        <ele>2252.8</ele>
        <time>2024-08-11T10:55:28Z</time>
      </trkpt>
      <trkpt lat="44.94532" lon="6.50201">
        <ele>2252.8</ele>
        <time>2024-08-11T10:55:29Z</time>
      </trkpt>
      <trkpt lat="44.94532" lon="6.50201">
        <ele>2252.8</ele>
        <time>2024-08-11T10:55:30Z</time>
      </trkpt>
      <trkpt lat="44.94532" lon="6.50201">
        <ele>2252.8</ele>
        <time>2024-08-11T10:55:31Z</time>
      </trkpt>
      <trkpt lat="44.94532" lon="6.50201">
        <ele>2252.8</ele>
        <time>2024-08-11T10:55:32Z</time>
      </trkpt>
      <trkpt lat="44.94532" lon="6.50201">
        <ele>2252.8</ele>
        <time>2024-08-11T10:55:33Z</time>
      </trkpt>
      <trkpt lat="44.94532" lon="6.50201">
        <ele>2252.8</ele>
        <time>2024-08-11T10:55:34Z</time>
      </trkpt>
      <trkpt lat="44.94532" lon="6.50201">
        <ele>2252.8</ele>
        <time>2024-08-11T10:55:35Z</time>
      </trkpt>
      <trkpt lat="44.94532" lon="6.50201">
        <ele>2252.8</ele>
        <time>2024-08-11T10:55:36Z</time>
      </trkpt>
      <trkpt lat="44.94532" lon="6.50201">
        <ele>2252.8</ele>
        <time>2024-08-11T10:55:37Z</time>
      </trkpt>
      <trkpt lat="44.94532" lon="6.50201">
        <ele>2252.8</ele>
        <time>2024-08-11T10:55:38Z</time>
      </trkpt>
      <trkpt lat="44.94532" lon="6.50201">
        <ele>2252.8</ele>
        <time>2024-08-11T10:55:39Z</time>
      </trkpt>
      <trkpt lat="44.94532" lon="6.50201">
        <ele>2252.8</ele>
        <time>2024-08-11T10:55:40Z</time>
      </trkpt>
      <trkpt lat="44.94532" lon="6.50201">
        <ele>2253.2</ele>
        <time>2024-08-11T10:55:41Z</time>
      </trkpt>
      <trkpt lat="44.94532" lon="6.50201">
        <ele>2253.2</ele>
        <time>2024-08-11T10:55:42Z</time>
      </trkpt>
      <trkpt lat="44.94532" lon="6.50201">
        <ele>2253.2</ele>
        <time>2024-08-11T10:55:43Z</time>
      </trkpt>
      <trkpt lat="44.94532" lon="6.50201">
        <ele>2253.2</ele>
        <time>2024-08-11T10:55:44Z</time>
      </trkpt>
      <trkpt lat="44.94532" lon="6.50201">
        <ele>2253</ele>
        <time>2024-08-11T10:55:45Z</time>
      </trkpt>
      <trkpt lat="44.94532" lon="6.50201">
        <ele>2253</ele>
        <time>2024-08-11T10:55:46Z</time>
      </trkpt>
      <trkpt lat="44.94532" lon="6.50201">
        <ele>2253</ele>
        <time>2024-08-11T10:55:47Z</time>
      </trkpt>
      <trkpt lat="44.94532" lon="6.50201">
        <ele>2252.8</ele>
        <time>2024-08-11T10:55:48Z</time>
      </trkpt>
      <trkpt lat="44.94532" lon="6.50201">
        <ele>2252.8</ele>
        <time>2024-08-11T10:55:49Z</time>
      </trkpt>
      <trkpt lat="44.94532" lon="6.50201">
        <ele>2253.2</ele>
        <time>2024-08-11T10:55:50Z</time>
      </trkpt>
      <trkpt lat="44.94532" lon="6.50201">
        <ele>2253.2</ele>
        <time>2024-08-11T10:55:51Z</time>
      </trkpt>
      <trkpt lat="44.94532" lon="6.50201">
        <ele>2253</ele>
        <time>2024-08-11T10:55:52Z</time>
      </trkpt>
      <trkpt lat="44.94532" lon="6.50201">
        <ele>2253</ele>
        <time>2024-08-11T10:55:53Z</time>
      </trkpt>
      <trkpt lat="44.94532" lon="6.50201">
        <ele>2253</ele>
        <time>2024-08-11T10:55:54Z</time>
      </trkpt>
      <trkpt lat="44.94532" lon="6.50201">
        <ele>2253</ele>
        <time>2024-08-11T10:55:55Z</time>
      </trkpt>
      <trkpt lat="44.94532" lon="6.50201">
        <ele>2252.8</ele>
        <time>2024-08-11T10:55:56Z</time>
      </trkpt>
      <trkpt lat="44.94532" lon="6.50201">
        <ele>2252.8</ele>
        <time>2024-08-11T10:55:57Z</time>
      </trkpt>
      <trkpt lat="44.94532" lon="6.50201">
        <ele>2252.8</ele>
        <time>2024-08-11T10:55:58Z</time>
      </trkpt>
      <trkpt lat="44.94532" lon="6.50201">
        <ele>2252.8</ele>
        <time>2024-08-11T10:55:59Z</time>
      </trkpt>
      <trkpt lat="44.94532" lon="6.50201">
        <ele>2253</ele>
        <time>2024-08-11T10:56:00Z</time>
      </trkpt>
      <trkpt lat="44.94532" lon="6.50201">
        <ele>2253</ele>
        <time>2024-08-11T10:56:01Z</time>
      </trkpt>
      <trkpt lat="44.94532" lon="6.50201">
        <ele>2253.4</ele>
        <time>2024-08-11T10:56:02Z</time>
      </trkpt>
      <trkpt lat="44.94532" lon="6.50201">
        <ele>2253.4</ele>
        <time>2024-08-11T10:56:03Z</time>
      </trkpt>
      <trkpt lat="44.94532" lon="6.50201">
        <ele>2253.2</ele>
        <time>2024-08-11T10:56:04Z</time>
      </trkpt>
      <trkpt lat="44.94532" lon="6.50201">
        <ele>2252.8</ele>
        <time>2024-08-11T10:56:05Z</time>
      </trkpt>
      <trkpt lat="44.94532" lon="6.50201">
        <ele>2252.8</ele>
        <time>2024-08-11T10:56:06Z</time>
      </trkpt>
      <trkpt lat="44.94532" lon="6.50201">
        <ele>2252.8</ele>
        <time>2024-08-11T10:56:07Z</time>
      </trkpt>
      <trkpt lat="44.94532" lon="6.50201">
        <ele>2252.8</ele>
        <time>2024-08-11T10:56:08Z</time>
      </trkpt>
      <trkpt lat="44.94532" lon="6.50201">
        <ele>2252.6</ele>
        <time>2024-08-11T10:56:09Z</time>
      </trkpt>
      <trkpt lat="44.94532" lon="6.50201">
        <ele>2252.6</ele>
        <time>2024-08-11T10:56:10Z</time>
      </trkpt>
      <trkpt lat="44.94532" lon="6.50201">
        <ele>2252.6</ele>
        <time>2024-08-11T10:56:11Z</time>
      </trkpt>
      <trkpt lat="44.94532" lon="6.50201">
        <ele>2252.6</ele>
        <time>2024-08-11T10:56:12Z</time>
      </trkpt>
      <trkpt lat="44.94532" lon="6.50201">
        <ele>2252.6</ele>
        <time>2024-08-11T10:56:13Z</time>
      </trkpt>
      <trkpt lat="44.94532" lon="6.50201">
        <ele>2252.6</ele>
        <time>2024-08-11T10:56:14Z</time>
      </trkpt>
      <trkpt lat="44.94532" lon="6.50201">
        <ele>2252.6</ele>
        <time>2024-08-11T10:56:15Z</time>
      </trkpt>
      <trkpt lat="44.94532" lon="6.50201">
        <ele>2252.6</ele>
        <time>2024-08-11T10:56:16Z</time>
      </trkpt>
      <trkpt lat="44.94532" lon="6.50201">
        <ele>2252.6</ele>
        <time>2024-08-11T10:56:17Z</time>
      </trkpt>
      <trkpt lat="44.94532" lon="6.50201">
        <ele>2252.4</ele>
        <time>2024-08-11T10:56:18Z</time>
      </trkpt>
      <trkpt lat="44.94532" lon="6.50201">
        <ele>2252.4</ele>
        <time>2024-08-11T10:56:19Z</time>
      </trkpt>
      <trkpt lat="44.94532" lon="6.50201">
        <ele>2252.6</ele>
        <time>2024-08-11T10:56:20Z</time>
      </trkpt>
      <trkpt lat="44.94532" lon="6.50201">
        <ele>2252.8</ele>
        <time>2024-08-11T10:56:21Z</time>
      </trkpt>
      <trkpt lat="44.94532" lon="6.50201">
        <ele>2252.8</ele>
        <time>2024-08-11T10:56:22Z</time>
      </trkpt>
      <trkpt lat="44.94532" lon="6.50201">
        <ele>2253</ele>
        <time>2024-08-11T10:56:23Z</time>
      </trkpt>
      <trkpt lat="44.94532" lon="6.50201">
        <ele>2253</ele>
        <time>2024-08-11T10:56:24Z</time>
      </trkpt>
      <trkpt lat="44.94532" lon="6.50201">
        <ele>2253</ele>
        <time>2024-08-11T10:56:25Z</time>
      </trkpt>
      <trkpt lat="44.94532" lon="6.50201">
        <ele>2253.2</ele>
        <time>2024-08-11T10:56:26Z</time>
      </trkpt>
      <trkpt lat="44.94532" lon="6.50201">
        <ele>2253.2</ele>
        <time>2024-08-11T10:56:27Z</time>
      </trkpt>
      <trkpt lat="44.94532" lon="6.50201">
        <ele>2253.2</ele>
        <time>2024-08-11T10:56:28Z</time>
      </trkpt>
      <trkpt lat="44.94532" lon="6.50201">
        <ele>2253</ele>
        <time>2024-08-11T10:56:29Z</time>
      </trkpt>
      <trkpt lat="44.94532" lon="6.50201">
        <ele>2253</ele>
        <time>2024-08-11T10:56:30Z</time>
      </trkpt>
      <trkpt lat="44.94532" lon="6.50201">
        <ele>2252.8</ele>
        <time>2024-08-11T10:56:31Z</time>
      </trkpt>
      <trkpt lat="44.94532" lon="6.50201">
        <ele>2252.8</ele>
        <time>2024-08-11T10:56:32Z</time>
      </trkpt>
      <trkpt lat="44.94532" lon="6.50201">
        <ele>2252.8</ele>
        <time>2024-08-11T10:56:33Z</time>
      </trkpt>
      <trkpt lat="44.94532" lon="6.50201">
        <ele>2253</ele>
        <time>2024-08-11T10:56:34Z</time>
      </trkpt>
      <trkpt lat="44.94532" lon="6.50201">
        <ele>2253</ele>
        <time>2024-08-11T10:56:35Z</time>
      </trkpt>
      <trkpt lat="44.94532" lon="6.50201">
        <ele>2253</ele>
        <time>2024-08-11T10:56:36Z</time>
      </trkpt>
      <trkpt lat="44.94532" lon="6.50201">
        <ele>2253</ele>
        <time>2024-08-11T10:56:37Z</time>
      </trkpt>
      <trkpt lat="44.94532" lon="6.50201">
        <ele>2253</ele>
        <time>2024-08-11T10:56:38Z</time>
      </trkpt>
      <trkpt lat="44.94532" lon="6.50201">
        <ele>2253.2</ele>
        <time>2024-08-11T10:56:39Z</time>
      </trkpt>
      <trkpt lat="44.94532" lon="6.50201">
        <ele>2253.4</ele>
        <time>2024-08-11T10:56:40Z</time>
      </trkpt>
      <trkpt lat="44.94532" lon="6.50201">
        <ele>2253.4</ele>
        <time>2024-08-11T10:56:41Z</time>
      </trkpt>
      <trkpt lat="44.94532" lon="6.50201">
        <ele>2253.2</ele>
        <time>2024-08-11T10:56:42Z</time>
      </trkpt>
      <trkpt lat="44.94532" lon="6.50201">
        <ele>2253</ele>
        <time>2024-08-11T10:56:43Z</time>
      </trkpt>
      <trkpt lat="44.94532" lon="6.50201">
        <ele>2253</ele>
        <time>2024-08-11T10:56:44Z</time>
      </trkpt>
      <trkpt lat="44.94532" lon="6.50201">
        <ele>2253.2</ele>
        <time>2024-08-11T10:56:45Z</time>
      </trkpt>
      <trkpt lat="44.94532" lon="6.50201">
        <ele>2253.2</ele>
        <time>2024-08-11T10:56:46Z</time>
      </trkpt>
      <trkpt lat="44.94532" lon="6.50201">
        <ele>2253.2</ele>
        <time>2024-08-11T10:56:47Z</time>
      </trkpt>
      <trkpt lat="44.94532" lon="6.50201">
        <ele>2253.2</ele>
        <time>2024-08-11T10:56:48Z</time>
      </trkpt>
      <trkpt lat="44.94532" lon="6.50201">
        <ele>2253.2</ele>
        <time>2024-08-11T10:56:49Z</time>
      </trkpt>
      <trkpt lat="44.94532" lon="6.50201">
        <ele>2253.2</ele>
        <time>2024-08-11T10:56:50Z</time>
      </trkpt>
      <trkpt lat="44.94532" lon="6.50201">
        <ele>2253.2</ele>
        <time>2024-08-11T10:56:51Z</time>
      </trkpt>
      <trkpt lat="44.94532" lon="6.50201">
        <ele>2253.2</ele>
        <time>2024-08-11T10:56:52Z</time>
      </trkpt>
      <trkpt lat="44.94532" lon="6.50201">
        <ele>2253.4</ele>
        <time>2024-08-11T10:56:53Z</time>
      </trkpt>
      <trkpt lat="44.94532" lon="6.50201">
        <ele>2253.4</ele>
        <time>2024-08-11T10:56:54Z</time>
      </trkpt>
      <trkpt lat="44.94532" lon="6.50201">
        <ele>2253.2</ele>
        <time>2024-08-11T10:56:55Z</time>
      </trkpt>
      <trkpt lat="44.94532" lon="6.50201">
        <ele>2253.2</ele>
        <time>2024-08-11T10:56:56Z</time>
      </trkpt>
      <trkpt lat="44.94532" lon="6.50201">
        <ele>2253.4</ele>
        <time>2024-08-11T10:56:57Z</time>
      </trkpt>
      <trkpt lat="44.94532" lon="6.50201">
        <ele>2253.4</ele>
        <time>2024-08-11T10:56:58Z</time>
      </trkpt>
      <trkpt lat="44.94532" lon="6.50201">
        <ele>2253.6</ele>
        <time>2024-08-11T10:56:59Z</time>
      </trkpt>
      <trkpt lat="44.94532" lon="6.50201">
        <ele>2253.6</ele>
        <time>2024-08-11T10:57:00Z</time>
      </trkpt>
      <trkpt lat="44.94532" lon="6.50201">
        <ele>2253.6</ele>
        <time>2024-08-11T10:57:01Z</time>
      </trkpt>
      <trkpt lat="44.94532" lon="6.50201">
        <ele>2253.8</ele>
        <time>2024-08-11T10:57:02Z</time>
      </trkpt>
      <trkpt lat="44.94532" lon="6.50201">
        <ele>2253.8</ele>
        <time>2024-08-11T10:57:03Z</time>
      </trkpt>
      <trkpt lat="44.94532" lon="6.50201">
        <ele>2253.8</ele>
        <time>2024-08-11T10:57:04Z</time>
      </trkpt>
      <trkpt lat="44.94532" lon="6.50201">
        <ele>2253.6</ele>
        <time>2024-08-11T10:57:05Z</time>
      </trkpt>
      <trkpt lat="44.94532" lon="6.50201">
        <ele>2253.6</ele>
        <time>2024-08-11T10:57:06Z</time>
      </trkpt>
      <trkpt lat="44.94532" lon="6.50201">
        <ele>2253.6</ele>
        <time>2024-08-11T10:57:07Z</time>
      </trkpt>
      <trkpt lat="44.94532" lon="6.50201">
        <ele>2253.8</ele>
        <time>2024-08-11T10:57:08Z</time>
      </trkpt>
      <trkpt lat="44.94532" lon="6.50201">
        <ele>2253.8</ele>
        <time>2024-08-11T10:57:09Z</time>
      </trkpt>
      <trkpt lat="44.94532" lon="6.50201">
        <ele>2253.8</ele>
        <time>2024-08-11T10:57:10Z</time>
      </trkpt>
      <trkpt lat="44.94532" lon="6.50201">
        <ele>2253.8</ele>
        <time>2024-08-11T10:57:11Z</time>
      </trkpt>
      <trkpt lat="44.94532" lon="6.50201">
        <ele>2254</ele>
        <time>2024-08-11T10:57:12Z</time>
      </trkpt>
      <trkpt lat="44.94532" lon="6.50201">
        <ele>2254</ele>
        <time>2024-08-11T10:57:13Z</time>
      </trkpt>
      <trkpt lat="44.94532" lon="6.50201">
        <ele>2254</ele>
        <time>2024-08-11T10:57:14Z</time>
      </trkpt>
      <trkpt lat="44.94532" lon="6.50201">
        <ele>2254</ele>
        <time>2024-08-11T10:57:15Z</time>
      </trkpt>
      <trkpt lat="44.94532" lon="6.50201">
        <ele>2254</ele>
        <time>2024-08-11T10:57:16Z</time>
      </trkpt>
      <trkpt lat="44.94532" lon="6.50201">
        <ele>2253.8</ele>
        <time>2024-08-11T10:57:17Z</time>
      </trkpt>
      <trkpt lat="44.94532" lon="6.50201">
        <ele>2253.8</ele>
        <time>2024-08-11T10:57:18Z</time>
      </trkpt>
      <trkpt lat="44.94532" lon="6.50201">
        <ele>2253.8</ele>
        <time>2024-08-11T10:57:19Z</time>
      </trkpt>
      <trkpt lat="44.94532" lon="6.50201">
        <ele>2253.8</ele>
        <time>2024-08-11T10:57:20Z</time>
      </trkpt>
      <trkpt lat="44.94532" lon="6.50201">
        <ele>2253.8</ele>
        <time>2024-08-11T10:57:21Z</time>
      </trkpt>
      <trkpt lat="44.94532" lon="6.50201">
        <ele>2253.8</ele>
        <time>2024-08-11T10:57:22Z</time>
      </trkpt>
      <trkpt lat="44.94532" lon="6.50201">
        <ele>2253.8</ele>
        <time>2024-08-11T10:57:23Z</time>
      </trkpt>
      <trkpt lat="44.94532" lon="6.50201">
        <ele>2253.6</ele>
        <time>2024-08-11T10:57:24Z</time>
      </trkpt>
      <trkpt lat="44.94532" lon="6.50201">
        <ele>2253.6</ele>
        <time>2024-08-11T10:57:25Z</time>
      </trkpt>
      <trkpt lat="44.94532" lon="6.50201">
        <ele>2253.6</ele>
        <time>2024-08-11T10:57:26Z</time>
      </trkpt>
      <trkpt lat="44.94532" lon="6.50201">
        <ele>2253.6</ele>
        <time>2024-08-11T10:57:27Z</time>
      </trkpt>
      <trkpt lat="44.94532" lon="6.50201">
        <ele>2253.6</ele>
        <time>2024-08-11T10:57:28Z</time>
      </trkpt>
      <trkpt lat="44.94532" lon="6.50201">
        <ele>2253.6</ele>
        <time>2024-08-11T10:57:29Z</time>
      </trkpt>
      <trkpt lat="44.94532" lon="6.50201">
        <ele>2253.6</ele>
        <time>2024-08-11T10:57:30Z</time>
      </trkpt>
      <trkpt lat="44.94532" lon="6.50201">
        <ele>2253.6</ele>
        <time>2024-08-11T10:57:31Z</time>
      </trkpt>
      <trkpt lat="44.94532" lon="6.50201">
        <ele>2254</ele>
        <time>2024-08-11T10:57:32Z</time>
      </trkpt>
      <trkpt lat="44.94532" lon="6.50201">
        <ele>2254</ele>
        <time>2024-08-11T10:57:33Z</time>
      </trkpt>
      <trkpt lat="44.94532" lon="6.50201">
        <ele>2253.8</ele>
        <time>2024-08-11T10:57:34Z</time>
      </trkpt>
      <trkpt lat="44.94532" lon="6.50201">
        <ele>2253.6</ele>
        <time>2024-08-11T10:57:35Z</time>
      </trkpt>
      <trkpt lat="44.94532" lon="6.50201">
        <ele>2253.6</ele>
        <time>2024-08-11T10:57:36Z</time>
      </trkpt>
      <trkpt lat="44.94532" lon="6.50201">
        <ele>2253.6</ele>
        <time>2024-08-11T10:57:37Z</time>
      </trkpt>
      <trkpt lat="44.94532" lon="6.50201">
        <ele>2253.6</ele>
        <time>2024-08-11T10:57:38Z</time>
      </trkpt>
      <trkpt lat="44.94532" lon="6.50201">
        <ele>2253.6</ele>
        <time>2024-08-11T10:57:39Z</time>
      </trkpt>
      <trkpt lat="44.94532" lon="6.50201">
        <ele>2253.6</ele>
        <time>2024-08-11T10:57:40Z</time>
      </trkpt>
      <trkpt lat="44.94532" lon="6.50201">
        <ele>2253.8</ele>
        <time>2024-08-11T10:57:41Z</time>
      </trkpt>
      <trkpt lat="44.94532" lon="6.50201">
        <ele>2253.8</ele>
        <time>2024-08-11T10:57:42Z</time>
      </trkpt>
      <trkpt lat="44.94532" lon="6.50201">
        <ele>2253.6</ele>
        <time>2024-08-11T10:57:43Z</time>
      </trkpt>
      <trkpt lat="44.94532" lon="6.50201">
        <ele>2253.6</ele>
        <time>2024-08-11T10:57:44Z</time>
      </trkpt>
      <trkpt lat="44.94532" lon="6.50201">
        <ele>2253.6</ele>
        <time>2024-08-11T10:57:45Z</time>
      </trkpt>
      <trkpt lat="44.94532" lon="6.50201">
        <ele>2253.6</ele>
        <time>2024-08-11T10:57:46Z</time>
      </trkpt>
      <trkpt lat="44.94532" lon="6.50201">
        <ele>2253.6</ele>
        <time>2024-08-11T10:57:47Z</time>
      </trkpt>
      <trkpt lat="44.94532" lon="6.50201">
        <ele>2253.8</ele>
        <time>2024-08-11T10:57:48Z</time>
      </trkpt>
      <trkpt lat="44.94532" lon="6.50201">
        <ele>2253.8</ele>
        <time>2024-08-11T10:57:49Z</time>
      </trkpt>
      <trkpt lat="44.94532" lon="6.50201">
        <ele>2253.6</ele>
        <time>2024-08-11T10:57:50Z</time>
      </trkpt>
      <trkpt lat="44.94532" lon="6.50201">
        <ele>2253.6</ele>
        <time>2024-08-11T10:57:51Z</time>
      </trkpt>
      <trkpt lat="44.94532" lon="6.50201">
        <ele>2253.8</ele>
        <time>2024-08-11T10:57:52Z</time>
      </trkpt>
      <trkpt lat="44.94532" lon="6.50201">
        <ele>2253.8</ele>
        <time>2024-08-11T10:57:53Z</time>
      </trkpt>
      <trkpt lat="44.94532" lon="6.50201">
        <ele>2253.8</ele>
        <time>2024-08-11T10:57:54Z</time>
      </trkpt>
      <trkpt lat="44.94532" lon="6.50201">
        <ele>2254</ele>
        <time>2024-08-11T10:57:55Z</time>
      </trkpt>
      <trkpt lat="44.94532" lon="6.50201">
        <ele>2254</ele>
        <time>2024-08-11T10:57:56Z</time>
      </trkpt>
      <trkpt lat="44.94532" lon="6.50201">
        <ele>2253.8</ele>
        <time>2024-08-11T10:57:57Z</time>
      </trkpt>
      <trkpt lat="44.94532" lon="6.50201">
        <ele>2253.8</ele>
        <time>2024-08-11T10:57:58Z</time>
      </trkpt>
      <trkpt lat="44.94532" lon="6.50201">
        <ele>2253.8</ele>
        <time>2024-08-11T10:57:59Z</time>
      </trkpt>
      <trkpt lat="44.94532" lon="6.50201">
        <ele>2253.8</ele>
        <time>2024-08-11T10:58:00Z</time>
      </trkpt>
      <trkpt lat="44.94532" lon="6.50201">
        <ele>2253.8</ele>
        <time>2024-08-11T10:58:01Z</time>
      </trkpt>
      <trkpt lat="44.94532" lon="6.50201">
        <ele>2254.4</ele>
        <time>2024-08-11T10:58:02Z</time>
      </trkpt>
      <trkpt lat="44.94532" lon="6.50201">
        <ele>2254.4</ele>
        <time>2024-08-11T10:58:03Z</time>
      </trkpt>
      <trkpt lat="44.94532" lon="6.50201">
        <ele>2254.4</ele>
        <time>2024-08-11T10:58:04Z</time>
      </trkpt>
      <trkpt lat="44.94532" lon="6.50201">
        <ele>2254.4</ele>
        <time>2024-08-11T10:58:05Z</time>
      </trkpt>
      <trkpt lat="44.94532" lon="6.50201">
        <ele>2254</ele>
        <time>2024-08-11T10:58:06Z</time>
      </trkpt>
      <trkpt lat="44.94532" lon="6.50201">
        <ele>2254</ele>
        <time>2024-08-11T10:58:07Z</time>
      </trkpt>
      <trkpt lat="44.94532" lon="6.50201">
        <ele>2254</ele>
        <time>2024-08-11T10:58:08Z</time>
      </trkpt>
      <trkpt lat="44.94532" lon="6.50201">
        <ele>2254.2</ele>
        <time>2024-08-11T10:58:09Z</time>
      </trkpt>
      <trkpt lat="44.94532" lon="6.50201">
        <ele>2254.2</ele>
        <time>2024-08-11T10:58:10Z</time>
      </trkpt>
      <trkpt lat="44.94532" lon="6.50201">
        <ele>2254.2</ele>
        <time>2024-08-11T10:58:11Z</time>
      </trkpt>
      <trkpt lat="44.94532" lon="6.50201">
        <ele>2253.8</ele>
        <time>2024-08-11T10:58:12Z</time>
      </trkpt>
      <trkpt lat="44.94532" lon="6.50201">
        <ele>2253.8</ele>
        <time>2024-08-11T10:58:13Z</time>
      </trkpt>
      <trkpt lat="44.94532" lon="6.50201">
        <ele>2254</ele>
        <time>2024-08-11T10:58:14Z</time>
      </trkpt>
      <trkpt lat="44.94532" lon="6.50201">
        <ele>2254</ele>
        <time>2024-08-11T10:58:15Z</time>
      </trkpt>
      <trkpt lat="44.94532" lon="6.50201">
        <ele>2254</ele>
        <time>2024-08-11T10:58:16Z</time>
      </trkpt>
      <trkpt lat="44.94532" lon="6.50201">
        <ele>2253.6</ele>
        <time>2024-08-11T10:58:17Z</time>
      </trkpt>
      <trkpt lat="44.94532" lon="6.50201">
        <ele>2253.8</ele>
        <time>2024-08-11T10:58:18Z</time>
      </trkpt>
      <trkpt lat="44.94532" lon="6.50201">
        <ele>2254</ele>
        <time>2024-08-11T10:58:19Z</time>
      </trkpt>
      <trkpt lat="44.94532" lon="6.50201">
        <ele>2254.2</ele>
        <time>2024-08-11T10:58:20Z</time>
      </trkpt>
      <trkpt lat="44.94532" lon="6.50201">
        <ele>2254.2</ele>
        <time>2024-08-11T10:58:21Z</time>
      </trkpt>
      <trkpt lat="44.94532" lon="6.50201">
        <ele>2254</ele>
        <time>2024-08-11T10:58:22Z</time>
      </trkpt>
      <trkpt lat="44.94532" lon="6.50201">
        <ele>2254</ele>
        <time>2024-08-11T10:58:23Z</time>
      </trkpt>
      <trkpt lat="44.94532" lon="6.50201">
        <ele>2254</ele>
        <time>2024-08-11T10:58:24Z</time>
      </trkpt>
      <trkpt lat="44.94532" lon="6.50201">
        <ele>2254.2</ele>
        <time>2024-08-11T10:58:25Z</time>
      </trkpt>
      <trkpt lat="44.94532" lon="6.50201">
        <ele>2254.2</ele>
        <time>2024-08-11T10:58:26Z</time>
      </trkpt>
      <trkpt lat="44.94532" lon="6.50201">
        <ele>2254.2</ele>
        <time>2024-08-11T10:58:27Z</time>
      </trkpt>
      <trkpt lat="44.94532" lon="6.50201">
        <ele>2254</ele>
        <time>2024-08-11T10:58:28Z</time>
      </trkpt>
      <trkpt lat="44.94532" lon="6.50201">
        <ele>2254</ele>
        <time>2024-08-11T10:58:29Z</time>
      </trkpt>
      <trkpt lat="44.94532" lon="6.50201">
        <ele>2254</ele>
        <time>2024-08-11T10:58:30Z</time>
      </trkpt>
      <trkpt lat="44.94532" lon="6.50201">
        <ele>2254</ele>
        <time>2024-08-11T10:58:31Z</time>
      </trkpt>
      <trkpt lat="44.94532" lon="6.50201">
        <ele>2254</ele>
        <time>2024-08-11T10:58:32Z</time>
      </trkpt>
      <trkpt lat="44.94532" lon="6.50201">
        <ele>2254</ele>
        <time>2024-08-11T10:58:33Z</time>
      </trkpt>
      <trkpt lat="44.94532" lon="6.50201">
        <ele>2254</ele>
        <time>2024-08-11T10:58:34Z</time>
      </trkpt>
      <trkpt lat="44.94532" lon="6.50201">
        <ele>2254</ele>
        <time>2024-08-11T10:58:35Z</time>
      </trkpt>
      <trkpt lat="44.94532" lon="6.50201">
        <ele>2254</ele>
        <time>2024-08-11T10:58:36Z</time>
      </trkpt>
      <trkpt lat="44.94532" lon="6.50201">
        <ele>2254</ele>
        <time>2024-08-11T10:58:37Z</time>
      </trkpt>
      <trkpt lat="44.94532" lon="6.50201">
        <ele>2254</ele>
        <time>2024-08-11T10:58:38Z</time>
      </trkpt>
      <trkpt lat="44.94532" lon="6.50201">
        <ele>2254</ele>
        <time>2024-08-11T10:58:39Z</time>
      </trkpt>
      <trkpt lat="44.94532" lon="6.50201">
        <ele>2254</ele>
        <time>2024-08-11T10:58:40Z</time>
      </trkpt>
      <trkpt lat="44.94532" lon="6.50201">
        <ele>2254</ele>
        <time>2024-08-11T10:58:41Z</time>
      </trkpt>
      <trkpt lat="44.94532" lon="6.50201">
        <ele>2254</ele>
        <time>2024-08-11T10:58:42Z</time>
      </trkpt>
      <trkpt lat="44.94532" lon="6.50201">
        <ele>2254</ele>
        <time>2024-08-11T10:58:43Z</time>
      </trkpt>
      <trkpt lat="44.94532" lon="6.50201">
        <ele>2254</ele>
        <time>2024-08-11T10:58:44Z</time>
      </trkpt>
      <trkpt lat="44.94532" lon="6.50201">
        <ele>2254</ele>
        <time>2024-08-11T10:58:45Z</time>
      </trkpt>
      <trkpt lat="44.94532" lon="6.50201">
        <ele>2254</ele>
        <time>2024-08-11T10:58:46Z</time>
      </trkpt>
      <trkpt lat="44.94532" lon="6.50201">
        <ele>2254</ele>
        <time>2024-08-11T10:58:47Z</time>
      </trkpt>
      <trkpt lat="44.94532" lon="6.50201">
        <ele>2254</ele>
        <time>2024-08-11T10:58:48Z</time>
      </trkpt>
      <trkpt lat="44.94532" lon="6.50201">
        <ele>2254</ele>
        <time>2024-08-11T10:58:49Z</time>
      </trkpt>
      <trkpt lat="44.94532" lon="6.50201">
        <ele>2254</ele>
        <time>2024-08-11T10:58:50Z</time>
      </trkpt>
      <trkpt lat="44.94532" lon="6.50201">
        <ele>2254.2</ele>
        <time>2024-08-11T10:58:51Z</time>
      </trkpt>
      <trkpt lat="44.94532" lon="6.50201">
        <ele>2254.2</ele>
        <time>2024-08-11T10:58:52Z</time>
      </trkpt>
      <trkpt lat="44.94532" lon="6.50201">
        <ele>2254</ele>
        <time>2024-08-11T10:58:53Z</time>
      </trkpt>
      <trkpt lat="44.94532" lon="6.50201">
        <ele>2254</ele>
        <time>2024-08-11T10:58:54Z</time>
      </trkpt>
      <trkpt lat="44.94532" lon="6.50201">
        <ele>2254</ele>
        <time>2024-08-11T10:58:55Z</time>
      </trkpt>
      <trkpt lat="44.94532" lon="6.50201">
        <ele>2254.2</ele>
        <time>2024-08-11T10:58:56Z</time>
      </trkpt>
      <trkpt lat="44.94532" lon="6.50201">
        <ele>2254.2</ele>
        <time>2024-08-11T10:58:57Z</time>
      </trkpt>
      <trkpt lat="44.94532" lon="6.50201">
        <ele>2254</ele>
        <time>2024-08-11T10:58:58Z</time>
      </trkpt>
      <trkpt lat="44.94532" lon="6.50201">
        <ele>2254</ele>
        <time>2024-08-11T10:58:59Z</time>
      </trkpt>
      <trkpt lat="44.94532" lon="6.50201">
        <ele>2254.2</ele>
        <time>2024-08-11T10:59:00Z</time>
      </trkpt>
      <trkpt lat="44.94532" lon="6.50201">
        <ele>2254.2</ele>
        <time>2024-08-11T10:59:01Z</time>
      </trkpt>
      <trkpt lat="44.94532" lon="6.50201">
        <ele>2254.4</ele>
        <time>2024-08-11T10:59:02Z</time>
      </trkpt>
      <trkpt lat="44.94532" lon="6.50201">
        <ele>2254.4</ele>
        <time>2024-08-11T10:59:03Z</time>
      </trkpt>
      <trkpt lat="44.94532" lon="6.50201">
        <ele>2254.4</ele>
        <time>2024-08-11T10:59:04Z</time>
      </trkpt>
      <trkpt lat="44.94532" lon="6.50201">
        <ele>2254.4</ele>
        <time>2024-08-11T10:59:05Z</time>
      </trkpt>
      <trkpt lat="44.94532" lon="6.50201">
        <ele>2254.4</ele>
        <time>2024-08-11T10:59:06Z</time>
      </trkpt>
      <trkpt lat="44.94532" lon="6.50201">
        <ele>2254.4</ele>
        <time>2024-08-11T10:59:07Z</time>
      </trkpt>
      <trkpt lat="44.94532" lon="6.50201">
        <ele>2254.4</ele>
        <time>2024-08-11T10:59:08Z</time>
      </trkpt>
      <trkpt lat="44.94532" lon="6.50201">
        <ele>2254.4</ele>
        <time>2024-08-11T10:59:09Z</time>
      </trkpt>
      <trkpt lat="44.94532" lon="6.50201">
        <ele>2254.4</ele>
        <time>2024-08-11T10:59:10Z</time>
      </trkpt>
      <trkpt lat="44.94532" lon="6.50201">
        <ele>2254.4</ele>
        <time>2024-08-11T10:59:11Z</time>
      </trkpt>
      <trkpt lat="44.94532" lon="6.50201">
        <ele>2254.4</ele>
        <time>2024-08-11T10:59:12Z</time>
      </trkpt>
      <trkpt lat="44.94532" lon="6.50201">
        <ele>2254.4</ele>
        <time>2024-08-11T10:59:13Z</time>
      </trkpt>
      <trkpt lat="44.94532" lon="6.50201">
        <ele>2254.4</ele>
        <time>2024-08-11T10:59:14Z</time>
      </trkpt>
      <trkpt lat="44.94532" lon="6.50201">
        <ele>2254.4</ele>
        <time>2024-08-11T10:59:15Z</time>
      </trkpt>
      <trkpt lat="44.94532" lon="6.50201">
        <ele>2254.4</ele>
        <time>2024-08-11T10:59:16Z</time>
      </trkpt>
      <trkpt lat="44.94532" lon="6.50201">
        <ele>2254.4</ele>
        <time>2024-08-11T10:59:17Z</time>
      </trkpt>
      <trkpt lat="44.94532" lon="6.50201">
        <ele>2254.2</ele>
        <time>2024-08-11T10:59:18Z</time>
      </trkpt>
      <trkpt lat="44.94532" lon="6.50201">
        <ele>2254.2</ele>
        <time>2024-08-11T10:59:19Z</time>
      </trkpt>
      <trkpt lat="44.94532" lon="6.50201">
        <ele>2254.4</ele>
        <time>2024-08-11T10:59:20Z</time>
      </trkpt>
      <trkpt lat="44.94532" lon="6.50201">
        <ele>2254.4</ele>
        <time>2024-08-11T10:59:21Z</time>
      </trkpt>
      <trkpt lat="44.94532" lon="6.50201">
        <ele>2254.4</ele>
        <time>2024-08-11T10:59:22Z</time>
      </trkpt>
      <trkpt lat="44.94532" lon="6.50201">
        <ele>2254.2</ele>
        <time>2024-08-11T10:59:23Z</time>
      </trkpt>
      <trkpt lat="44.94532" lon="6.50201">
        <ele>2254.2</ele>
        <time>2024-08-11T10:59:24Z</time>
      </trkpt>
      <trkpt lat="44.94532" lon="6.50201">
        <ele>2254.2</ele>
        <time>2024-08-11T10:59:25Z</time>
      </trkpt>
      <trkpt lat="44.94532" lon="6.50201">
        <ele>2254.2</ele>
        <time>2024-08-11T10:59:26Z</time>
      </trkpt>
      <trkpt lat="44.94532" lon="6.50201">
        <ele>2254.2</ele>
        <time>2024-08-11T10:59:27Z</time>
      </trkpt>
      <trkpt lat="44.94532" lon="6.50201">
        <ele>2254.2</ele>
        <time>2024-08-11T10:59:28Z</time>
      </trkpt>
      <trkpt lat="44.94532" lon="6.50201">
        <ele>2254.2</ele>
        <time>2024-08-11T10:59:29Z</time>
      </trkpt>
      <trkpt lat="44.94532" lon="6.50201">
        <ele>2254.4</ele>
        <time>2024-08-11T10:59:30Z</time>
      </trkpt>
      <trkpt lat="44.94532" lon="6.50201">
        <ele>2254.4</ele>
        <time>2024-08-11T10:59:31Z</time>
      </trkpt>
      <trkpt lat="44.94532" lon="6.50201">
        <ele>2254.4</ele>
        <time>2024-08-11T10:59:32Z</time>
      </trkpt>
      <trkpt lat="44.94532" lon="6.50201">
        <ele>2254.4</ele>
        <time>2024-08-11T10:59:33Z</time>
      </trkpt>
      <trkpt lat="44.94532" lon="6.50201">
        <ele>2254.4</ele>
        <time>2024-08-11T10:59:34Z</time>
      </trkpt>
      <trkpt lat="44.94532" lon="6.50201">
        <ele>2254.2</ele>
        <time>2024-08-11T10:59:35Z</time>
      </trkpt>
      <trkpt lat="44.94532" lon="6.50201">
        <ele>2254.2</ele>
        <time>2024-08-11T10:59:36Z</time>
      </trkpt>
      <trkpt lat="44.94532" lon="6.50201">
        <ele>2254.2</ele>
        <time>2024-08-11T10:59:37Z</time>
      </trkpt>
      <trkpt lat="44.94532" lon="6.50201">
        <ele>2254.2</ele>
        <time>2024-08-11T10:59:38Z</time>
      </trkpt>
      <trkpt lat="44.94532" lon="6.50201">
        <ele>2254.2</ele>
        <time>2024-08-11T10:59:39Z</time>
      </trkpt>
      <trkpt lat="44.94532" lon="6.50201">
        <ele>2254.4</ele>
        <time>2024-08-11T10:59:40Z</time>
      </trkpt>
      <trkpt lat="44.94532" lon="6.50201">
        <ele>2254.8</ele>
        <time>2024-08-11T10:59:41Z</time>
      </trkpt>
      <trkpt lat="44.94532" lon="6.50201">
        <ele>2254.8</ele>
        <time>2024-08-11T10:59:42Z</time>
      </trkpt>
      <trkpt lat="44.94532" lon="6.50201">
        <ele>2254.8</ele>
        <time>2024-08-11T10:59:43Z</time>
      </trkpt>
      <trkpt lat="44.94532" lon="6.50201">
        <ele>2254.8</ele>
        <time>2024-08-11T10:59:44Z</time>
      </trkpt>
      <trkpt lat="44.94532" lon="6.50201">
        <ele>2254.6</ele>
        <time>2024-08-11T10:59:45Z</time>
      </trkpt>
      <trkpt lat="44.94532" lon="6.50201">
        <ele>2254.6</ele>
        <time>2024-08-11T10:59:46Z</time>
      </trkpt>
      <trkpt lat="44.94532" lon="6.50201">
        <ele>2254.6</ele>
        <time>2024-08-11T10:59:47Z</time>
      </trkpt>
      <trkpt lat="44.94532" lon="6.50201">
        <ele>2254.2</ele>
        <time>2024-08-11T10:59:48Z</time>
      </trkpt>
      <trkpt lat="44.94532" lon="6.50201">
        <ele>2254.2</ele>
        <time>2024-08-11T10:59:49Z</time>
      </trkpt>
      <trkpt lat="44.94532" lon="6.50201">
        <ele>2254.2</ele>
        <time>2024-08-11T10:59:50Z</time>
      </trkpt>
      <trkpt lat="44.94532" lon="6.50201">
        <ele>2254.2</ele>
        <time>2024-08-11T10:59:51Z</time>
      </trkpt>
      <trkpt lat="44.94532" lon="6.50201">
        <ele>2254.2</ele>
        <time>2024-08-11T10:59:52Z</time>
      </trkpt>
      <trkpt lat="44.94532" lon="6.50201">
        <ele>2254.2</ele>
        <time>2024-08-11T10:59:53Z</time>
      </trkpt>
      <trkpt lat="44.94532" lon="6.50201">
        <ele>2254.2</ele>
        <time>2024-08-11T10:59:54Z</time>
      </trkpt>
      <trkpt lat="44.94532" lon="6.50201">
        <ele>2254.2</ele>
        <time>2024-08-11T10:59:55Z</time>
      </trkpt>
      <trkpt lat="44.94532" lon="6.50201">
        <ele>2254.2</ele>
        <time>2024-08-11T10:59:56Z</time>
      </trkpt>
      <trkpt lat="44.94532" lon="6.50201">
        <ele>2254.2</ele>
        <time>2024-08-11T10:59:57Z</time>
      </trkpt>
      <trkpt lat="44.94532" lon="6.50201">
        <ele>2254.2</ele>
        <time>2024-08-11T10:59:58Z</time>
      </trkpt>
      <trkpt lat="44.94532" lon="6.50201">
        <ele>2254.2</ele>
        <time>2024-08-11T10:59:59Z</time>
      </trkpt>
      <trkpt lat="44.94532" lon="6.50201">
        <ele>2254.2</ele>
        <time>2024-08-11T11:00:00Z</time>
      </trkpt>
      <trkpt lat="44.94532" lon="6.50201">
        <ele>2254.2</ele>
        <time>2024-08-11T11:00:01Z</time>
      </trkpt>
      <trkpt lat="44.94532" lon="6.50201">
        <ele>2254.6</ele>
        <time>2024-08-11T11:00:02Z</time>
      </trkpt>
      <trkpt lat="44.94532" lon="6.50201">
        <ele>2254.6</ele>
        <time>2024-08-11T11:00:03Z</time>
      </trkpt>
      <trkpt lat="44.94532" lon="6.50201">
        <ele>2254.6</ele>
        <time>2024-08-11T11:00:04Z</time>
      </trkpt>
      <trkpt lat="44.94532" lon="6.50201">
        <ele>2254.6</ele>
        <time>2024-08-11T11:00:05Z</time>
      </trkpt>
      <trkpt lat="44.94532" lon="6.50201">
        <ele>2254.4</ele>
        <time>2024-08-11T11:00:06Z</time>
      </trkpt>
      <trkpt lat="44.94532" lon="6.50201">
        <ele>2254.4</ele>
        <time>2024-08-11T11:00:07Z</time>
      </trkpt>
      <trkpt lat="44.94532" lon="6.50201">
        <ele>2254.4</ele>
        <time>2024-08-11T11:00:08Z</time>
      </trkpt>
      <trkpt lat="44.94532" lon="6.50201">
        <ele>2254.4</ele>
        <time>2024-08-11T11:00:09Z</time>
      </trkpt>
      <trkpt lat="44.94532" lon="6.50201">
        <ele>2254.4</ele>
        <time>2024-08-11T11:00:10Z</time>
      </trkpt>
      <trkpt lat="44.94532" lon="6.50201">
        <ele>2254.2</ele>
        <time>2024-08-11T11:00:11Z</time>
      </trkpt>
      <trkpt lat="44.94532" lon="6.50201">
        <ele>2254.4</ele>
        <time>2024-08-11T11:00:12Z</time>
      </trkpt>
      <trkpt lat="44.94532" lon="6.50201">
        <ele>2254.4</ele>
        <time>2024-08-11T11:00:13Z</time>
      </trkpt>
      <trkpt lat="44.94532" lon="6.50201">
        <ele>2254.4</ele>
        <time>2024-08-11T11:00:14Z</time>
      </trkpt>
      <trkpt lat="44.94532" lon="6.50201">
        <ele>2254.4</ele>
        <time>2024-08-11T11:00:15Z</time>
      </trkpt>
      <trkpt lat="44.94532" lon="6.50201">
        <ele>2254.2</ele>
        <time>2024-08-11T11:00:16Z</time>
      </trkpt>
      <trkpt lat="44.94532" lon="6.50201">
        <ele>2254.2</ele>
        <time>2024-08-11T11:00:17Z</time>
      </trkpt>
      <trkpt lat="44.94532" lon="6.50201">
        <ele>2254.2</ele>
        <time>2024-08-11T11:00:18Z</time>
      </trkpt>
      <trkpt lat="44.94532" lon="6.50201">
        <ele>2254.2</ele>
        <time>2024-08-11T11:00:19Z</time>
      </trkpt>
      <trkpt lat="44.94532" lon="6.50201">
        <ele>2254.2</ele>
        <time>2024-08-11T11:00:20Z</time>
      </trkpt>
      <trkpt lat="44.94532" lon="6.50201">
        <ele>2254.4</ele>
        <time>2024-08-11T11:00:21Z</time>
      </trkpt>
      <trkpt lat="44.94532" lon="6.50201">
        <ele>2254.4</ele>
        <time>2024-08-11T11:00:22Z</time>
      </trkpt>
      <trkpt lat="44.94532" lon="6.50201">
        <ele>2254.4</ele>
        <time>2024-08-11T11:00:23Z</time>
      </trkpt>
      <trkpt lat="44.94532" lon="6.50201">
        <ele>2254.4</ele>
        <time>2024-08-11T11:00:24Z</time>
      </trkpt>
      <trkpt lat="44.94532" lon="6.50201">
        <ele>2254.2</ele>
        <time>2024-08-11T11:00:25Z</time>
      </trkpt>
      <trkpt lat="44.94532" lon="6.50201">
        <ele>2254.2</ele>
        <time>2024-08-11T11:00:26Z</time>
      </trkpt>
      <trkpt lat="44.94532" lon="6.50201">
        <ele>2254.4</ele>
        <time>2024-08-11T11:00:27Z</time>
      </trkpt>
      <trkpt lat="44.94532" lon="6.50201">
        <ele>2254.4</ele>
        <time>2024-08-11T11:00:28Z</time>
      </trkpt>
      <trkpt lat="44.94532" lon="6.50201">
        <ele>2254.4</ele>
        <time>2024-08-11T11:00:29Z</time>
      </trkpt>
      <trkpt lat="44.94532" lon="6.50201">
        <ele>2254.4</ele>
        <time>2024-08-11T11:00:30Z</time>
      </trkpt>
      <trkpt lat="44.94532" lon="6.50201">
        <ele>2254.2</ele>
        <time>2024-08-11T11:00:31Z</time>
      </trkpt>
      <trkpt lat="44.94532" lon="6.50201">
        <ele>2254.2</ele>
        <time>2024-08-11T11:00:32Z</time>
      </trkpt>
      <trkpt lat="44.94532" lon="6.50201">
        <ele>2254</ele>
        <time>2024-08-11T11:00:33Z</time>
      </trkpt>
      <trkpt lat="44.94532" lon="6.50201">
        <ele>2254</ele>
        <time>2024-08-11T11:00:34Z</time>
      </trkpt>
      <trkpt lat="44.94532" lon="6.50201">
        <ele>2254</ele>
        <time>2024-08-11T11:00:35Z</time>
      </trkpt>
      <trkpt lat="44.94532" lon="6.50201">
        <ele>2254</ele>
        <time>2024-08-11T11:00:36Z</time>
      </trkpt>
      <trkpt lat="44.94532" lon="6.50201">
        <ele>2254</ele>
        <time>2024-08-11T11:00:37Z</time>
      </trkpt>
      <trkpt lat="44.94532" lon="6.50201">
        <ele>2254</ele>
        <time>2024-08-11T11:00:38Z</time>
      </trkpt>
      <trkpt lat="44.94532" lon="6.50201">
        <ele>2254.4</ele>
        <time>2024-08-11T11:00:39Z</time>
      </trkpt>
      <trkpt lat="44.94532" lon="6.50201">
        <ele>2254.4</ele>
        <time>2024-08-11T11:00:40Z</time>
      </trkpt>
      <trkpt lat="44.94532" lon="6.50201">
        <ele>2254</ele>
        <time>2024-08-11T11:00:41Z</time>
      </trkpt>
      <trkpt lat="44.94532" lon="6.50201">
        <ele>2254.2</ele>
        <time>2024-08-11T11:00:42Z</time>
      </trkpt>
      <trkpt lat="44.94532" lon="6.50201">
        <ele>2254.4</ele>
        <time>2024-08-11T11:00:43Z</time>
      </trkpt>
      <trkpt lat="44.94532" lon="6.50201">
        <ele>2254.4</ele>
        <time>2024-08-11T11:00:44Z</time>
      </trkpt>
      <trkpt lat="44.94532" lon="6.50201">
        <ele>2254.2</ele>
        <time>2024-08-11T11:00:45Z</time>
      </trkpt>
      <trkpt lat="44.94532" lon="6.50201">
        <ele>2254.2</ele>
        <time>2024-08-11T11:00:46Z</time>
      </trkpt>
      <trkpt lat="44.94532" lon="6.50201">
        <ele>2254.2</ele>
        <time>2024-08-11T11:00:47Z</time>
      </trkpt>
      <trkpt lat="44.94532" lon="6.50201">
        <ele>2254.2</ele>
        <time>2024-08-11T11:00:48Z</time>
      </trkpt>
      <trkpt lat="44.94532" lon="6.50201">
        <ele>2254.2</ele>
        <time>2024-08-11T11:00:49Z</time>
      </trkpt>
      <trkpt lat="44.94532" lon="6.50201">
        <ele>2254.2</ele>
        <time>2024-08-11T11:00:50Z</time>
      </trkpt>
      <trkpt lat="44.94532" lon="6.50201">
        <ele>2254.2</ele>
        <time>2024-08-11T11:00:51Z</time>
      </trkpt>
      <trkpt lat="44.94532" lon="6.50201">
        <ele>2254.2</ele>
        <time>2024-08-11T11:00:52Z</time>
      </trkpt>
      <trkpt lat="44.94532" lon="6.50201">
        <ele>2254.4</ele>
        <time>2024-08-11T11:00:53Z</time>
      </trkpt>
      <trkpt lat="44.94532" lon="6.50201">
        <ele>2254.4</ele>
        <time>2024-08-11T11:00:54Z</time>
      </trkpt>
      <trkpt lat="44.94532" lon="6.50201">
        <ele>2254</ele>
        <time>2024-08-11T11:00:55Z</time>
      </trkpt>
      <trkpt lat="44.94532" lon="6.50201">
        <ele>2254</ele>
        <time>2024-08-11T11:00:56Z</time>
      </trkpt>
      <trkpt lat="44.94532" lon="6.50201">
        <ele>2254</ele>
        <time>2024-08-11T11:00:57Z</time>
      </trkpt>
      <trkpt lat="44.94532" lon="6.50201">
        <ele>2254</ele>
        <time>2024-08-11T11:00:58Z</time>
      </trkpt>
      <trkpt lat="44.94532" lon="6.50201">
        <ele>2253.8</ele>
        <time>2024-08-11T11:00:59Z</time>
      </trkpt>
      <trkpt lat="44.94532" lon="6.50201">
        <ele>2253.8</ele>
        <time>2024-08-11T11:01:00Z</time>
      </trkpt>
      <trkpt lat="44.94532" lon="6.50201">
        <ele>2253.8</ele>
        <time>2024-08-11T11:01:01Z</time>
      </trkpt>
      <trkpt lat="44.94532" lon="6.50201">
        <ele>2254</ele>
        <time>2024-08-11T11:01:02Z</time>
      </trkpt>
      <trkpt lat="44.94532" lon="6.50201">
        <ele>2254</ele>
        <time>2024-08-11T11:01:03Z</time>
      </trkpt>
      <trkpt lat="44.94532" lon="6.50201">
        <ele>2254</ele>
        <time>2024-08-11T11:01:04Z</time>
      </trkpt>
      <trkpt lat="44.94532" lon="6.50201">
        <ele>2254</ele>
        <time>2024-08-11T11:01:05Z</time>
      </trkpt>
      <trkpt lat="44.94532" lon="6.50201">
        <ele>2254</ele>
        <time>2024-08-11T11:01:06Z</time>
      </trkpt>
      <trkpt lat="44.94532" lon="6.50201">
        <ele>2254</ele>
        <time>2024-08-11T11:01:07Z</time>
      </trkpt>
      <trkpt lat="44.94532" lon="6.50201">
        <ele>2254</ele>
        <time>2024-08-11T11:01:08Z</time>
      </trkpt>
      <trkpt lat="44.94532" lon="6.50201">
        <ele>2254</ele>
        <time>2024-08-11T11:01:09Z</time>
      </trkpt>
      <trkpt lat="44.94532" lon="6.50201">
        <ele>2254</ele>
        <time>2024-08-11T11:01:10Z</time>
      </trkpt>
      <trkpt lat="44.94532" lon="6.50201">
        <ele>2254.4</ele>
        <time>2024-08-11T11:01:11Z</time>
      </trkpt>
      <trkpt lat="44.94532" lon="6.50201">
        <ele>2254.4</ele>
        <time>2024-08-11T11:01:12Z</time>
      </trkpt>
      <trkpt lat="44.94532" lon="6.50201">
        <ele>2254.2</ele>
        <time>2024-08-11T11:01:13Z</time>
      </trkpt>
      <trkpt lat="44.94532" lon="6.50201">
        <ele>2254</ele>
        <time>2024-08-11T11:01:14Z</time>
      </trkpt>
      <trkpt lat="44.94532" lon="6.50201">
        <ele>2254</ele>
        <time>2024-08-11T11:01:15Z</time>
      </trkpt>
      <trkpt lat="44.94532" lon="6.50201">
        <ele>2254</ele>
        <time>2024-08-11T11:01:16Z</time>
      </trkpt>
      <trkpt lat="44.94532" lon="6.50201">
        <ele>2254.2</ele>
        <time>2024-08-11T11:01:17Z</time>
      </trkpt>
      <trkpt lat="44.94532" lon="6.50201">
        <ele>2254.2</ele>
        <time>2024-08-11T11:01:18Z</time>
      </trkpt>
      <trkpt lat="44.94532" lon="6.50201">
        <ele>2254</ele>
        <time>2024-08-11T11:01:19Z</time>
      </trkpt>
      <trkpt lat="44.94532" lon="6.50201">
        <ele>2254</ele>
        <time>2024-08-11T11:01:20Z</time>
      </trkpt>
      <trkpt lat="44.94532" lon="6.50201">
        <ele>2254</ele>
        <time>2024-08-11T11:01:21Z</time>
      </trkpt>
      <trkpt lat="44.94532" lon="6.50201">
        <ele>2254</ele>
        <time>2024-08-11T11:01:22Z</time>
      </trkpt>
      <trkpt lat="44.94532" lon="6.50201">
        <ele>2254</ele>
        <time>2024-08-11T11:01:23Z</time>
      </trkpt>
      <trkpt lat="44.94532" lon="6.50201">
        <ele>2253.8</ele>
        <time>2024-08-11T11:01:24Z</time>
      </trkpt>
      <trkpt lat="44.94532" lon="6.50201">
        <ele>2253.8</ele>
        <time>2024-08-11T11:01:25Z</time>
      </trkpt>
      <trkpt lat="44.94532" lon="6.50201">
        <ele>2253.8</ele>
        <time>2024-08-11T11:01:26Z</time>
      </trkpt>
      <trkpt lat="44.94532" lon="6.50201">
        <ele>2253.8</ele>
        <time>2024-08-11T11:01:27Z</time>
      </trkpt>
      <trkpt lat="44.94532" lon="6.50201">
        <ele>2254</ele>
        <time>2024-08-11T11:01:28Z</time>
      </trkpt>
      <trkpt lat="44.94532" lon="6.50201">
        <ele>2254.2</ele>
        <time>2024-08-11T11:01:29Z</time>
      </trkpt>
      <trkpt lat="44.94532" lon="6.50201">
        <ele>2254.2</ele>
        <time>2024-08-11T11:01:30Z</time>
      </trkpt>
      <trkpt lat="44.94532" lon="6.50201">
        <ele>2254.4</ele>
        <time>2024-08-11T11:01:31Z</time>
      </trkpt>
      <trkpt lat="44.94532" lon="6.50201">
        <ele>2254.6</ele>
        <time>2024-08-11T11:01:32Z</time>
      </trkpt>
      <trkpt lat="44.94532" lon="6.50201">
        <ele>2254.6</ele>
        <time>2024-08-11T11:01:33Z</time>
      </trkpt>
      <trkpt lat="44.94532" lon="6.50201">
        <ele>2254.6</ele>
        <time>2024-08-11T11:01:34Z</time>
      </trkpt>
      <trkpt lat="44.94532" lon="6.50201">
        <ele>2254.6</ele>
        <time>2024-08-11T11:01:35Z</time>
      </trkpt>
      <trkpt lat="44.94532" lon="6.50201">
        <ele>2254.6</ele>
        <time>2024-08-11T11:01:36Z</time>
      </trkpt>
      <trkpt lat="44.94532" lon="6.50201">
        <ele>2254.6</ele>
        <time>2024-08-11T11:01:37Z</time>
      </trkpt>
      <trkpt lat="44.94532" lon="6.50201">
        <ele>2254.4</ele>
        <time>2024-08-11T11:01:38Z</time>
      </trkpt>
      <trkpt lat="44.94532" lon="6.50201">
        <ele>2254.2</ele>
        <time>2024-08-11T11:01:39Z</time>
      </trkpt>
      <trkpt lat="44.94532" lon="6.50201">
        <ele>2254.2</ele>
        <time>2024-08-11T11:01:40Z</time>
      </trkpt>
      <trkpt lat="44.94532" lon="6.50201">
        <ele>2254.4</ele>
        <time>2024-08-11T11:01:41Z</time>
      </trkpt>
      <trkpt lat="44.94532" lon="6.50201">
        <ele>2254.4</ele>
        <time>2024-08-11T11:01:42Z</time>
      </trkpt>
      <trkpt lat="44.94532" lon="6.50201">
        <ele>2254.2</ele>
        <time>2024-08-11T11:01:43Z</time>
      </trkpt>
      <trkpt lat="44.94532" lon="6.50201">
        <ele>2254.2</ele>
        <time>2024-08-11T11:01:44Z</time>
      </trkpt>
      <trkpt lat="44.94532" lon="6.50201">
        <ele>2254.2</ele>
        <time>2024-08-11T11:01:45Z</time>
      </trkpt>
      <trkpt lat="44.94532" lon="6.50201">
        <ele>2254.2</ele>
        <time>2024-08-11T11:01:46Z</time>
      </trkpt>
      <trkpt lat="44.94532" lon="6.50201">
        <ele>2254.2</ele>
        <time>2024-08-11T11:01:47Z</time>
      </trkpt>
      <trkpt lat="44.94532" lon="6.50201">
        <ele>2254.2</ele>
        <time>2024-08-11T11:01:48Z</time>
      </trkpt>
      <trkpt lat="44.94532" lon="6.50201">
        <ele>2254.4</ele>
        <time>2024-08-11T11:01:49Z</time>
      </trkpt>
      <trkpt lat="44.94532" lon="6.50201">
        <ele>2254.4</ele>
        <time>2024-08-11T11:01:50Z</time>
      </trkpt>
      <trkpt lat="44.94532" lon="6.50201">
        <ele>2254.4</ele>
        <time>2024-08-11T11:01:51Z</time>
      </trkpt>
      <trkpt lat="44.94532" lon="6.50201">
        <ele>2254.4</ele>
        <time>2024-08-11T11:01:52Z</time>
      </trkpt>
      <trkpt lat="44.94532" lon="6.50201">
        <ele>2254.2</ele>
        <time>2024-08-11T11:01:53Z</time>
      </trkpt>
      <trkpt lat="44.94532" lon="6.50201">
        <ele>2254.2</ele>
        <time>2024-08-11T11:01:54Z</time>
      </trkpt>
      <trkpt lat="44.94532" lon="6.50201">
        <ele>2254.4</ele>
        <time>2024-08-11T11:01:55Z</time>
      </trkpt>
      <trkpt lat="44.94532" lon="6.50201">
        <ele>2254.8</ele>
        <time>2024-08-11T11:01:56Z</time>
      </trkpt>
      <trkpt lat="44.94532" lon="6.50201">
        <ele>2254.8</ele>
        <time>2024-08-11T11:01:57Z</time>
      </trkpt>
      <trkpt lat="44.94532" lon="6.50201">
        <ele>2254.4</ele>
        <time>2024-08-11T11:01:58Z</time>
      </trkpt>
      <trkpt lat="44.94532" lon="6.50201">
        <ele>2254.4</ele>
        <time>2024-08-11T11:01:59Z</time>
      </trkpt>
      <trkpt lat="44.94532" lon="6.50201">
        <ele>2254.4</ele>
        <time>2024-08-11T11:02:00Z</time>
      </trkpt>
      <trkpt lat="44.94532" lon="6.50201">
        <ele>2254.4</ele>
        <time>2024-08-11T11:02:01Z</time>
      </trkpt>
      <trkpt lat="44.94532" lon="6.50201">
        <ele>2254.2</ele>
        <time>2024-08-11T11:02:02Z</time>
      </trkpt>
      <trkpt lat="44.94532" lon="6.50201">
        <ele>2254.2</ele>
        <time>2024-08-11T11:02:03Z</time>
      </trkpt>
      <trkpt lat="44.94532" lon="6.50201">
        <ele>2254.2</ele>
        <time>2024-08-11T11:02:04Z</time>
      </trkpt>
      <trkpt lat="44.94532" lon="6.50201">
        <ele>2254.2</ele>
        <time>2024-08-11T11:02:05Z</time>
      </trkpt>
      <trkpt lat="44.94532" lon="6.50201">
        <ele>2254.2</ele>
        <time>2024-08-11T11:02:06Z</time>
      </trkpt>
      <trkpt lat="44.94532" lon="6.50201">
        <ele>2254.4</ele>
        <time>2024-08-11T11:02:07Z</time>
      </trkpt>
      <trkpt lat="44.94532" lon="6.50201">
        <ele>2254.4</ele>
        <time>2024-08-11T11:02:08Z</time>
      </trkpt>
      <trkpt lat="44.94532" lon="6.50201">
        <ele>2254.4</ele>
        <time>2024-08-11T11:02:09Z</time>
      </trkpt>
      <trkpt lat="44.94532" lon="6.50201">
        <ele>2254.4</ele>
        <time>2024-08-11T11:02:10Z</time>
      </trkpt>
      <trkpt lat="44.94532" lon="6.50201">
        <ele>2254.4</ele>
        <time>2024-08-11T11:02:11Z</time>
      </trkpt>
      <trkpt lat="44.94532" lon="6.50201">
        <ele>2254.2</ele>
        <time>2024-08-11T11:02:12Z</time>
      </trkpt>
      <trkpt lat="44.94532" lon="6.50201">
        <ele>2254.2</ele>
        <time>2024-08-11T11:02:13Z</time>
      </trkpt>
      <trkpt lat="44.94532" lon="6.50201">
        <ele>2254.2</ele>
        <time>2024-08-11T11:02:14Z</time>
      </trkpt>
      <trkpt lat="44.94532" lon="6.50201">
        <ele>2254.2</ele>
        <time>2024-08-11T11:02:15Z</time>
      </trkpt>
      <trkpt lat="44.94532" lon="6.50201">
        <ele>2254.4</ele>
        <time>2024-08-11T11:02:16Z</time>
      </trkpt>
      <trkpt lat="44.94532" lon="6.50201">
        <ele>2254.4</ele>
        <time>2024-08-11T11:02:17Z</time>
      </trkpt>
      <trkpt lat="44.94532" lon="6.50201">
        <ele>2254.4</ele>
        <time>2024-08-11T11:02:18Z</time>
      </trkpt>
      <trkpt lat="44.94532" lon="6.50201">
        <ele>2254.6</ele>
        <time>2024-08-11T11:02:19Z</time>
      </trkpt>
      <trkpt lat="44.94532" lon="6.50201">
        <ele>2254.6</ele>
        <time>2024-08-11T11:02:20Z</time>
      </trkpt>
      <trkpt lat="44.94532" lon="6.50201">
        <ele>2254.6</ele>
        <time>2024-08-11T11:02:21Z</time>
      </trkpt>
      <trkpt lat="44.94532" lon="6.50201">
        <ele>2254.6</ele>
        <time>2024-08-11T11:02:22Z</time>
      </trkpt>
      <trkpt lat="44.94532" lon="6.50201">
        <ele>2254.4</ele>
        <time>2024-08-11T11:02:23Z</time>
      </trkpt>
      <trkpt lat="44.94532" lon="6.50201">
        <ele>2254.2</ele>
        <time>2024-08-11T11:02:24Z</time>
      </trkpt>
      <trkpt lat="44.94532" lon="6.50201">
        <ele>2254.2</ele>
        <time>2024-08-11T11:02:25Z</time>
      </trkpt>
      <trkpt lat="44.94532" lon="6.50201">
        <ele>2254.6</ele>
        <time>2024-08-11T11:02:26Z</time>
      </trkpt>
      <trkpt lat="44.94532" lon="6.50201">
        <ele>2254.6</ele>
        <time>2024-08-11T11:02:27Z</time>
      </trkpt>
      <trkpt lat="44.94532" lon="6.50201">
        <ele>2254.8</ele>
        <time>2024-08-11T11:02:28Z</time>
      </trkpt>
      <trkpt lat="44.94532" lon="6.50201">
        <ele>2254.8</ele>
        <time>2024-08-11T11:02:29Z</time>
      </trkpt>
      <trkpt lat="44.94532" lon="6.50201">
        <ele>2254.8</ele>
        <time>2024-08-11T11:02:30Z</time>
      </trkpt>
      <trkpt lat="44.94532" lon="6.50201">
        <ele>2254.8</ele>
        <time>2024-08-11T11:02:31Z</time>
      </trkpt>
      <trkpt lat="44.94532" lon="6.50201">
        <ele>2254.8</ele>
        <time>2024-08-11T11:02:32Z</time>
      </trkpt>
      <trkpt lat="44.94532" lon="6.50201">
        <ele>2254.6</ele>
        <time>2024-08-11T11:02:33Z</time>
      </trkpt>
      <trkpt lat="44.94532" lon="6.50201">
        <ele>2254.6</ele>
        <time>2024-08-11T11:02:34Z</time>
      </trkpt>
      <trkpt lat="44.94532" lon="6.50201">
        <ele>2254.6</ele>
        <time>2024-08-11T11:02:35Z</time>
      </trkpt>
      <trkpt lat="44.94532" lon="6.50201">
        <ele>2254.6</ele>
        <time>2024-08-11T11:02:36Z</time>
      </trkpt>
      <trkpt lat="44.94532" lon="6.50201">
        <ele>2254.6</ele>
        <time>2024-08-11T11:02:37Z</time>
      </trkpt>
      <trkpt lat="44.94532" lon="6.50201">
        <ele>2254.4</ele>
        <time>2024-08-11T11:02:38Z</time>
      </trkpt>
      <trkpt lat="44.94532" lon="6.50201">
        <ele>2254.4</ele>
        <time>2024-08-11T11:02:39Z</time>
      </trkpt>
      <trkpt lat="44.94532" lon="6.50201">
        <ele>2254.6</ele>
        <time>2024-08-11T11:02:40Z</time>
      </trkpt>
      <trkpt lat="44.94532" lon="6.50201">
        <ele>2255.2</ele>
        <time>2024-08-11T11:02:41Z</time>
      </trkpt>
      <trkpt lat="44.94532" lon="6.50201">
        <ele>2255.4</ele>
        <time>2024-08-11T11:02:42Z</time>
      </trkpt>
      <trkpt lat="44.94532" lon="6.50201">
        <ele>2255.6</ele>
        <time>2024-08-11T11:04:03Z</time>
      </trkpt>
      <trkpt lat="44.94532" lon="6.50201">
        <ele>2255.6</ele>
        <time>2024-08-11T11:04:04Z</time>
      </trkpt>
      <trkpt lat="44.94532" lon="6.50201">
        <ele>2255.4</ele>
        <time>2024-08-11T11:04:05Z</time>
      </trkpt>
      <trkpt lat="44.94532" lon="6.50201">
        <ele>2255.2</ele>
        <time>2024-08-11T11:04:06Z</time>
      </trkpt>
      <trkpt lat="44.94532" lon="6.50201">
        <ele>2255.2</ele>
        <time>2024-08-11T11:04:07Z</time>
      </trkpt>
      <trkpt lat="44.94532" lon="6.50201">
        <ele>2255.2</ele>
        <time>2024-08-11T11:04:08Z</time>
      </trkpt>
      <trkpt lat="44.94532" lon="6.50201">
        <ele>2255.2</ele>
        <time>2024-08-11T11:04:09Z</time>
      </trkpt>
      <trkpt lat="44.94532" lon="6.50201">
        <ele>2255.2</ele>
        <time>2024-08-11T11:04:10Z</time>
      </trkpt>
      <trkpt lat="44.94532" lon="6.50201">
        <ele>2255.4</ele>
        <time>2024-08-11T11:04:11Z</time>
      </trkpt>
      <trkpt lat="44.94532" lon="6.50201">
        <ele>2255.4</ele>
        <time>2024-08-11T11:04:12Z</time>
      </trkpt>
      <trkpt lat="44.94509" lon="6.50186">
        <ele>2255.4</ele>
        <time>2024-08-11T11:04:13Z</time>
      </trkpt>
      <trkpt lat="44.94509" lon="6.50186">
        <ele>2255.2</ele>
        <time>2024-08-11T11:04:14Z</time>
      </trkpt>
      <trkpt lat="44.94509" lon="6.50186">
        <ele>2254.6</ele>
        <time>2024-08-11T11:04:15Z</time>
      </trkpt>
      <trkpt lat="44.94507" lon="6.50186">
        <ele>2254.6</ele>
        <time>2024-08-11T11:04:16Z</time>
      </trkpt>
      <trkpt lat="44.94507" lon="6.50186">
        <ele>2254.6</ele>
        <time>2024-08-11T11:04:17Z</time>
      </trkpt>
      <trkpt lat="44.94503" lon="6.50186">
        <ele>2254.6</ele>
        <time>2024-08-11T11:04:18Z</time>
      </trkpt>
      <trkpt lat="44.94503" lon="6.50186">
        <ele>2255.2</ele>
        <time>2024-08-11T11:04:19Z</time>
      </trkpt>
      <trkpt lat="44.94501" lon="6.50186">
        <ele>2255.4</ele>
        <time>2024-08-11T11:04:20Z</time>
      </trkpt>
      <trkpt lat="44.94501" lon="6.50186">
        <ele>2255.4</ele>
        <time>2024-08-11T11:04:21Z</time>
      </trkpt>
      <trkpt lat="44.94499" lon="6.50186">
        <ele>2255.8</ele>
        <time>2024-08-11T11:04:22Z</time>
      </trkpt>
      <trkpt lat="44.94499" lon="6.50186">
        <ele>2256</ele>
        <time>2024-08-11T11:04:23Z</time>
      </trkpt>
      <trkpt lat="44.94497" lon="6.50186">
        <ele>2256</ele>
        <time>2024-08-11T11:04:24Z</time>
      </trkpt>
      <trkpt lat="44.94497" lon="6.50186">
        <ele>2256.2</ele>
        <time>2024-08-11T11:04:25Z</time>
      </trkpt>
      <trkpt lat="44.94495" lon="6.50185">
        <ele>2256.2</ele>
        <time>2024-08-11T11:04:26Z</time>
      </trkpt>
      <trkpt lat="44.94495" lon="6.50185">
        <ele>2256.2</ele>
        <time>2024-08-11T11:04:27Z</time>
      </trkpt>
      <trkpt lat="44.94493" lon="6.50185">
        <ele>2256.2</ele>
        <time>2024-08-11T11:04:28Z</time>
      </trkpt>
      <trkpt lat="44.94493" lon="6.50185">
        <ele>2256.4</ele>
        <time>2024-08-11T11:04:29Z</time>
      </trkpt>
      <trkpt lat="44.94491" lon="6.50185">
        <ele>2256.6</ele>
        <time>2024-08-11T11:04:30Z</time>
      </trkpt>
      <trkpt lat="44.94491" lon="6.50185">
        <ele>2256.6</ele>
        <time>2024-08-11T11:04:31Z</time>
      </trkpt>
      <trkpt lat="44.94489" lon="6.50185">
        <ele>2256.8</ele>
        <time>2024-08-11T11:04:32Z</time>
      </trkpt>
      <trkpt lat="44.94489" lon="6.50185">
        <ele>2257.4</ele>
        <time>2024-08-11T11:04:33Z</time>
      </trkpt>
      <trkpt lat="44.94487" lon="6.50185">
        <ele>2257.4</ele>
        <time>2024-08-11T11:04:34Z</time>
      </trkpt>
      <trkpt lat="44.94487" lon="6.50185">
        <ele>2257.4</ele>
        <time>2024-08-11T11:04:35Z</time>
      </trkpt>
      <trkpt lat="44.94485" lon="6.50184">
        <ele>2257.6</ele>
        <time>2024-08-11T11:04:36Z</time>
      </trkpt>
      <trkpt lat="44.94485" lon="6.50184">
        <ele>2257.6</ele>
        <time>2024-08-11T11:04:37Z</time>
      </trkpt>
      <trkpt lat="44.94483" lon="6.50184">
        <ele>2257.8</ele>
        <time>2024-08-11T11:04:38Z</time>
      </trkpt>
      <trkpt lat="44.94483" lon="6.50184">
        <ele>2258</ele>
        <time>2024-08-11T11:04:39Z</time>
      </trkpt>
      <trkpt lat="44.94483" lon="6.50184">
        <ele>2258.4</ele>
        <time>2024-08-11T11:04:40Z</time>
      </trkpt>
      <trkpt lat="44.94481" lon="6.50183">
        <ele>2258.4</ele>
        <time>2024-08-11T11:04:41Z</time>
      </trkpt>
      <trkpt lat="44.94481" lon="6.50183">
        <ele>2258.4</ele>
        <time>2024-08-11T11:04:42Z</time>
      </trkpt>
      <trkpt lat="44.94481" lon="6.50183">
        <ele>2258.4</ele>
        <time>2024-08-11T11:04:43Z</time>
      </trkpt>
      <trkpt lat="44.94478" lon="6.50183">
        <ele>2258.6</ele>
        <time>2024-08-11T11:04:44Z</time>
      </trkpt>
      <trkpt lat="44.94478" lon="6.50183">
        <ele>2258.8</ele>
        <time>2024-08-11T11:04:45Z</time>
      </trkpt>
      <trkpt lat="44.94476" lon="6.50183">
        <ele>2259</ele>
        <time>2024-08-11T11:04:46Z</time>
      </trkpt>
      <trkpt lat="44.94476" lon="6.50183">
        <ele>2259.2</ele>
        <time>2024-08-11T11:04:47Z</time>
      </trkpt>
      <trkpt lat="44.94476" lon="6.50183">
        <ele>2259.2</ele>
        <time>2024-08-11T11:04:48Z</time>
      </trkpt>
      <trkpt lat="44.94473" lon="6.50182">
        <ele>2259.2</ele>
        <time>2024-08-11T11:04:49Z</time>
      </trkpt>
      <trkpt lat="44.94473" lon="6.50182">
        <ele>2259.4</ele>
        <time>2024-08-11T11:04:50Z</time>
      </trkpt>
      <trkpt lat="44.94473" lon="6.50182">
        <ele>2259.6</ele>
        <time>2024-08-11T11:04:51Z</time>
      </trkpt>
      <trkpt lat="44.94471" lon="6.50181">
        <ele>2260</ele>
        <time>2024-08-11T11:04:52Z</time>
      </trkpt>
      <trkpt lat="44.94471" lon="6.50181">
        <ele>2260.2</ele>
        <time>2024-08-11T11:04:53Z</time>
      </trkpt>
      <trkpt lat="44.94471" lon="6.50181">
        <ele>2260.2</ele>
        <time>2024-08-11T11:04:54Z</time>
      </trkpt>
      <trkpt lat="44.94471" lon="6.50181">
        <ele>2260.2</ele>
        <time>2024-08-11T11:04:55Z</time>
      </trkpt>
      <trkpt lat="44.94471" lon="6.50181">
        <ele>2260.2</ele>
        <time>2024-08-11T11:04:56Z</time>
      </trkpt>
      <trkpt lat="44.94471" lon="6.50181">
        <ele>2260.2</ele>
        <time>2024-08-11T11:04:57Z</time>
      </trkpt>
      <trkpt lat="44.94471" lon="6.50181">
        <ele>2260.2</ele>
        <time>2024-08-11T11:04:58Z</time>
      </trkpt>
      <trkpt lat="44.94471" lon="6.50181">
        <ele>2260.2</ele>
        <time>2024-08-11T11:04:59Z</time>
      </trkpt>
      <trkpt lat="44.94469" lon="6.5018">
        <ele>2260</ele>
        <time>2024-08-11T11:05:00Z</time>
      </trkpt>
      <trkpt lat="44.94469" lon="6.5018">
        <ele>2260</ele>
        <time>2024-08-11T11:05:01Z</time>
      </trkpt>
      <trkpt lat="44.94467" lon="6.5018">
        <ele>2260.2</ele>
        <time>2024-08-11T11:05:02Z</time>
      </trkpt>
      <trkpt lat="44.94467" lon="6.5018">
        <ele>2260.2</ele>
        <time>2024-08-11T11:05:03Z</time>
      </trkpt>
      <trkpt lat="44.94465" lon="6.50179">
        <ele>2260.4</ele>
        <time>2024-08-11T11:05:04Z</time>
      </trkpt>
      <trkpt lat="44.94465" lon="6.50179">
        <ele>2260.4</ele>
        <time>2024-08-11T11:05:05Z</time>
      </trkpt>
      <trkpt lat="44.94463" lon="6.50179">
        <ele>2260.6</ele>
        <time>2024-08-11T11:05:06Z</time>
      </trkpt>
      <trkpt lat="44.94463" lon="6.50179">
        <ele>2260.8</ele>
        <time>2024-08-11T11:05:07Z</time>
      </trkpt>
      <trkpt lat="44.94461" lon="6.50179">
        <ele>2261</ele>
        <time>2024-08-11T11:05:08Z</time>
      </trkpt>
      <trkpt lat="44.94461" lon="6.50179">
        <ele>2261</ele>
        <time>2024-08-11T11:05:09Z</time>
      </trkpt>
      <trkpt lat="44.94459" lon="6.50178">
        <ele>2261.2</ele>
        <time>2024-08-11T11:05:10Z</time>
      </trkpt>
      <trkpt lat="44.94459" lon="6.50178">
        <ele>2261.2</ele>
        <time>2024-08-11T11:05:11Z</time>
      </trkpt>
      <trkpt lat="44.94459" lon="6.50178">
        <ele>2261.4</ele>
        <time>2024-08-11T11:05:12Z</time>
      </trkpt>
      <trkpt lat="44.94457" lon="6.50177">
        <ele>2261.8</ele>
        <time>2024-08-11T11:05:13Z</time>
      </trkpt>
      <trkpt lat="44.94457" lon="6.50177">
        <ele>2261.8</ele>
        <time>2024-08-11T11:05:14Z</time>
      </trkpt>
      <trkpt lat="44.94457" lon="6.50177">
        <ele>2261.8</ele>
        <time>2024-08-11T11:05:15Z</time>
      </trkpt>
      <trkpt lat="44.94454" lon="6.50176">
        <ele>2261.8</ele>
        <time>2024-08-11T11:05:16Z</time>
      </trkpt>
      <trkpt lat="44.94454" lon="6.50176">
        <ele>2262</ele>
        <time>2024-08-11T11:05:17Z</time>
      </trkpt>
      <trkpt lat="44.94452" lon="6.50176">
        <ele>2262</ele>
        <time>2024-08-11T11:05:18Z</time>
      </trkpt>
      <trkpt lat="44.94452" lon="6.50176">
        <ele>2262.2</ele>
        <time>2024-08-11T11:05:19Z</time>
      </trkpt>
      <trkpt lat="44.94452" lon="6.50176">
        <ele>2262.6</ele>
        <time>2024-08-11T11:05:20Z</time>
      </trkpt>
      <trkpt lat="44.94449" lon="6.50175">
        <ele>2262.6</ele>
        <time>2024-08-11T11:05:21Z</time>
      </trkpt>
      <trkpt lat="44.94449" lon="6.50175">
        <ele>2262.8</ele>
        <time>2024-08-11T11:05:22Z</time>
      </trkpt>
      <trkpt lat="44.94449" lon="6.50175">
        <ele>2262.8</ele>
        <time>2024-08-11T11:05:23Z</time>
      </trkpt>
      <trkpt lat="44.94447" lon="6.50173">
        <ele>2263</ele>
        <time>2024-08-11T11:05:24Z</time>
      </trkpt>
      <trkpt lat="44.94447" lon="6.50173">
        <ele>2263.2</ele>
        <time>2024-08-11T11:05:25Z</time>
      </trkpt>
      <trkpt lat="44.94445" lon="6.50173">
        <ele>2263.2</ele>
        <time>2024-08-11T11:05:26Z</time>
      </trkpt>
      <trkpt lat="44.94445" lon="6.50173">
        <ele>2263.4</ele>
        <time>2024-08-11T11:05:27Z</time>
      </trkpt>
      <trkpt lat="44.94445" lon="6.50173">
        <ele>2263.6</ele>
        <time>2024-08-11T11:05:28Z</time>
      </trkpt>
      <trkpt lat="44.94442" lon="6.50172">
        <ele>2263.6</ele>
        <time>2024-08-11T11:05:29Z</time>
      </trkpt>
      <trkpt lat="44.94442" lon="6.50172">
        <ele>2263.6</ele>
        <time>2024-08-11T11:05:30Z</time>
      </trkpt>
      <trkpt lat="44.94442" lon="6.50172">
        <ele>2264.2</ele>
        <time>2024-08-11T11:05:31Z</time>
      </trkpt>
      <trkpt lat="44.9444" lon="6.5017">
        <ele>2264.2</ele>
        <time>2024-08-11T11:05:32Z</time>
      </trkpt>
      <trkpt lat="44.9444" lon="6.5017">
        <ele>2264.4</ele>
        <time>2024-08-11T11:05:33Z</time>
      </trkpt>
      <trkpt lat="44.9444" lon="6.5017">
        <ele>2264.4</ele>
        <time>2024-08-11T11:05:34Z</time>
      </trkpt>
      <trkpt lat="44.94438" lon="6.50169">
        <ele>2264.6</ele>
        <time>2024-08-11T11:05:35Z</time>
      </trkpt>
      <trkpt lat="44.94438" lon="6.50169">
        <ele>2264.8</ele>
        <time>2024-08-11T11:05:36Z</time>
      </trkpt>
      <trkpt lat="44.94436" lon="6.50169">
        <ele>2264.8</ele>
        <time>2024-08-11T11:05:37Z</time>
      </trkpt>
      <trkpt lat="44.94436" lon="6.50169">
        <ele>2264.8</ele>
        <time>2024-08-11T11:05:38Z</time>
      </trkpt>
      <trkpt lat="44.94436" lon="6.50169">
        <ele>2265.2</ele>
        <time>2024-08-11T11:05:39Z</time>
      </trkpt>
      <trkpt lat="44.94434" lon="6.50169">
        <ele>2265.2</ele>
        <time>2024-08-11T11:05:40Z</time>
      </trkpt>
      <trkpt lat="44.94434" lon="6.50169">
        <ele>2265.2</ele>
        <time>2024-08-11T11:05:41Z</time>
      </trkpt>
      <trkpt lat="44.94434" lon="6.50169">
        <ele>2265.6</ele>
        <time>2024-08-11T11:05:42Z</time>
      </trkpt>
      <trkpt lat="44.94432" lon="6.50167">
        <ele>2265.6</ele>
        <time>2024-08-11T11:05:43Z</time>
      </trkpt>
      <trkpt lat="44.94432" lon="6.50167">
        <ele>2265.8</ele>
        <time>2024-08-11T11:05:44Z</time>
      </trkpt>
      <trkpt lat="44.94432" lon="6.50167">
        <ele>2266</ele>
        <time>2024-08-11T11:05:45Z</time>
      </trkpt>
      <trkpt lat="44.94429" lon="6.50166">
        <ele>2266.2</ele>
        <time>2024-08-11T11:05:46Z</time>
      </trkpt>
      <trkpt lat="44.94429" lon="6.50166">
        <ele>2266.4</ele>
        <time>2024-08-11T11:05:47Z</time>
      </trkpt>
      <trkpt lat="44.94429" lon="6.50166">
        <ele>2266.6</ele>
        <time>2024-08-11T11:05:48Z</time>
      </trkpt>
      <trkpt lat="44.94427" lon="6.50165">
        <ele>2266.6</ele>
        <time>2024-08-11T11:05:49Z</time>
      </trkpt>
      <trkpt lat="44.94427" lon="6.50165">
        <ele>2266.8</ele>
        <time>2024-08-11T11:05:50Z</time>
      </trkpt>
      <trkpt lat="44.94427" lon="6.50165">
        <ele>2266.8</ele>
        <time>2024-08-11T11:05:51Z</time>
      </trkpt>
      <trkpt lat="44.94425" lon="6.50164">
        <ele>2267</ele>
        <time>2024-08-11T11:05:52Z</time>
      </trkpt>
      <trkpt lat="44.94425" lon="6.50164">
        <ele>2267</ele>
        <time>2024-08-11T11:05:53Z</time>
      </trkpt>
      <trkpt lat="44.94423" lon="6.50163">
        <ele>2267</ele>
        <time>2024-08-11T11:05:54Z</time>
      </trkpt>
      <trkpt lat="44.94423" lon="6.50163">
        <ele>2267.2</ele>
        <time>2024-08-11T11:05:55Z</time>
      </trkpt>
      <trkpt lat="44.94423" lon="6.50163">
        <ele>2267.4</ele>
        <time>2024-08-11T11:05:56Z</time>
      </trkpt>
      <trkpt lat="44.94421" lon="6.50162">
        <ele>2267.4</ele>
        <time>2024-08-11T11:05:57Z</time>
      </trkpt>
      <trkpt lat="44.94421" lon="6.50162">
        <ele>2267.4</ele>
        <time>2024-08-11T11:05:58Z</time>
      </trkpt>
      <trkpt lat="44.94421" lon="6.50162">
        <ele>2267.4</ele>
        <time>2024-08-11T11:05:59Z</time>
      </trkpt>
      <trkpt lat="44.94419" lon="6.50161">
        <ele>2268</ele>
        <time>2024-08-11T11:06:00Z</time>
      </trkpt>
      <trkpt lat="44.94419" lon="6.50161">
        <ele>2268.2</ele>
        <time>2024-08-11T11:06:01Z</time>
      </trkpt>
      <trkpt lat="44.94419" lon="6.50161">
        <ele>2268.4</ele>
        <time>2024-08-11T11:06:02Z</time>
      </trkpt>
      <trkpt lat="44.94416" lon="6.5016">
        <ele>2268.4</ele>
        <time>2024-08-11T11:06:03Z</time>
      </trkpt>
      <trkpt lat="44.94416" lon="6.5016">
        <ele>2268.6</ele>
        <time>2024-08-11T11:06:04Z</time>
      </trkpt>
      <trkpt lat="44.94416" lon="6.5016">
        <ele>2268.8</ele>
        <time>2024-08-11T11:06:05Z</time>
      </trkpt>
      <trkpt lat="44.94414" lon="6.50159">
        <ele>2269</ele>
        <time>2024-08-11T11:06:06Z</time>
      </trkpt>
      <trkpt lat="44.94414" lon="6.50159">
        <ele>2269</ele>
        <time>2024-08-11T11:06:07Z</time>
      </trkpt>
      <trkpt lat="44.94412" lon="6.50159">
        <ele>2269.2</ele>
        <time>2024-08-11T11:06:08Z</time>
      </trkpt>
      <trkpt lat="44.94412" lon="6.50159">
        <ele>2269.2</ele>
        <time>2024-08-11T11:06:09Z</time>
      </trkpt>
      <trkpt lat="44.94412" lon="6.50159">
        <ele>2269.2</ele>
        <time>2024-08-11T11:06:10Z</time>
      </trkpt>
      <trkpt lat="44.9441" lon="6.50158">
        <ele>2269.4</ele>
        <time>2024-08-11T11:06:11Z</time>
      </trkpt>
      <trkpt lat="44.9441" lon="6.50158">
        <ele>2270</ele>
        <time>2024-08-11T11:06:12Z</time>
      </trkpt>
      <trkpt lat="44.9441" lon="6.50158">
        <ele>2270</ele>
        <time>2024-08-11T11:06:13Z</time>
      </trkpt>
      <trkpt lat="44.94408" lon="6.50157">
        <ele>2270.2</ele>
        <time>2024-08-11T11:06:14Z</time>
      </trkpt>
      <trkpt lat="44.94408" lon="6.50157">
        <ele>2270.4</ele>
        <time>2024-08-11T11:06:15Z</time>
      </trkpt>
      <trkpt lat="44.94408" lon="6.50157">
        <ele>2270.6</ele>
        <time>2024-08-11T11:06:16Z</time>
      </trkpt>
      <trkpt lat="44.94405" lon="6.50156">
        <ele>2271.2</ele>
        <time>2024-08-11T11:06:17Z</time>
      </trkpt>
      <trkpt lat="44.94405" lon="6.50156">
        <ele>2271.8</ele>
        <time>2024-08-11T11:06:18Z</time>
      </trkpt>
      <trkpt lat="44.94405" lon="6.50156">
        <ele>2271.8</ele>
        <time>2024-08-11T11:06:19Z</time>
      </trkpt>
      <trkpt lat="44.94403" lon="6.50155">
        <ele>2272</ele>
        <time>2024-08-11T11:06:20Z</time>
      </trkpt>
      <trkpt lat="44.94403" lon="6.50155">
        <ele>2272</ele>
        <time>2024-08-11T11:06:21Z</time>
      </trkpt>
      <trkpt lat="44.94403" lon="6.50155">
        <ele>2272</ele>
        <time>2024-08-11T11:06:22Z</time>
      </trkpt>
      <trkpt lat="44.944" lon="6.50154">
        <ele>2272.6</ele>
        <time>2024-08-11T11:06:23Z</time>
      </trkpt>
      <trkpt lat="44.944" lon="6.50154">
        <ele>2272.8</ele>
        <time>2024-08-11T11:06:24Z</time>
      </trkpt>
      <trkpt lat="44.944" lon="6.50154">
        <ele>2273</ele>
        <time>2024-08-11T11:06:25Z</time>
      </trkpt>
      <trkpt lat="44.94398" lon="6.50153">
        <ele>2273</ele>
        <time>2024-08-11T11:06:26Z</time>
      </trkpt>
      <trkpt lat="44.94398" lon="6.50153">
        <ele>2273.2</ele>
        <time>2024-08-11T11:06:27Z</time>
      </trkpt>
      <trkpt lat="44.94397" lon="6.50152">
        <ele>2273.6</ele>
        <time>2024-08-11T11:06:28Z</time>
      </trkpt>
      <trkpt lat="44.94397" lon="6.50152">
        <ele>2273.6</ele>
        <time>2024-08-11T11:06:29Z</time>
      </trkpt>
      <trkpt lat="44.94395" lon="6.50152">
        <ele>2273.6</ele>
        <time>2024-08-11T11:06:30Z</time>
      </trkpt>
      <trkpt lat="44.94395" lon="6.50152">
        <ele>2273.8</ele>
        <time>2024-08-11T11:06:31Z</time>
      </trkpt>
      <trkpt lat="44.94395" lon="6.50152">
        <ele>2274</ele>
        <time>2024-08-11T11:06:32Z</time>
      </trkpt>
      <trkpt lat="44.94392" lon="6.5015">
        <ele>2274</ele>
        <time>2024-08-11T11:06:33Z</time>
      </trkpt>
      <trkpt lat="44.94392" lon="6.5015">
        <ele>2274.2</ele>
        <time>2024-08-11T11:06:34Z</time>
      </trkpt>
      <trkpt lat="44.94392" lon="6.5015">
        <ele>2274.8</ele>
        <time>2024-08-11T11:06:35Z</time>
      </trkpt>
      <trkpt lat="44.94392" lon="6.5015">
        <ele>2275.2</ele>
        <time>2024-08-11T11:06:36Z</time>
      </trkpt>
      <trkpt lat="44.94392" lon="6.5015">
        <ele>2275.6</ele>
        <time>2024-08-11T11:06:37Z</time>
      </trkpt>
      <trkpt lat="44.94392" lon="6.5015">
        <ele>2275.6</ele>
        <time>2024-08-11T11:06:38Z</time>
      </trkpt>
      <trkpt lat="44.94392" lon="6.5015">
        <ele>2275.4</ele>
        <time>2024-08-11T11:06:39Z</time>
      </trkpt>
      <trkpt lat="44.94392" lon="6.5015">
        <ele>2275.4</ele>
        <time>2024-08-11T11:06:40Z</time>
      </trkpt>
      <trkpt lat="44.94392" lon="6.5015">
        <ele>2275.6</ele>
        <time>2024-08-11T11:06:41Z</time>
      </trkpt>
      <trkpt lat="44.94392" lon="6.5015">
        <ele>2275.6</ele>
        <time>2024-08-11T11:06:42Z</time>
      </trkpt>
      <trkpt lat="44.9439" lon="6.50149">
        <ele>2275.6</ele>
        <time>2024-08-11T11:06:43Z</time>
      </trkpt>
      <trkpt lat="44.9439" lon="6.50149">
        <ele>2275.6</ele>
        <time>2024-08-11T11:06:44Z</time>
      </trkpt>
      <trkpt lat="44.94388" lon="6.50149">
        <ele>2275.4</ele>
        <time>2024-08-11T11:06:45Z</time>
      </trkpt>
      <trkpt lat="44.94388" lon="6.50149">
        <ele>2275.4</ele>
        <time>2024-08-11T11:06:46Z</time>
      </trkpt>
      <trkpt lat="44.94385" lon="6.50148">
        <ele>2275.6</ele>
        <time>2024-08-11T11:06:47Z</time>
      </trkpt>
      <trkpt lat="44.94385" lon="6.50148">
        <ele>2275.8</ele>
        <time>2024-08-11T11:06:48Z</time>
      </trkpt>
      <trkpt lat="44.94383" lon="6.50147">
        <ele>2276.2</ele>
        <time>2024-08-11T11:06:49Z</time>
      </trkpt>
      <trkpt lat="44.94383" lon="6.50147">
        <ele>2276.2</ele>
        <time>2024-08-11T11:06:50Z</time>
      </trkpt>
      <trkpt lat="44.94383" lon="6.50147">
        <ele>2276.4</ele>
        <time>2024-08-11T11:06:51Z</time>
      </trkpt>
      <trkpt lat="44.94381" lon="6.50146">
        <ele>2277</ele>
        <time>2024-08-11T11:06:52Z</time>
      </trkpt>
      <trkpt lat="44.94381" lon="6.50146">
        <ele>2277</ele>
        <time>2024-08-11T11:06:53Z</time>
      </trkpt>
      <trkpt lat="44.94381" lon="6.50146">
        <ele>2277.2</ele>
        <time>2024-08-11T11:06:54Z</time>
      </trkpt>
      <trkpt lat="44.94378" lon="6.50145">
        <ele>2277.2</ele>
        <time>2024-08-11T11:06:55Z</time>
      </trkpt>
      <trkpt lat="44.94378" lon="6.50145">
        <ele>2277.2</ele>
        <time>2024-08-11T11:06:56Z</time>
      </trkpt>
      <trkpt lat="44.94376" lon="6.50145">
        <ele>2277.4</ele>
        <time>2024-08-11T11:06:57Z</time>
      </trkpt>
      <trkpt lat="44.94376" lon="6.50145">
        <ele>2277.8</ele>
        <time>2024-08-11T11:06:58Z</time>
      </trkpt>
      <trkpt lat="44.94376" lon="6.50145">
        <ele>2277.8</ele>
        <time>2024-08-11T11:06:59Z</time>
      </trkpt>
      <trkpt lat="44.94374" lon="6.50144">
        <ele>2278</ele>
        <time>2024-08-11T11:07:00Z</time>
      </trkpt>
      <trkpt lat="44.94374" lon="6.50144">
        <ele>2278.2</ele>
        <time>2024-08-11T11:07:01Z</time>
      </trkpt>
      <trkpt lat="44.94374" lon="6.50144">
        <ele>2278.4</ele>
        <time>2024-08-11T11:07:02Z</time>
      </trkpt>
      <trkpt lat="44.94371" lon="6.50143">
        <ele>2278.4</ele>
        <time>2024-08-11T11:07:03Z</time>
      </trkpt>
      <trkpt lat="44.94371" lon="6.50143">
        <ele>2278.8</ele>
        <time>2024-08-11T11:07:04Z</time>
      </trkpt>
      <trkpt lat="44.94371" lon="6.50143">
        <ele>2279</ele>
        <time>2024-08-11T11:07:05Z</time>
      </trkpt>
      <trkpt lat="44.94369" lon="6.50143">
        <ele>2279.2</ele>
        <time>2024-08-11T11:07:06Z</time>
      </trkpt>
      <trkpt lat="44.94369" lon="6.50143">
        <ele>2279.4</ele>
        <time>2024-08-11T11:07:07Z</time>
      </trkpt>
      <trkpt lat="44.94367" lon="6.50143">
        <ele>2279.8</ele>
        <time>2024-08-11T11:07:08Z</time>
      </trkpt>
      <trkpt lat="44.94367" lon="6.50143">
        <ele>2279.8</ele>
        <time>2024-08-11T11:07:09Z</time>
      </trkpt>
      <trkpt lat="44.94367" lon="6.50143">
        <ele>2280.2</ele>
        <time>2024-08-11T11:07:10Z</time>
      </trkpt>
      <trkpt lat="44.94365" lon="6.50144">
        <ele>2280.4</ele>
        <time>2024-08-11T11:07:11Z</time>
      </trkpt>
      <trkpt lat="44.94365" lon="6.50144">
        <ele>2280.4</ele>
        <time>2024-08-11T11:07:12Z</time>
      </trkpt>
      <trkpt lat="44.94365" lon="6.50144">
        <ele>2280.6</ele>
        <time>2024-08-11T11:07:13Z</time>
      </trkpt>
      <trkpt lat="44.94363" lon="6.50143">
        <ele>2280.8</ele>
        <time>2024-08-11T11:07:14Z</time>
      </trkpt>
      <trkpt lat="44.94363" lon="6.50143">
        <ele>2281</ele>
        <time>2024-08-11T11:07:15Z</time>
      </trkpt>
      <trkpt lat="44.94363" lon="6.50143">
        <ele>2281</ele>
        <time>2024-08-11T11:07:16Z</time>
      </trkpt>
      <trkpt lat="44.9436" lon="6.50142">
        <ele>2281.2</ele>
        <time>2024-08-11T11:07:17Z</time>
      </trkpt>
      <trkpt lat="44.9436" lon="6.50142">
        <ele>2281.4</ele>
        <time>2024-08-11T11:07:18Z</time>
      </trkpt>
      <trkpt lat="44.94358" lon="6.50142">
        <ele>2281.8</ele>
        <time>2024-08-11T11:07:19Z</time>
      </trkpt>
      <trkpt lat="44.94358" lon="6.50142">
        <ele>2282</ele>
        <time>2024-08-11T11:07:20Z</time>
      </trkpt>
      <trkpt lat="44.94357" lon="6.50142">
        <ele>2282.2</ele>
        <time>2024-08-11T11:07:21Z</time>
      </trkpt>
      <trkpt lat="44.94357" lon="6.50142">
        <ele>2282.4</ele>
        <time>2024-08-11T11:07:22Z</time>
      </trkpt>
      <trkpt lat="44.94357" lon="6.50142">
        <ele>2282.6</ele>
        <time>2024-08-11T11:07:23Z</time>
      </trkpt>
      <trkpt lat="44.94354" lon="6.50141">
        <ele>2282.8</ele>
        <time>2024-08-11T11:07:24Z</time>
      </trkpt>
      <trkpt lat="44.94354" lon="6.50141">
        <ele>2282.8</ele>
        <time>2024-08-11T11:07:25Z</time>
      </trkpt>
      <trkpt lat="44.94354" lon="6.50141">
        <ele>2283</ele>
        <time>2024-08-11T11:07:26Z</time>
      </trkpt>
      <trkpt lat="44.94354" lon="6.50141">
        <ele>2283.2</ele>
        <time>2024-08-11T11:07:27Z</time>
      </trkpt>
      <trkpt lat="44.94352" lon="6.50142">
        <ele>2283.6</ele>
        <time>2024-08-11T11:07:28Z</time>
      </trkpt>
      <trkpt lat="44.94352" lon="6.50142">
        <ele>2284</ele>
        <time>2024-08-11T11:07:29Z</time>
      </trkpt>
      <trkpt lat="44.94352" lon="6.50142">
        <ele>2284.2</ele>
        <time>2024-08-11T11:07:30Z</time>
      </trkpt>
      <trkpt lat="44.9435" lon="6.50142">
        <ele>2284.4</ele>
        <time>2024-08-11T11:07:31Z</time>
      </trkpt>
      <trkpt lat="44.9435" lon="6.50142">
        <ele>2284.6</ele>
        <time>2024-08-11T11:07:32Z</time>
      </trkpt>
      <trkpt lat="44.9435" lon="6.50142">
        <ele>2284.8</ele>
        <time>2024-08-11T11:07:33Z</time>
      </trkpt>
      <trkpt lat="44.94348" lon="6.50143">
        <ele>2285</ele>
        <time>2024-08-11T11:07:34Z</time>
      </trkpt>
      <trkpt lat="44.94348" lon="6.50143">
        <ele>2285</ele>
        <time>2024-08-11T11:07:35Z</time>
      </trkpt>
      <trkpt lat="44.94348" lon="6.50143">
        <ele>2285.4</ele>
        <time>2024-08-11T11:07:36Z</time>
      </trkpt>
      <trkpt lat="44.94346" lon="6.50144">
        <ele>2285.6</ele>
        <time>2024-08-11T11:07:37Z</time>
      </trkpt>
      <trkpt lat="44.94346" lon="6.50144">
        <ele>2285.6</ele>
        <time>2024-08-11T11:07:38Z</time>
      </trkpt>
      <trkpt lat="44.94344" lon="6.50143">
        <ele>2285.6</ele>
        <time>2024-08-11T11:07:39Z</time>
      </trkpt>
      <trkpt lat="44.94344" lon="6.50143">
        <ele>2285.8</ele>
        <time>2024-08-11T11:07:40Z</time>
      </trkpt>
      <trkpt lat="44.94344" lon="6.50143">
        <ele>2285.8</ele>
        <time>2024-08-11T11:07:41Z</time>
      </trkpt>
      <trkpt lat="44.94342" lon="6.50143">
        <ele>2285.8</ele>
        <time>2024-08-11T11:07:42Z</time>
      </trkpt>
      <trkpt lat="44.94342" lon="6.50143">
        <ele>2286.2</ele>
        <time>2024-08-11T11:07:43Z</time>
      </trkpt>
      <trkpt lat="44.9434" lon="6.50143">
        <ele>2286.8</ele>
        <time>2024-08-11T11:07:44Z</time>
      </trkpt>
      <trkpt lat="44.9434" lon="6.50143">
        <ele>2287</ele>
        <time>2024-08-11T11:07:45Z</time>
      </trkpt>
      <trkpt lat="44.94338" lon="6.50143">
        <ele>2287.4</ele>
        <time>2024-08-11T11:07:46Z</time>
      </trkpt>
      <trkpt lat="44.94338" lon="6.50143">
        <ele>2287.4</ele>
        <time>2024-08-11T11:07:47Z</time>
      </trkpt>
      <trkpt lat="44.94338" lon="6.50143">
        <ele>2287.6</ele>
        <time>2024-08-11T11:07:48Z</time>
      </trkpt>
      <trkpt lat="44.94336" lon="6.50143">
        <ele>2287.8</ele>
        <time>2024-08-11T11:07:49Z</time>
      </trkpt>
      <trkpt lat="44.94336" lon="6.50143">
        <ele>2288</ele>
        <time>2024-08-11T11:07:50Z</time>
      </trkpt>
      <trkpt lat="44.94334" lon="6.50143">
        <ele>2288</ele>
        <time>2024-08-11T11:07:51Z</time>
      </trkpt>
      <trkpt lat="44.94334" lon="6.50143">
        <ele>2288.2</ele>
        <time>2024-08-11T11:07:52Z</time>
      </trkpt>
      <trkpt lat="44.94334" lon="6.50143">
        <ele>2288.8</ele>
        <time>2024-08-11T11:07:53Z</time>
      </trkpt>
      <trkpt lat="44.94331" lon="6.50143">
        <ele>2289</ele>
        <time>2024-08-11T11:07:54Z</time>
      </trkpt>
      <trkpt lat="44.94331" lon="6.50143">
        <ele>2289.2</ele>
        <time>2024-08-11T11:07:55Z</time>
      </trkpt>
      <trkpt lat="44.94331" lon="6.50143">
        <ele>2289.2</ele>
        <time>2024-08-11T11:07:56Z</time>
      </trkpt>
      <trkpt lat="44.94329" lon="6.50142">
        <ele>2289.4</ele>
        <time>2024-08-11T11:07:57Z</time>
      </trkpt>
      <trkpt lat="44.94329" lon="6.50142">
        <ele>2290</ele>
        <time>2024-08-11T11:07:58Z</time>
      </trkpt>
      <trkpt lat="44.94329" lon="6.50142">
        <ele>2290.2</ele>
        <time>2024-08-11T11:07:59Z</time>
      </trkpt>
      <trkpt lat="44.94326" lon="6.50142">
        <ele>2290.2</ele>
        <time>2024-08-11T11:08:00Z</time>
      </trkpt>
      <trkpt lat="44.94326" lon="6.50142">
        <ele>2290.6</ele>
        <time>2024-08-11T11:08:01Z</time>
      </trkpt>
      <trkpt lat="44.94326" lon="6.50142">
        <ele>2291</ele>
        <time>2024-08-11T11:08:02Z</time>
      </trkpt>
      <trkpt lat="44.94324" lon="6.50142">
        <ele>2291</ele>
        <time>2024-08-11T11:08:03Z</time>
      </trkpt>
      <trkpt lat="44.94324" lon="6.50142">
        <ele>2291</ele>
        <time>2024-08-11T11:08:04Z</time>
      </trkpt>
      <trkpt lat="44.94322" lon="6.50143">
        <ele>2291</ele>
        <time>2024-08-11T11:08:05Z</time>
      </trkpt>
      <trkpt lat="44.94322" lon="6.50143">
        <ele>2290.8</ele>
        <time>2024-08-11T11:08:06Z</time>
      </trkpt>
      <trkpt lat="44.94322" lon="6.50143">
        <ele>2290.4</ele>
        <time>2024-08-11T11:08:07Z</time>
      </trkpt>
      <trkpt lat="44.94319" lon="6.50142">
        <ele>2290.4</ele>
        <time>2024-08-11T11:08:08Z</time>
      </trkpt>
      <trkpt lat="44.94319" lon="6.50142">
        <ele>2291</ele>
        <time>2024-08-11T11:08:09Z</time>
      </trkpt>
      <trkpt lat="44.94319" lon="6.50142">
        <ele>2291</ele>
        <time>2024-08-11T11:08:10Z</time>
      </trkpt>
      <trkpt lat="44.94317" lon="6.50142">
        <ele>2291.4</ele>
        <time>2024-08-11T11:08:11Z</time>
      </trkpt>
      <trkpt lat="44.94317" lon="6.50142">
        <ele>2291.8</ele>
        <time>2024-08-11T11:08:12Z</time>
      </trkpt>
      <trkpt lat="44.94315" lon="6.50142">
        <ele>2292.2</ele>
        <time>2024-08-11T11:08:13Z</time>
      </trkpt>
      <trkpt lat="44.94315" lon="6.50142">
        <ele>2292.4</ele>
        <time>2024-08-11T11:08:14Z</time>
      </trkpt>
      <trkpt lat="44.94313" lon="6.50142">
        <ele>2292.4</ele>
        <time>2024-08-11T11:08:15Z</time>
      </trkpt>
      <trkpt lat="44.94313" lon="6.50142">
        <ele>2292.4</ele>
        <time>2024-08-11T11:08:16Z</time>
      </trkpt>
      <trkpt lat="44.94311" lon="6.50142">
        <ele>2292.6</ele>
        <time>2024-08-11T11:08:17Z</time>
      </trkpt>
      <trkpt lat="44.94311" lon="6.50142">
        <ele>2292.6</ele>
        <time>2024-08-11T11:08:18Z</time>
      </trkpt>
      <trkpt lat="44.94309" lon="6.50142">
        <ele>2292.8</ele>
        <time>2024-08-11T11:08:19Z</time>
      </trkpt>
      <trkpt lat="44.94309" lon="6.50142">
        <ele>2293.2</ele>
        <time>2024-08-11T11:08:20Z</time>
      </trkpt>
      <trkpt lat="44.94307" lon="6.50143">
        <ele>2293.6</ele>
        <time>2024-08-11T11:08:21Z</time>
      </trkpt>
      <trkpt lat="44.94307" lon="6.50143">
        <ele>2293.8</ele>
        <time>2024-08-11T11:08:22Z</time>
      </trkpt>
      <trkpt lat="44.94305" lon="6.50143">
        <ele>2293.8</ele>
        <time>2024-08-11T11:08:23Z</time>
      </trkpt>
      <trkpt lat="44.94305" lon="6.50143">
        <ele>2294</ele>
        <time>2024-08-11T11:08:24Z</time>
      </trkpt>
      <trkpt lat="44.94303" lon="6.50143">
        <ele>2294</ele>
        <time>2024-08-11T11:08:25Z</time>
      </trkpt>
      <trkpt lat="44.94303" lon="6.50143">
        <ele>2294.4</ele>
        <time>2024-08-11T11:08:26Z</time>
      </trkpt>
      <trkpt lat="44.94301" lon="6.50143">
        <ele>2294.4</ele>
        <time>2024-08-11T11:08:27Z</time>
      </trkpt>
      <trkpt lat="44.94301" lon="6.50143">
        <ele>2294.8</ele>
        <time>2024-08-11T11:08:28Z</time>
      </trkpt>
      <trkpt lat="44.94299" lon="6.50143">
        <ele>2295</ele>
        <time>2024-08-11T11:08:29Z</time>
      </trkpt>
      <trkpt lat="44.94299" lon="6.50143">
        <ele>2295.2</ele>
        <time>2024-08-11T11:08:30Z</time>
      </trkpt>
      <trkpt lat="44.94297" lon="6.50143">
        <ele>2295.4</ele>
        <time>2024-08-11T11:08:31Z</time>
      </trkpt>
      <trkpt lat="44.94297" lon="6.50143">
        <ele>2295.4</ele>
        <time>2024-08-11T11:08:32Z</time>
      </trkpt>
      <trkpt lat="44.94294" lon="6.50143">
        <ele>2295.4</ele>
        <time>2024-08-11T11:08:33Z</time>
      </trkpt>
      <trkpt lat="44.94294" lon="6.50143">
        <ele>2295.6</ele>
        <time>2024-08-11T11:08:34Z</time>
      </trkpt>
      <trkpt lat="44.94293" lon="6.50143">
        <ele>2295.8</ele>
        <time>2024-08-11T11:08:35Z</time>
      </trkpt>
      <trkpt lat="44.94293" lon="6.50143">
        <ele>2295.8</ele>
        <time>2024-08-11T11:08:36Z</time>
      </trkpt>
      <trkpt lat="44.9429" lon="6.50143">
        <ele>2295.8</ele>
        <time>2024-08-11T11:08:37Z</time>
      </trkpt>
      <trkpt lat="44.9429" lon="6.50143">
        <ele>2295.8</ele>
        <time>2024-08-11T11:08:38Z</time>
      </trkpt>
      <trkpt lat="44.94288" lon="6.50144">
        <ele>2295.8</ele>
        <time>2024-08-11T11:08:39Z</time>
      </trkpt>
      <trkpt lat="44.94288" lon="6.50144">
        <ele>2296.2</ele>
        <time>2024-08-11T11:08:40Z</time>
      </trkpt>
      <trkpt lat="44.94286" lon="6.50144">
        <ele>2296.2</ele>
        <time>2024-08-11T11:08:41Z</time>
      </trkpt>
      <trkpt lat="44.94286" lon="6.50144">
        <ele>2296.2</ele>
        <time>2024-08-11T11:08:42Z</time>
      </trkpt>
      <trkpt lat="44.94284" lon="6.50145">
        <ele>2296.4</ele>
        <time>2024-08-11T11:08:43Z</time>
      </trkpt>
      <trkpt lat="44.94284" lon="6.50145">
        <ele>2296.6</ele>
        <time>2024-08-11T11:08:44Z</time>
      </trkpt>
      <trkpt lat="44.94282" lon="6.50145">
        <ele>2296.6</ele>
        <time>2024-08-11T11:08:45Z</time>
      </trkpt>
      <trkpt lat="44.94282" lon="6.50145">
        <ele>2296.6</ele>
        <time>2024-08-11T11:08:46Z</time>
      </trkpt>
      <trkpt lat="44.9428" lon="6.50145">
        <ele>2296.8</ele>
        <time>2024-08-11T11:08:47Z</time>
      </trkpt>
      <trkpt lat="44.9428" lon="6.50145">
        <ele>2297</ele>
        <time>2024-08-11T11:08:48Z</time>
      </trkpt>
      <trkpt lat="44.94278" lon="6.50146">
        <ele>2297</ele>
        <time>2024-08-11T11:08:49Z</time>
      </trkpt>
      <trkpt lat="44.94278" lon="6.50146">
        <ele>2297.2</ele>
        <time>2024-08-11T11:08:50Z</time>
      </trkpt>
      <trkpt lat="44.94277" lon="6.50147">
        <ele>2297.2</ele>
        <time>2024-08-11T11:08:51Z</time>
      </trkpt>
      <trkpt lat="44.94277" lon="6.50147">
        <ele>2297.4</ele>
        <time>2024-08-11T11:08:52Z</time>
      </trkpt>
      <trkpt lat="44.94275" lon="6.50147">
        <ele>2297.4</ele>
        <time>2024-08-11T11:08:53Z</time>
      </trkpt>
      <trkpt lat="44.94275" lon="6.50147">
        <ele>2297.4</ele>
        <time>2024-08-11T11:08:54Z</time>
      </trkpt>
      <trkpt lat="44.94272" lon="6.50147">
        <ele>2297.4</ele>
        <time>2024-08-11T11:08:55Z</time>
      </trkpt>
      <trkpt lat="44.94272" lon="6.50147">
        <ele>2297.6</ele>
        <time>2024-08-11T11:08:56Z</time>
      </trkpt>
      <trkpt lat="44.9427" lon="6.50147">
        <ele>2297.8</ele>
        <time>2024-08-11T11:08:57Z</time>
      </trkpt>
      <trkpt lat="44.9427" lon="6.50147">
        <ele>2298.2</ele>
        <time>2024-08-11T11:08:58Z</time>
      </trkpt>
      <trkpt lat="44.94268" lon="6.50148">
        <ele>2298.2</ele>
        <time>2024-08-11T11:08:59Z</time>
      </trkpt>
      <trkpt lat="44.94268" lon="6.50148">
        <ele>2298.2</ele>
        <time>2024-08-11T11:09:00Z</time>
      </trkpt>
      <trkpt lat="44.94268" lon="6.50148">
        <ele>2298.6</ele>
        <time>2024-08-11T11:09:01Z</time>
      </trkpt>
      <trkpt lat="44.94265" lon="6.50149">
        <ele>2298.8</ele>
        <time>2024-08-11T11:09:02Z</time>
      </trkpt>
      <trkpt lat="44.94265" lon="6.50149">
        <ele>2298.8</ele>
        <time>2024-08-11T11:09:03Z</time>
      </trkpt>
      <trkpt lat="44.94265" lon="6.50149">
        <ele>2298.8</ele>
        <time>2024-08-11T11:09:04Z</time>
      </trkpt>
      <trkpt lat="44.94262" lon="6.5015">
        <ele>2299</ele>
        <time>2024-08-11T11:09:05Z</time>
      </trkpt>
      <trkpt lat="44.94262" lon="6.5015">
        <ele>2299.2</ele>
        <time>2024-08-11T11:09:06Z</time>
      </trkpt>
      <trkpt lat="44.94261" lon="6.50151">
        <ele>2299.2</ele>
        <time>2024-08-11T11:09:07Z</time>
      </trkpt>
      <trkpt lat="44.94261" lon="6.50151">
        <ele>2299.4</ele>
        <time>2024-08-11T11:09:08Z</time>
      </trkpt>
      <trkpt lat="44.94259" lon="6.50151">
        <ele>2299.8</ele>
        <time>2024-08-11T11:09:09Z</time>
      </trkpt>
      <trkpt lat="44.94259" lon="6.50151">
        <ele>2299.8</ele>
        <time>2024-08-11T11:09:10Z</time>
      </trkpt>
      <trkpt lat="44.94257" lon="6.50152">
        <ele>2300.2</ele>
        <time>2024-08-11T11:09:11Z</time>
      </trkpt>
      <trkpt lat="44.94257" lon="6.50152">
        <ele>2300.2</ele>
        <time>2024-08-11T11:09:12Z</time>
      </trkpt>
      <trkpt lat="44.94255" lon="6.50153">
        <ele>2300.2</ele>
        <time>2024-08-11T11:09:13Z</time>
      </trkpt>
      <trkpt lat="44.94255" lon="6.50153">
        <ele>2300.2</ele>
        <time>2024-08-11T11:09:14Z</time>
      </trkpt>
      <trkpt lat="44.94255" lon="6.50153">
        <ele>2300.4</ele>
        <time>2024-08-11T11:09:15Z</time>
      </trkpt>
      <trkpt lat="44.94253" lon="6.50154">
        <ele>2300.4</ele>
        <time>2024-08-11T11:09:16Z</time>
      </trkpt>
      <trkpt lat="44.94253" lon="6.50154">
        <ele>2300.6</ele>
        <time>2024-08-11T11:09:17Z</time>
      </trkpt>
      <trkpt lat="44.94251" lon="6.50153">
        <ele>2300.8</ele>
        <time>2024-08-11T11:09:18Z</time>
      </trkpt>
      <trkpt lat="44.94251" lon="6.50153">
        <ele>2300.8</ele>
        <time>2024-08-11T11:09:19Z</time>
      </trkpt>
      <trkpt lat="44.94251" lon="6.50153">
        <ele>2301</ele>
        <time>2024-08-11T11:09:20Z</time>
      </trkpt>
      <trkpt lat="44.94248" lon="6.50154">
        <ele>2301</ele>
        <time>2024-08-11T11:09:21Z</time>
      </trkpt>
      <trkpt lat="44.94248" lon="6.50154">
        <ele>2301.4</ele>
        <time>2024-08-11T11:09:22Z</time>
      </trkpt>
      <trkpt lat="44.94246" lon="6.50155">
        <ele>2301.8</ele>
        <time>2024-08-11T11:09:23Z</time>
      </trkpt>
      <trkpt lat="44.94246" lon="6.50155">
        <ele>2301.8</ele>
        <time>2024-08-11T11:09:24Z</time>
      </trkpt>
      <trkpt lat="44.94246" lon="6.50155">
        <ele>2301.8</ele>
        <time>2024-08-11T11:09:25Z</time>
      </trkpt>
      <trkpt lat="44.94244" lon="6.50156">
        <ele>2301.8</ele>
        <time>2024-08-11T11:09:26Z</time>
      </trkpt>
      <trkpt lat="44.94244" lon="6.50156">
        <ele>2302.2</ele>
        <time>2024-08-11T11:09:27Z</time>
      </trkpt>
      <trkpt lat="44.94242" lon="6.50157">
        <ele>2302.2</ele>
        <time>2024-08-11T11:09:28Z</time>
      </trkpt>
      <trkpt lat="44.94242" lon="6.50157">
        <ele>2302.4</ele>
        <time>2024-08-11T11:09:29Z</time>
      </trkpt>
      <trkpt lat="44.94242" lon="6.50157">
        <ele>2302.4</ele>
        <time>2024-08-11T11:09:30Z</time>
      </trkpt>
      <trkpt lat="44.94239" lon="6.50158">
        <ele>2302.4</ele>
        <time>2024-08-11T11:09:31Z</time>
      </trkpt>
      <trkpt lat="44.94239" lon="6.50158">
        <ele>2302.4</ele>
        <time>2024-08-11T11:09:32Z</time>
      </trkpt>
      <trkpt lat="44.94239" lon="6.50158">
        <ele>2302.6</ele>
        <time>2024-08-11T11:09:33Z</time>
      </trkpt>
      <trkpt lat="44.94237" lon="6.50159">
        <ele>2302.8</ele>
        <time>2024-08-11T11:09:34Z</time>
      </trkpt>
      <trkpt lat="44.94237" lon="6.50159">
        <ele>2303</ele>
        <time>2024-08-11T11:09:35Z</time>
      </trkpt>
      <trkpt lat="44.94235" lon="6.5016">
        <ele>2303.2</ele>
        <time>2024-08-11T11:09:36Z</time>
      </trkpt>
      <trkpt lat="44.94235" lon="6.5016">
        <ele>2303.4</ele>
        <time>2024-08-11T11:09:37Z</time>
      </trkpt>
      <trkpt lat="44.94235" lon="6.5016">
        <ele>2303.6</ele>
        <time>2024-08-11T11:09:38Z</time>
      </trkpt>
      <trkpt lat="44.94232" lon="6.5016">
        <ele>2304</ele>
        <time>2024-08-11T11:09:39Z</time>
      </trkpt>
      <trkpt lat="44.94232" lon="6.5016">
        <ele>2304</ele>
        <time>2024-08-11T11:09:40Z</time>
      </trkpt>
      <trkpt lat="44.9423" lon="6.5016">
        <ele>2304</ele>
        <time>2024-08-11T11:09:41Z</time>
      </trkpt>
      <trkpt lat="44.9423" lon="6.5016">
        <ele>2304.4</ele>
        <time>2024-08-11T11:09:42Z</time>
      </trkpt>
      <trkpt lat="44.94228" lon="6.50161">
        <ele>2304.4</ele>
        <time>2024-08-11T11:09:43Z</time>
      </trkpt>
      <trkpt lat="44.94228" lon="6.50161">
        <ele>2304.6</ele>
        <time>2024-08-11T11:09:44Z</time>
      </trkpt>
      <trkpt lat="44.94228" lon="6.50161">
        <ele>2304.6</ele>
        <time>2024-08-11T11:09:45Z</time>
      </trkpt>
      <trkpt lat="44.94226" lon="6.50161">
        <ele>2305</ele>
        <time>2024-08-11T11:09:46Z</time>
      </trkpt>
      <trkpt lat="44.94226" lon="6.50161">
        <ele>2305</ele>
        <time>2024-08-11T11:09:47Z</time>
      </trkpt>
      <trkpt lat="44.94226" lon="6.50161">
        <ele>2305.2</ele>
        <time>2024-08-11T11:09:48Z</time>
      </trkpt>
      <trkpt lat="44.94223" lon="6.50162">
        <ele>2305.2</ele>
        <time>2024-08-11T11:09:49Z</time>
      </trkpt>
      <trkpt lat="44.94223" lon="6.50162">
        <ele>2305.8</ele>
        <time>2024-08-11T11:09:50Z</time>
      </trkpt>
      <trkpt lat="44.94221" lon="6.50163">
        <ele>2305.8</ele>
        <time>2024-08-11T11:09:51Z</time>
      </trkpt>
      <trkpt lat="44.94221" lon="6.50163">
        <ele>2305.8</ele>
        <time>2024-08-11T11:09:52Z</time>
      </trkpt>
      <trkpt lat="44.94219" lon="6.50163">
        <ele>2306</ele>
        <time>2024-08-11T11:09:53Z</time>
      </trkpt>
      <trkpt lat="44.94219" lon="6.50163">
        <ele>2306.2</ele>
        <time>2024-08-11T11:09:54Z</time>
      </trkpt>
      <trkpt lat="44.94217" lon="6.50163">
        <ele>2306.4</ele>
        <time>2024-08-11T11:09:55Z</time>
      </trkpt>
      <trkpt lat="44.94217" lon="6.50163">
        <ele>2306.6</ele>
        <time>2024-08-11T11:09:56Z</time>
      </trkpt>
      <trkpt lat="44.94215" lon="6.50163">
        <ele>2306.8</ele>
        <time>2024-08-11T11:09:57Z</time>
      </trkpt>
      <trkpt lat="44.94215" lon="6.50163">
        <ele>2306.8</ele>
        <time>2024-08-11T11:09:58Z</time>
      </trkpt>
      <trkpt lat="44.94215" lon="6.50163">
        <ele>2307</ele>
        <time>2024-08-11T11:09:59Z</time>
      </trkpt>
      <trkpt lat="44.94213" lon="6.50162">
        <ele>2307.2</ele>
        <time>2024-08-11T11:10:00Z</time>
      </trkpt>
      <trkpt lat="44.94213" lon="6.50162">
        <ele>2307.2</ele>
        <time>2024-08-11T11:10:01Z</time>
      </trkpt>
      <trkpt lat="44.94213" lon="6.50162">
        <ele>2307.2</ele>
        <time>2024-08-11T11:10:02Z</time>
      </trkpt>
      <trkpt lat="44.94213" lon="6.50162">
        <ele>2307.4</ele>
        <time>2024-08-11T11:10:03Z</time>
      </trkpt>
      <trkpt lat="44.94213" lon="6.50162">
        <ele>2307.4</ele>
        <time>2024-08-11T11:10:04Z</time>
      </trkpt>
      <trkpt lat="44.94213" lon="6.50162">
        <ele>2307.6</ele>
        <time>2024-08-11T11:10:05Z</time>
      </trkpt>
      <trkpt lat="44.94213" lon="6.50162">
        <ele>2307.6</ele>
        <time>2024-08-11T11:10:06Z</time>
      </trkpt>
      <trkpt lat="44.94213" lon="6.50162">
        <ele>2307.6</ele>
        <time>2024-08-11T11:10:07Z</time>
      </trkpt>
      <trkpt lat="44.94213" lon="6.50162">
        <ele>2307.6</ele>
        <time>2024-08-11T11:10:08Z</time>
      </trkpt>
      <trkpt lat="44.94213" lon="6.50162">
        <ele>2307.8</ele>
        <time>2024-08-11T11:10:09Z</time>
      </trkpt>
      <trkpt lat="44.94213" lon="6.50162">
        <ele>2307.8</ele>
        <time>2024-08-11T11:10:10Z</time>
      </trkpt>
      <trkpt lat="44.94213" lon="6.50162">
        <ele>2307.8</ele>
        <time>2024-08-11T11:10:11Z</time>
      </trkpt>
      <trkpt lat="44.94213" lon="6.50162">
        <ele>2307.8</ele>
        <time>2024-08-11T11:10:12Z</time>
      </trkpt>
      <trkpt lat="44.94213" lon="6.50162">
        <ele>2307.8</ele>
        <time>2024-08-11T11:10:13Z</time>
      </trkpt>
      <trkpt lat="44.94213" lon="6.50162">
        <ele>2307.8</ele>
        <time>2024-08-11T11:10:14Z</time>
      </trkpt>
      <trkpt lat="44.94213" lon="6.50162">
        <ele>2308</ele>
        <time>2024-08-11T11:10:15Z</time>
      </trkpt>
      <trkpt lat="44.94213" lon="6.50162">
        <ele>2308</ele>
        <time>2024-08-11T11:10:16Z</time>
      </trkpt>
      <trkpt lat="44.94213" lon="6.50162">
        <ele>2308</ele>
        <time>2024-08-11T11:10:17Z</time>
      </trkpt>
      <trkpt lat="44.94213" lon="6.50162">
        <ele>2308</ele>
        <time>2024-08-11T11:10:18Z</time>
      </trkpt>
      <trkpt lat="44.94213" lon="6.50162">
        <ele>2308.2</ele>
        <time>2024-08-11T11:10:19Z</time>
      </trkpt>
      <trkpt lat="44.94213" lon="6.50162">
        <ele>2308.2</ele>
        <time>2024-08-11T11:10:20Z</time>
      </trkpt>
      <trkpt lat="44.94213" lon="6.50162">
        <ele>2308.6</ele>
        <time>2024-08-11T11:10:21Z</time>
      </trkpt>
      <trkpt lat="44.94213" lon="6.50162">
        <ele>2309.8</ele>
        <time>2024-08-11T11:10:22Z</time>
      </trkpt>
      <trkpt lat="44.94213" lon="6.50162">
        <ele>2309.8</ele>
        <time>2024-08-11T11:10:23Z</time>
      </trkpt>
      <trkpt lat="44.94213" lon="6.50162">
        <ele>2309</ele>
        <time>2024-08-11T11:10:24Z</time>
      </trkpt>
      <trkpt lat="44.94213" lon="6.50162">
        <ele>2308.2</ele>
        <time>2024-08-11T11:10:25Z</time>
      </trkpt>
      <trkpt lat="44.94213" lon="6.50162">
        <ele>2307.8</ele>
        <time>2024-08-11T11:10:26Z</time>
      </trkpt>
      <trkpt lat="44.94213" lon="6.50162">
        <ele>2307.8</ele>
        <time>2024-08-11T11:10:27Z</time>
      </trkpt>
      <trkpt lat="44.94213" lon="6.50162">
        <ele>2307.8</ele>
        <time>2024-08-11T11:10:28Z</time>
      </trkpt>
      <trkpt lat="44.94213" lon="6.50162">
        <ele>2307.8</ele>
        <time>2024-08-11T11:10:29Z</time>
      </trkpt>
      <trkpt lat="44.94213" lon="6.50162">
        <ele>2307.6</ele>
        <time>2024-08-11T11:10:30Z</time>
      </trkpt>
      <trkpt lat="44.94213" lon="6.50162">
        <ele>2307.6</ele>
        <time>2024-08-11T11:10:31Z</time>
      </trkpt>
      <trkpt lat="44.94213" lon="6.50162">
        <ele>2307.8</ele>
        <time>2024-08-11T11:10:32Z</time>
      </trkpt>
      <trkpt lat="44.94213" lon="6.50162">
        <ele>2307.8</ele>
        <time>2024-08-11T11:10:33Z</time>
      </trkpt>
      <trkpt lat="44.94213" lon="6.50162">
        <ele>2308</ele>
        <time>2024-08-11T11:10:34Z</time>
      </trkpt>
      <trkpt lat="44.94213" lon="6.50162">
        <ele>2307.8</ele>
        <time>2024-08-11T11:10:35Z</time>
      </trkpt>
      <trkpt lat="44.94213" lon="6.50162">
        <ele>2308</ele>
        <time>2024-08-11T11:10:36Z</time>
      </trkpt>
      <trkpt lat="44.94211" lon="6.50163">
        <ele>2308</ele>
        <time>2024-08-11T11:10:37Z</time>
      </trkpt>
      <trkpt lat="44.94211" lon="6.50163">
        <ele>2308</ele>
        <time>2024-08-11T11:10:38Z</time>
      </trkpt>
      <trkpt lat="44.94209" lon="6.50166">
        <ele>2308</ele>
        <time>2024-08-11T11:10:39Z</time>
      </trkpt>
      <trkpt lat="44.94209" lon="6.50166">
        <ele>2308.2</ele>
        <time>2024-08-11T11:10:40Z</time>
      </trkpt>
      <trkpt lat="44.94206" lon="6.50168">
        <ele>2308.2</ele>
        <time>2024-08-11T11:10:41Z</time>
      </trkpt>
      <trkpt lat="44.94206" lon="6.50168">
        <ele>2308.2</ele>
        <time>2024-08-11T11:10:42Z</time>
      </trkpt>
      <trkpt lat="44.94204" lon="6.50169">
        <ele>2308.2</ele>
        <time>2024-08-11T11:10:43Z</time>
      </trkpt>
      <trkpt lat="44.94204" lon="6.50169">
        <ele>2308.2</ele>
        <time>2024-08-11T11:10:44Z</time>
      </trkpt>
      <trkpt lat="44.94204" lon="6.50169">
        <ele>2308.4</ele>
        <time>2024-08-11T11:10:45Z</time>
      </trkpt>
      <trkpt lat="44.94201" lon="6.5017">
        <ele>2309</ele>
        <time>2024-08-11T11:10:46Z</time>
      </trkpt>
      <trkpt lat="44.94201" lon="6.5017">
        <ele>2310.2</ele>
        <time>2024-08-11T11:10:47Z</time>
      </trkpt>
      <trkpt lat="44.94199" lon="6.50171">
        <ele>2310.2</ele>
        <time>2024-08-11T11:10:48Z</time>
      </trkpt>
      <trkpt lat="44.94199" lon="6.50171">
        <ele>2310.2</ele>
        <time>2024-08-11T11:10:49Z</time>
      </trkpt>
      <trkpt lat="44.94197" lon="6.50171">
        <ele>2310.2</ele>
        <time>2024-08-11T11:10:50Z</time>
      </trkpt>
      <trkpt lat="44.94197" lon="6.50171">
        <ele>2310.2</ele>
        <time>2024-08-11T11:10:51Z</time>
      </trkpt>
      <trkpt lat="44.94195" lon="6.50172">
        <ele>2310.2</ele>
        <time>2024-08-11T11:10:52Z</time>
      </trkpt>
      <trkpt lat="44.94195" lon="6.50172">
        <ele>2310.6</ele>
        <time>2024-08-11T11:10:53Z</time>
      </trkpt>
      <trkpt lat="44.94195" lon="6.50172">
        <ele>2310.8</ele>
        <time>2024-08-11T11:10:54Z</time>
      </trkpt>
      <trkpt lat="44.94193" lon="6.50173">
        <ele>2310.8</ele>
        <time>2024-08-11T11:10:55Z</time>
      </trkpt>
      <trkpt lat="44.94193" lon="6.50173">
        <ele>2311</ele>
        <time>2024-08-11T11:10:56Z</time>
      </trkpt>
      <trkpt lat="44.94193" lon="6.50173">
        <ele>2311</ele>
        <time>2024-08-11T11:10:57Z</time>
      </trkpt>
      <trkpt lat="44.94191" lon="6.50174">
        <ele>2311.4</ele>
        <time>2024-08-11T11:10:58Z</time>
      </trkpt>
      <trkpt lat="44.94191" lon="6.50174">
        <ele>2311.6</ele>
        <time>2024-08-11T11:10:59Z</time>
      </trkpt>
      <trkpt lat="44.94189" lon="6.50174">
        <ele>2312</ele>
        <time>2024-08-11T11:11:00Z</time>
      </trkpt>
      <trkpt lat="44.94189" lon="6.50174">
        <ele>2312.2</ele>
        <time>2024-08-11T11:11:01Z</time>
      </trkpt>
      <trkpt lat="44.94189" lon="6.50174">
        <ele>2312.8</ele>
        <time>2024-08-11T11:11:02Z</time>
      </trkpt>
      <trkpt lat="44.94186" lon="6.50175">
        <ele>2312.8</ele>
        <time>2024-08-11T11:11:03Z</time>
      </trkpt>
      <trkpt lat="44.94186" lon="6.50175">
        <ele>2312.8</ele>
        <time>2024-08-11T11:11:04Z</time>
      </trkpt>
      <trkpt lat="44.94186" lon="6.50175">
        <ele>2312.8</ele>
        <time>2024-08-11T11:11:05Z</time>
      </trkpt>
      <trkpt lat="44.94184" lon="6.50176">
        <ele>2313.2</ele>
        <time>2024-08-11T11:11:06Z</time>
      </trkpt>
      <trkpt lat="44.94184" lon="6.50176">
        <ele>2313.4</ele>
        <time>2024-08-11T11:11:07Z</time>
      </trkpt>
      <trkpt lat="44.94184" lon="6.50176">
        <ele>2313.4</ele>
        <time>2024-08-11T11:11:08Z</time>
      </trkpt>
      <trkpt lat="44.94181" lon="6.50178">
        <ele>2313.6</ele>
        <time>2024-08-11T11:11:09Z</time>
      </trkpt>
      <trkpt lat="44.94181" lon="6.50178">
        <ele>2313.8</ele>
        <time>2024-08-11T11:11:10Z</time>
      </trkpt>
      <trkpt lat="44.9418" lon="6.50178">
        <ele>2314</ele>
        <time>2024-08-11T11:11:11Z</time>
      </trkpt>
      <trkpt lat="44.9418" lon="6.50178">
        <ele>2314.2</ele>
        <time>2024-08-11T11:11:12Z</time>
      </trkpt>
      <trkpt lat="44.9418" lon="6.50178">
        <ele>2314.2</ele>
        <time>2024-08-11T11:11:13Z</time>
      </trkpt>
      <trkpt lat="44.94178" lon="6.5018">
        <ele>2314.2</ele>
        <time>2024-08-11T11:11:14Z</time>
      </trkpt>
      <trkpt lat="44.94178" lon="6.5018">
        <ele>2314.6</ele>
        <time>2024-08-11T11:11:15Z</time>
      </trkpt>
      <trkpt lat="44.94178" lon="6.5018">
        <ele>2315</ele>
        <time>2024-08-11T11:11:16Z</time>
      </trkpt>
      <trkpt lat="44.94176" lon="6.50181">
        <ele>2315.4</ele>
        <time>2024-08-11T11:11:17Z</time>
      </trkpt>
      <trkpt lat="44.94176" lon="6.50181">
        <ele>2315.4</ele>
        <time>2024-08-11T11:11:18Z</time>
      </trkpt>
      <trkpt lat="44.94174" lon="6.50182">
        <ele>2315.6</ele>
        <time>2024-08-11T11:11:19Z</time>
      </trkpt>
      <trkpt lat="44.94174" lon="6.50182">
        <ele>2315.6</ele>
        <time>2024-08-11T11:11:20Z</time>
      </trkpt>
      <trkpt lat="44.94174" lon="6.50182">
        <ele>2315.8</ele>
        <time>2024-08-11T11:11:21Z</time>
      </trkpt>
      <trkpt lat="44.94172" lon="6.50183">
        <ele>2315.8</ele>
        <time>2024-08-11T11:11:22Z</time>
      </trkpt>
      <trkpt lat="44.94172" lon="6.50183">
        <ele>2316.2</ele>
        <time>2024-08-11T11:11:23Z</time>
      </trkpt>
      <trkpt lat="44.94172" lon="6.50183">
        <ele>2316.4</ele>
        <time>2024-08-11T11:11:24Z</time>
      </trkpt>
      <trkpt lat="44.9417" lon="6.50183">
        <ele>2316.6</ele>
        <time>2024-08-11T11:11:25Z</time>
      </trkpt>
      <trkpt lat="44.9417" lon="6.50183">
        <ele>2316.6</ele>
        <time>2024-08-11T11:11:26Z</time>
      </trkpt>
      <trkpt lat="44.9417" lon="6.50183">
        <ele>2316.8</ele>
        <time>2024-08-11T11:11:27Z</time>
      </trkpt>
      <trkpt lat="44.94167" lon="6.50184">
        <ele>2316.8</ele>
        <time>2024-08-11T11:11:28Z</time>
      </trkpt>
      <trkpt lat="44.94167" lon="6.50184">
        <ele>2316.8</ele>
        <time>2024-08-11T11:11:29Z</time>
      </trkpt>
      <trkpt lat="44.94165" lon="6.50185">
        <ele>2317</ele>
        <time>2024-08-11T11:11:30Z</time>
      </trkpt>
      <trkpt lat="44.94165" lon="6.50185">
        <ele>2317.2</ele>
        <time>2024-08-11T11:11:31Z</time>
      </trkpt>
      <trkpt lat="44.94164" lon="6.50186">
        <ele>2317.2</ele>
        <time>2024-08-11T11:11:32Z</time>
      </trkpt>
      <trkpt lat="44.94164" lon="6.50186">
        <ele>2317.4</ele>
        <time>2024-08-11T11:11:33Z</time>
      </trkpt>
      <trkpt lat="44.94164" lon="6.50186">
        <ele>2317.6</ele>
        <time>2024-08-11T11:11:34Z</time>
      </trkpt>
      <trkpt lat="44.94161" lon="6.50187">
        <ele>2318</ele>
        <time>2024-08-11T11:11:35Z</time>
      </trkpt>
      <trkpt lat="44.94161" lon="6.50187">
        <ele>2318.2</ele>
        <time>2024-08-11T11:11:36Z</time>
      </trkpt>
      <trkpt lat="44.94161" lon="6.50187">
        <ele>2318.4</ele>
        <time>2024-08-11T11:11:37Z</time>
      </trkpt>
      <trkpt lat="44.94158" lon="6.50188">
        <ele>2318.6</ele>
        <time>2024-08-11T11:11:38Z</time>
      </trkpt>
      <trkpt lat="44.94158" lon="6.50188">
        <ele>2318.8</ele>
        <time>2024-08-11T11:11:39Z</time>
      </trkpt>
      <trkpt lat="44.94158" lon="6.50188">
        <ele>2318.8</ele>
        <time>2024-08-11T11:11:40Z</time>
      </trkpt>
      <trkpt lat="44.94156" lon="6.50189">
        <ele>2319.2</ele>
        <time>2024-08-11T11:11:41Z</time>
      </trkpt>
      <trkpt lat="44.94156" lon="6.50189">
        <ele>2319.4</ele>
        <time>2024-08-11T11:11:42Z</time>
      </trkpt>
      <trkpt lat="44.94156" lon="6.50189">
        <ele>2319.4</ele>
        <time>2024-08-11T11:11:43Z</time>
      </trkpt>
      <trkpt lat="44.94153" lon="6.5019">
        <ele>2319.6</ele>
        <time>2024-08-11T11:11:44Z</time>
      </trkpt>
      <trkpt lat="44.94153" lon="6.5019">
        <ele>2319.6</ele>
        <time>2024-08-11T11:11:45Z</time>
      </trkpt>
      <trkpt lat="44.94153" lon="6.5019">
        <ele>2319.8</ele>
        <time>2024-08-11T11:11:46Z</time>
      </trkpt>
      <trkpt lat="44.9415" lon="6.50192">
        <ele>2320.2</ele>
        <time>2024-08-11T11:11:47Z</time>
      </trkpt>
      <trkpt lat="44.9415" lon="6.50192">
        <ele>2320.2</ele>
        <time>2024-08-11T11:11:48Z</time>
      </trkpt>
      <trkpt lat="44.9415" lon="6.50192">
        <ele>2320.4</ele>
        <time>2024-08-11T11:11:49Z</time>
      </trkpt>
      <trkpt lat="44.94148" lon="6.50193">
        <ele>2320.4</ele>
        <time>2024-08-11T11:11:50Z</time>
      </trkpt>
      <trkpt lat="44.94148" lon="6.50193">
        <ele>2321</ele>
        <time>2024-08-11T11:11:51Z</time>
      </trkpt>
      <trkpt lat="44.94146" lon="6.50195">
        <ele>2321</ele>
        <time>2024-08-11T11:11:52Z</time>
      </trkpt>
      <trkpt lat="44.94146" lon="6.50195">
        <ele>2321.2</ele>
        <time>2024-08-11T11:11:53Z</time>
      </trkpt>
      <trkpt lat="44.94146" lon="6.50195">
        <ele>2321.6</ele>
        <time>2024-08-11T11:11:54Z</time>
      </trkpt>
      <trkpt lat="44.94144" lon="6.50198">
        <ele>2321.8</ele>
        <time>2024-08-11T11:11:55Z</time>
      </trkpt>
      <trkpt lat="44.94144" lon="6.50198">
        <ele>2322</ele>
        <time>2024-08-11T11:11:56Z</time>
      </trkpt>
      <trkpt lat="44.94144" lon="6.50198">
        <ele>2322.2</ele>
        <time>2024-08-11T11:11:57Z</time>
      </trkpt>
      <trkpt lat="44.94141" lon="6.50199">
        <ele>2322.4</ele>
        <time>2024-08-11T11:11:58Z</time>
      </trkpt>
      <trkpt lat="44.94141" lon="6.50199">
        <ele>2322.4</ele>
        <time>2024-08-11T11:11:59Z</time>
      </trkpt>
      <trkpt lat="44.9414" lon="6.502">
        <ele>2322.4</ele>
        <time>2024-08-11T11:12:00Z</time>
      </trkpt>
      <trkpt lat="44.9414" lon="6.502">
        <ele>2322.4</ele>
        <time>2024-08-11T11:12:01Z</time>
      </trkpt>
      <trkpt lat="44.94139" lon="6.50203">
        <ele>2322.8</ele>
        <time>2024-08-11T11:12:02Z</time>
      </trkpt>
      <trkpt lat="44.94139" lon="6.50203">
        <ele>2322.8</ele>
        <time>2024-08-11T11:12:03Z</time>
      </trkpt>
      <trkpt lat="44.94138" lon="6.50205">
        <ele>2323.2</ele>
        <time>2024-08-11T11:12:04Z</time>
      </trkpt>
      <trkpt lat="44.94138" lon="6.50205">
        <ele>2323.4</ele>
        <time>2024-08-11T11:12:05Z</time>
      </trkpt>
      <trkpt lat="44.94137" lon="6.50208">
        <ele>2323.6</ele>
        <time>2024-08-11T11:12:06Z</time>
      </trkpt>
      <trkpt lat="44.94137" lon="6.50208">
        <ele>2323.8</ele>
        <time>2024-08-11T11:12:07Z</time>
      </trkpt>
      <trkpt lat="44.94136" lon="6.50211">
        <ele>2323.8</ele>
        <time>2024-08-11T11:12:08Z</time>
      </trkpt>
      <trkpt lat="44.94136" lon="6.50211">
        <ele>2323.8</ele>
        <time>2024-08-11T11:12:09Z</time>
      </trkpt>
      <trkpt lat="44.94136" lon="6.50214">
        <ele>2324.2</ele>
        <time>2024-08-11T11:12:10Z</time>
      </trkpt>
      <trkpt lat="44.94136" lon="6.50214">
        <ele>2324.6</ele>
        <time>2024-08-11T11:12:11Z</time>
      </trkpt>
      <trkpt lat="44.94136" lon="6.50217">
        <ele>2324.6</ele>
        <time>2024-08-11T11:12:12Z</time>
      </trkpt>
      <trkpt lat="44.94136" lon="6.50217">
        <ele>2324.6</ele>
        <time>2024-08-11T11:12:13Z</time>
      </trkpt>
      <trkpt lat="44.94136" lon="6.5022">
        <ele>2324.6</ele>
        <time>2024-08-11T11:12:14Z</time>
      </trkpt>
      <trkpt lat="44.94136" lon="6.5022">
        <ele>2324.6</ele>
        <time>2024-08-11T11:12:15Z</time>
      </trkpt>
      <trkpt lat="44.94136" lon="6.50223">
        <ele>2324.8</ele>
        <time>2024-08-11T11:12:16Z</time>
      </trkpt>
      <trkpt lat="44.94136" lon="6.50223">
        <ele>2324.8</ele>
        <time>2024-08-11T11:12:17Z</time>
      </trkpt>
      <trkpt lat="44.94136" lon="6.50226">
        <ele>2325</ele>
        <time>2024-08-11T11:12:18Z</time>
      </trkpt>
      <trkpt lat="44.94136" lon="6.50226">
        <ele>2325</ele>
        <time>2024-08-11T11:12:19Z</time>
      </trkpt>
      <trkpt lat="44.94137" lon="6.50229">
        <ele>2325</ele>
        <time>2024-08-11T11:12:20Z</time>
      </trkpt>
      <trkpt lat="44.94137" lon="6.50229">
        <ele>2325</ele>
        <time>2024-08-11T11:12:21Z</time>
      </trkpt>
      <trkpt lat="44.94137" lon="6.50232">
        <ele>2325</ele>
        <time>2024-08-11T11:12:22Z</time>
      </trkpt>
      <trkpt lat="44.94137" lon="6.50232">
        <ele>2325</ele>
        <time>2024-08-11T11:12:23Z</time>
      </trkpt>
      <trkpt lat="44.94137" lon="6.50232">
        <ele>2325.2</ele>
        <time>2024-08-11T11:12:24Z</time>
      </trkpt>
      <trkpt lat="44.94136" lon="6.50235">
        <ele>2325.6</ele>
        <time>2024-08-11T11:12:25Z</time>
      </trkpt>
      <trkpt lat="44.94136" lon="6.50235">
        <ele>2325.6</ele>
        <time>2024-08-11T11:12:26Z</time>
      </trkpt>
      <trkpt lat="44.94134" lon="6.50236">
        <ele>2325.8</ele>
        <time>2024-08-11T11:12:27Z</time>
      </trkpt>
      <trkpt lat="44.94134" lon="6.50236">
        <ele>2326</ele>
        <time>2024-08-11T11:12:28Z</time>
      </trkpt>
      <trkpt lat="44.94133" lon="6.50237">
        <ele>2326.2</ele>
        <time>2024-08-11T11:12:29Z</time>
      </trkpt>
      <trkpt lat="44.94133" lon="6.50237">
        <ele>2326.6</ele>
        <time>2024-08-11T11:12:30Z</time>
      </trkpt>
      <trkpt lat="44.9413" lon="6.50238">
        <ele>2326.6</ele>
        <time>2024-08-11T11:12:31Z</time>
      </trkpt>
      <trkpt lat="44.9413" lon="6.50238">
        <ele>2326.6</ele>
        <time>2024-08-11T11:12:32Z</time>
      </trkpt>
      <trkpt lat="44.9413" lon="6.50238">
        <ele>2326.6</ele>
        <time>2024-08-11T11:12:33Z</time>
      </trkpt>
      <trkpt lat="44.94128" lon="6.50239">
        <ele>2327.2</ele>
        <time>2024-08-11T11:12:34Z</time>
      </trkpt>
      <trkpt lat="44.94128" lon="6.50239">
        <ele>2327.2</ele>
        <time>2024-08-11T11:12:35Z</time>
      </trkpt>
      <trkpt lat="44.94128" lon="6.50239">
        <ele>2327.2</ele>
        <time>2024-08-11T11:12:36Z</time>
      </trkpt>
      <trkpt lat="44.94126" lon="6.5024">
        <ele>2327.4</ele>
        <time>2024-08-11T11:12:37Z</time>
      </trkpt>
      <trkpt lat="44.94126" lon="6.5024">
        <ele>2327.6</ele>
        <time>2024-08-11T11:12:38Z</time>
      </trkpt>
      <trkpt lat="44.94126" lon="6.5024">
        <ele>2327.6</ele>
        <time>2024-08-11T11:12:39Z</time>
      </trkpt>
      <trkpt lat="44.94124" lon="6.50241">
        <ele>2327.8</ele>
        <time>2024-08-11T11:12:40Z</time>
      </trkpt>
      <trkpt lat="44.94124" lon="6.50241">
        <ele>2328.4</ele>
        <time>2024-08-11T11:12:41Z</time>
      </trkpt>
      <trkpt lat="44.94124" lon="6.50241">
        <ele>2328.8</ele>
        <time>2024-08-11T11:12:42Z</time>
      </trkpt>
      <trkpt lat="44.94121" lon="6.50241">
        <ele>2328.8</ele>
        <time>2024-08-11T11:12:43Z</time>
      </trkpt>
      <trkpt lat="44.94121" lon="6.50241">
        <ele>2329</ele>
        <time>2024-08-11T11:12:44Z</time>
      </trkpt>
      <trkpt lat="44.94121" lon="6.50241">
        <ele>2329</ele>
        <time>2024-08-11T11:12:45Z</time>
      </trkpt>
      <trkpt lat="44.94119" lon="6.50241">
        <ele>2329</ele>
        <time>2024-08-11T11:12:46Z</time>
      </trkpt>
      <trkpt lat="44.94119" lon="6.50241">
        <ele>2329.4</ele>
        <time>2024-08-11T11:12:47Z</time>
      </trkpt>
      <trkpt lat="44.94119" lon="6.50241">
        <ele>2329.4</ele>
        <time>2024-08-11T11:12:48Z</time>
      </trkpt>
      <trkpt lat="44.94117" lon="6.50242">
        <ele>2329.4</ele>
        <time>2024-08-11T11:12:49Z</time>
      </trkpt>
      <trkpt lat="44.94117" lon="6.50242">
        <ele>2329.6</ele>
        <time>2024-08-11T11:12:50Z</time>
      </trkpt>
      <trkpt lat="44.94117" lon="6.50242">
        <ele>2329.8</ele>
        <time>2024-08-11T11:12:51Z</time>
      </trkpt>
      <trkpt lat="44.94115" lon="6.50243">
        <ele>2330</ele>
        <time>2024-08-11T11:12:52Z</time>
      </trkpt>
      <trkpt lat="44.94115" lon="6.50243">
        <ele>2330.4</ele>
        <time>2024-08-11T11:12:53Z</time>
      </trkpt>
      <trkpt lat="44.94115" lon="6.50243">
        <ele>2330.4</ele>
        <time>2024-08-11T11:12:54Z</time>
      </trkpt>
      <trkpt lat="44.94113" lon="6.50243">
        <ele>2330.4</ele>
        <time>2024-08-11T11:12:55Z</time>
      </trkpt>
      <trkpt lat="44.94113" lon="6.50243">
        <ele>2330.6</ele>
        <time>2024-08-11T11:12:56Z</time>
      </trkpt>
      <trkpt lat="44.94113" lon="6.50243">
        <ele>2330.8</ele>
        <time>2024-08-11T11:12:57Z</time>
      </trkpt>
      <trkpt lat="44.94111" lon="6.50244">
        <ele>2330.8</ele>
        <time>2024-08-11T11:12:58Z</time>
      </trkpt>
      <trkpt lat="44.94111" lon="6.50244">
        <ele>2331</ele>
        <time>2024-08-11T11:12:59Z</time>
      </trkpt>
      <trkpt lat="44.94111" lon="6.50244">
        <ele>2331</ele>
        <time>2024-08-11T11:13:00Z</time>
      </trkpt>
      <trkpt lat="44.94111" lon="6.50244">
        <ele>2331.4</ele>
        <time>2024-08-11T11:13:01Z</time>
      </trkpt>
      <trkpt lat="44.94108" lon="6.50245">
        <ele>2331.8</ele>
        <time>2024-08-11T11:13:02Z</time>
      </trkpt>
      <trkpt lat="44.94108" lon="6.50245">
        <ele>2331.8</ele>
        <time>2024-08-11T11:13:03Z</time>
      </trkpt>
      <trkpt lat="44.94108" lon="6.50245">
        <ele>2331.8</ele>
        <time>2024-08-11T11:13:04Z</time>
      </trkpt>
      <trkpt lat="44.94106" lon="6.50245">
        <ele>2332</ele>
        <time>2024-08-11T11:13:05Z</time>
      </trkpt>
      <trkpt lat="44.94106" lon="6.50245">
        <ele>2332.2</ele>
        <time>2024-08-11T11:13:06Z</time>
      </trkpt>
      <trkpt lat="44.94106" lon="6.50245">
        <ele>2332.2</ele>
        <time>2024-08-11T11:13:07Z</time>
      </trkpt>
      <trkpt lat="44.94106" lon="6.50245">
        <ele>2332.4</ele>
        <time>2024-08-11T11:13:08Z</time>
      </trkpt>
      <trkpt lat="44.94104" lon="6.50245">
        <ele>2332.4</ele>
        <time>2024-08-11T11:13:09Z</time>
      </trkpt>
      <trkpt lat="44.94104" lon="6.50245">
        <ele>2332.6</ele>
        <time>2024-08-11T11:13:10Z</time>
      </trkpt>
      <trkpt lat="44.94104" lon="6.50245">
        <ele>2332.8</ele>
        <time>2024-08-11T11:13:11Z</time>
      </trkpt>
      <trkpt lat="44.94101" lon="6.50246">
        <ele>2332.8</ele>
        <time>2024-08-11T11:13:12Z</time>
      </trkpt>
      <trkpt lat="44.94101" lon="6.50246">
        <ele>2333.2</ele>
        <time>2024-08-11T11:13:13Z</time>
      </trkpt>
      <trkpt lat="44.94101" lon="6.50246">
        <ele>2333.4</ele>
        <time>2024-08-11T11:13:14Z</time>
      </trkpt>
      <trkpt lat="44.94101" lon="6.50246">
        <ele>2333.6</ele>
        <time>2024-08-11T11:13:15Z</time>
      </trkpt>
      <trkpt lat="44.941" lon="6.50246">
        <ele>2333.8</ele>
        <time>2024-08-11T11:13:16Z</time>
      </trkpt>
      <trkpt lat="44.941" lon="6.50246">
        <ele>2334.2</ele>
        <time>2024-08-11T11:13:17Z</time>
      </trkpt>
      <trkpt lat="44.941" lon="6.50246">
        <ele>2334.2</ele>
        <time>2024-08-11T11:13:18Z</time>
      </trkpt>
      <trkpt lat="44.941" lon="6.50246">
        <ele>2334.2</ele>
        <time>2024-08-11T11:13:19Z</time>
      </trkpt>
      <trkpt lat="44.941" lon="6.50246">
        <ele>2334.6</ele>
        <time>2024-08-11T11:13:20Z</time>
      </trkpt>
      <trkpt lat="44.941" lon="6.50246">
        <ele>2334.6</ele>
        <time>2024-08-11T11:13:21Z</time>
      </trkpt>
      <trkpt lat="44.941" lon="6.50246">
        <ele>2334.6</ele>
        <time>2024-08-11T11:13:22Z</time>
      </trkpt>
      <trkpt lat="44.941" lon="6.50246">
        <ele>2334.6</ele>
        <time>2024-08-11T11:13:23Z</time>
      </trkpt>
      <trkpt lat="44.941" lon="6.50246">
        <ele>2334.8</ele>
        <time>2024-08-11T11:13:24Z</time>
      </trkpt>
      <trkpt lat="44.94097" lon="6.50246">
        <ele>2335</ele>
        <time>2024-08-11T11:13:25Z</time>
      </trkpt>
      <trkpt lat="44.94097" lon="6.50246">
        <ele>2335</ele>
        <time>2024-08-11T11:13:26Z</time>
      </trkpt>
      <trkpt lat="44.94095" lon="6.50246">
        <ele>2335.4</ele>
        <time>2024-08-11T11:13:27Z</time>
      </trkpt>
      <trkpt lat="44.94095" lon="6.50246">
        <ele>2335.6</ele>
        <time>2024-08-11T11:13:28Z</time>
      </trkpt>
      <trkpt lat="44.94095" lon="6.50246">
        <ele>2335.8</ele>
        <time>2024-08-11T11:13:29Z</time>
      </trkpt>
      <trkpt lat="44.94093" lon="6.50246">
        <ele>2336</ele>
        <time>2024-08-11T11:13:30Z</time>
      </trkpt>
      <trkpt lat="44.94093" lon="6.50246">
        <ele>2336.2</ele>
        <time>2024-08-11T11:13:31Z</time>
      </trkpt>
      <trkpt lat="44.94093" lon="6.50246">
        <ele>2336.2</ele>
        <time>2024-08-11T11:13:32Z</time>
      </trkpt>
      <trkpt lat="44.94091" lon="6.50247">
        <ele>2336.4</ele>
        <time>2024-08-11T11:13:33Z</time>
      </trkpt>
      <trkpt lat="44.94091" lon="6.50247">
        <ele>2336.8</ele>
        <time>2024-08-11T11:13:34Z</time>
      </trkpt>
      <trkpt lat="44.94091" lon="6.50247">
        <ele>2337</ele>
        <time>2024-08-11T11:13:35Z</time>
      </trkpt>
      <trkpt lat="44.94089" lon="6.50248">
        <ele>2337</ele>
        <time>2024-08-11T11:13:36Z</time>
      </trkpt>
      <trkpt lat="44.94089" lon="6.50248">
        <ele>2337</ele>
        <time>2024-08-11T11:13:37Z</time>
      </trkpt>
      <trkpt lat="44.94089" lon="6.50248">
        <ele>2337.4</ele>
        <time>2024-08-11T11:13:38Z</time>
      </trkpt>
      <trkpt lat="44.94086" lon="6.50248">
        <ele>2337.8</ele>
        <time>2024-08-11T11:13:39Z</time>
      </trkpt>
      <trkpt lat="44.94086" lon="6.50248">
        <ele>2337.8</ele>
        <time>2024-08-11T11:13:40Z</time>
      </trkpt>
      <trkpt lat="44.94086" lon="6.50248">
        <ele>2338</ele>
        <time>2024-08-11T11:13:41Z</time>
      </trkpt>
      <trkpt lat="44.94084" lon="6.50248">
        <ele>2338</ele>
        <time>2024-08-11T11:13:42Z</time>
      </trkpt>
      <trkpt lat="44.94084" lon="6.50248">
        <ele>2338</ele>
        <time>2024-08-11T11:13:43Z</time>
      </trkpt>
      <trkpt lat="44.94084" lon="6.50248">
        <ele>2338.6</ele>
        <time>2024-08-11T11:13:44Z</time>
      </trkpt>
      <trkpt lat="44.94082" lon="6.50248">
        <ele>2338.8</ele>
        <time>2024-08-11T11:13:45Z</time>
      </trkpt>
      <trkpt lat="44.94082" lon="6.50248">
        <ele>2339</ele>
        <time>2024-08-11T11:13:46Z</time>
      </trkpt>
      <trkpt lat="44.94082" lon="6.50248">
        <ele>2339</ele>
        <time>2024-08-11T11:13:47Z</time>
      </trkpt>
      <trkpt lat="44.9408" lon="6.50248">
        <ele>2339</ele>
        <time>2024-08-11T11:13:48Z</time>
      </trkpt>
      <trkpt lat="44.9408" lon="6.50248">
        <ele>2339.4</ele>
        <time>2024-08-11T11:13:49Z</time>
      </trkpt>
      <trkpt lat="44.9408" lon="6.50248">
        <ele>2339.4</ele>
        <time>2024-08-11T11:13:50Z</time>
      </trkpt>
      <trkpt lat="44.94078" lon="6.50247">
        <ele>2339.6</ele>
        <time>2024-08-11T11:13:51Z</time>
      </trkpt>
      <trkpt lat="44.94078" lon="6.50247">
        <ele>2340</ele>
        <time>2024-08-11T11:13:52Z</time>
      </trkpt>
      <trkpt lat="44.94078" lon="6.50247">
        <ele>2340</ele>
        <time>2024-08-11T11:13:53Z</time>
      </trkpt>
      <trkpt lat="44.94076" lon="6.50247">
        <ele>2340</ele>
        <time>2024-08-11T11:13:54Z</time>
      </trkpt>
      <trkpt lat="44.94076" lon="6.50247">
        <ele>2340</ele>
        <time>2024-08-11T11:13:55Z</time>
      </trkpt>
      <trkpt lat="44.94074" lon="6.50247">
        <ele>2340.8</ele>
        <time>2024-08-11T11:13:56Z</time>
      </trkpt>
      <trkpt lat="44.94074" lon="6.50247">
        <ele>2341</ele>
        <time>2024-08-11T11:13:57Z</time>
      </trkpt>
      <trkpt lat="44.94074" lon="6.50247">
        <ele>2341</ele>
        <time>2024-08-11T11:13:58Z</time>
      </trkpt>
      <trkpt lat="44.94072" lon="6.50247">
        <ele>2341.2</ele>
        <time>2024-08-11T11:13:59Z</time>
      </trkpt>
      <trkpt lat="44.94072" lon="6.50247">
        <ele>2341.4</ele>
        <time>2024-08-11T11:14:00Z</time>
      </trkpt>
      <trkpt lat="44.94072" lon="6.50247">
        <ele>2341.6</ele>
        <time>2024-08-11T11:14:01Z</time>
      </trkpt>
      <trkpt lat="44.9407" lon="6.50247">
        <ele>2342.6</ele>
        <time>2024-08-11T11:14:02Z</time>
      </trkpt>
      <trkpt lat="44.9407" lon="6.50247">
        <ele>2342.6</ele>
        <time>2024-08-11T11:14:03Z</time>
      </trkpt>
      <trkpt lat="44.9407" lon="6.50247">
        <ele>2342.6</ele>
        <time>2024-08-11T11:14:04Z</time>
      </trkpt>
      <trkpt lat="44.9407" lon="6.50247">
        <ele>2342.6</ele>
        <time>2024-08-11T11:14:05Z</time>
      </trkpt>
      <trkpt lat="44.94068" lon="6.50247">
        <ele>2342.8</ele>
        <time>2024-08-11T11:14:06Z</time>
      </trkpt>
      <trkpt lat="44.94068" lon="6.50247">
        <ele>2343</ele>
        <time>2024-08-11T11:14:07Z</time>
      </trkpt>
      <trkpt lat="44.94068" lon="6.50247">
        <ele>2343.2</ele>
        <time>2024-08-11T11:14:08Z</time>
      </trkpt>
      <trkpt lat="44.94066" lon="6.50247">
        <ele>2343.4</ele>
        <time>2024-08-11T11:14:09Z</time>
      </trkpt>
      <trkpt lat="44.94066" lon="6.50247">
        <ele>2343.6</ele>
        <time>2024-08-11T11:14:10Z</time>
      </trkpt>
      <trkpt lat="44.94066" lon="6.50247">
        <ele>2343.8</ele>
        <time>2024-08-11T11:14:11Z</time>
      </trkpt>
      <trkpt lat="44.94064" lon="6.50248">
        <ele>2344</ele>
        <time>2024-08-11T11:14:12Z</time>
      </trkpt>
      <trkpt lat="44.94064" lon="6.50248">
        <ele>2344.2</ele>
        <time>2024-08-11T11:14:13Z</time>
      </trkpt>
      <trkpt lat="44.94064" lon="6.50248">
        <ele>2344.6</ele>
        <time>2024-08-11T11:14:14Z</time>
      </trkpt>
      <trkpt lat="44.94062" lon="6.50249">
        <ele>2344.8</ele>
        <time>2024-08-11T11:14:15Z</time>
      </trkpt>
      <trkpt lat="44.94062" lon="6.50249">
        <ele>2345</ele>
        <time>2024-08-11T11:14:16Z</time>
      </trkpt>
      <trkpt lat="44.94062" lon="6.50249">
        <ele>2345</ele>
        <time>2024-08-11T11:14:17Z</time>
      </trkpt>
      <trkpt lat="44.94061" lon="6.50251">
        <ele>2345.2</ele>
        <time>2024-08-11T11:14:18Z</time>
      </trkpt>
      <trkpt lat="44.94061" lon="6.50251">
        <ele>2345.4</ele>
        <time>2024-08-11T11:14:19Z</time>
      </trkpt>
      <trkpt lat="44.94061" lon="6.50251">
        <ele>2345.6</ele>
        <time>2024-08-11T11:14:20Z</time>
      </trkpt>
      <trkpt lat="44.94061" lon="6.50251">
        <ele>2345.6</ele>
        <time>2024-08-11T11:14:21Z</time>
      </trkpt>
      <trkpt lat="44.94058" lon="6.50252">
        <ele>2345.8</ele>
        <time>2024-08-11T11:14:22Z</time>
      </trkpt>
      <trkpt lat="44.94058" lon="6.50252">
        <ele>2346.2</ele>
        <time>2024-08-11T11:14:23Z</time>
      </trkpt>
      <trkpt lat="44.94058" lon="6.50252">
        <ele>2346.4</ele>
        <time>2024-08-11T11:14:24Z</time>
      </trkpt>
      <trkpt lat="44.94057" lon="6.50254">
        <ele>2346.4</ele>
        <time>2024-08-11T11:14:25Z</time>
      </trkpt>
      <trkpt lat="44.94057" lon="6.50254">
        <ele>2346.4</ele>
        <time>2024-08-11T11:14:26Z</time>
      </trkpt>
      <trkpt lat="44.94057" lon="6.50254">
        <ele>2347.4</ele>
        <time>2024-08-11T11:14:27Z</time>
      </trkpt>
      <trkpt lat="44.94055" lon="6.50255">
        <ele>2347.4</ele>
        <time>2024-08-11T11:14:28Z</time>
      </trkpt>
      <trkpt lat="44.94055" lon="6.50255">
        <ele>2347.4</ele>
        <time>2024-08-11T11:14:29Z</time>
      </trkpt>
      <trkpt lat="44.94055" lon="6.50255">
        <ele>2347.4</ele>
        <time>2024-08-11T11:14:30Z</time>
      </trkpt>
      <trkpt lat="44.94055" lon="6.50255">
        <ele>2347.4</ele>
        <time>2024-08-11T11:14:31Z</time>
      </trkpt>
      <trkpt lat="44.94053" lon="6.50257">
        <ele>2347.6</ele>
        <time>2024-08-11T11:14:32Z</time>
      </trkpt>
      <trkpt lat="44.94053" lon="6.50257">
        <ele>2347.6</ele>
        <time>2024-08-11T11:14:33Z</time>
      </trkpt>
      <trkpt lat="44.94053" lon="6.50257">
        <ele>2348.2</ele>
        <time>2024-08-11T11:14:34Z</time>
      </trkpt>
      <trkpt lat="44.94052" lon="6.50258">
        <ele>2348.2</ele>
        <time>2024-08-11T11:14:35Z</time>
      </trkpt>
      <trkpt lat="44.94052" lon="6.50258">
        <ele>2348.4</ele>
        <time>2024-08-11T11:14:36Z</time>
      </trkpt>
      <trkpt lat="44.94052" lon="6.50258">
        <ele>2349</ele>
        <time>2024-08-11T11:14:37Z</time>
      </trkpt>
      <trkpt lat="44.94052" lon="6.50258">
        <ele>2349</ele>
        <time>2024-08-11T11:14:38Z</time>
      </trkpt>
      <trkpt lat="44.94049" lon="6.50259">
        <ele>2349.2</ele>
        <time>2024-08-11T11:14:39Z</time>
      </trkpt>
      <trkpt lat="44.94049" lon="6.50259">
        <ele>2349.2</ele>
        <time>2024-08-11T11:14:40Z</time>
      </trkpt>
      <trkpt lat="44.94049" lon="6.50259">
        <ele>2349.2</ele>
        <time>2024-08-11T11:14:41Z</time>
      </trkpt>
      <trkpt lat="44.94049" lon="6.50259">
        <ele>2349.4</ele>
        <time>2024-08-11T11:14:42Z</time>
      </trkpt>
      <trkpt lat="44.94047" lon="6.5026">
        <ele>2349.6</ele>
        <time>2024-08-11T11:14:43Z</time>
      </trkpt>
      <trkpt lat="44.94047" lon="6.5026">
        <ele>2349.8</ele>
        <time>2024-08-11T11:14:44Z</time>
      </trkpt>
      <trkpt lat="44.94047" lon="6.5026">
        <ele>2350</ele>
        <time>2024-08-11T11:14:45Z</time>
      </trkpt>
      <trkpt lat="44.94045" lon="6.50261">
        <ele>2350.4</ele>
        <time>2024-08-11T11:14:46Z</time>
      </trkpt>
      <trkpt lat="44.94045" lon="6.50261">
        <ele>2350.4</ele>
        <time>2024-08-11T11:14:47Z</time>
      </trkpt>
      <trkpt lat="44.94045" lon="6.50261">
        <ele>2350.6</ele>
        <time>2024-08-11T11:14:48Z</time>
      </trkpt>
      <trkpt lat="44.94043" lon="6.50262">
        <ele>2350.8</ele>
        <time>2024-08-11T11:14:49Z</time>
      </trkpt>
      <trkpt lat="44.94043" lon="6.50262">
        <ele>2351</ele>
        <time>2024-08-11T11:14:50Z</time>
      </trkpt>
      <trkpt lat="44.94043" lon="6.50262">
        <ele>2351</ele>
        <time>2024-08-11T11:14:51Z</time>
      </trkpt>
      <trkpt lat="44.94041" lon="6.50263">
        <ele>2351.4</ele>
        <time>2024-08-11T11:14:52Z</time>
      </trkpt>
      <trkpt lat="44.94041" lon="6.50263">
        <ele>2351.4</ele>
        <time>2024-08-11T11:14:53Z</time>
      </trkpt>
      <trkpt lat="44.94041" lon="6.50263">
        <ele>2351.6</ele>
        <time>2024-08-11T11:14:54Z</time>
      </trkpt>
      <trkpt lat="44.94041" lon="6.50263">
        <ele>2351.8</ele>
        <time>2024-08-11T11:14:55Z</time>
      </trkpt>
      <trkpt lat="44.94039" lon="6.50264">
        <ele>2352.4</ele>
        <time>2024-08-11T11:14:56Z</time>
      </trkpt>
      <trkpt lat="44.94039" lon="6.50264">
        <ele>2352.4</ele>
        <time>2024-08-11T11:14:57Z</time>
      </trkpt>
      <trkpt lat="44.94039" lon="6.50264">
        <ele>2352.8</ele>
        <time>2024-08-11T11:14:58Z</time>
      </trkpt>
      <trkpt lat="44.94037" lon="6.50265">
        <ele>2353.2</ele>
        <time>2024-08-11T11:14:59Z</time>
      </trkpt>
      <trkpt lat="44.94037" lon="6.50265">
        <ele>2353.2</ele>
        <time>2024-08-11T11:15:00Z</time>
      </trkpt>
      <trkpt lat="44.94037" lon="6.50265">
        <ele>2353.2</ele>
        <time>2024-08-11T11:15:01Z</time>
      </trkpt>
      <trkpt lat="44.94035" lon="6.50265">
        <ele>2353.8</ele>
        <time>2024-08-11T11:15:02Z</time>
      </trkpt>
      <trkpt lat="44.94035" lon="6.50265">
        <ele>2353.8</ele>
        <time>2024-08-11T11:15:03Z</time>
      </trkpt>
      <trkpt lat="44.94035" lon="6.50265">
        <ele>2353.8</ele>
        <time>2024-08-11T11:15:04Z</time>
      </trkpt>
      <trkpt lat="44.94033" lon="6.50265">
        <ele>2354.2</ele>
        <time>2024-08-11T11:15:05Z</time>
      </trkpt>
      <trkpt lat="44.94033" lon="6.50265">
        <ele>2354.4</ele>
        <time>2024-08-11T11:15:06Z</time>
      </trkpt>
      <trkpt lat="44.94033" lon="6.50265">
        <ele>2354.4</ele>
        <time>2024-08-11T11:15:07Z</time>
      </trkpt>
      <trkpt lat="44.94031" lon="6.50266">
        <ele>2354.8</ele>
        <time>2024-08-11T11:15:08Z</time>
      </trkpt>
      <trkpt lat="44.94031" lon="6.50266">
        <ele>2355.2</ele>
        <time>2024-08-11T11:15:09Z</time>
      </trkpt>
      <trkpt lat="44.94031" lon="6.50266">
        <ele>2355.2</ele>
        <time>2024-08-11T11:15:10Z</time>
      </trkpt>
      <trkpt lat="44.94029" lon="6.50266">
        <ele>2355.4</ele>
        <time>2024-08-11T11:15:11Z</time>
      </trkpt>
      <trkpt lat="44.94029" lon="6.50266">
        <ele>2355.4</ele>
        <time>2024-08-11T11:15:12Z</time>
      </trkpt>
      <trkpt lat="44.94029" lon="6.50266">
        <ele>2356</ele>
        <time>2024-08-11T11:15:13Z</time>
      </trkpt>
      <trkpt lat="44.94027" lon="6.50267">
        <ele>2356</ele>
        <time>2024-08-11T11:15:14Z</time>
      </trkpt>
      <trkpt lat="44.94027" lon="6.50267">
        <ele>2356</ele>
        <time>2024-08-11T11:15:15Z</time>
      </trkpt>
      <trkpt lat="44.94027" lon="6.50267">
        <ele>2356.2</ele>
        <time>2024-08-11T11:15:16Z</time>
      </trkpt>
      <trkpt lat="44.94027" lon="6.50267">
        <ele>2356.6</ele>
        <time>2024-08-11T11:15:17Z</time>
      </trkpt>
      <trkpt lat="44.94024" lon="6.50268">
        <ele>2356.8</ele>
        <time>2024-08-11T11:15:18Z</time>
      </trkpt>
      <trkpt lat="44.94024" lon="6.50268">
        <ele>2356.8</ele>
        <time>2024-08-11T11:15:19Z</time>
      </trkpt>
      <trkpt lat="44.94024" lon="6.50268">
        <ele>2356.8</ele>
        <time>2024-08-11T11:15:20Z</time>
      </trkpt>
      <trkpt lat="44.94022" lon="6.50269">
        <ele>2357.4</ele>
        <time>2024-08-11T11:15:21Z</time>
      </trkpt>
      <trkpt lat="44.94022" lon="6.50269">
        <ele>2357.4</ele>
        <time>2024-08-11T11:15:22Z</time>
      </trkpt>
      <trkpt lat="44.94022" lon="6.50269">
        <ele>2358</ele>
        <time>2024-08-11T11:15:23Z</time>
      </trkpt>
      <trkpt lat="44.9402" lon="6.50269">
        <ele>2358.2</ele>
        <time>2024-08-11T11:15:24Z</time>
      </trkpt>
      <trkpt lat="44.9402" lon="6.50269">
        <ele>2358.4</ele>
        <time>2024-08-11T11:15:25Z</time>
      </trkpt>
      <trkpt lat="44.9402" lon="6.50269">
        <ele>2358.6</ele>
        <time>2024-08-11T11:15:26Z</time>
      </trkpt>
      <trkpt lat="44.94018" lon="6.50269">
        <ele>2358.8</ele>
        <time>2024-08-11T11:15:27Z</time>
      </trkpt>
      <trkpt lat="44.94018" lon="6.50269">
        <ele>2359.2</ele>
        <time>2024-08-11T11:15:28Z</time>
      </trkpt>
      <trkpt lat="44.94018" lon="6.50269">
        <ele>2359.6</ele>
        <time>2024-08-11T11:15:29Z</time>
      </trkpt>
      <trkpt lat="44.94015" lon="6.5027">
        <ele>2359.6</ele>
        <time>2024-08-11T11:15:30Z</time>
      </trkpt>
      <trkpt lat="44.94015" lon="6.5027">
        <ele>2360</ele>
        <time>2024-08-11T11:15:31Z</time>
      </trkpt>
      <trkpt lat="44.94013" lon="6.50271">
        <ele>2360.2</ele>
        <time>2024-08-11T11:15:32Z</time>
      </trkpt>
      <trkpt lat="44.94013" lon="6.50271">
        <ele>2360.2</ele>
        <time>2024-08-11T11:15:33Z</time>
      </trkpt>
      <trkpt lat="44.94013" lon="6.50271">
        <ele>2360.2</ele>
        <time>2024-08-11T11:15:34Z</time>
      </trkpt>
      <trkpt lat="44.94011" lon="6.50272">
        <ele>2360.2</ele>
        <time>2024-08-11T11:15:35Z</time>
      </trkpt>
      <trkpt lat="44.94011" lon="6.50272">
        <ele>2360.4</ele>
        <time>2024-08-11T11:15:36Z</time>
      </trkpt>
      <trkpt lat="44.94011" lon="6.50272">
        <ele>2361</ele>
        <time>2024-08-11T11:15:37Z</time>
      </trkpt>
      <trkpt lat="44.94011" lon="6.50272">
        <ele>2361.2</ele>
        <time>2024-08-11T11:15:38Z</time>
      </trkpt>
      <trkpt lat="44.94009" lon="6.50273">
        <ele>2361.2</ele>
        <time>2024-08-11T11:15:39Z</time>
      </trkpt>
      <trkpt lat="44.94009" lon="6.50273">
        <ele>2361.4</ele>
        <time>2024-08-11T11:15:40Z</time>
      </trkpt>
      <trkpt lat="44.94009" lon="6.50273">
        <ele>2361.6</ele>
        <time>2024-08-11T11:15:41Z</time>
      </trkpt>
      <trkpt lat="44.94007" lon="6.50275">
        <ele>2362</ele>
        <time>2024-08-11T11:15:42Z</time>
      </trkpt>
      <trkpt lat="44.94007" lon="6.50275">
        <ele>2362</ele>
        <time>2024-08-11T11:15:43Z</time>
      </trkpt>
      <trkpt lat="44.94007" lon="6.50275">
        <ele>2362</ele>
        <time>2024-08-11T11:15:44Z</time>
      </trkpt>
      <trkpt lat="44.94006" lon="6.50277">
        <ele>2362.6</ele>
        <time>2024-08-11T11:15:45Z</time>
      </trkpt>
      <trkpt lat="44.94006" lon="6.50277">
        <ele>2362.8</ele>
        <time>2024-08-11T11:15:46Z</time>
      </trkpt>
      <trkpt lat="44.94004" lon="6.50277">
        <ele>2363.2</ele>
        <time>2024-08-11T11:15:47Z</time>
      </trkpt>
      <trkpt lat="44.94004" lon="6.50277">
        <ele>2363.6</ele>
        <time>2024-08-11T11:15:48Z</time>
      </trkpt>
      <trkpt lat="44.94002" lon="6.50276">
        <ele>2363.6</ele>
        <time>2024-08-11T11:15:49Z</time>
      </trkpt>
      <trkpt lat="44.94002" lon="6.50276">
        <ele>2363.6</ele>
        <time>2024-08-11T11:15:50Z</time>
      </trkpt>
      <trkpt lat="44.94" lon="6.50275">
        <ele>2363.6</ele>
        <time>2024-08-11T11:15:51Z</time>
      </trkpt>
      <trkpt lat="44.94" lon="6.50275">
        <ele>2363.8</ele>
        <time>2024-08-11T11:15:52Z</time>
      </trkpt>
      <trkpt lat="44.93998" lon="6.50275">
        <ele>2363.8</ele>
        <time>2024-08-11T11:15:53Z</time>
      </trkpt>
      <trkpt lat="44.93998" lon="6.50275">
        <ele>2363.8</ele>
        <time>2024-08-11T11:15:54Z</time>
      </trkpt>
      <trkpt lat="44.93996" lon="6.50275">
        <ele>2363.8</ele>
        <time>2024-08-11T11:15:55Z</time>
      </trkpt>
      <trkpt lat="44.93996" lon="6.50275">
        <ele>2364</ele>
        <time>2024-08-11T11:15:56Z</time>
      </trkpt>
      <trkpt lat="44.93994" lon="6.50274">
        <ele>2364.2</ele>
        <time>2024-08-11T11:15:57Z</time>
      </trkpt>
      <trkpt lat="44.93994" lon="6.50274">
        <ele>2364.4</ele>
        <time>2024-08-11T11:15:58Z</time>
      </trkpt>
      <trkpt lat="44.93994" lon="6.50274">
        <ele>2364.4</ele>
        <time>2024-08-11T11:15:59Z</time>
      </trkpt>
      <trkpt lat="44.93991" lon="6.50275">
        <ele>2364.6</ele>
        <time>2024-08-11T11:16:00Z</time>
      </trkpt>
      <trkpt lat="44.93991" lon="6.50275">
        <ele>2364.6</ele>
        <time>2024-08-11T11:16:01Z</time>
      </trkpt>
      <trkpt lat="44.93989" lon="6.50275">
        <ele>2365</ele>
        <time>2024-08-11T11:16:02Z</time>
      </trkpt>
      <trkpt lat="44.93989" lon="6.50275">
        <ele>2365</ele>
        <time>2024-08-11T11:16:03Z</time>
      </trkpt>
      <trkpt lat="44.93987" lon="6.50275">
        <ele>2365.4</ele>
        <time>2024-08-11T11:16:04Z</time>
      </trkpt>
      <trkpt lat="44.93987" lon="6.50275">
        <ele>2365.6</ele>
        <time>2024-08-11T11:16:05Z</time>
      </trkpt>
      <trkpt lat="44.93985" lon="6.50275">
        <ele>2365.6</ele>
        <time>2024-08-11T11:16:06Z</time>
      </trkpt>
      <trkpt lat="44.93985" lon="6.50275">
        <ele>2365.8</ele>
        <time>2024-08-11T11:16:07Z</time>
      </trkpt>
      <trkpt lat="44.93983" lon="6.50275">
        <ele>2366</ele>
        <time>2024-08-11T11:16:08Z</time>
      </trkpt>
      <trkpt lat="44.93983" lon="6.50275">
        <ele>2366</ele>
        <time>2024-08-11T11:16:09Z</time>
      </trkpt>
      <trkpt lat="44.93983" lon="6.50275">
        <ele>2366.2</ele>
        <time>2024-08-11T11:16:10Z</time>
      </trkpt>
      <trkpt lat="44.93981" lon="6.50275">
        <ele>2366.2</ele>
        <time>2024-08-11T11:16:11Z</time>
      </trkpt>
      <trkpt lat="44.93981" lon="6.50275">
        <ele>2366.2</ele>
        <time>2024-08-11T11:16:12Z</time>
      </trkpt>
      <trkpt lat="44.93979" lon="6.50275">
        <ele>2366.6</ele>
        <time>2024-08-11T11:16:13Z</time>
      </trkpt>
      <trkpt lat="44.93979" lon="6.50275">
        <ele>2366.8</ele>
        <time>2024-08-11T11:16:14Z</time>
      </trkpt>
      <trkpt lat="44.93979" lon="6.50275">
        <ele>2367.2</ele>
        <time>2024-08-11T11:16:15Z</time>
      </trkpt>
      <trkpt lat="44.93976" lon="6.50275">
        <ele>2367.4</ele>
        <time>2024-08-11T11:16:16Z</time>
      </trkpt>
      <trkpt lat="44.93976" lon="6.50275">
        <ele>2367.4</ele>
        <time>2024-08-11T11:16:17Z</time>
      </trkpt>
      <trkpt lat="44.93976" lon="6.50275">
        <ele>2367.8</ele>
        <time>2024-08-11T11:16:18Z</time>
      </trkpt>
      <trkpt lat="44.93973" lon="6.50276">
        <ele>2368</ele>
        <time>2024-08-11T11:16:19Z</time>
      </trkpt>
      <trkpt lat="44.93973" lon="6.50276">
        <ele>2368.2</ele>
        <time>2024-08-11T11:16:20Z</time>
      </trkpt>
      <trkpt lat="44.93973" lon="6.50276">
        <ele>2368.2</ele>
        <time>2024-08-11T11:16:21Z</time>
      </trkpt>
      <trkpt lat="44.93971" lon="6.50276">
        <ele>2368.6</ele>
        <time>2024-08-11T11:16:22Z</time>
      </trkpt>
      <trkpt lat="44.93971" lon="6.50276">
        <ele>2369</ele>
        <time>2024-08-11T11:16:23Z</time>
      </trkpt>
      <trkpt lat="44.93969" lon="6.50277">
        <ele>2369</ele>
        <time>2024-08-11T11:16:24Z</time>
      </trkpt>
      <trkpt lat="44.93969" lon="6.50277">
        <ele>2369</ele>
        <time>2024-08-11T11:16:25Z</time>
      </trkpt>
      <trkpt lat="44.93969" lon="6.50277">
        <ele>2369</ele>
        <time>2024-08-11T11:16:26Z</time>
      </trkpt>
      <trkpt lat="44.93967" lon="6.50277">
        <ele>2369.4</ele>
        <time>2024-08-11T11:16:27Z</time>
      </trkpt>
      <trkpt lat="44.93967" lon="6.50277">
        <ele>2369.6</ele>
        <time>2024-08-11T11:16:28Z</time>
      </trkpt>
      <trkpt lat="44.93967" lon="6.50277">
        <ele>2369.8</ele>
        <time>2024-08-11T11:16:29Z</time>
      </trkpt>
      <trkpt lat="44.93965" lon="6.50279">
        <ele>2370</ele>
        <time>2024-08-11T11:16:30Z</time>
      </trkpt>
      <trkpt lat="44.93965" lon="6.50279">
        <ele>2370.2</ele>
        <time>2024-08-11T11:16:31Z</time>
      </trkpt>
      <trkpt lat="44.93963" lon="6.5028">
        <ele>2370.2</ele>
        <time>2024-08-11T11:16:32Z</time>
      </trkpt>
      <trkpt lat="44.93963" lon="6.5028">
        <ele>2370.8</ele>
        <time>2024-08-11T11:16:33Z</time>
      </trkpt>
      <trkpt lat="44.93961" lon="6.5028">
        <ele>2370.8</ele>
        <time>2024-08-11T11:16:34Z</time>
      </trkpt>
      <trkpt lat="44.93961" lon="6.5028">
        <ele>2371</ele>
        <time>2024-08-11T11:16:35Z</time>
      </trkpt>
      <trkpt lat="44.93959" lon="6.50281">
        <ele>2371.2</ele>
        <time>2024-08-11T11:16:36Z</time>
      </trkpt>
      <trkpt lat="44.93959" lon="6.50281">
        <ele>2371.2</ele>
        <time>2024-08-11T11:16:37Z</time>
      </trkpt>
      <trkpt lat="44.93957" lon="6.50282">
        <ele>2371.4</ele>
        <time>2024-08-11T11:16:38Z</time>
      </trkpt>
      <trkpt lat="44.93957" lon="6.50282">
        <ele>2372.2</ele>
        <time>2024-08-11T11:16:39Z</time>
      </trkpt>
      <trkpt lat="44.93955" lon="6.50283">
        <ele>2372.4</ele>
        <time>2024-08-11T11:16:40Z</time>
      </trkpt>
      <trkpt lat="44.93955" lon="6.50283">
        <ele>2372.4</ele>
        <time>2024-08-11T11:16:41Z</time>
      </trkpt>
      <trkpt lat="44.93953" lon="6.50284">
        <ele>2372.4</ele>
        <time>2024-08-11T11:16:42Z</time>
      </trkpt>
      <trkpt lat="44.93953" lon="6.50284">
        <ele>2372.4</ele>
        <time>2024-08-11T11:16:43Z</time>
      </trkpt>
      <trkpt lat="44.93951" lon="6.50284">
        <ele>2372.4</ele>
        <time>2024-08-11T11:16:44Z</time>
      </trkpt>
      <trkpt lat="44.93951" lon="6.50284">
        <ele>2372.6</ele>
        <time>2024-08-11T11:16:45Z</time>
      </trkpt>
      <trkpt lat="44.93951" lon="6.50284">
        <ele>2372.8</ele>
        <time>2024-08-11T11:16:46Z</time>
      </trkpt>
      <trkpt lat="44.93949" lon="6.50285">
        <ele>2372.8</ele>
        <time>2024-08-11T11:16:47Z</time>
      </trkpt>
      <trkpt lat="44.93949" lon="6.50285">
        <ele>2373</ele>
        <time>2024-08-11T11:16:48Z</time>
      </trkpt>
      <trkpt lat="44.93949" lon="6.50288">
        <ele>2373.2</ele>
        <time>2024-08-11T11:16:49Z</time>
      </trkpt>
      <trkpt lat="44.93949" lon="6.50288">
        <ele>2373.4</ele>
        <time>2024-08-11T11:16:50Z</time>
      </trkpt>
      <trkpt lat="44.93946" lon="6.50289">
        <ele>2373.6</ele>
        <time>2024-08-11T11:16:51Z</time>
      </trkpt>
      <trkpt lat="44.93946" lon="6.50289">
        <ele>2373.8</ele>
        <time>2024-08-11T11:16:52Z</time>
      </trkpt>
      <trkpt lat="44.93946" lon="6.50289">
        <ele>2374.2</ele>
        <time>2024-08-11T11:16:53Z</time>
      </trkpt>
      <trkpt lat="44.93944" lon="6.5029">
        <ele>2374.4</ele>
        <time>2024-08-11T11:16:54Z</time>
      </trkpt>
      <trkpt lat="44.93944" lon="6.5029">
        <ele>2374.4</ele>
        <time>2024-08-11T11:16:55Z</time>
      </trkpt>
      <trkpt lat="44.93942" lon="6.50291">
        <ele>2374.8</ele>
        <time>2024-08-11T11:16:56Z</time>
      </trkpt>
      <trkpt lat="44.93942" lon="6.50291">
        <ele>2374.8</ele>
        <time>2024-08-11T11:16:57Z</time>
      </trkpt>
      <trkpt lat="44.93942" lon="6.50291">
        <ele>2374.8</ele>
        <time>2024-08-11T11:16:58Z</time>
      </trkpt>
      <trkpt lat="44.9394" lon="6.50292">
        <ele>2375</ele>
        <time>2024-08-11T11:16:59Z</time>
      </trkpt>
      <trkpt lat="44.9394" lon="6.50292">
        <ele>2375.2</ele>
        <time>2024-08-11T11:17:00Z</time>
      </trkpt>
      <trkpt lat="44.93938" lon="6.50292">
        <ele>2375.2</ele>
        <time>2024-08-11T11:17:01Z</time>
      </trkpt>
      <trkpt lat="44.93938" lon="6.50292">
        <ele>2375.8</ele>
        <time>2024-08-11T11:17:02Z</time>
      </trkpt>
      <trkpt lat="44.93938" lon="6.50292">
        <ele>2375.8</ele>
        <time>2024-08-11T11:17:03Z</time>
      </trkpt>
      <trkpt lat="44.93935" lon="6.50293">
        <ele>2376</ele>
        <time>2024-08-11T11:17:04Z</time>
      </trkpt>
      <trkpt lat="44.93935" lon="6.50293">
        <ele>2376.2</ele>
        <time>2024-08-11T11:17:05Z</time>
      </trkpt>
      <trkpt lat="44.93935" lon="6.50293">
        <ele>2376.2</ele>
        <time>2024-08-11T11:17:06Z</time>
      </trkpt>
      <trkpt lat="44.93933" lon="6.50293">
        <ele>2376.6</ele>
        <time>2024-08-11T11:17:07Z</time>
      </trkpt>
      <trkpt lat="44.93933" lon="6.50293">
        <ele>2376.8</ele>
        <time>2024-08-11T11:17:08Z</time>
      </trkpt>
      <trkpt lat="44.93933" lon="6.50293">
        <ele>2376.8</ele>
        <time>2024-08-11T11:17:09Z</time>
      </trkpt>
      <trkpt lat="44.9393" lon="6.50294">
        <ele>2376.8</ele>
        <time>2024-08-11T11:17:10Z</time>
      </trkpt>
      <trkpt lat="44.9393" lon="6.50294">
        <ele>2377</ele>
        <time>2024-08-11T11:17:11Z</time>
      </trkpt>
      <trkpt lat="44.93928" lon="6.50295">
        <ele>2377.2</ele>
        <time>2024-08-11T11:17:12Z</time>
      </trkpt>
      <trkpt lat="44.93928" lon="6.50295">
        <ele>2377.6</ele>
        <time>2024-08-11T11:17:13Z</time>
      </trkpt>
      <trkpt lat="44.93928" lon="6.50295">
        <ele>2377.8</ele>
        <time>2024-08-11T11:17:14Z</time>
      </trkpt>
      <trkpt lat="44.93925" lon="6.50296">
        <ele>2377.8</ele>
        <time>2024-08-11T11:17:15Z</time>
      </trkpt>
      <trkpt lat="44.93925" lon="6.50296">
        <ele>2377.8</ele>
        <time>2024-08-11T11:17:16Z</time>
      </trkpt>
      <trkpt lat="44.93923" lon="6.50297">
        <ele>2378.2</ele>
        <time>2024-08-11T11:17:17Z</time>
      </trkpt>
      <trkpt lat="44.93923" lon="6.50297">
        <ele>2378.4</ele>
        <time>2024-08-11T11:17:18Z</time>
      </trkpt>
      <trkpt lat="44.93923" lon="6.50297">
        <ele>2378.4</ele>
        <time>2024-08-11T11:17:19Z</time>
      </trkpt>
      <trkpt lat="44.93921" lon="6.50299">
        <ele>2378.6</ele>
        <time>2024-08-11T11:17:20Z</time>
      </trkpt>
      <trkpt lat="44.93921" lon="6.50299">
        <ele>2378.8</ele>
        <time>2024-08-11T11:17:21Z</time>
      </trkpt>
      <trkpt lat="44.93921" lon="6.50299">
        <ele>2379</ele>
        <time>2024-08-11T11:17:22Z</time>
      </trkpt>
      <trkpt lat="44.93918" lon="6.503">
        <ele>2379.2</ele>
        <time>2024-08-11T11:17:23Z</time>
      </trkpt>
      <trkpt lat="44.93918" lon="6.503">
        <ele>2379.6</ele>
        <time>2024-08-11T11:17:24Z</time>
      </trkpt>
      <trkpt lat="44.93918" lon="6.503">
        <ele>2379.6</ele>
        <time>2024-08-11T11:17:25Z</time>
      </trkpt>
      <trkpt lat="44.93916" lon="6.50301">
        <ele>2379.6</ele>
        <time>2024-08-11T11:17:26Z</time>
      </trkpt>
      <trkpt lat="44.93916" lon="6.50301">
        <ele>2379.8</ele>
        <time>2024-08-11T11:17:27Z</time>
      </trkpt>
      <trkpt lat="44.93914" lon="6.50302">
        <ele>2380</ele>
        <time>2024-08-11T11:17:28Z</time>
      </trkpt>
      <trkpt lat="44.93914" lon="6.50302">
        <ele>2380.2</ele>
        <time>2024-08-11T11:17:29Z</time>
      </trkpt>
      <trkpt lat="44.93912" lon="6.50303">
        <ele>2380.4</ele>
        <time>2024-08-11T11:17:30Z</time>
      </trkpt>
      <trkpt lat="44.93912" lon="6.50303">
        <ele>2380.6</ele>
        <time>2024-08-11T11:17:31Z</time>
      </trkpt>
      <trkpt lat="44.9391" lon="6.50304">
        <ele>2380.6</ele>
        <time>2024-08-11T11:17:32Z</time>
      </trkpt>
      <trkpt lat="44.9391" lon="6.50304">
        <ele>2381</ele>
        <time>2024-08-11T11:17:33Z</time>
      </trkpt>
      <trkpt lat="44.9391" lon="6.50304">
        <ele>2381</ele>
        <time>2024-08-11T11:17:34Z</time>
      </trkpt>
      <trkpt lat="44.93907" lon="6.50304">
        <ele>2381.2</ele>
        <time>2024-08-11T11:17:35Z</time>
      </trkpt>
      <trkpt lat="44.93907" lon="6.50304">
        <ele>2381.2</ele>
        <time>2024-08-11T11:17:36Z</time>
      </trkpt>
      <trkpt lat="44.93907" lon="6.50304">
        <ele>2381.4</ele>
        <time>2024-08-11T11:17:37Z</time>
      </trkpt>
      <trkpt lat="44.93905" lon="6.50306">
        <ele>2381.8</ele>
        <time>2024-08-11T11:17:38Z</time>
      </trkpt>
      <trkpt lat="44.93905" lon="6.50306">
        <ele>2382</ele>
        <time>2024-08-11T11:17:39Z</time>
      </trkpt>
      <trkpt lat="44.93903" lon="6.50306">
        <ele>2382.2</ele>
        <time>2024-08-11T11:17:40Z</time>
      </trkpt>
      <trkpt lat="44.93903" lon="6.50306">
        <ele>2382.4</ele>
        <time>2024-08-11T11:17:41Z</time>
      </trkpt>
      <trkpt lat="44.93901" lon="6.50307">
        <ele>2382.4</ele>
        <time>2024-08-11T11:17:42Z</time>
      </trkpt>
      <trkpt lat="44.93901" lon="6.50307">
        <ele>2382.4</ele>
        <time>2024-08-11T11:17:43Z</time>
      </trkpt>
      <trkpt lat="44.93899" lon="6.50307">
        <ele>2382.4</ele>
        <time>2024-08-11T11:17:44Z</time>
      </trkpt>
      <trkpt lat="44.93899" lon="6.50307">
        <ele>2382.8</ele>
        <time>2024-08-11T11:17:45Z</time>
      </trkpt>
      <trkpt lat="44.93897" lon="6.50308">
        <ele>2383.2</ele>
        <time>2024-08-11T11:17:46Z</time>
      </trkpt>
      <trkpt lat="44.93897" lon="6.50308">
        <ele>2383.2</ele>
        <time>2024-08-11T11:17:47Z</time>
      </trkpt>
      <trkpt lat="44.93897" lon="6.50308">
        <ele>2383.4</ele>
        <time>2024-08-11T11:17:48Z</time>
      </trkpt>
      <trkpt lat="44.93894" lon="6.50308">
        <ele>2383.6</ele>
        <time>2024-08-11T11:17:49Z</time>
      </trkpt>
      <trkpt lat="44.93894" lon="6.50308">
        <ele>2383.8</ele>
        <time>2024-08-11T11:17:50Z</time>
      </trkpt>
      <trkpt lat="44.93892" lon="6.5031">
        <ele>2383.8</ele>
        <time>2024-08-11T11:17:51Z</time>
      </trkpt>
      <trkpt lat="44.93892" lon="6.5031">
        <ele>2384</ele>
        <time>2024-08-11T11:17:52Z</time>
      </trkpt>
      <trkpt lat="44.9389" lon="6.5031">
        <ele>2384.2</ele>
        <time>2024-08-11T11:17:53Z</time>
      </trkpt>
      <trkpt lat="44.9389" lon="6.5031">
        <ele>2384.6</ele>
        <time>2024-08-11T11:17:54Z</time>
      </trkpt>
      <trkpt lat="44.9389" lon="6.5031">
        <ele>2384.6</ele>
        <time>2024-08-11T11:17:55Z</time>
      </trkpt>
      <trkpt lat="44.93888" lon="6.50311">
        <ele>2384.8</ele>
        <time>2024-08-11T11:17:56Z</time>
      </trkpt>
      <trkpt lat="44.93888" lon="6.50311">
        <ele>2384.8</ele>
        <time>2024-08-11T11:17:57Z</time>
      </trkpt>
      <trkpt lat="44.93886" lon="6.50311">
        <ele>2384.8</ele>
        <time>2024-08-11T11:17:58Z</time>
      </trkpt>
      <trkpt lat="44.93886" lon="6.50311">
        <ele>2385</ele>
        <time>2024-08-11T11:17:59Z</time>
      </trkpt>
      <trkpt lat="44.93884" lon="6.50312">
        <ele>2385.2</ele>
        <time>2024-08-11T11:18:00Z</time>
      </trkpt>
      <trkpt lat="44.93884" lon="6.50312">
        <ele>2385.2</ele>
        <time>2024-08-11T11:18:01Z</time>
      </trkpt>
      <trkpt lat="44.93882" lon="6.50313">
        <ele>2385.4</ele>
        <time>2024-08-11T11:18:02Z</time>
      </trkpt>
      <trkpt lat="44.93882" lon="6.50313">
        <ele>2385.4</ele>
        <time>2024-08-11T11:18:03Z</time>
      </trkpt>
      <trkpt lat="44.9388" lon="6.50313">
        <ele>2385.6</ele>
        <time>2024-08-11T11:18:04Z</time>
      </trkpt>
      <trkpt lat="44.9388" lon="6.50313">
        <ele>2385.8</ele>
        <time>2024-08-11T11:18:05Z</time>
      </trkpt>
      <trkpt lat="44.9388" lon="6.50313">
        <ele>2386</ele>
        <time>2024-08-11T11:18:06Z</time>
      </trkpt>
      <trkpt lat="44.9388" lon="6.50313">
        <ele>2386</ele>
        <time>2024-08-11T11:18:07Z</time>
      </trkpt>
      <trkpt lat="44.9388" lon="6.50313">
        <ele>2386.6</ele>
        <time>2024-08-11T11:18:08Z</time>
      </trkpt>
      <trkpt lat="44.9388" lon="6.50313">
        <ele>2387</ele>
        <time>2024-08-11T11:18:09Z</time>
      </trkpt>
      <trkpt lat="44.9388" lon="6.50313">
        <ele>2387</ele>
        <time>2024-08-11T11:18:10Z</time>
      </trkpt>
      <trkpt lat="44.9388" lon="6.50313">
        <ele>2386.8</ele>
        <time>2024-08-11T11:18:11Z</time>
      </trkpt>
      <trkpt lat="44.9388" lon="6.50313">
        <ele>2386.8</ele>
        <time>2024-08-11T11:18:12Z</time>
      </trkpt>
      <trkpt lat="44.9388" lon="6.50313">
        <ele>2386.8</ele>
        <time>2024-08-11T11:18:13Z</time>
      </trkpt>
      <trkpt lat="44.9388" lon="6.50313">
        <ele>2386.8</ele>
        <time>2024-08-11T11:18:14Z</time>
      </trkpt>
      <trkpt lat="44.9388" lon="6.50313">
        <ele>2386.8</ele>
        <time>2024-08-11T11:18:15Z</time>
      </trkpt>
      <trkpt lat="44.9388" lon="6.50313">
        <ele>2386.8</ele>
        <time>2024-08-11T11:18:16Z</time>
      </trkpt>
      <trkpt lat="44.9388" lon="6.50313">
        <ele>2386.6</ele>
        <time>2024-08-11T11:18:17Z</time>
      </trkpt>
      <trkpt lat="44.9388" lon="6.50313">
        <ele>2386.6</ele>
        <time>2024-08-11T11:18:18Z</time>
      </trkpt>
      <trkpt lat="44.93878" lon="6.50312">
        <ele>2386.8</ele>
        <time>2024-08-11T11:18:19Z</time>
      </trkpt>
      <trkpt lat="44.93878" lon="6.50312">
        <ele>2386.8</ele>
        <time>2024-08-11T11:18:20Z</time>
      </trkpt>
      <trkpt lat="44.93876" lon="6.50313">
        <ele>2387</ele>
        <time>2024-08-11T11:18:21Z</time>
      </trkpt>
      <trkpt lat="44.93876" lon="6.50313">
        <ele>2387</ele>
        <time>2024-08-11T11:18:22Z</time>
      </trkpt>
      <trkpt lat="44.93873" lon="6.50314">
        <ele>2387.2</ele>
        <time>2024-08-11T11:18:23Z</time>
      </trkpt>
      <trkpt lat="44.93873" lon="6.50314">
        <ele>2387.4</ele>
        <time>2024-08-11T11:18:24Z</time>
      </trkpt>
      <trkpt lat="44.9387" lon="6.50314">
        <ele>2387.6</ele>
        <time>2024-08-11T11:18:25Z</time>
      </trkpt>
      <trkpt lat="44.9387" lon="6.50314">
        <ele>2387.8</ele>
        <time>2024-08-11T11:18:26Z</time>
      </trkpt>
      <trkpt lat="44.93868" lon="6.50315">
        <ele>2388</ele>
        <time>2024-08-11T11:18:27Z</time>
      </trkpt>
      <trkpt lat="44.93868" lon="6.50315">
        <ele>2388.2</ele>
        <time>2024-08-11T11:18:28Z</time>
      </trkpt>
      <trkpt lat="44.93866" lon="6.50317">
        <ele>2388.4</ele>
        <time>2024-08-11T11:18:29Z</time>
      </trkpt>
      <trkpt lat="44.93866" lon="6.50317">
        <ele>2388.4</ele>
        <time>2024-08-11T11:18:30Z</time>
      </trkpt>
      <trkpt lat="44.93864" lon="6.50318">
        <ele>2388.4</ele>
        <time>2024-08-11T11:18:31Z</time>
      </trkpt>
      <trkpt lat="44.93864" lon="6.50318">
        <ele>2388.4</ele>
        <time>2024-08-11T11:18:32Z</time>
      </trkpt>
      <trkpt lat="44.93861" lon="6.50319">
        <ele>2388.6</ele>
        <time>2024-08-11T11:18:33Z</time>
      </trkpt>
      <trkpt lat="44.93861" lon="6.50319">
        <ele>2388.6</ele>
        <time>2024-08-11T11:18:34Z</time>
      </trkpt>
      <trkpt lat="44.93859" lon="6.5032">
        <ele>2388.8</ele>
        <time>2024-08-11T11:18:35Z</time>
      </trkpt>
      <trkpt lat="44.93859" lon="6.5032">
        <ele>2389</ele>
        <time>2024-08-11T11:18:36Z</time>
      </trkpt>
      <trkpt lat="44.93857" lon="6.5032">
        <ele>2389.2</ele>
        <time>2024-08-11T11:18:37Z</time>
      </trkpt>
      <trkpt lat="44.93857" lon="6.5032">
        <ele>2389.4</ele>
        <time>2024-08-11T11:18:38Z</time>
      </trkpt>
      <trkpt lat="44.93857" lon="6.5032">
        <ele>2389.4</ele>
        <time>2024-08-11T11:18:39Z</time>
      </trkpt>
      <trkpt lat="44.93854" lon="6.50321">
        <ele>2389.6</ele>
        <time>2024-08-11T11:18:40Z</time>
      </trkpt>
      <trkpt lat="44.93854" lon="6.50321">
        <ele>2390.2</ele>
        <time>2024-08-11T11:18:41Z</time>
      </trkpt>
      <trkpt lat="44.93852" lon="6.50322">
        <ele>2390.2</ele>
        <time>2024-08-11T11:18:42Z</time>
      </trkpt>
      <trkpt lat="44.93852" lon="6.50322">
        <ele>2390.2</ele>
        <time>2024-08-11T11:18:43Z</time>
      </trkpt>
      <trkpt lat="44.9385" lon="6.50322">
        <ele>2390.2</ele>
        <time>2024-08-11T11:18:44Z</time>
      </trkpt>
      <trkpt lat="44.9385" lon="6.50322">
        <ele>2390.6</ele>
        <time>2024-08-11T11:18:45Z</time>
      </trkpt>
      <trkpt lat="44.93848" lon="6.50323">
        <ele>2390.6</ele>
        <time>2024-08-11T11:18:46Z</time>
      </trkpt>
      <trkpt lat="44.93848" lon="6.50323">
        <ele>2390.6</ele>
        <time>2024-08-11T11:18:47Z</time>
      </trkpt>
      <trkpt lat="44.93848" lon="6.50323">
        <ele>2390.8</ele>
        <time>2024-08-11T11:18:48Z</time>
      </trkpt>
      <trkpt lat="44.93845" lon="6.50323">
        <ele>2391</ele>
        <time>2024-08-11T11:18:49Z</time>
      </trkpt>
      <trkpt lat="44.93845" lon="6.50323">
        <ele>2391.2</ele>
        <time>2024-08-11T11:18:50Z</time>
      </trkpt>
      <trkpt lat="44.93843" lon="6.50324">
        <ele>2391.2</ele>
        <time>2024-08-11T11:18:51Z</time>
      </trkpt>
      <trkpt lat="44.93843" lon="6.50324">
        <ele>2391.4</ele>
        <time>2024-08-11T11:18:52Z</time>
      </trkpt>
      <trkpt lat="44.93841" lon="6.50324">
        <ele>2391.8</ele>
        <time>2024-08-11T11:18:53Z</time>
      </trkpt>
      <trkpt lat="44.93841" lon="6.50324">
        <ele>2392.2</ele>
        <time>2024-08-11T11:18:54Z</time>
      </trkpt>
      <trkpt lat="44.93839" lon="6.50325">
        <ele>2392.4</ele>
        <time>2024-08-11T11:18:55Z</time>
      </trkpt>
      <trkpt lat="44.93839" lon="6.50325">
        <ele>2392.6</ele>
        <time>2024-08-11T11:18:56Z</time>
      </trkpt>
      <trkpt lat="44.93839" lon="6.50325">
        <ele>2392.6</ele>
        <time>2024-08-11T11:18:57Z</time>
      </trkpt>
      <trkpt lat="44.93837" lon="6.50326">
        <ele>2392.6</ele>
        <time>2024-08-11T11:18:58Z</time>
      </trkpt>
      <trkpt lat="44.93837" lon="6.50326">
        <ele>2392.8</ele>
        <time>2024-08-11T11:18:59Z</time>
      </trkpt>
      <trkpt lat="44.93835" lon="6.50327">
        <ele>2393</ele>
        <time>2024-08-11T11:19:00Z</time>
      </trkpt>
      <trkpt lat="44.93835" lon="6.50327">
        <ele>2393.2</ele>
        <time>2024-08-11T11:19:01Z</time>
      </trkpt>
      <trkpt lat="44.93832" lon="6.50327">
        <ele>2393</ele>
        <time>2024-08-11T11:19:02Z</time>
      </trkpt>
      <trkpt lat="44.93832" lon="6.50327">
        <ele>2393</ele>
        <time>2024-08-11T11:19:03Z</time>
      </trkpt>
      <trkpt lat="44.9383" lon="6.50328">
        <ele>2393.2</ele>
        <time>2024-08-11T11:19:04Z</time>
      </trkpt>
      <trkpt lat="44.9383" lon="6.50328">
        <ele>2393.4</ele>
        <time>2024-08-11T11:19:05Z</time>
      </trkpt>
      <trkpt lat="44.93828" lon="6.50329">
        <ele>2393.6</ele>
        <time>2024-08-11T11:19:06Z</time>
      </trkpt>
      <trkpt lat="44.93828" lon="6.50329">
        <ele>2393.8</ele>
        <time>2024-08-11T11:19:07Z</time>
      </trkpt>
      <trkpt lat="44.93826" lon="6.5033">
        <ele>2393.8</ele>
        <time>2024-08-11T11:19:08Z</time>
      </trkpt>
      <trkpt lat="44.93826" lon="6.5033">
        <ele>2393.8</ele>
        <time>2024-08-11T11:19:09Z</time>
      </trkpt>
      <trkpt lat="44.93824" lon="6.50331">
        <ele>2394</ele>
        <time>2024-08-11T11:19:10Z</time>
      </trkpt>
      <trkpt lat="44.93824" lon="6.50331">
        <ele>2394</ele>
        <time>2024-08-11T11:19:11Z</time>
      </trkpt>
      <trkpt lat="44.93821" lon="6.50331">
        <ele>2394.4</ele>
        <time>2024-08-11T11:19:12Z</time>
      </trkpt>
      <trkpt lat="44.93821" lon="6.50331">
        <ele>2394.4</ele>
        <time>2024-08-11T11:19:13Z</time>
      </trkpt>
      <trkpt lat="44.93819" lon="6.50332">
        <ele>2394.4</ele>
        <time>2024-08-11T11:19:14Z</time>
      </trkpt>
      <trkpt lat="44.93819" lon="6.50332">
        <ele>2394.4</ele>
        <time>2024-08-11T11:19:15Z</time>
      </trkpt>
      <trkpt lat="44.93817" lon="6.50333">
        <ele>2394.4</ele>
        <time>2024-08-11T11:19:16Z</time>
      </trkpt>
      <trkpt lat="44.93817" lon="6.50333">
        <ele>2394.6</ele>
        <time>2024-08-11T11:19:17Z</time>
      </trkpt>
      <trkpt lat="44.93815" lon="6.50334">
        <ele>2394.6</ele>
        <time>2024-08-11T11:19:18Z</time>
      </trkpt>
      <trkpt lat="44.93815" lon="6.50334">
        <ele>2394.8</ele>
        <time>2024-08-11T11:19:19Z</time>
      </trkpt>
      <trkpt lat="44.93813" lon="6.50335">
        <ele>2394.8</ele>
        <time>2024-08-11T11:19:20Z</time>
      </trkpt>
      <trkpt lat="44.93813" lon="6.50335">
        <ele>2395</ele>
        <time>2024-08-11T11:19:21Z</time>
      </trkpt>
      <trkpt lat="44.93811" lon="6.50336">
        <ele>2395.2</ele>
        <time>2024-08-11T11:19:22Z</time>
      </trkpt>
      <trkpt lat="44.93811" lon="6.50336">
        <ele>2395.6</ele>
        <time>2024-08-11T11:19:23Z</time>
      </trkpt>
      <trkpt lat="44.93808" lon="6.50337">
        <ele>2395.6</ele>
        <time>2024-08-11T11:19:24Z</time>
      </trkpt>
      <trkpt lat="44.93808" lon="6.50337">
        <ele>2395.8</ele>
        <time>2024-08-11T11:19:25Z</time>
      </trkpt>
      <trkpt lat="44.93806" lon="6.50338">
        <ele>2396</ele>
        <time>2024-08-11T11:19:26Z</time>
      </trkpt>
      <trkpt lat="44.93806" lon="6.50338">
        <ele>2396.2</ele>
        <time>2024-08-11T11:19:27Z</time>
      </trkpt>
      <trkpt lat="44.93804" lon="6.50339">
        <ele>2396.2</ele>
        <time>2024-08-11T11:19:28Z</time>
      </trkpt>
      <trkpt lat="44.93804" lon="6.50339">
        <ele>2396.2</ele>
        <time>2024-08-11T11:19:29Z</time>
      </trkpt>
      <trkpt lat="44.93802" lon="6.5034">
        <ele>2396.4</ele>
        <time>2024-08-11T11:19:30Z</time>
      </trkpt>
      <trkpt lat="44.93802" lon="6.5034">
        <ele>2396.4</ele>
        <time>2024-08-11T11:19:31Z</time>
      </trkpt>
      <trkpt lat="44.938" lon="6.50341">
        <ele>2396.6</ele>
        <time>2024-08-11T11:19:32Z</time>
      </trkpt>
      <trkpt lat="44.938" lon="6.50341">
        <ele>2396.8</ele>
        <time>2024-08-11T11:19:33Z</time>
      </trkpt>
      <trkpt lat="44.93798" lon="6.50342">
        <ele>2396.8</ele>
        <time>2024-08-11T11:19:34Z</time>
      </trkpt>
      <trkpt lat="44.93798" lon="6.50342">
        <ele>2396.8</ele>
        <time>2024-08-11T11:19:35Z</time>
      </trkpt>
      <trkpt lat="44.93796" lon="6.50343">
        <ele>2397.2</ele>
        <time>2024-08-11T11:19:36Z</time>
      </trkpt>
      <trkpt lat="44.93796" lon="6.50343">
        <ele>2397.2</ele>
        <time>2024-08-11T11:19:37Z</time>
      </trkpt>
      <trkpt lat="44.93793" lon="6.50345">
        <ele>2397.2</ele>
        <time>2024-08-11T11:19:38Z</time>
      </trkpt>
      <trkpt lat="44.93793" lon="6.50345">
        <ele>2397.2</ele>
        <time>2024-08-11T11:19:39Z</time>
      </trkpt>
      <trkpt lat="44.93791" lon="6.50347">
        <ele>2397.2</ele>
        <time>2024-08-11T11:19:40Z</time>
      </trkpt>
      <trkpt lat="44.93791" lon="6.50347">
        <ele>2397.4</ele>
        <time>2024-08-11T11:19:41Z</time>
      </trkpt>
      <trkpt lat="44.93789" lon="6.50348">
        <ele>2397.4</ele>
        <time>2024-08-11T11:19:42Z</time>
      </trkpt>
      <trkpt lat="44.93789" lon="6.50348">
        <ele>2397.6</ele>
        <time>2024-08-11T11:19:43Z</time>
      </trkpt>
      <trkpt lat="44.93787" lon="6.50349">
        <ele>2397.8</ele>
        <time>2024-08-11T11:19:44Z</time>
      </trkpt>
      <trkpt lat="44.93787" lon="6.50349">
        <ele>2397.8</ele>
        <time>2024-08-11T11:19:45Z</time>
      </trkpt>
      <trkpt lat="44.93785" lon="6.50351">
        <ele>2397.8</ele>
        <time>2024-08-11T11:19:46Z</time>
      </trkpt>
      <trkpt lat="44.93785" lon="6.50351">
        <ele>2397.8</ele>
        <time>2024-08-11T11:19:47Z</time>
      </trkpt>
      <trkpt lat="44.93783" lon="6.50352">
        <ele>2397.8</ele>
        <time>2024-08-11T11:19:48Z</time>
      </trkpt>
      <trkpt lat="44.93783" lon="6.50352">
        <ele>2398</ele>
        <time>2024-08-11T11:19:49Z</time>
      </trkpt>
      <trkpt lat="44.93781" lon="6.50354">
        <ele>2398</ele>
        <time>2024-08-11T11:19:50Z</time>
      </trkpt>
      <trkpt lat="44.93781" lon="6.50354">
        <ele>2398.4</ele>
        <time>2024-08-11T11:19:51Z</time>
      </trkpt>
      <trkpt lat="44.93779" lon="6.50355">
        <ele>2398.6</ele>
        <time>2024-08-11T11:19:52Z</time>
      </trkpt>
      <trkpt lat="44.93779" lon="6.50355">
        <ele>2398.8</ele>
        <time>2024-08-11T11:19:53Z</time>
      </trkpt>
      <trkpt lat="44.93777" lon="6.50357">
        <ele>2399.2</ele>
        <time>2024-08-11T11:19:54Z</time>
      </trkpt>
      <trkpt lat="44.93777" lon="6.50357">
        <ele>2399.2</ele>
        <time>2024-08-11T11:19:55Z</time>
      </trkpt>
      <trkpt lat="44.93775" lon="6.50358">
        <ele>2399.2</ele>
        <time>2024-08-11T11:19:56Z</time>
      </trkpt>
      <trkpt lat="44.93775" lon="6.50358">
        <ele>2399.2</ele>
        <time>2024-08-11T11:19:57Z</time>
      </trkpt>
      <trkpt lat="44.93773" lon="6.5036">
        <ele>2399.2</ele>
        <time>2024-08-11T11:19:58Z</time>
      </trkpt>
      <trkpt lat="44.93773" lon="6.5036">
        <ele>2399.6</ele>
        <time>2024-08-11T11:19:59Z</time>
      </trkpt>
      <trkpt lat="44.93771" lon="6.50361">
        <ele>2400</ele>
        <time>2024-08-11T11:20:00Z</time>
      </trkpt>
      <trkpt lat="44.93771" lon="6.50361">
        <ele>2400.2</ele>
        <time>2024-08-11T11:20:01Z</time>
      </trkpt>
      <trkpt lat="44.93769" lon="6.50362">
        <ele>2400.4</ele>
        <time>2024-08-11T11:20:02Z</time>
      </trkpt>
      <trkpt lat="44.93769" lon="6.50362">
        <ele>2400.4</ele>
        <time>2024-08-11T11:20:03Z</time>
      </trkpt>
      <trkpt lat="44.93767" lon="6.50363">
        <ele>2400.4</ele>
        <time>2024-08-11T11:20:04Z</time>
      </trkpt>
      <trkpt lat="44.93767" lon="6.50363">
        <ele>2400.4</ele>
        <time>2024-08-11T11:20:05Z</time>
      </trkpt>
      <trkpt lat="44.93765" lon="6.50365">
        <ele>2400.6</ele>
        <time>2024-08-11T11:20:06Z</time>
      </trkpt>
      <trkpt lat="44.93765" lon="6.50365">
        <ele>2400.8</ele>
        <time>2024-08-11T11:20:07Z</time>
      </trkpt>
      <trkpt lat="44.93763" lon="6.50366">
        <ele>2400.8</ele>
        <time>2024-08-11T11:20:08Z</time>
      </trkpt>
      <trkpt lat="44.93763" lon="6.50366">
        <ele>2401</ele>
        <time>2024-08-11T11:20:09Z</time>
      </trkpt>
      <trkpt lat="44.93763" lon="6.50366">
        <ele>2401.6</ele>
        <time>2024-08-11T11:20:10Z</time>
      </trkpt>
      <trkpt lat="44.93761" lon="6.50367">
        <ele>2401.6</ele>
        <time>2024-08-11T11:20:11Z</time>
      </trkpt>
      <trkpt lat="44.93761" lon="6.50367">
        <ele>2401.6</ele>
        <time>2024-08-11T11:20:12Z</time>
      </trkpt>
      <trkpt lat="44.93758" lon="6.50368">
        <ele>2401.8</ele>
        <time>2024-08-11T11:20:13Z</time>
      </trkpt>
      <trkpt lat="44.93758" lon="6.50368">
        <ele>2402</ele>
        <time>2024-08-11T11:20:14Z</time>
      </trkpt>
      <trkpt lat="44.93757" lon="6.50369">
        <ele>2402</ele>
        <time>2024-08-11T11:20:15Z</time>
      </trkpt>
      <trkpt lat="44.93757" lon="6.50369">
        <ele>2402</ele>
        <time>2024-08-11T11:20:16Z</time>
      </trkpt>
      <trkpt lat="44.93755" lon="6.50371">
        <ele>2402.4</ele>
        <time>2024-08-11T11:20:17Z</time>
      </trkpt>
      <trkpt lat="44.93755" lon="6.50371">
        <ele>2402.4</ele>
        <time>2024-08-11T11:20:18Z</time>
      </trkpt>
      <trkpt lat="44.93753" lon="6.50373">
        <ele>2402</ele>
        <time>2024-08-11T11:20:19Z</time>
      </trkpt>
      <trkpt lat="44.93753" lon="6.50373">
        <ele>2402</ele>
        <time>2024-08-11T11:20:20Z</time>
      </trkpt>
      <trkpt lat="44.93753" lon="6.50373">
        <ele>2402.4</ele>
        <time>2024-08-11T11:20:21Z</time>
      </trkpt>
      <trkpt lat="44.9375" lon="6.50374">
        <ele>2402.6</ele>
        <time>2024-08-11T11:20:22Z</time>
      </trkpt>
      <trkpt lat="44.9375" lon="6.50374">
        <ele>2402.8</ele>
        <time>2024-08-11T11:20:23Z</time>
      </trkpt>
      <trkpt lat="44.93748" lon="6.50376">
        <ele>2403</ele>
        <time>2024-08-11T11:20:24Z</time>
      </trkpt>
      <trkpt lat="44.93748" lon="6.50376">
        <ele>2403</ele>
        <time>2024-08-11T11:20:25Z</time>
      </trkpt>
      <trkpt lat="44.93746" lon="6.50377">
        <ele>2403.2</ele>
        <time>2024-08-11T11:20:26Z</time>
      </trkpt>
      <trkpt lat="44.93746" lon="6.50377">
        <ele>2403.2</ele>
        <time>2024-08-11T11:20:27Z</time>
      </trkpt>
      <trkpt lat="44.93743" lon="6.50378">
        <ele>2403.4</ele>
        <time>2024-08-11T11:20:28Z</time>
      </trkpt>
      <trkpt lat="44.93743" lon="6.50378">
        <ele>2403.4</ele>
        <time>2024-08-11T11:20:29Z</time>
      </trkpt>
      <trkpt lat="44.93741" lon="6.5038">
        <ele>2403.6</ele>
        <time>2024-08-11T11:20:30Z</time>
      </trkpt>
      <trkpt lat="44.93741" lon="6.5038">
        <ele>2403.6</ele>
        <time>2024-08-11T11:20:31Z</time>
      </trkpt>
      <trkpt lat="44.93739" lon="6.50381">
        <ele>2403.8</ele>
        <time>2024-08-11T11:20:32Z</time>
      </trkpt>
      <trkpt lat="44.93739" lon="6.50381">
        <ele>2404.2</ele>
        <time>2024-08-11T11:20:33Z</time>
      </trkpt>
      <trkpt lat="44.93737" lon="6.50382">
        <ele>2404.2</ele>
        <time>2024-08-11T11:20:34Z</time>
      </trkpt>
      <trkpt lat="44.93737" lon="6.50382">
        <ele>2404.4</ele>
        <time>2024-08-11T11:20:35Z</time>
      </trkpt>
      <trkpt lat="44.93734" lon="6.50383">
        <ele>2404.4</ele>
        <time>2024-08-11T11:20:36Z</time>
      </trkpt>
      <trkpt lat="44.93734" lon="6.50383">
        <ele>2404.6</ele>
        <time>2024-08-11T11:20:37Z</time>
      </trkpt>
      <trkpt lat="44.93732" lon="6.50384">
        <ele>2404.8</ele>
        <time>2024-08-11T11:20:38Z</time>
      </trkpt>
      <trkpt lat="44.93732" lon="6.50384">
        <ele>2404.8</ele>
        <time>2024-08-11T11:20:39Z</time>
      </trkpt>
      <trkpt lat="44.9373" lon="6.50385">
        <ele>2404.8</ele>
        <time>2024-08-11T11:20:40Z</time>
      </trkpt>
      <trkpt lat="44.9373" lon="6.50385">
        <ele>2405</ele>
        <time>2024-08-11T11:20:41Z</time>
      </trkpt>
      <trkpt lat="44.93727" lon="6.50386">
        <ele>2405</ele>
        <time>2024-08-11T11:20:42Z</time>
      </trkpt>
      <trkpt lat="44.93727" lon="6.50386">
        <ele>2405.2</ele>
        <time>2024-08-11T11:20:43Z</time>
      </trkpt>
      <trkpt lat="44.93725" lon="6.50386">
        <ele>2405.4</ele>
        <time>2024-08-11T11:20:44Z</time>
      </trkpt>
      <trkpt lat="44.93725" lon="6.50386">
        <ele>2405.4</ele>
        <time>2024-08-11T11:20:45Z</time>
      </trkpt>
      <trkpt lat="44.93723" lon="6.50387">
        <ele>2405.4</ele>
        <time>2024-08-11T11:20:46Z</time>
      </trkpt>
      <trkpt lat="44.93723" lon="6.50387">
        <ele>2405.4</ele>
        <time>2024-08-11T11:20:47Z</time>
      </trkpt>
      <trkpt lat="44.9372" lon="6.50388">
        <ele>2405.4</ele>
        <time>2024-08-11T11:20:48Z</time>
      </trkpt>
      <trkpt lat="44.9372" lon="6.50388">
        <ele>2405.4</ele>
        <time>2024-08-11T11:20:49Z</time>
      </trkpt>
      <trkpt lat="44.93718" lon="6.50389">
        <ele>2405.8</ele>
        <time>2024-08-11T11:20:50Z</time>
      </trkpt>
      <trkpt lat="44.93718" lon="6.50389">
        <ele>2406.4</ele>
        <time>2024-08-11T11:20:51Z</time>
      </trkpt>
      <trkpt lat="44.93715" lon="6.50389">
        <ele>2407</ele>
        <time>2024-08-11T11:20:52Z</time>
      </trkpt>
      <trkpt lat="44.93715" lon="6.50389">
        <ele>2407</ele>
        <time>2024-08-11T11:20:53Z</time>
      </trkpt>
      <trkpt lat="44.93713" lon="6.5039">
        <ele>2407</ele>
        <time>2024-08-11T11:20:54Z</time>
      </trkpt>
      <trkpt lat="44.93713" lon="6.5039">
        <ele>2406.8</ele>
        <time>2024-08-11T11:20:55Z</time>
      </trkpt>
      <trkpt lat="44.93711" lon="6.50391">
        <ele>2406.8</ele>
        <time>2024-08-11T11:20:56Z</time>
      </trkpt>
      <trkpt lat="44.93711" lon="6.50391">
        <ele>2406.8</ele>
        <time>2024-08-11T11:20:57Z</time>
      </trkpt>
      <trkpt lat="44.93709" lon="6.50391">
        <ele>2406.8</ele>
        <time>2024-08-11T11:20:58Z</time>
      </trkpt>
      <trkpt lat="44.93709" lon="6.50391">
        <ele>2406.8</ele>
        <time>2024-08-11T11:20:59Z</time>
      </trkpt>
      <trkpt lat="44.93706" lon="6.50392">
        <ele>2407</ele>
        <time>2024-08-11T11:21:00Z</time>
      </trkpt>
      <trkpt lat="44.93706" lon="6.50392">
        <ele>2407</ele>
        <time>2024-08-11T11:21:01Z</time>
      </trkpt>
      <trkpt lat="44.93704" lon="6.50392">
        <ele>2407.8</ele>
        <time>2024-08-11T11:21:02Z</time>
      </trkpt>
      <trkpt lat="44.93704" lon="6.50392">
        <ele>2407.8</ele>
        <time>2024-08-11T11:21:03Z</time>
      </trkpt>
      <trkpt lat="44.93702" lon="6.50391">
        <ele>2408.2</ele>
        <time>2024-08-11T11:21:04Z</time>
      </trkpt>
      <trkpt lat="44.93702" lon="6.50391">
        <ele>2408.2</ele>
        <time>2024-08-11T11:21:05Z</time>
      </trkpt>
      <trkpt lat="44.93702" lon="6.50391">
        <ele>2408</ele>
        <time>2024-08-11T11:21:06Z</time>
      </trkpt>
      <trkpt lat="44.93702" lon="6.50391">
        <ele>2408</ele>
        <time>2024-08-11T11:21:07Z</time>
      </trkpt>
      <trkpt lat="44.93702" lon="6.50391">
        <ele>2408</ele>
        <time>2024-08-11T11:21:08Z</time>
      </trkpt>
      <trkpt lat="44.93702" lon="6.50391">
        <ele>2407.8</ele>
        <time>2024-08-11T11:21:09Z</time>
      </trkpt>
      <trkpt lat="44.93702" lon="6.50391">
        <ele>2407.8</ele>
        <time>2024-08-11T11:21:10Z</time>
      </trkpt>
      <trkpt lat="44.93701" lon="6.50392">
        <ele>2407.8</ele>
        <time>2024-08-11T11:21:11Z</time>
      </trkpt>
      <trkpt lat="44.93701" lon="6.50392">
        <ele>2407.8</ele>
        <time>2024-08-11T11:21:12Z</time>
      </trkpt>
      <trkpt lat="44.93698" lon="6.50394">
        <ele>2407.8</ele>
        <time>2024-08-11T11:21:13Z</time>
      </trkpt>
      <trkpt lat="44.93698" lon="6.50394">
        <ele>2407.8</ele>
        <time>2024-08-11T11:21:14Z</time>
      </trkpt>
      <trkpt lat="44.93695" lon="6.50395">
        <ele>2408</ele>
        <time>2024-08-11T11:21:15Z</time>
      </trkpt>
      <trkpt lat="44.93695" lon="6.50395">
        <ele>2408.2</ele>
        <time>2024-08-11T11:21:16Z</time>
      </trkpt>
      <trkpt lat="44.93693" lon="6.50395">
        <ele>2408.2</ele>
        <time>2024-08-11T11:21:17Z</time>
      </trkpt>
      <trkpt lat="44.93693" lon="6.50395">
        <ele>2408.2</ele>
        <time>2024-08-11T11:21:18Z</time>
      </trkpt>
      <trkpt lat="44.9369" lon="6.50395">
        <ele>2408.4</ele>
        <time>2024-08-11T11:21:19Z</time>
      </trkpt>
      <trkpt lat="44.9369" lon="6.50395">
        <ele>2408.4</ele>
        <time>2024-08-11T11:21:20Z</time>
      </trkpt>
      <trkpt lat="44.93688" lon="6.50396">
        <ele>2408.6</ele>
        <time>2024-08-11T11:21:21Z</time>
      </trkpt>
      <trkpt lat="44.93688" lon="6.50396">
        <ele>2408.6</ele>
        <time>2024-08-11T11:21:22Z</time>
      </trkpt>
      <trkpt lat="44.93685" lon="6.50396">
        <ele>2409</ele>
        <time>2024-08-11T11:21:23Z</time>
      </trkpt>
      <trkpt lat="44.93685" lon="6.50396">
        <ele>2409.2</ele>
        <time>2024-08-11T11:21:24Z</time>
      </trkpt>
      <trkpt lat="44.93683" lon="6.50397">
        <ele>2409.2</ele>
        <time>2024-08-11T11:21:25Z</time>
      </trkpt>
      <trkpt lat="44.93683" lon="6.50397">
        <ele>2409.6</ele>
        <time>2024-08-11T11:21:26Z</time>
      </trkpt>
      <trkpt lat="44.93681" lon="6.50398">
        <ele>2409.6</ele>
        <time>2024-08-11T11:21:27Z</time>
      </trkpt>
      <trkpt lat="44.93681" lon="6.50398">
        <ele>2409.6</ele>
        <time>2024-08-11T11:21:28Z</time>
      </trkpt>
      <trkpt lat="44.93678" lon="6.50399">
        <ele>2409.8</ele>
        <time>2024-08-11T11:21:29Z</time>
      </trkpt>
      <trkpt lat="44.93678" lon="6.50399">
        <ele>2409.8</ele>
        <time>2024-08-11T11:21:30Z</time>
      </trkpt>
      <trkpt lat="44.93676" lon="6.504">
        <ele>2410</ele>
        <time>2024-08-11T11:21:31Z</time>
      </trkpt>
      <trkpt lat="44.93676" lon="6.504">
        <ele>2410</ele>
        <time>2024-08-11T11:21:32Z</time>
      </trkpt>
      <trkpt lat="44.93673" lon="6.504">
        <ele>2410</ele>
        <time>2024-08-11T11:21:33Z</time>
      </trkpt>
      <trkpt lat="44.93673" lon="6.504">
        <ele>2410.2</ele>
        <time>2024-08-11T11:21:34Z</time>
      </trkpt>
      <trkpt lat="44.93671" lon="6.50399">
        <ele>2410.4</ele>
        <time>2024-08-11T11:21:35Z</time>
      </trkpt>
      <trkpt lat="44.93671" lon="6.50399">
        <ele>2410.4</ele>
        <time>2024-08-11T11:21:36Z</time>
      </trkpt>
      <trkpt lat="44.93668" lon="6.50399">
        <ele>2410.6</ele>
        <time>2024-08-11T11:21:37Z</time>
      </trkpt>
      <trkpt lat="44.93668" lon="6.50399">
        <ele>2410.8</ele>
        <time>2024-08-11T11:21:38Z</time>
      </trkpt>
      <trkpt lat="44.93666" lon="6.50399">
        <ele>2411</ele>
        <time>2024-08-11T11:21:39Z</time>
      </trkpt>
      <trkpt lat="44.93666" lon="6.50399">
        <ele>2411</ele>
        <time>2024-08-11T11:21:40Z</time>
      </trkpt>
      <trkpt lat="44.93664" lon="6.50399">
        <ele>2411</ele>
        <time>2024-08-11T11:21:41Z</time>
      </trkpt>
      <trkpt lat="44.93664" lon="6.50399">
        <ele>2411.2</ele>
        <time>2024-08-11T11:21:42Z</time>
      </trkpt>
      <trkpt lat="44.93661" lon="6.50398">
        <ele>2411.4</ele>
        <time>2024-08-11T11:21:43Z</time>
      </trkpt>
      <trkpt lat="44.93661" lon="6.50398">
        <ele>2411.4</ele>
        <time>2024-08-11T11:21:44Z</time>
      </trkpt>
      <trkpt lat="44.93659" lon="6.50398">
        <ele>2411.4</ele>
        <time>2024-08-11T11:21:45Z</time>
      </trkpt>
      <trkpt lat="44.93659" lon="6.50398">
        <ele>2411.6</ele>
        <time>2024-08-11T11:21:46Z</time>
      </trkpt>
      <trkpt lat="44.93656" lon="6.50398">
        <ele>2412.2</ele>
        <time>2024-08-11T11:21:47Z</time>
      </trkpt>
      <trkpt lat="44.93656" lon="6.50398">
        <ele>2412.2</ele>
        <time>2024-08-11T11:21:48Z</time>
      </trkpt>
      <trkpt lat="44.93654" lon="6.50397">
        <ele>2412.2</ele>
        <time>2024-08-11T11:21:49Z</time>
      </trkpt>
      <trkpt lat="44.93654" lon="6.50397">
        <ele>2412.2</ele>
        <time>2024-08-11T11:21:50Z</time>
      </trkpt>
      <trkpt lat="44.93652" lon="6.50397">
        <ele>2412.2</ele>
        <time>2024-08-11T11:21:51Z</time>
      </trkpt>
      <trkpt lat="44.93652" lon="6.50397">
        <ele>2412.6</ele>
        <time>2024-08-11T11:21:52Z</time>
      </trkpt>
      <trkpt lat="44.9365" lon="6.50397">
        <ele>2412.6</ele>
        <time>2024-08-11T11:21:53Z</time>
      </trkpt>
      <trkpt lat="44.9365" lon="6.50397">
        <ele>2413</ele>
        <time>2024-08-11T11:21:54Z</time>
      </trkpt>
      <trkpt lat="44.93647" lon="6.50396">
        <ele>2413.2</ele>
        <time>2024-08-11T11:21:55Z</time>
      </trkpt>
      <trkpt lat="44.93647" lon="6.50396">
        <ele>2413.2</ele>
        <time>2024-08-11T11:21:56Z</time>
      </trkpt>
      <trkpt lat="44.93645" lon="6.50396">
        <ele>2413.2</ele>
        <time>2024-08-11T11:21:57Z</time>
      </trkpt>
      <trkpt lat="44.93645" lon="6.50396">
        <ele>2413</ele>
        <time>2024-08-11T11:21:58Z</time>
      </trkpt>
      <trkpt lat="44.93643" lon="6.50395">
        <ele>2413</ele>
        <time>2024-08-11T11:21:59Z</time>
      </trkpt>
      <trkpt lat="44.93643" lon="6.50395">
        <ele>2413.4</ele>
        <time>2024-08-11T11:22:00Z</time>
      </trkpt>
      <trkpt lat="44.93641" lon="6.50393">
        <ele>2413.4</ele>
        <time>2024-08-11T11:22:01Z</time>
      </trkpt>
      <trkpt lat="44.93641" lon="6.50393">
        <ele>2413.8</ele>
        <time>2024-08-11T11:22:02Z</time>
      </trkpt>
      <trkpt lat="44.93639" lon="6.50392">
        <ele>2413.8</ele>
        <time>2024-08-11T11:22:03Z</time>
      </trkpt>
      <trkpt lat="44.93639" lon="6.50392">
        <ele>2413.8</ele>
        <time>2024-08-11T11:22:04Z</time>
      </trkpt>
      <trkpt lat="44.93637" lon="6.50391">
        <ele>2413.8</ele>
        <time>2024-08-11T11:22:05Z</time>
      </trkpt>
      <trkpt lat="44.93637" lon="6.50391">
        <ele>2414</ele>
        <time>2024-08-11T11:22:06Z</time>
      </trkpt>
      <trkpt lat="44.93634" lon="6.50391">
        <ele>2414.2</ele>
        <time>2024-08-11T11:22:07Z</time>
      </trkpt>
      <trkpt lat="44.93634" lon="6.50391">
        <ele>2414.2</ele>
        <time>2024-08-11T11:22:08Z</time>
      </trkpt>
      <trkpt lat="44.93631" lon="6.5039">
        <ele>2414.4</ele>
        <time>2024-08-11T11:22:09Z</time>
      </trkpt>
      <trkpt lat="44.93631" lon="6.5039">
        <ele>2414.4</ele>
        <time>2024-08-11T11:22:10Z</time>
      </trkpt>
      <trkpt lat="44.93629" lon="6.5039">
        <ele>2414.8</ele>
        <time>2024-08-11T11:22:11Z</time>
      </trkpt>
      <trkpt lat="44.93629" lon="6.5039">
        <ele>2415</ele>
        <time>2024-08-11T11:22:12Z</time>
      </trkpt>
      <trkpt lat="44.93627" lon="6.50389">
        <ele>2415</ele>
        <time>2024-08-11T11:22:13Z</time>
      </trkpt>
      <trkpt lat="44.93627" lon="6.50389">
        <ele>2415</ele>
        <time>2024-08-11T11:22:14Z</time>
      </trkpt>
      <trkpt lat="44.93625" lon="6.50388">
        <ele>2415.2</ele>
        <time>2024-08-11T11:22:15Z</time>
      </trkpt>
      <trkpt lat="44.93625" lon="6.50388">
        <ele>2415.4</ele>
        <time>2024-08-11T11:22:16Z</time>
      </trkpt>
      <trkpt lat="44.93623" lon="6.50387">
        <ele>2415.8</ele>
        <time>2024-08-11T11:22:17Z</time>
      </trkpt>
      <trkpt lat="44.93623" lon="6.50387">
        <ele>2415.8</ele>
        <time>2024-08-11T11:22:18Z</time>
      </trkpt>
      <trkpt lat="44.9362" lon="6.50386">
        <ele>2416</ele>
        <time>2024-08-11T11:22:19Z</time>
      </trkpt>
      <trkpt lat="44.9362" lon="6.50386">
        <ele>2416</ele>
        <time>2024-08-11T11:22:20Z</time>
      </trkpt>
      <trkpt lat="44.93618" lon="6.50385">
        <ele>2416.2</ele>
        <time>2024-08-11T11:22:21Z</time>
      </trkpt>
      <trkpt lat="44.93618" lon="6.50385">
        <ele>2416.4</ele>
        <time>2024-08-11T11:22:22Z</time>
      </trkpt>
      <trkpt lat="44.93616" lon="6.50385">
        <ele>2416.4</ele>
        <time>2024-08-11T11:22:23Z</time>
      </trkpt>
      <trkpt lat="44.93616" lon="6.50385">
        <ele>2416.6</ele>
        <time>2024-08-11T11:22:24Z</time>
      </trkpt>
      <trkpt lat="44.93614" lon="6.50385">
        <ele>2416.8</ele>
        <time>2024-08-11T11:22:25Z</time>
      </trkpt>
      <trkpt lat="44.93614" lon="6.50385">
        <ele>2416.8</ele>
        <time>2024-08-11T11:22:26Z</time>
      </trkpt>
      <trkpt lat="44.93612" lon="6.50385">
        <ele>2416.8</ele>
        <time>2024-08-11T11:22:27Z</time>
      </trkpt>
      <trkpt lat="44.93612" lon="6.50385">
        <ele>2417</ele>
        <time>2024-08-11T11:22:28Z</time>
      </trkpt>
      <trkpt lat="44.93609" lon="6.50385">
        <ele>2417.6</ele>
        <time>2024-08-11T11:22:29Z</time>
      </trkpt>
      <trkpt lat="44.93609" lon="6.50385">
        <ele>2418</ele>
        <time>2024-08-11T11:22:30Z</time>
      </trkpt>
      <trkpt lat="44.93607" lon="6.50385">
        <ele>2418.2</ele>
        <time>2024-08-11T11:22:31Z</time>
      </trkpt>
      <trkpt lat="44.93607" lon="6.50385">
        <ele>2418.4</ele>
        <time>2024-08-11T11:22:32Z</time>
      </trkpt>
      <trkpt lat="44.93605" lon="6.50384">
        <ele>2418.4</ele>
        <time>2024-08-11T11:22:33Z</time>
      </trkpt>
      <trkpt lat="44.93605" lon="6.50384">
        <ele>2418.6</ele>
        <time>2024-08-11T11:22:34Z</time>
      </trkpt>
      <trkpt lat="44.93602" lon="6.50384">
        <ele>2419.2</ele>
        <time>2024-08-11T11:22:35Z</time>
      </trkpt>
      <trkpt lat="44.93602" lon="6.50384">
        <ele>2419.2</ele>
        <time>2024-08-11T11:22:36Z</time>
      </trkpt>
      <trkpt lat="44.93599" lon="6.50383">
        <ele>2419.2</ele>
        <time>2024-08-11T11:22:37Z</time>
      </trkpt>
      <trkpt lat="44.93599" lon="6.50383">
        <ele>2419</ele>
        <time>2024-08-11T11:22:38Z</time>
      </trkpt>
      <trkpt lat="44.93597" lon="6.50382">
        <ele>2418.4</ele>
        <time>2024-08-11T11:22:39Z</time>
      </trkpt>
      <trkpt lat="44.93597" lon="6.50382">
        <ele>2418.4</ele>
        <time>2024-08-11T11:22:40Z</time>
      </trkpt>
      <trkpt lat="44.93595" lon="6.50382">
        <ele>2418.6</ele>
        <time>2024-08-11T11:22:41Z</time>
      </trkpt>
      <trkpt lat="44.93595" lon="6.50382">
        <ele>2419.2</ele>
        <time>2024-08-11T11:22:42Z</time>
      </trkpt>
      <trkpt lat="44.93593" lon="6.50381">
        <ele>2419.4</ele>
        <time>2024-08-11T11:22:43Z</time>
      </trkpt>
      <trkpt lat="44.93593" lon="6.50381">
        <ele>2419.4</ele>
        <time>2024-08-11T11:22:44Z</time>
      </trkpt>
      <trkpt lat="44.9359" lon="6.5038">
        <ele>2419.6</ele>
        <time>2024-08-11T11:22:45Z</time>
      </trkpt>
      <trkpt lat="44.9359" lon="6.5038">
        <ele>2419.6</ele>
        <time>2024-08-11T11:22:46Z</time>
      </trkpt>
      <trkpt lat="44.93588" lon="6.50379">
        <ele>2419.6</ele>
        <time>2024-08-11T11:22:47Z</time>
      </trkpt>
      <trkpt lat="44.93588" lon="6.50379">
        <ele>2419.6</ele>
        <time>2024-08-11T11:22:48Z</time>
      </trkpt>
      <trkpt lat="44.93586" lon="6.50378">
        <ele>2419.6</ele>
        <time>2024-08-11T11:22:49Z</time>
      </trkpt>
      <trkpt lat="44.93586" lon="6.50378">
        <ele>2419.4</ele>
        <time>2024-08-11T11:22:50Z</time>
      </trkpt>
      <trkpt lat="44.93584" lon="6.50378">
        <ele>2419.4</ele>
        <time>2024-08-11T11:22:51Z</time>
      </trkpt>
      <trkpt lat="44.93584" lon="6.50378">
        <ele>2419.8</ele>
        <time>2024-08-11T11:22:52Z</time>
      </trkpt>
      <trkpt lat="44.93582" lon="6.50377">
        <ele>2420</ele>
        <time>2024-08-11T11:22:53Z</time>
      </trkpt>
      <trkpt lat="44.93582" lon="6.50377">
        <ele>2420</ele>
        <time>2024-08-11T11:22:54Z</time>
      </trkpt>
      <trkpt lat="44.93579" lon="6.50377">
        <ele>2420.2</ele>
        <time>2024-08-11T11:22:55Z</time>
      </trkpt>
      <trkpt lat="44.93579" lon="6.50377">
        <ele>2420.2</ele>
        <time>2024-08-11T11:22:56Z</time>
      </trkpt>
      <trkpt lat="44.93577" lon="6.50376">
        <ele>2421</ele>
        <time>2024-08-11T11:22:57Z</time>
      </trkpt>
      <trkpt lat="44.93577" lon="6.50376">
        <ele>2421.2</ele>
        <time>2024-08-11T11:22:58Z</time>
      </trkpt>
      <trkpt lat="44.93574" lon="6.50376">
        <ele>2421.2</ele>
        <time>2024-08-11T11:22:59Z</time>
      </trkpt>
      <trkpt lat="44.93574" lon="6.50376">
        <ele>2421</ele>
        <time>2024-08-11T11:23:00Z</time>
      </trkpt>
      <trkpt lat="44.93572" lon="6.50375">
        <ele>2421</ele>
        <time>2024-08-11T11:23:01Z</time>
      </trkpt>
      <trkpt lat="44.93572" lon="6.50375">
        <ele>2421.4</ele>
        <time>2024-08-11T11:23:02Z</time>
      </trkpt>
      <trkpt lat="44.9357" lon="6.50375">
        <ele>2421.4</ele>
        <time>2024-08-11T11:23:03Z</time>
      </trkpt>
      <trkpt lat="44.9357" lon="6.50375">
        <ele>2421.6</ele>
        <time>2024-08-11T11:23:04Z</time>
      </trkpt>
      <trkpt lat="44.93568" lon="6.50375">
        <ele>2421.6</ele>
        <time>2024-08-11T11:23:05Z</time>
      </trkpt>
      <trkpt lat="44.93568" lon="6.50375">
        <ele>2421.8</ele>
        <time>2024-08-11T11:23:06Z</time>
      </trkpt>
      <trkpt lat="44.93566" lon="6.50374">
        <ele>2421.8</ele>
        <time>2024-08-11T11:23:07Z</time>
      </trkpt>
      <trkpt lat="44.93566" lon="6.50374">
        <ele>2421.8</ele>
        <time>2024-08-11T11:23:08Z</time>
      </trkpt>
      <trkpt lat="44.93564" lon="6.50374">
        <ele>2421.8</ele>
        <time>2024-08-11T11:23:09Z</time>
      </trkpt>
      <trkpt lat="44.93564" lon="6.50374">
        <ele>2422.2</ele>
        <time>2024-08-11T11:23:10Z</time>
      </trkpt>
      <trkpt lat="44.93562" lon="6.50374">
        <ele>2422.4</ele>
        <time>2024-08-11T11:23:11Z</time>
      </trkpt>
      <trkpt lat="44.93562" lon="6.50374">
        <ele>2422.4</ele>
        <time>2024-08-11T11:23:12Z</time>
      </trkpt>
      <trkpt lat="44.93559" lon="6.50374">
        <ele>2422.4</ele>
        <time>2024-08-11T11:23:13Z</time>
      </trkpt>
      <trkpt lat="44.93559" lon="6.50374">
        <ele>2422.4</ele>
        <time>2024-08-11T11:23:14Z</time>
      </trkpt>
      <trkpt lat="44.93557" lon="6.50374">
        <ele>2422.8</ele>
        <time>2024-08-11T11:23:15Z</time>
      </trkpt>
      <trkpt lat="44.93557" lon="6.50374">
        <ele>2422.8</ele>
        <time>2024-08-11T11:23:16Z</time>
      </trkpt>
      <trkpt lat="44.93555" lon="6.50374">
        <ele>2422.8</ele>
        <time>2024-08-11T11:23:17Z</time>
      </trkpt>
      <trkpt lat="44.93555" lon="6.50374">
        <ele>2423.4</ele>
        <time>2024-08-11T11:23:18Z</time>
      </trkpt>
      <trkpt lat="44.93552" lon="6.50374">
        <ele>2423.4</ele>
        <time>2024-08-11T11:23:19Z</time>
      </trkpt>
      <trkpt lat="44.93552" lon="6.50374">
        <ele>2423.4</ele>
        <time>2024-08-11T11:23:20Z</time>
      </trkpt>
      <trkpt lat="44.9355" lon="6.50374">
        <ele>2423.6</ele>
        <time>2024-08-11T11:23:21Z</time>
      </trkpt>
      <trkpt lat="44.9355" lon="6.50374">
        <ele>2423.8</ele>
        <time>2024-08-11T11:23:22Z</time>
      </trkpt>
      <trkpt lat="44.93548" lon="6.50374">
        <ele>2424.4</ele>
        <time>2024-08-11T11:23:23Z</time>
      </trkpt>
      <trkpt lat="44.93548" lon="6.50374">
        <ele>2424.4</ele>
        <time>2024-08-11T11:23:24Z</time>
      </trkpt>
      <trkpt lat="44.93545" lon="6.50374">
        <ele>2424.4</ele>
        <time>2024-08-11T11:23:25Z</time>
      </trkpt>
      <trkpt lat="44.93545" lon="6.50374">
        <ele>2424.6</ele>
        <time>2024-08-11T11:23:26Z</time>
      </trkpt>
      <trkpt lat="44.93542" lon="6.50374">
        <ele>2424.6</ele>
        <time>2024-08-11T11:23:27Z</time>
      </trkpt>
      <trkpt lat="44.93542" lon="6.50374">
        <ele>2425</ele>
        <time>2024-08-11T11:23:28Z</time>
      </trkpt>
      <trkpt lat="44.9354" lon="6.50374">
        <ele>2425.2</ele>
        <time>2024-08-11T11:23:29Z</time>
      </trkpt>
      <trkpt lat="44.9354" lon="6.50374">
        <ele>2425.2</ele>
        <time>2024-08-11T11:23:30Z</time>
      </trkpt>
      <trkpt lat="44.93538" lon="6.50374">
        <ele>2425.2</ele>
        <time>2024-08-11T11:23:31Z</time>
      </trkpt>
      <trkpt lat="44.93538" lon="6.50374">
        <ele>2425.4</ele>
        <time>2024-08-11T11:23:32Z</time>
      </trkpt>
      <trkpt lat="44.93535" lon="6.50374">
        <ele>2425.8</ele>
        <time>2024-08-11T11:23:33Z</time>
      </trkpt>
      <trkpt lat="44.93535" lon="6.50374">
        <ele>2426</ele>
        <time>2024-08-11T11:23:34Z</time>
      </trkpt>
      <trkpt lat="44.93533" lon="6.50374">
        <ele>2426</ele>
        <time>2024-08-11T11:23:35Z</time>
      </trkpt>
      <trkpt lat="44.93533" lon="6.50374">
        <ele>2426.2</ele>
        <time>2024-08-11T11:23:36Z</time>
      </trkpt>
      <trkpt lat="44.93531" lon="6.50375">
        <ele>2426.2</ele>
        <time>2024-08-11T11:23:37Z</time>
      </trkpt>
      <trkpt lat="44.93531" lon="6.50375">
        <ele>2426.2</ele>
        <time>2024-08-11T11:23:38Z</time>
      </trkpt>
      <trkpt lat="44.93531" lon="6.50375">
        <ele>2426.6</ele>
        <time>2024-08-11T11:23:39Z</time>
      </trkpt>
      <trkpt lat="44.93528" lon="6.50375">
        <ele>2426.8</ele>
        <time>2024-08-11T11:23:40Z</time>
      </trkpt>
      <trkpt lat="44.93528" lon="6.50375">
        <ele>2426.8</ele>
        <time>2024-08-11T11:23:41Z</time>
      </trkpt>
      <trkpt lat="44.93526" lon="6.50376">
        <ele>2426.8</ele>
        <time>2024-08-11T11:23:42Z</time>
      </trkpt>
      <trkpt lat="44.93526" lon="6.50376">
        <ele>2427</ele>
        <time>2024-08-11T11:23:43Z</time>
      </trkpt>
      <trkpt lat="44.93524" lon="6.50377">
        <ele>2427</ele>
        <time>2024-08-11T11:23:44Z</time>
      </trkpt>
      <trkpt lat="44.93524" lon="6.50377">
        <ele>2427.2</ele>
        <time>2024-08-11T11:23:45Z</time>
      </trkpt>
      <trkpt lat="44.93522" lon="6.50377">
        <ele>2427.6</ele>
        <time>2024-08-11T11:23:46Z</time>
      </trkpt>
      <trkpt lat="44.93522" lon="6.50377">
        <ele>2427.6</ele>
        <time>2024-08-11T11:23:47Z</time>
      </trkpt>
      <trkpt lat="44.93519" lon="6.50378">
        <ele>2427.8</ele>
        <time>2024-08-11T11:23:48Z</time>
      </trkpt>
      <trkpt lat="44.93519" lon="6.50378">
        <ele>2427.8</ele>
        <time>2024-08-11T11:23:49Z</time>
      </trkpt>
      <trkpt lat="44.93517" lon="6.5038">
        <ele>2428.2</ele>
        <time>2024-08-11T11:23:50Z</time>
      </trkpt>
      <trkpt lat="44.93517" lon="6.5038">
        <ele>2428.6</ele>
        <time>2024-08-11T11:23:51Z</time>
      </trkpt>
      <trkpt lat="44.93515" lon="6.50382">
        <ele>2428.6</ele>
        <time>2024-08-11T11:23:52Z</time>
      </trkpt>
      <trkpt lat="44.93515" lon="6.50382">
        <ele>2428.8</ele>
        <time>2024-08-11T11:23:53Z</time>
      </trkpt>
      <trkpt lat="44.93513" lon="6.50383">
        <ele>2428.8</ele>
        <time>2024-08-11T11:23:54Z</time>
      </trkpt>
      <trkpt lat="44.93513" lon="6.50383">
        <ele>2429</ele>
        <time>2024-08-11T11:23:55Z</time>
      </trkpt>
      <trkpt lat="44.93511" lon="6.50384">
        <ele>2429.2</ele>
        <time>2024-08-11T11:23:56Z</time>
      </trkpt>
      <trkpt lat="44.93511" lon="6.50384">
        <ele>2429.2</ele>
        <time>2024-08-11T11:23:57Z</time>
      </trkpt>
      <trkpt lat="44.93509" lon="6.50386">
        <ele>2429.2</ele>
        <time>2024-08-11T11:23:58Z</time>
      </trkpt>
      <trkpt lat="44.93509" lon="6.50386">
        <ele>2429.2</ele>
        <time>2024-08-11T11:23:59Z</time>
      </trkpt>
      <trkpt lat="44.93507" lon="6.50387">
        <ele>2429.6</ele>
        <time>2024-08-11T11:24:00Z</time>
      </trkpt>
      <trkpt lat="44.93507" lon="6.50387">
        <ele>2429.6</ele>
        <time>2024-08-11T11:24:01Z</time>
      </trkpt>
      <trkpt lat="44.93506" lon="6.50389">
        <ele>2430</ele>
        <time>2024-08-11T11:24:02Z</time>
      </trkpt>
      <trkpt lat="44.93506" lon="6.50389">
        <ele>2430</ele>
        <time>2024-08-11T11:24:03Z</time>
      </trkpt>
      <trkpt lat="44.93504" lon="6.50392">
        <ele>2430.2</ele>
        <time>2024-08-11T11:24:04Z</time>
      </trkpt>
      <trkpt lat="44.93504" lon="6.50392">
        <ele>2430.6</ele>
        <time>2024-08-11T11:24:05Z</time>
      </trkpt>
      <trkpt lat="44.93502" lon="6.50394">
        <ele>2430.8</ele>
        <time>2024-08-11T11:24:06Z</time>
      </trkpt>
      <trkpt lat="44.93502" lon="6.50394">
        <ele>2431</ele>
        <time>2024-08-11T11:24:07Z</time>
      </trkpt>
      <trkpt lat="44.935" lon="6.50396">
        <ele>2431</ele>
        <time>2024-08-11T11:24:08Z</time>
      </trkpt>
      <trkpt lat="44.935" lon="6.50396">
        <ele>2431</ele>
        <time>2024-08-11T11:24:09Z</time>
      </trkpt>
      <trkpt lat="44.93499" lon="6.50399">
        <ele>2431</ele>
        <time>2024-08-11T11:24:10Z</time>
      </trkpt>
      <trkpt lat="44.93499" lon="6.50399">
        <ele>2431.4</ele>
        <time>2024-08-11T11:24:11Z</time>
      </trkpt>
      <trkpt lat="44.93497" lon="6.50401">
        <ele>2431.4</ele>
        <time>2024-08-11T11:24:12Z</time>
      </trkpt>
      <trkpt lat="44.93497" lon="6.50401">
        <ele>2431.6</ele>
        <time>2024-08-11T11:24:13Z</time>
      </trkpt>
      <trkpt lat="44.93496" lon="6.50404">
        <ele>2431.8</ele>
        <time>2024-08-11T11:24:14Z</time>
      </trkpt>
      <trkpt lat="44.93496" lon="6.50404">
        <ele>2432</ele>
        <time>2024-08-11T11:24:15Z</time>
      </trkpt>
      <trkpt lat="44.93494" lon="6.50406">
        <ele>2432</ele>
        <time>2024-08-11T11:24:16Z</time>
      </trkpt>
      <trkpt lat="44.93494" lon="6.50406">
        <ele>2432.2</ele>
        <time>2024-08-11T11:24:17Z</time>
      </trkpt>
      <trkpt lat="44.93493" lon="6.50408">
        <ele>2432.2</ele>
        <time>2024-08-11T11:24:18Z</time>
      </trkpt>
      <trkpt lat="44.93493" lon="6.50408">
        <ele>2432.2</ele>
        <time>2024-08-11T11:24:19Z</time>
      </trkpt>
      <trkpt lat="44.93493" lon="6.50411">
        <ele>2432.6</ele>
        <time>2024-08-11T11:24:20Z</time>
      </trkpt>
      <trkpt lat="44.93493" lon="6.50411">
        <ele>2432.8</ele>
        <time>2024-08-11T11:24:21Z</time>
      </trkpt>
      <trkpt lat="44.93491" lon="6.50414">
        <ele>2433</ele>
        <time>2024-08-11T11:24:22Z</time>
      </trkpt>
      <trkpt lat="44.93491" lon="6.50414">
        <ele>2433</ele>
        <time>2024-08-11T11:24:23Z</time>
      </trkpt>
      <trkpt lat="44.93489" lon="6.50416">
        <ele>2433.6</ele>
        <time>2024-08-11T11:24:24Z</time>
      </trkpt>
      <trkpt lat="44.93489" lon="6.50416">
        <ele>2433.6</ele>
        <time>2024-08-11T11:24:25Z</time>
      </trkpt>
      <trkpt lat="44.93488" lon="6.50419">
        <ele>2433.8</ele>
        <time>2024-08-11T11:24:26Z</time>
      </trkpt>
      <trkpt lat="44.93488" lon="6.50419">
        <ele>2434</ele>
        <time>2024-08-11T11:24:27Z</time>
      </trkpt>
      <trkpt lat="44.93488" lon="6.50422">
        <ele>2434</ele>
        <time>2024-08-11T11:24:28Z</time>
      </trkpt>
      <trkpt lat="44.93488" lon="6.50422">
        <ele>2434</ele>
        <time>2024-08-11T11:24:29Z</time>
      </trkpt>
      <trkpt lat="44.93487" lon="6.50424">
        <ele>2434</ele>
        <time>2024-08-11T11:24:30Z</time>
      </trkpt>
      <trkpt lat="44.93487" lon="6.50424">
        <ele>2434</ele>
        <time>2024-08-11T11:24:31Z</time>
      </trkpt>
      <trkpt lat="44.93487" lon="6.50424">
        <ele>2434</ele>
        <time>2024-08-11T11:24:32Z</time>
      </trkpt>
      <trkpt lat="44.93485" lon="6.50426">
        <ele>2434</ele>
        <time>2024-08-11T11:24:33Z</time>
      </trkpt>
      <trkpt lat="44.93485" lon="6.50426">
        <ele>2434</ele>
        <time>2024-08-11T11:24:34Z</time>
      </trkpt>
      <trkpt lat="44.93482" lon="6.50428">
        <ele>2434</ele>
        <time>2024-08-11T11:24:35Z</time>
      </trkpt>
      <trkpt lat="44.93482" lon="6.50428">
        <ele>2433.4</ele>
        <time>2024-08-11T11:24:36Z</time>
      </trkpt>
      <trkpt lat="44.93481" lon="6.5043">
        <ele>2433.4</ele>
        <time>2024-08-11T11:24:37Z</time>
      </trkpt>
      <trkpt lat="44.93481" lon="6.5043">
        <ele>2433.2</ele>
        <time>2024-08-11T11:24:38Z</time>
      </trkpt>
      <trkpt lat="44.93478" lon="6.50432">
        <ele>2433.2</ele>
        <time>2024-08-11T11:24:39Z</time>
      </trkpt>
      <trkpt lat="44.93478" lon="6.50432">
        <ele>2433.2</ele>
        <time>2024-08-11T11:24:40Z</time>
      </trkpt>
      <trkpt lat="44.93476" lon="6.50433">
        <ele>2433</ele>
        <time>2024-08-11T11:24:41Z</time>
      </trkpt>
      <trkpt lat="44.93476" lon="6.50433">
        <ele>2432.8</ele>
        <time>2024-08-11T11:24:42Z</time>
      </trkpt>
      <trkpt lat="44.93474" lon="6.50433">
        <ele>2432.8</ele>
        <time>2024-08-11T11:24:43Z</time>
      </trkpt>
      <trkpt lat="44.93474" lon="6.50433">
        <ele>2433</ele>
        <time>2024-08-11T11:24:44Z</time>
      </trkpt>
      <trkpt lat="44.93474" lon="6.50433">
        <ele>2433</ele>
        <time>2024-08-11T11:24:45Z</time>
      </trkpt>
      <trkpt lat="44.93474" lon="6.50433">
        <ele>2433</ele>
        <time>2024-08-11T11:24:46Z</time>
      </trkpt>
      <trkpt lat="44.93474" lon="6.50433">
        <ele>2433</ele>
        <time>2024-08-11T11:24:47Z</time>
      </trkpt>
      <trkpt lat="44.93474" lon="6.50433">
        <ele>2433</ele>
        <time>2024-08-11T11:24:48Z</time>
      </trkpt>
      <trkpt lat="44.93474" lon="6.50433">
        <ele>2433</ele>
        <time>2024-08-11T11:24:49Z</time>
      </trkpt>
      <trkpt lat="44.93474" lon="6.50433">
        <ele>2433</ele>
        <time>2024-08-11T11:24:50Z</time>
      </trkpt>
      <trkpt lat="44.93474" lon="6.50433">
        <ele>2433</ele>
        <time>2024-08-11T11:24:51Z</time>
      </trkpt>
      <trkpt lat="44.93474" lon="6.50433">
        <ele>2433</ele>
        <time>2024-08-11T11:24:52Z</time>
      </trkpt>
      <trkpt lat="44.93474" lon="6.50433">
        <ele>2433</ele>
        <time>2024-08-11T11:24:53Z</time>
      </trkpt>
      <trkpt lat="44.93474" lon="6.50433">
        <ele>2433</ele>
        <time>2024-08-11T11:24:54Z</time>
      </trkpt>
      <trkpt lat="44.93474" lon="6.50433">
        <ele>2433</ele>
        <time>2024-08-11T11:24:55Z</time>
      </trkpt>
      <trkpt lat="44.93474" lon="6.50433">
        <ele>2433</ele>
        <time>2024-08-11T11:24:56Z</time>
      </trkpt>
      <trkpt lat="44.93474" lon="6.50433">
        <ele>2433</ele>
        <time>2024-08-11T11:24:57Z</time>
      </trkpt>
      <trkpt lat="44.93476" lon="6.5043">
        <ele>2433</ele>
        <time>2024-08-11T11:24:58Z</time>
      </trkpt>
      <trkpt lat="44.93476" lon="6.5043">
        <ele>2432.6</ele>
        <time>2024-08-11T11:24:59Z</time>
      </trkpt>
      <trkpt lat="44.93476" lon="6.5043">
        <ele>2432.6</ele>
        <time>2024-08-11T11:25:00Z</time>
      </trkpt>
      <trkpt lat="44.93476" lon="6.5043">
        <ele>2432.6</ele>
        <time>2024-08-11T11:25:01Z</time>
      </trkpt>
      <trkpt lat="44.93476" lon="6.5043">
        <ele>2432.6</ele>
        <time>2024-08-11T11:25:02Z</time>
      </trkpt>
      <trkpt lat="44.93476" lon="6.5043">
        <ele>2432.6</ele>
        <time>2024-08-11T11:25:03Z</time>
      </trkpt>
      <trkpt lat="44.93476" lon="6.5043">
        <ele>2432.8</ele>
        <time>2024-08-11T11:25:04Z</time>
      </trkpt>
      <trkpt lat="44.93476" lon="6.5043">
        <ele>2432.8</ele>
        <time>2024-08-11T11:25:05Z</time>
      </trkpt>
      <trkpt lat="44.93476" lon="6.5043">
        <ele>2432.8</ele>
        <time>2024-08-11T11:25:06Z</time>
      </trkpt>
      <trkpt lat="44.93476" lon="6.5043">
        <ele>2432.6</ele>
        <time>2024-08-11T11:25:07Z</time>
      </trkpt>
      <trkpt lat="44.93476" lon="6.5043">
        <ele>2432.6</ele>
        <time>2024-08-11T11:25:08Z</time>
      </trkpt>
      <trkpt lat="44.93476" lon="6.5043">
        <ele>2432.8</ele>
        <time>2024-08-11T11:25:09Z</time>
      </trkpt>
      <trkpt lat="44.93476" lon="6.5043">
        <ele>2432.8</ele>
        <time>2024-08-11T11:25:10Z</time>
      </trkpt>
      <trkpt lat="44.93476" lon="6.5043">
        <ele>2432.6</ele>
        <time>2024-08-11T11:25:11Z</time>
      </trkpt>
      <trkpt lat="44.93478" lon="6.50429">
        <ele>2432.4</ele>
        <time>2024-08-11T11:25:12Z</time>
      </trkpt>
      <trkpt lat="44.93478" lon="6.50429">
        <ele>2432.2</ele>
        <time>2024-08-11T11:25:13Z</time>
      </trkpt>
      <trkpt lat="44.93481" lon="6.50428">
        <ele>2432.2</ele>
        <time>2024-08-11T11:25:14Z</time>
      </trkpt>
      <trkpt lat="44.93481" lon="6.50428">
        <ele>2432.4</ele>
        <time>2024-08-11T11:25:15Z</time>
      </trkpt>
      <trkpt lat="44.93483" lon="6.50428">
        <ele>2432.4</ele>
        <time>2024-08-11T11:25:16Z</time>
      </trkpt>
      <trkpt lat="44.93483" lon="6.50428">
        <ele>2432.2</ele>
        <time>2024-08-11T11:25:17Z</time>
      </trkpt>
      <trkpt lat="44.93483" lon="6.50428">
        <ele>2432.2</ele>
        <time>2024-08-11T11:25:18Z</time>
      </trkpt>
      <trkpt lat="44.93483" lon="6.50428">
        <ele>2432.4</ele>
        <time>2024-08-11T11:25:19Z</time>
      </trkpt>
      <trkpt lat="44.93483" lon="6.50428">
        <ele>2432.4</ele>
        <time>2024-08-11T11:25:20Z</time>
      </trkpt>
      <trkpt lat="44.93483" lon="6.50428">
        <ele>2432.4</ele>
        <time>2024-08-11T11:25:21Z</time>
      </trkpt>
      <trkpt lat="44.93485" lon="6.50429">
        <ele>2432.4</ele>
        <time>2024-08-11T11:25:22Z</time>
      </trkpt>
      <trkpt lat="44.93485" lon="6.50429">
        <ele>2432.2</ele>
        <time>2024-08-11T11:25:23Z</time>
      </trkpt>
      <trkpt lat="44.93485" lon="6.50429">
        <ele>2432.2</ele>
        <time>2024-08-11T11:25:24Z</time>
      </trkpt>
      <trkpt lat="44.93485" lon="6.50429">
        <ele>2432.4</ele>
        <time>2024-08-11T11:25:25Z</time>
      </trkpt>
      <trkpt lat="44.93485" lon="6.50429">
        <ele>2432.8</ele>
        <time>2024-08-11T11:25:26Z</time>
      </trkpt>
      <trkpt lat="44.93485" lon="6.50429">
        <ele>2432.8</ele>
        <time>2024-08-11T11:25:27Z</time>
      </trkpt>
      <trkpt lat="44.93485" lon="6.50429">
        <ele>2432.6</ele>
        <time>2024-08-11T11:25:28Z</time>
      </trkpt>
      <trkpt lat="44.93485" lon="6.50429">
        <ele>2432.6</ele>
        <time>2024-08-11T11:25:29Z</time>
      </trkpt>
      <trkpt lat="44.93485" lon="6.50429">
        <ele>2432.6</ele>
        <time>2024-08-11T11:25:30Z</time>
      </trkpt>
      <trkpt lat="44.93485" lon="6.50429">
        <ele>2432.4</ele>
        <time>2024-08-11T11:25:31Z</time>
      </trkpt>
      <trkpt lat="44.93485" lon="6.50429">
        <ele>2432.2</ele>
        <time>2024-08-11T11:25:32Z</time>
      </trkpt>
      <trkpt lat="44.93485" lon="6.50429">
        <ele>2432</ele>
        <time>2024-08-11T11:25:33Z</time>
      </trkpt>
      <trkpt lat="44.93485" lon="6.50429">
        <ele>2432</ele>
        <time>2024-08-11T11:25:34Z</time>
      </trkpt>
      <trkpt lat="44.93485" lon="6.50429">
        <ele>2432</ele>
        <time>2024-08-11T11:25:35Z</time>
      </trkpt>
      <trkpt lat="44.93485" lon="6.50429">
        <ele>2432.2</ele>
        <time>2024-08-11T11:25:36Z</time>
      </trkpt>
      <trkpt lat="44.93485" lon="6.50429">
        <ele>2432.2</ele>
        <time>2024-08-11T11:25:37Z</time>
      </trkpt>
      <trkpt lat="44.93485" lon="6.50429">
        <ele>2432.2</ele>
        <time>2024-08-11T11:25:38Z</time>
      </trkpt>
      <trkpt lat="44.93485" lon="6.50429">
        <ele>2432.2</ele>
        <time>2024-08-11T11:25:39Z</time>
      </trkpt>
      <trkpt lat="44.93485" lon="6.50429">
        <ele>2432.2</ele>
        <time>2024-08-11T11:25:40Z</time>
      </trkpt>
      <trkpt lat="44.93485" lon="6.50429">
        <ele>2432.2</ele>
        <time>2024-08-11T11:25:41Z</time>
      </trkpt>
      <trkpt lat="44.93485" lon="6.50429">
        <ele>2432.2</ele>
        <time>2024-08-11T11:25:42Z</time>
      </trkpt>
      <trkpt lat="44.93485" lon="6.50429">
        <ele>2432.2</ele>
        <time>2024-08-11T11:25:43Z</time>
      </trkpt>
      <trkpt lat="44.93485" lon="6.50429">
        <ele>2432.2</ele>
        <time>2024-08-11T11:25:44Z</time>
      </trkpt>
      <trkpt lat="44.93485" lon="6.50429">
        <ele>2432.4</ele>
        <time>2024-08-11T11:25:45Z</time>
      </trkpt>
      <trkpt lat="44.93485" lon="6.50429">
        <ele>2432.4</ele>
        <time>2024-08-11T11:25:46Z</time>
      </trkpt>
      <trkpt lat="44.93485" lon="6.50429">
        <ele>2432.2</ele>
        <time>2024-08-11T11:25:47Z</time>
      </trkpt>
      <trkpt lat="44.93485" lon="6.50429">
        <ele>2432.2</ele>
        <time>2024-08-11T11:25:48Z</time>
      </trkpt>
      <trkpt lat="44.93485" lon="6.50429">
        <ele>2432.2</ele>
        <time>2024-08-11T11:25:49Z</time>
      </trkpt>
      <trkpt lat="44.93485" lon="6.50429">
        <ele>2432.2</ele>
        <time>2024-08-11T11:25:50Z</time>
      </trkpt>
      <trkpt lat="44.93485" lon="6.50429">
        <ele>2432</ele>
        <time>2024-08-11T11:25:51Z</time>
      </trkpt>
      <trkpt lat="44.93487" lon="6.50429">
        <ele>2432</ele>
        <time>2024-08-11T11:25:52Z</time>
      </trkpt>
      <trkpt lat="44.93487" lon="6.50429">
        <ele>2432</ele>
        <time>2024-08-11T11:25:53Z</time>
      </trkpt>
      <trkpt lat="44.93489" lon="6.50432">
        <ele>2432.2</ele>
        <time>2024-08-11T11:25:54Z</time>
      </trkpt>
      <trkpt lat="44.93489" lon="6.50432">
        <ele>2432.4</ele>
        <time>2024-08-11T11:25:55Z</time>
      </trkpt>
      <trkpt lat="44.9349" lon="6.50436">
        <ele>2432.4</ele>
        <time>2024-08-11T11:25:56Z</time>
      </trkpt>
      <trkpt lat="44.9349" lon="6.50436">
        <ele>2432.6</ele>
        <time>2024-08-11T11:25:57Z</time>
      </trkpt>
      <trkpt lat="44.93491" lon="6.50439">
        <ele>2432.6</ele>
        <time>2024-08-11T11:25:58Z</time>
      </trkpt>
      <trkpt lat="44.93491" lon="6.50439">
        <ele>2432.6</ele>
        <time>2024-08-11T11:25:59Z</time>
      </trkpt>
      <trkpt lat="44.93491" lon="6.50442">
        <ele>2432.6</ele>
        <time>2024-08-11T11:26:00Z</time>
      </trkpt>
      <trkpt lat="44.93491" lon="6.50442">
        <ele>2432.8</ele>
        <time>2024-08-11T11:26:01Z</time>
      </trkpt>
      <trkpt lat="44.93491" lon="6.50442">
        <ele>2432.8</ele>
        <time>2024-08-11T11:26:02Z</time>
      </trkpt>
      <trkpt lat="44.93491" lon="6.50442">
        <ele>2432.8</ele>
        <time>2024-08-11T11:26:03Z</time>
      </trkpt>
      <trkpt lat="44.93491" lon="6.50442">
        <ele>2433</ele>
        <time>2024-08-11T11:26:04Z</time>
      </trkpt>
      <trkpt lat="44.93491" lon="6.50442">
        <ele>2433.2</ele>
        <time>2024-08-11T11:26:05Z</time>
      </trkpt>
      <trkpt lat="44.93491" lon="6.50442">
        <ele>2433.2</ele>
        <time>2024-08-11T11:26:06Z</time>
      </trkpt>
      <trkpt lat="44.93491" lon="6.50442">
        <ele>2433.2</ele>
        <time>2024-08-11T11:26:07Z</time>
      </trkpt>
      <trkpt lat="44.93491" lon="6.50442">
        <ele>2433.4</ele>
        <time>2024-08-11T11:26:08Z</time>
      </trkpt>
      <trkpt lat="44.93491" lon="6.50442">
        <ele>2433.4</ele>
        <time>2024-08-11T11:26:09Z</time>
      </trkpt>
      <trkpt lat="44.93491" lon="6.50442">
        <ele>2433.2</ele>
        <time>2024-08-11T11:26:10Z</time>
      </trkpt>
      <trkpt lat="44.93491" lon="6.50442">
        <ele>2433.2</ele>
        <time>2024-08-11T11:26:11Z</time>
      </trkpt>
      <trkpt lat="44.93491" lon="6.50442">
        <ele>2433.2</ele>
        <time>2024-08-11T11:26:12Z</time>
      </trkpt>
      <trkpt lat="44.93491" lon="6.50442">
        <ele>2433.2</ele>
        <time>2024-08-11T11:26:13Z</time>
      </trkpt>
      <trkpt lat="44.93491" lon="6.50442">
        <ele>2433.6</ele>
        <time>2024-08-11T11:26:14Z</time>
      </trkpt>
      <trkpt lat="44.93491" lon="6.50442">
        <ele>2433.6</ele>
        <time>2024-08-11T11:26:15Z</time>
      </trkpt>
      <trkpt lat="44.93491" lon="6.50442">
        <ele>2433.4</ele>
        <time>2024-08-11T11:26:16Z</time>
      </trkpt>
      <trkpt lat="44.93491" lon="6.50442">
        <ele>2433.4</ele>
        <time>2024-08-11T11:26:17Z</time>
      </trkpt>
      <trkpt lat="44.93491" lon="6.50445">
        <ele>2433.4</ele>
        <time>2024-08-11T11:26:18Z</time>
      </trkpt>
      <trkpt lat="44.93491" lon="6.50445">
        <ele>2433.8</ele>
        <time>2024-08-11T11:26:19Z</time>
      </trkpt>
      <trkpt lat="44.93492" lon="6.50449">
        <ele>2434</ele>
        <time>2024-08-11T11:26:20Z</time>
      </trkpt>
      <trkpt lat="44.93492" lon="6.50449">
        <ele>2434</ele>
        <time>2024-08-11T11:26:21Z</time>
      </trkpt>
      <trkpt lat="44.93492" lon="6.50454">
        <ele>2434</ele>
        <time>2024-08-11T11:26:22Z</time>
      </trkpt>
      <trkpt lat="44.93492" lon="6.50454">
        <ele>2434.4</ele>
        <time>2024-08-11T11:26:23Z</time>
      </trkpt>
      <trkpt lat="44.93492" lon="6.50457">
        <ele>2434.4</ele>
        <time>2024-08-11T11:26:24Z</time>
      </trkpt>
      <trkpt lat="44.93492" lon="6.50457">
        <ele>2434.6</ele>
        <time>2024-08-11T11:26:25Z</time>
      </trkpt>
      <trkpt lat="44.93492" lon="6.5046">
        <ele>2434.8</ele>
        <time>2024-08-11T11:26:26Z</time>
      </trkpt>
      <trkpt lat="44.93492" lon="6.5046">
        <ele>2434.8</ele>
        <time>2024-08-11T11:26:27Z</time>
      </trkpt>
      <trkpt lat="44.93493" lon="6.50463">
        <ele>2434.8</ele>
        <time>2024-08-11T11:26:28Z</time>
      </trkpt>
      <trkpt lat="44.93493" lon="6.50463">
        <ele>2435.2</ele>
        <time>2024-08-11T11:26:29Z</time>
      </trkpt>
      <trkpt lat="44.93494" lon="6.50466">
        <ele>2435.6</ele>
        <time>2024-08-11T11:26:30Z</time>
      </trkpt>
      <trkpt lat="44.93494" lon="6.50466">
        <ele>2435.8</ele>
        <time>2024-08-11T11:26:31Z</time>
      </trkpt>
      <trkpt lat="44.93495" lon="6.50469">
        <ele>2436</ele>
        <time>2024-08-11T11:26:32Z</time>
      </trkpt>
      <trkpt lat="44.93495" lon="6.50469">
        <ele>2436</ele>
        <time>2024-08-11T11:26:33Z</time>
      </trkpt>
      <trkpt lat="44.93496" lon="6.50471">
        <ele>2436.2</ele>
        <time>2024-08-11T11:26:34Z</time>
      </trkpt>
      <trkpt lat="44.93496" lon="6.50471">
        <ele>2436.6</ele>
        <time>2024-08-11T11:26:35Z</time>
      </trkpt>
      <trkpt lat="44.93498" lon="6.50473">
        <ele>2436.6</ele>
        <time>2024-08-11T11:26:36Z</time>
      </trkpt>
      <trkpt lat="44.93498" lon="6.50473">
        <ele>2436.8</ele>
        <time>2024-08-11T11:26:37Z</time>
      </trkpt>
      <trkpt lat="44.93498" lon="6.50473">
        <ele>2437.2</ele>
        <time>2024-08-11T11:26:38Z</time>
      </trkpt>
      <trkpt lat="44.935" lon="6.50475">
        <ele>2437.4</ele>
        <time>2024-08-11T11:26:39Z</time>
      </trkpt>
      <trkpt lat="44.935" lon="6.50475">
        <ele>2437.8</ele>
        <time>2024-08-11T11:26:40Z</time>
      </trkpt>
      <trkpt lat="44.93502" lon="6.50475">
        <ele>2437.8</ele>
        <time>2024-08-11T11:26:41Z</time>
      </trkpt>
      <trkpt lat="44.93502" lon="6.50475">
        <ele>2438</ele>
        <time>2024-08-11T11:26:42Z</time>
      </trkpt>
      <trkpt lat="44.93504" lon="6.50475">
        <ele>2438.2</ele>
        <time>2024-08-11T11:26:43Z</time>
      </trkpt>
      <trkpt lat="44.93504" lon="6.50475">
        <ele>2438.4</ele>
        <time>2024-08-11T11:26:44Z</time>
      </trkpt>
      <trkpt lat="44.93506" lon="6.50475">
        <ele>2438.6</ele>
        <time>2024-08-11T11:26:45Z</time>
      </trkpt>
      <trkpt lat="44.93506" lon="6.50475">
        <ele>2438.8</ele>
        <time>2024-08-11T11:26:46Z</time>
      </trkpt>
      <trkpt lat="44.93508" lon="6.50474">
        <ele>2439.2</ele>
        <time>2024-08-11T11:26:47Z</time>
      </trkpt>
      <trkpt lat="44.93508" lon="6.50474">
        <ele>2439.4</ele>
        <time>2024-08-11T11:26:48Z</time>
      </trkpt>
      <trkpt lat="44.9351" lon="6.50474">
        <ele>2439.6</ele>
        <time>2024-08-11T11:26:49Z</time>
      </trkpt>
      <trkpt lat="44.9351" lon="6.50474">
        <ele>2439.6</ele>
        <time>2024-08-11T11:26:50Z</time>
      </trkpt>
      <trkpt lat="44.93512" lon="6.50473">
        <ele>2440</ele>
        <time>2024-08-11T11:26:51Z</time>
      </trkpt>
      <trkpt lat="44.93512" lon="6.50473">
        <ele>2440.2</ele>
        <time>2024-08-11T11:26:52Z</time>
      </trkpt>
      <trkpt lat="44.93514" lon="6.50472">
        <ele>2440.2</ele>
        <time>2024-08-11T11:26:53Z</time>
      </trkpt>
      <trkpt lat="44.93514" lon="6.50472">
        <ele>2440.2</ele>
        <time>2024-08-11T11:26:54Z</time>
      </trkpt>
      <trkpt lat="44.93516" lon="6.50471">
        <ele>2440.4</ele>
        <time>2024-08-11T11:26:55Z</time>
      </trkpt>
      <trkpt lat="44.93516" lon="6.50471">
        <ele>2440.8</ele>
        <time>2024-08-11T11:26:56Z</time>
      </trkpt>
      <trkpt lat="44.93517" lon="6.5047">
        <ele>2441</ele>
        <time>2024-08-11T11:26:57Z</time>
      </trkpt>
      <trkpt lat="44.93517" lon="6.5047">
        <ele>2441</ele>
        <time>2024-08-11T11:26:58Z</time>
      </trkpt>
      <trkpt lat="44.93519" lon="6.50469">
        <ele>2441.2</ele>
        <time>2024-08-11T11:26:59Z</time>
      </trkpt>
      <trkpt lat="44.93519" lon="6.50469">
        <ele>2441.2</ele>
        <time>2024-08-11T11:27:00Z</time>
      </trkpt>
      <trkpt lat="44.93522" lon="6.50468">
        <ele>2441.4</ele>
        <time>2024-08-11T11:27:01Z</time>
      </trkpt>
      <trkpt lat="44.93522" lon="6.50468">
        <ele>2441.8</ele>
        <time>2024-08-11T11:27:02Z</time>
      </trkpt>
      <trkpt lat="44.93524" lon="6.50467">
        <ele>2441.8</ele>
        <time>2024-08-11T11:27:03Z</time>
      </trkpt>
      <trkpt lat="44.93524" lon="6.50467">
        <ele>2442</ele>
        <time>2024-08-11T11:27:04Z</time>
      </trkpt>
      <trkpt lat="44.93526" lon="6.50466">
        <ele>2442</ele>
        <time>2024-08-11T11:27:05Z</time>
      </trkpt>
      <trkpt lat="44.93526" lon="6.50466">
        <ele>2442.2</ele>
        <time>2024-08-11T11:27:06Z</time>
      </trkpt>
      <trkpt lat="44.93529" lon="6.50465">
        <ele>2442.6</ele>
        <time>2024-08-11T11:27:07Z</time>
      </trkpt>
      <trkpt lat="44.93529" lon="6.50465">
        <ele>2442.6</ele>
        <time>2024-08-11T11:27:08Z</time>
      </trkpt>
      <trkpt lat="44.93531" lon="6.50464">
        <ele>2442.6</ele>
        <time>2024-08-11T11:27:09Z</time>
      </trkpt>
      <trkpt lat="44.93531" lon="6.50464">
        <ele>2442.8</ele>
        <time>2024-08-11T11:27:10Z</time>
      </trkpt>
      <trkpt lat="44.93534" lon="6.50464">
        <ele>2442.8</ele>
        <time>2024-08-11T11:27:11Z</time>
      </trkpt>
      <trkpt lat="44.93534" lon="6.50464">
        <ele>2442.8</ele>
        <time>2024-08-11T11:27:12Z</time>
      </trkpt>
      <trkpt lat="44.93536" lon="6.50463">
        <ele>2443</ele>
        <time>2024-08-11T11:27:13Z</time>
      </trkpt>
      <trkpt lat="44.93536" lon="6.50463">
        <ele>2443.2</ele>
        <time>2024-08-11T11:27:14Z</time>
      </trkpt>
      <trkpt lat="44.93538" lon="6.50462">
        <ele>2443.4</ele>
        <time>2024-08-11T11:27:15Z</time>
      </trkpt>
      <trkpt lat="44.93538" lon="6.50462">
        <ele>2443.8</ele>
        <time>2024-08-11T11:27:16Z</time>
      </trkpt>
      <trkpt lat="44.93541" lon="6.50462">
        <ele>2443.8</ele>
        <time>2024-08-11T11:27:17Z</time>
      </trkpt>
      <trkpt lat="44.93541" lon="6.50462">
        <ele>2443.8</ele>
        <time>2024-08-11T11:27:18Z</time>
      </trkpt>
      <trkpt lat="44.93543" lon="6.50462">
        <ele>2444</ele>
        <time>2024-08-11T11:27:19Z</time>
      </trkpt>
      <trkpt lat="44.93543" lon="6.50462">
        <ele>2444</ele>
        <time>2024-08-11T11:27:20Z</time>
      </trkpt>
      <trkpt lat="44.93545" lon="6.50461">
        <ele>2444.2</ele>
        <time>2024-08-11T11:27:21Z</time>
      </trkpt>
      <trkpt lat="44.93545" lon="6.50461">
        <ele>2444.2</ele>
        <time>2024-08-11T11:27:22Z</time>
      </trkpt>
      <trkpt lat="44.93545" lon="6.50461">
        <ele>2444.2</ele>
        <time>2024-08-11T11:27:23Z</time>
      </trkpt>
      <trkpt lat="44.93548" lon="6.5046">
        <ele>2444.6</ele>
        <time>2024-08-11T11:27:24Z</time>
      </trkpt>
      <trkpt lat="44.93548" lon="6.5046">
        <ele>2444.6</ele>
        <time>2024-08-11T11:27:25Z</time>
      </trkpt>
      <trkpt lat="44.9355" lon="6.50458">
        <ele>2444.8</ele>
        <time>2024-08-11T11:27:26Z</time>
      </trkpt>
      <trkpt lat="44.9355" lon="6.50458">
        <ele>2445</ele>
        <time>2024-08-11T11:27:27Z</time>
      </trkpt>
      <trkpt lat="44.93552" lon="6.50456">
        <ele>2445</ele>
        <time>2024-08-11T11:27:28Z</time>
      </trkpt>
      <trkpt lat="44.93552" lon="6.50456">
        <ele>2445.2</ele>
        <time>2024-08-11T11:27:29Z</time>
      </trkpt>
      <trkpt lat="44.93554" lon="6.50456">
        <ele>2445.2</ele>
        <time>2024-08-11T11:27:30Z</time>
      </trkpt>
      <trkpt lat="44.93554" lon="6.50456">
        <ele>2445.2</ele>
        <time>2024-08-11T11:27:31Z</time>
      </trkpt>
      <trkpt lat="44.93554" lon="6.50456">
        <ele>2445.2</ele>
        <time>2024-08-11T11:27:32Z</time>
      </trkpt>
      <trkpt lat="44.93556" lon="6.50456">
        <ele>2445</ele>
        <time>2024-08-11T11:27:33Z</time>
      </trkpt>
      <trkpt lat="44.93556" lon="6.50456">
        <ele>2445</ele>
        <time>2024-08-11T11:27:34Z</time>
      </trkpt>
      <trkpt lat="44.93557" lon="6.50454">
        <ele>2445.4</ele>
        <time>2024-08-11T11:27:35Z</time>
      </trkpt>
      <trkpt lat="44.93557" lon="6.50454">
        <ele>2445.6</ele>
        <time>2024-08-11T11:27:36Z</time>
      </trkpt>
      <trkpt lat="44.93557" lon="6.50454">
        <ele>2445.6</ele>
        <time>2024-08-11T11:27:37Z</time>
      </trkpt>
      <trkpt lat="44.93557" lon="6.50454">
        <ele>2445.6</ele>
        <time>2024-08-11T11:27:38Z</time>
      </trkpt>
      <trkpt lat="44.93557" lon="6.50454">
        <ele>2445.6</ele>
        <time>2024-08-11T11:27:39Z</time>
      </trkpt>
      <trkpt lat="44.93557" lon="6.50454">
        <ele>2445.6</ele>
        <time>2024-08-11T11:27:40Z</time>
      </trkpt>
      <trkpt lat="44.93557" lon="6.50454">
        <ele>2445.4</ele>
        <time>2024-08-11T11:27:41Z</time>
      </trkpt>
      <trkpt lat="44.93557" lon="6.50454">
        <ele>2445.4</ele>
        <time>2024-08-11T11:27:42Z</time>
      </trkpt>
      <trkpt lat="44.93557" lon="6.50454">
        <ele>2445.6</ele>
        <time>2024-08-11T11:27:43Z</time>
      </trkpt>
      <trkpt lat="44.93557" lon="6.50454">
        <ele>2445.6</ele>
        <time>2024-08-11T11:27:44Z</time>
      </trkpt>
      <trkpt lat="44.93557" lon="6.50454">
        <ele>2445.6</ele>
        <time>2024-08-11T11:27:45Z</time>
      </trkpt>
      <trkpt lat="44.93557" lon="6.50454">
        <ele>2445.6</ele>
        <time>2024-08-11T11:27:46Z</time>
      </trkpt>
      <trkpt lat="44.93557" lon="6.50454">
        <ele>2445.8</ele>
        <time>2024-08-11T11:27:47Z</time>
      </trkpt>
      <trkpt lat="44.93557" lon="6.50454">
        <ele>2445.8</ele>
        <time>2024-08-11T11:27:48Z</time>
      </trkpt>
      <trkpt lat="44.93557" lon="6.50454">
        <ele>2446</ele>
        <time>2024-08-11T11:27:49Z</time>
      </trkpt>
      <trkpt lat="44.93557" lon="6.50454">
        <ele>2446</ele>
        <time>2024-08-11T11:27:50Z</time>
      </trkpt>
      <trkpt lat="44.93557" lon="6.50454">
        <ele>2445.6</ele>
        <time>2024-08-11T11:27:51Z</time>
      </trkpt>
      <trkpt lat="44.93557" lon="6.50454">
        <ele>2445.6</ele>
        <time>2024-08-11T11:27:52Z</time>
      </trkpt>
      <trkpt lat="44.93557" lon="6.50454">
        <ele>2445.6</ele>
        <time>2024-08-11T11:27:53Z</time>
      </trkpt>
      <trkpt lat="44.93557" lon="6.50454">
        <ele>2445.4</ele>
        <time>2024-08-11T11:27:54Z</time>
      </trkpt>
      <trkpt lat="44.93557" lon="6.50454">
        <ele>2445.4</ele>
        <time>2024-08-11T11:27:55Z</time>
      </trkpt>
      <trkpt lat="44.93557" lon="6.50454">
        <ele>2445.2</ele>
        <time>2024-08-11T11:27:56Z</time>
      </trkpt>
      <trkpt lat="44.93557" lon="6.50454">
        <ele>2445.4</ele>
        <time>2024-08-11T11:27:57Z</time>
      </trkpt>
      <trkpt lat="44.93557" lon="6.50454">
        <ele>2445.6</ele>
        <time>2024-08-11T11:27:58Z</time>
      </trkpt>
      <trkpt lat="44.93557" lon="6.50454">
        <ele>2445.6</ele>
        <time>2024-08-11T11:27:59Z</time>
      </trkpt>
      <trkpt lat="44.93557" lon="6.50454">
        <ele>2445.6</ele>
        <time>2024-08-11T11:28:00Z</time>
      </trkpt>
      <trkpt lat="44.93557" lon="6.50454">
        <ele>2445.6</ele>
        <time>2024-08-11T11:28:01Z</time>
      </trkpt>
      <trkpt lat="44.93557" lon="6.50454">
        <ele>2445.6</ele>
        <time>2024-08-11T11:28:02Z</time>
      </trkpt>
      <trkpt lat="44.93557" lon="6.50454">
        <ele>2445.6</ele>
        <time>2024-08-11T11:28:03Z</time>
      </trkpt>
      <trkpt lat="44.93557" lon="6.50454">
        <ele>2445.4</ele>
        <time>2024-08-11T11:28:04Z</time>
      </trkpt>
      <trkpt lat="44.93557" lon="6.50454">
        <ele>2445.4</ele>
        <time>2024-08-11T11:28:05Z</time>
      </trkpt>
      <trkpt lat="44.93557" lon="6.50454">
        <ele>2445.6</ele>
        <time>2024-08-11T11:28:06Z</time>
      </trkpt>
      <trkpt lat="44.93557" lon="6.50454">
        <ele>2445.6</ele>
        <time>2024-08-11T11:28:07Z</time>
      </trkpt>
      <trkpt lat="44.93557" lon="6.50454">
        <ele>2445.6</ele>
        <time>2024-08-11T11:28:08Z</time>
      </trkpt>
      <trkpt lat="44.93557" lon="6.50454">
        <ele>2445.6</ele>
        <time>2024-08-11T11:28:09Z</time>
      </trkpt>
      <trkpt lat="44.93557" lon="6.50454">
        <ele>2445.6</ele>
        <time>2024-08-11T11:28:10Z</time>
      </trkpt>
      <trkpt lat="44.93557" lon="6.50454">
        <ele>2445.8</ele>
        <time>2024-08-11T11:28:11Z</time>
      </trkpt>
      <trkpt lat="44.93557" lon="6.50454">
        <ele>2445.8</ele>
        <time>2024-08-11T11:28:12Z</time>
      </trkpt>
      <trkpt lat="44.93557" lon="6.50454">
        <ele>2445.8</ele>
        <time>2024-08-11T11:28:13Z</time>
      </trkpt>
      <trkpt lat="44.93557" lon="6.50454">
        <ele>2445.6</ele>
        <time>2024-08-11T11:28:14Z</time>
      </trkpt>
      <trkpt lat="44.93557" lon="6.50454">
        <ele>2445.6</ele>
        <time>2024-08-11T11:28:15Z</time>
      </trkpt>
      <trkpt lat="44.93557" lon="6.50454">
        <ele>2445.8</ele>
        <time>2024-08-11T11:28:16Z</time>
      </trkpt>
      <trkpt lat="44.93557" lon="6.50454">
        <ele>2445.8</ele>
        <time>2024-08-11T11:28:17Z</time>
      </trkpt>
      <trkpt lat="44.93557" lon="6.50454">
        <ele>2445.8</ele>
        <time>2024-08-11T11:28:18Z</time>
      </trkpt>
      <trkpt lat="44.93557" lon="6.50454">
        <ele>2445.8</ele>
        <time>2024-08-11T11:28:19Z</time>
      </trkpt>
      <trkpt lat="44.93557" lon="6.50454">
        <ele>2446</ele>
        <time>2024-08-11T11:28:20Z</time>
      </trkpt>
      <trkpt lat="44.93557" lon="6.50454">
        <ele>2446</ele>
        <time>2024-08-11T11:28:21Z</time>
      </trkpt>
      <trkpt lat="44.93557" lon="6.50454">
        <ele>2445.8</ele>
        <time>2024-08-11T11:28:22Z</time>
      </trkpt>
      <trkpt lat="44.93557" lon="6.50454">
        <ele>2445.8</ele>
        <time>2024-08-11T11:28:23Z</time>
      </trkpt>
      <trkpt lat="44.93557" lon="6.50454">
        <ele>2446.2</ele>
        <time>2024-08-11T11:28:24Z</time>
      </trkpt>
      <trkpt lat="44.93557" lon="6.50454">
        <ele>2446.2</ele>
        <time>2024-08-11T11:28:25Z</time>
      </trkpt>
      <trkpt lat="44.93557" lon="6.50454">
        <ele>2446</ele>
        <time>2024-08-11T11:28:26Z</time>
      </trkpt>
      <trkpt lat="44.93557" lon="6.50454">
        <ele>2446</ele>
        <time>2024-08-11T11:28:27Z</time>
      </trkpt>
      <trkpt lat="44.93557" lon="6.50454">
        <ele>2445.8</ele>
        <time>2024-08-11T11:28:28Z</time>
      </trkpt>
      <trkpt lat="44.93557" lon="6.50454">
        <ele>2445.8</ele>
        <time>2024-08-11T11:28:29Z</time>
      </trkpt>
      <trkpt lat="44.93557" lon="6.50454">
        <ele>2445.8</ele>
        <time>2024-08-11T11:28:30Z</time>
      </trkpt>
      <trkpt lat="44.93557" lon="6.50454">
        <ele>2445.8</ele>
        <time>2024-08-11T11:28:31Z</time>
      </trkpt>
      <trkpt lat="44.93557" lon="6.50454">
        <ele>2446</ele>
        <time>2024-08-11T11:28:32Z</time>
      </trkpt>
      <trkpt lat="44.93557" lon="6.50454">
        <ele>2446</ele>
        <time>2024-08-11T11:28:33Z</time>
      </trkpt>
      <trkpt lat="44.93557" lon="6.50454">
        <ele>2446.2</ele>
        <time>2024-08-11T11:28:34Z</time>
      </trkpt>
      <trkpt lat="44.93557" lon="6.50454">
        <ele>2446.2</ele>
        <time>2024-08-11T11:28:35Z</time>
      </trkpt>
      <trkpt lat="44.93557" lon="6.50454">
        <ele>2446.2</ele>
        <time>2024-08-11T11:28:36Z</time>
      </trkpt>
      <trkpt lat="44.93557" lon="6.50454">
        <ele>2446.2</ele>
        <time>2024-08-11T11:28:37Z</time>
      </trkpt>
      <trkpt lat="44.93557" lon="6.50454">
        <ele>2446</ele>
        <time>2024-08-11T11:28:38Z</time>
      </trkpt>
      <trkpt lat="44.93557" lon="6.50454">
        <ele>2446</ele>
        <time>2024-08-11T11:28:39Z</time>
      </trkpt>
      <trkpt lat="44.93557" lon="6.50454">
        <ele>2446.2</ele>
        <time>2024-08-11T11:28:40Z</time>
      </trkpt>
      <trkpt lat="44.93557" lon="6.50454">
        <ele>2446.2</ele>
        <time>2024-08-11T11:28:41Z</time>
      </trkpt>
      <trkpt lat="44.93557" lon="6.50454">
        <ele>2446.2</ele>
        <time>2024-08-11T11:28:42Z</time>
      </trkpt>
      <trkpt lat="44.93557" lon="6.50454">
        <ele>2446.2</ele>
        <time>2024-08-11T11:28:43Z</time>
      </trkpt>
      <trkpt lat="44.93557" lon="6.50454">
        <ele>2446.2</ele>
        <time>2024-08-11T11:28:44Z</time>
      </trkpt>
      <trkpt lat="44.93557" lon="6.50454">
        <ele>2446.2</ele>
        <time>2024-08-11T11:28:45Z</time>
      </trkpt>
      <trkpt lat="44.93557" lon="6.50454">
        <ele>2446.2</ele>
        <time>2024-08-11T11:28:46Z</time>
      </trkpt>
      <trkpt lat="44.93557" lon="6.50454">
        <ele>2446.4</ele>
        <time>2024-08-11T11:28:47Z</time>
      </trkpt>
      <trkpt lat="44.93557" lon="6.50454">
        <ele>2446.4</ele>
        <time>2024-08-11T11:28:48Z</time>
      </trkpt>
      <trkpt lat="44.93557" lon="6.50454">
        <ele>2446.4</ele>
        <time>2024-08-11T11:28:49Z</time>
      </trkpt>
      <trkpt lat="44.93557" lon="6.50454">
        <ele>2446.4</ele>
        <time>2024-08-11T11:28:50Z</time>
      </trkpt>
      <trkpt lat="44.93557" lon="6.50454">
        <ele>2446.4</ele>
        <time>2024-08-11T11:28:51Z</time>
      </trkpt>
      <trkpt lat="44.93557" lon="6.50454">
        <ele>2446.4</ele>
        <time>2024-08-11T11:28:52Z</time>
      </trkpt>
      <trkpt lat="44.93557" lon="6.50454">
        <ele>2446.4</ele>
        <time>2024-08-11T11:28:53Z</time>
      </trkpt>
      <trkpt lat="44.93557" lon="6.50454">
        <ele>2446.6</ele>
        <time>2024-08-11T11:28:54Z</time>
      </trkpt>
      <trkpt lat="44.93557" lon="6.50454">
        <ele>2446.6</ele>
        <time>2024-08-11T11:28:55Z</time>
      </trkpt>
      <trkpt lat="44.93557" lon="6.50454">
        <ele>2446.4</ele>
        <time>2024-08-11T11:28:56Z</time>
      </trkpt>
      <trkpt lat="44.93557" lon="6.50454">
        <ele>2446.4</ele>
        <time>2024-08-11T11:28:57Z</time>
      </trkpt>
      <trkpt lat="44.93557" lon="6.50454">
        <ele>2446.4</ele>
        <time>2024-08-11T11:28:58Z</time>
      </trkpt>
      <trkpt lat="44.93557" lon="6.50454">
        <ele>2446.4</ele>
        <time>2024-08-11T11:28:59Z</time>
      </trkpt>
      <trkpt lat="44.93557" lon="6.50454">
        <ele>2446.2</ele>
        <time>2024-08-11T11:29:00Z</time>
      </trkpt>
      <trkpt lat="44.93557" lon="6.50454">
        <ele>2446.2</ele>
        <time>2024-08-11T11:29:01Z</time>
      </trkpt>
      <trkpt lat="44.93557" lon="6.50454">
        <ele>2446.6</ele>
        <time>2024-08-11T11:29:02Z</time>
      </trkpt>
      <trkpt lat="44.93557" lon="6.50454">
        <ele>2446.6</ele>
        <time>2024-08-11T11:29:03Z</time>
      </trkpt>
      <trkpt lat="44.93557" lon="6.50454">
        <ele>2446.6</ele>
        <time>2024-08-11T11:29:04Z</time>
      </trkpt>
      <trkpt lat="44.93557" lon="6.50454">
        <ele>2446.6</ele>
        <time>2024-08-11T11:29:05Z</time>
      </trkpt>
      <trkpt lat="44.93557" lon="6.50454">
        <ele>2446.6</ele>
        <time>2024-08-11T11:29:06Z</time>
      </trkpt>
      <trkpt lat="44.93557" lon="6.50454">
        <ele>2446.6</ele>
        <time>2024-08-11T11:29:07Z</time>
      </trkpt>
      <trkpt lat="44.93557" lon="6.50454">
        <ele>2446.6</ele>
        <time>2024-08-11T11:29:08Z</time>
      </trkpt>
      <trkpt lat="44.93557" lon="6.50454">
        <ele>2446.6</ele>
        <time>2024-08-11T11:29:09Z</time>
      </trkpt>
      <trkpt lat="44.93557" lon="6.50454">
        <ele>2446.6</ele>
        <time>2024-08-11T11:29:10Z</time>
      </trkpt>
      <trkpt lat="44.93557" lon="6.50454">
        <ele>2446.6</ele>
        <time>2024-08-11T11:29:11Z</time>
      </trkpt>
      <trkpt lat="44.93557" lon="6.50454">
        <ele>2446.4</ele>
        <time>2024-08-11T11:29:12Z</time>
      </trkpt>
      <trkpt lat="44.93557" lon="6.50454">
        <ele>2446.4</ele>
        <time>2024-08-11T11:29:13Z</time>
      </trkpt>
      <trkpt lat="44.93557" lon="6.50454">
        <ele>2446.6</ele>
        <time>2024-08-11T11:29:14Z</time>
      </trkpt>
      <trkpt lat="44.93557" lon="6.50454">
        <ele>2446.6</ele>
        <time>2024-08-11T11:29:15Z</time>
      </trkpt>
      <trkpt lat="44.93557" lon="6.50454">
        <ele>2446.4</ele>
        <time>2024-08-11T11:29:16Z</time>
      </trkpt>
      <trkpt lat="44.93557" lon="6.50454">
        <ele>2446.4</ele>
        <time>2024-08-11T11:29:17Z</time>
      </trkpt>
      <trkpt lat="44.93557" lon="6.50454">
        <ele>2446.6</ele>
        <time>2024-08-11T11:29:18Z</time>
      </trkpt>
      <trkpt lat="44.93557" lon="6.50454">
        <ele>2446.6</ele>
        <time>2024-08-11T11:29:19Z</time>
      </trkpt>
      <trkpt lat="44.93557" lon="6.50454">
        <ele>2446.6</ele>
        <time>2024-08-11T11:29:20Z</time>
      </trkpt>
      <trkpt lat="44.93557" lon="6.50454">
        <ele>2446.6</ele>
        <time>2024-08-11T11:29:21Z</time>
      </trkpt>
      <trkpt lat="44.93557" lon="6.50454">
        <ele>2446.6</ele>
        <time>2024-08-11T11:29:22Z</time>
      </trkpt>
      <trkpt lat="44.93557" lon="6.50454">
        <ele>2446.4</ele>
        <time>2024-08-11T11:29:23Z</time>
      </trkpt>
      <trkpt lat="44.93557" lon="6.50454">
        <ele>2446.6</ele>
        <time>2024-08-11T11:29:24Z</time>
      </trkpt>
      <trkpt lat="44.93557" lon="6.50454">
        <ele>2446.4</ele>
        <time>2024-08-11T11:29:25Z</time>
      </trkpt>
      <trkpt lat="44.93557" lon="6.50454">
        <ele>2446.6</ele>
        <time>2024-08-11T11:29:26Z</time>
      </trkpt>
      <trkpt lat="44.93557" lon="6.50454">
        <ele>2446.6</ele>
        <time>2024-08-11T11:29:27Z</time>
      </trkpt>
      <trkpt lat="44.93557" lon="6.50454">
        <ele>2446.6</ele>
        <time>2024-08-11T11:29:28Z</time>
      </trkpt>
      <trkpt lat="44.93557" lon="6.50454">
        <ele>2446.8</ele>
        <time>2024-08-11T11:29:29Z</time>
      </trkpt>
      <trkpt lat="44.93557" lon="6.50454">
        <ele>2446.8</ele>
        <time>2024-08-11T11:29:30Z</time>
      </trkpt>
      <trkpt lat="44.93557" lon="6.50454">
        <ele>2446.8</ele>
        <time>2024-08-11T11:29:31Z</time>
      </trkpt>
      <trkpt lat="44.93557" lon="6.50454">
        <ele>2446.8</ele>
        <time>2024-08-11T11:29:32Z</time>
      </trkpt>
      <trkpt lat="44.93557" lon="6.50454">
        <ele>2446.8</ele>
        <time>2024-08-11T11:29:33Z</time>
      </trkpt>
      <trkpt lat="44.93557" lon="6.50454">
        <ele>2446.8</ele>
        <time>2024-08-11T11:29:34Z</time>
      </trkpt>
      <trkpt lat="44.93557" lon="6.50454">
        <ele>2446.8</ele>
        <time>2024-08-11T11:29:35Z</time>
      </trkpt>
      <trkpt lat="44.93557" lon="6.50454">
        <ele>2446.8</ele>
        <time>2024-08-11T11:29:36Z</time>
      </trkpt>
      <trkpt lat="44.93557" lon="6.50454">
        <ele>2446.8</ele>
        <time>2024-08-11T11:29:37Z</time>
      </trkpt>
      <trkpt lat="44.93557" lon="6.50454">
        <ele>2446.8</ele>
        <time>2024-08-11T11:29:38Z</time>
      </trkpt>
      <trkpt lat="44.93557" lon="6.50454">
        <ele>2446.8</ele>
        <time>2024-08-11T11:29:39Z</time>
      </trkpt>
      <trkpt lat="44.93557" lon="6.50454">
        <ele>2446.8</ele>
        <time>2024-08-11T11:29:40Z</time>
      </trkpt>
      <trkpt lat="44.93557" lon="6.50454">
        <ele>2446.8</ele>
        <time>2024-08-11T11:29:41Z</time>
      </trkpt>
      <trkpt lat="44.93557" lon="6.50454">
        <ele>2446.8</ele>
        <time>2024-08-11T11:29:42Z</time>
      </trkpt>
      <trkpt lat="44.93557" lon="6.50454">
        <ele>2447</ele>
        <time>2024-08-11T11:29:43Z</time>
      </trkpt>
      <trkpt lat="44.93557" lon="6.50454">
        <ele>2447</ele>
        <time>2024-08-11T11:29:44Z</time>
      </trkpt>
      <trkpt lat="44.93557" lon="6.50454">
        <ele>2446.8</ele>
        <time>2024-08-11T11:29:45Z</time>
      </trkpt>
      <trkpt lat="44.93557" lon="6.50454">
        <ele>2446.8</ele>
        <time>2024-08-11T11:29:46Z</time>
      </trkpt>
      <trkpt lat="44.93557" lon="6.50454">
        <ele>2446.8</ele>
        <time>2024-08-11T11:29:47Z</time>
      </trkpt>
      <trkpt lat="44.93557" lon="6.50454">
        <ele>2447</ele>
        <time>2024-08-11T11:29:48Z</time>
      </trkpt>
      <trkpt lat="44.93557" lon="6.50454">
        <ele>2446.8</ele>
        <time>2024-08-11T11:29:49Z</time>
      </trkpt>
      <trkpt lat="44.93557" lon="6.50454">
        <ele>2446.8</ele>
        <time>2024-08-11T11:29:50Z</time>
      </trkpt>
      <trkpt lat="44.93557" lon="6.50454">
        <ele>2446.8</ele>
        <time>2024-08-11T11:29:51Z</time>
      </trkpt>
      <trkpt lat="44.93557" lon="6.50454">
        <ele>2446.8</ele>
        <time>2024-08-11T11:29:52Z</time>
      </trkpt>
      <trkpt lat="44.93557" lon="6.50454">
        <ele>2446.8</ele>
        <time>2024-08-11T11:29:53Z</time>
      </trkpt>
      <trkpt lat="44.93557" lon="6.50454">
        <ele>2447</ele>
        <time>2024-08-11T11:29:54Z</time>
      </trkpt>
      <trkpt lat="44.93557" lon="6.50454">
        <ele>2447</ele>
        <time>2024-08-11T11:29:55Z</time>
      </trkpt>
      <trkpt lat="44.93557" lon="6.50454">
        <ele>2447</ele>
        <time>2024-08-11T11:29:56Z</time>
      </trkpt>
      <trkpt lat="44.93557" lon="6.50454">
        <ele>2447</ele>
        <time>2024-08-11T11:29:57Z</time>
      </trkpt>
      <trkpt lat="44.93557" lon="6.50454">
        <ele>2447</ele>
        <time>2024-08-11T11:29:58Z</time>
      </trkpt>
      <trkpt lat="44.93557" lon="6.50454">
        <ele>2446.8</ele>
        <time>2024-08-11T11:29:59Z</time>
      </trkpt>
      <trkpt lat="44.93557" lon="6.50454">
        <ele>2446.8</ele>
        <time>2024-08-11T11:30:00Z</time>
      </trkpt>
      <trkpt lat="44.93557" lon="6.50454">
        <ele>2447</ele>
        <time>2024-08-11T11:30:01Z</time>
      </trkpt>
      <trkpt lat="44.93557" lon="6.50454">
        <ele>2447</ele>
        <time>2024-08-11T11:30:02Z</time>
      </trkpt>
      <trkpt lat="44.93557" lon="6.50454">
        <ele>2447</ele>
        <time>2024-08-11T11:30:03Z</time>
      </trkpt>
      <trkpt lat="44.93557" lon="6.50454">
        <ele>2447</ele>
        <time>2024-08-11T11:30:04Z</time>
      </trkpt>
      <trkpt lat="44.93557" lon="6.50454">
        <ele>2447</ele>
        <time>2024-08-11T11:30:05Z</time>
      </trkpt>
      <trkpt lat="44.93557" lon="6.50454">
        <ele>2447.2</ele>
        <time>2024-08-11T11:30:06Z</time>
      </trkpt>
      <trkpt lat="44.93557" lon="6.50454">
        <ele>2447.2</ele>
        <time>2024-08-11T11:30:07Z</time>
      </trkpt>
      <trkpt lat="44.93557" lon="6.50454">
        <ele>2447.2</ele>
        <time>2024-08-11T11:30:08Z</time>
      </trkpt>
      <trkpt lat="44.93557" lon="6.50454">
        <ele>2447.2</ele>
        <time>2024-08-11T11:30:09Z</time>
      </trkpt>
      <trkpt lat="44.93557" lon="6.50454">
        <ele>2447.2</ele>
        <time>2024-08-11T11:30:10Z</time>
      </trkpt>
      <trkpt lat="44.93557" lon="6.50454">
        <ele>2447.2</ele>
        <time>2024-08-11T11:30:11Z</time>
      </trkpt>
      <trkpt lat="44.93557" lon="6.50454">
        <ele>2447.2</ele>
        <time>2024-08-11T11:30:12Z</time>
      </trkpt>
      <trkpt lat="44.93557" lon="6.50454">
        <ele>2447.2</ele>
        <time>2024-08-11T11:30:13Z</time>
      </trkpt>
      <trkpt lat="44.93557" lon="6.50454">
        <ele>2447.2</ele>
        <time>2024-08-11T11:30:14Z</time>
      </trkpt>
      <trkpt lat="44.93557" lon="6.50454">
        <ele>2447.2</ele>
        <time>2024-08-11T11:30:15Z</time>
      </trkpt>
      <trkpt lat="44.93557" lon="6.50454">
        <ele>2447.4</ele>
        <time>2024-08-11T11:30:16Z</time>
      </trkpt>
      <trkpt lat="44.93557" lon="6.50454">
        <ele>2447.4</ele>
        <time>2024-08-11T11:30:17Z</time>
      </trkpt>
      <trkpt lat="44.93557" lon="6.50454">
        <ele>2447.4</ele>
        <time>2024-08-11T11:30:18Z</time>
      </trkpt>
      <trkpt lat="44.93557" lon="6.50454">
        <ele>2447.4</ele>
        <time>2024-08-11T11:30:19Z</time>
      </trkpt>
      <trkpt lat="44.93557" lon="6.50454">
        <ele>2447.4</ele>
        <time>2024-08-11T11:30:20Z</time>
      </trkpt>
      <trkpt lat="44.93557" lon="6.50454">
        <ele>2447.2</ele>
        <time>2024-08-11T11:30:21Z</time>
      </trkpt>
      <trkpt lat="44.93557" lon="6.50454">
        <ele>2447.2</ele>
        <time>2024-08-11T11:30:22Z</time>
      </trkpt>
      <trkpt lat="44.93557" lon="6.50454">
        <ele>2447.2</ele>
        <time>2024-08-11T11:30:23Z</time>
      </trkpt>
      <trkpt lat="44.93557" lon="6.50454">
        <ele>2447.2</ele>
        <time>2024-08-11T11:30:24Z</time>
      </trkpt>
      <trkpt lat="44.93557" lon="6.50454">
        <ele>2447.2</ele>
        <time>2024-08-11T11:30:25Z</time>
      </trkpt>
      <trkpt lat="44.93557" lon="6.50454">
        <ele>2447.4</ele>
        <time>2024-08-11T11:30:26Z</time>
      </trkpt>
      <trkpt lat="44.93557" lon="6.50454">
        <ele>2447.4</ele>
        <time>2024-08-11T11:30:27Z</time>
      </trkpt>
      <trkpt lat="44.93557" lon="6.50454">
        <ele>2447.4</ele>
        <time>2024-08-11T11:30:28Z</time>
      </trkpt>
      <trkpt lat="44.93557" lon="6.50454">
        <ele>2447.4</ele>
        <time>2024-08-11T11:30:29Z</time>
      </trkpt>
      <trkpt lat="44.93557" lon="6.50454">
        <ele>2447.4</ele>
        <time>2024-08-11T11:30:30Z</time>
      </trkpt>
      <trkpt lat="44.93557" lon="6.50454">
        <ele>2447.4</ele>
        <time>2024-08-11T11:30:31Z</time>
      </trkpt>
      <trkpt lat="44.93557" lon="6.50454">
        <ele>2447.4</ele>
        <time>2024-08-11T11:30:32Z</time>
      </trkpt>
      <trkpt lat="44.93557" lon="6.50454">
        <ele>2447.4</ele>
        <time>2024-08-11T11:30:33Z</time>
      </trkpt>
      <trkpt lat="44.93557" lon="6.50454">
        <ele>2447.4</ele>
        <time>2024-08-11T11:30:34Z</time>
      </trkpt>
      <trkpt lat="44.93557" lon="6.50454">
        <ele>2447.4</ele>
        <time>2024-08-11T11:30:35Z</time>
      </trkpt>
      <trkpt lat="44.93557" lon="6.50454">
        <ele>2447.4</ele>
        <time>2024-08-11T11:30:36Z</time>
      </trkpt>
      <trkpt lat="44.93557" lon="6.50454">
        <ele>2447.4</ele>
        <time>2024-08-11T11:30:37Z</time>
      </trkpt>
      <trkpt lat="44.93557" lon="6.50454">
        <ele>2447.4</ele>
        <time>2024-08-11T11:30:38Z</time>
      </trkpt>
      <trkpt lat="44.93557" lon="6.50454">
        <ele>2447.4</ele>
        <time>2024-08-11T11:30:39Z</time>
      </trkpt>
      <trkpt lat="44.93557" lon="6.50454">
        <ele>2447.4</ele>
        <time>2024-08-11T11:30:40Z</time>
      </trkpt>
      <trkpt lat="44.93557" lon="6.50454">
        <ele>2447.4</ele>
        <time>2024-08-11T11:30:41Z</time>
      </trkpt>
      <trkpt lat="44.93557" lon="6.50454">
        <ele>2447.4</ele>
        <time>2024-08-11T11:30:42Z</time>
      </trkpt>
      <trkpt lat="44.93557" lon="6.50454">
        <ele>2447.4</ele>
        <time>2024-08-11T11:30:43Z</time>
      </trkpt>
      <trkpt lat="44.93557" lon="6.50454">
        <ele>2447.2</ele>
        <time>2024-08-11T11:30:44Z</time>
      </trkpt>
      <trkpt lat="44.93557" lon="6.50454">
        <ele>2447.4</ele>
        <time>2024-08-11T11:30:45Z</time>
      </trkpt>
      <trkpt lat="44.93557" lon="6.50454">
        <ele>2447.4</ele>
        <time>2024-08-11T11:30:46Z</time>
      </trkpt>
      <trkpt lat="44.93557" lon="6.50454">
        <ele>2447.4</ele>
        <time>2024-08-11T11:30:47Z</time>
      </trkpt>
      <trkpt lat="44.93557" lon="6.50454">
        <ele>2447.8</ele>
        <time>2024-08-11T11:30:48Z</time>
      </trkpt>
      <trkpt lat="44.93557" lon="6.50454">
        <ele>2447.8</ele>
        <time>2024-08-11T11:30:49Z</time>
      </trkpt>
      <trkpt lat="44.93557" lon="6.50454">
        <ele>2447.6</ele>
        <time>2024-08-11T11:30:50Z</time>
      </trkpt>
      <trkpt lat="44.93557" lon="6.50454">
        <ele>2447.6</ele>
        <time>2024-08-11T11:30:51Z</time>
      </trkpt>
      <trkpt lat="44.93557" lon="6.50454">
        <ele>2447.6</ele>
        <time>2024-08-11T11:30:52Z</time>
      </trkpt>
      <trkpt lat="44.93557" lon="6.50454">
        <ele>2447.6</ele>
        <time>2024-08-11T11:30:53Z</time>
      </trkpt>
      <trkpt lat="44.93557" lon="6.50454">
        <ele>2447.6</ele>
        <time>2024-08-11T11:30:54Z</time>
      </trkpt>
      <trkpt lat="44.93557" lon="6.50454">
        <ele>2447.6</ele>
        <time>2024-08-11T11:30:55Z</time>
      </trkpt>
      <trkpt lat="44.93557" lon="6.50454">
        <ele>2447.6</ele>
        <time>2024-08-11T11:30:56Z</time>
      </trkpt>
      <trkpt lat="44.93557" lon="6.50454">
        <ele>2447.6</ele>
        <time>2024-08-11T11:30:57Z</time>
      </trkpt>
      <trkpt lat="44.93557" lon="6.50454">
        <ele>2447.6</ele>
        <time>2024-08-11T11:30:58Z</time>
      </trkpt>
      <trkpt lat="44.93557" lon="6.50454">
        <ele>2447.6</ele>
        <time>2024-08-11T11:30:59Z</time>
      </trkpt>
      <trkpt lat="44.93557" lon="6.50454">
        <ele>2447.6</ele>
        <time>2024-08-11T11:31:00Z</time>
      </trkpt>
      <trkpt lat="44.93557" lon="6.50454">
        <ele>2447.6</ele>
        <time>2024-08-11T11:31:01Z</time>
      </trkpt>
      <trkpt lat="44.93557" lon="6.50454">
        <ele>2447.8</ele>
        <time>2024-08-11T11:31:02Z</time>
      </trkpt>
      <trkpt lat="44.93557" lon="6.50454">
        <ele>2447.8</ele>
        <time>2024-08-11T11:31:03Z</time>
      </trkpt>
      <trkpt lat="44.93557" lon="6.50454">
        <ele>2447.8</ele>
        <time>2024-08-11T11:31:04Z</time>
      </trkpt>
      <trkpt lat="44.93557" lon="6.50454">
        <ele>2447.8</ele>
        <time>2024-08-11T11:31:05Z</time>
      </trkpt>
      <trkpt lat="44.93557" lon="6.50454">
        <ele>2447.8</ele>
        <time>2024-08-11T11:31:06Z</time>
      </trkpt>
      <trkpt lat="44.93557" lon="6.50454">
        <ele>2447.8</ele>
        <time>2024-08-11T11:31:07Z</time>
      </trkpt>
      <trkpt lat="44.93557" lon="6.50454">
        <ele>2447.8</ele>
        <time>2024-08-11T11:31:08Z</time>
      </trkpt>
      <trkpt lat="44.93557" lon="6.50454">
        <ele>2447.8</ele>
        <time>2024-08-11T11:31:09Z</time>
      </trkpt>
      <trkpt lat="44.93557" lon="6.50454">
        <ele>2447.8</ele>
        <time>2024-08-11T11:31:10Z</time>
      </trkpt>
      <trkpt lat="44.93557" lon="6.50454">
        <ele>2447.8</ele>
        <time>2024-08-11T11:31:11Z</time>
      </trkpt>
      <trkpt lat="44.93557" lon="6.50454">
        <ele>2447.8</ele>
        <time>2024-08-11T11:31:12Z</time>
      </trkpt>
      <trkpt lat="44.93557" lon="6.50454">
        <ele>2447.8</ele>
        <time>2024-08-11T11:31:13Z</time>
      </trkpt>
      <trkpt lat="44.93557" lon="6.50454">
        <ele>2447.8</ele>
        <time>2024-08-11T11:31:14Z</time>
      </trkpt>
      <trkpt lat="44.93557" lon="6.50454">
        <ele>2447.8</ele>
        <time>2024-08-11T11:31:15Z</time>
      </trkpt>
      <trkpt lat="44.93557" lon="6.50454">
        <ele>2447.8</ele>
        <time>2024-08-11T11:31:16Z</time>
      </trkpt>
      <trkpt lat="44.93557" lon="6.50454">
        <ele>2448</ele>
        <time>2024-08-11T11:31:17Z</time>
      </trkpt>
      <trkpt lat="44.93557" lon="6.50454">
        <ele>2448</ele>
        <time>2024-08-11T11:31:18Z</time>
      </trkpt>
      <trkpt lat="44.93557" lon="6.50454">
        <ele>2448.4</ele>
        <time>2024-08-11T11:31:19Z</time>
      </trkpt>
      <trkpt lat="44.93557" lon="6.50454">
        <ele>2448.4</ele>
        <time>2024-08-11T11:31:20Z</time>
      </trkpt>
      <trkpt lat="44.93557" lon="6.50454">
        <ele>2448.4</ele>
        <time>2024-08-11T11:31:21Z</time>
      </trkpt>
      <trkpt lat="44.93557" lon="6.50454">
        <ele>2448.4</ele>
        <time>2024-08-11T11:31:22Z</time>
      </trkpt>
      <trkpt lat="44.93557" lon="6.50454">
        <ele>2448.4</ele>
        <time>2024-08-11T11:31:23Z</time>
      </trkpt>
      <trkpt lat="44.93557" lon="6.50454">
        <ele>2448.4</ele>
        <time>2024-08-11T11:31:24Z</time>
      </trkpt>
      <trkpt lat="44.93557" lon="6.50454">
        <ele>2448.4</ele>
        <time>2024-08-11T11:31:25Z</time>
      </trkpt>
      <trkpt lat="44.93559" lon="6.50456">
        <ele>2448.4</ele>
        <time>2024-08-11T11:31:26Z</time>
      </trkpt>
      <trkpt lat="44.93559" lon="6.50456">
        <ele>2448.2</ele>
        <time>2024-08-11T11:31:27Z</time>
      </trkpt>
      <trkpt lat="44.93559" lon="6.50456">
        <ele>2448.2</ele>
        <time>2024-08-11T11:31:28Z</time>
      </trkpt>
      <trkpt lat="44.93559" lon="6.50456">
        <ele>2447.8</ele>
        <time>2024-08-11T11:31:29Z</time>
      </trkpt>
      <trkpt lat="44.93559" lon="6.50456">
        <ele>2447.8</ele>
        <time>2024-08-11T11:31:30Z</time>
      </trkpt>
      <trkpt lat="44.93559" lon="6.50456">
        <ele>2448.2</ele>
        <time>2024-08-11T11:31:31Z</time>
      </trkpt>
      <trkpt lat="44.93559" lon="6.50456">
        <ele>2448.6</ele>
        <time>2024-08-11T11:31:32Z</time>
      </trkpt>
      <trkpt lat="44.93559" lon="6.50456">
        <ele>2448.6</ele>
        <time>2024-08-11T11:31:33Z</time>
      </trkpt>
      <trkpt lat="44.93559" lon="6.50456">
        <ele>2448.6</ele>
        <time>2024-08-11T11:31:34Z</time>
      </trkpt>
      <trkpt lat="44.93559" lon="6.50456">
        <ele>2448.6</ele>
        <time>2024-08-11T11:31:35Z</time>
      </trkpt>
      <trkpt lat="44.93559" lon="6.50456">
        <ele>2448.6</ele>
        <time>2024-08-11T11:31:36Z</time>
      </trkpt>
      <trkpt lat="44.93559" lon="6.50456">
        <ele>2448.6</ele>
        <time>2024-08-11T11:31:37Z</time>
      </trkpt>
      <trkpt lat="44.93559" lon="6.50456">
        <ele>2448.6</ele>
        <time>2024-08-11T11:31:38Z</time>
      </trkpt>
      <trkpt lat="44.93559" lon="6.50456">
        <ele>2448.6</ele>
        <time>2024-08-11T11:31:39Z</time>
      </trkpt>
      <trkpt lat="44.93559" lon="6.50456">
        <ele>2448.6</ele>
        <time>2024-08-11T11:31:40Z</time>
      </trkpt>
      <trkpt lat="44.93559" lon="6.50456">
        <ele>2448.8</ele>
        <time>2024-08-11T11:31:41Z</time>
      </trkpt>
      <trkpt lat="44.93559" lon="6.50456">
        <ele>2448.8</ele>
        <time>2024-08-11T11:31:42Z</time>
      </trkpt>
      <trkpt lat="44.93559" lon="6.50456">
        <ele>2448.8</ele>
        <time>2024-08-11T11:31:43Z</time>
      </trkpt>
      <trkpt lat="44.93559" lon="6.50456">
        <ele>2448.8</ele>
        <time>2024-08-11T11:31:44Z</time>
      </trkpt>
      <trkpt lat="44.93559" lon="6.50456">
        <ele>2448.8</ele>
        <time>2024-08-11T11:31:45Z</time>
      </trkpt>
      <trkpt lat="44.93559" lon="6.50456">
        <ele>2448.8</ele>
        <time>2024-08-11T11:31:46Z</time>
      </trkpt>
      <trkpt lat="44.93559" lon="6.50456">
        <ele>2448.6</ele>
        <time>2024-08-11T11:31:47Z</time>
      </trkpt>
      <trkpt lat="44.93559" lon="6.50456">
        <ele>2448.6</ele>
        <time>2024-08-11T11:31:48Z</time>
      </trkpt>
      <trkpt lat="44.93559" lon="6.50456">
        <ele>2448.8</ele>
        <time>2024-08-11T11:31:49Z</time>
      </trkpt>
      <trkpt lat="44.93559" lon="6.50456">
        <ele>2448.8</ele>
        <time>2024-08-11T11:31:50Z</time>
      </trkpt>
      <trkpt lat="44.93559" lon="6.50456">
        <ele>2448.6</ele>
        <time>2024-08-11T11:31:51Z</time>
      </trkpt>
      <trkpt lat="44.93559" lon="6.50456">
        <ele>2448.6</ele>
        <time>2024-08-11T11:31:52Z</time>
      </trkpt>
      <trkpt lat="44.93559" lon="6.50456">
        <ele>2448.8</ele>
        <time>2024-08-11T11:31:53Z</time>
      </trkpt>
      <trkpt lat="44.93559" lon="6.50456">
        <ele>2449</ele>
        <time>2024-08-11T11:31:54Z</time>
      </trkpt>
      <trkpt lat="44.93559" lon="6.50456">
        <ele>2449</ele>
        <time>2024-08-11T11:31:55Z</time>
      </trkpt>
      <trkpt lat="44.93559" lon="6.50456">
        <ele>2448.8</ele>
        <time>2024-08-11T11:31:56Z</time>
      </trkpt>
      <trkpt lat="44.93559" lon="6.50456">
        <ele>2448.8</ele>
        <time>2024-08-11T11:31:57Z</time>
      </trkpt>
      <trkpt lat="44.93559" lon="6.50456">
        <ele>2449</ele>
        <time>2024-08-11T11:31:58Z</time>
      </trkpt>
      <trkpt lat="44.93559" lon="6.50456">
        <ele>2449.2</ele>
        <time>2024-08-11T11:31:59Z</time>
      </trkpt>
      <trkpt lat="44.93559" lon="6.50456">
        <ele>2449.2</ele>
        <time>2024-08-11T11:32:00Z</time>
      </trkpt>
      <trkpt lat="44.93557" lon="6.50458">
        <ele>2448.6</ele>
        <time>2024-08-11T11:32:01Z</time>
      </trkpt>
      <trkpt lat="44.93555" lon="6.5046">
        <ele>2448.8</ele>
        <time>2024-08-11T11:32:02Z</time>
      </trkpt>
      <trkpt lat="44.93553" lon="6.50461">
        <ele>2448.8</ele>
        <time>2024-08-11T11:32:03Z</time>
      </trkpt>
      <trkpt lat="44.93553" lon="6.50461">
        <ele>2448.6</ele>
        <time>2024-08-11T11:32:04Z</time>
      </trkpt>
      <trkpt lat="44.9355" lon="6.50462">
        <ele>2448</ele>
        <time>2024-08-11T11:32:05Z</time>
      </trkpt>
      <trkpt lat="44.93548" lon="6.50463">
        <ele>2447.8</ele>
        <time>2024-08-11T11:32:06Z</time>
      </trkpt>
      <trkpt lat="44.93546" lon="6.50463">
        <ele>2447.8</ele>
        <time>2024-08-11T11:32:07Z</time>
      </trkpt>
      <trkpt lat="44.93544" lon="6.50464">
        <ele>2447.8</ele>
        <time>2024-08-11T11:32:08Z</time>
      </trkpt>
      <trkpt lat="44.93544" lon="6.50464">
        <ele>2447.8</ele>
        <time>2024-08-11T11:32:09Z</time>
      </trkpt>
      <trkpt lat="44.93542" lon="6.50464">
        <ele>2447.8</ele>
        <time>2024-08-11T11:32:10Z</time>
      </trkpt>
      <trkpt lat="44.93542" lon="6.50464">
        <ele>2447.8</ele>
        <time>2024-08-11T11:32:11Z</time>
      </trkpt>
      <trkpt lat="44.93539" lon="6.50464">
        <ele>2447.4</ele>
        <time>2024-08-11T11:32:12Z</time>
      </trkpt>
      <trkpt lat="44.93539" lon="6.50464">
        <ele>2447.4</ele>
        <time>2024-08-11T11:32:13Z</time>
      </trkpt>
      <trkpt lat="44.93536" lon="6.50464">
        <ele>2447.2</ele>
        <time>2024-08-11T11:32:14Z</time>
      </trkpt>
      <trkpt lat="44.93536" lon="6.50464">
        <ele>2447</ele>
        <time>2024-08-11T11:32:15Z</time>
      </trkpt>
      <trkpt lat="44.93533" lon="6.50463">
        <ele>2446.8</ele>
        <time>2024-08-11T11:32:16Z</time>
      </trkpt>
      <trkpt lat="44.93533" lon="6.50463">
        <ele>2446.6</ele>
        <time>2024-08-11T11:32:17Z</time>
      </trkpt>
      <trkpt lat="44.93531" lon="6.50464">
        <ele>2446.4</ele>
        <time>2024-08-11T11:32:18Z</time>
      </trkpt>
      <trkpt lat="44.93531" lon="6.50464">
        <ele>2446.4</ele>
        <time>2024-08-11T11:32:19Z</time>
      </trkpt>
      <trkpt lat="44.93528" lon="6.50465">
        <ele>2446.4</ele>
        <time>2024-08-11T11:32:20Z</time>
      </trkpt>
      <trkpt lat="44.93528" lon="6.50465">
        <ele>2446.4</ele>
        <time>2024-08-11T11:32:21Z</time>
      </trkpt>
      <trkpt lat="44.93526" lon="6.50465">
        <ele>2446.4</ele>
        <time>2024-08-11T11:32:22Z</time>
      </trkpt>
      <trkpt lat="44.93526" lon="6.50465">
        <ele>2446.4</ele>
        <time>2024-08-11T11:32:23Z</time>
      </trkpt>
      <trkpt lat="44.93524" lon="6.50466">
        <ele>2446.2</ele>
        <time>2024-08-11T11:32:24Z</time>
      </trkpt>
      <trkpt lat="44.93522" lon="6.50466">
        <ele>2446</ele>
        <time>2024-08-11T11:32:25Z</time>
      </trkpt>
      <trkpt lat="44.93522" lon="6.50466">
        <ele>2446</ele>
        <time>2024-08-11T11:32:26Z</time>
      </trkpt>
      <trkpt lat="44.93518" lon="6.50467">
        <ele>2446</ele>
        <time>2024-08-11T11:32:27Z</time>
      </trkpt>
      <trkpt lat="44.93518" lon="6.50467">
        <ele>2445.6</ele>
        <time>2024-08-11T11:32:28Z</time>
      </trkpt>
      <trkpt lat="44.93516" lon="6.50468">
        <ele>2445.4</ele>
        <time>2024-08-11T11:32:29Z</time>
      </trkpt>
      <trkpt lat="44.93516" lon="6.50468">
        <ele>2445</ele>
        <time>2024-08-11T11:32:30Z</time>
      </trkpt>
      <trkpt lat="44.93516" lon="6.50468">
        <ele>2445</ele>
        <time>2024-08-11T11:32:31Z</time>
      </trkpt>
      <trkpt lat="44.93516" lon="6.50468">
        <ele>2444.8</ele>
        <time>2024-08-11T11:32:32Z</time>
      </trkpt>
      <trkpt lat="44.93514" lon="6.50469">
        <ele>2444.4</ele>
        <time>2024-08-11T11:32:33Z</time>
      </trkpt>
      <trkpt lat="44.93514" lon="6.50469">
        <ele>2444.2</ele>
        <time>2024-08-11T11:32:34Z</time>
      </trkpt>
      <trkpt lat="44.93511" lon="6.50471">
        <ele>2444.2</ele>
        <time>2024-08-11T11:32:35Z</time>
      </trkpt>
      <trkpt lat="44.93511" lon="6.50471">
        <ele>2444</ele>
        <time>2024-08-11T11:32:36Z</time>
      </trkpt>
      <trkpt lat="44.93511" lon="6.50471">
        <ele>2443.6</ele>
        <time>2024-08-11T11:32:37Z</time>
      </trkpt>
      <trkpt lat="44.93509" lon="6.50472">
        <ele>2443.4</ele>
        <time>2024-08-11T11:32:38Z</time>
      </trkpt>
      <trkpt lat="44.93509" lon="6.50472">
        <ele>2443</ele>
        <time>2024-08-11T11:32:39Z</time>
      </trkpt>
      <trkpt lat="44.93506" lon="6.50474">
        <ele>2443</ele>
        <time>2024-08-11T11:32:40Z</time>
      </trkpt>
      <trkpt lat="44.93504" lon="6.50475">
        <ele>2442.8</ele>
        <time>2024-08-11T11:32:41Z</time>
      </trkpt>
      <trkpt lat="44.93504" lon="6.50475">
        <ele>2442.6</ele>
        <time>2024-08-11T11:32:42Z</time>
      </trkpt>
      <trkpt lat="44.93501" lon="6.50474">
        <ele>2442.6</ele>
        <time>2024-08-11T11:32:43Z</time>
      </trkpt>
      <trkpt lat="44.93501" lon="6.50474">
        <ele>2442.2</ele>
        <time>2024-08-11T11:32:44Z</time>
      </trkpt>
      <trkpt lat="44.93499" lon="6.50473">
        <ele>2442</ele>
        <time>2024-08-11T11:32:45Z</time>
      </trkpt>
      <trkpt lat="44.93499" lon="6.50473">
        <ele>2441.8</ele>
        <time>2024-08-11T11:32:46Z</time>
      </trkpt>
      <trkpt lat="44.93497" lon="6.50471">
        <ele>2441.2</ele>
        <time>2024-08-11T11:32:47Z</time>
      </trkpt>
      <trkpt lat="44.93497" lon="6.50471">
        <ele>2441</ele>
        <time>2024-08-11T11:32:48Z</time>
      </trkpt>
      <trkpt lat="44.93494" lon="6.50469">
        <ele>2441</ele>
        <time>2024-08-11T11:32:49Z</time>
      </trkpt>
      <trkpt lat="44.93494" lon="6.50469">
        <ele>2441</ele>
        <time>2024-08-11T11:32:50Z</time>
      </trkpt>
      <trkpt lat="44.93493" lon="6.50465">
        <ele>2440.8</ele>
        <time>2024-08-11T11:32:51Z</time>
      </trkpt>
      <trkpt lat="44.93493" lon="6.50465">
        <ele>2440.6</ele>
        <time>2024-08-11T11:32:52Z</time>
      </trkpt>
      <trkpt lat="44.93492" lon="6.5046">
        <ele>2440.4</ele>
        <time>2024-08-11T11:32:53Z</time>
      </trkpt>
      <trkpt lat="44.93492" lon="6.5046">
        <ele>2440</ele>
        <time>2024-08-11T11:32:54Z</time>
      </trkpt>
      <trkpt lat="44.93492" lon="6.50457">
        <ele>2439.8</ele>
        <time>2024-08-11T11:32:55Z</time>
      </trkpt>
      <trkpt lat="44.93492" lon="6.50457">
        <ele>2439.8</ele>
        <time>2024-08-11T11:32:56Z</time>
      </trkpt>
      <trkpt lat="44.93491" lon="6.50453">
        <ele>2439.4</ele>
        <time>2024-08-11T11:32:57Z</time>
      </trkpt>
      <trkpt lat="44.93491" lon="6.50453">
        <ele>2439.4</ele>
        <time>2024-08-11T11:32:58Z</time>
      </trkpt>
      <trkpt lat="44.9349" lon="6.50449">
        <ele>2439.2</ele>
        <time>2024-08-11T11:32:59Z</time>
      </trkpt>
      <trkpt lat="44.9349" lon="6.50449">
        <ele>2438.8</ele>
        <time>2024-08-11T11:33:00Z</time>
      </trkpt>
      <trkpt lat="44.9349" lon="6.50446">
        <ele>2438.6</ele>
        <time>2024-08-11T11:33:01Z</time>
      </trkpt>
      <trkpt lat="44.93489" lon="6.50443">
        <ele>2437.8</ele>
        <time>2024-08-11T11:33:02Z</time>
      </trkpt>
      <trkpt lat="44.93489" lon="6.50443">
        <ele>2437.8</ele>
        <time>2024-08-11T11:33:03Z</time>
      </trkpt>
      <trkpt lat="44.93488" lon="6.5044">
        <ele>2437.6</ele>
        <time>2024-08-11T11:33:04Z</time>
      </trkpt>
      <trkpt lat="44.93488" lon="6.5044">
        <ele>2437.4</ele>
        <time>2024-08-11T11:33:05Z</time>
      </trkpt>
      <trkpt lat="44.93487" lon="6.50436">
        <ele>2437.2</ele>
        <time>2024-08-11T11:33:06Z</time>
      </trkpt>
      <trkpt lat="44.93487" lon="6.50436">
        <ele>2437.2</ele>
        <time>2024-08-11T11:33:07Z</time>
      </trkpt>
      <trkpt lat="44.93486" lon="6.50434">
        <ele>2436.8</ele>
        <time>2024-08-11T11:33:08Z</time>
      </trkpt>
      <trkpt lat="44.93486" lon="6.50434">
        <ele>2436.8</ele>
        <time>2024-08-11T11:33:09Z</time>
      </trkpt>
      <trkpt lat="44.93483" lon="6.50433">
        <ele>2436.4</ele>
        <time>2024-08-11T11:33:10Z</time>
      </trkpt>
      <trkpt lat="44.93483" lon="6.50433">
        <ele>2436.4</ele>
        <time>2024-08-11T11:33:11Z</time>
      </trkpt>
      <trkpt lat="44.93483" lon="6.50433">
        <ele>2436.4</ele>
        <time>2024-08-11T11:33:12Z</time>
      </trkpt>
      <trkpt lat="44.93481" lon="6.50434">
        <ele>2436.4</ele>
        <time>2024-08-11T11:33:13Z</time>
      </trkpt>
      <trkpt lat="44.93481" lon="6.50434">
        <ele>2436.4</ele>
        <time>2024-08-11T11:33:14Z</time>
      </trkpt>
      <trkpt lat="44.93479" lon="6.50434">
        <ele>2436.4</ele>
        <time>2024-08-11T11:33:15Z</time>
      </trkpt>
      <trkpt lat="44.93479" lon="6.50434">
        <ele>2436.2</ele>
        <time>2024-08-11T11:33:16Z</time>
      </trkpt>
      <trkpt lat="44.93479" lon="6.50434">
        <ele>2436</ele>
        <time>2024-08-11T11:33:17Z</time>
      </trkpt>
      <trkpt lat="44.93477" lon="6.50436">
        <ele>2436</ele>
        <time>2024-08-11T11:33:18Z</time>
      </trkpt>
      <trkpt lat="44.93477" lon="6.50436">
        <ele>2436.2</ele>
        <time>2024-08-11T11:33:19Z</time>
      </trkpt>
      <trkpt lat="44.93475" lon="6.50437">
        <ele>2436.2</ele>
        <time>2024-08-11T11:33:20Z</time>
      </trkpt>
      <trkpt lat="44.93475" lon="6.50437">
        <ele>2436.2</ele>
        <time>2024-08-11T11:33:21Z</time>
      </trkpt>
      <trkpt lat="44.93474" lon="6.5044">
        <ele>2436</ele>
        <time>2024-08-11T11:33:22Z</time>
      </trkpt>
      <trkpt lat="44.93474" lon="6.5044">
        <ele>2435.8</ele>
        <time>2024-08-11T11:33:23Z</time>
      </trkpt>
      <trkpt lat="44.93474" lon="6.50444">
        <ele>2435.4</ele>
        <time>2024-08-11T11:33:24Z</time>
      </trkpt>
      <trkpt lat="44.93474" lon="6.50444">
        <ele>2435.4</ele>
        <time>2024-08-11T11:33:25Z</time>
      </trkpt>
      <trkpt lat="44.93473" lon="6.50447">
        <ele>2435.2</ele>
        <time>2024-08-11T11:33:26Z</time>
      </trkpt>
      <trkpt lat="44.93473" lon="6.50447">
        <ele>2435.2</ele>
        <time>2024-08-11T11:33:27Z</time>
      </trkpt>
      <trkpt lat="44.93471" lon="6.5045">
        <ele>2435.2</ele>
        <time>2024-08-11T11:33:28Z</time>
      </trkpt>
      <trkpt lat="44.93471" lon="6.5045">
        <ele>2434.8</ele>
        <time>2024-08-11T11:33:29Z</time>
      </trkpt>
      <trkpt lat="44.93469" lon="6.50452">
        <ele>2434.8</ele>
        <time>2024-08-11T11:33:30Z</time>
      </trkpt>
      <trkpt lat="44.93469" lon="6.50452">
        <ele>2434.6</ele>
        <time>2024-08-11T11:33:31Z</time>
      </trkpt>
      <trkpt lat="44.93466" lon="6.50454">
        <ele>2434.6</ele>
        <time>2024-08-11T11:33:32Z</time>
      </trkpt>
      <trkpt lat="44.93466" lon="6.50454">
        <ele>2434.4</ele>
        <time>2024-08-11T11:33:33Z</time>
      </trkpt>
      <trkpt lat="44.93466" lon="6.50454">
        <ele>2434.2</ele>
        <time>2024-08-11T11:33:34Z</time>
      </trkpt>
      <trkpt lat="44.93466" lon="6.50454">
        <ele>2434.2</ele>
        <time>2024-08-11T11:33:35Z</time>
      </trkpt>
      <trkpt lat="44.93466" lon="6.50454">
        <ele>2434.4</ele>
        <time>2024-08-11T11:33:36Z</time>
      </trkpt>
      <trkpt lat="44.93466" lon="6.50454">
        <ele>2434.4</ele>
        <time>2024-08-11T11:33:37Z</time>
      </trkpt>
      <trkpt lat="44.93466" lon="6.50454">
        <ele>2434.6</ele>
        <time>2024-08-11T11:33:38Z</time>
      </trkpt>
      <trkpt lat="44.93466" lon="6.50454">
        <ele>2434.6</ele>
        <time>2024-08-11T11:33:39Z</time>
      </trkpt>
      <trkpt lat="44.93465" lon="6.50456">
        <ele>2434.8</ele>
        <time>2024-08-11T11:33:40Z</time>
      </trkpt>
      <trkpt lat="44.93465" lon="6.50456">
        <ele>2434.8</ele>
        <time>2024-08-11T11:33:41Z</time>
      </trkpt>
      <trkpt lat="44.93465" lon="6.50456">
        <ele>2434.8</ele>
        <time>2024-08-11T11:33:42Z</time>
      </trkpt>
      <trkpt lat="44.93465" lon="6.50456">
        <ele>2434.8</ele>
        <time>2024-08-11T11:33:43Z</time>
      </trkpt>
      <trkpt lat="44.93465" lon="6.50456">
        <ele>2434.8</ele>
        <time>2024-08-11T11:33:44Z</time>
      </trkpt>
      <trkpt lat="44.93465" lon="6.50456">
        <ele>2434.8</ele>
        <time>2024-08-11T11:33:45Z</time>
      </trkpt>
      <trkpt lat="44.93465" lon="6.50456">
        <ele>2434.8</ele>
        <time>2024-08-11T11:33:46Z</time>
      </trkpt>
      <trkpt lat="44.93465" lon="6.50456">
        <ele>2435.2</ele>
        <time>2024-08-11T11:33:47Z</time>
      </trkpt>
      <trkpt lat="44.93465" lon="6.50456">
        <ele>2435.2</ele>
        <time>2024-08-11T11:33:48Z</time>
      </trkpt>
      <trkpt lat="44.93465" lon="6.50456">
        <ele>2435.2</ele>
        <time>2024-08-11T11:33:49Z</time>
      </trkpt>
      <trkpt lat="44.93465" lon="6.50456">
        <ele>2435</ele>
        <time>2024-08-11T11:33:50Z</time>
      </trkpt>
      <trkpt lat="44.93465" lon="6.50456">
        <ele>2434.8</ele>
        <time>2024-08-11T11:33:51Z</time>
      </trkpt>
      <trkpt lat="44.93465" lon="6.50456">
        <ele>2434.6</ele>
        <time>2024-08-11T11:33:52Z</time>
      </trkpt>
      <trkpt lat="44.93465" lon="6.50456">
        <ele>2434.6</ele>
        <time>2024-08-11T11:33:53Z</time>
      </trkpt>
      <trkpt lat="44.93465" lon="6.50456">
        <ele>2434.6</ele>
        <time>2024-08-11T11:33:54Z</time>
      </trkpt>
      <trkpt lat="44.93465" lon="6.50456">
        <ele>2434.6</ele>
        <time>2024-08-11T11:33:55Z</time>
      </trkpt>
      <trkpt lat="44.93465" lon="6.50456">
        <ele>2434.6</ele>
        <time>2024-08-11T11:33:56Z</time>
      </trkpt>
      <trkpt lat="44.93465" lon="6.50456">
        <ele>2434.6</ele>
        <time>2024-08-11T11:33:57Z</time>
      </trkpt>
      <trkpt lat="44.93465" lon="6.50456">
        <ele>2434.4</ele>
        <time>2024-08-11T11:33:58Z</time>
      </trkpt>
      <trkpt lat="44.93465" lon="6.50456">
        <ele>2434.4</ele>
        <time>2024-08-11T11:33:59Z</time>
      </trkpt>
      <trkpt lat="44.93463" lon="6.50458">
        <ele>2434.4</ele>
        <time>2024-08-11T11:34:00Z</time>
      </trkpt>
      <trkpt lat="44.93463" lon="6.50458">
        <ele>2434.4</ele>
        <time>2024-08-11T11:34:01Z</time>
      </trkpt>
      <trkpt lat="44.93461" lon="6.50461">
        <ele>2434.2</ele>
        <time>2024-08-11T11:34:02Z</time>
      </trkpt>
      <trkpt lat="44.93461" lon="6.50461">
        <ele>2434</ele>
        <time>2024-08-11T11:34:03Z</time>
      </trkpt>
      <trkpt lat="44.93459" lon="6.50464">
        <ele>2433.8</ele>
        <time>2024-08-11T11:34:04Z</time>
      </trkpt>
      <trkpt lat="44.93459" lon="6.50464">
        <ele>2433.6</ele>
        <time>2024-08-11T11:34:05Z</time>
      </trkpt>
      <trkpt lat="44.93457" lon="6.50467">
        <ele>2433.6</ele>
        <time>2024-08-11T11:34:06Z</time>
      </trkpt>
      <trkpt lat="44.93457" lon="6.50467">
        <ele>2433.6</ele>
        <time>2024-08-11T11:34:07Z</time>
      </trkpt>
      <trkpt lat="44.93455" lon="6.5047">
        <ele>2433.4</ele>
        <time>2024-08-11T11:34:08Z</time>
      </trkpt>
      <trkpt lat="44.93455" lon="6.5047">
        <ele>2433.6</ele>
        <time>2024-08-11T11:34:09Z</time>
      </trkpt>
      <trkpt lat="44.93454" lon="6.50472">
        <ele>2433.4</ele>
        <time>2024-08-11T11:34:10Z</time>
      </trkpt>
      <trkpt lat="44.93454" lon="6.50472">
        <ele>2433.2</ele>
        <time>2024-08-11T11:34:11Z</time>
      </trkpt>
      <trkpt lat="44.93453" lon="6.50474">
        <ele>2432.8</ele>
        <time>2024-08-11T11:34:12Z</time>
      </trkpt>
      <trkpt lat="44.93453" lon="6.50474">
        <ele>2432.6</ele>
        <time>2024-08-11T11:34:13Z</time>
      </trkpt>
      <trkpt lat="44.93451" lon="6.50477">
        <ele>2432.6</ele>
        <time>2024-08-11T11:34:14Z</time>
      </trkpt>
      <trkpt lat="44.93451" lon="6.50477">
        <ele>2432.2</ele>
        <time>2024-08-11T11:34:15Z</time>
      </trkpt>
      <trkpt lat="44.93449" lon="6.50479">
        <ele>2432</ele>
        <time>2024-08-11T11:34:16Z</time>
      </trkpt>
      <trkpt lat="44.93449" lon="6.50479">
        <ele>2432.2</ele>
        <time>2024-08-11T11:34:17Z</time>
      </trkpt>
      <trkpt lat="44.93447" lon="6.50481">
        <ele>2431.6</ele>
        <time>2024-08-11T11:34:18Z</time>
      </trkpt>
      <trkpt lat="44.93447" lon="6.50481">
        <ele>2431.8</ele>
        <time>2024-08-11T11:34:19Z</time>
      </trkpt>
      <trkpt lat="44.93445" lon="6.50483">
        <ele>2431.6</ele>
        <time>2024-08-11T11:34:20Z</time>
      </trkpt>
      <trkpt lat="44.93445" lon="6.50483">
        <ele>2431.4</ele>
        <time>2024-08-11T11:34:21Z</time>
      </trkpt>
      <trkpt lat="44.93443" lon="6.50486">
        <ele>2431.2</ele>
        <time>2024-08-11T11:34:22Z</time>
      </trkpt>
      <trkpt lat="44.93443" lon="6.50486">
        <ele>2430.8</ele>
        <time>2024-08-11T11:34:23Z</time>
      </trkpt>
      <trkpt lat="44.93443" lon="6.50486">
        <ele>2430.8</ele>
        <time>2024-08-11T11:34:24Z</time>
      </trkpt>
      <trkpt lat="44.93443" lon="6.50486">
        <ele>2430.4</ele>
        <time>2024-08-11T11:34:25Z</time>
      </trkpt>
      <trkpt lat="44.93443" lon="6.50486">
        <ele>2430.2</ele>
        <time>2024-08-11T11:34:26Z</time>
      </trkpt>
      <trkpt lat="44.93443" lon="6.50486">
        <ele>2430</ele>
        <time>2024-08-11T11:34:27Z</time>
      </trkpt>
      <trkpt lat="44.93443" lon="6.50486">
        <ele>2430</ele>
        <time>2024-08-11T11:34:28Z</time>
      </trkpt>
      <trkpt lat="44.93443" lon="6.50486">
        <ele>2430.2</ele>
        <time>2024-08-11T11:34:29Z</time>
      </trkpt>
      <trkpt lat="44.93443" lon="6.50486">
        <ele>2430.2</ele>
        <time>2024-08-11T11:34:30Z</time>
      </trkpt>
      <trkpt lat="44.93443" lon="6.50486">
        <ele>2430.2</ele>
        <time>2024-08-11T11:34:31Z</time>
      </trkpt>
      <trkpt lat="44.93443" lon="6.50486">
        <ele>2430.2</ele>
        <time>2024-08-11T11:34:32Z</time>
      </trkpt>
      <trkpt lat="44.93443" lon="6.50486">
        <ele>2430.2</ele>
        <time>2024-08-11T11:34:33Z</time>
      </trkpt>
      <trkpt lat="44.93443" lon="6.50486">
        <ele>2430.2</ele>
        <time>2024-08-11T11:34:34Z</time>
      </trkpt>
      <trkpt lat="44.93443" lon="6.50486">
        <ele>2430.2</ele>
        <time>2024-08-11T11:34:35Z</time>
      </trkpt>
      <trkpt lat="44.93443" lon="6.50486">
        <ele>2430.2</ele>
        <time>2024-08-11T11:34:36Z</time>
      </trkpt>
      <trkpt lat="44.93443" lon="6.50486">
        <ele>2430.2</ele>
        <time>2024-08-11T11:34:37Z</time>
      </trkpt>
      <trkpt lat="44.93443" lon="6.50486">
        <ele>2430</ele>
        <time>2024-08-11T11:34:38Z</time>
      </trkpt>
      <trkpt lat="44.93443" lon="6.50486">
        <ele>2430</ele>
        <time>2024-08-11T11:34:39Z</time>
      </trkpt>
      <trkpt lat="44.93443" lon="6.50486">
        <ele>2429.8</ele>
        <time>2024-08-11T11:34:40Z</time>
      </trkpt>
      <trkpt lat="44.93441" lon="6.50486">
        <ele>2429.4</ele>
        <time>2024-08-11T11:34:41Z</time>
      </trkpt>
      <trkpt lat="44.93441" lon="6.50486">
        <ele>2429.4</ele>
        <time>2024-08-11T11:34:42Z</time>
      </trkpt>
      <trkpt lat="44.93441" lon="6.50486">
        <ele>2429.4</ele>
        <time>2024-08-11T11:34:43Z</time>
      </trkpt>
      <trkpt lat="44.93438" lon="6.50489">
        <ele>2429.4</ele>
        <time>2024-08-11T11:34:44Z</time>
      </trkpt>
      <trkpt lat="44.93438" lon="6.50489">
        <ele>2429.2</ele>
        <time>2024-08-11T11:34:45Z</time>
      </trkpt>
      <trkpt lat="44.93436" lon="6.50491">
        <ele>2428.6</ele>
        <time>2024-08-11T11:34:46Z</time>
      </trkpt>
      <trkpt lat="44.93436" lon="6.50491">
        <ele>2428.4</ele>
        <time>2024-08-11T11:34:47Z</time>
      </trkpt>
      <trkpt lat="44.93433" lon="6.50494">
        <ele>2428.4</ele>
        <time>2024-08-11T11:34:48Z</time>
      </trkpt>
      <trkpt lat="44.93433" lon="6.50494">
        <ele>2428.2</ele>
        <time>2024-08-11T11:34:49Z</time>
      </trkpt>
      <trkpt lat="44.93431" lon="6.50496">
        <ele>2428</ele>
        <time>2024-08-11T11:34:50Z</time>
      </trkpt>
      <trkpt lat="44.93431" lon="6.50496">
        <ele>2427.8</ele>
        <time>2024-08-11T11:34:51Z</time>
      </trkpt>
      <trkpt lat="44.93429" lon="6.50498">
        <ele>2427.6</ele>
        <time>2024-08-11T11:34:52Z</time>
      </trkpt>
      <trkpt lat="44.93429" lon="6.50498">
        <ele>2427.6</ele>
        <time>2024-08-11T11:34:53Z</time>
      </trkpt>
      <trkpt lat="44.93427" lon="6.50501">
        <ele>2427.4</ele>
        <time>2024-08-11T11:34:54Z</time>
      </trkpt>
      <trkpt lat="44.93427" lon="6.50501">
        <ele>2427.4</ele>
        <time>2024-08-11T11:34:55Z</time>
      </trkpt>
      <trkpt lat="44.93425" lon="6.50502">
        <ele>2427</ele>
        <time>2024-08-11T11:34:56Z</time>
      </trkpt>
      <trkpt lat="44.93425" lon="6.50502">
        <ele>2426.8</ele>
        <time>2024-08-11T11:34:57Z</time>
      </trkpt>
      <trkpt lat="44.93423" lon="6.50505">
        <ele>2426.8</ele>
        <time>2024-08-11T11:34:58Z</time>
      </trkpt>
      <trkpt lat="44.93423" lon="6.50505">
        <ele>2426.8</ele>
        <time>2024-08-11T11:34:59Z</time>
      </trkpt>
      <trkpt lat="44.93421" lon="6.50507">
        <ele>2426.6</ele>
        <time>2024-08-11T11:35:00Z</time>
      </trkpt>
      <trkpt lat="44.93421" lon="6.50507">
        <ele>2426.4</ele>
        <time>2024-08-11T11:35:01Z</time>
      </trkpt>
      <trkpt lat="44.93419" lon="6.50509">
        <ele>2426.2</ele>
        <time>2024-08-11T11:35:02Z</time>
      </trkpt>
      <trkpt lat="44.93419" lon="6.50509">
        <ele>2426.2</ele>
        <time>2024-08-11T11:35:03Z</time>
      </trkpt>
      <trkpt lat="44.93417" lon="6.50511">
        <ele>2426</ele>
        <time>2024-08-11T11:35:04Z</time>
      </trkpt>
      <trkpt lat="44.93417" lon="6.50511">
        <ele>2425.8</ele>
        <time>2024-08-11T11:35:05Z</time>
      </trkpt>
      <trkpt lat="44.93415" lon="6.50513">
        <ele>2425.6</ele>
        <time>2024-08-11T11:35:06Z</time>
      </trkpt>
      <trkpt lat="44.93415" lon="6.50513">
        <ele>2425.2</ele>
        <time>2024-08-11T11:35:07Z</time>
      </trkpt>
      <trkpt lat="44.93413" lon="6.50514">
        <ele>2424.8</ele>
        <time>2024-08-11T11:35:08Z</time>
      </trkpt>
      <trkpt lat="44.93412" lon="6.50515">
        <ele>2424.6</ele>
        <time>2024-08-11T11:35:09Z</time>
      </trkpt>
      <trkpt lat="44.93412" lon="6.50515">
        <ele>2424.4</ele>
        <time>2024-08-11T11:35:10Z</time>
      </trkpt>
      <trkpt lat="44.93409" lon="6.50518">
        <ele>2424.2</ele>
        <time>2024-08-11T11:35:11Z</time>
      </trkpt>
      <trkpt lat="44.93409" lon="6.50518">
        <ele>2424</ele>
        <time>2024-08-11T11:35:12Z</time>
      </trkpt>
      <trkpt lat="44.93407" lon="6.5052">
        <ele>2424</ele>
        <time>2024-08-11T11:35:13Z</time>
      </trkpt>
      <trkpt lat="44.93407" lon="6.5052">
        <ele>2423.8</ele>
        <time>2024-08-11T11:35:14Z</time>
      </trkpt>
      <trkpt lat="44.93405" lon="6.50522">
        <ele>2423.6</ele>
        <time>2024-08-11T11:35:15Z</time>
      </trkpt>
      <trkpt lat="44.93405" lon="6.50522">
        <ele>2423.4</ele>
        <time>2024-08-11T11:35:16Z</time>
      </trkpt>
      <trkpt lat="44.93404" lon="6.50525">
        <ele>2423.4</ele>
        <time>2024-08-11T11:35:17Z</time>
      </trkpt>
      <trkpt lat="44.93404" lon="6.50525">
        <ele>2423.2</ele>
        <time>2024-08-11T11:35:18Z</time>
      </trkpt>
      <trkpt lat="44.93402" lon="6.50527">
        <ele>2423.4</ele>
        <time>2024-08-11T11:35:19Z</time>
      </trkpt>
      <trkpt lat="44.93402" lon="6.50527">
        <ele>2423.2</ele>
        <time>2024-08-11T11:35:20Z</time>
      </trkpt>
      <trkpt lat="44.934" lon="6.50529">
        <ele>2422.8</ele>
        <time>2024-08-11T11:35:21Z</time>
      </trkpt>
      <trkpt lat="44.934" lon="6.50529">
        <ele>2422.4</ele>
        <time>2024-08-11T11:35:22Z</time>
      </trkpt>
      <trkpt lat="44.93398" lon="6.50532">
        <ele>2422.2</ele>
        <time>2024-08-11T11:35:23Z</time>
      </trkpt>
      <trkpt lat="44.93398" lon="6.50532">
        <ele>2422.2</ele>
        <time>2024-08-11T11:35:24Z</time>
      </trkpt>
      <trkpt lat="44.93396" lon="6.50535">
        <ele>2422.2</ele>
        <time>2024-08-11T11:35:25Z</time>
      </trkpt>
      <trkpt lat="44.93396" lon="6.50535">
        <ele>2422</ele>
        <time>2024-08-11T11:35:26Z</time>
      </trkpt>
      <trkpt lat="44.93394" lon="6.50537">
        <ele>2422</ele>
        <time>2024-08-11T11:35:27Z</time>
      </trkpt>
      <trkpt lat="44.93394" lon="6.50537">
        <ele>2421.8</ele>
        <time>2024-08-11T11:35:28Z</time>
      </trkpt>
      <trkpt lat="44.93391" lon="6.50539">
        <ele>2421.6</ele>
        <time>2024-08-11T11:35:29Z</time>
      </trkpt>
      <trkpt lat="44.93391" lon="6.50539">
        <ele>2421</ele>
        <time>2024-08-11T11:35:30Z</time>
      </trkpt>
      <trkpt lat="44.93389" lon="6.50541">
        <ele>2420.8</ele>
        <time>2024-08-11T11:35:31Z</time>
      </trkpt>
      <trkpt lat="44.93389" lon="6.50541">
        <ele>2421</ele>
        <time>2024-08-11T11:35:32Z</time>
      </trkpt>
      <trkpt lat="44.93387" lon="6.50543">
        <ele>2420.6</ele>
        <time>2024-08-11T11:35:33Z</time>
      </trkpt>
      <trkpt lat="44.93387" lon="6.50543">
        <ele>2420.6</ele>
        <time>2024-08-11T11:35:34Z</time>
      </trkpt>
      <trkpt lat="44.93384" lon="6.50544">
        <ele>2420.4</ele>
        <time>2024-08-11T11:35:35Z</time>
      </trkpt>
      <trkpt lat="44.93384" lon="6.50544">
        <ele>2420.4</ele>
        <time>2024-08-11T11:35:36Z</time>
      </trkpt>
      <trkpt lat="44.93383" lon="6.50547">
        <ele>2420.4</ele>
        <time>2024-08-11T11:35:37Z</time>
      </trkpt>
      <trkpt lat="44.93383" lon="6.50547">
        <ele>2420.4</ele>
        <time>2024-08-11T11:35:38Z</time>
      </trkpt>
      <trkpt lat="44.93381" lon="6.50549">
        <ele>2420.2</ele>
        <time>2024-08-11T11:35:39Z</time>
      </trkpt>
      <trkpt lat="44.93381" lon="6.50549">
        <ele>2420</ele>
        <time>2024-08-11T11:35:40Z</time>
      </trkpt>
      <trkpt lat="44.93379" lon="6.50552">
        <ele>2420</ele>
        <time>2024-08-11T11:35:41Z</time>
      </trkpt>
      <trkpt lat="44.93379" lon="6.50552">
        <ele>2419.8</ele>
        <time>2024-08-11T11:35:42Z</time>
      </trkpt>
      <trkpt lat="44.93376" lon="6.50554">
        <ele>2419.8</ele>
        <time>2024-08-11T11:35:43Z</time>
      </trkpt>
      <trkpt lat="44.93376" lon="6.50554">
        <ele>2419.8</ele>
        <time>2024-08-11T11:35:44Z</time>
      </trkpt>
      <trkpt lat="44.93374" lon="6.50556">
        <ele>2419.8</ele>
        <time>2024-08-11T11:35:45Z</time>
      </trkpt>
      <trkpt lat="44.93374" lon="6.50556">
        <ele>2419.8</ele>
        <time>2024-08-11T11:35:46Z</time>
      </trkpt>
      <trkpt lat="44.93373" lon="6.50559">
        <ele>2419.8</ele>
        <time>2024-08-11T11:35:47Z</time>
      </trkpt>
      <trkpt lat="44.93373" lon="6.50559">
        <ele>2419.8</ele>
        <time>2024-08-11T11:35:48Z</time>
      </trkpt>
      <trkpt lat="44.9337" lon="6.50561">
        <ele>2419.6</ele>
        <time>2024-08-11T11:35:49Z</time>
      </trkpt>
      <trkpt lat="44.9337" lon="6.50561">
        <ele>2419.4</ele>
        <time>2024-08-11T11:35:50Z</time>
      </trkpt>
      <trkpt lat="44.93368" lon="6.50563">
        <ele>2419.4</ele>
        <time>2024-08-11T11:35:51Z</time>
      </trkpt>
      <trkpt lat="44.93368" lon="6.50563">
        <ele>2419.2</ele>
        <time>2024-08-11T11:35:52Z</time>
      </trkpt>
      <trkpt lat="44.93366" lon="6.50566">
        <ele>2418.8</ele>
        <time>2024-08-11T11:35:53Z</time>
      </trkpt>
      <trkpt lat="44.93366" lon="6.50566">
        <ele>2418.6</ele>
        <time>2024-08-11T11:35:54Z</time>
      </trkpt>
      <trkpt lat="44.93364" lon="6.50568">
        <ele>2418.4</ele>
        <time>2024-08-11T11:35:55Z</time>
      </trkpt>
      <trkpt lat="44.93364" lon="6.50568">
        <ele>2418.4</ele>
        <time>2024-08-11T11:35:56Z</time>
      </trkpt>
      <trkpt lat="44.93362" lon="6.50571">
        <ele>2418.6</ele>
        <time>2024-08-11T11:35:57Z</time>
      </trkpt>
      <trkpt lat="44.93362" lon="6.50571">
        <ele>2418.6</ele>
        <time>2024-08-11T11:35:58Z</time>
      </trkpt>
      <trkpt lat="44.93359" lon="6.50574">
        <ele>2418.4</ele>
        <time>2024-08-11T11:35:59Z</time>
      </trkpt>
      <trkpt lat="44.93359" lon="6.50574">
        <ele>2418</ele>
        <time>2024-08-11T11:36:00Z</time>
      </trkpt>
      <trkpt lat="44.93358" lon="6.50578">
        <ele>2417.8</ele>
        <time>2024-08-11T11:36:01Z</time>
      </trkpt>
      <trkpt lat="44.93358" lon="6.50578">
        <ele>2417.6</ele>
        <time>2024-08-11T11:36:02Z</time>
      </trkpt>
      <trkpt lat="44.93357" lon="6.50581">
        <ele>2417.6</ele>
        <time>2024-08-11T11:36:03Z</time>
      </trkpt>
      <trkpt lat="44.93357" lon="6.50581">
        <ele>2417.4</ele>
        <time>2024-08-11T11:36:04Z</time>
      </trkpt>
      <trkpt lat="44.93355" lon="6.50584">
        <ele>2417.4</ele>
        <time>2024-08-11T11:36:05Z</time>
      </trkpt>
      <trkpt lat="44.93355" lon="6.50584">
        <ele>2417.4</ele>
        <time>2024-08-11T11:36:06Z</time>
      </trkpt>
      <trkpt lat="44.93354" lon="6.50587">
        <ele>2417.4</ele>
        <time>2024-08-11T11:36:07Z</time>
      </trkpt>
      <trkpt lat="44.93354" lon="6.50587">
        <ele>2417.2</ele>
        <time>2024-08-11T11:36:08Z</time>
      </trkpt>
      <trkpt lat="44.93352" lon="6.50589">
        <ele>2417.2</ele>
        <time>2024-08-11T11:36:09Z</time>
      </trkpt>
      <trkpt lat="44.93352" lon="6.50589">
        <ele>2417</ele>
        <time>2024-08-11T11:36:10Z</time>
      </trkpt>
      <trkpt lat="44.93352" lon="6.50589">
        <ele>2417</ele>
        <time>2024-08-11T11:36:11Z</time>
      </trkpt>
      <trkpt lat="44.93352" lon="6.50589">
        <ele>2417</ele>
        <time>2024-08-11T11:36:12Z</time>
      </trkpt>
      <trkpt lat="44.93352" lon="6.50589">
        <ele>2416.8</ele>
        <time>2024-08-11T11:36:13Z</time>
      </trkpt>
      <trkpt lat="44.93352" lon="6.50589">
        <ele>2416.8</ele>
        <time>2024-08-11T11:36:14Z</time>
      </trkpt>
      <trkpt lat="44.93351" lon="6.50591">
        <ele>2417</ele>
        <time>2024-08-11T11:36:15Z</time>
      </trkpt>
      <trkpt lat="44.93351" lon="6.50591">
        <ele>2417</ele>
        <time>2024-08-11T11:36:16Z</time>
      </trkpt>
      <trkpt lat="44.93351" lon="6.50591">
        <ele>2417</ele>
        <time>2024-08-11T11:36:17Z</time>
      </trkpt>
      <trkpt lat="44.93349" lon="6.50594">
        <ele>2416.8</ele>
        <time>2024-08-11T11:36:18Z</time>
      </trkpt>
      <trkpt lat="44.93349" lon="6.50594">
        <ele>2416.4</ele>
        <time>2024-08-11T11:36:19Z</time>
      </trkpt>
      <trkpt lat="44.93347" lon="6.50596">
        <ele>2416.4</ele>
        <time>2024-08-11T11:36:20Z</time>
      </trkpt>
      <trkpt lat="44.93346" lon="6.50597">
        <ele>2416.2</ele>
        <time>2024-08-11T11:36:21Z</time>
      </trkpt>
      <trkpt lat="44.93346" lon="6.50597">
        <ele>2416</ele>
        <time>2024-08-11T11:36:22Z</time>
      </trkpt>
      <trkpt lat="44.93344" lon="6.506">
        <ele>2415.8</ele>
        <time>2024-08-11T11:36:23Z</time>
      </trkpt>
      <trkpt lat="44.93344" lon="6.506">
        <ele>2415.6</ele>
        <time>2024-08-11T11:36:24Z</time>
      </trkpt>
      <trkpt lat="44.93342" lon="6.50603">
        <ele>2415.4</ele>
        <time>2024-08-11T11:36:25Z</time>
      </trkpt>
      <trkpt lat="44.93342" lon="6.50603">
        <ele>2415.2</ele>
        <time>2024-08-11T11:36:26Z</time>
      </trkpt>
      <trkpt lat="44.9334" lon="6.50606">
        <ele>2415.2</ele>
        <time>2024-08-11T11:36:27Z</time>
      </trkpt>
      <trkpt lat="44.9334" lon="6.50606">
        <ele>2415</ele>
        <time>2024-08-11T11:36:28Z</time>
      </trkpt>
      <trkpt lat="44.93339" lon="6.50608">
        <ele>2414.8</ele>
        <time>2024-08-11T11:36:29Z</time>
      </trkpt>
      <trkpt lat="44.93339" lon="6.50608">
        <ele>2414.8</ele>
        <time>2024-08-11T11:36:30Z</time>
      </trkpt>
      <trkpt lat="44.93337" lon="6.5061">
        <ele>2414.8</ele>
        <time>2024-08-11T11:36:31Z</time>
      </trkpt>
      <trkpt lat="44.93337" lon="6.5061">
        <ele>2414.4</ele>
        <time>2024-08-11T11:36:32Z</time>
      </trkpt>
      <trkpt lat="44.93335" lon="6.50613">
        <ele>2414.2</ele>
        <time>2024-08-11T11:36:33Z</time>
      </trkpt>
      <trkpt lat="44.93335" lon="6.50613">
        <ele>2413.6</ele>
        <time>2024-08-11T11:36:34Z</time>
      </trkpt>
      <trkpt lat="44.93333" lon="6.50615">
        <ele>2413.4</ele>
        <time>2024-08-11T11:36:35Z</time>
      </trkpt>
      <trkpt lat="44.93333" lon="6.50615">
        <ele>2413</ele>
        <time>2024-08-11T11:36:36Z</time>
      </trkpt>
      <trkpt lat="44.9333" lon="6.50616">
        <ele>2413</ele>
        <time>2024-08-11T11:36:37Z</time>
      </trkpt>
      <trkpt lat="44.9333" lon="6.50616">
        <ele>2412.8</ele>
        <time>2024-08-11T11:36:38Z</time>
      </trkpt>
      <trkpt lat="44.93328" lon="6.50618">
        <ele>2412.4</ele>
        <time>2024-08-11T11:36:39Z</time>
      </trkpt>
      <trkpt lat="44.93328" lon="6.50618">
        <ele>2412.4</ele>
        <time>2024-08-11T11:36:40Z</time>
      </trkpt>
      <trkpt lat="44.93325" lon="6.50619">
        <ele>2412.2</ele>
        <time>2024-08-11T11:36:41Z</time>
      </trkpt>
      <trkpt lat="44.93325" lon="6.50619">
        <ele>2412.2</ele>
        <time>2024-08-11T11:36:42Z</time>
      </trkpt>
      <trkpt lat="44.93323" lon="6.5062">
        <ele>2412</ele>
        <time>2024-08-11T11:36:43Z</time>
      </trkpt>
      <trkpt lat="44.93323" lon="6.5062">
        <ele>2411.8</ele>
        <time>2024-08-11T11:36:44Z</time>
      </trkpt>
      <trkpt lat="44.9332" lon="6.50622">
        <ele>2411.6</ele>
        <time>2024-08-11T11:36:45Z</time>
      </trkpt>
      <trkpt lat="44.9332" lon="6.50622">
        <ele>2411.6</ele>
        <time>2024-08-11T11:36:46Z</time>
      </trkpt>
      <trkpt lat="44.93318" lon="6.50624">
        <ele>2411.6</ele>
        <time>2024-08-11T11:36:47Z</time>
      </trkpt>
      <trkpt lat="44.93318" lon="6.50624">
        <ele>2411.4</ele>
        <time>2024-08-11T11:36:48Z</time>
      </trkpt>
      <trkpt lat="44.93316" lon="6.50626">
        <ele>2411.4</ele>
        <time>2024-08-11T11:36:49Z</time>
      </trkpt>
      <trkpt lat="44.93316" lon="6.50626">
        <ele>2411.2</ele>
        <time>2024-08-11T11:36:50Z</time>
      </trkpt>
      <trkpt lat="44.93313" lon="6.50628">
        <ele>2410.8</ele>
        <time>2024-08-11T11:36:51Z</time>
      </trkpt>
      <trkpt lat="44.93312" lon="6.5063">
        <ele>2410.8</ele>
        <time>2024-08-11T11:36:52Z</time>
      </trkpt>
      <trkpt lat="44.93312" lon="6.5063">
        <ele>2410.8</ele>
        <time>2024-08-11T11:36:53Z</time>
      </trkpt>
      <trkpt lat="44.9331" lon="6.50632">
        <ele>2410.6</ele>
        <time>2024-08-11T11:36:54Z</time>
      </trkpt>
      <trkpt lat="44.9331" lon="6.50632">
        <ele>2410.2</ele>
        <time>2024-08-11T11:36:55Z</time>
      </trkpt>
      <trkpt lat="44.93308" lon="6.50634">
        <ele>2410</ele>
        <time>2024-08-11T11:36:56Z</time>
      </trkpt>
      <trkpt lat="44.93308" lon="6.50634">
        <ele>2409.6</ele>
        <time>2024-08-11T11:36:57Z</time>
      </trkpt>
      <trkpt lat="44.93306" lon="6.50636">
        <ele>2409.6</ele>
        <time>2024-08-11T11:36:58Z</time>
      </trkpt>
      <trkpt lat="44.93306" lon="6.50636">
        <ele>2409.4</ele>
        <time>2024-08-11T11:36:59Z</time>
      </trkpt>
      <trkpt lat="44.93304" lon="6.50639">
        <ele>2409.2</ele>
        <time>2024-08-11T11:37:00Z</time>
      </trkpt>
      <trkpt lat="44.93304" lon="6.50639">
        <ele>2409</ele>
        <time>2024-08-11T11:37:01Z</time>
      </trkpt>
      <trkpt lat="44.93303" lon="6.50641">
        <ele>2408.8</ele>
        <time>2024-08-11T11:37:02Z</time>
      </trkpt>
      <trkpt lat="44.93303" lon="6.50641">
        <ele>2408.8</ele>
        <time>2024-08-11T11:37:03Z</time>
      </trkpt>
      <trkpt lat="44.93301" lon="6.50643">
        <ele>2408.6</ele>
        <time>2024-08-11T11:37:04Z</time>
      </trkpt>
      <trkpt lat="44.93301" lon="6.50643">
        <ele>2408</ele>
        <time>2024-08-11T11:37:05Z</time>
      </trkpt>
      <trkpt lat="44.933" lon="6.50645">
        <ele>2407.6</ele>
        <time>2024-08-11T11:37:06Z</time>
      </trkpt>
      <trkpt lat="44.933" lon="6.50645">
        <ele>2407.6</ele>
        <time>2024-08-11T11:37:07Z</time>
      </trkpt>
      <trkpt lat="44.93299" lon="6.50647">
        <ele>2407.4</ele>
        <time>2024-08-11T11:37:08Z</time>
      </trkpt>
      <trkpt lat="44.93299" lon="6.50647">
        <ele>2407</ele>
        <time>2024-08-11T11:37:09Z</time>
      </trkpt>
      <trkpt lat="44.93298" lon="6.5065">
        <ele>2407</ele>
        <time>2024-08-11T11:37:10Z</time>
      </trkpt>
      <trkpt lat="44.93298" lon="6.5065">
        <ele>2406.8</ele>
        <time>2024-08-11T11:37:11Z</time>
      </trkpt>
      <trkpt lat="44.93296" lon="6.50651">
        <ele>2406.8</ele>
        <time>2024-08-11T11:37:12Z</time>
      </trkpt>
      <trkpt lat="44.93296" lon="6.50651">
        <ele>2407</ele>
        <time>2024-08-11T11:37:13Z</time>
      </trkpt>
      <trkpt lat="44.93294" lon="6.50653">
        <ele>2407</ele>
        <time>2024-08-11T11:37:14Z</time>
      </trkpt>
      <trkpt lat="44.93294" lon="6.50653">
        <ele>2407.2</ele>
        <time>2024-08-11T11:37:15Z</time>
      </trkpt>
      <trkpt lat="44.93292" lon="6.50653">
        <ele>2407.6</ele>
        <time>2024-08-11T11:37:16Z</time>
      </trkpt>
      <trkpt lat="44.93292" lon="6.50653">
        <ele>2408</ele>
        <time>2024-08-11T11:37:17Z</time>
      </trkpt>
      <trkpt lat="44.9329" lon="6.50654">
        <ele>2408</ele>
        <time>2024-08-11T11:37:18Z</time>
      </trkpt>
      <trkpt lat="44.9329" lon="6.50654">
        <ele>2408</ele>
        <time>2024-08-11T11:37:19Z</time>
      </trkpt>
      <trkpt lat="44.93287" lon="6.50656">
        <ele>2408</ele>
        <time>2024-08-11T11:37:20Z</time>
      </trkpt>
      <trkpt lat="44.93287" lon="6.50656">
        <ele>2408.2</ele>
        <time>2024-08-11T11:37:21Z</time>
      </trkpt>
      <trkpt lat="44.93285" lon="6.50658">
        <ele>2408.4</ele>
        <time>2024-08-11T11:37:22Z</time>
      </trkpt>
      <trkpt lat="44.93285" lon="6.50658">
        <ele>2408.4</ele>
        <time>2024-08-11T11:37:23Z</time>
      </trkpt>
      <trkpt lat="44.93283" lon="6.5066">
        <ele>2408.4</ele>
        <time>2024-08-11T11:37:24Z</time>
      </trkpt>
      <trkpt lat="44.93283" lon="6.5066">
        <ele>2408.4</ele>
        <time>2024-08-11T11:37:25Z</time>
      </trkpt>
      <trkpt lat="44.9328" lon="6.50663">
        <ele>2408.6</ele>
        <time>2024-08-11T11:37:26Z</time>
      </trkpt>
      <trkpt lat="44.9328" lon="6.50663">
        <ele>2408.6</ele>
        <time>2024-08-11T11:37:27Z</time>
      </trkpt>
      <trkpt lat="44.93278" lon="6.50665">
        <ele>2408.6</ele>
        <time>2024-08-11T11:37:28Z</time>
      </trkpt>
      <trkpt lat="44.93278" lon="6.50665">
        <ele>2408.6</ele>
        <time>2024-08-11T11:37:29Z</time>
      </trkpt>
      <trkpt lat="44.93277" lon="6.50668">
        <ele>2408.6</ele>
        <time>2024-08-11T11:37:30Z</time>
      </trkpt>
      <trkpt lat="44.93277" lon="6.50668">
        <ele>2408.6</ele>
        <time>2024-08-11T11:37:31Z</time>
      </trkpt>
      <trkpt lat="44.93276" lon="6.5067">
        <ele>2408.6</ele>
        <time>2024-08-11T11:37:32Z</time>
      </trkpt>
      <trkpt lat="44.93276" lon="6.5067">
        <ele>2408.6</ele>
        <time>2024-08-11T11:37:33Z</time>
      </trkpt>
      <trkpt lat="44.93274" lon="6.50672">
        <ele>2408.2</ele>
        <time>2024-08-11T11:37:34Z</time>
      </trkpt>
      <trkpt lat="44.93274" lon="6.50672">
        <ele>2408.2</ele>
        <time>2024-08-11T11:37:35Z</time>
      </trkpt>
      <trkpt lat="44.93272" lon="6.50674">
        <ele>2408.2</ele>
        <time>2024-08-11T11:37:36Z</time>
      </trkpt>
      <trkpt lat="44.93272" lon="6.50674">
        <ele>2408</ele>
        <time>2024-08-11T11:37:37Z</time>
      </trkpt>
      <trkpt lat="44.93269" lon="6.50675">
        <ele>2407.8</ele>
        <time>2024-08-11T11:37:38Z</time>
      </trkpt>
      <trkpt lat="44.93269" lon="6.50675">
        <ele>2407.6</ele>
        <time>2024-08-11T11:37:39Z</time>
      </trkpt>
      <trkpt lat="44.93267" lon="6.50676">
        <ele>2407.6</ele>
        <time>2024-08-11T11:37:40Z</time>
      </trkpt>
      <trkpt lat="44.93267" lon="6.50676">
        <ele>2407.8</ele>
        <time>2024-08-11T11:37:41Z</time>
      </trkpt>
      <trkpt lat="44.93265" lon="6.50677">
        <ele>2407.8</ele>
        <time>2024-08-11T11:37:42Z</time>
      </trkpt>
      <trkpt lat="44.93265" lon="6.50677">
        <ele>2408.2</ele>
        <time>2024-08-11T11:37:43Z</time>
      </trkpt>
      <trkpt lat="44.93263" lon="6.50679">
        <ele>2408.2</ele>
        <time>2024-08-11T11:37:44Z</time>
      </trkpt>
      <trkpt lat="44.93263" lon="6.50679">
        <ele>2408.2</ele>
        <time>2024-08-11T11:37:45Z</time>
      </trkpt>
      <trkpt lat="44.93261" lon="6.50681">
        <ele>2408.4</ele>
        <time>2024-08-11T11:37:46Z</time>
      </trkpt>
      <trkpt lat="44.93261" lon="6.50681">
        <ele>2408.6</ele>
        <time>2024-08-11T11:37:47Z</time>
      </trkpt>
      <trkpt lat="44.93258" lon="6.50683">
        <ele>2408.6</ele>
        <time>2024-08-11T11:37:48Z</time>
      </trkpt>
      <trkpt lat="44.93258" lon="6.50683">
        <ele>2408</ele>
        <time>2024-08-11T11:37:49Z</time>
      </trkpt>
      <trkpt lat="44.93256" lon="6.50686">
        <ele>2407.6</ele>
        <time>2024-08-11T11:37:50Z</time>
      </trkpt>
      <trkpt lat="44.93256" lon="6.50686">
        <ele>2407.6</ele>
        <time>2024-08-11T11:37:51Z</time>
      </trkpt>
      <trkpt lat="44.93254" lon="6.50688">
        <ele>2407.6</ele>
        <time>2024-08-11T11:37:52Z</time>
      </trkpt>
      <trkpt lat="44.93254" lon="6.50688">
        <ele>2407.4</ele>
        <time>2024-08-11T11:37:53Z</time>
      </trkpt>
      <trkpt lat="44.93252" lon="6.5069">
        <ele>2407.2</ele>
        <time>2024-08-11T11:37:54Z</time>
      </trkpt>
      <trkpt lat="44.93252" lon="6.5069">
        <ele>2407.2</ele>
        <time>2024-08-11T11:37:55Z</time>
      </trkpt>
      <trkpt lat="44.9325" lon="6.50691">
        <ele>2407</ele>
        <time>2024-08-11T11:37:56Z</time>
      </trkpt>
      <trkpt lat="44.9325" lon="6.50691">
        <ele>2407</ele>
        <time>2024-08-11T11:37:57Z</time>
      </trkpt>
      <trkpt lat="44.93247" lon="6.50693">
        <ele>2407</ele>
        <time>2024-08-11T11:37:58Z</time>
      </trkpt>
      <trkpt lat="44.93247" lon="6.50693">
        <ele>2407</ele>
        <time>2024-08-11T11:37:59Z</time>
      </trkpt>
      <trkpt lat="44.93245" lon="6.50695">
        <ele>2406.8</ele>
        <time>2024-08-11T11:38:00Z</time>
      </trkpt>
      <trkpt lat="44.93245" lon="6.50695">
        <ele>2406.8</ele>
        <time>2024-08-11T11:38:01Z</time>
      </trkpt>
      <trkpt lat="44.93243" lon="6.50697">
        <ele>2406.6</ele>
        <time>2024-08-11T11:38:02Z</time>
      </trkpt>
      <trkpt lat="44.93243" lon="6.50697">
        <ele>2406.6</ele>
        <time>2024-08-11T11:38:03Z</time>
      </trkpt>
      <trkpt lat="44.9324" lon="6.50699">
        <ele>2406.6</ele>
        <time>2024-08-11T11:38:04Z</time>
      </trkpt>
      <trkpt lat="44.9324" lon="6.50699">
        <ele>2406.8</ele>
        <time>2024-08-11T11:38:05Z</time>
      </trkpt>
      <trkpt lat="44.93238" lon="6.507">
        <ele>2406.8</ele>
        <time>2024-08-11T11:38:06Z</time>
      </trkpt>
      <trkpt lat="44.93236" lon="6.50702">
        <ele>2406.6</ele>
        <time>2024-08-11T11:38:07Z</time>
      </trkpt>
      <trkpt lat="44.93236" lon="6.50702">
        <ele>2406.6</ele>
        <time>2024-08-11T11:38:08Z</time>
      </trkpt>
      <trkpt lat="44.93234" lon="6.50704">
        <ele>2406.4</ele>
        <time>2024-08-11T11:38:09Z</time>
      </trkpt>
      <trkpt lat="44.93234" lon="6.50704">
        <ele>2406.4</ele>
        <time>2024-08-11T11:38:10Z</time>
      </trkpt>
      <trkpt lat="44.93232" lon="6.50707">
        <ele>2406.4</ele>
        <time>2024-08-11T11:38:11Z</time>
      </trkpt>
      <trkpt lat="44.93232" lon="6.50707">
        <ele>2406.2</ele>
        <time>2024-08-11T11:38:12Z</time>
      </trkpt>
      <trkpt lat="44.9323" lon="6.5071">
        <ele>2406.2</ele>
        <time>2024-08-11T11:38:13Z</time>
      </trkpt>
      <trkpt lat="44.93228" lon="6.50712">
        <ele>2406.2</ele>
        <time>2024-08-11T11:38:14Z</time>
      </trkpt>
      <trkpt lat="44.93228" lon="6.50712">
        <ele>2406.2</ele>
        <time>2024-08-11T11:38:15Z</time>
      </trkpt>
      <trkpt lat="44.93226" lon="6.50715">
        <ele>2406</ele>
        <time>2024-08-11T11:38:16Z</time>
      </trkpt>
      <trkpt lat="44.93226" lon="6.50715">
        <ele>2406</ele>
        <time>2024-08-11T11:38:17Z</time>
      </trkpt>
      <trkpt lat="44.93225" lon="6.50718">
        <ele>2405.6</ele>
        <time>2024-08-11T11:38:18Z</time>
      </trkpt>
      <trkpt lat="44.93225" lon="6.50718">
        <ele>2405.6</ele>
        <time>2024-08-11T11:38:19Z</time>
      </trkpt>
      <trkpt lat="44.93224" lon="6.50721">
        <ele>2405.4</ele>
        <time>2024-08-11T11:38:20Z</time>
      </trkpt>
      <trkpt lat="44.93224" lon="6.50721">
        <ele>2405.2</ele>
        <time>2024-08-11T11:38:21Z</time>
      </trkpt>
      <trkpt lat="44.93222" lon="6.50724">
        <ele>2405.2</ele>
        <time>2024-08-11T11:38:22Z</time>
      </trkpt>
      <trkpt lat="44.93222" lon="6.50724">
        <ele>2405.2</ele>
        <time>2024-08-11T11:38:23Z</time>
      </trkpt>
      <trkpt lat="44.93221" lon="6.50726">
        <ele>2405.2</ele>
        <time>2024-08-11T11:38:24Z</time>
      </trkpt>
      <trkpt lat="44.93221" lon="6.50726">
        <ele>2405.2</ele>
        <time>2024-08-11T11:38:25Z</time>
      </trkpt>
      <trkpt lat="44.93219" lon="6.50727">
        <ele>2404.8</ele>
        <time>2024-08-11T11:38:26Z</time>
      </trkpt>
      <trkpt lat="44.93219" lon="6.50727">
        <ele>2404.8</ele>
        <time>2024-08-11T11:38:27Z</time>
      </trkpt>
      <trkpt lat="44.93216" lon="6.50728">
        <ele>2404.6</ele>
        <time>2024-08-11T11:38:28Z</time>
      </trkpt>
      <trkpt lat="44.93216" lon="6.50728">
        <ele>2404.6</ele>
        <time>2024-08-11T11:38:29Z</time>
      </trkpt>
      <trkpt lat="44.93213" lon="6.50729">
        <ele>2404.6</ele>
        <time>2024-08-11T11:38:30Z</time>
      </trkpt>
      <trkpt lat="44.93213" lon="6.50729">
        <ele>2404.4</ele>
        <time>2024-08-11T11:38:31Z</time>
      </trkpt>
      <trkpt lat="44.93211" lon="6.50729">
        <ele>2404.4</ele>
        <time>2024-08-11T11:38:32Z</time>
      </trkpt>
      <trkpt lat="44.93211" lon="6.50729">
        <ele>2404.4</ele>
        <time>2024-08-11T11:38:33Z</time>
      </trkpt>
      <trkpt lat="44.93209" lon="6.50729">
        <ele>2404.4</ele>
        <time>2024-08-11T11:38:34Z</time>
      </trkpt>
      <trkpt lat="44.93209" lon="6.50729">
        <ele>2404.4</ele>
        <time>2024-08-11T11:38:35Z</time>
      </trkpt>
      <trkpt lat="44.93206" lon="6.5073">
        <ele>2404.4</ele>
        <time>2024-08-11T11:38:36Z</time>
      </trkpt>
      <trkpt lat="44.93206" lon="6.5073">
        <ele>2404.4</ele>
        <time>2024-08-11T11:38:37Z</time>
      </trkpt>
      <trkpt lat="44.93204" lon="6.50731">
        <ele>2404.4</ele>
        <time>2024-08-11T11:38:38Z</time>
      </trkpt>
      <trkpt lat="44.93204" lon="6.50731">
        <ele>2404.4</ele>
        <time>2024-08-11T11:38:39Z</time>
      </trkpt>
      <trkpt lat="44.93202" lon="6.50733">
        <ele>2404.2</ele>
        <time>2024-08-11T11:38:40Z</time>
      </trkpt>
      <trkpt lat="44.93202" lon="6.50733">
        <ele>2404.2</ele>
        <time>2024-08-11T11:38:41Z</time>
      </trkpt>
      <trkpt lat="44.93199" lon="6.50734">
        <ele>2404.2</ele>
        <time>2024-08-11T11:38:42Z</time>
      </trkpt>
      <trkpt lat="44.93199" lon="6.50734">
        <ele>2404</ele>
        <time>2024-08-11T11:38:43Z</time>
      </trkpt>
      <trkpt lat="44.93197" lon="6.50736">
        <ele>2403.8</ele>
        <time>2024-08-11T11:38:44Z</time>
      </trkpt>
      <trkpt lat="44.93197" lon="6.50736">
        <ele>2403.8</ele>
        <time>2024-08-11T11:38:45Z</time>
      </trkpt>
      <trkpt lat="44.93194" lon="6.50738">
        <ele>2403.8</ele>
        <time>2024-08-11T11:38:46Z</time>
      </trkpt>
      <trkpt lat="44.93194" lon="6.50738">
        <ele>2403.8</ele>
        <time>2024-08-11T11:38:47Z</time>
      </trkpt>
      <trkpt lat="44.93192" lon="6.5074">
        <ele>2404</ele>
        <time>2024-08-11T11:38:48Z</time>
      </trkpt>
      <trkpt lat="44.93192" lon="6.5074">
        <ele>2404</ele>
        <time>2024-08-11T11:38:49Z</time>
      </trkpt>
      <trkpt lat="44.9319" lon="6.50742">
        <ele>2404</ele>
        <time>2024-08-11T11:38:50Z</time>
      </trkpt>
      <trkpt lat="44.9319" lon="6.50742">
        <ele>2404</ele>
        <time>2024-08-11T11:38:51Z</time>
      </trkpt>
      <trkpt lat="44.93187" lon="6.50744">
        <ele>2404</ele>
        <time>2024-08-11T11:38:52Z</time>
      </trkpt>
      <trkpt lat="44.93187" lon="6.50744">
        <ele>2403.8</ele>
        <time>2024-08-11T11:38:53Z</time>
      </trkpt>
      <trkpt lat="44.93184" lon="6.50746">
        <ele>2403.8</ele>
        <time>2024-08-11T11:38:54Z</time>
      </trkpt>
      <trkpt lat="44.93184" lon="6.50746">
        <ele>2403.8</ele>
        <time>2024-08-11T11:38:55Z</time>
      </trkpt>
      <trkpt lat="44.93181" lon="6.50747">
        <ele>2403.6</ele>
        <time>2024-08-11T11:38:56Z</time>
      </trkpt>
      <trkpt lat="44.93181" lon="6.50747">
        <ele>2403.6</ele>
        <time>2024-08-11T11:38:57Z</time>
      </trkpt>
      <trkpt lat="44.93179" lon="6.50749">
        <ele>2403.6</ele>
        <time>2024-08-11T11:38:58Z</time>
      </trkpt>
      <trkpt lat="44.93179" lon="6.50749">
        <ele>2403.4</ele>
        <time>2024-08-11T11:38:59Z</time>
      </trkpt>
      <trkpt lat="44.93176" lon="6.5075">
        <ele>2403.2</ele>
        <time>2024-08-11T11:39:00Z</time>
      </trkpt>
      <trkpt lat="44.93176" lon="6.5075">
        <ele>2403.2</ele>
        <time>2024-08-11T11:39:01Z</time>
      </trkpt>
      <trkpt lat="44.93174" lon="6.50752">
        <ele>2403.2</ele>
        <time>2024-08-11T11:39:02Z</time>
      </trkpt>
      <trkpt lat="44.93174" lon="6.50752">
        <ele>2403.2</ele>
        <time>2024-08-11T11:39:03Z</time>
      </trkpt>
      <trkpt lat="44.93172" lon="6.50752">
        <ele>2403.2</ele>
        <time>2024-08-11T11:39:04Z</time>
      </trkpt>
      <trkpt lat="44.93172" lon="6.50752">
        <ele>2403.2</ele>
        <time>2024-08-11T11:39:05Z</time>
      </trkpt>
      <trkpt lat="44.93169" lon="6.50753">
        <ele>2403.2</ele>
        <time>2024-08-11T11:39:06Z</time>
      </trkpt>
      <trkpt lat="44.93169" lon="6.50753">
        <ele>2403</ele>
        <time>2024-08-11T11:39:07Z</time>
      </trkpt>
      <trkpt lat="44.93167" lon="6.50755">
        <ele>2403</ele>
        <time>2024-08-11T11:39:08Z</time>
      </trkpt>
      <trkpt lat="44.93167" lon="6.50755">
        <ele>2403</ele>
        <time>2024-08-11T11:39:09Z</time>
      </trkpt>
      <trkpt lat="44.93165" lon="6.50756">
        <ele>2403</ele>
        <time>2024-08-11T11:39:10Z</time>
      </trkpt>
      <trkpt lat="44.93165" lon="6.50756">
        <ele>2403</ele>
        <time>2024-08-11T11:39:11Z</time>
      </trkpt>
      <trkpt lat="44.93162" lon="6.50756">
        <ele>2403</ele>
        <time>2024-08-11T11:39:12Z</time>
      </trkpt>
      <trkpt lat="44.93162" lon="6.50756">
        <ele>2403</ele>
        <time>2024-08-11T11:39:13Z</time>
      </trkpt>
      <trkpt lat="44.9316" lon="6.50758">
        <ele>2402.6</ele>
        <time>2024-08-11T11:39:14Z</time>
      </trkpt>
      <trkpt lat="44.9316" lon="6.50758">
        <ele>2402.6</ele>
        <time>2024-08-11T11:39:15Z</time>
      </trkpt>
      <trkpt lat="44.93157" lon="6.50759">
        <ele>2403</ele>
        <time>2024-08-11T11:39:16Z</time>
      </trkpt>
      <trkpt lat="44.93157" lon="6.50759">
        <ele>2403</ele>
        <time>2024-08-11T11:39:17Z</time>
      </trkpt>
      <trkpt lat="44.93155" lon="6.50759">
        <ele>2402.6</ele>
        <time>2024-08-11T11:39:18Z</time>
      </trkpt>
      <trkpt lat="44.93155" lon="6.50759">
        <ele>2402.4</ele>
        <time>2024-08-11T11:39:19Z</time>
      </trkpt>
      <trkpt lat="44.93152" lon="6.5076">
        <ele>2402.2</ele>
        <time>2024-08-11T11:39:20Z</time>
      </trkpt>
      <trkpt lat="44.93152" lon="6.5076">
        <ele>2402.2</ele>
        <time>2024-08-11T11:39:21Z</time>
      </trkpt>
      <trkpt lat="44.9315" lon="6.50762">
        <ele>2402.4</ele>
        <time>2024-08-11T11:39:22Z</time>
      </trkpt>
      <trkpt lat="44.9315" lon="6.50762">
        <ele>2402.4</ele>
        <time>2024-08-11T11:39:23Z</time>
      </trkpt>
      <trkpt lat="44.93148" lon="6.50762">
        <ele>2402.4</ele>
        <time>2024-08-11T11:39:24Z</time>
      </trkpt>
      <trkpt lat="44.93148" lon="6.50762">
        <ele>2402.4</ele>
        <time>2024-08-11T11:39:25Z</time>
      </trkpt>
      <trkpt lat="44.93145" lon="6.50764">
        <ele>2402.2</ele>
        <time>2024-08-11T11:39:26Z</time>
      </trkpt>
      <trkpt lat="44.93145" lon="6.50764">
        <ele>2402.2</ele>
        <time>2024-08-11T11:39:27Z</time>
      </trkpt>
      <trkpt lat="44.93143" lon="6.50767">
        <ele>2402.2</ele>
        <time>2024-08-11T11:39:28Z</time>
      </trkpt>
      <trkpt lat="44.93143" lon="6.50767">
        <ele>2402.2</ele>
        <time>2024-08-11T11:39:29Z</time>
      </trkpt>
      <trkpt lat="44.93141" lon="6.50768">
        <ele>2402</ele>
        <time>2024-08-11T11:39:30Z</time>
      </trkpt>
      <trkpt lat="44.93141" lon="6.50768">
        <ele>2402</ele>
        <time>2024-08-11T11:39:31Z</time>
      </trkpt>
      <trkpt lat="44.93139" lon="6.5077">
        <ele>2402</ele>
        <time>2024-08-11T11:39:32Z</time>
      </trkpt>
      <trkpt lat="44.93139" lon="6.5077">
        <ele>2402</ele>
        <time>2024-08-11T11:39:33Z</time>
      </trkpt>
      <trkpt lat="44.93137" lon="6.50771">
        <ele>2402</ele>
        <time>2024-08-11T11:39:34Z</time>
      </trkpt>
      <trkpt lat="44.93137" lon="6.50771">
        <ele>2402</ele>
        <time>2024-08-11T11:39:35Z</time>
      </trkpt>
      <trkpt lat="44.93135" lon="6.50773">
        <ele>2401.8</ele>
        <time>2024-08-11T11:39:36Z</time>
      </trkpt>
      <trkpt lat="44.93135" lon="6.50773">
        <ele>2401.6</ele>
        <time>2024-08-11T11:39:37Z</time>
      </trkpt>
      <trkpt lat="44.93133" lon="6.50774">
        <ele>2401.6</ele>
        <time>2024-08-11T11:39:38Z</time>
      </trkpt>
      <trkpt lat="44.93133" lon="6.50774">
        <ele>2401.6</ele>
        <time>2024-08-11T11:39:39Z</time>
      </trkpt>
      <trkpt lat="44.93131" lon="6.50775">
        <ele>2401.6</ele>
        <time>2024-08-11T11:39:40Z</time>
      </trkpt>
      <trkpt lat="44.93131" lon="6.50775">
        <ele>2401.6</ele>
        <time>2024-08-11T11:39:41Z</time>
      </trkpt>
      <trkpt lat="44.93129" lon="6.50775">
        <ele>2401.6</ele>
        <time>2024-08-11T11:39:42Z</time>
      </trkpt>
      <trkpt lat="44.93129" lon="6.50775">
        <ele>2401.6</ele>
        <time>2024-08-11T11:39:43Z</time>
      </trkpt>
      <trkpt lat="44.93126" lon="6.50776">
        <ele>2401.6</ele>
        <time>2024-08-11T11:39:44Z</time>
      </trkpt>
      <trkpt lat="44.93126" lon="6.50776">
        <ele>2401.6</ele>
        <time>2024-08-11T11:39:45Z</time>
      </trkpt>
      <trkpt lat="44.93124" lon="6.50777">
        <ele>2401.4</ele>
        <time>2024-08-11T11:39:46Z</time>
      </trkpt>
      <trkpt lat="44.93124" lon="6.50777">
        <ele>2401.4</ele>
        <time>2024-08-11T11:39:47Z</time>
      </trkpt>
      <trkpt lat="44.93121" lon="6.50779">
        <ele>2401.4</ele>
        <time>2024-08-11T11:39:48Z</time>
      </trkpt>
      <trkpt lat="44.93121" lon="6.50779">
        <ele>2401.4</ele>
        <time>2024-08-11T11:39:49Z</time>
      </trkpt>
      <trkpt lat="44.93118" lon="6.50779">
        <ele>2401.4</ele>
        <time>2024-08-11T11:39:50Z</time>
      </trkpt>
      <trkpt lat="44.93118" lon="6.50779">
        <ele>2401.4</ele>
        <time>2024-08-11T11:39:51Z</time>
      </trkpt>
      <trkpt lat="44.93115" lon="6.50778">
        <ele>2401.4</ele>
        <time>2024-08-11T11:39:52Z</time>
      </trkpt>
      <trkpt lat="44.93115" lon="6.50778">
        <ele>2401.4</ele>
        <time>2024-08-11T11:39:53Z</time>
      </trkpt>
      <trkpt lat="44.93113" lon="6.50779">
        <ele>2401.2</ele>
        <time>2024-08-11T11:39:54Z</time>
      </trkpt>
      <trkpt lat="44.93113" lon="6.50779">
        <ele>2401</ele>
        <time>2024-08-11T11:39:55Z</time>
      </trkpt>
      <trkpt lat="44.93111" lon="6.50781">
        <ele>2400.6</ele>
        <time>2024-08-11T11:39:56Z</time>
      </trkpt>
      <trkpt lat="44.93111" lon="6.50781">
        <ele>2400.4</ele>
        <time>2024-08-11T11:39:57Z</time>
      </trkpt>
      <trkpt lat="44.93109" lon="6.50784">
        <ele>2400.4</ele>
        <time>2024-08-11T11:39:58Z</time>
      </trkpt>
      <trkpt lat="44.93109" lon="6.50784">
        <ele>2400.4</ele>
        <time>2024-08-11T11:39:59Z</time>
      </trkpt>
      <trkpt lat="44.93107" lon="6.50786">
        <ele>2400.2</ele>
        <time>2024-08-11T11:40:00Z</time>
      </trkpt>
      <trkpt lat="44.93107" lon="6.50786">
        <ele>2400.2</ele>
        <time>2024-08-11T11:40:01Z</time>
      </trkpt>
      <trkpt lat="44.93106" lon="6.50789">
        <ele>2400.6</ele>
        <time>2024-08-11T11:40:02Z</time>
      </trkpt>
      <trkpt lat="44.93106" lon="6.50789">
        <ele>2400.6</ele>
        <time>2024-08-11T11:40:03Z</time>
      </trkpt>
      <trkpt lat="44.93104" lon="6.50791">
        <ele>2400.4</ele>
        <time>2024-08-11T11:40:04Z</time>
      </trkpt>
      <trkpt lat="44.93104" lon="6.50791">
        <ele>2400.4</ele>
        <time>2024-08-11T11:40:05Z</time>
      </trkpt>
      <trkpt lat="44.93101" lon="6.50793">
        <ele>2400.6</ele>
        <time>2024-08-11T11:40:06Z</time>
      </trkpt>
      <trkpt lat="44.93101" lon="6.50793">
        <ele>2400.6</ele>
        <time>2024-08-11T11:40:07Z</time>
      </trkpt>
      <trkpt lat="44.93099" lon="6.50794">
        <ele>2400.6</ele>
        <time>2024-08-11T11:40:08Z</time>
      </trkpt>
      <trkpt lat="44.93099" lon="6.50794">
        <ele>2400.4</ele>
        <time>2024-08-11T11:40:09Z</time>
      </trkpt>
      <trkpt lat="44.93097" lon="6.50795">
        <ele>2400.2</ele>
        <time>2024-08-11T11:40:10Z</time>
      </trkpt>
      <trkpt lat="44.93097" lon="6.50795">
        <ele>2400.2</ele>
        <time>2024-08-11T11:40:11Z</time>
      </trkpt>
      <trkpt lat="44.93094" lon="6.50796">
        <ele>2400.2</ele>
        <time>2024-08-11T11:40:12Z</time>
      </trkpt>
      <trkpt lat="44.93094" lon="6.50796">
        <ele>2400</ele>
        <time>2024-08-11T11:40:13Z</time>
      </trkpt>
      <trkpt lat="44.93091" lon="6.50796">
        <ele>2400</ele>
        <time>2024-08-11T11:40:14Z</time>
      </trkpt>
      <trkpt lat="44.93091" lon="6.50796">
        <ele>2400</ele>
        <time>2024-08-11T11:40:15Z</time>
      </trkpt>
      <trkpt lat="44.93088" lon="6.50796">
        <ele>2400</ele>
        <time>2024-08-11T11:40:16Z</time>
      </trkpt>
      <trkpt lat="44.93088" lon="6.50796">
        <ele>2400</ele>
        <time>2024-08-11T11:40:17Z</time>
      </trkpt>
      <trkpt lat="44.93085" lon="6.50796">
        <ele>2400</ele>
        <time>2024-08-11T11:40:18Z</time>
      </trkpt>
      <trkpt lat="44.93085" lon="6.50796">
        <ele>2400</ele>
        <time>2024-08-11T11:40:19Z</time>
      </trkpt>
      <trkpt lat="44.93083" lon="6.50795">
        <ele>2400</ele>
        <time>2024-08-11T11:40:20Z</time>
      </trkpt>
      <trkpt lat="44.93083" lon="6.50795">
        <ele>2399.8</ele>
        <time>2024-08-11T11:40:21Z</time>
      </trkpt>
      <trkpt lat="44.9308" lon="6.50796">
        <ele>2399.8</ele>
        <time>2024-08-11T11:40:22Z</time>
      </trkpt>
      <trkpt lat="44.9308" lon="6.50796">
        <ele>2399.8</ele>
        <time>2024-08-11T11:40:23Z</time>
      </trkpt>
      <trkpt lat="44.93077" lon="6.50796">
        <ele>2399.8</ele>
        <time>2024-08-11T11:40:24Z</time>
      </trkpt>
      <trkpt lat="44.93077" lon="6.50796">
        <ele>2399.6</ele>
        <time>2024-08-11T11:40:25Z</time>
      </trkpt>
      <trkpt lat="44.93075" lon="6.50796">
        <ele>2399.6</ele>
        <time>2024-08-11T11:40:26Z</time>
      </trkpt>
      <trkpt lat="44.93075" lon="6.50796">
        <ele>2399.6</ele>
        <time>2024-08-11T11:40:27Z</time>
      </trkpt>
      <trkpt lat="44.93073" lon="6.50797">
        <ele>2399.6</ele>
        <time>2024-08-11T11:40:28Z</time>
      </trkpt>
      <trkpt lat="44.93073" lon="6.50797">
        <ele>2399.4</ele>
        <time>2024-08-11T11:40:29Z</time>
      </trkpt>
      <trkpt lat="44.9307" lon="6.50797">
        <ele>2399.4</ele>
        <time>2024-08-11T11:40:30Z</time>
      </trkpt>
      <trkpt lat="44.9307" lon="6.50797">
        <ele>2399.4</ele>
        <time>2024-08-11T11:40:31Z</time>
      </trkpt>
      <trkpt lat="44.93067" lon="6.50798">
        <ele>2399.4</ele>
        <time>2024-08-11T11:40:32Z</time>
      </trkpt>
      <trkpt lat="44.93067" lon="6.50798">
        <ele>2399.2</ele>
        <time>2024-08-11T11:40:33Z</time>
      </trkpt>
      <trkpt lat="44.93065" lon="6.508">
        <ele>2399</ele>
        <time>2024-08-11T11:40:34Z</time>
      </trkpt>
      <trkpt lat="44.93065" lon="6.508">
        <ele>2399</ele>
        <time>2024-08-11T11:40:35Z</time>
      </trkpt>
      <trkpt lat="44.93062" lon="6.50801">
        <ele>2399</ele>
        <time>2024-08-11T11:40:36Z</time>
      </trkpt>
      <trkpt lat="44.93062" lon="6.50801">
        <ele>2399</ele>
        <time>2024-08-11T11:40:37Z</time>
      </trkpt>
      <trkpt lat="44.9306" lon="6.50802">
        <ele>2399</ele>
        <time>2024-08-11T11:40:38Z</time>
      </trkpt>
      <trkpt lat="44.93058" lon="6.50804">
        <ele>2399</ele>
        <time>2024-08-11T11:40:39Z</time>
      </trkpt>
      <trkpt lat="44.93058" lon="6.50804">
        <ele>2398.8</ele>
        <time>2024-08-11T11:40:40Z</time>
      </trkpt>
      <trkpt lat="44.93055" lon="6.50805">
        <ele>2398.8</ele>
        <time>2024-08-11T11:40:41Z</time>
      </trkpt>
      <trkpt lat="44.93053" lon="6.50805">
        <ele>2398.6</ele>
        <time>2024-08-11T11:40:42Z</time>
      </trkpt>
      <trkpt lat="44.93053" lon="6.50805">
        <ele>2398.6</ele>
        <time>2024-08-11T11:40:43Z</time>
      </trkpt>
      <trkpt lat="44.9305" lon="6.50806">
        <ele>2398.6</ele>
        <time>2024-08-11T11:40:44Z</time>
      </trkpt>
      <trkpt lat="44.9305" lon="6.50806">
        <ele>2398.6</ele>
        <time>2024-08-11T11:40:45Z</time>
      </trkpt>
      <trkpt lat="44.93047" lon="6.50805">
        <ele>2398.6</ele>
        <time>2024-08-11T11:40:46Z</time>
      </trkpt>
      <trkpt lat="44.93047" lon="6.50805">
        <ele>2398.6</ele>
        <time>2024-08-11T11:40:47Z</time>
      </trkpt>
      <trkpt lat="44.93045" lon="6.50806">
        <ele>2398.6</ele>
        <time>2024-08-11T11:40:48Z</time>
      </trkpt>
      <trkpt lat="44.93045" lon="6.50806">
        <ele>2398.6</ele>
        <time>2024-08-11T11:40:49Z</time>
      </trkpt>
      <trkpt lat="44.93042" lon="6.50805">
        <ele>2398.8</ele>
        <time>2024-08-11T11:40:50Z</time>
      </trkpt>
      <trkpt lat="44.93042" lon="6.50805">
        <ele>2398.8</ele>
        <time>2024-08-11T11:40:51Z</time>
      </trkpt>
      <trkpt lat="44.93039" lon="6.50805">
        <ele>2398.8</ele>
        <time>2024-08-11T11:40:52Z</time>
      </trkpt>
      <trkpt lat="44.93039" lon="6.50805">
        <ele>2398.6</ele>
        <time>2024-08-11T11:40:53Z</time>
      </trkpt>
      <trkpt lat="44.93037" lon="6.50805">
        <ele>2398.6</ele>
        <time>2024-08-11T11:40:54Z</time>
      </trkpt>
      <trkpt lat="44.93037" lon="6.50805">
        <ele>2398.6</ele>
        <time>2024-08-11T11:40:55Z</time>
      </trkpt>
      <trkpt lat="44.93034" lon="6.50804">
        <ele>2398.6</ele>
        <time>2024-08-11T11:40:56Z</time>
      </trkpt>
      <trkpt lat="44.93034" lon="6.50804">
        <ele>2398.6</ele>
        <time>2024-08-11T11:40:57Z</time>
      </trkpt>
      <trkpt lat="44.93032" lon="6.50804">
        <ele>2398.6</ele>
        <time>2024-08-11T11:40:58Z</time>
      </trkpt>
      <trkpt lat="44.93032" lon="6.50804">
        <ele>2398.2</ele>
        <time>2024-08-11T11:40:59Z</time>
      </trkpt>
      <trkpt lat="44.93029" lon="6.50805">
        <ele>2398.2</ele>
        <time>2024-08-11T11:41:00Z</time>
      </trkpt>
      <trkpt lat="44.93029" lon="6.50805">
        <ele>2398</ele>
        <time>2024-08-11T11:41:01Z</time>
      </trkpt>
      <trkpt lat="44.93028" lon="6.50804">
        <ele>2398</ele>
        <time>2024-08-11T11:41:02Z</time>
      </trkpt>
      <trkpt lat="44.93026" lon="6.50804">
        <ele>2398</ele>
        <time>2024-08-11T11:41:03Z</time>
      </trkpt>
      <trkpt lat="44.93026" lon="6.50804">
        <ele>2398</ele>
        <time>2024-08-11T11:41:04Z</time>
      </trkpt>
      <trkpt lat="44.93023" lon="6.50803">
        <ele>2398</ele>
        <time>2024-08-11T11:41:05Z</time>
      </trkpt>
      <trkpt lat="44.93023" lon="6.50803">
        <ele>2397.6</ele>
        <time>2024-08-11T11:41:06Z</time>
      </trkpt>
      <trkpt lat="44.93021" lon="6.50803">
        <ele>2397.6</ele>
        <time>2024-08-11T11:41:07Z</time>
      </trkpt>
      <trkpt lat="44.93021" lon="6.50803">
        <ele>2397.4</ele>
        <time>2024-08-11T11:41:08Z</time>
      </trkpt>
      <trkpt lat="44.93019" lon="6.50804">
        <ele>2397.2</ele>
        <time>2024-08-11T11:41:09Z</time>
      </trkpt>
      <trkpt lat="44.93019" lon="6.50804">
        <ele>2397.2</ele>
        <time>2024-08-11T11:41:10Z</time>
      </trkpt>
      <trkpt lat="44.93017" lon="6.50805">
        <ele>2397.2</ele>
        <time>2024-08-11T11:41:11Z</time>
      </trkpt>
      <trkpt lat="44.93017" lon="6.50805">
        <ele>2397</ele>
        <time>2024-08-11T11:41:12Z</time>
      </trkpt>
      <trkpt lat="44.93014" lon="6.50806">
        <ele>2397</ele>
        <time>2024-08-11T11:41:13Z</time>
      </trkpt>
      <trkpt lat="44.93014" lon="6.50806">
        <ele>2397</ele>
        <time>2024-08-11T11:41:14Z</time>
      </trkpt>
      <trkpt lat="44.93011" lon="6.50807">
        <ele>2396.8</ele>
        <time>2024-08-11T11:41:15Z</time>
      </trkpt>
      <trkpt lat="44.93011" lon="6.50807">
        <ele>2396.8</ele>
        <time>2024-08-11T11:41:16Z</time>
      </trkpt>
      <trkpt lat="44.93008" lon="6.50807">
        <ele>2396.6</ele>
        <time>2024-08-11T11:41:17Z</time>
      </trkpt>
      <trkpt lat="44.93008" lon="6.50807">
        <ele>2396.6</ele>
        <time>2024-08-11T11:41:18Z</time>
      </trkpt>
      <trkpt lat="44.93006" lon="6.50807">
        <ele>2396.6</ele>
        <time>2024-08-11T11:41:19Z</time>
      </trkpt>
      <trkpt lat="44.93006" lon="6.50807">
        <ele>2396.6</ele>
        <time>2024-08-11T11:41:20Z</time>
      </trkpt>
      <trkpt lat="44.93004" lon="6.50808">
        <ele>2396.2</ele>
        <time>2024-08-11T11:41:21Z</time>
      </trkpt>
      <trkpt lat="44.93004" lon="6.50808">
        <ele>2396</ele>
        <time>2024-08-11T11:41:22Z</time>
      </trkpt>
      <trkpt lat="44.93001" lon="6.50808">
        <ele>2396</ele>
        <time>2024-08-11T11:41:23Z</time>
      </trkpt>
      <trkpt lat="44.93001" lon="6.50808">
        <ele>2396</ele>
        <time>2024-08-11T11:41:24Z</time>
      </trkpt>
      <trkpt lat="44.92998" lon="6.50809">
        <ele>2396</ele>
        <time>2024-08-11T11:41:25Z</time>
      </trkpt>
      <trkpt lat="44.92998" lon="6.50809">
        <ele>2395.8</ele>
        <time>2024-08-11T11:41:26Z</time>
      </trkpt>
      <trkpt lat="44.92996" lon="6.50809">
        <ele>2395.8</ele>
        <time>2024-08-11T11:41:27Z</time>
      </trkpt>
      <trkpt lat="44.92996" lon="6.50809">
        <ele>2395.8</ele>
        <time>2024-08-11T11:41:28Z</time>
      </trkpt>
      <trkpt lat="44.92993" lon="6.5081">
        <ele>2395.8</ele>
        <time>2024-08-11T11:41:29Z</time>
      </trkpt>
      <trkpt lat="44.92993" lon="6.5081">
        <ele>2395.6</ele>
        <time>2024-08-11T11:41:30Z</time>
      </trkpt>
      <trkpt lat="44.92991" lon="6.50812">
        <ele>2395.6</ele>
        <time>2024-08-11T11:41:31Z</time>
      </trkpt>
      <trkpt lat="44.92991" lon="6.50812">
        <ele>2395.4</ele>
        <time>2024-08-11T11:41:32Z</time>
      </trkpt>
      <trkpt lat="44.92989" lon="6.50814">
        <ele>2395.4</ele>
        <time>2024-08-11T11:41:33Z</time>
      </trkpt>
      <trkpt lat="44.92989" lon="6.50814">
        <ele>2395.2</ele>
        <time>2024-08-11T11:41:34Z</time>
      </trkpt>
      <trkpt lat="44.92986" lon="6.50816">
        <ele>2395</ele>
        <time>2024-08-11T11:41:35Z</time>
      </trkpt>
      <trkpt lat="44.92986" lon="6.50816">
        <ele>2395</ele>
        <time>2024-08-11T11:41:36Z</time>
      </trkpt>
      <trkpt lat="44.92984" lon="6.50817">
        <ele>2395.2</ele>
        <time>2024-08-11T11:41:37Z</time>
      </trkpt>
      <trkpt lat="44.92984" lon="6.50817">
        <ele>2395.2</ele>
        <time>2024-08-11T11:41:38Z</time>
      </trkpt>
      <trkpt lat="44.92981" lon="6.50817">
        <ele>2395.2</ele>
        <time>2024-08-11T11:41:39Z</time>
      </trkpt>
      <trkpt lat="44.92981" lon="6.50817">
        <ele>2395.2</ele>
        <time>2024-08-11T11:41:40Z</time>
      </trkpt>
      <trkpt lat="44.92978" lon="6.50817">
        <ele>2395.2</ele>
        <time>2024-08-11T11:41:41Z</time>
      </trkpt>
      <trkpt lat="44.92978" lon="6.50817">
        <ele>2395.2</ele>
        <time>2024-08-11T11:41:42Z</time>
      </trkpt>
      <trkpt lat="44.92976" lon="6.50818">
        <ele>2395</ele>
        <time>2024-08-11T11:41:43Z</time>
      </trkpt>
      <trkpt lat="44.92976" lon="6.50818">
        <ele>2395</ele>
        <time>2024-08-11T11:41:44Z</time>
      </trkpt>
      <trkpt lat="44.92973" lon="6.50819">
        <ele>2395</ele>
        <time>2024-08-11T11:41:45Z</time>
      </trkpt>
      <trkpt lat="44.92973" lon="6.50819">
        <ele>2395</ele>
        <time>2024-08-11T11:41:46Z</time>
      </trkpt>
      <trkpt lat="44.9297" lon="6.5082">
        <ele>2394.8</ele>
        <time>2024-08-11T11:41:47Z</time>
      </trkpt>
      <trkpt lat="44.9297" lon="6.5082">
        <ele>2394.8</ele>
        <time>2024-08-11T11:41:48Z</time>
      </trkpt>
      <trkpt lat="44.92968" lon="6.5082">
        <ele>2394.8</ele>
        <time>2024-08-11T11:41:49Z</time>
      </trkpt>
      <trkpt lat="44.92968" lon="6.5082">
        <ele>2394.8</ele>
        <time>2024-08-11T11:41:50Z</time>
      </trkpt>
      <trkpt lat="44.92965" lon="6.5082">
        <ele>2394.6</ele>
        <time>2024-08-11T11:41:51Z</time>
      </trkpt>
      <trkpt lat="44.92965" lon="6.5082">
        <ele>2394.4</ele>
        <time>2024-08-11T11:41:52Z</time>
      </trkpt>
      <trkpt lat="44.92963" lon="6.50821">
        <ele>2394.4</ele>
        <time>2024-08-11T11:41:53Z</time>
      </trkpt>
      <trkpt lat="44.92963" lon="6.50821">
        <ele>2394.4</ele>
        <time>2024-08-11T11:41:54Z</time>
      </trkpt>
      <trkpt lat="44.9296" lon="6.50823">
        <ele>2394.4</ele>
        <time>2024-08-11T11:41:55Z</time>
      </trkpt>
      <trkpt lat="44.9296" lon="6.50823">
        <ele>2394.2</ele>
        <time>2024-08-11T11:41:56Z</time>
      </trkpt>
      <trkpt lat="44.92958" lon="6.50824">
        <ele>2394.2</ele>
        <time>2024-08-11T11:41:57Z</time>
      </trkpt>
      <trkpt lat="44.92958" lon="6.50824">
        <ele>2394.2</ele>
        <time>2024-08-11T11:41:58Z</time>
      </trkpt>
      <trkpt lat="44.92955" lon="6.50825">
        <ele>2394.2</ele>
        <time>2024-08-11T11:41:59Z</time>
      </trkpt>
      <trkpt lat="44.92955" lon="6.50825">
        <ele>2394.4</ele>
        <time>2024-08-11T11:42:00Z</time>
      </trkpt>
      <trkpt lat="44.92952" lon="6.50826">
        <ele>2394.4</ele>
        <time>2024-08-11T11:42:01Z</time>
      </trkpt>
      <trkpt lat="44.92952" lon="6.50826">
        <ele>2394.4</ele>
        <time>2024-08-11T11:42:02Z</time>
      </trkpt>
      <trkpt lat="44.9295" lon="6.50826">
        <ele>2394.4</ele>
        <time>2024-08-11T11:42:03Z</time>
      </trkpt>
      <trkpt lat="44.9295" lon="6.50826">
        <ele>2394.4</ele>
        <time>2024-08-11T11:42:04Z</time>
      </trkpt>
      <trkpt lat="44.92949" lon="6.50827">
        <ele>2394.2</ele>
        <time>2024-08-11T11:42:05Z</time>
      </trkpt>
      <trkpt lat="44.92949" lon="6.50827">
        <ele>2394.2</ele>
        <time>2024-08-11T11:42:06Z</time>
      </trkpt>
      <trkpt lat="44.92947" lon="6.50828">
        <ele>2394.4</ele>
        <time>2024-08-11T11:42:07Z</time>
      </trkpt>
      <trkpt lat="44.92947" lon="6.50828">
        <ele>2394.6</ele>
        <time>2024-08-11T11:42:08Z</time>
      </trkpt>
      <trkpt lat="44.92944" lon="6.50829">
        <ele>2394.6</ele>
        <time>2024-08-11T11:42:09Z</time>
      </trkpt>
      <trkpt lat="44.92944" lon="6.50829">
        <ele>2394.6</ele>
        <time>2024-08-11T11:42:10Z</time>
      </trkpt>
      <trkpt lat="44.92942" lon="6.5083">
        <ele>2394.6</ele>
        <time>2024-08-11T11:42:11Z</time>
      </trkpt>
      <trkpt lat="44.92942" lon="6.5083">
        <ele>2394.4</ele>
        <time>2024-08-11T11:42:12Z</time>
      </trkpt>
      <trkpt lat="44.9294" lon="6.5083">
        <ele>2394.4</ele>
        <time>2024-08-11T11:42:13Z</time>
      </trkpt>
      <trkpt lat="44.9294" lon="6.5083">
        <ele>2394.4</ele>
        <time>2024-08-11T11:42:14Z</time>
      </trkpt>
      <trkpt lat="44.92937" lon="6.5083">
        <ele>2393.8</ele>
        <time>2024-08-11T11:42:15Z</time>
      </trkpt>
      <trkpt lat="44.92935" lon="6.5083">
        <ele>2393.8</ele>
        <time>2024-08-11T11:42:16Z</time>
      </trkpt>
      <trkpt lat="44.92935" lon="6.5083">
        <ele>2393.6</ele>
        <time>2024-08-11T11:42:17Z</time>
      </trkpt>
      <trkpt lat="44.92933" lon="6.5083">
        <ele>2393.4</ele>
        <time>2024-08-11T11:42:18Z</time>
      </trkpt>
      <trkpt lat="44.92933" lon="6.5083">
        <ele>2393.4</ele>
        <time>2024-08-11T11:42:19Z</time>
      </trkpt>
      <trkpt lat="44.9293" lon="6.50829">
        <ele>2393.4</ele>
        <time>2024-08-11T11:42:20Z</time>
      </trkpt>
      <trkpt lat="44.9293" lon="6.50829">
        <ele>2393.2</ele>
        <time>2024-08-11T11:42:21Z</time>
      </trkpt>
      <trkpt lat="44.92926" lon="6.50829">
        <ele>2393.2</ele>
        <time>2024-08-11T11:42:22Z</time>
      </trkpt>
      <trkpt lat="44.92926" lon="6.50829">
        <ele>2393</ele>
        <time>2024-08-11T11:42:23Z</time>
      </trkpt>
      <trkpt lat="44.92925" lon="6.50828">
        <ele>2392.8</ele>
        <time>2024-08-11T11:42:24Z</time>
      </trkpt>
      <trkpt lat="44.92925" lon="6.50828">
        <ele>2392.8</ele>
        <time>2024-08-11T11:42:25Z</time>
      </trkpt>
      <trkpt lat="44.92925" lon="6.50828">
        <ele>2392.8</ele>
        <time>2024-08-11T11:42:26Z</time>
      </trkpt>
      <trkpt lat="44.92925" lon="6.50828">
        <ele>2392.8</ele>
        <time>2024-08-11T11:42:27Z</time>
      </trkpt>
      <trkpt lat="44.92925" lon="6.50828">
        <ele>2392.8</ele>
        <time>2024-08-11T11:42:28Z</time>
      </trkpt>
      <trkpt lat="44.92925" lon="6.50828">
        <ele>2392.8</ele>
        <time>2024-08-11T11:42:29Z</time>
      </trkpt>
      <trkpt lat="44.92925" lon="6.50828">
        <ele>2393</ele>
        <time>2024-08-11T11:42:30Z</time>
      </trkpt>
      <trkpt lat="44.92925" lon="6.50828">
        <ele>2393</ele>
        <time>2024-08-11T11:42:31Z</time>
      </trkpt>
      <trkpt lat="44.92925" lon="6.50828">
        <ele>2393</ele>
        <time>2024-08-11T11:42:32Z</time>
      </trkpt>
      <trkpt lat="44.92925" lon="6.50828">
        <ele>2393</ele>
        <time>2024-08-11T11:42:33Z</time>
      </trkpt>
      <trkpt lat="44.92925" lon="6.50828">
        <ele>2393</ele>
        <time>2024-08-11T11:42:34Z</time>
      </trkpt>
      <trkpt lat="44.92925" lon="6.50828">
        <ele>2393</ele>
        <time>2024-08-11T11:42:35Z</time>
      </trkpt>
      <trkpt lat="44.92925" lon="6.50828">
        <ele>2392.8</ele>
        <time>2024-08-11T11:42:36Z</time>
      </trkpt>
      <trkpt lat="44.92925" lon="6.50828">
        <ele>2392.8</ele>
        <time>2024-08-11T11:42:37Z</time>
      </trkpt>
      <trkpt lat="44.92925" lon="6.50828">
        <ele>2392.8</ele>
        <time>2024-08-11T11:42:38Z</time>
      </trkpt>
      <trkpt lat="44.92925" lon="6.50828">
        <ele>2392.8</ele>
        <time>2024-08-11T11:42:39Z</time>
      </trkpt>
      <trkpt lat="44.92925" lon="6.50828">
        <ele>2393</ele>
        <time>2024-08-11T11:42:40Z</time>
      </trkpt>
      <trkpt lat="44.92925" lon="6.50828">
        <ele>2393</ele>
        <time>2024-08-11T11:42:41Z</time>
      </trkpt>
      <trkpt lat="44.92925" lon="6.50828">
        <ele>2393</ele>
        <time>2024-08-11T11:42:42Z</time>
      </trkpt>
      <trkpt lat="44.92925" lon="6.50828">
        <ele>2393.2</ele>
        <time>2024-08-11T11:42:43Z</time>
      </trkpt>
      <trkpt lat="44.92925" lon="6.50828">
        <ele>2393.2</ele>
        <time>2024-08-11T11:42:44Z</time>
      </trkpt>
      <trkpt lat="44.92925" lon="6.50828">
        <ele>2393</ele>
        <time>2024-08-11T11:42:45Z</time>
      </trkpt>
      <trkpt lat="44.92925" lon="6.50828">
        <ele>2393</ele>
        <time>2024-08-11T11:42:46Z</time>
      </trkpt>
      <trkpt lat="44.92925" lon="6.50828">
        <ele>2393</ele>
        <time>2024-08-11T11:42:47Z</time>
      </trkpt>
      <trkpt lat="44.92925" lon="6.50828">
        <ele>2393</ele>
        <time>2024-08-11T11:42:48Z</time>
      </trkpt>
      <trkpt lat="44.92925" lon="6.50828">
        <ele>2392.8</ele>
        <time>2024-08-11T11:42:49Z</time>
      </trkpt>
      <trkpt lat="44.92925" lon="6.50828">
        <ele>2392.8</ele>
        <time>2024-08-11T11:42:50Z</time>
      </trkpt>
      <trkpt lat="44.92925" lon="6.50828">
        <ele>2392.8</ele>
        <time>2024-08-11T11:42:51Z</time>
      </trkpt>
      <trkpt lat="44.92925" lon="6.50828">
        <ele>2392.8</ele>
        <time>2024-08-11T11:42:52Z</time>
      </trkpt>
      <trkpt lat="44.92925" lon="6.50828">
        <ele>2392.8</ele>
        <time>2024-08-11T11:42:53Z</time>
      </trkpt>
      <trkpt lat="44.92925" lon="6.50828">
        <ele>2392.8</ele>
        <time>2024-08-11T11:42:54Z</time>
      </trkpt>
      <trkpt lat="44.92925" lon="6.50828">
        <ele>2392.8</ele>
        <time>2024-08-11T11:42:55Z</time>
      </trkpt>
      <trkpt lat="44.92925" lon="6.50828">
        <ele>2392.8</ele>
        <time>2024-08-11T11:42:56Z</time>
      </trkpt>
      <trkpt lat="44.92925" lon="6.50828">
        <ele>2392.6</ele>
        <time>2024-08-11T11:42:57Z</time>
      </trkpt>
      <trkpt lat="44.92925" lon="6.50828">
        <ele>2392.6</ele>
        <time>2024-08-11T11:42:58Z</time>
      </trkpt>
      <trkpt lat="44.92925" lon="6.50828">
        <ele>2393</ele>
        <time>2024-08-11T11:42:59Z</time>
      </trkpt>
      <trkpt lat="44.92925" lon="6.50828">
        <ele>2393</ele>
        <time>2024-08-11T11:43:00Z</time>
      </trkpt>
      <trkpt lat="44.92925" lon="6.50828">
        <ele>2392.8</ele>
        <time>2024-08-11T11:43:01Z</time>
      </trkpt>
      <trkpt lat="44.92925" lon="6.50828">
        <ele>2392.2</ele>
        <time>2024-08-11T11:43:02Z</time>
      </trkpt>
      <trkpt lat="44.92925" lon="6.50828">
        <ele>2392.2</ele>
        <time>2024-08-11T11:43:03Z</time>
      </trkpt>
      <trkpt lat="44.92925" lon="6.50828">
        <ele>2392.2</ele>
        <time>2024-08-11T11:43:04Z</time>
      </trkpt>
      <trkpt lat="44.92925" lon="6.50828">
        <ele>2392.4</ele>
        <time>2024-08-11T11:43:05Z</time>
      </trkpt>
      <trkpt lat="44.92925" lon="6.50828">
        <ele>2392.4</ele>
        <time>2024-08-11T11:43:06Z</time>
      </trkpt>
      <trkpt lat="44.92925" lon="6.50828">
        <ele>2392.4</ele>
        <time>2024-08-11T11:43:07Z</time>
      </trkpt>
      <trkpt lat="44.92925" lon="6.50828">
        <ele>2392.4</ele>
        <time>2024-08-11T11:43:08Z</time>
      </trkpt>
      <trkpt lat="44.92925" lon="6.50828">
        <ele>2392.2</ele>
        <time>2024-08-11T11:43:09Z</time>
      </trkpt>
      <trkpt lat="44.92925" lon="6.50828">
        <ele>2392.2</ele>
        <time>2024-08-11T11:43:10Z</time>
      </trkpt>
      <trkpt lat="44.92925" lon="6.50828">
        <ele>2392.2</ele>
        <time>2024-08-11T11:43:11Z</time>
      </trkpt>
      <trkpt lat="44.92925" lon="6.50828">
        <ele>2392.2</ele>
        <time>2024-08-11T11:43:12Z</time>
      </trkpt>
      <trkpt lat="44.92925" lon="6.50828">
        <ele>2392.2</ele>
        <time>2024-08-11T11:43:13Z</time>
      </trkpt>
      <trkpt lat="44.92925" lon="6.50828">
        <ele>2392.2</ele>
        <time>2024-08-11T11:43:14Z</time>
      </trkpt>
      <trkpt lat="44.92925" lon="6.50828">
        <ele>2392.2</ele>
        <time>2024-08-11T11:43:15Z</time>
      </trkpt>
      <trkpt lat="44.92925" lon="6.50828">
        <ele>2392.2</ele>
        <time>2024-08-11T11:43:16Z</time>
      </trkpt>
      <trkpt lat="44.92925" lon="6.50828">
        <ele>2392</ele>
        <time>2024-08-11T11:43:17Z</time>
      </trkpt>
      <trkpt lat="44.92925" lon="6.50828">
        <ele>2391.6</ele>
        <time>2024-08-11T11:43:18Z</time>
      </trkpt>
      <trkpt lat="44.92925" lon="6.50828">
        <ele>2391.6</ele>
        <time>2024-08-11T11:43:19Z</time>
      </trkpt>
      <trkpt lat="44.92925" lon="6.50828">
        <ele>2391.6</ele>
        <time>2024-08-11T11:43:20Z</time>
      </trkpt>
      <trkpt lat="44.92925" lon="6.50828">
        <ele>2391.4</ele>
        <time>2024-08-11T11:43:21Z</time>
      </trkpt>
      <trkpt lat="44.92925" lon="6.50828">
        <ele>2391.4</ele>
        <time>2024-08-11T11:43:22Z</time>
      </trkpt>
      <trkpt lat="44.92925" lon="6.50828">
        <ele>2391.4</ele>
        <time>2024-08-11T11:43:23Z</time>
      </trkpt>
      <trkpt lat="44.92925" lon="6.50828">
        <ele>2391.4</ele>
        <time>2024-08-11T11:43:24Z</time>
      </trkpt>
      <trkpt lat="44.92925" lon="6.50828">
        <ele>2391.4</ele>
        <time>2024-08-11T11:43:25Z</time>
      </trkpt>
      <trkpt lat="44.92925" lon="6.50828">
        <ele>2391.4</ele>
        <time>2024-08-11T11:43:26Z</time>
      </trkpt>
      <trkpt lat="44.92925" lon="6.50828">
        <ele>2391.4</ele>
        <time>2024-08-11T11:43:27Z</time>
      </trkpt>
      <trkpt lat="44.92925" lon="6.50828">
        <ele>2391.6</ele>
        <time>2024-08-11T11:43:28Z</time>
      </trkpt>
      <trkpt lat="44.92925" lon="6.50828">
        <ele>2391.6</ele>
        <time>2024-08-11T11:43:29Z</time>
      </trkpt>
      <trkpt lat="44.92925" lon="6.50828">
        <ele>2391.6</ele>
        <time>2024-08-11T11:43:30Z</time>
      </trkpt>
      <trkpt lat="44.92925" lon="6.50828">
        <ele>2391.6</ele>
        <time>2024-08-11T11:43:31Z</time>
      </trkpt>
      <trkpt lat="44.92925" lon="6.50828">
        <ele>2391.6</ele>
        <time>2024-08-11T11:43:32Z</time>
      </trkpt>
      <trkpt lat="44.92925" lon="6.50828">
        <ele>2391.6</ele>
        <time>2024-08-11T11:43:33Z</time>
      </trkpt>
      <trkpt lat="44.92925" lon="6.50828">
        <ele>2391.6</ele>
        <time>2024-08-11T11:43:34Z</time>
      </trkpt>
      <trkpt lat="44.92925" lon="6.50828">
        <ele>2391.4</ele>
        <time>2024-08-11T11:43:35Z</time>
      </trkpt>
      <trkpt lat="44.92925" lon="6.50828">
        <ele>2391.4</ele>
        <time>2024-08-11T11:43:36Z</time>
      </trkpt>
      <trkpt lat="44.92925" lon="6.50828">
        <ele>2391.4</ele>
        <time>2024-08-11T11:43:37Z</time>
      </trkpt>
      <trkpt lat="44.92925" lon="6.50828">
        <ele>2391.4</ele>
        <time>2024-08-11T11:43:38Z</time>
      </trkpt>
      <trkpt lat="44.92925" lon="6.50828">
        <ele>2391.2</ele>
        <time>2024-08-11T11:43:39Z</time>
      </trkpt>
      <trkpt lat="44.92925" lon="6.50828">
        <ele>2391</ele>
        <time>2024-08-11T11:43:40Z</time>
      </trkpt>
      <trkpt lat="44.92925" lon="6.50828">
        <ele>2391</ele>
        <time>2024-08-11T11:43:41Z</time>
      </trkpt>
      <trkpt lat="44.92925" lon="6.50828">
        <ele>2391</ele>
        <time>2024-08-11T11:43:42Z</time>
      </trkpt>
      <trkpt lat="44.92925" lon="6.50828">
        <ele>2390.6</ele>
        <time>2024-08-11T11:43:43Z</time>
      </trkpt>
      <trkpt lat="44.92925" lon="6.50828">
        <ele>2390.6</ele>
        <time>2024-08-11T11:43:44Z</time>
      </trkpt>
      <trkpt lat="44.92925" lon="6.50828">
        <ele>2390.6</ele>
        <time>2024-08-11T11:43:45Z</time>
      </trkpt>
      <trkpt lat="44.92925" lon="6.50828">
        <ele>2391</ele>
        <time>2024-08-11T11:43:46Z</time>
      </trkpt>
      <trkpt lat="44.92925" lon="6.50828">
        <ele>2391.4</ele>
        <time>2024-08-11T11:43:47Z</time>
      </trkpt>
      <trkpt lat="44.92925" lon="6.50828">
        <ele>2391.4</ele>
        <time>2024-08-11T11:43:48Z</time>
      </trkpt>
      <trkpt lat="44.92925" lon="6.50828">
        <ele>2391.2</ele>
        <time>2024-08-11T11:43:49Z</time>
      </trkpt>
      <trkpt lat="44.92925" lon="6.50828">
        <ele>2391</ele>
        <time>2024-08-11T11:43:50Z</time>
      </trkpt>
      <trkpt lat="44.92925" lon="6.50828">
        <ele>2390.8</ele>
        <time>2024-08-11T11:43:51Z</time>
      </trkpt>
      <trkpt lat="44.92925" lon="6.50828">
        <ele>2390.6</ele>
        <time>2024-08-11T11:43:52Z</time>
      </trkpt>
      <trkpt lat="44.92925" lon="6.50828">
        <ele>2390.2</ele>
        <time>2024-08-11T11:43:53Z</time>
      </trkpt>
      <trkpt lat="44.92925" lon="6.50828">
        <ele>2390.2</ele>
        <time>2024-08-11T11:43:54Z</time>
      </trkpt>
      <trkpt lat="44.92925" lon="6.50828">
        <ele>2390.4</ele>
        <time>2024-08-11T11:43:55Z</time>
      </trkpt>
      <trkpt lat="44.92925" lon="6.50828">
        <ele>2390.6</ele>
        <time>2024-08-11T11:43:56Z</time>
      </trkpt>
      <trkpt lat="44.92925" lon="6.50828">
        <ele>2390.6</ele>
        <time>2024-08-11T11:43:57Z</time>
      </trkpt>
      <trkpt lat="44.92925" lon="6.50828">
        <ele>2390.6</ele>
        <time>2024-08-11T11:43:58Z</time>
      </trkpt>
      <trkpt lat="44.92925" lon="6.50828">
        <ele>2390.6</ele>
        <time>2024-08-11T11:43:59Z</time>
      </trkpt>
      <trkpt lat="44.92925" lon="6.50828">
        <ele>2390.8</ele>
        <time>2024-08-11T11:44:00Z</time>
      </trkpt>
      <trkpt lat="44.92923" lon="6.50827">
        <ele>2390.8</ele>
        <time>2024-08-11T11:44:01Z</time>
      </trkpt>
      <trkpt lat="44.92923" lon="6.50827">
        <ele>2391</ele>
        <time>2024-08-11T11:44:02Z</time>
      </trkpt>
      <trkpt lat="44.92921" lon="6.50827">
        <ele>2391</ele>
        <time>2024-08-11T11:44:03Z</time>
      </trkpt>
      <trkpt lat="44.92921" lon="6.50827">
        <ele>2390.8</ele>
        <time>2024-08-11T11:44:04Z</time>
      </trkpt>
      <trkpt lat="44.92917" lon="6.50828">
        <ele>2390.8</ele>
        <time>2024-08-11T11:44:05Z</time>
      </trkpt>
      <trkpt lat="44.92917" lon="6.50828">
        <ele>2390.8</ele>
        <time>2024-08-11T11:44:06Z</time>
      </trkpt>
      <trkpt lat="44.92914" lon="6.50827">
        <ele>2390.8</ele>
        <time>2024-08-11T11:44:07Z</time>
      </trkpt>
      <trkpt lat="44.92914" lon="6.50827">
        <ele>2391</ele>
        <time>2024-08-11T11:44:08Z</time>
      </trkpt>
      <trkpt lat="44.92912" lon="6.50826">
        <ele>2391</ele>
        <time>2024-08-11T11:44:09Z</time>
      </trkpt>
      <trkpt lat="44.92912" lon="6.50826">
        <ele>2391.2</ele>
        <time>2024-08-11T11:44:10Z</time>
      </trkpt>
      <trkpt lat="44.92909" lon="6.50826">
        <ele>2391</ele>
        <time>2024-08-11T11:44:11Z</time>
      </trkpt>
      <trkpt lat="44.92909" lon="6.50826">
        <ele>2391</ele>
        <time>2024-08-11T11:44:12Z</time>
      </trkpt>
      <trkpt lat="44.92906" lon="6.50826">
        <ele>2390.8</ele>
        <time>2024-08-11T11:44:13Z</time>
      </trkpt>
      <trkpt lat="44.92906" lon="6.50826">
        <ele>2390.8</ele>
        <time>2024-08-11T11:44:14Z</time>
      </trkpt>
      <trkpt lat="44.92903" lon="6.50826">
        <ele>2390.8</ele>
        <time>2024-08-11T11:44:15Z</time>
      </trkpt>
      <trkpt lat="44.92903" lon="6.50826">
        <ele>2391.2</ele>
        <time>2024-08-11T11:44:16Z</time>
      </trkpt>
      <trkpt lat="44.92901" lon="6.50826">
        <ele>2391.2</ele>
        <time>2024-08-11T11:44:17Z</time>
      </trkpt>
      <trkpt lat="44.92901" lon="6.50826">
        <ele>2391.2</ele>
        <time>2024-08-11T11:44:18Z</time>
      </trkpt>
      <trkpt lat="44.92899" lon="6.50826">
        <ele>2391.2</ele>
        <time>2024-08-11T11:44:19Z</time>
      </trkpt>
      <trkpt lat="44.92899" lon="6.50826">
        <ele>2391</ele>
        <time>2024-08-11T11:44:20Z</time>
      </trkpt>
      <trkpt lat="44.92897" lon="6.50826">
        <ele>2391</ele>
        <time>2024-08-11T11:44:21Z</time>
      </trkpt>
      <trkpt lat="44.92897" lon="6.50826">
        <ele>2390.8</ele>
        <time>2024-08-11T11:44:22Z</time>
      </trkpt>
      <trkpt lat="44.92894" lon="6.50826">
        <ele>2390.8</ele>
        <time>2024-08-11T11:44:23Z</time>
      </trkpt>
      <trkpt lat="44.92894" lon="6.50826">
        <ele>2390.6</ele>
        <time>2024-08-11T11:44:24Z</time>
      </trkpt>
      <trkpt lat="44.92892" lon="6.50826">
        <ele>2390.6</ele>
        <time>2024-08-11T11:44:25Z</time>
      </trkpt>
      <trkpt lat="44.92892" lon="6.50826">
        <ele>2390.6</ele>
        <time>2024-08-11T11:44:26Z</time>
      </trkpt>
      <trkpt lat="44.92889" lon="6.50826">
        <ele>2390.6</ele>
        <time>2024-08-11T11:44:27Z</time>
      </trkpt>
      <trkpt lat="44.92889" lon="6.50826">
        <ele>2390.6</ele>
        <time>2024-08-11T11:44:28Z</time>
      </trkpt>
      <trkpt lat="44.92886" lon="6.50826">
        <ele>2390.6</ele>
        <time>2024-08-11T11:44:29Z</time>
      </trkpt>
      <trkpt lat="44.92886" lon="6.50826">
        <ele>2390.6</ele>
        <time>2024-08-11T11:44:30Z</time>
      </trkpt>
      <trkpt lat="44.92883" lon="6.50826">
        <ele>2390.6</ele>
        <time>2024-08-11T11:44:31Z</time>
      </trkpt>
      <trkpt lat="44.92883" lon="6.50826">
        <ele>2390.6</ele>
        <time>2024-08-11T11:44:32Z</time>
      </trkpt>
      <trkpt lat="44.92881" lon="6.50825">
        <ele>2390.6</ele>
        <time>2024-08-11T11:44:33Z</time>
      </trkpt>
      <trkpt lat="44.92881" lon="6.50825">
        <ele>2390.6</ele>
        <time>2024-08-11T11:44:34Z</time>
      </trkpt>
      <trkpt lat="44.92878" lon="6.50825">
        <ele>2390.8</ele>
        <time>2024-08-11T11:44:35Z</time>
      </trkpt>
      <trkpt lat="44.92878" lon="6.50825">
        <ele>2390.8</ele>
        <time>2024-08-11T11:44:36Z</time>
      </trkpt>
      <trkpt lat="44.92875" lon="6.50825">
        <ele>2390.8</ele>
        <time>2024-08-11T11:44:37Z</time>
      </trkpt>
      <trkpt lat="44.92875" lon="6.50825">
        <ele>2390.6</ele>
        <time>2024-08-11T11:44:38Z</time>
      </trkpt>
      <trkpt lat="44.92873" lon="6.50825">
        <ele>2390.6</ele>
        <time>2024-08-11T11:44:39Z</time>
      </trkpt>
      <trkpt lat="44.92873" lon="6.50825">
        <ele>2390.6</ele>
        <time>2024-08-11T11:44:40Z</time>
      </trkpt>
      <trkpt lat="44.9287" lon="6.50824">
        <ele>2390.6</ele>
        <time>2024-08-11T11:44:41Z</time>
      </trkpt>
      <trkpt lat="44.9287" lon="6.50824">
        <ele>2390.4</ele>
        <time>2024-08-11T11:44:42Z</time>
      </trkpt>
      <trkpt lat="44.92869" lon="6.50824">
        <ele>2390.4</ele>
        <time>2024-08-11T11:44:43Z</time>
      </trkpt>
      <trkpt lat="44.92869" lon="6.50824">
        <ele>2390.4</ele>
        <time>2024-08-11T11:44:44Z</time>
      </trkpt>
      <trkpt lat="44.92865" lon="6.50824">
        <ele>2390.2</ele>
        <time>2024-08-11T11:44:45Z</time>
      </trkpt>
      <trkpt lat="44.92865" lon="6.50824">
        <ele>2390</ele>
        <time>2024-08-11T11:44:46Z</time>
      </trkpt>
      <trkpt lat="44.92862" lon="6.50824">
        <ele>2390</ele>
        <time>2024-08-11T11:44:47Z</time>
      </trkpt>
      <trkpt lat="44.92862" lon="6.50824">
        <ele>2390</ele>
        <time>2024-08-11T11:44:48Z</time>
      </trkpt>
      <trkpt lat="44.92859" lon="6.50824">
        <ele>2390</ele>
        <time>2024-08-11T11:44:49Z</time>
      </trkpt>
      <trkpt lat="44.92859" lon="6.50824">
        <ele>2389.8</ele>
        <time>2024-08-11T11:44:50Z</time>
      </trkpt>
      <trkpt lat="44.92856" lon="6.50824">
        <ele>2389.8</ele>
        <time>2024-08-11T11:44:51Z</time>
      </trkpt>
      <trkpt lat="44.92856" lon="6.50824">
        <ele>2389.6</ele>
        <time>2024-08-11T11:44:52Z</time>
      </trkpt>
      <trkpt lat="44.92853" lon="6.50823">
        <ele>2389.6</ele>
        <time>2024-08-11T11:44:53Z</time>
      </trkpt>
      <trkpt lat="44.92853" lon="6.50823">
        <ele>2389.8</ele>
        <time>2024-08-11T11:44:54Z</time>
      </trkpt>
      <trkpt lat="44.92851" lon="6.50823">
        <ele>2389.8</ele>
        <time>2024-08-11T11:44:55Z</time>
      </trkpt>
      <trkpt lat="44.92851" lon="6.50823">
        <ele>2389.8</ele>
        <time>2024-08-11T11:44:56Z</time>
      </trkpt>
      <trkpt lat="44.92848" lon="6.50823">
        <ele>2389.6</ele>
        <time>2024-08-11T11:44:57Z</time>
      </trkpt>
      <trkpt lat="44.92848" lon="6.50823">
        <ele>2389.6</ele>
        <time>2024-08-11T11:44:58Z</time>
      </trkpt>
      <trkpt lat="44.92846" lon="6.50823">
        <ele>2389.8</ele>
        <time>2024-08-11T11:44:59Z</time>
      </trkpt>
      <trkpt lat="44.92846" lon="6.50823">
        <ele>2389.8</ele>
        <time>2024-08-11T11:45:00Z</time>
      </trkpt>
      <trkpt lat="44.92843" lon="6.50822">
        <ele>2389.8</ele>
        <time>2024-08-11T11:45:01Z</time>
      </trkpt>
      <trkpt lat="44.92841" lon="6.50823">
        <ele>2389.8</ele>
        <time>2024-08-11T11:45:02Z</time>
      </trkpt>
      <trkpt lat="44.92841" lon="6.50823">
        <ele>2389.8</ele>
        <time>2024-08-11T11:45:03Z</time>
      </trkpt>
      <trkpt lat="44.92838" lon="6.50823">
        <ele>2390</ele>
        <time>2024-08-11T11:45:04Z</time>
      </trkpt>
      <trkpt lat="44.92838" lon="6.50823">
        <ele>2390</ele>
        <time>2024-08-11T11:45:05Z</time>
      </trkpt>
      <trkpt lat="44.92836" lon="6.50823">
        <ele>2390</ele>
        <time>2024-08-11T11:45:06Z</time>
      </trkpt>
      <trkpt lat="44.92834" lon="6.50823">
        <ele>2389.8</ele>
        <time>2024-08-11T11:45:07Z</time>
      </trkpt>
      <trkpt lat="44.92834" lon="6.50823">
        <ele>2389.4</ele>
        <time>2024-08-11T11:45:08Z</time>
      </trkpt>
      <trkpt lat="44.92831" lon="6.50822">
        <ele>2389.4</ele>
        <time>2024-08-11T11:45:09Z</time>
      </trkpt>
      <trkpt lat="44.92831" lon="6.50822">
        <ele>2389.4</ele>
        <time>2024-08-11T11:45:10Z</time>
      </trkpt>
      <trkpt lat="44.92829" lon="6.50823">
        <ele>2389.6</ele>
        <time>2024-08-11T11:45:11Z</time>
      </trkpt>
      <trkpt lat="44.92829" lon="6.50823">
        <ele>2389.6</ele>
        <time>2024-08-11T11:45:12Z</time>
      </trkpt>
      <trkpt lat="44.92826" lon="6.50823">
        <ele>2389.6</ele>
        <time>2024-08-11T11:45:13Z</time>
      </trkpt>
      <trkpt lat="44.92826" lon="6.50823">
        <ele>2389.6</ele>
        <time>2024-08-11T11:45:14Z</time>
      </trkpt>
      <trkpt lat="44.92824" lon="6.50822">
        <ele>2389.6</ele>
        <time>2024-08-11T11:45:15Z</time>
      </trkpt>
      <trkpt lat="44.92824" lon="6.50822">
        <ele>2389.4</ele>
        <time>2024-08-11T11:45:16Z</time>
      </trkpt>
      <trkpt lat="44.92821" lon="6.50821">
        <ele>2389.4</ele>
        <time>2024-08-11T11:45:17Z</time>
      </trkpt>
      <trkpt lat="44.92821" lon="6.50821">
        <ele>2389.6</ele>
        <time>2024-08-11T11:45:18Z</time>
      </trkpt>
      <trkpt lat="44.92819" lon="6.50821">
        <ele>2389.6</ele>
        <time>2024-08-11T11:45:19Z</time>
      </trkpt>
      <trkpt lat="44.92819" lon="6.50821">
        <ele>2389.2</ele>
        <time>2024-08-11T11:45:20Z</time>
      </trkpt>
      <trkpt lat="44.92817" lon="6.50821">
        <ele>2389.2</ele>
        <time>2024-08-11T11:45:21Z</time>
      </trkpt>
      <trkpt lat="44.92817" lon="6.50821">
        <ele>2389.2</ele>
        <time>2024-08-11T11:45:22Z</time>
      </trkpt>
      <trkpt lat="44.92814" lon="6.5082">
        <ele>2389.2</ele>
        <time>2024-08-11T11:45:23Z</time>
      </trkpt>
      <trkpt lat="44.92814" lon="6.5082">
        <ele>2389</ele>
        <time>2024-08-11T11:45:24Z</time>
      </trkpt>
      <trkpt lat="44.92811" lon="6.50821">
        <ele>2389.2</ele>
        <time>2024-08-11T11:45:25Z</time>
      </trkpt>
      <trkpt lat="44.92811" lon="6.50821">
        <ele>2389</ele>
        <time>2024-08-11T11:45:26Z</time>
      </trkpt>
      <trkpt lat="44.92808" lon="6.50822">
        <ele>2389.2</ele>
        <time>2024-08-11T11:45:27Z</time>
      </trkpt>
      <trkpt lat="44.92808" lon="6.50822">
        <ele>2389.2</ele>
        <time>2024-08-11T11:45:28Z</time>
      </trkpt>
      <trkpt lat="44.92805" lon="6.50821">
        <ele>2389.2</ele>
        <time>2024-08-11T11:45:29Z</time>
      </trkpt>
      <trkpt lat="44.92805" lon="6.50821">
        <ele>2389.2</ele>
        <time>2024-08-11T11:45:30Z</time>
      </trkpt>
      <trkpt lat="44.92802" lon="6.50821">
        <ele>2389.2</ele>
        <time>2024-08-11T11:45:31Z</time>
      </trkpt>
      <trkpt lat="44.92802" lon="6.50821">
        <ele>2389.2</ele>
        <time>2024-08-11T11:45:32Z</time>
      </trkpt>
      <trkpt lat="44.92799" lon="6.5082">
        <ele>2389.2</ele>
        <time>2024-08-11T11:45:33Z</time>
      </trkpt>
      <trkpt lat="44.92799" lon="6.5082">
        <ele>2389.2</ele>
        <time>2024-08-11T11:45:34Z</time>
      </trkpt>
      <trkpt lat="44.92797" lon="6.5082">
        <ele>2389.2</ele>
        <time>2024-08-11T11:45:35Z</time>
      </trkpt>
      <trkpt lat="44.92797" lon="6.5082">
        <ele>2389.2</ele>
        <time>2024-08-11T11:45:36Z</time>
      </trkpt>
      <trkpt lat="44.92793" lon="6.50819">
        <ele>2389.2</ele>
        <time>2024-08-11T11:45:37Z</time>
      </trkpt>
      <trkpt lat="44.92793" lon="6.50819">
        <ele>2389</ele>
        <time>2024-08-11T11:45:38Z</time>
      </trkpt>
      <trkpt lat="44.9279" lon="6.50818">
        <ele>2389</ele>
        <time>2024-08-11T11:45:39Z</time>
      </trkpt>
      <trkpt lat="44.9279" lon="6.50818">
        <ele>2389</ele>
        <time>2024-08-11T11:45:40Z</time>
      </trkpt>
      <trkpt lat="44.92788" lon="6.50818">
        <ele>2389</ele>
        <time>2024-08-11T11:45:41Z</time>
      </trkpt>
      <trkpt lat="44.92788" lon="6.50818">
        <ele>2388.8</ele>
        <time>2024-08-11T11:45:42Z</time>
      </trkpt>
      <trkpt lat="44.92785" lon="6.50819">
        <ele>2388.6</ele>
        <time>2024-08-11T11:45:43Z</time>
      </trkpt>
      <trkpt lat="44.92785" lon="6.50819">
        <ele>2388.6</ele>
        <time>2024-08-11T11:45:44Z</time>
      </trkpt>
      <trkpt lat="44.92782" lon="6.50819">
        <ele>2388.2</ele>
        <time>2024-08-11T11:45:45Z</time>
      </trkpt>
      <trkpt lat="44.92782" lon="6.50819">
        <ele>2388.2</ele>
        <time>2024-08-11T11:45:46Z</time>
      </trkpt>
      <trkpt lat="44.9278" lon="6.5082">
        <ele>2388.2</ele>
        <time>2024-08-11T11:45:47Z</time>
      </trkpt>
      <trkpt lat="44.9278" lon="6.5082">
        <ele>2388.2</ele>
        <time>2024-08-11T11:45:48Z</time>
      </trkpt>
      <trkpt lat="44.92778" lon="6.50822">
        <ele>2388.2</ele>
        <time>2024-08-11T11:45:49Z</time>
      </trkpt>
      <trkpt lat="44.92778" lon="6.50822">
        <ele>2388</ele>
        <time>2024-08-11T11:45:50Z</time>
      </trkpt>
      <trkpt lat="44.92776" lon="6.50824">
        <ele>2388.2</ele>
        <time>2024-08-11T11:45:51Z</time>
      </trkpt>
      <trkpt lat="44.92776" lon="6.50824">
        <ele>2388.2</ele>
        <time>2024-08-11T11:45:52Z</time>
      </trkpt>
      <trkpt lat="44.92773" lon="6.50826">
        <ele>2388.4</ele>
        <time>2024-08-11T11:45:53Z</time>
      </trkpt>
      <trkpt lat="44.92773" lon="6.50826">
        <ele>2388.4</ele>
        <time>2024-08-11T11:45:54Z</time>
      </trkpt>
      <trkpt lat="44.92771" lon="6.50826">
        <ele>2388.4</ele>
        <time>2024-08-11T11:45:55Z</time>
      </trkpt>
      <trkpt lat="44.92771" lon="6.50826">
        <ele>2388.2</ele>
        <time>2024-08-11T11:45:56Z</time>
      </trkpt>
      <trkpt lat="44.92768" lon="6.50825">
        <ele>2388.2</ele>
        <time>2024-08-11T11:45:57Z</time>
      </trkpt>
      <trkpt lat="44.92768" lon="6.50825">
        <ele>2388.2</ele>
        <time>2024-08-11T11:45:58Z</time>
      </trkpt>
      <trkpt lat="44.92766" lon="6.50825">
        <ele>2388.2</ele>
        <time>2024-08-11T11:45:59Z</time>
      </trkpt>
      <trkpt lat="44.92766" lon="6.50825">
        <ele>2388.2</ele>
        <time>2024-08-11T11:46:00Z</time>
      </trkpt>
      <trkpt lat="44.92763" lon="6.50825">
        <ele>2388.2</ele>
        <time>2024-08-11T11:46:01Z</time>
      </trkpt>
      <trkpt lat="44.92763" lon="6.50825">
        <ele>2387.8</ele>
        <time>2024-08-11T11:46:02Z</time>
      </trkpt>
      <trkpt lat="44.9276" lon="6.50824">
        <ele>2387.8</ele>
        <time>2024-08-11T11:46:03Z</time>
      </trkpt>
      <trkpt lat="44.9276" lon="6.50824">
        <ele>2387.8</ele>
        <time>2024-08-11T11:46:04Z</time>
      </trkpt>
      <trkpt lat="44.92757" lon="6.50824">
        <ele>2387.8</ele>
        <time>2024-08-11T11:46:05Z</time>
      </trkpt>
      <trkpt lat="44.92757" lon="6.50824">
        <ele>2387.6</ele>
        <time>2024-08-11T11:46:06Z</time>
      </trkpt>
      <trkpt lat="44.92754" lon="6.50824">
        <ele>2387.6</ele>
        <time>2024-08-11T11:46:07Z</time>
      </trkpt>
      <trkpt lat="44.92754" lon="6.50824">
        <ele>2387.2</ele>
        <time>2024-08-11T11:46:08Z</time>
      </trkpt>
      <trkpt lat="44.92751" lon="6.50823">
        <ele>2387</ele>
        <time>2024-08-11T11:46:09Z</time>
      </trkpt>
      <trkpt lat="44.92751" lon="6.50823">
        <ele>2387</ele>
        <time>2024-08-11T11:46:10Z</time>
      </trkpt>
      <trkpt lat="44.92749" lon="6.50822">
        <ele>2387</ele>
        <time>2024-08-11T11:46:11Z</time>
      </trkpt>
      <trkpt lat="44.92749" lon="6.50822">
        <ele>2386.6</ele>
        <time>2024-08-11T11:46:12Z</time>
      </trkpt>
      <trkpt lat="44.92746" lon="6.50821">
        <ele>2386.6</ele>
        <time>2024-08-11T11:46:13Z</time>
      </trkpt>
      <trkpt lat="44.92746" lon="6.50821">
        <ele>2386.6</ele>
        <time>2024-08-11T11:46:14Z</time>
      </trkpt>
      <trkpt lat="44.92743" lon="6.5082">
        <ele>2386.6</ele>
        <time>2024-08-11T11:46:15Z</time>
      </trkpt>
      <trkpt lat="44.92743" lon="6.5082">
        <ele>2386.2</ele>
        <time>2024-08-11T11:46:16Z</time>
      </trkpt>
      <trkpt lat="44.92741" lon="6.5082">
        <ele>2386.2</ele>
        <time>2024-08-11T11:46:17Z</time>
      </trkpt>
      <trkpt lat="44.92741" lon="6.5082">
        <ele>2386.2</ele>
        <time>2024-08-11T11:46:18Z</time>
      </trkpt>
      <trkpt lat="44.92739" lon="6.50819">
        <ele>2386.2</ele>
        <time>2024-08-11T11:46:19Z</time>
      </trkpt>
      <trkpt lat="44.92739" lon="6.50819">
        <ele>2386.2</ele>
        <time>2024-08-11T11:46:20Z</time>
      </trkpt>
      <trkpt lat="44.92736" lon="6.50819">
        <ele>2386.2</ele>
        <time>2024-08-11T11:46:21Z</time>
      </trkpt>
      <trkpt lat="44.92736" lon="6.50819">
        <ele>2386.2</ele>
        <time>2024-08-11T11:46:22Z</time>
      </trkpt>
      <trkpt lat="44.92734" lon="6.50818">
        <ele>2386</ele>
        <time>2024-08-11T11:46:23Z</time>
      </trkpt>
      <trkpt lat="44.92734" lon="6.50818">
        <ele>2385.6</ele>
        <time>2024-08-11T11:46:24Z</time>
      </trkpt>
      <trkpt lat="44.92731" lon="6.50818">
        <ele>2385.4</ele>
        <time>2024-08-11T11:46:25Z</time>
      </trkpt>
      <trkpt lat="44.92731" lon="6.50818">
        <ele>2385.4</ele>
        <time>2024-08-11T11:46:26Z</time>
      </trkpt>
      <trkpt lat="44.92728" lon="6.50818">
        <ele>2385.6</ele>
        <time>2024-08-11T11:46:27Z</time>
      </trkpt>
      <trkpt lat="44.92728" lon="6.50818">
        <ele>2385.6</ele>
        <time>2024-08-11T11:46:28Z</time>
      </trkpt>
      <trkpt lat="44.92725" lon="6.50817">
        <ele>2385.6</ele>
        <time>2024-08-11T11:46:29Z</time>
      </trkpt>
      <trkpt lat="44.92725" lon="6.50817">
        <ele>2385.4</ele>
        <time>2024-08-11T11:46:30Z</time>
      </trkpt>
      <trkpt lat="44.92723" lon="6.50816">
        <ele>2385.4</ele>
        <time>2024-08-11T11:46:31Z</time>
      </trkpt>
      <trkpt lat="44.92723" lon="6.50816">
        <ele>2385.4</ele>
        <time>2024-08-11T11:46:32Z</time>
      </trkpt>
      <trkpt lat="44.9272" lon="6.50815">
        <ele>2385.4</ele>
        <time>2024-08-11T11:46:33Z</time>
      </trkpt>
      <trkpt lat="44.92718" lon="6.50815">
        <ele>2385.4</ele>
        <time>2024-08-11T11:46:34Z</time>
      </trkpt>
      <trkpt lat="44.92718" lon="6.50815">
        <ele>2385.2</ele>
        <time>2024-08-11T11:46:35Z</time>
      </trkpt>
      <trkpt lat="44.92715" lon="6.50814">
        <ele>2385.2</ele>
        <time>2024-08-11T11:46:36Z</time>
      </trkpt>
      <trkpt lat="44.92715" lon="6.50814">
        <ele>2385.2</ele>
        <time>2024-08-11T11:46:37Z</time>
      </trkpt>
      <trkpt lat="44.92712" lon="6.50814">
        <ele>2385.2</ele>
        <time>2024-08-11T11:46:38Z</time>
      </trkpt>
      <trkpt lat="44.92712" lon="6.50814">
        <ele>2385</ele>
        <time>2024-08-11T11:46:39Z</time>
      </trkpt>
      <trkpt lat="44.92709" lon="6.50812">
        <ele>2385</ele>
        <time>2024-08-11T11:46:40Z</time>
      </trkpt>
      <trkpt lat="44.92709" lon="6.50812">
        <ele>2385</ele>
        <time>2024-08-11T11:46:41Z</time>
      </trkpt>
      <trkpt lat="44.92706" lon="6.50811">
        <ele>2385</ele>
        <time>2024-08-11T11:46:42Z</time>
      </trkpt>
      <trkpt lat="44.92706" lon="6.50811">
        <ele>2385</ele>
        <time>2024-08-11T11:46:43Z</time>
      </trkpt>
      <trkpt lat="44.92704" lon="6.5081">
        <ele>2384.8</ele>
        <time>2024-08-11T11:46:44Z</time>
      </trkpt>
      <trkpt lat="44.92704" lon="6.5081">
        <ele>2384.8</ele>
        <time>2024-08-11T11:46:45Z</time>
      </trkpt>
      <trkpt lat="44.92701" lon="6.50809">
        <ele>2384.8</ele>
        <time>2024-08-11T11:46:46Z</time>
      </trkpt>
      <trkpt lat="44.92701" lon="6.50809">
        <ele>2384.8</ele>
        <time>2024-08-11T11:46:47Z</time>
      </trkpt>
      <trkpt lat="44.92698" lon="6.50808">
        <ele>2384.8</ele>
        <time>2024-08-11T11:46:48Z</time>
      </trkpt>
      <trkpt lat="44.92698" lon="6.50808">
        <ele>2384.8</ele>
        <time>2024-08-11T11:46:49Z</time>
      </trkpt>
      <trkpt lat="44.92696" lon="6.50806">
        <ele>2384.8</ele>
        <time>2024-08-11T11:46:50Z</time>
      </trkpt>
      <trkpt lat="44.92696" lon="6.50806">
        <ele>2384.4</ele>
        <time>2024-08-11T11:46:51Z</time>
      </trkpt>
      <trkpt lat="44.92693" lon="6.50805">
        <ele>2384.4</ele>
        <time>2024-08-11T11:46:52Z</time>
      </trkpt>
      <trkpt lat="44.92693" lon="6.50805">
        <ele>2384.4</ele>
        <time>2024-08-11T11:46:53Z</time>
      </trkpt>
      <trkpt lat="44.9269" lon="6.50804">
        <ele>2384.4</ele>
        <time>2024-08-11T11:46:54Z</time>
      </trkpt>
      <trkpt lat="44.9269" lon="6.50804">
        <ele>2384.4</ele>
        <time>2024-08-11T11:46:55Z</time>
      </trkpt>
      <trkpt lat="44.92688" lon="6.50804">
        <ele>2384.2</ele>
        <time>2024-08-11T11:46:56Z</time>
      </trkpt>
      <trkpt lat="44.92688" lon="6.50804">
        <ele>2384.2</ele>
        <time>2024-08-11T11:46:57Z</time>
      </trkpt>
      <trkpt lat="44.92685" lon="6.50803">
        <ele>2384.2</ele>
        <time>2024-08-11T11:46:58Z</time>
      </trkpt>
      <trkpt lat="44.92685" lon="6.50803">
        <ele>2384.2</ele>
        <time>2024-08-11T11:46:59Z</time>
      </trkpt>
      <trkpt lat="44.92682" lon="6.50802">
        <ele>2384.2</ele>
        <time>2024-08-11T11:47:00Z</time>
      </trkpt>
      <trkpt lat="44.92682" lon="6.50802">
        <ele>2384.2</ele>
        <time>2024-08-11T11:47:01Z</time>
      </trkpt>
      <trkpt lat="44.92679" lon="6.50802">
        <ele>2384</ele>
        <time>2024-08-11T11:47:02Z</time>
      </trkpt>
      <trkpt lat="44.92679" lon="6.50802">
        <ele>2384</ele>
        <time>2024-08-11T11:47:03Z</time>
      </trkpt>
      <trkpt lat="44.92677" lon="6.50801">
        <ele>2383.8</ele>
        <time>2024-08-11T11:47:04Z</time>
      </trkpt>
      <trkpt lat="44.92677" lon="6.50801">
        <ele>2383.8</ele>
        <time>2024-08-11T11:47:05Z</time>
      </trkpt>
      <trkpt lat="44.92674" lon="6.50801">
        <ele>2383.6</ele>
        <time>2024-08-11T11:47:06Z</time>
      </trkpt>
      <trkpt lat="44.92674" lon="6.50801">
        <ele>2383.4</ele>
        <time>2024-08-11T11:47:07Z</time>
      </trkpt>
      <trkpt lat="44.92672" lon="6.50799">
        <ele>2383.4</ele>
        <time>2024-08-11T11:47:08Z</time>
      </trkpt>
      <trkpt lat="44.92672" lon="6.50799">
        <ele>2383</ele>
        <time>2024-08-11T11:47:09Z</time>
      </trkpt>
      <trkpt lat="44.92669" lon="6.50798">
        <ele>2383</ele>
        <time>2024-08-11T11:47:10Z</time>
      </trkpt>
      <trkpt lat="44.92669" lon="6.50798">
        <ele>2383</ele>
        <time>2024-08-11T11:47:11Z</time>
      </trkpt>
      <trkpt lat="44.92666" lon="6.50797">
        <ele>2382.6</ele>
        <time>2024-08-11T11:47:12Z</time>
      </trkpt>
      <trkpt lat="44.92666" lon="6.50797">
        <ele>2382.6</ele>
        <time>2024-08-11T11:47:13Z</time>
      </trkpt>
      <trkpt lat="44.92663" lon="6.50796">
        <ele>2382.6</ele>
        <time>2024-08-11T11:47:14Z</time>
      </trkpt>
      <trkpt lat="44.92663" lon="6.50796">
        <ele>2382.6</ele>
        <time>2024-08-11T11:47:15Z</time>
      </trkpt>
      <trkpt lat="44.92661" lon="6.50795">
        <ele>2382.4</ele>
        <time>2024-08-11T11:47:16Z</time>
      </trkpt>
      <trkpt lat="44.92661" lon="6.50795">
        <ele>2382.4</ele>
        <time>2024-08-11T11:47:17Z</time>
      </trkpt>
      <trkpt lat="44.92658" lon="6.50794">
        <ele>2382.4</ele>
        <time>2024-08-11T11:47:18Z</time>
      </trkpt>
      <trkpt lat="44.92658" lon="6.50794">
        <ele>2382.4</ele>
        <time>2024-08-11T11:47:19Z</time>
      </trkpt>
      <trkpt lat="44.92655" lon="6.50792">
        <ele>2382.2</ele>
        <time>2024-08-11T11:47:20Z</time>
      </trkpt>
      <trkpt lat="44.92655" lon="6.50792">
        <ele>2382.2</ele>
        <time>2024-08-11T11:47:21Z</time>
      </trkpt>
      <trkpt lat="44.92652" lon="6.50791">
        <ele>2382.2</ele>
        <time>2024-08-11T11:47:22Z</time>
      </trkpt>
      <trkpt lat="44.92652" lon="6.50791">
        <ele>2382</ele>
        <time>2024-08-11T11:47:23Z</time>
      </trkpt>
      <trkpt lat="44.92649" lon="6.5079">
        <ele>2381.6</ele>
        <time>2024-08-11T11:47:24Z</time>
      </trkpt>
      <trkpt lat="44.92649" lon="6.5079">
        <ele>2381.6</ele>
        <time>2024-08-11T11:47:25Z</time>
      </trkpt>
      <trkpt lat="44.92646" lon="6.50789">
        <ele>2381.6</ele>
        <time>2024-08-11T11:47:26Z</time>
      </trkpt>
      <trkpt lat="44.92646" lon="6.50789">
        <ele>2381.6</ele>
        <time>2024-08-11T11:47:27Z</time>
      </trkpt>
      <trkpt lat="44.92643" lon="6.50789">
        <ele>2381.4</ele>
        <time>2024-08-11T11:47:28Z</time>
      </trkpt>
      <trkpt lat="44.92643" lon="6.50789">
        <ele>2381</ele>
        <time>2024-08-11T11:47:29Z</time>
      </trkpt>
      <trkpt lat="44.92641" lon="6.50788">
        <ele>2381</ele>
        <time>2024-08-11T11:47:30Z</time>
      </trkpt>
      <trkpt lat="44.92641" lon="6.50788">
        <ele>2381</ele>
        <time>2024-08-11T11:47:31Z</time>
      </trkpt>
      <trkpt lat="44.92638" lon="6.50786">
        <ele>2380.8</ele>
        <time>2024-08-11T11:47:32Z</time>
      </trkpt>
      <trkpt lat="44.92638" lon="6.50786">
        <ele>2380.6</ele>
        <time>2024-08-11T11:47:33Z</time>
      </trkpt>
      <trkpt lat="44.92635" lon="6.50785">
        <ele>2380.6</ele>
        <time>2024-08-11T11:47:34Z</time>
      </trkpt>
      <trkpt lat="44.92635" lon="6.50785">
        <ele>2380.4</ele>
        <time>2024-08-11T11:47:35Z</time>
      </trkpt>
      <trkpt lat="44.92632" lon="6.50784">
        <ele>2380.4</ele>
        <time>2024-08-11T11:47:36Z</time>
      </trkpt>
      <trkpt lat="44.92632" lon="6.50784">
        <ele>2380.2</ele>
        <time>2024-08-11T11:47:37Z</time>
      </trkpt>
      <trkpt lat="44.9263" lon="6.50783">
        <ele>2380.2</ele>
        <time>2024-08-11T11:47:38Z</time>
      </trkpt>
      <trkpt lat="44.9263" lon="6.50783">
        <ele>2380</ele>
        <time>2024-08-11T11:47:39Z</time>
      </trkpt>
      <trkpt lat="44.92627" lon="6.50782">
        <ele>2380</ele>
        <time>2024-08-11T11:47:40Z</time>
      </trkpt>
      <trkpt lat="44.92627" lon="6.50782">
        <ele>2380</ele>
        <time>2024-08-11T11:47:41Z</time>
      </trkpt>
      <trkpt lat="44.92624" lon="6.50781">
        <ele>2380</ele>
        <time>2024-08-11T11:47:42Z</time>
      </trkpt>
      <trkpt lat="44.92624" lon="6.50781">
        <ele>2380.2</ele>
        <time>2024-08-11T11:47:43Z</time>
      </trkpt>
      <trkpt lat="44.92622" lon="6.50779">
        <ele>2380.2</ele>
        <time>2024-08-11T11:47:44Z</time>
      </trkpt>
      <trkpt lat="44.92622" lon="6.50779">
        <ele>2379.8</ele>
        <time>2024-08-11T11:47:45Z</time>
      </trkpt>
      <trkpt lat="44.92619" lon="6.50778">
        <ele>2379.8</ele>
        <time>2024-08-11T11:47:46Z</time>
      </trkpt>
      <trkpt lat="44.92619" lon="6.50778">
        <ele>2379.8</ele>
        <time>2024-08-11T11:47:47Z</time>
      </trkpt>
      <trkpt lat="44.92617" lon="6.50777">
        <ele>2379.4</ele>
        <time>2024-08-11T11:47:48Z</time>
      </trkpt>
      <trkpt lat="44.92617" lon="6.50777">
        <ele>2379.4</ele>
        <time>2024-08-11T11:47:49Z</time>
      </trkpt>
      <trkpt lat="44.92614" lon="6.50775">
        <ele>2379.4</ele>
        <time>2024-08-11T11:47:50Z</time>
      </trkpt>
      <trkpt lat="44.92614" lon="6.50775">
        <ele>2379.2</ele>
        <time>2024-08-11T11:47:51Z</time>
      </trkpt>
      <trkpt lat="44.92612" lon="6.50774">
        <ele>2379</ele>
        <time>2024-08-11T11:47:52Z</time>
      </trkpt>
      <trkpt lat="44.92612" lon="6.50774">
        <ele>2378.8</ele>
        <time>2024-08-11T11:47:53Z</time>
      </trkpt>
      <trkpt lat="44.9261" lon="6.50773">
        <ele>2378.6</ele>
        <time>2024-08-11T11:47:54Z</time>
      </trkpt>
      <trkpt lat="44.9261" lon="6.50773">
        <ele>2378.4</ele>
        <time>2024-08-11T11:47:55Z</time>
      </trkpt>
      <trkpt lat="44.92607" lon="6.50771">
        <ele>2378.4</ele>
        <time>2024-08-11T11:47:56Z</time>
      </trkpt>
      <trkpt lat="44.92607" lon="6.50771">
        <ele>2378.2</ele>
        <time>2024-08-11T11:47:57Z</time>
      </trkpt>
      <trkpt lat="44.92607" lon="6.50771">
        <ele>2378</ele>
        <time>2024-08-11T11:47:58Z</time>
      </trkpt>
      <trkpt lat="44.92607" lon="6.50771">
        <ele>2378</ele>
        <time>2024-08-11T11:47:59Z</time>
      </trkpt>
      <trkpt lat="44.92607" lon="6.50771">
        <ele>2378</ele>
        <time>2024-08-11T11:48:00Z</time>
      </trkpt>
      <trkpt lat="44.92607" lon="6.50771">
        <ele>2378.2</ele>
        <time>2024-08-11T11:48:01Z</time>
      </trkpt>
      <trkpt lat="44.92607" lon="6.50771">
        <ele>2378.4</ele>
        <time>2024-08-11T11:48:02Z</time>
      </trkpt>
      <trkpt lat="44.92607" lon="6.50771">
        <ele>2378.4</ele>
        <time>2024-08-11T11:48:03Z</time>
      </trkpt>
      <trkpt lat="44.92607" lon="6.50771">
        <ele>2378.4</ele>
        <time>2024-08-11T11:48:04Z</time>
      </trkpt>
      <trkpt lat="44.92607" lon="6.50771">
        <ele>2378.4</ele>
        <time>2024-08-11T11:48:05Z</time>
      </trkpt>
      <trkpt lat="44.92607" lon="6.50771">
        <ele>2378.4</ele>
        <time>2024-08-11T11:48:06Z</time>
      </trkpt>
      <trkpt lat="44.92607" lon="6.50771">
        <ele>2378.4</ele>
        <time>2024-08-11T11:48:07Z</time>
      </trkpt>
      <trkpt lat="44.92607" lon="6.50771">
        <ele>2378.4</ele>
        <time>2024-08-11T11:48:08Z</time>
      </trkpt>
      <trkpt lat="44.92607" lon="6.50771">
        <ele>2378.4</ele>
        <time>2024-08-11T11:48:09Z</time>
      </trkpt>
      <trkpt lat="44.92607" lon="6.50771">
        <ele>2378.6</ele>
        <time>2024-08-11T11:48:10Z</time>
      </trkpt>
      <trkpt lat="44.92607" lon="6.50771">
        <ele>2378.6</ele>
        <time>2024-08-11T11:48:11Z</time>
      </trkpt>
      <trkpt lat="44.92607" lon="6.50771">
        <ele>2378.6</ele>
        <time>2024-08-11T11:48:12Z</time>
      </trkpt>
      <trkpt lat="44.92607" lon="6.50771">
        <ele>2378.8</ele>
        <time>2024-08-11T11:48:13Z</time>
      </trkpt>
      <trkpt lat="44.92607" lon="6.50771">
        <ele>2378.8</ele>
        <time>2024-08-11T11:48:14Z</time>
      </trkpt>
      <trkpt lat="44.92607" lon="6.50771">
        <ele>2378.8</ele>
        <time>2024-08-11T11:48:15Z</time>
      </trkpt>
      <trkpt lat="44.92607" lon="6.50771">
        <ele>2378.8</ele>
        <time>2024-08-11T11:48:16Z</time>
      </trkpt>
      <trkpt lat="44.92607" lon="6.50771">
        <ele>2378.8</ele>
        <time>2024-08-11T11:48:17Z</time>
      </trkpt>
      <trkpt lat="44.92607" lon="6.50771">
        <ele>2378.8</ele>
        <time>2024-08-11T11:48:18Z</time>
      </trkpt>
      <trkpt lat="44.92607" lon="6.50771">
        <ele>2378.8</ele>
        <time>2024-08-11T11:48:19Z</time>
      </trkpt>
      <trkpt lat="44.92607" lon="6.50771">
        <ele>2378.8</ele>
        <time>2024-08-11T11:48:20Z</time>
      </trkpt>
      <trkpt lat="44.92607" lon="6.50771">
        <ele>2378.8</ele>
        <time>2024-08-11T11:48:21Z</time>
      </trkpt>
      <trkpt lat="44.92605" lon="6.50772">
        <ele>2378.6</ele>
        <time>2024-08-11T11:48:22Z</time>
      </trkpt>
      <trkpt lat="44.92605" lon="6.50772">
        <ele>2378.4</ele>
        <time>2024-08-11T11:48:23Z</time>
      </trkpt>
      <trkpt lat="44.92602" lon="6.50773">
        <ele>2378.4</ele>
        <time>2024-08-11T11:48:24Z</time>
      </trkpt>
      <trkpt lat="44.92601" lon="6.50775">
        <ele>2378.2</ele>
        <time>2024-08-11T11:48:25Z</time>
      </trkpt>
      <trkpt lat="44.92599" lon="6.50777">
        <ele>2378</ele>
        <time>2024-08-11T11:48:26Z</time>
      </trkpt>
      <trkpt lat="44.92599" lon="6.50777">
        <ele>2378</ele>
        <time>2024-08-11T11:48:27Z</time>
      </trkpt>
      <trkpt lat="44.92597" lon="6.50781">
        <ele>2378</ele>
        <time>2024-08-11T11:48:28Z</time>
      </trkpt>
      <trkpt lat="44.92597" lon="6.50781">
        <ele>2377.8</ele>
        <time>2024-08-11T11:48:29Z</time>
      </trkpt>
      <trkpt lat="44.92595" lon="6.50784">
        <ele>2377.6</ele>
        <time>2024-08-11T11:48:30Z</time>
      </trkpt>
      <trkpt lat="44.92595" lon="6.50784">
        <ele>2377.4</ele>
        <time>2024-08-11T11:48:31Z</time>
      </trkpt>
      <trkpt lat="44.92593" lon="6.50788">
        <ele>2377.2</ele>
        <time>2024-08-11T11:48:32Z</time>
      </trkpt>
      <trkpt lat="44.92593" lon="6.50788">
        <ele>2377</ele>
        <time>2024-08-11T11:48:33Z</time>
      </trkpt>
      <trkpt lat="44.92591" lon="6.50791">
        <ele>2377</ele>
        <time>2024-08-11T11:48:34Z</time>
      </trkpt>
      <trkpt lat="44.92591" lon="6.50791">
        <ele>2377</ele>
        <time>2024-08-11T11:48:35Z</time>
      </trkpt>
      <trkpt lat="44.92589" lon="6.50794">
        <ele>2376.8</ele>
        <time>2024-08-11T11:48:36Z</time>
      </trkpt>
      <trkpt lat="44.92588" lon="6.50796">
        <ele>2376.6</ele>
        <time>2024-08-11T11:48:37Z</time>
      </trkpt>
      <trkpt lat="44.92588" lon="6.50796">
        <ele>2376.6</ele>
        <time>2024-08-11T11:48:38Z</time>
      </trkpt>
      <trkpt lat="44.92586" lon="6.50801">
        <ele>2376.4</ele>
        <time>2024-08-11T11:48:39Z</time>
      </trkpt>
      <trkpt lat="44.92585" lon="6.50803">
        <ele>2376.4</ele>
        <time>2024-08-11T11:48:40Z</time>
      </trkpt>
      <trkpt lat="44.92585" lon="6.50803">
        <ele>2376</ele>
        <time>2024-08-11T11:48:41Z</time>
      </trkpt>
      <trkpt lat="44.92584" lon="6.50806">
        <ele>2375.4</ele>
        <time>2024-08-11T11:48:42Z</time>
      </trkpt>
      <trkpt lat="44.92584" lon="6.50806">
        <ele>2375.2</ele>
        <time>2024-08-11T11:48:43Z</time>
      </trkpt>
      <trkpt lat="44.92583" lon="6.50809">
        <ele>2375</ele>
        <time>2024-08-11T11:48:44Z</time>
      </trkpt>
      <trkpt lat="44.92583" lon="6.50809">
        <ele>2374.8</ele>
        <time>2024-08-11T11:48:45Z</time>
      </trkpt>
      <trkpt lat="44.92581" lon="6.50812">
        <ele>2374.4</ele>
        <time>2024-08-11T11:48:46Z</time>
      </trkpt>
      <trkpt lat="44.92581" lon="6.50812">
        <ele>2374.2</ele>
        <time>2024-08-11T11:48:47Z</time>
      </trkpt>
      <trkpt lat="44.9258" lon="6.50814">
        <ele>2374.2</ele>
        <time>2024-08-11T11:48:48Z</time>
      </trkpt>
      <trkpt lat="44.9258" lon="6.50814">
        <ele>2373.8</ele>
        <time>2024-08-11T11:48:49Z</time>
      </trkpt>
      <trkpt lat="44.92579" lon="6.50817">
        <ele>2373.8</ele>
        <time>2024-08-11T11:48:50Z</time>
      </trkpt>
      <trkpt lat="44.92579" lon="6.50817">
        <ele>2373.6</ele>
        <time>2024-08-11T11:48:51Z</time>
      </trkpt>
      <trkpt lat="44.92579" lon="6.50821">
        <ele>2373.4</ele>
        <time>2024-08-11T11:48:52Z</time>
      </trkpt>
      <trkpt lat="44.92579" lon="6.50821">
        <ele>2373.2</ele>
        <time>2024-08-11T11:48:53Z</time>
      </trkpt>
      <trkpt lat="44.92578" lon="6.50824">
        <ele>2373</ele>
        <time>2024-08-11T11:48:54Z</time>
      </trkpt>
      <trkpt lat="44.92578" lon="6.50824">
        <ele>2373</ele>
        <time>2024-08-11T11:48:55Z</time>
      </trkpt>
      <trkpt lat="44.92577" lon="6.50828">
        <ele>2372.6</ele>
        <time>2024-08-11T11:48:56Z</time>
      </trkpt>
      <trkpt lat="44.92577" lon="6.50828">
        <ele>2372.4</ele>
        <time>2024-08-11T11:48:57Z</time>
      </trkpt>
      <trkpt lat="44.92578" lon="6.50831">
        <ele>2372</ele>
        <time>2024-08-11T11:48:58Z</time>
      </trkpt>
      <trkpt lat="44.92578" lon="6.50831">
        <ele>2372</ele>
        <time>2024-08-11T11:48:59Z</time>
      </trkpt>
      <trkpt lat="44.9258" lon="6.50834">
        <ele>2372</ele>
        <time>2024-08-11T11:49:00Z</time>
      </trkpt>
      <trkpt lat="44.9258" lon="6.50834">
        <ele>2371.6</ele>
        <time>2024-08-11T11:49:01Z</time>
      </trkpt>
      <trkpt lat="44.92581" lon="6.50837">
        <ele>2371</ele>
        <time>2024-08-11T11:49:02Z</time>
      </trkpt>
      <trkpt lat="44.92581" lon="6.50837">
        <ele>2371</ele>
        <time>2024-08-11T11:49:03Z</time>
      </trkpt>
      <trkpt lat="44.92581" lon="6.5084">
        <ele>2370.8</ele>
        <time>2024-08-11T11:49:04Z</time>
      </trkpt>
      <trkpt lat="44.92581" lon="6.5084">
        <ele>2370.6</ele>
        <time>2024-08-11T11:49:05Z</time>
      </trkpt>
      <trkpt lat="44.92583" lon="6.50844">
        <ele>2370.4</ele>
        <time>2024-08-11T11:49:06Z</time>
      </trkpt>
      <trkpt lat="44.92583" lon="6.50844">
        <ele>2370.2</ele>
        <time>2024-08-11T11:49:07Z</time>
      </trkpt>
      <trkpt lat="44.92584" lon="6.50847">
        <ele>2370.2</ele>
        <time>2024-08-11T11:49:08Z</time>
      </trkpt>
      <trkpt lat="44.92584" lon="6.50847">
        <ele>2370</ele>
        <time>2024-08-11T11:49:09Z</time>
      </trkpt>
      <trkpt lat="44.92585" lon="6.50851">
        <ele>2370</ele>
        <time>2024-08-11T11:49:10Z</time>
      </trkpt>
      <trkpt lat="44.92585" lon="6.50851">
        <ele>2370</ele>
        <time>2024-08-11T11:49:11Z</time>
      </trkpt>
      <trkpt lat="44.92585" lon="6.50854">
        <ele>2369.8</ele>
        <time>2024-08-11T11:49:12Z</time>
      </trkpt>
      <trkpt lat="44.92585" lon="6.50854">
        <ele>2369.4</ele>
        <time>2024-08-11T11:49:13Z</time>
      </trkpt>
      <trkpt lat="44.92585" lon="6.50858">
        <ele>2369.4</ele>
        <time>2024-08-11T11:49:14Z</time>
      </trkpt>
      <trkpt lat="44.92585" lon="6.50858">
        <ele>2369.2</ele>
        <time>2024-08-11T11:49:15Z</time>
      </trkpt>
      <trkpt lat="44.92585" lon="6.50861">
        <ele>2368.8</ele>
        <time>2024-08-11T11:49:16Z</time>
      </trkpt>
      <trkpt lat="44.92585" lon="6.50861">
        <ele>2368.8</ele>
        <time>2024-08-11T11:49:17Z</time>
      </trkpt>
      <trkpt lat="44.92583" lon="6.50865">
        <ele>2368.8</ele>
        <time>2024-08-11T11:49:18Z</time>
      </trkpt>
      <trkpt lat="44.92583" lon="6.50865">
        <ele>2368.6</ele>
        <time>2024-08-11T11:49:19Z</time>
      </trkpt>
      <trkpt lat="44.92581" lon="6.50867">
        <ele>2368.6</ele>
        <time>2024-08-11T11:49:20Z</time>
      </trkpt>
      <trkpt lat="44.92581" lon="6.50867">
        <ele>2368.4</ele>
        <time>2024-08-11T11:49:21Z</time>
      </trkpt>
      <trkpt lat="44.9258" lon="6.50869">
        <ele>2368.2</ele>
        <time>2024-08-11T11:49:22Z</time>
      </trkpt>
      <trkpt lat="44.9258" lon="6.50869">
        <ele>2368</ele>
        <time>2024-08-11T11:49:23Z</time>
      </trkpt>
      <trkpt lat="44.92579" lon="6.50872">
        <ele>2367.6</ele>
        <time>2024-08-11T11:49:24Z</time>
      </trkpt>
      <trkpt lat="44.92579" lon="6.50872">
        <ele>2367.4</ele>
        <time>2024-08-11T11:49:25Z</time>
      </trkpt>
      <trkpt lat="44.92577" lon="6.50874">
        <ele>2367.4</ele>
        <time>2024-08-11T11:49:26Z</time>
      </trkpt>
      <trkpt lat="44.92577" lon="6.50874">
        <ele>2367.4</ele>
        <time>2024-08-11T11:49:27Z</time>
      </trkpt>
      <trkpt lat="44.92574" lon="6.50876">
        <ele>2367.2</ele>
        <time>2024-08-11T11:49:28Z</time>
      </trkpt>
      <trkpt lat="44.92574" lon="6.50876">
        <ele>2367</ele>
        <time>2024-08-11T11:49:29Z</time>
      </trkpt>
      <trkpt lat="44.92573" lon="6.50878">
        <ele>2367</ele>
        <time>2024-08-11T11:49:30Z</time>
      </trkpt>
      <trkpt lat="44.92573" lon="6.50878">
        <ele>2366.8</ele>
        <time>2024-08-11T11:49:31Z</time>
      </trkpt>
      <trkpt lat="44.92571" lon="6.5088">
        <ele>2366.6</ele>
        <time>2024-08-11T11:49:32Z</time>
      </trkpt>
      <trkpt lat="44.92571" lon="6.5088">
        <ele>2366.4</ele>
        <time>2024-08-11T11:49:33Z</time>
      </trkpt>
      <trkpt lat="44.9257" lon="6.50883">
        <ele>2366.2</ele>
        <time>2024-08-11T11:49:34Z</time>
      </trkpt>
      <trkpt lat="44.9257" lon="6.50883">
        <ele>2366</ele>
        <time>2024-08-11T11:49:35Z</time>
      </trkpt>
      <trkpt lat="44.92568" lon="6.50885">
        <ele>2366</ele>
        <time>2024-08-11T11:49:36Z</time>
      </trkpt>
      <trkpt lat="44.92568" lon="6.50885">
        <ele>2365.8</ele>
        <time>2024-08-11T11:49:37Z</time>
      </trkpt>
      <trkpt lat="44.92566" lon="6.50887">
        <ele>2365.6</ele>
        <time>2024-08-11T11:49:38Z</time>
      </trkpt>
      <trkpt lat="44.92566" lon="6.50887">
        <ele>2365.4</ele>
        <time>2024-08-11T11:49:39Z</time>
      </trkpt>
      <trkpt lat="44.92564" lon="6.50888">
        <ele>2365.2</ele>
        <time>2024-08-11T11:49:40Z</time>
      </trkpt>
      <trkpt lat="44.92564" lon="6.50888">
        <ele>2365.2</ele>
        <time>2024-08-11T11:49:41Z</time>
      </trkpt>
      <trkpt lat="44.92563" lon="6.5089">
        <ele>2364.8</ele>
        <time>2024-08-11T11:49:42Z</time>
      </trkpt>
      <trkpt lat="44.92563" lon="6.5089">
        <ele>2364.8</ele>
        <time>2024-08-11T11:49:43Z</time>
      </trkpt>
      <trkpt lat="44.9256" lon="6.50892">
        <ele>2364.6</ele>
        <time>2024-08-11T11:49:44Z</time>
      </trkpt>
      <trkpt lat="44.9256" lon="6.50892">
        <ele>2364.6</ele>
        <time>2024-08-11T11:49:45Z</time>
      </trkpt>
      <trkpt lat="44.92557" lon="6.50893">
        <ele>2364.2</ele>
        <time>2024-08-11T11:49:46Z</time>
      </trkpt>
      <trkpt lat="44.92557" lon="6.50893">
        <ele>2363.8</ele>
        <time>2024-08-11T11:49:47Z</time>
      </trkpt>
      <trkpt lat="44.92556" lon="6.50894">
        <ele>2363.8</ele>
        <time>2024-08-11T11:49:48Z</time>
      </trkpt>
      <trkpt lat="44.92556" lon="6.50894">
        <ele>2363.2</ele>
        <time>2024-08-11T11:49:49Z</time>
      </trkpt>
      <trkpt lat="44.92553" lon="6.50894">
        <ele>2363.2</ele>
        <time>2024-08-11T11:49:50Z</time>
      </trkpt>
      <trkpt lat="44.92553" lon="6.50894">
        <ele>2363.2</ele>
        <time>2024-08-11T11:49:51Z</time>
      </trkpt>
      <trkpt lat="44.92551" lon="6.50893">
        <ele>2362.8</ele>
        <time>2024-08-11T11:49:52Z</time>
      </trkpt>
      <trkpt lat="44.92549" lon="6.50892">
        <ele>2362.8</ele>
        <time>2024-08-11T11:49:53Z</time>
      </trkpt>
      <trkpt lat="44.92549" lon="6.50892">
        <ele>2362.6</ele>
        <time>2024-08-11T11:49:54Z</time>
      </trkpt>
      <trkpt lat="44.92546" lon="6.50891">
        <ele>2362.2</ele>
        <time>2024-08-11T11:49:55Z</time>
      </trkpt>
      <trkpt lat="44.92546" lon="6.50891">
        <ele>2361.8</ele>
        <time>2024-08-11T11:49:56Z</time>
      </trkpt>
      <trkpt lat="44.92543" lon="6.5089">
        <ele>2361.4</ele>
        <time>2024-08-11T11:49:57Z</time>
      </trkpt>
      <trkpt lat="44.92543" lon="6.5089">
        <ele>2360.8</ele>
        <time>2024-08-11T11:49:58Z</time>
      </trkpt>
      <trkpt lat="44.92541" lon="6.5089">
        <ele>2360.4</ele>
        <time>2024-08-11T11:49:59Z</time>
      </trkpt>
      <trkpt lat="44.92538" lon="6.50889">
        <ele>2359.8</ele>
        <time>2024-08-11T11:50:01Z</time>
      </trkpt>
      <trkpt lat="44.92538" lon="6.50889">
        <ele>2359</ele>
        <time>2024-08-11T11:50:02Z</time>
      </trkpt>
      <trkpt lat="44.92535" lon="6.50888">
        <ele>2359</ele>
        <time>2024-08-11T11:50:03Z</time>
      </trkpt>
      <trkpt lat="44.92535" lon="6.50888">
        <ele>2358.8</ele>
        <time>2024-08-11T11:50:04Z</time>
      </trkpt>
      <trkpt lat="44.92533" lon="6.50887">
        <ele>2358.6</ele>
        <time>2024-08-11T11:50:05Z</time>
      </trkpt>
      <trkpt lat="44.92533" lon="6.50887">
        <ele>2358.6</ele>
        <time>2024-08-11T11:50:06Z</time>
      </trkpt>
      <trkpt lat="44.92531" lon="6.50886">
        <ele>2358.2</ele>
        <time>2024-08-11T11:50:07Z</time>
      </trkpt>
      <trkpt lat="44.92531" lon="6.50886">
        <ele>2357.8</ele>
        <time>2024-08-11T11:50:08Z</time>
      </trkpt>
      <trkpt lat="44.92527" lon="6.50885">
        <ele>2357.6</ele>
        <time>2024-08-11T11:50:09Z</time>
      </trkpt>
      <trkpt lat="44.92525" lon="6.50884">
        <ele>2357.4</ele>
        <time>2024-08-11T11:50:10Z</time>
      </trkpt>
      <trkpt lat="44.92525" lon="6.50884">
        <ele>2357.2</ele>
        <time>2024-08-11T11:50:11Z</time>
      </trkpt>
      <trkpt lat="44.92523" lon="6.50882">
        <ele>2356.8</ele>
        <time>2024-08-11T11:50:12Z</time>
      </trkpt>
      <trkpt lat="44.92523" lon="6.50882">
        <ele>2356.8</ele>
        <time>2024-08-11T11:50:13Z</time>
      </trkpt>
      <trkpt lat="44.9252" lon="6.50882">
        <ele>2356.4</ele>
        <time>2024-08-11T11:50:14Z</time>
      </trkpt>
      <trkpt lat="44.9252" lon="6.50882">
        <ele>2356.4</ele>
        <time>2024-08-11T11:50:15Z</time>
      </trkpt>
      <trkpt lat="44.92517" lon="6.50879">
        <ele>2356</ele>
        <time>2024-08-11T11:50:16Z</time>
      </trkpt>
      <trkpt lat="44.92517" lon="6.50879">
        <ele>2356</ele>
        <time>2024-08-11T11:50:17Z</time>
      </trkpt>
      <trkpt lat="44.92515" lon="6.50877">
        <ele>2355.8</ele>
        <time>2024-08-11T11:50:18Z</time>
      </trkpt>
      <trkpt lat="44.92515" lon="6.50877">
        <ele>2355.8</ele>
        <time>2024-08-11T11:50:19Z</time>
      </trkpt>
      <trkpt lat="44.92513" lon="6.50876">
        <ele>2355.4</ele>
        <time>2024-08-11T11:50:20Z</time>
      </trkpt>
      <trkpt lat="44.92513" lon="6.50876">
        <ele>2355.2</ele>
        <time>2024-08-11T11:50:21Z</time>
      </trkpt>
      <trkpt lat="44.9251" lon="6.50874">
        <ele>2355</ele>
        <time>2024-08-11T11:50:22Z</time>
      </trkpt>
      <trkpt lat="44.9251" lon="6.50874">
        <ele>2354.6</ele>
        <time>2024-08-11T11:50:23Z</time>
      </trkpt>
      <trkpt lat="44.92508" lon="6.50873">
        <ele>2354.2</ele>
        <time>2024-08-11T11:50:24Z</time>
      </trkpt>
      <trkpt lat="44.92508" lon="6.50873">
        <ele>2354</ele>
        <time>2024-08-11T11:50:25Z</time>
      </trkpt>
      <trkpt lat="44.92506" lon="6.50872">
        <ele>2354</ele>
        <time>2024-08-11T11:50:26Z</time>
      </trkpt>
      <trkpt lat="44.92506" lon="6.50872">
        <ele>2353.8</ele>
        <time>2024-08-11T11:50:27Z</time>
      </trkpt>
      <trkpt lat="44.92503" lon="6.50871">
        <ele>2353.8</ele>
        <time>2024-08-11T11:50:28Z</time>
      </trkpt>
      <trkpt lat="44.92503" lon="6.50871">
        <ele>2353.6</ele>
        <time>2024-08-11T11:50:29Z</time>
      </trkpt>
      <trkpt lat="44.92501" lon="6.5087">
        <ele>2353.6</ele>
        <time>2024-08-11T11:50:30Z</time>
      </trkpt>
      <trkpt lat="44.92501" lon="6.5087">
        <ele>2353.6</ele>
        <time>2024-08-11T11:50:31Z</time>
      </trkpt>
      <trkpt lat="44.92501" lon="6.5087">
        <ele>2353.4</ele>
        <time>2024-08-11T11:50:32Z</time>
      </trkpt>
      <trkpt lat="44.92498" lon="6.50868">
        <ele>2353.2</ele>
        <time>2024-08-11T11:50:33Z</time>
      </trkpt>
      <trkpt lat="44.92498" lon="6.50868">
        <ele>2353</ele>
        <time>2024-08-11T11:50:34Z</time>
      </trkpt>
      <trkpt lat="44.92498" lon="6.50868">
        <ele>2352.6</ele>
        <time>2024-08-11T11:50:35Z</time>
      </trkpt>
      <trkpt lat="44.92495" lon="6.50866">
        <ele>2352.4</ele>
        <time>2024-08-11T11:50:36Z</time>
      </trkpt>
      <trkpt lat="44.92495" lon="6.50866">
        <ele>2352.2</ele>
        <time>2024-08-11T11:50:37Z</time>
      </trkpt>
      <trkpt lat="44.92493" lon="6.50866">
        <ele>2351.8</ele>
        <time>2024-08-11T11:50:38Z</time>
      </trkpt>
      <trkpt lat="44.92493" lon="6.50866">
        <ele>2351.8</ele>
        <time>2024-08-11T11:50:39Z</time>
      </trkpt>
      <trkpt lat="44.9249" lon="6.50866">
        <ele>2351.6</ele>
        <time>2024-08-11T11:50:40Z</time>
      </trkpt>
      <trkpt lat="44.9249" lon="6.50866">
        <ele>2351.2</ele>
        <time>2024-08-11T11:50:41Z</time>
      </trkpt>
      <trkpt lat="44.92487" lon="6.50866">
        <ele>2351.2</ele>
        <time>2024-08-11T11:50:42Z</time>
      </trkpt>
      <trkpt lat="44.92487" lon="6.50866">
        <ele>2351</ele>
        <time>2024-08-11T11:50:43Z</time>
      </trkpt>
      <trkpt lat="44.92485" lon="6.50867">
        <ele>2350.6</ele>
        <time>2024-08-11T11:50:44Z</time>
      </trkpt>
      <trkpt lat="44.92485" lon="6.50867">
        <ele>2350.4</ele>
        <time>2024-08-11T11:50:45Z</time>
      </trkpt>
      <trkpt lat="44.92482" lon="6.50869">
        <ele>2350.2</ele>
        <time>2024-08-11T11:50:46Z</time>
      </trkpt>
      <trkpt lat="44.92482" lon="6.50869">
        <ele>2349.8</ele>
        <time>2024-08-11T11:50:47Z</time>
      </trkpt>
      <trkpt lat="44.9248" lon="6.50871">
        <ele>2349.6</ele>
        <time>2024-08-11T11:50:48Z</time>
      </trkpt>
      <trkpt lat="44.9248" lon="6.50871">
        <ele>2349.2</ele>
        <time>2024-08-11T11:50:49Z</time>
      </trkpt>
      <trkpt lat="44.92479" lon="6.50874">
        <ele>2349.2</ele>
        <time>2024-08-11T11:50:50Z</time>
      </trkpt>
      <trkpt lat="44.92479" lon="6.50874">
        <ele>2349</ele>
        <time>2024-08-11T11:50:51Z</time>
      </trkpt>
      <trkpt lat="44.92476" lon="6.50876">
        <ele>2348.6</ele>
        <time>2024-08-11T11:50:52Z</time>
      </trkpt>
      <trkpt lat="44.92476" lon="6.50876">
        <ele>2348.6</ele>
        <time>2024-08-11T11:50:53Z</time>
      </trkpt>
      <trkpt lat="44.92474" lon="6.50877">
        <ele>2348.6</ele>
        <time>2024-08-11T11:50:54Z</time>
      </trkpt>
      <trkpt lat="44.92474" lon="6.50877">
        <ele>2348.4</ele>
        <time>2024-08-11T11:50:55Z</time>
      </trkpt>
      <trkpt lat="44.92472" lon="6.5088">
        <ele>2348</ele>
        <time>2024-08-11T11:50:56Z</time>
      </trkpt>
      <trkpt lat="44.92472" lon="6.5088">
        <ele>2347.6</ele>
        <time>2024-08-11T11:50:57Z</time>
      </trkpt>
      <trkpt lat="44.9247" lon="6.50882">
        <ele>2347.4</ele>
        <time>2024-08-11T11:50:58Z</time>
      </trkpt>
      <trkpt lat="44.9247" lon="6.50882">
        <ele>2347</ele>
        <time>2024-08-11T11:50:59Z</time>
      </trkpt>
      <trkpt lat="44.92468" lon="6.50885">
        <ele>2346.8</ele>
        <time>2024-08-11T11:51:00Z</time>
      </trkpt>
      <trkpt lat="44.92468" lon="6.50885">
        <ele>2346.6</ele>
        <time>2024-08-11T11:51:01Z</time>
      </trkpt>
      <trkpt lat="44.92466" lon="6.50887">
        <ele>2346.2</ele>
        <time>2024-08-11T11:51:02Z</time>
      </trkpt>
      <trkpt lat="44.92466" lon="6.50887">
        <ele>2346.2</ele>
        <time>2024-08-11T11:51:03Z</time>
      </trkpt>
      <trkpt lat="44.92463" lon="6.50887">
        <ele>2346.2</ele>
        <time>2024-08-11T11:51:04Z</time>
      </trkpt>
      <trkpt lat="44.92463" lon="6.50887">
        <ele>2346</ele>
        <time>2024-08-11T11:51:05Z</time>
      </trkpt>
      <trkpt lat="44.92461" lon="6.50888">
        <ele>2345.6</ele>
        <time>2024-08-11T11:51:06Z</time>
      </trkpt>
      <trkpt lat="44.92461" lon="6.50888">
        <ele>2345.6</ele>
        <time>2024-08-11T11:51:07Z</time>
      </trkpt>
      <trkpt lat="44.92458" lon="6.50889">
        <ele>2345.2</ele>
        <time>2024-08-11T11:51:08Z</time>
      </trkpt>
      <trkpt lat="44.92458" lon="6.50889">
        <ele>2345.2</ele>
        <time>2024-08-11T11:51:09Z</time>
      </trkpt>
      <trkpt lat="44.92456" lon="6.50891">
        <ele>2345</ele>
        <time>2024-08-11T11:51:10Z</time>
      </trkpt>
      <trkpt lat="44.92456" lon="6.50891">
        <ele>2345</ele>
        <time>2024-08-11T11:51:11Z</time>
      </trkpt>
      <trkpt lat="44.92453" lon="6.50892">
        <ele>2345</ele>
        <time>2024-08-11T11:51:12Z</time>
      </trkpt>
      <trkpt lat="44.92453" lon="6.50892">
        <ele>2345</ele>
        <time>2024-08-11T11:51:13Z</time>
      </trkpt>
      <trkpt lat="44.92451" lon="6.50893">
        <ele>2345</ele>
        <time>2024-08-11T11:51:14Z</time>
      </trkpt>
      <trkpt lat="44.92451" lon="6.50893">
        <ele>2344.8</ele>
        <time>2024-08-11T11:51:15Z</time>
      </trkpt>
      <trkpt lat="44.92448" lon="6.50894">
        <ele>2344.6</ele>
        <time>2024-08-11T11:51:16Z</time>
      </trkpt>
      <trkpt lat="44.92448" lon="6.50894">
        <ele>2344.6</ele>
        <time>2024-08-11T11:51:17Z</time>
      </trkpt>
      <trkpt lat="44.92446" lon="6.50894">
        <ele>2344.4</ele>
        <time>2024-08-11T11:51:18Z</time>
      </trkpt>
      <trkpt lat="44.92446" lon="6.50894">
        <ele>2344.4</ele>
        <time>2024-08-11T11:51:19Z</time>
      </trkpt>
      <trkpt lat="44.92443" lon="6.50894">
        <ele>2344.4</ele>
        <time>2024-08-11T11:51:20Z</time>
      </trkpt>
      <trkpt lat="44.92443" lon="6.50894">
        <ele>2344</ele>
        <time>2024-08-11T11:51:21Z</time>
      </trkpt>
      <trkpt lat="44.92441" lon="6.50894">
        <ele>2343.8</ele>
        <time>2024-08-11T11:51:22Z</time>
      </trkpt>
      <trkpt lat="44.92441" lon="6.50894">
        <ele>2343.6</ele>
        <time>2024-08-11T11:51:23Z</time>
      </trkpt>
      <trkpt lat="44.92439" lon="6.50897">
        <ele>2343.4</ele>
        <time>2024-08-11T11:51:24Z</time>
      </trkpt>
      <trkpt lat="44.92439" lon="6.50897">
        <ele>2343</ele>
        <time>2024-08-11T11:51:25Z</time>
      </trkpt>
      <trkpt lat="44.92437" lon="6.509">
        <ele>2342.8</ele>
        <time>2024-08-11T11:51:26Z</time>
      </trkpt>
      <trkpt lat="44.92437" lon="6.509">
        <ele>2342.8</ele>
        <time>2024-08-11T11:51:27Z</time>
      </trkpt>
      <trkpt lat="44.92435" lon="6.50902">
        <ele>2342.6</ele>
        <time>2024-08-11T11:51:28Z</time>
      </trkpt>
      <trkpt lat="44.92435" lon="6.50902">
        <ele>2342.6</ele>
        <time>2024-08-11T11:51:29Z</time>
      </trkpt>
      <trkpt lat="44.92432" lon="6.50903">
        <ele>2342.6</ele>
        <time>2024-08-11T11:51:30Z</time>
      </trkpt>
      <trkpt lat="44.92432" lon="6.50903">
        <ele>2341.8</ele>
        <time>2024-08-11T11:51:31Z</time>
      </trkpt>
      <trkpt lat="44.92429" lon="6.50903">
        <ele>2341.8</ele>
        <time>2024-08-11T11:51:32Z</time>
      </trkpt>
      <trkpt lat="44.92429" lon="6.50903">
        <ele>2341.6</ele>
        <time>2024-08-11T11:51:33Z</time>
      </trkpt>
      <trkpt lat="44.92429" lon="6.50903">
        <ele>2341.4</ele>
        <time>2024-08-11T11:51:34Z</time>
      </trkpt>
      <trkpt lat="44.92427" lon="6.50904">
        <ele>2341.4</ele>
        <time>2024-08-11T11:51:35Z</time>
      </trkpt>
      <trkpt lat="44.92427" lon="6.50904">
        <ele>2340.6</ele>
        <time>2024-08-11T11:51:36Z</time>
      </trkpt>
      <trkpt lat="44.92424" lon="6.50905">
        <ele>2340.4</ele>
        <time>2024-08-11T11:51:37Z</time>
      </trkpt>
      <trkpt lat="44.92424" lon="6.50905">
        <ele>2340.2</ele>
        <time>2024-08-11T11:51:38Z</time>
      </trkpt>
      <trkpt lat="44.92421" lon="6.50905">
        <ele>2339.8</ele>
        <time>2024-08-11T11:51:39Z</time>
      </trkpt>
      <trkpt lat="44.92421" lon="6.50905">
        <ele>2339.6</ele>
        <time>2024-08-11T11:51:40Z</time>
      </trkpt>
      <trkpt lat="44.92419" lon="6.50905">
        <ele>2339.6</ele>
        <time>2024-08-11T11:51:41Z</time>
      </trkpt>
      <trkpt lat="44.92419" lon="6.50905">
        <ele>2339.4</ele>
        <time>2024-08-11T11:51:42Z</time>
      </trkpt>
      <trkpt lat="44.92416" lon="6.50906">
        <ele>2339.2</ele>
        <time>2024-08-11T11:51:43Z</time>
      </trkpt>
      <trkpt lat="44.92416" lon="6.50906">
        <ele>2338.8</ele>
        <time>2024-08-11T11:51:44Z</time>
      </trkpt>
      <trkpt lat="44.92414" lon="6.50906">
        <ele>2338.8</ele>
        <time>2024-08-11T11:51:45Z</time>
      </trkpt>
      <trkpt lat="44.92414" lon="6.50906">
        <ele>2338.8</ele>
        <time>2024-08-11T11:51:46Z</time>
      </trkpt>
      <trkpt lat="44.92411" lon="6.50907">
        <ele>2338.4</ele>
        <time>2024-08-11T11:51:47Z</time>
      </trkpt>
      <trkpt lat="44.92411" lon="6.50907">
        <ele>2338.4</ele>
        <time>2024-08-11T11:51:48Z</time>
      </trkpt>
      <trkpt lat="44.92409" lon="6.50907">
        <ele>2338</ele>
        <time>2024-08-11T11:51:49Z</time>
      </trkpt>
      <trkpt lat="44.92409" lon="6.50907">
        <ele>2337.6</ele>
        <time>2024-08-11T11:51:50Z</time>
      </trkpt>
      <trkpt lat="44.92406" lon="6.50908">
        <ele>2337.4</ele>
        <time>2024-08-11T11:51:51Z</time>
      </trkpt>
      <trkpt lat="44.92406" lon="6.50908">
        <ele>2337.2</ele>
        <time>2024-08-11T11:51:52Z</time>
      </trkpt>
      <trkpt lat="44.92404" lon="6.50909">
        <ele>2337</ele>
        <time>2024-08-11T11:51:53Z</time>
      </trkpt>
      <trkpt lat="44.92404" lon="6.50909">
        <ele>2337</ele>
        <time>2024-08-11T11:51:54Z</time>
      </trkpt>
      <trkpt lat="44.92402" lon="6.5091">
        <ele>2336.6</ele>
        <time>2024-08-11T11:51:55Z</time>
      </trkpt>
      <trkpt lat="44.92402" lon="6.5091">
        <ele>2336.2</ele>
        <time>2024-08-11T11:51:56Z</time>
      </trkpt>
      <trkpt lat="44.92399" lon="6.50911">
        <ele>2336.2</ele>
        <time>2024-08-11T11:51:57Z</time>
      </trkpt>
      <trkpt lat="44.92399" lon="6.50911">
        <ele>2336</ele>
        <time>2024-08-11T11:51:58Z</time>
      </trkpt>
      <trkpt lat="44.92397" lon="6.5091">
        <ele>2336</ele>
        <time>2024-08-11T11:51:59Z</time>
      </trkpt>
      <trkpt lat="44.92397" lon="6.5091">
        <ele>2336</ele>
        <time>2024-08-11T11:52:00Z</time>
      </trkpt>
      <trkpt lat="44.92394" lon="6.50908">
        <ele>2336</ele>
        <time>2024-08-11T11:52:01Z</time>
      </trkpt>
      <trkpt lat="44.92392" lon="6.50907">
        <ele>2335.6</ele>
        <time>2024-08-11T11:52:02Z</time>
      </trkpt>
      <trkpt lat="44.92392" lon="6.50907">
        <ele>2335.6</ele>
        <time>2024-08-11T11:52:03Z</time>
      </trkpt>
      <trkpt lat="44.9239" lon="6.50905">
        <ele>2335.4</ele>
        <time>2024-08-11T11:52:04Z</time>
      </trkpt>
      <trkpt lat="44.9239" lon="6.50905">
        <ele>2335.2</ele>
        <time>2024-08-11T11:52:05Z</time>
      </trkpt>
      <trkpt lat="44.92388" lon="6.50903">
        <ele>2334.8</ele>
        <time>2024-08-11T11:52:06Z</time>
      </trkpt>
      <trkpt lat="44.92388" lon="6.50903">
        <ele>2334.8</ele>
        <time>2024-08-11T11:52:07Z</time>
      </trkpt>
      <trkpt lat="44.92385" lon="6.50902">
        <ele>2334.4</ele>
        <time>2024-08-11T11:52:08Z</time>
      </trkpt>
      <trkpt lat="44.92385" lon="6.50902">
        <ele>2334</ele>
        <time>2024-08-11T11:52:09Z</time>
      </trkpt>
      <trkpt lat="44.92382" lon="6.50902">
        <ele>2333.8</ele>
        <time>2024-08-11T11:52:10Z</time>
      </trkpt>
      <trkpt lat="44.92382" lon="6.50902">
        <ele>2333.8</ele>
        <time>2024-08-11T11:52:11Z</time>
      </trkpt>
      <trkpt lat="44.92381" lon="6.509">
        <ele>2333.4</ele>
        <time>2024-08-11T11:52:12Z</time>
      </trkpt>
      <trkpt lat="44.92381" lon="6.509">
        <ele>2333.4</ele>
        <time>2024-08-11T11:52:13Z</time>
      </trkpt>
      <trkpt lat="44.92381" lon="6.509">
        <ele>2333.4</ele>
        <time>2024-08-11T11:52:14Z</time>
      </trkpt>
      <trkpt lat="44.92381" lon="6.509">
        <ele>2333.4</ele>
        <time>2024-08-11T11:52:15Z</time>
      </trkpt>
      <trkpt lat="44.92381" lon="6.509">
        <ele>2333.2</ele>
        <time>2024-08-11T11:52:16Z</time>
      </trkpt>
      <trkpt lat="44.92381" lon="6.509">
        <ele>2333.2</ele>
        <time>2024-08-11T11:52:17Z</time>
      </trkpt>
      <trkpt lat="44.92381" lon="6.509">
        <ele>2333.2</ele>
        <time>2024-08-11T11:52:18Z</time>
      </trkpt>
      <trkpt lat="44.92381" lon="6.509">
        <ele>2333.2</ele>
        <time>2024-08-11T11:52:19Z</time>
      </trkpt>
      <trkpt lat="44.92381" lon="6.509">
        <ele>2333.2</ele>
        <time>2024-08-11T11:52:20Z</time>
      </trkpt>
      <trkpt lat="44.92379" lon="6.50899">
        <ele>2333</ele>
        <time>2024-08-11T11:52:21Z</time>
      </trkpt>
      <trkpt lat="44.92379" lon="6.50899">
        <ele>2332.8</ele>
        <time>2024-08-11T11:52:22Z</time>
      </trkpt>
      <trkpt lat="44.92376" lon="6.50899">
        <ele>2332.8</ele>
        <time>2024-08-11T11:52:23Z</time>
      </trkpt>
      <trkpt lat="44.92376" lon="6.50899">
        <ele>2332.8</ele>
        <time>2024-08-11T11:52:24Z</time>
      </trkpt>
      <trkpt lat="44.92373" lon="6.509">
        <ele>2332.6</ele>
        <time>2024-08-11T11:52:25Z</time>
      </trkpt>
      <trkpt lat="44.92373" lon="6.509">
        <ele>2332.6</ele>
        <time>2024-08-11T11:52:26Z</time>
      </trkpt>
      <trkpt lat="44.92371" lon="6.509">
        <ele>2332.6</ele>
        <time>2024-08-11T11:52:27Z</time>
      </trkpt>
      <trkpt lat="44.92371" lon="6.509">
        <ele>2332.4</ele>
        <time>2024-08-11T11:52:28Z</time>
      </trkpt>
      <trkpt lat="44.92369" lon="6.509">
        <ele>2332.4</ele>
        <time>2024-08-11T11:52:29Z</time>
      </trkpt>
      <trkpt lat="44.92369" lon="6.509">
        <ele>2332.2</ele>
        <time>2024-08-11T11:52:30Z</time>
      </trkpt>
      <trkpt lat="44.92369" lon="6.509">
        <ele>2332</ele>
        <time>2024-08-11T11:52:31Z</time>
      </trkpt>
      <trkpt lat="44.92367" lon="6.50899">
        <ele>2331.8</ele>
        <time>2024-08-11T11:52:32Z</time>
      </trkpt>
      <trkpt lat="44.92367" lon="6.50899">
        <ele>2331.4</ele>
        <time>2024-08-11T11:52:33Z</time>
      </trkpt>
      <trkpt lat="44.92365" lon="6.50898">
        <ele>2331.2</ele>
        <time>2024-08-11T11:52:34Z</time>
      </trkpt>
      <trkpt lat="44.92365" lon="6.50898">
        <ele>2331</ele>
        <time>2024-08-11T11:52:35Z</time>
      </trkpt>
      <trkpt lat="44.92363" lon="6.50897">
        <ele>2330.8</ele>
        <time>2024-08-11T11:52:36Z</time>
      </trkpt>
      <trkpt lat="44.92363" lon="6.50897">
        <ele>2330.6</ele>
        <time>2024-08-11T11:52:37Z</time>
      </trkpt>
      <trkpt lat="44.9236" lon="6.50895">
        <ele>2330.4</ele>
        <time>2024-08-11T11:52:38Z</time>
      </trkpt>
      <trkpt lat="44.9236" lon="6.50895">
        <ele>2330.4</ele>
        <time>2024-08-11T11:52:39Z</time>
      </trkpt>
      <trkpt lat="44.92358" lon="6.50894">
        <ele>2330</ele>
        <time>2024-08-11T11:52:40Z</time>
      </trkpt>
      <trkpt lat="44.92358" lon="6.50894">
        <ele>2329.6</ele>
        <time>2024-08-11T11:52:41Z</time>
      </trkpt>
      <trkpt lat="44.92355" lon="6.50894">
        <ele>2329.2</ele>
        <time>2024-08-11T11:52:42Z</time>
      </trkpt>
      <trkpt lat="44.92355" lon="6.50894">
        <ele>2328.8</ele>
        <time>2024-08-11T11:52:43Z</time>
      </trkpt>
      <trkpt lat="44.92352" lon="6.50895">
        <ele>2328.6</ele>
        <time>2024-08-11T11:52:44Z</time>
      </trkpt>
      <trkpt lat="44.92352" lon="6.50895">
        <ele>2328.6</ele>
        <time>2024-08-11T11:52:45Z</time>
      </trkpt>
      <trkpt lat="44.9235" lon="6.50895">
        <ele>2328.4</ele>
        <time>2024-08-11T11:52:46Z</time>
      </trkpt>
      <trkpt lat="44.9235" lon="6.50895">
        <ele>2328.2</ele>
        <time>2024-08-11T11:52:47Z</time>
      </trkpt>
      <trkpt lat="44.92347" lon="6.50894">
        <ele>2327.8</ele>
        <time>2024-08-11T11:52:48Z</time>
      </trkpt>
      <trkpt lat="44.92347" lon="6.50894">
        <ele>2327.6</ele>
        <time>2024-08-11T11:52:49Z</time>
      </trkpt>
      <trkpt lat="44.92345" lon="6.50893">
        <ele>2327.4</ele>
        <time>2024-08-11T11:52:50Z</time>
      </trkpt>
      <trkpt lat="44.92345" lon="6.50893">
        <ele>2327.4</ele>
        <time>2024-08-11T11:52:51Z</time>
      </trkpt>
      <trkpt lat="44.92343" lon="6.50892">
        <ele>2327.2</ele>
        <time>2024-08-11T11:52:52Z</time>
      </trkpt>
      <trkpt lat="44.92343" lon="6.50892">
        <ele>2327</ele>
        <time>2024-08-11T11:52:53Z</time>
      </trkpt>
      <trkpt lat="44.92341" lon="6.50892">
        <ele>2326.8</ele>
        <time>2024-08-11T11:52:54Z</time>
      </trkpt>
      <trkpt lat="44.92341" lon="6.50892">
        <ele>2326.8</ele>
        <time>2024-08-11T11:52:55Z</time>
      </trkpt>
      <trkpt lat="44.92339" lon="6.5089">
        <ele>2326.6</ele>
        <time>2024-08-11T11:52:56Z</time>
      </trkpt>
      <trkpt lat="44.92339" lon="6.5089">
        <ele>2326.2</ele>
        <time>2024-08-11T11:52:57Z</time>
      </trkpt>
      <trkpt lat="44.92336" lon="6.50889">
        <ele>2325.8</ele>
        <time>2024-08-11T11:52:58Z</time>
      </trkpt>
      <trkpt lat="44.92336" lon="6.50889">
        <ele>2325.6</ele>
        <time>2024-08-11T11:52:59Z</time>
      </trkpt>
      <trkpt lat="44.92334" lon="6.50888">
        <ele>2325.4</ele>
        <time>2024-08-11T11:53:00Z</time>
      </trkpt>
      <trkpt lat="44.92334" lon="6.50888">
        <ele>2325.4</ele>
        <time>2024-08-11T11:53:01Z</time>
      </trkpt>
      <trkpt lat="44.92332" lon="6.50888">
        <ele>2325.4</ele>
        <time>2024-08-11T11:53:02Z</time>
      </trkpt>
      <trkpt lat="44.92332" lon="6.50888">
        <ele>2325.4</ele>
        <time>2024-08-11T11:53:03Z</time>
      </trkpt>
      <trkpt lat="44.92329" lon="6.50887">
        <ele>2325.6</ele>
        <time>2024-08-11T11:53:04Z</time>
      </trkpt>
      <trkpt lat="44.92329" lon="6.50887">
        <ele>2325.6</ele>
        <time>2024-08-11T11:53:05Z</time>
      </trkpt>
      <trkpt lat="44.92327" lon="6.50886">
        <ele>2325.2</ele>
        <time>2024-08-11T11:53:06Z</time>
      </trkpt>
      <trkpt lat="44.92327" lon="6.50886">
        <ele>2325.2</ele>
        <time>2024-08-11T11:53:07Z</time>
      </trkpt>
      <trkpt lat="44.92325" lon="6.50885">
        <ele>2325</ele>
        <time>2024-08-11T11:53:08Z</time>
      </trkpt>
      <trkpt lat="44.92325" lon="6.50885">
        <ele>2325</ele>
        <time>2024-08-11T11:53:09Z</time>
      </trkpt>
      <trkpt lat="44.92322" lon="6.50884">
        <ele>2324.8</ele>
        <time>2024-08-11T11:53:10Z</time>
      </trkpt>
      <trkpt lat="44.92322" lon="6.50884">
        <ele>2324.2</ele>
        <time>2024-08-11T11:53:11Z</time>
      </trkpt>
      <trkpt lat="44.92319" lon="6.50883">
        <ele>2323.6</ele>
        <time>2024-08-11T11:53:12Z</time>
      </trkpt>
      <trkpt lat="44.92319" lon="6.50883">
        <ele>2323.2</ele>
        <time>2024-08-11T11:53:13Z</time>
      </trkpt>
      <trkpt lat="44.92317" lon="6.50882">
        <ele>2323.2</ele>
        <time>2024-08-11T11:53:14Z</time>
      </trkpt>
      <trkpt lat="44.92317" lon="6.50882">
        <ele>2323</ele>
        <time>2024-08-11T11:53:15Z</time>
      </trkpt>
      <trkpt lat="44.92314" lon="6.50881">
        <ele>2322.8</ele>
        <time>2024-08-11T11:53:16Z</time>
      </trkpt>
      <trkpt lat="44.92314" lon="6.50881">
        <ele>2322.8</ele>
        <time>2024-08-11T11:53:17Z</time>
      </trkpt>
      <trkpt lat="44.92311" lon="6.5088">
        <ele>2322.2</ele>
        <time>2024-08-11T11:53:18Z</time>
      </trkpt>
      <trkpt lat="44.92311" lon="6.5088">
        <ele>2322.2</ele>
        <time>2024-08-11T11:53:19Z</time>
      </trkpt>
      <trkpt lat="44.92311" lon="6.5088">
        <ele>2322</ele>
        <time>2024-08-11T11:53:20Z</time>
      </trkpt>
      <trkpt lat="44.92309" lon="6.50881">
        <ele>2322</ele>
        <time>2024-08-11T11:53:21Z</time>
      </trkpt>
      <trkpt lat="44.92309" lon="6.50881">
        <ele>2321.8</ele>
        <time>2024-08-11T11:53:22Z</time>
      </trkpt>
      <trkpt lat="44.92307" lon="6.50879">
        <ele>2321.8</ele>
        <time>2024-08-11T11:53:23Z</time>
      </trkpt>
      <trkpt lat="44.92307" lon="6.50879">
        <ele>2321.6</ele>
        <time>2024-08-11T11:53:24Z</time>
      </trkpt>
      <trkpt lat="44.92305" lon="6.50877">
        <ele>2321.6</ele>
        <time>2024-08-11T11:53:25Z</time>
      </trkpt>
      <trkpt lat="44.92305" lon="6.50877">
        <ele>2321.4</ele>
        <time>2024-08-11T11:53:26Z</time>
      </trkpt>
      <trkpt lat="44.92302" lon="6.50876">
        <ele>2321.4</ele>
        <time>2024-08-11T11:53:27Z</time>
      </trkpt>
      <trkpt lat="44.92301" lon="6.50876">
        <ele>2321</ele>
        <time>2024-08-11T11:53:28Z</time>
      </trkpt>
      <trkpt lat="44.92301" lon="6.50876">
        <ele>2320.6</ele>
        <time>2024-08-11T11:53:29Z</time>
      </trkpt>
      <trkpt lat="44.92298" lon="6.50876">
        <ele>2320.4</ele>
        <time>2024-08-11T11:53:30Z</time>
      </trkpt>
      <trkpt lat="44.92298" lon="6.50876">
        <ele>2319.8</ele>
        <time>2024-08-11T11:53:31Z</time>
      </trkpt>
      <trkpt lat="44.92298" lon="6.50876">
        <ele>2319.6</ele>
        <time>2024-08-11T11:53:32Z</time>
      </trkpt>
      <trkpt lat="44.92298" lon="6.50876">
        <ele>2319.2</ele>
        <time>2024-08-11T11:53:33Z</time>
      </trkpt>
      <trkpt lat="44.92298" lon="6.50872">
        <ele>2318.8</ele>
        <time>2024-08-11T11:53:34Z</time>
      </trkpt>
      <trkpt lat="44.92298" lon="6.50872">
        <ele>2318.8</ele>
        <time>2024-08-11T11:53:35Z</time>
      </trkpt>
      <trkpt lat="44.92301" lon="6.5087">
        <ele>2318.8</ele>
        <time>2024-08-11T11:53:36Z</time>
      </trkpt>
      <trkpt lat="44.92301" lon="6.5087">
        <ele>2318.6</ele>
        <time>2024-08-11T11:53:37Z</time>
      </trkpt>
      <trkpt lat="44.92304" lon="6.50869">
        <ele>2318.4</ele>
        <time>2024-08-11T11:53:38Z</time>
      </trkpt>
      <trkpt lat="44.92304" lon="6.50869">
        <ele>2318</ele>
        <time>2024-08-11T11:53:39Z</time>
      </trkpt>
      <trkpt lat="44.92307" lon="6.50869">
        <ele>2318</ele>
        <time>2024-08-11T11:53:40Z</time>
      </trkpt>
      <trkpt lat="44.92307" lon="6.50869">
        <ele>2317.8</ele>
        <time>2024-08-11T11:53:41Z</time>
      </trkpt>
      <trkpt lat="44.92309" lon="6.50868">
        <ele>2317.4</ele>
        <time>2024-08-11T11:53:42Z</time>
      </trkpt>
      <trkpt lat="44.92309" lon="6.50868">
        <ele>2317.4</ele>
        <time>2024-08-11T11:53:43Z</time>
      </trkpt>
      <trkpt lat="44.92311" lon="6.50866">
        <ele>2317.2</ele>
        <time>2024-08-11T11:53:44Z</time>
      </trkpt>
      <trkpt lat="44.92311" lon="6.50866">
        <ele>2317</ele>
        <time>2024-08-11T11:53:45Z</time>
      </trkpt>
      <trkpt lat="44.92313" lon="6.50864">
        <ele>2316.8</ele>
        <time>2024-08-11T11:53:46Z</time>
      </trkpt>
      <trkpt lat="44.92313" lon="6.50864">
        <ele>2316.4</ele>
        <time>2024-08-11T11:53:47Z</time>
      </trkpt>
      <trkpt lat="44.92315" lon="6.50862">
        <ele>2316.2</ele>
        <time>2024-08-11T11:53:48Z</time>
      </trkpt>
      <trkpt lat="44.92315" lon="6.50862">
        <ele>2316</ele>
        <time>2024-08-11T11:53:49Z</time>
      </trkpt>
      <trkpt lat="44.92317" lon="6.5086">
        <ele>2315.8</ele>
        <time>2024-08-11T11:53:50Z</time>
      </trkpt>
      <trkpt lat="44.92317" lon="6.5086">
        <ele>2315.2</ele>
        <time>2024-08-11T11:53:51Z</time>
      </trkpt>
      <trkpt lat="44.92319" lon="6.50859">
        <ele>2314.6</ele>
        <time>2024-08-11T11:53:52Z</time>
      </trkpt>
      <trkpt lat="44.92319" lon="6.50859">
        <ele>2314.4</ele>
        <time>2024-08-11T11:53:53Z</time>
      </trkpt>
      <trkpt lat="44.92322" lon="6.50857">
        <ele>2314.4</ele>
        <time>2024-08-11T11:53:54Z</time>
      </trkpt>
      <trkpt lat="44.92322" lon="6.50857">
        <ele>2314.2</ele>
        <time>2024-08-11T11:53:55Z</time>
      </trkpt>
      <trkpt lat="44.92324" lon="6.50855">
        <ele>2314</ele>
        <time>2024-08-11T11:53:56Z</time>
      </trkpt>
      <trkpt lat="44.92324" lon="6.50855">
        <ele>2313.8</ele>
        <time>2024-08-11T11:53:57Z</time>
      </trkpt>
      <trkpt lat="44.92326" lon="6.50854">
        <ele>2313.8</ele>
        <time>2024-08-11T11:53:58Z</time>
      </trkpt>
      <trkpt lat="44.92326" lon="6.50854">
        <ele>2313.4</ele>
        <time>2024-08-11T11:53:59Z</time>
      </trkpt>
      <trkpt lat="44.92328" lon="6.50853">
        <ele>2313</ele>
        <time>2024-08-11T11:54:00Z</time>
      </trkpt>
      <trkpt lat="44.92328" lon="6.50853">
        <ele>2312.8</ele>
        <time>2024-08-11T11:54:01Z</time>
      </trkpt>
      <trkpt lat="44.92331" lon="6.50852">
        <ele>2312.4</ele>
        <time>2024-08-11T11:54:02Z</time>
      </trkpt>
      <trkpt lat="44.92331" lon="6.50852">
        <ele>2312.4</ele>
        <time>2024-08-11T11:54:03Z</time>
      </trkpt>
      <trkpt lat="44.92334" lon="6.50851">
        <ele>2312.2</ele>
        <time>2024-08-11T11:54:04Z</time>
      </trkpt>
      <trkpt lat="44.92334" lon="6.50851">
        <ele>2312.2</ele>
        <time>2024-08-11T11:54:05Z</time>
      </trkpt>
      <trkpt lat="44.92334" lon="6.50851">
        <ele>2311.6</ele>
        <time>2024-08-11T11:54:06Z</time>
      </trkpt>
      <trkpt lat="44.92337" lon="6.50849">
        <ele>2311.6</ele>
        <time>2024-08-11T11:54:07Z</time>
      </trkpt>
      <trkpt lat="44.92337" lon="6.50849">
        <ele>2311.6</ele>
        <time>2024-08-11T11:54:08Z</time>
      </trkpt>
      <trkpt lat="44.92338" lon="6.50847">
        <ele>2311.4</ele>
        <time>2024-08-11T11:54:09Z</time>
      </trkpt>
      <trkpt lat="44.92338" lon="6.50847">
        <ele>2311</ele>
        <time>2024-08-11T11:54:10Z</time>
      </trkpt>
      <trkpt lat="44.92341" lon="6.50846">
        <ele>2310.8</ele>
        <time>2024-08-11T11:54:11Z</time>
      </trkpt>
      <trkpt lat="44.92341" lon="6.50846">
        <ele>2310.8</ele>
        <time>2024-08-11T11:54:12Z</time>
      </trkpt>
      <trkpt lat="44.92343" lon="6.50844">
        <ele>2310.6</ele>
        <time>2024-08-11T11:54:13Z</time>
      </trkpt>
      <trkpt lat="44.92343" lon="6.50844">
        <ele>2310.4</ele>
        <time>2024-08-11T11:54:14Z</time>
      </trkpt>
      <trkpt lat="44.92345" lon="6.50842">
        <ele>2310</ele>
        <time>2024-08-11T11:54:15Z</time>
      </trkpt>
      <trkpt lat="44.92345" lon="6.50842">
        <ele>2310</ele>
        <time>2024-08-11T11:54:16Z</time>
      </trkpt>
      <trkpt lat="44.92347" lon="6.5084">
        <ele>2309.8</ele>
        <time>2024-08-11T11:54:17Z</time>
      </trkpt>
      <trkpt lat="44.92347" lon="6.5084">
        <ele>2309.8</ele>
        <time>2024-08-11T11:54:18Z</time>
      </trkpt>
      <trkpt lat="44.92349" lon="6.50837">
        <ele>2309.8</ele>
        <time>2024-08-11T11:54:19Z</time>
      </trkpt>
      <trkpt lat="44.92349" lon="6.50837">
        <ele>2309.2</ele>
        <time>2024-08-11T11:54:20Z</time>
      </trkpt>
      <trkpt lat="44.92351" lon="6.50835">
        <ele>2309.2</ele>
        <time>2024-08-11T11:54:21Z</time>
      </trkpt>
      <trkpt lat="44.92351" lon="6.50835">
        <ele>2309.2</ele>
        <time>2024-08-11T11:54:22Z</time>
      </trkpt>
      <trkpt lat="44.92353" lon="6.50833">
        <ele>2309.2</ele>
        <time>2024-08-11T11:54:23Z</time>
      </trkpt>
      <trkpt lat="44.92353" lon="6.50833">
        <ele>2309</ele>
        <time>2024-08-11T11:54:24Z</time>
      </trkpt>
      <trkpt lat="44.92355" lon="6.50831">
        <ele>2308.8</ele>
        <time>2024-08-11T11:54:25Z</time>
      </trkpt>
      <trkpt lat="44.92355" lon="6.50831">
        <ele>2308.6</ele>
        <time>2024-08-11T11:54:26Z</time>
      </trkpt>
      <trkpt lat="44.92357" lon="6.50829">
        <ele>2308.4</ele>
        <time>2024-08-11T11:54:27Z</time>
      </trkpt>
      <trkpt lat="44.92357" lon="6.50829">
        <ele>2308.2</ele>
        <time>2024-08-11T11:54:28Z</time>
      </trkpt>
      <trkpt lat="44.92359" lon="6.50828">
        <ele>2308</ele>
        <time>2024-08-11T11:54:29Z</time>
      </trkpt>
      <trkpt lat="44.92359" lon="6.50828">
        <ele>2307.6</ele>
        <time>2024-08-11T11:54:30Z</time>
      </trkpt>
      <trkpt lat="44.92361" lon="6.50827">
        <ele>2307.4</ele>
        <time>2024-08-11T11:54:31Z</time>
      </trkpt>
      <trkpt lat="44.92361" lon="6.50827">
        <ele>2307.2</ele>
        <time>2024-08-11T11:54:32Z</time>
      </trkpt>
      <trkpt lat="44.92362" lon="6.50825">
        <ele>2307.2</ele>
        <time>2024-08-11T11:54:33Z</time>
      </trkpt>
      <trkpt lat="44.92362" lon="6.50825">
        <ele>2307</ele>
        <time>2024-08-11T11:54:34Z</time>
      </trkpt>
      <trkpt lat="44.92363" lon="6.50822">
        <ele>2306.8</ele>
        <time>2024-08-11T11:54:35Z</time>
      </trkpt>
      <trkpt lat="44.92363" lon="6.50822">
        <ele>2306.6</ele>
        <time>2024-08-11T11:54:36Z</time>
      </trkpt>
      <trkpt lat="44.92366" lon="6.50821">
        <ele>2306</ele>
        <time>2024-08-11T11:54:37Z</time>
      </trkpt>
      <trkpt lat="44.92366" lon="6.50821">
        <ele>2306</ele>
        <time>2024-08-11T11:54:38Z</time>
      </trkpt>
      <trkpt lat="44.92368" lon="6.5082">
        <ele>2306</ele>
        <time>2024-08-11T11:54:39Z</time>
      </trkpt>
      <trkpt lat="44.92368" lon="6.5082">
        <ele>2305.8</ele>
        <time>2024-08-11T11:54:40Z</time>
      </trkpt>
      <trkpt lat="44.9237" lon="6.50819">
        <ele>2305.6</ele>
        <time>2024-08-11T11:54:41Z</time>
      </trkpt>
      <trkpt lat="44.9237" lon="6.50819">
        <ele>2305.6</ele>
        <time>2024-08-11T11:54:42Z</time>
      </trkpt>
      <trkpt lat="44.92372" lon="6.50817">
        <ele>2305.4</ele>
        <time>2024-08-11T11:54:43Z</time>
      </trkpt>
      <trkpt lat="44.92372" lon="6.50817">
        <ele>2305</ele>
        <time>2024-08-11T11:54:44Z</time>
      </trkpt>
      <trkpt lat="44.92374" lon="6.50816">
        <ele>2305</ele>
        <time>2024-08-11T11:54:45Z</time>
      </trkpt>
      <trkpt lat="44.92374" lon="6.50816">
        <ele>2304.8</ele>
        <time>2024-08-11T11:54:46Z</time>
      </trkpt>
      <trkpt lat="44.92376" lon="6.50814">
        <ele>2304.6</ele>
        <time>2024-08-11T11:54:47Z</time>
      </trkpt>
      <trkpt lat="44.92376" lon="6.50814">
        <ele>2304.4</ele>
        <time>2024-08-11T11:54:48Z</time>
      </trkpt>
      <trkpt lat="44.92378" lon="6.50812">
        <ele>2304.4</ele>
        <time>2024-08-11T11:54:49Z</time>
      </trkpt>
      <trkpt lat="44.92378" lon="6.50812">
        <ele>2304.2</ele>
        <time>2024-08-11T11:54:50Z</time>
      </trkpt>
      <trkpt lat="44.92381" lon="6.50809">
        <ele>2304</ele>
        <time>2024-08-11T11:54:51Z</time>
      </trkpt>
      <trkpt lat="44.92381" lon="6.50809">
        <ele>2303.8</ele>
        <time>2024-08-11T11:54:52Z</time>
      </trkpt>
      <trkpt lat="44.92382" lon="6.50807">
        <ele>2303.6</ele>
        <time>2024-08-11T11:54:53Z</time>
      </trkpt>
      <trkpt lat="44.92382" lon="6.50807">
        <ele>2303.4</ele>
        <time>2024-08-11T11:54:54Z</time>
      </trkpt>
      <trkpt lat="44.92384" lon="6.50805">
        <ele>2303.4</ele>
        <time>2024-08-11T11:54:55Z</time>
      </trkpt>
      <trkpt lat="44.92384" lon="6.50805">
        <ele>2302.8</ele>
        <time>2024-08-11T11:54:56Z</time>
      </trkpt>
      <trkpt lat="44.92385" lon="6.50802">
        <ele>2302.8</ele>
        <time>2024-08-11T11:54:57Z</time>
      </trkpt>
      <trkpt lat="44.92385" lon="6.50802">
        <ele>2302.6</ele>
        <time>2024-08-11T11:54:58Z</time>
      </trkpt>
      <trkpt lat="44.92387" lon="6.508">
        <ele>2302.2</ele>
        <time>2024-08-11T11:54:59Z</time>
      </trkpt>
      <trkpt lat="44.92387" lon="6.508">
        <ele>2302.2</ele>
        <time>2024-08-11T11:55:00Z</time>
      </trkpt>
      <trkpt lat="44.9239" lon="6.50799">
        <ele>2301.8</ele>
        <time>2024-08-11T11:55:01Z</time>
      </trkpt>
      <trkpt lat="44.9239" lon="6.50799">
        <ele>2301.4</ele>
        <time>2024-08-11T11:55:02Z</time>
      </trkpt>
      <trkpt lat="44.92392" lon="6.50798">
        <ele>2301.4</ele>
        <time>2024-08-11T11:55:03Z</time>
      </trkpt>
      <trkpt lat="44.92392" lon="6.50798">
        <ele>2301.2</ele>
        <time>2024-08-11T11:55:04Z</time>
      </trkpt>
      <trkpt lat="44.92393" lon="6.50795">
        <ele>2301</ele>
        <time>2024-08-11T11:55:05Z</time>
      </trkpt>
      <trkpt lat="44.92393" lon="6.50795">
        <ele>2300.8</ele>
        <time>2024-08-11T11:55:06Z</time>
      </trkpt>
      <trkpt lat="44.92393" lon="6.50791">
        <ele>2300.8</ele>
        <time>2024-08-11T11:55:07Z</time>
      </trkpt>
      <trkpt lat="44.92393" lon="6.50791">
        <ele>2300.8</ele>
        <time>2024-08-11T11:55:08Z</time>
      </trkpt>
      <trkpt lat="44.92394" lon="6.50788">
        <ele>2300.4</ele>
        <time>2024-08-11T11:55:09Z</time>
      </trkpt>
      <trkpt lat="44.92394" lon="6.50788">
        <ele>2300.4</ele>
        <time>2024-08-11T11:55:10Z</time>
      </trkpt>
      <trkpt lat="44.92394" lon="6.50784">
        <ele>2300.4</ele>
        <time>2024-08-11T11:55:11Z</time>
      </trkpt>
      <trkpt lat="44.92394" lon="6.50784">
        <ele>2300.2</ele>
        <time>2024-08-11T11:55:12Z</time>
      </trkpt>
      <trkpt lat="44.92394" lon="6.50781">
        <ele>2300.2</ele>
        <time>2024-08-11T11:55:13Z</time>
      </trkpt>
      <trkpt lat="44.92394" lon="6.50781">
        <ele>2300</ele>
        <time>2024-08-11T11:55:14Z</time>
      </trkpt>
      <trkpt lat="44.92394" lon="6.50781">
        <ele>2299.6</ele>
        <time>2024-08-11T11:55:15Z</time>
      </trkpt>
      <trkpt lat="44.92393" lon="6.50777">
        <ele>2299.6</ele>
        <time>2024-08-11T11:55:16Z</time>
      </trkpt>
      <trkpt lat="44.92393" lon="6.50777">
        <ele>2299.4</ele>
        <time>2024-08-11T11:55:17Z</time>
      </trkpt>
      <trkpt lat="44.92394" lon="6.50774">
        <ele>2299</ele>
        <time>2024-08-11T11:55:18Z</time>
      </trkpt>
      <trkpt lat="44.92394" lon="6.50774">
        <ele>2298.6</ele>
        <time>2024-08-11T11:55:19Z</time>
      </trkpt>
      <trkpt lat="44.92393" lon="6.50772">
        <ele>2298.6</ele>
        <time>2024-08-11T11:55:20Z</time>
      </trkpt>
      <trkpt lat="44.92393" lon="6.50772">
        <ele>2298.4</ele>
        <time>2024-08-11T11:55:21Z</time>
      </trkpt>
      <trkpt lat="44.92392" lon="6.50768">
        <ele>2298.4</ele>
        <time>2024-08-11T11:55:22Z</time>
      </trkpt>
      <trkpt lat="44.92392" lon="6.50768">
        <ele>2297.8</ele>
        <time>2024-08-11T11:55:23Z</time>
      </trkpt>
      <trkpt lat="44.92392" lon="6.50768">
        <ele>2297.6</ele>
        <time>2024-08-11T11:55:24Z</time>
      </trkpt>
      <trkpt lat="44.92392" lon="6.50768">
        <ele>2297.4</ele>
        <time>2024-08-11T11:55:25Z</time>
      </trkpt>
      <trkpt lat="44.92391" lon="6.50765">
        <ele>2297.4</ele>
        <time>2024-08-11T11:55:26Z</time>
      </trkpt>
      <trkpt lat="44.92391" lon="6.50765">
        <ele>2297.2</ele>
        <time>2024-08-11T11:55:27Z</time>
      </trkpt>
      <trkpt lat="44.92389" lon="6.50764">
        <ele>2297</ele>
        <time>2024-08-11T11:55:28Z</time>
      </trkpt>
      <trkpt lat="44.92389" lon="6.50764">
        <ele>2296.6</ele>
        <time>2024-08-11T11:55:29Z</time>
      </trkpt>
      <trkpt lat="44.92389" lon="6.50764">
        <ele>2296.4</ele>
        <time>2024-08-11T11:55:30Z</time>
      </trkpt>
      <trkpt lat="44.92387" lon="6.50767">
        <ele>2296.2</ele>
        <time>2024-08-11T11:55:31Z</time>
      </trkpt>
      <trkpt lat="44.92387" lon="6.50767">
        <ele>2296.2</ele>
        <time>2024-08-11T11:55:32Z</time>
      </trkpt>
      <trkpt lat="44.92385" lon="6.50769">
        <ele>2296</ele>
        <time>2024-08-11T11:55:33Z</time>
      </trkpt>
      <trkpt lat="44.92385" lon="6.50769">
        <ele>2295.8</ele>
        <time>2024-08-11T11:55:34Z</time>
      </trkpt>
      <trkpt lat="44.92382" lon="6.50771">
        <ele>2295.6</ele>
        <time>2024-08-11T11:55:35Z</time>
      </trkpt>
      <trkpt lat="44.92382" lon="6.50771">
        <ele>2295.2</ele>
        <time>2024-08-11T11:55:36Z</time>
      </trkpt>
      <trkpt lat="44.92382" lon="6.50771">
        <ele>2294.8</ele>
        <time>2024-08-11T11:55:37Z</time>
      </trkpt>
      <trkpt lat="44.92381" lon="6.50774">
        <ele>2294.2</ele>
        <time>2024-08-11T11:55:38Z</time>
      </trkpt>
      <trkpt lat="44.92381" lon="6.50774">
        <ele>2294</ele>
        <time>2024-08-11T11:55:39Z</time>
      </trkpt>
      <trkpt lat="44.92381" lon="6.50774">
        <ele>2293.6</ele>
        <time>2024-08-11T11:55:40Z</time>
      </trkpt>
      <trkpt lat="44.92379" lon="6.50775">
        <ele>2293.2</ele>
        <time>2024-08-11T11:55:41Z</time>
      </trkpt>
      <trkpt lat="44.92379" lon="6.50775">
        <ele>2293</ele>
        <time>2024-08-11T11:55:42Z</time>
      </trkpt>
      <trkpt lat="44.92376" lon="6.50775">
        <ele>2292.6</ele>
        <time>2024-08-11T11:55:43Z</time>
      </trkpt>
      <trkpt lat="44.92376" lon="6.50775">
        <ele>2292</ele>
        <time>2024-08-11T11:55:44Z</time>
      </trkpt>
      <trkpt lat="44.92374" lon="6.50775">
        <ele>2291.4</ele>
        <time>2024-08-11T11:55:45Z</time>
      </trkpt>
      <trkpt lat="44.92374" lon="6.50775">
        <ele>2291.4</ele>
        <time>2024-08-11T11:55:46Z</time>
      </trkpt>
      <trkpt lat="44.92373" lon="6.50775">
        <ele>2291.4</ele>
        <time>2024-08-11T11:55:47Z</time>
      </trkpt>
      <trkpt lat="44.92373" lon="6.50775">
        <ele>2291.2</ele>
        <time>2024-08-11T11:55:48Z</time>
      </trkpt>
      <trkpt lat="44.9237" lon="6.50776">
        <ele>2291.2</ele>
        <time>2024-08-11T11:55:49Z</time>
      </trkpt>
      <trkpt lat="44.9237" lon="6.50776">
        <ele>2291.2</ele>
        <time>2024-08-11T11:55:50Z</time>
      </trkpt>
      <trkpt lat="44.92368" lon="6.50777">
        <ele>2290.6</ele>
        <time>2024-08-11T11:55:51Z</time>
      </trkpt>
      <trkpt lat="44.92368" lon="6.50777">
        <ele>2290.6</ele>
        <time>2024-08-11T11:55:52Z</time>
      </trkpt>
      <trkpt lat="44.92366" lon="6.50777">
        <ele>2290.6</ele>
        <time>2024-08-11T11:55:53Z</time>
      </trkpt>
      <trkpt lat="44.92366" lon="6.50777">
        <ele>2290.2</ele>
        <time>2024-08-11T11:55:54Z</time>
      </trkpt>
      <trkpt lat="44.92363" lon="6.50775">
        <ele>2289.6</ele>
        <time>2024-08-11T11:55:55Z</time>
      </trkpt>
      <trkpt lat="44.92363" lon="6.50775">
        <ele>2289.6</ele>
        <time>2024-08-11T11:55:56Z</time>
      </trkpt>
      <trkpt lat="44.92363" lon="6.50775">
        <ele>2289.4</ele>
        <time>2024-08-11T11:55:57Z</time>
      </trkpt>
      <trkpt lat="44.9236" lon="6.50774">
        <ele>2289.2</ele>
        <time>2024-08-11T11:55:58Z</time>
      </trkpt>
      <trkpt lat="44.9236" lon="6.50774">
        <ele>2289.2</ele>
        <time>2024-08-11T11:55:59Z</time>
      </trkpt>
      <trkpt lat="44.92358" lon="6.50772">
        <ele>2289</ele>
        <time>2024-08-11T11:56:00Z</time>
      </trkpt>
      <trkpt lat="44.92358" lon="6.50772">
        <ele>2289</ele>
        <time>2024-08-11T11:56:01Z</time>
      </trkpt>
      <trkpt lat="44.92356" lon="6.50771">
        <ele>2288.4</ele>
        <time>2024-08-11T11:56:02Z</time>
      </trkpt>
      <trkpt lat="44.92356" lon="6.50771">
        <ele>2288.4</ele>
        <time>2024-08-11T11:56:03Z</time>
      </trkpt>
      <trkpt lat="44.92354" lon="6.5077">
        <ele>2288.2</ele>
        <time>2024-08-11T11:56:04Z</time>
      </trkpt>
      <trkpt lat="44.92354" lon="6.5077">
        <ele>2287.8</ele>
        <time>2024-08-11T11:56:05Z</time>
      </trkpt>
      <trkpt lat="44.92352" lon="6.50769">
        <ele>2287.4</ele>
        <time>2024-08-11T11:56:06Z</time>
      </trkpt>
      <trkpt lat="44.92352" lon="6.50769">
        <ele>2287.2</ele>
        <time>2024-08-11T11:56:07Z</time>
      </trkpt>
      <trkpt lat="44.92349" lon="6.50769">
        <ele>2287</ele>
        <time>2024-08-11T11:56:08Z</time>
      </trkpt>
      <trkpt lat="44.92349" lon="6.50769">
        <ele>2287</ele>
        <time>2024-08-11T11:56:09Z</time>
      </trkpt>
      <trkpt lat="44.92347" lon="6.50769">
        <ele>2287</ele>
        <time>2024-08-11T11:56:10Z</time>
      </trkpt>
      <trkpt lat="44.92347" lon="6.50769">
        <ele>2286.8</ele>
        <time>2024-08-11T11:56:11Z</time>
      </trkpt>
      <trkpt lat="44.92345" lon="6.50769">
        <ele>2286.4</ele>
        <time>2024-08-11T11:56:12Z</time>
      </trkpt>
      <trkpt lat="44.92345" lon="6.50769">
        <ele>2286.4</ele>
        <time>2024-08-11T11:56:13Z</time>
      </trkpt>
      <trkpt lat="44.92343" lon="6.50769">
        <ele>2285.8</ele>
        <time>2024-08-11T11:56:14Z</time>
      </trkpt>
      <trkpt lat="44.92343" lon="6.50769">
        <ele>2285.2</ele>
        <time>2024-08-11T11:56:15Z</time>
      </trkpt>
      <trkpt lat="44.92343" lon="6.50769">
        <ele>2285.2</ele>
        <time>2024-08-11T11:56:16Z</time>
      </trkpt>
      <trkpt lat="44.92342" lon="6.50771">
        <ele>2285</ele>
        <time>2024-08-11T11:56:17Z</time>
      </trkpt>
      <trkpt lat="44.92342" lon="6.50771">
        <ele>2284.8</ele>
        <time>2024-08-11T11:56:18Z</time>
      </trkpt>
      <trkpt lat="44.92339" lon="6.50771">
        <ele>2284.6</ele>
        <time>2024-08-11T11:56:19Z</time>
      </trkpt>
      <trkpt lat="44.92339" lon="6.50771">
        <ele>2284.2</ele>
        <time>2024-08-11T11:56:20Z</time>
      </trkpt>
      <trkpt lat="44.92337" lon="6.5077">
        <ele>2283.6</ele>
        <time>2024-08-11T11:56:21Z</time>
      </trkpt>
      <trkpt lat="44.92337" lon="6.5077">
        <ele>2283.6</ele>
        <time>2024-08-11T11:56:22Z</time>
      </trkpt>
      <trkpt lat="44.92335" lon="6.50768">
        <ele>2283.8</ele>
        <time>2024-08-11T11:56:23Z</time>
      </trkpt>
      <trkpt lat="44.92335" lon="6.50768">
        <ele>2283.8</ele>
        <time>2024-08-11T11:56:24Z</time>
      </trkpt>
      <trkpt lat="44.92333" lon="6.50767">
        <ele>2283.4</ele>
        <time>2024-08-11T11:56:25Z</time>
      </trkpt>
      <trkpt lat="44.92333" lon="6.50767">
        <ele>2283.4</ele>
        <time>2024-08-11T11:56:26Z</time>
      </trkpt>
      <trkpt lat="44.9233" lon="6.50765">
        <ele>2283.2</ele>
        <time>2024-08-11T11:56:27Z</time>
      </trkpt>
      <trkpt lat="44.9233" lon="6.50765">
        <ele>2282.8</ele>
        <time>2024-08-11T11:56:28Z</time>
      </trkpt>
      <trkpt lat="44.92327" lon="6.50765">
        <ele>2282.6</ele>
        <time>2024-08-11T11:56:29Z</time>
      </trkpt>
      <trkpt lat="44.92327" lon="6.50765">
        <ele>2282.6</ele>
        <time>2024-08-11T11:56:30Z</time>
      </trkpt>
      <trkpt lat="44.92325" lon="6.50766">
        <ele>2282.2</ele>
        <time>2024-08-11T11:56:31Z</time>
      </trkpt>
      <trkpt lat="44.92325" lon="6.50766">
        <ele>2281.8</ele>
        <time>2024-08-11T11:56:32Z</time>
      </trkpt>
      <trkpt lat="44.92323" lon="6.50767">
        <ele>2281.6</ele>
        <time>2024-08-11T11:56:33Z</time>
      </trkpt>
      <trkpt lat="44.92323" lon="6.50767">
        <ele>2281.6</ele>
        <time>2024-08-11T11:56:34Z</time>
      </trkpt>
      <trkpt lat="44.9232" lon="6.50767">
        <ele>2281.2</ele>
        <time>2024-08-11T11:56:35Z</time>
      </trkpt>
      <trkpt lat="44.9232" lon="6.50767">
        <ele>2281.2</ele>
        <time>2024-08-11T11:56:36Z</time>
      </trkpt>
      <trkpt lat="44.92317" lon="6.50768">
        <ele>2281</ele>
        <time>2024-08-11T11:56:37Z</time>
      </trkpt>
      <trkpt lat="44.92317" lon="6.50768">
        <ele>2280.6</ele>
        <time>2024-08-11T11:56:38Z</time>
      </trkpt>
      <trkpt lat="44.92315" lon="6.50768">
        <ele>2280.6</ele>
        <time>2024-08-11T11:56:39Z</time>
      </trkpt>
      <trkpt lat="44.92315" lon="6.50768">
        <ele>2280.2</ele>
        <time>2024-08-11T11:56:40Z</time>
      </trkpt>
      <trkpt lat="44.92313" lon="6.50769">
        <ele>2280</ele>
        <time>2024-08-11T11:56:41Z</time>
      </trkpt>
      <trkpt lat="44.92313" lon="6.50769">
        <ele>2279.8</ele>
        <time>2024-08-11T11:56:42Z</time>
      </trkpt>
      <trkpt lat="44.9231" lon="6.50768">
        <ele>2279.4</ele>
        <time>2024-08-11T11:56:43Z</time>
      </trkpt>
      <trkpt lat="44.9231" lon="6.50768">
        <ele>2279.2</ele>
        <time>2024-08-11T11:56:44Z</time>
      </trkpt>
      <trkpt lat="44.92308" lon="6.50768">
        <ele>2279</ele>
        <time>2024-08-11T11:56:45Z</time>
      </trkpt>
      <trkpt lat="44.92308" lon="6.50768">
        <ele>2279</ele>
        <time>2024-08-11T11:56:46Z</time>
      </trkpt>
      <trkpt lat="44.92305" lon="6.50767">
        <ele>2278.6</ele>
        <time>2024-08-11T11:56:47Z</time>
      </trkpt>
      <trkpt lat="44.92305" lon="6.50767">
        <ele>2278.6</ele>
        <time>2024-08-11T11:56:48Z</time>
      </trkpt>
      <trkpt lat="44.92303" lon="6.50765">
        <ele>2278.6</ele>
        <time>2024-08-11T11:56:49Z</time>
      </trkpt>
      <trkpt lat="44.92303" lon="6.50765">
        <ele>2278.4</ele>
        <time>2024-08-11T11:56:50Z</time>
      </trkpt>
      <trkpt lat="44.92301" lon="6.50764">
        <ele>2278.2</ele>
        <time>2024-08-11T11:56:51Z</time>
      </trkpt>
      <trkpt lat="44.92301" lon="6.50764">
        <ele>2278</ele>
        <time>2024-08-11T11:56:52Z</time>
      </trkpt>
      <trkpt lat="44.92299" lon="6.50762">
        <ele>2278</ele>
        <time>2024-08-11T11:56:53Z</time>
      </trkpt>
      <trkpt lat="44.92297" lon="6.50761">
        <ele>2277.8</ele>
        <time>2024-08-11T11:56:54Z</time>
      </trkpt>
      <trkpt lat="44.92297" lon="6.50761">
        <ele>2277.6</ele>
        <time>2024-08-11T11:56:55Z</time>
      </trkpt>
      <trkpt lat="44.92295" lon="6.50759">
        <ele>2277.6</ele>
        <time>2024-08-11T11:56:56Z</time>
      </trkpt>
      <trkpt lat="44.92295" lon="6.50759">
        <ele>2277.4</ele>
        <time>2024-08-11T11:56:57Z</time>
      </trkpt>
      <trkpt lat="44.92293" lon="6.50757">
        <ele>2276.8</ele>
        <time>2024-08-11T11:56:58Z</time>
      </trkpt>
      <trkpt lat="44.92293" lon="6.50757">
        <ele>2276.8</ele>
        <time>2024-08-11T11:56:59Z</time>
      </trkpt>
      <trkpt lat="44.92291" lon="6.50757">
        <ele>2276.6</ele>
        <time>2024-08-11T11:57:00Z</time>
      </trkpt>
      <trkpt lat="44.92291" lon="6.50757">
        <ele>2276.4</ele>
        <time>2024-08-11T11:57:01Z</time>
      </trkpt>
      <trkpt lat="44.92288" lon="6.50759">
        <ele>2276</ele>
        <time>2024-08-11T11:57:02Z</time>
      </trkpt>
      <trkpt lat="44.92288" lon="6.50759">
        <ele>2276</ele>
        <time>2024-08-11T11:57:03Z</time>
      </trkpt>
      <trkpt lat="44.92286" lon="6.5076">
        <ele>2276</ele>
        <time>2024-08-11T11:57:04Z</time>
      </trkpt>
      <trkpt lat="44.92286" lon="6.5076">
        <ele>2275.8</ele>
        <time>2024-08-11T11:57:05Z</time>
      </trkpt>
      <trkpt lat="44.92285" lon="6.5076">
        <ele>2275.8</ele>
        <time>2024-08-11T11:57:06Z</time>
      </trkpt>
      <trkpt lat="44.92285" lon="6.5076">
        <ele>2275.4</ele>
        <time>2024-08-11T11:57:07Z</time>
      </trkpt>
      <trkpt lat="44.92285" lon="6.5076">
        <ele>2275.4</ele>
        <time>2024-08-11T11:57:08Z</time>
      </trkpt>
      <trkpt lat="44.92285" lon="6.50757">
        <ele>2275.4</ele>
        <time>2024-08-11T11:57:09Z</time>
      </trkpt>
      <trkpt lat="44.92285" lon="6.50757">
        <ele>2275.2</ele>
        <time>2024-08-11T11:57:10Z</time>
      </trkpt>
      <trkpt lat="44.92285" lon="6.50754">
        <ele>2274.6</ele>
        <time>2024-08-11T11:57:11Z</time>
      </trkpt>
      <trkpt lat="44.92285" lon="6.50754">
        <ele>2274.4</ele>
        <time>2024-08-11T11:57:12Z</time>
      </trkpt>
      <trkpt lat="44.92286" lon="6.50751">
        <ele>2274.2</ele>
        <time>2024-08-11T11:57:13Z</time>
      </trkpt>
      <trkpt lat="44.92286" lon="6.50751">
        <ele>2273.8</ele>
        <time>2024-08-11T11:57:14Z</time>
      </trkpt>
      <trkpt lat="44.92287" lon="6.50747">
        <ele>2273.6</ele>
        <time>2024-08-11T11:57:15Z</time>
      </trkpt>
      <trkpt lat="44.92287" lon="6.50747">
        <ele>2273.4</ele>
        <time>2024-08-11T11:57:16Z</time>
      </trkpt>
      <trkpt lat="44.92289" lon="6.50745">
        <ele>2273.2</ele>
        <time>2024-08-11T11:57:17Z</time>
      </trkpt>
      <trkpt lat="44.92289" lon="6.50745">
        <ele>2273</ele>
        <time>2024-08-11T11:57:18Z</time>
      </trkpt>
      <trkpt lat="44.92291" lon="6.50744">
        <ele>2273</ele>
        <time>2024-08-11T11:57:19Z</time>
      </trkpt>
      <trkpt lat="44.92291" lon="6.50744">
        <ele>2272.8</ele>
        <time>2024-08-11T11:57:20Z</time>
      </trkpt>
      <trkpt lat="44.92293" lon="6.50742">
        <ele>2272.8</ele>
        <time>2024-08-11T11:57:21Z</time>
      </trkpt>
      <trkpt lat="44.92295" lon="6.50741">
        <ele>2272.4</ele>
        <time>2024-08-11T11:57:22Z</time>
      </trkpt>
      <trkpt lat="44.92295" lon="6.50741">
        <ele>2272.2</ele>
        <time>2024-08-11T11:57:23Z</time>
      </trkpt>
      <trkpt lat="44.92298" lon="6.50741">
        <ele>2272</ele>
        <time>2024-08-11T11:57:24Z</time>
      </trkpt>
      <trkpt lat="44.92298" lon="6.50741">
        <ele>2272</ele>
        <time>2024-08-11T11:57:25Z</time>
      </trkpt>
      <trkpt lat="44.92301" lon="6.50741">
        <ele>2271.6</ele>
        <time>2024-08-11T11:57:26Z</time>
      </trkpt>
      <trkpt lat="44.92301" lon="6.50741">
        <ele>2271.4</ele>
        <time>2024-08-11T11:57:27Z</time>
      </trkpt>
      <trkpt lat="44.92303" lon="6.50742">
        <ele>2271.2</ele>
        <time>2024-08-11T11:57:28Z</time>
      </trkpt>
      <trkpt lat="44.92303" lon="6.50742">
        <ele>2271.2</ele>
        <time>2024-08-11T11:57:29Z</time>
      </trkpt>
      <trkpt lat="44.92303" lon="6.50742">
        <ele>2271</ele>
        <time>2024-08-11T11:57:30Z</time>
      </trkpt>
      <trkpt lat="44.92307" lon="6.50743">
        <ele>2270.6</ele>
        <time>2024-08-11T11:57:31Z</time>
      </trkpt>
      <trkpt lat="44.92307" lon="6.50743">
        <ele>2270.6</ele>
        <time>2024-08-11T11:57:32Z</time>
      </trkpt>
      <trkpt lat="44.92309" lon="6.50743">
        <ele>2270.6</ele>
        <time>2024-08-11T11:57:33Z</time>
      </trkpt>
      <trkpt lat="44.92309" lon="6.50743">
        <ele>2270.6</ele>
        <time>2024-08-11T11:57:34Z</time>
      </trkpt>
      <trkpt lat="44.92311" lon="6.50742">
        <ele>2270.4</ele>
        <time>2024-08-11T11:57:35Z</time>
      </trkpt>
      <trkpt lat="44.92311" lon="6.50742">
        <ele>2270</ele>
        <time>2024-08-11T11:57:36Z</time>
      </trkpt>
      <trkpt lat="44.92313" lon="6.5074">
        <ele>2270</ele>
        <time>2024-08-11T11:57:37Z</time>
      </trkpt>
      <trkpt lat="44.92313" lon="6.5074">
        <ele>2269.8</ele>
        <time>2024-08-11T11:57:38Z</time>
      </trkpt>
      <trkpt lat="44.92315" lon="6.50738">
        <ele>2269.6</ele>
        <time>2024-08-11T11:57:39Z</time>
      </trkpt>
      <trkpt lat="44.92315" lon="6.50738">
        <ele>2269.4</ele>
        <time>2024-08-11T11:57:40Z</time>
      </trkpt>
      <trkpt lat="44.92317" lon="6.50735">
        <ele>2269.2</ele>
        <time>2024-08-11T11:57:41Z</time>
      </trkpt>
      <trkpt lat="44.92317" lon="6.50735">
        <ele>2269.2</ele>
        <time>2024-08-11T11:57:42Z</time>
      </trkpt>
      <trkpt lat="44.92318" lon="6.50733">
        <ele>2269</ele>
        <time>2024-08-11T11:57:43Z</time>
      </trkpt>
      <trkpt lat="44.92318" lon="6.50733">
        <ele>2268.6</ele>
        <time>2024-08-11T11:57:44Z</time>
      </trkpt>
      <trkpt lat="44.92319" lon="6.50731">
        <ele>2268.4</ele>
        <time>2024-08-11T11:57:45Z</time>
      </trkpt>
      <trkpt lat="44.92319" lon="6.50731">
        <ele>2268</ele>
        <time>2024-08-11T11:57:46Z</time>
      </trkpt>
      <trkpt lat="44.92321" lon="6.50729">
        <ele>2267.8</ele>
        <time>2024-08-11T11:57:47Z</time>
      </trkpt>
      <trkpt lat="44.92321" lon="6.50729">
        <ele>2267.6</ele>
        <time>2024-08-11T11:57:48Z</time>
      </trkpt>
      <trkpt lat="44.92323" lon="6.50728">
        <ele>2267.4</ele>
        <time>2024-08-11T11:57:49Z</time>
      </trkpt>
      <trkpt lat="44.92323" lon="6.50728">
        <ele>2267</ele>
        <time>2024-08-11T11:57:50Z</time>
      </trkpt>
      <trkpt lat="44.92325" lon="6.50727">
        <ele>2266.8</ele>
        <time>2024-08-11T11:57:51Z</time>
      </trkpt>
      <trkpt lat="44.92325" lon="6.50727">
        <ele>2266.2</ele>
        <time>2024-08-11T11:57:52Z</time>
      </trkpt>
      <trkpt lat="44.92327" lon="6.50727">
        <ele>2266.2</ele>
        <time>2024-08-11T11:57:53Z</time>
      </trkpt>
      <trkpt lat="44.92327" lon="6.50727">
        <ele>2266</ele>
        <time>2024-08-11T11:57:54Z</time>
      </trkpt>
      <trkpt lat="44.92327" lon="6.50727">
        <ele>2265.6</ele>
        <time>2024-08-11T11:57:55Z</time>
      </trkpt>
      <trkpt lat="44.92329" lon="6.50725">
        <ele>2265.4</ele>
        <time>2024-08-11T11:57:56Z</time>
      </trkpt>
      <trkpt lat="44.92329" lon="6.50725">
        <ele>2265.2</ele>
        <time>2024-08-11T11:57:57Z</time>
      </trkpt>
      <trkpt lat="44.92327" lon="6.50723">
        <ele>2265</ele>
        <time>2024-08-11T11:57:58Z</time>
      </trkpt>
      <trkpt lat="44.92327" lon="6.50723">
        <ele>2265</ele>
        <time>2024-08-11T11:57:59Z</time>
      </trkpt>
      <trkpt lat="44.92325" lon="6.50722">
        <ele>2264.6</ele>
        <time>2024-08-11T11:58:00Z</time>
      </trkpt>
      <trkpt lat="44.92325" lon="6.50722">
        <ele>2264.4</ele>
        <time>2024-08-11T11:58:01Z</time>
      </trkpt>
      <trkpt lat="44.92323" lon="6.50721">
        <ele>2263.6</ele>
        <time>2024-08-11T11:58:02Z</time>
      </trkpt>
      <trkpt lat="44.92323" lon="6.50721">
        <ele>2263.6</ele>
        <time>2024-08-11T11:58:03Z</time>
      </trkpt>
      <trkpt lat="44.92321" lon="6.50721">
        <ele>2263.4</ele>
        <time>2024-08-11T11:58:04Z</time>
      </trkpt>
      <trkpt lat="44.92321" lon="6.50721">
        <ele>2263.4</ele>
        <time>2024-08-11T11:58:05Z</time>
      </trkpt>
      <trkpt lat="44.92319" lon="6.50722">
        <ele>2263</ele>
        <time>2024-08-11T11:58:06Z</time>
      </trkpt>
      <trkpt lat="44.92319" lon="6.50722">
        <ele>2262.6</ele>
        <time>2024-08-11T11:58:07Z</time>
      </trkpt>
      <trkpt lat="44.92316" lon="6.50723">
        <ele>2262.4</ele>
        <time>2024-08-11T11:58:08Z</time>
      </trkpt>
      <trkpt lat="44.92316" lon="6.50723">
        <ele>2262.2</ele>
        <time>2024-08-11T11:58:09Z</time>
      </trkpt>
      <trkpt lat="44.92313" lon="6.50724">
        <ele>2261.8</ele>
        <time>2024-08-11T11:58:10Z</time>
      </trkpt>
      <trkpt lat="44.92313" lon="6.50724">
        <ele>2261.6</ele>
        <time>2024-08-11T11:58:11Z</time>
      </trkpt>
      <trkpt lat="44.92311" lon="6.50722">
        <ele>2261</ele>
        <time>2024-08-11T11:58:12Z</time>
      </trkpt>
      <trkpt lat="44.92311" lon="6.50722">
        <ele>2261</ele>
        <time>2024-08-11T11:58:13Z</time>
      </trkpt>
      <trkpt lat="44.92309" lon="6.50721">
        <ele>2261</ele>
        <time>2024-08-11T11:58:14Z</time>
      </trkpt>
      <trkpt lat="44.92309" lon="6.50721">
        <ele>2261</ele>
        <time>2024-08-11T11:58:15Z</time>
      </trkpt>
      <trkpt lat="44.92307" lon="6.50719">
        <ele>2260.6</ele>
        <time>2024-08-11T11:58:16Z</time>
      </trkpt>
      <trkpt lat="44.92307" lon="6.50719">
        <ele>2260.2</ele>
        <time>2024-08-11T11:58:17Z</time>
      </trkpt>
      <trkpt lat="44.92305" lon="6.50717">
        <ele>2260</ele>
        <time>2024-08-11T11:58:18Z</time>
      </trkpt>
      <trkpt lat="44.92305" lon="6.50717">
        <ele>2259.8</ele>
        <time>2024-08-11T11:58:19Z</time>
      </trkpt>
      <trkpt lat="44.92303" lon="6.50715">
        <ele>2259.4</ele>
        <time>2024-08-11T11:58:20Z</time>
      </trkpt>
      <trkpt lat="44.92303" lon="6.50715">
        <ele>2259</ele>
        <time>2024-08-11T11:58:21Z</time>
      </trkpt>
      <trkpt lat="44.92301" lon="6.50712">
        <ele>2258.6</ele>
        <time>2024-08-11T11:58:22Z</time>
      </trkpt>
      <trkpt lat="44.92301" lon="6.50712">
        <ele>2258.6</ele>
        <time>2024-08-11T11:58:23Z</time>
      </trkpt>
      <trkpt lat="44.92301" lon="6.5071">
        <ele>2258.6</ele>
        <time>2024-08-11T11:58:24Z</time>
      </trkpt>
      <trkpt lat="44.92301" lon="6.5071">
        <ele>2258.4</ele>
        <time>2024-08-11T11:58:25Z</time>
      </trkpt>
      <trkpt lat="44.92299" lon="6.50708">
        <ele>2258.2</ele>
        <time>2024-08-11T11:58:26Z</time>
      </trkpt>
      <trkpt lat="44.92299" lon="6.50708">
        <ele>2257.8</ele>
        <time>2024-08-11T11:58:27Z</time>
      </trkpt>
      <trkpt lat="44.92298" lon="6.50705">
        <ele>2257.6</ele>
        <time>2024-08-11T11:58:28Z</time>
      </trkpt>
      <trkpt lat="44.92298" lon="6.50705">
        <ele>2257.2</ele>
        <time>2024-08-11T11:58:29Z</time>
      </trkpt>
      <trkpt lat="44.92296" lon="6.50703">
        <ele>2256.8</ele>
        <time>2024-08-11T11:58:30Z</time>
      </trkpt>
      <trkpt lat="44.92296" lon="6.50703">
        <ele>2256.6</ele>
        <time>2024-08-11T11:58:31Z</time>
      </trkpt>
      <trkpt lat="44.92294" lon="6.50701">
        <ele>2256</ele>
        <time>2024-08-11T11:58:32Z</time>
      </trkpt>
      <trkpt lat="44.92294" lon="6.50701">
        <ele>2256</ele>
        <time>2024-08-11T11:58:33Z</time>
      </trkpt>
      <trkpt lat="44.92292" lon="6.507">
        <ele>2255.8</ele>
        <time>2024-08-11T11:58:34Z</time>
      </trkpt>
      <trkpt lat="44.92292" lon="6.507">
        <ele>2255.6</ele>
        <time>2024-08-11T11:58:35Z</time>
      </trkpt>
      <trkpt lat="44.9229" lon="6.50698">
        <ele>2255.4</ele>
        <time>2024-08-11T11:58:36Z</time>
      </trkpt>
      <trkpt lat="44.9229" lon="6.50698">
        <ele>2255.2</ele>
        <time>2024-08-11T11:58:37Z</time>
      </trkpt>
      <trkpt lat="44.92288" lon="6.50696">
        <ele>2255.2</ele>
        <time>2024-08-11T11:58:38Z</time>
      </trkpt>
      <trkpt lat="44.92288" lon="6.50696">
        <ele>2255</ele>
        <time>2024-08-11T11:58:39Z</time>
      </trkpt>
      <trkpt lat="44.92288" lon="6.50696">
        <ele>2254.6</ele>
        <time>2024-08-11T11:58:40Z</time>
      </trkpt>
      <trkpt lat="44.92285" lon="6.50694">
        <ele>2254.2</ele>
        <time>2024-08-11T11:58:41Z</time>
      </trkpt>
      <trkpt lat="44.92285" lon="6.50694">
        <ele>2254.2</ele>
        <time>2024-08-11T11:58:42Z</time>
      </trkpt>
      <trkpt lat="44.92283" lon="6.50693">
        <ele>2254</ele>
        <time>2024-08-11T11:58:43Z</time>
      </trkpt>
      <trkpt lat="44.92283" lon="6.50693">
        <ele>2253.8</ele>
        <time>2024-08-11T11:58:44Z</time>
      </trkpt>
      <trkpt lat="44.92281" lon="6.50693">
        <ele>2253.6</ele>
        <time>2024-08-11T11:58:45Z</time>
      </trkpt>
      <trkpt lat="44.92281" lon="6.50693">
        <ele>2253.4</ele>
        <time>2024-08-11T11:58:46Z</time>
      </trkpt>
      <trkpt lat="44.92278" lon="6.50692">
        <ele>2253.2</ele>
        <time>2024-08-11T11:58:47Z</time>
      </trkpt>
      <trkpt lat="44.92278" lon="6.50692">
        <ele>2252.8</ele>
        <time>2024-08-11T11:58:48Z</time>
      </trkpt>
      <trkpt lat="44.92276" lon="6.50691">
        <ele>2252.6</ele>
        <time>2024-08-11T11:58:49Z</time>
      </trkpt>
      <trkpt lat="44.92276" lon="6.50691">
        <ele>2252.2</ele>
        <time>2024-08-11T11:58:50Z</time>
      </trkpt>
      <trkpt lat="44.92274" lon="6.50691">
        <ele>2252.2</ele>
        <time>2024-08-11T11:58:51Z</time>
      </trkpt>
      <trkpt lat="44.92274" lon="6.50691">
        <ele>2252</ele>
        <time>2024-08-11T11:58:52Z</time>
      </trkpt>
      <trkpt lat="44.92272" lon="6.50691">
        <ele>2251.6</ele>
        <time>2024-08-11T11:58:53Z</time>
      </trkpt>
      <trkpt lat="44.92272" lon="6.50691">
        <ele>2251.4</ele>
        <time>2024-08-11T11:58:54Z</time>
      </trkpt>
      <trkpt lat="44.92269" lon="6.50689">
        <ele>2251.2</ele>
        <time>2024-08-11T11:58:55Z</time>
      </trkpt>
      <trkpt lat="44.92269" lon="6.50689">
        <ele>2251</ele>
        <time>2024-08-11T11:58:56Z</time>
      </trkpt>
      <trkpt lat="44.92267" lon="6.50689">
        <ele>2250.8</ele>
        <time>2024-08-11T11:58:57Z</time>
      </trkpt>
      <trkpt lat="44.92267" lon="6.50689">
        <ele>2250.6</ele>
        <time>2024-08-11T11:58:58Z</time>
      </trkpt>
      <trkpt lat="44.92265" lon="6.50689">
        <ele>2250.4</ele>
        <time>2024-08-11T11:58:59Z</time>
      </trkpt>
      <trkpt lat="44.92265" lon="6.50689">
        <ele>2250.2</ele>
        <time>2024-08-11T11:59:00Z</time>
      </trkpt>
      <trkpt lat="44.92263" lon="6.50689">
        <ele>2250</ele>
        <time>2024-08-11T11:59:01Z</time>
      </trkpt>
      <trkpt lat="44.92263" lon="6.50689">
        <ele>2249.6</ele>
        <time>2024-08-11T11:59:02Z</time>
      </trkpt>
      <trkpt lat="44.92261" lon="6.50687">
        <ele>2249.6</ele>
        <time>2024-08-11T11:59:03Z</time>
      </trkpt>
      <trkpt lat="44.92261" lon="6.50687">
        <ele>2249.4</ele>
        <time>2024-08-11T11:59:04Z</time>
      </trkpt>
      <trkpt lat="44.92259" lon="6.50686">
        <ele>2249.2</ele>
        <time>2024-08-11T11:59:05Z</time>
      </trkpt>
      <trkpt lat="44.92259" lon="6.50686">
        <ele>2249.2</ele>
        <time>2024-08-11T11:59:06Z</time>
      </trkpt>
      <trkpt lat="44.92257" lon="6.50685">
        <ele>2248.6</ele>
        <time>2024-08-11T11:59:07Z</time>
      </trkpt>
      <trkpt lat="44.92257" lon="6.50685">
        <ele>2248.2</ele>
        <time>2024-08-11T11:59:08Z</time>
      </trkpt>
      <trkpt lat="44.92257" lon="6.50685">
        <ele>2248.2</ele>
        <time>2024-08-11T11:59:09Z</time>
      </trkpt>
      <trkpt lat="44.92257" lon="6.50685">
        <ele>2248.2</ele>
        <time>2024-08-11T11:59:10Z</time>
      </trkpt>
      <trkpt lat="44.92254" lon="6.50683">
        <ele>2248.2</ele>
        <time>2024-08-11T11:59:11Z</time>
      </trkpt>
      <trkpt lat="44.92254" lon="6.50683">
        <ele>2248</ele>
        <time>2024-08-11T11:59:12Z</time>
      </trkpt>
      <trkpt lat="44.92253" lon="6.50681">
        <ele>2247.6</ele>
        <time>2024-08-11T11:59:13Z</time>
      </trkpt>
      <trkpt lat="44.92253" lon="6.50681">
        <ele>2247.4</ele>
        <time>2024-08-11T11:59:14Z</time>
      </trkpt>
      <trkpt lat="44.92251" lon="6.5068">
        <ele>2247.2</ele>
        <time>2024-08-11T11:59:15Z</time>
      </trkpt>
      <trkpt lat="44.92251" lon="6.5068">
        <ele>2247</ele>
        <time>2024-08-11T11:59:16Z</time>
      </trkpt>
      <trkpt lat="44.92249" lon="6.50679">
        <ele>2247</ele>
        <time>2024-08-11T11:59:17Z</time>
      </trkpt>
      <trkpt lat="44.92249" lon="6.50679">
        <ele>2246.6</ele>
        <time>2024-08-11T11:59:18Z</time>
      </trkpt>
      <trkpt lat="44.92247" lon="6.50678">
        <ele>2246.2</ele>
        <time>2024-08-11T11:59:19Z</time>
      </trkpt>
      <trkpt lat="44.92247" lon="6.50678">
        <ele>2246</ele>
        <time>2024-08-11T11:59:20Z</time>
      </trkpt>
      <trkpt lat="44.92245" lon="6.50677">
        <ele>2245.8</ele>
        <time>2024-08-11T11:59:21Z</time>
      </trkpt>
      <trkpt lat="44.92245" lon="6.50677">
        <ele>2245.6</ele>
        <time>2024-08-11T11:59:22Z</time>
      </trkpt>
      <trkpt lat="44.92242" lon="6.50675">
        <ele>2245.4</ele>
        <time>2024-08-11T11:59:23Z</time>
      </trkpt>
      <trkpt lat="44.92242" lon="6.50675">
        <ele>2245.4</ele>
        <time>2024-08-11T11:59:24Z</time>
      </trkpt>
      <trkpt lat="44.92239" lon="6.50673">
        <ele>2245.2</ele>
        <time>2024-08-11T11:59:25Z</time>
      </trkpt>
      <trkpt lat="44.92239" lon="6.50673">
        <ele>2245</ele>
        <time>2024-08-11T11:59:26Z</time>
      </trkpt>
      <trkpt lat="44.92237" lon="6.50673">
        <ele>2244.6</ele>
        <time>2024-08-11T11:59:27Z</time>
      </trkpt>
      <trkpt lat="44.92237" lon="6.50673">
        <ele>2244.4</ele>
        <time>2024-08-11T11:59:28Z</time>
      </trkpt>
      <trkpt lat="44.92235" lon="6.50672">
        <ele>2244.2</ele>
        <time>2024-08-11T11:59:29Z</time>
      </trkpt>
      <trkpt lat="44.92235" lon="6.50672">
        <ele>2244.2</ele>
        <time>2024-08-11T11:59:30Z</time>
      </trkpt>
      <trkpt lat="44.92233" lon="6.50671">
        <ele>2244</ele>
        <time>2024-08-11T11:59:31Z</time>
      </trkpt>
      <trkpt lat="44.92233" lon="6.50671">
        <ele>2243.8</ele>
        <time>2024-08-11T11:59:32Z</time>
      </trkpt>
      <trkpt lat="44.92231" lon="6.50669">
        <ele>2243.8</ele>
        <time>2024-08-11T11:59:33Z</time>
      </trkpt>
      <trkpt lat="44.92231" lon="6.50669">
        <ele>2243.8</ele>
        <time>2024-08-11T11:59:34Z</time>
      </trkpt>
      <trkpt lat="44.92229" lon="6.50667">
        <ele>2243.8</ele>
        <time>2024-08-11T11:59:35Z</time>
      </trkpt>
      <trkpt lat="44.92229" lon="6.50667">
        <ele>2243.4</ele>
        <time>2024-08-11T11:59:36Z</time>
      </trkpt>
      <trkpt lat="44.92228" lon="6.50664">
        <ele>2243.4</ele>
        <time>2024-08-11T11:59:37Z</time>
      </trkpt>
      <trkpt lat="44.92228" lon="6.50664">
        <ele>2243.4</ele>
        <time>2024-08-11T11:59:38Z</time>
      </trkpt>
      <trkpt lat="44.92226" lon="6.50662">
        <ele>2243.2</ele>
        <time>2024-08-11T11:59:39Z</time>
      </trkpt>
      <trkpt lat="44.92226" lon="6.50662">
        <ele>2243</ele>
        <time>2024-08-11T11:59:40Z</time>
      </trkpt>
      <trkpt lat="44.92224" lon="6.50661">
        <ele>2243</ele>
        <time>2024-08-11T11:59:41Z</time>
      </trkpt>
      <trkpt lat="44.92224" lon="6.50661">
        <ele>2242.8</ele>
        <time>2024-08-11T11:59:42Z</time>
      </trkpt>
      <trkpt lat="44.92222" lon="6.5066">
        <ele>2242.6</ele>
        <time>2024-08-11T11:59:43Z</time>
      </trkpt>
      <trkpt lat="44.92222" lon="6.5066">
        <ele>2242.6</ele>
        <time>2024-08-11T11:59:44Z</time>
      </trkpt>
      <trkpt lat="44.9222" lon="6.50658">
        <ele>2242.4</ele>
        <time>2024-08-11T11:59:45Z</time>
      </trkpt>
      <trkpt lat="44.9222" lon="6.50658">
        <ele>2242.4</ele>
        <time>2024-08-11T11:59:46Z</time>
      </trkpt>
      <trkpt lat="44.92218" lon="6.50656">
        <ele>2242.4</ele>
        <time>2024-08-11T11:59:47Z</time>
      </trkpt>
      <trkpt lat="44.92218" lon="6.50656">
        <ele>2242.2</ele>
        <time>2024-08-11T11:59:48Z</time>
      </trkpt>
      <trkpt lat="44.92217" lon="6.50653">
        <ele>2242</ele>
        <time>2024-08-11T11:59:49Z</time>
      </trkpt>
      <trkpt lat="44.92217" lon="6.50653">
        <ele>2241.8</ele>
        <time>2024-08-11T11:59:50Z</time>
      </trkpt>
      <trkpt lat="44.92216" lon="6.5065">
        <ele>2241.2</ele>
        <time>2024-08-11T11:59:51Z</time>
      </trkpt>
      <trkpt lat="44.92216" lon="6.5065">
        <ele>2241</ele>
        <time>2024-08-11T11:59:52Z</time>
      </trkpt>
      <trkpt lat="44.92215" lon="6.50647">
        <ele>2240.8</ele>
        <time>2024-08-11T11:59:53Z</time>
      </trkpt>
      <trkpt lat="44.92215" lon="6.50647">
        <ele>2240.8</ele>
        <time>2024-08-11T11:59:54Z</time>
      </trkpt>
      <trkpt lat="44.92214" lon="6.50644">
        <ele>2240.6</ele>
        <time>2024-08-11T11:59:55Z</time>
      </trkpt>
      <trkpt lat="44.92214" lon="6.50644">
        <ele>2240.4</ele>
        <time>2024-08-11T11:59:56Z</time>
      </trkpt>
      <trkpt lat="44.92212" lon="6.50641">
        <ele>2240.4</ele>
        <time>2024-08-11T11:59:57Z</time>
      </trkpt>
      <trkpt lat="44.92212" lon="6.50641">
        <ele>2240.2</ele>
        <time>2024-08-11T11:59:58Z</time>
      </trkpt>
      <trkpt lat="44.92211" lon="6.50638">
        <ele>2240.2</ele>
        <time>2024-08-11T11:59:59Z</time>
      </trkpt>
      <trkpt lat="44.92211" lon="6.50638">
        <ele>2240</ele>
        <time>2024-08-11T12:00:00Z</time>
      </trkpt>
      <trkpt lat="44.9221" lon="6.50635">
        <ele>2239.8</ele>
        <time>2024-08-11T12:00:01Z</time>
      </trkpt>
      <trkpt lat="44.9221" lon="6.50635">
        <ele>2239.4</ele>
        <time>2024-08-11T12:00:02Z</time>
      </trkpt>
      <trkpt lat="44.92208" lon="6.50634">
        <ele>2239.2</ele>
        <time>2024-08-11T12:00:03Z</time>
      </trkpt>
      <trkpt lat="44.92208" lon="6.50634">
        <ele>2239</ele>
        <time>2024-08-11T12:00:04Z</time>
      </trkpt>
      <trkpt lat="44.92207" lon="6.50631">
        <ele>2239</ele>
        <time>2024-08-11T12:00:05Z</time>
      </trkpt>
      <trkpt lat="44.92207" lon="6.50631">
        <ele>2238.4</ele>
        <time>2024-08-11T12:00:06Z</time>
      </trkpt>
      <trkpt lat="44.92205" lon="6.50629">
        <ele>2238</ele>
        <time>2024-08-11T12:00:07Z</time>
      </trkpt>
      <trkpt lat="44.92205" lon="6.50629">
        <ele>2237.8</ele>
        <time>2024-08-11T12:00:08Z</time>
      </trkpt>
      <trkpt lat="44.92203" lon="6.50627">
        <ele>2237.4</ele>
        <time>2024-08-11T12:00:09Z</time>
      </trkpt>
      <trkpt lat="44.92203" lon="6.50627">
        <ele>2237.4</ele>
        <time>2024-08-11T12:00:10Z</time>
      </trkpt>
      <trkpt lat="44.92201" lon="6.50626">
        <ele>2237.2</ele>
        <time>2024-08-11T12:00:11Z</time>
      </trkpt>
      <trkpt lat="44.92201" lon="6.50626">
        <ele>2237</ele>
        <time>2024-08-11T12:00:12Z</time>
      </trkpt>
      <trkpt lat="44.92199" lon="6.50624">
        <ele>2236.4</ele>
        <time>2024-08-11T12:00:13Z</time>
      </trkpt>
      <trkpt lat="44.92199" lon="6.50624">
        <ele>2236.4</ele>
        <time>2024-08-11T12:00:14Z</time>
      </trkpt>
      <trkpt lat="44.92197" lon="6.50622">
        <ele>2236.2</ele>
        <time>2024-08-11T12:00:15Z</time>
      </trkpt>
      <trkpt lat="44.92197" lon="6.50622">
        <ele>2236</ele>
        <time>2024-08-11T12:00:16Z</time>
      </trkpt>
      <trkpt lat="44.92196" lon="6.5062">
        <ele>2235.8</ele>
        <time>2024-08-11T12:00:17Z</time>
      </trkpt>
      <trkpt lat="44.92196" lon="6.5062">
        <ele>2235.8</ele>
        <time>2024-08-11T12:00:18Z</time>
      </trkpt>
      <trkpt lat="44.92194" lon="6.50619">
        <ele>2235.8</ele>
        <time>2024-08-11T12:00:19Z</time>
      </trkpt>
      <trkpt lat="44.92194" lon="6.50619">
        <ele>2235.8</ele>
        <time>2024-08-11T12:00:20Z</time>
      </trkpt>
      <trkpt lat="44.92192" lon="6.50616">
        <ele>2235.8</ele>
        <time>2024-08-11T12:00:21Z</time>
      </trkpt>
      <trkpt lat="44.92192" lon="6.50616">
        <ele>2235.8</ele>
        <time>2024-08-11T12:00:22Z</time>
      </trkpt>
      <trkpt lat="44.92191" lon="6.50614">
        <ele>2235.6</ele>
        <time>2024-08-11T12:00:23Z</time>
      </trkpt>
      <trkpt lat="44.92191" lon="6.50614">
        <ele>2235.2</ele>
        <time>2024-08-11T12:00:24Z</time>
      </trkpt>
      <trkpt lat="44.92189" lon="6.50612">
        <ele>2234.8</ele>
        <time>2024-08-11T12:00:25Z</time>
      </trkpt>
      <trkpt lat="44.92189" lon="6.50612">
        <ele>2234.6</ele>
        <time>2024-08-11T12:00:26Z</time>
      </trkpt>
      <trkpt lat="44.92188" lon="6.5061">
        <ele>2234.4</ele>
        <time>2024-08-11T12:00:27Z</time>
      </trkpt>
      <trkpt lat="44.92188" lon="6.5061">
        <ele>2234.2</ele>
        <time>2024-08-11T12:00:28Z</time>
      </trkpt>
      <trkpt lat="44.92185" lon="6.50608">
        <ele>2234</ele>
        <time>2024-08-11T12:00:29Z</time>
      </trkpt>
      <trkpt lat="44.92185" lon="6.50608">
        <ele>2234</ele>
        <time>2024-08-11T12:00:30Z</time>
      </trkpt>
      <trkpt lat="44.92185" lon="6.50608">
        <ele>2233.8</ele>
        <time>2024-08-11T12:00:31Z</time>
      </trkpt>
      <trkpt lat="44.92185" lon="6.50608">
        <ele>2233.8</ele>
        <time>2024-08-11T12:00:32Z</time>
      </trkpt>
      <trkpt lat="44.92185" lon="6.50608">
        <ele>2233.4</ele>
        <time>2024-08-11T12:00:33Z</time>
      </trkpt>
      <trkpt lat="44.92185" lon="6.50608">
        <ele>2233.4</ele>
        <time>2024-08-11T12:00:34Z</time>
      </trkpt>
      <trkpt lat="44.92185" lon="6.50608">
        <ele>2233.4</ele>
        <time>2024-08-11T12:00:35Z</time>
      </trkpt>
      <trkpt lat="44.92185" lon="6.50608">
        <ele>2233.4</ele>
        <time>2024-08-11T12:00:36Z</time>
      </trkpt>
      <trkpt lat="44.92185" lon="6.50608">
        <ele>2233.4</ele>
        <time>2024-08-11T12:00:37Z</time>
      </trkpt>
      <trkpt lat="44.92185" lon="6.50608">
        <ele>2233.6</ele>
        <time>2024-08-11T12:00:38Z</time>
      </trkpt>
      <trkpt lat="44.92185" lon="6.50608">
        <ele>2233.6</ele>
        <time>2024-08-11T12:00:39Z</time>
      </trkpt>
      <trkpt lat="44.92185" lon="6.50608">
        <ele>2233.6</ele>
        <time>2024-08-11T12:00:40Z</time>
      </trkpt>
      <trkpt lat="44.92185" lon="6.50608">
        <ele>2233.6</ele>
        <time>2024-08-11T12:00:41Z</time>
      </trkpt>
      <trkpt lat="44.92185" lon="6.50608">
        <ele>2233.8</ele>
        <time>2024-08-11T12:00:42Z</time>
      </trkpt>
      <trkpt lat="44.92185" lon="6.50608">
        <ele>2233.8</ele>
        <time>2024-08-11T12:00:43Z</time>
      </trkpt>
      <trkpt lat="44.92184" lon="6.50606">
        <ele>2233.4</ele>
        <time>2024-08-11T12:00:44Z</time>
      </trkpt>
      <trkpt lat="44.92184" lon="6.50606">
        <ele>2233.2</ele>
        <time>2024-08-11T12:00:45Z</time>
      </trkpt>
      <trkpt lat="44.92184" lon="6.50606">
        <ele>2233.2</ele>
        <time>2024-08-11T12:00:46Z</time>
      </trkpt>
      <trkpt lat="44.92187" lon="6.50604">
        <ele>2233</ele>
        <time>2024-08-11T12:00:47Z</time>
      </trkpt>
      <trkpt lat="44.92189" lon="6.50604">
        <ele>2233</ele>
        <time>2024-08-11T12:00:48Z</time>
      </trkpt>
      <trkpt lat="44.92189" lon="6.50604">
        <ele>2232.8</ele>
        <time>2024-08-11T12:00:49Z</time>
      </trkpt>
      <trkpt lat="44.92192" lon="6.50605">
        <ele>2232.6</ele>
        <time>2024-08-11T12:00:50Z</time>
      </trkpt>
      <trkpt lat="44.92192" lon="6.50605">
        <ele>2232.4</ele>
        <time>2024-08-11T12:00:51Z</time>
      </trkpt>
      <trkpt lat="44.92194" lon="6.50606">
        <ele>2232</ele>
        <time>2024-08-11T12:00:52Z</time>
      </trkpt>
      <trkpt lat="44.92194" lon="6.50606">
        <ele>2232</ele>
        <time>2024-08-11T12:00:53Z</time>
      </trkpt>
      <trkpt lat="44.92196" lon="6.50607">
        <ele>2232</ele>
        <time>2024-08-11T12:00:54Z</time>
      </trkpt>
      <trkpt lat="44.92196" lon="6.50607">
        <ele>2232</ele>
        <time>2024-08-11T12:00:55Z</time>
      </trkpt>
      <trkpt lat="44.92199" lon="6.50606">
        <ele>2231.8</ele>
        <time>2024-08-11T12:00:56Z</time>
      </trkpt>
      <trkpt lat="44.92199" lon="6.50606">
        <ele>2231.4</ele>
        <time>2024-08-11T12:00:57Z</time>
      </trkpt>
      <trkpt lat="44.92201" lon="6.50606">
        <ele>2231.4</ele>
        <time>2024-08-11T12:00:58Z</time>
      </trkpt>
      <trkpt lat="44.92201" lon="6.50606">
        <ele>2231.2</ele>
        <time>2024-08-11T12:00:59Z</time>
      </trkpt>
      <trkpt lat="44.92204" lon="6.50605">
        <ele>2230.8</ele>
        <time>2024-08-11T12:01:00Z</time>
      </trkpt>
      <trkpt lat="44.92204" lon="6.50605">
        <ele>2230.6</ele>
        <time>2024-08-11T12:01:01Z</time>
      </trkpt>
      <trkpt lat="44.92206" lon="6.50606">
        <ele>2230</ele>
        <time>2024-08-11T12:01:02Z</time>
      </trkpt>
      <trkpt lat="44.92206" lon="6.50606">
        <ele>2230</ele>
        <time>2024-08-11T12:01:03Z</time>
      </trkpt>
      <trkpt lat="44.92209" lon="6.50607">
        <ele>2230</ele>
        <time>2024-08-11T12:01:04Z</time>
      </trkpt>
      <trkpt lat="44.92209" lon="6.50607">
        <ele>2229.8</ele>
        <time>2024-08-11T12:01:05Z</time>
      </trkpt>
      <trkpt lat="44.9221" lon="6.50608">
        <ele>2229.6</ele>
        <time>2024-08-11T12:01:06Z</time>
      </trkpt>
      <trkpt lat="44.9221" lon="6.50608">
        <ele>2229.6</ele>
        <time>2024-08-11T12:01:07Z</time>
      </trkpt>
      <trkpt lat="44.92213" lon="6.50608">
        <ele>2229.4</ele>
        <time>2024-08-11T12:01:08Z</time>
      </trkpt>
      <trkpt lat="44.92213" lon="6.50608">
        <ele>2228.8</ele>
        <time>2024-08-11T12:01:09Z</time>
      </trkpt>
      <trkpt lat="44.92216" lon="6.50607">
        <ele>2228.8</ele>
        <time>2024-08-11T12:01:10Z</time>
      </trkpt>
      <trkpt lat="44.92216" lon="6.50607">
        <ele>2228.6</ele>
        <time>2024-08-11T12:01:11Z</time>
      </trkpt>
      <trkpt lat="44.92218" lon="6.50607">
        <ele>2228.6</ele>
        <time>2024-08-11T12:01:12Z</time>
      </trkpt>
      <trkpt lat="44.92218" lon="6.50607">
        <ele>2228.4</ele>
        <time>2024-08-11T12:01:13Z</time>
      </trkpt>
      <trkpt lat="44.92218" lon="6.50607">
        <ele>2228</ele>
        <time>2024-08-11T12:01:14Z</time>
      </trkpt>
      <trkpt lat="44.9222" lon="6.50608">
        <ele>2227.8</ele>
        <time>2024-08-11T12:01:15Z</time>
      </trkpt>
      <trkpt lat="44.9222" lon="6.50608">
        <ele>2227.6</ele>
        <time>2024-08-11T12:01:16Z</time>
      </trkpt>
      <trkpt lat="44.92223" lon="6.50608">
        <ele>2227.6</ele>
        <time>2024-08-11T12:01:17Z</time>
      </trkpt>
      <trkpt lat="44.92223" lon="6.50608">
        <ele>2227.6</ele>
        <time>2024-08-11T12:01:18Z</time>
      </trkpt>
      <trkpt lat="44.92223" lon="6.50608">
        <ele>2227.2</ele>
        <time>2024-08-11T12:01:19Z</time>
      </trkpt>
      <trkpt lat="44.92226" lon="6.50608">
        <ele>2226.8</ele>
        <time>2024-08-11T12:01:20Z</time>
      </trkpt>
      <trkpt lat="44.92226" lon="6.50608">
        <ele>2226.8</ele>
        <time>2024-08-11T12:01:21Z</time>
      </trkpt>
      <trkpt lat="44.92228" lon="6.50607">
        <ele>2226.8</ele>
        <time>2024-08-11T12:01:22Z</time>
      </trkpt>
      <trkpt lat="44.92228" lon="6.50607">
        <ele>2226.8</ele>
        <time>2024-08-11T12:01:23Z</time>
      </trkpt>
      <trkpt lat="44.92231" lon="6.50607">
        <ele>2226.2</ele>
        <time>2024-08-11T12:01:24Z</time>
      </trkpt>
      <trkpt lat="44.92231" lon="6.50607">
        <ele>2226</ele>
        <time>2024-08-11T12:01:25Z</time>
      </trkpt>
      <trkpt lat="44.92231" lon="6.50607">
        <ele>2225.8</ele>
        <time>2024-08-11T12:01:26Z</time>
      </trkpt>
      <trkpt lat="44.92234" lon="6.50607">
        <ele>2225.4</ele>
        <time>2024-08-11T12:01:27Z</time>
      </trkpt>
      <trkpt lat="44.92235" lon="6.50607">
        <ele>2225</ele>
        <time>2024-08-11T12:01:28Z</time>
      </trkpt>
      <trkpt lat="44.92235" lon="6.50607">
        <ele>2225</ele>
        <time>2024-08-11T12:01:29Z</time>
      </trkpt>
      <trkpt lat="44.92235" lon="6.50607">
        <ele>2225</ele>
        <time>2024-08-11T12:01:30Z</time>
      </trkpt>
      <trkpt lat="44.92238" lon="6.50607">
        <ele>2224.8</ele>
        <time>2024-08-11T12:01:31Z</time>
      </trkpt>
      <trkpt lat="44.92238" lon="6.50607">
        <ele>2224.8</ele>
        <time>2024-08-11T12:01:32Z</time>
      </trkpt>
      <trkpt lat="44.92238" lon="6.50607">
        <ele>2224.4</ele>
        <time>2024-08-11T12:01:33Z</time>
      </trkpt>
      <trkpt lat="44.9224" lon="6.50607">
        <ele>2224.4</ele>
        <time>2024-08-11T12:01:34Z</time>
      </trkpt>
      <trkpt lat="44.9224" lon="6.50607">
        <ele>2224.4</ele>
        <time>2024-08-11T12:01:35Z</time>
      </trkpt>
      <trkpt lat="44.9224" lon="6.50607">
        <ele>2224.4</ele>
        <time>2024-08-11T12:01:36Z</time>
      </trkpt>
      <trkpt lat="44.92242" lon="6.50606">
        <ele>2224.4</ele>
        <time>2024-08-11T12:01:37Z</time>
      </trkpt>
      <trkpt lat="44.92242" lon="6.50606">
        <ele>2223.8</ele>
        <time>2024-08-11T12:01:38Z</time>
      </trkpt>
      <trkpt lat="44.92242" lon="6.50606">
        <ele>2223.8</ele>
        <time>2024-08-11T12:01:39Z</time>
      </trkpt>
      <trkpt lat="44.92244" lon="6.50608">
        <ele>2223.6</ele>
        <time>2024-08-11T12:01:40Z</time>
      </trkpt>
      <trkpt lat="44.92244" lon="6.50608">
        <ele>2223.6</ele>
        <time>2024-08-11T12:01:41Z</time>
      </trkpt>
      <trkpt lat="44.92244" lon="6.50608">
        <ele>2223.6</ele>
        <time>2024-08-11T12:01:42Z</time>
      </trkpt>
      <trkpt lat="44.92246" lon="6.50608">
        <ele>2223.6</ele>
        <time>2024-08-11T12:01:43Z</time>
      </trkpt>
      <trkpt lat="44.92246" lon="6.50608">
        <ele>2223.4</ele>
        <time>2024-08-11T12:01:44Z</time>
      </trkpt>
      <trkpt lat="44.92246" lon="6.50608">
        <ele>2223.2</ele>
        <time>2024-08-11T12:01:45Z</time>
      </trkpt>
      <trkpt lat="44.92249" lon="6.50607">
        <ele>2223.2</ele>
        <time>2024-08-11T12:01:46Z</time>
      </trkpt>
      <trkpt lat="44.92249" lon="6.50607">
        <ele>2223.2</ele>
        <time>2024-08-11T12:01:47Z</time>
      </trkpt>
      <trkpt lat="44.92251" lon="6.50606">
        <ele>2223</ele>
        <time>2024-08-11T12:01:48Z</time>
      </trkpt>
      <trkpt lat="44.92251" lon="6.50606">
        <ele>2222.8</ele>
        <time>2024-08-11T12:01:49Z</time>
      </trkpt>
      <trkpt lat="44.92253" lon="6.50606">
        <ele>2222.8</ele>
        <time>2024-08-11T12:01:50Z</time>
      </trkpt>
      <trkpt lat="44.92253" lon="6.50606">
        <ele>2222.6</ele>
        <time>2024-08-11T12:01:51Z</time>
      </trkpt>
      <trkpt lat="44.92255" lon="6.50604">
        <ele>2222.4</ele>
        <time>2024-08-11T12:01:52Z</time>
      </trkpt>
      <trkpt lat="44.92255" lon="6.50604">
        <ele>2222.4</ele>
        <time>2024-08-11T12:01:53Z</time>
      </trkpt>
      <trkpt lat="44.92257" lon="6.50602">
        <ele>2222.2</ele>
        <time>2024-08-11T12:01:54Z</time>
      </trkpt>
      <trkpt lat="44.92257" lon="6.50602">
        <ele>2222</ele>
        <time>2024-08-11T12:01:55Z</time>
      </trkpt>
      <trkpt lat="44.92259" lon="6.506">
        <ele>2222</ele>
        <time>2024-08-11T12:01:56Z</time>
      </trkpt>
      <trkpt lat="44.92259" lon="6.506">
        <ele>2221.6</ele>
        <time>2024-08-11T12:01:57Z</time>
      </trkpt>
      <trkpt lat="44.9226" lon="6.50598">
        <ele>2221.6</ele>
        <time>2024-08-11T12:01:58Z</time>
      </trkpt>
      <trkpt lat="44.92261" lon="6.50597">
        <ele>2221.2</ele>
        <time>2024-08-11T12:01:59Z</time>
      </trkpt>
      <trkpt lat="44.92261" lon="6.50597">
        <ele>2221</ele>
        <time>2024-08-11T12:02:00Z</time>
      </trkpt>
      <trkpt lat="44.92264" lon="6.50596">
        <ele>2220.8</ele>
        <time>2024-08-11T12:02:01Z</time>
      </trkpt>
      <trkpt lat="44.92264" lon="6.50596">
        <ele>2220.6</ele>
        <time>2024-08-11T12:02:02Z</time>
      </trkpt>
      <trkpt lat="44.92265" lon="6.50595">
        <ele>2220.6</ele>
        <time>2024-08-11T12:02:03Z</time>
      </trkpt>
      <trkpt lat="44.92265" lon="6.50595">
        <ele>2220.6</ele>
        <time>2024-08-11T12:02:04Z</time>
      </trkpt>
      <trkpt lat="44.92267" lon="6.50594">
        <ele>2220.4</ele>
        <time>2024-08-11T12:02:05Z</time>
      </trkpt>
      <trkpt lat="44.92267" lon="6.50594">
        <ele>2220</ele>
        <time>2024-08-11T12:02:06Z</time>
      </trkpt>
      <trkpt lat="44.92269" lon="6.50593">
        <ele>2220</ele>
        <time>2024-08-11T12:02:07Z</time>
      </trkpt>
      <trkpt lat="44.92269" lon="6.50593">
        <ele>2220</ele>
        <time>2024-08-11T12:02:08Z</time>
      </trkpt>
      <trkpt lat="44.92272" lon="6.50593">
        <ele>2219.4</ele>
        <time>2024-08-11T12:02:09Z</time>
      </trkpt>
      <trkpt lat="44.92272" lon="6.50593">
        <ele>2219.4</ele>
        <time>2024-08-11T12:02:10Z</time>
      </trkpt>
      <trkpt lat="44.92274" lon="6.50592">
        <ele>2219.4</ele>
        <time>2024-08-11T12:02:11Z</time>
      </trkpt>
      <trkpt lat="44.92274" lon="6.50592">
        <ele>2219.4</ele>
        <time>2024-08-11T12:02:12Z</time>
      </trkpt>
      <trkpt lat="44.92277" lon="6.50591">
        <ele>2219</ele>
        <time>2024-08-11T12:02:13Z</time>
      </trkpt>
      <trkpt lat="44.92277" lon="6.50591">
        <ele>2218.8</ele>
        <time>2024-08-11T12:02:14Z</time>
      </trkpt>
      <trkpt lat="44.92279" lon="6.50591">
        <ele>2218.6</ele>
        <time>2024-08-11T12:02:15Z</time>
      </trkpt>
      <trkpt lat="44.92279" lon="6.50591">
        <ele>2218.4</ele>
        <time>2024-08-11T12:02:16Z</time>
      </trkpt>
      <trkpt lat="44.92281" lon="6.5059">
        <ele>2218.4</ele>
        <time>2024-08-11T12:02:17Z</time>
      </trkpt>
      <trkpt lat="44.92281" lon="6.5059">
        <ele>2218.2</ele>
        <time>2024-08-11T12:02:18Z</time>
      </trkpt>
      <trkpt lat="44.92281" lon="6.5059">
        <ele>2217.6</ele>
        <time>2024-08-11T12:02:19Z</time>
      </trkpt>
      <trkpt lat="44.92284" lon="6.5059">
        <ele>2217.6</ele>
        <time>2024-08-11T12:02:20Z</time>
      </trkpt>
      <trkpt lat="44.92284" lon="6.5059">
        <ele>2217.8</ele>
        <time>2024-08-11T12:02:21Z</time>
      </trkpt>
      <trkpt lat="44.92284" lon="6.5059">
        <ele>2217.8</ele>
        <time>2024-08-11T12:02:22Z</time>
      </trkpt>
      <trkpt lat="44.92287" lon="6.50591">
        <ele>2217.4</ele>
        <time>2024-08-11T12:02:23Z</time>
      </trkpt>
      <trkpt lat="44.92287" lon="6.50591">
        <ele>2217.2</ele>
        <time>2024-08-11T12:02:24Z</time>
      </trkpt>
      <trkpt lat="44.92289" lon="6.50592">
        <ele>2217</ele>
        <time>2024-08-11T12:02:25Z</time>
      </trkpt>
      <trkpt lat="44.92289" lon="6.50592">
        <ele>2216.8</ele>
        <time>2024-08-11T12:02:26Z</time>
      </trkpt>
      <trkpt lat="44.92291" lon="6.50594">
        <ele>2216.4</ele>
        <time>2024-08-11T12:02:27Z</time>
      </trkpt>
      <trkpt lat="44.92291" lon="6.50594">
        <ele>2216.2</ele>
        <time>2024-08-11T12:02:28Z</time>
      </trkpt>
      <trkpt lat="44.92293" lon="6.50595">
        <ele>2215.8</ele>
        <time>2024-08-11T12:02:29Z</time>
      </trkpt>
      <trkpt lat="44.92293" lon="6.50595">
        <ele>2215.8</ele>
        <time>2024-08-11T12:02:30Z</time>
      </trkpt>
      <trkpt lat="44.92295" lon="6.50596">
        <ele>2215.6</ele>
        <time>2024-08-11T12:02:31Z</time>
      </trkpt>
      <trkpt lat="44.92295" lon="6.50596">
        <ele>2215.6</ele>
        <time>2024-08-11T12:02:32Z</time>
      </trkpt>
      <trkpt lat="44.92297" lon="6.50597">
        <ele>2215.4</ele>
        <time>2024-08-11T12:02:33Z</time>
      </trkpt>
      <trkpt lat="44.92297" lon="6.50597">
        <ele>2215</ele>
        <time>2024-08-11T12:02:34Z</time>
      </trkpt>
      <trkpt lat="44.92299" lon="6.50599">
        <ele>2214.8</ele>
        <time>2024-08-11T12:02:35Z</time>
      </trkpt>
      <trkpt lat="44.92299" lon="6.50599">
        <ele>2214.6</ele>
        <time>2024-08-11T12:02:36Z</time>
      </trkpt>
      <trkpt lat="44.92301" lon="6.506">
        <ele>2214.4</ele>
        <time>2024-08-11T12:02:37Z</time>
      </trkpt>
      <trkpt lat="44.92301" lon="6.506">
        <ele>2214</ele>
        <time>2024-08-11T12:02:38Z</time>
      </trkpt>
      <trkpt lat="44.92303" lon="6.50601">
        <ele>2213.8</ele>
        <time>2024-08-11T12:02:39Z</time>
      </trkpt>
      <trkpt lat="44.92303" lon="6.50601">
        <ele>2213.6</ele>
        <time>2024-08-11T12:02:40Z</time>
      </trkpt>
      <trkpt lat="44.92303" lon="6.50601">
        <ele>2213</ele>
        <time>2024-08-11T12:02:41Z</time>
      </trkpt>
      <trkpt lat="44.92303" lon="6.50601">
        <ele>2213</ele>
        <time>2024-08-11T12:02:42Z</time>
      </trkpt>
      <trkpt lat="44.92306" lon="6.50601">
        <ele>2212.8</ele>
        <time>2024-08-11T12:02:43Z</time>
      </trkpt>
      <trkpt lat="44.92306" lon="6.50601">
        <ele>2212.8</ele>
        <time>2024-08-11T12:02:44Z</time>
      </trkpt>
      <trkpt lat="44.92306" lon="6.50601">
        <ele>2212.6</ele>
        <time>2024-08-11T12:02:45Z</time>
      </trkpt>
      <trkpt lat="44.92306" lon="6.50601">
        <ele>2212.6</ele>
        <time>2024-08-11T12:02:46Z</time>
      </trkpt>
      <trkpt lat="44.92306" lon="6.50601">
        <ele>2212.6</ele>
        <time>2024-08-11T12:02:47Z</time>
      </trkpt>
      <trkpt lat="44.92306" lon="6.50601">
        <ele>2212.2</ele>
        <time>2024-08-11T12:02:48Z</time>
      </trkpt>
      <trkpt lat="44.92306" lon="6.50601">
        <ele>2212.2</ele>
        <time>2024-08-11T12:02:49Z</time>
      </trkpt>
      <trkpt lat="44.92306" lon="6.50601">
        <ele>2212.2</ele>
        <time>2024-08-11T12:02:50Z</time>
      </trkpt>
      <trkpt lat="44.92306" lon="6.50601">
        <ele>2212.2</ele>
        <time>2024-08-11T12:02:51Z</time>
      </trkpt>
      <trkpt lat="44.92306" lon="6.50601">
        <ele>2212.2</ele>
        <time>2024-08-11T12:02:52Z</time>
      </trkpt>
      <trkpt lat="44.92306" lon="6.50601">
        <ele>2212.6</ele>
        <time>2024-08-11T12:02:53Z</time>
      </trkpt>
      <trkpt lat="44.92306" lon="6.50601">
        <ele>2212.6</ele>
        <time>2024-08-11T12:02:54Z</time>
      </trkpt>
      <trkpt lat="44.92306" lon="6.50601">
        <ele>2212.4</ele>
        <time>2024-08-11T12:02:55Z</time>
      </trkpt>
      <trkpt lat="44.92306" lon="6.50601">
        <ele>2212.4</ele>
        <time>2024-08-11T12:02:56Z</time>
      </trkpt>
      <trkpt lat="44.92306" lon="6.50601">
        <ele>2212.4</ele>
        <time>2024-08-11T12:02:57Z</time>
      </trkpt>
      <trkpt lat="44.92306" lon="6.50601">
        <ele>2212.2</ele>
        <time>2024-08-11T12:02:58Z</time>
      </trkpt>
      <trkpt lat="44.92306" lon="6.50601">
        <ele>2212.2</ele>
        <time>2024-08-11T12:02:59Z</time>
      </trkpt>
      <trkpt lat="44.92306" lon="6.50601">
        <ele>2211.8</ele>
        <time>2024-08-11T12:03:00Z</time>
      </trkpt>
      <trkpt lat="44.92306" lon="6.50601">
        <ele>2211.8</ele>
        <time>2024-08-11T12:03:01Z</time>
      </trkpt>
      <trkpt lat="44.92306" lon="6.50601">
        <ele>2211.6</ele>
        <time>2024-08-11T12:03:02Z</time>
      </trkpt>
      <trkpt lat="44.92306" lon="6.50601">
        <ele>2211.6</ele>
        <time>2024-08-11T12:03:03Z</time>
      </trkpt>
      <trkpt lat="44.92306" lon="6.50601">
        <ele>2211.6</ele>
        <time>2024-08-11T12:03:04Z</time>
      </trkpt>
      <trkpt lat="44.92306" lon="6.50601">
        <ele>2211.8</ele>
        <time>2024-08-11T12:03:05Z</time>
      </trkpt>
      <trkpt lat="44.92306" lon="6.50601">
        <ele>2211.6</ele>
        <time>2024-08-11T12:03:06Z</time>
      </trkpt>
      <trkpt lat="44.92306" lon="6.50601">
        <ele>2211.8</ele>
        <time>2024-08-11T12:03:07Z</time>
      </trkpt>
      <trkpt lat="44.92306" lon="6.50601">
        <ele>2211.8</ele>
        <time>2024-08-11T12:03:08Z</time>
      </trkpt>
      <trkpt lat="44.92306" lon="6.50601">
        <ele>2211.8</ele>
        <time>2024-08-11T12:03:09Z</time>
      </trkpt>
      <trkpt lat="44.92306" lon="6.50601">
        <ele>2211.8</ele>
        <time>2024-08-11T12:03:10Z</time>
      </trkpt>
      <trkpt lat="44.92306" lon="6.50601">
        <ele>2211.6</ele>
        <time>2024-08-11T12:03:11Z</time>
      </trkpt>
      <trkpt lat="44.92306" lon="6.50601">
        <ele>2211.6</ele>
        <time>2024-08-11T12:03:12Z</time>
      </trkpt>
      <trkpt lat="44.92306" lon="6.50601">
        <ele>2211.6</ele>
        <time>2024-08-11T12:03:13Z</time>
      </trkpt>
      <trkpt lat="44.92306" lon="6.50601">
        <ele>2211.6</ele>
        <time>2024-08-11T12:03:14Z</time>
      </trkpt>
      <trkpt lat="44.92306" lon="6.50601">
        <ele>2211.6</ele>
        <time>2024-08-11T12:03:15Z</time>
      </trkpt>
      <trkpt lat="44.92306" lon="6.50601">
        <ele>2211.6</ele>
        <time>2024-08-11T12:03:16Z</time>
      </trkpt>
      <trkpt lat="44.92306" lon="6.50601">
        <ele>2211.6</ele>
        <time>2024-08-11T12:03:17Z</time>
      </trkpt>
      <trkpt lat="44.92306" lon="6.50601">
        <ele>2211.6</ele>
        <time>2024-08-11T12:03:18Z</time>
      </trkpt>
      <trkpt lat="44.92306" lon="6.50601">
        <ele>2211.6</ele>
        <time>2024-08-11T12:03:19Z</time>
      </trkpt>
      <trkpt lat="44.92306" lon="6.50601">
        <ele>2211.6</ele>
        <time>2024-08-11T12:03:20Z</time>
      </trkpt>
      <trkpt lat="44.92306" lon="6.50601">
        <ele>2211.6</ele>
        <time>2024-08-11T12:03:21Z</time>
      </trkpt>
      <trkpt lat="44.92306" lon="6.50601">
        <ele>2211.8</ele>
        <time>2024-08-11T12:03:22Z</time>
      </trkpt>
      <trkpt lat="44.92306" lon="6.50601">
        <ele>2212</ele>
        <time>2024-08-11T12:03:23Z</time>
      </trkpt>
      <trkpt lat="44.92306" lon="6.50601">
        <ele>2212</ele>
        <time>2024-08-11T12:03:24Z</time>
      </trkpt>
      <trkpt lat="44.92306" lon="6.50601">
        <ele>2211.8</ele>
        <time>2024-08-11T12:03:25Z</time>
      </trkpt>
      <trkpt lat="44.92306" lon="6.50601">
        <ele>2211.6</ele>
        <time>2024-08-11T12:03:26Z</time>
      </trkpt>
      <trkpt lat="44.92306" lon="6.50601">
        <ele>2211.4</ele>
        <time>2024-08-11T12:03:27Z</time>
      </trkpt>
      <trkpt lat="44.92306" lon="6.50601">
        <ele>2211.4</ele>
        <time>2024-08-11T12:03:28Z</time>
      </trkpt>
      <trkpt lat="44.92306" lon="6.50601">
        <ele>2211</ele>
        <time>2024-08-11T12:03:29Z</time>
      </trkpt>
      <trkpt lat="44.92306" lon="6.50601">
        <ele>2211</ele>
        <time>2024-08-11T12:03:30Z</time>
      </trkpt>
      <trkpt lat="44.92306" lon="6.50601">
        <ele>2211.4</ele>
        <time>2024-08-11T12:03:31Z</time>
      </trkpt>
      <trkpt lat="44.92306" lon="6.50601">
        <ele>2211.6</ele>
        <time>2024-08-11T12:03:32Z</time>
      </trkpt>
      <trkpt lat="44.92306" lon="6.50601">
        <ele>2211.6</ele>
        <time>2024-08-11T12:03:33Z</time>
      </trkpt>
      <trkpt lat="44.92306" lon="6.50601">
        <ele>2211.4</ele>
        <time>2024-08-11T12:03:34Z</time>
      </trkpt>
      <trkpt lat="44.92306" lon="6.50601">
        <ele>2211.2</ele>
        <time>2024-08-11T12:03:35Z</time>
      </trkpt>
      <trkpt lat="44.92306" lon="6.50601">
        <ele>2211.4</ele>
        <time>2024-08-11T12:03:36Z</time>
      </trkpt>
      <trkpt lat="44.92306" lon="6.50601">
        <ele>2211.4</ele>
        <time>2024-08-11T12:03:37Z</time>
      </trkpt>
      <trkpt lat="44.92306" lon="6.50601">
        <ele>2211.4</ele>
        <time>2024-08-11T12:03:38Z</time>
      </trkpt>
      <trkpt lat="44.92306" lon="6.50601">
        <ele>2211.4</ele>
        <time>2024-08-11T12:03:39Z</time>
      </trkpt>
      <trkpt lat="44.92306" lon="6.50601">
        <ele>2211.6</ele>
        <time>2024-08-11T12:03:40Z</time>
      </trkpt>
      <trkpt lat="44.92306" lon="6.50601">
        <ele>2211.6</ele>
        <time>2024-08-11T12:03:41Z</time>
      </trkpt>
      <trkpt lat="44.92306" lon="6.50601">
        <ele>2211.4</ele>
        <time>2024-08-11T12:03:42Z</time>
      </trkpt>
      <trkpt lat="44.92306" lon="6.50601">
        <ele>2211.4</ele>
        <time>2024-08-11T12:03:43Z</time>
      </trkpt>
      <trkpt lat="44.92306" lon="6.50601">
        <ele>2211.6</ele>
        <time>2024-08-11T12:03:44Z</time>
      </trkpt>
      <trkpt lat="44.92306" lon="6.50601">
        <ele>2211.8</ele>
        <time>2024-08-11T12:03:45Z</time>
      </trkpt>
      <trkpt lat="44.92306" lon="6.50601">
        <ele>2211.8</ele>
        <time>2024-08-11T12:03:46Z</time>
      </trkpt>
      <trkpt lat="44.92306" lon="6.50601">
        <ele>2211.6</ele>
        <time>2024-08-11T12:03:47Z</time>
      </trkpt>
      <trkpt lat="44.92306" lon="6.50601">
        <ele>2211.4</ele>
        <time>2024-08-11T12:03:48Z</time>
      </trkpt>
      <trkpt lat="44.92306" lon="6.50601">
        <ele>2211</ele>
        <time>2024-08-11T12:03:49Z</time>
      </trkpt>
      <trkpt lat="44.92306" lon="6.50601">
        <ele>2210.6</ele>
        <time>2024-08-11T12:03:50Z</time>
      </trkpt>
      <trkpt lat="44.92308" lon="6.506">
        <ele>2210.4</ele>
        <time>2024-08-11T12:03:51Z</time>
      </trkpt>
      <trkpt lat="44.92308" lon="6.506">
        <ele>2210.2</ele>
        <time>2024-08-11T12:03:52Z</time>
      </trkpt>
      <trkpt lat="44.92308" lon="6.506">
        <ele>2210.2</ele>
        <time>2024-08-11T12:03:53Z</time>
      </trkpt>
      <trkpt lat="44.92308" lon="6.506">
        <ele>2210.2</ele>
        <time>2024-08-11T12:03:54Z</time>
      </trkpt>
      <trkpt lat="44.92308" lon="6.506">
        <ele>2210</ele>
        <time>2024-08-11T12:03:55Z</time>
      </trkpt>
      <trkpt lat="44.92308" lon="6.506">
        <ele>2210.2</ele>
        <time>2024-08-11T12:03:56Z</time>
      </trkpt>
      <trkpt lat="44.92308" lon="6.506">
        <ele>2210.2</ele>
        <time>2024-08-11T12:03:57Z</time>
      </trkpt>
      <trkpt lat="44.92308" lon="6.506">
        <ele>2210.2</ele>
        <time>2024-08-11T12:03:58Z</time>
      </trkpt>
      <trkpt lat="44.92308" lon="6.506">
        <ele>2210.2</ele>
        <time>2024-08-11T12:03:59Z</time>
      </trkpt>
      <trkpt lat="44.92308" lon="6.506">
        <ele>2210.2</ele>
        <time>2024-08-11T12:04:00Z</time>
      </trkpt>
      <trkpt lat="44.92308" lon="6.506">
        <ele>2210.2</ele>
        <time>2024-08-11T12:04:01Z</time>
      </trkpt>
      <trkpt lat="44.92308" lon="6.506">
        <ele>2210</ele>
        <time>2024-08-11T12:04:02Z</time>
      </trkpt>
      <trkpt lat="44.92308" lon="6.506">
        <ele>2210</ele>
        <time>2024-08-11T12:04:03Z</time>
      </trkpt>
      <trkpt lat="44.92308" lon="6.506">
        <ele>2209.6</ele>
        <time>2024-08-11T12:04:04Z</time>
      </trkpt>
      <trkpt lat="44.92308" lon="6.506">
        <ele>2209.4</ele>
        <time>2024-08-11T12:04:05Z</time>
      </trkpt>
      <trkpt lat="44.92308" lon="6.506">
        <ele>2209.2</ele>
        <time>2024-08-11T12:04:06Z</time>
      </trkpt>
      <trkpt lat="44.92308" lon="6.506">
        <ele>2209.2</ele>
        <time>2024-08-11T12:04:07Z</time>
      </trkpt>
      <trkpt lat="44.92308" lon="6.506">
        <ele>2209.2</ele>
        <time>2024-08-11T12:04:08Z</time>
      </trkpt>
      <trkpt lat="44.92308" lon="6.506">
        <ele>2209.2</ele>
        <time>2024-08-11T12:04:09Z</time>
      </trkpt>
      <trkpt lat="44.92308" lon="6.506">
        <ele>2209.6</ele>
        <time>2024-08-11T12:04:10Z</time>
      </trkpt>
      <trkpt lat="44.92308" lon="6.506">
        <ele>2209.6</ele>
        <time>2024-08-11T12:04:11Z</time>
      </trkpt>
      <trkpt lat="44.92308" lon="6.506">
        <ele>2209.6</ele>
        <time>2024-08-11T12:04:12Z</time>
      </trkpt>
      <trkpt lat="44.92308" lon="6.506">
        <ele>2209.6</ele>
        <time>2024-08-11T12:04:13Z</time>
      </trkpt>
      <trkpt lat="44.92308" lon="6.506">
        <ele>2209.6</ele>
        <time>2024-08-11T12:04:14Z</time>
      </trkpt>
      <trkpt lat="44.92308" lon="6.506">
        <ele>2209.8</ele>
        <time>2024-08-11T12:04:15Z</time>
      </trkpt>
      <trkpt lat="44.92308" lon="6.506">
        <ele>2209.8</ele>
        <time>2024-08-11T12:04:16Z</time>
      </trkpt>
      <trkpt lat="44.92308" lon="6.506">
        <ele>2209.8</ele>
        <time>2024-08-11T12:04:17Z</time>
      </trkpt>
      <trkpt lat="44.92308" lon="6.506">
        <ele>2209.8</ele>
        <time>2024-08-11T12:04:18Z</time>
      </trkpt>
      <trkpt lat="44.92308" lon="6.506">
        <ele>2210</ele>
        <time>2024-08-11T12:04:19Z</time>
      </trkpt>
      <trkpt lat="44.92308" lon="6.506">
        <ele>2210.4</ele>
        <time>2024-08-11T12:04:20Z</time>
      </trkpt>
      <trkpt lat="44.92308" lon="6.506">
        <ele>2210.6</ele>
        <time>2024-08-11T12:04:21Z</time>
      </trkpt>
      <trkpt lat="44.92308" lon="6.506">
        <ele>2210.8</ele>
        <time>2024-08-11T12:04:22Z</time>
      </trkpt>
      <trkpt lat="44.92308" lon="6.506">
        <ele>2210.8</ele>
        <time>2024-08-11T12:04:23Z</time>
      </trkpt>
      <trkpt lat="44.92308" lon="6.506">
        <ele>2210.6</ele>
        <time>2024-08-11T12:04:24Z</time>
      </trkpt>
      <trkpt lat="44.92308" lon="6.506">
        <ele>2210.4</ele>
        <time>2024-08-11T12:04:25Z</time>
      </trkpt>
      <trkpt lat="44.92308" lon="6.506">
        <ele>2210.4</ele>
        <time>2024-08-11T12:04:26Z</time>
      </trkpt>
      <trkpt lat="44.92308" lon="6.506">
        <ele>2210.4</ele>
        <time>2024-08-11T12:04:27Z</time>
      </trkpt>
      <trkpt lat="44.92308" lon="6.506">
        <ele>2210.4</ele>
        <time>2024-08-11T12:04:28Z</time>
      </trkpt>
      <trkpt lat="44.92308" lon="6.506">
        <ele>2210.6</ele>
        <time>2024-08-11T12:04:29Z</time>
      </trkpt>
      <trkpt lat="44.92308" lon="6.506">
        <ele>2210.6</ele>
        <time>2024-08-11T12:04:30Z</time>
      </trkpt>
      <trkpt lat="44.92308" lon="6.506">
        <ele>2210.6</ele>
        <time>2024-08-11T12:04:31Z</time>
      </trkpt>
      <trkpt lat="44.92308" lon="6.506">
        <ele>2210.6</ele>
        <time>2024-08-11T12:04:32Z</time>
      </trkpt>
      <trkpt lat="44.92308" lon="6.506">
        <ele>2210.6</ele>
        <time>2024-08-11T12:04:33Z</time>
      </trkpt>
      <trkpt lat="44.92308" lon="6.506">
        <ele>2210.6</ele>
        <time>2024-08-11T12:04:34Z</time>
      </trkpt>
      <trkpt lat="44.92308" lon="6.506">
        <ele>2210.6</ele>
        <time>2024-08-11T12:04:35Z</time>
      </trkpt>
      <trkpt lat="44.92308" lon="6.506">
        <ele>2210.6</ele>
        <time>2024-08-11T12:04:36Z</time>
      </trkpt>
      <trkpt lat="44.92308" lon="6.506">
        <ele>2210.6</ele>
        <time>2024-08-11T12:04:37Z</time>
      </trkpt>
      <trkpt lat="44.92308" lon="6.506">
        <ele>2210.4</ele>
        <time>2024-08-11T12:04:38Z</time>
      </trkpt>
      <trkpt lat="44.92308" lon="6.506">
        <ele>2210.4</ele>
        <time>2024-08-11T12:04:39Z</time>
      </trkpt>
      <trkpt lat="44.92308" lon="6.506">
        <ele>2210.4</ele>
        <time>2024-08-11T12:04:40Z</time>
      </trkpt>
      <trkpt lat="44.92308" lon="6.506">
        <ele>2210.2</ele>
        <time>2024-08-11T12:04:41Z</time>
      </trkpt>
      <trkpt lat="44.92308" lon="6.506">
        <ele>2210.2</ele>
        <time>2024-08-11T12:04:42Z</time>
      </trkpt>
      <trkpt lat="44.92308" lon="6.506">
        <ele>2210.2</ele>
        <time>2024-08-11T12:04:43Z</time>
      </trkpt>
      <trkpt lat="44.92308" lon="6.506">
        <ele>2210.2</ele>
        <time>2024-08-11T12:04:44Z</time>
      </trkpt>
      <trkpt lat="44.92308" lon="6.506">
        <ele>2210</ele>
        <time>2024-08-11T12:04:45Z</time>
      </trkpt>
      <trkpt lat="44.92308" lon="6.506">
        <ele>2209.4</ele>
        <time>2024-08-11T12:04:46Z</time>
      </trkpt>
      <trkpt lat="44.92308" lon="6.506">
        <ele>2209.4</ele>
        <time>2024-08-11T12:04:47Z</time>
      </trkpt>
      <trkpt lat="44.92308" lon="6.506">
        <ele>2209.4</ele>
        <time>2024-08-11T12:04:48Z</time>
      </trkpt>
      <trkpt lat="44.92308" lon="6.506">
        <ele>2209.4</ele>
        <time>2024-08-11T12:04:49Z</time>
      </trkpt>
      <trkpt lat="44.92308" lon="6.506">
        <ele>2209.4</ele>
        <time>2024-08-11T12:04:50Z</time>
      </trkpt>
      <trkpt lat="44.92308" lon="6.506">
        <ele>2209.6</ele>
        <time>2024-08-11T12:04:51Z</time>
      </trkpt>
      <trkpt lat="44.92308" lon="6.506">
        <ele>2209.4</ele>
        <time>2024-08-11T12:04:52Z</time>
      </trkpt>
      <trkpt lat="44.92308" lon="6.506">
        <ele>2209.8</ele>
        <time>2024-08-11T12:04:53Z</time>
      </trkpt>
      <trkpt lat="44.92308" lon="6.506">
        <ele>2210</ele>
        <time>2024-08-11T12:04:54Z</time>
      </trkpt>
      <trkpt lat="44.92308" lon="6.506">
        <ele>2210</ele>
        <time>2024-08-11T12:04:55Z</time>
      </trkpt>
      <trkpt lat="44.92308" lon="6.506">
        <ele>2210</ele>
        <time>2024-08-11T12:04:56Z</time>
      </trkpt>
      <trkpt lat="44.92308" lon="6.506">
        <ele>2210</ele>
        <time>2024-08-11T12:04:57Z</time>
      </trkpt>
      <trkpt lat="44.92308" lon="6.506">
        <ele>2210</ele>
        <time>2024-08-11T12:04:58Z</time>
      </trkpt>
      <trkpt lat="44.92308" lon="6.506">
        <ele>2210</ele>
        <time>2024-08-11T12:04:59Z</time>
      </trkpt>
      <trkpt lat="44.92308" lon="6.506">
        <ele>2210</ele>
        <time>2024-08-11T12:05:00Z</time>
      </trkpt>
      <trkpt lat="44.92308" lon="6.506">
        <ele>2210.2</ele>
        <time>2024-08-11T12:05:01Z</time>
      </trkpt>
      <trkpt lat="44.92308" lon="6.506">
        <ele>2210</ele>
        <time>2024-08-11T12:05:02Z</time>
      </trkpt>
      <trkpt lat="44.92308" lon="6.506">
        <ele>2210</ele>
        <time>2024-08-11T12:05:03Z</time>
      </trkpt>
      <trkpt lat="44.92308" lon="6.506">
        <ele>2210</ele>
        <time>2024-08-11T12:05:04Z</time>
      </trkpt>
      <trkpt lat="44.92308" lon="6.506">
        <ele>2210.2</ele>
        <time>2024-08-11T12:05:05Z</time>
      </trkpt>
      <trkpt lat="44.92308" lon="6.506">
        <ele>2210.4</ele>
        <time>2024-08-11T12:05:06Z</time>
      </trkpt>
      <trkpt lat="44.92308" lon="6.506">
        <ele>2210.4</ele>
        <time>2024-08-11T12:05:07Z</time>
      </trkpt>
      <trkpt lat="44.92308" lon="6.506">
        <ele>2210.4</ele>
        <time>2024-08-11T12:05:08Z</time>
      </trkpt>
      <trkpt lat="44.92308" lon="6.506">
        <ele>2210.4</ele>
        <time>2024-08-11T12:05:09Z</time>
      </trkpt>
      <trkpt lat="44.92308" lon="6.506">
        <ele>2210.4</ele>
        <time>2024-08-11T12:05:10Z</time>
      </trkpt>
      <trkpt lat="44.92308" lon="6.506">
        <ele>2210</ele>
        <time>2024-08-11T12:05:11Z</time>
      </trkpt>
      <trkpt lat="44.92308" lon="6.506">
        <ele>2210</ele>
        <time>2024-08-11T12:05:12Z</time>
      </trkpt>
      <trkpt lat="44.92308" lon="6.506">
        <ele>2210.2</ele>
        <time>2024-08-11T12:05:13Z</time>
      </trkpt>
      <trkpt lat="44.92308" lon="6.506">
        <ele>2210.2</ele>
        <time>2024-08-11T12:05:14Z</time>
      </trkpt>
      <trkpt lat="44.92308" lon="6.506">
        <ele>2210</ele>
        <time>2024-08-11T12:05:15Z</time>
      </trkpt>
      <trkpt lat="44.92308" lon="6.506">
        <ele>2210</ele>
        <time>2024-08-11T12:05:16Z</time>
      </trkpt>
      <trkpt lat="44.92308" lon="6.506">
        <ele>2210</ele>
        <time>2024-08-11T12:05:17Z</time>
      </trkpt>
      <trkpt lat="44.92308" lon="6.506">
        <ele>2210</ele>
        <time>2024-08-11T12:05:18Z</time>
      </trkpt>
      <trkpt lat="44.92308" lon="6.506">
        <ele>2209.8</ele>
        <time>2024-08-11T12:05:19Z</time>
      </trkpt>
      <trkpt lat="44.92308" lon="6.506">
        <ele>2209.6</ele>
        <time>2024-08-11T12:05:20Z</time>
      </trkpt>
      <trkpt lat="44.92308" lon="6.506">
        <ele>2209.6</ele>
        <time>2024-08-11T12:05:21Z</time>
      </trkpt>
      <trkpt lat="44.92308" lon="6.506">
        <ele>2209.6</ele>
        <time>2024-08-11T12:05:22Z</time>
      </trkpt>
      <trkpt lat="44.92308" lon="6.506">
        <ele>2209.6</ele>
        <time>2024-08-11T12:05:23Z</time>
      </trkpt>
      <trkpt lat="44.92308" lon="6.506">
        <ele>2209.6</ele>
        <time>2024-08-11T12:05:24Z</time>
      </trkpt>
      <trkpt lat="44.92308" lon="6.506">
        <ele>2209.8</ele>
        <time>2024-08-11T12:05:25Z</time>
      </trkpt>
      <trkpt lat="44.92308" lon="6.506">
        <ele>2209.6</ele>
        <time>2024-08-11T12:05:26Z</time>
      </trkpt>
      <trkpt lat="44.92308" lon="6.506">
        <ele>2209.6</ele>
        <time>2024-08-11T12:05:27Z</time>
      </trkpt>
      <trkpt lat="44.92308" lon="6.506">
        <ele>2209.6</ele>
        <time>2024-08-11T12:05:28Z</time>
      </trkpt>
      <trkpt lat="44.92308" lon="6.506">
        <ele>2209.6</ele>
        <time>2024-08-11T12:05:29Z</time>
      </trkpt>
      <trkpt lat="44.92308" lon="6.506">
        <ele>2209.6</ele>
        <time>2024-08-11T12:05:30Z</time>
      </trkpt>
      <trkpt lat="44.92308" lon="6.506">
        <ele>2209.6</ele>
        <time>2024-08-11T12:05:31Z</time>
      </trkpt>
      <trkpt lat="44.92308" lon="6.506">
        <ele>2209.4</ele>
        <time>2024-08-11T12:05:32Z</time>
      </trkpt>
      <trkpt lat="44.92308" lon="6.506">
        <ele>2209.6</ele>
        <time>2024-08-11T12:05:33Z</time>
      </trkpt>
      <trkpt lat="44.92308" lon="6.506">
        <ele>2209.6</ele>
        <time>2024-08-11T12:05:34Z</time>
      </trkpt>
      <trkpt lat="44.92308" lon="6.506">
        <ele>2209.8</ele>
        <time>2024-08-11T12:05:35Z</time>
      </trkpt>
      <trkpt lat="44.92308" lon="6.506">
        <ele>2209.8</ele>
        <time>2024-08-11T12:05:36Z</time>
      </trkpt>
      <trkpt lat="44.92308" lon="6.506">
        <ele>2209.6</ele>
        <time>2024-08-11T12:05:37Z</time>
      </trkpt>
      <trkpt lat="44.92308" lon="6.506">
        <ele>2209.4</ele>
        <time>2024-08-11T12:05:38Z</time>
      </trkpt>
      <trkpt lat="44.92308" lon="6.506">
        <ele>2209.2</ele>
        <time>2024-08-11T12:05:39Z</time>
      </trkpt>
      <trkpt lat="44.92308" lon="6.506">
        <ele>2209.2</ele>
        <time>2024-08-11T12:05:40Z</time>
      </trkpt>
      <trkpt lat="44.92308" lon="6.506">
        <ele>2209.4</ele>
        <time>2024-08-11T12:05:41Z</time>
      </trkpt>
      <trkpt lat="44.92308" lon="6.506">
        <ele>2209.4</ele>
        <time>2024-08-11T12:05:42Z</time>
      </trkpt>
      <trkpt lat="44.92308" lon="6.506">
        <ele>2209.4</ele>
        <time>2024-08-11T12:05:43Z</time>
      </trkpt>
      <trkpt lat="44.92308" lon="6.506">
        <ele>2209.4</ele>
        <time>2024-08-11T12:05:44Z</time>
      </trkpt>
      <trkpt lat="44.92308" lon="6.506">
        <ele>2209.4</ele>
        <time>2024-08-11T12:05:45Z</time>
      </trkpt>
      <trkpt lat="44.92308" lon="6.506">
        <ele>2209.2</ele>
        <time>2024-08-11T12:05:46Z</time>
      </trkpt>
      <trkpt lat="44.92308" lon="6.506">
        <ele>2209.2</ele>
        <time>2024-08-11T12:05:47Z</time>
      </trkpt>
      <trkpt lat="44.92308" lon="6.506">
        <ele>2209.2</ele>
        <time>2024-08-11T12:05:48Z</time>
      </trkpt>
      <trkpt lat="44.92308" lon="6.506">
        <ele>2209.4</ele>
        <time>2024-08-11T12:05:49Z</time>
      </trkpt>
      <trkpt lat="44.92308" lon="6.506">
        <ele>2209.4</ele>
        <time>2024-08-11T12:05:50Z</time>
      </trkpt>
      <trkpt lat="44.92308" lon="6.506">
        <ele>2209.2</ele>
        <time>2024-08-11T12:05:51Z</time>
      </trkpt>
      <trkpt lat="44.92308" lon="6.506">
        <ele>2209.2</ele>
        <time>2024-08-11T12:05:52Z</time>
      </trkpt>
      <trkpt lat="44.92308" lon="6.506">
        <ele>2209.2</ele>
        <time>2024-08-11T12:05:53Z</time>
      </trkpt>
      <trkpt lat="44.92308" lon="6.506">
        <ele>2209.4</ele>
        <time>2024-08-11T12:05:54Z</time>
      </trkpt>
      <trkpt lat="44.92308" lon="6.506">
        <ele>2209.4</ele>
        <time>2024-08-11T12:05:55Z</time>
      </trkpt>
      <trkpt lat="44.92308" lon="6.506">
        <ele>2209.4</ele>
        <time>2024-08-11T12:05:56Z</time>
      </trkpt>
      <trkpt lat="44.92308" lon="6.506">
        <ele>2209.4</ele>
        <time>2024-08-11T12:05:57Z</time>
      </trkpt>
      <trkpt lat="44.92308" lon="6.506">
        <ele>2209.4</ele>
        <time>2024-08-11T12:05:58Z</time>
      </trkpt>
      <trkpt lat="44.92308" lon="6.506">
        <ele>2209.4</ele>
        <time>2024-08-11T12:05:59Z</time>
      </trkpt>
      <trkpt lat="44.92308" lon="6.506">
        <ele>2209.6</ele>
        <time>2024-08-11T12:06:00Z</time>
      </trkpt>
      <trkpt lat="44.92308" lon="6.506">
        <ele>2209.4</ele>
        <time>2024-08-11T12:06:01Z</time>
      </trkpt>
      <trkpt lat="44.92308" lon="6.506">
        <ele>2209.2</ele>
        <time>2024-08-11T12:06:02Z</time>
      </trkpt>
      <trkpt lat="44.92308" lon="6.506">
        <ele>2209.2</ele>
        <time>2024-08-11T12:06:03Z</time>
      </trkpt>
      <trkpt lat="44.92308" lon="6.506">
        <ele>2209.2</ele>
        <time>2024-08-11T12:06:04Z</time>
      </trkpt>
      <trkpt lat="44.92308" lon="6.506">
        <ele>2209.4</ele>
        <time>2024-08-11T12:06:05Z</time>
      </trkpt>
      <trkpt lat="44.92308" lon="6.506">
        <ele>2209.4</ele>
        <time>2024-08-11T12:06:06Z</time>
      </trkpt>
      <trkpt lat="44.92308" lon="6.506">
        <ele>2209.4</ele>
        <time>2024-08-11T12:06:07Z</time>
      </trkpt>
      <trkpt lat="44.92308" lon="6.506">
        <ele>2209.2</ele>
        <time>2024-08-11T12:06:08Z</time>
      </trkpt>
      <trkpt lat="44.92308" lon="6.506">
        <ele>2209</ele>
        <time>2024-08-11T12:06:09Z</time>
      </trkpt>
      <trkpt lat="44.92308" lon="6.506">
        <ele>2209</ele>
        <time>2024-08-11T12:06:10Z</time>
      </trkpt>
      <trkpt lat="44.92308" lon="6.506">
        <ele>2209.2</ele>
        <time>2024-08-11T12:06:11Z</time>
      </trkpt>
      <trkpt lat="44.92308" lon="6.506">
        <ele>2209.2</ele>
        <time>2024-08-11T12:06:12Z</time>
      </trkpt>
      <trkpt lat="44.92308" lon="6.506">
        <ele>2209.2</ele>
        <time>2024-08-11T12:06:13Z</time>
      </trkpt>
      <trkpt lat="44.92308" lon="6.506">
        <ele>2209.2</ele>
        <time>2024-08-11T12:06:14Z</time>
      </trkpt>
      <trkpt lat="44.92308" lon="6.506">
        <ele>2209.2</ele>
        <time>2024-08-11T12:06:15Z</time>
      </trkpt>
      <trkpt lat="44.92308" lon="6.506">
        <ele>2209.2</ele>
        <time>2024-08-11T12:06:16Z</time>
      </trkpt>
      <trkpt lat="44.92308" lon="6.506">
        <ele>2209.4</ele>
        <time>2024-08-11T12:06:17Z</time>
      </trkpt>
      <trkpt lat="44.92308" lon="6.506">
        <ele>2209.2</ele>
        <time>2024-08-11T12:06:18Z</time>
      </trkpt>
      <trkpt lat="44.92308" lon="6.506">
        <ele>2209.2</ele>
        <time>2024-08-11T12:06:19Z</time>
      </trkpt>
      <trkpt lat="44.92308" lon="6.506">
        <ele>2209.2</ele>
        <time>2024-08-11T12:06:20Z</time>
      </trkpt>
      <trkpt lat="44.92308" lon="6.506">
        <ele>2209.2</ele>
        <time>2024-08-11T12:06:21Z</time>
      </trkpt>
      <trkpt lat="44.92308" lon="6.506">
        <ele>2209.2</ele>
        <time>2024-08-11T12:06:22Z</time>
      </trkpt>
      <trkpt lat="44.92308" lon="6.506">
        <ele>2209</ele>
        <time>2024-08-11T12:06:23Z</time>
      </trkpt>
      <trkpt lat="44.92308" lon="6.506">
        <ele>2209</ele>
        <time>2024-08-11T12:06:24Z</time>
      </trkpt>
      <trkpt lat="44.92308" lon="6.506">
        <ele>2209</ele>
        <time>2024-08-11T12:06:25Z</time>
      </trkpt>
      <trkpt lat="44.92308" lon="6.506">
        <ele>2209</ele>
        <time>2024-08-11T12:06:26Z</time>
      </trkpt>
      <trkpt lat="44.92308" lon="6.506">
        <ele>2209</ele>
        <time>2024-08-11T12:06:27Z</time>
      </trkpt>
      <trkpt lat="44.92308" lon="6.506">
        <ele>2209</ele>
        <time>2024-08-11T12:06:28Z</time>
      </trkpt>
      <trkpt lat="44.92308" lon="6.506">
        <ele>2209</ele>
        <time>2024-08-11T12:06:29Z</time>
      </trkpt>
      <trkpt lat="44.92308" lon="6.506">
        <ele>2209</ele>
        <time>2024-08-11T12:06:30Z</time>
      </trkpt>
      <trkpt lat="44.92308" lon="6.506">
        <ele>2209.2</ele>
        <time>2024-08-11T12:06:31Z</time>
      </trkpt>
      <trkpt lat="44.92308" lon="6.506">
        <ele>2209.2</ele>
        <time>2024-08-11T12:06:32Z</time>
      </trkpt>
      <trkpt lat="44.92308" lon="6.506">
        <ele>2209.2</ele>
        <time>2024-08-11T12:06:33Z</time>
      </trkpt>
      <trkpt lat="44.92308" lon="6.506">
        <ele>2209.2</ele>
        <time>2024-08-11T12:06:34Z</time>
      </trkpt>
      <trkpt lat="44.92308" lon="6.506">
        <ele>2209.6</ele>
        <time>2024-08-11T12:06:35Z</time>
      </trkpt>
      <trkpt lat="44.92308" lon="6.506">
        <ele>2209.4</ele>
        <time>2024-08-11T12:06:36Z</time>
      </trkpt>
      <trkpt lat="44.92308" lon="6.506">
        <ele>2209.2</ele>
        <time>2024-08-11T12:06:37Z</time>
      </trkpt>
      <trkpt lat="44.92308" lon="6.506">
        <ele>2209.2</ele>
        <time>2024-08-11T12:06:38Z</time>
      </trkpt>
      <trkpt lat="44.92308" lon="6.506">
        <ele>2209.6</ele>
        <time>2024-08-11T12:06:39Z</time>
      </trkpt>
      <trkpt lat="44.92308" lon="6.506">
        <ele>2209.6</ele>
        <time>2024-08-11T12:06:40Z</time>
      </trkpt>
      <trkpt lat="44.92308" lon="6.506">
        <ele>2209.2</ele>
        <time>2024-08-11T12:06:41Z</time>
      </trkpt>
      <trkpt lat="44.92308" lon="6.506">
        <ele>2209.2</ele>
        <time>2024-08-11T12:06:42Z</time>
      </trkpt>
      <trkpt lat="44.92308" lon="6.506">
        <ele>2209</ele>
        <time>2024-08-11T12:06:43Z</time>
      </trkpt>
      <trkpt lat="44.92308" lon="6.506">
        <ele>2209</ele>
        <time>2024-08-11T12:06:44Z</time>
      </trkpt>
      <trkpt lat="44.92308" lon="6.506">
        <ele>2209.2</ele>
        <time>2024-08-11T12:06:45Z</time>
      </trkpt>
      <trkpt lat="44.92308" lon="6.506">
        <ele>2209.4</ele>
        <time>2024-08-11T12:06:46Z</time>
      </trkpt>
      <trkpt lat="44.92308" lon="6.506">
        <ele>2209.6</ele>
        <time>2024-08-11T12:06:47Z</time>
      </trkpt>
      <trkpt lat="44.92308" lon="6.506">
        <ele>2209.6</ele>
        <time>2024-08-11T12:06:48Z</time>
      </trkpt>
      <trkpt lat="44.92308" lon="6.506">
        <ele>2209.4</ele>
        <time>2024-08-11T12:06:49Z</time>
      </trkpt>
      <trkpt lat="44.92308" lon="6.506">
        <ele>2209.2</ele>
        <time>2024-08-11T12:06:50Z</time>
      </trkpt>
      <trkpt lat="44.92308" lon="6.506">
        <ele>2209.2</ele>
        <time>2024-08-11T12:06:51Z</time>
      </trkpt>
      <trkpt lat="44.92308" lon="6.506">
        <ele>2209.2</ele>
        <time>2024-08-11T12:06:52Z</time>
      </trkpt>
      <trkpt lat="44.92308" lon="6.506">
        <ele>2209.2</ele>
        <time>2024-08-11T12:06:53Z</time>
      </trkpt>
      <trkpt lat="44.92308" lon="6.506">
        <ele>2209.2</ele>
        <time>2024-08-11T12:06:54Z</time>
      </trkpt>
      <trkpt lat="44.92308" lon="6.506">
        <ele>2209.4</ele>
        <time>2024-08-11T12:06:55Z</time>
      </trkpt>
      <trkpt lat="44.92308" lon="6.506">
        <ele>2209.2</ele>
        <time>2024-08-11T12:06:56Z</time>
      </trkpt>
      <trkpt lat="44.92308" lon="6.506">
        <ele>2209.8</ele>
        <time>2024-08-11T12:06:57Z</time>
      </trkpt>
      <trkpt lat="44.92308" lon="6.506">
        <ele>2209.6</ele>
        <time>2024-08-11T12:06:58Z</time>
      </trkpt>
      <trkpt lat="44.92308" lon="6.506">
        <ele>2209.6</ele>
        <time>2024-08-11T12:06:59Z</time>
      </trkpt>
      <trkpt lat="44.92308" lon="6.506">
        <ele>2209.6</ele>
        <time>2024-08-11T12:07:00Z</time>
      </trkpt>
      <trkpt lat="44.92308" lon="6.506">
        <ele>2209.6</ele>
        <time>2024-08-11T12:07:01Z</time>
      </trkpt>
      <trkpt lat="44.92308" lon="6.506">
        <ele>2209.4</ele>
        <time>2024-08-11T12:07:02Z</time>
      </trkpt>
      <trkpt lat="44.92308" lon="6.506">
        <ele>2209.4</ele>
        <time>2024-08-11T12:07:03Z</time>
      </trkpt>
      <trkpt lat="44.92308" lon="6.506">
        <ele>2209.6</ele>
        <time>2024-08-11T12:07:04Z</time>
      </trkpt>
      <trkpt lat="44.92308" lon="6.506">
        <ele>2209.6</ele>
        <time>2024-08-11T12:07:05Z</time>
      </trkpt>
      <trkpt lat="44.92308" lon="6.506">
        <ele>2209.6</ele>
        <time>2024-08-11T12:07:06Z</time>
      </trkpt>
      <trkpt lat="44.92308" lon="6.506">
        <ele>2209.6</ele>
        <time>2024-08-11T12:07:07Z</time>
      </trkpt>
      <trkpt lat="44.92308" lon="6.506">
        <ele>2209.6</ele>
        <time>2024-08-11T12:07:08Z</time>
      </trkpt>
      <trkpt lat="44.92308" lon="6.506">
        <ele>2209.4</ele>
        <time>2024-08-11T12:07:09Z</time>
      </trkpt>
      <trkpt lat="44.92308" lon="6.506">
        <ele>2209.4</ele>
        <time>2024-08-11T12:07:10Z</time>
      </trkpt>
      <trkpt lat="44.92308" lon="6.506">
        <ele>2209.4</ele>
        <time>2024-08-11T12:07:11Z</time>
      </trkpt>
      <trkpt lat="44.92308" lon="6.506">
        <ele>2209.6</ele>
        <time>2024-08-11T12:07:12Z</time>
      </trkpt>
      <trkpt lat="44.92308" lon="6.506">
        <ele>2209.6</ele>
        <time>2024-08-11T12:07:13Z</time>
      </trkpt>
      <trkpt lat="44.92308" lon="6.506">
        <ele>2209.2</ele>
        <time>2024-08-11T12:07:14Z</time>
      </trkpt>
      <trkpt lat="44.92308" lon="6.506">
        <ele>2209</ele>
        <time>2024-08-11T12:07:15Z</time>
      </trkpt>
      <trkpt lat="44.92308" lon="6.506">
        <ele>2209</ele>
        <time>2024-08-11T12:07:16Z</time>
      </trkpt>
      <trkpt lat="44.92308" lon="6.506">
        <ele>2208.8</ele>
        <time>2024-08-11T12:07:17Z</time>
      </trkpt>
      <trkpt lat="44.92308" lon="6.506">
        <ele>2208.8</ele>
        <time>2024-08-11T12:07:18Z</time>
      </trkpt>
      <trkpt lat="44.92308" lon="6.506">
        <ele>2209</ele>
        <time>2024-08-11T12:07:19Z</time>
      </trkpt>
      <trkpt lat="44.92308" lon="6.506">
        <ele>2209.2</ele>
        <time>2024-08-11T12:07:20Z</time>
      </trkpt>
      <trkpt lat="44.92308" lon="6.506">
        <ele>2209.2</ele>
        <time>2024-08-11T12:07:21Z</time>
      </trkpt>
      <trkpt lat="44.92308" lon="6.506">
        <ele>2209.2</ele>
        <time>2024-08-11T12:07:22Z</time>
      </trkpt>
      <trkpt lat="44.92308" lon="6.506">
        <ele>2209.2</ele>
        <time>2024-08-11T12:07:23Z</time>
      </trkpt>
      <trkpt lat="44.92308" lon="6.506">
        <ele>2209.2</ele>
        <time>2024-08-11T12:07:24Z</time>
      </trkpt>
      <trkpt lat="44.92308" lon="6.506">
        <ele>2209.2</ele>
        <time>2024-08-11T12:07:25Z</time>
      </trkpt>
      <trkpt lat="44.92308" lon="6.506">
        <ele>2209.2</ele>
        <time>2024-08-11T12:07:26Z</time>
      </trkpt>
      <trkpt lat="44.92308" lon="6.506">
        <ele>2209.2</ele>
        <time>2024-08-11T12:07:27Z</time>
      </trkpt>
      <trkpt lat="44.92308" lon="6.506">
        <ele>2209</ele>
        <time>2024-08-11T12:07:28Z</time>
      </trkpt>
      <trkpt lat="44.92308" lon="6.506">
        <ele>2209</ele>
        <time>2024-08-11T12:07:29Z</time>
      </trkpt>
      <trkpt lat="44.92308" lon="6.506">
        <ele>2209</ele>
        <time>2024-08-11T12:07:30Z</time>
      </trkpt>
      <trkpt lat="44.92308" lon="6.506">
        <ele>2209</ele>
        <time>2024-08-11T12:07:31Z</time>
      </trkpt>
      <trkpt lat="44.92308" lon="6.506">
        <ele>2209</ele>
        <time>2024-08-11T12:07:32Z</time>
      </trkpt>
      <trkpt lat="44.92308" lon="6.506">
        <ele>2209</ele>
        <time>2024-08-11T12:07:33Z</time>
      </trkpt>
      <trkpt lat="44.92308" lon="6.506">
        <ele>2209</ele>
        <time>2024-08-11T12:07:34Z</time>
      </trkpt>
      <trkpt lat="44.92308" lon="6.506">
        <ele>2208.8</ele>
        <time>2024-08-11T12:07:35Z</time>
      </trkpt>
      <trkpt lat="44.92308" lon="6.506">
        <ele>2208.8</ele>
        <time>2024-08-11T12:07:36Z</time>
      </trkpt>
      <trkpt lat="44.92308" lon="6.506">
        <ele>2208.8</ele>
        <time>2024-08-11T12:07:37Z</time>
      </trkpt>
      <trkpt lat="44.92308" lon="6.506">
        <ele>2208.8</ele>
        <time>2024-08-11T12:07:38Z</time>
      </trkpt>
      <trkpt lat="44.92308" lon="6.506">
        <ele>2208.8</ele>
        <time>2024-08-11T12:07:39Z</time>
      </trkpt>
      <trkpt lat="44.92308" lon="6.506">
        <ele>2209</ele>
        <time>2024-08-11T12:07:40Z</time>
      </trkpt>
      <trkpt lat="44.92308" lon="6.506">
        <ele>2209</ele>
        <time>2024-08-11T12:07:41Z</time>
      </trkpt>
      <trkpt lat="44.92308" lon="6.506">
        <ele>2209</ele>
        <time>2024-08-11T12:07:42Z</time>
      </trkpt>
      <trkpt lat="44.92308" lon="6.506">
        <ele>2209</ele>
        <time>2024-08-11T12:07:43Z</time>
      </trkpt>
      <trkpt lat="44.92308" lon="6.506">
        <ele>2209.2</ele>
        <time>2024-08-11T12:07:44Z</time>
      </trkpt>
      <trkpt lat="44.92308" lon="6.506">
        <ele>2209.2</ele>
        <time>2024-08-11T12:07:45Z</time>
      </trkpt>
      <trkpt lat="44.92308" lon="6.506">
        <ele>2209.2</ele>
        <time>2024-08-11T12:07:46Z</time>
      </trkpt>
      <trkpt lat="44.92308" lon="6.506">
        <ele>2209</ele>
        <time>2024-08-11T12:07:47Z</time>
      </trkpt>
      <trkpt lat="44.92308" lon="6.506">
        <ele>2209</ele>
        <time>2024-08-11T12:07:48Z</time>
      </trkpt>
      <trkpt lat="44.92306" lon="6.50598">
        <ele>2209</ele>
        <time>2024-08-11T12:07:49Z</time>
      </trkpt>
      <trkpt lat="44.92306" lon="6.50598">
        <ele>2208.8</ele>
        <time>2024-08-11T12:07:50Z</time>
      </trkpt>
      <trkpt lat="44.92303" lon="6.50595">
        <ele>2208.4</ele>
        <time>2024-08-11T12:07:51Z</time>
      </trkpt>
      <trkpt lat="44.92303" lon="6.50595">
        <ele>2208.4</ele>
        <time>2024-08-11T12:07:52Z</time>
      </trkpt>
      <trkpt lat="44.92301" lon="6.50591">
        <ele>2208.2</ele>
        <time>2024-08-11T12:07:53Z</time>
      </trkpt>
      <trkpt lat="44.92301" lon="6.50591">
        <ele>2208</ele>
        <time>2024-08-11T12:07:54Z</time>
      </trkpt>
      <trkpt lat="44.92301" lon="6.50587">
        <ele>2207.8</ele>
        <time>2024-08-11T12:07:55Z</time>
      </trkpt>
      <trkpt lat="44.92301" lon="6.50587">
        <ele>2207.8</ele>
        <time>2024-08-11T12:07:56Z</time>
      </trkpt>
      <trkpt lat="44.923" lon="6.50584">
        <ele>2207.6</ele>
        <time>2024-08-11T12:07:57Z</time>
      </trkpt>
      <trkpt lat="44.923" lon="6.50584">
        <ele>2207.4</ele>
        <time>2024-08-11T12:07:58Z</time>
      </trkpt>
      <trkpt lat="44.92299" lon="6.50581">
        <ele>2207.2</ele>
        <time>2024-08-11T12:07:59Z</time>
      </trkpt>
      <trkpt lat="44.92299" lon="6.50581">
        <ele>2207</ele>
        <time>2024-08-11T12:08:00Z</time>
      </trkpt>
      <trkpt lat="44.92298" lon="6.50578">
        <ele>2207</ele>
        <time>2024-08-11T12:08:01Z</time>
      </trkpt>
      <trkpt lat="44.92298" lon="6.50578">
        <ele>2206.2</ele>
        <time>2024-08-11T12:08:02Z</time>
      </trkpt>
      <trkpt lat="44.92297" lon="6.50575">
        <ele>2206.2</ele>
        <time>2024-08-11T12:08:03Z</time>
      </trkpt>
      <trkpt lat="44.92297" lon="6.50575">
        <ele>2206.2</ele>
        <time>2024-08-11T12:08:04Z</time>
      </trkpt>
      <trkpt lat="44.92296" lon="6.50571">
        <ele>2206</ele>
        <time>2024-08-11T12:08:05Z</time>
      </trkpt>
      <trkpt lat="44.92296" lon="6.50571">
        <ele>2205.8</ele>
        <time>2024-08-11T12:08:06Z</time>
      </trkpt>
      <trkpt lat="44.92295" lon="6.50569">
        <ele>2205.4</ele>
        <time>2024-08-11T12:08:07Z</time>
      </trkpt>
      <trkpt lat="44.92295" lon="6.50569">
        <ele>2205</ele>
        <time>2024-08-11T12:08:08Z</time>
      </trkpt>
      <trkpt lat="44.92294" lon="6.50566">
        <ele>2204.8</ele>
        <time>2024-08-11T12:08:09Z</time>
      </trkpt>
      <trkpt lat="44.92294" lon="6.50566">
        <ele>2204.8</ele>
        <time>2024-08-11T12:08:10Z</time>
      </trkpt>
      <trkpt lat="44.92293" lon="6.50563">
        <ele>2204.6</ele>
        <time>2024-08-11T12:08:11Z</time>
      </trkpt>
      <trkpt lat="44.92293" lon="6.50563">
        <ele>2204.6</ele>
        <time>2024-08-11T12:08:12Z</time>
      </trkpt>
      <trkpt lat="44.92292" lon="6.50561">
        <ele>2204.2</ele>
        <time>2024-08-11T12:08:13Z</time>
      </trkpt>
      <trkpt lat="44.92292" lon="6.50561">
        <ele>2203.8</ele>
        <time>2024-08-11T12:08:14Z</time>
      </trkpt>
      <trkpt lat="44.9229" lon="6.50558">
        <ele>2203.8</ele>
        <time>2024-08-11T12:08:15Z</time>
      </trkpt>
      <trkpt lat="44.9229" lon="6.50558">
        <ele>2203.6</ele>
        <time>2024-08-11T12:08:16Z</time>
      </trkpt>
      <trkpt lat="44.92288" lon="6.50555">
        <ele>2203.4</ele>
        <time>2024-08-11T12:08:17Z</time>
      </trkpt>
      <trkpt lat="44.92288" lon="6.50555">
        <ele>2203.4</ele>
        <time>2024-08-11T12:08:18Z</time>
      </trkpt>
      <trkpt lat="44.92287" lon="6.50552">
        <ele>2203.2</ele>
        <time>2024-08-11T12:08:19Z</time>
      </trkpt>
      <trkpt lat="44.92287" lon="6.50552">
        <ele>2203</ele>
        <time>2024-08-11T12:08:20Z</time>
      </trkpt>
      <trkpt lat="44.92287" lon="6.5055">
        <ele>2202.8</ele>
        <time>2024-08-11T12:08:21Z</time>
      </trkpt>
      <trkpt lat="44.92287" lon="6.5055">
        <ele>2202.6</ele>
        <time>2024-08-11T12:08:22Z</time>
      </trkpt>
      <trkpt lat="44.92286" lon="6.50547">
        <ele>2202.6</ele>
        <time>2024-08-11T12:08:23Z</time>
      </trkpt>
      <trkpt lat="44.92286" lon="6.50547">
        <ele>2202.2</ele>
        <time>2024-08-11T12:08:24Z</time>
      </trkpt>
      <trkpt lat="44.92284" lon="6.50546">
        <ele>2202.2</ele>
        <time>2024-08-11T12:08:25Z</time>
      </trkpt>
      <trkpt lat="44.92284" lon="6.50546">
        <ele>2202</ele>
        <time>2024-08-11T12:08:26Z</time>
      </trkpt>
      <trkpt lat="44.92282" lon="6.50544">
        <ele>2201.8</ele>
        <time>2024-08-11T12:08:27Z</time>
      </trkpt>
      <trkpt lat="44.92282" lon="6.50544">
        <ele>2201.6</ele>
        <time>2024-08-11T12:08:28Z</time>
      </trkpt>
      <trkpt lat="44.92282" lon="6.50544">
        <ele>2201.6</ele>
        <time>2024-08-11T12:08:29Z</time>
      </trkpt>
      <trkpt lat="44.92279" lon="6.50542">
        <ele>2201.6</ele>
        <time>2024-08-11T12:08:30Z</time>
      </trkpt>
      <trkpt lat="44.92279" lon="6.50542">
        <ele>2201.2</ele>
        <time>2024-08-11T12:08:31Z</time>
      </trkpt>
      <trkpt lat="44.92277" lon="6.50541">
        <ele>2201</ele>
        <time>2024-08-11T12:08:32Z</time>
      </trkpt>
      <trkpt lat="44.92277" lon="6.50541">
        <ele>2201</ele>
        <time>2024-08-11T12:08:33Z</time>
      </trkpt>
      <trkpt lat="44.92277" lon="6.50541">
        <ele>2201</ele>
        <time>2024-08-11T12:08:34Z</time>
      </trkpt>
      <trkpt lat="44.92275" lon="6.50538">
        <ele>2200.6</ele>
        <time>2024-08-11T12:08:35Z</time>
      </trkpt>
      <trkpt lat="44.92275" lon="6.50538">
        <ele>2200.6</ele>
        <time>2024-08-11T12:08:36Z</time>
      </trkpt>
      <trkpt lat="44.92273" lon="6.50537">
        <ele>2200.4</ele>
        <time>2024-08-11T12:08:37Z</time>
      </trkpt>
      <trkpt lat="44.92273" lon="6.50537">
        <ele>2199.8</ele>
        <time>2024-08-11T12:08:38Z</time>
      </trkpt>
      <trkpt lat="44.92271" lon="6.50535">
        <ele>2199.6</ele>
        <time>2024-08-11T12:08:39Z</time>
      </trkpt>
      <trkpt lat="44.92271" lon="6.50535">
        <ele>2199.4</ele>
        <time>2024-08-11T12:08:40Z</time>
      </trkpt>
      <trkpt lat="44.92269" lon="6.50534">
        <ele>2199.4</ele>
        <time>2024-08-11T12:08:41Z</time>
      </trkpt>
      <trkpt lat="44.92269" lon="6.50534">
        <ele>2199.2</ele>
        <time>2024-08-11T12:08:42Z</time>
      </trkpt>
      <trkpt lat="44.92267" lon="6.50532">
        <ele>2199</ele>
        <time>2024-08-11T12:08:43Z</time>
      </trkpt>
      <trkpt lat="44.92267" lon="6.50532">
        <ele>2199</ele>
        <time>2024-08-11T12:08:44Z</time>
      </trkpt>
      <trkpt lat="44.92265" lon="6.5053">
        <ele>2198.8</ele>
        <time>2024-08-11T12:08:45Z</time>
      </trkpt>
      <trkpt lat="44.92265" lon="6.5053">
        <ele>2198.6</ele>
        <time>2024-08-11T12:08:46Z</time>
      </trkpt>
      <trkpt lat="44.92263" lon="6.50529">
        <ele>2198.6</ele>
        <time>2024-08-11T12:08:47Z</time>
      </trkpt>
      <trkpt lat="44.92263" lon="6.50529">
        <ele>2198.6</ele>
        <time>2024-08-11T12:08:48Z</time>
      </trkpt>
      <trkpt lat="44.92261" lon="6.50528">
        <ele>2198.4</ele>
        <time>2024-08-11T12:08:49Z</time>
      </trkpt>
      <trkpt lat="44.92261" lon="6.50528">
        <ele>2198.2</ele>
        <time>2024-08-11T12:08:50Z</time>
      </trkpt>
      <trkpt lat="44.92261" lon="6.50528">
        <ele>2198.2</ele>
        <time>2024-08-11T12:08:51Z</time>
      </trkpt>
      <trkpt lat="44.92258" lon="6.50526">
        <ele>2198</ele>
        <time>2024-08-11T12:08:52Z</time>
      </trkpt>
      <trkpt lat="44.92258" lon="6.50526">
        <ele>2197.8</ele>
        <time>2024-08-11T12:08:53Z</time>
      </trkpt>
      <trkpt lat="44.92258" lon="6.50526">
        <ele>2197.6</ele>
        <time>2024-08-11T12:08:54Z</time>
      </trkpt>
      <trkpt lat="44.92255" lon="6.50525">
        <ele>2197.6</ele>
        <time>2024-08-11T12:08:55Z</time>
      </trkpt>
      <trkpt lat="44.92255" lon="6.50525">
        <ele>2197.4</ele>
        <time>2024-08-11T12:08:56Z</time>
      </trkpt>
      <trkpt lat="44.92255" lon="6.50525">
        <ele>2197.2</ele>
        <time>2024-08-11T12:08:57Z</time>
      </trkpt>
      <trkpt lat="44.92253" lon="6.50523">
        <ele>2196.8</ele>
        <time>2024-08-11T12:08:58Z</time>
      </trkpt>
      <trkpt lat="44.92253" lon="6.50523">
        <ele>2196.6</ele>
        <time>2024-08-11T12:08:59Z</time>
      </trkpt>
      <trkpt lat="44.92253" lon="6.50523">
        <ele>2196.4</ele>
        <time>2024-08-11T12:09:00Z</time>
      </trkpt>
      <trkpt lat="44.92251" lon="6.5052">
        <ele>2196.4</ele>
        <time>2024-08-11T12:09:01Z</time>
      </trkpt>
      <trkpt lat="44.92251" lon="6.5052">
        <ele>2195.8</ele>
        <time>2024-08-11T12:09:02Z</time>
      </trkpt>
      <trkpt lat="44.92251" lon="6.5052">
        <ele>2195.8</ele>
        <time>2024-08-11T12:09:03Z</time>
      </trkpt>
      <trkpt lat="44.9225" lon="6.50517">
        <ele>2195.6</ele>
        <time>2024-08-11T12:09:04Z</time>
      </trkpt>
      <trkpt lat="44.9225" lon="6.50517">
        <ele>2195.6</ele>
        <time>2024-08-11T12:09:05Z</time>
      </trkpt>
      <trkpt lat="44.92248" lon="6.50517">
        <ele>2195.4</ele>
        <time>2024-08-11T12:09:06Z</time>
      </trkpt>
      <trkpt lat="44.92248" lon="6.50517">
        <ele>2195</ele>
        <time>2024-08-11T12:09:07Z</time>
      </trkpt>
      <trkpt lat="44.92246" lon="6.50515">
        <ele>2195</ele>
        <time>2024-08-11T12:09:08Z</time>
      </trkpt>
      <trkpt lat="44.92246" lon="6.50515">
        <ele>2195.2</ele>
        <time>2024-08-11T12:09:09Z</time>
      </trkpt>
      <trkpt lat="44.92245" lon="6.50513">
        <ele>2195.2</ele>
        <time>2024-08-11T12:09:10Z</time>
      </trkpt>
      <trkpt lat="44.92245" lon="6.50513">
        <ele>2195</ele>
        <time>2024-08-11T12:09:11Z</time>
      </trkpt>
      <trkpt lat="44.92243" lon="6.50512">
        <ele>2194.8</ele>
        <time>2024-08-11T12:09:12Z</time>
      </trkpt>
      <trkpt lat="44.92243" lon="6.50512">
        <ele>2194.8</ele>
        <time>2024-08-11T12:09:13Z</time>
      </trkpt>
      <trkpt lat="44.92241" lon="6.5051">
        <ele>2194.6</ele>
        <time>2024-08-11T12:09:14Z</time>
      </trkpt>
      <trkpt lat="44.92241" lon="6.5051">
        <ele>2194.4</ele>
        <time>2024-08-11T12:09:15Z</time>
      </trkpt>
      <trkpt lat="44.92239" lon="6.50509">
        <ele>2194.2</ele>
        <time>2024-08-11T12:09:16Z</time>
      </trkpt>
      <trkpt lat="44.92239" lon="6.50509">
        <ele>2194.2</ele>
        <time>2024-08-11T12:09:17Z</time>
      </trkpt>
      <trkpt lat="44.92237" lon="6.5051">
        <ele>2194.2</ele>
        <time>2024-08-11T12:09:18Z</time>
      </trkpt>
      <trkpt lat="44.92237" lon="6.5051">
        <ele>2194</ele>
        <time>2024-08-11T12:09:19Z</time>
      </trkpt>
      <trkpt lat="44.92235" lon="6.50511">
        <ele>2193.4</ele>
        <time>2024-08-11T12:09:20Z</time>
      </trkpt>
      <trkpt lat="44.92235" lon="6.50511">
        <ele>2193.4</ele>
        <time>2024-08-11T12:09:21Z</time>
      </trkpt>
      <trkpt lat="44.92233" lon="6.50511">
        <ele>2193.6</ele>
        <time>2024-08-11T12:09:22Z</time>
      </trkpt>
      <trkpt lat="44.92233" lon="6.50511">
        <ele>2193.6</ele>
        <time>2024-08-11T12:09:23Z</time>
      </trkpt>
      <trkpt lat="44.92231" lon="6.50511">
        <ele>2193.4</ele>
        <time>2024-08-11T12:09:24Z</time>
      </trkpt>
      <trkpt lat="44.92231" lon="6.50511">
        <ele>2193.2</ele>
        <time>2024-08-11T12:09:25Z</time>
      </trkpt>
      <trkpt lat="44.92229" lon="6.5051">
        <ele>2193.2</ele>
        <time>2024-08-11T12:09:26Z</time>
      </trkpt>
      <trkpt lat="44.92229" lon="6.5051">
        <ele>2193.2</ele>
        <time>2024-08-11T12:09:27Z</time>
      </trkpt>
      <trkpt lat="44.92227" lon="6.5051">
        <ele>2193.2</ele>
        <time>2024-08-11T12:09:28Z</time>
      </trkpt>
      <trkpt lat="44.92227" lon="6.5051">
        <ele>2193.2</ele>
        <time>2024-08-11T12:09:29Z</time>
      </trkpt>
      <trkpt lat="44.92224" lon="6.50509">
        <ele>2193</ele>
        <time>2024-08-11T12:09:30Z</time>
      </trkpt>
      <trkpt lat="44.92224" lon="6.50509">
        <ele>2192.8</ele>
        <time>2024-08-11T12:09:31Z</time>
      </trkpt>
      <trkpt lat="44.92221" lon="6.50509">
        <ele>2192.8</ele>
        <time>2024-08-11T12:09:32Z</time>
      </trkpt>
      <trkpt lat="44.92221" lon="6.50509">
        <ele>2192.6</ele>
        <time>2024-08-11T12:09:33Z</time>
      </trkpt>
      <trkpt lat="44.9222" lon="6.50509">
        <ele>2192.4</ele>
        <time>2024-08-11T12:09:34Z</time>
      </trkpt>
      <trkpt lat="44.9222" lon="6.50509">
        <ele>2192.2</ele>
        <time>2024-08-11T12:09:35Z</time>
      </trkpt>
      <trkpt lat="44.92217" lon="6.50509">
        <ele>2192</ele>
        <time>2024-08-11T12:09:36Z</time>
      </trkpt>
      <trkpt lat="44.92217" lon="6.50509">
        <ele>2192</ele>
        <time>2024-08-11T12:09:37Z</time>
      </trkpt>
      <trkpt lat="44.92215" lon="6.50508">
        <ele>2191.8</ele>
        <time>2024-08-11T12:09:38Z</time>
      </trkpt>
      <trkpt lat="44.92215" lon="6.50508">
        <ele>2191.6</ele>
        <time>2024-08-11T12:09:39Z</time>
      </trkpt>
      <trkpt lat="44.92213" lon="6.50509">
        <ele>2191.4</ele>
        <time>2024-08-11T12:09:40Z</time>
      </trkpt>
      <trkpt lat="44.92213" lon="6.50509">
        <ele>2191.2</ele>
        <time>2024-08-11T12:09:41Z</time>
      </trkpt>
      <trkpt lat="44.9221" lon="6.50508">
        <ele>2191</ele>
        <time>2024-08-11T12:09:42Z</time>
      </trkpt>
      <trkpt lat="44.9221" lon="6.50508">
        <ele>2191</ele>
        <time>2024-08-11T12:09:43Z</time>
      </trkpt>
      <trkpt lat="44.92206" lon="6.50508">
        <ele>2190.8</ele>
        <time>2024-08-11T12:09:44Z</time>
      </trkpt>
      <trkpt lat="44.92206" lon="6.50508">
        <ele>2190.4</ele>
        <time>2024-08-11T12:09:45Z</time>
      </trkpt>
      <trkpt lat="44.92204" lon="6.50507">
        <ele>2190.4</ele>
        <time>2024-08-11T12:09:46Z</time>
      </trkpt>
      <trkpt lat="44.92204" lon="6.50507">
        <ele>2190</ele>
        <time>2024-08-11T12:09:47Z</time>
      </trkpt>
      <trkpt lat="44.92201" lon="6.50507">
        <ele>2189.8</ele>
        <time>2024-08-11T12:09:48Z</time>
      </trkpt>
      <trkpt lat="44.92201" lon="6.50507">
        <ele>2189.8</ele>
        <time>2024-08-11T12:09:49Z</time>
      </trkpt>
      <trkpt lat="44.92199" lon="6.50508">
        <ele>2189.8</ele>
        <time>2024-08-11T12:09:50Z</time>
      </trkpt>
      <trkpt lat="44.92199" lon="6.50508">
        <ele>2189.4</ele>
        <time>2024-08-11T12:09:51Z</time>
      </trkpt>
      <trkpt lat="44.92196" lon="6.50507">
        <ele>2189.4</ele>
        <time>2024-08-11T12:09:52Z</time>
      </trkpt>
      <trkpt lat="44.92196" lon="6.50507">
        <ele>2189.2</ele>
        <time>2024-08-11T12:09:53Z</time>
      </trkpt>
      <trkpt lat="44.92194" lon="6.50508">
        <ele>2189.2</ele>
        <time>2024-08-11T12:09:54Z</time>
      </trkpt>
      <trkpt lat="44.92194" lon="6.50508">
        <ele>2189.2</ele>
        <time>2024-08-11T12:09:55Z</time>
      </trkpt>
      <trkpt lat="44.92192" lon="6.50508">
        <ele>2188.8</ele>
        <time>2024-08-11T12:09:56Z</time>
      </trkpt>
      <trkpt lat="44.92192" lon="6.50508">
        <ele>2188.4</ele>
        <time>2024-08-11T12:09:57Z</time>
      </trkpt>
      <trkpt lat="44.92189" lon="6.50508">
        <ele>2188.2</ele>
        <time>2024-08-11T12:09:58Z</time>
      </trkpt>
      <trkpt lat="44.92189" lon="6.50508">
        <ele>2187.8</ele>
        <time>2024-08-11T12:09:59Z</time>
      </trkpt>
      <trkpt lat="44.92188" lon="6.50508">
        <ele>2187.6</ele>
        <time>2024-08-11T12:10:00Z</time>
      </trkpt>
      <trkpt lat="44.92188" lon="6.50508">
        <ele>2187.4</ele>
        <time>2024-08-11T12:10:01Z</time>
      </trkpt>
      <trkpt lat="44.92185" lon="6.50507">
        <ele>2186.8</ele>
        <time>2024-08-11T12:10:02Z</time>
      </trkpt>
      <trkpt lat="44.92185" lon="6.50507">
        <ele>2186.8</ele>
        <time>2024-08-11T12:10:03Z</time>
      </trkpt>
      <trkpt lat="44.92183" lon="6.50506">
        <ele>2186.6</ele>
        <time>2024-08-11T12:10:04Z</time>
      </trkpt>
      <trkpt lat="44.92183" lon="6.50506">
        <ele>2186.6</ele>
        <time>2024-08-11T12:10:05Z</time>
      </trkpt>
      <trkpt lat="44.92181" lon="6.50505">
        <ele>2186.6</ele>
        <time>2024-08-11T12:10:06Z</time>
      </trkpt>
      <trkpt lat="44.92181" lon="6.50505">
        <ele>2186.6</ele>
        <time>2024-08-11T12:10:07Z</time>
      </trkpt>
      <trkpt lat="44.9218" lon="6.50503">
        <ele>2186.6</ele>
        <time>2024-08-11T12:10:08Z</time>
      </trkpt>
      <trkpt lat="44.9218" lon="6.50503">
        <ele>2186.6</ele>
        <time>2024-08-11T12:10:09Z</time>
      </trkpt>
      <trkpt lat="44.92177" lon="6.50502">
        <ele>2186.4</ele>
        <time>2024-08-11T12:10:10Z</time>
      </trkpt>
      <trkpt lat="44.92177" lon="6.50502">
        <ele>2186.2</ele>
        <time>2024-08-11T12:10:11Z</time>
      </trkpt>
      <trkpt lat="44.92174" lon="6.50501">
        <ele>2185.8</ele>
        <time>2024-08-11T12:10:12Z</time>
      </trkpt>
      <trkpt lat="44.92174" lon="6.50501">
        <ele>2185.8</ele>
        <time>2024-08-11T12:10:13Z</time>
      </trkpt>
      <trkpt lat="44.92174" lon="6.50501">
        <ele>2185.6</ele>
        <time>2024-08-11T12:10:14Z</time>
      </trkpt>
      <trkpt lat="44.92172" lon="6.50499">
        <ele>2185.4</ele>
        <time>2024-08-11T12:10:15Z</time>
      </trkpt>
      <trkpt lat="44.92172" lon="6.50499">
        <ele>2185</ele>
        <time>2024-08-11T12:10:16Z</time>
      </trkpt>
      <trkpt lat="44.92172" lon="6.50499">
        <ele>2185</ele>
        <time>2024-08-11T12:10:17Z</time>
      </trkpt>
      <trkpt lat="44.9217" lon="6.50499">
        <ele>2184.8</ele>
        <time>2024-08-11T12:10:18Z</time>
      </trkpt>
      <trkpt lat="44.9217" lon="6.50499">
        <ele>2184.6</ele>
        <time>2024-08-11T12:10:19Z</time>
      </trkpt>
      <trkpt lat="44.92168" lon="6.50496">
        <ele>2184.2</ele>
        <time>2024-08-11T12:10:20Z</time>
      </trkpt>
      <trkpt lat="44.92168" lon="6.50496">
        <ele>2184.2</ele>
        <time>2024-08-11T12:10:21Z</time>
      </trkpt>
      <trkpt lat="44.92168" lon="6.50496">
        <ele>2183.8</ele>
        <time>2024-08-11T12:10:22Z</time>
      </trkpt>
      <trkpt lat="44.92166" lon="6.50494">
        <ele>2183.6</ele>
        <time>2024-08-11T12:10:23Z</time>
      </trkpt>
      <trkpt lat="44.92166" lon="6.50494">
        <ele>2183.4</ele>
        <time>2024-08-11T12:10:24Z</time>
      </trkpt>
      <trkpt lat="44.92166" lon="6.50494">
        <ele>2183.2</ele>
        <time>2024-08-11T12:10:25Z</time>
      </trkpt>
      <trkpt lat="44.92164" lon="6.50493">
        <ele>2183.2</ele>
        <time>2024-08-11T12:10:26Z</time>
      </trkpt>
      <trkpt lat="44.92164" lon="6.50493">
        <ele>2182.6</ele>
        <time>2024-08-11T12:10:27Z</time>
      </trkpt>
      <trkpt lat="44.92162" lon="6.50492">
        <ele>2182.2</ele>
        <time>2024-08-11T12:10:28Z</time>
      </trkpt>
      <trkpt lat="44.92162" lon="6.50492">
        <ele>2182</ele>
        <time>2024-08-11T12:10:29Z</time>
      </trkpt>
      <trkpt lat="44.92161" lon="6.5049">
        <ele>2181.6</ele>
        <time>2024-08-11T12:10:30Z</time>
      </trkpt>
      <trkpt lat="44.92161" lon="6.5049">
        <ele>2181.4</ele>
        <time>2024-08-11T12:10:31Z</time>
      </trkpt>
      <trkpt lat="44.92161" lon="6.5049">
        <ele>2181</ele>
        <time>2024-08-11T12:10:32Z</time>
      </trkpt>
      <trkpt lat="44.92159" lon="6.50487">
        <ele>2180.8</ele>
        <time>2024-08-11T12:10:33Z</time>
      </trkpt>
      <trkpt lat="44.92159" lon="6.50487">
        <ele>2180.8</ele>
        <time>2024-08-11T12:10:34Z</time>
      </trkpt>
      <trkpt lat="44.92161" lon="6.50485">
        <ele>2180.6</ele>
        <time>2024-08-11T12:10:35Z</time>
      </trkpt>
      <trkpt lat="44.92161" lon="6.50485">
        <ele>2180.4</ele>
        <time>2024-08-11T12:10:36Z</time>
      </trkpt>
      <trkpt lat="44.92164" lon="6.50484">
        <ele>2180.4</ele>
        <time>2024-08-11T12:10:37Z</time>
      </trkpt>
      <trkpt lat="44.92164" lon="6.50484">
        <ele>2180.2</ele>
        <time>2024-08-11T12:10:38Z</time>
      </trkpt>
      <trkpt lat="44.92166" lon="6.50484">
        <ele>2180</ele>
        <time>2024-08-11T12:10:39Z</time>
      </trkpt>
      <trkpt lat="44.92166" lon="6.50484">
        <ele>2179.6</ele>
        <time>2024-08-11T12:10:40Z</time>
      </trkpt>
      <trkpt lat="44.9217" lon="6.50485">
        <ele>2179.4</ele>
        <time>2024-08-11T12:10:41Z</time>
      </trkpt>
      <trkpt lat="44.9217" lon="6.50485">
        <ele>2179.4</ele>
        <time>2024-08-11T12:10:42Z</time>
      </trkpt>
      <trkpt lat="44.92172" lon="6.50485">
        <ele>2179.2</ele>
        <time>2024-08-11T12:10:43Z</time>
      </trkpt>
      <trkpt lat="44.92172" lon="6.50485">
        <ele>2179.2</ele>
        <time>2024-08-11T12:10:44Z</time>
      </trkpt>
      <trkpt lat="44.92174" lon="6.50484">
        <ele>2179.2</ele>
        <time>2024-08-11T12:10:45Z</time>
      </trkpt>
      <trkpt lat="44.92174" lon="6.50484">
        <ele>2179.2</ele>
        <time>2024-08-11T12:10:46Z</time>
      </trkpt>
      <trkpt lat="44.92176" lon="6.50483">
        <ele>2179</ele>
        <time>2024-08-11T12:10:47Z</time>
      </trkpt>
      <trkpt lat="44.92176" lon="6.50483">
        <ele>2178.8</ele>
        <time>2024-08-11T12:10:48Z</time>
      </trkpt>
      <trkpt lat="44.92178" lon="6.50482">
        <ele>2178.6</ele>
        <time>2024-08-11T12:10:49Z</time>
      </trkpt>
      <trkpt lat="44.92178" lon="6.50482">
        <ele>2178.6</ele>
        <time>2024-08-11T12:10:50Z</time>
      </trkpt>
      <trkpt lat="44.9218" lon="6.5048">
        <ele>2178.4</ele>
        <time>2024-08-11T12:10:51Z</time>
      </trkpt>
      <trkpt lat="44.9218" lon="6.5048">
        <ele>2178.4</ele>
        <time>2024-08-11T12:10:52Z</time>
      </trkpt>
      <trkpt lat="44.92181" lon="6.50478">
        <ele>2177.8</ele>
        <time>2024-08-11T12:10:53Z</time>
      </trkpt>
      <trkpt lat="44.92181" lon="6.50478">
        <ele>2177.6</ele>
        <time>2024-08-11T12:10:54Z</time>
      </trkpt>
      <trkpt lat="44.92182" lon="6.50476">
        <ele>2177.4</ele>
        <time>2024-08-11T12:10:55Z</time>
      </trkpt>
      <trkpt lat="44.92182" lon="6.50476">
        <ele>2177.2</ele>
        <time>2024-08-11T12:10:56Z</time>
      </trkpt>
      <trkpt lat="44.92184" lon="6.50474">
        <ele>2177</ele>
        <time>2024-08-11T12:10:57Z</time>
      </trkpt>
      <trkpt lat="44.92184" lon="6.50474">
        <ele>2177</ele>
        <time>2024-08-11T12:10:58Z</time>
      </trkpt>
      <trkpt lat="44.92186" lon="6.50473">
        <ele>2176.6</ele>
        <time>2024-08-11T12:10:59Z</time>
      </trkpt>
      <trkpt lat="44.92186" lon="6.50473">
        <ele>2176.4</ele>
        <time>2024-08-11T12:11:00Z</time>
      </trkpt>
      <trkpt lat="44.92188" lon="6.50473">
        <ele>2176</ele>
        <time>2024-08-11T12:11:01Z</time>
      </trkpt>
      <trkpt lat="44.92188" lon="6.50473">
        <ele>2176</ele>
        <time>2024-08-11T12:11:02Z</time>
      </trkpt>
      <trkpt lat="44.9219" lon="6.50473">
        <ele>2176</ele>
        <time>2024-08-11T12:11:03Z</time>
      </trkpt>
      <trkpt lat="44.9219" lon="6.50473">
        <ele>2176</ele>
        <time>2024-08-11T12:11:04Z</time>
      </trkpt>
      <trkpt lat="44.92193" lon="6.50472">
        <ele>2176</ele>
        <time>2024-08-11T12:11:05Z</time>
      </trkpt>
      <trkpt lat="44.92193" lon="6.50472">
        <ele>2175.8</ele>
        <time>2024-08-11T12:11:06Z</time>
      </trkpt>
      <trkpt lat="44.92195" lon="6.5047">
        <ele>2175.2</ele>
        <time>2024-08-11T12:11:07Z</time>
      </trkpt>
      <trkpt lat="44.92195" lon="6.5047">
        <ele>2175.2</ele>
        <time>2024-08-11T12:11:08Z</time>
      </trkpt>
      <trkpt lat="44.92197" lon="6.50469">
        <ele>2175</ele>
        <time>2024-08-11T12:11:09Z</time>
      </trkpt>
      <trkpt lat="44.92197" lon="6.50469">
        <ele>2175</ele>
        <time>2024-08-11T12:11:10Z</time>
      </trkpt>
      <trkpt lat="44.92199" lon="6.50467">
        <ele>2174.8</ele>
        <time>2024-08-11T12:11:11Z</time>
      </trkpt>
      <trkpt lat="44.92199" lon="6.50467">
        <ele>2174.6</ele>
        <time>2024-08-11T12:11:12Z</time>
      </trkpt>
      <trkpt lat="44.92201" lon="6.50465">
        <ele>2174.2</ele>
        <time>2024-08-11T12:11:13Z</time>
      </trkpt>
      <trkpt lat="44.92201" lon="6.50465">
        <ele>2174</ele>
        <time>2024-08-11T12:11:14Z</time>
      </trkpt>
      <trkpt lat="44.92203" lon="6.50462">
        <ele>2174</ele>
        <time>2024-08-11T12:11:15Z</time>
      </trkpt>
      <trkpt lat="44.92203" lon="6.50462">
        <ele>2173.8</ele>
        <time>2024-08-11T12:11:16Z</time>
      </trkpt>
      <trkpt lat="44.92204" lon="6.5046">
        <ele>2173.6</ele>
        <time>2024-08-11T12:11:17Z</time>
      </trkpt>
      <trkpt lat="44.92204" lon="6.5046">
        <ele>2173.6</ele>
        <time>2024-08-11T12:11:18Z</time>
      </trkpt>
      <trkpt lat="44.92206" lon="6.50458">
        <ele>2173.6</ele>
        <time>2024-08-11T12:11:19Z</time>
      </trkpt>
      <trkpt lat="44.92206" lon="6.50458">
        <ele>2173.4</ele>
        <time>2024-08-11T12:11:20Z</time>
      </trkpt>
      <trkpt lat="44.92208" lon="6.50456">
        <ele>2173.2</ele>
        <time>2024-08-11T12:11:21Z</time>
      </trkpt>
      <trkpt lat="44.92208" lon="6.50456">
        <ele>2173</ele>
        <time>2024-08-11T12:11:22Z</time>
      </trkpt>
      <trkpt lat="44.9221" lon="6.50455">
        <ele>2172.8</ele>
        <time>2024-08-11T12:11:23Z</time>
      </trkpt>
      <trkpt lat="44.9221" lon="6.50455">
        <ele>2172.2</ele>
        <time>2024-08-11T12:11:24Z</time>
      </trkpt>
      <trkpt lat="44.92212" lon="6.50454">
        <ele>2172.2</ele>
        <time>2024-08-11T12:11:25Z</time>
      </trkpt>
      <trkpt lat="44.92212" lon="6.50454">
        <ele>2172</ele>
        <time>2024-08-11T12:11:26Z</time>
      </trkpt>
      <trkpt lat="44.92214" lon="6.50453">
        <ele>2172</ele>
        <time>2024-08-11T12:11:27Z</time>
      </trkpt>
      <trkpt lat="44.92214" lon="6.50453">
        <ele>2172</ele>
        <time>2024-08-11T12:11:28Z</time>
      </trkpt>
      <trkpt lat="44.92215" lon="6.50451">
        <ele>2171.6</ele>
        <time>2024-08-11T12:11:29Z</time>
      </trkpt>
      <trkpt lat="44.92215" lon="6.50451">
        <ele>2171.6</ele>
        <time>2024-08-11T12:11:30Z</time>
      </trkpt>
      <trkpt lat="44.92217" lon="6.50449">
        <ele>2171.2</ele>
        <time>2024-08-11T12:11:31Z</time>
      </trkpt>
      <trkpt lat="44.92217" lon="6.50449">
        <ele>2171.2</ele>
        <time>2024-08-11T12:11:32Z</time>
      </trkpt>
      <trkpt lat="44.92218" lon="6.50447">
        <ele>2170.8</ele>
        <time>2024-08-11T12:11:33Z</time>
      </trkpt>
      <trkpt lat="44.92218" lon="6.50447">
        <ele>2170.8</ele>
        <time>2024-08-11T12:11:34Z</time>
      </trkpt>
      <trkpt lat="44.9222" lon="6.50445">
        <ele>2170.8</ele>
        <time>2024-08-11T12:11:35Z</time>
      </trkpt>
      <trkpt lat="44.9222" lon="6.50445">
        <ele>2170.6</ele>
        <time>2024-08-11T12:11:36Z</time>
      </trkpt>
      <trkpt lat="44.92222" lon="6.50443">
        <ele>2170.2</ele>
        <time>2024-08-11T12:11:37Z</time>
      </trkpt>
      <trkpt lat="44.92222" lon="6.50443">
        <ele>2170</ele>
        <time>2024-08-11T12:11:38Z</time>
      </trkpt>
      <trkpt lat="44.92224" lon="6.50441">
        <ele>2170</ele>
        <time>2024-08-11T12:11:39Z</time>
      </trkpt>
      <trkpt lat="44.92224" lon="6.50441">
        <ele>2169.8</ele>
        <time>2024-08-11T12:11:40Z</time>
      </trkpt>
      <trkpt lat="44.92226" lon="6.50439">
        <ele>2169.8</ele>
        <time>2024-08-11T12:11:41Z</time>
      </trkpt>
      <trkpt lat="44.92226" lon="6.50439">
        <ele>2169.2</ele>
        <time>2024-08-11T12:11:42Z</time>
      </trkpt>
      <trkpt lat="44.92228" lon="6.50438">
        <ele>2169.2</ele>
        <time>2024-08-11T12:11:43Z</time>
      </trkpt>
      <trkpt lat="44.92228" lon="6.50438">
        <ele>2168.8</ele>
        <time>2024-08-11T12:11:44Z</time>
      </trkpt>
      <trkpt lat="44.9223" lon="6.50437">
        <ele>2168.8</ele>
        <time>2024-08-11T12:11:45Z</time>
      </trkpt>
      <trkpt lat="44.9223" lon="6.50437">
        <ele>2168.6</ele>
        <time>2024-08-11T12:11:46Z</time>
      </trkpt>
      <trkpt lat="44.92232" lon="6.50434">
        <ele>2168.6</ele>
        <time>2024-08-11T12:11:47Z</time>
      </trkpt>
      <trkpt lat="44.92232" lon="6.50434">
        <ele>2168.6</ele>
        <time>2024-08-11T12:11:48Z</time>
      </trkpt>
      <trkpt lat="44.92234" lon="6.50433">
        <ele>2168.6</ele>
        <time>2024-08-11T12:11:49Z</time>
      </trkpt>
      <trkpt lat="44.92234" lon="6.50433">
        <ele>2168.6</ele>
        <time>2024-08-11T12:11:50Z</time>
      </trkpt>
      <trkpt lat="44.92236" lon="6.50433">
        <ele>2168.4</ele>
        <time>2024-08-11T12:11:51Z</time>
      </trkpt>
      <trkpt lat="44.92236" lon="6.50433">
        <ele>2168</ele>
        <time>2024-08-11T12:11:52Z</time>
      </trkpt>
      <trkpt lat="44.92237" lon="6.50431">
        <ele>2167.8</ele>
        <time>2024-08-11T12:11:53Z</time>
      </trkpt>
      <trkpt lat="44.92237" lon="6.50431">
        <ele>2167.4</ele>
        <time>2024-08-11T12:11:54Z</time>
      </trkpt>
      <trkpt lat="44.92239" lon="6.50431">
        <ele>2167.4</ele>
        <time>2024-08-11T12:11:55Z</time>
      </trkpt>
      <trkpt lat="44.92239" lon="6.50431">
        <ele>2167.2</ele>
        <time>2024-08-11T12:11:56Z</time>
      </trkpt>
      <trkpt lat="44.92241" lon="6.50429">
        <ele>2167</ele>
        <time>2024-08-11T12:11:57Z</time>
      </trkpt>
      <trkpt lat="44.92241" lon="6.50429">
        <ele>2167</ele>
        <time>2024-08-11T12:11:58Z</time>
      </trkpt>
      <trkpt lat="44.92243" lon="6.50428">
        <ele>2166.8</ele>
        <time>2024-08-11T12:11:59Z</time>
      </trkpt>
      <trkpt lat="44.92243" lon="6.50428">
        <ele>2166.4</ele>
        <time>2024-08-11T12:12:00Z</time>
      </trkpt>
      <trkpt lat="44.92245" lon="6.50427">
        <ele>2166.4</ele>
        <time>2024-08-11T12:12:01Z</time>
      </trkpt>
      <trkpt lat="44.92245" lon="6.50427">
        <ele>2166</ele>
        <time>2024-08-11T12:12:02Z</time>
      </trkpt>
      <trkpt lat="44.92247" lon="6.50426">
        <ele>2166</ele>
        <time>2024-08-11T12:12:03Z</time>
      </trkpt>
      <trkpt lat="44.92247" lon="6.50426">
        <ele>2166</ele>
        <time>2024-08-11T12:12:04Z</time>
      </trkpt>
      <trkpt lat="44.92247" lon="6.50426">
        <ele>2165.8</ele>
        <time>2024-08-11T12:12:05Z</time>
      </trkpt>
      <trkpt lat="44.9225" lon="6.50425">
        <ele>2165.8</ele>
        <time>2024-08-11T12:12:06Z</time>
      </trkpt>
      <trkpt lat="44.9225" lon="6.50425">
        <ele>2165.2</ele>
        <time>2024-08-11T12:12:07Z</time>
      </trkpt>
      <trkpt lat="44.92252" lon="6.50424">
        <ele>2165</ele>
        <time>2024-08-11T12:12:08Z</time>
      </trkpt>
      <trkpt lat="44.92252" lon="6.50424">
        <ele>2165</ele>
        <time>2024-08-11T12:12:09Z</time>
      </trkpt>
      <trkpt lat="44.92253" lon="6.50423">
        <ele>2165</ele>
        <time>2024-08-11T12:12:10Z</time>
      </trkpt>
      <trkpt lat="44.92253" lon="6.50423">
        <ele>2164.6</ele>
        <time>2024-08-11T12:12:11Z</time>
      </trkpt>
      <trkpt lat="44.92255" lon="6.50421">
        <ele>2164.4</ele>
        <time>2024-08-11T12:12:12Z</time>
      </trkpt>
      <trkpt lat="44.92255" lon="6.50421">
        <ele>2164</ele>
        <time>2024-08-11T12:12:13Z</time>
      </trkpt>
      <trkpt lat="44.92258" lon="6.50421">
        <ele>2164</ele>
        <time>2024-08-11T12:12:14Z</time>
      </trkpt>
      <trkpt lat="44.92258" lon="6.50421">
        <ele>2163.8</ele>
        <time>2024-08-11T12:12:15Z</time>
      </trkpt>
      <trkpt lat="44.92261" lon="6.5042">
        <ele>2163.8</ele>
        <time>2024-08-11T12:12:16Z</time>
      </trkpt>
      <trkpt lat="44.92261" lon="6.5042">
        <ele>2163.6</ele>
        <time>2024-08-11T12:12:17Z</time>
      </trkpt>
      <trkpt lat="44.92262" lon="6.5042">
        <ele>2163.6</ele>
        <time>2024-08-11T12:12:18Z</time>
      </trkpt>
      <trkpt lat="44.92262" lon="6.5042">
        <ele>2163.2</ele>
        <time>2024-08-11T12:12:19Z</time>
      </trkpt>
      <trkpt lat="44.92264" lon="6.5042">
        <ele>2163.2</ele>
        <time>2024-08-11T12:12:20Z</time>
      </trkpt>
      <trkpt lat="44.92264" lon="6.5042">
        <ele>2162.8</ele>
        <time>2024-08-11T12:12:21Z</time>
      </trkpt>
      <trkpt lat="44.92264" lon="6.5042">
        <ele>2162.8</ele>
        <time>2024-08-11T12:12:22Z</time>
      </trkpt>
      <trkpt lat="44.92267" lon="6.50418">
        <ele>2162.8</ele>
        <time>2024-08-11T12:12:23Z</time>
      </trkpt>
      <trkpt lat="44.92267" lon="6.50418">
        <ele>2162.8</ele>
        <time>2024-08-11T12:12:24Z</time>
      </trkpt>
      <trkpt lat="44.92269" lon="6.50416">
        <ele>2162.6</ele>
        <time>2024-08-11T12:12:25Z</time>
      </trkpt>
      <trkpt lat="44.92269" lon="6.50416">
        <ele>2162.6</ele>
        <time>2024-08-11T12:12:26Z</time>
      </trkpt>
      <trkpt lat="44.9227" lon="6.50415">
        <ele>2162.2</ele>
        <time>2024-08-11T12:12:27Z</time>
      </trkpt>
      <trkpt lat="44.9227" lon="6.50415">
        <ele>2162.2</ele>
        <time>2024-08-11T12:12:28Z</time>
      </trkpt>
      <trkpt lat="44.9227" lon="6.50415">
        <ele>2162</ele>
        <time>2024-08-11T12:12:29Z</time>
      </trkpt>
      <trkpt lat="44.92273" lon="6.50412">
        <ele>2162</ele>
        <time>2024-08-11T12:12:30Z</time>
      </trkpt>
      <trkpt lat="44.92273" lon="6.50412">
        <ele>2162</ele>
        <time>2024-08-11T12:12:31Z</time>
      </trkpt>
      <trkpt lat="44.92275" lon="6.50411">
        <ele>2161.6</ele>
        <time>2024-08-11T12:12:32Z</time>
      </trkpt>
      <trkpt lat="44.92275" lon="6.50411">
        <ele>2161.6</ele>
        <time>2024-08-11T12:12:33Z</time>
      </trkpt>
      <trkpt lat="44.92277" lon="6.50409">
        <ele>2161.4</ele>
        <time>2024-08-11T12:12:34Z</time>
      </trkpt>
      <trkpt lat="44.92277" lon="6.50409">
        <ele>2161.4</ele>
        <time>2024-08-11T12:12:35Z</time>
      </trkpt>
      <trkpt lat="44.92279" lon="6.50408">
        <ele>2161.2</ele>
        <time>2024-08-11T12:12:36Z</time>
      </trkpt>
      <trkpt lat="44.92279" lon="6.50408">
        <ele>2161</ele>
        <time>2024-08-11T12:12:37Z</time>
      </trkpt>
      <trkpt lat="44.92281" lon="6.50408">
        <ele>2160.8</ele>
        <time>2024-08-11T12:12:38Z</time>
      </trkpt>
      <trkpt lat="44.92281" lon="6.50408">
        <ele>2160.8</ele>
        <time>2024-08-11T12:12:39Z</time>
      </trkpt>
      <trkpt lat="44.92284" lon="6.50408">
        <ele>2160.6</ele>
        <time>2024-08-11T12:12:40Z</time>
      </trkpt>
      <trkpt lat="44.92284" lon="6.50408">
        <ele>2160.4</ele>
        <time>2024-08-11T12:12:41Z</time>
      </trkpt>
      <trkpt lat="44.92287" lon="6.5041">
        <ele>2160.4</ele>
        <time>2024-08-11T12:12:42Z</time>
      </trkpt>
      <trkpt lat="44.92287" lon="6.5041">
        <ele>2160.4</ele>
        <time>2024-08-11T12:12:43Z</time>
      </trkpt>
      <trkpt lat="44.92289" lon="6.50411">
        <ele>2159.8</ele>
        <time>2024-08-11T12:12:44Z</time>
      </trkpt>
      <trkpt lat="44.92289" lon="6.50411">
        <ele>2159.6</ele>
        <time>2024-08-11T12:12:45Z</time>
      </trkpt>
      <trkpt lat="44.92291" lon="6.50412">
        <ele>2159.4</ele>
        <time>2024-08-11T12:12:46Z</time>
      </trkpt>
      <trkpt lat="44.92291" lon="6.50412">
        <ele>2159.2</ele>
        <time>2024-08-11T12:12:47Z</time>
      </trkpt>
      <trkpt lat="44.92293" lon="6.50411">
        <ele>2159.2</ele>
        <time>2024-08-11T12:12:48Z</time>
      </trkpt>
      <trkpt lat="44.92293" lon="6.50411">
        <ele>2159.2</ele>
        <time>2024-08-11T12:12:49Z</time>
      </trkpt>
      <trkpt lat="44.92296" lon="6.50411">
        <ele>2159</ele>
        <time>2024-08-11T12:12:50Z</time>
      </trkpt>
      <trkpt lat="44.92296" lon="6.50411">
        <ele>2158.6</ele>
        <time>2024-08-11T12:12:51Z</time>
      </trkpt>
      <trkpt lat="44.92298" lon="6.50411">
        <ele>2158.6</ele>
        <time>2024-08-11T12:12:52Z</time>
      </trkpt>
      <trkpt lat="44.92298" lon="6.50411">
        <ele>2158.6</ele>
        <time>2024-08-11T12:12:53Z</time>
      </trkpt>
      <trkpt lat="44.923" lon="6.50412">
        <ele>2158.4</ele>
        <time>2024-08-11T12:12:54Z</time>
      </trkpt>
      <trkpt lat="44.923" lon="6.50412">
        <ele>2158</ele>
        <time>2024-08-11T12:12:55Z</time>
      </trkpt>
      <trkpt lat="44.92302" lon="6.50414">
        <ele>2157.8</ele>
        <time>2024-08-11T12:12:56Z</time>
      </trkpt>
      <trkpt lat="44.92302" lon="6.50414">
        <ele>2157.8</ele>
        <time>2024-08-11T12:12:57Z</time>
      </trkpt>
      <trkpt lat="44.92305" lon="6.50415">
        <ele>2157.6</ele>
        <time>2024-08-11T12:12:58Z</time>
      </trkpt>
      <trkpt lat="44.92305" lon="6.50415">
        <ele>2157.4</ele>
        <time>2024-08-11T12:12:59Z</time>
      </trkpt>
      <trkpt lat="44.92307" lon="6.50416">
        <ele>2157.2</ele>
        <time>2024-08-11T12:13:00Z</time>
      </trkpt>
      <trkpt lat="44.92307" lon="6.50416">
        <ele>2157.2</ele>
        <time>2024-08-11T12:13:01Z</time>
      </trkpt>
      <trkpt lat="44.92309" lon="6.50417">
        <ele>2156.8</ele>
        <time>2024-08-11T12:13:02Z</time>
      </trkpt>
      <trkpt lat="44.92309" lon="6.50417">
        <ele>2156.8</ele>
        <time>2024-08-11T12:13:03Z</time>
      </trkpt>
      <trkpt lat="44.92309" lon="6.50417">
        <ele>2156.8</ele>
        <time>2024-08-11T12:13:04Z</time>
      </trkpt>
      <trkpt lat="44.92312" lon="6.50418">
        <ele>2156.6</ele>
        <time>2024-08-11T12:13:05Z</time>
      </trkpt>
      <trkpt lat="44.92312" lon="6.50418">
        <ele>2156.4</ele>
        <time>2024-08-11T12:13:06Z</time>
      </trkpt>
      <trkpt lat="44.92312" lon="6.50418">
        <ele>2156</ele>
        <time>2024-08-11T12:13:07Z</time>
      </trkpt>
      <trkpt lat="44.92313" lon="6.50415">
        <ele>2155.8</ele>
        <time>2024-08-11T12:13:08Z</time>
      </trkpt>
      <trkpt lat="44.92313" lon="6.50415">
        <ele>2155.8</ele>
        <time>2024-08-11T12:13:09Z</time>
      </trkpt>
      <trkpt lat="44.92313" lon="6.50415">
        <ele>2155.6</ele>
        <time>2024-08-11T12:13:10Z</time>
      </trkpt>
      <trkpt lat="44.92312" lon="6.50412">
        <ele>2155.4</ele>
        <time>2024-08-11T12:13:11Z</time>
      </trkpt>
      <trkpt lat="44.92312" lon="6.50412">
        <ele>2155.2</ele>
        <time>2024-08-11T12:13:12Z</time>
      </trkpt>
      <trkpt lat="44.9231" lon="6.5041">
        <ele>2155</ele>
        <time>2024-08-11T12:13:13Z</time>
      </trkpt>
      <trkpt lat="44.9231" lon="6.5041">
        <ele>2155</ele>
        <time>2024-08-11T12:13:14Z</time>
      </trkpt>
      <trkpt lat="44.92308" lon="6.50409">
        <ele>2154.8</ele>
        <time>2024-08-11T12:13:15Z</time>
      </trkpt>
      <trkpt lat="44.92308" lon="6.50409">
        <ele>2154.4</ele>
        <time>2024-08-11T12:13:16Z</time>
      </trkpt>
      <trkpt lat="44.92305" lon="6.50407">
        <ele>2154.4</ele>
        <time>2024-08-11T12:13:17Z</time>
      </trkpt>
      <trkpt lat="44.92305" lon="6.50407">
        <ele>2154.2</ele>
        <time>2024-08-11T12:13:18Z</time>
      </trkpt>
      <trkpt lat="44.92303" lon="6.50406">
        <ele>2154</ele>
        <time>2024-08-11T12:13:19Z</time>
      </trkpt>
      <trkpt lat="44.92303" lon="6.50406">
        <ele>2153.4</ele>
        <time>2024-08-11T12:13:20Z</time>
      </trkpt>
      <trkpt lat="44.92301" lon="6.50404">
        <ele>2153.2</ele>
        <time>2024-08-11T12:13:21Z</time>
      </trkpt>
      <trkpt lat="44.92301" lon="6.50404">
        <ele>2153.2</ele>
        <time>2024-08-11T12:13:22Z</time>
      </trkpt>
      <trkpt lat="44.92299" lon="6.50401">
        <ele>2153</ele>
        <time>2024-08-11T12:13:23Z</time>
      </trkpt>
      <trkpt lat="44.92299" lon="6.50401">
        <ele>2152.8</ele>
        <time>2024-08-11T12:13:24Z</time>
      </trkpt>
      <trkpt lat="44.92297" lon="6.50399">
        <ele>2152.6</ele>
        <time>2024-08-11T12:13:25Z</time>
      </trkpt>
      <trkpt lat="44.92297" lon="6.50399">
        <ele>2152.2</ele>
        <time>2024-08-11T12:13:26Z</time>
      </trkpt>
      <trkpt lat="44.92295" lon="6.50398">
        <ele>2152</ele>
        <time>2024-08-11T12:13:27Z</time>
      </trkpt>
      <trkpt lat="44.92295" lon="6.50398">
        <ele>2152</ele>
        <time>2024-08-11T12:13:28Z</time>
      </trkpt>
      <trkpt lat="44.92293" lon="6.50396">
        <ele>2151.8</ele>
        <time>2024-08-11T12:13:29Z</time>
      </trkpt>
      <trkpt lat="44.92293" lon="6.50396">
        <ele>2151.4</ele>
        <time>2024-08-11T12:13:30Z</time>
      </trkpt>
      <trkpt lat="44.92292" lon="6.50393">
        <ele>2151.2</ele>
        <time>2024-08-11T12:13:31Z</time>
      </trkpt>
      <trkpt lat="44.92292" lon="6.50393">
        <ele>2151.2</ele>
        <time>2024-08-11T12:13:32Z</time>
      </trkpt>
      <trkpt lat="44.9229" lon="6.5039">
        <ele>2151</ele>
        <time>2024-08-11T12:13:33Z</time>
      </trkpt>
      <trkpt lat="44.9229" lon="6.5039">
        <ele>2150.8</ele>
        <time>2024-08-11T12:13:34Z</time>
      </trkpt>
      <trkpt lat="44.92287" lon="6.50387">
        <ele>2150.6</ele>
        <time>2024-08-11T12:13:35Z</time>
      </trkpt>
      <trkpt lat="44.92287" lon="6.50387">
        <ele>2150.6</ele>
        <time>2024-08-11T12:13:36Z</time>
      </trkpt>
      <trkpt lat="44.92286" lon="6.50386">
        <ele>2150.4</ele>
        <time>2024-08-11T12:13:37Z</time>
      </trkpt>
      <trkpt lat="44.92286" lon="6.50386">
        <ele>2150.2</ele>
        <time>2024-08-11T12:13:38Z</time>
      </trkpt>
      <trkpt lat="44.92285" lon="6.50384">
        <ele>2150</ele>
        <time>2024-08-11T12:13:39Z</time>
      </trkpt>
      <trkpt lat="44.92285" lon="6.50384">
        <ele>2149.8</ele>
        <time>2024-08-11T12:13:40Z</time>
      </trkpt>
      <trkpt lat="44.92283" lon="6.50382">
        <ele>2149.8</ele>
        <time>2024-08-11T12:13:41Z</time>
      </trkpt>
      <trkpt lat="44.92283" lon="6.50382">
        <ele>2149.2</ele>
        <time>2024-08-11T12:13:42Z</time>
      </trkpt>
      <trkpt lat="44.92282" lon="6.50379">
        <ele>2149</ele>
        <time>2024-08-11T12:13:43Z</time>
      </trkpt>
      <trkpt lat="44.92282" lon="6.50379">
        <ele>2148.8</ele>
        <time>2024-08-11T12:13:44Z</time>
      </trkpt>
      <trkpt lat="44.92279" lon="6.50378">
        <ele>2148.4</ele>
        <time>2024-08-11T12:13:45Z</time>
      </trkpt>
      <trkpt lat="44.92279" lon="6.50378">
        <ele>2148</ele>
        <time>2024-08-11T12:13:46Z</time>
      </trkpt>
      <trkpt lat="44.92277" lon="6.50377">
        <ele>2147.8</ele>
        <time>2024-08-11T12:13:47Z</time>
      </trkpt>
      <trkpt lat="44.92277" lon="6.50377">
        <ele>2147.4</ele>
        <time>2024-08-11T12:13:48Z</time>
      </trkpt>
      <trkpt lat="44.92277" lon="6.50377">
        <ele>2147.2</ele>
        <time>2024-08-11T12:13:49Z</time>
      </trkpt>
      <trkpt lat="44.92275" lon="6.50376">
        <ele>2147</ele>
        <time>2024-08-11T12:13:50Z</time>
      </trkpt>
      <trkpt lat="44.92275" lon="6.50376">
        <ele>2146.8</ele>
        <time>2024-08-11T12:13:51Z</time>
      </trkpt>
      <trkpt lat="44.92273" lon="6.50375">
        <ele>2146.4</ele>
        <time>2024-08-11T12:13:52Z</time>
      </trkpt>
      <trkpt lat="44.92273" lon="6.50375">
        <ele>2146</ele>
        <time>2024-08-11T12:13:53Z</time>
      </trkpt>
      <trkpt lat="44.92271" lon="6.50374">
        <ele>2145.8</ele>
        <time>2024-08-11T12:13:54Z</time>
      </trkpt>
      <trkpt lat="44.92271" lon="6.50374">
        <ele>2145.6</ele>
        <time>2024-08-11T12:13:55Z</time>
      </trkpt>
      <trkpt lat="44.92269" lon="6.50373">
        <ele>2145.4</ele>
        <time>2024-08-11T12:13:56Z</time>
      </trkpt>
      <trkpt lat="44.92269" lon="6.50373">
        <ele>2145.2</ele>
        <time>2024-08-11T12:13:57Z</time>
      </trkpt>
      <trkpt lat="44.92269" lon="6.50373">
        <ele>2145</ele>
        <time>2024-08-11T12:13:58Z</time>
      </trkpt>
      <trkpt lat="44.92267" lon="6.50371">
        <ele>2144.8</ele>
        <time>2024-08-11T12:13:59Z</time>
      </trkpt>
      <trkpt lat="44.92267" lon="6.50371">
        <ele>2144.8</ele>
        <time>2024-08-11T12:14:00Z</time>
      </trkpt>
      <trkpt lat="44.92265" lon="6.50369">
        <ele>2144.6</ele>
        <time>2024-08-11T12:14:01Z</time>
      </trkpt>
      <trkpt lat="44.92265" lon="6.50369">
        <ele>2143.8</ele>
        <time>2024-08-11T12:14:02Z</time>
      </trkpt>
      <trkpt lat="44.92263" lon="6.50367">
        <ele>2143.8</ele>
        <time>2024-08-11T12:14:03Z</time>
      </trkpt>
      <trkpt lat="44.92263" lon="6.50367">
        <ele>2143.8</ele>
        <time>2024-08-11T12:14:04Z</time>
      </trkpt>
      <trkpt lat="44.92261" lon="6.50365">
        <ele>2143.6</ele>
        <time>2024-08-11T12:14:05Z</time>
      </trkpt>
      <trkpt lat="44.92261" lon="6.50365">
        <ele>2143.6</ele>
        <time>2024-08-11T12:14:06Z</time>
      </trkpt>
      <trkpt lat="44.92258" lon="6.50364">
        <ele>2143.2</ele>
        <time>2024-08-11T12:14:07Z</time>
      </trkpt>
      <trkpt lat="44.92258" lon="6.50364">
        <ele>2143</ele>
        <time>2024-08-11T12:14:08Z</time>
      </trkpt>
      <trkpt lat="44.92256" lon="6.50363">
        <ele>2143</ele>
        <time>2024-08-11T12:14:09Z</time>
      </trkpt>
      <trkpt lat="44.92256" lon="6.50363">
        <ele>2143</ele>
        <time>2024-08-11T12:14:10Z</time>
      </trkpt>
      <trkpt lat="44.92254" lon="6.50362">
        <ele>2142.6</ele>
        <time>2024-08-11T12:14:11Z</time>
      </trkpt>
      <trkpt lat="44.92254" lon="6.50362">
        <ele>2142.4</ele>
        <time>2024-08-11T12:14:12Z</time>
      </trkpt>
      <trkpt lat="44.92254" lon="6.50362">
        <ele>2142.2</ele>
        <time>2024-08-11T12:14:13Z</time>
      </trkpt>
      <trkpt lat="44.92251" lon="6.50363">
        <ele>2142</ele>
        <time>2024-08-11T12:14:14Z</time>
      </trkpt>
      <trkpt lat="44.92251" lon="6.50363">
        <ele>2142</ele>
        <time>2024-08-11T12:14:15Z</time>
      </trkpt>
      <trkpt lat="44.92249" lon="6.50363">
        <ele>2142</ele>
        <time>2024-08-11T12:14:16Z</time>
      </trkpt>
      <trkpt lat="44.92249" lon="6.50363">
        <ele>2141.6</ele>
        <time>2024-08-11T12:14:17Z</time>
      </trkpt>
      <trkpt lat="44.92246" lon="6.50362">
        <ele>2141.4</ele>
        <time>2024-08-11T12:14:18Z</time>
      </trkpt>
      <trkpt lat="44.92246" lon="6.50362">
        <ele>2141.4</ele>
        <time>2024-08-11T12:14:19Z</time>
      </trkpt>
      <trkpt lat="44.92244" lon="6.50361">
        <ele>2141.4</ele>
        <time>2024-08-11T12:14:20Z</time>
      </trkpt>
      <trkpt lat="44.92244" lon="6.50361">
        <ele>2141.2</ele>
        <time>2024-08-11T12:14:21Z</time>
      </trkpt>
      <trkpt lat="44.92242" lon="6.5036">
        <ele>2141</ele>
        <time>2024-08-11T12:14:22Z</time>
      </trkpt>
      <trkpt lat="44.92242" lon="6.5036">
        <ele>2140.8</ele>
        <time>2024-08-11T12:14:23Z</time>
      </trkpt>
      <trkpt lat="44.92239" lon="6.5036">
        <ele>2140.8</ele>
        <time>2024-08-11T12:14:24Z</time>
      </trkpt>
      <trkpt lat="44.92239" lon="6.5036">
        <ele>2140.6</ele>
        <time>2024-08-11T12:14:25Z</time>
      </trkpt>
      <trkpt lat="44.92237" lon="6.50358">
        <ele>2140.4</ele>
        <time>2024-08-11T12:14:26Z</time>
      </trkpt>
      <trkpt lat="44.92237" lon="6.50358">
        <ele>2140.2</ele>
        <time>2024-08-11T12:14:27Z</time>
      </trkpt>
      <trkpt lat="44.92237" lon="6.50358">
        <ele>2140</ele>
        <time>2024-08-11T12:14:28Z</time>
      </trkpt>
      <trkpt lat="44.92234" lon="6.50357">
        <ele>2140</ele>
        <time>2024-08-11T12:14:29Z</time>
      </trkpt>
      <trkpt lat="44.92234" lon="6.50357">
        <ele>2140</ele>
        <time>2024-08-11T12:14:30Z</time>
      </trkpt>
      <trkpt lat="44.92231" lon="6.50355">
        <ele>2139.4</ele>
        <time>2024-08-11T12:14:31Z</time>
      </trkpt>
      <trkpt lat="44.92231" lon="6.50355">
        <ele>2139</ele>
        <time>2024-08-11T12:14:32Z</time>
      </trkpt>
      <trkpt lat="44.92229" lon="6.50354">
        <ele>2139</ele>
        <time>2024-08-11T12:14:33Z</time>
      </trkpt>
      <trkpt lat="44.92229" lon="6.50354">
        <ele>2139</ele>
        <time>2024-08-11T12:14:34Z</time>
      </trkpt>
      <trkpt lat="44.92227" lon="6.50353">
        <ele>2138.8</ele>
        <time>2024-08-11T12:14:35Z</time>
      </trkpt>
      <trkpt lat="44.92227" lon="6.50353">
        <ele>2138</ele>
        <time>2024-08-11T12:14:36Z</time>
      </trkpt>
      <trkpt lat="44.92224" lon="6.50352">
        <ele>2138</ele>
        <time>2024-08-11T12:14:37Z</time>
      </trkpt>
      <trkpt lat="44.92224" lon="6.50352">
        <ele>2137.6</ele>
        <time>2024-08-11T12:14:38Z</time>
      </trkpt>
      <trkpt lat="44.92222" lon="6.50352">
        <ele>2137.6</ele>
        <time>2024-08-11T12:14:39Z</time>
      </trkpt>
      <trkpt lat="44.92222" lon="6.50352">
        <ele>2137.4</ele>
        <time>2024-08-11T12:14:40Z</time>
      </trkpt>
      <trkpt lat="44.9222" lon="6.50352">
        <ele>2137.4</ele>
        <time>2024-08-11T12:14:41Z</time>
      </trkpt>
      <trkpt lat="44.9222" lon="6.50352">
        <ele>2136.8</ele>
        <time>2024-08-11T12:14:42Z</time>
      </trkpt>
      <trkpt lat="44.92217" lon="6.50353">
        <ele>2136.4</ele>
        <time>2024-08-11T12:14:43Z</time>
      </trkpt>
      <trkpt lat="44.92217" lon="6.50353">
        <ele>2136.2</ele>
        <time>2024-08-11T12:14:44Z</time>
      </trkpt>
      <trkpt lat="44.92215" lon="6.50351">
        <ele>2136.2</ele>
        <time>2024-08-11T12:14:45Z</time>
      </trkpt>
      <trkpt lat="44.92215" lon="6.50351">
        <ele>2136</ele>
        <time>2024-08-11T12:14:46Z</time>
      </trkpt>
      <trkpt lat="44.92213" lon="6.50351">
        <ele>2135.6</ele>
        <time>2024-08-11T12:14:47Z</time>
      </trkpt>
      <trkpt lat="44.92213" lon="6.50351">
        <ele>2135.4</ele>
        <time>2024-08-11T12:14:48Z</time>
      </trkpt>
      <trkpt lat="44.9221" lon="6.50351">
        <ele>2135.2</ele>
        <time>2024-08-11T12:14:49Z</time>
      </trkpt>
      <trkpt lat="44.9221" lon="6.50351">
        <ele>2135</ele>
        <time>2024-08-11T12:14:50Z</time>
      </trkpt>
      <trkpt lat="44.92208" lon="6.50351">
        <ele>2134.2</ele>
        <time>2024-08-11T12:14:51Z</time>
      </trkpt>
      <trkpt lat="44.92208" lon="6.50351">
        <ele>2133.8</ele>
        <time>2024-08-11T12:14:52Z</time>
      </trkpt>
      <trkpt lat="44.92205" lon="6.5035">
        <ele>2133.8</ele>
        <time>2024-08-11T12:14:53Z</time>
      </trkpt>
      <trkpt lat="44.92205" lon="6.5035">
        <ele>2133.6</ele>
        <time>2024-08-11T12:14:54Z</time>
      </trkpt>
      <trkpt lat="44.92203" lon="6.50349">
        <ele>2133.4</ele>
        <time>2024-08-11T12:14:55Z</time>
      </trkpt>
      <trkpt lat="44.92203" lon="6.50349">
        <ele>2133.2</ele>
        <time>2024-08-11T12:14:56Z</time>
      </trkpt>
      <trkpt lat="44.92201" lon="6.50348">
        <ele>2133.2</ele>
        <time>2024-08-11T12:14:57Z</time>
      </trkpt>
      <trkpt lat="44.92201" lon="6.50348">
        <ele>2133</ele>
        <time>2024-08-11T12:14:58Z</time>
      </trkpt>
      <trkpt lat="44.92199" lon="6.50348">
        <ele>2133</ele>
        <time>2024-08-11T12:14:59Z</time>
      </trkpt>
      <trkpt lat="44.92199" lon="6.50348">
        <ele>2132.6</ele>
        <time>2024-08-11T12:15:00Z</time>
      </trkpt>
      <trkpt lat="44.92198" lon="6.50347">
        <ele>2132.2</ele>
        <time>2024-08-11T12:15:01Z</time>
      </trkpt>
      <trkpt lat="44.92198" lon="6.50347">
        <ele>2131.8</ele>
        <time>2024-08-11T12:15:02Z</time>
      </trkpt>
      <trkpt lat="44.92196" lon="6.50346">
        <ele>2131.8</ele>
        <time>2024-08-11T12:15:03Z</time>
      </trkpt>
      <trkpt lat="44.92196" lon="6.50346">
        <ele>2131.8</ele>
        <time>2024-08-11T12:15:04Z</time>
      </trkpt>
      <trkpt lat="44.92193" lon="6.50346">
        <ele>2131.8</ele>
        <time>2024-08-11T12:15:05Z</time>
      </trkpt>
      <trkpt lat="44.92193" lon="6.50346">
        <ele>2131.6</ele>
        <time>2024-08-11T12:15:06Z</time>
      </trkpt>
      <trkpt lat="44.92191" lon="6.50346">
        <ele>2131.2</ele>
        <time>2024-08-11T12:15:07Z</time>
      </trkpt>
      <trkpt lat="44.92191" lon="6.50346">
        <ele>2130.8</ele>
        <time>2024-08-11T12:15:08Z</time>
      </trkpt>
      <trkpt lat="44.9219" lon="6.50344">
        <ele>2130.6</ele>
        <time>2024-08-11T12:15:09Z</time>
      </trkpt>
      <trkpt lat="44.9219" lon="6.50344">
        <ele>2130</ele>
        <time>2024-08-11T12:15:10Z</time>
      </trkpt>
      <trkpt lat="44.9219" lon="6.50344">
        <ele>2129.8</ele>
        <time>2024-08-11T12:15:11Z</time>
      </trkpt>
      <trkpt lat="44.92188" lon="6.50341">
        <ele>2129.6</ele>
        <time>2024-08-11T12:15:12Z</time>
      </trkpt>
      <trkpt lat="44.92188" lon="6.50341">
        <ele>2129.2</ele>
        <time>2024-08-11T12:15:13Z</time>
      </trkpt>
      <trkpt lat="44.92185" lon="6.5034">
        <ele>2129</ele>
        <time>2024-08-11T12:15:14Z</time>
      </trkpt>
      <trkpt lat="44.92185" lon="6.5034">
        <ele>2128.6</ele>
        <time>2024-08-11T12:15:15Z</time>
      </trkpt>
      <trkpt lat="44.92183" lon="6.50337">
        <ele>2128.4</ele>
        <time>2024-08-11T12:15:16Z</time>
      </trkpt>
      <trkpt lat="44.92183" lon="6.50337">
        <ele>2127.8</ele>
        <time>2024-08-11T12:15:17Z</time>
      </trkpt>
      <trkpt lat="44.92182" lon="6.50335">
        <ele>2127.6</ele>
        <time>2024-08-11T12:15:18Z</time>
      </trkpt>
      <trkpt lat="44.92182" lon="6.50335">
        <ele>2127.4</ele>
        <time>2024-08-11T12:15:19Z</time>
      </trkpt>
      <trkpt lat="44.92181" lon="6.50332">
        <ele>2127.2</ele>
        <time>2024-08-11T12:15:20Z</time>
      </trkpt>
      <trkpt lat="44.92181" lon="6.50332">
        <ele>2127</ele>
        <time>2024-08-11T12:15:21Z</time>
      </trkpt>
      <trkpt lat="44.92179" lon="6.5033">
        <ele>2126.4</ele>
        <time>2024-08-11T12:15:22Z</time>
      </trkpt>
      <trkpt lat="44.92179" lon="6.5033">
        <ele>2125.8</ele>
        <time>2024-08-11T12:15:23Z</time>
      </trkpt>
      <trkpt lat="44.92177" lon="6.50329">
        <ele>2125.8</ele>
        <time>2024-08-11T12:15:24Z</time>
      </trkpt>
      <trkpt lat="44.92177" lon="6.50329">
        <ele>2125.8</ele>
        <time>2024-08-11T12:15:25Z</time>
      </trkpt>
      <trkpt lat="44.92175" lon="6.50328">
        <ele>2126.2</ele>
        <time>2024-08-11T12:15:26Z</time>
      </trkpt>
      <trkpt lat="44.92175" lon="6.50328">
        <ele>2126.2</ele>
        <time>2024-08-11T12:15:27Z</time>
      </trkpt>
      <trkpt lat="44.92172" lon="6.50327">
        <ele>2126</ele>
        <time>2024-08-11T12:15:28Z</time>
      </trkpt>
      <trkpt lat="44.92172" lon="6.50327">
        <ele>2126</ele>
        <time>2024-08-11T12:15:29Z</time>
      </trkpt>
      <trkpt lat="44.9217" lon="6.50324">
        <ele>2126</ele>
        <time>2024-08-11T12:15:30Z</time>
      </trkpt>
      <trkpt lat="44.9217" lon="6.50324">
        <ele>2125.8</ele>
        <time>2024-08-11T12:15:31Z</time>
      </trkpt>
      <trkpt lat="44.92168" lon="6.50323">
        <ele>2125.8</ele>
        <time>2024-08-11T12:15:32Z</time>
      </trkpt>
      <trkpt lat="44.92168" lon="6.50323">
        <ele>2125.6</ele>
        <time>2024-08-11T12:15:33Z</time>
      </trkpt>
      <trkpt lat="44.92166" lon="6.50321">
        <ele>2125.4</ele>
        <time>2024-08-11T12:15:34Z</time>
      </trkpt>
      <trkpt lat="44.92166" lon="6.50321">
        <ele>2125</ele>
        <time>2024-08-11T12:15:35Z</time>
      </trkpt>
      <trkpt lat="44.92164" lon="6.50319">
        <ele>2124.6</ele>
        <time>2024-08-11T12:15:36Z</time>
      </trkpt>
      <trkpt lat="44.92164" lon="6.50319">
        <ele>2124.4</ele>
        <time>2024-08-11T12:15:37Z</time>
      </trkpt>
      <trkpt lat="44.92162" lon="6.50316">
        <ele>2124.2</ele>
        <time>2024-08-11T12:15:38Z</time>
      </trkpt>
      <trkpt lat="44.92162" lon="6.50316">
        <ele>2124.2</ele>
        <time>2024-08-11T12:15:39Z</time>
      </trkpt>
      <trkpt lat="44.92159" lon="6.50314">
        <ele>2123.8</ele>
        <time>2024-08-11T12:15:40Z</time>
      </trkpt>
      <trkpt lat="44.92159" lon="6.50314">
        <ele>2123.8</ele>
        <time>2024-08-11T12:15:41Z</time>
      </trkpt>
      <trkpt lat="44.92157" lon="6.50313">
        <ele>2123.8</ele>
        <time>2024-08-11T12:15:42Z</time>
      </trkpt>
      <trkpt lat="44.92157" lon="6.50313">
        <ele>2123.8</ele>
        <time>2024-08-11T12:15:43Z</time>
      </trkpt>
      <trkpt lat="44.92155" lon="6.50311">
        <ele>2123.8</ele>
        <time>2024-08-11T12:15:44Z</time>
      </trkpt>
      <trkpt lat="44.92155" lon="6.50311">
        <ele>2123.4</ele>
        <time>2024-08-11T12:15:45Z</time>
      </trkpt>
      <trkpt lat="44.92155" lon="6.50311">
        <ele>2123.4</ele>
        <time>2024-08-11T12:15:46Z</time>
      </trkpt>
      <trkpt lat="44.92152" lon="6.50309">
        <ele>2123</ele>
        <time>2024-08-11T12:15:47Z</time>
      </trkpt>
      <trkpt lat="44.92152" lon="6.50309">
        <ele>2122.8</ele>
        <time>2024-08-11T12:15:48Z</time>
      </trkpt>
      <trkpt lat="44.9215" lon="6.50308">
        <ele>2122.4</ele>
        <time>2024-08-11T12:15:49Z</time>
      </trkpt>
      <trkpt lat="44.9215" lon="6.50308">
        <ele>2122</ele>
        <time>2024-08-11T12:15:50Z</time>
      </trkpt>
      <trkpt lat="44.92148" lon="6.50306">
        <ele>2121.8</ele>
        <time>2024-08-11T12:15:51Z</time>
      </trkpt>
      <trkpt lat="44.92148" lon="6.50306">
        <ele>2121.8</ele>
        <time>2024-08-11T12:15:52Z</time>
      </trkpt>
      <trkpt lat="44.92146" lon="6.50303">
        <ele>2121.6</ele>
        <time>2024-08-11T12:15:53Z</time>
      </trkpt>
      <trkpt lat="44.92146" lon="6.50303">
        <ele>2121</ele>
        <time>2024-08-11T12:15:54Z</time>
      </trkpt>
      <trkpt lat="44.92144" lon="6.503">
        <ele>2120.6</ele>
        <time>2024-08-11T12:15:55Z</time>
      </trkpt>
      <trkpt lat="44.92144" lon="6.503">
        <ele>2120.6</ele>
        <time>2024-08-11T12:15:56Z</time>
      </trkpt>
      <trkpt lat="44.92142" lon="6.50297">
        <ele>2120.4</ele>
        <time>2024-08-11T12:15:57Z</time>
      </trkpt>
      <trkpt lat="44.92142" lon="6.50297">
        <ele>2120</ele>
        <time>2024-08-11T12:15:58Z</time>
      </trkpt>
      <trkpt lat="44.9214" lon="6.50297">
        <ele>2120</ele>
        <time>2024-08-11T12:15:59Z</time>
      </trkpt>
      <trkpt lat="44.9214" lon="6.50297">
        <ele>2119.4</ele>
        <time>2024-08-11T12:16:00Z</time>
      </trkpt>
      <trkpt lat="44.92137" lon="6.50296">
        <ele>2119.4</ele>
        <time>2024-08-11T12:16:01Z</time>
      </trkpt>
      <trkpt lat="44.92137" lon="6.50296">
        <ele>2119.2</ele>
        <time>2024-08-11T12:16:02Z</time>
      </trkpt>
      <trkpt lat="44.92134" lon="6.50294">
        <ele>2119.2</ele>
        <time>2024-08-11T12:16:03Z</time>
      </trkpt>
      <trkpt lat="44.92134" lon="6.50294">
        <ele>2118.8</ele>
        <time>2024-08-11T12:16:04Z</time>
      </trkpt>
      <trkpt lat="44.92133" lon="6.50292">
        <ele>2118.8</ele>
        <time>2024-08-11T12:16:05Z</time>
      </trkpt>
      <trkpt lat="44.92133" lon="6.50292">
        <ele>2118.4</ele>
        <time>2024-08-11T12:16:06Z</time>
      </trkpt>
      <trkpt lat="44.92131" lon="6.50289">
        <ele>2118.4</ele>
        <time>2024-08-11T12:16:07Z</time>
      </trkpt>
      <trkpt lat="44.92131" lon="6.50289">
        <ele>2118.2</ele>
        <time>2024-08-11T12:16:08Z</time>
      </trkpt>
      <trkpt lat="44.92129" lon="6.50288">
        <ele>2117.8</ele>
        <time>2024-08-11T12:16:09Z</time>
      </trkpt>
      <trkpt lat="44.92129" lon="6.50288">
        <ele>2117.6</ele>
        <time>2024-08-11T12:16:10Z</time>
      </trkpt>
      <trkpt lat="44.92126" lon="6.50287">
        <ele>2117.4</ele>
        <time>2024-08-11T12:16:11Z</time>
      </trkpt>
      <trkpt lat="44.92126" lon="6.50287">
        <ele>2117</ele>
        <time>2024-08-11T12:16:12Z</time>
      </trkpt>
      <trkpt lat="44.92125" lon="6.50284">
        <ele>2116.8</ele>
        <time>2024-08-11T12:16:13Z</time>
      </trkpt>
      <trkpt lat="44.92125" lon="6.50284">
        <ele>2116.8</ele>
        <time>2024-08-11T12:16:14Z</time>
      </trkpt>
      <trkpt lat="44.92123" lon="6.50282">
        <ele>2116.4</ele>
        <time>2024-08-11T12:16:15Z</time>
      </trkpt>
      <trkpt lat="44.92123" lon="6.50282">
        <ele>2116.2</ele>
        <time>2024-08-11T12:16:16Z</time>
      </trkpt>
      <trkpt lat="44.92121" lon="6.50281">
        <ele>2115.8</ele>
        <time>2024-08-11T12:16:17Z</time>
      </trkpt>
      <trkpt lat="44.92121" lon="6.50281">
        <ele>2115.6</ele>
        <time>2024-08-11T12:16:18Z</time>
      </trkpt>
      <trkpt lat="44.92118" lon="6.50279">
        <ele>2115.2</ele>
        <time>2024-08-11T12:16:19Z</time>
      </trkpt>
      <trkpt lat="44.92118" lon="6.50279">
        <ele>2115.2</ele>
        <time>2024-08-11T12:16:20Z</time>
      </trkpt>
      <trkpt lat="44.92116" lon="6.50278">
        <ele>2115</ele>
        <time>2024-08-11T12:16:21Z</time>
      </trkpt>
      <trkpt lat="44.92116" lon="6.50278">
        <ele>2114.8</ele>
        <time>2024-08-11T12:16:22Z</time>
      </trkpt>
      <trkpt lat="44.92114" lon="6.50277">
        <ele>2114.6</ele>
        <time>2024-08-11T12:16:23Z</time>
      </trkpt>
      <trkpt lat="44.92114" lon="6.50277">
        <ele>2114.6</ele>
        <time>2024-08-11T12:16:24Z</time>
      </trkpt>
      <trkpt lat="44.92112" lon="6.50276">
        <ele>2114.6</ele>
        <time>2024-08-11T12:16:25Z</time>
      </trkpt>
      <trkpt lat="44.92112" lon="6.50276">
        <ele>2114.4</ele>
        <time>2024-08-11T12:16:26Z</time>
      </trkpt>
      <trkpt lat="44.9211" lon="6.50275">
        <ele>2114</ele>
        <time>2024-08-11T12:16:27Z</time>
      </trkpt>
      <trkpt lat="44.9211" lon="6.50275">
        <ele>2114</ele>
        <time>2024-08-11T12:16:28Z</time>
      </trkpt>
      <trkpt lat="44.92108" lon="6.50274">
        <ele>2113.8</ele>
        <time>2024-08-11T12:16:29Z</time>
      </trkpt>
      <trkpt lat="44.92108" lon="6.50274">
        <ele>2113.4</ele>
        <time>2024-08-11T12:16:30Z</time>
      </trkpt>
      <trkpt lat="44.92106" lon="6.50273">
        <ele>2113.4</ele>
        <time>2024-08-11T12:16:31Z</time>
      </trkpt>
      <trkpt lat="44.92106" lon="6.50273">
        <ele>2113.2</ele>
        <time>2024-08-11T12:16:32Z</time>
      </trkpt>
      <trkpt lat="44.92106" lon="6.50273">
        <ele>2113</ele>
        <time>2024-08-11T12:16:33Z</time>
      </trkpt>
      <trkpt lat="44.92104" lon="6.5027">
        <ele>2112.6</ele>
        <time>2024-08-11T12:16:34Z</time>
      </trkpt>
      <trkpt lat="44.92104" lon="6.5027">
        <ele>2112.4</ele>
        <time>2024-08-11T12:16:35Z</time>
      </trkpt>
      <trkpt lat="44.92102" lon="6.50268">
        <ele>2112.2</ele>
        <time>2024-08-11T12:16:36Z</time>
      </trkpt>
      <trkpt lat="44.92102" lon="6.50268">
        <ele>2112</ele>
        <time>2024-08-11T12:16:37Z</time>
      </trkpt>
      <trkpt lat="44.921" lon="6.50266">
        <ele>2111.6</ele>
        <time>2024-08-11T12:16:38Z</time>
      </trkpt>
      <trkpt lat="44.921" lon="6.50266">
        <ele>2111.4</ele>
        <time>2024-08-11T12:16:39Z</time>
      </trkpt>
      <trkpt lat="44.92098" lon="6.50265">
        <ele>2111</ele>
        <time>2024-08-11T12:16:40Z</time>
      </trkpt>
      <trkpt lat="44.92098" lon="6.50265">
        <ele>2111</ele>
        <time>2024-08-11T12:16:41Z</time>
      </trkpt>
      <trkpt lat="44.92096" lon="6.50264">
        <ele>2110.8</ele>
        <time>2024-08-11T12:16:42Z</time>
      </trkpt>
      <trkpt lat="44.92096" lon="6.50264">
        <ele>2110.6</ele>
        <time>2024-08-11T12:16:43Z</time>
      </trkpt>
      <trkpt lat="44.92096" lon="6.50264">
        <ele>2110.4</ele>
        <time>2024-08-11T12:16:44Z</time>
      </trkpt>
      <trkpt lat="44.92094" lon="6.50262">
        <ele>2110.4</ele>
        <time>2024-08-11T12:16:45Z</time>
      </trkpt>
      <trkpt lat="44.92094" lon="6.50262">
        <ele>2110.4</ele>
        <time>2024-08-11T12:16:46Z</time>
      </trkpt>
      <trkpt lat="44.92094" lon="6.50262">
        <ele>2110.2</ele>
        <time>2024-08-11T12:16:47Z</time>
      </trkpt>
      <trkpt lat="44.92092" lon="6.50263">
        <ele>2109.8</ele>
        <time>2024-08-11T12:16:48Z</time>
      </trkpt>
      <trkpt lat="44.92092" lon="6.50263">
        <ele>2109.4</ele>
        <time>2024-08-11T12:16:49Z</time>
      </trkpt>
      <trkpt lat="44.92089" lon="6.50262">
        <ele>2109.4</ele>
        <time>2024-08-11T12:16:50Z</time>
      </trkpt>
      <trkpt lat="44.92089" lon="6.50262">
        <ele>2109.2</ele>
        <time>2024-08-11T12:16:51Z</time>
      </trkpt>
      <trkpt lat="44.92087" lon="6.50261">
        <ele>2109</ele>
        <time>2024-08-11T12:16:52Z</time>
      </trkpt>
      <trkpt lat="44.92087" lon="6.50261">
        <ele>2109</ele>
        <time>2024-08-11T12:16:53Z</time>
      </trkpt>
      <trkpt lat="44.92086" lon="6.50258">
        <ele>2109</ele>
        <time>2024-08-11T12:16:54Z</time>
      </trkpt>
      <trkpt lat="44.92086" lon="6.50258">
        <ele>2108.6</ele>
        <time>2024-08-11T12:16:55Z</time>
      </trkpt>
      <trkpt lat="44.92084" lon="6.50256">
        <ele>2108.4</ele>
        <time>2024-08-11T12:16:56Z</time>
      </trkpt>
      <trkpt lat="44.92084" lon="6.50256">
        <ele>2108.2</ele>
        <time>2024-08-11T12:16:57Z</time>
      </trkpt>
      <trkpt lat="44.92082" lon="6.50253">
        <ele>2108.2</ele>
        <time>2024-08-11T12:16:58Z</time>
      </trkpt>
      <trkpt lat="44.92082" lon="6.50253">
        <ele>2107.8</ele>
        <time>2024-08-11T12:16:59Z</time>
      </trkpt>
      <trkpt lat="44.92081" lon="6.5025">
        <ele>2107.6</ele>
        <time>2024-08-11T12:17:00Z</time>
      </trkpt>
      <trkpt lat="44.92081" lon="6.5025">
        <ele>2107.4</ele>
        <time>2024-08-11T12:17:01Z</time>
      </trkpt>
      <trkpt lat="44.92079" lon="6.50248">
        <ele>2106.8</ele>
        <time>2024-08-11T12:17:02Z</time>
      </trkpt>
      <trkpt lat="44.92079" lon="6.50248">
        <ele>2106.8</ele>
        <time>2024-08-11T12:17:03Z</time>
      </trkpt>
      <trkpt lat="44.92077" lon="6.50247">
        <ele>2106.6</ele>
        <time>2024-08-11T12:17:04Z</time>
      </trkpt>
      <trkpt lat="44.92077" lon="6.50247">
        <ele>2106.4</ele>
        <time>2024-08-11T12:17:05Z</time>
      </trkpt>
      <trkpt lat="44.92075" lon="6.50245">
        <ele>2106.4</ele>
        <time>2024-08-11T12:17:06Z</time>
      </trkpt>
      <trkpt lat="44.92075" lon="6.50245">
        <ele>2106.4</ele>
        <time>2024-08-11T12:17:07Z</time>
      </trkpt>
      <trkpt lat="44.92075" lon="6.50245">
        <ele>2106</ele>
        <time>2024-08-11T12:17:08Z</time>
      </trkpt>
      <trkpt lat="44.92072" lon="6.50242">
        <ele>2105.8</ele>
        <time>2024-08-11T12:17:09Z</time>
      </trkpt>
      <trkpt lat="44.92072" lon="6.50242">
        <ele>2105.8</ele>
        <time>2024-08-11T12:17:10Z</time>
      </trkpt>
      <trkpt lat="44.9207" lon="6.5024">
        <ele>2105.8</ele>
        <time>2024-08-11T12:17:11Z</time>
      </trkpt>
      <trkpt lat="44.9207" lon="6.5024">
        <ele>2105.6</ele>
        <time>2024-08-11T12:17:12Z</time>
      </trkpt>
      <trkpt lat="44.92069" lon="6.50237">
        <ele>2105.4</ele>
        <time>2024-08-11T12:17:13Z</time>
      </trkpt>
      <trkpt lat="44.92069" lon="6.50237">
        <ele>2105.4</ele>
        <time>2024-08-11T12:17:14Z</time>
      </trkpt>
      <trkpt lat="44.92069" lon="6.50237">
        <ele>2105.2</ele>
        <time>2024-08-11T12:17:15Z</time>
      </trkpt>
      <trkpt lat="44.92067" lon="6.50235">
        <ele>2104.8</ele>
        <time>2024-08-11T12:17:16Z</time>
      </trkpt>
      <trkpt lat="44.92067" lon="6.50235">
        <ele>2104.6</ele>
        <time>2024-08-11T12:17:17Z</time>
      </trkpt>
      <trkpt lat="44.92065" lon="6.50236">
        <ele>2104.4</ele>
        <time>2024-08-11T12:17:18Z</time>
      </trkpt>
      <trkpt lat="44.92065" lon="6.50236">
        <ele>2104.2</ele>
        <time>2024-08-11T12:17:19Z</time>
      </trkpt>
      <trkpt lat="44.92062" lon="6.50236">
        <ele>2104</ele>
        <time>2024-08-11T12:17:20Z</time>
      </trkpt>
      <trkpt lat="44.92062" lon="6.50236">
        <ele>2103.8</ele>
        <time>2024-08-11T12:17:21Z</time>
      </trkpt>
      <trkpt lat="44.92061" lon="6.50237">
        <ele>2103.4</ele>
        <time>2024-08-11T12:17:22Z</time>
      </trkpt>
      <trkpt lat="44.92061" lon="6.50237">
        <ele>2103.4</ele>
        <time>2024-08-11T12:17:23Z</time>
      </trkpt>
      <trkpt lat="44.92059" lon="6.50238">
        <ele>2103.2</ele>
        <time>2024-08-11T12:17:24Z</time>
      </trkpt>
      <trkpt lat="44.92059" lon="6.50238">
        <ele>2103</ele>
        <time>2024-08-11T12:17:25Z</time>
      </trkpt>
      <trkpt lat="44.92057" lon="6.50239">
        <ele>2103</ele>
        <time>2024-08-11T12:17:26Z</time>
      </trkpt>
      <trkpt lat="44.92057" lon="6.50239">
        <ele>2103</ele>
        <time>2024-08-11T12:17:27Z</time>
      </trkpt>
      <trkpt lat="44.92054" lon="6.50239">
        <ele>2102.8</ele>
        <time>2024-08-11T12:17:28Z</time>
      </trkpt>
      <trkpt lat="44.92054" lon="6.50239">
        <ele>2102.6</ele>
        <time>2024-08-11T12:17:29Z</time>
      </trkpt>
      <trkpt lat="44.92052" lon="6.50237">
        <ele>2102.2</ele>
        <time>2024-08-11T12:17:30Z</time>
      </trkpt>
      <trkpt lat="44.92052" lon="6.50237">
        <ele>2101.8</ele>
        <time>2024-08-11T12:17:31Z</time>
      </trkpt>
      <trkpt lat="44.92049" lon="6.50235">
        <ele>2101.8</ele>
        <time>2024-08-11T12:17:32Z</time>
      </trkpt>
      <trkpt lat="44.92049" lon="6.50235">
        <ele>2101.6</ele>
        <time>2024-08-11T12:17:33Z</time>
      </trkpt>
      <trkpt lat="44.92047" lon="6.50233">
        <ele>2101.6</ele>
        <time>2024-08-11T12:17:34Z</time>
      </trkpt>
      <trkpt lat="44.92047" lon="6.50233">
        <ele>2101.4</ele>
        <time>2024-08-11T12:17:35Z</time>
      </trkpt>
      <trkpt lat="44.92045" lon="6.50231">
        <ele>2101.2</ele>
        <time>2024-08-11T12:17:36Z</time>
      </trkpt>
      <trkpt lat="44.92045" lon="6.50231">
        <ele>2101</ele>
        <time>2024-08-11T12:17:37Z</time>
      </trkpt>
      <trkpt lat="44.92043" lon="6.50229">
        <ele>2100.6</ele>
        <time>2024-08-11T12:17:38Z</time>
      </trkpt>
      <trkpt lat="44.92043" lon="6.50229">
        <ele>2100.6</ele>
        <time>2024-08-11T12:17:39Z</time>
      </trkpt>
      <trkpt lat="44.92041" lon="6.50227">
        <ele>2100.4</ele>
        <time>2024-08-11T12:17:40Z</time>
      </trkpt>
      <trkpt lat="44.92041" lon="6.50227">
        <ele>2100.2</ele>
        <time>2024-08-11T12:17:41Z</time>
      </trkpt>
      <trkpt lat="44.92039" lon="6.50226">
        <ele>2100</ele>
        <time>2024-08-11T12:17:42Z</time>
      </trkpt>
      <trkpt lat="44.92039" lon="6.50226">
        <ele>2100</ele>
        <time>2024-08-11T12:17:43Z</time>
      </trkpt>
      <trkpt lat="44.92037" lon="6.50224">
        <ele>2099.6</ele>
        <time>2024-08-11T12:17:44Z</time>
      </trkpt>
      <trkpt lat="44.92037" lon="6.50224">
        <ele>2099.2</ele>
        <time>2024-08-11T12:17:45Z</time>
      </trkpt>
      <trkpt lat="44.92036" lon="6.50222">
        <ele>2099.2</ele>
        <time>2024-08-11T12:17:46Z</time>
      </trkpt>
      <trkpt lat="44.92036" lon="6.50222">
        <ele>2099</ele>
        <time>2024-08-11T12:17:47Z</time>
      </trkpt>
      <trkpt lat="44.92034" lon="6.50219">
        <ele>2098.8</ele>
        <time>2024-08-11T12:17:48Z</time>
      </trkpt>
      <trkpt lat="44.92034" lon="6.50219">
        <ele>2098.6</ele>
        <time>2024-08-11T12:17:49Z</time>
      </trkpt>
      <trkpt lat="44.92032" lon="6.50217">
        <ele>2098.6</ele>
        <time>2024-08-11T12:17:50Z</time>
      </trkpt>
      <trkpt lat="44.92032" lon="6.50217">
        <ele>2098.2</ele>
        <time>2024-08-11T12:17:51Z</time>
      </trkpt>
      <trkpt lat="44.9203" lon="6.50215">
        <ele>2098.2</ele>
        <time>2024-08-11T12:17:52Z</time>
      </trkpt>
      <trkpt lat="44.9203" lon="6.50215">
        <ele>2097.8</ele>
        <time>2024-08-11T12:17:53Z</time>
      </trkpt>
      <trkpt lat="44.92028" lon="6.50214">
        <ele>2097.6</ele>
        <time>2024-08-11T12:17:54Z</time>
      </trkpt>
      <trkpt lat="44.92028" lon="6.50214">
        <ele>2097.4</ele>
        <time>2024-08-11T12:17:55Z</time>
      </trkpt>
      <trkpt lat="44.92025" lon="6.50212">
        <ele>2097</ele>
        <time>2024-08-11T12:17:56Z</time>
      </trkpt>
      <trkpt lat="44.92025" lon="6.50212">
        <ele>2097</ele>
        <time>2024-08-11T12:17:57Z</time>
      </trkpt>
      <trkpt lat="44.92025" lon="6.50212">
        <ele>2096.8</ele>
        <time>2024-08-11T12:17:58Z</time>
      </trkpt>
      <trkpt lat="44.92022" lon="6.50211">
        <ele>2096.6</ele>
        <time>2024-08-11T12:17:59Z</time>
      </trkpt>
      <trkpt lat="44.92022" lon="6.50211">
        <ele>2096.2</ele>
        <time>2024-08-11T12:18:00Z</time>
      </trkpt>
      <trkpt lat="44.9202" lon="6.5021">
        <ele>2096</ele>
        <time>2024-08-11T12:18:01Z</time>
      </trkpt>
      <trkpt lat="44.9202" lon="6.5021">
        <ele>2095.6</ele>
        <time>2024-08-11T12:18:02Z</time>
      </trkpt>
      <trkpt lat="44.92017" lon="6.5021">
        <ele>2095.6</ele>
        <time>2024-08-11T12:18:03Z</time>
      </trkpt>
      <trkpt lat="44.92017" lon="6.5021">
        <ele>2095.4</ele>
        <time>2024-08-11T12:18:04Z</time>
      </trkpt>
      <trkpt lat="44.92014" lon="6.5021">
        <ele>2095.2</ele>
        <time>2024-08-11T12:18:05Z</time>
      </trkpt>
      <trkpt lat="44.92014" lon="6.5021">
        <ele>2095</ele>
        <time>2024-08-11T12:18:06Z</time>
      </trkpt>
      <trkpt lat="44.92012" lon="6.50211">
        <ele>2094.8</ele>
        <time>2024-08-11T12:18:07Z</time>
      </trkpt>
      <trkpt lat="44.92012" lon="6.50211">
        <ele>2094.6</ele>
        <time>2024-08-11T12:18:08Z</time>
      </trkpt>
      <trkpt lat="44.92009" lon="6.50212">
        <ele>2094.4</ele>
        <time>2024-08-11T12:18:09Z</time>
      </trkpt>
      <trkpt lat="44.92009" lon="6.50212">
        <ele>2094</ele>
        <time>2024-08-11T12:18:10Z</time>
      </trkpt>
      <trkpt lat="44.92007" lon="6.50211">
        <ele>2093.8</ele>
        <time>2024-08-11T12:18:11Z</time>
      </trkpt>
      <trkpt lat="44.92007" lon="6.50211">
        <ele>2093.4</ele>
        <time>2024-08-11T12:18:12Z</time>
      </trkpt>
      <trkpt lat="44.92005" lon="6.5021">
        <ele>2093.4</ele>
        <time>2024-08-11T12:18:13Z</time>
      </trkpt>
      <trkpt lat="44.92005" lon="6.5021">
        <ele>2093.4</ele>
        <time>2024-08-11T12:18:14Z</time>
      </trkpt>
      <trkpt lat="44.92003" lon="6.50209">
        <ele>2093.2</ele>
        <time>2024-08-11T12:18:15Z</time>
      </trkpt>
      <trkpt lat="44.92003" lon="6.50209">
        <ele>2093</ele>
        <time>2024-08-11T12:18:16Z</time>
      </trkpt>
      <trkpt lat="44.92" lon="6.50208">
        <ele>2092.8</ele>
        <time>2024-08-11T12:18:17Z</time>
      </trkpt>
      <trkpt lat="44.92" lon="6.50208">
        <ele>2092.4</ele>
        <time>2024-08-11T12:18:18Z</time>
      </trkpt>
      <trkpt lat="44.91998" lon="6.50208">
        <ele>2092.4</ele>
        <time>2024-08-11T12:18:19Z</time>
      </trkpt>
      <trkpt lat="44.91998" lon="6.50208">
        <ele>2092.4</ele>
        <time>2024-08-11T12:18:20Z</time>
      </trkpt>
      <trkpt lat="44.91996" lon="6.50206">
        <ele>2092.2</ele>
        <time>2024-08-11T12:18:21Z</time>
      </trkpt>
      <trkpt lat="44.91996" lon="6.50206">
        <ele>2091.8</ele>
        <time>2024-08-11T12:18:22Z</time>
      </trkpt>
      <trkpt lat="44.91993" lon="6.50206">
        <ele>2091.8</ele>
        <time>2024-08-11T12:18:23Z</time>
      </trkpt>
      <trkpt lat="44.91993" lon="6.50206">
        <ele>2091.2</ele>
        <time>2024-08-11T12:18:24Z</time>
      </trkpt>
      <trkpt lat="44.91991" lon="6.50206">
        <ele>2090.8</ele>
        <time>2024-08-11T12:18:25Z</time>
      </trkpt>
      <trkpt lat="44.91991" lon="6.50206">
        <ele>2090.6</ele>
        <time>2024-08-11T12:18:26Z</time>
      </trkpt>
      <trkpt lat="44.91989" lon="6.50206">
        <ele>2090.6</ele>
        <time>2024-08-11T12:18:27Z</time>
      </trkpt>
      <trkpt lat="44.91989" lon="6.50206">
        <ele>2090.4</ele>
        <time>2024-08-11T12:18:28Z</time>
      </trkpt>
      <trkpt lat="44.91987" lon="6.50206">
        <ele>2090.2</ele>
        <time>2024-08-11T12:18:29Z</time>
      </trkpt>
      <trkpt lat="44.91987" lon="6.50206">
        <ele>2090</ele>
        <time>2024-08-11T12:18:30Z</time>
      </trkpt>
      <trkpt lat="44.91984" lon="6.50205">
        <ele>2089.6</ele>
        <time>2024-08-11T12:18:31Z</time>
      </trkpt>
      <trkpt lat="44.91984" lon="6.50205">
        <ele>2089.6</ele>
        <time>2024-08-11T12:18:32Z</time>
      </trkpt>
      <trkpt lat="44.91981" lon="6.50206">
        <ele>2089.2</ele>
        <time>2024-08-11T12:18:33Z</time>
      </trkpt>
      <trkpt lat="44.91981" lon="6.50206">
        <ele>2089.2</ele>
        <time>2024-08-11T12:18:34Z</time>
      </trkpt>
      <trkpt lat="44.9198" lon="6.50207">
        <ele>2088.8</ele>
        <time>2024-08-11T12:18:35Z</time>
      </trkpt>
      <trkpt lat="44.9198" lon="6.50207">
        <ele>2088.6</ele>
        <time>2024-08-11T12:18:36Z</time>
      </trkpt>
      <trkpt lat="44.91978" lon="6.50208">
        <ele>2088.4</ele>
        <time>2024-08-11T12:18:37Z</time>
      </trkpt>
      <trkpt lat="44.91978" lon="6.50208">
        <ele>2088.4</ele>
        <time>2024-08-11T12:18:38Z</time>
      </trkpt>
      <trkpt lat="44.91975" lon="6.50208">
        <ele>2088.2</ele>
        <time>2024-08-11T12:18:39Z</time>
      </trkpt>
      <trkpt lat="44.91975" lon="6.50208">
        <ele>2088</ele>
        <time>2024-08-11T12:18:40Z</time>
      </trkpt>
      <trkpt lat="44.91973" lon="6.50207">
        <ele>2087.8</ele>
        <time>2024-08-11T12:18:41Z</time>
      </trkpt>
      <trkpt lat="44.91973" lon="6.50207">
        <ele>2087.6</ele>
        <time>2024-08-11T12:18:42Z</time>
      </trkpt>
      <trkpt lat="44.9197" lon="6.50207">
        <ele>2087.6</ele>
        <time>2024-08-11T12:18:43Z</time>
      </trkpt>
      <trkpt lat="44.9197" lon="6.50207">
        <ele>2087.2</ele>
        <time>2024-08-11T12:18:44Z</time>
      </trkpt>
      <trkpt lat="44.91967" lon="6.50207">
        <ele>2087.2</ele>
        <time>2024-08-11T12:18:45Z</time>
      </trkpt>
      <trkpt lat="44.91967" lon="6.50207">
        <ele>2087</ele>
        <time>2024-08-11T12:18:46Z</time>
      </trkpt>
      <trkpt lat="44.91965" lon="6.50206">
        <ele>2087</ele>
        <time>2024-08-11T12:18:47Z</time>
      </trkpt>
      <trkpt lat="44.91965" lon="6.50206">
        <ele>2086.6</ele>
        <time>2024-08-11T12:18:48Z</time>
      </trkpt>
      <trkpt lat="44.91963" lon="6.50206">
        <ele>2086.4</ele>
        <time>2024-08-11T12:18:49Z</time>
      </trkpt>
      <trkpt lat="44.91963" lon="6.50206">
        <ele>2086.2</ele>
        <time>2024-08-11T12:18:50Z</time>
      </trkpt>
      <trkpt lat="44.9196" lon="6.50205">
        <ele>2086.2</ele>
        <time>2024-08-11T12:18:51Z</time>
      </trkpt>
      <trkpt lat="44.9196" lon="6.50205">
        <ele>2085.8</ele>
        <time>2024-08-11T12:18:52Z</time>
      </trkpt>
      <trkpt lat="44.91958" lon="6.50205">
        <ele>2085.6</ele>
        <time>2024-08-11T12:18:53Z</time>
      </trkpt>
      <trkpt lat="44.91958" lon="6.50205">
        <ele>2085.2</ele>
        <time>2024-08-11T12:18:54Z</time>
      </trkpt>
      <trkpt lat="44.91958" lon="6.50205">
        <ele>2085.2</ele>
        <time>2024-08-11T12:18:55Z</time>
      </trkpt>
      <trkpt lat="44.91955" lon="6.50204">
        <ele>2085</ele>
        <time>2024-08-11T12:18:56Z</time>
      </trkpt>
      <trkpt lat="44.91955" lon="6.50204">
        <ele>2084.8</ele>
        <time>2024-08-11T12:18:57Z</time>
      </trkpt>
      <trkpt lat="44.91953" lon="6.50204">
        <ele>2084.8</ele>
        <time>2024-08-11T12:18:58Z</time>
      </trkpt>
      <trkpt lat="44.91953" lon="6.50204">
        <ele>2084.6</ele>
        <time>2024-08-11T12:18:59Z</time>
      </trkpt>
      <trkpt lat="44.9195" lon="6.50204">
        <ele>2084.4</ele>
        <time>2024-08-11T12:19:00Z</time>
      </trkpt>
      <trkpt lat="44.9195" lon="6.50204">
        <ele>2084</ele>
        <time>2024-08-11T12:19:01Z</time>
      </trkpt>
      <trkpt lat="44.91947" lon="6.50203">
        <ele>2083.8</ele>
        <time>2024-08-11T12:19:02Z</time>
      </trkpt>
      <trkpt lat="44.91947" lon="6.50203">
        <ele>2083.8</ele>
        <time>2024-08-11T12:19:03Z</time>
      </trkpt>
      <trkpt lat="44.91945" lon="6.50202">
        <ele>2083.6</ele>
        <time>2024-08-11T12:19:04Z</time>
      </trkpt>
      <trkpt lat="44.91945" lon="6.50202">
        <ele>2083.4</ele>
        <time>2024-08-11T12:19:05Z</time>
      </trkpt>
      <trkpt lat="44.91942" lon="6.50202">
        <ele>2083.2</ele>
        <time>2024-08-11T12:19:06Z</time>
      </trkpt>
      <trkpt lat="44.91942" lon="6.50202">
        <ele>2083</ele>
        <time>2024-08-11T12:19:07Z</time>
      </trkpt>
      <trkpt lat="44.9194" lon="6.50201">
        <ele>2082.8</ele>
        <time>2024-08-11T12:19:08Z</time>
      </trkpt>
      <trkpt lat="44.9194" lon="6.50201">
        <ele>2082.8</ele>
        <time>2024-08-11T12:19:09Z</time>
      </trkpt>
      <trkpt lat="44.91937" lon="6.50202">
        <ele>2082.4</ele>
        <time>2024-08-11T12:19:10Z</time>
      </trkpt>
      <trkpt lat="44.91937" lon="6.50202">
        <ele>2082.2</ele>
        <time>2024-08-11T12:19:11Z</time>
      </trkpt>
      <trkpt lat="44.91935" lon="6.50202">
        <ele>2082.2</ele>
        <time>2024-08-11T12:19:12Z</time>
      </trkpt>
      <trkpt lat="44.91935" lon="6.50202">
        <ele>2082</ele>
        <time>2024-08-11T12:19:13Z</time>
      </trkpt>
      <trkpt lat="44.91933" lon="6.50203">
        <ele>2081.8</ele>
        <time>2024-08-11T12:19:14Z</time>
      </trkpt>
      <trkpt lat="44.91933" lon="6.50203">
        <ele>2081.6</ele>
        <time>2024-08-11T12:19:15Z</time>
      </trkpt>
      <trkpt lat="44.9193" lon="6.50203">
        <ele>2081.4</ele>
        <time>2024-08-11T12:19:16Z</time>
      </trkpt>
      <trkpt lat="44.9193" lon="6.50203">
        <ele>2081.4</ele>
        <time>2024-08-11T12:19:17Z</time>
      </trkpt>
      <trkpt lat="44.91928" lon="6.50202">
        <ele>2081.2</ele>
        <time>2024-08-11T12:19:18Z</time>
      </trkpt>
      <trkpt lat="44.91928" lon="6.50202">
        <ele>2081</ele>
        <time>2024-08-11T12:19:19Z</time>
      </trkpt>
      <trkpt lat="44.91925" lon="6.50202">
        <ele>2080.8</ele>
        <time>2024-08-11T12:19:20Z</time>
      </trkpt>
      <trkpt lat="44.91925" lon="6.50202">
        <ele>2080.4</ele>
        <time>2024-08-11T12:19:21Z</time>
      </trkpt>
      <trkpt lat="44.91923" lon="6.50201">
        <ele>2080</ele>
        <time>2024-08-11T12:19:22Z</time>
      </trkpt>
      <trkpt lat="44.91923" lon="6.50201">
        <ele>2079.8</ele>
        <time>2024-08-11T12:19:23Z</time>
      </trkpt>
      <trkpt lat="44.91921" lon="6.50202">
        <ele>2079.6</ele>
        <time>2024-08-11T12:19:24Z</time>
      </trkpt>
      <trkpt lat="44.91921" lon="6.50202">
        <ele>2079.6</ele>
        <time>2024-08-11T12:19:25Z</time>
      </trkpt>
      <trkpt lat="44.91919" lon="6.50203">
        <ele>2079</ele>
        <time>2024-08-11T12:19:26Z</time>
      </trkpt>
      <trkpt lat="44.91919" lon="6.50203">
        <ele>2079</ele>
        <time>2024-08-11T12:19:27Z</time>
      </trkpt>
      <trkpt lat="44.91916" lon="6.50204">
        <ele>2078.8</ele>
        <time>2024-08-11T12:19:28Z</time>
      </trkpt>
      <trkpt lat="44.91914" lon="6.50204">
        <ele>2078.4</ele>
        <time>2024-08-11T12:19:29Z</time>
      </trkpt>
      <trkpt lat="44.91912" lon="6.50204">
        <ele>2078.2</ele>
        <time>2024-08-11T12:19:30Z</time>
      </trkpt>
      <trkpt lat="44.91912" lon="6.50204">
        <ele>2077.8</ele>
        <time>2024-08-11T12:19:31Z</time>
      </trkpt>
      <trkpt lat="44.91909" lon="6.50203">
        <ele>2077.6</ele>
        <time>2024-08-11T12:19:32Z</time>
      </trkpt>
      <trkpt lat="44.91909" lon="6.50203">
        <ele>2077.4</ele>
        <time>2024-08-11T12:19:33Z</time>
      </trkpt>
      <trkpt lat="44.91907" lon="6.50204">
        <ele>2077.2</ele>
        <time>2024-08-11T12:19:34Z</time>
      </trkpt>
      <trkpt lat="44.91907" lon="6.50204">
        <ele>2077.2</ele>
        <time>2024-08-11T12:19:35Z</time>
      </trkpt>
      <trkpt lat="44.91905" lon="6.50205">
        <ele>2076.8</ele>
        <time>2024-08-11T12:19:36Z</time>
      </trkpt>
      <trkpt lat="44.91905" lon="6.50205">
        <ele>2076.2</ele>
        <time>2024-08-11T12:19:37Z</time>
      </trkpt>
      <trkpt lat="44.91902" lon="6.50207">
        <ele>2076</ele>
        <time>2024-08-11T12:19:38Z</time>
      </trkpt>
      <trkpt lat="44.91902" lon="6.50207">
        <ele>2076</ele>
        <time>2024-08-11T12:19:39Z</time>
      </trkpt>
      <trkpt lat="44.919" lon="6.50208">
        <ele>2075.6</ele>
        <time>2024-08-11T12:19:40Z</time>
      </trkpt>
      <trkpt lat="44.919" lon="6.50208">
        <ele>2075.4</ele>
        <time>2024-08-11T12:19:41Z</time>
      </trkpt>
      <trkpt lat="44.91898" lon="6.50209">
        <ele>2075.2</ele>
        <time>2024-08-11T12:19:42Z</time>
      </trkpt>
      <trkpt lat="44.91898" lon="6.50209">
        <ele>2075.2</ele>
        <time>2024-08-11T12:19:43Z</time>
      </trkpt>
      <trkpt lat="44.91896" lon="6.50209">
        <ele>2075</ele>
        <time>2024-08-11T12:19:44Z</time>
      </trkpt>
      <trkpt lat="44.91896" lon="6.50209">
        <ele>2075</ele>
        <time>2024-08-11T12:19:45Z</time>
      </trkpt>
      <trkpt lat="44.91893" lon="6.5021">
        <ele>2074.8</ele>
        <time>2024-08-11T12:19:46Z</time>
      </trkpt>
      <trkpt lat="44.91893" lon="6.5021">
        <ele>2074.4</ele>
        <time>2024-08-11T12:19:47Z</time>
      </trkpt>
      <trkpt lat="44.91891" lon="6.50211">
        <ele>2074.2</ele>
        <time>2024-08-11T12:19:48Z</time>
      </trkpt>
      <trkpt lat="44.91891" lon="6.50211">
        <ele>2074.2</ele>
        <time>2024-08-11T12:19:49Z</time>
      </trkpt>
      <trkpt lat="44.91888" lon="6.50213">
        <ele>2074</ele>
        <time>2024-08-11T12:19:50Z</time>
      </trkpt>
      <trkpt lat="44.91888" lon="6.50213">
        <ele>2073.6</ele>
        <time>2024-08-11T12:19:51Z</time>
      </trkpt>
      <trkpt lat="44.91885" lon="6.50213">
        <ele>2073.2</ele>
        <time>2024-08-11T12:19:52Z</time>
      </trkpt>
      <trkpt lat="44.91885" lon="6.50213">
        <ele>2073</ele>
        <time>2024-08-11T12:19:53Z</time>
      </trkpt>
      <trkpt lat="44.91883" lon="6.50214">
        <ele>2073</ele>
        <time>2024-08-11T12:19:54Z</time>
      </trkpt>
      <trkpt lat="44.91883" lon="6.50214">
        <ele>2072.8</ele>
        <time>2024-08-11T12:19:55Z</time>
      </trkpt>
      <trkpt lat="44.9188" lon="6.50215">
        <ele>2072.6</ele>
        <time>2024-08-11T12:19:56Z</time>
      </trkpt>
      <trkpt lat="44.9188" lon="6.50215">
        <ele>2072.6</ele>
        <time>2024-08-11T12:19:57Z</time>
      </trkpt>
      <trkpt lat="44.91877" lon="6.50216">
        <ele>2072.4</ele>
        <time>2024-08-11T12:19:58Z</time>
      </trkpt>
      <trkpt lat="44.91877" lon="6.50216">
        <ele>2072</ele>
        <time>2024-08-11T12:19:59Z</time>
      </trkpt>
      <trkpt lat="44.91875" lon="6.50217">
        <ele>2071.6</ele>
        <time>2024-08-11T12:20:00Z</time>
      </trkpt>
      <trkpt lat="44.91875" lon="6.50217">
        <ele>2071.6</ele>
        <time>2024-08-11T12:20:01Z</time>
      </trkpt>
      <trkpt lat="44.91872" lon="6.50217">
        <ele>2071.2</ele>
        <time>2024-08-11T12:20:02Z</time>
      </trkpt>
      <trkpt lat="44.91872" lon="6.50217">
        <ele>2071.2</ele>
        <time>2024-08-11T12:20:03Z</time>
      </trkpt>
      <trkpt lat="44.91869" lon="6.50218">
        <ele>2070.8</ele>
        <time>2024-08-11T12:20:04Z</time>
      </trkpt>
      <trkpt lat="44.91869" lon="6.50218">
        <ele>2070.8</ele>
        <time>2024-08-11T12:20:05Z</time>
      </trkpt>
      <trkpt lat="44.91867" lon="6.50218">
        <ele>2070.6</ele>
        <time>2024-08-11T12:20:06Z</time>
      </trkpt>
      <trkpt lat="44.91867" lon="6.50218">
        <ele>2070.4</ele>
        <time>2024-08-11T12:20:07Z</time>
      </trkpt>
      <trkpt lat="44.91864" lon="6.5022">
        <ele>2070</ele>
        <time>2024-08-11T12:20:08Z</time>
      </trkpt>
      <trkpt lat="44.91864" lon="6.5022">
        <ele>2069.8</ele>
        <time>2024-08-11T12:20:09Z</time>
      </trkpt>
      <trkpt lat="44.91862" lon="6.50221">
        <ele>2069.8</ele>
        <time>2024-08-11T12:20:10Z</time>
      </trkpt>
      <trkpt lat="44.91862" lon="6.50221">
        <ele>2069.6</ele>
        <time>2024-08-11T12:20:11Z</time>
      </trkpt>
      <trkpt lat="44.91859" lon="6.50222">
        <ele>2069.4</ele>
        <time>2024-08-11T12:20:12Z</time>
      </trkpt>
      <trkpt lat="44.91859" lon="6.50222">
        <ele>2069.2</ele>
        <time>2024-08-11T12:20:13Z</time>
      </trkpt>
      <trkpt lat="44.91856" lon="6.50222">
        <ele>2069.2</ele>
        <time>2024-08-11T12:20:14Z</time>
      </trkpt>
      <trkpt lat="44.91856" lon="6.50222">
        <ele>2069</ele>
        <time>2024-08-11T12:20:15Z</time>
      </trkpt>
      <trkpt lat="44.91854" lon="6.50223">
        <ele>2068.8</ele>
        <time>2024-08-11T12:20:16Z</time>
      </trkpt>
      <trkpt lat="44.91854" lon="6.50223">
        <ele>2068.6</ele>
        <time>2024-08-11T12:20:17Z</time>
      </trkpt>
      <trkpt lat="44.91851" lon="6.50224">
        <ele>2068.4</ele>
        <time>2024-08-11T12:20:18Z</time>
      </trkpt>
      <trkpt lat="44.91851" lon="6.50224">
        <ele>2068.4</ele>
        <time>2024-08-11T12:20:19Z</time>
      </trkpt>
      <trkpt lat="44.91848" lon="6.50225">
        <ele>2068</ele>
        <time>2024-08-11T12:20:20Z</time>
      </trkpt>
      <trkpt lat="44.91848" lon="6.50225">
        <ele>2067.8</ele>
        <time>2024-08-11T12:20:21Z</time>
      </trkpt>
      <trkpt lat="44.91846" lon="6.50226">
        <ele>2067.6</ele>
        <time>2024-08-11T12:20:22Z</time>
      </trkpt>
      <trkpt lat="44.91846" lon="6.50226">
        <ele>2067.4</ele>
        <time>2024-08-11T12:20:23Z</time>
      </trkpt>
      <trkpt lat="44.91844" lon="6.50227">
        <ele>2067.4</ele>
        <time>2024-08-11T12:20:24Z</time>
      </trkpt>
      <trkpt lat="44.91844" lon="6.50227">
        <ele>2067.2</ele>
        <time>2024-08-11T12:20:25Z</time>
      </trkpt>
      <trkpt lat="44.91841" lon="6.50227">
        <ele>2066.8</ele>
        <time>2024-08-11T12:20:26Z</time>
      </trkpt>
      <trkpt lat="44.91841" lon="6.50227">
        <ele>2066.6</ele>
        <time>2024-08-11T12:20:27Z</time>
      </trkpt>
      <trkpt lat="44.91839" lon="6.50228">
        <ele>2066.6</ele>
        <time>2024-08-11T12:20:28Z</time>
      </trkpt>
      <trkpt lat="44.91839" lon="6.50228">
        <ele>2066.4</ele>
        <time>2024-08-11T12:20:29Z</time>
      </trkpt>
      <trkpt lat="44.91837" lon="6.50229">
        <ele>2066.2</ele>
        <time>2024-08-11T12:20:30Z</time>
      </trkpt>
      <trkpt lat="44.91837" lon="6.50229">
        <ele>2066.2</ele>
        <time>2024-08-11T12:20:31Z</time>
      </trkpt>
      <trkpt lat="44.91835" lon="6.5023">
        <ele>2066</ele>
        <time>2024-08-11T12:20:32Z</time>
      </trkpt>
      <trkpt lat="44.91835" lon="6.5023">
        <ele>2065.8</ele>
        <time>2024-08-11T12:20:33Z</time>
      </trkpt>
      <trkpt lat="44.91833" lon="6.50231">
        <ele>2065.4</ele>
        <time>2024-08-11T12:20:34Z</time>
      </trkpt>
      <trkpt lat="44.91833" lon="6.50231">
        <ele>2065.2</ele>
        <time>2024-08-11T12:20:35Z</time>
      </trkpt>
      <trkpt lat="44.91831" lon="6.50234">
        <ele>2065</ele>
        <time>2024-08-11T12:20:36Z</time>
      </trkpt>
      <trkpt lat="44.91831" lon="6.50234">
        <ele>2064.8</ele>
        <time>2024-08-11T12:20:37Z</time>
      </trkpt>
      <trkpt lat="44.9183" lon="6.50237">
        <ele>2064.8</ele>
        <time>2024-08-11T12:20:38Z</time>
      </trkpt>
      <trkpt lat="44.9183" lon="6.50237">
        <ele>2064.6</ele>
        <time>2024-08-11T12:20:39Z</time>
      </trkpt>
      <trkpt lat="44.91827" lon="6.50238">
        <ele>2064.4</ele>
        <time>2024-08-11T12:20:40Z</time>
      </trkpt>
      <trkpt lat="44.91827" lon="6.50238">
        <ele>2064.2</ele>
        <time>2024-08-11T12:20:41Z</time>
      </trkpt>
      <trkpt lat="44.91825" lon="6.50238">
        <ele>2064</ele>
        <time>2024-08-11T12:20:42Z</time>
      </trkpt>
      <trkpt lat="44.91825" lon="6.50238">
        <ele>2064</ele>
        <time>2024-08-11T12:20:43Z</time>
      </trkpt>
      <trkpt lat="44.91822" lon="6.50239">
        <ele>2064</ele>
        <time>2024-08-11T12:20:44Z</time>
      </trkpt>
      <trkpt lat="44.91822" lon="6.50239">
        <ele>2063.8</ele>
        <time>2024-08-11T12:20:45Z</time>
      </trkpt>
      <trkpt lat="44.9182" lon="6.5024">
        <ele>2063.6</ele>
        <time>2024-08-11T12:20:46Z</time>
      </trkpt>
      <trkpt lat="44.9182" lon="6.5024">
        <ele>2063.4</ele>
        <time>2024-08-11T12:20:47Z</time>
      </trkpt>
      <trkpt lat="44.91819" lon="6.50242">
        <ele>2063.2</ele>
        <time>2024-08-11T12:20:48Z</time>
      </trkpt>
      <trkpt lat="44.91819" lon="6.50242">
        <ele>2063</ele>
        <time>2024-08-11T12:20:49Z</time>
      </trkpt>
      <trkpt lat="44.91816" lon="6.50244">
        <ele>2062.6</ele>
        <time>2024-08-11T12:20:50Z</time>
      </trkpt>
      <trkpt lat="44.91816" lon="6.50244">
        <ele>2062.2</ele>
        <time>2024-08-11T12:20:51Z</time>
      </trkpt>
      <trkpt lat="44.91814" lon="6.50245">
        <ele>2062</ele>
        <time>2024-08-11T12:20:52Z</time>
      </trkpt>
      <trkpt lat="44.91814" lon="6.50245">
        <ele>2061.4</ele>
        <time>2024-08-11T12:20:53Z</time>
      </trkpt>
      <trkpt lat="44.91812" lon="6.50245">
        <ele>2061.4</ele>
        <time>2024-08-11T12:20:54Z</time>
      </trkpt>
      <trkpt lat="44.91812" lon="6.50245">
        <ele>2061.6</ele>
        <time>2024-08-11T12:20:55Z</time>
      </trkpt>
      <trkpt lat="44.91812" lon="6.50245">
        <ele>2061.8</ele>
        <time>2024-08-11T12:20:56Z</time>
      </trkpt>
      <trkpt lat="44.91809" lon="6.50245">
        <ele>2061.8</ele>
        <time>2024-08-11T12:20:57Z</time>
      </trkpt>
      <trkpt lat="44.91809" lon="6.50245">
        <ele>2061.6</ele>
        <time>2024-08-11T12:20:58Z</time>
      </trkpt>
      <trkpt lat="44.91807" lon="6.50245">
        <ele>2061.6</ele>
        <time>2024-08-11T12:20:59Z</time>
      </trkpt>
      <trkpt lat="44.91807" lon="6.50245">
        <ele>2061.4</ele>
        <time>2024-08-11T12:21:00Z</time>
      </trkpt>
      <trkpt lat="44.91805" lon="6.50245">
        <ele>2061</ele>
        <time>2024-08-11T12:21:01Z</time>
      </trkpt>
      <trkpt lat="44.91805" lon="6.50245">
        <ele>2061</ele>
        <time>2024-08-11T12:21:02Z</time>
      </trkpt>
      <trkpt lat="44.91802" lon="6.50245">
        <ele>2061</ele>
        <time>2024-08-11T12:21:03Z</time>
      </trkpt>
      <trkpt lat="44.91802" lon="6.50245">
        <ele>2060.4</ele>
        <time>2024-08-11T12:21:04Z</time>
      </trkpt>
      <trkpt lat="44.918" lon="6.50244">
        <ele>2060.4</ele>
        <time>2024-08-11T12:21:05Z</time>
      </trkpt>
      <trkpt lat="44.918" lon="6.50244">
        <ele>2060.4</ele>
        <time>2024-08-11T12:21:06Z</time>
      </trkpt>
      <trkpt lat="44.91797" lon="6.50245">
        <ele>2060</ele>
        <time>2024-08-11T12:21:07Z</time>
      </trkpt>
      <trkpt lat="44.91797" lon="6.50245">
        <ele>2059.8</ele>
        <time>2024-08-11T12:21:08Z</time>
      </trkpt>
      <trkpt lat="44.91795" lon="6.50247">
        <ele>2059.6</ele>
        <time>2024-08-11T12:21:09Z</time>
      </trkpt>
      <trkpt lat="44.91795" lon="6.50247">
        <ele>2059.2</ele>
        <time>2024-08-11T12:21:10Z</time>
      </trkpt>
      <trkpt lat="44.91792" lon="6.50249">
        <ele>2059.2</ele>
        <time>2024-08-11T12:21:11Z</time>
      </trkpt>
      <trkpt lat="44.91792" lon="6.50249">
        <ele>2059</ele>
        <time>2024-08-11T12:21:12Z</time>
      </trkpt>
      <trkpt lat="44.9179" lon="6.50251">
        <ele>2059</ele>
        <time>2024-08-11T12:21:13Z</time>
      </trkpt>
      <trkpt lat="44.9179" lon="6.50251">
        <ele>2058.8</ele>
        <time>2024-08-11T12:21:14Z</time>
      </trkpt>
      <trkpt lat="44.91788" lon="6.50251">
        <ele>2058.4</ele>
        <time>2024-08-11T12:21:15Z</time>
      </trkpt>
      <trkpt lat="44.91786" lon="6.50251">
        <ele>2058</ele>
        <time>2024-08-11T12:21:16Z</time>
      </trkpt>
      <trkpt lat="44.91786" lon="6.50251">
        <ele>2057.8</ele>
        <time>2024-08-11T12:21:17Z</time>
      </trkpt>
      <trkpt lat="44.91784" lon="6.50251">
        <ele>2057.6</ele>
        <time>2024-08-11T12:21:18Z</time>
      </trkpt>
      <trkpt lat="44.91784" lon="6.50251">
        <ele>2057.4</ele>
        <time>2024-08-11T12:21:19Z</time>
      </trkpt>
      <trkpt lat="44.91781" lon="6.50252">
        <ele>2057.2</ele>
        <time>2024-08-11T12:21:20Z</time>
      </trkpt>
      <trkpt lat="44.91779" lon="6.50252">
        <ele>2057</ele>
        <time>2024-08-11T12:21:21Z</time>
      </trkpt>
      <trkpt lat="44.91779" lon="6.50252">
        <ele>2056.8</ele>
        <time>2024-08-11T12:21:22Z</time>
      </trkpt>
      <trkpt lat="44.91777" lon="6.50253">
        <ele>2056.8</ele>
        <time>2024-08-11T12:21:23Z</time>
      </trkpt>
      <trkpt lat="44.91777" lon="6.50253">
        <ele>2056.8</ele>
        <time>2024-08-11T12:21:24Z</time>
      </trkpt>
      <trkpt lat="44.91774" lon="6.50254">
        <ele>2056.2</ele>
        <time>2024-08-11T12:21:25Z</time>
      </trkpt>
      <trkpt lat="44.91774" lon="6.50254">
        <ele>2056</ele>
        <time>2024-08-11T12:21:26Z</time>
      </trkpt>
      <trkpt lat="44.91771" lon="6.50255">
        <ele>2055.8</ele>
        <time>2024-08-11T12:21:27Z</time>
      </trkpt>
      <trkpt lat="44.91771" lon="6.50255">
        <ele>2055.6</ele>
        <time>2024-08-11T12:21:28Z</time>
      </trkpt>
      <trkpt lat="44.91768" lon="6.50256">
        <ele>2055.4</ele>
        <time>2024-08-11T12:21:29Z</time>
      </trkpt>
      <trkpt lat="44.91768" lon="6.50256">
        <ele>2055.2</ele>
        <time>2024-08-11T12:21:30Z</time>
      </trkpt>
      <trkpt lat="44.91765" lon="6.50256">
        <ele>2055.2</ele>
        <time>2024-08-11T12:21:31Z</time>
      </trkpt>
      <trkpt lat="44.91765" lon="6.50256">
        <ele>2054.8</ele>
        <time>2024-08-11T12:21:32Z</time>
      </trkpt>
      <trkpt lat="44.91763" lon="6.50258">
        <ele>2054.8</ele>
        <time>2024-08-11T12:21:33Z</time>
      </trkpt>
      <trkpt lat="44.91763" lon="6.50258">
        <ele>2054.6</ele>
        <time>2024-08-11T12:21:34Z</time>
      </trkpt>
      <trkpt lat="44.91761" lon="6.50259">
        <ele>2054.4</ele>
        <time>2024-08-11T12:21:35Z</time>
      </trkpt>
      <trkpt lat="44.91761" lon="6.50259">
        <ele>2054</ele>
        <time>2024-08-11T12:21:36Z</time>
      </trkpt>
      <trkpt lat="44.91759" lon="6.50261">
        <ele>2054</ele>
        <time>2024-08-11T12:21:37Z</time>
      </trkpt>
      <trkpt lat="44.91759" lon="6.50261">
        <ele>2053.6</ele>
        <time>2024-08-11T12:21:38Z</time>
      </trkpt>
      <trkpt lat="44.91757" lon="6.50262">
        <ele>2053.6</ele>
        <time>2024-08-11T12:21:39Z</time>
      </trkpt>
      <trkpt lat="44.91757" lon="6.50262">
        <ele>2053.4</ele>
        <time>2024-08-11T12:21:40Z</time>
      </trkpt>
      <trkpt lat="44.91757" lon="6.50262">
        <ele>2053.4</ele>
        <time>2024-08-11T12:21:41Z</time>
      </trkpt>
      <trkpt lat="44.91754" lon="6.50263">
        <ele>2053.2</ele>
        <time>2024-08-11T12:21:42Z</time>
      </trkpt>
      <trkpt lat="44.91754" lon="6.50263">
        <ele>2053</ele>
        <time>2024-08-11T12:21:43Z</time>
      </trkpt>
      <trkpt lat="44.91751" lon="6.50263">
        <ele>2052.8</ele>
        <time>2024-08-11T12:21:44Z</time>
      </trkpt>
      <trkpt lat="44.91751" lon="6.50263">
        <ele>2052.4</ele>
        <time>2024-08-11T12:21:45Z</time>
      </trkpt>
      <trkpt lat="44.91749" lon="6.50264">
        <ele>2052.4</ele>
        <time>2024-08-11T12:21:46Z</time>
      </trkpt>
      <trkpt lat="44.91749" lon="6.50264">
        <ele>2052.2</ele>
        <time>2024-08-11T12:21:47Z</time>
      </trkpt>
      <trkpt lat="44.91747" lon="6.50264">
        <ele>2052.2</ele>
        <time>2024-08-11T12:21:48Z</time>
      </trkpt>
      <trkpt lat="44.91747" lon="6.50264">
        <ele>2052</ele>
        <time>2024-08-11T12:21:49Z</time>
      </trkpt>
      <trkpt lat="44.91745" lon="6.50264">
        <ele>2051.8</ele>
        <time>2024-08-11T12:21:50Z</time>
      </trkpt>
      <trkpt lat="44.91745" lon="6.50264">
        <ele>2051.6</ele>
        <time>2024-08-11T12:21:51Z</time>
      </trkpt>
      <trkpt lat="44.91742" lon="6.50264">
        <ele>2051.4</ele>
        <time>2024-08-11T12:21:52Z</time>
      </trkpt>
      <trkpt lat="44.91742" lon="6.50264">
        <ele>2051</ele>
        <time>2024-08-11T12:21:53Z</time>
      </trkpt>
      <trkpt lat="44.9174" lon="6.50265">
        <ele>2050.6</ele>
        <time>2024-08-11T12:21:54Z</time>
      </trkpt>
      <trkpt lat="44.9174" lon="6.50265">
        <ele>2050.2</ele>
        <time>2024-08-11T12:21:55Z</time>
      </trkpt>
      <trkpt lat="44.91737" lon="6.50265">
        <ele>2050</ele>
        <time>2024-08-11T12:21:56Z</time>
      </trkpt>
      <trkpt lat="44.91737" lon="6.50265">
        <ele>2050</ele>
        <time>2024-08-11T12:21:57Z</time>
      </trkpt>
      <trkpt lat="44.91735" lon="6.50266">
        <ele>2049.8</ele>
        <time>2024-08-11T12:21:58Z</time>
      </trkpt>
      <trkpt lat="44.91735" lon="6.50266">
        <ele>2049.8</ele>
        <time>2024-08-11T12:21:59Z</time>
      </trkpt>
      <trkpt lat="44.91732" lon="6.50267">
        <ele>2049.4</ele>
        <time>2024-08-11T12:22:00Z</time>
      </trkpt>
      <trkpt lat="44.91732" lon="6.50267">
        <ele>2049.2</ele>
        <time>2024-08-11T12:22:01Z</time>
      </trkpt>
      <trkpt lat="44.9173" lon="6.50269">
        <ele>2049</ele>
        <time>2024-08-11T12:22:02Z</time>
      </trkpt>
      <trkpt lat="44.9173" lon="6.50269">
        <ele>2049</ele>
        <time>2024-08-11T12:22:03Z</time>
      </trkpt>
      <trkpt lat="44.91727" lon="6.50271">
        <ele>2048.6</ele>
        <time>2024-08-11T12:22:04Z</time>
      </trkpt>
      <trkpt lat="44.91727" lon="6.50271">
        <ele>2048.6</ele>
        <time>2024-08-11T12:22:05Z</time>
      </trkpt>
      <trkpt lat="44.91725" lon="6.50273">
        <ele>2048.4</ele>
        <time>2024-08-11T12:22:06Z</time>
      </trkpt>
      <trkpt lat="44.91725" lon="6.50273">
        <ele>2048.2</ele>
        <time>2024-08-11T12:22:07Z</time>
      </trkpt>
      <trkpt lat="44.91724" lon="6.50275">
        <ele>2048.2</ele>
        <time>2024-08-11T12:22:08Z</time>
      </trkpt>
      <trkpt lat="44.91724" lon="6.50275">
        <ele>2048</ele>
        <time>2024-08-11T12:22:09Z</time>
      </trkpt>
      <trkpt lat="44.91724" lon="6.50275">
        <ele>2047.6</ele>
        <time>2024-08-11T12:22:10Z</time>
      </trkpt>
      <trkpt lat="44.91723" lon="6.50272">
        <ele>2047.4</ele>
        <time>2024-08-11T12:22:11Z</time>
      </trkpt>
      <trkpt lat="44.91723" lon="6.50272">
        <ele>2047.2</ele>
        <time>2024-08-11T12:22:12Z</time>
      </trkpt>
      <trkpt lat="44.91724" lon="6.5027">
        <ele>2047</ele>
        <time>2024-08-11T12:22:13Z</time>
      </trkpt>
      <trkpt lat="44.91724" lon="6.5027">
        <ele>2046.8</ele>
        <time>2024-08-11T12:22:14Z</time>
      </trkpt>
      <trkpt lat="44.91725" lon="6.50267">
        <ele>2046.8</ele>
        <time>2024-08-11T12:22:15Z</time>
      </trkpt>
      <trkpt lat="44.91725" lon="6.50267">
        <ele>2046.8</ele>
        <time>2024-08-11T12:22:16Z</time>
      </trkpt>
      <trkpt lat="44.91727" lon="6.50264">
        <ele>2046.6</ele>
        <time>2024-08-11T12:22:17Z</time>
      </trkpt>
      <trkpt lat="44.91727" lon="6.50264">
        <ele>2046.4</ele>
        <time>2024-08-11T12:22:18Z</time>
      </trkpt>
      <trkpt lat="44.91728" lon="6.5026">
        <ele>2046.4</ele>
        <time>2024-08-11T12:22:19Z</time>
      </trkpt>
      <trkpt lat="44.91728" lon="6.5026">
        <ele>2046.4</ele>
        <time>2024-08-11T12:22:20Z</time>
      </trkpt>
      <trkpt lat="44.91729" lon="6.50257">
        <ele>2046.2</ele>
        <time>2024-08-11T12:22:21Z</time>
      </trkpt>
      <trkpt lat="44.91729" lon="6.50257">
        <ele>2046</ele>
        <time>2024-08-11T12:22:22Z</time>
      </trkpt>
      <trkpt lat="44.91731" lon="6.50254">
        <ele>2045.6</ele>
        <time>2024-08-11T12:22:23Z</time>
      </trkpt>
      <trkpt lat="44.91732" lon="6.50253">
        <ele>2045.4</ele>
        <time>2024-08-11T12:22:24Z</time>
      </trkpt>
      <trkpt lat="44.91732" lon="6.50253">
        <ele>2045.4</ele>
        <time>2024-08-11T12:22:25Z</time>
      </trkpt>
      <trkpt lat="44.91734" lon="6.5025">
        <ele>2045.2</ele>
        <time>2024-08-11T12:22:26Z</time>
      </trkpt>
      <trkpt lat="44.91734" lon="6.5025">
        <ele>2044.8</ele>
        <time>2024-08-11T12:22:27Z</time>
      </trkpt>
      <trkpt lat="44.91736" lon="6.50247">
        <ele>2044.4</ele>
        <time>2024-08-11T12:22:28Z</time>
      </trkpt>
      <trkpt lat="44.91736" lon="6.50247">
        <ele>2044.4</ele>
        <time>2024-08-11T12:22:29Z</time>
      </trkpt>
      <trkpt lat="44.91738" lon="6.50245">
        <ele>2044.4</ele>
        <time>2024-08-11T12:22:30Z</time>
      </trkpt>
      <trkpt lat="44.91738" lon="6.50245">
        <ele>2043.8</ele>
        <time>2024-08-11T12:22:31Z</time>
      </trkpt>
      <trkpt lat="44.91739" lon="6.50243">
        <ele>2043.8</ele>
        <time>2024-08-11T12:22:32Z</time>
      </trkpt>
      <trkpt lat="44.91739" lon="6.50243">
        <ele>2043.6</ele>
        <time>2024-08-11T12:22:33Z</time>
      </trkpt>
      <trkpt lat="44.91741" lon="6.50241">
        <ele>2043.4</ele>
        <time>2024-08-11T12:22:34Z</time>
      </trkpt>
      <trkpt lat="44.91741" lon="6.50241">
        <ele>2043.2</ele>
        <time>2024-08-11T12:22:35Z</time>
      </trkpt>
      <trkpt lat="44.91743" lon="6.50239">
        <ele>2043.2</ele>
        <time>2024-08-11T12:22:36Z</time>
      </trkpt>
      <trkpt lat="44.91743" lon="6.50239">
        <ele>2043</ele>
        <time>2024-08-11T12:22:37Z</time>
      </trkpt>
      <trkpt lat="44.91745" lon="6.50237">
        <ele>2042.8</ele>
        <time>2024-08-11T12:22:38Z</time>
      </trkpt>
      <trkpt lat="44.91745" lon="6.50237">
        <ele>2042.6</ele>
        <time>2024-08-11T12:22:39Z</time>
      </trkpt>
      <trkpt lat="44.91747" lon="6.50235">
        <ele>2042.6</ele>
        <time>2024-08-11T12:22:40Z</time>
      </trkpt>
      <trkpt lat="44.91747" lon="6.50235">
        <ele>2042.2</ele>
        <time>2024-08-11T12:22:41Z</time>
      </trkpt>
      <trkpt lat="44.91749" lon="6.50233">
        <ele>2042</ele>
        <time>2024-08-11T12:22:42Z</time>
      </trkpt>
      <trkpt lat="44.91749" lon="6.50233">
        <ele>2042</ele>
        <time>2024-08-11T12:22:43Z</time>
      </trkpt>
      <trkpt lat="44.91751" lon="6.5023">
        <ele>2042.2</ele>
        <time>2024-08-11T12:22:44Z</time>
      </trkpt>
      <trkpt lat="44.91751" lon="6.5023">
        <ele>2042.2</ele>
        <time>2024-08-11T12:22:45Z</time>
      </trkpt>
      <trkpt lat="44.91753" lon="6.50228">
        <ele>2042.2</ele>
        <time>2024-08-11T12:22:46Z</time>
      </trkpt>
      <trkpt lat="44.91753" lon="6.50228">
        <ele>2042.2</ele>
        <time>2024-08-11T12:22:47Z</time>
      </trkpt>
      <trkpt lat="44.91754" lon="6.50226">
        <ele>2042.2</ele>
        <time>2024-08-11T12:22:48Z</time>
      </trkpt>
      <trkpt lat="44.91754" lon="6.50226">
        <ele>2042.2</ele>
        <time>2024-08-11T12:22:49Z</time>
      </trkpt>
      <trkpt lat="44.91757" lon="6.50224">
        <ele>2042.2</ele>
        <time>2024-08-11T12:22:50Z</time>
      </trkpt>
      <trkpt lat="44.91757" lon="6.50224">
        <ele>2042</ele>
        <time>2024-08-11T12:22:51Z</time>
      </trkpt>
      <trkpt lat="44.91759" lon="6.50222">
        <ele>2041.8</ele>
        <time>2024-08-11T12:22:52Z</time>
      </trkpt>
      <trkpt lat="44.91759" lon="6.50222">
        <ele>2041.8</ele>
        <time>2024-08-11T12:22:53Z</time>
      </trkpt>
      <trkpt lat="44.91761" lon="6.5022">
        <ele>2041.6</ele>
        <time>2024-08-11T12:22:54Z</time>
      </trkpt>
      <trkpt lat="44.91761" lon="6.5022">
        <ele>2041.4</ele>
        <time>2024-08-11T12:22:55Z</time>
      </trkpt>
      <trkpt lat="44.91763" lon="6.50218">
        <ele>2041.4</ele>
        <time>2024-08-11T12:22:56Z</time>
      </trkpt>
      <trkpt lat="44.91763" lon="6.50218">
        <ele>2041.2</ele>
        <time>2024-08-11T12:22:57Z</time>
      </trkpt>
      <trkpt lat="44.91765" lon="6.50216">
        <ele>2041.2</ele>
        <time>2024-08-11T12:22:58Z</time>
      </trkpt>
      <trkpt lat="44.91765" lon="6.50216">
        <ele>2041.2</ele>
        <time>2024-08-11T12:22:59Z</time>
      </trkpt>
      <trkpt lat="44.91766" lon="6.50214">
        <ele>2041.2</ele>
        <time>2024-08-11T12:23:00Z</time>
      </trkpt>
      <trkpt lat="44.91766" lon="6.50214">
        <ele>2041.2</ele>
        <time>2024-08-11T12:23:01Z</time>
      </trkpt>
      <trkpt lat="44.91769" lon="6.50212">
        <ele>2040.8</ele>
        <time>2024-08-11T12:23:02Z</time>
      </trkpt>
      <trkpt lat="44.91769" lon="6.50212">
        <ele>2040.8</ele>
        <time>2024-08-11T12:23:03Z</time>
      </trkpt>
      <trkpt lat="44.91771" lon="6.50209">
        <ele>2040.8</ele>
        <time>2024-08-11T12:23:04Z</time>
      </trkpt>
      <trkpt lat="44.91771" lon="6.50209">
        <ele>2040.6</ele>
        <time>2024-08-11T12:23:05Z</time>
      </trkpt>
      <trkpt lat="44.91773" lon="6.50208">
        <ele>2040.6</ele>
        <time>2024-08-11T12:23:06Z</time>
      </trkpt>
      <trkpt lat="44.91773" lon="6.50208">
        <ele>2040.4</ele>
        <time>2024-08-11T12:23:07Z</time>
      </trkpt>
      <trkpt lat="44.91775" lon="6.50206">
        <ele>2040</ele>
        <time>2024-08-11T12:23:08Z</time>
      </trkpt>
      <trkpt lat="44.91775" lon="6.50206">
        <ele>2040</ele>
        <time>2024-08-11T12:23:09Z</time>
      </trkpt>
      <trkpt lat="44.91777" lon="6.50204">
        <ele>2039.6</ele>
        <time>2024-08-11T12:23:10Z</time>
      </trkpt>
      <trkpt lat="44.91777" lon="6.50204">
        <ele>2039.6</ele>
        <time>2024-08-11T12:23:11Z</time>
      </trkpt>
      <trkpt lat="44.91779" lon="6.50202">
        <ele>2039.4</ele>
        <time>2024-08-11T12:23:12Z</time>
      </trkpt>
      <trkpt lat="44.91779" lon="6.50202">
        <ele>2039.2</ele>
        <time>2024-08-11T12:23:13Z</time>
      </trkpt>
      <trkpt lat="44.9178" lon="6.50199">
        <ele>2039</ele>
        <time>2024-08-11T12:23:14Z</time>
      </trkpt>
      <trkpt lat="44.9178" lon="6.50199">
        <ele>2039</ele>
        <time>2024-08-11T12:23:15Z</time>
      </trkpt>
      <trkpt lat="44.91782" lon="6.50196">
        <ele>2038.8</ele>
        <time>2024-08-11T12:23:16Z</time>
      </trkpt>
      <trkpt lat="44.91782" lon="6.50196">
        <ele>2038.8</ele>
        <time>2024-08-11T12:23:17Z</time>
      </trkpt>
      <trkpt lat="44.91784" lon="6.50195">
        <ele>2038.8</ele>
        <time>2024-08-11T12:23:18Z</time>
      </trkpt>
      <trkpt lat="44.91784" lon="6.50195">
        <ele>2038.4</ele>
        <time>2024-08-11T12:23:19Z</time>
      </trkpt>
      <trkpt lat="44.91786" lon="6.50193">
        <ele>2037.8</ele>
        <time>2024-08-11T12:23:20Z</time>
      </trkpt>
      <trkpt lat="44.91786" lon="6.50193">
        <ele>2037.6</ele>
        <time>2024-08-11T12:23:21Z</time>
      </trkpt>
      <trkpt lat="44.91786" lon="6.50193">
        <ele>2037.4</ele>
        <time>2024-08-11T12:23:22Z</time>
      </trkpt>
      <trkpt lat="44.91789" lon="6.50191">
        <ele>2037.2</ele>
        <time>2024-08-11T12:23:23Z</time>
      </trkpt>
      <trkpt lat="44.91789" lon="6.50191">
        <ele>2037.2</ele>
        <time>2024-08-11T12:23:24Z</time>
      </trkpt>
      <trkpt lat="44.91789" lon="6.50191">
        <ele>2037</ele>
        <time>2024-08-11T12:23:25Z</time>
      </trkpt>
      <trkpt lat="44.91789" lon="6.50191">
        <ele>2037</ele>
        <time>2024-08-11T12:23:26Z</time>
      </trkpt>
      <trkpt lat="44.91789" lon="6.50191">
        <ele>2037</ele>
        <time>2024-08-11T12:23:27Z</time>
      </trkpt>
      <trkpt lat="44.91789" lon="6.50188">
        <ele>2036.8</ele>
        <time>2024-08-11T12:23:28Z</time>
      </trkpt>
      <trkpt lat="44.91789" lon="6.50188">
        <ele>2036.8</ele>
        <time>2024-08-11T12:23:29Z</time>
      </trkpt>
      <trkpt lat="44.9179" lon="6.50186">
        <ele>2036.6</ele>
        <time>2024-08-11T12:23:30Z</time>
      </trkpt>
      <trkpt lat="44.9179" lon="6.50186">
        <ele>2036.4</ele>
        <time>2024-08-11T12:23:31Z</time>
      </trkpt>
      <trkpt lat="44.91792" lon="6.50185">
        <ele>2036.4</ele>
        <time>2024-08-11T12:23:32Z</time>
      </trkpt>
      <trkpt lat="44.91792" lon="6.50185">
        <ele>2036.2</ele>
        <time>2024-08-11T12:23:33Z</time>
      </trkpt>
      <trkpt lat="44.91792" lon="6.50185">
        <ele>2036</ele>
        <time>2024-08-11T12:23:34Z</time>
      </trkpt>
      <trkpt lat="44.91792" lon="6.50185">
        <ele>2035.8</ele>
        <time>2024-08-11T12:23:35Z</time>
      </trkpt>
      <trkpt lat="44.91794" lon="6.50184">
        <ele>2035.6</ele>
        <time>2024-08-11T12:23:36Z</time>
      </trkpt>
      <trkpt lat="44.91794" lon="6.50184">
        <ele>2035.2</ele>
        <time>2024-08-11T12:23:37Z</time>
      </trkpt>
      <trkpt lat="44.91794" lon="6.50184">
        <ele>2034.8</ele>
        <time>2024-08-11T12:23:38Z</time>
      </trkpt>
      <trkpt lat="44.91794" lon="6.50184">
        <ele>2034.6</ele>
        <time>2024-08-11T12:23:39Z</time>
      </trkpt>
      <trkpt lat="44.91794" lon="6.50184">
        <ele>2034.2</ele>
        <time>2024-08-11T12:23:40Z</time>
      </trkpt>
      <trkpt lat="44.91794" lon="6.50184">
        <ele>2034.2</ele>
        <time>2024-08-11T12:23:41Z</time>
      </trkpt>
      <trkpt lat="44.91792" lon="6.50183">
        <ele>2034.2</ele>
        <time>2024-08-11T12:23:42Z</time>
      </trkpt>
      <trkpt lat="44.91792" lon="6.50183">
        <ele>2034</ele>
        <time>2024-08-11T12:23:43Z</time>
      </trkpt>
      <trkpt lat="44.91792" lon="6.50183">
        <ele>2033.2</ele>
        <time>2024-08-11T12:23:44Z</time>
      </trkpt>
      <trkpt lat="44.9179" lon="6.5018">
        <ele>2032.8</ele>
        <time>2024-08-11T12:23:45Z</time>
      </trkpt>
      <trkpt lat="44.9179" lon="6.5018">
        <ele>2032.4</ele>
        <time>2024-08-11T12:23:46Z</time>
      </trkpt>
      <trkpt lat="44.9179" lon="6.5018">
        <ele>2031.8</ele>
        <time>2024-08-11T12:23:47Z</time>
      </trkpt>
      <trkpt lat="44.9179" lon="6.5018">
        <ele>2031.6</ele>
        <time>2024-08-11T12:23:48Z</time>
      </trkpt>
      <trkpt lat="44.9179" lon="6.5018">
        <ele>2031.4</ele>
        <time>2024-08-11T12:23:49Z</time>
      </trkpt>
      <trkpt lat="44.9179" lon="6.5018">
        <ele>2031.2</ele>
        <time>2024-08-11T12:23:50Z</time>
      </trkpt>
      <trkpt lat="44.91788" lon="6.50181">
        <ele>2030.6</ele>
        <time>2024-08-11T12:23:51Z</time>
      </trkpt>
      <trkpt lat="44.91788" lon="6.50181">
        <ele>2030</ele>
        <time>2024-08-11T12:23:52Z</time>
      </trkpt>
      <trkpt lat="44.91786" lon="6.50182">
        <ele>2029.6</ele>
        <time>2024-08-11T12:23:53Z</time>
      </trkpt>
      <trkpt lat="44.91786" lon="6.50182">
        <ele>2029.4</ele>
        <time>2024-08-11T12:23:54Z</time>
      </trkpt>
      <trkpt lat="44.91784" lon="6.50182">
        <ele>2029.4</ele>
        <time>2024-08-11T12:23:55Z</time>
      </trkpt>
      <trkpt lat="44.91784" lon="6.50182">
        <ele>2029.2</ele>
        <time>2024-08-11T12:23:56Z</time>
      </trkpt>
      <trkpt lat="44.91781" lon="6.50181">
        <ele>2029.2</ele>
        <time>2024-08-11T12:23:57Z</time>
      </trkpt>
      <trkpt lat="44.91781" lon="6.50181">
        <ele>2029.4</ele>
        <time>2024-08-11T12:23:58Z</time>
      </trkpt>
      <trkpt lat="44.91779" lon="6.50181">
        <ele>2029.4</ele>
        <time>2024-08-11T12:23:59Z</time>
      </trkpt>
      <trkpt lat="44.91779" lon="6.50181">
        <ele>2029.4</ele>
        <time>2024-08-11T12:24:00Z</time>
      </trkpt>
      <trkpt lat="44.91777" lon="6.50181">
        <ele>2029.2</ele>
        <time>2024-08-11T12:24:01Z</time>
      </trkpt>
      <trkpt lat="44.91777" lon="6.50181">
        <ele>2028.8</ele>
        <time>2024-08-11T12:24:02Z</time>
      </trkpt>
      <trkpt lat="44.91775" lon="6.50182">
        <ele>2028.8</ele>
        <time>2024-08-11T12:24:03Z</time>
      </trkpt>
      <trkpt lat="44.91775" lon="6.50182">
        <ele>2028.8</ele>
        <time>2024-08-11T12:24:04Z</time>
      </trkpt>
      <trkpt lat="44.91773" lon="6.50183">
        <ele>2028.8</ele>
        <time>2024-08-11T12:24:05Z</time>
      </trkpt>
      <trkpt lat="44.91773" lon="6.50183">
        <ele>2028.4</ele>
        <time>2024-08-11T12:24:06Z</time>
      </trkpt>
      <trkpt lat="44.9177" lon="6.50184">
        <ele>2028.4</ele>
        <time>2024-08-11T12:24:07Z</time>
      </trkpt>
      <trkpt lat="44.9177" lon="6.50184">
        <ele>2028.4</ele>
        <time>2024-08-11T12:24:08Z</time>
      </trkpt>
      <trkpt lat="44.91768" lon="6.50184">
        <ele>2028.2</ele>
        <time>2024-08-11T12:24:09Z</time>
      </trkpt>
      <trkpt lat="44.91768" lon="6.50184">
        <ele>2028.2</ele>
        <time>2024-08-11T12:24:10Z</time>
      </trkpt>
      <trkpt lat="44.91765" lon="6.50185">
        <ele>2028</ele>
        <time>2024-08-11T12:24:11Z</time>
      </trkpt>
      <trkpt lat="44.91765" lon="6.50185">
        <ele>2027.8</ele>
        <time>2024-08-11T12:24:12Z</time>
      </trkpt>
      <trkpt lat="44.91763" lon="6.50185">
        <ele>2027.6</ele>
        <time>2024-08-11T12:24:13Z</time>
      </trkpt>
      <trkpt lat="44.91763" lon="6.50185">
        <ele>2027.2</ele>
        <time>2024-08-11T12:24:14Z</time>
      </trkpt>
      <trkpt lat="44.91761" lon="6.50186">
        <ele>2027.2</ele>
        <time>2024-08-11T12:24:15Z</time>
      </trkpt>
      <trkpt lat="44.91761" lon="6.50186">
        <ele>2027</ele>
        <time>2024-08-11T12:24:16Z</time>
      </trkpt>
      <trkpt lat="44.91759" lon="6.50185">
        <ele>2026.6</ele>
        <time>2024-08-11T12:24:17Z</time>
      </trkpt>
      <trkpt lat="44.91759" lon="6.50185">
        <ele>2026.4</ele>
        <time>2024-08-11T12:24:18Z</time>
      </trkpt>
      <trkpt lat="44.91757" lon="6.50185">
        <ele>2026.2</ele>
        <time>2024-08-11T12:24:19Z</time>
      </trkpt>
      <trkpt lat="44.91757" lon="6.50185">
        <ele>2025.8</ele>
        <time>2024-08-11T12:24:20Z</time>
      </trkpt>
      <trkpt lat="44.91755" lon="6.50186">
        <ele>2025.4</ele>
        <time>2024-08-11T12:24:21Z</time>
      </trkpt>
      <trkpt lat="44.91755" lon="6.50186">
        <ele>2025.2</ele>
        <time>2024-08-11T12:24:22Z</time>
      </trkpt>
      <trkpt lat="44.91752" lon="6.50187">
        <ele>2025.2</ele>
        <time>2024-08-11T12:24:23Z</time>
      </trkpt>
      <trkpt lat="44.91752" lon="6.50187">
        <ele>2025.2</ele>
        <time>2024-08-11T12:24:24Z</time>
      </trkpt>
      <trkpt lat="44.9175" lon="6.5019">
        <ele>2025</ele>
        <time>2024-08-11T12:24:25Z</time>
      </trkpt>
      <trkpt lat="44.9175" lon="6.5019">
        <ele>2024.6</ele>
        <time>2024-08-11T12:24:26Z</time>
      </trkpt>
      <trkpt lat="44.91748" lon="6.50192">
        <ele>2024.4</ele>
        <time>2024-08-11T12:24:27Z</time>
      </trkpt>
      <trkpt lat="44.91748" lon="6.50192">
        <ele>2024.2</ele>
        <time>2024-08-11T12:24:28Z</time>
      </trkpt>
      <trkpt lat="44.91748" lon="6.50192">
        <ele>2024</ele>
        <time>2024-08-11T12:24:29Z</time>
      </trkpt>
      <trkpt lat="44.91745" lon="6.50193">
        <ele>2023.8</ele>
        <time>2024-08-11T12:24:30Z</time>
      </trkpt>
      <trkpt lat="44.91745" lon="6.50193">
        <ele>2023.8</ele>
        <time>2024-08-11T12:24:31Z</time>
      </trkpt>
      <trkpt lat="44.91743" lon="6.50194">
        <ele>2023.6</ele>
        <time>2024-08-11T12:24:32Z</time>
      </trkpt>
      <trkpt lat="44.91743" lon="6.50194">
        <ele>2023.4</ele>
        <time>2024-08-11T12:24:33Z</time>
      </trkpt>
      <trkpt lat="44.91741" lon="6.50196">
        <ele>2023.2</ele>
        <time>2024-08-11T12:24:34Z</time>
      </trkpt>
      <trkpt lat="44.91741" lon="6.50196">
        <ele>2023</ele>
        <time>2024-08-11T12:24:35Z</time>
      </trkpt>
      <trkpt lat="44.91739" lon="6.50197">
        <ele>2022.8</ele>
        <time>2024-08-11T12:24:36Z</time>
      </trkpt>
      <trkpt lat="44.91739" lon="6.50197">
        <ele>2022.6</ele>
        <time>2024-08-11T12:24:37Z</time>
      </trkpt>
      <trkpt lat="44.91739" lon="6.50197">
        <ele>2022.4</ele>
        <time>2024-08-11T12:24:38Z</time>
      </trkpt>
      <trkpt lat="44.91736" lon="6.50198">
        <ele>2022.4</ele>
        <time>2024-08-11T12:24:39Z</time>
      </trkpt>
      <trkpt lat="44.91736" lon="6.50198">
        <ele>2022.2</ele>
        <time>2024-08-11T12:24:40Z</time>
      </trkpt>
      <trkpt lat="44.91736" lon="6.50198">
        <ele>2022</ele>
        <time>2024-08-11T12:24:41Z</time>
      </trkpt>
      <trkpt lat="44.91734" lon="6.502">
        <ele>2021.6</ele>
        <time>2024-08-11T12:24:42Z</time>
      </trkpt>
      <trkpt lat="44.91734" lon="6.502">
        <ele>2021.4</ele>
        <time>2024-08-11T12:24:43Z</time>
      </trkpt>
      <trkpt lat="44.91731" lon="6.502">
        <ele>2021.2</ele>
        <time>2024-08-11T12:24:44Z</time>
      </trkpt>
      <trkpt lat="44.91731" lon="6.502">
        <ele>2021.2</ele>
        <time>2024-08-11T12:24:45Z</time>
      </trkpt>
      <trkpt lat="44.91729" lon="6.50201">
        <ele>2021</ele>
        <time>2024-08-11T12:24:46Z</time>
      </trkpt>
      <trkpt lat="44.91729" lon="6.50201">
        <ele>2021</ele>
        <time>2024-08-11T12:24:47Z</time>
      </trkpt>
      <trkpt lat="44.91726" lon="6.50202">
        <ele>2020.6</ele>
        <time>2024-08-11T12:24:48Z</time>
      </trkpt>
      <trkpt lat="44.91726" lon="6.50202">
        <ele>2020.4</ele>
        <time>2024-08-11T12:24:49Z</time>
      </trkpt>
      <trkpt lat="44.91724" lon="6.50203">
        <ele>2020.2</ele>
        <time>2024-08-11T12:24:50Z</time>
      </trkpt>
      <trkpt lat="44.91724" lon="6.50203">
        <ele>2020</ele>
        <time>2024-08-11T12:24:51Z</time>
      </trkpt>
      <trkpt lat="44.91721" lon="6.50204">
        <ele>2020</ele>
        <time>2024-08-11T12:24:52Z</time>
      </trkpt>
      <trkpt lat="44.91721" lon="6.50204">
        <ele>2020</ele>
        <time>2024-08-11T12:24:53Z</time>
      </trkpt>
      <trkpt lat="44.91719" lon="6.50206">
        <ele>2019.4</ele>
        <time>2024-08-11T12:24:54Z</time>
      </trkpt>
      <trkpt lat="44.91719" lon="6.50206">
        <ele>2019.2</ele>
        <time>2024-08-11T12:24:55Z</time>
      </trkpt>
      <trkpt lat="44.91716" lon="6.50208">
        <ele>2019</ele>
        <time>2024-08-11T12:24:56Z</time>
      </trkpt>
      <trkpt lat="44.91716" lon="6.50208">
        <ele>2019</ele>
        <time>2024-08-11T12:24:57Z</time>
      </trkpt>
      <trkpt lat="44.91713" lon="6.50209">
        <ele>2018.8</ele>
        <time>2024-08-11T12:24:58Z</time>
      </trkpt>
      <trkpt lat="44.91713" lon="6.50209">
        <ele>2018.6</ele>
        <time>2024-08-11T12:24:59Z</time>
      </trkpt>
      <trkpt lat="44.91711" lon="6.50211">
        <ele>2018.4</ele>
        <time>2024-08-11T12:25:00Z</time>
      </trkpt>
      <trkpt lat="44.91711" lon="6.50211">
        <ele>2018.4</ele>
        <time>2024-08-11T12:25:01Z</time>
      </trkpt>
      <trkpt lat="44.91708" lon="6.50212">
        <ele>2017.6</ele>
        <time>2024-08-11T12:25:02Z</time>
      </trkpt>
      <trkpt lat="44.91708" lon="6.50212">
        <ele>2017.6</ele>
        <time>2024-08-11T12:25:03Z</time>
      </trkpt>
      <trkpt lat="44.91708" lon="6.50212">
        <ele>2017.4</ele>
        <time>2024-08-11T12:25:04Z</time>
      </trkpt>
      <trkpt lat="44.91705" lon="6.50212">
        <ele>2017.4</ele>
        <time>2024-08-11T12:25:05Z</time>
      </trkpt>
      <trkpt lat="44.91705" lon="6.50212">
        <ele>2017.2</ele>
        <time>2024-08-11T12:25:06Z</time>
      </trkpt>
      <trkpt lat="44.91703" lon="6.50212">
        <ele>2017</ele>
        <time>2024-08-11T12:25:07Z</time>
      </trkpt>
      <trkpt lat="44.91703" lon="6.50212">
        <ele>2016.8</ele>
        <time>2024-08-11T12:25:08Z</time>
      </trkpt>
      <trkpt lat="44.91701" lon="6.50212">
        <ele>2016.6</ele>
        <time>2024-08-11T12:25:09Z</time>
      </trkpt>
      <trkpt lat="44.91701" lon="6.50212">
        <ele>2016.4</ele>
        <time>2024-08-11T12:25:10Z</time>
      </trkpt>
      <trkpt lat="44.91699" lon="6.50211">
        <ele>2016.2</ele>
        <time>2024-08-11T12:25:11Z</time>
      </trkpt>
      <trkpt lat="44.91699" lon="6.50211">
        <ele>2016</ele>
        <time>2024-08-11T12:25:12Z</time>
      </trkpt>
      <trkpt lat="44.91696" lon="6.50212">
        <ele>2015.8</ele>
        <time>2024-08-11T12:25:13Z</time>
      </trkpt>
      <trkpt lat="44.91696" lon="6.50212">
        <ele>2015.6</ele>
        <time>2024-08-11T12:25:14Z</time>
      </trkpt>
      <trkpt lat="44.91693" lon="6.50212">
        <ele>2015.6</ele>
        <time>2024-08-11T12:25:15Z</time>
      </trkpt>
      <trkpt lat="44.91693" lon="6.50212">
        <ele>2015.2</ele>
        <time>2024-08-11T12:25:16Z</time>
      </trkpt>
      <trkpt lat="44.91692" lon="6.50213">
        <ele>2015.2</ele>
        <time>2024-08-11T12:25:17Z</time>
      </trkpt>
      <trkpt lat="44.91692" lon="6.50213">
        <ele>2015</ele>
        <time>2024-08-11T12:25:18Z</time>
      </trkpt>
      <trkpt lat="44.9169" lon="6.50215">
        <ele>2015</ele>
        <time>2024-08-11T12:25:19Z</time>
      </trkpt>
      <trkpt lat="44.9169" lon="6.50215">
        <ele>2014.8</ele>
        <time>2024-08-11T12:25:20Z</time>
      </trkpt>
      <trkpt lat="44.91688" lon="6.50216">
        <ele>2014.4</ele>
        <time>2024-08-11T12:25:21Z</time>
      </trkpt>
      <trkpt lat="44.91688" lon="6.50216">
        <ele>2014.4</ele>
        <time>2024-08-11T12:25:22Z</time>
      </trkpt>
      <trkpt lat="44.91688" lon="6.50216">
        <ele>2014.2</ele>
        <time>2024-08-11T12:25:23Z</time>
      </trkpt>
      <trkpt lat="44.91686" lon="6.50217">
        <ele>2014</ele>
        <time>2024-08-11T12:25:24Z</time>
      </trkpt>
      <trkpt lat="44.91686" lon="6.50217">
        <ele>2013.6</ele>
        <time>2024-08-11T12:25:25Z</time>
      </trkpt>
      <trkpt lat="44.91686" lon="6.50217">
        <ele>2013.6</ele>
        <time>2024-08-11T12:25:26Z</time>
      </trkpt>
      <trkpt lat="44.91686" lon="6.50217">
        <ele>2013.2</ele>
        <time>2024-08-11T12:25:27Z</time>
      </trkpt>
      <trkpt lat="44.91686" lon="6.50217">
        <ele>2012.8</ele>
        <time>2024-08-11T12:25:28Z</time>
      </trkpt>
      <trkpt lat="44.91685" lon="6.50214">
        <ele>2012.6</ele>
        <time>2024-08-11T12:25:29Z</time>
      </trkpt>
      <trkpt lat="44.91685" lon="6.50214">
        <ele>2012.6</ele>
        <time>2024-08-11T12:25:30Z</time>
      </trkpt>
      <trkpt lat="44.91686" lon="6.5021">
        <ele>2012.4</ele>
        <time>2024-08-11T12:25:31Z</time>
      </trkpt>
      <trkpt lat="44.91686" lon="6.5021">
        <ele>2012</ele>
        <time>2024-08-11T12:25:32Z</time>
      </trkpt>
      <trkpt lat="44.91686" lon="6.50207">
        <ele>2011.6</ele>
        <time>2024-08-11T12:25:33Z</time>
      </trkpt>
      <trkpt lat="44.91686" lon="6.50207">
        <ele>2011.4</ele>
        <time>2024-08-11T12:25:34Z</time>
      </trkpt>
      <trkpt lat="44.91687" lon="6.50205">
        <ele>2011.4</ele>
        <time>2024-08-11T12:25:35Z</time>
      </trkpt>
      <trkpt lat="44.91687" lon="6.50205">
        <ele>2011.2</ele>
        <time>2024-08-11T12:25:36Z</time>
      </trkpt>
      <trkpt lat="44.91688" lon="6.50202">
        <ele>2011</ele>
        <time>2024-08-11T12:25:37Z</time>
      </trkpt>
      <trkpt lat="44.91688" lon="6.50202">
        <ele>2010.8</ele>
        <time>2024-08-11T12:25:38Z</time>
      </trkpt>
      <trkpt lat="44.9169" lon="6.502">
        <ele>2010.4</ele>
        <time>2024-08-11T12:25:39Z</time>
      </trkpt>
      <trkpt lat="44.9169" lon="6.502">
        <ele>2010.4</ele>
        <time>2024-08-11T12:25:40Z</time>
      </trkpt>
      <trkpt lat="44.91691" lon="6.50198">
        <ele>2010.4</ele>
        <time>2024-08-11T12:25:41Z</time>
      </trkpt>
      <trkpt lat="44.91691" lon="6.50198">
        <ele>2010.2</ele>
        <time>2024-08-11T12:25:42Z</time>
      </trkpt>
      <trkpt lat="44.91693" lon="6.50196">
        <ele>2009.8</ele>
        <time>2024-08-11T12:25:43Z</time>
      </trkpt>
      <trkpt lat="44.91693" lon="6.50196">
        <ele>2009.6</ele>
        <time>2024-08-11T12:25:44Z</time>
      </trkpt>
      <trkpt lat="44.91695" lon="6.50194">
        <ele>2009.6</ele>
        <time>2024-08-11T12:25:45Z</time>
      </trkpt>
      <trkpt lat="44.91695" lon="6.50194">
        <ele>2009.6</ele>
        <time>2024-08-11T12:25:46Z</time>
      </trkpt>
      <trkpt lat="44.91698" lon="6.50193">
        <ele>2009.4</ele>
        <time>2024-08-11T12:25:47Z</time>
      </trkpt>
      <trkpt lat="44.91698" lon="6.50193">
        <ele>2009.4</ele>
        <time>2024-08-11T12:25:48Z</time>
      </trkpt>
      <trkpt lat="44.917" lon="6.50191">
        <ele>2009</ele>
        <time>2024-08-11T12:25:49Z</time>
      </trkpt>
      <trkpt lat="44.917" lon="6.50191">
        <ele>2008.6</ele>
        <time>2024-08-11T12:25:50Z</time>
      </trkpt>
      <trkpt lat="44.91702" lon="6.50189">
        <ele>2008.4</ele>
        <time>2024-08-11T12:25:51Z</time>
      </trkpt>
      <trkpt lat="44.91702" lon="6.50189">
        <ele>2008.4</ele>
        <time>2024-08-11T12:25:52Z</time>
      </trkpt>
      <trkpt lat="44.91704" lon="6.50188">
        <ele>2008.4</ele>
        <time>2024-08-11T12:25:53Z</time>
      </trkpt>
      <trkpt lat="44.91704" lon="6.50188">
        <ele>2008.2</ele>
        <time>2024-08-11T12:25:54Z</time>
      </trkpt>
      <trkpt lat="44.91706" lon="6.50185">
        <ele>2007.8</ele>
        <time>2024-08-11T12:25:55Z</time>
      </trkpt>
      <trkpt lat="44.91706" lon="6.50185">
        <ele>2007.8</ele>
        <time>2024-08-11T12:25:56Z</time>
      </trkpt>
      <trkpt lat="44.91706" lon="6.50185">
        <ele>2007.6</ele>
        <time>2024-08-11T12:25:57Z</time>
      </trkpt>
      <trkpt lat="44.91708" lon="6.50182">
        <ele>2007.2</ele>
        <time>2024-08-11T12:25:58Z</time>
      </trkpt>
      <trkpt lat="44.91708" lon="6.50182">
        <ele>2007</ele>
        <time>2024-08-11T12:25:59Z</time>
      </trkpt>
      <trkpt lat="44.91709" lon="6.5018">
        <ele>2006.6</ele>
        <time>2024-08-11T12:26:00Z</time>
      </trkpt>
      <trkpt lat="44.91709" lon="6.5018">
        <ele>2006.6</ele>
        <time>2024-08-11T12:26:01Z</time>
      </trkpt>
      <trkpt lat="44.9171" lon="6.50177">
        <ele>2006.2</ele>
        <time>2024-08-11T12:26:02Z</time>
      </trkpt>
      <trkpt lat="44.9171" lon="6.50177">
        <ele>2006.2</ele>
        <time>2024-08-11T12:26:03Z</time>
      </trkpt>
      <trkpt lat="44.91711" lon="6.50175">
        <ele>2006</ele>
        <time>2024-08-11T12:26:04Z</time>
      </trkpt>
      <trkpt lat="44.91711" lon="6.50175">
        <ele>2005.8</ele>
        <time>2024-08-11T12:26:05Z</time>
      </trkpt>
      <trkpt lat="44.91712" lon="6.50172">
        <ele>2005.8</ele>
        <time>2024-08-11T12:26:06Z</time>
      </trkpt>
      <trkpt lat="44.91712" lon="6.50172">
        <ele>2005.6</ele>
        <time>2024-08-11T12:26:07Z</time>
      </trkpt>
      <trkpt lat="44.91714" lon="6.50169">
        <ele>2005.6</ele>
        <time>2024-08-11T12:26:08Z</time>
      </trkpt>
      <trkpt lat="44.91714" lon="6.50169">
        <ele>2005.2</ele>
        <time>2024-08-11T12:26:09Z</time>
      </trkpt>
      <trkpt lat="44.91715" lon="6.50167">
        <ele>2005</ele>
        <time>2024-08-11T12:26:10Z</time>
      </trkpt>
      <trkpt lat="44.91715" lon="6.50167">
        <ele>2004.8</ele>
        <time>2024-08-11T12:26:11Z</time>
      </trkpt>
      <trkpt lat="44.91717" lon="6.50164">
        <ele>2004.8</ele>
        <time>2024-08-11T12:26:12Z</time>
      </trkpt>
      <trkpt lat="44.91717" lon="6.50164">
        <ele>2004.8</ele>
        <time>2024-08-11T12:26:13Z</time>
      </trkpt>
      <trkpt lat="44.91718" lon="6.50161">
        <ele>2004.8</ele>
        <time>2024-08-11T12:26:14Z</time>
      </trkpt>
      <trkpt lat="44.91718" lon="6.50161">
        <ele>2004.6</ele>
        <time>2024-08-11T12:26:15Z</time>
      </trkpt>
      <trkpt lat="44.91719" lon="6.50159">
        <ele>2004.6</ele>
        <time>2024-08-11T12:26:16Z</time>
      </trkpt>
      <trkpt lat="44.91719" lon="6.50159">
        <ele>2004.4</ele>
        <time>2024-08-11T12:26:17Z</time>
      </trkpt>
      <trkpt lat="44.91719" lon="6.50156">
        <ele>2004.4</ele>
        <time>2024-08-11T12:26:18Z</time>
      </trkpt>
      <trkpt lat="44.91719" lon="6.50156">
        <ele>2004.2</ele>
        <time>2024-08-11T12:26:19Z</time>
      </trkpt>
      <trkpt lat="44.9172" lon="6.50153">
        <ele>2003.6</ele>
        <time>2024-08-11T12:26:20Z</time>
      </trkpt>
      <trkpt lat="44.9172" lon="6.50153">
        <ele>2003.4</ele>
        <time>2024-08-11T12:26:21Z</time>
      </trkpt>
      <trkpt lat="44.91722" lon="6.50151">
        <ele>2003.2</ele>
        <time>2024-08-11T12:26:22Z</time>
      </trkpt>
      <trkpt lat="44.91722" lon="6.50151">
        <ele>2002.8</ele>
        <time>2024-08-11T12:26:23Z</time>
      </trkpt>
      <trkpt lat="44.91724" lon="6.50148">
        <ele>2002.8</ele>
        <time>2024-08-11T12:26:24Z</time>
      </trkpt>
      <trkpt lat="44.91724" lon="6.50148">
        <ele>2002.4</ele>
        <time>2024-08-11T12:26:25Z</time>
      </trkpt>
      <trkpt lat="44.91725" lon="6.50146">
        <ele>2002.2</ele>
        <time>2024-08-11T12:26:26Z</time>
      </trkpt>
      <trkpt lat="44.91725" lon="6.50146">
        <ele>2002</ele>
        <time>2024-08-11T12:26:27Z</time>
      </trkpt>
      <trkpt lat="44.91727" lon="6.50144">
        <ele>2002</ele>
        <time>2024-08-11T12:26:28Z</time>
      </trkpt>
      <trkpt lat="44.91727" lon="6.50144">
        <ele>2002</ele>
        <time>2024-08-11T12:26:29Z</time>
      </trkpt>
      <trkpt lat="44.91729" lon="6.50142">
        <ele>2001.8</ele>
        <time>2024-08-11T12:26:30Z</time>
      </trkpt>
      <trkpt lat="44.91729" lon="6.50142">
        <ele>2001.8</ele>
        <time>2024-08-11T12:26:31Z</time>
      </trkpt>
      <trkpt lat="44.9173" lon="6.5014">
        <ele>2001.4</ele>
        <time>2024-08-11T12:26:32Z</time>
      </trkpt>
      <trkpt lat="44.9173" lon="6.5014">
        <ele>2001.2</ele>
        <time>2024-08-11T12:26:33Z</time>
      </trkpt>
      <trkpt lat="44.91731" lon="6.50138">
        <ele>2001.2</ele>
        <time>2024-08-11T12:26:34Z</time>
      </trkpt>
      <trkpt lat="44.91731" lon="6.50138">
        <ele>2001</ele>
        <time>2024-08-11T12:26:35Z</time>
      </trkpt>
      <trkpt lat="44.91733" lon="6.50136">
        <ele>2001</ele>
        <time>2024-08-11T12:26:36Z</time>
      </trkpt>
      <trkpt lat="44.91733" lon="6.50136">
        <ele>2000.6</ele>
        <time>2024-08-11T12:26:37Z</time>
      </trkpt>
      <trkpt lat="44.91735" lon="6.50134">
        <ele>2000.6</ele>
        <time>2024-08-11T12:26:38Z</time>
      </trkpt>
      <trkpt lat="44.91735" lon="6.50134">
        <ele>2000.4</ele>
        <time>2024-08-11T12:26:39Z</time>
      </trkpt>
      <trkpt lat="44.91736" lon="6.50131">
        <ele>2000.2</ele>
        <time>2024-08-11T12:26:40Z</time>
      </trkpt>
      <trkpt lat="44.91736" lon="6.50131">
        <ele>2000.2</ele>
        <time>2024-08-11T12:26:41Z</time>
      </trkpt>
      <trkpt lat="44.91739" lon="6.50129">
        <ele>2000</ele>
        <time>2024-08-11T12:26:42Z</time>
      </trkpt>
      <trkpt lat="44.91739" lon="6.50129">
        <ele>1999.8</ele>
        <time>2024-08-11T12:26:43Z</time>
      </trkpt>
      <trkpt lat="44.91741" lon="6.50127">
        <ele>1999.4</ele>
        <time>2024-08-11T12:26:44Z</time>
      </trkpt>
      <trkpt lat="44.91741" lon="6.50127">
        <ele>1999.4</ele>
        <time>2024-08-11T12:26:45Z</time>
      </trkpt>
      <trkpt lat="44.91743" lon="6.50126">
        <ele>1999.2</ele>
        <time>2024-08-11T12:26:46Z</time>
      </trkpt>
      <trkpt lat="44.91743" lon="6.50126">
        <ele>1999</ele>
        <time>2024-08-11T12:26:47Z</time>
      </trkpt>
      <trkpt lat="44.91745" lon="6.50124">
        <ele>1999</ele>
        <time>2024-08-11T12:26:48Z</time>
      </trkpt>
      <trkpt lat="44.91745" lon="6.50124">
        <ele>1998.8</ele>
        <time>2024-08-11T12:26:49Z</time>
      </trkpt>
      <trkpt lat="44.91746" lon="6.50123">
        <ele>1998.6</ele>
        <time>2024-08-11T12:26:50Z</time>
      </trkpt>
      <trkpt lat="44.91746" lon="6.50123">
        <ele>1998.4</ele>
        <time>2024-08-11T12:26:51Z</time>
      </trkpt>
      <trkpt lat="44.91748" lon="6.50121">
        <ele>1998.2</ele>
        <time>2024-08-11T12:26:52Z</time>
      </trkpt>
      <trkpt lat="44.91748" lon="6.50121">
        <ele>1998.2</ele>
        <time>2024-08-11T12:26:53Z</time>
      </trkpt>
      <trkpt lat="44.91749" lon="6.50119">
        <ele>1998</ele>
        <time>2024-08-11T12:26:54Z</time>
      </trkpt>
      <trkpt lat="44.91749" lon="6.50119">
        <ele>1997.8</ele>
        <time>2024-08-11T12:26:55Z</time>
      </trkpt>
      <trkpt lat="44.91751" lon="6.50117">
        <ele>1997.4</ele>
        <time>2024-08-11T12:26:56Z</time>
      </trkpt>
      <trkpt lat="44.91751" lon="6.50117">
        <ele>1997.4</ele>
        <time>2024-08-11T12:26:57Z</time>
      </trkpt>
      <trkpt lat="44.91753" lon="6.50115">
        <ele>1997.2</ele>
        <time>2024-08-11T12:26:58Z</time>
      </trkpt>
      <trkpt lat="44.91753" lon="6.50115">
        <ele>1996.8</ele>
        <time>2024-08-11T12:26:59Z</time>
      </trkpt>
      <trkpt lat="44.91755" lon="6.50112">
        <ele>1996.6</ele>
        <time>2024-08-11T12:27:00Z</time>
      </trkpt>
      <trkpt lat="44.91755" lon="6.50112">
        <ele>1996.4</ele>
        <time>2024-08-11T12:27:01Z</time>
      </trkpt>
      <trkpt lat="44.91756" lon="6.5011">
        <ele>1995.8</ele>
        <time>2024-08-11T12:27:02Z</time>
      </trkpt>
      <trkpt lat="44.91756" lon="6.5011">
        <ele>1995.8</ele>
        <time>2024-08-11T12:27:03Z</time>
      </trkpt>
      <trkpt lat="44.91757" lon="6.50108">
        <ele>1995.8</ele>
        <time>2024-08-11T12:27:04Z</time>
      </trkpt>
      <trkpt lat="44.91757" lon="6.50108">
        <ele>1995.8</ele>
        <time>2024-08-11T12:27:05Z</time>
      </trkpt>
      <trkpt lat="44.91759" lon="6.50106">
        <ele>1995.4</ele>
        <time>2024-08-11T12:27:06Z</time>
      </trkpt>
      <trkpt lat="44.91759" lon="6.50106">
        <ele>1995.2</ele>
        <time>2024-08-11T12:27:07Z</time>
      </trkpt>
      <trkpt lat="44.9176" lon="6.50104">
        <ele>1995</ele>
        <time>2024-08-11T12:27:08Z</time>
      </trkpt>
      <trkpt lat="44.9176" lon="6.50104">
        <ele>1994.6</ele>
        <time>2024-08-11T12:27:09Z</time>
      </trkpt>
      <trkpt lat="44.9176" lon="6.50104">
        <ele>1994.6</ele>
        <time>2024-08-11T12:27:10Z</time>
      </trkpt>
      <trkpt lat="44.91761" lon="6.50102">
        <ele>1994.6</ele>
        <time>2024-08-11T12:27:11Z</time>
      </trkpt>
      <trkpt lat="44.91761" lon="6.50102">
        <ele>1994.6</ele>
        <time>2024-08-11T12:27:12Z</time>
      </trkpt>
      <trkpt lat="44.91763" lon="6.501">
        <ele>1994.6</ele>
        <time>2024-08-11T12:27:13Z</time>
      </trkpt>
      <trkpt lat="44.91763" lon="6.501">
        <ele>1994.4</ele>
        <time>2024-08-11T12:27:14Z</time>
      </trkpt>
      <trkpt lat="44.91765" lon="6.50098">
        <ele>1994.2</ele>
        <time>2024-08-11T12:27:15Z</time>
      </trkpt>
      <trkpt lat="44.91765" lon="6.50098">
        <ele>1994</ele>
        <time>2024-08-11T12:27:16Z</time>
      </trkpt>
      <trkpt lat="44.91766" lon="6.50096">
        <ele>1993.8</ele>
        <time>2024-08-11T12:27:17Z</time>
      </trkpt>
      <trkpt lat="44.91766" lon="6.50096">
        <ele>1993.8</ele>
        <time>2024-08-11T12:27:18Z</time>
      </trkpt>
      <trkpt lat="44.91769" lon="6.50093">
        <ele>1993.6</ele>
        <time>2024-08-11T12:27:19Z</time>
      </trkpt>
      <trkpt lat="44.91769" lon="6.50093">
        <ele>1993.4</ele>
        <time>2024-08-11T12:27:20Z</time>
      </trkpt>
      <trkpt lat="44.91771" lon="6.50092">
        <ele>1993.2</ele>
        <time>2024-08-11T12:27:21Z</time>
      </trkpt>
      <trkpt lat="44.91771" lon="6.50092">
        <ele>1993.2</ele>
        <time>2024-08-11T12:27:22Z</time>
      </trkpt>
      <trkpt lat="44.91774" lon="6.50091">
        <ele>1993.2</ele>
        <time>2024-08-11T12:27:23Z</time>
      </trkpt>
      <trkpt lat="44.91774" lon="6.50091">
        <ele>1993.2</ele>
        <time>2024-08-11T12:27:24Z</time>
      </trkpt>
      <trkpt lat="44.91774" lon="6.50091">
        <ele>1993.2</ele>
        <time>2024-08-11T12:27:25Z</time>
      </trkpt>
      <trkpt lat="44.91776" lon="6.50087">
        <ele>1992.8</ele>
        <time>2024-08-11T12:27:26Z</time>
      </trkpt>
      <trkpt lat="44.91776" lon="6.50087">
        <ele>1992.4</ele>
        <time>2024-08-11T12:27:27Z</time>
      </trkpt>
      <trkpt lat="44.91778" lon="6.50086">
        <ele>1992.4</ele>
        <time>2024-08-11T12:27:28Z</time>
      </trkpt>
      <trkpt lat="44.91778" lon="6.50086">
        <ele>1992.4</ele>
        <time>2024-08-11T12:27:29Z</time>
      </trkpt>
      <trkpt lat="44.91779" lon="6.50084">
        <ele>1992.2</ele>
        <time>2024-08-11T12:27:30Z</time>
      </trkpt>
      <trkpt lat="44.91779" lon="6.50084">
        <ele>1992</ele>
        <time>2024-08-11T12:27:31Z</time>
      </trkpt>
      <trkpt lat="44.91781" lon="6.50081">
        <ele>1991.4</ele>
        <time>2024-08-11T12:27:32Z</time>
      </trkpt>
      <trkpt lat="44.91781" lon="6.50081">
        <ele>1991.2</ele>
        <time>2024-08-11T12:27:33Z</time>
      </trkpt>
      <trkpt lat="44.91783" lon="6.50079">
        <ele>1991.2</ele>
        <time>2024-08-11T12:27:34Z</time>
      </trkpt>
      <trkpt lat="44.91783" lon="6.50079">
        <ele>1991</ele>
        <time>2024-08-11T12:27:35Z</time>
      </trkpt>
      <trkpt lat="44.91785" lon="6.50077">
        <ele>1990.6</ele>
        <time>2024-08-11T12:27:36Z</time>
      </trkpt>
      <trkpt lat="44.91785" lon="6.50077">
        <ele>1990.6</ele>
        <time>2024-08-11T12:27:37Z</time>
      </trkpt>
      <trkpt lat="44.91787" lon="6.50076">
        <ele>1990.6</ele>
        <time>2024-08-11T12:27:38Z</time>
      </trkpt>
      <trkpt lat="44.91787" lon="6.50076">
        <ele>1990.4</ele>
        <time>2024-08-11T12:27:39Z</time>
      </trkpt>
      <trkpt lat="44.9179" lon="6.50074">
        <ele>1990</ele>
        <time>2024-08-11T12:27:40Z</time>
      </trkpt>
      <trkpt lat="44.9179" lon="6.50074">
        <ele>1990</ele>
        <time>2024-08-11T12:27:41Z</time>
      </trkpt>
      <trkpt lat="44.91792" lon="6.50072">
        <ele>1989.8</ele>
        <time>2024-08-11T12:27:42Z</time>
      </trkpt>
      <trkpt lat="44.91792" lon="6.50072">
        <ele>1989.6</ele>
        <time>2024-08-11T12:27:43Z</time>
      </trkpt>
      <trkpt lat="44.91792" lon="6.50072">
        <ele>1989.2</ele>
        <time>2024-08-11T12:27:44Z</time>
      </trkpt>
      <trkpt lat="44.91792" lon="6.50072">
        <ele>1989</ele>
        <time>2024-08-11T12:27:45Z</time>
      </trkpt>
      <trkpt lat="44.91792" lon="6.50072">
        <ele>1989</ele>
        <time>2024-08-11T12:27:46Z</time>
      </trkpt>
      <trkpt lat="44.91792" lon="6.50072">
        <ele>1988.8</ele>
        <time>2024-08-11T12:27:47Z</time>
      </trkpt>
      <trkpt lat="44.91792" lon="6.50072">
        <ele>1988.6</ele>
        <time>2024-08-11T12:27:48Z</time>
      </trkpt>
      <trkpt lat="44.91792" lon="6.50072">
        <ele>1988.4</ele>
        <time>2024-08-11T12:27:49Z</time>
      </trkpt>
      <trkpt lat="44.9179" lon="6.50071">
        <ele>1988.2</ele>
        <time>2024-08-11T12:27:50Z</time>
      </trkpt>
      <trkpt lat="44.9179" lon="6.50071">
        <ele>1988</ele>
        <time>2024-08-11T12:27:51Z</time>
      </trkpt>
      <trkpt lat="44.91788" lon="6.50071">
        <ele>1987.4</ele>
        <time>2024-08-11T12:27:52Z</time>
      </trkpt>
      <trkpt lat="44.91788" lon="6.50071">
        <ele>1987</ele>
        <time>2024-08-11T12:27:53Z</time>
      </trkpt>
      <trkpt lat="44.91786" lon="6.50071">
        <ele>1986.8</ele>
        <time>2024-08-11T12:27:54Z</time>
      </trkpt>
      <trkpt lat="44.91786" lon="6.50071">
        <ele>1986.4</ele>
        <time>2024-08-11T12:27:55Z</time>
      </trkpt>
      <trkpt lat="44.91786" lon="6.50071">
        <ele>1986</ele>
        <time>2024-08-11T12:27:56Z</time>
      </trkpt>
      <trkpt lat="44.91786" lon="6.50071">
        <ele>1985.8</ele>
        <time>2024-08-11T12:27:57Z</time>
      </trkpt>
      <trkpt lat="44.91786" lon="6.50071">
        <ele>1985.6</ele>
        <time>2024-08-11T12:27:58Z</time>
      </trkpt>
      <trkpt lat="44.91784" lon="6.50069">
        <ele>1985.2</ele>
        <time>2024-08-11T12:27:59Z</time>
      </trkpt>
      <trkpt lat="44.91784" lon="6.50069">
        <ele>1985</ele>
        <time>2024-08-11T12:28:00Z</time>
      </trkpt>
      <trkpt lat="44.91784" lon="6.50069">
        <ele>1984.8</ele>
        <time>2024-08-11T12:28:01Z</time>
      </trkpt>
      <trkpt lat="44.91784" lon="6.50069">
        <ele>1984</ele>
        <time>2024-08-11T12:28:02Z</time>
      </trkpt>
      <trkpt lat="44.91782" lon="6.50068">
        <ele>1984</ele>
        <time>2024-08-11T12:28:03Z</time>
      </trkpt>
      <trkpt lat="44.91782" lon="6.50068">
        <ele>1983.8</ele>
        <time>2024-08-11T12:28:04Z</time>
      </trkpt>
      <trkpt lat="44.91779" lon="6.50067">
        <ele>1983.4</ele>
        <time>2024-08-11T12:28:05Z</time>
      </trkpt>
      <trkpt lat="44.91779" lon="6.50067">
        <ele>1983.4</ele>
        <time>2024-08-11T12:28:06Z</time>
      </trkpt>
      <trkpt lat="44.91776" lon="6.50067">
        <ele>1983.2</ele>
        <time>2024-08-11T12:28:07Z</time>
      </trkpt>
      <trkpt lat="44.91776" lon="6.50067">
        <ele>1982.8</ele>
        <time>2024-08-11T12:28:08Z</time>
      </trkpt>
      <trkpt lat="44.91774" lon="6.50068">
        <ele>1982.4</ele>
        <time>2024-08-11T12:28:09Z</time>
      </trkpt>
      <trkpt lat="44.91774" lon="6.50068">
        <ele>1982.2</ele>
        <time>2024-08-11T12:28:10Z</time>
      </trkpt>
      <trkpt lat="44.91772" lon="6.50068">
        <ele>1982.2</ele>
        <time>2024-08-11T12:28:11Z</time>
      </trkpt>
      <trkpt lat="44.91772" lon="6.50068">
        <ele>1982</ele>
        <time>2024-08-11T12:28:12Z</time>
      </trkpt>
      <trkpt lat="44.9177" lon="6.50068">
        <ele>1981.6</ele>
        <time>2024-08-11T12:28:13Z</time>
      </trkpt>
      <trkpt lat="44.9177" lon="6.50068">
        <ele>1981</ele>
        <time>2024-08-11T12:28:14Z</time>
      </trkpt>
      <trkpt lat="44.91767" lon="6.50069">
        <ele>1980.6</ele>
        <time>2024-08-11T12:28:15Z</time>
      </trkpt>
      <trkpt lat="44.91767" lon="6.50069">
        <ele>1980.4</ele>
        <time>2024-08-11T12:28:16Z</time>
      </trkpt>
      <trkpt lat="44.91765" lon="6.50068">
        <ele>1979.8</ele>
        <time>2024-08-11T12:28:17Z</time>
      </trkpt>
      <trkpt lat="44.91765" lon="6.50068">
        <ele>1979.6</ele>
        <time>2024-08-11T12:28:18Z</time>
      </trkpt>
      <trkpt lat="44.91763" lon="6.50068">
        <ele>1979.2</ele>
        <time>2024-08-11T12:28:19Z</time>
      </trkpt>
      <trkpt lat="44.91763" lon="6.50068">
        <ele>1979</ele>
        <time>2024-08-11T12:28:20Z</time>
      </trkpt>
      <trkpt lat="44.91761" lon="6.50069">
        <ele>1978.8</ele>
        <time>2024-08-11T12:28:21Z</time>
      </trkpt>
      <trkpt lat="44.91761" lon="6.50069">
        <ele>1978.6</ele>
        <time>2024-08-11T12:28:22Z</time>
      </trkpt>
      <trkpt lat="44.91761" lon="6.50069">
        <ele>1978.6</ele>
        <time>2024-08-11T12:28:23Z</time>
      </trkpt>
      <trkpt lat="44.91759" lon="6.50071">
        <ele>1978.4</ele>
        <time>2024-08-11T12:28:24Z</time>
      </trkpt>
      <trkpt lat="44.91759" lon="6.50071">
        <ele>1978.4</ele>
        <time>2024-08-11T12:28:25Z</time>
      </trkpt>
      <trkpt lat="44.91757" lon="6.5007">
        <ele>1978.2</ele>
        <time>2024-08-11T12:28:26Z</time>
      </trkpt>
      <trkpt lat="44.91757" lon="6.5007">
        <ele>1978</ele>
        <time>2024-08-11T12:28:27Z</time>
      </trkpt>
      <trkpt lat="44.91756" lon="6.50069">
        <ele>1978</ele>
        <time>2024-08-11T12:28:28Z</time>
      </trkpt>
      <trkpt lat="44.91756" lon="6.50069">
        <ele>1978</ele>
        <time>2024-08-11T12:28:29Z</time>
      </trkpt>
      <trkpt lat="44.91756" lon="6.50069">
        <ele>1977.4</ele>
        <time>2024-08-11T12:28:30Z</time>
      </trkpt>
      <trkpt lat="44.91756" lon="6.50069">
        <ele>1977.4</ele>
        <time>2024-08-11T12:28:31Z</time>
      </trkpt>
      <trkpt lat="44.91756" lon="6.50069">
        <ele>1977.6</ele>
        <time>2024-08-11T12:28:32Z</time>
      </trkpt>
      <trkpt lat="44.91756" lon="6.50069">
        <ele>1977.6</ele>
        <time>2024-08-11T12:28:33Z</time>
      </trkpt>
      <trkpt lat="44.91756" lon="6.50069">
        <ele>1977.6</ele>
        <time>2024-08-11T12:28:34Z</time>
      </trkpt>
      <trkpt lat="44.91756" lon="6.50069">
        <ele>1977.4</ele>
        <time>2024-08-11T12:28:35Z</time>
      </trkpt>
      <trkpt lat="44.91756" lon="6.50069">
        <ele>1977.4</ele>
        <time>2024-08-11T12:28:36Z</time>
      </trkpt>
      <trkpt lat="44.91756" lon="6.50069">
        <ele>1977.6</ele>
        <time>2024-08-11T12:28:37Z</time>
      </trkpt>
      <trkpt lat="44.91756" lon="6.50069">
        <ele>1977.6</ele>
        <time>2024-08-11T12:28:38Z</time>
      </trkpt>
      <trkpt lat="44.91756" lon="6.50069">
        <ele>1977.6</ele>
        <time>2024-08-11T12:28:39Z</time>
      </trkpt>
      <trkpt lat="44.91756" lon="6.50069">
        <ele>1977.6</ele>
        <time>2024-08-11T12:28:40Z</time>
      </trkpt>
      <trkpt lat="44.91756" lon="6.50069">
        <ele>1977.8</ele>
        <time>2024-08-11T12:28:41Z</time>
      </trkpt>
      <trkpt lat="44.91756" lon="6.50069">
        <ele>1977.8</ele>
        <time>2024-08-11T12:28:42Z</time>
      </trkpt>
      <trkpt lat="44.91756" lon="6.50069">
        <ele>1977.6</ele>
        <time>2024-08-11T12:28:43Z</time>
      </trkpt>
      <trkpt lat="44.91756" lon="6.50069">
        <ele>1977.4</ele>
        <time>2024-08-11T12:28:44Z</time>
      </trkpt>
      <trkpt lat="44.91756" lon="6.50069">
        <ele>1977.4</ele>
        <time>2024-08-11T12:28:45Z</time>
      </trkpt>
      <trkpt lat="44.91756" lon="6.50069">
        <ele>1977.2</ele>
        <time>2024-08-11T12:28:46Z</time>
      </trkpt>
      <trkpt lat="44.91756" lon="6.50069">
        <ele>1977.2</ele>
        <time>2024-08-11T12:28:47Z</time>
      </trkpt>
      <trkpt lat="44.91756" lon="6.50069">
        <ele>1977</ele>
        <time>2024-08-11T12:28:48Z</time>
      </trkpt>
      <trkpt lat="44.91753" lon="6.50069">
        <ele>1976.4</ele>
        <time>2024-08-11T12:28:49Z</time>
      </trkpt>
      <trkpt lat="44.91753" lon="6.50069">
        <ele>1976.2</ele>
        <time>2024-08-11T12:28:50Z</time>
      </trkpt>
      <trkpt lat="44.91751" lon="6.50071">
        <ele>1976.2</ele>
        <time>2024-08-11T12:28:51Z</time>
      </trkpt>
      <trkpt lat="44.91751" lon="6.50071">
        <ele>1976</ele>
        <time>2024-08-11T12:28:52Z</time>
      </trkpt>
      <trkpt lat="44.91751" lon="6.50071">
        <ele>1975.8</ele>
        <time>2024-08-11T12:28:53Z</time>
      </trkpt>
      <trkpt lat="44.91751" lon="6.50071">
        <ele>1975.8</ele>
        <time>2024-08-11T12:28:54Z</time>
      </trkpt>
      <trkpt lat="44.91751" lon="6.50071">
        <ele>1975.8</ele>
        <time>2024-08-11T12:28:55Z</time>
      </trkpt>
      <trkpt lat="44.91751" lon="6.50071">
        <ele>1975.4</ele>
        <time>2024-08-11T12:28:56Z</time>
      </trkpt>
      <trkpt lat="44.91751" lon="6.50071">
        <ele>1975.4</ele>
        <time>2024-08-11T12:28:57Z</time>
      </trkpt>
      <trkpt lat="44.91751" lon="6.50071">
        <ele>1975.4</ele>
        <time>2024-08-11T12:28:58Z</time>
      </trkpt>
      <trkpt lat="44.91751" lon="6.50071">
        <ele>1975.4</ele>
        <time>2024-08-11T12:28:59Z</time>
      </trkpt>
      <trkpt lat="44.91751" lon="6.50071">
        <ele>1975.6</ele>
        <time>2024-08-11T12:29:00Z</time>
      </trkpt>
      <trkpt lat="44.91751" lon="6.50071">
        <ele>1975.6</ele>
        <time>2024-08-11T12:29:01Z</time>
      </trkpt>
      <trkpt lat="44.91751" lon="6.50071">
        <ele>1975.4</ele>
        <time>2024-08-11T12:29:02Z</time>
      </trkpt>
      <trkpt lat="44.91751" lon="6.50071">
        <ele>1975.4</ele>
        <time>2024-08-11T12:29:03Z</time>
      </trkpt>
      <trkpt lat="44.91751" lon="6.50071">
        <ele>1975.2</ele>
        <time>2024-08-11T12:29:04Z</time>
      </trkpt>
      <trkpt lat="44.91751" lon="6.50071">
        <ele>1975</ele>
        <time>2024-08-11T12:29:05Z</time>
      </trkpt>
      <trkpt lat="44.91751" lon="6.50071">
        <ele>1975</ele>
        <time>2024-08-11T12:29:06Z</time>
      </trkpt>
      <trkpt lat="44.91751" lon="6.50071">
        <ele>1975</ele>
        <time>2024-08-11T12:29:07Z</time>
      </trkpt>
      <trkpt lat="44.91751" lon="6.50071">
        <ele>1975</ele>
        <time>2024-08-11T12:29:08Z</time>
      </trkpt>
      <trkpt lat="44.91751" lon="6.50071">
        <ele>1975</ele>
        <time>2024-08-11T12:29:09Z</time>
      </trkpt>
      <trkpt lat="44.91751" lon="6.50071">
        <ele>1975</ele>
        <time>2024-08-11T12:29:10Z</time>
      </trkpt>
      <trkpt lat="44.91751" lon="6.50071">
        <ele>1975</ele>
        <time>2024-08-11T12:29:11Z</time>
      </trkpt>
      <trkpt lat="44.91751" lon="6.50071">
        <ele>1974.8</ele>
        <time>2024-08-11T12:29:12Z</time>
      </trkpt>
      <trkpt lat="44.91751" lon="6.50071">
        <ele>1974.8</ele>
        <time>2024-08-11T12:29:13Z</time>
      </trkpt>
      <trkpt lat="44.91751" lon="6.50071">
        <ele>1974.8</ele>
        <time>2024-08-11T12:29:14Z</time>
      </trkpt>
      <trkpt lat="44.91751" lon="6.50071">
        <ele>1974.8</ele>
        <time>2024-08-11T12:29:15Z</time>
      </trkpt>
      <trkpt lat="44.91751" lon="6.50071">
        <ele>1974.8</ele>
        <time>2024-08-11T12:29:16Z</time>
      </trkpt>
      <trkpt lat="44.91751" lon="6.50071">
        <ele>1974.8</ele>
        <time>2024-08-11T12:29:17Z</time>
      </trkpt>
      <trkpt lat="44.91751" lon="6.50071">
        <ele>1974.8</ele>
        <time>2024-08-11T12:29:18Z</time>
      </trkpt>
      <trkpt lat="44.91751" lon="6.50071">
        <ele>1974.8</ele>
        <time>2024-08-11T12:29:19Z</time>
      </trkpt>
      <trkpt lat="44.91751" lon="6.50071">
        <ele>1974.8</ele>
        <time>2024-08-11T12:29:20Z</time>
      </trkpt>
      <trkpt lat="44.91751" lon="6.50071">
        <ele>1975</ele>
        <time>2024-08-11T12:29:21Z</time>
      </trkpt>
      <trkpt lat="44.91751" lon="6.50071">
        <ele>1975</ele>
        <time>2024-08-11T12:29:22Z</time>
      </trkpt>
      <trkpt lat="44.91751" lon="6.50071">
        <ele>1975</ele>
        <time>2024-08-11T12:29:23Z</time>
      </trkpt>
      <trkpt lat="44.91751" lon="6.50071">
        <ele>1974.8</ele>
        <time>2024-08-11T12:29:24Z</time>
      </trkpt>
      <trkpt lat="44.91751" lon="6.50071">
        <ele>1974.8</ele>
        <time>2024-08-11T12:29:25Z</time>
      </trkpt>
      <trkpt lat="44.91751" lon="6.50071">
        <ele>1975</ele>
        <time>2024-08-11T12:29:26Z</time>
      </trkpt>
      <trkpt lat="44.91751" lon="6.50071">
        <ele>1975</ele>
        <time>2024-08-11T12:29:27Z</time>
      </trkpt>
      <trkpt lat="44.91751" lon="6.50071">
        <ele>1975.2</ele>
        <time>2024-08-11T12:29:28Z</time>
      </trkpt>
      <trkpt lat="44.91751" lon="6.50071">
        <ele>1975</ele>
        <time>2024-08-11T12:29:29Z</time>
      </trkpt>
      <trkpt lat="44.91751" lon="6.50071">
        <ele>1975</ele>
        <time>2024-08-11T12:29:30Z</time>
      </trkpt>
      <trkpt lat="44.91751" lon="6.50071">
        <ele>1975</ele>
        <time>2024-08-11T12:29:31Z</time>
      </trkpt>
      <trkpt lat="44.91751" lon="6.50071">
        <ele>1974.8</ele>
        <time>2024-08-11T12:29:32Z</time>
      </trkpt>
      <trkpt lat="44.91751" lon="6.50071">
        <ele>1974.6</ele>
        <time>2024-08-11T12:29:33Z</time>
      </trkpt>
      <trkpt lat="44.91751" lon="6.50071">
        <ele>1974.2</ele>
        <time>2024-08-11T12:29:34Z</time>
      </trkpt>
      <trkpt lat="44.91748" lon="6.50072">
        <ele>1973.6</ele>
        <time>2024-08-11T12:29:35Z</time>
      </trkpt>
      <trkpt lat="44.91748" lon="6.50072">
        <ele>1973.6</ele>
        <time>2024-08-11T12:29:36Z</time>
      </trkpt>
      <trkpt lat="44.91745" lon="6.50074">
        <ele>1973.4</ele>
        <time>2024-08-11T12:29:37Z</time>
      </trkpt>
      <trkpt lat="44.91745" lon="6.50074">
        <ele>1973.4</ele>
        <time>2024-08-11T12:29:38Z</time>
      </trkpt>
      <trkpt lat="44.91743" lon="6.50074">
        <ele>1973.2</ele>
        <time>2024-08-11T12:29:39Z</time>
      </trkpt>
      <trkpt lat="44.91743" lon="6.50074">
        <ele>1972.8</ele>
        <time>2024-08-11T12:29:40Z</time>
      </trkpt>
      <trkpt lat="44.91741" lon="6.50074">
        <ele>1972.6</ele>
        <time>2024-08-11T12:29:41Z</time>
      </trkpt>
      <trkpt lat="44.91741" lon="6.50074">
        <ele>1972.6</ele>
        <time>2024-08-11T12:29:42Z</time>
      </trkpt>
      <trkpt lat="44.91741" lon="6.50074">
        <ele>1972.4</ele>
        <time>2024-08-11T12:29:43Z</time>
      </trkpt>
      <trkpt lat="44.9174" lon="6.50071">
        <ele>1972</ele>
        <time>2024-08-11T12:29:44Z</time>
      </trkpt>
      <trkpt lat="44.9174" lon="6.50071">
        <ele>1971.4</ele>
        <time>2024-08-11T12:29:45Z</time>
      </trkpt>
      <trkpt lat="44.9174" lon="6.50071">
        <ele>1971</ele>
        <time>2024-08-11T12:29:46Z</time>
      </trkpt>
      <trkpt lat="44.91737" lon="6.5007">
        <ele>1971</ele>
        <time>2024-08-11T12:29:47Z</time>
      </trkpt>
      <trkpt lat="44.91737" lon="6.5007">
        <ele>1970.8</ele>
        <time>2024-08-11T12:29:48Z</time>
      </trkpt>
      <trkpt lat="44.91735" lon="6.5007">
        <ele>1970.4</ele>
        <time>2024-08-11T12:29:49Z</time>
      </trkpt>
      <trkpt lat="44.91735" lon="6.5007">
        <ele>1969.8</ele>
        <time>2024-08-11T12:29:50Z</time>
      </trkpt>
      <trkpt lat="44.91735" lon="6.5007">
        <ele>1969.6</ele>
        <time>2024-08-11T12:29:51Z</time>
      </trkpt>
      <trkpt lat="44.91733" lon="6.50068">
        <ele>1969.2</ele>
        <time>2024-08-11T12:29:52Z</time>
      </trkpt>
      <trkpt lat="44.91733" lon="6.50068">
        <ele>1968.6</ele>
        <time>2024-08-11T12:29:53Z</time>
      </trkpt>
      <trkpt lat="44.91731" lon="6.50068">
        <ele>1968.2</ele>
        <time>2024-08-11T12:29:54Z</time>
      </trkpt>
      <trkpt lat="44.91731" lon="6.50068">
        <ele>1968</ele>
        <time>2024-08-11T12:29:55Z</time>
      </trkpt>
      <trkpt lat="44.91729" lon="6.50068">
        <ele>1968</ele>
        <time>2024-08-11T12:29:56Z</time>
      </trkpt>
      <trkpt lat="44.91729" lon="6.50068">
        <ele>1967.6</ele>
        <time>2024-08-11T12:29:57Z</time>
      </trkpt>
      <trkpt lat="44.91729" lon="6.50068">
        <ele>1967.4</ele>
        <time>2024-08-11T12:29:58Z</time>
      </trkpt>
      <trkpt lat="44.91727" lon="6.50069">
        <ele>1967.4</ele>
        <time>2024-08-11T12:29:59Z</time>
      </trkpt>
      <trkpt lat="44.91727" lon="6.50069">
        <ele>1966.8</ele>
        <time>2024-08-11T12:30:00Z</time>
      </trkpt>
      <trkpt lat="44.91727" lon="6.50069">
        <ele>1966.6</ele>
        <time>2024-08-11T12:30:01Z</time>
      </trkpt>
      <trkpt lat="44.91725" lon="6.5007">
        <ele>1966.2</ele>
        <time>2024-08-11T12:30:02Z</time>
      </trkpt>
      <trkpt lat="44.91725" lon="6.5007">
        <ele>1966.2</ele>
        <time>2024-08-11T12:30:03Z</time>
      </trkpt>
      <trkpt lat="44.91725" lon="6.5007">
        <ele>1965.8</ele>
        <time>2024-08-11T12:30:04Z</time>
      </trkpt>
      <trkpt lat="44.91723" lon="6.50072">
        <ele>1965.8</ele>
        <time>2024-08-11T12:30:05Z</time>
      </trkpt>
      <trkpt lat="44.91723" lon="6.50072">
        <ele>1965.6</ele>
        <time>2024-08-11T12:30:06Z</time>
      </trkpt>
      <trkpt lat="44.91721" lon="6.50072">
        <ele>1965.4</ele>
        <time>2024-08-11T12:30:07Z</time>
      </trkpt>
      <trkpt lat="44.91721" lon="6.50072">
        <ele>1965</ele>
        <time>2024-08-11T12:30:08Z</time>
      </trkpt>
      <trkpt lat="44.91721" lon="6.50072">
        <ele>1964.8</ele>
        <time>2024-08-11T12:30:09Z</time>
      </trkpt>
      <trkpt lat="44.91719" lon="6.50072">
        <ele>1964.4</ele>
        <time>2024-08-11T12:30:10Z</time>
      </trkpt>
      <trkpt lat="44.91719" lon="6.50072">
        <ele>1964</ele>
        <time>2024-08-11T12:30:11Z</time>
      </trkpt>
      <trkpt lat="44.91719" lon="6.50072">
        <ele>1963.8</ele>
        <time>2024-08-11T12:30:12Z</time>
      </trkpt>
      <trkpt lat="44.91717" lon="6.50072">
        <ele>1963.4</ele>
        <time>2024-08-11T12:30:13Z</time>
      </trkpt>
      <trkpt lat="44.91717" lon="6.50072">
        <ele>1963.2</ele>
        <time>2024-08-11T12:30:14Z</time>
      </trkpt>
      <trkpt lat="44.91715" lon="6.50072">
        <ele>1963</ele>
        <time>2024-08-11T12:30:15Z</time>
      </trkpt>
      <trkpt lat="44.91715" lon="6.50072">
        <ele>1962.8</ele>
        <time>2024-08-11T12:30:16Z</time>
      </trkpt>
      <trkpt lat="44.91715" lon="6.50072">
        <ele>1962.6</ele>
        <time>2024-08-11T12:30:17Z</time>
      </trkpt>
      <trkpt lat="44.91712" lon="6.5007">
        <ele>1962.4</ele>
        <time>2024-08-11T12:30:18Z</time>
      </trkpt>
      <trkpt lat="44.91712" lon="6.5007">
        <ele>1962</ele>
        <time>2024-08-11T12:30:19Z</time>
      </trkpt>
      <trkpt lat="44.91712" lon="6.5007">
        <ele>1961.4</ele>
        <time>2024-08-11T12:30:20Z</time>
      </trkpt>
      <trkpt lat="44.91709" lon="6.5007">
        <ele>1961</ele>
        <time>2024-08-11T12:30:21Z</time>
      </trkpt>
      <trkpt lat="44.91709" lon="6.5007">
        <ele>1960.6</ele>
        <time>2024-08-11T12:30:22Z</time>
      </trkpt>
      <trkpt lat="44.91707" lon="6.5007">
        <ele>1960.6</ele>
        <time>2024-08-11T12:30:23Z</time>
      </trkpt>
      <trkpt lat="44.91707" lon="6.5007">
        <ele>1960.6</ele>
        <time>2024-08-11T12:30:24Z</time>
      </trkpt>
      <trkpt lat="44.91707" lon="6.5007">
        <ele>1960.2</ele>
        <time>2024-08-11T12:30:25Z</time>
      </trkpt>
      <trkpt lat="44.91705" lon="6.5007">
        <ele>1959.8</ele>
        <time>2024-08-11T12:30:26Z</time>
      </trkpt>
      <trkpt lat="44.91705" lon="6.5007">
        <ele>1959.4</ele>
        <time>2024-08-11T12:30:27Z</time>
      </trkpt>
      <trkpt lat="44.91703" lon="6.50071">
        <ele>1959.4</ele>
        <time>2024-08-11T12:30:28Z</time>
      </trkpt>
      <trkpt lat="44.91703" lon="6.50071">
        <ele>1959</ele>
        <time>2024-08-11T12:30:29Z</time>
      </trkpt>
      <trkpt lat="44.91701" lon="6.50072">
        <ele>1958.8</ele>
        <time>2024-08-11T12:30:30Z</time>
      </trkpt>
      <trkpt lat="44.91701" lon="6.50072">
        <ele>1958.4</ele>
        <time>2024-08-11T12:30:31Z</time>
      </trkpt>
      <trkpt lat="44.91699" lon="6.50072">
        <ele>1958.2</ele>
        <time>2024-08-11T12:30:32Z</time>
      </trkpt>
      <trkpt lat="44.91699" lon="6.50072">
        <ele>1958</ele>
        <time>2024-08-11T12:30:33Z</time>
      </trkpt>
      <trkpt lat="44.91696" lon="6.50073">
        <ele>1958</ele>
        <time>2024-08-11T12:30:34Z</time>
      </trkpt>
      <trkpt lat="44.91696" lon="6.50073">
        <ele>1957.6</ele>
        <time>2024-08-11T12:30:35Z</time>
      </trkpt>
      <trkpt lat="44.91696" lon="6.50073">
        <ele>1957.4</ele>
        <time>2024-08-11T12:30:36Z</time>
      </trkpt>
      <trkpt lat="44.91696" lon="6.50073">
        <ele>1957.4</ele>
        <time>2024-08-11T12:30:37Z</time>
      </trkpt>
      <trkpt lat="44.91693" lon="6.50073">
        <ele>1957</ele>
        <time>2024-08-11T12:30:38Z</time>
      </trkpt>
      <trkpt lat="44.91693" lon="6.50073">
        <ele>1957</ele>
        <time>2024-08-11T12:30:39Z</time>
      </trkpt>
      <trkpt lat="44.91693" lon="6.50073">
        <ele>1957</ele>
        <time>2024-08-11T12:30:40Z</time>
      </trkpt>
      <trkpt lat="44.91691" lon="6.50073">
        <ele>1956.6</ele>
        <time>2024-08-11T12:30:41Z</time>
      </trkpt>
      <trkpt lat="44.91691" lon="6.50073">
        <ele>1956.6</ele>
        <time>2024-08-11T12:30:42Z</time>
      </trkpt>
      <trkpt lat="44.91689" lon="6.50073">
        <ele>1956.4</ele>
        <time>2024-08-11T12:30:43Z</time>
      </trkpt>
      <trkpt lat="44.91689" lon="6.50073">
        <ele>1956</ele>
        <time>2024-08-11T12:30:44Z</time>
      </trkpt>
      <trkpt lat="44.91687" lon="6.50073">
        <ele>1955.8</ele>
        <time>2024-08-11T12:30:45Z</time>
      </trkpt>
      <trkpt lat="44.91687" lon="6.50073">
        <ele>1955.4</ele>
        <time>2024-08-11T12:30:46Z</time>
      </trkpt>
      <trkpt lat="44.91685" lon="6.50075">
        <ele>1955.2</ele>
        <time>2024-08-11T12:30:47Z</time>
      </trkpt>
      <trkpt lat="44.91685" lon="6.50075">
        <ele>1955</ele>
        <time>2024-08-11T12:30:48Z</time>
      </trkpt>
      <trkpt lat="44.91685" lon="6.50075">
        <ele>1954.8</ele>
        <time>2024-08-11T12:30:49Z</time>
      </trkpt>
      <trkpt lat="44.91683" lon="6.50076">
        <ele>1954.6</ele>
        <time>2024-08-11T12:30:50Z</time>
      </trkpt>
      <trkpt lat="44.91683" lon="6.50076">
        <ele>1954.4</ele>
        <time>2024-08-11T12:30:51Z</time>
      </trkpt>
      <trkpt lat="44.91683" lon="6.50076">
        <ele>1954</ele>
        <time>2024-08-11T12:30:52Z</time>
      </trkpt>
      <trkpt lat="44.91681" lon="6.50075">
        <ele>1953.8</ele>
        <time>2024-08-11T12:30:53Z</time>
      </trkpt>
      <trkpt lat="44.91681" lon="6.50075">
        <ele>1953.2</ele>
        <time>2024-08-11T12:30:54Z</time>
      </trkpt>
      <trkpt lat="44.91681" lon="6.50075">
        <ele>1953</ele>
        <time>2024-08-11T12:30:55Z</time>
      </trkpt>
      <trkpt lat="44.91679" lon="6.50078">
        <ele>1953</ele>
        <time>2024-08-11T12:30:56Z</time>
      </trkpt>
      <trkpt lat="44.91679" lon="6.50078">
        <ele>1952.8</ele>
        <time>2024-08-11T12:30:57Z</time>
      </trkpt>
      <trkpt lat="44.91679" lon="6.50078">
        <ele>1952.6</ele>
        <time>2024-08-11T12:30:58Z</time>
      </trkpt>
      <trkpt lat="44.91679" lon="6.50078">
        <ele>1952.2</ele>
        <time>2024-08-11T12:30:59Z</time>
      </trkpt>
      <trkpt lat="44.91677" lon="6.50077">
        <ele>1952.2</ele>
        <time>2024-08-11T12:31:00Z</time>
      </trkpt>
      <trkpt lat="44.91677" lon="6.50077">
        <ele>1952</ele>
        <time>2024-08-11T12:31:01Z</time>
      </trkpt>
      <trkpt lat="44.91677" lon="6.50077">
        <ele>1951.2</ele>
        <time>2024-08-11T12:31:02Z</time>
      </trkpt>
      <trkpt lat="44.91675" lon="6.50079">
        <ele>1951</ele>
        <time>2024-08-11T12:31:03Z</time>
      </trkpt>
      <trkpt lat="44.91675" lon="6.50079">
        <ele>1950.6</ele>
        <time>2024-08-11T12:31:04Z</time>
      </trkpt>
      <trkpt lat="44.91675" lon="6.50079">
        <ele>1950.6</ele>
        <time>2024-08-11T12:31:05Z</time>
      </trkpt>
      <trkpt lat="44.91673" lon="6.50077">
        <ele>1950.4</ele>
        <time>2024-08-11T12:31:06Z</time>
      </trkpt>
      <trkpt lat="44.91673" lon="6.50077">
        <ele>1950</ele>
        <time>2024-08-11T12:31:07Z</time>
      </trkpt>
      <trkpt lat="44.91673" lon="6.50077">
        <ele>1949.8</ele>
        <time>2024-08-11T12:31:08Z</time>
      </trkpt>
      <trkpt lat="44.91671" lon="6.50075">
        <ele>1949.4</ele>
        <time>2024-08-11T12:31:09Z</time>
      </trkpt>
      <trkpt lat="44.91671" lon="6.50075">
        <ele>1949.4</ele>
        <time>2024-08-11T12:31:10Z</time>
      </trkpt>
      <trkpt lat="44.91671" lon="6.50075">
        <ele>1949</ele>
        <time>2024-08-11T12:31:11Z</time>
      </trkpt>
      <trkpt lat="44.91671" lon="6.50072">
        <ele>1948.2</ele>
        <time>2024-08-11T12:31:12Z</time>
      </trkpt>
      <trkpt lat="44.91671" lon="6.50072">
        <ele>1948</ele>
        <time>2024-08-11T12:31:13Z</time>
      </trkpt>
      <trkpt lat="44.91671" lon="6.50072">
        <ele>1948</ele>
        <time>2024-08-11T12:31:14Z</time>
      </trkpt>
      <trkpt lat="44.91671" lon="6.50072">
        <ele>1948</ele>
        <time>2024-08-11T12:31:15Z</time>
      </trkpt>
      <trkpt lat="44.91673" lon="6.50071">
        <ele>1947.6</ele>
        <time>2024-08-11T12:31:16Z</time>
      </trkpt>
      <trkpt lat="44.91673" lon="6.50071">
        <ele>1947.2</ele>
        <time>2024-08-11T12:31:17Z</time>
      </trkpt>
      <trkpt lat="44.91673" lon="6.50071">
        <ele>1947</ele>
        <time>2024-08-11T12:31:18Z</time>
      </trkpt>
      <trkpt lat="44.91673" lon="6.50071">
        <ele>1947</ele>
        <time>2024-08-11T12:31:19Z</time>
      </trkpt>
      <trkpt lat="44.91673" lon="6.50067">
        <ele>1946.8</ele>
        <time>2024-08-11T12:31:20Z</time>
      </trkpt>
      <trkpt lat="44.91673" lon="6.50067">
        <ele>1946.2</ele>
        <time>2024-08-11T12:31:21Z</time>
      </trkpt>
      <trkpt lat="44.91673" lon="6.50067">
        <ele>1946</ele>
        <time>2024-08-11T12:31:22Z</time>
      </trkpt>
      <trkpt lat="44.91673" lon="6.50064">
        <ele>1945.4</ele>
        <time>2024-08-11T12:31:23Z</time>
      </trkpt>
      <trkpt lat="44.91673" lon="6.50064">
        <ele>1945</ele>
        <time>2024-08-11T12:31:24Z</time>
      </trkpt>
      <trkpt lat="44.91673" lon="6.50064">
        <ele>1944.8</ele>
        <time>2024-08-11T12:31:25Z</time>
      </trkpt>
      <trkpt lat="44.91671" lon="6.50063">
        <ele>1944.8</ele>
        <time>2024-08-11T12:31:26Z</time>
      </trkpt>
      <trkpt lat="44.91671" lon="6.50063">
        <ele>1944.6</ele>
        <time>2024-08-11T12:31:27Z</time>
      </trkpt>
      <trkpt lat="44.91671" lon="6.50063">
        <ele>1944.4</ele>
        <time>2024-08-11T12:31:28Z</time>
      </trkpt>
      <trkpt lat="44.91669" lon="6.50063">
        <ele>1944</ele>
        <time>2024-08-11T12:31:29Z</time>
      </trkpt>
      <trkpt lat="44.91669" lon="6.50063">
        <ele>1943.6</ele>
        <time>2024-08-11T12:31:30Z</time>
      </trkpt>
      <trkpt lat="44.91669" lon="6.50063">
        <ele>1943</ele>
        <time>2024-08-11T12:31:31Z</time>
      </trkpt>
      <trkpt lat="44.91667" lon="6.50063">
        <ele>1942.6</ele>
        <time>2024-08-11T12:31:32Z</time>
      </trkpt>
      <trkpt lat="44.91667" lon="6.50063">
        <ele>1942.4</ele>
        <time>2024-08-11T12:31:33Z</time>
      </trkpt>
      <trkpt lat="44.91665" lon="6.50063">
        <ele>1942.2</ele>
        <time>2024-08-11T12:31:34Z</time>
      </trkpt>
      <trkpt lat="44.91665" lon="6.50063">
        <ele>1942</ele>
        <time>2024-08-11T12:31:35Z</time>
      </trkpt>
      <trkpt lat="44.91663" lon="6.50063">
        <ele>1941.6</ele>
        <time>2024-08-11T12:31:36Z</time>
      </trkpt>
      <trkpt lat="44.91663" lon="6.50063">
        <ele>1941.4</ele>
        <time>2024-08-11T12:31:37Z</time>
      </trkpt>
      <trkpt lat="44.91663" lon="6.50063">
        <ele>1941.2</ele>
        <time>2024-08-11T12:31:38Z</time>
      </trkpt>
      <trkpt lat="44.9166" lon="6.50062">
        <ele>1940.8</ele>
        <time>2024-08-11T12:31:39Z</time>
      </trkpt>
      <trkpt lat="44.9166" lon="6.50062">
        <ele>1940.4</ele>
        <time>2024-08-11T12:31:40Z</time>
      </trkpt>
      <trkpt lat="44.9166" lon="6.50062">
        <ele>1939.8</ele>
        <time>2024-08-11T12:31:41Z</time>
      </trkpt>
      <trkpt lat="44.9166" lon="6.50062">
        <ele>1939.6</ele>
        <time>2024-08-11T12:31:42Z</time>
      </trkpt>
      <trkpt lat="44.91658" lon="6.50064">
        <ele>1939.2</ele>
        <time>2024-08-11T12:31:43Z</time>
      </trkpt>
      <trkpt lat="44.91658" lon="6.50064">
        <ele>1939</ele>
        <time>2024-08-11T12:31:44Z</time>
      </trkpt>
      <trkpt lat="44.91657" lon="6.50066">
        <ele>1938.8</ele>
        <time>2024-08-11T12:31:45Z</time>
      </trkpt>
      <trkpt lat="44.91657" lon="6.50066">
        <ele>1938.6</ele>
        <time>2024-08-11T12:31:46Z</time>
      </trkpt>
      <trkpt lat="44.91655" lon="6.50069">
        <ele>1938.4</ele>
        <time>2024-08-11T12:31:47Z</time>
      </trkpt>
      <trkpt lat="44.91655" lon="6.50069">
        <ele>1938</ele>
        <time>2024-08-11T12:31:48Z</time>
      </trkpt>
      <trkpt lat="44.91655" lon="6.50072">
        <ele>1937.8</ele>
        <time>2024-08-11T12:31:49Z</time>
      </trkpt>
      <trkpt lat="44.91655" lon="6.50072">
        <ele>1937.4</ele>
        <time>2024-08-11T12:31:50Z</time>
      </trkpt>
      <trkpt lat="44.91655" lon="6.50072">
        <ele>1937.4</ele>
        <time>2024-08-11T12:31:51Z</time>
      </trkpt>
      <trkpt lat="44.91655" lon="6.50076">
        <ele>1937.2</ele>
        <time>2024-08-11T12:31:52Z</time>
      </trkpt>
      <trkpt lat="44.91655" lon="6.50076">
        <ele>1937</ele>
        <time>2024-08-11T12:31:53Z</time>
      </trkpt>
      <trkpt lat="44.91655" lon="6.50076">
        <ele>1937</ele>
        <time>2024-08-11T12:31:54Z</time>
      </trkpt>
      <trkpt lat="44.91655" lon="6.50079">
        <ele>1937</ele>
        <time>2024-08-11T12:31:55Z</time>
      </trkpt>
      <trkpt lat="44.91655" lon="6.50079">
        <ele>1936.8</ele>
        <time>2024-08-11T12:31:56Z</time>
      </trkpt>
      <trkpt lat="44.91655" lon="6.50079">
        <ele>1936.8</ele>
        <time>2024-08-11T12:31:57Z</time>
      </trkpt>
      <trkpt lat="44.91655" lon="6.50079">
        <ele>1937</ele>
        <time>2024-08-11T12:31:58Z</time>
      </trkpt>
      <trkpt lat="44.91654" lon="6.50081">
        <ele>1937</ele>
        <time>2024-08-11T12:31:59Z</time>
      </trkpt>
      <trkpt lat="44.91654" lon="6.50081">
        <ele>1936.6</ele>
        <time>2024-08-11T12:32:00Z</time>
      </trkpt>
      <trkpt lat="44.91654" lon="6.50081">
        <ele>1936.4</ele>
        <time>2024-08-11T12:32:01Z</time>
      </trkpt>
      <trkpt lat="44.91654" lon="6.50081">
        <ele>1936.2</ele>
        <time>2024-08-11T12:32:02Z</time>
      </trkpt>
      <trkpt lat="44.91651" lon="6.50081">
        <ele>1936.2</ele>
        <time>2024-08-11T12:32:03Z</time>
      </trkpt>
      <trkpt lat="44.91651" lon="6.50081">
        <ele>1936</ele>
        <time>2024-08-11T12:32:04Z</time>
      </trkpt>
      <trkpt lat="44.91651" lon="6.50081">
        <ele>1936</ele>
        <time>2024-08-11T12:32:05Z</time>
      </trkpt>
      <trkpt lat="44.91649" lon="6.50079">
        <ele>1935.8</ele>
        <time>2024-08-11T12:32:06Z</time>
      </trkpt>
      <trkpt lat="44.91649" lon="6.50079">
        <ele>1935.6</ele>
        <time>2024-08-11T12:32:07Z</time>
      </trkpt>
      <trkpt lat="44.91649" lon="6.50079">
        <ele>1935.2</ele>
        <time>2024-08-11T12:32:08Z</time>
      </trkpt>
      <trkpt lat="44.91649" lon="6.50079">
        <ele>1935</ele>
        <time>2024-08-11T12:32:09Z</time>
      </trkpt>
      <trkpt lat="44.91647" lon="6.50079">
        <ele>1935</ele>
        <time>2024-08-11T12:32:10Z</time>
      </trkpt>
      <trkpt lat="44.91647" lon="6.50079">
        <ele>1934.8</ele>
        <time>2024-08-11T12:32:11Z</time>
      </trkpt>
      <trkpt lat="44.91645" lon="6.50077">
        <ele>1934.8</ele>
        <time>2024-08-11T12:32:12Z</time>
      </trkpt>
      <trkpt lat="44.91645" lon="6.50077">
        <ele>1934.8</ele>
        <time>2024-08-11T12:32:13Z</time>
      </trkpt>
      <trkpt lat="44.91643" lon="6.50075">
        <ele>1934.8</ele>
        <time>2024-08-11T12:32:14Z</time>
      </trkpt>
      <trkpt lat="44.91643" lon="6.50075">
        <ele>1934.6</ele>
        <time>2024-08-11T12:32:15Z</time>
      </trkpt>
      <trkpt lat="44.91641" lon="6.50073">
        <ele>1934.4</ele>
        <time>2024-08-11T12:32:16Z</time>
      </trkpt>
      <trkpt lat="44.91641" lon="6.50073">
        <ele>1934.4</ele>
        <time>2024-08-11T12:32:17Z</time>
      </trkpt>
      <trkpt lat="44.91639" lon="6.50071">
        <ele>1934.4</ele>
        <time>2024-08-11T12:32:18Z</time>
      </trkpt>
      <trkpt lat="44.91639" lon="6.50071">
        <ele>1934</ele>
        <time>2024-08-11T12:32:19Z</time>
      </trkpt>
      <trkpt lat="44.91637" lon="6.50069">
        <ele>1933.8</ele>
        <time>2024-08-11T12:32:20Z</time>
      </trkpt>
      <trkpt lat="44.91637" lon="6.50069">
        <ele>1933.8</ele>
        <time>2024-08-11T12:32:21Z</time>
      </trkpt>
      <trkpt lat="44.91635" lon="6.50067">
        <ele>1933.8</ele>
        <time>2024-08-11T12:32:22Z</time>
      </trkpt>
      <trkpt lat="44.91635" lon="6.50067">
        <ele>1933.8</ele>
        <time>2024-08-11T12:32:23Z</time>
      </trkpt>
      <trkpt lat="44.91635" lon="6.50067">
        <ele>1933.8</ele>
        <time>2024-08-11T12:32:24Z</time>
      </trkpt>
      <trkpt lat="44.91633" lon="6.50067">
        <ele>1933.8</ele>
        <time>2024-08-11T12:32:25Z</time>
      </trkpt>
      <trkpt lat="44.91633" lon="6.50067">
        <ele>1933.6</ele>
        <time>2024-08-11T12:32:26Z</time>
      </trkpt>
      <trkpt lat="44.91631" lon="6.50067">
        <ele>1933.2</ele>
        <time>2024-08-11T12:32:27Z</time>
      </trkpt>
      <trkpt lat="44.91631" lon="6.50067">
        <ele>1933</ele>
        <time>2024-08-11T12:32:28Z</time>
      </trkpt>
      <trkpt lat="44.91629" lon="6.50066">
        <ele>1933</ele>
        <time>2024-08-11T12:32:29Z</time>
      </trkpt>
      <trkpt lat="44.91629" lon="6.50066">
        <ele>1932.8</ele>
        <time>2024-08-11T12:32:30Z</time>
      </trkpt>
      <trkpt lat="44.91626" lon="6.50066">
        <ele>1932.4</ele>
        <time>2024-08-11T12:32:31Z</time>
      </trkpt>
      <trkpt lat="44.91626" lon="6.50066">
        <ele>1932.2</ele>
        <time>2024-08-11T12:32:32Z</time>
      </trkpt>
      <trkpt lat="44.91624" lon="6.50067">
        <ele>1932.2</ele>
        <time>2024-08-11T12:32:33Z</time>
      </trkpt>
      <trkpt lat="44.91624" lon="6.50067">
        <ele>1932</ele>
        <time>2024-08-11T12:32:34Z</time>
      </trkpt>
      <trkpt lat="44.91624" lon="6.50067">
        <ele>1931.8</ele>
        <time>2024-08-11T12:32:35Z</time>
      </trkpt>
      <trkpt lat="44.91622" lon="6.50065">
        <ele>1931.8</ele>
        <time>2024-08-11T12:32:36Z</time>
      </trkpt>
      <trkpt lat="44.91622" lon="6.50065">
        <ele>1931.6</ele>
        <time>2024-08-11T12:32:37Z</time>
      </trkpt>
      <trkpt lat="44.9162" lon="6.50064">
        <ele>1931.2</ele>
        <time>2024-08-11T12:32:38Z</time>
      </trkpt>
      <trkpt lat="44.9162" lon="6.50064">
        <ele>1931</ele>
        <time>2024-08-11T12:32:39Z</time>
      </trkpt>
      <trkpt lat="44.91618" lon="6.50064">
        <ele>1930.6</ele>
        <time>2024-08-11T12:32:40Z</time>
      </trkpt>
      <trkpt lat="44.91618" lon="6.50064">
        <ele>1930.4</ele>
        <time>2024-08-11T12:32:41Z</time>
      </trkpt>
      <trkpt lat="44.91615" lon="6.50063">
        <ele>1930</ele>
        <time>2024-08-11T12:32:42Z</time>
      </trkpt>
      <trkpt lat="44.91615" lon="6.50063">
        <ele>1930</ele>
        <time>2024-08-11T12:32:43Z</time>
      </trkpt>
      <trkpt lat="44.91613" lon="6.50063">
        <ele>1929.8</ele>
        <time>2024-08-11T12:32:44Z</time>
      </trkpt>
      <trkpt lat="44.91613" lon="6.50063">
        <ele>1929.4</ele>
        <time>2024-08-11T12:32:45Z</time>
      </trkpt>
      <trkpt lat="44.91612" lon="6.50064">
        <ele>1929.2</ele>
        <time>2024-08-11T12:32:46Z</time>
      </trkpt>
      <trkpt lat="44.91612" lon="6.50064">
        <ele>1928.8</ele>
        <time>2024-08-11T12:32:47Z</time>
      </trkpt>
      <trkpt lat="44.9161" lon="6.50065">
        <ele>1928.4</ele>
        <time>2024-08-11T12:32:48Z</time>
      </trkpt>
      <trkpt lat="44.9161" lon="6.50065">
        <ele>1928.2</ele>
        <time>2024-08-11T12:32:49Z</time>
      </trkpt>
      <trkpt lat="44.9161" lon="6.50065">
        <ele>1928</ele>
        <time>2024-08-11T12:32:50Z</time>
      </trkpt>
      <trkpt lat="44.91608" lon="6.50064">
        <ele>1927.8</ele>
        <time>2024-08-11T12:32:51Z</time>
      </trkpt>
      <trkpt lat="44.91608" lon="6.50064">
        <ele>1927.4</ele>
        <time>2024-08-11T12:32:52Z</time>
      </trkpt>
      <trkpt lat="44.91608" lon="6.50064">
        <ele>1927.2</ele>
        <time>2024-08-11T12:32:53Z</time>
      </trkpt>
      <trkpt lat="44.91605" lon="6.50063">
        <ele>1926.6</ele>
        <time>2024-08-11T12:32:54Z</time>
      </trkpt>
      <trkpt lat="44.91605" lon="6.50063">
        <ele>1926.4</ele>
        <time>2024-08-11T12:32:55Z</time>
      </trkpt>
      <trkpt lat="44.91605" lon="6.50063">
        <ele>1926.2</ele>
        <time>2024-08-11T12:32:56Z</time>
      </trkpt>
      <trkpt lat="44.91603" lon="6.50063">
        <ele>1926</ele>
        <time>2024-08-11T12:32:57Z</time>
      </trkpt>
      <trkpt lat="44.91603" lon="6.50063">
        <ele>1925.8</ele>
        <time>2024-08-11T12:32:58Z</time>
      </trkpt>
      <trkpt lat="44.91601" lon="6.50061">
        <ele>1925.6</ele>
        <time>2024-08-11T12:32:59Z</time>
      </trkpt>
      <trkpt lat="44.91601" lon="6.50061">
        <ele>1925.4</ele>
        <time>2024-08-11T12:33:00Z</time>
      </trkpt>
      <trkpt lat="44.916" lon="6.5006">
        <ele>1925</ele>
        <time>2024-08-11T12:33:01Z</time>
      </trkpt>
      <trkpt lat="44.916" lon="6.5006">
        <ele>1924.6</ele>
        <time>2024-08-11T12:33:02Z</time>
      </trkpt>
      <trkpt lat="44.91598" lon="6.5006">
        <ele>1924.6</ele>
        <time>2024-08-11T12:33:03Z</time>
      </trkpt>
      <trkpt lat="44.91598" lon="6.5006">
        <ele>1924.4</ele>
        <time>2024-08-11T12:33:04Z</time>
      </trkpt>
      <trkpt lat="44.91598" lon="6.5006">
        <ele>1924.2</ele>
        <time>2024-08-11T12:33:05Z</time>
      </trkpt>
      <trkpt lat="44.91596" lon="6.50061">
        <ele>1923.8</ele>
        <time>2024-08-11T12:33:06Z</time>
      </trkpt>
      <trkpt lat="44.91596" lon="6.50061">
        <ele>1923.4</ele>
        <time>2024-08-11T12:33:07Z</time>
      </trkpt>
      <trkpt lat="44.91594" lon="6.50062">
        <ele>1923.2</ele>
        <time>2024-08-11T12:33:08Z</time>
      </trkpt>
      <trkpt lat="44.91594" lon="6.50062">
        <ele>1923.2</ele>
        <time>2024-08-11T12:33:09Z</time>
      </trkpt>
      <trkpt lat="44.91594" lon="6.50062">
        <ele>1922.6</ele>
        <time>2024-08-11T12:33:10Z</time>
      </trkpt>
      <trkpt lat="44.91592" lon="6.50062">
        <ele>1922.4</ele>
        <time>2024-08-11T12:33:11Z</time>
      </trkpt>
      <trkpt lat="44.91592" lon="6.50062">
        <ele>1922.2</ele>
        <time>2024-08-11T12:33:12Z</time>
      </trkpt>
      <trkpt lat="44.9159" lon="6.50063">
        <ele>1922</ele>
        <time>2024-08-11T12:33:13Z</time>
      </trkpt>
      <trkpt lat="44.9159" lon="6.50063">
        <ele>1921.8</ele>
        <time>2024-08-11T12:33:14Z</time>
      </trkpt>
      <trkpt lat="44.91588" lon="6.50064">
        <ele>1921.4</ele>
        <time>2024-08-11T12:33:15Z</time>
      </trkpt>
      <trkpt lat="44.91588" lon="6.50064">
        <ele>1921.2</ele>
        <time>2024-08-11T12:33:16Z</time>
      </trkpt>
      <trkpt lat="44.91585" lon="6.50064">
        <ele>1921</ele>
        <time>2024-08-11T12:33:17Z</time>
      </trkpt>
      <trkpt lat="44.91585" lon="6.50064">
        <ele>1920.6</ele>
        <time>2024-08-11T12:33:18Z</time>
      </trkpt>
      <trkpt lat="44.91583" lon="6.50065">
        <ele>1920.4</ele>
        <time>2024-08-11T12:33:19Z</time>
      </trkpt>
      <trkpt lat="44.91583" lon="6.50065">
        <ele>1920.2</ele>
        <time>2024-08-11T12:33:20Z</time>
      </trkpt>
      <trkpt lat="44.91583" lon="6.50065">
        <ele>1920</ele>
        <time>2024-08-11T12:33:21Z</time>
      </trkpt>
      <trkpt lat="44.9158" lon="6.50065">
        <ele>1919.8</ele>
        <time>2024-08-11T12:33:22Z</time>
      </trkpt>
      <trkpt lat="44.9158" lon="6.50065">
        <ele>1919.6</ele>
        <time>2024-08-11T12:33:23Z</time>
      </trkpt>
      <trkpt lat="44.9158" lon="6.50065">
        <ele>1919.4</ele>
        <time>2024-08-11T12:33:24Z</time>
      </trkpt>
      <trkpt lat="44.9158" lon="6.50065">
        <ele>1919.2</ele>
        <time>2024-08-11T12:33:25Z</time>
      </trkpt>
      <trkpt lat="44.9158" lon="6.50065">
        <ele>1919</ele>
        <time>2024-08-11T12:33:26Z</time>
      </trkpt>
      <trkpt lat="44.91578" lon="6.50064">
        <ele>1919</ele>
        <time>2024-08-11T12:33:27Z</time>
      </trkpt>
      <trkpt lat="44.91578" lon="6.50064">
        <ele>1919</ele>
        <time>2024-08-11T12:33:28Z</time>
      </trkpt>
      <trkpt lat="44.91578" lon="6.50064">
        <ele>1919</ele>
        <time>2024-08-11T12:33:29Z</time>
      </trkpt>
      <trkpt lat="44.91576" lon="6.50063">
        <ele>1919</ele>
        <time>2024-08-11T12:33:30Z</time>
      </trkpt>
      <trkpt lat="44.91576" lon="6.50063">
        <ele>1918.2</ele>
        <time>2024-08-11T12:33:31Z</time>
      </trkpt>
      <trkpt lat="44.91573" lon="6.50063">
        <ele>1918.2</ele>
        <time>2024-08-11T12:33:32Z</time>
      </trkpt>
      <trkpt lat="44.91573" lon="6.50063">
        <ele>1918</ele>
        <time>2024-08-11T12:33:33Z</time>
      </trkpt>
      <trkpt lat="44.9157" lon="6.50062">
        <ele>1917.6</ele>
        <time>2024-08-11T12:33:34Z</time>
      </trkpt>
      <trkpt lat="44.9157" lon="6.50062">
        <ele>1917.4</ele>
        <time>2024-08-11T12:33:35Z</time>
      </trkpt>
      <trkpt lat="44.91567" lon="6.50063">
        <ele>1917.4</ele>
        <time>2024-08-11T12:33:36Z</time>
      </trkpt>
      <trkpt lat="44.91567" lon="6.50063">
        <ele>1917.4</ele>
        <time>2024-08-11T12:33:37Z</time>
      </trkpt>
      <trkpt lat="44.91565" lon="6.50063">
        <ele>1917.4</ele>
        <time>2024-08-11T12:33:38Z</time>
      </trkpt>
      <trkpt lat="44.91565" lon="6.50063">
        <ele>1917</ele>
        <time>2024-08-11T12:33:39Z</time>
      </trkpt>
      <trkpt lat="44.91563" lon="6.50063">
        <ele>1916.8</ele>
        <time>2024-08-11T12:33:40Z</time>
      </trkpt>
      <trkpt lat="44.91563" lon="6.50063">
        <ele>1916.6</ele>
        <time>2024-08-11T12:33:41Z</time>
      </trkpt>
      <trkpt lat="44.9156" lon="6.50064">
        <ele>1916.4</ele>
        <time>2024-08-11T12:33:42Z</time>
      </trkpt>
      <trkpt lat="44.9156" lon="6.50064">
        <ele>1916.2</ele>
        <time>2024-08-11T12:33:43Z</time>
      </trkpt>
      <trkpt lat="44.91558" lon="6.50064">
        <ele>1916</ele>
        <time>2024-08-11T12:33:44Z</time>
      </trkpt>
      <trkpt lat="44.91558" lon="6.50064">
        <ele>1915.8</ele>
        <time>2024-08-11T12:33:45Z</time>
      </trkpt>
      <trkpt lat="44.91556" lon="6.50065">
        <ele>1915.4</ele>
        <time>2024-08-11T12:33:46Z</time>
      </trkpt>
      <trkpt lat="44.91556" lon="6.50065">
        <ele>1915.4</ele>
        <time>2024-08-11T12:33:47Z</time>
      </trkpt>
      <trkpt lat="44.91556" lon="6.50065">
        <ele>1915</ele>
        <time>2024-08-11T12:33:48Z</time>
      </trkpt>
      <trkpt lat="44.91554" lon="6.50063">
        <ele>1914.4</ele>
        <time>2024-08-11T12:33:49Z</time>
      </trkpt>
      <trkpt lat="44.91554" lon="6.50063">
        <ele>1914.2</ele>
        <time>2024-08-11T12:33:50Z</time>
      </trkpt>
      <trkpt lat="44.91554" lon="6.50063">
        <ele>1914.2</ele>
        <time>2024-08-11T12:33:51Z</time>
      </trkpt>
      <trkpt lat="44.91551" lon="6.50062">
        <ele>1913.8</ele>
        <time>2024-08-11T12:33:52Z</time>
      </trkpt>
      <trkpt lat="44.91549" lon="6.50062">
        <ele>1913.4</ele>
        <time>2024-08-11T12:33:53Z</time>
      </trkpt>
      <trkpt lat="44.91549" lon="6.50062">
        <ele>1913.2</ele>
        <time>2024-08-11T12:33:54Z</time>
      </trkpt>
      <trkpt lat="44.91547" lon="6.50062">
        <ele>1913.2</ele>
        <time>2024-08-11T12:33:55Z</time>
      </trkpt>
      <trkpt lat="44.91547" lon="6.50062">
        <ele>1912.8</ele>
        <time>2024-08-11T12:33:56Z</time>
      </trkpt>
      <trkpt lat="44.91545" lon="6.50063">
        <ele>1912.8</ele>
        <time>2024-08-11T12:33:57Z</time>
      </trkpt>
      <trkpt lat="44.91545" lon="6.50063">
        <ele>1912.8</ele>
        <time>2024-08-11T12:33:58Z</time>
      </trkpt>
      <trkpt lat="44.91542" lon="6.50063">
        <ele>1912.4</ele>
        <time>2024-08-11T12:33:59Z</time>
      </trkpt>
      <trkpt lat="44.91542" lon="6.50063">
        <ele>1912.4</ele>
        <time>2024-08-11T12:34:00Z</time>
      </trkpt>
      <trkpt lat="44.91541" lon="6.50063">
        <ele>1911.8</ele>
        <time>2024-08-11T12:34:01Z</time>
      </trkpt>
      <trkpt lat="44.91541" lon="6.50063">
        <ele>1911.4</ele>
        <time>2024-08-11T12:34:02Z</time>
      </trkpt>
      <trkpt lat="44.91539" lon="6.50064">
        <ele>1911.4</ele>
        <time>2024-08-11T12:34:03Z</time>
      </trkpt>
      <trkpt lat="44.91539" lon="6.50064">
        <ele>1911</ele>
        <time>2024-08-11T12:34:04Z</time>
      </trkpt>
      <trkpt lat="44.91536" lon="6.50064">
        <ele>1911</ele>
        <time>2024-08-11T12:34:05Z</time>
      </trkpt>
      <trkpt lat="44.91536" lon="6.50064">
        <ele>1911</ele>
        <time>2024-08-11T12:34:06Z</time>
      </trkpt>
      <trkpt lat="44.91533" lon="6.50064">
        <ele>1910.6</ele>
        <time>2024-08-11T12:34:07Z</time>
      </trkpt>
      <trkpt lat="44.91533" lon="6.50064">
        <ele>1910.4</ele>
        <time>2024-08-11T12:34:08Z</time>
      </trkpt>
      <trkpt lat="44.91533" lon="6.50064">
        <ele>1909.8</ele>
        <time>2024-08-11T12:34:09Z</time>
      </trkpt>
      <trkpt lat="44.9153" lon="6.50064">
        <ele>1909.6</ele>
        <time>2024-08-11T12:34:10Z</time>
      </trkpt>
      <trkpt lat="44.9153" lon="6.50064">
        <ele>1909.2</ele>
        <time>2024-08-11T12:34:11Z</time>
      </trkpt>
      <trkpt lat="44.91528" lon="6.50064">
        <ele>1908.8</ele>
        <time>2024-08-11T12:34:12Z</time>
      </trkpt>
      <trkpt lat="44.91528" lon="6.50064">
        <ele>1908.4</ele>
        <time>2024-08-11T12:34:13Z</time>
      </trkpt>
      <trkpt lat="44.91526" lon="6.50064">
        <ele>1908</ele>
        <time>2024-08-11T12:34:14Z</time>
      </trkpt>
      <trkpt lat="44.91526" lon="6.50064">
        <ele>1908</ele>
        <time>2024-08-11T12:34:15Z</time>
      </trkpt>
      <trkpt lat="44.91523" lon="6.50065">
        <ele>1907.6</ele>
        <time>2024-08-11T12:34:16Z</time>
      </trkpt>
      <trkpt lat="44.91523" lon="6.50065">
        <ele>1907.2</ele>
        <time>2024-08-11T12:34:17Z</time>
      </trkpt>
      <trkpt lat="44.9152" lon="6.50064">
        <ele>1906.6</ele>
        <time>2024-08-11T12:34:18Z</time>
      </trkpt>
      <trkpt lat="44.9152" lon="6.50064">
        <ele>1906.4</ele>
        <time>2024-08-11T12:34:19Z</time>
      </trkpt>
      <trkpt lat="44.91518" lon="6.50064">
        <ele>1906.4</ele>
        <time>2024-08-11T12:34:20Z</time>
      </trkpt>
      <trkpt lat="44.91518" lon="6.50064">
        <ele>1905.8</ele>
        <time>2024-08-11T12:34:21Z</time>
      </trkpt>
      <trkpt lat="44.91515" lon="6.50064">
        <ele>1905.6</ele>
        <time>2024-08-11T12:34:22Z</time>
      </trkpt>
      <trkpt lat="44.91515" lon="6.50064">
        <ele>1905.2</ele>
        <time>2024-08-11T12:34:23Z</time>
      </trkpt>
      <trkpt lat="44.91515" lon="6.50064">
        <ele>1904.8</ele>
        <time>2024-08-11T12:34:24Z</time>
      </trkpt>
      <trkpt lat="44.91515" lon="6.50064">
        <ele>1904.2</ele>
        <time>2024-08-11T12:34:25Z</time>
      </trkpt>
      <trkpt lat="44.91515" lon="6.50064">
        <ele>1904.2</ele>
        <time>2024-08-11T12:34:26Z</time>
      </trkpt>
      <trkpt lat="44.91514" lon="6.50061">
        <ele>1904.2</ele>
        <time>2024-08-11T12:34:27Z</time>
      </trkpt>
      <trkpt lat="44.91514" lon="6.50061">
        <ele>1904.2</ele>
        <time>2024-08-11T12:34:28Z</time>
      </trkpt>
      <trkpt lat="44.91514" lon="6.50061">
        <ele>1903.6</ele>
        <time>2024-08-11T12:34:29Z</time>
      </trkpt>
      <trkpt lat="44.91512" lon="6.50063">
        <ele>1903.4</ele>
        <time>2024-08-11T12:34:30Z</time>
      </trkpt>
      <trkpt lat="44.91512" lon="6.50063">
        <ele>1903.2</ele>
        <time>2024-08-11T12:34:31Z</time>
      </trkpt>
      <trkpt lat="44.91512" lon="6.50063">
        <ele>1902.8</ele>
        <time>2024-08-11T12:34:32Z</time>
      </trkpt>
      <trkpt lat="44.9151" lon="6.50062">
        <ele>1902.6</ele>
        <time>2024-08-11T12:34:33Z</time>
      </trkpt>
      <trkpt lat="44.9151" lon="6.50062">
        <ele>1902.2</ele>
        <time>2024-08-11T12:34:34Z</time>
      </trkpt>
      <trkpt lat="44.9151" lon="6.50062">
        <ele>1902.2</ele>
        <time>2024-08-11T12:34:35Z</time>
      </trkpt>
      <trkpt lat="44.9151" lon="6.50062">
        <ele>1902.2</ele>
        <time>2024-08-11T12:34:36Z</time>
      </trkpt>
      <trkpt lat="44.9151" lon="6.50062">
        <ele>1902.2</ele>
        <time>2024-08-11T12:34:37Z</time>
      </trkpt>
      <trkpt lat="44.9151" lon="6.50062">
        <ele>1901.8</ele>
        <time>2024-08-11T12:34:38Z</time>
      </trkpt>
      <trkpt lat="44.9151" lon="6.50062">
        <ele>1901.8</ele>
        <time>2024-08-11T12:34:39Z</time>
      </trkpt>
      <trkpt lat="44.9151" lon="6.50059">
        <ele>1901.8</ele>
        <time>2024-08-11T12:34:40Z</time>
      </trkpt>
      <trkpt lat="44.9151" lon="6.50059">
        <ele>1901.6</ele>
        <time>2024-08-11T12:34:41Z</time>
      </trkpt>
      <trkpt lat="44.91512" lon="6.50055">
        <ele>1901.2</ele>
        <time>2024-08-11T12:34:42Z</time>
      </trkpt>
      <trkpt lat="44.91512" lon="6.50055">
        <ele>1901</ele>
        <time>2024-08-11T12:34:43Z</time>
      </trkpt>
      <trkpt lat="44.91512" lon="6.50052">
        <ele>1900.8</ele>
        <time>2024-08-11T12:34:44Z</time>
      </trkpt>
      <trkpt lat="44.91512" lon="6.50052">
        <ele>1900.4</ele>
        <time>2024-08-11T12:34:45Z</time>
      </trkpt>
      <trkpt lat="44.91512" lon="6.50052">
        <ele>1900</ele>
        <time>2024-08-11T12:34:46Z</time>
      </trkpt>
      <trkpt lat="44.9151" lon="6.50052">
        <ele>1899.8</ele>
        <time>2024-08-11T12:34:47Z</time>
      </trkpt>
      <trkpt lat="44.9151" lon="6.50052">
        <ele>1899.6</ele>
        <time>2024-08-11T12:34:48Z</time>
      </trkpt>
      <trkpt lat="44.91508" lon="6.50052">
        <ele>1899.2</ele>
        <time>2024-08-11T12:34:49Z</time>
      </trkpt>
      <trkpt lat="44.91508" lon="6.50052">
        <ele>1899</ele>
        <time>2024-08-11T12:34:50Z</time>
      </trkpt>
      <trkpt lat="44.91506" lon="6.50052">
        <ele>1898.6</ele>
        <time>2024-08-11T12:34:51Z</time>
      </trkpt>
      <trkpt lat="44.91506" lon="6.50052">
        <ele>1898.2</ele>
        <time>2024-08-11T12:34:52Z</time>
      </trkpt>
      <trkpt lat="44.91506" lon="6.50052">
        <ele>1898</ele>
        <time>2024-08-11T12:34:53Z</time>
      </trkpt>
      <trkpt lat="44.91504" lon="6.50053">
        <ele>1897.8</ele>
        <time>2024-08-11T12:34:54Z</time>
      </trkpt>
      <trkpt lat="44.91504" lon="6.50053">
        <ele>1897.2</ele>
        <time>2024-08-11T12:34:55Z</time>
      </trkpt>
      <trkpt lat="44.91504" lon="6.50053">
        <ele>1896.6</ele>
        <time>2024-08-11T12:34:56Z</time>
      </trkpt>
      <trkpt lat="44.91501" lon="6.50054">
        <ele>1896</ele>
        <time>2024-08-11T12:34:57Z</time>
      </trkpt>
      <trkpt lat="44.91501" lon="6.50054">
        <ele>1895.6</ele>
        <time>2024-08-11T12:34:58Z</time>
      </trkpt>
      <trkpt lat="44.91501" lon="6.50054">
        <ele>1895.2</ele>
        <time>2024-08-11T12:34:59Z</time>
      </trkpt>
      <trkpt lat="44.91499" lon="6.50057">
        <ele>1894.8</ele>
        <time>2024-08-11T12:35:00Z</time>
      </trkpt>
      <trkpt lat="44.91499" lon="6.50057">
        <ele>1894.6</ele>
        <time>2024-08-11T12:35:01Z</time>
      </trkpt>
      <trkpt lat="44.91498" lon="6.5006">
        <ele>1894.2</ele>
        <time>2024-08-11T12:35:02Z</time>
      </trkpt>
      <trkpt lat="44.91498" lon="6.5006">
        <ele>1894.2</ele>
        <time>2024-08-11T12:35:03Z</time>
      </trkpt>
      <trkpt lat="44.91497" lon="6.50063">
        <ele>1893.8</ele>
        <time>2024-08-11T12:35:04Z</time>
      </trkpt>
      <trkpt lat="44.91497" lon="6.50063">
        <ele>1893.6</ele>
        <time>2024-08-11T12:35:05Z</time>
      </trkpt>
      <trkpt lat="44.91497" lon="6.50066">
        <ele>1893.2</ele>
        <time>2024-08-11T12:35:06Z</time>
      </trkpt>
      <trkpt lat="44.91497" lon="6.50066">
        <ele>1893</ele>
        <time>2024-08-11T12:35:07Z</time>
      </trkpt>
      <trkpt lat="44.91495" lon="6.50069">
        <ele>1892.6</ele>
        <time>2024-08-11T12:35:08Z</time>
      </trkpt>
      <trkpt lat="44.91495" lon="6.50069">
        <ele>1892.2</ele>
        <time>2024-08-11T12:35:09Z</time>
      </trkpt>
      <trkpt lat="44.91493" lon="6.5007">
        <ele>1892.2</ele>
        <time>2024-08-11T12:35:10Z</time>
      </trkpt>
      <trkpt lat="44.91493" lon="6.5007">
        <ele>1892.2</ele>
        <time>2024-08-11T12:35:11Z</time>
      </trkpt>
      <trkpt lat="44.91491" lon="6.5007">
        <ele>1892.2</ele>
        <time>2024-08-11T12:35:12Z</time>
      </trkpt>
      <trkpt lat="44.91491" lon="6.5007">
        <ele>1892</ele>
        <time>2024-08-11T12:35:13Z</time>
      </trkpt>
      <trkpt lat="44.91491" lon="6.5007">
        <ele>1892</ele>
        <time>2024-08-11T12:35:14Z</time>
      </trkpt>
      <trkpt lat="44.91489" lon="6.5007">
        <ele>1892</ele>
        <time>2024-08-11T12:35:15Z</time>
      </trkpt>
      <trkpt lat="44.91489" lon="6.5007">
        <ele>1892</ele>
        <time>2024-08-11T12:35:16Z</time>
      </trkpt>
      <trkpt lat="44.91487" lon="6.50069">
        <ele>1892.2</ele>
        <time>2024-08-11T12:35:17Z</time>
      </trkpt>
      <trkpt lat="44.91487" lon="6.50069">
        <ele>1892.2</ele>
        <time>2024-08-11T12:35:18Z</time>
      </trkpt>
      <trkpt lat="44.91487" lon="6.50069">
        <ele>1892.8</ele>
        <time>2024-08-11T12:35:19Z</time>
      </trkpt>
      <trkpt lat="44.91485" lon="6.50068">
        <ele>1892.8</ele>
        <time>2024-08-11T12:35:20Z</time>
      </trkpt>
      <trkpt lat="44.91485" lon="6.50068">
        <ele>1892.8</ele>
        <time>2024-08-11T12:35:21Z</time>
      </trkpt>
      <trkpt lat="44.91485" lon="6.50068">
        <ele>1892.8</ele>
        <time>2024-08-11T12:35:22Z</time>
      </trkpt>
      <trkpt lat="44.91482" lon="6.50069">
        <ele>1892.8</ele>
        <time>2024-08-11T12:35:23Z</time>
      </trkpt>
      <trkpt lat="44.91482" lon="6.50069">
        <ele>1892.8</ele>
        <time>2024-08-11T12:35:24Z</time>
      </trkpt>
      <trkpt lat="44.91479" lon="6.50068">
        <ele>1892.8</ele>
        <time>2024-08-11T12:35:25Z</time>
      </trkpt>
      <trkpt lat="44.91479" lon="6.50068">
        <ele>1892.6</ele>
        <time>2024-08-11T12:35:26Z</time>
      </trkpt>
      <trkpt lat="44.91477" lon="6.50066">
        <ele>1892.4</ele>
        <time>2024-08-11T12:35:27Z</time>
      </trkpt>
      <trkpt lat="44.91477" lon="6.50066">
        <ele>1892.2</ele>
        <time>2024-08-11T12:35:28Z</time>
      </trkpt>
      <trkpt lat="44.91476" lon="6.50064">
        <ele>1892.2</ele>
        <time>2024-08-11T12:35:29Z</time>
      </trkpt>
      <trkpt lat="44.91476" lon="6.50064">
        <ele>1892</ele>
        <time>2024-08-11T12:35:30Z</time>
      </trkpt>
      <trkpt lat="44.91476" lon="6.50064">
        <ele>1892</ele>
        <time>2024-08-11T12:35:31Z</time>
      </trkpt>
      <trkpt lat="44.91476" lon="6.50064">
        <ele>1892</ele>
        <time>2024-08-11T12:35:32Z</time>
      </trkpt>
      <trkpt lat="44.91476" lon="6.50064">
        <ele>1892</ele>
        <time>2024-08-11T12:35:33Z</time>
      </trkpt>
      <trkpt lat="44.91476" lon="6.50064">
        <ele>1892</ele>
        <time>2024-08-11T12:35:34Z</time>
      </trkpt>
      <trkpt lat="44.91476" lon="6.50064">
        <ele>1892.2</ele>
        <time>2024-08-11T12:35:35Z</time>
      </trkpt>
      <trkpt lat="44.91476" lon="6.50064">
        <ele>1892.4</ele>
        <time>2024-08-11T12:35:36Z</time>
      </trkpt>
      <trkpt lat="44.91476" lon="6.50064">
        <ele>1892.4</ele>
        <time>2024-08-11T12:35:37Z</time>
      </trkpt>
      <trkpt lat="44.91476" lon="6.50064">
        <ele>1892.6</ele>
        <time>2024-08-11T12:35:38Z</time>
      </trkpt>
      <trkpt lat="44.91476" lon="6.50064">
        <ele>1892.6</ele>
        <time>2024-08-11T12:35:39Z</time>
      </trkpt>
      <trkpt lat="44.91476" lon="6.50064">
        <ele>1892.6</ele>
        <time>2024-08-11T12:35:40Z</time>
      </trkpt>
      <trkpt lat="44.91476" lon="6.50064">
        <ele>1892.6</ele>
        <time>2024-08-11T12:35:41Z</time>
      </trkpt>
      <trkpt lat="44.91476" lon="6.50064">
        <ele>1892.6</ele>
        <time>2024-08-11T12:35:42Z</time>
      </trkpt>
      <trkpt lat="44.91476" lon="6.50064">
        <ele>1892.4</ele>
        <time>2024-08-11T12:35:43Z</time>
      </trkpt>
      <trkpt lat="44.91476" lon="6.50064">
        <ele>1892.4</ele>
        <time>2024-08-11T12:35:44Z</time>
      </trkpt>
      <trkpt lat="44.91473" lon="6.50062">
        <ele>1892.2</ele>
        <time>2024-08-11T12:35:45Z</time>
      </trkpt>
      <trkpt lat="44.91471" lon="6.50061">
        <ele>1892</ele>
        <time>2024-08-11T12:35:46Z</time>
      </trkpt>
      <trkpt lat="44.91469" lon="6.5006">
        <ele>1891.8</ele>
        <time>2024-08-11T12:35:47Z</time>
      </trkpt>
      <trkpt lat="44.91468" lon="6.50059">
        <ele>1891.8</ele>
        <time>2024-08-11T12:35:48Z</time>
      </trkpt>
      <trkpt lat="44.91468" lon="6.50059">
        <ele>1891.6</ele>
        <time>2024-08-11T12:35:49Z</time>
      </trkpt>
      <trkpt lat="44.91465" lon="6.50056">
        <ele>1891.4</ele>
        <time>2024-08-11T12:35:50Z</time>
      </trkpt>
      <trkpt lat="44.91465" lon="6.50056">
        <ele>1891</ele>
        <time>2024-08-11T12:35:51Z</time>
      </trkpt>
      <trkpt lat="44.91463" lon="6.50054">
        <ele>1890.6</ele>
        <time>2024-08-11T12:35:52Z</time>
      </trkpt>
      <trkpt lat="44.91463" lon="6.50054">
        <ele>1890.6</ele>
        <time>2024-08-11T12:35:53Z</time>
      </trkpt>
      <trkpt lat="44.91461" lon="6.50052">
        <ele>1890.2</ele>
        <time>2024-08-11T12:35:54Z</time>
      </trkpt>
      <trkpt lat="44.91461" lon="6.50052">
        <ele>1890</ele>
        <time>2024-08-11T12:35:55Z</time>
      </trkpt>
      <trkpt lat="44.9146" lon="6.5005">
        <ele>1889.4</ele>
        <time>2024-08-11T12:35:56Z</time>
      </trkpt>
      <trkpt lat="44.9146" lon="6.5005">
        <ele>1889.2</ele>
        <time>2024-08-11T12:35:57Z</time>
      </trkpt>
      <trkpt lat="44.91459" lon="6.50048">
        <ele>1888.8</ele>
        <time>2024-08-11T12:35:58Z</time>
      </trkpt>
      <trkpt lat="44.91459" lon="6.50048">
        <ele>1888.4</ele>
        <time>2024-08-11T12:35:59Z</time>
      </trkpt>
      <trkpt lat="44.91457" lon="6.50046">
        <ele>1888</ele>
        <time>2024-08-11T12:36:00Z</time>
      </trkpt>
      <trkpt lat="44.91457" lon="6.50046">
        <ele>1887.8</ele>
        <time>2024-08-11T12:36:01Z</time>
      </trkpt>
      <trkpt lat="44.91455" lon="6.50045">
        <ele>1887</ele>
        <time>2024-08-11T12:36:02Z</time>
      </trkpt>
      <trkpt lat="44.91455" lon="6.50045">
        <ele>1887</ele>
        <time>2024-08-11T12:36:03Z</time>
      </trkpt>
      <trkpt lat="44.91452" lon="6.50044">
        <ele>1886.8</ele>
        <time>2024-08-11T12:36:04Z</time>
      </trkpt>
      <trkpt lat="44.91452" lon="6.50044">
        <ele>1886.6</ele>
        <time>2024-08-11T12:36:05Z</time>
      </trkpt>
      <trkpt lat="44.91449" lon="6.50043">
        <ele>1886</ele>
        <time>2024-08-11T12:36:06Z</time>
      </trkpt>
      <trkpt lat="44.91449" lon="6.50043">
        <ele>1885.8</ele>
        <time>2024-08-11T12:36:07Z</time>
      </trkpt>
      <trkpt lat="44.91446" lon="6.50043">
        <ele>1885.6</ele>
        <time>2024-08-11T12:36:08Z</time>
      </trkpt>
      <trkpt lat="44.91446" lon="6.50043">
        <ele>1885.4</ele>
        <time>2024-08-11T12:36:09Z</time>
      </trkpt>
      <trkpt lat="44.91444" lon="6.50044">
        <ele>1885.2</ele>
        <time>2024-08-11T12:36:10Z</time>
      </trkpt>
      <trkpt lat="44.91444" lon="6.50044">
        <ele>1885</ele>
        <time>2024-08-11T12:36:11Z</time>
      </trkpt>
      <trkpt lat="44.91441" lon="6.50044">
        <ele>1885</ele>
        <time>2024-08-11T12:36:12Z</time>
      </trkpt>
      <trkpt lat="44.91441" lon="6.50044">
        <ele>1884.8</ele>
        <time>2024-08-11T12:36:13Z</time>
      </trkpt>
      <trkpt lat="44.91438" lon="6.50045">
        <ele>1884.6</ele>
        <time>2024-08-11T12:36:14Z</time>
      </trkpt>
      <trkpt lat="44.91438" lon="6.50045">
        <ele>1884.2</ele>
        <time>2024-08-11T12:36:15Z</time>
      </trkpt>
      <trkpt lat="44.91436" lon="6.50045">
        <ele>1884.2</ele>
        <time>2024-08-11T12:36:16Z</time>
      </trkpt>
      <trkpt lat="44.91436" lon="6.50045">
        <ele>1884.2</ele>
        <time>2024-08-11T12:36:17Z</time>
      </trkpt>
      <trkpt lat="44.91433" lon="6.50046">
        <ele>1883.8</ele>
        <time>2024-08-11T12:36:18Z</time>
      </trkpt>
      <trkpt lat="44.91433" lon="6.50046">
        <ele>1883.8</ele>
        <time>2024-08-11T12:36:19Z</time>
      </trkpt>
      <trkpt lat="44.9143" lon="6.50047">
        <ele>1883.4</ele>
        <time>2024-08-11T12:36:20Z</time>
      </trkpt>
      <trkpt lat="44.9143" lon="6.50047">
        <ele>1883.4</ele>
        <time>2024-08-11T12:36:21Z</time>
      </trkpt>
      <trkpt lat="44.91428" lon="6.50048">
        <ele>1883.2</ele>
        <time>2024-08-11T12:36:22Z</time>
      </trkpt>
      <trkpt lat="44.91428" lon="6.50048">
        <ele>1882.8</ele>
        <time>2024-08-11T12:36:23Z</time>
      </trkpt>
      <trkpt lat="44.91425" lon="6.50049">
        <ele>1882.4</ele>
        <time>2024-08-11T12:36:24Z</time>
      </trkpt>
      <trkpt lat="44.91425" lon="6.50049">
        <ele>1882.2</ele>
        <time>2024-08-11T12:36:25Z</time>
      </trkpt>
      <trkpt lat="44.91422" lon="6.5005">
        <ele>1882</ele>
        <time>2024-08-11T12:36:26Z</time>
      </trkpt>
      <trkpt lat="44.91422" lon="6.5005">
        <ele>1882</ele>
        <time>2024-08-11T12:36:27Z</time>
      </trkpt>
      <trkpt lat="44.9142" lon="6.5005">
        <ele>1881.8</ele>
        <time>2024-08-11T12:36:28Z</time>
      </trkpt>
      <trkpt lat="44.9142" lon="6.5005">
        <ele>1881.6</ele>
        <time>2024-08-11T12:36:29Z</time>
      </trkpt>
      <trkpt lat="44.91417" lon="6.5005">
        <ele>1881.6</ele>
        <time>2024-08-11T12:36:30Z</time>
      </trkpt>
      <trkpt lat="44.91417" lon="6.5005">
        <ele>1881.8</ele>
        <time>2024-08-11T12:36:31Z</time>
      </trkpt>
      <trkpt lat="44.91415" lon="6.50051">
        <ele>1881.8</ele>
        <time>2024-08-11T12:36:32Z</time>
      </trkpt>
      <trkpt lat="44.91415" lon="6.50051">
        <ele>1881.8</ele>
        <time>2024-08-11T12:36:33Z</time>
      </trkpt>
      <trkpt lat="44.91413" lon="6.50051">
        <ele>1882</ele>
        <time>2024-08-11T12:36:34Z</time>
      </trkpt>
      <trkpt lat="44.91413" lon="6.50051">
        <ele>1882</ele>
        <time>2024-08-11T12:36:35Z</time>
      </trkpt>
      <trkpt lat="44.91413" lon="6.50051">
        <ele>1882.2</ele>
        <time>2024-08-11T12:36:36Z</time>
      </trkpt>
      <trkpt lat="44.91411" lon="6.50052">
        <ele>1882.4</ele>
        <time>2024-08-11T12:36:37Z</time>
      </trkpt>
      <trkpt lat="44.91411" lon="6.50052">
        <ele>1882.4</ele>
        <time>2024-08-11T12:36:38Z</time>
      </trkpt>
      <trkpt lat="44.91411" lon="6.50052">
        <ele>1882.6</ele>
        <time>2024-08-11T12:36:39Z</time>
      </trkpt>
      <trkpt lat="44.91411" lon="6.50052">
        <ele>1882.6</ele>
        <time>2024-08-11T12:36:40Z</time>
      </trkpt>
      <trkpt lat="44.91411" lon="6.50052">
        <ele>1882.6</ele>
        <time>2024-08-11T12:36:41Z</time>
      </trkpt>
      <trkpt lat="44.91411" lon="6.50052">
        <ele>1882.4</ele>
        <time>2024-08-11T12:36:42Z</time>
      </trkpt>
      <trkpt lat="44.91411" lon="6.50052">
        <ele>1882.4</ele>
        <time>2024-08-11T12:36:43Z</time>
      </trkpt>
      <trkpt lat="44.91411" lon="6.50052">
        <ele>1882.4</ele>
        <time>2024-08-11T12:36:44Z</time>
      </trkpt>
      <trkpt lat="44.91413" lon="6.50053">
        <ele>1882.4</ele>
        <time>2024-08-11T12:36:45Z</time>
      </trkpt>
      <trkpt lat="44.91413" lon="6.50053">
        <ele>1882.4</ele>
        <time>2024-08-11T12:36:46Z</time>
      </trkpt>
      <trkpt lat="44.91413" lon="6.50053">
        <ele>1882.6</ele>
        <time>2024-08-11T12:36:47Z</time>
      </trkpt>
      <trkpt lat="44.91413" lon="6.50053">
        <ele>1882.6</ele>
        <time>2024-08-11T12:36:48Z</time>
      </trkpt>
      <trkpt lat="44.91413" lon="6.50053">
        <ele>1882.4</ele>
        <time>2024-08-11T12:36:49Z</time>
      </trkpt>
      <trkpt lat="44.91413" lon="6.50053">
        <ele>1882.4</ele>
        <time>2024-08-11T12:36:50Z</time>
      </trkpt>
      <trkpt lat="44.91413" lon="6.50053">
        <ele>1882.6</ele>
        <time>2024-08-11T12:36:51Z</time>
      </trkpt>
      <trkpt lat="44.91413" lon="6.50053">
        <ele>1882.8</ele>
        <time>2024-08-11T12:36:52Z</time>
      </trkpt>
      <trkpt lat="44.91413" lon="6.50053">
        <ele>1882.6</ele>
        <time>2024-08-11T12:36:53Z</time>
      </trkpt>
      <trkpt lat="44.91409" lon="6.50054">
        <ele>1882.6</ele>
        <time>2024-08-11T12:36:54Z</time>
      </trkpt>
      <trkpt lat="44.91407" lon="6.50054">
        <ele>1882.6</ele>
        <time>2024-08-11T12:36:55Z</time>
      </trkpt>
      <trkpt lat="44.91405" lon="6.50054">
        <ele>1882.6</ele>
        <time>2024-08-11T12:36:56Z</time>
      </trkpt>
      <trkpt lat="44.91403" lon="6.50055">
        <ele>1882.6</ele>
        <time>2024-08-11T12:36:57Z</time>
      </trkpt>
      <trkpt lat="44.91403" lon="6.50055">
        <ele>1882.6</ele>
        <time>2024-08-11T12:36:58Z</time>
      </trkpt>
      <trkpt lat="44.914" lon="6.50056">
        <ele>1882.2</ele>
        <time>2024-08-11T12:36:59Z</time>
      </trkpt>
      <trkpt lat="44.914" lon="6.50056">
        <ele>1881.8</ele>
        <time>2024-08-11T12:37:00Z</time>
      </trkpt>
      <trkpt lat="44.91397" lon="6.50056">
        <ele>1881.8</ele>
        <time>2024-08-11T12:37:01Z</time>
      </trkpt>
      <trkpt lat="44.91397" lon="6.50056">
        <ele>1881.4</ele>
        <time>2024-08-11T12:37:02Z</time>
      </trkpt>
      <trkpt lat="44.91395" lon="6.50056">
        <ele>1881.4</ele>
        <time>2024-08-11T12:37:03Z</time>
      </trkpt>
      <trkpt lat="44.91395" lon="6.50056">
        <ele>1881.4</ele>
        <time>2024-08-11T12:37:04Z</time>
      </trkpt>
      <trkpt lat="44.91392" lon="6.50056">
        <ele>1881.4</ele>
        <time>2024-08-11T12:37:05Z</time>
      </trkpt>
      <trkpt lat="44.91392" lon="6.50056">
        <ele>1881.2</ele>
        <time>2024-08-11T12:37:06Z</time>
      </trkpt>
      <trkpt lat="44.91389" lon="6.50056">
        <ele>1880.8</ele>
        <time>2024-08-11T12:37:07Z</time>
      </trkpt>
      <trkpt lat="44.91389" lon="6.50056">
        <ele>1880.6</ele>
        <time>2024-08-11T12:37:08Z</time>
      </trkpt>
      <trkpt lat="44.91387" lon="6.50056">
        <ele>1880.4</ele>
        <time>2024-08-11T12:37:09Z</time>
      </trkpt>
      <trkpt lat="44.91387" lon="6.50056">
        <ele>1880.4</ele>
        <time>2024-08-11T12:37:10Z</time>
      </trkpt>
      <trkpt lat="44.91385" lon="6.50057">
        <ele>1880.2</ele>
        <time>2024-08-11T12:37:11Z</time>
      </trkpt>
      <trkpt lat="44.91385" lon="6.50057">
        <ele>1880</ele>
        <time>2024-08-11T12:37:12Z</time>
      </trkpt>
      <trkpt lat="44.91383" lon="6.50058">
        <ele>1879.8</ele>
        <time>2024-08-11T12:37:13Z</time>
      </trkpt>
      <trkpt lat="44.91383" lon="6.50058">
        <ele>1879.6</ele>
        <time>2024-08-11T12:37:14Z</time>
      </trkpt>
      <trkpt lat="44.91382" lon="6.5006">
        <ele>1879.2</ele>
        <time>2024-08-11T12:37:15Z</time>
      </trkpt>
      <trkpt lat="44.91382" lon="6.5006">
        <ele>1879</ele>
        <time>2024-08-11T12:37:16Z</time>
      </trkpt>
      <trkpt lat="44.9138" lon="6.50062">
        <ele>1878.6</ele>
        <time>2024-08-11T12:37:17Z</time>
      </trkpt>
      <trkpt lat="44.9138" lon="6.50062">
        <ele>1878.4</ele>
        <time>2024-08-11T12:37:18Z</time>
      </trkpt>
      <trkpt lat="44.91379" lon="6.50065">
        <ele>1877.8</ele>
        <time>2024-08-11T12:37:19Z</time>
      </trkpt>
      <trkpt lat="44.91379" lon="6.50065">
        <ele>1877.8</ele>
        <time>2024-08-11T12:37:20Z</time>
      </trkpt>
      <trkpt lat="44.91378" lon="6.50066">
        <ele>1877.4</ele>
        <time>2024-08-11T12:37:21Z</time>
      </trkpt>
      <trkpt lat="44.91378" lon="6.50066">
        <ele>1877</ele>
        <time>2024-08-11T12:37:22Z</time>
      </trkpt>
      <trkpt lat="44.91375" lon="6.50067">
        <ele>1876.8</ele>
        <time>2024-08-11T12:37:23Z</time>
      </trkpt>
      <trkpt lat="44.91375" lon="6.50067">
        <ele>1876.6</ele>
        <time>2024-08-11T12:37:24Z</time>
      </trkpt>
      <trkpt lat="44.91373" lon="6.50065">
        <ele>1876</ele>
        <time>2024-08-11T12:37:25Z</time>
      </trkpt>
      <trkpt lat="44.91373" lon="6.50065">
        <ele>1876</ele>
        <time>2024-08-11T12:37:26Z</time>
      </trkpt>
      <trkpt lat="44.91371" lon="6.50063">
        <ele>1876</ele>
        <time>2024-08-11T12:37:27Z</time>
      </trkpt>
      <trkpt lat="44.91371" lon="6.50063">
        <ele>1876</ele>
        <time>2024-08-11T12:37:28Z</time>
      </trkpt>
      <trkpt lat="44.91369" lon="6.50061">
        <ele>1876</ele>
        <time>2024-08-11T12:37:29Z</time>
      </trkpt>
      <trkpt lat="44.91369" lon="6.50061">
        <ele>1875.8</ele>
        <time>2024-08-11T12:37:30Z</time>
      </trkpt>
      <trkpt lat="44.91366" lon="6.5006">
        <ele>1875.4</ele>
        <time>2024-08-11T12:37:31Z</time>
      </trkpt>
      <trkpt lat="44.91366" lon="6.5006">
        <ele>1875.2</ele>
        <time>2024-08-11T12:37:32Z</time>
      </trkpt>
      <trkpt lat="44.91364" lon="6.50059">
        <ele>1875</ele>
        <time>2024-08-11T12:37:33Z</time>
      </trkpt>
      <trkpt lat="44.91364" lon="6.50059">
        <ele>1874.6</ele>
        <time>2024-08-11T12:37:34Z</time>
      </trkpt>
      <trkpt lat="44.91361" lon="6.50058">
        <ele>1874.4</ele>
        <time>2024-08-11T12:37:35Z</time>
      </trkpt>
      <trkpt lat="44.91361" lon="6.50058">
        <ele>1874.4</ele>
        <time>2024-08-11T12:37:36Z</time>
      </trkpt>
      <trkpt lat="44.91359" lon="6.50057">
        <ele>1874.4</ele>
        <time>2024-08-11T12:37:37Z</time>
      </trkpt>
      <trkpt lat="44.91359" lon="6.50057">
        <ele>1874.4</ele>
        <time>2024-08-11T12:37:38Z</time>
      </trkpt>
      <trkpt lat="44.91357" lon="6.50056">
        <ele>1874.2</ele>
        <time>2024-08-11T12:37:39Z</time>
      </trkpt>
      <trkpt lat="44.91357" lon="6.50056">
        <ele>1873.8</ele>
        <time>2024-08-11T12:37:40Z</time>
      </trkpt>
      <trkpt lat="44.91354" lon="6.50056">
        <ele>1873.8</ele>
        <time>2024-08-11T12:37:41Z</time>
      </trkpt>
      <trkpt lat="44.91354" lon="6.50056">
        <ele>1873.6</ele>
        <time>2024-08-11T12:37:42Z</time>
      </trkpt>
      <trkpt lat="44.91352" lon="6.50056">
        <ele>1873.6</ele>
        <time>2024-08-11T12:37:43Z</time>
      </trkpt>
      <trkpt lat="44.91352" lon="6.50056">
        <ele>1873.2</ele>
        <time>2024-08-11T12:37:44Z</time>
      </trkpt>
      <trkpt lat="44.91349" lon="6.50056">
        <ele>1873.2</ele>
        <time>2024-08-11T12:37:45Z</time>
      </trkpt>
      <trkpt lat="44.91349" lon="6.50056">
        <ele>1873.2</ele>
        <time>2024-08-11T12:37:46Z</time>
      </trkpt>
      <trkpt lat="44.91347" lon="6.50056">
        <ele>1872.6</ele>
        <time>2024-08-11T12:37:47Z</time>
      </trkpt>
      <trkpt lat="44.91347" lon="6.50056">
        <ele>1871.8</ele>
        <time>2024-08-11T12:37:48Z</time>
      </trkpt>
      <trkpt lat="44.91344" lon="6.50057">
        <ele>1871.6</ele>
        <time>2024-08-11T12:37:49Z</time>
      </trkpt>
      <trkpt lat="44.91344" lon="6.50057">
        <ele>1871.6</ele>
        <time>2024-08-11T12:37:50Z</time>
      </trkpt>
      <trkpt lat="44.91342" lon="6.50058">
        <ele>1871.4</ele>
        <time>2024-08-11T12:37:51Z</time>
      </trkpt>
      <trkpt lat="44.91342" lon="6.50058">
        <ele>1871.2</ele>
        <time>2024-08-11T12:37:52Z</time>
      </trkpt>
      <trkpt lat="44.9134" lon="6.50058">
        <ele>1871.2</ele>
        <time>2024-08-11T12:37:53Z</time>
      </trkpt>
      <trkpt lat="44.9134" lon="6.50058">
        <ele>1871.2</ele>
        <time>2024-08-11T12:37:54Z</time>
      </trkpt>
      <trkpt lat="44.91338" lon="6.50058">
        <ele>1870.6</ele>
        <time>2024-08-11T12:37:55Z</time>
      </trkpt>
      <trkpt lat="44.91338" lon="6.50058">
        <ele>1870.6</ele>
        <time>2024-08-11T12:37:56Z</time>
      </trkpt>
      <trkpt lat="44.91335" lon="6.50058">
        <ele>1870.4</ele>
        <time>2024-08-11T12:37:57Z</time>
      </trkpt>
      <trkpt lat="44.91335" lon="6.50058">
        <ele>1870.2</ele>
        <time>2024-08-11T12:37:58Z</time>
      </trkpt>
      <trkpt lat="44.91333" lon="6.50058">
        <ele>1870.2</ele>
        <time>2024-08-11T12:37:59Z</time>
      </trkpt>
      <trkpt lat="44.91333" lon="6.50058">
        <ele>1869.6</ele>
        <time>2024-08-11T12:38:00Z</time>
      </trkpt>
      <trkpt lat="44.9133" lon="6.50059">
        <ele>1869.4</ele>
        <time>2024-08-11T12:38:01Z</time>
      </trkpt>
      <trkpt lat="44.9133" lon="6.50059">
        <ele>1869.6</ele>
        <time>2024-08-11T12:38:02Z</time>
      </trkpt>
      <trkpt lat="44.91328" lon="6.5006">
        <ele>1869.6</ele>
        <time>2024-08-11T12:38:03Z</time>
      </trkpt>
      <trkpt lat="44.91328" lon="6.5006">
        <ele>1869.2</ele>
        <time>2024-08-11T12:38:04Z</time>
      </trkpt>
      <trkpt lat="44.91325" lon="6.50061">
        <ele>1868.8</ele>
        <time>2024-08-11T12:38:05Z</time>
      </trkpt>
      <trkpt lat="44.91325" lon="6.50061">
        <ele>1868.4</ele>
        <time>2024-08-11T12:38:06Z</time>
      </trkpt>
      <trkpt lat="44.91325" lon="6.50061">
        <ele>1868.4</ele>
        <time>2024-08-11T12:38:07Z</time>
      </trkpt>
      <trkpt lat="44.91323" lon="6.5006">
        <ele>1868.2</ele>
        <time>2024-08-11T12:38:08Z</time>
      </trkpt>
      <trkpt lat="44.91323" lon="6.5006">
        <ele>1868</ele>
        <time>2024-08-11T12:38:09Z</time>
      </trkpt>
      <trkpt lat="44.91321" lon="6.5006">
        <ele>1867.6</ele>
        <time>2024-08-11T12:38:10Z</time>
      </trkpt>
      <trkpt lat="44.91321" lon="6.5006">
        <ele>1867.2</ele>
        <time>2024-08-11T12:38:11Z</time>
      </trkpt>
      <trkpt lat="44.91319" lon="6.5006">
        <ele>1867.2</ele>
        <time>2024-08-11T12:38:12Z</time>
      </trkpt>
      <trkpt lat="44.91319" lon="6.5006">
        <ele>1867</ele>
        <time>2024-08-11T12:38:13Z</time>
      </trkpt>
      <trkpt lat="44.91317" lon="6.5006">
        <ele>1866.6</ele>
        <time>2024-08-11T12:38:14Z</time>
      </trkpt>
      <trkpt lat="44.91317" lon="6.5006">
        <ele>1866.2</ele>
        <time>2024-08-11T12:38:15Z</time>
      </trkpt>
      <trkpt lat="44.91314" lon="6.50061">
        <ele>1866.2</ele>
        <time>2024-08-11T12:38:16Z</time>
      </trkpt>
      <trkpt lat="44.91314" lon="6.50061">
        <ele>1866</ele>
        <time>2024-08-11T12:38:17Z</time>
      </trkpt>
      <trkpt lat="44.91312" lon="6.5006">
        <ele>1865.8</ele>
        <time>2024-08-11T12:38:18Z</time>
      </trkpt>
      <trkpt lat="44.91312" lon="6.5006">
        <ele>1865.6</ele>
        <time>2024-08-11T12:38:19Z</time>
      </trkpt>
      <trkpt lat="44.91309" lon="6.50061">
        <ele>1865</ele>
        <time>2024-08-11T12:38:20Z</time>
      </trkpt>
      <trkpt lat="44.91309" lon="6.50061">
        <ele>1864.8</ele>
        <time>2024-08-11T12:38:21Z</time>
      </trkpt>
      <trkpt lat="44.91308" lon="6.50061">
        <ele>1864.8</ele>
        <time>2024-08-11T12:38:22Z</time>
      </trkpt>
      <trkpt lat="44.91308" lon="6.50061">
        <ele>1864.6</ele>
        <time>2024-08-11T12:38:23Z</time>
      </trkpt>
      <trkpt lat="44.91305" lon="6.50061">
        <ele>1864.4</ele>
        <time>2024-08-11T12:38:24Z</time>
      </trkpt>
      <trkpt lat="44.91305" lon="6.50061">
        <ele>1864.2</ele>
        <time>2024-08-11T12:38:25Z</time>
      </trkpt>
      <trkpt lat="44.91303" lon="6.50061">
        <ele>1863.8</ele>
        <time>2024-08-11T12:38:26Z</time>
      </trkpt>
      <trkpt lat="44.91303" lon="6.50061">
        <ele>1863.6</ele>
        <time>2024-08-11T12:38:27Z</time>
      </trkpt>
      <trkpt lat="44.913" lon="6.50061">
        <ele>1863.4</ele>
        <time>2024-08-11T12:38:28Z</time>
      </trkpt>
      <trkpt lat="44.913" lon="6.50061">
        <ele>1863.2</ele>
        <time>2024-08-11T12:38:29Z</time>
      </trkpt>
      <trkpt lat="44.91297" lon="6.5006">
        <ele>1862.6</ele>
        <time>2024-08-11T12:38:30Z</time>
      </trkpt>
      <trkpt lat="44.91297" lon="6.5006">
        <ele>1862.2</ele>
        <time>2024-08-11T12:38:31Z</time>
      </trkpt>
      <trkpt lat="44.91295" lon="6.50058">
        <ele>1862</ele>
        <time>2024-08-11T12:38:32Z</time>
      </trkpt>
      <trkpt lat="44.91295" lon="6.50058">
        <ele>1861.8</ele>
        <time>2024-08-11T12:38:33Z</time>
      </trkpt>
      <trkpt lat="44.91293" lon="6.50057">
        <ele>1861.6</ele>
        <time>2024-08-11T12:38:34Z</time>
      </trkpt>
      <trkpt lat="44.91293" lon="6.50057">
        <ele>1861.4</ele>
        <time>2024-08-11T12:38:35Z</time>
      </trkpt>
      <trkpt lat="44.91291" lon="6.50055">
        <ele>1861.2</ele>
        <time>2024-08-11T12:38:36Z</time>
      </trkpt>
      <trkpt lat="44.91291" lon="6.50055">
        <ele>1861</ele>
        <time>2024-08-11T12:38:37Z</time>
      </trkpt>
      <trkpt lat="44.91289" lon="6.50053">
        <ele>1860.8</ele>
        <time>2024-08-11T12:38:38Z</time>
      </trkpt>
      <trkpt lat="44.91289" lon="6.50053">
        <ele>1860.4</ele>
        <time>2024-08-11T12:38:39Z</time>
      </trkpt>
      <trkpt lat="44.91287" lon="6.50052">
        <ele>1860.2</ele>
        <time>2024-08-11T12:38:40Z</time>
      </trkpt>
      <trkpt lat="44.91287" lon="6.50052">
        <ele>1860.2</ele>
        <time>2024-08-11T12:38:41Z</time>
      </trkpt>
      <trkpt lat="44.91285" lon="6.50051">
        <ele>1860</ele>
        <time>2024-08-11T12:38:42Z</time>
      </trkpt>
      <trkpt lat="44.91285" lon="6.50051">
        <ele>1859.6</ele>
        <time>2024-08-11T12:38:43Z</time>
      </trkpt>
      <trkpt lat="44.91283" lon="6.50051">
        <ele>1859.2</ele>
        <time>2024-08-11T12:38:44Z</time>
      </trkpt>
      <trkpt lat="44.91283" lon="6.50051">
        <ele>1858.6</ele>
        <time>2024-08-11T12:38:45Z</time>
      </trkpt>
      <trkpt lat="44.9128" lon="6.5005">
        <ele>1858.4</ele>
        <time>2024-08-11T12:38:46Z</time>
      </trkpt>
      <trkpt lat="44.9128" lon="6.5005">
        <ele>1858</ele>
        <time>2024-08-11T12:38:47Z</time>
      </trkpt>
      <trkpt lat="44.91278" lon="6.5005">
        <ele>1857.8</ele>
        <time>2024-08-11T12:38:48Z</time>
      </trkpt>
      <trkpt lat="44.91278" lon="6.5005">
        <ele>1857.6</ele>
        <time>2024-08-11T12:38:49Z</time>
      </trkpt>
      <trkpt lat="44.91276" lon="6.5005">
        <ele>1857.4</ele>
        <time>2024-08-11T12:38:50Z</time>
      </trkpt>
      <trkpt lat="44.91276" lon="6.5005">
        <ele>1857.2</ele>
        <time>2024-08-11T12:38:51Z</time>
      </trkpt>
      <trkpt lat="44.91274" lon="6.50049">
        <ele>1857</ele>
        <time>2024-08-11T12:38:52Z</time>
      </trkpt>
      <trkpt lat="44.91274" lon="6.50049">
        <ele>1856.8</ele>
        <time>2024-08-11T12:38:53Z</time>
      </trkpt>
      <trkpt lat="44.91272" lon="6.50048">
        <ele>1856.4</ele>
        <time>2024-08-11T12:38:54Z</time>
      </trkpt>
      <trkpt lat="44.91272" lon="6.50048">
        <ele>1856.2</ele>
        <time>2024-08-11T12:38:55Z</time>
      </trkpt>
      <trkpt lat="44.91269" lon="6.50048">
        <ele>1856</ele>
        <time>2024-08-11T12:38:56Z</time>
      </trkpt>
      <trkpt lat="44.91269" lon="6.50048">
        <ele>1855.8</ele>
        <time>2024-08-11T12:38:57Z</time>
      </trkpt>
      <trkpt lat="44.91268" lon="6.50049">
        <ele>1855.6</ele>
        <time>2024-08-11T12:38:58Z</time>
      </trkpt>
      <trkpt lat="44.91268" lon="6.50049">
        <ele>1855.4</ele>
        <time>2024-08-11T12:38:59Z</time>
      </trkpt>
      <trkpt lat="44.91266" lon="6.5005">
        <ele>1855.2</ele>
        <time>2024-08-11T12:39:00Z</time>
      </trkpt>
      <trkpt lat="44.91266" lon="6.5005">
        <ele>1855</ele>
        <time>2024-08-11T12:39:01Z</time>
      </trkpt>
      <trkpt lat="44.91266" lon="6.5005">
        <ele>1854.6</ele>
        <time>2024-08-11T12:39:02Z</time>
      </trkpt>
      <trkpt lat="44.91265" lon="6.50047">
        <ele>1854.6</ele>
        <time>2024-08-11T12:39:03Z</time>
      </trkpt>
      <trkpt lat="44.91265" lon="6.50047">
        <ele>1854.2</ele>
        <time>2024-08-11T12:39:04Z</time>
      </trkpt>
      <trkpt lat="44.91265" lon="6.50047">
        <ele>1854</ele>
        <time>2024-08-11T12:39:05Z</time>
      </trkpt>
      <trkpt lat="44.91264" lon="6.50043">
        <ele>1853.6</ele>
        <time>2024-08-11T12:39:06Z</time>
      </trkpt>
      <trkpt lat="44.91264" lon="6.50043">
        <ele>1853.2</ele>
        <time>2024-08-11T12:39:07Z</time>
      </trkpt>
      <trkpt lat="44.91264" lon="6.50043">
        <ele>1852.8</ele>
        <time>2024-08-11T12:39:08Z</time>
      </trkpt>
      <trkpt lat="44.91262" lon="6.50042">
        <ele>1852.6</ele>
        <time>2024-08-11T12:39:09Z</time>
      </trkpt>
      <trkpt lat="44.91262" lon="6.50042">
        <ele>1852.6</ele>
        <time>2024-08-11T12:39:10Z</time>
      </trkpt>
      <trkpt lat="44.9126" lon="6.5004">
        <ele>1852.2</ele>
        <time>2024-08-11T12:39:11Z</time>
      </trkpt>
      <trkpt lat="44.9126" lon="6.5004">
        <ele>1852</ele>
        <time>2024-08-11T12:39:12Z</time>
      </trkpt>
      <trkpt lat="44.91258" lon="6.50038">
        <ele>1851.8</ele>
        <time>2024-08-11T12:39:13Z</time>
      </trkpt>
      <trkpt lat="44.91258" lon="6.50038">
        <ele>1851.4</ele>
        <time>2024-08-11T12:39:14Z</time>
      </trkpt>
      <trkpt lat="44.91256" lon="6.50039">
        <ele>1851.2</ele>
        <time>2024-08-11T12:39:15Z</time>
      </trkpt>
      <trkpt lat="44.91256" lon="6.50039">
        <ele>1851</ele>
        <time>2024-08-11T12:39:16Z</time>
      </trkpt>
      <trkpt lat="44.91255" lon="6.50042">
        <ele>1850.4</ele>
        <time>2024-08-11T12:39:17Z</time>
      </trkpt>
      <trkpt lat="44.91255" lon="6.50042">
        <ele>1850.2</ele>
        <time>2024-08-11T12:39:18Z</time>
      </trkpt>
      <trkpt lat="44.91255" lon="6.50042">
        <ele>1850</ele>
        <time>2024-08-11T12:39:19Z</time>
      </trkpt>
      <trkpt lat="44.91253" lon="6.50042">
        <ele>1850</ele>
        <time>2024-08-11T12:39:20Z</time>
      </trkpt>
      <trkpt lat="44.91253" lon="6.50042">
        <ele>1849.6</ele>
        <time>2024-08-11T12:39:21Z</time>
      </trkpt>
      <trkpt lat="44.91251" lon="6.50041">
        <ele>1849.4</ele>
        <time>2024-08-11T12:39:22Z</time>
      </trkpt>
      <trkpt lat="44.91251" lon="6.50041">
        <ele>1849</ele>
        <time>2024-08-11T12:39:23Z</time>
      </trkpt>
      <trkpt lat="44.91249" lon="6.50041">
        <ele>1849</ele>
        <time>2024-08-11T12:39:24Z</time>
      </trkpt>
      <trkpt lat="44.91249" lon="6.50041">
        <ele>1848.4</ele>
        <time>2024-08-11T12:39:25Z</time>
      </trkpt>
      <trkpt lat="44.91249" lon="6.50041">
        <ele>1848.2</ele>
        <time>2024-08-11T12:39:26Z</time>
      </trkpt>
      <trkpt lat="44.91247" lon="6.50042">
        <ele>1848</ele>
        <time>2024-08-11T12:39:27Z</time>
      </trkpt>
      <trkpt lat="44.91247" lon="6.50042">
        <ele>1847.8</ele>
        <time>2024-08-11T12:39:28Z</time>
      </trkpt>
      <trkpt lat="44.91247" lon="6.50042">
        <ele>1847.6</ele>
        <time>2024-08-11T12:39:29Z</time>
      </trkpt>
      <trkpt lat="44.91247" lon="6.50042">
        <ele>1847.4</ele>
        <time>2024-08-11T12:39:30Z</time>
      </trkpt>
      <trkpt lat="44.91247" lon="6.50042">
        <ele>1847.2</ele>
        <time>2024-08-11T12:39:31Z</time>
      </trkpt>
      <trkpt lat="44.91246" lon="6.50044">
        <ele>1847.2</ele>
        <time>2024-08-11T12:39:32Z</time>
      </trkpt>
      <trkpt lat="44.91246" lon="6.50044">
        <ele>1847</ele>
        <time>2024-08-11T12:39:33Z</time>
      </trkpt>
      <trkpt lat="44.91246" lon="6.50044">
        <ele>1846.8</ele>
        <time>2024-08-11T12:39:34Z</time>
      </trkpt>
      <trkpt lat="44.91244" lon="6.50043">
        <ele>1846.6</ele>
        <time>2024-08-11T12:39:35Z</time>
      </trkpt>
      <trkpt lat="44.91244" lon="6.50043">
        <ele>1846.2</ele>
        <time>2024-08-11T12:39:36Z</time>
      </trkpt>
      <trkpt lat="44.91244" lon="6.50043">
        <ele>1846</ele>
        <time>2024-08-11T12:39:37Z</time>
      </trkpt>
      <trkpt lat="44.91242" lon="6.50039">
        <ele>1845.6</ele>
        <time>2024-08-11T12:39:38Z</time>
      </trkpt>
      <trkpt lat="44.91242" lon="6.50039">
        <ele>1845.4</ele>
        <time>2024-08-11T12:39:39Z</time>
      </trkpt>
      <trkpt lat="44.91243" lon="6.50037">
        <ele>1845.2</ele>
        <time>2024-08-11T12:39:40Z</time>
      </trkpt>
      <trkpt lat="44.91243" lon="6.50037">
        <ele>1845</ele>
        <time>2024-08-11T12:39:41Z</time>
      </trkpt>
      <trkpt lat="44.91242" lon="6.50034">
        <ele>1844.8</ele>
        <time>2024-08-11T12:39:42Z</time>
      </trkpt>
      <trkpt lat="44.91242" lon="6.50034">
        <ele>1844.2</ele>
        <time>2024-08-11T12:39:43Z</time>
      </trkpt>
      <trkpt lat="44.91242" lon="6.50031">
        <ele>1843.8</ele>
        <time>2024-08-11T12:39:44Z</time>
      </trkpt>
      <trkpt lat="44.91242" lon="6.50031">
        <ele>1843.8</ele>
        <time>2024-08-11T12:39:45Z</time>
      </trkpt>
      <trkpt lat="44.91242" lon="6.50031">
        <ele>1843.6</ele>
        <time>2024-08-11T12:39:46Z</time>
      </trkpt>
      <trkpt lat="44.91242" lon="6.50031">
        <ele>1843.2</ele>
        <time>2024-08-11T12:39:47Z</time>
      </trkpt>
      <trkpt lat="44.91239" lon="6.50031">
        <ele>1843.2</ele>
        <time>2024-08-11T12:39:48Z</time>
      </trkpt>
      <trkpt lat="44.91239" lon="6.50031">
        <ele>1843</ele>
        <time>2024-08-11T12:39:49Z</time>
      </trkpt>
      <trkpt lat="44.91239" lon="6.50031">
        <ele>1842.8</ele>
        <time>2024-08-11T12:39:50Z</time>
      </trkpt>
      <trkpt lat="44.91237" lon="6.50029">
        <ele>1842.8</ele>
        <time>2024-08-11T12:39:51Z</time>
      </trkpt>
      <trkpt lat="44.91237" lon="6.50029">
        <ele>1842.4</ele>
        <time>2024-08-11T12:39:52Z</time>
      </trkpt>
      <trkpt lat="44.91237" lon="6.50029">
        <ele>1842.2</ele>
        <time>2024-08-11T12:39:53Z</time>
      </trkpt>
      <trkpt lat="44.91237" lon="6.50029">
        <ele>1841.6</ele>
        <time>2024-08-11T12:39:54Z</time>
      </trkpt>
      <trkpt lat="44.91235" lon="6.50032">
        <ele>1841.4</ele>
        <time>2024-08-11T12:39:55Z</time>
      </trkpt>
      <trkpt lat="44.91235" lon="6.50032">
        <ele>1841.2</ele>
        <time>2024-08-11T12:39:56Z</time>
      </trkpt>
      <trkpt lat="44.91235" lon="6.50032">
        <ele>1841</ele>
        <time>2024-08-11T12:39:57Z</time>
      </trkpt>
      <trkpt lat="44.91233" lon="6.50034">
        <ele>1840.6</ele>
        <time>2024-08-11T12:39:58Z</time>
      </trkpt>
      <trkpt lat="44.91233" lon="6.50034">
        <ele>1840.4</ele>
        <time>2024-08-11T12:39:59Z</time>
      </trkpt>
      <trkpt lat="44.9123" lon="6.50035">
        <ele>1840.2</ele>
        <time>2024-08-11T12:40:00Z</time>
      </trkpt>
      <trkpt lat="44.9123" lon="6.50035">
        <ele>1840</ele>
        <time>2024-08-11T12:40:01Z</time>
      </trkpt>
      <trkpt lat="44.91228" lon="6.50035">
        <ele>1839.2</ele>
        <time>2024-08-11T12:40:02Z</time>
      </trkpt>
      <trkpt lat="44.91228" lon="6.50035">
        <ele>1839.2</ele>
        <time>2024-08-11T12:40:03Z</time>
      </trkpt>
      <trkpt lat="44.91226" lon="6.50035">
        <ele>1838.8</ele>
        <time>2024-08-11T12:40:04Z</time>
      </trkpt>
      <trkpt lat="44.91226" lon="6.50035">
        <ele>1838.4</ele>
        <time>2024-08-11T12:40:05Z</time>
      </trkpt>
      <trkpt lat="44.91224" lon="6.50036">
        <ele>1838.4</ele>
        <time>2024-08-11T12:40:06Z</time>
      </trkpt>
      <trkpt lat="44.91224" lon="6.50036">
        <ele>1838.2</ele>
        <time>2024-08-11T12:40:07Z</time>
      </trkpt>
      <trkpt lat="44.91222" lon="6.50037">
        <ele>1837.8</ele>
        <time>2024-08-11T12:40:08Z</time>
      </trkpt>
      <trkpt lat="44.91222" lon="6.50037">
        <ele>1837.6</ele>
        <time>2024-08-11T12:40:09Z</time>
      </trkpt>
      <trkpt lat="44.91219" lon="6.50037">
        <ele>1837.4</ele>
        <time>2024-08-11T12:40:10Z</time>
      </trkpt>
      <trkpt lat="44.91219" lon="6.50037">
        <ele>1837</ele>
        <time>2024-08-11T12:40:11Z</time>
      </trkpt>
      <trkpt lat="44.91219" lon="6.50037">
        <ele>1836.4</ele>
        <time>2024-08-11T12:40:12Z</time>
      </trkpt>
      <trkpt lat="44.91218" lon="6.50035">
        <ele>1836.2</ele>
        <time>2024-08-11T12:40:13Z</time>
      </trkpt>
      <trkpt lat="44.91218" lon="6.50035">
        <ele>1836.2</ele>
        <time>2024-08-11T12:40:14Z</time>
      </trkpt>
      <trkpt lat="44.91218" lon="6.50035">
        <ele>1836.2</ele>
        <time>2024-08-11T12:40:15Z</time>
      </trkpt>
      <trkpt lat="44.91219" lon="6.50032">
        <ele>1836.2</ele>
        <time>2024-08-11T12:40:16Z</time>
      </trkpt>
      <trkpt lat="44.91219" lon="6.50032">
        <ele>1836</ele>
        <time>2024-08-11T12:40:17Z</time>
      </trkpt>
      <trkpt lat="44.91219" lon="6.50032">
        <ele>1835.8</ele>
        <time>2024-08-11T12:40:18Z</time>
      </trkpt>
      <trkpt lat="44.91219" lon="6.50032">
        <ele>1835.6</ele>
        <time>2024-08-11T12:40:19Z</time>
      </trkpt>
      <trkpt lat="44.91219" lon="6.50032">
        <ele>1835.6</ele>
        <time>2024-08-11T12:40:20Z</time>
      </trkpt>
      <trkpt lat="44.91219" lon="6.50029">
        <ele>1835.4</ele>
        <time>2024-08-11T12:40:21Z</time>
      </trkpt>
      <trkpt lat="44.91219" lon="6.50029">
        <ele>1835</ele>
        <time>2024-08-11T12:40:22Z</time>
      </trkpt>
      <trkpt lat="44.91219" lon="6.50029">
        <ele>1834.8</ele>
        <time>2024-08-11T12:40:23Z</time>
      </trkpt>
      <trkpt lat="44.91219" lon="6.50029">
        <ele>1834.6</ele>
        <time>2024-08-11T12:40:24Z</time>
      </trkpt>
      <trkpt lat="44.91217" lon="6.50027">
        <ele>1834.4</ele>
        <time>2024-08-11T12:40:25Z</time>
      </trkpt>
      <trkpt lat="44.91217" lon="6.50027">
        <ele>1833.8</ele>
        <time>2024-08-11T12:40:26Z</time>
      </trkpt>
      <trkpt lat="44.91217" lon="6.50027">
        <ele>1833.6</ele>
        <time>2024-08-11T12:40:27Z</time>
      </trkpt>
      <trkpt lat="44.91215" lon="6.50029">
        <ele>1833.2</ele>
        <time>2024-08-11T12:40:28Z</time>
      </trkpt>
      <trkpt lat="44.91215" lon="6.50029">
        <ele>1832.8</ele>
        <time>2024-08-11T12:40:29Z</time>
      </trkpt>
      <trkpt lat="44.91215" lon="6.50029">
        <ele>1832.6</ele>
        <time>2024-08-11T12:40:30Z</time>
      </trkpt>
      <trkpt lat="44.91213" lon="6.5003">
        <ele>1832.6</ele>
        <time>2024-08-11T12:40:31Z</time>
      </trkpt>
      <trkpt lat="44.91213" lon="6.5003">
        <ele>1832.4</ele>
        <time>2024-08-11T12:40:32Z</time>
      </trkpt>
      <trkpt lat="44.91211" lon="6.50029">
        <ele>1832</ele>
        <time>2024-08-11T12:40:33Z</time>
      </trkpt>
      <trkpt lat="44.91211" lon="6.50029">
        <ele>1832</ele>
        <time>2024-08-11T12:40:34Z</time>
      </trkpt>
      <trkpt lat="44.91209" lon="6.50029">
        <ele>1831.8</ele>
        <time>2024-08-11T12:40:35Z</time>
      </trkpt>
      <trkpt lat="44.91209" lon="6.50029">
        <ele>1831.4</ele>
        <time>2024-08-11T12:40:36Z</time>
      </trkpt>
      <trkpt lat="44.91207" lon="6.50027">
        <ele>1831.2</ele>
        <time>2024-08-11T12:40:37Z</time>
      </trkpt>
      <trkpt lat="44.91207" lon="6.50027">
        <ele>1831</ele>
        <time>2024-08-11T12:40:38Z</time>
      </trkpt>
      <trkpt lat="44.91206" lon="6.50025">
        <ele>1831</ele>
        <time>2024-08-11T12:40:39Z</time>
      </trkpt>
      <trkpt lat="44.91206" lon="6.50025">
        <ele>1830.8</ele>
        <time>2024-08-11T12:40:40Z</time>
      </trkpt>
      <trkpt lat="44.91205" lon="6.50024">
        <ele>1830.6</ele>
        <time>2024-08-11T12:40:41Z</time>
      </trkpt>
      <trkpt lat="44.91205" lon="6.50024">
        <ele>1830.2</ele>
        <time>2024-08-11T12:40:42Z</time>
      </trkpt>
      <trkpt lat="44.91203" lon="6.50023">
        <ele>1830</ele>
        <time>2024-08-11T12:40:43Z</time>
      </trkpt>
      <trkpt lat="44.91203" lon="6.50023">
        <ele>1829.8</ele>
        <time>2024-08-11T12:40:44Z</time>
      </trkpt>
      <trkpt lat="44.91201" lon="6.5002">
        <ele>1829.8</ele>
        <time>2024-08-11T12:40:45Z</time>
      </trkpt>
      <trkpt lat="44.91201" lon="6.5002">
        <ele>1829.4</ele>
        <time>2024-08-11T12:40:46Z</time>
      </trkpt>
      <trkpt lat="44.91199" lon="6.50018">
        <ele>1829.2</ele>
        <time>2024-08-11T12:40:47Z</time>
      </trkpt>
      <trkpt lat="44.91199" lon="6.50018">
        <ele>1829</ele>
        <time>2024-08-11T12:40:48Z</time>
      </trkpt>
      <trkpt lat="44.91197" lon="6.50017">
        <ele>1828.6</ele>
        <time>2024-08-11T12:40:49Z</time>
      </trkpt>
      <trkpt lat="44.91197" lon="6.50017">
        <ele>1828.2</ele>
        <time>2024-08-11T12:40:50Z</time>
      </trkpt>
      <trkpt lat="44.91195" lon="6.50015">
        <ele>1828</ele>
        <time>2024-08-11T12:40:51Z</time>
      </trkpt>
      <trkpt lat="44.91195" lon="6.50015">
        <ele>1827.8</ele>
        <time>2024-08-11T12:40:52Z</time>
      </trkpt>
      <trkpt lat="44.91193" lon="6.50014">
        <ele>1827.8</ele>
        <time>2024-08-11T12:40:53Z</time>
      </trkpt>
      <trkpt lat="44.91193" lon="6.50014">
        <ele>1827.4</ele>
        <time>2024-08-11T12:40:54Z</time>
      </trkpt>
      <trkpt lat="44.91191" lon="6.50013">
        <ele>1826.8</ele>
        <time>2024-08-11T12:40:55Z</time>
      </trkpt>
      <trkpt lat="44.91191" lon="6.50013">
        <ele>1826.8</ele>
        <time>2024-08-11T12:40:56Z</time>
      </trkpt>
      <trkpt lat="44.91189" lon="6.50012">
        <ele>1826.6</ele>
        <time>2024-08-11T12:40:57Z</time>
      </trkpt>
      <trkpt lat="44.91189" lon="6.50012">
        <ele>1826.4</ele>
        <time>2024-08-11T12:40:58Z</time>
      </trkpt>
      <trkpt lat="44.91187" lon="6.50012">
        <ele>1826.2</ele>
        <time>2024-08-11T12:40:59Z</time>
      </trkpt>
      <trkpt lat="44.91187" lon="6.50012">
        <ele>1825.8</ele>
        <time>2024-08-11T12:41:00Z</time>
      </trkpt>
      <trkpt lat="44.91185" lon="6.50011">
        <ele>1825.4</ele>
        <time>2024-08-11T12:41:01Z</time>
      </trkpt>
      <trkpt lat="44.91185" lon="6.50011">
        <ele>1825.4</ele>
        <time>2024-08-11T12:41:02Z</time>
      </trkpt>
      <trkpt lat="44.91182" lon="6.50012">
        <ele>1825.4</ele>
        <time>2024-08-11T12:41:03Z</time>
      </trkpt>
      <trkpt lat="44.91182" lon="6.50012">
        <ele>1825.4</ele>
        <time>2024-08-11T12:41:04Z</time>
      </trkpt>
      <trkpt lat="44.91181" lon="6.50013">
        <ele>1825.2</ele>
        <time>2024-08-11T12:41:05Z</time>
      </trkpt>
      <trkpt lat="44.91181" lon="6.50013">
        <ele>1824.8</ele>
        <time>2024-08-11T12:41:06Z</time>
      </trkpt>
      <trkpt lat="44.91178" lon="6.50014">
        <ele>1824.4</ele>
        <time>2024-08-11T12:41:07Z</time>
      </trkpt>
      <trkpt lat="44.91178" lon="6.50014">
        <ele>1824.2</ele>
        <time>2024-08-11T12:41:08Z</time>
      </trkpt>
      <trkpt lat="44.91175" lon="6.50013">
        <ele>1824</ele>
        <time>2024-08-11T12:41:09Z</time>
      </trkpt>
      <trkpt lat="44.91175" lon="6.50013">
        <ele>1823.8</ele>
        <time>2024-08-11T12:41:10Z</time>
      </trkpt>
      <trkpt lat="44.91173" lon="6.50011">
        <ele>1823.6</ele>
        <time>2024-08-11T12:41:11Z</time>
      </trkpt>
      <trkpt lat="44.91173" lon="6.50011">
        <ele>1823.4</ele>
        <time>2024-08-11T12:41:12Z</time>
      </trkpt>
      <trkpt lat="44.91171" lon="6.50011">
        <ele>1823.4</ele>
        <time>2024-08-11T12:41:13Z</time>
      </trkpt>
      <trkpt lat="44.91171" lon="6.50011">
        <ele>1823.4</ele>
        <time>2024-08-11T12:41:14Z</time>
      </trkpt>
      <trkpt lat="44.91169" lon="6.5001">
        <ele>1823.2</ele>
        <time>2024-08-11T12:41:15Z</time>
      </trkpt>
      <trkpt lat="44.91169" lon="6.5001">
        <ele>1822.8</ele>
        <time>2024-08-11T12:41:16Z</time>
      </trkpt>
      <trkpt lat="44.91167" lon="6.50009">
        <ele>1822.8</ele>
        <time>2024-08-11T12:41:17Z</time>
      </trkpt>
      <trkpt lat="44.91167" lon="6.50009">
        <ele>1822.8</ele>
        <time>2024-08-11T12:41:18Z</time>
      </trkpt>
      <trkpt lat="44.91165" lon="6.5001">
        <ele>1822.6</ele>
        <time>2024-08-11T12:41:19Z</time>
      </trkpt>
      <trkpt lat="44.91165" lon="6.5001">
        <ele>1822.6</ele>
        <time>2024-08-11T12:41:20Z</time>
      </trkpt>
      <trkpt lat="44.91162" lon="6.50009">
        <ele>1822.2</ele>
        <time>2024-08-11T12:41:21Z</time>
      </trkpt>
      <trkpt lat="44.91162" lon="6.50009">
        <ele>1821.8</ele>
        <time>2024-08-11T12:41:22Z</time>
      </trkpt>
      <trkpt lat="44.9116" lon="6.50008">
        <ele>1821.4</ele>
        <time>2024-08-11T12:41:23Z</time>
      </trkpt>
      <trkpt lat="44.9116" lon="6.50008">
        <ele>1821.4</ele>
        <time>2024-08-11T12:41:24Z</time>
      </trkpt>
      <trkpt lat="44.91157" lon="6.50007">
        <ele>1821.2</ele>
        <time>2024-08-11T12:41:25Z</time>
      </trkpt>
      <trkpt lat="44.91157" lon="6.50007">
        <ele>1821</ele>
        <time>2024-08-11T12:41:26Z</time>
      </trkpt>
      <trkpt lat="44.91155" lon="6.50005">
        <ele>1820.8</ele>
        <time>2024-08-11T12:41:27Z</time>
      </trkpt>
      <trkpt lat="44.91155" lon="6.50005">
        <ele>1820.8</ele>
        <time>2024-08-11T12:41:28Z</time>
      </trkpt>
      <trkpt lat="44.91153" lon="6.50004">
        <ele>1820.8</ele>
        <time>2024-08-11T12:41:29Z</time>
      </trkpt>
      <trkpt lat="44.91153" lon="6.50004">
        <ele>1820.8</ele>
        <time>2024-08-11T12:41:30Z</time>
      </trkpt>
      <trkpt lat="44.9115" lon="6.50002">
        <ele>1820.8</ele>
        <time>2024-08-11T12:41:31Z</time>
      </trkpt>
      <trkpt lat="44.9115" lon="6.50002">
        <ele>1820.8</ele>
        <time>2024-08-11T12:41:32Z</time>
      </trkpt>
      <trkpt lat="44.91148" lon="6.49999">
        <ele>1820.6</ele>
        <time>2024-08-11T12:41:33Z</time>
      </trkpt>
      <trkpt lat="44.91148" lon="6.49999">
        <ele>1820.4</ele>
        <time>2024-08-11T12:41:34Z</time>
      </trkpt>
      <trkpt lat="44.91146" lon="6.49998">
        <ele>1820.4</ele>
        <time>2024-08-11T12:41:35Z</time>
      </trkpt>
      <trkpt lat="44.91146" lon="6.49998">
        <ele>1820.2</ele>
        <time>2024-08-11T12:41:36Z</time>
      </trkpt>
      <trkpt lat="44.91145" lon="6.49996">
        <ele>1820.2</ele>
        <time>2024-08-11T12:41:37Z</time>
      </trkpt>
      <trkpt lat="44.91145" lon="6.49996">
        <ele>1820</ele>
        <time>2024-08-11T12:41:38Z</time>
      </trkpt>
      <trkpt lat="44.91143" lon="6.49994">
        <ele>1819.6</ele>
        <time>2024-08-11T12:41:39Z</time>
      </trkpt>
      <trkpt lat="44.91143" lon="6.49994">
        <ele>1819.2</ele>
        <time>2024-08-11T12:41:40Z</time>
      </trkpt>
      <trkpt lat="44.91141" lon="6.49992">
        <ele>1819.2</ele>
        <time>2024-08-11T12:41:41Z</time>
      </trkpt>
      <trkpt lat="44.91141" lon="6.49992">
        <ele>1819</ele>
        <time>2024-08-11T12:41:42Z</time>
      </trkpt>
      <trkpt lat="44.91139" lon="6.4999">
        <ele>1819</ele>
        <time>2024-08-11T12:41:43Z</time>
      </trkpt>
      <trkpt lat="44.91139" lon="6.4999">
        <ele>1818.8</ele>
        <time>2024-08-11T12:41:44Z</time>
      </trkpt>
      <trkpt lat="44.91137" lon="6.49989">
        <ele>1818.6</ele>
        <time>2024-08-11T12:41:45Z</time>
      </trkpt>
      <trkpt lat="44.91137" lon="6.49989">
        <ele>1818.6</ele>
        <time>2024-08-11T12:41:46Z</time>
      </trkpt>
      <trkpt lat="44.91135" lon="6.49989">
        <ele>1818.4</ele>
        <time>2024-08-11T12:41:47Z</time>
      </trkpt>
      <trkpt lat="44.91135" lon="6.49989">
        <ele>1818.2</ele>
        <time>2024-08-11T12:41:48Z</time>
      </trkpt>
      <trkpt lat="44.91135" lon="6.49989">
        <ele>1818.2</ele>
        <time>2024-08-11T12:41:49Z</time>
      </trkpt>
      <trkpt lat="44.91133" lon="6.49987">
        <ele>1817.8</ele>
        <time>2024-08-11T12:41:50Z</time>
      </trkpt>
      <trkpt lat="44.91133" lon="6.49987">
        <ele>1817.4</ele>
        <time>2024-08-11T12:41:51Z</time>
      </trkpt>
      <trkpt lat="44.91131" lon="6.49987">
        <ele>1817.2</ele>
        <time>2024-08-11T12:41:52Z</time>
      </trkpt>
      <trkpt lat="44.91131" lon="6.49987">
        <ele>1817</ele>
        <time>2024-08-11T12:41:53Z</time>
      </trkpt>
      <trkpt lat="44.91131" lon="6.49987">
        <ele>1817</ele>
        <time>2024-08-11T12:41:54Z</time>
      </trkpt>
      <trkpt lat="44.91128" lon="6.49985">
        <ele>1816.6</ele>
        <time>2024-08-11T12:41:55Z</time>
      </trkpt>
      <trkpt lat="44.91128" lon="6.49985">
        <ele>1816.2</ele>
        <time>2024-08-11T12:41:56Z</time>
      </trkpt>
      <trkpt lat="44.91126" lon="6.49984">
        <ele>1816</ele>
        <time>2024-08-11T12:41:57Z</time>
      </trkpt>
      <trkpt lat="44.91126" lon="6.49984">
        <ele>1815.8</ele>
        <time>2024-08-11T12:41:58Z</time>
      </trkpt>
      <trkpt lat="44.91124" lon="6.49983">
        <ele>1815.8</ele>
        <time>2024-08-11T12:41:59Z</time>
      </trkpt>
      <trkpt lat="44.91124" lon="6.49983">
        <ele>1815.4</ele>
        <time>2024-08-11T12:42:00Z</time>
      </trkpt>
      <trkpt lat="44.91121" lon="6.49981">
        <ele>1815.2</ele>
        <time>2024-08-11T12:42:01Z</time>
      </trkpt>
      <trkpt lat="44.91121" lon="6.49981">
        <ele>1814.4</ele>
        <time>2024-08-11T12:42:02Z</time>
      </trkpt>
      <trkpt lat="44.91119" lon="6.49981">
        <ele>1814.4</ele>
        <time>2024-08-11T12:42:03Z</time>
      </trkpt>
      <trkpt lat="44.91119" lon="6.49981">
        <ele>1814.2</ele>
        <time>2024-08-11T12:42:04Z</time>
      </trkpt>
      <trkpt lat="44.91117" lon="6.49981">
        <ele>1814.2</ele>
        <time>2024-08-11T12:42:05Z</time>
      </trkpt>
      <trkpt lat="44.91117" lon="6.49981">
        <ele>1814</ele>
        <time>2024-08-11T12:42:06Z</time>
      </trkpt>
      <trkpt lat="44.91115" lon="6.49981">
        <ele>1813.8</ele>
        <time>2024-08-11T12:42:07Z</time>
      </trkpt>
      <trkpt lat="44.91115" lon="6.49981">
        <ele>1813.6</ele>
        <time>2024-08-11T12:42:08Z</time>
      </trkpt>
      <trkpt lat="44.91113" lon="6.49979">
        <ele>1813.6</ele>
        <time>2024-08-11T12:42:09Z</time>
      </trkpt>
      <trkpt lat="44.91113" lon="6.49979">
        <ele>1813.6</ele>
        <time>2024-08-11T12:42:10Z</time>
      </trkpt>
      <trkpt lat="44.9111" lon="6.49977">
        <ele>1813.2</ele>
        <time>2024-08-11T12:42:11Z</time>
      </trkpt>
      <trkpt lat="44.9111" lon="6.49977">
        <ele>1813</ele>
        <time>2024-08-11T12:42:12Z</time>
      </trkpt>
      <trkpt lat="44.91108" lon="6.49975">
        <ele>1812.8</ele>
        <time>2024-08-11T12:42:13Z</time>
      </trkpt>
      <trkpt lat="44.91108" lon="6.49975">
        <ele>1812.6</ele>
        <time>2024-08-11T12:42:14Z</time>
      </trkpt>
      <trkpt lat="44.91108" lon="6.49975">
        <ele>1812.4</ele>
        <time>2024-08-11T12:42:15Z</time>
      </trkpt>
      <trkpt lat="44.91105" lon="6.49975">
        <ele>1812.4</ele>
        <time>2024-08-11T12:42:16Z</time>
      </trkpt>
      <trkpt lat="44.91105" lon="6.49975">
        <ele>1812.4</ele>
        <time>2024-08-11T12:42:17Z</time>
      </trkpt>
      <trkpt lat="44.91103" lon="6.49973">
        <ele>1812.4</ele>
        <time>2024-08-11T12:42:18Z</time>
      </trkpt>
      <trkpt lat="44.91103" lon="6.49973">
        <ele>1812</ele>
        <time>2024-08-11T12:42:19Z</time>
      </trkpt>
      <trkpt lat="44.91101" lon="6.49972">
        <ele>1811.4</ele>
        <time>2024-08-11T12:42:20Z</time>
      </trkpt>
      <trkpt lat="44.91101" lon="6.49972">
        <ele>1811.4</ele>
        <time>2024-08-11T12:42:21Z</time>
      </trkpt>
      <trkpt lat="44.91098" lon="6.49972">
        <ele>1811.4</ele>
        <time>2024-08-11T12:42:22Z</time>
      </trkpt>
      <trkpt lat="44.91098" lon="6.49972">
        <ele>1811</ele>
        <time>2024-08-11T12:42:23Z</time>
      </trkpt>
      <trkpt lat="44.91096" lon="6.49971">
        <ele>1810.8</ele>
        <time>2024-08-11T12:42:24Z</time>
      </trkpt>
      <trkpt lat="44.91096" lon="6.49971">
        <ele>1810.8</ele>
        <time>2024-08-11T12:42:25Z</time>
      </trkpt>
      <trkpt lat="44.91093" lon="6.4997">
        <ele>1810.8</ele>
        <time>2024-08-11T12:42:26Z</time>
      </trkpt>
      <trkpt lat="44.91093" lon="6.4997">
        <ele>1810.8</ele>
        <time>2024-08-11T12:42:27Z</time>
      </trkpt>
      <trkpt lat="44.91093" lon="6.4997">
        <ele>1810.2</ele>
        <time>2024-08-11T12:42:28Z</time>
      </trkpt>
      <trkpt lat="44.91092" lon="6.4997">
        <ele>1810.2</ele>
        <time>2024-08-11T12:42:29Z</time>
      </trkpt>
      <trkpt lat="44.91092" lon="6.4997">
        <ele>1810.2</ele>
        <time>2024-08-11T12:42:30Z</time>
      </trkpt>
      <trkpt lat="44.9109" lon="6.49968">
        <ele>1809.8</ele>
        <time>2024-08-11T12:42:31Z</time>
      </trkpt>
      <trkpt lat="44.9109" lon="6.49968">
        <ele>1809.8</ele>
        <time>2024-08-11T12:42:32Z</time>
      </trkpt>
      <trkpt lat="44.9109" lon="6.49968">
        <ele>1809.6</ele>
        <time>2024-08-11T12:42:33Z</time>
      </trkpt>
      <trkpt lat="44.91088" lon="6.49966">
        <ele>1809.2</ele>
        <time>2024-08-11T12:42:34Z</time>
      </trkpt>
      <trkpt lat="44.91088" lon="6.49966">
        <ele>1808.8</ele>
        <time>2024-08-11T12:42:35Z</time>
      </trkpt>
      <trkpt lat="44.91086" lon="6.49966">
        <ele>1808.8</ele>
        <time>2024-08-11T12:42:36Z</time>
      </trkpt>
      <trkpt lat="44.91086" lon="6.49966">
        <ele>1808.6</ele>
        <time>2024-08-11T12:42:37Z</time>
      </trkpt>
      <trkpt lat="44.91084" lon="6.49965">
        <ele>1808.4</ele>
        <time>2024-08-11T12:42:38Z</time>
      </trkpt>
      <trkpt lat="44.91084" lon="6.49965">
        <ele>1807.8</ele>
        <time>2024-08-11T12:42:39Z</time>
      </trkpt>
      <trkpt lat="44.91082" lon="6.49963">
        <ele>1807.4</ele>
        <time>2024-08-11T12:42:40Z</time>
      </trkpt>
      <trkpt lat="44.91082" lon="6.49963">
        <ele>1807.4</ele>
        <time>2024-08-11T12:42:41Z</time>
      </trkpt>
      <trkpt lat="44.9108" lon="6.49961">
        <ele>1807.4</ele>
        <time>2024-08-11T12:42:42Z</time>
      </trkpt>
      <trkpt lat="44.9108" lon="6.49961">
        <ele>1807</ele>
        <time>2024-08-11T12:42:43Z</time>
      </trkpt>
      <trkpt lat="44.91079" lon="6.49959">
        <ele>1806.8</ele>
        <time>2024-08-11T12:42:44Z</time>
      </trkpt>
      <trkpt lat="44.91079" lon="6.49959">
        <ele>1806.6</ele>
        <time>2024-08-11T12:42:45Z</time>
      </trkpt>
      <trkpt lat="44.91077" lon="6.49957">
        <ele>1806.4</ele>
        <time>2024-08-11T12:42:46Z</time>
      </trkpt>
      <trkpt lat="44.91077" lon="6.49957">
        <ele>1806.2</ele>
        <time>2024-08-11T12:42:47Z</time>
      </trkpt>
      <trkpt lat="44.91075" lon="6.49955">
        <ele>1806</ele>
        <time>2024-08-11T12:42:48Z</time>
      </trkpt>
      <trkpt lat="44.91075" lon="6.49955">
        <ele>1805.8</ele>
        <time>2024-08-11T12:42:49Z</time>
      </trkpt>
      <trkpt lat="44.91073" lon="6.49953">
        <ele>1805.4</ele>
        <time>2024-08-11T12:42:50Z</time>
      </trkpt>
      <trkpt lat="44.91073" lon="6.49953">
        <ele>1805</ele>
        <time>2024-08-11T12:42:51Z</time>
      </trkpt>
      <trkpt lat="44.91071" lon="6.49951">
        <ele>1804.8</ele>
        <time>2024-08-11T12:42:52Z</time>
      </trkpt>
      <trkpt lat="44.91071" lon="6.49951">
        <ele>1804.4</ele>
        <time>2024-08-11T12:42:53Z</time>
      </trkpt>
      <trkpt lat="44.9107" lon="6.4995">
        <ele>1804.4</ele>
        <time>2024-08-11T12:42:54Z</time>
      </trkpt>
      <trkpt lat="44.9107" lon="6.4995">
        <ele>1804.2</ele>
        <time>2024-08-11T12:42:55Z</time>
      </trkpt>
      <trkpt lat="44.91068" lon="6.49949">
        <ele>1804</ele>
        <time>2024-08-11T12:42:56Z</time>
      </trkpt>
      <trkpt lat="44.91068" lon="6.49949">
        <ele>1803.8</ele>
        <time>2024-08-11T12:42:57Z</time>
      </trkpt>
      <trkpt lat="44.91066" lon="6.49947">
        <ele>1803.8</ele>
        <time>2024-08-11T12:42:58Z</time>
      </trkpt>
      <trkpt lat="44.91066" lon="6.49947">
        <ele>1803.4</ele>
        <time>2024-08-11T12:42:59Z</time>
      </trkpt>
      <trkpt lat="44.91063" lon="6.49945">
        <ele>1803.4</ele>
        <time>2024-08-11T12:43:00Z</time>
      </trkpt>
      <trkpt lat="44.91063" lon="6.49945">
        <ele>1803</ele>
        <time>2024-08-11T12:43:01Z</time>
      </trkpt>
      <trkpt lat="44.91061" lon="6.49943">
        <ele>1802.4</ele>
        <time>2024-08-11T12:43:02Z</time>
      </trkpt>
      <trkpt lat="44.91061" lon="6.49943">
        <ele>1802.4</ele>
        <time>2024-08-11T12:43:03Z</time>
      </trkpt>
      <trkpt lat="44.91058" lon="6.49941">
        <ele>1802.2</ele>
        <time>2024-08-11T12:43:04Z</time>
      </trkpt>
      <trkpt lat="44.91058" lon="6.49941">
        <ele>1802</ele>
        <time>2024-08-11T12:43:05Z</time>
      </trkpt>
      <trkpt lat="44.91056" lon="6.4994">
        <ele>1801.8</ele>
        <time>2024-08-11T12:43:06Z</time>
      </trkpt>
      <trkpt lat="44.91056" lon="6.4994">
        <ele>1801.6</ele>
        <time>2024-08-11T12:43:07Z</time>
      </trkpt>
      <trkpt lat="44.91053" lon="6.49938">
        <ele>1801.2</ele>
        <time>2024-08-11T12:43:08Z</time>
      </trkpt>
      <trkpt lat="44.91053" lon="6.49938">
        <ele>1800.8</ele>
        <time>2024-08-11T12:43:09Z</time>
      </trkpt>
      <trkpt lat="44.91053" lon="6.49938">
        <ele>1800.6</ele>
        <time>2024-08-11T12:43:10Z</time>
      </trkpt>
      <trkpt lat="44.91053" lon="6.49938">
        <ele>1800.6</ele>
        <time>2024-08-11T12:43:11Z</time>
      </trkpt>
      <trkpt lat="44.91053" lon="6.49938">
        <ele>1800.6</ele>
        <time>2024-08-11T12:43:12Z</time>
      </trkpt>
      <trkpt lat="44.91053" lon="6.49938">
        <ele>1800.6</ele>
        <time>2024-08-11T12:43:13Z</time>
      </trkpt>
      <trkpt lat="44.91053" lon="6.49938">
        <ele>1800.4</ele>
        <time>2024-08-11T12:43:14Z</time>
      </trkpt>
      <trkpt lat="44.91053" lon="6.49938">
        <ele>1800.4</ele>
        <time>2024-08-11T12:43:15Z</time>
      </trkpt>
      <trkpt lat="44.91053" lon="6.49938">
        <ele>1800.4</ele>
        <time>2024-08-11T12:43:16Z</time>
      </trkpt>
      <trkpt lat="44.91053" lon="6.49938">
        <ele>1800.4</ele>
        <time>2024-08-11T12:43:17Z</time>
      </trkpt>
      <trkpt lat="44.91053" lon="6.49938">
        <ele>1800.4</ele>
        <time>2024-08-11T12:43:18Z</time>
      </trkpt>
      <trkpt lat="44.91053" lon="6.49938">
        <ele>1800.6</ele>
        <time>2024-08-11T12:43:19Z</time>
      </trkpt>
      <trkpt lat="44.91053" lon="6.49938">
        <ele>1800.6</ele>
        <time>2024-08-11T12:43:20Z</time>
      </trkpt>
      <trkpt lat="44.91053" lon="6.49938">
        <ele>1800.8</ele>
        <time>2024-08-11T12:43:21Z</time>
      </trkpt>
      <trkpt lat="44.91053" lon="6.49938">
        <ele>1800.8</ele>
        <time>2024-08-11T12:43:22Z</time>
      </trkpt>
      <trkpt lat="44.91052" lon="6.49935">
        <ele>1800.4</ele>
        <time>2024-08-11T12:43:23Z</time>
      </trkpt>
      <trkpt lat="44.91052" lon="6.49935">
        <ele>1800</ele>
        <time>2024-08-11T12:43:24Z</time>
      </trkpt>
      <trkpt lat="44.9105" lon="6.49934">
        <ele>1800</ele>
        <time>2024-08-11T12:43:25Z</time>
      </trkpt>
      <trkpt lat="44.9105" lon="6.49934">
        <ele>1800</ele>
        <time>2024-08-11T12:43:26Z</time>
      </trkpt>
      <trkpt lat="44.91046" lon="6.49932">
        <ele>1799.6</ele>
        <time>2024-08-11T12:43:27Z</time>
      </trkpt>
      <trkpt lat="44.91045" lon="6.49931">
        <ele>1799.4</ele>
        <time>2024-08-11T12:43:28Z</time>
      </trkpt>
      <trkpt lat="44.91043" lon="6.49931">
        <ele>1799</ele>
        <time>2024-08-11T12:43:29Z</time>
      </trkpt>
      <trkpt lat="44.91043" lon="6.49931">
        <ele>1798.2</ele>
        <time>2024-08-11T12:43:30Z</time>
      </trkpt>
      <trkpt lat="44.9104" lon="6.49928">
        <ele>1798</ele>
        <time>2024-08-11T12:43:31Z</time>
      </trkpt>
      <trkpt lat="44.9104" lon="6.49928">
        <ele>1798.6</ele>
        <time>2024-08-11T12:43:32Z</time>
      </trkpt>
      <trkpt lat="44.91037" lon="6.49927">
        <ele>1798.8</ele>
        <time>2024-08-11T12:43:33Z</time>
      </trkpt>
      <trkpt lat="44.91037" lon="6.49927">
        <ele>1798.8</ele>
        <time>2024-08-11T12:43:34Z</time>
      </trkpt>
      <trkpt lat="44.91035" lon="6.49926">
        <ele>1798.8</ele>
        <time>2024-08-11T12:43:35Z</time>
      </trkpt>
      <trkpt lat="44.91035" lon="6.49926">
        <ele>1798.8</ele>
        <time>2024-08-11T12:43:36Z</time>
      </trkpt>
      <trkpt lat="44.91032" lon="6.49926">
        <ele>1798.8</ele>
        <time>2024-08-11T12:43:37Z</time>
      </trkpt>
      <trkpt lat="44.91032" lon="6.49926">
        <ele>1798.6</ele>
        <time>2024-08-11T12:43:38Z</time>
      </trkpt>
      <trkpt lat="44.91029" lon="6.49924">
        <ele>1798.8</ele>
        <time>2024-08-11T12:43:39Z</time>
      </trkpt>
      <trkpt lat="44.91029" lon="6.49924">
        <ele>1798.6</ele>
        <time>2024-08-11T12:43:40Z</time>
      </trkpt>
      <trkpt lat="44.91026" lon="6.49923">
        <ele>1798.2</ele>
        <time>2024-08-11T12:43:41Z</time>
      </trkpt>
      <trkpt lat="44.91026" lon="6.49923">
        <ele>1798.2</ele>
        <time>2024-08-11T12:43:42Z</time>
      </trkpt>
      <trkpt lat="44.91023" lon="6.49922">
        <ele>1798.2</ele>
        <time>2024-08-11T12:43:43Z</time>
      </trkpt>
      <trkpt lat="44.91023" lon="6.49922">
        <ele>1798.2</ele>
        <time>2024-08-11T12:43:44Z</time>
      </trkpt>
      <trkpt lat="44.9102" lon="6.49922">
        <ele>1798</ele>
        <time>2024-08-11T12:43:45Z</time>
      </trkpt>
      <trkpt lat="44.9102" lon="6.49922">
        <ele>1798</ele>
        <time>2024-08-11T12:43:46Z</time>
      </trkpt>
      <trkpt lat="44.91018" lon="6.49921">
        <ele>1797.6</ele>
        <time>2024-08-11T12:43:47Z</time>
      </trkpt>
      <trkpt lat="44.91018" lon="6.49921">
        <ele>1797.4</ele>
        <time>2024-08-11T12:43:48Z</time>
      </trkpt>
      <trkpt lat="44.91014" lon="6.49922">
        <ele>1797.2</ele>
        <time>2024-08-11T12:43:49Z</time>
      </trkpt>
      <trkpt lat="44.91014" lon="6.49922">
        <ele>1797</ele>
        <time>2024-08-11T12:43:50Z</time>
      </trkpt>
      <trkpt lat="44.91012" lon="6.49923">
        <ele>1797</ele>
        <time>2024-08-11T12:43:51Z</time>
      </trkpt>
      <trkpt lat="44.91012" lon="6.49923">
        <ele>1797</ele>
        <time>2024-08-11T12:43:52Z</time>
      </trkpt>
      <trkpt lat="44.91012" lon="6.49923">
        <ele>1796.8</ele>
        <time>2024-08-11T12:43:53Z</time>
      </trkpt>
      <trkpt lat="44.9101" lon="6.49922">
        <ele>1796.6</ele>
        <time>2024-08-11T12:43:54Z</time>
      </trkpt>
      <trkpt lat="44.9101" lon="6.49922">
        <ele>1796.4</ele>
        <time>2024-08-11T12:43:55Z</time>
      </trkpt>
      <trkpt lat="44.91008" lon="6.4992">
        <ele>1796</ele>
        <time>2024-08-11T12:43:56Z</time>
      </trkpt>
      <trkpt lat="44.91008" lon="6.4992">
        <ele>1796</ele>
        <time>2024-08-11T12:43:57Z</time>
      </trkpt>
      <trkpt lat="44.91006" lon="6.49919">
        <ele>1795.6</ele>
        <time>2024-08-11T12:43:58Z</time>
      </trkpt>
      <trkpt lat="44.91006" lon="6.49919">
        <ele>1795.4</ele>
        <time>2024-08-11T12:43:59Z</time>
      </trkpt>
      <trkpt lat="44.91004" lon="6.49919">
        <ele>1795</ele>
        <time>2024-08-11T12:44:00Z</time>
      </trkpt>
      <trkpt lat="44.91004" lon="6.49919">
        <ele>1794.6</ele>
        <time>2024-08-11T12:44:01Z</time>
      </trkpt>
      <trkpt lat="44.91002" lon="6.49919">
        <ele>1794.4</ele>
        <time>2024-08-11T12:44:02Z</time>
      </trkpt>
      <trkpt lat="44.91002" lon="6.49919">
        <ele>1794.4</ele>
        <time>2024-08-11T12:44:03Z</time>
      </trkpt>
      <trkpt lat="44.90999" lon="6.49918">
        <ele>1794.2</ele>
        <time>2024-08-11T12:44:04Z</time>
      </trkpt>
      <trkpt lat="44.90999" lon="6.49918">
        <ele>1794</ele>
        <time>2024-08-11T12:44:05Z</time>
      </trkpt>
      <trkpt lat="44.90997" lon="6.49917">
        <ele>1793.8</ele>
        <time>2024-08-11T12:44:06Z</time>
      </trkpt>
      <trkpt lat="44.90997" lon="6.49917">
        <ele>1793.6</ele>
        <time>2024-08-11T12:44:07Z</time>
      </trkpt>
      <trkpt lat="44.90995" lon="6.49917">
        <ele>1793.4</ele>
        <time>2024-08-11T12:44:08Z</time>
      </trkpt>
      <trkpt lat="44.90995" lon="6.49917">
        <ele>1793.2</ele>
        <time>2024-08-11T12:44:09Z</time>
      </trkpt>
      <trkpt lat="44.90992" lon="6.49916">
        <ele>1793</ele>
        <time>2024-08-11T12:44:10Z</time>
      </trkpt>
      <trkpt lat="44.90992" lon="6.49916">
        <ele>1792.8</ele>
        <time>2024-08-11T12:44:11Z</time>
      </trkpt>
      <trkpt lat="44.9099" lon="6.49916">
        <ele>1792.6</ele>
        <time>2024-08-11T12:44:12Z</time>
      </trkpt>
      <trkpt lat="44.9099" lon="6.49916">
        <ele>1792.4</ele>
        <time>2024-08-11T12:44:13Z</time>
      </trkpt>
      <trkpt lat="44.90988" lon="6.49916">
        <ele>1792.2</ele>
        <time>2024-08-11T12:44:14Z</time>
      </trkpt>
      <trkpt lat="44.90988" lon="6.49916">
        <ele>1792</ele>
        <time>2024-08-11T12:44:15Z</time>
      </trkpt>
      <trkpt lat="44.90985" lon="6.49915">
        <ele>1791.8</ele>
        <time>2024-08-11T12:44:16Z</time>
      </trkpt>
      <trkpt lat="44.90985" lon="6.49915">
        <ele>1791.6</ele>
        <time>2024-08-11T12:44:17Z</time>
      </trkpt>
      <trkpt lat="44.90983" lon="6.49913">
        <ele>1791.4</ele>
        <time>2024-08-11T12:44:18Z</time>
      </trkpt>
      <trkpt lat="44.90983" lon="6.49913">
        <ele>1791.2</ele>
        <time>2024-08-11T12:44:19Z</time>
      </trkpt>
      <trkpt lat="44.90981" lon="6.49912">
        <ele>1791</ele>
        <time>2024-08-11T12:44:20Z</time>
      </trkpt>
      <trkpt lat="44.90981" lon="6.49912">
        <ele>1790.8</ele>
        <time>2024-08-11T12:44:21Z</time>
      </trkpt>
      <trkpt lat="44.90978" lon="6.49912">
        <ele>1790.6</ele>
        <time>2024-08-11T12:44:22Z</time>
      </trkpt>
      <trkpt lat="44.90978" lon="6.49912">
        <ele>1790.2</ele>
        <time>2024-08-11T12:44:23Z</time>
      </trkpt>
      <trkpt lat="44.90977" lon="6.49911">
        <ele>1790</ele>
        <time>2024-08-11T12:44:24Z</time>
      </trkpt>
      <trkpt lat="44.90977" lon="6.49911">
        <ele>1789.8</ele>
        <time>2024-08-11T12:44:25Z</time>
      </trkpt>
      <trkpt lat="44.90974" lon="6.49908">
        <ele>1789.6</ele>
        <time>2024-08-11T12:44:26Z</time>
      </trkpt>
      <trkpt lat="44.90974" lon="6.49908">
        <ele>1789.4</ele>
        <time>2024-08-11T12:44:27Z</time>
      </trkpt>
      <trkpt lat="44.90974" lon="6.49904">
        <ele>1789.2</ele>
        <time>2024-08-11T12:44:28Z</time>
      </trkpt>
      <trkpt lat="44.90974" lon="6.49904">
        <ele>1789</ele>
        <time>2024-08-11T12:44:29Z</time>
      </trkpt>
      <trkpt lat="44.90973" lon="6.49902">
        <ele>1788.4</ele>
        <time>2024-08-11T12:44:30Z</time>
      </trkpt>
      <trkpt lat="44.90973" lon="6.49902">
        <ele>1788</ele>
        <time>2024-08-11T12:44:31Z</time>
      </trkpt>
      <trkpt lat="44.90973" lon="6.49902">
        <ele>1787.4</ele>
        <time>2024-08-11T12:44:32Z</time>
      </trkpt>
      <trkpt lat="44.90974" lon="6.49899">
        <ele>1787.2</ele>
        <time>2024-08-11T12:44:33Z</time>
      </trkpt>
      <trkpt lat="44.90974" lon="6.49899">
        <ele>1787.2</ele>
        <time>2024-08-11T12:44:34Z</time>
      </trkpt>
      <trkpt lat="44.90976" lon="6.49897">
        <ele>1787.2</ele>
        <time>2024-08-11T12:44:35Z</time>
      </trkpt>
      <trkpt lat="44.90976" lon="6.49897">
        <ele>1787.2</ele>
        <time>2024-08-11T12:44:36Z</time>
      </trkpt>
      <trkpt lat="44.90976" lon="6.49897">
        <ele>1787</ele>
        <time>2024-08-11T12:44:37Z</time>
      </trkpt>
      <trkpt lat="44.90977" lon="6.49894">
        <ele>1786.4</ele>
        <time>2024-08-11T12:44:38Z</time>
      </trkpt>
      <trkpt lat="44.90977" lon="6.49894">
        <ele>1786.2</ele>
        <time>2024-08-11T12:44:39Z</time>
      </trkpt>
      <trkpt lat="44.90978" lon="6.49891">
        <ele>1785.2</ele>
        <time>2024-08-11T12:44:40Z</time>
      </trkpt>
      <trkpt lat="44.90978" lon="6.49891">
        <ele>1785.2</ele>
        <time>2024-08-11T12:44:41Z</time>
      </trkpt>
      <trkpt lat="44.9098" lon="6.49889">
        <ele>1785.2</ele>
        <time>2024-08-11T12:44:42Z</time>
      </trkpt>
      <trkpt lat="44.9098" lon="6.49889">
        <ele>1785.2</ele>
        <time>2024-08-11T12:44:43Z</time>
      </trkpt>
      <trkpt lat="44.9098" lon="6.49886">
        <ele>1784.2</ele>
        <time>2024-08-11T12:44:44Z</time>
      </trkpt>
      <trkpt lat="44.9098" lon="6.49886">
        <ele>1783.8</ele>
        <time>2024-08-11T12:44:45Z</time>
      </trkpt>
      <trkpt lat="44.9098" lon="6.49882">
        <ele>1783.8</ele>
        <time>2024-08-11T12:44:46Z</time>
      </trkpt>
      <trkpt lat="44.9098" lon="6.49882">
        <ele>1783.8</ele>
        <time>2024-08-11T12:44:47Z</time>
      </trkpt>
      <trkpt lat="44.9098" lon="6.49878">
        <ele>1783.8</ele>
        <time>2024-08-11T12:44:48Z</time>
      </trkpt>
      <trkpt lat="44.9098" lon="6.49878">
        <ele>1783.2</ele>
        <time>2024-08-11T12:44:49Z</time>
      </trkpt>
      <trkpt lat="44.9098" lon="6.49875">
        <ele>1782.8</ele>
        <time>2024-08-11T12:44:50Z</time>
      </trkpt>
      <trkpt lat="44.9098" lon="6.49875">
        <ele>1782.4</ele>
        <time>2024-08-11T12:44:51Z</time>
      </trkpt>
      <trkpt lat="44.90981" lon="6.49872">
        <ele>1782.2</ele>
        <time>2024-08-11T12:44:52Z</time>
      </trkpt>
      <trkpt lat="44.90981" lon="6.49872">
        <ele>1781.8</ele>
        <time>2024-08-11T12:44:53Z</time>
      </trkpt>
      <trkpt lat="44.90982" lon="6.49869">
        <ele>1781.4</ele>
        <time>2024-08-11T12:44:54Z</time>
      </trkpt>
      <trkpt lat="44.90982" lon="6.49869">
        <ele>1781.2</ele>
        <time>2024-08-11T12:44:55Z</time>
      </trkpt>
      <trkpt lat="44.90983" lon="6.49867">
        <ele>1780.6</ele>
        <time>2024-08-11T12:44:56Z</time>
      </trkpt>
      <trkpt lat="44.90983" lon="6.49867">
        <ele>1780.4</ele>
        <time>2024-08-11T12:44:57Z</time>
      </trkpt>
      <trkpt lat="44.90984" lon="6.49864">
        <ele>1780.2</ele>
        <time>2024-08-11T12:44:58Z</time>
      </trkpt>
      <trkpt lat="44.90984" lon="6.49864">
        <ele>1779.8</ele>
        <time>2024-08-11T12:44:59Z</time>
      </trkpt>
      <trkpt lat="44.90984" lon="6.49861">
        <ele>1779.4</ele>
        <time>2024-08-11T12:45:00Z</time>
      </trkpt>
      <trkpt lat="44.90984" lon="6.49861">
        <ele>1779.2</ele>
        <time>2024-08-11T12:45:01Z</time>
      </trkpt>
      <trkpt lat="44.90984" lon="6.49857">
        <ele>1778.4</ele>
        <time>2024-08-11T12:45:02Z</time>
      </trkpt>
      <trkpt lat="44.90986" lon="6.49856">
        <ele>1778.4</ele>
        <time>2024-08-11T12:45:03Z</time>
      </trkpt>
      <trkpt lat="44.90986" lon="6.49856">
        <ele>1778.2</ele>
        <time>2024-08-11T12:45:04Z</time>
      </trkpt>
      <trkpt lat="44.90987" lon="6.49853">
        <ele>1778</ele>
        <time>2024-08-11T12:45:05Z</time>
      </trkpt>
      <trkpt lat="44.90987" lon="6.49853">
        <ele>1777.6</ele>
        <time>2024-08-11T12:45:06Z</time>
      </trkpt>
      <trkpt lat="44.90989" lon="6.49851">
        <ele>1777.2</ele>
        <time>2024-08-11T12:45:07Z</time>
      </trkpt>
      <trkpt lat="44.90989" lon="6.49851">
        <ele>1777</ele>
        <time>2024-08-11T12:45:08Z</time>
      </trkpt>
      <trkpt lat="44.90991" lon="6.49849">
        <ele>1776.6</ele>
        <time>2024-08-11T12:45:09Z</time>
      </trkpt>
      <trkpt lat="44.90991" lon="6.49849">
        <ele>1776.4</ele>
        <time>2024-08-11T12:45:10Z</time>
      </trkpt>
      <trkpt lat="44.90992" lon="6.49847">
        <ele>1776.4</ele>
        <time>2024-08-11T12:45:11Z</time>
      </trkpt>
      <trkpt lat="44.90992" lon="6.49847">
        <ele>1776.2</ele>
        <time>2024-08-11T12:45:12Z</time>
      </trkpt>
      <trkpt lat="44.90994" lon="6.49845">
        <ele>1775.8</ele>
        <time>2024-08-11T12:45:13Z</time>
      </trkpt>
      <trkpt lat="44.90994" lon="6.49845">
        <ele>1775.4</ele>
        <time>2024-08-11T12:45:14Z</time>
      </trkpt>
      <trkpt lat="44.90996" lon="6.49842">
        <ele>1775</ele>
        <time>2024-08-11T12:45:15Z</time>
      </trkpt>
      <trkpt lat="44.90996" lon="6.49842">
        <ele>1774.8</ele>
        <time>2024-08-11T12:45:16Z</time>
      </trkpt>
      <trkpt lat="44.90997" lon="6.4984">
        <ele>1774.6</ele>
        <time>2024-08-11T12:45:17Z</time>
      </trkpt>
      <trkpt lat="44.90997" lon="6.4984">
        <ele>1774.2</ele>
        <time>2024-08-11T12:45:18Z</time>
      </trkpt>
      <trkpt lat="44.90998" lon="6.49837">
        <ele>1774</ele>
        <time>2024-08-11T12:45:19Z</time>
      </trkpt>
      <trkpt lat="44.90998" lon="6.49837">
        <ele>1773.6</ele>
        <time>2024-08-11T12:45:20Z</time>
      </trkpt>
      <trkpt lat="44.90999" lon="6.49835">
        <ele>1773.2</ele>
        <time>2024-08-11T12:45:21Z</time>
      </trkpt>
      <trkpt lat="44.90999" lon="6.49835">
        <ele>1772.8</ele>
        <time>2024-08-11T12:45:22Z</time>
      </trkpt>
      <trkpt lat="44.91" lon="6.49831">
        <ele>1772.6</ele>
        <time>2024-08-11T12:45:23Z</time>
      </trkpt>
      <trkpt lat="44.91" lon="6.49831">
        <ele>1772</ele>
        <time>2024-08-11T12:45:24Z</time>
      </trkpt>
      <trkpt lat="44.91002" lon="6.49827">
        <ele>1771.8</ele>
        <time>2024-08-11T12:45:25Z</time>
      </trkpt>
      <trkpt lat="44.91002" lon="6.49827">
        <ele>1771.4</ele>
        <time>2024-08-11T12:45:26Z</time>
      </trkpt>
      <trkpt lat="44.91004" lon="6.49824">
        <ele>1771.4</ele>
        <time>2024-08-11T12:45:27Z</time>
      </trkpt>
      <trkpt lat="44.91004" lon="6.49824">
        <ele>1771.2</ele>
        <time>2024-08-11T12:45:28Z</time>
      </trkpt>
      <trkpt lat="44.91005" lon="6.49822">
        <ele>1771</ele>
        <time>2024-08-11T12:45:29Z</time>
      </trkpt>
      <trkpt lat="44.91006" lon="6.49819">
        <ele>1770.8</ele>
        <time>2024-08-11T12:45:30Z</time>
      </trkpt>
      <trkpt lat="44.91006" lon="6.49819">
        <ele>1770.6</ele>
        <time>2024-08-11T12:45:31Z</time>
      </trkpt>
      <trkpt lat="44.91008" lon="6.49816">
        <ele>1770.4</ele>
        <time>2024-08-11T12:45:32Z</time>
      </trkpt>
      <trkpt lat="44.91008" lon="6.49816">
        <ele>1770.4</ele>
        <time>2024-08-11T12:45:33Z</time>
      </trkpt>
      <trkpt lat="44.91009" lon="6.49813">
        <ele>1770.2</ele>
        <time>2024-08-11T12:45:34Z</time>
      </trkpt>
      <trkpt lat="44.91009" lon="6.49813">
        <ele>1769.8</ele>
        <time>2024-08-11T12:45:35Z</time>
      </trkpt>
      <trkpt lat="44.9101" lon="6.4981">
        <ele>1769.4</ele>
        <time>2024-08-11T12:45:36Z</time>
      </trkpt>
      <trkpt lat="44.9101" lon="6.4981">
        <ele>1769</ele>
        <time>2024-08-11T12:45:37Z</time>
      </trkpt>
      <trkpt lat="44.91012" lon="6.49806">
        <ele>1769</ele>
        <time>2024-08-11T12:45:38Z</time>
      </trkpt>
      <trkpt lat="44.91012" lon="6.49806">
        <ele>1769</ele>
        <time>2024-08-11T12:45:39Z</time>
      </trkpt>
      <trkpt lat="44.91013" lon="6.49803">
        <ele>1768.8</ele>
        <time>2024-08-11T12:45:40Z</time>
      </trkpt>
      <trkpt lat="44.91013" lon="6.49803">
        <ele>1768.4</ele>
        <time>2024-08-11T12:45:41Z</time>
      </trkpt>
      <trkpt lat="44.91014" lon="6.49801">
        <ele>1768.2</ele>
        <time>2024-08-11T12:45:42Z</time>
      </trkpt>
      <trkpt lat="44.91014" lon="6.49801">
        <ele>1768.2</ele>
        <time>2024-08-11T12:45:43Z</time>
      </trkpt>
      <trkpt lat="44.91017" lon="6.49799">
        <ele>1767.6</ele>
        <time>2024-08-11T12:45:44Z</time>
      </trkpt>
      <trkpt lat="44.91017" lon="6.49799">
        <ele>1767.6</ele>
        <time>2024-08-11T12:45:45Z</time>
      </trkpt>
      <trkpt lat="44.91019" lon="6.49796">
        <ele>1767.4</ele>
        <time>2024-08-11T12:45:46Z</time>
      </trkpt>
      <trkpt lat="44.91019" lon="6.49796">
        <ele>1767.2</ele>
        <time>2024-08-11T12:45:47Z</time>
      </trkpt>
      <trkpt lat="44.91021" lon="6.49795">
        <ele>1767</ele>
        <time>2024-08-11T12:45:48Z</time>
      </trkpt>
      <trkpt lat="44.91021" lon="6.49795">
        <ele>1766.8</ele>
        <time>2024-08-11T12:45:49Z</time>
      </trkpt>
      <trkpt lat="44.91021" lon="6.49795">
        <ele>1766.8</ele>
        <time>2024-08-11T12:45:50Z</time>
      </trkpt>
      <trkpt lat="44.91024" lon="6.49795">
        <ele>1766.4</ele>
        <time>2024-08-11T12:45:51Z</time>
      </trkpt>
      <trkpt lat="44.91024" lon="6.49795">
        <ele>1766.2</ele>
        <time>2024-08-11T12:45:52Z</time>
      </trkpt>
      <trkpt lat="44.91024" lon="6.49795">
        <ele>1766.2</ele>
        <time>2024-08-11T12:45:53Z</time>
      </trkpt>
      <trkpt lat="44.91024" lon="6.49795">
        <ele>1766</ele>
        <time>2024-08-11T12:45:54Z</time>
      </trkpt>
      <trkpt lat="44.91024" lon="6.49795">
        <ele>1766.2</ele>
        <time>2024-08-11T12:45:55Z</time>
      </trkpt>
      <trkpt lat="44.91024" lon="6.49795">
        <ele>1766.2</ele>
        <time>2024-08-11T12:45:56Z</time>
      </trkpt>
      <trkpt lat="44.91024" lon="6.49795">
        <ele>1766.2</ele>
        <time>2024-08-11T12:45:57Z</time>
      </trkpt>
      <trkpt lat="44.91024" lon="6.49795">
        <ele>1766</ele>
        <time>2024-08-11T12:45:58Z</time>
      </trkpt>
      <trkpt lat="44.91024" lon="6.49795">
        <ele>1766</ele>
        <time>2024-08-11T12:45:59Z</time>
      </trkpt>
      <trkpt lat="44.91024" lon="6.49795">
        <ele>1766</ele>
        <time>2024-08-11T12:46:00Z</time>
      </trkpt>
      <trkpt lat="44.91024" lon="6.49795">
        <ele>1766.2</ele>
        <time>2024-08-11T12:46:01Z</time>
      </trkpt>
      <trkpt lat="44.91023" lon="6.49791">
        <ele>1766</ele>
        <time>2024-08-11T12:46:02Z</time>
      </trkpt>
      <trkpt lat="44.91023" lon="6.49791">
        <ele>1766</ele>
        <time>2024-08-11T12:46:03Z</time>
      </trkpt>
      <trkpt lat="44.91022" lon="6.49787">
        <ele>1766</ele>
        <time>2024-08-11T12:46:04Z</time>
      </trkpt>
      <trkpt lat="44.91022" lon="6.49787">
        <ele>1766</ele>
        <time>2024-08-11T12:46:05Z</time>
      </trkpt>
      <trkpt lat="44.9102" lon="6.49785">
        <ele>1766</ele>
        <time>2024-08-11T12:46:06Z</time>
      </trkpt>
      <trkpt lat="44.91018" lon="6.49783">
        <ele>1766</ele>
        <time>2024-08-11T12:46:07Z</time>
      </trkpt>
      <trkpt lat="44.91018" lon="6.49783">
        <ele>1766</ele>
        <time>2024-08-11T12:46:08Z</time>
      </trkpt>
      <trkpt lat="44.91015" lon="6.49781">
        <ele>1765.8</ele>
        <time>2024-08-11T12:46:09Z</time>
      </trkpt>
      <trkpt lat="44.91015" lon="6.49781">
        <ele>1765.8</ele>
        <time>2024-08-11T12:46:10Z</time>
      </trkpt>
      <trkpt lat="44.91013" lon="6.49779">
        <ele>1765.6</ele>
        <time>2024-08-11T12:46:11Z</time>
      </trkpt>
      <trkpt lat="44.91013" lon="6.49779">
        <ele>1765.6</ele>
        <time>2024-08-11T12:46:12Z</time>
      </trkpt>
      <trkpt lat="44.91011" lon="6.49777">
        <ele>1765.6</ele>
        <time>2024-08-11T12:46:13Z</time>
      </trkpt>
      <trkpt lat="44.91011" lon="6.49777">
        <ele>1765.6</ele>
        <time>2024-08-11T12:46:14Z</time>
      </trkpt>
      <trkpt lat="44.91009" lon="6.49775">
        <ele>1765.6</ele>
        <time>2024-08-11T12:46:15Z</time>
      </trkpt>
      <trkpt lat="44.91009" lon="6.49775">
        <ele>1765.6</ele>
        <time>2024-08-11T12:46:16Z</time>
      </trkpt>
      <trkpt lat="44.91006" lon="6.49773">
        <ele>1765.6</ele>
        <time>2024-08-11T12:46:17Z</time>
      </trkpt>
      <trkpt lat="44.91006" lon="6.49773">
        <ele>1765.6</ele>
        <time>2024-08-11T12:46:18Z</time>
      </trkpt>
      <trkpt lat="44.91004" lon="6.49771">
        <ele>1765.4</ele>
        <time>2024-08-11T12:46:19Z</time>
      </trkpt>
      <trkpt lat="44.91004" lon="6.49771">
        <ele>1765.4</ele>
        <time>2024-08-11T12:46:20Z</time>
      </trkpt>
      <trkpt lat="44.91002" lon="6.49769">
        <ele>1765.4</ele>
        <time>2024-08-11T12:46:21Z</time>
      </trkpt>
      <trkpt lat="44.91002" lon="6.49769">
        <ele>1765.4</ele>
        <time>2024-08-11T12:46:22Z</time>
      </trkpt>
      <trkpt lat="44.90999" lon="6.49767">
        <ele>1765.4</ele>
        <time>2024-08-11T12:46:23Z</time>
      </trkpt>
      <trkpt lat="44.90999" lon="6.49767">
        <ele>1765.4</ele>
        <time>2024-08-11T12:46:24Z</time>
      </trkpt>
      <trkpt lat="44.90997" lon="6.49765">
        <ele>1765.6</ele>
        <time>2024-08-11T12:46:25Z</time>
      </trkpt>
      <trkpt lat="44.90997" lon="6.49765">
        <ele>1765.6</ele>
        <time>2024-08-11T12:46:26Z</time>
      </trkpt>
      <trkpt lat="44.90994" lon="6.49763">
        <ele>1765.6</ele>
        <time>2024-08-11T12:46:27Z</time>
      </trkpt>
      <trkpt lat="44.90994" lon="6.49763">
        <ele>1765.8</ele>
        <time>2024-08-11T12:46:28Z</time>
      </trkpt>
      <trkpt lat="44.90992" lon="6.49761">
        <ele>1765.8</ele>
        <time>2024-08-11T12:46:29Z</time>
      </trkpt>
      <trkpt lat="44.90992" lon="6.49761">
        <ele>1765.6</ele>
        <time>2024-08-11T12:46:30Z</time>
      </trkpt>
      <trkpt lat="44.9099" lon="6.49759">
        <ele>1765.6</ele>
        <time>2024-08-11T12:46:31Z</time>
      </trkpt>
      <trkpt lat="44.9099" lon="6.49759">
        <ele>1765.8</ele>
        <time>2024-08-11T12:46:32Z</time>
      </trkpt>
      <trkpt lat="44.90987" lon="6.49757">
        <ele>1766</ele>
        <time>2024-08-11T12:46:33Z</time>
      </trkpt>
      <trkpt lat="44.90987" lon="6.49757">
        <ele>1766.2</ele>
        <time>2024-08-11T12:46:34Z</time>
      </trkpt>
      <trkpt lat="44.90984" lon="6.49755">
        <ele>1766.2</ele>
        <time>2024-08-11T12:46:35Z</time>
      </trkpt>
      <trkpt lat="44.90984" lon="6.49755">
        <ele>1766</ele>
        <time>2024-08-11T12:46:36Z</time>
      </trkpt>
      <trkpt lat="44.90982" lon="6.49754">
        <ele>1766</ele>
        <time>2024-08-11T12:46:37Z</time>
      </trkpt>
      <trkpt lat="44.90982" lon="6.49754">
        <ele>1766.2</ele>
        <time>2024-08-11T12:46:38Z</time>
      </trkpt>
      <trkpt lat="44.9098" lon="6.49753">
        <ele>1766.6</ele>
        <time>2024-08-11T12:46:39Z</time>
      </trkpt>
      <trkpt lat="44.9098" lon="6.49753">
        <ele>1766.8</ele>
        <time>2024-08-11T12:46:40Z</time>
      </trkpt>
      <trkpt lat="44.90978" lon="6.49752">
        <ele>1767</ele>
        <time>2024-08-11T12:46:41Z</time>
      </trkpt>
      <trkpt lat="44.90978" lon="6.49752">
        <ele>1767.2</ele>
        <time>2024-08-11T12:46:42Z</time>
      </trkpt>
      <trkpt lat="44.90975" lon="6.4975">
        <ele>1767.2</ele>
        <time>2024-08-11T12:46:43Z</time>
      </trkpt>
      <trkpt lat="44.90975" lon="6.4975">
        <ele>1767.2</ele>
        <time>2024-08-11T12:46:44Z</time>
      </trkpt>
      <trkpt lat="44.90973" lon="6.49748">
        <ele>1767.2</ele>
        <time>2024-08-11T12:46:45Z</time>
      </trkpt>
      <trkpt lat="44.90973" lon="6.49748">
        <ele>1767</ele>
        <time>2024-08-11T12:46:46Z</time>
      </trkpt>
      <trkpt lat="44.90971" lon="6.49746">
        <ele>1766.6</ele>
        <time>2024-08-11T12:46:47Z</time>
      </trkpt>
      <trkpt lat="44.90971" lon="6.49746">
        <ele>1766.4</ele>
        <time>2024-08-11T12:46:48Z</time>
      </trkpt>
      <trkpt lat="44.90969" lon="6.49744">
        <ele>1766.4</ele>
        <time>2024-08-11T12:46:49Z</time>
      </trkpt>
      <trkpt lat="44.90969" lon="6.49744">
        <ele>1766.4</ele>
        <time>2024-08-11T12:46:50Z</time>
      </trkpt>
      <trkpt lat="44.90967" lon="6.49742">
        <ele>1766.4</ele>
        <time>2024-08-11T12:46:51Z</time>
      </trkpt>
      <trkpt lat="44.90967" lon="6.49742">
        <ele>1766.4</ele>
        <time>2024-08-11T12:46:52Z</time>
      </trkpt>
      <trkpt lat="44.90965" lon="6.49739">
        <ele>1766.2</ele>
        <time>2024-08-11T12:46:53Z</time>
      </trkpt>
      <trkpt lat="44.90965" lon="6.49739">
        <ele>1766.2</ele>
        <time>2024-08-11T12:46:54Z</time>
      </trkpt>
      <trkpt lat="44.90963" lon="6.49736">
        <ele>1766.2</ele>
        <time>2024-08-11T12:46:55Z</time>
      </trkpt>
      <trkpt lat="44.90963" lon="6.49736">
        <ele>1766.2</ele>
        <time>2024-08-11T12:46:56Z</time>
      </trkpt>
      <trkpt lat="44.90961" lon="6.49733">
        <ele>1766</ele>
        <time>2024-08-11T12:46:57Z</time>
      </trkpt>
      <trkpt lat="44.90961" lon="6.49733">
        <ele>1765.8</ele>
        <time>2024-08-11T12:46:58Z</time>
      </trkpt>
      <trkpt lat="44.90959" lon="6.49731">
        <ele>1765.2</ele>
        <time>2024-08-11T12:46:59Z</time>
      </trkpt>
      <trkpt lat="44.90959" lon="6.49731">
        <ele>1765</ele>
        <time>2024-08-11T12:47:00Z</time>
      </trkpt>
      <trkpt lat="44.90958" lon="6.49728">
        <ele>1764.8</ele>
        <time>2024-08-11T12:47:01Z</time>
      </trkpt>
      <trkpt lat="44.90958" lon="6.49728">
        <ele>1764.6</ele>
        <time>2024-08-11T12:47:02Z</time>
      </trkpt>
      <trkpt lat="44.90955" lon="6.49725">
        <ele>1764.6</ele>
        <time>2024-08-11T12:47:03Z</time>
      </trkpt>
      <trkpt lat="44.90955" lon="6.49725">
        <ele>1764.6</ele>
        <time>2024-08-11T12:47:04Z</time>
      </trkpt>
      <trkpt lat="44.90954" lon="6.49722">
        <ele>1764.4</ele>
        <time>2024-08-11T12:47:05Z</time>
      </trkpt>
      <trkpt lat="44.90954" lon="6.49722">
        <ele>1764.4</ele>
        <time>2024-08-11T12:47:06Z</time>
      </trkpt>
      <trkpt lat="44.90952" lon="6.4972">
        <ele>1764</ele>
        <time>2024-08-11T12:47:07Z</time>
      </trkpt>
      <trkpt lat="44.90952" lon="6.4972">
        <ele>1764</ele>
        <time>2024-08-11T12:47:08Z</time>
      </trkpt>
      <trkpt lat="44.9095" lon="6.49718">
        <ele>1764</ele>
        <time>2024-08-11T12:47:09Z</time>
      </trkpt>
      <trkpt lat="44.9095" lon="6.49718">
        <ele>1764</ele>
        <time>2024-08-11T12:47:10Z</time>
      </trkpt>
      <trkpt lat="44.90947" lon="6.49715">
        <ele>1764</ele>
        <time>2024-08-11T12:47:11Z</time>
      </trkpt>
      <trkpt lat="44.90947" lon="6.49715">
        <ele>1764</ele>
        <time>2024-08-11T12:47:12Z</time>
      </trkpt>
      <trkpt lat="44.90945" lon="6.49713">
        <ele>1763.8</ele>
        <time>2024-08-11T12:47:13Z</time>
      </trkpt>
      <trkpt lat="44.90945" lon="6.49713">
        <ele>1763.8</ele>
        <time>2024-08-11T12:47:14Z</time>
      </trkpt>
      <trkpt lat="44.90943" lon="6.49711">
        <ele>1763.8</ele>
        <time>2024-08-11T12:47:15Z</time>
      </trkpt>
      <trkpt lat="44.90943" lon="6.49711">
        <ele>1763.6</ele>
        <time>2024-08-11T12:47:16Z</time>
      </trkpt>
      <trkpt lat="44.90941" lon="6.49709">
        <ele>1763.6</ele>
        <time>2024-08-11T12:47:17Z</time>
      </trkpt>
      <trkpt lat="44.90941" lon="6.49709">
        <ele>1763.6</ele>
        <time>2024-08-11T12:47:18Z</time>
      </trkpt>
      <trkpt lat="44.90938" lon="6.49707">
        <ele>1763.6</ele>
        <time>2024-08-11T12:47:19Z</time>
      </trkpt>
      <trkpt lat="44.90938" lon="6.49707">
        <ele>1763.6</ele>
        <time>2024-08-11T12:47:20Z</time>
      </trkpt>
      <trkpt lat="44.90935" lon="6.49705">
        <ele>1763.4</ele>
        <time>2024-08-11T12:47:21Z</time>
      </trkpt>
      <trkpt lat="44.90935" lon="6.49705">
        <ele>1763</ele>
        <time>2024-08-11T12:47:22Z</time>
      </trkpt>
      <trkpt lat="44.90934" lon="6.49702">
        <ele>1762.6</ele>
        <time>2024-08-11T12:47:23Z</time>
      </trkpt>
      <trkpt lat="44.90934" lon="6.49702">
        <ele>1762.6</ele>
        <time>2024-08-11T12:47:24Z</time>
      </trkpt>
      <trkpt lat="44.90932" lon="6.49699">
        <ele>1762.6</ele>
        <time>2024-08-11T12:47:25Z</time>
      </trkpt>
      <trkpt lat="44.90932" lon="6.49699">
        <ele>1762.6</ele>
        <time>2024-08-11T12:47:26Z</time>
      </trkpt>
      <trkpt lat="44.9093" lon="6.49696">
        <ele>1762.4</ele>
        <time>2024-08-11T12:47:27Z</time>
      </trkpt>
      <trkpt lat="44.9093" lon="6.49696">
        <ele>1762.2</ele>
        <time>2024-08-11T12:47:28Z</time>
      </trkpt>
      <trkpt lat="44.90928" lon="6.49693">
        <ele>1762.4</ele>
        <time>2024-08-11T12:47:29Z</time>
      </trkpt>
      <trkpt lat="44.90928" lon="6.49693">
        <ele>1762.4</ele>
        <time>2024-08-11T12:47:30Z</time>
      </trkpt>
      <trkpt lat="44.90926" lon="6.49691">
        <ele>1762.2</ele>
        <time>2024-08-11T12:47:31Z</time>
      </trkpt>
      <trkpt lat="44.90926" lon="6.49691">
        <ele>1762</ele>
        <time>2024-08-11T12:47:32Z</time>
      </trkpt>
      <trkpt lat="44.90924" lon="6.49688">
        <ele>1762</ele>
        <time>2024-08-11T12:47:33Z</time>
      </trkpt>
      <trkpt lat="44.90924" lon="6.49688">
        <ele>1761.8</ele>
        <time>2024-08-11T12:47:34Z</time>
      </trkpt>
      <trkpt lat="44.90922" lon="6.49685">
        <ele>1761.8</ele>
        <time>2024-08-11T12:47:35Z</time>
      </trkpt>
      <trkpt lat="44.90922" lon="6.49685">
        <ele>1761.8</ele>
        <time>2024-08-11T12:47:36Z</time>
      </trkpt>
      <trkpt lat="44.90919" lon="6.49683">
        <ele>1761.6</ele>
        <time>2024-08-11T12:47:37Z</time>
      </trkpt>
      <trkpt lat="44.90919" lon="6.49683">
        <ele>1761.6</ele>
        <time>2024-08-11T12:47:38Z</time>
      </trkpt>
      <trkpt lat="44.90917" lon="6.4968">
        <ele>1761.6</ele>
        <time>2024-08-11T12:47:39Z</time>
      </trkpt>
      <trkpt lat="44.90917" lon="6.4968">
        <ele>1761.4</ele>
        <time>2024-08-11T12:47:40Z</time>
      </trkpt>
      <trkpt lat="44.90915" lon="6.49678">
        <ele>1761.2</ele>
        <time>2024-08-11T12:47:41Z</time>
      </trkpt>
      <trkpt lat="44.90915" lon="6.49678">
        <ele>1761</ele>
        <time>2024-08-11T12:47:42Z</time>
      </trkpt>
      <trkpt lat="44.90913" lon="6.49676">
        <ele>1761</ele>
        <time>2024-08-11T12:47:43Z</time>
      </trkpt>
      <trkpt lat="44.90911" lon="6.49675">
        <ele>1760.8</ele>
        <time>2024-08-11T12:47:44Z</time>
      </trkpt>
      <trkpt lat="44.90911" lon="6.49675">
        <ele>1760.6</ele>
        <time>2024-08-11T12:47:45Z</time>
      </trkpt>
      <trkpt lat="44.90909" lon="6.49672">
        <ele>1760.2</ele>
        <time>2024-08-11T12:47:46Z</time>
      </trkpt>
      <trkpt lat="44.90909" lon="6.49672">
        <ele>1760</ele>
        <time>2024-08-11T12:47:47Z</time>
      </trkpt>
      <trkpt lat="44.90907" lon="6.4967">
        <ele>1760</ele>
        <time>2024-08-11T12:47:48Z</time>
      </trkpt>
      <trkpt lat="44.90907" lon="6.4967">
        <ele>1759.8</ele>
        <time>2024-08-11T12:47:49Z</time>
      </trkpt>
      <trkpt lat="44.90904" lon="6.49668">
        <ele>1759.8</ele>
        <time>2024-08-11T12:47:50Z</time>
      </trkpt>
      <trkpt lat="44.90904" lon="6.49668">
        <ele>1759.4</ele>
        <time>2024-08-11T12:47:51Z</time>
      </trkpt>
      <trkpt lat="44.90901" lon="6.49667">
        <ele>1759.4</ele>
        <time>2024-08-11T12:47:52Z</time>
      </trkpt>
      <trkpt lat="44.90901" lon="6.49667">
        <ele>1759.4</ele>
        <time>2024-08-11T12:47:53Z</time>
      </trkpt>
      <trkpt lat="44.90899" lon="6.49664">
        <ele>1759.2</ele>
        <time>2024-08-11T12:47:54Z</time>
      </trkpt>
      <trkpt lat="44.90899" lon="6.49664">
        <ele>1758.8</ele>
        <time>2024-08-11T12:47:55Z</time>
      </trkpt>
      <trkpt lat="44.90897" lon="6.49661">
        <ele>1758.6</ele>
        <time>2024-08-11T12:47:56Z</time>
      </trkpt>
      <trkpt lat="44.90897" lon="6.49661">
        <ele>1758.4</ele>
        <time>2024-08-11T12:47:57Z</time>
      </trkpt>
      <trkpt lat="44.90895" lon="6.49659">
        <ele>1758.4</ele>
        <time>2024-08-11T12:47:58Z</time>
      </trkpt>
      <trkpt lat="44.90895" lon="6.49659">
        <ele>1758.2</ele>
        <time>2024-08-11T12:47:59Z</time>
      </trkpt>
      <trkpt lat="44.90893" lon="6.49658">
        <ele>1758.2</ele>
        <time>2024-08-11T12:48:00Z</time>
      </trkpt>
      <trkpt lat="44.90893" lon="6.49658">
        <ele>1758.2</ele>
        <time>2024-08-11T12:48:01Z</time>
      </trkpt>
      <trkpt lat="44.90893" lon="6.49658">
        <ele>1758.2</ele>
        <time>2024-08-11T12:48:02Z</time>
      </trkpt>
      <trkpt lat="44.90893" lon="6.49658">
        <ele>1758</ele>
        <time>2024-08-11T12:48:03Z</time>
      </trkpt>
      <trkpt lat="44.90893" lon="6.49658">
        <ele>1757.8</ele>
        <time>2024-08-11T12:48:04Z</time>
      </trkpt>
      <trkpt lat="44.90893" lon="6.49658">
        <ele>1757.8</ele>
        <time>2024-08-11T12:48:05Z</time>
      </trkpt>
      <trkpt lat="44.90893" lon="6.49658">
        <ele>1757.6</ele>
        <time>2024-08-11T12:48:06Z</time>
      </trkpt>
      <trkpt lat="44.90893" lon="6.49658">
        <ele>1757.6</ele>
        <time>2024-08-11T12:48:07Z</time>
      </trkpt>
      <trkpt lat="44.90891" lon="6.49656">
        <ele>1758</ele>
        <time>2024-08-11T12:48:08Z</time>
      </trkpt>
      <trkpt lat="44.90891" lon="6.49656">
        <ele>1757.8</ele>
        <time>2024-08-11T12:48:09Z</time>
      </trkpt>
      <trkpt lat="44.90889" lon="6.49653">
        <ele>1757.4</ele>
        <time>2024-08-11T12:48:10Z</time>
      </trkpt>
      <trkpt lat="44.90889" lon="6.49653">
        <ele>1757.4</ele>
        <time>2024-08-11T12:48:11Z</time>
      </trkpt>
      <trkpt lat="44.90887" lon="6.4965">
        <ele>1757.2</ele>
        <time>2024-08-11T12:48:12Z</time>
      </trkpt>
      <trkpt lat="44.90887" lon="6.4965">
        <ele>1757.2</ele>
        <time>2024-08-11T12:48:13Z</time>
      </trkpt>
      <trkpt lat="44.90885" lon="6.49647">
        <ele>1757.2</ele>
        <time>2024-08-11T12:48:14Z</time>
      </trkpt>
      <trkpt lat="44.90885" lon="6.49647">
        <ele>1756.8</ele>
        <time>2024-08-11T12:48:15Z</time>
      </trkpt>
      <trkpt lat="44.90883" lon="6.49645">
        <ele>1756.6</ele>
        <time>2024-08-11T12:48:16Z</time>
      </trkpt>
      <trkpt lat="44.90883" lon="6.49645">
        <ele>1756.6</ele>
        <time>2024-08-11T12:48:17Z</time>
      </trkpt>
      <trkpt lat="44.9088" lon="6.49642">
        <ele>1756.8</ele>
        <time>2024-08-11T12:48:18Z</time>
      </trkpt>
      <trkpt lat="44.9088" lon="6.49642">
        <ele>1756.8</ele>
        <time>2024-08-11T12:48:19Z</time>
      </trkpt>
      <trkpt lat="44.90878" lon="6.4964">
        <ele>1756.6</ele>
        <time>2024-08-11T12:48:20Z</time>
      </trkpt>
      <trkpt lat="44.90878" lon="6.4964">
        <ele>1756.6</ele>
        <time>2024-08-11T12:48:21Z</time>
      </trkpt>
      <trkpt lat="44.90875" lon="6.49638">
        <ele>1756.2</ele>
        <time>2024-08-11T12:48:22Z</time>
      </trkpt>
      <trkpt lat="44.90875" lon="6.49638">
        <ele>1756</ele>
        <time>2024-08-11T12:48:23Z</time>
      </trkpt>
      <trkpt lat="44.90873" lon="6.49637">
        <ele>1756</ele>
        <time>2024-08-11T12:48:24Z</time>
      </trkpt>
      <trkpt lat="44.90873" lon="6.49637">
        <ele>1756.2</ele>
        <time>2024-08-11T12:48:25Z</time>
      </trkpt>
      <trkpt lat="44.9087" lon="6.49636">
        <ele>1756.2</ele>
        <time>2024-08-11T12:48:26Z</time>
      </trkpt>
      <trkpt lat="44.9087" lon="6.49636">
        <ele>1756</ele>
        <time>2024-08-11T12:48:27Z</time>
      </trkpt>
      <trkpt lat="44.90868" lon="6.49635">
        <ele>1756</ele>
        <time>2024-08-11T12:48:28Z</time>
      </trkpt>
      <trkpt lat="44.90868" lon="6.49635">
        <ele>1755.6</ele>
        <time>2024-08-11T12:48:29Z</time>
      </trkpt>
      <trkpt lat="44.90865" lon="6.49634">
        <ele>1755.6</ele>
        <time>2024-08-11T12:48:30Z</time>
      </trkpt>
      <trkpt lat="44.90865" lon="6.49634">
        <ele>1755.4</ele>
        <time>2024-08-11T12:48:31Z</time>
      </trkpt>
      <trkpt lat="44.90862" lon="6.49633">
        <ele>1755.4</ele>
        <time>2024-08-11T12:48:32Z</time>
      </trkpt>
      <trkpt lat="44.90862" lon="6.49633">
        <ele>1755.2</ele>
        <time>2024-08-11T12:48:33Z</time>
      </trkpt>
      <trkpt lat="44.90859" lon="6.49631">
        <ele>1755.2</ele>
        <time>2024-08-11T12:48:34Z</time>
      </trkpt>
      <trkpt lat="44.90859" lon="6.49631">
        <ele>1755.2</ele>
        <time>2024-08-11T12:48:35Z</time>
      </trkpt>
      <trkpt lat="44.90856" lon="6.4963">
        <ele>1754.8</ele>
        <time>2024-08-11T12:48:36Z</time>
      </trkpt>
      <trkpt lat="44.90856" lon="6.4963">
        <ele>1754.8</ele>
        <time>2024-08-11T12:48:37Z</time>
      </trkpt>
      <trkpt lat="44.90853" lon="6.4963">
        <ele>1754.8</ele>
        <time>2024-08-11T12:48:38Z</time>
      </trkpt>
      <trkpt lat="44.90853" lon="6.4963">
        <ele>1754.6</ele>
        <time>2024-08-11T12:48:39Z</time>
      </trkpt>
      <trkpt lat="44.90851" lon="6.49629">
        <ele>1754.4</ele>
        <time>2024-08-11T12:48:40Z</time>
      </trkpt>
      <trkpt lat="44.90851" lon="6.49629">
        <ele>1754.4</ele>
        <time>2024-08-11T12:48:41Z</time>
      </trkpt>
      <trkpt lat="44.90848" lon="6.49628">
        <ele>1754.2</ele>
        <time>2024-08-11T12:48:42Z</time>
      </trkpt>
      <trkpt lat="44.90848" lon="6.49628">
        <ele>1754</ele>
        <time>2024-08-11T12:48:43Z</time>
      </trkpt>
      <trkpt lat="44.90845" lon="6.49627">
        <ele>1754</ele>
        <time>2024-08-11T12:48:44Z</time>
      </trkpt>
      <trkpt lat="44.90845" lon="6.49627">
        <ele>1753.8</ele>
        <time>2024-08-11T12:48:45Z</time>
      </trkpt>
      <trkpt lat="44.90843" lon="6.49625">
        <ele>1753.6</ele>
        <time>2024-08-11T12:48:46Z</time>
      </trkpt>
      <trkpt lat="44.90843" lon="6.49625">
        <ele>1753.4</ele>
        <time>2024-08-11T12:48:47Z</time>
      </trkpt>
      <trkpt lat="44.9084" lon="6.49624">
        <ele>1753.4</ele>
        <time>2024-08-11T12:48:48Z</time>
      </trkpt>
      <trkpt lat="44.9084" lon="6.49624">
        <ele>1753.2</ele>
        <time>2024-08-11T12:48:49Z</time>
      </trkpt>
      <trkpt lat="44.90838" lon="6.49622">
        <ele>1753.2</ele>
        <time>2024-08-11T12:48:50Z</time>
      </trkpt>
      <trkpt lat="44.90838" lon="6.49622">
        <ele>1753</ele>
        <time>2024-08-11T12:48:51Z</time>
      </trkpt>
      <trkpt lat="44.90836" lon="6.4962">
        <ele>1753</ele>
        <time>2024-08-11T12:48:52Z</time>
      </trkpt>
      <trkpt lat="44.90836" lon="6.4962">
        <ele>1752.6</ele>
        <time>2024-08-11T12:48:53Z</time>
      </trkpt>
      <trkpt lat="44.90834" lon="6.49618">
        <ele>1752.6</ele>
        <time>2024-08-11T12:48:54Z</time>
      </trkpt>
      <trkpt lat="44.90834" lon="6.49618">
        <ele>1752.6</ele>
        <time>2024-08-11T12:48:55Z</time>
      </trkpt>
      <trkpt lat="44.90831" lon="6.49617">
        <ele>1752.4</ele>
        <time>2024-08-11T12:48:56Z</time>
      </trkpt>
      <trkpt lat="44.90831" lon="6.49617">
        <ele>1752.4</ele>
        <time>2024-08-11T12:48:57Z</time>
      </trkpt>
      <trkpt lat="44.90828" lon="6.49615">
        <ele>1752.2</ele>
        <time>2024-08-11T12:48:58Z</time>
      </trkpt>
      <trkpt lat="44.90828" lon="6.49615">
        <ele>1752.2</ele>
        <time>2024-08-11T12:48:59Z</time>
      </trkpt>
      <trkpt lat="44.90825" lon="6.49614">
        <ele>1752</ele>
        <time>2024-08-11T12:49:00Z</time>
      </trkpt>
      <trkpt lat="44.90825" lon="6.49614">
        <ele>1752</ele>
        <time>2024-08-11T12:49:01Z</time>
      </trkpt>
      <trkpt lat="44.90823" lon="6.49611">
        <ele>1751.6</ele>
        <time>2024-08-11T12:49:02Z</time>
      </trkpt>
      <trkpt lat="44.90823" lon="6.49611">
        <ele>1751.6</ele>
        <time>2024-08-11T12:49:03Z</time>
      </trkpt>
      <trkpt lat="44.9082" lon="6.49609">
        <ele>1751.8</ele>
        <time>2024-08-11T12:49:04Z</time>
      </trkpt>
      <trkpt lat="44.9082" lon="6.49609">
        <ele>1751.8</ele>
        <time>2024-08-11T12:49:05Z</time>
      </trkpt>
      <trkpt lat="44.90818" lon="6.49607">
        <ele>1751.8</ele>
        <time>2024-08-11T12:49:06Z</time>
      </trkpt>
      <trkpt lat="44.90818" lon="6.49607">
        <ele>1751.4</ele>
        <time>2024-08-11T12:49:07Z</time>
      </trkpt>
      <trkpt lat="44.90816" lon="6.49605">
        <ele>1751.4</ele>
        <time>2024-08-11T12:49:08Z</time>
      </trkpt>
      <trkpt lat="44.90816" lon="6.49605">
        <ele>1751.4</ele>
        <time>2024-08-11T12:49:09Z</time>
      </trkpt>
      <trkpt lat="44.90814" lon="6.49602">
        <ele>1751.4</ele>
        <time>2024-08-11T12:49:10Z</time>
      </trkpt>
      <trkpt lat="44.90814" lon="6.49602">
        <ele>1751.4</ele>
        <time>2024-08-11T12:49:11Z</time>
      </trkpt>
      <trkpt lat="44.90811" lon="6.496">
        <ele>1751.4</ele>
        <time>2024-08-11T12:49:12Z</time>
      </trkpt>
      <trkpt lat="44.90811" lon="6.496">
        <ele>1751.2</ele>
        <time>2024-08-11T12:49:13Z</time>
      </trkpt>
      <trkpt lat="44.90809" lon="6.49598">
        <ele>1751</ele>
        <time>2024-08-11T12:49:14Z</time>
      </trkpt>
      <trkpt lat="44.90809" lon="6.49598">
        <ele>1750.8</ele>
        <time>2024-08-11T12:49:15Z</time>
      </trkpt>
      <trkpt lat="44.90807" lon="6.49596">
        <ele>1750.8</ele>
        <time>2024-08-11T12:49:16Z</time>
      </trkpt>
      <trkpt lat="44.90807" lon="6.49596">
        <ele>1750.8</ele>
        <time>2024-08-11T12:49:17Z</time>
      </trkpt>
      <trkpt lat="44.90804" lon="6.49593">
        <ele>1750.8</ele>
        <time>2024-08-11T12:49:18Z</time>
      </trkpt>
      <trkpt lat="44.90804" lon="6.49593">
        <ele>1750.6</ele>
        <time>2024-08-11T12:49:19Z</time>
      </trkpt>
      <trkpt lat="44.90802" lon="6.49591">
        <ele>1750.6</ele>
        <time>2024-08-11T12:49:20Z</time>
      </trkpt>
      <trkpt lat="44.90802" lon="6.49591">
        <ele>1750.6</ele>
        <time>2024-08-11T12:49:21Z</time>
      </trkpt>
      <trkpt lat="44.90799" lon="6.49589">
        <ele>1750.4</ele>
        <time>2024-08-11T12:49:22Z</time>
      </trkpt>
      <trkpt lat="44.90799" lon="6.49589">
        <ele>1750.4</ele>
        <time>2024-08-11T12:49:23Z</time>
      </trkpt>
      <trkpt lat="44.90797" lon="6.49587">
        <ele>1750.4</ele>
        <time>2024-08-11T12:49:24Z</time>
      </trkpt>
      <trkpt lat="44.90797" lon="6.49587">
        <ele>1750.4</ele>
        <time>2024-08-11T12:49:25Z</time>
      </trkpt>
      <trkpt lat="44.90795" lon="6.49585">
        <ele>1750.2</ele>
        <time>2024-08-11T12:49:26Z</time>
      </trkpt>
      <trkpt lat="44.90795" lon="6.49585">
        <ele>1750.2</ele>
        <time>2024-08-11T12:49:27Z</time>
      </trkpt>
      <trkpt lat="44.90792" lon="6.49583">
        <ele>1750.4</ele>
        <time>2024-08-11T12:49:28Z</time>
      </trkpt>
      <trkpt lat="44.90792" lon="6.49583">
        <ele>1750.4</ele>
        <time>2024-08-11T12:49:29Z</time>
      </trkpt>
      <trkpt lat="44.9079" lon="6.4958">
        <ele>1750.4</ele>
        <time>2024-08-11T12:49:30Z</time>
      </trkpt>
      <trkpt lat="44.9079" lon="6.4958">
        <ele>1750.2</ele>
        <time>2024-08-11T12:49:31Z</time>
      </trkpt>
      <trkpt lat="44.90788" lon="6.49577">
        <ele>1750.2</ele>
        <time>2024-08-11T12:49:32Z</time>
      </trkpt>
      <trkpt lat="44.90788" lon="6.49577">
        <ele>1750.2</ele>
        <time>2024-08-11T12:49:33Z</time>
      </trkpt>
      <trkpt lat="44.90785" lon="6.49575">
        <ele>1750.2</ele>
        <time>2024-08-11T12:49:34Z</time>
      </trkpt>
      <trkpt lat="44.90785" lon="6.49575">
        <ele>1750</ele>
        <time>2024-08-11T12:49:35Z</time>
      </trkpt>
      <trkpt lat="44.90783" lon="6.49572">
        <ele>1750</ele>
        <time>2024-08-11T12:49:36Z</time>
      </trkpt>
      <trkpt lat="44.90783" lon="6.49572">
        <ele>1750</ele>
        <time>2024-08-11T12:49:37Z</time>
      </trkpt>
      <trkpt lat="44.9078" lon="6.4957">
        <ele>1749.8</ele>
        <time>2024-08-11T12:49:38Z</time>
      </trkpt>
      <trkpt lat="44.9078" lon="6.4957">
        <ele>1749.6</ele>
        <time>2024-08-11T12:49:39Z</time>
      </trkpt>
      <trkpt lat="44.90778" lon="6.49569">
        <ele>1749.6</ele>
        <time>2024-08-11T12:49:40Z</time>
      </trkpt>
      <trkpt lat="44.90778" lon="6.49569">
        <ele>1749.6</ele>
        <time>2024-08-11T12:49:41Z</time>
      </trkpt>
      <trkpt lat="44.90776" lon="6.49567">
        <ele>1749.4</ele>
        <time>2024-08-11T12:49:42Z</time>
      </trkpt>
      <trkpt lat="44.90776" lon="6.49567">
        <ele>1749.2</ele>
        <time>2024-08-11T12:49:43Z</time>
      </trkpt>
      <trkpt lat="44.90773" lon="6.49565">
        <ele>1749.2</ele>
        <time>2024-08-11T12:49:44Z</time>
      </trkpt>
      <trkpt lat="44.90773" lon="6.49565">
        <ele>1749.2</ele>
        <time>2024-08-11T12:49:45Z</time>
      </trkpt>
      <trkpt lat="44.90771" lon="6.49564">
        <ele>1749.2</ele>
        <time>2024-08-11T12:49:46Z</time>
      </trkpt>
      <trkpt lat="44.90771" lon="6.49564">
        <ele>1749.2</ele>
        <time>2024-08-11T12:49:47Z</time>
      </trkpt>
      <trkpt lat="44.90769" lon="6.49563">
        <ele>1749.2</ele>
        <time>2024-08-11T12:49:48Z</time>
      </trkpt>
      <trkpt lat="44.90769" lon="6.49563">
        <ele>1749</ele>
        <time>2024-08-11T12:49:49Z</time>
      </trkpt>
      <trkpt lat="44.90766" lon="6.49562">
        <ele>1749</ele>
        <time>2024-08-11T12:49:50Z</time>
      </trkpt>
      <trkpt lat="44.90766" lon="6.49562">
        <ele>1749</ele>
        <time>2024-08-11T12:49:51Z</time>
      </trkpt>
      <trkpt lat="44.90764" lon="6.49561">
        <ele>1749</ele>
        <time>2024-08-11T12:49:52Z</time>
      </trkpt>
      <trkpt lat="44.90764" lon="6.49561">
        <ele>1748.8</ele>
        <time>2024-08-11T12:49:53Z</time>
      </trkpt>
      <trkpt lat="44.90761" lon="6.49561">
        <ele>1748.8</ele>
        <time>2024-08-11T12:49:54Z</time>
      </trkpt>
      <trkpt lat="44.90761" lon="6.49561">
        <ele>1748.8</ele>
        <time>2024-08-11T12:49:55Z</time>
      </trkpt>
      <trkpt lat="44.90758" lon="6.4956">
        <ele>1748.6</ele>
        <time>2024-08-11T12:49:56Z</time>
      </trkpt>
      <trkpt lat="44.90758" lon="6.4956">
        <ele>1748.4</ele>
        <time>2024-08-11T12:49:57Z</time>
      </trkpt>
      <trkpt lat="44.90756" lon="6.49559">
        <ele>1748.4</ele>
        <time>2024-08-11T12:49:58Z</time>
      </trkpt>
      <trkpt lat="44.90756" lon="6.49559">
        <ele>1748.4</ele>
        <time>2024-08-11T12:49:59Z</time>
      </trkpt>
      <trkpt lat="44.90752" lon="6.49559">
        <ele>1748.4</ele>
        <time>2024-08-11T12:50:00Z</time>
      </trkpt>
      <trkpt lat="44.90752" lon="6.49559">
        <ele>1748.4</ele>
        <time>2024-08-11T12:50:01Z</time>
      </trkpt>
      <trkpt lat="44.90749" lon="6.49558">
        <ele>1748</ele>
        <time>2024-08-11T12:50:02Z</time>
      </trkpt>
      <trkpt lat="44.90749" lon="6.49558">
        <ele>1748</ele>
        <time>2024-08-11T12:50:03Z</time>
      </trkpt>
      <trkpt lat="44.90747" lon="6.49558">
        <ele>1748</ele>
        <time>2024-08-11T12:50:04Z</time>
      </trkpt>
      <trkpt lat="44.90747" lon="6.49558">
        <ele>1748</ele>
        <time>2024-08-11T12:50:05Z</time>
      </trkpt>
      <trkpt lat="44.90744" lon="6.49557">
        <ele>1748</ele>
        <time>2024-08-11T12:50:06Z</time>
      </trkpt>
      <trkpt lat="44.90744" lon="6.49557">
        <ele>1747.8</ele>
        <time>2024-08-11T12:50:07Z</time>
      </trkpt>
      <trkpt lat="44.90741" lon="6.49558">
        <ele>1747.8</ele>
        <time>2024-08-11T12:50:08Z</time>
      </trkpt>
      <trkpt lat="44.90741" lon="6.49558">
        <ele>1748</ele>
        <time>2024-08-11T12:50:09Z</time>
      </trkpt>
      <trkpt lat="44.90738" lon="6.49557">
        <ele>1748</ele>
        <time>2024-08-11T12:50:10Z</time>
      </trkpt>
      <trkpt lat="44.90738" lon="6.49557">
        <ele>1747.8</ele>
        <time>2024-08-11T12:50:11Z</time>
      </trkpt>
      <trkpt lat="44.90735" lon="6.49557">
        <ele>1747.8</ele>
        <time>2024-08-11T12:50:12Z</time>
      </trkpt>
      <trkpt lat="44.90735" lon="6.49557">
        <ele>1747.8</ele>
        <time>2024-08-11T12:50:13Z</time>
      </trkpt>
      <trkpt lat="44.90733" lon="6.49556">
        <ele>1747.8</ele>
        <time>2024-08-11T12:50:14Z</time>
      </trkpt>
      <trkpt lat="44.90733" lon="6.49556">
        <ele>1747.8</ele>
        <time>2024-08-11T12:50:15Z</time>
      </trkpt>
      <trkpt lat="44.9073" lon="6.49556">
        <ele>1747.8</ele>
        <time>2024-08-11T12:50:16Z</time>
      </trkpt>
      <trkpt lat="44.9073" lon="6.49556">
        <ele>1747.8</ele>
        <time>2024-08-11T12:50:17Z</time>
      </trkpt>
      <trkpt lat="44.90728" lon="6.49555">
        <ele>1747.8</ele>
        <time>2024-08-11T12:50:18Z</time>
      </trkpt>
      <trkpt lat="44.90728" lon="6.49555">
        <ele>1747.8</ele>
        <time>2024-08-11T12:50:19Z</time>
      </trkpt>
      <trkpt lat="44.90725" lon="6.49555">
        <ele>1748</ele>
        <time>2024-08-11T12:50:20Z</time>
      </trkpt>
      <trkpt lat="44.90725" lon="6.49555">
        <ele>1747.8</ele>
        <time>2024-08-11T12:50:21Z</time>
      </trkpt>
      <trkpt lat="44.90722" lon="6.49554">
        <ele>1747.8</ele>
        <time>2024-08-11T12:50:22Z</time>
      </trkpt>
      <trkpt lat="44.90722" lon="6.49554">
        <ele>1747.8</ele>
        <time>2024-08-11T12:50:23Z</time>
      </trkpt>
      <trkpt lat="44.9072" lon="6.49552">
        <ele>1747.6</ele>
        <time>2024-08-11T12:50:24Z</time>
      </trkpt>
      <trkpt lat="44.9072" lon="6.49552">
        <ele>1747.6</ele>
        <time>2024-08-11T12:50:25Z</time>
      </trkpt>
      <trkpt lat="44.90717" lon="6.49551">
        <ele>1747.6</ele>
        <time>2024-08-11T12:50:26Z</time>
      </trkpt>
      <trkpt lat="44.90717" lon="6.49551">
        <ele>1747.6</ele>
        <time>2024-08-11T12:50:27Z</time>
      </trkpt>
      <trkpt lat="44.90714" lon="6.49551">
        <ele>1747.2</ele>
        <time>2024-08-11T12:50:28Z</time>
      </trkpt>
      <trkpt lat="44.90714" lon="6.49551">
        <ele>1747.2</ele>
        <time>2024-08-11T12:50:29Z</time>
      </trkpt>
      <trkpt lat="44.90711" lon="6.49549">
        <ele>1747.4</ele>
        <time>2024-08-11T12:50:30Z</time>
      </trkpt>
      <trkpt lat="44.90711" lon="6.49549">
        <ele>1747.4</ele>
        <time>2024-08-11T12:50:31Z</time>
      </trkpt>
      <trkpt lat="44.90709" lon="6.49548">
        <ele>1747.2</ele>
        <time>2024-08-11T12:50:32Z</time>
      </trkpt>
      <trkpt lat="44.90709" lon="6.49548">
        <ele>1747.2</ele>
        <time>2024-08-11T12:50:33Z</time>
      </trkpt>
      <trkpt lat="44.90706" lon="6.49546">
        <ele>1747</ele>
        <time>2024-08-11T12:50:34Z</time>
      </trkpt>
      <trkpt lat="44.90706" lon="6.49546">
        <ele>1747</ele>
        <time>2024-08-11T12:50:35Z</time>
      </trkpt>
      <trkpt lat="44.90703" lon="6.49545">
        <ele>1747</ele>
        <time>2024-08-11T12:50:36Z</time>
      </trkpt>
      <trkpt lat="44.90703" lon="6.49545">
        <ele>1747</ele>
        <time>2024-08-11T12:50:37Z</time>
      </trkpt>
      <trkpt lat="44.90701" lon="6.49544">
        <ele>1747</ele>
        <time>2024-08-11T12:50:38Z</time>
      </trkpt>
      <trkpt lat="44.90701" lon="6.49544">
        <ele>1747</ele>
        <time>2024-08-11T12:50:39Z</time>
      </trkpt>
      <trkpt lat="44.90699" lon="6.49543">
        <ele>1747</ele>
        <time>2024-08-11T12:50:40Z</time>
      </trkpt>
      <trkpt lat="44.90699" lon="6.49543">
        <ele>1747</ele>
        <time>2024-08-11T12:50:41Z</time>
      </trkpt>
      <trkpt lat="44.90697" lon="6.49541">
        <ele>1746.8</ele>
        <time>2024-08-11T12:50:42Z</time>
      </trkpt>
      <trkpt lat="44.90697" lon="6.49541">
        <ele>1746.6</ele>
        <time>2024-08-11T12:50:43Z</time>
      </trkpt>
      <trkpt lat="44.90694" lon="6.49541">
        <ele>1746.6</ele>
        <time>2024-08-11T12:50:44Z</time>
      </trkpt>
      <trkpt lat="44.90694" lon="6.49541">
        <ele>1746.6</ele>
        <time>2024-08-11T12:50:45Z</time>
      </trkpt>
      <trkpt lat="44.9069" lon="6.4954">
        <ele>1746.6</ele>
        <time>2024-08-11T12:50:46Z</time>
      </trkpt>
      <trkpt lat="44.9069" lon="6.4954">
        <ele>1746.6</ele>
        <time>2024-08-11T12:50:47Z</time>
      </trkpt>
      <trkpt lat="44.90687" lon="6.49539">
        <ele>1746.6</ele>
        <time>2024-08-11T12:50:48Z</time>
      </trkpt>
      <trkpt lat="44.90687" lon="6.49539">
        <ele>1746.4</ele>
        <time>2024-08-11T12:50:49Z</time>
      </trkpt>
      <trkpt lat="44.90684" lon="6.49538">
        <ele>1746.4</ele>
        <time>2024-08-11T12:50:50Z</time>
      </trkpt>
      <trkpt lat="44.90684" lon="6.49538">
        <ele>1746.4</ele>
        <time>2024-08-11T12:50:51Z</time>
      </trkpt>
      <trkpt lat="44.90682" lon="6.49537">
        <ele>1746.4</ele>
        <time>2024-08-11T12:50:52Z</time>
      </trkpt>
      <trkpt lat="44.90682" lon="6.49537">
        <ele>1746.4</ele>
        <time>2024-08-11T12:50:53Z</time>
      </trkpt>
      <trkpt lat="44.90679" lon="6.49536">
        <ele>1746.2</ele>
        <time>2024-08-11T12:50:54Z</time>
      </trkpt>
      <trkpt lat="44.90679" lon="6.49536">
        <ele>1746.2</ele>
        <time>2024-08-11T12:50:55Z</time>
      </trkpt>
      <trkpt lat="44.90677" lon="6.49535">
        <ele>1746</ele>
        <time>2024-08-11T12:50:56Z</time>
      </trkpt>
      <trkpt lat="44.90677" lon="6.49535">
        <ele>1745.8</ele>
        <time>2024-08-11T12:50:57Z</time>
      </trkpt>
      <trkpt lat="44.90674" lon="6.49535">
        <ele>1745.8</ele>
        <time>2024-08-11T12:50:58Z</time>
      </trkpt>
      <trkpt lat="44.90674" lon="6.49535">
        <ele>1746</ele>
        <time>2024-08-11T12:50:59Z</time>
      </trkpt>
      <trkpt lat="44.90671" lon="6.49535">
        <ele>1746</ele>
        <time>2024-08-11T12:51:00Z</time>
      </trkpt>
      <trkpt lat="44.90671" lon="6.49535">
        <ele>1745.8</ele>
        <time>2024-08-11T12:51:01Z</time>
      </trkpt>
      <trkpt lat="44.90668" lon="6.49535">
        <ele>1745.8</ele>
        <time>2024-08-11T12:51:02Z</time>
      </trkpt>
      <trkpt lat="44.90668" lon="6.49535">
        <ele>1745.8</ele>
        <time>2024-08-11T12:51:03Z</time>
      </trkpt>
      <trkpt lat="44.90665" lon="6.49536">
        <ele>1745.6</ele>
        <time>2024-08-11T12:51:04Z</time>
      </trkpt>
      <trkpt lat="44.90665" lon="6.49536">
        <ele>1745.6</ele>
        <time>2024-08-11T12:51:05Z</time>
      </trkpt>
      <trkpt lat="44.90662" lon="6.49535">
        <ele>1745.8</ele>
        <time>2024-08-11T12:51:06Z</time>
      </trkpt>
      <trkpt lat="44.90662" lon="6.49535">
        <ele>1745.8</ele>
        <time>2024-08-11T12:51:07Z</time>
      </trkpt>
      <trkpt lat="44.9066" lon="6.49534">
        <ele>1745.6</ele>
        <time>2024-08-11T12:51:08Z</time>
      </trkpt>
      <trkpt lat="44.9066" lon="6.49534">
        <ele>1745.4</ele>
        <time>2024-08-11T12:51:09Z</time>
      </trkpt>
      <trkpt lat="44.90657" lon="6.49533">
        <ele>1745.4</ele>
        <time>2024-08-11T12:51:10Z</time>
      </trkpt>
      <trkpt lat="44.90657" lon="6.49533">
        <ele>1745.4</ele>
        <time>2024-08-11T12:51:11Z</time>
      </trkpt>
      <trkpt lat="44.90654" lon="6.49532">
        <ele>1745.4</ele>
        <time>2024-08-11T12:51:12Z</time>
      </trkpt>
      <trkpt lat="44.90654" lon="6.49532">
        <ele>1745.4</ele>
        <time>2024-08-11T12:51:13Z</time>
      </trkpt>
      <trkpt lat="44.90652" lon="6.4953">
        <ele>1745.2</ele>
        <time>2024-08-11T12:51:14Z</time>
      </trkpt>
      <trkpt lat="44.90652" lon="6.4953">
        <ele>1745</ele>
        <time>2024-08-11T12:51:15Z</time>
      </trkpt>
      <trkpt lat="44.90649" lon="6.49529">
        <ele>1745</ele>
        <time>2024-08-11T12:51:16Z</time>
      </trkpt>
      <trkpt lat="44.90649" lon="6.49529">
        <ele>1745</ele>
        <time>2024-08-11T12:51:17Z</time>
      </trkpt>
      <trkpt lat="44.90646" lon="6.49529">
        <ele>1744.8</ele>
        <time>2024-08-11T12:51:18Z</time>
      </trkpt>
      <trkpt lat="44.90646" lon="6.49529">
        <ele>1744.6</ele>
        <time>2024-08-11T12:51:19Z</time>
      </trkpt>
      <trkpt lat="44.90643" lon="6.4953">
        <ele>1744.6</ele>
        <time>2024-08-11T12:51:20Z</time>
      </trkpt>
      <trkpt lat="44.90641" lon="6.4953">
        <ele>1744.6</ele>
        <time>2024-08-11T12:51:21Z</time>
      </trkpt>
      <trkpt lat="44.90641" lon="6.4953">
        <ele>1744.4</ele>
        <time>2024-08-11T12:51:22Z</time>
      </trkpt>
      <trkpt lat="44.90638" lon="6.4953">
        <ele>1744.2</ele>
        <time>2024-08-11T12:51:23Z</time>
      </trkpt>
      <trkpt lat="44.90638" lon="6.4953">
        <ele>1744.2</ele>
        <time>2024-08-11T12:51:24Z</time>
      </trkpt>
      <trkpt lat="44.90636" lon="6.49529">
        <ele>1744</ele>
        <time>2024-08-11T12:51:25Z</time>
      </trkpt>
      <trkpt lat="44.90636" lon="6.49529">
        <ele>1744</ele>
        <time>2024-08-11T12:51:26Z</time>
      </trkpt>
      <trkpt lat="44.90633" lon="6.49529">
        <ele>1744</ele>
        <time>2024-08-11T12:51:27Z</time>
      </trkpt>
      <trkpt lat="44.90633" lon="6.49529">
        <ele>1744</ele>
        <time>2024-08-11T12:51:28Z</time>
      </trkpt>
      <trkpt lat="44.9063" lon="6.4953">
        <ele>1744</ele>
        <time>2024-08-11T12:51:29Z</time>
      </trkpt>
      <trkpt lat="44.9063" lon="6.4953">
        <ele>1744</ele>
        <time>2024-08-11T12:51:30Z</time>
      </trkpt>
      <trkpt lat="44.90628" lon="6.4953">
        <ele>1743.8</ele>
        <time>2024-08-11T12:51:31Z</time>
      </trkpt>
      <trkpt lat="44.90628" lon="6.4953">
        <ele>1743.8</ele>
        <time>2024-08-11T12:51:32Z</time>
      </trkpt>
      <trkpt lat="44.90625" lon="6.49532">
        <ele>1743.8</ele>
        <time>2024-08-11T12:51:33Z</time>
      </trkpt>
      <trkpt lat="44.90625" lon="6.49532">
        <ele>1743.8</ele>
        <time>2024-08-11T12:51:34Z</time>
      </trkpt>
      <trkpt lat="44.90622" lon="6.49534">
        <ele>1743.6</ele>
        <time>2024-08-11T12:51:35Z</time>
      </trkpt>
      <trkpt lat="44.90622" lon="6.49534">
        <ele>1743.6</ele>
        <time>2024-08-11T12:51:36Z</time>
      </trkpt>
      <trkpt lat="44.90619" lon="6.49535">
        <ele>1744</ele>
        <time>2024-08-11T12:51:37Z</time>
      </trkpt>
      <trkpt lat="44.90619" lon="6.49535">
        <ele>1744</ele>
        <time>2024-08-11T12:51:38Z</time>
      </trkpt>
      <trkpt lat="44.90616" lon="6.49536">
        <ele>1744</ele>
        <time>2024-08-11T12:51:39Z</time>
      </trkpt>
      <trkpt lat="44.90616" lon="6.49536">
        <ele>1744</ele>
        <time>2024-08-11T12:51:40Z</time>
      </trkpt>
      <trkpt lat="44.90613" lon="6.49537">
        <ele>1744</ele>
        <time>2024-08-11T12:51:41Z</time>
      </trkpt>
      <trkpt lat="44.90613" lon="6.49537">
        <ele>1743.8</ele>
        <time>2024-08-11T12:51:42Z</time>
      </trkpt>
      <trkpt lat="44.90611" lon="6.49538">
        <ele>1743.8</ele>
        <time>2024-08-11T12:51:43Z</time>
      </trkpt>
      <trkpt lat="44.90611" lon="6.49538">
        <ele>1743.8</ele>
        <time>2024-08-11T12:51:44Z</time>
      </trkpt>
      <trkpt lat="44.90609" lon="6.49539">
        <ele>1743.8</ele>
        <time>2024-08-11T12:51:45Z</time>
      </trkpt>
      <trkpt lat="44.90609" lon="6.49539">
        <ele>1743.8</ele>
        <time>2024-08-11T12:51:46Z</time>
      </trkpt>
      <trkpt lat="44.90606" lon="6.49541">
        <ele>1743.8</ele>
        <time>2024-08-11T12:51:47Z</time>
      </trkpt>
      <trkpt lat="44.90605" lon="6.49542">
        <ele>1744</ele>
        <time>2024-08-11T12:51:48Z</time>
      </trkpt>
      <trkpt lat="44.90605" lon="6.49542">
        <ele>1744</ele>
        <time>2024-08-11T12:51:49Z</time>
      </trkpt>
      <trkpt lat="44.90601" lon="6.49543">
        <ele>1743.8</ele>
        <time>2024-08-11T12:51:50Z</time>
      </trkpt>
      <trkpt lat="44.90601" lon="6.49543">
        <ele>1743.6</ele>
        <time>2024-08-11T12:51:51Z</time>
      </trkpt>
      <trkpt lat="44.90599" lon="6.49545">
        <ele>1743.4</ele>
        <time>2024-08-11T12:51:52Z</time>
      </trkpt>
      <trkpt lat="44.90599" lon="6.49545">
        <ele>1743.2</ele>
        <time>2024-08-11T12:51:53Z</time>
      </trkpt>
      <trkpt lat="44.90597" lon="6.49546">
        <ele>1743.2</ele>
        <time>2024-08-11T12:51:54Z</time>
      </trkpt>
      <trkpt lat="44.90597" lon="6.49546">
        <ele>1743.2</ele>
        <time>2024-08-11T12:51:55Z</time>
      </trkpt>
      <trkpt lat="44.90594" lon="6.49547">
        <ele>1743.2</ele>
        <time>2024-08-11T12:51:56Z</time>
      </trkpt>
      <trkpt lat="44.90594" lon="6.49547">
        <ele>1743.2</ele>
        <time>2024-08-11T12:51:57Z</time>
      </trkpt>
      <trkpt lat="44.90591" lon="6.49547">
        <ele>1743.2</ele>
        <time>2024-08-11T12:51:58Z</time>
      </trkpt>
      <trkpt lat="44.90591" lon="6.49547">
        <ele>1743.2</ele>
        <time>2024-08-11T12:51:59Z</time>
      </trkpt>
      <trkpt lat="44.90588" lon="6.49548">
        <ele>1743.2</ele>
        <time>2024-08-11T12:52:00Z</time>
      </trkpt>
      <trkpt lat="44.90588" lon="6.49548">
        <ele>1743.2</ele>
        <time>2024-08-11T12:52:01Z</time>
      </trkpt>
      <trkpt lat="44.90585" lon="6.49548">
        <ele>1743.4</ele>
        <time>2024-08-11T12:52:02Z</time>
      </trkpt>
      <trkpt lat="44.90585" lon="6.49548">
        <ele>1743.4</ele>
        <time>2024-08-11T12:52:03Z</time>
      </trkpt>
      <trkpt lat="44.90583" lon="6.49548">
        <ele>1743.4</ele>
        <time>2024-08-11T12:52:04Z</time>
      </trkpt>
      <trkpt lat="44.90583" lon="6.49548">
        <ele>1743.4</ele>
        <time>2024-08-11T12:52:05Z</time>
      </trkpt>
      <trkpt lat="44.9058" lon="6.49546">
        <ele>1743.2</ele>
        <time>2024-08-11T12:52:06Z</time>
      </trkpt>
      <trkpt lat="44.9058" lon="6.49546">
        <ele>1743.2</ele>
        <time>2024-08-11T12:52:07Z</time>
      </trkpt>
      <trkpt lat="44.90576" lon="6.49545">
        <ele>1743.2</ele>
        <time>2024-08-11T12:52:08Z</time>
      </trkpt>
      <trkpt lat="44.90576" lon="6.49545">
        <ele>1743.2</ele>
        <time>2024-08-11T12:52:09Z</time>
      </trkpt>
      <trkpt lat="44.90573" lon="6.49544">
        <ele>1743</ele>
        <time>2024-08-11T12:52:10Z</time>
      </trkpt>
      <trkpt lat="44.90573" lon="6.49544">
        <ele>1743</ele>
        <time>2024-08-11T12:52:11Z</time>
      </trkpt>
      <trkpt lat="44.90571" lon="6.49543">
        <ele>1743</ele>
        <time>2024-08-11T12:52:12Z</time>
      </trkpt>
      <trkpt lat="44.90571" lon="6.49543">
        <ele>1743</ele>
        <time>2024-08-11T12:52:13Z</time>
      </trkpt>
      <trkpt lat="44.90568" lon="6.49543">
        <ele>1743</ele>
        <time>2024-08-11T12:52:14Z</time>
      </trkpt>
      <trkpt lat="44.90568" lon="6.49543">
        <ele>1743</ele>
        <time>2024-08-11T12:52:15Z</time>
      </trkpt>
      <trkpt lat="44.90565" lon="6.49542">
        <ele>1743</ele>
        <time>2024-08-11T12:52:16Z</time>
      </trkpt>
      <trkpt lat="44.90565" lon="6.49542">
        <ele>1743</ele>
        <time>2024-08-11T12:52:17Z</time>
      </trkpt>
      <trkpt lat="44.90563" lon="6.49541">
        <ele>1743</ele>
        <time>2024-08-11T12:52:18Z</time>
      </trkpt>
      <trkpt lat="44.90563" lon="6.49541">
        <ele>1742.8</ele>
        <time>2024-08-11T12:52:19Z</time>
      </trkpt>
      <trkpt lat="44.90561" lon="6.4954">
        <ele>1742.8</ele>
        <time>2024-08-11T12:52:20Z</time>
      </trkpt>
      <trkpt lat="44.90561" lon="6.4954">
        <ele>1742.8</ele>
        <time>2024-08-11T12:52:21Z</time>
      </trkpt>
      <trkpt lat="44.90558" lon="6.49539">
        <ele>1742.8</ele>
        <time>2024-08-11T12:52:22Z</time>
      </trkpt>
      <trkpt lat="44.90558" lon="6.49539">
        <ele>1742.8</ele>
        <time>2024-08-11T12:52:23Z</time>
      </trkpt>
      <trkpt lat="44.90555" lon="6.49537">
        <ele>1742.8</ele>
        <time>2024-08-11T12:52:24Z</time>
      </trkpt>
      <trkpt lat="44.90555" lon="6.49537">
        <ele>1742.8</ele>
        <time>2024-08-11T12:52:25Z</time>
      </trkpt>
      <trkpt lat="44.90552" lon="6.49537">
        <ele>1742.8</ele>
        <time>2024-08-11T12:52:26Z</time>
      </trkpt>
      <trkpt lat="44.90552" lon="6.49537">
        <ele>1742.8</ele>
        <time>2024-08-11T12:52:27Z</time>
      </trkpt>
      <trkpt lat="44.90549" lon="6.49536">
        <ele>1742.8</ele>
        <time>2024-08-11T12:52:28Z</time>
      </trkpt>
      <trkpt lat="44.90549" lon="6.49536">
        <ele>1742.8</ele>
        <time>2024-08-11T12:52:29Z</time>
      </trkpt>
      <trkpt lat="44.90545" lon="6.49537">
        <ele>1742.8</ele>
        <time>2024-08-11T12:52:30Z</time>
      </trkpt>
      <trkpt lat="44.90545" lon="6.49537">
        <ele>1742.8</ele>
        <time>2024-08-11T12:52:31Z</time>
      </trkpt>
      <trkpt lat="44.90542" lon="6.49538">
        <ele>1742.6</ele>
        <time>2024-08-11T12:52:32Z</time>
      </trkpt>
      <trkpt lat="44.90542" lon="6.49538">
        <ele>1742.4</ele>
        <time>2024-08-11T12:52:33Z</time>
      </trkpt>
      <trkpt lat="44.90539" lon="6.49537">
        <ele>1742.4</ele>
        <time>2024-08-11T12:52:34Z</time>
      </trkpt>
      <trkpt lat="44.90539" lon="6.49537">
        <ele>1742.4</ele>
        <time>2024-08-11T12:52:35Z</time>
      </trkpt>
      <trkpt lat="44.90536" lon="6.49537">
        <ele>1742.2</ele>
        <time>2024-08-11T12:52:36Z</time>
      </trkpt>
      <trkpt lat="44.90536" lon="6.49537">
        <ele>1742.2</ele>
        <time>2024-08-11T12:52:37Z</time>
      </trkpt>
      <trkpt lat="44.90533" lon="6.49536">
        <ele>1742.2</ele>
        <time>2024-08-11T12:52:38Z</time>
      </trkpt>
      <trkpt lat="44.90532" lon="6.49536">
        <ele>1742.2</ele>
        <time>2024-08-11T12:52:39Z</time>
      </trkpt>
      <trkpt lat="44.90532" lon="6.49536">
        <ele>1741.8</ele>
        <time>2024-08-11T12:52:40Z</time>
      </trkpt>
      <trkpt lat="44.90529" lon="6.49536">
        <ele>1741.8</ele>
        <time>2024-08-11T12:52:41Z</time>
      </trkpt>
      <trkpt lat="44.90529" lon="6.49536">
        <ele>1741.6</ele>
        <time>2024-08-11T12:52:42Z</time>
      </trkpt>
      <trkpt lat="44.90526" lon="6.49536">
        <ele>1741.6</ele>
        <time>2024-08-11T12:52:43Z</time>
      </trkpt>
      <trkpt lat="44.90526" lon="6.49536">
        <ele>1741.6</ele>
        <time>2024-08-11T12:52:44Z</time>
      </trkpt>
      <trkpt lat="44.90523" lon="6.49536">
        <ele>1741.6</ele>
        <time>2024-08-11T12:52:45Z</time>
      </trkpt>
      <trkpt lat="44.90523" lon="6.49536">
        <ele>1741.6</ele>
        <time>2024-08-11T12:52:46Z</time>
      </trkpt>
      <trkpt lat="44.9052" lon="6.49535">
        <ele>1741.4</ele>
        <time>2024-08-11T12:52:47Z</time>
      </trkpt>
      <trkpt lat="44.9052" lon="6.49535">
        <ele>1741.2</ele>
        <time>2024-08-11T12:52:48Z</time>
      </trkpt>
      <trkpt lat="44.90518" lon="6.49535">
        <ele>1741.2</ele>
        <time>2024-08-11T12:52:49Z</time>
      </trkpt>
      <trkpt lat="44.90518" lon="6.49535">
        <ele>1741.2</ele>
        <time>2024-08-11T12:52:50Z</time>
      </trkpt>
      <trkpt lat="44.90516" lon="6.49534">
        <ele>1741.4</ele>
        <time>2024-08-11T12:52:51Z</time>
      </trkpt>
      <trkpt lat="44.90516" lon="6.49534">
        <ele>1741.4</ele>
        <time>2024-08-11T12:52:52Z</time>
      </trkpt>
      <trkpt lat="44.90514" lon="6.49534">
        <ele>1741.2</ele>
        <time>2024-08-11T12:52:53Z</time>
      </trkpt>
      <trkpt lat="44.90514" lon="6.49534">
        <ele>1741</ele>
        <time>2024-08-11T12:52:54Z</time>
      </trkpt>
      <trkpt lat="44.90512" lon="6.49533">
        <ele>1741</ele>
        <time>2024-08-11T12:52:55Z</time>
      </trkpt>
      <trkpt lat="44.9051" lon="6.49533">
        <ele>1741</ele>
        <time>2024-08-11T12:52:56Z</time>
      </trkpt>
      <trkpt lat="44.9051" lon="6.49533">
        <ele>1740.8</ele>
        <time>2024-08-11T12:52:57Z</time>
      </trkpt>
      <trkpt lat="44.90507" lon="6.49532">
        <ele>1740.8</ele>
        <time>2024-08-11T12:52:58Z</time>
      </trkpt>
      <trkpt lat="44.90505" lon="6.49532">
        <ele>1740.6</ele>
        <time>2024-08-11T12:52:59Z</time>
      </trkpt>
      <trkpt lat="44.90505" lon="6.49532">
        <ele>1740.4</ele>
        <time>2024-08-11T12:53:00Z</time>
      </trkpt>
      <trkpt lat="44.90502" lon="6.49533">
        <ele>1740.4</ele>
        <time>2024-08-11T12:53:01Z</time>
      </trkpt>
      <trkpt lat="44.90502" lon="6.49533">
        <ele>1740</ele>
        <time>2024-08-11T12:53:02Z</time>
      </trkpt>
      <trkpt lat="44.905" lon="6.49534">
        <ele>1740</ele>
        <time>2024-08-11T12:53:03Z</time>
      </trkpt>
      <trkpt lat="44.905" lon="6.49534">
        <ele>1740</ele>
        <time>2024-08-11T12:53:04Z</time>
      </trkpt>
      <trkpt lat="44.90497" lon="6.49535">
        <ele>1740.2</ele>
        <time>2024-08-11T12:53:05Z</time>
      </trkpt>
      <trkpt lat="44.90497" lon="6.49535">
        <ele>1740.4</ele>
        <time>2024-08-11T12:53:06Z</time>
      </trkpt>
      <trkpt lat="44.90494" lon="6.49536">
        <ele>1740.4</ele>
        <time>2024-08-11T12:53:07Z</time>
      </trkpt>
      <trkpt lat="44.90494" lon="6.49536">
        <ele>1740.4</ele>
        <time>2024-08-11T12:53:08Z</time>
      </trkpt>
      <trkpt lat="44.90491" lon="6.49535">
        <ele>1740.2</ele>
        <time>2024-08-11T12:53:09Z</time>
      </trkpt>
      <trkpt lat="44.90491" lon="6.49535">
        <ele>1740.2</ele>
        <time>2024-08-11T12:53:10Z</time>
      </trkpt>
      <trkpt lat="44.90489" lon="6.49535">
        <ele>1740</ele>
        <time>2024-08-11T12:53:11Z</time>
      </trkpt>
      <trkpt lat="44.90489" lon="6.49535">
        <ele>1740</ele>
        <time>2024-08-11T12:53:12Z</time>
      </trkpt>
      <trkpt lat="44.90485" lon="6.49535">
        <ele>1740</ele>
        <time>2024-08-11T12:53:13Z</time>
      </trkpt>
      <trkpt lat="44.90485" lon="6.49535">
        <ele>1740</ele>
        <time>2024-08-11T12:53:14Z</time>
      </trkpt>
      <trkpt lat="44.90482" lon="6.49534">
        <ele>1740</ele>
        <time>2024-08-11T12:53:15Z</time>
      </trkpt>
      <trkpt lat="44.90482" lon="6.49534">
        <ele>1740</ele>
        <time>2024-08-11T12:53:16Z</time>
      </trkpt>
      <trkpt lat="44.9048" lon="6.49533">
        <ele>1739.8</ele>
        <time>2024-08-11T12:53:17Z</time>
      </trkpt>
      <trkpt lat="44.9048" lon="6.49533">
        <ele>1739.8</ele>
        <time>2024-08-11T12:53:18Z</time>
      </trkpt>
      <trkpt lat="44.90477" lon="6.49533">
        <ele>1739.8</ele>
        <time>2024-08-11T12:53:19Z</time>
      </trkpt>
      <trkpt lat="44.90477" lon="6.49533">
        <ele>1739.8</ele>
        <time>2024-08-11T12:53:20Z</time>
      </trkpt>
      <trkpt lat="44.90474" lon="6.49533">
        <ele>1739.4</ele>
        <time>2024-08-11T12:53:21Z</time>
      </trkpt>
      <trkpt lat="44.90474" lon="6.49533">
        <ele>1739.4</ele>
        <time>2024-08-11T12:53:22Z</time>
      </trkpt>
      <trkpt lat="44.90472" lon="6.49533">
        <ele>1739.4</ele>
        <time>2024-08-11T12:53:23Z</time>
      </trkpt>
      <trkpt lat="44.90472" lon="6.49533">
        <ele>1739.4</ele>
        <time>2024-08-11T12:53:24Z</time>
      </trkpt>
      <trkpt lat="44.90469" lon="6.49533">
        <ele>1739.2</ele>
        <time>2024-08-11T12:53:25Z</time>
      </trkpt>
      <trkpt lat="44.90469" lon="6.49533">
        <ele>1739.2</ele>
        <time>2024-08-11T12:53:26Z</time>
      </trkpt>
      <trkpt lat="44.90466" lon="6.49533">
        <ele>1739.2</ele>
        <time>2024-08-11T12:53:27Z</time>
      </trkpt>
      <trkpt lat="44.90466" lon="6.49533">
        <ele>1739.2</ele>
        <time>2024-08-11T12:53:28Z</time>
      </trkpt>
      <trkpt lat="44.90464" lon="6.49532">
        <ele>1739.2</ele>
        <time>2024-08-11T12:53:29Z</time>
      </trkpt>
      <trkpt lat="44.90464" lon="6.49532">
        <ele>1739</ele>
        <time>2024-08-11T12:53:30Z</time>
      </trkpt>
      <trkpt lat="44.9046" lon="6.49532">
        <ele>1739</ele>
        <time>2024-08-11T12:53:31Z</time>
      </trkpt>
      <trkpt lat="44.9046" lon="6.49532">
        <ele>1739</ele>
        <time>2024-08-11T12:53:32Z</time>
      </trkpt>
      <trkpt lat="44.90457" lon="6.49532">
        <ele>1738.8</ele>
        <time>2024-08-11T12:53:33Z</time>
      </trkpt>
      <trkpt lat="44.90457" lon="6.49532">
        <ele>1738.6</ele>
        <time>2024-08-11T12:53:34Z</time>
      </trkpt>
      <trkpt lat="44.90454" lon="6.49531">
        <ele>1738.4</ele>
        <time>2024-08-11T12:53:35Z</time>
      </trkpt>
      <trkpt lat="44.90454" lon="6.49531">
        <ele>1738.4</ele>
        <time>2024-08-11T12:53:36Z</time>
      </trkpt>
      <trkpt lat="44.90452" lon="6.49531">
        <ele>1738.4</ele>
        <time>2024-08-11T12:53:37Z</time>
      </trkpt>
      <trkpt lat="44.90452" lon="6.49531">
        <ele>1738.6</ele>
        <time>2024-08-11T12:53:38Z</time>
      </trkpt>
      <trkpt lat="44.90449" lon="6.49529">
        <ele>1738.6</ele>
        <time>2024-08-11T12:53:39Z</time>
      </trkpt>
      <trkpt lat="44.90448" lon="6.49528">
        <ele>1738.6</ele>
        <time>2024-08-11T12:53:40Z</time>
      </trkpt>
      <trkpt lat="44.90448" lon="6.49528">
        <ele>1738.4</ele>
        <time>2024-08-11T12:53:41Z</time>
      </trkpt>
      <trkpt lat="44.90445" lon="6.49525">
        <ele>1738.2</ele>
        <time>2024-08-11T12:53:42Z</time>
      </trkpt>
      <trkpt lat="44.90445" lon="6.49525">
        <ele>1738.2</ele>
        <time>2024-08-11T12:53:43Z</time>
      </trkpt>
      <trkpt lat="44.90443" lon="6.49524">
        <ele>1738.2</ele>
        <time>2024-08-11T12:53:44Z</time>
      </trkpt>
      <trkpt lat="44.90443" lon="6.49524">
        <ele>1738.2</ele>
        <time>2024-08-11T12:53:45Z</time>
      </trkpt>
      <trkpt lat="44.9044" lon="6.49522">
        <ele>1738.2</ele>
        <time>2024-08-11T12:53:46Z</time>
      </trkpt>
      <trkpt lat="44.9044" lon="6.49522">
        <ele>1738.2</ele>
        <time>2024-08-11T12:53:47Z</time>
      </trkpt>
      <trkpt lat="44.90438" lon="6.49519">
        <ele>1737.8</ele>
        <time>2024-08-11T12:53:48Z</time>
      </trkpt>
      <trkpt lat="44.90438" lon="6.49519">
        <ele>1737.8</ele>
        <time>2024-08-11T12:53:49Z</time>
      </trkpt>
      <trkpt lat="44.90435" lon="6.49516">
        <ele>1737.8</ele>
        <time>2024-08-11T12:53:50Z</time>
      </trkpt>
      <trkpt lat="44.90435" lon="6.49516">
        <ele>1737.8</ele>
        <time>2024-08-11T12:53:51Z</time>
      </trkpt>
      <trkpt lat="44.90432" lon="6.49514">
        <ele>1737.6</ele>
        <time>2024-08-11T12:53:52Z</time>
      </trkpt>
      <trkpt lat="44.90432" lon="6.49514">
        <ele>1737.6</ele>
        <time>2024-08-11T12:53:53Z</time>
      </trkpt>
      <trkpt lat="44.9043" lon="6.49513">
        <ele>1737.6</ele>
        <time>2024-08-11T12:53:54Z</time>
      </trkpt>
      <trkpt lat="44.9043" lon="6.49513">
        <ele>1737.6</ele>
        <time>2024-08-11T12:53:55Z</time>
      </trkpt>
      <trkpt lat="44.90427" lon="6.49511">
        <ele>1737.4</ele>
        <time>2024-08-11T12:53:56Z</time>
      </trkpt>
      <trkpt lat="44.90427" lon="6.49511">
        <ele>1737.4</ele>
        <time>2024-08-11T12:53:57Z</time>
      </trkpt>
      <trkpt lat="44.90424" lon="6.49509">
        <ele>1737.2</ele>
        <time>2024-08-11T12:53:58Z</time>
      </trkpt>
      <trkpt lat="44.90423" lon="6.49507">
        <ele>1737.2</ele>
        <time>2024-08-11T12:53:59Z</time>
      </trkpt>
      <trkpt lat="44.90423" lon="6.49507">
        <ele>1737.4</ele>
        <time>2024-08-11T12:54:00Z</time>
      </trkpt>
      <trkpt lat="44.90421" lon="6.49505">
        <ele>1737.6</ele>
        <time>2024-08-11T12:54:01Z</time>
      </trkpt>
      <trkpt lat="44.90421" lon="6.49505">
        <ele>1737.6</ele>
        <time>2024-08-11T12:54:02Z</time>
      </trkpt>
      <trkpt lat="44.90418" lon="6.49503">
        <ele>1737.6</ele>
        <time>2024-08-11T12:54:03Z</time>
      </trkpt>
      <trkpt lat="44.90418" lon="6.49503">
        <ele>1737.4</ele>
        <time>2024-08-11T12:54:04Z</time>
      </trkpt>
      <trkpt lat="44.90416" lon="6.49502">
        <ele>1737.4</ele>
        <time>2024-08-11T12:54:05Z</time>
      </trkpt>
      <trkpt lat="44.90416" lon="6.49502">
        <ele>1737.4</ele>
        <time>2024-08-11T12:54:06Z</time>
      </trkpt>
      <trkpt lat="44.90414" lon="6.495">
        <ele>1737.4</ele>
        <time>2024-08-11T12:54:07Z</time>
      </trkpt>
      <trkpt lat="44.90414" lon="6.495">
        <ele>1737.4</ele>
        <time>2024-08-11T12:54:08Z</time>
      </trkpt>
      <trkpt lat="44.90411" lon="6.49498">
        <ele>1737.4</ele>
        <time>2024-08-11T12:54:09Z</time>
      </trkpt>
      <trkpt lat="44.90411" lon="6.49498">
        <ele>1737.4</ele>
        <time>2024-08-11T12:54:10Z</time>
      </trkpt>
      <trkpt lat="44.90409" lon="6.49496">
        <ele>1737.4</ele>
        <time>2024-08-11T12:54:11Z</time>
      </trkpt>
      <trkpt lat="44.90409" lon="6.49496">
        <ele>1737.2</ele>
        <time>2024-08-11T12:54:12Z</time>
      </trkpt>
      <trkpt lat="44.90406" lon="6.49494">
        <ele>1737.2</ele>
        <time>2024-08-11T12:54:13Z</time>
      </trkpt>
      <trkpt lat="44.90406" lon="6.49494">
        <ele>1737</ele>
        <time>2024-08-11T12:54:14Z</time>
      </trkpt>
      <trkpt lat="44.90404" lon="6.49491">
        <ele>1736.8</ele>
        <time>2024-08-11T12:54:15Z</time>
      </trkpt>
      <trkpt lat="44.90403" lon="6.4949">
        <ele>1736.8</ele>
        <time>2024-08-11T12:54:16Z</time>
      </trkpt>
      <trkpt lat="44.90403" lon="6.4949">
        <ele>1736.8</ele>
        <time>2024-08-11T12:54:17Z</time>
      </trkpt>
      <trkpt lat="44.904" lon="6.49488">
        <ele>1736.8</ele>
        <time>2024-08-11T12:54:18Z</time>
      </trkpt>
      <trkpt lat="44.904" lon="6.49488">
        <ele>1736.8</ele>
        <time>2024-08-11T12:54:19Z</time>
      </trkpt>
      <trkpt lat="44.90398" lon="6.49486">
        <ele>1736.8</ele>
        <time>2024-08-11T12:54:20Z</time>
      </trkpt>
      <trkpt lat="44.90398" lon="6.49486">
        <ele>1736.8</ele>
        <time>2024-08-11T12:54:21Z</time>
      </trkpt>
      <trkpt lat="44.90395" lon="6.49484">
        <ele>1736.8</ele>
        <time>2024-08-11T12:54:22Z</time>
      </trkpt>
      <trkpt lat="44.90395" lon="6.49484">
        <ele>1736.6</ele>
        <time>2024-08-11T12:54:23Z</time>
      </trkpt>
      <trkpt lat="44.90393" lon="6.49482">
        <ele>1736.6</ele>
        <time>2024-08-11T12:54:24Z</time>
      </trkpt>
      <trkpt lat="44.90393" lon="6.49482">
        <ele>1736.6</ele>
        <time>2024-08-11T12:54:25Z</time>
      </trkpt>
      <trkpt lat="44.90391" lon="6.49479">
        <ele>1736.6</ele>
        <time>2024-08-11T12:54:26Z</time>
      </trkpt>
      <trkpt lat="44.90391" lon="6.49479">
        <ele>1736.4</ele>
        <time>2024-08-11T12:54:27Z</time>
      </trkpt>
      <trkpt lat="44.90389" lon="6.49477">
        <ele>1736.2</ele>
        <time>2024-08-11T12:54:28Z</time>
      </trkpt>
      <trkpt lat="44.90389" lon="6.49477">
        <ele>1736.2</ele>
        <time>2024-08-11T12:54:29Z</time>
      </trkpt>
      <trkpt lat="44.90387" lon="6.49474">
        <ele>1736</ele>
        <time>2024-08-11T12:54:30Z</time>
      </trkpt>
      <trkpt lat="44.90387" lon="6.49474">
        <ele>1735.6</ele>
        <time>2024-08-11T12:54:31Z</time>
      </trkpt>
      <trkpt lat="44.90384" lon="6.49471">
        <ele>1735.4</ele>
        <time>2024-08-11T12:54:32Z</time>
      </trkpt>
      <trkpt lat="44.90384" lon="6.49471">
        <ele>1735.4</ele>
        <time>2024-08-11T12:54:33Z</time>
      </trkpt>
      <trkpt lat="44.90382" lon="6.4947">
        <ele>1735.2</ele>
        <time>2024-08-11T12:54:34Z</time>
      </trkpt>
      <trkpt lat="44.90382" lon="6.4947">
        <ele>1735.2</ele>
        <time>2024-08-11T12:54:35Z</time>
      </trkpt>
      <trkpt lat="44.90379" lon="6.49469">
        <ele>1735.2</ele>
        <time>2024-08-11T12:54:36Z</time>
      </trkpt>
      <trkpt lat="44.90379" lon="6.49469">
        <ele>1735</ele>
        <time>2024-08-11T12:54:37Z</time>
      </trkpt>
      <trkpt lat="44.90376" lon="6.49467">
        <ele>1734.8</ele>
        <time>2024-08-11T12:54:38Z</time>
      </trkpt>
      <trkpt lat="44.90376" lon="6.49467">
        <ele>1734.8</ele>
        <time>2024-08-11T12:54:39Z</time>
      </trkpt>
      <trkpt lat="44.90373" lon="6.49466">
        <ele>1734.6</ele>
        <time>2024-08-11T12:54:40Z</time>
      </trkpt>
      <trkpt lat="44.90373" lon="6.49466">
        <ele>1734.4</ele>
        <time>2024-08-11T12:54:41Z</time>
      </trkpt>
      <trkpt lat="44.9037" lon="6.49465">
        <ele>1734.4</ele>
        <time>2024-08-11T12:54:42Z</time>
      </trkpt>
      <trkpt lat="44.9037" lon="6.49465">
        <ele>1734.4</ele>
        <time>2024-08-11T12:54:43Z</time>
      </trkpt>
      <trkpt lat="44.90367" lon="6.49464">
        <ele>1734</ele>
        <time>2024-08-11T12:54:44Z</time>
      </trkpt>
      <trkpt lat="44.90367" lon="6.49464">
        <ele>1734</ele>
        <time>2024-08-11T12:54:45Z</time>
      </trkpt>
      <trkpt lat="44.90365" lon="6.49464">
        <ele>1734.2</ele>
        <time>2024-08-11T12:54:46Z</time>
      </trkpt>
      <trkpt lat="44.90365" lon="6.49464">
        <ele>1734.2</ele>
        <time>2024-08-11T12:54:47Z</time>
      </trkpt>
      <trkpt lat="44.90362" lon="6.49463">
        <ele>1734</ele>
        <time>2024-08-11T12:54:48Z</time>
      </trkpt>
      <trkpt lat="44.90362" lon="6.49463">
        <ele>1734</ele>
        <time>2024-08-11T12:54:49Z</time>
      </trkpt>
      <trkpt lat="44.90359" lon="6.49462">
        <ele>1734</ele>
        <time>2024-08-11T12:54:50Z</time>
      </trkpt>
      <trkpt lat="44.90359" lon="6.49462">
        <ele>1733.8</ele>
        <time>2024-08-11T12:54:51Z</time>
      </trkpt>
      <trkpt lat="44.90357" lon="6.4946">
        <ele>1733.6</ele>
        <time>2024-08-11T12:54:52Z</time>
      </trkpt>
      <trkpt lat="44.90357" lon="6.4946">
        <ele>1733.4</ele>
        <time>2024-08-11T12:54:53Z</time>
      </trkpt>
      <trkpt lat="44.90354" lon="6.49458">
        <ele>1733.4</ele>
        <time>2024-08-11T12:54:54Z</time>
      </trkpt>
      <trkpt lat="44.90354" lon="6.49458">
        <ele>1733.4</ele>
        <time>2024-08-11T12:54:55Z</time>
      </trkpt>
      <trkpt lat="44.90351" lon="6.49455">
        <ele>1733.4</ele>
        <time>2024-08-11T12:54:56Z</time>
      </trkpt>
      <trkpt lat="44.90351" lon="6.49455">
        <ele>1733.6</ele>
        <time>2024-08-11T12:54:57Z</time>
      </trkpt>
      <trkpt lat="44.90349" lon="6.49453">
        <ele>1733.6</ele>
        <time>2024-08-11T12:54:58Z</time>
      </trkpt>
      <trkpt lat="44.90349" lon="6.49453">
        <ele>1733.4</ele>
        <time>2024-08-11T12:54:59Z</time>
      </trkpt>
      <trkpt lat="44.90347" lon="6.49452">
        <ele>1733.2</ele>
        <time>2024-08-11T12:55:00Z</time>
      </trkpt>
      <trkpt lat="44.90347" lon="6.49452">
        <ele>1733.2</ele>
        <time>2024-08-11T12:55:01Z</time>
      </trkpt>
      <trkpt lat="44.90345" lon="6.4945">
        <ele>1733.4</ele>
        <time>2024-08-11T12:55:02Z</time>
      </trkpt>
      <trkpt lat="44.90345" lon="6.4945">
        <ele>1733.4</ele>
        <time>2024-08-11T12:55:03Z</time>
      </trkpt>
      <trkpt lat="44.90341" lon="6.49448">
        <ele>1733.6</ele>
        <time>2024-08-11T12:55:04Z</time>
      </trkpt>
      <trkpt lat="44.90341" lon="6.49448">
        <ele>1733.6</ele>
        <time>2024-08-11T12:55:05Z</time>
      </trkpt>
      <trkpt lat="44.90339" lon="6.49446">
        <ele>1733.4</ele>
        <time>2024-08-11T12:55:06Z</time>
      </trkpt>
      <trkpt lat="44.90339" lon="6.49446">
        <ele>1733.4</ele>
        <time>2024-08-11T12:55:07Z</time>
      </trkpt>
      <trkpt lat="44.90336" lon="6.49445">
        <ele>1733.2</ele>
        <time>2024-08-11T12:55:08Z</time>
      </trkpt>
      <trkpt lat="44.90336" lon="6.49445">
        <ele>1733.2</ele>
        <time>2024-08-11T12:55:09Z</time>
      </trkpt>
      <trkpt lat="44.90334" lon="6.49443">
        <ele>1733.2</ele>
        <time>2024-08-11T12:55:10Z</time>
      </trkpt>
      <trkpt lat="44.90334" lon="6.49443">
        <ele>1733</ele>
        <time>2024-08-11T12:55:11Z</time>
      </trkpt>
      <trkpt lat="44.90332" lon="6.49441">
        <ele>1732.8</ele>
        <time>2024-08-11T12:55:12Z</time>
      </trkpt>
      <trkpt lat="44.90332" lon="6.49441">
        <ele>1732.8</ele>
        <time>2024-08-11T12:55:13Z</time>
      </trkpt>
      <trkpt lat="44.9033" lon="6.4944">
        <ele>1732.6</ele>
        <time>2024-08-11T12:55:14Z</time>
      </trkpt>
      <trkpt lat="44.9033" lon="6.4944">
        <ele>1732.2</ele>
        <time>2024-08-11T12:55:15Z</time>
      </trkpt>
      <trkpt lat="44.90327" lon="6.49438">
        <ele>1732.2</ele>
        <time>2024-08-11T12:55:16Z</time>
      </trkpt>
      <trkpt lat="44.90327" lon="6.49438">
        <ele>1732.2</ele>
        <time>2024-08-11T12:55:17Z</time>
      </trkpt>
      <trkpt lat="44.90325" lon="6.49437">
        <ele>1732</ele>
        <time>2024-08-11T12:55:18Z</time>
      </trkpt>
      <trkpt lat="44.90325" lon="6.49437">
        <ele>1732</ele>
        <time>2024-08-11T12:55:19Z</time>
      </trkpt>
      <trkpt lat="44.90322" lon="6.49435">
        <ele>1732.2</ele>
        <time>2024-08-11T12:55:20Z</time>
      </trkpt>
      <trkpt lat="44.90322" lon="6.49435">
        <ele>1732.2</ele>
        <time>2024-08-11T12:55:21Z</time>
      </trkpt>
      <trkpt lat="44.90319" lon="6.49433">
        <ele>1732.2</ele>
        <time>2024-08-11T12:55:22Z</time>
      </trkpt>
      <trkpt lat="44.90319" lon="6.49433">
        <ele>1732.2</ele>
        <time>2024-08-11T12:55:23Z</time>
      </trkpt>
      <trkpt lat="44.90317" lon="6.49432">
        <ele>1732</ele>
        <time>2024-08-11T12:55:24Z</time>
      </trkpt>
      <trkpt lat="44.90317" lon="6.49432">
        <ele>1732</ele>
        <time>2024-08-11T12:55:25Z</time>
      </trkpt>
      <trkpt lat="44.90315" lon="6.4943">
        <ele>1732</ele>
        <time>2024-08-11T12:55:26Z</time>
      </trkpt>
      <trkpt lat="44.90315" lon="6.4943">
        <ele>1732</ele>
        <time>2024-08-11T12:55:27Z</time>
      </trkpt>
      <trkpt lat="44.90312" lon="6.49428">
        <ele>1731.8</ele>
        <time>2024-08-11T12:55:28Z</time>
      </trkpt>
      <trkpt lat="44.90312" lon="6.49428">
        <ele>1731.8</ele>
        <time>2024-08-11T12:55:29Z</time>
      </trkpt>
      <trkpt lat="44.90309" lon="6.49426">
        <ele>1731.6</ele>
        <time>2024-08-11T12:55:30Z</time>
      </trkpt>
      <trkpt lat="44.90309" lon="6.49426">
        <ele>1731.4</ele>
        <time>2024-08-11T12:55:31Z</time>
      </trkpt>
      <trkpt lat="44.90307" lon="6.49422">
        <ele>1731.4</ele>
        <time>2024-08-11T12:55:32Z</time>
      </trkpt>
      <trkpt lat="44.90307" lon="6.49422">
        <ele>1731.8</ele>
        <time>2024-08-11T12:55:33Z</time>
      </trkpt>
      <trkpt lat="44.90305" lon="6.49421">
        <ele>1731.8</ele>
        <time>2024-08-11T12:55:34Z</time>
      </trkpt>
      <trkpt lat="44.90305" lon="6.49421">
        <ele>1731.8</ele>
        <time>2024-08-11T12:55:35Z</time>
      </trkpt>
      <trkpt lat="44.90303" lon="6.49419">
        <ele>1731.8</ele>
        <time>2024-08-11T12:55:36Z</time>
      </trkpt>
      <trkpt lat="44.90303" lon="6.49419">
        <ele>1731.8</ele>
        <time>2024-08-11T12:55:37Z</time>
      </trkpt>
      <trkpt lat="44.903" lon="6.49417">
        <ele>1731.8</ele>
        <time>2024-08-11T12:55:38Z</time>
      </trkpt>
      <trkpt lat="44.903" lon="6.49417">
        <ele>1731.8</ele>
        <time>2024-08-11T12:55:39Z</time>
      </trkpt>
      <trkpt lat="44.90297" lon="6.49415">
        <ele>1731.8</ele>
        <time>2024-08-11T12:55:40Z</time>
      </trkpt>
      <trkpt lat="44.90297" lon="6.49415">
        <ele>1732</ele>
        <time>2024-08-11T12:55:41Z</time>
      </trkpt>
      <trkpt lat="44.90295" lon="6.49414">
        <ele>1732</ele>
        <time>2024-08-11T12:55:42Z</time>
      </trkpt>
      <trkpt lat="44.90295" lon="6.49414">
        <ele>1731.8</ele>
        <time>2024-08-11T12:55:43Z</time>
      </trkpt>
      <trkpt lat="44.90293" lon="6.49411">
        <ele>1731.8</ele>
        <time>2024-08-11T12:55:44Z</time>
      </trkpt>
      <trkpt lat="44.90293" lon="6.49411">
        <ele>1731.6</ele>
        <time>2024-08-11T12:55:45Z</time>
      </trkpt>
      <trkpt lat="44.90292" lon="6.49409">
        <ele>1731.6</ele>
        <time>2024-08-11T12:55:46Z</time>
      </trkpt>
      <trkpt lat="44.90292" lon="6.49409">
        <ele>1731.6</ele>
        <time>2024-08-11T12:55:47Z</time>
      </trkpt>
      <trkpt lat="44.9029" lon="6.49406">
        <ele>1731.6</ele>
        <time>2024-08-11T12:55:48Z</time>
      </trkpt>
      <trkpt lat="44.9029" lon="6.49406">
        <ele>1731.6</ele>
        <time>2024-08-11T12:55:49Z</time>
      </trkpt>
      <trkpt lat="44.90288" lon="6.49403">
        <ele>1731.6</ele>
        <time>2024-08-11T12:55:50Z</time>
      </trkpt>
      <trkpt lat="44.90288" lon="6.49403">
        <ele>1731.6</ele>
        <time>2024-08-11T12:55:51Z</time>
      </trkpt>
      <trkpt lat="44.90286" lon="6.49401">
        <ele>1731.2</ele>
        <time>2024-08-11T12:55:52Z</time>
      </trkpt>
      <trkpt lat="44.90286" lon="6.49401">
        <ele>1731</ele>
        <time>2024-08-11T12:55:53Z</time>
      </trkpt>
      <trkpt lat="44.90285" lon="6.49399">
        <ele>1731</ele>
        <time>2024-08-11T12:55:54Z</time>
      </trkpt>
      <trkpt lat="44.90285" lon="6.49399">
        <ele>1730.8</ele>
        <time>2024-08-11T12:55:55Z</time>
      </trkpt>
      <trkpt lat="44.90282" lon="6.49397">
        <ele>1730.6</ele>
        <time>2024-08-11T12:55:56Z</time>
      </trkpt>
      <trkpt lat="44.90282" lon="6.49397">
        <ele>1730.6</ele>
        <time>2024-08-11T12:55:57Z</time>
      </trkpt>
      <trkpt lat="44.90279" lon="6.49394">
        <ele>1730.6</ele>
        <time>2024-08-11T12:55:58Z</time>
      </trkpt>
      <trkpt lat="44.90278" lon="6.49393">
        <ele>1730.6</ele>
        <time>2024-08-11T12:55:59Z</time>
      </trkpt>
      <trkpt lat="44.90278" lon="6.49393">
        <ele>1730.6</ele>
        <time>2024-08-11T12:56:00Z</time>
      </trkpt>
      <trkpt lat="44.90276" lon="6.49391">
        <ele>1730.6</ele>
        <time>2024-08-11T12:56:01Z</time>
      </trkpt>
      <trkpt lat="44.90276" lon="6.49391">
        <ele>1730.4</ele>
        <time>2024-08-11T12:56:02Z</time>
      </trkpt>
      <trkpt lat="44.90274" lon="6.49389">
        <ele>1730.4</ele>
        <time>2024-08-11T12:56:03Z</time>
      </trkpt>
      <trkpt lat="44.90272" lon="6.49388">
        <ele>1730.2</ele>
        <time>2024-08-11T12:56:04Z</time>
      </trkpt>
      <trkpt lat="44.90272" lon="6.49388">
        <ele>1730</ele>
        <time>2024-08-11T12:56:05Z</time>
      </trkpt>
      <trkpt lat="44.9027" lon="6.49385">
        <ele>1730</ele>
        <time>2024-08-11T12:56:06Z</time>
      </trkpt>
      <trkpt lat="44.9027" lon="6.49385">
        <ele>1730</ele>
        <time>2024-08-11T12:56:07Z</time>
      </trkpt>
      <trkpt lat="44.90267" lon="6.49383">
        <ele>1730.2</ele>
        <time>2024-08-11T12:56:08Z</time>
      </trkpt>
      <trkpt lat="44.90267" lon="6.49383">
        <ele>1730.2</ele>
        <time>2024-08-11T12:56:09Z</time>
      </trkpt>
      <trkpt lat="44.90265" lon="6.4938">
        <ele>1730</ele>
        <time>2024-08-11T12:56:10Z</time>
      </trkpt>
      <trkpt lat="44.90265" lon="6.4938">
        <ele>1730</ele>
        <time>2024-08-11T12:56:11Z</time>
      </trkpt>
      <trkpt lat="44.90263" lon="6.49378">
        <ele>1730</ele>
        <time>2024-08-11T12:56:12Z</time>
      </trkpt>
      <trkpt lat="44.90263" lon="6.49378">
        <ele>1730</ele>
        <time>2024-08-11T12:56:13Z</time>
      </trkpt>
      <trkpt lat="44.90261" lon="6.49376">
        <ele>1730</ele>
        <time>2024-08-11T12:56:14Z</time>
      </trkpt>
      <trkpt lat="44.90261" lon="6.49376">
        <ele>1730</ele>
        <time>2024-08-11T12:56:15Z</time>
      </trkpt>
      <trkpt lat="44.90259" lon="6.49373">
        <ele>1730</ele>
        <time>2024-08-11T12:56:16Z</time>
      </trkpt>
      <trkpt lat="44.90259" lon="6.49373">
        <ele>1730</ele>
        <time>2024-08-11T12:56:17Z</time>
      </trkpt>
      <trkpt lat="44.90257" lon="6.4937">
        <ele>1729.8</ele>
        <time>2024-08-11T12:56:18Z</time>
      </trkpt>
      <trkpt lat="44.90257" lon="6.4937">
        <ele>1729.8</ele>
        <time>2024-08-11T12:56:19Z</time>
      </trkpt>
      <trkpt lat="44.90255" lon="6.49367">
        <ele>1729.6</ele>
        <time>2024-08-11T12:56:20Z</time>
      </trkpt>
      <trkpt lat="44.90255" lon="6.49367">
        <ele>1729.6</ele>
        <time>2024-08-11T12:56:21Z</time>
      </trkpt>
      <trkpt lat="44.90253" lon="6.49364">
        <ele>1729.6</ele>
        <time>2024-08-11T12:56:22Z</time>
      </trkpt>
      <trkpt lat="44.90253" lon="6.49364">
        <ele>1729.8</ele>
        <time>2024-08-11T12:56:23Z</time>
      </trkpt>
      <trkpt lat="44.90252" lon="6.49361">
        <ele>1729.8</ele>
        <time>2024-08-11T12:56:24Z</time>
      </trkpt>
      <trkpt lat="44.90252" lon="6.49361">
        <ele>1729.8</ele>
        <time>2024-08-11T12:56:25Z</time>
      </trkpt>
      <trkpt lat="44.9025" lon="6.49359">
        <ele>1729.8</ele>
        <time>2024-08-11T12:56:26Z</time>
      </trkpt>
      <trkpt lat="44.9025" lon="6.49359">
        <ele>1729.8</ele>
        <time>2024-08-11T12:56:27Z</time>
      </trkpt>
      <trkpt lat="44.90248" lon="6.49356">
        <ele>1729.6</ele>
        <time>2024-08-11T12:56:28Z</time>
      </trkpt>
      <trkpt lat="44.90248" lon="6.49356">
        <ele>1729.4</ele>
        <time>2024-08-11T12:56:29Z</time>
      </trkpt>
      <trkpt lat="44.90246" lon="6.49353">
        <ele>1729.2</ele>
        <time>2024-08-11T12:56:30Z</time>
      </trkpt>
      <trkpt lat="44.90246" lon="6.49353">
        <ele>1729.2</ele>
        <time>2024-08-11T12:56:31Z</time>
      </trkpt>
      <trkpt lat="44.90244" lon="6.4935">
        <ele>1729.2</ele>
        <time>2024-08-11T12:56:32Z</time>
      </trkpt>
      <trkpt lat="44.90244" lon="6.4935">
        <ele>1729.2</ele>
        <time>2024-08-11T12:56:33Z</time>
      </trkpt>
      <trkpt lat="44.90241" lon="6.49348">
        <ele>1729</ele>
        <time>2024-08-11T12:56:34Z</time>
      </trkpt>
      <trkpt lat="44.9024" lon="6.49347">
        <ele>1729</ele>
        <time>2024-08-11T12:56:35Z</time>
      </trkpt>
      <trkpt lat="44.9024" lon="6.49347">
        <ele>1729</ele>
        <time>2024-08-11T12:56:36Z</time>
      </trkpt>
      <trkpt lat="44.90237" lon="6.49345">
        <ele>1729</ele>
        <time>2024-08-11T12:56:37Z</time>
      </trkpt>
      <trkpt lat="44.90237" lon="6.49345">
        <ele>1728.8</ele>
        <time>2024-08-11T12:56:38Z</time>
      </trkpt>
      <trkpt lat="44.90235" lon="6.49342">
        <ele>1728.6</ele>
        <time>2024-08-11T12:56:39Z</time>
      </trkpt>
      <trkpt lat="44.90235" lon="6.49342">
        <ele>1728.2</ele>
        <time>2024-08-11T12:56:40Z</time>
      </trkpt>
      <trkpt lat="44.90232" lon="6.49341">
        <ele>1728.2</ele>
        <time>2024-08-11T12:56:41Z</time>
      </trkpt>
      <trkpt lat="44.90232" lon="6.49341">
        <ele>1728.2</ele>
        <time>2024-08-11T12:56:42Z</time>
      </trkpt>
      <trkpt lat="44.9023" lon="6.49339">
        <ele>1728</ele>
        <time>2024-08-11T12:56:43Z</time>
      </trkpt>
      <trkpt lat="44.9023" lon="6.49339">
        <ele>1727.8</ele>
        <time>2024-08-11T12:56:44Z</time>
      </trkpt>
      <trkpt lat="44.90228" lon="6.49336">
        <ele>1727.8</ele>
        <time>2024-08-11T12:56:45Z</time>
      </trkpt>
      <trkpt lat="44.90228" lon="6.49336">
        <ele>1728</ele>
        <time>2024-08-11T12:56:46Z</time>
      </trkpt>
      <trkpt lat="44.90226" lon="6.49334">
        <ele>1728</ele>
        <time>2024-08-11T12:56:47Z</time>
      </trkpt>
      <trkpt lat="44.90226" lon="6.49334">
        <ele>1728</ele>
        <time>2024-08-11T12:56:48Z</time>
      </trkpt>
      <trkpt lat="44.90223" lon="6.49332">
        <ele>1727.6</ele>
        <time>2024-08-11T12:56:49Z</time>
      </trkpt>
      <trkpt lat="44.90223" lon="6.49332">
        <ele>1727.6</ele>
        <time>2024-08-11T12:56:50Z</time>
      </trkpt>
      <trkpt lat="44.90221" lon="6.49329">
        <ele>1727.6</ele>
        <time>2024-08-11T12:56:51Z</time>
      </trkpt>
      <trkpt lat="44.90221" lon="6.49329">
        <ele>1727.8</ele>
        <time>2024-08-11T12:56:52Z</time>
      </trkpt>
      <trkpt lat="44.90218" lon="6.49328">
        <ele>1727.6</ele>
        <time>2024-08-11T12:56:53Z</time>
      </trkpt>
      <trkpt lat="44.90218" lon="6.49328">
        <ele>1727.6</ele>
        <time>2024-08-11T12:56:54Z</time>
      </trkpt>
      <trkpt lat="44.90215" lon="6.49326">
        <ele>1727</ele>
        <time>2024-08-11T12:56:55Z</time>
      </trkpt>
      <trkpt lat="44.90215" lon="6.49326">
        <ele>1727</ele>
        <time>2024-08-11T12:56:56Z</time>
      </trkpt>
      <trkpt lat="44.90213" lon="6.49325">
        <ele>1726.8</ele>
        <time>2024-08-11T12:56:57Z</time>
      </trkpt>
      <trkpt lat="44.90213" lon="6.49325">
        <ele>1726.8</ele>
        <time>2024-08-11T12:56:58Z</time>
      </trkpt>
      <trkpt lat="44.9021" lon="6.49323">
        <ele>1726.6</ele>
        <time>2024-08-11T12:56:59Z</time>
      </trkpt>
      <trkpt lat="44.9021" lon="6.49323">
        <ele>1726.4</ele>
        <time>2024-08-11T12:57:00Z</time>
      </trkpt>
      <trkpt lat="44.90207" lon="6.49322">
        <ele>1726</ele>
        <time>2024-08-11T12:57:01Z</time>
      </trkpt>
      <trkpt lat="44.90207" lon="6.49322">
        <ele>1726.2</ele>
        <time>2024-08-11T12:57:02Z</time>
      </trkpt>
      <trkpt lat="44.90204" lon="6.49321">
        <ele>1726.2</ele>
        <time>2024-08-11T12:57:03Z</time>
      </trkpt>
      <trkpt lat="44.90204" lon="6.49321">
        <ele>1725.8</ele>
        <time>2024-08-11T12:57:04Z</time>
      </trkpt>
      <trkpt lat="44.90202" lon="6.49319">
        <ele>1725.8</ele>
        <time>2024-08-11T12:57:05Z</time>
      </trkpt>
      <trkpt lat="44.90202" lon="6.49319">
        <ele>1725.8</ele>
        <time>2024-08-11T12:57:06Z</time>
      </trkpt>
      <trkpt lat="44.90199" lon="6.49317">
        <ele>1725.8</ele>
        <time>2024-08-11T12:57:07Z</time>
      </trkpt>
      <trkpt lat="44.90199" lon="6.49317">
        <ele>1725.8</ele>
        <time>2024-08-11T12:57:08Z</time>
      </trkpt>
      <trkpt lat="44.90197" lon="6.49316">
        <ele>1725</ele>
        <time>2024-08-11T12:57:09Z</time>
      </trkpt>
      <trkpt lat="44.90197" lon="6.49316">
        <ele>1725</ele>
        <time>2024-08-11T12:57:10Z</time>
      </trkpt>
      <trkpt lat="44.90194" lon="6.49315">
        <ele>1725</ele>
        <time>2024-08-11T12:57:11Z</time>
      </trkpt>
      <trkpt lat="44.90194" lon="6.49315">
        <ele>1725</ele>
        <time>2024-08-11T12:57:12Z</time>
      </trkpt>
      <trkpt lat="44.90191" lon="6.49313">
        <ele>1725</ele>
        <time>2024-08-11T12:57:13Z</time>
      </trkpt>
      <trkpt lat="44.90191" lon="6.49313">
        <ele>1724.8</ele>
        <time>2024-08-11T12:57:14Z</time>
      </trkpt>
      <trkpt lat="44.90189" lon="6.49312">
        <ele>1724.8</ele>
        <time>2024-08-11T12:57:15Z</time>
      </trkpt>
      <trkpt lat="44.90189" lon="6.49312">
        <ele>1724.8</ele>
        <time>2024-08-11T12:57:16Z</time>
      </trkpt>
      <trkpt lat="44.90186" lon="6.4931">
        <ele>1724.8</ele>
        <time>2024-08-11T12:57:17Z</time>
      </trkpt>
      <trkpt lat="44.90186" lon="6.4931">
        <ele>1724.6</ele>
        <time>2024-08-11T12:57:18Z</time>
      </trkpt>
      <trkpt lat="44.90183" lon="6.49309">
        <ele>1724.6</ele>
        <time>2024-08-11T12:57:19Z</time>
      </trkpt>
      <trkpt lat="44.90183" lon="6.49309">
        <ele>1724.6</ele>
        <time>2024-08-11T12:57:20Z</time>
      </trkpt>
      <trkpt lat="44.90181" lon="6.49308">
        <ele>1724.4</ele>
        <time>2024-08-11T12:57:21Z</time>
      </trkpt>
      <trkpt lat="44.90181" lon="6.49308">
        <ele>1724.4</ele>
        <time>2024-08-11T12:57:22Z</time>
      </trkpt>
      <trkpt lat="44.90178" lon="6.49307">
        <ele>1724.4</ele>
        <time>2024-08-11T12:57:23Z</time>
      </trkpt>
      <trkpt lat="44.90178" lon="6.49307">
        <ele>1724.4</ele>
        <time>2024-08-11T12:57:24Z</time>
      </trkpt>
      <trkpt lat="44.90175" lon="6.49305">
        <ele>1724.4</ele>
        <time>2024-08-11T12:57:25Z</time>
      </trkpt>
      <trkpt lat="44.90175" lon="6.49305">
        <ele>1724.4</ele>
        <time>2024-08-11T12:57:26Z</time>
      </trkpt>
      <trkpt lat="44.90173" lon="6.49304">
        <ele>1724.2</ele>
        <time>2024-08-11T12:57:27Z</time>
      </trkpt>
      <trkpt lat="44.90173" lon="6.49304">
        <ele>1724.2</ele>
        <time>2024-08-11T12:57:28Z</time>
      </trkpt>
      <trkpt lat="44.9017" lon="6.49302">
        <ele>1723.8</ele>
        <time>2024-08-11T12:57:29Z</time>
      </trkpt>
      <trkpt lat="44.9017" lon="6.49302">
        <ele>1723.8</ele>
        <time>2024-08-11T12:57:30Z</time>
      </trkpt>
      <trkpt lat="44.90167" lon="6.49301">
        <ele>1723.8</ele>
        <time>2024-08-11T12:57:31Z</time>
      </trkpt>
      <trkpt lat="44.90167" lon="6.49301">
        <ele>1723.8</ele>
        <time>2024-08-11T12:57:32Z</time>
      </trkpt>
      <trkpt lat="44.90165" lon="6.493">
        <ele>1723.4</ele>
        <time>2024-08-11T12:57:33Z</time>
      </trkpt>
      <trkpt lat="44.90165" lon="6.493">
        <ele>1723.4</ele>
        <time>2024-08-11T12:57:34Z</time>
      </trkpt>
      <trkpt lat="44.90162" lon="6.49299">
        <ele>1723.2</ele>
        <time>2024-08-11T12:57:35Z</time>
      </trkpt>
      <trkpt lat="44.90162" lon="6.49299">
        <ele>1723.2</ele>
        <time>2024-08-11T12:57:36Z</time>
      </trkpt>
      <trkpt lat="44.90159" lon="6.49299">
        <ele>1723.2</ele>
        <time>2024-08-11T12:57:37Z</time>
      </trkpt>
      <trkpt lat="44.90159" lon="6.49299">
        <ele>1723</ele>
        <time>2024-08-11T12:57:38Z</time>
      </trkpt>
      <trkpt lat="44.90156" lon="6.49298">
        <ele>1723</ele>
        <time>2024-08-11T12:57:39Z</time>
      </trkpt>
      <trkpt lat="44.90156" lon="6.49298">
        <ele>1722.8</ele>
        <time>2024-08-11T12:57:40Z</time>
      </trkpt>
      <trkpt lat="44.90154" lon="6.49297">
        <ele>1722.8</ele>
        <time>2024-08-11T12:57:41Z</time>
      </trkpt>
      <trkpt lat="44.90154" lon="6.49297">
        <ele>1722.8</ele>
        <time>2024-08-11T12:57:42Z</time>
      </trkpt>
      <trkpt lat="44.9015" lon="6.49297">
        <ele>1722.8</ele>
        <time>2024-08-11T12:57:43Z</time>
      </trkpt>
      <trkpt lat="44.9015" lon="6.49297">
        <ele>1722.6</ele>
        <time>2024-08-11T12:57:44Z</time>
      </trkpt>
      <trkpt lat="44.90148" lon="6.49297">
        <ele>1722.6</ele>
        <time>2024-08-11T12:57:45Z</time>
      </trkpt>
      <trkpt lat="44.90148" lon="6.49297">
        <ele>1722.6</ele>
        <time>2024-08-11T12:57:46Z</time>
      </trkpt>
      <trkpt lat="44.90145" lon="6.49296">
        <ele>1722.8</ele>
        <time>2024-08-11T12:57:47Z</time>
      </trkpt>
      <trkpt lat="44.90145" lon="6.49296">
        <ele>1722.8</ele>
        <time>2024-08-11T12:57:48Z</time>
      </trkpt>
      <trkpt lat="44.90142" lon="6.49295">
        <ele>1722.8</ele>
        <time>2024-08-11T12:57:49Z</time>
      </trkpt>
      <trkpt lat="44.90142" lon="6.49295">
        <ele>1722.8</ele>
        <time>2024-08-11T12:57:50Z</time>
      </trkpt>
      <trkpt lat="44.90139" lon="6.49295">
        <ele>1722.8</ele>
        <time>2024-08-11T12:57:51Z</time>
      </trkpt>
      <trkpt lat="44.90139" lon="6.49295">
        <ele>1722.6</ele>
        <time>2024-08-11T12:57:52Z</time>
      </trkpt>
      <trkpt lat="44.90136" lon="6.49294">
        <ele>1722.6</ele>
        <time>2024-08-11T12:57:53Z</time>
      </trkpt>
      <trkpt lat="44.90136" lon="6.49294">
        <ele>1722.6</ele>
        <time>2024-08-11T12:57:54Z</time>
      </trkpt>
      <trkpt lat="44.90134" lon="6.49294">
        <ele>1722.6</ele>
        <time>2024-08-11T12:57:55Z</time>
      </trkpt>
      <trkpt lat="44.90134" lon="6.49294">
        <ele>1722.4</ele>
        <time>2024-08-11T12:57:56Z</time>
      </trkpt>
      <trkpt lat="44.90131" lon="6.49293">
        <ele>1722.2</ele>
        <time>2024-08-11T12:57:57Z</time>
      </trkpt>
      <trkpt lat="44.90131" lon="6.49293">
        <ele>1722.2</ele>
        <time>2024-08-11T12:57:58Z</time>
      </trkpt>
      <trkpt lat="44.90128" lon="6.49293">
        <ele>1722</ele>
        <time>2024-08-11T12:57:59Z</time>
      </trkpt>
      <trkpt lat="44.90128" lon="6.49293">
        <ele>1722</ele>
        <time>2024-08-11T12:58:00Z</time>
      </trkpt>
      <trkpt lat="44.90126" lon="6.49292">
        <ele>1722</ele>
        <time>2024-08-11T12:58:01Z</time>
      </trkpt>
      <trkpt lat="44.90126" lon="6.49292">
        <ele>1721.8</ele>
        <time>2024-08-11T12:58:02Z</time>
      </trkpt>
      <trkpt lat="44.90123" lon="6.49292">
        <ele>1721.8</ele>
        <time>2024-08-11T12:58:03Z</time>
      </trkpt>
      <trkpt lat="44.90123" lon="6.49292">
        <ele>1721.8</ele>
        <time>2024-08-11T12:58:04Z</time>
      </trkpt>
      <trkpt lat="44.90121" lon="6.49292">
        <ele>1721.4</ele>
        <time>2024-08-11T12:58:05Z</time>
      </trkpt>
      <trkpt lat="44.90121" lon="6.49292">
        <ele>1721.4</ele>
        <time>2024-08-11T12:58:06Z</time>
      </trkpt>
      <trkpt lat="44.90121" lon="6.49292">
        <ele>1721.4</ele>
        <time>2024-08-11T12:58:07Z</time>
      </trkpt>
      <trkpt lat="44.90121" lon="6.49292">
        <ele>1721.2</ele>
        <time>2024-08-11T12:58:08Z</time>
      </trkpt>
      <trkpt lat="44.90121" lon="6.49292">
        <ele>1721.2</ele>
        <time>2024-08-11T12:58:09Z</time>
      </trkpt>
      <trkpt lat="44.90121" lon="6.49292">
        <ele>1721.6</ele>
        <time>2024-08-11T12:58:10Z</time>
      </trkpt>
      <trkpt lat="44.90121" lon="6.49292">
        <ele>1721.6</ele>
        <time>2024-08-11T12:58:11Z</time>
      </trkpt>
      <trkpt lat="44.90121" lon="6.49292">
        <ele>1721.8</ele>
        <time>2024-08-11T12:58:12Z</time>
      </trkpt>
      <trkpt lat="44.90121" lon="6.49292">
        <ele>1721.8</ele>
        <time>2024-08-11T12:58:13Z</time>
      </trkpt>
      <trkpt lat="44.90121" lon="6.49292">
        <ele>1721.8</ele>
        <time>2024-08-11T12:58:14Z</time>
      </trkpt>
      <trkpt lat="44.90118" lon="6.49293">
        <ele>1721.8</ele>
        <time>2024-08-11T12:58:15Z</time>
      </trkpt>
      <trkpt lat="44.90118" lon="6.49293">
        <ele>1721.6</ele>
        <time>2024-08-11T12:58:16Z</time>
      </trkpt>
      <trkpt lat="44.90117" lon="6.49292">
        <ele>1721.4</ele>
        <time>2024-08-11T12:58:17Z</time>
      </trkpt>
      <trkpt lat="44.90117" lon="6.49292">
        <ele>1721.4</ele>
        <time>2024-08-11T12:58:18Z</time>
      </trkpt>
      <trkpt lat="44.90114" lon="6.49293">
        <ele>1721.2</ele>
        <time>2024-08-11T12:58:19Z</time>
      </trkpt>
      <trkpt lat="44.90114" lon="6.49293">
        <ele>1721.2</ele>
        <time>2024-08-11T12:58:20Z</time>
      </trkpt>
      <trkpt lat="44.90114" lon="6.49293">
        <ele>1721</ele>
        <time>2024-08-11T12:58:21Z</time>
      </trkpt>
      <trkpt lat="44.90112" lon="6.49293">
        <ele>1721</ele>
        <time>2024-08-11T12:58:22Z</time>
      </trkpt>
      <trkpt lat="44.90112" lon="6.49293">
        <ele>1721</ele>
        <time>2024-08-11T12:58:23Z</time>
      </trkpt>
      <trkpt lat="44.90112" lon="6.49293">
        <ele>1721</ele>
        <time>2024-08-11T12:58:24Z</time>
      </trkpt>
      <trkpt lat="44.90112" lon="6.49293">
        <ele>1721</ele>
        <time>2024-08-11T12:58:25Z</time>
      </trkpt>
      <trkpt lat="44.90112" lon="6.49293">
        <ele>1721.2</ele>
        <time>2024-08-11T12:58:26Z</time>
      </trkpt>
      <trkpt lat="44.90112" lon="6.49293">
        <ele>1721.2</ele>
        <time>2024-08-11T12:58:27Z</time>
      </trkpt>
      <trkpt lat="44.90112" lon="6.49293">
        <ele>1721.2</ele>
        <time>2024-08-11T12:58:28Z</time>
      </trkpt>
      <trkpt lat="44.90112" lon="6.49293">
        <ele>1721.2</ele>
        <time>2024-08-11T12:58:29Z</time>
      </trkpt>
      <trkpt lat="44.90112" lon="6.49293">
        <ele>1721</ele>
        <time>2024-08-11T12:58:30Z</time>
      </trkpt>
      <trkpt lat="44.90112" lon="6.49293">
        <ele>1721</ele>
        <time>2024-08-11T12:58:31Z</time>
      </trkpt>
      <trkpt lat="44.90112" lon="6.49293">
        <ele>1721</ele>
        <time>2024-08-11T12:58:32Z</time>
      </trkpt>
      <trkpt lat="44.90112" lon="6.49293">
        <ele>1721</ele>
        <time>2024-08-11T12:58:33Z</time>
      </trkpt>
      <trkpt lat="44.90112" lon="6.49296">
        <ele>1721</ele>
        <time>2024-08-11T12:58:34Z</time>
      </trkpt>
      <trkpt lat="44.90112" lon="6.49296">
        <ele>1721</ele>
        <time>2024-08-11T12:58:35Z</time>
      </trkpt>
      <trkpt lat="44.90114" lon="6.49299">
        <ele>1721.2</ele>
        <time>2024-08-11T12:58:36Z</time>
      </trkpt>
      <trkpt lat="44.90114" lon="6.49299">
        <ele>1721.2</ele>
        <time>2024-08-11T12:58:37Z</time>
      </trkpt>
      <trkpt lat="44.90115" lon="6.49301">
        <ele>1721.2</ele>
        <time>2024-08-11T12:58:38Z</time>
      </trkpt>
      <trkpt lat="44.90115" lon="6.49301">
        <ele>1721.2</ele>
        <time>2024-08-11T12:58:39Z</time>
      </trkpt>
      <trkpt lat="44.90117" lon="6.49304">
        <ele>1721.2</ele>
        <time>2024-08-11T12:58:40Z</time>
      </trkpt>
      <trkpt lat="44.90117" lon="6.49304">
        <ele>1721.4</ele>
        <time>2024-08-11T12:58:41Z</time>
      </trkpt>
      <trkpt lat="44.90117" lon="6.49304">
        <ele>1721.4</ele>
        <time>2024-08-11T12:58:42Z</time>
      </trkpt>
      <trkpt lat="44.90116" lon="6.49307">
        <ele>1721.6</ele>
        <time>2024-08-11T12:58:43Z</time>
      </trkpt>
      <trkpt lat="44.90116" lon="6.49307">
        <ele>1721.6</ele>
        <time>2024-08-11T12:58:44Z</time>
      </trkpt>
      <trkpt lat="44.90116" lon="6.49307">
        <ele>1721.6</ele>
        <time>2024-08-11T12:58:45Z</time>
      </trkpt>
      <trkpt lat="44.90116" lon="6.49307">
        <ele>1721.6</ele>
        <time>2024-08-11T12:58:46Z</time>
      </trkpt>
      <trkpt lat="44.90116" lon="6.49307">
        <ele>1721.6</ele>
        <time>2024-08-11T12:58:47Z</time>
      </trkpt>
      <trkpt lat="44.90116" lon="6.4931">
        <ele>1721.8</ele>
        <time>2024-08-11T12:58:48Z</time>
      </trkpt>
      <trkpt lat="44.90116" lon="6.4931">
        <ele>1721.8</ele>
        <time>2024-08-11T12:58:49Z</time>
      </trkpt>
      <trkpt lat="44.90116" lon="6.4931">
        <ele>1722</ele>
        <time>2024-08-11T12:58:50Z</time>
      </trkpt>
      <trkpt lat="44.90116" lon="6.4931">
        <ele>1722</ele>
        <time>2024-08-11T12:58:51Z</time>
      </trkpt>
      <trkpt lat="44.90116" lon="6.4931">
        <ele>1722.2</ele>
        <time>2024-08-11T12:58:52Z</time>
      </trkpt>
      <trkpt lat="44.90116" lon="6.4931">
        <ele>1722.2</ele>
        <time>2024-08-11T12:58:53Z</time>
      </trkpt>
      <trkpt lat="44.90116" lon="6.4931">
        <ele>1722.2</ele>
        <time>2024-08-11T12:58:54Z</time>
      </trkpt>
      <trkpt lat="44.90116" lon="6.4931">
        <ele>1722.2</ele>
        <time>2024-08-11T12:58:55Z</time>
      </trkpt>
      <trkpt lat="44.90116" lon="6.4931">
        <ele>1722.4</ele>
        <time>2024-08-11T12:58:56Z</time>
      </trkpt>
      <trkpt lat="44.90116" lon="6.4931">
        <ele>1722.4</ele>
        <time>2024-08-11T12:58:57Z</time>
      </trkpt>
      <trkpt lat="44.90116" lon="6.4931">
        <ele>1722.4</ele>
        <time>2024-08-11T12:58:58Z</time>
      </trkpt>
      <trkpt lat="44.90116" lon="6.4931">
        <ele>1722.4</ele>
        <time>2024-08-11T12:58:59Z</time>
      </trkpt>
      <trkpt lat="44.90116" lon="6.4931">
        <ele>1722.4</ele>
        <time>2024-08-11T12:59:00Z</time>
      </trkpt>
      <trkpt lat="44.90116" lon="6.4931">
        <ele>1722.4</ele>
        <time>2024-08-11T12:59:01Z</time>
      </trkpt>
      <trkpt lat="44.90116" lon="6.4931">
        <ele>1722.4</ele>
        <time>2024-08-11T12:59:02Z</time>
      </trkpt>
      <trkpt lat="44.90116" lon="6.4931">
        <ele>1722.4</ele>
        <time>2024-08-11T12:59:03Z</time>
      </trkpt>
      <trkpt lat="44.90116" lon="6.4931">
        <ele>1722.4</ele>
        <time>2024-08-11T12:59:04Z</time>
      </trkpt>
      <trkpt lat="44.90116" lon="6.4931">
        <ele>1722.4</ele>
        <time>2024-08-11T12:59:05Z</time>
      </trkpt>
      <trkpt lat="44.90116" lon="6.4931">
        <ele>1722.4</ele>
        <time>2024-08-11T12:59:06Z</time>
      </trkpt>
      <trkpt lat="44.90116" lon="6.4931">
        <ele>1722.6</ele>
        <time>2024-08-11T12:59:07Z</time>
      </trkpt>
      <trkpt lat="44.90116" lon="6.4931">
        <ele>1722.8</ele>
        <time>2024-08-11T12:59:08Z</time>
      </trkpt>
      <trkpt lat="44.90116" lon="6.4931">
        <ele>1722.8</ele>
        <time>2024-08-11T12:59:09Z</time>
      </trkpt>
      <trkpt lat="44.90116" lon="6.4931">
        <ele>1723</ele>
        <time>2024-08-11T12:59:10Z</time>
      </trkpt>
      <trkpt lat="44.90116" lon="6.4931">
        <ele>1723.2</ele>
        <time>2024-08-11T12:59:11Z</time>
      </trkpt>
      <trkpt lat="44.90116" lon="6.4931">
        <ele>1723.2</ele>
        <time>2024-08-11T12:59:12Z</time>
      </trkpt>
      <trkpt lat="44.90116" lon="6.4931">
        <ele>1723.2</ele>
        <time>2024-08-11T12:59:13Z</time>
      </trkpt>
      <trkpt lat="44.90116" lon="6.4931">
        <ele>1723.2</ele>
        <time>2024-08-11T12:59:14Z</time>
      </trkpt>
      <trkpt lat="44.90116" lon="6.4931">
        <ele>1723.2</ele>
        <time>2024-08-11T12:59:15Z</time>
      </trkpt>
      <trkpt lat="44.90116" lon="6.4931">
        <ele>1723</ele>
        <time>2024-08-11T12:59:16Z</time>
      </trkpt>
      <trkpt lat="44.90116" lon="6.4931">
        <ele>1723</ele>
        <time>2024-08-11T12:59:17Z</time>
      </trkpt>
      <trkpt lat="44.90116" lon="6.4931">
        <ele>1723</ele>
        <time>2024-08-11T12:59:18Z</time>
      </trkpt>
      <trkpt lat="44.90116" lon="6.4931">
        <ele>1723</ele>
        <time>2024-08-11T12:59:19Z</time>
      </trkpt>
      <trkpt lat="44.90116" lon="6.4931">
        <ele>1723</ele>
        <time>2024-08-11T12:59:20Z</time>
      </trkpt>
      <trkpt lat="44.90116" lon="6.4931">
        <ele>1723</ele>
        <time>2024-08-11T12:59:21Z</time>
      </trkpt>
      <trkpt lat="44.90116" lon="6.4931">
        <ele>1723</ele>
        <time>2024-08-11T12:59:22Z</time>
      </trkpt>
      <trkpt lat="44.90116" lon="6.4931">
        <ele>1723.4</ele>
        <time>2024-08-11T12:59:23Z</time>
      </trkpt>
      <trkpt lat="44.90116" lon="6.4931">
        <ele>1723.4</ele>
        <time>2024-08-11T12:59:24Z</time>
      </trkpt>
      <trkpt lat="44.90116" lon="6.4931">
        <ele>1723</ele>
        <time>2024-08-11T12:59:25Z</time>
      </trkpt>
      <trkpt lat="44.90116" lon="6.4931">
        <ele>1722.8</ele>
        <time>2024-08-11T12:59:26Z</time>
      </trkpt>
      <trkpt lat="44.90114" lon="6.49312">
        <ele>1722.8</ele>
        <time>2024-08-11T12:59:27Z</time>
      </trkpt>
      <trkpt lat="44.90114" lon="6.49312">
        <ele>1723</ele>
        <time>2024-08-11T12:59:28Z</time>
      </trkpt>
      <trkpt lat="44.90112" lon="6.49312">
        <ele>1723</ele>
        <time>2024-08-11T12:59:29Z</time>
      </trkpt>
      <trkpt lat="44.90112" lon="6.49312">
        <ele>1722.6</ele>
        <time>2024-08-11T12:59:30Z</time>
      </trkpt>
      <trkpt lat="44.9011" lon="6.49313">
        <ele>1722.4</ele>
        <time>2024-08-11T12:59:31Z</time>
      </trkpt>
      <trkpt lat="44.9011" lon="6.49313">
        <ele>1722.4</ele>
        <time>2024-08-11T12:59:32Z</time>
      </trkpt>
      <trkpt lat="44.9011" lon="6.49313">
        <ele>1722.4</ele>
        <time>2024-08-11T12:59:33Z</time>
      </trkpt>
      <trkpt lat="44.9011" lon="6.49313">
        <ele>1722.6</ele>
        <time>2024-08-11T12:59:34Z</time>
      </trkpt>
      <trkpt lat="44.9011" lon="6.49313">
        <ele>1722.4</ele>
        <time>2024-08-11T12:59:35Z</time>
      </trkpt>
      <trkpt lat="44.90108" lon="6.49314">
        <ele>1722.4</ele>
        <time>2024-08-11T12:59:36Z</time>
      </trkpt>
      <trkpt lat="44.90108" lon="6.49314">
        <ele>1722.4</ele>
        <time>2024-08-11T12:59:37Z</time>
      </trkpt>
      <trkpt lat="44.90108" lon="6.49314">
        <ele>1722.4</ele>
        <time>2024-08-11T12:59:38Z</time>
      </trkpt>
      <trkpt lat="44.90108" lon="6.49314">
        <ele>1722.4</ele>
        <time>2024-08-11T12:59:39Z</time>
      </trkpt>
      <trkpt lat="44.90108" lon="6.49314">
        <ele>1722.2</ele>
        <time>2024-08-11T12:59:40Z</time>
      </trkpt>
      <trkpt lat="44.90108" lon="6.49314">
        <ele>1722.2</ele>
        <time>2024-08-11T12:59:41Z</time>
      </trkpt>
      <trkpt lat="44.90108" lon="6.49314">
        <ele>1722.2</ele>
        <time>2024-08-11T12:59:42Z</time>
      </trkpt>
      <trkpt lat="44.90108" lon="6.49314">
        <ele>1722.2</ele>
        <time>2024-08-11T12:59:43Z</time>
      </trkpt>
      <trkpt lat="44.90108" lon="6.49314">
        <ele>1722.2</ele>
        <time>2024-08-11T12:59:44Z</time>
      </trkpt>
      <trkpt lat="44.90108" lon="6.49314">
        <ele>1722.2</ele>
        <time>2024-08-11T12:59:45Z</time>
      </trkpt>
      <trkpt lat="44.90108" lon="6.49314">
        <ele>1722.4</ele>
        <time>2024-08-11T12:59:46Z</time>
      </trkpt>
      <trkpt lat="44.90108" lon="6.49314">
        <ele>1722.4</ele>
        <time>2024-08-11T12:59:47Z</time>
      </trkpt>
      <trkpt lat="44.90108" lon="6.49314">
        <ele>1722.4</ele>
        <time>2024-08-11T12:59:48Z</time>
      </trkpt>
      <trkpt lat="44.90108" lon="6.49314">
        <ele>1722.6</ele>
        <time>2024-08-11T12:59:49Z</time>
      </trkpt>
      <trkpt lat="44.90108" lon="6.49314">
        <ele>1722.6</ele>
        <time>2024-08-11T12:59:50Z</time>
      </trkpt>
      <trkpt lat="44.90108" lon="6.49314">
        <ele>1722.6</ele>
        <time>2024-08-11T12:59:51Z</time>
      </trkpt>
      <trkpt lat="44.90108" lon="6.49314">
        <ele>1722.6</ele>
        <time>2024-08-11T12:59:52Z</time>
      </trkpt>
      <trkpt lat="44.90108" lon="6.49314">
        <ele>1722.6</ele>
        <time>2024-08-11T12:59:53Z</time>
      </trkpt>
      <trkpt lat="44.90108" lon="6.49314">
        <ele>1722.8</ele>
        <time>2024-08-11T12:59:54Z</time>
      </trkpt>
      <trkpt lat="44.90108" lon="6.49314">
        <ele>1722.8</ele>
        <time>2024-08-11T12:59:55Z</time>
      </trkpt>
      <trkpt lat="44.90108" lon="6.49314">
        <ele>1722.8</ele>
        <time>2024-08-11T12:59:56Z</time>
      </trkpt>
      <trkpt lat="44.90108" lon="6.49314">
        <ele>1722.6</ele>
        <time>2024-08-11T12:59:57Z</time>
      </trkpt>
      <trkpt lat="44.90108" lon="6.49314">
        <ele>1722.6</ele>
        <time>2024-08-11T12:59:58Z</time>
      </trkpt>
      <trkpt lat="44.90108" lon="6.49314">
        <ele>1722.6</ele>
        <time>2024-08-11T12:59:59Z</time>
      </trkpt>
      <trkpt lat="44.90108" lon="6.49314">
        <ele>1722.6</ele>
        <time>2024-08-11T13:00:00Z</time>
      </trkpt>
      <trkpt lat="44.90108" lon="6.49314">
        <ele>1722.6</ele>
        <time>2024-08-11T13:00:01Z</time>
      </trkpt>
      <trkpt lat="44.90108" lon="6.49314">
        <ele>1722.6</ele>
        <time>2024-08-11T13:00:02Z</time>
      </trkpt>
      <trkpt lat="44.90108" lon="6.49314">
        <ele>1722.6</ele>
        <time>2024-08-11T13:00:03Z</time>
      </trkpt>
      <trkpt lat="44.90108" lon="6.49314">
        <ele>1722.8</ele>
        <time>2024-08-11T13:00:04Z</time>
      </trkpt>
      <trkpt lat="44.90108" lon="6.49314">
        <ele>1722.8</ele>
        <time>2024-08-11T13:00:05Z</time>
      </trkpt>
      <trkpt lat="44.90108" lon="6.49314">
        <ele>1722.8</ele>
        <time>2024-08-11T13:00:06Z</time>
      </trkpt>
      <trkpt lat="44.90108" lon="6.49314">
        <ele>1722.8</ele>
        <time>2024-08-11T13:00:07Z</time>
      </trkpt>
      <trkpt lat="44.90108" lon="6.49314">
        <ele>1722.8</ele>
        <time>2024-08-11T13:00:08Z</time>
      </trkpt>
      <trkpt lat="44.90108" lon="6.49314">
        <ele>1722.8</ele>
        <time>2024-08-11T13:00:09Z</time>
      </trkpt>
      <trkpt lat="44.90108" lon="6.49314">
        <ele>1722.8</ele>
        <time>2024-08-11T13:00:10Z</time>
      </trkpt>
      <trkpt lat="44.90108" lon="6.49314">
        <ele>1722.8</ele>
        <time>2024-08-11T13:00:11Z</time>
      </trkpt>
      <trkpt lat="44.90108" lon="6.49314">
        <ele>1722.8</ele>
        <time>2024-08-11T13:00:12Z</time>
      </trkpt>
      <trkpt lat="44.90108" lon="6.49314">
        <ele>1722.8</ele>
        <time>2024-08-11T13:00:13Z</time>
      </trkpt>
      <trkpt lat="44.90108" lon="6.49314">
        <ele>1722.6</ele>
        <time>2024-08-11T13:00:14Z</time>
      </trkpt>
      <trkpt lat="44.90108" lon="6.49314">
        <ele>1722.6</ele>
        <time>2024-08-11T13:00:15Z</time>
      </trkpt>
      <trkpt lat="44.90108" lon="6.49314">
        <ele>1722.6</ele>
        <time>2024-08-11T13:00:16Z</time>
      </trkpt>
      <trkpt lat="44.90108" lon="6.49314">
        <ele>1722.8</ele>
        <time>2024-08-11T13:00:17Z</time>
      </trkpt>
      <trkpt lat="44.90108" lon="6.49314">
        <ele>1723</ele>
        <time>2024-08-11T13:00:18Z</time>
      </trkpt>
      <trkpt lat="44.90108" lon="6.49311">
        <ele>1723</ele>
        <time>2024-08-11T13:00:19Z</time>
      </trkpt>
      <trkpt lat="44.90108" lon="6.49311">
        <ele>1723.2</ele>
        <time>2024-08-11T13:00:20Z</time>
      </trkpt>
      <trkpt lat="44.90108" lon="6.49311">
        <ele>1723.2</ele>
        <time>2024-08-11T13:00:21Z</time>
      </trkpt>
      <trkpt lat="44.90108" lon="6.49311">
        <ele>1723</ele>
        <time>2024-08-11T13:00:22Z</time>
      </trkpt>
      <trkpt lat="44.90108" lon="6.49311">
        <ele>1722.8</ele>
        <time>2024-08-11T13:00:23Z</time>
      </trkpt>
      <trkpt lat="44.90108" lon="6.49311">
        <ele>1722.8</ele>
        <time>2024-08-11T13:00:24Z</time>
      </trkpt>
      <trkpt lat="44.90108" lon="6.49311">
        <ele>1722.8</ele>
        <time>2024-08-11T13:00:25Z</time>
      </trkpt>
      <trkpt lat="44.90108" lon="6.49311">
        <ele>1722.8</ele>
        <time>2024-08-11T13:00:26Z</time>
      </trkpt>
      <trkpt lat="44.90108" lon="6.49311">
        <ele>1722.8</ele>
        <time>2024-08-11T13:00:27Z</time>
      </trkpt>
      <trkpt lat="44.90108" lon="6.49311">
        <ele>1723</ele>
        <time>2024-08-11T13:00:28Z</time>
      </trkpt>
      <trkpt lat="44.90108" lon="6.49311">
        <ele>1723</ele>
        <time>2024-08-11T13:00:29Z</time>
      </trkpt>
      <trkpt lat="44.90108" lon="6.49311">
        <ele>1723</ele>
        <time>2024-08-11T13:00:30Z</time>
      </trkpt>
      <trkpt lat="44.90108" lon="6.49311">
        <ele>1723</ele>
        <time>2024-08-11T13:00:31Z</time>
      </trkpt>
      <trkpt lat="44.90108" lon="6.49311">
        <ele>1723</ele>
        <time>2024-08-11T13:00:32Z</time>
      </trkpt>
      <trkpt lat="44.90108" lon="6.49311">
        <ele>1723</ele>
        <time>2024-08-11T13:00:33Z</time>
      </trkpt>
      <trkpt lat="44.90108" lon="6.49311">
        <ele>1723</ele>
        <time>2024-08-11T13:00:34Z</time>
      </trkpt>
      <trkpt lat="44.90108" lon="6.49311">
        <ele>1723</ele>
        <time>2024-08-11T13:00:35Z</time>
      </trkpt>
      <trkpt lat="44.90108" lon="6.49311">
        <ele>1722.8</ele>
        <time>2024-08-11T13:00:36Z</time>
      </trkpt>
      <trkpt lat="44.90108" lon="6.49311">
        <ele>1722.8</ele>
        <time>2024-08-11T13:00:37Z</time>
      </trkpt>
      <trkpt lat="44.90108" lon="6.49311">
        <ele>1722.8</ele>
        <time>2024-08-11T13:00:38Z</time>
      </trkpt>
      <trkpt lat="44.90108" lon="6.49311">
        <ele>1722.6</ele>
        <time>2024-08-11T13:00:39Z</time>
      </trkpt>
      <trkpt lat="44.90108" lon="6.49311">
        <ele>1722.6</ele>
        <time>2024-08-11T13:00:40Z</time>
      </trkpt>
      <trkpt lat="44.90108" lon="6.49311">
        <ele>1722.6</ele>
        <time>2024-08-11T13:00:41Z</time>
      </trkpt>
      <trkpt lat="44.90108" lon="6.49311">
        <ele>1722.6</ele>
        <time>2024-08-11T13:00:42Z</time>
      </trkpt>
      <trkpt lat="44.90108" lon="6.49311">
        <ele>1722.6</ele>
        <time>2024-08-11T13:00:43Z</time>
      </trkpt>
      <trkpt lat="44.90108" lon="6.49311">
        <ele>1722.6</ele>
        <time>2024-08-11T13:00:44Z</time>
      </trkpt>
      <trkpt lat="44.90108" lon="6.49311">
        <ele>1722.6</ele>
        <time>2024-08-11T13:00:45Z</time>
      </trkpt>
      <trkpt lat="44.90108" lon="6.49311">
        <ele>1722.6</ele>
        <time>2024-08-11T13:00:46Z</time>
      </trkpt>
      <trkpt lat="44.90108" lon="6.49311">
        <ele>1722.6</ele>
        <time>2024-08-11T13:00:47Z</time>
      </trkpt>
      <trkpt lat="44.90108" lon="6.49311">
        <ele>1722.6</ele>
        <time>2024-08-11T13:00:48Z</time>
      </trkpt>
      <trkpt lat="44.90108" lon="6.49311">
        <ele>1722.6</ele>
        <time>2024-08-11T13:00:49Z</time>
      </trkpt>
      <trkpt lat="44.90108" lon="6.49311">
        <ele>1722.6</ele>
        <time>2024-08-11T13:00:50Z</time>
      </trkpt>
      <trkpt lat="44.90108" lon="6.49311">
        <ele>1722.6</ele>
        <time>2024-08-11T13:00:51Z</time>
      </trkpt>
      <trkpt lat="44.90108" lon="6.49311">
        <ele>1722.6</ele>
        <time>2024-08-11T13:00:52Z</time>
      </trkpt>
      <trkpt lat="44.90108" lon="6.49311">
        <ele>1722.4</ele>
        <time>2024-08-11T13:00:53Z</time>
      </trkpt>
      <trkpt lat="44.90108" lon="6.49311">
        <ele>1722.4</ele>
        <time>2024-08-11T13:00:54Z</time>
      </trkpt>
      <trkpt lat="44.90108" lon="6.49311">
        <ele>1722.6</ele>
        <time>2024-08-11T13:00:55Z</time>
      </trkpt>
      <trkpt lat="44.90108" lon="6.49311">
        <ele>1722.6</ele>
        <time>2024-08-11T13:00:56Z</time>
      </trkpt>
      <trkpt lat="44.90108" lon="6.49311">
        <ele>1722.4</ele>
        <time>2024-08-11T13:00:57Z</time>
      </trkpt>
      <trkpt lat="44.90108" lon="6.49311">
        <ele>1722.2</ele>
        <time>2024-08-11T13:00:58Z</time>
      </trkpt>
      <trkpt lat="44.90108" lon="6.49311">
        <ele>1722.2</ele>
        <time>2024-08-11T13:00:59Z</time>
      </trkpt>
      <trkpt lat="44.90108" lon="6.49311">
        <ele>1722.2</ele>
        <time>2024-08-11T13:01:00Z</time>
      </trkpt>
      <trkpt lat="44.90108" lon="6.49311">
        <ele>1722.4</ele>
        <time>2024-08-11T13:01:01Z</time>
      </trkpt>
      <trkpt lat="44.90108" lon="6.49311">
        <ele>1722.4</ele>
        <time>2024-08-11T13:01:02Z</time>
      </trkpt>
      <trkpt lat="44.90108" lon="6.49311">
        <ele>1722.4</ele>
        <time>2024-08-11T13:01:03Z</time>
      </trkpt>
      <trkpt lat="44.90108" lon="6.49311">
        <ele>1722.4</ele>
        <time>2024-08-11T13:01:04Z</time>
      </trkpt>
      <trkpt lat="44.90108" lon="6.49311">
        <ele>1722.4</ele>
        <time>2024-08-11T13:01:05Z</time>
      </trkpt>
      <trkpt lat="44.90108" lon="6.49311">
        <ele>1722.4</ele>
        <time>2024-08-11T13:01:06Z</time>
      </trkpt>
      <trkpt lat="44.90108" lon="6.49311">
        <ele>1722.6</ele>
        <time>2024-08-11T13:01:07Z</time>
      </trkpt>
      <trkpt lat="44.90108" lon="6.49311">
        <ele>1722.8</ele>
        <time>2024-08-11T13:01:08Z</time>
      </trkpt>
      <trkpt lat="44.90108" lon="6.49311">
        <ele>1722.8</ele>
        <time>2024-08-11T13:01:09Z</time>
      </trkpt>
      <trkpt lat="44.90108" lon="6.49311">
        <ele>1722.6</ele>
        <time>2024-08-11T13:01:10Z</time>
      </trkpt>
      <trkpt lat="44.90108" lon="6.49311">
        <ele>1722.6</ele>
        <time>2024-08-11T13:01:11Z</time>
      </trkpt>
      <trkpt lat="44.90108" lon="6.49311">
        <ele>1722.6</ele>
        <time>2024-08-11T13:01:12Z</time>
      </trkpt>
      <trkpt lat="44.90108" lon="6.49311">
        <ele>1722.6</ele>
        <time>2024-08-11T13:01:13Z</time>
      </trkpt>
      <trkpt lat="44.90108" lon="6.49311">
        <ele>1722.6</ele>
        <time>2024-08-11T13:01:14Z</time>
      </trkpt>
      <trkpt lat="44.90108" lon="6.49311">
        <ele>1722.6</ele>
        <time>2024-08-11T13:01:15Z</time>
      </trkpt>
      <trkpt lat="44.90108" lon="6.49311">
        <ele>1722.6</ele>
        <time>2024-08-11T13:01:16Z</time>
      </trkpt>
      <trkpt lat="44.90108" lon="6.49311">
        <ele>1722.6</ele>
        <time>2024-08-11T13:01:17Z</time>
      </trkpt>
      <trkpt lat="44.90108" lon="6.49311">
        <ele>1722.6</ele>
        <time>2024-08-11T13:01:18Z</time>
      </trkpt>
      <trkpt lat="44.90108" lon="6.49311">
        <ele>1722.6</ele>
        <time>2024-08-11T13:01:19Z</time>
      </trkpt>
      <trkpt lat="44.90108" lon="6.49311">
        <ele>1722.6</ele>
        <time>2024-08-11T13:01:20Z</time>
      </trkpt>
      <trkpt lat="44.90108" lon="6.49311">
        <ele>1722.6</ele>
        <time>2024-08-11T13:01:21Z</time>
      </trkpt>
      <trkpt lat="44.90108" lon="6.49311">
        <ele>1722.6</ele>
        <time>2024-08-11T13:01:22Z</time>
      </trkpt>
      <trkpt lat="44.90108" lon="6.49311">
        <ele>1722.8</ele>
        <time>2024-08-11T13:01:23Z</time>
      </trkpt>
      <trkpt lat="44.90108" lon="6.49311">
        <ele>1722.6</ele>
        <time>2024-08-11T13:01:24Z</time>
      </trkpt>
      <trkpt lat="44.90108" lon="6.49311">
        <ele>1722.6</ele>
        <time>2024-08-11T13:01:25Z</time>
      </trkpt>
      <trkpt lat="44.90108" lon="6.49311">
        <ele>1722.6</ele>
        <time>2024-08-11T13:01:26Z</time>
      </trkpt>
      <trkpt lat="44.90108" lon="6.49311">
        <ele>1722.2</ele>
        <time>2024-08-11T13:01:27Z</time>
      </trkpt>
      <trkpt lat="44.90108" lon="6.49311">
        <ele>1722.2</ele>
        <time>2024-08-11T13:01:28Z</time>
      </trkpt>
      <trkpt lat="44.90108" lon="6.49311">
        <ele>1722.4</ele>
        <time>2024-08-11T13:01:29Z</time>
      </trkpt>
      <trkpt lat="44.90108" lon="6.49311">
        <ele>1722.6</ele>
        <time>2024-08-11T13:01:30Z</time>
      </trkpt>
      <trkpt lat="44.90108" lon="6.49311">
        <ele>1722.6</ele>
        <time>2024-08-11T13:01:31Z</time>
      </trkpt>
      <trkpt lat="44.90108" lon="6.49311">
        <ele>1722.6</ele>
        <time>2024-08-11T13:01:32Z</time>
      </trkpt>
      <trkpt lat="44.90108" lon="6.49311">
        <ele>1722.6</ele>
        <time>2024-08-11T13:01:33Z</time>
      </trkpt>
      <trkpt lat="44.90108" lon="6.49311">
        <ele>1722.6</ele>
        <time>2024-08-11T13:01:34Z</time>
      </trkpt>
      <trkpt lat="44.90108" lon="6.49311">
        <ele>1722.4</ele>
        <time>2024-08-11T13:01:35Z</time>
      </trkpt>
      <trkpt lat="44.90108" lon="6.49311">
        <ele>1722.4</ele>
        <time>2024-08-11T13:01:36Z</time>
      </trkpt>
      <trkpt lat="44.90108" lon="6.49311">
        <ele>1722.6</ele>
        <time>2024-08-11T13:01:37Z</time>
      </trkpt>
      <trkpt lat="44.90108" lon="6.49311">
        <ele>1722.6</ele>
        <time>2024-08-11T13:01:38Z</time>
      </trkpt>
      <trkpt lat="44.90108" lon="6.49311">
        <ele>1722.6</ele>
        <time>2024-08-11T13:01:39Z</time>
      </trkpt>
      <trkpt lat="44.90108" lon="6.49311">
        <ele>1722.6</ele>
        <time>2024-08-11T13:01:40Z</time>
      </trkpt>
      <trkpt lat="44.90108" lon="6.49311">
        <ele>1722.8</ele>
        <time>2024-08-11T13:01:41Z</time>
      </trkpt>
      <trkpt lat="44.90108" lon="6.49311">
        <ele>1722.8</ele>
        <time>2024-08-11T13:01:42Z</time>
      </trkpt>
      <trkpt lat="44.90108" lon="6.49311">
        <ele>1722.6</ele>
        <time>2024-08-11T13:01:43Z</time>
      </trkpt>
      <trkpt lat="44.90108" lon="6.49311">
        <ele>1722.6</ele>
        <time>2024-08-11T13:01:44Z</time>
      </trkpt>
      <trkpt lat="44.90108" lon="6.49311">
        <ele>1722.6</ele>
        <time>2024-08-11T13:01:45Z</time>
      </trkpt>
      <trkpt lat="44.90108" lon="6.49311">
        <ele>1722.6</ele>
        <time>2024-08-11T13:01:46Z</time>
      </trkpt>
      <trkpt lat="44.90108" lon="6.49311">
        <ele>1722.6</ele>
        <time>2024-08-11T13:01:47Z</time>
      </trkpt>
      <trkpt lat="44.90108" lon="6.49311">
        <ele>1722.4</ele>
        <time>2024-08-11T13:01:48Z</time>
      </trkpt>
      <trkpt lat="44.90108" lon="6.49311">
        <ele>1722.6</ele>
        <time>2024-08-11T13:01:49Z</time>
      </trkpt>
      <trkpt lat="44.90108" lon="6.49311">
        <ele>1722.6</ele>
        <time>2024-08-11T13:01:50Z</time>
      </trkpt>
      <trkpt lat="44.90108" lon="6.49311">
        <ele>1722.8</ele>
        <time>2024-08-11T13:01:51Z</time>
      </trkpt>
      <trkpt lat="44.90108" lon="6.49311">
        <ele>1722.6</ele>
        <time>2024-08-11T13:01:52Z</time>
      </trkpt>
      <trkpt lat="44.90108" lon="6.49311">
        <ele>1722.6</ele>
        <time>2024-08-11T13:01:53Z</time>
      </trkpt>
      <trkpt lat="44.90108" lon="6.49311">
        <ele>1722.6</ele>
        <time>2024-08-11T13:01:54Z</time>
      </trkpt>
      <trkpt lat="44.90109" lon="6.49308">
        <ele>1722.8</ele>
        <time>2024-08-11T13:01:55Z</time>
      </trkpt>
      <trkpt lat="44.90109" lon="6.49308">
        <ele>1722.8</ele>
        <time>2024-08-11T13:01:56Z</time>
      </trkpt>
      <trkpt lat="44.90109" lon="6.49308">
        <ele>1722.8</ele>
        <time>2024-08-11T13:01:57Z</time>
      </trkpt>
      <trkpt lat="44.90109" lon="6.49308">
        <ele>1722.6</ele>
        <time>2024-08-11T13:01:58Z</time>
      </trkpt>
      <trkpt lat="44.90109" lon="6.49308">
        <ele>1722.6</ele>
        <time>2024-08-11T13:01:59Z</time>
      </trkpt>
      <trkpt lat="44.90109" lon="6.49308">
        <ele>1722.4</ele>
        <time>2024-08-11T13:02:00Z</time>
      </trkpt>
      <trkpt lat="44.90109" lon="6.49308">
        <ele>1722.4</ele>
        <time>2024-08-11T13:02:01Z</time>
      </trkpt>
      <trkpt lat="44.90109" lon="6.49308">
        <ele>1722.4</ele>
        <time>2024-08-11T13:02:02Z</time>
      </trkpt>
      <trkpt lat="44.90109" lon="6.49308">
        <ele>1722.4</ele>
        <time>2024-08-11T13:02:03Z</time>
      </trkpt>
      <trkpt lat="44.90109" lon="6.49308">
        <ele>1722.4</ele>
        <time>2024-08-11T13:02:04Z</time>
      </trkpt>
      <trkpt lat="44.90109" lon="6.49308">
        <ele>1722.4</ele>
        <time>2024-08-11T13:02:05Z</time>
      </trkpt>
      <trkpt lat="44.90109" lon="6.49308">
        <ele>1722.4</ele>
        <time>2024-08-11T13:02:06Z</time>
      </trkpt>
      <trkpt lat="44.90109" lon="6.49308">
        <ele>1722.4</ele>
        <time>2024-08-11T13:02:07Z</time>
      </trkpt>
      <trkpt lat="44.90109" lon="6.49308">
        <ele>1722.2</ele>
        <time>2024-08-11T13:02:08Z</time>
      </trkpt>
      <trkpt lat="44.90109" lon="6.49308">
        <ele>1722.2</ele>
        <time>2024-08-11T13:02:09Z</time>
      </trkpt>
      <trkpt lat="44.90109" lon="6.49308">
        <ele>1722.2</ele>
        <time>2024-08-11T13:02:10Z</time>
      </trkpt>
      <trkpt lat="44.90109" lon="6.49308">
        <ele>1722.2</ele>
        <time>2024-08-11T13:02:11Z</time>
      </trkpt>
      <trkpt lat="44.90109" lon="6.49308">
        <ele>1722.2</ele>
        <time>2024-08-11T13:02:12Z</time>
      </trkpt>
      <trkpt lat="44.90109" lon="6.49308">
        <ele>1722.2</ele>
        <time>2024-08-11T13:02:13Z</time>
      </trkpt>
      <trkpt lat="44.90109" lon="6.49308">
        <ele>1722.4</ele>
        <time>2024-08-11T13:02:14Z</time>
      </trkpt>
      <trkpt lat="44.90109" lon="6.49308">
        <ele>1722.4</ele>
        <time>2024-08-11T13:02:15Z</time>
      </trkpt>
      <trkpt lat="44.90109" lon="6.49308">
        <ele>1722.2</ele>
        <time>2024-08-11T13:02:16Z</time>
      </trkpt>
      <trkpt lat="44.90109" lon="6.49308">
        <ele>1722.2</ele>
        <time>2024-08-11T13:02:17Z</time>
      </trkpt>
      <trkpt lat="44.90109" lon="6.49308">
        <ele>1722</ele>
        <time>2024-08-11T13:02:18Z</time>
      </trkpt>
      <trkpt lat="44.90109" lon="6.49308">
        <ele>1722</ele>
        <time>2024-08-11T13:02:19Z</time>
      </trkpt>
      <trkpt lat="44.90109" lon="6.49308">
        <ele>1722.4</ele>
        <time>2024-08-11T13:02:20Z</time>
      </trkpt>
      <trkpt lat="44.90109" lon="6.49308">
        <ele>1722.4</ele>
        <time>2024-08-11T13:02:21Z</time>
      </trkpt>
      <trkpt lat="44.90109" lon="6.49308">
        <ele>1722.4</ele>
        <time>2024-08-11T13:02:22Z</time>
      </trkpt>
      <trkpt lat="44.90109" lon="6.49308">
        <ele>1722.4</ele>
        <time>2024-08-11T13:02:23Z</time>
      </trkpt>
      <trkpt lat="44.90109" lon="6.49308">
        <ele>1722.4</ele>
        <time>2024-08-11T13:02:24Z</time>
      </trkpt>
      <trkpt lat="44.90109" lon="6.49308">
        <ele>1722.4</ele>
        <time>2024-08-11T13:02:25Z</time>
      </trkpt>
      <trkpt lat="44.90109" lon="6.49308">
        <ele>1722.4</ele>
        <time>2024-08-11T13:02:26Z</time>
      </trkpt>
      <trkpt lat="44.90109" lon="6.49308">
        <ele>1722.2</ele>
        <time>2024-08-11T13:02:27Z</time>
      </trkpt>
      <trkpt lat="44.90109" lon="6.49308">
        <ele>1722.2</ele>
        <time>2024-08-11T13:02:28Z</time>
      </trkpt>
      <trkpt lat="44.90109" lon="6.49308">
        <ele>1722.4</ele>
        <time>2024-08-11T13:02:29Z</time>
      </trkpt>
      <trkpt lat="44.90109" lon="6.49308">
        <ele>1722.4</ele>
        <time>2024-08-11T13:02:30Z</time>
      </trkpt>
      <trkpt lat="44.90109" lon="6.49308">
        <ele>1722.4</ele>
        <time>2024-08-11T13:02:31Z</time>
      </trkpt>
      <trkpt lat="44.90109" lon="6.49308">
        <ele>1722.2</ele>
        <time>2024-08-11T13:02:32Z</time>
      </trkpt>
      <trkpt lat="44.90109" lon="6.49308">
        <ele>1722</ele>
        <time>2024-08-11T13:02:33Z</time>
      </trkpt>
      <trkpt lat="44.90109" lon="6.49308">
        <ele>1721.8</ele>
        <time>2024-08-11T13:02:34Z</time>
      </trkpt>
      <trkpt lat="44.90109" lon="6.49308">
        <ele>1721.8</ele>
        <time>2024-08-11T13:02:35Z</time>
      </trkpt>
      <trkpt lat="44.90109" lon="6.49308">
        <ele>1721.8</ele>
        <time>2024-08-11T13:02:36Z</time>
      </trkpt>
      <trkpt lat="44.90109" lon="6.49308">
        <ele>1721.8</ele>
        <time>2024-08-11T13:02:37Z</time>
      </trkpt>
      <trkpt lat="44.90109" lon="6.49308">
        <ele>1721.8</ele>
        <time>2024-08-11T13:02:38Z</time>
      </trkpt>
      <trkpt lat="44.90109" lon="6.49308">
        <ele>1722</ele>
        <time>2024-08-11T13:02:39Z</time>
      </trkpt>
      <trkpt lat="44.90109" lon="6.49308">
        <ele>1721.8</ele>
        <time>2024-08-11T13:02:40Z</time>
      </trkpt>
      <trkpt lat="44.90109" lon="6.49308">
        <ele>1721.8</ele>
        <time>2024-08-11T13:02:41Z</time>
      </trkpt>
      <trkpt lat="44.90109" lon="6.49308">
        <ele>1721.8</ele>
        <time>2024-08-11T13:02:42Z</time>
      </trkpt>
      <trkpt lat="44.90109" lon="6.49308">
        <ele>1721.8</ele>
        <time>2024-08-11T13:02:43Z</time>
      </trkpt>
      <trkpt lat="44.90109" lon="6.49308">
        <ele>1721.8</ele>
        <time>2024-08-11T13:02:44Z</time>
      </trkpt>
      <trkpt lat="44.90109" lon="6.49308">
        <ele>1721.8</ele>
        <time>2024-08-11T13:02:45Z</time>
      </trkpt>
      <trkpt lat="44.90109" lon="6.49308">
        <ele>1721.8</ele>
        <time>2024-08-11T13:02:46Z</time>
      </trkpt>
      <trkpt lat="44.90109" lon="6.49308">
        <ele>1722</ele>
        <time>2024-08-11T13:02:47Z</time>
      </trkpt>
      <trkpt lat="44.90109" lon="6.49308">
        <ele>1722</ele>
        <time>2024-08-11T13:02:48Z</time>
      </trkpt>
      <trkpt lat="44.90109" lon="6.49308">
        <ele>1722</ele>
        <time>2024-08-11T13:02:49Z</time>
      </trkpt>
      <trkpt lat="44.90109" lon="6.49308">
        <ele>1722</ele>
        <time>2024-08-11T13:02:50Z</time>
      </trkpt>
      <trkpt lat="44.90109" lon="6.49308">
        <ele>1722</ele>
        <time>2024-08-11T13:02:51Z</time>
      </trkpt>
      <trkpt lat="44.90109" lon="6.49308">
        <ele>1722</ele>
        <time>2024-08-11T13:02:52Z</time>
      </trkpt>
      <trkpt lat="44.90109" lon="6.49308">
        <ele>1722</ele>
        <time>2024-08-11T13:02:53Z</time>
      </trkpt>
      <trkpt lat="44.90109" lon="6.49308">
        <ele>1722.2</ele>
        <time>2024-08-11T13:02:54Z</time>
      </trkpt>
      <trkpt lat="44.90109" lon="6.49308">
        <ele>1722.2</ele>
        <time>2024-08-11T13:02:55Z</time>
      </trkpt>
      <trkpt lat="44.90109" lon="6.49308">
        <ele>1722.2</ele>
        <time>2024-08-11T13:02:56Z</time>
      </trkpt>
      <trkpt lat="44.90109" lon="6.49308">
        <ele>1722.2</ele>
        <time>2024-08-11T13:02:57Z</time>
      </trkpt>
      <trkpt lat="44.90109" lon="6.49308">
        <ele>1722.2</ele>
        <time>2024-08-11T13:02:58Z</time>
      </trkpt>
      <trkpt lat="44.90109" lon="6.49308">
        <ele>1722.2</ele>
        <time>2024-08-11T13:02:59Z</time>
      </trkpt>
      <trkpt lat="44.90109" lon="6.49308">
        <ele>1722.2</ele>
        <time>2024-08-11T13:03:00Z</time>
      </trkpt>
      <trkpt lat="44.90109" lon="6.49308">
        <ele>1722.2</ele>
        <time>2024-08-11T13:03:01Z</time>
      </trkpt>
      <trkpt lat="44.90109" lon="6.49308">
        <ele>1722.2</ele>
        <time>2024-08-11T13:03:02Z</time>
      </trkpt>
      <trkpt lat="44.90109" lon="6.49308">
        <ele>1722.2</ele>
        <time>2024-08-11T13:03:03Z</time>
      </trkpt>
      <trkpt lat="44.90109" lon="6.49308">
        <ele>1722.2</ele>
        <time>2024-08-11T13:03:04Z</time>
      </trkpt>
      <trkpt lat="44.90109" lon="6.49308">
        <ele>1722.2</ele>
        <time>2024-08-11T13:03:05Z</time>
      </trkpt>
      <trkpt lat="44.90109" lon="6.49308">
        <ele>1722.2</ele>
        <time>2024-08-11T13:03:06Z</time>
      </trkpt>
      <trkpt lat="44.90109" lon="6.49308">
        <ele>1722</ele>
        <time>2024-08-11T13:03:07Z</time>
      </trkpt>
      <trkpt lat="44.90109" lon="6.49308">
        <ele>1722</ele>
        <time>2024-08-11T13:03:08Z</time>
      </trkpt>
      <trkpt lat="44.90109" lon="6.49308">
        <ele>1722</ele>
        <time>2024-08-11T13:03:09Z</time>
      </trkpt>
      <trkpt lat="44.90109" lon="6.49308">
        <ele>1722</ele>
        <time>2024-08-11T13:03:10Z</time>
      </trkpt>
      <trkpt lat="44.90109" lon="6.49308">
        <ele>1722</ele>
        <time>2024-08-11T13:03:11Z</time>
      </trkpt>
      <trkpt lat="44.90109" lon="6.49308">
        <ele>1721.8</ele>
        <time>2024-08-11T13:03:12Z</time>
      </trkpt>
      <trkpt lat="44.90109" lon="6.49308">
        <ele>1721.8</ele>
        <time>2024-08-11T13:03:13Z</time>
      </trkpt>
      <trkpt lat="44.90109" lon="6.49308">
        <ele>1721.8</ele>
        <time>2024-08-11T13:03:14Z</time>
      </trkpt>
      <trkpt lat="44.90109" lon="6.49308">
        <ele>1722</ele>
        <time>2024-08-11T13:03:15Z</time>
      </trkpt>
      <trkpt lat="44.90109" lon="6.49308">
        <ele>1722</ele>
        <time>2024-08-11T13:03:16Z</time>
      </trkpt>
      <trkpt lat="44.90109" lon="6.49308">
        <ele>1722.2</ele>
        <time>2024-08-11T13:03:17Z</time>
      </trkpt>
      <trkpt lat="44.90109" lon="6.49308">
        <ele>1722.2</ele>
        <time>2024-08-11T13:03:18Z</time>
      </trkpt>
      <trkpt lat="44.90109" lon="6.49308">
        <ele>1722.2</ele>
        <time>2024-08-11T13:03:19Z</time>
      </trkpt>
      <trkpt lat="44.90109" lon="6.49308">
        <ele>1722.2</ele>
        <time>2024-08-11T13:03:20Z</time>
      </trkpt>
      <trkpt lat="44.90109" lon="6.49308">
        <ele>1722.2</ele>
        <time>2024-08-11T13:03:21Z</time>
      </trkpt>
      <trkpt lat="44.90109" lon="6.49308">
        <ele>1722.2</ele>
        <time>2024-08-11T13:03:22Z</time>
      </trkpt>
      <trkpt lat="44.90109" lon="6.49308">
        <ele>1722</ele>
        <time>2024-08-11T13:03:23Z</time>
      </trkpt>
      <trkpt lat="44.90109" lon="6.49308">
        <ele>1721.8</ele>
        <time>2024-08-11T13:03:24Z</time>
      </trkpt>
      <trkpt lat="44.90109" lon="6.49308">
        <ele>1721.6</ele>
        <time>2024-08-11T13:03:25Z</time>
      </trkpt>
      <trkpt lat="44.90109" lon="6.49308">
        <ele>1721.6</ele>
        <time>2024-08-11T13:03:26Z</time>
      </trkpt>
      <trkpt lat="44.90109" lon="6.49308">
        <ele>1721.8</ele>
        <time>2024-08-11T13:03:27Z</time>
      </trkpt>
      <trkpt lat="44.90109" lon="6.49308">
        <ele>1722</ele>
        <time>2024-08-11T13:03:28Z</time>
      </trkpt>
      <trkpt lat="44.90109" lon="6.49308">
        <ele>1722</ele>
        <time>2024-08-11T13:03:29Z</time>
      </trkpt>
      <trkpt lat="44.90109" lon="6.49308">
        <ele>1722</ele>
        <time>2024-08-11T13:03:30Z</time>
      </trkpt>
      <trkpt lat="44.90109" lon="6.49308">
        <ele>1722</ele>
        <time>2024-08-11T13:03:31Z</time>
      </trkpt>
      <trkpt lat="44.90109" lon="6.49308">
        <ele>1722</ele>
        <time>2024-08-11T13:03:32Z</time>
      </trkpt>
      <trkpt lat="44.90109" lon="6.49308">
        <ele>1722.2</ele>
        <time>2024-08-11T13:03:33Z</time>
      </trkpt>
      <trkpt lat="44.90109" lon="6.49308">
        <ele>1722.2</ele>
        <time>2024-08-11T13:03:34Z</time>
      </trkpt>
      <trkpt lat="44.90109" lon="6.49308">
        <ele>1722.2</ele>
        <time>2024-08-11T13:03:35Z</time>
      </trkpt>
      <trkpt lat="44.90109" lon="6.49308">
        <ele>1722.2</ele>
        <time>2024-08-11T13:03:36Z</time>
      </trkpt>
      <trkpt lat="44.90109" lon="6.49308">
        <ele>1722</ele>
        <time>2024-08-11T13:03:37Z</time>
      </trkpt>
      <trkpt lat="44.90109" lon="6.49308">
        <ele>1722</ele>
        <time>2024-08-11T13:03:38Z</time>
      </trkpt>
      <trkpt lat="44.90109" lon="6.49308">
        <ele>1722</ele>
        <time>2024-08-11T13:03:39Z</time>
      </trkpt>
      <trkpt lat="44.90109" lon="6.49308">
        <ele>1722</ele>
        <time>2024-08-11T13:03:40Z</time>
      </trkpt>
      <trkpt lat="44.90109" lon="6.49308">
        <ele>1722</ele>
        <time>2024-08-11T13:03:41Z</time>
      </trkpt>
      <trkpt lat="44.90109" lon="6.49308">
        <ele>1722</ele>
        <time>2024-08-11T13:03:42Z</time>
      </trkpt>
      <trkpt lat="44.90109" lon="6.49308">
        <ele>1722</ele>
        <time>2024-08-11T13:03:43Z</time>
      </trkpt>
      <trkpt lat="44.90109" lon="6.49308">
        <ele>1722.2</ele>
        <time>2024-08-11T13:03:44Z</time>
      </trkpt>
      <trkpt lat="44.90109" lon="6.49308">
        <ele>1722.2</ele>
        <time>2024-08-11T13:03:45Z</time>
      </trkpt>
      <trkpt lat="44.90109" lon="6.49308">
        <ele>1722.2</ele>
        <time>2024-08-11T13:03:46Z</time>
      </trkpt>
      <trkpt lat="44.90109" lon="6.49308">
        <ele>1722.2</ele>
        <time>2024-08-11T13:03:47Z</time>
      </trkpt>
      <trkpt lat="44.90109" lon="6.49308">
        <ele>1722</ele>
        <time>2024-08-11T13:03:48Z</time>
      </trkpt>
      <trkpt lat="44.90109" lon="6.49308">
        <ele>1722</ele>
        <time>2024-08-11T13:03:49Z</time>
      </trkpt>
      <trkpt lat="44.90109" lon="6.49308">
        <ele>1722</ele>
        <time>2024-08-11T13:03:50Z</time>
      </trkpt>
      <trkpt lat="44.90109" lon="6.49308">
        <ele>1722</ele>
        <time>2024-08-11T13:03:51Z</time>
      </trkpt>
      <trkpt lat="44.90109" lon="6.49308">
        <ele>1722</ele>
        <time>2024-08-11T13:03:52Z</time>
      </trkpt>
      <trkpt lat="44.90109" lon="6.49308">
        <ele>1722</ele>
        <time>2024-08-11T13:03:53Z</time>
      </trkpt>
      <trkpt lat="44.90109" lon="6.49308">
        <ele>1722</ele>
        <time>2024-08-11T13:03:54Z</time>
      </trkpt>
      <trkpt lat="44.90109" lon="6.49308">
        <ele>1721.8</ele>
        <time>2024-08-11T13:03:55Z</time>
      </trkpt>
      <trkpt lat="44.90109" lon="6.49308">
        <ele>1721.8</ele>
        <time>2024-08-11T13:03:56Z</time>
      </trkpt>
      <trkpt lat="44.90109" lon="6.49308">
        <ele>1721.8</ele>
        <time>2024-08-11T13:03:57Z</time>
      </trkpt>
      <trkpt lat="44.90109" lon="6.49308">
        <ele>1722</ele>
        <time>2024-08-11T13:03:58Z</time>
      </trkpt>
      <trkpt lat="44.90109" lon="6.49308">
        <ele>1722</ele>
        <time>2024-08-11T13:03:59Z</time>
      </trkpt>
      <trkpt lat="44.90109" lon="6.49308">
        <ele>1722</ele>
        <time>2024-08-11T13:04:00Z</time>
      </trkpt>
      <trkpt lat="44.90109" lon="6.49308">
        <ele>1722</ele>
        <time>2024-08-11T13:04:01Z</time>
      </trkpt>
      <trkpt lat="44.90109" lon="6.49308">
        <ele>1722</ele>
        <time>2024-08-11T13:04:02Z</time>
      </trkpt>
      <trkpt lat="44.90109" lon="6.49308">
        <ele>1722</ele>
        <time>2024-08-11T13:04:03Z</time>
      </trkpt>
      <trkpt lat="44.90109" lon="6.49308">
        <ele>1722</ele>
        <time>2024-08-11T13:04:04Z</time>
      </trkpt>
      <trkpt lat="44.90109" lon="6.49308">
        <ele>1721.8</ele>
        <time>2024-08-11T13:04:05Z</time>
      </trkpt>
      <trkpt lat="44.90109" lon="6.49308">
        <ele>1721.8</ele>
        <time>2024-08-11T13:04:06Z</time>
      </trkpt>
      <trkpt lat="44.90109" lon="6.49308">
        <ele>1721.8</ele>
        <time>2024-08-11T13:04:07Z</time>
      </trkpt>
      <trkpt lat="44.90109" lon="6.49308">
        <ele>1721.6</ele>
        <time>2024-08-11T13:04:08Z</time>
      </trkpt>
      <trkpt lat="44.90109" lon="6.49308">
        <ele>1721.6</ele>
        <time>2024-08-11T13:04:09Z</time>
      </trkpt>
      <trkpt lat="44.90109" lon="6.49308">
        <ele>1721.6</ele>
        <time>2024-08-11T13:04:10Z</time>
      </trkpt>
      <trkpt lat="44.90109" lon="6.49308">
        <ele>1721.8</ele>
        <time>2024-08-11T13:04:11Z</time>
      </trkpt>
      <trkpt lat="44.90109" lon="6.49308">
        <ele>1721.8</ele>
        <time>2024-08-11T13:04:12Z</time>
      </trkpt>
      <trkpt lat="44.90109" lon="6.49308">
        <ele>1722</ele>
        <time>2024-08-11T13:04:13Z</time>
      </trkpt>
      <trkpt lat="44.90109" lon="6.49308">
        <ele>1721.8</ele>
        <time>2024-08-11T13:04:14Z</time>
      </trkpt>
      <trkpt lat="44.90109" lon="6.49308">
        <ele>1721.8</ele>
        <time>2024-08-11T13:04:15Z</time>
      </trkpt>
      <trkpt lat="44.90109" lon="6.49308">
        <ele>1721.8</ele>
        <time>2024-08-11T13:04:16Z</time>
      </trkpt>
      <trkpt lat="44.90109" lon="6.49308">
        <ele>1721.8</ele>
        <time>2024-08-11T13:04:17Z</time>
      </trkpt>
      <trkpt lat="44.90109" lon="6.49308">
        <ele>1721.8</ele>
        <time>2024-08-11T13:04:18Z</time>
      </trkpt>
      <trkpt lat="44.90109" lon="6.49308">
        <ele>1721.8</ele>
        <time>2024-08-11T13:04:19Z</time>
      </trkpt>
      <trkpt lat="44.90109" lon="6.49308">
        <ele>1721.8</ele>
        <time>2024-08-11T13:04:20Z</time>
      </trkpt>
      <trkpt lat="44.90109" lon="6.49308">
        <ele>1721.8</ele>
        <time>2024-08-11T13:04:21Z</time>
      </trkpt>
      <trkpt lat="44.90109" lon="6.49308">
        <ele>1721.8</ele>
        <time>2024-08-11T13:04:22Z</time>
      </trkpt>
      <trkpt lat="44.90109" lon="6.49308">
        <ele>1721.8</ele>
        <time>2024-08-11T13:04:23Z</time>
      </trkpt>
      <trkpt lat="44.90109" lon="6.49308">
        <ele>1721.6</ele>
        <time>2024-08-11T13:04:24Z</time>
      </trkpt>
      <trkpt lat="44.90109" lon="6.49308">
        <ele>1721.4</ele>
        <time>2024-08-11T13:04:25Z</time>
      </trkpt>
      <trkpt lat="44.90109" lon="6.49308">
        <ele>1721.4</ele>
        <time>2024-08-11T13:04:26Z</time>
      </trkpt>
      <trkpt lat="44.90109" lon="6.49308">
        <ele>1721.4</ele>
        <time>2024-08-11T13:04:27Z</time>
      </trkpt>
      <trkpt lat="44.90109" lon="6.49308">
        <ele>1721.4</ele>
        <time>2024-08-11T13:04:28Z</time>
      </trkpt>
      <trkpt lat="44.90109" lon="6.49308">
        <ele>1721.4</ele>
        <time>2024-08-11T13:04:29Z</time>
      </trkpt>
      <trkpt lat="44.90109" lon="6.49308">
        <ele>1721.6</ele>
        <time>2024-08-11T13:04:30Z</time>
      </trkpt>
      <trkpt lat="44.90109" lon="6.49308">
        <ele>1721.8</ele>
        <time>2024-08-11T13:04:31Z</time>
      </trkpt>
      <trkpt lat="44.90109" lon="6.49308">
        <ele>1721.8</ele>
        <time>2024-08-11T13:04:32Z</time>
      </trkpt>
      <trkpt lat="44.90109" lon="6.49308">
        <ele>1721.8</ele>
        <time>2024-08-11T13:04:33Z</time>
      </trkpt>
      <trkpt lat="44.90109" lon="6.49308">
        <ele>1721.8</ele>
        <time>2024-08-11T13:04:34Z</time>
      </trkpt>
      <trkpt lat="44.90109" lon="6.49308">
        <ele>1721.8</ele>
        <time>2024-08-11T13:04:35Z</time>
      </trkpt>
      <trkpt lat="44.90109" lon="6.49308">
        <ele>1721.6</ele>
        <time>2024-08-11T13:04:36Z</time>
      </trkpt>
      <trkpt lat="44.90109" lon="6.49308">
        <ele>1721.6</ele>
        <time>2024-08-11T13:04:37Z</time>
      </trkpt>
      <trkpt lat="44.90109" lon="6.49308">
        <ele>1721.6</ele>
        <time>2024-08-11T13:04:38Z</time>
      </trkpt>
      <trkpt lat="44.90109" lon="6.49308">
        <ele>1721.6</ele>
        <time>2024-08-11T13:04:39Z</time>
      </trkpt>
      <trkpt lat="44.90109" lon="6.49308">
        <ele>1721.6</ele>
        <time>2024-08-11T13:04:40Z</time>
      </trkpt>
      <trkpt lat="44.90109" lon="6.49308">
        <ele>1721.6</ele>
        <time>2024-08-11T13:04:41Z</time>
      </trkpt>
      <trkpt lat="44.90109" lon="6.49308">
        <ele>1721.6</ele>
        <time>2024-08-11T13:04:42Z</time>
      </trkpt>
      <trkpt lat="44.90109" lon="6.49308">
        <ele>1721.6</ele>
        <time>2024-08-11T13:04:43Z</time>
      </trkpt>
      <trkpt lat="44.90109" lon="6.49308">
        <ele>1721.6</ele>
        <time>2024-08-11T13:04:44Z</time>
      </trkpt>
      <trkpt lat="44.90109" lon="6.49308">
        <ele>1721.8</ele>
        <time>2024-08-11T13:04:45Z</time>
      </trkpt>
      <trkpt lat="44.90109" lon="6.49308">
        <ele>1721.8</ele>
        <time>2024-08-11T13:04:46Z</time>
      </trkpt>
      <trkpt lat="44.90109" lon="6.49308">
        <ele>1721.8</ele>
        <time>2024-08-11T13:04:47Z</time>
      </trkpt>
      <trkpt lat="44.90109" lon="6.49308">
        <ele>1721.8</ele>
        <time>2024-08-11T13:04:48Z</time>
      </trkpt>
      <trkpt lat="44.90109" lon="6.49308">
        <ele>1721.6</ele>
        <time>2024-08-11T13:04:49Z</time>
      </trkpt>
      <trkpt lat="44.90109" lon="6.49308">
        <ele>1721.6</ele>
        <time>2024-08-11T13:04:50Z</time>
      </trkpt>
      <trkpt lat="44.90109" lon="6.49308">
        <ele>1721.6</ele>
        <time>2024-08-11T13:04:51Z</time>
      </trkpt>
      <trkpt lat="44.90109" lon="6.49308">
        <ele>1721.6</ele>
        <time>2024-08-11T13:04:52Z</time>
      </trkpt>
      <trkpt lat="44.90109" lon="6.49308">
        <ele>1721.6</ele>
        <time>2024-08-11T13:04:53Z</time>
      </trkpt>
      <trkpt lat="44.90109" lon="6.49308">
        <ele>1721.6</ele>
        <time>2024-08-11T13:04:54Z</time>
      </trkpt>
      <trkpt lat="44.90109" lon="6.49308">
        <ele>1721.6</ele>
        <time>2024-08-11T13:04:55Z</time>
      </trkpt>
      <trkpt lat="44.90109" lon="6.49308">
        <ele>1721.6</ele>
        <time>2024-08-11T13:04:56Z</time>
      </trkpt>
      <trkpt lat="44.90109" lon="6.49308">
        <ele>1721.6</ele>
        <time>2024-08-11T13:04:57Z</time>
      </trkpt>
      <trkpt lat="44.90109" lon="6.49308">
        <ele>1721.6</ele>
        <time>2024-08-11T13:04:58Z</time>
      </trkpt>
      <trkpt lat="44.90109" lon="6.49308">
        <ele>1721.6</ele>
        <time>2024-08-11T13:04:59Z</time>
      </trkpt>
      <trkpt lat="44.90109" lon="6.49308">
        <ele>1721.6</ele>
        <time>2024-08-11T13:05:00Z</time>
      </trkpt>
      <trkpt lat="44.90109" lon="6.49308">
        <ele>1721.6</ele>
        <time>2024-08-11T13:05:01Z</time>
      </trkpt>
      <trkpt lat="44.90109" lon="6.49308">
        <ele>1721.6</ele>
        <time>2024-08-11T13:05:02Z</time>
      </trkpt>
      <trkpt lat="44.90109" lon="6.49308">
        <ele>1721.6</ele>
        <time>2024-08-11T13:05:03Z</time>
      </trkpt>
      <trkpt lat="44.90109" lon="6.49308">
        <ele>1721.8</ele>
        <time>2024-08-11T13:05:04Z</time>
      </trkpt>
      <trkpt lat="44.90109" lon="6.49308">
        <ele>1721.8</ele>
        <time>2024-08-11T13:05:05Z</time>
      </trkpt>
      <trkpt lat="44.90109" lon="6.49308">
        <ele>1721.8</ele>
        <time>2024-08-11T13:05:06Z</time>
      </trkpt>
      <trkpt lat="44.90109" lon="6.49308">
        <ele>1721.8</ele>
        <time>2024-08-11T13:05:07Z</time>
      </trkpt>
      <trkpt lat="44.90109" lon="6.49308">
        <ele>1721.8</ele>
        <time>2024-08-11T13:05:08Z</time>
      </trkpt>
      <trkpt lat="44.90109" lon="6.49308">
        <ele>1721.6</ele>
        <time>2024-08-11T13:05:09Z</time>
      </trkpt>
      <trkpt lat="44.90109" lon="6.49308">
        <ele>1721.4</ele>
        <time>2024-08-11T13:05:10Z</time>
      </trkpt>
      <trkpt lat="44.90109" lon="6.49308">
        <ele>1721.4</ele>
        <time>2024-08-11T13:05:11Z</time>
      </trkpt>
      <trkpt lat="44.90109" lon="6.49308">
        <ele>1721.4</ele>
        <time>2024-08-11T13:05:12Z</time>
      </trkpt>
      <trkpt lat="44.90109" lon="6.49308">
        <ele>1721.6</ele>
        <time>2024-08-11T13:05:13Z</time>
      </trkpt>
      <trkpt lat="44.90109" lon="6.49308">
        <ele>1721.6</ele>
        <time>2024-08-11T13:05:14Z</time>
      </trkpt>
      <trkpt lat="44.90109" lon="6.49308">
        <ele>1721.6</ele>
        <time>2024-08-11T13:05:15Z</time>
      </trkpt>
      <trkpt lat="44.90109" lon="6.49308">
        <ele>1721.6</ele>
        <time>2024-08-11T13:05:16Z</time>
      </trkpt>
      <trkpt lat="44.90109" lon="6.49308">
        <ele>1721.6</ele>
        <time>2024-08-11T13:05:17Z</time>
      </trkpt>
      <trkpt lat="44.90109" lon="6.49308">
        <ele>1721.4</ele>
        <time>2024-08-11T13:05:18Z</time>
      </trkpt>
      <trkpt lat="44.90109" lon="6.49308">
        <ele>1721.4</ele>
        <time>2024-08-11T13:05:19Z</time>
      </trkpt>
      <trkpt lat="44.90109" lon="6.49308">
        <ele>1721.4</ele>
        <time>2024-08-11T13:05:20Z</time>
      </trkpt>
      <trkpt lat="44.90109" lon="6.49308">
        <ele>1721.6</ele>
        <time>2024-08-11T13:05:21Z</time>
      </trkpt>
      <trkpt lat="44.90109" lon="6.49308">
        <ele>1721.6</ele>
        <time>2024-08-11T13:05:22Z</time>
      </trkpt>
      <trkpt lat="44.90109" lon="6.49308">
        <ele>1721.6</ele>
        <time>2024-08-11T13:05:23Z</time>
      </trkpt>
      <trkpt lat="44.90109" lon="6.49308">
        <ele>1721.6</ele>
        <time>2024-08-11T13:05:24Z</time>
      </trkpt>
      <trkpt lat="44.90109" lon="6.49308">
        <ele>1721.6</ele>
        <time>2024-08-11T13:05:25Z</time>
      </trkpt>
      <trkpt lat="44.90109" lon="6.49308">
        <ele>1721.6</ele>
        <time>2024-08-11T13:05:26Z</time>
      </trkpt>
      <trkpt lat="44.90109" lon="6.49308">
        <ele>1721.4</ele>
        <time>2024-08-11T13:05:27Z</time>
      </trkpt>
      <trkpt lat="44.90109" lon="6.49308">
        <ele>1721.4</ele>
        <time>2024-08-11T13:05:28Z</time>
      </trkpt>
      <trkpt lat="44.90109" lon="6.49308">
        <ele>1721.4</ele>
        <time>2024-08-11T13:05:29Z</time>
      </trkpt>
      <trkpt lat="44.90109" lon="6.49308">
        <ele>1721.2</ele>
        <time>2024-08-11T13:05:30Z</time>
      </trkpt>
      <trkpt lat="44.90109" lon="6.49308">
        <ele>1721.2</ele>
        <time>2024-08-11T13:05:31Z</time>
      </trkpt>
      <trkpt lat="44.90109" lon="6.49308">
        <ele>1721.6</ele>
        <time>2024-08-11T13:05:32Z</time>
      </trkpt>
      <trkpt lat="44.90109" lon="6.49308">
        <ele>1721.6</ele>
        <time>2024-08-11T13:05:33Z</time>
      </trkpt>
      <trkpt lat="44.90109" lon="6.49308">
        <ele>1721.6</ele>
        <time>2024-08-11T13:05:34Z</time>
      </trkpt>
      <trkpt lat="44.90109" lon="6.49308">
        <ele>1721.6</ele>
        <time>2024-08-11T13:05:35Z</time>
      </trkpt>
      <trkpt lat="44.90109" lon="6.49308">
        <ele>1721.6</ele>
        <time>2024-08-11T13:05:36Z</time>
      </trkpt>
      <trkpt lat="44.90109" lon="6.49308">
        <ele>1721.6</ele>
        <time>2024-08-11T13:05:37Z</time>
      </trkpt>
      <trkpt lat="44.90109" lon="6.49308">
        <ele>1721.4</ele>
        <time>2024-08-11T13:05:38Z</time>
      </trkpt>
      <trkpt lat="44.90109" lon="6.49308">
        <ele>1721.4</ele>
        <time>2024-08-11T13:05:39Z</time>
      </trkpt>
      <trkpt lat="44.90109" lon="6.49308">
        <ele>1721.4</ele>
        <time>2024-08-11T13:05:40Z</time>
      </trkpt>
      <trkpt lat="44.90109" lon="6.49308">
        <ele>1721.4</ele>
        <time>2024-08-11T13:05:41Z</time>
      </trkpt>
      <trkpt lat="44.90109" lon="6.49308">
        <ele>1721.4</ele>
        <time>2024-08-11T13:05:42Z</time>
      </trkpt>
      <trkpt lat="44.90109" lon="6.49308">
        <ele>1721.4</ele>
        <time>2024-08-11T13:05:43Z</time>
      </trkpt>
      <trkpt lat="44.90109" lon="6.49308">
        <ele>1721.4</ele>
        <time>2024-08-11T13:05:44Z</time>
      </trkpt>
      <trkpt lat="44.90109" lon="6.49308">
        <ele>1721.2</ele>
        <time>2024-08-11T13:05:45Z</time>
      </trkpt>
      <trkpt lat="44.90109" lon="6.49308">
        <ele>1721.2</ele>
        <time>2024-08-11T13:05:46Z</time>
      </trkpt>
      <trkpt lat="44.90109" lon="6.49308">
        <ele>1721.2</ele>
        <time>2024-08-11T13:05:47Z</time>
      </trkpt>
      <trkpt lat="44.90109" lon="6.49308">
        <ele>1721.2</ele>
        <time>2024-08-11T13:05:48Z</time>
      </trkpt>
      <trkpt lat="44.90109" lon="6.49308">
        <ele>1721.2</ele>
        <time>2024-08-11T13:05:49Z</time>
      </trkpt>
      <trkpt lat="44.90109" lon="6.49308">
        <ele>1721</ele>
        <time>2024-08-11T13:05:50Z</time>
      </trkpt>
      <trkpt lat="44.90109" lon="6.49308">
        <ele>1721</ele>
        <time>2024-08-11T13:05:51Z</time>
      </trkpt>
      <trkpt lat="44.90109" lon="6.49308">
        <ele>1721</ele>
        <time>2024-08-11T13:05:52Z</time>
      </trkpt>
      <trkpt lat="44.90109" lon="6.49308">
        <ele>1721.2</ele>
        <time>2024-08-11T13:05:53Z</time>
      </trkpt>
      <trkpt lat="44.90109" lon="6.49308">
        <ele>1721.2</ele>
        <time>2024-08-11T13:05:54Z</time>
      </trkpt>
      <trkpt lat="44.90109" lon="6.49308">
        <ele>1721.2</ele>
        <time>2024-08-11T13:05:55Z</time>
      </trkpt>
      <trkpt lat="44.90109" lon="6.49308">
        <ele>1721.2</ele>
        <time>2024-08-11T13:05:56Z</time>
      </trkpt>
      <trkpt lat="44.90109" lon="6.49308">
        <ele>1721.2</ele>
        <time>2024-08-11T13:05:57Z</time>
      </trkpt>
      <trkpt lat="44.90109" lon="6.49308">
        <ele>1721.2</ele>
        <time>2024-08-11T13:05:58Z</time>
      </trkpt>
      <trkpt lat="44.90109" lon="6.49308">
        <ele>1721.2</ele>
        <time>2024-08-11T13:05:59Z</time>
      </trkpt>
      <trkpt lat="44.90109" lon="6.49308">
        <ele>1721.2</ele>
        <time>2024-08-11T13:06:00Z</time>
      </trkpt>
      <trkpt lat="44.90109" lon="6.49308">
        <ele>1721.2</ele>
        <time>2024-08-11T13:06:01Z</time>
      </trkpt>
      <trkpt lat="44.90109" lon="6.49308">
        <ele>1721</ele>
        <time>2024-08-11T13:06:02Z</time>
      </trkpt>
      <trkpt lat="44.90109" lon="6.49308">
        <ele>1721</ele>
        <time>2024-08-11T13:06:03Z</time>
      </trkpt>
      <trkpt lat="44.90109" lon="6.49308">
        <ele>1721</ele>
        <time>2024-08-11T13:06:04Z</time>
      </trkpt>
      <trkpt lat="44.90109" lon="6.49308">
        <ele>1721</ele>
        <time>2024-08-11T13:06:05Z</time>
      </trkpt>
      <trkpt lat="44.90109" lon="6.49308">
        <ele>1721</ele>
        <time>2024-08-11T13:06:06Z</time>
      </trkpt>
      <trkpt lat="44.90109" lon="6.49308">
        <ele>1721</ele>
        <time>2024-08-11T13:06:07Z</time>
      </trkpt>
      <trkpt lat="44.90109" lon="6.49308">
        <ele>1721</ele>
        <time>2024-08-11T13:06:08Z</time>
      </trkpt>
      <trkpt lat="44.90109" lon="6.49308">
        <ele>1721</ele>
        <time>2024-08-11T13:06:09Z</time>
      </trkpt>
      <trkpt lat="44.90109" lon="6.49308">
        <ele>1721.2</ele>
        <time>2024-08-11T13:06:10Z</time>
      </trkpt>
      <trkpt lat="44.90109" lon="6.49308">
        <ele>1721.2</ele>
        <time>2024-08-11T13:06:11Z</time>
      </trkpt>
      <trkpt lat="44.90109" lon="6.49308">
        <ele>1721.2</ele>
        <time>2024-08-11T13:06:12Z</time>
      </trkpt>
      <trkpt lat="44.90109" lon="6.49308">
        <ele>1721</ele>
        <time>2024-08-11T13:06:13Z</time>
      </trkpt>
      <trkpt lat="44.90109" lon="6.49308">
        <ele>1721</ele>
        <time>2024-08-11T13:06:14Z</time>
      </trkpt>
      <trkpt lat="44.90109" lon="6.49308">
        <ele>1721</ele>
        <time>2024-08-11T13:06:15Z</time>
      </trkpt>
      <trkpt lat="44.90109" lon="6.49308">
        <ele>1721</ele>
        <time>2024-08-11T13:06:16Z</time>
      </trkpt>
      <trkpt lat="44.90109" lon="6.49308">
        <ele>1721</ele>
        <time>2024-08-11T13:06:17Z</time>
      </trkpt>
      <trkpt lat="44.90109" lon="6.49308">
        <ele>1721</ele>
        <time>2024-08-11T13:06:18Z</time>
      </trkpt>
      <trkpt lat="44.90109" lon="6.49308">
        <ele>1721</ele>
        <time>2024-08-11T13:06:19Z</time>
      </trkpt>
      <trkpt lat="44.90109" lon="6.49308">
        <ele>1721</ele>
        <time>2024-08-11T13:06:20Z</time>
      </trkpt>
      <trkpt lat="44.90109" lon="6.49308">
        <ele>1721</ele>
        <time>2024-08-11T13:06:21Z</time>
      </trkpt>
      <trkpt lat="44.90109" lon="6.49308">
        <ele>1721</ele>
        <time>2024-08-11T13:06:22Z</time>
      </trkpt>
      <trkpt lat="44.90109" lon="6.49308">
        <ele>1721</ele>
        <time>2024-08-11T13:06:23Z</time>
      </trkpt>
      <trkpt lat="44.90109" lon="6.49308">
        <ele>1721</ele>
        <time>2024-08-11T13:06:24Z</time>
      </trkpt>
      <trkpt lat="44.90109" lon="6.49308">
        <ele>1721</ele>
        <time>2024-08-11T13:06:25Z</time>
      </trkpt>
      <trkpt lat="44.90109" lon="6.49308">
        <ele>1721</ele>
        <time>2024-08-11T13:06:26Z</time>
      </trkpt>
      <trkpt lat="44.90109" lon="6.49308">
        <ele>1720.8</ele>
        <time>2024-08-11T13:06:27Z</time>
      </trkpt>
      <trkpt lat="44.90109" lon="6.49308">
        <ele>1720.8</ele>
        <time>2024-08-11T13:06:28Z</time>
      </trkpt>
      <trkpt lat="44.90109" lon="6.49308">
        <ele>1721</ele>
        <time>2024-08-11T13:06:29Z</time>
      </trkpt>
      <trkpt lat="44.90109" lon="6.49308">
        <ele>1721</ele>
        <time>2024-08-11T13:06:30Z</time>
      </trkpt>
      <trkpt lat="44.90109" lon="6.49308">
        <ele>1721</ele>
        <time>2024-08-11T13:06:31Z</time>
      </trkpt>
      <trkpt lat="44.90109" lon="6.49308">
        <ele>1721</ele>
        <time>2024-08-11T13:06:32Z</time>
      </trkpt>
      <trkpt lat="44.90109" lon="6.49308">
        <ele>1721</ele>
        <time>2024-08-11T13:06:33Z</time>
      </trkpt>
      <trkpt lat="44.90109" lon="6.49308">
        <ele>1721</ele>
        <time>2024-08-11T13:06:34Z</time>
      </trkpt>
      <trkpt lat="44.90109" lon="6.49308">
        <ele>1721</ele>
        <time>2024-08-11T13:06:35Z</time>
      </trkpt>
      <trkpt lat="44.90109" lon="6.49308">
        <ele>1721</ele>
        <time>2024-08-11T13:06:36Z</time>
      </trkpt>
      <trkpt lat="44.90109" lon="6.49308">
        <ele>1721</ele>
        <time>2024-08-11T13:06:37Z</time>
      </trkpt>
      <trkpt lat="44.90109" lon="6.49308">
        <ele>1721</ele>
        <time>2024-08-11T13:06:38Z</time>
      </trkpt>
      <trkpt lat="44.90109" lon="6.49308">
        <ele>1721</ele>
        <time>2024-08-11T13:06:39Z</time>
      </trkpt>
      <trkpt lat="44.90109" lon="6.49308">
        <ele>1721</ele>
        <time>2024-08-11T13:06:40Z</time>
      </trkpt>
      <trkpt lat="44.90109" lon="6.49308">
        <ele>1721</ele>
        <time>2024-08-11T13:06:41Z</time>
      </trkpt>
      <trkpt lat="44.90109" lon="6.49308">
        <ele>1721</ele>
        <time>2024-08-11T13:06:42Z</time>
      </trkpt>
      <trkpt lat="44.90109" lon="6.49308">
        <ele>1720.8</ele>
        <time>2024-08-11T13:06:43Z</time>
      </trkpt>
      <trkpt lat="44.90109" lon="6.49308">
        <ele>1720.8</ele>
        <time>2024-08-11T13:06:44Z</time>
      </trkpt>
      <trkpt lat="44.90109" lon="6.49308">
        <ele>1721</ele>
        <time>2024-08-11T13:06:45Z</time>
      </trkpt>
      <trkpt lat="44.90109" lon="6.49308">
        <ele>1721</ele>
        <time>2024-08-11T13:06:46Z</time>
      </trkpt>
      <trkpt lat="44.90109" lon="6.49308">
        <ele>1721</ele>
        <time>2024-08-11T13:06:47Z</time>
      </trkpt>
      <trkpt lat="44.90109" lon="6.49308">
        <ele>1721</ele>
        <time>2024-08-11T13:06:48Z</time>
      </trkpt>
      <trkpt lat="44.90109" lon="6.49308">
        <ele>1721</ele>
        <time>2024-08-11T13:06:49Z</time>
      </trkpt>
      <trkpt lat="44.90109" lon="6.49308">
        <ele>1720.8</ele>
        <time>2024-08-11T13:06:50Z</time>
      </trkpt>
      <trkpt lat="44.90109" lon="6.49308">
        <ele>1720.8</ele>
        <time>2024-08-11T13:06:51Z</time>
      </trkpt>
      <trkpt lat="44.90109" lon="6.49308">
        <ele>1720.8</ele>
        <time>2024-08-11T13:06:52Z</time>
      </trkpt>
      <trkpt lat="44.90109" lon="6.49308">
        <ele>1720.8</ele>
        <time>2024-08-11T13:06:53Z</time>
      </trkpt>
      <trkpt lat="44.90109" lon="6.49308">
        <ele>1720.8</ele>
        <time>2024-08-11T13:06:54Z</time>
      </trkpt>
      <trkpt lat="44.90109" lon="6.49308">
        <ele>1720.8</ele>
        <time>2024-08-11T13:06:55Z</time>
      </trkpt>
      <trkpt lat="44.90109" lon="6.49308">
        <ele>1721</ele>
        <time>2024-08-11T13:06:56Z</time>
      </trkpt>
      <trkpt lat="44.90109" lon="6.49308">
        <ele>1721</ele>
        <time>2024-08-11T13:06:57Z</time>
      </trkpt>
      <trkpt lat="44.90109" lon="6.49308">
        <ele>1721</ele>
        <time>2024-08-11T13:06:58Z</time>
      </trkpt>
      <trkpt lat="44.90109" lon="6.49308">
        <ele>1721</ele>
        <time>2024-08-11T13:06:59Z</time>
      </trkpt>
      <trkpt lat="44.90109" lon="6.49308">
        <ele>1720.8</ele>
        <time>2024-08-11T13:07:00Z</time>
      </trkpt>
      <trkpt lat="44.90109" lon="6.49308">
        <ele>1720.8</ele>
        <time>2024-08-11T13:07:01Z</time>
      </trkpt>
      <trkpt lat="44.90109" lon="6.49308">
        <ele>1720.6</ele>
        <time>2024-08-11T13:07:02Z</time>
      </trkpt>
      <trkpt lat="44.90109" lon="6.49308">
        <ele>1720.6</ele>
        <time>2024-08-11T13:07:03Z</time>
      </trkpt>
      <trkpt lat="44.90109" lon="6.49308">
        <ele>1720.6</ele>
        <time>2024-08-11T13:07:04Z</time>
      </trkpt>
      <trkpt lat="44.90109" lon="6.49308">
        <ele>1720.6</ele>
        <time>2024-08-11T13:07:05Z</time>
      </trkpt>
      <trkpt lat="44.90109" lon="6.49308">
        <ele>1720.6</ele>
        <time>2024-08-11T13:07:06Z</time>
      </trkpt>
      <trkpt lat="44.90109" lon="6.49308">
        <ele>1720.6</ele>
        <time>2024-08-11T13:07:07Z</time>
      </trkpt>
      <trkpt lat="44.90109" lon="6.49308">
        <ele>1720.6</ele>
        <time>2024-08-11T13:07:08Z</time>
      </trkpt>
      <trkpt lat="44.90109" lon="6.49308">
        <ele>1720.8</ele>
        <time>2024-08-11T13:07:09Z</time>
      </trkpt>
      <trkpt lat="44.90109" lon="6.49308">
        <ele>1720.8</ele>
        <time>2024-08-11T13:07:10Z</time>
      </trkpt>
      <trkpt lat="44.90109" lon="6.49308">
        <ele>1720.8</ele>
        <time>2024-08-11T13:07:11Z</time>
      </trkpt>
      <trkpt lat="44.90109" lon="6.49308">
        <ele>1720.8</ele>
        <time>2024-08-11T13:07:12Z</time>
      </trkpt>
      <trkpt lat="44.90109" lon="6.49308">
        <ele>1721</ele>
        <time>2024-08-11T13:07:13Z</time>
      </trkpt>
      <trkpt lat="44.90109" lon="6.49308">
        <ele>1721</ele>
        <time>2024-08-11T13:07:14Z</time>
      </trkpt>
      <trkpt lat="44.90109" lon="6.49308">
        <ele>1720.8</ele>
        <time>2024-08-11T13:07:15Z</time>
      </trkpt>
      <trkpt lat="44.90109" lon="6.49308">
        <ele>1720.8</ele>
        <time>2024-08-11T13:07:16Z</time>
      </trkpt>
      <trkpt lat="44.90109" lon="6.49308">
        <ele>1720.8</ele>
        <time>2024-08-11T13:07:17Z</time>
      </trkpt>
      <trkpt lat="44.90109" lon="6.49308">
        <ele>1720.8</ele>
        <time>2024-08-11T13:07:18Z</time>
      </trkpt>
      <trkpt lat="44.90109" lon="6.49308">
        <ele>1720.8</ele>
        <time>2024-08-11T13:07:19Z</time>
      </trkpt>
      <trkpt lat="44.90109" lon="6.49308">
        <ele>1720.8</ele>
        <time>2024-08-11T13:07:20Z</time>
      </trkpt>
      <trkpt lat="44.90109" lon="6.49308">
        <ele>1720.8</ele>
        <time>2024-08-11T13:07:21Z</time>
      </trkpt>
      <trkpt lat="44.90109" lon="6.49308">
        <ele>1720.8</ele>
        <time>2024-08-11T13:07:22Z</time>
      </trkpt>
      <trkpt lat="44.90109" lon="6.49308">
        <ele>1720.8</ele>
        <time>2024-08-11T13:07:23Z</time>
      </trkpt>
      <trkpt lat="44.90109" lon="6.49308">
        <ele>1720.8</ele>
        <time>2024-08-11T13:07:24Z</time>
      </trkpt>
      <trkpt lat="44.90109" lon="6.49308">
        <ele>1720.8</ele>
        <time>2024-08-11T13:07:25Z</time>
      </trkpt>
      <trkpt lat="44.90109" lon="6.49308">
        <ele>1720.8</ele>
        <time>2024-08-11T13:07:26Z</time>
      </trkpt>
      <trkpt lat="44.90109" lon="6.49308">
        <ele>1720.8</ele>
        <time>2024-08-11T13:07:27Z</time>
      </trkpt>
      <trkpt lat="44.90109" lon="6.49308">
        <ele>1720.8</ele>
        <time>2024-08-11T13:07:28Z</time>
      </trkpt>
      <trkpt lat="44.90109" lon="6.49308">
        <ele>1720.8</ele>
        <time>2024-08-11T13:07:29Z</time>
      </trkpt>
      <trkpt lat="44.90109" lon="6.49308">
        <ele>1720.6</ele>
        <time>2024-08-11T13:07:30Z</time>
      </trkpt>
      <trkpt lat="44.90109" lon="6.49308">
        <ele>1720.6</ele>
        <time>2024-08-11T13:07:31Z</time>
      </trkpt>
      <trkpt lat="44.90109" lon="6.49308">
        <ele>1720.6</ele>
        <time>2024-08-11T13:07:32Z</time>
      </trkpt>
      <trkpt lat="44.90109" lon="6.49308">
        <ele>1720.8</ele>
        <time>2024-08-11T13:07:33Z</time>
      </trkpt>
      <trkpt lat="44.90109" lon="6.49308">
        <ele>1721</ele>
        <time>2024-08-11T13:07:34Z</time>
      </trkpt>
      <trkpt lat="44.90109" lon="6.49308">
        <ele>1721</ele>
        <time>2024-08-11T13:07:35Z</time>
      </trkpt>
      <trkpt lat="44.90109" lon="6.49308">
        <ele>1720.8</ele>
        <time>2024-08-11T13:07:36Z</time>
      </trkpt>
      <trkpt lat="44.90109" lon="6.49308">
        <ele>1720.8</ele>
        <time>2024-08-11T13:07:37Z</time>
      </trkpt>
      <trkpt lat="44.90109" lon="6.49308">
        <ele>1720.8</ele>
        <time>2024-08-11T13:07:38Z</time>
      </trkpt>
      <trkpt lat="44.90109" lon="6.49308">
        <ele>1720.8</ele>
        <time>2024-08-11T13:07:39Z</time>
      </trkpt>
      <trkpt lat="44.90109" lon="6.49308">
        <ele>1720.8</ele>
        <time>2024-08-11T13:07:40Z</time>
      </trkpt>
      <trkpt lat="44.90109" lon="6.49308">
        <ele>1720.8</ele>
        <time>2024-08-11T13:07:41Z</time>
      </trkpt>
      <trkpt lat="44.90109" lon="6.49308">
        <ele>1720.8</ele>
        <time>2024-08-11T13:07:42Z</time>
      </trkpt>
      <trkpt lat="44.90109" lon="6.49308">
        <ele>1720.8</ele>
        <time>2024-08-11T13:07:43Z</time>
      </trkpt>
      <trkpt lat="44.90109" lon="6.49308">
        <ele>1720.8</ele>
        <time>2024-08-11T13:07:44Z</time>
      </trkpt>
      <trkpt lat="44.90109" lon="6.49308">
        <ele>1720.6</ele>
        <time>2024-08-11T13:07:45Z</time>
      </trkpt>
      <trkpt lat="44.90109" lon="6.49308">
        <ele>1720.6</ele>
        <time>2024-08-11T13:07:46Z</time>
      </trkpt>
      <trkpt lat="44.90109" lon="6.49308">
        <ele>1720.8</ele>
        <time>2024-08-11T13:07:47Z</time>
      </trkpt>
      <trkpt lat="44.90109" lon="6.49308">
        <ele>1720.8</ele>
        <time>2024-08-11T13:07:48Z</time>
      </trkpt>
      <trkpt lat="44.90109" lon="6.49308">
        <ele>1720.8</ele>
        <time>2024-08-11T13:07:49Z</time>
      </trkpt>
      <trkpt lat="44.90109" lon="6.49308">
        <ele>1720.6</ele>
        <time>2024-08-11T13:07:50Z</time>
      </trkpt>
      <trkpt lat="44.90109" lon="6.49308">
        <ele>1720.6</ele>
        <time>2024-08-11T13:07:51Z</time>
      </trkpt>
      <trkpt lat="44.90109" lon="6.49308">
        <ele>1720.8</ele>
        <time>2024-08-11T13:07:52Z</time>
      </trkpt>
      <trkpt lat="44.90109" lon="6.49308">
        <ele>1720.6</ele>
        <time>2024-08-11T13:07:53Z</time>
      </trkpt>
      <trkpt lat="44.90109" lon="6.49308">
        <ele>1720.6</ele>
        <time>2024-08-11T13:07:54Z</time>
      </trkpt>
      <trkpt lat="44.90109" lon="6.49308">
        <ele>1720.4</ele>
        <time>2024-08-11T13:07:55Z</time>
      </trkpt>
      <trkpt lat="44.90109" lon="6.49308">
        <ele>1720.4</ele>
        <time>2024-08-11T13:07:56Z</time>
      </trkpt>
      <trkpt lat="44.90109" lon="6.49308">
        <ele>1720.4</ele>
        <time>2024-08-11T13:07:57Z</time>
      </trkpt>
      <trkpt lat="44.90109" lon="6.49308">
        <ele>1720.4</ele>
        <time>2024-08-11T13:07:58Z</time>
      </trkpt>
      <trkpt lat="44.90109" lon="6.49308">
        <ele>1720.4</ele>
        <time>2024-08-11T13:07:59Z</time>
      </trkpt>
      <trkpt lat="44.90109" lon="6.49308">
        <ele>1720.4</ele>
        <time>2024-08-11T13:08:00Z</time>
      </trkpt>
      <trkpt lat="44.90109" lon="6.49308">
        <ele>1720.4</ele>
        <time>2024-08-11T13:08:01Z</time>
      </trkpt>
      <trkpt lat="44.90109" lon="6.49308">
        <ele>1720.6</ele>
        <time>2024-08-11T13:08:02Z</time>
      </trkpt>
      <trkpt lat="44.90109" lon="6.49308">
        <ele>1720.6</ele>
        <time>2024-08-11T13:08:03Z</time>
      </trkpt>
      <trkpt lat="44.90109" lon="6.49308">
        <ele>1720.4</ele>
        <time>2024-08-11T13:08:04Z</time>
      </trkpt>
      <trkpt lat="44.90109" lon="6.49308">
        <ele>1720.2</ele>
        <time>2024-08-11T13:08:05Z</time>
      </trkpt>
      <trkpt lat="44.90109" lon="6.49308">
        <ele>1720.2</ele>
        <time>2024-08-11T13:08:06Z</time>
      </trkpt>
      <trkpt lat="44.90109" lon="6.49308">
        <ele>1720.2</ele>
        <time>2024-08-11T13:08:07Z</time>
      </trkpt>
      <trkpt lat="44.90109" lon="6.49308">
        <ele>1720.2</ele>
        <time>2024-08-11T13:08:08Z</time>
      </trkpt>
      <trkpt lat="44.90109" lon="6.49308">
        <ele>1720.2</ele>
        <time>2024-08-11T13:08:09Z</time>
      </trkpt>
      <trkpt lat="44.90109" lon="6.49308">
        <ele>1720.2</ele>
        <time>2024-08-11T13:08:10Z</time>
      </trkpt>
      <trkpt lat="44.90109" lon="6.49308">
        <ele>1720.4</ele>
        <time>2024-08-11T13:08:11Z</time>
      </trkpt>
      <trkpt lat="44.90109" lon="6.49308">
        <ele>1720.4</ele>
        <time>2024-08-11T13:08:12Z</time>
      </trkpt>
      <trkpt lat="44.90109" lon="6.49308">
        <ele>1720.4</ele>
        <time>2024-08-11T13:08:13Z</time>
      </trkpt>
      <trkpt lat="44.90109" lon="6.49308">
        <ele>1720.4</ele>
        <time>2024-08-11T13:08:14Z</time>
      </trkpt>
      <trkpt lat="44.90109" lon="6.49308">
        <ele>1720.4</ele>
        <time>2024-08-11T13:08:15Z</time>
      </trkpt>
      <trkpt lat="44.90109" lon="6.49308">
        <ele>1720.4</ele>
        <time>2024-08-11T13:08:16Z</time>
      </trkpt>
      <trkpt lat="44.90109" lon="6.49308">
        <ele>1720.4</ele>
        <time>2024-08-11T13:08:17Z</time>
      </trkpt>
      <trkpt lat="44.90109" lon="6.49308">
        <ele>1720.2</ele>
        <time>2024-08-11T13:08:18Z</time>
      </trkpt>
      <trkpt lat="44.90109" lon="6.49308">
        <ele>1720.2</ele>
        <time>2024-08-11T13:08:19Z</time>
      </trkpt>
      <trkpt lat="44.90109" lon="6.49308">
        <ele>1720.2</ele>
        <time>2024-08-11T13:08:20Z</time>
      </trkpt>
      <trkpt lat="44.90109" lon="6.49308">
        <ele>1720.4</ele>
        <time>2024-08-11T13:08:21Z</time>
      </trkpt>
      <trkpt lat="44.90109" lon="6.49308">
        <ele>1720.4</ele>
        <time>2024-08-11T13:08:22Z</time>
      </trkpt>
      <trkpt lat="44.90109" lon="6.49308">
        <ele>1720.4</ele>
        <time>2024-08-11T13:08:23Z</time>
      </trkpt>
      <trkpt lat="44.90109" lon="6.49308">
        <ele>1720.4</ele>
        <time>2024-08-11T13:08:24Z</time>
      </trkpt>
      <trkpt lat="44.90109" lon="6.49308">
        <ele>1720.4</ele>
        <time>2024-08-11T13:08:25Z</time>
      </trkpt>
      <trkpt lat="44.90109" lon="6.49308">
        <ele>1720.2</ele>
        <time>2024-08-11T13:08:26Z</time>
      </trkpt>
      <trkpt lat="44.90109" lon="6.49308">
        <ele>1720.2</ele>
        <time>2024-08-11T13:08:27Z</time>
      </trkpt>
      <trkpt lat="44.90109" lon="6.49308">
        <ele>1720.2</ele>
        <time>2024-08-11T13:08:28Z</time>
      </trkpt>
      <trkpt lat="44.90109" lon="6.49308">
        <ele>1720.2</ele>
        <time>2024-08-11T13:08:29Z</time>
      </trkpt>
      <trkpt lat="44.90109" lon="6.49308">
        <ele>1720.4</ele>
        <time>2024-08-11T13:08:30Z</time>
      </trkpt>
      <trkpt lat="44.90109" lon="6.49308">
        <ele>1720.4</ele>
        <time>2024-08-11T13:08:31Z</time>
      </trkpt>
      <trkpt lat="44.90109" lon="6.49308">
        <ele>1720.4</ele>
        <time>2024-08-11T13:08:32Z</time>
      </trkpt>
      <trkpt lat="44.90109" lon="6.49308">
        <ele>1720.4</ele>
        <time>2024-08-11T13:08:33Z</time>
      </trkpt>
      <trkpt lat="44.90109" lon="6.49308">
        <ele>1720.4</ele>
        <time>2024-08-11T13:08:34Z</time>
      </trkpt>
      <trkpt lat="44.90109" lon="6.49308">
        <ele>1720.6</ele>
        <time>2024-08-11T13:08:35Z</time>
      </trkpt>
      <trkpt lat="44.90109" lon="6.49308">
        <ele>1720.6</ele>
        <time>2024-08-11T13:08:36Z</time>
      </trkpt>
      <trkpt lat="44.90109" lon="6.49308">
        <ele>1720.4</ele>
        <time>2024-08-11T13:08:37Z</time>
      </trkpt>
      <trkpt lat="44.90109" lon="6.49308">
        <ele>1720.4</ele>
        <time>2024-08-11T13:08:38Z</time>
      </trkpt>
      <trkpt lat="44.90109" lon="6.49308">
        <ele>1720.4</ele>
        <time>2024-08-11T13:08:39Z</time>
      </trkpt>
      <trkpt lat="44.90109" lon="6.49308">
        <ele>1720.4</ele>
        <time>2024-08-11T13:08:40Z</time>
      </trkpt>
      <trkpt lat="44.90109" lon="6.49308">
        <ele>1720.2</ele>
        <time>2024-08-11T13:08:41Z</time>
      </trkpt>
      <trkpt lat="44.90109" lon="6.49308">
        <ele>1720.2</ele>
        <time>2024-08-11T13:08:42Z</time>
      </trkpt>
      <trkpt lat="44.90109" lon="6.49308">
        <ele>1720.2</ele>
        <time>2024-08-11T13:08:43Z</time>
      </trkpt>
      <trkpt lat="44.90109" lon="6.49308">
        <ele>1720.2</ele>
        <time>2024-08-11T13:08:44Z</time>
      </trkpt>
      <trkpt lat="44.90109" lon="6.49308">
        <ele>1720.2</ele>
        <time>2024-08-11T13:08:45Z</time>
      </trkpt>
      <trkpt lat="44.90109" lon="6.49308">
        <ele>1720.2</ele>
        <time>2024-08-11T13:08:46Z</time>
      </trkpt>
      <trkpt lat="44.90109" lon="6.49308">
        <ele>1720.4</ele>
        <time>2024-08-11T13:08:47Z</time>
      </trkpt>
      <trkpt lat="44.90109" lon="6.49308">
        <ele>1720.4</ele>
        <time>2024-08-11T13:08:48Z</time>
      </trkpt>
      <trkpt lat="44.90109" lon="6.49308">
        <ele>1720.2</ele>
        <time>2024-08-11T13:08:49Z</time>
      </trkpt>
      <trkpt lat="44.90109" lon="6.49308">
        <ele>1720.2</ele>
        <time>2024-08-11T13:08:50Z</time>
      </trkpt>
      <trkpt lat="44.90109" lon="6.49308">
        <ele>1720</ele>
        <time>2024-08-11T13:08:51Z</time>
      </trkpt>
      <trkpt lat="44.90109" lon="6.49308">
        <ele>1720</ele>
        <time>2024-08-11T13:08:52Z</time>
      </trkpt>
      <trkpt lat="44.90109" lon="6.49308">
        <ele>1720</ele>
        <time>2024-08-11T13:08:53Z</time>
      </trkpt>
      <trkpt lat="44.90109" lon="6.49308">
        <ele>1720.2</ele>
        <time>2024-08-11T13:08:54Z</time>
      </trkpt>
      <trkpt lat="44.90109" lon="6.49308">
        <ele>1720.2</ele>
        <time>2024-08-11T13:08:55Z</time>
      </trkpt>
      <trkpt lat="44.90109" lon="6.49308">
        <ele>1720.2</ele>
        <time>2024-08-11T13:08:56Z</time>
      </trkpt>
      <trkpt lat="44.90109" lon="6.49308">
        <ele>1720.2</ele>
        <time>2024-08-11T13:08:57Z</time>
      </trkpt>
      <trkpt lat="44.90109" lon="6.49308">
        <ele>1720</ele>
        <time>2024-08-11T13:08:58Z</time>
      </trkpt>
      <trkpt lat="44.90109" lon="6.49308">
        <ele>1720</ele>
        <time>2024-08-11T13:08:59Z</time>
      </trkpt>
      <trkpt lat="44.90109" lon="6.49308">
        <ele>1720</ele>
        <time>2024-08-11T13:09:00Z</time>
      </trkpt>
      <trkpt lat="44.90109" lon="6.49308">
        <ele>1720.2</ele>
        <time>2024-08-11T13:09:01Z</time>
      </trkpt>
      <trkpt lat="44.90109" lon="6.49308">
        <ele>1720</ele>
        <time>2024-08-11T13:09:02Z</time>
      </trkpt>
      <trkpt lat="44.90109" lon="6.49308">
        <ele>1720</ele>
        <time>2024-08-11T13:09:03Z</time>
      </trkpt>
      <trkpt lat="44.90109" lon="6.49308">
        <ele>1720.2</ele>
        <time>2024-08-11T13:09:04Z</time>
      </trkpt>
      <trkpt lat="44.90109" lon="6.49308">
        <ele>1720.2</ele>
        <time>2024-08-11T13:09:05Z</time>
      </trkpt>
      <trkpt lat="44.90109" lon="6.49308">
        <ele>1720.2</ele>
        <time>2024-08-11T13:09:06Z</time>
      </trkpt>
      <trkpt lat="44.90109" lon="6.49308">
        <ele>1720</ele>
        <time>2024-08-11T13:09:07Z</time>
      </trkpt>
      <trkpt lat="44.90109" lon="6.49308">
        <ele>1720</ele>
        <time>2024-08-11T13:09:08Z</time>
      </trkpt>
      <trkpt lat="44.90109" lon="6.49308">
        <ele>1720</ele>
        <time>2024-08-11T13:09:09Z</time>
      </trkpt>
      <trkpt lat="44.90109" lon="6.49308">
        <ele>1720</ele>
        <time>2024-08-11T13:09:10Z</time>
      </trkpt>
      <trkpt lat="44.90109" lon="6.49308">
        <ele>1720</ele>
        <time>2024-08-11T13:09:11Z</time>
      </trkpt>
      <trkpt lat="44.90109" lon="6.49308">
        <ele>1720</ele>
        <time>2024-08-11T13:09:12Z</time>
      </trkpt>
      <trkpt lat="44.90109" lon="6.49308">
        <ele>1720.2</ele>
        <time>2024-08-11T13:09:13Z</time>
      </trkpt>
      <trkpt lat="44.90109" lon="6.49308">
        <ele>1720</ele>
        <time>2024-08-11T13:09:14Z</time>
      </trkpt>
      <trkpt lat="44.90109" lon="6.49308">
        <ele>1720.2</ele>
        <time>2024-08-11T13:09:15Z</time>
      </trkpt>
      <trkpt lat="44.90109" lon="6.49308">
        <ele>1720.2</ele>
        <time>2024-08-11T13:09:16Z</time>
      </trkpt>
      <trkpt lat="44.90109" lon="6.49308">
        <ele>1720.2</ele>
        <time>2024-08-11T13:09:17Z</time>
      </trkpt>
      <trkpt lat="44.90109" lon="6.49308">
        <ele>1720.2</ele>
        <time>2024-08-11T13:09:18Z</time>
      </trkpt>
      <trkpt lat="44.90109" lon="6.49308">
        <ele>1720.2</ele>
        <time>2024-08-11T13:09:19Z</time>
      </trkpt>
      <trkpt lat="44.90109" lon="6.49308">
        <ele>1720.2</ele>
        <time>2024-08-11T13:09:20Z</time>
      </trkpt>
      <trkpt lat="44.90109" lon="6.49311">
        <ele>1720.4</ele>
        <time>2024-08-11T13:09:21Z</time>
      </trkpt>
      <trkpt lat="44.90109" lon="6.49311">
        <ele>1720.4</ele>
        <time>2024-08-11T13:09:22Z</time>
      </trkpt>
      <trkpt lat="44.90109" lon="6.49311">
        <ele>1720.4</ele>
        <time>2024-08-11T13:09:23Z</time>
      </trkpt>
      <trkpt lat="44.90109" lon="6.49311">
        <ele>1720.4</ele>
        <time>2024-08-11T13:09:24Z</time>
      </trkpt>
      <trkpt lat="44.90109" lon="6.49311">
        <ele>1720.2</ele>
        <time>2024-08-11T13:09:25Z</time>
      </trkpt>
      <trkpt lat="44.90109" lon="6.49311">
        <ele>1720.4</ele>
        <time>2024-08-11T13:09:26Z</time>
      </trkpt>
      <trkpt lat="44.90109" lon="6.49311">
        <ele>1720.6</ele>
        <time>2024-08-11T13:09:27Z</time>
      </trkpt>
      <trkpt lat="44.90109" lon="6.49311">
        <ele>1720.6</ele>
        <time>2024-08-11T13:09:28Z</time>
      </trkpt>
      <trkpt lat="44.90109" lon="6.49311">
        <ele>1720.2</ele>
        <time>2024-08-11T13:09:29Z</time>
      </trkpt>
      <trkpt lat="44.90109" lon="6.49311">
        <ele>1720.2</ele>
        <time>2024-08-11T13:09:30Z</time>
      </trkpt>
      <trkpt lat="44.90109" lon="6.49311">
        <ele>1720</ele>
        <time>2024-08-11T13:09:31Z</time>
      </trkpt>
      <trkpt lat="44.90109" lon="6.49311">
        <ele>1720</ele>
        <time>2024-08-11T13:09:32Z</time>
      </trkpt>
      <trkpt lat="44.90109" lon="6.49311">
        <ele>1720.2</ele>
        <time>2024-08-11T13:09:33Z</time>
      </trkpt>
      <trkpt lat="44.90109" lon="6.49311">
        <ele>1720.2</ele>
        <time>2024-08-11T13:09:34Z</time>
      </trkpt>
      <trkpt lat="44.90109" lon="6.49311">
        <ele>1720.2</ele>
        <time>2024-08-11T13:09:35Z</time>
      </trkpt>
      <trkpt lat="44.90109" lon="6.49311">
        <ele>1720.2</ele>
        <time>2024-08-11T13:09:36Z</time>
      </trkpt>
      <trkpt lat="44.90109" lon="6.49311">
        <ele>1720.2</ele>
        <time>2024-08-11T13:09:37Z</time>
      </trkpt>
      <trkpt lat="44.90109" lon="6.49311">
        <ele>1720.2</ele>
        <time>2024-08-11T13:09:38Z</time>
      </trkpt>
      <trkpt lat="44.90109" lon="6.49311">
        <ele>1720.2</ele>
        <time>2024-08-11T13:09:39Z</time>
      </trkpt>
      <trkpt lat="44.90109" lon="6.49311">
        <ele>1720.2</ele>
        <time>2024-08-11T13:09:40Z</time>
      </trkpt>
      <trkpt lat="44.90109" lon="6.49311">
        <ele>1720</ele>
        <time>2024-08-11T13:09:41Z</time>
      </trkpt>
      <trkpt lat="44.90109" lon="6.49311">
        <ele>1720</ele>
        <time>2024-08-11T13:09:42Z</time>
      </trkpt>
      <trkpt lat="44.90109" lon="6.49311">
        <ele>1720</ele>
        <time>2024-08-11T13:09:43Z</time>
      </trkpt>
      <trkpt lat="44.90109" lon="6.49311">
        <ele>1720</ele>
        <time>2024-08-11T13:09:44Z</time>
      </trkpt>
      <trkpt lat="44.90109" lon="6.49311">
        <ele>1720</ele>
        <time>2024-08-11T13:09:45Z</time>
      </trkpt>
      <trkpt lat="44.90109" lon="6.49311">
        <ele>1720.2</ele>
        <time>2024-08-11T13:09:46Z</time>
      </trkpt>
      <trkpt lat="44.90109" lon="6.49311">
        <ele>1720.2</ele>
        <time>2024-08-11T13:09:47Z</time>
      </trkpt>
      <trkpt lat="44.90109" lon="6.49311">
        <ele>1720.2</ele>
        <time>2024-08-11T13:09:48Z</time>
      </trkpt>
      <trkpt lat="44.90109" lon="6.49311">
        <ele>1720.2</ele>
        <time>2024-08-11T13:09:49Z</time>
      </trkpt>
      <trkpt lat="44.90109" lon="6.49311">
        <ele>1720.2</ele>
        <time>2024-08-11T13:09:50Z</time>
      </trkpt>
      <trkpt lat="44.90109" lon="6.49311">
        <ele>1720.2</ele>
        <time>2024-08-11T13:09:51Z</time>
      </trkpt>
      <trkpt lat="44.90109" lon="6.49311">
        <ele>1720.4</ele>
        <time>2024-08-11T13:09:52Z</time>
      </trkpt>
      <trkpt lat="44.90109" lon="6.49311">
        <ele>1720.4</ele>
        <time>2024-08-11T13:09:53Z</time>
      </trkpt>
      <trkpt lat="44.90109" lon="6.49311">
        <ele>1720.4</ele>
        <time>2024-08-11T13:09:54Z</time>
      </trkpt>
      <trkpt lat="44.90109" lon="6.49311">
        <ele>1720.4</ele>
        <time>2024-08-11T13:09:55Z</time>
      </trkpt>
      <trkpt lat="44.90109" lon="6.49311">
        <ele>1720.6</ele>
        <time>2024-08-11T13:09:56Z</time>
      </trkpt>
      <trkpt lat="44.90109" lon="6.49311">
        <ele>1720.6</ele>
        <time>2024-08-11T13:09:57Z</time>
      </trkpt>
      <trkpt lat="44.90109" lon="6.49311">
        <ele>1720.6</ele>
        <time>2024-08-11T13:09:58Z</time>
      </trkpt>
      <trkpt lat="44.90109" lon="6.49311">
        <ele>1720.6</ele>
        <time>2024-08-11T13:09:59Z</time>
      </trkpt>
      <trkpt lat="44.90109" lon="6.49311">
        <ele>1720.6</ele>
        <time>2024-08-11T13:10:00Z</time>
      </trkpt>
      <trkpt lat="44.90109" lon="6.49311">
        <ele>1720.6</ele>
        <time>2024-08-11T13:10:01Z</time>
      </trkpt>
      <trkpt lat="44.90109" lon="6.49311">
        <ele>1720.6</ele>
        <time>2024-08-11T13:10:02Z</time>
      </trkpt>
      <trkpt lat="44.90109" lon="6.49311">
        <ele>1720.6</ele>
        <time>2024-08-11T13:10:03Z</time>
      </trkpt>
      <trkpt lat="44.90109" lon="6.49311">
        <ele>1720.6</ele>
        <time>2024-08-11T13:10:04Z</time>
      </trkpt>
      <trkpt lat="44.90109" lon="6.49311">
        <ele>1720.6</ele>
        <time>2024-08-11T13:10:05Z</time>
      </trkpt>
      <trkpt lat="44.90109" lon="6.49311">
        <ele>1720.6</ele>
        <time>2024-08-11T13:10:06Z</time>
      </trkpt>
      <trkpt lat="44.90109" lon="6.49311">
        <ele>1720.6</ele>
        <time>2024-08-11T13:10:07Z</time>
      </trkpt>
      <trkpt lat="44.90109" lon="6.49311">
        <ele>1720.6</ele>
        <time>2024-08-11T13:10:08Z</time>
      </trkpt>
      <trkpt lat="44.90109" lon="6.49311">
        <ele>1720.4</ele>
        <time>2024-08-11T13:10:09Z</time>
      </trkpt>
      <trkpt lat="44.90109" lon="6.49311">
        <ele>1720.2</ele>
        <time>2024-08-11T13:10:10Z</time>
      </trkpt>
      <trkpt lat="44.90109" lon="6.49311">
        <ele>1720.2</ele>
        <time>2024-08-11T13:10:11Z</time>
      </trkpt>
      <trkpt lat="44.90109" lon="6.49311">
        <ele>1720.2</ele>
        <time>2024-08-11T13:10:12Z</time>
      </trkpt>
      <trkpt lat="44.90109" lon="6.49311">
        <ele>1720.2</ele>
        <time>2024-08-11T13:10:13Z</time>
      </trkpt>
      <trkpt lat="44.90109" lon="6.49311">
        <ele>1720</ele>
        <time>2024-08-11T13:10:14Z</time>
      </trkpt>
      <trkpt lat="44.90109" lon="6.49311">
        <ele>1720</ele>
        <time>2024-08-11T13:10:15Z</time>
      </trkpt>
      <trkpt lat="44.90109" lon="6.49311">
        <ele>1720</ele>
        <time>2024-08-11T13:10:16Z</time>
      </trkpt>
      <trkpt lat="44.90109" lon="6.49311">
        <ele>1720</ele>
        <time>2024-08-11T13:10:17Z</time>
      </trkpt>
      <trkpt lat="44.90109" lon="6.49311">
        <ele>1720</ele>
        <time>2024-08-11T13:10:18Z</time>
      </trkpt>
      <trkpt lat="44.90109" lon="6.49311">
        <ele>1720</ele>
        <time>2024-08-11T13:10:19Z</time>
      </trkpt>
      <trkpt lat="44.90109" lon="6.49311">
        <ele>1720</ele>
        <time>2024-08-11T13:10:20Z</time>
      </trkpt>
      <trkpt lat="44.90109" lon="6.49311">
        <ele>1720</ele>
        <time>2024-08-11T13:10:21Z</time>
      </trkpt>
      <trkpt lat="44.90109" lon="6.49311">
        <ele>1720</ele>
        <time>2024-08-11T13:10:22Z</time>
      </trkpt>
      <trkpt lat="44.90109" lon="6.49311">
        <ele>1720.2</ele>
        <time>2024-08-11T13:10:23Z</time>
      </trkpt>
      <trkpt lat="44.90109" lon="6.49311">
        <ele>1720.2</ele>
        <time>2024-08-11T13:10:24Z</time>
      </trkpt>
      <trkpt lat="44.90109" lon="6.49311">
        <ele>1720.2</ele>
        <time>2024-08-11T13:10:25Z</time>
      </trkpt>
      <trkpt lat="44.90109" lon="6.49311">
        <ele>1720.2</ele>
        <time>2024-08-11T13:10:26Z</time>
      </trkpt>
      <trkpt lat="44.90109" lon="6.49311">
        <ele>1720.2</ele>
        <time>2024-08-11T13:10:27Z</time>
      </trkpt>
      <trkpt lat="44.90109" lon="6.49311">
        <ele>1720.2</ele>
        <time>2024-08-11T13:10:28Z</time>
      </trkpt>
      <trkpt lat="44.90109" lon="6.49311">
        <ele>1720.2</ele>
        <time>2024-08-11T13:10:29Z</time>
      </trkpt>
      <trkpt lat="44.90109" lon="6.49311">
        <ele>1720.2</ele>
        <time>2024-08-11T13:10:30Z</time>
      </trkpt>
      <trkpt lat="44.90109" lon="6.49311">
        <ele>1720.4</ele>
        <time>2024-08-11T13:10:31Z</time>
      </trkpt>
      <trkpt lat="44.90109" lon="6.49311">
        <ele>1720.4</ele>
        <time>2024-08-11T13:10:32Z</time>
      </trkpt>
      <trkpt lat="44.90109" lon="6.49311">
        <ele>1720.4</ele>
        <time>2024-08-11T13:10:33Z</time>
      </trkpt>
      <trkpt lat="44.90109" lon="6.49311">
        <ele>1720.6</ele>
        <time>2024-08-11T13:10:34Z</time>
      </trkpt>
      <trkpt lat="44.90109" lon="6.49311">
        <ele>1720.6</ele>
        <time>2024-08-11T13:10:35Z</time>
      </trkpt>
      <trkpt lat="44.90109" lon="6.49311">
        <ele>1720.6</ele>
        <time>2024-08-11T13:10:36Z</time>
      </trkpt>
      <trkpt lat="44.90109" lon="6.49311">
        <ele>1720.2</ele>
        <time>2024-08-11T13:10:37Z</time>
      </trkpt>
      <trkpt lat="44.90109" lon="6.49311">
        <ele>1720.2</ele>
        <time>2024-08-11T13:10:38Z</time>
      </trkpt>
      <trkpt lat="44.90109" lon="6.49311">
        <ele>1720.2</ele>
        <time>2024-08-11T13:10:39Z</time>
      </trkpt>
      <trkpt lat="44.90109" lon="6.49311">
        <ele>1720.2</ele>
        <time>2024-08-11T13:10:40Z</time>
      </trkpt>
      <trkpt lat="44.90109" lon="6.49311">
        <ele>1720.2</ele>
        <time>2024-08-11T13:10:41Z</time>
      </trkpt>
      <trkpt lat="44.90109" lon="6.49311">
        <ele>1720</ele>
        <time>2024-08-11T13:10:42Z</time>
      </trkpt>
      <trkpt lat="44.90109" lon="6.49311">
        <ele>1720</ele>
        <time>2024-08-11T13:10:43Z</time>
      </trkpt>
      <trkpt lat="44.90109" lon="6.49311">
        <ele>1720.2</ele>
        <time>2024-08-11T13:10:44Z</time>
      </trkpt>
      <trkpt lat="44.90109" lon="6.49311">
        <ele>1720.2</ele>
        <time>2024-08-11T13:10:45Z</time>
      </trkpt>
      <trkpt lat="44.90109" lon="6.49311">
        <ele>1720.2</ele>
        <time>2024-08-11T13:10:46Z</time>
      </trkpt>
      <trkpt lat="44.90109" lon="6.49311">
        <ele>1720.2</ele>
        <time>2024-08-11T13:10:47Z</time>
      </trkpt>
      <trkpt lat="44.90109" lon="6.49311">
        <ele>1720.2</ele>
        <time>2024-08-11T13:10:48Z</time>
      </trkpt>
      <trkpt lat="44.90109" lon="6.49311">
        <ele>1720.2</ele>
        <time>2024-08-11T13:10:49Z</time>
      </trkpt>
      <trkpt lat="44.90109" lon="6.49311">
        <ele>1720.2</ele>
        <time>2024-08-11T13:10:50Z</time>
      </trkpt>
      <trkpt lat="44.90109" lon="6.49311">
        <ele>1720.2</ele>
        <time>2024-08-11T13:10:51Z</time>
      </trkpt>
      <trkpt lat="44.90109" lon="6.49311">
        <ele>1720</ele>
        <time>2024-08-11T13:10:52Z</time>
      </trkpt>
      <trkpt lat="44.90109" lon="6.49311">
        <ele>1720</ele>
        <time>2024-08-11T13:10:53Z</time>
      </trkpt>
      <trkpt lat="44.90109" lon="6.49311">
        <ele>1720</ele>
        <time>2024-08-11T13:10:54Z</time>
      </trkpt>
      <trkpt lat="44.90109" lon="6.49311">
        <ele>1720</ele>
        <time>2024-08-11T13:10:55Z</time>
      </trkpt>
      <trkpt lat="44.90109" lon="6.49311">
        <ele>1720</ele>
        <time>2024-08-11T13:10:56Z</time>
      </trkpt>
      <trkpt lat="44.90109" lon="6.49311">
        <ele>1720</ele>
        <time>2024-08-11T13:10:57Z</time>
      </trkpt>
      <trkpt lat="44.90109" lon="6.49311">
        <ele>1720</ele>
        <time>2024-08-11T13:10:58Z</time>
      </trkpt>
      <trkpt lat="44.90109" lon="6.49311">
        <ele>1720</ele>
        <time>2024-08-11T13:10:59Z</time>
      </trkpt>
      <trkpt lat="44.90109" lon="6.49311">
        <ele>1720</ele>
        <time>2024-08-11T13:11:00Z</time>
      </trkpt>
      <trkpt lat="44.90109" lon="6.49311">
        <ele>1720.2</ele>
        <time>2024-08-11T13:11:01Z</time>
      </trkpt>
      <trkpt lat="44.90109" lon="6.49311">
        <ele>1720.2</ele>
        <time>2024-08-11T13:11:02Z</time>
      </trkpt>
      <trkpt lat="44.90109" lon="6.49311">
        <ele>1720.2</ele>
        <time>2024-08-11T13:11:03Z</time>
      </trkpt>
      <trkpt lat="44.90109" lon="6.49311">
        <ele>1720</ele>
        <time>2024-08-11T13:11:04Z</time>
      </trkpt>
      <trkpt lat="44.90109" lon="6.49311">
        <ele>1720</ele>
        <time>2024-08-11T13:11:05Z</time>
      </trkpt>
      <trkpt lat="44.90109" lon="6.49311">
        <ele>1720.2</ele>
        <time>2024-08-11T13:11:06Z</time>
      </trkpt>
      <trkpt lat="44.90109" lon="6.49311">
        <ele>1720.2</ele>
        <time>2024-08-11T13:11:07Z</time>
      </trkpt>
      <trkpt lat="44.90109" lon="6.49311">
        <ele>1720.2</ele>
        <time>2024-08-11T13:11:08Z</time>
      </trkpt>
      <trkpt lat="44.90109" lon="6.49311">
        <ele>1720.4</ele>
        <time>2024-08-11T13:11:09Z</time>
      </trkpt>
      <trkpt lat="44.90109" lon="6.49311">
        <ele>1720.4</ele>
        <time>2024-08-11T13:11:10Z</time>
      </trkpt>
      <trkpt lat="44.90109" lon="6.49311">
        <ele>1720.4</ele>
        <time>2024-08-11T13:11:11Z</time>
      </trkpt>
      <trkpt lat="44.90109" lon="6.49311">
        <ele>1720.4</ele>
        <time>2024-08-11T13:11:12Z</time>
      </trkpt>
      <trkpt lat="44.90109" lon="6.49311">
        <ele>1720.4</ele>
        <time>2024-08-11T13:11:13Z</time>
      </trkpt>
      <trkpt lat="44.90109" lon="6.49311">
        <ele>1720.4</ele>
        <time>2024-08-11T13:11:14Z</time>
      </trkpt>
      <trkpt lat="44.90109" lon="6.49311">
        <ele>1720.4</ele>
        <time>2024-08-11T13:11:15Z</time>
      </trkpt>
      <trkpt lat="44.90109" lon="6.49311">
        <ele>1720.4</ele>
        <time>2024-08-11T13:11:16Z</time>
      </trkpt>
      <trkpt lat="44.90109" lon="6.49311">
        <ele>1720.6</ele>
        <time>2024-08-11T13:11:17Z</time>
      </trkpt>
      <trkpt lat="44.90109" lon="6.49311">
        <ele>1720.6</ele>
        <time>2024-08-11T13:11:18Z</time>
      </trkpt>
      <trkpt lat="44.90109" lon="6.49311">
        <ele>1720.6</ele>
        <time>2024-08-11T13:11:19Z</time>
      </trkpt>
      <trkpt lat="44.90109" lon="6.49311">
        <ele>1720.4</ele>
        <time>2024-08-11T13:11:20Z</time>
      </trkpt>
      <trkpt lat="44.90109" lon="6.49311">
        <ele>1720.4</ele>
        <time>2024-08-11T13:11:21Z</time>
      </trkpt>
      <trkpt lat="44.90109" lon="6.49311">
        <ele>1720.4</ele>
        <time>2024-08-11T13:11:22Z</time>
      </trkpt>
      <trkpt lat="44.90109" lon="6.49311">
        <ele>1720.4</ele>
        <time>2024-08-11T13:11:23Z</time>
      </trkpt>
      <trkpt lat="44.90109" lon="6.49311">
        <ele>1720.4</ele>
        <time>2024-08-11T13:11:24Z</time>
      </trkpt>
      <trkpt lat="44.90109" lon="6.49311">
        <ele>1720.6</ele>
        <time>2024-08-11T13:11:25Z</time>
      </trkpt>
      <trkpt lat="44.90109" lon="6.49311">
        <ele>1720.6</ele>
        <time>2024-08-11T13:11:26Z</time>
      </trkpt>
      <trkpt lat="44.90109" lon="6.49311">
        <ele>1720.6</ele>
        <time>2024-08-11T13:11:27Z</time>
      </trkpt>
      <trkpt lat="44.90109" lon="6.49311">
        <ele>1720.6</ele>
        <time>2024-08-11T13:11:28Z</time>
      </trkpt>
      <trkpt lat="44.90109" lon="6.49311">
        <ele>1720.6</ele>
        <time>2024-08-11T13:11:29Z</time>
      </trkpt>
      <trkpt lat="44.90109" lon="6.49311">
        <ele>1720.6</ele>
        <time>2024-08-11T13:11:30Z</time>
      </trkpt>
      <trkpt lat="44.90109" lon="6.49311">
        <ele>1720.4</ele>
        <time>2024-08-11T13:11:31Z</time>
      </trkpt>
      <trkpt lat="44.90109" lon="6.49311">
        <ele>1720.4</ele>
        <time>2024-08-11T13:11:32Z</time>
      </trkpt>
      <trkpt lat="44.90109" lon="6.49311">
        <ele>1720.4</ele>
        <time>2024-08-11T13:11:33Z</time>
      </trkpt>
      <trkpt lat="44.90109" lon="6.49311">
        <ele>1720.4</ele>
        <time>2024-08-11T13:11:34Z</time>
      </trkpt>
      <trkpt lat="44.90109" lon="6.49311">
        <ele>1720.6</ele>
        <time>2024-08-11T13:11:35Z</time>
      </trkpt>
      <trkpt lat="44.90109" lon="6.49311">
        <ele>1720.6</ele>
        <time>2024-08-11T13:11:36Z</time>
      </trkpt>
      <trkpt lat="44.90109" lon="6.49311">
        <ele>1720.4</ele>
        <time>2024-08-11T13:11:37Z</time>
      </trkpt>
      <trkpt lat="44.90109" lon="6.49311">
        <ele>1720.4</ele>
        <time>2024-08-11T13:11:38Z</time>
      </trkpt>
      <trkpt lat="44.90109" lon="6.49311">
        <ele>1720.4</ele>
        <time>2024-08-11T13:11:39Z</time>
      </trkpt>
      <trkpt lat="44.90109" lon="6.49311">
        <ele>1720.4</ele>
        <time>2024-08-11T13:11:40Z</time>
      </trkpt>
      <trkpt lat="44.90109" lon="6.49311">
        <ele>1720</ele>
        <time>2024-08-11T13:11:41Z</time>
      </trkpt>
      <trkpt lat="44.90109" lon="6.49311">
        <ele>1720</ele>
        <time>2024-08-11T13:11:42Z</time>
      </trkpt>
      <trkpt lat="44.90109" lon="6.49311">
        <ele>1720</ele>
        <time>2024-08-11T13:11:43Z</time>
      </trkpt>
      <trkpt lat="44.90109" lon="6.49311">
        <ele>1720.2</ele>
        <time>2024-08-11T13:11:44Z</time>
      </trkpt>
      <trkpt lat="44.90109" lon="6.49311">
        <ele>1720.2</ele>
        <time>2024-08-11T13:11:45Z</time>
      </trkpt>
      <trkpt lat="44.90109" lon="6.49311">
        <ele>1720.6</ele>
        <time>2024-08-11T13:11:46Z</time>
      </trkpt>
      <trkpt lat="44.90109" lon="6.49311">
        <ele>1720.6</ele>
        <time>2024-08-11T13:11:47Z</time>
      </trkpt>
      <trkpt lat="44.90109" lon="6.49311">
        <ele>1720.6</ele>
        <time>2024-08-11T13:11:48Z</time>
      </trkpt>
      <trkpt lat="44.90109" lon="6.49311">
        <ele>1720.6</ele>
        <time>2024-08-11T13:11:49Z</time>
      </trkpt>
      <trkpt lat="44.90109" lon="6.49311">
        <ele>1720.8</ele>
        <time>2024-08-11T13:11:50Z</time>
      </trkpt>
      <trkpt lat="44.90109" lon="6.49311">
        <ele>1720.8</ele>
        <time>2024-08-11T13:11:51Z</time>
      </trkpt>
      <trkpt lat="44.90109" lon="6.49311">
        <ele>1720.8</ele>
        <time>2024-08-11T13:11:52Z</time>
      </trkpt>
      <trkpt lat="44.90109" lon="6.49311">
        <ele>1720.8</ele>
        <time>2024-08-11T13:11:53Z</time>
      </trkpt>
      <trkpt lat="44.90109" lon="6.49311">
        <ele>1720.8</ele>
        <time>2024-08-11T13:11:54Z</time>
      </trkpt>
      <trkpt lat="44.90109" lon="6.49311">
        <ele>1721.2</ele>
        <time>2024-08-11T13:11:55Z</time>
      </trkpt>
      <trkpt lat="44.90109" lon="6.49311">
        <ele>1721.2</ele>
        <time>2024-08-11T13:11:56Z</time>
      </trkpt>
      <trkpt lat="44.90109" lon="6.49311">
        <ele>1721.2</ele>
        <time>2024-08-11T13:11:57Z</time>
      </trkpt>
      <trkpt lat="44.90109" lon="6.49311">
        <ele>1721.2</ele>
        <time>2024-08-11T13:11:58Z</time>
      </trkpt>
      <trkpt lat="44.90109" lon="6.49311">
        <ele>1721.2</ele>
        <time>2024-08-11T13:11:59Z</time>
      </trkpt>
      <trkpt lat="44.90109" lon="6.49311">
        <ele>1721.2</ele>
        <time>2024-08-11T13:12:00Z</time>
      </trkpt>
      <trkpt lat="44.90109" lon="6.49311">
        <ele>1721.2</ele>
        <time>2024-08-11T13:12:01Z</time>
      </trkpt>
      <trkpt lat="44.90109" lon="6.49311">
        <ele>1721.2</ele>
        <time>2024-08-11T13:12:02Z</time>
      </trkpt>
      <trkpt lat="44.90109" lon="6.49311">
        <ele>1721.2</ele>
        <time>2024-08-11T13:12:03Z</time>
      </trkpt>
      <trkpt lat="44.90109" lon="6.49311">
        <ele>1721.2</ele>
        <time>2024-08-11T13:12:04Z</time>
      </trkpt>
      <trkpt lat="44.90109" lon="6.49311">
        <ele>1721.2</ele>
        <time>2024-08-11T13:12:05Z</time>
      </trkpt>
      <trkpt lat="44.90109" lon="6.49311">
        <ele>1721.2</ele>
        <time>2024-08-11T13:12:06Z</time>
      </trkpt>
      <trkpt lat="44.90109" lon="6.49311">
        <ele>1721.2</ele>
        <time>2024-08-11T13:12:07Z</time>
      </trkpt>
      <trkpt lat="44.90109" lon="6.49311">
        <ele>1721.2</ele>
        <time>2024-08-11T13:12:08Z</time>
      </trkpt>
      <trkpt lat="44.90109" lon="6.49311">
        <ele>1721.2</ele>
        <time>2024-08-11T13:12:09Z</time>
      </trkpt>
      <trkpt lat="44.90109" lon="6.49311">
        <ele>1721.2</ele>
        <time>2024-08-11T13:12:10Z</time>
      </trkpt>
      <trkpt lat="44.90109" lon="6.49311">
        <ele>1721.2</ele>
        <time>2024-08-11T13:12:11Z</time>
      </trkpt>
      <trkpt lat="44.90109" lon="6.49311">
        <ele>1721.2</ele>
        <time>2024-08-11T13:12:12Z</time>
      </trkpt>
      <trkpt lat="44.90109" lon="6.49311">
        <ele>1721.2</ele>
        <time>2024-08-11T13:12:13Z</time>
      </trkpt>
      <trkpt lat="44.90109" lon="6.49311">
        <ele>1721.2</ele>
        <time>2024-08-11T13:12:14Z</time>
      </trkpt>
      <trkpt lat="44.90109" lon="6.49311">
        <ele>1721.2</ele>
        <time>2024-08-11T13:12:15Z</time>
      </trkpt>
      <trkpt lat="44.90109" lon="6.49311">
        <ele>1721.4</ele>
        <time>2024-08-11T13:12:16Z</time>
      </trkpt>
      <trkpt lat="44.90109" lon="6.49311">
        <ele>1721.4</ele>
        <time>2024-08-11T13:12:17Z</time>
      </trkpt>
      <trkpt lat="44.90109" lon="6.49311">
        <ele>1721.4</ele>
        <time>2024-08-11T13:12:18Z</time>
      </trkpt>
      <trkpt lat="44.90109" lon="6.49311">
        <ele>1721.4</ele>
        <time>2024-08-11T13:12:19Z</time>
      </trkpt>
      <trkpt lat="44.90109" lon="6.49311">
        <ele>1721.4</ele>
        <time>2024-08-11T13:12:20Z</time>
      </trkpt>
      <trkpt lat="44.90109" lon="6.49311">
        <ele>1721.4</ele>
        <time>2024-08-11T13:12:21Z</time>
      </trkpt>
      <trkpt lat="44.90109" lon="6.49311">
        <ele>1721.4</ele>
        <time>2024-08-11T13:12:22Z</time>
      </trkpt>
      <trkpt lat="44.90109" lon="6.49311">
        <ele>1721.6</ele>
        <time>2024-08-11T13:12:23Z</time>
      </trkpt>
      <trkpt lat="44.90109" lon="6.49311">
        <ele>1721.6</ele>
        <time>2024-08-11T13:12:24Z</time>
      </trkpt>
      <trkpt lat="44.90109" lon="6.49311">
        <ele>1721.4</ele>
        <time>2024-08-11T13:12:25Z</time>
      </trkpt>
      <trkpt lat="44.90109" lon="6.49311">
        <ele>1721.2</ele>
        <time>2024-08-11T13:12:26Z</time>
      </trkpt>
      <trkpt lat="44.90109" lon="6.49311">
        <ele>1721.2</ele>
        <time>2024-08-11T13:12:27Z</time>
      </trkpt>
      <trkpt lat="44.90109" lon="6.49311">
        <ele>1721.2</ele>
        <time>2024-08-11T13:12:28Z</time>
      </trkpt>
      <trkpt lat="44.90109" lon="6.49311">
        <ele>1721.2</ele>
        <time>2024-08-11T13:12:29Z</time>
      </trkpt>
      <trkpt lat="44.90109" lon="6.49311">
        <ele>1721.2</ele>
        <time>2024-08-11T13:12:30Z</time>
      </trkpt>
      <trkpt lat="44.90109" lon="6.49311">
        <ele>1721.4</ele>
        <time>2024-08-11T13:12:31Z</time>
      </trkpt>
      <trkpt lat="44.90109" lon="6.49311">
        <ele>1721.4</ele>
        <time>2024-08-11T13:12:32Z</time>
      </trkpt>
      <trkpt lat="44.90109" lon="6.49311">
        <ele>1721.4</ele>
        <time>2024-08-11T13:12:33Z</time>
      </trkpt>
      <trkpt lat="44.90109" lon="6.49311">
        <ele>1721.2</ele>
        <time>2024-08-11T13:12:34Z</time>
      </trkpt>
      <trkpt lat="44.90109" lon="6.49311">
        <ele>1721.2</ele>
        <time>2024-08-11T13:12:35Z</time>
      </trkpt>
      <trkpt lat="44.90109" lon="6.49311">
        <ele>1721.2</ele>
        <time>2024-08-11T13:12:36Z</time>
      </trkpt>
      <trkpt lat="44.90109" lon="6.49311">
        <ele>1721.2</ele>
        <time>2024-08-11T13:12:37Z</time>
      </trkpt>
      <trkpt lat="44.90109" lon="6.49311">
        <ele>1721.2</ele>
        <time>2024-08-11T13:12:38Z</time>
      </trkpt>
      <trkpt lat="44.90109" lon="6.49311">
        <ele>1721.2</ele>
        <time>2024-08-11T13:12:39Z</time>
      </trkpt>
      <trkpt lat="44.90109" lon="6.49311">
        <ele>1721.2</ele>
        <time>2024-08-11T13:12:40Z</time>
      </trkpt>
      <trkpt lat="44.90109" lon="6.49311">
        <ele>1721.2</ele>
        <time>2024-08-11T13:12:41Z</time>
      </trkpt>
      <trkpt lat="44.90109" lon="6.49311">
        <ele>1721.2</ele>
        <time>2024-08-11T13:12:42Z</time>
      </trkpt>
      <trkpt lat="44.90109" lon="6.49311">
        <ele>1721</ele>
        <time>2024-08-11T13:12:43Z</time>
      </trkpt>
      <trkpt lat="44.90109" lon="6.49311">
        <ele>1721</ele>
        <time>2024-08-11T13:12:44Z</time>
      </trkpt>
      <trkpt lat="44.90109" lon="6.49311">
        <ele>1721</ele>
        <time>2024-08-11T13:12:45Z</time>
      </trkpt>
      <trkpt lat="44.90109" lon="6.49311">
        <ele>1721</ele>
        <time>2024-08-11T13:12:46Z</time>
      </trkpt>
      <trkpt lat="44.90109" lon="6.49311">
        <ele>1720.8</ele>
        <time>2024-08-11T13:12:47Z</time>
      </trkpt>
      <trkpt lat="44.90109" lon="6.49311">
        <ele>1721</ele>
        <time>2024-08-11T13:12:48Z</time>
      </trkpt>
      <trkpt lat="44.90109" lon="6.49311">
        <ele>1720.8</ele>
        <time>2024-08-11T13:12:49Z</time>
      </trkpt>
      <trkpt lat="44.90109" lon="6.49311">
        <ele>1720.8</ele>
        <time>2024-08-11T13:12:50Z</time>
      </trkpt>
      <trkpt lat="44.90109" lon="6.49311">
        <ele>1720.8</ele>
        <time>2024-08-11T13:12:51Z</time>
      </trkpt>
      <trkpt lat="44.90109" lon="6.49311">
        <ele>1720.6</ele>
        <time>2024-08-11T13:12:52Z</time>
      </trkpt>
      <trkpt lat="44.90109" lon="6.49311">
        <ele>1720.6</ele>
        <time>2024-08-11T13:12:53Z</time>
      </trkpt>
      <trkpt lat="44.90109" lon="6.49311">
        <ele>1720.6</ele>
        <time>2024-08-11T13:12:54Z</time>
      </trkpt>
      <trkpt lat="44.90109" lon="6.49311">
        <ele>1720.6</ele>
        <time>2024-08-11T13:12:55Z</time>
      </trkpt>
      <trkpt lat="44.90109" lon="6.49311">
        <ele>1720.8</ele>
        <time>2024-08-11T13:12:56Z</time>
      </trkpt>
      <trkpt lat="44.90109" lon="6.49311">
        <ele>1721</ele>
        <time>2024-08-11T13:12:57Z</time>
      </trkpt>
      <trkpt lat="44.90109" lon="6.49311">
        <ele>1721</ele>
        <time>2024-08-11T13:12:58Z</time>
      </trkpt>
      <trkpt lat="44.90109" lon="6.49311">
        <ele>1721</ele>
        <time>2024-08-11T13:12:59Z</time>
      </trkpt>
      <trkpt lat="44.90109" lon="6.49311">
        <ele>1721</ele>
        <time>2024-08-11T13:13:00Z</time>
      </trkpt>
      <trkpt lat="44.90109" lon="6.49311">
        <ele>1721</ele>
        <time>2024-08-11T13:13:01Z</time>
      </trkpt>
      <trkpt lat="44.90109" lon="6.49311">
        <ele>1721.2</ele>
        <time>2024-08-11T13:13:02Z</time>
      </trkpt>
      <trkpt lat="44.90109" lon="6.49311">
        <ele>1721.2</ele>
        <time>2024-08-11T13:13:03Z</time>
      </trkpt>
      <trkpt lat="44.90109" lon="6.49311">
        <ele>1720.8</ele>
        <time>2024-08-11T13:13:04Z</time>
      </trkpt>
      <trkpt lat="44.90109" lon="6.49311">
        <ele>1721</ele>
        <time>2024-08-11T13:13:05Z</time>
      </trkpt>
      <trkpt lat="44.90109" lon="6.49311">
        <ele>1721</ele>
        <time>2024-08-11T13:13:06Z</time>
      </trkpt>
      <trkpt lat="44.90109" lon="6.49311">
        <ele>1721.2</ele>
        <time>2024-08-11T13:13:07Z</time>
      </trkpt>
      <trkpt lat="44.90109" lon="6.49311">
        <ele>1721.2</ele>
        <time>2024-08-11T13:13:08Z</time>
      </trkpt>
      <trkpt lat="44.90109" lon="6.49311">
        <ele>1721.2</ele>
        <time>2024-08-11T13:13:09Z</time>
      </trkpt>
      <trkpt lat="44.90109" lon="6.49311">
        <ele>1721.2</ele>
        <time>2024-08-11T13:13:10Z</time>
      </trkpt>
      <trkpt lat="44.90109" lon="6.49311">
        <ele>1721.2</ele>
        <time>2024-08-11T13:13:11Z</time>
      </trkpt>
      <trkpt lat="44.90109" lon="6.49311">
        <ele>1721.2</ele>
        <time>2024-08-11T13:13:12Z</time>
      </trkpt>
      <trkpt lat="44.90109" lon="6.49311">
        <ele>1721.2</ele>
        <time>2024-08-11T13:13:13Z</time>
      </trkpt>
      <trkpt lat="44.90109" lon="6.49311">
        <ele>1721.2</ele>
        <time>2024-08-11T13:13:14Z</time>
      </trkpt>
      <trkpt lat="44.90109" lon="6.49311">
        <ele>1721.2</ele>
        <time>2024-08-11T13:13:15Z</time>
      </trkpt>
      <trkpt lat="44.90109" lon="6.49311">
        <ele>1721</ele>
        <time>2024-08-11T13:13:16Z</time>
      </trkpt>
      <trkpt lat="44.90109" lon="6.49311">
        <ele>1721</ele>
        <time>2024-08-11T13:13:17Z</time>
      </trkpt>
      <trkpt lat="44.90109" lon="6.49311">
        <ele>1721</ele>
        <time>2024-08-11T13:13:18Z</time>
      </trkpt>
      <trkpt lat="44.90109" lon="6.49311">
        <ele>1721</ele>
        <time>2024-08-11T13:13:19Z</time>
      </trkpt>
      <trkpt lat="44.90109" lon="6.49311">
        <ele>1721</ele>
        <time>2024-08-11T13:13:20Z</time>
      </trkpt>
      <trkpt lat="44.90109" lon="6.49311">
        <ele>1721</ele>
        <time>2024-08-11T13:13:21Z</time>
      </trkpt>
      <trkpt lat="44.90109" lon="6.49311">
        <ele>1721</ele>
        <time>2024-08-11T13:13:22Z</time>
      </trkpt>
      <trkpt lat="44.90109" lon="6.49311">
        <ele>1721</ele>
        <time>2024-08-11T13:13:23Z</time>
      </trkpt>
      <trkpt lat="44.90109" lon="6.49311">
        <ele>1721</ele>
        <time>2024-08-11T13:13:24Z</time>
      </trkpt>
      <trkpt lat="44.90109" lon="6.49311">
        <ele>1721.6</ele>
        <time>2024-08-11T13:13:25Z</time>
      </trkpt>
      <trkpt lat="44.90109" lon="6.49311">
        <ele>1721.6</ele>
        <time>2024-08-11T13:13:26Z</time>
      </trkpt>
      <trkpt lat="44.90109" lon="6.49311">
        <ele>1721.6</ele>
        <time>2024-08-11T13:13:27Z</time>
      </trkpt>
      <trkpt lat="44.90109" lon="6.49311">
        <ele>1721.6</ele>
        <time>2024-08-11T13:13:28Z</time>
      </trkpt>
      <trkpt lat="44.90109" lon="6.49311">
        <ele>1721.6</ele>
        <time>2024-08-11T13:13:29Z</time>
      </trkpt>
      <trkpt lat="44.90109" lon="6.49311">
        <ele>1721.6</ele>
        <time>2024-08-11T13:13:30Z</time>
      </trkpt>
      <trkpt lat="44.90109" lon="6.49311">
        <ele>1721.8</ele>
        <time>2024-08-11T13:13:31Z</time>
      </trkpt>
      <trkpt lat="44.90109" lon="6.49311">
        <ele>1721.8</ele>
        <time>2024-08-11T13:13:32Z</time>
      </trkpt>
      <trkpt lat="44.90109" lon="6.49311">
        <ele>1721.6</ele>
        <time>2024-08-11T13:13:33Z</time>
      </trkpt>
      <trkpt lat="44.90109" lon="6.49311">
        <ele>1721.6</ele>
        <time>2024-08-11T13:13:34Z</time>
      </trkpt>
      <trkpt lat="44.90109" lon="6.49311">
        <ele>1721.6</ele>
        <time>2024-08-11T13:13:35Z</time>
      </trkpt>
      <trkpt lat="44.90109" lon="6.49311">
        <ele>1721.6</ele>
        <time>2024-08-11T13:13:36Z</time>
      </trkpt>
      <trkpt lat="44.90109" lon="6.49311">
        <ele>1721.6</ele>
        <time>2024-08-11T13:13:37Z</time>
      </trkpt>
      <trkpt lat="44.90109" lon="6.49311">
        <ele>1721.6</ele>
        <time>2024-08-11T13:13:38Z</time>
      </trkpt>
      <trkpt lat="44.90109" lon="6.49311">
        <ele>1721.6</ele>
        <time>2024-08-11T13:13:39Z</time>
      </trkpt>
      <trkpt lat="44.90109" lon="6.49311">
        <ele>1721.6</ele>
        <time>2024-08-11T13:13:40Z</time>
      </trkpt>
      <trkpt lat="44.90109" lon="6.49311">
        <ele>1721.6</ele>
        <time>2024-08-11T13:13:41Z</time>
      </trkpt>
      <trkpt lat="44.90109" lon="6.49311">
        <ele>1721.4</ele>
        <time>2024-08-11T13:13:42Z</time>
      </trkpt>
      <trkpt lat="44.90109" lon="6.49311">
        <ele>1721.4</ele>
        <time>2024-08-11T13:13:43Z</time>
      </trkpt>
      <trkpt lat="44.90109" lon="6.49311">
        <ele>1721.4</ele>
        <time>2024-08-11T13:13:44Z</time>
      </trkpt>
      <trkpt lat="44.90109" lon="6.49311">
        <ele>1721.4</ele>
        <time>2024-08-11T13:13:45Z</time>
      </trkpt>
      <trkpt lat="44.90109" lon="6.49311">
        <ele>1721.4</ele>
        <time>2024-08-11T13:13:46Z</time>
      </trkpt>
      <trkpt lat="44.90109" lon="6.49311">
        <ele>1721.4</ele>
        <time>2024-08-11T13:13:47Z</time>
      </trkpt>
      <trkpt lat="44.90109" lon="6.49311">
        <ele>1721.4</ele>
        <time>2024-08-11T13:13:48Z</time>
      </trkpt>
      <trkpt lat="44.90109" lon="6.49311">
        <ele>1721.4</ele>
        <time>2024-08-11T13:13:49Z</time>
      </trkpt>
      <trkpt lat="44.90109" lon="6.49311">
        <ele>1721.4</ele>
        <time>2024-08-11T13:13:50Z</time>
      </trkpt>
      <trkpt lat="44.90109" lon="6.49311">
        <ele>1721.6</ele>
        <time>2024-08-11T13:13:51Z</time>
      </trkpt>
      <trkpt lat="44.90109" lon="6.49311">
        <ele>1721.6</ele>
        <time>2024-08-11T13:13:52Z</time>
      </trkpt>
      <trkpt lat="44.90109" lon="6.49311">
        <ele>1721.6</ele>
        <time>2024-08-11T13:13:53Z</time>
      </trkpt>
      <trkpt lat="44.90109" lon="6.49311">
        <ele>1721.4</ele>
        <time>2024-08-11T13:13:54Z</time>
      </trkpt>
      <trkpt lat="44.90109" lon="6.49311">
        <ele>1721.4</ele>
        <time>2024-08-11T13:13:55Z</time>
      </trkpt>
      <trkpt lat="44.90109" lon="6.49311">
        <ele>1721.4</ele>
        <time>2024-08-11T13:13:56Z</time>
      </trkpt>
      <trkpt lat="44.90109" lon="6.49311">
        <ele>1721.4</ele>
        <time>2024-08-11T13:13:57Z</time>
      </trkpt>
      <trkpt lat="44.90109" lon="6.49311">
        <ele>1721.4</ele>
        <time>2024-08-11T13:13:58Z</time>
      </trkpt>
      <trkpt lat="44.90109" lon="6.49311">
        <ele>1721.6</ele>
        <time>2024-08-11T13:13:59Z</time>
      </trkpt>
      <trkpt lat="44.90109" lon="6.49311">
        <ele>1721.6</ele>
        <time>2024-08-11T13:14:00Z</time>
      </trkpt>
      <trkpt lat="44.90109" lon="6.49311">
        <ele>1721.4</ele>
        <time>2024-08-11T13:14:01Z</time>
      </trkpt>
      <trkpt lat="44.90109" lon="6.49311">
        <ele>1721.4</ele>
        <time>2024-08-11T13:14:02Z</time>
      </trkpt>
      <trkpt lat="44.90109" lon="6.49311">
        <ele>1721.4</ele>
        <time>2024-08-11T13:14:03Z</time>
      </trkpt>
      <trkpt lat="44.90109" lon="6.49311">
        <ele>1721.4</ele>
        <time>2024-08-11T13:14:04Z</time>
      </trkpt>
      <trkpt lat="44.90109" lon="6.49311">
        <ele>1721.4</ele>
        <time>2024-08-11T13:14:05Z</time>
      </trkpt>
      <trkpt lat="44.90109" lon="6.49311">
        <ele>1721.4</ele>
        <time>2024-08-11T13:14:06Z</time>
      </trkpt>
      <trkpt lat="44.90109" lon="6.49311">
        <ele>1721.4</ele>
        <time>2024-08-11T13:14:07Z</time>
      </trkpt>
      <trkpt lat="44.90109" lon="6.49311">
        <ele>1721.4</ele>
        <time>2024-08-11T13:14:08Z</time>
      </trkpt>
      <trkpt lat="44.90109" lon="6.49311">
        <ele>1721.4</ele>
        <time>2024-08-11T13:14:09Z</time>
      </trkpt>
      <trkpt lat="44.90109" lon="6.49311">
        <ele>1721.2</ele>
        <time>2024-08-11T13:14:10Z</time>
      </trkpt>
      <trkpt lat="44.90109" lon="6.49311">
        <ele>1721.4</ele>
        <time>2024-08-11T13:14:11Z</time>
      </trkpt>
      <trkpt lat="44.90109" lon="6.49311">
        <ele>1721.4</ele>
        <time>2024-08-11T13:14:12Z</time>
      </trkpt>
      <trkpt lat="44.90109" lon="6.49311">
        <ele>1721.4</ele>
        <time>2024-08-11T13:14:13Z</time>
      </trkpt>
      <trkpt lat="44.90109" lon="6.49311">
        <ele>1721.4</ele>
        <time>2024-08-11T13:14:14Z</time>
      </trkpt>
      <trkpt lat="44.90109" lon="6.49311">
        <ele>1721.4</ele>
        <time>2024-08-11T13:14:15Z</time>
      </trkpt>
      <trkpt lat="44.90109" lon="6.49311">
        <ele>1721.6</ele>
        <time>2024-08-11T13:14:16Z</time>
      </trkpt>
      <trkpt lat="44.90109" lon="6.49311">
        <ele>1721.6</ele>
        <time>2024-08-11T13:14:17Z</time>
      </trkpt>
      <trkpt lat="44.90109" lon="6.49311">
        <ele>1721.6</ele>
        <time>2024-08-11T13:14:18Z</time>
      </trkpt>
      <trkpt lat="44.90109" lon="6.49311">
        <ele>1721.6</ele>
        <time>2024-08-11T13:14:19Z</time>
      </trkpt>
      <trkpt lat="44.90109" lon="6.49311">
        <ele>1721.6</ele>
        <time>2024-08-11T13:14:20Z</time>
      </trkpt>
      <trkpt lat="44.90109" lon="6.49311">
        <ele>1721.6</ele>
        <time>2024-08-11T13:14:21Z</time>
      </trkpt>
      <trkpt lat="44.90109" lon="6.49311">
        <ele>1721.6</ele>
        <time>2024-08-11T13:14:22Z</time>
      </trkpt>
      <trkpt lat="44.90109" lon="6.49311">
        <ele>1721.6</ele>
        <time>2024-08-11T13:14:23Z</time>
      </trkpt>
      <trkpt lat="44.90109" lon="6.49311">
        <ele>1721.8</ele>
        <time>2024-08-11T13:14:24Z</time>
      </trkpt>
      <trkpt lat="44.90109" lon="6.49311">
        <ele>1721.8</ele>
        <time>2024-08-11T13:14:25Z</time>
      </trkpt>
      <trkpt lat="44.90109" lon="6.49311">
        <ele>1721.8</ele>
        <time>2024-08-11T13:14:26Z</time>
      </trkpt>
      <trkpt lat="44.90109" lon="6.49311">
        <ele>1721.6</ele>
        <time>2024-08-11T13:14:27Z</time>
      </trkpt>
      <trkpt lat="44.90109" lon="6.49311">
        <ele>1721.6</ele>
        <time>2024-08-11T13:14:28Z</time>
      </trkpt>
      <trkpt lat="44.90109" lon="6.49311">
        <ele>1721.6</ele>
        <time>2024-08-11T13:14:29Z</time>
      </trkpt>
      <trkpt lat="44.90109" lon="6.49311">
        <ele>1721.6</ele>
        <time>2024-08-11T13:14:30Z</time>
      </trkpt>
      <trkpt lat="44.90109" lon="6.49311">
        <ele>1721.8</ele>
        <time>2024-08-11T13:14:31Z</time>
      </trkpt>
      <trkpt lat="44.90109" lon="6.49311">
        <ele>1721.8</ele>
        <time>2024-08-11T13:14:32Z</time>
      </trkpt>
      <trkpt lat="44.90109" lon="6.49311">
        <ele>1721.8</ele>
        <time>2024-08-11T13:14:33Z</time>
      </trkpt>
      <trkpt lat="44.90109" lon="6.49311">
        <ele>1721.8</ele>
        <time>2024-08-11T13:14:34Z</time>
      </trkpt>
      <trkpt lat="44.90109" lon="6.49311">
        <ele>1721.8</ele>
        <time>2024-08-11T13:14:35Z</time>
      </trkpt>
      <trkpt lat="44.90109" lon="6.49311">
        <ele>1721.8</ele>
        <time>2024-08-11T13:14:36Z</time>
      </trkpt>
      <trkpt lat="44.90109" lon="6.49311">
        <ele>1721.8</ele>
        <time>2024-08-11T13:14:37Z</time>
      </trkpt>
      <trkpt lat="44.90109" lon="6.49311">
        <ele>1721.6</ele>
        <time>2024-08-11T13:14:38Z</time>
      </trkpt>
      <trkpt lat="44.90109" lon="6.49311">
        <ele>1721.6</ele>
        <time>2024-08-11T13:14:39Z</time>
      </trkpt>
      <trkpt lat="44.90109" lon="6.49311">
        <ele>1721.6</ele>
        <time>2024-08-11T13:14:40Z</time>
      </trkpt>
      <trkpt lat="44.90109" lon="6.49311">
        <ele>1721.4</ele>
        <time>2024-08-11T13:14:41Z</time>
      </trkpt>
      <trkpt lat="44.90109" lon="6.49311">
        <ele>1721.4</ele>
        <time>2024-08-11T13:14:42Z</time>
      </trkpt>
      <trkpt lat="44.90109" lon="6.49311">
        <ele>1721.4</ele>
        <time>2024-08-11T13:14:43Z</time>
      </trkpt>
      <trkpt lat="44.90109" lon="6.49311">
        <ele>1721.4</ele>
        <time>2024-08-11T13:14:44Z</time>
      </trkpt>
      <trkpt lat="44.90109" lon="6.49311">
        <ele>1721.4</ele>
        <time>2024-08-11T13:14:45Z</time>
      </trkpt>
      <trkpt lat="44.90109" lon="6.49311">
        <ele>1721.6</ele>
        <time>2024-08-11T13:14:46Z</time>
      </trkpt>
      <trkpt lat="44.90109" lon="6.49311">
        <ele>1721.6</ele>
        <time>2024-08-11T13:14:47Z</time>
      </trkpt>
      <trkpt lat="44.90109" lon="6.49311">
        <ele>1721.8</ele>
        <time>2024-08-11T13:14:48Z</time>
      </trkpt>
      <trkpt lat="44.90109" lon="6.49311">
        <ele>1721.6</ele>
        <time>2024-08-11T13:14:49Z</time>
      </trkpt>
      <trkpt lat="44.90109" lon="6.49311">
        <ele>1721.6</ele>
        <time>2024-08-11T13:14:50Z</time>
      </trkpt>
      <trkpt lat="44.90109" lon="6.49311">
        <ele>1721.4</ele>
        <time>2024-08-11T13:14:51Z</time>
      </trkpt>
      <trkpt lat="44.90109" lon="6.49311">
        <ele>1721.4</ele>
        <time>2024-08-11T13:14:52Z</time>
      </trkpt>
      <trkpt lat="44.90109" lon="6.49311">
        <ele>1721.4</ele>
        <time>2024-08-11T13:14:53Z</time>
      </trkpt>
      <trkpt lat="44.90109" lon="6.49311">
        <ele>1721.2</ele>
        <time>2024-08-11T13:14:54Z</time>
      </trkpt>
      <trkpt lat="44.90109" lon="6.49311">
        <ele>1721.2</ele>
        <time>2024-08-11T13:14:55Z</time>
      </trkpt>
      <trkpt lat="44.90109" lon="6.49311">
        <ele>1721.2</ele>
        <time>2024-08-11T13:14:56Z</time>
      </trkpt>
      <trkpt lat="44.90109" lon="6.49311">
        <ele>1721</ele>
        <time>2024-08-11T13:14:57Z</time>
      </trkpt>
      <trkpt lat="44.90109" lon="6.49311">
        <ele>1721</ele>
        <time>2024-08-11T13:14:58Z</time>
      </trkpt>
      <trkpt lat="44.90109" lon="6.49311">
        <ele>1721.2</ele>
        <time>2024-08-11T13:14:59Z</time>
      </trkpt>
      <trkpt lat="44.90109" lon="6.49311">
        <ele>1721.4</ele>
        <time>2024-08-11T13:15:00Z</time>
      </trkpt>
      <trkpt lat="44.90109" lon="6.49311">
        <ele>1721.4</ele>
        <time>2024-08-11T13:15:01Z</time>
      </trkpt>
      <trkpt lat="44.90109" lon="6.49311">
        <ele>1721.2</ele>
        <time>2024-08-11T13:15:02Z</time>
      </trkpt>
      <trkpt lat="44.90109" lon="6.49311">
        <ele>1721.2</ele>
        <time>2024-08-11T13:15:03Z</time>
      </trkpt>
      <trkpt lat="44.90109" lon="6.49311">
        <ele>1721.2</ele>
        <time>2024-08-11T13:15:04Z</time>
      </trkpt>
      <trkpt lat="44.90109" lon="6.49311">
        <ele>1721.4</ele>
        <time>2024-08-11T13:15:05Z</time>
      </trkpt>
      <trkpt lat="44.90109" lon="6.49311">
        <ele>1721.4</ele>
        <time>2024-08-11T13:15:06Z</time>
      </trkpt>
      <trkpt lat="44.90109" lon="6.49311">
        <ele>1721.4</ele>
        <time>2024-08-11T13:15:07Z</time>
      </trkpt>
      <trkpt lat="44.90109" lon="6.49311">
        <ele>1721.2</ele>
        <time>2024-08-11T13:15:08Z</time>
      </trkpt>
      <trkpt lat="44.90109" lon="6.49311">
        <ele>1721.2</ele>
        <time>2024-08-11T13:15:09Z</time>
      </trkpt>
      <trkpt lat="44.90109" lon="6.49311">
        <ele>1721.2</ele>
        <time>2024-08-11T13:15:10Z</time>
      </trkpt>
      <trkpt lat="44.90109" lon="6.49311">
        <ele>1721.2</ele>
        <time>2024-08-11T13:15:11Z</time>
      </trkpt>
      <trkpt lat="44.90109" lon="6.49311">
        <ele>1721.2</ele>
        <time>2024-08-11T13:15:12Z</time>
      </trkpt>
      <trkpt lat="44.90109" lon="6.49311">
        <ele>1721.2</ele>
        <time>2024-08-11T13:15:13Z</time>
      </trkpt>
      <trkpt lat="44.90109" lon="6.49311">
        <ele>1721</ele>
        <time>2024-08-11T13:15:14Z</time>
      </trkpt>
      <trkpt lat="44.90109" lon="6.49311">
        <ele>1721</ele>
        <time>2024-08-11T13:15:15Z</time>
      </trkpt>
      <trkpt lat="44.90109" lon="6.49311">
        <ele>1721.2</ele>
        <time>2024-08-11T13:15:16Z</time>
      </trkpt>
      <trkpt lat="44.90109" lon="6.49311">
        <ele>1721.4</ele>
        <time>2024-08-11T13:15:17Z</time>
      </trkpt>
      <trkpt lat="44.90109" lon="6.49311">
        <ele>1721.4</ele>
        <time>2024-08-11T13:15:18Z</time>
      </trkpt>
      <trkpt lat="44.90109" lon="6.49311">
        <ele>1721.2</ele>
        <time>2024-08-11T13:15:19Z</time>
      </trkpt>
      <trkpt lat="44.90109" lon="6.49311">
        <ele>1721</ele>
        <time>2024-08-11T13:15:20Z</time>
      </trkpt>
      <trkpt lat="44.90109" lon="6.49311">
        <ele>1721</ele>
        <time>2024-08-11T13:15:21Z</time>
      </trkpt>
      <trkpt lat="44.90109" lon="6.49311">
        <ele>1721</ele>
        <time>2024-08-11T13:15:22Z</time>
      </trkpt>
      <trkpt lat="44.90109" lon="6.49311">
        <ele>1721</ele>
        <time>2024-08-11T13:15:23Z</time>
      </trkpt>
      <trkpt lat="44.90109" lon="6.49311">
        <ele>1721</ele>
        <time>2024-08-11T13:15:24Z</time>
      </trkpt>
      <trkpt lat="44.90109" lon="6.49311">
        <ele>1721</ele>
        <time>2024-08-11T13:15:25Z</time>
      </trkpt>
      <trkpt lat="44.90109" lon="6.49311">
        <ele>1721</ele>
        <time>2024-08-11T13:15:26Z</time>
      </trkpt>
      <trkpt lat="44.90109" lon="6.49311">
        <ele>1721</ele>
        <time>2024-08-11T13:15:27Z</time>
      </trkpt>
      <trkpt lat="44.90109" lon="6.49311">
        <ele>1721</ele>
        <time>2024-08-11T13:15:28Z</time>
      </trkpt>
      <trkpt lat="44.90109" lon="6.49311">
        <ele>1721</ele>
        <time>2024-08-11T13:15:29Z</time>
      </trkpt>
      <trkpt lat="44.90109" lon="6.49311">
        <ele>1721</ele>
        <time>2024-08-11T13:15:30Z</time>
      </trkpt>
      <trkpt lat="44.90109" lon="6.49311">
        <ele>1721.2</ele>
        <time>2024-08-11T13:15:31Z</time>
      </trkpt>
      <trkpt lat="44.90109" lon="6.49311">
        <ele>1721</ele>
        <time>2024-08-11T13:15:32Z</time>
      </trkpt>
      <trkpt lat="44.90109" lon="6.49311">
        <ele>1721</ele>
        <time>2024-08-11T13:15:33Z</time>
      </trkpt>
      <trkpt lat="44.90109" lon="6.49311">
        <ele>1721</ele>
        <time>2024-08-11T13:15:34Z</time>
      </trkpt>
      <trkpt lat="44.90109" lon="6.49311">
        <ele>1721.2</ele>
        <time>2024-08-11T13:15:35Z</time>
      </trkpt>
      <trkpt lat="44.90109" lon="6.49311">
        <ele>1721.2</ele>
        <time>2024-08-11T13:15:36Z</time>
      </trkpt>
      <trkpt lat="44.90109" lon="6.49311">
        <ele>1721</ele>
        <time>2024-08-11T13:15:37Z</time>
      </trkpt>
      <trkpt lat="44.90109" lon="6.49311">
        <ele>1721</ele>
        <time>2024-08-11T13:15:38Z</time>
      </trkpt>
      <trkpt lat="44.90109" lon="6.49311">
        <ele>1721.2</ele>
        <time>2024-08-11T13:15:39Z</time>
      </trkpt>
      <trkpt lat="44.90109" lon="6.49311">
        <ele>1721.4</ele>
        <time>2024-08-11T13:15:40Z</time>
      </trkpt>
      <trkpt lat="44.90109" lon="6.49311">
        <ele>1721.4</ele>
        <time>2024-08-11T13:15:41Z</time>
      </trkpt>
      <trkpt lat="44.90109" lon="6.49311">
        <ele>1721.2</ele>
        <time>2024-08-11T13:15:42Z</time>
      </trkpt>
      <trkpt lat="44.90109" lon="6.49311">
        <ele>1721.2</ele>
        <time>2024-08-11T13:15:43Z</time>
      </trkpt>
      <trkpt lat="44.90109" lon="6.49311">
        <ele>1721.2</ele>
        <time>2024-08-11T13:15:44Z</time>
      </trkpt>
      <trkpt lat="44.90109" lon="6.49311">
        <ele>1721.2</ele>
        <time>2024-08-11T13:15:45Z</time>
      </trkpt>
      <trkpt lat="44.90109" lon="6.49311">
        <ele>1721.4</ele>
        <time>2024-08-11T13:15:46Z</time>
      </trkpt>
      <trkpt lat="44.90109" lon="6.49311">
        <ele>1721.4</ele>
        <time>2024-08-11T13:15:47Z</time>
      </trkpt>
      <trkpt lat="44.90109" lon="6.49311">
        <ele>1721.4</ele>
        <time>2024-08-11T13:15:48Z</time>
      </trkpt>
      <trkpt lat="44.90109" lon="6.49311">
        <ele>1721.4</ele>
        <time>2024-08-11T13:15:49Z</time>
      </trkpt>
      <trkpt lat="44.90109" lon="6.49311">
        <ele>1721.4</ele>
        <time>2024-08-11T13:15:50Z</time>
      </trkpt>
      <trkpt lat="44.90109" lon="6.49311">
        <ele>1721.4</ele>
        <time>2024-08-11T13:15:51Z</time>
      </trkpt>
      <trkpt lat="44.90109" lon="6.49311">
        <ele>1721.4</ele>
        <time>2024-08-11T13:15:52Z</time>
      </trkpt>
      <trkpt lat="44.90109" lon="6.49311">
        <ele>1721.4</ele>
        <time>2024-08-11T13:15:53Z</time>
      </trkpt>
      <trkpt lat="44.90109" lon="6.49311">
        <ele>1721.4</ele>
        <time>2024-08-11T13:15:54Z</time>
      </trkpt>
      <trkpt lat="44.90109" lon="6.49311">
        <ele>1721.4</ele>
        <time>2024-08-11T13:15:55Z</time>
      </trkpt>
      <trkpt lat="44.90109" lon="6.49311">
        <ele>1721.4</ele>
        <time>2024-08-11T13:15:56Z</time>
      </trkpt>
      <trkpt lat="44.90109" lon="6.49311">
        <ele>1721.4</ele>
        <time>2024-08-11T13:15:57Z</time>
      </trkpt>
      <trkpt lat="44.90109" lon="6.49311">
        <ele>1721.4</ele>
        <time>2024-08-11T13:15:58Z</time>
      </trkpt>
      <trkpt lat="44.90109" lon="6.49311">
        <ele>1721.4</ele>
        <time>2024-08-11T13:15:59Z</time>
      </trkpt>
      <trkpt lat="44.90109" lon="6.49311">
        <ele>1721.4</ele>
        <time>2024-08-11T13:16:00Z</time>
      </trkpt>
      <trkpt lat="44.90109" lon="6.49311">
        <ele>1721.2</ele>
        <time>2024-08-11T13:16:01Z</time>
      </trkpt>
      <trkpt lat="44.90109" lon="6.49311">
        <ele>1721.2</ele>
        <time>2024-08-11T13:16:02Z</time>
      </trkpt>
      <trkpt lat="44.90109" lon="6.49311">
        <ele>1721.2</ele>
        <time>2024-08-11T13:16:03Z</time>
      </trkpt>
      <trkpt lat="44.90109" lon="6.49311">
        <ele>1721.4</ele>
        <time>2024-08-11T13:16:04Z</time>
      </trkpt>
      <trkpt lat="44.90109" lon="6.49311">
        <ele>1721.4</ele>
        <time>2024-08-11T13:16:05Z</time>
      </trkpt>
      <trkpt lat="44.90109" lon="6.49311">
        <ele>1721.4</ele>
        <time>2024-08-11T13:16:06Z</time>
      </trkpt>
      <trkpt lat="44.90109" lon="6.49311">
        <ele>1721.4</ele>
        <time>2024-08-11T13:16:07Z</time>
      </trkpt>
      <trkpt lat="44.90109" lon="6.49311">
        <ele>1721.2</ele>
        <time>2024-08-11T13:16:08Z</time>
      </trkpt>
      <trkpt lat="44.90109" lon="6.49311">
        <ele>1721.2</ele>
        <time>2024-08-11T13:16:09Z</time>
      </trkpt>
      <trkpt lat="44.90109" lon="6.49311">
        <ele>1721.2</ele>
        <time>2024-08-11T13:16:10Z</time>
      </trkpt>
      <trkpt lat="44.90109" lon="6.49311">
        <ele>1721.2</ele>
        <time>2024-08-11T13:16:11Z</time>
      </trkpt>
      <trkpt lat="44.90109" lon="6.49311">
        <ele>1721.2</ele>
        <time>2024-08-11T13:16:12Z</time>
      </trkpt>
      <trkpt lat="44.90109" lon="6.49311">
        <ele>1721.2</ele>
        <time>2024-08-11T13:16:13Z</time>
      </trkpt>
      <trkpt lat="44.90109" lon="6.49311">
        <ele>1721</ele>
        <time>2024-08-11T13:16:14Z</time>
      </trkpt>
      <trkpt lat="44.90109" lon="6.49311">
        <ele>1721</ele>
        <time>2024-08-11T13:16:15Z</time>
      </trkpt>
      <trkpt lat="44.90109" lon="6.49311">
        <ele>1721</ele>
        <time>2024-08-11T13:16:16Z</time>
      </trkpt>
      <trkpt lat="44.90109" lon="6.49311">
        <ele>1721</ele>
        <time>2024-08-11T13:16:17Z</time>
      </trkpt>
      <trkpt lat="44.90109" lon="6.49311">
        <ele>1721</ele>
        <time>2024-08-11T13:16:18Z</time>
      </trkpt>
      <trkpt lat="44.90109" lon="6.49311">
        <ele>1721</ele>
        <time>2024-08-11T13:16:19Z</time>
      </trkpt>
      <trkpt lat="44.90109" lon="6.49311">
        <ele>1721</ele>
        <time>2024-08-11T13:16:20Z</time>
      </trkpt>
      <trkpt lat="44.90109" lon="6.49311">
        <ele>1721</ele>
        <time>2024-08-11T13:16:21Z</time>
      </trkpt>
      <trkpt lat="44.90109" lon="6.49311">
        <ele>1721</ele>
        <time>2024-08-11T13:16:22Z</time>
      </trkpt>
      <trkpt lat="44.90109" lon="6.49311">
        <ele>1721</ele>
        <time>2024-08-11T13:16:23Z</time>
      </trkpt>
      <trkpt lat="44.90109" lon="6.49311">
        <ele>1721</ele>
        <time>2024-08-11T13:16:24Z</time>
      </trkpt>
      <trkpt lat="44.90109" lon="6.49311">
        <ele>1721</ele>
        <time>2024-08-11T13:16:25Z</time>
      </trkpt>
      <trkpt lat="44.90109" lon="6.49311">
        <ele>1721</ele>
        <time>2024-08-11T13:16:26Z</time>
      </trkpt>
      <trkpt lat="44.90109" lon="6.49311">
        <ele>1721</ele>
        <time>2024-08-11T13:16:27Z</time>
      </trkpt>
      <trkpt lat="44.90109" lon="6.49311">
        <ele>1721</ele>
        <time>2024-08-11T13:16:28Z</time>
      </trkpt>
      <trkpt lat="44.90109" lon="6.49311">
        <ele>1721.2</ele>
        <time>2024-08-11T13:16:29Z</time>
      </trkpt>
      <trkpt lat="44.90109" lon="6.49311">
        <ele>1721.2</ele>
        <time>2024-08-11T13:16:30Z</time>
      </trkpt>
      <trkpt lat="44.90109" lon="6.49311">
        <ele>1721</ele>
        <time>2024-08-11T13:16:31Z</time>
      </trkpt>
      <trkpt lat="44.90109" lon="6.49311">
        <ele>1721</ele>
        <time>2024-08-11T13:16:32Z</time>
      </trkpt>
      <trkpt lat="44.90109" lon="6.49311">
        <ele>1721</ele>
        <time>2024-08-11T13:16:33Z</time>
      </trkpt>
      <trkpt lat="44.90109" lon="6.49311">
        <ele>1721.2</ele>
        <time>2024-08-11T13:16:34Z</time>
      </trkpt>
      <trkpt lat="44.90109" lon="6.49311">
        <ele>1721.2</ele>
        <time>2024-08-11T13:16:35Z</time>
      </trkpt>
      <trkpt lat="44.90109" lon="6.49311">
        <ele>1721</ele>
        <time>2024-08-11T13:16:36Z</time>
      </trkpt>
      <trkpt lat="44.90109" lon="6.49311">
        <ele>1721</ele>
        <time>2024-08-11T13:16:37Z</time>
      </trkpt>
      <trkpt lat="44.90109" lon="6.49311">
        <ele>1720.8</ele>
        <time>2024-08-11T13:16:38Z</time>
      </trkpt>
      <trkpt lat="44.90109" lon="6.49311">
        <ele>1720.8</ele>
        <time>2024-08-11T13:16:39Z</time>
      </trkpt>
      <trkpt lat="44.90109" lon="6.49311">
        <ele>1720.8</ele>
        <time>2024-08-11T13:16:40Z</time>
      </trkpt>
      <trkpt lat="44.90109" lon="6.49311">
        <ele>1721</ele>
        <time>2024-08-11T13:16:41Z</time>
      </trkpt>
      <trkpt lat="44.90109" lon="6.49311">
        <ele>1721</ele>
        <time>2024-08-11T13:16:42Z</time>
      </trkpt>
      <trkpt lat="44.90109" lon="6.49311">
        <ele>1721.2</ele>
        <time>2024-08-11T13:16:43Z</time>
      </trkpt>
      <trkpt lat="44.90109" lon="6.49311">
        <ele>1721.2</ele>
        <time>2024-08-11T13:16:44Z</time>
      </trkpt>
      <trkpt lat="44.90109" lon="6.49311">
        <ele>1721</ele>
        <time>2024-08-11T13:16:45Z</time>
      </trkpt>
      <trkpt lat="44.90109" lon="6.49311">
        <ele>1721</ele>
        <time>2024-08-11T13:16:46Z</time>
      </trkpt>
      <trkpt lat="44.90109" lon="6.49311">
        <ele>1721</ele>
        <time>2024-08-11T13:16:47Z</time>
      </trkpt>
      <trkpt lat="44.90109" lon="6.49311">
        <ele>1721</ele>
        <time>2024-08-11T13:16:48Z</time>
      </trkpt>
      <trkpt lat="44.90109" lon="6.49311">
        <ele>1721</ele>
        <time>2024-08-11T13:16:49Z</time>
      </trkpt>
      <trkpt lat="44.90109" lon="6.49311">
        <ele>1721</ele>
        <time>2024-08-11T13:16:50Z</time>
      </trkpt>
      <trkpt lat="44.90109" lon="6.49311">
        <ele>1721.2</ele>
        <time>2024-08-11T13:16:51Z</time>
      </trkpt>
      <trkpt lat="44.90109" lon="6.49311">
        <ele>1721.2</ele>
        <time>2024-08-11T13:16:52Z</time>
      </trkpt>
      <trkpt lat="44.90109" lon="6.49311">
        <ele>1721.4</ele>
        <time>2024-08-11T13:16:53Z</time>
      </trkpt>
      <trkpt lat="44.90109" lon="6.49311">
        <ele>1721.4</ele>
        <time>2024-08-11T13:16:54Z</time>
      </trkpt>
      <trkpt lat="44.90109" lon="6.49311">
        <ele>1721.6</ele>
        <time>2024-08-11T13:16:55Z</time>
      </trkpt>
      <trkpt lat="44.90109" lon="6.49311">
        <ele>1721.6</ele>
        <time>2024-08-11T13:16:56Z</time>
      </trkpt>
      <trkpt lat="44.90109" lon="6.49311">
        <ele>1721.2</ele>
        <time>2024-08-11T13:16:57Z</time>
      </trkpt>
      <trkpt lat="44.90109" lon="6.49311">
        <ele>1721.2</ele>
        <time>2024-08-11T13:16:58Z</time>
      </trkpt>
      <trkpt lat="44.90109" lon="6.49311">
        <ele>1721.2</ele>
        <time>2024-08-11T13:16:59Z</time>
      </trkpt>
      <trkpt lat="44.90109" lon="6.49311">
        <ele>1721.4</ele>
        <time>2024-08-11T13:17:00Z</time>
      </trkpt>
      <trkpt lat="44.90109" lon="6.49311">
        <ele>1721.4</ele>
        <time>2024-08-11T13:17:01Z</time>
      </trkpt>
      <trkpt lat="44.90109" lon="6.49311">
        <ele>1721.4</ele>
        <time>2024-08-11T13:17:02Z</time>
      </trkpt>
      <trkpt lat="44.90109" lon="6.49311">
        <ele>1721.4</ele>
        <time>2024-08-11T13:17:03Z</time>
      </trkpt>
      <trkpt lat="44.90109" lon="6.49311">
        <ele>1721.2</ele>
        <time>2024-08-11T13:17:04Z</time>
      </trkpt>
      <trkpt lat="44.90109" lon="6.49311">
        <ele>1721.2</ele>
        <time>2024-08-11T13:17:05Z</time>
      </trkpt>
      <trkpt lat="44.90109" lon="6.49311">
        <ele>1721.2</ele>
        <time>2024-08-11T13:17:06Z</time>
      </trkpt>
      <trkpt lat="44.90109" lon="6.49311">
        <ele>1721.4</ele>
        <time>2024-08-11T13:17:07Z</time>
      </trkpt>
      <trkpt lat="44.90109" lon="6.49311">
        <ele>1721.4</ele>
        <time>2024-08-11T13:17:08Z</time>
      </trkpt>
      <trkpt lat="44.90109" lon="6.49311">
        <ele>1721.4</ele>
        <time>2024-08-11T13:17:09Z</time>
      </trkpt>
      <trkpt lat="44.90109" lon="6.49311">
        <ele>1721.6</ele>
        <time>2024-08-11T13:17:10Z</time>
      </trkpt>
      <trkpt lat="44.90109" lon="6.49311">
        <ele>1721.6</ele>
        <time>2024-08-11T13:17:11Z</time>
      </trkpt>
      <trkpt lat="44.90109" lon="6.49311">
        <ele>1721.4</ele>
        <time>2024-08-11T13:17:12Z</time>
      </trkpt>
      <trkpt lat="44.90109" lon="6.49311">
        <ele>1721.4</ele>
        <time>2024-08-11T13:17:13Z</time>
      </trkpt>
      <trkpt lat="44.90109" lon="6.49311">
        <ele>1721.4</ele>
        <time>2024-08-11T13:17:14Z</time>
      </trkpt>
      <trkpt lat="44.90109" lon="6.49311">
        <ele>1721.4</ele>
        <time>2024-08-11T13:17:15Z</time>
      </trkpt>
      <trkpt lat="44.90109" lon="6.49311">
        <ele>1721.4</ele>
        <time>2024-08-11T13:17:16Z</time>
      </trkpt>
      <trkpt lat="44.90109" lon="6.49311">
        <ele>1721.4</ele>
        <time>2024-08-11T13:17:17Z</time>
      </trkpt>
      <trkpt lat="44.90109" lon="6.49311">
        <ele>1721.4</ele>
        <time>2024-08-11T13:17:18Z</time>
      </trkpt>
      <trkpt lat="44.90109" lon="6.49311">
        <ele>1721.4</ele>
        <time>2024-08-11T13:17:19Z</time>
      </trkpt>
      <trkpt lat="44.90109" lon="6.49311">
        <ele>1721.4</ele>
        <time>2024-08-11T13:17:20Z</time>
      </trkpt>
      <trkpt lat="44.90109" lon="6.49311">
        <ele>1721.4</ele>
        <time>2024-08-11T13:17:21Z</time>
      </trkpt>
      <trkpt lat="44.90109" lon="6.49311">
        <ele>1721.4</ele>
        <time>2024-08-11T13:17:22Z</time>
      </trkpt>
      <trkpt lat="44.90109" lon="6.49311">
        <ele>1721.4</ele>
        <time>2024-08-11T13:17:23Z</time>
      </trkpt>
      <trkpt lat="44.90109" lon="6.49311">
        <ele>1721.6</ele>
        <time>2024-08-11T13:17:24Z</time>
      </trkpt>
      <trkpt lat="44.90109" lon="6.49311">
        <ele>1721.6</ele>
        <time>2024-08-11T13:17:25Z</time>
      </trkpt>
      <trkpt lat="44.90109" lon="6.49311">
        <ele>1721.4</ele>
        <time>2024-08-11T13:17:26Z</time>
      </trkpt>
      <trkpt lat="44.90109" lon="6.49311">
        <ele>1721.2</ele>
        <time>2024-08-11T13:17:27Z</time>
      </trkpt>
      <trkpt lat="44.90109" lon="6.49311">
        <ele>1721.2</ele>
        <time>2024-08-11T13:17:28Z</time>
      </trkpt>
      <trkpt lat="44.90109" lon="6.49311">
        <ele>1721.2</ele>
        <time>2024-08-11T13:17:29Z</time>
      </trkpt>
      <trkpt lat="44.90109" lon="6.49311">
        <ele>1721.2</ele>
        <time>2024-08-11T13:17:30Z</time>
      </trkpt>
      <trkpt lat="44.90109" lon="6.49311">
        <ele>1721.4</ele>
        <time>2024-08-11T13:17:31Z</time>
      </trkpt>
      <trkpt lat="44.90109" lon="6.49311">
        <ele>1721.4</ele>
        <time>2024-08-11T13:17:32Z</time>
      </trkpt>
      <trkpt lat="44.90109" lon="6.49311">
        <ele>1721.4</ele>
        <time>2024-08-11T13:17:33Z</time>
      </trkpt>
      <trkpt lat="44.90109" lon="6.49311">
        <ele>1721.2</ele>
        <time>2024-08-11T13:17:34Z</time>
      </trkpt>
      <trkpt lat="44.90109" lon="6.49311">
        <ele>1721.2</ele>
        <time>2024-08-11T13:17:35Z</time>
      </trkpt>
      <trkpt lat="44.90109" lon="6.49311">
        <ele>1721</ele>
        <time>2024-08-11T13:17:36Z</time>
      </trkpt>
      <trkpt lat="44.90109" lon="6.49311">
        <ele>1721.2</ele>
        <time>2024-08-11T13:17:37Z</time>
      </trkpt>
      <trkpt lat="44.90109" lon="6.49311">
        <ele>1721.2</ele>
        <time>2024-08-11T13:17:38Z</time>
      </trkpt>
      <trkpt lat="44.90109" lon="6.49311">
        <ele>1721.2</ele>
        <time>2024-08-11T13:17:39Z</time>
      </trkpt>
      <trkpt lat="44.90109" lon="6.49311">
        <ele>1721</ele>
        <time>2024-08-11T13:17:40Z</time>
      </trkpt>
      <trkpt lat="44.90109" lon="6.49311">
        <ele>1721</ele>
        <time>2024-08-11T13:17:41Z</time>
      </trkpt>
      <trkpt lat="44.90109" lon="6.49311">
        <ele>1721</ele>
        <time>2024-08-11T13:17:42Z</time>
      </trkpt>
      <trkpt lat="44.90109" lon="6.49311">
        <ele>1721</ele>
        <time>2024-08-11T13:17:43Z</time>
      </trkpt>
      <trkpt lat="44.90109" lon="6.49311">
        <ele>1721.2</ele>
        <time>2024-08-11T13:17:44Z</time>
      </trkpt>
      <trkpt lat="44.90109" lon="6.49311">
        <ele>1721.2</ele>
        <time>2024-08-11T13:17:45Z</time>
      </trkpt>
      <trkpt lat="44.90109" lon="6.49311">
        <ele>1721.2</ele>
        <time>2024-08-11T13:17:46Z</time>
      </trkpt>
      <trkpt lat="44.90109" lon="6.49311">
        <ele>1721.2</ele>
        <time>2024-08-11T13:17:47Z</time>
      </trkpt>
      <trkpt lat="44.90109" lon="6.49311">
        <ele>1721.2</ele>
        <time>2024-08-11T13:17:48Z</time>
      </trkpt>
      <trkpt lat="44.90109" lon="6.49311">
        <ele>1721.4</ele>
        <time>2024-08-11T13:17:49Z</time>
      </trkpt>
      <trkpt lat="44.90109" lon="6.49311">
        <ele>1721.4</ele>
        <time>2024-08-11T13:17:50Z</time>
      </trkpt>
      <trkpt lat="44.90109" lon="6.49311">
        <ele>1721.4</ele>
        <time>2024-08-11T13:17:51Z</time>
      </trkpt>
      <trkpt lat="44.90109" lon="6.49311">
        <ele>1721.4</ele>
        <time>2024-08-11T13:17:52Z</time>
      </trkpt>
      <trkpt lat="44.90109" lon="6.49311">
        <ele>1721.4</ele>
        <time>2024-08-11T13:17:53Z</time>
      </trkpt>
      <trkpt lat="44.90109" lon="6.49311">
        <ele>1721.4</ele>
        <time>2024-08-11T13:17:54Z</time>
      </trkpt>
      <trkpt lat="44.90109" lon="6.49311">
        <ele>1721.4</ele>
        <time>2024-08-11T13:17:55Z</time>
      </trkpt>
      <trkpt lat="44.90109" lon="6.49311">
        <ele>1721.2</ele>
        <time>2024-08-11T13:17:56Z</time>
      </trkpt>
      <trkpt lat="44.90109" lon="6.49311">
        <ele>1721.2</ele>
        <time>2024-08-11T13:17:57Z</time>
      </trkpt>
      <trkpt lat="44.90109" lon="6.49311">
        <ele>1721.4</ele>
        <time>2024-08-11T13:17:58Z</time>
      </trkpt>
      <trkpt lat="44.90109" lon="6.49311">
        <ele>1721.4</ele>
        <time>2024-08-11T13:17:59Z</time>
      </trkpt>
      <trkpt lat="44.90109" lon="6.49311">
        <ele>1721.4</ele>
        <time>2024-08-11T13:18:00Z</time>
      </trkpt>
      <trkpt lat="44.90109" lon="6.49311">
        <ele>1721.2</ele>
        <time>2024-08-11T13:18:01Z</time>
      </trkpt>
      <trkpt lat="44.90109" lon="6.49311">
        <ele>1721.2</ele>
        <time>2024-08-11T13:18:02Z</time>
      </trkpt>
      <trkpt lat="44.90109" lon="6.49311">
        <ele>1721.2</ele>
        <time>2024-08-11T13:18:03Z</time>
      </trkpt>
      <trkpt lat="44.90109" lon="6.49311">
        <ele>1721.2</ele>
        <time>2024-08-11T13:18:04Z</time>
      </trkpt>
      <trkpt lat="44.90109" lon="6.49311">
        <ele>1721.4</ele>
        <time>2024-08-11T13:18:05Z</time>
      </trkpt>
      <trkpt lat="44.90109" lon="6.49311">
        <ele>1721.4</ele>
        <time>2024-08-11T13:18:06Z</time>
      </trkpt>
      <trkpt lat="44.90109" lon="6.49311">
        <ele>1721.4</ele>
        <time>2024-08-11T13:18:07Z</time>
      </trkpt>
      <trkpt lat="44.90109" lon="6.49311">
        <ele>1721.6</ele>
        <time>2024-08-11T13:18:08Z</time>
      </trkpt>
      <trkpt lat="44.90109" lon="6.49311">
        <ele>1721.6</ele>
        <time>2024-08-11T13:18:09Z</time>
      </trkpt>
      <trkpt lat="44.90109" lon="6.49311">
        <ele>1721.6</ele>
        <time>2024-08-11T13:18:10Z</time>
      </trkpt>
      <trkpt lat="44.90109" lon="6.49311">
        <ele>1721.6</ele>
        <time>2024-08-11T13:18:11Z</time>
      </trkpt>
      <trkpt lat="44.90109" lon="6.49311">
        <ele>1721.6</ele>
        <time>2024-08-11T13:18:12Z</time>
      </trkpt>
      <trkpt lat="44.90109" lon="6.49311">
        <ele>1721.4</ele>
        <time>2024-08-11T13:18:13Z</time>
      </trkpt>
      <trkpt lat="44.90109" lon="6.49311">
        <ele>1721.4</ele>
        <time>2024-08-11T13:18:14Z</time>
      </trkpt>
      <trkpt lat="44.90109" lon="6.49311">
        <ele>1721.4</ele>
        <time>2024-08-11T13:18:15Z</time>
      </trkpt>
      <trkpt lat="44.90109" lon="6.49311">
        <ele>1721.2</ele>
        <time>2024-08-11T13:18:16Z</time>
      </trkpt>
      <trkpt lat="44.90109" lon="6.49311">
        <ele>1721.2</ele>
        <time>2024-08-11T13:18:17Z</time>
      </trkpt>
      <trkpt lat="44.90109" lon="6.49311">
        <ele>1721.2</ele>
        <time>2024-08-11T13:18:18Z</time>
      </trkpt>
      <trkpt lat="44.90109" lon="6.49311">
        <ele>1721.4</ele>
        <time>2024-08-11T13:18:19Z</time>
      </trkpt>
      <trkpt lat="44.90109" lon="6.49311">
        <ele>1721.4</ele>
        <time>2024-08-11T13:18:20Z</time>
      </trkpt>
      <trkpt lat="44.90109" lon="6.49311">
        <ele>1721.4</ele>
        <time>2024-08-11T13:18:21Z</time>
      </trkpt>
      <trkpt lat="44.90109" lon="6.49311">
        <ele>1721.6</ele>
        <time>2024-08-11T13:18:22Z</time>
      </trkpt>
      <trkpt lat="44.90109" lon="6.49311">
        <ele>1721.4</ele>
        <time>2024-08-11T13:18:23Z</time>
      </trkpt>
      <trkpt lat="44.90109" lon="6.49311">
        <ele>1721.4</ele>
        <time>2024-08-11T13:18:24Z</time>
      </trkpt>
      <trkpt lat="44.90109" lon="6.49311">
        <ele>1721.4</ele>
        <time>2024-08-11T13:18:25Z</time>
      </trkpt>
      <trkpt lat="44.90109" lon="6.49311">
        <ele>1721.4</ele>
        <time>2024-08-11T13:18:26Z</time>
      </trkpt>
      <trkpt lat="44.90109" lon="6.49311">
        <ele>1721.4</ele>
        <time>2024-08-11T13:18:27Z</time>
      </trkpt>
      <trkpt lat="44.90109" lon="6.49311">
        <ele>1721.4</ele>
        <time>2024-08-11T13:18:28Z</time>
      </trkpt>
      <trkpt lat="44.90109" lon="6.49311">
        <ele>1721.4</ele>
        <time>2024-08-11T13:18:29Z</time>
      </trkpt>
      <trkpt lat="44.90109" lon="6.49311">
        <ele>1721.4</ele>
        <time>2024-08-11T13:18:30Z</time>
      </trkpt>
      <trkpt lat="44.90109" lon="6.49311">
        <ele>1721.4</ele>
        <time>2024-08-11T13:18:31Z</time>
      </trkpt>
      <trkpt lat="44.90109" lon="6.49311">
        <ele>1721.6</ele>
        <time>2024-08-11T13:18:32Z</time>
      </trkpt>
      <trkpt lat="44.90109" lon="6.49311">
        <ele>1721.6</ele>
        <time>2024-08-11T13:18:33Z</time>
      </trkpt>
      <trkpt lat="44.90109" lon="6.49311">
        <ele>1721.6</ele>
        <time>2024-08-11T13:18:34Z</time>
      </trkpt>
      <trkpt lat="44.90109" lon="6.49311">
        <ele>1721.6</ele>
        <time>2024-08-11T13:18:35Z</time>
      </trkpt>
      <trkpt lat="44.90109" lon="6.49311">
        <ele>1721.6</ele>
        <time>2024-08-11T13:18:36Z</time>
      </trkpt>
      <trkpt lat="44.90109" lon="6.49311">
        <ele>1721.6</ele>
        <time>2024-08-11T13:18:37Z</time>
      </trkpt>
      <trkpt lat="44.90109" lon="6.49311">
        <ele>1722</ele>
        <time>2024-08-11T13:18:38Z</time>
      </trkpt>
      <trkpt lat="44.90109" lon="6.49311">
        <ele>1722</ele>
        <time>2024-08-11T13:18:39Z</time>
      </trkpt>
      <trkpt lat="44.90109" lon="6.49311">
        <ele>1722.2</ele>
        <time>2024-08-11T13:18:40Z</time>
      </trkpt>
      <trkpt lat="44.90109" lon="6.49311">
        <ele>1722.2</ele>
        <time>2024-08-11T13:18:41Z</time>
      </trkpt>
      <trkpt lat="44.90109" lon="6.49311">
        <ele>1722.4</ele>
        <time>2024-08-11T13:18:42Z</time>
      </trkpt>
      <trkpt lat="44.90109" lon="6.49311">
        <ele>1722.4</ele>
        <time>2024-08-11T13:18:43Z</time>
      </trkpt>
      <trkpt lat="44.90109" lon="6.49311">
        <ele>1722.4</ele>
        <time>2024-08-11T13:18:44Z</time>
      </trkpt>
      <trkpt lat="44.90109" lon="6.49311">
        <ele>1722.4</ele>
        <time>2024-08-11T13:18:45Z</time>
      </trkpt>
      <trkpt lat="44.90109" lon="6.49311">
        <ele>1722.2</ele>
        <time>2024-08-11T13:18:46Z</time>
      </trkpt>
      <trkpt lat="44.90109" lon="6.49311">
        <ele>1722.2</ele>
        <time>2024-08-11T13:18:47Z</time>
      </trkpt>
      <trkpt lat="44.90109" lon="6.49311">
        <ele>1722.2</ele>
        <time>2024-08-11T13:18:48Z</time>
      </trkpt>
      <trkpt lat="44.90109" lon="6.49311">
        <ele>1722.2</ele>
        <time>2024-08-11T13:18:49Z</time>
      </trkpt>
      <trkpt lat="44.90109" lon="6.49311">
        <ele>1722.4</ele>
        <time>2024-08-11T13:18:50Z</time>
      </trkpt>
      <trkpt lat="44.90109" lon="6.49311">
        <ele>1722.4</ele>
        <time>2024-08-11T13:18:51Z</time>
      </trkpt>
      <trkpt lat="44.90109" lon="6.49311">
        <ele>1722.4</ele>
        <time>2024-08-11T13:18:52Z</time>
      </trkpt>
      <trkpt lat="44.90109" lon="6.49311">
        <ele>1722.4</ele>
        <time>2024-08-11T13:18:53Z</time>
      </trkpt>
      <trkpt lat="44.90109" lon="6.49311">
        <ele>1722.4</ele>
        <time>2024-08-11T13:18:54Z</time>
      </trkpt>
      <trkpt lat="44.90109" lon="6.49311">
        <ele>1722.6</ele>
        <time>2024-08-11T13:18:55Z</time>
      </trkpt>
      <trkpt lat="44.90109" lon="6.49311">
        <ele>1722.6</ele>
        <time>2024-08-11T13:18:56Z</time>
      </trkpt>
      <trkpt lat="44.90109" lon="6.49311">
        <ele>1722.6</ele>
        <time>2024-08-11T13:18:57Z</time>
      </trkpt>
      <trkpt lat="44.90107" lon="6.49309">
        <ele>1722.6</ele>
        <time>2024-08-11T13:18:58Z</time>
      </trkpt>
      <trkpt lat="44.90107" lon="6.49309">
        <ele>1722.6</ele>
        <time>2024-08-11T13:18:59Z</time>
      </trkpt>
      <trkpt lat="44.90106" lon="6.49306">
        <ele>1722.6</ele>
        <time>2024-08-11T13:19:00Z</time>
      </trkpt>
      <trkpt lat="44.90106" lon="6.49306">
        <ele>1722.2</ele>
        <time>2024-08-11T13:19:01Z</time>
      </trkpt>
      <trkpt lat="44.90105" lon="6.49302">
        <ele>1722.4</ele>
        <time>2024-08-11T13:19:02Z</time>
      </trkpt>
      <trkpt lat="44.90105" lon="6.49302">
        <ele>1722.4</ele>
        <time>2024-08-11T13:19:03Z</time>
      </trkpt>
      <trkpt lat="44.90104" lon="6.49298">
        <ele>1722.4</ele>
        <time>2024-08-11T13:19:04Z</time>
      </trkpt>
      <trkpt lat="44.90104" lon="6.49298">
        <ele>1722.4</ele>
        <time>2024-08-11T13:19:05Z</time>
      </trkpt>
      <trkpt lat="44.90102" lon="6.49295">
        <ele>1722.4</ele>
        <time>2024-08-11T13:19:06Z</time>
      </trkpt>
      <trkpt lat="44.90102" lon="6.49295">
        <ele>1722.4</ele>
        <time>2024-08-11T13:19:07Z</time>
      </trkpt>
      <trkpt lat="44.901" lon="6.49293">
        <ele>1722.4</ele>
        <time>2024-08-11T13:19:08Z</time>
      </trkpt>
      <trkpt lat="44.901" lon="6.49293">
        <ele>1722.4</ele>
        <time>2024-08-11T13:19:09Z</time>
      </trkpt>
      <trkpt lat="44.90097" lon="6.49291">
        <ele>1722.4</ele>
        <time>2024-08-11T13:19:10Z</time>
      </trkpt>
      <trkpt lat="44.90097" lon="6.49291">
        <ele>1722.2</ele>
        <time>2024-08-11T13:19:11Z</time>
      </trkpt>
      <trkpt lat="44.90096" lon="6.49289">
        <ele>1722</ele>
        <time>2024-08-11T13:19:12Z</time>
      </trkpt>
      <trkpt lat="44.90096" lon="6.49289">
        <ele>1722</ele>
        <time>2024-08-11T13:19:13Z</time>
      </trkpt>
      <trkpt lat="44.90094" lon="6.49288">
        <ele>1721.8</ele>
        <time>2024-08-11T13:19:14Z</time>
      </trkpt>
      <trkpt lat="44.90094" lon="6.49288">
        <ele>1721.8</ele>
        <time>2024-08-11T13:19:15Z</time>
      </trkpt>
      <trkpt lat="44.90091" lon="6.49287">
        <ele>1721.8</ele>
        <time>2024-08-11T13:19:16Z</time>
      </trkpt>
      <trkpt lat="44.90091" lon="6.49287">
        <ele>1721.8</ele>
        <time>2024-08-11T13:19:17Z</time>
      </trkpt>
      <trkpt lat="44.90089" lon="6.49286">
        <ele>1722</ele>
        <time>2024-08-11T13:19:18Z</time>
      </trkpt>
      <trkpt lat="44.90089" lon="6.49286">
        <ele>1722</ele>
        <time>2024-08-11T13:19:19Z</time>
      </trkpt>
      <trkpt lat="44.90086" lon="6.49286">
        <ele>1722</ele>
        <time>2024-08-11T13:19:20Z</time>
      </trkpt>
      <trkpt lat="44.90086" lon="6.49286">
        <ele>1722</ele>
        <time>2024-08-11T13:19:21Z</time>
      </trkpt>
      <trkpt lat="44.90084" lon="6.49285">
        <ele>1722</ele>
        <time>2024-08-11T13:19:22Z</time>
      </trkpt>
      <trkpt lat="44.90084" lon="6.49285">
        <ele>1722</ele>
        <time>2024-08-11T13:19:23Z</time>
      </trkpt>
      <trkpt lat="44.90081" lon="6.49284">
        <ele>1722</ele>
        <time>2024-08-11T13:19:24Z</time>
      </trkpt>
      <trkpt lat="44.90081" lon="6.49284">
        <ele>1722</ele>
        <time>2024-08-11T13:19:25Z</time>
      </trkpt>
      <trkpt lat="44.90079" lon="6.49283">
        <ele>1722</ele>
        <time>2024-08-11T13:19:26Z</time>
      </trkpt>
      <trkpt lat="44.90079" lon="6.49283">
        <ele>1721.8</ele>
        <time>2024-08-11T13:19:27Z</time>
      </trkpt>
      <trkpt lat="44.90076" lon="6.49283">
        <ele>1721.8</ele>
        <time>2024-08-11T13:19:28Z</time>
      </trkpt>
      <trkpt lat="44.90076" lon="6.49283">
        <ele>1721.8</ele>
        <time>2024-08-11T13:19:29Z</time>
      </trkpt>
      <trkpt lat="44.90073" lon="6.49282">
        <ele>1721.8</ele>
        <time>2024-08-11T13:19:30Z</time>
      </trkpt>
      <trkpt lat="44.90073" lon="6.49282">
        <ele>1721.8</ele>
        <time>2024-08-11T13:19:31Z</time>
      </trkpt>
      <trkpt lat="44.9007" lon="6.49281">
        <ele>1722</ele>
        <time>2024-08-11T13:19:32Z</time>
      </trkpt>
      <trkpt lat="44.9007" lon="6.49281">
        <ele>1722</ele>
        <time>2024-08-11T13:19:33Z</time>
      </trkpt>
      <trkpt lat="44.90067" lon="6.49282">
        <ele>1722</ele>
        <time>2024-08-11T13:19:34Z</time>
      </trkpt>
      <trkpt lat="44.90065" lon="6.49282">
        <ele>1722</ele>
        <time>2024-08-11T13:19:35Z</time>
      </trkpt>
      <trkpt lat="44.90063" lon="6.49282">
        <ele>1721.8</ele>
        <time>2024-08-11T13:19:36Z</time>
      </trkpt>
      <trkpt lat="44.90063" lon="6.49282">
        <ele>1721.8</ele>
        <time>2024-08-11T13:19:37Z</time>
      </trkpt>
      <trkpt lat="44.9006" lon="6.49282">
        <ele>1721.8</ele>
        <time>2024-08-11T13:19:38Z</time>
      </trkpt>
      <trkpt lat="44.9006" lon="6.49282">
        <ele>1721.8</ele>
        <time>2024-08-11T13:19:39Z</time>
      </trkpt>
      <trkpt lat="44.90057" lon="6.49282">
        <ele>1722</ele>
        <time>2024-08-11T13:19:40Z</time>
      </trkpt>
      <trkpt lat="44.90057" lon="6.49282">
        <ele>1722</ele>
        <time>2024-08-11T13:19:41Z</time>
      </trkpt>
      <trkpt lat="44.90054" lon="6.49282">
        <ele>1722.2</ele>
        <time>2024-08-11T13:19:42Z</time>
      </trkpt>
      <trkpt lat="44.90054" lon="6.49282">
        <ele>1722.2</ele>
        <time>2024-08-11T13:19:43Z</time>
      </trkpt>
      <trkpt lat="44.90051" lon="6.49282">
        <ele>1722.2</ele>
        <time>2024-08-11T13:19:44Z</time>
      </trkpt>
      <trkpt lat="44.90051" lon="6.49282">
        <ele>1722</ele>
        <time>2024-08-11T13:19:45Z</time>
      </trkpt>
      <trkpt lat="44.90049" lon="6.49282">
        <ele>1722</ele>
        <time>2024-08-11T13:19:46Z</time>
      </trkpt>
      <trkpt lat="44.90049" lon="6.49282">
        <ele>1722</ele>
        <time>2024-08-11T13:19:47Z</time>
      </trkpt>
      <trkpt lat="44.90046" lon="6.49282">
        <ele>1722</ele>
        <time>2024-08-11T13:19:48Z</time>
      </trkpt>
      <trkpt lat="44.90046" lon="6.49282">
        <ele>1722</ele>
        <time>2024-08-11T13:19:49Z</time>
      </trkpt>
      <trkpt lat="44.90043" lon="6.49282">
        <ele>1722</ele>
        <time>2024-08-11T13:19:50Z</time>
      </trkpt>
      <trkpt lat="44.90043" lon="6.49282">
        <ele>1722</ele>
        <time>2024-08-11T13:19:51Z</time>
      </trkpt>
      <trkpt lat="44.90041" lon="6.49282">
        <ele>1721.8</ele>
        <time>2024-08-11T13:19:52Z</time>
      </trkpt>
      <trkpt lat="44.90041" lon="6.49282">
        <ele>1721.8</ele>
        <time>2024-08-11T13:19:53Z</time>
      </trkpt>
      <trkpt lat="44.90037" lon="6.49282">
        <ele>1721.8</ele>
        <time>2024-08-11T13:19:54Z</time>
      </trkpt>
      <trkpt lat="44.90037" lon="6.49282">
        <ele>1721.8</ele>
        <time>2024-08-11T13:19:55Z</time>
      </trkpt>
      <trkpt lat="44.90037" lon="6.49282">
        <ele>1721.8</ele>
        <time>2024-08-11T13:19:56Z</time>
      </trkpt>
      <trkpt lat="44.90035" lon="6.49282">
        <ele>1721.6</ele>
        <time>2024-08-11T13:19:57Z</time>
      </trkpt>
      <trkpt lat="44.90035" lon="6.49282">
        <ele>1721.6</ele>
        <time>2024-08-11T13:19:58Z</time>
      </trkpt>
      <trkpt lat="44.90032" lon="6.49282">
        <ele>1721.6</ele>
        <time>2024-08-11T13:19:59Z</time>
      </trkpt>
      <trkpt lat="44.90029" lon="6.49281">
        <ele>1721.6</ele>
        <time>2024-08-11T13:20:01Z</time>
      </trkpt>
      <trkpt lat="44.90029" lon="6.49281">
        <ele>1721.8</ele>
        <time>2024-08-11T13:20:02Z</time>
      </trkpt>
      <trkpt lat="44.90026" lon="6.4928">
        <ele>1721.8</ele>
        <time>2024-08-11T13:20:03Z</time>
      </trkpt>
      <trkpt lat="44.90026" lon="6.4928">
        <ele>1721.6</ele>
        <time>2024-08-11T13:20:04Z</time>
      </trkpt>
      <trkpt lat="44.90024" lon="6.49279">
        <ele>1721.4</ele>
        <time>2024-08-11T13:20:05Z</time>
      </trkpt>
      <trkpt lat="44.90024" lon="6.49279">
        <ele>1721.2</ele>
        <time>2024-08-11T13:20:06Z</time>
      </trkpt>
      <trkpt lat="44.90021" lon="6.49278">
        <ele>1721.2</ele>
        <time>2024-08-11T13:20:07Z</time>
      </trkpt>
      <trkpt lat="44.90021" lon="6.49278">
        <ele>1721.2</ele>
        <time>2024-08-11T13:20:08Z</time>
      </trkpt>
      <trkpt lat="44.90019" lon="6.49277">
        <ele>1721.2</ele>
        <time>2024-08-11T13:20:09Z</time>
      </trkpt>
      <trkpt lat="44.90019" lon="6.49277">
        <ele>1721.2</ele>
        <time>2024-08-11T13:20:10Z</time>
      </trkpt>
      <trkpt lat="44.90016" lon="6.49276">
        <ele>1721.2</ele>
        <time>2024-08-11T13:20:11Z</time>
      </trkpt>
      <trkpt lat="44.90016" lon="6.49276">
        <ele>1721.2</ele>
        <time>2024-08-11T13:20:12Z</time>
      </trkpt>
      <trkpt lat="44.90013" lon="6.49275">
        <ele>1721.2</ele>
        <time>2024-08-11T13:20:13Z</time>
      </trkpt>
      <trkpt lat="44.90013" lon="6.49275">
        <ele>1721</ele>
        <time>2024-08-11T13:20:14Z</time>
      </trkpt>
      <trkpt lat="44.90011" lon="6.49274">
        <ele>1721</ele>
        <time>2024-08-11T13:20:15Z</time>
      </trkpt>
      <trkpt lat="44.90011" lon="6.49274">
        <ele>1721.2</ele>
        <time>2024-08-11T13:20:16Z</time>
      </trkpt>
      <trkpt lat="44.90008" lon="6.49273">
        <ele>1721.4</ele>
        <time>2024-08-11T13:20:17Z</time>
      </trkpt>
      <trkpt lat="44.90008" lon="6.49273">
        <ele>1721.4</ele>
        <time>2024-08-11T13:20:18Z</time>
      </trkpt>
      <trkpt lat="44.90005" lon="6.49271">
        <ele>1721.4</ele>
        <time>2024-08-11T13:20:19Z</time>
      </trkpt>
      <trkpt lat="44.90005" lon="6.49271">
        <ele>1721.2</ele>
        <time>2024-08-11T13:20:20Z</time>
      </trkpt>
      <trkpt lat="44.90003" lon="6.4927">
        <ele>1721</ele>
        <time>2024-08-11T13:20:21Z</time>
      </trkpt>
      <trkpt lat="44.90003" lon="6.4927">
        <ele>1721</ele>
        <time>2024-08-11T13:20:22Z</time>
      </trkpt>
      <trkpt lat="44.90001" lon="6.49269">
        <ele>1721.2</ele>
        <time>2024-08-11T13:20:23Z</time>
      </trkpt>
      <trkpt lat="44.90001" lon="6.49269">
        <ele>1721.2</ele>
        <time>2024-08-11T13:20:24Z</time>
      </trkpt>
      <trkpt lat="44.89999" lon="6.49268">
        <ele>1721</ele>
        <time>2024-08-11T13:20:25Z</time>
      </trkpt>
      <trkpt lat="44.89999" lon="6.49268">
        <ele>1721</ele>
        <time>2024-08-11T13:20:26Z</time>
      </trkpt>
      <trkpt lat="44.89997" lon="6.49267">
        <ele>1720.8</ele>
        <time>2024-08-11T13:20:27Z</time>
      </trkpt>
      <trkpt lat="44.89997" lon="6.49267">
        <ele>1720.8</ele>
        <time>2024-08-11T13:20:28Z</time>
      </trkpt>
      <trkpt lat="44.89994" lon="6.49266">
        <ele>1720.6</ele>
        <time>2024-08-11T13:20:29Z</time>
      </trkpt>
      <trkpt lat="44.89994" lon="6.49266">
        <ele>1720.6</ele>
        <time>2024-08-11T13:20:30Z</time>
      </trkpt>
      <trkpt lat="44.89991" lon="6.49265">
        <ele>1720.4</ele>
        <time>2024-08-11T13:20:31Z</time>
      </trkpt>
      <trkpt lat="44.89991" lon="6.49265">
        <ele>1720.4</ele>
        <time>2024-08-11T13:20:32Z</time>
      </trkpt>
      <trkpt lat="44.89989" lon="6.49264">
        <ele>1720.4</ele>
        <time>2024-08-11T13:20:33Z</time>
      </trkpt>
      <trkpt lat="44.89989" lon="6.49264">
        <ele>1720.4</ele>
        <time>2024-08-11T13:20:34Z</time>
      </trkpt>
      <trkpt lat="44.89986" lon="6.49263">
        <ele>1720.4</ele>
        <time>2024-08-11T13:20:35Z</time>
      </trkpt>
      <trkpt lat="44.89986" lon="6.49263">
        <ele>1720.4</ele>
        <time>2024-08-11T13:20:36Z</time>
      </trkpt>
      <trkpt lat="44.89983" lon="6.49262">
        <ele>1720.4</ele>
        <time>2024-08-11T13:20:37Z</time>
      </trkpt>
      <trkpt lat="44.89983" lon="6.49262">
        <ele>1720.4</ele>
        <time>2024-08-11T13:20:38Z</time>
      </trkpt>
      <trkpt lat="44.89981" lon="6.49261">
        <ele>1720.4</ele>
        <time>2024-08-11T13:20:39Z</time>
      </trkpt>
      <trkpt lat="44.89981" lon="6.49261">
        <ele>1720.4</ele>
        <time>2024-08-11T13:20:40Z</time>
      </trkpt>
      <trkpt lat="44.89978" lon="6.4926">
        <ele>1720.4</ele>
        <time>2024-08-11T13:20:41Z</time>
      </trkpt>
      <trkpt lat="44.89978" lon="6.4926">
        <ele>1720.4</ele>
        <time>2024-08-11T13:20:42Z</time>
      </trkpt>
      <trkpt lat="44.89975" lon="6.49258">
        <ele>1720.4</ele>
        <time>2024-08-11T13:20:43Z</time>
      </trkpt>
      <trkpt lat="44.89975" lon="6.49258">
        <ele>1720.4</ele>
        <time>2024-08-11T13:20:44Z</time>
      </trkpt>
      <trkpt lat="44.89973" lon="6.49257">
        <ele>1720.4</ele>
        <time>2024-08-11T13:20:45Z</time>
      </trkpt>
      <trkpt lat="44.89973" lon="6.49257">
        <ele>1720.4</ele>
        <time>2024-08-11T13:20:46Z</time>
      </trkpt>
      <trkpt lat="44.89971" lon="6.49255">
        <ele>1720.6</ele>
        <time>2024-08-11T13:20:47Z</time>
      </trkpt>
      <trkpt lat="44.89971" lon="6.49255">
        <ele>1720.6</ele>
        <time>2024-08-11T13:20:48Z</time>
      </trkpt>
      <trkpt lat="44.89969" lon="6.49252">
        <ele>1720.6</ele>
        <time>2024-08-11T13:20:49Z</time>
      </trkpt>
      <trkpt lat="44.89969" lon="6.49252">
        <ele>1720.4</ele>
        <time>2024-08-11T13:20:50Z</time>
      </trkpt>
      <trkpt lat="44.89966" lon="6.49249">
        <ele>1720.4</ele>
        <time>2024-08-11T13:20:51Z</time>
      </trkpt>
      <trkpt lat="44.89966" lon="6.49249">
        <ele>1720.4</ele>
        <time>2024-08-11T13:20:52Z</time>
      </trkpt>
      <trkpt lat="44.89965" lon="6.49247">
        <ele>1720.4</ele>
        <time>2024-08-11T13:20:53Z</time>
      </trkpt>
      <trkpt lat="44.89965" lon="6.49247">
        <ele>1720.4</ele>
        <time>2024-08-11T13:20:54Z</time>
      </trkpt>
      <trkpt lat="44.89963" lon="6.49244">
        <ele>1720.4</ele>
        <time>2024-08-11T13:20:55Z</time>
      </trkpt>
      <trkpt lat="44.89963" lon="6.49244">
        <ele>1720.2</ele>
        <time>2024-08-11T13:20:56Z</time>
      </trkpt>
      <trkpt lat="44.89961" lon="6.49241">
        <ele>1720.2</ele>
        <time>2024-08-11T13:20:57Z</time>
      </trkpt>
      <trkpt lat="44.89961" lon="6.49241">
        <ele>1720.2</ele>
        <time>2024-08-11T13:20:58Z</time>
      </trkpt>
      <trkpt lat="44.89959" lon="6.49239">
        <ele>1720.2</ele>
        <time>2024-08-11T13:20:59Z</time>
      </trkpt>
      <trkpt lat="44.89959" lon="6.49239">
        <ele>1720.2</ele>
        <time>2024-08-11T13:21:00Z</time>
      </trkpt>
      <trkpt lat="44.89956" lon="6.49237">
        <ele>1720</ele>
        <time>2024-08-11T13:21:01Z</time>
      </trkpt>
      <trkpt lat="44.89956" lon="6.49237">
        <ele>1720</ele>
        <time>2024-08-11T13:21:02Z</time>
      </trkpt>
      <trkpt lat="44.89953" lon="6.49235">
        <ele>1720</ele>
        <time>2024-08-11T13:21:03Z</time>
      </trkpt>
      <trkpt lat="44.89953" lon="6.49235">
        <ele>1720.2</ele>
        <time>2024-08-11T13:21:04Z</time>
      </trkpt>
      <trkpt lat="44.89951" lon="6.49233">
        <ele>1720.2</ele>
        <time>2024-08-11T13:21:05Z</time>
      </trkpt>
      <trkpt lat="44.89951" lon="6.49233">
        <ele>1720</ele>
        <time>2024-08-11T13:21:06Z</time>
      </trkpt>
      <trkpt lat="44.89948" lon="6.4923">
        <ele>1720</ele>
        <time>2024-08-11T13:21:07Z</time>
      </trkpt>
      <trkpt lat="44.89948" lon="6.4923">
        <ele>1720</ele>
        <time>2024-08-11T13:21:08Z</time>
      </trkpt>
      <trkpt lat="44.89946" lon="6.49228">
        <ele>1720</ele>
        <time>2024-08-11T13:21:09Z</time>
      </trkpt>
      <trkpt lat="44.89946" lon="6.49228">
        <ele>1720</ele>
        <time>2024-08-11T13:21:10Z</time>
      </trkpt>
      <trkpt lat="44.89944" lon="6.49227">
        <ele>1720</ele>
        <time>2024-08-11T13:21:11Z</time>
      </trkpt>
      <trkpt lat="44.89944" lon="6.49227">
        <ele>1720</ele>
        <time>2024-08-11T13:21:12Z</time>
      </trkpt>
      <trkpt lat="44.89941" lon="6.49226">
        <ele>1720</ele>
        <time>2024-08-11T13:21:13Z</time>
      </trkpt>
      <trkpt lat="44.89941" lon="6.49226">
        <ele>1720.2</ele>
        <time>2024-08-11T13:21:14Z</time>
      </trkpt>
      <trkpt lat="44.89939" lon="6.49225">
        <ele>1720.2</ele>
        <time>2024-08-11T13:21:15Z</time>
      </trkpt>
      <trkpt lat="44.89939" lon="6.49225">
        <ele>1720</ele>
        <time>2024-08-11T13:21:16Z</time>
      </trkpt>
      <trkpt lat="44.89936" lon="6.49223">
        <ele>1720</ele>
        <time>2024-08-11T13:21:17Z</time>
      </trkpt>
      <trkpt lat="44.89936" lon="6.49223">
        <ele>1720</ele>
        <time>2024-08-11T13:21:18Z</time>
      </trkpt>
      <trkpt lat="44.89934" lon="6.49221">
        <ele>1720</ele>
        <time>2024-08-11T13:21:19Z</time>
      </trkpt>
      <trkpt lat="44.89934" lon="6.49221">
        <ele>1720</ele>
        <time>2024-08-11T13:21:20Z</time>
      </trkpt>
      <trkpt lat="44.89932" lon="6.4922">
        <ele>1720.2</ele>
        <time>2024-08-11T13:21:21Z</time>
      </trkpt>
      <trkpt lat="44.89932" lon="6.4922">
        <ele>1720.2</ele>
        <time>2024-08-11T13:21:22Z</time>
      </trkpt>
      <trkpt lat="44.89929" lon="6.4922">
        <ele>1720.2</ele>
        <time>2024-08-11T13:21:23Z</time>
      </trkpt>
      <trkpt lat="44.89929" lon="6.4922">
        <ele>1720</ele>
        <time>2024-08-11T13:21:24Z</time>
      </trkpt>
      <trkpt lat="44.89927" lon="6.49219">
        <ele>1720</ele>
        <time>2024-08-11T13:21:25Z</time>
      </trkpt>
      <trkpt lat="44.89927" lon="6.49219">
        <ele>1720</ele>
        <time>2024-08-11T13:21:26Z</time>
      </trkpt>
      <trkpt lat="44.89925" lon="6.49218">
        <ele>1720</ele>
        <time>2024-08-11T13:21:27Z</time>
      </trkpt>
      <trkpt lat="44.89925" lon="6.49218">
        <ele>1720</ele>
        <time>2024-08-11T13:21:28Z</time>
      </trkpt>
      <trkpt lat="44.89923" lon="6.49218">
        <ele>1720</ele>
        <time>2024-08-11T13:21:29Z</time>
      </trkpt>
      <trkpt lat="44.89923" lon="6.49218">
        <ele>1719.8</ele>
        <time>2024-08-11T13:21:30Z</time>
      </trkpt>
      <trkpt lat="44.8992" lon="6.49218">
        <ele>1719.8</ele>
        <time>2024-08-11T13:21:31Z</time>
      </trkpt>
      <trkpt lat="44.8992" lon="6.49218">
        <ele>1719.6</ele>
        <time>2024-08-11T13:21:32Z</time>
      </trkpt>
      <trkpt lat="44.89917" lon="6.49218">
        <ele>1719.6</ele>
        <time>2024-08-11T13:21:33Z</time>
      </trkpt>
      <trkpt lat="44.89917" lon="6.49218">
        <ele>1719.6</ele>
        <time>2024-08-11T13:21:34Z</time>
      </trkpt>
      <trkpt lat="44.89913" lon="6.49218">
        <ele>1719.6</ele>
        <time>2024-08-11T13:21:35Z</time>
      </trkpt>
      <trkpt lat="44.89913" lon="6.49218">
        <ele>1719.6</ele>
        <time>2024-08-11T13:21:36Z</time>
      </trkpt>
      <trkpt lat="44.8991" lon="6.49217">
        <ele>1719.6</ele>
        <time>2024-08-11T13:21:37Z</time>
      </trkpt>
      <trkpt lat="44.8991" lon="6.49217">
        <ele>1719.6</ele>
        <time>2024-08-11T13:21:38Z</time>
      </trkpt>
      <trkpt lat="44.89907" lon="6.49217">
        <ele>1719.6</ele>
        <time>2024-08-11T13:21:39Z</time>
      </trkpt>
      <trkpt lat="44.89907" lon="6.49217">
        <ele>1719.6</ele>
        <time>2024-08-11T13:21:40Z</time>
      </trkpt>
      <trkpt lat="44.89904" lon="6.49216">
        <ele>1719.8</ele>
        <time>2024-08-11T13:21:41Z</time>
      </trkpt>
      <trkpt lat="44.89904" lon="6.49216">
        <ele>1719.8</ele>
        <time>2024-08-11T13:21:42Z</time>
      </trkpt>
      <trkpt lat="44.89901" lon="6.49215">
        <ele>1719.4</ele>
        <time>2024-08-11T13:21:43Z</time>
      </trkpt>
      <trkpt lat="44.89901" lon="6.49215">
        <ele>1719.4</ele>
        <time>2024-08-11T13:21:44Z</time>
      </trkpt>
      <trkpt lat="44.89899" lon="6.49214">
        <ele>1719.4</ele>
        <time>2024-08-11T13:21:45Z</time>
      </trkpt>
      <trkpt lat="44.89899" lon="6.49214">
        <ele>1719.4</ele>
        <time>2024-08-11T13:21:46Z</time>
      </trkpt>
      <trkpt lat="44.89897" lon="6.49214">
        <ele>1719.4</ele>
        <time>2024-08-11T13:21:47Z</time>
      </trkpt>
      <trkpt lat="44.89897" lon="6.49214">
        <ele>1719.4</ele>
        <time>2024-08-11T13:21:48Z</time>
      </trkpt>
      <trkpt lat="44.89894" lon="6.49213">
        <ele>1719.4</ele>
        <time>2024-08-11T13:21:49Z</time>
      </trkpt>
      <trkpt lat="44.89894" lon="6.49213">
        <ele>1719.4</ele>
        <time>2024-08-11T13:21:50Z</time>
      </trkpt>
      <trkpt lat="44.89892" lon="6.49213">
        <ele>1719.4</ele>
        <time>2024-08-11T13:21:51Z</time>
      </trkpt>
      <trkpt lat="44.89892" lon="6.49213">
        <ele>1719.4</ele>
        <time>2024-08-11T13:21:52Z</time>
      </trkpt>
      <trkpt lat="44.8989" lon="6.49212">
        <ele>1719.2</ele>
        <time>2024-08-11T13:21:53Z</time>
      </trkpt>
      <trkpt lat="44.8989" lon="6.49212">
        <ele>1719</ele>
        <time>2024-08-11T13:21:54Z</time>
      </trkpt>
      <trkpt lat="44.89886" lon="6.49212">
        <ele>1719</ele>
        <time>2024-08-11T13:21:55Z</time>
      </trkpt>
      <trkpt lat="44.89886" lon="6.49212">
        <ele>1719.2</ele>
        <time>2024-08-11T13:21:56Z</time>
      </trkpt>
      <trkpt lat="44.89884" lon="6.49212">
        <ele>1719</ele>
        <time>2024-08-11T13:21:57Z</time>
      </trkpt>
      <trkpt lat="44.89884" lon="6.49212">
        <ele>1719</ele>
        <time>2024-08-11T13:21:58Z</time>
      </trkpt>
      <trkpt lat="44.89882" lon="6.49211">
        <ele>1718.8</ele>
        <time>2024-08-11T13:21:59Z</time>
      </trkpt>
      <trkpt lat="44.89882" lon="6.49211">
        <ele>1718.6</ele>
        <time>2024-08-11T13:22:00Z</time>
      </trkpt>
      <trkpt lat="44.89879" lon="6.4921">
        <ele>1718.6</ele>
        <time>2024-08-11T13:22:01Z</time>
      </trkpt>
      <trkpt lat="44.89877" lon="6.4921">
        <ele>1718.6</ele>
        <time>2024-08-11T13:22:02Z</time>
      </trkpt>
      <trkpt lat="44.89877" lon="6.4921">
        <ele>1718.6</ele>
        <time>2024-08-11T13:22:03Z</time>
      </trkpt>
      <trkpt lat="44.89874" lon="6.4921">
        <ele>1718.6</ele>
        <time>2024-08-11T13:22:04Z</time>
      </trkpt>
      <trkpt lat="44.89874" lon="6.4921">
        <ele>1718.6</ele>
        <time>2024-08-11T13:22:05Z</time>
      </trkpt>
      <trkpt lat="44.8987" lon="6.4921">
        <ele>1718.6</ele>
        <time>2024-08-11T13:22:06Z</time>
      </trkpt>
      <trkpt lat="44.8987" lon="6.4921">
        <ele>1718.6</ele>
        <time>2024-08-11T13:22:07Z</time>
      </trkpt>
      <trkpt lat="44.89867" lon="6.49209">
        <ele>1718.8</ele>
        <time>2024-08-11T13:22:08Z</time>
      </trkpt>
      <trkpt lat="44.89867" lon="6.49209">
        <ele>1718.8</ele>
        <time>2024-08-11T13:22:09Z</time>
      </trkpt>
      <trkpt lat="44.89864" lon="6.49208">
        <ele>1718.8</ele>
        <time>2024-08-11T13:22:10Z</time>
      </trkpt>
      <trkpt lat="44.89864" lon="6.49208">
        <ele>1718.8</ele>
        <time>2024-08-11T13:22:11Z</time>
      </trkpt>
      <trkpt lat="44.89861" lon="6.49208">
        <ele>1718.8</ele>
        <time>2024-08-11T13:22:12Z</time>
      </trkpt>
      <trkpt lat="44.89861" lon="6.49208">
        <ele>1718.8</ele>
        <time>2024-08-11T13:22:13Z</time>
      </trkpt>
      <trkpt lat="44.89858" lon="6.49208">
        <ele>1718.4</ele>
        <time>2024-08-11T13:22:14Z</time>
      </trkpt>
      <trkpt lat="44.89855" lon="6.49207">
        <ele>1718.4</ele>
        <time>2024-08-11T13:22:15Z</time>
      </trkpt>
      <trkpt lat="44.89855" lon="6.49207">
        <ele>1718.4</ele>
        <time>2024-08-11T13:22:16Z</time>
      </trkpt>
      <trkpt lat="44.89852" lon="6.49207">
        <ele>1718.2</ele>
        <time>2024-08-11T13:22:17Z</time>
      </trkpt>
      <trkpt lat="44.89852" lon="6.49207">
        <ele>1718.2</ele>
        <time>2024-08-11T13:22:18Z</time>
      </trkpt>
      <trkpt lat="44.8985" lon="6.49207">
        <ele>1718.4</ele>
        <time>2024-08-11T13:22:19Z</time>
      </trkpt>
      <trkpt lat="44.8985" lon="6.49207">
        <ele>1718.4</ele>
        <time>2024-08-11T13:22:20Z</time>
      </trkpt>
      <trkpt lat="44.89847" lon="6.49206">
        <ele>1718.4</ele>
        <time>2024-08-11T13:22:21Z</time>
      </trkpt>
      <trkpt lat="44.89847" lon="6.49206">
        <ele>1718.4</ele>
        <time>2024-08-11T13:22:22Z</time>
      </trkpt>
      <trkpt lat="44.89845" lon="6.49206">
        <ele>1718.2</ele>
        <time>2024-08-11T13:22:23Z</time>
      </trkpt>
      <trkpt lat="44.89845" lon="6.49206">
        <ele>1718.2</ele>
        <time>2024-08-11T13:22:24Z</time>
      </trkpt>
      <trkpt lat="44.89843" lon="6.49207">
        <ele>1718.2</ele>
        <time>2024-08-11T13:22:25Z</time>
      </trkpt>
      <trkpt lat="44.89843" lon="6.49207">
        <ele>1718.2</ele>
        <time>2024-08-11T13:22:26Z</time>
      </trkpt>
      <trkpt lat="44.8984" lon="6.49207">
        <ele>1718.2</ele>
        <time>2024-08-11T13:22:27Z</time>
      </trkpt>
      <trkpt lat="44.8984" lon="6.49207">
        <ele>1718.2</ele>
        <time>2024-08-11T13:22:28Z</time>
      </trkpt>
      <trkpt lat="44.89837" lon="6.49207">
        <ele>1718.2</ele>
        <time>2024-08-11T13:22:29Z</time>
      </trkpt>
      <trkpt lat="44.89837" lon="6.49207">
        <ele>1718.2</ele>
        <time>2024-08-11T13:22:30Z</time>
      </trkpt>
      <trkpt lat="44.89834" lon="6.49206">
        <ele>1718.2</ele>
        <time>2024-08-11T13:22:31Z</time>
      </trkpt>
      <trkpt lat="44.89834" lon="6.49206">
        <ele>1718.2</ele>
        <time>2024-08-11T13:22:32Z</time>
      </trkpt>
      <trkpt lat="44.89832" lon="6.49206">
        <ele>1718.2</ele>
        <time>2024-08-11T13:22:33Z</time>
      </trkpt>
      <trkpt lat="44.89832" lon="6.49206">
        <ele>1718.2</ele>
        <time>2024-08-11T13:22:34Z</time>
      </trkpt>
      <trkpt lat="44.8983" lon="6.49205">
        <ele>1718.2</ele>
        <time>2024-08-11T13:22:35Z</time>
      </trkpt>
      <trkpt lat="44.8983" lon="6.49205">
        <ele>1718.2</ele>
        <time>2024-08-11T13:22:36Z</time>
      </trkpt>
      <trkpt lat="44.89827" lon="6.49205">
        <ele>1718.2</ele>
        <time>2024-08-11T13:22:37Z</time>
      </trkpt>
      <trkpt lat="44.89827" lon="6.49205">
        <ele>1718.2</ele>
        <time>2024-08-11T13:22:38Z</time>
      </trkpt>
      <trkpt lat="44.89825" lon="6.49204">
        <ele>1718.2</ele>
        <time>2024-08-11T13:22:39Z</time>
      </trkpt>
      <trkpt lat="44.89825" lon="6.49204">
        <ele>1718</ele>
        <time>2024-08-11T13:22:40Z</time>
      </trkpt>
      <trkpt lat="44.89822" lon="6.49204">
        <ele>1717.8</ele>
        <time>2024-08-11T13:22:41Z</time>
      </trkpt>
      <trkpt lat="44.89822" lon="6.49204">
        <ele>1717.8</ele>
        <time>2024-08-11T13:22:42Z</time>
      </trkpt>
      <trkpt lat="44.89821" lon="6.49203">
        <ele>1717.6</ele>
        <time>2024-08-11T13:22:43Z</time>
      </trkpt>
      <trkpt lat="44.89821" lon="6.49203">
        <ele>1717.6</ele>
        <time>2024-08-11T13:22:44Z</time>
      </trkpt>
      <trkpt lat="44.89817" lon="6.49202">
        <ele>1717.8</ele>
        <time>2024-08-11T13:22:45Z</time>
      </trkpt>
      <trkpt lat="44.89817" lon="6.49202">
        <ele>1718</ele>
        <time>2024-08-11T13:22:46Z</time>
      </trkpt>
      <trkpt lat="44.89814" lon="6.49201">
        <ele>1718</ele>
        <time>2024-08-11T13:22:47Z</time>
      </trkpt>
      <trkpt lat="44.89812" lon="6.492">
        <ele>1717.6</ele>
        <time>2024-08-11T13:22:48Z</time>
      </trkpt>
      <trkpt lat="44.89812" lon="6.492">
        <ele>1717.2</ele>
        <time>2024-08-11T13:22:49Z</time>
      </trkpt>
      <trkpt lat="44.89809" lon="6.49198">
        <ele>1717.2</ele>
        <time>2024-08-11T13:22:50Z</time>
      </trkpt>
      <trkpt lat="44.89809" lon="6.49198">
        <ele>1717.2</ele>
        <time>2024-08-11T13:22:51Z</time>
      </trkpt>
      <trkpt lat="44.89806" lon="6.49198">
        <ele>1717.2</ele>
        <time>2024-08-11T13:22:52Z</time>
      </trkpt>
      <trkpt lat="44.89806" lon="6.49198">
        <ele>1717.2</ele>
        <time>2024-08-11T13:22:53Z</time>
      </trkpt>
      <trkpt lat="44.89803" lon="6.49197">
        <ele>1717.2</ele>
        <time>2024-08-11T13:22:54Z</time>
      </trkpt>
      <trkpt lat="44.89803" lon="6.49197">
        <ele>1717.2</ele>
        <time>2024-08-11T13:22:55Z</time>
      </trkpt>
      <trkpt lat="44.898" lon="6.49196">
        <ele>1716.8</ele>
        <time>2024-08-11T13:22:56Z</time>
      </trkpt>
      <trkpt lat="44.898" lon="6.49196">
        <ele>1716.6</ele>
        <time>2024-08-11T13:22:57Z</time>
      </trkpt>
      <trkpt lat="44.89797" lon="6.49195">
        <ele>1716.6</ele>
        <time>2024-08-11T13:22:58Z</time>
      </trkpt>
      <trkpt lat="44.89797" lon="6.49195">
        <ele>1716.6</ele>
        <time>2024-08-11T13:22:59Z</time>
      </trkpt>
      <trkpt lat="44.89795" lon="6.49194">
        <ele>1716.8</ele>
        <time>2024-08-11T13:23:00Z</time>
      </trkpt>
      <trkpt lat="44.89795" lon="6.49194">
        <ele>1716.8</ele>
        <time>2024-08-11T13:23:01Z</time>
      </trkpt>
      <trkpt lat="44.89792" lon="6.49193">
        <ele>1716.8</ele>
        <time>2024-08-11T13:23:02Z</time>
      </trkpt>
      <trkpt lat="44.89792" lon="6.49193">
        <ele>1716.8</ele>
        <time>2024-08-11T13:23:03Z</time>
      </trkpt>
      <trkpt lat="44.8979" lon="6.49192">
        <ele>1716.8</ele>
        <time>2024-08-11T13:23:04Z</time>
      </trkpt>
      <trkpt lat="44.8979" lon="6.49192">
        <ele>1717</ele>
        <time>2024-08-11T13:23:05Z</time>
      </trkpt>
      <trkpt lat="44.89788" lon="6.4919">
        <ele>1716.8</ele>
        <time>2024-08-11T13:23:06Z</time>
      </trkpt>
      <trkpt lat="44.89788" lon="6.4919">
        <ele>1716.8</ele>
        <time>2024-08-11T13:23:07Z</time>
      </trkpt>
      <trkpt lat="44.89785" lon="6.4919">
        <ele>1716.6</ele>
        <time>2024-08-11T13:23:08Z</time>
      </trkpt>
      <trkpt lat="44.89785" lon="6.4919">
        <ele>1716.6</ele>
        <time>2024-08-11T13:23:09Z</time>
      </trkpt>
      <trkpt lat="44.89782" lon="6.49189">
        <ele>1716.6</ele>
        <time>2024-08-11T13:23:10Z</time>
      </trkpt>
      <trkpt lat="44.89781" lon="6.49188">
        <ele>1716.6</ele>
        <time>2024-08-11T13:23:11Z</time>
      </trkpt>
      <trkpt lat="44.89781" lon="6.49188">
        <ele>1716.8</ele>
        <time>2024-08-11T13:23:12Z</time>
      </trkpt>
      <trkpt lat="44.89777" lon="6.49187">
        <ele>1716.8</ele>
        <time>2024-08-11T13:23:13Z</time>
      </trkpt>
      <trkpt lat="44.89777" lon="6.49187">
        <ele>1716.8</ele>
        <time>2024-08-11T13:23:14Z</time>
      </trkpt>
      <trkpt lat="44.89775" lon="6.49186">
        <ele>1716.8</ele>
        <time>2024-08-11T13:23:15Z</time>
      </trkpt>
      <trkpt lat="44.89775" lon="6.49186">
        <ele>1716.8</ele>
        <time>2024-08-11T13:23:16Z</time>
      </trkpt>
      <trkpt lat="44.89772" lon="6.49185">
        <ele>1716.8</ele>
        <time>2024-08-11T13:23:17Z</time>
      </trkpt>
      <trkpt lat="44.89772" lon="6.49185">
        <ele>1716.8</ele>
        <time>2024-08-11T13:23:18Z</time>
      </trkpt>
      <trkpt lat="44.8977" lon="6.49184">
        <ele>1716.8</ele>
        <time>2024-08-11T13:23:19Z</time>
      </trkpt>
      <trkpt lat="44.8977" lon="6.49184">
        <ele>1716.8</ele>
        <time>2024-08-11T13:23:20Z</time>
      </trkpt>
      <trkpt lat="44.89767" lon="6.49184">
        <ele>1716.8</ele>
        <time>2024-08-11T13:23:21Z</time>
      </trkpt>
      <trkpt lat="44.89767" lon="6.49184">
        <ele>1716.4</ele>
        <time>2024-08-11T13:23:22Z</time>
      </trkpt>
      <trkpt lat="44.89765" lon="6.49183">
        <ele>1716.4</ele>
        <time>2024-08-11T13:23:23Z</time>
      </trkpt>
      <trkpt lat="44.89763" lon="6.49183">
        <ele>1716.4</ele>
        <time>2024-08-11T13:23:24Z</time>
      </trkpt>
      <trkpt lat="44.89763" lon="6.49183">
        <ele>1716.4</ele>
        <time>2024-08-11T13:23:25Z</time>
      </trkpt>
      <trkpt lat="44.8976" lon="6.49181">
        <ele>1716.8</ele>
        <time>2024-08-11T13:23:26Z</time>
      </trkpt>
      <trkpt lat="44.8976" lon="6.49181">
        <ele>1716.8</ele>
        <time>2024-08-11T13:23:27Z</time>
      </trkpt>
      <trkpt lat="44.89757" lon="6.4918">
        <ele>1716.6</ele>
        <time>2024-08-11T13:23:28Z</time>
      </trkpt>
      <trkpt lat="44.89757" lon="6.4918">
        <ele>1716.6</ele>
        <time>2024-08-11T13:23:29Z</time>
      </trkpt>
      <trkpt lat="44.89755" lon="6.49179">
        <ele>1716.6</ele>
        <time>2024-08-11T13:23:30Z</time>
      </trkpt>
      <trkpt lat="44.89755" lon="6.49179">
        <ele>1716.4</ele>
        <time>2024-08-11T13:23:31Z</time>
      </trkpt>
      <trkpt lat="44.89752" lon="6.49179">
        <ele>1716.4</ele>
        <time>2024-08-11T13:23:32Z</time>
      </trkpt>
      <trkpt lat="44.89752" lon="6.49179">
        <ele>1716.6</ele>
        <time>2024-08-11T13:23:33Z</time>
      </trkpt>
      <trkpt lat="44.89749" lon="6.49177">
        <ele>1716.6</ele>
        <time>2024-08-11T13:23:34Z</time>
      </trkpt>
      <trkpt lat="44.89749" lon="6.49177">
        <ele>1716.4</ele>
        <time>2024-08-11T13:23:35Z</time>
      </trkpt>
      <trkpt lat="44.89747" lon="6.49176">
        <ele>1716.2</ele>
        <time>2024-08-11T13:23:36Z</time>
      </trkpt>
      <trkpt lat="44.89747" lon="6.49176">
        <ele>1716.2</ele>
        <time>2024-08-11T13:23:37Z</time>
      </trkpt>
      <trkpt lat="44.89744" lon="6.49175">
        <ele>1716.2</ele>
        <time>2024-08-11T13:23:38Z</time>
      </trkpt>
      <trkpt lat="44.89744" lon="6.49175">
        <ele>1716.2</ele>
        <time>2024-08-11T13:23:39Z</time>
      </trkpt>
      <trkpt lat="44.89741" lon="6.49174">
        <ele>1716</ele>
        <time>2024-08-11T13:23:40Z</time>
      </trkpt>
      <trkpt lat="44.89741" lon="6.49174">
        <ele>1716</ele>
        <time>2024-08-11T13:23:41Z</time>
      </trkpt>
      <trkpt lat="44.89739" lon="6.49173">
        <ele>1716</ele>
        <time>2024-08-11T13:23:42Z</time>
      </trkpt>
      <trkpt lat="44.89739" lon="6.49173">
        <ele>1716</ele>
        <time>2024-08-11T13:23:43Z</time>
      </trkpt>
      <trkpt lat="44.89737" lon="6.49172">
        <ele>1716</ele>
        <time>2024-08-11T13:23:44Z</time>
      </trkpt>
      <trkpt lat="44.89737" lon="6.49172">
        <ele>1716</ele>
        <time>2024-08-11T13:23:45Z</time>
      </trkpt>
      <trkpt lat="44.89734" lon="6.49172">
        <ele>1716</ele>
        <time>2024-08-11T13:23:46Z</time>
      </trkpt>
      <trkpt lat="44.89734" lon="6.49172">
        <ele>1716.2</ele>
        <time>2024-08-11T13:23:47Z</time>
      </trkpt>
      <trkpt lat="44.89731" lon="6.49172">
        <ele>1716.2</ele>
        <time>2024-08-11T13:23:48Z</time>
      </trkpt>
      <trkpt lat="44.89731" lon="6.49172">
        <ele>1716.2</ele>
        <time>2024-08-11T13:23:49Z</time>
      </trkpt>
      <trkpt lat="44.89728" lon="6.49171">
        <ele>1715.8</ele>
        <time>2024-08-11T13:23:50Z</time>
      </trkpt>
      <trkpt lat="44.89728" lon="6.49171">
        <ele>1715.6</ele>
        <time>2024-08-11T13:23:51Z</time>
      </trkpt>
      <trkpt lat="44.89726" lon="6.49169">
        <ele>1715.6</ele>
        <time>2024-08-11T13:23:52Z</time>
      </trkpt>
      <trkpt lat="44.89726" lon="6.49169">
        <ele>1715.8</ele>
        <time>2024-08-11T13:23:53Z</time>
      </trkpt>
      <trkpt lat="44.89723" lon="6.49168">
        <ele>1715.8</ele>
        <time>2024-08-11T13:23:54Z</time>
      </trkpt>
      <trkpt lat="44.89723" lon="6.49168">
        <ele>1715.6</ele>
        <time>2024-08-11T13:23:55Z</time>
      </trkpt>
      <trkpt lat="44.89721" lon="6.49167">
        <ele>1715.6</ele>
        <time>2024-08-11T13:23:56Z</time>
      </trkpt>
      <trkpt lat="44.89721" lon="6.49167">
        <ele>1715.8</ele>
        <time>2024-08-11T13:23:57Z</time>
      </trkpt>
      <trkpt lat="44.89718" lon="6.49166">
        <ele>1715.8</ele>
        <time>2024-08-11T13:23:58Z</time>
      </trkpt>
      <trkpt lat="44.89718" lon="6.49166">
        <ele>1715.8</ele>
        <time>2024-08-11T13:23:59Z</time>
      </trkpt>
      <trkpt lat="44.89715" lon="6.49165">
        <ele>1715.8</ele>
        <time>2024-08-11T13:24:00Z</time>
      </trkpt>
      <trkpt lat="44.89715" lon="6.49165">
        <ele>1715.6</ele>
        <time>2024-08-11T13:24:01Z</time>
      </trkpt>
      <trkpt lat="44.89713" lon="6.49166">
        <ele>1715.6</ele>
        <time>2024-08-11T13:24:02Z</time>
      </trkpt>
      <trkpt lat="44.89713" lon="6.49166">
        <ele>1715.6</ele>
        <time>2024-08-11T13:24:03Z</time>
      </trkpt>
      <trkpt lat="44.89709" lon="6.49166">
        <ele>1715.6</ele>
        <time>2024-08-11T13:24:04Z</time>
      </trkpt>
      <trkpt lat="44.89709" lon="6.49166">
        <ele>1715.6</ele>
        <time>2024-08-11T13:24:05Z</time>
      </trkpt>
      <trkpt lat="44.89707" lon="6.49166">
        <ele>1715.4</ele>
        <time>2024-08-11T13:24:06Z</time>
      </trkpt>
      <trkpt lat="44.89707" lon="6.49166">
        <ele>1715.4</ele>
        <time>2024-08-11T13:24:07Z</time>
      </trkpt>
      <trkpt lat="44.89704" lon="6.49166">
        <ele>1715.2</ele>
        <time>2024-08-11T13:24:08Z</time>
      </trkpt>
      <trkpt lat="44.89704" lon="6.49166">
        <ele>1715.2</ele>
        <time>2024-08-11T13:24:09Z</time>
      </trkpt>
      <trkpt lat="44.89701" lon="6.49167">
        <ele>1715.2</ele>
        <time>2024-08-11T13:24:10Z</time>
      </trkpt>
      <trkpt lat="44.89701" lon="6.49167">
        <ele>1715.2</ele>
        <time>2024-08-11T13:24:11Z</time>
      </trkpt>
      <trkpt lat="44.89698" lon="6.49167">
        <ele>1715.2</ele>
        <time>2024-08-11T13:24:12Z</time>
      </trkpt>
      <trkpt lat="44.89698" lon="6.49167">
        <ele>1715</ele>
        <time>2024-08-11T13:24:13Z</time>
      </trkpt>
      <trkpt lat="44.89695" lon="6.49167">
        <ele>1715</ele>
        <time>2024-08-11T13:24:14Z</time>
      </trkpt>
      <trkpt lat="44.89695" lon="6.49167">
        <ele>1715</ele>
        <time>2024-08-11T13:24:15Z</time>
      </trkpt>
      <trkpt lat="44.89692" lon="6.49167">
        <ele>1715</ele>
        <time>2024-08-11T13:24:16Z</time>
      </trkpt>
      <trkpt lat="44.89692" lon="6.49167">
        <ele>1715</ele>
        <time>2024-08-11T13:24:17Z</time>
      </trkpt>
      <trkpt lat="44.89688" lon="6.49168">
        <ele>1715</ele>
        <time>2024-08-11T13:24:18Z</time>
      </trkpt>
      <trkpt lat="44.89688" lon="6.49168">
        <ele>1715</ele>
        <time>2024-08-11T13:24:19Z</time>
      </trkpt>
      <trkpt lat="44.89685" lon="6.49169">
        <ele>1715.2</ele>
        <time>2024-08-11T13:24:20Z</time>
      </trkpt>
      <trkpt lat="44.89685" lon="6.49169">
        <ele>1715</ele>
        <time>2024-08-11T13:24:21Z</time>
      </trkpt>
      <trkpt lat="44.89682" lon="6.49169">
        <ele>1715</ele>
        <time>2024-08-11T13:24:22Z</time>
      </trkpt>
      <trkpt lat="44.89682" lon="6.49169">
        <ele>1715</ele>
        <time>2024-08-11T13:24:23Z</time>
      </trkpt>
      <trkpt lat="44.89679" lon="6.49169">
        <ele>1715</ele>
        <time>2024-08-11T13:24:24Z</time>
      </trkpt>
      <trkpt lat="44.89679" lon="6.49169">
        <ele>1715</ele>
        <time>2024-08-11T13:24:25Z</time>
      </trkpt>
      <trkpt lat="44.89677" lon="6.49169">
        <ele>1714.8</ele>
        <time>2024-08-11T13:24:26Z</time>
      </trkpt>
      <trkpt lat="44.89677" lon="6.49169">
        <ele>1714.8</ele>
        <time>2024-08-11T13:24:27Z</time>
      </trkpt>
      <trkpt lat="44.89674" lon="6.49169">
        <ele>1714.8</ele>
        <time>2024-08-11T13:24:28Z</time>
      </trkpt>
      <trkpt lat="44.89674" lon="6.49169">
        <ele>1714.6</ele>
        <time>2024-08-11T13:24:29Z</time>
      </trkpt>
      <trkpt lat="44.89671" lon="6.49168">
        <ele>1714.6</ele>
        <time>2024-08-11T13:24:30Z</time>
      </trkpt>
      <trkpt lat="44.89671" lon="6.49168">
        <ele>1714.6</ele>
        <time>2024-08-11T13:24:31Z</time>
      </trkpt>
      <trkpt lat="44.89668" lon="6.49167">
        <ele>1714.6</ele>
        <time>2024-08-11T13:24:32Z</time>
      </trkpt>
      <trkpt lat="44.89668" lon="6.49167">
        <ele>1714.6</ele>
        <time>2024-08-11T13:24:33Z</time>
      </trkpt>
      <trkpt lat="44.89665" lon="6.49167">
        <ele>1714.6</ele>
        <time>2024-08-11T13:24:34Z</time>
      </trkpt>
      <trkpt lat="44.89665" lon="6.49167">
        <ele>1714.4</ele>
        <time>2024-08-11T13:24:35Z</time>
      </trkpt>
      <trkpt lat="44.89662" lon="6.49166">
        <ele>1714.4</ele>
        <time>2024-08-11T13:24:36Z</time>
      </trkpt>
      <trkpt lat="44.89662" lon="6.49166">
        <ele>1714.6</ele>
        <time>2024-08-11T13:24:37Z</time>
      </trkpt>
      <trkpt lat="44.89659" lon="6.49165">
        <ele>1714.8</ele>
        <time>2024-08-11T13:24:38Z</time>
      </trkpt>
      <trkpt lat="44.89659" lon="6.49165">
        <ele>1714.8</ele>
        <time>2024-08-11T13:24:39Z</time>
      </trkpt>
      <trkpt lat="44.89656" lon="6.49165">
        <ele>1714.4</ele>
        <time>2024-08-11T13:24:40Z</time>
      </trkpt>
      <trkpt lat="44.89656" lon="6.49165">
        <ele>1714.4</ele>
        <time>2024-08-11T13:24:41Z</time>
      </trkpt>
      <trkpt lat="44.89653" lon="6.49164">
        <ele>1714.2</ele>
        <time>2024-08-11T13:24:42Z</time>
      </trkpt>
      <trkpt lat="44.89653" lon="6.49164">
        <ele>1714.2</ele>
        <time>2024-08-11T13:24:43Z</time>
      </trkpt>
      <trkpt lat="44.8965" lon="6.49163">
        <ele>1714.2</ele>
        <time>2024-08-11T13:24:44Z</time>
      </trkpt>
      <trkpt lat="44.8965" lon="6.49163">
        <ele>1714.2</ele>
        <time>2024-08-11T13:24:45Z</time>
      </trkpt>
      <trkpt lat="44.89648" lon="6.49162">
        <ele>1714</ele>
        <time>2024-08-11T13:24:46Z</time>
      </trkpt>
      <trkpt lat="44.89648" lon="6.49162">
        <ele>1714</ele>
        <time>2024-08-11T13:24:47Z</time>
      </trkpt>
      <trkpt lat="44.89645" lon="6.49161">
        <ele>1714</ele>
        <time>2024-08-11T13:24:48Z</time>
      </trkpt>
      <trkpt lat="44.89645" lon="6.49161">
        <ele>1713.8</ele>
        <time>2024-08-11T13:24:49Z</time>
      </trkpt>
      <trkpt lat="44.89642" lon="6.49161">
        <ele>1713.8</ele>
        <time>2024-08-11T13:24:50Z</time>
      </trkpt>
      <trkpt lat="44.89642" lon="6.49161">
        <ele>1713.8</ele>
        <time>2024-08-11T13:24:51Z</time>
      </trkpt>
      <trkpt lat="44.8964" lon="6.49159">
        <ele>1713.8</ele>
        <time>2024-08-11T13:24:52Z</time>
      </trkpt>
      <trkpt lat="44.8964" lon="6.49159">
        <ele>1713.8</ele>
        <time>2024-08-11T13:24:53Z</time>
      </trkpt>
      <trkpt lat="44.89637" lon="6.49158">
        <ele>1713.4</ele>
        <time>2024-08-11T13:24:54Z</time>
      </trkpt>
      <trkpt lat="44.89637" lon="6.49158">
        <ele>1713.4</ele>
        <time>2024-08-11T13:24:55Z</time>
      </trkpt>
      <trkpt lat="44.89634" lon="6.49158">
        <ele>1713.4</ele>
        <time>2024-08-11T13:24:56Z</time>
      </trkpt>
      <trkpt lat="44.89634" lon="6.49158">
        <ele>1713.6</ele>
        <time>2024-08-11T13:24:57Z</time>
      </trkpt>
      <trkpt lat="44.89631" lon="6.49157">
        <ele>1713.6</ele>
        <time>2024-08-11T13:24:58Z</time>
      </trkpt>
      <trkpt lat="44.89631" lon="6.49157">
        <ele>1713.6</ele>
        <time>2024-08-11T13:24:59Z</time>
      </trkpt>
      <trkpt lat="44.89629" lon="6.49156">
        <ele>1713.6</ele>
        <time>2024-08-11T13:25:00Z</time>
      </trkpt>
      <trkpt lat="44.89629" lon="6.49156">
        <ele>1713.4</ele>
        <time>2024-08-11T13:25:01Z</time>
      </trkpt>
      <trkpt lat="44.89626" lon="6.49156">
        <ele>1713.4</ele>
        <time>2024-08-11T13:25:02Z</time>
      </trkpt>
      <trkpt lat="44.89626" lon="6.49156">
        <ele>1713.4</ele>
        <time>2024-08-11T13:25:03Z</time>
      </trkpt>
      <trkpt lat="44.89623" lon="6.49155">
        <ele>1713.4</ele>
        <time>2024-08-11T13:25:04Z</time>
      </trkpt>
      <trkpt lat="44.89623" lon="6.49155">
        <ele>1713.4</ele>
        <time>2024-08-11T13:25:05Z</time>
      </trkpt>
      <trkpt lat="44.8962" lon="6.49154">
        <ele>1713.4</ele>
        <time>2024-08-11T13:25:06Z</time>
      </trkpt>
      <trkpt lat="44.8962" lon="6.49154">
        <ele>1713.4</ele>
        <time>2024-08-11T13:25:07Z</time>
      </trkpt>
      <trkpt lat="44.89617" lon="6.49152">
        <ele>1713.4</ele>
        <time>2024-08-11T13:25:08Z</time>
      </trkpt>
      <trkpt lat="44.89617" lon="6.49152">
        <ele>1713.4</ele>
        <time>2024-08-11T13:25:09Z</time>
      </trkpt>
      <trkpt lat="44.89614" lon="6.4915">
        <ele>1713.4</ele>
        <time>2024-08-11T13:25:10Z</time>
      </trkpt>
      <trkpt lat="44.89614" lon="6.4915">
        <ele>1713.4</ele>
        <time>2024-08-11T13:25:11Z</time>
      </trkpt>
      <trkpt lat="44.89612" lon="6.49149">
        <ele>1713.2</ele>
        <time>2024-08-11T13:25:12Z</time>
      </trkpt>
      <trkpt lat="44.89612" lon="6.49149">
        <ele>1713</ele>
        <time>2024-08-11T13:25:13Z</time>
      </trkpt>
      <trkpt lat="44.89608" lon="6.49147">
        <ele>1713</ele>
        <time>2024-08-11T13:25:14Z</time>
      </trkpt>
      <trkpt lat="44.89608" lon="6.49147">
        <ele>1713.2</ele>
        <time>2024-08-11T13:25:15Z</time>
      </trkpt>
      <trkpt lat="44.89606" lon="6.49146">
        <ele>1713.2</ele>
        <time>2024-08-11T13:25:16Z</time>
      </trkpt>
      <trkpt lat="44.89606" lon="6.49146">
        <ele>1713</ele>
        <time>2024-08-11T13:25:17Z</time>
      </trkpt>
      <trkpt lat="44.89603" lon="6.49144">
        <ele>1712.8</ele>
        <time>2024-08-11T13:25:18Z</time>
      </trkpt>
      <trkpt lat="44.89603" lon="6.49144">
        <ele>1712.8</ele>
        <time>2024-08-11T13:25:19Z</time>
      </trkpt>
      <trkpt lat="44.89601" lon="6.49142">
        <ele>1712.8</ele>
        <time>2024-08-11T13:25:20Z</time>
      </trkpt>
      <trkpt lat="44.89601" lon="6.49142">
        <ele>1713</ele>
        <time>2024-08-11T13:25:21Z</time>
      </trkpt>
      <trkpt lat="44.89598" lon="6.4914">
        <ele>1713</ele>
        <time>2024-08-11T13:25:22Z</time>
      </trkpt>
      <trkpt lat="44.89598" lon="6.4914">
        <ele>1713</ele>
        <time>2024-08-11T13:25:23Z</time>
      </trkpt>
      <trkpt lat="44.89596" lon="6.49138">
        <ele>1713</ele>
        <time>2024-08-11T13:25:24Z</time>
      </trkpt>
      <trkpt lat="44.89596" lon="6.49138">
        <ele>1713</ele>
        <time>2024-08-11T13:25:25Z</time>
      </trkpt>
      <trkpt lat="44.89594" lon="6.49135">
        <ele>1713</ele>
        <time>2024-08-11T13:25:26Z</time>
      </trkpt>
      <trkpt lat="44.89594" lon="6.49135">
        <ele>1713</ele>
        <time>2024-08-11T13:25:27Z</time>
      </trkpt>
      <trkpt lat="44.89591" lon="6.49133">
        <ele>1713</ele>
        <time>2024-08-11T13:25:28Z</time>
      </trkpt>
      <trkpt lat="44.89591" lon="6.49133">
        <ele>1713.2</ele>
        <time>2024-08-11T13:25:29Z</time>
      </trkpt>
      <trkpt lat="44.8959" lon="6.4913">
        <ele>1713.2</ele>
        <time>2024-08-11T13:25:30Z</time>
      </trkpt>
      <trkpt lat="44.89588" lon="6.49129">
        <ele>1713.2</ele>
        <time>2024-08-11T13:25:31Z</time>
      </trkpt>
      <trkpt lat="44.89588" lon="6.49129">
        <ele>1713</ele>
        <time>2024-08-11T13:25:32Z</time>
      </trkpt>
      <trkpt lat="44.89586" lon="6.49127">
        <ele>1713</ele>
        <time>2024-08-11T13:25:33Z</time>
      </trkpt>
      <trkpt lat="44.89586" lon="6.49127">
        <ele>1713</ele>
        <time>2024-08-11T13:25:34Z</time>
      </trkpt>
      <trkpt lat="44.89584" lon="6.49124">
        <ele>1713</ele>
        <time>2024-08-11T13:25:35Z</time>
      </trkpt>
      <trkpt lat="44.89584" lon="6.49124">
        <ele>1713</ele>
        <time>2024-08-11T13:25:36Z</time>
      </trkpt>
      <trkpt lat="44.89581" lon="6.49122">
        <ele>1713</ele>
        <time>2024-08-11T13:25:37Z</time>
      </trkpt>
      <trkpt lat="44.89581" lon="6.49122">
        <ele>1713</ele>
        <time>2024-08-11T13:25:38Z</time>
      </trkpt>
      <trkpt lat="44.89579" lon="6.4912">
        <ele>1713.2</ele>
        <time>2024-08-11T13:25:39Z</time>
      </trkpt>
      <trkpt lat="44.89579" lon="6.4912">
        <ele>1713.2</ele>
        <time>2024-08-11T13:25:40Z</time>
      </trkpt>
      <trkpt lat="44.89576" lon="6.49118">
        <ele>1713.2</ele>
        <time>2024-08-11T13:25:41Z</time>
      </trkpt>
      <trkpt lat="44.89576" lon="6.49118">
        <ele>1713</ele>
        <time>2024-08-11T13:25:42Z</time>
      </trkpt>
      <trkpt lat="44.89574" lon="6.49116">
        <ele>1713</ele>
        <time>2024-08-11T13:25:43Z</time>
      </trkpt>
      <trkpt lat="44.89574" lon="6.49116">
        <ele>1713</ele>
        <time>2024-08-11T13:25:44Z</time>
      </trkpt>
      <trkpt lat="44.89572" lon="6.49114">
        <ele>1713</ele>
        <time>2024-08-11T13:25:45Z</time>
      </trkpt>
      <trkpt lat="44.89572" lon="6.49114">
        <ele>1712.8</ele>
        <time>2024-08-11T13:25:46Z</time>
      </trkpt>
      <trkpt lat="44.89572" lon="6.49114">
        <ele>1712.8</ele>
        <time>2024-08-11T13:25:47Z</time>
      </trkpt>
      <trkpt lat="44.89572" lon="6.49114">
        <ele>1713</ele>
        <time>2024-08-11T13:25:48Z</time>
      </trkpt>
      <trkpt lat="44.89572" lon="6.49114">
        <ele>1713</ele>
        <time>2024-08-11T13:25:49Z</time>
      </trkpt>
      <trkpt lat="44.8957" lon="6.49113">
        <ele>1712.8</ele>
        <time>2024-08-11T13:25:50Z</time>
      </trkpt>
      <trkpt lat="44.8957" lon="6.49113">
        <ele>1712.6</ele>
        <time>2024-08-11T13:25:51Z</time>
      </trkpt>
      <trkpt lat="44.89567" lon="6.49112">
        <ele>1712.6</ele>
        <time>2024-08-11T13:25:52Z</time>
      </trkpt>
      <trkpt lat="44.89567" lon="6.49112">
        <ele>1712.8</ele>
        <time>2024-08-11T13:25:53Z</time>
      </trkpt>
      <trkpt lat="44.89564" lon="6.49112">
        <ele>1713</ele>
        <time>2024-08-11T13:25:54Z</time>
      </trkpt>
      <trkpt lat="44.89564" lon="6.49112">
        <ele>1713</ele>
        <time>2024-08-11T13:25:55Z</time>
      </trkpt>
      <trkpt lat="44.89561" lon="6.49111">
        <ele>1712.8</ele>
        <time>2024-08-11T13:25:56Z</time>
      </trkpt>
      <trkpt lat="44.89561" lon="6.49111">
        <ele>1712.4</ele>
        <time>2024-08-11T13:25:57Z</time>
      </trkpt>
      <trkpt lat="44.89558" lon="6.49111">
        <ele>1712.2</ele>
        <time>2024-08-11T13:25:58Z</time>
      </trkpt>
      <trkpt lat="44.89558" lon="6.49111">
        <ele>1712</ele>
        <time>2024-08-11T13:25:59Z</time>
      </trkpt>
      <trkpt lat="44.89555" lon="6.49111">
        <ele>1712</ele>
        <time>2024-08-11T13:26:00Z</time>
      </trkpt>
      <trkpt lat="44.89555" lon="6.49111">
        <ele>1712</ele>
        <time>2024-08-11T13:26:01Z</time>
      </trkpt>
      <trkpt lat="44.89552" lon="6.49111">
        <ele>1712</ele>
        <time>2024-08-11T13:26:02Z</time>
      </trkpt>
      <trkpt lat="44.89552" lon="6.49111">
        <ele>1712</ele>
        <time>2024-08-11T13:26:03Z</time>
      </trkpt>
      <trkpt lat="44.89549" lon="6.4911">
        <ele>1711.8</ele>
        <time>2024-08-11T13:26:04Z</time>
      </trkpt>
      <trkpt lat="44.89549" lon="6.4911">
        <ele>1711.6</ele>
        <time>2024-08-11T13:26:05Z</time>
      </trkpt>
      <trkpt lat="44.89547" lon="6.4911">
        <ele>1711.4</ele>
        <time>2024-08-11T13:26:06Z</time>
      </trkpt>
      <trkpt lat="44.89547" lon="6.4911">
        <ele>1711.2</ele>
        <time>2024-08-11T13:26:07Z</time>
      </trkpt>
      <trkpt lat="44.89544" lon="6.49109">
        <ele>1711.2</ele>
        <time>2024-08-11T13:26:08Z</time>
      </trkpt>
      <trkpt lat="44.89544" lon="6.49109">
        <ele>1711.2</ele>
        <time>2024-08-11T13:26:09Z</time>
      </trkpt>
      <trkpt lat="44.89541" lon="6.49108">
        <ele>1711.2</ele>
        <time>2024-08-11T13:26:10Z</time>
      </trkpt>
      <trkpt lat="44.89541" lon="6.49108">
        <ele>1711.2</ele>
        <time>2024-08-11T13:26:11Z</time>
      </trkpt>
      <trkpt lat="44.89538" lon="6.49108">
        <ele>1711.2</ele>
        <time>2024-08-11T13:26:12Z</time>
      </trkpt>
      <trkpt lat="44.89538" lon="6.49108">
        <ele>1711.2</ele>
        <time>2024-08-11T13:26:13Z</time>
      </trkpt>
      <trkpt lat="44.89536" lon="6.49107">
        <ele>1711.2</ele>
        <time>2024-08-11T13:26:14Z</time>
      </trkpt>
      <trkpt lat="44.89536" lon="6.49107">
        <ele>1711.2</ele>
        <time>2024-08-11T13:26:15Z</time>
      </trkpt>
      <trkpt lat="44.89533" lon="6.49106">
        <ele>1711</ele>
        <time>2024-08-11T13:26:16Z</time>
      </trkpt>
      <trkpt lat="44.89533" lon="6.49106">
        <ele>1711</ele>
        <time>2024-08-11T13:26:17Z</time>
      </trkpt>
      <trkpt lat="44.8953" lon="6.49104">
        <ele>1711</ele>
        <time>2024-08-11T13:26:18Z</time>
      </trkpt>
      <trkpt lat="44.8953" lon="6.49104">
        <ele>1711</ele>
        <time>2024-08-11T13:26:19Z</time>
      </trkpt>
      <trkpt lat="44.89527" lon="6.49102">
        <ele>1711.2</ele>
        <time>2024-08-11T13:26:20Z</time>
      </trkpt>
      <trkpt lat="44.89527" lon="6.49102">
        <ele>1711.2</ele>
        <time>2024-08-11T13:26:21Z</time>
      </trkpt>
      <trkpt lat="44.89524" lon="6.49101">
        <ele>1711</ele>
        <time>2024-08-11T13:26:22Z</time>
      </trkpt>
      <trkpt lat="44.89524" lon="6.49101">
        <ele>1710.8</ele>
        <time>2024-08-11T13:26:23Z</time>
      </trkpt>
      <trkpt lat="44.89521" lon="6.491">
        <ele>1710.8</ele>
        <time>2024-08-11T13:26:24Z</time>
      </trkpt>
      <trkpt lat="44.89521" lon="6.491">
        <ele>1710.8</ele>
        <time>2024-08-11T13:26:25Z</time>
      </trkpt>
      <trkpt lat="44.89517" lon="6.49099">
        <ele>1710.8</ele>
        <time>2024-08-11T13:26:26Z</time>
      </trkpt>
      <trkpt lat="44.89517" lon="6.49099">
        <ele>1710.8</ele>
        <time>2024-08-11T13:26:27Z</time>
      </trkpt>
      <trkpt lat="44.89515" lon="6.49098">
        <ele>1710.6</ele>
        <time>2024-08-11T13:26:28Z</time>
      </trkpt>
      <trkpt lat="44.89515" lon="6.49098">
        <ele>1710.6</ele>
        <time>2024-08-11T13:26:29Z</time>
      </trkpt>
      <trkpt lat="44.89511" lon="6.49098">
        <ele>1710.8</ele>
        <time>2024-08-11T13:26:30Z</time>
      </trkpt>
      <trkpt lat="44.89511" lon="6.49098">
        <ele>1711</ele>
        <time>2024-08-11T13:26:31Z</time>
      </trkpt>
      <trkpt lat="44.89509" lon="6.49097">
        <ele>1711.2</ele>
        <time>2024-08-11T13:26:32Z</time>
      </trkpt>
      <trkpt lat="44.89509" lon="6.49097">
        <ele>1711.2</ele>
        <time>2024-08-11T13:26:33Z</time>
      </trkpt>
      <trkpt lat="44.89506" lon="6.49097">
        <ele>1711.4</ele>
        <time>2024-08-11T13:26:34Z</time>
      </trkpt>
      <trkpt lat="44.89506" lon="6.49097">
        <ele>1711.4</ele>
        <time>2024-08-11T13:26:35Z</time>
      </trkpt>
      <trkpt lat="44.89503" lon="6.49097">
        <ele>1711.4</ele>
        <time>2024-08-11T13:26:36Z</time>
      </trkpt>
      <trkpt lat="44.89503" lon="6.49097">
        <ele>1710.8</ele>
        <time>2024-08-11T13:26:37Z</time>
      </trkpt>
      <trkpt lat="44.895" lon="6.49098">
        <ele>1710.8</ele>
        <time>2024-08-11T13:26:38Z</time>
      </trkpt>
      <trkpt lat="44.895" lon="6.49098">
        <ele>1710.6</ele>
        <time>2024-08-11T13:26:39Z</time>
      </trkpt>
      <trkpt lat="44.89497" lon="6.49098">
        <ele>1710.4</ele>
        <time>2024-08-11T13:26:40Z</time>
      </trkpt>
      <trkpt lat="44.89497" lon="6.49098">
        <ele>1710.4</ele>
        <time>2024-08-11T13:26:41Z</time>
      </trkpt>
      <trkpt lat="44.89494" lon="6.49099">
        <ele>1710.4</ele>
        <time>2024-08-11T13:26:42Z</time>
      </trkpt>
      <trkpt lat="44.89494" lon="6.49099">
        <ele>1710.4</ele>
        <time>2024-08-11T13:26:43Z</time>
      </trkpt>
      <trkpt lat="44.89491" lon="6.491">
        <ele>1710.4</ele>
        <time>2024-08-11T13:26:44Z</time>
      </trkpt>
      <trkpt lat="44.89491" lon="6.491">
        <ele>1710.4</ele>
        <time>2024-08-11T13:26:45Z</time>
      </trkpt>
      <trkpt lat="44.89489" lon="6.49101">
        <ele>1710.4</ele>
        <time>2024-08-11T13:26:46Z</time>
      </trkpt>
      <trkpt lat="44.89489" lon="6.49101">
        <ele>1710.4</ele>
        <time>2024-08-11T13:26:47Z</time>
      </trkpt>
      <trkpt lat="44.89486" lon="6.49102">
        <ele>1710.4</ele>
        <time>2024-08-11T13:26:48Z</time>
      </trkpt>
      <trkpt lat="44.89486" lon="6.49102">
        <ele>1710.4</ele>
        <time>2024-08-11T13:26:49Z</time>
      </trkpt>
      <trkpt lat="44.89483" lon="6.49103">
        <ele>1710.4</ele>
        <time>2024-08-11T13:26:50Z</time>
      </trkpt>
      <trkpt lat="44.89483" lon="6.49103">
        <ele>1710.4</ele>
        <time>2024-08-11T13:26:51Z</time>
      </trkpt>
      <trkpt lat="44.89481" lon="6.49104">
        <ele>1710.4</ele>
        <time>2024-08-11T13:26:52Z</time>
      </trkpt>
      <trkpt lat="44.89481" lon="6.49104">
        <ele>1710.8</ele>
        <time>2024-08-11T13:26:53Z</time>
      </trkpt>
      <trkpt lat="44.89477" lon="6.49104">
        <ele>1710.8</ele>
        <time>2024-08-11T13:26:54Z</time>
      </trkpt>
      <trkpt lat="44.89477" lon="6.49104">
        <ele>1710.6</ele>
        <time>2024-08-11T13:26:55Z</time>
      </trkpt>
      <trkpt lat="44.89475" lon="6.49105">
        <ele>1710.6</ele>
        <time>2024-08-11T13:26:56Z</time>
      </trkpt>
      <trkpt lat="44.89475" lon="6.49105">
        <ele>1710.8</ele>
        <time>2024-08-11T13:26:57Z</time>
      </trkpt>
      <trkpt lat="44.89472" lon="6.49106">
        <ele>1710.8</ele>
        <time>2024-08-11T13:26:58Z</time>
      </trkpt>
      <trkpt lat="44.89472" lon="6.49106">
        <ele>1710.8</ele>
        <time>2024-08-11T13:26:59Z</time>
      </trkpt>
      <trkpt lat="44.89469" lon="6.49106">
        <ele>1710.6</ele>
        <time>2024-08-11T13:27:00Z</time>
      </trkpt>
      <trkpt lat="44.89469" lon="6.49106">
        <ele>1710.6</ele>
        <time>2024-08-11T13:27:01Z</time>
      </trkpt>
      <trkpt lat="44.89467" lon="6.49106">
        <ele>1710.6</ele>
        <time>2024-08-11T13:27:02Z</time>
      </trkpt>
      <trkpt lat="44.89467" lon="6.49106">
        <ele>1710.6</ele>
        <time>2024-08-11T13:27:03Z</time>
      </trkpt>
      <trkpt lat="44.89464" lon="6.49106">
        <ele>1710.6</ele>
        <time>2024-08-11T13:27:04Z</time>
      </trkpt>
      <trkpt lat="44.89464" lon="6.49106">
        <ele>1710.8</ele>
        <time>2024-08-11T13:27:05Z</time>
      </trkpt>
      <trkpt lat="44.89461" lon="6.49106">
        <ele>1710.8</ele>
        <time>2024-08-11T13:27:06Z</time>
      </trkpt>
      <trkpt lat="44.89461" lon="6.49106">
        <ele>1710.8</ele>
        <time>2024-08-11T13:27:07Z</time>
      </trkpt>
      <trkpt lat="44.89458" lon="6.49106">
        <ele>1710.6</ele>
        <time>2024-08-11T13:27:08Z</time>
      </trkpt>
      <trkpt lat="44.89456" lon="6.49106">
        <ele>1710.6</ele>
        <time>2024-08-11T13:27:09Z</time>
      </trkpt>
      <trkpt lat="44.89456" lon="6.49106">
        <ele>1710.6</ele>
        <time>2024-08-11T13:27:10Z</time>
      </trkpt>
      <trkpt lat="44.89453" lon="6.49105">
        <ele>1710.6</ele>
        <time>2024-08-11T13:27:11Z</time>
      </trkpt>
      <trkpt lat="44.89453" lon="6.49105">
        <ele>1710.6</ele>
        <time>2024-08-11T13:27:12Z</time>
      </trkpt>
      <trkpt lat="44.8945" lon="6.49105">
        <ele>1710.4</ele>
        <time>2024-08-11T13:27:13Z</time>
      </trkpt>
      <trkpt lat="44.8945" lon="6.49105">
        <ele>1710.2</ele>
        <time>2024-08-11T13:27:14Z</time>
      </trkpt>
      <trkpt lat="44.89447" lon="6.49105">
        <ele>1710.2</ele>
        <time>2024-08-11T13:27:15Z</time>
      </trkpt>
      <trkpt lat="44.89447" lon="6.49105">
        <ele>1710.2</ele>
        <time>2024-08-11T13:27:16Z</time>
      </trkpt>
      <trkpt lat="44.89444" lon="6.49104">
        <ele>1710.4</ele>
        <time>2024-08-11T13:27:17Z</time>
      </trkpt>
      <trkpt lat="44.89444" lon="6.49104">
        <ele>1710.2</ele>
        <time>2024-08-11T13:27:18Z</time>
      </trkpt>
      <trkpt lat="44.89441" lon="6.49104">
        <ele>1710.4</ele>
        <time>2024-08-11T13:27:19Z</time>
      </trkpt>
      <trkpt lat="44.89441" lon="6.49104">
        <ele>1710.2</ele>
        <time>2024-08-11T13:27:20Z</time>
      </trkpt>
      <trkpt lat="44.89438" lon="6.49104">
        <ele>1710.2</ele>
        <time>2024-08-11T13:27:21Z</time>
      </trkpt>
      <trkpt lat="44.89438" lon="6.49104">
        <ele>1710.2</ele>
        <time>2024-08-11T13:27:22Z</time>
      </trkpt>
      <trkpt lat="44.89435" lon="6.49104">
        <ele>1710.2</ele>
        <time>2024-08-11T13:27:23Z</time>
      </trkpt>
      <trkpt lat="44.89435" lon="6.49104">
        <ele>1710.2</ele>
        <time>2024-08-11T13:27:24Z</time>
      </trkpt>
      <trkpt lat="44.89432" lon="6.49103">
        <ele>1710.4</ele>
        <time>2024-08-11T13:27:25Z</time>
      </trkpt>
      <trkpt lat="44.89432" lon="6.49103">
        <ele>1710.4</ele>
        <time>2024-08-11T13:27:26Z</time>
      </trkpt>
      <trkpt lat="44.89429" lon="6.49102">
        <ele>1710.4</ele>
        <time>2024-08-11T13:27:27Z</time>
      </trkpt>
      <trkpt lat="44.89427" lon="6.49102">
        <ele>1710.4</ele>
        <time>2024-08-11T13:27:28Z</time>
      </trkpt>
      <trkpt lat="44.89427" lon="6.49102">
        <ele>1710.2</ele>
        <time>2024-08-11T13:27:29Z</time>
      </trkpt>
      <trkpt lat="44.89424" lon="6.49102">
        <ele>1710.4</ele>
        <time>2024-08-11T13:27:30Z</time>
      </trkpt>
      <trkpt lat="44.89424" lon="6.49102">
        <ele>1710.4</ele>
        <time>2024-08-11T13:27:31Z</time>
      </trkpt>
      <trkpt lat="44.89421" lon="6.49101">
        <ele>1710.4</ele>
        <time>2024-08-11T13:27:32Z</time>
      </trkpt>
      <trkpt lat="44.89421" lon="6.49101">
        <ele>1710.4</ele>
        <time>2024-08-11T13:27:33Z</time>
      </trkpt>
      <trkpt lat="44.89419" lon="6.49101">
        <ele>1710.6</ele>
        <time>2024-08-11T13:27:34Z</time>
      </trkpt>
      <trkpt lat="44.89419" lon="6.49101">
        <ele>1710.6</ele>
        <time>2024-08-11T13:27:35Z</time>
      </trkpt>
      <trkpt lat="44.89416" lon="6.491">
        <ele>1710.6</ele>
        <time>2024-08-11T13:27:36Z</time>
      </trkpt>
      <trkpt lat="44.89416" lon="6.491">
        <ele>1710.6</ele>
        <time>2024-08-11T13:27:37Z</time>
      </trkpt>
      <trkpt lat="44.89413" lon="6.49098">
        <ele>1710.6</ele>
        <time>2024-08-11T13:27:38Z</time>
      </trkpt>
      <trkpt lat="44.89413" lon="6.49098">
        <ele>1710.6</ele>
        <time>2024-08-11T13:27:39Z</time>
      </trkpt>
      <trkpt lat="44.89411" lon="6.49096">
        <ele>1710.4</ele>
        <time>2024-08-11T13:27:40Z</time>
      </trkpt>
      <trkpt lat="44.89411" lon="6.49096">
        <ele>1710.4</ele>
        <time>2024-08-11T13:27:41Z</time>
      </trkpt>
      <trkpt lat="44.89407" lon="6.49096">
        <ele>1710.4</ele>
        <time>2024-08-11T13:27:42Z</time>
      </trkpt>
      <trkpt lat="44.89407" lon="6.49096">
        <ele>1710.4</ele>
        <time>2024-08-11T13:27:43Z</time>
      </trkpt>
      <trkpt lat="44.89404" lon="6.49095">
        <ele>1710.6</ele>
        <time>2024-08-11T13:27:44Z</time>
      </trkpt>
      <trkpt lat="44.89404" lon="6.49095">
        <ele>1710.6</ele>
        <time>2024-08-11T13:27:45Z</time>
      </trkpt>
      <trkpt lat="44.89402" lon="6.49094">
        <ele>1710.4</ele>
        <time>2024-08-11T13:27:46Z</time>
      </trkpt>
      <trkpt lat="44.89402" lon="6.49094">
        <ele>1710.2</ele>
        <time>2024-08-11T13:27:47Z</time>
      </trkpt>
      <trkpt lat="44.89399" lon="6.49095">
        <ele>1710.2</ele>
        <time>2024-08-11T13:27:48Z</time>
      </trkpt>
      <trkpt lat="44.89399" lon="6.49095">
        <ele>1710.2</ele>
        <time>2024-08-11T13:27:49Z</time>
      </trkpt>
      <trkpt lat="44.89396" lon="6.49095">
        <ele>1710.2</ele>
        <time>2024-08-11T13:27:50Z</time>
      </trkpt>
      <trkpt lat="44.89396" lon="6.49095">
        <ele>1710.2</ele>
        <time>2024-08-11T13:27:51Z</time>
      </trkpt>
      <trkpt lat="44.89394" lon="6.49095">
        <ele>1710.4</ele>
        <time>2024-08-11T13:27:52Z</time>
      </trkpt>
      <trkpt lat="44.89394" lon="6.49095">
        <ele>1710.4</ele>
        <time>2024-08-11T13:27:53Z</time>
      </trkpt>
      <trkpt lat="44.89391" lon="6.49094">
        <ele>1710.4</ele>
        <time>2024-08-11T13:27:54Z</time>
      </trkpt>
      <trkpt lat="44.89391" lon="6.49094">
        <ele>1710.2</ele>
        <time>2024-08-11T13:27:55Z</time>
      </trkpt>
      <trkpt lat="44.89389" lon="6.49094">
        <ele>1710</ele>
        <time>2024-08-11T13:27:56Z</time>
      </trkpt>
      <trkpt lat="44.89389" lon="6.49094">
        <ele>1710</ele>
        <time>2024-08-11T13:27:57Z</time>
      </trkpt>
      <trkpt lat="44.89386" lon="6.49094">
        <ele>1710</ele>
        <time>2024-08-11T13:27:58Z</time>
      </trkpt>
      <trkpt lat="44.89386" lon="6.49094">
        <ele>1710</ele>
        <time>2024-08-11T13:27:59Z</time>
      </trkpt>
      <trkpt lat="44.89382" lon="6.49095">
        <ele>1710.2</ele>
        <time>2024-08-11T13:28:00Z</time>
      </trkpt>
      <trkpt lat="44.89382" lon="6.49095">
        <ele>1710.2</ele>
        <time>2024-08-11T13:28:01Z</time>
      </trkpt>
      <trkpt lat="44.89379" lon="6.49094">
        <ele>1710</ele>
        <time>2024-08-11T13:28:02Z</time>
      </trkpt>
      <trkpt lat="44.89379" lon="6.49094">
        <ele>1710</ele>
        <time>2024-08-11T13:28:03Z</time>
      </trkpt>
      <trkpt lat="44.89376" lon="6.49094">
        <ele>1710</ele>
        <time>2024-08-11T13:28:04Z</time>
      </trkpt>
      <trkpt lat="44.89376" lon="6.49094">
        <ele>1710.2</ele>
        <time>2024-08-11T13:28:05Z</time>
      </trkpt>
      <trkpt lat="44.89373" lon="6.49093">
        <ele>1710.2</ele>
        <time>2024-08-11T13:28:06Z</time>
      </trkpt>
      <trkpt lat="44.89373" lon="6.49093">
        <ele>1710</ele>
        <time>2024-08-11T13:28:07Z</time>
      </trkpt>
      <trkpt lat="44.8937" lon="6.49093">
        <ele>1710</ele>
        <time>2024-08-11T13:28:08Z</time>
      </trkpt>
      <trkpt lat="44.89368" lon="6.49093">
        <ele>1710</ele>
        <time>2024-08-11T13:28:09Z</time>
      </trkpt>
      <trkpt lat="44.89368" lon="6.49093">
        <ele>1710</ele>
        <time>2024-08-11T13:28:10Z</time>
      </trkpt>
      <trkpt lat="44.89365" lon="6.49092">
        <ele>1710</ele>
        <time>2024-08-11T13:28:11Z</time>
      </trkpt>
      <trkpt lat="44.89365" lon="6.49092">
        <ele>1709.8</ele>
        <time>2024-08-11T13:28:12Z</time>
      </trkpt>
      <trkpt lat="44.89363" lon="6.49092">
        <ele>1709.8</ele>
        <time>2024-08-11T13:28:13Z</time>
      </trkpt>
      <trkpt lat="44.89363" lon="6.49092">
        <ele>1709.8</ele>
        <time>2024-08-11T13:28:14Z</time>
      </trkpt>
      <trkpt lat="44.8936" lon="6.49092">
        <ele>1709.8</ele>
        <time>2024-08-11T13:28:15Z</time>
      </trkpt>
      <trkpt lat="44.8936" lon="6.49092">
        <ele>1709.8</ele>
        <time>2024-08-11T13:28:16Z</time>
      </trkpt>
      <trkpt lat="44.89357" lon="6.49092">
        <ele>1709.8</ele>
        <time>2024-08-11T13:28:17Z</time>
      </trkpt>
      <trkpt lat="44.89357" lon="6.49092">
        <ele>1709.6</ele>
        <time>2024-08-11T13:28:18Z</time>
      </trkpt>
      <trkpt lat="44.89354" lon="6.49091">
        <ele>1709.6</ele>
        <time>2024-08-11T13:28:19Z</time>
      </trkpt>
      <trkpt lat="44.89354" lon="6.49091">
        <ele>1709.6</ele>
        <time>2024-08-11T13:28:20Z</time>
      </trkpt>
      <trkpt lat="44.8935" lon="6.49091">
        <ele>1709.6</ele>
        <time>2024-08-11T13:28:21Z</time>
      </trkpt>
      <trkpt lat="44.8935" lon="6.49091">
        <ele>1709.6</ele>
        <time>2024-08-11T13:28:22Z</time>
      </trkpt>
      <trkpt lat="44.89348" lon="6.49091">
        <ele>1709.6</ele>
        <time>2024-08-11T13:28:23Z</time>
      </trkpt>
      <trkpt lat="44.89348" lon="6.49091">
        <ele>1709.4</ele>
        <time>2024-08-11T13:28:24Z</time>
      </trkpt>
      <trkpt lat="44.89345" lon="6.49091">
        <ele>1709.4</ele>
        <time>2024-08-11T13:28:25Z</time>
      </trkpt>
      <trkpt lat="44.89345" lon="6.49091">
        <ele>1709.4</ele>
        <time>2024-08-11T13:28:26Z</time>
      </trkpt>
      <trkpt lat="44.89342" lon="6.49091">
        <ele>1709.2</ele>
        <time>2024-08-11T13:28:27Z</time>
      </trkpt>
      <trkpt lat="44.89342" lon="6.49091">
        <ele>1709.2</ele>
        <time>2024-08-11T13:28:28Z</time>
      </trkpt>
      <trkpt lat="44.8934" lon="6.49091">
        <ele>1709.2</ele>
        <time>2024-08-11T13:28:29Z</time>
      </trkpt>
      <trkpt lat="44.8934" lon="6.49091">
        <ele>1709.2</ele>
        <time>2024-08-11T13:28:30Z</time>
      </trkpt>
      <trkpt lat="44.89336" lon="6.4909">
        <ele>1709.2</ele>
        <time>2024-08-11T13:28:31Z</time>
      </trkpt>
      <trkpt lat="44.89336" lon="6.4909">
        <ele>1709.2</ele>
        <time>2024-08-11T13:28:32Z</time>
      </trkpt>
      <trkpt lat="44.89333" lon="6.4909">
        <ele>1709.2</ele>
        <time>2024-08-11T13:28:33Z</time>
      </trkpt>
      <trkpt lat="44.89333" lon="6.4909">
        <ele>1709.2</ele>
        <time>2024-08-11T13:28:34Z</time>
      </trkpt>
      <trkpt lat="44.89331" lon="6.49089">
        <ele>1709</ele>
        <time>2024-08-11T13:28:35Z</time>
      </trkpt>
      <trkpt lat="44.89331" lon="6.49089">
        <ele>1709</ele>
        <time>2024-08-11T13:28:36Z</time>
      </trkpt>
      <trkpt lat="44.89328" lon="6.49088">
        <ele>1709</ele>
        <time>2024-08-11T13:28:37Z</time>
      </trkpt>
      <trkpt lat="44.89328" lon="6.49088">
        <ele>1709</ele>
        <time>2024-08-11T13:28:38Z</time>
      </trkpt>
      <trkpt lat="44.89325" lon="6.49087">
        <ele>1709</ele>
        <time>2024-08-11T13:28:39Z</time>
      </trkpt>
      <trkpt lat="44.89325" lon="6.49087">
        <ele>1709</ele>
        <time>2024-08-11T13:28:40Z</time>
      </trkpt>
      <trkpt lat="44.89322" lon="6.49086">
        <ele>1709</ele>
        <time>2024-08-11T13:28:41Z</time>
      </trkpt>
      <trkpt lat="44.89322" lon="6.49086">
        <ele>1709</ele>
        <time>2024-08-11T13:28:42Z</time>
      </trkpt>
      <trkpt lat="44.8932" lon="6.49085">
        <ele>1709</ele>
        <time>2024-08-11T13:28:43Z</time>
      </trkpt>
      <trkpt lat="44.8932" lon="6.49085">
        <ele>1709</ele>
        <time>2024-08-11T13:28:44Z</time>
      </trkpt>
      <trkpt lat="44.89317" lon="6.49084">
        <ele>1709</ele>
        <time>2024-08-11T13:28:45Z</time>
      </trkpt>
      <trkpt lat="44.89317" lon="6.49084">
        <ele>1709</ele>
        <time>2024-08-11T13:28:46Z</time>
      </trkpt>
      <trkpt lat="44.89314" lon="6.49083">
        <ele>1708.8</ele>
        <time>2024-08-11T13:28:47Z</time>
      </trkpt>
      <trkpt lat="44.89314" lon="6.49083">
        <ele>1708.8</ele>
        <time>2024-08-11T13:28:48Z</time>
      </trkpt>
      <trkpt lat="44.89312" lon="6.49082">
        <ele>1708.8</ele>
        <time>2024-08-11T13:28:49Z</time>
      </trkpt>
      <trkpt lat="44.89312" lon="6.49082">
        <ele>1708.6</ele>
        <time>2024-08-11T13:28:50Z</time>
      </trkpt>
      <trkpt lat="44.89309" lon="6.4908">
        <ele>1708.6</ele>
        <time>2024-08-11T13:28:51Z</time>
      </trkpt>
      <trkpt lat="44.89309" lon="6.4908">
        <ele>1708.8</ele>
        <time>2024-08-11T13:28:52Z</time>
      </trkpt>
      <trkpt lat="44.89307" lon="6.49079">
        <ele>1708.8</ele>
        <time>2024-08-11T13:28:53Z</time>
      </trkpt>
      <trkpt lat="44.89307" lon="6.49079">
        <ele>1708.6</ele>
        <time>2024-08-11T13:28:54Z</time>
      </trkpt>
      <trkpt lat="44.89304" lon="6.49077">
        <ele>1708.6</ele>
        <time>2024-08-11T13:28:55Z</time>
      </trkpt>
      <trkpt lat="44.89304" lon="6.49077">
        <ele>1708.6</ele>
        <time>2024-08-11T13:28:56Z</time>
      </trkpt>
      <trkpt lat="44.89301" lon="6.49075">
        <ele>1708.8</ele>
        <time>2024-08-11T13:28:57Z</time>
      </trkpt>
      <trkpt lat="44.89301" lon="6.49075">
        <ele>1708.8</ele>
        <time>2024-08-11T13:28:58Z</time>
      </trkpt>
      <trkpt lat="44.89298" lon="6.49073">
        <ele>1708.8</ele>
        <time>2024-08-11T13:28:59Z</time>
      </trkpt>
      <trkpt lat="44.89298" lon="6.49073">
        <ele>1708.4</ele>
        <time>2024-08-11T13:29:00Z</time>
      </trkpt>
      <trkpt lat="44.89296" lon="6.49071">
        <ele>1708.4</ele>
        <time>2024-08-11T13:29:01Z</time>
      </trkpt>
      <trkpt lat="44.89296" lon="6.49071">
        <ele>1708</ele>
        <time>2024-08-11T13:29:02Z</time>
      </trkpt>
      <trkpt lat="44.89293" lon="6.4907">
        <ele>1708</ele>
        <time>2024-08-11T13:29:03Z</time>
      </trkpt>
      <trkpt lat="44.89293" lon="6.4907">
        <ele>1707.8</ele>
        <time>2024-08-11T13:29:04Z</time>
      </trkpt>
      <trkpt lat="44.89291" lon="6.49068">
        <ele>1707.8</ele>
        <time>2024-08-11T13:29:05Z</time>
      </trkpt>
      <trkpt lat="44.89291" lon="6.49068">
        <ele>1707.8</ele>
        <time>2024-08-11T13:29:06Z</time>
      </trkpt>
      <trkpt lat="44.89288" lon="6.49065">
        <ele>1707.8</ele>
        <time>2024-08-11T13:29:07Z</time>
      </trkpt>
      <trkpt lat="44.89288" lon="6.49065">
        <ele>1707.8</ele>
        <time>2024-08-11T13:29:08Z</time>
      </trkpt>
      <trkpt lat="44.89286" lon="6.49063">
        <ele>1707.8</ele>
        <time>2024-08-11T13:29:09Z</time>
      </trkpt>
      <trkpt lat="44.89286" lon="6.49063">
        <ele>1707.8</ele>
        <time>2024-08-11T13:29:10Z</time>
      </trkpt>
      <trkpt lat="44.89284" lon="6.4906">
        <ele>1707.4</ele>
        <time>2024-08-11T13:29:11Z</time>
      </trkpt>
      <trkpt lat="44.89284" lon="6.4906">
        <ele>1707.4</ele>
        <time>2024-08-11T13:29:12Z</time>
      </trkpt>
      <trkpt lat="44.89282" lon="6.49058">
        <ele>1707.2</ele>
        <time>2024-08-11T13:29:13Z</time>
      </trkpt>
      <trkpt lat="44.89282" lon="6.49058">
        <ele>1707.2</ele>
        <time>2024-08-11T13:29:14Z</time>
      </trkpt>
      <trkpt lat="44.89279" lon="6.49056">
        <ele>1707</ele>
        <time>2024-08-11T13:29:15Z</time>
      </trkpt>
      <trkpt lat="44.89279" lon="6.49056">
        <ele>1707</ele>
        <time>2024-08-11T13:29:16Z</time>
      </trkpt>
      <trkpt lat="44.89277" lon="6.49053">
        <ele>1707</ele>
        <time>2024-08-11T13:29:17Z</time>
      </trkpt>
      <trkpt lat="44.89277" lon="6.49053">
        <ele>1707</ele>
        <time>2024-08-11T13:29:18Z</time>
      </trkpt>
      <trkpt lat="44.89274" lon="6.49051">
        <ele>1706.8</ele>
        <time>2024-08-11T13:29:19Z</time>
      </trkpt>
      <trkpt lat="44.89272" lon="6.4905">
        <ele>1706.6</ele>
        <time>2024-08-11T13:29:20Z</time>
      </trkpt>
      <trkpt lat="44.89272" lon="6.4905">
        <ele>1706.6</ele>
        <time>2024-08-11T13:29:21Z</time>
      </trkpt>
      <trkpt lat="44.8927" lon="6.49048">
        <ele>1706.4</ele>
        <time>2024-08-11T13:29:22Z</time>
      </trkpt>
      <trkpt lat="44.8927" lon="6.49048">
        <ele>1706.4</ele>
        <time>2024-08-11T13:29:23Z</time>
      </trkpt>
      <trkpt lat="44.89267" lon="6.49046">
        <ele>1706.4</ele>
        <time>2024-08-11T13:29:24Z</time>
      </trkpt>
      <trkpt lat="44.89267" lon="6.49046">
        <ele>1706.4</ele>
        <time>2024-08-11T13:29:25Z</time>
      </trkpt>
      <trkpt lat="44.89265" lon="6.49044">
        <ele>1706.4</ele>
        <time>2024-08-11T13:29:26Z</time>
      </trkpt>
      <trkpt lat="44.89265" lon="6.49044">
        <ele>1706.2</ele>
        <time>2024-08-11T13:29:27Z</time>
      </trkpt>
      <trkpt lat="44.89262" lon="6.49042">
        <ele>1706</ele>
        <time>2024-08-11T13:29:28Z</time>
      </trkpt>
      <trkpt lat="44.89262" lon="6.49042">
        <ele>1705.8</ele>
        <time>2024-08-11T13:29:29Z</time>
      </trkpt>
      <trkpt lat="44.89259" lon="6.49041">
        <ele>1705.8</ele>
        <time>2024-08-11T13:29:30Z</time>
      </trkpt>
      <trkpt lat="44.89257" lon="6.4904">
        <ele>1705.6</ele>
        <time>2024-08-11T13:29:31Z</time>
      </trkpt>
      <trkpt lat="44.89257" lon="6.4904">
        <ele>1705.6</ele>
        <time>2024-08-11T13:29:32Z</time>
      </trkpt>
      <trkpt lat="44.89254" lon="6.4904">
        <ele>1705.4</ele>
        <time>2024-08-11T13:29:33Z</time>
      </trkpt>
      <trkpt lat="44.89252" lon="6.4904">
        <ele>1705.2</ele>
        <time>2024-08-11T13:29:34Z</time>
      </trkpt>
      <trkpt lat="44.8925" lon="6.49041">
        <ele>1705.2</ele>
        <time>2024-08-11T13:29:35Z</time>
      </trkpt>
      <trkpt lat="44.8925" lon="6.49041">
        <ele>1705.2</ele>
        <time>2024-08-11T13:29:36Z</time>
      </trkpt>
      <trkpt lat="44.89248" lon="6.49041">
        <ele>1705.4</ele>
        <time>2024-08-11T13:29:37Z</time>
      </trkpt>
      <trkpt lat="44.89248" lon="6.49041">
        <ele>1705.4</ele>
        <time>2024-08-11T13:29:38Z</time>
      </trkpt>
      <trkpt lat="44.89246" lon="6.49042">
        <ele>1705.4</ele>
        <time>2024-08-11T13:29:39Z</time>
      </trkpt>
      <trkpt lat="44.89246" lon="6.49042">
        <ele>1705.2</ele>
        <time>2024-08-11T13:29:40Z</time>
      </trkpt>
      <trkpt lat="44.89243" lon="6.49042">
        <ele>1705.2</ele>
        <time>2024-08-11T13:29:41Z</time>
      </trkpt>
      <trkpt lat="44.89243" lon="6.49042">
        <ele>1705</ele>
        <time>2024-08-11T13:29:42Z</time>
      </trkpt>
      <trkpt lat="44.89241" lon="6.49042">
        <ele>1704.8</ele>
        <time>2024-08-11T13:29:43Z</time>
      </trkpt>
      <trkpt lat="44.89241" lon="6.49042">
        <ele>1704.4</ele>
        <time>2024-08-11T13:29:44Z</time>
      </trkpt>
      <trkpt lat="44.89238" lon="6.49043">
        <ele>1704.4</ele>
        <time>2024-08-11T13:29:45Z</time>
      </trkpt>
      <trkpt lat="44.89238" lon="6.49043">
        <ele>1704.4</ele>
        <time>2024-08-11T13:29:46Z</time>
      </trkpt>
      <trkpt lat="44.89236" lon="6.49044">
        <ele>1704.4</ele>
        <time>2024-08-11T13:29:47Z</time>
      </trkpt>
      <trkpt lat="44.89236" lon="6.49044">
        <ele>1704.2</ele>
        <time>2024-08-11T13:29:48Z</time>
      </trkpt>
      <trkpt lat="44.89233" lon="6.49045">
        <ele>1704.2</ele>
        <time>2024-08-11T13:29:49Z</time>
      </trkpt>
      <trkpt lat="44.89233" lon="6.49045">
        <ele>1703.8</ele>
        <time>2024-08-11T13:29:50Z</time>
      </trkpt>
      <trkpt lat="44.8923" lon="6.49046">
        <ele>1703.4</ele>
        <time>2024-08-11T13:29:51Z</time>
      </trkpt>
      <trkpt lat="44.8923" lon="6.49046">
        <ele>1703.4</ele>
        <time>2024-08-11T13:29:52Z</time>
      </trkpt>
      <trkpt lat="44.89227" lon="6.49046">
        <ele>1703.4</ele>
        <time>2024-08-11T13:29:53Z</time>
      </trkpt>
      <trkpt lat="44.89227" lon="6.49046">
        <ele>1703.2</ele>
        <time>2024-08-11T13:29:54Z</time>
      </trkpt>
      <trkpt lat="44.89224" lon="6.49046">
        <ele>1703</ele>
        <time>2024-08-11T13:29:55Z</time>
      </trkpt>
      <trkpt lat="44.89224" lon="6.49046">
        <ele>1702.4</ele>
        <time>2024-08-11T13:29:56Z</time>
      </trkpt>
      <trkpt lat="44.89222" lon="6.49045">
        <ele>1702.4</ele>
        <time>2024-08-11T13:29:57Z</time>
      </trkpt>
      <trkpt lat="44.89222" lon="6.49045">
        <ele>1702.2</ele>
        <time>2024-08-11T13:29:58Z</time>
      </trkpt>
      <trkpt lat="44.89219" lon="6.49045">
        <ele>1702</ele>
        <time>2024-08-11T13:29:59Z</time>
      </trkpt>
      <trkpt lat="44.89219" lon="6.49045">
        <ele>1702</ele>
        <time>2024-08-11T13:30:00Z</time>
      </trkpt>
      <trkpt lat="44.89217" lon="6.49044">
        <ele>1702</ele>
        <time>2024-08-11T13:30:01Z</time>
      </trkpt>
      <trkpt lat="44.89217" lon="6.49044">
        <ele>1701.6</ele>
        <time>2024-08-11T13:30:02Z</time>
      </trkpt>
      <trkpt lat="44.89214" lon="6.49044">
        <ele>1701.4</ele>
        <time>2024-08-11T13:30:03Z</time>
      </trkpt>
      <trkpt lat="44.89214" lon="6.49044">
        <ele>1701</ele>
        <time>2024-08-11T13:30:04Z</time>
      </trkpt>
      <trkpt lat="44.89212" lon="6.49043">
        <ele>1700.8</ele>
        <time>2024-08-11T13:30:05Z</time>
      </trkpt>
      <trkpt lat="44.89212" lon="6.49043">
        <ele>1700.8</ele>
        <time>2024-08-11T13:30:06Z</time>
      </trkpt>
      <trkpt lat="44.89209" lon="6.49042">
        <ele>1700.6</ele>
        <time>2024-08-11T13:30:07Z</time>
      </trkpt>
      <trkpt lat="44.89209" lon="6.49042">
        <ele>1700.2</ele>
        <time>2024-08-11T13:30:08Z</time>
      </trkpt>
      <trkpt lat="44.89206" lon="6.49041">
        <ele>1699.8</ele>
        <time>2024-08-11T13:30:09Z</time>
      </trkpt>
      <trkpt lat="44.89206" lon="6.49041">
        <ele>1699.6</ele>
        <time>2024-08-11T13:30:10Z</time>
      </trkpt>
      <trkpt lat="44.89204" lon="6.49041">
        <ele>1699.4</ele>
        <time>2024-08-11T13:30:11Z</time>
      </trkpt>
      <trkpt lat="44.89204" lon="6.49041">
        <ele>1699.2</ele>
        <time>2024-08-11T13:30:12Z</time>
      </trkpt>
      <trkpt lat="44.89201" lon="6.4904">
        <ele>1699</ele>
        <time>2024-08-11T13:30:13Z</time>
      </trkpt>
      <trkpt lat="44.89201" lon="6.4904">
        <ele>1698.6</ele>
        <time>2024-08-11T13:30:14Z</time>
      </trkpt>
      <trkpt lat="44.89198" lon="6.4904">
        <ele>1698.2</ele>
        <time>2024-08-11T13:30:15Z</time>
      </trkpt>
      <trkpt lat="44.89198" lon="6.4904">
        <ele>1698</ele>
        <time>2024-08-11T13:30:16Z</time>
      </trkpt>
      <trkpt lat="44.89196" lon="6.4904">
        <ele>1697.8</ele>
        <time>2024-08-11T13:30:17Z</time>
      </trkpt>
      <trkpt lat="44.89196" lon="6.4904">
        <ele>1697.8</ele>
        <time>2024-08-11T13:30:18Z</time>
      </trkpt>
      <trkpt lat="44.89193" lon="6.4904">
        <ele>1697.6</ele>
        <time>2024-08-11T13:30:19Z</time>
      </trkpt>
      <trkpt lat="44.89193" lon="6.4904">
        <ele>1697.4</ele>
        <time>2024-08-11T13:30:20Z</time>
      </trkpt>
      <trkpt lat="44.8919" lon="6.4904">
        <ele>1697.2</ele>
        <time>2024-08-11T13:30:21Z</time>
      </trkpt>
      <trkpt lat="44.8919" lon="6.4904">
        <ele>1696.8</ele>
        <time>2024-08-11T13:30:22Z</time>
      </trkpt>
      <trkpt lat="44.89188" lon="6.49041">
        <ele>1696.4</ele>
        <time>2024-08-11T13:30:23Z</time>
      </trkpt>
      <trkpt lat="44.89188" lon="6.49041">
        <ele>1696.2</ele>
        <time>2024-08-11T13:30:24Z</time>
      </trkpt>
      <trkpt lat="44.89185" lon="6.49041">
        <ele>1696.2</ele>
        <time>2024-08-11T13:30:25Z</time>
      </trkpt>
      <trkpt lat="44.89185" lon="6.49041">
        <ele>1696</ele>
        <time>2024-08-11T13:30:26Z</time>
      </trkpt>
      <trkpt lat="44.89183" lon="6.49042">
        <ele>1695.2</ele>
        <time>2024-08-11T13:30:27Z</time>
      </trkpt>
      <trkpt lat="44.89183" lon="6.49042">
        <ele>1695</ele>
        <time>2024-08-11T13:30:28Z</time>
      </trkpt>
      <trkpt lat="44.8918" lon="6.49044">
        <ele>1695</ele>
        <time>2024-08-11T13:30:29Z</time>
      </trkpt>
      <trkpt lat="44.8918" lon="6.49044">
        <ele>1695</ele>
        <time>2024-08-11T13:30:30Z</time>
      </trkpt>
      <trkpt lat="44.89178" lon="6.49046">
        <ele>1695</ele>
        <time>2024-08-11T13:30:31Z</time>
      </trkpt>
      <trkpt lat="44.89178" lon="6.49046">
        <ele>1694.8</ele>
        <time>2024-08-11T13:30:32Z</time>
      </trkpt>
      <trkpt lat="44.89176" lon="6.49048">
        <ele>1694.6</ele>
        <time>2024-08-11T13:30:33Z</time>
      </trkpt>
      <trkpt lat="44.89176" lon="6.49048">
        <ele>1694.4</ele>
        <time>2024-08-11T13:30:34Z</time>
      </trkpt>
      <trkpt lat="44.89174" lon="6.49049">
        <ele>1694.4</ele>
        <time>2024-08-11T13:30:35Z</time>
      </trkpt>
      <trkpt lat="44.89174" lon="6.49049">
        <ele>1694</ele>
        <time>2024-08-11T13:30:36Z</time>
      </trkpt>
      <trkpt lat="44.89172" lon="6.49051">
        <ele>1693.6</ele>
        <time>2024-08-11T13:30:37Z</time>
      </trkpt>
      <trkpt lat="44.89172" lon="6.49051">
        <ele>1693.4</ele>
        <time>2024-08-11T13:30:38Z</time>
      </trkpt>
      <trkpt lat="44.89169" lon="6.49052">
        <ele>1693.2</ele>
        <time>2024-08-11T13:30:39Z</time>
      </trkpt>
      <trkpt lat="44.89169" lon="6.49052">
        <ele>1693</ele>
        <time>2024-08-11T13:30:40Z</time>
      </trkpt>
      <trkpt lat="44.89167" lon="6.49054">
        <ele>1692.8</ele>
        <time>2024-08-11T13:30:41Z</time>
      </trkpt>
      <trkpt lat="44.89167" lon="6.49054">
        <ele>1692.6</ele>
        <time>2024-08-11T13:30:42Z</time>
      </trkpt>
      <trkpt lat="44.89165" lon="6.49056">
        <ele>1692.4</ele>
        <time>2024-08-11T13:30:43Z</time>
      </trkpt>
      <trkpt lat="44.89165" lon="6.49056">
        <ele>1692.4</ele>
        <time>2024-08-11T13:30:44Z</time>
      </trkpt>
      <trkpt lat="44.89163" lon="6.49057">
        <ele>1692</ele>
        <time>2024-08-11T13:30:45Z</time>
      </trkpt>
      <trkpt lat="44.89163" lon="6.49057">
        <ele>1691.8</ele>
        <time>2024-08-11T13:30:46Z</time>
      </trkpt>
      <trkpt lat="44.8916" lon="6.49058">
        <ele>1691.6</ele>
        <time>2024-08-11T13:30:47Z</time>
      </trkpt>
      <trkpt lat="44.8916" lon="6.49058">
        <ele>1691.4</ele>
        <time>2024-08-11T13:30:48Z</time>
      </trkpt>
      <trkpt lat="44.89157" lon="6.49059">
        <ele>1691.2</ele>
        <time>2024-08-11T13:30:49Z</time>
      </trkpt>
      <trkpt lat="44.89157" lon="6.49059">
        <ele>1691</ele>
        <time>2024-08-11T13:30:50Z</time>
      </trkpt>
      <trkpt lat="44.89155" lon="6.4906">
        <ele>1691</ele>
        <time>2024-08-11T13:30:51Z</time>
      </trkpt>
      <trkpt lat="44.89155" lon="6.4906">
        <ele>1691</ele>
        <time>2024-08-11T13:30:52Z</time>
      </trkpt>
      <trkpt lat="44.89153" lon="6.49062">
        <ele>1690.6</ele>
        <time>2024-08-11T13:30:53Z</time>
      </trkpt>
      <trkpt lat="44.89153" lon="6.49062">
        <ele>1690.6</ele>
        <time>2024-08-11T13:30:54Z</time>
      </trkpt>
      <trkpt lat="44.89151" lon="6.49064">
        <ele>1690.4</ele>
        <time>2024-08-11T13:30:55Z</time>
      </trkpt>
      <trkpt lat="44.89151" lon="6.49064">
        <ele>1690.4</ele>
        <time>2024-08-11T13:30:56Z</time>
      </trkpt>
      <trkpt lat="44.89149" lon="6.49067">
        <ele>1690.2</ele>
        <time>2024-08-11T13:30:57Z</time>
      </trkpt>
      <trkpt lat="44.89149" lon="6.49067">
        <ele>1689.8</ele>
        <time>2024-08-11T13:30:58Z</time>
      </trkpt>
      <trkpt lat="44.89147" lon="6.49071">
        <ele>1689.6</ele>
        <time>2024-08-11T13:30:59Z</time>
      </trkpt>
      <trkpt lat="44.89147" lon="6.49071">
        <ele>1689.6</ele>
        <time>2024-08-11T13:31:00Z</time>
      </trkpt>
      <trkpt lat="44.89145" lon="6.49073">
        <ele>1689.6</ele>
        <time>2024-08-11T13:31:01Z</time>
      </trkpt>
      <trkpt lat="44.89145" lon="6.49073">
        <ele>1689</ele>
        <time>2024-08-11T13:31:02Z</time>
      </trkpt>
      <trkpt lat="44.89143" lon="6.49075">
        <ele>1689</ele>
        <time>2024-08-11T13:31:03Z</time>
      </trkpt>
      <trkpt lat="44.89143" lon="6.49075">
        <ele>1688.8</ele>
        <time>2024-08-11T13:31:04Z</time>
      </trkpt>
      <trkpt lat="44.8914" lon="6.49077">
        <ele>1688.4</ele>
        <time>2024-08-11T13:31:05Z</time>
      </trkpt>
      <trkpt lat="44.8914" lon="6.49077">
        <ele>1688.2</ele>
        <time>2024-08-11T13:31:06Z</time>
      </trkpt>
      <trkpt lat="44.89139" lon="6.49079">
        <ele>1688.2</ele>
        <time>2024-08-11T13:31:07Z</time>
      </trkpt>
      <trkpt lat="44.89139" lon="6.49079">
        <ele>1688.2</ele>
        <time>2024-08-11T13:31:08Z</time>
      </trkpt>
      <trkpt lat="44.89136" lon="6.49081">
        <ele>1688</ele>
        <time>2024-08-11T13:31:09Z</time>
      </trkpt>
      <trkpt lat="44.89136" lon="6.49081">
        <ele>1687.8</ele>
        <time>2024-08-11T13:31:10Z</time>
      </trkpt>
      <trkpt lat="44.89134" lon="6.49082">
        <ele>1687.6</ele>
        <time>2024-08-11T13:31:11Z</time>
      </trkpt>
      <trkpt lat="44.89134" lon="6.49082">
        <ele>1687.6</ele>
        <time>2024-08-11T13:31:12Z</time>
      </trkpt>
      <trkpt lat="44.89131" lon="6.49084">
        <ele>1687.2</ele>
        <time>2024-08-11T13:31:13Z</time>
      </trkpt>
      <trkpt lat="44.89131" lon="6.49084">
        <ele>1687</ele>
        <time>2024-08-11T13:31:14Z</time>
      </trkpt>
      <trkpt lat="44.89128" lon="6.49085">
        <ele>1687</ele>
        <time>2024-08-11T13:31:15Z</time>
      </trkpt>
      <trkpt lat="44.89126" lon="6.49085">
        <ele>1687</ele>
        <time>2024-08-11T13:31:16Z</time>
      </trkpt>
      <trkpt lat="44.89126" lon="6.49085">
        <ele>1687</ele>
        <time>2024-08-11T13:31:17Z</time>
      </trkpt>
      <trkpt lat="44.89124" lon="6.49086">
        <ele>1686.6</ele>
        <time>2024-08-11T13:31:18Z</time>
      </trkpt>
      <trkpt lat="44.89124" lon="6.49086">
        <ele>1686.4</ele>
        <time>2024-08-11T13:31:19Z</time>
      </trkpt>
      <trkpt lat="44.89121" lon="6.49087">
        <ele>1686.4</ele>
        <time>2024-08-11T13:31:20Z</time>
      </trkpt>
      <trkpt lat="44.89121" lon="6.49087">
        <ele>1686.2</ele>
        <time>2024-08-11T13:31:21Z</time>
      </trkpt>
      <trkpt lat="44.89119" lon="6.49088">
        <ele>1685.8</ele>
        <time>2024-08-11T13:31:22Z</time>
      </trkpt>
      <trkpt lat="44.89119" lon="6.49088">
        <ele>1685.8</ele>
        <time>2024-08-11T13:31:23Z</time>
      </trkpt>
      <trkpt lat="44.89116" lon="6.49089">
        <ele>1685.6</ele>
        <time>2024-08-11T13:31:24Z</time>
      </trkpt>
      <trkpt lat="44.89116" lon="6.49089">
        <ele>1685.4</ele>
        <time>2024-08-11T13:31:25Z</time>
      </trkpt>
      <trkpt lat="44.89114" lon="6.4909">
        <ele>1685.2</ele>
        <time>2024-08-11T13:31:26Z</time>
      </trkpt>
      <trkpt lat="44.89114" lon="6.4909">
        <ele>1685</ele>
        <time>2024-08-11T13:31:27Z</time>
      </trkpt>
      <trkpt lat="44.89111" lon="6.49091">
        <ele>1684.8</ele>
        <time>2024-08-11T13:31:28Z</time>
      </trkpt>
      <trkpt lat="44.89111" lon="6.49091">
        <ele>1684.8</ele>
        <time>2024-08-11T13:31:29Z</time>
      </trkpt>
      <trkpt lat="44.89109" lon="6.49091">
        <ele>1684.8</ele>
        <time>2024-08-11T13:31:30Z</time>
      </trkpt>
      <trkpt lat="44.89109" lon="6.49091">
        <ele>1684.6</ele>
        <time>2024-08-11T13:31:31Z</time>
      </trkpt>
      <trkpt lat="44.89106" lon="6.49092">
        <ele>1684.4</ele>
        <time>2024-08-11T13:31:32Z</time>
      </trkpt>
      <trkpt lat="44.89106" lon="6.49092">
        <ele>1684</ele>
        <time>2024-08-11T13:31:33Z</time>
      </trkpt>
      <trkpt lat="44.89103" lon="6.49093">
        <ele>1683.6</ele>
        <time>2024-08-11T13:31:34Z</time>
      </trkpt>
      <trkpt lat="44.89103" lon="6.49093">
        <ele>1683.6</ele>
        <time>2024-08-11T13:31:35Z</time>
      </trkpt>
      <trkpt lat="44.89101" lon="6.49094">
        <ele>1683.4</ele>
        <time>2024-08-11T13:31:36Z</time>
      </trkpt>
      <trkpt lat="44.89101" lon="6.49094">
        <ele>1683.4</ele>
        <time>2024-08-11T13:31:37Z</time>
      </trkpt>
      <trkpt lat="44.89099" lon="6.49095">
        <ele>1683.4</ele>
        <time>2024-08-11T13:31:38Z</time>
      </trkpt>
      <trkpt lat="44.89099" lon="6.49095">
        <ele>1683.4</ele>
        <time>2024-08-11T13:31:39Z</time>
      </trkpt>
      <trkpt lat="44.89095" lon="6.49096">
        <ele>1683.4</ele>
        <time>2024-08-11T13:31:40Z</time>
      </trkpt>
      <trkpt lat="44.89095" lon="6.49096">
        <ele>1683.2</ele>
        <time>2024-08-11T13:31:41Z</time>
      </trkpt>
      <trkpt lat="44.89093" lon="6.49098">
        <ele>1683</ele>
        <time>2024-08-11T13:31:42Z</time>
      </trkpt>
      <trkpt lat="44.89093" lon="6.49098">
        <ele>1682.8</ele>
        <time>2024-08-11T13:31:43Z</time>
      </trkpt>
      <trkpt lat="44.8909" lon="6.49098">
        <ele>1682.8</ele>
        <time>2024-08-11T13:31:44Z</time>
      </trkpt>
      <trkpt lat="44.8909" lon="6.49098">
        <ele>1682.8</ele>
        <time>2024-08-11T13:31:45Z</time>
      </trkpt>
      <trkpt lat="44.89088" lon="6.49098">
        <ele>1682.4</ele>
        <time>2024-08-11T13:31:46Z</time>
      </trkpt>
      <trkpt lat="44.89088" lon="6.49098">
        <ele>1682.4</ele>
        <time>2024-08-11T13:31:47Z</time>
      </trkpt>
      <trkpt lat="44.89086" lon="6.49097">
        <ele>1682.4</ele>
        <time>2024-08-11T13:31:48Z</time>
      </trkpt>
      <trkpt lat="44.89086" lon="6.49097">
        <ele>1682.2</ele>
        <time>2024-08-11T13:31:49Z</time>
      </trkpt>
      <trkpt lat="44.89086" lon="6.49097">
        <ele>1682</ele>
        <time>2024-08-11T13:31:50Z</time>
      </trkpt>
      <trkpt lat="44.89086" lon="6.49097">
        <ele>1682</ele>
        <time>2024-08-11T13:31:51Z</time>
      </trkpt>
      <trkpt lat="44.89086" lon="6.49097">
        <ele>1682.2</ele>
        <time>2024-08-11T13:31:52Z</time>
      </trkpt>
      <trkpt lat="44.89086" lon="6.49097">
        <ele>1682.2</ele>
        <time>2024-08-11T13:31:53Z</time>
      </trkpt>
      <trkpt lat="44.89086" lon="6.49097">
        <ele>1682</ele>
        <time>2024-08-11T13:31:54Z</time>
      </trkpt>
      <trkpt lat="44.89086" lon="6.49097">
        <ele>1682</ele>
        <time>2024-08-11T13:31:55Z</time>
      </trkpt>
      <trkpt lat="44.89086" lon="6.49097">
        <ele>1682.2</ele>
        <time>2024-08-11T13:31:56Z</time>
      </trkpt>
      <trkpt lat="44.89084" lon="6.49097">
        <ele>1682.2</ele>
        <time>2024-08-11T13:31:57Z</time>
      </trkpt>
      <trkpt lat="44.89084" lon="6.49097">
        <ele>1681.6</ele>
        <time>2024-08-11T13:31:58Z</time>
      </trkpt>
      <trkpt lat="44.8908" lon="6.49096">
        <ele>1681.2</ele>
        <time>2024-08-11T13:31:59Z</time>
      </trkpt>
      <trkpt lat="44.89078" lon="6.49096">
        <ele>1681.2</ele>
        <time>2024-08-11T13:32:00Z</time>
      </trkpt>
      <trkpt lat="44.89078" lon="6.49096">
        <ele>1680.8</ele>
        <time>2024-08-11T13:32:01Z</time>
      </trkpt>
      <trkpt lat="44.89076" lon="6.49095">
        <ele>1680.8</ele>
        <time>2024-08-11T13:32:02Z</time>
      </trkpt>
      <trkpt lat="44.89076" lon="6.49095">
        <ele>1680.8</ele>
        <time>2024-08-11T13:32:03Z</time>
      </trkpt>
      <trkpt lat="44.89073" lon="6.49095">
        <ele>1680.6</ele>
        <time>2024-08-11T13:32:04Z</time>
      </trkpt>
      <trkpt lat="44.89073" lon="6.49095">
        <ele>1680.6</ele>
        <time>2024-08-11T13:32:05Z</time>
      </trkpt>
      <trkpt lat="44.8907" lon="6.49094">
        <ele>1680</ele>
        <time>2024-08-11T13:32:06Z</time>
      </trkpt>
      <trkpt lat="44.8907" lon="6.49094">
        <ele>1679.4</ele>
        <time>2024-08-11T13:32:07Z</time>
      </trkpt>
      <trkpt lat="44.89068" lon="6.49093">
        <ele>1679.4</ele>
        <time>2024-08-11T13:32:08Z</time>
      </trkpt>
      <trkpt lat="44.89068" lon="6.49093">
        <ele>1679.4</ele>
        <time>2024-08-11T13:32:09Z</time>
      </trkpt>
      <trkpt lat="44.89064" lon="6.49093">
        <ele>1679.4</ele>
        <time>2024-08-11T13:32:10Z</time>
      </trkpt>
      <trkpt lat="44.89064" lon="6.49093">
        <ele>1679.2</ele>
        <time>2024-08-11T13:32:11Z</time>
      </trkpt>
      <trkpt lat="44.89061" lon="6.49093">
        <ele>1679.2</ele>
        <time>2024-08-11T13:32:12Z</time>
      </trkpt>
      <trkpt lat="44.89061" lon="6.49093">
        <ele>1679.2</ele>
        <time>2024-08-11T13:32:13Z</time>
      </trkpt>
      <trkpt lat="44.89058" lon="6.49094">
        <ele>1679.6</ele>
        <time>2024-08-11T13:32:14Z</time>
      </trkpt>
      <trkpt lat="44.89058" lon="6.49094">
        <ele>1679.8</ele>
        <time>2024-08-11T13:32:15Z</time>
      </trkpt>
      <trkpt lat="44.89056" lon="6.49093">
        <ele>1679.8</ele>
        <time>2024-08-11T13:32:16Z</time>
      </trkpt>
      <trkpt lat="44.89056" lon="6.49093">
        <ele>1679.4</ele>
        <time>2024-08-11T13:32:17Z</time>
      </trkpt>
      <trkpt lat="44.89053" lon="6.49093">
        <ele>1679.4</ele>
        <time>2024-08-11T13:32:18Z</time>
      </trkpt>
      <trkpt lat="44.89051" lon="6.49092">
        <ele>1679.4</ele>
        <time>2024-08-11T13:32:19Z</time>
      </trkpt>
      <trkpt lat="44.89051" lon="6.49092">
        <ele>1679</ele>
        <time>2024-08-11T13:32:20Z</time>
      </trkpt>
      <trkpt lat="44.89048" lon="6.49091">
        <ele>1679</ele>
        <time>2024-08-11T13:32:21Z</time>
      </trkpt>
      <trkpt lat="44.89048" lon="6.49091">
        <ele>1679</ele>
        <time>2024-08-11T13:32:22Z</time>
      </trkpt>
      <trkpt lat="44.89045" lon="6.49091">
        <ele>1678.8</ele>
        <time>2024-08-11T13:32:23Z</time>
      </trkpt>
      <trkpt lat="44.89045" lon="6.49091">
        <ele>1678.8</ele>
        <time>2024-08-11T13:32:24Z</time>
      </trkpt>
      <trkpt lat="44.89043" lon="6.4909">
        <ele>1678.8</ele>
        <time>2024-08-11T13:32:25Z</time>
      </trkpt>
      <trkpt lat="44.89043" lon="6.4909">
        <ele>1678.6</ele>
        <time>2024-08-11T13:32:26Z</time>
      </trkpt>
      <trkpt lat="44.8904" lon="6.49089">
        <ele>1678.6</ele>
        <time>2024-08-11T13:32:27Z</time>
      </trkpt>
      <trkpt lat="44.89038" lon="6.49089">
        <ele>1678.4</ele>
        <time>2024-08-11T13:32:28Z</time>
      </trkpt>
      <trkpt lat="44.89038" lon="6.49089">
        <ele>1678.2</ele>
        <time>2024-08-11T13:32:29Z</time>
      </trkpt>
      <trkpt lat="44.89036" lon="6.49088">
        <ele>1678</ele>
        <time>2024-08-11T13:32:30Z</time>
      </trkpt>
      <trkpt lat="44.89036" lon="6.49088">
        <ele>1677.8</ele>
        <time>2024-08-11T13:32:31Z</time>
      </trkpt>
      <trkpt lat="44.89033" lon="6.49088">
        <ele>1677.6</ele>
        <time>2024-08-11T13:32:32Z</time>
      </trkpt>
      <trkpt lat="44.89033" lon="6.49088">
        <ele>1677.4</ele>
        <time>2024-08-11T13:32:33Z</time>
      </trkpt>
      <trkpt lat="44.8903" lon="6.49088">
        <ele>1677.2</ele>
        <time>2024-08-11T13:32:34Z</time>
      </trkpt>
      <trkpt lat="44.89028" lon="6.49088">
        <ele>1677.2</ele>
        <time>2024-08-11T13:32:35Z</time>
      </trkpt>
      <trkpt lat="44.89028" lon="6.49088">
        <ele>1677</ele>
        <time>2024-08-11T13:32:36Z</time>
      </trkpt>
      <trkpt lat="44.89025" lon="6.49088">
        <ele>1677</ele>
        <time>2024-08-11T13:32:37Z</time>
      </trkpt>
      <trkpt lat="44.89025" lon="6.49088">
        <ele>1677</ele>
        <time>2024-08-11T13:32:38Z</time>
      </trkpt>
      <trkpt lat="44.89025" lon="6.49088">
        <ele>1677</ele>
        <time>2024-08-11T13:32:39Z</time>
      </trkpt>
      <trkpt lat="44.89021" lon="6.49087">
        <ele>1676.6</ele>
        <time>2024-08-11T13:32:40Z</time>
      </trkpt>
      <trkpt lat="44.89021" lon="6.49087">
        <ele>1676.4</ele>
        <time>2024-08-11T13:32:41Z</time>
      </trkpt>
      <trkpt lat="44.89019" lon="6.49086">
        <ele>1676</ele>
        <time>2024-08-11T13:32:42Z</time>
      </trkpt>
      <trkpt lat="44.89019" lon="6.49086">
        <ele>1676</ele>
        <time>2024-08-11T13:32:43Z</time>
      </trkpt>
      <trkpt lat="44.89016" lon="6.49085">
        <ele>1676</ele>
        <time>2024-08-11T13:32:44Z</time>
      </trkpt>
      <trkpt lat="44.89016" lon="6.49085">
        <ele>1676</ele>
        <time>2024-08-11T13:32:45Z</time>
      </trkpt>
      <trkpt lat="44.89014" lon="6.49084">
        <ele>1675.6</ele>
        <time>2024-08-11T13:32:46Z</time>
      </trkpt>
      <trkpt lat="44.89014" lon="6.49084">
        <ele>1675.6</ele>
        <time>2024-08-11T13:32:47Z</time>
      </trkpt>
      <trkpt lat="44.89011" lon="6.49083">
        <ele>1675.6</ele>
        <time>2024-08-11T13:32:48Z</time>
      </trkpt>
      <trkpt lat="44.89011" lon="6.49083">
        <ele>1675.4</ele>
        <time>2024-08-11T13:32:49Z</time>
      </trkpt>
      <trkpt lat="44.89008" lon="6.49082">
        <ele>1675.4</ele>
        <time>2024-08-11T13:32:50Z</time>
      </trkpt>
      <trkpt lat="44.89008" lon="6.49082">
        <ele>1675.2</ele>
        <time>2024-08-11T13:32:51Z</time>
      </trkpt>
      <trkpt lat="44.89006" lon="6.49082">
        <ele>1675.2</ele>
        <time>2024-08-11T13:32:52Z</time>
      </trkpt>
      <trkpt lat="44.89006" lon="6.49082">
        <ele>1675</ele>
        <time>2024-08-11T13:32:53Z</time>
      </trkpt>
      <trkpt lat="44.89004" lon="6.49081">
        <ele>1674.8</ele>
        <time>2024-08-11T13:32:54Z</time>
      </trkpt>
      <trkpt lat="44.89004" lon="6.49081">
        <ele>1674.6</ele>
        <time>2024-08-11T13:32:55Z</time>
      </trkpt>
      <trkpt lat="44.89002" lon="6.49081">
        <ele>1674.4</ele>
        <time>2024-08-11T13:32:56Z</time>
      </trkpt>
      <trkpt lat="44.89002" lon="6.49081">
        <ele>1674.4</ele>
        <time>2024-08-11T13:32:57Z</time>
      </trkpt>
      <trkpt lat="44.88998" lon="6.49081">
        <ele>1674.2</ele>
        <time>2024-08-11T13:32:58Z</time>
      </trkpt>
      <trkpt lat="44.88998" lon="6.49081">
        <ele>1673.8</ele>
        <time>2024-08-11T13:32:59Z</time>
      </trkpt>
      <trkpt lat="44.88996" lon="6.4908">
        <ele>1673.6</ele>
        <time>2024-08-11T13:33:00Z</time>
      </trkpt>
      <trkpt lat="44.88996" lon="6.4908">
        <ele>1673.6</ele>
        <time>2024-08-11T13:33:01Z</time>
      </trkpt>
      <trkpt lat="44.88994" lon="6.4908">
        <ele>1673.2</ele>
        <time>2024-08-11T13:33:02Z</time>
      </trkpt>
      <trkpt lat="44.88994" lon="6.4908">
        <ele>1673.2</ele>
        <time>2024-08-11T13:33:03Z</time>
      </trkpt>
      <trkpt lat="44.88991" lon="6.4908">
        <ele>1673</ele>
        <time>2024-08-11T13:33:04Z</time>
      </trkpt>
      <trkpt lat="44.88991" lon="6.4908">
        <ele>1672.8</ele>
        <time>2024-08-11T13:33:05Z</time>
      </trkpt>
      <trkpt lat="44.88989" lon="6.49079">
        <ele>1672.6</ele>
        <time>2024-08-11T13:33:06Z</time>
      </trkpt>
      <trkpt lat="44.88987" lon="6.49079">
        <ele>1672.6</ele>
        <time>2024-08-11T13:33:07Z</time>
      </trkpt>
      <trkpt lat="44.88987" lon="6.49079">
        <ele>1672.6</ele>
        <time>2024-08-11T13:33:08Z</time>
      </trkpt>
      <trkpt lat="44.88984" lon="6.49079">
        <ele>1672.4</ele>
        <time>2024-08-11T13:33:09Z</time>
      </trkpt>
      <trkpt lat="44.88984" lon="6.49079">
        <ele>1672</ele>
        <time>2024-08-11T13:33:10Z</time>
      </trkpt>
      <trkpt lat="44.88981" lon="6.49078">
        <ele>1671.8</ele>
        <time>2024-08-11T13:33:11Z</time>
      </trkpt>
      <trkpt lat="44.88981" lon="6.49078">
        <ele>1671.8</ele>
        <time>2024-08-11T13:33:12Z</time>
      </trkpt>
      <trkpt lat="44.88978" lon="6.49077">
        <ele>1671.6</ele>
        <time>2024-08-11T13:33:13Z</time>
      </trkpt>
      <trkpt lat="44.88978" lon="6.49077">
        <ele>1671.6</ele>
        <time>2024-08-11T13:33:14Z</time>
      </trkpt>
      <trkpt lat="44.88976" lon="6.49077">
        <ele>1671.4</ele>
        <time>2024-08-11T13:33:15Z</time>
      </trkpt>
      <trkpt lat="44.88976" lon="6.49077">
        <ele>1671.2</ele>
        <time>2024-08-11T13:33:16Z</time>
      </trkpt>
      <trkpt lat="44.88974" lon="6.49077">
        <ele>1670.8</ele>
        <time>2024-08-11T13:33:17Z</time>
      </trkpt>
      <trkpt lat="44.88974" lon="6.49077">
        <ele>1670.8</ele>
        <time>2024-08-11T13:33:18Z</time>
      </trkpt>
      <trkpt lat="44.88971" lon="6.49077">
        <ele>1670.6</ele>
        <time>2024-08-11T13:33:19Z</time>
      </trkpt>
      <trkpt lat="44.88971" lon="6.49077">
        <ele>1670.4</ele>
        <time>2024-08-11T13:33:20Z</time>
      </trkpt>
      <trkpt lat="44.88969" lon="6.49077">
        <ele>1670.2</ele>
        <time>2024-08-11T13:33:21Z</time>
      </trkpt>
      <trkpt lat="44.88969" lon="6.49077">
        <ele>1670</ele>
        <time>2024-08-11T13:33:22Z</time>
      </trkpt>
      <trkpt lat="44.88967" lon="6.49078">
        <ele>1669.8</ele>
        <time>2024-08-11T13:33:23Z</time>
      </trkpt>
      <trkpt lat="44.88967" lon="6.49078">
        <ele>1669.6</ele>
        <time>2024-08-11T13:33:24Z</time>
      </trkpt>
      <trkpt lat="44.88964" lon="6.49078">
        <ele>1669.6</ele>
        <time>2024-08-11T13:33:25Z</time>
      </trkpt>
      <trkpt lat="44.88964" lon="6.49078">
        <ele>1669.8</ele>
        <time>2024-08-11T13:33:26Z</time>
      </trkpt>
      <trkpt lat="44.88961" lon="6.49078">
        <ele>1669.8</ele>
        <time>2024-08-11T13:33:27Z</time>
      </trkpt>
      <trkpt lat="44.88961" lon="6.49078">
        <ele>1669.2</ele>
        <time>2024-08-11T13:33:28Z</time>
      </trkpt>
      <trkpt lat="44.88957" lon="6.49079">
        <ele>1668.6</ele>
        <time>2024-08-11T13:33:29Z</time>
      </trkpt>
      <trkpt lat="44.88957" lon="6.49079">
        <ele>1668.4</ele>
        <time>2024-08-11T13:33:30Z</time>
      </trkpt>
      <trkpt lat="44.88955" lon="6.49079">
        <ele>1668.4</ele>
        <time>2024-08-11T13:33:31Z</time>
      </trkpt>
      <trkpt lat="44.88955" lon="6.49079">
        <ele>1668.2</ele>
        <time>2024-08-11T13:33:32Z</time>
      </trkpt>
      <trkpt lat="44.88952" lon="6.49079">
        <ele>1668.2</ele>
        <time>2024-08-11T13:33:33Z</time>
      </trkpt>
      <trkpt lat="44.88952" lon="6.49079">
        <ele>1668.2</ele>
        <time>2024-08-11T13:33:34Z</time>
      </trkpt>
      <trkpt lat="44.88949" lon="6.49079">
        <ele>1668</ele>
        <time>2024-08-11T13:33:35Z</time>
      </trkpt>
      <trkpt lat="44.88949" lon="6.49079">
        <ele>1667.6</ele>
        <time>2024-08-11T13:33:36Z</time>
      </trkpt>
      <trkpt lat="44.88946" lon="6.49079">
        <ele>1667.4</ele>
        <time>2024-08-11T13:33:37Z</time>
      </trkpt>
      <trkpt lat="44.88944" lon="6.49079">
        <ele>1667.4</ele>
        <time>2024-08-11T13:33:38Z</time>
      </trkpt>
      <trkpt lat="44.88942" lon="6.49079">
        <ele>1667.6</ele>
        <time>2024-08-11T13:33:39Z</time>
      </trkpt>
      <trkpt lat="44.88942" lon="6.49079">
        <ele>1667.6</ele>
        <time>2024-08-11T13:33:40Z</time>
      </trkpt>
      <trkpt lat="44.8894" lon="6.49079">
        <ele>1667.4</ele>
        <time>2024-08-11T13:33:41Z</time>
      </trkpt>
      <trkpt lat="44.8894" lon="6.49079">
        <ele>1667.2</ele>
        <time>2024-08-11T13:33:42Z</time>
      </trkpt>
      <trkpt lat="44.88937" lon="6.49078">
        <ele>1666.6</ele>
        <time>2024-08-11T13:33:43Z</time>
      </trkpt>
      <trkpt lat="44.88937" lon="6.49078">
        <ele>1666.2</ele>
        <time>2024-08-11T13:33:44Z</time>
      </trkpt>
      <trkpt lat="44.88935" lon="6.49078">
        <ele>1665.8</ele>
        <time>2024-08-11T13:33:45Z</time>
      </trkpt>
      <trkpt lat="44.88935" lon="6.49078">
        <ele>1665.6</ele>
        <time>2024-08-11T13:33:46Z</time>
      </trkpt>
      <trkpt lat="44.88932" lon="6.49078">
        <ele>1665.4</ele>
        <time>2024-08-11T13:33:47Z</time>
      </trkpt>
      <trkpt lat="44.88932" lon="6.49078">
        <ele>1665</ele>
        <time>2024-08-11T13:33:48Z</time>
      </trkpt>
      <trkpt lat="44.8893" lon="6.49077">
        <ele>1665</ele>
        <time>2024-08-11T13:33:49Z</time>
      </trkpt>
      <trkpt lat="44.8893" lon="6.49077">
        <ele>1665</ele>
        <time>2024-08-11T13:33:50Z</time>
      </trkpt>
      <trkpt lat="44.88927" lon="6.49076">
        <ele>1664.6</ele>
        <time>2024-08-11T13:33:51Z</time>
      </trkpt>
      <trkpt lat="44.88927" lon="6.49076">
        <ele>1664.2</ele>
        <time>2024-08-11T13:33:52Z</time>
      </trkpt>
      <trkpt lat="44.88925" lon="6.49075">
        <ele>1664</ele>
        <time>2024-08-11T13:33:53Z</time>
      </trkpt>
      <trkpt lat="44.88925" lon="6.49075">
        <ele>1663.8</ele>
        <time>2024-08-11T13:33:54Z</time>
      </trkpt>
      <trkpt lat="44.88922" lon="6.49075">
        <ele>1663.6</ele>
        <time>2024-08-11T13:33:55Z</time>
      </trkpt>
      <trkpt lat="44.88922" lon="6.49075">
        <ele>1663.6</ele>
        <time>2024-08-11T13:33:56Z</time>
      </trkpt>
      <trkpt lat="44.8892" lon="6.49074">
        <ele>1663.4</ele>
        <time>2024-08-11T13:33:57Z</time>
      </trkpt>
      <trkpt lat="44.8892" lon="6.49074">
        <ele>1663.2</ele>
        <time>2024-08-11T13:33:58Z</time>
      </trkpt>
      <trkpt lat="44.88917" lon="6.49073">
        <ele>1662.6</ele>
        <time>2024-08-11T13:33:59Z</time>
      </trkpt>
      <trkpt lat="44.88917" lon="6.49073">
        <ele>1662.4</ele>
        <time>2024-08-11T13:34:00Z</time>
      </trkpt>
      <trkpt lat="44.88915" lon="6.49071">
        <ele>1662.4</ele>
        <time>2024-08-11T13:34:01Z</time>
      </trkpt>
      <trkpt lat="44.88915" lon="6.49071">
        <ele>1662</ele>
        <time>2024-08-11T13:34:02Z</time>
      </trkpt>
      <trkpt lat="44.88912" lon="6.49071">
        <ele>1662</ele>
        <time>2024-08-11T13:34:03Z</time>
      </trkpt>
      <trkpt lat="44.88912" lon="6.49071">
        <ele>1661.6</ele>
        <time>2024-08-11T13:34:04Z</time>
      </trkpt>
      <trkpt lat="44.88909" lon="6.49069">
        <ele>1661.6</ele>
        <time>2024-08-11T13:34:05Z</time>
      </trkpt>
      <trkpt lat="44.88909" lon="6.49069">
        <ele>1661.4</ele>
        <time>2024-08-11T13:34:06Z</time>
      </trkpt>
      <trkpt lat="44.88907" lon="6.49068">
        <ele>1661.4</ele>
        <time>2024-08-11T13:34:07Z</time>
      </trkpt>
      <trkpt lat="44.88907" lon="6.49068">
        <ele>1661.2</ele>
        <time>2024-08-11T13:34:08Z</time>
      </trkpt>
      <trkpt lat="44.88905" lon="6.49067">
        <ele>1661</ele>
        <time>2024-08-11T13:34:09Z</time>
      </trkpt>
      <trkpt lat="44.88905" lon="6.49067">
        <ele>1660.8</ele>
        <time>2024-08-11T13:34:10Z</time>
      </trkpt>
      <trkpt lat="44.88902" lon="6.49066">
        <ele>1660.8</ele>
        <time>2024-08-11T13:34:11Z</time>
      </trkpt>
      <trkpt lat="44.889" lon="6.49066">
        <ele>1660.4</ele>
        <time>2024-08-11T13:34:12Z</time>
      </trkpt>
      <trkpt lat="44.889" lon="6.49066">
        <ele>1660.2</ele>
        <time>2024-08-11T13:34:13Z</time>
      </trkpt>
      <trkpt lat="44.88897" lon="6.49066">
        <ele>1660</ele>
        <time>2024-08-11T13:34:14Z</time>
      </trkpt>
      <trkpt lat="44.88897" lon="6.49066">
        <ele>1659.8</ele>
        <time>2024-08-11T13:34:15Z</time>
      </trkpt>
      <trkpt lat="44.88894" lon="6.49065">
        <ele>1659.4</ele>
        <time>2024-08-11T13:34:16Z</time>
      </trkpt>
      <trkpt lat="44.88894" lon="6.49065">
        <ele>1659.4</ele>
        <time>2024-08-11T13:34:17Z</time>
      </trkpt>
      <trkpt lat="44.88892" lon="6.49065">
        <ele>1659.4</ele>
        <time>2024-08-11T13:34:18Z</time>
      </trkpt>
      <trkpt lat="44.88892" lon="6.49065">
        <ele>1659.4</ele>
        <time>2024-08-11T13:34:19Z</time>
      </trkpt>
      <trkpt lat="44.88888" lon="6.49065">
        <ele>1659.2</ele>
        <time>2024-08-11T13:34:20Z</time>
      </trkpt>
      <trkpt lat="44.88888" lon="6.49065">
        <ele>1659</ele>
        <time>2024-08-11T13:34:21Z</time>
      </trkpt>
      <trkpt lat="44.88885" lon="6.49065">
        <ele>1658.8</ele>
        <time>2024-08-11T13:34:22Z</time>
      </trkpt>
      <trkpt lat="44.88885" lon="6.49065">
        <ele>1658.8</ele>
        <time>2024-08-11T13:34:23Z</time>
      </trkpt>
      <trkpt lat="44.88883" lon="6.49064">
        <ele>1658.6</ele>
        <time>2024-08-11T13:34:24Z</time>
      </trkpt>
      <trkpt lat="44.88883" lon="6.49064">
        <ele>1658.4</ele>
        <time>2024-08-11T13:34:25Z</time>
      </trkpt>
      <trkpt lat="44.88881" lon="6.49062">
        <ele>1658.2</ele>
        <time>2024-08-11T13:34:26Z</time>
      </trkpt>
      <trkpt lat="44.88881" lon="6.49062">
        <ele>1658</ele>
        <time>2024-08-11T13:34:27Z</time>
      </trkpt>
      <trkpt lat="44.88879" lon="6.49061">
        <ele>1658</ele>
        <time>2024-08-11T13:34:28Z</time>
      </trkpt>
      <trkpt lat="44.88879" lon="6.49061">
        <ele>1657.6</ele>
        <time>2024-08-11T13:34:29Z</time>
      </trkpt>
      <trkpt lat="44.88876" lon="6.49059">
        <ele>1657.6</ele>
        <time>2024-08-11T13:34:30Z</time>
      </trkpt>
      <trkpt lat="44.88874" lon="6.49059">
        <ele>1657.4</ele>
        <time>2024-08-11T13:34:31Z</time>
      </trkpt>
      <trkpt lat="44.88874" lon="6.49059">
        <ele>1657.2</ele>
        <time>2024-08-11T13:34:32Z</time>
      </trkpt>
      <trkpt lat="44.88871" lon="6.49059">
        <ele>1657</ele>
        <time>2024-08-11T13:34:33Z</time>
      </trkpt>
      <trkpt lat="44.88871" lon="6.49059">
        <ele>1657</ele>
        <time>2024-08-11T13:34:34Z</time>
      </trkpt>
      <trkpt lat="44.88869" lon="6.49058">
        <ele>1656.6</ele>
        <time>2024-08-11T13:34:35Z</time>
      </trkpt>
      <trkpt lat="44.88869" lon="6.49058">
        <ele>1656.2</ele>
        <time>2024-08-11T13:34:36Z</time>
      </trkpt>
      <trkpt lat="44.88866" lon="6.49058">
        <ele>1656</ele>
        <time>2024-08-11T13:34:37Z</time>
      </trkpt>
      <trkpt lat="44.88866" lon="6.49058">
        <ele>1655.6</ele>
        <time>2024-08-11T13:34:38Z</time>
      </trkpt>
      <trkpt lat="44.88863" lon="6.49057">
        <ele>1655.2</ele>
        <time>2024-08-11T13:34:39Z</time>
      </trkpt>
      <trkpt lat="44.88863" lon="6.49057">
        <ele>1655.2</ele>
        <time>2024-08-11T13:34:40Z</time>
      </trkpt>
      <trkpt lat="44.88861" lon="6.49057">
        <ele>1654.8</ele>
        <time>2024-08-11T13:34:41Z</time>
      </trkpt>
      <trkpt lat="44.88861" lon="6.49057">
        <ele>1654.6</ele>
        <time>2024-08-11T13:34:42Z</time>
      </trkpt>
      <trkpt lat="44.88858" lon="6.49056">
        <ele>1654.4</ele>
        <time>2024-08-11T13:34:43Z</time>
      </trkpt>
      <trkpt lat="44.88858" lon="6.49056">
        <ele>1654</ele>
        <time>2024-08-11T13:34:44Z</time>
      </trkpt>
      <trkpt lat="44.88855" lon="6.49054">
        <ele>1653.8</ele>
        <time>2024-08-11T13:34:45Z</time>
      </trkpt>
      <trkpt lat="44.88855" lon="6.49054">
        <ele>1653.4</ele>
        <time>2024-08-11T13:34:46Z</time>
      </trkpt>
      <trkpt lat="44.88853" lon="6.49053">
        <ele>1653</ele>
        <time>2024-08-11T13:34:47Z</time>
      </trkpt>
      <trkpt lat="44.88853" lon="6.49053">
        <ele>1652.6</ele>
        <time>2024-08-11T13:34:48Z</time>
      </trkpt>
      <trkpt lat="44.88851" lon="6.49051">
        <ele>1652.4</ele>
        <time>2024-08-11T13:34:49Z</time>
      </trkpt>
      <trkpt lat="44.88851" lon="6.49051">
        <ele>1652</ele>
        <time>2024-08-11T13:34:50Z</time>
      </trkpt>
      <trkpt lat="44.88849" lon="6.49049">
        <ele>1651.6</ele>
        <time>2024-08-11T13:34:51Z</time>
      </trkpt>
      <trkpt lat="44.88849" lon="6.49049">
        <ele>1651.2</ele>
        <time>2024-08-11T13:34:52Z</time>
      </trkpt>
      <trkpt lat="44.88847" lon="6.49047">
        <ele>1651</ele>
        <time>2024-08-11T13:34:53Z</time>
      </trkpt>
      <trkpt lat="44.88847" lon="6.49047">
        <ele>1651</ele>
        <time>2024-08-11T13:34:54Z</time>
      </trkpt>
      <trkpt lat="44.88844" lon="6.49045">
        <ele>1651</ele>
        <time>2024-08-11T13:34:55Z</time>
      </trkpt>
      <trkpt lat="44.88844" lon="6.49045">
        <ele>1651</ele>
        <time>2024-08-11T13:34:56Z</time>
      </trkpt>
      <trkpt lat="44.88841" lon="6.49044">
        <ele>1651</ele>
        <time>2024-08-11T13:34:57Z</time>
      </trkpt>
      <trkpt lat="44.88841" lon="6.49044">
        <ele>1650.8</ele>
        <time>2024-08-11T13:34:58Z</time>
      </trkpt>
      <trkpt lat="44.88839" lon="6.49042">
        <ele>1650.4</ele>
        <time>2024-08-11T13:34:59Z</time>
      </trkpt>
      <trkpt lat="44.88839" lon="6.49042">
        <ele>1650.4</ele>
        <time>2024-08-11T13:35:00Z</time>
      </trkpt>
      <trkpt lat="44.88836" lon="6.49041">
        <ele>1650.4</ele>
        <time>2024-08-11T13:35:01Z</time>
      </trkpt>
      <trkpt lat="44.88836" lon="6.49041">
        <ele>1650.4</ele>
        <time>2024-08-11T13:35:02Z</time>
      </trkpt>
      <trkpt lat="44.88833" lon="6.49039">
        <ele>1650.4</ele>
        <time>2024-08-11T13:35:03Z</time>
      </trkpt>
      <trkpt lat="44.88833" lon="6.49039">
        <ele>1650</ele>
        <time>2024-08-11T13:35:04Z</time>
      </trkpt>
      <trkpt lat="44.8883" lon="6.49038">
        <ele>1650</ele>
        <time>2024-08-11T13:35:05Z</time>
      </trkpt>
      <trkpt lat="44.8883" lon="6.49038">
        <ele>1650</ele>
        <time>2024-08-11T13:35:06Z</time>
      </trkpt>
      <trkpt lat="44.88828" lon="6.49037">
        <ele>1650</ele>
        <time>2024-08-11T13:35:07Z</time>
      </trkpt>
      <trkpt lat="44.88828" lon="6.49037">
        <ele>1649.6</ele>
        <time>2024-08-11T13:35:08Z</time>
      </trkpt>
      <trkpt lat="44.88825" lon="6.49036">
        <ele>1649.2</ele>
        <time>2024-08-11T13:35:09Z</time>
      </trkpt>
      <trkpt lat="44.88825" lon="6.49036">
        <ele>1649</ele>
        <time>2024-08-11T13:35:10Z</time>
      </trkpt>
      <trkpt lat="44.88822" lon="6.49035">
        <ele>1648.6</ele>
        <time>2024-08-11T13:35:11Z</time>
      </trkpt>
      <trkpt lat="44.88822" lon="6.49035">
        <ele>1648.4</ele>
        <time>2024-08-11T13:35:12Z</time>
      </trkpt>
      <trkpt lat="44.8882" lon="6.49035">
        <ele>1648.2</ele>
        <time>2024-08-11T13:35:13Z</time>
      </trkpt>
      <trkpt lat="44.8882" lon="6.49035">
        <ele>1648.2</ele>
        <time>2024-08-11T13:35:14Z</time>
      </trkpt>
      <trkpt lat="44.88817" lon="6.49035">
        <ele>1648</ele>
        <time>2024-08-11T13:35:15Z</time>
      </trkpt>
      <trkpt lat="44.88817" lon="6.49035">
        <ele>1647.6</ele>
        <time>2024-08-11T13:35:16Z</time>
      </trkpt>
      <trkpt lat="44.88814" lon="6.49035">
        <ele>1647.4</ele>
        <time>2024-08-11T13:35:17Z</time>
      </trkpt>
      <trkpt lat="44.88814" lon="6.49035">
        <ele>1647.2</ele>
        <time>2024-08-11T13:35:18Z</time>
      </trkpt>
      <trkpt lat="44.88812" lon="6.49034">
        <ele>1647</ele>
        <time>2024-08-11T13:35:19Z</time>
      </trkpt>
      <trkpt lat="44.88812" lon="6.49034">
        <ele>1646.8</ele>
        <time>2024-08-11T13:35:20Z</time>
      </trkpt>
      <trkpt lat="44.88809" lon="6.49034">
        <ele>1646.8</ele>
        <time>2024-08-11T13:35:21Z</time>
      </trkpt>
      <trkpt lat="44.88809" lon="6.49034">
        <ele>1646.4</ele>
        <time>2024-08-11T13:35:22Z</time>
      </trkpt>
      <trkpt lat="44.88806" lon="6.49032">
        <ele>1646</ele>
        <time>2024-08-11T13:35:23Z</time>
      </trkpt>
      <trkpt lat="44.88806" lon="6.49032">
        <ele>1645.8</ele>
        <time>2024-08-11T13:35:24Z</time>
      </trkpt>
      <trkpt lat="44.88804" lon="6.49031">
        <ele>1645.6</ele>
        <time>2024-08-11T13:35:25Z</time>
      </trkpt>
      <trkpt lat="44.88804" lon="6.49031">
        <ele>1645.4</ele>
        <time>2024-08-11T13:35:26Z</time>
      </trkpt>
      <trkpt lat="44.88801" lon="6.4903">
        <ele>1645.4</ele>
        <time>2024-08-11T13:35:27Z</time>
      </trkpt>
      <trkpt lat="44.88801" lon="6.4903">
        <ele>1645.2</ele>
        <time>2024-08-11T13:35:28Z</time>
      </trkpt>
      <trkpt lat="44.88798" lon="6.4903">
        <ele>1644.8</ele>
        <time>2024-08-11T13:35:29Z</time>
      </trkpt>
      <trkpt lat="44.88798" lon="6.4903">
        <ele>1644.6</ele>
        <time>2024-08-11T13:35:30Z</time>
      </trkpt>
      <trkpt lat="44.88796" lon="6.49029">
        <ele>1644.4</ele>
        <time>2024-08-11T13:35:31Z</time>
      </trkpt>
      <trkpt lat="44.88796" lon="6.49029">
        <ele>1643.6</ele>
        <time>2024-08-11T13:35:32Z</time>
      </trkpt>
      <trkpt lat="44.88793" lon="6.49028">
        <ele>1643.4</ele>
        <time>2024-08-11T13:35:33Z</time>
      </trkpt>
      <trkpt lat="44.88793" lon="6.49028">
        <ele>1643.2</ele>
        <time>2024-08-11T13:35:34Z</time>
      </trkpt>
      <trkpt lat="44.8879" lon="6.49027">
        <ele>1643</ele>
        <time>2024-08-11T13:35:35Z</time>
      </trkpt>
      <trkpt lat="44.8879" lon="6.49027">
        <ele>1643</ele>
        <time>2024-08-11T13:35:36Z</time>
      </trkpt>
      <trkpt lat="44.88787" lon="6.49026">
        <ele>1643.2</ele>
        <time>2024-08-11T13:35:37Z</time>
      </trkpt>
      <trkpt lat="44.88787" lon="6.49026">
        <ele>1643.2</ele>
        <time>2024-08-11T13:35:38Z</time>
      </trkpt>
      <trkpt lat="44.88784" lon="6.49024">
        <ele>1642.8</ele>
        <time>2024-08-11T13:35:39Z</time>
      </trkpt>
      <trkpt lat="44.88784" lon="6.49024">
        <ele>1642.2</ele>
        <time>2024-08-11T13:35:40Z</time>
      </trkpt>
      <trkpt lat="44.88782" lon="6.49023">
        <ele>1642</ele>
        <time>2024-08-11T13:35:41Z</time>
      </trkpt>
      <trkpt lat="44.88782" lon="6.49023">
        <ele>1642</ele>
        <time>2024-08-11T13:35:42Z</time>
      </trkpt>
      <trkpt lat="44.88779" lon="6.49022">
        <ele>1641.8</ele>
        <time>2024-08-11T13:35:43Z</time>
      </trkpt>
      <trkpt lat="44.88779" lon="6.49022">
        <ele>1641.6</ele>
        <time>2024-08-11T13:35:44Z</time>
      </trkpt>
      <trkpt lat="44.88776" lon="6.49021">
        <ele>1640.8</ele>
        <time>2024-08-11T13:35:45Z</time>
      </trkpt>
      <trkpt lat="44.88776" lon="6.49021">
        <ele>1640.8</ele>
        <time>2024-08-11T13:35:46Z</time>
      </trkpt>
      <trkpt lat="44.88773" lon="6.4902">
        <ele>1640.6</ele>
        <time>2024-08-11T13:35:47Z</time>
      </trkpt>
      <trkpt lat="44.88773" lon="6.4902">
        <ele>1640</ele>
        <time>2024-08-11T13:35:48Z</time>
      </trkpt>
      <trkpt lat="44.88771" lon="6.4902">
        <ele>1640</ele>
        <time>2024-08-11T13:35:49Z</time>
      </trkpt>
      <trkpt lat="44.88771" lon="6.4902">
        <ele>1640.2</ele>
        <time>2024-08-11T13:35:50Z</time>
      </trkpt>
      <trkpt lat="44.88768" lon="6.49019">
        <ele>1640</ele>
        <time>2024-08-11T13:35:51Z</time>
      </trkpt>
      <trkpt lat="44.88768" lon="6.49019">
        <ele>1640</ele>
        <time>2024-08-11T13:35:52Z</time>
      </trkpt>
      <trkpt lat="44.88765" lon="6.49018">
        <ele>1640.2</ele>
        <time>2024-08-11T13:35:53Z</time>
      </trkpt>
      <trkpt lat="44.88765" lon="6.49018">
        <ele>1640.2</ele>
        <time>2024-08-11T13:35:54Z</time>
      </trkpt>
      <trkpt lat="44.88762" lon="6.49017">
        <ele>1640</ele>
        <time>2024-08-11T13:35:55Z</time>
      </trkpt>
      <trkpt lat="44.88762" lon="6.49017">
        <ele>1639.6</ele>
        <time>2024-08-11T13:35:56Z</time>
      </trkpt>
      <trkpt lat="44.88759" lon="6.49016">
        <ele>1639.4</ele>
        <time>2024-08-11T13:35:57Z</time>
      </trkpt>
      <trkpt lat="44.88759" lon="6.49016">
        <ele>1639.4</ele>
        <time>2024-08-11T13:35:58Z</time>
      </trkpt>
      <trkpt lat="44.88757" lon="6.49015">
        <ele>1639.4</ele>
        <time>2024-08-11T13:35:59Z</time>
      </trkpt>
      <trkpt lat="44.88757" lon="6.49015">
        <ele>1639.4</ele>
        <time>2024-08-11T13:36:00Z</time>
      </trkpt>
      <trkpt lat="44.88754" lon="6.49014">
        <ele>1639.2</ele>
        <time>2024-08-11T13:36:01Z</time>
      </trkpt>
      <trkpt lat="44.88754" lon="6.49014">
        <ele>1638.4</ele>
        <time>2024-08-11T13:36:02Z</time>
      </trkpt>
      <trkpt lat="44.88752" lon="6.49013">
        <ele>1638.4</ele>
        <time>2024-08-11T13:36:03Z</time>
      </trkpt>
      <trkpt lat="44.88752" lon="6.49013">
        <ele>1638.8</ele>
        <time>2024-08-11T13:36:04Z</time>
      </trkpt>
      <trkpt lat="44.88749" lon="6.49012">
        <ele>1638.8</ele>
        <time>2024-08-11T13:36:05Z</time>
      </trkpt>
      <trkpt lat="44.88749" lon="6.49012">
        <ele>1638.8</ele>
        <time>2024-08-11T13:36:06Z</time>
      </trkpt>
      <trkpt lat="44.88747" lon="6.49012">
        <ele>1638.8</ele>
        <time>2024-08-11T13:36:07Z</time>
      </trkpt>
      <trkpt lat="44.88747" lon="6.49012">
        <ele>1638.2</ele>
        <time>2024-08-11T13:36:08Z</time>
      </trkpt>
      <trkpt lat="44.88744" lon="6.49011">
        <ele>1638</ele>
        <time>2024-08-11T13:36:09Z</time>
      </trkpt>
      <trkpt lat="44.88744" lon="6.49011">
        <ele>1638</ele>
        <time>2024-08-11T13:36:10Z</time>
      </trkpt>
      <trkpt lat="44.88741" lon="6.49011">
        <ele>1637.8</ele>
        <time>2024-08-11T13:36:11Z</time>
      </trkpt>
      <trkpt lat="44.88741" lon="6.49011">
        <ele>1637.8</ele>
        <time>2024-08-11T13:36:12Z</time>
      </trkpt>
      <trkpt lat="44.88739" lon="6.4901">
        <ele>1637.8</ele>
        <time>2024-08-11T13:36:13Z</time>
      </trkpt>
      <trkpt lat="44.88739" lon="6.4901">
        <ele>1637.6</ele>
        <time>2024-08-11T13:36:14Z</time>
      </trkpt>
      <trkpt lat="44.88736" lon="6.49008">
        <ele>1637.4</ele>
        <time>2024-08-11T13:36:15Z</time>
      </trkpt>
      <trkpt lat="44.88736" lon="6.49008">
        <ele>1637.2</ele>
        <time>2024-08-11T13:36:16Z</time>
      </trkpt>
      <trkpt lat="44.88734" lon="6.49006">
        <ele>1636.8</ele>
        <time>2024-08-11T13:36:17Z</time>
      </trkpt>
      <trkpt lat="44.88732" lon="6.49005">
        <ele>1636.4</ele>
        <time>2024-08-11T13:36:18Z</time>
      </trkpt>
      <trkpt lat="44.88732" lon="6.49005">
        <ele>1636.2</ele>
        <time>2024-08-11T13:36:19Z</time>
      </trkpt>
      <trkpt lat="44.88729" lon="6.49005">
        <ele>1636.2</ele>
        <time>2024-08-11T13:36:20Z</time>
      </trkpt>
      <trkpt lat="44.88729" lon="6.49005">
        <ele>1636.4</ele>
        <time>2024-08-11T13:36:21Z</time>
      </trkpt>
      <trkpt lat="44.88726" lon="6.49004">
        <ele>1636.4</ele>
        <time>2024-08-11T13:36:22Z</time>
      </trkpt>
      <trkpt lat="44.88726" lon="6.49004">
        <ele>1636.2</ele>
        <time>2024-08-11T13:36:23Z</time>
      </trkpt>
      <trkpt lat="44.88723" lon="6.49003">
        <ele>1636.2</ele>
        <time>2024-08-11T13:36:24Z</time>
      </trkpt>
      <trkpt lat="44.88723" lon="6.49003">
        <ele>1635.8</ele>
        <time>2024-08-11T13:36:25Z</time>
      </trkpt>
      <trkpt lat="44.88721" lon="6.49001">
        <ele>1635.8</ele>
        <time>2024-08-11T13:36:26Z</time>
      </trkpt>
      <trkpt lat="44.88721" lon="6.49001">
        <ele>1635.8</ele>
        <time>2024-08-11T13:36:27Z</time>
      </trkpt>
      <trkpt lat="44.88718" lon="6.49">
        <ele>1635.2</ele>
        <time>2024-08-11T13:36:28Z</time>
      </trkpt>
      <trkpt lat="44.88718" lon="6.49">
        <ele>1634.8</ele>
        <time>2024-08-11T13:36:29Z</time>
      </trkpt>
      <trkpt lat="44.88716" lon="6.49">
        <ele>1634.6</ele>
        <time>2024-08-11T13:36:30Z</time>
      </trkpt>
      <trkpt lat="44.88716" lon="6.49">
        <ele>1634.6</ele>
        <time>2024-08-11T13:36:31Z</time>
      </trkpt>
      <trkpt lat="44.88714" lon="6.49">
        <ele>1634.4</ele>
        <time>2024-08-11T13:36:32Z</time>
      </trkpt>
      <trkpt lat="44.88714" lon="6.49">
        <ele>1634.4</ele>
        <time>2024-08-11T13:36:33Z</time>
      </trkpt>
      <trkpt lat="44.88712" lon="6.49">
        <ele>1634.2</ele>
        <time>2024-08-11T13:36:34Z</time>
      </trkpt>
      <trkpt lat="44.88712" lon="6.49">
        <ele>1634</ele>
        <time>2024-08-11T13:36:35Z</time>
      </trkpt>
      <trkpt lat="44.8871" lon="6.49">
        <ele>1634</ele>
        <time>2024-08-11T13:36:36Z</time>
      </trkpt>
      <trkpt lat="44.8871" lon="6.49">
        <ele>1633.8</ele>
        <time>2024-08-11T13:36:37Z</time>
      </trkpt>
      <trkpt lat="44.88707" lon="6.49">
        <ele>1633.6</ele>
        <time>2024-08-11T13:36:38Z</time>
      </trkpt>
      <trkpt lat="44.88707" lon="6.49">
        <ele>1633.4</ele>
        <time>2024-08-11T13:36:39Z</time>
      </trkpt>
      <trkpt lat="44.88705" lon="6.48999">
        <ele>1632.8</ele>
        <time>2024-08-11T13:36:40Z</time>
      </trkpt>
      <trkpt lat="44.88705" lon="6.48999">
        <ele>1632.2</ele>
        <time>2024-08-11T13:36:41Z</time>
      </trkpt>
      <trkpt lat="44.88702" lon="6.48998">
        <ele>1632.2</ele>
        <time>2024-08-11T13:36:42Z</time>
      </trkpt>
      <trkpt lat="44.88702" lon="6.48998">
        <ele>1632.2</ele>
        <time>2024-08-11T13:36:43Z</time>
      </trkpt>
      <trkpt lat="44.887" lon="6.48998">
        <ele>1632</ele>
        <time>2024-08-11T13:36:44Z</time>
      </trkpt>
      <trkpt lat="44.887" lon="6.48998">
        <ele>1631.8</ele>
        <time>2024-08-11T13:36:45Z</time>
      </trkpt>
      <trkpt lat="44.88697" lon="6.48998">
        <ele>1631.8</ele>
        <time>2024-08-11T13:36:46Z</time>
      </trkpt>
      <trkpt lat="44.88697" lon="6.48998">
        <ele>1631.6</ele>
        <time>2024-08-11T13:36:47Z</time>
      </trkpt>
      <trkpt lat="44.88695" lon="6.48997">
        <ele>1631.4</ele>
        <time>2024-08-11T13:36:48Z</time>
      </trkpt>
      <trkpt lat="44.88695" lon="6.48997">
        <ele>1631.2</ele>
        <time>2024-08-11T13:36:49Z</time>
      </trkpt>
      <trkpt lat="44.88693" lon="6.48996">
        <ele>1631</ele>
        <time>2024-08-11T13:36:50Z</time>
      </trkpt>
      <trkpt lat="44.88693" lon="6.48996">
        <ele>1631</ele>
        <time>2024-08-11T13:36:51Z</time>
      </trkpt>
      <trkpt lat="44.8869" lon="6.48995">
        <ele>1630.6</ele>
        <time>2024-08-11T13:36:52Z</time>
      </trkpt>
      <trkpt lat="44.8869" lon="6.48995">
        <ele>1630.2</ele>
        <time>2024-08-11T13:36:53Z</time>
      </trkpt>
      <trkpt lat="44.88687" lon="6.48993">
        <ele>1630</ele>
        <time>2024-08-11T13:36:54Z</time>
      </trkpt>
      <trkpt lat="44.88687" lon="6.48993">
        <ele>1630</ele>
        <time>2024-08-11T13:36:55Z</time>
      </trkpt>
      <trkpt lat="44.88685" lon="6.48992">
        <ele>1630</ele>
        <time>2024-08-11T13:36:56Z</time>
      </trkpt>
      <trkpt lat="44.88685" lon="6.48992">
        <ele>1630</ele>
        <time>2024-08-11T13:36:57Z</time>
      </trkpt>
      <trkpt lat="44.88682" lon="6.48991">
        <ele>1630</ele>
        <time>2024-08-11T13:36:58Z</time>
      </trkpt>
      <trkpt lat="44.88682" lon="6.48991">
        <ele>1629.8</ele>
        <time>2024-08-11T13:36:59Z</time>
      </trkpt>
      <trkpt lat="44.88679" lon="6.48989">
        <ele>1629.6</ele>
        <time>2024-08-11T13:37:00Z</time>
      </trkpt>
      <trkpt lat="44.88679" lon="6.48989">
        <ele>1629.2</ele>
        <time>2024-08-11T13:37:01Z</time>
      </trkpt>
      <trkpt lat="44.88677" lon="6.48989">
        <ele>1628.2</ele>
        <time>2024-08-11T13:37:02Z</time>
      </trkpt>
      <trkpt lat="44.88677" lon="6.48989">
        <ele>1628.2</ele>
        <time>2024-08-11T13:37:03Z</time>
      </trkpt>
      <trkpt lat="44.88674" lon="6.48989">
        <ele>1628</ele>
        <time>2024-08-11T13:37:04Z</time>
      </trkpt>
      <trkpt lat="44.88674" lon="6.48989">
        <ele>1628</ele>
        <time>2024-08-11T13:37:05Z</time>
      </trkpt>
      <trkpt lat="44.88671" lon="6.48987">
        <ele>1627.8</ele>
        <time>2024-08-11T13:37:06Z</time>
      </trkpt>
      <trkpt lat="44.88671" lon="6.48987">
        <ele>1627.6</ele>
        <time>2024-08-11T13:37:07Z</time>
      </trkpt>
      <trkpt lat="44.88669" lon="6.48986">
        <ele>1627.4</ele>
        <time>2024-08-11T13:37:08Z</time>
      </trkpt>
      <trkpt lat="44.88669" lon="6.48986">
        <ele>1627.2</ele>
        <time>2024-08-11T13:37:09Z</time>
      </trkpt>
      <trkpt lat="44.88666" lon="6.48985">
        <ele>1626.8</ele>
        <time>2024-08-11T13:37:10Z</time>
      </trkpt>
      <trkpt lat="44.88666" lon="6.48985">
        <ele>1626.8</ele>
        <time>2024-08-11T13:37:11Z</time>
      </trkpt>
      <trkpt lat="44.88663" lon="6.48984">
        <ele>1626.6</ele>
        <time>2024-08-11T13:37:12Z</time>
      </trkpt>
      <trkpt lat="44.88663" lon="6.48984">
        <ele>1626.6</ele>
        <time>2024-08-11T13:37:13Z</time>
      </trkpt>
      <trkpt lat="44.88661" lon="6.48984">
        <ele>1626.6</ele>
        <time>2024-08-11T13:37:14Z</time>
      </trkpt>
      <trkpt lat="44.88661" lon="6.48984">
        <ele>1626.8</ele>
        <time>2024-08-11T13:37:15Z</time>
      </trkpt>
      <trkpt lat="44.88657" lon="6.48983">
        <ele>1626.8</ele>
        <time>2024-08-11T13:37:16Z</time>
      </trkpt>
      <trkpt lat="44.88657" lon="6.48983">
        <ele>1626.8</ele>
        <time>2024-08-11T13:37:17Z</time>
      </trkpt>
      <trkpt lat="44.88655" lon="6.48981">
        <ele>1626.6</ele>
        <time>2024-08-11T13:37:18Z</time>
      </trkpt>
      <trkpt lat="44.88655" lon="6.48981">
        <ele>1626</ele>
        <time>2024-08-11T13:37:19Z</time>
      </trkpt>
      <trkpt lat="44.88653" lon="6.4898">
        <ele>1625.8</ele>
        <time>2024-08-11T13:37:20Z</time>
      </trkpt>
      <trkpt lat="44.88653" lon="6.4898">
        <ele>1625.6</ele>
        <time>2024-08-11T13:37:21Z</time>
      </trkpt>
      <trkpt lat="44.8865" lon="6.4898">
        <ele>1625.4</ele>
        <time>2024-08-11T13:37:22Z</time>
      </trkpt>
      <trkpt lat="44.8865" lon="6.4898">
        <ele>1625.4</ele>
        <time>2024-08-11T13:37:23Z</time>
      </trkpt>
      <trkpt lat="44.88647" lon="6.48979">
        <ele>1625.2</ele>
        <time>2024-08-11T13:37:24Z</time>
      </trkpt>
      <trkpt lat="44.88647" lon="6.48979">
        <ele>1625</ele>
        <time>2024-08-11T13:37:25Z</time>
      </trkpt>
      <trkpt lat="44.88645" lon="6.48978">
        <ele>1624.6</ele>
        <time>2024-08-11T13:37:26Z</time>
      </trkpt>
      <trkpt lat="44.88645" lon="6.48978">
        <ele>1624.4</ele>
        <time>2024-08-11T13:37:27Z</time>
      </trkpt>
      <trkpt lat="44.88642" lon="6.48978">
        <ele>1624.2</ele>
        <time>2024-08-11T13:37:28Z</time>
      </trkpt>
      <trkpt lat="44.88642" lon="6.48978">
        <ele>1624</ele>
        <time>2024-08-11T13:37:29Z</time>
      </trkpt>
      <trkpt lat="44.8864" lon="6.48978">
        <ele>1623.8</ele>
        <time>2024-08-11T13:37:30Z</time>
      </trkpt>
      <trkpt lat="44.8864" lon="6.48978">
        <ele>1623.4</ele>
        <time>2024-08-11T13:37:31Z</time>
      </trkpt>
      <trkpt lat="44.88637" lon="6.48979">
        <ele>1623.2</ele>
        <time>2024-08-11T13:37:32Z</time>
      </trkpt>
      <trkpt lat="44.88637" lon="6.48979">
        <ele>1623</ele>
        <time>2024-08-11T13:37:33Z</time>
      </trkpt>
      <trkpt lat="44.88635" lon="6.48978">
        <ele>1622.8</ele>
        <time>2024-08-11T13:37:34Z</time>
      </trkpt>
      <trkpt lat="44.88635" lon="6.48978">
        <ele>1622.6</ele>
        <time>2024-08-11T13:37:35Z</time>
      </trkpt>
      <trkpt lat="44.88632" lon="6.48976">
        <ele>1622.4</ele>
        <time>2024-08-11T13:37:36Z</time>
      </trkpt>
      <trkpt lat="44.88632" lon="6.48976">
        <ele>1622.4</ele>
        <time>2024-08-11T13:37:37Z</time>
      </trkpt>
      <trkpt lat="44.88629" lon="6.48974">
        <ele>1622.6</ele>
        <time>2024-08-11T13:37:38Z</time>
      </trkpt>
      <trkpt lat="44.88627" lon="6.48973">
        <ele>1622.6</ele>
        <time>2024-08-11T13:37:39Z</time>
      </trkpt>
      <trkpt lat="44.88627" lon="6.48973">
        <ele>1622.2</ele>
        <time>2024-08-11T13:37:40Z</time>
      </trkpt>
      <trkpt lat="44.88624" lon="6.48973">
        <ele>1622.2</ele>
        <time>2024-08-11T13:37:41Z</time>
      </trkpt>
      <trkpt lat="44.88624" lon="6.48973">
        <ele>1622.4</ele>
        <time>2024-08-11T13:37:42Z</time>
      </trkpt>
      <trkpt lat="44.88621" lon="6.48974">
        <ele>1622.4</ele>
        <time>2024-08-11T13:37:43Z</time>
      </trkpt>
      <trkpt lat="44.88621" lon="6.48974">
        <ele>1622</ele>
        <time>2024-08-11T13:37:44Z</time>
      </trkpt>
      <trkpt lat="44.88619" lon="6.48972">
        <ele>1622</ele>
        <time>2024-08-11T13:37:45Z</time>
      </trkpt>
      <trkpt lat="44.88619" lon="6.48972">
        <ele>1622</ele>
        <time>2024-08-11T13:37:46Z</time>
      </trkpt>
      <trkpt lat="44.88617" lon="6.48973">
        <ele>1622</ele>
        <time>2024-08-11T13:37:47Z</time>
      </trkpt>
      <trkpt lat="44.88617" lon="6.48973">
        <ele>1621.8</ele>
        <time>2024-08-11T13:37:48Z</time>
      </trkpt>
      <trkpt lat="44.88615" lon="6.48971">
        <ele>1621.4</ele>
        <time>2024-08-11T13:37:49Z</time>
      </trkpt>
      <trkpt lat="44.88615" lon="6.48971">
        <ele>1621.4</ele>
        <time>2024-08-11T13:37:50Z</time>
      </trkpt>
      <trkpt lat="44.88613" lon="6.48971">
        <ele>1620.8</ele>
        <time>2024-08-11T13:37:51Z</time>
      </trkpt>
      <trkpt lat="44.88613" lon="6.48971">
        <ele>1620.8</ele>
        <time>2024-08-11T13:37:52Z</time>
      </trkpt>
      <trkpt lat="44.8861" lon="6.48971">
        <ele>1620.6</ele>
        <time>2024-08-11T13:37:53Z</time>
      </trkpt>
      <trkpt lat="44.8861" lon="6.48971">
        <ele>1620.4</ele>
        <time>2024-08-11T13:37:54Z</time>
      </trkpt>
      <trkpt lat="44.88607" lon="6.4897">
        <ele>1620.4</ele>
        <time>2024-08-11T13:37:55Z</time>
      </trkpt>
      <trkpt lat="44.88607" lon="6.4897">
        <ele>1620.4</ele>
        <time>2024-08-11T13:37:56Z</time>
      </trkpt>
      <trkpt lat="44.88605" lon="6.4897">
        <ele>1620.4</ele>
        <time>2024-08-11T13:37:57Z</time>
      </trkpt>
      <trkpt lat="44.88605" lon="6.4897">
        <ele>1620.4</ele>
        <time>2024-08-11T13:37:58Z</time>
      </trkpt>
      <trkpt lat="44.88603" lon="6.4897">
        <ele>1620.2</ele>
        <time>2024-08-11T13:37:59Z</time>
      </trkpt>
      <trkpt lat="44.88601" lon="6.4897">
        <ele>1619.8</ele>
        <time>2024-08-11T13:38:00Z</time>
      </trkpt>
      <trkpt lat="44.88601" lon="6.4897">
        <ele>1619.4</ele>
        <time>2024-08-11T13:38:01Z</time>
      </trkpt>
      <trkpt lat="44.88598" lon="6.4897">
        <ele>1618.6</ele>
        <time>2024-08-11T13:38:02Z</time>
      </trkpt>
      <trkpt lat="44.88598" lon="6.4897">
        <ele>1618.6</ele>
        <time>2024-08-11T13:38:03Z</time>
      </trkpt>
      <trkpt lat="44.88595" lon="6.4897">
        <ele>1618.2</ele>
        <time>2024-08-11T13:38:04Z</time>
      </trkpt>
      <trkpt lat="44.88595" lon="6.4897">
        <ele>1618.2</ele>
        <time>2024-08-11T13:38:05Z</time>
      </trkpt>
      <trkpt lat="44.88592" lon="6.48971">
        <ele>1618</ele>
        <time>2024-08-11T13:38:06Z</time>
      </trkpt>
      <trkpt lat="44.88592" lon="6.48971">
        <ele>1617.6</ele>
        <time>2024-08-11T13:38:07Z</time>
      </trkpt>
      <trkpt lat="44.88589" lon="6.48971">
        <ele>1617.2</ele>
        <time>2024-08-11T13:38:08Z</time>
      </trkpt>
      <trkpt lat="44.88587" lon="6.48972">
        <ele>1617</ele>
        <time>2024-08-11T13:38:09Z</time>
      </trkpt>
      <trkpt lat="44.88586" lon="6.48972">
        <ele>1616.8</ele>
        <time>2024-08-11T13:38:10Z</time>
      </trkpt>
      <trkpt lat="44.88585" lon="6.48972">
        <ele>1616.8</ele>
        <time>2024-08-11T13:38:11Z</time>
      </trkpt>
      <trkpt lat="44.88583" lon="6.48972">
        <ele>1616.8</ele>
        <time>2024-08-11T13:38:12Z</time>
      </trkpt>
      <trkpt lat="44.88583" lon="6.48972">
        <ele>1616.6</ele>
        <time>2024-08-11T13:38:13Z</time>
      </trkpt>
      <trkpt lat="44.88581" lon="6.48971">
        <ele>1616.4</ele>
        <time>2024-08-11T13:38:14Z</time>
      </trkpt>
      <trkpt lat="44.88581" lon="6.48971">
        <ele>1616.4</ele>
        <time>2024-08-11T13:38:15Z</time>
      </trkpt>
      <trkpt lat="44.88579" lon="6.48969">
        <ele>1616.4</ele>
        <time>2024-08-11T13:38:16Z</time>
      </trkpt>
      <trkpt lat="44.88579" lon="6.48969">
        <ele>1616.4</ele>
        <time>2024-08-11T13:38:17Z</time>
      </trkpt>
      <trkpt lat="44.88577" lon="6.48968">
        <ele>1616.4</ele>
        <time>2024-08-11T13:38:18Z</time>
      </trkpt>
      <trkpt lat="44.88577" lon="6.48968">
        <ele>1616.4</ele>
        <time>2024-08-11T13:38:19Z</time>
      </trkpt>
      <trkpt lat="44.88575" lon="6.48967">
        <ele>1616</ele>
        <time>2024-08-11T13:38:20Z</time>
      </trkpt>
      <trkpt lat="44.88573" lon="6.48966">
        <ele>1615.8</ele>
        <time>2024-08-11T13:38:21Z</time>
      </trkpt>
      <trkpt lat="44.88573" lon="6.48966">
        <ele>1615.6</ele>
        <time>2024-08-11T13:38:22Z</time>
      </trkpt>
      <trkpt lat="44.88571" lon="6.48967">
        <ele>1615.4</ele>
        <time>2024-08-11T13:38:23Z</time>
      </trkpt>
      <trkpt lat="44.88571" lon="6.48967">
        <ele>1615.4</ele>
        <time>2024-08-11T13:38:24Z</time>
      </trkpt>
      <trkpt lat="44.88569" lon="6.48966">
        <ele>1615.4</ele>
        <time>2024-08-11T13:38:25Z</time>
      </trkpt>
      <trkpt lat="44.88569" lon="6.48966">
        <ele>1615.2</ele>
        <time>2024-08-11T13:38:26Z</time>
      </trkpt>
      <trkpt lat="44.88569" lon="6.48966">
        <ele>1614.8</ele>
        <time>2024-08-11T13:38:27Z</time>
      </trkpt>
      <trkpt lat="44.88569" lon="6.48966">
        <ele>1614.6</ele>
        <time>2024-08-11T13:38:28Z</time>
      </trkpt>
      <trkpt lat="44.88567" lon="6.48964">
        <ele>1614.6</ele>
        <time>2024-08-11T13:38:29Z</time>
      </trkpt>
      <trkpt lat="44.88567" lon="6.48964">
        <ele>1614.6</ele>
        <time>2024-08-11T13:38:30Z</time>
      </trkpt>
      <trkpt lat="44.88564" lon="6.48963">
        <ele>1614.6</ele>
        <time>2024-08-11T13:38:31Z</time>
      </trkpt>
      <trkpt lat="44.88564" lon="6.48963">
        <ele>1614.4</ele>
        <time>2024-08-11T13:38:32Z</time>
      </trkpt>
      <trkpt lat="44.88561" lon="6.48963">
        <ele>1614</ele>
        <time>2024-08-11T13:38:33Z</time>
      </trkpt>
      <trkpt lat="44.88561" lon="6.48963">
        <ele>1614</ele>
        <time>2024-08-11T13:38:34Z</time>
      </trkpt>
      <trkpt lat="44.88559" lon="6.48963">
        <ele>1613.8</ele>
        <time>2024-08-11T13:38:35Z</time>
      </trkpt>
      <trkpt lat="44.88559" lon="6.48963">
        <ele>1613.8</ele>
        <time>2024-08-11T13:38:36Z</time>
      </trkpt>
      <trkpt lat="44.88557" lon="6.48963">
        <ele>1613.8</ele>
        <time>2024-08-11T13:38:37Z</time>
      </trkpt>
      <trkpt lat="44.88557" lon="6.48963">
        <ele>1613.8</ele>
        <time>2024-08-11T13:38:38Z</time>
      </trkpt>
      <trkpt lat="44.88554" lon="6.48962">
        <ele>1613.8</ele>
        <time>2024-08-11T13:38:39Z</time>
      </trkpt>
      <trkpt lat="44.88554" lon="6.48962">
        <ele>1613.8</ele>
        <time>2024-08-11T13:38:40Z</time>
      </trkpt>
      <trkpt lat="44.88552" lon="6.48962">
        <ele>1613.6</ele>
        <time>2024-08-11T13:38:41Z</time>
      </trkpt>
      <trkpt lat="44.88552" lon="6.48962">
        <ele>1613.4</ele>
        <time>2024-08-11T13:38:42Z</time>
      </trkpt>
      <trkpt lat="44.8855" lon="6.4896">
        <ele>1613.4</ele>
        <time>2024-08-11T13:38:43Z</time>
      </trkpt>
      <trkpt lat="44.8855" lon="6.4896">
        <ele>1613.4</ele>
        <time>2024-08-11T13:38:44Z</time>
      </trkpt>
      <trkpt lat="44.88548" lon="6.48958">
        <ele>1613.2</ele>
        <time>2024-08-11T13:38:45Z</time>
      </trkpt>
      <trkpt lat="44.88548" lon="6.48958">
        <ele>1613.2</ele>
        <time>2024-08-11T13:38:46Z</time>
      </trkpt>
      <trkpt lat="44.88546" lon="6.48956">
        <ele>1612.8</ele>
        <time>2024-08-11T13:38:47Z</time>
      </trkpt>
      <trkpt lat="44.88546" lon="6.48956">
        <ele>1612.2</ele>
        <time>2024-08-11T13:38:48Z</time>
      </trkpt>
      <trkpt lat="44.88543" lon="6.48955">
        <ele>1611.8</ele>
        <time>2024-08-11T13:38:49Z</time>
      </trkpt>
      <trkpt lat="44.88543" lon="6.48955">
        <ele>1611.6</ele>
        <time>2024-08-11T13:38:50Z</time>
      </trkpt>
      <trkpt lat="44.88541" lon="6.48955">
        <ele>1611.4</ele>
        <time>2024-08-11T13:38:51Z</time>
      </trkpt>
      <trkpt lat="44.88541" lon="6.48955">
        <ele>1611.4</ele>
        <time>2024-08-11T13:38:52Z</time>
      </trkpt>
      <trkpt lat="44.88538" lon="6.48955">
        <ele>1611.2</ele>
        <time>2024-08-11T13:38:53Z</time>
      </trkpt>
      <trkpt lat="44.88538" lon="6.48955">
        <ele>1611.2</ele>
        <time>2024-08-11T13:38:54Z</time>
      </trkpt>
      <trkpt lat="44.88535" lon="6.48954">
        <ele>1611.2</ele>
        <time>2024-08-11T13:38:55Z</time>
      </trkpt>
      <trkpt lat="44.88535" lon="6.48954">
        <ele>1611</ele>
        <time>2024-08-11T13:38:56Z</time>
      </trkpt>
      <trkpt lat="44.88533" lon="6.48953">
        <ele>1611</ele>
        <time>2024-08-11T13:38:57Z</time>
      </trkpt>
      <trkpt lat="44.88533" lon="6.48953">
        <ele>1610.8</ele>
        <time>2024-08-11T13:38:58Z</time>
      </trkpt>
      <trkpt lat="44.88531" lon="6.48952">
        <ele>1610.8</ele>
        <time>2024-08-11T13:38:59Z</time>
      </trkpt>
      <trkpt lat="44.88531" lon="6.48952">
        <ele>1610.8</ele>
        <time>2024-08-11T13:39:00Z</time>
      </trkpt>
      <trkpt lat="44.88529" lon="6.48952">
        <ele>1611.4</ele>
        <time>2024-08-11T13:39:01Z</time>
      </trkpt>
      <trkpt lat="44.88529" lon="6.48952">
        <ele>1611.6</ele>
        <time>2024-08-11T13:39:02Z</time>
      </trkpt>
      <trkpt lat="44.88526" lon="6.4895">
        <ele>1611.6</ele>
        <time>2024-08-11T13:39:03Z</time>
      </trkpt>
      <trkpt lat="44.88526" lon="6.4895">
        <ele>1611.6</ele>
        <time>2024-08-11T13:39:04Z</time>
      </trkpt>
      <trkpt lat="44.88524" lon="6.48948">
        <ele>1611.6</ele>
        <time>2024-08-11T13:39:05Z</time>
      </trkpt>
      <trkpt lat="44.88524" lon="6.48948">
        <ele>1611.6</ele>
        <time>2024-08-11T13:39:06Z</time>
      </trkpt>
      <trkpt lat="44.88521" lon="6.48946">
        <ele>1611.6</ele>
        <time>2024-08-11T13:39:07Z</time>
      </trkpt>
      <trkpt lat="44.88521" lon="6.48946">
        <ele>1611.4</ele>
        <time>2024-08-11T13:39:08Z</time>
      </trkpt>
      <trkpt lat="44.88519" lon="6.48944">
        <ele>1611.4</ele>
        <time>2024-08-11T13:39:09Z</time>
      </trkpt>
      <trkpt lat="44.88519" lon="6.48944">
        <ele>1611.4</ele>
        <time>2024-08-11T13:39:10Z</time>
      </trkpt>
      <trkpt lat="44.88517" lon="6.48943">
        <ele>1611.2</ele>
        <time>2024-08-11T13:39:11Z</time>
      </trkpt>
      <trkpt lat="44.88517" lon="6.48943">
        <ele>1611</ele>
        <time>2024-08-11T13:39:12Z</time>
      </trkpt>
      <trkpt lat="44.88514" lon="6.48942">
        <ele>1611</ele>
        <time>2024-08-11T13:39:13Z</time>
      </trkpt>
      <trkpt lat="44.88514" lon="6.48942">
        <ele>1611</ele>
        <time>2024-08-11T13:39:14Z</time>
      </trkpt>
      <trkpt lat="44.88512" lon="6.4894">
        <ele>1611</ele>
        <time>2024-08-11T13:39:15Z</time>
      </trkpt>
      <trkpt lat="44.88512" lon="6.4894">
        <ele>1611</ele>
        <time>2024-08-11T13:39:16Z</time>
      </trkpt>
      <trkpt lat="44.8851" lon="6.4894">
        <ele>1611</ele>
        <time>2024-08-11T13:39:17Z</time>
      </trkpt>
      <trkpt lat="44.8851" lon="6.4894">
        <ele>1610.6</ele>
        <time>2024-08-11T13:39:18Z</time>
      </trkpt>
      <trkpt lat="44.88508" lon="6.48939">
        <ele>1610.4</ele>
        <time>2024-08-11T13:39:19Z</time>
      </trkpt>
      <trkpt lat="44.88508" lon="6.48939">
        <ele>1610.2</ele>
        <time>2024-08-11T13:39:20Z</time>
      </trkpt>
      <trkpt lat="44.88506" lon="6.48938">
        <ele>1609.8</ele>
        <time>2024-08-11T13:39:21Z</time>
      </trkpt>
      <trkpt lat="44.88506" lon="6.48938">
        <ele>1609.8</ele>
        <time>2024-08-11T13:39:22Z</time>
      </trkpt>
      <trkpt lat="44.88503" lon="6.48937">
        <ele>1609.6</ele>
        <time>2024-08-11T13:39:23Z</time>
      </trkpt>
      <trkpt lat="44.88503" lon="6.48937">
        <ele>1609.6</ele>
        <time>2024-08-11T13:39:24Z</time>
      </trkpt>
      <trkpt lat="44.88501" lon="6.48935">
        <ele>1609.6</ele>
        <time>2024-08-11T13:39:25Z</time>
      </trkpt>
      <trkpt lat="44.88501" lon="6.48935">
        <ele>1609.6</ele>
        <time>2024-08-11T13:39:26Z</time>
      </trkpt>
      <trkpt lat="44.88499" lon="6.48934">
        <ele>1609</ele>
        <time>2024-08-11T13:39:27Z</time>
      </trkpt>
      <trkpt lat="44.88498" lon="6.48932">
        <ele>1608.8</ele>
        <time>2024-08-11T13:39:28Z</time>
      </trkpt>
      <trkpt lat="44.88498" lon="6.48932">
        <ele>1608.6</ele>
        <time>2024-08-11T13:39:29Z</time>
      </trkpt>
      <trkpt lat="44.88495" lon="6.4893">
        <ele>1608.6</ele>
        <time>2024-08-11T13:39:30Z</time>
      </trkpt>
      <trkpt lat="44.88495" lon="6.4893">
        <ele>1608.6</ele>
        <time>2024-08-11T13:39:31Z</time>
      </trkpt>
      <trkpt lat="44.88493" lon="6.48929">
        <ele>1608.6</ele>
        <time>2024-08-11T13:39:32Z</time>
      </trkpt>
      <trkpt lat="44.88493" lon="6.48929">
        <ele>1608.6</ele>
        <time>2024-08-11T13:39:33Z</time>
      </trkpt>
      <trkpt lat="44.88491" lon="6.48926">
        <ele>1608.4</ele>
        <time>2024-08-11T13:39:34Z</time>
      </trkpt>
      <trkpt lat="44.88491" lon="6.48926">
        <ele>1608.4</ele>
        <time>2024-08-11T13:39:35Z</time>
      </trkpt>
      <trkpt lat="44.88489" lon="6.48925">
        <ele>1608.2</ele>
        <time>2024-08-11T13:39:36Z</time>
      </trkpt>
      <trkpt lat="44.88489" lon="6.48925">
        <ele>1608</ele>
        <time>2024-08-11T13:39:37Z</time>
      </trkpt>
      <trkpt lat="44.88487" lon="6.48923">
        <ele>1608</ele>
        <time>2024-08-11T13:39:38Z</time>
      </trkpt>
      <trkpt lat="44.88487" lon="6.48923">
        <ele>1608.2</ele>
        <time>2024-08-11T13:39:39Z</time>
      </trkpt>
      <trkpt lat="44.88485" lon="6.48922">
        <ele>1608.2</ele>
        <time>2024-08-11T13:39:40Z</time>
      </trkpt>
      <trkpt lat="44.88485" lon="6.48922">
        <ele>1608.2</ele>
        <time>2024-08-11T13:39:41Z</time>
      </trkpt>
      <trkpt lat="44.88482" lon="6.4892">
        <ele>1608</ele>
        <time>2024-08-11T13:39:42Z</time>
      </trkpt>
      <trkpt lat="44.88482" lon="6.4892">
        <ele>1608</ele>
        <time>2024-08-11T13:39:43Z</time>
      </trkpt>
      <trkpt lat="44.88479" lon="6.48918">
        <ele>1608</ele>
        <time>2024-08-11T13:39:44Z</time>
      </trkpt>
      <trkpt lat="44.88479" lon="6.48918">
        <ele>1608</ele>
        <time>2024-08-11T13:39:45Z</time>
      </trkpt>
      <trkpt lat="44.88477" lon="6.48917">
        <ele>1608</ele>
        <time>2024-08-11T13:39:46Z</time>
      </trkpt>
      <trkpt lat="44.88477" lon="6.48917">
        <ele>1608</ele>
        <time>2024-08-11T13:39:47Z</time>
      </trkpt>
      <trkpt lat="44.88474" lon="6.48915">
        <ele>1608.2</ele>
        <time>2024-08-11T13:39:48Z</time>
      </trkpt>
      <trkpt lat="44.88474" lon="6.48915">
        <ele>1608.2</ele>
        <time>2024-08-11T13:39:49Z</time>
      </trkpt>
      <trkpt lat="44.88472" lon="6.48914">
        <ele>1608.2</ele>
        <time>2024-08-11T13:39:50Z</time>
      </trkpt>
      <trkpt lat="44.88472" lon="6.48914">
        <ele>1608.2</ele>
        <time>2024-08-11T13:39:51Z</time>
      </trkpt>
      <trkpt lat="44.88469" lon="6.48913">
        <ele>1607.8</ele>
        <time>2024-08-11T13:39:52Z</time>
      </trkpt>
      <trkpt lat="44.88469" lon="6.48913">
        <ele>1607.8</ele>
        <time>2024-08-11T13:39:53Z</time>
      </trkpt>
      <trkpt lat="44.88467" lon="6.48911">
        <ele>1607.8</ele>
        <time>2024-08-11T13:39:54Z</time>
      </trkpt>
      <trkpt lat="44.88467" lon="6.48911">
        <ele>1607.6</ele>
        <time>2024-08-11T13:39:55Z</time>
      </trkpt>
      <trkpt lat="44.88465" lon="6.4891">
        <ele>1607.4</ele>
        <time>2024-08-11T13:39:56Z</time>
      </trkpt>
      <trkpt lat="44.88465" lon="6.4891">
        <ele>1607.4</ele>
        <time>2024-08-11T13:39:57Z</time>
      </trkpt>
      <trkpt lat="44.88462" lon="6.48908">
        <ele>1607</ele>
        <time>2024-08-11T13:39:58Z</time>
      </trkpt>
      <trkpt lat="44.88462" lon="6.48908">
        <ele>1606.8</ele>
        <time>2024-08-11T13:39:59Z</time>
      </trkpt>
      <trkpt lat="44.8846" lon="6.48907">
        <ele>1606.8</ele>
        <time>2024-08-11T13:40:00Z</time>
      </trkpt>
      <trkpt lat="44.88459" lon="6.48905">
        <ele>1606.8</ele>
        <time>2024-08-11T13:40:01Z</time>
      </trkpt>
      <trkpt lat="44.88459" lon="6.48905">
        <ele>1606.6</ele>
        <time>2024-08-11T13:40:02Z</time>
      </trkpt>
      <trkpt lat="44.88455" lon="6.48904">
        <ele>1606.6</ele>
        <time>2024-08-11T13:40:03Z</time>
      </trkpt>
      <trkpt lat="44.88455" lon="6.48904">
        <ele>1606.4</ele>
        <time>2024-08-11T13:40:04Z</time>
      </trkpt>
      <trkpt lat="44.88452" lon="6.48902">
        <ele>1606.2</ele>
        <time>2024-08-11T13:40:05Z</time>
      </trkpt>
      <trkpt lat="44.88452" lon="6.48902">
        <ele>1606</ele>
        <time>2024-08-11T13:40:06Z</time>
      </trkpt>
      <trkpt lat="44.8845" lon="6.489">
        <ele>1606</ele>
        <time>2024-08-11T13:40:07Z</time>
      </trkpt>
      <trkpt lat="44.8845" lon="6.489">
        <ele>1605.8</ele>
        <time>2024-08-11T13:40:08Z</time>
      </trkpt>
      <trkpt lat="44.88447" lon="6.48898">
        <ele>1605.8</ele>
        <time>2024-08-11T13:40:09Z</time>
      </trkpt>
      <trkpt lat="44.88447" lon="6.48898">
        <ele>1605.6</ele>
        <time>2024-08-11T13:40:10Z</time>
      </trkpt>
      <trkpt lat="44.88445" lon="6.48896">
        <ele>1605.4</ele>
        <time>2024-08-11T13:40:11Z</time>
      </trkpt>
      <trkpt lat="44.88445" lon="6.48896">
        <ele>1605.2</ele>
        <time>2024-08-11T13:40:12Z</time>
      </trkpt>
      <trkpt lat="44.88444" lon="6.48894">
        <ele>1605.2</ele>
        <time>2024-08-11T13:40:13Z</time>
      </trkpt>
      <trkpt lat="44.88444" lon="6.48894">
        <ele>1605.2</ele>
        <time>2024-08-11T13:40:14Z</time>
      </trkpt>
      <trkpt lat="44.88442" lon="6.48892">
        <ele>1605.2</ele>
        <time>2024-08-11T13:40:15Z</time>
      </trkpt>
      <trkpt lat="44.88442" lon="6.48892">
        <ele>1605.2</ele>
        <time>2024-08-11T13:40:16Z</time>
      </trkpt>
      <trkpt lat="44.88439" lon="6.4889">
        <ele>1605.2</ele>
        <time>2024-08-11T13:40:17Z</time>
      </trkpt>
      <trkpt lat="44.88439" lon="6.4889">
        <ele>1605.2</ele>
        <time>2024-08-11T13:40:18Z</time>
      </trkpt>
      <trkpt lat="44.88437" lon="6.48887">
        <ele>1605.2</ele>
        <time>2024-08-11T13:40:19Z</time>
      </trkpt>
      <trkpt lat="44.88437" lon="6.48887">
        <ele>1605.2</ele>
        <time>2024-08-11T13:40:20Z</time>
      </trkpt>
      <trkpt lat="44.88434" lon="6.48885">
        <ele>1605.2</ele>
        <time>2024-08-11T13:40:21Z</time>
      </trkpt>
      <trkpt lat="44.88434" lon="6.48885">
        <ele>1605.2</ele>
        <time>2024-08-11T13:40:22Z</time>
      </trkpt>
      <trkpt lat="44.88432" lon="6.48883">
        <ele>1605.2</ele>
        <time>2024-08-11T13:40:23Z</time>
      </trkpt>
      <trkpt lat="44.8843" lon="6.48882">
        <ele>1605</ele>
        <time>2024-08-11T13:40:24Z</time>
      </trkpt>
      <trkpt lat="44.8843" lon="6.48882">
        <ele>1605</ele>
        <time>2024-08-11T13:40:25Z</time>
      </trkpt>
      <trkpt lat="44.88427" lon="6.48881">
        <ele>1605</ele>
        <time>2024-08-11T13:40:26Z</time>
      </trkpt>
      <trkpt lat="44.88427" lon="6.48881">
        <ele>1605</ele>
        <time>2024-08-11T13:40:27Z</time>
      </trkpt>
      <trkpt lat="44.88425" lon="6.4888">
        <ele>1604.8</ele>
        <time>2024-08-11T13:40:28Z</time>
      </trkpt>
      <trkpt lat="44.88425" lon="6.4888">
        <ele>1604.8</ele>
        <time>2024-08-11T13:40:29Z</time>
      </trkpt>
      <trkpt lat="44.88422" lon="6.48879">
        <ele>1605</ele>
        <time>2024-08-11T13:40:30Z</time>
      </trkpt>
      <trkpt lat="44.88422" lon="6.48879">
        <ele>1605</ele>
        <time>2024-08-11T13:40:31Z</time>
      </trkpt>
      <trkpt lat="44.88419" lon="6.48878">
        <ele>1604.8</ele>
        <time>2024-08-11T13:40:32Z</time>
      </trkpt>
      <trkpt lat="44.88419" lon="6.48878">
        <ele>1604.8</ele>
        <time>2024-08-11T13:40:33Z</time>
      </trkpt>
      <trkpt lat="44.88417" lon="6.48877">
        <ele>1604.8</ele>
        <time>2024-08-11T13:40:34Z</time>
      </trkpt>
      <trkpt lat="44.88417" lon="6.48877">
        <ele>1604.8</ele>
        <time>2024-08-11T13:40:35Z</time>
      </trkpt>
      <trkpt lat="44.88414" lon="6.48876">
        <ele>1604.4</ele>
        <time>2024-08-11T13:40:36Z</time>
      </trkpt>
      <trkpt lat="44.88414" lon="6.48876">
        <ele>1604.2</ele>
        <time>2024-08-11T13:40:37Z</time>
      </trkpt>
      <trkpt lat="44.88411" lon="6.48875">
        <ele>1604.2</ele>
        <time>2024-08-11T13:40:38Z</time>
      </trkpt>
      <trkpt lat="44.88411" lon="6.48875">
        <ele>1604.2</ele>
        <time>2024-08-11T13:40:39Z</time>
      </trkpt>
      <trkpt lat="44.88408" lon="6.48874">
        <ele>1604.2</ele>
        <time>2024-08-11T13:40:40Z</time>
      </trkpt>
      <trkpt lat="44.88406" lon="6.48874">
        <ele>1604.2</ele>
        <time>2024-08-11T13:40:41Z</time>
      </trkpt>
      <trkpt lat="44.88406" lon="6.48874">
        <ele>1604.2</ele>
        <time>2024-08-11T13:40:42Z</time>
      </trkpt>
      <trkpt lat="44.88403" lon="6.48874">
        <ele>1604.4</ele>
        <time>2024-08-11T13:40:43Z</time>
      </trkpt>
      <trkpt lat="44.88403" lon="6.48874">
        <ele>1604.4</ele>
        <time>2024-08-11T13:40:44Z</time>
      </trkpt>
      <trkpt lat="44.88401" lon="6.48874">
        <ele>1604.6</ele>
        <time>2024-08-11T13:40:45Z</time>
      </trkpt>
      <trkpt lat="44.88401" lon="6.48874">
        <ele>1604.6</ele>
        <time>2024-08-11T13:40:46Z</time>
      </trkpt>
      <trkpt lat="44.88398" lon="6.48873">
        <ele>1604.6</ele>
        <time>2024-08-11T13:40:47Z</time>
      </trkpt>
      <trkpt lat="44.88398" lon="6.48873">
        <ele>1604.6</ele>
        <time>2024-08-11T13:40:48Z</time>
      </trkpt>
      <trkpt lat="44.88397" lon="6.48872">
        <ele>1604.8</ele>
        <time>2024-08-11T13:40:49Z</time>
      </trkpt>
      <trkpt lat="44.88397" lon="6.48872">
        <ele>1604.8</ele>
        <time>2024-08-11T13:40:50Z</time>
      </trkpt>
      <trkpt lat="44.88393" lon="6.48871">
        <ele>1604.6</ele>
        <time>2024-08-11T13:40:51Z</time>
      </trkpt>
      <trkpt lat="44.88393" lon="6.48871">
        <ele>1604.2</ele>
        <time>2024-08-11T13:40:52Z</time>
      </trkpt>
      <trkpt lat="44.8839" lon="6.48871">
        <ele>1604.2</ele>
        <time>2024-08-11T13:40:53Z</time>
      </trkpt>
      <trkpt lat="44.8839" lon="6.48871">
        <ele>1604.2</ele>
        <time>2024-08-11T13:40:54Z</time>
      </trkpt>
      <trkpt lat="44.88387" lon="6.48871">
        <ele>1604</ele>
        <time>2024-08-11T13:40:55Z</time>
      </trkpt>
      <trkpt lat="44.88387" lon="6.48871">
        <ele>1604</ele>
        <time>2024-08-11T13:40:56Z</time>
      </trkpt>
      <trkpt lat="44.88383" lon="6.4887">
        <ele>1603.8</ele>
        <time>2024-08-11T13:40:57Z</time>
      </trkpt>
      <trkpt lat="44.88383" lon="6.4887">
        <ele>1603.8</ele>
        <time>2024-08-11T13:40:58Z</time>
      </trkpt>
      <trkpt lat="44.88381" lon="6.4887">
        <ele>1603.8</ele>
        <time>2024-08-11T13:40:59Z</time>
      </trkpt>
      <trkpt lat="44.88381" lon="6.4887">
        <ele>1603.8</ele>
        <time>2024-08-11T13:41:00Z</time>
      </trkpt>
      <trkpt lat="44.88378" lon="6.48869">
        <ele>1603.6</ele>
        <time>2024-08-11T13:41:01Z</time>
      </trkpt>
      <trkpt lat="44.88378" lon="6.48869">
        <ele>1603.4</ele>
        <time>2024-08-11T13:41:02Z</time>
      </trkpt>
      <trkpt lat="44.88375" lon="6.4887">
        <ele>1603.4</ele>
        <time>2024-08-11T13:41:03Z</time>
      </trkpt>
      <trkpt lat="44.88375" lon="6.4887">
        <ele>1603.4</ele>
        <time>2024-08-11T13:41:04Z</time>
      </trkpt>
      <trkpt lat="44.88373" lon="6.48871">
        <ele>1603.2</ele>
        <time>2024-08-11T13:41:05Z</time>
      </trkpt>
      <trkpt lat="44.88373" lon="6.48871">
        <ele>1603.2</ele>
        <time>2024-08-11T13:41:06Z</time>
      </trkpt>
      <trkpt lat="44.88371" lon="6.48872">
        <ele>1602.6</ele>
        <time>2024-08-11T13:41:07Z</time>
      </trkpt>
      <trkpt lat="44.88371" lon="6.48872">
        <ele>1602.2</ele>
        <time>2024-08-11T13:41:08Z</time>
      </trkpt>
      <trkpt lat="44.88367" lon="6.48873">
        <ele>1602.2</ele>
        <time>2024-08-11T13:41:09Z</time>
      </trkpt>
      <trkpt lat="44.88367" lon="6.48873">
        <ele>1602.2</ele>
        <time>2024-08-11T13:41:10Z</time>
      </trkpt>
      <trkpt lat="44.88365" lon="6.48874">
        <ele>1601.8</ele>
        <time>2024-08-11T13:41:11Z</time>
      </trkpt>
      <trkpt lat="44.88365" lon="6.48874">
        <ele>1601.6</ele>
        <time>2024-08-11T13:41:12Z</time>
      </trkpt>
      <trkpt lat="44.88362" lon="6.48875">
        <ele>1601.6</ele>
        <time>2024-08-11T13:41:13Z</time>
      </trkpt>
      <trkpt lat="44.88362" lon="6.48875">
        <ele>1601.4</ele>
        <time>2024-08-11T13:41:14Z</time>
      </trkpt>
      <trkpt lat="44.88359" lon="6.48877">
        <ele>1601.2</ele>
        <time>2024-08-11T13:41:15Z</time>
      </trkpt>
      <trkpt lat="44.88359" lon="6.48877">
        <ele>1601.2</ele>
        <time>2024-08-11T13:41:16Z</time>
      </trkpt>
      <trkpt lat="44.88356" lon="6.48878">
        <ele>1601</ele>
        <time>2024-08-11T13:41:17Z</time>
      </trkpt>
      <trkpt lat="44.88356" lon="6.48878">
        <ele>1600.8</ele>
        <time>2024-08-11T13:41:18Z</time>
      </trkpt>
      <trkpt lat="44.88354" lon="6.48879">
        <ele>1600.4</ele>
        <time>2024-08-11T13:41:19Z</time>
      </trkpt>
      <trkpt lat="44.88354" lon="6.48879">
        <ele>1600</ele>
        <time>2024-08-11T13:41:20Z</time>
      </trkpt>
      <trkpt lat="44.88351" lon="6.48881">
        <ele>1599.6</ele>
        <time>2024-08-11T13:41:21Z</time>
      </trkpt>
      <trkpt lat="44.88351" lon="6.48881">
        <ele>1599.2</ele>
        <time>2024-08-11T13:41:22Z</time>
      </trkpt>
      <trkpt lat="44.88349" lon="6.48882">
        <ele>1599.2</ele>
        <time>2024-08-11T13:41:23Z</time>
      </trkpt>
      <trkpt lat="44.88349" lon="6.48882">
        <ele>1599</ele>
        <time>2024-08-11T13:41:24Z</time>
      </trkpt>
      <trkpt lat="44.88347" lon="6.48883">
        <ele>1598.8</ele>
        <time>2024-08-11T13:41:25Z</time>
      </trkpt>
      <trkpt lat="44.88347" lon="6.48883">
        <ele>1598.6</ele>
        <time>2024-08-11T13:41:26Z</time>
      </trkpt>
      <trkpt lat="44.88344" lon="6.48884">
        <ele>1598</ele>
        <time>2024-08-11T13:41:27Z</time>
      </trkpt>
      <trkpt lat="44.88344" lon="6.48884">
        <ele>1597.6</ele>
        <time>2024-08-11T13:41:28Z</time>
      </trkpt>
      <trkpt lat="44.88341" lon="6.48885">
        <ele>1597</ele>
        <time>2024-08-11T13:41:29Z</time>
      </trkpt>
      <trkpt lat="44.88341" lon="6.48885">
        <ele>1596.6</ele>
        <time>2024-08-11T13:41:30Z</time>
      </trkpt>
      <trkpt lat="44.88339" lon="6.48885">
        <ele>1596.2</ele>
        <time>2024-08-11T13:41:31Z</time>
      </trkpt>
      <trkpt lat="44.88339" lon="6.48885">
        <ele>1596</ele>
        <time>2024-08-11T13:41:32Z</time>
      </trkpt>
      <trkpt lat="44.88337" lon="6.48885">
        <ele>1596</ele>
        <time>2024-08-11T13:41:33Z</time>
      </trkpt>
      <trkpt lat="44.88337" lon="6.48885">
        <ele>1596</ele>
        <time>2024-08-11T13:41:34Z</time>
      </trkpt>
      <trkpt lat="44.88335" lon="6.48883">
        <ele>1595.4</ele>
        <time>2024-08-11T13:41:35Z</time>
      </trkpt>
      <trkpt lat="44.88335" lon="6.48883">
        <ele>1595</ele>
        <time>2024-08-11T13:41:36Z</time>
      </trkpt>
      <trkpt lat="44.88333" lon="6.48882">
        <ele>1594.8</ele>
        <time>2024-08-11T13:41:37Z</time>
      </trkpt>
      <trkpt lat="44.88333" lon="6.48882">
        <ele>1594.6</ele>
        <time>2024-08-11T13:41:38Z</time>
      </trkpt>
      <trkpt lat="44.88331" lon="6.48881">
        <ele>1594.4</ele>
        <time>2024-08-11T13:41:39Z</time>
      </trkpt>
      <trkpt lat="44.88331" lon="6.48881">
        <ele>1594.2</ele>
        <time>2024-08-11T13:41:40Z</time>
      </trkpt>
      <trkpt lat="44.88329" lon="6.4888">
        <ele>1594</ele>
        <time>2024-08-11T13:41:41Z</time>
      </trkpt>
      <trkpt lat="44.88329" lon="6.4888">
        <ele>1594</ele>
        <time>2024-08-11T13:41:42Z</time>
      </trkpt>
      <trkpt lat="44.88326" lon="6.48879">
        <ele>1593.8</ele>
        <time>2024-08-11T13:41:43Z</time>
      </trkpt>
      <trkpt lat="44.88326" lon="6.48879">
        <ele>1593.6</ele>
        <time>2024-08-11T13:41:44Z</time>
      </trkpt>
      <trkpt lat="44.88324" lon="6.48877">
        <ele>1593.2</ele>
        <time>2024-08-11T13:41:45Z</time>
      </trkpt>
      <trkpt lat="44.88324" lon="6.48877">
        <ele>1592.6</ele>
        <time>2024-08-11T13:41:46Z</time>
      </trkpt>
      <trkpt lat="44.88321" lon="6.48877">
        <ele>1592.2</ele>
        <time>2024-08-11T13:41:47Z</time>
      </trkpt>
      <trkpt lat="44.88321" lon="6.48877">
        <ele>1591.8</ele>
        <time>2024-08-11T13:41:48Z</time>
      </trkpt>
      <trkpt lat="44.88318" lon="6.48877">
        <ele>1591.6</ele>
        <time>2024-08-11T13:41:49Z</time>
      </trkpt>
      <trkpt lat="44.88318" lon="6.48877">
        <ele>1591.4</ele>
        <time>2024-08-11T13:41:50Z</time>
      </trkpt>
      <trkpt lat="44.88316" lon="6.48876">
        <ele>1591.4</ele>
        <time>2024-08-11T13:41:51Z</time>
      </trkpt>
      <trkpt lat="44.88316" lon="6.48876">
        <ele>1591.2</ele>
        <time>2024-08-11T13:41:52Z</time>
      </trkpt>
      <trkpt lat="44.88313" lon="6.48876">
        <ele>1591.2</ele>
        <time>2024-08-11T13:41:53Z</time>
      </trkpt>
      <trkpt lat="44.88313" lon="6.48876">
        <ele>1590.8</ele>
        <time>2024-08-11T13:41:54Z</time>
      </trkpt>
      <trkpt lat="44.88311" lon="6.48877">
        <ele>1590.2</ele>
        <time>2024-08-11T13:41:55Z</time>
      </trkpt>
      <trkpt lat="44.88311" lon="6.48877">
        <ele>1590</ele>
        <time>2024-08-11T13:41:56Z</time>
      </trkpt>
      <trkpt lat="44.88309" lon="6.48878">
        <ele>1589.6</ele>
        <time>2024-08-11T13:41:57Z</time>
      </trkpt>
      <trkpt lat="44.88309" lon="6.48878">
        <ele>1589</ele>
        <time>2024-08-11T13:41:58Z</time>
      </trkpt>
      <trkpt lat="44.88306" lon="6.48878">
        <ele>1588.6</ele>
        <time>2024-08-11T13:41:59Z</time>
      </trkpt>
      <trkpt lat="44.88306" lon="6.48878">
        <ele>1588.4</ele>
        <time>2024-08-11T13:42:00Z</time>
      </trkpt>
      <trkpt lat="44.88303" lon="6.48878">
        <ele>1588.2</ele>
        <time>2024-08-11T13:42:01Z</time>
      </trkpt>
      <trkpt lat="44.88303" lon="6.48878">
        <ele>1587.4</ele>
        <time>2024-08-11T13:42:02Z</time>
      </trkpt>
      <trkpt lat="44.88301" lon="6.4888">
        <ele>1587.4</ele>
        <time>2024-08-11T13:42:03Z</time>
      </trkpt>
      <trkpt lat="44.88301" lon="6.4888">
        <ele>1587.2</ele>
        <time>2024-08-11T13:42:04Z</time>
      </trkpt>
      <trkpt lat="44.88298" lon="6.48881">
        <ele>1586.8</ele>
        <time>2024-08-11T13:42:05Z</time>
      </trkpt>
      <trkpt lat="44.88298" lon="6.48881">
        <ele>1586.6</ele>
        <time>2024-08-11T13:42:06Z</time>
      </trkpt>
      <trkpt lat="44.88298" lon="6.48881">
        <ele>1586.4</ele>
        <time>2024-08-11T13:42:07Z</time>
      </trkpt>
      <trkpt lat="44.88296" lon="6.48883">
        <ele>1586</ele>
        <time>2024-08-11T13:42:08Z</time>
      </trkpt>
      <trkpt lat="44.88296" lon="6.48883">
        <ele>1585.6</ele>
        <time>2024-08-11T13:42:09Z</time>
      </trkpt>
      <trkpt lat="44.88294" lon="6.48883">
        <ele>1585.4</ele>
        <time>2024-08-11T13:42:10Z</time>
      </trkpt>
      <trkpt lat="44.88294" lon="6.48883">
        <ele>1585</ele>
        <time>2024-08-11T13:42:11Z</time>
      </trkpt>
      <trkpt lat="44.88292" lon="6.48883">
        <ele>1584.6</ele>
        <time>2024-08-11T13:42:12Z</time>
      </trkpt>
      <trkpt lat="44.88292" lon="6.48883">
        <ele>1584.4</ele>
        <time>2024-08-11T13:42:13Z</time>
      </trkpt>
      <trkpt lat="44.88289" lon="6.48884">
        <ele>1584.4</ele>
        <time>2024-08-11T13:42:14Z</time>
      </trkpt>
      <trkpt lat="44.88289" lon="6.48884">
        <ele>1584</ele>
        <time>2024-08-11T13:42:15Z</time>
      </trkpt>
      <trkpt lat="44.88287" lon="6.48884">
        <ele>1583.6</ele>
        <time>2024-08-11T13:42:16Z</time>
      </trkpt>
      <trkpt lat="44.88287" lon="6.48884">
        <ele>1583</ele>
        <time>2024-08-11T13:42:17Z</time>
      </trkpt>
      <trkpt lat="44.88285" lon="6.48886">
        <ele>1582.8</ele>
        <time>2024-08-11T13:42:18Z</time>
      </trkpt>
      <trkpt lat="44.88285" lon="6.48886">
        <ele>1582.8</ele>
        <time>2024-08-11T13:42:19Z</time>
      </trkpt>
      <trkpt lat="44.88283" lon="6.48885">
        <ele>1582.4</ele>
        <time>2024-08-11T13:42:20Z</time>
      </trkpt>
      <trkpt lat="44.88282" lon="6.48883">
        <ele>1582</ele>
        <time>2024-08-11T13:42:21Z</time>
      </trkpt>
      <trkpt lat="44.88282" lon="6.48883">
        <ele>1581.6</ele>
        <time>2024-08-11T13:42:22Z</time>
      </trkpt>
      <trkpt lat="44.8828" lon="6.4888">
        <ele>1581.4</ele>
        <time>2024-08-11T13:42:23Z</time>
      </trkpt>
      <trkpt lat="44.8828" lon="6.4888">
        <ele>1581.2</ele>
        <time>2024-08-11T13:42:24Z</time>
      </trkpt>
      <trkpt lat="44.8828" lon="6.48876">
        <ele>1581.2</ele>
        <time>2024-08-11T13:42:25Z</time>
      </trkpt>
      <trkpt lat="44.8828" lon="6.48876">
        <ele>1581.2</ele>
        <time>2024-08-11T13:42:26Z</time>
      </trkpt>
      <trkpt lat="44.88281" lon="6.48872">
        <ele>1581</ele>
        <time>2024-08-11T13:42:27Z</time>
      </trkpt>
      <trkpt lat="44.88281" lon="6.48872">
        <ele>1580.6</ele>
        <time>2024-08-11T13:42:28Z</time>
      </trkpt>
      <trkpt lat="44.88282" lon="6.48868">
        <ele>1580.6</ele>
        <time>2024-08-11T13:42:29Z</time>
      </trkpt>
      <trkpt lat="44.88282" lon="6.48868">
        <ele>1580.4</ele>
        <time>2024-08-11T13:42:30Z</time>
      </trkpt>
      <trkpt lat="44.88284" lon="6.48866">
        <ele>1580.2</ele>
        <time>2024-08-11T13:42:31Z</time>
      </trkpt>
      <trkpt lat="44.88284" lon="6.48866">
        <ele>1580.2</ele>
        <time>2024-08-11T13:42:32Z</time>
      </trkpt>
      <trkpt lat="44.88286" lon="6.48865">
        <ele>1580.2</ele>
        <time>2024-08-11T13:42:33Z</time>
      </trkpt>
      <trkpt lat="44.88286" lon="6.48865">
        <ele>1580.2</ele>
        <time>2024-08-11T13:42:34Z</time>
      </trkpt>
      <trkpt lat="44.88288" lon="6.48863">
        <ele>1580.2</ele>
        <time>2024-08-11T13:42:35Z</time>
      </trkpt>
      <trkpt lat="44.88288" lon="6.48863">
        <ele>1580.2</ele>
        <time>2024-08-11T13:42:36Z</time>
      </trkpt>
      <trkpt lat="44.88288" lon="6.48863">
        <ele>1580.2</ele>
        <time>2024-08-11T13:42:37Z</time>
      </trkpt>
      <trkpt lat="44.88288" lon="6.48863">
        <ele>1580.2</ele>
        <time>2024-08-11T13:42:38Z</time>
      </trkpt>
      <trkpt lat="44.88288" lon="6.48863">
        <ele>1580.6</ele>
        <time>2024-08-11T13:42:39Z</time>
      </trkpt>
      <trkpt lat="44.88286" lon="6.48865">
        <ele>1580.8</ele>
        <time>2024-08-11T13:42:40Z</time>
      </trkpt>
      <trkpt lat="44.88286" lon="6.48865">
        <ele>1580.8</ele>
        <time>2024-08-11T13:42:41Z</time>
      </trkpt>
      <trkpt lat="44.88284" lon="6.48867">
        <ele>1580.6</ele>
        <time>2024-08-11T13:42:42Z</time>
      </trkpt>
      <trkpt lat="44.88284" lon="6.48867">
        <ele>1580.6</ele>
        <time>2024-08-11T13:42:43Z</time>
      </trkpt>
      <trkpt lat="44.88281" lon="6.48867">
        <ele>1580.8</ele>
        <time>2024-08-11T13:42:44Z</time>
      </trkpt>
      <trkpt lat="44.88281" lon="6.48867">
        <ele>1581</ele>
        <time>2024-08-11T13:42:45Z</time>
      </trkpt>
      <trkpt lat="44.88279" lon="6.48867">
        <ele>1581.2</ele>
        <time>2024-08-11T13:42:46Z</time>
      </trkpt>
      <trkpt lat="44.88279" lon="6.48867">
        <ele>1581.2</ele>
        <time>2024-08-11T13:42:47Z</time>
      </trkpt>
      <trkpt lat="44.88279" lon="6.48867">
        <ele>1581</ele>
        <time>2024-08-11T13:42:48Z</time>
      </trkpt>
      <trkpt lat="44.88277" lon="6.48868">
        <ele>1580.8</ele>
        <time>2024-08-11T13:42:49Z</time>
      </trkpt>
      <trkpt lat="44.88277" lon="6.48868">
        <ele>1580.8</ele>
        <time>2024-08-11T13:42:50Z</time>
      </trkpt>
      <trkpt lat="44.88274" lon="6.48869">
        <ele>1580.6</ele>
        <time>2024-08-11T13:42:51Z</time>
      </trkpt>
      <trkpt lat="44.88274" lon="6.48869">
        <ele>1580.4</ele>
        <time>2024-08-11T13:42:52Z</time>
      </trkpt>
      <trkpt lat="44.88271" lon="6.4887">
        <ele>1580.2</ele>
        <time>2024-08-11T13:42:53Z</time>
      </trkpt>
      <trkpt lat="44.88271" lon="6.4887">
        <ele>1580</ele>
        <time>2024-08-11T13:42:54Z</time>
      </trkpt>
      <trkpt lat="44.88268" lon="6.48871">
        <ele>1579.6</ele>
        <time>2024-08-11T13:42:55Z</time>
      </trkpt>
      <trkpt lat="44.88266" lon="6.48872">
        <ele>1579.6</ele>
        <time>2024-08-11T13:42:56Z</time>
      </trkpt>
      <trkpt lat="44.88266" lon="6.48872">
        <ele>1579.6</ele>
        <time>2024-08-11T13:42:57Z</time>
      </trkpt>
      <trkpt lat="44.88263" lon="6.48873">
        <ele>1579.6</ele>
        <time>2024-08-11T13:42:58Z</time>
      </trkpt>
      <trkpt lat="44.88263" lon="6.48873">
        <ele>1579.6</ele>
        <time>2024-08-11T13:42:59Z</time>
      </trkpt>
      <trkpt lat="44.8826" lon="6.48873">
        <ele>1579.8</ele>
        <time>2024-08-11T13:43:00Z</time>
      </trkpt>
      <trkpt lat="44.8826" lon="6.48873">
        <ele>1580</ele>
        <time>2024-08-11T13:43:01Z</time>
      </trkpt>
      <trkpt lat="44.88258" lon="6.48874">
        <ele>1580.2</ele>
        <time>2024-08-11T13:43:02Z</time>
      </trkpt>
      <trkpt lat="44.88258" lon="6.48874">
        <ele>1580.2</ele>
        <time>2024-08-11T13:43:03Z</time>
      </trkpt>
      <trkpt lat="44.88255" lon="6.48874">
        <ele>1580.2</ele>
        <time>2024-08-11T13:43:04Z</time>
      </trkpt>
      <trkpt lat="44.88253" lon="6.48873">
        <ele>1580.2</ele>
        <time>2024-08-11T13:43:05Z</time>
      </trkpt>
      <trkpt lat="44.88251" lon="6.48873">
        <ele>1580</ele>
        <time>2024-08-11T13:43:06Z</time>
      </trkpt>
      <trkpt lat="44.88251" lon="6.48873">
        <ele>1579.6</ele>
        <time>2024-08-11T13:43:07Z</time>
      </trkpt>
      <trkpt lat="44.88248" lon="6.48873">
        <ele>1579.6</ele>
        <time>2024-08-11T13:43:08Z</time>
      </trkpt>
      <trkpt lat="44.88248" lon="6.48873">
        <ele>1579.6</ele>
        <time>2024-08-11T13:43:09Z</time>
      </trkpt>
      <trkpt lat="44.88246" lon="6.48873">
        <ele>1579.4</ele>
        <time>2024-08-11T13:43:10Z</time>
      </trkpt>
      <trkpt lat="44.88244" lon="6.48873">
        <ele>1579.2</ele>
        <time>2024-08-11T13:43:11Z</time>
      </trkpt>
      <trkpt lat="44.88244" lon="6.48873">
        <ele>1579</ele>
        <time>2024-08-11T13:43:12Z</time>
      </trkpt>
      <trkpt lat="44.88241" lon="6.48873">
        <ele>1579</ele>
        <time>2024-08-11T13:43:13Z</time>
      </trkpt>
      <trkpt lat="44.88241" lon="6.48873">
        <ele>1579</ele>
        <time>2024-08-11T13:43:14Z</time>
      </trkpt>
      <trkpt lat="44.88238" lon="6.48873">
        <ele>1578.8</ele>
        <time>2024-08-11T13:43:15Z</time>
      </trkpt>
      <trkpt lat="44.88238" lon="6.48873">
        <ele>1578.8</ele>
        <time>2024-08-11T13:43:16Z</time>
      </trkpt>
      <trkpt lat="44.88235" lon="6.48872">
        <ele>1578.8</ele>
        <time>2024-08-11T13:43:17Z</time>
      </trkpt>
      <trkpt lat="44.88235" lon="6.48872">
        <ele>1578.6</ele>
        <time>2024-08-11T13:43:18Z</time>
      </trkpt>
      <trkpt lat="44.88232" lon="6.48872">
        <ele>1578.4</ele>
        <time>2024-08-11T13:43:19Z</time>
      </trkpt>
      <trkpt lat="44.88232" lon="6.48872">
        <ele>1578</ele>
        <time>2024-08-11T13:43:20Z</time>
      </trkpt>
      <trkpt lat="44.8823" lon="6.48871">
        <ele>1578</ele>
        <time>2024-08-11T13:43:21Z</time>
      </trkpt>
      <trkpt lat="44.8823" lon="6.48871">
        <ele>1578</ele>
        <time>2024-08-11T13:43:22Z</time>
      </trkpt>
      <trkpt lat="44.88228" lon="6.4887">
        <ele>1578</ele>
        <time>2024-08-11T13:43:23Z</time>
      </trkpt>
      <trkpt lat="44.88228" lon="6.4887">
        <ele>1577.8</ele>
        <time>2024-08-11T13:43:24Z</time>
      </trkpt>
      <trkpt lat="44.88226" lon="6.4887">
        <ele>1577.6</ele>
        <time>2024-08-11T13:43:25Z</time>
      </trkpt>
      <trkpt lat="44.88226" lon="6.4887">
        <ele>1577.4</ele>
        <time>2024-08-11T13:43:26Z</time>
      </trkpt>
      <trkpt lat="44.88223" lon="6.48871">
        <ele>1577.4</ele>
        <time>2024-08-11T13:43:27Z</time>
      </trkpt>
      <trkpt lat="44.88221" lon="6.48871">
        <ele>1577.2</ele>
        <time>2024-08-11T13:43:28Z</time>
      </trkpt>
      <trkpt lat="44.88219" lon="6.4887">
        <ele>1577.2</ele>
        <time>2024-08-11T13:43:29Z</time>
      </trkpt>
      <trkpt lat="44.88217" lon="6.4887">
        <ele>1577</ele>
        <time>2024-08-11T13:43:30Z</time>
      </trkpt>
      <trkpt lat="44.88217" lon="6.4887">
        <ele>1577</ele>
        <time>2024-08-11T13:43:31Z</time>
      </trkpt>
      <trkpt lat="44.88214" lon="6.48869">
        <ele>1576.8</ele>
        <time>2024-08-11T13:43:32Z</time>
      </trkpt>
      <trkpt lat="44.88214" lon="6.48869">
        <ele>1576.6</ele>
        <time>2024-08-11T13:43:33Z</time>
      </trkpt>
      <trkpt lat="44.88214" lon="6.48869">
        <ele>1576.4</ele>
        <time>2024-08-11T13:43:34Z</time>
      </trkpt>
      <trkpt lat="44.88212" lon="6.48868">
        <ele>1576.4</ele>
        <time>2024-08-11T13:43:35Z</time>
      </trkpt>
      <trkpt lat="44.88212" lon="6.48868">
        <ele>1576.4</ele>
        <time>2024-08-11T13:43:36Z</time>
      </trkpt>
      <trkpt lat="44.88212" lon="6.48868">
        <ele>1576.4</ele>
        <time>2024-08-11T13:43:37Z</time>
      </trkpt>
      <trkpt lat="44.88213" lon="6.48865">
        <ele>1576.2</ele>
        <time>2024-08-11T13:43:38Z</time>
      </trkpt>
      <trkpt lat="44.88213" lon="6.48865">
        <ele>1576.2</ele>
        <time>2024-08-11T13:43:39Z</time>
      </trkpt>
      <trkpt lat="44.88213" lon="6.48865">
        <ele>1576.2</ele>
        <time>2024-08-11T13:43:40Z</time>
      </trkpt>
      <trkpt lat="44.88213" lon="6.48865">
        <ele>1576</ele>
        <time>2024-08-11T13:43:41Z</time>
      </trkpt>
      <trkpt lat="44.88213" lon="6.48865">
        <ele>1575.8</ele>
        <time>2024-08-11T13:43:42Z</time>
      </trkpt>
      <trkpt lat="44.88213" lon="6.48865">
        <ele>1575.6</ele>
        <time>2024-08-11T13:43:43Z</time>
      </trkpt>
      <trkpt lat="44.88213" lon="6.48862">
        <ele>1575.6</ele>
        <time>2024-08-11T13:43:44Z</time>
      </trkpt>
      <trkpt lat="44.88213" lon="6.48862">
        <ele>1575.6</ele>
        <time>2024-08-11T13:43:45Z</time>
      </trkpt>
      <trkpt lat="44.88213" lon="6.48862">
        <ele>1575.4</ele>
        <time>2024-08-11T13:43:46Z</time>
      </trkpt>
      <trkpt lat="44.88213" lon="6.48862">
        <ele>1575.6</ele>
        <time>2024-08-11T13:43:47Z</time>
      </trkpt>
      <trkpt lat="44.88213" lon="6.48862">
        <ele>1575.6</ele>
        <time>2024-08-11T13:43:48Z</time>
      </trkpt>
      <trkpt lat="44.88213" lon="6.48862">
        <ele>1575.6</ele>
        <time>2024-08-11T13:43:49Z</time>
      </trkpt>
      <trkpt lat="44.88213" lon="6.48862">
        <ele>1575.6</ele>
        <time>2024-08-11T13:43:50Z</time>
      </trkpt>
      <trkpt lat="44.88213" lon="6.48862">
        <ele>1575.6</ele>
        <time>2024-08-11T13:43:51Z</time>
      </trkpt>
      <trkpt lat="44.88213" lon="6.48862">
        <ele>1575.6</ele>
        <time>2024-08-11T13:43:52Z</time>
      </trkpt>
      <trkpt lat="44.88213" lon="6.48862">
        <ele>1575.6</ele>
        <time>2024-08-11T13:43:53Z</time>
      </trkpt>
      <trkpt lat="44.88213" lon="6.48862">
        <ele>1575.6</ele>
        <time>2024-08-11T13:43:54Z</time>
      </trkpt>
      <trkpt lat="44.88213" lon="6.48862">
        <ele>1575.6</ele>
        <time>2024-08-11T13:43:55Z</time>
      </trkpt>
      <trkpt lat="44.88213" lon="6.48862">
        <ele>1575.6</ele>
        <time>2024-08-11T13:43:56Z</time>
      </trkpt>
      <trkpt lat="44.88213" lon="6.48862">
        <ele>1575.6</ele>
        <time>2024-08-11T13:43:57Z</time>
      </trkpt>
      <trkpt lat="44.88213" lon="6.48862">
        <ele>1575.4</ele>
        <time>2024-08-11T13:43:58Z</time>
      </trkpt>
      <trkpt lat="44.88213" lon="6.48862">
        <ele>1575.2</ele>
        <time>2024-08-11T13:43:59Z</time>
      </trkpt>
      <trkpt lat="44.88213" lon="6.48862">
        <ele>1575</ele>
        <time>2024-08-11T13:44:00Z</time>
      </trkpt>
      <trkpt lat="44.88213" lon="6.48862">
        <ele>1575.2</ele>
        <time>2024-08-11T13:44:01Z</time>
      </trkpt>
      <trkpt lat="44.88213" lon="6.48862">
        <ele>1575.4</ele>
        <time>2024-08-11T13:44:02Z</time>
      </trkpt>
      <trkpt lat="44.88213" lon="6.48862">
        <ele>1575.4</ele>
        <time>2024-08-11T13:44:03Z</time>
      </trkpt>
      <trkpt lat="44.88213" lon="6.48862">
        <ele>1575.4</ele>
        <time>2024-08-11T13:44:04Z</time>
      </trkpt>
      <trkpt lat="44.88213" lon="6.48862">
        <ele>1575.2</ele>
        <time>2024-08-11T13:44:05Z</time>
      </trkpt>
      <trkpt lat="44.88213" lon="6.48862">
        <ele>1575.2</ele>
        <time>2024-08-11T13:44:06Z</time>
      </trkpt>
      <trkpt lat="44.88213" lon="6.48862">
        <ele>1575</ele>
        <time>2024-08-11T13:44:07Z</time>
      </trkpt>
      <trkpt lat="44.88213" lon="6.48862">
        <ele>1575</ele>
        <time>2024-08-11T13:44:08Z</time>
      </trkpt>
      <trkpt lat="44.88213" lon="6.48862">
        <ele>1575</ele>
        <time>2024-08-11T13:44:09Z</time>
      </trkpt>
      <trkpt lat="44.88213" lon="6.48862">
        <ele>1575</ele>
        <time>2024-08-11T13:44:10Z</time>
      </trkpt>
      <trkpt lat="44.88213" lon="6.48862">
        <ele>1575</ele>
        <time>2024-08-11T13:44:11Z</time>
      </trkpt>
      <trkpt lat="44.88213" lon="6.48862">
        <ele>1575</ele>
        <time>2024-08-11T13:44:12Z</time>
      </trkpt>
      <trkpt lat="44.88213" lon="6.48862">
        <ele>1575</ele>
        <time>2024-08-11T13:44:13Z</time>
      </trkpt>
      <trkpt lat="44.88213" lon="6.48862">
        <ele>1574.8</ele>
        <time>2024-08-11T13:44:14Z</time>
      </trkpt>
      <trkpt lat="44.88213" lon="6.48862">
        <ele>1574.8</ele>
        <time>2024-08-11T13:44:15Z</time>
      </trkpt>
      <trkpt lat="44.88213" lon="6.48862">
        <ele>1574.8</ele>
        <time>2024-08-11T13:44:16Z</time>
      </trkpt>
      <trkpt lat="44.88213" lon="6.48862">
        <ele>1575</ele>
        <time>2024-08-11T13:44:17Z</time>
      </trkpt>
      <trkpt lat="44.88213" lon="6.48862">
        <ele>1575</ele>
        <time>2024-08-11T13:44:18Z</time>
      </trkpt>
      <trkpt lat="44.88213" lon="6.48862">
        <ele>1575</ele>
        <time>2024-08-11T13:44:19Z</time>
      </trkpt>
      <trkpt lat="44.88213" lon="6.48862">
        <ele>1575</ele>
        <time>2024-08-11T13:44:20Z</time>
      </trkpt>
      <trkpt lat="44.88213" lon="6.48862">
        <ele>1575</ele>
        <time>2024-08-11T13:44:21Z</time>
      </trkpt>
      <trkpt lat="44.88213" lon="6.48862">
        <ele>1575</ele>
        <time>2024-08-11T13:44:22Z</time>
      </trkpt>
      <trkpt lat="44.88213" lon="6.48862">
        <ele>1575</ele>
        <time>2024-08-11T13:44:23Z</time>
      </trkpt>
      <trkpt lat="44.88213" lon="6.48862">
        <ele>1574.8</ele>
        <time>2024-08-11T13:44:24Z</time>
      </trkpt>
      <trkpt lat="44.88213" lon="6.48862">
        <ele>1574.8</ele>
        <time>2024-08-11T13:44:25Z</time>
      </trkpt>
      <trkpt lat="44.88213" lon="6.48862">
        <ele>1574.6</ele>
        <time>2024-08-11T13:44:26Z</time>
      </trkpt>
      <trkpt lat="44.88213" lon="6.48862">
        <ele>1574.8</ele>
        <time>2024-08-11T13:44:27Z</time>
      </trkpt>
      <trkpt lat="44.88213" lon="6.48862">
        <ele>1574.8</ele>
        <time>2024-08-11T13:44:28Z</time>
      </trkpt>
      <trkpt lat="44.88213" lon="6.48862">
        <ele>1574.8</ele>
        <time>2024-08-11T13:44:29Z</time>
      </trkpt>
      <trkpt lat="44.88213" lon="6.48862">
        <ele>1574.8</ele>
        <time>2024-08-11T13:44:30Z</time>
      </trkpt>
      <trkpt lat="44.88213" lon="6.48862">
        <ele>1574.8</ele>
        <time>2024-08-11T13:44:31Z</time>
      </trkpt>
      <trkpt lat="44.88213" lon="6.48862">
        <ele>1574.4</ele>
        <time>2024-08-11T13:44:32Z</time>
      </trkpt>
      <trkpt lat="44.88213" lon="6.48862">
        <ele>1574.2</ele>
        <time>2024-08-11T13:44:33Z</time>
      </trkpt>
      <trkpt lat="44.88213" lon="6.48862">
        <ele>1574.2</ele>
        <time>2024-08-11T13:44:34Z</time>
      </trkpt>
      <trkpt lat="44.88213" lon="6.48862">
        <ele>1574.4</ele>
        <time>2024-08-11T13:44:35Z</time>
      </trkpt>
      <trkpt lat="44.88213" lon="6.48862">
        <ele>1574.4</ele>
        <time>2024-08-11T13:44:36Z</time>
      </trkpt>
      <trkpt lat="44.88213" lon="6.48862">
        <ele>1574.2</ele>
        <time>2024-08-11T13:44:37Z</time>
      </trkpt>
      <trkpt lat="44.88213" lon="6.48862">
        <ele>1574</ele>
        <time>2024-08-11T13:44:38Z</time>
      </trkpt>
      <trkpt lat="44.88213" lon="6.48862">
        <ele>1573.8</ele>
        <time>2024-08-11T13:44:39Z</time>
      </trkpt>
      <trkpt lat="44.88213" lon="6.48862">
        <ele>1573.8</ele>
        <time>2024-08-11T13:44:40Z</time>
      </trkpt>
      <trkpt lat="44.88213" lon="6.48862">
        <ele>1573.8</ele>
        <time>2024-08-11T13:44:41Z</time>
      </trkpt>
      <trkpt lat="44.88213" lon="6.48862">
        <ele>1573.8</ele>
        <time>2024-08-11T13:44:42Z</time>
      </trkpt>
      <trkpt lat="44.88213" lon="6.48862">
        <ele>1574</ele>
        <time>2024-08-11T13:44:43Z</time>
      </trkpt>
      <trkpt lat="44.88213" lon="6.48862">
        <ele>1574</ele>
        <time>2024-08-11T13:44:44Z</time>
      </trkpt>
      <trkpt lat="44.88213" lon="6.48862">
        <ele>1573.8</ele>
        <time>2024-08-11T13:44:45Z</time>
      </trkpt>
      <trkpt lat="44.88213" lon="6.48862">
        <ele>1573.8</ele>
        <time>2024-08-11T13:44:46Z</time>
      </trkpt>
      <trkpt lat="44.88213" lon="6.48862">
        <ele>1573.6</ele>
        <time>2024-08-11T13:44:47Z</time>
      </trkpt>
      <trkpt lat="44.88213" lon="6.48862">
        <ele>1573.6</ele>
        <time>2024-08-11T13:44:48Z</time>
      </trkpt>
      <trkpt lat="44.88213" lon="6.48862">
        <ele>1573.6</ele>
        <time>2024-08-11T13:44:49Z</time>
      </trkpt>
      <trkpt lat="44.88213" lon="6.48862">
        <ele>1573.6</ele>
        <time>2024-08-11T13:44:50Z</time>
      </trkpt>
      <trkpt lat="44.88213" lon="6.48862">
        <ele>1573.6</ele>
        <time>2024-08-11T13:44:51Z</time>
      </trkpt>
      <trkpt lat="44.88213" lon="6.48862">
        <ele>1573.8</ele>
        <time>2024-08-11T13:44:52Z</time>
      </trkpt>
      <trkpt lat="44.88213" lon="6.48862">
        <ele>1573.8</ele>
        <time>2024-08-11T13:44:53Z</time>
      </trkpt>
      <trkpt lat="44.88213" lon="6.48862">
        <ele>1573.6</ele>
        <time>2024-08-11T13:44:54Z</time>
      </trkpt>
      <trkpt lat="44.88213" lon="6.48862">
        <ele>1573.6</ele>
        <time>2024-08-11T13:44:55Z</time>
      </trkpt>
      <trkpt lat="44.88213" lon="6.48862">
        <ele>1573.6</ele>
        <time>2024-08-11T13:44:56Z</time>
      </trkpt>
      <trkpt lat="44.88213" lon="6.48862">
        <ele>1573.2</ele>
        <time>2024-08-11T13:44:57Z</time>
      </trkpt>
      <trkpt lat="44.88213" lon="6.48862">
        <ele>1573.2</ele>
        <time>2024-08-11T13:44:58Z</time>
      </trkpt>
      <trkpt lat="44.88213" lon="6.48862">
        <ele>1573.4</ele>
        <time>2024-08-11T13:44:59Z</time>
      </trkpt>
      <trkpt lat="44.88213" lon="6.48862">
        <ele>1573.4</ele>
        <time>2024-08-11T13:45:00Z</time>
      </trkpt>
      <trkpt lat="44.88213" lon="6.48862">
        <ele>1573.4</ele>
        <time>2024-08-11T13:45:01Z</time>
      </trkpt>
      <trkpt lat="44.88213" lon="6.48862">
        <ele>1573.6</ele>
        <time>2024-08-11T13:45:02Z</time>
      </trkpt>
      <trkpt lat="44.88213" lon="6.48862">
        <ele>1573.6</ele>
        <time>2024-08-11T13:45:03Z</time>
      </trkpt>
      <trkpt lat="44.88213" lon="6.48862">
        <ele>1573.6</ele>
        <time>2024-08-11T13:45:04Z</time>
      </trkpt>
      <trkpt lat="44.88213" lon="6.48862">
        <ele>1573.4</ele>
        <time>2024-08-11T13:45:05Z</time>
      </trkpt>
      <trkpt lat="44.88213" lon="6.48862">
        <ele>1573.4</ele>
        <time>2024-08-11T13:45:06Z</time>
      </trkpt>
      <trkpt lat="44.88213" lon="6.48862">
        <ele>1573.4</ele>
        <time>2024-08-11T13:45:07Z</time>
      </trkpt>
      <trkpt lat="44.88213" lon="6.48862">
        <ele>1573.4</ele>
        <time>2024-08-11T13:45:08Z</time>
      </trkpt>
      <trkpt lat="44.88213" lon="6.48862">
        <ele>1573.2</ele>
        <time>2024-08-11T13:45:09Z</time>
      </trkpt>
      <trkpt lat="44.88213" lon="6.48862">
        <ele>1573.2</ele>
        <time>2024-08-11T13:45:10Z</time>
      </trkpt>
      <trkpt lat="44.88213" lon="6.48862">
        <ele>1573.2</ele>
        <time>2024-08-11T13:45:11Z</time>
      </trkpt>
      <trkpt lat="44.88213" lon="6.48862">
        <ele>1573.2</ele>
        <time>2024-08-11T13:45:12Z</time>
      </trkpt>
      <trkpt lat="44.88213" lon="6.48862">
        <ele>1573.2</ele>
        <time>2024-08-11T13:45:13Z</time>
      </trkpt>
      <trkpt lat="44.88213" lon="6.48862">
        <ele>1573.2</ele>
        <time>2024-08-11T13:45:14Z</time>
      </trkpt>
      <trkpt lat="44.88213" lon="6.48862">
        <ele>1573.2</ele>
        <time>2024-08-11T13:45:15Z</time>
      </trkpt>
      <trkpt lat="44.88213" lon="6.48862">
        <ele>1573.2</ele>
        <time>2024-08-11T13:45:16Z</time>
      </trkpt>
      <trkpt lat="44.88213" lon="6.48862">
        <ele>1573.2</ele>
        <time>2024-08-11T13:45:17Z</time>
      </trkpt>
      <trkpt lat="44.88213" lon="6.48862">
        <ele>1573</ele>
        <time>2024-08-11T13:45:18Z</time>
      </trkpt>
      <trkpt lat="44.88213" lon="6.48862">
        <ele>1573</ele>
        <time>2024-08-11T13:45:19Z</time>
      </trkpt>
      <trkpt lat="44.88213" lon="6.48862">
        <ele>1573.2</ele>
        <time>2024-08-11T13:45:20Z</time>
      </trkpt>
      <trkpt lat="44.88213" lon="6.48862">
        <ele>1573.2</ele>
        <time>2024-08-11T13:45:21Z</time>
      </trkpt>
      <trkpt lat="44.88213" lon="6.48862">
        <ele>1573.2</ele>
        <time>2024-08-11T13:45:22Z</time>
      </trkpt>
      <trkpt lat="44.88213" lon="6.48862">
        <ele>1573.2</ele>
        <time>2024-08-11T13:45:23Z</time>
      </trkpt>
      <trkpt lat="44.88213" lon="6.48862">
        <ele>1573.2</ele>
        <time>2024-08-11T13:45:24Z</time>
      </trkpt>
      <trkpt lat="44.88213" lon="6.48862">
        <ele>1573.2</ele>
        <time>2024-08-11T13:45:25Z</time>
      </trkpt>
      <trkpt lat="44.88213" lon="6.48862">
        <ele>1573</ele>
        <time>2024-08-11T13:45:26Z</time>
      </trkpt>
      <trkpt lat="44.88213" lon="6.48862">
        <ele>1573</ele>
        <time>2024-08-11T13:45:27Z</time>
      </trkpt>
      <trkpt lat="44.88213" lon="6.48862">
        <ele>1573.2</ele>
        <time>2024-08-11T13:45:28Z</time>
      </trkpt>
      <trkpt lat="44.88213" lon="6.48862">
        <ele>1573.2</ele>
        <time>2024-08-11T13:45:29Z</time>
      </trkpt>
      <trkpt lat="44.88212" lon="6.48863">
        <ele>1573.2</ele>
        <time>2024-08-11T13:45:30Z</time>
      </trkpt>
      <trkpt lat="44.88212" lon="6.48863">
        <ele>1573.2</ele>
        <time>2024-08-11T13:45:31Z</time>
      </trkpt>
      <trkpt lat="44.88208" lon="6.48863">
        <ele>1573.2</ele>
        <time>2024-08-11T13:45:32Z</time>
      </trkpt>
      <trkpt lat="44.88206" lon="6.48863">
        <ele>1573.2</ele>
        <time>2024-08-11T13:45:33Z</time>
      </trkpt>
      <trkpt lat="44.88204" lon="6.48863">
        <ele>1573.2</ele>
        <time>2024-08-11T13:45:34Z</time>
      </trkpt>
      <trkpt lat="44.88204" lon="6.48863">
        <ele>1573.2</ele>
        <time>2024-08-11T13:45:35Z</time>
      </trkpt>
      <trkpt lat="44.88201" lon="6.48863">
        <ele>1573</ele>
        <time>2024-08-11T13:45:36Z</time>
      </trkpt>
      <trkpt lat="44.88201" lon="6.48863">
        <ele>1572.8</ele>
        <time>2024-08-11T13:45:37Z</time>
      </trkpt>
      <trkpt lat="44.88198" lon="6.48863">
        <ele>1572.8</ele>
        <time>2024-08-11T13:45:38Z</time>
      </trkpt>
      <trkpt lat="44.88198" lon="6.48863">
        <ele>1572.8</ele>
        <time>2024-08-11T13:45:39Z</time>
      </trkpt>
      <trkpt lat="44.88196" lon="6.48863">
        <ele>1572.8</ele>
        <time>2024-08-11T13:45:40Z</time>
      </trkpt>
      <trkpt lat="44.88196" lon="6.48863">
        <ele>1572.6</ele>
        <time>2024-08-11T13:45:41Z</time>
      </trkpt>
      <trkpt lat="44.88193" lon="6.48865">
        <ele>1572.2</ele>
        <time>2024-08-11T13:45:42Z</time>
      </trkpt>
      <trkpt lat="44.88191" lon="6.48864">
        <ele>1571.8</ele>
        <time>2024-08-11T13:45:43Z</time>
      </trkpt>
      <trkpt lat="44.88191" lon="6.48864">
        <ele>1571.6</ele>
        <time>2024-08-11T13:45:44Z</time>
      </trkpt>
      <trkpt lat="44.88188" lon="6.48865">
        <ele>1571.6</ele>
        <time>2024-08-11T13:45:45Z</time>
      </trkpt>
      <trkpt lat="44.88188" lon="6.48865">
        <ele>1571.2</ele>
        <time>2024-08-11T13:45:46Z</time>
      </trkpt>
      <trkpt lat="44.88185" lon="6.48864">
        <ele>1570.8</ele>
        <time>2024-08-11T13:45:47Z</time>
      </trkpt>
      <trkpt lat="44.88185" lon="6.48864">
        <ele>1570.4</ele>
        <time>2024-08-11T13:45:48Z</time>
      </trkpt>
      <trkpt lat="44.88182" lon="6.48863">
        <ele>1570.4</ele>
        <time>2024-08-11T13:45:49Z</time>
      </trkpt>
      <trkpt lat="44.88182" lon="6.48863">
        <ele>1570.2</ele>
        <time>2024-08-11T13:45:50Z</time>
      </trkpt>
      <trkpt lat="44.8818" lon="6.48863">
        <ele>1570</ele>
        <time>2024-08-11T13:45:51Z</time>
      </trkpt>
      <trkpt lat="44.8818" lon="6.48863">
        <ele>1569.6</ele>
        <time>2024-08-11T13:45:52Z</time>
      </trkpt>
      <trkpt lat="44.88177" lon="6.48862">
        <ele>1569.4</ele>
        <time>2024-08-11T13:45:53Z</time>
      </trkpt>
      <trkpt lat="44.88177" lon="6.48862">
        <ele>1569</ele>
        <time>2024-08-11T13:45:54Z</time>
      </trkpt>
      <trkpt lat="44.88174" lon="6.48862">
        <ele>1569</ele>
        <time>2024-08-11T13:45:55Z</time>
      </trkpt>
      <trkpt lat="44.88174" lon="6.48862">
        <ele>1569</ele>
        <time>2024-08-11T13:45:56Z</time>
      </trkpt>
      <trkpt lat="44.88171" lon="6.48862">
        <ele>1568.8</ele>
        <time>2024-08-11T13:45:57Z</time>
      </trkpt>
      <trkpt lat="44.88171" lon="6.48862">
        <ele>1568.4</ele>
        <time>2024-08-11T13:45:58Z</time>
      </trkpt>
      <trkpt lat="44.88168" lon="6.48863">
        <ele>1568.4</ele>
        <time>2024-08-11T13:45:59Z</time>
      </trkpt>
      <trkpt lat="44.88168" lon="6.48863">
        <ele>1568.6</ele>
        <time>2024-08-11T13:46:00Z</time>
      </trkpt>
      <trkpt lat="44.88166" lon="6.48864">
        <ele>1568.6</ele>
        <time>2024-08-11T13:46:01Z</time>
      </trkpt>
      <trkpt lat="44.88166" lon="6.48864">
        <ele>1568.2</ele>
        <time>2024-08-11T13:46:02Z</time>
      </trkpt>
      <trkpt lat="44.88163" lon="6.48865">
        <ele>1568.2</ele>
        <time>2024-08-11T13:46:03Z</time>
      </trkpt>
      <trkpt lat="44.88163" lon="6.48865">
        <ele>1568</ele>
        <time>2024-08-11T13:46:04Z</time>
      </trkpt>
      <trkpt lat="44.8816" lon="6.48866">
        <ele>1568</ele>
        <time>2024-08-11T13:46:05Z</time>
      </trkpt>
      <trkpt lat="44.8816" lon="6.48866">
        <ele>1567.8</ele>
        <time>2024-08-11T13:46:06Z</time>
      </trkpt>
      <trkpt lat="44.88157" lon="6.48868">
        <ele>1567.6</ele>
        <time>2024-08-11T13:46:07Z</time>
      </trkpt>
      <trkpt lat="44.88157" lon="6.48868">
        <ele>1567.8</ele>
        <time>2024-08-11T13:46:08Z</time>
      </trkpt>
      <trkpt lat="44.88155" lon="6.48868">
        <ele>1567.8</ele>
        <time>2024-08-11T13:46:09Z</time>
      </trkpt>
      <trkpt lat="44.88155" lon="6.48868">
        <ele>1567.8</ele>
        <time>2024-08-11T13:46:10Z</time>
      </trkpt>
      <trkpt lat="44.88152" lon="6.48868">
        <ele>1567.6</ele>
        <time>2024-08-11T13:46:11Z</time>
      </trkpt>
      <trkpt lat="44.88152" lon="6.48868">
        <ele>1567.6</ele>
        <time>2024-08-11T13:46:12Z</time>
      </trkpt>
      <trkpt lat="44.88149" lon="6.48868">
        <ele>1567.4</ele>
        <time>2024-08-11T13:46:13Z</time>
      </trkpt>
      <trkpt lat="44.88149" lon="6.48868">
        <ele>1567.2</ele>
        <time>2024-08-11T13:46:14Z</time>
      </trkpt>
      <trkpt lat="44.88147" lon="6.48868">
        <ele>1567.2</ele>
        <time>2024-08-11T13:46:15Z</time>
      </trkpt>
      <trkpt lat="44.88145" lon="6.48868">
        <ele>1567.2</ele>
        <time>2024-08-11T13:46:16Z</time>
      </trkpt>
      <trkpt lat="44.88145" lon="6.48868">
        <ele>1567</ele>
        <time>2024-08-11T13:46:17Z</time>
      </trkpt>
      <trkpt lat="44.88142" lon="6.48868">
        <ele>1566.8</ele>
        <time>2024-08-11T13:46:18Z</time>
      </trkpt>
      <trkpt lat="44.88142" lon="6.48868">
        <ele>1566.8</ele>
        <time>2024-08-11T13:46:19Z</time>
      </trkpt>
      <trkpt lat="44.88139" lon="6.48868">
        <ele>1566.8</ele>
        <time>2024-08-11T13:46:20Z</time>
      </trkpt>
      <trkpt lat="44.88139" lon="6.48868">
        <ele>1566.6</ele>
        <time>2024-08-11T13:46:21Z</time>
      </trkpt>
      <trkpt lat="44.88136" lon="6.48869">
        <ele>1566.6</ele>
        <time>2024-08-11T13:46:22Z</time>
      </trkpt>
      <trkpt lat="44.88136" lon="6.48869">
        <ele>1566.6</ele>
        <time>2024-08-11T13:46:23Z</time>
      </trkpt>
      <trkpt lat="44.88133" lon="6.48869">
        <ele>1566.4</ele>
        <time>2024-08-11T13:46:24Z</time>
      </trkpt>
      <trkpt lat="44.88133" lon="6.48869">
        <ele>1566.2</ele>
        <time>2024-08-11T13:46:25Z</time>
      </trkpt>
      <trkpt lat="44.8813" lon="6.4887">
        <ele>1566.2</ele>
        <time>2024-08-11T13:46:26Z</time>
      </trkpt>
      <trkpt lat="44.8813" lon="6.4887">
        <ele>1565.8</ele>
        <time>2024-08-11T13:46:27Z</time>
      </trkpt>
      <trkpt lat="44.88127" lon="6.4887">
        <ele>1565.6</ele>
        <time>2024-08-11T13:46:28Z</time>
      </trkpt>
      <trkpt lat="44.88127" lon="6.4887">
        <ele>1565.4</ele>
        <time>2024-08-11T13:46:29Z</time>
      </trkpt>
      <trkpt lat="44.88125" lon="6.48871">
        <ele>1565.4</ele>
        <time>2024-08-11T13:46:30Z</time>
      </trkpt>
      <trkpt lat="44.88125" lon="6.48871">
        <ele>1565.2</ele>
        <time>2024-08-11T13:46:31Z</time>
      </trkpt>
      <trkpt lat="44.88121" lon="6.48872">
        <ele>1565.2</ele>
        <time>2024-08-11T13:46:32Z</time>
      </trkpt>
      <trkpt lat="44.88121" lon="6.48872">
        <ele>1565.2</ele>
        <time>2024-08-11T13:46:33Z</time>
      </trkpt>
      <trkpt lat="44.88119" lon="6.48871">
        <ele>1565.2</ele>
        <time>2024-08-11T13:46:34Z</time>
      </trkpt>
      <trkpt lat="44.88119" lon="6.48871">
        <ele>1565.2</ele>
        <time>2024-08-11T13:46:35Z</time>
      </trkpt>
      <trkpt lat="44.88115" lon="6.48872">
        <ele>1565</ele>
        <time>2024-08-11T13:46:36Z</time>
      </trkpt>
      <trkpt lat="44.88115" lon="6.48872">
        <ele>1564.8</ele>
        <time>2024-08-11T13:46:37Z</time>
      </trkpt>
      <trkpt lat="44.88112" lon="6.48872">
        <ele>1564.6</ele>
        <time>2024-08-11T13:46:38Z</time>
      </trkpt>
      <trkpt lat="44.88112" lon="6.48872">
        <ele>1564.2</ele>
        <time>2024-08-11T13:46:39Z</time>
      </trkpt>
      <trkpt lat="44.88109" lon="6.48873">
        <ele>1564</ele>
        <time>2024-08-11T13:46:40Z</time>
      </trkpt>
      <trkpt lat="44.88109" lon="6.48873">
        <ele>1563.8</ele>
        <time>2024-08-11T13:46:41Z</time>
      </trkpt>
      <trkpt lat="44.88107" lon="6.48873">
        <ele>1563.8</ele>
        <time>2024-08-11T13:46:42Z</time>
      </trkpt>
      <trkpt lat="44.88107" lon="6.48873">
        <ele>1563.8</ele>
        <time>2024-08-11T13:46:43Z</time>
      </trkpt>
      <trkpt lat="44.88104" lon="6.48873">
        <ele>1563.6</ele>
        <time>2024-08-11T13:46:44Z</time>
      </trkpt>
      <trkpt lat="44.88104" lon="6.48873">
        <ele>1563.4</ele>
        <time>2024-08-11T13:46:45Z</time>
      </trkpt>
      <trkpt lat="44.88101" lon="6.48873">
        <ele>1563</ele>
        <time>2024-08-11T13:46:46Z</time>
      </trkpt>
      <trkpt lat="44.88101" lon="6.48873">
        <ele>1563</ele>
        <time>2024-08-11T13:46:47Z</time>
      </trkpt>
      <trkpt lat="44.88099" lon="6.48873">
        <ele>1563</ele>
        <time>2024-08-11T13:46:48Z</time>
      </trkpt>
      <trkpt lat="44.88099" lon="6.48873">
        <ele>1563</ele>
        <time>2024-08-11T13:46:49Z</time>
      </trkpt>
      <trkpt lat="44.88096" lon="6.48873">
        <ele>1562.8</ele>
        <time>2024-08-11T13:46:50Z</time>
      </trkpt>
      <trkpt lat="44.88096" lon="6.48873">
        <ele>1562.6</ele>
        <time>2024-08-11T13:46:51Z</time>
      </trkpt>
      <trkpt lat="44.88093" lon="6.48872">
        <ele>1562.4</ele>
        <time>2024-08-11T13:46:52Z</time>
      </trkpt>
      <trkpt lat="44.88091" lon="6.48872">
        <ele>1562.2</ele>
        <time>2024-08-11T13:46:53Z</time>
      </trkpt>
      <trkpt lat="44.88089" lon="6.48872">
        <ele>1562.2</ele>
        <time>2024-08-11T13:46:54Z</time>
      </trkpt>
      <trkpt lat="44.88089" lon="6.48872">
        <ele>1562.2</ele>
        <time>2024-08-11T13:46:55Z</time>
      </trkpt>
      <trkpt lat="44.88086" lon="6.48872">
        <ele>1561.8</ele>
        <time>2024-08-11T13:46:56Z</time>
      </trkpt>
      <trkpt lat="44.88086" lon="6.48872">
        <ele>1561.6</ele>
        <time>2024-08-11T13:46:57Z</time>
      </trkpt>
      <trkpt lat="44.88083" lon="6.48872">
        <ele>1561.6</ele>
        <time>2024-08-11T13:46:58Z</time>
      </trkpt>
      <trkpt lat="44.88083" lon="6.48872">
        <ele>1561.6</ele>
        <time>2024-08-11T13:46:59Z</time>
      </trkpt>
      <trkpt lat="44.8808" lon="6.48871">
        <ele>1561.4</ele>
        <time>2024-08-11T13:47:00Z</time>
      </trkpt>
      <trkpt lat="44.8808" lon="6.48871">
        <ele>1561</ele>
        <time>2024-08-11T13:47:01Z</time>
      </trkpt>
      <trkpt lat="44.88077" lon="6.4887">
        <ele>1560.6</ele>
        <time>2024-08-11T13:47:02Z</time>
      </trkpt>
      <trkpt lat="44.88075" lon="6.48871">
        <ele>1560.6</ele>
        <time>2024-08-11T13:47:03Z</time>
      </trkpt>
      <trkpt lat="44.88075" lon="6.48871">
        <ele>1560.6</ele>
        <time>2024-08-11T13:47:04Z</time>
      </trkpt>
      <trkpt lat="44.88071" lon="6.48872">
        <ele>1560.6</ele>
        <time>2024-08-11T13:47:05Z</time>
      </trkpt>
      <trkpt lat="44.88071" lon="6.48872">
        <ele>1560.4</ele>
        <time>2024-08-11T13:47:06Z</time>
      </trkpt>
      <trkpt lat="44.88069" lon="6.48873">
        <ele>1560.2</ele>
        <time>2024-08-11T13:47:07Z</time>
      </trkpt>
      <trkpt lat="44.88067" lon="6.48874">
        <ele>1560.2</ele>
        <time>2024-08-11T13:47:08Z</time>
      </trkpt>
      <trkpt lat="44.88067" lon="6.48874">
        <ele>1560</ele>
        <time>2024-08-11T13:47:09Z</time>
      </trkpt>
      <trkpt lat="44.88064" lon="6.48875">
        <ele>1560.2</ele>
        <time>2024-08-11T13:47:10Z</time>
      </trkpt>
      <trkpt lat="44.88064" lon="6.48875">
        <ele>1560</ele>
        <time>2024-08-11T13:47:11Z</time>
      </trkpt>
      <trkpt lat="44.88061" lon="6.48875">
        <ele>1560</ele>
        <time>2024-08-11T13:47:12Z</time>
      </trkpt>
      <trkpt lat="44.88061" lon="6.48875">
        <ele>1559.8</ele>
        <time>2024-08-11T13:47:13Z</time>
      </trkpt>
      <trkpt lat="44.88059" lon="6.48876">
        <ele>1559.6</ele>
        <time>2024-08-11T13:47:14Z</time>
      </trkpt>
      <trkpt lat="44.88059" lon="6.48876">
        <ele>1559.4</ele>
        <time>2024-08-11T13:47:15Z</time>
      </trkpt>
      <trkpt lat="44.88056" lon="6.48877">
        <ele>1559.4</ele>
        <time>2024-08-11T13:47:16Z</time>
      </trkpt>
      <trkpt lat="44.88054" lon="6.48877">
        <ele>1559.4</ele>
        <time>2024-08-11T13:47:17Z</time>
      </trkpt>
      <trkpt lat="44.88054" lon="6.48877">
        <ele>1559.2</ele>
        <time>2024-08-11T13:47:18Z</time>
      </trkpt>
      <trkpt lat="44.88052" lon="6.48879">
        <ele>1559.2</ele>
        <time>2024-08-11T13:47:19Z</time>
      </trkpt>
      <trkpt lat="44.88052" lon="6.48879">
        <ele>1559.4</ele>
        <time>2024-08-11T13:47:20Z</time>
      </trkpt>
      <trkpt lat="44.88049" lon="6.48881">
        <ele>1559.4</ele>
        <time>2024-08-11T13:47:21Z</time>
      </trkpt>
      <trkpt lat="44.88049" lon="6.48881">
        <ele>1559.2</ele>
        <time>2024-08-11T13:47:22Z</time>
      </trkpt>
      <trkpt lat="44.88046" lon="6.48882">
        <ele>1559</ele>
        <time>2024-08-11T13:47:23Z</time>
      </trkpt>
      <trkpt lat="44.88046" lon="6.48882">
        <ele>1559</ele>
        <time>2024-08-11T13:47:24Z</time>
      </trkpt>
      <trkpt lat="44.88044" lon="6.48884">
        <ele>1558.8</ele>
        <time>2024-08-11T13:47:25Z</time>
      </trkpt>
      <trkpt lat="44.88044" lon="6.48884">
        <ele>1558.8</ele>
        <time>2024-08-11T13:47:26Z</time>
      </trkpt>
      <trkpt lat="44.88042" lon="6.48886">
        <ele>1558.6</ele>
        <time>2024-08-11T13:47:27Z</time>
      </trkpt>
      <trkpt lat="44.88042" lon="6.48886">
        <ele>1558.4</ele>
        <time>2024-08-11T13:47:28Z</time>
      </trkpt>
      <trkpt lat="44.88039" lon="6.48887">
        <ele>1558.4</ele>
        <time>2024-08-11T13:47:29Z</time>
      </trkpt>
      <trkpt lat="44.88037" lon="6.48888">
        <ele>1558.2</ele>
        <time>2024-08-11T13:47:30Z</time>
      </trkpt>
      <trkpt lat="44.88037" lon="6.48888">
        <ele>1557.6</ele>
        <time>2024-08-11T13:47:31Z</time>
      </trkpt>
      <trkpt lat="44.88035" lon="6.48888">
        <ele>1557.6</ele>
        <time>2024-08-11T13:47:32Z</time>
      </trkpt>
      <trkpt lat="44.88035" lon="6.48888">
        <ele>1557.4</ele>
        <time>2024-08-11T13:47:33Z</time>
      </trkpt>
      <trkpt lat="44.88032" lon="6.4889">
        <ele>1557.4</ele>
        <time>2024-08-11T13:47:34Z</time>
      </trkpt>
      <trkpt lat="44.88032" lon="6.4889">
        <ele>1557.4</ele>
        <time>2024-08-11T13:47:35Z</time>
      </trkpt>
      <trkpt lat="44.88029" lon="6.48892">
        <ele>1557.2</ele>
        <time>2024-08-11T13:47:36Z</time>
      </trkpt>
      <trkpt lat="44.88029" lon="6.48892">
        <ele>1556.8</ele>
        <time>2024-08-11T13:47:37Z</time>
      </trkpt>
      <trkpt lat="44.88027" lon="6.48893">
        <ele>1556.4</ele>
        <time>2024-08-11T13:47:38Z</time>
      </trkpt>
      <trkpt lat="44.88027" lon="6.48893">
        <ele>1556.2</ele>
        <time>2024-08-11T13:47:39Z</time>
      </trkpt>
      <trkpt lat="44.88024" lon="6.48893">
        <ele>1556.2</ele>
        <time>2024-08-11T13:47:40Z</time>
      </trkpt>
      <trkpt lat="44.88024" lon="6.48893">
        <ele>1556.2</ele>
        <time>2024-08-11T13:47:41Z</time>
      </trkpt>
      <trkpt lat="44.88022" lon="6.48895">
        <ele>1556</ele>
        <time>2024-08-11T13:47:42Z</time>
      </trkpt>
      <trkpt lat="44.88022" lon="6.48895">
        <ele>1555.6</ele>
        <time>2024-08-11T13:47:43Z</time>
      </trkpt>
      <trkpt lat="44.8802" lon="6.48897">
        <ele>1555.4</ele>
        <time>2024-08-11T13:47:44Z</time>
      </trkpt>
      <trkpt lat="44.8802" lon="6.48897">
        <ele>1555.4</ele>
        <time>2024-08-11T13:47:45Z</time>
      </trkpt>
      <trkpt lat="44.88017" lon="6.48898">
        <ele>1555</ele>
        <time>2024-08-11T13:47:46Z</time>
      </trkpt>
      <trkpt lat="44.88017" lon="6.48898">
        <ele>1555</ele>
        <time>2024-08-11T13:47:47Z</time>
      </trkpt>
      <trkpt lat="44.88017" lon="6.48898">
        <ele>1555.2</ele>
        <time>2024-08-11T13:47:48Z</time>
      </trkpt>
      <trkpt lat="44.88017" lon="6.48898">
        <ele>1555.6</ele>
        <time>2024-08-11T13:47:49Z</time>
      </trkpt>
      <trkpt lat="44.88017" lon="6.48898">
        <ele>1555.6</ele>
        <time>2024-08-11T13:47:50Z</time>
      </trkpt>
      <trkpt lat="44.88017" lon="6.48898">
        <ele>1555.6</ele>
        <time>2024-08-11T13:47:51Z</time>
      </trkpt>
      <trkpt lat="44.88017" lon="6.48898">
        <ele>1555.6</ele>
        <time>2024-08-11T13:47:52Z</time>
      </trkpt>
      <trkpt lat="44.88017" lon="6.48898">
        <ele>1555.6</ele>
        <time>2024-08-11T13:47:53Z</time>
      </trkpt>
      <trkpt lat="44.88015" lon="6.489">
        <ele>1555.6</ele>
        <time>2024-08-11T13:47:54Z</time>
      </trkpt>
      <trkpt lat="44.88015" lon="6.489">
        <ele>1555.8</ele>
        <time>2024-08-11T13:47:55Z</time>
      </trkpt>
      <trkpt lat="44.88015" lon="6.489">
        <ele>1555.8</ele>
        <time>2024-08-11T13:47:56Z</time>
      </trkpt>
      <trkpt lat="44.88015" lon="6.489">
        <ele>1555.8</ele>
        <time>2024-08-11T13:47:57Z</time>
      </trkpt>
      <trkpt lat="44.88015" lon="6.489">
        <ele>1555.8</ele>
        <time>2024-08-11T13:47:58Z</time>
      </trkpt>
      <trkpt lat="44.88015" lon="6.489">
        <ele>1555.6</ele>
        <time>2024-08-11T13:47:59Z</time>
      </trkpt>
      <trkpt lat="44.88015" lon="6.489">
        <ele>1555.6</ele>
        <time>2024-08-11T13:48:00Z</time>
      </trkpt>
      <trkpt lat="44.88015" lon="6.489">
        <ele>1555.2</ele>
        <time>2024-08-11T13:48:01Z</time>
      </trkpt>
      <trkpt lat="44.88015" lon="6.489">
        <ele>1555.2</ele>
        <time>2024-08-11T13:48:02Z</time>
      </trkpt>
      <trkpt lat="44.88015" lon="6.489">
        <ele>1555.2</ele>
        <time>2024-08-11T13:48:03Z</time>
      </trkpt>
      <trkpt lat="44.88015" lon="6.489">
        <ele>1555.2</ele>
        <time>2024-08-11T13:48:04Z</time>
      </trkpt>
      <trkpt lat="44.88015" lon="6.489">
        <ele>1555.2</ele>
        <time>2024-08-11T13:48:05Z</time>
      </trkpt>
      <trkpt lat="44.88015" lon="6.489">
        <ele>1554.8</ele>
        <time>2024-08-11T13:48:06Z</time>
      </trkpt>
      <trkpt lat="44.88012" lon="6.48901">
        <ele>1554.6</ele>
        <time>2024-08-11T13:48:07Z</time>
      </trkpt>
      <trkpt lat="44.88012" lon="6.48901">
        <ele>1554.6</ele>
        <time>2024-08-11T13:48:08Z</time>
      </trkpt>
      <trkpt lat="44.88009" lon="6.489">
        <ele>1555</ele>
        <time>2024-08-11T13:48:09Z</time>
      </trkpt>
      <trkpt lat="44.88007" lon="6.489">
        <ele>1555.4</ele>
        <time>2024-08-11T13:48:10Z</time>
      </trkpt>
      <trkpt lat="44.88005" lon="6.489">
        <ele>1555.4</ele>
        <time>2024-08-11T13:48:11Z</time>
      </trkpt>
      <trkpt lat="44.88003" lon="6.489">
        <ele>1555.8</ele>
        <time>2024-08-11T13:48:12Z</time>
      </trkpt>
      <trkpt lat="44.88001" lon="6.48901">
        <ele>1556</ele>
        <time>2024-08-11T13:48:13Z</time>
      </trkpt>
      <trkpt lat="44.88001" lon="6.48901">
        <ele>1556</ele>
        <time>2024-08-11T13:48:14Z</time>
      </trkpt>
      <trkpt lat="44.87998" lon="6.48903">
        <ele>1555.6</ele>
        <time>2024-08-11T13:48:15Z</time>
      </trkpt>
      <trkpt lat="44.87998" lon="6.48903">
        <ele>1554.6</ele>
        <time>2024-08-11T13:48:16Z</time>
      </trkpt>
      <trkpt lat="44.87995" lon="6.48905">
        <ele>1553.8</ele>
        <time>2024-08-11T13:48:17Z</time>
      </trkpt>
      <trkpt lat="44.87995" lon="6.48905">
        <ele>1553.8</ele>
        <time>2024-08-11T13:48:18Z</time>
      </trkpt>
      <trkpt lat="44.87993" lon="6.48908">
        <ele>1553.8</ele>
        <time>2024-08-11T13:48:19Z</time>
      </trkpt>
      <trkpt lat="44.87993" lon="6.48908">
        <ele>1553.8</ele>
        <time>2024-08-11T13:48:20Z</time>
      </trkpt>
      <trkpt lat="44.87991" lon="6.48911">
        <ele>1553.6</ele>
        <time>2024-08-11T13:48:21Z</time>
      </trkpt>
      <trkpt lat="44.8799" lon="6.48913">
        <ele>1553.4</ele>
        <time>2024-08-11T13:48:22Z</time>
      </trkpt>
      <trkpt lat="44.8799" lon="6.48913">
        <ele>1553</ele>
        <time>2024-08-11T13:48:23Z</time>
      </trkpt>
      <trkpt lat="44.87989" lon="6.48916">
        <ele>1552.8</ele>
        <time>2024-08-11T13:48:24Z</time>
      </trkpt>
      <trkpt lat="44.87989" lon="6.48916">
        <ele>1552.8</ele>
        <time>2024-08-11T13:48:25Z</time>
      </trkpt>
      <trkpt lat="44.87987" lon="6.48919">
        <ele>1552.8</ele>
        <time>2024-08-11T13:48:26Z</time>
      </trkpt>
      <trkpt lat="44.87987" lon="6.48919">
        <ele>1552.8</ele>
        <time>2024-08-11T13:48:27Z</time>
      </trkpt>
      <trkpt lat="44.87985" lon="6.48923">
        <ele>1552.6</ele>
        <time>2024-08-11T13:48:28Z</time>
      </trkpt>
      <trkpt lat="44.87984" lon="6.48924">
        <ele>1552.4</ele>
        <time>2024-08-11T13:48:29Z</time>
      </trkpt>
      <trkpt lat="44.87984" lon="6.48924">
        <ele>1552.2</ele>
        <time>2024-08-11T13:48:30Z</time>
      </trkpt>
      <trkpt lat="44.87981" lon="6.48926">
        <ele>1552</ele>
        <time>2024-08-11T13:48:31Z</time>
      </trkpt>
      <trkpt lat="44.87981" lon="6.48926">
        <ele>1551.8</ele>
        <time>2024-08-11T13:48:32Z</time>
      </trkpt>
      <trkpt lat="44.87979" lon="6.48927">
        <ele>1551.6</ele>
        <time>2024-08-11T13:48:33Z</time>
      </trkpt>
      <trkpt lat="44.87979" lon="6.48927">
        <ele>1551.2</ele>
        <time>2024-08-11T13:48:34Z</time>
      </trkpt>
      <trkpt lat="44.87976" lon="6.48927">
        <ele>1551.2</ele>
        <time>2024-08-11T13:48:35Z</time>
      </trkpt>
      <trkpt lat="44.87976" lon="6.48927">
        <ele>1551.2</ele>
        <time>2024-08-11T13:48:36Z</time>
      </trkpt>
      <trkpt lat="44.87973" lon="6.48927">
        <ele>1551</ele>
        <time>2024-08-11T13:48:37Z</time>
      </trkpt>
      <trkpt lat="44.87973" lon="6.48927">
        <ele>1550.6</ele>
        <time>2024-08-11T13:48:38Z</time>
      </trkpt>
      <trkpt lat="44.8797" lon="6.48925">
        <ele>1550.4</ele>
        <time>2024-08-11T13:48:39Z</time>
      </trkpt>
      <trkpt lat="44.8797" lon="6.48925">
        <ele>1550.2</ele>
        <time>2024-08-11T13:48:40Z</time>
      </trkpt>
      <trkpt lat="44.87968" lon="6.48921">
        <ele>1550.2</ele>
        <time>2024-08-11T13:48:41Z</time>
      </trkpt>
      <trkpt lat="44.87968" lon="6.48921">
        <ele>1550.2</ele>
        <time>2024-08-11T13:48:42Z</time>
      </trkpt>
      <trkpt lat="44.87966" lon="6.48917">
        <ele>1550.2</ele>
        <time>2024-08-11T13:48:43Z</time>
      </trkpt>
      <trkpt lat="44.87966" lon="6.48917">
        <ele>1549.8</ele>
        <time>2024-08-11T13:48:44Z</time>
      </trkpt>
      <trkpt lat="44.87965" lon="6.48914">
        <ele>1549.4</ele>
        <time>2024-08-11T13:48:45Z</time>
      </trkpt>
      <trkpt lat="44.87965" lon="6.48914">
        <ele>1548.8</ele>
        <time>2024-08-11T13:48:46Z</time>
      </trkpt>
      <trkpt lat="44.87963" lon="6.48914">
        <ele>1548.8</ele>
        <time>2024-08-11T13:48:47Z</time>
      </trkpt>
      <trkpt lat="44.87963" lon="6.48914">
        <ele>1548.8</ele>
        <time>2024-08-11T13:48:48Z</time>
      </trkpt>
      <trkpt lat="44.87961" lon="6.48916">
        <ele>1548.8</ele>
        <time>2024-08-11T13:48:49Z</time>
      </trkpt>
      <trkpt lat="44.87961" lon="6.48916">
        <ele>1548.6</ele>
        <time>2024-08-11T13:48:50Z</time>
      </trkpt>
      <trkpt lat="44.87959" lon="6.48917">
        <ele>1547.8</ele>
        <time>2024-08-11T13:48:51Z</time>
      </trkpt>
      <trkpt lat="44.87959" lon="6.48917">
        <ele>1547.4</ele>
        <time>2024-08-11T13:48:52Z</time>
      </trkpt>
      <trkpt lat="44.87956" lon="6.48919">
        <ele>1547.4</ele>
        <time>2024-08-11T13:48:53Z</time>
      </trkpt>
      <trkpt lat="44.87956" lon="6.48919">
        <ele>1547</ele>
        <time>2024-08-11T13:48:54Z</time>
      </trkpt>
      <trkpt lat="44.87954" lon="6.48921">
        <ele>1546.8</ele>
        <time>2024-08-11T13:48:55Z</time>
      </trkpt>
      <trkpt lat="44.87952" lon="6.48922">
        <ele>1546.6</ele>
        <time>2024-08-11T13:48:56Z</time>
      </trkpt>
      <trkpt lat="44.87952" lon="6.48922">
        <ele>1546.6</ele>
        <time>2024-08-11T13:48:57Z</time>
      </trkpt>
      <trkpt lat="44.8795" lon="6.48925">
        <ele>1546.4</ele>
        <time>2024-08-11T13:48:58Z</time>
      </trkpt>
      <trkpt lat="44.8795" lon="6.48925">
        <ele>1546.4</ele>
        <time>2024-08-11T13:48:59Z</time>
      </trkpt>
      <trkpt lat="44.87948" lon="6.48927">
        <ele>1546.2</ele>
        <time>2024-08-11T13:49:00Z</time>
      </trkpt>
      <trkpt lat="44.87948" lon="6.48927">
        <ele>1545.8</ele>
        <time>2024-08-11T13:49:01Z</time>
      </trkpt>
      <trkpt lat="44.87946" lon="6.48929">
        <ele>1545.6</ele>
        <time>2024-08-11T13:49:02Z</time>
      </trkpt>
      <trkpt lat="44.87946" lon="6.48929">
        <ele>1545.6</ele>
        <time>2024-08-11T13:49:03Z</time>
      </trkpt>
      <trkpt lat="44.87943" lon="6.4893">
        <ele>1545</ele>
        <time>2024-08-11T13:49:04Z</time>
      </trkpt>
      <trkpt lat="44.87943" lon="6.4893">
        <ele>1544.8</ele>
        <time>2024-08-11T13:49:05Z</time>
      </trkpt>
      <trkpt lat="44.87941" lon="6.48932">
        <ele>1544.4</ele>
        <time>2024-08-11T13:49:06Z</time>
      </trkpt>
      <trkpt lat="44.87941" lon="6.48932">
        <ele>1544</ele>
        <time>2024-08-11T13:49:07Z</time>
      </trkpt>
      <trkpt lat="44.87938" lon="6.48934">
        <ele>1543.8</ele>
        <time>2024-08-11T13:49:08Z</time>
      </trkpt>
      <trkpt lat="44.87938" lon="6.48934">
        <ele>1543.6</ele>
        <time>2024-08-11T13:49:09Z</time>
      </trkpt>
      <trkpt lat="44.87936" lon="6.48936">
        <ele>1543</ele>
        <time>2024-08-11T13:49:10Z</time>
      </trkpt>
      <trkpt lat="44.87936" lon="6.48936">
        <ele>1542.6</ele>
        <time>2024-08-11T13:49:11Z</time>
      </trkpt>
      <trkpt lat="44.87933" lon="6.48938">
        <ele>1542.4</ele>
        <time>2024-08-11T13:49:12Z</time>
      </trkpt>
      <trkpt lat="44.87933" lon="6.48938">
        <ele>1542.4</ele>
        <time>2024-08-11T13:49:13Z</time>
      </trkpt>
      <trkpt lat="44.87931" lon="6.4894">
        <ele>1542.2</ele>
        <time>2024-08-11T13:49:14Z</time>
      </trkpt>
      <trkpt lat="44.87931" lon="6.4894">
        <ele>1542.2</ele>
        <time>2024-08-11T13:49:15Z</time>
      </trkpt>
      <trkpt lat="44.87928" lon="6.48942">
        <ele>1542</ele>
        <time>2024-08-11T13:49:16Z</time>
      </trkpt>
      <trkpt lat="44.87928" lon="6.48942">
        <ele>1541.8</ele>
        <time>2024-08-11T13:49:17Z</time>
      </trkpt>
      <trkpt lat="44.87926" lon="6.48945">
        <ele>1541</ele>
        <time>2024-08-11T13:49:18Z</time>
      </trkpt>
      <trkpt lat="44.87924" lon="6.48946">
        <ele>1541</ele>
        <time>2024-08-11T13:49:19Z</time>
      </trkpt>
      <trkpt lat="44.87924" lon="6.48946">
        <ele>1541.2</ele>
        <time>2024-08-11T13:49:20Z</time>
      </trkpt>
      <trkpt lat="44.87922" lon="6.48948">
        <ele>1541.6</ele>
        <time>2024-08-11T13:49:21Z</time>
      </trkpt>
      <trkpt lat="44.87922" lon="6.48948">
        <ele>1541.6</ele>
        <time>2024-08-11T13:49:22Z</time>
      </trkpt>
      <trkpt lat="44.8792" lon="6.4895">
        <ele>1541.6</ele>
        <time>2024-08-11T13:49:23Z</time>
      </trkpt>
      <trkpt lat="44.8792" lon="6.4895">
        <ele>1541.2</ele>
        <time>2024-08-11T13:49:24Z</time>
      </trkpt>
      <trkpt lat="44.87917" lon="6.48952">
        <ele>1541.2</ele>
        <time>2024-08-11T13:49:25Z</time>
      </trkpt>
      <trkpt lat="44.87917" lon="6.48952">
        <ele>1541</ele>
        <time>2024-08-11T13:49:26Z</time>
      </trkpt>
      <trkpt lat="44.87916" lon="6.48955">
        <ele>1540.8</ele>
        <time>2024-08-11T13:49:27Z</time>
      </trkpt>
      <trkpt lat="44.87916" lon="6.48955">
        <ele>1540.8</ele>
        <time>2024-08-11T13:49:28Z</time>
      </trkpt>
      <trkpt lat="44.87913" lon="6.48958">
        <ele>1541</ele>
        <time>2024-08-11T13:49:29Z</time>
      </trkpt>
      <trkpt lat="44.87912" lon="6.4896">
        <ele>1541</ele>
        <time>2024-08-11T13:49:30Z</time>
      </trkpt>
      <trkpt lat="44.8791" lon="6.48961">
        <ele>1541.4</ele>
        <time>2024-08-11T13:49:31Z</time>
      </trkpt>
      <trkpt lat="44.8791" lon="6.48961">
        <ele>1541.4</ele>
        <time>2024-08-11T13:49:32Z</time>
      </trkpt>
      <trkpt lat="44.87909" lon="6.48964">
        <ele>1541.6</ele>
        <time>2024-08-11T13:49:33Z</time>
      </trkpt>
      <trkpt lat="44.87909" lon="6.48964">
        <ele>1541.8</ele>
        <time>2024-08-11T13:49:34Z</time>
      </trkpt>
      <trkpt lat="44.87907" lon="6.48967">
        <ele>1541.8</ele>
        <time>2024-08-11T13:49:35Z</time>
      </trkpt>
      <trkpt lat="44.87907" lon="6.48967">
        <ele>1541.4</ele>
        <time>2024-08-11T13:49:36Z</time>
      </trkpt>
      <trkpt lat="44.87904" lon="6.48968">
        <ele>1541.2</ele>
        <time>2024-08-11T13:49:37Z</time>
      </trkpt>
      <trkpt lat="44.87904" lon="6.48968">
        <ele>1540.2</ele>
        <time>2024-08-11T13:49:38Z</time>
      </trkpt>
      <trkpt lat="44.87902" lon="6.4897">
        <ele>1540</ele>
        <time>2024-08-11T13:49:39Z</time>
      </trkpt>
      <trkpt lat="44.87902" lon="6.4897">
        <ele>1540</ele>
        <time>2024-08-11T13:49:40Z</time>
      </trkpt>
      <trkpt lat="44.87899" lon="6.48971">
        <ele>1540</ele>
        <time>2024-08-11T13:49:41Z</time>
      </trkpt>
      <trkpt lat="44.87899" lon="6.48971">
        <ele>1539.6</ele>
        <time>2024-08-11T13:49:42Z</time>
      </trkpt>
      <trkpt lat="44.87897" lon="6.48973">
        <ele>1539.6</ele>
        <time>2024-08-11T13:49:43Z</time>
      </trkpt>
      <trkpt lat="44.87897" lon="6.48973">
        <ele>1539.6</ele>
        <time>2024-08-11T13:49:44Z</time>
      </trkpt>
      <trkpt lat="44.87894" lon="6.48976">
        <ele>1539.2</ele>
        <time>2024-08-11T13:49:45Z</time>
      </trkpt>
      <trkpt lat="44.87893" lon="6.48978">
        <ele>1539.2</ele>
        <time>2024-08-11T13:49:46Z</time>
      </trkpt>
      <trkpt lat="44.87893" lon="6.48978">
        <ele>1539.2</ele>
        <time>2024-08-11T13:49:47Z</time>
      </trkpt>
      <trkpt lat="44.87892" lon="6.48981">
        <ele>1539.2</ele>
        <time>2024-08-11T13:49:48Z</time>
      </trkpt>
      <trkpt lat="44.87892" lon="6.48981">
        <ele>1539.2</ele>
        <time>2024-08-11T13:49:49Z</time>
      </trkpt>
      <trkpt lat="44.8789" lon="6.48984">
        <ele>1539.2</ele>
        <time>2024-08-11T13:49:50Z</time>
      </trkpt>
      <trkpt lat="44.8789" lon="6.48984">
        <ele>1539.2</ele>
        <time>2024-08-11T13:49:51Z</time>
      </trkpt>
      <trkpt lat="44.8789" lon="6.48988">
        <ele>1539.2</ele>
        <time>2024-08-11T13:49:52Z</time>
      </trkpt>
      <trkpt lat="44.8789" lon="6.48988">
        <ele>1539</ele>
        <time>2024-08-11T13:49:53Z</time>
      </trkpt>
      <trkpt lat="44.87888" lon="6.48991">
        <ele>1539</ele>
        <time>2024-08-11T13:49:54Z</time>
      </trkpt>
      <trkpt lat="44.87888" lon="6.48991">
        <ele>1538.6</ele>
        <time>2024-08-11T13:49:55Z</time>
      </trkpt>
      <trkpt lat="44.87886" lon="6.48994">
        <ele>1538.2</ele>
        <time>2024-08-11T13:49:56Z</time>
      </trkpt>
      <trkpt lat="44.87886" lon="6.48994">
        <ele>1537.6</ele>
        <time>2024-08-11T13:49:57Z</time>
      </trkpt>
      <trkpt lat="44.87884" lon="6.48997">
        <ele>1537.2</ele>
        <time>2024-08-11T13:49:58Z</time>
      </trkpt>
      <trkpt lat="44.87884" lon="6.48997">
        <ele>1537</ele>
        <time>2024-08-11T13:49:59Z</time>
      </trkpt>
      <trkpt lat="44.87883" lon="6.49">
        <ele>1537</ele>
        <time>2024-08-11T13:50:00Z</time>
      </trkpt>
      <trkpt lat="44.87883" lon="6.49">
        <ele>1536.8</ele>
        <time>2024-08-11T13:50:01Z</time>
      </trkpt>
      <trkpt lat="44.8788" lon="6.49003">
        <ele>1536.4</ele>
        <time>2024-08-11T13:50:02Z</time>
      </trkpt>
      <trkpt lat="44.8788" lon="6.49006">
        <ele>1536.2</ele>
        <time>2024-08-11T13:50:03Z</time>
      </trkpt>
      <trkpt lat="44.8788" lon="6.49008">
        <ele>1536.2</ele>
        <time>2024-08-11T13:50:04Z</time>
      </trkpt>
      <trkpt lat="44.8788" lon="6.49008">
        <ele>1536.2</ele>
        <time>2024-08-11T13:50:05Z</time>
      </trkpt>
      <trkpt lat="44.8788" lon="6.49012">
        <ele>1536</ele>
        <time>2024-08-11T13:50:06Z</time>
      </trkpt>
      <trkpt lat="44.8788" lon="6.49012">
        <ele>1535.6</ele>
        <time>2024-08-11T13:50:07Z</time>
      </trkpt>
      <trkpt lat="44.87878" lon="6.49015">
        <ele>1535.6</ele>
        <time>2024-08-11T13:50:08Z</time>
      </trkpt>
      <trkpt lat="44.87878" lon="6.49015">
        <ele>1536</ele>
        <time>2024-08-11T13:50:09Z</time>
      </trkpt>
      <trkpt lat="44.87878" lon="6.49018">
        <ele>1536.2</ele>
        <time>2024-08-11T13:50:10Z</time>
      </trkpt>
      <trkpt lat="44.87878" lon="6.49018">
        <ele>1536.2</ele>
        <time>2024-08-11T13:50:11Z</time>
      </trkpt>
      <trkpt lat="44.87877" lon="6.49022">
        <ele>1536.4</ele>
        <time>2024-08-11T13:50:12Z</time>
      </trkpt>
      <trkpt lat="44.87877" lon="6.49022">
        <ele>1536.6</ele>
        <time>2024-08-11T13:50:13Z</time>
      </trkpt>
      <trkpt lat="44.87876" lon="6.49025">
        <ele>1536.8</ele>
        <time>2024-08-11T13:50:14Z</time>
      </trkpt>
      <trkpt lat="44.87876" lon="6.49025">
        <ele>1536.8</ele>
        <time>2024-08-11T13:50:15Z</time>
      </trkpt>
      <trkpt lat="44.87874" lon="6.49028">
        <ele>1536.6</ele>
        <time>2024-08-11T13:50:16Z</time>
      </trkpt>
      <trkpt lat="44.87874" lon="6.49028">
        <ele>1536.6</ele>
        <time>2024-08-11T13:50:17Z</time>
      </trkpt>
      <trkpt lat="44.87874" lon="6.49032">
        <ele>1536.6</ele>
        <time>2024-08-11T13:50:18Z</time>
      </trkpt>
      <trkpt lat="44.87872" lon="6.49034">
        <ele>1536.6</ele>
        <time>2024-08-11T13:50:19Z</time>
      </trkpt>
      <trkpt lat="44.87872" lon="6.49034">
        <ele>1536.4</ele>
        <time>2024-08-11T13:50:20Z</time>
      </trkpt>
      <trkpt lat="44.87871" lon="6.49037">
        <ele>1536.2</ele>
        <time>2024-08-11T13:50:21Z</time>
      </trkpt>
      <trkpt lat="44.87871" lon="6.49037">
        <ele>1536</ele>
        <time>2024-08-11T13:50:22Z</time>
      </trkpt>
      <trkpt lat="44.8787" lon="6.49041">
        <ele>1535.8</ele>
        <time>2024-08-11T13:50:23Z</time>
      </trkpt>
      <trkpt lat="44.8787" lon="6.49041">
        <ele>1535.8</ele>
        <time>2024-08-11T13:50:24Z</time>
      </trkpt>
      <trkpt lat="44.8787" lon="6.49045">
        <ele>1536</ele>
        <time>2024-08-11T13:50:25Z</time>
      </trkpt>
      <trkpt lat="44.8787" lon="6.49045">
        <ele>1536</ele>
        <time>2024-08-11T13:50:26Z</time>
      </trkpt>
      <trkpt lat="44.87869" lon="6.49049">
        <ele>1536</ele>
        <time>2024-08-11T13:50:27Z</time>
      </trkpt>
      <trkpt lat="44.87869" lon="6.49049">
        <ele>1535.8</ele>
        <time>2024-08-11T13:50:28Z</time>
      </trkpt>
      <trkpt lat="44.87867" lon="6.49053">
        <ele>1535.8</ele>
        <time>2024-08-11T13:50:29Z</time>
      </trkpt>
      <trkpt lat="44.87867" lon="6.49053">
        <ele>1535.8</ele>
        <time>2024-08-11T13:50:30Z</time>
      </trkpt>
      <trkpt lat="44.87866" lon="6.49056">
        <ele>1535.6</ele>
        <time>2024-08-11T13:50:31Z</time>
      </trkpt>
      <trkpt lat="44.87866" lon="6.49056">
        <ele>1535.6</ele>
        <time>2024-08-11T13:50:32Z</time>
      </trkpt>
      <trkpt lat="44.87864" lon="6.49058">
        <ele>1535.2</ele>
        <time>2024-08-11T13:50:33Z</time>
      </trkpt>
      <trkpt lat="44.87864" lon="6.49058">
        <ele>1534.8</ele>
        <time>2024-08-11T13:50:34Z</time>
      </trkpt>
      <trkpt lat="44.87861" lon="6.49059">
        <ele>1534.8</ele>
        <time>2024-08-11T13:50:35Z</time>
      </trkpt>
      <trkpt lat="44.87861" lon="6.49059">
        <ele>1534.8</ele>
        <time>2024-08-11T13:50:36Z</time>
      </trkpt>
      <trkpt lat="44.87858" lon="6.49061">
        <ele>1534.6</ele>
        <time>2024-08-11T13:50:37Z</time>
      </trkpt>
      <trkpt lat="44.87858" lon="6.49061">
        <ele>1534.6</ele>
        <time>2024-08-11T13:50:38Z</time>
      </trkpt>
      <trkpt lat="44.87855" lon="6.49062">
        <ele>1534.8</ele>
        <time>2024-08-11T13:50:39Z</time>
      </trkpt>
      <trkpt lat="44.87855" lon="6.49062">
        <ele>1534.8</ele>
        <time>2024-08-11T13:50:40Z</time>
      </trkpt>
      <trkpt lat="44.87853" lon="6.49064">
        <ele>1534.6</ele>
        <time>2024-08-11T13:50:41Z</time>
      </trkpt>
      <trkpt lat="44.87853" lon="6.49064">
        <ele>1534.2</ele>
        <time>2024-08-11T13:50:42Z</time>
      </trkpt>
      <trkpt lat="44.87851" lon="6.49065">
        <ele>1534</ele>
        <time>2024-08-11T13:50:43Z</time>
      </trkpt>
      <trkpt lat="44.87851" lon="6.49065">
        <ele>1534</ele>
        <time>2024-08-11T13:50:44Z</time>
      </trkpt>
      <trkpt lat="44.87849" lon="6.49067">
        <ele>1533.8</ele>
        <time>2024-08-11T13:50:45Z</time>
      </trkpt>
      <trkpt lat="44.87849" lon="6.49067">
        <ele>1533.4</ele>
        <time>2024-08-11T13:50:46Z</time>
      </trkpt>
      <trkpt lat="44.87847" lon="6.49069">
        <ele>1533.2</ele>
        <time>2024-08-11T13:50:47Z</time>
      </trkpt>
      <trkpt lat="44.87847" lon="6.49069">
        <ele>1532.8</ele>
        <time>2024-08-11T13:50:48Z</time>
      </trkpt>
      <trkpt lat="44.87845" lon="6.49072">
        <ele>1532.4</ele>
        <time>2024-08-11T13:50:49Z</time>
      </trkpt>
      <trkpt lat="44.87845" lon="6.49072">
        <ele>1532.4</ele>
        <time>2024-08-11T13:50:50Z</time>
      </trkpt>
      <trkpt lat="44.87843" lon="6.49076">
        <ele>1532</ele>
        <time>2024-08-11T13:50:51Z</time>
      </trkpt>
      <trkpt lat="44.87842" lon="6.49079">
        <ele>1531.6</ele>
        <time>2024-08-11T13:50:52Z</time>
      </trkpt>
      <trkpt lat="44.87842" lon="6.49079">
        <ele>1531.4</ele>
        <time>2024-08-11T13:50:53Z</time>
      </trkpt>
      <trkpt lat="44.87841" lon="6.49082">
        <ele>1531.2</ele>
        <time>2024-08-11T13:50:54Z</time>
      </trkpt>
      <trkpt lat="44.87841" lon="6.49082">
        <ele>1530.8</ele>
        <time>2024-08-11T13:50:55Z</time>
      </trkpt>
      <trkpt lat="44.87841" lon="6.49085">
        <ele>1530.8</ele>
        <time>2024-08-11T13:50:56Z</time>
      </trkpt>
      <trkpt lat="44.87841" lon="6.49085">
        <ele>1530.4</ele>
        <time>2024-08-11T13:50:57Z</time>
      </trkpt>
      <trkpt lat="44.87841" lon="6.49089">
        <ele>1530</ele>
        <time>2024-08-11T13:50:58Z</time>
      </trkpt>
      <trkpt lat="44.87841" lon="6.49089">
        <ele>1529.6</ele>
        <time>2024-08-11T13:50:59Z</time>
      </trkpt>
      <trkpt lat="44.87842" lon="6.49092">
        <ele>1529.4</ele>
        <time>2024-08-11T13:51:00Z</time>
      </trkpt>
      <trkpt lat="44.87842" lon="6.49092">
        <ele>1529</ele>
        <time>2024-08-11T13:51:01Z</time>
      </trkpt>
      <trkpt lat="44.87843" lon="6.49095">
        <ele>1528.8</ele>
        <time>2024-08-11T13:51:02Z</time>
      </trkpt>
      <trkpt lat="44.87843" lon="6.49095">
        <ele>1528.8</ele>
        <time>2024-08-11T13:51:03Z</time>
      </trkpt>
      <trkpt lat="44.87841" lon="6.49097">
        <ele>1528.8</ele>
        <time>2024-08-11T13:51:04Z</time>
      </trkpt>
      <trkpt lat="44.87841" lon="6.49097">
        <ele>1528.6</ele>
        <time>2024-08-11T13:51:05Z</time>
      </trkpt>
      <trkpt lat="44.87839" lon="6.49097">
        <ele>1528.4</ele>
        <time>2024-08-11T13:51:06Z</time>
      </trkpt>
      <trkpt lat="44.87837" lon="6.49098">
        <ele>1528.4</ele>
        <time>2024-08-11T13:51:07Z</time>
      </trkpt>
      <trkpt lat="44.87837" lon="6.49098">
        <ele>1528.4</ele>
        <time>2024-08-11T13:51:08Z</time>
      </trkpt>
      <trkpt lat="44.87833" lon="6.49099">
        <ele>1528.2</ele>
        <time>2024-08-11T13:51:09Z</time>
      </trkpt>
      <trkpt lat="44.87833" lon="6.49099">
        <ele>1528.2</ele>
        <time>2024-08-11T13:51:10Z</time>
      </trkpt>
      <trkpt lat="44.87831" lon="6.491">
        <ele>1528.2</ele>
        <time>2024-08-11T13:51:11Z</time>
      </trkpt>
      <trkpt lat="44.87831" lon="6.491">
        <ele>1527.8</ele>
        <time>2024-08-11T13:51:12Z</time>
      </trkpt>
      <trkpt lat="44.87829" lon="6.49099">
        <ele>1527.8</ele>
        <time>2024-08-11T13:51:13Z</time>
      </trkpt>
      <trkpt lat="44.87829" lon="6.49099">
        <ele>1527.6</ele>
        <time>2024-08-11T13:51:14Z</time>
      </trkpt>
      <trkpt lat="44.87826" lon="6.49099">
        <ele>1527.4</ele>
        <time>2024-08-11T13:51:15Z</time>
      </trkpt>
      <trkpt lat="44.87826" lon="6.49099">
        <ele>1527.2</ele>
        <time>2024-08-11T13:51:16Z</time>
      </trkpt>
      <trkpt lat="44.87823" lon="6.49098">
        <ele>1527.2</ele>
        <time>2024-08-11T13:51:17Z</time>
      </trkpt>
      <trkpt lat="44.87823" lon="6.49098">
        <ele>1527.2</ele>
        <time>2024-08-11T13:51:18Z</time>
      </trkpt>
      <trkpt lat="44.87821" lon="6.49099">
        <ele>1527</ele>
        <time>2024-08-11T13:51:19Z</time>
      </trkpt>
      <trkpt lat="44.87821" lon="6.49099">
        <ele>1526.8</ele>
        <time>2024-08-11T13:51:20Z</time>
      </trkpt>
      <trkpt lat="44.87818" lon="6.491">
        <ele>1526.6</ele>
        <time>2024-08-11T13:51:21Z</time>
      </trkpt>
      <trkpt lat="44.87818" lon="6.491">
        <ele>1526.6</ele>
        <time>2024-08-11T13:51:22Z</time>
      </trkpt>
      <trkpt lat="44.87815" lon="6.49101">
        <ele>1526.4</ele>
        <time>2024-08-11T13:51:23Z</time>
      </trkpt>
      <trkpt lat="44.87813" lon="6.49101">
        <ele>1526</ele>
        <time>2024-08-11T13:51:24Z</time>
      </trkpt>
      <trkpt lat="44.87812" lon="6.49102">
        <ele>1526</ele>
        <time>2024-08-11T13:51:25Z</time>
      </trkpt>
      <trkpt lat="44.87812" lon="6.49102">
        <ele>1526</ele>
        <time>2024-08-11T13:51:26Z</time>
      </trkpt>
      <trkpt lat="44.87809" lon="6.49103">
        <ele>1525.6</ele>
        <time>2024-08-11T13:51:27Z</time>
      </trkpt>
      <trkpt lat="44.87809" lon="6.49103">
        <ele>1525.4</ele>
        <time>2024-08-11T13:51:28Z</time>
      </trkpt>
      <trkpt lat="44.87807" lon="6.49104">
        <ele>1525.2</ele>
        <time>2024-08-11T13:51:29Z</time>
      </trkpt>
      <trkpt lat="44.87807" lon="6.49104">
        <ele>1525.2</ele>
        <time>2024-08-11T13:51:30Z</time>
      </trkpt>
      <trkpt lat="44.87805" lon="6.49105">
        <ele>1525</ele>
        <time>2024-08-11T13:51:31Z</time>
      </trkpt>
      <trkpt lat="44.87805" lon="6.49105">
        <ele>1525</ele>
        <time>2024-08-11T13:51:32Z</time>
      </trkpt>
      <trkpt lat="44.87803" lon="6.49107">
        <ele>1524.6</ele>
        <time>2024-08-11T13:51:33Z</time>
      </trkpt>
      <trkpt lat="44.87803" lon="6.49107">
        <ele>1524.2</ele>
        <time>2024-08-11T13:51:34Z</time>
      </trkpt>
      <trkpt lat="44.87801" lon="6.49107">
        <ele>1524</ele>
        <time>2024-08-11T13:51:35Z</time>
      </trkpt>
      <trkpt lat="44.87801" lon="6.49107">
        <ele>1524</ele>
        <time>2024-08-11T13:51:36Z</time>
      </trkpt>
      <trkpt lat="44.87797" lon="6.49109">
        <ele>1523.8</ele>
        <time>2024-08-11T13:51:37Z</time>
      </trkpt>
      <trkpt lat="44.87797" lon="6.49109">
        <ele>1523.6</ele>
        <time>2024-08-11T13:51:38Z</time>
      </trkpt>
      <trkpt lat="44.87795" lon="6.4911">
        <ele>1523.4</ele>
        <time>2024-08-11T13:51:39Z</time>
      </trkpt>
      <trkpt lat="44.87793" lon="6.49112">
        <ele>1523.2</ele>
        <time>2024-08-11T13:51:40Z</time>
      </trkpt>
      <trkpt lat="44.87791" lon="6.49115">
        <ele>1523</ele>
        <time>2024-08-11T13:51:41Z</time>
      </trkpt>
      <trkpt lat="44.87789" lon="6.49118">
        <ele>1522.8</ele>
        <time>2024-08-11T13:51:42Z</time>
      </trkpt>
      <trkpt lat="44.87789" lon="6.49118">
        <ele>1522.4</ele>
        <time>2024-08-11T13:51:43Z</time>
      </trkpt>
      <trkpt lat="44.87787" lon="6.49119">
        <ele>1522</ele>
        <time>2024-08-11T13:51:44Z</time>
      </trkpt>
      <trkpt lat="44.87787" lon="6.49119">
        <ele>1522</ele>
        <time>2024-08-11T13:51:45Z</time>
      </trkpt>
      <trkpt lat="44.87785" lon="6.4912">
        <ele>1521.6</ele>
        <time>2024-08-11T13:51:46Z</time>
      </trkpt>
      <trkpt lat="44.87785" lon="6.4912">
        <ele>1521.4</ele>
        <time>2024-08-11T13:51:47Z</time>
      </trkpt>
      <trkpt lat="44.87783" lon="6.49122">
        <ele>1521.2</ele>
        <time>2024-08-11T13:51:48Z</time>
      </trkpt>
      <trkpt lat="44.87783" lon="6.49122">
        <ele>1521</ele>
        <time>2024-08-11T13:51:49Z</time>
      </trkpt>
      <trkpt lat="44.87781" lon="6.49123">
        <ele>1520.6</ele>
        <time>2024-08-11T13:51:50Z</time>
      </trkpt>
      <trkpt lat="44.87781" lon="6.49123">
        <ele>1520.2</ele>
        <time>2024-08-11T13:51:51Z</time>
      </trkpt>
      <trkpt lat="44.87779" lon="6.49125">
        <ele>1520</ele>
        <time>2024-08-11T13:51:52Z</time>
      </trkpt>
      <trkpt lat="44.87779" lon="6.49125">
        <ele>1519.6</ele>
        <time>2024-08-11T13:51:53Z</time>
      </trkpt>
      <trkpt lat="44.87776" lon="6.49128">
        <ele>1519.6</ele>
        <time>2024-08-11T13:51:54Z</time>
      </trkpt>
      <trkpt lat="44.87776" lon="6.49128">
        <ele>1519.4</ele>
        <time>2024-08-11T13:51:55Z</time>
      </trkpt>
      <trkpt lat="44.87773" lon="6.49129">
        <ele>1519.4</ele>
        <time>2024-08-11T13:51:56Z</time>
      </trkpt>
      <trkpt lat="44.87773" lon="6.49129">
        <ele>1519.2</ele>
        <time>2024-08-11T13:51:57Z</time>
      </trkpt>
      <trkpt lat="44.87771" lon="6.4913">
        <ele>1518.6</ele>
        <time>2024-08-11T13:51:58Z</time>
      </trkpt>
      <trkpt lat="44.87771" lon="6.4913">
        <ele>1518.2</ele>
        <time>2024-08-11T13:51:59Z</time>
      </trkpt>
      <trkpt lat="44.87768" lon="6.49132">
        <ele>1518.2</ele>
        <time>2024-08-11T13:52:00Z</time>
      </trkpt>
      <trkpt lat="44.87768" lon="6.49132">
        <ele>1517.8</ele>
        <time>2024-08-11T13:52:01Z</time>
      </trkpt>
      <trkpt lat="44.87765" lon="6.49134">
        <ele>1517.2</ele>
        <time>2024-08-11T13:52:02Z</time>
      </trkpt>
      <trkpt lat="44.87765" lon="6.49134">
        <ele>1517.2</ele>
        <time>2024-08-11T13:52:03Z</time>
      </trkpt>
      <trkpt lat="44.87763" lon="6.49136">
        <ele>1517.2</ele>
        <time>2024-08-11T13:52:04Z</time>
      </trkpt>
      <trkpt lat="44.87763" lon="6.49136">
        <ele>1517.2</ele>
        <time>2024-08-11T13:52:05Z</time>
      </trkpt>
      <trkpt lat="44.87761" lon="6.49137">
        <ele>1516.8</ele>
        <time>2024-08-11T13:52:06Z</time>
      </trkpt>
      <trkpt lat="44.87759" lon="6.49138">
        <ele>1516.6</ele>
        <time>2024-08-11T13:52:07Z</time>
      </trkpt>
      <trkpt lat="44.87759" lon="6.49138">
        <ele>1516.4</ele>
        <time>2024-08-11T13:52:08Z</time>
      </trkpt>
      <trkpt lat="44.87757" lon="6.49141">
        <ele>1516.2</ele>
        <time>2024-08-11T13:52:09Z</time>
      </trkpt>
      <trkpt lat="44.87757" lon="6.49141">
        <ele>1515.8</ele>
        <time>2024-08-11T13:52:10Z</time>
      </trkpt>
      <trkpt lat="44.87756" lon="6.49143">
        <ele>1515.6</ele>
        <time>2024-08-11T13:52:11Z</time>
      </trkpt>
      <trkpt lat="44.87756" lon="6.49143">
        <ele>1515.6</ele>
        <time>2024-08-11T13:52:12Z</time>
      </trkpt>
      <trkpt lat="44.87754" lon="6.49145">
        <ele>1515.2</ele>
        <time>2024-08-11T13:52:13Z</time>
      </trkpt>
      <trkpt lat="44.87754" lon="6.49145">
        <ele>1514.8</ele>
        <time>2024-08-11T13:52:14Z</time>
      </trkpt>
      <trkpt lat="44.87752" lon="6.49147">
        <ele>1514.8</ele>
        <time>2024-08-11T13:52:15Z</time>
      </trkpt>
      <trkpt lat="44.87752" lon="6.49147">
        <ele>1514.6</ele>
        <time>2024-08-11T13:52:16Z</time>
      </trkpt>
      <trkpt lat="44.87749" lon="6.49149">
        <ele>1514.2</ele>
        <time>2024-08-11T13:52:17Z</time>
      </trkpt>
      <trkpt lat="44.87749" lon="6.49149">
        <ele>1514</ele>
        <time>2024-08-11T13:52:18Z</time>
      </trkpt>
      <trkpt lat="44.87747" lon="6.4915">
        <ele>1513.8</ele>
        <time>2024-08-11T13:52:19Z</time>
      </trkpt>
      <trkpt lat="44.87747" lon="6.4915">
        <ele>1513.8</ele>
        <time>2024-08-11T13:52:20Z</time>
      </trkpt>
      <trkpt lat="44.87745" lon="6.49151">
        <ele>1513.6</ele>
        <time>2024-08-11T13:52:21Z</time>
      </trkpt>
      <trkpt lat="44.87745" lon="6.49151">
        <ele>1513</ele>
        <time>2024-08-11T13:52:22Z</time>
      </trkpt>
      <trkpt lat="44.87743" lon="6.49152">
        <ele>1513</ele>
        <time>2024-08-11T13:52:23Z</time>
      </trkpt>
      <trkpt lat="44.87743" lon="6.49152">
        <ele>1512.8</ele>
        <time>2024-08-11T13:52:24Z</time>
      </trkpt>
      <trkpt lat="44.87741" lon="6.49153">
        <ele>1512.6</ele>
        <time>2024-08-11T13:52:25Z</time>
      </trkpt>
      <trkpt lat="44.87741" lon="6.49153">
        <ele>1512.2</ele>
        <time>2024-08-11T13:52:26Z</time>
      </trkpt>
      <trkpt lat="44.87738" lon="6.49155">
        <ele>1511.6</ele>
        <time>2024-08-11T13:52:27Z</time>
      </trkpt>
      <trkpt lat="44.87738" lon="6.49155">
        <ele>1511.4</ele>
        <time>2024-08-11T13:52:28Z</time>
      </trkpt>
      <trkpt lat="44.87737" lon="6.49157">
        <ele>1511.2</ele>
        <time>2024-08-11T13:52:29Z</time>
      </trkpt>
      <trkpt lat="44.87735" lon="6.49158">
        <ele>1511</ele>
        <time>2024-08-11T13:52:30Z</time>
      </trkpt>
      <trkpt lat="44.87735" lon="6.49158">
        <ele>1511</ele>
        <time>2024-08-11T13:52:31Z</time>
      </trkpt>
      <trkpt lat="44.87733" lon="6.4916">
        <ele>1510.8</ele>
        <time>2024-08-11T13:52:32Z</time>
      </trkpt>
      <trkpt lat="44.87733" lon="6.4916">
        <ele>1510.6</ele>
        <time>2024-08-11T13:52:33Z</time>
      </trkpt>
      <trkpt lat="44.87731" lon="6.49161">
        <ele>1510.6</ele>
        <time>2024-08-11T13:52:34Z</time>
      </trkpt>
      <trkpt lat="44.87731" lon="6.49161">
        <ele>1510.4</ele>
        <time>2024-08-11T13:52:35Z</time>
      </trkpt>
      <trkpt lat="44.87729" lon="6.49161">
        <ele>1510.2</ele>
        <time>2024-08-11T13:52:36Z</time>
      </trkpt>
      <trkpt lat="44.87727" lon="6.49161">
        <ele>1509.6</ele>
        <time>2024-08-11T13:52:37Z</time>
      </trkpt>
      <trkpt lat="44.87725" lon="6.49162">
        <ele>1509.6</ele>
        <time>2024-08-11T13:52:38Z</time>
      </trkpt>
      <trkpt lat="44.87725" lon="6.49162">
        <ele>1509</ele>
        <time>2024-08-11T13:52:39Z</time>
      </trkpt>
      <trkpt lat="44.87722" lon="6.49163">
        <ele>1508.4</ele>
        <time>2024-08-11T13:52:40Z</time>
      </trkpt>
      <trkpt lat="44.87722" lon="6.49163">
        <ele>1508</ele>
        <time>2024-08-11T13:52:41Z</time>
      </trkpt>
      <trkpt lat="44.87719" lon="6.49164">
        <ele>1507.8</ele>
        <time>2024-08-11T13:52:42Z</time>
      </trkpt>
      <trkpt lat="44.87719" lon="6.49164">
        <ele>1507.4</ele>
        <time>2024-08-11T13:52:43Z</time>
      </trkpt>
      <trkpt lat="44.87717" lon="6.49166">
        <ele>1507.2</ele>
        <time>2024-08-11T13:52:44Z</time>
      </trkpt>
      <trkpt lat="44.87717" lon="6.49166">
        <ele>1506.8</ele>
        <time>2024-08-11T13:52:45Z</time>
      </trkpt>
      <trkpt lat="44.87716" lon="6.49168">
        <ele>1506.6</ele>
        <time>2024-08-11T13:52:46Z</time>
      </trkpt>
      <trkpt lat="44.87716" lon="6.49168">
        <ele>1506.4</ele>
        <time>2024-08-11T13:52:47Z</time>
      </trkpt>
      <trkpt lat="44.87714" lon="6.4917">
        <ele>1506.2</ele>
        <time>2024-08-11T13:52:48Z</time>
      </trkpt>
      <trkpt lat="44.87714" lon="6.4917">
        <ele>1505.8</ele>
        <time>2024-08-11T13:52:49Z</time>
      </trkpt>
      <trkpt lat="44.87711" lon="6.49171">
        <ele>1505.6</ele>
        <time>2024-08-11T13:52:50Z</time>
      </trkpt>
      <trkpt lat="44.87711" lon="6.49171">
        <ele>1505.2</ele>
        <time>2024-08-11T13:52:51Z</time>
      </trkpt>
      <trkpt lat="44.87709" lon="6.49173">
        <ele>1505</ele>
        <time>2024-08-11T13:52:52Z</time>
      </trkpt>
      <trkpt lat="44.87709" lon="6.49173">
        <ele>1504.8</ele>
        <time>2024-08-11T13:52:53Z</time>
      </trkpt>
      <trkpt lat="44.87706" lon="6.49175">
        <ele>1504.4</ele>
        <time>2024-08-11T13:52:54Z</time>
      </trkpt>
      <trkpt lat="44.87706" lon="6.49175">
        <ele>1504</ele>
        <time>2024-08-11T13:52:55Z</time>
      </trkpt>
      <trkpt lat="44.87704" lon="6.49178">
        <ele>1503.8</ele>
        <time>2024-08-11T13:52:56Z</time>
      </trkpt>
      <trkpt lat="44.87704" lon="6.49178">
        <ele>1503.4</ele>
        <time>2024-08-11T13:52:57Z</time>
      </trkpt>
      <trkpt lat="44.87701" lon="6.4918">
        <ele>1503.2</ele>
        <time>2024-08-11T13:52:58Z</time>
      </trkpt>
      <trkpt lat="44.87701" lon="6.4918">
        <ele>1502.8</ele>
        <time>2024-08-11T13:52:59Z</time>
      </trkpt>
      <trkpt lat="44.87699" lon="6.49183">
        <ele>1502.8</ele>
        <time>2024-08-11T13:53:00Z</time>
      </trkpt>
      <trkpt lat="44.87699" lon="6.49183">
        <ele>1502.8</ele>
        <time>2024-08-11T13:53:01Z</time>
      </trkpt>
      <trkpt lat="44.87697" lon="6.49186">
        <ele>1502.4</ele>
        <time>2024-08-11T13:53:02Z</time>
      </trkpt>
      <trkpt lat="44.87697" lon="6.49186">
        <ele>1502.4</ele>
        <time>2024-08-11T13:53:03Z</time>
      </trkpt>
      <trkpt lat="44.87696" lon="6.4919">
        <ele>1502</ele>
        <time>2024-08-11T13:53:04Z</time>
      </trkpt>
      <trkpt lat="44.87696" lon="6.4919">
        <ele>1501.8</ele>
        <time>2024-08-11T13:53:05Z</time>
      </trkpt>
      <trkpt lat="44.87694" lon="6.49193">
        <ele>1501.8</ele>
        <time>2024-08-11T13:53:06Z</time>
      </trkpt>
      <trkpt lat="44.87694" lon="6.49193">
        <ele>1501.4</ele>
        <time>2024-08-11T13:53:07Z</time>
      </trkpt>
      <trkpt lat="44.87692" lon="6.49197">
        <ele>1501.4</ele>
        <time>2024-08-11T13:53:08Z</time>
      </trkpt>
      <trkpt lat="44.87692" lon="6.49197">
        <ele>1501</ele>
        <time>2024-08-11T13:53:09Z</time>
      </trkpt>
      <trkpt lat="44.87689" lon="6.49198">
        <ele>1501</ele>
        <time>2024-08-11T13:53:10Z</time>
      </trkpt>
      <trkpt lat="44.87689" lon="6.49198">
        <ele>1501</ele>
        <time>2024-08-11T13:53:11Z</time>
      </trkpt>
      <trkpt lat="44.87686" lon="6.49199">
        <ele>1500.8</ele>
        <time>2024-08-11T13:53:12Z</time>
      </trkpt>
      <trkpt lat="44.87686" lon="6.49199">
        <ele>1500.4</ele>
        <time>2024-08-11T13:53:13Z</time>
      </trkpt>
      <trkpt lat="44.87684" lon="6.492">
        <ele>1500.2</ele>
        <time>2024-08-11T13:53:14Z</time>
      </trkpt>
      <trkpt lat="44.87684" lon="6.492">
        <ele>1500</ele>
        <time>2024-08-11T13:53:15Z</time>
      </trkpt>
      <trkpt lat="44.87681" lon="6.492">
        <ele>1499.4</ele>
        <time>2024-08-11T13:53:16Z</time>
      </trkpt>
      <trkpt lat="44.87681" lon="6.492">
        <ele>1499.2</ele>
        <time>2024-08-11T13:53:17Z</time>
      </trkpt>
      <trkpt lat="44.87678" lon="6.49201">
        <ele>1498.8</ele>
        <time>2024-08-11T13:53:18Z</time>
      </trkpt>
      <trkpt lat="44.87678" lon="6.49201">
        <ele>1498.8</ele>
        <time>2024-08-11T13:53:19Z</time>
      </trkpt>
      <trkpt lat="44.87676" lon="6.49203">
        <ele>1498.6</ele>
        <time>2024-08-11T13:53:20Z</time>
      </trkpt>
      <trkpt lat="44.87676" lon="6.49203">
        <ele>1498.4</ele>
        <time>2024-08-11T13:53:21Z</time>
      </trkpt>
      <trkpt lat="44.87673" lon="6.49205">
        <ele>1498.2</ele>
        <time>2024-08-11T13:53:22Z</time>
      </trkpt>
      <trkpt lat="44.87673" lon="6.49205">
        <ele>1497.6</ele>
        <time>2024-08-11T13:53:23Z</time>
      </trkpt>
      <trkpt lat="44.8767" lon="6.49207">
        <ele>1497.4</ele>
        <time>2024-08-11T13:53:24Z</time>
      </trkpt>
      <trkpt lat="44.8767" lon="6.49207">
        <ele>1497.2</ele>
        <time>2024-08-11T13:53:25Z</time>
      </trkpt>
      <trkpt lat="44.87668" lon="6.49208">
        <ele>1496.8</ele>
        <time>2024-08-11T13:53:26Z</time>
      </trkpt>
      <trkpt lat="44.87668" lon="6.49208">
        <ele>1496.4</ele>
        <time>2024-08-11T13:53:27Z</time>
      </trkpt>
      <trkpt lat="44.87665" lon="6.49209">
        <ele>1496.2</ele>
        <time>2024-08-11T13:53:28Z</time>
      </trkpt>
      <trkpt lat="44.87665" lon="6.49209">
        <ele>1495.8</ele>
        <time>2024-08-11T13:53:29Z</time>
      </trkpt>
      <trkpt lat="44.87662" lon="6.49211">
        <ele>1495.6</ele>
        <time>2024-08-11T13:53:30Z</time>
      </trkpt>
      <trkpt lat="44.87662" lon="6.49211">
        <ele>1495.6</ele>
        <time>2024-08-11T13:53:31Z</time>
      </trkpt>
      <trkpt lat="44.8766" lon="6.49212">
        <ele>1495.4</ele>
        <time>2024-08-11T13:53:32Z</time>
      </trkpt>
      <trkpt lat="44.8766" lon="6.49212">
        <ele>1495</ele>
        <time>2024-08-11T13:53:33Z</time>
      </trkpt>
      <trkpt lat="44.87657" lon="6.49213">
        <ele>1494.6</ele>
        <time>2024-08-11T13:53:34Z</time>
      </trkpt>
      <trkpt lat="44.87657" lon="6.49213">
        <ele>1494.4</ele>
        <time>2024-08-11T13:53:35Z</time>
      </trkpt>
      <trkpt lat="44.87654" lon="6.49215">
        <ele>1494.2</ele>
        <time>2024-08-11T13:53:36Z</time>
      </trkpt>
      <trkpt lat="44.87654" lon="6.49215">
        <ele>1494</ele>
        <time>2024-08-11T13:53:37Z</time>
      </trkpt>
      <trkpt lat="44.87653" lon="6.49218">
        <ele>1493.8</ele>
        <time>2024-08-11T13:53:38Z</time>
      </trkpt>
      <trkpt lat="44.87653" lon="6.49218">
        <ele>1493.6</ele>
        <time>2024-08-11T13:53:39Z</time>
      </trkpt>
      <trkpt lat="44.87651" lon="6.49221">
        <ele>1493</ele>
        <time>2024-08-11T13:53:40Z</time>
      </trkpt>
      <trkpt lat="44.87651" lon="6.49221">
        <ele>1492.8</ele>
        <time>2024-08-11T13:53:41Z</time>
      </trkpt>
      <trkpt lat="44.87649" lon="6.49224">
        <ele>1492.6</ele>
        <time>2024-08-11T13:53:42Z</time>
      </trkpt>
      <trkpt lat="44.87649" lon="6.49224">
        <ele>1492.6</ele>
        <time>2024-08-11T13:53:43Z</time>
      </trkpt>
      <trkpt lat="44.87648" lon="6.49227">
        <ele>1492.2</ele>
        <time>2024-08-11T13:53:44Z</time>
      </trkpt>
      <trkpt lat="44.87648" lon="6.49227">
        <ele>1491.8</ele>
        <time>2024-08-11T13:53:45Z</time>
      </trkpt>
      <trkpt lat="44.87646" lon="6.4923">
        <ele>1491.6</ele>
        <time>2024-08-11T13:53:46Z</time>
      </trkpt>
      <trkpt lat="44.87646" lon="6.4923">
        <ele>1491.6</ele>
        <time>2024-08-11T13:53:47Z</time>
      </trkpt>
      <trkpt lat="44.87645" lon="6.49233">
        <ele>1491.4</ele>
        <time>2024-08-11T13:53:48Z</time>
      </trkpt>
      <trkpt lat="44.87645" lon="6.49233">
        <ele>1491.2</ele>
        <time>2024-08-11T13:53:49Z</time>
      </trkpt>
      <trkpt lat="44.87644" lon="6.49237">
        <ele>1491</ele>
        <time>2024-08-11T13:53:50Z</time>
      </trkpt>
      <trkpt lat="44.87644" lon="6.49237">
        <ele>1490.6</ele>
        <time>2024-08-11T13:53:51Z</time>
      </trkpt>
      <trkpt lat="44.87644" lon="6.49241">
        <ele>1490</ele>
        <time>2024-08-11T13:53:52Z</time>
      </trkpt>
      <trkpt lat="44.87644" lon="6.49241">
        <ele>1490</ele>
        <time>2024-08-11T13:53:53Z</time>
      </trkpt>
      <trkpt lat="44.87642" lon="6.49244">
        <ele>1489.8</ele>
        <time>2024-08-11T13:53:54Z</time>
      </trkpt>
      <trkpt lat="44.87642" lon="6.49244">
        <ele>1489.6</ele>
        <time>2024-08-11T13:53:55Z</time>
      </trkpt>
      <trkpt lat="44.87641" lon="6.49247">
        <ele>1489.6</ele>
        <time>2024-08-11T13:53:56Z</time>
      </trkpt>
      <trkpt lat="44.87641" lon="6.49247">
        <ele>1489.4</ele>
        <time>2024-08-11T13:53:57Z</time>
      </trkpt>
      <trkpt lat="44.8764" lon="6.4925">
        <ele>1489.2</ele>
        <time>2024-08-11T13:53:58Z</time>
      </trkpt>
      <trkpt lat="44.8764" lon="6.4925">
        <ele>1489</ele>
        <time>2024-08-11T13:53:59Z</time>
      </trkpt>
      <trkpt lat="44.87639" lon="6.49253">
        <ele>1488.8</ele>
        <time>2024-08-11T13:54:00Z</time>
      </trkpt>
      <trkpt lat="44.87639" lon="6.49253">
        <ele>1488.6</ele>
        <time>2024-08-11T13:54:01Z</time>
      </trkpt>
      <trkpt lat="44.87638" lon="6.49256">
        <ele>1488</ele>
        <time>2024-08-11T13:54:02Z</time>
      </trkpt>
      <trkpt lat="44.87638" lon="6.49256">
        <ele>1488</ele>
        <time>2024-08-11T13:54:03Z</time>
      </trkpt>
      <trkpt lat="44.87637" lon="6.49259">
        <ele>1487.8</ele>
        <time>2024-08-11T13:54:04Z</time>
      </trkpt>
      <trkpt lat="44.87637" lon="6.49259">
        <ele>1487.8</ele>
        <time>2024-08-11T13:54:05Z</time>
      </trkpt>
      <trkpt lat="44.87635" lon="6.49263">
        <ele>1487.6</ele>
        <time>2024-08-11T13:54:06Z</time>
      </trkpt>
      <trkpt lat="44.87635" lon="6.49263">
        <ele>1487.4</ele>
        <time>2024-08-11T13:54:07Z</time>
      </trkpt>
      <trkpt lat="44.87634" lon="6.49266">
        <ele>1487</ele>
        <time>2024-08-11T13:54:08Z</time>
      </trkpt>
      <trkpt lat="44.87634" lon="6.49266">
        <ele>1486.8</ele>
        <time>2024-08-11T13:54:09Z</time>
      </trkpt>
      <trkpt lat="44.87632" lon="6.49268">
        <ele>1486.6</ele>
        <time>2024-08-11T13:54:10Z</time>
      </trkpt>
      <trkpt lat="44.87632" lon="6.49268">
        <ele>1486.6</ele>
        <time>2024-08-11T13:54:11Z</time>
      </trkpt>
      <trkpt lat="44.8763" lon="6.4927">
        <ele>1486.2</ele>
        <time>2024-08-11T13:54:12Z</time>
      </trkpt>
      <trkpt lat="44.8763" lon="6.4927">
        <ele>1486.2</ele>
        <time>2024-08-11T13:54:13Z</time>
      </trkpt>
      <trkpt lat="44.87629" lon="6.49273">
        <ele>1486</ele>
        <time>2024-08-11T13:54:14Z</time>
      </trkpt>
      <trkpt lat="44.87629" lon="6.49273">
        <ele>1486</ele>
        <time>2024-08-11T13:54:15Z</time>
      </trkpt>
      <trkpt lat="44.87627" lon="6.49276">
        <ele>1485.8</ele>
        <time>2024-08-11T13:54:16Z</time>
      </trkpt>
      <trkpt lat="44.87627" lon="6.49276">
        <ele>1485.8</ele>
        <time>2024-08-11T13:54:17Z</time>
      </trkpt>
      <trkpt lat="44.87625" lon="6.49278">
        <ele>1485.4</ele>
        <time>2024-08-11T13:54:18Z</time>
      </trkpt>
      <trkpt lat="44.87625" lon="6.49278">
        <ele>1485.2</ele>
        <time>2024-08-11T13:54:19Z</time>
      </trkpt>
      <trkpt lat="44.87623" lon="6.49281">
        <ele>1485.2</ele>
        <time>2024-08-11T13:54:20Z</time>
      </trkpt>
      <trkpt lat="44.87623" lon="6.49281">
        <ele>1485.2</ele>
        <time>2024-08-11T13:54:21Z</time>
      </trkpt>
      <trkpt lat="44.87621" lon="6.49283">
        <ele>1485.2</ele>
        <time>2024-08-11T13:54:22Z</time>
      </trkpt>
      <trkpt lat="44.87621" lon="6.49283">
        <ele>1485</ele>
        <time>2024-08-11T13:54:23Z</time>
      </trkpt>
      <trkpt lat="44.87619" lon="6.49284">
        <ele>1484.8</ele>
        <time>2024-08-11T13:54:24Z</time>
      </trkpt>
      <trkpt lat="44.87619" lon="6.49284">
        <ele>1484.8</ele>
        <time>2024-08-11T13:54:25Z</time>
      </trkpt>
      <trkpt lat="44.87617" lon="6.49287">
        <ele>1484.6</ele>
        <time>2024-08-11T13:54:26Z</time>
      </trkpt>
      <trkpt lat="44.87617" lon="6.49287">
        <ele>1484.2</ele>
        <time>2024-08-11T13:54:27Z</time>
      </trkpt>
      <trkpt lat="44.87615" lon="6.49289">
        <ele>1484</ele>
        <time>2024-08-11T13:54:28Z</time>
      </trkpt>
      <trkpt lat="44.87615" lon="6.49289">
        <ele>1484</ele>
        <time>2024-08-11T13:54:29Z</time>
      </trkpt>
      <trkpt lat="44.87614" lon="6.49292">
        <ele>1483.8</ele>
        <time>2024-08-11T13:54:30Z</time>
      </trkpt>
      <trkpt lat="44.87614" lon="6.49292">
        <ele>1483.4</ele>
        <time>2024-08-11T13:54:31Z</time>
      </trkpt>
      <trkpt lat="44.87613" lon="6.49295">
        <ele>1483.2</ele>
        <time>2024-08-11T13:54:32Z</time>
      </trkpt>
      <trkpt lat="44.87613" lon="6.49295">
        <ele>1483</ele>
        <time>2024-08-11T13:54:33Z</time>
      </trkpt>
      <trkpt lat="44.87612" lon="6.49298">
        <ele>1482.6</ele>
        <time>2024-08-11T13:54:34Z</time>
      </trkpt>
      <trkpt lat="44.87612" lon="6.49298">
        <ele>1482.6</ele>
        <time>2024-08-11T13:54:35Z</time>
      </trkpt>
      <trkpt lat="44.87611" lon="6.49302">
        <ele>1482.2</ele>
        <time>2024-08-11T13:54:36Z</time>
      </trkpt>
      <trkpt lat="44.87611" lon="6.49302">
        <ele>1482.2</ele>
        <time>2024-08-11T13:54:37Z</time>
      </trkpt>
      <trkpt lat="44.8761" lon="6.49305">
        <ele>1482</ele>
        <time>2024-08-11T13:54:38Z</time>
      </trkpt>
      <trkpt lat="44.8761" lon="6.49305">
        <ele>1481.8</ele>
        <time>2024-08-11T13:54:39Z</time>
      </trkpt>
      <trkpt lat="44.87609" lon="6.49307">
        <ele>1481.6</ele>
        <time>2024-08-11T13:54:40Z</time>
      </trkpt>
      <trkpt lat="44.87609" lon="6.49307">
        <ele>1481.4</ele>
        <time>2024-08-11T13:54:41Z</time>
      </trkpt>
      <trkpt lat="44.87608" lon="6.49309">
        <ele>1481.4</ele>
        <time>2024-08-11T13:54:42Z</time>
      </trkpt>
      <trkpt lat="44.87606" lon="6.49311">
        <ele>1480.8</ele>
        <time>2024-08-11T13:54:43Z</time>
      </trkpt>
      <trkpt lat="44.87606" lon="6.49311">
        <ele>1480.8</ele>
        <time>2024-08-11T13:54:44Z</time>
      </trkpt>
      <trkpt lat="44.87604" lon="6.49313">
        <ele>1480.8</ele>
        <time>2024-08-11T13:54:45Z</time>
      </trkpt>
      <trkpt lat="44.87604" lon="6.49313">
        <ele>1480.4</ele>
        <time>2024-08-11T13:54:46Z</time>
      </trkpt>
      <trkpt lat="44.87602" lon="6.49316">
        <ele>1480.4</ele>
        <time>2024-08-11T13:54:47Z</time>
      </trkpt>
      <trkpt lat="44.87602" lon="6.49316">
        <ele>1480</ele>
        <time>2024-08-11T13:54:48Z</time>
      </trkpt>
      <trkpt lat="44.87601" lon="6.49319">
        <ele>1479.8</ele>
        <time>2024-08-11T13:54:49Z</time>
      </trkpt>
      <trkpt lat="44.87601" lon="6.49319">
        <ele>1479.6</ele>
        <time>2024-08-11T13:54:50Z</time>
      </trkpt>
      <trkpt lat="44.87599" lon="6.49321">
        <ele>1479.4</ele>
        <time>2024-08-11T13:54:51Z</time>
      </trkpt>
      <trkpt lat="44.87599" lon="6.49321">
        <ele>1479.2</ele>
        <time>2024-08-11T13:54:52Z</time>
      </trkpt>
      <trkpt lat="44.87597" lon="6.49323">
        <ele>1479</ele>
        <time>2024-08-11T13:54:53Z</time>
      </trkpt>
      <trkpt lat="44.87597" lon="6.49323">
        <ele>1478.6</ele>
        <time>2024-08-11T13:54:54Z</time>
      </trkpt>
      <trkpt lat="44.87596" lon="6.49325">
        <ele>1478.4</ele>
        <time>2024-08-11T13:54:55Z</time>
      </trkpt>
      <trkpt lat="44.87596" lon="6.49325">
        <ele>1478.2</ele>
        <time>2024-08-11T13:54:56Z</time>
      </trkpt>
      <trkpt lat="44.87594" lon="6.49327">
        <ele>1477.8</ele>
        <time>2024-08-11T13:54:57Z</time>
      </trkpt>
      <trkpt lat="44.87594" lon="6.49327">
        <ele>1477.8</ele>
        <time>2024-08-11T13:54:58Z</time>
      </trkpt>
      <trkpt lat="44.87592" lon="6.4933">
        <ele>1477.8</ele>
        <time>2024-08-11T13:54:59Z</time>
      </trkpt>
      <trkpt lat="44.87592" lon="6.4933">
        <ele>1477.4</ele>
        <time>2024-08-11T13:55:00Z</time>
      </trkpt>
      <trkpt lat="44.8759" lon="6.49333">
        <ele>1477.4</ele>
        <time>2024-08-11T13:55:01Z</time>
      </trkpt>
      <trkpt lat="44.8759" lon="6.49333">
        <ele>1476.6</ele>
        <time>2024-08-11T13:55:02Z</time>
      </trkpt>
      <trkpt lat="44.87589" lon="6.49336">
        <ele>1476.6</ele>
        <time>2024-08-11T13:55:03Z</time>
      </trkpt>
      <trkpt lat="44.87589" lon="6.49336">
        <ele>1476.2</ele>
        <time>2024-08-11T13:55:04Z</time>
      </trkpt>
      <trkpt lat="44.87587" lon="6.49339">
        <ele>1475.8</ele>
        <time>2024-08-11T13:55:05Z</time>
      </trkpt>
      <trkpt lat="44.87587" lon="6.49339">
        <ele>1475.6</ele>
        <time>2024-08-11T13:55:06Z</time>
      </trkpt>
      <trkpt lat="44.87586" lon="6.49342">
        <ele>1475.6</ele>
        <time>2024-08-11T13:55:07Z</time>
      </trkpt>
      <trkpt lat="44.87586" lon="6.49342">
        <ele>1475.4</ele>
        <time>2024-08-11T13:55:08Z</time>
      </trkpt>
      <trkpt lat="44.87584" lon="6.49346">
        <ele>1475</ele>
        <time>2024-08-11T13:55:09Z</time>
      </trkpt>
      <trkpt lat="44.87583" lon="6.49348">
        <ele>1474.6</ele>
        <time>2024-08-11T13:55:10Z</time>
      </trkpt>
      <trkpt lat="44.87583" lon="6.49348">
        <ele>1474.4</ele>
        <time>2024-08-11T13:55:11Z</time>
      </trkpt>
      <trkpt lat="44.87582" lon="6.4935">
        <ele>1474.4</ele>
        <time>2024-08-11T13:55:12Z</time>
      </trkpt>
      <trkpt lat="44.87582" lon="6.4935">
        <ele>1474.4</ele>
        <time>2024-08-11T13:55:13Z</time>
      </trkpt>
      <trkpt lat="44.8758" lon="6.49352">
        <ele>1474.4</ele>
        <time>2024-08-11T13:55:14Z</time>
      </trkpt>
      <trkpt lat="44.8758" lon="6.49352">
        <ele>1474.2</ele>
        <time>2024-08-11T13:55:15Z</time>
      </trkpt>
      <trkpt lat="44.87577" lon="6.49354">
        <ele>1473.8</ele>
        <time>2024-08-11T13:55:16Z</time>
      </trkpt>
      <trkpt lat="44.87577" lon="6.49354">
        <ele>1473.6</ele>
        <time>2024-08-11T13:55:17Z</time>
      </trkpt>
      <trkpt lat="44.87576" lon="6.49356">
        <ele>1473.2</ele>
        <time>2024-08-11T13:55:18Z</time>
      </trkpt>
      <trkpt lat="44.87576" lon="6.49356">
        <ele>1472.8</ele>
        <time>2024-08-11T13:55:19Z</time>
      </trkpt>
      <trkpt lat="44.87573" lon="6.49358">
        <ele>1472.2</ele>
        <time>2024-08-11T13:55:20Z</time>
      </trkpt>
      <trkpt lat="44.87573" lon="6.49358">
        <ele>1472.2</ele>
        <time>2024-08-11T13:55:21Z</time>
      </trkpt>
      <trkpt lat="44.87571" lon="6.4936">
        <ele>1471.8</ele>
        <time>2024-08-11T13:55:22Z</time>
      </trkpt>
      <trkpt lat="44.87571" lon="6.4936">
        <ele>1471.6</ele>
        <time>2024-08-11T13:55:23Z</time>
      </trkpt>
      <trkpt lat="44.87569" lon="6.49361">
        <ele>1471.2</ele>
        <time>2024-08-11T13:55:24Z</time>
      </trkpt>
      <trkpt lat="44.87569" lon="6.49361">
        <ele>1471.2</ele>
        <time>2024-08-11T13:55:25Z</time>
      </trkpt>
      <trkpt lat="44.87567" lon="6.49363">
        <ele>1470.8</ele>
        <time>2024-08-11T13:55:26Z</time>
      </trkpt>
      <trkpt lat="44.87567" lon="6.49363">
        <ele>1470.6</ele>
        <time>2024-08-11T13:55:27Z</time>
      </trkpt>
      <trkpt lat="44.87567" lon="6.49363">
        <ele>1470.4</ele>
        <time>2024-08-11T13:55:28Z</time>
      </trkpt>
      <trkpt lat="44.87565" lon="6.49365">
        <ele>1470.2</ele>
        <time>2024-08-11T13:55:29Z</time>
      </trkpt>
      <trkpt lat="44.87565" lon="6.49365">
        <ele>1470</ele>
        <time>2024-08-11T13:55:30Z</time>
      </trkpt>
      <trkpt lat="44.87563" lon="6.49366">
        <ele>1469.6</ele>
        <time>2024-08-11T13:55:31Z</time>
      </trkpt>
      <trkpt lat="44.87563" lon="6.49366">
        <ele>1469.4</ele>
        <time>2024-08-11T13:55:32Z</time>
      </trkpt>
      <trkpt lat="44.87561" lon="6.49367">
        <ele>1469</ele>
        <time>2024-08-11T13:55:33Z</time>
      </trkpt>
      <trkpt lat="44.87561" lon="6.49367">
        <ele>1468.8</ele>
        <time>2024-08-11T13:55:34Z</time>
      </trkpt>
      <trkpt lat="44.87558" lon="6.49367">
        <ele>1468.2</ele>
        <time>2024-08-11T13:55:35Z</time>
      </trkpt>
      <trkpt lat="44.87558" lon="6.49367">
        <ele>1468</ele>
        <time>2024-08-11T13:55:36Z</time>
      </trkpt>
      <trkpt lat="44.87556" lon="6.49367">
        <ele>1467.8</ele>
        <time>2024-08-11T13:55:37Z</time>
      </trkpt>
      <trkpt lat="44.87556" lon="6.49367">
        <ele>1467.4</ele>
        <time>2024-08-11T13:55:38Z</time>
      </trkpt>
      <trkpt lat="44.87554" lon="6.49367">
        <ele>1467</ele>
        <time>2024-08-11T13:55:39Z</time>
      </trkpt>
      <trkpt lat="44.87554" lon="6.49367">
        <ele>1466.6</ele>
        <time>2024-08-11T13:55:40Z</time>
      </trkpt>
      <trkpt lat="44.87551" lon="6.49366">
        <ele>1466.4</ele>
        <time>2024-08-11T13:55:41Z</time>
      </trkpt>
      <trkpt lat="44.87551" lon="6.49366">
        <ele>1466.2</ele>
        <time>2024-08-11T13:55:42Z</time>
      </trkpt>
      <trkpt lat="44.87551" lon="6.49366">
        <ele>1466</ele>
        <time>2024-08-11T13:55:43Z</time>
      </trkpt>
      <trkpt lat="44.87549" lon="6.49364">
        <ele>1466</ele>
        <time>2024-08-11T13:55:44Z</time>
      </trkpt>
      <trkpt lat="44.87549" lon="6.49364">
        <ele>1465.6</ele>
        <time>2024-08-11T13:55:45Z</time>
      </trkpt>
      <trkpt lat="44.87547" lon="6.49364">
        <ele>1465.2</ele>
        <time>2024-08-11T13:55:46Z</time>
      </trkpt>
      <trkpt lat="44.87547" lon="6.49364">
        <ele>1465</ele>
        <time>2024-08-11T13:55:47Z</time>
      </trkpt>
      <trkpt lat="44.87543" lon="6.49363">
        <ele>1464.6</ele>
        <time>2024-08-11T13:55:48Z</time>
      </trkpt>
      <trkpt lat="44.87543" lon="6.49363">
        <ele>1464.4</ele>
        <time>2024-08-11T13:55:49Z</time>
      </trkpt>
      <trkpt lat="44.87541" lon="6.49362">
        <ele>1464.2</ele>
        <time>2024-08-11T13:55:50Z</time>
      </trkpt>
      <trkpt lat="44.87541" lon="6.49362">
        <ele>1464.2</ele>
        <time>2024-08-11T13:55:51Z</time>
      </trkpt>
      <trkpt lat="44.87541" lon="6.49362">
        <ele>1464.2</ele>
        <time>2024-08-11T13:55:52Z</time>
      </trkpt>
      <trkpt lat="44.8754" lon="6.4936">
        <ele>1464.2</ele>
        <time>2024-08-11T13:55:53Z</time>
      </trkpt>
      <trkpt lat="44.8754" lon="6.4936">
        <ele>1463.8</ele>
        <time>2024-08-11T13:55:54Z</time>
      </trkpt>
      <trkpt lat="44.87539" lon="6.49358">
        <ele>1463.4</ele>
        <time>2024-08-11T13:55:55Z</time>
      </trkpt>
      <trkpt lat="44.87539" lon="6.49358">
        <ele>1463.2</ele>
        <time>2024-08-11T13:55:56Z</time>
      </trkpt>
      <trkpt lat="44.87538" lon="6.49354">
        <ele>1462.8</ele>
        <time>2024-08-11T13:55:57Z</time>
      </trkpt>
      <trkpt lat="44.87538" lon="6.49354">
        <ele>1462.4</ele>
        <time>2024-08-11T13:55:58Z</time>
      </trkpt>
      <trkpt lat="44.87539" lon="6.49351">
        <ele>1462</ele>
        <time>2024-08-11T13:55:59Z</time>
      </trkpt>
      <trkpt lat="44.87539" lon="6.49351">
        <ele>1461.8</ele>
        <time>2024-08-11T13:56:00Z</time>
      </trkpt>
      <trkpt lat="44.87539" lon="6.49351">
        <ele>1461.8</ele>
        <time>2024-08-11T13:56:01Z</time>
      </trkpt>
      <trkpt lat="44.8754" lon="6.49349">
        <ele>1461.6</ele>
        <time>2024-08-11T13:56:02Z</time>
      </trkpt>
      <trkpt lat="44.8754" lon="6.49349">
        <ele>1461.6</ele>
        <time>2024-08-11T13:56:03Z</time>
      </trkpt>
      <trkpt lat="44.87542" lon="6.49346">
        <ele>1461.6</ele>
        <time>2024-08-11T13:56:04Z</time>
      </trkpt>
      <trkpt lat="44.87542" lon="6.49346">
        <ele>1461.4</ele>
        <time>2024-08-11T13:56:05Z</time>
      </trkpt>
      <trkpt lat="44.87542" lon="6.49346">
        <ele>1461.4</ele>
        <time>2024-08-11T13:56:06Z</time>
      </trkpt>
      <trkpt lat="44.87543" lon="6.49344">
        <ele>1461.4</ele>
        <time>2024-08-11T13:56:07Z</time>
      </trkpt>
      <trkpt lat="44.87543" lon="6.49344">
        <ele>1461.4</ele>
        <time>2024-08-11T13:56:08Z</time>
      </trkpt>
      <trkpt lat="44.87543" lon="6.49344">
        <ele>1461.4</ele>
        <time>2024-08-11T13:56:09Z</time>
      </trkpt>
      <trkpt lat="44.87543" lon="6.49344">
        <ele>1461.6</ele>
        <time>2024-08-11T13:56:10Z</time>
      </trkpt>
      <trkpt lat="44.87543" lon="6.49344">
        <ele>1461.6</ele>
        <time>2024-08-11T13:56:11Z</time>
      </trkpt>
      <trkpt lat="44.87543" lon="6.49344">
        <ele>1461.8</ele>
        <time>2024-08-11T13:56:12Z</time>
      </trkpt>
      <trkpt lat="44.87543" lon="6.49344">
        <ele>1462</ele>
        <time>2024-08-11T13:56:13Z</time>
      </trkpt>
      <trkpt lat="44.87545" lon="6.49346">
        <ele>1462</ele>
        <time>2024-08-11T13:56:14Z</time>
      </trkpt>
      <trkpt lat="44.87545" lon="6.49346">
        <ele>1462</ele>
        <time>2024-08-11T13:56:15Z</time>
      </trkpt>
      <trkpt lat="44.87547" lon="6.49345">
        <ele>1462.2</ele>
        <time>2024-08-11T13:56:16Z</time>
      </trkpt>
      <trkpt lat="44.87547" lon="6.49345">
        <ele>1462.2</ele>
        <time>2024-08-11T13:56:17Z</time>
      </trkpt>
      <trkpt lat="44.87549" lon="6.49345">
        <ele>1462</ele>
        <time>2024-08-11T13:56:18Z</time>
      </trkpt>
      <trkpt lat="44.87549" lon="6.49345">
        <ele>1462</ele>
        <time>2024-08-11T13:56:19Z</time>
      </trkpt>
      <trkpt lat="44.87549" lon="6.49345">
        <ele>1462</ele>
        <time>2024-08-11T13:56:20Z</time>
      </trkpt>
      <trkpt lat="44.87549" lon="6.49345">
        <ele>1462</ele>
        <time>2024-08-11T13:56:21Z</time>
      </trkpt>
      <trkpt lat="44.87549" lon="6.49345">
        <ele>1462</ele>
        <time>2024-08-11T13:56:22Z</time>
      </trkpt>
      <trkpt lat="44.87549" lon="6.49345">
        <ele>1461.6</ele>
        <time>2024-08-11T13:56:23Z</time>
      </trkpt>
      <trkpt lat="44.87549" lon="6.49345">
        <ele>1461.2</ele>
        <time>2024-08-11T13:56:24Z</time>
      </trkpt>
      <trkpt lat="44.8755" lon="6.49343">
        <ele>1461</ele>
        <time>2024-08-11T13:56:25Z</time>
      </trkpt>
      <trkpt lat="44.8755" lon="6.49343">
        <ele>1460.6</ele>
        <time>2024-08-11T13:56:26Z</time>
      </trkpt>
      <trkpt lat="44.8755" lon="6.49343">
        <ele>1460.4</ele>
        <time>2024-08-11T13:56:27Z</time>
      </trkpt>
      <trkpt lat="44.8755" lon="6.49343">
        <ele>1460.4</ele>
        <time>2024-08-11T13:56:28Z</time>
      </trkpt>
      <trkpt lat="44.8755" lon="6.49343">
        <ele>1460.6</ele>
        <time>2024-08-11T13:56:29Z</time>
      </trkpt>
      <trkpt lat="44.8755" lon="6.49343">
        <ele>1460.6</ele>
        <time>2024-08-11T13:56:30Z</time>
      </trkpt>
      <trkpt lat="44.8755" lon="6.49343">
        <ele>1460.2</ele>
        <time>2024-08-11T13:56:31Z</time>
      </trkpt>
      <trkpt lat="44.8755" lon="6.49343">
        <ele>1459.8</ele>
        <time>2024-08-11T13:56:32Z</time>
      </trkpt>
      <trkpt lat="44.8755" lon="6.49343">
        <ele>1459.8</ele>
        <time>2024-08-11T13:56:33Z</time>
      </trkpt>
      <trkpt lat="44.8755" lon="6.49343">
        <ele>1460.4</ele>
        <time>2024-08-11T13:56:34Z</time>
      </trkpt>
      <trkpt lat="44.8755" lon="6.49343">
        <ele>1460.4</ele>
        <time>2024-08-11T13:56:35Z</time>
      </trkpt>
      <trkpt lat="44.8755" lon="6.49343">
        <ele>1460.4</ele>
        <time>2024-08-11T13:56:36Z</time>
      </trkpt>
      <trkpt lat="44.8755" lon="6.49343">
        <ele>1460.6</ele>
        <time>2024-08-11T13:56:37Z</time>
      </trkpt>
      <trkpt lat="44.8755" lon="6.49343">
        <ele>1460.6</ele>
        <time>2024-08-11T13:56:38Z</time>
      </trkpt>
      <trkpt lat="44.8755" lon="6.49343">
        <ele>1460.4</ele>
        <time>2024-08-11T13:56:39Z</time>
      </trkpt>
      <trkpt lat="44.8755" lon="6.49343">
        <ele>1460.4</ele>
        <time>2024-08-11T13:56:40Z</time>
      </trkpt>
      <trkpt lat="44.8755" lon="6.49343">
        <ele>1460.2</ele>
        <time>2024-08-11T13:56:41Z</time>
      </trkpt>
      <trkpt lat="44.8755" lon="6.49343">
        <ele>1460.2</ele>
        <time>2024-08-11T13:56:42Z</time>
      </trkpt>
      <trkpt lat="44.8755" lon="6.49343">
        <ele>1460.4</ele>
        <time>2024-08-11T13:56:43Z</time>
      </trkpt>
      <trkpt lat="44.8755" lon="6.49343">
        <ele>1460.6</ele>
        <time>2024-08-11T13:56:44Z</time>
      </trkpt>
      <trkpt lat="44.8755" lon="6.49343">
        <ele>1460.6</ele>
        <time>2024-08-11T13:56:45Z</time>
      </trkpt>
      <trkpt lat="44.8755" lon="6.49343">
        <ele>1460.6</ele>
        <time>2024-08-11T13:56:46Z</time>
      </trkpt>
      <trkpt lat="44.8755" lon="6.49343">
        <ele>1460.4</ele>
        <time>2024-08-11T13:56:47Z</time>
      </trkpt>
      <trkpt lat="44.8755" lon="6.49343">
        <ele>1460.2</ele>
        <time>2024-08-11T13:56:48Z</time>
      </trkpt>
      <trkpt lat="44.8755" lon="6.49343">
        <ele>1460.2</ele>
        <time>2024-08-11T13:56:49Z</time>
      </trkpt>
      <trkpt lat="44.8755" lon="6.49343">
        <ele>1460.2</ele>
        <time>2024-08-11T13:56:50Z</time>
      </trkpt>
      <trkpt lat="44.8755" lon="6.49343">
        <ele>1460</ele>
        <time>2024-08-11T13:56:51Z</time>
      </trkpt>
      <trkpt lat="44.8755" lon="6.49343">
        <ele>1460</ele>
        <time>2024-08-11T13:56:52Z</time>
      </trkpt>
      <trkpt lat="44.8755" lon="6.49343">
        <ele>1460</ele>
        <time>2024-08-11T13:56:53Z</time>
      </trkpt>
      <trkpt lat="44.8755" lon="6.49343">
        <ele>1460.2</ele>
        <time>2024-08-11T13:56:54Z</time>
      </trkpt>
      <trkpt lat="44.8755" lon="6.49343">
        <ele>1460.4</ele>
        <time>2024-08-11T13:56:55Z</time>
      </trkpt>
      <trkpt lat="44.8755" lon="6.49343">
        <ele>1460.6</ele>
        <time>2024-08-11T13:56:56Z</time>
      </trkpt>
      <trkpt lat="44.8755" lon="6.49343">
        <ele>1460.6</ele>
        <time>2024-08-11T13:56:57Z</time>
      </trkpt>
      <trkpt lat="44.8755" lon="6.49343">
        <ele>1460.6</ele>
        <time>2024-08-11T13:56:58Z</time>
      </trkpt>
      <trkpt lat="44.8755" lon="6.49343">
        <ele>1460.6</ele>
        <time>2024-08-11T13:56:59Z</time>
      </trkpt>
      <trkpt lat="44.8755" lon="6.49343">
        <ele>1460.6</ele>
        <time>2024-08-11T13:57:00Z</time>
      </trkpt>
      <trkpt lat="44.8755" lon="6.49343">
        <ele>1460.6</ele>
        <time>2024-08-11T13:57:01Z</time>
      </trkpt>
      <trkpt lat="44.8755" lon="6.49343">
        <ele>1460.6</ele>
        <time>2024-08-11T13:57:02Z</time>
      </trkpt>
      <trkpt lat="44.8755" lon="6.49343">
        <ele>1460.6</ele>
        <time>2024-08-11T13:57:03Z</time>
      </trkpt>
      <trkpt lat="44.8755" lon="6.49343">
        <ele>1460.6</ele>
        <time>2024-08-11T13:57:04Z</time>
      </trkpt>
      <trkpt lat="44.8755" lon="6.49343">
        <ele>1460.4</ele>
        <time>2024-08-11T13:57:05Z</time>
      </trkpt>
      <trkpt lat="44.8755" lon="6.49343">
        <ele>1460.4</ele>
        <time>2024-08-11T13:57:06Z</time>
      </trkpt>
      <trkpt lat="44.8755" lon="6.49343">
        <ele>1460.6</ele>
        <time>2024-08-11T13:57:07Z</time>
      </trkpt>
      <trkpt lat="44.8755" lon="6.49343">
        <ele>1460.6</ele>
        <time>2024-08-11T13:57:08Z</time>
      </trkpt>
      <trkpt lat="44.8755" lon="6.49343">
        <ele>1460.4</ele>
        <time>2024-08-11T13:57:09Z</time>
      </trkpt>
      <trkpt lat="44.8755" lon="6.49343">
        <ele>1460.4</ele>
        <time>2024-08-11T13:57:10Z</time>
      </trkpt>
      <trkpt lat="44.8755" lon="6.49343">
        <ele>1460.6</ele>
        <time>2024-08-11T13:57:11Z</time>
      </trkpt>
      <trkpt lat="44.8755" lon="6.49343">
        <ele>1460.6</ele>
        <time>2024-08-11T13:57:12Z</time>
      </trkpt>
      <trkpt lat="44.8755" lon="6.49343">
        <ele>1460.4</ele>
        <time>2024-08-11T13:57:13Z</time>
      </trkpt>
      <trkpt lat="44.8755" lon="6.49343">
        <ele>1460.4</ele>
        <time>2024-08-11T13:57:14Z</time>
      </trkpt>
      <trkpt lat="44.8755" lon="6.49343">
        <ele>1460.2</ele>
        <time>2024-08-11T13:57:15Z</time>
      </trkpt>
      <trkpt lat="44.8755" lon="6.49343">
        <ele>1460.2</ele>
        <time>2024-08-11T13:57:16Z</time>
      </trkpt>
      <trkpt lat="44.8755" lon="6.49343">
        <ele>1460.4</ele>
        <time>2024-08-11T13:57:17Z</time>
      </trkpt>
      <trkpt lat="44.8755" lon="6.49343">
        <ele>1460.4</ele>
        <time>2024-08-11T13:57:18Z</time>
      </trkpt>
      <trkpt lat="44.8755" lon="6.49343">
        <ele>1460.2</ele>
        <time>2024-08-11T13:57:19Z</time>
      </trkpt>
      <trkpt lat="44.8755" lon="6.49343">
        <ele>1460</ele>
        <time>2024-08-11T13:57:20Z</time>
      </trkpt>
      <trkpt lat="44.8755" lon="6.49343">
        <ele>1460</ele>
        <time>2024-08-11T13:57:21Z</time>
      </trkpt>
      <trkpt lat="44.8755" lon="6.49343">
        <ele>1460</ele>
        <time>2024-08-11T13:57:22Z</time>
      </trkpt>
      <trkpt lat="44.8755" lon="6.49343">
        <ele>1459.8</ele>
        <time>2024-08-11T13:57:23Z</time>
      </trkpt>
      <trkpt lat="44.8755" lon="6.49343">
        <ele>1459.6</ele>
        <time>2024-08-11T13:57:24Z</time>
      </trkpt>
      <trkpt lat="44.8755" lon="6.49343">
        <ele>1459.6</ele>
        <time>2024-08-11T13:57:25Z</time>
      </trkpt>
      <trkpt lat="44.8755" lon="6.49343">
        <ele>1459.6</ele>
        <time>2024-08-11T13:57:26Z</time>
      </trkpt>
      <trkpt lat="44.8755" lon="6.49343">
        <ele>1459.6</ele>
        <time>2024-08-11T13:57:27Z</time>
      </trkpt>
      <trkpt lat="44.8755" lon="6.49343">
        <ele>1459.6</ele>
        <time>2024-08-11T13:57:28Z</time>
      </trkpt>
      <trkpt lat="44.8755" lon="6.49343">
        <ele>1460</ele>
        <time>2024-08-11T13:57:29Z</time>
      </trkpt>
      <trkpt lat="44.8755" lon="6.49343">
        <ele>1460</ele>
        <time>2024-08-11T13:57:30Z</time>
      </trkpt>
      <trkpt lat="44.8755" lon="6.49343">
        <ele>1460</ele>
        <time>2024-08-11T13:57:31Z</time>
      </trkpt>
      <trkpt lat="44.8755" lon="6.49343">
        <ele>1460</ele>
        <time>2024-08-11T13:57:32Z</time>
      </trkpt>
      <trkpt lat="44.8755" lon="6.49343">
        <ele>1460</ele>
        <time>2024-08-11T13:57:33Z</time>
      </trkpt>
      <trkpt lat="44.8755" lon="6.49343">
        <ele>1460</ele>
        <time>2024-08-11T13:57:34Z</time>
      </trkpt>
      <trkpt lat="44.8755" lon="6.49343">
        <ele>1459.8</ele>
        <time>2024-08-11T13:57:35Z</time>
      </trkpt>
      <trkpt lat="44.8755" lon="6.49343">
        <ele>1459.8</ele>
        <time>2024-08-11T13:57:36Z</time>
      </trkpt>
      <trkpt lat="44.8755" lon="6.49343">
        <ele>1460</ele>
        <time>2024-08-11T13:57:37Z</time>
      </trkpt>
      <trkpt lat="44.8755" lon="6.49343">
        <ele>1460.2</ele>
        <time>2024-08-11T13:57:38Z</time>
      </trkpt>
      <trkpt lat="44.8755" lon="6.49343">
        <ele>1460.2</ele>
        <time>2024-08-11T13:57:39Z</time>
      </trkpt>
      <trkpt lat="44.8755" lon="6.49343">
        <ele>1460.2</ele>
        <time>2024-08-11T13:57:40Z</time>
      </trkpt>
      <trkpt lat="44.8755" lon="6.49343">
        <ele>1460.2</ele>
        <time>2024-08-11T13:57:41Z</time>
      </trkpt>
      <trkpt lat="44.8755" lon="6.49343">
        <ele>1460</ele>
        <time>2024-08-11T13:57:42Z</time>
      </trkpt>
      <trkpt lat="44.8755" lon="6.49343">
        <ele>1460</ele>
        <time>2024-08-11T13:57:43Z</time>
      </trkpt>
      <trkpt lat="44.8755" lon="6.49343">
        <ele>1460</ele>
        <time>2024-08-11T13:57:44Z</time>
      </trkpt>
      <trkpt lat="44.8755" lon="6.49343">
        <ele>1460</ele>
        <time>2024-08-11T13:57:45Z</time>
      </trkpt>
      <trkpt lat="44.8755" lon="6.49343">
        <ele>1460</ele>
        <time>2024-08-11T13:57:46Z</time>
      </trkpt>
      <trkpt lat="44.8755" lon="6.49343">
        <ele>1460</ele>
        <time>2024-08-11T13:57:47Z</time>
      </trkpt>
      <trkpt lat="44.8755" lon="6.49343">
        <ele>1460</ele>
        <time>2024-08-11T13:57:48Z</time>
      </trkpt>
      <trkpt lat="44.8755" lon="6.49343">
        <ele>1460</ele>
        <time>2024-08-11T13:57:49Z</time>
      </trkpt>
      <trkpt lat="44.8755" lon="6.49343">
        <ele>1460.2</ele>
        <time>2024-08-11T13:57:50Z</time>
      </trkpt>
      <trkpt lat="44.8755" lon="6.49343">
        <ele>1460.2</ele>
        <time>2024-08-11T13:57:51Z</time>
      </trkpt>
      <trkpt lat="44.8755" lon="6.49343">
        <ele>1460.2</ele>
        <time>2024-08-11T13:57:52Z</time>
      </trkpt>
      <trkpt lat="44.8755" lon="6.49343">
        <ele>1460.2</ele>
        <time>2024-08-11T13:57:53Z</time>
      </trkpt>
      <trkpt lat="44.8755" lon="6.49343">
        <ele>1460.2</ele>
        <time>2024-08-11T13:57:54Z</time>
      </trkpt>
      <trkpt lat="44.8755" lon="6.49343">
        <ele>1460</ele>
        <time>2024-08-11T13:57:55Z</time>
      </trkpt>
      <trkpt lat="44.8755" lon="6.49343">
        <ele>1460</ele>
        <time>2024-08-11T13:57:56Z</time>
      </trkpt>
      <trkpt lat="44.8755" lon="6.49343">
        <ele>1460.2</ele>
        <time>2024-08-11T13:57:57Z</time>
      </trkpt>
      <trkpt lat="44.8755" lon="6.49343">
        <ele>1460.2</ele>
        <time>2024-08-11T13:57:58Z</time>
      </trkpt>
      <trkpt lat="44.8755" lon="6.49343">
        <ele>1460.2</ele>
        <time>2024-08-11T13:57:59Z</time>
      </trkpt>
      <trkpt lat="44.8755" lon="6.49343">
        <ele>1460.2</ele>
        <time>2024-08-11T13:58:00Z</time>
      </trkpt>
      <trkpt lat="44.8755" lon="6.49343">
        <ele>1460.2</ele>
        <time>2024-08-11T13:58:01Z</time>
      </trkpt>
      <trkpt lat="44.8755" lon="6.49343">
        <ele>1460.2</ele>
        <time>2024-08-11T13:58:02Z</time>
      </trkpt>
      <trkpt lat="44.8755" lon="6.49343">
        <ele>1460</ele>
        <time>2024-08-11T13:58:03Z</time>
      </trkpt>
      <trkpt lat="44.8755" lon="6.49343">
        <ele>1460</ele>
        <time>2024-08-11T13:58:04Z</time>
      </trkpt>
      <trkpt lat="44.8755" lon="6.49343">
        <ele>1460</ele>
        <time>2024-08-11T13:58:05Z</time>
      </trkpt>
      <trkpt lat="44.8755" lon="6.49343">
        <ele>1460</ele>
        <time>2024-08-11T13:58:06Z</time>
      </trkpt>
      <trkpt lat="44.8755" lon="6.49343">
        <ele>1460</ele>
        <time>2024-08-11T13:58:07Z</time>
      </trkpt>
      <trkpt lat="44.8755" lon="6.49343">
        <ele>1460</ele>
        <time>2024-08-11T13:58:08Z</time>
      </trkpt>
      <trkpt lat="44.8755" lon="6.49343">
        <ele>1460</ele>
        <time>2024-08-11T13:58:09Z</time>
      </trkpt>
      <trkpt lat="44.8755" lon="6.49343">
        <ele>1460</ele>
        <time>2024-08-11T13:58:10Z</time>
      </trkpt>
      <trkpt lat="44.8755" lon="6.49343">
        <ele>1460</ele>
        <time>2024-08-11T13:58:11Z</time>
      </trkpt>
      <trkpt lat="44.8755" lon="6.49343">
        <ele>1459.8</ele>
        <time>2024-08-11T13:58:12Z</time>
      </trkpt>
      <trkpt lat="44.8755" lon="6.49343">
        <ele>1459.8</ele>
        <time>2024-08-11T13:58:13Z</time>
      </trkpt>
      <trkpt lat="44.8755" lon="6.49343">
        <ele>1459.6</ele>
        <time>2024-08-11T13:58:14Z</time>
      </trkpt>
      <trkpt lat="44.8755" lon="6.49343">
        <ele>1459.8</ele>
        <time>2024-08-11T13:58:15Z</time>
      </trkpt>
      <trkpt lat="44.8755" lon="6.49343">
        <ele>1459.8</ele>
        <time>2024-08-11T13:58:16Z</time>
      </trkpt>
      <trkpt lat="44.8755" lon="6.49343">
        <ele>1460</ele>
        <time>2024-08-11T13:58:17Z</time>
      </trkpt>
      <trkpt lat="44.8755" lon="6.49343">
        <ele>1460.2</ele>
        <time>2024-08-11T13:58:18Z</time>
      </trkpt>
      <trkpt lat="44.8755" lon="6.49343">
        <ele>1460.4</ele>
        <time>2024-08-11T13:58:19Z</time>
      </trkpt>
      <trkpt lat="44.8755" lon="6.49343">
        <ele>1460.4</ele>
        <time>2024-08-11T13:58:20Z</time>
      </trkpt>
      <trkpt lat="44.8755" lon="6.49343">
        <ele>1460.2</ele>
        <time>2024-08-11T13:58:21Z</time>
      </trkpt>
      <trkpt lat="44.8755" lon="6.49343">
        <ele>1460</ele>
        <time>2024-08-11T13:58:22Z</time>
      </trkpt>
      <trkpt lat="44.8755" lon="6.49343">
        <ele>1459.8</ele>
        <time>2024-08-11T13:58:23Z</time>
      </trkpt>
      <trkpt lat="44.8755" lon="6.49343">
        <ele>1459.8</ele>
        <time>2024-08-11T13:58:24Z</time>
      </trkpt>
      <trkpt lat="44.8755" lon="6.49343">
        <ele>1459.8</ele>
        <time>2024-08-11T13:58:25Z</time>
      </trkpt>
      <trkpt lat="44.8755" lon="6.49343">
        <ele>1459.8</ele>
        <time>2024-08-11T13:58:26Z</time>
      </trkpt>
      <trkpt lat="44.8755" lon="6.49343">
        <ele>1460</ele>
        <time>2024-08-11T13:58:27Z</time>
      </trkpt>
      <trkpt lat="44.8755" lon="6.49343">
        <ele>1460</ele>
        <time>2024-08-11T13:58:28Z</time>
      </trkpt>
      <trkpt lat="44.8755" lon="6.49343">
        <ele>1459.6</ele>
        <time>2024-08-11T13:58:29Z</time>
      </trkpt>
      <trkpt lat="44.8755" lon="6.49343">
        <ele>1459.6</ele>
        <time>2024-08-11T13:58:30Z</time>
      </trkpt>
      <trkpt lat="44.8755" lon="6.49343">
        <ele>1459.6</ele>
        <time>2024-08-11T13:58:31Z</time>
      </trkpt>
      <trkpt lat="44.8755" lon="6.49343">
        <ele>1459.8</ele>
        <time>2024-08-11T13:58:32Z</time>
      </trkpt>
      <trkpt lat="44.8755" lon="6.49343">
        <ele>1459.8</ele>
        <time>2024-08-11T13:58:33Z</time>
      </trkpt>
      <trkpt lat="44.8755" lon="6.49343">
        <ele>1459.8</ele>
        <time>2024-08-11T13:58:34Z</time>
      </trkpt>
      <trkpt lat="44.8755" lon="6.49343">
        <ele>1459.6</ele>
        <time>2024-08-11T13:58:35Z</time>
      </trkpt>
      <trkpt lat="44.8755" lon="6.49343">
        <ele>1459.6</ele>
        <time>2024-08-11T13:58:36Z</time>
      </trkpt>
      <trkpt lat="44.8755" lon="6.49343">
        <ele>1459.6</ele>
        <time>2024-08-11T13:58:37Z</time>
      </trkpt>
      <trkpt lat="44.8755" lon="6.49343">
        <ele>1459.8</ele>
        <time>2024-08-11T13:58:38Z</time>
      </trkpt>
      <trkpt lat="44.8755" lon="6.49343">
        <ele>1459.8</ele>
        <time>2024-08-11T13:58:39Z</time>
      </trkpt>
      <trkpt lat="44.8755" lon="6.49343">
        <ele>1459.8</ele>
        <time>2024-08-11T13:58:40Z</time>
      </trkpt>
      <trkpt lat="44.8755" lon="6.49343">
        <ele>1460</ele>
        <time>2024-08-11T13:58:41Z</time>
      </trkpt>
      <trkpt lat="44.8755" lon="6.49343">
        <ele>1460</ele>
        <time>2024-08-11T13:58:42Z</time>
      </trkpt>
      <trkpt lat="44.8755" lon="6.49343">
        <ele>1460.2</ele>
        <time>2024-08-11T13:58:43Z</time>
      </trkpt>
      <trkpt lat="44.8755" lon="6.49343">
        <ele>1460.2</ele>
        <time>2024-08-11T13:58:44Z</time>
      </trkpt>
      <trkpt lat="44.8755" lon="6.49343">
        <ele>1459.6</ele>
        <time>2024-08-11T13:58:45Z</time>
      </trkpt>
      <trkpt lat="44.8755" lon="6.49343">
        <ele>1459</ele>
        <time>2024-08-11T13:58:46Z</time>
      </trkpt>
      <trkpt lat="44.87551" lon="6.4934">
        <ele>1458.6</ele>
        <time>2024-08-11T13:58:47Z</time>
      </trkpt>
      <trkpt lat="44.87551" lon="6.4934">
        <ele>1458.4</ele>
        <time>2024-08-11T13:58:48Z</time>
      </trkpt>
      <trkpt lat="44.87551" lon="6.4934">
        <ele>1458.4</ele>
        <time>2024-08-11T13:58:49Z</time>
      </trkpt>
      <trkpt lat="44.87551" lon="6.49337">
        <ele>1458.6</ele>
        <time>2024-08-11T13:58:50Z</time>
      </trkpt>
      <trkpt lat="44.87551" lon="6.49337">
        <ele>1458.4</ele>
        <time>2024-08-11T13:58:51Z</time>
      </trkpt>
      <trkpt lat="44.87551" lon="6.49337">
        <ele>1458.2</ele>
        <time>2024-08-11T13:58:52Z</time>
      </trkpt>
      <trkpt lat="44.87551" lon="6.49337">
        <ele>1458</ele>
        <time>2024-08-11T13:58:53Z</time>
      </trkpt>
      <trkpt lat="44.87551" lon="6.49337">
        <ele>1458</ele>
        <time>2024-08-11T13:58:54Z</time>
      </trkpt>
      <trkpt lat="44.87551" lon="6.49337">
        <ele>1458</ele>
        <time>2024-08-11T13:58:55Z</time>
      </trkpt>
      <trkpt lat="44.87551" lon="6.49337">
        <ele>1458</ele>
        <time>2024-08-11T13:58:56Z</time>
      </trkpt>
      <trkpt lat="44.87551" lon="6.49337">
        <ele>1458</ele>
        <time>2024-08-11T13:58:57Z</time>
      </trkpt>
      <trkpt lat="44.87551" lon="6.49337">
        <ele>1458</ele>
        <time>2024-08-11T13:58:58Z</time>
      </trkpt>
      <trkpt lat="44.87551" lon="6.49337">
        <ele>1458</ele>
        <time>2024-08-11T13:58:59Z</time>
      </trkpt>
      <trkpt lat="44.87551" lon="6.49337">
        <ele>1458</ele>
        <time>2024-08-11T13:59:00Z</time>
      </trkpt>
      <trkpt lat="44.87553" lon="6.49336">
        <ele>1457.8</ele>
        <time>2024-08-11T13:59:01Z</time>
      </trkpt>
      <trkpt lat="44.87553" lon="6.49336">
        <ele>1457.8</ele>
        <time>2024-08-11T13:59:02Z</time>
      </trkpt>
      <trkpt lat="44.87555" lon="6.49334">
        <ele>1457.8</ele>
        <time>2024-08-11T13:59:03Z</time>
      </trkpt>
      <trkpt lat="44.87555" lon="6.49334">
        <ele>1457.8</ele>
        <time>2024-08-11T13:59:04Z</time>
      </trkpt>
      <trkpt lat="44.87558" lon="6.49332">
        <ele>1457.8</ele>
        <time>2024-08-11T13:59:05Z</time>
      </trkpt>
      <trkpt lat="44.87558" lon="6.49332">
        <ele>1458.2</ele>
        <time>2024-08-11T13:59:06Z</time>
      </trkpt>
      <trkpt lat="44.87558" lon="6.49332">
        <ele>1458.4</ele>
        <time>2024-08-11T13:59:07Z</time>
      </trkpt>
      <trkpt lat="44.87559" lon="6.4933">
        <ele>1458.4</ele>
        <time>2024-08-11T13:59:08Z</time>
      </trkpt>
      <trkpt lat="44.87559" lon="6.4933">
        <ele>1458.4</ele>
        <time>2024-08-11T13:59:09Z</time>
      </trkpt>
      <trkpt lat="44.87559" lon="6.4933">
        <ele>1458.4</ele>
        <time>2024-08-11T13:59:10Z</time>
      </trkpt>
      <trkpt lat="44.87559" lon="6.4933">
        <ele>1458.4</ele>
        <time>2024-08-11T13:59:11Z</time>
      </trkpt>
      <trkpt lat="44.87559" lon="6.4933">
        <ele>1458.4</ele>
        <time>2024-08-11T13:59:12Z</time>
      </trkpt>
      <trkpt lat="44.87559" lon="6.4933">
        <ele>1458.4</ele>
        <time>2024-08-11T13:59:13Z</time>
      </trkpt>
      <trkpt lat="44.87559" lon="6.4933">
        <ele>1458.4</ele>
        <time>2024-08-11T13:59:14Z</time>
      </trkpt>
      <trkpt lat="44.87559" lon="6.4933">
        <ele>1458.4</ele>
        <time>2024-08-11T13:59:15Z</time>
      </trkpt>
      <trkpt lat="44.87559" lon="6.4933">
        <ele>1458.4</ele>
        <time>2024-08-11T13:59:16Z</time>
      </trkpt>
      <trkpt lat="44.87559" lon="6.4933">
        <ele>1458.4</ele>
        <time>2024-08-11T13:59:17Z</time>
      </trkpt>
      <trkpt lat="44.87559" lon="6.4933">
        <ele>1458.2</ele>
        <time>2024-08-11T13:59:18Z</time>
      </trkpt>
      <trkpt lat="44.87559" lon="6.4933">
        <ele>1458.2</ele>
        <time>2024-08-11T13:59:19Z</time>
      </trkpt>
      <trkpt lat="44.87559" lon="6.4933">
        <ele>1458.2</ele>
        <time>2024-08-11T13:59:20Z</time>
      </trkpt>
      <trkpt lat="44.87559" lon="6.4933">
        <ele>1458.2</ele>
        <time>2024-08-11T13:59:21Z</time>
      </trkpt>
      <trkpt lat="44.87559" lon="6.4933">
        <ele>1458.2</ele>
        <time>2024-08-11T13:59:22Z</time>
      </trkpt>
      <trkpt lat="44.87559" lon="6.4933">
        <ele>1458.2</ele>
        <time>2024-08-11T13:59:23Z</time>
      </trkpt>
      <trkpt lat="44.87559" lon="6.4933">
        <ele>1458</ele>
        <time>2024-08-11T13:59:24Z</time>
      </trkpt>
      <trkpt lat="44.87561" lon="6.49329">
        <ele>1457.8</ele>
        <time>2024-08-11T13:59:25Z</time>
      </trkpt>
      <trkpt lat="44.87561" lon="6.49329">
        <ele>1457.8</ele>
        <time>2024-08-11T13:59:26Z</time>
      </trkpt>
      <trkpt lat="44.87564" lon="6.49327">
        <ele>1457.8</ele>
        <time>2024-08-11T13:59:27Z</time>
      </trkpt>
      <trkpt lat="44.87564" lon="6.49327">
        <ele>1457.8</ele>
        <time>2024-08-11T13:59:28Z</time>
      </trkpt>
      <trkpt lat="44.87566" lon="6.49323">
        <ele>1458</ele>
        <time>2024-08-11T13:59:29Z</time>
      </trkpt>
      <trkpt lat="44.87566" lon="6.49323">
        <ele>1457.8</ele>
        <time>2024-08-11T13:59:30Z</time>
      </trkpt>
      <trkpt lat="44.87568" lon="6.4932">
        <ele>1457.8</ele>
        <time>2024-08-11T13:59:31Z</time>
      </trkpt>
      <trkpt lat="44.87568" lon="6.4932">
        <ele>1457.8</ele>
        <time>2024-08-11T13:59:32Z</time>
      </trkpt>
      <trkpt lat="44.87569" lon="6.49316">
        <ele>1457.8</ele>
        <time>2024-08-11T13:59:33Z</time>
      </trkpt>
      <trkpt lat="44.87569" lon="6.49316">
        <ele>1457.8</ele>
        <time>2024-08-11T13:59:34Z</time>
      </trkpt>
      <trkpt lat="44.8757" lon="6.49314">
        <ele>1457.8</ele>
        <time>2024-08-11T13:59:35Z</time>
      </trkpt>
      <trkpt lat="44.8757" lon="6.49314">
        <ele>1458</ele>
        <time>2024-08-11T13:59:36Z</time>
      </trkpt>
      <trkpt lat="44.87571" lon="6.49311">
        <ele>1458</ele>
        <time>2024-08-11T13:59:37Z</time>
      </trkpt>
      <trkpt lat="44.87571" lon="6.49311">
        <ele>1458</ele>
        <time>2024-08-11T13:59:38Z</time>
      </trkpt>
      <trkpt lat="44.87573" lon="6.49308">
        <ele>1458</ele>
        <time>2024-08-11T13:59:39Z</time>
      </trkpt>
      <trkpt lat="44.87573" lon="6.49308">
        <ele>1458</ele>
        <time>2024-08-11T13:59:40Z</time>
      </trkpt>
      <trkpt lat="44.87574" lon="6.49306">
        <ele>1457.8</ele>
        <time>2024-08-11T13:59:41Z</time>
      </trkpt>
      <trkpt lat="44.87574" lon="6.49306">
        <ele>1457.8</ele>
        <time>2024-08-11T13:59:42Z</time>
      </trkpt>
      <trkpt lat="44.87575" lon="6.49303">
        <ele>1457.8</ele>
        <time>2024-08-11T13:59:43Z</time>
      </trkpt>
      <trkpt lat="44.87575" lon="6.49303">
        <ele>1458</ele>
        <time>2024-08-11T13:59:44Z</time>
      </trkpt>
      <trkpt lat="44.87575" lon="6.493">
        <ele>1457.8</ele>
        <time>2024-08-11T13:59:45Z</time>
      </trkpt>
      <trkpt lat="44.87575" lon="6.493">
        <ele>1457.4</ele>
        <time>2024-08-11T13:59:46Z</time>
      </trkpt>
      <trkpt lat="44.87576" lon="6.49297">
        <ele>1457.4</ele>
        <time>2024-08-11T13:59:47Z</time>
      </trkpt>
      <trkpt lat="44.87576" lon="6.49297">
        <ele>1457.4</ele>
        <time>2024-08-11T13:59:48Z</time>
      </trkpt>
      <trkpt lat="44.87576" lon="6.49297">
        <ele>1457.4</ele>
        <time>2024-08-11T13:59:49Z</time>
      </trkpt>
      <trkpt lat="44.87576" lon="6.49297">
        <ele>1457.2</ele>
        <time>2024-08-11T13:59:50Z</time>
      </trkpt>
      <trkpt lat="44.87576" lon="6.49297">
        <ele>1457.2</ele>
        <time>2024-08-11T13:59:51Z</time>
      </trkpt>
      <trkpt lat="44.87576" lon="6.49297">
        <ele>1457.4</ele>
        <time>2024-08-11T13:59:52Z</time>
      </trkpt>
      <trkpt lat="44.87576" lon="6.49297">
        <ele>1457.4</ele>
        <time>2024-08-11T13:59:53Z</time>
      </trkpt>
      <trkpt lat="44.87576" lon="6.49297">
        <ele>1457.4</ele>
        <time>2024-08-11T13:59:54Z</time>
      </trkpt>
      <trkpt lat="44.87576" lon="6.49297">
        <ele>1457.2</ele>
        <time>2024-08-11T13:59:55Z</time>
      </trkpt>
      <trkpt lat="44.87576" lon="6.49297">
        <ele>1457</ele>
        <time>2024-08-11T13:59:56Z</time>
      </trkpt>
      <trkpt lat="44.87576" lon="6.49297">
        <ele>1457</ele>
        <time>2024-08-11T13:59:57Z</time>
      </trkpt>
      <trkpt lat="44.87576" lon="6.49297">
        <ele>1457</ele>
        <time>2024-08-11T13:59:58Z</time>
      </trkpt>
      <trkpt lat="44.87576" lon="6.49297">
        <ele>1456.8</ele>
        <time>2024-08-11T13:59:59Z</time>
      </trkpt>
      <trkpt lat="44.87576" lon="6.49297">
        <ele>1457</ele>
        <time>2024-08-11T14:00:00Z</time>
      </trkpt>
      <trkpt lat="44.87576" lon="6.49297">
        <ele>1457</ele>
        <time>2024-08-11T14:00:01Z</time>
      </trkpt>
      <trkpt lat="44.87576" lon="6.49297">
        <ele>1457</ele>
        <time>2024-08-11T14:00:02Z</time>
      </trkpt>
      <trkpt lat="44.87576" lon="6.49297">
        <ele>1457</ele>
        <time>2024-08-11T14:00:03Z</time>
      </trkpt>
      <trkpt lat="44.87576" lon="6.49297">
        <ele>1456.6</ele>
        <time>2024-08-11T14:00:04Z</time>
      </trkpt>
      <trkpt lat="44.87576" lon="6.49297">
        <ele>1456.4</ele>
        <time>2024-08-11T14:00:05Z</time>
      </trkpt>
      <trkpt lat="44.87576" lon="6.49297">
        <ele>1456.8</ele>
        <time>2024-08-11T14:00:06Z</time>
      </trkpt>
      <trkpt lat="44.87576" lon="6.49297">
        <ele>1456.8</ele>
        <time>2024-08-11T14:00:07Z</time>
      </trkpt>
      <trkpt lat="44.87577" lon="6.49294">
        <ele>1456.6</ele>
        <time>2024-08-11T14:00:08Z</time>
      </trkpt>
      <trkpt lat="44.87577" lon="6.49294">
        <ele>1456.6</ele>
        <time>2024-08-11T14:00:09Z</time>
      </trkpt>
      <trkpt lat="44.87578" lon="6.49291">
        <ele>1456.8</ele>
        <time>2024-08-11T14:00:10Z</time>
      </trkpt>
      <trkpt lat="44.87578" lon="6.49291">
        <ele>1456.8</ele>
        <time>2024-08-11T14:00:11Z</time>
      </trkpt>
      <trkpt lat="44.87579" lon="6.49286">
        <ele>1456.6</ele>
        <time>2024-08-11T14:00:12Z</time>
      </trkpt>
      <trkpt lat="44.8758" lon="6.49284">
        <ele>1457</ele>
        <time>2024-08-11T14:00:13Z</time>
      </trkpt>
      <trkpt lat="44.8758" lon="6.49284">
        <ele>1457.2</ele>
        <time>2024-08-11T14:00:14Z</time>
      </trkpt>
      <trkpt lat="44.87581" lon="6.4928">
        <ele>1457.2</ele>
        <time>2024-08-11T14:00:15Z</time>
      </trkpt>
      <trkpt lat="44.87581" lon="6.4928">
        <ele>1457.2</ele>
        <time>2024-08-11T14:00:16Z</time>
      </trkpt>
      <trkpt lat="44.87582" lon="6.49277">
        <ele>1457</ele>
        <time>2024-08-11T14:00:17Z</time>
      </trkpt>
      <trkpt lat="44.87582" lon="6.49277">
        <ele>1457</ele>
        <time>2024-08-11T14:00:18Z</time>
      </trkpt>
      <trkpt lat="44.87584" lon="6.49274">
        <ele>1457</ele>
        <time>2024-08-11T14:00:19Z</time>
      </trkpt>
      <trkpt lat="44.87584" lon="6.49274">
        <ele>1456.8</ele>
        <time>2024-08-11T14:00:20Z</time>
      </trkpt>
      <trkpt lat="44.87586" lon="6.4927">
        <ele>1456.8</ele>
        <time>2024-08-11T14:00:21Z</time>
      </trkpt>
      <trkpt lat="44.87586" lon="6.4927">
        <ele>1457</ele>
        <time>2024-08-11T14:00:22Z</time>
      </trkpt>
      <trkpt lat="44.87587" lon="6.49267">
        <ele>1457</ele>
        <time>2024-08-11T14:00:23Z</time>
      </trkpt>
      <trkpt lat="44.87587" lon="6.49267">
        <ele>1457</ele>
        <time>2024-08-11T14:00:24Z</time>
      </trkpt>
      <trkpt lat="44.87589" lon="6.49264">
        <ele>1457.2</ele>
        <time>2024-08-11T14:00:25Z</time>
      </trkpt>
      <trkpt lat="44.87589" lon="6.49264">
        <ele>1457.2</ele>
        <time>2024-08-11T14:00:26Z</time>
      </trkpt>
      <trkpt lat="44.8759" lon="6.49262">
        <ele>1457.4</ele>
        <time>2024-08-11T14:00:27Z</time>
      </trkpt>
      <trkpt lat="44.8759" lon="6.49262">
        <ele>1457.4</ele>
        <time>2024-08-11T14:00:28Z</time>
      </trkpt>
      <trkpt lat="44.87592" lon="6.49258">
        <ele>1457.6</ele>
        <time>2024-08-11T14:00:29Z</time>
      </trkpt>
      <trkpt lat="44.87592" lon="6.49258">
        <ele>1457.6</ele>
        <time>2024-08-11T14:00:30Z</time>
      </trkpt>
      <trkpt lat="44.87593" lon="6.49255">
        <ele>1457.6</ele>
        <time>2024-08-11T14:00:31Z</time>
      </trkpt>
      <trkpt lat="44.87593" lon="6.49255">
        <ele>1457.6</ele>
        <time>2024-08-11T14:00:32Z</time>
      </trkpt>
      <trkpt lat="44.87594" lon="6.49252">
        <ele>1457.6</ele>
        <time>2024-08-11T14:00:33Z</time>
      </trkpt>
      <trkpt lat="44.87594" lon="6.49252">
        <ele>1457.4</ele>
        <time>2024-08-11T14:00:34Z</time>
      </trkpt>
      <trkpt lat="44.87595" lon="6.49249">
        <ele>1457.4</ele>
        <time>2024-08-11T14:00:35Z</time>
      </trkpt>
      <trkpt lat="44.87595" lon="6.49249">
        <ele>1457.6</ele>
        <time>2024-08-11T14:00:36Z</time>
      </trkpt>
      <trkpt lat="44.87596" lon="6.49246">
        <ele>1457.6</ele>
        <time>2024-08-11T14:00:37Z</time>
      </trkpt>
      <trkpt lat="44.87596" lon="6.49246">
        <ele>1457.4</ele>
        <time>2024-08-11T14:00:38Z</time>
      </trkpt>
      <trkpt lat="44.87596" lon="6.49242">
        <ele>1457.4</ele>
        <time>2024-08-11T14:00:39Z</time>
      </trkpt>
      <trkpt lat="44.87596" lon="6.49242">
        <ele>1457.4</ele>
        <time>2024-08-11T14:00:40Z</time>
      </trkpt>
      <trkpt lat="44.87597" lon="6.49239">
        <ele>1456.8</ele>
        <time>2024-08-11T14:00:41Z</time>
      </trkpt>
      <trkpt lat="44.87597" lon="6.49239">
        <ele>1456.8</ele>
        <time>2024-08-11T14:00:42Z</time>
      </trkpt>
      <trkpt lat="44.87597" lon="6.49239">
        <ele>1457</ele>
        <time>2024-08-11T14:00:43Z</time>
      </trkpt>
      <trkpt lat="44.87597" lon="6.49239">
        <ele>1457</ele>
        <time>2024-08-11T14:00:44Z</time>
      </trkpt>
      <trkpt lat="44.87597" lon="6.49239">
        <ele>1457.2</ele>
        <time>2024-08-11T14:00:45Z</time>
      </trkpt>
      <trkpt lat="44.87597" lon="6.49239">
        <ele>1457</ele>
        <time>2024-08-11T14:00:46Z</time>
      </trkpt>
      <trkpt lat="44.87597" lon="6.49239">
        <ele>1457</ele>
        <time>2024-08-11T14:00:47Z</time>
      </trkpt>
      <trkpt lat="44.87597" lon="6.49239">
        <ele>1457</ele>
        <time>2024-08-11T14:00:48Z</time>
      </trkpt>
      <trkpt lat="44.87597" lon="6.49239">
        <ele>1457</ele>
        <time>2024-08-11T14:00:49Z</time>
      </trkpt>
      <trkpt lat="44.87597" lon="6.49239">
        <ele>1457</ele>
        <time>2024-08-11T14:00:50Z</time>
      </trkpt>
      <trkpt lat="44.87597" lon="6.49239">
        <ele>1457</ele>
        <time>2024-08-11T14:00:51Z</time>
      </trkpt>
      <trkpt lat="44.87597" lon="6.49239">
        <ele>1457</ele>
        <time>2024-08-11T14:00:52Z</time>
      </trkpt>
      <trkpt lat="44.87597" lon="6.49239">
        <ele>1457</ele>
        <time>2024-08-11T14:00:53Z</time>
      </trkpt>
      <trkpt lat="44.87597" lon="6.49239">
        <ele>1456.8</ele>
        <time>2024-08-11T14:00:54Z</time>
      </trkpt>
      <trkpt lat="44.87597" lon="6.49239">
        <ele>1456.8</ele>
        <time>2024-08-11T14:00:55Z</time>
      </trkpt>
      <trkpt lat="44.87597" lon="6.49239">
        <ele>1456.8</ele>
        <time>2024-08-11T14:00:56Z</time>
      </trkpt>
      <trkpt lat="44.87597" lon="6.49239">
        <ele>1456.8</ele>
        <time>2024-08-11T14:00:57Z</time>
      </trkpt>
      <trkpt lat="44.87597" lon="6.49239">
        <ele>1456.8</ele>
        <time>2024-08-11T14:00:58Z</time>
      </trkpt>
      <trkpt lat="44.87597" lon="6.49239">
        <ele>1456.8</ele>
        <time>2024-08-11T14:00:59Z</time>
      </trkpt>
      <trkpt lat="44.87597" lon="6.49239">
        <ele>1456.8</ele>
        <time>2024-08-11T14:01:00Z</time>
      </trkpt>
      <trkpt lat="44.87597" lon="6.49239">
        <ele>1456.8</ele>
        <time>2024-08-11T14:01:01Z</time>
      </trkpt>
      <trkpt lat="44.87597" lon="6.49236">
        <ele>1456.6</ele>
        <time>2024-08-11T14:01:02Z</time>
      </trkpt>
      <trkpt lat="44.87597" lon="6.49236">
        <ele>1456.4</ele>
        <time>2024-08-11T14:01:03Z</time>
      </trkpt>
      <trkpt lat="44.87597" lon="6.49232">
        <ele>1456.4</ele>
        <time>2024-08-11T14:01:04Z</time>
      </trkpt>
      <trkpt lat="44.87597" lon="6.49232">
        <ele>1456.4</ele>
        <time>2024-08-11T14:01:05Z</time>
      </trkpt>
      <trkpt lat="44.87597" lon="6.49227">
        <ele>1456.2</ele>
        <time>2024-08-11T14:01:06Z</time>
      </trkpt>
      <trkpt lat="44.87597" lon="6.49227">
        <ele>1456.2</ele>
        <time>2024-08-11T14:01:07Z</time>
      </trkpt>
      <trkpt lat="44.87597" lon="6.49223">
        <ele>1456.2</ele>
        <time>2024-08-11T14:01:08Z</time>
      </trkpt>
      <trkpt lat="44.87597" lon="6.49223">
        <ele>1456.2</ele>
        <time>2024-08-11T14:01:09Z</time>
      </trkpt>
      <trkpt lat="44.87598" lon="6.4922">
        <ele>1456.2</ele>
        <time>2024-08-11T14:01:10Z</time>
      </trkpt>
      <trkpt lat="44.87598" lon="6.4922">
        <ele>1456</ele>
        <time>2024-08-11T14:01:11Z</time>
      </trkpt>
      <trkpt lat="44.87598" lon="6.4922">
        <ele>1456</ele>
        <time>2024-08-11T14:01:12Z</time>
      </trkpt>
      <trkpt lat="44.87598" lon="6.4922">
        <ele>1456.2</ele>
        <time>2024-08-11T14:01:13Z</time>
      </trkpt>
      <trkpt lat="44.87598" lon="6.4922">
        <ele>1456.4</ele>
        <time>2024-08-11T14:01:14Z</time>
      </trkpt>
      <trkpt lat="44.87598" lon="6.4922">
        <ele>1456.4</ele>
        <time>2024-08-11T14:01:15Z</time>
      </trkpt>
      <trkpt lat="44.87598" lon="6.4922">
        <ele>1456.4</ele>
        <time>2024-08-11T14:01:16Z</time>
      </trkpt>
      <trkpt lat="44.87598" lon="6.4922">
        <ele>1456.4</ele>
        <time>2024-08-11T14:01:17Z</time>
      </trkpt>
      <trkpt lat="44.87598" lon="6.4922">
        <ele>1456.4</ele>
        <time>2024-08-11T14:01:18Z</time>
      </trkpt>
      <trkpt lat="44.87599" lon="6.49216">
        <ele>1456.4</ele>
        <time>2024-08-11T14:01:19Z</time>
      </trkpt>
      <trkpt lat="44.87599" lon="6.49216">
        <ele>1456.2</ele>
        <time>2024-08-11T14:01:20Z</time>
      </trkpt>
      <trkpt lat="44.87599" lon="6.49213">
        <ele>1456.6</ele>
        <time>2024-08-11T14:01:21Z</time>
      </trkpt>
      <trkpt lat="44.87598" lon="6.4921">
        <ele>1456.8</ele>
        <time>2024-08-11T14:01:22Z</time>
      </trkpt>
      <trkpt lat="44.87598" lon="6.4921">
        <ele>1456.8</ele>
        <time>2024-08-11T14:01:23Z</time>
      </trkpt>
      <trkpt lat="44.87598" lon="6.49206">
        <ele>1456.8</ele>
        <time>2024-08-11T14:01:24Z</time>
      </trkpt>
      <trkpt lat="44.87598" lon="6.49206">
        <ele>1456.8</ele>
        <time>2024-08-11T14:01:25Z</time>
      </trkpt>
      <trkpt lat="44.87597" lon="6.49202">
        <ele>1456.8</ele>
        <time>2024-08-11T14:01:26Z</time>
      </trkpt>
      <trkpt lat="44.87597" lon="6.49202">
        <ele>1456.8</ele>
        <time>2024-08-11T14:01:27Z</time>
      </trkpt>
      <trkpt lat="44.87596" lon="6.49199">
        <ele>1456.6</ele>
        <time>2024-08-11T14:01:28Z</time>
      </trkpt>
      <trkpt lat="44.87596" lon="6.49199">
        <ele>1456.8</ele>
        <time>2024-08-11T14:01:29Z</time>
      </trkpt>
      <trkpt lat="44.87595" lon="6.49196">
        <ele>1457</ele>
        <time>2024-08-11T14:01:30Z</time>
      </trkpt>
      <trkpt lat="44.87595" lon="6.49196">
        <ele>1457</ele>
        <time>2024-08-11T14:01:31Z</time>
      </trkpt>
      <trkpt lat="44.87596" lon="6.49192">
        <ele>1457</ele>
        <time>2024-08-11T14:01:32Z</time>
      </trkpt>
      <trkpt lat="44.87596" lon="6.49192">
        <ele>1457</ele>
        <time>2024-08-11T14:01:33Z</time>
      </trkpt>
      <trkpt lat="44.87595" lon="6.49189">
        <ele>1457</ele>
        <time>2024-08-11T14:01:34Z</time>
      </trkpt>
      <trkpt lat="44.87595" lon="6.49189">
        <ele>1457.2</ele>
        <time>2024-08-11T14:01:35Z</time>
      </trkpt>
      <trkpt lat="44.87595" lon="6.49186">
        <ele>1457.2</ele>
        <time>2024-08-11T14:01:36Z</time>
      </trkpt>
      <trkpt lat="44.87595" lon="6.49186">
        <ele>1457.2</ele>
        <time>2024-08-11T14:01:37Z</time>
      </trkpt>
      <trkpt lat="44.87595" lon="6.49186">
        <ele>1457.2</ele>
        <time>2024-08-11T14:01:38Z</time>
      </trkpt>
      <trkpt lat="44.87595" lon="6.49186">
        <ele>1457.2</ele>
        <time>2024-08-11T14:01:39Z</time>
      </trkpt>
      <trkpt lat="44.87595" lon="6.49186">
        <ele>1457.4</ele>
        <time>2024-08-11T14:01:40Z</time>
      </trkpt>
      <trkpt lat="44.87595" lon="6.49186">
        <ele>1457.4</ele>
        <time>2024-08-11T14:01:41Z</time>
      </trkpt>
      <trkpt lat="44.87595" lon="6.49186">
        <ele>1457.4</ele>
        <time>2024-08-11T14:01:42Z</time>
      </trkpt>
      <trkpt lat="44.87595" lon="6.49186">
        <ele>1457.4</ele>
        <time>2024-08-11T14:01:43Z</time>
      </trkpt>
      <trkpt lat="44.87595" lon="6.49186">
        <ele>1457.4</ele>
        <time>2024-08-11T14:01:44Z</time>
      </trkpt>
      <trkpt lat="44.87595" lon="6.49186">
        <ele>1457.2</ele>
        <time>2024-08-11T14:01:45Z</time>
      </trkpt>
      <trkpt lat="44.87595" lon="6.49186">
        <ele>1457</ele>
        <time>2024-08-11T14:01:46Z</time>
      </trkpt>
      <trkpt lat="44.87595" lon="6.49186">
        <ele>1456.8</ele>
        <time>2024-08-11T14:01:47Z</time>
      </trkpt>
      <trkpt lat="44.87595" lon="6.49186">
        <ele>1456.8</ele>
        <time>2024-08-11T14:01:48Z</time>
      </trkpt>
      <trkpt lat="44.87595" lon="6.49186">
        <ele>1457</ele>
        <time>2024-08-11T14:01:49Z</time>
      </trkpt>
      <trkpt lat="44.87595" lon="6.49186">
        <ele>1457</ele>
        <time>2024-08-11T14:01:50Z</time>
      </trkpt>
      <trkpt lat="44.87595" lon="6.49186">
        <ele>1457</ele>
        <time>2024-08-11T14:01:51Z</time>
      </trkpt>
      <trkpt lat="44.87595" lon="6.49186">
        <ele>1457</ele>
        <time>2024-08-11T14:01:52Z</time>
      </trkpt>
      <trkpt lat="44.87595" lon="6.49186">
        <ele>1457</ele>
        <time>2024-08-11T14:01:53Z</time>
      </trkpt>
      <trkpt lat="44.87595" lon="6.49186">
        <ele>1456.8</ele>
        <time>2024-08-11T14:01:54Z</time>
      </trkpt>
      <trkpt lat="44.87595" lon="6.49186">
        <ele>1456.8</ele>
        <time>2024-08-11T14:01:55Z</time>
      </trkpt>
      <trkpt lat="44.87595" lon="6.49186">
        <ele>1456.8</ele>
        <time>2024-08-11T14:01:56Z</time>
      </trkpt>
      <trkpt lat="44.87595" lon="6.49186">
        <ele>1456.8</ele>
        <time>2024-08-11T14:01:57Z</time>
      </trkpt>
      <trkpt lat="44.87595" lon="6.49186">
        <ele>1456.8</ele>
        <time>2024-08-11T14:01:58Z</time>
      </trkpt>
      <trkpt lat="44.87595" lon="6.49186">
        <ele>1456.8</ele>
        <time>2024-08-11T14:01:59Z</time>
      </trkpt>
      <trkpt lat="44.87594" lon="6.49184">
        <ele>1456.8</ele>
        <time>2024-08-11T14:02:00Z</time>
      </trkpt>
      <trkpt lat="44.87594" lon="6.49184">
        <ele>1456.8</ele>
        <time>2024-08-11T14:02:01Z</time>
      </trkpt>
      <trkpt lat="44.87593" lon="6.49179">
        <ele>1456.6</ele>
        <time>2024-08-11T14:02:02Z</time>
      </trkpt>
      <trkpt lat="44.87592" lon="6.49176">
        <ele>1456.4</ele>
        <time>2024-08-11T14:02:03Z</time>
      </trkpt>
      <trkpt lat="44.87592" lon="6.49173">
        <ele>1456.6</ele>
        <time>2024-08-11T14:02:04Z</time>
      </trkpt>
      <trkpt lat="44.87592" lon="6.49169">
        <ele>1456.6</ele>
        <time>2024-08-11T14:02:05Z</time>
      </trkpt>
      <trkpt lat="44.87592" lon="6.49168">
        <ele>1456.6</ele>
        <time>2024-08-11T14:02:06Z</time>
      </trkpt>
      <trkpt lat="44.87592" lon="6.49167">
        <ele>1456.6</ele>
        <time>2024-08-11T14:02:07Z</time>
      </trkpt>
      <trkpt lat="44.87592" lon="6.49167">
        <ele>1456.8</ele>
        <time>2024-08-11T14:02:08Z</time>
      </trkpt>
      <trkpt lat="44.87594" lon="6.49164">
        <ele>1457</ele>
        <time>2024-08-11T14:02:09Z</time>
      </trkpt>
      <trkpt lat="44.87594" lon="6.49164">
        <ele>1457.2</ele>
        <time>2024-08-11T14:02:10Z</time>
      </trkpt>
      <trkpt lat="44.87596" lon="6.49161">
        <ele>1457.2</ele>
        <time>2024-08-11T14:02:11Z</time>
      </trkpt>
      <trkpt lat="44.87596" lon="6.49161">
        <ele>1457.4</ele>
        <time>2024-08-11T14:02:12Z</time>
      </trkpt>
      <trkpt lat="44.87599" lon="6.4916">
        <ele>1457.4</ele>
        <time>2024-08-11T14:02:13Z</time>
      </trkpt>
      <trkpt lat="44.87599" lon="6.4916">
        <ele>1457.4</ele>
        <time>2024-08-11T14:02:14Z</time>
      </trkpt>
      <trkpt lat="44.87602" lon="6.49158">
        <ele>1457.4</ele>
        <time>2024-08-11T14:02:15Z</time>
      </trkpt>
      <trkpt lat="44.87602" lon="6.49158">
        <ele>1457.8</ele>
        <time>2024-08-11T14:02:16Z</time>
      </trkpt>
      <trkpt lat="44.87604" lon="6.49157">
        <ele>1457.8</ele>
        <time>2024-08-11T14:02:17Z</time>
      </trkpt>
      <trkpt lat="44.87604" lon="6.49157">
        <ele>1457.8</ele>
        <time>2024-08-11T14:02:18Z</time>
      </trkpt>
      <trkpt lat="44.87606" lon="6.49156">
        <ele>1458</ele>
        <time>2024-08-11T14:02:19Z</time>
      </trkpt>
      <trkpt lat="44.87606" lon="6.49156">
        <ele>1458.2</ele>
        <time>2024-08-11T14:02:20Z</time>
      </trkpt>
      <trkpt lat="44.87608" lon="6.49155">
        <ele>1458.2</ele>
        <time>2024-08-11T14:02:21Z</time>
      </trkpt>
      <trkpt lat="44.87608" lon="6.49155">
        <ele>1458.2</ele>
        <time>2024-08-11T14:02:22Z</time>
      </trkpt>
      <trkpt lat="44.87611" lon="6.49154">
        <ele>1458.2</ele>
        <time>2024-08-11T14:02:23Z</time>
      </trkpt>
      <trkpt lat="44.87611" lon="6.49154">
        <ele>1458</ele>
        <time>2024-08-11T14:02:24Z</time>
      </trkpt>
      <trkpt lat="44.87613" lon="6.49154">
        <ele>1457.8</ele>
        <time>2024-08-11T14:02:25Z</time>
      </trkpt>
      <trkpt lat="44.87613" lon="6.49154">
        <ele>1457.8</ele>
        <time>2024-08-11T14:02:26Z</time>
      </trkpt>
      <trkpt lat="44.87616" lon="6.49154">
        <ele>1457.8</ele>
        <time>2024-08-11T14:02:27Z</time>
      </trkpt>
      <trkpt lat="44.87616" lon="6.49154">
        <ele>1457.8</ele>
        <time>2024-08-11T14:02:28Z</time>
      </trkpt>
      <trkpt lat="44.87619" lon="6.49154">
        <ele>1457.8</ele>
        <time>2024-08-11T14:02:29Z</time>
      </trkpt>
      <trkpt lat="44.87619" lon="6.49154">
        <ele>1457.8</ele>
        <time>2024-08-11T14:02:30Z</time>
      </trkpt>
      <trkpt lat="44.87621" lon="6.49155">
        <ele>1457.8</ele>
        <time>2024-08-11T14:02:31Z</time>
      </trkpt>
      <trkpt lat="44.87621" lon="6.49155">
        <ele>1457.8</ele>
        <time>2024-08-11T14:02:32Z</time>
      </trkpt>
      <trkpt lat="44.87624" lon="6.49155">
        <ele>1458</ele>
        <time>2024-08-11T14:02:33Z</time>
      </trkpt>
      <trkpt lat="44.87624" lon="6.49155">
        <ele>1458</ele>
        <time>2024-08-11T14:02:34Z</time>
      </trkpt>
      <trkpt lat="44.87624" lon="6.49155">
        <ele>1458</ele>
        <time>2024-08-11T14:02:35Z</time>
      </trkpt>
      <trkpt lat="44.87626" lon="6.49154">
        <ele>1458</ele>
        <time>2024-08-11T14:02:36Z</time>
      </trkpt>
      <trkpt lat="44.87626" lon="6.49154">
        <ele>1458</ele>
        <time>2024-08-11T14:02:37Z</time>
      </trkpt>
      <trkpt lat="44.87626" lon="6.49154">
        <ele>1458</ele>
        <time>2024-08-11T14:02:38Z</time>
      </trkpt>
      <trkpt lat="44.87626" lon="6.49154">
        <ele>1458</ele>
        <time>2024-08-11T14:02:39Z</time>
      </trkpt>
      <trkpt lat="44.87626" lon="6.49157">
        <ele>1458</ele>
        <time>2024-08-11T14:02:40Z</time>
      </trkpt>
      <trkpt lat="44.87626" lon="6.49157">
        <ele>1458</ele>
        <time>2024-08-11T14:02:41Z</time>
      </trkpt>
      <trkpt lat="44.87624" lon="6.49159">
        <ele>1458</ele>
        <time>2024-08-11T14:02:42Z</time>
      </trkpt>
      <trkpt lat="44.87624" lon="6.49159">
        <ele>1458</ele>
        <time>2024-08-11T14:02:43Z</time>
      </trkpt>
      <trkpt lat="44.87624" lon="6.49159">
        <ele>1458</ele>
        <time>2024-08-11T14:02:44Z</time>
      </trkpt>
      <trkpt lat="44.87624" lon="6.49159">
        <ele>1457.8</ele>
        <time>2024-08-11T14:02:45Z</time>
      </trkpt>
      <trkpt lat="44.87624" lon="6.49159">
        <ele>1457.8</ele>
        <time>2024-08-11T14:02:46Z</time>
      </trkpt>
      <trkpt lat="44.87624" lon="6.49159">
        <ele>1458</ele>
        <time>2024-08-11T14:02:47Z</time>
      </trkpt>
      <trkpt lat="44.87624" lon="6.49159">
        <ele>1458</ele>
        <time>2024-08-11T14:02:48Z</time>
      </trkpt>
      <trkpt lat="44.87624" lon="6.49159">
        <ele>1458</ele>
        <time>2024-08-11T14:02:49Z</time>
      </trkpt>
      <trkpt lat="44.87624" lon="6.49159">
        <ele>1458</ele>
        <time>2024-08-11T14:02:50Z</time>
      </trkpt>
      <trkpt lat="44.87624" lon="6.49159">
        <ele>1458</ele>
        <time>2024-08-11T14:02:51Z</time>
      </trkpt>
      <trkpt lat="44.87626" lon="6.4916">
        <ele>1458</ele>
        <time>2024-08-11T14:02:52Z</time>
      </trkpt>
      <trkpt lat="44.87626" lon="6.4916">
        <ele>1458</ele>
        <time>2024-08-11T14:02:53Z</time>
      </trkpt>
      <trkpt lat="44.87629" lon="6.4916">
        <ele>1458</ele>
        <time>2024-08-11T14:02:54Z</time>
      </trkpt>
      <trkpt lat="44.8763" lon="6.49158">
        <ele>1458</ele>
        <time>2024-08-11T14:02:55Z</time>
      </trkpt>
      <trkpt lat="44.8763" lon="6.49158">
        <ele>1458</ele>
        <time>2024-08-11T14:02:56Z</time>
      </trkpt>
      <trkpt lat="44.87634" lon="6.49157">
        <ele>1457.8</ele>
        <time>2024-08-11T14:02:57Z</time>
      </trkpt>
      <trkpt lat="44.87634" lon="6.49157">
        <ele>1457.8</ele>
        <time>2024-08-11T14:02:58Z</time>
      </trkpt>
      <trkpt lat="44.87637" lon="6.49156">
        <ele>1457.8</ele>
        <time>2024-08-11T14:02:59Z</time>
      </trkpt>
      <trkpt lat="44.87637" lon="6.49156">
        <ele>1457.8</ele>
        <time>2024-08-11T14:03:00Z</time>
      </trkpt>
      <trkpt lat="44.87638" lon="6.49153">
        <ele>1457.8</ele>
        <time>2024-08-11T14:03:01Z</time>
      </trkpt>
      <trkpt lat="44.87638" lon="6.49153">
        <ele>1457.8</ele>
        <time>2024-08-11T14:03:02Z</time>
      </trkpt>
      <trkpt lat="44.87638" lon="6.49153">
        <ele>1457.8</ele>
        <time>2024-08-11T14:03:03Z</time>
      </trkpt>
      <trkpt lat="44.87638" lon="6.49153">
        <ele>1457.8</ele>
        <time>2024-08-11T14:03:04Z</time>
      </trkpt>
      <trkpt lat="44.87638" lon="6.49153">
        <ele>1457.8</ele>
        <time>2024-08-11T14:03:05Z</time>
      </trkpt>
      <trkpt lat="44.87639" lon="6.49151">
        <ele>1457.8</ele>
        <time>2024-08-11T14:03:06Z</time>
      </trkpt>
      <trkpt lat="44.87639" lon="6.49151">
        <ele>1458</ele>
        <time>2024-08-11T14:03:07Z</time>
      </trkpt>
      <trkpt lat="44.87639" lon="6.49151">
        <ele>1457.8</ele>
        <time>2024-08-11T14:03:08Z</time>
      </trkpt>
      <trkpt lat="44.87641" lon="6.4915">
        <ele>1457.8</ele>
        <time>2024-08-11T14:03:09Z</time>
      </trkpt>
      <trkpt lat="44.87641" lon="6.4915">
        <ele>1457.8</ele>
        <time>2024-08-11T14:03:10Z</time>
      </trkpt>
      <trkpt lat="44.87643" lon="6.49148">
        <ele>1457.8</ele>
        <time>2024-08-11T14:03:11Z</time>
      </trkpt>
      <trkpt lat="44.87643" lon="6.49148">
        <ele>1457.8</ele>
        <time>2024-08-11T14:03:12Z</time>
      </trkpt>
      <trkpt lat="44.87645" lon="6.49146">
        <ele>1457.8</ele>
        <time>2024-08-11T14:03:13Z</time>
      </trkpt>
      <trkpt lat="44.87645" lon="6.49146">
        <ele>1457.8</ele>
        <time>2024-08-11T14:03:14Z</time>
      </trkpt>
      <trkpt lat="44.87645" lon="6.49143">
        <ele>1457.6</ele>
        <time>2024-08-11T14:03:15Z</time>
      </trkpt>
      <trkpt lat="44.87645" lon="6.49143">
        <ele>1457.8</ele>
        <time>2024-08-11T14:03:16Z</time>
      </trkpt>
      <trkpt lat="44.87647" lon="6.49139">
        <ele>1457.8</ele>
        <time>2024-08-11T14:03:17Z</time>
      </trkpt>
      <trkpt lat="44.87647" lon="6.49139">
        <ele>1457.8</ele>
        <time>2024-08-11T14:03:18Z</time>
      </trkpt>
      <trkpt lat="44.87648" lon="6.49135">
        <ele>1457.8</ele>
        <time>2024-08-11T14:03:19Z</time>
      </trkpt>
      <trkpt lat="44.87648" lon="6.49135">
        <ele>1458</ele>
        <time>2024-08-11T14:03:20Z</time>
      </trkpt>
      <trkpt lat="44.8765" lon="6.49132">
        <ele>1458</ele>
        <time>2024-08-11T14:03:21Z</time>
      </trkpt>
      <trkpt lat="44.8765" lon="6.49132">
        <ele>1458.2</ele>
        <time>2024-08-11T14:03:22Z</time>
      </trkpt>
      <trkpt lat="44.87652" lon="6.4913">
        <ele>1458.4</ele>
        <time>2024-08-11T14:03:23Z</time>
      </trkpt>
      <trkpt lat="44.87652" lon="6.4913">
        <ele>1458.2</ele>
        <time>2024-08-11T14:03:24Z</time>
      </trkpt>
      <trkpt lat="44.87654" lon="6.49127">
        <ele>1458.4</ele>
        <time>2024-08-11T14:03:25Z</time>
      </trkpt>
      <trkpt lat="44.87655" lon="6.49126">
        <ele>1458.4</ele>
        <time>2024-08-11T14:03:26Z</time>
      </trkpt>
      <trkpt lat="44.87655" lon="6.49126">
        <ele>1458.4</ele>
        <time>2024-08-11T14:03:27Z</time>
      </trkpt>
      <trkpt lat="44.87657" lon="6.49124">
        <ele>1458.4</ele>
        <time>2024-08-11T14:03:28Z</time>
      </trkpt>
      <trkpt lat="44.87657" lon="6.49124">
        <ele>1458.6</ele>
        <time>2024-08-11T14:03:29Z</time>
      </trkpt>
      <trkpt lat="44.8766" lon="6.49122">
        <ele>1458.6</ele>
        <time>2024-08-11T14:03:30Z</time>
      </trkpt>
      <trkpt lat="44.87661" lon="6.4912">
        <ele>1458.6</ele>
        <time>2024-08-11T14:03:31Z</time>
      </trkpt>
      <trkpt lat="44.87661" lon="6.4912">
        <ele>1458.8</ele>
        <time>2024-08-11T14:03:32Z</time>
      </trkpt>
      <trkpt lat="44.87662" lon="6.49118">
        <ele>1458.6</ele>
        <time>2024-08-11T14:03:33Z</time>
      </trkpt>
      <trkpt lat="44.87662" lon="6.49118">
        <ele>1458.6</ele>
        <time>2024-08-11T14:03:34Z</time>
      </trkpt>
      <trkpt lat="44.87665" lon="6.49116">
        <ele>1458.4</ele>
        <time>2024-08-11T14:03:35Z</time>
      </trkpt>
      <trkpt lat="44.87666" lon="6.49115">
        <ele>1458.4</ele>
        <time>2024-08-11T14:03:36Z</time>
      </trkpt>
      <trkpt lat="44.87666" lon="6.49115">
        <ele>1458.4</ele>
        <time>2024-08-11T14:03:37Z</time>
      </trkpt>
      <trkpt lat="44.87669" lon="6.49112">
        <ele>1458.6</ele>
        <time>2024-08-11T14:03:38Z</time>
      </trkpt>
      <trkpt lat="44.87669" lon="6.49112">
        <ele>1458.6</ele>
        <time>2024-08-11T14:03:39Z</time>
      </trkpt>
      <trkpt lat="44.87672" lon="6.49111">
        <ele>1458.6</ele>
        <time>2024-08-11T14:03:40Z</time>
      </trkpt>
      <trkpt lat="44.87674" lon="6.49111">
        <ele>1458.6</ele>
        <time>2024-08-11T14:03:41Z</time>
      </trkpt>
      <trkpt lat="44.87674" lon="6.49111">
        <ele>1458.6</ele>
        <time>2024-08-11T14:03:42Z</time>
      </trkpt>
      <trkpt lat="44.87676" lon="6.4911">
        <ele>1458.6</ele>
        <time>2024-08-11T14:03:43Z</time>
      </trkpt>
      <trkpt lat="44.87676" lon="6.4911">
        <ele>1458.6</ele>
        <time>2024-08-11T14:03:44Z</time>
      </trkpt>
      <trkpt lat="44.87678" lon="6.49108">
        <ele>1458.8</ele>
        <time>2024-08-11T14:03:45Z</time>
      </trkpt>
      <trkpt lat="44.87678" lon="6.49108">
        <ele>1458.8</ele>
        <time>2024-08-11T14:03:46Z</time>
      </trkpt>
      <trkpt lat="44.8768" lon="6.49106">
        <ele>1458.8</ele>
        <time>2024-08-11T14:03:47Z</time>
      </trkpt>
      <trkpt lat="44.8768" lon="6.49106">
        <ele>1459</ele>
        <time>2024-08-11T14:03:48Z</time>
      </trkpt>
      <trkpt lat="44.87682" lon="6.49105">
        <ele>1459</ele>
        <time>2024-08-11T14:03:49Z</time>
      </trkpt>
      <trkpt lat="44.87682" lon="6.49105">
        <ele>1459</ele>
        <time>2024-08-11T14:03:50Z</time>
      </trkpt>
      <trkpt lat="44.87685" lon="6.49103">
        <ele>1459.2</ele>
        <time>2024-08-11T14:03:51Z</time>
      </trkpt>
      <trkpt lat="44.87685" lon="6.49103">
        <ele>1459.2</ele>
        <time>2024-08-11T14:03:52Z</time>
      </trkpt>
      <trkpt lat="44.87687" lon="6.49101">
        <ele>1459.2</ele>
        <time>2024-08-11T14:03:53Z</time>
      </trkpt>
      <trkpt lat="44.87687" lon="6.49101">
        <ele>1459.4</ele>
        <time>2024-08-11T14:03:54Z</time>
      </trkpt>
      <trkpt lat="44.87687" lon="6.49101">
        <ele>1459.4</ele>
        <time>2024-08-11T14:03:55Z</time>
      </trkpt>
      <trkpt lat="44.8769" lon="6.49099">
        <ele>1459.2</ele>
        <time>2024-08-11T14:03:56Z</time>
      </trkpt>
      <trkpt lat="44.8769" lon="6.49099">
        <ele>1459.2</ele>
        <time>2024-08-11T14:03:57Z</time>
      </trkpt>
      <trkpt lat="44.87692" lon="6.49098">
        <ele>1459.2</ele>
        <time>2024-08-11T14:03:58Z</time>
      </trkpt>
      <trkpt lat="44.87692" lon="6.49098">
        <ele>1459.2</ele>
        <time>2024-08-11T14:03:59Z</time>
      </trkpt>
      <trkpt lat="44.87694" lon="6.49096">
        <ele>1459.2</ele>
        <time>2024-08-11T14:04:00Z</time>
      </trkpt>
      <trkpt lat="44.87695" lon="6.49095">
        <ele>1459.4</ele>
        <time>2024-08-11T14:04:01Z</time>
      </trkpt>
      <trkpt lat="44.87695" lon="6.49095">
        <ele>1459.4</ele>
        <time>2024-08-11T14:04:02Z</time>
      </trkpt>
      <trkpt lat="44.87698" lon="6.49093">
        <ele>1459.4</ele>
        <time>2024-08-11T14:04:03Z</time>
      </trkpt>
      <trkpt lat="44.87698" lon="6.49093">
        <ele>1459.2</ele>
        <time>2024-08-11T14:04:04Z</time>
      </trkpt>
      <trkpt lat="44.87701" lon="6.49091">
        <ele>1459</ele>
        <time>2024-08-11T14:04:05Z</time>
      </trkpt>
      <trkpt lat="44.87701" lon="6.49091">
        <ele>1459</ele>
        <time>2024-08-11T14:04:06Z</time>
      </trkpt>
      <trkpt lat="44.87703" lon="6.4909">
        <ele>1459.2</ele>
        <time>2024-08-11T14:04:07Z</time>
      </trkpt>
      <trkpt lat="44.87703" lon="6.4909">
        <ele>1459.2</ele>
        <time>2024-08-11T14:04:08Z</time>
      </trkpt>
      <trkpt lat="44.87705" lon="6.49088">
        <ele>1459.2</ele>
        <time>2024-08-11T14:04:09Z</time>
      </trkpt>
      <trkpt lat="44.87705" lon="6.49088">
        <ele>1459.2</ele>
        <time>2024-08-11T14:04:10Z</time>
      </trkpt>
      <trkpt lat="44.87705" lon="6.49088">
        <ele>1459.2</ele>
        <time>2024-08-11T14:04:11Z</time>
      </trkpt>
      <trkpt lat="44.87708" lon="6.49085">
        <ele>1459.4</ele>
        <time>2024-08-11T14:04:12Z</time>
      </trkpt>
      <trkpt lat="44.87708" lon="6.49085">
        <ele>1459.6</ele>
        <time>2024-08-11T14:04:13Z</time>
      </trkpt>
      <trkpt lat="44.87709" lon="6.49083">
        <ele>1459.6</ele>
        <time>2024-08-11T14:04:14Z</time>
      </trkpt>
      <trkpt lat="44.87709" lon="6.49083">
        <ele>1459.6</ele>
        <time>2024-08-11T14:04:15Z</time>
      </trkpt>
      <trkpt lat="44.8771" lon="6.49079">
        <ele>1459.4</ele>
        <time>2024-08-11T14:04:16Z</time>
      </trkpt>
      <trkpt lat="44.8771" lon="6.49079">
        <ele>1459.4</ele>
        <time>2024-08-11T14:04:17Z</time>
      </trkpt>
      <trkpt lat="44.87712" lon="6.49075">
        <ele>1459.4</ele>
        <time>2024-08-11T14:04:18Z</time>
      </trkpt>
      <trkpt lat="44.87712" lon="6.49075">
        <ele>1459.6</ele>
        <time>2024-08-11T14:04:19Z</time>
      </trkpt>
      <trkpt lat="44.87714" lon="6.49073">
        <ele>1459.6</ele>
        <time>2024-08-11T14:04:20Z</time>
      </trkpt>
      <trkpt lat="44.87714" lon="6.49073">
        <ele>1459.6</ele>
        <time>2024-08-11T14:04:21Z</time>
      </trkpt>
      <trkpt lat="44.87714" lon="6.49073">
        <ele>1459.4</ele>
        <time>2024-08-11T14:04:22Z</time>
      </trkpt>
      <trkpt lat="44.87714" lon="6.49073">
        <ele>1459.6</ele>
        <time>2024-08-11T14:04:23Z</time>
      </trkpt>
      <trkpt lat="44.87714" lon="6.49073">
        <ele>1459.8</ele>
        <time>2024-08-11T14:04:24Z</time>
      </trkpt>
      <trkpt lat="44.87714" lon="6.49073">
        <ele>1459.8</ele>
        <time>2024-08-11T14:04:25Z</time>
      </trkpt>
      <trkpt lat="44.87714" lon="6.49073">
        <ele>1459.8</ele>
        <time>2024-08-11T14:04:26Z</time>
      </trkpt>
      <trkpt lat="44.87714" lon="6.49073">
        <ele>1460</ele>
        <time>2024-08-11T14:04:27Z</time>
      </trkpt>
      <trkpt lat="44.87714" lon="6.49073">
        <ele>1460</ele>
        <time>2024-08-11T14:04:28Z</time>
      </trkpt>
      <trkpt lat="44.87714" lon="6.49073">
        <ele>1460.2</ele>
        <time>2024-08-11T14:04:29Z</time>
      </trkpt>
      <trkpt lat="44.87714" lon="6.49073">
        <ele>1460.2</ele>
        <time>2024-08-11T14:04:30Z</time>
      </trkpt>
      <trkpt lat="44.87714" lon="6.49073">
        <ele>1460.2</ele>
        <time>2024-08-11T14:04:31Z</time>
      </trkpt>
      <trkpt lat="44.87714" lon="6.49073">
        <ele>1460.2</ele>
        <time>2024-08-11T14:04:32Z</time>
      </trkpt>
      <trkpt lat="44.87714" lon="6.49073">
        <ele>1459.8</ele>
        <time>2024-08-11T14:04:33Z</time>
      </trkpt>
      <trkpt lat="44.87714" lon="6.49073">
        <ele>1459.8</ele>
        <time>2024-08-11T14:04:34Z</time>
      </trkpt>
      <trkpt lat="44.87714" lon="6.49073">
        <ele>1459.8</ele>
        <time>2024-08-11T14:04:35Z</time>
      </trkpt>
      <trkpt lat="44.87714" lon="6.49073">
        <ele>1459.8</ele>
        <time>2024-08-11T14:04:36Z</time>
      </trkpt>
      <trkpt lat="44.87714" lon="6.49073">
        <ele>1459.8</ele>
        <time>2024-08-11T14:04:37Z</time>
      </trkpt>
      <trkpt lat="44.87714" lon="6.49073">
        <ele>1459.8</ele>
        <time>2024-08-11T14:04:38Z</time>
      </trkpt>
      <trkpt lat="44.87714" lon="6.49073">
        <ele>1459.6</ele>
        <time>2024-08-11T14:04:39Z</time>
      </trkpt>
      <trkpt lat="44.87714" lon="6.49073">
        <ele>1459.6</ele>
        <time>2024-08-11T14:04:40Z</time>
      </trkpt>
      <trkpt lat="44.87714" lon="6.49073">
        <ele>1459.6</ele>
        <time>2024-08-11T14:04:41Z</time>
      </trkpt>
      <trkpt lat="44.87714" lon="6.49073">
        <ele>1459.6</ele>
        <time>2024-08-11T14:04:42Z</time>
      </trkpt>
      <trkpt lat="44.87714" lon="6.49073">
        <ele>1459.8</ele>
        <time>2024-08-11T14:04:43Z</time>
      </trkpt>
      <trkpt lat="44.87715" lon="6.4907">
        <ele>1459.8</ele>
        <time>2024-08-11T14:04:44Z</time>
      </trkpt>
      <trkpt lat="44.87715" lon="6.4907">
        <ele>1459.8</ele>
        <time>2024-08-11T14:04:45Z</time>
      </trkpt>
      <trkpt lat="44.87717" lon="6.49066">
        <ele>1459.4</ele>
        <time>2024-08-11T14:04:46Z</time>
      </trkpt>
      <trkpt lat="44.87717" lon="6.49066">
        <ele>1459.4</ele>
        <time>2024-08-11T14:04:47Z</time>
      </trkpt>
      <trkpt lat="44.87719" lon="6.49063">
        <ele>1459.4</ele>
        <time>2024-08-11T14:04:48Z</time>
      </trkpt>
      <trkpt lat="44.87719" lon="6.49063">
        <ele>1459.2</ele>
        <time>2024-08-11T14:04:49Z</time>
      </trkpt>
      <trkpt lat="44.87722" lon="6.49061">
        <ele>1459.2</ele>
        <time>2024-08-11T14:04:50Z</time>
      </trkpt>
      <trkpt lat="44.87722" lon="6.49061">
        <ele>1459.4</ele>
        <time>2024-08-11T14:04:51Z</time>
      </trkpt>
      <trkpt lat="44.87724" lon="6.49059">
        <ele>1459.4</ele>
        <time>2024-08-11T14:04:52Z</time>
      </trkpt>
      <trkpt lat="44.87724" lon="6.49059">
        <ele>1459.6</ele>
        <time>2024-08-11T14:04:53Z</time>
      </trkpt>
      <trkpt lat="44.87727" lon="6.49057">
        <ele>1459.6</ele>
        <time>2024-08-11T14:04:54Z</time>
      </trkpt>
      <trkpt lat="44.87727" lon="6.49057">
        <ele>1459.6</ele>
        <time>2024-08-11T14:04:55Z</time>
      </trkpt>
      <trkpt lat="44.87729" lon="6.49056">
        <ele>1459.8</ele>
        <time>2024-08-11T14:04:56Z</time>
      </trkpt>
      <trkpt lat="44.87729" lon="6.49056">
        <ele>1460</ele>
        <time>2024-08-11T14:04:57Z</time>
      </trkpt>
      <trkpt lat="44.8773" lon="6.49053">
        <ele>1460</ele>
        <time>2024-08-11T14:04:58Z</time>
      </trkpt>
      <trkpt lat="44.8773" lon="6.49053">
        <ele>1459.6</ele>
        <time>2024-08-11T14:04:59Z</time>
      </trkpt>
      <trkpt lat="44.87733" lon="6.49051">
        <ele>1459.6</ele>
        <time>2024-08-11T14:05:00Z</time>
      </trkpt>
      <trkpt lat="44.87735" lon="6.4905">
        <ele>1459.8</ele>
        <time>2024-08-11T14:05:01Z</time>
      </trkpt>
      <trkpt lat="44.87735" lon="6.4905">
        <ele>1460.2</ele>
        <time>2024-08-11T14:05:02Z</time>
      </trkpt>
      <trkpt lat="44.87738" lon="6.49049">
        <ele>1460.2</ele>
        <time>2024-08-11T14:05:03Z</time>
      </trkpt>
      <trkpt lat="44.87738" lon="6.49049">
        <ele>1460.2</ele>
        <time>2024-08-11T14:05:04Z</time>
      </trkpt>
      <trkpt lat="44.8774" lon="6.49048">
        <ele>1460.2</ele>
        <time>2024-08-11T14:05:05Z</time>
      </trkpt>
      <trkpt lat="44.8774" lon="6.49048">
        <ele>1460.2</ele>
        <time>2024-08-11T14:05:06Z</time>
      </trkpt>
      <trkpt lat="44.87742" lon="6.49047">
        <ele>1460.2</ele>
        <time>2024-08-11T14:05:07Z</time>
      </trkpt>
      <trkpt lat="44.87742" lon="6.49047">
        <ele>1460.2</ele>
        <time>2024-08-11T14:05:08Z</time>
      </trkpt>
      <trkpt lat="44.87744" lon="6.49047">
        <ele>1460.2</ele>
        <time>2024-08-11T14:05:09Z</time>
      </trkpt>
      <trkpt lat="44.87744" lon="6.49047">
        <ele>1460.2</ele>
        <time>2024-08-11T14:05:10Z</time>
      </trkpt>
      <trkpt lat="44.87747" lon="6.49047">
        <ele>1460.2</ele>
        <time>2024-08-11T14:05:11Z</time>
      </trkpt>
      <trkpt lat="44.87747" lon="6.49047">
        <ele>1460.2</ele>
        <time>2024-08-11T14:05:12Z</time>
      </trkpt>
      <trkpt lat="44.8775" lon="6.49048">
        <ele>1460.4</ele>
        <time>2024-08-11T14:05:13Z</time>
      </trkpt>
      <trkpt lat="44.8775" lon="6.49048">
        <ele>1460.4</ele>
        <time>2024-08-11T14:05:14Z</time>
      </trkpt>
      <trkpt lat="44.87753" lon="6.49048">
        <ele>1460.6</ele>
        <time>2024-08-11T14:05:15Z</time>
      </trkpt>
      <trkpt lat="44.87755" lon="6.49048">
        <ele>1460.6</ele>
        <time>2024-08-11T14:05:16Z</time>
      </trkpt>
      <trkpt lat="44.87755" lon="6.49048">
        <ele>1461</ele>
        <time>2024-08-11T14:05:17Z</time>
      </trkpt>
      <trkpt lat="44.87757" lon="6.49048">
        <ele>1461</ele>
        <time>2024-08-11T14:05:18Z</time>
      </trkpt>
      <trkpt lat="44.87757" lon="6.49048">
        <ele>1461</ele>
        <time>2024-08-11T14:05:19Z</time>
      </trkpt>
      <trkpt lat="44.87758" lon="6.49046">
        <ele>1461.2</ele>
        <time>2024-08-11T14:05:20Z</time>
      </trkpt>
      <trkpt lat="44.87758" lon="6.49046">
        <ele>1461.2</ele>
        <time>2024-08-11T14:05:21Z</time>
      </trkpt>
      <trkpt lat="44.8776" lon="6.49043">
        <ele>1461.2</ele>
        <time>2024-08-11T14:05:22Z</time>
      </trkpt>
      <trkpt lat="44.8776" lon="6.49043">
        <ele>1461.2</ele>
        <time>2024-08-11T14:05:23Z</time>
      </trkpt>
      <trkpt lat="44.87761" lon="6.49041">
        <ele>1461.2</ele>
        <time>2024-08-11T14:05:24Z</time>
      </trkpt>
      <trkpt lat="44.87761" lon="6.49041">
        <ele>1461.2</ele>
        <time>2024-08-11T14:05:25Z</time>
      </trkpt>
      <trkpt lat="44.87762" lon="6.49037">
        <ele>1461.4</ele>
        <time>2024-08-11T14:05:26Z</time>
      </trkpt>
      <trkpt lat="44.87762" lon="6.49037">
        <ele>1461.8</ele>
        <time>2024-08-11T14:05:27Z</time>
      </trkpt>
      <trkpt lat="44.87762" lon="6.49033">
        <ele>1461.8</ele>
        <time>2024-08-11T14:05:28Z</time>
      </trkpt>
      <trkpt lat="44.87762" lon="6.4903">
        <ele>1462</ele>
        <time>2024-08-11T14:05:29Z</time>
      </trkpt>
      <trkpt lat="44.87762" lon="6.4903">
        <ele>1462</ele>
        <time>2024-08-11T14:05:30Z</time>
      </trkpt>
      <trkpt lat="44.87762" lon="6.49026">
        <ele>1461.8</ele>
        <time>2024-08-11T14:05:31Z</time>
      </trkpt>
      <trkpt lat="44.87762" lon="6.49026">
        <ele>1461.8</ele>
        <time>2024-08-11T14:05:32Z</time>
      </trkpt>
      <trkpt lat="44.87763" lon="6.49022">
        <ele>1461.8</ele>
        <time>2024-08-11T14:05:33Z</time>
      </trkpt>
      <trkpt lat="44.87763" lon="6.49022">
        <ele>1461.8</ele>
        <time>2024-08-11T14:05:34Z</time>
      </trkpt>
      <trkpt lat="44.87763" lon="6.49018">
        <ele>1461.6</ele>
        <time>2024-08-11T14:05:35Z</time>
      </trkpt>
      <trkpt lat="44.87763" lon="6.49018">
        <ele>1461.6</ele>
        <time>2024-08-11T14:05:36Z</time>
      </trkpt>
      <trkpt lat="44.87763" lon="6.49014">
        <ele>1461.6</ele>
        <time>2024-08-11T14:05:37Z</time>
      </trkpt>
      <trkpt lat="44.87763" lon="6.49014">
        <ele>1461.6</ele>
        <time>2024-08-11T14:05:38Z</time>
      </trkpt>
      <trkpt lat="44.87763" lon="6.49011">
        <ele>1461.8</ele>
        <time>2024-08-11T14:05:39Z</time>
      </trkpt>
      <trkpt lat="44.87763" lon="6.49011">
        <ele>1461.8</ele>
        <time>2024-08-11T14:05:40Z</time>
      </trkpt>
      <trkpt lat="44.87763" lon="6.49007">
        <ele>1462</ele>
        <time>2024-08-11T14:05:41Z</time>
      </trkpt>
      <trkpt lat="44.87763" lon="6.49007">
        <ele>1461.8</ele>
        <time>2024-08-11T14:05:42Z</time>
      </trkpt>
      <trkpt lat="44.87763" lon="6.49004">
        <ele>1462</ele>
        <time>2024-08-11T14:05:43Z</time>
      </trkpt>
      <trkpt lat="44.87763" lon="6.49004">
        <ele>1462</ele>
        <time>2024-08-11T14:05:44Z</time>
      </trkpt>
      <trkpt lat="44.87763" lon="6.49004">
        <ele>1462</ele>
        <time>2024-08-11T14:05:45Z</time>
      </trkpt>
      <trkpt lat="44.87765" lon="6.49002">
        <ele>1462.2</ele>
        <time>2024-08-11T14:05:46Z</time>
      </trkpt>
      <trkpt lat="44.87765" lon="6.49002">
        <ele>1462.2</ele>
        <time>2024-08-11T14:05:47Z</time>
      </trkpt>
      <trkpt lat="44.87767" lon="6.49001">
        <ele>1462.4</ele>
        <time>2024-08-11T14:05:48Z</time>
      </trkpt>
      <trkpt lat="44.87767" lon="6.49001">
        <ele>1462.4</ele>
        <time>2024-08-11T14:05:49Z</time>
      </trkpt>
      <trkpt lat="44.8777" lon="6.48998">
        <ele>1462.4</ele>
        <time>2024-08-11T14:05:50Z</time>
      </trkpt>
      <trkpt lat="44.8777" lon="6.48998">
        <ele>1462.6</ele>
        <time>2024-08-11T14:05:51Z</time>
      </trkpt>
      <trkpt lat="44.87771" lon="6.48995">
        <ele>1462.8</ele>
        <time>2024-08-11T14:05:52Z</time>
      </trkpt>
      <trkpt lat="44.87771" lon="6.48995">
        <ele>1463</ele>
        <time>2024-08-11T14:05:53Z</time>
      </trkpt>
      <trkpt lat="44.87773" lon="6.48992">
        <ele>1463.2</ele>
        <time>2024-08-11T14:05:54Z</time>
      </trkpt>
      <trkpt lat="44.87773" lon="6.48992">
        <ele>1463.2</ele>
        <time>2024-08-11T14:05:55Z</time>
      </trkpt>
      <trkpt lat="44.87775" lon="6.48989">
        <ele>1463.2</ele>
        <time>2024-08-11T14:05:56Z</time>
      </trkpt>
      <trkpt lat="44.87775" lon="6.48989">
        <ele>1463.2</ele>
        <time>2024-08-11T14:05:57Z</time>
      </trkpt>
      <trkpt lat="44.87777" lon="6.48985">
        <ele>1463.2</ele>
        <time>2024-08-11T14:05:58Z</time>
      </trkpt>
      <trkpt lat="44.87777" lon="6.48985">
        <ele>1463.2</ele>
        <time>2024-08-11T14:05:59Z</time>
      </trkpt>
      <trkpt lat="44.87779" lon="6.48982">
        <ele>1463.2</ele>
        <time>2024-08-11T14:06:00Z</time>
      </trkpt>
      <trkpt lat="44.87779" lon="6.48982">
        <ele>1463.4</ele>
        <time>2024-08-11T14:06:01Z</time>
      </trkpt>
      <trkpt lat="44.87781" lon="6.4898">
        <ele>1463.4</ele>
        <time>2024-08-11T14:06:02Z</time>
      </trkpt>
      <trkpt lat="44.87783" lon="6.48978">
        <ele>1463.4</ele>
        <time>2024-08-11T14:06:03Z</time>
      </trkpt>
      <trkpt lat="44.87783" lon="6.48978">
        <ele>1463.8</ele>
        <time>2024-08-11T14:06:04Z</time>
      </trkpt>
      <trkpt lat="44.87785" lon="6.48976">
        <ele>1463.8</ele>
        <time>2024-08-11T14:06:05Z</time>
      </trkpt>
      <trkpt lat="44.87785" lon="6.48976">
        <ele>1463.8</ele>
        <time>2024-08-11T14:06:06Z</time>
      </trkpt>
      <trkpt lat="44.87787" lon="6.48975">
        <ele>1463.8</ele>
        <time>2024-08-11T14:06:07Z</time>
      </trkpt>
      <trkpt lat="44.87787" lon="6.48975">
        <ele>1463.8</ele>
        <time>2024-08-11T14:06:08Z</time>
      </trkpt>
      <trkpt lat="44.87789" lon="6.48974">
        <ele>1463.8</ele>
        <time>2024-08-11T14:06:09Z</time>
      </trkpt>
      <trkpt lat="44.87789" lon="6.48974">
        <ele>1463.8</ele>
        <time>2024-08-11T14:06:10Z</time>
      </trkpt>
      <trkpt lat="44.8779" lon="6.48971">
        <ele>1464.2</ele>
        <time>2024-08-11T14:06:11Z</time>
      </trkpt>
      <trkpt lat="44.8779" lon="6.48971">
        <ele>1464.2</ele>
        <time>2024-08-11T14:06:12Z</time>
      </trkpt>
      <trkpt lat="44.87791" lon="6.48969">
        <ele>1464.2</ele>
        <time>2024-08-11T14:06:13Z</time>
      </trkpt>
      <trkpt lat="44.87791" lon="6.48969">
        <ele>1464.4</ele>
        <time>2024-08-11T14:06:14Z</time>
      </trkpt>
      <trkpt lat="44.87791" lon="6.48965">
        <ele>1464.6</ele>
        <time>2024-08-11T14:06:15Z</time>
      </trkpt>
      <trkpt lat="44.87791" lon="6.48965">
        <ele>1464.6</ele>
        <time>2024-08-11T14:06:16Z</time>
      </trkpt>
      <trkpt lat="44.87792" lon="6.48962">
        <ele>1464.4</ele>
        <time>2024-08-11T14:06:17Z</time>
      </trkpt>
      <trkpt lat="44.87792" lon="6.48962">
        <ele>1464.2</ele>
        <time>2024-08-11T14:06:18Z</time>
      </trkpt>
      <trkpt lat="44.87793" lon="6.48958">
        <ele>1464.2</ele>
        <time>2024-08-11T14:06:19Z</time>
      </trkpt>
      <trkpt lat="44.87793" lon="6.48958">
        <ele>1464.2</ele>
        <time>2024-08-11T14:06:20Z</time>
      </trkpt>
      <trkpt lat="44.87795" lon="6.48955">
        <ele>1464.6</ele>
        <time>2024-08-11T14:06:21Z</time>
      </trkpt>
      <trkpt lat="44.87795" lon="6.48955">
        <ele>1465</ele>
        <time>2024-08-11T14:06:22Z</time>
      </trkpt>
      <trkpt lat="44.87795" lon="6.48952">
        <ele>1465</ele>
        <time>2024-08-11T14:06:23Z</time>
      </trkpt>
      <trkpt lat="44.87795" lon="6.48952">
        <ele>1465</ele>
        <time>2024-08-11T14:06:24Z</time>
      </trkpt>
      <trkpt lat="44.87795" lon="6.48949">
        <ele>1465</ele>
        <time>2024-08-11T14:06:25Z</time>
      </trkpt>
      <trkpt lat="44.87795" lon="6.48949">
        <ele>1465</ele>
        <time>2024-08-11T14:06:26Z</time>
      </trkpt>
      <trkpt lat="44.87795" lon="6.48946">
        <ele>1465.2</ele>
        <time>2024-08-11T14:06:27Z</time>
      </trkpt>
      <trkpt lat="44.87795" lon="6.48946">
        <ele>1465.2</ele>
        <time>2024-08-11T14:06:28Z</time>
      </trkpt>
      <trkpt lat="44.87795" lon="6.48944">
        <ele>1465.2</ele>
        <time>2024-08-11T14:06:29Z</time>
      </trkpt>
      <trkpt lat="44.87795" lon="6.48944">
        <ele>1465.4</ele>
        <time>2024-08-11T14:06:30Z</time>
      </trkpt>
      <trkpt lat="44.87795" lon="6.48944">
        <ele>1465.6</ele>
        <time>2024-08-11T14:06:31Z</time>
      </trkpt>
      <trkpt lat="44.87795" lon="6.4894">
        <ele>1465.8</ele>
        <time>2024-08-11T14:06:32Z</time>
      </trkpt>
      <trkpt lat="44.87795" lon="6.4894">
        <ele>1465.8</ele>
        <time>2024-08-11T14:06:33Z</time>
      </trkpt>
      <trkpt lat="44.87797" lon="6.48937">
        <ele>1466</ele>
        <time>2024-08-11T14:06:34Z</time>
      </trkpt>
      <trkpt lat="44.87797" lon="6.48937">
        <ele>1466</ele>
        <time>2024-08-11T14:06:35Z</time>
      </trkpt>
      <trkpt lat="44.87799" lon="6.48934">
        <ele>1466</ele>
        <time>2024-08-11T14:06:36Z</time>
      </trkpt>
      <trkpt lat="44.87799" lon="6.48934">
        <ele>1466.4</ele>
        <time>2024-08-11T14:06:37Z</time>
      </trkpt>
      <trkpt lat="44.878" lon="6.48931">
        <ele>1466.4</ele>
        <time>2024-08-11T14:06:38Z</time>
      </trkpt>
      <trkpt lat="44.878" lon="6.48931">
        <ele>1466.4</ele>
        <time>2024-08-11T14:06:39Z</time>
      </trkpt>
      <trkpt lat="44.87801" lon="6.48928">
        <ele>1466.4</ele>
        <time>2024-08-11T14:06:40Z</time>
      </trkpt>
      <trkpt lat="44.87801" lon="6.48928">
        <ele>1466.4</ele>
        <time>2024-08-11T14:06:41Z</time>
      </trkpt>
      <trkpt lat="44.87802" lon="6.48925">
        <ele>1466.2</ele>
        <time>2024-08-11T14:06:42Z</time>
      </trkpt>
      <trkpt lat="44.87803" lon="6.48923">
        <ele>1466.2</ele>
        <time>2024-08-11T14:06:43Z</time>
      </trkpt>
      <trkpt lat="44.87803" lon="6.48923">
        <ele>1466.2</ele>
        <time>2024-08-11T14:06:44Z</time>
      </trkpt>
      <trkpt lat="44.87805" lon="6.48921">
        <ele>1466.2</ele>
        <time>2024-08-11T14:06:45Z</time>
      </trkpt>
      <trkpt lat="44.87805" lon="6.48921">
        <ele>1466.2</ele>
        <time>2024-08-11T14:06:46Z</time>
      </trkpt>
      <trkpt lat="44.87807" lon="6.48919">
        <ele>1466.2</ele>
        <time>2024-08-11T14:06:47Z</time>
      </trkpt>
      <trkpt lat="44.87807" lon="6.48919">
        <ele>1466.4</ele>
        <time>2024-08-11T14:06:48Z</time>
      </trkpt>
      <trkpt lat="44.87808" lon="6.48916">
        <ele>1466.4</ele>
        <time>2024-08-11T14:06:49Z</time>
      </trkpt>
      <trkpt lat="44.87808" lon="6.48916">
        <ele>1466.8</ele>
        <time>2024-08-11T14:06:50Z</time>
      </trkpt>
      <trkpt lat="44.87809" lon="6.48913">
        <ele>1467</ele>
        <time>2024-08-11T14:06:51Z</time>
      </trkpt>
      <trkpt lat="44.87809" lon="6.48913">
        <ele>1467</ele>
        <time>2024-08-11T14:06:52Z</time>
      </trkpt>
      <trkpt lat="44.87811" lon="6.4891">
        <ele>1466.8</ele>
        <time>2024-08-11T14:06:53Z</time>
      </trkpt>
      <trkpt lat="44.87811" lon="6.4891">
        <ele>1467</ele>
        <time>2024-08-11T14:06:54Z</time>
      </trkpt>
      <trkpt lat="44.87812" lon="6.48908">
        <ele>1467</ele>
        <time>2024-08-11T14:06:55Z</time>
      </trkpt>
      <trkpt lat="44.87812" lon="6.48908">
        <ele>1467.2</ele>
        <time>2024-08-11T14:06:56Z</time>
      </trkpt>
      <trkpt lat="44.87813" lon="6.48905">
        <ele>1467.2</ele>
        <time>2024-08-11T14:06:57Z</time>
      </trkpt>
      <trkpt lat="44.87813" lon="6.48905">
        <ele>1467.2</ele>
        <time>2024-08-11T14:06:58Z</time>
      </trkpt>
      <trkpt lat="44.87814" lon="6.48903">
        <ele>1467.2</ele>
        <time>2024-08-11T14:06:59Z</time>
      </trkpt>
      <trkpt lat="44.87814" lon="6.48903">
        <ele>1467.2</ele>
        <time>2024-08-11T14:07:00Z</time>
      </trkpt>
      <trkpt lat="44.87816" lon="6.48901">
        <ele>1467.6</ele>
        <time>2024-08-11T14:07:01Z</time>
      </trkpt>
      <trkpt lat="44.87816" lon="6.48901">
        <ele>1467.8</ele>
        <time>2024-08-11T14:07:02Z</time>
      </trkpt>
      <trkpt lat="44.87818" lon="6.489">
        <ele>1467.8</ele>
        <time>2024-08-11T14:07:03Z</time>
      </trkpt>
      <trkpt lat="44.87818" lon="6.489">
        <ele>1468</ele>
        <time>2024-08-11T14:07:04Z</time>
      </trkpt>
      <trkpt lat="44.8782" lon="6.48898">
        <ele>1468</ele>
        <time>2024-08-11T14:07:05Z</time>
      </trkpt>
      <trkpt lat="44.8782" lon="6.48898">
        <ele>1467.8</ele>
        <time>2024-08-11T14:07:06Z</time>
      </trkpt>
      <trkpt lat="44.87821" lon="6.48896">
        <ele>1467.8</ele>
        <time>2024-08-11T14:07:07Z</time>
      </trkpt>
      <trkpt lat="44.87821" lon="6.48896">
        <ele>1468</ele>
        <time>2024-08-11T14:07:08Z</time>
      </trkpt>
      <trkpt lat="44.87823" lon="6.48894">
        <ele>1468</ele>
        <time>2024-08-11T14:07:09Z</time>
      </trkpt>
      <trkpt lat="44.87823" lon="6.48894">
        <ele>1468.2</ele>
        <time>2024-08-11T14:07:10Z</time>
      </trkpt>
      <trkpt lat="44.87825" lon="6.48891">
        <ele>1468.4</ele>
        <time>2024-08-11T14:07:11Z</time>
      </trkpt>
      <trkpt lat="44.87825" lon="6.48891">
        <ele>1468.4</ele>
        <time>2024-08-11T14:07:12Z</time>
      </trkpt>
      <trkpt lat="44.87826" lon="6.48887">
        <ele>1468.2</ele>
        <time>2024-08-11T14:07:13Z</time>
      </trkpt>
      <trkpt lat="44.87826" lon="6.48887">
        <ele>1467.8</ele>
        <time>2024-08-11T14:07:14Z</time>
      </trkpt>
      <trkpt lat="44.87829" lon="6.48885">
        <ele>1467.8</ele>
        <time>2024-08-11T14:07:15Z</time>
      </trkpt>
      <trkpt lat="44.87829" lon="6.48885">
        <ele>1467.8</ele>
        <time>2024-08-11T14:07:16Z</time>
      </trkpt>
      <trkpt lat="44.8783" lon="6.48883">
        <ele>1467.8</ele>
        <time>2024-08-11T14:07:17Z</time>
      </trkpt>
      <trkpt lat="44.8783" lon="6.48883">
        <ele>1467.8</ele>
        <time>2024-08-11T14:07:18Z</time>
      </trkpt>
      <trkpt lat="44.87832" lon="6.48881">
        <ele>1467.8</ele>
        <time>2024-08-11T14:07:19Z</time>
      </trkpt>
      <trkpt lat="44.87832" lon="6.48881">
        <ele>1467.6</ele>
        <time>2024-08-11T14:07:20Z</time>
      </trkpt>
      <trkpt lat="44.87834" lon="6.48879">
        <ele>1467.8</ele>
        <time>2024-08-11T14:07:21Z</time>
      </trkpt>
      <trkpt lat="44.87834" lon="6.48879">
        <ele>1467.8</ele>
        <time>2024-08-11T14:07:22Z</time>
      </trkpt>
      <trkpt lat="44.87836" lon="6.48877">
        <ele>1467.8</ele>
        <time>2024-08-11T14:07:23Z</time>
      </trkpt>
      <trkpt lat="44.87836" lon="6.48877">
        <ele>1468</ele>
        <time>2024-08-11T14:07:24Z</time>
      </trkpt>
      <trkpt lat="44.87838" lon="6.48876">
        <ele>1468</ele>
        <time>2024-08-11T14:07:25Z</time>
      </trkpt>
      <trkpt lat="44.87838" lon="6.48876">
        <ele>1468</ele>
        <time>2024-08-11T14:07:26Z</time>
      </trkpt>
      <trkpt lat="44.87841" lon="6.48874">
        <ele>1468</ele>
        <time>2024-08-11T14:07:27Z</time>
      </trkpt>
      <trkpt lat="44.87841" lon="6.48874">
        <ele>1468.4</ele>
        <time>2024-08-11T14:07:28Z</time>
      </trkpt>
      <trkpt lat="44.87843" lon="6.48873">
        <ele>1468.4</ele>
        <time>2024-08-11T14:07:29Z</time>
      </trkpt>
      <trkpt lat="44.87843" lon="6.48873">
        <ele>1468.4</ele>
        <time>2024-08-11T14:07:30Z</time>
      </trkpt>
      <trkpt lat="44.87845" lon="6.48871">
        <ele>1468.4</ele>
        <time>2024-08-11T14:07:31Z</time>
      </trkpt>
      <trkpt lat="44.87845" lon="6.48871">
        <ele>1468.4</ele>
        <time>2024-08-11T14:07:32Z</time>
      </trkpt>
      <trkpt lat="44.87847" lon="6.48869">
        <ele>1468.2</ele>
        <time>2024-08-11T14:07:33Z</time>
      </trkpt>
      <trkpt lat="44.87847" lon="6.48869">
        <ele>1468.2</ele>
        <time>2024-08-11T14:07:34Z</time>
      </trkpt>
      <trkpt lat="44.87849" lon="6.48866">
        <ele>1468.2</ele>
        <time>2024-08-11T14:07:35Z</time>
      </trkpt>
      <trkpt lat="44.87849" lon="6.48866">
        <ele>1468.2</ele>
        <time>2024-08-11T14:07:36Z</time>
      </trkpt>
      <trkpt lat="44.87851" lon="6.48862">
        <ele>1468.4</ele>
        <time>2024-08-11T14:07:37Z</time>
      </trkpt>
      <trkpt lat="44.87852" lon="6.4886">
        <ele>1468.8</ele>
        <time>2024-08-11T14:07:38Z</time>
      </trkpt>
      <trkpt lat="44.87853" lon="6.48857">
        <ele>1468.8</ele>
        <time>2024-08-11T14:07:39Z</time>
      </trkpt>
      <trkpt lat="44.87853" lon="6.48854">
        <ele>1468.8</ele>
        <time>2024-08-11T14:07:40Z</time>
      </trkpt>
      <trkpt lat="44.87853" lon="6.48854">
        <ele>1468.8</ele>
        <time>2024-08-11T14:07:41Z</time>
      </trkpt>
      <trkpt lat="44.87853" lon="6.48854">
        <ele>1469</ele>
        <time>2024-08-11T14:07:42Z</time>
      </trkpt>
      <trkpt lat="44.87853" lon="6.48854">
        <ele>1469.2</ele>
        <time>2024-08-11T14:07:43Z</time>
      </trkpt>
      <trkpt lat="44.87853" lon="6.48851">
        <ele>1469.6</ele>
        <time>2024-08-11T14:07:44Z</time>
      </trkpt>
      <trkpt lat="44.87853" lon="6.48851">
        <ele>1469.8</ele>
        <time>2024-08-11T14:07:45Z</time>
      </trkpt>
      <trkpt lat="44.87853" lon="6.48851">
        <ele>1469.8</ele>
        <time>2024-08-11T14:07:46Z</time>
      </trkpt>
      <trkpt lat="44.87855" lon="6.48848">
        <ele>1469.8</ele>
        <time>2024-08-11T14:07:47Z</time>
      </trkpt>
      <trkpt lat="44.87855" lon="6.48848">
        <ele>1469.2</ele>
        <time>2024-08-11T14:07:48Z</time>
      </trkpt>
      <trkpt lat="44.87855" lon="6.48848">
        <ele>1469.2</ele>
        <time>2024-08-11T14:07:49Z</time>
      </trkpt>
      <trkpt lat="44.87855" lon="6.48848">
        <ele>1469.2</ele>
        <time>2024-08-11T14:07:50Z</time>
      </trkpt>
      <trkpt lat="44.87855" lon="6.48848">
        <ele>1469.4</ele>
        <time>2024-08-11T14:07:51Z</time>
      </trkpt>
      <trkpt lat="44.87855" lon="6.48848">
        <ele>1469.6</ele>
        <time>2024-08-11T14:07:52Z</time>
      </trkpt>
      <trkpt lat="44.87855" lon="6.48848">
        <ele>1469.6</ele>
        <time>2024-08-11T14:07:53Z</time>
      </trkpt>
      <trkpt lat="44.87855" lon="6.48848">
        <ele>1469.6</ele>
        <time>2024-08-11T14:07:54Z</time>
      </trkpt>
      <trkpt lat="44.87855" lon="6.48848">
        <ele>1469.6</ele>
        <time>2024-08-11T14:07:55Z</time>
      </trkpt>
      <trkpt lat="44.87855" lon="6.48848">
        <ele>1469.6</ele>
        <time>2024-08-11T14:07:56Z</time>
      </trkpt>
      <trkpt lat="44.87855" lon="6.48848">
        <ele>1469.6</ele>
        <time>2024-08-11T14:07:57Z</time>
      </trkpt>
      <trkpt lat="44.87855" lon="6.48848">
        <ele>1469.4</ele>
        <time>2024-08-11T14:07:58Z</time>
      </trkpt>
      <trkpt lat="44.87855" lon="6.48848">
        <ele>1469</ele>
        <time>2024-08-11T14:07:59Z</time>
      </trkpt>
      <trkpt lat="44.87855" lon="6.48848">
        <ele>1468.8</ele>
        <time>2024-08-11T14:08:00Z</time>
      </trkpt>
      <trkpt lat="44.87855" lon="6.48848">
        <ele>1468.8</ele>
        <time>2024-08-11T14:08:01Z</time>
      </trkpt>
      <trkpt lat="44.87855" lon="6.48848">
        <ele>1468.8</ele>
        <time>2024-08-11T14:08:02Z</time>
      </trkpt>
      <trkpt lat="44.87855" lon="6.48848">
        <ele>1468.8</ele>
        <time>2024-08-11T14:08:03Z</time>
      </trkpt>
      <trkpt lat="44.87855" lon="6.48848">
        <ele>1468.8</ele>
        <time>2024-08-11T14:08:04Z</time>
      </trkpt>
      <trkpt lat="44.87855" lon="6.48848">
        <ele>1468.8</ele>
        <time>2024-08-11T14:08:05Z</time>
      </trkpt>
      <trkpt lat="44.87855" lon="6.48848">
        <ele>1468.8</ele>
        <time>2024-08-11T14:08:06Z</time>
      </trkpt>
      <trkpt lat="44.87855" lon="6.48848">
        <ele>1469</ele>
        <time>2024-08-11T14:08:07Z</time>
      </trkpt>
      <trkpt lat="44.87855" lon="6.48848">
        <ele>1469</ele>
        <time>2024-08-11T14:08:08Z</time>
      </trkpt>
      <trkpt lat="44.87855" lon="6.48848">
        <ele>1469</ele>
        <time>2024-08-11T14:08:09Z</time>
      </trkpt>
      <trkpt lat="44.87855" lon="6.48848">
        <ele>1469.2</ele>
        <time>2024-08-11T14:08:10Z</time>
      </trkpt>
      <trkpt lat="44.87855" lon="6.48848">
        <ele>1469.2</ele>
        <time>2024-08-11T14:08:11Z</time>
      </trkpt>
      <trkpt lat="44.87855" lon="6.48848">
        <ele>1469.2</ele>
        <time>2024-08-11T14:08:12Z</time>
      </trkpt>
      <trkpt lat="44.87855" lon="6.48848">
        <ele>1469.2</ele>
        <time>2024-08-11T14:08:13Z</time>
      </trkpt>
      <trkpt lat="44.87855" lon="6.48848">
        <ele>1469.2</ele>
        <time>2024-08-11T14:08:14Z</time>
      </trkpt>
      <trkpt lat="44.87855" lon="6.48848">
        <ele>1469.2</ele>
        <time>2024-08-11T14:08:15Z</time>
      </trkpt>
      <trkpt lat="44.87855" lon="6.48848">
        <ele>1469.2</ele>
        <time>2024-08-11T14:08:16Z</time>
      </trkpt>
      <trkpt lat="44.87855" lon="6.48848">
        <ele>1469.2</ele>
        <time>2024-08-11T14:08:17Z</time>
      </trkpt>
      <trkpt lat="44.87855" lon="6.48848">
        <ele>1469.2</ele>
        <time>2024-08-11T14:08:18Z</time>
      </trkpt>
      <trkpt lat="44.87855" lon="6.48848">
        <ele>1469</ele>
        <time>2024-08-11T14:08:19Z</time>
      </trkpt>
      <trkpt lat="44.87855" lon="6.48848">
        <ele>1469.2</ele>
        <time>2024-08-11T14:08:20Z</time>
      </trkpt>
      <trkpt lat="44.87855" lon="6.48848">
        <ele>1469.2</ele>
        <time>2024-08-11T14:08:21Z</time>
      </trkpt>
      <trkpt lat="44.87855" lon="6.48848">
        <ele>1469.2</ele>
        <time>2024-08-11T14:08:22Z</time>
      </trkpt>
      <trkpt lat="44.87855" lon="6.48848">
        <ele>1469.2</ele>
        <time>2024-08-11T14:08:23Z</time>
      </trkpt>
      <trkpt lat="44.87855" lon="6.48848">
        <ele>1469.2</ele>
        <time>2024-08-11T14:08:24Z</time>
      </trkpt>
      <trkpt lat="44.87855" lon="6.48848">
        <ele>1469</ele>
        <time>2024-08-11T14:08:25Z</time>
      </trkpt>
      <trkpt lat="44.87855" lon="6.48848">
        <ele>1469</ele>
        <time>2024-08-11T14:08:26Z</time>
      </trkpt>
      <trkpt lat="44.87855" lon="6.48848">
        <ele>1469.4</ele>
        <time>2024-08-11T14:08:27Z</time>
      </trkpt>
      <trkpt lat="44.87855" lon="6.48848">
        <ele>1469.4</ele>
        <time>2024-08-11T14:08:28Z</time>
      </trkpt>
      <trkpt lat="44.87855" lon="6.48848">
        <ele>1469.4</ele>
        <time>2024-08-11T14:08:29Z</time>
      </trkpt>
      <trkpt lat="44.87855" lon="6.48848">
        <ele>1469.4</ele>
        <time>2024-08-11T14:08:30Z</time>
      </trkpt>
      <trkpt lat="44.87855" lon="6.48848">
        <ele>1469.2</ele>
        <time>2024-08-11T14:08:31Z</time>
      </trkpt>
      <trkpt lat="44.87855" lon="6.48848">
        <ele>1469.2</ele>
        <time>2024-08-11T14:08:32Z</time>
      </trkpt>
      <trkpt lat="44.87855" lon="6.48848">
        <ele>1469.4</ele>
        <time>2024-08-11T14:08:33Z</time>
      </trkpt>
      <trkpt lat="44.87855" lon="6.48848">
        <ele>1469.4</ele>
        <time>2024-08-11T14:08:34Z</time>
      </trkpt>
      <trkpt lat="44.87855" lon="6.48848">
        <ele>1469.4</ele>
        <time>2024-08-11T14:08:35Z</time>
      </trkpt>
      <trkpt lat="44.87855" lon="6.48848">
        <ele>1469.6</ele>
        <time>2024-08-11T14:08:36Z</time>
      </trkpt>
      <trkpt lat="44.87855" lon="6.48848">
        <ele>1469.4</ele>
        <time>2024-08-11T14:08:37Z</time>
      </trkpt>
      <trkpt lat="44.87855" lon="6.48848">
        <ele>1469.4</ele>
        <time>2024-08-11T14:08:38Z</time>
      </trkpt>
      <trkpt lat="44.87855" lon="6.48848">
        <ele>1469.4</ele>
        <time>2024-08-11T14:08:39Z</time>
      </trkpt>
      <trkpt lat="44.87855" lon="6.48848">
        <ele>1469.4</ele>
        <time>2024-08-11T14:08:40Z</time>
      </trkpt>
      <trkpt lat="44.87855" lon="6.48848">
        <ele>1469.4</ele>
        <time>2024-08-11T14:08:41Z</time>
      </trkpt>
      <trkpt lat="44.87855" lon="6.48848">
        <ele>1469.2</ele>
        <time>2024-08-11T14:08:42Z</time>
      </trkpt>
      <trkpt lat="44.87855" lon="6.48848">
        <ele>1469.2</ele>
        <time>2024-08-11T14:08:43Z</time>
      </trkpt>
      <trkpt lat="44.87855" lon="6.48848">
        <ele>1469.4</ele>
        <time>2024-08-11T14:08:44Z</time>
      </trkpt>
      <trkpt lat="44.87855" lon="6.48848">
        <ele>1469.4</ele>
        <time>2024-08-11T14:08:45Z</time>
      </trkpt>
      <trkpt lat="44.87855" lon="6.48848">
        <ele>1469.4</ele>
        <time>2024-08-11T14:08:46Z</time>
      </trkpt>
      <trkpt lat="44.87855" lon="6.48848">
        <ele>1469.6</ele>
        <time>2024-08-11T14:08:47Z</time>
      </trkpt>
      <trkpt lat="44.87855" lon="6.48848">
        <ele>1469.6</ele>
        <time>2024-08-11T14:08:48Z</time>
      </trkpt>
      <trkpt lat="44.87855" lon="6.48848">
        <ele>1469.4</ele>
        <time>2024-08-11T14:08:49Z</time>
      </trkpt>
      <trkpt lat="44.87855" lon="6.48848">
        <ele>1469.4</ele>
        <time>2024-08-11T14:08:50Z</time>
      </trkpt>
      <trkpt lat="44.87855" lon="6.48848">
        <ele>1469.4</ele>
        <time>2024-08-11T14:08:51Z</time>
      </trkpt>
      <trkpt lat="44.87855" lon="6.48848">
        <ele>1469.4</ele>
        <time>2024-08-11T14:08:52Z</time>
      </trkpt>
      <trkpt lat="44.87855" lon="6.48848">
        <ele>1469.6</ele>
        <time>2024-08-11T14:08:53Z</time>
      </trkpt>
      <trkpt lat="44.87855" lon="6.48848">
        <ele>1469.6</ele>
        <time>2024-08-11T14:08:54Z</time>
      </trkpt>
      <trkpt lat="44.87855" lon="6.48848">
        <ele>1469.6</ele>
        <time>2024-08-11T14:08:55Z</time>
      </trkpt>
      <trkpt lat="44.87855" lon="6.48848">
        <ele>1469.4</ele>
        <time>2024-08-11T14:08:56Z</time>
      </trkpt>
      <trkpt lat="44.87855" lon="6.48848">
        <ele>1469.4</ele>
        <time>2024-08-11T14:08:57Z</time>
      </trkpt>
      <trkpt lat="44.87855" lon="6.48848">
        <ele>1469.4</ele>
        <time>2024-08-11T14:08:58Z</time>
      </trkpt>
      <trkpt lat="44.87855" lon="6.48848">
        <ele>1469.4</ele>
        <time>2024-08-11T14:08:59Z</time>
      </trkpt>
      <trkpt lat="44.87855" lon="6.48848">
        <ele>1469.4</ele>
        <time>2024-08-11T14:09:00Z</time>
      </trkpt>
      <trkpt lat="44.87855" lon="6.48848">
        <ele>1469.2</ele>
        <time>2024-08-11T14:09:01Z</time>
      </trkpt>
      <trkpt lat="44.87855" lon="6.48848">
        <ele>1469.4</ele>
        <time>2024-08-11T14:09:02Z</time>
      </trkpt>
      <trkpt lat="44.87855" lon="6.48848">
        <ele>1469.4</ele>
        <time>2024-08-11T14:09:03Z</time>
      </trkpt>
      <trkpt lat="44.87855" lon="6.48848">
        <ele>1469.4</ele>
        <time>2024-08-11T14:09:04Z</time>
      </trkpt>
      <trkpt lat="44.87855" lon="6.48848">
        <ele>1469.4</ele>
        <time>2024-08-11T14:09:05Z</time>
      </trkpt>
      <trkpt lat="44.87855" lon="6.48848">
        <ele>1469.4</ele>
        <time>2024-08-11T14:09:06Z</time>
      </trkpt>
      <trkpt lat="44.87855" lon="6.48848">
        <ele>1469.6</ele>
        <time>2024-08-11T14:09:07Z</time>
      </trkpt>
      <trkpt lat="44.87855" lon="6.48848">
        <ele>1469.6</ele>
        <time>2024-08-11T14:09:08Z</time>
      </trkpt>
      <trkpt lat="44.87855" lon="6.48848">
        <ele>1469.6</ele>
        <time>2024-08-11T14:09:09Z</time>
      </trkpt>
      <trkpt lat="44.87855" lon="6.48848">
        <ele>1469.8</ele>
        <time>2024-08-11T14:09:10Z</time>
      </trkpt>
      <trkpt lat="44.87855" lon="6.48848">
        <ele>1469.8</ele>
        <time>2024-08-11T14:09:11Z</time>
      </trkpt>
      <trkpt lat="44.87855" lon="6.48848">
        <ele>1469.6</ele>
        <time>2024-08-11T14:09:12Z</time>
      </trkpt>
      <trkpt lat="44.87855" lon="6.48848">
        <ele>1469.6</ele>
        <time>2024-08-11T14:09:13Z</time>
      </trkpt>
      <trkpt lat="44.87855" lon="6.48848">
        <ele>1469.6</ele>
        <time>2024-08-11T14:09:14Z</time>
      </trkpt>
      <trkpt lat="44.87855" lon="6.48848">
        <ele>1469.6</ele>
        <time>2024-08-11T14:09:15Z</time>
      </trkpt>
      <trkpt lat="44.87855" lon="6.48848">
        <ele>1470</ele>
        <time>2024-08-11T14:09:16Z</time>
      </trkpt>
      <trkpt lat="44.87855" lon="6.48848">
        <ele>1470</ele>
        <time>2024-08-11T14:09:17Z</time>
      </trkpt>
      <trkpt lat="44.87855" lon="6.48848">
        <ele>1470</ele>
        <time>2024-08-11T14:09:18Z</time>
      </trkpt>
      <trkpt lat="44.87855" lon="6.48848">
        <ele>1470.2</ele>
        <time>2024-08-11T14:09:19Z</time>
      </trkpt>
      <trkpt lat="44.87855" lon="6.48848">
        <ele>1470.2</ele>
        <time>2024-08-11T14:09:20Z</time>
      </trkpt>
      <trkpt lat="44.87855" lon="6.48848">
        <ele>1470</ele>
        <time>2024-08-11T14:09:21Z</time>
      </trkpt>
      <trkpt lat="44.87855" lon="6.48848">
        <ele>1470</ele>
        <time>2024-08-11T14:09:22Z</time>
      </trkpt>
      <trkpt lat="44.87855" lon="6.48848">
        <ele>1470</ele>
        <time>2024-08-11T14:09:23Z</time>
      </trkpt>
      <trkpt lat="44.87855" lon="6.48848">
        <ele>1469.8</ele>
        <time>2024-08-11T14:09:24Z</time>
      </trkpt>
      <trkpt lat="44.87855" lon="6.48848">
        <ele>1469.8</ele>
        <time>2024-08-11T14:09:25Z</time>
      </trkpt>
      <trkpt lat="44.87855" lon="6.48848">
        <ele>1469.6</ele>
        <time>2024-08-11T14:09:26Z</time>
      </trkpt>
      <trkpt lat="44.87855" lon="6.48848">
        <ele>1469.6</ele>
        <time>2024-08-11T14:09:27Z</time>
      </trkpt>
      <trkpt lat="44.87855" lon="6.48848">
        <ele>1469.8</ele>
        <time>2024-08-11T14:09:28Z</time>
      </trkpt>
      <trkpt lat="44.87855" lon="6.48848">
        <ele>1469.8</ele>
        <time>2024-08-11T14:09:29Z</time>
      </trkpt>
      <trkpt lat="44.87855" lon="6.48848">
        <ele>1469.6</ele>
        <time>2024-08-11T14:09:30Z</time>
      </trkpt>
      <trkpt lat="44.87855" lon="6.48848">
        <ele>1469.6</ele>
        <time>2024-08-11T14:09:31Z</time>
      </trkpt>
      <trkpt lat="44.87855" lon="6.48848">
        <ele>1470</ele>
        <time>2024-08-11T14:09:32Z</time>
      </trkpt>
      <trkpt lat="44.87855" lon="6.48848">
        <ele>1470.6</ele>
        <time>2024-08-11T14:09:33Z</time>
      </trkpt>
      <trkpt lat="44.87855" lon="6.48848">
        <ele>1470.6</ele>
        <time>2024-08-11T14:09:34Z</time>
      </trkpt>
      <trkpt lat="44.87855" lon="6.48848">
        <ele>1470.4</ele>
        <time>2024-08-11T14:09:35Z</time>
      </trkpt>
      <trkpt lat="44.87855" lon="6.48848">
        <ele>1470.2</ele>
        <time>2024-08-11T14:09:36Z</time>
      </trkpt>
      <trkpt lat="44.87855" lon="6.48848">
        <ele>1470.2</ele>
        <time>2024-08-11T14:09:37Z</time>
      </trkpt>
      <trkpt lat="44.87855" lon="6.48848">
        <ele>1469.6</ele>
        <time>2024-08-11T14:09:38Z</time>
      </trkpt>
      <trkpt lat="44.87855" lon="6.48848">
        <ele>1469.6</ele>
        <time>2024-08-11T14:09:39Z</time>
      </trkpt>
      <trkpt lat="44.87855" lon="6.48848">
        <ele>1469.6</ele>
        <time>2024-08-11T14:09:40Z</time>
      </trkpt>
      <trkpt lat="44.87855" lon="6.48848">
        <ele>1469.6</ele>
        <time>2024-08-11T14:09:41Z</time>
      </trkpt>
      <trkpt lat="44.87855" lon="6.48848">
        <ele>1469.6</ele>
        <time>2024-08-11T14:09:42Z</time>
      </trkpt>
      <trkpt lat="44.87855" lon="6.48848">
        <ele>1469.6</ele>
        <time>2024-08-11T14:09:43Z</time>
      </trkpt>
      <trkpt lat="44.87855" lon="6.48848">
        <ele>1469.4</ele>
        <time>2024-08-11T14:09:44Z</time>
      </trkpt>
      <trkpt lat="44.87855" lon="6.48848">
        <ele>1469.4</ele>
        <time>2024-08-11T14:09:45Z</time>
      </trkpt>
      <trkpt lat="44.87855" lon="6.48848">
        <ele>1469.4</ele>
        <time>2024-08-11T14:09:46Z</time>
      </trkpt>
      <trkpt lat="44.87855" lon="6.48848">
        <ele>1469.4</ele>
        <time>2024-08-11T14:09:47Z</time>
      </trkpt>
      <trkpt lat="44.87855" lon="6.48848">
        <ele>1469.6</ele>
        <time>2024-08-11T14:09:48Z</time>
      </trkpt>
      <trkpt lat="44.87855" lon="6.48848">
        <ele>1469.6</ele>
        <time>2024-08-11T14:09:49Z</time>
      </trkpt>
      <trkpt lat="44.87855" lon="6.48848">
        <ele>1469.6</ele>
        <time>2024-08-11T14:09:50Z</time>
      </trkpt>
      <trkpt lat="44.87855" lon="6.48848">
        <ele>1469.6</ele>
        <time>2024-08-11T14:09:51Z</time>
      </trkpt>
      <trkpt lat="44.87855" lon="6.48848">
        <ele>1469.6</ele>
        <time>2024-08-11T14:09:52Z</time>
      </trkpt>
      <trkpt lat="44.87855" lon="6.48848">
        <ele>1469.6</ele>
        <time>2024-08-11T14:09:53Z</time>
      </trkpt>
      <trkpt lat="44.87855" lon="6.48848">
        <ele>1469.6</ele>
        <time>2024-08-11T14:09:54Z</time>
      </trkpt>
      <trkpt lat="44.87855" lon="6.48848">
        <ele>1469.4</ele>
        <time>2024-08-11T14:09:55Z</time>
      </trkpt>
      <trkpt lat="44.87855" lon="6.48848">
        <ele>1469.2</ele>
        <time>2024-08-11T14:09:56Z</time>
      </trkpt>
      <trkpt lat="44.87855" lon="6.48848">
        <ele>1469.2</ele>
        <time>2024-08-11T14:09:57Z</time>
      </trkpt>
      <trkpt lat="44.87855" lon="6.48848">
        <ele>1469.2</ele>
        <time>2024-08-11T14:09:58Z</time>
      </trkpt>
      <trkpt lat="44.87855" lon="6.48848">
        <ele>1469.2</ele>
        <time>2024-08-11T14:09:59Z</time>
      </trkpt>
      <trkpt lat="44.87855" lon="6.48848">
        <ele>1469</ele>
        <time>2024-08-11T14:10:00Z</time>
      </trkpt>
      <trkpt lat="44.87855" lon="6.48848">
        <ele>1468.8</ele>
        <time>2024-08-11T14:10:01Z</time>
      </trkpt>
      <trkpt lat="44.87855" lon="6.48848">
        <ele>1469</ele>
        <time>2024-08-11T14:10:02Z</time>
      </trkpt>
      <trkpt lat="44.87855" lon="6.48848">
        <ele>1469.2</ele>
        <time>2024-08-11T14:10:03Z</time>
      </trkpt>
      <trkpt lat="44.87855" lon="6.48848">
        <ele>1469.4</ele>
        <time>2024-08-11T14:10:04Z</time>
      </trkpt>
      <trkpt lat="44.87855" lon="6.48848">
        <ele>1469.4</ele>
        <time>2024-08-11T14:10:05Z</time>
      </trkpt>
      <trkpt lat="44.87855" lon="6.48848">
        <ele>1469.4</ele>
        <time>2024-08-11T14:10:06Z</time>
      </trkpt>
      <trkpt lat="44.87855" lon="6.48848">
        <ele>1469.4</ele>
        <time>2024-08-11T14:10:07Z</time>
      </trkpt>
      <trkpt lat="44.87855" lon="6.48848">
        <ele>1469.4</ele>
        <time>2024-08-11T14:10:08Z</time>
      </trkpt>
      <trkpt lat="44.87855" lon="6.48848">
        <ele>1469.4</ele>
        <time>2024-08-11T14:10:09Z</time>
      </trkpt>
      <trkpt lat="44.87855" lon="6.48848">
        <ele>1469.4</ele>
        <time>2024-08-11T14:10:10Z</time>
      </trkpt>
      <trkpt lat="44.87855" lon="6.48848">
        <ele>1469.6</ele>
        <time>2024-08-11T14:10:11Z</time>
      </trkpt>
      <trkpt lat="44.87855" lon="6.48848">
        <ele>1469.8</ele>
        <time>2024-08-11T14:10:12Z</time>
      </trkpt>
      <trkpt lat="44.87855" lon="6.48848">
        <ele>1469.8</ele>
        <time>2024-08-11T14:10:13Z</time>
      </trkpt>
      <trkpt lat="44.87855" lon="6.48848">
        <ele>1469.8</ele>
        <time>2024-08-11T14:10:14Z</time>
      </trkpt>
      <trkpt lat="44.87855" lon="6.48848">
        <ele>1469.8</ele>
        <time>2024-08-11T14:10:15Z</time>
      </trkpt>
      <trkpt lat="44.87855" lon="6.48848">
        <ele>1469.6</ele>
        <time>2024-08-11T14:10:16Z</time>
      </trkpt>
      <trkpt lat="44.87855" lon="6.48848">
        <ele>1469.6</ele>
        <time>2024-08-11T14:10:17Z</time>
      </trkpt>
      <trkpt lat="44.87855" lon="6.48848">
        <ele>1469.6</ele>
        <time>2024-08-11T14:10:18Z</time>
      </trkpt>
      <trkpt lat="44.87855" lon="6.48848">
        <ele>1469.4</ele>
        <time>2024-08-11T14:10:19Z</time>
      </trkpt>
      <trkpt lat="44.87855" lon="6.48848">
        <ele>1469.2</ele>
        <time>2024-08-11T14:10:20Z</time>
      </trkpt>
      <trkpt lat="44.87855" lon="6.48848">
        <ele>1468.8</ele>
        <time>2024-08-11T14:10:21Z</time>
      </trkpt>
      <trkpt lat="44.87855" lon="6.48848">
        <ele>1468.8</ele>
        <time>2024-08-11T14:10:22Z</time>
      </trkpt>
      <trkpt lat="44.87855" lon="6.48848">
        <ele>1468.8</ele>
        <time>2024-08-11T14:10:23Z</time>
      </trkpt>
      <trkpt lat="44.87855" lon="6.48848">
        <ele>1468.8</ele>
        <time>2024-08-11T14:10:24Z</time>
      </trkpt>
      <trkpt lat="44.87855" lon="6.48848">
        <ele>1468.8</ele>
        <time>2024-08-11T14:10:25Z</time>
      </trkpt>
      <trkpt lat="44.87855" lon="6.48848">
        <ele>1468.6</ele>
        <time>2024-08-11T14:10:26Z</time>
      </trkpt>
      <trkpt lat="44.87855" lon="6.48848">
        <ele>1468.6</ele>
        <time>2024-08-11T14:10:27Z</time>
      </trkpt>
      <trkpt lat="44.87855" lon="6.48848">
        <ele>1468.6</ele>
        <time>2024-08-11T14:10:28Z</time>
      </trkpt>
      <trkpt lat="44.87855" lon="6.48848">
        <ele>1468.6</ele>
        <time>2024-08-11T14:10:29Z</time>
      </trkpt>
      <trkpt lat="44.87855" lon="6.48848">
        <ele>1468.6</ele>
        <time>2024-08-11T14:10:30Z</time>
      </trkpt>
      <trkpt lat="44.87855" lon="6.48848">
        <ele>1469.2</ele>
        <time>2024-08-11T14:10:31Z</time>
      </trkpt>
      <trkpt lat="44.87855" lon="6.48848">
        <ele>1469.4</ele>
        <time>2024-08-11T14:10:32Z</time>
      </trkpt>
      <trkpt lat="44.87855" lon="6.48848">
        <ele>1469.8</ele>
        <time>2024-08-11T14:10:33Z</time>
      </trkpt>
      <trkpt lat="44.87855" lon="6.48848">
        <ele>1469.8</ele>
        <time>2024-08-11T14:10:34Z</time>
      </trkpt>
      <trkpt lat="44.87855" lon="6.48848">
        <ele>1469.6</ele>
        <time>2024-08-11T14:10:35Z</time>
      </trkpt>
      <trkpt lat="44.87855" lon="6.48848">
        <ele>1469.6</ele>
        <time>2024-08-11T14:10:36Z</time>
      </trkpt>
      <trkpt lat="44.87855" lon="6.48848">
        <ele>1469.6</ele>
        <time>2024-08-11T14:10:37Z</time>
      </trkpt>
      <trkpt lat="44.87855" lon="6.48848">
        <ele>1469.6</ele>
        <time>2024-08-11T14:10:38Z</time>
      </trkpt>
      <trkpt lat="44.87855" lon="6.48848">
        <ele>1469.6</ele>
        <time>2024-08-11T14:10:39Z</time>
      </trkpt>
      <trkpt lat="44.87855" lon="6.48848">
        <ele>1469.4</ele>
        <time>2024-08-11T14:10:40Z</time>
      </trkpt>
      <trkpt lat="44.87855" lon="6.48848">
        <ele>1469.4</ele>
        <time>2024-08-11T14:10:41Z</time>
      </trkpt>
      <trkpt lat="44.87855" lon="6.48848">
        <ele>1469.4</ele>
        <time>2024-08-11T14:10:42Z</time>
      </trkpt>
      <trkpt lat="44.87855" lon="6.48848">
        <ele>1469.4</ele>
        <time>2024-08-11T14:10:43Z</time>
      </trkpt>
      <trkpt lat="44.87855" lon="6.48848">
        <ele>1469.2</ele>
        <time>2024-08-11T14:10:44Z</time>
      </trkpt>
      <trkpt lat="44.87855" lon="6.48848">
        <ele>1468.8</ele>
        <time>2024-08-11T14:10:45Z</time>
      </trkpt>
      <trkpt lat="44.87855" lon="6.48848">
        <ele>1468.8</ele>
        <time>2024-08-11T14:10:46Z</time>
      </trkpt>
      <trkpt lat="44.87855" lon="6.48848">
        <ele>1469.2</ele>
        <time>2024-08-11T14:10:47Z</time>
      </trkpt>
      <trkpt lat="44.87855" lon="6.48848">
        <ele>1469.4</ele>
        <time>2024-08-11T14:10:48Z</time>
      </trkpt>
      <trkpt lat="44.87855" lon="6.48848">
        <ele>1469.4</ele>
        <time>2024-08-11T14:10:49Z</time>
      </trkpt>
      <trkpt lat="44.87855" lon="6.48848">
        <ele>1469.2</ele>
        <time>2024-08-11T14:10:50Z</time>
      </trkpt>
      <trkpt lat="44.87855" lon="6.48848">
        <ele>1469.2</ele>
        <time>2024-08-11T14:10:51Z</time>
      </trkpt>
      <trkpt lat="44.87857" lon="6.48849">
        <ele>1469.2</ele>
        <time>2024-08-11T14:10:52Z</time>
      </trkpt>
      <trkpt lat="44.87857" lon="6.48849">
        <ele>1469.2</ele>
        <time>2024-08-11T14:10:53Z</time>
      </trkpt>
      <trkpt lat="44.87857" lon="6.48849">
        <ele>1469</ele>
        <time>2024-08-11T14:10:54Z</time>
      </trkpt>
      <trkpt lat="44.87856" lon="6.48853">
        <ele>1468.8</ele>
        <time>2024-08-11T14:10:55Z</time>
      </trkpt>
      <trkpt lat="44.87856" lon="6.48853">
        <ele>1468.6</ele>
        <time>2024-08-11T14:10:56Z</time>
      </trkpt>
      <trkpt lat="44.87856" lon="6.48858">
        <ele>1468.4</ele>
        <time>2024-08-11T14:10:57Z</time>
      </trkpt>
      <trkpt lat="44.87855" lon="6.48861">
        <ele>1468.2</ele>
        <time>2024-08-11T14:10:58Z</time>
      </trkpt>
      <trkpt lat="44.87855" lon="6.48861">
        <ele>1468.2</ele>
        <time>2024-08-11T14:10:59Z</time>
      </trkpt>
      <trkpt lat="44.87854" lon="6.48866">
        <ele>1468.2</ele>
        <time>2024-08-11T14:11:00Z</time>
      </trkpt>
      <trkpt lat="44.87854" lon="6.48866">
        <ele>1467.8</ele>
        <time>2024-08-11T14:11:01Z</time>
      </trkpt>
      <trkpt lat="44.87853" lon="6.48868">
        <ele>1467.8</ele>
        <time>2024-08-11T14:11:02Z</time>
      </trkpt>
      <trkpt lat="44.87853" lon="6.48868">
        <ele>1467.8</ele>
        <time>2024-08-11T14:11:03Z</time>
      </trkpt>
      <trkpt lat="44.8785" lon="6.48871">
        <ele>1468</ele>
        <time>2024-08-11T14:11:04Z</time>
      </trkpt>
      <trkpt lat="44.87849" lon="6.48872">
        <ele>1468</ele>
        <time>2024-08-11T14:11:05Z</time>
      </trkpt>
      <trkpt lat="44.87849" lon="6.48872">
        <ele>1467.6</ele>
        <time>2024-08-11T14:11:06Z</time>
      </trkpt>
      <trkpt lat="44.87847" lon="6.48874">
        <ele>1467.4</ele>
        <time>2024-08-11T14:11:07Z</time>
      </trkpt>
      <trkpt lat="44.87845" lon="6.48874">
        <ele>1467.4</ele>
        <time>2024-08-11T14:11:08Z</time>
      </trkpt>
      <trkpt lat="44.87845" lon="6.48874">
        <ele>1467.4</ele>
        <time>2024-08-11T14:11:09Z</time>
      </trkpt>
      <trkpt lat="44.87842" lon="6.48875">
        <ele>1467.4</ele>
        <time>2024-08-11T14:11:10Z</time>
      </trkpt>
      <trkpt lat="44.87842" lon="6.48875">
        <ele>1467.2</ele>
        <time>2024-08-11T14:11:11Z</time>
      </trkpt>
      <trkpt lat="44.8784" lon="6.48877">
        <ele>1467</ele>
        <time>2024-08-11T14:11:12Z</time>
      </trkpt>
      <trkpt lat="44.8784" lon="6.48877">
        <ele>1467</ele>
        <time>2024-08-11T14:11:13Z</time>
      </trkpt>
      <trkpt lat="44.87838" lon="6.48879">
        <ele>1467</ele>
        <time>2024-08-11T14:11:14Z</time>
      </trkpt>
      <trkpt lat="44.87838" lon="6.48879">
        <ele>1466.8</ele>
        <time>2024-08-11T14:11:15Z</time>
      </trkpt>
      <trkpt lat="44.87836" lon="6.48881">
        <ele>1466.8</ele>
        <time>2024-08-11T14:11:16Z</time>
      </trkpt>
      <trkpt lat="44.87836" lon="6.48881">
        <ele>1466.8</ele>
        <time>2024-08-11T14:11:17Z</time>
      </trkpt>
      <trkpt lat="44.87833" lon="6.48883">
        <ele>1466.8</ele>
        <time>2024-08-11T14:11:18Z</time>
      </trkpt>
      <trkpt lat="44.87833" lon="6.48883">
        <ele>1466.8</ele>
        <time>2024-08-11T14:11:19Z</time>
      </trkpt>
      <trkpt lat="44.87831" lon="6.48886">
        <ele>1466.6</ele>
        <time>2024-08-11T14:11:20Z</time>
      </trkpt>
      <trkpt lat="44.87831" lon="6.48886">
        <ele>1466.6</ele>
        <time>2024-08-11T14:11:21Z</time>
      </trkpt>
      <trkpt lat="44.87829" lon="6.48888">
        <ele>1466.4</ele>
        <time>2024-08-11T14:11:22Z</time>
      </trkpt>
      <trkpt lat="44.87829" lon="6.48888">
        <ele>1466.4</ele>
        <time>2024-08-11T14:11:23Z</time>
      </trkpt>
      <trkpt lat="44.87827" lon="6.4889">
        <ele>1466.4</ele>
        <time>2024-08-11T14:11:24Z</time>
      </trkpt>
      <trkpt lat="44.87827" lon="6.4889">
        <ele>1466.4</ele>
        <time>2024-08-11T14:11:25Z</time>
      </trkpt>
      <trkpt lat="44.87825" lon="6.48894">
        <ele>1466.6</ele>
        <time>2024-08-11T14:11:26Z</time>
      </trkpt>
      <trkpt lat="44.87825" lon="6.48894">
        <ele>1466.6</ele>
        <time>2024-08-11T14:11:27Z</time>
      </trkpt>
      <trkpt lat="44.87823" lon="6.48896">
        <ele>1466.6</ele>
        <time>2024-08-11T14:11:28Z</time>
      </trkpt>
      <trkpt lat="44.87823" lon="6.48896">
        <ele>1466.8</ele>
        <time>2024-08-11T14:11:29Z</time>
      </trkpt>
      <trkpt lat="44.87821" lon="6.48899">
        <ele>1466.8</ele>
        <time>2024-08-11T14:11:30Z</time>
      </trkpt>
      <trkpt lat="44.87821" lon="6.48899">
        <ele>1466.8</ele>
        <time>2024-08-11T14:11:31Z</time>
      </trkpt>
      <trkpt lat="44.87819" lon="6.48901">
        <ele>1466.8</ele>
        <time>2024-08-11T14:11:32Z</time>
      </trkpt>
      <trkpt lat="44.87819" lon="6.48901">
        <ele>1466.4</ele>
        <time>2024-08-11T14:11:33Z</time>
      </trkpt>
      <trkpt lat="44.87817" lon="6.48902">
        <ele>1466.4</ele>
        <time>2024-08-11T14:11:34Z</time>
      </trkpt>
      <trkpt lat="44.87817" lon="6.48902">
        <ele>1466.4</ele>
        <time>2024-08-11T14:11:35Z</time>
      </trkpt>
      <trkpt lat="44.87815" lon="6.48904">
        <ele>1466.6</ele>
        <time>2024-08-11T14:11:36Z</time>
      </trkpt>
      <trkpt lat="44.87815" lon="6.48904">
        <ele>1466.4</ele>
        <time>2024-08-11T14:11:37Z</time>
      </trkpt>
      <trkpt lat="44.87813" lon="6.48906">
        <ele>1466.4</ele>
        <time>2024-08-11T14:11:38Z</time>
      </trkpt>
      <trkpt lat="44.87813" lon="6.48906">
        <ele>1466.2</ele>
        <time>2024-08-11T14:11:39Z</time>
      </trkpt>
      <trkpt lat="44.87811" lon="6.48909">
        <ele>1466.2</ele>
        <time>2024-08-11T14:11:40Z</time>
      </trkpt>
      <trkpt lat="44.87811" lon="6.48909">
        <ele>1466</ele>
        <time>2024-08-11T14:11:41Z</time>
      </trkpt>
      <trkpt lat="44.8781" lon="6.48912">
        <ele>1465.8</ele>
        <time>2024-08-11T14:11:42Z</time>
      </trkpt>
      <trkpt lat="44.8781" lon="6.48912">
        <ele>1465.8</ele>
        <time>2024-08-11T14:11:43Z</time>
      </trkpt>
      <trkpt lat="44.87809" lon="6.48915">
        <ele>1465.6</ele>
        <time>2024-08-11T14:11:44Z</time>
      </trkpt>
      <trkpt lat="44.87809" lon="6.48915">
        <ele>1465.4</ele>
        <time>2024-08-11T14:11:45Z</time>
      </trkpt>
      <trkpt lat="44.87808" lon="6.48919">
        <ele>1465.4</ele>
        <time>2024-08-11T14:11:46Z</time>
      </trkpt>
      <trkpt lat="44.87808" lon="6.48919">
        <ele>1465.2</ele>
        <time>2024-08-11T14:11:47Z</time>
      </trkpt>
      <trkpt lat="44.87806" lon="6.48922">
        <ele>1465</ele>
        <time>2024-08-11T14:11:48Z</time>
      </trkpt>
      <trkpt lat="44.87806" lon="6.48922">
        <ele>1465</ele>
        <time>2024-08-11T14:11:49Z</time>
      </trkpt>
      <trkpt lat="44.87806" lon="6.48924">
        <ele>1465</ele>
        <time>2024-08-11T14:11:50Z</time>
      </trkpt>
      <trkpt lat="44.87806" lon="6.48924">
        <ele>1465</ele>
        <time>2024-08-11T14:11:51Z</time>
      </trkpt>
      <trkpt lat="44.87805" lon="6.48926">
        <ele>1464.8</ele>
        <time>2024-08-11T14:11:52Z</time>
      </trkpt>
      <trkpt lat="44.87805" lon="6.48926">
        <ele>1464.6</ele>
        <time>2024-08-11T14:11:53Z</time>
      </trkpt>
      <trkpt lat="44.87804" lon="6.4893">
        <ele>1464.2</ele>
        <time>2024-08-11T14:11:54Z</time>
      </trkpt>
      <trkpt lat="44.87804" lon="6.4893">
        <ele>1464.2</ele>
        <time>2024-08-11T14:11:55Z</time>
      </trkpt>
      <trkpt lat="44.87802" lon="6.48932">
        <ele>1464</ele>
        <time>2024-08-11T14:11:56Z</time>
      </trkpt>
      <trkpt lat="44.87802" lon="6.48932">
        <ele>1464</ele>
        <time>2024-08-11T14:11:57Z</time>
      </trkpt>
      <trkpt lat="44.878" lon="6.48936">
        <ele>1464</ele>
        <time>2024-08-11T14:11:58Z</time>
      </trkpt>
      <trkpt lat="44.878" lon="6.48936">
        <ele>1464</ele>
        <time>2024-08-11T14:11:59Z</time>
      </trkpt>
      <trkpt lat="44.87799" lon="6.48939">
        <ele>1464</ele>
        <time>2024-08-11T14:12:00Z</time>
      </trkpt>
      <trkpt lat="44.87799" lon="6.48939">
        <ele>1463.6</ele>
        <time>2024-08-11T14:12:01Z</time>
      </trkpt>
      <trkpt lat="44.87798" lon="6.48942">
        <ele>1463.2</ele>
        <time>2024-08-11T14:12:02Z</time>
      </trkpt>
      <trkpt lat="44.87798" lon="6.48942">
        <ele>1463.2</ele>
        <time>2024-08-11T14:12:03Z</time>
      </trkpt>
      <trkpt lat="44.87797" lon="6.48946">
        <ele>1463.2</ele>
        <time>2024-08-11T14:12:04Z</time>
      </trkpt>
      <trkpt lat="44.87797" lon="6.48946">
        <ele>1463</ele>
        <time>2024-08-11T14:12:05Z</time>
      </trkpt>
      <trkpt lat="44.87795" lon="6.48949">
        <ele>1463</ele>
        <time>2024-08-11T14:12:06Z</time>
      </trkpt>
      <trkpt lat="44.87795" lon="6.48949">
        <ele>1462.8</ele>
        <time>2024-08-11T14:12:07Z</time>
      </trkpt>
      <trkpt lat="44.87795" lon="6.48954">
        <ele>1462.8</ele>
        <time>2024-08-11T14:12:08Z</time>
      </trkpt>
      <trkpt lat="44.87795" lon="6.48954">
        <ele>1462.8</ele>
        <time>2024-08-11T14:12:09Z</time>
      </trkpt>
      <trkpt lat="44.87795" lon="6.48957">
        <ele>1462.8</ele>
        <time>2024-08-11T14:12:10Z</time>
      </trkpt>
      <trkpt lat="44.87795" lon="6.48957">
        <ele>1462.8</ele>
        <time>2024-08-11T14:12:11Z</time>
      </trkpt>
      <trkpt lat="44.87795" lon="6.48961">
        <ele>1462.6</ele>
        <time>2024-08-11T14:12:12Z</time>
      </trkpt>
      <trkpt lat="44.87795" lon="6.48961">
        <ele>1462.4</ele>
        <time>2024-08-11T14:12:13Z</time>
      </trkpt>
      <trkpt lat="44.87793" lon="6.48964">
        <ele>1462.2</ele>
        <time>2024-08-11T14:12:14Z</time>
      </trkpt>
      <trkpt lat="44.87793" lon="6.48964">
        <ele>1462</ele>
        <time>2024-08-11T14:12:15Z</time>
      </trkpt>
      <trkpt lat="44.87793" lon="6.48968">
        <ele>1462</ele>
        <time>2024-08-11T14:12:16Z</time>
      </trkpt>
      <trkpt lat="44.87793" lon="6.48968">
        <ele>1462</ele>
        <time>2024-08-11T14:12:17Z</time>
      </trkpt>
      <trkpt lat="44.87793" lon="6.48972">
        <ele>1462.2</ele>
        <time>2024-08-11T14:12:18Z</time>
      </trkpt>
      <trkpt lat="44.87793" lon="6.48972">
        <ele>1462.2</ele>
        <time>2024-08-11T14:12:19Z</time>
      </trkpt>
      <trkpt lat="44.87792" lon="6.48976">
        <ele>1462</ele>
        <time>2024-08-11T14:12:20Z</time>
      </trkpt>
      <trkpt lat="44.87792" lon="6.48976">
        <ele>1461.8</ele>
        <time>2024-08-11T14:12:21Z</time>
      </trkpt>
      <trkpt lat="44.8779" lon="6.48977">
        <ele>1461.8</ele>
        <time>2024-08-11T14:12:22Z</time>
      </trkpt>
      <trkpt lat="44.8779" lon="6.48977">
        <ele>1461.8</ele>
        <time>2024-08-11T14:12:23Z</time>
      </trkpt>
      <trkpt lat="44.87788" lon="6.48979">
        <ele>1461.8</ele>
        <time>2024-08-11T14:12:24Z</time>
      </trkpt>
      <trkpt lat="44.87788" lon="6.48979">
        <ele>1461.6</ele>
        <time>2024-08-11T14:12:25Z</time>
      </trkpt>
      <trkpt lat="44.87786" lon="6.4898">
        <ele>1461.4</ele>
        <time>2024-08-11T14:12:26Z</time>
      </trkpt>
      <trkpt lat="44.87786" lon="6.4898">
        <ele>1461.4</ele>
        <time>2024-08-11T14:12:27Z</time>
      </trkpt>
      <trkpt lat="44.87783" lon="6.48983">
        <ele>1461.4</ele>
        <time>2024-08-11T14:12:28Z</time>
      </trkpt>
      <trkpt lat="44.87783" lon="6.48983">
        <ele>1461.4</ele>
        <time>2024-08-11T14:12:29Z</time>
      </trkpt>
      <trkpt lat="44.87781" lon="6.48986">
        <ele>1461.4</ele>
        <time>2024-08-11T14:12:30Z</time>
      </trkpt>
      <trkpt lat="44.87781" lon="6.48986">
        <ele>1461.4</ele>
        <time>2024-08-11T14:12:31Z</time>
      </trkpt>
      <trkpt lat="44.8778" lon="6.48989">
        <ele>1461.4</ele>
        <time>2024-08-11T14:12:32Z</time>
      </trkpt>
      <trkpt lat="44.8778" lon="6.48989">
        <ele>1461</ele>
        <time>2024-08-11T14:12:33Z</time>
      </trkpt>
      <trkpt lat="44.87778" lon="6.48993">
        <ele>1461</ele>
        <time>2024-08-11T14:12:34Z</time>
      </trkpt>
      <trkpt lat="44.87778" lon="6.48993">
        <ele>1461</ele>
        <time>2024-08-11T14:12:35Z</time>
      </trkpt>
      <trkpt lat="44.87777" lon="6.48996">
        <ele>1461.2</ele>
        <time>2024-08-11T14:12:36Z</time>
      </trkpt>
      <trkpt lat="44.87777" lon="6.48996">
        <ele>1461.2</ele>
        <time>2024-08-11T14:12:37Z</time>
      </trkpt>
      <trkpt lat="44.87774" lon="6.48999">
        <ele>1461.4</ele>
        <time>2024-08-11T14:12:38Z</time>
      </trkpt>
      <trkpt lat="44.87774" lon="6.48999">
        <ele>1461.4</ele>
        <time>2024-08-11T14:12:39Z</time>
      </trkpt>
      <trkpt lat="44.87772" lon="6.49001">
        <ele>1461</ele>
        <time>2024-08-11T14:12:40Z</time>
      </trkpt>
      <trkpt lat="44.87772" lon="6.49001">
        <ele>1461</ele>
        <time>2024-08-11T14:12:41Z</time>
      </trkpt>
      <trkpt lat="44.8777" lon="6.49004">
        <ele>1460.8</ele>
        <time>2024-08-11T14:12:42Z</time>
      </trkpt>
      <trkpt lat="44.8777" lon="6.49004">
        <ele>1460.6</ele>
        <time>2024-08-11T14:12:43Z</time>
      </trkpt>
      <trkpt lat="44.87768" lon="6.49006">
        <ele>1460.4</ele>
        <time>2024-08-11T14:12:44Z</time>
      </trkpt>
      <trkpt lat="44.87768" lon="6.49006">
        <ele>1460.4</ele>
        <time>2024-08-11T14:12:45Z</time>
      </trkpt>
      <trkpt lat="44.87766" lon="6.49009">
        <ele>1460.2</ele>
        <time>2024-08-11T14:12:46Z</time>
      </trkpt>
      <trkpt lat="44.87766" lon="6.49009">
        <ele>1460.2</ele>
        <time>2024-08-11T14:12:47Z</time>
      </trkpt>
      <trkpt lat="44.87765" lon="6.49013">
        <ele>1460</ele>
        <time>2024-08-11T14:12:48Z</time>
      </trkpt>
      <trkpt lat="44.87765" lon="6.49013">
        <ele>1460</ele>
        <time>2024-08-11T14:12:49Z</time>
      </trkpt>
      <trkpt lat="44.87765" lon="6.49017">
        <ele>1460</ele>
        <time>2024-08-11T14:12:50Z</time>
      </trkpt>
      <trkpt lat="44.87765" lon="6.49017">
        <ele>1460</ele>
        <time>2024-08-11T14:12:51Z</time>
      </trkpt>
      <trkpt lat="44.87764" lon="6.4902">
        <ele>1459.8</ele>
        <time>2024-08-11T14:12:52Z</time>
      </trkpt>
      <trkpt lat="44.87764" lon="6.4902">
        <ele>1459.8</ele>
        <time>2024-08-11T14:12:53Z</time>
      </trkpt>
      <trkpt lat="44.87763" lon="6.49024">
        <ele>1459.8</ele>
        <time>2024-08-11T14:12:54Z</time>
      </trkpt>
      <trkpt lat="44.87763" lon="6.49024">
        <ele>1459.8</ele>
        <time>2024-08-11T14:12:55Z</time>
      </trkpt>
      <trkpt lat="44.87763" lon="6.49028">
        <ele>1459.6</ele>
        <time>2024-08-11T14:12:56Z</time>
      </trkpt>
      <trkpt lat="44.87763" lon="6.49028">
        <ele>1459.4</ele>
        <time>2024-08-11T14:12:57Z</time>
      </trkpt>
      <trkpt lat="44.87763" lon="6.49032">
        <ele>1459.4</ele>
        <time>2024-08-11T14:12:58Z</time>
      </trkpt>
      <trkpt lat="44.87763" lon="6.49032">
        <ele>1459.4</ele>
        <time>2024-08-11T14:12:59Z</time>
      </trkpt>
      <trkpt lat="44.87762" lon="6.49034">
        <ele>1459.4</ele>
        <time>2024-08-11T14:13:00Z</time>
      </trkpt>
      <trkpt lat="44.87762" lon="6.49034">
        <ele>1459.4</ele>
        <time>2024-08-11T14:13:01Z</time>
      </trkpt>
      <trkpt lat="44.87762" lon="6.49034">
        <ele>1459.2</ele>
        <time>2024-08-11T14:13:02Z</time>
      </trkpt>
      <trkpt lat="44.8776" lon="6.49038">
        <ele>1459.2</ele>
        <time>2024-08-11T14:13:03Z</time>
      </trkpt>
      <trkpt lat="44.8776" lon="6.49038">
        <ele>1459</ele>
        <time>2024-08-11T14:13:04Z</time>
      </trkpt>
      <trkpt lat="44.87758" lon="6.49041">
        <ele>1459</ele>
        <time>2024-08-11T14:13:05Z</time>
      </trkpt>
      <trkpt lat="44.87758" lon="6.49041">
        <ele>1458.8</ele>
        <time>2024-08-11T14:13:06Z</time>
      </trkpt>
      <trkpt lat="44.87757" lon="6.49042">
        <ele>1458.8</ele>
        <time>2024-08-11T14:13:07Z</time>
      </trkpt>
      <trkpt lat="44.87757" lon="6.49042">
        <ele>1458.6</ele>
        <time>2024-08-11T14:13:08Z</time>
      </trkpt>
      <trkpt lat="44.87754" lon="6.49042">
        <ele>1458.6</ele>
        <time>2024-08-11T14:13:09Z</time>
      </trkpt>
      <trkpt lat="44.87754" lon="6.49042">
        <ele>1458.6</ele>
        <time>2024-08-11T14:13:10Z</time>
      </trkpt>
      <trkpt lat="44.87751" lon="6.49041">
        <ele>1458.6</ele>
        <time>2024-08-11T14:13:11Z</time>
      </trkpt>
      <trkpt lat="44.87751" lon="6.49041">
        <ele>1458.6</ele>
        <time>2024-08-11T14:13:12Z</time>
      </trkpt>
      <trkpt lat="44.87749" lon="6.49041">
        <ele>1458.6</ele>
        <time>2024-08-11T14:13:13Z</time>
      </trkpt>
      <trkpt lat="44.87749" lon="6.49041">
        <ele>1458.6</ele>
        <time>2024-08-11T14:13:14Z</time>
      </trkpt>
      <trkpt lat="44.87745" lon="6.49041">
        <ele>1458.6</ele>
        <time>2024-08-11T14:13:15Z</time>
      </trkpt>
      <trkpt lat="44.87745" lon="6.49041">
        <ele>1458.4</ele>
        <time>2024-08-11T14:13:16Z</time>
      </trkpt>
      <trkpt lat="44.87743" lon="6.49042">
        <ele>1458.4</ele>
        <time>2024-08-11T14:13:17Z</time>
      </trkpt>
      <trkpt lat="44.87741" lon="6.49044">
        <ele>1458.4</ele>
        <time>2024-08-11T14:13:18Z</time>
      </trkpt>
      <trkpt lat="44.87741" lon="6.49044">
        <ele>1458.4</ele>
        <time>2024-08-11T14:13:19Z</time>
      </trkpt>
      <trkpt lat="44.87739" lon="6.49046">
        <ele>1458.2</ele>
        <time>2024-08-11T14:13:20Z</time>
      </trkpt>
      <trkpt lat="44.87739" lon="6.49046">
        <ele>1458.2</ele>
        <time>2024-08-11T14:13:21Z</time>
      </trkpt>
      <trkpt lat="44.87737" lon="6.49049">
        <ele>1458.2</ele>
        <time>2024-08-11T14:13:22Z</time>
      </trkpt>
      <trkpt lat="44.87737" lon="6.49049">
        <ele>1458.2</ele>
        <time>2024-08-11T14:13:23Z</time>
      </trkpt>
      <trkpt lat="44.87734" lon="6.4905">
        <ele>1458.2</ele>
        <time>2024-08-11T14:13:24Z</time>
      </trkpt>
      <trkpt lat="44.87734" lon="6.4905">
        <ele>1458</ele>
        <time>2024-08-11T14:13:25Z</time>
      </trkpt>
      <trkpt lat="44.87732" lon="6.49052">
        <ele>1458.2</ele>
        <time>2024-08-11T14:13:26Z</time>
      </trkpt>
      <trkpt lat="44.87732" lon="6.49052">
        <ele>1458.2</ele>
        <time>2024-08-11T14:13:27Z</time>
      </trkpt>
      <trkpt lat="44.8773" lon="6.49054">
        <ele>1458.2</ele>
        <time>2024-08-11T14:13:28Z</time>
      </trkpt>
      <trkpt lat="44.8773" lon="6.49054">
        <ele>1458.2</ele>
        <time>2024-08-11T14:13:29Z</time>
      </trkpt>
      <trkpt lat="44.87728" lon="6.49056">
        <ele>1458</ele>
        <time>2024-08-11T14:13:30Z</time>
      </trkpt>
      <trkpt lat="44.87728" lon="6.49056">
        <ele>1457.8</ele>
        <time>2024-08-11T14:13:31Z</time>
      </trkpt>
      <trkpt lat="44.87726" lon="6.49059">
        <ele>1457.8</ele>
        <time>2024-08-11T14:13:32Z</time>
      </trkpt>
      <trkpt lat="44.87726" lon="6.49059">
        <ele>1457.8</ele>
        <time>2024-08-11T14:13:33Z</time>
      </trkpt>
      <trkpt lat="44.87724" lon="6.49063">
        <ele>1457.8</ele>
        <time>2024-08-11T14:13:34Z</time>
      </trkpt>
      <trkpt lat="44.87724" lon="6.49063">
        <ele>1457.8</ele>
        <time>2024-08-11T14:13:35Z</time>
      </trkpt>
      <trkpt lat="44.87722" lon="6.49067">
        <ele>1458</ele>
        <time>2024-08-11T14:13:36Z</time>
      </trkpt>
      <trkpt lat="44.87722" lon="6.49067">
        <ele>1458.6</ele>
        <time>2024-08-11T14:13:37Z</time>
      </trkpt>
      <trkpt lat="44.87721" lon="6.4907">
        <ele>1458.6</ele>
        <time>2024-08-11T14:13:38Z</time>
      </trkpt>
      <trkpt lat="44.87721" lon="6.4907">
        <ele>1458.4</ele>
        <time>2024-08-11T14:13:39Z</time>
      </trkpt>
      <trkpt lat="44.87719" lon="6.49072">
        <ele>1458.4</ele>
        <time>2024-08-11T14:13:40Z</time>
      </trkpt>
      <trkpt lat="44.87719" lon="6.49072">
        <ele>1458.4</ele>
        <time>2024-08-11T14:13:41Z</time>
      </trkpt>
      <trkpt lat="44.87717" lon="6.49073">
        <ele>1458.6</ele>
        <time>2024-08-11T14:13:42Z</time>
      </trkpt>
      <trkpt lat="44.87717" lon="6.49073">
        <ele>1458.6</ele>
        <time>2024-08-11T14:13:43Z</time>
      </trkpt>
      <trkpt lat="44.87714" lon="6.49075">
        <ele>1458.6</ele>
        <time>2024-08-11T14:13:44Z</time>
      </trkpt>
      <trkpt lat="44.87714" lon="6.49075">
        <ele>1458.4</ele>
        <time>2024-08-11T14:13:45Z</time>
      </trkpt>
      <trkpt lat="44.87712" lon="6.49079">
        <ele>1458.4</ele>
        <time>2024-08-11T14:13:46Z</time>
      </trkpt>
      <trkpt lat="44.87712" lon="6.49079">
        <ele>1458.4</ele>
        <time>2024-08-11T14:13:47Z</time>
      </trkpt>
      <trkpt lat="44.87711" lon="6.49081">
        <ele>1458.4</ele>
        <time>2024-08-11T14:13:48Z</time>
      </trkpt>
      <trkpt lat="44.87711" lon="6.49081">
        <ele>1458.4</ele>
        <time>2024-08-11T14:13:49Z</time>
      </trkpt>
      <trkpt lat="44.87711" lon="6.49081">
        <ele>1458.4</ele>
        <time>2024-08-11T14:13:50Z</time>
      </trkpt>
      <trkpt lat="44.8771" lon="6.49083">
        <ele>1458.2</ele>
        <time>2024-08-11T14:13:51Z</time>
      </trkpt>
      <trkpt lat="44.8771" lon="6.49083">
        <ele>1458.2</ele>
        <time>2024-08-11T14:13:52Z</time>
      </trkpt>
      <trkpt lat="44.8771" lon="6.49083">
        <ele>1458</ele>
        <time>2024-08-11T14:13:53Z</time>
      </trkpt>
      <trkpt lat="44.87707" lon="6.49086">
        <ele>1458</ele>
        <time>2024-08-11T14:13:54Z</time>
      </trkpt>
      <trkpt lat="44.87707" lon="6.49086">
        <ele>1458</ele>
        <time>2024-08-11T14:13:55Z</time>
      </trkpt>
      <trkpt lat="44.87704" lon="6.49088">
        <ele>1457.8</ele>
        <time>2024-08-11T14:13:56Z</time>
      </trkpt>
      <trkpt lat="44.87704" lon="6.49088">
        <ele>1457.6</ele>
        <time>2024-08-11T14:13:57Z</time>
      </trkpt>
      <trkpt lat="44.87701" lon="6.49089">
        <ele>1457.6</ele>
        <time>2024-08-11T14:13:58Z</time>
      </trkpt>
      <trkpt lat="44.87701" lon="6.49089">
        <ele>1457.6</ele>
        <time>2024-08-11T14:13:59Z</time>
      </trkpt>
      <trkpt lat="44.87698" lon="6.49091">
        <ele>1457.6</ele>
        <time>2024-08-11T14:14:00Z</time>
      </trkpt>
      <trkpt lat="44.87698" lon="6.49091">
        <ele>1457.6</ele>
        <time>2024-08-11T14:14:01Z</time>
      </trkpt>
      <trkpt lat="44.87696" lon="6.49093">
        <ele>1457.6</ele>
        <time>2024-08-11T14:14:02Z</time>
      </trkpt>
      <trkpt lat="44.87696" lon="6.49093">
        <ele>1457.6</ele>
        <time>2024-08-11T14:14:03Z</time>
      </trkpt>
      <trkpt lat="44.87694" lon="6.49095">
        <ele>1457.6</ele>
        <time>2024-08-11T14:14:04Z</time>
      </trkpt>
      <trkpt lat="44.87694" lon="6.49095">
        <ele>1457.6</ele>
        <time>2024-08-11T14:14:05Z</time>
      </trkpt>
      <trkpt lat="44.87691" lon="6.49096">
        <ele>1457.4</ele>
        <time>2024-08-11T14:14:06Z</time>
      </trkpt>
      <trkpt lat="44.87691" lon="6.49096">
        <ele>1457.2</ele>
        <time>2024-08-11T14:14:07Z</time>
      </trkpt>
      <trkpt lat="44.87689" lon="6.49096">
        <ele>1457.2</ele>
        <time>2024-08-11T14:14:08Z</time>
      </trkpt>
      <trkpt lat="44.87689" lon="6.49096">
        <ele>1457</ele>
        <time>2024-08-11T14:14:09Z</time>
      </trkpt>
      <trkpt lat="44.87688" lon="6.49098">
        <ele>1457</ele>
        <time>2024-08-11T14:14:10Z</time>
      </trkpt>
      <trkpt lat="44.87688" lon="6.49098">
        <ele>1457</ele>
        <time>2024-08-11T14:14:11Z</time>
      </trkpt>
      <trkpt lat="44.87686" lon="6.49101">
        <ele>1457.2</ele>
        <time>2024-08-11T14:14:12Z</time>
      </trkpt>
      <trkpt lat="44.87686" lon="6.49101">
        <ele>1457.2</ele>
        <time>2024-08-11T14:14:13Z</time>
      </trkpt>
      <trkpt lat="44.87684" lon="6.49103">
        <ele>1457.2</ele>
        <time>2024-08-11T14:14:14Z</time>
      </trkpt>
      <trkpt lat="44.87684" lon="6.49103">
        <ele>1457.2</ele>
        <time>2024-08-11T14:14:15Z</time>
      </trkpt>
      <trkpt lat="44.8768" lon="6.49104">
        <ele>1457.2</ele>
        <time>2024-08-11T14:14:16Z</time>
      </trkpt>
      <trkpt lat="44.87678" lon="6.49104">
        <ele>1457</ele>
        <time>2024-08-11T14:14:17Z</time>
      </trkpt>
      <trkpt lat="44.87678" lon="6.49104">
        <ele>1457</ele>
        <time>2024-08-11T14:14:18Z</time>
      </trkpt>
      <trkpt lat="44.87676" lon="6.49105">
        <ele>1457</ele>
        <time>2024-08-11T14:14:19Z</time>
      </trkpt>
      <trkpt lat="44.87676" lon="6.49105">
        <ele>1456.8</ele>
        <time>2024-08-11T14:14:20Z</time>
      </trkpt>
      <trkpt lat="44.87673" lon="6.49106">
        <ele>1456.8</ele>
        <time>2024-08-11T14:14:21Z</time>
      </trkpt>
      <trkpt lat="44.87673" lon="6.49106">
        <ele>1456.6</ele>
        <time>2024-08-11T14:14:22Z</time>
      </trkpt>
      <trkpt lat="44.8767" lon="6.49106">
        <ele>1456.4</ele>
        <time>2024-08-11T14:14:23Z</time>
      </trkpt>
      <trkpt lat="44.8767" lon="6.49106">
        <ele>1456.4</ele>
        <time>2024-08-11T14:14:24Z</time>
      </trkpt>
      <trkpt lat="44.87669" lon="6.49108">
        <ele>1456.4</ele>
        <time>2024-08-11T14:14:25Z</time>
      </trkpt>
      <trkpt lat="44.87668" lon="6.49111">
        <ele>1456.2</ele>
        <time>2024-08-11T14:14:26Z</time>
      </trkpt>
      <trkpt lat="44.87666" lon="6.49113">
        <ele>1456.2</ele>
        <time>2024-08-11T14:14:27Z</time>
      </trkpt>
      <trkpt lat="44.87664" lon="6.49114">
        <ele>1456.2</ele>
        <time>2024-08-11T14:14:28Z</time>
      </trkpt>
      <trkpt lat="44.87662" lon="6.49116">
        <ele>1456.4</ele>
        <time>2024-08-11T14:14:29Z</time>
      </trkpt>
      <trkpt lat="44.87662" lon="6.49116">
        <ele>1456.4</ele>
        <time>2024-08-11T14:14:30Z</time>
      </trkpt>
      <trkpt lat="44.87661" lon="6.49118">
        <ele>1456.4</ele>
        <time>2024-08-11T14:14:31Z</time>
      </trkpt>
      <trkpt lat="44.87661" lon="6.49118">
        <ele>1456.4</ele>
        <time>2024-08-11T14:14:32Z</time>
      </trkpt>
      <trkpt lat="44.8766" lon="6.49121">
        <ele>1456.2</ele>
        <time>2024-08-11T14:14:33Z</time>
      </trkpt>
      <trkpt lat="44.8766" lon="6.49121">
        <ele>1456.2</ele>
        <time>2024-08-11T14:14:34Z</time>
      </trkpt>
      <trkpt lat="44.87657" lon="6.49123">
        <ele>1456.2</ele>
        <time>2024-08-11T14:14:35Z</time>
      </trkpt>
      <trkpt lat="44.87657" lon="6.49123">
        <ele>1456.2</ele>
        <time>2024-08-11T14:14:36Z</time>
      </trkpt>
      <trkpt lat="44.87656" lon="6.49125">
        <ele>1456</ele>
        <time>2024-08-11T14:14:37Z</time>
      </trkpt>
      <trkpt lat="44.87656" lon="6.49125">
        <ele>1456</ele>
        <time>2024-08-11T14:14:38Z</time>
      </trkpt>
      <trkpt lat="44.87653" lon="6.49128">
        <ele>1456</ele>
        <time>2024-08-11T14:14:39Z</time>
      </trkpt>
      <trkpt lat="44.87653" lon="6.49128">
        <ele>1456</ele>
        <time>2024-08-11T14:14:40Z</time>
      </trkpt>
      <trkpt lat="44.87652" lon="6.49131">
        <ele>1456</ele>
        <time>2024-08-11T14:14:41Z</time>
      </trkpt>
      <trkpt lat="44.87652" lon="6.49131">
        <ele>1456</ele>
        <time>2024-08-11T14:14:42Z</time>
      </trkpt>
      <trkpt lat="44.87649" lon="6.49134">
        <ele>1456</ele>
        <time>2024-08-11T14:14:43Z</time>
      </trkpt>
      <trkpt lat="44.87649" lon="6.49134">
        <ele>1456</ele>
        <time>2024-08-11T14:14:44Z</time>
      </trkpt>
      <trkpt lat="44.87648" lon="6.49137">
        <ele>1456.2</ele>
        <time>2024-08-11T14:14:45Z</time>
      </trkpt>
      <trkpt lat="44.87648" lon="6.49137">
        <ele>1456.2</ele>
        <time>2024-08-11T14:14:46Z</time>
      </trkpt>
      <trkpt lat="44.87646" lon="6.4914">
        <ele>1456.2</ele>
        <time>2024-08-11T14:14:47Z</time>
      </trkpt>
      <trkpt lat="44.87646" lon="6.4914">
        <ele>1456</ele>
        <time>2024-08-11T14:14:48Z</time>
      </trkpt>
      <trkpt lat="44.87646" lon="6.4914">
        <ele>1456</ele>
        <time>2024-08-11T14:14:49Z</time>
      </trkpt>
      <trkpt lat="44.87644" lon="6.49143">
        <ele>1455.8</ele>
        <time>2024-08-11T14:14:50Z</time>
      </trkpt>
      <trkpt lat="44.87644" lon="6.49143">
        <ele>1455.8</ele>
        <time>2024-08-11T14:14:51Z</time>
      </trkpt>
      <trkpt lat="44.87642" lon="6.49145">
        <ele>1455.8</ele>
        <time>2024-08-11T14:14:52Z</time>
      </trkpt>
      <trkpt lat="44.87642" lon="6.49145">
        <ele>1455.8</ele>
        <time>2024-08-11T14:14:53Z</time>
      </trkpt>
      <trkpt lat="44.87642" lon="6.49145">
        <ele>1455.8</ele>
        <time>2024-08-11T14:14:54Z</time>
      </trkpt>
      <trkpt lat="44.8764" lon="6.49147">
        <ele>1455.6</ele>
        <time>2024-08-11T14:14:55Z</time>
      </trkpt>
      <trkpt lat="44.8764" lon="6.49147">
        <ele>1455.6</ele>
        <time>2024-08-11T14:14:56Z</time>
      </trkpt>
      <trkpt lat="44.87637" lon="6.49147">
        <ele>1455.8</ele>
        <time>2024-08-11T14:14:57Z</time>
      </trkpt>
      <trkpt lat="44.87637" lon="6.49147">
        <ele>1455.8</ele>
        <time>2024-08-11T14:14:58Z</time>
      </trkpt>
      <trkpt lat="44.87635" lon="6.49147">
        <ele>1455.8</ele>
        <time>2024-08-11T14:14:59Z</time>
      </trkpt>
      <trkpt lat="44.87635" lon="6.49147">
        <ele>1455.8</ele>
        <time>2024-08-11T14:15:00Z</time>
      </trkpt>
      <trkpt lat="44.87632" lon="6.49148">
        <ele>1455.8</ele>
        <time>2024-08-11T14:15:01Z</time>
      </trkpt>
      <trkpt lat="44.87632" lon="6.49148">
        <ele>1455.4</ele>
        <time>2024-08-11T14:15:02Z</time>
      </trkpt>
      <trkpt lat="44.87632" lon="6.49148">
        <ele>1455.4</ele>
        <time>2024-08-11T14:15:03Z</time>
      </trkpt>
      <trkpt lat="44.87629" lon="6.49149">
        <ele>1455.4</ele>
        <time>2024-08-11T14:15:04Z</time>
      </trkpt>
      <trkpt lat="44.87629" lon="6.49149">
        <ele>1455.4</ele>
        <time>2024-08-11T14:15:05Z</time>
      </trkpt>
      <trkpt lat="44.87627" lon="6.49151">
        <ele>1455.2</ele>
        <time>2024-08-11T14:15:06Z</time>
      </trkpt>
      <trkpt lat="44.87627" lon="6.49151">
        <ele>1455.2</ele>
        <time>2024-08-11T14:15:07Z</time>
      </trkpt>
      <trkpt lat="44.87623" lon="6.49152">
        <ele>1455.4</ele>
        <time>2024-08-11T14:15:08Z</time>
      </trkpt>
      <trkpt lat="44.87621" lon="6.49152">
        <ele>1455.4</ele>
        <time>2024-08-11T14:15:09Z</time>
      </trkpt>
      <trkpt lat="44.87621" lon="6.49152">
        <ele>1455.2</ele>
        <time>2024-08-11T14:15:10Z</time>
      </trkpt>
      <trkpt lat="44.87619" lon="6.49152">
        <ele>1455</ele>
        <time>2024-08-11T14:15:11Z</time>
      </trkpt>
      <trkpt lat="44.87619" lon="6.49152">
        <ele>1455</ele>
        <time>2024-08-11T14:15:12Z</time>
      </trkpt>
      <trkpt lat="44.87616" lon="6.49153">
        <ele>1454.6</ele>
        <time>2024-08-11T14:15:13Z</time>
      </trkpt>
      <trkpt lat="44.87614" lon="6.49154">
        <ele>1454.4</ele>
        <time>2024-08-11T14:15:14Z</time>
      </trkpt>
      <trkpt lat="44.87612" lon="6.49155">
        <ele>1454</ele>
        <time>2024-08-11T14:15:15Z</time>
      </trkpt>
      <trkpt lat="44.8761" lon="6.49156">
        <ele>1454</ele>
        <time>2024-08-11T14:15:16Z</time>
      </trkpt>
      <trkpt lat="44.8761" lon="6.49156">
        <ele>1454</ele>
        <time>2024-08-11T14:15:17Z</time>
      </trkpt>
      <trkpt lat="44.87607" lon="6.49156">
        <ele>1454</ele>
        <time>2024-08-11T14:15:18Z</time>
      </trkpt>
      <trkpt lat="44.87607" lon="6.49156">
        <ele>1454</ele>
        <time>2024-08-11T14:15:19Z</time>
      </trkpt>
      <trkpt lat="44.87605" lon="6.4916">
        <ele>1453.8</ele>
        <time>2024-08-11T14:15:20Z</time>
      </trkpt>
      <trkpt lat="44.87605" lon="6.4916">
        <ele>1453.6</ele>
        <time>2024-08-11T14:15:21Z</time>
      </trkpt>
      <trkpt lat="44.87602" lon="6.49161">
        <ele>1453.6</ele>
        <time>2024-08-11T14:15:22Z</time>
      </trkpt>
      <trkpt lat="44.87602" lon="6.49161">
        <ele>1453.6</ele>
        <time>2024-08-11T14:15:23Z</time>
      </trkpt>
      <trkpt lat="44.87598" lon="6.49162">
        <ele>1453.6</ele>
        <time>2024-08-11T14:15:24Z</time>
      </trkpt>
      <trkpt lat="44.87598" lon="6.49162">
        <ele>1453.6</ele>
        <time>2024-08-11T14:15:25Z</time>
      </trkpt>
      <trkpt lat="44.87596" lon="6.49163">
        <ele>1453.6</ele>
        <time>2024-08-11T14:15:26Z</time>
      </trkpt>
      <trkpt lat="44.87596" lon="6.49163">
        <ele>1453.6</ele>
        <time>2024-08-11T14:15:27Z</time>
      </trkpt>
      <trkpt lat="44.87595" lon="6.49166">
        <ele>1453.6</ele>
        <time>2024-08-11T14:15:28Z</time>
      </trkpt>
      <trkpt lat="44.87595" lon="6.49166">
        <ele>1453.6</ele>
        <time>2024-08-11T14:15:29Z</time>
      </trkpt>
      <trkpt lat="44.87593" lon="6.49168">
        <ele>1453.6</ele>
        <time>2024-08-11T14:15:30Z</time>
      </trkpt>
      <trkpt lat="44.87593" lon="6.49168">
        <ele>1453.4</ele>
        <time>2024-08-11T14:15:31Z</time>
      </trkpt>
      <trkpt lat="44.87592" lon="6.49171">
        <ele>1453.4</ele>
        <time>2024-08-11T14:15:32Z</time>
      </trkpt>
      <trkpt lat="44.87592" lon="6.49171">
        <ele>1453.2</ele>
        <time>2024-08-11T14:15:33Z</time>
      </trkpt>
      <trkpt lat="44.87591" lon="6.49174">
        <ele>1453.2</ele>
        <time>2024-08-11T14:15:34Z</time>
      </trkpt>
      <trkpt lat="44.87591" lon="6.49174">
        <ele>1453.2</ele>
        <time>2024-08-11T14:15:35Z</time>
      </trkpt>
      <trkpt lat="44.87591" lon="6.49178">
        <ele>1453</ele>
        <time>2024-08-11T14:15:36Z</time>
      </trkpt>
      <trkpt lat="44.87591" lon="6.49178">
        <ele>1452.8</ele>
        <time>2024-08-11T14:15:37Z</time>
      </trkpt>
      <trkpt lat="44.87591" lon="6.49183">
        <ele>1452.8</ele>
        <time>2024-08-11T14:15:38Z</time>
      </trkpt>
      <trkpt lat="44.87591" lon="6.49183">
        <ele>1452.8</ele>
        <time>2024-08-11T14:15:39Z</time>
      </trkpt>
      <trkpt lat="44.87591" lon="6.49187">
        <ele>1452.8</ele>
        <time>2024-08-11T14:15:40Z</time>
      </trkpt>
      <trkpt lat="44.87591" lon="6.49187">
        <ele>1452.8</ele>
        <time>2024-08-11T14:15:41Z</time>
      </trkpt>
      <trkpt lat="44.87593" lon="6.4919">
        <ele>1452.8</ele>
        <time>2024-08-11T14:15:42Z</time>
      </trkpt>
      <trkpt lat="44.87593" lon="6.4919">
        <ele>1452.6</ele>
        <time>2024-08-11T14:15:43Z</time>
      </trkpt>
      <trkpt lat="44.87594" lon="6.49192">
        <ele>1452.6</ele>
        <time>2024-08-11T14:15:44Z</time>
      </trkpt>
      <trkpt lat="44.87594" lon="6.49192">
        <ele>1452.6</ele>
        <time>2024-08-11T14:15:45Z</time>
      </trkpt>
      <trkpt lat="44.87596" lon="6.49194">
        <ele>1452.6</ele>
        <time>2024-08-11T14:15:46Z</time>
      </trkpt>
      <trkpt lat="44.87596" lon="6.49194">
        <ele>1452.6</ele>
        <time>2024-08-11T14:15:47Z</time>
      </trkpt>
      <trkpt lat="44.87597" lon="6.49196">
        <ele>1452.6</ele>
        <time>2024-08-11T14:15:48Z</time>
      </trkpt>
      <trkpt lat="44.87597" lon="6.49196">
        <ele>1452.6</ele>
        <time>2024-08-11T14:15:49Z</time>
      </trkpt>
      <trkpt lat="44.87598" lon="6.49201">
        <ele>1452.6</ele>
        <time>2024-08-11T14:15:50Z</time>
      </trkpt>
      <trkpt lat="44.87598" lon="6.49201">
        <ele>1452.6</ele>
        <time>2024-08-11T14:15:51Z</time>
      </trkpt>
      <trkpt lat="44.876" lon="6.49204">
        <ele>1452.6</ele>
        <time>2024-08-11T14:15:52Z</time>
      </trkpt>
      <trkpt lat="44.876" lon="6.49204">
        <ele>1452.4</ele>
        <time>2024-08-11T14:15:53Z</time>
      </trkpt>
      <trkpt lat="44.87601" lon="6.49207">
        <ele>1452.4</ele>
        <time>2024-08-11T14:15:54Z</time>
      </trkpt>
      <trkpt lat="44.87601" lon="6.49207">
        <ele>1452.4</ele>
        <time>2024-08-11T14:15:55Z</time>
      </trkpt>
      <trkpt lat="44.87601" lon="6.49211">
        <ele>1452.4</ele>
        <time>2024-08-11T14:15:56Z</time>
      </trkpt>
      <trkpt lat="44.87601" lon="6.49214">
        <ele>1452.6</ele>
        <time>2024-08-11T14:15:57Z</time>
      </trkpt>
      <trkpt lat="44.87602" lon="6.49216">
        <ele>1452.6</ele>
        <time>2024-08-11T14:15:58Z</time>
      </trkpt>
      <trkpt lat="44.87602" lon="6.49216">
        <ele>1452.6</ele>
        <time>2024-08-11T14:15:59Z</time>
      </trkpt>
      <trkpt lat="44.87602" lon="6.4922">
        <ele>1452.6</ele>
        <time>2024-08-11T14:16:00Z</time>
      </trkpt>
      <trkpt lat="44.87602" lon="6.4922">
        <ele>1452.4</ele>
        <time>2024-08-11T14:16:01Z</time>
      </trkpt>
      <trkpt lat="44.87602" lon="6.49223">
        <ele>1452.2</ele>
        <time>2024-08-11T14:16:02Z</time>
      </trkpt>
      <trkpt lat="44.876" lon="6.49225">
        <ele>1452.2</ele>
        <time>2024-08-11T14:16:03Z</time>
      </trkpt>
      <trkpt lat="44.876" lon="6.49228">
        <ele>1452</ele>
        <time>2024-08-11T14:16:04Z</time>
      </trkpt>
      <trkpt lat="44.876" lon="6.49228">
        <ele>1452</ele>
        <time>2024-08-11T14:16:05Z</time>
      </trkpt>
      <trkpt lat="44.876" lon="6.49232">
        <ele>1452</ele>
        <time>2024-08-11T14:16:06Z</time>
      </trkpt>
      <trkpt lat="44.876" lon="6.49232">
        <ele>1452.2</ele>
        <time>2024-08-11T14:16:07Z</time>
      </trkpt>
      <trkpt lat="44.87602" lon="6.49235">
        <ele>1452.4</ele>
        <time>2024-08-11T14:16:08Z</time>
      </trkpt>
      <trkpt lat="44.876" lon="6.49236">
        <ele>1452.6</ele>
        <time>2024-08-11T14:16:09Z</time>
      </trkpt>
      <trkpt lat="44.876" lon="6.49236">
        <ele>1452.6</ele>
        <time>2024-08-11T14:16:10Z</time>
      </trkpt>
      <trkpt lat="44.876" lon="6.49236">
        <ele>1452.6</ele>
        <time>2024-08-11T14:16:11Z</time>
      </trkpt>
      <trkpt lat="44.876" lon="6.4924">
        <ele>1452.6</ele>
        <time>2024-08-11T14:16:12Z</time>
      </trkpt>
      <trkpt lat="44.876" lon="6.4924">
        <ele>1452.8</ele>
        <time>2024-08-11T14:16:13Z</time>
      </trkpt>
      <trkpt lat="44.876" lon="6.49244">
        <ele>1452.8</ele>
        <time>2024-08-11T14:16:14Z</time>
      </trkpt>
      <trkpt lat="44.876" lon="6.49244">
        <ele>1452.8</ele>
        <time>2024-08-11T14:16:15Z</time>
      </trkpt>
      <trkpt lat="44.876" lon="6.49247">
        <ele>1452.8</ele>
        <time>2024-08-11T14:16:16Z</time>
      </trkpt>
      <trkpt lat="44.87599" lon="6.49251">
        <ele>1452.8</ele>
        <time>2024-08-11T14:16:17Z</time>
      </trkpt>
      <trkpt lat="44.87597" lon="6.49253">
        <ele>1453.2</ele>
        <time>2024-08-11T14:16:18Z</time>
      </trkpt>
      <trkpt lat="44.87596" lon="6.49256">
        <ele>1453.2</ele>
        <time>2024-08-11T14:16:19Z</time>
      </trkpt>
      <trkpt lat="44.87595" lon="6.49258">
        <ele>1453</ele>
        <time>2024-08-11T14:16:20Z</time>
      </trkpt>
      <trkpt lat="44.87595" lon="6.49258">
        <ele>1453</ele>
        <time>2024-08-11T14:16:21Z</time>
      </trkpt>
      <trkpt lat="44.87594" lon="6.49262">
        <ele>1453</ele>
        <time>2024-08-11T14:16:22Z</time>
      </trkpt>
      <trkpt lat="44.87594" lon="6.49262">
        <ele>1453</ele>
        <time>2024-08-11T14:16:23Z</time>
      </trkpt>
      <trkpt lat="44.87592" lon="6.49265">
        <ele>1453</ele>
        <time>2024-08-11T14:16:24Z</time>
      </trkpt>
      <trkpt lat="44.87591" lon="6.49268">
        <ele>1452.8</ele>
        <time>2024-08-11T14:16:25Z</time>
      </trkpt>
      <trkpt lat="44.8759" lon="6.4927">
        <ele>1452.6</ele>
        <time>2024-08-11T14:16:26Z</time>
      </trkpt>
      <trkpt lat="44.87589" lon="6.49272">
        <ele>1452.4</ele>
        <time>2024-08-11T14:16:27Z</time>
      </trkpt>
      <trkpt lat="44.87589" lon="6.49272">
        <ele>1452.4</ele>
        <time>2024-08-11T14:16:28Z</time>
      </trkpt>
      <trkpt lat="44.87587" lon="6.49276">
        <ele>1452.2</ele>
        <time>2024-08-11T14:16:29Z</time>
      </trkpt>
      <trkpt lat="44.87587" lon="6.49276">
        <ele>1452.2</ele>
        <time>2024-08-11T14:16:30Z</time>
      </trkpt>
      <trkpt lat="44.87586" lon="6.49279">
        <ele>1452.2</ele>
        <time>2024-08-11T14:16:31Z</time>
      </trkpt>
      <trkpt lat="44.87586" lon="6.49279">
        <ele>1452</ele>
        <time>2024-08-11T14:16:32Z</time>
      </trkpt>
      <trkpt lat="44.87585" lon="6.49283">
        <ele>1452</ele>
        <time>2024-08-11T14:16:33Z</time>
      </trkpt>
      <trkpt lat="44.87585" lon="6.49283">
        <ele>1452</ele>
        <time>2024-08-11T14:16:34Z</time>
      </trkpt>
      <trkpt lat="44.87583" lon="6.49286">
        <ele>1452</ele>
        <time>2024-08-11T14:16:35Z</time>
      </trkpt>
      <trkpt lat="44.87583" lon="6.49286">
        <ele>1452</ele>
        <time>2024-08-11T14:16:36Z</time>
      </trkpt>
      <trkpt lat="44.87581" lon="6.4929">
        <ele>1452</ele>
        <time>2024-08-11T14:16:37Z</time>
      </trkpt>
      <trkpt lat="44.87581" lon="6.4929">
        <ele>1452.2</ele>
        <time>2024-08-11T14:16:38Z</time>
      </trkpt>
      <trkpt lat="44.87579" lon="6.49294">
        <ele>1452.2</ele>
        <time>2024-08-11T14:16:39Z</time>
      </trkpt>
      <trkpt lat="44.87579" lon="6.49294">
        <ele>1452.2</ele>
        <time>2024-08-11T14:16:40Z</time>
      </trkpt>
      <trkpt lat="44.87577" lon="6.49297">
        <ele>1452.2</ele>
        <time>2024-08-11T14:16:41Z</time>
      </trkpt>
      <trkpt lat="44.87577" lon="6.49297">
        <ele>1452</ele>
        <time>2024-08-11T14:16:42Z</time>
      </trkpt>
      <trkpt lat="44.87577" lon="6.49301">
        <ele>1451.8</ele>
        <time>2024-08-11T14:16:43Z</time>
      </trkpt>
      <trkpt lat="44.87577" lon="6.49301">
        <ele>1451.6</ele>
        <time>2024-08-11T14:16:44Z</time>
      </trkpt>
      <trkpt lat="44.87576" lon="6.49305">
        <ele>1451.6</ele>
        <time>2024-08-11T14:16:45Z</time>
      </trkpt>
      <trkpt lat="44.87576" lon="6.49305">
        <ele>1451.6</ele>
        <time>2024-08-11T14:16:46Z</time>
      </trkpt>
      <trkpt lat="44.87575" lon="6.49308">
        <ele>1451.6</ele>
        <time>2024-08-11T14:16:47Z</time>
      </trkpt>
      <trkpt lat="44.87575" lon="6.49308">
        <ele>1451.6</ele>
        <time>2024-08-11T14:16:48Z</time>
      </trkpt>
      <trkpt lat="44.87574" lon="6.49311">
        <ele>1451.6</ele>
        <time>2024-08-11T14:16:49Z</time>
      </trkpt>
      <trkpt lat="44.87574" lon="6.49311">
        <ele>1451.4</ele>
        <time>2024-08-11T14:16:50Z</time>
      </trkpt>
      <trkpt lat="44.87573" lon="6.49314">
        <ele>1451.4</ele>
        <time>2024-08-11T14:16:51Z</time>
      </trkpt>
      <trkpt lat="44.87573" lon="6.49314">
        <ele>1451.4</ele>
        <time>2024-08-11T14:16:52Z</time>
      </trkpt>
      <trkpt lat="44.87571" lon="6.49316">
        <ele>1451.4</ele>
        <time>2024-08-11T14:16:53Z</time>
      </trkpt>
      <trkpt lat="44.87571" lon="6.49316">
        <ele>1451.4</ele>
        <time>2024-08-11T14:16:54Z</time>
      </trkpt>
      <trkpt lat="44.8757" lon="6.49319">
        <ele>1451.2</ele>
        <time>2024-08-11T14:16:55Z</time>
      </trkpt>
      <trkpt lat="44.8757" lon="6.49319">
        <ele>1451.2</ele>
        <time>2024-08-11T14:16:56Z</time>
      </trkpt>
      <trkpt lat="44.87569" lon="6.49321">
        <ele>1451</ele>
        <time>2024-08-11T14:16:57Z</time>
      </trkpt>
      <trkpt lat="44.87569" lon="6.49321">
        <ele>1451</ele>
        <time>2024-08-11T14:16:58Z</time>
      </trkpt>
      <trkpt lat="44.87568" lon="6.49323">
        <ele>1451</ele>
        <time>2024-08-11T14:16:59Z</time>
      </trkpt>
      <trkpt lat="44.87568" lon="6.49323">
        <ele>1451</ele>
        <time>2024-08-11T14:17:00Z</time>
      </trkpt>
      <trkpt lat="44.87566" lon="6.49326">
        <ele>1451</ele>
        <time>2024-08-11T14:17:01Z</time>
      </trkpt>
      <trkpt lat="44.87566" lon="6.49326">
        <ele>1451</ele>
        <time>2024-08-11T14:17:02Z</time>
      </trkpt>
      <trkpt lat="44.87566" lon="6.49329">
        <ele>1451</ele>
        <time>2024-08-11T14:17:03Z</time>
      </trkpt>
      <trkpt lat="44.87566" lon="6.49329">
        <ele>1451</ele>
        <time>2024-08-11T14:17:04Z</time>
      </trkpt>
      <trkpt lat="44.87564" lon="6.49332">
        <ele>1451.2</ele>
        <time>2024-08-11T14:17:05Z</time>
      </trkpt>
      <trkpt lat="44.87564" lon="6.49332">
        <ele>1451.2</ele>
        <time>2024-08-11T14:17:06Z</time>
      </trkpt>
      <trkpt lat="44.87562" lon="6.49334">
        <ele>1451.2</ele>
        <time>2024-08-11T14:17:07Z</time>
      </trkpt>
      <trkpt lat="44.87561" lon="6.49336">
        <ele>1451.2</ele>
        <time>2024-08-11T14:17:08Z</time>
      </trkpt>
      <trkpt lat="44.87561" lon="6.49336">
        <ele>1451</ele>
        <time>2024-08-11T14:17:09Z</time>
      </trkpt>
      <trkpt lat="44.87558" lon="6.49337">
        <ele>1450.8</ele>
        <time>2024-08-11T14:17:10Z</time>
      </trkpt>
      <trkpt lat="44.87558" lon="6.49337">
        <ele>1450.4</ele>
        <time>2024-08-11T14:17:11Z</time>
      </trkpt>
      <trkpt lat="44.87555" lon="6.49338">
        <ele>1450.4</ele>
        <time>2024-08-11T14:17:12Z</time>
      </trkpt>
      <trkpt lat="44.87555" lon="6.49338">
        <ele>1450.4</ele>
        <time>2024-08-11T14:17:13Z</time>
      </trkpt>
      <trkpt lat="44.87553" lon="6.49341">
        <ele>1450.4</ele>
        <time>2024-08-11T14:17:14Z</time>
      </trkpt>
      <trkpt lat="44.87553" lon="6.49341">
        <ele>1450.2</ele>
        <time>2024-08-11T14:17:15Z</time>
      </trkpt>
      <trkpt lat="44.87552" lon="6.49343">
        <ele>1450</ele>
        <time>2024-08-11T14:17:16Z</time>
      </trkpt>
      <trkpt lat="44.87552" lon="6.49343">
        <ele>1450</ele>
        <time>2024-08-11T14:17:17Z</time>
      </trkpt>
      <trkpt lat="44.87552" lon="6.49343">
        <ele>1450</ele>
        <time>2024-08-11T14:17:18Z</time>
      </trkpt>
      <trkpt lat="44.87552" lon="6.49346">
        <ele>1450</ele>
        <time>2024-08-11T14:17:19Z</time>
      </trkpt>
      <trkpt lat="44.87552" lon="6.49346">
        <ele>1450</ele>
        <time>2024-08-11T14:17:20Z</time>
      </trkpt>
      <trkpt lat="44.87552" lon="6.49346">
        <ele>1450</ele>
        <time>2024-08-11T14:17:21Z</time>
      </trkpt>
      <trkpt lat="44.87552" lon="6.49346">
        <ele>1450</ele>
        <time>2024-08-11T14:17:22Z</time>
      </trkpt>
      <trkpt lat="44.87552" lon="6.49346">
        <ele>1450</ele>
        <time>2024-08-11T14:17:23Z</time>
      </trkpt>
      <trkpt lat="44.87552" lon="6.49346">
        <ele>1450</ele>
        <time>2024-08-11T14:17:24Z</time>
      </trkpt>
      <trkpt lat="44.87552" lon="6.49346">
        <ele>1450.2</ele>
        <time>2024-08-11T14:17:25Z</time>
      </trkpt>
      <trkpt lat="44.87552" lon="6.49346">
        <ele>1450.4</ele>
        <time>2024-08-11T14:17:26Z</time>
      </trkpt>
      <trkpt lat="44.87552" lon="6.49346">
        <ele>1450.4</ele>
        <time>2024-08-11T14:17:27Z</time>
      </trkpt>
      <trkpt lat="44.87552" lon="6.49346">
        <ele>1450.4</ele>
        <time>2024-08-11T14:17:28Z</time>
      </trkpt>
      <trkpt lat="44.87551" lon="6.49349">
        <ele>1450.8</ele>
        <time>2024-08-11T14:17:29Z</time>
      </trkpt>
      <trkpt lat="44.87551" lon="6.49349">
        <ele>1451</ele>
        <time>2024-08-11T14:17:30Z</time>
      </trkpt>
      <trkpt lat="44.8755" lon="6.49351">
        <ele>1451.2</ele>
        <time>2024-08-11T14:17:31Z</time>
      </trkpt>
      <trkpt lat="44.8755" lon="6.49351">
        <ele>1452</ele>
        <time>2024-08-11T14:17:32Z</time>
      </trkpt>
      <trkpt lat="44.87549" lon="6.49353">
        <ele>1452</ele>
        <time>2024-08-11T14:17:33Z</time>
      </trkpt>
      <trkpt lat="44.87549" lon="6.49353">
        <ele>1452</ele>
        <time>2024-08-11T14:17:34Z</time>
      </trkpt>
      <trkpt lat="44.87545" lon="6.49353">
        <ele>1452.6</ele>
        <time>2024-08-11T14:17:35Z</time>
      </trkpt>
      <trkpt lat="44.87545" lon="6.49353">
        <ele>1452.8</ele>
        <time>2024-08-11T14:17:36Z</time>
      </trkpt>
      <trkpt lat="44.87542" lon="6.49353">
        <ele>1452.8</ele>
        <time>2024-08-11T14:17:37Z</time>
      </trkpt>
      <trkpt lat="44.87542" lon="6.49353">
        <ele>1452.8</ele>
        <time>2024-08-11T14:17:38Z</time>
      </trkpt>
      <trkpt lat="44.8754" lon="6.49353">
        <ele>1452.6</ele>
        <time>2024-08-11T14:17:39Z</time>
      </trkpt>
      <trkpt lat="44.8754" lon="6.49353">
        <ele>1452.6</ele>
        <time>2024-08-11T14:17:40Z</time>
      </trkpt>
      <trkpt lat="44.87537" lon="6.49354">
        <ele>1452.6</ele>
        <time>2024-08-11T14:17:41Z</time>
      </trkpt>
      <trkpt lat="44.87537" lon="6.49354">
        <ele>1452.4</ele>
        <time>2024-08-11T14:17:42Z</time>
      </trkpt>
      <trkpt lat="44.87537" lon="6.49354">
        <ele>1452.4</ele>
        <time>2024-08-11T14:17:43Z</time>
      </trkpt>
      <trkpt lat="44.87535" lon="6.49353">
        <ele>1452.4</ele>
        <time>2024-08-11T14:17:44Z</time>
      </trkpt>
      <trkpt lat="44.87535" lon="6.49353">
        <ele>1452.4</ele>
        <time>2024-08-11T14:17:45Z</time>
      </trkpt>
      <trkpt lat="44.87532" lon="6.49352">
        <ele>1452.4</ele>
        <time>2024-08-11T14:17:46Z</time>
      </trkpt>
      <trkpt lat="44.87532" lon="6.49352">
        <ele>1452.4</ele>
        <time>2024-08-11T14:17:47Z</time>
      </trkpt>
      <trkpt lat="44.87529" lon="6.49353">
        <ele>1452.4</ele>
        <time>2024-08-11T14:17:48Z</time>
      </trkpt>
      <trkpt lat="44.87529" lon="6.49353">
        <ele>1452.4</ele>
        <time>2024-08-11T14:17:49Z</time>
      </trkpt>
      <trkpt lat="44.87526" lon="6.49352">
        <ele>1452.2</ele>
        <time>2024-08-11T14:17:50Z</time>
      </trkpt>
      <trkpt lat="44.87526" lon="6.49352">
        <ele>1451.6</ele>
        <time>2024-08-11T14:17:51Z</time>
      </trkpt>
      <trkpt lat="44.87523" lon="6.4935">
        <ele>1451.6</ele>
        <time>2024-08-11T14:17:52Z</time>
      </trkpt>
      <trkpt lat="44.87521" lon="6.49349">
        <ele>1451.6</ele>
        <time>2024-08-11T14:17:53Z</time>
      </trkpt>
      <trkpt lat="44.87521" lon="6.49349">
        <ele>1451.6</ele>
        <time>2024-08-11T14:17:54Z</time>
      </trkpt>
      <trkpt lat="44.87517" lon="6.49348">
        <ele>1451.4</ele>
        <time>2024-08-11T14:17:55Z</time>
      </trkpt>
      <trkpt lat="44.87516" lon="6.49347">
        <ele>1451.2</ele>
        <time>2024-08-11T14:17:56Z</time>
      </trkpt>
      <trkpt lat="44.87516" lon="6.49347">
        <ele>1451</ele>
        <time>2024-08-11T14:17:57Z</time>
      </trkpt>
      <trkpt lat="44.87513" lon="6.49347">
        <ele>1450.8</ele>
        <time>2024-08-11T14:17:58Z</time>
      </trkpt>
      <trkpt lat="44.87513" lon="6.49347">
        <ele>1450.4</ele>
        <time>2024-08-11T14:17:59Z</time>
      </trkpt>
      <trkpt lat="44.8751" lon="6.49346">
        <ele>1450.4</ele>
        <time>2024-08-11T14:18:00Z</time>
      </trkpt>
      <trkpt lat="44.8751" lon="6.49346">
        <ele>1450.4</ele>
        <time>2024-08-11T14:18:01Z</time>
      </trkpt>
      <trkpt lat="44.87508" lon="6.49345">
        <ele>1449.8</ele>
        <time>2024-08-11T14:18:02Z</time>
      </trkpt>
      <trkpt lat="44.87508" lon="6.49345">
        <ele>1449.8</ele>
        <time>2024-08-11T14:18:03Z</time>
      </trkpt>
      <trkpt lat="44.87506" lon="6.49344">
        <ele>1449.4</ele>
        <time>2024-08-11T14:18:04Z</time>
      </trkpt>
      <trkpt lat="44.87506" lon="6.49344">
        <ele>1449.4</ele>
        <time>2024-08-11T14:18:05Z</time>
      </trkpt>
      <trkpt lat="44.87504" lon="6.49342">
        <ele>1449.2</ele>
        <time>2024-08-11T14:18:06Z</time>
      </trkpt>
      <trkpt lat="44.87504" lon="6.49342">
        <ele>1449.2</ele>
        <time>2024-08-11T14:18:07Z</time>
      </trkpt>
      <trkpt lat="44.87502" lon="6.4934">
        <ele>1449</ele>
        <time>2024-08-11T14:18:08Z</time>
      </trkpt>
      <trkpt lat="44.87502" lon="6.4934">
        <ele>1449</ele>
        <time>2024-08-11T14:18:09Z</time>
      </trkpt>
      <trkpt lat="44.875" lon="6.49338">
        <ele>1449</ele>
        <time>2024-08-11T14:18:10Z</time>
      </trkpt>
      <trkpt lat="44.875" lon="6.49338">
        <ele>1448.8</ele>
        <time>2024-08-11T14:18:11Z</time>
      </trkpt>
      <trkpt lat="44.87497" lon="6.49336">
        <ele>1448.6</ele>
        <time>2024-08-11T14:18:12Z</time>
      </trkpt>
      <trkpt lat="44.87497" lon="6.49336">
        <ele>1448.6</ele>
        <time>2024-08-11T14:18:13Z</time>
      </trkpt>
      <trkpt lat="44.87495" lon="6.49334">
        <ele>1448.6</ele>
        <time>2024-08-11T14:18:14Z</time>
      </trkpt>
      <trkpt lat="44.87493" lon="6.49333">
        <ele>1448.4</ele>
        <time>2024-08-11T14:18:15Z</time>
      </trkpt>
      <trkpt lat="44.87493" lon="6.49333">
        <ele>1448.4</ele>
        <time>2024-08-11T14:18:16Z</time>
      </trkpt>
      <trkpt lat="44.87491" lon="6.49331">
        <ele>1448.4</ele>
        <time>2024-08-11T14:18:17Z</time>
      </trkpt>
      <trkpt lat="44.87489" lon="6.4933">
        <ele>1448.2</ele>
        <time>2024-08-11T14:18:18Z</time>
      </trkpt>
      <trkpt lat="44.87487" lon="6.49329">
        <ele>1447.8</ele>
        <time>2024-08-11T14:18:19Z</time>
      </trkpt>
      <trkpt lat="44.87487" lon="6.49329">
        <ele>1447.8</ele>
        <time>2024-08-11T14:18:20Z</time>
      </trkpt>
      <trkpt lat="44.87484" lon="6.49328">
        <ele>1447.6</ele>
        <time>2024-08-11T14:18:21Z</time>
      </trkpt>
      <trkpt lat="44.87484" lon="6.49328">
        <ele>1447.4</ele>
        <time>2024-08-11T14:18:22Z</time>
      </trkpt>
      <trkpt lat="44.87481" lon="6.49327">
        <ele>1447.2</ele>
        <time>2024-08-11T14:18:23Z</time>
      </trkpt>
      <trkpt lat="44.87481" lon="6.49327">
        <ele>1447</ele>
        <time>2024-08-11T14:18:24Z</time>
      </trkpt>
      <trkpt lat="44.87478" lon="6.49326">
        <ele>1446.8</ele>
        <time>2024-08-11T14:18:25Z</time>
      </trkpt>
      <trkpt lat="44.87478" lon="6.49326">
        <ele>1446.6</ele>
        <time>2024-08-11T14:18:26Z</time>
      </trkpt>
      <trkpt lat="44.87476" lon="6.49325">
        <ele>1446.4</ele>
        <time>2024-08-11T14:18:27Z</time>
      </trkpt>
      <trkpt lat="44.87476" lon="6.49325">
        <ele>1446.4</ele>
        <time>2024-08-11T14:18:28Z</time>
      </trkpt>
      <trkpt lat="44.87474" lon="6.49323">
        <ele>1446.6</ele>
        <time>2024-08-11T14:18:29Z</time>
      </trkpt>
      <trkpt lat="44.87474" lon="6.49323">
        <ele>1446.6</ele>
        <time>2024-08-11T14:18:30Z</time>
      </trkpt>
      <trkpt lat="44.87471" lon="6.49321">
        <ele>1446.4</ele>
        <time>2024-08-11T14:18:31Z</time>
      </trkpt>
      <trkpt lat="44.87471" lon="6.49321">
        <ele>1446.4</ele>
        <time>2024-08-11T14:18:32Z</time>
      </trkpt>
      <trkpt lat="44.87469" lon="6.4932">
        <ele>1446</ele>
        <time>2024-08-11T14:18:33Z</time>
      </trkpt>
      <trkpt lat="44.87469" lon="6.4932">
        <ele>1445.8</ele>
        <time>2024-08-11T14:18:34Z</time>
      </trkpt>
      <trkpt lat="44.87466" lon="6.49318">
        <ele>1445.8</ele>
        <time>2024-08-11T14:18:35Z</time>
      </trkpt>
      <trkpt lat="44.87466" lon="6.49318">
        <ele>1445.6</ele>
        <time>2024-08-11T14:18:36Z</time>
      </trkpt>
      <trkpt lat="44.87463" lon="6.49317">
        <ele>1445.4</ele>
        <time>2024-08-11T14:18:37Z</time>
      </trkpt>
      <trkpt lat="44.87463" lon="6.49317">
        <ele>1445.2</ele>
        <time>2024-08-11T14:18:38Z</time>
      </trkpt>
      <trkpt lat="44.87461" lon="6.49317">
        <ele>1445</ele>
        <time>2024-08-11T14:18:39Z</time>
      </trkpt>
      <trkpt lat="44.87461" lon="6.49317">
        <ele>1444.8</ele>
        <time>2024-08-11T14:18:40Z</time>
      </trkpt>
      <trkpt lat="44.87459" lon="6.49317">
        <ele>1444.8</ele>
        <time>2024-08-11T14:18:41Z</time>
      </trkpt>
      <trkpt lat="44.87459" lon="6.49317">
        <ele>1444.8</ele>
        <time>2024-08-11T14:18:42Z</time>
      </trkpt>
      <trkpt lat="44.87459" lon="6.49317">
        <ele>1444.6</ele>
        <time>2024-08-11T14:18:43Z</time>
      </trkpt>
      <trkpt lat="44.87457" lon="6.49317">
        <ele>1444.2</ele>
        <time>2024-08-11T14:18:44Z</time>
      </trkpt>
      <trkpt lat="44.87457" lon="6.49317">
        <ele>1444.2</ele>
        <time>2024-08-11T14:18:45Z</time>
      </trkpt>
      <trkpt lat="44.87457" lon="6.49317">
        <ele>1444</ele>
        <time>2024-08-11T14:18:46Z</time>
      </trkpt>
      <trkpt lat="44.87457" lon="6.49317">
        <ele>1444</ele>
        <time>2024-08-11T14:18:47Z</time>
      </trkpt>
      <trkpt lat="44.87455" lon="6.49315">
        <ele>1443.8</ele>
        <time>2024-08-11T14:18:48Z</time>
      </trkpt>
      <trkpt lat="44.87455" lon="6.49315">
        <ele>1443.4</ele>
        <time>2024-08-11T14:18:49Z</time>
      </trkpt>
      <trkpt lat="44.87455" lon="6.49315">
        <ele>1443</ele>
        <time>2024-08-11T14:18:50Z</time>
      </trkpt>
      <trkpt lat="44.87453" lon="6.49315">
        <ele>1442.2</ele>
        <time>2024-08-11T14:18:51Z</time>
      </trkpt>
      <trkpt lat="44.87453" lon="6.49315">
        <ele>1442</ele>
        <time>2024-08-11T14:18:52Z</time>
      </trkpt>
      <trkpt lat="44.87453" lon="6.49315">
        <ele>1442</ele>
        <time>2024-08-11T14:18:53Z</time>
      </trkpt>
      <trkpt lat="44.87453" lon="6.49315">
        <ele>1442</ele>
        <time>2024-08-11T14:18:54Z</time>
      </trkpt>
      <trkpt lat="44.87453" lon="6.49315">
        <ele>1442.4</ele>
        <time>2024-08-11T14:18:55Z</time>
      </trkpt>
      <trkpt lat="44.87453" lon="6.49315">
        <ele>1442.4</ele>
        <time>2024-08-11T14:18:56Z</time>
      </trkpt>
      <trkpt lat="44.87453" lon="6.49315">
        <ele>1442.4</ele>
        <time>2024-08-11T14:18:57Z</time>
      </trkpt>
      <trkpt lat="44.87453" lon="6.49315">
        <ele>1442.6</ele>
        <time>2024-08-11T14:18:58Z</time>
      </trkpt>
      <trkpt lat="44.87453" lon="6.49315">
        <ele>1442.6</ele>
        <time>2024-08-11T14:18:59Z</time>
      </trkpt>
      <trkpt lat="44.87453" lon="6.49315">
        <ele>1442.8</ele>
        <time>2024-08-11T14:19:00Z</time>
      </trkpt>
      <trkpt lat="44.87453" lon="6.49315">
        <ele>1443</ele>
        <time>2024-08-11T14:19:01Z</time>
      </trkpt>
      <trkpt lat="44.87453" lon="6.49315">
        <ele>1443</ele>
        <time>2024-08-11T14:19:02Z</time>
      </trkpt>
      <trkpt lat="44.87453" lon="6.49315">
        <ele>1443</ele>
        <time>2024-08-11T14:19:03Z</time>
      </trkpt>
      <trkpt lat="44.87453" lon="6.49315">
        <ele>1443</ele>
        <time>2024-08-11T14:19:04Z</time>
      </trkpt>
      <trkpt lat="44.87453" lon="6.49315">
        <ele>1442.8</ele>
        <time>2024-08-11T14:19:05Z</time>
      </trkpt>
      <trkpt lat="44.87453" lon="6.49315">
        <ele>1442.8</ele>
        <time>2024-08-11T14:19:06Z</time>
      </trkpt>
      <trkpt lat="44.87453" lon="6.49315">
        <ele>1442.8</ele>
        <time>2024-08-11T14:19:07Z</time>
      </trkpt>
      <trkpt lat="44.87453" lon="6.49315">
        <ele>1442.8</ele>
        <time>2024-08-11T14:19:08Z</time>
      </trkpt>
      <trkpt lat="44.87453" lon="6.49315">
        <ele>1443</ele>
        <time>2024-08-11T14:19:09Z</time>
      </trkpt>
      <trkpt lat="44.87453" lon="6.49315">
        <ele>1443</ele>
        <time>2024-08-11T14:19:10Z</time>
      </trkpt>
      <trkpt lat="44.87453" lon="6.49315">
        <ele>1443</ele>
        <time>2024-08-11T14:19:11Z</time>
      </trkpt>
      <trkpt lat="44.87453" lon="6.49315">
        <ele>1443</ele>
        <time>2024-08-11T14:19:12Z</time>
      </trkpt>
      <trkpt lat="44.87453" lon="6.49315">
        <ele>1443.2</ele>
        <time>2024-08-11T14:19:13Z</time>
      </trkpt>
      <trkpt lat="44.87453" lon="6.49315">
        <ele>1443.2</ele>
        <time>2024-08-11T14:19:14Z</time>
      </trkpt>
      <trkpt lat="44.87453" lon="6.49315">
        <ele>1442.8</ele>
        <time>2024-08-11T14:19:15Z</time>
      </trkpt>
      <trkpt lat="44.87453" lon="6.49315">
        <ele>1443</ele>
        <time>2024-08-11T14:19:16Z</time>
      </trkpt>
      <trkpt lat="44.87453" lon="6.49315">
        <ele>1443</ele>
        <time>2024-08-11T14:19:17Z</time>
      </trkpt>
      <trkpt lat="44.87453" lon="6.49315">
        <ele>1443.2</ele>
        <time>2024-08-11T14:19:18Z</time>
      </trkpt>
      <trkpt lat="44.87453" lon="6.49315">
        <ele>1443</ele>
        <time>2024-08-11T14:19:19Z</time>
      </trkpt>
      <trkpt lat="44.87453" lon="6.49315">
        <ele>1443</ele>
        <time>2024-08-11T14:19:20Z</time>
      </trkpt>
      <trkpt lat="44.87453" lon="6.49315">
        <ele>1443</ele>
        <time>2024-08-11T14:19:21Z</time>
      </trkpt>
      <trkpt lat="44.87453" lon="6.49315">
        <ele>1442.8</ele>
        <time>2024-08-11T14:19:22Z</time>
      </trkpt>
      <trkpt lat="44.87453" lon="6.49315">
        <ele>1442.8</ele>
        <time>2024-08-11T14:19:23Z</time>
      </trkpt>
      <trkpt lat="44.87453" lon="6.49315">
        <ele>1443.2</ele>
        <time>2024-08-11T14:19:24Z</time>
      </trkpt>
      <trkpt lat="44.87453" lon="6.49315">
        <ele>1443.2</ele>
        <time>2024-08-11T14:19:25Z</time>
      </trkpt>
      <trkpt lat="44.87453" lon="6.49315">
        <ele>1443.2</ele>
        <time>2024-08-11T14:19:26Z</time>
      </trkpt>
      <trkpt lat="44.87453" lon="6.49315">
        <ele>1443.6</ele>
        <time>2024-08-11T14:19:27Z</time>
      </trkpt>
      <trkpt lat="44.87453" lon="6.49315">
        <ele>1443.6</ele>
        <time>2024-08-11T14:19:28Z</time>
      </trkpt>
      <trkpt lat="44.87453" lon="6.49315">
        <ele>1443.6</ele>
        <time>2024-08-11T14:19:29Z</time>
      </trkpt>
      <trkpt lat="44.87453" lon="6.49315">
        <ele>1443.6</ele>
        <time>2024-08-11T14:19:30Z</time>
      </trkpt>
      <trkpt lat="44.87453" lon="6.49315">
        <ele>1443.4</ele>
        <time>2024-08-11T14:19:31Z</time>
      </trkpt>
      <trkpt lat="44.87453" lon="6.49315">
        <ele>1443.2</ele>
        <time>2024-08-11T14:19:32Z</time>
      </trkpt>
      <trkpt lat="44.87453" lon="6.49315">
        <ele>1443.2</ele>
        <time>2024-08-11T14:19:33Z</time>
      </trkpt>
      <trkpt lat="44.87453" lon="6.49315">
        <ele>1443.6</ele>
        <time>2024-08-11T14:19:34Z</time>
      </trkpt>
      <trkpt lat="44.87453" lon="6.49315">
        <ele>1443.8</ele>
        <time>2024-08-11T14:19:35Z</time>
      </trkpt>
      <trkpt lat="44.87453" lon="6.49315">
        <ele>1443.8</ele>
        <time>2024-08-11T14:19:36Z</time>
      </trkpt>
      <trkpt lat="44.87451" lon="6.49316">
        <ele>1443.8</ele>
        <time>2024-08-11T14:19:37Z</time>
      </trkpt>
      <trkpt lat="44.87451" lon="6.49316">
        <ele>1443.6</ele>
        <time>2024-08-11T14:19:38Z</time>
      </trkpt>
      <trkpt lat="44.87448" lon="6.49318">
        <ele>1443.2</ele>
        <time>2024-08-11T14:19:39Z</time>
      </trkpt>
      <trkpt lat="44.87446" lon="6.49318">
        <ele>1443</ele>
        <time>2024-08-11T14:19:40Z</time>
      </trkpt>
      <trkpt lat="44.87444" lon="6.49318">
        <ele>1442.8</ele>
        <time>2024-08-11T14:19:41Z</time>
      </trkpt>
      <trkpt lat="44.87442" lon="6.49318">
        <ele>1442.8</ele>
        <time>2024-08-11T14:19:42Z</time>
      </trkpt>
      <trkpt lat="44.87442" lon="6.49318">
        <ele>1442.6</ele>
        <time>2024-08-11T14:19:43Z</time>
      </trkpt>
      <trkpt lat="44.87439" lon="6.4932">
        <ele>1442.6</ele>
        <time>2024-08-11T14:19:44Z</time>
      </trkpt>
      <trkpt lat="44.87439" lon="6.4932">
        <ele>1442.6</ele>
        <time>2024-08-11T14:19:45Z</time>
      </trkpt>
      <trkpt lat="44.87436" lon="6.49321">
        <ele>1442.8</ele>
        <time>2024-08-11T14:19:46Z</time>
      </trkpt>
      <trkpt lat="44.87436" lon="6.49321">
        <ele>1442.8</ele>
        <time>2024-08-11T14:19:47Z</time>
      </trkpt>
      <trkpt lat="44.87434" lon="6.49323">
        <ele>1442.8</ele>
        <time>2024-08-11T14:19:48Z</time>
      </trkpt>
      <trkpt lat="44.87434" lon="6.49323">
        <ele>1442.6</ele>
        <time>2024-08-11T14:19:49Z</time>
      </trkpt>
      <trkpt lat="44.87431" lon="6.49325">
        <ele>1442.4</ele>
        <time>2024-08-11T14:19:50Z</time>
      </trkpt>
      <trkpt lat="44.87431" lon="6.49325">
        <ele>1442.4</ele>
        <time>2024-08-11T14:19:51Z</time>
      </trkpt>
      <trkpt lat="44.87429" lon="6.49326">
        <ele>1442</ele>
        <time>2024-08-11T14:19:52Z</time>
      </trkpt>
      <trkpt lat="44.87429" lon="6.49326">
        <ele>1441.8</ele>
        <time>2024-08-11T14:19:53Z</time>
      </trkpt>
      <trkpt lat="44.87429" lon="6.49326">
        <ele>1441.8</ele>
        <time>2024-08-11T14:19:54Z</time>
      </trkpt>
      <trkpt lat="44.87429" lon="6.49326">
        <ele>1442</ele>
        <time>2024-08-11T14:19:55Z</time>
      </trkpt>
      <trkpt lat="44.87429" lon="6.49326">
        <ele>1442.2</ele>
        <time>2024-08-11T14:19:56Z</time>
      </trkpt>
      <trkpt lat="44.87429" lon="6.49326">
        <ele>1442.4</ele>
        <time>2024-08-11T14:19:57Z</time>
      </trkpt>
      <trkpt lat="44.87429" lon="6.49326">
        <ele>1442.4</ele>
        <time>2024-08-11T14:19:58Z</time>
      </trkpt>
      <trkpt lat="44.87429" lon="6.49326">
        <ele>1442.6</ele>
        <time>2024-08-11T14:19:59Z</time>
      </trkpt>
      <trkpt lat="44.87429" lon="6.49326">
        <ele>1443.4</ele>
        <time>2024-08-11T14:20:02Z</time>
      </trkpt>
      <trkpt lat="44.87429" lon="6.49326">
        <ele>1443.6</ele>
        <time>2024-08-11T14:20:03Z</time>
      </trkpt>
      <trkpt lat="44.87429" lon="6.49326">
        <ele>1443.6</ele>
        <time>2024-08-11T14:20:04Z</time>
      </trkpt>
      <trkpt lat="44.87429" lon="6.49326">
        <ele>1443.6</ele>
        <time>2024-08-11T14:20:05Z</time>
      </trkpt>
      <trkpt lat="44.87429" lon="6.49326">
        <ele>1443.8</ele>
        <time>2024-08-11T14:20:06Z</time>
      </trkpt>
      <trkpt lat="44.87429" lon="6.49326">
        <ele>1444</ele>
        <time>2024-08-11T14:20:07Z</time>
      </trkpt>
      <trkpt lat="44.87429" lon="6.49326">
        <ele>1444</ele>
        <time>2024-08-11T14:20:08Z</time>
      </trkpt>
      <trkpt lat="44.87429" lon="6.49326">
        <ele>1444.2</ele>
        <time>2024-08-11T14:20:09Z</time>
      </trkpt>
      <trkpt lat="44.87429" lon="6.49326">
        <ele>1444.2</ele>
        <time>2024-08-11T14:20:10Z</time>
      </trkpt>
      <trkpt lat="44.87429" lon="6.49326">
        <ele>1444.2</ele>
        <time>2024-08-11T14:20:11Z</time>
      </trkpt>
      <trkpt lat="44.87429" lon="6.49326">
        <ele>1444.2</ele>
        <time>2024-08-11T14:20:12Z</time>
      </trkpt>
      <trkpt lat="44.87429" lon="6.49326">
        <ele>1443.8</ele>
        <time>2024-08-11T14:20:13Z</time>
      </trkpt>
      <trkpt lat="44.87429" lon="6.49326">
        <ele>1443.6</ele>
        <time>2024-08-11T14:20:14Z</time>
      </trkpt>
      <trkpt lat="44.87431" lon="6.49325">
        <ele>1443.4</ele>
        <time>2024-08-11T14:20:15Z</time>
      </trkpt>
      <trkpt lat="44.87431" lon="6.49325">
        <ele>1443.4</ele>
        <time>2024-08-11T14:20:16Z</time>
      </trkpt>
      <trkpt lat="44.87433" lon="6.49323">
        <ele>1443.4</ele>
        <time>2024-08-11T14:20:17Z</time>
      </trkpt>
      <trkpt lat="44.87433" lon="6.49323">
        <ele>1443.6</ele>
        <time>2024-08-11T14:20:18Z</time>
      </trkpt>
      <trkpt lat="44.87436" lon="6.49321">
        <ele>1443.6</ele>
        <time>2024-08-11T14:20:19Z</time>
      </trkpt>
      <trkpt lat="44.87436" lon="6.49321">
        <ele>1443.6</ele>
        <time>2024-08-11T14:20:20Z</time>
      </trkpt>
      <trkpt lat="44.87439" lon="6.4932">
        <ele>1443.6</ele>
        <time>2024-08-11T14:20:21Z</time>
      </trkpt>
      <trkpt lat="44.87439" lon="6.4932">
        <ele>1443.8</ele>
        <time>2024-08-11T14:20:22Z</time>
      </trkpt>
      <trkpt lat="44.87442" lon="6.49319">
        <ele>1443.8</ele>
        <time>2024-08-11T14:20:23Z</time>
      </trkpt>
      <trkpt lat="44.87442" lon="6.49319">
        <ele>1443.8</ele>
        <time>2024-08-11T14:20:24Z</time>
      </trkpt>
      <trkpt lat="44.87445" lon="6.49319">
        <ele>1443.8</ele>
        <time>2024-08-11T14:20:25Z</time>
      </trkpt>
      <trkpt lat="44.87445" lon="6.49319">
        <ele>1443.8</ele>
        <time>2024-08-11T14:20:26Z</time>
      </trkpt>
      <trkpt lat="44.87448" lon="6.4932">
        <ele>1443.8</ele>
        <time>2024-08-11T14:20:27Z</time>
      </trkpt>
      <trkpt lat="44.87448" lon="6.4932">
        <ele>1443.8</ele>
        <time>2024-08-11T14:20:28Z</time>
      </trkpt>
      <trkpt lat="44.87451" lon="6.49321">
        <ele>1444</ele>
        <time>2024-08-11T14:20:29Z</time>
      </trkpt>
      <trkpt lat="44.87451" lon="6.49321">
        <ele>1444.2</ele>
        <time>2024-08-11T14:20:30Z</time>
      </trkpt>
      <trkpt lat="44.87453" lon="6.49322">
        <ele>1444.2</ele>
        <time>2024-08-11T14:20:31Z</time>
      </trkpt>
      <trkpt lat="44.87453" lon="6.49322">
        <ele>1444.2</ele>
        <time>2024-08-11T14:20:32Z</time>
      </trkpt>
      <trkpt lat="44.87456" lon="6.49323">
        <ele>1444.4</ele>
        <time>2024-08-11T14:20:33Z</time>
      </trkpt>
      <trkpt lat="44.87456" lon="6.49323">
        <ele>1444.4</ele>
        <time>2024-08-11T14:20:34Z</time>
      </trkpt>
      <trkpt lat="44.87459" lon="6.49324">
        <ele>1444.4</ele>
        <time>2024-08-11T14:20:35Z</time>
      </trkpt>
      <trkpt lat="44.87459" lon="6.49324">
        <ele>1444.4</ele>
        <time>2024-08-11T14:20:36Z</time>
      </trkpt>
      <trkpt lat="44.87461" lon="6.49323">
        <ele>1444.4</ele>
        <time>2024-08-11T14:20:37Z</time>
      </trkpt>
      <trkpt lat="44.87461" lon="6.49323">
        <ele>1444.4</ele>
        <time>2024-08-11T14:20:38Z</time>
      </trkpt>
      <trkpt lat="44.87461" lon="6.49323">
        <ele>1444.4</ele>
        <time>2024-08-11T14:20:39Z</time>
      </trkpt>
      <trkpt lat="44.87461" lon="6.49323">
        <ele>1444.6</ele>
        <time>2024-08-11T14:20:40Z</time>
      </trkpt>
      <trkpt lat="44.87461" lon="6.49323">
        <ele>1444.6</ele>
        <time>2024-08-11T14:20:41Z</time>
      </trkpt>
      <trkpt lat="44.87461" lon="6.49323">
        <ele>1444.4</ele>
        <time>2024-08-11T14:20:42Z</time>
      </trkpt>
      <trkpt lat="44.87461" lon="6.49323">
        <ele>1444.2</ele>
        <time>2024-08-11T14:20:43Z</time>
      </trkpt>
      <trkpt lat="44.87461" lon="6.49323">
        <ele>1444.2</ele>
        <time>2024-08-11T14:20:44Z</time>
      </trkpt>
      <trkpt lat="44.87461" lon="6.49323">
        <ele>1444.4</ele>
        <time>2024-08-11T14:20:45Z</time>
      </trkpt>
      <trkpt lat="44.87461" lon="6.49323">
        <ele>1444.4</ele>
        <time>2024-08-11T14:20:46Z</time>
      </trkpt>
      <trkpt lat="44.87461" lon="6.49323">
        <ele>1444.4</ele>
        <time>2024-08-11T14:20:47Z</time>
      </trkpt>
      <trkpt lat="44.87461" lon="6.49323">
        <ele>1444.4</ele>
        <time>2024-08-11T14:20:48Z</time>
      </trkpt>
      <trkpt lat="44.87461" lon="6.49323">
        <ele>1444.2</ele>
        <time>2024-08-11T14:20:49Z</time>
      </trkpt>
      <trkpt lat="44.87461" lon="6.49323">
        <ele>1444.2</ele>
        <time>2024-08-11T14:20:50Z</time>
      </trkpt>
      <trkpt lat="44.87461" lon="6.49323">
        <ele>1444.2</ele>
        <time>2024-08-11T14:20:51Z</time>
      </trkpt>
      <trkpt lat="44.87461" lon="6.49323">
        <ele>1444</ele>
        <time>2024-08-11T14:20:52Z</time>
      </trkpt>
      <trkpt lat="44.87461" lon="6.49323">
        <ele>1444</ele>
        <time>2024-08-11T14:20:53Z</time>
      </trkpt>
      <trkpt lat="44.87461" lon="6.49323">
        <ele>1444</ele>
        <time>2024-08-11T14:20:54Z</time>
      </trkpt>
      <trkpt lat="44.87461" lon="6.49323">
        <ele>1443.8</ele>
        <time>2024-08-11T14:20:55Z</time>
      </trkpt>
      <trkpt lat="44.87461" lon="6.49323">
        <ele>1443.6</ele>
        <time>2024-08-11T14:20:56Z</time>
      </trkpt>
      <trkpt lat="44.87461" lon="6.49323">
        <ele>1443.6</ele>
        <time>2024-08-11T14:20:57Z</time>
      </trkpt>
      <trkpt lat="44.87461" lon="6.49323">
        <ele>1443.6</ele>
        <time>2024-08-11T14:20:58Z</time>
      </trkpt>
      <trkpt lat="44.87461" lon="6.49323">
        <ele>1443.8</ele>
        <time>2024-08-11T14:20:59Z</time>
      </trkpt>
      <trkpt lat="44.87461" lon="6.49323">
        <ele>1443.8</ele>
        <time>2024-08-11T14:21:00Z</time>
      </trkpt>
      <trkpt lat="44.87461" lon="6.49323">
        <ele>1443.4</ele>
        <time>2024-08-11T14:21:01Z</time>
      </trkpt>
      <trkpt lat="44.87461" lon="6.49323">
        <ele>1443.4</ele>
        <time>2024-08-11T14:21:02Z</time>
      </trkpt>
      <trkpt lat="44.87461" lon="6.49323">
        <ele>1443.4</ele>
        <time>2024-08-11T14:21:03Z</time>
      </trkpt>
      <trkpt lat="44.87461" lon="6.49323">
        <ele>1443.4</ele>
        <time>2024-08-11T14:21:04Z</time>
      </trkpt>
      <trkpt lat="44.87461" lon="6.49323">
        <ele>1443.4</ele>
        <time>2024-08-11T14:21:05Z</time>
      </trkpt>
      <trkpt lat="44.87461" lon="6.49323">
        <ele>1443.4</ele>
        <time>2024-08-11T14:21:06Z</time>
      </trkpt>
      <trkpt lat="44.87461" lon="6.49323">
        <ele>1443.6</ele>
        <time>2024-08-11T14:21:07Z</time>
      </trkpt>
      <trkpt lat="44.87461" lon="6.49323">
        <ele>1443.4</ele>
        <time>2024-08-11T14:21:08Z</time>
      </trkpt>
      <trkpt lat="44.87461" lon="6.49323">
        <ele>1443.4</ele>
        <time>2024-08-11T14:21:09Z</time>
      </trkpt>
      <trkpt lat="44.87461" lon="6.49323">
        <ele>1443.4</ele>
        <time>2024-08-11T14:21:10Z</time>
      </trkpt>
      <trkpt lat="44.87461" lon="6.49323">
        <ele>1443.2</ele>
        <time>2024-08-11T14:21:11Z</time>
      </trkpt>
      <trkpt lat="44.87461" lon="6.49323">
        <ele>1443.4</ele>
        <time>2024-08-11T14:21:12Z</time>
      </trkpt>
      <trkpt lat="44.87461" lon="6.49323">
        <ele>1443.4</ele>
        <time>2024-08-11T14:21:13Z</time>
      </trkpt>
      <trkpt lat="44.87461" lon="6.49323">
        <ele>1443.4</ele>
        <time>2024-08-11T14:21:14Z</time>
      </trkpt>
      <trkpt lat="44.87461" lon="6.49323">
        <ele>1443.2</ele>
        <time>2024-08-11T14:21:15Z</time>
      </trkpt>
      <trkpt lat="44.87461" lon="6.49323">
        <ele>1443.2</ele>
        <time>2024-08-11T14:21:16Z</time>
      </trkpt>
      <trkpt lat="44.87461" lon="6.49323">
        <ele>1443.2</ele>
        <time>2024-08-11T14:21:17Z</time>
      </trkpt>
      <trkpt lat="44.87461" lon="6.49323">
        <ele>1443.2</ele>
        <time>2024-08-11T14:21:18Z</time>
      </trkpt>
      <trkpt lat="44.87461" lon="6.49323">
        <ele>1443.4</ele>
        <time>2024-08-11T14:21:19Z</time>
      </trkpt>
      <trkpt lat="44.87461" lon="6.49323">
        <ele>1443.4</ele>
        <time>2024-08-11T14:21:20Z</time>
      </trkpt>
      <trkpt lat="44.87461" lon="6.49323">
        <ele>1443</ele>
        <time>2024-08-11T14:21:21Z</time>
      </trkpt>
      <trkpt lat="44.87459" lon="6.49321">
        <ele>1442.8</ele>
        <time>2024-08-11T14:21:22Z</time>
      </trkpt>
      <trkpt lat="44.87457" lon="6.49321">
        <ele>1442.4</ele>
        <time>2024-08-11T14:21:23Z</time>
      </trkpt>
      <trkpt lat="44.87455" lon="6.4932">
        <ele>1442.2</ele>
        <time>2024-08-11T14:21:24Z</time>
      </trkpt>
      <trkpt lat="44.87453" lon="6.4932">
        <ele>1442.2</ele>
        <time>2024-08-11T14:21:25Z</time>
      </trkpt>
      <trkpt lat="44.87451" lon="6.49319">
        <ele>1442.4</ele>
        <time>2024-08-11T14:21:26Z</time>
      </trkpt>
      <trkpt lat="44.87451" lon="6.49319">
        <ele>1442.4</ele>
        <time>2024-08-11T14:21:27Z</time>
      </trkpt>
      <trkpt lat="44.87447" lon="6.49319">
        <ele>1442.4</ele>
        <time>2024-08-11T14:21:28Z</time>
      </trkpt>
      <trkpt lat="44.87447" lon="6.49319">
        <ele>1442</ele>
        <time>2024-08-11T14:21:29Z</time>
      </trkpt>
      <trkpt lat="44.87445" lon="6.49319">
        <ele>1441.6</ele>
        <time>2024-08-11T14:21:30Z</time>
      </trkpt>
      <trkpt lat="44.87445" lon="6.49319">
        <ele>1441.4</ele>
        <time>2024-08-11T14:21:31Z</time>
      </trkpt>
      <trkpt lat="44.87442" lon="6.49319">
        <ele>1441</ele>
        <time>2024-08-11T14:21:32Z</time>
      </trkpt>
      <trkpt lat="44.87442" lon="6.49319">
        <ele>1441</ele>
        <time>2024-08-11T14:21:33Z</time>
      </trkpt>
      <trkpt lat="44.87439" lon="6.4932">
        <ele>1441</ele>
        <time>2024-08-11T14:21:34Z</time>
      </trkpt>
      <trkpt lat="44.87439" lon="6.4932">
        <ele>1440.8</ele>
        <time>2024-08-11T14:21:35Z</time>
      </trkpt>
      <trkpt lat="44.87437" lon="6.49322">
        <ele>1440.8</ele>
        <time>2024-08-11T14:21:36Z</time>
      </trkpt>
      <trkpt lat="44.87437" lon="6.49322">
        <ele>1440.8</ele>
        <time>2024-08-11T14:21:37Z</time>
      </trkpt>
      <trkpt lat="44.87434" lon="6.49324">
        <ele>1440.6</ele>
        <time>2024-08-11T14:21:38Z</time>
      </trkpt>
      <trkpt lat="44.87432" lon="6.49327">
        <ele>1440.6</ele>
        <time>2024-08-11T14:21:39Z</time>
      </trkpt>
      <trkpt lat="44.87431" lon="6.49327">
        <ele>1440.8</ele>
        <time>2024-08-11T14:21:40Z</time>
      </trkpt>
      <trkpt lat="44.87431" lon="6.49328">
        <ele>1440.8</ele>
        <time>2024-08-11T14:21:41Z</time>
      </trkpt>
      <trkpt lat="44.87431" lon="6.49328">
        <ele>1440.8</ele>
        <time>2024-08-11T14:21:42Z</time>
      </trkpt>
      <trkpt lat="44.87429" lon="6.49331">
        <ele>1440.8</ele>
        <time>2024-08-11T14:21:43Z</time>
      </trkpt>
      <trkpt lat="44.87428" lon="6.49333">
        <ele>1440.8</ele>
        <time>2024-08-11T14:21:44Z</time>
      </trkpt>
      <trkpt lat="44.87426" lon="6.49335">
        <ele>1440.8</ele>
        <time>2024-08-11T14:21:45Z</time>
      </trkpt>
      <trkpt lat="44.87425" lon="6.49337">
        <ele>1440.8</ele>
        <time>2024-08-11T14:21:46Z</time>
      </trkpt>
      <trkpt lat="44.87424" lon="6.4934">
        <ele>1440.8</ele>
        <time>2024-08-11T14:21:47Z</time>
      </trkpt>
      <trkpt lat="44.87424" lon="6.4934">
        <ele>1440.6</ele>
        <time>2024-08-11T14:21:48Z</time>
      </trkpt>
      <trkpt lat="44.87422" lon="6.49344">
        <ele>1440.4</ele>
        <time>2024-08-11T14:21:49Z</time>
      </trkpt>
      <trkpt lat="44.87422" lon="6.49344">
        <ele>1440.2</ele>
        <time>2024-08-11T14:21:50Z</time>
      </trkpt>
      <trkpt lat="44.8742" lon="6.49348">
        <ele>1440.2</ele>
        <time>2024-08-11T14:21:51Z</time>
      </trkpt>
      <trkpt lat="44.87418" lon="6.49349">
        <ele>1440</ele>
        <time>2024-08-11T14:21:52Z</time>
      </trkpt>
      <trkpt lat="44.87418" lon="6.49349">
        <ele>1439.8</ele>
        <time>2024-08-11T14:21:53Z</time>
      </trkpt>
      <trkpt lat="44.87416" lon="6.49353">
        <ele>1439.8</ele>
        <time>2024-08-11T14:21:54Z</time>
      </trkpt>
      <trkpt lat="44.87416" lon="6.49353">
        <ele>1439.8</ele>
        <time>2024-08-11T14:21:55Z</time>
      </trkpt>
      <trkpt lat="44.87414" lon="6.49356">
        <ele>1439.8</ele>
        <time>2024-08-11T14:21:56Z</time>
      </trkpt>
      <trkpt lat="44.87414" lon="6.49356">
        <ele>1439.8</ele>
        <time>2024-08-11T14:21:57Z</time>
      </trkpt>
      <trkpt lat="44.87412" lon="6.4936">
        <ele>1439.8</ele>
        <time>2024-08-11T14:21:58Z</time>
      </trkpt>
      <trkpt lat="44.87412" lon="6.4936">
        <ele>1439.8</ele>
        <time>2024-08-11T14:21:59Z</time>
      </trkpt>
      <trkpt lat="44.8741" lon="6.49364">
        <ele>1439.8</ele>
        <time>2024-08-11T14:22:00Z</time>
      </trkpt>
      <trkpt lat="44.8741" lon="6.49364">
        <ele>1439.8</ele>
        <time>2024-08-11T14:22:01Z</time>
      </trkpt>
      <trkpt lat="44.87408" lon="6.49367">
        <ele>1440</ele>
        <time>2024-08-11T14:22:02Z</time>
      </trkpt>
      <trkpt lat="44.87408" lon="6.49367">
        <ele>1440</ele>
        <time>2024-08-11T14:22:03Z</time>
      </trkpt>
      <trkpt lat="44.87406" lon="6.4937">
        <ele>1440.2</ele>
        <time>2024-08-11T14:22:04Z</time>
      </trkpt>
      <trkpt lat="44.87405" lon="6.49372">
        <ele>1440.2</ele>
        <time>2024-08-11T14:22:05Z</time>
      </trkpt>
      <trkpt lat="44.87403" lon="6.49374">
        <ele>1440.4</ele>
        <time>2024-08-11T14:22:06Z</time>
      </trkpt>
      <trkpt lat="44.87403" lon="6.49374">
        <ele>1440.6</ele>
        <time>2024-08-11T14:22:07Z</time>
      </trkpt>
      <trkpt lat="44.87401" lon="6.49376">
        <ele>1440.6</ele>
        <time>2024-08-11T14:22:08Z</time>
      </trkpt>
      <trkpt lat="44.87401" lon="6.49376">
        <ele>1440.6</ele>
        <time>2024-08-11T14:22:09Z</time>
      </trkpt>
      <trkpt lat="44.87399" lon="6.49379">
        <ele>1440.6</ele>
        <time>2024-08-11T14:22:10Z</time>
      </trkpt>
      <trkpt lat="44.87399" lon="6.49379">
        <ele>1440.4</ele>
        <time>2024-08-11T14:22:11Z</time>
      </trkpt>
      <trkpt lat="44.87397" lon="6.49381">
        <ele>1440.2</ele>
        <time>2024-08-11T14:22:12Z</time>
      </trkpt>
      <trkpt lat="44.87397" lon="6.49381">
        <ele>1439.8</ele>
        <time>2024-08-11T14:22:13Z</time>
      </trkpt>
      <trkpt lat="44.87395" lon="6.49383">
        <ele>1439.6</ele>
        <time>2024-08-11T14:22:14Z</time>
      </trkpt>
      <trkpt lat="44.87395" lon="6.49383">
        <ele>1439.6</ele>
        <time>2024-08-11T14:22:15Z</time>
      </trkpt>
      <trkpt lat="44.87393" lon="6.49386">
        <ele>1439.6</ele>
        <time>2024-08-11T14:22:16Z</time>
      </trkpt>
      <trkpt lat="44.87393" lon="6.49386">
        <ele>1439.6</ele>
        <time>2024-08-11T14:22:17Z</time>
      </trkpt>
      <trkpt lat="44.8739" lon="6.49389">
        <ele>1439.6</ele>
        <time>2024-08-11T14:22:18Z</time>
      </trkpt>
      <trkpt lat="44.8739" lon="6.49389">
        <ele>1439.6</ele>
        <time>2024-08-11T14:22:19Z</time>
      </trkpt>
      <trkpt lat="44.87388" lon="6.49392">
        <ele>1439.6</ele>
        <time>2024-08-11T14:22:20Z</time>
      </trkpt>
      <trkpt lat="44.87388" lon="6.49392">
        <ele>1439.6</ele>
        <time>2024-08-11T14:22:21Z</time>
      </trkpt>
      <trkpt lat="44.87386" lon="6.49394">
        <ele>1439.4</ele>
        <time>2024-08-11T14:22:22Z</time>
      </trkpt>
      <trkpt lat="44.87386" lon="6.49394">
        <ele>1439.2</ele>
        <time>2024-08-11T14:22:23Z</time>
      </trkpt>
      <trkpt lat="44.87383" lon="6.49397">
        <ele>1439.2</ele>
        <time>2024-08-11T14:22:24Z</time>
      </trkpt>
      <trkpt lat="44.87382" lon="6.49398">
        <ele>1439.2</ele>
        <time>2024-08-11T14:22:25Z</time>
      </trkpt>
      <trkpt lat="44.87382" lon="6.49398">
        <ele>1439.2</ele>
        <time>2024-08-11T14:22:26Z</time>
      </trkpt>
      <trkpt lat="44.8738" lon="6.49401">
        <ele>1439.2</ele>
        <time>2024-08-11T14:22:27Z</time>
      </trkpt>
      <trkpt lat="44.8738" lon="6.49401">
        <ele>1439.2</ele>
        <time>2024-08-11T14:22:28Z</time>
      </trkpt>
      <trkpt lat="44.87377" lon="6.49403">
        <ele>1439.2</ele>
        <time>2024-08-11T14:22:29Z</time>
      </trkpt>
      <trkpt lat="44.87377" lon="6.49403">
        <ele>1439.2</ele>
        <time>2024-08-11T14:22:30Z</time>
      </trkpt>
      <trkpt lat="44.87374" lon="6.49406">
        <ele>1439</ele>
        <time>2024-08-11T14:22:31Z</time>
      </trkpt>
      <trkpt lat="44.87374" lon="6.49406">
        <ele>1439</ele>
        <time>2024-08-11T14:22:32Z</time>
      </trkpt>
      <trkpt lat="44.87372" lon="6.49409">
        <ele>1438.8</ele>
        <time>2024-08-11T14:22:33Z</time>
      </trkpt>
      <trkpt lat="44.87372" lon="6.49409">
        <ele>1438.8</ele>
        <time>2024-08-11T14:22:34Z</time>
      </trkpt>
      <trkpt lat="44.87369" lon="6.49412">
        <ele>1439</ele>
        <time>2024-08-11T14:22:35Z</time>
      </trkpt>
      <trkpt lat="44.87369" lon="6.49412">
        <ele>1439</ele>
        <time>2024-08-11T14:22:36Z</time>
      </trkpt>
      <trkpt lat="44.87367" lon="6.49415">
        <ele>1438.8</ele>
        <time>2024-08-11T14:22:37Z</time>
      </trkpt>
      <trkpt lat="44.87367" lon="6.49415">
        <ele>1438.8</ele>
        <time>2024-08-11T14:22:38Z</time>
      </trkpt>
      <trkpt lat="44.87365" lon="6.49418">
        <ele>1438.8</ele>
        <time>2024-08-11T14:22:39Z</time>
      </trkpt>
      <trkpt lat="44.87365" lon="6.49418">
        <ele>1438.8</ele>
        <time>2024-08-11T14:22:40Z</time>
      </trkpt>
      <trkpt lat="44.87363" lon="6.4942">
        <ele>1438.8</ele>
        <time>2024-08-11T14:22:41Z</time>
      </trkpt>
      <trkpt lat="44.87363" lon="6.4942">
        <ele>1439</ele>
        <time>2024-08-11T14:22:42Z</time>
      </trkpt>
      <trkpt lat="44.87361" lon="6.49422">
        <ele>1438.8</ele>
        <time>2024-08-11T14:22:43Z</time>
      </trkpt>
      <trkpt lat="44.87361" lon="6.49422">
        <ele>1438.8</ele>
        <time>2024-08-11T14:22:44Z</time>
      </trkpt>
      <trkpt lat="44.87358" lon="6.49423">
        <ele>1438.8</ele>
        <time>2024-08-11T14:22:45Z</time>
      </trkpt>
      <trkpt lat="44.87356" lon="6.49424">
        <ele>1438.8</ele>
        <time>2024-08-11T14:22:46Z</time>
      </trkpt>
      <trkpt lat="44.87356" lon="6.49424">
        <ele>1438.4</ele>
        <time>2024-08-11T14:22:47Z</time>
      </trkpt>
      <trkpt lat="44.87354" lon="6.49424">
        <ele>1438.4</ele>
        <time>2024-08-11T14:22:48Z</time>
      </trkpt>
      <trkpt lat="44.87352" lon="6.49423">
        <ele>1438.8</ele>
        <time>2024-08-11T14:22:49Z</time>
      </trkpt>
      <trkpt lat="44.8735" lon="6.49423">
        <ele>1438.8</ele>
        <time>2024-08-11T14:22:50Z</time>
      </trkpt>
      <trkpt lat="44.8735" lon="6.49423">
        <ele>1438.8</ele>
        <time>2024-08-11T14:22:51Z</time>
      </trkpt>
      <trkpt lat="44.87347" lon="6.49421">
        <ele>1438.6</ele>
        <time>2024-08-11T14:22:52Z</time>
      </trkpt>
      <trkpt lat="44.87347" lon="6.49421">
        <ele>1438.4</ele>
        <time>2024-08-11T14:22:53Z</time>
      </trkpt>
      <trkpt lat="44.87344" lon="6.49419">
        <ele>1438.2</ele>
        <time>2024-08-11T14:22:54Z</time>
      </trkpt>
      <trkpt lat="44.87343" lon="6.49418">
        <ele>1438.2</ele>
        <time>2024-08-11T14:22:55Z</time>
      </trkpt>
      <trkpt lat="44.87343" lon="6.49418">
        <ele>1438</ele>
        <time>2024-08-11T14:22:56Z</time>
      </trkpt>
      <trkpt lat="44.87341" lon="6.49414">
        <ele>1437.8</ele>
        <time>2024-08-11T14:22:57Z</time>
      </trkpt>
      <trkpt lat="44.87341" lon="6.49414">
        <ele>1437.8</ele>
        <time>2024-08-11T14:22:58Z</time>
      </trkpt>
      <trkpt lat="44.87339" lon="6.4941">
        <ele>1437.8</ele>
        <time>2024-08-11T14:22:59Z</time>
      </trkpt>
      <trkpt lat="44.87339" lon="6.4941">
        <ele>1437.6</ele>
        <time>2024-08-11T14:23:00Z</time>
      </trkpt>
      <trkpt lat="44.87337" lon="6.49407">
        <ele>1437.2</ele>
        <time>2024-08-11T14:23:01Z</time>
      </trkpt>
      <trkpt lat="44.87337" lon="6.49407">
        <ele>1437.2</ele>
        <time>2024-08-11T14:23:02Z</time>
      </trkpt>
      <trkpt lat="44.87335" lon="6.49404">
        <ele>1437.2</ele>
        <time>2024-08-11T14:23:03Z</time>
      </trkpt>
      <trkpt lat="44.87335" lon="6.49404">
        <ele>1437.2</ele>
        <time>2024-08-11T14:23:04Z</time>
      </trkpt>
      <trkpt lat="44.87333" lon="6.49401">
        <ele>1437.2</ele>
        <time>2024-08-11T14:23:05Z</time>
      </trkpt>
      <trkpt lat="44.87332" lon="6.49399">
        <ele>1437</ele>
        <time>2024-08-11T14:23:06Z</time>
      </trkpt>
      <trkpt lat="44.87332" lon="6.49399">
        <ele>1436.8</ele>
        <time>2024-08-11T14:23:07Z</time>
      </trkpt>
      <trkpt lat="44.87331" lon="6.49394">
        <ele>1436.8</ele>
        <time>2024-08-11T14:23:08Z</time>
      </trkpt>
      <trkpt lat="44.87331" lon="6.49394">
        <ele>1436.6</ele>
        <time>2024-08-11T14:23:09Z</time>
      </trkpt>
      <trkpt lat="44.8733" lon="6.49392">
        <ele>1436.6</ele>
        <time>2024-08-11T14:23:10Z</time>
      </trkpt>
      <trkpt lat="44.8733" lon="6.49392">
        <ele>1436.6</ele>
        <time>2024-08-11T14:23:11Z</time>
      </trkpt>
      <trkpt lat="44.87327" lon="6.49389">
        <ele>1436.6</ele>
        <time>2024-08-11T14:23:12Z</time>
      </trkpt>
      <trkpt lat="44.87327" lon="6.49389">
        <ele>1436.4</ele>
        <time>2024-08-11T14:23:13Z</time>
      </trkpt>
      <trkpt lat="44.87324" lon="6.49388">
        <ele>1436.2</ele>
        <time>2024-08-11T14:23:14Z</time>
      </trkpt>
      <trkpt lat="44.87324" lon="6.49388">
        <ele>1436.2</ele>
        <time>2024-08-11T14:23:15Z</time>
      </trkpt>
      <trkpt lat="44.87321" lon="6.49387">
        <ele>1436</ele>
        <time>2024-08-11T14:23:16Z</time>
      </trkpt>
      <trkpt lat="44.87321" lon="6.49387">
        <ele>1435.8</ele>
        <time>2024-08-11T14:23:17Z</time>
      </trkpt>
      <trkpt lat="44.87318" lon="6.49386">
        <ele>1435.8</ele>
        <time>2024-08-11T14:23:18Z</time>
      </trkpt>
      <trkpt lat="44.87316" lon="6.49384">
        <ele>1435.8</ele>
        <time>2024-08-11T14:23:19Z</time>
      </trkpt>
      <trkpt lat="44.87316" lon="6.49384">
        <ele>1435.6</ele>
        <time>2024-08-11T14:23:20Z</time>
      </trkpt>
      <trkpt lat="44.87312" lon="6.49383">
        <ele>1435.4</ele>
        <time>2024-08-11T14:23:21Z</time>
      </trkpt>
      <trkpt lat="44.8731" lon="6.49382">
        <ele>1435.4</ele>
        <time>2024-08-11T14:23:22Z</time>
      </trkpt>
      <trkpt lat="44.8731" lon="6.49382">
        <ele>1435</ele>
        <time>2024-08-11T14:23:23Z</time>
      </trkpt>
      <trkpt lat="44.87308" lon="6.49381">
        <ele>1434.8</ele>
        <time>2024-08-11T14:23:24Z</time>
      </trkpt>
      <trkpt lat="44.87308" lon="6.49381">
        <ele>1434.6</ele>
        <time>2024-08-11T14:23:25Z</time>
      </trkpt>
      <trkpt lat="44.87305" lon="6.4938">
        <ele>1434.6</ele>
        <time>2024-08-11T14:23:26Z</time>
      </trkpt>
      <trkpt lat="44.87303" lon="6.49379">
        <ele>1434.4</ele>
        <time>2024-08-11T14:23:27Z</time>
      </trkpt>
      <trkpt lat="44.87303" lon="6.49379">
        <ele>1434.4</ele>
        <time>2024-08-11T14:23:28Z</time>
      </trkpt>
      <trkpt lat="44.87301" lon="6.49377">
        <ele>1434.4</ele>
        <time>2024-08-11T14:23:29Z</time>
      </trkpt>
      <trkpt lat="44.87301" lon="6.49377">
        <ele>1434.4</ele>
        <time>2024-08-11T14:23:30Z</time>
      </trkpt>
      <trkpt lat="44.87299" lon="6.49374">
        <ele>1434.4</ele>
        <time>2024-08-11T14:23:31Z</time>
      </trkpt>
      <trkpt lat="44.87299" lon="6.49374">
        <ele>1434.2</ele>
        <time>2024-08-11T14:23:32Z</time>
      </trkpt>
      <trkpt lat="44.87297" lon="6.49372">
        <ele>1434</ele>
        <time>2024-08-11T14:23:33Z</time>
      </trkpt>
      <trkpt lat="44.87297" lon="6.49372">
        <ele>1434</ele>
        <time>2024-08-11T14:23:34Z</time>
      </trkpt>
      <trkpt lat="44.87295" lon="6.4937">
        <ele>1434</ele>
        <time>2024-08-11T14:23:35Z</time>
      </trkpt>
      <trkpt lat="44.87295" lon="6.4937">
        <ele>1434</ele>
        <time>2024-08-11T14:23:36Z</time>
      </trkpt>
      <trkpt lat="44.87295" lon="6.4937">
        <ele>1433.8</ele>
        <time>2024-08-11T14:23:37Z</time>
      </trkpt>
      <trkpt lat="44.87293" lon="6.49368">
        <ele>1433.8</ele>
        <time>2024-08-11T14:23:38Z</time>
      </trkpt>
      <trkpt lat="44.87293" lon="6.49368">
        <ele>1433.8</ele>
        <time>2024-08-11T14:23:39Z</time>
      </trkpt>
      <trkpt lat="44.8729" lon="6.49366">
        <ele>1433.8</ele>
        <time>2024-08-11T14:23:40Z</time>
      </trkpt>
      <trkpt lat="44.8729" lon="6.49366">
        <ele>1434</ele>
        <time>2024-08-11T14:23:41Z</time>
      </trkpt>
      <trkpt lat="44.87288" lon="6.49365">
        <ele>1434</ele>
        <time>2024-08-11T14:23:42Z</time>
      </trkpt>
      <trkpt lat="44.87288" lon="6.49365">
        <ele>1434</ele>
        <time>2024-08-11T14:23:43Z</time>
      </trkpt>
      <trkpt lat="44.87285" lon="6.49363">
        <ele>1433.6</ele>
        <time>2024-08-11T14:23:44Z</time>
      </trkpt>
      <trkpt lat="44.87285" lon="6.49363">
        <ele>1433.4</ele>
        <time>2024-08-11T14:23:45Z</time>
      </trkpt>
      <trkpt lat="44.87283" lon="6.49362">
        <ele>1433.4</ele>
        <time>2024-08-11T14:23:46Z</time>
      </trkpt>
      <trkpt lat="44.87283" lon="6.49362">
        <ele>1433.4</ele>
        <time>2024-08-11T14:23:47Z</time>
      </trkpt>
      <trkpt lat="44.8728" lon="6.49361">
        <ele>1433.4</ele>
        <time>2024-08-11T14:23:48Z</time>
      </trkpt>
      <trkpt lat="44.8728" lon="6.49361">
        <ele>1433.4</ele>
        <time>2024-08-11T14:23:49Z</time>
      </trkpt>
      <trkpt lat="44.87277" lon="6.4936">
        <ele>1433.4</ele>
        <time>2024-08-11T14:23:50Z</time>
      </trkpt>
      <trkpt lat="44.87277" lon="6.4936">
        <ele>1433.2</ele>
        <time>2024-08-11T14:23:51Z</time>
      </trkpt>
      <trkpt lat="44.87274" lon="6.4936">
        <ele>1433.2</ele>
        <time>2024-08-11T14:23:52Z</time>
      </trkpt>
      <trkpt lat="44.87274" lon="6.4936">
        <ele>1433.2</ele>
        <time>2024-08-11T14:23:53Z</time>
      </trkpt>
      <trkpt lat="44.87271" lon="6.49359">
        <ele>1433.2</ele>
        <time>2024-08-11T14:23:54Z</time>
      </trkpt>
      <trkpt lat="44.87271" lon="6.49359">
        <ele>1433.2</ele>
        <time>2024-08-11T14:23:55Z</time>
      </trkpt>
      <trkpt lat="44.87269" lon="6.49358">
        <ele>1433</ele>
        <time>2024-08-11T14:23:56Z</time>
      </trkpt>
      <trkpt lat="44.87269" lon="6.49358">
        <ele>1433</ele>
        <time>2024-08-11T14:23:57Z</time>
      </trkpt>
      <trkpt lat="44.87267" lon="6.49357">
        <ele>1433</ele>
        <time>2024-08-11T14:23:58Z</time>
      </trkpt>
      <trkpt lat="44.87267" lon="6.49357">
        <ele>1433</ele>
        <time>2024-08-11T14:23:59Z</time>
      </trkpt>
      <trkpt lat="44.87264" lon="6.49356">
        <ele>1433.2</ele>
        <time>2024-08-11T14:24:00Z</time>
      </trkpt>
      <trkpt lat="44.87264" lon="6.49356">
        <ele>1433.2</ele>
        <time>2024-08-11T14:24:01Z</time>
      </trkpt>
      <trkpt lat="44.87261" lon="6.49355">
        <ele>1432.8</ele>
        <time>2024-08-11T14:24:02Z</time>
      </trkpt>
      <trkpt lat="44.87261" lon="6.49355">
        <ele>1432.8</ele>
        <time>2024-08-11T14:24:03Z</time>
      </trkpt>
      <trkpt lat="44.87259" lon="6.49354">
        <ele>1432.8</ele>
        <time>2024-08-11T14:24:04Z</time>
      </trkpt>
      <trkpt lat="44.87259" lon="6.49354">
        <ele>1433</ele>
        <time>2024-08-11T14:24:05Z</time>
      </trkpt>
      <trkpt lat="44.87256" lon="6.49353">
        <ele>1433</ele>
        <time>2024-08-11T14:24:06Z</time>
      </trkpt>
      <trkpt lat="44.87256" lon="6.49353">
        <ele>1432.6</ele>
        <time>2024-08-11T14:24:07Z</time>
      </trkpt>
      <trkpt lat="44.87253" lon="6.49354">
        <ele>1432.4</ele>
        <time>2024-08-11T14:24:08Z</time>
      </trkpt>
      <trkpt lat="44.87253" lon="6.49354">
        <ele>1432.4</ele>
        <time>2024-08-11T14:24:09Z</time>
      </trkpt>
      <trkpt lat="44.8725" lon="6.49353">
        <ele>1432.6</ele>
        <time>2024-08-11T14:24:10Z</time>
      </trkpt>
      <trkpt lat="44.8725" lon="6.49353">
        <ele>1432.8</ele>
        <time>2024-08-11T14:24:11Z</time>
      </trkpt>
      <trkpt lat="44.87247" lon="6.49351">
        <ele>1432.8</ele>
        <time>2024-08-11T14:24:12Z</time>
      </trkpt>
      <trkpt lat="44.87247" lon="6.49351">
        <ele>1433</ele>
        <time>2024-08-11T14:24:13Z</time>
      </trkpt>
      <trkpt lat="44.87245" lon="6.4935">
        <ele>1433.2</ele>
        <time>2024-08-11T14:24:14Z</time>
      </trkpt>
      <trkpt lat="44.87245" lon="6.4935">
        <ele>1433.2</ele>
        <time>2024-08-11T14:24:15Z</time>
      </trkpt>
      <trkpt lat="44.87243" lon="6.49349">
        <ele>1433.2</ele>
        <time>2024-08-11T14:24:16Z</time>
      </trkpt>
      <trkpt lat="44.87243" lon="6.49349">
        <ele>1433.2</ele>
        <time>2024-08-11T14:24:17Z</time>
      </trkpt>
      <trkpt lat="44.87241" lon="6.49346">
        <ele>1433.2</ele>
        <time>2024-08-11T14:24:18Z</time>
      </trkpt>
      <trkpt lat="44.87241" lon="6.49346">
        <ele>1433.2</ele>
        <time>2024-08-11T14:24:19Z</time>
      </trkpt>
      <trkpt lat="44.87239" lon="6.49344">
        <ele>1433.4</ele>
        <time>2024-08-11T14:24:20Z</time>
      </trkpt>
      <trkpt lat="44.87239" lon="6.49344">
        <ele>1433.4</ele>
        <time>2024-08-11T14:24:21Z</time>
      </trkpt>
      <trkpt lat="44.87238" lon="6.49341">
        <ele>1433.4</ele>
        <time>2024-08-11T14:24:22Z</time>
      </trkpt>
      <trkpt lat="44.87238" lon="6.49341">
        <ele>1433.4</ele>
        <time>2024-08-11T14:24:23Z</time>
      </trkpt>
      <trkpt lat="44.87237" lon="6.49338">
        <ele>1433.4</ele>
        <time>2024-08-11T14:24:24Z</time>
      </trkpt>
      <trkpt lat="44.87237" lon="6.49338">
        <ele>1433.4</ele>
        <time>2024-08-11T14:24:25Z</time>
      </trkpt>
      <trkpt lat="44.87237" lon="6.49338">
        <ele>1433.4</ele>
        <time>2024-08-11T14:24:26Z</time>
      </trkpt>
      <trkpt lat="44.87235" lon="6.49334">
        <ele>1433.4</ele>
        <time>2024-08-11T14:24:27Z</time>
      </trkpt>
      <trkpt lat="44.87235" lon="6.49334">
        <ele>1433.4</ele>
        <time>2024-08-11T14:24:28Z</time>
      </trkpt>
      <trkpt lat="44.87232" lon="6.49331">
        <ele>1433.4</ele>
        <time>2024-08-11T14:24:29Z</time>
      </trkpt>
      <trkpt lat="44.87231" lon="6.4933">
        <ele>1433.4</ele>
        <time>2024-08-11T14:24:30Z</time>
      </trkpt>
      <trkpt lat="44.87229" lon="6.49327">
        <ele>1433.2</ele>
        <time>2024-08-11T14:24:31Z</time>
      </trkpt>
      <trkpt lat="44.87227" lon="6.49327">
        <ele>1433.2</ele>
        <time>2024-08-11T14:24:32Z</time>
      </trkpt>
      <trkpt lat="44.87227" lon="6.49327">
        <ele>1433.2</ele>
        <time>2024-08-11T14:24:33Z</time>
      </trkpt>
      <trkpt lat="44.87224" lon="6.49325">
        <ele>1433.2</ele>
        <time>2024-08-11T14:24:34Z</time>
      </trkpt>
      <trkpt lat="44.87224" lon="6.49325">
        <ele>1433.2</ele>
        <time>2024-08-11T14:24:35Z</time>
      </trkpt>
      <trkpt lat="44.87222" lon="6.49322">
        <ele>1433</ele>
        <time>2024-08-11T14:24:36Z</time>
      </trkpt>
      <trkpt lat="44.87221" lon="6.4932">
        <ele>1433</ele>
        <time>2024-08-11T14:24:37Z</time>
      </trkpt>
      <trkpt lat="44.87219" lon="6.49319">
        <ele>1433</ele>
        <time>2024-08-11T14:24:38Z</time>
      </trkpt>
      <trkpt lat="44.87219" lon="6.49319">
        <ele>1433</ele>
        <time>2024-08-11T14:24:39Z</time>
      </trkpt>
      <trkpt lat="44.87216" lon="6.49317">
        <ele>1432.8</ele>
        <time>2024-08-11T14:24:40Z</time>
      </trkpt>
      <trkpt lat="44.87214" lon="6.49316">
        <ele>1432.8</ele>
        <time>2024-08-11T14:24:41Z</time>
      </trkpt>
      <trkpt lat="44.87214" lon="6.49316">
        <ele>1432.8</ele>
        <time>2024-08-11T14:24:42Z</time>
      </trkpt>
      <trkpt lat="44.87211" lon="6.49315">
        <ele>1432.8</ele>
        <time>2024-08-11T14:24:43Z</time>
      </trkpt>
      <trkpt lat="44.87209" lon="6.49315">
        <ele>1432.8</ele>
        <time>2024-08-11T14:24:44Z</time>
      </trkpt>
      <trkpt lat="44.87209" lon="6.49315">
        <ele>1432.6</ele>
        <time>2024-08-11T14:24:45Z</time>
      </trkpt>
      <trkpt lat="44.87207" lon="6.49314">
        <ele>1432.6</ele>
        <time>2024-08-11T14:24:46Z</time>
      </trkpt>
      <trkpt lat="44.87207" lon="6.49314">
        <ele>1432.4</ele>
        <time>2024-08-11T14:24:47Z</time>
      </trkpt>
      <trkpt lat="44.87204" lon="6.49314">
        <ele>1432.4</ele>
        <time>2024-08-11T14:24:48Z</time>
      </trkpt>
      <trkpt lat="44.87204" lon="6.49314">
        <ele>1432.4</ele>
        <time>2024-08-11T14:24:49Z</time>
      </trkpt>
      <trkpt lat="44.87201" lon="6.49313">
        <ele>1432.2</ele>
        <time>2024-08-11T14:24:50Z</time>
      </trkpt>
      <trkpt lat="44.87201" lon="6.49313">
        <ele>1432</ele>
        <time>2024-08-11T14:24:51Z</time>
      </trkpt>
      <trkpt lat="44.87198" lon="6.49313">
        <ele>1432</ele>
        <time>2024-08-11T14:24:52Z</time>
      </trkpt>
      <trkpt lat="44.87195" lon="6.49314">
        <ele>1432</ele>
        <time>2024-08-11T14:24:53Z</time>
      </trkpt>
      <trkpt lat="44.87193" lon="6.49314">
        <ele>1432</ele>
        <time>2024-08-11T14:24:54Z</time>
      </trkpt>
      <trkpt lat="44.87193" lon="6.49314">
        <ele>1431.8</ele>
        <time>2024-08-11T14:24:55Z</time>
      </trkpt>
      <trkpt lat="44.87189" lon="6.49315">
        <ele>1431.8</ele>
        <time>2024-08-11T14:24:56Z</time>
      </trkpt>
      <trkpt lat="44.87189" lon="6.49315">
        <ele>1431.6</ele>
        <time>2024-08-11T14:24:57Z</time>
      </trkpt>
      <trkpt lat="44.87186" lon="6.49316">
        <ele>1431.6</ele>
        <time>2024-08-11T14:24:58Z</time>
      </trkpt>
      <trkpt lat="44.87184" lon="6.49316">
        <ele>1431.4</ele>
        <time>2024-08-11T14:24:59Z</time>
      </trkpt>
      <trkpt lat="44.87184" lon="6.49316">
        <ele>1431.4</ele>
        <time>2024-08-11T14:25:00Z</time>
      </trkpt>
      <trkpt lat="44.87181" lon="6.49317">
        <ele>1431.4</ele>
        <time>2024-08-11T14:25:01Z</time>
      </trkpt>
      <trkpt lat="44.87181" lon="6.49317">
        <ele>1431.6</ele>
        <time>2024-08-11T14:25:02Z</time>
      </trkpt>
      <trkpt lat="44.87179" lon="6.49319">
        <ele>1431.6</ele>
        <time>2024-08-11T14:25:03Z</time>
      </trkpt>
      <trkpt lat="44.87179" lon="6.49319">
        <ele>1431.6</ele>
        <time>2024-08-11T14:25:04Z</time>
      </trkpt>
      <trkpt lat="44.87175" lon="6.4932">
        <ele>1431.4</ele>
        <time>2024-08-11T14:25:05Z</time>
      </trkpt>
      <trkpt lat="44.87175" lon="6.4932">
        <ele>1431.4</ele>
        <time>2024-08-11T14:25:06Z</time>
      </trkpt>
      <trkpt lat="44.87172" lon="6.4932">
        <ele>1431.4</ele>
        <time>2024-08-11T14:25:07Z</time>
      </trkpt>
      <trkpt lat="44.87172" lon="6.4932">
        <ele>1431.4</ele>
        <time>2024-08-11T14:25:08Z</time>
      </trkpt>
      <trkpt lat="44.8717" lon="6.4932">
        <ele>1431.2</ele>
        <time>2024-08-11T14:25:09Z</time>
      </trkpt>
      <trkpt lat="44.8717" lon="6.4932">
        <ele>1431.2</ele>
        <time>2024-08-11T14:25:10Z</time>
      </trkpt>
      <trkpt lat="44.87167" lon="6.4932">
        <ele>1431.2</ele>
        <time>2024-08-11T14:25:11Z</time>
      </trkpt>
      <trkpt lat="44.87167" lon="6.4932">
        <ele>1431.2</ele>
        <time>2024-08-11T14:25:12Z</time>
      </trkpt>
      <trkpt lat="44.87164" lon="6.49321">
        <ele>1431.2</ele>
        <time>2024-08-11T14:25:13Z</time>
      </trkpt>
      <trkpt lat="44.87164" lon="6.49321">
        <ele>1431</ele>
        <time>2024-08-11T14:25:14Z</time>
      </trkpt>
      <trkpt lat="44.87162" lon="6.49322">
        <ele>1430.8</ele>
        <time>2024-08-11T14:25:15Z</time>
      </trkpt>
      <trkpt lat="44.87162" lon="6.49322">
        <ele>1430.8</ele>
        <time>2024-08-11T14:25:16Z</time>
      </trkpt>
      <trkpt lat="44.87159" lon="6.49323">
        <ele>1430.8</ele>
        <time>2024-08-11T14:25:17Z</time>
      </trkpt>
      <trkpt lat="44.87157" lon="6.49323">
        <ele>1430.8</ele>
        <time>2024-08-11T14:25:18Z</time>
      </trkpt>
      <trkpt lat="44.87157" lon="6.49323">
        <ele>1430.6</ele>
        <time>2024-08-11T14:25:19Z</time>
      </trkpt>
      <trkpt lat="44.87154" lon="6.49324">
        <ele>1430.6</ele>
        <time>2024-08-11T14:25:20Z</time>
      </trkpt>
      <trkpt lat="44.87154" lon="6.49324">
        <ele>1430.4</ele>
        <time>2024-08-11T14:25:21Z</time>
      </trkpt>
      <trkpt lat="44.87152" lon="6.49324">
        <ele>1430.4</ele>
        <time>2024-08-11T14:25:22Z</time>
      </trkpt>
      <trkpt lat="44.87152" lon="6.49324">
        <ele>1430.2</ele>
        <time>2024-08-11T14:25:23Z</time>
      </trkpt>
      <trkpt lat="44.87149" lon="6.49325">
        <ele>1430.2</ele>
        <time>2024-08-11T14:25:24Z</time>
      </trkpt>
      <trkpt lat="44.87147" lon="6.49325">
        <ele>1430</ele>
        <time>2024-08-11T14:25:25Z</time>
      </trkpt>
      <trkpt lat="44.87145" lon="6.49325">
        <ele>1430</ele>
        <time>2024-08-11T14:25:26Z</time>
      </trkpt>
      <trkpt lat="44.87145" lon="6.49325">
        <ele>1429.8</ele>
        <time>2024-08-11T14:25:27Z</time>
      </trkpt>
      <trkpt lat="44.87141" lon="6.49325">
        <ele>1429.8</ele>
        <time>2024-08-11T14:25:28Z</time>
      </trkpt>
      <trkpt lat="44.87141" lon="6.49325">
        <ele>1429.8</ele>
        <time>2024-08-11T14:25:29Z</time>
      </trkpt>
      <trkpt lat="44.87138" lon="6.49326">
        <ele>1429.8</ele>
        <time>2024-08-11T14:25:30Z</time>
      </trkpt>
      <trkpt lat="44.87138" lon="6.49326">
        <ele>1429.8</ele>
        <time>2024-08-11T14:25:31Z</time>
      </trkpt>
      <trkpt lat="44.87135" lon="6.49327">
        <ele>1429.8</ele>
        <time>2024-08-11T14:25:32Z</time>
      </trkpt>
      <trkpt lat="44.87135" lon="6.49327">
        <ele>1429.6</ele>
        <time>2024-08-11T14:25:33Z</time>
      </trkpt>
      <trkpt lat="44.87132" lon="6.49327">
        <ele>1429.6</ele>
        <time>2024-08-11T14:25:34Z</time>
      </trkpt>
      <trkpt lat="44.87132" lon="6.49327">
        <ele>1429.6</ele>
        <time>2024-08-11T14:25:35Z</time>
      </trkpt>
      <trkpt lat="44.8713" lon="6.49327">
        <ele>1429.4</ele>
        <time>2024-08-11T14:25:36Z</time>
      </trkpt>
      <trkpt lat="44.8713" lon="6.49327">
        <ele>1429.4</ele>
        <time>2024-08-11T14:25:37Z</time>
      </trkpt>
      <trkpt lat="44.87128" lon="6.49326">
        <ele>1429.6</ele>
        <time>2024-08-11T14:25:38Z</time>
      </trkpt>
      <trkpt lat="44.87128" lon="6.49326">
        <ele>1429.6</ele>
        <time>2024-08-11T14:25:39Z</time>
      </trkpt>
      <trkpt lat="44.87125" lon="6.49325">
        <ele>1429.6</ele>
        <time>2024-08-11T14:25:40Z</time>
      </trkpt>
      <trkpt lat="44.87125" lon="6.49325">
        <ele>1429.6</ele>
        <time>2024-08-11T14:25:41Z</time>
      </trkpt>
      <trkpt lat="44.87121" lon="6.49324">
        <ele>1429.6</ele>
        <time>2024-08-11T14:25:42Z</time>
      </trkpt>
      <trkpt lat="44.87121" lon="6.49324">
        <ele>1429.4</ele>
        <time>2024-08-11T14:25:43Z</time>
      </trkpt>
      <trkpt lat="44.87119" lon="6.49322">
        <ele>1429.4</ele>
        <time>2024-08-11T14:25:44Z</time>
      </trkpt>
      <trkpt lat="44.87117" lon="6.49321">
        <ele>1429.4</ele>
        <time>2024-08-11T14:25:45Z</time>
      </trkpt>
      <trkpt lat="44.87116" lon="6.4932">
        <ele>1429.2</ele>
        <time>2024-08-11T14:25:46Z</time>
      </trkpt>
      <trkpt lat="44.87116" lon="6.4932">
        <ele>1429.2</ele>
        <time>2024-08-11T14:25:47Z</time>
      </trkpt>
      <trkpt lat="44.87113" lon="6.49319">
        <ele>1429.4</ele>
        <time>2024-08-11T14:25:48Z</time>
      </trkpt>
      <trkpt lat="44.87113" lon="6.49319">
        <ele>1429.4</ele>
        <time>2024-08-11T14:25:49Z</time>
      </trkpt>
      <trkpt lat="44.8711" lon="6.49318">
        <ele>1429.4</ele>
        <time>2024-08-11T14:25:50Z</time>
      </trkpt>
      <trkpt lat="44.8711" lon="6.49318">
        <ele>1429.2</ele>
        <time>2024-08-11T14:25:51Z</time>
      </trkpt>
      <trkpt lat="44.87108" lon="6.49317">
        <ele>1429.2</ele>
        <time>2024-08-11T14:25:52Z</time>
      </trkpt>
      <trkpt lat="44.87108" lon="6.49317">
        <ele>1429</ele>
        <time>2024-08-11T14:25:53Z</time>
      </trkpt>
      <trkpt lat="44.87104" lon="6.49317">
        <ele>1429</ele>
        <time>2024-08-11T14:25:54Z</time>
      </trkpt>
      <trkpt lat="44.87104" lon="6.49317">
        <ele>1428.8</ele>
        <time>2024-08-11T14:25:55Z</time>
      </trkpt>
      <trkpt lat="44.87101" lon="6.49316">
        <ele>1428.6</ele>
        <time>2024-08-11T14:25:56Z</time>
      </trkpt>
      <trkpt lat="44.87101" lon="6.49316">
        <ele>1428.6</ele>
        <time>2024-08-11T14:25:57Z</time>
      </trkpt>
      <trkpt lat="44.871" lon="6.49314">
        <ele>1428.4</ele>
        <time>2024-08-11T14:25:58Z</time>
      </trkpt>
      <trkpt lat="44.871" lon="6.49314">
        <ele>1428.2</ele>
        <time>2024-08-11T14:25:59Z</time>
      </trkpt>
      <trkpt lat="44.87097" lon="6.49313">
        <ele>1428.2</ele>
        <time>2024-08-11T14:26:00Z</time>
      </trkpt>
      <trkpt lat="44.87097" lon="6.49313">
        <ele>1428</ele>
        <time>2024-08-11T14:26:01Z</time>
      </trkpt>
      <trkpt lat="44.87095" lon="6.49312">
        <ele>1428</ele>
        <time>2024-08-11T14:26:02Z</time>
      </trkpt>
      <trkpt lat="44.87095" lon="6.49312">
        <ele>1428</ele>
        <time>2024-08-11T14:26:03Z</time>
      </trkpt>
      <trkpt lat="44.87093" lon="6.4931">
        <ele>1427.8</ele>
        <time>2024-08-11T14:26:04Z</time>
      </trkpt>
      <trkpt lat="44.87093" lon="6.4931">
        <ele>1427.6</ele>
        <time>2024-08-11T14:26:05Z</time>
      </trkpt>
      <trkpt lat="44.87091" lon="6.49306">
        <ele>1427.4</ele>
        <time>2024-08-11T14:26:06Z</time>
      </trkpt>
      <trkpt lat="44.87091" lon="6.49306">
        <ele>1427.4</ele>
        <time>2024-08-11T14:26:07Z</time>
      </trkpt>
      <trkpt lat="44.87088" lon="6.49304">
        <ele>1427.4</ele>
        <time>2024-08-11T14:26:08Z</time>
      </trkpt>
      <trkpt lat="44.87088" lon="6.49304">
        <ele>1427.4</ele>
        <time>2024-08-11T14:26:09Z</time>
      </trkpt>
      <trkpt lat="44.87086" lon="6.49303">
        <ele>1427.4</ele>
        <time>2024-08-11T14:26:10Z</time>
      </trkpt>
      <trkpt lat="44.87084" lon="6.49302">
        <ele>1427.2</ele>
        <time>2024-08-11T14:26:11Z</time>
      </trkpt>
      <trkpt lat="44.87084" lon="6.49302">
        <ele>1427.2</ele>
        <time>2024-08-11T14:26:12Z</time>
      </trkpt>
      <trkpt lat="44.87081" lon="6.49302">
        <ele>1427.2</ele>
        <time>2024-08-11T14:26:13Z</time>
      </trkpt>
      <trkpt lat="44.87079" lon="6.49302">
        <ele>1427</ele>
        <time>2024-08-11T14:26:14Z</time>
      </trkpt>
      <trkpt lat="44.87079" lon="6.49302">
        <ele>1426.8</ele>
        <time>2024-08-11T14:26:15Z</time>
      </trkpt>
      <trkpt lat="44.87076" lon="6.49303">
        <ele>1426.8</ele>
        <time>2024-08-11T14:26:16Z</time>
      </trkpt>
      <trkpt lat="44.87076" lon="6.49303">
        <ele>1426.6</ele>
        <time>2024-08-11T14:26:17Z</time>
      </trkpt>
      <trkpt lat="44.87073" lon="6.49304">
        <ele>1426.6</ele>
        <time>2024-08-11T14:26:18Z</time>
      </trkpt>
      <trkpt lat="44.87073" lon="6.49304">
        <ele>1426.4</ele>
        <time>2024-08-11T14:26:19Z</time>
      </trkpt>
      <trkpt lat="44.8707" lon="6.49305">
        <ele>1426.4</ele>
        <time>2024-08-11T14:26:20Z</time>
      </trkpt>
      <trkpt lat="44.8707" lon="6.49305">
        <ele>1426.4</ele>
        <time>2024-08-11T14:26:21Z</time>
      </trkpt>
      <trkpt lat="44.87067" lon="6.49306">
        <ele>1426.2</ele>
        <time>2024-08-11T14:26:22Z</time>
      </trkpt>
      <trkpt lat="44.87067" lon="6.49306">
        <ele>1426.2</ele>
        <time>2024-08-11T14:26:23Z</time>
      </trkpt>
      <trkpt lat="44.87064" lon="6.49307">
        <ele>1426</ele>
        <time>2024-08-11T14:26:24Z</time>
      </trkpt>
      <trkpt lat="44.87064" lon="6.49307">
        <ele>1425.8</ele>
        <time>2024-08-11T14:26:25Z</time>
      </trkpt>
      <trkpt lat="44.87061" lon="6.49308">
        <ele>1425.8</ele>
        <time>2024-08-11T14:26:26Z</time>
      </trkpt>
      <trkpt lat="44.87061" lon="6.49308">
        <ele>1425.8</ele>
        <time>2024-08-11T14:26:27Z</time>
      </trkpt>
      <trkpt lat="44.87059" lon="6.49309">
        <ele>1426</ele>
        <time>2024-08-11T14:26:28Z</time>
      </trkpt>
      <trkpt lat="44.87059" lon="6.49309">
        <ele>1426</ele>
        <time>2024-08-11T14:26:29Z</time>
      </trkpt>
      <trkpt lat="44.87056" lon="6.4931">
        <ele>1425.8</ele>
        <time>2024-08-11T14:26:30Z</time>
      </trkpt>
      <trkpt lat="44.87056" lon="6.4931">
        <ele>1425.6</ele>
        <time>2024-08-11T14:26:31Z</time>
      </trkpt>
      <trkpt lat="44.87054" lon="6.49311">
        <ele>1425.2</ele>
        <time>2024-08-11T14:26:32Z</time>
      </trkpt>
      <trkpt lat="44.87054" lon="6.49311">
        <ele>1425</ele>
        <time>2024-08-11T14:26:33Z</time>
      </trkpt>
      <trkpt lat="44.87052" lon="6.49313">
        <ele>1424.6</ele>
        <time>2024-08-11T14:26:34Z</time>
      </trkpt>
      <trkpt lat="44.87052" lon="6.49313">
        <ele>1424.6</ele>
        <time>2024-08-11T14:26:35Z</time>
      </trkpt>
      <trkpt lat="44.87049" lon="6.49315">
        <ele>1424.6</ele>
        <time>2024-08-11T14:26:36Z</time>
      </trkpt>
      <trkpt lat="44.87047" lon="6.49315">
        <ele>1424.6</ele>
        <time>2024-08-11T14:26:37Z</time>
      </trkpt>
      <trkpt lat="44.87047" lon="6.49315">
        <ele>1424.4</ele>
        <time>2024-08-11T14:26:38Z</time>
      </trkpt>
      <trkpt lat="44.87044" lon="6.49316">
        <ele>1424.4</ele>
        <time>2024-08-11T14:26:39Z</time>
      </trkpt>
      <trkpt lat="44.87042" lon="6.49317">
        <ele>1424</ele>
        <time>2024-08-11T14:26:40Z</time>
      </trkpt>
      <trkpt lat="44.87039" lon="6.49318">
        <ele>1423.4</ele>
        <time>2024-08-11T14:26:41Z</time>
      </trkpt>
      <trkpt lat="44.87039" lon="6.49318">
        <ele>1423.4</ele>
        <time>2024-08-11T14:26:42Z</time>
      </trkpt>
      <trkpt lat="44.87036" lon="6.49319">
        <ele>1423.4</ele>
        <time>2024-08-11T14:26:43Z</time>
      </trkpt>
      <trkpt lat="44.87036" lon="6.49319">
        <ele>1423.2</ele>
        <time>2024-08-11T14:26:44Z</time>
      </trkpt>
      <trkpt lat="44.87034" lon="6.49322">
        <ele>1423.2</ele>
        <time>2024-08-11T14:26:45Z</time>
      </trkpt>
      <trkpt lat="44.87034" lon="6.49322">
        <ele>1423</ele>
        <time>2024-08-11T14:26:46Z</time>
      </trkpt>
      <trkpt lat="44.87032" lon="6.49324">
        <ele>1423</ele>
        <time>2024-08-11T14:26:47Z</time>
      </trkpt>
      <trkpt lat="44.87032" lon="6.49324">
        <ele>1422.6</ele>
        <time>2024-08-11T14:26:48Z</time>
      </trkpt>
      <trkpt lat="44.87029" lon="6.49327">
        <ele>1422.6</ele>
        <time>2024-08-11T14:26:49Z</time>
      </trkpt>
      <trkpt lat="44.87029" lon="6.49327">
        <ele>1422.6</ele>
        <time>2024-08-11T14:26:50Z</time>
      </trkpt>
      <trkpt lat="44.87027" lon="6.49328">
        <ele>1422.6</ele>
        <time>2024-08-11T14:26:51Z</time>
      </trkpt>
      <trkpt lat="44.87027" lon="6.49328">
        <ele>1422.6</ele>
        <time>2024-08-11T14:26:52Z</time>
      </trkpt>
      <trkpt lat="44.87025" lon="6.49329">
        <ele>1422.4</ele>
        <time>2024-08-11T14:26:53Z</time>
      </trkpt>
      <trkpt lat="44.87025" lon="6.49329">
        <ele>1422</ele>
        <time>2024-08-11T14:26:54Z</time>
      </trkpt>
      <trkpt lat="44.87022" lon="6.49329">
        <ele>1422</ele>
        <time>2024-08-11T14:26:55Z</time>
      </trkpt>
      <trkpt lat="44.87022" lon="6.49329">
        <ele>1422</ele>
        <time>2024-08-11T14:26:56Z</time>
      </trkpt>
      <trkpt lat="44.8702" lon="6.49329">
        <ele>1422</ele>
        <time>2024-08-11T14:26:57Z</time>
      </trkpt>
      <trkpt lat="44.8702" lon="6.49329">
        <ele>1421.8</ele>
        <time>2024-08-11T14:26:58Z</time>
      </trkpt>
      <trkpt lat="44.87017" lon="6.49328">
        <ele>1421.8</ele>
        <time>2024-08-11T14:26:59Z</time>
      </trkpt>
      <trkpt lat="44.87017" lon="6.49328">
        <ele>1421.8</ele>
        <time>2024-08-11T14:27:00Z</time>
      </trkpt>
      <trkpt lat="44.87014" lon="6.49328">
        <ele>1421.8</ele>
        <time>2024-08-11T14:27:01Z</time>
      </trkpt>
      <trkpt lat="44.87011" lon="6.49327">
        <ele>1421.6</ele>
        <time>2024-08-11T14:27:02Z</time>
      </trkpt>
      <trkpt lat="44.87011" lon="6.49327">
        <ele>1421.6</ele>
        <time>2024-08-11T14:27:03Z</time>
      </trkpt>
      <trkpt lat="44.87009" lon="6.49327">
        <ele>1421.4</ele>
        <time>2024-08-11T14:27:04Z</time>
      </trkpt>
      <trkpt lat="44.87009" lon="6.49327">
        <ele>1421.4</ele>
        <time>2024-08-11T14:27:05Z</time>
      </trkpt>
      <trkpt lat="44.87009" lon="6.49327">
        <ele>1421.4</ele>
        <time>2024-08-11T14:27:06Z</time>
      </trkpt>
      <trkpt lat="44.87009" lon="6.49327">
        <ele>1421.2</ele>
        <time>2024-08-11T14:27:07Z</time>
      </trkpt>
      <trkpt lat="44.87009" lon="6.49327">
        <ele>1421</ele>
        <time>2024-08-11T14:27:08Z</time>
      </trkpt>
      <trkpt lat="44.87009" lon="6.49327">
        <ele>1421</ele>
        <time>2024-08-11T14:27:09Z</time>
      </trkpt>
      <trkpt lat="44.87007" lon="6.49327">
        <ele>1421</ele>
        <time>2024-08-11T14:27:10Z</time>
      </trkpt>
      <trkpt lat="44.87007" lon="6.49327">
        <ele>1421</ele>
        <time>2024-08-11T14:27:11Z</time>
      </trkpt>
      <trkpt lat="44.87006" lon="6.49325">
        <ele>1421</ele>
        <time>2024-08-11T14:27:12Z</time>
      </trkpt>
      <trkpt lat="44.87006" lon="6.49325">
        <ele>1420.8</ele>
        <time>2024-08-11T14:27:13Z</time>
      </trkpt>
      <trkpt lat="44.87006" lon="6.49325">
        <ele>1420.8</ele>
        <time>2024-08-11T14:27:14Z</time>
      </trkpt>
      <trkpt lat="44.87006" lon="6.49325">
        <ele>1420.8</ele>
        <time>2024-08-11T14:27:15Z</time>
      </trkpt>
      <trkpt lat="44.87006" lon="6.49325">
        <ele>1420.8</ele>
        <time>2024-08-11T14:27:16Z</time>
      </trkpt>
      <trkpt lat="44.87006" lon="6.49325">
        <ele>1420.4</ele>
        <time>2024-08-11T14:27:17Z</time>
      </trkpt>
      <trkpt lat="44.87006" lon="6.49325">
        <ele>1420.4</ele>
        <time>2024-08-11T14:27:18Z</time>
      </trkpt>
      <trkpt lat="44.87006" lon="6.49325">
        <ele>1420.4</ele>
        <time>2024-08-11T14:27:19Z</time>
      </trkpt>
      <trkpt lat="44.87006" lon="6.49325">
        <ele>1420.4</ele>
        <time>2024-08-11T14:27:20Z</time>
      </trkpt>
      <trkpt lat="44.87006" lon="6.49325">
        <ele>1420.2</ele>
        <time>2024-08-11T14:27:21Z</time>
      </trkpt>
      <trkpt lat="44.87006" lon="6.49325">
        <ele>1420</ele>
        <time>2024-08-11T14:27:22Z</time>
      </trkpt>
      <trkpt lat="44.87006" lon="6.49325">
        <ele>1420</ele>
        <time>2024-08-11T14:27:23Z</time>
      </trkpt>
      <trkpt lat="44.87006" lon="6.49325">
        <ele>1419.8</ele>
        <time>2024-08-11T14:27:24Z</time>
      </trkpt>
      <trkpt lat="44.87006" lon="6.49325">
        <ele>1419.8</ele>
        <time>2024-08-11T14:27:25Z</time>
      </trkpt>
      <trkpt lat="44.87006" lon="6.49325">
        <ele>1419.8</ele>
        <time>2024-08-11T14:27:26Z</time>
      </trkpt>
      <trkpt lat="44.87006" lon="6.49325">
        <ele>1419.6</ele>
        <time>2024-08-11T14:27:27Z</time>
      </trkpt>
      <trkpt lat="44.87006" lon="6.49325">
        <ele>1419.4</ele>
        <time>2024-08-11T14:27:28Z</time>
      </trkpt>
      <trkpt lat="44.87006" lon="6.49325">
        <ele>1419.2</ele>
        <time>2024-08-11T14:27:29Z</time>
      </trkpt>
      <trkpt lat="44.87006" lon="6.49325">
        <ele>1419.2</ele>
        <time>2024-08-11T14:27:30Z</time>
      </trkpt>
      <trkpt lat="44.87006" lon="6.49325">
        <ele>1419.2</ele>
        <time>2024-08-11T14:27:31Z</time>
      </trkpt>
      <trkpt lat="44.87006" lon="6.49325">
        <ele>1419.2</ele>
        <time>2024-08-11T14:27:32Z</time>
      </trkpt>
      <trkpt lat="44.87006" lon="6.49325">
        <ele>1419.2</ele>
        <time>2024-08-11T14:27:33Z</time>
      </trkpt>
      <trkpt lat="44.87006" lon="6.49325">
        <ele>1419.2</ele>
        <time>2024-08-11T14:27:34Z</time>
      </trkpt>
      <trkpt lat="44.87006" lon="6.49325">
        <ele>1419.2</ele>
        <time>2024-08-11T14:27:35Z</time>
      </trkpt>
      <trkpt lat="44.87006" lon="6.49325">
        <ele>1419.2</ele>
        <time>2024-08-11T14:27:36Z</time>
      </trkpt>
      <trkpt lat="44.87006" lon="6.49325">
        <ele>1419.4</ele>
        <time>2024-08-11T14:27:37Z</time>
      </trkpt>
      <trkpt lat="44.87006" lon="6.49325">
        <ele>1419.4</ele>
        <time>2024-08-11T14:27:38Z</time>
      </trkpt>
      <trkpt lat="44.87006" lon="6.49325">
        <ele>1419.4</ele>
        <time>2024-08-11T14:27:39Z</time>
      </trkpt>
      <trkpt lat="44.87006" lon="6.49325">
        <ele>1419.2</ele>
        <time>2024-08-11T14:27:40Z</time>
      </trkpt>
      <trkpt lat="44.87006" lon="6.49325">
        <ele>1419</ele>
        <time>2024-08-11T14:27:41Z</time>
      </trkpt>
      <trkpt lat="44.87006" lon="6.49325">
        <ele>1419</ele>
        <time>2024-08-11T14:27:42Z</time>
      </trkpt>
      <trkpt lat="44.87006" lon="6.49325">
        <ele>1419</ele>
        <time>2024-08-11T14:27:43Z</time>
      </trkpt>
      <trkpt lat="44.87004" lon="6.49324">
        <ele>1418.6</ele>
        <time>2024-08-11T14:27:44Z</time>
      </trkpt>
      <trkpt lat="44.87004" lon="6.49324">
        <ele>1418.6</ele>
        <time>2024-08-11T14:27:45Z</time>
      </trkpt>
      <trkpt lat="44.87001" lon="6.49324">
        <ele>1418.8</ele>
        <time>2024-08-11T14:27:46Z</time>
      </trkpt>
      <trkpt lat="44.87001" lon="6.49324">
        <ele>1418.8</ele>
        <time>2024-08-11T14:27:47Z</time>
      </trkpt>
      <trkpt lat="44.86997" lon="6.49324">
        <ele>1418.8</ele>
        <time>2024-08-11T14:27:48Z</time>
      </trkpt>
      <trkpt lat="44.86997" lon="6.49324">
        <ele>1418.8</ele>
        <time>2024-08-11T14:27:49Z</time>
      </trkpt>
      <trkpt lat="44.86995" lon="6.49324">
        <ele>1419</ele>
        <time>2024-08-11T14:27:50Z</time>
      </trkpt>
      <trkpt lat="44.86995" lon="6.49324">
        <ele>1419</ele>
        <time>2024-08-11T14:27:51Z</time>
      </trkpt>
      <trkpt lat="44.86991" lon="6.49325">
        <ele>1419.2</ele>
        <time>2024-08-11T14:27:52Z</time>
      </trkpt>
      <trkpt lat="44.86991" lon="6.49325">
        <ele>1419.2</ele>
        <time>2024-08-11T14:27:53Z</time>
      </trkpt>
      <trkpt lat="44.86988" lon="6.49324">
        <ele>1419.2</ele>
        <time>2024-08-11T14:27:54Z</time>
      </trkpt>
      <trkpt lat="44.86986" lon="6.49324">
        <ele>1419.4</ele>
        <time>2024-08-11T14:27:55Z</time>
      </trkpt>
      <trkpt lat="44.86984" lon="6.49324">
        <ele>1419.4</ele>
        <time>2024-08-11T14:27:56Z</time>
      </trkpt>
      <trkpt lat="44.86984" lon="6.49324">
        <ele>1419.2</ele>
        <time>2024-08-11T14:27:57Z</time>
      </trkpt>
      <trkpt lat="44.86981" lon="6.49324">
        <ele>1419.2</ele>
        <time>2024-08-11T14:27:58Z</time>
      </trkpt>
      <trkpt lat="44.86981" lon="6.49324">
        <ele>1419.2</ele>
        <time>2024-08-11T14:27:59Z</time>
      </trkpt>
      <trkpt lat="44.86979" lon="6.49324">
        <ele>1419.2</ele>
        <time>2024-08-11T14:28:00Z</time>
      </trkpt>
      <trkpt lat="44.86979" lon="6.49324">
        <ele>1419.2</ele>
        <time>2024-08-11T14:28:01Z</time>
      </trkpt>
      <trkpt lat="44.86975" lon="6.49324">
        <ele>1419</ele>
        <time>2024-08-11T14:28:02Z</time>
      </trkpt>
      <trkpt lat="44.86973" lon="6.49324">
        <ele>1419</ele>
        <time>2024-08-11T14:28:03Z</time>
      </trkpt>
      <trkpt lat="44.86973" lon="6.49324">
        <ele>1419</ele>
        <time>2024-08-11T14:28:04Z</time>
      </trkpt>
      <trkpt lat="44.86971" lon="6.49324">
        <ele>1419.2</ele>
        <time>2024-08-11T14:28:05Z</time>
      </trkpt>
      <trkpt lat="44.86971" lon="6.49324">
        <ele>1419.2</ele>
        <time>2024-08-11T14:28:06Z</time>
      </trkpt>
      <trkpt lat="44.86968" lon="6.49324">
        <ele>1419.2</ele>
        <time>2024-08-11T14:28:07Z</time>
      </trkpt>
      <trkpt lat="44.86966" lon="6.49324">
        <ele>1419.2</ele>
        <time>2024-08-11T14:28:08Z</time>
      </trkpt>
      <trkpt lat="44.86966" lon="6.49324">
        <ele>1419.2</ele>
        <time>2024-08-11T14:28:09Z</time>
      </trkpt>
      <trkpt lat="44.86963" lon="6.49324">
        <ele>1419.2</ele>
        <time>2024-08-11T14:28:10Z</time>
      </trkpt>
      <trkpt lat="44.86963" lon="6.49324">
        <ele>1419</ele>
        <time>2024-08-11T14:28:11Z</time>
      </trkpt>
      <trkpt lat="44.86961" lon="6.49324">
        <ele>1419</ele>
        <time>2024-08-11T14:28:12Z</time>
      </trkpt>
      <trkpt lat="44.86961" lon="6.49324">
        <ele>1418.8</ele>
        <time>2024-08-11T14:28:13Z</time>
      </trkpt>
      <trkpt lat="44.86958" lon="6.49323">
        <ele>1418.8</ele>
        <time>2024-08-11T14:28:14Z</time>
      </trkpt>
      <trkpt lat="44.86958" lon="6.49323">
        <ele>1418.8</ele>
        <time>2024-08-11T14:28:15Z</time>
      </trkpt>
      <trkpt lat="44.86956" lon="6.49322">
        <ele>1418.8</ele>
        <time>2024-08-11T14:28:16Z</time>
      </trkpt>
      <trkpt lat="44.86956" lon="6.49322">
        <ele>1418.8</ele>
        <time>2024-08-11T14:28:17Z</time>
      </trkpt>
      <trkpt lat="44.86953" lon="6.49322">
        <ele>1418.8</ele>
        <time>2024-08-11T14:28:18Z</time>
      </trkpt>
      <trkpt lat="44.86953" lon="6.49322">
        <ele>1418.8</ele>
        <time>2024-08-11T14:28:19Z</time>
      </trkpt>
      <trkpt lat="44.8695" lon="6.49322">
        <ele>1418.8</ele>
        <time>2024-08-11T14:28:20Z</time>
      </trkpt>
      <trkpt lat="44.8695" lon="6.49322">
        <ele>1418.8</ele>
        <time>2024-08-11T14:28:21Z</time>
      </trkpt>
      <trkpt lat="44.86947" lon="6.49322">
        <ele>1419</ele>
        <time>2024-08-11T14:28:22Z</time>
      </trkpt>
      <trkpt lat="44.86947" lon="6.49322">
        <ele>1419.2</ele>
        <time>2024-08-11T14:28:23Z</time>
      </trkpt>
      <trkpt lat="44.86944" lon="6.49322">
        <ele>1419.2</ele>
        <time>2024-08-11T14:28:24Z</time>
      </trkpt>
      <trkpt lat="44.86942" lon="6.49322">
        <ele>1419.2</ele>
        <time>2024-08-11T14:28:25Z</time>
      </trkpt>
      <trkpt lat="44.86942" lon="6.49322">
        <ele>1419</ele>
        <time>2024-08-11T14:28:26Z</time>
      </trkpt>
      <trkpt lat="44.86939" lon="6.49322">
        <ele>1419</ele>
        <time>2024-08-11T14:28:27Z</time>
      </trkpt>
      <trkpt lat="44.86939" lon="6.49322">
        <ele>1419</ele>
        <time>2024-08-11T14:28:28Z</time>
      </trkpt>
      <trkpt lat="44.86937" lon="6.49322">
        <ele>1419</ele>
        <time>2024-08-11T14:28:29Z</time>
      </trkpt>
      <trkpt lat="44.86937" lon="6.49322">
        <ele>1418.8</ele>
        <time>2024-08-11T14:28:30Z</time>
      </trkpt>
      <trkpt lat="44.86933" lon="6.49323">
        <ele>1418.8</ele>
        <time>2024-08-11T14:28:31Z</time>
      </trkpt>
      <trkpt lat="44.86933" lon="6.49323">
        <ele>1418.8</ele>
        <time>2024-08-11T14:28:32Z</time>
      </trkpt>
      <trkpt lat="44.86931" lon="6.49324">
        <ele>1418.8</ele>
        <time>2024-08-11T14:28:33Z</time>
      </trkpt>
      <trkpt lat="44.86931" lon="6.49324">
        <ele>1418.8</ele>
        <time>2024-08-11T14:28:34Z</time>
      </trkpt>
      <trkpt lat="44.86929" lon="6.49325">
        <ele>1418.8</ele>
        <time>2024-08-11T14:28:35Z</time>
      </trkpt>
      <trkpt lat="44.86929" lon="6.49325">
        <ele>1418.6</ele>
        <time>2024-08-11T14:28:36Z</time>
      </trkpt>
      <trkpt lat="44.86927" lon="6.49326">
        <ele>1418.6</ele>
        <time>2024-08-11T14:28:37Z</time>
      </trkpt>
      <trkpt lat="44.86927" lon="6.49326">
        <ele>1418.6</ele>
        <time>2024-08-11T14:28:38Z</time>
      </trkpt>
      <trkpt lat="44.86925" lon="6.49325">
        <ele>1418.6</ele>
        <time>2024-08-11T14:28:39Z</time>
      </trkpt>
      <trkpt lat="44.86925" lon="6.49325">
        <ele>1418.4</ele>
        <time>2024-08-11T14:28:40Z</time>
      </trkpt>
      <trkpt lat="44.86923" lon="6.49326">
        <ele>1418.4</ele>
        <time>2024-08-11T14:28:41Z</time>
      </trkpt>
      <trkpt lat="44.86923" lon="6.49326">
        <ele>1418.4</ele>
        <time>2024-08-11T14:28:42Z</time>
      </trkpt>
      <trkpt lat="44.8692" lon="6.49325">
        <ele>1418.2</ele>
        <time>2024-08-11T14:28:43Z</time>
      </trkpt>
      <trkpt lat="44.8692" lon="6.49325">
        <ele>1418.2</ele>
        <time>2024-08-11T14:28:44Z</time>
      </trkpt>
      <trkpt lat="44.86917" lon="6.49325">
        <ele>1418</ele>
        <time>2024-08-11T14:28:45Z</time>
      </trkpt>
      <trkpt lat="44.86915" lon="6.49324">
        <ele>1418</ele>
        <time>2024-08-11T14:28:46Z</time>
      </trkpt>
      <trkpt lat="44.86913" lon="6.49323">
        <ele>1418</ele>
        <time>2024-08-11T14:28:47Z</time>
      </trkpt>
      <trkpt lat="44.86913" lon="6.49323">
        <ele>1418</ele>
        <time>2024-08-11T14:28:48Z</time>
      </trkpt>
      <trkpt lat="44.86909" lon="6.49322">
        <ele>1417.8</ele>
        <time>2024-08-11T14:28:49Z</time>
      </trkpt>
      <trkpt lat="44.86907" lon="6.49322">
        <ele>1417.8</ele>
        <time>2024-08-11T14:28:50Z</time>
      </trkpt>
      <trkpt lat="44.86907" lon="6.49322">
        <ele>1417.6</ele>
        <time>2024-08-11T14:28:51Z</time>
      </trkpt>
      <trkpt lat="44.86904" lon="6.49322">
        <ele>1417.4</ele>
        <time>2024-08-11T14:28:52Z</time>
      </trkpt>
      <trkpt lat="44.86904" lon="6.49322">
        <ele>1417.4</ele>
        <time>2024-08-11T14:28:53Z</time>
      </trkpt>
      <trkpt lat="44.86901" lon="6.49323">
        <ele>1417.4</ele>
        <time>2024-08-11T14:28:54Z</time>
      </trkpt>
      <trkpt lat="44.86901" lon="6.49323">
        <ele>1417.4</ele>
        <time>2024-08-11T14:28:55Z</time>
      </trkpt>
      <trkpt lat="44.86898" lon="6.49322">
        <ele>1417.2</ele>
        <time>2024-08-11T14:28:56Z</time>
      </trkpt>
      <trkpt lat="44.86898" lon="6.49322">
        <ele>1417</ele>
        <time>2024-08-11T14:28:57Z</time>
      </trkpt>
      <trkpt lat="44.86895" lon="6.49321">
        <ele>1417</ele>
        <time>2024-08-11T14:28:58Z</time>
      </trkpt>
      <trkpt lat="44.86893" lon="6.4932">
        <ele>1417</ele>
        <time>2024-08-11T14:28:59Z</time>
      </trkpt>
      <trkpt lat="44.86893" lon="6.4932">
        <ele>1417</ele>
        <time>2024-08-11T14:29:00Z</time>
      </trkpt>
      <trkpt lat="44.86891" lon="6.49319">
        <ele>1417</ele>
        <time>2024-08-11T14:29:01Z</time>
      </trkpt>
      <trkpt lat="44.86891" lon="6.49319">
        <ele>1417</ele>
        <time>2024-08-11T14:29:02Z</time>
      </trkpt>
      <trkpt lat="44.86889" lon="6.49319">
        <ele>1417</ele>
        <time>2024-08-11T14:29:03Z</time>
      </trkpt>
      <trkpt lat="44.86889" lon="6.49319">
        <ele>1416.8</ele>
        <time>2024-08-11T14:29:04Z</time>
      </trkpt>
      <trkpt lat="44.86887" lon="6.49318">
        <ele>1416.6</ele>
        <time>2024-08-11T14:29:05Z</time>
      </trkpt>
      <trkpt lat="44.86885" lon="6.49318">
        <ele>1416.6</ele>
        <time>2024-08-11T14:29:06Z</time>
      </trkpt>
      <trkpt lat="44.86885" lon="6.49318">
        <ele>1416.4</ele>
        <time>2024-08-11T14:29:07Z</time>
      </trkpt>
      <trkpt lat="44.86882" lon="6.49315">
        <ele>1416</ele>
        <time>2024-08-11T14:29:08Z</time>
      </trkpt>
      <trkpt lat="44.86882" lon="6.49315">
        <ele>1416</ele>
        <time>2024-08-11T14:29:09Z</time>
      </trkpt>
      <trkpt lat="44.86879" lon="6.49315">
        <ele>1416</ele>
        <time>2024-08-11T14:29:10Z</time>
      </trkpt>
      <trkpt lat="44.86879" lon="6.49315">
        <ele>1416</ele>
        <time>2024-08-11T14:29:11Z</time>
      </trkpt>
      <trkpt lat="44.86877" lon="6.49314">
        <ele>1415.8</ele>
        <time>2024-08-11T14:29:12Z</time>
      </trkpt>
      <trkpt lat="44.86877" lon="6.49314">
        <ele>1415.8</ele>
        <time>2024-08-11T14:29:13Z</time>
      </trkpt>
      <trkpt lat="44.86874" lon="6.49313">
        <ele>1415.8</ele>
        <time>2024-08-11T14:29:14Z</time>
      </trkpt>
      <trkpt lat="44.86872" lon="6.49312">
        <ele>1415.4</ele>
        <time>2024-08-11T14:29:15Z</time>
      </trkpt>
      <trkpt lat="44.86872" lon="6.49312">
        <ele>1415.4</ele>
        <time>2024-08-11T14:29:16Z</time>
      </trkpt>
      <trkpt lat="44.8687" lon="6.49311">
        <ele>1415.4</ele>
        <time>2024-08-11T14:29:17Z</time>
      </trkpt>
      <trkpt lat="44.8687" lon="6.49311">
        <ele>1415.4</ele>
        <time>2024-08-11T14:29:18Z</time>
      </trkpt>
      <trkpt lat="44.86867" lon="6.4931">
        <ele>1415.4</ele>
        <time>2024-08-11T14:29:19Z</time>
      </trkpt>
      <trkpt lat="44.86865" lon="6.4931">
        <ele>1415.2</ele>
        <time>2024-08-11T14:29:20Z</time>
      </trkpt>
      <trkpt lat="44.86863" lon="6.49309">
        <ele>1414.8</ele>
        <time>2024-08-11T14:29:21Z</time>
      </trkpt>
      <trkpt lat="44.86861" lon="6.49309">
        <ele>1414.8</ele>
        <time>2024-08-11T14:29:22Z</time>
      </trkpt>
      <trkpt lat="44.86861" lon="6.49309">
        <ele>1414.6</ele>
        <time>2024-08-11T14:29:23Z</time>
      </trkpt>
      <trkpt lat="44.86858" lon="6.49309">
        <ele>1414.6</ele>
        <time>2024-08-11T14:29:24Z</time>
      </trkpt>
      <trkpt lat="44.86856" lon="6.49309">
        <ele>1414.2</ele>
        <time>2024-08-11T14:29:25Z</time>
      </trkpt>
      <trkpt lat="44.86854" lon="6.49308">
        <ele>1414</ele>
        <time>2024-08-11T14:29:26Z</time>
      </trkpt>
      <trkpt lat="44.86854" lon="6.49308">
        <ele>1413.8</ele>
        <time>2024-08-11T14:29:27Z</time>
      </trkpt>
      <trkpt lat="44.86851" lon="6.49309">
        <ele>1413.8</ele>
        <time>2024-08-11T14:29:28Z</time>
      </trkpt>
      <trkpt lat="44.86851" lon="6.49309">
        <ele>1413.8</ele>
        <time>2024-08-11T14:29:29Z</time>
      </trkpt>
      <trkpt lat="44.86848" lon="6.4931">
        <ele>1413.8</ele>
        <time>2024-08-11T14:29:30Z</time>
      </trkpt>
      <trkpt lat="44.86848" lon="6.4931">
        <ele>1413.6</ele>
        <time>2024-08-11T14:29:31Z</time>
      </trkpt>
      <trkpt lat="44.86846" lon="6.49311">
        <ele>1413.2</ele>
        <time>2024-08-11T14:29:32Z</time>
      </trkpt>
      <trkpt lat="44.86844" lon="6.49311">
        <ele>1413.2</ele>
        <time>2024-08-11T14:29:33Z</time>
      </trkpt>
      <trkpt lat="44.86844" lon="6.49311">
        <ele>1413.2</ele>
        <time>2024-08-11T14:29:34Z</time>
      </trkpt>
      <trkpt lat="44.86841" lon="6.49312">
        <ele>1413</ele>
        <time>2024-08-11T14:29:35Z</time>
      </trkpt>
      <trkpt lat="44.86841" lon="6.49312">
        <ele>1412.8</ele>
        <time>2024-08-11T14:29:36Z</time>
      </trkpt>
      <trkpt lat="44.86839" lon="6.49313">
        <ele>1412.8</ele>
        <time>2024-08-11T14:29:37Z</time>
      </trkpt>
      <trkpt lat="44.86839" lon="6.49313">
        <ele>1412.8</ele>
        <time>2024-08-11T14:29:38Z</time>
      </trkpt>
      <trkpt lat="44.86836" lon="6.49315">
        <ele>1412.6</ele>
        <time>2024-08-11T14:29:39Z</time>
      </trkpt>
      <trkpt lat="44.86836" lon="6.49315">
        <ele>1412.6</ele>
        <time>2024-08-11T14:29:40Z</time>
      </trkpt>
      <trkpt lat="44.86834" lon="6.49316">
        <ele>1412.6</ele>
        <time>2024-08-11T14:29:41Z</time>
      </trkpt>
      <trkpt lat="44.86834" lon="6.49316">
        <ele>1412.6</ele>
        <time>2024-08-11T14:29:42Z</time>
      </trkpt>
      <trkpt lat="44.86831" lon="6.49318">
        <ele>1412.4</ele>
        <time>2024-08-11T14:29:43Z</time>
      </trkpt>
      <trkpt lat="44.86831" lon="6.49318">
        <ele>1412.2</ele>
        <time>2024-08-11T14:29:44Z</time>
      </trkpt>
      <trkpt lat="44.86828" lon="6.49319">
        <ele>1412</ele>
        <time>2024-08-11T14:29:45Z</time>
      </trkpt>
      <trkpt lat="44.86828" lon="6.49319">
        <ele>1411.6</ele>
        <time>2024-08-11T14:29:46Z</time>
      </trkpt>
      <trkpt lat="44.86826" lon="6.4932">
        <ele>1410.8</ele>
        <time>2024-08-11T14:29:47Z</time>
      </trkpt>
      <trkpt lat="44.86826" lon="6.4932">
        <ele>1410.4</ele>
        <time>2024-08-11T14:29:48Z</time>
      </trkpt>
      <trkpt lat="44.86824" lon="6.49322">
        <ele>1410.4</ele>
        <time>2024-08-11T14:29:49Z</time>
      </trkpt>
      <trkpt lat="44.86824" lon="6.49322">
        <ele>1410.2</ele>
        <time>2024-08-11T14:29:50Z</time>
      </trkpt>
      <trkpt lat="44.86821" lon="6.49324">
        <ele>1409.8</ele>
        <time>2024-08-11T14:29:51Z</time>
      </trkpt>
      <trkpt lat="44.86821" lon="6.49324">
        <ele>1409.8</ele>
        <time>2024-08-11T14:29:52Z</time>
      </trkpt>
      <trkpt lat="44.86819" lon="6.49326">
        <ele>1409.6</ele>
        <time>2024-08-11T14:29:53Z</time>
      </trkpt>
      <trkpt lat="44.86819" lon="6.49326">
        <ele>1409.2</ele>
        <time>2024-08-11T14:29:54Z</time>
      </trkpt>
      <trkpt lat="44.86817" lon="6.49328">
        <ele>1408.8</ele>
        <time>2024-08-11T14:29:55Z</time>
      </trkpt>
      <trkpt lat="44.86817" lon="6.49328">
        <ele>1408.6</ele>
        <time>2024-08-11T14:29:56Z</time>
      </trkpt>
      <trkpt lat="44.86815" lon="6.49331">
        <ele>1408.6</ele>
        <time>2024-08-11T14:29:57Z</time>
      </trkpt>
      <trkpt lat="44.86815" lon="6.49331">
        <ele>1408.6</ele>
        <time>2024-08-11T14:29:58Z</time>
      </trkpt>
      <trkpt lat="44.86813" lon="6.49333">
        <ele>1408.6</ele>
        <time>2024-08-11T14:29:59Z</time>
      </trkpt>
      <trkpt lat="44.86813" lon="6.49333">
        <ele>1408.6</ele>
        <time>2024-08-11T14:30:00Z</time>
      </trkpt>
      <trkpt lat="44.86812" lon="6.49335">
        <ele>1408.6</ele>
        <time>2024-08-11T14:30:01Z</time>
      </trkpt>
      <trkpt lat="44.86812" lon="6.49335">
        <ele>1408.4</ele>
        <time>2024-08-11T14:30:02Z</time>
      </trkpt>
      <trkpt lat="44.86811" lon="6.49338">
        <ele>1408.2</ele>
        <time>2024-08-11T14:30:03Z</time>
      </trkpt>
      <trkpt lat="44.86811" lon="6.49338">
        <ele>1408</ele>
        <time>2024-08-11T14:30:04Z</time>
      </trkpt>
      <trkpt lat="44.86808" lon="6.49341">
        <ele>1408</ele>
        <time>2024-08-11T14:30:05Z</time>
      </trkpt>
      <trkpt lat="44.86808" lon="6.49341">
        <ele>1408</ele>
        <time>2024-08-11T14:30:06Z</time>
      </trkpt>
      <trkpt lat="44.86806" lon="6.49344">
        <ele>1407.6</ele>
        <time>2024-08-11T14:30:07Z</time>
      </trkpt>
      <trkpt lat="44.86806" lon="6.49344">
        <ele>1407</ele>
        <time>2024-08-11T14:30:08Z</time>
      </trkpt>
      <trkpt lat="44.86804" lon="6.49345">
        <ele>1406.8</ele>
        <time>2024-08-11T14:30:09Z</time>
      </trkpt>
      <trkpt lat="44.86804" lon="6.49345">
        <ele>1406.6</ele>
        <time>2024-08-11T14:30:10Z</time>
      </trkpt>
      <trkpt lat="44.86801" lon="6.49348">
        <ele>1406.4</ele>
        <time>2024-08-11T14:30:11Z</time>
      </trkpt>
      <trkpt lat="44.86801" lon="6.49348">
        <ele>1406.2</ele>
        <time>2024-08-11T14:30:12Z</time>
      </trkpt>
      <trkpt lat="44.86799" lon="6.4935">
        <ele>1406</ele>
        <time>2024-08-11T14:30:13Z</time>
      </trkpt>
      <trkpt lat="44.86799" lon="6.4935">
        <ele>1405.8</ele>
        <time>2024-08-11T14:30:14Z</time>
      </trkpt>
      <trkpt lat="44.86797" lon="6.49353">
        <ele>1405.6</ele>
        <time>2024-08-11T14:30:15Z</time>
      </trkpt>
      <trkpt lat="44.86797" lon="6.49353">
        <ele>1405.6</ele>
        <time>2024-08-11T14:30:16Z</time>
      </trkpt>
      <trkpt lat="44.86795" lon="6.49356">
        <ele>1405.2</ele>
        <time>2024-08-11T14:30:17Z</time>
      </trkpt>
      <trkpt lat="44.86793" lon="6.49359">
        <ele>1404.8</ele>
        <time>2024-08-11T14:30:18Z</time>
      </trkpt>
      <trkpt lat="44.86793" lon="6.49359">
        <ele>1404.2</ele>
        <time>2024-08-11T14:30:19Z</time>
      </trkpt>
      <trkpt lat="44.86789" lon="6.49362">
        <ele>1404</ele>
        <time>2024-08-11T14:30:20Z</time>
      </trkpt>
      <trkpt lat="44.86789" lon="6.49362">
        <ele>1404</ele>
        <time>2024-08-11T14:30:21Z</time>
      </trkpt>
      <trkpt lat="44.86786" lon="6.49364">
        <ele>1404</ele>
        <time>2024-08-11T14:30:22Z</time>
      </trkpt>
      <trkpt lat="44.86786" lon="6.49364">
        <ele>1404</ele>
        <time>2024-08-11T14:30:23Z</time>
      </trkpt>
      <trkpt lat="44.86784" lon="6.49366">
        <ele>1404</ele>
        <time>2024-08-11T14:30:24Z</time>
      </trkpt>
      <trkpt lat="44.86782" lon="6.49368">
        <ele>1404</ele>
        <time>2024-08-11T14:30:25Z</time>
      </trkpt>
      <trkpt lat="44.86782" lon="6.49368">
        <ele>1403.6</ele>
        <time>2024-08-11T14:30:26Z</time>
      </trkpt>
      <trkpt lat="44.8678" lon="6.4937">
        <ele>1403.6</ele>
        <time>2024-08-11T14:30:27Z</time>
      </trkpt>
      <trkpt lat="44.8678" lon="6.4937">
        <ele>1403.8</ele>
        <time>2024-08-11T14:30:28Z</time>
      </trkpt>
      <trkpt lat="44.86778" lon="6.49372">
        <ele>1403.8</ele>
        <time>2024-08-11T14:30:29Z</time>
      </trkpt>
      <trkpt lat="44.86778" lon="6.49372">
        <ele>1403.6</ele>
        <time>2024-08-11T14:30:30Z</time>
      </trkpt>
      <trkpt lat="44.86776" lon="6.49375">
        <ele>1403.4</ele>
        <time>2024-08-11T14:30:31Z</time>
      </trkpt>
      <trkpt lat="44.86774" lon="6.49377">
        <ele>1403.4</ele>
        <time>2024-08-11T14:30:32Z</time>
      </trkpt>
      <trkpt lat="44.86774" lon="6.49377">
        <ele>1403.4</ele>
        <time>2024-08-11T14:30:33Z</time>
      </trkpt>
      <trkpt lat="44.86772" lon="6.49381">
        <ele>1403.4</ele>
        <time>2024-08-11T14:30:34Z</time>
      </trkpt>
      <trkpt lat="44.86772" lon="6.49381">
        <ele>1403.4</ele>
        <time>2024-08-11T14:30:35Z</time>
      </trkpt>
      <trkpt lat="44.8677" lon="6.49384">
        <ele>1403.2</ele>
        <time>2024-08-11T14:30:36Z</time>
      </trkpt>
      <trkpt lat="44.8677" lon="6.49384">
        <ele>1403</ele>
        <time>2024-08-11T14:30:37Z</time>
      </trkpt>
      <trkpt lat="44.86768" lon="6.49387">
        <ele>1402.8</ele>
        <time>2024-08-11T14:30:38Z</time>
      </trkpt>
      <trkpt lat="44.86766" lon="6.49389">
        <ele>1402.6</ele>
        <time>2024-08-11T14:30:39Z</time>
      </trkpt>
      <trkpt lat="44.86766" lon="6.49389">
        <ele>1402.6</ele>
        <time>2024-08-11T14:30:40Z</time>
      </trkpt>
      <trkpt lat="44.86764" lon="6.49392">
        <ele>1402.4</ele>
        <time>2024-08-11T14:30:41Z</time>
      </trkpt>
      <trkpt lat="44.86763" lon="6.49394">
        <ele>1402.2</ele>
        <time>2024-08-11T14:30:42Z</time>
      </trkpt>
      <trkpt lat="44.86763" lon="6.49394">
        <ele>1402.2</ele>
        <time>2024-08-11T14:30:43Z</time>
      </trkpt>
      <trkpt lat="44.86761" lon="6.49397">
        <ele>1402.2</ele>
        <time>2024-08-11T14:30:44Z</time>
      </trkpt>
      <trkpt lat="44.86761" lon="6.49397">
        <ele>1402.2</ele>
        <time>2024-08-11T14:30:45Z</time>
      </trkpt>
      <trkpt lat="44.86759" lon="6.494">
        <ele>1402</ele>
        <time>2024-08-11T14:30:46Z</time>
      </trkpt>
      <trkpt lat="44.86757" lon="6.49401">
        <ele>1402</ele>
        <time>2024-08-11T14:30:47Z</time>
      </trkpt>
      <trkpt lat="44.86757" lon="6.49401">
        <ele>1401.6</ele>
        <time>2024-08-11T14:30:48Z</time>
      </trkpt>
      <trkpt lat="44.86755" lon="6.49404">
        <ele>1401.4</ele>
        <time>2024-08-11T14:30:49Z</time>
      </trkpt>
      <trkpt lat="44.86755" lon="6.49404">
        <ele>1401.4</ele>
        <time>2024-08-11T14:30:50Z</time>
      </trkpt>
      <trkpt lat="44.86753" lon="6.49407">
        <ele>1401.4</ele>
        <time>2024-08-11T14:30:51Z</time>
      </trkpt>
      <trkpt lat="44.86753" lon="6.49407">
        <ele>1401.4</ele>
        <time>2024-08-11T14:30:52Z</time>
      </trkpt>
      <trkpt lat="44.86751" lon="6.49411">
        <ele>1401.2</ele>
        <time>2024-08-11T14:30:53Z</time>
      </trkpt>
      <trkpt lat="44.86751" lon="6.49411">
        <ele>1401.2</ele>
        <time>2024-08-11T14:30:54Z</time>
      </trkpt>
      <trkpt lat="44.86749" lon="6.49414">
        <ele>1401</ele>
        <time>2024-08-11T14:30:55Z</time>
      </trkpt>
      <trkpt lat="44.86749" lon="6.49414">
        <ele>1400.8</ele>
        <time>2024-08-11T14:30:56Z</time>
      </trkpt>
      <trkpt lat="44.86746" lon="6.49416">
        <ele>1400.6</ele>
        <time>2024-08-11T14:30:57Z</time>
      </trkpt>
      <trkpt lat="44.86746" lon="6.49416">
        <ele>1400.6</ele>
        <time>2024-08-11T14:30:58Z</time>
      </trkpt>
      <trkpt lat="44.86744" lon="6.49419">
        <ele>1400.4</ele>
        <time>2024-08-11T14:30:59Z</time>
      </trkpt>
      <trkpt lat="44.86744" lon="6.49419">
        <ele>1400.4</ele>
        <time>2024-08-11T14:31:00Z</time>
      </trkpt>
      <trkpt lat="44.86742" lon="6.49422">
        <ele>1400.4</ele>
        <time>2024-08-11T14:31:01Z</time>
      </trkpt>
      <trkpt lat="44.86742" lon="6.49422">
        <ele>1400</ele>
        <time>2024-08-11T14:31:02Z</time>
      </trkpt>
      <trkpt lat="44.8674" lon="6.49425">
        <ele>1400</ele>
        <time>2024-08-11T14:31:03Z</time>
      </trkpt>
      <trkpt lat="44.8674" lon="6.49425">
        <ele>1399.8</ele>
        <time>2024-08-11T14:31:04Z</time>
      </trkpt>
      <trkpt lat="44.86738" lon="6.49428">
        <ele>1399.6</ele>
        <time>2024-08-11T14:31:05Z</time>
      </trkpt>
      <trkpt lat="44.86738" lon="6.49428">
        <ele>1399.6</ele>
        <time>2024-08-11T14:31:06Z</time>
      </trkpt>
      <trkpt lat="44.86735" lon="6.4943">
        <ele>1399.6</ele>
        <time>2024-08-11T14:31:07Z</time>
      </trkpt>
      <trkpt lat="44.86735" lon="6.4943">
        <ele>1399.4</ele>
        <time>2024-08-11T14:31:08Z</time>
      </trkpt>
      <trkpt lat="44.86733" lon="6.49432">
        <ele>1399</ele>
        <time>2024-08-11T14:31:09Z</time>
      </trkpt>
      <trkpt lat="44.86733" lon="6.49432">
        <ele>1398.6</ele>
        <time>2024-08-11T14:31:10Z</time>
      </trkpt>
      <trkpt lat="44.8673" lon="6.49434">
        <ele>1398.4</ele>
        <time>2024-08-11T14:31:11Z</time>
      </trkpt>
      <trkpt lat="44.86728" lon="6.49435">
        <ele>1398.2</ele>
        <time>2024-08-11T14:31:12Z</time>
      </trkpt>
      <trkpt lat="44.86728" lon="6.49435">
        <ele>1397.8</ele>
        <time>2024-08-11T14:31:13Z</time>
      </trkpt>
      <trkpt lat="44.86726" lon="6.49437">
        <ele>1397.8</ele>
        <time>2024-08-11T14:31:14Z</time>
      </trkpt>
      <trkpt lat="44.86726" lon="6.49437">
        <ele>1397.8</ele>
        <time>2024-08-11T14:31:15Z</time>
      </trkpt>
      <trkpt lat="44.86723" lon="6.49439">
        <ele>1397.6</ele>
        <time>2024-08-11T14:31:16Z</time>
      </trkpt>
      <trkpt lat="44.86723" lon="6.49439">
        <ele>1397.6</ele>
        <time>2024-08-11T14:31:17Z</time>
      </trkpt>
      <trkpt lat="44.8672" lon="6.4944">
        <ele>1397.6</ele>
        <time>2024-08-11T14:31:18Z</time>
      </trkpt>
      <trkpt lat="44.8672" lon="6.4944">
        <ele>1397.6</ele>
        <time>2024-08-11T14:31:19Z</time>
      </trkpt>
      <trkpt lat="44.86717" lon="6.49442">
        <ele>1397.4</ele>
        <time>2024-08-11T14:31:20Z</time>
      </trkpt>
      <trkpt lat="44.86717" lon="6.49442">
        <ele>1397.4</ele>
        <time>2024-08-11T14:31:21Z</time>
      </trkpt>
      <trkpt lat="44.86714" lon="6.49444">
        <ele>1397.4</ele>
        <time>2024-08-11T14:31:22Z</time>
      </trkpt>
      <trkpt lat="44.86714" lon="6.49444">
        <ele>1397.4</ele>
        <time>2024-08-11T14:31:23Z</time>
      </trkpt>
      <trkpt lat="44.86712" lon="6.49446">
        <ele>1397.2</ele>
        <time>2024-08-11T14:31:24Z</time>
      </trkpt>
      <trkpt lat="44.86712" lon="6.49446">
        <ele>1397</ele>
        <time>2024-08-11T14:31:25Z</time>
      </trkpt>
      <trkpt lat="44.8671" lon="6.49448">
        <ele>1397</ele>
        <time>2024-08-11T14:31:26Z</time>
      </trkpt>
      <trkpt lat="44.8671" lon="6.49448">
        <ele>1397.2</ele>
        <time>2024-08-11T14:31:27Z</time>
      </trkpt>
      <trkpt lat="44.86708" lon="6.4945">
        <ele>1397.2</ele>
        <time>2024-08-11T14:31:28Z</time>
      </trkpt>
      <trkpt lat="44.86708" lon="6.4945">
        <ele>1397.2</ele>
        <time>2024-08-11T14:31:29Z</time>
      </trkpt>
      <trkpt lat="44.86705" lon="6.49453">
        <ele>1397.2</ele>
        <time>2024-08-11T14:31:30Z</time>
      </trkpt>
      <trkpt lat="44.86705" lon="6.49453">
        <ele>1397.2</ele>
        <time>2024-08-11T14:31:31Z</time>
      </trkpt>
      <trkpt lat="44.86703" lon="6.49455">
        <ele>1397.2</ele>
        <time>2024-08-11T14:31:32Z</time>
      </trkpt>
      <trkpt lat="44.86703" lon="6.49455">
        <ele>1397.2</ele>
        <time>2024-08-11T14:31:33Z</time>
      </trkpt>
      <trkpt lat="44.86701" lon="6.49457">
        <ele>1397</ele>
        <time>2024-08-11T14:31:34Z</time>
      </trkpt>
      <trkpt lat="44.86701" lon="6.49457">
        <ele>1397</ele>
        <time>2024-08-11T14:31:35Z</time>
      </trkpt>
      <trkpt lat="44.86699" lon="6.4946">
        <ele>1396.8</ele>
        <time>2024-08-11T14:31:36Z</time>
      </trkpt>
      <trkpt lat="44.86699" lon="6.4946">
        <ele>1396.8</ele>
        <time>2024-08-11T14:31:37Z</time>
      </trkpt>
      <trkpt lat="44.86697" lon="6.49463">
        <ele>1396.8</ele>
        <time>2024-08-11T14:31:38Z</time>
      </trkpt>
      <trkpt lat="44.86697" lon="6.49463">
        <ele>1396.8</ele>
        <time>2024-08-11T14:31:39Z</time>
      </trkpt>
      <trkpt lat="44.86696" lon="6.49466">
        <ele>1396.8</ele>
        <time>2024-08-11T14:31:40Z</time>
      </trkpt>
      <trkpt lat="44.86696" lon="6.49466">
        <ele>1396.6</ele>
        <time>2024-08-11T14:31:41Z</time>
      </trkpt>
      <trkpt lat="44.86695" lon="6.4947">
        <ele>1396.4</ele>
        <time>2024-08-11T14:31:42Z</time>
      </trkpt>
      <trkpt lat="44.86695" lon="6.4947">
        <ele>1396.4</ele>
        <time>2024-08-11T14:31:43Z</time>
      </trkpt>
      <trkpt lat="44.86693" lon="6.49473">
        <ele>1396.4</ele>
        <time>2024-08-11T14:31:44Z</time>
      </trkpt>
      <trkpt lat="44.86693" lon="6.49473">
        <ele>1396.4</ele>
        <time>2024-08-11T14:31:45Z</time>
      </trkpt>
      <trkpt lat="44.86691" lon="6.49476">
        <ele>1396</ele>
        <time>2024-08-11T14:31:46Z</time>
      </trkpt>
      <trkpt lat="44.8669" lon="6.49478">
        <ele>1395.8</ele>
        <time>2024-08-11T14:31:47Z</time>
      </trkpt>
      <trkpt lat="44.8669" lon="6.49478">
        <ele>1395.8</ele>
        <time>2024-08-11T14:31:48Z</time>
      </trkpt>
      <trkpt lat="44.86687" lon="6.49481">
        <ele>1395.8</ele>
        <time>2024-08-11T14:31:49Z</time>
      </trkpt>
      <trkpt lat="44.86687" lon="6.49481">
        <ele>1395.8</ele>
        <time>2024-08-11T14:31:50Z</time>
      </trkpt>
      <trkpt lat="44.86685" lon="6.49484">
        <ele>1395.8</ele>
        <time>2024-08-11T14:31:51Z</time>
      </trkpt>
      <trkpt lat="44.86685" lon="6.49484">
        <ele>1395.6</ele>
        <time>2024-08-11T14:31:52Z</time>
      </trkpt>
      <trkpt lat="44.86684" lon="6.49487">
        <ele>1395.6</ele>
        <time>2024-08-11T14:31:53Z</time>
      </trkpt>
      <trkpt lat="44.86684" lon="6.49487">
        <ele>1395.4</ele>
        <time>2024-08-11T14:31:54Z</time>
      </trkpt>
      <trkpt lat="44.86681" lon="6.4949">
        <ele>1394.8</ele>
        <time>2024-08-11T14:31:55Z</time>
      </trkpt>
      <trkpt lat="44.86681" lon="6.4949">
        <ele>1394.8</ele>
        <time>2024-08-11T14:31:56Z</time>
      </trkpt>
      <trkpt lat="44.8668" lon="6.49493">
        <ele>1394.8</ele>
        <time>2024-08-11T14:31:57Z</time>
      </trkpt>
      <trkpt lat="44.8668" lon="6.49493">
        <ele>1394.6</ele>
        <time>2024-08-11T14:31:58Z</time>
      </trkpt>
      <trkpt lat="44.86677" lon="6.49496">
        <ele>1394.6</ele>
        <time>2024-08-11T14:31:59Z</time>
      </trkpt>
      <trkpt lat="44.86677" lon="6.49496">
        <ele>1394.4</ele>
        <time>2024-08-11T14:32:00Z</time>
      </trkpt>
      <trkpt lat="44.86675" lon="6.49499">
        <ele>1394.4</ele>
        <time>2024-08-11T14:32:01Z</time>
      </trkpt>
      <trkpt lat="44.86675" lon="6.49499">
        <ele>1394.4</ele>
        <time>2024-08-11T14:32:02Z</time>
      </trkpt>
      <trkpt lat="44.86673" lon="6.49502">
        <ele>1394.4</ele>
        <time>2024-08-11T14:32:03Z</time>
      </trkpt>
      <trkpt lat="44.86673" lon="6.49502">
        <ele>1394.2</ele>
        <time>2024-08-11T14:32:04Z</time>
      </trkpt>
      <trkpt lat="44.86671" lon="6.49504">
        <ele>1394.2</ele>
        <time>2024-08-11T14:32:05Z</time>
      </trkpt>
      <trkpt lat="44.86671" lon="6.49504">
        <ele>1394.2</ele>
        <time>2024-08-11T14:32:06Z</time>
      </trkpt>
      <trkpt lat="44.86668" lon="6.49507">
        <ele>1394.2</ele>
        <time>2024-08-11T14:32:07Z</time>
      </trkpt>
      <trkpt lat="44.86668" lon="6.49507">
        <ele>1394.2</ele>
        <time>2024-08-11T14:32:08Z</time>
      </trkpt>
      <trkpt lat="44.86666" lon="6.49509">
        <ele>1394.2</ele>
        <time>2024-08-11T14:32:09Z</time>
      </trkpt>
      <trkpt lat="44.86666" lon="6.49509">
        <ele>1394.2</ele>
        <time>2024-08-11T14:32:10Z</time>
      </trkpt>
      <trkpt lat="44.86663" lon="6.49512">
        <ele>1394.2</ele>
        <time>2024-08-11T14:32:11Z</time>
      </trkpt>
      <trkpt lat="44.86663" lon="6.49512">
        <ele>1394</ele>
        <time>2024-08-11T14:32:12Z</time>
      </trkpt>
      <trkpt lat="44.86661" lon="6.49514">
        <ele>1394</ele>
        <time>2024-08-11T14:32:13Z</time>
      </trkpt>
      <trkpt lat="44.86661" lon="6.49514">
        <ele>1394</ele>
        <time>2024-08-11T14:32:14Z</time>
      </trkpt>
      <trkpt lat="44.86659" lon="6.49517">
        <ele>1394.2</ele>
        <time>2024-08-11T14:32:15Z</time>
      </trkpt>
      <trkpt lat="44.86659" lon="6.49517">
        <ele>1394.2</ele>
        <time>2024-08-11T14:32:16Z</time>
      </trkpt>
      <trkpt lat="44.86657" lon="6.49518">
        <ele>1394.2</ele>
        <time>2024-08-11T14:32:17Z</time>
      </trkpt>
      <trkpt lat="44.86657" lon="6.49518">
        <ele>1394.2</ele>
        <time>2024-08-11T14:32:18Z</time>
      </trkpt>
      <trkpt lat="44.86653" lon="6.49518">
        <ele>1394</ele>
        <time>2024-08-11T14:32:19Z</time>
      </trkpt>
      <trkpt lat="44.86653" lon="6.49518">
        <ele>1394</ele>
        <time>2024-08-11T14:32:20Z</time>
      </trkpt>
      <trkpt lat="44.86651" lon="6.49518">
        <ele>1394</ele>
        <time>2024-08-11T14:32:21Z</time>
      </trkpt>
      <trkpt lat="44.86651" lon="6.49518">
        <ele>1394</ele>
        <time>2024-08-11T14:32:22Z</time>
      </trkpt>
      <trkpt lat="44.86648" lon="6.49519">
        <ele>1394</ele>
        <time>2024-08-11T14:32:23Z</time>
      </trkpt>
      <trkpt lat="44.86648" lon="6.49519">
        <ele>1394</ele>
        <time>2024-08-11T14:32:24Z</time>
      </trkpt>
      <trkpt lat="44.86646" lon="6.4952">
        <ele>1394</ele>
        <time>2024-08-11T14:32:25Z</time>
      </trkpt>
      <trkpt lat="44.86646" lon="6.4952">
        <ele>1393.8</ele>
        <time>2024-08-11T14:32:26Z</time>
      </trkpt>
      <trkpt lat="44.86646" lon="6.4952">
        <ele>1393.8</ele>
        <time>2024-08-11T14:32:27Z</time>
      </trkpt>
      <trkpt lat="44.86644" lon="6.49523">
        <ele>1394</ele>
        <time>2024-08-11T14:32:28Z</time>
      </trkpt>
      <trkpt lat="44.86644" lon="6.49523">
        <ele>1394.4</ele>
        <time>2024-08-11T14:32:29Z</time>
      </trkpt>
      <trkpt lat="44.86644" lon="6.49523">
        <ele>1394.4</ele>
        <time>2024-08-11T14:32:30Z</time>
      </trkpt>
      <trkpt lat="44.86644" lon="6.49523">
        <ele>1394.6</ele>
        <time>2024-08-11T14:32:31Z</time>
      </trkpt>
      <trkpt lat="44.86643" lon="6.49525">
        <ele>1395.2</ele>
        <time>2024-08-11T14:32:32Z</time>
      </trkpt>
      <trkpt lat="44.86643" lon="6.49525">
        <ele>1395.6</ele>
        <time>2024-08-11T14:32:33Z</time>
      </trkpt>
      <trkpt lat="44.86643" lon="6.49525">
        <ele>1395.6</ele>
        <time>2024-08-11T14:32:34Z</time>
      </trkpt>
      <trkpt lat="44.86643" lon="6.49525">
        <ele>1395.6</ele>
        <time>2024-08-11T14:32:35Z</time>
      </trkpt>
      <trkpt lat="44.86643" lon="6.49529">
        <ele>1395.8</ele>
        <time>2024-08-11T14:32:36Z</time>
      </trkpt>
      <trkpt lat="44.86643" lon="6.49529">
        <ele>1396</ele>
        <time>2024-08-11T14:32:37Z</time>
      </trkpt>
      <trkpt lat="44.86643" lon="6.49529">
        <ele>1396.2</ele>
        <time>2024-08-11T14:32:38Z</time>
      </trkpt>
      <trkpt lat="44.86643" lon="6.49529">
        <ele>1396.4</ele>
        <time>2024-08-11T14:32:39Z</time>
      </trkpt>
      <trkpt lat="44.86643" lon="6.49529">
        <ele>1396.4</ele>
        <time>2024-08-11T14:32:40Z</time>
      </trkpt>
      <trkpt lat="44.86643" lon="6.49526">
        <ele>1396.2</ele>
        <time>2024-08-11T14:32:41Z</time>
      </trkpt>
      <trkpt lat="44.86643" lon="6.49526">
        <ele>1396</ele>
        <time>2024-08-11T14:32:42Z</time>
      </trkpt>
      <trkpt lat="44.86644" lon="6.49522">
        <ele>1395.8</ele>
        <time>2024-08-11T14:32:43Z</time>
      </trkpt>
      <trkpt lat="44.86644" lon="6.49522">
        <ele>1395.4</ele>
        <time>2024-08-11T14:32:44Z</time>
      </trkpt>
      <trkpt lat="44.86645" lon="6.49519">
        <ele>1395.4</ele>
        <time>2024-08-11T14:32:45Z</time>
      </trkpt>
      <trkpt lat="44.86645" lon="6.49519">
        <ele>1395</ele>
        <time>2024-08-11T14:32:46Z</time>
      </trkpt>
      <trkpt lat="44.86646" lon="6.49516">
        <ele>1394.6</ele>
        <time>2024-08-11T14:32:47Z</time>
      </trkpt>
      <trkpt lat="44.86646" lon="6.49516">
        <ele>1394</ele>
        <time>2024-08-11T14:32:48Z</time>
      </trkpt>
      <trkpt lat="44.86646" lon="6.49512">
        <ele>1393.8</ele>
        <time>2024-08-11T14:32:49Z</time>
      </trkpt>
      <trkpt lat="44.86646" lon="6.49512">
        <ele>1393.4</ele>
        <time>2024-08-11T14:32:50Z</time>
      </trkpt>
      <trkpt lat="44.86647" lon="6.49509">
        <ele>1393.4</ele>
        <time>2024-08-11T14:32:51Z</time>
      </trkpt>
      <trkpt lat="44.86647" lon="6.49509">
        <ele>1393.2</ele>
        <time>2024-08-11T14:32:52Z</time>
      </trkpt>
      <trkpt lat="44.86646" lon="6.49505">
        <ele>1393.2</ele>
        <time>2024-08-11T14:32:53Z</time>
      </trkpt>
      <trkpt lat="44.86646" lon="6.49505">
        <ele>1393.2</ele>
        <time>2024-08-11T14:32:54Z</time>
      </trkpt>
      <trkpt lat="44.86645" lon="6.49501">
        <ele>1392.8</ele>
        <time>2024-08-11T14:32:55Z</time>
      </trkpt>
      <trkpt lat="44.86645" lon="6.49501">
        <ele>1392.8</ele>
        <time>2024-08-11T14:32:56Z</time>
      </trkpt>
      <trkpt lat="44.86644" lon="6.49497">
        <ele>1392.8</ele>
        <time>2024-08-11T14:32:57Z</time>
      </trkpt>
      <trkpt lat="44.86644" lon="6.49497">
        <ele>1392.8</ele>
        <time>2024-08-11T14:32:58Z</time>
      </trkpt>
      <trkpt lat="44.86645" lon="6.49493">
        <ele>1392.8</ele>
        <time>2024-08-11T14:32:59Z</time>
      </trkpt>
      <trkpt lat="44.86645" lon="6.49493">
        <ele>1392.8</ele>
        <time>2024-08-11T14:33:00Z</time>
      </trkpt>
      <trkpt lat="44.86645" lon="6.49489">
        <ele>1392.4</ele>
        <time>2024-08-11T14:33:01Z</time>
      </trkpt>
      <trkpt lat="44.86645" lon="6.49489">
        <ele>1392</ele>
        <time>2024-08-11T14:33:02Z</time>
      </trkpt>
      <trkpt lat="44.86647" lon="6.49487">
        <ele>1392</ele>
        <time>2024-08-11T14:33:03Z</time>
      </trkpt>
      <trkpt lat="44.86647" lon="6.49487">
        <ele>1392</ele>
        <time>2024-08-11T14:33:04Z</time>
      </trkpt>
      <trkpt lat="44.86647" lon="6.49487">
        <ele>1391.8</ele>
        <time>2024-08-11T14:33:05Z</time>
      </trkpt>
      <trkpt lat="44.86647" lon="6.49487">
        <ele>1391.8</ele>
        <time>2024-08-11T14:33:06Z</time>
      </trkpt>
      <trkpt lat="44.86647" lon="6.49487">
        <ele>1391.6</ele>
        <time>2024-08-11T14:33:07Z</time>
      </trkpt>
      <trkpt lat="44.86647" lon="6.49487">
        <ele>1391.6</ele>
        <time>2024-08-11T14:33:08Z</time>
      </trkpt>
      <trkpt lat="44.86649" lon="6.49484">
        <ele>1391.6</ele>
        <time>2024-08-11T14:33:09Z</time>
      </trkpt>
      <trkpt lat="44.86651" lon="6.49483">
        <ele>1391.6</ele>
        <time>2024-08-11T14:33:10Z</time>
      </trkpt>
      <trkpt lat="44.86651" lon="6.49483">
        <ele>1391.6</ele>
        <time>2024-08-11T14:33:11Z</time>
      </trkpt>
      <trkpt lat="44.86654" lon="6.4948">
        <ele>1391.4</ele>
        <time>2024-08-11T14:33:12Z</time>
      </trkpt>
      <trkpt lat="44.86656" lon="6.49479">
        <ele>1391.2</ele>
        <time>2024-08-11T14:33:13Z</time>
      </trkpt>
      <trkpt lat="44.86656" lon="6.49479">
        <ele>1391</ele>
        <time>2024-08-11T14:33:14Z</time>
      </trkpt>
      <trkpt lat="44.86659" lon="6.49478">
        <ele>1390.6</ele>
        <time>2024-08-11T14:33:15Z</time>
      </trkpt>
      <trkpt lat="44.86659" lon="6.49478">
        <ele>1390.6</ele>
        <time>2024-08-11T14:33:16Z</time>
      </trkpt>
      <trkpt lat="44.86661" lon="6.49477">
        <ele>1390.8</ele>
        <time>2024-08-11T14:33:17Z</time>
      </trkpt>
      <trkpt lat="44.86661" lon="6.49477">
        <ele>1390.8</ele>
        <time>2024-08-11T14:33:18Z</time>
      </trkpt>
      <trkpt lat="44.86661" lon="6.49477">
        <ele>1390.8</ele>
        <time>2024-08-11T14:33:19Z</time>
      </trkpt>
      <trkpt lat="44.86661" lon="6.49477">
        <ele>1390.8</ele>
        <time>2024-08-11T14:33:20Z</time>
      </trkpt>
      <trkpt lat="44.86661" lon="6.49477">
        <ele>1390.8</ele>
        <time>2024-08-11T14:33:21Z</time>
      </trkpt>
      <trkpt lat="44.86661" lon="6.49477">
        <ele>1390.8</ele>
        <time>2024-08-11T14:33:22Z</time>
      </trkpt>
      <trkpt lat="44.86661" lon="6.49477">
        <ele>1391</ele>
        <time>2024-08-11T14:33:23Z</time>
      </trkpt>
      <trkpt lat="44.86661" lon="6.49477">
        <ele>1391</ele>
        <time>2024-08-11T14:33:24Z</time>
      </trkpt>
      <trkpt lat="44.86661" lon="6.49477">
        <ele>1390.8</ele>
        <time>2024-08-11T14:33:25Z</time>
      </trkpt>
      <trkpt lat="44.86661" lon="6.49477">
        <ele>1390.6</ele>
        <time>2024-08-11T14:33:26Z</time>
      </trkpt>
      <trkpt lat="44.86661" lon="6.49477">
        <ele>1390.6</ele>
        <time>2024-08-11T14:33:27Z</time>
      </trkpt>
      <trkpt lat="44.86661" lon="6.49477">
        <ele>1390.6</ele>
        <time>2024-08-11T14:33:28Z</time>
      </trkpt>
      <trkpt lat="44.86661" lon="6.49477">
        <ele>1390.4</ele>
        <time>2024-08-11T14:33:29Z</time>
      </trkpt>
      <trkpt lat="44.86661" lon="6.49477">
        <ele>1390.4</ele>
        <time>2024-08-11T14:33:30Z</time>
      </trkpt>
      <trkpt lat="44.86661" lon="6.49477">
        <ele>1390.4</ele>
        <time>2024-08-11T14:33:31Z</time>
      </trkpt>
      <trkpt lat="44.86661" lon="6.49477">
        <ele>1390.4</ele>
        <time>2024-08-11T14:33:32Z</time>
      </trkpt>
      <trkpt lat="44.86661" lon="6.49477">
        <ele>1390.4</ele>
        <time>2024-08-11T14:33:33Z</time>
      </trkpt>
      <trkpt lat="44.8666" lon="6.49479">
        <ele>1390.6</ele>
        <time>2024-08-11T14:33:34Z</time>
      </trkpt>
      <trkpt lat="44.8666" lon="6.49479">
        <ele>1390.8</ele>
        <time>2024-08-11T14:33:35Z</time>
      </trkpt>
      <trkpt lat="44.8666" lon="6.49479">
        <ele>1390.8</ele>
        <time>2024-08-11T14:33:36Z</time>
      </trkpt>
      <trkpt lat="44.8666" lon="6.49479">
        <ele>1390.6</ele>
        <time>2024-08-11T14:33:37Z</time>
      </trkpt>
      <trkpt lat="44.8666" lon="6.49479">
        <ele>1390.4</ele>
        <time>2024-08-11T14:33:38Z</time>
      </trkpt>
      <trkpt lat="44.8666" lon="6.49479">
        <ele>1390.4</ele>
        <time>2024-08-11T14:33:39Z</time>
      </trkpt>
      <trkpt lat="44.86661" lon="6.49478">
        <ele>1390.4</ele>
        <time>2024-08-11T14:33:40Z</time>
      </trkpt>
      <trkpt lat="44.86661" lon="6.49478">
        <ele>1390.6</ele>
        <time>2024-08-11T14:33:41Z</time>
      </trkpt>
      <trkpt lat="44.86665" lon="6.49477">
        <ele>1390.4</ele>
        <time>2024-08-11T14:33:42Z</time>
      </trkpt>
      <trkpt lat="44.86667" lon="6.49476">
        <ele>1390.4</ele>
        <time>2024-08-11T14:33:43Z</time>
      </trkpt>
      <trkpt lat="44.86669" lon="6.49475">
        <ele>1390.4</ele>
        <time>2024-08-11T14:33:44Z</time>
      </trkpt>
      <trkpt lat="44.86671" lon="6.49474">
        <ele>1390.4</ele>
        <time>2024-08-11T14:33:45Z</time>
      </trkpt>
      <trkpt lat="44.86671" lon="6.49474">
        <ele>1390.4</ele>
        <time>2024-08-11T14:33:46Z</time>
      </trkpt>
      <trkpt lat="44.86673" lon="6.49472">
        <ele>1390.4</ele>
        <time>2024-08-11T14:33:47Z</time>
      </trkpt>
      <trkpt lat="44.86673" lon="6.49472">
        <ele>1390.4</ele>
        <time>2024-08-11T14:33:48Z</time>
      </trkpt>
      <trkpt lat="44.86675" lon="6.49469">
        <ele>1390.6</ele>
        <time>2024-08-11T14:33:49Z</time>
      </trkpt>
      <trkpt lat="44.86675" lon="6.49469">
        <ele>1390.4</ele>
        <time>2024-08-11T14:33:50Z</time>
      </trkpt>
      <trkpt lat="44.86677" lon="6.49466">
        <ele>1390.4</ele>
        <time>2024-08-11T14:33:51Z</time>
      </trkpt>
      <trkpt lat="44.86677" lon="6.49466">
        <ele>1390.4</ele>
        <time>2024-08-11T14:33:52Z</time>
      </trkpt>
      <trkpt lat="44.86679" lon="6.49463">
        <ele>1390.4</ele>
        <time>2024-08-11T14:33:53Z</time>
      </trkpt>
      <trkpt lat="44.86679" lon="6.49463">
        <ele>1390.4</ele>
        <time>2024-08-11T14:33:54Z</time>
      </trkpt>
      <trkpt lat="44.86681" lon="6.4946">
        <ele>1390.2</ele>
        <time>2024-08-11T14:33:55Z</time>
      </trkpt>
      <trkpt lat="44.86681" lon="6.4946">
        <ele>1390.2</ele>
        <time>2024-08-11T14:33:56Z</time>
      </trkpt>
      <trkpt lat="44.86683" lon="6.49457">
        <ele>1390</ele>
        <time>2024-08-11T14:33:57Z</time>
      </trkpt>
      <trkpt lat="44.86683" lon="6.49457">
        <ele>1389.8</ele>
        <time>2024-08-11T14:33:58Z</time>
      </trkpt>
      <trkpt lat="44.86684" lon="6.49454">
        <ele>1389.8</ele>
        <time>2024-08-11T14:33:59Z</time>
      </trkpt>
      <trkpt lat="44.86684" lon="6.49454">
        <ele>1389.8</ele>
        <time>2024-08-11T14:34:00Z</time>
      </trkpt>
      <trkpt lat="44.86684" lon="6.49454">
        <ele>1389.8</ele>
        <time>2024-08-11T14:34:01Z</time>
      </trkpt>
      <trkpt lat="44.86683" lon="6.49453">
        <ele>1389.6</ele>
        <time>2024-08-11T14:34:02Z</time>
      </trkpt>
      <trkpt lat="44.86683" lon="6.49453">
        <ele>1389.6</ele>
        <time>2024-08-11T14:34:03Z</time>
      </trkpt>
      <trkpt lat="44.8668" lon="6.49453">
        <ele>1389.2</ele>
        <time>2024-08-11T14:34:04Z</time>
      </trkpt>
      <trkpt lat="44.8668" lon="6.49453">
        <ele>1388.8</ele>
        <time>2024-08-11T14:34:05Z</time>
      </trkpt>
      <trkpt lat="44.86678" lon="6.49454">
        <ele>1388.2</ele>
        <time>2024-08-11T14:34:06Z</time>
      </trkpt>
      <trkpt lat="44.86678" lon="6.49454">
        <ele>1388</ele>
        <time>2024-08-11T14:34:07Z</time>
      </trkpt>
      <trkpt lat="44.86676" lon="6.49454">
        <ele>1387.6</ele>
        <time>2024-08-11T14:34:08Z</time>
      </trkpt>
      <trkpt lat="44.86676" lon="6.49454">
        <ele>1387.2</ele>
        <time>2024-08-11T14:34:09Z</time>
      </trkpt>
      <trkpt lat="44.86673" lon="6.49454">
        <ele>1387</ele>
        <time>2024-08-11T14:34:10Z</time>
      </trkpt>
      <trkpt lat="44.86673" lon="6.49454">
        <ele>1386.8</ele>
        <time>2024-08-11T14:34:11Z</time>
      </trkpt>
      <trkpt lat="44.86671" lon="6.49455">
        <ele>1386.6</ele>
        <time>2024-08-11T14:34:12Z</time>
      </trkpt>
      <trkpt lat="44.86671" lon="6.49455">
        <ele>1386.4</ele>
        <time>2024-08-11T14:34:13Z</time>
      </trkpt>
      <trkpt lat="44.86669" lon="6.49456">
        <ele>1386.2</ele>
        <time>2024-08-11T14:34:14Z</time>
      </trkpt>
      <trkpt lat="44.86669" lon="6.49456">
        <ele>1385.6</ele>
        <time>2024-08-11T14:34:15Z</time>
      </trkpt>
      <trkpt lat="44.86666" lon="6.49456">
        <ele>1385.2</ele>
        <time>2024-08-11T14:34:16Z</time>
      </trkpt>
      <trkpt lat="44.86666" lon="6.49456">
        <ele>1384.8</ele>
        <time>2024-08-11T14:34:17Z</time>
      </trkpt>
      <trkpt lat="44.86663" lon="6.49456">
        <ele>1384.4</ele>
        <time>2024-08-11T14:34:18Z</time>
      </trkpt>
      <trkpt lat="44.86663" lon="6.49456">
        <ele>1384</ele>
        <time>2024-08-11T14:34:19Z</time>
      </trkpt>
      <trkpt lat="44.86661" lon="6.49456">
        <ele>1384</ele>
        <time>2024-08-11T14:34:20Z</time>
      </trkpt>
      <trkpt lat="44.86661" lon="6.49456">
        <ele>1384</ele>
        <time>2024-08-11T14:34:21Z</time>
      </trkpt>
      <trkpt lat="44.86659" lon="6.49457">
        <ele>1383.8</ele>
        <time>2024-08-11T14:34:22Z</time>
      </trkpt>
      <trkpt lat="44.86659" lon="6.49457">
        <ele>1383.4</ele>
        <time>2024-08-11T14:34:23Z</time>
      </trkpt>
      <trkpt lat="44.86656" lon="6.49458">
        <ele>1383.2</ele>
        <time>2024-08-11T14:34:24Z</time>
      </trkpt>
      <trkpt lat="44.86656" lon="6.49458">
        <ele>1383.2</ele>
        <time>2024-08-11T14:34:25Z</time>
      </trkpt>
      <trkpt lat="44.86653" lon="6.49458">
        <ele>1383</ele>
        <time>2024-08-11T14:34:26Z</time>
      </trkpt>
      <trkpt lat="44.86653" lon="6.49458">
        <ele>1382.8</ele>
        <time>2024-08-11T14:34:27Z</time>
      </trkpt>
      <trkpt lat="44.86651" lon="6.49459">
        <ele>1382.6</ele>
        <time>2024-08-11T14:34:28Z</time>
      </trkpt>
      <trkpt lat="44.86651" lon="6.49459">
        <ele>1382.2</ele>
        <time>2024-08-11T14:34:29Z</time>
      </trkpt>
      <trkpt lat="44.86648" lon="6.49461">
        <ele>1382</ele>
        <time>2024-08-11T14:34:30Z</time>
      </trkpt>
      <trkpt lat="44.86648" lon="6.49461">
        <ele>1382</ele>
        <time>2024-08-11T14:34:31Z</time>
      </trkpt>
      <trkpt lat="44.86645" lon="6.49461">
        <ele>1381.6</ele>
        <time>2024-08-11T14:34:32Z</time>
      </trkpt>
      <trkpt lat="44.86645" lon="6.49461">
        <ele>1381.4</ele>
        <time>2024-08-11T14:34:33Z</time>
      </trkpt>
      <trkpt lat="44.86644" lon="6.49461">
        <ele>1380.8</ele>
        <time>2024-08-11T14:34:34Z</time>
      </trkpt>
      <trkpt lat="44.86642" lon="6.49461">
        <ele>1380.4</ele>
        <time>2024-08-11T14:34:35Z</time>
      </trkpt>
      <trkpt lat="44.8664" lon="6.4946">
        <ele>1380.2</ele>
        <time>2024-08-11T14:34:36Z</time>
      </trkpt>
      <trkpt lat="44.8664" lon="6.4946">
        <ele>1379.8</ele>
        <time>2024-08-11T14:34:37Z</time>
      </trkpt>
      <trkpt lat="44.86637" lon="6.4946">
        <ele>1379.4</ele>
        <time>2024-08-11T14:34:38Z</time>
      </trkpt>
      <trkpt lat="44.86637" lon="6.4946">
        <ele>1379.2</ele>
        <time>2024-08-11T14:34:39Z</time>
      </trkpt>
      <trkpt lat="44.86635" lon="6.4946">
        <ele>1379</ele>
        <time>2024-08-11T14:34:40Z</time>
      </trkpt>
      <trkpt lat="44.86635" lon="6.4946">
        <ele>1379</ele>
        <time>2024-08-11T14:34:41Z</time>
      </trkpt>
      <trkpt lat="44.86632" lon="6.4946">
        <ele>1378.4</ele>
        <time>2024-08-11T14:34:42Z</time>
      </trkpt>
      <trkpt lat="44.86632" lon="6.4946">
        <ele>1378.2</ele>
        <time>2024-08-11T14:34:43Z</time>
      </trkpt>
      <trkpt lat="44.8663" lon="6.49459">
        <ele>1378</ele>
        <time>2024-08-11T14:34:44Z</time>
      </trkpt>
      <trkpt lat="44.8663" lon="6.49459">
        <ele>1377.4</ele>
        <time>2024-08-11T14:34:45Z</time>
      </trkpt>
      <trkpt lat="44.86628" lon="6.49459">
        <ele>1377.2</ele>
        <time>2024-08-11T14:34:46Z</time>
      </trkpt>
      <trkpt lat="44.86628" lon="6.49459">
        <ele>1376.8</ele>
        <time>2024-08-11T14:34:47Z</time>
      </trkpt>
      <trkpt lat="44.86625" lon="6.49458">
        <ele>1376.6</ele>
        <time>2024-08-11T14:34:48Z</time>
      </trkpt>
      <trkpt lat="44.86625" lon="6.49458">
        <ele>1376.4</ele>
        <time>2024-08-11T14:34:49Z</time>
      </trkpt>
      <trkpt lat="44.86623" lon="6.49456">
        <ele>1376.2</ele>
        <time>2024-08-11T14:34:50Z</time>
      </trkpt>
      <trkpt lat="44.86623" lon="6.49456">
        <ele>1375.6</ele>
        <time>2024-08-11T14:34:51Z</time>
      </trkpt>
      <trkpt lat="44.86621" lon="6.49453">
        <ele>1375.4</ele>
        <time>2024-08-11T14:34:52Z</time>
      </trkpt>
      <trkpt lat="44.86621" lon="6.49453">
        <ele>1375.4</ele>
        <time>2024-08-11T14:34:53Z</time>
      </trkpt>
      <trkpt lat="44.86618" lon="6.49453">
        <ele>1375</ele>
        <time>2024-08-11T14:34:54Z</time>
      </trkpt>
      <trkpt lat="44.86618" lon="6.49453">
        <ele>1375</ele>
        <time>2024-08-11T14:34:55Z</time>
      </trkpt>
      <trkpt lat="44.86615" lon="6.49453">
        <ele>1374.6</ele>
        <time>2024-08-11T14:34:56Z</time>
      </trkpt>
      <trkpt lat="44.86615" lon="6.49453">
        <ele>1374.4</ele>
        <time>2024-08-11T14:34:57Z</time>
      </trkpt>
      <trkpt lat="44.86612" lon="6.49453">
        <ele>1374</ele>
        <time>2024-08-11T14:34:58Z</time>
      </trkpt>
      <trkpt lat="44.86612" lon="6.49453">
        <ele>1373.8</ele>
        <time>2024-08-11T14:34:59Z</time>
      </trkpt>
      <trkpt lat="44.86609" lon="6.49452">
        <ele>1373.8</ele>
        <time>2024-08-11T14:35:00Z</time>
      </trkpt>
      <trkpt lat="44.86609" lon="6.49452">
        <ele>1373.6</ele>
        <time>2024-08-11T14:35:01Z</time>
      </trkpt>
      <trkpt lat="44.86606" lon="6.4945">
        <ele>1373.6</ele>
        <time>2024-08-11T14:35:02Z</time>
      </trkpt>
      <trkpt lat="44.86606" lon="6.4945">
        <ele>1373.6</ele>
        <time>2024-08-11T14:35:03Z</time>
      </trkpt>
      <trkpt lat="44.86604" lon="6.49449">
        <ele>1373.4</ele>
        <time>2024-08-11T14:35:04Z</time>
      </trkpt>
      <trkpt lat="44.86604" lon="6.49449">
        <ele>1373</ele>
        <time>2024-08-11T14:35:05Z</time>
      </trkpt>
      <trkpt lat="44.86601" lon="6.49447">
        <ele>1373</ele>
        <time>2024-08-11T14:35:06Z</time>
      </trkpt>
      <trkpt lat="44.86601" lon="6.49447">
        <ele>1373</ele>
        <time>2024-08-11T14:35:07Z</time>
      </trkpt>
      <trkpt lat="44.86598" lon="6.49445">
        <ele>1372.8</ele>
        <time>2024-08-11T14:35:08Z</time>
      </trkpt>
      <trkpt lat="44.86598" lon="6.49445">
        <ele>1372.6</ele>
        <time>2024-08-11T14:35:09Z</time>
      </trkpt>
      <trkpt lat="44.86595" lon="6.49442">
        <ele>1372.6</ele>
        <time>2024-08-11T14:35:10Z</time>
      </trkpt>
      <trkpt lat="44.86595" lon="6.49442">
        <ele>1372.4</ele>
        <time>2024-08-11T14:35:11Z</time>
      </trkpt>
      <trkpt lat="44.86593" lon="6.4944">
        <ele>1372.2</ele>
        <time>2024-08-11T14:35:12Z</time>
      </trkpt>
      <trkpt lat="44.86593" lon="6.4944">
        <ele>1372</ele>
        <time>2024-08-11T14:35:13Z</time>
      </trkpt>
      <trkpt lat="44.8659" lon="6.49438">
        <ele>1372</ele>
        <time>2024-08-11T14:35:14Z</time>
      </trkpt>
      <trkpt lat="44.8659" lon="6.49438">
        <ele>1371.8</ele>
        <time>2024-08-11T14:35:15Z</time>
      </trkpt>
      <trkpt lat="44.86588" lon="6.49436">
        <ele>1371.8</ele>
        <time>2024-08-11T14:35:16Z</time>
      </trkpt>
      <trkpt lat="44.86588" lon="6.49436">
        <ele>1371.8</ele>
        <time>2024-08-11T14:35:17Z</time>
      </trkpt>
      <trkpt lat="44.86585" lon="6.49434">
        <ele>1371.8</ele>
        <time>2024-08-11T14:35:18Z</time>
      </trkpt>
      <trkpt lat="44.86585" lon="6.49434">
        <ele>1371.8</ele>
        <time>2024-08-11T14:35:19Z</time>
      </trkpt>
      <trkpt lat="44.86583" lon="6.49432">
        <ele>1371.6</ele>
        <time>2024-08-11T14:35:20Z</time>
      </trkpt>
      <trkpt lat="44.86583" lon="6.49432">
        <ele>1371.4</ele>
        <time>2024-08-11T14:35:21Z</time>
      </trkpt>
      <trkpt lat="44.8658" lon="6.4943">
        <ele>1371.4</ele>
        <time>2024-08-11T14:35:22Z</time>
      </trkpt>
      <trkpt lat="44.8658" lon="6.4943">
        <ele>1371.2</ele>
        <time>2024-08-11T14:35:23Z</time>
      </trkpt>
      <trkpt lat="44.86578" lon="6.49428">
        <ele>1371.2</ele>
        <time>2024-08-11T14:35:24Z</time>
      </trkpt>
      <trkpt lat="44.86578" lon="6.49428">
        <ele>1370.8</ele>
        <time>2024-08-11T14:35:25Z</time>
      </trkpt>
      <trkpt lat="44.86574" lon="6.49426">
        <ele>1370.8</ele>
        <time>2024-08-11T14:35:26Z</time>
      </trkpt>
      <trkpt lat="44.86574" lon="6.49426">
        <ele>1370.6</ele>
        <time>2024-08-11T14:35:27Z</time>
      </trkpt>
      <trkpt lat="44.86572" lon="6.49424">
        <ele>1370.6</ele>
        <time>2024-08-11T14:35:28Z</time>
      </trkpt>
      <trkpt lat="44.86572" lon="6.49424">
        <ele>1370.6</ele>
        <time>2024-08-11T14:35:29Z</time>
      </trkpt>
      <trkpt lat="44.86569" lon="6.49422">
        <ele>1370.6</ele>
        <time>2024-08-11T14:35:30Z</time>
      </trkpt>
      <trkpt lat="44.86569" lon="6.49422">
        <ele>1370.2</ele>
        <time>2024-08-11T14:35:31Z</time>
      </trkpt>
      <trkpt lat="44.86566" lon="6.4942">
        <ele>1370.2</ele>
        <time>2024-08-11T14:35:32Z</time>
      </trkpt>
      <trkpt lat="44.86566" lon="6.4942">
        <ele>1370.2</ele>
        <time>2024-08-11T14:35:33Z</time>
      </trkpt>
      <trkpt lat="44.86564" lon="6.49418">
        <ele>1370.2</ele>
        <time>2024-08-11T14:35:34Z</time>
      </trkpt>
      <trkpt lat="44.86564" lon="6.49418">
        <ele>1370.2</ele>
        <time>2024-08-11T14:35:35Z</time>
      </trkpt>
      <trkpt lat="44.86562" lon="6.49415">
        <ele>1370.2</ele>
        <time>2024-08-11T14:35:36Z</time>
      </trkpt>
      <trkpt lat="44.86562" lon="6.49415">
        <ele>1369.8</ele>
        <time>2024-08-11T14:35:37Z</time>
      </trkpt>
      <trkpt lat="44.8656" lon="6.49413">
        <ele>1369.6</ele>
        <time>2024-08-11T14:35:38Z</time>
      </trkpt>
      <trkpt lat="44.86558" lon="6.49412">
        <ele>1369.6</ele>
        <time>2024-08-11T14:35:39Z</time>
      </trkpt>
      <trkpt lat="44.86558" lon="6.49412">
        <ele>1369.6</ele>
        <time>2024-08-11T14:35:40Z</time>
      </trkpt>
      <trkpt lat="44.86556" lon="6.49409">
        <ele>1369.4</ele>
        <time>2024-08-11T14:35:41Z</time>
      </trkpt>
      <trkpt lat="44.86556" lon="6.49409">
        <ele>1369.4</ele>
        <time>2024-08-11T14:35:42Z</time>
      </trkpt>
      <trkpt lat="44.86553" lon="6.49408">
        <ele>1369.4</ele>
        <time>2024-08-11T14:35:43Z</time>
      </trkpt>
      <trkpt lat="44.86553" lon="6.49408">
        <ele>1369.2</ele>
        <time>2024-08-11T14:35:44Z</time>
      </trkpt>
      <trkpt lat="44.8655" lon="6.49406">
        <ele>1369.2</ele>
        <time>2024-08-11T14:35:45Z</time>
      </trkpt>
      <trkpt lat="44.8655" lon="6.49406">
        <ele>1369</ele>
        <time>2024-08-11T14:35:46Z</time>
      </trkpt>
      <trkpt lat="44.86548" lon="6.49404">
        <ele>1368.8</ele>
        <time>2024-08-11T14:35:47Z</time>
      </trkpt>
      <trkpt lat="44.86548" lon="6.49404">
        <ele>1368.4</ele>
        <time>2024-08-11T14:35:48Z</time>
      </trkpt>
      <trkpt lat="44.86546" lon="6.49403">
        <ele>1368.4</ele>
        <time>2024-08-11T14:35:49Z</time>
      </trkpt>
      <trkpt lat="44.86546" lon="6.49403">
        <ele>1368.4</ele>
        <time>2024-08-11T14:35:50Z</time>
      </trkpt>
      <trkpt lat="44.86546" lon="6.49403">
        <ele>1368.4</ele>
        <time>2024-08-11T14:35:51Z</time>
      </trkpt>
      <trkpt lat="44.86546" lon="6.49403">
        <ele>1368.4</ele>
        <time>2024-08-11T14:35:52Z</time>
      </trkpt>
      <trkpt lat="44.86546" lon="6.49403">
        <ele>1368.6</ele>
        <time>2024-08-11T14:35:53Z</time>
      </trkpt>
      <trkpt lat="44.86544" lon="6.494">
        <ele>1368.6</ele>
        <time>2024-08-11T14:35:54Z</time>
      </trkpt>
      <trkpt lat="44.86544" lon="6.494">
        <ele>1368.4</ele>
        <time>2024-08-11T14:35:55Z</time>
      </trkpt>
      <trkpt lat="44.86541" lon="6.49399">
        <ele>1368.4</ele>
        <time>2024-08-11T14:35:56Z</time>
      </trkpt>
      <trkpt lat="44.86541" lon="6.49399">
        <ele>1368.4</ele>
        <time>2024-08-11T14:35:57Z</time>
      </trkpt>
      <trkpt lat="44.86538" lon="6.49397">
        <ele>1368.2</ele>
        <time>2024-08-11T14:35:58Z</time>
      </trkpt>
      <trkpt lat="44.86538" lon="6.49397">
        <ele>1368.2</ele>
        <time>2024-08-11T14:35:59Z</time>
      </trkpt>
      <trkpt lat="44.86536" lon="6.49395">
        <ele>1367.8</ele>
        <time>2024-08-11T14:36:00Z</time>
      </trkpt>
      <trkpt lat="44.86536" lon="6.49395">
        <ele>1367.8</ele>
        <time>2024-08-11T14:36:01Z</time>
      </trkpt>
      <trkpt lat="44.86533" lon="6.49393">
        <ele>1367.6</ele>
        <time>2024-08-11T14:36:02Z</time>
      </trkpt>
      <trkpt lat="44.86533" lon="6.49393">
        <ele>1367.6</ele>
        <time>2024-08-11T14:36:03Z</time>
      </trkpt>
      <trkpt lat="44.86531" lon="6.49391">
        <ele>1367.4</ele>
        <time>2024-08-11T14:36:04Z</time>
      </trkpt>
      <trkpt lat="44.86531" lon="6.49391">
        <ele>1367.4</ele>
        <time>2024-08-11T14:36:05Z</time>
      </trkpt>
      <trkpt lat="44.86528" lon="6.49389">
        <ele>1367.2</ele>
        <time>2024-08-11T14:36:06Z</time>
      </trkpt>
      <trkpt lat="44.86528" lon="6.49389">
        <ele>1366.8</ele>
        <time>2024-08-11T14:36:07Z</time>
      </trkpt>
      <trkpt lat="44.86525" lon="6.49388">
        <ele>1366.8</ele>
        <time>2024-08-11T14:36:08Z</time>
      </trkpt>
      <trkpt lat="44.86525" lon="6.49388">
        <ele>1366.8</ele>
        <time>2024-08-11T14:36:09Z</time>
      </trkpt>
      <trkpt lat="44.86523" lon="6.49386">
        <ele>1366.6</ele>
        <time>2024-08-11T14:36:10Z</time>
      </trkpt>
      <trkpt lat="44.86523" lon="6.49386">
        <ele>1366.6</ele>
        <time>2024-08-11T14:36:11Z</time>
      </trkpt>
      <trkpt lat="44.8652" lon="6.49384">
        <ele>1366.6</ele>
        <time>2024-08-11T14:36:12Z</time>
      </trkpt>
      <trkpt lat="44.8652" lon="6.49384">
        <ele>1366.4</ele>
        <time>2024-08-11T14:36:13Z</time>
      </trkpt>
      <trkpt lat="44.86517" lon="6.49382">
        <ele>1366</ele>
        <time>2024-08-11T14:36:14Z</time>
      </trkpt>
      <trkpt lat="44.86517" lon="6.49382">
        <ele>1365.8</ele>
        <time>2024-08-11T14:36:15Z</time>
      </trkpt>
      <trkpt lat="44.86515" lon="6.49381">
        <ele>1365.8</ele>
        <time>2024-08-11T14:36:16Z</time>
      </trkpt>
      <trkpt lat="44.86515" lon="6.49381">
        <ele>1365.4</ele>
        <time>2024-08-11T14:36:17Z</time>
      </trkpt>
      <trkpt lat="44.86512" lon="6.4938">
        <ele>1365.4</ele>
        <time>2024-08-11T14:36:18Z</time>
      </trkpt>
      <trkpt lat="44.86512" lon="6.4938">
        <ele>1365.2</ele>
        <time>2024-08-11T14:36:19Z</time>
      </trkpt>
      <trkpt lat="44.86509" lon="6.49379">
        <ele>1364.8</ele>
        <time>2024-08-11T14:36:20Z</time>
      </trkpt>
      <trkpt lat="44.86509" lon="6.49379">
        <ele>1364.6</ele>
        <time>2024-08-11T14:36:21Z</time>
      </trkpt>
      <trkpt lat="44.86507" lon="6.49378">
        <ele>1364.6</ele>
        <time>2024-08-11T14:36:22Z</time>
      </trkpt>
      <trkpt lat="44.86507" lon="6.49378">
        <ele>1364.6</ele>
        <time>2024-08-11T14:36:23Z</time>
      </trkpt>
      <trkpt lat="44.86507" lon="6.49378">
        <ele>1364.6</ele>
        <time>2024-08-11T14:36:24Z</time>
      </trkpt>
      <trkpt lat="44.86507" lon="6.49378">
        <ele>1364.6</ele>
        <time>2024-08-11T14:36:25Z</time>
      </trkpt>
      <trkpt lat="44.86507" lon="6.49378">
        <ele>1364.6</ele>
        <time>2024-08-11T14:36:26Z</time>
      </trkpt>
      <trkpt lat="44.86507" lon="6.49378">
        <ele>1364.4</ele>
        <time>2024-08-11T14:36:27Z</time>
      </trkpt>
      <trkpt lat="44.86507" lon="6.49378">
        <ele>1364.2</ele>
        <time>2024-08-11T14:36:28Z</time>
      </trkpt>
      <trkpt lat="44.86507" lon="6.49378">
        <ele>1364.2</ele>
        <time>2024-08-11T14:36:29Z</time>
      </trkpt>
      <trkpt lat="44.86507" lon="6.49378">
        <ele>1364.4</ele>
        <time>2024-08-11T14:36:30Z</time>
      </trkpt>
      <trkpt lat="44.86507" lon="6.49378">
        <ele>1364.4</ele>
        <time>2024-08-11T14:36:31Z</time>
      </trkpt>
      <trkpt lat="44.86507" lon="6.49378">
        <ele>1364.4</ele>
        <time>2024-08-11T14:36:32Z</time>
      </trkpt>
      <trkpt lat="44.86507" lon="6.49378">
        <ele>1364.4</ele>
        <time>2024-08-11T14:36:33Z</time>
      </trkpt>
      <trkpt lat="44.86507" lon="6.49378">
        <ele>1364.4</ele>
        <time>2024-08-11T14:36:34Z</time>
      </trkpt>
      <trkpt lat="44.86507" lon="6.49378">
        <ele>1364.4</ele>
        <time>2024-08-11T14:36:35Z</time>
      </trkpt>
      <trkpt lat="44.86507" lon="6.49378">
        <ele>1364.2</ele>
        <time>2024-08-11T14:36:36Z</time>
      </trkpt>
      <trkpt lat="44.86507" lon="6.49378">
        <ele>1364</ele>
        <time>2024-08-11T14:36:37Z</time>
      </trkpt>
      <trkpt lat="44.86507" lon="6.49378">
        <ele>1364</ele>
        <time>2024-08-11T14:36:38Z</time>
      </trkpt>
      <trkpt lat="44.86507" lon="6.49378">
        <ele>1363.8</ele>
        <time>2024-08-11T14:36:39Z</time>
      </trkpt>
      <trkpt lat="44.86507" lon="6.49378">
        <ele>1363.8</ele>
        <time>2024-08-11T14:36:40Z</time>
      </trkpt>
      <trkpt lat="44.86507" lon="6.49378">
        <ele>1363.8</ele>
        <time>2024-08-11T14:36:41Z</time>
      </trkpt>
      <trkpt lat="44.86507" lon="6.49378">
        <ele>1363.6</ele>
        <time>2024-08-11T14:36:42Z</time>
      </trkpt>
      <trkpt lat="44.86507" lon="6.49378">
        <ele>1363.6</ele>
        <time>2024-08-11T14:36:43Z</time>
      </trkpt>
      <trkpt lat="44.86507" lon="6.49378">
        <ele>1363.8</ele>
        <time>2024-08-11T14:36:44Z</time>
      </trkpt>
      <trkpt lat="44.86507" lon="6.49378">
        <ele>1364</ele>
        <time>2024-08-11T14:36:45Z</time>
      </trkpt>
      <trkpt lat="44.86507" lon="6.49378">
        <ele>1364</ele>
        <time>2024-08-11T14:36:46Z</time>
      </trkpt>
      <trkpt lat="44.86507" lon="6.49378">
        <ele>1364</ele>
        <time>2024-08-11T14:36:47Z</time>
      </trkpt>
      <trkpt lat="44.86507" lon="6.49378">
        <ele>1364</ele>
        <time>2024-08-11T14:36:48Z</time>
      </trkpt>
      <trkpt lat="44.86507" lon="6.49378">
        <ele>1364</ele>
        <time>2024-08-11T14:36:49Z</time>
      </trkpt>
      <trkpt lat="44.86507" lon="6.49378">
        <ele>1364</ele>
        <time>2024-08-11T14:36:50Z</time>
      </trkpt>
      <trkpt lat="44.86507" lon="6.49378">
        <ele>1364</ele>
        <time>2024-08-11T14:36:51Z</time>
      </trkpt>
      <trkpt lat="44.86505" lon="6.49379">
        <ele>1363.8</ele>
        <time>2024-08-11T14:36:52Z</time>
      </trkpt>
      <trkpt lat="44.86505" lon="6.49379">
        <ele>1363.6</ele>
        <time>2024-08-11T14:36:53Z</time>
      </trkpt>
      <trkpt lat="44.86504" lon="6.49383">
        <ele>1363.6</ele>
        <time>2024-08-11T14:36:54Z</time>
      </trkpt>
      <trkpt lat="44.86504" lon="6.49383">
        <ele>1363.8</ele>
        <time>2024-08-11T14:36:55Z</time>
      </trkpt>
      <trkpt lat="44.86502" lon="6.49386">
        <ele>1363.8</ele>
        <time>2024-08-11T14:36:56Z</time>
      </trkpt>
      <trkpt lat="44.86502" lon="6.49386">
        <ele>1364</ele>
        <time>2024-08-11T14:36:57Z</time>
      </trkpt>
      <trkpt lat="44.86501" lon="6.49389">
        <ele>1364</ele>
        <time>2024-08-11T14:36:58Z</time>
      </trkpt>
      <trkpt lat="44.86501" lon="6.49389">
        <ele>1364.4</ele>
        <time>2024-08-11T14:36:59Z</time>
      </trkpt>
      <trkpt lat="44.86501" lon="6.49389">
        <ele>1364.6</ele>
        <time>2024-08-11T14:37:00Z</time>
      </trkpt>
      <trkpt lat="44.86499" lon="6.49391">
        <ele>1364.6</ele>
        <time>2024-08-11T14:37:01Z</time>
      </trkpt>
      <trkpt lat="44.86499" lon="6.49391">
        <ele>1364.8</ele>
        <time>2024-08-11T14:37:02Z</time>
      </trkpt>
      <trkpt lat="44.86497" lon="6.49393">
        <ele>1364.8</ele>
        <time>2024-08-11T14:37:03Z</time>
      </trkpt>
      <trkpt lat="44.86497" lon="6.49393">
        <ele>1364.8</ele>
        <time>2024-08-11T14:37:04Z</time>
      </trkpt>
      <trkpt lat="44.86495" lon="6.49395">
        <ele>1364.8</ele>
        <time>2024-08-11T14:37:05Z</time>
      </trkpt>
      <trkpt lat="44.86495" lon="6.49395">
        <ele>1364.8</ele>
        <time>2024-08-11T14:37:06Z</time>
      </trkpt>
      <trkpt lat="44.86494" lon="6.49397">
        <ele>1364.8</ele>
        <time>2024-08-11T14:37:07Z</time>
      </trkpt>
      <trkpt lat="44.86494" lon="6.49397">
        <ele>1365</ele>
        <time>2024-08-11T14:37:08Z</time>
      </trkpt>
      <trkpt lat="44.86492" lon="6.494">
        <ele>1365</ele>
        <time>2024-08-11T14:37:09Z</time>
      </trkpt>
      <trkpt lat="44.86492" lon="6.494">
        <ele>1365</ele>
        <time>2024-08-11T14:37:10Z</time>
      </trkpt>
      <trkpt lat="44.86491" lon="6.49402">
        <ele>1364.8</ele>
        <time>2024-08-11T14:37:11Z</time>
      </trkpt>
      <trkpt lat="44.86491" lon="6.49402">
        <ele>1364.6</ele>
        <time>2024-08-11T14:37:12Z</time>
      </trkpt>
      <trkpt lat="44.86489" lon="6.49404">
        <ele>1364.6</ele>
        <time>2024-08-11T14:37:13Z</time>
      </trkpt>
      <trkpt lat="44.86489" lon="6.49404">
        <ele>1364.8</ele>
        <time>2024-08-11T14:37:14Z</time>
      </trkpt>
      <trkpt lat="44.86487" lon="6.49406">
        <ele>1365</ele>
        <time>2024-08-11T14:37:15Z</time>
      </trkpt>
    </trkseg>
      <trkpt lat="44.86486" lon="6.49413">
        <ele>1349.4</ele>
        <time>2024-08-12T02:04:06Z</time>
      </trkpt>
      <trkpt lat="44.86486" lon="6.49412">
        <ele>1349.4</ele>
        <time>2024-08-12T02:04:07Z</time>
      </trkpt>
      <trkpt lat="44.86486" lon="6.49412">
        <ele>1349.4</ele>
        <time>2024-08-12T02:04:08Z</time>
      </trkpt>
      <trkpt lat="44.86485" lon="6.49411">
        <ele>1349.4</ele>
        <time>2024-08-12T02:04:09Z</time>
      </trkpt>
      <trkpt lat="44.86485" lon="6.49411">
        <ele>1349.4</ele>
        <time>2024-08-12T02:04:10Z</time>
      </trkpt>
      <trkpt lat="44.86485" lon="6.4941">
        <ele>1349.4</ele>
        <time>2024-08-12T02:04:11Z</time>
      </trkpt>
      <trkpt lat="44.86485" lon="6.4941">
        <ele>1349.4</ele>
        <time>2024-08-12T02:04:12Z</time>
      </trkpt>
      <trkpt lat="44.86484" lon="6.49409">
        <ele>1349.4</ele>
        <time>2024-08-12T02:04:13Z</time>
      </trkpt>
      <trkpt lat="44.86484" lon="6.49409">
        <ele>1349.4</ele>
        <time>2024-08-12T02:04:14Z</time>
      </trkpt>
      <trkpt lat="44.86483" lon="6.49409">
        <ele>1349.6</ele>
        <time>2024-08-12T02:04:15Z</time>
      </trkpt>
      <trkpt lat="44.86483" lon="6.49409">
        <ele>1349.6</ele>
        <time>2024-08-12T02:04:16Z</time>
      </trkpt>
      <trkpt lat="44.86483" lon="6.49409">
        <ele>1349.6</ele>
        <time>2024-08-12T02:04:17Z</time>
      </trkpt>
      <trkpt lat="44.86483" lon="6.49409">
        <ele>1349.6</ele>
        <time>2024-08-12T02:04:18Z</time>
      </trkpt>
      <trkpt lat="44.86483" lon="6.49409">
        <ele>1349.6</ele>
        <time>2024-08-12T02:04:19Z</time>
      </trkpt>
      <trkpt lat="44.86483" lon="6.49409">
        <ele>1349.4</ele>
        <time>2024-08-12T02:04:20Z</time>
      </trkpt>
      <trkpt lat="44.86483" lon="6.49409">
        <ele>1349.4</ele>
        <time>2024-08-12T02:04:21Z</time>
      </trkpt>
      <trkpt lat="44.86483" lon="6.49409">
        <ele>1349.4</ele>
        <time>2024-08-12T02:04:23Z</time>
      </trkpt>
      <trkpt lat="44.86483" lon="6.49409">
        <ele>1349.4</ele>
        <time>2024-08-12T02:04:24Z</time>
      </trkpt>
      <trkpt lat="44.86483" lon="6.49409">
        <ele>1349.4</ele>
        <time>2024-08-12T02:04:25Z</time>
      </trkpt>
      <trkpt lat="44.86483" lon="6.49409">
        <ele>1349.4</ele>
        <time>2024-08-12T02:04:26Z</time>
      </trkpt>
      <trkpt lat="44.86483" lon="6.49409">
        <ele>1349.4</ele>
        <time>2024-08-12T02:04:27Z</time>
      </trkpt>
      <trkpt lat="44.86483" lon="6.49409">
        <ele>1349.6</ele>
        <time>2024-08-12T02:04:28Z</time>
      </trkpt>
      <trkpt lat="44.86483" lon="6.49409">
        <ele>1349.6</ele>
        <time>2024-08-12T02:04:29Z</time>
      </trkpt>
      <trkpt lat="44.86483" lon="6.49409">
        <ele>1349.6</ele>
        <time>2024-08-12T02:04:30Z</time>
      </trkpt>
      <trkpt lat="44.86483" lon="6.49409">
        <ele>1349.2</ele>
        <time>2024-08-12T02:04:31Z</time>
      </trkpt>
      <trkpt lat="44.86482" lon="6.49406">
        <ele>1348.8</ele>
        <time>2024-08-12T02:04:32Z</time>
      </trkpt>
      <trkpt lat="44.86482" lon="6.49406">
        <ele>1348.8</ele>
        <time>2024-08-12T02:04:33Z</time>
      </trkpt>
      <trkpt lat="44.86482" lon="6.49403">
        <ele>1348.8</ele>
        <time>2024-08-12T02:04:34Z</time>
      </trkpt>
      <trkpt lat="44.86482" lon="6.49403">
        <ele>1348.6</ele>
        <time>2024-08-12T02:04:35Z</time>
      </trkpt>
      <trkpt lat="44.86484" lon="6.49399">
        <ele>1348.6</ele>
        <time>2024-08-12T02:04:36Z</time>
      </trkpt>
      <trkpt lat="44.86484" lon="6.49399">
        <ele>1348.6</ele>
        <time>2024-08-12T02:04:37Z</time>
      </trkpt>
      <trkpt lat="44.86486" lon="6.49396">
        <ele>1348.6</ele>
        <time>2024-08-12T02:04:38Z</time>
      </trkpt>
      <trkpt lat="44.86486" lon="6.49396">
        <ele>1348.8</ele>
        <time>2024-08-12T02:04:39Z</time>
      </trkpt>
      <trkpt lat="44.86488" lon="6.49393">
        <ele>1348.8</ele>
        <time>2024-08-12T02:04:40Z</time>
      </trkpt>
      <trkpt lat="44.86488" lon="6.49393">
        <ele>1349</ele>
        <time>2024-08-12T02:04:41Z</time>
      </trkpt>
      <trkpt lat="44.8649" lon="6.4939">
        <ele>1349.2</ele>
        <time>2024-08-12T02:04:42Z</time>
      </trkpt>
      <trkpt lat="44.8649" lon="6.4939">
        <ele>1349.2</ele>
        <time>2024-08-12T02:04:43Z</time>
      </trkpt>
      <trkpt lat="44.86492" lon="6.49387">
        <ele>1349.2</ele>
        <time>2024-08-12T02:04:44Z</time>
      </trkpt>
      <trkpt lat="44.86492" lon="6.49387">
        <ele>1349.2</ele>
        <time>2024-08-12T02:04:45Z</time>
      </trkpt>
      <trkpt lat="44.86494" lon="6.49384">
        <ele>1349.2</ele>
        <time>2024-08-12T02:04:46Z</time>
      </trkpt>
      <trkpt lat="44.86494" lon="6.49384">
        <ele>1349</ele>
        <time>2024-08-12T02:04:47Z</time>
      </trkpt>
      <trkpt lat="44.86495" lon="6.49382">
        <ele>1348.8</ele>
        <time>2024-08-12T02:04:48Z</time>
      </trkpt>
      <trkpt lat="44.86495" lon="6.49382">
        <ele>1348.6</ele>
        <time>2024-08-12T02:04:49Z</time>
      </trkpt>
      <trkpt lat="44.86498" lon="6.49379">
        <ele>1348.6</ele>
        <time>2024-08-12T02:04:50Z</time>
      </trkpt>
      <trkpt lat="44.86498" lon="6.49379">
        <ele>1348.8</ele>
        <time>2024-08-12T02:04:51Z</time>
      </trkpt>
      <trkpt lat="44.86501" lon="6.49377">
        <ele>1348.8</ele>
        <time>2024-08-12T02:04:52Z</time>
      </trkpt>
      <trkpt lat="44.86501" lon="6.49377">
        <ele>1348.6</ele>
        <time>2024-08-12T02:04:53Z</time>
      </trkpt>
      <trkpt lat="44.86502" lon="6.49374">
        <ele>1348.2</ele>
        <time>2024-08-12T02:04:54Z</time>
      </trkpt>
      <trkpt lat="44.86502" lon="6.49374">
        <ele>1348</ele>
        <time>2024-08-12T02:04:55Z</time>
      </trkpt>
      <trkpt lat="44.86502" lon="6.49371">
        <ele>1348</ele>
        <time>2024-08-12T02:04:56Z</time>
      </trkpt>
      <trkpt lat="44.86502" lon="6.49371">
        <ele>1348</ele>
        <time>2024-08-12T02:04:57Z</time>
      </trkpt>
      <trkpt lat="44.86501" lon="6.49368">
        <ele>1348</ele>
        <time>2024-08-12T02:04:58Z</time>
      </trkpt>
      <trkpt lat="44.86501" lon="6.49368">
        <ele>1348</ele>
        <time>2024-08-12T02:04:59Z</time>
      </trkpt>
      <trkpt lat="44.86499" lon="6.49367">
        <ele>1347.8</ele>
        <time>2024-08-12T02:05:00Z</time>
      </trkpt>
      <trkpt lat="44.86499" lon="6.49367">
        <ele>1347.8</ele>
        <time>2024-08-12T02:05:01Z</time>
      </trkpt>
      <trkpt lat="44.86499" lon="6.49367">
        <ele>1347.8</ele>
        <time>2024-08-12T02:05:02Z</time>
      </trkpt>
      <trkpt lat="44.86496" lon="6.49368">
        <ele>1347.8</ele>
        <time>2024-08-12T02:05:03Z</time>
      </trkpt>
      <trkpt lat="44.86496" lon="6.49368">
        <ele>1347.4</ele>
        <time>2024-08-12T02:05:04Z</time>
      </trkpt>
      <trkpt lat="44.86496" lon="6.49368">
        <ele>1347.2</ele>
        <time>2024-08-12T02:05:05Z</time>
      </trkpt>
      <trkpt lat="44.86493" lon="6.49369">
        <ele>1347.2</ele>
        <time>2024-08-12T02:05:06Z</time>
      </trkpt>
      <trkpt lat="44.86493" lon="6.49369">
        <ele>1347.4</ele>
        <time>2024-08-12T02:05:07Z</time>
      </trkpt>
      <trkpt lat="44.86491" lon="6.49369">
        <ele>1347.4</ele>
        <time>2024-08-12T02:05:08Z</time>
      </trkpt>
      <trkpt lat="44.86491" lon="6.49369">
        <ele>1347.2</ele>
        <time>2024-08-12T02:05:09Z</time>
      </trkpt>
      <trkpt lat="44.86491" lon="6.49369">
        <ele>1347.2</ele>
        <time>2024-08-12T02:05:10Z</time>
      </trkpt>
      <trkpt lat="44.86491" lon="6.49369">
        <ele>1347.2</ele>
        <time>2024-08-12T02:05:11Z</time>
      </trkpt>
      <trkpt lat="44.86491" lon="6.49369">
        <ele>1347.2</ele>
        <time>2024-08-12T02:05:12Z</time>
      </trkpt>
      <trkpt lat="44.86491" lon="6.49369">
        <ele>1347.2</ele>
        <time>2024-08-12T02:05:13Z</time>
      </trkpt>
      <trkpt lat="44.86491" lon="6.49369">
        <ele>1347</ele>
        <time>2024-08-12T02:05:14Z</time>
      </trkpt>
      <trkpt lat="44.86491" lon="6.49369">
        <ele>1347</ele>
        <time>2024-08-12T02:05:15Z</time>
      </trkpt>
      <trkpt lat="44.86491" lon="6.49369">
        <ele>1347</ele>
        <time>2024-08-12T02:05:16Z</time>
      </trkpt>
      <trkpt lat="44.86491" lon="6.49369">
        <ele>1347</ele>
        <time>2024-08-12T02:05:17Z</time>
      </trkpt>
      <trkpt lat="44.86491" lon="6.49369">
        <ele>1347</ele>
        <time>2024-08-12T02:05:18Z</time>
      </trkpt>
      <trkpt lat="44.86491" lon="6.49369">
        <ele>1347</ele>
        <time>2024-08-12T02:05:19Z</time>
      </trkpt>
      <trkpt lat="44.86491" lon="6.49369">
        <ele>1347</ele>
        <time>2024-08-12T02:05:20Z</time>
      </trkpt>
      <trkpt lat="44.86491" lon="6.49369">
        <ele>1346.8</ele>
        <time>2024-08-12T02:05:21Z</time>
      </trkpt>
      <trkpt lat="44.86489" lon="6.49368">
        <ele>1346.8</ele>
        <time>2024-08-12T02:05:22Z</time>
      </trkpt>
      <trkpt lat="44.86489" lon="6.49368">
        <ele>1346.6</ele>
        <time>2024-08-12T02:05:23Z</time>
      </trkpt>
      <trkpt lat="44.86488" lon="6.49366">
        <ele>1346.4</ele>
        <time>2024-08-12T02:05:24Z</time>
      </trkpt>
      <trkpt lat="44.86488" lon="6.49366">
        <ele>1346</ele>
        <time>2024-08-12T02:05:25Z</time>
      </trkpt>
      <trkpt lat="44.86486" lon="6.49363">
        <ele>1345.8</ele>
        <time>2024-08-12T02:05:26Z</time>
      </trkpt>
      <trkpt lat="44.86486" lon="6.49363">
        <ele>1345.8</ele>
        <time>2024-08-12T02:05:27Z</time>
      </trkpt>
      <trkpt lat="44.86486" lon="6.49363">
        <ele>1345.6</ele>
        <time>2024-08-12T02:05:28Z</time>
      </trkpt>
      <trkpt lat="44.86486" lon="6.49361">
        <ele>1345.2</ele>
        <time>2024-08-12T02:05:29Z</time>
      </trkpt>
      <trkpt lat="44.86486" lon="6.49361">
        <ele>1345</ele>
        <time>2024-08-12T02:05:30Z</time>
      </trkpt>
      <trkpt lat="44.86486" lon="6.49361">
        <ele>1344.6</ele>
        <time>2024-08-12T02:05:31Z</time>
      </trkpt>
      <trkpt lat="44.86485" lon="6.49359">
        <ele>1344.2</ele>
        <time>2024-08-12T02:05:32Z</time>
      </trkpt>
      <trkpt lat="44.86485" lon="6.49359">
        <ele>1344.2</ele>
        <time>2024-08-12T02:05:33Z</time>
      </trkpt>
      <trkpt lat="44.86483" lon="6.49357">
        <ele>1344.2</ele>
        <time>2024-08-12T02:05:34Z</time>
      </trkpt>
      <trkpt lat="44.86483" lon="6.49357">
        <ele>1344.2</ele>
        <time>2024-08-12T02:05:35Z</time>
      </trkpt>
      <trkpt lat="44.86481" lon="6.49355">
        <ele>1343.8</ele>
        <time>2024-08-12T02:05:36Z</time>
      </trkpt>
      <trkpt lat="44.86481" lon="6.49355">
        <ele>1343.6</ele>
        <time>2024-08-12T02:05:37Z</time>
      </trkpt>
      <trkpt lat="44.86478" lon="6.49355">
        <ele>1343.4</ele>
        <time>2024-08-12T02:05:38Z</time>
      </trkpt>
      <trkpt lat="44.86478" lon="6.49355">
        <ele>1343.2</ele>
        <time>2024-08-12T02:05:39Z</time>
      </trkpt>
      <trkpt lat="44.86478" lon="6.49355">
        <ele>1343</ele>
        <time>2024-08-12T02:05:40Z</time>
      </trkpt>
      <trkpt lat="44.86476" lon="6.49354">
        <ele>1342.6</ele>
        <time>2024-08-12T02:05:41Z</time>
      </trkpt>
      <trkpt lat="44.86476" lon="6.49354">
        <ele>1342</ele>
        <time>2024-08-12T02:05:42Z</time>
      </trkpt>
      <trkpt lat="44.86474" lon="6.49352">
        <ele>1341.6</ele>
        <time>2024-08-12T02:05:43Z</time>
      </trkpt>
      <trkpt lat="44.86474" lon="6.49352">
        <ele>1341.6</ele>
        <time>2024-08-12T02:05:44Z</time>
      </trkpt>
      <trkpt lat="44.86474" lon="6.49352">
        <ele>1341.4</ele>
        <time>2024-08-12T02:05:45Z</time>
      </trkpt>
      <trkpt lat="44.86471" lon="6.49351">
        <ele>1341</ele>
        <time>2024-08-12T02:05:46Z</time>
      </trkpt>
      <trkpt lat="44.86471" lon="6.49351">
        <ele>1340.8</ele>
        <time>2024-08-12T02:05:47Z</time>
      </trkpt>
      <trkpt lat="44.86469" lon="6.49349">
        <ele>1340.8</ele>
        <time>2024-08-12T02:05:48Z</time>
      </trkpt>
      <trkpt lat="44.86469" lon="6.49349">
        <ele>1340.6</ele>
        <time>2024-08-12T02:05:49Z</time>
      </trkpt>
      <trkpt lat="44.86469" lon="6.49349">
        <ele>1340.4</ele>
        <time>2024-08-12T02:05:50Z</time>
      </trkpt>
      <trkpt lat="44.86467" lon="6.49347">
        <ele>1339.8</ele>
        <time>2024-08-12T02:05:51Z</time>
      </trkpt>
      <trkpt lat="44.86467" lon="6.49347">
        <ele>1339.6</ele>
        <time>2024-08-12T02:05:52Z</time>
      </trkpt>
      <trkpt lat="44.86464" lon="6.49346">
        <ele>1339.4</ele>
        <time>2024-08-12T02:05:53Z</time>
      </trkpt>
      <trkpt lat="44.86464" lon="6.49346">
        <ele>1339</ele>
        <time>2024-08-12T02:05:54Z</time>
      </trkpt>
      <trkpt lat="44.86462" lon="6.49345">
        <ele>1338.8</ele>
        <time>2024-08-12T02:05:55Z</time>
      </trkpt>
      <trkpt lat="44.86462" lon="6.49345">
        <ele>1338.8</ele>
        <time>2024-08-12T02:05:56Z</time>
      </trkpt>
      <trkpt lat="44.8646" lon="6.49343">
        <ele>1338.4</ele>
        <time>2024-08-12T02:05:57Z</time>
      </trkpt>
      <trkpt lat="44.8646" lon="6.49343">
        <ele>1338</ele>
        <time>2024-08-12T02:05:58Z</time>
      </trkpt>
      <trkpt lat="44.86458" lon="6.49342">
        <ele>1338</ele>
        <time>2024-08-12T02:05:59Z</time>
      </trkpt>
      <trkpt lat="44.86458" lon="6.49342">
        <ele>1337.4</ele>
        <time>2024-08-12T02:06:00Z</time>
      </trkpt>
      <trkpt lat="44.86456" lon="6.49341">
        <ele>1337.4</ele>
        <time>2024-08-12T02:06:01Z</time>
      </trkpt>
      <trkpt lat="44.86456" lon="6.49341">
        <ele>1337</ele>
        <time>2024-08-12T02:06:02Z</time>
      </trkpt>
      <trkpt lat="44.86456" lon="6.49341">
        <ele>1336.6</ele>
        <time>2024-08-12T02:06:03Z</time>
      </trkpt>
      <trkpt lat="44.86453" lon="6.49339">
        <ele>1336.6</ele>
        <time>2024-08-12T02:06:04Z</time>
      </trkpt>
      <trkpt lat="44.86453" lon="6.49339">
        <ele>1336.4</ele>
        <time>2024-08-12T02:06:05Z</time>
      </trkpt>
      <trkpt lat="44.86451" lon="6.49337">
        <ele>1336.2</ele>
        <time>2024-08-12T02:06:06Z</time>
      </trkpt>
      <trkpt lat="44.86451" lon="6.49337">
        <ele>1336.2</ele>
        <time>2024-08-12T02:06:07Z</time>
      </trkpt>
      <trkpt lat="44.86448" lon="6.49337">
        <ele>1335.8</ele>
        <time>2024-08-12T02:06:08Z</time>
      </trkpt>
      <trkpt lat="44.86448" lon="6.49337">
        <ele>1335.2</ele>
        <time>2024-08-12T02:06:09Z</time>
      </trkpt>
      <trkpt lat="44.86446" lon="6.49335">
        <ele>1335</ele>
        <time>2024-08-12T02:06:10Z</time>
      </trkpt>
      <trkpt lat="44.86446" lon="6.49335">
        <ele>1334.8</ele>
        <time>2024-08-12T02:06:11Z</time>
      </trkpt>
      <trkpt lat="44.86444" lon="6.49332">
        <ele>1334.6</ele>
        <time>2024-08-12T02:06:12Z</time>
      </trkpt>
      <trkpt lat="44.86444" lon="6.49332">
        <ele>1334.2</ele>
        <time>2024-08-12T02:06:13Z</time>
      </trkpt>
      <trkpt lat="44.86442" lon="6.49331">
        <ele>1334</ele>
        <time>2024-08-12T02:06:14Z</time>
      </trkpt>
      <trkpt lat="44.86442" lon="6.49331">
        <ele>1333.8</ele>
        <time>2024-08-12T02:06:15Z</time>
      </trkpt>
      <trkpt lat="44.8644" lon="6.49329">
        <ele>1333.6</ele>
        <time>2024-08-12T02:06:16Z</time>
      </trkpt>
      <trkpt lat="44.8644" lon="6.49329">
        <ele>1333.2</ele>
        <time>2024-08-12T02:06:17Z</time>
      </trkpt>
      <trkpt lat="44.8644" lon="6.49329">
        <ele>1333</ele>
        <time>2024-08-12T02:06:18Z</time>
      </trkpt>
      <trkpt lat="44.86439" lon="6.49327">
        <ele>1332.6</ele>
        <time>2024-08-12T02:06:19Z</time>
      </trkpt>
      <trkpt lat="44.86439" lon="6.49327">
        <ele>1332.4</ele>
        <time>2024-08-12T02:06:20Z</time>
      </trkpt>
      <trkpt lat="44.86436" lon="6.49327">
        <ele>1332</ele>
        <time>2024-08-12T02:06:21Z</time>
      </trkpt>
      <trkpt lat="44.86436" lon="6.49327">
        <ele>1331.6</ele>
        <time>2024-08-12T02:06:22Z</time>
      </trkpt>
      <trkpt lat="44.86433" lon="6.49325">
        <ele>1331.2</ele>
        <time>2024-08-12T02:06:23Z</time>
      </trkpt>
      <trkpt lat="44.86433" lon="6.49325">
        <ele>1330.8</ele>
        <time>2024-08-12T02:06:24Z</time>
      </trkpt>
      <trkpt lat="44.86431" lon="6.49323">
        <ele>1330.6</ele>
        <time>2024-08-12T02:06:25Z</time>
      </trkpt>
      <trkpt lat="44.86431" lon="6.49323">
        <ele>1330.4</ele>
        <time>2024-08-12T02:06:26Z</time>
      </trkpt>
      <trkpt lat="44.86429" lon="6.49321">
        <ele>1330</ele>
        <time>2024-08-12T02:06:27Z</time>
      </trkpt>
      <trkpt lat="44.86429" lon="6.49321">
        <ele>1329.6</ele>
        <time>2024-08-12T02:06:28Z</time>
      </trkpt>
      <trkpt lat="44.86426" lon="6.49319">
        <ele>1329.2</ele>
        <time>2024-08-12T02:06:29Z</time>
      </trkpt>
      <trkpt lat="44.86426" lon="6.49319">
        <ele>1329.2</ele>
        <time>2024-08-12T02:06:30Z</time>
      </trkpt>
      <trkpt lat="44.86423" lon="6.49318">
        <ele>1329</ele>
        <time>2024-08-12T02:06:31Z</time>
      </trkpt>
      <trkpt lat="44.86423" lon="6.49318">
        <ele>1328.8</ele>
        <time>2024-08-12T02:06:32Z</time>
      </trkpt>
      <trkpt lat="44.86423" lon="6.49318">
        <ele>1328.4</ele>
        <time>2024-08-12T02:06:33Z</time>
      </trkpt>
      <trkpt lat="44.86421" lon="6.49317">
        <ele>1328.2</ele>
        <time>2024-08-12T02:06:34Z</time>
      </trkpt>
      <trkpt lat="44.86421" lon="6.49317">
        <ele>1328</ele>
        <time>2024-08-12T02:06:35Z</time>
      </trkpt>
      <trkpt lat="44.86419" lon="6.49317">
        <ele>1327.4</ele>
        <time>2024-08-12T02:06:36Z</time>
      </trkpt>
      <trkpt lat="44.86419" lon="6.49317">
        <ele>1327.2</ele>
        <time>2024-08-12T02:06:37Z</time>
      </trkpt>
      <trkpt lat="44.86416" lon="6.49316">
        <ele>1327</ele>
        <time>2024-08-12T02:06:38Z</time>
      </trkpt>
      <trkpt lat="44.86416" lon="6.49316">
        <ele>1326.8</ele>
        <time>2024-08-12T02:06:39Z</time>
      </trkpt>
      <trkpt lat="44.86413" lon="6.49316">
        <ele>1326.6</ele>
        <time>2024-08-12T02:06:40Z</time>
      </trkpt>
      <trkpt lat="44.86413" lon="6.49316">
        <ele>1326.4</ele>
        <time>2024-08-12T02:06:41Z</time>
      </trkpt>
      <trkpt lat="44.86411" lon="6.49316">
        <ele>1326.4</ele>
        <time>2024-08-12T02:06:42Z</time>
      </trkpt>
      <trkpt lat="44.86411" lon="6.49316">
        <ele>1326.2</ele>
        <time>2024-08-12T02:06:43Z</time>
      </trkpt>
      <trkpt lat="44.86409" lon="6.49317">
        <ele>1326</ele>
        <time>2024-08-12T02:06:44Z</time>
      </trkpt>
      <trkpt lat="44.86409" lon="6.49317">
        <ele>1325.8</ele>
        <time>2024-08-12T02:06:45Z</time>
      </trkpt>
      <trkpt lat="44.86406" lon="6.49317">
        <ele>1325.4</ele>
        <time>2024-08-12T02:06:46Z</time>
      </trkpt>
      <trkpt lat="44.86404" lon="6.49318">
        <ele>1325.4</ele>
        <time>2024-08-12T02:06:47Z</time>
      </trkpt>
      <trkpt lat="44.86402" lon="6.4932">
        <ele>1325.2</ele>
        <time>2024-08-12T02:06:48Z</time>
      </trkpt>
      <trkpt lat="44.86402" lon="6.4932">
        <ele>1325</ele>
        <time>2024-08-12T02:06:49Z</time>
      </trkpt>
      <trkpt lat="44.86399" lon="6.49321">
        <ele>1324.8</ele>
        <time>2024-08-12T02:06:50Z</time>
      </trkpt>
      <trkpt lat="44.86399" lon="6.49321">
        <ele>1324.4</ele>
        <time>2024-08-12T02:06:51Z</time>
      </trkpt>
      <trkpt lat="44.86396" lon="6.49323">
        <ele>1324.4</ele>
        <time>2024-08-12T02:06:52Z</time>
      </trkpt>
      <trkpt lat="44.86396" lon="6.49323">
        <ele>1324</ele>
        <time>2024-08-12T02:06:53Z</time>
      </trkpt>
      <trkpt lat="44.86393" lon="6.49324">
        <ele>1324</ele>
        <time>2024-08-12T02:06:54Z</time>
      </trkpt>
      <trkpt lat="44.86393" lon="6.49324">
        <ele>1323.8</ele>
        <time>2024-08-12T02:06:55Z</time>
      </trkpt>
      <trkpt lat="44.86391" lon="6.49325">
        <ele>1323.6</ele>
        <time>2024-08-12T02:06:56Z</time>
      </trkpt>
      <trkpt lat="44.86391" lon="6.49325">
        <ele>1323.4</ele>
        <time>2024-08-12T02:06:57Z</time>
      </trkpt>
      <trkpt lat="44.86388" lon="6.49327">
        <ele>1323.4</ele>
        <time>2024-08-12T02:06:58Z</time>
      </trkpt>
      <trkpt lat="44.86388" lon="6.49327">
        <ele>1323</ele>
        <time>2024-08-12T02:06:59Z</time>
      </trkpt>
      <trkpt lat="44.86386" lon="6.49329">
        <ele>1322.6</ele>
        <time>2024-08-12T02:07:00Z</time>
      </trkpt>
      <trkpt lat="44.86386" lon="6.49329">
        <ele>1322.6</ele>
        <time>2024-08-12T02:07:01Z</time>
      </trkpt>
      <trkpt lat="44.86386" lon="6.49329">
        <ele>1322.4</ele>
        <time>2024-08-12T02:07:02Z</time>
      </trkpt>
      <trkpt lat="44.86384" lon="6.49331">
        <ele>1322.2</ele>
        <time>2024-08-12T02:07:03Z</time>
      </trkpt>
      <trkpt lat="44.86384" lon="6.49331">
        <ele>1322</ele>
        <time>2024-08-12T02:07:04Z</time>
      </trkpt>
      <trkpt lat="44.86384" lon="6.49331">
        <ele>1321.8</ele>
        <time>2024-08-12T02:07:05Z</time>
      </trkpt>
      <trkpt lat="44.86382" lon="6.49331">
        <ele>1321.6</ele>
        <time>2024-08-12T02:07:06Z</time>
      </trkpt>
      <trkpt lat="44.86382" lon="6.49331">
        <ele>1321.6</ele>
        <time>2024-08-12T02:07:07Z</time>
      </trkpt>
      <trkpt lat="44.8638" lon="6.49334">
        <ele>1321.2</ele>
        <time>2024-08-12T02:07:08Z</time>
      </trkpt>
      <trkpt lat="44.86377" lon="6.49335">
        <ele>1320.8</ele>
        <time>2024-08-12T02:07:09Z</time>
      </trkpt>
      <trkpt lat="44.86377" lon="6.49335">
        <ele>1320.6</ele>
        <time>2024-08-12T02:07:10Z</time>
      </trkpt>
      <trkpt lat="44.86374" lon="6.49336">
        <ele>1320.6</ele>
        <time>2024-08-12T02:07:11Z</time>
      </trkpt>
      <trkpt lat="44.86372" lon="6.49337">
        <ele>1320.4</ele>
        <time>2024-08-12T02:07:12Z</time>
      </trkpt>
      <trkpt lat="44.86372" lon="6.49337">
        <ele>1320.2</ele>
        <time>2024-08-12T02:07:13Z</time>
      </trkpt>
      <trkpt lat="44.8637" lon="6.49338">
        <ele>1319.8</ele>
        <time>2024-08-12T02:07:14Z</time>
      </trkpt>
      <trkpt lat="44.8637" lon="6.49338">
        <ele>1319.6</ele>
        <time>2024-08-12T02:07:15Z</time>
      </trkpt>
      <trkpt lat="44.86367" lon="6.4934">
        <ele>1319.4</ele>
        <time>2024-08-12T02:07:16Z</time>
      </trkpt>
      <trkpt lat="44.86367" lon="6.4934">
        <ele>1319.2</ele>
        <time>2024-08-12T02:07:17Z</time>
      </trkpt>
      <trkpt lat="44.86367" lon="6.4934">
        <ele>1318.8</ele>
        <time>2024-08-12T02:07:18Z</time>
      </trkpt>
      <trkpt lat="44.86365" lon="6.4934">
        <ele>1318.8</ele>
        <time>2024-08-12T02:07:19Z</time>
      </trkpt>
      <trkpt lat="44.86365" lon="6.4934">
        <ele>1318.6</ele>
        <time>2024-08-12T02:07:20Z</time>
      </trkpt>
      <trkpt lat="44.86363" lon="6.4934">
        <ele>1318.4</ele>
        <time>2024-08-12T02:07:21Z</time>
      </trkpt>
      <trkpt lat="44.86363" lon="6.4934">
        <ele>1318.2</ele>
        <time>2024-08-12T02:07:22Z</time>
      </trkpt>
      <trkpt lat="44.8636" lon="6.4934">
        <ele>1318.2</ele>
        <time>2024-08-12T02:07:23Z</time>
      </trkpt>
      <trkpt lat="44.8636" lon="6.4934">
        <ele>1318</ele>
        <time>2024-08-12T02:07:24Z</time>
      </trkpt>
      <trkpt lat="44.8636" lon="6.4934">
        <ele>1317.8</ele>
        <time>2024-08-12T02:07:25Z</time>
      </trkpt>
      <trkpt lat="44.86357" lon="6.49339">
        <ele>1317.6</ele>
        <time>2024-08-12T02:07:26Z</time>
      </trkpt>
      <trkpt lat="44.86357" lon="6.49339">
        <ele>1317.4</ele>
        <time>2024-08-12T02:07:27Z</time>
      </trkpt>
      <trkpt lat="44.86357" lon="6.49339">
        <ele>1317.4</ele>
        <time>2024-08-12T02:07:28Z</time>
      </trkpt>
      <trkpt lat="44.86355" lon="6.4934">
        <ele>1317.2</ele>
        <time>2024-08-12T02:07:29Z</time>
      </trkpt>
      <trkpt lat="44.86355" lon="6.4934">
        <ele>1316.8</ele>
        <time>2024-08-12T02:07:30Z</time>
      </trkpt>
      <trkpt lat="44.86352" lon="6.49339">
        <ele>1316.4</ele>
        <time>2024-08-12T02:07:31Z</time>
      </trkpt>
      <trkpt lat="44.86352" lon="6.49339">
        <ele>1316.4</ele>
        <time>2024-08-12T02:07:32Z</time>
      </trkpt>
      <trkpt lat="44.86349" lon="6.49339">
        <ele>1316.2</ele>
        <time>2024-08-12T02:07:33Z</time>
      </trkpt>
      <trkpt lat="44.86349" lon="6.49339">
        <ele>1315.8</ele>
        <time>2024-08-12T02:07:34Z</time>
      </trkpt>
      <trkpt lat="44.86349" lon="6.49339">
        <ele>1315.6</ele>
        <time>2024-08-12T02:07:35Z</time>
      </trkpt>
      <trkpt lat="44.86347" lon="6.49339">
        <ele>1315.4</ele>
        <time>2024-08-12T02:07:36Z</time>
      </trkpt>
      <trkpt lat="44.86344" lon="6.4934">
        <ele>1315</ele>
        <time>2024-08-12T02:07:37Z</time>
      </trkpt>
      <trkpt lat="44.86341" lon="6.49341">
        <ele>1315</ele>
        <time>2024-08-12T02:07:38Z</time>
      </trkpt>
      <trkpt lat="44.86338" lon="6.49343">
        <ele>1315</ele>
        <time>2024-08-12T02:07:39Z</time>
      </trkpt>
      <trkpt lat="44.86338" lon="6.49343">
        <ele>1315</ele>
        <time>2024-08-12T02:07:40Z</time>
      </trkpt>
      <trkpt lat="44.86336" lon="6.49342">
        <ele>1315</ele>
        <time>2024-08-12T02:07:41Z</time>
      </trkpt>
      <trkpt lat="44.86336" lon="6.49342">
        <ele>1314.8</ele>
        <time>2024-08-12T02:07:42Z</time>
      </trkpt>
      <trkpt lat="44.86333" lon="6.49341">
        <ele>1314.8</ele>
        <time>2024-08-12T02:07:43Z</time>
      </trkpt>
      <trkpt lat="44.86333" lon="6.49341">
        <ele>1314.6</ele>
        <time>2024-08-12T02:07:44Z</time>
      </trkpt>
      <trkpt lat="44.86331" lon="6.4934">
        <ele>1314.4</ele>
        <time>2024-08-12T02:07:45Z</time>
      </trkpt>
      <trkpt lat="44.86331" lon="6.4934">
        <ele>1314.4</ele>
        <time>2024-08-12T02:07:46Z</time>
      </trkpt>
      <trkpt lat="44.86327" lon="6.4934">
        <ele>1314.2</ele>
        <time>2024-08-12T02:07:47Z</time>
      </trkpt>
      <trkpt lat="44.86327" lon="6.4934">
        <ele>1314</ele>
        <time>2024-08-12T02:07:48Z</time>
      </trkpt>
      <trkpt lat="44.86323" lon="6.4934">
        <ele>1313.8</ele>
        <time>2024-08-12T02:07:49Z</time>
      </trkpt>
      <trkpt lat="44.86323" lon="6.4934">
        <ele>1313.8</ele>
        <time>2024-08-12T02:07:50Z</time>
      </trkpt>
      <trkpt lat="44.8632" lon="6.49341">
        <ele>1314</ele>
        <time>2024-08-12T02:07:51Z</time>
      </trkpt>
      <trkpt lat="44.8632" lon="6.49341">
        <ele>1314</ele>
        <time>2024-08-12T02:07:52Z</time>
      </trkpt>
      <trkpt lat="44.86317" lon="6.49341">
        <ele>1314</ele>
        <time>2024-08-12T02:07:53Z</time>
      </trkpt>
      <trkpt lat="44.86317" lon="6.49341">
        <ele>1314</ele>
        <time>2024-08-12T02:07:54Z</time>
      </trkpt>
      <trkpt lat="44.86315" lon="6.49341">
        <ele>1313.8</ele>
        <time>2024-08-12T02:07:55Z</time>
      </trkpt>
      <trkpt lat="44.86313" lon="6.49343">
        <ele>1313.8</ele>
        <time>2024-08-12T02:07:56Z</time>
      </trkpt>
      <trkpt lat="44.86311" lon="6.49344">
        <ele>1313.8</ele>
        <time>2024-08-12T02:07:57Z</time>
      </trkpt>
      <trkpt lat="44.86311" lon="6.49344">
        <ele>1313.6</ele>
        <time>2024-08-12T02:07:58Z</time>
      </trkpt>
      <trkpt lat="44.86308" lon="6.49345">
        <ele>1313.6</ele>
        <time>2024-08-12T02:07:59Z</time>
      </trkpt>
      <trkpt lat="44.86306" lon="6.49345">
        <ele>1313.6</ele>
        <time>2024-08-12T02:08:00Z</time>
      </trkpt>
      <trkpt lat="44.86306" lon="6.49345">
        <ele>1313.6</ele>
        <time>2024-08-12T02:08:01Z</time>
      </trkpt>
      <trkpt lat="44.86303" lon="6.49344">
        <ele>1313.6</ele>
        <time>2024-08-12T02:08:02Z</time>
      </trkpt>
      <trkpt lat="44.86303" lon="6.49344">
        <ele>1313.4</ele>
        <time>2024-08-12T02:08:03Z</time>
      </trkpt>
      <trkpt lat="44.86301" lon="6.49343">
        <ele>1313.2</ele>
        <time>2024-08-12T02:08:04Z</time>
      </trkpt>
      <trkpt lat="44.86301" lon="6.49343">
        <ele>1313</ele>
        <time>2024-08-12T02:08:05Z</time>
      </trkpt>
      <trkpt lat="44.86298" lon="6.49342">
        <ele>1313</ele>
        <time>2024-08-12T02:08:06Z</time>
      </trkpt>
      <trkpt lat="44.86298" lon="6.49342">
        <ele>1312.8</ele>
        <time>2024-08-12T02:08:07Z</time>
      </trkpt>
      <trkpt lat="44.86296" lon="6.49341">
        <ele>1312.8</ele>
        <time>2024-08-12T02:08:08Z</time>
      </trkpt>
      <trkpt lat="44.86296" lon="6.49341">
        <ele>1312.8</ele>
        <time>2024-08-12T02:08:09Z</time>
      </trkpt>
      <trkpt lat="44.86294" lon="6.49341">
        <ele>1312.6</ele>
        <time>2024-08-12T02:08:10Z</time>
      </trkpt>
      <trkpt lat="44.86294" lon="6.49341">
        <ele>1312.4</ele>
        <time>2024-08-12T02:08:11Z</time>
      </trkpt>
      <trkpt lat="44.86292" lon="6.49339">
        <ele>1312</ele>
        <time>2024-08-12T02:08:12Z</time>
      </trkpt>
      <trkpt lat="44.86292" lon="6.49339">
        <ele>1312</ele>
        <time>2024-08-12T02:08:13Z</time>
      </trkpt>
      <trkpt lat="44.8629" lon="6.49339">
        <ele>1312</ele>
        <time>2024-08-12T02:08:14Z</time>
      </trkpt>
      <trkpt lat="44.8629" lon="6.49339">
        <ele>1311.6</ele>
        <time>2024-08-12T02:08:15Z</time>
      </trkpt>
      <trkpt lat="44.86286" lon="6.49339">
        <ele>1311.6</ele>
        <time>2024-08-12T02:08:16Z</time>
      </trkpt>
      <trkpt lat="44.86286" lon="6.49339">
        <ele>1311.4</ele>
        <time>2024-08-12T02:08:17Z</time>
      </trkpt>
      <trkpt lat="44.86284" lon="6.49338">
        <ele>1311.2</ele>
        <time>2024-08-12T02:08:18Z</time>
      </trkpt>
      <trkpt lat="44.86284" lon="6.49338">
        <ele>1311</ele>
        <time>2024-08-12T02:08:19Z</time>
      </trkpt>
      <trkpt lat="44.86282" lon="6.49337">
        <ele>1311</ele>
        <time>2024-08-12T02:08:20Z</time>
      </trkpt>
      <trkpt lat="44.8628" lon="6.49337">
        <ele>1311</ele>
        <time>2024-08-12T02:08:21Z</time>
      </trkpt>
      <trkpt lat="44.8628" lon="6.49337">
        <ele>1311</ele>
        <time>2024-08-12T02:08:22Z</time>
      </trkpt>
      <trkpt lat="44.86277" lon="6.49336">
        <ele>1310.6</ele>
        <time>2024-08-12T02:08:23Z</time>
      </trkpt>
      <trkpt lat="44.86277" lon="6.49336">
        <ele>1310.4</ele>
        <time>2024-08-12T02:08:24Z</time>
      </trkpt>
      <trkpt lat="44.86274" lon="6.49336">
        <ele>1310.2</ele>
        <time>2024-08-12T02:08:25Z</time>
      </trkpt>
      <trkpt lat="44.86274" lon="6.49336">
        <ele>1310.2</ele>
        <time>2024-08-12T02:08:26Z</time>
      </trkpt>
      <trkpt lat="44.86272" lon="6.49337">
        <ele>1310.2</ele>
        <time>2024-08-12T02:08:27Z</time>
      </trkpt>
      <trkpt lat="44.86272" lon="6.49337">
        <ele>1310</ele>
        <time>2024-08-12T02:08:28Z</time>
      </trkpt>
      <trkpt lat="44.86268" lon="6.49337">
        <ele>1309.6</ele>
        <time>2024-08-12T02:08:29Z</time>
      </trkpt>
      <trkpt lat="44.86268" lon="6.49337">
        <ele>1309.4</ele>
        <time>2024-08-12T02:08:30Z</time>
      </trkpt>
      <trkpt lat="44.86265" lon="6.49336">
        <ele>1309.4</ele>
        <time>2024-08-12T02:08:31Z</time>
      </trkpt>
      <trkpt lat="44.86265" lon="6.49336">
        <ele>1309.2</ele>
        <time>2024-08-12T02:08:32Z</time>
      </trkpt>
      <trkpt lat="44.86263" lon="6.49336">
        <ele>1309</ele>
        <time>2024-08-12T02:08:33Z</time>
      </trkpt>
      <trkpt lat="44.86263" lon="6.49336">
        <ele>1308.8</ele>
        <time>2024-08-12T02:08:34Z</time>
      </trkpt>
      <trkpt lat="44.86261" lon="6.49336">
        <ele>1308.8</ele>
        <time>2024-08-12T02:08:35Z</time>
      </trkpt>
      <trkpt lat="44.86261" lon="6.49336">
        <ele>1308.8</ele>
        <time>2024-08-12T02:08:36Z</time>
      </trkpt>
      <trkpt lat="44.86258" lon="6.49336">
        <ele>1308.6</ele>
        <time>2024-08-12T02:08:37Z</time>
      </trkpt>
      <trkpt lat="44.86258" lon="6.49336">
        <ele>1308.4</ele>
        <time>2024-08-12T02:08:38Z</time>
      </trkpt>
      <trkpt lat="44.86255" lon="6.49336">
        <ele>1308.4</ele>
        <time>2024-08-12T02:08:39Z</time>
      </trkpt>
      <trkpt lat="44.86255" lon="6.49336">
        <ele>1308.2</ele>
        <time>2024-08-12T02:08:40Z</time>
      </trkpt>
      <trkpt lat="44.86255" lon="6.49336">
        <ele>1308.2</ele>
        <time>2024-08-12T02:08:41Z</time>
      </trkpt>
      <trkpt lat="44.86252" lon="6.49337">
        <ele>1308.2</ele>
        <time>2024-08-12T02:08:42Z</time>
      </trkpt>
      <trkpt lat="44.86252" lon="6.49337">
        <ele>1308</ele>
        <time>2024-08-12T02:08:43Z</time>
      </trkpt>
      <trkpt lat="44.86249" lon="6.49337">
        <ele>1307.8</ele>
        <time>2024-08-12T02:08:44Z</time>
      </trkpt>
      <trkpt lat="44.86247" lon="6.49338">
        <ele>1307.8</ele>
        <time>2024-08-12T02:08:45Z</time>
      </trkpt>
      <trkpt lat="44.86247" lon="6.49338">
        <ele>1307.8</ele>
        <time>2024-08-12T02:08:46Z</time>
      </trkpt>
      <trkpt lat="44.86244" lon="6.49338">
        <ele>1307.8</ele>
        <time>2024-08-12T02:08:47Z</time>
      </trkpt>
      <trkpt lat="44.86244" lon="6.49338">
        <ele>1307.8</ele>
        <time>2024-08-12T02:08:48Z</time>
      </trkpt>
      <trkpt lat="44.86242" lon="6.49338">
        <ele>1307.8</ele>
        <time>2024-08-12T02:08:49Z</time>
      </trkpt>
      <trkpt lat="44.86242" lon="6.49338">
        <ele>1307.6</ele>
        <time>2024-08-12T02:08:50Z</time>
      </trkpt>
      <trkpt lat="44.86239" lon="6.49337">
        <ele>1307.6</ele>
        <time>2024-08-12T02:08:51Z</time>
      </trkpt>
      <trkpt lat="44.86239" lon="6.49337">
        <ele>1307.6</ele>
        <time>2024-08-12T02:08:52Z</time>
      </trkpt>
      <trkpt lat="44.86236" lon="6.49336">
        <ele>1307.6</ele>
        <time>2024-08-12T02:08:53Z</time>
      </trkpt>
      <trkpt lat="44.86236" lon="6.49336">
        <ele>1307.6</ele>
        <time>2024-08-12T02:08:54Z</time>
      </trkpt>
      <trkpt lat="44.86234" lon="6.49335">
        <ele>1307.6</ele>
        <time>2024-08-12T02:08:55Z</time>
      </trkpt>
      <trkpt lat="44.86234" lon="6.49335">
        <ele>1307.6</ele>
        <time>2024-08-12T02:08:56Z</time>
      </trkpt>
      <trkpt lat="44.86231" lon="6.49334">
        <ele>1307.4</ele>
        <time>2024-08-12T02:08:57Z</time>
      </trkpt>
      <trkpt lat="44.86231" lon="6.49334">
        <ele>1307.4</ele>
        <time>2024-08-12T02:08:58Z</time>
      </trkpt>
      <trkpt lat="44.86228" lon="6.49333">
        <ele>1307.2</ele>
        <time>2024-08-12T02:08:59Z</time>
      </trkpt>
      <trkpt lat="44.86226" lon="6.49334">
        <ele>1307</ele>
        <time>2024-08-12T02:09:00Z</time>
      </trkpt>
      <trkpt lat="44.86226" lon="6.49334">
        <ele>1307</ele>
        <time>2024-08-12T02:09:01Z</time>
      </trkpt>
      <trkpt lat="44.86223" lon="6.49334">
        <ele>1306.8</ele>
        <time>2024-08-12T02:09:02Z</time>
      </trkpt>
      <trkpt lat="44.86221" lon="6.49334">
        <ele>1306.6</ele>
        <time>2024-08-12T02:09:03Z</time>
      </trkpt>
      <trkpt lat="44.86221" lon="6.49334">
        <ele>1306.6</ele>
        <time>2024-08-12T02:09:04Z</time>
      </trkpt>
      <trkpt lat="44.86218" lon="6.49332">
        <ele>1306.6</ele>
        <time>2024-08-12T02:09:05Z</time>
      </trkpt>
      <trkpt lat="44.86218" lon="6.49332">
        <ele>1306.6</ele>
        <time>2024-08-12T02:09:06Z</time>
      </trkpt>
      <trkpt lat="44.86216" lon="6.49332">
        <ele>1306.4</ele>
        <time>2024-08-12T02:09:07Z</time>
      </trkpt>
      <trkpt lat="44.86216" lon="6.49332">
        <ele>1306.4</ele>
        <time>2024-08-12T02:09:08Z</time>
      </trkpt>
      <trkpt lat="44.86213" lon="6.4933">
        <ele>1306.4</ele>
        <time>2024-08-12T02:09:09Z</time>
      </trkpt>
      <trkpt lat="44.86213" lon="6.4933">
        <ele>1306.2</ele>
        <time>2024-08-12T02:09:10Z</time>
      </trkpt>
      <trkpt lat="44.8621" lon="6.49329">
        <ele>1306.2</ele>
        <time>2024-08-12T02:09:11Z</time>
      </trkpt>
      <trkpt lat="44.86208" lon="6.49329">
        <ele>1306</ele>
        <time>2024-08-12T02:09:12Z</time>
      </trkpt>
      <trkpt lat="44.86208" lon="6.49329">
        <ele>1306</ele>
        <time>2024-08-12T02:09:13Z</time>
      </trkpt>
      <trkpt lat="44.86206" lon="6.4933">
        <ele>1305.8</ele>
        <time>2024-08-12T02:09:14Z</time>
      </trkpt>
      <trkpt lat="44.86206" lon="6.4933">
        <ele>1305.6</ele>
        <time>2024-08-12T02:09:15Z</time>
      </trkpt>
      <trkpt lat="44.86203" lon="6.4933">
        <ele>1305.6</ele>
        <time>2024-08-12T02:09:16Z</time>
      </trkpt>
      <trkpt lat="44.86203" lon="6.4933">
        <ele>1305.4</ele>
        <time>2024-08-12T02:09:17Z</time>
      </trkpt>
      <trkpt lat="44.862" lon="6.49331">
        <ele>1305.6</ele>
        <time>2024-08-12T02:09:18Z</time>
      </trkpt>
      <trkpt lat="44.862" lon="6.49331">
        <ele>1305.6</ele>
        <time>2024-08-12T02:09:19Z</time>
      </trkpt>
      <trkpt lat="44.86198" lon="6.49329">
        <ele>1305.6</ele>
        <time>2024-08-12T02:09:20Z</time>
      </trkpt>
      <trkpt lat="44.86198" lon="6.49329">
        <ele>1305.4</ele>
        <time>2024-08-12T02:09:21Z</time>
      </trkpt>
      <trkpt lat="44.86197" lon="6.49329">
        <ele>1305.4</ele>
        <time>2024-08-12T02:09:22Z</time>
      </trkpt>
      <trkpt lat="44.86197" lon="6.49329">
        <ele>1305.4</ele>
        <time>2024-08-12T02:09:23Z</time>
      </trkpt>
      <trkpt lat="44.86194" lon="6.49329">
        <ele>1305.4</ele>
        <time>2024-08-12T02:09:24Z</time>
      </trkpt>
      <trkpt lat="44.86194" lon="6.49329">
        <ele>1305.2</ele>
        <time>2024-08-12T02:09:25Z</time>
      </trkpt>
      <trkpt lat="44.86192" lon="6.4933">
        <ele>1305</ele>
        <time>2024-08-12T02:09:26Z</time>
      </trkpt>
      <trkpt lat="44.86192" lon="6.4933">
        <ele>1304.8</ele>
        <time>2024-08-12T02:09:27Z</time>
      </trkpt>
      <trkpt lat="44.86189" lon="6.49331">
        <ele>1304.8</ele>
        <time>2024-08-12T02:09:28Z</time>
      </trkpt>
      <trkpt lat="44.86189" lon="6.49331">
        <ele>1304.8</ele>
        <time>2024-08-12T02:09:29Z</time>
      </trkpt>
      <trkpt lat="44.86187" lon="6.49333">
        <ele>1304.8</ele>
        <time>2024-08-12T02:09:30Z</time>
      </trkpt>
      <trkpt lat="44.86187" lon="6.49333">
        <ele>1304.6</ele>
        <time>2024-08-12T02:09:31Z</time>
      </trkpt>
      <trkpt lat="44.86184" lon="6.49333">
        <ele>1304.6</ele>
        <time>2024-08-12T02:09:32Z</time>
      </trkpt>
      <trkpt lat="44.86184" lon="6.49333">
        <ele>1304.6</ele>
        <time>2024-08-12T02:09:33Z</time>
      </trkpt>
      <trkpt lat="44.86182" lon="6.49334">
        <ele>1304.4</ele>
        <time>2024-08-12T02:09:34Z</time>
      </trkpt>
      <trkpt lat="44.86182" lon="6.49334">
        <ele>1304.2</ele>
        <time>2024-08-12T02:09:35Z</time>
      </trkpt>
      <trkpt lat="44.8618" lon="6.49335">
        <ele>1304.2</ele>
        <time>2024-08-12T02:09:36Z</time>
      </trkpt>
      <trkpt lat="44.8618" lon="6.49335">
        <ele>1304.2</ele>
        <time>2024-08-12T02:09:37Z</time>
      </trkpt>
      <trkpt lat="44.86178" lon="6.49335">
        <ele>1304</ele>
        <time>2024-08-12T02:09:38Z</time>
      </trkpt>
      <trkpt lat="44.86178" lon="6.49335">
        <ele>1303.8</ele>
        <time>2024-08-12T02:09:39Z</time>
      </trkpt>
      <trkpt lat="44.86175" lon="6.49338">
        <ele>1303.4</ele>
        <time>2024-08-12T02:09:40Z</time>
      </trkpt>
      <trkpt lat="44.86175" lon="6.49338">
        <ele>1303.4</ele>
        <time>2024-08-12T02:09:41Z</time>
      </trkpt>
      <trkpt lat="44.86172" lon="6.49339">
        <ele>1303.4</ele>
        <time>2024-08-12T02:09:42Z</time>
      </trkpt>
      <trkpt lat="44.86172" lon="6.49339">
        <ele>1303.4</ele>
        <time>2024-08-12T02:09:43Z</time>
      </trkpt>
      <trkpt lat="44.86169" lon="6.49341">
        <ele>1303.2</ele>
        <time>2024-08-12T02:09:44Z</time>
      </trkpt>
      <trkpt lat="44.86167" lon="6.49343">
        <ele>1302.8</ele>
        <time>2024-08-12T02:09:45Z</time>
      </trkpt>
      <trkpt lat="44.86167" lon="6.49343">
        <ele>1302.6</ele>
        <time>2024-08-12T02:09:46Z</time>
      </trkpt>
      <trkpt lat="44.86164" lon="6.49345">
        <ele>1302.6</ele>
        <time>2024-08-12T02:09:47Z</time>
      </trkpt>
      <trkpt lat="44.86164" lon="6.49345">
        <ele>1302.4</ele>
        <time>2024-08-12T02:09:48Z</time>
      </trkpt>
      <trkpt lat="44.86161" lon="6.49346">
        <ele>1302.4</ele>
        <time>2024-08-12T02:09:49Z</time>
      </trkpt>
      <trkpt lat="44.86159" lon="6.49346">
        <ele>1302.2</ele>
        <time>2024-08-12T02:09:50Z</time>
      </trkpt>
      <trkpt lat="44.86156" lon="6.49349">
        <ele>1302.2</ele>
        <time>2024-08-12T02:09:51Z</time>
      </trkpt>
      <trkpt lat="44.86154" lon="6.4935">
        <ele>1302.2</ele>
        <time>2024-08-12T02:09:52Z</time>
      </trkpt>
      <trkpt lat="44.86154" lon="6.4935">
        <ele>1302.2</ele>
        <time>2024-08-12T02:09:53Z</time>
      </trkpt>
      <trkpt lat="44.86153" lon="6.49349">
        <ele>1302</ele>
        <time>2024-08-12T02:09:54Z</time>
      </trkpt>
      <trkpt lat="44.86153" lon="6.49349">
        <ele>1301.8</ele>
        <time>2024-08-12T02:09:55Z</time>
      </trkpt>
      <trkpt lat="44.8615" lon="6.49349">
        <ele>1301.6</ele>
        <time>2024-08-12T02:09:56Z</time>
      </trkpt>
      <trkpt lat="44.8615" lon="6.49349">
        <ele>1301.6</ele>
        <time>2024-08-12T02:09:57Z</time>
      </trkpt>
      <trkpt lat="44.8615" lon="6.49349">
        <ele>1301.4</ele>
        <time>2024-08-12T02:09:58Z</time>
      </trkpt>
      <trkpt lat="44.86148" lon="6.49348">
        <ele>1301.2</ele>
        <time>2024-08-12T02:09:59Z</time>
      </trkpt>
      <trkpt lat="44.86148" lon="6.49348">
        <ele>1301</ele>
        <time>2024-08-12T02:10:00Z</time>
      </trkpt>
      <trkpt lat="44.86146" lon="6.49347">
        <ele>1301</ele>
        <time>2024-08-12T02:10:01Z</time>
      </trkpt>
      <trkpt lat="44.86146" lon="6.49347">
        <ele>1300.6</ele>
        <time>2024-08-12T02:10:02Z</time>
      </trkpt>
      <trkpt lat="44.86143" lon="6.49347">
        <ele>1300.6</ele>
        <time>2024-08-12T02:10:03Z</time>
      </trkpt>
      <trkpt lat="44.86143" lon="6.49347">
        <ele>1300.4</ele>
        <time>2024-08-12T02:10:04Z</time>
      </trkpt>
      <trkpt lat="44.86141" lon="6.49346">
        <ele>1300.4</ele>
        <time>2024-08-12T02:10:05Z</time>
      </trkpt>
      <trkpt lat="44.86139" lon="6.49345">
        <ele>1299.4</ele>
        <time>2024-08-12T02:10:07Z</time>
      </trkpt>
      <trkpt lat="44.86139" lon="6.49345">
        <ele>1299.4</ele>
        <time>2024-08-12T02:10:08Z</time>
      </trkpt>
      <trkpt lat="44.86139" lon="6.49345">
        <ele>1299.6</ele>
        <time>2024-08-12T02:10:09Z</time>
      </trkpt>
      <trkpt lat="44.86139" lon="6.49345">
        <ele>1299.6</ele>
        <time>2024-08-12T02:10:10Z</time>
      </trkpt>
      <trkpt lat="44.86139" lon="6.49345">
        <ele>1299.8</ele>
        <time>2024-08-12T02:10:11Z</time>
      </trkpt>
      <trkpt lat="44.86139" lon="6.49345">
        <ele>1299.8</ele>
        <time>2024-08-12T02:10:12Z</time>
      </trkpt>
      <trkpt lat="44.86139" lon="6.49345">
        <ele>1299.8</ele>
        <time>2024-08-12T02:10:13Z</time>
      </trkpt>
      <trkpt lat="44.86139" lon="6.49345">
        <ele>1299.8</ele>
        <time>2024-08-12T02:10:14Z</time>
      </trkpt>
      <trkpt lat="44.86139" lon="6.49345">
        <ele>1299.8</ele>
        <time>2024-08-12T02:10:15Z</time>
      </trkpt>
      <trkpt lat="44.86139" lon="6.49345">
        <ele>1299.8</ele>
        <time>2024-08-12T02:10:16Z</time>
      </trkpt>
      <trkpt lat="44.86139" lon="6.49345">
        <ele>1299.8</ele>
        <time>2024-08-12T02:10:17Z</time>
      </trkpt>
      <trkpt lat="44.86139" lon="6.49345">
        <ele>1299.8</ele>
        <time>2024-08-12T02:10:18Z</time>
      </trkpt>
      <trkpt lat="44.86139" lon="6.49345">
        <ele>1299.8</ele>
        <time>2024-08-12T02:10:19Z</time>
      </trkpt>
      <trkpt lat="44.86139" lon="6.49345">
        <ele>1299.6</ele>
        <time>2024-08-12T02:10:20Z</time>
      </trkpt>
      <trkpt lat="44.86139" lon="6.49345">
        <ele>1299.2</ele>
        <time>2024-08-12T02:10:21Z</time>
      </trkpt>
      <trkpt lat="44.86139" lon="6.49345">
        <ele>1299</ele>
        <time>2024-08-12T02:10:22Z</time>
      </trkpt>
      <trkpt lat="44.86139" lon="6.49345">
        <ele>1298.8</ele>
        <time>2024-08-12T02:10:23Z</time>
      </trkpt>
      <trkpt lat="44.86137" lon="6.49345">
        <ele>1298.6</ele>
        <time>2024-08-12T02:10:24Z</time>
      </trkpt>
      <trkpt lat="44.86134" lon="6.49345">
        <ele>1298.4</ele>
        <time>2024-08-12T02:10:25Z</time>
      </trkpt>
      <trkpt lat="44.86132" lon="6.49346">
        <ele>1298</ele>
        <time>2024-08-12T02:10:26Z</time>
      </trkpt>
      <trkpt lat="44.8613" lon="6.49346">
        <ele>1297.6</ele>
        <time>2024-08-12T02:10:27Z</time>
      </trkpt>
      <trkpt lat="44.8613" lon="6.49346">
        <ele>1297.2</ele>
        <time>2024-08-12T02:10:28Z</time>
      </trkpt>
      <trkpt lat="44.86127" lon="6.49346">
        <ele>1297</ele>
        <time>2024-08-12T02:10:29Z</time>
      </trkpt>
      <trkpt lat="44.86127" lon="6.49346">
        <ele>1296.8</ele>
        <time>2024-08-12T02:10:30Z</time>
      </trkpt>
      <trkpt lat="44.86125" lon="6.49345">
        <ele>1296.6</ele>
        <time>2024-08-12T02:10:31Z</time>
      </trkpt>
      <trkpt lat="44.86123" lon="6.49346">
        <ele>1296</ele>
        <time>2024-08-12T02:10:32Z</time>
      </trkpt>
      <trkpt lat="44.86121" lon="6.49347">
        <ele>1295.8</ele>
        <time>2024-08-12T02:10:33Z</time>
      </trkpt>
      <trkpt lat="44.86119" lon="6.49347">
        <ele>1295.4</ele>
        <time>2024-08-12T02:10:34Z</time>
      </trkpt>
      <trkpt lat="44.86119" lon="6.49347">
        <ele>1295.2</ele>
        <time>2024-08-12T02:10:35Z</time>
      </trkpt>
      <trkpt lat="44.86117" lon="6.49349">
        <ele>1295</ele>
        <time>2024-08-12T02:10:36Z</time>
      </trkpt>
      <trkpt lat="44.86117" lon="6.49349">
        <ele>1294.6</ele>
        <time>2024-08-12T02:10:37Z</time>
      </trkpt>
      <trkpt lat="44.86114" lon="6.4935">
        <ele>1294.4</ele>
        <time>2024-08-12T02:10:38Z</time>
      </trkpt>
      <trkpt lat="44.86114" lon="6.4935">
        <ele>1294.2</ele>
        <time>2024-08-12T02:10:39Z</time>
      </trkpt>
      <trkpt lat="44.86111" lon="6.49352">
        <ele>1294</ele>
        <time>2024-08-12T02:10:40Z</time>
      </trkpt>
      <trkpt lat="44.86111" lon="6.49352">
        <ele>1293.6</ele>
        <time>2024-08-12T02:10:41Z</time>
      </trkpt>
      <trkpt lat="44.86109" lon="6.49353">
        <ele>1293.4</ele>
        <time>2024-08-12T02:10:42Z</time>
      </trkpt>
      <trkpt lat="44.86109" lon="6.49353">
        <ele>1293.2</ele>
        <time>2024-08-12T02:10:43Z</time>
      </trkpt>
      <trkpt lat="44.86109" lon="6.49353">
        <ele>1293.2</ele>
        <time>2024-08-12T02:10:44Z</time>
      </trkpt>
      <trkpt lat="44.86107" lon="6.49354">
        <ele>1293.2</ele>
        <time>2024-08-12T02:10:45Z</time>
      </trkpt>
      <trkpt lat="44.86107" lon="6.49354">
        <ele>1293</ele>
        <time>2024-08-12T02:10:46Z</time>
      </trkpt>
      <trkpt lat="44.86105" lon="6.49353">
        <ele>1292.6</ele>
        <time>2024-08-12T02:10:47Z</time>
      </trkpt>
      <trkpt lat="44.86105" lon="6.49353">
        <ele>1292.6</ele>
        <time>2024-08-12T02:10:48Z</time>
      </trkpt>
      <trkpt lat="44.86105" lon="6.49353">
        <ele>1292.2</ele>
        <time>2024-08-12T02:10:49Z</time>
      </trkpt>
      <trkpt lat="44.86105" lon="6.49353">
        <ele>1292.2</ele>
        <time>2024-08-12T02:10:50Z</time>
      </trkpt>
      <trkpt lat="44.86105" lon="6.49353">
        <ele>1292.2</ele>
        <time>2024-08-12T02:10:51Z</time>
      </trkpt>
      <trkpt lat="44.86104" lon="6.49351">
        <ele>1292.2</ele>
        <time>2024-08-12T02:10:52Z</time>
      </trkpt>
      <trkpt lat="44.86104" lon="6.49351">
        <ele>1292</ele>
        <time>2024-08-12T02:10:53Z</time>
      </trkpt>
      <trkpt lat="44.86105" lon="6.49348">
        <ele>1292</ele>
        <time>2024-08-12T02:10:54Z</time>
      </trkpt>
      <trkpt lat="44.86105" lon="6.49348">
        <ele>1291.8</ele>
        <time>2024-08-12T02:10:55Z</time>
      </trkpt>
      <trkpt lat="44.86105" lon="6.49345">
        <ele>1291.8</ele>
        <time>2024-08-12T02:10:56Z</time>
      </trkpt>
      <trkpt lat="44.86105" lon="6.49345">
        <ele>1291.6</ele>
        <time>2024-08-12T02:10:57Z</time>
      </trkpt>
      <trkpt lat="44.86107" lon="6.49343">
        <ele>1291.4</ele>
        <time>2024-08-12T02:10:58Z</time>
      </trkpt>
      <trkpt lat="44.86107" lon="6.49343">
        <ele>1291.4</ele>
        <time>2024-08-12T02:10:59Z</time>
      </trkpt>
      <trkpt lat="44.86109" lon="6.49341">
        <ele>1291.4</ele>
        <time>2024-08-12T02:11:00Z</time>
      </trkpt>
      <trkpt lat="44.86109" lon="6.49341">
        <ele>1291.4</ele>
        <time>2024-08-12T02:11:01Z</time>
      </trkpt>
      <trkpt lat="44.86109" lon="6.49341">
        <ele>1291.2</ele>
        <time>2024-08-12T02:11:02Z</time>
      </trkpt>
      <trkpt lat="44.8611" lon="6.49338">
        <ele>1291.2</ele>
        <time>2024-08-12T02:11:03Z</time>
      </trkpt>
      <trkpt lat="44.8611" lon="6.49338">
        <ele>1291.2</ele>
        <time>2024-08-12T02:11:04Z</time>
      </trkpt>
      <trkpt lat="44.86112" lon="6.49336">
        <ele>1291</ele>
        <time>2024-08-12T02:11:05Z</time>
      </trkpt>
      <trkpt lat="44.86112" lon="6.49336">
        <ele>1290.8</ele>
        <time>2024-08-12T02:11:06Z</time>
      </trkpt>
      <trkpt lat="44.86113" lon="6.49332">
        <ele>1290.8</ele>
        <time>2024-08-12T02:11:07Z</time>
      </trkpt>
      <trkpt lat="44.86113" lon="6.49332">
        <ele>1290.6</ele>
        <time>2024-08-12T02:11:08Z</time>
      </trkpt>
      <trkpt lat="44.86115" lon="6.49329">
        <ele>1290.2</ele>
        <time>2024-08-12T02:11:09Z</time>
      </trkpt>
      <trkpt lat="44.86117" lon="6.49327">
        <ele>1290.2</ele>
        <time>2024-08-12T02:11:10Z</time>
      </trkpt>
      <trkpt lat="44.86117" lon="6.49327">
        <ele>1290.2</ele>
        <time>2024-08-12T02:11:11Z</time>
      </trkpt>
      <trkpt lat="44.86118" lon="6.49323">
        <ele>1290.2</ele>
        <time>2024-08-12T02:11:12Z</time>
      </trkpt>
      <trkpt lat="44.86118" lon="6.49323">
        <ele>1290</ele>
        <time>2024-08-12T02:11:13Z</time>
      </trkpt>
      <trkpt lat="44.86119" lon="6.49319">
        <ele>1289.8</ele>
        <time>2024-08-12T02:11:14Z</time>
      </trkpt>
      <trkpt lat="44.86119" lon="6.49319">
        <ele>1289.6</ele>
        <time>2024-08-12T02:11:15Z</time>
      </trkpt>
      <trkpt lat="44.86121" lon="6.49315">
        <ele>1289.6</ele>
        <time>2024-08-12T02:11:16Z</time>
      </trkpt>
      <trkpt lat="44.86121" lon="6.49315">
        <ele>1289.4</ele>
        <time>2024-08-12T02:11:17Z</time>
      </trkpt>
      <trkpt lat="44.86123" lon="6.49311">
        <ele>1289.4</ele>
        <time>2024-08-12T02:11:18Z</time>
      </trkpt>
      <trkpt lat="44.86123" lon="6.49311">
        <ele>1289</ele>
        <time>2024-08-12T02:11:19Z</time>
      </trkpt>
      <trkpt lat="44.86125" lon="6.49307">
        <ele>1289</ele>
        <time>2024-08-12T02:11:20Z</time>
      </trkpt>
      <trkpt lat="44.86125" lon="6.49307">
        <ele>1288.8</ele>
        <time>2024-08-12T02:11:21Z</time>
      </trkpt>
      <trkpt lat="44.86126" lon="6.49303">
        <ele>1288.8</ele>
        <time>2024-08-12T02:11:22Z</time>
      </trkpt>
      <trkpt lat="44.86126" lon="6.49303">
        <ele>1288.4</ele>
        <time>2024-08-12T02:11:23Z</time>
      </trkpt>
      <trkpt lat="44.86128" lon="6.493">
        <ele>1288.2</ele>
        <time>2024-08-12T02:11:24Z</time>
      </trkpt>
      <trkpt lat="44.86128" lon="6.493">
        <ele>1288.2</ele>
        <time>2024-08-12T02:11:25Z</time>
      </trkpt>
      <trkpt lat="44.86129" lon="6.49296">
        <ele>1288.2</ele>
        <time>2024-08-12T02:11:26Z</time>
      </trkpt>
      <trkpt lat="44.86129" lon="6.49296">
        <ele>1288</ele>
        <time>2024-08-12T02:11:27Z</time>
      </trkpt>
      <trkpt lat="44.86131" lon="6.49293">
        <ele>1287.8</ele>
        <time>2024-08-12T02:11:28Z</time>
      </trkpt>
      <trkpt lat="44.86131" lon="6.49293">
        <ele>1287.8</ele>
        <time>2024-08-12T02:11:29Z</time>
      </trkpt>
      <trkpt lat="44.86133" lon="6.4929">
        <ele>1287.6</ele>
        <time>2024-08-12T02:11:30Z</time>
      </trkpt>
      <trkpt lat="44.86133" lon="6.4929">
        <ele>1287.4</ele>
        <time>2024-08-12T02:11:31Z</time>
      </trkpt>
      <trkpt lat="44.86135" lon="6.49286">
        <ele>1287.4</ele>
        <time>2024-08-12T02:11:32Z</time>
      </trkpt>
      <trkpt lat="44.86136" lon="6.49285">
        <ele>1287.2</ele>
        <time>2024-08-12T02:11:33Z</time>
      </trkpt>
      <trkpt lat="44.86136" lon="6.49285">
        <ele>1287</ele>
        <time>2024-08-12T02:11:34Z</time>
      </trkpt>
      <trkpt lat="44.86138" lon="6.49281">
        <ele>1287</ele>
        <time>2024-08-12T02:11:35Z</time>
      </trkpt>
      <trkpt lat="44.86138" lon="6.49281">
        <ele>1286.8</ele>
        <time>2024-08-12T02:11:36Z</time>
      </trkpt>
      <trkpt lat="44.8614" lon="6.49277">
        <ele>1286.8</ele>
        <time>2024-08-12T02:11:37Z</time>
      </trkpt>
      <trkpt lat="44.8614" lon="6.49277">
        <ele>1286.8</ele>
        <time>2024-08-12T02:11:38Z</time>
      </trkpt>
      <trkpt lat="44.86142" lon="6.49273">
        <ele>1286.8</ele>
        <time>2024-08-12T02:11:39Z</time>
      </trkpt>
      <trkpt lat="44.86142" lon="6.49273">
        <ele>1286.4</ele>
        <time>2024-08-12T02:11:40Z</time>
      </trkpt>
      <trkpt lat="44.86144" lon="6.49269">
        <ele>1286.2</ele>
        <time>2024-08-12T02:11:41Z</time>
      </trkpt>
      <trkpt lat="44.86144" lon="6.49269">
        <ele>1286.2</ele>
        <time>2024-08-12T02:11:42Z</time>
      </trkpt>
      <trkpt lat="44.86145" lon="6.49265">
        <ele>1286.2</ele>
        <time>2024-08-12T02:11:43Z</time>
      </trkpt>
      <trkpt lat="44.86145" lon="6.49265">
        <ele>1285.8</ele>
        <time>2024-08-12T02:11:44Z</time>
      </trkpt>
      <trkpt lat="44.86147" lon="6.49261">
        <ele>1285.6</ele>
        <time>2024-08-12T02:11:45Z</time>
      </trkpt>
      <trkpt lat="44.86147" lon="6.49261">
        <ele>1285.6</ele>
        <time>2024-08-12T02:11:46Z</time>
      </trkpt>
      <trkpt lat="44.86148" lon="6.49257">
        <ele>1285.4</ele>
        <time>2024-08-12T02:11:47Z</time>
      </trkpt>
      <trkpt lat="44.86148" lon="6.49257">
        <ele>1285.4</ele>
        <time>2024-08-12T02:11:48Z</time>
      </trkpt>
      <trkpt lat="44.86149" lon="6.49253">
        <ele>1285.4</ele>
        <time>2024-08-12T02:11:49Z</time>
      </trkpt>
      <trkpt lat="44.86149" lon="6.49253">
        <ele>1285.4</ele>
        <time>2024-08-12T02:11:50Z</time>
      </trkpt>
      <trkpt lat="44.8615" lon="6.49249">
        <ele>1285.4</ele>
        <time>2024-08-12T02:11:51Z</time>
      </trkpt>
      <trkpt lat="44.8615" lon="6.49249">
        <ele>1285.2</ele>
        <time>2024-08-12T02:11:52Z</time>
      </trkpt>
      <trkpt lat="44.86151" lon="6.49246">
        <ele>1285</ele>
        <time>2024-08-12T02:11:53Z</time>
      </trkpt>
      <trkpt lat="44.86151" lon="6.49246">
        <ele>1284.8</ele>
        <time>2024-08-12T02:11:54Z</time>
      </trkpt>
      <trkpt lat="44.86151" lon="6.49246">
        <ele>1284.8</ele>
        <time>2024-08-12T02:11:55Z</time>
      </trkpt>
      <trkpt lat="44.86151" lon="6.49246">
        <ele>1284.8</ele>
        <time>2024-08-12T02:11:56Z</time>
      </trkpt>
      <trkpt lat="44.86151" lon="6.49242">
        <ele>1284.6</ele>
        <time>2024-08-12T02:11:57Z</time>
      </trkpt>
      <trkpt lat="44.86151" lon="6.49242">
        <ele>1284.6</ele>
        <time>2024-08-12T02:11:58Z</time>
      </trkpt>
      <trkpt lat="44.86153" lon="6.49239">
        <ele>1284.4</ele>
        <time>2024-08-12T02:11:59Z</time>
      </trkpt>
      <trkpt lat="44.86153" lon="6.49239">
        <ele>1284.2</ele>
        <time>2024-08-12T02:12:00Z</time>
      </trkpt>
      <trkpt lat="44.86155" lon="6.49235">
        <ele>1284.2</ele>
        <time>2024-08-12T02:12:01Z</time>
      </trkpt>
      <trkpt lat="44.86155" lon="6.49235">
        <ele>1284.2</ele>
        <time>2024-08-12T02:12:02Z</time>
      </trkpt>
      <trkpt lat="44.86157" lon="6.49232">
        <ele>1284</ele>
        <time>2024-08-12T02:12:03Z</time>
      </trkpt>
      <trkpt lat="44.86157" lon="6.49232">
        <ele>1284</ele>
        <time>2024-08-12T02:12:04Z</time>
      </trkpt>
      <trkpt lat="44.86159" lon="6.49229">
        <ele>1283.8</ele>
        <time>2024-08-12T02:12:05Z</time>
      </trkpt>
      <trkpt lat="44.86159" lon="6.49229">
        <ele>1283.6</ele>
        <time>2024-08-12T02:12:06Z</time>
      </trkpt>
      <trkpt lat="44.86162" lon="6.49227">
        <ele>1283.2</ele>
        <time>2024-08-12T02:12:07Z</time>
      </trkpt>
      <trkpt lat="44.86162" lon="6.49227">
        <ele>1283.2</ele>
        <time>2024-08-12T02:12:08Z</time>
      </trkpt>
      <trkpt lat="44.86164" lon="6.49224">
        <ele>1283.2</ele>
        <time>2024-08-12T02:12:09Z</time>
      </trkpt>
      <trkpt lat="44.86164" lon="6.49224">
        <ele>1283</ele>
        <time>2024-08-12T02:12:10Z</time>
      </trkpt>
      <trkpt lat="44.86167" lon="6.49221">
        <ele>1282.8</ele>
        <time>2024-08-12T02:12:11Z</time>
      </trkpt>
      <trkpt lat="44.86167" lon="6.49221">
        <ele>1282.6</ele>
        <time>2024-08-12T02:12:12Z</time>
      </trkpt>
      <trkpt lat="44.86169" lon="6.49217">
        <ele>1282.6</ele>
        <time>2024-08-12T02:12:13Z</time>
      </trkpt>
      <trkpt lat="44.86171" lon="6.49216">
        <ele>1282.4</ele>
        <time>2024-08-12T02:12:14Z</time>
      </trkpt>
      <trkpt lat="44.86171" lon="6.49216">
        <ele>1282.2</ele>
        <time>2024-08-12T02:12:15Z</time>
      </trkpt>
      <trkpt lat="44.86173" lon="6.49213">
        <ele>1282</ele>
        <time>2024-08-12T02:12:16Z</time>
      </trkpt>
      <trkpt lat="44.86173" lon="6.49213">
        <ele>1281.8</ele>
        <time>2024-08-12T02:12:17Z</time>
      </trkpt>
      <trkpt lat="44.86176" lon="6.4921">
        <ele>1281.8</ele>
        <time>2024-08-12T02:12:18Z</time>
      </trkpt>
      <trkpt lat="44.86176" lon="6.4921">
        <ele>1281.4</ele>
        <time>2024-08-12T02:12:19Z</time>
      </trkpt>
      <trkpt lat="44.86178" lon="6.49208">
        <ele>1281</ele>
        <time>2024-08-12T02:12:20Z</time>
      </trkpt>
      <trkpt lat="44.8618" lon="6.49207">
        <ele>1281</ele>
        <time>2024-08-12T02:12:21Z</time>
      </trkpt>
      <trkpt lat="44.8618" lon="6.49207">
        <ele>1281</ele>
        <time>2024-08-12T02:12:22Z</time>
      </trkpt>
      <trkpt lat="44.86182" lon="6.49204">
        <ele>1280.8</ele>
        <time>2024-08-12T02:12:23Z</time>
      </trkpt>
      <trkpt lat="44.86182" lon="6.49204">
        <ele>1280.8</ele>
        <time>2024-08-12T02:12:24Z</time>
      </trkpt>
      <trkpt lat="44.86184" lon="6.49202">
        <ele>1280.4</ele>
        <time>2024-08-12T02:12:25Z</time>
      </trkpt>
      <trkpt lat="44.86184" lon="6.49202">
        <ele>1280.4</ele>
        <time>2024-08-12T02:12:26Z</time>
      </trkpt>
      <trkpt lat="44.86184" lon="6.49202">
        <ele>1280.4</ele>
        <time>2024-08-12T02:12:27Z</time>
      </trkpt>
      <trkpt lat="44.86186" lon="6.49199">
        <ele>1280</ele>
        <time>2024-08-12T02:12:28Z</time>
      </trkpt>
      <trkpt lat="44.86186" lon="6.49199">
        <ele>1280</ele>
        <time>2024-08-12T02:12:29Z</time>
      </trkpt>
      <trkpt lat="44.86188" lon="6.49196">
        <ele>1280</ele>
        <time>2024-08-12T02:12:30Z</time>
      </trkpt>
      <trkpt lat="44.86188" lon="6.49196">
        <ele>1279.8</ele>
        <time>2024-08-12T02:12:31Z</time>
      </trkpt>
      <trkpt lat="44.86189" lon="6.49194">
        <ele>1279.4</ele>
        <time>2024-08-12T02:12:32Z</time>
      </trkpt>
      <trkpt lat="44.86189" lon="6.49194">
        <ele>1279.4</ele>
        <time>2024-08-12T02:12:33Z</time>
      </trkpt>
      <trkpt lat="44.86191" lon="6.49192">
        <ele>1279.4</ele>
        <time>2024-08-12T02:12:34Z</time>
      </trkpt>
      <trkpt lat="44.86191" lon="6.49192">
        <ele>1279.2</ele>
        <time>2024-08-12T02:12:35Z</time>
      </trkpt>
      <trkpt lat="44.86194" lon="6.49189">
        <ele>1279.2</ele>
        <time>2024-08-12T02:12:36Z</time>
      </trkpt>
      <trkpt lat="44.86194" lon="6.49189">
        <ele>1279</ele>
        <time>2024-08-12T02:12:37Z</time>
      </trkpt>
      <trkpt lat="44.86197" lon="6.49187">
        <ele>1278.8</ele>
        <time>2024-08-12T02:12:38Z</time>
      </trkpt>
      <trkpt lat="44.86197" lon="6.49187">
        <ele>1278.8</ele>
        <time>2024-08-12T02:12:39Z</time>
      </trkpt>
      <trkpt lat="44.86199" lon="6.49185">
        <ele>1278.6</ele>
        <time>2024-08-12T02:12:40Z</time>
      </trkpt>
      <trkpt lat="44.86199" lon="6.49185">
        <ele>1278.6</ele>
        <time>2024-08-12T02:12:41Z</time>
      </trkpt>
      <trkpt lat="44.86202" lon="6.49182">
        <ele>1278.4</ele>
        <time>2024-08-12T02:12:42Z</time>
      </trkpt>
      <trkpt lat="44.86202" lon="6.49182">
        <ele>1278.4</ele>
        <time>2024-08-12T02:12:43Z</time>
      </trkpt>
      <trkpt lat="44.86204" lon="6.49181">
        <ele>1278.2</ele>
        <time>2024-08-12T02:12:44Z</time>
      </trkpt>
      <trkpt lat="44.86204" lon="6.49181">
        <ele>1278.2</ele>
        <time>2024-08-12T02:12:45Z</time>
      </trkpt>
      <trkpt lat="44.86206" lon="6.49179">
        <ele>1278</ele>
        <time>2024-08-12T02:12:46Z</time>
      </trkpt>
      <trkpt lat="44.86206" lon="6.49179">
        <ele>1277.6</ele>
        <time>2024-08-12T02:12:47Z</time>
      </trkpt>
      <trkpt lat="44.86209" lon="6.49177">
        <ele>1277.6</ele>
        <time>2024-08-12T02:12:48Z</time>
      </trkpt>
      <trkpt lat="44.86209" lon="6.49177">
        <ele>1277.6</ele>
        <time>2024-08-12T02:12:49Z</time>
      </trkpt>
      <trkpt lat="44.86212" lon="6.49176">
        <ele>1277.2</ele>
        <time>2024-08-12T02:12:50Z</time>
      </trkpt>
      <trkpt lat="44.86212" lon="6.49176">
        <ele>1277</ele>
        <time>2024-08-12T02:12:51Z</time>
      </trkpt>
      <trkpt lat="44.86214" lon="6.49174">
        <ele>1277</ele>
        <time>2024-08-12T02:12:52Z</time>
      </trkpt>
      <trkpt lat="44.86214" lon="6.49174">
        <ele>1276.8</ele>
        <time>2024-08-12T02:12:53Z</time>
      </trkpt>
      <trkpt lat="44.86218" lon="6.49173">
        <ele>1276.6</ele>
        <time>2024-08-12T02:12:54Z</time>
      </trkpt>
      <trkpt lat="44.8622" lon="6.49173">
        <ele>1276.6</ele>
        <time>2024-08-12T02:12:55Z</time>
      </trkpt>
      <trkpt lat="44.8622" lon="6.49173">
        <ele>1276.6</ele>
        <time>2024-08-12T02:12:56Z</time>
      </trkpt>
      <trkpt lat="44.86224" lon="6.49173">
        <ele>1276.6</ele>
        <time>2024-08-12T02:12:57Z</time>
      </trkpt>
      <trkpt lat="44.86224" lon="6.49173">
        <ele>1276.6</ele>
        <time>2024-08-12T02:12:58Z</time>
      </trkpt>
      <trkpt lat="44.86226" lon="6.49174">
        <ele>1276.6</ele>
        <time>2024-08-12T02:12:59Z</time>
      </trkpt>
      <trkpt lat="44.86226" lon="6.49174">
        <ele>1276.4</ele>
        <time>2024-08-12T02:13:00Z</time>
      </trkpt>
      <trkpt lat="44.86229" lon="6.49174">
        <ele>1276.4</ele>
        <time>2024-08-12T02:13:01Z</time>
      </trkpt>
      <trkpt lat="44.86229" lon="6.49174">
        <ele>1276.2</ele>
        <time>2024-08-12T02:13:02Z</time>
      </trkpt>
      <trkpt lat="44.86232" lon="6.49174">
        <ele>1276</ele>
        <time>2024-08-12T02:13:03Z</time>
      </trkpt>
      <trkpt lat="44.86232" lon="6.49174">
        <ele>1275.8</ele>
        <time>2024-08-12T02:13:04Z</time>
      </trkpt>
      <trkpt lat="44.86235" lon="6.49173">
        <ele>1275.8</ele>
        <time>2024-08-12T02:13:05Z</time>
      </trkpt>
      <trkpt lat="44.86235" lon="6.49173">
        <ele>1275.8</ele>
        <time>2024-08-12T02:13:06Z</time>
      </trkpt>
      <trkpt lat="44.86238" lon="6.49172">
        <ele>1275.6</ele>
        <time>2024-08-12T02:13:07Z</time>
      </trkpt>
      <trkpt lat="44.86238" lon="6.49172">
        <ele>1275.6</ele>
        <time>2024-08-12T02:13:08Z</time>
      </trkpt>
      <trkpt lat="44.86242" lon="6.49172">
        <ele>1275.4</ele>
        <time>2024-08-12T02:13:09Z</time>
      </trkpt>
      <trkpt lat="44.86242" lon="6.49172">
        <ele>1275.2</ele>
        <time>2024-08-12T02:13:10Z</time>
      </trkpt>
      <trkpt lat="44.86244" lon="6.49171">
        <ele>1275.2</ele>
        <time>2024-08-12T02:13:11Z</time>
      </trkpt>
      <trkpt lat="44.86244" lon="6.49171">
        <ele>1274.8</ele>
        <time>2024-08-12T02:13:12Z</time>
      </trkpt>
      <trkpt lat="44.86244" lon="6.49171">
        <ele>1274.8</ele>
        <time>2024-08-12T02:13:13Z</time>
      </trkpt>
      <trkpt lat="44.86244" lon="6.49171">
        <ele>1274.8</ele>
        <time>2024-08-12T02:13:14Z</time>
      </trkpt>
      <trkpt lat="44.86244" lon="6.49171">
        <ele>1274.8</ele>
        <time>2024-08-12T02:13:15Z</time>
      </trkpt>
      <trkpt lat="44.86244" lon="6.49171">
        <ele>1274.8</ele>
        <time>2024-08-12T02:13:16Z</time>
      </trkpt>
      <trkpt lat="44.86247" lon="6.49171">
        <ele>1274.8</ele>
        <time>2024-08-12T02:13:17Z</time>
      </trkpt>
      <trkpt lat="44.86247" lon="6.49171">
        <ele>1274.8</ele>
        <time>2024-08-12T02:13:18Z</time>
      </trkpt>
      <trkpt lat="44.8625" lon="6.49172">
        <ele>1274.6</ele>
        <time>2024-08-12T02:13:19Z</time>
      </trkpt>
      <trkpt lat="44.8625" lon="6.49172">
        <ele>1274.4</ele>
        <time>2024-08-12T02:13:20Z</time>
      </trkpt>
      <trkpt lat="44.86253" lon="6.49172">
        <ele>1274.4</ele>
        <time>2024-08-12T02:13:21Z</time>
      </trkpt>
      <trkpt lat="44.86253" lon="6.49172">
        <ele>1274.4</ele>
        <time>2024-08-12T02:13:22Z</time>
      </trkpt>
      <trkpt lat="44.86256" lon="6.49173">
        <ele>1274.4</ele>
        <time>2024-08-12T02:13:23Z</time>
      </trkpt>
      <trkpt lat="44.86258" lon="6.49173">
        <ele>1274.4</ele>
        <time>2024-08-12T02:13:24Z</time>
      </trkpt>
      <trkpt lat="44.86258" lon="6.49173">
        <ele>1274.4</ele>
        <time>2024-08-12T02:13:25Z</time>
      </trkpt>
      <trkpt lat="44.86262" lon="6.49173">
        <ele>1274.4</ele>
        <time>2024-08-12T02:13:26Z</time>
      </trkpt>
      <trkpt lat="44.86264" lon="6.49173">
        <ele>1274.2</ele>
        <time>2024-08-12T02:13:27Z</time>
      </trkpt>
      <trkpt lat="44.86264" lon="6.49173">
        <ele>1274.2</ele>
        <time>2024-08-12T02:13:28Z</time>
      </trkpt>
      <trkpt lat="44.86267" lon="6.4917">
        <ele>1274</ele>
        <time>2024-08-12T02:13:29Z</time>
      </trkpt>
      <trkpt lat="44.86267" lon="6.4917">
        <ele>1274</ele>
        <time>2024-08-12T02:13:30Z</time>
      </trkpt>
      <trkpt lat="44.86269" lon="6.49167">
        <ele>1273.6</ele>
        <time>2024-08-12T02:13:31Z</time>
      </trkpt>
      <trkpt lat="44.86269" lon="6.49167">
        <ele>1273.2</ele>
        <time>2024-08-12T02:13:32Z</time>
      </trkpt>
      <trkpt lat="44.86268" lon="6.49164">
        <ele>1273.2</ele>
        <time>2024-08-12T02:13:33Z</time>
      </trkpt>
      <trkpt lat="44.86268" lon="6.49164">
        <ele>1273.2</ele>
        <time>2024-08-12T02:13:34Z</time>
      </trkpt>
      <trkpt lat="44.86268" lon="6.49159">
        <ele>1273.2</ele>
        <time>2024-08-12T02:13:35Z</time>
      </trkpt>
      <trkpt lat="44.86268" lon="6.49159">
        <ele>1273</ele>
        <time>2024-08-12T02:13:36Z</time>
      </trkpt>
      <trkpt lat="44.86268" lon="6.49154">
        <ele>1273</ele>
        <time>2024-08-12T02:13:37Z</time>
      </trkpt>
      <trkpt lat="44.86268" lon="6.49154">
        <ele>1272.6</ele>
        <time>2024-08-12T02:13:38Z</time>
      </trkpt>
      <trkpt lat="44.86266" lon="6.4915">
        <ele>1272.4</ele>
        <time>2024-08-12T02:13:39Z</time>
      </trkpt>
      <trkpt lat="44.86266" lon="6.4915">
        <ele>1271.8</ele>
        <time>2024-08-12T02:13:40Z</time>
      </trkpt>
      <trkpt lat="44.86264" lon="6.49148">
        <ele>1271.8</ele>
        <time>2024-08-12T02:13:41Z</time>
      </trkpt>
      <trkpt lat="44.86264" lon="6.49148">
        <ele>1271.8</ele>
        <time>2024-08-12T02:13:42Z</time>
      </trkpt>
      <trkpt lat="44.86264" lon="6.49148">
        <ele>1271.6</ele>
        <time>2024-08-12T02:13:43Z</time>
      </trkpt>
      <trkpt lat="44.86263" lon="6.49145">
        <ele>1271.6</ele>
        <time>2024-08-12T02:13:44Z</time>
      </trkpt>
      <trkpt lat="44.86263" lon="6.49145">
        <ele>1271.2</ele>
        <time>2024-08-12T02:13:45Z</time>
      </trkpt>
      <trkpt lat="44.86263" lon="6.49145">
        <ele>1271</ele>
        <time>2024-08-12T02:13:46Z</time>
      </trkpt>
      <trkpt lat="44.8626" lon="6.49146">
        <ele>1270.8</ele>
        <time>2024-08-12T02:13:47Z</time>
      </trkpt>
      <trkpt lat="44.8626" lon="6.49146">
        <ele>1270.8</ele>
        <time>2024-08-12T02:13:48Z</time>
      </trkpt>
      <trkpt lat="44.86258" lon="6.49146">
        <ele>1270.6</ele>
        <time>2024-08-12T02:13:49Z</time>
      </trkpt>
      <trkpt lat="44.86256" lon="6.49146">
        <ele>1270.6</ele>
        <time>2024-08-12T02:13:50Z</time>
      </trkpt>
      <trkpt lat="44.86256" lon="6.49146">
        <ele>1270.6</ele>
        <time>2024-08-12T02:13:51Z</time>
      </trkpt>
      <trkpt lat="44.86252" lon="6.49147">
        <ele>1270.6</ele>
        <time>2024-08-12T02:13:52Z</time>
      </trkpt>
      <trkpt lat="44.86252" lon="6.49147">
        <ele>1270.6</ele>
        <time>2024-08-12T02:13:53Z</time>
      </trkpt>
      <trkpt lat="44.86249" lon="6.49148">
        <ele>1270.6</ele>
        <time>2024-08-12T02:13:54Z</time>
      </trkpt>
      <trkpt lat="44.86249" lon="6.49148">
        <ele>1270.6</ele>
        <time>2024-08-12T02:13:55Z</time>
      </trkpt>
      <trkpt lat="44.86246" lon="6.49149">
        <ele>1270.6</ele>
        <time>2024-08-12T02:13:56Z</time>
      </trkpt>
      <trkpt lat="44.86246" lon="6.49149">
        <ele>1270.4</ele>
        <time>2024-08-12T02:13:57Z</time>
      </trkpt>
      <trkpt lat="44.86243" lon="6.49149">
        <ele>1270.4</ele>
        <time>2024-08-12T02:13:58Z</time>
      </trkpt>
      <trkpt lat="44.86241" lon="6.4915">
        <ele>1270.2</ele>
        <time>2024-08-12T02:13:59Z</time>
      </trkpt>
      <trkpt lat="44.86241" lon="6.4915">
        <ele>1270</ele>
        <time>2024-08-12T02:14:00Z</time>
      </trkpt>
      <trkpt lat="44.86238" lon="6.49151">
        <ele>1270</ele>
        <time>2024-08-12T02:14:01Z</time>
      </trkpt>
      <trkpt lat="44.86238" lon="6.49151">
        <ele>1270</ele>
        <time>2024-08-12T02:14:02Z</time>
      </trkpt>
      <trkpt lat="44.86236" lon="6.4915">
        <ele>1270</ele>
        <time>2024-08-12T02:14:03Z</time>
      </trkpt>
      <trkpt lat="44.86236" lon="6.4915">
        <ele>1270</ele>
        <time>2024-08-12T02:14:04Z</time>
      </trkpt>
      <trkpt lat="44.86233" lon="6.49149">
        <ele>1270</ele>
        <time>2024-08-12T02:14:05Z</time>
      </trkpt>
      <trkpt lat="44.86231" lon="6.49148">
        <ele>1269.6</ele>
        <time>2024-08-12T02:14:06Z</time>
      </trkpt>
      <trkpt lat="44.86231" lon="6.49148">
        <ele>1269.6</ele>
        <time>2024-08-12T02:14:07Z</time>
      </trkpt>
      <trkpt lat="44.86228" lon="6.49148">
        <ele>1269.8</ele>
        <time>2024-08-12T02:14:08Z</time>
      </trkpt>
      <trkpt lat="44.86228" lon="6.49148">
        <ele>1269.8</ele>
        <time>2024-08-12T02:14:09Z</time>
      </trkpt>
      <trkpt lat="44.86226" lon="6.49147">
        <ele>1269.6</ele>
        <time>2024-08-12T02:14:10Z</time>
      </trkpt>
      <trkpt lat="44.86226" lon="6.49147">
        <ele>1269</ele>
        <time>2024-08-12T02:14:11Z</time>
      </trkpt>
      <trkpt lat="44.86223" lon="6.49146">
        <ele>1269</ele>
        <time>2024-08-12T02:14:12Z</time>
      </trkpt>
      <trkpt lat="44.86223" lon="6.49146">
        <ele>1268.8</ele>
        <time>2024-08-12T02:14:13Z</time>
      </trkpt>
      <trkpt lat="44.8622" lon="6.49145">
        <ele>1268.6</ele>
        <time>2024-08-12T02:14:14Z</time>
      </trkpt>
      <trkpt lat="44.8622" lon="6.49145">
        <ele>1268.4</ele>
        <time>2024-08-12T02:14:15Z</time>
      </trkpt>
      <trkpt lat="44.86217" lon="6.49144">
        <ele>1268.4</ele>
        <time>2024-08-12T02:14:16Z</time>
      </trkpt>
      <trkpt lat="44.86217" lon="6.49144">
        <ele>1268.4</ele>
        <time>2024-08-12T02:14:17Z</time>
      </trkpt>
      <trkpt lat="44.86214" lon="6.49145">
        <ele>1268.4</ele>
        <time>2024-08-12T02:14:18Z</time>
      </trkpt>
      <trkpt lat="44.86214" lon="6.49145">
        <ele>1268.4</ele>
        <time>2024-08-12T02:14:19Z</time>
      </trkpt>
      <trkpt lat="44.86212" lon="6.49144">
        <ele>1268</ele>
        <time>2024-08-12T02:14:20Z</time>
      </trkpt>
      <trkpt lat="44.8621" lon="6.49144">
        <ele>1268</ele>
        <time>2024-08-12T02:14:21Z</time>
      </trkpt>
      <trkpt lat="44.86208" lon="6.49144">
        <ele>1267.8</ele>
        <time>2024-08-12T02:14:22Z</time>
      </trkpt>
      <trkpt lat="44.86206" lon="6.49144">
        <ele>1267.8</ele>
        <time>2024-08-12T02:14:23Z</time>
      </trkpt>
      <trkpt lat="44.86205" lon="6.49144">
        <ele>1267.8</ele>
        <time>2024-08-12T02:14:24Z</time>
      </trkpt>
      <trkpt lat="44.86205" lon="6.49144">
        <ele>1267.8</ele>
        <time>2024-08-12T02:14:25Z</time>
      </trkpt>
      <trkpt lat="44.86203" lon="6.49143">
        <ele>1267.8</ele>
        <time>2024-08-12T02:14:26Z</time>
      </trkpt>
      <trkpt lat="44.86203" lon="6.49143">
        <ele>1267.8</ele>
        <time>2024-08-12T02:14:27Z</time>
      </trkpt>
      <trkpt lat="44.86203" lon="6.49143">
        <ele>1267.4</ele>
        <time>2024-08-12T02:14:28Z</time>
      </trkpt>
      <trkpt lat="44.86203" lon="6.49143">
        <ele>1267.4</ele>
        <time>2024-08-12T02:14:29Z</time>
      </trkpt>
      <trkpt lat="44.86203" lon="6.49143">
        <ele>1267.6</ele>
        <time>2024-08-12T02:14:30Z</time>
      </trkpt>
      <trkpt lat="44.86203" lon="6.49143">
        <ele>1267.8</ele>
        <time>2024-08-12T02:14:31Z</time>
      </trkpt>
      <trkpt lat="44.86203" lon="6.49143">
        <ele>1267.8</ele>
        <time>2024-08-12T02:14:32Z</time>
      </trkpt>
      <trkpt lat="44.86203" lon="6.49143">
        <ele>1267.6</ele>
        <time>2024-08-12T02:14:33Z</time>
      </trkpt>
      <trkpt lat="44.86203" lon="6.49143">
        <ele>1267.2</ele>
        <time>2024-08-12T02:14:34Z</time>
      </trkpt>
      <trkpt lat="44.86203" lon="6.49143">
        <ele>1267.2</ele>
        <time>2024-08-12T02:14:35Z</time>
      </trkpt>
      <trkpt lat="44.86203" lon="6.49143">
        <ele>1267.2</ele>
        <time>2024-08-12T02:14:36Z</time>
      </trkpt>
      <trkpt lat="44.86203" lon="6.49143">
        <ele>1267.4</ele>
        <time>2024-08-12T02:14:37Z</time>
      </trkpt>
      <trkpt lat="44.86203" lon="6.49143">
        <ele>1267.4</ele>
        <time>2024-08-12T02:14:38Z</time>
      </trkpt>
      <trkpt lat="44.86203" lon="6.49143">
        <ele>1267.4</ele>
        <time>2024-08-12T02:14:39Z</time>
      </trkpt>
      <trkpt lat="44.86203" lon="6.49143">
        <ele>1267.4</ele>
        <time>2024-08-12T02:14:40Z</time>
      </trkpt>
      <trkpt lat="44.86203" lon="6.49143">
        <ele>1267.4</ele>
        <time>2024-08-12T02:14:41Z</time>
      </trkpt>
      <trkpt lat="44.86203" lon="6.49143">
        <ele>1267.4</ele>
        <time>2024-08-12T02:14:42Z</time>
      </trkpt>
      <trkpt lat="44.86203" lon="6.49143">
        <ele>1267.6</ele>
        <time>2024-08-12T02:14:43Z</time>
      </trkpt>
      <trkpt lat="44.86203" lon="6.49143">
        <ele>1267.6</ele>
        <time>2024-08-12T02:14:44Z</time>
      </trkpt>
      <trkpt lat="44.86203" lon="6.49143">
        <ele>1267.6</ele>
        <time>2024-08-12T02:14:45Z</time>
      </trkpt>
      <trkpt lat="44.86203" lon="6.49143">
        <ele>1267.6</ele>
        <time>2024-08-12T02:14:46Z</time>
      </trkpt>
      <trkpt lat="44.86203" lon="6.49143">
        <ele>1267.6</ele>
        <time>2024-08-12T02:14:47Z</time>
      </trkpt>
      <trkpt lat="44.86203" lon="6.49143">
        <ele>1267.6</ele>
        <time>2024-08-12T02:14:48Z</time>
      </trkpt>
      <trkpt lat="44.86203" lon="6.49143">
        <ele>1267.6</ele>
        <time>2024-08-12T02:14:49Z</time>
      </trkpt>
      <trkpt lat="44.86203" lon="6.49143">
        <ele>1267.4</ele>
        <time>2024-08-12T02:14:50Z</time>
      </trkpt>
      <trkpt lat="44.86203" lon="6.49143">
        <ele>1267.4</ele>
        <time>2024-08-12T02:14:51Z</time>
      </trkpt>
      <trkpt lat="44.86203" lon="6.49143">
        <ele>1267.4</ele>
        <time>2024-08-12T02:14:52Z</time>
      </trkpt>
      <trkpt lat="44.86203" lon="6.49143">
        <ele>1267.2</ele>
        <time>2024-08-12T02:14:53Z</time>
      </trkpt>
      <trkpt lat="44.86203" lon="6.49143">
        <ele>1267.4</ele>
        <time>2024-08-12T02:14:54Z</time>
      </trkpt>
      <trkpt lat="44.86203" lon="6.49143">
        <ele>1267.2</ele>
        <time>2024-08-12T02:14:55Z</time>
      </trkpt>
      <trkpt lat="44.86203" lon="6.49143">
        <ele>1267.2</ele>
        <time>2024-08-12T02:14:56Z</time>
      </trkpt>
      <trkpt lat="44.86203" lon="6.49143">
        <ele>1267</ele>
        <time>2024-08-12T02:14:57Z</time>
      </trkpt>
      <trkpt lat="44.86203" lon="6.49143">
        <ele>1267</ele>
        <time>2024-08-12T02:14:58Z</time>
      </trkpt>
      <trkpt lat="44.86203" lon="6.49143">
        <ele>1267.4</ele>
        <time>2024-08-12T02:14:59Z</time>
      </trkpt>
      <trkpt lat="44.86203" lon="6.49143">
        <ele>1267.4</ele>
        <time>2024-08-12T02:15:00Z</time>
      </trkpt>
      <trkpt lat="44.86203" lon="6.49143">
        <ele>1267.6</ele>
        <time>2024-08-12T02:15:01Z</time>
      </trkpt>
      <trkpt lat="44.86203" lon="6.49143">
        <ele>1267.6</ele>
        <time>2024-08-12T02:15:02Z</time>
      </trkpt>
      <trkpt lat="44.86203" lon="6.49143">
        <ele>1267.6</ele>
        <time>2024-08-12T02:15:03Z</time>
      </trkpt>
      <trkpt lat="44.86203" lon="6.49143">
        <ele>1267.6</ele>
        <time>2024-08-12T02:15:04Z</time>
      </trkpt>
      <trkpt lat="44.86203" lon="6.49143">
        <ele>1267.6</ele>
        <time>2024-08-12T02:15:05Z</time>
      </trkpt>
      <trkpt lat="44.86203" lon="6.49143">
        <ele>1267.6</ele>
        <time>2024-08-12T02:15:06Z</time>
      </trkpt>
      <trkpt lat="44.86203" lon="6.49143">
        <ele>1267.6</ele>
        <time>2024-08-12T02:15:07Z</time>
      </trkpt>
      <trkpt lat="44.86203" lon="6.49143">
        <ele>1267.6</ele>
        <time>2024-08-12T02:15:08Z</time>
      </trkpt>
      <trkpt lat="44.86203" lon="6.49143">
        <ele>1267.6</ele>
        <time>2024-08-12T02:15:09Z</time>
      </trkpt>
      <trkpt lat="44.86203" lon="6.49143">
        <ele>1267.6</ele>
        <time>2024-08-12T02:15:10Z</time>
      </trkpt>
      <trkpt lat="44.86203" lon="6.49143">
        <ele>1267.8</ele>
        <time>2024-08-12T02:15:11Z</time>
      </trkpt>
      <trkpt lat="44.86203" lon="6.49143">
        <ele>1267.8</ele>
        <time>2024-08-12T02:15:12Z</time>
      </trkpt>
      <trkpt lat="44.86203" lon="6.49143">
        <ele>1267.6</ele>
        <time>2024-08-12T02:15:13Z</time>
      </trkpt>
      <trkpt lat="44.86203" lon="6.49143">
        <ele>1267.2</ele>
        <time>2024-08-12T02:15:14Z</time>
      </trkpt>
      <trkpt lat="44.86203" lon="6.49143">
        <ele>1267</ele>
        <time>2024-08-12T02:15:15Z</time>
      </trkpt>
      <trkpt lat="44.86203" lon="6.49143">
        <ele>1267</ele>
        <time>2024-08-12T02:15:16Z</time>
      </trkpt>
      <trkpt lat="44.86203" lon="6.49143">
        <ele>1267.4</ele>
        <time>2024-08-12T02:15:17Z</time>
      </trkpt>
      <trkpt lat="44.862" lon="6.49142">
        <ele>1267.4</ele>
        <time>2024-08-12T02:15:18Z</time>
      </trkpt>
      <trkpt lat="44.86198" lon="6.49143">
        <ele>1267.4</ele>
        <time>2024-08-12T02:15:19Z</time>
      </trkpt>
      <trkpt lat="44.86197" lon="6.49144">
        <ele>1267.2</ele>
        <time>2024-08-12T02:15:20Z</time>
      </trkpt>
      <trkpt lat="44.86195" lon="6.49144">
        <ele>1267</ele>
        <time>2024-08-12T02:15:21Z</time>
      </trkpt>
      <trkpt lat="44.86192" lon="6.49145">
        <ele>1267</ele>
        <time>2024-08-12T02:15:22Z</time>
      </trkpt>
      <trkpt lat="44.86192" lon="6.49145">
        <ele>1267</ele>
        <time>2024-08-12T02:15:23Z</time>
      </trkpt>
      <trkpt lat="44.8619" lon="6.49147">
        <ele>1266.8</ele>
        <time>2024-08-12T02:15:24Z</time>
      </trkpt>
      <trkpt lat="44.8619" lon="6.49147">
        <ele>1266.8</ele>
        <time>2024-08-12T02:15:25Z</time>
      </trkpt>
      <trkpt lat="44.86187" lon="6.49147">
        <ele>1266.6</ele>
        <time>2024-08-12T02:15:26Z</time>
      </trkpt>
      <trkpt lat="44.86187" lon="6.49147">
        <ele>1266.4</ele>
        <time>2024-08-12T02:15:27Z</time>
      </trkpt>
      <trkpt lat="44.86185" lon="6.49147">
        <ele>1266.4</ele>
        <time>2024-08-12T02:15:28Z</time>
      </trkpt>
      <trkpt lat="44.86185" lon="6.49147">
        <ele>1266.4</ele>
        <time>2024-08-12T02:15:29Z</time>
      </trkpt>
      <trkpt lat="44.86182" lon="6.49147">
        <ele>1266.2</ele>
        <time>2024-08-12T02:15:30Z</time>
      </trkpt>
      <trkpt lat="44.86182" lon="6.49147">
        <ele>1266.2</ele>
        <time>2024-08-12T02:15:31Z</time>
      </trkpt>
      <trkpt lat="44.86179" lon="6.49148">
        <ele>1266.2</ele>
        <time>2024-08-12T02:15:32Z</time>
      </trkpt>
      <trkpt lat="44.86179" lon="6.49148">
        <ele>1265.8</ele>
        <time>2024-08-12T02:15:33Z</time>
      </trkpt>
      <trkpt lat="44.86176" lon="6.49148">
        <ele>1265.6</ele>
        <time>2024-08-12T02:15:34Z</time>
      </trkpt>
      <trkpt lat="44.86176" lon="6.49148">
        <ele>1265.6</ele>
        <time>2024-08-12T02:15:35Z</time>
      </trkpt>
      <trkpt lat="44.86173" lon="6.49148">
        <ele>1265.6</ele>
        <time>2024-08-12T02:15:36Z</time>
      </trkpt>
      <trkpt lat="44.86173" lon="6.49148">
        <ele>1265.4</ele>
        <time>2024-08-12T02:15:37Z</time>
      </trkpt>
      <trkpt lat="44.8617" lon="6.49149">
        <ele>1265.2</ele>
        <time>2024-08-12T02:15:38Z</time>
      </trkpt>
      <trkpt lat="44.8617" lon="6.49149">
        <ele>1265.2</ele>
        <time>2024-08-12T02:15:39Z</time>
      </trkpt>
      <trkpt lat="44.86168" lon="6.49149">
        <ele>1265.2</ele>
        <time>2024-08-12T02:15:40Z</time>
      </trkpt>
      <trkpt lat="44.86168" lon="6.49149">
        <ele>1265.2</ele>
        <time>2024-08-12T02:15:41Z</time>
      </trkpt>
      <trkpt lat="44.86165" lon="6.49151">
        <ele>1265.2</ele>
        <time>2024-08-12T02:15:42Z</time>
      </trkpt>
      <trkpt lat="44.86165" lon="6.49151">
        <ele>1265.2</ele>
        <time>2024-08-12T02:15:43Z</time>
      </trkpt>
      <trkpt lat="44.86162" lon="6.49152">
        <ele>1264.8</ele>
        <time>2024-08-12T02:15:44Z</time>
      </trkpt>
      <trkpt lat="44.86162" lon="6.49152">
        <ele>1264.8</ele>
        <time>2024-08-12T02:15:45Z</time>
      </trkpt>
      <trkpt lat="44.8616" lon="6.49152">
        <ele>1264.6</ele>
        <time>2024-08-12T02:15:46Z</time>
      </trkpt>
      <trkpt lat="44.86158" lon="6.49153">
        <ele>1264.4</ele>
        <time>2024-08-12T02:15:47Z</time>
      </trkpt>
      <trkpt lat="44.86156" lon="6.49154">
        <ele>1264.4</ele>
        <time>2024-08-12T02:15:48Z</time>
      </trkpt>
      <trkpt lat="44.86153" lon="6.49154">
        <ele>1264.2</ele>
        <time>2024-08-12T02:15:49Z</time>
      </trkpt>
      <trkpt lat="44.86151" lon="6.49154">
        <ele>1264.2</ele>
        <time>2024-08-12T02:15:50Z</time>
      </trkpt>
      <trkpt lat="44.86149" lon="6.49154">
        <ele>1263.8</ele>
        <time>2024-08-12T02:15:51Z</time>
      </trkpt>
      <trkpt lat="44.86149" lon="6.49154">
        <ele>1263.8</ele>
        <time>2024-08-12T02:15:52Z</time>
      </trkpt>
      <trkpt lat="44.86145" lon="6.49155">
        <ele>1263.8</ele>
        <time>2024-08-12T02:15:53Z</time>
      </trkpt>
      <trkpt lat="44.86143" lon="6.49156">
        <ele>1263.6</ele>
        <time>2024-08-12T02:15:54Z</time>
      </trkpt>
      <trkpt lat="44.86141" lon="6.49156">
        <ele>1263.6</ele>
        <time>2024-08-12T02:15:55Z</time>
      </trkpt>
      <trkpt lat="44.86141" lon="6.49156">
        <ele>1263.2</ele>
        <time>2024-08-12T02:15:56Z</time>
      </trkpt>
      <trkpt lat="44.86138" lon="6.49155">
        <ele>1263.2</ele>
        <time>2024-08-12T02:15:57Z</time>
      </trkpt>
      <trkpt lat="44.86136" lon="6.49155">
        <ele>1263</ele>
        <time>2024-08-12T02:15:58Z</time>
      </trkpt>
      <trkpt lat="44.86136" lon="6.49155">
        <ele>1262.8</ele>
        <time>2024-08-12T02:15:59Z</time>
      </trkpt>
      <trkpt lat="44.86133" lon="6.49155">
        <ele>1262.4</ele>
        <time>2024-08-12T02:16:00Z</time>
      </trkpt>
      <trkpt lat="44.86133" lon="6.49155">
        <ele>1262.4</ele>
        <time>2024-08-12T02:16:01Z</time>
      </trkpt>
      <trkpt lat="44.8613" lon="6.49155">
        <ele>1262.4</ele>
        <time>2024-08-12T02:16:02Z</time>
      </trkpt>
      <trkpt lat="44.8613" lon="6.49155">
        <ele>1262</ele>
        <time>2024-08-12T02:16:03Z</time>
      </trkpt>
      <trkpt lat="44.86127" lon="6.49155">
        <ele>1261.8</ele>
        <time>2024-08-12T02:16:04Z</time>
      </trkpt>
      <trkpt lat="44.86125" lon="6.49154">
        <ele>1261.8</ele>
        <time>2024-08-12T02:16:05Z</time>
      </trkpt>
      <trkpt lat="44.86125" lon="6.49154">
        <ele>1261.6</ele>
        <time>2024-08-12T02:16:06Z</time>
      </trkpt>
      <trkpt lat="44.86124" lon="6.49152">
        <ele>1261.4</ele>
        <time>2024-08-12T02:16:07Z</time>
      </trkpt>
      <trkpt lat="44.86124" lon="6.49152">
        <ele>1261.4</ele>
        <time>2024-08-12T02:16:08Z</time>
      </trkpt>
      <trkpt lat="44.86121" lon="6.49149">
        <ele>1261.2</ele>
        <time>2024-08-12T02:16:09Z</time>
      </trkpt>
      <trkpt lat="44.86121" lon="6.49149">
        <ele>1260.8</ele>
        <time>2024-08-12T02:16:10Z</time>
      </trkpt>
      <trkpt lat="44.86118" lon="6.49148">
        <ele>1260.8</ele>
        <time>2024-08-12T02:16:11Z</time>
      </trkpt>
      <trkpt lat="44.86118" lon="6.49148">
        <ele>1260.8</ele>
        <time>2024-08-12T02:16:12Z</time>
      </trkpt>
      <trkpt lat="44.86116" lon="6.49144">
        <ele>1260.6</ele>
        <time>2024-08-12T02:16:13Z</time>
      </trkpt>
      <trkpt lat="44.86116" lon="6.49144">
        <ele>1260.4</ele>
        <time>2024-08-12T02:16:14Z</time>
      </trkpt>
      <trkpt lat="44.86115" lon="6.49141">
        <ele>1260.2</ele>
        <time>2024-08-12T02:16:15Z</time>
      </trkpt>
      <trkpt lat="44.86113" lon="6.4914">
        <ele>1260.2</ele>
        <time>2024-08-12T02:16:16Z</time>
      </trkpt>
      <trkpt lat="44.86113" lon="6.4914">
        <ele>1260</ele>
        <time>2024-08-12T02:16:17Z</time>
      </trkpt>
      <trkpt lat="44.86111" lon="6.49138">
        <ele>1259.6</ele>
        <time>2024-08-12T02:16:18Z</time>
      </trkpt>
      <trkpt lat="44.86111" lon="6.49138">
        <ele>1259.6</ele>
        <time>2024-08-12T02:16:19Z</time>
      </trkpt>
      <trkpt lat="44.86109" lon="6.49135">
        <ele>1259.4</ele>
        <time>2024-08-12T02:16:20Z</time>
      </trkpt>
      <trkpt lat="44.86109" lon="6.49135">
        <ele>1259.4</ele>
        <time>2024-08-12T02:16:21Z</time>
      </trkpt>
      <trkpt lat="44.86106" lon="6.49133">
        <ele>1259.2</ele>
        <time>2024-08-12T02:16:22Z</time>
      </trkpt>
      <trkpt lat="44.86106" lon="6.49133">
        <ele>1259.2</ele>
        <time>2024-08-12T02:16:23Z</time>
      </trkpt>
      <trkpt lat="44.86104" lon="6.49131">
        <ele>1259</ele>
        <time>2024-08-12T02:16:24Z</time>
      </trkpt>
      <trkpt lat="44.86104" lon="6.49131">
        <ele>1258.8</ele>
        <time>2024-08-12T02:16:25Z</time>
      </trkpt>
      <trkpt lat="44.86101" lon="6.49129">
        <ele>1258.6</ele>
        <time>2024-08-12T02:16:26Z</time>
      </trkpt>
      <trkpt lat="44.86101" lon="6.49129">
        <ele>1258.6</ele>
        <time>2024-08-12T02:16:27Z</time>
      </trkpt>
      <trkpt lat="44.86098" lon="6.49127">
        <ele>1258.4</ele>
        <time>2024-08-12T02:16:28Z</time>
      </trkpt>
      <trkpt lat="44.86098" lon="6.49127">
        <ele>1258</ele>
        <time>2024-08-12T02:16:29Z</time>
      </trkpt>
      <trkpt lat="44.86096" lon="6.49125">
        <ele>1257.8</ele>
        <time>2024-08-12T02:16:30Z</time>
      </trkpt>
      <trkpt lat="44.86094" lon="6.49122">
        <ele>1257.8</ele>
        <time>2024-08-12T02:16:31Z</time>
      </trkpt>
      <trkpt lat="44.86094" lon="6.49122">
        <ele>1257.6</ele>
        <time>2024-08-12T02:16:32Z</time>
      </trkpt>
      <trkpt lat="44.86093" lon="6.49119">
        <ele>1257.6</ele>
        <time>2024-08-12T02:16:33Z</time>
      </trkpt>
      <trkpt lat="44.86093" lon="6.49119">
        <ele>1257.4</ele>
        <time>2024-08-12T02:16:34Z</time>
      </trkpt>
      <trkpt lat="44.86091" lon="6.49117">
        <ele>1257.2</ele>
        <time>2024-08-12T02:16:35Z</time>
      </trkpt>
      <trkpt lat="44.86091" lon="6.49117">
        <ele>1257.2</ele>
        <time>2024-08-12T02:16:36Z</time>
      </trkpt>
      <trkpt lat="44.8609" lon="6.49113">
        <ele>1257</ele>
        <time>2024-08-12T02:16:37Z</time>
      </trkpt>
      <trkpt lat="44.8609" lon="6.49113">
        <ele>1256.8</ele>
        <time>2024-08-12T02:16:38Z</time>
      </trkpt>
      <trkpt lat="44.86088" lon="6.49109">
        <ele>1256.6</ele>
        <time>2024-08-12T02:16:39Z</time>
      </trkpt>
      <trkpt lat="44.86087" lon="6.49107">
        <ele>1256.6</ele>
        <time>2024-08-12T02:16:40Z</time>
      </trkpt>
      <trkpt lat="44.86087" lon="6.49107">
        <ele>1256.6</ele>
        <time>2024-08-12T02:16:41Z</time>
      </trkpt>
      <trkpt lat="44.86085" lon="6.49104">
        <ele>1256.4</ele>
        <time>2024-08-12T02:16:42Z</time>
      </trkpt>
      <trkpt lat="44.86085" lon="6.49104">
        <ele>1256.2</ele>
        <time>2024-08-12T02:16:43Z</time>
      </trkpt>
      <trkpt lat="44.86084" lon="6.49101">
        <ele>1256.2</ele>
        <time>2024-08-12T02:16:44Z</time>
      </trkpt>
      <trkpt lat="44.86084" lon="6.49101">
        <ele>1256.2</ele>
        <time>2024-08-12T02:16:45Z</time>
      </trkpt>
      <trkpt lat="44.86082" lon="6.49098">
        <ele>1256</ele>
        <time>2024-08-12T02:16:46Z</time>
      </trkpt>
      <trkpt lat="44.86082" lon="6.49098">
        <ele>1256</ele>
        <time>2024-08-12T02:16:47Z</time>
      </trkpt>
      <trkpt lat="44.86079" lon="6.49096">
        <ele>1256</ele>
        <time>2024-08-12T02:16:48Z</time>
      </trkpt>
      <trkpt lat="44.86079" lon="6.49096">
        <ele>1256</ele>
        <time>2024-08-12T02:16:49Z</time>
      </trkpt>
      <trkpt lat="44.86077" lon="6.49093">
        <ele>1256.2</ele>
        <time>2024-08-12T02:16:50Z</time>
      </trkpt>
      <trkpt lat="44.86077" lon="6.49093">
        <ele>1256.2</ele>
        <time>2024-08-12T02:16:51Z</time>
      </trkpt>
      <trkpt lat="44.86075" lon="6.49092">
        <ele>1256</ele>
        <time>2024-08-12T02:16:52Z</time>
      </trkpt>
      <trkpt lat="44.86075" lon="6.49092">
        <ele>1256</ele>
        <time>2024-08-12T02:16:53Z</time>
      </trkpt>
      <trkpt lat="44.86072" lon="6.49093">
        <ele>1256</ele>
        <time>2024-08-12T02:16:54Z</time>
      </trkpt>
      <trkpt lat="44.86072" lon="6.49093">
        <ele>1256.2</ele>
        <time>2024-08-12T02:16:55Z</time>
      </trkpt>
      <trkpt lat="44.86072" lon="6.49093">
        <ele>1256.4</ele>
        <time>2024-08-12T02:16:56Z</time>
      </trkpt>
      <trkpt lat="44.86069" lon="6.49093">
        <ele>1256.4</ele>
        <time>2024-08-12T02:16:57Z</time>
      </trkpt>
      <trkpt lat="44.86069" lon="6.49093">
        <ele>1256.2</ele>
        <time>2024-08-12T02:16:58Z</time>
      </trkpt>
      <trkpt lat="44.86069" lon="6.4909">
        <ele>1256.2</ele>
        <time>2024-08-12T02:16:59Z</time>
      </trkpt>
      <trkpt lat="44.86069" lon="6.4909">
        <ele>1256.2</ele>
        <time>2024-08-12T02:17:00Z</time>
      </trkpt>
      <trkpt lat="44.86067" lon="6.49088">
        <ele>1256.2</ele>
        <time>2024-08-12T02:17:01Z</time>
      </trkpt>
      <trkpt lat="44.86067" lon="6.49088">
        <ele>1256</ele>
        <time>2024-08-12T02:17:02Z</time>
      </trkpt>
      <trkpt lat="44.86067" lon="6.49088">
        <ele>1256</ele>
        <time>2024-08-12T02:17:03Z</time>
      </trkpt>
      <trkpt lat="44.86067" lon="6.49088">
        <ele>1256</ele>
        <time>2024-08-12T02:17:04Z</time>
      </trkpt>
      <trkpt lat="44.86065" lon="6.49086">
        <ele>1256</ele>
        <time>2024-08-12T02:17:05Z</time>
      </trkpt>
      <trkpt lat="44.86065" lon="6.49086">
        <ele>1256</ele>
        <time>2024-08-12T02:17:06Z</time>
      </trkpt>
      <trkpt lat="44.86065" lon="6.49086">
        <ele>1256.2</ele>
        <time>2024-08-12T02:17:07Z</time>
      </trkpt>
      <trkpt lat="44.86065" lon="6.49086">
        <ele>1256.2</ele>
        <time>2024-08-12T02:17:08Z</time>
      </trkpt>
      <trkpt lat="44.86065" lon="6.49086">
        <ele>1256.2</ele>
        <time>2024-08-12T02:17:09Z</time>
      </trkpt>
      <trkpt lat="44.86065" lon="6.49086">
        <ele>1256.2</ele>
        <time>2024-08-12T02:17:10Z</time>
      </trkpt>
      <trkpt lat="44.86065" lon="6.49086">
        <ele>1256.4</ele>
        <time>2024-08-12T02:17:11Z</time>
      </trkpt>
      <trkpt lat="44.86065" lon="6.49086">
        <ele>1256.4</ele>
        <time>2024-08-12T02:17:12Z</time>
      </trkpt>
      <trkpt lat="44.86065" lon="6.49086">
        <ele>1256.4</ele>
        <time>2024-08-12T02:17:13Z</time>
      </trkpt>
      <trkpt lat="44.86065" lon="6.49086">
        <ele>1256.2</ele>
        <time>2024-08-12T02:17:14Z</time>
      </trkpt>
      <trkpt lat="44.86065" lon="6.49086">
        <ele>1256.2</ele>
        <time>2024-08-12T02:17:15Z</time>
      </trkpt>
      <trkpt lat="44.86065" lon="6.49086">
        <ele>1256.2</ele>
        <time>2024-08-12T02:17:16Z</time>
      </trkpt>
      <trkpt lat="44.86065" lon="6.49086">
        <ele>1256.2</ele>
        <time>2024-08-12T02:17:17Z</time>
      </trkpt>
      <trkpt lat="44.86065" lon="6.49086">
        <ele>1256.2</ele>
        <time>2024-08-12T02:17:18Z</time>
      </trkpt>
      <trkpt lat="44.86065" lon="6.49086">
        <ele>1256.2</ele>
        <time>2024-08-12T02:17:19Z</time>
      </trkpt>
      <trkpt lat="44.86065" lon="6.49086">
        <ele>1256.4</ele>
        <time>2024-08-12T02:17:20Z</time>
      </trkpt>
      <trkpt lat="44.86065" lon="6.49086">
        <ele>1256.4</ele>
        <time>2024-08-12T02:17:21Z</time>
      </trkpt>
      <trkpt lat="44.86065" lon="6.49086">
        <ele>1256.4</ele>
        <time>2024-08-12T02:17:22Z</time>
      </trkpt>
      <trkpt lat="44.86065" lon="6.49086">
        <ele>1256.4</ele>
        <time>2024-08-12T02:17:23Z</time>
      </trkpt>
      <trkpt lat="44.86065" lon="6.49086">
        <ele>1256.4</ele>
        <time>2024-08-12T02:17:24Z</time>
      </trkpt>
      <trkpt lat="44.86065" lon="6.49086">
        <ele>1256.4</ele>
        <time>2024-08-12T02:17:25Z</time>
      </trkpt>
      <trkpt lat="44.86065" lon="6.49086">
        <ele>1256.2</ele>
        <time>2024-08-12T02:17:26Z</time>
      </trkpt>
      <trkpt lat="44.86065" lon="6.49086">
        <ele>1256.2</ele>
        <time>2024-08-12T02:17:27Z</time>
      </trkpt>
      <trkpt lat="44.86065" lon="6.49086">
        <ele>1256.4</ele>
        <time>2024-08-12T02:17:28Z</time>
      </trkpt>
      <trkpt lat="44.86065" lon="6.49086">
        <ele>1256.6</ele>
        <time>2024-08-12T02:17:29Z</time>
      </trkpt>
      <trkpt lat="44.86065" lon="6.49086">
        <ele>1256.6</ele>
        <time>2024-08-12T02:17:30Z</time>
      </trkpt>
      <trkpt lat="44.86065" lon="6.49086">
        <ele>1256.4</ele>
        <time>2024-08-12T02:17:31Z</time>
      </trkpt>
      <trkpt lat="44.86065" lon="6.49086">
        <ele>1256.2</ele>
        <time>2024-08-12T02:17:32Z</time>
      </trkpt>
      <trkpt lat="44.86065" lon="6.49086">
        <ele>1256.2</ele>
        <time>2024-08-12T02:17:33Z</time>
      </trkpt>
      <trkpt lat="44.86065" lon="6.49086">
        <ele>1256.4</ele>
        <time>2024-08-12T02:17:34Z</time>
      </trkpt>
      <trkpt lat="44.86065" lon="6.49086">
        <ele>1256.4</ele>
        <time>2024-08-12T02:17:35Z</time>
      </trkpt>
      <trkpt lat="44.86065" lon="6.49086">
        <ele>1256.4</ele>
        <time>2024-08-12T02:17:36Z</time>
      </trkpt>
      <trkpt lat="44.86065" lon="6.49086">
        <ele>1256.6</ele>
        <time>2024-08-12T02:17:37Z</time>
      </trkpt>
      <trkpt lat="44.86065" lon="6.49086">
        <ele>1256.6</ele>
        <time>2024-08-12T02:17:38Z</time>
      </trkpt>
      <trkpt lat="44.86065" lon="6.49086">
        <ele>1256.4</ele>
        <time>2024-08-12T02:17:39Z</time>
      </trkpt>
      <trkpt lat="44.86065" lon="6.49086">
        <ele>1256.4</ele>
        <time>2024-08-12T02:17:40Z</time>
      </trkpt>
      <trkpt lat="44.86065" lon="6.49086">
        <ele>1256.2</ele>
        <time>2024-08-12T02:17:41Z</time>
      </trkpt>
      <trkpt lat="44.86065" lon="6.49086">
        <ele>1256.2</ele>
        <time>2024-08-12T02:17:42Z</time>
      </trkpt>
      <trkpt lat="44.86065" lon="6.49086">
        <ele>1256.2</ele>
        <time>2024-08-12T02:17:43Z</time>
      </trkpt>
      <trkpt lat="44.86065" lon="6.49086">
        <ele>1256.2</ele>
        <time>2024-08-12T02:17:44Z</time>
      </trkpt>
      <trkpt lat="44.86065" lon="6.49086">
        <ele>1256.2</ele>
        <time>2024-08-12T02:17:45Z</time>
      </trkpt>
      <trkpt lat="44.86065" lon="6.49086">
        <ele>1256.2</ele>
        <time>2024-08-12T02:17:46Z</time>
      </trkpt>
      <trkpt lat="44.86065" lon="6.49086">
        <ele>1256.4</ele>
        <time>2024-08-12T02:17:47Z</time>
      </trkpt>
      <trkpt lat="44.86065" lon="6.49086">
        <ele>1256.4</ele>
        <time>2024-08-12T02:17:48Z</time>
      </trkpt>
      <trkpt lat="44.86065" lon="6.49086">
        <ele>1256.4</ele>
        <time>2024-08-12T02:17:49Z</time>
      </trkpt>
      <trkpt lat="44.86065" lon="6.49086">
        <ele>1256.4</ele>
        <time>2024-08-12T02:17:50Z</time>
      </trkpt>
      <trkpt lat="44.86065" lon="6.49086">
        <ele>1256.4</ele>
        <time>2024-08-12T02:17:51Z</time>
      </trkpt>
      <trkpt lat="44.86065" lon="6.49086">
        <ele>1256.4</ele>
        <time>2024-08-12T02:17:52Z</time>
      </trkpt>
      <trkpt lat="44.86065" lon="6.49086">
        <ele>1256.2</ele>
        <time>2024-08-12T02:17:53Z</time>
      </trkpt>
      <trkpt lat="44.86065" lon="6.49086">
        <ele>1256.2</ele>
        <time>2024-08-12T02:17:54Z</time>
      </trkpt>
      <trkpt lat="44.86065" lon="6.49086">
        <ele>1256.2</ele>
        <time>2024-08-12T02:17:55Z</time>
      </trkpt>
      <trkpt lat="44.86065" lon="6.49086">
        <ele>1256.2</ele>
        <time>2024-08-12T02:17:56Z</time>
      </trkpt>
      <trkpt lat="44.86065" lon="6.49086">
        <ele>1256.2</ele>
        <time>2024-08-12T02:17:57Z</time>
      </trkpt>
      <trkpt lat="44.86065" lon="6.49086">
        <ele>1256.2</ele>
        <time>2024-08-12T02:17:58Z</time>
      </trkpt>
      <trkpt lat="44.86065" lon="6.49086">
        <ele>1256.4</ele>
        <time>2024-08-12T02:17:59Z</time>
      </trkpt>
      <trkpt lat="44.86065" lon="6.49086">
        <ele>1256.2</ele>
        <time>2024-08-12T02:18:00Z</time>
      </trkpt>
      <trkpt lat="44.86065" lon="6.49086">
        <ele>1256.2</ele>
        <time>2024-08-12T02:18:01Z</time>
      </trkpt>
      <trkpt lat="44.86065" lon="6.49086">
        <ele>1256.2</ele>
        <time>2024-08-12T02:18:02Z</time>
      </trkpt>
      <trkpt lat="44.86065" lon="6.49086">
        <ele>1256.4</ele>
        <time>2024-08-12T02:18:03Z</time>
      </trkpt>
      <trkpt lat="44.86065" lon="6.49086">
        <ele>1256.2</ele>
        <time>2024-08-12T02:18:04Z</time>
      </trkpt>
      <trkpt lat="44.86065" lon="6.49086">
        <ele>1256.4</ele>
        <time>2024-08-12T02:18:05Z</time>
      </trkpt>
      <trkpt lat="44.86065" lon="6.49086">
        <ele>1256.2</ele>
        <time>2024-08-12T02:18:06Z</time>
      </trkpt>
      <trkpt lat="44.86065" lon="6.49086">
        <ele>1256.2</ele>
        <time>2024-08-12T02:18:07Z</time>
      </trkpt>
      <trkpt lat="44.86065" lon="6.49086">
        <ele>1256.2</ele>
        <time>2024-08-12T02:18:08Z</time>
      </trkpt>
      <trkpt lat="44.86065" lon="6.49086">
        <ele>1256.2</ele>
        <time>2024-08-12T02:18:09Z</time>
      </trkpt>
      <trkpt lat="44.86065" lon="6.49086">
        <ele>1256.2</ele>
        <time>2024-08-12T02:18:10Z</time>
      </trkpt>
      <trkpt lat="44.86065" lon="6.49086">
        <ele>1256.4</ele>
        <time>2024-08-12T02:18:11Z</time>
      </trkpt>
      <trkpt lat="44.86065" lon="6.49086">
        <ele>1256.4</ele>
        <time>2024-08-12T02:18:12Z</time>
      </trkpt>
      <trkpt lat="44.86065" lon="6.49086">
        <ele>1256.4</ele>
        <time>2024-08-12T02:18:13Z</time>
      </trkpt>
      <trkpt lat="44.86065" lon="6.49086">
        <ele>1256.4</ele>
        <time>2024-08-12T02:18:14Z</time>
      </trkpt>
      <trkpt lat="44.86065" lon="6.49086">
        <ele>1256.4</ele>
        <time>2024-08-12T02:18:15Z</time>
      </trkpt>
      <trkpt lat="44.86065" lon="6.49086">
        <ele>1256.4</ele>
        <time>2024-08-12T02:18:16Z</time>
      </trkpt>
      <trkpt lat="44.86065" lon="6.49086">
        <ele>1256.4</ele>
        <time>2024-08-12T02:18:17Z</time>
      </trkpt>
      <trkpt lat="44.86065" lon="6.49086">
        <ele>1256.4</ele>
        <time>2024-08-12T02:18:18Z</time>
      </trkpt>
      <trkpt lat="44.86067" lon="6.49085">
        <ele>1256.2</ele>
        <time>2024-08-12T02:18:19Z</time>
      </trkpt>
      <trkpt lat="44.86067" lon="6.49085">
        <ele>1256.2</ele>
        <time>2024-08-12T02:18:20Z</time>
      </trkpt>
      <trkpt lat="44.86071" lon="6.49085">
        <ele>1256.2</ele>
        <time>2024-08-12T02:18:21Z</time>
      </trkpt>
      <trkpt lat="44.86073" lon="6.49086">
        <ele>1256.2</ele>
        <time>2024-08-12T02:18:22Z</time>
      </trkpt>
      <trkpt lat="44.86075" lon="6.49086">
        <ele>1256.2</ele>
        <time>2024-08-12T02:18:23Z</time>
      </trkpt>
      <trkpt lat="44.86077" lon="6.49086">
        <ele>1256.2</ele>
        <time>2024-08-12T02:18:24Z</time>
      </trkpt>
      <trkpt lat="44.86077" lon="6.49086">
        <ele>1256.2</ele>
        <time>2024-08-12T02:18:25Z</time>
      </trkpt>
      <trkpt lat="44.86079" lon="6.49085">
        <ele>1256.2</ele>
        <time>2024-08-12T02:18:26Z</time>
      </trkpt>
      <trkpt lat="44.86081" lon="6.49084">
        <ele>1256.2</ele>
        <time>2024-08-12T02:18:27Z</time>
      </trkpt>
      <trkpt lat="44.86081" lon="6.49084">
        <ele>1256.2</ele>
        <time>2024-08-12T02:18:28Z</time>
      </trkpt>
      <trkpt lat="44.86083" lon="6.49082">
        <ele>1256</ele>
        <time>2024-08-12T02:18:29Z</time>
      </trkpt>
      <trkpt lat="44.86083" lon="6.49082">
        <ele>1256</ele>
        <time>2024-08-12T02:18:30Z</time>
      </trkpt>
      <trkpt lat="44.86083" lon="6.49082">
        <ele>1256.2</ele>
        <time>2024-08-12T02:18:31Z</time>
      </trkpt>
      <trkpt lat="44.86083" lon="6.49082">
        <ele>1256.2</ele>
        <time>2024-08-12T02:18:32Z</time>
      </trkpt>
      <trkpt lat="44.86082" lon="6.49085">
        <ele>1256.2</ele>
        <time>2024-08-12T02:18:33Z</time>
      </trkpt>
      <trkpt lat="44.86082" lon="6.49085">
        <ele>1256.2</ele>
        <time>2024-08-12T02:18:34Z</time>
      </trkpt>
      <trkpt lat="44.86079" lon="6.49087">
        <ele>1256.2</ele>
        <time>2024-08-12T02:18:35Z</time>
      </trkpt>
      <trkpt lat="44.86079" lon="6.49087">
        <ele>1256.2</ele>
        <time>2024-08-12T02:18:36Z</time>
      </trkpt>
      <trkpt lat="44.86079" lon="6.49091">
        <ele>1256.2</ele>
        <time>2024-08-12T02:18:37Z</time>
      </trkpt>
      <trkpt lat="44.86079" lon="6.49091">
        <ele>1256.2</ele>
        <time>2024-08-12T02:18:38Z</time>
      </trkpt>
      <trkpt lat="44.86081" lon="6.49094">
        <ele>1256.2</ele>
        <time>2024-08-12T02:18:39Z</time>
      </trkpt>
      <trkpt lat="44.86081" lon="6.49094">
        <ele>1256.4</ele>
        <time>2024-08-12T02:18:40Z</time>
      </trkpt>
      <trkpt lat="44.86084" lon="6.49096">
        <ele>1256.6</ele>
        <time>2024-08-12T02:18:41Z</time>
      </trkpt>
      <trkpt lat="44.86084" lon="6.49096">
        <ele>1256.6</ele>
        <time>2024-08-12T02:18:42Z</time>
      </trkpt>
      <trkpt lat="44.86086" lon="6.49097">
        <ele>1256.6</ele>
        <time>2024-08-12T02:18:43Z</time>
      </trkpt>
      <trkpt lat="44.86086" lon="6.49097">
        <ele>1256.4</ele>
        <time>2024-08-12T02:18:44Z</time>
      </trkpt>
      <trkpt lat="44.86089" lon="6.49099">
        <ele>1256.6</ele>
        <time>2024-08-12T02:18:45Z</time>
      </trkpt>
      <trkpt lat="44.86089" lon="6.49099">
        <ele>1256.6</ele>
        <time>2024-08-12T02:18:46Z</time>
      </trkpt>
      <trkpt lat="44.86089" lon="6.49099">
        <ele>1256.6</ele>
        <time>2024-08-12T02:18:47Z</time>
      </trkpt>
      <trkpt lat="44.86087" lon="6.49098">
        <ele>1256.6</ele>
        <time>2024-08-12T02:18:48Z</time>
      </trkpt>
      <trkpt lat="44.86087" lon="6.49098">
        <ele>1256.6</ele>
        <time>2024-08-12T02:18:49Z</time>
      </trkpt>
      <trkpt lat="44.86084" lon="6.49096">
        <ele>1256.8</ele>
        <time>2024-08-12T02:18:50Z</time>
      </trkpt>
      <trkpt lat="44.86084" lon="6.49096">
        <ele>1256.8</ele>
        <time>2024-08-12T02:18:51Z</time>
      </trkpt>
      <trkpt lat="44.86081" lon="6.49094">
        <ele>1256.6</ele>
        <time>2024-08-12T02:18:52Z</time>
      </trkpt>
      <trkpt lat="44.86081" lon="6.49094">
        <ele>1256.6</ele>
        <time>2024-08-12T02:18:53Z</time>
      </trkpt>
      <trkpt lat="44.86079" lon="6.49092">
        <ele>1256.6</ele>
        <time>2024-08-12T02:18:54Z</time>
      </trkpt>
      <trkpt lat="44.86079" lon="6.49092">
        <ele>1256.8</ele>
        <time>2024-08-12T02:18:55Z</time>
      </trkpt>
      <trkpt lat="44.86076" lon="6.49091">
        <ele>1256.8</ele>
        <time>2024-08-12T02:18:56Z</time>
      </trkpt>
      <trkpt lat="44.86076" lon="6.49091">
        <ele>1256.8</ele>
        <time>2024-08-12T02:18:57Z</time>
      </trkpt>
      <trkpt lat="44.86074" lon="6.4909">
        <ele>1256.8</ele>
        <time>2024-08-12T02:18:58Z</time>
      </trkpt>
      <trkpt lat="44.86074" lon="6.4909">
        <ele>1256.6</ele>
        <time>2024-08-12T02:18:59Z</time>
      </trkpt>
      <trkpt lat="44.86071" lon="6.49089">
        <ele>1256.6</ele>
        <time>2024-08-12T02:19:00Z</time>
      </trkpt>
      <trkpt lat="44.86071" lon="6.49089">
        <ele>1256.6</ele>
        <time>2024-08-12T02:19:01Z</time>
      </trkpt>
      <trkpt lat="44.86069" lon="6.49089">
        <ele>1256.6</ele>
        <time>2024-08-12T02:19:02Z</time>
      </trkpt>
      <trkpt lat="44.86069" lon="6.49089">
        <ele>1256.6</ele>
        <time>2024-08-12T02:19:03Z</time>
      </trkpt>
      <trkpt lat="44.86066" lon="6.49088">
        <ele>1256.8</ele>
        <time>2024-08-12T02:19:04Z</time>
      </trkpt>
      <trkpt lat="44.86066" lon="6.49088">
        <ele>1256.8</ele>
        <time>2024-08-12T02:19:05Z</time>
      </trkpt>
      <trkpt lat="44.86063" lon="6.49087">
        <ele>1256.8</ele>
        <time>2024-08-12T02:19:06Z</time>
      </trkpt>
      <trkpt lat="44.86063" lon="6.49087">
        <ele>1256.8</ele>
        <time>2024-08-12T02:19:07Z</time>
      </trkpt>
      <trkpt lat="44.86061" lon="6.49086">
        <ele>1256.8</ele>
        <time>2024-08-12T02:19:08Z</time>
      </trkpt>
      <trkpt lat="44.86061" lon="6.49086">
        <ele>1256.6</ele>
        <time>2024-08-12T02:19:09Z</time>
      </trkpt>
      <trkpt lat="44.86059" lon="6.49085">
        <ele>1256.6</ele>
        <time>2024-08-12T02:19:10Z</time>
      </trkpt>
      <trkpt lat="44.86059" lon="6.49085">
        <ele>1256.8</ele>
        <time>2024-08-12T02:19:11Z</time>
      </trkpt>
      <trkpt lat="44.86055" lon="6.49084">
        <ele>1256.2</ele>
        <time>2024-08-12T02:19:12Z</time>
      </trkpt>
      <trkpt lat="44.86055" lon="6.49084">
        <ele>1256.2</ele>
        <time>2024-08-12T02:19:13Z</time>
      </trkpt>
      <trkpt lat="44.86053" lon="6.49084">
        <ele>1256.2</ele>
        <time>2024-08-12T02:19:14Z</time>
      </trkpt>
      <trkpt lat="44.86053" lon="6.49084">
        <ele>1256.2</ele>
        <time>2024-08-12T02:19:15Z</time>
      </trkpt>
      <trkpt lat="44.86049" lon="6.49083">
        <ele>1256.2</ele>
        <time>2024-08-12T02:19:16Z</time>
      </trkpt>
      <trkpt lat="44.86049" lon="6.49083">
        <ele>1256.2</ele>
        <time>2024-08-12T02:19:17Z</time>
      </trkpt>
      <trkpt lat="44.86047" lon="6.49082">
        <ele>1256.2</ele>
        <time>2024-08-12T02:19:18Z</time>
      </trkpt>
      <trkpt lat="44.86047" lon="6.49082">
        <ele>1256.2</ele>
        <time>2024-08-12T02:19:19Z</time>
      </trkpt>
      <trkpt lat="44.86044" lon="6.4908">
        <ele>1256.2</ele>
        <time>2024-08-12T02:19:20Z</time>
      </trkpt>
      <trkpt lat="44.86044" lon="6.4908">
        <ele>1256.2</ele>
        <time>2024-08-12T02:19:21Z</time>
      </trkpt>
      <trkpt lat="44.86041" lon="6.49078">
        <ele>1256.2</ele>
        <time>2024-08-12T02:19:22Z</time>
      </trkpt>
      <trkpt lat="44.86041" lon="6.49078">
        <ele>1256.2</ele>
        <time>2024-08-12T02:19:23Z</time>
      </trkpt>
      <trkpt lat="44.86039" lon="6.49076">
        <ele>1256</ele>
        <time>2024-08-12T02:19:24Z</time>
      </trkpt>
      <trkpt lat="44.86039" lon="6.49076">
        <ele>1256</ele>
        <time>2024-08-12T02:19:25Z</time>
      </trkpt>
      <trkpt lat="44.86036" lon="6.49076">
        <ele>1256.2</ele>
        <time>2024-08-12T02:19:26Z</time>
      </trkpt>
      <trkpt lat="44.86036" lon="6.49076">
        <ele>1256.2</ele>
        <time>2024-08-12T02:19:27Z</time>
      </trkpt>
      <trkpt lat="44.86033" lon="6.49076">
        <ele>1256</ele>
        <time>2024-08-12T02:19:28Z</time>
      </trkpt>
      <trkpt lat="44.86033" lon="6.49076">
        <ele>1256</ele>
        <time>2024-08-12T02:19:29Z</time>
      </trkpt>
      <trkpt lat="44.86029" lon="6.49076">
        <ele>1256</ele>
        <time>2024-08-12T02:19:30Z</time>
      </trkpt>
      <trkpt lat="44.86029" lon="6.49076">
        <ele>1256</ele>
        <time>2024-08-12T02:19:31Z</time>
      </trkpt>
      <trkpt lat="44.86026" lon="6.49076">
        <ele>1255.8</ele>
        <time>2024-08-12T02:19:32Z</time>
      </trkpt>
      <trkpt lat="44.86026" lon="6.49076">
        <ele>1255.8</ele>
        <time>2024-08-12T02:19:33Z</time>
      </trkpt>
      <trkpt lat="44.86023" lon="6.49074">
        <ele>1255.8</ele>
        <time>2024-08-12T02:19:34Z</time>
      </trkpt>
      <trkpt lat="44.86021" lon="6.49073">
        <ele>1255.8</ele>
        <time>2024-08-12T02:19:35Z</time>
      </trkpt>
      <trkpt lat="44.86021" lon="6.49073">
        <ele>1255.8</ele>
        <time>2024-08-12T02:19:36Z</time>
      </trkpt>
      <trkpt lat="44.86019" lon="6.49071">
        <ele>1256</ele>
        <time>2024-08-12T02:19:37Z</time>
      </trkpt>
      <trkpt lat="44.86016" lon="6.49072">
        <ele>1256.2</ele>
        <time>2024-08-12T02:19:38Z</time>
      </trkpt>
      <trkpt lat="44.86013" lon="6.49072">
        <ele>1256.2</ele>
        <time>2024-08-12T02:19:39Z</time>
      </trkpt>
      <trkpt lat="44.86011" lon="6.49072">
        <ele>1256</ele>
        <time>2024-08-12T02:19:40Z</time>
      </trkpt>
      <trkpt lat="44.86008" lon="6.49073">
        <ele>1256</ele>
        <time>2024-08-12T02:19:41Z</time>
      </trkpt>
      <trkpt lat="44.86006" lon="6.49074">
        <ele>1255.8</ele>
        <time>2024-08-12T02:19:42Z</time>
      </trkpt>
      <trkpt lat="44.86004" lon="6.49074">
        <ele>1255.8</ele>
        <time>2024-08-12T02:19:43Z</time>
      </trkpt>
      <trkpt lat="44.86002" lon="6.49073">
        <ele>1255.8</ele>
        <time>2024-08-12T02:19:44Z</time>
      </trkpt>
      <trkpt lat="44.86" lon="6.49073">
        <ele>1256</ele>
        <time>2024-08-12T02:19:45Z</time>
      </trkpt>
      <trkpt lat="44.86" lon="6.49073">
        <ele>1256.2</ele>
        <time>2024-08-12T02:19:46Z</time>
      </trkpt>
      <trkpt lat="44.85997" lon="6.49073">
        <ele>1256.2</ele>
        <time>2024-08-12T02:19:47Z</time>
      </trkpt>
      <trkpt lat="44.85994" lon="6.49073">
        <ele>1256</ele>
        <time>2024-08-12T02:19:48Z</time>
      </trkpt>
      <trkpt lat="44.85992" lon="6.49073">
        <ele>1255.8</ele>
        <time>2024-08-12T02:19:49Z</time>
      </trkpt>
      <trkpt lat="44.8599" lon="6.49073">
        <ele>1255.8</ele>
        <time>2024-08-12T02:19:50Z</time>
      </trkpt>
      <trkpt lat="44.85989" lon="6.49072">
        <ele>1255.8</ele>
        <time>2024-08-12T02:19:51Z</time>
      </trkpt>
      <trkpt lat="44.85987" lon="6.49071">
        <ele>1255.8</ele>
        <time>2024-08-12T02:19:52Z</time>
      </trkpt>
      <trkpt lat="44.85987" lon="6.49071">
        <ele>1255.8</ele>
        <time>2024-08-12T02:19:53Z</time>
      </trkpt>
      <trkpt lat="44.85984" lon="6.49071">
        <ele>1255.8</ele>
        <time>2024-08-12T02:19:54Z</time>
      </trkpt>
      <trkpt lat="44.85984" lon="6.49071">
        <ele>1255.8</ele>
        <time>2024-08-12T02:19:55Z</time>
      </trkpt>
      <trkpt lat="44.85981" lon="6.49071">
        <ele>1255.6</ele>
        <time>2024-08-12T02:19:56Z</time>
      </trkpt>
      <trkpt lat="44.85979" lon="6.49071">
        <ele>1255.4</ele>
        <time>2024-08-12T02:19:57Z</time>
      </trkpt>
      <trkpt lat="44.85979" lon="6.49071">
        <ele>1255.4</ele>
        <time>2024-08-12T02:19:58Z</time>
      </trkpt>
      <trkpt lat="44.85979" lon="6.49071">
        <ele>1255.4</ele>
        <time>2024-08-12T02:19:59Z</time>
      </trkpt>
      <trkpt lat="44.85976" lon="6.49072">
        <ele>1255.4</ele>
        <time>2024-08-12T02:20:00Z</time>
      </trkpt>
      <trkpt lat="44.85974" lon="6.49072">
        <ele>1255.4</ele>
        <time>2024-08-12T02:20:01Z</time>
      </trkpt>
      <trkpt lat="44.85974" lon="6.49072">
        <ele>1255.4</ele>
        <time>2024-08-12T02:20:02Z</time>
      </trkpt>
      <trkpt lat="44.85974" lon="6.49072">
        <ele>1255.4</ele>
        <time>2024-08-12T02:20:03Z</time>
      </trkpt>
      <trkpt lat="44.85973" lon="6.49073">
        <ele>1255.4</ele>
        <time>2024-08-12T02:20:04Z</time>
      </trkpt>
      <trkpt lat="44.85973" lon="6.49073">
        <ele>1255.4</ele>
        <time>2024-08-12T02:20:05Z</time>
      </trkpt>
      <trkpt lat="44.85969" lon="6.49073">
        <ele>1255.4</ele>
        <time>2024-08-12T02:20:06Z</time>
      </trkpt>
      <trkpt lat="44.85969" lon="6.49073">
        <ele>1255.4</ele>
        <time>2024-08-12T02:20:07Z</time>
      </trkpt>
      <trkpt lat="44.85966" lon="6.49074">
        <ele>1255.4</ele>
        <time>2024-08-12T02:20:08Z</time>
      </trkpt>
      <trkpt lat="44.85966" lon="6.49074">
        <ele>1255.2</ele>
        <time>2024-08-12T02:20:09Z</time>
      </trkpt>
      <trkpt lat="44.85964" lon="6.49075">
        <ele>1255</ele>
        <time>2024-08-12T02:20:10Z</time>
      </trkpt>
      <trkpt lat="44.85964" lon="6.49075">
        <ele>1255</ele>
        <time>2024-08-12T02:20:11Z</time>
      </trkpt>
      <trkpt lat="44.85961" lon="6.49075">
        <ele>1255</ele>
        <time>2024-08-12T02:20:12Z</time>
      </trkpt>
      <trkpt lat="44.85961" lon="6.49075">
        <ele>1255</ele>
        <time>2024-08-12T02:20:13Z</time>
      </trkpt>
      <trkpt lat="44.85958" lon="6.49077">
        <ele>1255</ele>
        <time>2024-08-12T02:20:14Z</time>
      </trkpt>
      <trkpt lat="44.85957" lon="6.49077">
        <ele>1255</ele>
        <time>2024-08-12T02:20:15Z</time>
      </trkpt>
      <trkpt lat="44.85954" lon="6.49077">
        <ele>1254.8</ele>
        <time>2024-08-12T02:20:16Z</time>
      </trkpt>
      <trkpt lat="44.85952" lon="6.49077">
        <ele>1254.8</ele>
        <time>2024-08-12T02:20:17Z</time>
      </trkpt>
      <trkpt lat="44.85949" lon="6.49077">
        <ele>1254.8</ele>
        <time>2024-08-12T02:20:18Z</time>
      </trkpt>
      <trkpt lat="44.85949" lon="6.49077">
        <ele>1254.6</ele>
        <time>2024-08-12T02:20:19Z</time>
      </trkpt>
      <trkpt lat="44.85946" lon="6.49077">
        <ele>1254.6</ele>
        <time>2024-08-12T02:20:20Z</time>
      </trkpt>
      <trkpt lat="44.85944" lon="6.49076">
        <ele>1254.6</ele>
        <time>2024-08-12T02:20:21Z</time>
      </trkpt>
      <trkpt lat="44.85944" lon="6.49076">
        <ele>1254.2</ele>
        <time>2024-08-12T02:20:22Z</time>
      </trkpt>
      <trkpt lat="44.85941" lon="6.49077">
        <ele>1254.2</ele>
        <time>2024-08-12T02:20:23Z</time>
      </trkpt>
      <trkpt lat="44.8594" lon="6.49078">
        <ele>1254.2</ele>
        <time>2024-08-12T02:20:24Z</time>
      </trkpt>
      <trkpt lat="44.85937" lon="6.49078">
        <ele>1254.2</ele>
        <time>2024-08-12T02:20:25Z</time>
      </trkpt>
      <trkpt lat="44.85937" lon="6.49078">
        <ele>1254.2</ele>
        <time>2024-08-12T02:20:26Z</time>
      </trkpt>
      <trkpt lat="44.85933" lon="6.49078">
        <ele>1254</ele>
        <time>2024-08-12T02:20:27Z</time>
      </trkpt>
      <trkpt lat="44.85932" lon="6.49078">
        <ele>1254</ele>
        <time>2024-08-12T02:20:28Z</time>
      </trkpt>
      <trkpt lat="44.85932" lon="6.49078">
        <ele>1254</ele>
        <time>2024-08-12T02:20:29Z</time>
      </trkpt>
      <trkpt lat="44.85929" lon="6.49078">
        <ele>1253.8</ele>
        <time>2024-08-12T02:20:30Z</time>
      </trkpt>
      <trkpt lat="44.85927" lon="6.49079">
        <ele>1253.6</ele>
        <time>2024-08-12T02:20:31Z</time>
      </trkpt>
      <trkpt lat="44.85927" lon="6.49079">
        <ele>1253.4</ele>
        <time>2024-08-12T02:20:32Z</time>
      </trkpt>
      <trkpt lat="44.85924" lon="6.4908">
        <ele>1253.4</ele>
        <time>2024-08-12T02:20:33Z</time>
      </trkpt>
      <trkpt lat="44.85924" lon="6.4908">
        <ele>1253.2</ele>
        <time>2024-08-12T02:20:34Z</time>
      </trkpt>
      <trkpt lat="44.85922" lon="6.4908">
        <ele>1253</ele>
        <time>2024-08-12T02:20:35Z</time>
      </trkpt>
      <trkpt lat="44.85922" lon="6.4908">
        <ele>1253</ele>
        <time>2024-08-12T02:20:36Z</time>
      </trkpt>
      <trkpt lat="44.8592" lon="6.49082">
        <ele>1253</ele>
        <time>2024-08-12T02:20:37Z</time>
      </trkpt>
      <trkpt lat="44.8592" lon="6.49082">
        <ele>1253</ele>
        <time>2024-08-12T02:20:38Z</time>
      </trkpt>
      <trkpt lat="44.85918" lon="6.49083">
        <ele>1253</ele>
        <time>2024-08-12T02:20:39Z</time>
      </trkpt>
      <trkpt lat="44.85918" lon="6.49083">
        <ele>1252.8</ele>
        <time>2024-08-12T02:20:40Z</time>
      </trkpt>
      <trkpt lat="44.85915" lon="6.49084">
        <ele>1252.8</ele>
        <time>2024-08-12T02:20:41Z</time>
      </trkpt>
      <trkpt lat="44.85913" lon="6.49085">
        <ele>1252.8</ele>
        <time>2024-08-12T02:20:42Z</time>
      </trkpt>
      <trkpt lat="44.85913" lon="6.49085">
        <ele>1252.8</ele>
        <time>2024-08-12T02:20:43Z</time>
      </trkpt>
      <trkpt lat="44.85911" lon="6.49085">
        <ele>1252.8</ele>
        <time>2024-08-12T02:20:44Z</time>
      </trkpt>
      <trkpt lat="44.85911" lon="6.49085">
        <ele>1252.6</ele>
        <time>2024-08-12T02:20:45Z</time>
      </trkpt>
      <trkpt lat="44.85908" lon="6.49086">
        <ele>1252.4</ele>
        <time>2024-08-12T02:20:46Z</time>
      </trkpt>
      <trkpt lat="44.85906" lon="6.49086">
        <ele>1252</ele>
        <time>2024-08-12T02:20:47Z</time>
      </trkpt>
      <trkpt lat="44.85906" lon="6.49086">
        <ele>1252</ele>
        <time>2024-08-12T02:20:48Z</time>
      </trkpt>
      <trkpt lat="44.85903" lon="6.49088">
        <ele>1251.8</ele>
        <time>2024-08-12T02:20:49Z</time>
      </trkpt>
      <trkpt lat="44.85903" lon="6.49088">
        <ele>1251.6</ele>
        <time>2024-08-12T02:20:50Z</time>
      </trkpt>
      <trkpt lat="44.85901" lon="6.49089">
        <ele>1251.4</ele>
        <time>2024-08-12T02:20:51Z</time>
      </trkpt>
      <trkpt lat="44.85901" lon="6.49089">
        <ele>1251.2</ele>
        <time>2024-08-12T02:20:52Z</time>
      </trkpt>
      <trkpt lat="44.85898" lon="6.4909">
        <ele>1251.2</ele>
        <time>2024-08-12T02:20:53Z</time>
      </trkpt>
      <trkpt lat="44.85898" lon="6.4909">
        <ele>1251.2</ele>
        <time>2024-08-12T02:20:54Z</time>
      </trkpt>
      <trkpt lat="44.85895" lon="6.49091">
        <ele>1251.2</ele>
        <time>2024-08-12T02:20:55Z</time>
      </trkpt>
      <trkpt lat="44.85895" lon="6.49091">
        <ele>1251</ele>
        <time>2024-08-12T02:20:56Z</time>
      </trkpt>
      <trkpt lat="44.85892" lon="6.49092">
        <ele>1251</ele>
        <time>2024-08-12T02:20:57Z</time>
      </trkpt>
      <trkpt lat="44.8589" lon="6.49092">
        <ele>1250.8</ele>
        <time>2024-08-12T02:20:58Z</time>
      </trkpt>
      <trkpt lat="44.8589" lon="6.49092">
        <ele>1250.8</ele>
        <time>2024-08-12T02:20:59Z</time>
      </trkpt>
      <trkpt lat="44.85887" lon="6.49092">
        <ele>1250.6</ele>
        <time>2024-08-12T02:21:00Z</time>
      </trkpt>
      <trkpt lat="44.85887" lon="6.49092">
        <ele>1250.6</ele>
        <time>2024-08-12T02:21:01Z</time>
      </trkpt>
      <trkpt lat="44.85885" lon="6.49093">
        <ele>1250.2</ele>
        <time>2024-08-12T02:21:02Z</time>
      </trkpt>
      <trkpt lat="44.85885" lon="6.49093">
        <ele>1250.2</ele>
        <time>2024-08-12T02:21:03Z</time>
      </trkpt>
      <trkpt lat="44.85881" lon="6.49093">
        <ele>1250.2</ele>
        <time>2024-08-12T02:21:04Z</time>
      </trkpt>
      <trkpt lat="44.85879" lon="6.49094">
        <ele>1250.4</ele>
        <time>2024-08-12T02:21:05Z</time>
      </trkpt>
      <trkpt lat="44.85879" lon="6.49094">
        <ele>1250.4</ele>
        <time>2024-08-12T02:21:06Z</time>
      </trkpt>
      <trkpt lat="44.85876" lon="6.49094">
        <ele>1250.2</ele>
        <time>2024-08-12T02:21:07Z</time>
      </trkpt>
      <trkpt lat="44.85874" lon="6.49094">
        <ele>1250</ele>
        <time>2024-08-12T02:21:08Z</time>
      </trkpt>
      <trkpt lat="44.85872" lon="6.49095">
        <ele>1250</ele>
        <time>2024-08-12T02:21:09Z</time>
      </trkpt>
      <trkpt lat="44.8587" lon="6.49095">
        <ele>1250</ele>
        <time>2024-08-12T02:21:10Z</time>
      </trkpt>
      <trkpt lat="44.85869" lon="6.49095">
        <ele>1250</ele>
        <time>2024-08-12T02:21:11Z</time>
      </trkpt>
      <trkpt lat="44.85869" lon="6.49095">
        <ele>1249.8</ele>
        <time>2024-08-12T02:21:12Z</time>
      </trkpt>
      <trkpt lat="44.85865" lon="6.49095">
        <ele>1249.4</ele>
        <time>2024-08-12T02:21:13Z</time>
      </trkpt>
      <trkpt lat="44.85863" lon="6.49095">
        <ele>1249.4</ele>
        <time>2024-08-12T02:21:14Z</time>
      </trkpt>
      <trkpt lat="44.85862" lon="6.49095">
        <ele>1249.4</ele>
        <time>2024-08-12T02:21:15Z</time>
      </trkpt>
      <trkpt lat="44.85861" lon="6.49095">
        <ele>1249.4</ele>
        <time>2024-08-12T02:21:16Z</time>
      </trkpt>
      <trkpt lat="44.85861" lon="6.49096">
        <ele>1249.4</ele>
        <time>2024-08-12T02:21:17Z</time>
      </trkpt>
      <trkpt lat="44.85858" lon="6.49097">
        <ele>1249.4</ele>
        <time>2024-08-12T02:21:18Z</time>
      </trkpt>
      <trkpt lat="44.85858" lon="6.49097">
        <ele>1249.2</ele>
        <time>2024-08-12T02:21:19Z</time>
      </trkpt>
      <trkpt lat="44.85855" lon="6.49099">
        <ele>1249.2</ele>
        <time>2024-08-12T02:21:20Z</time>
      </trkpt>
      <trkpt lat="44.85855" lon="6.49099">
        <ele>1249.2</ele>
        <time>2024-08-12T02:21:21Z</time>
      </trkpt>
      <trkpt lat="44.85853" lon="6.491">
        <ele>1249</ele>
        <time>2024-08-12T02:21:22Z</time>
      </trkpt>
      <trkpt lat="44.85853" lon="6.491">
        <ele>1248.8</ele>
        <time>2024-08-12T02:21:23Z</time>
      </trkpt>
      <trkpt lat="44.85849" lon="6.49101">
        <ele>1248.8</ele>
        <time>2024-08-12T02:21:24Z</time>
      </trkpt>
      <trkpt lat="44.85847" lon="6.49102">
        <ele>1248.8</ele>
        <time>2024-08-12T02:21:25Z</time>
      </trkpt>
      <trkpt lat="44.85845" lon="6.49103">
        <ele>1248.6</ele>
        <time>2024-08-12T02:21:26Z</time>
      </trkpt>
      <trkpt lat="44.85843" lon="6.49103">
        <ele>1248.6</ele>
        <time>2024-08-12T02:21:27Z</time>
      </trkpt>
      <trkpt lat="44.85843" lon="6.49103">
        <ele>1248.4</ele>
        <time>2024-08-12T02:21:28Z</time>
      </trkpt>
      <trkpt lat="44.8584" lon="6.49105">
        <ele>1248.4</ele>
        <time>2024-08-12T02:21:29Z</time>
      </trkpt>
      <trkpt lat="44.85838" lon="6.49105">
        <ele>1248.4</ele>
        <time>2024-08-12T02:21:30Z</time>
      </trkpt>
      <trkpt lat="44.85838" lon="6.49105">
        <ele>1248.2</ele>
        <time>2024-08-12T02:21:31Z</time>
      </trkpt>
      <trkpt lat="44.85835" lon="6.49106">
        <ele>1248.2</ele>
        <time>2024-08-12T02:21:32Z</time>
      </trkpt>
      <trkpt lat="44.85835" lon="6.49106">
        <ele>1248.2</ele>
        <time>2024-08-12T02:21:33Z</time>
      </trkpt>
      <trkpt lat="44.85833" lon="6.49106">
        <ele>1248</ele>
        <time>2024-08-12T02:21:34Z</time>
      </trkpt>
      <trkpt lat="44.85833" lon="6.49106">
        <ele>1247.8</ele>
        <time>2024-08-12T02:21:35Z</time>
      </trkpt>
      <trkpt lat="44.85831" lon="6.49105">
        <ele>1247.8</ele>
        <time>2024-08-12T02:21:36Z</time>
      </trkpt>
      <trkpt lat="44.85831" lon="6.49105">
        <ele>1247.8</ele>
        <time>2024-08-12T02:21:37Z</time>
      </trkpt>
      <trkpt lat="44.85828" lon="6.49105">
        <ele>1247.8</ele>
        <time>2024-08-12T02:21:38Z</time>
      </trkpt>
      <trkpt lat="44.85826" lon="6.49106">
        <ele>1247.6</ele>
        <time>2024-08-12T02:21:39Z</time>
      </trkpt>
      <trkpt lat="44.85826" lon="6.49106">
        <ele>1247.6</ele>
        <time>2024-08-12T02:21:40Z</time>
      </trkpt>
      <trkpt lat="44.85823" lon="6.49106">
        <ele>1247.6</ele>
        <time>2024-08-12T02:21:41Z</time>
      </trkpt>
      <trkpt lat="44.85823" lon="6.49106">
        <ele>1247.6</ele>
        <time>2024-08-12T02:21:42Z</time>
      </trkpt>
      <trkpt lat="44.8582" lon="6.49107">
        <ele>1247.4</ele>
        <time>2024-08-12T02:21:43Z</time>
      </trkpt>
      <trkpt lat="44.8582" lon="6.49107">
        <ele>1247.4</ele>
        <time>2024-08-12T02:21:44Z</time>
      </trkpt>
      <trkpt lat="44.85816" lon="6.49107">
        <ele>1247.2</ele>
        <time>2024-08-12T02:21:45Z</time>
      </trkpt>
      <trkpt lat="44.85816" lon="6.49107">
        <ele>1247.2</ele>
        <time>2024-08-12T02:21:46Z</time>
      </trkpt>
      <trkpt lat="44.85813" lon="6.49108">
        <ele>1247</ele>
        <time>2024-08-12T02:21:47Z</time>
      </trkpt>
      <trkpt lat="44.85813" lon="6.49108">
        <ele>1247</ele>
        <time>2024-08-12T02:21:48Z</time>
      </trkpt>
      <trkpt lat="44.85811" lon="6.49109">
        <ele>1246.8</ele>
        <time>2024-08-12T02:21:49Z</time>
      </trkpt>
      <trkpt lat="44.85811" lon="6.49109">
        <ele>1246.8</ele>
        <time>2024-08-12T02:21:50Z</time>
      </trkpt>
      <trkpt lat="44.85808" lon="6.49109">
        <ele>1246.6</ele>
        <time>2024-08-12T02:21:51Z</time>
      </trkpt>
      <trkpt lat="44.85808" lon="6.49109">
        <ele>1246.6</ele>
        <time>2024-08-12T02:21:52Z</time>
      </trkpt>
      <trkpt lat="44.85805" lon="6.4911">
        <ele>1246.4</ele>
        <time>2024-08-12T02:21:53Z</time>
      </trkpt>
      <trkpt lat="44.85804" lon="6.49111">
        <ele>1246.4</ele>
        <time>2024-08-12T02:21:54Z</time>
      </trkpt>
      <trkpt lat="44.85802" lon="6.49111">
        <ele>1246.4</ele>
        <time>2024-08-12T02:21:55Z</time>
      </trkpt>
      <trkpt lat="44.85802" lon="6.49111">
        <ele>1246.4</ele>
        <time>2024-08-12T02:21:56Z</time>
      </trkpt>
      <trkpt lat="44.85799" lon="6.49112">
        <ele>1246</ele>
        <time>2024-08-12T02:21:57Z</time>
      </trkpt>
      <trkpt lat="44.85797" lon="6.49113">
        <ele>1246</ele>
        <time>2024-08-12T02:21:58Z</time>
      </trkpt>
      <trkpt lat="44.85795" lon="6.49113">
        <ele>1246</ele>
        <time>2024-08-12T02:21:59Z</time>
      </trkpt>
      <trkpt lat="44.85795" lon="6.49113">
        <ele>1246</ele>
        <time>2024-08-12T02:22:00Z</time>
      </trkpt>
      <trkpt lat="44.85792" lon="6.49114">
        <ele>1246</ele>
        <time>2024-08-12T02:22:01Z</time>
      </trkpt>
      <trkpt lat="44.85792" lon="6.49114">
        <ele>1245.6</ele>
        <time>2024-08-12T02:22:02Z</time>
      </trkpt>
      <trkpt lat="44.85789" lon="6.49115">
        <ele>1245.6</ele>
        <time>2024-08-12T02:22:03Z</time>
      </trkpt>
      <trkpt lat="44.85789" lon="6.49115">
        <ele>1245.4</ele>
        <time>2024-08-12T02:22:04Z</time>
      </trkpt>
      <trkpt lat="44.85786" lon="6.49117">
        <ele>1245.4</ele>
        <time>2024-08-12T02:22:05Z</time>
      </trkpt>
      <trkpt lat="44.85786" lon="6.49117">
        <ele>1245.4</ele>
        <time>2024-08-12T02:22:06Z</time>
      </trkpt>
      <trkpt lat="44.85783" lon="6.49119">
        <ele>1245.2</ele>
        <time>2024-08-12T02:22:07Z</time>
      </trkpt>
      <trkpt lat="44.85783" lon="6.49119">
        <ele>1245.2</ele>
        <time>2024-08-12T02:22:08Z</time>
      </trkpt>
      <trkpt lat="44.8578" lon="6.4912">
        <ele>1245.2</ele>
        <time>2024-08-12T02:22:09Z</time>
      </trkpt>
      <trkpt lat="44.85778" lon="6.49119">
        <ele>1245.2</ele>
        <time>2024-08-12T02:22:10Z</time>
      </trkpt>
      <trkpt lat="44.85778" lon="6.49119">
        <ele>1245.2</ele>
        <time>2024-08-12T02:22:11Z</time>
      </trkpt>
      <trkpt lat="44.85775" lon="6.4912">
        <ele>1245.2</ele>
        <time>2024-08-12T02:22:12Z</time>
      </trkpt>
      <trkpt lat="44.85773" lon="6.4912">
        <ele>1245.2</ele>
        <time>2024-08-12T02:22:13Z</time>
      </trkpt>
      <trkpt lat="44.85771" lon="6.49121">
        <ele>1245</ele>
        <time>2024-08-12T02:22:14Z</time>
      </trkpt>
      <trkpt lat="44.85771" lon="6.49121">
        <ele>1245</ele>
        <time>2024-08-12T02:22:15Z</time>
      </trkpt>
      <trkpt lat="44.85769" lon="6.49121">
        <ele>1244.8</ele>
        <time>2024-08-12T02:22:16Z</time>
      </trkpt>
      <trkpt lat="44.85769" lon="6.49121">
        <ele>1244.6</ele>
        <time>2024-08-12T02:22:17Z</time>
      </trkpt>
      <trkpt lat="44.85767" lon="6.4912">
        <ele>1244.4</ele>
        <time>2024-08-12T02:22:18Z</time>
      </trkpt>
      <trkpt lat="44.85767" lon="6.4912">
        <ele>1244.4</ele>
        <time>2024-08-12T02:22:19Z</time>
      </trkpt>
      <trkpt lat="44.85763" lon="6.49121">
        <ele>1244.4</ele>
        <time>2024-08-12T02:22:20Z</time>
      </trkpt>
      <trkpt lat="44.85763" lon="6.49121">
        <ele>1244.2</ele>
        <time>2024-08-12T02:22:21Z</time>
      </trkpt>
      <trkpt lat="44.85761" lon="6.49122">
        <ele>1244.2</ele>
        <time>2024-08-12T02:22:22Z</time>
      </trkpt>
      <trkpt lat="44.85758" lon="6.49122">
        <ele>1244.2</ele>
        <time>2024-08-12T02:22:23Z</time>
      </trkpt>
      <trkpt lat="44.85756" lon="6.49123">
        <ele>1244</ele>
        <time>2024-08-12T02:22:24Z</time>
      </trkpt>
      <trkpt lat="44.85756" lon="6.49123">
        <ele>1243.8</ele>
        <time>2024-08-12T02:22:25Z</time>
      </trkpt>
      <trkpt lat="44.85754" lon="6.49122">
        <ele>1243.8</ele>
        <time>2024-08-12T02:22:26Z</time>
      </trkpt>
      <trkpt lat="44.85754" lon="6.49122">
        <ele>1243.8</ele>
        <time>2024-08-12T02:22:27Z</time>
      </trkpt>
      <trkpt lat="44.85751" lon="6.49123">
        <ele>1243.8</ele>
        <time>2024-08-12T02:22:28Z</time>
      </trkpt>
      <trkpt lat="44.85751" lon="6.49123">
        <ele>1243.6</ele>
        <time>2024-08-12T02:22:29Z</time>
      </trkpt>
      <trkpt lat="44.85748" lon="6.49125">
        <ele>1243.4</ele>
        <time>2024-08-12T02:22:30Z</time>
      </trkpt>
      <trkpt lat="44.85748" lon="6.49125">
        <ele>1243.2</ele>
        <time>2024-08-12T02:22:31Z</time>
      </trkpt>
      <trkpt lat="44.85745" lon="6.49126">
        <ele>1243.2</ele>
        <time>2024-08-12T02:22:32Z</time>
      </trkpt>
      <trkpt lat="44.85743" lon="6.49126">
        <ele>1243.2</ele>
        <time>2024-08-12T02:22:33Z</time>
      </trkpt>
      <trkpt lat="44.85743" lon="6.49126">
        <ele>1243.2</ele>
        <time>2024-08-12T02:22:34Z</time>
      </trkpt>
      <trkpt lat="44.8574" lon="6.49125">
        <ele>1243</ele>
        <time>2024-08-12T02:22:35Z</time>
      </trkpt>
      <trkpt lat="44.85738" lon="6.49125">
        <ele>1243</ele>
        <time>2024-08-12T02:22:36Z</time>
      </trkpt>
      <trkpt lat="44.85738" lon="6.49125">
        <ele>1243</ele>
        <time>2024-08-12T02:22:37Z</time>
      </trkpt>
      <trkpt lat="44.85736" lon="6.49124">
        <ele>1242.8</ele>
        <time>2024-08-12T02:22:38Z</time>
      </trkpt>
      <trkpt lat="44.85736" lon="6.49124">
        <ele>1242.6</ele>
        <time>2024-08-12T02:22:39Z</time>
      </trkpt>
      <trkpt lat="44.85734" lon="6.49124">
        <ele>1242.6</ele>
        <time>2024-08-12T02:22:40Z</time>
      </trkpt>
      <trkpt lat="44.85732" lon="6.49124">
        <ele>1242.2</ele>
        <time>2024-08-12T02:22:41Z</time>
      </trkpt>
      <trkpt lat="44.85732" lon="6.49124">
        <ele>1242.2</ele>
        <time>2024-08-12T02:22:42Z</time>
      </trkpt>
      <trkpt lat="44.85729" lon="6.49124">
        <ele>1242.2</ele>
        <time>2024-08-12T02:22:43Z</time>
      </trkpt>
      <trkpt lat="44.85729" lon="6.49124">
        <ele>1242</ele>
        <time>2024-08-12T02:22:44Z</time>
      </trkpt>
      <trkpt lat="44.85726" lon="6.49125">
        <ele>1242</ele>
        <time>2024-08-12T02:22:45Z</time>
      </trkpt>
      <trkpt lat="44.85726" lon="6.49125">
        <ele>1241.8</ele>
        <time>2024-08-12T02:22:46Z</time>
      </trkpt>
      <trkpt lat="44.85723" lon="6.49127">
        <ele>1241.8</ele>
        <time>2024-08-12T02:22:47Z</time>
      </trkpt>
      <trkpt lat="44.85723" lon="6.49127">
        <ele>1242</ele>
        <time>2024-08-12T02:22:48Z</time>
      </trkpt>
      <trkpt lat="44.8572" lon="6.49128">
        <ele>1242</ele>
        <time>2024-08-12T02:22:49Z</time>
      </trkpt>
      <trkpt lat="44.8572" lon="6.49128">
        <ele>1242</ele>
        <time>2024-08-12T02:22:50Z</time>
      </trkpt>
      <trkpt lat="44.85717" lon="6.49128">
        <ele>1242</ele>
        <time>2024-08-12T02:22:51Z</time>
      </trkpt>
      <trkpt lat="44.85717" lon="6.49128">
        <ele>1241.6</ele>
        <time>2024-08-12T02:22:52Z</time>
      </trkpt>
      <trkpt lat="44.85714" lon="6.49129">
        <ele>1241.6</ele>
        <time>2024-08-12T02:22:53Z</time>
      </trkpt>
      <trkpt lat="44.85714" lon="6.49129">
        <ele>1241.4</ele>
        <time>2024-08-12T02:22:54Z</time>
      </trkpt>
      <trkpt lat="44.85711" lon="6.4913">
        <ele>1241.4</ele>
        <time>2024-08-12T02:22:55Z</time>
      </trkpt>
      <trkpt lat="44.85709" lon="6.49131">
        <ele>1241.2</ele>
        <time>2024-08-12T02:22:56Z</time>
      </trkpt>
      <trkpt lat="44.85709" lon="6.49131">
        <ele>1241</ele>
        <time>2024-08-12T02:22:57Z</time>
      </trkpt>
      <trkpt lat="44.85706" lon="6.49132">
        <ele>1241</ele>
        <time>2024-08-12T02:22:58Z</time>
      </trkpt>
      <trkpt lat="44.85704" lon="6.49133">
        <ele>1241.2</ele>
        <time>2024-08-12T02:22:59Z</time>
      </trkpt>
      <trkpt lat="44.85704" lon="6.49133">
        <ele>1241.2</ele>
        <time>2024-08-12T02:23:00Z</time>
      </trkpt>
      <trkpt lat="44.85701" lon="6.49134">
        <ele>1241</ele>
        <time>2024-08-12T02:23:01Z</time>
      </trkpt>
      <trkpt lat="44.85701" lon="6.49134">
        <ele>1241.2</ele>
        <time>2024-08-12T02:23:02Z</time>
      </trkpt>
      <trkpt lat="44.85698" lon="6.49136">
        <ele>1241.2</ele>
        <time>2024-08-12T02:23:03Z</time>
      </trkpt>
      <trkpt lat="44.85698" lon="6.49136">
        <ele>1241.4</ele>
        <time>2024-08-12T02:23:04Z</time>
      </trkpt>
      <trkpt lat="44.85696" lon="6.49138">
        <ele>1241.4</ele>
        <time>2024-08-12T02:23:05Z</time>
      </trkpt>
      <trkpt lat="44.85696" lon="6.49138">
        <ele>1241.4</ele>
        <time>2024-08-12T02:23:06Z</time>
      </trkpt>
      <trkpt lat="44.85693" lon="6.49139">
        <ele>1241.2</ele>
        <time>2024-08-12T02:23:07Z</time>
      </trkpt>
      <trkpt lat="44.85693" lon="6.49139">
        <ele>1241.2</ele>
        <time>2024-08-12T02:23:08Z</time>
      </trkpt>
      <trkpt lat="44.85691" lon="6.49141">
        <ele>1240.8</ele>
        <time>2024-08-12T02:23:09Z</time>
      </trkpt>
      <trkpt lat="44.85691" lon="6.49141">
        <ele>1240.6</ele>
        <time>2024-08-12T02:23:10Z</time>
      </trkpt>
      <trkpt lat="44.85688" lon="6.49142">
        <ele>1240.6</ele>
        <time>2024-08-12T02:23:11Z</time>
      </trkpt>
      <trkpt lat="44.85688" lon="6.49142">
        <ele>1240.6</ele>
        <time>2024-08-12T02:23:12Z</time>
      </trkpt>
      <trkpt lat="44.85685" lon="6.49144">
        <ele>1240.6</ele>
        <time>2024-08-12T02:23:13Z</time>
      </trkpt>
      <trkpt lat="44.85685" lon="6.49144">
        <ele>1240.4</ele>
        <time>2024-08-12T02:23:14Z</time>
      </trkpt>
      <trkpt lat="44.85683" lon="6.49146">
        <ele>1240</ele>
        <time>2024-08-12T02:23:15Z</time>
      </trkpt>
      <trkpt lat="44.85683" lon="6.49146">
        <ele>1240</ele>
        <time>2024-08-12T02:23:16Z</time>
      </trkpt>
      <trkpt lat="44.8568" lon="6.49148">
        <ele>1240</ele>
        <time>2024-08-12T02:23:17Z</time>
      </trkpt>
      <trkpt lat="44.8568" lon="6.49148">
        <ele>1240</ele>
        <time>2024-08-12T02:23:18Z</time>
      </trkpt>
      <trkpt lat="44.85677" lon="6.4915">
        <ele>1240</ele>
        <time>2024-08-12T02:23:19Z</time>
      </trkpt>
      <trkpt lat="44.85677" lon="6.4915">
        <ele>1240</ele>
        <time>2024-08-12T02:23:20Z</time>
      </trkpt>
      <trkpt lat="44.85674" lon="6.49151">
        <ele>1240</ele>
        <time>2024-08-12T02:23:21Z</time>
      </trkpt>
      <trkpt lat="44.85674" lon="6.49151">
        <ele>1239.8</ele>
        <time>2024-08-12T02:23:22Z</time>
      </trkpt>
      <trkpt lat="44.85672" lon="6.49153">
        <ele>1239.8</ele>
        <time>2024-08-12T02:23:23Z</time>
      </trkpt>
      <trkpt lat="44.85672" lon="6.49153">
        <ele>1239.8</ele>
        <time>2024-08-12T02:23:24Z</time>
      </trkpt>
      <trkpt lat="44.85669" lon="6.49153">
        <ele>1239.8</ele>
        <time>2024-08-12T02:23:25Z</time>
      </trkpt>
      <trkpt lat="44.85669" lon="6.49153">
        <ele>1239.8</ele>
        <time>2024-08-12T02:23:26Z</time>
      </trkpt>
      <trkpt lat="44.85669" lon="6.49153">
        <ele>1239.6</ele>
        <time>2024-08-12T02:23:27Z</time>
      </trkpt>
      <trkpt lat="44.85669" lon="6.49156">
        <ele>1239.4</ele>
        <time>2024-08-12T02:23:28Z</time>
      </trkpt>
      <trkpt lat="44.85669" lon="6.49156">
        <ele>1239.4</ele>
        <time>2024-08-12T02:23:29Z</time>
      </trkpt>
      <trkpt lat="44.85666" lon="6.49158">
        <ele>1239.6</ele>
        <time>2024-08-12T02:23:30Z</time>
      </trkpt>
      <trkpt lat="44.85666" lon="6.49158">
        <ele>1239.6</ele>
        <time>2024-08-12T02:23:31Z</time>
      </trkpt>
      <trkpt lat="44.85663" lon="6.49159">
        <ele>1239.6</ele>
        <time>2024-08-12T02:23:32Z</time>
      </trkpt>
      <trkpt lat="44.85663" lon="6.49159">
        <ele>1239.4</ele>
        <time>2024-08-12T02:23:33Z</time>
      </trkpt>
      <trkpt lat="44.85661" lon="6.49161">
        <ele>1239.4</ele>
        <time>2024-08-12T02:23:34Z</time>
      </trkpt>
      <trkpt lat="44.85661" lon="6.49161">
        <ele>1239.4</ele>
        <time>2024-08-12T02:23:35Z</time>
      </trkpt>
      <trkpt lat="44.85658" lon="6.49163">
        <ele>1239.4</ele>
        <time>2024-08-12T02:23:36Z</time>
      </trkpt>
      <trkpt lat="44.85658" lon="6.49163">
        <ele>1239.4</ele>
        <time>2024-08-12T02:23:37Z</time>
      </trkpt>
      <trkpt lat="44.85656" lon="6.49164">
        <ele>1239.4</ele>
        <time>2024-08-12T02:23:38Z</time>
      </trkpt>
      <trkpt lat="44.85656" lon="6.49164">
        <ele>1239.4</ele>
        <time>2024-08-12T02:23:39Z</time>
      </trkpt>
      <trkpt lat="44.85653" lon="6.49166">
        <ele>1239.2</ele>
        <time>2024-08-12T02:23:40Z</time>
      </trkpt>
      <trkpt lat="44.85653" lon="6.49166">
        <ele>1239.2</ele>
        <time>2024-08-12T02:23:41Z</time>
      </trkpt>
      <trkpt lat="44.85651" lon="6.49169">
        <ele>1239</ele>
        <time>2024-08-12T02:23:42Z</time>
      </trkpt>
      <trkpt lat="44.85651" lon="6.49169">
        <ele>1239</ele>
        <time>2024-08-12T02:23:43Z</time>
      </trkpt>
      <trkpt lat="44.85648" lon="6.4917">
        <ele>1239</ele>
        <time>2024-08-12T02:23:44Z</time>
      </trkpt>
      <trkpt lat="44.85648" lon="6.4917">
        <ele>1239</ele>
        <time>2024-08-12T02:23:45Z</time>
      </trkpt>
      <trkpt lat="44.85645" lon="6.49173">
        <ele>1239</ele>
        <time>2024-08-12T02:23:46Z</time>
      </trkpt>
      <trkpt lat="44.85645" lon="6.49173">
        <ele>1238.8</ele>
        <time>2024-08-12T02:23:47Z</time>
      </trkpt>
      <trkpt lat="44.85643" lon="6.49175">
        <ele>1238.6</ele>
        <time>2024-08-12T02:23:48Z</time>
      </trkpt>
      <trkpt lat="44.85643" lon="6.49175">
        <ele>1238.6</ele>
        <time>2024-08-12T02:23:49Z</time>
      </trkpt>
      <trkpt lat="44.8564" lon="6.49176">
        <ele>1238.6</ele>
        <time>2024-08-12T02:23:50Z</time>
      </trkpt>
      <trkpt lat="44.8564" lon="6.49176">
        <ele>1238.6</ele>
        <time>2024-08-12T02:23:51Z</time>
      </trkpt>
      <trkpt lat="44.85638" lon="6.49178">
        <ele>1238.6</ele>
        <time>2024-08-12T02:23:52Z</time>
      </trkpt>
      <trkpt lat="44.85636" lon="6.49179">
        <ele>1238.4</ele>
        <time>2024-08-12T02:23:53Z</time>
      </trkpt>
      <trkpt lat="44.85636" lon="6.49179">
        <ele>1238.4</ele>
        <time>2024-08-12T02:23:54Z</time>
      </trkpt>
      <trkpt lat="44.85633" lon="6.49183">
        <ele>1238.4</ele>
        <time>2024-08-12T02:23:55Z</time>
      </trkpt>
      <trkpt lat="44.85633" lon="6.49183">
        <ele>1238.4</ele>
        <time>2024-08-12T02:23:56Z</time>
      </trkpt>
      <trkpt lat="44.8563" lon="6.49187">
        <ele>1238.2</ele>
        <time>2024-08-12T02:23:57Z</time>
      </trkpt>
      <trkpt lat="44.85629" lon="6.49189">
        <ele>1238.2</ele>
        <time>2024-08-12T02:23:58Z</time>
      </trkpt>
      <trkpt lat="44.85627" lon="6.49191">
        <ele>1238</ele>
        <time>2024-08-12T02:23:59Z</time>
      </trkpt>
      <trkpt lat="44.85625" lon="6.49194">
        <ele>1238</ele>
        <time>2024-08-12T02:24:00Z</time>
      </trkpt>
      <trkpt lat="44.85625" lon="6.49194">
        <ele>1238</ele>
        <time>2024-08-12T02:24:01Z</time>
      </trkpt>
      <trkpt lat="44.85622" lon="6.49196">
        <ele>1237.8</ele>
        <time>2024-08-12T02:24:02Z</time>
      </trkpt>
      <trkpt lat="44.85622" lon="6.49196">
        <ele>1237.8</ele>
        <time>2024-08-12T02:24:03Z</time>
      </trkpt>
      <trkpt lat="44.85619" lon="6.49197">
        <ele>1238</ele>
        <time>2024-08-12T02:24:04Z</time>
      </trkpt>
      <trkpt lat="44.85619" lon="6.49197">
        <ele>1238</ele>
        <time>2024-08-12T02:24:05Z</time>
      </trkpt>
      <trkpt lat="44.85616" lon="6.49199">
        <ele>1237.8</ele>
        <time>2024-08-12T02:24:06Z</time>
      </trkpt>
      <trkpt lat="44.85616" lon="6.49199">
        <ele>1237.8</ele>
        <time>2024-08-12T02:24:07Z</time>
      </trkpt>
      <trkpt lat="44.85614" lon="6.49201">
        <ele>1237.8</ele>
        <time>2024-08-12T02:24:08Z</time>
      </trkpt>
      <trkpt lat="44.85614" lon="6.49201">
        <ele>1237.6</ele>
        <time>2024-08-12T02:24:09Z</time>
      </trkpt>
      <trkpt lat="44.85611" lon="6.49203">
        <ele>1237.6</ele>
        <time>2024-08-12T02:24:10Z</time>
      </trkpt>
      <trkpt lat="44.85611" lon="6.49203">
        <ele>1237.6</ele>
        <time>2024-08-12T02:24:11Z</time>
      </trkpt>
      <trkpt lat="44.85608" lon="6.49204">
        <ele>1237.4</ele>
        <time>2024-08-12T02:24:12Z</time>
      </trkpt>
      <trkpt lat="44.85608" lon="6.49204">
        <ele>1237.4</ele>
        <time>2024-08-12T02:24:13Z</time>
      </trkpt>
      <trkpt lat="44.85605" lon="6.49206">
        <ele>1237.4</ele>
        <time>2024-08-12T02:24:14Z</time>
      </trkpt>
      <trkpt lat="44.85605" lon="6.49206">
        <ele>1237.4</ele>
        <time>2024-08-12T02:24:15Z</time>
      </trkpt>
      <trkpt lat="44.85603" lon="6.49207">
        <ele>1237.2</ele>
        <time>2024-08-12T02:24:16Z</time>
      </trkpt>
      <trkpt lat="44.85603" lon="6.49207">
        <ele>1237.2</ele>
        <time>2024-08-12T02:24:17Z</time>
      </trkpt>
      <trkpt lat="44.856" lon="6.49209">
        <ele>1237.2</ele>
        <time>2024-08-12T02:24:18Z</time>
      </trkpt>
      <trkpt lat="44.856" lon="6.49209">
        <ele>1237</ele>
        <time>2024-08-12T02:24:19Z</time>
      </trkpt>
      <trkpt lat="44.85598" lon="6.4921">
        <ele>1237</ele>
        <time>2024-08-12T02:24:20Z</time>
      </trkpt>
      <trkpt lat="44.85598" lon="6.4921">
        <ele>1236.8</ele>
        <time>2024-08-12T02:24:21Z</time>
      </trkpt>
      <trkpt lat="44.85595" lon="6.49212">
        <ele>1236.6</ele>
        <time>2024-08-12T02:24:22Z</time>
      </trkpt>
      <trkpt lat="44.85595" lon="6.49212">
        <ele>1236.6</ele>
        <time>2024-08-12T02:24:23Z</time>
      </trkpt>
      <trkpt lat="44.85593" lon="6.49213">
        <ele>1236.6</ele>
        <time>2024-08-12T02:24:24Z</time>
      </trkpt>
      <trkpt lat="44.85593" lon="6.49213">
        <ele>1236.4</ele>
        <time>2024-08-12T02:24:25Z</time>
      </trkpt>
      <trkpt lat="44.8559" lon="6.49216">
        <ele>1236.2</ele>
        <time>2024-08-12T02:24:26Z</time>
      </trkpt>
      <trkpt lat="44.85589" lon="6.49217">
        <ele>1236.2</ele>
        <time>2024-08-12T02:24:27Z</time>
      </trkpt>
      <trkpt lat="44.85589" lon="6.49217">
        <ele>1236.2</ele>
        <time>2024-08-12T02:24:28Z</time>
      </trkpt>
      <trkpt lat="44.85587" lon="6.49219">
        <ele>1236.2</ele>
        <time>2024-08-12T02:24:29Z</time>
      </trkpt>
      <trkpt lat="44.85585" lon="6.49221">
        <ele>1236.2</ele>
        <time>2024-08-12T02:24:30Z</time>
      </trkpt>
      <trkpt lat="44.85585" lon="6.49221">
        <ele>1236.2</ele>
        <time>2024-08-12T02:24:31Z</time>
      </trkpt>
      <trkpt lat="44.85582" lon="6.49222">
        <ele>1235.8</ele>
        <time>2024-08-12T02:24:32Z</time>
      </trkpt>
      <trkpt lat="44.85582" lon="6.49222">
        <ele>1235.6</ele>
        <time>2024-08-12T02:24:33Z</time>
      </trkpt>
      <trkpt lat="44.8558" lon="6.49224">
        <ele>1235.6</ele>
        <time>2024-08-12T02:24:34Z</time>
      </trkpt>
      <trkpt lat="44.85578" lon="6.49226">
        <ele>1235.4</ele>
        <time>2024-08-12T02:24:35Z</time>
      </trkpt>
      <trkpt lat="44.85578" lon="6.49226">
        <ele>1235.2</ele>
        <time>2024-08-12T02:24:36Z</time>
      </trkpt>
      <trkpt lat="44.85575" lon="6.49228">
        <ele>1235.2</ele>
        <time>2024-08-12T02:24:37Z</time>
      </trkpt>
      <trkpt lat="44.85575" lon="6.49228">
        <ele>1235</ele>
        <time>2024-08-12T02:24:38Z</time>
      </trkpt>
      <trkpt lat="44.85573" lon="6.4923">
        <ele>1235</ele>
        <time>2024-08-12T02:24:39Z</time>
      </trkpt>
      <trkpt lat="44.85573" lon="6.4923">
        <ele>1235</ele>
        <time>2024-08-12T02:24:40Z</time>
      </trkpt>
      <trkpt lat="44.85571" lon="6.49231">
        <ele>1234.6</ele>
        <time>2024-08-12T02:24:41Z</time>
      </trkpt>
      <trkpt lat="44.85571" lon="6.49231">
        <ele>1234.6</ele>
        <time>2024-08-12T02:24:42Z</time>
      </trkpt>
      <trkpt lat="44.85571" lon="6.49231">
        <ele>1234.4</ele>
        <time>2024-08-12T02:24:43Z</time>
      </trkpt>
      <trkpt lat="44.85571" lon="6.49231">
        <ele>1234.4</ele>
        <time>2024-08-12T02:24:44Z</time>
      </trkpt>
      <trkpt lat="44.85571" lon="6.49231">
        <ele>1234.4</ele>
        <time>2024-08-12T02:24:45Z</time>
      </trkpt>
      <trkpt lat="44.85571" lon="6.49231">
        <ele>1234.6</ele>
        <time>2024-08-12T02:24:46Z</time>
      </trkpt>
      <trkpt lat="44.85571" lon="6.49231">
        <ele>1234.6</ele>
        <time>2024-08-12T02:24:47Z</time>
      </trkpt>
      <trkpt lat="44.85571" lon="6.49231">
        <ele>1234.6</ele>
        <time>2024-08-12T02:24:48Z</time>
      </trkpt>
      <trkpt lat="44.85571" lon="6.49231">
        <ele>1234.6</ele>
        <time>2024-08-12T02:24:49Z</time>
      </trkpt>
      <trkpt lat="44.85571" lon="6.49231">
        <ele>1234.6</ele>
        <time>2024-08-12T02:24:50Z</time>
      </trkpt>
      <trkpt lat="44.85571" lon="6.49231">
        <ele>1234.4</ele>
        <time>2024-08-12T02:24:51Z</time>
      </trkpt>
      <trkpt lat="44.85571" lon="6.49231">
        <ele>1234.4</ele>
        <time>2024-08-12T02:24:52Z</time>
      </trkpt>
      <trkpt lat="44.85571" lon="6.49231">
        <ele>1234.4</ele>
        <time>2024-08-12T02:24:53Z</time>
      </trkpt>
      <trkpt lat="44.85571" lon="6.49231">
        <ele>1234.4</ele>
        <time>2024-08-12T02:24:54Z</time>
      </trkpt>
      <trkpt lat="44.85571" lon="6.49231">
        <ele>1234.4</ele>
        <time>2024-08-12T02:24:55Z</time>
      </trkpt>
      <trkpt lat="44.85571" lon="6.49231">
        <ele>1234.4</ele>
        <time>2024-08-12T02:24:56Z</time>
      </trkpt>
      <trkpt lat="44.85567" lon="6.49231">
        <ele>1234.4</ele>
        <time>2024-08-12T02:24:57Z</time>
      </trkpt>
      <trkpt lat="44.85567" lon="6.49231">
        <ele>1234.2</ele>
        <time>2024-08-12T02:24:58Z</time>
      </trkpt>
      <trkpt lat="44.85564" lon="6.49234">
        <ele>1234</ele>
        <time>2024-08-12T02:24:59Z</time>
      </trkpt>
      <trkpt lat="44.85564" lon="6.49234">
        <ele>1234</ele>
        <time>2024-08-12T02:25:00Z</time>
      </trkpt>
      <trkpt lat="44.85561" lon="6.49235">
        <ele>1234</ele>
        <time>2024-08-12T02:25:01Z</time>
      </trkpt>
      <trkpt lat="44.85561" lon="6.49235">
        <ele>1233.8</ele>
        <time>2024-08-12T02:25:02Z</time>
      </trkpt>
      <trkpt lat="44.85557" lon="6.49236">
        <ele>1233.8</ele>
        <time>2024-08-12T02:25:03Z</time>
      </trkpt>
      <trkpt lat="44.85557" lon="6.49236">
        <ele>1233.6</ele>
        <time>2024-08-12T02:25:04Z</time>
      </trkpt>
      <trkpt lat="44.85555" lon="6.49236">
        <ele>1233.6</ele>
        <time>2024-08-12T02:25:05Z</time>
      </trkpt>
      <trkpt lat="44.85555" lon="6.49236">
        <ele>1233.4</ele>
        <time>2024-08-12T02:25:06Z</time>
      </trkpt>
      <trkpt lat="44.85551" lon="6.49236">
        <ele>1233.4</ele>
        <time>2024-08-12T02:25:07Z</time>
      </trkpt>
      <trkpt lat="44.85551" lon="6.49236">
        <ele>1233.2</ele>
        <time>2024-08-12T02:25:08Z</time>
      </trkpt>
      <trkpt lat="44.85549" lon="6.49236">
        <ele>1233.2</ele>
        <time>2024-08-12T02:25:09Z</time>
      </trkpt>
      <trkpt lat="44.85549" lon="6.49236">
        <ele>1233</ele>
        <time>2024-08-12T02:25:10Z</time>
      </trkpt>
      <trkpt lat="44.85545" lon="6.49238">
        <ele>1232.6</ele>
        <time>2024-08-12T02:25:11Z</time>
      </trkpt>
      <trkpt lat="44.85545" lon="6.49238">
        <ele>1232.6</ele>
        <time>2024-08-12T02:25:12Z</time>
      </trkpt>
      <trkpt lat="44.85542" lon="6.49239">
        <ele>1232.6</ele>
        <time>2024-08-12T02:25:13Z</time>
      </trkpt>
      <trkpt lat="44.85542" lon="6.49239">
        <ele>1232.4</ele>
        <time>2024-08-12T02:25:14Z</time>
      </trkpt>
      <trkpt lat="44.85539" lon="6.4924">
        <ele>1232.4</ele>
        <time>2024-08-12T02:25:15Z</time>
      </trkpt>
      <trkpt lat="44.85537" lon="6.4924">
        <ele>1232.2</ele>
        <time>2024-08-12T02:25:16Z</time>
      </trkpt>
      <trkpt lat="44.85536" lon="6.49241">
        <ele>1232</ele>
        <time>2024-08-12T02:25:17Z</time>
      </trkpt>
      <trkpt lat="44.85536" lon="6.49242">
        <ele>1232</ele>
        <time>2024-08-12T02:25:18Z</time>
      </trkpt>
      <trkpt lat="44.85535" lon="6.49242">
        <ele>1232</ele>
        <time>2024-08-12T02:25:19Z</time>
      </trkpt>
      <trkpt lat="44.85533" lon="6.49245">
        <ele>1231.8</ele>
        <time>2024-08-12T02:25:20Z</time>
      </trkpt>
      <trkpt lat="44.85533" lon="6.49245">
        <ele>1231.8</ele>
        <time>2024-08-12T02:25:21Z</time>
      </trkpt>
      <trkpt lat="44.85532" lon="6.49249">
        <ele>1231.8</ele>
        <time>2024-08-12T02:25:22Z</time>
      </trkpt>
      <trkpt lat="44.85532" lon="6.49249">
        <ele>1231.8</ele>
        <time>2024-08-12T02:25:23Z</time>
      </trkpt>
      <trkpt lat="44.85531" lon="6.49251">
        <ele>1231.6</ele>
        <time>2024-08-12T02:25:24Z</time>
      </trkpt>
      <trkpt lat="44.85531" lon="6.49251">
        <ele>1231.4</ele>
        <time>2024-08-12T02:25:25Z</time>
      </trkpt>
      <trkpt lat="44.85531" lon="6.49251">
        <ele>1231.4</ele>
        <time>2024-08-12T02:25:26Z</time>
      </trkpt>
      <trkpt lat="44.85531" lon="6.49251">
        <ele>1231.4</ele>
        <time>2024-08-12T02:25:27Z</time>
      </trkpt>
      <trkpt lat="44.85531" lon="6.49251">
        <ele>1231.6</ele>
        <time>2024-08-12T02:25:28Z</time>
      </trkpt>
      <trkpt lat="44.85529" lon="6.49251">
        <ele>1231.8</ele>
        <time>2024-08-12T02:25:29Z</time>
      </trkpt>
      <trkpt lat="44.85529" lon="6.49251">
        <ele>1231.8</ele>
        <time>2024-08-12T02:25:30Z</time>
      </trkpt>
      <trkpt lat="44.85526" lon="6.49249">
        <ele>1231.6</ele>
        <time>2024-08-12T02:25:31Z</time>
      </trkpt>
      <trkpt lat="44.85524" lon="6.49248">
        <ele>1231.6</ele>
        <time>2024-08-12T02:25:32Z</time>
      </trkpt>
      <trkpt lat="44.85524" lon="6.49248">
        <ele>1231.4</ele>
        <time>2024-08-12T02:25:33Z</time>
      </trkpt>
      <trkpt lat="44.85521" lon="6.49247">
        <ele>1231</ele>
        <time>2024-08-12T02:25:34Z</time>
      </trkpt>
      <trkpt lat="44.85519" lon="6.49247">
        <ele>1231</ele>
        <time>2024-08-12T02:25:35Z</time>
      </trkpt>
      <trkpt lat="44.85517" lon="6.49245">
        <ele>1230.8</ele>
        <time>2024-08-12T02:25:36Z</time>
      </trkpt>
      <trkpt lat="44.85517" lon="6.49245">
        <ele>1230.8</ele>
        <time>2024-08-12T02:25:37Z</time>
      </trkpt>
      <trkpt lat="44.85515" lon="6.49244">
        <ele>1230.8</ele>
        <time>2024-08-12T02:25:38Z</time>
      </trkpt>
      <trkpt lat="44.85515" lon="6.49244">
        <ele>1230.4</ele>
        <time>2024-08-12T02:25:39Z</time>
      </trkpt>
      <trkpt lat="44.85512" lon="6.49244">
        <ele>1230.4</ele>
        <time>2024-08-12T02:25:40Z</time>
      </trkpt>
      <trkpt lat="44.85512" lon="6.49244">
        <ele>1230.4</ele>
        <time>2024-08-12T02:25:41Z</time>
      </trkpt>
      <trkpt lat="44.85509" lon="6.49245">
        <ele>1230.6</ele>
        <time>2024-08-12T02:25:42Z</time>
      </trkpt>
      <trkpt lat="44.85509" lon="6.49245">
        <ele>1230.4</ele>
        <time>2024-08-12T02:25:43Z</time>
      </trkpt>
      <trkpt lat="44.85507" lon="6.49245">
        <ele>1230.6</ele>
        <time>2024-08-12T02:25:44Z</time>
      </trkpt>
      <trkpt lat="44.85503" lon="6.4925">
        <ele>1230.4</ele>
        <time>2024-08-12T02:25:45Z</time>
      </trkpt>
      <trkpt lat="44.85501" lon="6.49253">
        <ele>1230.2</ele>
        <time>2024-08-12T02:25:46Z</time>
      </trkpt>
      <trkpt lat="44.85499" lon="6.49254">
        <ele>1230</ele>
        <time>2024-08-12T02:25:47Z</time>
      </trkpt>
      <trkpt lat="44.85497" lon="6.49255">
        <ele>1229.6</ele>
        <time>2024-08-12T02:25:48Z</time>
      </trkpt>
      <trkpt lat="44.85495" lon="6.49257">
        <ele>1229.6</ele>
        <time>2024-08-12T02:25:49Z</time>
      </trkpt>
      <trkpt lat="44.85495" lon="6.49257">
        <ele>1229.6</ele>
        <time>2024-08-12T02:25:50Z</time>
      </trkpt>
      <trkpt lat="44.85493" lon="6.49257">
        <ele>1229.6</ele>
        <time>2024-08-12T02:25:51Z</time>
      </trkpt>
      <trkpt lat="44.85493" lon="6.49257">
        <ele>1229.6</ele>
        <time>2024-08-12T02:25:52Z</time>
      </trkpt>
      <trkpt lat="44.8549" lon="6.49257">
        <ele>1229.2</ele>
        <time>2024-08-12T02:25:53Z</time>
      </trkpt>
      <trkpt lat="44.8549" lon="6.49257">
        <ele>1229.2</ele>
        <time>2024-08-12T02:25:54Z</time>
      </trkpt>
      <trkpt lat="44.85487" lon="6.49257">
        <ele>1229.2</ele>
        <time>2024-08-12T02:25:55Z</time>
      </trkpt>
      <trkpt lat="44.85487" lon="6.49257">
        <ele>1229.2</ele>
        <time>2024-08-12T02:25:56Z</time>
      </trkpt>
      <trkpt lat="44.85484" lon="6.49258">
        <ele>1229.2</ele>
        <time>2024-08-12T02:25:57Z</time>
      </trkpt>
      <trkpt lat="44.85484" lon="6.49258">
        <ele>1229</ele>
        <time>2024-08-12T02:25:58Z</time>
      </trkpt>
      <trkpt lat="44.85481" lon="6.49258">
        <ele>1228.8</ele>
        <time>2024-08-12T02:25:59Z</time>
      </trkpt>
      <trkpt lat="44.85481" lon="6.49258">
        <ele>1228.8</ele>
        <time>2024-08-12T02:26:00Z</time>
      </trkpt>
      <trkpt lat="44.85478" lon="6.49259">
        <ele>1228.6</ele>
        <time>2024-08-12T02:26:01Z</time>
      </trkpt>
      <trkpt lat="44.85478" lon="6.49259">
        <ele>1228.4</ele>
        <time>2024-08-12T02:26:02Z</time>
      </trkpt>
      <trkpt lat="44.85475" lon="6.49259">
        <ele>1228.4</ele>
        <time>2024-08-12T02:26:03Z</time>
      </trkpt>
      <trkpt lat="44.85475" lon="6.49259">
        <ele>1228.4</ele>
        <time>2024-08-12T02:26:04Z</time>
      </trkpt>
      <trkpt lat="44.85473" lon="6.4926">
        <ele>1228.4</ele>
        <time>2024-08-12T02:26:05Z</time>
      </trkpt>
      <trkpt lat="44.85473" lon="6.4926">
        <ele>1228.2</ele>
        <time>2024-08-12T02:26:06Z</time>
      </trkpt>
      <trkpt lat="44.85469" lon="6.49261">
        <ele>1228</ele>
        <time>2024-08-12T02:26:07Z</time>
      </trkpt>
      <trkpt lat="44.85469" lon="6.49261">
        <ele>1228</ele>
        <time>2024-08-12T02:26:08Z</time>
      </trkpt>
      <trkpt lat="44.85466" lon="6.49262">
        <ele>1228</ele>
        <time>2024-08-12T02:26:09Z</time>
      </trkpt>
      <trkpt lat="44.85466" lon="6.49262">
        <ele>1228</ele>
        <time>2024-08-12T02:26:10Z</time>
      </trkpt>
      <trkpt lat="44.85464" lon="6.49263">
        <ele>1228.4</ele>
        <time>2024-08-12T02:26:11Z</time>
      </trkpt>
      <trkpt lat="44.85464" lon="6.49263">
        <ele>1228.4</ele>
        <time>2024-08-12T02:26:12Z</time>
      </trkpt>
      <trkpt lat="44.85461" lon="6.49266">
        <ele>1228</ele>
        <time>2024-08-12T02:26:13Z</time>
      </trkpt>
      <trkpt lat="44.85459" lon="6.49267">
        <ele>1227.4</ele>
        <time>2024-08-12T02:26:14Z</time>
      </trkpt>
      <trkpt lat="44.85457" lon="6.49268">
        <ele>1227</ele>
        <time>2024-08-12T02:26:15Z</time>
      </trkpt>
      <trkpt lat="44.85455" lon="6.4927">
        <ele>1226.8</ele>
        <time>2024-08-12T02:26:16Z</time>
      </trkpt>
      <trkpt lat="44.85455" lon="6.4927">
        <ele>1226.6</ele>
        <time>2024-08-12T02:26:17Z</time>
      </trkpt>
      <trkpt lat="44.85452" lon="6.49271">
        <ele>1226.6</ele>
        <time>2024-08-12T02:26:18Z</time>
      </trkpt>
      <trkpt lat="44.85452" lon="6.49271">
        <ele>1226.6</ele>
        <time>2024-08-12T02:26:19Z</time>
      </trkpt>
      <trkpt lat="44.85449" lon="6.49271">
        <ele>1226.6</ele>
        <time>2024-08-12T02:26:20Z</time>
      </trkpt>
      <trkpt lat="44.85449" lon="6.49271">
        <ele>1226.4</ele>
        <time>2024-08-12T02:26:21Z</time>
      </trkpt>
      <trkpt lat="44.85446" lon="6.49272">
        <ele>1226</ele>
        <time>2024-08-12T02:26:22Z</time>
      </trkpt>
      <trkpt lat="44.85444" lon="6.49273">
        <ele>1226</ele>
        <time>2024-08-12T02:26:23Z</time>
      </trkpt>
      <trkpt lat="44.85444" lon="6.49273">
        <ele>1226</ele>
        <time>2024-08-12T02:26:24Z</time>
      </trkpt>
      <trkpt lat="44.85441" lon="6.49274">
        <ele>1225.8</ele>
        <time>2024-08-12T02:26:25Z</time>
      </trkpt>
      <trkpt lat="44.85441" lon="6.49274">
        <ele>1225.4</ele>
        <time>2024-08-12T02:26:26Z</time>
      </trkpt>
      <trkpt lat="44.85438" lon="6.49275">
        <ele>1225.2</ele>
        <time>2024-08-12T02:26:27Z</time>
      </trkpt>
      <trkpt lat="44.85438" lon="6.49275">
        <ele>1225.2</ele>
        <time>2024-08-12T02:26:28Z</time>
      </trkpt>
      <trkpt lat="44.85436" lon="6.49276">
        <ele>1225</ele>
        <time>2024-08-12T02:26:29Z</time>
      </trkpt>
      <trkpt lat="44.85436" lon="6.49276">
        <ele>1225</ele>
        <time>2024-08-12T02:26:30Z</time>
      </trkpt>
      <trkpt lat="44.85432" lon="6.49277">
        <ele>1225</ele>
        <time>2024-08-12T02:26:31Z</time>
      </trkpt>
      <trkpt lat="44.85432" lon="6.49277">
        <ele>1224.8</ele>
        <time>2024-08-12T02:26:32Z</time>
      </trkpt>
      <trkpt lat="44.85429" lon="6.49278">
        <ele>1224.8</ele>
        <time>2024-08-12T02:26:33Z</time>
      </trkpt>
      <trkpt lat="44.85429" lon="6.49278">
        <ele>1224.8</ele>
        <time>2024-08-12T02:26:34Z</time>
      </trkpt>
      <trkpt lat="44.85426" lon="6.4928">
        <ele>1224.4</ele>
        <time>2024-08-12T02:26:35Z</time>
      </trkpt>
      <trkpt lat="44.85426" lon="6.4928">
        <ele>1224</ele>
        <time>2024-08-12T02:26:36Z</time>
      </trkpt>
      <trkpt lat="44.85423" lon="6.49281">
        <ele>1224</ele>
        <time>2024-08-12T02:26:37Z</time>
      </trkpt>
      <trkpt lat="44.85423" lon="6.49281">
        <ele>1223.8</ele>
        <time>2024-08-12T02:26:38Z</time>
      </trkpt>
      <trkpt lat="44.85421" lon="6.49282">
        <ele>1223.8</ele>
        <time>2024-08-12T02:26:39Z</time>
      </trkpt>
      <trkpt lat="44.85421" lon="6.49282">
        <ele>1223.8</ele>
        <time>2024-08-12T02:26:40Z</time>
      </trkpt>
      <trkpt lat="44.85416" lon="6.49286">
        <ele>1223.8</ele>
        <time>2024-08-12T02:26:41Z</time>
      </trkpt>
      <trkpt lat="44.85415" lon="6.49288">
        <ele>1223.6</ele>
        <time>2024-08-12T02:26:42Z</time>
      </trkpt>
      <trkpt lat="44.85413" lon="6.49289">
        <ele>1223.6</ele>
        <time>2024-08-12T02:26:43Z</time>
      </trkpt>
      <trkpt lat="44.85412" lon="6.49291">
        <ele>1223.4</ele>
        <time>2024-08-12T02:26:44Z</time>
      </trkpt>
      <trkpt lat="44.85412" lon="6.49291">
        <ele>1222.8</ele>
        <time>2024-08-12T02:26:45Z</time>
      </trkpt>
      <trkpt lat="44.85408" lon="6.49293">
        <ele>1222.8</ele>
        <time>2024-08-12T02:26:46Z</time>
      </trkpt>
      <trkpt lat="44.85408" lon="6.49293">
        <ele>1222.8</ele>
        <time>2024-08-12T02:26:47Z</time>
      </trkpt>
      <trkpt lat="44.85406" lon="6.49295">
        <ele>1222.6</ele>
        <time>2024-08-12T02:26:48Z</time>
      </trkpt>
      <trkpt lat="44.85406" lon="6.49295">
        <ele>1222.4</ele>
        <time>2024-08-12T02:26:49Z</time>
      </trkpt>
      <trkpt lat="44.85403" lon="6.49296">
        <ele>1222.4</ele>
        <time>2024-08-12T02:26:50Z</time>
      </trkpt>
      <trkpt lat="44.85403" lon="6.49296">
        <ele>1222.2</ele>
        <time>2024-08-12T02:26:51Z</time>
      </trkpt>
      <trkpt lat="44.854" lon="6.49297">
        <ele>1221.8</ele>
        <time>2024-08-12T02:26:52Z</time>
      </trkpt>
      <trkpt lat="44.85398" lon="6.49297">
        <ele>1221.8</ele>
        <time>2024-08-12T02:26:53Z</time>
      </trkpt>
      <trkpt lat="44.85398" lon="6.49297">
        <ele>1221.6</ele>
        <time>2024-08-12T02:26:54Z</time>
      </trkpt>
      <trkpt lat="44.85396" lon="6.49297">
        <ele>1221.4</ele>
        <time>2024-08-12T02:26:55Z</time>
      </trkpt>
      <trkpt lat="44.85394" lon="6.49297">
        <ele>1221.2</ele>
        <time>2024-08-12T02:26:56Z</time>
      </trkpt>
      <trkpt lat="44.85394" lon="6.49297">
        <ele>1221</ele>
        <time>2024-08-12T02:26:57Z</time>
      </trkpt>
      <trkpt lat="44.8539" lon="6.49295">
        <ele>1221</ele>
        <time>2024-08-12T02:26:58Z</time>
      </trkpt>
      <trkpt lat="44.8539" lon="6.49295">
        <ele>1221</ele>
        <time>2024-08-12T02:26:59Z</time>
      </trkpt>
      <trkpt lat="44.85389" lon="6.49293">
        <ele>1220.8</ele>
        <time>2024-08-12T02:27:00Z</time>
      </trkpt>
      <trkpt lat="44.85389" lon="6.49293">
        <ele>1220.4</ele>
        <time>2024-08-12T02:27:01Z</time>
      </trkpt>
      <trkpt lat="44.85389" lon="6.49293">
        <ele>1220.4</ele>
        <time>2024-08-12T02:27:02Z</time>
      </trkpt>
      <trkpt lat="44.85389" lon="6.49293">
        <ele>1220.4</ele>
        <time>2024-08-12T02:27:03Z</time>
      </trkpt>
      <trkpt lat="44.85389" lon="6.49293">
        <ele>1220.2</ele>
        <time>2024-08-12T02:27:04Z</time>
      </trkpt>
      <trkpt lat="44.85389" lon="6.49293">
        <ele>1220</ele>
        <time>2024-08-12T02:27:05Z</time>
      </trkpt>
      <trkpt lat="44.85389" lon="6.49293">
        <ele>1220</ele>
        <time>2024-08-12T02:27:06Z</time>
      </trkpt>
      <trkpt lat="44.85389" lon="6.49293">
        <ele>1220</ele>
        <time>2024-08-12T02:27:07Z</time>
      </trkpt>
      <trkpt lat="44.85389" lon="6.49293">
        <ele>1220</ele>
        <time>2024-08-12T02:27:08Z</time>
      </trkpt>
      <trkpt lat="44.85389" lon="6.49293">
        <ele>1220.4</ele>
        <time>2024-08-12T02:27:09Z</time>
      </trkpt>
      <trkpt lat="44.85389" lon="6.49293">
        <ele>1220.8</ele>
        <time>2024-08-12T02:27:10Z</time>
      </trkpt>
      <trkpt lat="44.85389" lon="6.49293">
        <ele>1220.8</ele>
        <time>2024-08-12T02:27:11Z</time>
      </trkpt>
      <trkpt lat="44.85389" lon="6.49293">
        <ele>1220.6</ele>
        <time>2024-08-12T02:27:12Z</time>
      </trkpt>
      <trkpt lat="44.85389" lon="6.49293">
        <ele>1220.6</ele>
        <time>2024-08-12T02:27:13Z</time>
      </trkpt>
      <trkpt lat="44.85389" lon="6.49293">
        <ele>1220.4</ele>
        <time>2024-08-12T02:27:14Z</time>
      </trkpt>
      <trkpt lat="44.85389" lon="6.49293">
        <ele>1220</ele>
        <time>2024-08-12T02:27:15Z</time>
      </trkpt>
      <trkpt lat="44.85389" lon="6.49293">
        <ele>1219.4</ele>
        <time>2024-08-12T02:27:16Z</time>
      </trkpt>
      <trkpt lat="44.85389" lon="6.49293">
        <ele>1219.4</ele>
        <time>2024-08-12T02:27:17Z</time>
      </trkpt>
      <trkpt lat="44.85387" lon="6.49293">
        <ele>1219.4</ele>
        <time>2024-08-12T02:27:18Z</time>
      </trkpt>
      <trkpt lat="44.85387" lon="6.49293">
        <ele>1219.4</ele>
        <time>2024-08-12T02:27:19Z</time>
      </trkpt>
      <trkpt lat="44.85387" lon="6.49293">
        <ele>1219.4</ele>
        <time>2024-08-12T02:27:20Z</time>
      </trkpt>
      <trkpt lat="44.85387" lon="6.49293">
        <ele>1219.4</ele>
        <time>2024-08-12T02:27:21Z</time>
      </trkpt>
      <trkpt lat="44.85387" lon="6.49293">
        <ele>1219.4</ele>
        <time>2024-08-12T02:27:22Z</time>
      </trkpt>
      <trkpt lat="44.85387" lon="6.49293">
        <ele>1219.4</ele>
        <time>2024-08-12T02:27:23Z</time>
      </trkpt>
      <trkpt lat="44.85387" lon="6.49293">
        <ele>1219.4</ele>
        <time>2024-08-12T02:27:24Z</time>
      </trkpt>
      <trkpt lat="44.85387" lon="6.49293">
        <ele>1219.4</ele>
        <time>2024-08-12T02:27:25Z</time>
      </trkpt>
      <trkpt lat="44.85387" lon="6.49293">
        <ele>1219.4</ele>
        <time>2024-08-12T02:27:26Z</time>
      </trkpt>
      <trkpt lat="44.85387" lon="6.49293">
        <ele>1219.4</ele>
        <time>2024-08-12T02:27:27Z</time>
      </trkpt>
      <trkpt lat="44.85387" lon="6.49293">
        <ele>1219.4</ele>
        <time>2024-08-12T02:27:28Z</time>
      </trkpt>
      <trkpt lat="44.85387" lon="6.49293">
        <ele>1219.4</ele>
        <time>2024-08-12T02:27:29Z</time>
      </trkpt>
      <trkpt lat="44.85387" lon="6.49293">
        <ele>1219.4</ele>
        <time>2024-08-12T02:27:30Z</time>
      </trkpt>
      <trkpt lat="44.85387" lon="6.49293">
        <ele>1219.4</ele>
        <time>2024-08-12T02:27:31Z</time>
      </trkpt>
      <trkpt lat="44.85387" lon="6.49293">
        <ele>1219.4</ele>
        <time>2024-08-12T02:27:32Z</time>
      </trkpt>
      <trkpt lat="44.85387" lon="6.49293">
        <ele>1219.6</ele>
        <time>2024-08-12T02:27:33Z</time>
      </trkpt>
      <trkpt lat="44.85387" lon="6.49293">
        <ele>1219.6</ele>
        <time>2024-08-12T02:27:34Z</time>
      </trkpt>
      <trkpt lat="44.85387" lon="6.49293">
        <ele>1219.6</ele>
        <time>2024-08-12T02:27:35Z</time>
      </trkpt>
      <trkpt lat="44.85386" lon="6.49291">
        <ele>1219.4</ele>
        <time>2024-08-12T02:27:36Z</time>
      </trkpt>
      <trkpt lat="44.85386" lon="6.49291">
        <ele>1219.2</ele>
        <time>2024-08-12T02:27:37Z</time>
      </trkpt>
      <trkpt lat="44.85382" lon="6.49289">
        <ele>1219</ele>
        <time>2024-08-12T02:27:38Z</time>
      </trkpt>
      <trkpt lat="44.8538" lon="6.49288">
        <ele>1219</ele>
        <time>2024-08-12T02:27:39Z</time>
      </trkpt>
      <trkpt lat="44.85379" lon="6.49287">
        <ele>1219</ele>
        <time>2024-08-12T02:27:40Z</time>
      </trkpt>
      <trkpt lat="44.85378" lon="6.49286">
        <ele>1219</ele>
        <time>2024-08-12T02:27:41Z</time>
      </trkpt>
      <trkpt lat="44.85377" lon="6.49286">
        <ele>1219</ele>
        <time>2024-08-12T02:27:42Z</time>
      </trkpt>
      <trkpt lat="44.85376" lon="6.49286">
        <ele>1219</ele>
        <time>2024-08-12T02:27:43Z</time>
      </trkpt>
      <trkpt lat="44.85373" lon="6.49283">
        <ele>1219</ele>
        <time>2024-08-12T02:27:44Z</time>
      </trkpt>
      <trkpt lat="44.85373" lon="6.49283">
        <ele>1219</ele>
        <time>2024-08-12T02:27:45Z</time>
      </trkpt>
      <trkpt lat="44.85371" lon="6.4928">
        <ele>1218.6</ele>
        <time>2024-08-12T02:27:46Z</time>
      </trkpt>
      <trkpt lat="44.85371" lon="6.4928">
        <ele>1218.6</ele>
        <time>2024-08-12T02:27:47Z</time>
      </trkpt>
      <trkpt lat="44.85369" lon="6.49277">
        <ele>1218.6</ele>
        <time>2024-08-12T02:27:48Z</time>
      </trkpt>
      <trkpt lat="44.85369" lon="6.49277">
        <ele>1218.2</ele>
        <time>2024-08-12T02:27:49Z</time>
      </trkpt>
      <trkpt lat="44.85366" lon="6.49275">
        <ele>1218.2</ele>
        <time>2024-08-12T02:27:50Z</time>
      </trkpt>
      <trkpt lat="44.85366" lon="6.49275">
        <ele>1218.2</ele>
        <time>2024-08-12T02:27:51Z</time>
      </trkpt>
      <trkpt lat="44.85363" lon="6.49273">
        <ele>1218.2</ele>
        <time>2024-08-12T02:27:52Z</time>
      </trkpt>
      <trkpt lat="44.85363" lon="6.49273">
        <ele>1218.2</ele>
        <time>2024-08-12T02:27:53Z</time>
      </trkpt>
      <trkpt lat="44.8536" lon="6.4927">
        <ele>1218.2</ele>
        <time>2024-08-12T02:27:54Z</time>
      </trkpt>
      <trkpt lat="44.8536" lon="6.4927">
        <ele>1218.2</ele>
        <time>2024-08-12T02:27:55Z</time>
      </trkpt>
      <trkpt lat="44.85358" lon="6.49268">
        <ele>1218.2</ele>
        <time>2024-08-12T02:27:56Z</time>
      </trkpt>
      <trkpt lat="44.85358" lon="6.49268">
        <ele>1218.2</ele>
        <time>2024-08-12T02:27:57Z</time>
      </trkpt>
      <trkpt lat="44.85356" lon="6.49266">
        <ele>1218.2</ele>
        <time>2024-08-12T02:27:58Z</time>
      </trkpt>
      <trkpt lat="44.85356" lon="6.49266">
        <ele>1218.2</ele>
        <time>2024-08-12T02:27:59Z</time>
      </trkpt>
      <trkpt lat="44.85353" lon="6.49264">
        <ele>1218.2</ele>
        <time>2024-08-12T02:28:00Z</time>
      </trkpt>
      <trkpt lat="44.85353" lon="6.49264">
        <ele>1218.2</ele>
        <time>2024-08-12T02:28:01Z</time>
      </trkpt>
      <trkpt lat="44.85351" lon="6.49261">
        <ele>1218</ele>
        <time>2024-08-12T02:28:02Z</time>
      </trkpt>
      <trkpt lat="44.85351" lon="6.49261">
        <ele>1218</ele>
        <time>2024-08-12T02:28:03Z</time>
      </trkpt>
      <trkpt lat="44.85349" lon="6.4926">
        <ele>1218</ele>
        <time>2024-08-12T02:28:04Z</time>
      </trkpt>
      <trkpt lat="44.85349" lon="6.4926">
        <ele>1218.2</ele>
        <time>2024-08-12T02:28:05Z</time>
      </trkpt>
      <trkpt lat="44.85346" lon="6.49258">
        <ele>1218.2</ele>
        <time>2024-08-12T02:28:06Z</time>
      </trkpt>
      <trkpt lat="44.85346" lon="6.49258">
        <ele>1218.4</ele>
        <time>2024-08-12T02:28:07Z</time>
      </trkpt>
      <trkpt lat="44.85344" lon="6.49256">
        <ele>1218.4</ele>
        <time>2024-08-12T02:28:08Z</time>
      </trkpt>
      <trkpt lat="44.85344" lon="6.49256">
        <ele>1218.2</ele>
        <time>2024-08-12T02:28:09Z</time>
      </trkpt>
      <trkpt lat="44.85341" lon="6.49254">
        <ele>1218</ele>
        <time>2024-08-12T02:28:10Z</time>
      </trkpt>
      <trkpt lat="44.85341" lon="6.49254">
        <ele>1218</ele>
        <time>2024-08-12T02:28:11Z</time>
      </trkpt>
      <trkpt lat="44.85339" lon="6.49252">
        <ele>1217.8</ele>
        <time>2024-08-12T02:28:12Z</time>
      </trkpt>
      <trkpt lat="44.85339" lon="6.49252">
        <ele>1217.8</ele>
        <time>2024-08-12T02:28:13Z</time>
      </trkpt>
      <trkpt lat="44.85336" lon="6.49251">
        <ele>1218</ele>
        <time>2024-08-12T02:28:14Z</time>
      </trkpt>
      <trkpt lat="44.85334" lon="6.49251">
        <ele>1218</ele>
        <time>2024-08-12T02:28:15Z</time>
      </trkpt>
      <trkpt lat="44.85333" lon="6.49249">
        <ele>1218</ele>
        <time>2024-08-12T02:28:16Z</time>
      </trkpt>
      <trkpt lat="44.85333" lon="6.49249">
        <ele>1217.8</ele>
        <time>2024-08-12T02:28:17Z</time>
      </trkpt>
      <trkpt lat="44.85329" lon="6.49248">
        <ele>1217.8</ele>
        <time>2024-08-12T02:28:18Z</time>
      </trkpt>
      <trkpt lat="44.85329" lon="6.49248">
        <ele>1217.8</ele>
        <time>2024-08-12T02:28:19Z</time>
      </trkpt>
      <trkpt lat="44.85326" lon="6.49248">
        <ele>1217.6</ele>
        <time>2024-08-12T02:28:20Z</time>
      </trkpt>
      <trkpt lat="44.85326" lon="6.49248">
        <ele>1217.6</ele>
        <time>2024-08-12T02:28:21Z</time>
      </trkpt>
      <trkpt lat="44.85323" lon="6.49246">
        <ele>1217.6</ele>
        <time>2024-08-12T02:28:22Z</time>
      </trkpt>
      <trkpt lat="44.85323" lon="6.49246">
        <ele>1217.6</ele>
        <time>2024-08-12T02:28:23Z</time>
      </trkpt>
      <trkpt lat="44.8532" lon="6.49245">
        <ele>1217.4</ele>
        <time>2024-08-12T02:28:24Z</time>
      </trkpt>
      <trkpt lat="44.8532" lon="6.49245">
        <ele>1217.4</ele>
        <time>2024-08-12T02:28:25Z</time>
      </trkpt>
      <trkpt lat="44.85317" lon="6.49243">
        <ele>1217.2</ele>
        <time>2024-08-12T02:28:26Z</time>
      </trkpt>
      <trkpt lat="44.85317" lon="6.49243">
        <ele>1217.2</ele>
        <time>2024-08-12T02:28:27Z</time>
      </trkpt>
      <trkpt lat="44.85314" lon="6.49241">
        <ele>1217.2</ele>
        <time>2024-08-12T02:28:28Z</time>
      </trkpt>
      <trkpt lat="44.85314" lon="6.49241">
        <ele>1217.2</ele>
        <time>2024-08-12T02:28:29Z</time>
      </trkpt>
      <trkpt lat="44.85311" lon="6.4924">
        <ele>1217.2</ele>
        <time>2024-08-12T02:28:30Z</time>
      </trkpt>
      <trkpt lat="44.85311" lon="6.4924">
        <ele>1216.8</ele>
        <time>2024-08-12T02:28:31Z</time>
      </trkpt>
      <trkpt lat="44.85309" lon="6.4924">
        <ele>1216.6</ele>
        <time>2024-08-12T02:28:32Z</time>
      </trkpt>
      <trkpt lat="44.85309" lon="6.4924">
        <ele>1216.6</ele>
        <time>2024-08-12T02:28:33Z</time>
      </trkpt>
      <trkpt lat="44.85305" lon="6.49239">
        <ele>1216.8</ele>
        <time>2024-08-12T02:28:34Z</time>
      </trkpt>
      <trkpt lat="44.85305" lon="6.49239">
        <ele>1216.8</ele>
        <time>2024-08-12T02:28:35Z</time>
      </trkpt>
      <trkpt lat="44.85305" lon="6.49239">
        <ele>1216.6</ele>
        <time>2024-08-12T02:28:36Z</time>
      </trkpt>
      <trkpt lat="44.85302" lon="6.49237">
        <ele>1216.6</ele>
        <time>2024-08-12T02:28:37Z</time>
      </trkpt>
      <trkpt lat="44.85302" lon="6.49237">
        <ele>1216.6</ele>
        <time>2024-08-12T02:28:38Z</time>
      </trkpt>
      <trkpt lat="44.85301" lon="6.49237">
        <ele>1216.2</ele>
        <time>2024-08-12T02:28:39Z</time>
      </trkpt>
      <trkpt lat="44.85301" lon="6.49237">
        <ele>1216.2</ele>
        <time>2024-08-12T02:28:40Z</time>
      </trkpt>
      <trkpt lat="44.85297" lon="6.49236">
        <ele>1216</ele>
        <time>2024-08-12T02:28:41Z</time>
      </trkpt>
      <trkpt lat="44.85295" lon="6.49236">
        <ele>1216</ele>
        <time>2024-08-12T02:28:42Z</time>
      </trkpt>
      <trkpt lat="44.85295" lon="6.49235">
        <ele>1215.8</ele>
        <time>2024-08-12T02:28:43Z</time>
      </trkpt>
      <trkpt lat="44.85294" lon="6.49235">
        <ele>1215.8</ele>
        <time>2024-08-12T02:28:44Z</time>
      </trkpt>
      <trkpt lat="44.85293" lon="6.49234">
        <ele>1215.6</ele>
        <time>2024-08-12T02:28:45Z</time>
      </trkpt>
      <trkpt lat="44.85291" lon="6.49232">
        <ele>1215.4</ele>
        <time>2024-08-12T02:28:46Z</time>
      </trkpt>
      <trkpt lat="44.85291" lon="6.49232">
        <ele>1215.4</ele>
        <time>2024-08-12T02:28:47Z</time>
      </trkpt>
      <trkpt lat="44.85287" lon="6.4923">
        <ele>1215.4</ele>
        <time>2024-08-12T02:28:48Z</time>
      </trkpt>
      <trkpt lat="44.85287" lon="6.4923">
        <ele>1215.4</ele>
        <time>2024-08-12T02:28:49Z</time>
      </trkpt>
      <trkpt lat="44.85284" lon="6.49227">
        <ele>1215.2</ele>
        <time>2024-08-12T02:28:50Z</time>
      </trkpt>
      <trkpt lat="44.85283" lon="6.49226">
        <ele>1215.2</ele>
        <time>2024-08-12T02:28:51Z</time>
      </trkpt>
      <trkpt lat="44.85281" lon="6.49225">
        <ele>1215</ele>
        <time>2024-08-12T02:28:52Z</time>
      </trkpt>
      <trkpt lat="44.85281" lon="6.49225">
        <ele>1214.6</ele>
        <time>2024-08-12T02:28:53Z</time>
      </trkpt>
      <trkpt lat="44.85279" lon="6.49222">
        <ele>1214.4</ele>
        <time>2024-08-12T02:28:54Z</time>
      </trkpt>
      <trkpt lat="44.85279" lon="6.49222">
        <ele>1214.4</ele>
        <time>2024-08-12T02:28:55Z</time>
      </trkpt>
      <trkpt lat="44.85276" lon="6.4922">
        <ele>1214</ele>
        <time>2024-08-12T02:28:56Z</time>
      </trkpt>
      <trkpt lat="44.85273" lon="6.49218">
        <ele>1214</ele>
        <time>2024-08-12T02:28:57Z</time>
      </trkpt>
      <trkpt lat="44.85272" lon="6.49217">
        <ele>1214</ele>
        <time>2024-08-12T02:28:58Z</time>
      </trkpt>
      <trkpt lat="44.85272" lon="6.49217">
        <ele>1213.8</ele>
        <time>2024-08-12T02:28:59Z</time>
      </trkpt>
      <trkpt lat="44.8527" lon="6.49216">
        <ele>1213.6</ele>
        <time>2024-08-12T02:29:00Z</time>
      </trkpt>
      <trkpt lat="44.8527" lon="6.49216">
        <ele>1213.6</ele>
        <time>2024-08-12T02:29:01Z</time>
      </trkpt>
      <trkpt lat="44.85268" lon="6.49215">
        <ele>1213.4</ele>
        <time>2024-08-12T02:29:02Z</time>
      </trkpt>
      <trkpt lat="44.85268" lon="6.49215">
        <ele>1213.2</ele>
        <time>2024-08-12T02:29:03Z</time>
      </trkpt>
      <trkpt lat="44.85265" lon="6.49214">
        <ele>1213.2</ele>
        <time>2024-08-12T02:29:04Z</time>
      </trkpt>
      <trkpt lat="44.85265" lon="6.49214">
        <ele>1213</ele>
        <time>2024-08-12T02:29:05Z</time>
      </trkpt>
      <trkpt lat="44.85262" lon="6.49212">
        <ele>1213</ele>
        <time>2024-08-12T02:29:06Z</time>
      </trkpt>
      <trkpt lat="44.85262" lon="6.49212">
        <ele>1213</ele>
        <time>2024-08-12T02:29:07Z</time>
      </trkpt>
      <trkpt lat="44.8526" lon="6.49208">
        <ele>1212.6</ele>
        <time>2024-08-12T02:29:08Z</time>
      </trkpt>
      <trkpt lat="44.8526" lon="6.49208">
        <ele>1212.4</ele>
        <time>2024-08-12T02:29:09Z</time>
      </trkpt>
      <trkpt lat="44.85256" lon="6.49206">
        <ele>1212.4</ele>
        <time>2024-08-12T02:29:10Z</time>
      </trkpt>
      <trkpt lat="44.85256" lon="6.49206">
        <ele>1212.4</ele>
        <time>2024-08-12T02:29:11Z</time>
      </trkpt>
      <trkpt lat="44.85253" lon="6.49205">
        <ele>1212.4</ele>
        <time>2024-08-12T02:29:12Z</time>
      </trkpt>
      <trkpt lat="44.85252" lon="6.49204">
        <ele>1212.2</ele>
        <time>2024-08-12T02:29:13Z</time>
      </trkpt>
      <trkpt lat="44.85252" lon="6.49204">
        <ele>1212</ele>
        <time>2024-08-12T02:29:14Z</time>
      </trkpt>
      <trkpt lat="44.85249" lon="6.49202">
        <ele>1212</ele>
        <time>2024-08-12T02:29:15Z</time>
      </trkpt>
      <trkpt lat="44.85247" lon="6.49201">
        <ele>1212</ele>
        <time>2024-08-12T02:29:16Z</time>
      </trkpt>
      <trkpt lat="44.85247" lon="6.49201">
        <ele>1212</ele>
        <time>2024-08-12T02:29:17Z</time>
      </trkpt>
      <trkpt lat="44.85244" lon="6.49199">
        <ele>1211.8</ele>
        <time>2024-08-12T02:29:18Z</time>
      </trkpt>
      <trkpt lat="44.85242" lon="6.49198">
        <ele>1211.6</ele>
        <time>2024-08-12T02:29:19Z</time>
      </trkpt>
      <trkpt lat="44.85242" lon="6.49198">
        <ele>1211.6</ele>
        <time>2024-08-12T02:29:20Z</time>
      </trkpt>
      <trkpt lat="44.8524" lon="6.49196">
        <ele>1211.4</ele>
        <time>2024-08-12T02:29:21Z</time>
      </trkpt>
      <trkpt lat="44.8524" lon="6.49196">
        <ele>1211.4</ele>
        <time>2024-08-12T02:29:22Z</time>
      </trkpt>
      <trkpt lat="44.85237" lon="6.49194">
        <ele>1211</ele>
        <time>2024-08-12T02:29:23Z</time>
      </trkpt>
      <trkpt lat="44.85235" lon="6.49193">
        <ele>1211</ele>
        <time>2024-08-12T02:29:24Z</time>
      </trkpt>
      <trkpt lat="44.85233" lon="6.49192">
        <ele>1210.8</ele>
        <time>2024-08-12T02:29:25Z</time>
      </trkpt>
      <trkpt lat="44.85233" lon="6.49192">
        <ele>1210.8</ele>
        <time>2024-08-12T02:29:26Z</time>
      </trkpt>
      <trkpt lat="44.8523" lon="6.4919">
        <ele>1210.6</ele>
        <time>2024-08-12T02:29:27Z</time>
      </trkpt>
      <trkpt lat="44.8523" lon="6.4919">
        <ele>1210.6</ele>
        <time>2024-08-12T02:29:28Z</time>
      </trkpt>
      <trkpt lat="44.85227" lon="6.49189">
        <ele>1210.6</ele>
        <time>2024-08-12T02:29:29Z</time>
      </trkpt>
      <trkpt lat="44.85227" lon="6.49189">
        <ele>1210.4</ele>
        <time>2024-08-12T02:29:30Z</time>
      </trkpt>
      <trkpt lat="44.85225" lon="6.49188">
        <ele>1210.2</ele>
        <time>2024-08-12T02:29:31Z</time>
      </trkpt>
      <trkpt lat="44.85225" lon="6.49188">
        <ele>1209.8</ele>
        <time>2024-08-12T02:29:32Z</time>
      </trkpt>
      <trkpt lat="44.85223" lon="6.49188">
        <ele>1209.6</ele>
        <time>2024-08-12T02:29:33Z</time>
      </trkpt>
      <trkpt lat="44.85223" lon="6.49188">
        <ele>1209.6</ele>
        <time>2024-08-12T02:29:34Z</time>
      </trkpt>
      <trkpt lat="44.85221" lon="6.49187">
        <ele>1209.6</ele>
        <time>2024-08-12T02:29:35Z</time>
      </trkpt>
      <trkpt lat="44.85221" lon="6.49187">
        <ele>1209.6</ele>
        <time>2024-08-12T02:29:36Z</time>
      </trkpt>
      <trkpt lat="44.85218" lon="6.49186">
        <ele>1209.4</ele>
        <time>2024-08-12T02:29:37Z</time>
      </trkpt>
      <trkpt lat="44.85218" lon="6.49186">
        <ele>1209.2</ele>
        <time>2024-08-12T02:29:38Z</time>
      </trkpt>
      <trkpt lat="44.85215" lon="6.49183">
        <ele>1209</ele>
        <time>2024-08-12T02:29:39Z</time>
      </trkpt>
      <trkpt lat="44.85214" lon="6.49182">
        <ele>1209</ele>
        <time>2024-08-12T02:29:40Z</time>
      </trkpt>
      <trkpt lat="44.85214" lon="6.49182">
        <ele>1209</ele>
        <time>2024-08-12T02:29:41Z</time>
      </trkpt>
      <trkpt lat="44.85211" lon="6.49179">
        <ele>1208.8</ele>
        <time>2024-08-12T02:29:42Z</time>
      </trkpt>
      <trkpt lat="44.85209" lon="6.49179">
        <ele>1208.8</ele>
        <time>2024-08-12T02:29:43Z</time>
      </trkpt>
      <trkpt lat="44.85209" lon="6.49179">
        <ele>1208.6</ele>
        <time>2024-08-12T02:29:44Z</time>
      </trkpt>
      <trkpt lat="44.85205" lon="6.49178">
        <ele>1208.6</ele>
        <time>2024-08-12T02:29:45Z</time>
      </trkpt>
      <trkpt lat="44.85205" lon="6.49178">
        <ele>1208.6</ele>
        <time>2024-08-12T02:29:46Z</time>
      </trkpt>
      <trkpt lat="44.85203" lon="6.49178">
        <ele>1208.4</ele>
        <time>2024-08-12T02:29:47Z</time>
      </trkpt>
      <trkpt lat="44.85203" lon="6.49178">
        <ele>1208.2</ele>
        <time>2024-08-12T02:29:48Z</time>
      </trkpt>
      <trkpt lat="44.852" lon="6.49177">
        <ele>1208.2</ele>
        <time>2024-08-12T02:29:49Z</time>
      </trkpt>
      <trkpt lat="44.85198" lon="6.49177">
        <ele>1208</ele>
        <time>2024-08-12T02:29:50Z</time>
      </trkpt>
      <trkpt lat="44.85198" lon="6.49177">
        <ele>1208</ele>
        <time>2024-08-12T02:29:51Z</time>
      </trkpt>
      <trkpt lat="44.85194" lon="6.49177">
        <ele>1208</ele>
        <time>2024-08-12T02:29:52Z</time>
      </trkpt>
      <trkpt lat="44.85194" lon="6.49177">
        <ele>1208</ele>
        <time>2024-08-12T02:29:53Z</time>
      </trkpt>
      <trkpt lat="44.85191" lon="6.49175">
        <ele>1208</ele>
        <time>2024-08-12T02:29:54Z</time>
      </trkpt>
      <trkpt lat="44.85191" lon="6.49175">
        <ele>1208</ele>
        <time>2024-08-12T02:29:55Z</time>
      </trkpt>
      <trkpt lat="44.85189" lon="6.49172">
        <ele>1207.8</ele>
        <time>2024-08-12T02:29:56Z</time>
      </trkpt>
      <trkpt lat="44.85189" lon="6.49172">
        <ele>1207.8</ele>
        <time>2024-08-12T02:29:57Z</time>
      </trkpt>
      <trkpt lat="44.85187" lon="6.4917">
        <ele>1207.6</ele>
        <time>2024-08-12T02:29:58Z</time>
      </trkpt>
      <trkpt lat="44.85187" lon="6.4917">
        <ele>1207.4</ele>
        <time>2024-08-12T02:29:59Z</time>
      </trkpt>
      <trkpt lat="44.85183" lon="6.49167">
        <ele>1207.4</ele>
        <time>2024-08-12T02:30:00Z</time>
      </trkpt>
      <trkpt lat="44.85181" lon="6.49166">
        <ele>1207.4</ele>
        <time>2024-08-12T02:30:01Z</time>
      </trkpt>
      <trkpt lat="44.8518" lon="6.49165">
        <ele>1206.8</ele>
        <time>2024-08-12T02:30:02Z</time>
      </trkpt>
      <trkpt lat="44.85178" lon="6.49164">
        <ele>1206.8</ele>
        <time>2024-08-12T02:30:03Z</time>
      </trkpt>
      <trkpt lat="44.85178" lon="6.49164">
        <ele>1206.8</ele>
        <time>2024-08-12T02:30:04Z</time>
      </trkpt>
      <trkpt lat="44.85175" lon="6.49163">
        <ele>1206.6</ele>
        <time>2024-08-12T02:30:05Z</time>
      </trkpt>
      <trkpt lat="44.85173" lon="6.49162">
        <ele>1206.6</ele>
        <time>2024-08-12T02:30:06Z</time>
      </trkpt>
      <trkpt lat="44.85172" lon="6.49161">
        <ele>1206.6</ele>
        <time>2024-08-12T02:30:07Z</time>
      </trkpt>
      <trkpt lat="44.8517" lon="6.4916">
        <ele>1206.2</ele>
        <time>2024-08-12T02:30:08Z</time>
      </trkpt>
      <trkpt lat="44.8517" lon="6.4916">
        <ele>1206</ele>
        <time>2024-08-12T02:30:09Z</time>
      </trkpt>
      <trkpt lat="44.85166" lon="6.49159">
        <ele>1205.8</ele>
        <time>2024-08-12T02:30:10Z</time>
      </trkpt>
      <trkpt lat="44.85166" lon="6.49159">
        <ele>1205.8</ele>
        <time>2024-08-12T02:30:11Z</time>
      </trkpt>
      <trkpt lat="44.85164" lon="6.49158">
        <ele>1205.8</ele>
        <time>2024-08-12T02:30:12Z</time>
      </trkpt>
      <trkpt lat="44.85164" lon="6.49158">
        <ele>1205.6</ele>
        <time>2024-08-12T02:30:13Z</time>
      </trkpt>
      <trkpt lat="44.85161" lon="6.49157">
        <ele>1205.4</ele>
        <time>2024-08-12T02:30:14Z</time>
      </trkpt>
      <trkpt lat="44.85161" lon="6.49157">
        <ele>1205.4</ele>
        <time>2024-08-12T02:30:15Z</time>
      </trkpt>
      <trkpt lat="44.85157" lon="6.49157">
        <ele>1205.2</ele>
        <time>2024-08-12T02:30:16Z</time>
      </trkpt>
      <trkpt lat="44.85156" lon="6.49156">
        <ele>1205.2</ele>
        <time>2024-08-12T02:30:17Z</time>
      </trkpt>
      <trkpt lat="44.85156" lon="6.49156">
        <ele>1205.2</ele>
        <time>2024-08-12T02:30:18Z</time>
      </trkpt>
      <trkpt lat="44.85153" lon="6.49154">
        <ele>1204.8</ele>
        <time>2024-08-12T02:30:19Z</time>
      </trkpt>
      <trkpt lat="44.85153" lon="6.49154">
        <ele>1204.8</ele>
        <time>2024-08-12T02:30:20Z</time>
      </trkpt>
      <trkpt lat="44.85149" lon="6.49152">
        <ele>1205</ele>
        <time>2024-08-12T02:30:21Z</time>
      </trkpt>
      <trkpt lat="44.85149" lon="6.49152">
        <ele>1205</ele>
        <time>2024-08-12T02:30:22Z</time>
      </trkpt>
      <trkpt lat="44.85147" lon="6.49151">
        <ele>1205</ele>
        <time>2024-08-12T02:30:23Z</time>
      </trkpt>
      <trkpt lat="44.85147" lon="6.49151">
        <ele>1204.6</ele>
        <time>2024-08-12T02:30:24Z</time>
      </trkpt>
      <trkpt lat="44.85145" lon="6.4915">
        <ele>1204.6</ele>
        <time>2024-08-12T02:30:25Z</time>
      </trkpt>
      <trkpt lat="44.85145" lon="6.4915">
        <ele>1204.4</ele>
        <time>2024-08-12T02:30:26Z</time>
      </trkpt>
      <trkpt lat="44.85142" lon="6.49148">
        <ele>1204.4</ele>
        <time>2024-08-12T02:30:27Z</time>
      </trkpt>
      <trkpt lat="44.8514" lon="6.49148">
        <ele>1204.2</ele>
        <time>2024-08-12T02:30:28Z</time>
      </trkpt>
      <trkpt lat="44.8514" lon="6.49148">
        <ele>1204</ele>
        <time>2024-08-12T02:30:29Z</time>
      </trkpt>
      <trkpt lat="44.85138" lon="6.49146">
        <ele>1204</ele>
        <time>2024-08-12T02:30:30Z</time>
      </trkpt>
      <trkpt lat="44.85138" lon="6.49146">
        <ele>1204</ele>
        <time>2024-08-12T02:30:31Z</time>
      </trkpt>
      <trkpt lat="44.85135" lon="6.49144">
        <ele>1204.2</ele>
        <time>2024-08-12T02:30:32Z</time>
      </trkpt>
      <trkpt lat="44.85135" lon="6.49144">
        <ele>1204.2</ele>
        <time>2024-08-12T02:30:33Z</time>
      </trkpt>
      <trkpt lat="44.85134" lon="6.49141">
        <ele>1204.2</ele>
        <time>2024-08-12T02:30:34Z</time>
      </trkpt>
      <trkpt lat="44.85134" lon="6.49141">
        <ele>1203.4</ele>
        <time>2024-08-12T02:30:35Z</time>
      </trkpt>
      <trkpt lat="44.85132" lon="6.49138">
        <ele>1203</ele>
        <time>2024-08-12T02:30:36Z</time>
      </trkpt>
      <trkpt lat="44.85132" lon="6.49138">
        <ele>1203</ele>
        <time>2024-08-12T02:30:37Z</time>
      </trkpt>
      <trkpt lat="44.85129" lon="6.49136">
        <ele>1203</ele>
        <time>2024-08-12T02:30:38Z</time>
      </trkpt>
      <trkpt lat="44.85129" lon="6.49136">
        <ele>1202.8</ele>
        <time>2024-08-12T02:30:39Z</time>
      </trkpt>
      <trkpt lat="44.85126" lon="6.49134">
        <ele>1202.4</ele>
        <time>2024-08-12T02:30:40Z</time>
      </trkpt>
      <trkpt lat="44.85126" lon="6.49134">
        <ele>1202.4</ele>
        <time>2024-08-12T02:30:41Z</time>
      </trkpt>
      <trkpt lat="44.85123" lon="6.49132">
        <ele>1202.4</ele>
        <time>2024-08-12T02:30:42Z</time>
      </trkpt>
      <trkpt lat="44.85123" lon="6.49132">
        <ele>1202.4</ele>
        <time>2024-08-12T02:30:43Z</time>
      </trkpt>
      <trkpt lat="44.8512" lon="6.4913">
        <ele>1202.2</ele>
        <time>2024-08-12T02:30:44Z</time>
      </trkpt>
      <trkpt lat="44.85118" lon="6.49128">
        <ele>1202</ele>
        <time>2024-08-12T02:30:45Z</time>
      </trkpt>
      <trkpt lat="44.85117" lon="6.49127">
        <ele>1201.8</ele>
        <time>2024-08-12T02:30:46Z</time>
      </trkpt>
      <trkpt lat="44.85117" lon="6.49127">
        <ele>1201.6</ele>
        <time>2024-08-12T02:30:47Z</time>
      </trkpt>
      <trkpt lat="44.85114" lon="6.49125">
        <ele>1201.4</ele>
        <time>2024-08-12T02:30:48Z</time>
      </trkpt>
      <trkpt lat="44.85114" lon="6.49125">
        <ele>1201.2</ele>
        <time>2024-08-12T02:30:49Z</time>
      </trkpt>
      <trkpt lat="44.85111" lon="6.49124">
        <ele>1201</ele>
        <time>2024-08-12T02:30:50Z</time>
      </trkpt>
      <trkpt lat="44.85111" lon="6.49124">
        <ele>1201</ele>
        <time>2024-08-12T02:30:51Z</time>
      </trkpt>
      <trkpt lat="44.85108" lon="6.49123">
        <ele>1201</ele>
        <time>2024-08-12T02:30:52Z</time>
      </trkpt>
      <trkpt lat="44.85108" lon="6.49123">
        <ele>1201</ele>
        <time>2024-08-12T02:30:53Z</time>
      </trkpt>
      <trkpt lat="44.85106" lon="6.49122">
        <ele>1201</ele>
        <time>2024-08-12T02:30:54Z</time>
      </trkpt>
      <trkpt lat="44.85106" lon="6.49122">
        <ele>1201</ele>
        <time>2024-08-12T02:30:55Z</time>
      </trkpt>
      <trkpt lat="44.85103" lon="6.49121">
        <ele>1200.6</ele>
        <time>2024-08-12T02:30:56Z</time>
      </trkpt>
      <trkpt lat="44.85103" lon="6.49121">
        <ele>1200.4</ele>
        <time>2024-08-12T02:30:57Z</time>
      </trkpt>
      <trkpt lat="44.85101" lon="6.49119">
        <ele>1200.4</ele>
        <time>2024-08-12T02:30:58Z</time>
      </trkpt>
      <trkpt lat="44.85101" lon="6.49119">
        <ele>1200.4</ele>
        <time>2024-08-12T02:30:59Z</time>
      </trkpt>
      <trkpt lat="44.85098" lon="6.49117">
        <ele>1200.2</ele>
        <time>2024-08-12T02:31:00Z</time>
      </trkpt>
      <trkpt lat="44.85098" lon="6.49117">
        <ele>1200.2</ele>
        <time>2024-08-12T02:31:01Z</time>
      </trkpt>
      <trkpt lat="44.85096" lon="6.49117">
        <ele>1199.8</ele>
        <time>2024-08-12T02:31:02Z</time>
      </trkpt>
      <trkpt lat="44.85096" lon="6.49117">
        <ele>1199.8</ele>
        <time>2024-08-12T02:31:03Z</time>
      </trkpt>
      <trkpt lat="44.85093" lon="6.49115">
        <ele>1199.8</ele>
        <time>2024-08-12T02:31:04Z</time>
      </trkpt>
      <trkpt lat="44.85093" lon="6.49115">
        <ele>1199.8</ele>
        <time>2024-08-12T02:31:05Z</time>
      </trkpt>
      <trkpt lat="44.8509" lon="6.49114">
        <ele>1199.6</ele>
        <time>2024-08-12T02:31:06Z</time>
      </trkpt>
      <trkpt lat="44.8509" lon="6.49114">
        <ele>1199.6</ele>
        <time>2024-08-12T02:31:07Z</time>
      </trkpt>
      <trkpt lat="44.85087" lon="6.49112">
        <ele>1199.6</ele>
        <time>2024-08-12T02:31:08Z</time>
      </trkpt>
      <trkpt lat="44.85087" lon="6.49112">
        <ele>1199.6</ele>
        <time>2024-08-12T02:31:09Z</time>
      </trkpt>
      <trkpt lat="44.85084" lon="6.4911">
        <ele>1199.4</ele>
        <time>2024-08-12T02:31:10Z</time>
      </trkpt>
      <trkpt lat="44.85084" lon="6.4911">
        <ele>1199.4</ele>
        <time>2024-08-12T02:31:11Z</time>
      </trkpt>
      <trkpt lat="44.85082" lon="6.49109">
        <ele>1199.4</ele>
        <time>2024-08-12T02:31:12Z</time>
      </trkpt>
      <trkpt lat="44.85082" lon="6.49109">
        <ele>1199.2</ele>
        <time>2024-08-12T02:31:13Z</time>
      </trkpt>
      <trkpt lat="44.85078" lon="6.49107">
        <ele>1199</ele>
        <time>2024-08-12T02:31:14Z</time>
      </trkpt>
      <trkpt lat="44.85078" lon="6.49107">
        <ele>1199</ele>
        <time>2024-08-12T02:31:15Z</time>
      </trkpt>
      <trkpt lat="44.85076" lon="6.49106">
        <ele>1199</ele>
        <time>2024-08-12T02:31:16Z</time>
      </trkpt>
      <trkpt lat="44.85076" lon="6.49106">
        <ele>1198.8</ele>
        <time>2024-08-12T02:31:17Z</time>
      </trkpt>
      <trkpt lat="44.85073" lon="6.49104">
        <ele>1198.8</ele>
        <time>2024-08-12T02:31:18Z</time>
      </trkpt>
      <trkpt lat="44.85073" lon="6.49104">
        <ele>1198.8</ele>
        <time>2024-08-12T02:31:19Z</time>
      </trkpt>
      <trkpt lat="44.8507" lon="6.49102">
        <ele>1198.8</ele>
        <time>2024-08-12T02:31:20Z</time>
      </trkpt>
      <trkpt lat="44.8507" lon="6.49102">
        <ele>1198.4</ele>
        <time>2024-08-12T02:31:21Z</time>
      </trkpt>
      <trkpt lat="44.85068" lon="6.491">
        <ele>1198.4</ele>
        <time>2024-08-12T02:31:22Z</time>
      </trkpt>
      <trkpt lat="44.85068" lon="6.491">
        <ele>1198.2</ele>
        <time>2024-08-12T02:31:23Z</time>
      </trkpt>
      <trkpt lat="44.85064" lon="6.49099">
        <ele>1198</ele>
        <time>2024-08-12T02:31:24Z</time>
      </trkpt>
      <trkpt lat="44.85064" lon="6.49099">
        <ele>1198</ele>
        <time>2024-08-12T02:31:25Z</time>
      </trkpt>
      <trkpt lat="44.85061" lon="6.49098">
        <ele>1197.8</ele>
        <time>2024-08-12T02:31:26Z</time>
      </trkpt>
      <trkpt lat="44.85061" lon="6.49098">
        <ele>1198</ele>
        <time>2024-08-12T02:31:27Z</time>
      </trkpt>
      <trkpt lat="44.85058" lon="6.49097">
        <ele>1198</ele>
        <time>2024-08-12T02:31:28Z</time>
      </trkpt>
      <trkpt lat="44.85058" lon="6.49097">
        <ele>1197.8</ele>
        <time>2024-08-12T02:31:29Z</time>
      </trkpt>
      <trkpt lat="44.85055" lon="6.49096">
        <ele>1197.6</ele>
        <time>2024-08-12T02:31:30Z</time>
      </trkpt>
      <trkpt lat="44.85055" lon="6.49096">
        <ele>1197.6</ele>
        <time>2024-08-12T02:31:31Z</time>
      </trkpt>
      <trkpt lat="44.85052" lon="6.49095">
        <ele>1197.6</ele>
        <time>2024-08-12T02:31:32Z</time>
      </trkpt>
      <trkpt lat="44.85052" lon="6.49095">
        <ele>1197.6</ele>
        <time>2024-08-12T02:31:33Z</time>
      </trkpt>
      <trkpt lat="44.85049" lon="6.49096">
        <ele>1197.6</ele>
        <time>2024-08-12T02:31:34Z</time>
      </trkpt>
      <trkpt lat="44.85046" lon="6.49097">
        <ele>1197.6</ele>
        <time>2024-08-12T02:31:35Z</time>
      </trkpt>
      <trkpt lat="44.85043" lon="6.49098">
        <ele>1197.6</ele>
        <time>2024-08-12T02:31:36Z</time>
      </trkpt>
      <trkpt lat="44.85043" lon="6.49098">
        <ele>1197.4</ele>
        <time>2024-08-12T02:31:37Z</time>
      </trkpt>
      <trkpt lat="44.85041" lon="6.49097">
        <ele>1197.2</ele>
        <time>2024-08-12T02:31:38Z</time>
      </trkpt>
      <trkpt lat="44.85041" lon="6.49097">
        <ele>1197</ele>
        <time>2024-08-12T02:31:39Z</time>
      </trkpt>
      <trkpt lat="44.85038" lon="6.49095">
        <ele>1197</ele>
        <time>2024-08-12T02:31:40Z</time>
      </trkpt>
      <trkpt lat="44.85038" lon="6.49095">
        <ele>1196.8</ele>
        <time>2024-08-12T02:31:41Z</time>
      </trkpt>
      <trkpt lat="44.85038" lon="6.49095">
        <ele>1197</ele>
        <time>2024-08-12T02:31:42Z</time>
      </trkpt>
      <trkpt lat="44.85038" lon="6.49095">
        <ele>1196.8</ele>
        <time>2024-08-12T02:31:43Z</time>
      </trkpt>
      <trkpt lat="44.85038" lon="6.49095">
        <ele>1196.8</ele>
        <time>2024-08-12T02:31:44Z</time>
      </trkpt>
      <trkpt lat="44.85038" lon="6.49095">
        <ele>1196.8</ele>
        <time>2024-08-12T02:31:45Z</time>
      </trkpt>
      <trkpt lat="44.85038" lon="6.49095">
        <ele>1196.6</ele>
        <time>2024-08-12T02:31:46Z</time>
      </trkpt>
      <trkpt lat="44.85038" lon="6.49095">
        <ele>1196.6</ele>
        <time>2024-08-12T02:31:47Z</time>
      </trkpt>
      <trkpt lat="44.85038" lon="6.49095">
        <ele>1196.6</ele>
        <time>2024-08-12T02:31:48Z</time>
      </trkpt>
      <trkpt lat="44.85038" lon="6.49095">
        <ele>1196.6</ele>
        <time>2024-08-12T02:31:49Z</time>
      </trkpt>
      <trkpt lat="44.85038" lon="6.49095">
        <ele>1196.6</ele>
        <time>2024-08-12T02:31:50Z</time>
      </trkpt>
      <trkpt lat="44.85038" lon="6.49095">
        <ele>1196.6</ele>
        <time>2024-08-12T02:31:51Z</time>
      </trkpt>
      <trkpt lat="44.85038" lon="6.49095">
        <ele>1196.8</ele>
        <time>2024-08-12T02:31:52Z</time>
      </trkpt>
      <trkpt lat="44.85038" lon="6.49095">
        <ele>1196.8</ele>
        <time>2024-08-12T02:31:53Z</time>
      </trkpt>
      <trkpt lat="44.85038" lon="6.49095">
        <ele>1196.6</ele>
        <time>2024-08-12T02:31:54Z</time>
      </trkpt>
      <trkpt lat="44.85038" lon="6.49095">
        <ele>1196.6</ele>
        <time>2024-08-12T02:31:55Z</time>
      </trkpt>
      <trkpt lat="44.85038" lon="6.49095">
        <ele>1196.8</ele>
        <time>2024-08-12T02:31:56Z</time>
      </trkpt>
      <trkpt lat="44.85038" lon="6.49095">
        <ele>1196.8</ele>
        <time>2024-08-12T02:31:57Z</time>
      </trkpt>
      <trkpt lat="44.85038" lon="6.49095">
        <ele>1196.8</ele>
        <time>2024-08-12T02:31:58Z</time>
      </trkpt>
      <trkpt lat="44.85038" lon="6.49095">
        <ele>1196.8</ele>
        <time>2024-08-12T02:31:59Z</time>
      </trkpt>
      <trkpt lat="44.85038" lon="6.49095">
        <ele>1196.8</ele>
        <time>2024-08-12T02:32:00Z</time>
      </trkpt>
      <trkpt lat="44.85038" lon="6.49095">
        <ele>1196.6</ele>
        <time>2024-08-12T02:32:01Z</time>
      </trkpt>
      <trkpt lat="44.85038" lon="6.49095">
        <ele>1196.8</ele>
        <time>2024-08-12T02:32:02Z</time>
      </trkpt>
      <trkpt lat="44.85038" lon="6.49095">
        <ele>1196.8</ele>
        <time>2024-08-12T02:32:03Z</time>
      </trkpt>
      <trkpt lat="44.85038" lon="6.49095">
        <ele>1196.8</ele>
        <time>2024-08-12T02:32:04Z</time>
      </trkpt>
      <trkpt lat="44.85038" lon="6.49095">
        <ele>1196.8</ele>
        <time>2024-08-12T02:32:05Z</time>
      </trkpt>
      <trkpt lat="44.85038" lon="6.49095">
        <ele>1196.8</ele>
        <time>2024-08-12T02:32:06Z</time>
      </trkpt>
      <trkpt lat="44.85038" lon="6.49095">
        <ele>1196.8</ele>
        <time>2024-08-12T02:32:07Z</time>
      </trkpt>
      <trkpt lat="44.85038" lon="6.49095">
        <ele>1196.8</ele>
        <time>2024-08-12T02:32:08Z</time>
      </trkpt>
      <trkpt lat="44.85038" lon="6.49095">
        <ele>1196.8</ele>
        <time>2024-08-12T02:32:09Z</time>
      </trkpt>
      <trkpt lat="44.85038" lon="6.49095">
        <ele>1197</ele>
        <time>2024-08-12T02:32:10Z</time>
      </trkpt>
      <trkpt lat="44.85038" lon="6.49095">
        <ele>1197</ele>
        <time>2024-08-12T02:32:11Z</time>
      </trkpt>
      <trkpt lat="44.85038" lon="6.49095">
        <ele>1197</ele>
        <time>2024-08-12T02:32:12Z</time>
      </trkpt>
      <trkpt lat="44.85038" lon="6.49095">
        <ele>1197</ele>
        <time>2024-08-12T02:32:13Z</time>
      </trkpt>
      <trkpt lat="44.85038" lon="6.49095">
        <ele>1196.8</ele>
        <time>2024-08-12T02:32:14Z</time>
      </trkpt>
      <trkpt lat="44.85038" lon="6.49095">
        <ele>1197</ele>
        <time>2024-08-12T02:32:15Z</time>
      </trkpt>
      <trkpt lat="44.85038" lon="6.49095">
        <ele>1197</ele>
        <time>2024-08-12T02:32:16Z</time>
      </trkpt>
      <trkpt lat="44.85036" lon="6.49095">
        <ele>1197</ele>
        <time>2024-08-12T02:32:17Z</time>
      </trkpt>
      <trkpt lat="44.85036" lon="6.49095">
        <ele>1196.8</ele>
        <time>2024-08-12T02:32:18Z</time>
      </trkpt>
      <trkpt lat="44.85033" lon="6.49095">
        <ele>1196.8</ele>
        <time>2024-08-12T02:32:19Z</time>
      </trkpt>
      <trkpt lat="44.85031" lon="6.49095">
        <ele>1197</ele>
        <time>2024-08-12T02:32:20Z</time>
      </trkpt>
      <trkpt lat="44.85029" lon="6.49095">
        <ele>1197</ele>
        <time>2024-08-12T02:32:21Z</time>
      </trkpt>
      <trkpt lat="44.85029" lon="6.49095">
        <ele>1197</ele>
        <time>2024-08-12T02:32:22Z</time>
      </trkpt>
      <trkpt lat="44.85025" lon="6.49093">
        <ele>1196.8</ele>
        <time>2024-08-12T02:32:23Z</time>
      </trkpt>
      <trkpt lat="44.85025" lon="6.49093">
        <ele>1196.6</ele>
        <time>2024-08-12T02:32:24Z</time>
      </trkpt>
      <trkpt lat="44.85022" lon="6.49091">
        <ele>1196.6</ele>
        <time>2024-08-12T02:32:25Z</time>
      </trkpt>
      <trkpt lat="44.85022" lon="6.49091">
        <ele>1196.6</ele>
        <time>2024-08-12T02:32:26Z</time>
      </trkpt>
      <trkpt lat="44.8502" lon="6.49089">
        <ele>1196.6</ele>
        <time>2024-08-12T02:32:27Z</time>
      </trkpt>
      <trkpt lat="44.8502" lon="6.49089">
        <ele>1196.4</ele>
        <time>2024-08-12T02:32:28Z</time>
      </trkpt>
      <trkpt lat="44.85017" lon="6.49087">
        <ele>1196.4</ele>
        <time>2024-08-12T02:32:29Z</time>
      </trkpt>
      <trkpt lat="44.85017" lon="6.49087">
        <ele>1196.4</ele>
        <time>2024-08-12T02:32:30Z</time>
      </trkpt>
      <trkpt lat="44.85015" lon="6.49086">
        <ele>1196.4</ele>
        <time>2024-08-12T02:32:31Z</time>
      </trkpt>
      <trkpt lat="44.85015" lon="6.49086">
        <ele>1196.4</ele>
        <time>2024-08-12T02:32:32Z</time>
      </trkpt>
      <trkpt lat="44.85012" lon="6.49084">
        <ele>1196.4</ele>
        <time>2024-08-12T02:32:33Z</time>
      </trkpt>
      <trkpt lat="44.85012" lon="6.49084">
        <ele>1196.2</ele>
        <time>2024-08-12T02:32:34Z</time>
      </trkpt>
      <trkpt lat="44.85009" lon="6.49082">
        <ele>1196</ele>
        <time>2024-08-12T02:32:35Z</time>
      </trkpt>
      <trkpt lat="44.85009" lon="6.49082">
        <ele>1196</ele>
        <time>2024-08-12T02:32:36Z</time>
      </trkpt>
      <trkpt lat="44.85005" lon="6.49082">
        <ele>1195.8</ele>
        <time>2024-08-12T02:32:37Z</time>
      </trkpt>
      <trkpt lat="44.85004" lon="6.49082">
        <ele>1195.8</ele>
        <time>2024-08-12T02:32:38Z</time>
      </trkpt>
      <trkpt lat="44.85003" lon="6.49082">
        <ele>1195.8</ele>
        <time>2024-08-12T02:32:39Z</time>
      </trkpt>
      <trkpt lat="44.85002" lon="6.49082">
        <ele>1195.6</ele>
        <time>2024-08-12T02:32:40Z</time>
      </trkpt>
      <trkpt lat="44.85001" lon="6.49082">
        <ele>1195.6</ele>
        <time>2024-08-12T02:32:41Z</time>
      </trkpt>
      <trkpt lat="44.84997" lon="6.4908">
        <ele>1195.4</ele>
        <time>2024-08-12T02:32:42Z</time>
      </trkpt>
      <trkpt lat="44.84995" lon="6.4908">
        <ele>1195.4</ele>
        <time>2024-08-12T02:32:43Z</time>
      </trkpt>
      <trkpt lat="44.84993" lon="6.49079">
        <ele>1195.2</ele>
        <time>2024-08-12T02:32:44Z</time>
      </trkpt>
      <trkpt lat="44.84993" lon="6.49079">
        <ele>1195.2</ele>
        <time>2024-08-12T02:32:45Z</time>
      </trkpt>
      <trkpt lat="44.84991" lon="6.49077">
        <ele>1195</ele>
        <time>2024-08-12T02:32:46Z</time>
      </trkpt>
      <trkpt lat="44.84991" lon="6.49077">
        <ele>1194.8</ele>
        <time>2024-08-12T02:32:47Z</time>
      </trkpt>
      <trkpt lat="44.84988" lon="6.49075">
        <ele>1194.8</ele>
        <time>2024-08-12T02:32:48Z</time>
      </trkpt>
      <trkpt lat="44.84985" lon="6.49075">
        <ele>1194.8</ele>
        <time>2024-08-12T02:32:49Z</time>
      </trkpt>
      <trkpt lat="44.84983" lon="6.49074">
        <ele>1194.6</ele>
        <time>2024-08-12T02:32:50Z</time>
      </trkpt>
      <trkpt lat="44.84981" lon="6.49074">
        <ele>1194.6</ele>
        <time>2024-08-12T02:32:51Z</time>
      </trkpt>
      <trkpt lat="44.84979" lon="6.49073">
        <ele>1194.2</ele>
        <time>2024-08-12T02:32:52Z</time>
      </trkpt>
      <trkpt lat="44.84977" lon="6.49073">
        <ele>1194.2</ele>
        <time>2024-08-12T02:32:53Z</time>
      </trkpt>
      <trkpt lat="44.84977" lon="6.49073">
        <ele>1194.4</ele>
        <time>2024-08-12T02:32:54Z</time>
      </trkpt>
      <trkpt lat="44.84974" lon="6.49073">
        <ele>1194.4</ele>
        <time>2024-08-12T02:32:55Z</time>
      </trkpt>
      <trkpt lat="44.84974" lon="6.49073">
        <ele>1194.4</ele>
        <time>2024-08-12T02:32:56Z</time>
      </trkpt>
      <trkpt lat="44.84971" lon="6.49074">
        <ele>1194.2</ele>
        <time>2024-08-12T02:32:57Z</time>
      </trkpt>
      <trkpt lat="44.84969" lon="6.49074">
        <ele>1194</ele>
        <time>2024-08-12T02:32:58Z</time>
      </trkpt>
      <trkpt lat="44.84967" lon="6.49073">
        <ele>1193.8</ele>
        <time>2024-08-12T02:32:59Z</time>
      </trkpt>
      <trkpt lat="44.84966" lon="6.49073">
        <ele>1193.8</ele>
        <time>2024-08-12T02:33:00Z</time>
      </trkpt>
      <trkpt lat="44.84965" lon="6.49072">
        <ele>1193.8</ele>
        <time>2024-08-12T02:33:01Z</time>
      </trkpt>
      <trkpt lat="44.84964" lon="6.49072">
        <ele>1193.6</ele>
        <time>2024-08-12T02:33:02Z</time>
      </trkpt>
      <trkpt lat="44.84961" lon="6.4907">
        <ele>1193.6</ele>
        <time>2024-08-12T02:33:03Z</time>
      </trkpt>
      <trkpt lat="44.84961" lon="6.4907">
        <ele>1193.6</ele>
        <time>2024-08-12T02:33:04Z</time>
      </trkpt>
      <trkpt lat="44.84958" lon="6.49069">
        <ele>1193.4</ele>
        <time>2024-08-12T02:33:05Z</time>
      </trkpt>
      <trkpt lat="44.84957" lon="6.49068">
        <ele>1193.2</ele>
        <time>2024-08-12T02:33:06Z</time>
      </trkpt>
      <trkpt lat="44.84957" lon="6.49068">
        <ele>1193.2</ele>
        <time>2024-08-12T02:33:07Z</time>
      </trkpt>
      <trkpt lat="44.84953" lon="6.49066">
        <ele>1193</ele>
        <time>2024-08-12T02:33:08Z</time>
      </trkpt>
      <trkpt lat="44.84951" lon="6.49065">
        <ele>1192.8</ele>
        <time>2024-08-12T02:33:09Z</time>
      </trkpt>
      <trkpt lat="44.84951" lon="6.49065">
        <ele>1192.8</ele>
        <time>2024-08-12T02:33:10Z</time>
      </trkpt>
      <trkpt lat="44.84949" lon="6.49063">
        <ele>1192.8</ele>
        <time>2024-08-12T02:33:11Z</time>
      </trkpt>
      <trkpt lat="44.84949" lon="6.49063">
        <ele>1192.8</ele>
        <time>2024-08-12T02:33:12Z</time>
      </trkpt>
      <trkpt lat="44.84947" lon="6.49062">
        <ele>1192.8</ele>
        <time>2024-08-12T02:33:13Z</time>
      </trkpt>
      <trkpt lat="44.84947" lon="6.49062">
        <ele>1192.8</ele>
        <time>2024-08-12T02:33:14Z</time>
      </trkpt>
      <trkpt lat="44.84944" lon="6.49061">
        <ele>1192.8</ele>
        <time>2024-08-12T02:33:15Z</time>
      </trkpt>
      <trkpt lat="44.84944" lon="6.49061">
        <ele>1192.6</ele>
        <time>2024-08-12T02:33:16Z</time>
      </trkpt>
      <trkpt lat="44.84941" lon="6.4906">
        <ele>1192.6</ele>
        <time>2024-08-12T02:33:17Z</time>
      </trkpt>
      <trkpt lat="44.84941" lon="6.4906">
        <ele>1192.2</ele>
        <time>2024-08-12T02:33:18Z</time>
      </trkpt>
      <trkpt lat="44.84939" lon="6.49059">
        <ele>1192.2</ele>
        <time>2024-08-12T02:33:19Z</time>
      </trkpt>
      <trkpt lat="44.84937" lon="6.49058">
        <ele>1192</ele>
        <time>2024-08-12T02:33:20Z</time>
      </trkpt>
      <trkpt lat="44.84937" lon="6.49058">
        <ele>1192</ele>
        <time>2024-08-12T02:33:21Z</time>
      </trkpt>
      <trkpt lat="44.84935" lon="6.49057">
        <ele>1191.8</ele>
        <time>2024-08-12T02:33:22Z</time>
      </trkpt>
      <trkpt lat="44.84933" lon="6.49056">
        <ele>1191.6</ele>
        <time>2024-08-12T02:33:23Z</time>
      </trkpt>
      <trkpt lat="44.84931" lon="6.49055">
        <ele>1191.6</ele>
        <time>2024-08-12T02:33:24Z</time>
      </trkpt>
      <trkpt lat="44.84931" lon="6.49055">
        <ele>1191.6</ele>
        <time>2024-08-12T02:33:25Z</time>
      </trkpt>
      <trkpt lat="44.84928" lon="6.49054">
        <ele>1191.6</ele>
        <time>2024-08-12T02:33:26Z</time>
      </trkpt>
      <trkpt lat="44.84926" lon="6.49054">
        <ele>1191.4</ele>
        <time>2024-08-12T02:33:27Z</time>
      </trkpt>
      <trkpt lat="44.84926" lon="6.49054">
        <ele>1191.2</ele>
        <time>2024-08-12T02:33:28Z</time>
      </trkpt>
      <trkpt lat="44.84924" lon="6.49053">
        <ele>1191.2</ele>
        <time>2024-08-12T02:33:29Z</time>
      </trkpt>
      <trkpt lat="44.84922" lon="6.49053">
        <ele>1190.8</ele>
        <time>2024-08-12T02:33:30Z</time>
      </trkpt>
      <trkpt lat="44.84922" lon="6.49053">
        <ele>1190.6</ele>
        <time>2024-08-12T02:33:31Z</time>
      </trkpt>
      <trkpt lat="44.84919" lon="6.49052">
        <ele>1190.6</ele>
        <time>2024-08-12T02:33:32Z</time>
      </trkpt>
      <trkpt lat="44.84917" lon="6.49051">
        <ele>1190.6</ele>
        <time>2024-08-12T02:33:33Z</time>
      </trkpt>
      <trkpt lat="44.84917" lon="6.49051">
        <ele>1190.6</ele>
        <time>2024-08-12T02:33:34Z</time>
      </trkpt>
      <trkpt lat="44.84914" lon="6.49049">
        <ele>1190.4</ele>
        <time>2024-08-12T02:33:35Z</time>
      </trkpt>
      <trkpt lat="44.84914" lon="6.49049">
        <ele>1190.2</ele>
        <time>2024-08-12T02:33:36Z</time>
      </trkpt>
      <trkpt lat="44.84911" lon="6.49047">
        <ele>1190.2</ele>
        <time>2024-08-12T02:33:37Z</time>
      </trkpt>
      <trkpt lat="44.84911" lon="6.49047">
        <ele>1190</ele>
        <time>2024-08-12T02:33:38Z</time>
      </trkpt>
      <trkpt lat="44.84909" lon="6.49046">
        <ele>1189.8</ele>
        <time>2024-08-12T02:33:39Z</time>
      </trkpt>
      <trkpt lat="44.84909" lon="6.49046">
        <ele>1189.8</ele>
        <time>2024-08-12T02:33:40Z</time>
      </trkpt>
      <trkpt lat="44.84907" lon="6.49044">
        <ele>1189.6</ele>
        <time>2024-08-12T02:33:41Z</time>
      </trkpt>
      <trkpt lat="44.84907" lon="6.49044">
        <ele>1189.6</ele>
        <time>2024-08-12T02:33:42Z</time>
      </trkpt>
      <trkpt lat="44.84906" lon="6.49042">
        <ele>1189.6</ele>
        <time>2024-08-12T02:33:43Z</time>
      </trkpt>
      <trkpt lat="44.84906" lon="6.49042">
        <ele>1189.6</ele>
        <time>2024-08-12T02:33:44Z</time>
      </trkpt>
      <trkpt lat="44.84902" lon="6.49041">
        <ele>1189.4</ele>
        <time>2024-08-12T02:33:45Z</time>
      </trkpt>
      <trkpt lat="44.84902" lon="6.49041">
        <ele>1189.4</ele>
        <time>2024-08-12T02:33:46Z</time>
      </trkpt>
      <trkpt lat="44.84899" lon="6.49041">
        <ele>1189.2</ele>
        <time>2024-08-12T02:33:47Z</time>
      </trkpt>
      <trkpt lat="44.84899" lon="6.49041">
        <ele>1189</ele>
        <time>2024-08-12T02:33:48Z</time>
      </trkpt>
      <trkpt lat="44.84896" lon="6.4904">
        <ele>1188.8</ele>
        <time>2024-08-12T02:33:49Z</time>
      </trkpt>
      <trkpt lat="44.84894" lon="6.4904">
        <ele>1188.8</ele>
        <time>2024-08-12T02:33:50Z</time>
      </trkpt>
      <trkpt lat="44.84892" lon="6.4904">
        <ele>1188.6</ele>
        <time>2024-08-12T02:33:51Z</time>
      </trkpt>
      <trkpt lat="44.84892" lon="6.4904">
        <ele>1188.6</ele>
        <time>2024-08-12T02:33:52Z</time>
      </trkpt>
      <trkpt lat="44.84889" lon="6.49039">
        <ele>1188.6</ele>
        <time>2024-08-12T02:33:53Z</time>
      </trkpt>
      <trkpt lat="44.84889" lon="6.49039">
        <ele>1188.4</ele>
        <time>2024-08-12T02:33:54Z</time>
      </trkpt>
      <trkpt lat="44.84886" lon="6.49039">
        <ele>1188.4</ele>
        <time>2024-08-12T02:33:55Z</time>
      </trkpt>
      <trkpt lat="44.84886" lon="6.49039">
        <ele>1188.2</ele>
        <time>2024-08-12T02:33:56Z</time>
      </trkpt>
      <trkpt lat="44.84884" lon="6.49038">
        <ele>1188.2</ele>
        <time>2024-08-12T02:33:57Z</time>
      </trkpt>
      <trkpt lat="44.84884" lon="6.49038">
        <ele>1188</ele>
        <time>2024-08-12T02:33:58Z</time>
      </trkpt>
      <trkpt lat="44.8488" lon="6.49036">
        <ele>1188</ele>
        <time>2024-08-12T02:33:59Z</time>
      </trkpt>
      <trkpt lat="44.8488" lon="6.49036">
        <ele>1187.8</ele>
        <time>2024-08-12T02:34:00Z</time>
      </trkpt>
      <trkpt lat="44.84877" lon="6.49036">
        <ele>1187.6</ele>
        <time>2024-08-12T02:34:01Z</time>
      </trkpt>
      <trkpt lat="44.84875" lon="6.49036">
        <ele>1187.4</ele>
        <time>2024-08-12T02:34:02Z</time>
      </trkpt>
      <trkpt lat="44.84873" lon="6.49036">
        <ele>1187.4</ele>
        <time>2024-08-12T02:34:03Z</time>
      </trkpt>
      <trkpt lat="44.8487" lon="6.49036">
        <ele>1187.2</ele>
        <time>2024-08-12T02:34:04Z</time>
      </trkpt>
      <trkpt lat="44.8487" lon="6.49036">
        <ele>1187.2</ele>
        <time>2024-08-12T02:34:05Z</time>
      </trkpt>
      <trkpt lat="44.84868" lon="6.49034">
        <ele>1187.2</ele>
        <time>2024-08-12T02:34:06Z</time>
      </trkpt>
      <trkpt lat="44.84868" lon="6.49034">
        <ele>1187.2</ele>
        <time>2024-08-12T02:34:07Z</time>
      </trkpt>
      <trkpt lat="44.84865" lon="6.49033">
        <ele>1187.2</ele>
        <time>2024-08-12T02:34:08Z</time>
      </trkpt>
      <trkpt lat="44.84863" lon="6.49032">
        <ele>1187.2</ele>
        <time>2024-08-12T02:34:09Z</time>
      </trkpt>
      <trkpt lat="44.84861" lon="6.49031">
        <ele>1187.2</ele>
        <time>2024-08-12T02:34:10Z</time>
      </trkpt>
      <trkpt lat="44.8486" lon="6.4903">
        <ele>1187.2</ele>
        <time>2024-08-12T02:34:11Z</time>
      </trkpt>
      <trkpt lat="44.8486" lon="6.4903">
        <ele>1186.8</ele>
        <time>2024-08-12T02:34:12Z</time>
      </trkpt>
      <trkpt lat="44.84857" lon="6.49027">
        <ele>1186.6</ele>
        <time>2024-08-12T02:34:13Z</time>
      </trkpt>
      <trkpt lat="44.84857" lon="6.49027">
        <ele>1186.6</ele>
        <time>2024-08-12T02:34:14Z</time>
      </trkpt>
      <trkpt lat="44.84856" lon="6.49025">
        <ele>1186.6</ele>
        <time>2024-08-12T02:34:15Z</time>
      </trkpt>
      <trkpt lat="44.84854" lon="6.49025">
        <ele>1186.4</ele>
        <time>2024-08-12T02:34:16Z</time>
      </trkpt>
      <trkpt lat="44.84854" lon="6.49025">
        <ele>1186.4</ele>
        <time>2024-08-12T02:34:17Z</time>
      </trkpt>
      <trkpt lat="44.84851" lon="6.49023">
        <ele>1186.4</ele>
        <time>2024-08-12T02:34:18Z</time>
      </trkpt>
      <trkpt lat="44.84851" lon="6.49023">
        <ele>1186.4</ele>
        <time>2024-08-12T02:34:19Z</time>
      </trkpt>
      <trkpt lat="44.84848" lon="6.49023">
        <ele>1186</ele>
        <time>2024-08-12T02:34:20Z</time>
      </trkpt>
      <trkpt lat="44.84848" lon="6.49023">
        <ele>1186</ele>
        <time>2024-08-12T02:34:21Z</time>
      </trkpt>
      <trkpt lat="44.84845" lon="6.49023">
        <ele>1185.8</ele>
        <time>2024-08-12T02:34:22Z</time>
      </trkpt>
      <trkpt lat="44.84845" lon="6.49023">
        <ele>1185.8</ele>
        <time>2024-08-12T02:34:23Z</time>
      </trkpt>
      <trkpt lat="44.84842" lon="6.49021">
        <ele>1185.6</ele>
        <time>2024-08-12T02:34:24Z</time>
      </trkpt>
      <trkpt lat="44.8484" lon="6.49021">
        <ele>1185.6</ele>
        <time>2024-08-12T02:34:25Z</time>
      </trkpt>
      <trkpt lat="44.8484" lon="6.49021">
        <ele>1185.6</ele>
        <time>2024-08-12T02:34:26Z</time>
      </trkpt>
      <trkpt lat="44.84838" lon="6.49019">
        <ele>1185.4</ele>
        <time>2024-08-12T02:34:27Z</time>
      </trkpt>
      <trkpt lat="44.84838" lon="6.49019">
        <ele>1185.4</ele>
        <time>2024-08-12T02:34:28Z</time>
      </trkpt>
      <trkpt lat="44.84835" lon="6.49018">
        <ele>1185.2</ele>
        <time>2024-08-12T02:34:29Z</time>
      </trkpt>
      <trkpt lat="44.84835" lon="6.49018">
        <ele>1185</ele>
        <time>2024-08-12T02:34:30Z</time>
      </trkpt>
      <trkpt lat="44.84832" lon="6.49017">
        <ele>1184.8</ele>
        <time>2024-08-12T02:34:31Z</time>
      </trkpt>
      <trkpt lat="44.84832" lon="6.49017">
        <ele>1184.8</ele>
        <time>2024-08-12T02:34:32Z</time>
      </trkpt>
      <trkpt lat="44.84829" lon="6.49017">
        <ele>1184.8</ele>
        <time>2024-08-12T02:34:33Z</time>
      </trkpt>
      <trkpt lat="44.84827" lon="6.49016">
        <ele>1184.8</ele>
        <time>2024-08-12T02:34:34Z</time>
      </trkpt>
      <trkpt lat="44.84827" lon="6.49016">
        <ele>1184.6</ele>
        <time>2024-08-12T02:34:35Z</time>
      </trkpt>
      <trkpt lat="44.84823" lon="6.49016">
        <ele>1184.4</ele>
        <time>2024-08-12T02:34:36Z</time>
      </trkpt>
      <trkpt lat="44.84821" lon="6.49016">
        <ele>1184.4</ele>
        <time>2024-08-12T02:34:37Z</time>
      </trkpt>
      <trkpt lat="44.84821" lon="6.49016">
        <ele>1184.2</ele>
        <time>2024-08-12T02:34:38Z</time>
      </trkpt>
      <trkpt lat="44.84819" lon="6.49015">
        <ele>1184.2</ele>
        <time>2024-08-12T02:34:39Z</time>
      </trkpt>
      <trkpt lat="44.84819" lon="6.49015">
        <ele>1184.2</ele>
        <time>2024-08-12T02:34:40Z</time>
      </trkpt>
      <trkpt lat="44.84816" lon="6.49014">
        <ele>1184</ele>
        <time>2024-08-12T02:34:41Z</time>
      </trkpt>
      <trkpt lat="44.84816" lon="6.49014">
        <ele>1183.8</ele>
        <time>2024-08-12T02:34:42Z</time>
      </trkpt>
      <trkpt lat="44.84813" lon="6.49013">
        <ele>1183.8</ele>
        <time>2024-08-12T02:34:43Z</time>
      </trkpt>
      <trkpt lat="44.84812" lon="6.49012">
        <ele>1183.6</ele>
        <time>2024-08-12T02:34:44Z</time>
      </trkpt>
      <trkpt lat="44.8481" lon="6.49012">
        <ele>1183.4</ele>
        <time>2024-08-12T02:34:45Z</time>
      </trkpt>
      <trkpt lat="44.8481" lon="6.49012">
        <ele>1183.4</ele>
        <time>2024-08-12T02:34:46Z</time>
      </trkpt>
      <trkpt lat="44.84807" lon="6.4901">
        <ele>1183.4</ele>
        <time>2024-08-12T02:34:47Z</time>
      </trkpt>
      <trkpt lat="44.84805" lon="6.49009">
        <ele>1183.4</ele>
        <time>2024-08-12T02:34:48Z</time>
      </trkpt>
      <trkpt lat="44.84803" lon="6.49009">
        <ele>1183.2</ele>
        <time>2024-08-12T02:34:49Z</time>
      </trkpt>
      <trkpt lat="44.84801" lon="6.49008">
        <ele>1183.2</ele>
        <time>2024-08-12T02:34:50Z</time>
      </trkpt>
      <trkpt lat="44.84799" lon="6.49008">
        <ele>1183</ele>
        <time>2024-08-12T02:34:51Z</time>
      </trkpt>
      <trkpt lat="44.84799" lon="6.49008">
        <ele>1182.8</ele>
        <time>2024-08-12T02:34:52Z</time>
      </trkpt>
      <trkpt lat="44.84796" lon="6.49007">
        <ele>1182.6</ele>
        <time>2024-08-12T02:34:53Z</time>
      </trkpt>
      <trkpt lat="44.84796" lon="6.49007">
        <ele>1182.4</ele>
        <time>2024-08-12T02:34:54Z</time>
      </trkpt>
      <trkpt lat="44.84793" lon="6.49006">
        <ele>1182.4</ele>
        <time>2024-08-12T02:34:55Z</time>
      </trkpt>
      <trkpt lat="44.84793" lon="6.49006">
        <ele>1182.2</ele>
        <time>2024-08-12T02:34:56Z</time>
      </trkpt>
      <trkpt lat="44.84793" lon="6.49006">
        <ele>1182</ele>
        <time>2024-08-12T02:34:57Z</time>
      </trkpt>
      <trkpt lat="44.84792" lon="6.49004">
        <ele>1182</ele>
        <time>2024-08-12T02:34:58Z</time>
      </trkpt>
      <trkpt lat="44.84792" lon="6.49004">
        <ele>1182</ele>
        <time>2024-08-12T02:34:59Z</time>
      </trkpt>
      <trkpt lat="44.84789" lon="6.49002">
        <ele>1181.6</ele>
        <time>2024-08-12T02:35:00Z</time>
      </trkpt>
      <trkpt lat="44.84789" lon="6.49002">
        <ele>1181.6</ele>
        <time>2024-08-12T02:35:01Z</time>
      </trkpt>
      <trkpt lat="44.84788" lon="6.49001">
        <ele>1181.6</ele>
        <time>2024-08-12T02:35:02Z</time>
      </trkpt>
      <trkpt lat="44.84788" lon="6.49001">
        <ele>1181.6</ele>
        <time>2024-08-12T02:35:03Z</time>
      </trkpt>
      <trkpt lat="44.84785" lon="6.49001">
        <ele>1181.4</ele>
        <time>2024-08-12T02:35:04Z</time>
      </trkpt>
      <trkpt lat="44.84785" lon="6.49001">
        <ele>1181.4</ele>
        <time>2024-08-12T02:35:05Z</time>
      </trkpt>
      <trkpt lat="44.84782" lon="6.49">
        <ele>1181.2</ele>
        <time>2024-08-12T02:35:06Z</time>
      </trkpt>
      <trkpt lat="44.84782" lon="6.49">
        <ele>1181</ele>
        <time>2024-08-12T02:35:07Z</time>
      </trkpt>
      <trkpt lat="44.84779" lon="6.48999">
        <ele>1180.8</ele>
        <time>2024-08-12T02:35:08Z</time>
      </trkpt>
      <trkpt lat="44.84779" lon="6.48999">
        <ele>1180.8</ele>
        <time>2024-08-12T02:35:09Z</time>
      </trkpt>
      <trkpt lat="44.84779" lon="6.48999">
        <ele>1180.8</ele>
        <time>2024-08-12T02:35:10Z</time>
      </trkpt>
      <trkpt lat="44.84776" lon="6.48997">
        <ele>1180.6</ele>
        <time>2024-08-12T02:35:11Z</time>
      </trkpt>
      <trkpt lat="44.84776" lon="6.48997">
        <ele>1180.4</ele>
        <time>2024-08-12T02:35:12Z</time>
      </trkpt>
      <trkpt lat="44.84773" lon="6.48995">
        <ele>1180.2</ele>
        <time>2024-08-12T02:35:13Z</time>
      </trkpt>
      <trkpt lat="44.84773" lon="6.48995">
        <ele>1179.8</ele>
        <time>2024-08-12T02:35:14Z</time>
      </trkpt>
      <trkpt lat="44.8477" lon="6.48994">
        <ele>1179.6</ele>
        <time>2024-08-12T02:35:15Z</time>
      </trkpt>
      <trkpt lat="44.84768" lon="6.48993">
        <ele>1179.6</ele>
        <time>2024-08-12T02:35:16Z</time>
      </trkpt>
      <trkpt lat="44.84767" lon="6.48992">
        <ele>1179.6</ele>
        <time>2024-08-12T02:35:17Z</time>
      </trkpt>
      <trkpt lat="44.84766" lon="6.48991">
        <ele>1179.4</ele>
        <time>2024-08-12T02:35:18Z</time>
      </trkpt>
      <trkpt lat="44.84765" lon="6.48991">
        <ele>1179.2</ele>
        <time>2024-08-12T02:35:19Z</time>
      </trkpt>
      <trkpt lat="44.84763" lon="6.48988">
        <ele>1179</ele>
        <time>2024-08-12T02:35:20Z</time>
      </trkpt>
      <trkpt lat="44.84763" lon="6.48988">
        <ele>1178.8</ele>
        <time>2024-08-12T02:35:21Z</time>
      </trkpt>
      <trkpt lat="44.8476" lon="6.48987">
        <ele>1178.8</ele>
        <time>2024-08-12T02:35:22Z</time>
      </trkpt>
      <trkpt lat="44.8476" lon="6.48987">
        <ele>1178.6</ele>
        <time>2024-08-12T02:35:23Z</time>
      </trkpt>
      <trkpt lat="44.84757" lon="6.48986">
        <ele>1178.6</ele>
        <time>2024-08-12T02:35:24Z</time>
      </trkpt>
      <trkpt lat="44.84757" lon="6.48986">
        <ele>1178.4</ele>
        <time>2024-08-12T02:35:25Z</time>
      </trkpt>
      <trkpt lat="44.84755" lon="6.48985">
        <ele>1178</ele>
        <time>2024-08-12T02:35:26Z</time>
      </trkpt>
      <trkpt lat="44.84755" lon="6.48985">
        <ele>1177.8</ele>
        <time>2024-08-12T02:35:27Z</time>
      </trkpt>
      <trkpt lat="44.84753" lon="6.48983">
        <ele>1177.6</ele>
        <time>2024-08-12T02:35:28Z</time>
      </trkpt>
      <trkpt lat="44.84753" lon="6.48983">
        <ele>1177.6</ele>
        <time>2024-08-12T02:35:29Z</time>
      </trkpt>
      <trkpt lat="44.8475" lon="6.48981">
        <ele>1177.6</ele>
        <time>2024-08-12T02:35:30Z</time>
      </trkpt>
      <trkpt lat="44.8475" lon="6.48981">
        <ele>1177.4</ele>
        <time>2024-08-12T02:35:31Z</time>
      </trkpt>
      <trkpt lat="44.84746" lon="6.48985">
        <ele>1177.4</ele>
        <time>2024-08-12T02:35:32Z</time>
      </trkpt>
      <trkpt lat="44.84746" lon="6.48985">
        <ele>1177.2</ele>
        <time>2024-08-12T02:35:33Z</time>
      </trkpt>
      <trkpt lat="44.84743" lon="6.48984">
        <ele>1177.2</ele>
        <time>2024-08-12T02:35:34Z</time>
      </trkpt>
      <trkpt lat="44.84743" lon="6.48984">
        <ele>1177</ele>
        <time>2024-08-12T02:35:35Z</time>
      </trkpt>
      <trkpt lat="44.84741" lon="6.48981">
        <ele>1176.6</ele>
        <time>2024-08-12T02:35:36Z</time>
      </trkpt>
      <trkpt lat="44.84739" lon="6.4898">
        <ele>1176.4</ele>
        <time>2024-08-12T02:35:37Z</time>
      </trkpt>
      <trkpt lat="44.84738" lon="6.4898">
        <ele>1176.4</ele>
        <time>2024-08-12T02:35:38Z</time>
      </trkpt>
      <trkpt lat="44.84737" lon="6.4898">
        <ele>1176.4</ele>
        <time>2024-08-12T02:35:39Z</time>
      </trkpt>
      <trkpt lat="44.84736" lon="6.48979">
        <ele>1176.2</ele>
        <time>2024-08-12T02:35:40Z</time>
      </trkpt>
      <trkpt lat="44.84733" lon="6.48978">
        <ele>1176</ele>
        <time>2024-08-12T02:35:41Z</time>
      </trkpt>
      <trkpt lat="44.84733" lon="6.48978">
        <ele>1175.8</ele>
        <time>2024-08-12T02:35:42Z</time>
      </trkpt>
      <trkpt lat="44.84729" lon="6.48976">
        <ele>1175.6</ele>
        <time>2024-08-12T02:35:43Z</time>
      </trkpt>
      <trkpt lat="44.84729" lon="6.48976">
        <ele>1175.4</ele>
        <time>2024-08-12T02:35:44Z</time>
      </trkpt>
      <trkpt lat="44.84727" lon="6.48975">
        <ele>1175.4</ele>
        <time>2024-08-12T02:35:45Z</time>
      </trkpt>
      <trkpt lat="44.84727" lon="6.48975">
        <ele>1175.4</ele>
        <time>2024-08-12T02:35:46Z</time>
      </trkpt>
      <trkpt lat="44.84727" lon="6.48975">
        <ele>1175</ele>
        <time>2024-08-12T02:35:47Z</time>
      </trkpt>
      <trkpt lat="44.84724" lon="6.48974">
        <ele>1175</ele>
        <time>2024-08-12T02:35:48Z</time>
      </trkpt>
      <trkpt lat="44.84722" lon="6.48973">
        <ele>1174.8</ele>
        <time>2024-08-12T02:35:49Z</time>
      </trkpt>
      <trkpt lat="44.84722" lon="6.48973">
        <ele>1174.8</ele>
        <time>2024-08-12T02:35:50Z</time>
      </trkpt>
      <trkpt lat="44.84718" lon="6.48972">
        <ele>1174.8</ele>
        <time>2024-08-12T02:35:51Z</time>
      </trkpt>
      <trkpt lat="44.84718" lon="6.48972">
        <ele>1174.8</ele>
        <time>2024-08-12T02:35:52Z</time>
      </trkpt>
      <trkpt lat="44.84715" lon="6.48973">
        <ele>1174.4</ele>
        <time>2024-08-12T02:35:53Z</time>
      </trkpt>
      <trkpt lat="44.84713" lon="6.48974">
        <ele>1174.4</ele>
        <time>2024-08-12T02:35:54Z</time>
      </trkpt>
      <trkpt lat="44.8471" lon="6.48973">
        <ele>1174.2</ele>
        <time>2024-08-12T02:35:55Z</time>
      </trkpt>
      <trkpt lat="44.84708" lon="6.48973">
        <ele>1174</ele>
        <time>2024-08-12T02:35:56Z</time>
      </trkpt>
      <trkpt lat="44.84711" lon="6.4897">
        <ele>1173.8</ele>
        <time>2024-08-12T02:35:57Z</time>
      </trkpt>
      <trkpt lat="44.84711" lon="6.4897">
        <ele>1173.8</ele>
        <time>2024-08-12T02:35:58Z</time>
      </trkpt>
      <trkpt lat="44.84708" lon="6.48968">
        <ele>1173.6</ele>
        <time>2024-08-12T02:35:59Z</time>
      </trkpt>
      <trkpt lat="44.84706" lon="6.48966">
        <ele>1173.4</ele>
        <time>2024-08-12T02:36:00Z</time>
      </trkpt>
      <trkpt lat="44.84706" lon="6.48966">
        <ele>1173.4</ele>
        <time>2024-08-12T02:36:01Z</time>
      </trkpt>
      <trkpt lat="44.84704" lon="6.48964">
        <ele>1172.8</ele>
        <time>2024-08-12T02:36:02Z</time>
      </trkpt>
      <trkpt lat="44.84704" lon="6.48964">
        <ele>1172.8</ele>
        <time>2024-08-12T02:36:03Z</time>
      </trkpt>
      <trkpt lat="44.84701" lon="6.48963">
        <ele>1172.4</ele>
        <time>2024-08-12T02:36:04Z</time>
      </trkpt>
      <trkpt lat="44.84701" lon="6.48963">
        <ele>1172.2</ele>
        <time>2024-08-12T02:36:05Z</time>
      </trkpt>
      <trkpt lat="44.84699" lon="6.48962">
        <ele>1172.2</ele>
        <time>2024-08-12T02:36:06Z</time>
      </trkpt>
      <trkpt lat="44.84699" lon="6.48962">
        <ele>1172.2</ele>
        <time>2024-08-12T02:36:07Z</time>
      </trkpt>
      <trkpt lat="44.84695" lon="6.48962">
        <ele>1172</ele>
        <time>2024-08-12T02:36:08Z</time>
      </trkpt>
      <trkpt lat="44.84693" lon="6.48961">
        <ele>1171.6</ele>
        <time>2024-08-12T02:36:09Z</time>
      </trkpt>
      <trkpt lat="44.84693" lon="6.48961">
        <ele>1171.6</ele>
        <time>2024-08-12T02:36:10Z</time>
      </trkpt>
      <trkpt lat="44.84691" lon="6.48961">
        <ele>1171.6</ele>
        <time>2024-08-12T02:36:11Z</time>
      </trkpt>
      <trkpt lat="44.84691" lon="6.48961">
        <ele>1171.6</ele>
        <time>2024-08-12T02:36:12Z</time>
      </trkpt>
      <trkpt lat="44.84687" lon="6.4896">
        <ele>1171.4</ele>
        <time>2024-08-12T02:36:13Z</time>
      </trkpt>
      <trkpt lat="44.84687" lon="6.4896">
        <ele>1170.8</ele>
        <time>2024-08-12T02:36:14Z</time>
      </trkpt>
      <trkpt lat="44.84685" lon="6.4896">
        <ele>1170.6</ele>
        <time>2024-08-12T02:36:15Z</time>
      </trkpt>
      <trkpt lat="44.84685" lon="6.4896">
        <ele>1170.6</ele>
        <time>2024-08-12T02:36:16Z</time>
      </trkpt>
      <trkpt lat="44.84682" lon="6.4896">
        <ele>1170.4</ele>
        <time>2024-08-12T02:36:17Z</time>
      </trkpt>
      <trkpt lat="44.84682" lon="6.4896">
        <ele>1170.2</ele>
        <time>2024-08-12T02:36:18Z</time>
      </trkpt>
      <trkpt lat="44.84679" lon="6.48961">
        <ele>1170</ele>
        <time>2024-08-12T02:36:19Z</time>
      </trkpt>
      <trkpt lat="44.84679" lon="6.48961">
        <ele>1169.8</ele>
        <time>2024-08-12T02:36:20Z</time>
      </trkpt>
      <trkpt lat="44.84676" lon="6.4896">
        <ele>1169.8</ele>
        <time>2024-08-12T02:36:21Z</time>
      </trkpt>
      <trkpt lat="44.84676" lon="6.4896">
        <ele>1169.6</ele>
        <time>2024-08-12T02:36:22Z</time>
      </trkpt>
      <trkpt lat="44.84672" lon="6.48961">
        <ele>1169.4</ele>
        <time>2024-08-12T02:36:23Z</time>
      </trkpt>
      <trkpt lat="44.8467" lon="6.48962">
        <ele>1169</ele>
        <time>2024-08-12T02:36:24Z</time>
      </trkpt>
      <trkpt lat="44.8467" lon="6.48962">
        <ele>1169</ele>
        <time>2024-08-12T02:36:25Z</time>
      </trkpt>
      <trkpt lat="44.84668" lon="6.48962">
        <ele>1168.8</ele>
        <time>2024-08-12T02:36:26Z</time>
      </trkpt>
      <trkpt lat="44.84668" lon="6.48962">
        <ele>1168.6</ele>
        <time>2024-08-12T02:36:27Z</time>
      </trkpt>
      <trkpt lat="44.84665" lon="6.48962">
        <ele>1168.4</ele>
        <time>2024-08-12T02:36:28Z</time>
      </trkpt>
      <trkpt lat="44.84665" lon="6.48962">
        <ele>1168.4</ele>
        <time>2024-08-12T02:36:29Z</time>
      </trkpt>
      <trkpt lat="44.84661" lon="6.48962">
        <ele>1168.4</ele>
        <time>2024-08-12T02:36:30Z</time>
      </trkpt>
      <trkpt lat="44.84661" lon="6.48962">
        <ele>1168</ele>
        <time>2024-08-12T02:36:31Z</time>
      </trkpt>
      <trkpt lat="44.84658" lon="6.48963">
        <ele>1167.8</ele>
        <time>2024-08-12T02:36:32Z</time>
      </trkpt>
      <trkpt lat="44.84656" lon="6.48963">
        <ele>1167.8</ele>
        <time>2024-08-12T02:36:33Z</time>
      </trkpt>
      <trkpt lat="44.84654" lon="6.48963">
        <ele>1167.8</ele>
        <time>2024-08-12T02:36:34Z</time>
      </trkpt>
      <trkpt lat="44.84654" lon="6.48963">
        <ele>1167.8</ele>
        <time>2024-08-12T02:36:35Z</time>
      </trkpt>
      <trkpt lat="44.84651" lon="6.48964">
        <ele>1167.8</ele>
        <time>2024-08-12T02:36:36Z</time>
      </trkpt>
      <trkpt lat="44.84651" lon="6.48964">
        <ele>1167.6</ele>
        <time>2024-08-12T02:36:37Z</time>
      </trkpt>
      <trkpt lat="44.84647" lon="6.48964">
        <ele>1167.4</ele>
        <time>2024-08-12T02:36:38Z</time>
      </trkpt>
      <trkpt lat="44.84647" lon="6.48964">
        <ele>1167.4</ele>
        <time>2024-08-12T02:36:39Z</time>
      </trkpt>
      <trkpt lat="44.84644" lon="6.48963">
        <ele>1167.6</ele>
        <time>2024-08-12T02:36:40Z</time>
      </trkpt>
      <trkpt lat="44.84644" lon="6.48963">
        <ele>1167.6</ele>
        <time>2024-08-12T02:36:41Z</time>
      </trkpt>
      <trkpt lat="44.84642" lon="6.48962">
        <ele>1167.6</ele>
        <time>2024-08-12T02:36:42Z</time>
      </trkpt>
      <trkpt lat="44.8464" lon="6.48962">
        <ele>1166.8</ele>
        <time>2024-08-12T02:36:43Z</time>
      </trkpt>
      <trkpt lat="44.84638" lon="6.48962">
        <ele>1166.4</ele>
        <time>2024-08-12T02:36:44Z</time>
      </trkpt>
      <trkpt lat="44.84636" lon="6.48963">
        <ele>1166.4</ele>
        <time>2024-08-12T02:36:45Z</time>
      </trkpt>
      <trkpt lat="44.84634" lon="6.48962">
        <ele>1166</ele>
        <time>2024-08-12T02:36:46Z</time>
      </trkpt>
      <trkpt lat="44.84632" lon="6.48962">
        <ele>1166</ele>
        <time>2024-08-12T02:36:47Z</time>
      </trkpt>
      <trkpt lat="44.84631" lon="6.48962">
        <ele>1165.8</ele>
        <time>2024-08-12T02:36:48Z</time>
      </trkpt>
      <trkpt lat="44.84629" lon="6.48962">
        <ele>1165.8</ele>
        <time>2024-08-12T02:36:49Z</time>
      </trkpt>
      <trkpt lat="44.84629" lon="6.48962">
        <ele>1165.8</ele>
        <time>2024-08-12T02:36:50Z</time>
      </trkpt>
      <trkpt lat="44.84626" lon="6.48961">
        <ele>1165.6</ele>
        <time>2024-08-12T02:36:51Z</time>
      </trkpt>
      <trkpt lat="44.84626" lon="6.48961">
        <ele>1165.4</ele>
        <time>2024-08-12T02:36:52Z</time>
      </trkpt>
      <trkpt lat="44.84624" lon="6.4896">
        <ele>1165.2</ele>
        <time>2024-08-12T02:36:53Z</time>
      </trkpt>
      <trkpt lat="44.84624" lon="6.4896">
        <ele>1165</ele>
        <time>2024-08-12T02:36:54Z</time>
      </trkpt>
      <trkpt lat="44.84622" lon="6.48958">
        <ele>1165</ele>
        <time>2024-08-12T02:36:55Z</time>
      </trkpt>
      <trkpt lat="44.84622" lon="6.48958">
        <ele>1165</ele>
        <time>2024-08-12T02:36:56Z</time>
      </trkpt>
      <trkpt lat="44.84619" lon="6.48959">
        <ele>1164.8</ele>
        <time>2024-08-12T02:36:57Z</time>
      </trkpt>
      <trkpt lat="44.84619" lon="6.48959">
        <ele>1164.6</ele>
        <time>2024-08-12T02:36:58Z</time>
      </trkpt>
      <trkpt lat="44.84617" lon="6.4896">
        <ele>1164.4</ele>
        <time>2024-08-12T02:36:59Z</time>
      </trkpt>
      <trkpt lat="44.84617" lon="6.4896">
        <ele>1164.4</ele>
        <time>2024-08-12T02:37:00Z</time>
      </trkpt>
      <trkpt lat="44.84615" lon="6.48958">
        <ele>1164.2</ele>
        <time>2024-08-12T02:37:01Z</time>
      </trkpt>
      <trkpt lat="44.84615" lon="6.48958">
        <ele>1164.2</ele>
        <time>2024-08-12T02:37:02Z</time>
      </trkpt>
      <trkpt lat="44.84613" lon="6.48955">
        <ele>1164</ele>
        <time>2024-08-12T02:37:03Z</time>
      </trkpt>
      <trkpt lat="44.84613" lon="6.48955">
        <ele>1164</ele>
        <time>2024-08-12T02:37:04Z</time>
      </trkpt>
      <trkpt lat="44.84612" lon="6.48951">
        <ele>1164</ele>
        <time>2024-08-12T02:37:05Z</time>
      </trkpt>
      <trkpt lat="44.84611" lon="6.48948">
        <ele>1164</ele>
        <time>2024-08-12T02:37:06Z</time>
      </trkpt>
      <trkpt lat="44.8461" lon="6.48945">
        <ele>1163.8</ele>
        <time>2024-08-12T02:37:07Z</time>
      </trkpt>
      <trkpt lat="44.8461" lon="6.48945">
        <ele>1163.8</ele>
        <time>2024-08-12T02:37:08Z</time>
      </trkpt>
      <trkpt lat="44.84608" lon="6.4894">
        <ele>1163.4</ele>
        <time>2024-08-12T02:37:09Z</time>
      </trkpt>
      <trkpt lat="44.84608" lon="6.4894">
        <ele>1163.4</ele>
        <time>2024-08-12T02:37:10Z</time>
      </trkpt>
      <trkpt lat="44.84607" lon="6.48936">
        <ele>1163.6</ele>
        <time>2024-08-12T02:37:11Z</time>
      </trkpt>
      <trkpt lat="44.84607" lon="6.48933">
        <ele>1163.6</ele>
        <time>2024-08-12T02:37:12Z</time>
      </trkpt>
      <trkpt lat="44.84607" lon="6.48933">
        <ele>1163.6</ele>
        <time>2024-08-12T02:37:13Z</time>
      </trkpt>
      <trkpt lat="44.84609" lon="6.48928">
        <ele>1163.6</ele>
        <time>2024-08-12T02:37:14Z</time>
      </trkpt>
      <trkpt lat="44.84609" lon="6.48926">
        <ele>1163.6</ele>
        <time>2024-08-12T02:37:15Z</time>
      </trkpt>
      <trkpt lat="44.8461" lon="6.48923">
        <ele>1163.8</ele>
        <time>2024-08-12T02:37:16Z</time>
      </trkpt>
      <trkpt lat="44.8461" lon="6.48923">
        <ele>1163.6</ele>
        <time>2024-08-12T02:37:17Z</time>
      </trkpt>
      <trkpt lat="44.8461" lon="6.48919">
        <ele>1163.6</ele>
        <time>2024-08-12T02:37:18Z</time>
      </trkpt>
      <trkpt lat="44.8461" lon="6.48919">
        <ele>1163.4</ele>
        <time>2024-08-12T02:37:19Z</time>
      </trkpt>
      <trkpt lat="44.84612" lon="6.48915">
        <ele>1163.4</ele>
        <time>2024-08-12T02:37:20Z</time>
      </trkpt>
      <trkpt lat="44.84612" lon="6.48912">
        <ele>1163.4</ele>
        <time>2024-08-12T02:37:21Z</time>
      </trkpt>
      <trkpt lat="44.84613" lon="6.4891">
        <ele>1163.4</ele>
        <time>2024-08-12T02:37:22Z</time>
      </trkpt>
      <trkpt lat="44.84613" lon="6.4891">
        <ele>1163.4</ele>
        <time>2024-08-12T02:37:23Z</time>
      </trkpt>
      <trkpt lat="44.84616" lon="6.48903">
        <ele>1163.4</ele>
        <time>2024-08-12T02:37:24Z</time>
      </trkpt>
      <trkpt lat="44.84617" lon="6.48902">
        <ele>1163.6</ele>
        <time>2024-08-12T02:37:25Z</time>
      </trkpt>
      <trkpt lat="44.84617" lon="6.48902">
        <ele>1163.6</ele>
        <time>2024-08-12T02:37:26Z</time>
      </trkpt>
      <trkpt lat="44.84617" lon="6.48902">
        <ele>1163.6</ele>
        <time>2024-08-12T02:37:27Z</time>
      </trkpt>
      <trkpt lat="44.84616" lon="6.48899">
        <ele>1163.6</ele>
        <time>2024-08-12T02:37:28Z</time>
      </trkpt>
      <trkpt lat="44.84616" lon="6.48899">
        <ele>1163.6</ele>
        <time>2024-08-12T02:37:29Z</time>
      </trkpt>
      <trkpt lat="44.84615" lon="6.48896">
        <ele>1163.4</ele>
        <time>2024-08-12T02:37:30Z</time>
      </trkpt>
      <trkpt lat="44.84615" lon="6.48896">
        <ele>1163.4</ele>
        <time>2024-08-12T02:37:31Z</time>
      </trkpt>
      <trkpt lat="44.84613" lon="6.48893">
        <ele>1163.4</ele>
        <time>2024-08-12T02:37:32Z</time>
      </trkpt>
      <trkpt lat="44.84613" lon="6.48893">
        <ele>1163.4</ele>
        <time>2024-08-12T02:37:33Z</time>
      </trkpt>
      <trkpt lat="44.84613" lon="6.4889">
        <ele>1163.4</ele>
        <time>2024-08-12T02:37:34Z</time>
      </trkpt>
      <trkpt lat="44.84613" lon="6.4889">
        <ele>1163</ele>
        <time>2024-08-12T02:37:35Z</time>
      </trkpt>
      <trkpt lat="44.84613" lon="6.4889">
        <ele>1163</ele>
        <time>2024-08-12T02:37:36Z</time>
      </trkpt>
      <trkpt lat="44.84613" lon="6.4889">
        <ele>1163.2</ele>
        <time>2024-08-12T02:37:37Z</time>
      </trkpt>
      <trkpt lat="44.84613" lon="6.4889">
        <ele>1163.4</ele>
        <time>2024-08-12T02:37:38Z</time>
      </trkpt>
      <trkpt lat="44.84613" lon="6.4889">
        <ele>1163.4</ele>
        <time>2024-08-12T02:37:39Z</time>
      </trkpt>
      <trkpt lat="44.84613" lon="6.4889">
        <ele>1163.2</ele>
        <time>2024-08-12T02:37:40Z</time>
      </trkpt>
      <trkpt lat="44.84613" lon="6.4889">
        <ele>1163.2</ele>
        <time>2024-08-12T02:37:41Z</time>
      </trkpt>
      <trkpt lat="44.84613" lon="6.4889">
        <ele>1163.2</ele>
        <time>2024-08-12T02:37:42Z</time>
      </trkpt>
      <trkpt lat="44.84613" lon="6.4889">
        <ele>1163.2</ele>
        <time>2024-08-12T02:37:43Z</time>
      </trkpt>
      <trkpt lat="44.84613" lon="6.4889">
        <ele>1163.2</ele>
        <time>2024-08-12T02:37:44Z</time>
      </trkpt>
      <trkpt lat="44.84613" lon="6.4889">
        <ele>1163.4</ele>
        <time>2024-08-12T02:37:45Z</time>
      </trkpt>
      <trkpt lat="44.84613" lon="6.4889">
        <ele>1163.4</ele>
        <time>2024-08-12T02:37:46Z</time>
      </trkpt>
      <trkpt lat="44.84613" lon="6.4889">
        <ele>1163.2</ele>
        <time>2024-08-12T02:37:47Z</time>
      </trkpt>
      <trkpt lat="44.84613" lon="6.4889">
        <ele>1163</ele>
        <time>2024-08-12T02:37:48Z</time>
      </trkpt>
      <trkpt lat="44.84613" lon="6.4889">
        <ele>1163</ele>
        <time>2024-08-12T02:37:49Z</time>
      </trkpt>
      <trkpt lat="44.84613" lon="6.4889">
        <ele>1163.2</ele>
        <time>2024-08-12T02:37:50Z</time>
      </trkpt>
      <trkpt lat="44.84613" lon="6.4889">
        <ele>1163.2</ele>
        <time>2024-08-12T02:37:51Z</time>
      </trkpt>
      <trkpt lat="44.84613" lon="6.4889">
        <ele>1163.2</ele>
        <time>2024-08-12T02:37:52Z</time>
      </trkpt>
      <trkpt lat="44.84613" lon="6.4889">
        <ele>1163.4</ele>
        <time>2024-08-12T02:37:53Z</time>
      </trkpt>
      <trkpt lat="44.84613" lon="6.4889">
        <ele>1163.4</ele>
        <time>2024-08-12T02:37:54Z</time>
      </trkpt>
      <trkpt lat="44.84613" lon="6.4889">
        <ele>1163.4</ele>
        <time>2024-08-12T02:37:55Z</time>
      </trkpt>
      <trkpt lat="44.84613" lon="6.4889">
        <ele>1163.4</ele>
        <time>2024-08-12T02:37:56Z</time>
      </trkpt>
      <trkpt lat="44.84613" lon="6.4889">
        <ele>1163.6</ele>
        <time>2024-08-12T02:37:57Z</time>
      </trkpt>
      <trkpt lat="44.84613" lon="6.4889">
        <ele>1163.6</ele>
        <time>2024-08-12T02:37:58Z</time>
      </trkpt>
      <trkpt lat="44.84613" lon="6.4889">
        <ele>1163.6</ele>
        <time>2024-08-12T02:37:59Z</time>
      </trkpt>
      <trkpt lat="44.84613" lon="6.4889">
        <ele>1163.6</ele>
        <time>2024-08-12T02:38:00Z</time>
      </trkpt>
      <trkpt lat="44.84613" lon="6.4889">
        <ele>1163.6</ele>
        <time>2024-08-12T02:38:01Z</time>
      </trkpt>
      <trkpt lat="44.84613" lon="6.4889">
        <ele>1163.6</ele>
        <time>2024-08-12T02:38:02Z</time>
      </trkpt>
      <trkpt lat="44.84613" lon="6.4889">
        <ele>1163.6</ele>
        <time>2024-08-12T02:38:03Z</time>
      </trkpt>
      <trkpt lat="44.84613" lon="6.4889">
        <ele>1163.6</ele>
        <time>2024-08-12T02:38:04Z</time>
      </trkpt>
      <trkpt lat="44.84613" lon="6.4889">
        <ele>1163.6</ele>
        <time>2024-08-12T02:38:05Z</time>
      </trkpt>
      <trkpt lat="44.84613" lon="6.4889">
        <ele>1163.6</ele>
        <time>2024-08-12T02:38:06Z</time>
      </trkpt>
      <trkpt lat="44.84613" lon="6.4889">
        <ele>1163.6</ele>
        <time>2024-08-12T02:38:07Z</time>
      </trkpt>
      <trkpt lat="44.84613" lon="6.4889">
        <ele>1163.8</ele>
        <time>2024-08-12T02:38:08Z</time>
      </trkpt>
      <trkpt lat="44.84613" lon="6.4889">
        <ele>1163.8</ele>
        <time>2024-08-12T02:38:09Z</time>
      </trkpt>
      <trkpt lat="44.84613" lon="6.4889">
        <ele>1163.6</ele>
        <time>2024-08-12T02:38:10Z</time>
      </trkpt>
      <trkpt lat="44.84613" lon="6.4889">
        <ele>1163.6</ele>
        <time>2024-08-12T02:38:11Z</time>
      </trkpt>
      <trkpt lat="44.84613" lon="6.4889">
        <ele>1163.6</ele>
        <time>2024-08-12T02:38:12Z</time>
      </trkpt>
      <trkpt lat="44.84613" lon="6.4889">
        <ele>1163.8</ele>
        <time>2024-08-12T02:38:13Z</time>
      </trkpt>
      <trkpt lat="44.84613" lon="6.4889">
        <ele>1163.8</ele>
        <time>2024-08-12T02:38:14Z</time>
      </trkpt>
      <trkpt lat="44.84613" lon="6.4889">
        <ele>1163.4</ele>
        <time>2024-08-12T02:38:15Z</time>
      </trkpt>
      <trkpt lat="44.84613" lon="6.4889">
        <ele>1163.4</ele>
        <time>2024-08-12T02:38:16Z</time>
      </trkpt>
      <trkpt lat="44.84613" lon="6.4889">
        <ele>1163.8</ele>
        <time>2024-08-12T02:38:17Z</time>
      </trkpt>
      <trkpt lat="44.84613" lon="6.4889">
        <ele>1163.8</ele>
        <time>2024-08-12T02:38:18Z</time>
      </trkpt>
      <trkpt lat="44.84613" lon="6.4889">
        <ele>1163.6</ele>
        <time>2024-08-12T02:38:19Z</time>
      </trkpt>
      <trkpt lat="44.84613" lon="6.4889">
        <ele>1163.6</ele>
        <time>2024-08-12T02:38:20Z</time>
      </trkpt>
      <trkpt lat="44.84613" lon="6.4889">
        <ele>1163.6</ele>
        <time>2024-08-12T02:38:21Z</time>
      </trkpt>
      <trkpt lat="44.84614" lon="6.48887">
        <ele>1163.6</ele>
        <time>2024-08-12T02:38:22Z</time>
      </trkpt>
      <trkpt lat="44.84614" lon="6.48887">
        <ele>1163.8</ele>
        <time>2024-08-12T02:38:23Z</time>
      </trkpt>
      <trkpt lat="44.84615" lon="6.48883">
        <ele>1163.8</ele>
        <time>2024-08-12T02:38:24Z</time>
      </trkpt>
      <trkpt lat="44.84616" lon="6.48881">
        <ele>1163.8</ele>
        <time>2024-08-12T02:38:25Z</time>
      </trkpt>
      <trkpt lat="44.84617" lon="6.48878">
        <ele>1163.8</ele>
        <time>2024-08-12T02:38:26Z</time>
      </trkpt>
      <trkpt lat="44.84618" lon="6.48876">
        <ele>1163.8</ele>
        <time>2024-08-12T02:38:27Z</time>
      </trkpt>
      <trkpt lat="44.84618" lon="6.48876">
        <ele>1163.8</ele>
        <time>2024-08-12T02:38:28Z</time>
      </trkpt>
      <trkpt lat="44.84618" lon="6.48871">
        <ele>1163.8</ele>
        <time>2024-08-12T02:38:29Z</time>
      </trkpt>
      <trkpt lat="44.84618" lon="6.48871">
        <ele>1163.8</ele>
        <time>2024-08-12T02:38:30Z</time>
      </trkpt>
      <trkpt lat="44.84618" lon="6.48867">
        <ele>1164</ele>
        <time>2024-08-12T02:38:31Z</time>
      </trkpt>
      <trkpt lat="44.84618" lon="6.48867">
        <ele>1164</ele>
        <time>2024-08-12T02:38:32Z</time>
      </trkpt>
      <trkpt lat="44.84618" lon="6.48863">
        <ele>1164</ele>
        <time>2024-08-12T02:38:33Z</time>
      </trkpt>
      <trkpt lat="44.84618" lon="6.48863">
        <ele>1164</ele>
        <time>2024-08-12T02:38:34Z</time>
      </trkpt>
      <trkpt lat="44.84619" lon="6.48858">
        <ele>1163.8</ele>
        <time>2024-08-12T02:38:35Z</time>
      </trkpt>
      <trkpt lat="44.84619" lon="6.48858">
        <ele>1163.8</ele>
        <time>2024-08-12T02:38:36Z</time>
      </trkpt>
      <trkpt lat="44.8462" lon="6.48854">
        <ele>1163.8</ele>
        <time>2024-08-12T02:38:37Z</time>
      </trkpt>
      <trkpt lat="44.8462" lon="6.48854">
        <ele>1163.8</ele>
        <time>2024-08-12T02:38:38Z</time>
      </trkpt>
      <trkpt lat="44.84621" lon="6.48849">
        <ele>1163.6</ele>
        <time>2024-08-12T02:38:39Z</time>
      </trkpt>
      <trkpt lat="44.84621" lon="6.48849">
        <ele>1163.6</ele>
        <time>2024-08-12T02:38:40Z</time>
      </trkpt>
      <trkpt lat="44.84621" lon="6.48845">
        <ele>1163.6</ele>
        <time>2024-08-12T02:38:41Z</time>
      </trkpt>
      <trkpt lat="44.84621" lon="6.48845">
        <ele>1163.8</ele>
        <time>2024-08-12T02:38:42Z</time>
      </trkpt>
      <trkpt lat="44.84621" lon="6.48841">
        <ele>1163.8</ele>
        <time>2024-08-12T02:38:43Z</time>
      </trkpt>
      <trkpt lat="44.84621" lon="6.48841">
        <ele>1163.8</ele>
        <time>2024-08-12T02:38:44Z</time>
      </trkpt>
      <trkpt lat="44.84622" lon="6.48837">
        <ele>1163.8</ele>
        <time>2024-08-12T02:38:45Z</time>
      </trkpt>
      <trkpt lat="44.84622" lon="6.48837">
        <ele>1164</ele>
        <time>2024-08-12T02:38:46Z</time>
      </trkpt>
      <trkpt lat="44.84622" lon="6.48833">
        <ele>1164</ele>
        <time>2024-08-12T02:38:47Z</time>
      </trkpt>
      <trkpt lat="44.84622" lon="6.48833">
        <ele>1164.2</ele>
        <time>2024-08-12T02:38:48Z</time>
      </trkpt>
      <trkpt lat="44.84621" lon="6.48829">
        <ele>1164.2</ele>
        <time>2024-08-12T02:38:49Z</time>
      </trkpt>
      <trkpt lat="44.84621" lon="6.48829">
        <ele>1164.2</ele>
        <time>2024-08-12T02:38:50Z</time>
      </trkpt>
      <trkpt lat="44.8462" lon="6.48825">
        <ele>1164.4</ele>
        <time>2024-08-12T02:38:51Z</time>
      </trkpt>
      <trkpt lat="44.8462" lon="6.48825">
        <ele>1164.4</ele>
        <time>2024-08-12T02:38:52Z</time>
      </trkpt>
      <trkpt lat="44.84621" lon="6.48821">
        <ele>1164.4</ele>
        <time>2024-08-12T02:38:53Z</time>
      </trkpt>
      <trkpt lat="44.84621" lon="6.48821">
        <ele>1164.4</ele>
        <time>2024-08-12T02:38:54Z</time>
      </trkpt>
      <trkpt lat="44.84622" lon="6.48817">
        <ele>1164.4</ele>
        <time>2024-08-12T02:38:55Z</time>
      </trkpt>
      <trkpt lat="44.84622" lon="6.48817">
        <ele>1164.4</ele>
        <time>2024-08-12T02:38:56Z</time>
      </trkpt>
      <trkpt lat="44.84622" lon="6.48813">
        <ele>1164.4</ele>
        <time>2024-08-12T02:38:57Z</time>
      </trkpt>
      <trkpt lat="44.84622" lon="6.48813">
        <ele>1164.6</ele>
        <time>2024-08-12T02:38:58Z</time>
      </trkpt>
      <trkpt lat="44.84622" lon="6.48809">
        <ele>1164.6</ele>
        <time>2024-08-12T02:38:59Z</time>
      </trkpt>
      <trkpt lat="44.84622" lon="6.48809">
        <ele>1165</ele>
        <time>2024-08-12T02:39:00Z</time>
      </trkpt>
      <trkpt lat="44.84622" lon="6.48804">
        <ele>1165</ele>
        <time>2024-08-12T02:39:01Z</time>
      </trkpt>
      <trkpt lat="44.84622" lon="6.48804">
        <ele>1165.2</ele>
        <time>2024-08-12T02:39:02Z</time>
      </trkpt>
      <trkpt lat="44.84622" lon="6.48801">
        <ele>1165.2</ele>
        <time>2024-08-12T02:39:03Z</time>
      </trkpt>
      <trkpt lat="44.84622" lon="6.48801">
        <ele>1165.4</ele>
        <time>2024-08-12T02:39:04Z</time>
      </trkpt>
      <trkpt lat="44.84621" lon="6.48797">
        <ele>1165.4</ele>
        <time>2024-08-12T02:39:05Z</time>
      </trkpt>
      <trkpt lat="44.84621" lon="6.48797">
        <ele>1165.6</ele>
        <time>2024-08-12T02:39:06Z</time>
      </trkpt>
      <trkpt lat="44.8462" lon="6.48794">
        <ele>1165.6</ele>
        <time>2024-08-12T02:39:07Z</time>
      </trkpt>
      <trkpt lat="44.8462" lon="6.48794">
        <ele>1165.8</ele>
        <time>2024-08-12T02:39:08Z</time>
      </trkpt>
      <trkpt lat="44.84619" lon="6.48791">
        <ele>1165.8</ele>
        <time>2024-08-12T02:39:09Z</time>
      </trkpt>
      <trkpt lat="44.84619" lon="6.48791">
        <ele>1165.8</ele>
        <time>2024-08-12T02:39:10Z</time>
      </trkpt>
      <trkpt lat="44.84619" lon="6.48788">
        <ele>1166</ele>
        <time>2024-08-12T02:39:11Z</time>
      </trkpt>
      <trkpt lat="44.84619" lon="6.48788">
        <ele>1166</ele>
        <time>2024-08-12T02:39:12Z</time>
      </trkpt>
      <trkpt lat="44.84618" lon="6.48784">
        <ele>1166</ele>
        <time>2024-08-12T02:39:13Z</time>
      </trkpt>
      <trkpt lat="44.84618" lon="6.48784">
        <ele>1166</ele>
        <time>2024-08-12T02:39:14Z</time>
      </trkpt>
      <trkpt lat="44.84618" lon="6.4878">
        <ele>1166</ele>
        <time>2024-08-12T02:39:15Z</time>
      </trkpt>
      <trkpt lat="44.84618" lon="6.4878">
        <ele>1166.2</ele>
        <time>2024-08-12T02:39:16Z</time>
      </trkpt>
      <trkpt lat="44.84617" lon="6.48776">
        <ele>1166.4</ele>
        <time>2024-08-12T02:39:17Z</time>
      </trkpt>
      <trkpt lat="44.84617" lon="6.48776">
        <ele>1166.4</ele>
        <time>2024-08-12T02:39:18Z</time>
      </trkpt>
      <trkpt lat="44.84617" lon="6.48776">
        <ele>1166.6</ele>
        <time>2024-08-12T02:39:19Z</time>
      </trkpt>
      <trkpt lat="44.84617" lon="6.48776">
        <ele>1167</ele>
        <time>2024-08-12T02:39:20Z</time>
      </trkpt>
      <trkpt lat="44.84616" lon="6.48773">
        <ele>1167</ele>
        <time>2024-08-12T02:39:21Z</time>
      </trkpt>
      <trkpt lat="44.84616" lon="6.48773">
        <ele>1167</ele>
        <time>2024-08-12T02:39:22Z</time>
      </trkpt>
      <trkpt lat="44.84616" lon="6.48773">
        <ele>1167.4</ele>
        <time>2024-08-12T02:39:23Z</time>
      </trkpt>
      <trkpt lat="44.84616" lon="6.48773">
        <ele>1167.4</ele>
        <time>2024-08-12T02:39:24Z</time>
      </trkpt>
      <trkpt lat="44.84616" lon="6.48773">
        <ele>1167.2</ele>
        <time>2024-08-12T02:39:25Z</time>
      </trkpt>
      <trkpt lat="44.84616" lon="6.48773">
        <ele>1167</ele>
        <time>2024-08-12T02:39:26Z</time>
      </trkpt>
      <trkpt lat="44.84616" lon="6.48773">
        <ele>1167</ele>
        <time>2024-08-12T02:39:27Z</time>
      </trkpt>
      <trkpt lat="44.84616" lon="6.48773">
        <ele>1167</ele>
        <time>2024-08-12T02:39:28Z</time>
      </trkpt>
      <trkpt lat="44.84616" lon="6.48773">
        <ele>1167</ele>
        <time>2024-08-12T02:39:29Z</time>
      </trkpt>
      <trkpt lat="44.84616" lon="6.48773">
        <ele>1167</ele>
        <time>2024-08-12T02:39:30Z</time>
      </trkpt>
      <trkpt lat="44.84616" lon="6.48773">
        <ele>1166.8</ele>
        <time>2024-08-12T02:39:31Z</time>
      </trkpt>
      <trkpt lat="44.84618" lon="6.48775">
        <ele>1166.8</ele>
        <time>2024-08-12T02:39:32Z</time>
      </trkpt>
      <trkpt lat="44.84618" lon="6.48775">
        <ele>1166.8</ele>
        <time>2024-08-12T02:39:33Z</time>
      </trkpt>
      <trkpt lat="44.84619" lon="6.4878">
        <ele>1166.8</ele>
        <time>2024-08-12T02:39:34Z</time>
      </trkpt>
      <trkpt lat="44.84619" lon="6.4878">
        <ele>1166.6</ele>
        <time>2024-08-12T02:39:35Z</time>
      </trkpt>
      <trkpt lat="44.84619" lon="6.48783">
        <ele>1166.6</ele>
        <time>2024-08-12T02:39:36Z</time>
      </trkpt>
      <trkpt lat="44.84619" lon="6.48783">
        <ele>1166.2</ele>
        <time>2024-08-12T02:39:37Z</time>
      </trkpt>
      <trkpt lat="44.84619" lon="6.48783">
        <ele>1166.2</ele>
        <time>2024-08-12T02:39:38Z</time>
      </trkpt>
      <trkpt lat="44.84619" lon="6.48783">
        <ele>1166.2</ele>
        <time>2024-08-12T02:39:39Z</time>
      </trkpt>
      <trkpt lat="44.84619" lon="6.48783">
        <ele>1166</ele>
        <time>2024-08-12T02:39:40Z</time>
      </trkpt>
      <trkpt lat="44.84618" lon="6.48781">
        <ele>1166</ele>
        <time>2024-08-12T02:39:41Z</time>
      </trkpt>
      <trkpt lat="44.84618" lon="6.48781">
        <ele>1166.2</ele>
        <time>2024-08-12T02:39:42Z</time>
      </trkpt>
      <trkpt lat="44.84617" lon="6.48777">
        <ele>1166.2</ele>
        <time>2024-08-12T02:39:43Z</time>
      </trkpt>
      <trkpt lat="44.84617" lon="6.48777">
        <ele>1166.4</ele>
        <time>2024-08-12T02:39:44Z</time>
      </trkpt>
      <trkpt lat="44.84616" lon="6.48775">
        <ele>1166.6</ele>
        <time>2024-08-12T02:39:45Z</time>
      </trkpt>
      <trkpt lat="44.84616" lon="6.48775">
        <ele>1166.6</ele>
        <time>2024-08-12T02:39:46Z</time>
      </trkpt>
      <trkpt lat="44.84614" lon="6.48772">
        <ele>1166.6</ele>
        <time>2024-08-12T02:39:47Z</time>
      </trkpt>
      <trkpt lat="44.84614" lon="6.48772">
        <ele>1167</ele>
        <time>2024-08-12T02:39:48Z</time>
      </trkpt>
      <trkpt lat="44.84612" lon="6.4877">
        <ele>1167.4</ele>
        <time>2024-08-12T02:39:49Z</time>
      </trkpt>
      <trkpt lat="44.84612" lon="6.4877">
        <ele>1167.6</ele>
        <time>2024-08-12T02:39:50Z</time>
      </trkpt>
      <trkpt lat="44.8461" lon="6.48766">
        <ele>1167.6</ele>
        <time>2024-08-12T02:39:51Z</time>
      </trkpt>
      <trkpt lat="44.8461" lon="6.48766">
        <ele>1167.4</ele>
        <time>2024-08-12T02:39:52Z</time>
      </trkpt>
      <trkpt lat="44.84609" lon="6.48762">
        <ele>1167.2</ele>
        <time>2024-08-12T02:39:53Z</time>
      </trkpt>
      <trkpt lat="44.84609" lon="6.48762">
        <ele>1167.2</ele>
        <time>2024-08-12T02:39:54Z</time>
      </trkpt>
      <trkpt lat="44.84607" lon="6.48759">
        <ele>1167.4</ele>
        <time>2024-08-12T02:39:55Z</time>
      </trkpt>
      <trkpt lat="44.84607" lon="6.48759">
        <ele>1167.4</ele>
        <time>2024-08-12T02:39:56Z</time>
      </trkpt>
      <trkpt lat="44.84606" lon="6.48755">
        <ele>1167.6</ele>
        <time>2024-08-12T02:39:57Z</time>
      </trkpt>
      <trkpt lat="44.84606" lon="6.48755">
        <ele>1167.4</ele>
        <time>2024-08-12T02:39:58Z</time>
      </trkpt>
      <trkpt lat="44.84605" lon="6.48753">
        <ele>1167.6</ele>
        <time>2024-08-12T02:39:59Z</time>
      </trkpt>
      <trkpt lat="44.84605" lon="6.48753">
        <ele>1167.6</ele>
        <time>2024-08-12T02:40:01Z</time>
      </trkpt>
      <trkpt lat="44.84605" lon="6.48753">
        <ele>1168</ele>
        <time>2024-08-12T02:40:02Z</time>
      </trkpt>
      <trkpt lat="44.84605" lon="6.48753">
        <ele>1168</ele>
        <time>2024-08-12T02:40:03Z</time>
      </trkpt>
      <trkpt lat="44.84606" lon="6.48756">
        <ele>1168</ele>
        <time>2024-08-12T02:40:04Z</time>
      </trkpt>
      <trkpt lat="44.84606" lon="6.48756">
        <ele>1167.8</ele>
        <time>2024-08-12T02:40:05Z</time>
      </trkpt>
      <trkpt lat="44.84606" lon="6.4876">
        <ele>1167.8</ele>
        <time>2024-08-12T02:40:06Z</time>
      </trkpt>
      <trkpt lat="44.84606" lon="6.4876">
        <ele>1167.8</ele>
        <time>2024-08-12T02:40:07Z</time>
      </trkpt>
      <trkpt lat="44.84606" lon="6.48765">
        <ele>1167.8</ele>
        <time>2024-08-12T02:40:08Z</time>
      </trkpt>
      <trkpt lat="44.84606" lon="6.48765">
        <ele>1167.8</ele>
        <time>2024-08-12T02:40:09Z</time>
      </trkpt>
      <trkpt lat="44.84608" lon="6.48768">
        <ele>1167.4</ele>
        <time>2024-08-12T02:40:10Z</time>
      </trkpt>
      <trkpt lat="44.84608" lon="6.48768">
        <ele>1167.4</ele>
        <time>2024-08-12T02:40:11Z</time>
      </trkpt>
      <trkpt lat="44.8461" lon="6.48772">
        <ele>1167.4</ele>
        <time>2024-08-12T02:40:12Z</time>
      </trkpt>
      <trkpt lat="44.8461" lon="6.48772">
        <ele>1167.4</ele>
        <time>2024-08-12T02:40:13Z</time>
      </trkpt>
      <trkpt lat="44.84612" lon="6.48775">
        <ele>1167.4</ele>
        <time>2024-08-12T02:40:14Z</time>
      </trkpt>
      <trkpt lat="44.84612" lon="6.48775">
        <ele>1167.2</ele>
        <time>2024-08-12T02:40:15Z</time>
      </trkpt>
      <trkpt lat="44.84613" lon="6.48779">
        <ele>1166.8</ele>
        <time>2024-08-12T02:40:16Z</time>
      </trkpt>
      <trkpt lat="44.84613" lon="6.48779">
        <ele>1166.8</ele>
        <time>2024-08-12T02:40:17Z</time>
      </trkpt>
      <trkpt lat="44.84613" lon="6.48783">
        <ele>1166.8</ele>
        <time>2024-08-12T02:40:18Z</time>
      </trkpt>
      <trkpt lat="44.84615" lon="6.48785">
        <ele>1166.8</ele>
        <time>2024-08-12T02:40:19Z</time>
      </trkpt>
      <trkpt lat="44.84615" lon="6.48785">
        <ele>1166.6</ele>
        <time>2024-08-12T02:40:20Z</time>
      </trkpt>
      <trkpt lat="44.84616" lon="6.48788">
        <ele>1166.6</ele>
        <time>2024-08-12T02:40:21Z</time>
      </trkpt>
      <trkpt lat="44.84616" lon="6.48788">
        <ele>1166.8</ele>
        <time>2024-08-12T02:40:22Z</time>
      </trkpt>
      <trkpt lat="44.84616" lon="6.48792">
        <ele>1166.8</ele>
        <time>2024-08-12T02:40:23Z</time>
      </trkpt>
      <trkpt lat="44.84616" lon="6.48792">
        <ele>1166.4</ele>
        <time>2024-08-12T02:40:24Z</time>
      </trkpt>
      <trkpt lat="44.84616" lon="6.48796">
        <ele>1166</ele>
        <time>2024-08-12T02:40:25Z</time>
      </trkpt>
      <trkpt lat="44.84616" lon="6.48796">
        <ele>1166</ele>
        <time>2024-08-12T02:40:26Z</time>
      </trkpt>
      <trkpt lat="44.84615" lon="6.48799">
        <ele>1166</ele>
        <time>2024-08-12T02:40:27Z</time>
      </trkpt>
      <trkpt lat="44.84615" lon="6.48799">
        <ele>1166</ele>
        <time>2024-08-12T02:40:28Z</time>
      </trkpt>
      <trkpt lat="44.84612" lon="6.48801">
        <ele>1166</ele>
        <time>2024-08-12T02:40:29Z</time>
      </trkpt>
      <trkpt lat="44.84609" lon="6.48801">
        <ele>1165.8</ele>
        <time>2024-08-12T02:40:31Z</time>
      </trkpt>
      <trkpt lat="44.84609" lon="6.48801">
        <ele>1165.8</ele>
        <time>2024-08-12T02:40:32Z</time>
      </trkpt>
      <trkpt lat="44.84605" lon="6.48802">
        <ele>1165.6</ele>
        <time>2024-08-12T02:40:33Z</time>
      </trkpt>
      <trkpt lat="44.84605" lon="6.48802">
        <ele>1165.6</ele>
        <time>2024-08-12T02:40:34Z</time>
      </trkpt>
      <trkpt lat="44.84603" lon="6.48803">
        <ele>1165.6</ele>
        <time>2024-08-12T02:40:35Z</time>
      </trkpt>
      <trkpt lat="44.84603" lon="6.48803">
        <ele>1166</ele>
        <time>2024-08-12T02:40:36Z</time>
      </trkpt>
      <trkpt lat="44.846" lon="6.48803">
        <ele>1166</ele>
        <time>2024-08-12T02:40:37Z</time>
      </trkpt>
      <trkpt lat="44.846" lon="6.48803">
        <ele>1165.6</ele>
        <time>2024-08-12T02:40:38Z</time>
      </trkpt>
      <trkpt lat="44.84598" lon="6.48804">
        <ele>1165.2</ele>
        <time>2024-08-12T02:40:39Z</time>
      </trkpt>
      <trkpt lat="44.84598" lon="6.48804">
        <ele>1165.2</ele>
        <time>2024-08-12T02:40:40Z</time>
      </trkpt>
      <trkpt lat="44.84595" lon="6.48805">
        <ele>1165</ele>
        <time>2024-08-12T02:40:41Z</time>
      </trkpt>
      <trkpt lat="44.84595" lon="6.48805">
        <ele>1164.6</ele>
        <time>2024-08-12T02:40:42Z</time>
      </trkpt>
      <trkpt lat="44.84592" lon="6.48805">
        <ele>1164.6</ele>
        <time>2024-08-12T02:40:43Z</time>
      </trkpt>
      <trkpt lat="44.84592" lon="6.48805">
        <ele>1164.6</ele>
        <time>2024-08-12T02:40:44Z</time>
      </trkpt>
      <trkpt lat="44.8459" lon="6.48806">
        <ele>1164.6</ele>
        <time>2024-08-12T02:40:45Z</time>
      </trkpt>
      <trkpt lat="44.8459" lon="6.48806">
        <ele>1164.6</ele>
        <time>2024-08-12T02:40:46Z</time>
      </trkpt>
      <trkpt lat="44.84587" lon="6.48806">
        <ele>1164.6</ele>
        <time>2024-08-12T02:40:47Z</time>
      </trkpt>
      <trkpt lat="44.84585" lon="6.48805">
        <ele>1164.4</ele>
        <time>2024-08-12T02:40:48Z</time>
      </trkpt>
      <trkpt lat="44.84583" lon="6.48805">
        <ele>1164.4</ele>
        <time>2024-08-12T02:40:49Z</time>
      </trkpt>
      <trkpt lat="44.84583" lon="6.48805">
        <ele>1164.4</ele>
        <time>2024-08-12T02:40:50Z</time>
      </trkpt>
      <trkpt lat="44.84581" lon="6.48803">
        <ele>1164.4</ele>
        <time>2024-08-12T02:40:51Z</time>
      </trkpt>
      <trkpt lat="44.84581" lon="6.48803">
        <ele>1164.4</ele>
        <time>2024-08-12T02:40:52Z</time>
      </trkpt>
      <trkpt lat="44.84579" lon="6.48799">
        <ele>1164.4</ele>
        <time>2024-08-12T02:40:53Z</time>
      </trkpt>
      <trkpt lat="44.84579" lon="6.48799">
        <ele>1164.4</ele>
        <time>2024-08-12T02:40:54Z</time>
      </trkpt>
      <trkpt lat="44.84577" lon="6.48796">
        <ele>1164.4</ele>
        <time>2024-08-12T02:40:55Z</time>
      </trkpt>
      <trkpt lat="44.84577" lon="6.48796">
        <ele>1164.4</ele>
        <time>2024-08-12T02:40:56Z</time>
      </trkpt>
      <trkpt lat="44.84575" lon="6.48792">
        <ele>1164.4</ele>
        <time>2024-08-12T02:40:57Z</time>
      </trkpt>
      <trkpt lat="44.84575" lon="6.48792">
        <ele>1164.4</ele>
        <time>2024-08-12T02:40:58Z</time>
      </trkpt>
      <trkpt lat="44.84573" lon="6.4879">
        <ele>1164.4</ele>
        <time>2024-08-12T02:40:59Z</time>
      </trkpt>
      <trkpt lat="44.84573" lon="6.4879">
        <ele>1164.4</ele>
        <time>2024-08-12T02:41:00Z</time>
      </trkpt>
      <trkpt lat="44.84572" lon="6.48787">
        <ele>1164.6</ele>
        <time>2024-08-12T02:41:01Z</time>
      </trkpt>
      <trkpt lat="44.84572" lon="6.48787">
        <ele>1164.6</ele>
        <time>2024-08-12T02:41:02Z</time>
      </trkpt>
      <trkpt lat="44.84571" lon="6.48784">
        <ele>1164.6</ele>
        <time>2024-08-12T02:41:03Z</time>
      </trkpt>
      <trkpt lat="44.84571" lon="6.48784">
        <ele>1164.6</ele>
        <time>2024-08-12T02:41:04Z</time>
      </trkpt>
      <trkpt lat="44.84569" lon="6.48781">
        <ele>1164.6</ele>
        <time>2024-08-12T02:41:05Z</time>
      </trkpt>
      <trkpt lat="44.84569" lon="6.48781">
        <ele>1164.6</ele>
        <time>2024-08-12T02:41:06Z</time>
      </trkpt>
      <trkpt lat="44.84566" lon="6.48779">
        <ele>1164.6</ele>
        <time>2024-08-12T02:41:07Z</time>
      </trkpt>
      <trkpt lat="44.84566" lon="6.48779">
        <ele>1164.6</ele>
        <time>2024-08-12T02:41:08Z</time>
      </trkpt>
      <trkpt lat="44.84564" lon="6.48776">
        <ele>1164.4</ele>
        <time>2024-08-12T02:41:09Z</time>
      </trkpt>
      <trkpt lat="44.84564" lon="6.48776">
        <ele>1164.4</ele>
        <time>2024-08-12T02:41:10Z</time>
      </trkpt>
      <trkpt lat="44.84562" lon="6.48773">
        <ele>1164.4</ele>
        <time>2024-08-12T02:41:11Z</time>
      </trkpt>
      <trkpt lat="44.84562" lon="6.48773">
        <ele>1164.6</ele>
        <time>2024-08-12T02:41:12Z</time>
      </trkpt>
      <trkpt lat="44.8456" lon="6.4877">
        <ele>1164.6</ele>
        <time>2024-08-12T02:41:13Z</time>
      </trkpt>
      <trkpt lat="44.84558" lon="6.48768">
        <ele>1164.6</ele>
        <time>2024-08-12T02:41:14Z</time>
      </trkpt>
      <trkpt lat="44.84558" lon="6.48768">
        <ele>1164.6</ele>
        <time>2024-08-12T02:41:15Z</time>
      </trkpt>
      <trkpt lat="44.84557" lon="6.48765">
        <ele>1164.6</ele>
        <time>2024-08-12T02:41:16Z</time>
      </trkpt>
      <trkpt lat="44.84557" lon="6.48765">
        <ele>1164.6</ele>
        <time>2024-08-12T02:41:17Z</time>
      </trkpt>
      <trkpt lat="44.84556" lon="6.48762">
        <ele>1164.6</ele>
        <time>2024-08-12T02:41:18Z</time>
      </trkpt>
      <trkpt lat="44.84556" lon="6.48762">
        <ele>1164.6</ele>
        <time>2024-08-12T02:41:19Z</time>
      </trkpt>
      <trkpt lat="44.84554" lon="6.48758">
        <ele>1164.8</ele>
        <time>2024-08-12T02:41:20Z</time>
      </trkpt>
      <trkpt lat="44.84554" lon="6.48758">
        <ele>1164.8</ele>
        <time>2024-08-12T02:41:21Z</time>
      </trkpt>
      <trkpt lat="44.84552" lon="6.48755">
        <ele>1164.8</ele>
        <time>2024-08-12T02:41:22Z</time>
      </trkpt>
      <trkpt lat="44.8455" lon="6.48753">
        <ele>1165.2</ele>
        <time>2024-08-12T02:41:23Z</time>
      </trkpt>
      <trkpt lat="44.8455" lon="6.48751">
        <ele>1165.2</ele>
        <time>2024-08-12T02:41:24Z</time>
      </trkpt>
      <trkpt lat="44.84549" lon="6.48749">
        <ele>1165</ele>
        <time>2024-08-12T02:41:25Z</time>
      </trkpt>
      <trkpt lat="44.84548" lon="6.48746">
        <ele>1164.8</ele>
        <time>2024-08-12T02:41:26Z</time>
      </trkpt>
      <trkpt lat="44.84547" lon="6.48744">
        <ele>1164.6</ele>
        <time>2024-08-12T02:41:27Z</time>
      </trkpt>
      <trkpt lat="44.84547" lon="6.48744">
        <ele>1164.6</ele>
        <time>2024-08-12T02:41:28Z</time>
      </trkpt>
      <trkpt lat="44.84545" lon="6.48742">
        <ele>1164.6</ele>
        <time>2024-08-12T02:41:29Z</time>
      </trkpt>
      <trkpt lat="44.84545" lon="6.48742">
        <ele>1164.6</ele>
        <time>2024-08-12T02:41:30Z</time>
      </trkpt>
      <trkpt lat="44.84544" lon="6.4874">
        <ele>1164.8</ele>
        <time>2024-08-12T02:41:31Z</time>
      </trkpt>
      <trkpt lat="44.84544" lon="6.4874">
        <ele>1164.8</ele>
        <time>2024-08-12T02:41:32Z</time>
      </trkpt>
      <trkpt lat="44.84542" lon="6.48738">
        <ele>1164.8</ele>
        <time>2024-08-12T02:41:33Z</time>
      </trkpt>
      <trkpt lat="44.84542" lon="6.48738">
        <ele>1164.6</ele>
        <time>2024-08-12T02:41:34Z</time>
      </trkpt>
      <trkpt lat="44.84542" lon="6.48738">
        <ele>1164.6</ele>
        <time>2024-08-12T02:41:35Z</time>
      </trkpt>
      <trkpt lat="44.8454" lon="6.48737">
        <ele>1164.6</ele>
        <time>2024-08-12T02:41:36Z</time>
      </trkpt>
      <trkpt lat="44.8454" lon="6.48737">
        <ele>1164.6</ele>
        <time>2024-08-12T02:41:37Z</time>
      </trkpt>
      <trkpt lat="44.8454" lon="6.48737">
        <ele>1164.6</ele>
        <time>2024-08-12T02:41:38Z</time>
      </trkpt>
      <trkpt lat="44.84538" lon="6.48737">
        <ele>1164.8</ele>
        <time>2024-08-12T02:41:39Z</time>
      </trkpt>
      <trkpt lat="44.84538" lon="6.48737">
        <ele>1164.8</ele>
        <time>2024-08-12T02:41:40Z</time>
      </trkpt>
      <trkpt lat="44.84538" lon="6.48737">
        <ele>1164.8</ele>
        <time>2024-08-12T02:41:41Z</time>
      </trkpt>
      <trkpt lat="44.84536" lon="6.48736">
        <ele>1164.6</ele>
        <time>2024-08-12T02:41:42Z</time>
      </trkpt>
      <trkpt lat="44.84536" lon="6.48736">
        <ele>1164.6</ele>
        <time>2024-08-12T02:41:43Z</time>
      </trkpt>
      <trkpt lat="44.84534" lon="6.48734">
        <ele>1164.6</ele>
        <time>2024-08-12T02:41:44Z</time>
      </trkpt>
      <trkpt lat="44.84534" lon="6.48734">
        <ele>1164.6</ele>
        <time>2024-08-12T02:41:45Z</time>
      </trkpt>
      <trkpt lat="44.8453" lon="6.48732">
        <ele>1164.4</ele>
        <time>2024-08-12T02:41:46Z</time>
      </trkpt>
      <trkpt lat="44.8453" lon="6.48732">
        <ele>1164.4</ele>
        <time>2024-08-12T02:41:47Z</time>
      </trkpt>
      <trkpt lat="44.84527" lon="6.48732">
        <ele>1164.4</ele>
        <time>2024-08-12T02:41:48Z</time>
      </trkpt>
      <trkpt lat="44.84527" lon="6.48732">
        <ele>1164.2</ele>
        <time>2024-08-12T02:41:49Z</time>
      </trkpt>
      <trkpt lat="44.84525" lon="6.48731">
        <ele>1164</ele>
        <time>2024-08-12T02:41:50Z</time>
      </trkpt>
      <trkpt lat="44.84525" lon="6.48731">
        <ele>1164</ele>
        <time>2024-08-12T02:41:51Z</time>
      </trkpt>
      <trkpt lat="44.84523" lon="6.4873">
        <ele>1164</ele>
        <time>2024-08-12T02:41:52Z</time>
      </trkpt>
      <trkpt lat="44.84521" lon="6.48728">
        <ele>1164</ele>
        <time>2024-08-12T02:41:53Z</time>
      </trkpt>
      <trkpt lat="44.84521" lon="6.48728">
        <ele>1164</ele>
        <time>2024-08-12T02:41:54Z</time>
      </trkpt>
      <trkpt lat="44.84518" lon="6.48726">
        <ele>1164</ele>
        <time>2024-08-12T02:41:55Z</time>
      </trkpt>
      <trkpt lat="44.84518" lon="6.48726">
        <ele>1163.8</ele>
        <time>2024-08-12T02:41:56Z</time>
      </trkpt>
      <trkpt lat="44.84516" lon="6.48723">
        <ele>1163.8</ele>
        <time>2024-08-12T02:41:57Z</time>
      </trkpt>
      <trkpt lat="44.84516" lon="6.48723">
        <ele>1163.6</ele>
        <time>2024-08-12T02:41:58Z</time>
      </trkpt>
      <trkpt lat="44.84515" lon="6.48719">
        <ele>1163.6</ele>
        <time>2024-08-12T02:41:59Z</time>
      </trkpt>
      <trkpt lat="44.84515" lon="6.48719">
        <ele>1163.6</ele>
        <time>2024-08-12T02:42:00Z</time>
      </trkpt>
      <trkpt lat="44.84514" lon="6.48715">
        <ele>1163.6</ele>
        <time>2024-08-12T02:42:01Z</time>
      </trkpt>
      <trkpt lat="44.84513" lon="6.48712">
        <ele>1163.6</ele>
        <time>2024-08-12T02:42:02Z</time>
      </trkpt>
      <trkpt lat="44.84511" lon="6.48708">
        <ele>1163.8</ele>
        <time>2024-08-12T02:42:04Z</time>
      </trkpt>
      <trkpt lat="44.84511" lon="6.48708">
        <ele>1163.6</ele>
        <time>2024-08-12T02:42:05Z</time>
      </trkpt>
      <trkpt lat="44.84509" lon="6.48701">
        <ele>1163.6</ele>
        <time>2024-08-12T02:42:06Z</time>
      </trkpt>
      <trkpt lat="44.84509" lon="6.487">
        <ele>1163.4</ele>
        <time>2024-08-12T02:42:07Z</time>
      </trkpt>
      <trkpt lat="44.84507" lon="6.48698">
        <ele>1163.4</ele>
        <time>2024-08-12T02:42:08Z</time>
      </trkpt>
      <trkpt lat="44.84507" lon="6.48698">
        <ele>1163.4</ele>
        <time>2024-08-12T02:42:09Z</time>
      </trkpt>
      <trkpt lat="44.84505" lon="6.48695">
        <ele>1163.8</ele>
        <time>2024-08-12T02:42:10Z</time>
      </trkpt>
      <trkpt lat="44.84504" lon="6.48692">
        <ele>1163.8</ele>
        <time>2024-08-12T02:42:11Z</time>
      </trkpt>
      <trkpt lat="44.84504" lon="6.48692">
        <ele>1163.6</ele>
        <time>2024-08-12T02:42:12Z</time>
      </trkpt>
      <trkpt lat="44.84503" lon="6.48689">
        <ele>1163.4</ele>
        <time>2024-08-12T02:42:13Z</time>
      </trkpt>
      <trkpt lat="44.84503" lon="6.48689">
        <ele>1163.4</ele>
        <time>2024-08-12T02:42:14Z</time>
      </trkpt>
      <trkpt lat="44.84501" lon="6.48686">
        <ele>1163.4</ele>
        <time>2024-08-12T02:42:15Z</time>
      </trkpt>
      <trkpt lat="44.84501" lon="6.48686">
        <ele>1163.4</ele>
        <time>2024-08-12T02:42:16Z</time>
      </trkpt>
      <trkpt lat="44.84499" lon="6.48683">
        <ele>1163.4</ele>
        <time>2024-08-12T02:42:17Z</time>
      </trkpt>
      <trkpt lat="44.84499" lon="6.48683">
        <ele>1163.4</ele>
        <time>2024-08-12T02:42:18Z</time>
      </trkpt>
      <trkpt lat="44.84498" lon="6.48681">
        <ele>1163.2</ele>
        <time>2024-08-12T02:42:19Z</time>
      </trkpt>
      <trkpt lat="44.84498" lon="6.48681">
        <ele>1163.2</ele>
        <time>2024-08-12T02:42:20Z</time>
      </trkpt>
      <trkpt lat="44.84496" lon="6.48678">
        <ele>1163.4</ele>
        <time>2024-08-12T02:42:21Z</time>
      </trkpt>
      <trkpt lat="44.84496" lon="6.48678">
        <ele>1163.4</ele>
        <time>2024-08-12T02:42:22Z</time>
      </trkpt>
      <trkpt lat="44.84494" lon="6.48676">
        <ele>1163.4</ele>
        <time>2024-08-12T02:42:23Z</time>
      </trkpt>
      <trkpt lat="44.84494" lon="6.48676">
        <ele>1163.2</ele>
        <time>2024-08-12T02:42:24Z</time>
      </trkpt>
      <trkpt lat="44.84493" lon="6.48673">
        <ele>1163.2</ele>
        <time>2024-08-12T02:42:25Z</time>
      </trkpt>
      <trkpt lat="44.84493" lon="6.48673">
        <ele>1163</ele>
        <time>2024-08-12T02:42:26Z</time>
      </trkpt>
      <trkpt lat="44.8449" lon="6.4867">
        <ele>1162.8</ele>
        <time>2024-08-12T02:42:27Z</time>
      </trkpt>
      <trkpt lat="44.84489" lon="6.48666">
        <ele>1162.8</ele>
        <time>2024-08-12T02:42:28Z</time>
      </trkpt>
      <trkpt lat="44.84488" lon="6.48663">
        <ele>1162.6</ele>
        <time>2024-08-12T02:42:29Z</time>
      </trkpt>
      <trkpt lat="44.84486" lon="6.48662">
        <ele>1162.6</ele>
        <time>2024-08-12T02:42:30Z</time>
      </trkpt>
      <trkpt lat="44.84485" lon="6.4866">
        <ele>1162.6</ele>
        <time>2024-08-12T02:42:31Z</time>
      </trkpt>
      <trkpt lat="44.84484" lon="6.48658">
        <ele>1162.6</ele>
        <time>2024-08-12T02:42:32Z</time>
      </trkpt>
      <trkpt lat="44.84484" lon="6.48658">
        <ele>1162.6</ele>
        <time>2024-08-12T02:42:33Z</time>
      </trkpt>
      <trkpt lat="44.84482" lon="6.48654">
        <ele>1162.6</ele>
        <time>2024-08-12T02:42:34Z</time>
      </trkpt>
      <trkpt lat="44.84482" lon="6.48654">
        <ele>1162.6</ele>
        <time>2024-08-12T02:42:35Z</time>
      </trkpt>
      <trkpt lat="44.8448" lon="6.48652">
        <ele>1162.6</ele>
        <time>2024-08-12T02:42:36Z</time>
      </trkpt>
      <trkpt lat="44.8448" lon="6.48652">
        <ele>1162.8</ele>
        <time>2024-08-12T02:42:37Z</time>
      </trkpt>
      <trkpt lat="44.84478" lon="6.48649">
        <ele>1162.8</ele>
        <time>2024-08-12T02:42:38Z</time>
      </trkpt>
      <trkpt lat="44.84478" lon="6.48649">
        <ele>1162.6</ele>
        <time>2024-08-12T02:42:39Z</time>
      </trkpt>
      <trkpt lat="44.84476" lon="6.48648">
        <ele>1162.4</ele>
        <time>2024-08-12T02:42:40Z</time>
      </trkpt>
      <trkpt lat="44.84476" lon="6.48648">
        <ele>1162.4</ele>
        <time>2024-08-12T02:42:41Z</time>
      </trkpt>
      <trkpt lat="44.84476" lon="6.48648">
        <ele>1162.4</ele>
        <time>2024-08-12T02:42:42Z</time>
      </trkpt>
      <trkpt lat="44.84476" lon="6.48648">
        <ele>1162.4</ele>
        <time>2024-08-12T02:42:43Z</time>
      </trkpt>
      <trkpt lat="44.84476" lon="6.48648">
        <ele>1162.2</ele>
        <time>2024-08-12T02:42:44Z</time>
      </trkpt>
      <trkpt lat="44.84475" lon="6.48645">
        <ele>1162.2</ele>
        <time>2024-08-12T02:42:45Z</time>
      </trkpt>
      <trkpt lat="44.84475" lon="6.48645">
        <ele>1162.4</ele>
        <time>2024-08-12T02:42:46Z</time>
      </trkpt>
      <trkpt lat="44.84475" lon="6.48645">
        <ele>1162.4</ele>
        <time>2024-08-12T02:42:47Z</time>
      </trkpt>
      <trkpt lat="44.84475" lon="6.48645">
        <ele>1162.4</ele>
        <time>2024-08-12T02:42:48Z</time>
      </trkpt>
      <trkpt lat="44.84473" lon="6.48646">
        <ele>1162.2</ele>
        <time>2024-08-12T02:42:49Z</time>
      </trkpt>
      <trkpt lat="44.84473" lon="6.48646">
        <ele>1162.2</ele>
        <time>2024-08-12T02:42:50Z</time>
      </trkpt>
      <trkpt lat="44.84471" lon="6.48645">
        <ele>1162.4</ele>
        <time>2024-08-12T02:42:51Z</time>
      </trkpt>
      <trkpt lat="44.84471" lon="6.48645">
        <ele>1162.4</ele>
        <time>2024-08-12T02:42:52Z</time>
      </trkpt>
      <trkpt lat="44.84469" lon="6.48644">
        <ele>1162.4</ele>
        <time>2024-08-12T02:42:53Z</time>
      </trkpt>
      <trkpt lat="44.84469" lon="6.48644">
        <ele>1162.2</ele>
        <time>2024-08-12T02:42:54Z</time>
      </trkpt>
      <trkpt lat="44.84467" lon="6.48644">
        <ele>1162.2</ele>
        <time>2024-08-12T02:42:55Z</time>
      </trkpt>
      <trkpt lat="44.84467" lon="6.48644">
        <ele>1162.2</ele>
        <time>2024-08-12T02:42:56Z</time>
      </trkpt>
      <trkpt lat="44.84464" lon="6.48642">
        <ele>1162.2</ele>
        <time>2024-08-12T02:42:57Z</time>
      </trkpt>
      <trkpt lat="44.84464" lon="6.48642">
        <ele>1162.2</ele>
        <time>2024-08-12T02:42:58Z</time>
      </trkpt>
      <trkpt lat="44.84462" lon="6.48641">
        <ele>1161.8</ele>
        <time>2024-08-12T02:42:59Z</time>
      </trkpt>
      <trkpt lat="44.84462" lon="6.48641">
        <ele>1161.8</ele>
        <time>2024-08-12T02:43:00Z</time>
      </trkpt>
      <trkpt lat="44.84459" lon="6.48643">
        <ele>1161.8</ele>
        <time>2024-08-12T02:43:01Z</time>
      </trkpt>
      <trkpt lat="44.84457" lon="6.48644">
        <ele>1161.6</ele>
        <time>2024-08-12T02:43:02Z</time>
      </trkpt>
      <trkpt lat="44.84457" lon="6.48644">
        <ele>1161.6</ele>
        <time>2024-08-12T02:43:03Z</time>
      </trkpt>
      <trkpt lat="44.84454" lon="6.48646">
        <ele>1161.6</ele>
        <time>2024-08-12T02:43:04Z</time>
      </trkpt>
      <trkpt lat="44.84453" lon="6.48646">
        <ele>1161.6</ele>
        <time>2024-08-12T02:43:05Z</time>
      </trkpt>
      <trkpt lat="44.84453" lon="6.48646">
        <ele>1161.6</ele>
        <time>2024-08-12T02:43:06Z</time>
      </trkpt>
      <trkpt lat="44.8445" lon="6.48645">
        <ele>1161.6</ele>
        <time>2024-08-12T02:43:07Z</time>
      </trkpt>
      <trkpt lat="44.84447" lon="6.48643">
        <ele>1161.4</ele>
        <time>2024-08-12T02:43:08Z</time>
      </trkpt>
      <trkpt lat="44.84447" lon="6.48643">
        <ele>1161.4</ele>
        <time>2024-08-12T02:43:09Z</time>
      </trkpt>
      <trkpt lat="44.84445" lon="6.4864">
        <ele>1161.4</ele>
        <time>2024-08-12T02:43:10Z</time>
      </trkpt>
      <trkpt lat="44.84445" lon="6.4864">
        <ele>1161.4</ele>
        <time>2024-08-12T02:43:11Z</time>
      </trkpt>
      <trkpt lat="44.84443" lon="6.48638">
        <ele>1161.4</ele>
        <time>2024-08-12T02:43:12Z</time>
      </trkpt>
      <trkpt lat="44.84443" lon="6.48638">
        <ele>1161.4</ele>
        <time>2024-08-12T02:43:13Z</time>
      </trkpt>
      <trkpt lat="44.84442" lon="6.48635">
        <ele>1161.2</ele>
        <time>2024-08-12T02:43:14Z</time>
      </trkpt>
      <trkpt lat="44.84442" lon="6.48635">
        <ele>1161.2</ele>
        <time>2024-08-12T02:43:15Z</time>
      </trkpt>
      <trkpt lat="44.8444" lon="6.48631">
        <ele>1161.2</ele>
        <time>2024-08-12T02:43:16Z</time>
      </trkpt>
      <trkpt lat="44.8444" lon="6.48631">
        <ele>1161.2</ele>
        <time>2024-08-12T02:43:17Z</time>
      </trkpt>
      <trkpt lat="44.84439" lon="6.48627">
        <ele>1161.4</ele>
        <time>2024-08-12T02:43:18Z</time>
      </trkpt>
      <trkpt lat="44.84439" lon="6.48627">
        <ele>1161.4</ele>
        <time>2024-08-12T02:43:19Z</time>
      </trkpt>
      <trkpt lat="44.84437" lon="6.48623">
        <ele>1161.4</ele>
        <time>2024-08-12T02:43:20Z</time>
      </trkpt>
      <trkpt lat="44.84437" lon="6.48619">
        <ele>1161.4</ele>
        <time>2024-08-12T02:43:21Z</time>
      </trkpt>
      <trkpt lat="44.84437" lon="6.48615">
        <ele>1161.4</ele>
        <time>2024-08-12T02:43:22Z</time>
      </trkpt>
      <trkpt lat="44.84437" lon="6.48615">
        <ele>1161.4</ele>
        <time>2024-08-12T02:43:23Z</time>
      </trkpt>
      <trkpt lat="44.84436" lon="6.48611">
        <ele>1161.4</ele>
        <time>2024-08-12T02:43:24Z</time>
      </trkpt>
      <trkpt lat="44.84435" lon="6.48608">
        <ele>1161.4</ele>
        <time>2024-08-12T02:43:25Z</time>
      </trkpt>
      <trkpt lat="44.84434" lon="6.48605">
        <ele>1161.4</ele>
        <time>2024-08-12T02:43:26Z</time>
      </trkpt>
      <trkpt lat="44.84433" lon="6.48603">
        <ele>1161.4</ele>
        <time>2024-08-12T02:43:27Z</time>
      </trkpt>
      <trkpt lat="44.84432" lon="6.486">
        <ele>1161.4</ele>
        <time>2024-08-12T02:43:28Z</time>
      </trkpt>
      <trkpt lat="44.84432" lon="6.486">
        <ele>1161.4</ele>
        <time>2024-08-12T02:43:29Z</time>
      </trkpt>
      <trkpt lat="44.84431" lon="6.48597">
        <ele>1161.4</ele>
        <time>2024-08-12T02:43:30Z</time>
      </trkpt>
      <trkpt lat="44.84431" lon="6.48597">
        <ele>1161.2</ele>
        <time>2024-08-12T02:43:31Z</time>
      </trkpt>
      <trkpt lat="44.84431" lon="6.48592">
        <ele>1161.2</ele>
        <time>2024-08-12T02:43:32Z</time>
      </trkpt>
      <trkpt lat="44.84431" lon="6.48592">
        <ele>1161.2</ele>
        <time>2024-08-12T02:43:33Z</time>
      </trkpt>
      <trkpt lat="44.84431" lon="6.48592">
        <ele>1161.2</ele>
        <time>2024-08-12T02:43:34Z</time>
      </trkpt>
      <trkpt lat="44.8443" lon="6.48587">
        <ele>1161.2</ele>
        <time>2024-08-12T02:43:35Z</time>
      </trkpt>
      <trkpt lat="44.8443" lon="6.48587">
        <ele>1161.4</ele>
        <time>2024-08-12T02:43:36Z</time>
      </trkpt>
      <trkpt lat="44.84428" lon="6.48585">
        <ele>1161.4</ele>
        <time>2024-08-12T02:43:37Z</time>
      </trkpt>
      <trkpt lat="44.84428" lon="6.48585">
        <ele>1161.4</ele>
        <time>2024-08-12T02:43:38Z</time>
      </trkpt>
      <trkpt lat="44.84426" lon="6.48582">
        <ele>1161.4</ele>
        <time>2024-08-12T02:43:39Z</time>
      </trkpt>
      <trkpt lat="44.84426" lon="6.48582">
        <ele>1161.4</ele>
        <time>2024-08-12T02:43:40Z</time>
      </trkpt>
      <trkpt lat="44.84425" lon="6.48579">
        <ele>1161.6</ele>
        <time>2024-08-12T02:43:41Z</time>
      </trkpt>
      <trkpt lat="44.84425" lon="6.48579">
        <ele>1161.6</ele>
        <time>2024-08-12T02:43:42Z</time>
      </trkpt>
      <trkpt lat="44.84423" lon="6.48575">
        <ele>1161.6</ele>
        <time>2024-08-12T02:43:43Z</time>
      </trkpt>
      <trkpt lat="44.84421" lon="6.48574">
        <ele>1161.6</ele>
        <time>2024-08-12T02:43:44Z</time>
      </trkpt>
      <trkpt lat="44.8442" lon="6.48571">
        <ele>1161.6</ele>
        <time>2024-08-12T02:43:45Z</time>
      </trkpt>
      <trkpt lat="44.84419" lon="6.48568">
        <ele>1161.4</ele>
        <time>2024-08-12T02:43:46Z</time>
      </trkpt>
      <trkpt lat="44.84418" lon="6.48566">
        <ele>1161.4</ele>
        <time>2024-08-12T02:43:47Z</time>
      </trkpt>
      <trkpt lat="44.84418" lon="6.48566">
        <ele>1161.4</ele>
        <time>2024-08-12T02:43:48Z</time>
      </trkpt>
      <trkpt lat="44.84415" lon="6.48564">
        <ele>1161.4</ele>
        <time>2024-08-12T02:43:49Z</time>
      </trkpt>
      <trkpt lat="44.84415" lon="6.48564">
        <ele>1161.6</ele>
        <time>2024-08-12T02:43:50Z</time>
      </trkpt>
      <trkpt lat="44.84413" lon="6.48562">
        <ele>1161.8</ele>
        <time>2024-08-12T02:43:51Z</time>
      </trkpt>
      <trkpt lat="44.84413" lon="6.48562">
        <ele>1161.8</ele>
        <time>2024-08-12T02:43:52Z</time>
      </trkpt>
      <trkpt lat="44.84411" lon="6.4856">
        <ele>1161.8</ele>
        <time>2024-08-12T02:43:53Z</time>
      </trkpt>
      <trkpt lat="44.84411" lon="6.4856">
        <ele>1161.6</ele>
        <time>2024-08-12T02:43:54Z</time>
      </trkpt>
      <trkpt lat="44.84408" lon="6.48558">
        <ele>1161.6</ele>
        <time>2024-08-12T02:43:55Z</time>
      </trkpt>
      <trkpt lat="44.84408" lon="6.48558">
        <ele>1161.8</ele>
        <time>2024-08-12T02:43:56Z</time>
      </trkpt>
      <trkpt lat="44.84405" lon="6.48556">
        <ele>1161.8</ele>
        <time>2024-08-12T02:43:57Z</time>
      </trkpt>
      <trkpt lat="44.84405" lon="6.48556">
        <ele>1161.8</ele>
        <time>2024-08-12T02:43:58Z</time>
      </trkpt>
      <trkpt lat="44.84404" lon="6.48553">
        <ele>1161.8</ele>
        <time>2024-08-12T02:43:59Z</time>
      </trkpt>
      <trkpt lat="44.84404" lon="6.48553">
        <ele>1161.6</ele>
        <time>2024-08-12T02:44:00Z</time>
      </trkpt>
      <trkpt lat="44.84404" lon="6.48553">
        <ele>1161.6</ele>
        <time>2024-08-12T02:44:01Z</time>
      </trkpt>
      <trkpt lat="44.84402" lon="6.4855">
        <ele>1161.6</ele>
        <time>2024-08-12T02:44:02Z</time>
      </trkpt>
      <trkpt lat="44.84402" lon="6.4855">
        <ele>1161.6</ele>
        <time>2024-08-12T02:44:03Z</time>
      </trkpt>
      <trkpt lat="44.844" lon="6.48548">
        <ele>1161.6</ele>
        <time>2024-08-12T02:44:04Z</time>
      </trkpt>
      <trkpt lat="44.844" lon="6.48548">
        <ele>1161.6</ele>
        <time>2024-08-12T02:44:05Z</time>
      </trkpt>
      <trkpt lat="44.84397" lon="6.48545">
        <ele>1161.6</ele>
        <time>2024-08-12T02:44:06Z</time>
      </trkpt>
      <trkpt lat="44.84396" lon="6.48542">
        <ele>1161.6</ele>
        <time>2024-08-12T02:44:07Z</time>
      </trkpt>
      <trkpt lat="44.84396" lon="6.48542">
        <ele>1161.8</ele>
        <time>2024-08-12T02:44:08Z</time>
      </trkpt>
      <trkpt lat="44.84393" lon="6.48539">
        <ele>1161.8</ele>
        <time>2024-08-12T02:44:09Z</time>
      </trkpt>
      <trkpt lat="44.84393" lon="6.48539">
        <ele>1161.6</ele>
        <time>2024-08-12T02:44:10Z</time>
      </trkpt>
      <trkpt lat="44.84391" lon="6.48537">
        <ele>1161.6</ele>
        <time>2024-08-12T02:44:11Z</time>
      </trkpt>
      <trkpt lat="44.84391" lon="6.48537">
        <ele>1161.8</ele>
        <time>2024-08-12T02:44:12Z</time>
      </trkpt>
      <trkpt lat="44.84389" lon="6.48535">
        <ele>1161.8</ele>
        <time>2024-08-12T02:44:13Z</time>
      </trkpt>
      <trkpt lat="44.84389" lon="6.48535">
        <ele>1161.8</ele>
        <time>2024-08-12T02:44:14Z</time>
      </trkpt>
      <trkpt lat="44.84387" lon="6.48533">
        <ele>1161.8</ele>
        <time>2024-08-12T02:44:15Z</time>
      </trkpt>
      <trkpt lat="44.84387" lon="6.48533">
        <ele>1161.8</ele>
        <time>2024-08-12T02:44:16Z</time>
      </trkpt>
      <trkpt lat="44.84385" lon="6.4853">
        <ele>1161.6</ele>
        <time>2024-08-12T02:44:17Z</time>
      </trkpt>
      <trkpt lat="44.84384" lon="6.48529">
        <ele>1161.6</ele>
        <time>2024-08-12T02:44:18Z</time>
      </trkpt>
      <trkpt lat="44.84384" lon="6.48529">
        <ele>1161.8</ele>
        <time>2024-08-12T02:44:19Z</time>
      </trkpt>
      <trkpt lat="44.84381" lon="6.48526">
        <ele>1161.8</ele>
        <time>2024-08-12T02:44:20Z</time>
      </trkpt>
      <trkpt lat="44.84381" lon="6.48526">
        <ele>1161.8</ele>
        <time>2024-08-12T02:44:21Z</time>
      </trkpt>
      <trkpt lat="44.84379" lon="6.48522">
        <ele>1161.8</ele>
        <time>2024-08-12T02:44:22Z</time>
      </trkpt>
      <trkpt lat="44.84379" lon="6.48522">
        <ele>1161.8</ele>
        <time>2024-08-12T02:44:23Z</time>
      </trkpt>
      <trkpt lat="44.84377" lon="6.48519">
        <ele>1161.8</ele>
        <time>2024-08-12T02:44:24Z</time>
      </trkpt>
      <trkpt lat="44.84376" lon="6.48517">
        <ele>1161.8</ele>
        <time>2024-08-12T02:44:25Z</time>
      </trkpt>
      <trkpt lat="44.84374" lon="6.48515">
        <ele>1162</ele>
        <time>2024-08-12T02:44:26Z</time>
      </trkpt>
      <trkpt lat="44.84373" lon="6.48512">
        <ele>1162</ele>
        <time>2024-08-12T02:44:27Z</time>
      </trkpt>
      <trkpt lat="44.84373" lon="6.48512">
        <ele>1162.2</ele>
        <time>2024-08-12T02:44:28Z</time>
      </trkpt>
      <trkpt lat="44.84371" lon="6.48509">
        <ele>1162.2</ele>
        <time>2024-08-12T02:44:29Z</time>
      </trkpt>
      <trkpt lat="44.84371" lon="6.48509">
        <ele>1162.2</ele>
        <time>2024-08-12T02:44:30Z</time>
      </trkpt>
      <trkpt lat="44.84369" lon="6.48506">
        <ele>1162.2</ele>
        <time>2024-08-12T02:44:31Z</time>
      </trkpt>
      <trkpt lat="44.84367" lon="6.48505">
        <ele>1162.2</ele>
        <time>2024-08-12T02:44:32Z</time>
      </trkpt>
      <trkpt lat="44.84367" lon="6.48505">
        <ele>1162.2</ele>
        <time>2024-08-12T02:44:33Z</time>
      </trkpt>
      <trkpt lat="44.84364" lon="6.48502">
        <ele>1162.2</ele>
        <time>2024-08-12T02:44:34Z</time>
      </trkpt>
      <trkpt lat="44.84364" lon="6.48502">
        <ele>1162</ele>
        <time>2024-08-12T02:44:35Z</time>
      </trkpt>
      <trkpt lat="44.84361" lon="6.48498">
        <ele>1162</ele>
        <time>2024-08-12T02:44:36Z</time>
      </trkpt>
      <trkpt lat="44.84359" lon="6.48497">
        <ele>1162</ele>
        <time>2024-08-12T02:44:37Z</time>
      </trkpt>
      <trkpt lat="44.84359" lon="6.48497">
        <ele>1162.2</ele>
        <time>2024-08-12T02:44:38Z</time>
      </trkpt>
      <trkpt lat="44.84356" lon="6.48496">
        <ele>1162.2</ele>
        <time>2024-08-12T02:44:39Z</time>
      </trkpt>
      <trkpt lat="44.84354" lon="6.48496">
        <ele>1162.2</ele>
        <time>2024-08-12T02:44:40Z</time>
      </trkpt>
      <trkpt lat="44.84351" lon="6.48496">
        <ele>1162.2</ele>
        <time>2024-08-12T02:44:41Z</time>
      </trkpt>
      <trkpt lat="44.84351" lon="6.48496">
        <ele>1162.2</ele>
        <time>2024-08-12T02:44:42Z</time>
      </trkpt>
      <trkpt lat="44.84348" lon="6.48497">
        <ele>1162.2</ele>
        <time>2024-08-12T02:44:43Z</time>
      </trkpt>
      <trkpt lat="44.84348" lon="6.48497">
        <ele>1162.2</ele>
        <time>2024-08-12T02:44:44Z</time>
      </trkpt>
      <trkpt lat="44.84346" lon="6.48498">
        <ele>1162.2</ele>
        <time>2024-08-12T02:44:45Z</time>
      </trkpt>
      <trkpt lat="44.84346" lon="6.48498">
        <ele>1162.2</ele>
        <time>2024-08-12T02:44:46Z</time>
      </trkpt>
      <trkpt lat="44.84343" lon="6.48499">
        <ele>1162.2</ele>
        <time>2024-08-12T02:44:47Z</time>
      </trkpt>
      <trkpt lat="44.84343" lon="6.48499">
        <ele>1162</ele>
        <time>2024-08-12T02:44:48Z</time>
      </trkpt>
      <trkpt lat="44.84341" lon="6.48499">
        <ele>1162</ele>
        <time>2024-08-12T02:44:49Z</time>
      </trkpt>
      <trkpt lat="44.84341" lon="6.48499">
        <ele>1162.2</ele>
        <time>2024-08-12T02:44:50Z</time>
      </trkpt>
      <trkpt lat="44.84341" lon="6.48499">
        <ele>1162.4</ele>
        <time>2024-08-12T02:44:51Z</time>
      </trkpt>
      <trkpt lat="44.84338" lon="6.485">
        <ele>1162.4</ele>
        <time>2024-08-12T02:44:52Z</time>
      </trkpt>
      <trkpt lat="44.84338" lon="6.485">
        <ele>1162.2</ele>
        <time>2024-08-12T02:44:53Z</time>
      </trkpt>
      <trkpt lat="44.84336" lon="6.485">
        <ele>1162.2</ele>
        <time>2024-08-12T02:44:54Z</time>
      </trkpt>
      <trkpt lat="44.84336" lon="6.485">
        <ele>1162.4</ele>
        <time>2024-08-12T02:44:55Z</time>
      </trkpt>
      <trkpt lat="44.84333" lon="6.48498">
        <ele>1162.6</ele>
        <time>2024-08-12T02:44:56Z</time>
      </trkpt>
      <trkpt lat="44.84333" lon="6.48498">
        <ele>1162.6</ele>
        <time>2024-08-12T02:44:57Z</time>
      </trkpt>
      <trkpt lat="44.84331" lon="6.48496">
        <ele>1162.4</ele>
        <time>2024-08-12T02:44:58Z</time>
      </trkpt>
      <trkpt lat="44.84331" lon="6.48496">
        <ele>1162.2</ele>
        <time>2024-08-12T02:44:59Z</time>
      </trkpt>
      <trkpt lat="44.84328" lon="6.48494">
        <ele>1162.2</ele>
        <time>2024-08-12T02:45:00Z</time>
      </trkpt>
      <trkpt lat="44.84328" lon="6.48494">
        <ele>1162.6</ele>
        <time>2024-08-12T02:45:01Z</time>
      </trkpt>
      <trkpt lat="44.84325" lon="6.48494">
        <ele>1162.6</ele>
        <time>2024-08-12T02:45:02Z</time>
      </trkpt>
      <trkpt lat="44.84324" lon="6.48494">
        <ele>1162.6</ele>
        <time>2024-08-12T02:45:03Z</time>
      </trkpt>
      <trkpt lat="44.8432" lon="6.48493">
        <ele>1162.6</ele>
        <time>2024-08-12T02:45:04Z</time>
      </trkpt>
      <trkpt lat="44.8432" lon="6.48493">
        <ele>1162.8</ele>
        <time>2024-08-12T02:45:05Z</time>
      </trkpt>
      <trkpt lat="44.84317" lon="6.48491">
        <ele>1162.8</ele>
        <time>2024-08-12T02:45:06Z</time>
      </trkpt>
      <trkpt lat="44.84317" lon="6.48491">
        <ele>1162.6</ele>
        <time>2024-08-12T02:45:07Z</time>
      </trkpt>
      <trkpt lat="44.84312" lon="6.48491">
        <ele>1162.6</ele>
        <time>2024-08-12T02:45:08Z</time>
      </trkpt>
      <trkpt lat="44.84312" lon="6.48491">
        <ele>1162.8</ele>
        <time>2024-08-12T02:45:09Z</time>
      </trkpt>
      <trkpt lat="44.84309" lon="6.48491">
        <ele>1163</ele>
        <time>2024-08-12T02:45:10Z</time>
      </trkpt>
      <trkpt lat="44.84309" lon="6.48491">
        <ele>1163</ele>
        <time>2024-08-12T02:45:11Z</time>
      </trkpt>
      <trkpt lat="44.84306" lon="6.48491">
        <ele>1162.8</ele>
        <time>2024-08-12T02:45:12Z</time>
      </trkpt>
      <trkpt lat="44.84306" lon="6.48491">
        <ele>1162.8</ele>
        <time>2024-08-12T02:45:13Z</time>
      </trkpt>
      <trkpt lat="44.84304" lon="6.4849">
        <ele>1162.8</ele>
        <time>2024-08-12T02:45:14Z</time>
      </trkpt>
      <trkpt lat="44.84304" lon="6.4849">
        <ele>1162.6</ele>
        <time>2024-08-12T02:45:15Z</time>
      </trkpt>
      <trkpt lat="44.84304" lon="6.4849">
        <ele>1162.6</ele>
        <time>2024-08-12T02:45:16Z</time>
      </trkpt>
      <trkpt lat="44.84301" lon="6.4849">
        <ele>1162.6</ele>
        <time>2024-08-12T02:45:17Z</time>
      </trkpt>
      <trkpt lat="44.84301" lon="6.4849">
        <ele>1162.4</ele>
        <time>2024-08-12T02:45:18Z</time>
      </trkpt>
      <trkpt lat="44.84298" lon="6.4849">
        <ele>1162.4</ele>
        <time>2024-08-12T02:45:19Z</time>
      </trkpt>
      <trkpt lat="44.84296" lon="6.4849">
        <ele>1162.4</ele>
        <time>2024-08-12T02:45:20Z</time>
      </trkpt>
      <trkpt lat="44.84296" lon="6.4849">
        <ele>1162.4</ele>
        <time>2024-08-12T02:45:21Z</time>
      </trkpt>
      <trkpt lat="44.84293" lon="6.48488">
        <ele>1162.4</ele>
        <time>2024-08-12T02:45:22Z</time>
      </trkpt>
      <trkpt lat="44.84293" lon="6.48488">
        <ele>1162.4</ele>
        <time>2024-08-12T02:45:23Z</time>
      </trkpt>
      <trkpt lat="44.84291" lon="6.48488">
        <ele>1162.4</ele>
        <time>2024-08-12T02:45:24Z</time>
      </trkpt>
      <trkpt lat="44.84291" lon="6.48488">
        <ele>1162.4</ele>
        <time>2024-08-12T02:45:25Z</time>
      </trkpt>
      <trkpt lat="44.84288" lon="6.48488">
        <ele>1162.4</ele>
        <time>2024-08-12T02:45:26Z</time>
      </trkpt>
      <trkpt lat="44.84288" lon="6.48488">
        <ele>1162.4</ele>
        <time>2024-08-12T02:45:27Z</time>
      </trkpt>
      <trkpt lat="44.84286" lon="6.48486">
        <ele>1162.4</ele>
        <time>2024-08-12T02:45:28Z</time>
      </trkpt>
      <trkpt lat="44.84286" lon="6.48486">
        <ele>1162.4</ele>
        <time>2024-08-12T02:45:29Z</time>
      </trkpt>
      <trkpt lat="44.84283" lon="6.48485">
        <ele>1162.4</ele>
        <time>2024-08-12T02:45:30Z</time>
      </trkpt>
      <trkpt lat="44.84281" lon="6.48485">
        <ele>1162.4</ele>
        <time>2024-08-12T02:45:31Z</time>
      </trkpt>
      <trkpt lat="44.84279" lon="6.48484">
        <ele>1162.4</ele>
        <time>2024-08-12T02:45:32Z</time>
      </trkpt>
      <trkpt lat="44.84279" lon="6.48484">
        <ele>1162.4</ele>
        <time>2024-08-12T02:45:33Z</time>
      </trkpt>
      <trkpt lat="44.84276" lon="6.48484">
        <ele>1162.2</ele>
        <time>2024-08-12T02:45:34Z</time>
      </trkpt>
      <trkpt lat="44.84276" lon="6.48484">
        <ele>1162.2</ele>
        <time>2024-08-12T02:45:35Z</time>
      </trkpt>
      <trkpt lat="44.84274" lon="6.48482">
        <ele>1162</ele>
        <time>2024-08-12T02:45:36Z</time>
      </trkpt>
      <trkpt lat="44.84272" lon="6.48482">
        <ele>1162</ele>
        <time>2024-08-12T02:45:37Z</time>
      </trkpt>
      <trkpt lat="44.84272" lon="6.48482">
        <ele>1162.4</ele>
        <time>2024-08-12T02:45:38Z</time>
      </trkpt>
      <trkpt lat="44.8427" lon="6.48482">
        <ele>1162.4</ele>
        <time>2024-08-12T02:45:39Z</time>
      </trkpt>
      <trkpt lat="44.8427" lon="6.48482">
        <ele>1162.4</ele>
        <time>2024-08-12T02:45:40Z</time>
      </trkpt>
      <trkpt lat="44.84268" lon="6.48481">
        <ele>1162.4</ele>
        <time>2024-08-12T02:45:41Z</time>
      </trkpt>
      <trkpt lat="44.84268" lon="6.48481">
        <ele>1162.4</ele>
        <time>2024-08-12T02:45:42Z</time>
      </trkpt>
      <trkpt lat="44.84264" lon="6.48479">
        <ele>1162.2</ele>
        <time>2024-08-12T02:45:43Z</time>
      </trkpt>
      <trkpt lat="44.84263" lon="6.48477">
        <ele>1162.2</ele>
        <time>2024-08-12T02:45:44Z</time>
      </trkpt>
      <trkpt lat="44.84263" lon="6.48477">
        <ele>1162.2</ele>
        <time>2024-08-12T02:45:45Z</time>
      </trkpt>
      <trkpt lat="44.8426" lon="6.48475">
        <ele>1162.6</ele>
        <time>2024-08-12T02:45:46Z</time>
      </trkpt>
      <trkpt lat="44.84259" lon="6.48474">
        <ele>1162.6</ele>
        <time>2024-08-12T02:45:47Z</time>
      </trkpt>
      <trkpt lat="44.84259" lon="6.48474">
        <ele>1162.6</ele>
        <time>2024-08-12T02:45:48Z</time>
      </trkpt>
      <trkpt lat="44.84256" lon="6.48473">
        <ele>1162.4</ele>
        <time>2024-08-12T02:45:49Z</time>
      </trkpt>
      <trkpt lat="44.84256" lon="6.48473">
        <ele>1162.4</ele>
        <time>2024-08-12T02:45:50Z</time>
      </trkpt>
      <trkpt lat="44.84253" lon="6.48472">
        <ele>1162.4</ele>
        <time>2024-08-12T02:45:51Z</time>
      </trkpt>
      <trkpt lat="44.84253" lon="6.48472">
        <ele>1162.4</ele>
        <time>2024-08-12T02:45:52Z</time>
      </trkpt>
      <trkpt lat="44.8425" lon="6.48471">
        <ele>1162.2</ele>
        <time>2024-08-12T02:45:53Z</time>
      </trkpt>
      <trkpt lat="44.8425" lon="6.48471">
        <ele>1162.2</ele>
        <time>2024-08-12T02:45:54Z</time>
      </trkpt>
      <trkpt lat="44.84247" lon="6.4847">
        <ele>1162.2</ele>
        <time>2024-08-12T02:45:55Z</time>
      </trkpt>
      <trkpt lat="44.84247" lon="6.4847">
        <ele>1162</ele>
        <time>2024-08-12T02:45:56Z</time>
      </trkpt>
      <trkpt lat="44.84247" lon="6.48468">
        <ele>1162</ele>
        <time>2024-08-12T02:45:57Z</time>
      </trkpt>
      <trkpt lat="44.84247" lon="6.48468">
        <ele>1162</ele>
        <time>2024-08-12T02:45:58Z</time>
      </trkpt>
      <trkpt lat="44.84245" lon="6.48464">
        <ele>1161.8</ele>
        <time>2024-08-12T02:45:59Z</time>
      </trkpt>
      <trkpt lat="44.84245" lon="6.48464">
        <ele>1161.8</ele>
        <time>2024-08-12T02:46:00Z</time>
      </trkpt>
      <trkpt lat="44.84244" lon="6.48461">
        <ele>1161.8</ele>
        <time>2024-08-12T02:46:01Z</time>
      </trkpt>
      <trkpt lat="44.84244" lon="6.48461">
        <ele>1161.8</ele>
        <time>2024-08-12T02:46:02Z</time>
      </trkpt>
      <trkpt lat="44.84241" lon="6.48459">
        <ele>1161.8</ele>
        <time>2024-08-12T02:46:03Z</time>
      </trkpt>
      <trkpt lat="44.84238" lon="6.48458">
        <ele>1162.2</ele>
        <time>2024-08-12T02:46:04Z</time>
      </trkpt>
      <trkpt lat="44.84238" lon="6.48458">
        <ele>1162.2</ele>
        <time>2024-08-12T02:46:05Z</time>
      </trkpt>
      <trkpt lat="44.84236" lon="6.48456">
        <ele>1162</ele>
        <time>2024-08-12T02:46:06Z</time>
      </trkpt>
      <trkpt lat="44.84236" lon="6.48456">
        <ele>1162</ele>
        <time>2024-08-12T02:46:07Z</time>
      </trkpt>
      <trkpt lat="44.84234" lon="6.48453">
        <ele>1161.8</ele>
        <time>2024-08-12T02:46:08Z</time>
      </trkpt>
      <trkpt lat="44.84234" lon="6.48453">
        <ele>1161.8</ele>
        <time>2024-08-12T02:46:09Z</time>
      </trkpt>
      <trkpt lat="44.84232" lon="6.48451">
        <ele>1161.8</ele>
        <time>2024-08-12T02:46:10Z</time>
      </trkpt>
      <trkpt lat="44.84232" lon="6.48451">
        <ele>1161.8</ele>
        <time>2024-08-12T02:46:11Z</time>
      </trkpt>
      <trkpt lat="44.84232" lon="6.48451">
        <ele>1162</ele>
        <time>2024-08-12T02:46:12Z</time>
      </trkpt>
      <trkpt lat="44.84232" lon="6.48451">
        <ele>1162</ele>
        <time>2024-08-12T02:46:13Z</time>
      </trkpt>
      <trkpt lat="44.84232" lon="6.48451">
        <ele>1162</ele>
        <time>2024-08-12T02:46:14Z</time>
      </trkpt>
      <trkpt lat="44.84232" lon="6.48451">
        <ele>1162</ele>
        <time>2024-08-12T02:46:15Z</time>
      </trkpt>
      <trkpt lat="44.84232" lon="6.48451">
        <ele>1162</ele>
        <time>2024-08-12T02:46:16Z</time>
      </trkpt>
      <trkpt lat="44.84232" lon="6.48451">
        <ele>1162</ele>
        <time>2024-08-12T02:46:17Z</time>
      </trkpt>
      <trkpt lat="44.84232" lon="6.48451">
        <ele>1162</ele>
        <time>2024-08-12T02:46:18Z</time>
      </trkpt>
      <trkpt lat="44.84232" lon="6.48451">
        <ele>1161.8</ele>
        <time>2024-08-12T02:46:19Z</time>
      </trkpt>
      <trkpt lat="44.84232" lon="6.48451">
        <ele>1161.8</ele>
        <time>2024-08-12T02:46:20Z</time>
      </trkpt>
      <trkpt lat="44.84232" lon="6.48451">
        <ele>1161.8</ele>
        <time>2024-08-12T02:46:21Z</time>
      </trkpt>
      <trkpt lat="44.84232" lon="6.48451">
        <ele>1162</ele>
        <time>2024-08-12T02:46:22Z</time>
      </trkpt>
      <trkpt lat="44.84232" lon="6.48451">
        <ele>1162</ele>
        <time>2024-08-12T02:46:23Z</time>
      </trkpt>
      <trkpt lat="44.84232" lon="6.48451">
        <ele>1162</ele>
        <time>2024-08-12T02:46:24Z</time>
      </trkpt>
      <trkpt lat="44.84232" lon="6.48451">
        <ele>1162</ele>
        <time>2024-08-12T02:46:25Z</time>
      </trkpt>
      <trkpt lat="44.84232" lon="6.48451">
        <ele>1161.8</ele>
        <time>2024-08-12T02:46:26Z</time>
      </trkpt>
      <trkpt lat="44.84232" lon="6.48451">
        <ele>1161.8</ele>
        <time>2024-08-12T02:46:27Z</time>
      </trkpt>
      <trkpt lat="44.84232" lon="6.48451">
        <ele>1162</ele>
        <time>2024-08-12T02:46:28Z</time>
      </trkpt>
      <trkpt lat="44.84232" lon="6.48451">
        <ele>1161.8</ele>
        <time>2024-08-12T02:46:29Z</time>
      </trkpt>
      <trkpt lat="44.84232" lon="6.48451">
        <ele>1161.8</ele>
        <time>2024-08-12T02:46:30Z</time>
      </trkpt>
      <trkpt lat="44.84232" lon="6.48451">
        <ele>1161.8</ele>
        <time>2024-08-12T02:46:31Z</time>
      </trkpt>
      <trkpt lat="44.84232" lon="6.48451">
        <ele>1161.8</ele>
        <time>2024-08-12T02:46:32Z</time>
      </trkpt>
      <trkpt lat="44.84232" lon="6.48451">
        <ele>1161.8</ele>
        <time>2024-08-12T02:46:33Z</time>
      </trkpt>
      <trkpt lat="44.84232" lon="6.48451">
        <ele>1161.8</ele>
        <time>2024-08-12T02:46:34Z</time>
      </trkpt>
      <trkpt lat="44.84232" lon="6.48451">
        <ele>1162</ele>
        <time>2024-08-12T02:46:35Z</time>
      </trkpt>
      <trkpt lat="44.84232" lon="6.48451">
        <ele>1162</ele>
        <time>2024-08-12T02:46:36Z</time>
      </trkpt>
      <trkpt lat="44.84232" lon="6.48451">
        <ele>1161.8</ele>
        <time>2024-08-12T02:46:37Z</time>
      </trkpt>
      <trkpt lat="44.84232" lon="6.48451">
        <ele>1161.8</ele>
        <time>2024-08-12T02:46:38Z</time>
      </trkpt>
      <trkpt lat="44.84232" lon="6.48451">
        <ele>1162</ele>
        <time>2024-08-12T02:46:39Z</time>
      </trkpt>
      <trkpt lat="44.84232" lon="6.48451">
        <ele>1162.2</ele>
        <time>2024-08-12T02:46:40Z</time>
      </trkpt>
      <trkpt lat="44.84232" lon="6.48451">
        <ele>1162.2</ele>
        <time>2024-08-12T02:46:41Z</time>
      </trkpt>
      <trkpt lat="44.84232" lon="6.48451">
        <ele>1162</ele>
        <time>2024-08-12T02:46:42Z</time>
      </trkpt>
      <trkpt lat="44.84232" lon="6.48451">
        <ele>1161.8</ele>
        <time>2024-08-12T02:46:43Z</time>
      </trkpt>
      <trkpt lat="44.84232" lon="6.48451">
        <ele>1161.8</ele>
        <time>2024-08-12T02:46:44Z</time>
      </trkpt>
      <trkpt lat="44.84232" lon="6.48451">
        <ele>1162</ele>
        <time>2024-08-12T02:46:45Z</time>
      </trkpt>
      <trkpt lat="44.84232" lon="6.48451">
        <ele>1162</ele>
        <time>2024-08-12T02:46:46Z</time>
      </trkpt>
      <trkpt lat="44.84232" lon="6.48451">
        <ele>1162</ele>
        <time>2024-08-12T02:46:47Z</time>
      </trkpt>
      <trkpt lat="44.84232" lon="6.48451">
        <ele>1162</ele>
        <time>2024-08-12T02:46:48Z</time>
      </trkpt>
      <trkpt lat="44.84232" lon="6.48451">
        <ele>1162</ele>
        <time>2024-08-12T02:46:49Z</time>
      </trkpt>
      <trkpt lat="44.84232" lon="6.48451">
        <ele>1161.8</ele>
        <time>2024-08-12T02:46:50Z</time>
      </trkpt>
      <trkpt lat="44.84232" lon="6.48451">
        <ele>1161.8</ele>
        <time>2024-08-12T02:46:51Z</time>
      </trkpt>
      <trkpt lat="44.84232" lon="6.48451">
        <ele>1161.8</ele>
        <time>2024-08-12T02:46:52Z</time>
      </trkpt>
      <trkpt lat="44.84232" lon="6.48451">
        <ele>1161.8</ele>
        <time>2024-08-12T02:46:53Z</time>
      </trkpt>
      <trkpt lat="44.84232" lon="6.48451">
        <ele>1161.8</ele>
        <time>2024-08-12T02:46:54Z</time>
      </trkpt>
      <trkpt lat="44.84232" lon="6.48451">
        <ele>1161.8</ele>
        <time>2024-08-12T02:46:55Z</time>
      </trkpt>
      <trkpt lat="44.84232" lon="6.48451">
        <ele>1161.6</ele>
        <time>2024-08-12T02:46:56Z</time>
      </trkpt>
      <trkpt lat="44.84232" lon="6.48451">
        <ele>1161.4</ele>
        <time>2024-08-12T02:46:57Z</time>
      </trkpt>
      <trkpt lat="44.84232" lon="6.48451">
        <ele>1161.4</ele>
        <time>2024-08-12T02:46:58Z</time>
      </trkpt>
      <trkpt lat="44.84231" lon="6.48454">
        <ele>1161.4</ele>
        <time>2024-08-12T02:46:59Z</time>
      </trkpt>
      <trkpt lat="44.84231" lon="6.48454">
        <ele>1161.6</ele>
        <time>2024-08-12T02:47:00Z</time>
      </trkpt>
      <trkpt lat="44.84231" lon="6.48454">
        <ele>1161.6</ele>
        <time>2024-08-12T02:47:01Z</time>
      </trkpt>
      <trkpt lat="44.84231" lon="6.48454">
        <ele>1161.4</ele>
        <time>2024-08-12T02:47:02Z</time>
      </trkpt>
      <trkpt lat="44.84231" lon="6.48454">
        <ele>1161.4</ele>
        <time>2024-08-12T02:47:03Z</time>
      </trkpt>
      <trkpt lat="44.84231" lon="6.48454">
        <ele>1161.4</ele>
        <time>2024-08-12T02:47:04Z</time>
      </trkpt>
      <trkpt lat="44.84231" lon="6.48454">
        <ele>1161.6</ele>
        <time>2024-08-12T02:47:05Z</time>
      </trkpt>
      <trkpt lat="44.84232" lon="6.48451">
        <ele>1161.6</ele>
        <time>2024-08-12T02:47:06Z</time>
      </trkpt>
      <trkpt lat="44.84232" lon="6.48451">
        <ele>1161.6</ele>
        <time>2024-08-12T02:47:07Z</time>
      </trkpt>
      <trkpt lat="44.84232" lon="6.48451">
        <ele>1161.6</ele>
        <time>2024-08-12T02:47:08Z</time>
      </trkpt>
      <trkpt lat="44.84233" lon="6.48448">
        <ele>1161.4</ele>
        <time>2024-08-12T02:47:09Z</time>
      </trkpt>
      <trkpt lat="44.84233" lon="6.48448">
        <ele>1161.4</ele>
        <time>2024-08-12T02:47:10Z</time>
      </trkpt>
      <trkpt lat="44.84232" lon="6.48445">
        <ele>1161.4</ele>
        <time>2024-08-12T02:47:11Z</time>
      </trkpt>
      <trkpt lat="44.84232" lon="6.48445">
        <ele>1161.4</ele>
        <time>2024-08-12T02:47:12Z</time>
      </trkpt>
      <trkpt lat="44.8423" lon="6.48443">
        <ele>1161.2</ele>
        <time>2024-08-12T02:47:13Z</time>
      </trkpt>
      <trkpt lat="44.8423" lon="6.48443">
        <ele>1161.2</ele>
        <time>2024-08-12T02:47:14Z</time>
      </trkpt>
      <trkpt lat="44.84229" lon="6.4844">
        <ele>1161.2</ele>
        <time>2024-08-12T02:47:15Z</time>
      </trkpt>
      <trkpt lat="44.84229" lon="6.4844">
        <ele>1161.2</ele>
        <time>2024-08-12T02:47:16Z</time>
      </trkpt>
      <trkpt lat="44.84228" lon="6.48437">
        <ele>1161.2</ele>
        <time>2024-08-12T02:47:17Z</time>
      </trkpt>
      <trkpt lat="44.84228" lon="6.48437">
        <ele>1161.2</ele>
        <time>2024-08-12T02:47:18Z</time>
      </trkpt>
      <trkpt lat="44.84226" lon="6.48434">
        <ele>1161.2</ele>
        <time>2024-08-12T02:47:19Z</time>
      </trkpt>
      <trkpt lat="44.84226" lon="6.48434">
        <ele>1161.2</ele>
        <time>2024-08-12T02:47:20Z</time>
      </trkpt>
      <trkpt lat="44.84224" lon="6.48432">
        <ele>1161.2</ele>
        <time>2024-08-12T02:47:21Z</time>
      </trkpt>
      <trkpt lat="44.84224" lon="6.48432">
        <ele>1161.2</ele>
        <time>2024-08-12T02:47:22Z</time>
      </trkpt>
      <trkpt lat="44.84222" lon="6.48429">
        <ele>1161.2</ele>
        <time>2024-08-12T02:47:23Z</time>
      </trkpt>
      <trkpt lat="44.84222" lon="6.48429">
        <ele>1161.2</ele>
        <time>2024-08-12T02:47:24Z</time>
      </trkpt>
      <trkpt lat="44.8422" lon="6.48427">
        <ele>1161.2</ele>
        <time>2024-08-12T02:47:25Z</time>
      </trkpt>
      <trkpt lat="44.8422" lon="6.48427">
        <ele>1161.2</ele>
        <time>2024-08-12T02:47:26Z</time>
      </trkpt>
      <trkpt lat="44.84218" lon="6.48425">
        <ele>1161.2</ele>
        <time>2024-08-12T02:47:27Z</time>
      </trkpt>
      <trkpt lat="44.84218" lon="6.48425">
        <ele>1161.2</ele>
        <time>2024-08-12T02:47:28Z</time>
      </trkpt>
      <trkpt lat="44.84216" lon="6.48422">
        <ele>1161.2</ele>
        <time>2024-08-12T02:47:29Z</time>
      </trkpt>
      <trkpt lat="44.84216" lon="6.48422">
        <ele>1161.2</ele>
        <time>2024-08-12T02:47:30Z</time>
      </trkpt>
      <trkpt lat="44.84213" lon="6.4842">
        <ele>1161.2</ele>
        <time>2024-08-12T02:47:31Z</time>
      </trkpt>
      <trkpt lat="44.84213" lon="6.4842">
        <ele>1161.2</ele>
        <time>2024-08-12T02:47:32Z</time>
      </trkpt>
      <trkpt lat="44.84211" lon="6.48417">
        <ele>1161.4</ele>
        <time>2024-08-12T02:47:33Z</time>
      </trkpt>
      <trkpt lat="44.84211" lon="6.48417">
        <ele>1161.4</ele>
        <time>2024-08-12T02:47:34Z</time>
      </trkpt>
      <trkpt lat="44.84209" lon="6.48416">
        <ele>1161.4</ele>
        <time>2024-08-12T02:47:35Z</time>
      </trkpt>
      <trkpt lat="44.84209" lon="6.48416">
        <ele>1161.4</ele>
        <time>2024-08-12T02:47:36Z</time>
      </trkpt>
      <trkpt lat="44.84206" lon="6.48416">
        <ele>1161.4</ele>
        <time>2024-08-12T02:47:37Z</time>
      </trkpt>
      <trkpt lat="44.84206" lon="6.48416">
        <ele>1161.4</ele>
        <time>2024-08-12T02:47:38Z</time>
      </trkpt>
      <trkpt lat="44.84204" lon="6.48415">
        <ele>1161.4</ele>
        <time>2024-08-12T02:47:39Z</time>
      </trkpt>
      <trkpt lat="44.84204" lon="6.48415">
        <ele>1161.4</ele>
        <time>2024-08-12T02:47:40Z</time>
      </trkpt>
      <trkpt lat="44.842" lon="6.48413">
        <ele>1161.4</ele>
        <time>2024-08-12T02:47:41Z</time>
      </trkpt>
      <trkpt lat="44.842" lon="6.48413">
        <ele>1161.4</ele>
        <time>2024-08-12T02:47:42Z</time>
      </trkpt>
      <trkpt lat="44.84198" lon="6.48411">
        <ele>1161.4</ele>
        <time>2024-08-12T02:47:43Z</time>
      </trkpt>
      <trkpt lat="44.84198" lon="6.48411">
        <ele>1161</ele>
        <time>2024-08-12T02:47:44Z</time>
      </trkpt>
      <trkpt lat="44.84195" lon="6.4841">
        <ele>1161</ele>
        <time>2024-08-12T02:47:45Z</time>
      </trkpt>
      <trkpt lat="44.84195" lon="6.4841">
        <ele>1161.6</ele>
        <time>2024-08-12T02:47:46Z</time>
      </trkpt>
      <trkpt lat="44.84192" lon="6.48409">
        <ele>1161.6</ele>
        <time>2024-08-12T02:47:47Z</time>
      </trkpt>
      <trkpt lat="44.84192" lon="6.48409">
        <ele>1161.6</ele>
        <time>2024-08-12T02:47:48Z</time>
      </trkpt>
      <trkpt lat="44.84189" lon="6.48407">
        <ele>1161.8</ele>
        <time>2024-08-12T02:47:49Z</time>
      </trkpt>
      <trkpt lat="44.84189" lon="6.48407">
        <ele>1162</ele>
        <time>2024-08-12T02:47:50Z</time>
      </trkpt>
      <trkpt lat="44.84187" lon="6.48406">
        <ele>1162</ele>
        <time>2024-08-12T02:47:51Z</time>
      </trkpt>
      <trkpt lat="44.84187" lon="6.48406">
        <ele>1162</ele>
        <time>2024-08-12T02:47:52Z</time>
      </trkpt>
      <trkpt lat="44.84184" lon="6.48404">
        <ele>1162.2</ele>
        <time>2024-08-12T02:47:53Z</time>
      </trkpt>
      <trkpt lat="44.84184" lon="6.48404">
        <ele>1162.2</ele>
        <time>2024-08-12T02:47:54Z</time>
      </trkpt>
      <trkpt lat="44.84182" lon="6.48401">
        <ele>1161.8</ele>
        <time>2024-08-12T02:47:55Z</time>
      </trkpt>
      <trkpt lat="44.84182" lon="6.48401">
        <ele>1161.4</ele>
        <time>2024-08-12T02:47:56Z</time>
      </trkpt>
      <trkpt lat="44.84181" lon="6.48398">
        <ele>1161.4</ele>
        <time>2024-08-12T02:47:57Z</time>
      </trkpt>
      <trkpt lat="44.84181" lon="6.48398">
        <ele>1161.4</ele>
        <time>2024-08-12T02:47:58Z</time>
      </trkpt>
      <trkpt lat="44.84179" lon="6.48394">
        <ele>1161.6</ele>
        <time>2024-08-12T02:47:59Z</time>
      </trkpt>
      <trkpt lat="44.84179" lon="6.48394">
        <ele>1161.6</ele>
        <time>2024-08-12T02:48:00Z</time>
      </trkpt>
      <trkpt lat="44.84177" lon="6.48391">
        <ele>1161.6</ele>
        <time>2024-08-12T02:48:01Z</time>
      </trkpt>
      <trkpt lat="44.84177" lon="6.48391">
        <ele>1161.6</ele>
        <time>2024-08-12T02:48:02Z</time>
      </trkpt>
      <trkpt lat="44.84175" lon="6.48389">
        <ele>1161.6</ele>
        <time>2024-08-12T02:48:03Z</time>
      </trkpt>
      <trkpt lat="44.84175" lon="6.48389">
        <ele>1161.8</ele>
        <time>2024-08-12T02:48:04Z</time>
      </trkpt>
      <trkpt lat="44.84173" lon="6.48386">
        <ele>1161.8</ele>
        <time>2024-08-12T02:48:05Z</time>
      </trkpt>
      <trkpt lat="44.84173" lon="6.48386">
        <ele>1162</ele>
        <time>2024-08-12T02:48:06Z</time>
      </trkpt>
      <trkpt lat="44.84171" lon="6.48383">
        <ele>1162</ele>
        <time>2024-08-12T02:48:07Z</time>
      </trkpt>
      <trkpt lat="44.84171" lon="6.48383">
        <ele>1162</ele>
        <time>2024-08-12T02:48:08Z</time>
      </trkpt>
      <trkpt lat="44.84169" lon="6.4838">
        <ele>1162</ele>
        <time>2024-08-12T02:48:09Z</time>
      </trkpt>
      <trkpt lat="44.84169" lon="6.4838">
        <ele>1162.2</ele>
        <time>2024-08-12T02:48:10Z</time>
      </trkpt>
      <trkpt lat="44.84167" lon="6.48377">
        <ele>1162.2</ele>
        <time>2024-08-12T02:48:11Z</time>
      </trkpt>
      <trkpt lat="44.84167" lon="6.48377">
        <ele>1162</ele>
        <time>2024-08-12T02:48:12Z</time>
      </trkpt>
      <trkpt lat="44.84165" lon="6.48374">
        <ele>1162</ele>
        <time>2024-08-12T02:48:13Z</time>
      </trkpt>
      <trkpt lat="44.84165" lon="6.48374">
        <ele>1162.4</ele>
        <time>2024-08-12T02:48:14Z</time>
      </trkpt>
      <trkpt lat="44.84164" lon="6.4837">
        <ele>1162.4</ele>
        <time>2024-08-12T02:48:15Z</time>
      </trkpt>
      <trkpt lat="44.84164" lon="6.4837">
        <ele>1162.2</ele>
        <time>2024-08-12T02:48:16Z</time>
      </trkpt>
      <trkpt lat="44.84161" lon="6.48366">
        <ele>1162.2</ele>
        <time>2024-08-12T02:48:17Z</time>
      </trkpt>
      <trkpt lat="44.84161" lon="6.48366">
        <ele>1162.2</ele>
        <time>2024-08-12T02:48:18Z</time>
      </trkpt>
      <trkpt lat="44.8416" lon="6.48363">
        <ele>1162.4</ele>
        <time>2024-08-12T02:48:19Z</time>
      </trkpt>
      <trkpt lat="44.84159" lon="6.48361">
        <ele>1162.4</ele>
        <time>2024-08-12T02:48:20Z</time>
      </trkpt>
      <trkpt lat="44.84159" lon="6.48361">
        <ele>1162.4</ele>
        <time>2024-08-12T02:48:21Z</time>
      </trkpt>
      <trkpt lat="44.84157" lon="6.48357">
        <ele>1162.6</ele>
        <time>2024-08-12T02:48:22Z</time>
      </trkpt>
      <trkpt lat="44.84157" lon="6.48357">
        <ele>1162.6</ele>
        <time>2024-08-12T02:48:23Z</time>
      </trkpt>
      <trkpt lat="44.84157" lon="6.48354">
        <ele>1162.6</ele>
        <time>2024-08-12T02:48:24Z</time>
      </trkpt>
      <trkpt lat="44.84157" lon="6.48354">
        <ele>1162.8</ele>
        <time>2024-08-12T02:48:25Z</time>
      </trkpt>
      <trkpt lat="44.84155" lon="6.48351">
        <ele>1162.8</ele>
        <time>2024-08-12T02:48:26Z</time>
      </trkpt>
      <trkpt lat="44.84155" lon="6.48351">
        <ele>1162.8</ele>
        <time>2024-08-12T02:48:27Z</time>
      </trkpt>
      <trkpt lat="44.84152" lon="6.48349">
        <ele>1162.8</ele>
        <time>2024-08-12T02:48:28Z</time>
      </trkpt>
      <trkpt lat="44.84152" lon="6.48349">
        <ele>1163</ele>
        <time>2024-08-12T02:48:29Z</time>
      </trkpt>
      <trkpt lat="44.84151" lon="6.48347">
        <ele>1163.2</ele>
        <time>2024-08-12T02:48:30Z</time>
      </trkpt>
      <trkpt lat="44.84151" lon="6.48347">
        <ele>1163.2</ele>
        <time>2024-08-12T02:48:31Z</time>
      </trkpt>
      <trkpt lat="44.84149" lon="6.48345">
        <ele>1163.2</ele>
        <time>2024-08-12T02:48:32Z</time>
      </trkpt>
      <trkpt lat="44.84149" lon="6.48345">
        <ele>1163.2</ele>
        <time>2024-08-12T02:48:33Z</time>
      </trkpt>
      <trkpt lat="44.84147" lon="6.48342">
        <ele>1163.4</ele>
        <time>2024-08-12T02:48:34Z</time>
      </trkpt>
      <trkpt lat="44.84147" lon="6.48342">
        <ele>1163.6</ele>
        <time>2024-08-12T02:48:35Z</time>
      </trkpt>
      <trkpt lat="44.84145" lon="6.4834">
        <ele>1163.6</ele>
        <time>2024-08-12T02:48:36Z</time>
      </trkpt>
      <trkpt lat="44.84145" lon="6.4834">
        <ele>1163.6</ele>
        <time>2024-08-12T02:48:37Z</time>
      </trkpt>
      <trkpt lat="44.84143" lon="6.48337">
        <ele>1163.6</ele>
        <time>2024-08-12T02:48:38Z</time>
      </trkpt>
      <trkpt lat="44.84143" lon="6.48337">
        <ele>1163.8</ele>
        <time>2024-08-12T02:48:39Z</time>
      </trkpt>
      <trkpt lat="44.84141" lon="6.48334">
        <ele>1163.8</ele>
        <time>2024-08-12T02:48:40Z</time>
      </trkpt>
      <trkpt lat="44.84139" lon="6.48333">
        <ele>1163.8</ele>
        <time>2024-08-12T02:48:41Z</time>
      </trkpt>
      <trkpt lat="44.84139" lon="6.48333">
        <ele>1163.6</ele>
        <time>2024-08-12T02:48:42Z</time>
      </trkpt>
      <trkpt lat="44.84136" lon="6.48331">
        <ele>1163.6</ele>
        <time>2024-08-12T02:48:43Z</time>
      </trkpt>
      <trkpt lat="44.84136" lon="6.48331">
        <ele>1163.6</ele>
        <time>2024-08-12T02:48:44Z</time>
      </trkpt>
      <trkpt lat="44.84135" lon="6.48327">
        <ele>1163.8</ele>
        <time>2024-08-12T02:48:45Z</time>
      </trkpt>
      <trkpt lat="44.84134" lon="6.48325">
        <ele>1163.8</ele>
        <time>2024-08-12T02:48:46Z</time>
      </trkpt>
      <trkpt lat="44.84133" lon="6.48322">
        <ele>1164</ele>
        <time>2024-08-12T02:48:47Z</time>
      </trkpt>
      <trkpt lat="44.84133" lon="6.48322">
        <ele>1164</ele>
        <time>2024-08-12T02:48:48Z</time>
      </trkpt>
      <trkpt lat="44.84132" lon="6.48319">
        <ele>1164</ele>
        <time>2024-08-12T02:48:49Z</time>
      </trkpt>
      <trkpt lat="44.84132" lon="6.48319">
        <ele>1164</ele>
        <time>2024-08-12T02:48:50Z</time>
      </trkpt>
      <trkpt lat="44.8413" lon="6.48315">
        <ele>1164</ele>
        <time>2024-08-12T02:48:51Z</time>
      </trkpt>
      <trkpt lat="44.8413" lon="6.48315">
        <ele>1164</ele>
        <time>2024-08-12T02:48:52Z</time>
      </trkpt>
      <trkpt lat="44.84128" lon="6.48312">
        <ele>1164</ele>
        <time>2024-08-12T02:48:53Z</time>
      </trkpt>
      <trkpt lat="44.84128" lon="6.48312">
        <ele>1164.4</ele>
        <time>2024-08-12T02:48:54Z</time>
      </trkpt>
      <trkpt lat="44.84127" lon="6.48309">
        <ele>1164.4</ele>
        <time>2024-08-12T02:48:55Z</time>
      </trkpt>
      <trkpt lat="44.84125" lon="6.48307">
        <ele>1164.4</ele>
        <time>2024-08-12T02:48:56Z</time>
      </trkpt>
      <trkpt lat="44.84125" lon="6.48307">
        <ele>1164.2</ele>
        <time>2024-08-12T02:48:57Z</time>
      </trkpt>
      <trkpt lat="44.84123" lon="6.48304">
        <ele>1164.2</ele>
        <time>2024-08-12T02:48:58Z</time>
      </trkpt>
      <trkpt lat="44.84123" lon="6.48304">
        <ele>1164.2</ele>
        <time>2024-08-12T02:48:59Z</time>
      </trkpt>
      <trkpt lat="44.84121" lon="6.48301">
        <ele>1164.2</ele>
        <time>2024-08-12T02:49:00Z</time>
      </trkpt>
      <trkpt lat="44.84121" lon="6.48301">
        <ele>1164.2</ele>
        <time>2024-08-12T02:49:01Z</time>
      </trkpt>
      <trkpt lat="44.84119" lon="6.48298">
        <ele>1164.2</ele>
        <time>2024-08-12T02:49:02Z</time>
      </trkpt>
      <trkpt lat="44.84119" lon="6.48298">
        <ele>1164.4</ele>
        <time>2024-08-12T02:49:03Z</time>
      </trkpt>
      <trkpt lat="44.84116" lon="6.48295">
        <ele>1164.4</ele>
        <time>2024-08-12T02:49:04Z</time>
      </trkpt>
      <trkpt lat="44.84115" lon="6.48293">
        <ele>1164.4</ele>
        <time>2024-08-12T02:49:05Z</time>
      </trkpt>
      <trkpt lat="44.84112" lon="6.48292">
        <ele>1164.4</ele>
        <time>2024-08-12T02:49:06Z</time>
      </trkpt>
      <trkpt lat="44.84112" lon="6.48292">
        <ele>1164.6</ele>
        <time>2024-08-12T02:49:07Z</time>
      </trkpt>
      <trkpt lat="44.8411" lon="6.48291">
        <ele>1164.6</ele>
        <time>2024-08-12T02:49:08Z</time>
      </trkpt>
      <trkpt lat="44.8411" lon="6.48291">
        <ele>1164.6</ele>
        <time>2024-08-12T02:49:09Z</time>
      </trkpt>
      <trkpt lat="44.8411" lon="6.48291">
        <ele>1164.6</ele>
        <time>2024-08-12T02:49:10Z</time>
      </trkpt>
      <trkpt lat="44.84107" lon="6.48291">
        <ele>1164.8</ele>
        <time>2024-08-12T02:49:11Z</time>
      </trkpt>
      <trkpt lat="44.84107" lon="6.48291">
        <ele>1164.8</ele>
        <time>2024-08-12T02:49:12Z</time>
      </trkpt>
      <trkpt lat="44.84106" lon="6.48289">
        <ele>1164.8</ele>
        <time>2024-08-12T02:49:13Z</time>
      </trkpt>
      <trkpt lat="44.84106" lon="6.48289">
        <ele>1165</ele>
        <time>2024-08-12T02:49:14Z</time>
      </trkpt>
      <trkpt lat="44.84104" lon="6.48287">
        <ele>1165</ele>
        <time>2024-08-12T02:49:15Z</time>
      </trkpt>
      <trkpt lat="44.84104" lon="6.48287">
        <ele>1165</ele>
        <time>2024-08-12T02:49:16Z</time>
      </trkpt>
      <trkpt lat="44.84101" lon="6.48285">
        <ele>1165.2</ele>
        <time>2024-08-12T02:49:17Z</time>
      </trkpt>
      <trkpt lat="44.84101" lon="6.48285">
        <ele>1165.2</ele>
        <time>2024-08-12T02:49:18Z</time>
      </trkpt>
      <trkpt lat="44.84099" lon="6.48282">
        <ele>1165.2</ele>
        <time>2024-08-12T02:49:19Z</time>
      </trkpt>
      <trkpt lat="44.84099" lon="6.48282">
        <ele>1165.2</ele>
        <time>2024-08-12T02:49:20Z</time>
      </trkpt>
      <trkpt lat="44.84095" lon="6.4828">
        <ele>1165.4</ele>
        <time>2024-08-12T02:49:21Z</time>
      </trkpt>
      <trkpt lat="44.84093" lon="6.48279">
        <ele>1165.4</ele>
        <time>2024-08-12T02:49:22Z</time>
      </trkpt>
      <trkpt lat="44.84093" lon="6.48279">
        <ele>1165.4</ele>
        <time>2024-08-12T02:49:23Z</time>
      </trkpt>
      <trkpt lat="44.84091" lon="6.48277">
        <ele>1165.4</ele>
        <time>2024-08-12T02:49:24Z</time>
      </trkpt>
      <trkpt lat="44.84091" lon="6.48277">
        <ele>1165.6</ele>
        <time>2024-08-12T02:49:25Z</time>
      </trkpt>
      <trkpt lat="44.84089" lon="6.48274">
        <ele>1165.6</ele>
        <time>2024-08-12T02:49:26Z</time>
      </trkpt>
      <trkpt lat="44.84089" lon="6.48274">
        <ele>1165.6</ele>
        <time>2024-08-12T02:49:27Z</time>
      </trkpt>
      <trkpt lat="44.84087" lon="6.48272">
        <ele>1165.6</ele>
        <time>2024-08-12T02:49:28Z</time>
      </trkpt>
      <trkpt lat="44.84087" lon="6.48272">
        <ele>1165.6</ele>
        <time>2024-08-12T02:49:29Z</time>
      </trkpt>
      <trkpt lat="44.84087" lon="6.48272">
        <ele>1165.6</ele>
        <time>2024-08-12T02:49:30Z</time>
      </trkpt>
      <trkpt lat="44.84087" lon="6.48272">
        <ele>1165.6</ele>
        <time>2024-08-12T02:49:31Z</time>
      </trkpt>
      <trkpt lat="44.84087" lon="6.48272">
        <ele>1165.8</ele>
        <time>2024-08-12T02:49:32Z</time>
      </trkpt>
      <trkpt lat="44.84087" lon="6.48272">
        <ele>1165.8</ele>
        <time>2024-08-12T02:49:33Z</time>
      </trkpt>
      <trkpt lat="44.84087" lon="6.48272">
        <ele>1165.8</ele>
        <time>2024-08-12T02:49:34Z</time>
      </trkpt>
      <trkpt lat="44.84087" lon="6.48272">
        <ele>1165.6</ele>
        <time>2024-08-12T02:49:35Z</time>
      </trkpt>
      <trkpt lat="44.84088" lon="6.48269">
        <ele>1165.6</ele>
        <time>2024-08-12T02:49:36Z</time>
      </trkpt>
      <trkpt lat="44.84089" lon="6.48266">
        <ele>1165.6</ele>
        <time>2024-08-12T02:49:37Z</time>
      </trkpt>
      <trkpt lat="44.84089" lon="6.48263">
        <ele>1165.6</ele>
        <time>2024-08-12T02:49:38Z</time>
      </trkpt>
      <trkpt lat="44.8409" lon="6.4826">
        <ele>1165.6</ele>
        <time>2024-08-12T02:49:39Z</time>
      </trkpt>
      <trkpt lat="44.84091" lon="6.48256">
        <ele>1165.8</ele>
        <time>2024-08-12T02:49:40Z</time>
      </trkpt>
      <trkpt lat="44.84093" lon="6.48252">
        <ele>1166</ele>
        <time>2024-08-12T02:49:41Z</time>
      </trkpt>
      <trkpt lat="44.84094" lon="6.48251">
        <ele>1166</ele>
        <time>2024-08-12T02:49:42Z</time>
      </trkpt>
      <trkpt lat="44.84095" lon="6.48249">
        <ele>1166</ele>
        <time>2024-08-12T02:49:43Z</time>
      </trkpt>
      <trkpt lat="44.84095" lon="6.48249">
        <ele>1166</ele>
        <time>2024-08-12T02:49:44Z</time>
      </trkpt>
      <trkpt lat="44.84097" lon="6.48245">
        <ele>1166</ele>
        <time>2024-08-12T02:49:45Z</time>
      </trkpt>
      <trkpt lat="44.84097" lon="6.48245">
        <ele>1166.2</ele>
        <time>2024-08-12T02:49:46Z</time>
      </trkpt>
      <trkpt lat="44.84098" lon="6.4824">
        <ele>1166.2</ele>
        <time>2024-08-12T02:49:47Z</time>
      </trkpt>
      <trkpt lat="44.84098" lon="6.4824">
        <ele>1166.4</ele>
        <time>2024-08-12T02:49:48Z</time>
      </trkpt>
      <trkpt lat="44.84099" lon="6.48237">
        <ele>1166.4</ele>
        <time>2024-08-12T02:49:49Z</time>
      </trkpt>
      <trkpt lat="44.84099" lon="6.48237">
        <ele>1166.4</ele>
        <time>2024-08-12T02:49:50Z</time>
      </trkpt>
      <trkpt lat="44.841" lon="6.48234">
        <ele>1166.6</ele>
        <time>2024-08-12T02:49:51Z</time>
      </trkpt>
      <trkpt lat="44.841" lon="6.48234">
        <ele>1166.6</ele>
        <time>2024-08-12T02:49:52Z</time>
      </trkpt>
      <trkpt lat="44.841" lon="6.48231">
        <ele>1166.6</ele>
        <time>2024-08-12T02:49:53Z</time>
      </trkpt>
      <trkpt lat="44.841" lon="6.48231">
        <ele>1166.8</ele>
        <time>2024-08-12T02:49:54Z</time>
      </trkpt>
      <trkpt lat="44.84101" lon="6.48227">
        <ele>1166.8</ele>
        <time>2024-08-12T02:49:55Z</time>
      </trkpt>
      <trkpt lat="44.84101" lon="6.48227">
        <ele>1166.8</ele>
        <time>2024-08-12T02:49:56Z</time>
      </trkpt>
      <trkpt lat="44.841" lon="6.48223">
        <ele>1166.8</ele>
        <time>2024-08-12T02:49:57Z</time>
      </trkpt>
      <trkpt lat="44.841" lon="6.48223">
        <ele>1166.8</ele>
        <time>2024-08-12T02:49:58Z</time>
      </trkpt>
      <trkpt lat="44.84099" lon="6.4822">
        <ele>1166.8</ele>
        <time>2024-08-12T02:49:59Z</time>
      </trkpt>
      <trkpt lat="44.841" lon="6.48215">
        <ele>1167.2</ele>
        <time>2024-08-12T02:50:01Z</time>
      </trkpt>
      <trkpt lat="44.841" lon="6.48215">
        <ele>1167.2</ele>
        <time>2024-08-12T02:50:02Z</time>
      </trkpt>
      <trkpt lat="44.841" lon="6.4821">
        <ele>1167.4</ele>
        <time>2024-08-12T02:50:03Z</time>
      </trkpt>
      <trkpt lat="44.841" lon="6.48207">
        <ele>1167.4</ele>
        <time>2024-08-12T02:50:04Z</time>
      </trkpt>
      <trkpt lat="44.841" lon="6.48204">
        <ele>1167.4</ele>
        <time>2024-08-12T02:50:05Z</time>
      </trkpt>
      <trkpt lat="44.841" lon="6.48204">
        <ele>1167.6</ele>
        <time>2024-08-12T02:50:06Z</time>
      </trkpt>
      <trkpt lat="44.84098" lon="6.48199">
        <ele>1167.6</ele>
        <time>2024-08-12T02:50:07Z</time>
      </trkpt>
      <trkpt lat="44.84095" lon="6.48198">
        <ele>1167.6</ele>
        <time>2024-08-12T02:50:08Z</time>
      </trkpt>
      <trkpt lat="44.84092" lon="6.48198">
        <ele>1167.6</ele>
        <time>2024-08-12T02:50:09Z</time>
      </trkpt>
      <trkpt lat="44.84092" lon="6.48198">
        <ele>1167.4</ele>
        <time>2024-08-12T02:50:10Z</time>
      </trkpt>
      <trkpt lat="44.84089" lon="6.48199">
        <ele>1167.4</ele>
        <time>2024-08-12T02:50:11Z</time>
      </trkpt>
      <trkpt lat="44.84089" lon="6.48199">
        <ele>1167.6</ele>
        <time>2024-08-12T02:50:12Z</time>
      </trkpt>
      <trkpt lat="44.84087" lon="6.48197">
        <ele>1167.6</ele>
        <time>2024-08-12T02:50:13Z</time>
      </trkpt>
      <trkpt lat="44.84085" lon="6.48197">
        <ele>1167.6</ele>
        <time>2024-08-12T02:50:14Z</time>
      </trkpt>
      <trkpt lat="44.84085" lon="6.48197">
        <ele>1167.6</ele>
        <time>2024-08-12T02:50:15Z</time>
      </trkpt>
      <trkpt lat="44.84082" lon="6.48194">
        <ele>1167.6</ele>
        <time>2024-08-12T02:50:16Z</time>
      </trkpt>
      <trkpt lat="44.84082" lon="6.48194">
        <ele>1167.6</ele>
        <time>2024-08-12T02:50:17Z</time>
      </trkpt>
      <trkpt lat="44.8408" lon="6.48191">
        <ele>1167.8</ele>
        <time>2024-08-12T02:50:18Z</time>
      </trkpt>
      <trkpt lat="44.8408" lon="6.48191">
        <ele>1167.8</ele>
        <time>2024-08-12T02:50:19Z</time>
      </trkpt>
      <trkpt lat="44.84079" lon="6.48188">
        <ele>1167.8</ele>
        <time>2024-08-12T02:50:20Z</time>
      </trkpt>
      <trkpt lat="44.84079" lon="6.48188">
        <ele>1167.8</ele>
        <time>2024-08-12T02:50:21Z</time>
      </trkpt>
      <trkpt lat="44.84077" lon="6.48184">
        <ele>1167.8</ele>
        <time>2024-08-12T02:50:22Z</time>
      </trkpt>
      <trkpt lat="44.84077" lon="6.48184">
        <ele>1167.8</ele>
        <time>2024-08-12T02:50:23Z</time>
      </trkpt>
      <trkpt lat="44.84077" lon="6.48181">
        <ele>1167.8</ele>
        <time>2024-08-12T02:50:24Z</time>
      </trkpt>
      <trkpt lat="44.84077" lon="6.48181">
        <ele>1167.8</ele>
        <time>2024-08-12T02:50:25Z</time>
      </trkpt>
      <trkpt lat="44.84075" lon="6.48177">
        <ele>1168</ele>
        <time>2024-08-12T02:50:26Z</time>
      </trkpt>
      <trkpt lat="44.84075" lon="6.48174">
        <ele>1168.2</ele>
        <time>2024-08-12T02:50:27Z</time>
      </trkpt>
      <trkpt lat="44.84074" lon="6.48172">
        <ele>1168.2</ele>
        <time>2024-08-12T02:50:28Z</time>
      </trkpt>
      <trkpt lat="44.84074" lon="6.48172">
        <ele>1167.8</ele>
        <time>2024-08-12T02:50:29Z</time>
      </trkpt>
      <trkpt lat="44.84072" lon="6.48169">
        <ele>1167.6</ele>
        <time>2024-08-12T02:50:30Z</time>
      </trkpt>
      <trkpt lat="44.84072" lon="6.48169">
        <ele>1167.6</ele>
        <time>2024-08-12T02:50:31Z</time>
      </trkpt>
      <trkpt lat="44.8407" lon="6.48165">
        <ele>1167.6</ele>
        <time>2024-08-12T02:50:32Z</time>
      </trkpt>
      <trkpt lat="44.8407" lon="6.48165">
        <ele>1167.8</ele>
        <time>2024-08-12T02:50:33Z</time>
      </trkpt>
      <trkpt lat="44.84068" lon="6.48162">
        <ele>1167.8</ele>
        <time>2024-08-12T02:50:34Z</time>
      </trkpt>
      <trkpt lat="44.84068" lon="6.48162">
        <ele>1167.8</ele>
        <time>2024-08-12T02:50:35Z</time>
      </trkpt>
      <trkpt lat="44.84066" lon="6.4816">
        <ele>1167.6</ele>
        <time>2024-08-12T02:50:36Z</time>
      </trkpt>
      <trkpt lat="44.84066" lon="6.4816">
        <ele>1167.6</ele>
        <time>2024-08-12T02:50:37Z</time>
      </trkpt>
      <trkpt lat="44.84065" lon="6.48157">
        <ele>1167.8</ele>
        <time>2024-08-12T02:50:38Z</time>
      </trkpt>
      <trkpt lat="44.84065" lon="6.48157">
        <ele>1167.8</ele>
        <time>2024-08-12T02:50:39Z</time>
      </trkpt>
      <trkpt lat="44.84063" lon="6.48155">
        <ele>1168</ele>
        <time>2024-08-12T02:50:40Z</time>
      </trkpt>
      <trkpt lat="44.84063" lon="6.48155">
        <ele>1168</ele>
        <time>2024-08-12T02:50:41Z</time>
      </trkpt>
      <trkpt lat="44.84062" lon="6.4815">
        <ele>1168</ele>
        <time>2024-08-12T02:50:42Z</time>
      </trkpt>
      <trkpt lat="44.84061" lon="6.48148">
        <ele>1168</ele>
        <time>2024-08-12T02:50:43Z</time>
      </trkpt>
      <trkpt lat="44.8406" lon="6.48145">
        <ele>1167.8</ele>
        <time>2024-08-12T02:50:44Z</time>
      </trkpt>
      <trkpt lat="44.8406" lon="6.48142">
        <ele>1167.6</ele>
        <time>2024-08-12T02:50:45Z</time>
      </trkpt>
      <trkpt lat="44.8406" lon="6.48142">
        <ele>1167.6</ele>
        <time>2024-08-12T02:50:46Z</time>
      </trkpt>
      <trkpt lat="44.84058" lon="6.48138">
        <ele>1167.6</ele>
        <time>2024-08-12T02:50:47Z</time>
      </trkpt>
      <trkpt lat="44.84058" lon="6.48138">
        <ele>1167.6</ele>
        <time>2024-08-12T02:50:48Z</time>
      </trkpt>
      <trkpt lat="44.84057" lon="6.48135">
        <ele>1167.6</ele>
        <time>2024-08-12T02:50:49Z</time>
      </trkpt>
      <trkpt lat="44.84057" lon="6.48135">
        <ele>1167.6</ele>
        <time>2024-08-12T02:50:50Z</time>
      </trkpt>
      <trkpt lat="44.84057" lon="6.48132">
        <ele>1167.6</ele>
        <time>2024-08-12T02:50:51Z</time>
      </trkpt>
      <trkpt lat="44.84057" lon="6.48132">
        <ele>1167.6</ele>
        <time>2024-08-12T02:50:52Z</time>
      </trkpt>
      <trkpt lat="44.84057" lon="6.48127">
        <ele>1167.6</ele>
        <time>2024-08-12T02:50:53Z</time>
      </trkpt>
      <trkpt lat="44.84057" lon="6.48127">
        <ele>1167.6</ele>
        <time>2024-08-12T02:50:54Z</time>
      </trkpt>
      <trkpt lat="44.84056" lon="6.48123">
        <ele>1167.6</ele>
        <time>2024-08-12T02:50:55Z</time>
      </trkpt>
      <trkpt lat="44.84056" lon="6.48123">
        <ele>1167.6</ele>
        <time>2024-08-12T02:50:56Z</time>
      </trkpt>
      <trkpt lat="44.84055" lon="6.48118">
        <ele>1167.6</ele>
        <time>2024-08-12T02:50:57Z</time>
      </trkpt>
      <trkpt lat="44.84055" lon="6.48115">
        <ele>1167.6</ele>
        <time>2024-08-12T02:50:58Z</time>
      </trkpt>
      <trkpt lat="44.84054" lon="6.48113">
        <ele>1167.6</ele>
        <time>2024-08-12T02:50:59Z</time>
      </trkpt>
      <trkpt lat="44.84054" lon="6.48113">
        <ele>1167.8</ele>
        <time>2024-08-12T02:51:00Z</time>
      </trkpt>
      <trkpt lat="44.84053" lon="6.48109">
        <ele>1168</ele>
        <time>2024-08-12T02:51:01Z</time>
      </trkpt>
      <trkpt lat="44.84053" lon="6.48109">
        <ele>1168</ele>
        <time>2024-08-12T02:51:02Z</time>
      </trkpt>
      <trkpt lat="44.84053" lon="6.48105">
        <ele>1168</ele>
        <time>2024-08-12T02:51:03Z</time>
      </trkpt>
      <trkpt lat="44.84053" lon="6.48105">
        <ele>1167.8</ele>
        <time>2024-08-12T02:51:04Z</time>
      </trkpt>
      <trkpt lat="44.84052" lon="6.48101">
        <ele>1167.8</ele>
        <time>2024-08-12T02:51:05Z</time>
      </trkpt>
      <trkpt lat="44.84052" lon="6.48101">
        <ele>1167.8</ele>
        <time>2024-08-12T02:51:06Z</time>
      </trkpt>
      <trkpt lat="44.8405" lon="6.48098">
        <ele>1167.8</ele>
        <time>2024-08-12T02:51:07Z</time>
      </trkpt>
      <trkpt lat="44.8405" lon="6.48098">
        <ele>1167.8</ele>
        <time>2024-08-12T02:51:08Z</time>
      </trkpt>
      <trkpt lat="44.84049" lon="6.48095">
        <ele>1167.8</ele>
        <time>2024-08-12T02:51:09Z</time>
      </trkpt>
      <trkpt lat="44.84049" lon="6.48095">
        <ele>1168.2</ele>
        <time>2024-08-12T02:51:10Z</time>
      </trkpt>
      <trkpt lat="44.84049" lon="6.48092">
        <ele>1168.2</ele>
        <time>2024-08-12T02:51:11Z</time>
      </trkpt>
      <trkpt lat="44.84049" lon="6.48092">
        <ele>1168.2</ele>
        <time>2024-08-12T02:51:12Z</time>
      </trkpt>
      <trkpt lat="44.84048" lon="6.48089">
        <ele>1168.2</ele>
        <time>2024-08-12T02:51:13Z</time>
      </trkpt>
      <trkpt lat="44.84048" lon="6.48089">
        <ele>1168.2</ele>
        <time>2024-08-12T02:51:14Z</time>
      </trkpt>
      <trkpt lat="44.84047" lon="6.48085">
        <ele>1168.2</ele>
        <time>2024-08-12T02:51:15Z</time>
      </trkpt>
      <trkpt lat="44.84047" lon="6.48085">
        <ele>1168.4</ele>
        <time>2024-08-12T02:51:16Z</time>
      </trkpt>
      <trkpt lat="44.84047" lon="6.48085">
        <ele>1168.4</ele>
        <time>2024-08-12T02:51:17Z</time>
      </trkpt>
      <trkpt lat="44.84045" lon="6.48082">
        <ele>1168.4</ele>
        <time>2024-08-12T02:51:18Z</time>
      </trkpt>
      <trkpt lat="44.84044" lon="6.48079">
        <ele>1168.6</ele>
        <time>2024-08-12T02:51:19Z</time>
      </trkpt>
      <trkpt lat="44.84044" lon="6.48079">
        <ele>1168.6</ele>
        <time>2024-08-12T02:51:20Z</time>
      </trkpt>
      <trkpt lat="44.84041" lon="6.48077">
        <ele>1168.6</ele>
        <time>2024-08-12T02:51:21Z</time>
      </trkpt>
      <trkpt lat="44.84041" lon="6.48077">
        <ele>1168.4</ele>
        <time>2024-08-12T02:51:22Z</time>
      </trkpt>
      <trkpt lat="44.8404" lon="6.48073">
        <ele>1168.4</ele>
        <time>2024-08-12T02:51:23Z</time>
      </trkpt>
      <trkpt lat="44.8404" lon="6.48073">
        <ele>1168.6</ele>
        <time>2024-08-12T02:51:24Z</time>
      </trkpt>
      <trkpt lat="44.84039" lon="6.48069">
        <ele>1168.8</ele>
        <time>2024-08-12T02:51:25Z</time>
      </trkpt>
      <trkpt lat="44.84038" lon="6.48067">
        <ele>1168.8</ele>
        <time>2024-08-12T02:51:26Z</time>
      </trkpt>
      <trkpt lat="44.84038" lon="6.48067">
        <ele>1168.8</ele>
        <time>2024-08-12T02:51:27Z</time>
      </trkpt>
      <trkpt lat="44.84036" lon="6.48062">
        <ele>1168.6</ele>
        <time>2024-08-12T02:51:28Z</time>
      </trkpt>
      <trkpt lat="44.84035" lon="6.48059">
        <ele>1168.4</ele>
        <time>2024-08-12T02:51:29Z</time>
      </trkpt>
      <trkpt lat="44.84035" lon="6.48059">
        <ele>1168.4</ele>
        <time>2024-08-12T02:51:30Z</time>
      </trkpt>
      <trkpt lat="44.84034" lon="6.48056">
        <ele>1169</ele>
        <time>2024-08-12T02:51:31Z</time>
      </trkpt>
      <trkpt lat="44.84034" lon="6.48056">
        <ele>1169.2</ele>
        <time>2024-08-12T02:51:32Z</time>
      </trkpt>
      <trkpt lat="44.84032" lon="6.48053">
        <ele>1169.2</ele>
        <time>2024-08-12T02:51:33Z</time>
      </trkpt>
      <trkpt lat="44.84032" lon="6.48053">
        <ele>1169.4</ele>
        <time>2024-08-12T02:51:34Z</time>
      </trkpt>
      <trkpt lat="44.84032" lon="6.4805">
        <ele>1169.4</ele>
        <time>2024-08-12T02:51:35Z</time>
      </trkpt>
      <trkpt lat="44.84032" lon="6.4805">
        <ele>1169.6</ele>
        <time>2024-08-12T02:51:36Z</time>
      </trkpt>
      <trkpt lat="44.84032" lon="6.4805">
        <ele>1169.6</ele>
        <time>2024-08-12T02:51:37Z</time>
      </trkpt>
      <trkpt lat="44.8403" lon="6.48047">
        <ele>1169.8</ele>
        <time>2024-08-12T02:51:38Z</time>
      </trkpt>
      <trkpt lat="44.8403" lon="6.48047">
        <ele>1170</ele>
        <time>2024-08-12T02:51:39Z</time>
      </trkpt>
      <trkpt lat="44.84029" lon="6.48043">
        <ele>1170</ele>
        <time>2024-08-12T02:51:40Z</time>
      </trkpt>
      <trkpt lat="44.84029" lon="6.48043">
        <ele>1170.2</ele>
        <time>2024-08-12T02:51:41Z</time>
      </trkpt>
      <trkpt lat="44.84028" lon="6.48041">
        <ele>1170.2</ele>
        <time>2024-08-12T02:51:42Z</time>
      </trkpt>
      <trkpt lat="44.84028" lon="6.48041">
        <ele>1170.2</ele>
        <time>2024-08-12T02:51:43Z</time>
      </trkpt>
      <trkpt lat="44.84028" lon="6.48041">
        <ele>1170.2</ele>
        <time>2024-08-12T02:51:44Z</time>
      </trkpt>
      <trkpt lat="44.84026" lon="6.48038">
        <ele>1170.2</ele>
        <time>2024-08-12T02:51:45Z</time>
      </trkpt>
      <trkpt lat="44.84026" lon="6.48038">
        <ele>1170</ele>
        <time>2024-08-12T02:51:46Z</time>
      </trkpt>
      <trkpt lat="44.84024" lon="6.48033">
        <ele>1170</ele>
        <time>2024-08-12T02:51:47Z</time>
      </trkpt>
      <trkpt lat="44.84022" lon="6.48032">
        <ele>1169.8</ele>
        <time>2024-08-12T02:51:48Z</time>
      </trkpt>
      <trkpt lat="44.84021" lon="6.4803">
        <ele>1169.8</ele>
        <time>2024-08-12T02:51:49Z</time>
      </trkpt>
      <trkpt lat="44.8402" lon="6.48028">
        <ele>1169.6</ele>
        <time>2024-08-12T02:51:50Z</time>
      </trkpt>
      <trkpt lat="44.84018" lon="6.48026">
        <ele>1169.6</ele>
        <time>2024-08-12T02:51:51Z</time>
      </trkpt>
      <trkpt lat="44.84018" lon="6.48026">
        <ele>1169.6</ele>
        <time>2024-08-12T02:51:52Z</time>
      </trkpt>
      <trkpt lat="44.84017" lon="6.48022">
        <ele>1169.6</ele>
        <time>2024-08-12T02:51:53Z</time>
      </trkpt>
      <trkpt lat="44.84017" lon="6.48022">
        <ele>1169.6</ele>
        <time>2024-08-12T02:51:54Z</time>
      </trkpt>
      <trkpt lat="44.84016" lon="6.48018">
        <ele>1169.6</ele>
        <time>2024-08-12T02:51:55Z</time>
      </trkpt>
      <trkpt lat="44.84016" lon="6.48018">
        <ele>1169.8</ele>
        <time>2024-08-12T02:51:56Z</time>
      </trkpt>
      <trkpt lat="44.84017" lon="6.48014">
        <ele>1169.8</ele>
        <time>2024-08-12T02:51:57Z</time>
      </trkpt>
      <trkpt lat="44.84017" lon="6.48014">
        <ele>1169.8</ele>
        <time>2024-08-12T02:51:58Z</time>
      </trkpt>
      <trkpt lat="44.84018" lon="6.4801">
        <ele>1169.8</ele>
        <time>2024-08-12T02:51:59Z</time>
      </trkpt>
      <trkpt lat="44.84018" lon="6.4801">
        <ele>1169.8</ele>
        <time>2024-08-12T02:52:00Z</time>
      </trkpt>
      <trkpt lat="44.84018" lon="6.48005">
        <ele>1169.6</ele>
        <time>2024-08-12T02:52:01Z</time>
      </trkpt>
      <trkpt lat="44.84018" lon="6.48005">
        <ele>1169.8</ele>
        <time>2024-08-12T02:52:02Z</time>
      </trkpt>
      <trkpt lat="44.84018" lon="6.48001">
        <ele>1169.8</ele>
        <time>2024-08-12T02:52:03Z</time>
      </trkpt>
      <trkpt lat="44.84018" lon="6.48001">
        <ele>1169.8</ele>
        <time>2024-08-12T02:52:04Z</time>
      </trkpt>
      <trkpt lat="44.84018" lon="6.47997">
        <ele>1170.2</ele>
        <time>2024-08-12T02:52:05Z</time>
      </trkpt>
      <trkpt lat="44.84018" lon="6.47997">
        <ele>1170.2</ele>
        <time>2024-08-12T02:52:06Z</time>
      </trkpt>
      <trkpt lat="44.84018" lon="6.47993">
        <ele>1170.2</ele>
        <time>2024-08-12T02:52:07Z</time>
      </trkpt>
      <trkpt lat="44.84018" lon="6.47993">
        <ele>1170</ele>
        <time>2024-08-12T02:52:08Z</time>
      </trkpt>
      <trkpt lat="44.84018" lon="6.47989">
        <ele>1170</ele>
        <time>2024-08-12T02:52:09Z</time>
      </trkpt>
      <trkpt lat="44.84018" lon="6.47989">
        <ele>1170</ele>
        <time>2024-08-12T02:52:10Z</time>
      </trkpt>
      <trkpt lat="44.84018" lon="6.47984">
        <ele>1170</ele>
        <time>2024-08-12T02:52:11Z</time>
      </trkpt>
      <trkpt lat="44.84018" lon="6.47984">
        <ele>1170.4</ele>
        <time>2024-08-12T02:52:12Z</time>
      </trkpt>
      <trkpt lat="44.8402" lon="6.47981">
        <ele>1170.4</ele>
        <time>2024-08-12T02:52:13Z</time>
      </trkpt>
      <trkpt lat="44.8402" lon="6.47981">
        <ele>1170.4</ele>
        <time>2024-08-12T02:52:14Z</time>
      </trkpt>
      <trkpt lat="44.8402" lon="6.47977">
        <ele>1170.2</ele>
        <time>2024-08-12T02:52:15Z</time>
      </trkpt>
      <trkpt lat="44.8402" lon="6.47977">
        <ele>1170.2</ele>
        <time>2024-08-12T02:52:16Z</time>
      </trkpt>
      <trkpt lat="44.8402" lon="6.47973">
        <ele>1170.4</ele>
        <time>2024-08-12T02:52:17Z</time>
      </trkpt>
      <trkpt lat="44.8402" lon="6.47973">
        <ele>1170.6</ele>
        <time>2024-08-12T02:52:18Z</time>
      </trkpt>
      <trkpt lat="44.8402" lon="6.47969">
        <ele>1170.6</ele>
        <time>2024-08-12T02:52:19Z</time>
      </trkpt>
      <trkpt lat="44.8402" lon="6.47969">
        <ele>1170.4</ele>
        <time>2024-08-12T02:52:20Z</time>
      </trkpt>
      <trkpt lat="44.8402" lon="6.47966">
        <ele>1170.2</ele>
        <time>2024-08-12T02:52:21Z</time>
      </trkpt>
      <trkpt lat="44.84019" lon="6.47963">
        <ele>1170.2</ele>
        <time>2024-08-12T02:52:22Z</time>
      </trkpt>
      <trkpt lat="44.8402" lon="6.47961">
        <ele>1170.2</ele>
        <time>2024-08-12T02:52:23Z</time>
      </trkpt>
      <trkpt lat="44.8402" lon="6.47961">
        <ele>1170.4</ele>
        <time>2024-08-12T02:52:24Z</time>
      </trkpt>
      <trkpt lat="44.8402" lon="6.47956">
        <ele>1170.4</ele>
        <time>2024-08-12T02:52:25Z</time>
      </trkpt>
      <trkpt lat="44.8402" lon="6.47956">
        <ele>1170.4</ele>
        <time>2024-08-12T02:52:26Z</time>
      </trkpt>
      <trkpt lat="44.84021" lon="6.47952">
        <ele>1170.2</ele>
        <time>2024-08-12T02:52:27Z</time>
      </trkpt>
      <trkpt lat="44.84021" lon="6.47952">
        <ele>1170.2</ele>
        <time>2024-08-12T02:52:28Z</time>
      </trkpt>
      <trkpt lat="44.84021" lon="6.47947">
        <ele>1170.2</ele>
        <time>2024-08-12T02:52:29Z</time>
      </trkpt>
      <trkpt lat="44.84022" lon="6.47945">
        <ele>1170.2</ele>
        <time>2024-08-12T02:52:30Z</time>
      </trkpt>
      <trkpt lat="44.84023" lon="6.47942">
        <ele>1170.2</ele>
        <time>2024-08-12T02:52:31Z</time>
      </trkpt>
      <trkpt lat="44.84024" lon="6.4794">
        <ele>1170.4</ele>
        <time>2024-08-12T02:52:32Z</time>
      </trkpt>
      <trkpt lat="44.84024" lon="6.4794">
        <ele>1170.4</ele>
        <time>2024-08-12T02:52:33Z</time>
      </trkpt>
      <trkpt lat="44.84025" lon="6.47936">
        <ele>1170.4</ele>
        <time>2024-08-12T02:52:34Z</time>
      </trkpt>
      <trkpt lat="44.84025" lon="6.47936">
        <ele>1170.6</ele>
        <time>2024-08-12T02:52:35Z</time>
      </trkpt>
      <trkpt lat="44.84026" lon="6.47931">
        <ele>1170.6</ele>
        <time>2024-08-12T02:52:36Z</time>
      </trkpt>
      <trkpt lat="44.84026" lon="6.47931">
        <ele>1170.6</ele>
        <time>2024-08-12T02:52:37Z</time>
      </trkpt>
      <trkpt lat="44.84026" lon="6.47926">
        <ele>1170.6</ele>
        <time>2024-08-12T02:52:38Z</time>
      </trkpt>
      <trkpt lat="44.84026" lon="6.47926">
        <ele>1170.6</ele>
        <time>2024-08-12T02:52:39Z</time>
      </trkpt>
      <trkpt lat="44.84026" lon="6.47922">
        <ele>1170.6</ele>
        <time>2024-08-12T02:52:40Z</time>
      </trkpt>
      <trkpt lat="44.84026" lon="6.47922">
        <ele>1170.6</ele>
        <time>2024-08-12T02:52:41Z</time>
      </trkpt>
      <trkpt lat="44.84026" lon="6.47919">
        <ele>1170.8</ele>
        <time>2024-08-12T02:52:42Z</time>
      </trkpt>
      <trkpt lat="44.84026" lon="6.47916">
        <ele>1171</ele>
        <time>2024-08-12T02:52:43Z</time>
      </trkpt>
      <trkpt lat="44.84026" lon="6.47916">
        <ele>1171</ele>
        <time>2024-08-12T02:52:44Z</time>
      </trkpt>
      <trkpt lat="44.84025" lon="6.47912">
        <ele>1171</ele>
        <time>2024-08-12T02:52:45Z</time>
      </trkpt>
      <trkpt lat="44.84025" lon="6.47912">
        <ele>1171</ele>
        <time>2024-08-12T02:52:46Z</time>
      </trkpt>
      <trkpt lat="44.84025" lon="6.47907">
        <ele>1171.2</ele>
        <time>2024-08-12T02:52:47Z</time>
      </trkpt>
      <trkpt lat="44.84025" lon="6.47907">
        <ele>1171.2</ele>
        <time>2024-08-12T02:52:48Z</time>
      </trkpt>
      <trkpt lat="44.84026" lon="6.47904">
        <ele>1171.4</ele>
        <time>2024-08-12T02:52:49Z</time>
      </trkpt>
      <trkpt lat="44.84028" lon="6.47902">
        <ele>1171.4</ele>
        <time>2024-08-12T02:52:50Z</time>
      </trkpt>
      <trkpt lat="44.84029" lon="6.479">
        <ele>1171.4</ele>
        <time>2024-08-12T02:52:51Z</time>
      </trkpt>
      <trkpt lat="44.84029" lon="6.479">
        <ele>1171.4</ele>
        <time>2024-08-12T02:52:52Z</time>
      </trkpt>
      <trkpt lat="44.84029" lon="6.47897">
        <ele>1171.6</ele>
        <time>2024-08-12T02:52:53Z</time>
      </trkpt>
      <trkpt lat="44.84029" lon="6.47897">
        <ele>1171.6</ele>
        <time>2024-08-12T02:52:54Z</time>
      </trkpt>
      <trkpt lat="44.84029" lon="6.47892">
        <ele>1171.6</ele>
        <time>2024-08-12T02:52:55Z</time>
      </trkpt>
      <trkpt lat="44.84029" lon="6.47892">
        <ele>1171.8</ele>
        <time>2024-08-12T02:52:56Z</time>
      </trkpt>
      <trkpt lat="44.84028" lon="6.4789">
        <ele>1172</ele>
        <time>2024-08-12T02:52:57Z</time>
      </trkpt>
      <trkpt lat="44.84028" lon="6.4789">
        <ele>1172</ele>
        <time>2024-08-12T02:52:58Z</time>
      </trkpt>
      <trkpt lat="44.84027" lon="6.47886">
        <ele>1172</ele>
        <time>2024-08-12T02:52:59Z</time>
      </trkpt>
      <trkpt lat="44.84027" lon="6.47886">
        <ele>1172.2</ele>
        <time>2024-08-12T02:53:00Z</time>
      </trkpt>
      <trkpt lat="44.84028" lon="6.47883">
        <ele>1172.4</ele>
        <time>2024-08-12T02:53:01Z</time>
      </trkpt>
      <trkpt lat="44.84028" lon="6.47883">
        <ele>1172.4</ele>
        <time>2024-08-12T02:53:02Z</time>
      </trkpt>
      <trkpt lat="44.84027" lon="6.4788">
        <ele>1172.4</ele>
        <time>2024-08-12T02:53:03Z</time>
      </trkpt>
      <trkpt lat="44.84027" lon="6.4788">
        <ele>1172.4</ele>
        <time>2024-08-12T02:53:04Z</time>
      </trkpt>
      <trkpt lat="44.84027" lon="6.47876">
        <ele>1172.4</ele>
        <time>2024-08-12T02:53:05Z</time>
      </trkpt>
      <trkpt lat="44.84027" lon="6.47874">
        <ele>1172.4</ele>
        <time>2024-08-12T02:53:06Z</time>
      </trkpt>
      <trkpt lat="44.84026" lon="6.47872">
        <ele>1172.6</ele>
        <time>2024-08-12T02:53:07Z</time>
      </trkpt>
      <trkpt lat="44.84026" lon="6.47872">
        <ele>1172.6</ele>
        <time>2024-08-12T02:53:08Z</time>
      </trkpt>
      <trkpt lat="44.84026" lon="6.47868">
        <ele>1172.6</ele>
        <time>2024-08-12T02:53:09Z</time>
      </trkpt>
      <trkpt lat="44.84025" lon="6.47866">
        <ele>1172.6</ele>
        <time>2024-08-12T02:53:10Z</time>
      </trkpt>
      <trkpt lat="44.84025" lon="6.47866">
        <ele>1173</ele>
        <time>2024-08-12T02:53:11Z</time>
      </trkpt>
      <trkpt lat="44.84024" lon="6.47861">
        <ele>1173</ele>
        <time>2024-08-12T02:53:12Z</time>
      </trkpt>
      <trkpt lat="44.84024" lon="6.47861">
        <ele>1173</ele>
        <time>2024-08-12T02:53:13Z</time>
      </trkpt>
      <trkpt lat="44.84024" lon="6.47858">
        <ele>1173.2</ele>
        <time>2024-08-12T02:53:14Z</time>
      </trkpt>
      <trkpt lat="44.84024" lon="6.47858">
        <ele>1173.4</ele>
        <time>2024-08-12T02:53:15Z</time>
      </trkpt>
      <trkpt lat="44.84023" lon="6.47855">
        <ele>1173.4</ele>
        <time>2024-08-12T02:53:16Z</time>
      </trkpt>
      <trkpt lat="44.84023" lon="6.47855">
        <ele>1173.4</ele>
        <time>2024-08-12T02:53:17Z</time>
      </trkpt>
      <trkpt lat="44.84023" lon="6.47852">
        <ele>1173.4</ele>
        <time>2024-08-12T02:53:18Z</time>
      </trkpt>
      <trkpt lat="44.84023" lon="6.47852">
        <ele>1173.6</ele>
        <time>2024-08-12T02:53:19Z</time>
      </trkpt>
      <trkpt lat="44.84022" lon="6.4785">
        <ele>1173.6</ele>
        <time>2024-08-12T02:53:20Z</time>
      </trkpt>
      <trkpt lat="44.84022" lon="6.4785">
        <ele>1173.8</ele>
        <time>2024-08-12T02:53:21Z</time>
      </trkpt>
      <trkpt lat="44.84021" lon="6.47847">
        <ele>1173.8</ele>
        <time>2024-08-12T02:53:22Z</time>
      </trkpt>
      <trkpt lat="44.84021" lon="6.47847">
        <ele>1173.8</ele>
        <time>2024-08-12T02:53:23Z</time>
      </trkpt>
      <trkpt lat="44.8402" lon="6.47843">
        <ele>1174</ele>
        <time>2024-08-12T02:53:24Z</time>
      </trkpt>
      <trkpt lat="44.84019" lon="6.4784">
        <ele>1174</ele>
        <time>2024-08-12T02:53:25Z</time>
      </trkpt>
      <trkpt lat="44.84019" lon="6.4784">
        <ele>1174.2</ele>
        <time>2024-08-12T02:53:26Z</time>
      </trkpt>
      <trkpt lat="44.84018" lon="6.47835">
        <ele>1174.2</ele>
        <time>2024-08-12T02:53:27Z</time>
      </trkpt>
      <trkpt lat="44.84018" lon="6.47835">
        <ele>1174.4</ele>
        <time>2024-08-12T02:53:28Z</time>
      </trkpt>
      <trkpt lat="44.84018" lon="6.47831">
        <ele>1174.4</ele>
        <time>2024-08-12T02:53:29Z</time>
      </trkpt>
      <trkpt lat="44.84018" lon="6.47831">
        <ele>1174.4</ele>
        <time>2024-08-12T02:53:30Z</time>
      </trkpt>
      <trkpt lat="44.84018" lon="6.47828">
        <ele>1174.4</ele>
        <time>2024-08-12T02:53:31Z</time>
      </trkpt>
      <trkpt lat="44.84018" lon="6.47828">
        <ele>1174.4</ele>
        <time>2024-08-12T02:53:32Z</time>
      </trkpt>
      <trkpt lat="44.84017" lon="6.47825">
        <ele>1174.4</ele>
        <time>2024-08-12T02:53:33Z</time>
      </trkpt>
      <trkpt lat="44.84017" lon="6.47825">
        <ele>1174.6</ele>
        <time>2024-08-12T02:53:34Z</time>
      </trkpt>
      <trkpt lat="44.84016" lon="6.47822">
        <ele>1174.6</ele>
        <time>2024-08-12T02:53:35Z</time>
      </trkpt>
      <trkpt lat="44.84016" lon="6.47822">
        <ele>1174.8</ele>
        <time>2024-08-12T02:53:36Z</time>
      </trkpt>
      <trkpt lat="44.84014" lon="6.47819">
        <ele>1174.8</ele>
        <time>2024-08-12T02:53:37Z</time>
      </trkpt>
      <trkpt lat="44.84014" lon="6.47819">
        <ele>1175</ele>
        <time>2024-08-12T02:53:38Z</time>
      </trkpt>
      <trkpt lat="44.84013" lon="6.47815">
        <ele>1175</ele>
        <time>2024-08-12T02:53:39Z</time>
      </trkpt>
      <trkpt lat="44.84013" lon="6.47815">
        <ele>1174.8</ele>
        <time>2024-08-12T02:53:40Z</time>
      </trkpt>
      <trkpt lat="44.8401" lon="6.47812">
        <ele>1174.6</ele>
        <time>2024-08-12T02:53:41Z</time>
      </trkpt>
      <trkpt lat="44.8401" lon="6.47812">
        <ele>1174.8</ele>
        <time>2024-08-12T02:53:42Z</time>
      </trkpt>
      <trkpt lat="44.84008" lon="6.4781">
        <ele>1174.8</ele>
        <time>2024-08-12T02:53:43Z</time>
      </trkpt>
      <trkpt lat="44.84008" lon="6.4781">
        <ele>1174.8</ele>
        <time>2024-08-12T02:53:44Z</time>
      </trkpt>
      <trkpt lat="44.84006" lon="6.47807">
        <ele>1174.8</ele>
        <time>2024-08-12T02:53:45Z</time>
      </trkpt>
      <trkpt lat="44.84006" lon="6.47807">
        <ele>1174.8</ele>
        <time>2024-08-12T02:53:46Z</time>
      </trkpt>
      <trkpt lat="44.84005" lon="6.47803">
        <ele>1174.8</ele>
        <time>2024-08-12T02:53:47Z</time>
      </trkpt>
      <trkpt lat="44.84005" lon="6.47803">
        <ele>1175.2</ele>
        <time>2024-08-12T02:53:48Z</time>
      </trkpt>
      <trkpt lat="44.84004" lon="6.478">
        <ele>1175.2</ele>
        <time>2024-08-12T02:53:49Z</time>
      </trkpt>
      <trkpt lat="44.84003" lon="6.47798">
        <ele>1175.2</ele>
        <time>2024-08-12T02:53:50Z</time>
      </trkpt>
      <trkpt lat="44.84002" lon="6.47795">
        <ele>1175.2</ele>
        <time>2024-08-12T02:53:51Z</time>
      </trkpt>
      <trkpt lat="44.84001" lon="6.47792">
        <ele>1175.2</ele>
        <time>2024-08-12T02:53:52Z</time>
      </trkpt>
      <trkpt lat="44.84001" lon="6.47792">
        <ele>1175.2</ele>
        <time>2024-08-12T02:53:53Z</time>
      </trkpt>
      <trkpt lat="44.84" lon="6.47788">
        <ele>1175.2</ele>
        <time>2024-08-12T02:53:54Z</time>
      </trkpt>
      <trkpt lat="44.84" lon="6.47788">
        <ele>1175.2</ele>
        <time>2024-08-12T02:53:55Z</time>
      </trkpt>
      <trkpt lat="44.84" lon="6.47783">
        <ele>1175.2</ele>
        <time>2024-08-12T02:53:56Z</time>
      </trkpt>
      <trkpt lat="44.84" lon="6.47783">
        <ele>1175.2</ele>
        <time>2024-08-12T02:53:57Z</time>
      </trkpt>
      <trkpt lat="44.84" lon="6.47779">
        <ele>1175.4</ele>
        <time>2024-08-12T02:53:58Z</time>
      </trkpt>
      <trkpt lat="44.84" lon="6.47779">
        <ele>1175.4</ele>
        <time>2024-08-12T02:53:59Z</time>
      </trkpt>
      <trkpt lat="44.83998" lon="6.47776">
        <ele>1175.2</ele>
        <time>2024-08-12T02:54:00Z</time>
      </trkpt>
      <trkpt lat="44.83998" lon="6.47776">
        <ele>1175.2</ele>
        <time>2024-08-12T02:54:01Z</time>
      </trkpt>
      <trkpt lat="44.83998" lon="6.47772">
        <ele>1175.4</ele>
        <time>2024-08-12T02:54:02Z</time>
      </trkpt>
      <trkpt lat="44.83998" lon="6.47772">
        <ele>1175.4</ele>
        <time>2024-08-12T02:54:03Z</time>
      </trkpt>
      <trkpt lat="44.83996" lon="6.47768">
        <ele>1175.4</ele>
        <time>2024-08-12T02:54:04Z</time>
      </trkpt>
      <trkpt lat="44.83996" lon="6.47768">
        <ele>1175.4</ele>
        <time>2024-08-12T02:54:05Z</time>
      </trkpt>
      <trkpt lat="44.83996" lon="6.47765">
        <ele>1175.6</ele>
        <time>2024-08-12T02:54:06Z</time>
      </trkpt>
      <trkpt lat="44.83996" lon="6.47765">
        <ele>1175.6</ele>
        <time>2024-08-12T02:54:07Z</time>
      </trkpt>
      <trkpt lat="44.83994" lon="6.47762">
        <ele>1175.6</ele>
        <time>2024-08-12T02:54:08Z</time>
      </trkpt>
      <trkpt lat="44.83994" lon="6.47762">
        <ele>1175.8</ele>
        <time>2024-08-12T02:54:09Z</time>
      </trkpt>
      <trkpt lat="44.83993" lon="6.47759">
        <ele>1175.8</ele>
        <time>2024-08-12T02:54:10Z</time>
      </trkpt>
      <trkpt lat="44.83992" lon="6.47757">
        <ele>1175.8</ele>
        <time>2024-08-12T02:54:11Z</time>
      </trkpt>
      <trkpt lat="44.8399" lon="6.47756">
        <ele>1176</ele>
        <time>2024-08-12T02:54:12Z</time>
      </trkpt>
      <trkpt lat="44.8399" lon="6.47756">
        <ele>1176</ele>
        <time>2024-08-12T02:54:13Z</time>
      </trkpt>
      <trkpt lat="44.83989" lon="6.47753">
        <ele>1176</ele>
        <time>2024-08-12T02:54:14Z</time>
      </trkpt>
      <trkpt lat="44.83989" lon="6.47753">
        <ele>1176.2</ele>
        <time>2024-08-12T02:54:15Z</time>
      </trkpt>
      <trkpt lat="44.83987" lon="6.47749">
        <ele>1176.2</ele>
        <time>2024-08-12T02:54:16Z</time>
      </trkpt>
      <trkpt lat="44.83987" lon="6.47749">
        <ele>1176.2</ele>
        <time>2024-08-12T02:54:17Z</time>
      </trkpt>
      <trkpt lat="44.83985" lon="6.47746">
        <ele>1176.2</ele>
        <time>2024-08-12T02:54:18Z</time>
      </trkpt>
      <trkpt lat="44.83985" lon="6.47746">
        <ele>1176.2</ele>
        <time>2024-08-12T02:54:19Z</time>
      </trkpt>
      <trkpt lat="44.83983" lon="6.47743">
        <ele>1176.2</ele>
        <time>2024-08-12T02:54:20Z</time>
      </trkpt>
      <trkpt lat="44.83983" lon="6.47743">
        <ele>1176.4</ele>
        <time>2024-08-12T02:54:21Z</time>
      </trkpt>
      <trkpt lat="44.83981" lon="6.47741">
        <ele>1176.4</ele>
        <time>2024-08-12T02:54:22Z</time>
      </trkpt>
      <trkpt lat="44.83981" lon="6.47741">
        <ele>1176.4</ele>
        <time>2024-08-12T02:54:23Z</time>
      </trkpt>
      <trkpt lat="44.8398" lon="6.47738">
        <ele>1176.8</ele>
        <time>2024-08-12T02:54:24Z</time>
      </trkpt>
      <trkpt lat="44.8398" lon="6.47738">
        <ele>1176.8</ele>
        <time>2024-08-12T02:54:25Z</time>
      </trkpt>
      <trkpt lat="44.8398" lon="6.47733">
        <ele>1176.8</ele>
        <time>2024-08-12T02:54:26Z</time>
      </trkpt>
      <trkpt lat="44.8398" lon="6.47733">
        <ele>1176.8</ele>
        <time>2024-08-12T02:54:27Z</time>
      </trkpt>
      <trkpt lat="44.83979" lon="6.4773">
        <ele>1176.6</ele>
        <time>2024-08-12T02:54:28Z</time>
      </trkpt>
      <trkpt lat="44.83979" lon="6.4773">
        <ele>1176.8</ele>
        <time>2024-08-12T02:54:29Z</time>
      </trkpt>
      <trkpt lat="44.83977" lon="6.47729">
        <ele>1177</ele>
        <time>2024-08-12T02:54:30Z</time>
      </trkpt>
      <trkpt lat="44.83977" lon="6.47729">
        <ele>1177</ele>
        <time>2024-08-12T02:54:31Z</time>
      </trkpt>
      <trkpt lat="44.83975" lon="6.47726">
        <ele>1177</ele>
        <time>2024-08-12T02:54:32Z</time>
      </trkpt>
      <trkpt lat="44.83975" lon="6.47726">
        <ele>1177</ele>
        <time>2024-08-12T02:54:33Z</time>
      </trkpt>
      <trkpt lat="44.83975" lon="6.47722">
        <ele>1177.2</ele>
        <time>2024-08-12T02:54:34Z</time>
      </trkpt>
      <trkpt lat="44.83975" lon="6.47722">
        <ele>1177.2</ele>
        <time>2024-08-12T02:54:35Z</time>
      </trkpt>
      <trkpt lat="44.83973" lon="6.47719">
        <ele>1177.2</ele>
        <time>2024-08-12T02:54:36Z</time>
      </trkpt>
      <trkpt lat="44.83973" lon="6.47719">
        <ele>1177.2</ele>
        <time>2024-08-12T02:54:37Z</time>
      </trkpt>
      <trkpt lat="44.83972" lon="6.47716">
        <ele>1177.2</ele>
        <time>2024-08-12T02:54:38Z</time>
      </trkpt>
      <trkpt lat="44.8397" lon="6.47713">
        <ele>1177.4</ele>
        <time>2024-08-12T02:54:39Z</time>
      </trkpt>
      <trkpt lat="44.8397" lon="6.47713">
        <ele>1177.4</ele>
        <time>2024-08-12T02:54:40Z</time>
      </trkpt>
      <trkpt lat="44.8397" lon="6.4771">
        <ele>1177.4</ele>
        <time>2024-08-12T02:54:41Z</time>
      </trkpt>
      <trkpt lat="44.8397" lon="6.4771">
        <ele>1177.4</ele>
        <time>2024-08-12T02:54:42Z</time>
      </trkpt>
      <trkpt lat="44.83969" lon="6.47706">
        <ele>1177.6</ele>
        <time>2024-08-12T02:54:43Z</time>
      </trkpt>
      <trkpt lat="44.83969" lon="6.47706">
        <ele>1177.6</ele>
        <time>2024-08-12T02:54:44Z</time>
      </trkpt>
      <trkpt lat="44.83968" lon="6.47702">
        <ele>1177.6</ele>
        <time>2024-08-12T02:54:45Z</time>
      </trkpt>
      <trkpt lat="44.83968" lon="6.47702">
        <ele>1177.8</ele>
        <time>2024-08-12T02:54:46Z</time>
      </trkpt>
      <trkpt lat="44.83967" lon="6.47699">
        <ele>1177.8</ele>
        <time>2024-08-12T02:54:47Z</time>
      </trkpt>
      <trkpt lat="44.83967" lon="6.47699">
        <ele>1177.6</ele>
        <time>2024-08-12T02:54:48Z</time>
      </trkpt>
      <trkpt lat="44.83965" lon="6.47694">
        <ele>1177.6</ele>
        <time>2024-08-12T02:54:49Z</time>
      </trkpt>
      <trkpt lat="44.83964" lon="6.47692">
        <ele>1177.8</ele>
        <time>2024-08-12T02:54:50Z</time>
      </trkpt>
      <trkpt lat="44.83964" lon="6.47692">
        <ele>1178</ele>
        <time>2024-08-12T02:54:51Z</time>
      </trkpt>
      <trkpt lat="44.83962" lon="6.47688">
        <ele>1178</ele>
        <time>2024-08-12T02:54:52Z</time>
      </trkpt>
      <trkpt lat="44.83962" lon="6.47688">
        <ele>1178</ele>
        <time>2024-08-12T02:54:53Z</time>
      </trkpt>
      <trkpt lat="44.83961" lon="6.47686">
        <ele>1178</ele>
        <time>2024-08-12T02:54:54Z</time>
      </trkpt>
      <trkpt lat="44.83961" lon="6.47686">
        <ele>1178</ele>
        <time>2024-08-12T02:54:55Z</time>
      </trkpt>
      <trkpt lat="44.83961" lon="6.47686">
        <ele>1177.8</ele>
        <time>2024-08-12T02:54:56Z</time>
      </trkpt>
      <trkpt lat="44.83959" lon="6.47682">
        <ele>1177.8</ele>
        <time>2024-08-12T02:54:57Z</time>
      </trkpt>
      <trkpt lat="44.83959" lon="6.47682">
        <ele>1178</ele>
        <time>2024-08-12T02:54:58Z</time>
      </trkpt>
      <trkpt lat="44.83957" lon="6.47679">
        <ele>1178.2</ele>
        <time>2024-08-12T02:54:59Z</time>
      </trkpt>
      <trkpt lat="44.83957" lon="6.47679">
        <ele>1178.2</ele>
        <time>2024-08-12T02:55:00Z</time>
      </trkpt>
      <trkpt lat="44.83955" lon="6.47675">
        <ele>1178</ele>
        <time>2024-08-12T02:55:01Z</time>
      </trkpt>
      <trkpt lat="44.83955" lon="6.47675">
        <ele>1178</ele>
        <time>2024-08-12T02:55:02Z</time>
      </trkpt>
      <trkpt lat="44.83954" lon="6.47672">
        <ele>1178</ele>
        <time>2024-08-12T02:55:03Z</time>
      </trkpt>
      <trkpt lat="44.83954" lon="6.47672">
        <ele>1178</ele>
        <time>2024-08-12T02:55:04Z</time>
      </trkpt>
      <trkpt lat="44.83954" lon="6.47672">
        <ele>1178</ele>
        <time>2024-08-12T02:55:05Z</time>
      </trkpt>
      <trkpt lat="44.83954" lon="6.47669">
        <ele>1178</ele>
        <time>2024-08-12T02:55:06Z</time>
      </trkpt>
      <trkpt lat="44.83954" lon="6.47669">
        <ele>1178</ele>
        <time>2024-08-12T02:55:07Z</time>
      </trkpt>
      <trkpt lat="44.83953" lon="6.47666">
        <ele>1178</ele>
        <time>2024-08-12T02:55:08Z</time>
      </trkpt>
      <trkpt lat="44.83953" lon="6.47666">
        <ele>1178</ele>
        <time>2024-08-12T02:55:09Z</time>
      </trkpt>
      <trkpt lat="44.83952" lon="6.47662">
        <ele>1178</ele>
        <time>2024-08-12T02:55:10Z</time>
      </trkpt>
      <trkpt lat="44.83952" lon="6.47662">
        <ele>1178.2</ele>
        <time>2024-08-12T02:55:11Z</time>
      </trkpt>
      <trkpt lat="44.8395" lon="6.47659">
        <ele>1178.2</ele>
        <time>2024-08-12T02:55:12Z</time>
      </trkpt>
      <trkpt lat="44.8395" lon="6.47659">
        <ele>1178.2</ele>
        <time>2024-08-12T02:55:13Z</time>
      </trkpt>
      <trkpt lat="44.83949" lon="6.47656">
        <ele>1178.2</ele>
        <time>2024-08-12T02:55:14Z</time>
      </trkpt>
      <trkpt lat="44.83949" lon="6.47656">
        <ele>1178.2</ele>
        <time>2024-08-12T02:55:15Z</time>
      </trkpt>
      <trkpt lat="44.83948" lon="6.47653">
        <ele>1178.2</ele>
        <time>2024-08-12T02:55:16Z</time>
      </trkpt>
      <trkpt lat="44.83948" lon="6.47653">
        <ele>1178.4</ele>
        <time>2024-08-12T02:55:17Z</time>
      </trkpt>
      <trkpt lat="44.83947" lon="6.47649">
        <ele>1178.4</ele>
        <time>2024-08-12T02:55:18Z</time>
      </trkpt>
      <trkpt lat="44.83947" lon="6.47649">
        <ele>1178.4</ele>
        <time>2024-08-12T02:55:19Z</time>
      </trkpt>
      <trkpt lat="44.83946" lon="6.47645">
        <ele>1178.4</ele>
        <time>2024-08-12T02:55:20Z</time>
      </trkpt>
      <trkpt lat="44.83946" lon="6.47645">
        <ele>1178.4</ele>
        <time>2024-08-12T02:55:21Z</time>
      </trkpt>
      <trkpt lat="44.83947" lon="6.4764">
        <ele>1178.4</ele>
        <time>2024-08-12T02:55:22Z</time>
      </trkpt>
      <trkpt lat="44.83947" lon="6.4764">
        <ele>1178.2</ele>
        <time>2024-08-12T02:55:23Z</time>
      </trkpt>
      <trkpt lat="44.83947" lon="6.47637">
        <ele>1178.2</ele>
        <time>2024-08-12T02:55:24Z</time>
      </trkpt>
      <trkpt lat="44.83947" lon="6.47637">
        <ele>1178.2</ele>
        <time>2024-08-12T02:55:25Z</time>
      </trkpt>
      <trkpt lat="44.83946" lon="6.47633">
        <ele>1178.2</ele>
        <time>2024-08-12T02:55:26Z</time>
      </trkpt>
      <trkpt lat="44.83945" lon="6.4763">
        <ele>1178.2</ele>
        <time>2024-08-12T02:55:27Z</time>
      </trkpt>
      <trkpt lat="44.83948" lon="6.47628">
        <ele>1178</ele>
        <time>2024-08-12T02:55:28Z</time>
      </trkpt>
      <trkpt lat="44.83948" lon="6.47628">
        <ele>1178</ele>
        <time>2024-08-12T02:55:29Z</time>
      </trkpt>
      <trkpt lat="44.83948" lon="6.47624">
        <ele>1177.8</ele>
        <time>2024-08-12T02:55:30Z</time>
      </trkpt>
      <trkpt lat="44.83948" lon="6.47621">
        <ele>1177.8</ele>
        <time>2024-08-12T02:55:31Z</time>
      </trkpt>
      <trkpt lat="44.83947" lon="6.47619">
        <ele>1178.2</ele>
        <time>2024-08-12T02:55:32Z</time>
      </trkpt>
      <trkpt lat="44.83946" lon="6.47616">
        <ele>1178.6</ele>
        <time>2024-08-12T02:55:33Z</time>
      </trkpt>
      <trkpt lat="44.83946" lon="6.47616">
        <ele>1178.6</ele>
        <time>2024-08-12T02:55:34Z</time>
      </trkpt>
      <trkpt lat="44.83945" lon="6.47612">
        <ele>1178.6</ele>
        <time>2024-08-12T02:55:35Z</time>
      </trkpt>
      <trkpt lat="44.83945" lon="6.47612">
        <ele>1178.4</ele>
        <time>2024-08-12T02:55:36Z</time>
      </trkpt>
      <trkpt lat="44.83944" lon="6.47608">
        <ele>1178.4</ele>
        <time>2024-08-12T02:55:37Z</time>
      </trkpt>
      <trkpt lat="44.83944" lon="6.47605">
        <ele>1178.6</ele>
        <time>2024-08-12T02:55:38Z</time>
      </trkpt>
      <trkpt lat="44.83944" lon="6.47605">
        <ele>1178.6</ele>
        <time>2024-08-12T02:55:39Z</time>
      </trkpt>
      <trkpt lat="44.83944" lon="6.47601">
        <ele>1178.6</ele>
        <time>2024-08-12T02:55:40Z</time>
      </trkpt>
      <trkpt lat="44.83944" lon="6.47601">
        <ele>1178.8</ele>
        <time>2024-08-12T02:55:41Z</time>
      </trkpt>
      <trkpt lat="44.83944" lon="6.47597">
        <ele>1178.8</ele>
        <time>2024-08-12T02:55:42Z</time>
      </trkpt>
      <trkpt lat="44.83944" lon="6.47597">
        <ele>1179</ele>
        <time>2024-08-12T02:55:43Z</time>
      </trkpt>
      <trkpt lat="44.83943" lon="6.47593">
        <ele>1179.4</ele>
        <time>2024-08-12T02:55:44Z</time>
      </trkpt>
      <trkpt lat="44.83943" lon="6.47593">
        <ele>1179.4</ele>
        <time>2024-08-12T02:55:45Z</time>
      </trkpt>
      <trkpt lat="44.83942" lon="6.47589">
        <ele>1179.6</ele>
        <time>2024-08-12T02:55:46Z</time>
      </trkpt>
      <trkpt lat="44.83942" lon="6.47589">
        <ele>1179.6</ele>
        <time>2024-08-12T02:55:47Z</time>
      </trkpt>
      <trkpt lat="44.83941" lon="6.47585">
        <ele>1179.4</ele>
        <time>2024-08-12T02:55:48Z</time>
      </trkpt>
      <trkpt lat="44.83941" lon="6.47585">
        <ele>1179.4</ele>
        <time>2024-08-12T02:55:49Z</time>
      </trkpt>
      <trkpt lat="44.8394" lon="6.47581">
        <ele>1179.8</ele>
        <time>2024-08-12T02:55:50Z</time>
      </trkpt>
      <trkpt lat="44.8394" lon="6.47581">
        <ele>1179.8</ele>
        <time>2024-08-12T02:55:51Z</time>
      </trkpt>
      <trkpt lat="44.8394" lon="6.47578">
        <ele>1179.8</ele>
        <time>2024-08-12T02:55:52Z</time>
      </trkpt>
      <trkpt lat="44.8394" lon="6.47578">
        <ele>1179.8</ele>
        <time>2024-08-12T02:55:53Z</time>
      </trkpt>
      <trkpt lat="44.8394" lon="6.47575">
        <ele>1180</ele>
        <time>2024-08-12T02:55:54Z</time>
      </trkpt>
      <trkpt lat="44.8394" lon="6.47572">
        <ele>1180</ele>
        <time>2024-08-12T02:55:55Z</time>
      </trkpt>
      <trkpt lat="44.8394" lon="6.47572">
        <ele>1180.2</ele>
        <time>2024-08-12T02:55:56Z</time>
      </trkpt>
      <trkpt lat="44.8394" lon="6.47569">
        <ele>1180.2</ele>
        <time>2024-08-12T02:55:57Z</time>
      </trkpt>
      <trkpt lat="44.83939" lon="6.47566">
        <ele>1180.2</ele>
        <time>2024-08-12T02:55:58Z</time>
      </trkpt>
      <trkpt lat="44.83939" lon="6.47566">
        <ele>1180.2</ele>
        <time>2024-08-12T02:55:59Z</time>
      </trkpt>
      <trkpt lat="44.83938" lon="6.47562">
        <ele>1180.2</ele>
        <time>2024-08-12T02:56:00Z</time>
      </trkpt>
      <trkpt lat="44.83938" lon="6.47562">
        <ele>1180.2</ele>
        <time>2024-08-12T02:56:01Z</time>
      </trkpt>
      <trkpt lat="44.83937" lon="6.47558">
        <ele>1180.4</ele>
        <time>2024-08-12T02:56:02Z</time>
      </trkpt>
      <trkpt lat="44.83937" lon="6.47558">
        <ele>1180.4</ele>
        <time>2024-08-12T02:56:03Z</time>
      </trkpt>
      <trkpt lat="44.83936" lon="6.47555">
        <ele>1180.4</ele>
        <time>2024-08-12T02:56:04Z</time>
      </trkpt>
      <trkpt lat="44.83936" lon="6.47555">
        <ele>1180.4</ele>
        <time>2024-08-12T02:56:05Z</time>
      </trkpt>
      <trkpt lat="44.83936" lon="6.47551">
        <ele>1180.4</ele>
        <time>2024-08-12T02:56:06Z</time>
      </trkpt>
      <trkpt lat="44.83936" lon="6.47551">
        <ele>1180.4</ele>
        <time>2024-08-12T02:56:07Z</time>
      </trkpt>
      <trkpt lat="44.83936" lon="6.47546">
        <ele>1180.4</ele>
        <time>2024-08-12T02:56:08Z</time>
      </trkpt>
      <trkpt lat="44.83936" lon="6.47546">
        <ele>1180.6</ele>
        <time>2024-08-12T02:56:09Z</time>
      </trkpt>
      <trkpt lat="44.83935" lon="6.47542">
        <ele>1180.6</ele>
        <time>2024-08-12T02:56:10Z</time>
      </trkpt>
      <trkpt lat="44.83935" lon="6.47542">
        <ele>1180.8</ele>
        <time>2024-08-12T02:56:11Z</time>
      </trkpt>
      <trkpt lat="44.83935" lon="6.47534">
        <ele>1181</ele>
        <time>2024-08-12T02:56:12Z</time>
      </trkpt>
      <trkpt lat="44.83935" lon="6.47533">
        <ele>1181</ele>
        <time>2024-08-12T02:56:13Z</time>
      </trkpt>
      <trkpt lat="44.83935" lon="6.4753">
        <ele>1181.2</ele>
        <time>2024-08-12T02:56:14Z</time>
      </trkpt>
      <trkpt lat="44.83935" lon="6.4753">
        <ele>1181.2</ele>
        <time>2024-08-12T02:56:15Z</time>
      </trkpt>
      <trkpt lat="44.83936" lon="6.47525">
        <ele>1181.2</ele>
        <time>2024-08-12T02:56:16Z</time>
      </trkpt>
      <trkpt lat="44.83936" lon="6.47525">
        <ele>1181.2</ele>
        <time>2024-08-12T02:56:17Z</time>
      </trkpt>
      <trkpt lat="44.83935" lon="6.47523">
        <ele>1181.2</ele>
        <time>2024-08-12T02:56:18Z</time>
      </trkpt>
      <trkpt lat="44.83935" lon="6.47523">
        <ele>1181.4</ele>
        <time>2024-08-12T02:56:19Z</time>
      </trkpt>
      <trkpt lat="44.83933" lon="6.47523">
        <ele>1181.6</ele>
        <time>2024-08-12T02:56:20Z</time>
      </trkpt>
      <trkpt lat="44.83933" lon="6.47523">
        <ele>1181.6</ele>
        <time>2024-08-12T02:56:21Z</time>
      </trkpt>
      <trkpt lat="44.83931" lon="6.47523">
        <ele>1181.6</ele>
        <time>2024-08-12T02:56:22Z</time>
      </trkpt>
      <trkpt lat="44.83929" lon="6.47524">
        <ele>1182</ele>
        <time>2024-08-12T02:56:23Z</time>
      </trkpt>
      <trkpt lat="44.83927" lon="6.47525">
        <ele>1182</ele>
        <time>2024-08-12T02:56:24Z</time>
      </trkpt>
      <trkpt lat="44.83927" lon="6.47525">
        <ele>1182.2</ele>
        <time>2024-08-12T02:56:25Z</time>
      </trkpt>
      <trkpt lat="44.83925" lon="6.47526">
        <ele>1182.2</ele>
        <time>2024-08-12T02:56:26Z</time>
      </trkpt>
      <trkpt lat="44.83923" lon="6.47527">
        <ele>1182.2</ele>
        <time>2024-08-12T02:56:27Z</time>
      </trkpt>
      <trkpt lat="44.83921" lon="6.47527">
        <ele>1182.2</ele>
        <time>2024-08-12T02:56:28Z</time>
      </trkpt>
      <trkpt lat="44.83921" lon="6.47527">
        <ele>1182.2</ele>
        <time>2024-08-12T02:56:29Z</time>
      </trkpt>
      <trkpt lat="44.83917" lon="6.47527">
        <ele>1182.2</ele>
        <time>2024-08-12T02:56:30Z</time>
      </trkpt>
      <trkpt lat="44.83917" lon="6.47527">
        <ele>1182</ele>
        <time>2024-08-12T02:56:31Z</time>
      </trkpt>
      <trkpt lat="44.83914" lon="6.47527">
        <ele>1182</ele>
        <time>2024-08-12T02:56:32Z</time>
      </trkpt>
      <trkpt lat="44.83914" lon="6.47527">
        <ele>1182</ele>
        <time>2024-08-12T02:56:33Z</time>
      </trkpt>
      <trkpt lat="44.83911" lon="6.47527">
        <ele>1181.8</ele>
        <time>2024-08-12T02:56:34Z</time>
      </trkpt>
      <trkpt lat="44.83911" lon="6.47527">
        <ele>1181.8</ele>
        <time>2024-08-12T02:56:35Z</time>
      </trkpt>
      <trkpt lat="44.83909" lon="6.47525">
        <ele>1182</ele>
        <time>2024-08-12T02:56:36Z</time>
      </trkpt>
      <trkpt lat="44.83909" lon="6.47525">
        <ele>1182</ele>
        <time>2024-08-12T02:56:37Z</time>
      </trkpt>
      <trkpt lat="44.83906" lon="6.47524">
        <ele>1182</ele>
        <time>2024-08-12T02:56:38Z</time>
      </trkpt>
      <trkpt lat="44.83906" lon="6.47524">
        <ele>1182</ele>
        <time>2024-08-12T02:56:39Z</time>
      </trkpt>
      <trkpt lat="44.83903" lon="6.47521">
        <ele>1182</ele>
        <time>2024-08-12T02:56:40Z</time>
      </trkpt>
      <trkpt lat="44.83903" lon="6.47521">
        <ele>1182</ele>
        <time>2024-08-12T02:56:41Z</time>
      </trkpt>
      <trkpt lat="44.83903" lon="6.47517">
        <ele>1181.8</ele>
        <time>2024-08-12T02:56:42Z</time>
      </trkpt>
      <trkpt lat="44.83903" lon="6.47517">
        <ele>1181.8</ele>
        <time>2024-08-12T02:56:43Z</time>
      </trkpt>
      <trkpt lat="44.83901" lon="6.47514">
        <ele>1181.8</ele>
        <time>2024-08-12T02:56:44Z</time>
      </trkpt>
      <trkpt lat="44.83901" lon="6.47514">
        <ele>1182</ele>
        <time>2024-08-12T02:56:45Z</time>
      </trkpt>
      <trkpt lat="44.839" lon="6.4751">
        <ele>1182.2</ele>
        <time>2024-08-12T02:56:46Z</time>
      </trkpt>
      <trkpt lat="44.83898" lon="6.47509">
        <ele>1182.2</ele>
        <time>2024-08-12T02:56:47Z</time>
      </trkpt>
      <trkpt lat="44.83898" lon="6.47509">
        <ele>1182.2</ele>
        <time>2024-08-12T02:56:48Z</time>
      </trkpt>
      <trkpt lat="44.83897" lon="6.47506">
        <ele>1182</ele>
        <time>2024-08-12T02:56:49Z</time>
      </trkpt>
      <trkpt lat="44.83897" lon="6.47506">
        <ele>1182</ele>
        <time>2024-08-12T02:56:50Z</time>
      </trkpt>
      <trkpt lat="44.83897" lon="6.47506">
        <ele>1182.2</ele>
        <time>2024-08-12T02:56:51Z</time>
      </trkpt>
      <trkpt lat="44.83897" lon="6.47503">
        <ele>1182.4</ele>
        <time>2024-08-12T02:56:52Z</time>
      </trkpt>
      <trkpt lat="44.83897" lon="6.47503">
        <ele>1182.4</ele>
        <time>2024-08-12T02:56:53Z</time>
      </trkpt>
      <trkpt lat="44.83897" lon="6.47503">
        <ele>1182.4</ele>
        <time>2024-08-12T02:56:54Z</time>
      </trkpt>
      <trkpt lat="44.83897" lon="6.47503">
        <ele>1182.4</ele>
        <time>2024-08-12T02:56:55Z</time>
      </trkpt>
      <trkpt lat="44.83897" lon="6.47503">
        <ele>1182.6</ele>
        <time>2024-08-12T02:56:56Z</time>
      </trkpt>
      <trkpt lat="44.83897" lon="6.47503">
        <ele>1182.6</ele>
        <time>2024-08-12T02:56:57Z</time>
      </trkpt>
      <trkpt lat="44.83897" lon="6.47503">
        <ele>1182.6</ele>
        <time>2024-08-12T02:56:58Z</time>
      </trkpt>
      <trkpt lat="44.83897" lon="6.47503">
        <ele>1182.8</ele>
        <time>2024-08-12T02:56:59Z</time>
      </trkpt>
      <trkpt lat="44.83897" lon="6.47503">
        <ele>1183</ele>
        <time>2024-08-12T02:57:00Z</time>
      </trkpt>
      <trkpt lat="44.83897" lon="6.47503">
        <ele>1183</ele>
        <time>2024-08-12T02:57:01Z</time>
      </trkpt>
      <trkpt lat="44.83897" lon="6.47503">
        <ele>1183</ele>
        <time>2024-08-12T02:57:02Z</time>
      </trkpt>
      <trkpt lat="44.83897" lon="6.47503">
        <ele>1183</ele>
        <time>2024-08-12T02:57:03Z</time>
      </trkpt>
      <trkpt lat="44.83897" lon="6.47503">
        <ele>1183.2</ele>
        <time>2024-08-12T02:57:04Z</time>
      </trkpt>
      <trkpt lat="44.83897" lon="6.47503">
        <ele>1183.2</ele>
        <time>2024-08-12T02:57:05Z</time>
      </trkpt>
      <trkpt lat="44.83897" lon="6.47503">
        <ele>1183.2</ele>
        <time>2024-08-12T02:57:06Z</time>
      </trkpt>
      <trkpt lat="44.83897" lon="6.47503">
        <ele>1183.2</ele>
        <time>2024-08-12T02:57:07Z</time>
      </trkpt>
      <trkpt lat="44.83897" lon="6.47503">
        <ele>1183.2</ele>
        <time>2024-08-12T02:57:08Z</time>
      </trkpt>
      <trkpt lat="44.83897" lon="6.47503">
        <ele>1183.2</ele>
        <time>2024-08-12T02:57:09Z</time>
      </trkpt>
      <trkpt lat="44.83897" lon="6.47503">
        <ele>1183.2</ele>
        <time>2024-08-12T02:57:10Z</time>
      </trkpt>
      <trkpt lat="44.83897" lon="6.47503">
        <ele>1183.2</ele>
        <time>2024-08-12T02:57:11Z</time>
      </trkpt>
      <trkpt lat="44.83897" lon="6.47503">
        <ele>1183.4</ele>
        <time>2024-08-12T02:57:12Z</time>
      </trkpt>
      <trkpt lat="44.83897" lon="6.47503">
        <ele>1183.4</ele>
        <time>2024-08-12T02:57:13Z</time>
      </trkpt>
      <trkpt lat="44.83897" lon="6.47503">
        <ele>1183.4</ele>
        <time>2024-08-12T02:57:14Z</time>
      </trkpt>
      <trkpt lat="44.83897" lon="6.47503">
        <ele>1183.2</ele>
        <time>2024-08-12T02:57:15Z</time>
      </trkpt>
      <trkpt lat="44.83897" lon="6.47503">
        <ele>1183.2</ele>
        <time>2024-08-12T02:57:16Z</time>
      </trkpt>
      <trkpt lat="44.83897" lon="6.47503">
        <ele>1183.2</ele>
        <time>2024-08-12T02:57:17Z</time>
      </trkpt>
      <trkpt lat="44.83897" lon="6.47503">
        <ele>1183.2</ele>
        <time>2024-08-12T02:57:18Z</time>
      </trkpt>
      <trkpt lat="44.83897" lon="6.47503">
        <ele>1183.2</ele>
        <time>2024-08-12T02:57:19Z</time>
      </trkpt>
      <trkpt lat="44.83897" lon="6.47503">
        <ele>1183.2</ele>
        <time>2024-08-12T02:57:20Z</time>
      </trkpt>
      <trkpt lat="44.83897" lon="6.47503">
        <ele>1183.2</ele>
        <time>2024-08-12T02:57:21Z</time>
      </trkpt>
      <trkpt lat="44.83897" lon="6.47503">
        <ele>1183.2</ele>
        <time>2024-08-12T02:57:22Z</time>
      </trkpt>
      <trkpt lat="44.83899" lon="6.47501">
        <ele>1183.2</ele>
        <time>2024-08-12T02:57:23Z</time>
      </trkpt>
      <trkpt lat="44.83899" lon="6.47501">
        <ele>1183.2</ele>
        <time>2024-08-12T02:57:24Z</time>
      </trkpt>
      <trkpt lat="44.83901" lon="6.47497">
        <ele>1183.2</ele>
        <time>2024-08-12T02:57:25Z</time>
      </trkpt>
      <trkpt lat="44.83901" lon="6.47494">
        <ele>1183.2</ele>
        <time>2024-08-12T02:57:26Z</time>
      </trkpt>
      <trkpt lat="44.83902" lon="6.47491">
        <ele>1183</ele>
        <time>2024-08-12T02:57:27Z</time>
      </trkpt>
      <trkpt lat="44.83902" lon="6.47488">
        <ele>1183</ele>
        <time>2024-08-12T02:57:28Z</time>
      </trkpt>
      <trkpt lat="44.83902" lon="6.47486">
        <ele>1183</ele>
        <time>2024-08-12T02:57:29Z</time>
      </trkpt>
      <trkpt lat="44.83902" lon="6.47486">
        <ele>1183</ele>
        <time>2024-08-12T02:57:30Z</time>
      </trkpt>
      <trkpt lat="44.83902" lon="6.47481">
        <ele>1183</ele>
        <time>2024-08-12T02:57:31Z</time>
      </trkpt>
      <trkpt lat="44.83902" lon="6.47481">
        <ele>1183.2</ele>
        <time>2024-08-12T02:57:32Z</time>
      </trkpt>
      <trkpt lat="44.83903" lon="6.47477">
        <ele>1183.2</ele>
        <time>2024-08-12T02:57:33Z</time>
      </trkpt>
      <trkpt lat="44.83903" lon="6.47477">
        <ele>1183.4</ele>
        <time>2024-08-12T02:57:34Z</time>
      </trkpt>
      <trkpt lat="44.83903" lon="6.47473">
        <ele>1183.4</ele>
        <time>2024-08-12T02:57:35Z</time>
      </trkpt>
      <trkpt lat="44.83903" lon="6.47473">
        <ele>1183.6</ele>
        <time>2024-08-12T02:57:36Z</time>
      </trkpt>
      <trkpt lat="44.83902" lon="6.4747">
        <ele>1183.8</ele>
        <time>2024-08-12T02:57:37Z</time>
      </trkpt>
      <trkpt lat="44.83902" lon="6.4747">
        <ele>1183.8</ele>
        <time>2024-08-12T02:57:38Z</time>
      </trkpt>
      <trkpt lat="44.83902" lon="6.47467">
        <ele>1184</ele>
        <time>2024-08-12T02:57:39Z</time>
      </trkpt>
      <trkpt lat="44.83902" lon="6.47467">
        <ele>1184.2</ele>
        <time>2024-08-12T02:57:40Z</time>
      </trkpt>
      <trkpt lat="44.83901" lon="6.47464">
        <ele>1184.2</ele>
        <time>2024-08-12T02:57:41Z</time>
      </trkpt>
      <trkpt lat="44.83901" lon="6.47464">
        <ele>1184.4</ele>
        <time>2024-08-12T02:57:42Z</time>
      </trkpt>
      <trkpt lat="44.83901" lon="6.47461">
        <ele>1184.4</ele>
        <time>2024-08-12T02:57:43Z</time>
      </trkpt>
      <trkpt lat="44.83901" lon="6.47461">
        <ele>1184.4</ele>
        <time>2024-08-12T02:57:44Z</time>
      </trkpt>
      <trkpt lat="44.839" lon="6.47457">
        <ele>1184.4</ele>
        <time>2024-08-12T02:57:45Z</time>
      </trkpt>
      <trkpt lat="44.83899" lon="6.47455">
        <ele>1184.4</ele>
        <time>2024-08-12T02:57:46Z</time>
      </trkpt>
      <trkpt lat="44.83899" lon="6.47455">
        <ele>1184.6</ele>
        <time>2024-08-12T02:57:47Z</time>
      </trkpt>
      <trkpt lat="44.83898" lon="6.47451">
        <ele>1184.6</ele>
        <time>2024-08-12T02:57:48Z</time>
      </trkpt>
      <trkpt lat="44.83898" lon="6.47451">
        <ele>1184.6</ele>
        <time>2024-08-12T02:57:49Z</time>
      </trkpt>
      <trkpt lat="44.83897" lon="6.47447">
        <ele>1185</ele>
        <time>2024-08-12T02:57:50Z</time>
      </trkpt>
      <trkpt lat="44.83897" lon="6.47447">
        <ele>1185</ele>
        <time>2024-08-12T02:57:51Z</time>
      </trkpt>
      <trkpt lat="44.83896" lon="6.47443">
        <ele>1185.2</ele>
        <time>2024-08-12T02:57:52Z</time>
      </trkpt>
      <trkpt lat="44.83896" lon="6.47443">
        <ele>1185.2</ele>
        <time>2024-08-12T02:57:53Z</time>
      </trkpt>
      <trkpt lat="44.83895" lon="6.4744">
        <ele>1185.2</ele>
        <time>2024-08-12T02:57:54Z</time>
      </trkpt>
      <trkpt lat="44.83895" lon="6.4744">
        <ele>1185.4</ele>
        <time>2024-08-12T02:57:55Z</time>
      </trkpt>
      <trkpt lat="44.83895" lon="6.47437">
        <ele>1185.4</ele>
        <time>2024-08-12T02:57:56Z</time>
      </trkpt>
      <trkpt lat="44.83895" lon="6.47437">
        <ele>1185.4</ele>
        <time>2024-08-12T02:57:57Z</time>
      </trkpt>
      <trkpt lat="44.83895" lon="6.47433">
        <ele>1185.4</ele>
        <time>2024-08-12T02:57:58Z</time>
      </trkpt>
      <trkpt lat="44.83895" lon="6.47433">
        <ele>1185.4</ele>
        <time>2024-08-12T02:57:59Z</time>
      </trkpt>
      <trkpt lat="44.83896" lon="6.47429">
        <ele>1185.2</ele>
        <time>2024-08-12T02:58:00Z</time>
      </trkpt>
      <trkpt lat="44.83896" lon="6.47429">
        <ele>1185.2</ele>
        <time>2024-08-12T02:58:01Z</time>
      </trkpt>
      <trkpt lat="44.83897" lon="6.47425">
        <ele>1185.2</ele>
        <time>2024-08-12T02:58:02Z</time>
      </trkpt>
      <trkpt lat="44.83897" lon="6.47425">
        <ele>1185.2</ele>
        <time>2024-08-12T02:58:03Z</time>
      </trkpt>
      <trkpt lat="44.83897" lon="6.4742">
        <ele>1185.2</ele>
        <time>2024-08-12T02:58:04Z</time>
      </trkpt>
      <trkpt lat="44.83896" lon="6.47417">
        <ele>1185.2</ele>
        <time>2024-08-12T02:58:05Z</time>
      </trkpt>
      <trkpt lat="44.83897" lon="6.47414">
        <ele>1185.2</ele>
        <time>2024-08-12T02:58:06Z</time>
      </trkpt>
      <trkpt lat="44.83897" lon="6.47411">
        <ele>1185.2</ele>
        <time>2024-08-12T02:58:07Z</time>
      </trkpt>
      <trkpt lat="44.83897" lon="6.47408">
        <ele>1185.4</ele>
        <time>2024-08-12T02:58:08Z</time>
      </trkpt>
      <trkpt lat="44.83897" lon="6.47405">
        <ele>1185.6</ele>
        <time>2024-08-12T02:58:09Z</time>
      </trkpt>
      <trkpt lat="44.83896" lon="6.47403">
        <ele>1185.6</ele>
        <time>2024-08-12T02:58:10Z</time>
      </trkpt>
      <trkpt lat="44.83895" lon="6.474">
        <ele>1185.8</ele>
        <time>2024-08-12T02:58:11Z</time>
      </trkpt>
      <trkpt lat="44.83895" lon="6.474">
        <ele>1185.8</ele>
        <time>2024-08-12T02:58:12Z</time>
      </trkpt>
      <trkpt lat="44.83895" lon="6.47396">
        <ele>1185.8</ele>
        <time>2024-08-12T02:58:13Z</time>
      </trkpt>
      <trkpt lat="44.83895" lon="6.47396">
        <ele>1185.6</ele>
        <time>2024-08-12T02:58:14Z</time>
      </trkpt>
      <trkpt lat="44.83895" lon="6.47392">
        <ele>1185.4</ele>
        <time>2024-08-12T02:58:15Z</time>
      </trkpt>
      <trkpt lat="44.83895" lon="6.47392">
        <ele>1185.4</ele>
        <time>2024-08-12T02:58:16Z</time>
      </trkpt>
      <trkpt lat="44.83895" lon="6.47389">
        <ele>1185.4</ele>
        <time>2024-08-12T02:58:17Z</time>
      </trkpt>
      <trkpt lat="44.83895" lon="6.47389">
        <ele>1185.6</ele>
        <time>2024-08-12T02:58:18Z</time>
      </trkpt>
      <trkpt lat="44.83895" lon="6.47386">
        <ele>1185.6</ele>
        <time>2024-08-12T02:58:19Z</time>
      </trkpt>
      <trkpt lat="44.83895" lon="6.47386">
        <ele>1185.6</ele>
        <time>2024-08-12T02:58:20Z</time>
      </trkpt>
      <trkpt lat="44.83895" lon="6.47383">
        <ele>1185.6</ele>
        <time>2024-08-12T02:58:21Z</time>
      </trkpt>
      <trkpt lat="44.83895" lon="6.47383">
        <ele>1185.6</ele>
        <time>2024-08-12T02:58:22Z</time>
      </trkpt>
      <trkpt lat="44.83895" lon="6.47379">
        <ele>1185.8</ele>
        <time>2024-08-12T02:58:23Z</time>
      </trkpt>
      <trkpt lat="44.83895" lon="6.47379">
        <ele>1186</ele>
        <time>2024-08-12T02:58:24Z</time>
      </trkpt>
      <trkpt lat="44.83895" lon="6.47376">
        <ele>1186</ele>
        <time>2024-08-12T02:58:25Z</time>
      </trkpt>
      <trkpt lat="44.83895" lon="6.47376">
        <ele>1186</ele>
        <time>2024-08-12T02:58:26Z</time>
      </trkpt>
      <trkpt lat="44.83895" lon="6.47373">
        <ele>1186</ele>
        <time>2024-08-12T02:58:27Z</time>
      </trkpt>
      <trkpt lat="44.83895" lon="6.47373">
        <ele>1186</ele>
        <time>2024-08-12T02:58:28Z</time>
      </trkpt>
      <trkpt lat="44.83895" lon="6.47369">
        <ele>1186.2</ele>
        <time>2024-08-12T02:58:29Z</time>
      </trkpt>
      <trkpt lat="44.83895" lon="6.47369">
        <ele>1186.2</ele>
        <time>2024-08-12T02:58:30Z</time>
      </trkpt>
      <trkpt lat="44.83894" lon="6.47364">
        <ele>1186.2</ele>
        <time>2024-08-12T02:58:31Z</time>
      </trkpt>
      <trkpt lat="44.83894" lon="6.47364">
        <ele>1186.4</ele>
        <time>2024-08-12T02:58:32Z</time>
      </trkpt>
      <trkpt lat="44.83893" lon="6.4736">
        <ele>1186.4</ele>
        <time>2024-08-12T02:58:33Z</time>
      </trkpt>
      <trkpt lat="44.83893" lon="6.4736">
        <ele>1186.4</ele>
        <time>2024-08-12T02:58:34Z</time>
      </trkpt>
      <trkpt lat="44.83893" lon="6.47355">
        <ele>1186.4</ele>
        <time>2024-08-12T02:58:35Z</time>
      </trkpt>
      <trkpt lat="44.83894" lon="6.47352">
        <ele>1186.4</ele>
        <time>2024-08-12T02:58:36Z</time>
      </trkpt>
      <trkpt lat="44.83894" lon="6.47349">
        <ele>1186.4</ele>
        <time>2024-08-12T02:58:37Z</time>
      </trkpt>
      <trkpt lat="44.83894" lon="6.47349">
        <ele>1186.4</ele>
        <time>2024-08-12T02:58:38Z</time>
      </trkpt>
      <trkpt lat="44.83895" lon="6.47345">
        <ele>1186.6</ele>
        <time>2024-08-12T02:58:39Z</time>
      </trkpt>
      <trkpt lat="44.83894" lon="6.47342">
        <ele>1186.6</ele>
        <time>2024-08-12T02:58:40Z</time>
      </trkpt>
      <trkpt lat="44.83894" lon="6.47342">
        <ele>1186.6</ele>
        <time>2024-08-12T02:58:41Z</time>
      </trkpt>
      <trkpt lat="44.83894" lon="6.47337">
        <ele>1186.6</ele>
        <time>2024-08-12T02:58:42Z</time>
      </trkpt>
      <trkpt lat="44.83894" lon="6.47337">
        <ele>1186.6</ele>
        <time>2024-08-12T02:58:43Z</time>
      </trkpt>
      <trkpt lat="44.83895" lon="6.47334">
        <ele>1186.6</ele>
        <time>2024-08-12T02:58:44Z</time>
      </trkpt>
      <trkpt lat="44.83895" lon="6.47334">
        <ele>1186.8</ele>
        <time>2024-08-12T02:58:45Z</time>
      </trkpt>
      <trkpt lat="44.83895" lon="6.4733">
        <ele>1186.8</ele>
        <time>2024-08-12T02:58:46Z</time>
      </trkpt>
      <trkpt lat="44.83895" lon="6.4733">
        <ele>1187</ele>
        <time>2024-08-12T02:58:47Z</time>
      </trkpt>
      <trkpt lat="44.83897" lon="6.47327">
        <ele>1187</ele>
        <time>2024-08-12T02:58:48Z</time>
      </trkpt>
      <trkpt lat="44.83897" lon="6.47327">
        <ele>1187</ele>
        <time>2024-08-12T02:58:49Z</time>
      </trkpt>
      <trkpt lat="44.83898" lon="6.47324">
        <ele>1187</ele>
        <time>2024-08-12T02:58:50Z</time>
      </trkpt>
      <trkpt lat="44.83898" lon="6.47324">
        <ele>1187</ele>
        <time>2024-08-12T02:58:51Z</time>
      </trkpt>
      <trkpt lat="44.83898" lon="6.4732">
        <ele>1187</ele>
        <time>2024-08-12T02:58:52Z</time>
      </trkpt>
      <trkpt lat="44.83898" lon="6.4732">
        <ele>1187</ele>
        <time>2024-08-12T02:58:53Z</time>
      </trkpt>
      <trkpt lat="44.83899" lon="6.47316">
        <ele>1187.2</ele>
        <time>2024-08-12T02:58:54Z</time>
      </trkpt>
      <trkpt lat="44.83899" lon="6.47316">
        <ele>1187.2</ele>
        <time>2024-08-12T02:58:55Z</time>
      </trkpt>
      <trkpt lat="44.83899" lon="6.47311">
        <ele>1187.2</ele>
        <time>2024-08-12T02:58:56Z</time>
      </trkpt>
      <trkpt lat="44.83899" lon="6.47311">
        <ele>1187.2</ele>
        <time>2024-08-12T02:58:57Z</time>
      </trkpt>
      <trkpt lat="44.839" lon="6.47306">
        <ele>1187.2</ele>
        <time>2024-08-12T02:58:58Z</time>
      </trkpt>
      <trkpt lat="44.839" lon="6.47306">
        <ele>1187.2</ele>
        <time>2024-08-12T02:58:59Z</time>
      </trkpt>
      <trkpt lat="44.839" lon="6.47303">
        <ele>1187.4</ele>
        <time>2024-08-12T02:59:00Z</time>
      </trkpt>
      <trkpt lat="44.839" lon="6.47303">
        <ele>1187.4</ele>
        <time>2024-08-12T02:59:01Z</time>
      </trkpt>
      <trkpt lat="44.839" lon="6.47299">
        <ele>1187.4</ele>
        <time>2024-08-12T02:59:02Z</time>
      </trkpt>
      <trkpt lat="44.839" lon="6.47299">
        <ele>1187.4</ele>
        <time>2024-08-12T02:59:03Z</time>
      </trkpt>
      <trkpt lat="44.839" lon="6.47299">
        <ele>1187.4</ele>
        <time>2024-08-12T02:59:04Z</time>
      </trkpt>
      <trkpt lat="44.839" lon="6.47296">
        <ele>1187.4</ele>
        <time>2024-08-12T02:59:05Z</time>
      </trkpt>
      <trkpt lat="44.839" lon="6.47296">
        <ele>1187.2</ele>
        <time>2024-08-12T02:59:06Z</time>
      </trkpt>
      <trkpt lat="44.83901" lon="6.47293">
        <ele>1187.2</ele>
        <time>2024-08-12T02:59:07Z</time>
      </trkpt>
      <trkpt lat="44.83901" lon="6.47293">
        <ele>1187.4</ele>
        <time>2024-08-12T02:59:08Z</time>
      </trkpt>
      <trkpt lat="44.83902" lon="6.4729">
        <ele>1187.4</ele>
        <time>2024-08-12T02:59:09Z</time>
      </trkpt>
      <trkpt lat="44.83902" lon="6.4729">
        <ele>1187.6</ele>
        <time>2024-08-12T02:59:10Z</time>
      </trkpt>
      <trkpt lat="44.83901" lon="6.47287">
        <ele>1187.6</ele>
        <time>2024-08-12T02:59:11Z</time>
      </trkpt>
      <trkpt lat="44.83901" lon="6.47287">
        <ele>1188</ele>
        <time>2024-08-12T02:59:12Z</time>
      </trkpt>
      <trkpt lat="44.83899" lon="6.47284">
        <ele>1188</ele>
        <time>2024-08-12T02:59:13Z</time>
      </trkpt>
      <trkpt lat="44.83899" lon="6.47284">
        <ele>1187.8</ele>
        <time>2024-08-12T02:59:14Z</time>
      </trkpt>
      <trkpt lat="44.83899" lon="6.4728">
        <ele>1187.8</ele>
        <time>2024-08-12T02:59:15Z</time>
      </trkpt>
      <trkpt lat="44.83899" lon="6.4728">
        <ele>1187.8</ele>
        <time>2024-08-12T02:59:16Z</time>
      </trkpt>
      <trkpt lat="44.83898" lon="6.47277">
        <ele>1187.8</ele>
        <time>2024-08-12T02:59:17Z</time>
      </trkpt>
      <trkpt lat="44.83898" lon="6.47277">
        <ele>1188</ele>
        <time>2024-08-12T02:59:18Z</time>
      </trkpt>
      <trkpt lat="44.83897" lon="6.47273">
        <ele>1188</ele>
        <time>2024-08-12T02:59:19Z</time>
      </trkpt>
      <trkpt lat="44.83897" lon="6.47273">
        <ele>1188</ele>
        <time>2024-08-12T02:59:20Z</time>
      </trkpt>
      <trkpt lat="44.83896" lon="6.47269">
        <ele>1188</ele>
        <time>2024-08-12T02:59:21Z</time>
      </trkpt>
      <trkpt lat="44.83896" lon="6.47269">
        <ele>1188.2</ele>
        <time>2024-08-12T02:59:22Z</time>
      </trkpt>
      <trkpt lat="44.83896" lon="6.47266">
        <ele>1188.2</ele>
        <time>2024-08-12T02:59:23Z</time>
      </trkpt>
      <trkpt lat="44.83896" lon="6.47266">
        <ele>1188</ele>
        <time>2024-08-12T02:59:24Z</time>
      </trkpt>
      <trkpt lat="44.83895" lon="6.47263">
        <ele>1188</ele>
        <time>2024-08-12T02:59:25Z</time>
      </trkpt>
      <trkpt lat="44.83895" lon="6.47263">
        <ele>1188</ele>
        <time>2024-08-12T02:59:26Z</time>
      </trkpt>
      <trkpt lat="44.83895" lon="6.4726">
        <ele>1188.2</ele>
        <time>2024-08-12T02:59:27Z</time>
      </trkpt>
      <trkpt lat="44.83895" lon="6.4726">
        <ele>1188.2</ele>
        <time>2024-08-12T02:59:28Z</time>
      </trkpt>
      <trkpt lat="44.83895" lon="6.47256">
        <ele>1188.2</ele>
        <time>2024-08-12T02:59:29Z</time>
      </trkpt>
      <trkpt lat="44.83895" lon="6.47256">
        <ele>1188</ele>
        <time>2024-08-12T02:59:30Z</time>
      </trkpt>
      <trkpt lat="44.83895" lon="6.47252">
        <ele>1188</ele>
        <time>2024-08-12T02:59:31Z</time>
      </trkpt>
      <trkpt lat="44.83895" lon="6.47252">
        <ele>1188</ele>
        <time>2024-08-12T02:59:32Z</time>
      </trkpt>
      <trkpt lat="44.83896" lon="6.47247">
        <ele>1188.2</ele>
        <time>2024-08-12T02:59:33Z</time>
      </trkpt>
      <trkpt lat="44.83896" lon="6.47247">
        <ele>1188</ele>
        <time>2024-08-12T02:59:34Z</time>
      </trkpt>
      <trkpt lat="44.83896" lon="6.47243">
        <ele>1188</ele>
        <time>2024-08-12T02:59:35Z</time>
      </trkpt>
      <trkpt lat="44.83896" lon="6.47243">
        <ele>1188</ele>
        <time>2024-08-12T02:59:36Z</time>
      </trkpt>
      <trkpt lat="44.83897" lon="6.47238">
        <ele>1188.2</ele>
        <time>2024-08-12T02:59:37Z</time>
      </trkpt>
      <trkpt lat="44.83897" lon="6.47238">
        <ele>1188.6</ele>
        <time>2024-08-12T02:59:38Z</time>
      </trkpt>
      <trkpt lat="44.83899" lon="6.47235">
        <ele>1188.6</ele>
        <time>2024-08-12T02:59:39Z</time>
      </trkpt>
      <trkpt lat="44.83899" lon="6.47235">
        <ele>1188.6</ele>
        <time>2024-08-12T02:59:40Z</time>
      </trkpt>
      <trkpt lat="44.83899" lon="6.47231">
        <ele>1188.4</ele>
        <time>2024-08-12T02:59:41Z</time>
      </trkpt>
      <trkpt lat="44.83899" lon="6.47231">
        <ele>1188.4</ele>
        <time>2024-08-12T02:59:42Z</time>
      </trkpt>
      <trkpt lat="44.83899" lon="6.47226">
        <ele>1188.6</ele>
        <time>2024-08-12T02:59:43Z</time>
      </trkpt>
      <trkpt lat="44.83899" lon="6.47224">
        <ele>1188.6</ele>
        <time>2024-08-12T02:59:44Z</time>
      </trkpt>
      <trkpt lat="44.839" lon="6.47221">
        <ele>1188.6</ele>
        <time>2024-08-12T02:59:45Z</time>
      </trkpt>
      <trkpt lat="44.83901" lon="6.47218">
        <ele>1188.8</ele>
        <time>2024-08-12T02:59:46Z</time>
      </trkpt>
      <trkpt lat="44.83901" lon="6.47216">
        <ele>1188.8</ele>
        <time>2024-08-12T02:59:47Z</time>
      </trkpt>
      <trkpt lat="44.83901" lon="6.47216">
        <ele>1189</ele>
        <time>2024-08-12T02:59:48Z</time>
      </trkpt>
      <trkpt lat="44.83902" lon="6.47212">
        <ele>1189.2</ele>
        <time>2024-08-12T02:59:49Z</time>
      </trkpt>
      <trkpt lat="44.83902" lon="6.47212">
        <ele>1189.2</ele>
        <time>2024-08-12T02:59:50Z</time>
      </trkpt>
      <trkpt lat="44.83903" lon="6.47207">
        <ele>1189.2</ele>
        <time>2024-08-12T02:59:51Z</time>
      </trkpt>
      <trkpt lat="44.83903" lon="6.47207">
        <ele>1189.4</ele>
        <time>2024-08-12T02:59:52Z</time>
      </trkpt>
      <trkpt lat="44.83903" lon="6.47202">
        <ele>1189.4</ele>
        <time>2024-08-12T02:59:53Z</time>
      </trkpt>
      <trkpt lat="44.83903" lon="6.47202">
        <ele>1189.4</ele>
        <time>2024-08-12T02:59:54Z</time>
      </trkpt>
      <trkpt lat="44.83902" lon="6.47198">
        <ele>1189.4</ele>
        <time>2024-08-12T02:59:55Z</time>
      </trkpt>
      <trkpt lat="44.83902" lon="6.47198">
        <ele>1189.6</ele>
        <time>2024-08-12T02:59:56Z</time>
      </trkpt>
      <trkpt lat="44.83902" lon="6.47194">
        <ele>1189.6</ele>
        <time>2024-08-12T02:59:57Z</time>
      </trkpt>
      <trkpt lat="44.83902" lon="6.47194">
        <ele>1189.6</ele>
        <time>2024-08-12T02:59:58Z</time>
      </trkpt>
      <trkpt lat="44.83904" lon="6.4719">
        <ele>1189.8</ele>
        <time>2024-08-12T02:59:59Z</time>
      </trkpt>
      <trkpt lat="44.83904" lon="6.47188">
        <ele>1189.8</ele>
        <time>2024-08-12T03:00:01Z</time>
      </trkpt>
      <trkpt lat="44.83904" lon="6.47187">
        <ele>1190</ele>
        <time>2024-08-12T03:00:02Z</time>
      </trkpt>
      <trkpt lat="44.83903" lon="6.47184">
        <ele>1190</ele>
        <time>2024-08-12T03:00:03Z</time>
      </trkpt>
      <trkpt lat="44.83903" lon="6.47184">
        <ele>1190</ele>
        <time>2024-08-12T03:00:04Z</time>
      </trkpt>
      <trkpt lat="44.83904" lon="6.47181">
        <ele>1190</ele>
        <time>2024-08-12T03:00:05Z</time>
      </trkpt>
      <trkpt lat="44.83904" lon="6.47181">
        <ele>1190</ele>
        <time>2024-08-12T03:00:06Z</time>
      </trkpt>
      <trkpt lat="44.83903" lon="6.47177">
        <ele>1190.2</ele>
        <time>2024-08-12T03:00:07Z</time>
      </trkpt>
      <trkpt lat="44.83903" lon="6.47177">
        <ele>1190.2</ele>
        <time>2024-08-12T03:00:08Z</time>
      </trkpt>
      <trkpt lat="44.83904" lon="6.47173">
        <ele>1190.2</ele>
        <time>2024-08-12T03:00:09Z</time>
      </trkpt>
      <trkpt lat="44.83904" lon="6.47173">
        <ele>1190.2</ele>
        <time>2024-08-12T03:00:10Z</time>
      </trkpt>
      <trkpt lat="44.83906" lon="6.47169">
        <ele>1190.2</ele>
        <time>2024-08-12T03:00:11Z</time>
      </trkpt>
      <trkpt lat="44.83906" lon="6.47169">
        <ele>1190</ele>
        <time>2024-08-12T03:00:12Z</time>
      </trkpt>
      <trkpt lat="44.83905" lon="6.47166">
        <ele>1189.8</ele>
        <time>2024-08-12T03:00:13Z</time>
      </trkpt>
      <trkpt lat="44.83905" lon="6.47162">
        <ele>1189.8</ele>
        <time>2024-08-12T03:00:14Z</time>
      </trkpt>
      <trkpt lat="44.83905" lon="6.47159">
        <ele>1190</ele>
        <time>2024-08-12T03:00:15Z</time>
      </trkpt>
      <trkpt lat="44.83905" lon="6.47156">
        <ele>1190</ele>
        <time>2024-08-12T03:00:16Z</time>
      </trkpt>
      <trkpt lat="44.83906" lon="6.47155">
        <ele>1189.8</ele>
        <time>2024-08-12T03:00:17Z</time>
      </trkpt>
      <trkpt lat="44.83906" lon="6.47153">
        <ele>1190</ele>
        <time>2024-08-12T03:00:18Z</time>
      </trkpt>
      <trkpt lat="44.83906" lon="6.47152">
        <ele>1190.2</ele>
        <time>2024-08-12T03:00:19Z</time>
      </trkpt>
      <trkpt lat="44.83907" lon="6.47148">
        <ele>1190.2</ele>
        <time>2024-08-12T03:00:20Z</time>
      </trkpt>
      <trkpt lat="44.83907" lon="6.47148">
        <ele>1190.2</ele>
        <time>2024-08-12T03:00:21Z</time>
      </trkpt>
      <trkpt lat="44.83907" lon="6.47144">
        <ele>1190.2</ele>
        <time>2024-08-12T03:00:22Z</time>
      </trkpt>
      <trkpt lat="44.83907" lon="6.47144">
        <ele>1190.2</ele>
        <time>2024-08-12T03:00:23Z</time>
      </trkpt>
      <trkpt lat="44.83908" lon="6.47139">
        <ele>1190.4</ele>
        <time>2024-08-12T03:00:24Z</time>
      </trkpt>
      <trkpt lat="44.83908" lon="6.47139">
        <ele>1190.4</ele>
        <time>2024-08-12T03:00:25Z</time>
      </trkpt>
      <trkpt lat="44.83909" lon="6.47134">
        <ele>1190.2</ele>
        <time>2024-08-12T03:00:26Z</time>
      </trkpt>
      <trkpt lat="44.8391" lon="6.47132">
        <ele>1190.2</ele>
        <time>2024-08-12T03:00:27Z</time>
      </trkpt>
      <trkpt lat="44.8391" lon="6.47129">
        <ele>1190.2</ele>
        <time>2024-08-12T03:00:28Z</time>
      </trkpt>
      <trkpt lat="44.8391" lon="6.47129">
        <ele>1190.4</ele>
        <time>2024-08-12T03:00:29Z</time>
      </trkpt>
      <trkpt lat="44.83912" lon="6.47126">
        <ele>1190.4</ele>
        <time>2024-08-12T03:00:30Z</time>
      </trkpt>
      <trkpt lat="44.83912" lon="6.47126">
        <ele>1190.4</ele>
        <time>2024-08-12T03:00:31Z</time>
      </trkpt>
      <trkpt lat="44.83913" lon="6.47123">
        <ele>1190.4</ele>
        <time>2024-08-12T03:00:32Z</time>
      </trkpt>
      <trkpt lat="44.83913" lon="6.47123">
        <ele>1190.2</ele>
        <time>2024-08-12T03:00:33Z</time>
      </trkpt>
      <trkpt lat="44.83914" lon="6.47121">
        <ele>1190.2</ele>
        <time>2024-08-12T03:00:34Z</time>
      </trkpt>
      <trkpt lat="44.83914" lon="6.47121">
        <ele>1190.4</ele>
        <time>2024-08-12T03:00:35Z</time>
      </trkpt>
      <trkpt lat="44.83914" lon="6.47121">
        <ele>1190.4</ele>
        <time>2024-08-12T03:00:36Z</time>
      </trkpt>
      <trkpt lat="44.83912" lon="6.47118">
        <ele>1190.2</ele>
        <time>2024-08-12T03:00:37Z</time>
      </trkpt>
      <trkpt lat="44.83912" lon="6.47118">
        <ele>1190.2</ele>
        <time>2024-08-12T03:00:38Z</time>
      </trkpt>
      <trkpt lat="44.83911" lon="6.47115">
        <ele>1190.2</ele>
        <time>2024-08-12T03:00:39Z</time>
      </trkpt>
      <trkpt lat="44.83911" lon="6.47115">
        <ele>1190.2</ele>
        <time>2024-08-12T03:00:40Z</time>
      </trkpt>
      <trkpt lat="44.8391" lon="6.47112">
        <ele>1190.4</ele>
        <time>2024-08-12T03:00:41Z</time>
      </trkpt>
      <trkpt lat="44.8391" lon="6.47112">
        <ele>1190.4</ele>
        <time>2024-08-12T03:00:42Z</time>
      </trkpt>
      <trkpt lat="44.83909" lon="6.47108">
        <ele>1190.4</ele>
        <time>2024-08-12T03:00:43Z</time>
      </trkpt>
      <trkpt lat="44.83909" lon="6.47108">
        <ele>1190.4</ele>
        <time>2024-08-12T03:00:44Z</time>
      </trkpt>
      <trkpt lat="44.83909" lon="6.47108">
        <ele>1190.4</ele>
        <time>2024-08-12T03:00:45Z</time>
      </trkpt>
      <trkpt lat="44.83907" lon="6.47105">
        <ele>1190.6</ele>
        <time>2024-08-12T03:00:46Z</time>
      </trkpt>
      <trkpt lat="44.83907" lon="6.47105">
        <ele>1190.6</ele>
        <time>2024-08-12T03:00:47Z</time>
      </trkpt>
      <trkpt lat="44.83907" lon="6.47105">
        <ele>1190.6</ele>
        <time>2024-08-12T03:00:48Z</time>
      </trkpt>
      <trkpt lat="44.83906" lon="6.47102">
        <ele>1190.8</ele>
        <time>2024-08-12T03:00:49Z</time>
      </trkpt>
      <trkpt lat="44.83906" lon="6.47102">
        <ele>1190.8</ele>
        <time>2024-08-12T03:00:50Z</time>
      </trkpt>
      <trkpt lat="44.83907" lon="6.47098">
        <ele>1190.8</ele>
        <time>2024-08-12T03:00:51Z</time>
      </trkpt>
      <trkpt lat="44.83907" lon="6.47098">
        <ele>1190.8</ele>
        <time>2024-08-12T03:00:52Z</time>
      </trkpt>
      <trkpt lat="44.83906" lon="6.47096">
        <ele>1190.8</ele>
        <time>2024-08-12T03:00:53Z</time>
      </trkpt>
      <trkpt lat="44.83906" lon="6.47096">
        <ele>1191</ele>
        <time>2024-08-12T03:00:54Z</time>
      </trkpt>
      <trkpt lat="44.83906" lon="6.47092">
        <ele>1191</ele>
        <time>2024-08-12T03:00:55Z</time>
      </trkpt>
      <trkpt lat="44.83906" lon="6.47092">
        <ele>1191</ele>
        <time>2024-08-12T03:00:56Z</time>
      </trkpt>
      <trkpt lat="44.83906" lon="6.47087">
        <ele>1191</ele>
        <time>2024-08-12T03:00:57Z</time>
      </trkpt>
      <trkpt lat="44.83906" lon="6.47087">
        <ele>1191</ele>
        <time>2024-08-12T03:00:58Z</time>
      </trkpt>
      <trkpt lat="44.83906" lon="6.47084">
        <ele>1191.2</ele>
        <time>2024-08-12T03:00:59Z</time>
      </trkpt>
      <trkpt lat="44.83906" lon="6.47084">
        <ele>1191.2</ele>
        <time>2024-08-12T03:01:00Z</time>
      </trkpt>
      <trkpt lat="44.83905" lon="6.4708">
        <ele>1191.4</ele>
        <time>2024-08-12T03:01:01Z</time>
      </trkpt>
      <trkpt lat="44.83905" lon="6.4708">
        <ele>1191.6</ele>
        <time>2024-08-12T03:01:02Z</time>
      </trkpt>
      <trkpt lat="44.83904" lon="6.47077">
        <ele>1191.6</ele>
        <time>2024-08-12T03:01:03Z</time>
      </trkpt>
      <trkpt lat="44.83904" lon="6.47077">
        <ele>1191.6</ele>
        <time>2024-08-12T03:01:04Z</time>
      </trkpt>
      <trkpt lat="44.83904" lon="6.47074">
        <ele>1191.8</ele>
        <time>2024-08-12T03:01:05Z</time>
      </trkpt>
      <trkpt lat="44.83904" lon="6.47074">
        <ele>1191.8</ele>
        <time>2024-08-12T03:01:06Z</time>
      </trkpt>
      <trkpt lat="44.83904" lon="6.47069">
        <ele>1192</ele>
        <time>2024-08-12T03:01:07Z</time>
      </trkpt>
      <trkpt lat="44.83904" lon="6.47069">
        <ele>1192</ele>
        <time>2024-08-12T03:01:08Z</time>
      </trkpt>
      <trkpt lat="44.83904" lon="6.47063">
        <ele>1192.2</ele>
        <time>2024-08-12T03:01:09Z</time>
      </trkpt>
      <trkpt lat="44.83905" lon="6.4706">
        <ele>1192.2</ele>
        <time>2024-08-12T03:01:10Z</time>
      </trkpt>
      <trkpt lat="44.83905" lon="6.47057">
        <ele>1192.2</ele>
        <time>2024-08-12T03:01:11Z</time>
      </trkpt>
      <trkpt lat="44.83905" lon="6.47057">
        <ele>1192.2</ele>
        <time>2024-08-12T03:01:12Z</time>
      </trkpt>
      <trkpt lat="44.83904" lon="6.47054">
        <ele>1192.2</ele>
        <time>2024-08-12T03:01:13Z</time>
      </trkpt>
      <trkpt lat="44.83904" lon="6.47054">
        <ele>1192.4</ele>
        <time>2024-08-12T03:01:14Z</time>
      </trkpt>
      <trkpt lat="44.83902" lon="6.4705">
        <ele>1192.4</ele>
        <time>2024-08-12T03:01:15Z</time>
      </trkpt>
      <trkpt lat="44.83902" lon="6.4705">
        <ele>1192.8</ele>
        <time>2024-08-12T03:01:16Z</time>
      </trkpt>
      <trkpt lat="44.83901" lon="6.47047">
        <ele>1192.8</ele>
        <time>2024-08-12T03:01:17Z</time>
      </trkpt>
      <trkpt lat="44.83901" lon="6.47047">
        <ele>1192.8</ele>
        <time>2024-08-12T03:01:18Z</time>
      </trkpt>
      <trkpt lat="44.83901" lon="6.4704">
        <ele>1192.8</ele>
        <time>2024-08-12T03:01:19Z</time>
      </trkpt>
      <trkpt lat="44.83901" lon="6.47039">
        <ele>1192.8</ele>
        <time>2024-08-12T03:01:20Z</time>
      </trkpt>
      <trkpt lat="44.83901" lon="6.47039">
        <ele>1193</ele>
        <time>2024-08-12T03:01:21Z</time>
      </trkpt>
      <trkpt lat="44.83902" lon="6.47034">
        <ele>1193</ele>
        <time>2024-08-12T03:01:22Z</time>
      </trkpt>
      <trkpt lat="44.83902" lon="6.47034">
        <ele>1193</ele>
        <time>2024-08-12T03:01:23Z</time>
      </trkpt>
      <trkpt lat="44.83903" lon="6.47029">
        <ele>1193.2</ele>
        <time>2024-08-12T03:01:24Z</time>
      </trkpt>
      <trkpt lat="44.83903" lon="6.47029">
        <ele>1193.4</ele>
        <time>2024-08-12T03:01:25Z</time>
      </trkpt>
      <trkpt lat="44.83903" lon="6.47024">
        <ele>1193.6</ele>
        <time>2024-08-12T03:01:26Z</time>
      </trkpt>
      <trkpt lat="44.83903" lon="6.47024">
        <ele>1193.6</ele>
        <time>2024-08-12T03:01:27Z</time>
      </trkpt>
      <trkpt lat="44.83903" lon="6.4702">
        <ele>1193.6</ele>
        <time>2024-08-12T03:01:28Z</time>
      </trkpt>
      <trkpt lat="44.83903" lon="6.4702">
        <ele>1193.4</ele>
        <time>2024-08-12T03:01:29Z</time>
      </trkpt>
      <trkpt lat="44.83903" lon="6.47015">
        <ele>1193.4</ele>
        <time>2024-08-12T03:01:30Z</time>
      </trkpt>
      <trkpt lat="44.83903" lon="6.47015">
        <ele>1193.6</ele>
        <time>2024-08-12T03:01:31Z</time>
      </trkpt>
      <trkpt lat="44.83903" lon="6.47011">
        <ele>1193.6</ele>
        <time>2024-08-12T03:01:32Z</time>
      </trkpt>
      <trkpt lat="44.83903" lon="6.47011">
        <ele>1193.8</ele>
        <time>2024-08-12T03:01:33Z</time>
      </trkpt>
      <trkpt lat="44.83903" lon="6.47006">
        <ele>1193.8</ele>
        <time>2024-08-12T03:01:34Z</time>
      </trkpt>
      <trkpt lat="44.83903" lon="6.47006">
        <ele>1193.6</ele>
        <time>2024-08-12T03:01:35Z</time>
      </trkpt>
      <trkpt lat="44.83902" lon="6.47002">
        <ele>1193.6</ele>
        <time>2024-08-12T03:01:36Z</time>
      </trkpt>
      <trkpt lat="44.83902" lon="6.47002">
        <ele>1193.6</ele>
        <time>2024-08-12T03:01:37Z</time>
      </trkpt>
      <trkpt lat="44.83903" lon="6.46998">
        <ele>1193.6</ele>
        <time>2024-08-12T03:01:38Z</time>
      </trkpt>
      <trkpt lat="44.83903" lon="6.46998">
        <ele>1193.6</ele>
        <time>2024-08-12T03:01:39Z</time>
      </trkpt>
      <trkpt lat="44.83903" lon="6.46994">
        <ele>1193.6</ele>
        <time>2024-08-12T03:01:40Z</time>
      </trkpt>
      <trkpt lat="44.83903" lon="6.46994">
        <ele>1193.6</ele>
        <time>2024-08-12T03:01:41Z</time>
      </trkpt>
      <trkpt lat="44.83904" lon="6.4699">
        <ele>1193.8</ele>
        <time>2024-08-12T03:01:42Z</time>
      </trkpt>
      <trkpt lat="44.83904" lon="6.4699">
        <ele>1193.8</ele>
        <time>2024-08-12T03:01:43Z</time>
      </trkpt>
      <trkpt lat="44.83904" lon="6.46986">
        <ele>1193.8</ele>
        <time>2024-08-12T03:01:44Z</time>
      </trkpt>
      <trkpt lat="44.83904" lon="6.46986">
        <ele>1193.8</ele>
        <time>2024-08-12T03:01:45Z</time>
      </trkpt>
      <trkpt lat="44.83905" lon="6.46982">
        <ele>1193.8</ele>
        <time>2024-08-12T03:01:46Z</time>
      </trkpt>
      <trkpt lat="44.83905" lon="6.46982">
        <ele>1194</ele>
        <time>2024-08-12T03:01:47Z</time>
      </trkpt>
      <trkpt lat="44.83905" lon="6.46977">
        <ele>1194</ele>
        <time>2024-08-12T03:01:48Z</time>
      </trkpt>
      <trkpt lat="44.83905" lon="6.46977">
        <ele>1194.2</ele>
        <time>2024-08-12T03:01:49Z</time>
      </trkpt>
      <trkpt lat="44.83905" lon="6.46973">
        <ele>1194.2</ele>
        <time>2024-08-12T03:01:50Z</time>
      </trkpt>
      <trkpt lat="44.83905" lon="6.46973">
        <ele>1194.2</ele>
        <time>2024-08-12T03:01:51Z</time>
      </trkpt>
      <trkpt lat="44.83905" lon="6.46969">
        <ele>1194.2</ele>
        <time>2024-08-12T03:01:52Z</time>
      </trkpt>
      <trkpt lat="44.83905" lon="6.46969">
        <ele>1194.2</ele>
        <time>2024-08-12T03:01:53Z</time>
      </trkpt>
      <trkpt lat="44.83904" lon="6.46965">
        <ele>1194.2</ele>
        <time>2024-08-12T03:01:54Z</time>
      </trkpt>
      <trkpt lat="44.83904" lon="6.46965">
        <ele>1194.4</ele>
        <time>2024-08-12T03:01:55Z</time>
      </trkpt>
      <trkpt lat="44.83903" lon="6.46961">
        <ele>1194.4</ele>
        <time>2024-08-12T03:01:56Z</time>
      </trkpt>
      <trkpt lat="44.83903" lon="6.46961">
        <ele>1194.4</ele>
        <time>2024-08-12T03:01:57Z</time>
      </trkpt>
      <trkpt lat="44.83903" lon="6.46957">
        <ele>1194.4</ele>
        <time>2024-08-12T03:01:58Z</time>
      </trkpt>
      <trkpt lat="44.83903" lon="6.46957">
        <ele>1194.4</ele>
        <time>2024-08-12T03:01:59Z</time>
      </trkpt>
      <trkpt lat="44.83902" lon="6.46953">
        <ele>1194.4</ele>
        <time>2024-08-12T03:02:00Z</time>
      </trkpt>
      <trkpt lat="44.83902" lon="6.46953">
        <ele>1194.6</ele>
        <time>2024-08-12T03:02:01Z</time>
      </trkpt>
      <trkpt lat="44.83901" lon="6.4695">
        <ele>1194.8</ele>
        <time>2024-08-12T03:02:02Z</time>
      </trkpt>
      <trkpt lat="44.83901" lon="6.4695">
        <ele>1194.8</ele>
        <time>2024-08-12T03:02:03Z</time>
      </trkpt>
      <trkpt lat="44.83899" lon="6.46946">
        <ele>1194.6</ele>
        <time>2024-08-12T03:02:04Z</time>
      </trkpt>
      <trkpt lat="44.83899" lon="6.46946">
        <ele>1194.6</ele>
        <time>2024-08-12T03:02:05Z</time>
      </trkpt>
      <trkpt lat="44.83898" lon="6.46942">
        <ele>1194.6</ele>
        <time>2024-08-12T03:02:06Z</time>
      </trkpt>
      <trkpt lat="44.83898" lon="6.46942">
        <ele>1194.6</ele>
        <time>2024-08-12T03:02:07Z</time>
      </trkpt>
      <trkpt lat="44.83897" lon="6.46939">
        <ele>1194.8</ele>
        <time>2024-08-12T03:02:08Z</time>
      </trkpt>
      <trkpt lat="44.83897" lon="6.46939">
        <ele>1195</ele>
        <time>2024-08-12T03:02:09Z</time>
      </trkpt>
      <trkpt lat="44.83897" lon="6.46939">
        <ele>1195</ele>
        <time>2024-08-12T03:02:10Z</time>
      </trkpt>
      <trkpt lat="44.83897" lon="6.46939">
        <ele>1195</ele>
        <time>2024-08-12T03:02:11Z</time>
      </trkpt>
      <trkpt lat="44.83897" lon="6.46939">
        <ele>1195</ele>
        <time>2024-08-12T03:02:12Z</time>
      </trkpt>
      <trkpt lat="44.83896" lon="6.46936">
        <ele>1195</ele>
        <time>2024-08-12T03:02:13Z</time>
      </trkpt>
      <trkpt lat="44.83896" lon="6.46936">
        <ele>1195.2</ele>
        <time>2024-08-12T03:02:14Z</time>
      </trkpt>
      <trkpt lat="44.83894" lon="6.46933">
        <ele>1195.4</ele>
        <time>2024-08-12T03:02:15Z</time>
      </trkpt>
      <trkpt lat="44.83894" lon="6.46933">
        <ele>1195.6</ele>
        <time>2024-08-12T03:02:16Z</time>
      </trkpt>
      <trkpt lat="44.83893" lon="6.4693">
        <ele>1195.6</ele>
        <time>2024-08-12T03:02:17Z</time>
      </trkpt>
      <trkpt lat="44.83893" lon="6.4693">
        <ele>1195.6</ele>
        <time>2024-08-12T03:02:18Z</time>
      </trkpt>
      <trkpt lat="44.83892" lon="6.46926">
        <ele>1195.6</ele>
        <time>2024-08-12T03:02:19Z</time>
      </trkpt>
      <trkpt lat="44.83892" lon="6.46926">
        <ele>1195.6</ele>
        <time>2024-08-12T03:02:20Z</time>
      </trkpt>
      <trkpt lat="44.83891" lon="6.46923">
        <ele>1195.8</ele>
        <time>2024-08-12T03:02:21Z</time>
      </trkpt>
      <trkpt lat="44.83891" lon="6.46923">
        <ele>1195.8</ele>
        <time>2024-08-12T03:02:22Z</time>
      </trkpt>
      <trkpt lat="44.83889" lon="6.46921">
        <ele>1195.8</ele>
        <time>2024-08-12T03:02:23Z</time>
      </trkpt>
      <trkpt lat="44.83889" lon="6.46921">
        <ele>1195.6</ele>
        <time>2024-08-12T03:02:24Z</time>
      </trkpt>
      <trkpt lat="44.83888" lon="6.46918">
        <ele>1195.6</ele>
        <time>2024-08-12T03:02:25Z</time>
      </trkpt>
      <trkpt lat="44.83888" lon="6.46918">
        <ele>1195.6</ele>
        <time>2024-08-12T03:02:26Z</time>
      </trkpt>
      <trkpt lat="44.83887" lon="6.46915">
        <ele>1195.6</ele>
        <time>2024-08-12T03:02:27Z</time>
      </trkpt>
      <trkpt lat="44.83887" lon="6.46915">
        <ele>1195.6</ele>
        <time>2024-08-12T03:02:28Z</time>
      </trkpt>
      <trkpt lat="44.83886" lon="6.4691">
        <ele>1195.8</ele>
        <time>2024-08-12T03:02:29Z</time>
      </trkpt>
      <trkpt lat="44.83886" lon="6.4691">
        <ele>1195.8</ele>
        <time>2024-08-12T03:02:30Z</time>
      </trkpt>
      <trkpt lat="44.83885" lon="6.46906">
        <ele>1195.8</ele>
        <time>2024-08-12T03:02:31Z</time>
      </trkpt>
      <trkpt lat="44.83885" lon="6.46906">
        <ele>1196.4</ele>
        <time>2024-08-12T03:02:32Z</time>
      </trkpt>
      <trkpt lat="44.83885" lon="6.46902">
        <ele>1196.4</ele>
        <time>2024-08-12T03:02:33Z</time>
      </trkpt>
      <trkpt lat="44.83885" lon="6.46902">
        <ele>1196.4</ele>
        <time>2024-08-12T03:02:34Z</time>
      </trkpt>
      <trkpt lat="44.83885" lon="6.46898">
        <ele>1196.4</ele>
        <time>2024-08-12T03:02:35Z</time>
      </trkpt>
      <trkpt lat="44.83885" lon="6.46898">
        <ele>1196.4</ele>
        <time>2024-08-12T03:02:36Z</time>
      </trkpt>
      <trkpt lat="44.83884" lon="6.46895">
        <ele>1196.6</ele>
        <time>2024-08-12T03:02:37Z</time>
      </trkpt>
      <trkpt lat="44.83884" lon="6.46895">
        <ele>1196.8</ele>
        <time>2024-08-12T03:02:38Z</time>
      </trkpt>
      <trkpt lat="44.83883" lon="6.46892">
        <ele>1197</ele>
        <time>2024-08-12T03:02:39Z</time>
      </trkpt>
      <trkpt lat="44.83883" lon="6.46892">
        <ele>1197</ele>
        <time>2024-08-12T03:02:40Z</time>
      </trkpt>
      <trkpt lat="44.83883" lon="6.46887">
        <ele>1197.2</ele>
        <time>2024-08-12T03:02:41Z</time>
      </trkpt>
      <trkpt lat="44.83883" lon="6.46887">
        <ele>1197.2</ele>
        <time>2024-08-12T03:02:42Z</time>
      </trkpt>
      <trkpt lat="44.83883" lon="6.46883">
        <ele>1197.2</ele>
        <time>2024-08-12T03:02:43Z</time>
      </trkpt>
      <trkpt lat="44.83883" lon="6.46883">
        <ele>1197.4</ele>
        <time>2024-08-12T03:02:44Z</time>
      </trkpt>
      <trkpt lat="44.83883" lon="6.46879">
        <ele>1197.4</ele>
        <time>2024-08-12T03:02:45Z</time>
      </trkpt>
      <trkpt lat="44.83883" lon="6.46879">
        <ele>1197.6</ele>
        <time>2024-08-12T03:02:46Z</time>
      </trkpt>
      <trkpt lat="44.83882" lon="6.46876">
        <ele>1197.8</ele>
        <time>2024-08-12T03:02:47Z</time>
      </trkpt>
      <trkpt lat="44.83882" lon="6.46876">
        <ele>1197.8</ele>
        <time>2024-08-12T03:02:48Z</time>
      </trkpt>
      <trkpt lat="44.83882" lon="6.46871">
        <ele>1198.2</ele>
        <time>2024-08-12T03:02:49Z</time>
      </trkpt>
      <trkpt lat="44.83882" lon="6.46871">
        <ele>1198.2</ele>
        <time>2024-08-12T03:02:50Z</time>
      </trkpt>
      <trkpt lat="44.83882" lon="6.46867">
        <ele>1198.2</ele>
        <time>2024-08-12T03:02:51Z</time>
      </trkpt>
      <trkpt lat="44.83882" lon="6.46867">
        <ele>1198.2</ele>
        <time>2024-08-12T03:02:52Z</time>
      </trkpt>
      <trkpt lat="44.83883" lon="6.46863">
        <ele>1198.2</ele>
        <time>2024-08-12T03:02:53Z</time>
      </trkpt>
      <trkpt lat="44.83883" lon="6.46863">
        <ele>1198.4</ele>
        <time>2024-08-12T03:02:54Z</time>
      </trkpt>
      <trkpt lat="44.83882" lon="6.46859">
        <ele>1198.4</ele>
        <time>2024-08-12T03:02:55Z</time>
      </trkpt>
      <trkpt lat="44.83882" lon="6.46859">
        <ele>1198.8</ele>
        <time>2024-08-12T03:02:56Z</time>
      </trkpt>
      <trkpt lat="44.83882" lon="6.46855">
        <ele>1198.8</ele>
        <time>2024-08-12T03:02:57Z</time>
      </trkpt>
      <trkpt lat="44.83882" lon="6.46855">
        <ele>1198.4</ele>
        <time>2024-08-12T03:02:58Z</time>
      </trkpt>
      <trkpt lat="44.83881" lon="6.46851">
        <ele>1198.4</ele>
        <time>2024-08-12T03:02:59Z</time>
      </trkpt>
      <trkpt lat="44.83881" lon="6.46851">
        <ele>1198.4</ele>
        <time>2024-08-12T03:03:00Z</time>
      </trkpt>
      <trkpt lat="44.83881" lon="6.46848">
        <ele>1198.4</ele>
        <time>2024-08-12T03:03:01Z</time>
      </trkpt>
      <trkpt lat="44.83881" lon="6.46848">
        <ele>1198.4</ele>
        <time>2024-08-12T03:03:02Z</time>
      </trkpt>
      <trkpt lat="44.83879" lon="6.46844">
        <ele>1198.2</ele>
        <time>2024-08-12T03:03:03Z</time>
      </trkpt>
      <trkpt lat="44.83879" lon="6.46844">
        <ele>1198.4</ele>
        <time>2024-08-12T03:03:04Z</time>
      </trkpt>
      <trkpt lat="44.83878" lon="6.46841">
        <ele>1198.4</ele>
        <time>2024-08-12T03:03:05Z</time>
      </trkpt>
      <trkpt lat="44.83878" lon="6.46841">
        <ele>1198.6</ele>
        <time>2024-08-12T03:03:06Z</time>
      </trkpt>
      <trkpt lat="44.83877" lon="6.46838">
        <ele>1198.6</ele>
        <time>2024-08-12T03:03:07Z</time>
      </trkpt>
      <trkpt lat="44.83877" lon="6.46838">
        <ele>1198.6</ele>
        <time>2024-08-12T03:03:08Z</time>
      </trkpt>
      <trkpt lat="44.83876" lon="6.46834">
        <ele>1198.6</ele>
        <time>2024-08-12T03:03:09Z</time>
      </trkpt>
      <trkpt lat="44.83876" lon="6.46834">
        <ele>1198.8</ele>
        <time>2024-08-12T03:03:10Z</time>
      </trkpt>
      <trkpt lat="44.83874" lon="6.46831">
        <ele>1199.2</ele>
        <time>2024-08-12T03:03:11Z</time>
      </trkpt>
      <trkpt lat="44.83874" lon="6.46831">
        <ele>1199.4</ele>
        <time>2024-08-12T03:03:12Z</time>
      </trkpt>
      <trkpt lat="44.83873" lon="6.46827">
        <ele>1199.6</ele>
        <time>2024-08-12T03:03:13Z</time>
      </trkpt>
      <trkpt lat="44.83873" lon="6.46827">
        <ele>1199.6</ele>
        <time>2024-08-12T03:03:14Z</time>
      </trkpt>
      <trkpt lat="44.83872" lon="6.46824">
        <ele>1199.8</ele>
        <time>2024-08-12T03:03:15Z</time>
      </trkpt>
      <trkpt lat="44.83872" lon="6.46824">
        <ele>1199.8</ele>
        <time>2024-08-12T03:03:16Z</time>
      </trkpt>
      <trkpt lat="44.83871" lon="6.4682">
        <ele>1199.8</ele>
        <time>2024-08-12T03:03:17Z</time>
      </trkpt>
      <trkpt lat="44.83871" lon="6.4682">
        <ele>1200</ele>
        <time>2024-08-12T03:03:18Z</time>
      </trkpt>
      <trkpt lat="44.83871" lon="6.46815">
        <ele>1200.4</ele>
        <time>2024-08-12T03:03:19Z</time>
      </trkpt>
      <trkpt lat="44.83871" lon="6.46815">
        <ele>1200.2</ele>
        <time>2024-08-12T03:03:20Z</time>
      </trkpt>
      <trkpt lat="44.8387" lon="6.46811">
        <ele>1200.2</ele>
        <time>2024-08-12T03:03:21Z</time>
      </trkpt>
      <trkpt lat="44.8387" lon="6.46811">
        <ele>1200.2</ele>
        <time>2024-08-12T03:03:22Z</time>
      </trkpt>
      <trkpt lat="44.8387" lon="6.46807">
        <ele>1200.4</ele>
        <time>2024-08-12T03:03:23Z</time>
      </trkpt>
      <trkpt lat="44.8387" lon="6.46807">
        <ele>1200.6</ele>
        <time>2024-08-12T03:03:24Z</time>
      </trkpt>
      <trkpt lat="44.83869" lon="6.46804">
        <ele>1200.8</ele>
        <time>2024-08-12T03:03:25Z</time>
      </trkpt>
      <trkpt lat="44.83869" lon="6.46804">
        <ele>1200.8</ele>
        <time>2024-08-12T03:03:26Z</time>
      </trkpt>
      <trkpt lat="44.83869" lon="6.468">
        <ele>1200.8</ele>
        <time>2024-08-12T03:03:27Z</time>
      </trkpt>
      <trkpt lat="44.83869" lon="6.468">
        <ele>1200.8</ele>
        <time>2024-08-12T03:03:28Z</time>
      </trkpt>
      <trkpt lat="44.83868" lon="6.46796">
        <ele>1200.8</ele>
        <time>2024-08-12T03:03:29Z</time>
      </trkpt>
      <trkpt lat="44.83868" lon="6.46796">
        <ele>1200.8</ele>
        <time>2024-08-12T03:03:30Z</time>
      </trkpt>
      <trkpt lat="44.83867" lon="6.46792">
        <ele>1201</ele>
        <time>2024-08-12T03:03:31Z</time>
      </trkpt>
      <trkpt lat="44.83867" lon="6.46792">
        <ele>1201</ele>
        <time>2024-08-12T03:03:32Z</time>
      </trkpt>
      <trkpt lat="44.83866" lon="6.46789">
        <ele>1201</ele>
        <time>2024-08-12T03:03:33Z</time>
      </trkpt>
      <trkpt lat="44.83866" lon="6.46789">
        <ele>1201.2</ele>
        <time>2024-08-12T03:03:34Z</time>
      </trkpt>
      <trkpt lat="44.83866" lon="6.46785">
        <ele>1201.2</ele>
        <time>2024-08-12T03:03:35Z</time>
      </trkpt>
      <trkpt lat="44.83866" lon="6.46785">
        <ele>1201.2</ele>
        <time>2024-08-12T03:03:36Z</time>
      </trkpt>
      <trkpt lat="44.83865" lon="6.46781">
        <ele>1201.4</ele>
        <time>2024-08-12T03:03:37Z</time>
      </trkpt>
      <trkpt lat="44.83865" lon="6.46781">
        <ele>1201.4</ele>
        <time>2024-08-12T03:03:38Z</time>
      </trkpt>
      <trkpt lat="44.83865" lon="6.46777">
        <ele>1201.6</ele>
        <time>2024-08-12T03:03:39Z</time>
      </trkpt>
      <trkpt lat="44.83865" lon="6.46777">
        <ele>1201.8</ele>
        <time>2024-08-12T03:03:40Z</time>
      </trkpt>
      <trkpt lat="44.83864" lon="6.46773">
        <ele>1202</ele>
        <time>2024-08-12T03:03:41Z</time>
      </trkpt>
      <trkpt lat="44.83864" lon="6.46773">
        <ele>1202</ele>
        <time>2024-08-12T03:03:42Z</time>
      </trkpt>
      <trkpt lat="44.83863" lon="6.46769">
        <ele>1202</ele>
        <time>2024-08-12T03:03:43Z</time>
      </trkpt>
      <trkpt lat="44.83863" lon="6.46769">
        <ele>1202</ele>
        <time>2024-08-12T03:03:44Z</time>
      </trkpt>
      <trkpt lat="44.83863" lon="6.46766">
        <ele>1202</ele>
        <time>2024-08-12T03:03:45Z</time>
      </trkpt>
      <trkpt lat="44.83863" lon="6.46766">
        <ele>1202.2</ele>
        <time>2024-08-12T03:03:46Z</time>
      </trkpt>
      <trkpt lat="44.83861" lon="6.46763">
        <ele>1202.4</ele>
        <time>2024-08-12T03:03:47Z</time>
      </trkpt>
      <trkpt lat="44.83861" lon="6.46763">
        <ele>1202.6</ele>
        <time>2024-08-12T03:03:48Z</time>
      </trkpt>
      <trkpt lat="44.83861" lon="6.46759">
        <ele>1202.4</ele>
        <time>2024-08-12T03:03:49Z</time>
      </trkpt>
      <trkpt lat="44.83861" lon="6.46759">
        <ele>1202.4</ele>
        <time>2024-08-12T03:03:50Z</time>
      </trkpt>
      <trkpt lat="44.8386" lon="6.46755">
        <ele>1202.4</ele>
        <time>2024-08-12T03:03:51Z</time>
      </trkpt>
      <trkpt lat="44.8386" lon="6.46755">
        <ele>1202.4</ele>
        <time>2024-08-12T03:03:52Z</time>
      </trkpt>
      <trkpt lat="44.8386" lon="6.46752">
        <ele>1202.2</ele>
        <time>2024-08-12T03:03:53Z</time>
      </trkpt>
      <trkpt lat="44.8386" lon="6.46752">
        <ele>1202</ele>
        <time>2024-08-12T03:03:54Z</time>
      </trkpt>
      <trkpt lat="44.83859" lon="6.46748">
        <ele>1201.6</ele>
        <time>2024-08-12T03:03:55Z</time>
      </trkpt>
      <trkpt lat="44.83859" lon="6.46748">
        <ele>1201.6</ele>
        <time>2024-08-12T03:03:56Z</time>
      </trkpt>
      <trkpt lat="44.83858" lon="6.46744">
        <ele>1201.6</ele>
        <time>2024-08-12T03:03:57Z</time>
      </trkpt>
      <trkpt lat="44.83858" lon="6.46744">
        <ele>1201.2</ele>
        <time>2024-08-12T03:03:58Z</time>
      </trkpt>
      <trkpt lat="44.83857" lon="6.4674">
        <ele>1201.2</ele>
        <time>2024-08-12T03:03:59Z</time>
      </trkpt>
      <trkpt lat="44.83857" lon="6.4674">
        <ele>1201.2</ele>
        <time>2024-08-12T03:04:00Z</time>
      </trkpt>
      <trkpt lat="44.83856" lon="6.46736">
        <ele>1200.6</ele>
        <time>2024-08-12T03:04:01Z</time>
      </trkpt>
      <trkpt lat="44.83856" lon="6.46736">
        <ele>1200.2</ele>
        <time>2024-08-12T03:04:02Z</time>
      </trkpt>
      <trkpt lat="44.83855" lon="6.46732">
        <ele>1200.2</ele>
        <time>2024-08-12T03:04:03Z</time>
      </trkpt>
      <trkpt lat="44.83855" lon="6.46732">
        <ele>1200</ele>
        <time>2024-08-12T03:04:04Z</time>
      </trkpt>
      <trkpt lat="44.83854" lon="6.46728">
        <ele>1200</ele>
        <time>2024-08-12T03:04:05Z</time>
      </trkpt>
      <trkpt lat="44.83854" lon="6.46728">
        <ele>1200</ele>
        <time>2024-08-12T03:04:06Z</time>
      </trkpt>
      <trkpt lat="44.83853" lon="6.46724">
        <ele>1200</ele>
        <time>2024-08-12T03:04:07Z</time>
      </trkpt>
      <trkpt lat="44.83853" lon="6.46724">
        <ele>1199.8</ele>
        <time>2024-08-12T03:04:08Z</time>
      </trkpt>
      <trkpt lat="44.83853" lon="6.46721">
        <ele>1199.8</ele>
        <time>2024-08-12T03:04:09Z</time>
      </trkpt>
      <trkpt lat="44.83853" lon="6.46721">
        <ele>1199.8</ele>
        <time>2024-08-12T03:04:10Z</time>
      </trkpt>
      <trkpt lat="44.83852" lon="6.46718">
        <ele>1199.8</ele>
        <time>2024-08-12T03:04:11Z</time>
      </trkpt>
      <trkpt lat="44.83852" lon="6.46718">
        <ele>1200</ele>
        <time>2024-08-12T03:04:12Z</time>
      </trkpt>
      <trkpt lat="44.8385" lon="6.46715">
        <ele>1200.2</ele>
        <time>2024-08-12T03:04:13Z</time>
      </trkpt>
      <trkpt lat="44.8385" lon="6.46715">
        <ele>1200.6</ele>
        <time>2024-08-12T03:04:14Z</time>
      </trkpt>
      <trkpt lat="44.83849" lon="6.46712">
        <ele>1200.6</ele>
        <time>2024-08-12T03:04:15Z</time>
      </trkpt>
      <trkpt lat="44.83849" lon="6.46712">
        <ele>1200.4</ele>
        <time>2024-08-12T03:04:16Z</time>
      </trkpt>
      <trkpt lat="44.83849" lon="6.46709">
        <ele>1200.4</ele>
        <time>2024-08-12T03:04:17Z</time>
      </trkpt>
      <trkpt lat="44.83849" lon="6.46709">
        <ele>1200.4</ele>
        <time>2024-08-12T03:04:18Z</time>
      </trkpt>
      <trkpt lat="44.83848" lon="6.46706">
        <ele>1200.6</ele>
        <time>2024-08-12T03:04:19Z</time>
      </trkpt>
      <trkpt lat="44.83848" lon="6.46706">
        <ele>1200.8</ele>
        <time>2024-08-12T03:04:20Z</time>
      </trkpt>
      <trkpt lat="44.83848" lon="6.46704">
        <ele>1201</ele>
        <time>2024-08-12T03:04:21Z</time>
      </trkpt>
      <trkpt lat="44.83848" lon="6.46704">
        <ele>1201.2</ele>
        <time>2024-08-12T03:04:22Z</time>
      </trkpt>
      <trkpt lat="44.83848" lon="6.46701">
        <ele>1201.2</ele>
        <time>2024-08-12T03:04:23Z</time>
      </trkpt>
      <trkpt lat="44.83848" lon="6.46701">
        <ele>1201.4</ele>
        <time>2024-08-12T03:04:24Z</time>
      </trkpt>
      <trkpt lat="44.83848" lon="6.46701">
        <ele>1201.4</ele>
        <time>2024-08-12T03:04:25Z</time>
      </trkpt>
      <trkpt lat="44.83848" lon="6.46701">
        <ele>1201.6</ele>
        <time>2024-08-12T03:04:26Z</time>
      </trkpt>
      <trkpt lat="44.83848" lon="6.46701">
        <ele>1201.8</ele>
        <time>2024-08-12T03:04:27Z</time>
      </trkpt>
      <trkpt lat="44.83847" lon="6.46696">
        <ele>1202</ele>
        <time>2024-08-12T03:04:28Z</time>
      </trkpt>
      <trkpt lat="44.83847" lon="6.46696">
        <ele>1202</ele>
        <time>2024-08-12T03:04:29Z</time>
      </trkpt>
      <trkpt lat="44.83846" lon="6.46694">
        <ele>1202</ele>
        <time>2024-08-12T03:04:30Z</time>
      </trkpt>
      <trkpt lat="44.83846" lon="6.46694">
        <ele>1202.4</ele>
        <time>2024-08-12T03:04:31Z</time>
      </trkpt>
      <trkpt lat="44.83846" lon="6.46694">
        <ele>1202.4</ele>
        <time>2024-08-12T03:04:32Z</time>
      </trkpt>
      <trkpt lat="44.83844" lon="6.46692">
        <ele>1202.8</ele>
        <time>2024-08-12T03:04:33Z</time>
      </trkpt>
      <trkpt lat="44.83844" lon="6.46692">
        <ele>1202.8</ele>
        <time>2024-08-12T03:04:34Z</time>
      </trkpt>
      <trkpt lat="44.83842" lon="6.46689">
        <ele>1203</ele>
        <time>2024-08-12T03:04:35Z</time>
      </trkpt>
      <trkpt lat="44.83842" lon="6.46689">
        <ele>1203.2</ele>
        <time>2024-08-12T03:04:36Z</time>
      </trkpt>
      <trkpt lat="44.8384" lon="6.46686">
        <ele>1203.4</ele>
        <time>2024-08-12T03:04:37Z</time>
      </trkpt>
      <trkpt lat="44.8384" lon="6.46686">
        <ele>1203.8</ele>
        <time>2024-08-12T03:04:38Z</time>
      </trkpt>
      <trkpt lat="44.83839" lon="6.46683">
        <ele>1203.8</ele>
        <time>2024-08-12T03:04:39Z</time>
      </trkpt>
      <trkpt lat="44.83839" lon="6.46683">
        <ele>1203.8</ele>
        <time>2024-08-12T03:04:40Z</time>
      </trkpt>
      <trkpt lat="44.83838" lon="6.4668">
        <ele>1204</ele>
        <time>2024-08-12T03:04:41Z</time>
      </trkpt>
      <trkpt lat="44.83838" lon="6.4668">
        <ele>1204.4</ele>
        <time>2024-08-12T03:04:42Z</time>
      </trkpt>
      <trkpt lat="44.83836" lon="6.46677">
        <ele>1204.4</ele>
        <time>2024-08-12T03:04:43Z</time>
      </trkpt>
      <trkpt lat="44.83836" lon="6.46677">
        <ele>1204.4</ele>
        <time>2024-08-12T03:04:44Z</time>
      </trkpt>
      <trkpt lat="44.83834" lon="6.46674">
        <ele>1204.4</ele>
        <time>2024-08-12T03:04:45Z</time>
      </trkpt>
      <trkpt lat="44.83834" lon="6.46674">
        <ele>1204.4</ele>
        <time>2024-08-12T03:04:46Z</time>
      </trkpt>
      <trkpt lat="44.83832" lon="6.46671">
        <ele>1204.4</ele>
        <time>2024-08-12T03:04:47Z</time>
      </trkpt>
      <trkpt lat="44.83832" lon="6.46671">
        <ele>1204.4</ele>
        <time>2024-08-12T03:04:48Z</time>
      </trkpt>
      <trkpt lat="44.8383" lon="6.46669">
        <ele>1204.6</ele>
        <time>2024-08-12T03:04:49Z</time>
      </trkpt>
      <trkpt lat="44.8383" lon="6.46669">
        <ele>1204.6</ele>
        <time>2024-08-12T03:04:50Z</time>
      </trkpt>
      <trkpt lat="44.83828" lon="6.46666">
        <ele>1204.4</ele>
        <time>2024-08-12T03:04:51Z</time>
      </trkpt>
      <trkpt lat="44.83828" lon="6.46666">
        <ele>1204.4</ele>
        <time>2024-08-12T03:04:52Z</time>
      </trkpt>
      <trkpt lat="44.83826" lon="6.46665">
        <ele>1204.6</ele>
        <time>2024-08-12T03:04:53Z</time>
      </trkpt>
      <trkpt lat="44.83826" lon="6.46665">
        <ele>1204.6</ele>
        <time>2024-08-12T03:04:54Z</time>
      </trkpt>
      <trkpt lat="44.83824" lon="6.46663">
        <ele>1204.8</ele>
        <time>2024-08-12T03:04:55Z</time>
      </trkpt>
      <trkpt lat="44.83824" lon="6.46663">
        <ele>1204.8</ele>
        <time>2024-08-12T03:04:56Z</time>
      </trkpt>
      <trkpt lat="44.83822" lon="6.4666">
        <ele>1205</ele>
        <time>2024-08-12T03:04:57Z</time>
      </trkpt>
      <trkpt lat="44.83822" lon="6.4666">
        <ele>1205</ele>
        <time>2024-08-12T03:04:58Z</time>
      </trkpt>
      <trkpt lat="44.8382" lon="6.46658">
        <ele>1205</ele>
        <time>2024-08-12T03:04:59Z</time>
      </trkpt>
      <trkpt lat="44.8382" lon="6.46658">
        <ele>1205</ele>
        <time>2024-08-12T03:05:00Z</time>
      </trkpt>
      <trkpt lat="44.83817" lon="6.46656">
        <ele>1205</ele>
        <time>2024-08-12T03:05:01Z</time>
      </trkpt>
      <trkpt lat="44.83817" lon="6.46656">
        <ele>1205</ele>
        <time>2024-08-12T03:05:02Z</time>
      </trkpt>
      <trkpt lat="44.83815" lon="6.46653">
        <ele>1205</ele>
        <time>2024-08-12T03:05:03Z</time>
      </trkpt>
      <trkpt lat="44.83815" lon="6.46653">
        <ele>1205</ele>
        <time>2024-08-12T03:05:04Z</time>
      </trkpt>
      <trkpt lat="44.83815" lon="6.46653">
        <ele>1205.4</ele>
        <time>2024-08-12T03:05:05Z</time>
      </trkpt>
      <trkpt lat="44.83814" lon="6.4665">
        <ele>1205.6</ele>
        <time>2024-08-12T03:05:06Z</time>
      </trkpt>
      <trkpt lat="44.83814" lon="6.4665">
        <ele>1205.6</ele>
        <time>2024-08-12T03:05:07Z</time>
      </trkpt>
      <trkpt lat="44.83813" lon="6.46646">
        <ele>1206</ele>
        <time>2024-08-12T03:05:08Z</time>
      </trkpt>
      <trkpt lat="44.83813" lon="6.46646">
        <ele>1206.2</ele>
        <time>2024-08-12T03:05:09Z</time>
      </trkpt>
      <trkpt lat="44.83811" lon="6.46643">
        <ele>1206.2</ele>
        <time>2024-08-12T03:05:10Z</time>
      </trkpt>
      <trkpt lat="44.8381" lon="6.46641">
        <ele>1206.4</ele>
        <time>2024-08-12T03:05:11Z</time>
      </trkpt>
      <trkpt lat="44.8381" lon="6.46641">
        <ele>1206.4</ele>
        <time>2024-08-12T03:05:12Z</time>
      </trkpt>
      <trkpt lat="44.83809" lon="6.46638">
        <ele>1206.6</ele>
        <time>2024-08-12T03:05:13Z</time>
      </trkpt>
      <trkpt lat="44.83809" lon="6.46638">
        <ele>1206.6</ele>
        <time>2024-08-12T03:05:14Z</time>
      </trkpt>
      <trkpt lat="44.83807" lon="6.46636">
        <ele>1206.6</ele>
        <time>2024-08-12T03:05:15Z</time>
      </trkpt>
      <trkpt lat="44.83807" lon="6.46636">
        <ele>1206.6</ele>
        <time>2024-08-12T03:05:16Z</time>
      </trkpt>
      <trkpt lat="44.83807" lon="6.46633">
        <ele>1207</ele>
        <time>2024-08-12T03:05:17Z</time>
      </trkpt>
      <trkpt lat="44.83807" lon="6.46633">
        <ele>1207</ele>
        <time>2024-08-12T03:05:18Z</time>
      </trkpt>
      <trkpt lat="44.83805" lon="6.4663">
        <ele>1207</ele>
        <time>2024-08-12T03:05:19Z</time>
      </trkpt>
      <trkpt lat="44.83805" lon="6.4663">
        <ele>1207.4</ele>
        <time>2024-08-12T03:05:20Z</time>
      </trkpt>
      <trkpt lat="44.83805" lon="6.46628">
        <ele>1207.4</ele>
        <time>2024-08-12T03:05:21Z</time>
      </trkpt>
      <trkpt lat="44.83805" lon="6.46628">
        <ele>1207.6</ele>
        <time>2024-08-12T03:05:22Z</time>
      </trkpt>
      <trkpt lat="44.83803" lon="6.46625">
        <ele>1207.8</ele>
        <time>2024-08-12T03:05:23Z</time>
      </trkpt>
      <trkpt lat="44.83803" lon="6.46625">
        <ele>1208</ele>
        <time>2024-08-12T03:05:24Z</time>
      </trkpt>
      <trkpt lat="44.83801" lon="6.46621">
        <ele>1208.2</ele>
        <time>2024-08-12T03:05:25Z</time>
      </trkpt>
      <trkpt lat="44.83801" lon="6.46621">
        <ele>1208.2</ele>
        <time>2024-08-12T03:05:26Z</time>
      </trkpt>
      <trkpt lat="44.83799" lon="6.46619">
        <ele>1208.2</ele>
        <time>2024-08-12T03:05:27Z</time>
      </trkpt>
      <trkpt lat="44.83799" lon="6.46619">
        <ele>1208.2</ele>
        <time>2024-08-12T03:05:28Z</time>
      </trkpt>
      <trkpt lat="44.83797" lon="6.46617">
        <ele>1208.2</ele>
        <time>2024-08-12T03:05:29Z</time>
      </trkpt>
      <trkpt lat="44.83797" lon="6.46617">
        <ele>1208.6</ele>
        <time>2024-08-12T03:05:30Z</time>
      </trkpt>
      <trkpt lat="44.83795" lon="6.46614">
        <ele>1208.6</ele>
        <time>2024-08-12T03:05:31Z</time>
      </trkpt>
      <trkpt lat="44.83795" lon="6.46614">
        <ele>1208.8</ele>
        <time>2024-08-12T03:05:32Z</time>
      </trkpt>
      <trkpt lat="44.83794" lon="6.46611">
        <ele>1208.8</ele>
        <time>2024-08-12T03:05:33Z</time>
      </trkpt>
      <trkpt lat="44.83794" lon="6.46611">
        <ele>1209</ele>
        <time>2024-08-12T03:05:34Z</time>
      </trkpt>
      <trkpt lat="44.83792" lon="6.46609">
        <ele>1209.2</ele>
        <time>2024-08-12T03:05:35Z</time>
      </trkpt>
      <trkpt lat="44.83792" lon="6.46609">
        <ele>1209.4</ele>
        <time>2024-08-12T03:05:36Z</time>
      </trkpt>
      <trkpt lat="44.8379" lon="6.46607">
        <ele>1209.6</ele>
        <time>2024-08-12T03:05:37Z</time>
      </trkpt>
      <trkpt lat="44.8379" lon="6.46607">
        <ele>1209.8</ele>
        <time>2024-08-12T03:05:38Z</time>
      </trkpt>
      <trkpt lat="44.83788" lon="6.46604">
        <ele>1209.8</ele>
        <time>2024-08-12T03:05:39Z</time>
      </trkpt>
      <trkpt lat="44.83788" lon="6.46604">
        <ele>1210</ele>
        <time>2024-08-12T03:05:40Z</time>
      </trkpt>
      <trkpt lat="44.83786" lon="6.46601">
        <ele>1210.2</ele>
        <time>2024-08-12T03:05:41Z</time>
      </trkpt>
      <trkpt lat="44.83786" lon="6.46601">
        <ele>1210.2</ele>
        <time>2024-08-12T03:05:42Z</time>
      </trkpt>
      <trkpt lat="44.83785" lon="6.46597">
        <ele>1210.2</ele>
        <time>2024-08-12T03:05:43Z</time>
      </trkpt>
      <trkpt lat="44.83785" lon="6.46597">
        <ele>1210.2</ele>
        <time>2024-08-12T03:05:44Z</time>
      </trkpt>
      <trkpt lat="44.83783" lon="6.46594">
        <ele>1210.2</ele>
        <time>2024-08-12T03:05:45Z</time>
      </trkpt>
      <trkpt lat="44.83783" lon="6.46594">
        <ele>1210.2</ele>
        <time>2024-08-12T03:05:46Z</time>
      </trkpt>
      <trkpt lat="44.83781" lon="6.46591">
        <ele>1210.2</ele>
        <time>2024-08-12T03:05:47Z</time>
      </trkpt>
      <trkpt lat="44.83781" lon="6.46591">
        <ele>1210.4</ele>
        <time>2024-08-12T03:05:48Z</time>
      </trkpt>
      <trkpt lat="44.83781" lon="6.46588">
        <ele>1210.4</ele>
        <time>2024-08-12T03:05:49Z</time>
      </trkpt>
      <trkpt lat="44.83781" lon="6.46588">
        <ele>1210.8</ele>
        <time>2024-08-12T03:05:50Z</time>
      </trkpt>
      <trkpt lat="44.83781" lon="6.46584">
        <ele>1211</ele>
        <time>2024-08-12T03:05:51Z</time>
      </trkpt>
      <trkpt lat="44.83781" lon="6.46584">
        <ele>1211</ele>
        <time>2024-08-12T03:05:52Z</time>
      </trkpt>
      <trkpt lat="44.8378" lon="6.46581">
        <ele>1211.2</ele>
        <time>2024-08-12T03:05:53Z</time>
      </trkpt>
      <trkpt lat="44.8378" lon="6.46581">
        <ele>1211.4</ele>
        <time>2024-08-12T03:05:54Z</time>
      </trkpt>
      <trkpt lat="44.8378" lon="6.46578">
        <ele>1211.6</ele>
        <time>2024-08-12T03:05:55Z</time>
      </trkpt>
      <trkpt lat="44.8378" lon="6.46578">
        <ele>1211.6</ele>
        <time>2024-08-12T03:05:56Z</time>
      </trkpt>
      <trkpt lat="44.8378" lon="6.46575">
        <ele>1211.8</ele>
        <time>2024-08-12T03:05:57Z</time>
      </trkpt>
      <trkpt lat="44.8378" lon="6.46575">
        <ele>1211.8</ele>
        <time>2024-08-12T03:05:58Z</time>
      </trkpt>
      <trkpt lat="44.83779" lon="6.46571">
        <ele>1212.2</ele>
        <time>2024-08-12T03:05:59Z</time>
      </trkpt>
      <trkpt lat="44.83779" lon="6.46571">
        <ele>1212.2</ele>
        <time>2024-08-12T03:06:00Z</time>
      </trkpt>
      <trkpt lat="44.83779" lon="6.46567">
        <ele>1212.2</ele>
        <time>2024-08-12T03:06:01Z</time>
      </trkpt>
      <trkpt lat="44.83779" lon="6.46567">
        <ele>1212.4</ele>
        <time>2024-08-12T03:06:02Z</time>
      </trkpt>
      <trkpt lat="44.83779" lon="6.46564">
        <ele>1212.4</ele>
        <time>2024-08-12T03:06:03Z</time>
      </trkpt>
      <trkpt lat="44.83779" lon="6.46564">
        <ele>1212.4</ele>
        <time>2024-08-12T03:06:04Z</time>
      </trkpt>
      <trkpt lat="44.8378" lon="6.46561">
        <ele>1212.6</ele>
        <time>2024-08-12T03:06:05Z</time>
      </trkpt>
      <trkpt lat="44.8378" lon="6.46561">
        <ele>1212.8</ele>
        <time>2024-08-12T03:06:06Z</time>
      </trkpt>
      <trkpt lat="44.83781" lon="6.46557">
        <ele>1213.2</ele>
        <time>2024-08-12T03:06:07Z</time>
      </trkpt>
      <trkpt lat="44.83781" lon="6.46557">
        <ele>1213.4</ele>
        <time>2024-08-12T03:06:08Z</time>
      </trkpt>
      <trkpt lat="44.83781" lon="6.46553">
        <ele>1213.6</ele>
        <time>2024-08-12T03:06:09Z</time>
      </trkpt>
      <trkpt lat="44.83781" lon="6.46553">
        <ele>1213.6</ele>
        <time>2024-08-12T03:06:10Z</time>
      </trkpt>
      <trkpt lat="44.83782" lon="6.4655">
        <ele>1213.6</ele>
        <time>2024-08-12T03:06:11Z</time>
      </trkpt>
      <trkpt lat="44.83782" lon="6.4655">
        <ele>1213.8</ele>
        <time>2024-08-12T03:06:12Z</time>
      </trkpt>
      <trkpt lat="44.83783" lon="6.46547">
        <ele>1214</ele>
        <time>2024-08-12T03:06:13Z</time>
      </trkpt>
      <trkpt lat="44.83783" lon="6.46547">
        <ele>1214</ele>
        <time>2024-08-12T03:06:14Z</time>
      </trkpt>
      <trkpt lat="44.83783" lon="6.46543">
        <ele>1214.2</ele>
        <time>2024-08-12T03:06:15Z</time>
      </trkpt>
      <trkpt lat="44.83783" lon="6.46543">
        <ele>1214.6</ele>
        <time>2024-08-12T03:06:16Z</time>
      </trkpt>
      <trkpt lat="44.83785" lon="6.46541">
        <ele>1214.8</ele>
        <time>2024-08-12T03:06:17Z</time>
      </trkpt>
      <trkpt lat="44.83785" lon="6.46541">
        <ele>1215</ele>
        <time>2024-08-12T03:06:18Z</time>
      </trkpt>
      <trkpt lat="44.83785" lon="6.46537">
        <ele>1215</ele>
        <time>2024-08-12T03:06:19Z</time>
      </trkpt>
      <trkpt lat="44.83785" lon="6.46537">
        <ele>1215</ele>
        <time>2024-08-12T03:06:20Z</time>
      </trkpt>
      <trkpt lat="44.83785" lon="6.46534">
        <ele>1215.4</ele>
        <time>2024-08-12T03:06:21Z</time>
      </trkpt>
      <trkpt lat="44.83785" lon="6.46534">
        <ele>1215.4</ele>
        <time>2024-08-12T03:06:22Z</time>
      </trkpt>
      <trkpt lat="44.83785" lon="6.4653">
        <ele>1215.8</ele>
        <time>2024-08-12T03:06:23Z</time>
      </trkpt>
      <trkpt lat="44.83785" lon="6.4653">
        <ele>1215.8</ele>
        <time>2024-08-12T03:06:24Z</time>
      </trkpt>
      <trkpt lat="44.83786" lon="6.46527">
        <ele>1215.8</ele>
        <time>2024-08-12T03:06:25Z</time>
      </trkpt>
      <trkpt lat="44.83786" lon="6.46527">
        <ele>1216.2</ele>
        <time>2024-08-12T03:06:26Z</time>
      </trkpt>
      <trkpt lat="44.83787" lon="6.46524">
        <ele>1216.2</ele>
        <time>2024-08-12T03:06:27Z</time>
      </trkpt>
      <trkpt lat="44.83787" lon="6.46524">
        <ele>1216</ele>
        <time>2024-08-12T03:06:28Z</time>
      </trkpt>
      <trkpt lat="44.83789" lon="6.4652">
        <ele>1216</ele>
        <time>2024-08-12T03:06:29Z</time>
      </trkpt>
      <trkpt lat="44.83789" lon="6.4652">
        <ele>1216</ele>
        <time>2024-08-12T03:06:30Z</time>
      </trkpt>
      <trkpt lat="44.8379" lon="6.46518">
        <ele>1216.2</ele>
        <time>2024-08-12T03:06:31Z</time>
      </trkpt>
      <trkpt lat="44.8379" lon="6.46518">
        <ele>1216.4</ele>
        <time>2024-08-12T03:06:32Z</time>
      </trkpt>
      <trkpt lat="44.83791" lon="6.46515">
        <ele>1216.4</ele>
        <time>2024-08-12T03:06:33Z</time>
      </trkpt>
      <trkpt lat="44.83791" lon="6.46515">
        <ele>1216.6</ele>
        <time>2024-08-12T03:06:34Z</time>
      </trkpt>
      <trkpt lat="44.83791" lon="6.46512">
        <ele>1216.8</ele>
        <time>2024-08-12T03:06:35Z</time>
      </trkpt>
      <trkpt lat="44.83791" lon="6.46512">
        <ele>1216.8</ele>
        <time>2024-08-12T03:06:36Z</time>
      </trkpt>
      <trkpt lat="44.83792" lon="6.46508">
        <ele>1217</ele>
        <time>2024-08-12T03:06:37Z</time>
      </trkpt>
      <trkpt lat="44.83792" lon="6.46508">
        <ele>1217.2</ele>
        <time>2024-08-12T03:06:38Z</time>
      </trkpt>
      <trkpt lat="44.83793" lon="6.46506">
        <ele>1217.4</ele>
        <time>2024-08-12T03:06:39Z</time>
      </trkpt>
      <trkpt lat="44.83793" lon="6.46506">
        <ele>1217.6</ele>
        <time>2024-08-12T03:06:40Z</time>
      </trkpt>
      <trkpt lat="44.83794" lon="6.46503">
        <ele>1217.8</ele>
        <time>2024-08-12T03:06:41Z</time>
      </trkpt>
      <trkpt lat="44.83794" lon="6.46503">
        <ele>1217.8</ele>
        <time>2024-08-12T03:06:42Z</time>
      </trkpt>
      <trkpt lat="44.83795" lon="6.465">
        <ele>1218.2</ele>
        <time>2024-08-12T03:06:43Z</time>
      </trkpt>
      <trkpt lat="44.83795" lon="6.465">
        <ele>1218.2</ele>
        <time>2024-08-12T03:06:44Z</time>
      </trkpt>
      <trkpt lat="44.83796" lon="6.46496">
        <ele>1218.2</ele>
        <time>2024-08-12T03:06:45Z</time>
      </trkpt>
      <trkpt lat="44.83796" lon="6.46496">
        <ele>1218.2</ele>
        <time>2024-08-12T03:06:46Z</time>
      </trkpt>
      <trkpt lat="44.83796" lon="6.46493">
        <ele>1218.4</ele>
        <time>2024-08-12T03:06:47Z</time>
      </trkpt>
      <trkpt lat="44.83796" lon="6.46493">
        <ele>1218.6</ele>
        <time>2024-08-12T03:06:48Z</time>
      </trkpt>
      <trkpt lat="44.83797" lon="6.4649">
        <ele>1218.8</ele>
        <time>2024-08-12T03:06:49Z</time>
      </trkpt>
      <trkpt lat="44.83797" lon="6.4649">
        <ele>1219</ele>
        <time>2024-08-12T03:06:50Z</time>
      </trkpt>
      <trkpt lat="44.83798" lon="6.46487">
        <ele>1219</ele>
        <time>2024-08-12T03:06:51Z</time>
      </trkpt>
      <trkpt lat="44.83798" lon="6.46484">
        <ele>1219</ele>
        <time>2024-08-12T03:06:52Z</time>
      </trkpt>
      <trkpt lat="44.83798" lon="6.46484">
        <ele>1218.8</ele>
        <time>2024-08-12T03:06:53Z</time>
      </trkpt>
      <trkpt lat="44.83799" lon="6.4648">
        <ele>1218.8</ele>
        <time>2024-08-12T03:06:54Z</time>
      </trkpt>
      <trkpt lat="44.83799" lon="6.4648">
        <ele>1218.8</ele>
        <time>2024-08-12T03:06:55Z</time>
      </trkpt>
      <trkpt lat="44.838" lon="6.46476">
        <ele>1218.8</ele>
        <time>2024-08-12T03:06:56Z</time>
      </trkpt>
      <trkpt lat="44.83801" lon="6.46474">
        <ele>1219</ele>
        <time>2024-08-12T03:06:57Z</time>
      </trkpt>
      <trkpt lat="44.83801" lon="6.46474">
        <ele>1219</ele>
        <time>2024-08-12T03:06:58Z</time>
      </trkpt>
      <trkpt lat="44.83802" lon="6.4647">
        <ele>1219</ele>
        <time>2024-08-12T03:06:59Z</time>
      </trkpt>
      <trkpt lat="44.83802" lon="6.4647">
        <ele>1219</ele>
        <time>2024-08-12T03:07:00Z</time>
      </trkpt>
      <trkpt lat="44.83803" lon="6.46466">
        <ele>1219</ele>
        <time>2024-08-12T03:07:01Z</time>
      </trkpt>
      <trkpt lat="44.83803" lon="6.46466">
        <ele>1219</ele>
        <time>2024-08-12T03:07:02Z</time>
      </trkpt>
      <trkpt lat="44.83803" lon="6.46462">
        <ele>1219</ele>
        <time>2024-08-12T03:07:03Z</time>
      </trkpt>
      <trkpt lat="44.83803" lon="6.46462">
        <ele>1219.2</ele>
        <time>2024-08-12T03:07:04Z</time>
      </trkpt>
      <trkpt lat="44.83805" lon="6.46458">
        <ele>1219.2</ele>
        <time>2024-08-12T03:07:05Z</time>
      </trkpt>
      <trkpt lat="44.83805" lon="6.46458">
        <ele>1219.2</ele>
        <time>2024-08-12T03:07:06Z</time>
      </trkpt>
      <trkpt lat="44.83806" lon="6.46455">
        <ele>1219.4</ele>
        <time>2024-08-12T03:07:07Z</time>
      </trkpt>
      <trkpt lat="44.83806" lon="6.46455">
        <ele>1219.4</ele>
        <time>2024-08-12T03:07:08Z</time>
      </trkpt>
      <trkpt lat="44.83807" lon="6.46451">
        <ele>1219.4</ele>
        <time>2024-08-12T03:07:09Z</time>
      </trkpt>
      <trkpt lat="44.83807" lon="6.46451">
        <ele>1219.6</ele>
        <time>2024-08-12T03:07:10Z</time>
      </trkpt>
      <trkpt lat="44.83809" lon="6.46449">
        <ele>1219.6</ele>
        <time>2024-08-12T03:07:11Z</time>
      </trkpt>
      <trkpt lat="44.83809" lon="6.46449">
        <ele>1219.6</ele>
        <time>2024-08-12T03:07:12Z</time>
      </trkpt>
      <trkpt lat="44.83811" lon="6.46446">
        <ele>1219.6</ele>
        <time>2024-08-12T03:07:13Z</time>
      </trkpt>
      <trkpt lat="44.83811" lon="6.46446">
        <ele>1219.6</ele>
        <time>2024-08-12T03:07:14Z</time>
      </trkpt>
      <trkpt lat="44.83813" lon="6.46443">
        <ele>1219.6</ele>
        <time>2024-08-12T03:07:15Z</time>
      </trkpt>
      <trkpt lat="44.83813" lon="6.46443">
        <ele>1219.6</ele>
        <time>2024-08-12T03:07:16Z</time>
      </trkpt>
      <trkpt lat="44.83813" lon="6.46439">
        <ele>1219.6</ele>
        <time>2024-08-12T03:07:17Z</time>
      </trkpt>
      <trkpt lat="44.83813" lon="6.46439">
        <ele>1219.6</ele>
        <time>2024-08-12T03:07:18Z</time>
      </trkpt>
      <trkpt lat="44.83814" lon="6.46435">
        <ele>1219.6</ele>
        <time>2024-08-12T03:07:19Z</time>
      </trkpt>
      <trkpt lat="44.83816" lon="6.46434">
        <ele>1219.6</ele>
        <time>2024-08-12T03:07:20Z</time>
      </trkpt>
      <trkpt lat="44.83816" lon="6.46434">
        <ele>1219.6</ele>
        <time>2024-08-12T03:07:21Z</time>
      </trkpt>
      <trkpt lat="44.83816" lon="6.4643">
        <ele>1219.6</ele>
        <time>2024-08-12T03:07:22Z</time>
      </trkpt>
      <trkpt lat="44.83816" lon="6.4643">
        <ele>1219.8</ele>
        <time>2024-08-12T03:07:23Z</time>
      </trkpt>
      <trkpt lat="44.83816" lon="6.46426">
        <ele>1219.6</ele>
        <time>2024-08-12T03:07:24Z</time>
      </trkpt>
      <trkpt lat="44.83816" lon="6.46426">
        <ele>1219.6</ele>
        <time>2024-08-12T03:07:25Z</time>
      </trkpt>
      <trkpt lat="44.83818" lon="6.46422">
        <ele>1219.6</ele>
        <time>2024-08-12T03:07:26Z</time>
      </trkpt>
      <trkpt lat="44.83818" lon="6.46422">
        <ele>1219.6</ele>
        <time>2024-08-12T03:07:27Z</time>
      </trkpt>
      <trkpt lat="44.83819" lon="6.46419">
        <ele>1220</ele>
        <time>2024-08-12T03:07:28Z</time>
      </trkpt>
      <trkpt lat="44.83821" lon="6.46417">
        <ele>1220</ele>
        <time>2024-08-12T03:07:29Z</time>
      </trkpt>
      <trkpt lat="44.83821" lon="6.46417">
        <ele>1219.8</ele>
        <time>2024-08-12T03:07:30Z</time>
      </trkpt>
      <trkpt lat="44.83821" lon="6.46415">
        <ele>1219.8</ele>
        <time>2024-08-12T03:07:31Z</time>
      </trkpt>
      <trkpt lat="44.83821" lon="6.46415">
        <ele>1219.8</ele>
        <time>2024-08-12T03:07:32Z</time>
      </trkpt>
      <trkpt lat="44.83823" lon="6.46413">
        <ele>1219.8</ele>
        <time>2024-08-12T03:07:33Z</time>
      </trkpt>
      <trkpt lat="44.83823" lon="6.46413">
        <ele>1219.8</ele>
        <time>2024-08-12T03:07:34Z</time>
      </trkpt>
      <trkpt lat="44.83825" lon="6.4641">
        <ele>1220</ele>
        <time>2024-08-12T03:07:35Z</time>
      </trkpt>
      <trkpt lat="44.83825" lon="6.4641">
        <ele>1220</ele>
        <time>2024-08-12T03:07:36Z</time>
      </trkpt>
      <trkpt lat="44.83827" lon="6.46406">
        <ele>1220</ele>
        <time>2024-08-12T03:07:37Z</time>
      </trkpt>
      <trkpt lat="44.83828" lon="6.46404">
        <ele>1220</ele>
        <time>2024-08-12T03:07:38Z</time>
      </trkpt>
      <trkpt lat="44.83828" lon="6.46404">
        <ele>1220</ele>
        <time>2024-08-12T03:07:39Z</time>
      </trkpt>
      <trkpt lat="44.8383" lon="6.46401">
        <ele>1220.2</ele>
        <time>2024-08-12T03:07:40Z</time>
      </trkpt>
      <trkpt lat="44.8383" lon="6.46401">
        <ele>1220.2</ele>
        <time>2024-08-12T03:07:41Z</time>
      </trkpt>
      <trkpt lat="44.83832" lon="6.46398">
        <ele>1220.2</ele>
        <time>2024-08-12T03:07:42Z</time>
      </trkpt>
      <trkpt lat="44.83832" lon="6.46398">
        <ele>1220.4</ele>
        <time>2024-08-12T03:07:43Z</time>
      </trkpt>
      <trkpt lat="44.83835" lon="6.46395">
        <ele>1220.4</ele>
        <time>2024-08-12T03:07:44Z</time>
      </trkpt>
      <trkpt lat="44.83835" lon="6.46395">
        <ele>1220.4</ele>
        <time>2024-08-12T03:07:45Z</time>
      </trkpt>
      <trkpt lat="44.83837" lon="6.46393">
        <ele>1220.2</ele>
        <time>2024-08-12T03:07:46Z</time>
      </trkpt>
      <trkpt lat="44.83837" lon="6.46393">
        <ele>1220.2</ele>
        <time>2024-08-12T03:07:47Z</time>
      </trkpt>
      <trkpt lat="44.83839" lon="6.4639">
        <ele>1220.2</ele>
        <time>2024-08-12T03:07:48Z</time>
      </trkpt>
      <trkpt lat="44.83839" lon="6.4639">
        <ele>1220.2</ele>
        <time>2024-08-12T03:07:49Z</time>
      </trkpt>
      <trkpt lat="44.8384" lon="6.46387">
        <ele>1220.2</ele>
        <time>2024-08-12T03:07:50Z</time>
      </trkpt>
      <trkpt lat="44.8384" lon="6.46387">
        <ele>1220.2</ele>
        <time>2024-08-12T03:07:51Z</time>
      </trkpt>
      <trkpt lat="44.83841" lon="6.46383">
        <ele>1220.4</ele>
        <time>2024-08-12T03:07:52Z</time>
      </trkpt>
      <trkpt lat="44.83841" lon="6.46383">
        <ele>1220.2</ele>
        <time>2024-08-12T03:07:53Z</time>
      </trkpt>
      <trkpt lat="44.83842" lon="6.46381">
        <ele>1220.2</ele>
        <time>2024-08-12T03:07:54Z</time>
      </trkpt>
      <trkpt lat="44.83842" lon="6.46381">
        <ele>1220</ele>
        <time>2024-08-12T03:07:55Z</time>
      </trkpt>
      <trkpt lat="44.83844" lon="6.46378">
        <ele>1220</ele>
        <time>2024-08-12T03:07:56Z</time>
      </trkpt>
      <trkpt lat="44.83844" lon="6.46378">
        <ele>1220</ele>
        <time>2024-08-12T03:07:57Z</time>
      </trkpt>
      <trkpt lat="44.83845" lon="6.46375">
        <ele>1220</ele>
        <time>2024-08-12T03:07:58Z</time>
      </trkpt>
      <trkpt lat="44.83845" lon="6.46375">
        <ele>1219.8</ele>
        <time>2024-08-12T03:07:59Z</time>
      </trkpt>
      <trkpt lat="44.83847" lon="6.46371">
        <ele>1219.8</ele>
        <time>2024-08-12T03:08:00Z</time>
      </trkpt>
      <trkpt lat="44.83847" lon="6.46371">
        <ele>1219.8</ele>
        <time>2024-08-12T03:08:01Z</time>
      </trkpt>
      <trkpt lat="44.83849" lon="6.46368">
        <ele>1220.2</ele>
        <time>2024-08-12T03:08:02Z</time>
      </trkpt>
      <trkpt lat="44.83849" lon="6.46368">
        <ele>1220.2</ele>
        <time>2024-08-12T03:08:03Z</time>
      </trkpt>
      <trkpt lat="44.83851" lon="6.46365">
        <ele>1220.2</ele>
        <time>2024-08-12T03:08:04Z</time>
      </trkpt>
      <trkpt lat="44.83851" lon="6.46365">
        <ele>1220.2</ele>
        <time>2024-08-12T03:08:05Z</time>
      </trkpt>
      <trkpt lat="44.83853" lon="6.46363">
        <ele>1220.2</ele>
        <time>2024-08-12T03:08:06Z</time>
      </trkpt>
      <trkpt lat="44.83853" lon="6.46363">
        <ele>1220</ele>
        <time>2024-08-12T03:08:07Z</time>
      </trkpt>
      <trkpt lat="44.83853" lon="6.4636">
        <ele>1220</ele>
        <time>2024-08-12T03:08:08Z</time>
      </trkpt>
      <trkpt lat="44.83853" lon="6.4636">
        <ele>1220</ele>
        <time>2024-08-12T03:08:09Z</time>
      </trkpt>
      <trkpt lat="44.83854" lon="6.46357">
        <ele>1220</ele>
        <time>2024-08-12T03:08:10Z</time>
      </trkpt>
      <trkpt lat="44.83854" lon="6.46357">
        <ele>1219.8</ele>
        <time>2024-08-12T03:08:11Z</time>
      </trkpt>
      <trkpt lat="44.83856" lon="6.46354">
        <ele>1219.4</ele>
        <time>2024-08-12T03:08:12Z</time>
      </trkpt>
      <trkpt lat="44.83856" lon="6.46354">
        <ele>1219.4</ele>
        <time>2024-08-12T03:08:13Z</time>
      </trkpt>
      <trkpt lat="44.83857" lon="6.4635">
        <ele>1219</ele>
        <time>2024-08-12T03:08:14Z</time>
      </trkpt>
      <trkpt lat="44.83857" lon="6.4635">
        <ele>1218.8</ele>
        <time>2024-08-12T03:08:15Z</time>
      </trkpt>
      <trkpt lat="44.83857" lon="6.46346">
        <ele>1218.8</ele>
        <time>2024-08-12T03:08:16Z</time>
      </trkpt>
      <trkpt lat="44.83857" lon="6.46346">
        <ele>1218.6</ele>
        <time>2024-08-12T03:08:17Z</time>
      </trkpt>
      <trkpt lat="44.83858" lon="6.46343">
        <ele>1218.6</ele>
        <time>2024-08-12T03:08:18Z</time>
      </trkpt>
      <trkpt lat="44.83858" lon="6.46343">
        <ele>1218.6</ele>
        <time>2024-08-12T03:08:19Z</time>
      </trkpt>
      <trkpt lat="44.83859" lon="6.46339">
        <ele>1218.6</ele>
        <time>2024-08-12T03:08:20Z</time>
      </trkpt>
      <trkpt lat="44.83859" lon="6.46339">
        <ele>1218.6</ele>
        <time>2024-08-12T03:08:21Z</time>
      </trkpt>
      <trkpt lat="44.8386" lon="6.46335">
        <ele>1218.8</ele>
        <time>2024-08-12T03:08:22Z</time>
      </trkpt>
      <trkpt lat="44.8386" lon="6.46335">
        <ele>1218.8</ele>
        <time>2024-08-12T03:08:23Z</time>
      </trkpt>
      <trkpt lat="44.83861" lon="6.46331">
        <ele>1219</ele>
        <time>2024-08-12T03:08:24Z</time>
      </trkpt>
      <trkpt lat="44.83861" lon="6.46331">
        <ele>1219</ele>
        <time>2024-08-12T03:08:25Z</time>
      </trkpt>
      <trkpt lat="44.8386" lon="6.46327">
        <ele>1219</ele>
        <time>2024-08-12T03:08:26Z</time>
      </trkpt>
      <trkpt lat="44.8386" lon="6.46327">
        <ele>1219</ele>
        <time>2024-08-12T03:08:27Z</time>
      </trkpt>
      <trkpt lat="44.8386" lon="6.46323">
        <ele>1219</ele>
        <time>2024-08-12T03:08:28Z</time>
      </trkpt>
      <trkpt lat="44.8386" lon="6.46323">
        <ele>1219</ele>
        <time>2024-08-12T03:08:29Z</time>
      </trkpt>
      <trkpt lat="44.8386" lon="6.46319">
        <ele>1219</ele>
        <time>2024-08-12T03:08:30Z</time>
      </trkpt>
      <trkpt lat="44.8386" lon="6.46319">
        <ele>1219</ele>
        <time>2024-08-12T03:08:31Z</time>
      </trkpt>
      <trkpt lat="44.8386" lon="6.46315">
        <ele>1219.2</ele>
        <time>2024-08-12T03:08:32Z</time>
      </trkpt>
      <trkpt lat="44.8386" lon="6.46315">
        <ele>1219.2</ele>
        <time>2024-08-12T03:08:33Z</time>
      </trkpt>
      <trkpt lat="44.8386" lon="6.46311">
        <ele>1218.8</ele>
        <time>2024-08-12T03:08:34Z</time>
      </trkpt>
      <trkpt lat="44.8386" lon="6.46311">
        <ele>1218.8</ele>
        <time>2024-08-12T03:08:35Z</time>
      </trkpt>
      <trkpt lat="44.8386" lon="6.46307">
        <ele>1218.8</ele>
        <time>2024-08-12T03:08:36Z</time>
      </trkpt>
      <trkpt lat="44.8386" lon="6.46307">
        <ele>1218.8</ele>
        <time>2024-08-12T03:08:37Z</time>
      </trkpt>
      <trkpt lat="44.83861" lon="6.46303">
        <ele>1218.6</ele>
        <time>2024-08-12T03:08:38Z</time>
      </trkpt>
      <trkpt lat="44.83861" lon="6.46303">
        <ele>1218.6</ele>
        <time>2024-08-12T03:08:39Z</time>
      </trkpt>
      <trkpt lat="44.83862" lon="6.46298">
        <ele>1218.8</ele>
        <time>2024-08-12T03:08:40Z</time>
      </trkpt>
      <trkpt lat="44.83862" lon="6.46298">
        <ele>1218.8</ele>
        <time>2024-08-12T03:08:41Z</time>
      </trkpt>
      <trkpt lat="44.83863" lon="6.46294">
        <ele>1218.8</ele>
        <time>2024-08-12T03:08:42Z</time>
      </trkpt>
      <trkpt lat="44.83863" lon="6.46294">
        <ele>1218.8</ele>
        <time>2024-08-12T03:08:43Z</time>
      </trkpt>
      <trkpt lat="44.83863" lon="6.4629">
        <ele>1218.6</ele>
        <time>2024-08-12T03:08:44Z</time>
      </trkpt>
      <trkpt lat="44.83863" lon="6.4629">
        <ele>1218.6</ele>
        <time>2024-08-12T03:08:45Z</time>
      </trkpt>
      <trkpt lat="44.83864" lon="6.46285">
        <ele>1218.6</ele>
        <time>2024-08-12T03:08:46Z</time>
      </trkpt>
      <trkpt lat="44.83864" lon="6.46285">
        <ele>1218.6</ele>
        <time>2024-08-12T03:08:47Z</time>
      </trkpt>
      <trkpt lat="44.83865" lon="6.46282">
        <ele>1218.6</ele>
        <time>2024-08-12T03:08:48Z</time>
      </trkpt>
      <trkpt lat="44.83865" lon="6.46282">
        <ele>1218.4</ele>
        <time>2024-08-12T03:08:49Z</time>
      </trkpt>
      <trkpt lat="44.83866" lon="6.46278">
        <ele>1218.4</ele>
        <time>2024-08-12T03:08:50Z</time>
      </trkpt>
      <trkpt lat="44.83866" lon="6.46278">
        <ele>1218.4</ele>
        <time>2024-08-12T03:08:51Z</time>
      </trkpt>
      <trkpt lat="44.83867" lon="6.46274">
        <ele>1218.2</ele>
        <time>2024-08-12T03:08:52Z</time>
      </trkpt>
      <trkpt lat="44.83867" lon="6.46274">
        <ele>1218.2</ele>
        <time>2024-08-12T03:08:53Z</time>
      </trkpt>
      <trkpt lat="44.83867" lon="6.4627">
        <ele>1218.2</ele>
        <time>2024-08-12T03:08:54Z</time>
      </trkpt>
      <trkpt lat="44.83867" lon="6.4627">
        <ele>1218</ele>
        <time>2024-08-12T03:08:55Z</time>
      </trkpt>
      <trkpt lat="44.83868" lon="6.46265">
        <ele>1218</ele>
        <time>2024-08-12T03:08:56Z</time>
      </trkpt>
      <trkpt lat="44.83868" lon="6.46265">
        <ele>1218</ele>
        <time>2024-08-12T03:08:57Z</time>
      </trkpt>
      <trkpt lat="44.83868" lon="6.46261">
        <ele>1218</ele>
        <time>2024-08-12T03:08:58Z</time>
      </trkpt>
      <trkpt lat="44.83868" lon="6.46261">
        <ele>1217.8</ele>
        <time>2024-08-12T03:08:59Z</time>
      </trkpt>
      <trkpt lat="44.83869" lon="6.46258">
        <ele>1217.6</ele>
        <time>2024-08-12T03:09:00Z</time>
      </trkpt>
      <trkpt lat="44.83869" lon="6.46258">
        <ele>1217.6</ele>
        <time>2024-08-12T03:09:01Z</time>
      </trkpt>
      <trkpt lat="44.83869" lon="6.46254">
        <ele>1218</ele>
        <time>2024-08-12T03:09:02Z</time>
      </trkpt>
      <trkpt lat="44.83869" lon="6.46254">
        <ele>1218</ele>
        <time>2024-08-12T03:09:03Z</time>
      </trkpt>
      <trkpt lat="44.83869" lon="6.4625">
        <ele>1217.8</ele>
        <time>2024-08-12T03:09:04Z</time>
      </trkpt>
      <trkpt lat="44.83869" lon="6.4625">
        <ele>1217.8</ele>
        <time>2024-08-12T03:09:05Z</time>
      </trkpt>
      <trkpt lat="44.8387" lon="6.46248">
        <ele>1218</ele>
        <time>2024-08-12T03:09:06Z</time>
      </trkpt>
      <trkpt lat="44.8387" lon="6.46248">
        <ele>1218.2</ele>
        <time>2024-08-12T03:09:07Z</time>
      </trkpt>
      <trkpt lat="44.83871" lon="6.46244">
        <ele>1218.4</ele>
        <time>2024-08-12T03:09:08Z</time>
      </trkpt>
      <trkpt lat="44.83871" lon="6.46244">
        <ele>1218.4</ele>
        <time>2024-08-12T03:09:09Z</time>
      </trkpt>
      <trkpt lat="44.83871" lon="6.4624">
        <ele>1218.4</ele>
        <time>2024-08-12T03:09:10Z</time>
      </trkpt>
      <trkpt lat="44.83871" lon="6.4624">
        <ele>1218.2</ele>
        <time>2024-08-12T03:09:11Z</time>
      </trkpt>
      <trkpt lat="44.83872" lon="6.46236">
        <ele>1218.2</ele>
        <time>2024-08-12T03:09:12Z</time>
      </trkpt>
      <trkpt lat="44.83872" lon="6.46236">
        <ele>1218</ele>
        <time>2024-08-12T03:09:13Z</time>
      </trkpt>
      <trkpt lat="44.83873" lon="6.46233">
        <ele>1218</ele>
        <time>2024-08-12T03:09:14Z</time>
      </trkpt>
      <trkpt lat="44.83873" lon="6.46233">
        <ele>1218</ele>
        <time>2024-08-12T03:09:15Z</time>
      </trkpt>
      <trkpt lat="44.83874" lon="6.46229">
        <ele>1217.6</ele>
        <time>2024-08-12T03:09:16Z</time>
      </trkpt>
      <trkpt lat="44.83874" lon="6.46229">
        <ele>1217.4</ele>
        <time>2024-08-12T03:09:17Z</time>
      </trkpt>
      <trkpt lat="44.83875" lon="6.46225">
        <ele>1217.2</ele>
        <time>2024-08-12T03:09:18Z</time>
      </trkpt>
      <trkpt lat="44.83875" lon="6.46225">
        <ele>1217</ele>
        <time>2024-08-12T03:09:19Z</time>
      </trkpt>
      <trkpt lat="44.83876" lon="6.46222">
        <ele>1216.8</ele>
        <time>2024-08-12T03:09:20Z</time>
      </trkpt>
      <trkpt lat="44.83876" lon="6.46222">
        <ele>1216.8</ele>
        <time>2024-08-12T03:09:21Z</time>
      </trkpt>
      <trkpt lat="44.83876" lon="6.46218">
        <ele>1216.8</ele>
        <time>2024-08-12T03:09:22Z</time>
      </trkpt>
      <trkpt lat="44.83876" lon="6.46218">
        <ele>1216.6</ele>
        <time>2024-08-12T03:09:23Z</time>
      </trkpt>
      <trkpt lat="44.83877" lon="6.46215">
        <ele>1216.4</ele>
        <time>2024-08-12T03:09:24Z</time>
      </trkpt>
      <trkpt lat="44.83877" lon="6.46215">
        <ele>1216</ele>
        <time>2024-08-12T03:09:25Z</time>
      </trkpt>
      <trkpt lat="44.83877" lon="6.46211">
        <ele>1216</ele>
        <time>2024-08-12T03:09:26Z</time>
      </trkpt>
      <trkpt lat="44.83877" lon="6.46211">
        <ele>1216</ele>
        <time>2024-08-12T03:09:27Z</time>
      </trkpt>
      <trkpt lat="44.83878" lon="6.46207">
        <ele>1216</ele>
        <time>2024-08-12T03:09:28Z</time>
      </trkpt>
      <trkpt lat="44.83878" lon="6.46207">
        <ele>1216</ele>
        <time>2024-08-12T03:09:29Z</time>
      </trkpt>
      <trkpt lat="44.83879" lon="6.46204">
        <ele>1215.6</ele>
        <time>2024-08-12T03:09:30Z</time>
      </trkpt>
      <trkpt lat="44.83879" lon="6.46204">
        <ele>1215.6</ele>
        <time>2024-08-12T03:09:31Z</time>
      </trkpt>
      <trkpt lat="44.8388" lon="6.462">
        <ele>1215.6</ele>
        <time>2024-08-12T03:09:32Z</time>
      </trkpt>
      <trkpt lat="44.8388" lon="6.462">
        <ele>1215.4</ele>
        <time>2024-08-12T03:09:33Z</time>
      </trkpt>
      <trkpt lat="44.8388" lon="6.46196">
        <ele>1215.4</ele>
        <time>2024-08-12T03:09:34Z</time>
      </trkpt>
      <trkpt lat="44.8388" lon="6.46196">
        <ele>1215.2</ele>
        <time>2024-08-12T03:09:35Z</time>
      </trkpt>
      <trkpt lat="44.83881" lon="6.46192">
        <ele>1215</ele>
        <time>2024-08-12T03:09:36Z</time>
      </trkpt>
      <trkpt lat="44.83881" lon="6.46192">
        <ele>1214.8</ele>
        <time>2024-08-12T03:09:37Z</time>
      </trkpt>
      <trkpt lat="44.83882" lon="6.46188">
        <ele>1214.6</ele>
        <time>2024-08-12T03:09:38Z</time>
      </trkpt>
      <trkpt lat="44.83882" lon="6.46188">
        <ele>1214.6</ele>
        <time>2024-08-12T03:09:39Z</time>
      </trkpt>
      <trkpt lat="44.83883" lon="6.46185">
        <ele>1214.6</ele>
        <time>2024-08-12T03:09:40Z</time>
      </trkpt>
      <trkpt lat="44.83883" lon="6.46185">
        <ele>1214.6</ele>
        <time>2024-08-12T03:09:41Z</time>
      </trkpt>
      <trkpt lat="44.83885" lon="6.46181">
        <ele>1214.2</ele>
        <time>2024-08-12T03:09:42Z</time>
      </trkpt>
      <trkpt lat="44.83885" lon="6.46181">
        <ele>1214</ele>
        <time>2024-08-12T03:09:43Z</time>
      </trkpt>
      <trkpt lat="44.83886" lon="6.46177">
        <ele>1214</ele>
        <time>2024-08-12T03:09:44Z</time>
      </trkpt>
      <trkpt lat="44.83886" lon="6.46177">
        <ele>1214</ele>
        <time>2024-08-12T03:09:45Z</time>
      </trkpt>
      <trkpt lat="44.83887" lon="6.46173">
        <ele>1214</ele>
        <time>2024-08-12T03:09:46Z</time>
      </trkpt>
      <trkpt lat="44.83887" lon="6.46173">
        <ele>1214</ele>
        <time>2024-08-12T03:09:47Z</time>
      </trkpt>
      <trkpt lat="44.83887" lon="6.4617">
        <ele>1213.8</ele>
        <time>2024-08-12T03:09:48Z</time>
      </trkpt>
      <trkpt lat="44.83887" lon="6.4617">
        <ele>1213.6</ele>
        <time>2024-08-12T03:09:49Z</time>
      </trkpt>
      <trkpt lat="44.83889" lon="6.46166">
        <ele>1213.4</ele>
        <time>2024-08-12T03:09:50Z</time>
      </trkpt>
      <trkpt lat="44.83889" lon="6.46166">
        <ele>1213.4</ele>
        <time>2024-08-12T03:09:51Z</time>
      </trkpt>
      <trkpt lat="44.83889" lon="6.46161">
        <ele>1213.2</ele>
        <time>2024-08-12T03:09:52Z</time>
      </trkpt>
      <trkpt lat="44.83889" lon="6.46161">
        <ele>1213</ele>
        <time>2024-08-12T03:09:53Z</time>
      </trkpt>
      <trkpt lat="44.83889" lon="6.46158">
        <ele>1213</ele>
        <time>2024-08-12T03:09:54Z</time>
      </trkpt>
      <trkpt lat="44.83889" lon="6.46158">
        <ele>1213</ele>
        <time>2024-08-12T03:09:55Z</time>
      </trkpt>
      <trkpt lat="44.8389" lon="6.46154">
        <ele>1212.8</ele>
        <time>2024-08-12T03:09:56Z</time>
      </trkpt>
      <trkpt lat="44.8389" lon="6.46154">
        <ele>1212.8</ele>
        <time>2024-08-12T03:09:57Z</time>
      </trkpt>
      <trkpt lat="44.8389" lon="6.46151">
        <ele>1212.8</ele>
        <time>2024-08-12T03:09:58Z</time>
      </trkpt>
      <trkpt lat="44.8389" lon="6.46151">
        <ele>1213</ele>
        <time>2024-08-12T03:09:59Z</time>
      </trkpt>
      <trkpt lat="44.83891" lon="6.46147">
        <ele>1213</ele>
        <time>2024-08-12T03:10:00Z</time>
      </trkpt>
      <trkpt lat="44.83891" lon="6.46147">
        <ele>1213</ele>
        <time>2024-08-12T03:10:01Z</time>
      </trkpt>
      <trkpt lat="44.83892" lon="6.46144">
        <ele>1213.2</ele>
        <time>2024-08-12T03:10:02Z</time>
      </trkpt>
      <trkpt lat="44.83892" lon="6.46144">
        <ele>1213.4</ele>
        <time>2024-08-12T03:10:03Z</time>
      </trkpt>
      <trkpt lat="44.83893" lon="6.4614">
        <ele>1213.4</ele>
        <time>2024-08-12T03:10:04Z</time>
      </trkpt>
      <trkpt lat="44.83893" lon="6.4614">
        <ele>1213.4</ele>
        <time>2024-08-12T03:10:05Z</time>
      </trkpt>
      <trkpt lat="44.83894" lon="6.46137">
        <ele>1213.6</ele>
        <time>2024-08-12T03:10:06Z</time>
      </trkpt>
      <trkpt lat="44.83894" lon="6.46137">
        <ele>1213.6</ele>
        <time>2024-08-12T03:10:07Z</time>
      </trkpt>
      <trkpt lat="44.83895" lon="6.46133">
        <ele>1213.6</ele>
        <time>2024-08-12T03:10:08Z</time>
      </trkpt>
      <trkpt lat="44.83895" lon="6.46133">
        <ele>1213.6</ele>
        <time>2024-08-12T03:10:09Z</time>
      </trkpt>
      <trkpt lat="44.83895" lon="6.4613">
        <ele>1213.6</ele>
        <time>2024-08-12T03:10:10Z</time>
      </trkpt>
      <trkpt lat="44.83895" lon="6.4613">
        <ele>1213.8</ele>
        <time>2024-08-12T03:10:11Z</time>
      </trkpt>
      <trkpt lat="44.83895" lon="6.46127">
        <ele>1214</ele>
        <time>2024-08-12T03:10:12Z</time>
      </trkpt>
      <trkpt lat="44.83895" lon="6.46127">
        <ele>1214</ele>
        <time>2024-08-12T03:10:13Z</time>
      </trkpt>
      <trkpt lat="44.83894" lon="6.46123">
        <ele>1214</ele>
        <time>2024-08-12T03:10:14Z</time>
      </trkpt>
      <trkpt lat="44.83894" lon="6.46123">
        <ele>1214.2</ele>
        <time>2024-08-12T03:10:15Z</time>
      </trkpt>
      <trkpt lat="44.83894" lon="6.4612">
        <ele>1214.4</ele>
        <time>2024-08-12T03:10:16Z</time>
      </trkpt>
      <trkpt lat="44.83894" lon="6.4612">
        <ele>1214.4</ele>
        <time>2024-08-12T03:10:17Z</time>
      </trkpt>
      <trkpt lat="44.83894" lon="6.46116">
        <ele>1214.4</ele>
        <time>2024-08-12T03:10:18Z</time>
      </trkpt>
      <trkpt lat="44.83894" lon="6.46116">
        <ele>1214.6</ele>
        <time>2024-08-12T03:10:19Z</time>
      </trkpt>
      <trkpt lat="44.83893" lon="6.46113">
        <ele>1214.6</ele>
        <time>2024-08-12T03:10:20Z</time>
      </trkpt>
      <trkpt lat="44.83893" lon="6.46113">
        <ele>1214.6</ele>
        <time>2024-08-12T03:10:21Z</time>
      </trkpt>
      <trkpt lat="44.83893" lon="6.46109">
        <ele>1214.8</ele>
        <time>2024-08-12T03:10:22Z</time>
      </trkpt>
      <trkpt lat="44.83893" lon="6.46109">
        <ele>1214.8</ele>
        <time>2024-08-12T03:10:23Z</time>
      </trkpt>
      <trkpt lat="44.83893" lon="6.46106">
        <ele>1214.8</ele>
        <time>2024-08-12T03:10:24Z</time>
      </trkpt>
      <trkpt lat="44.83893" lon="6.46106">
        <ele>1214.8</ele>
        <time>2024-08-12T03:10:25Z</time>
      </trkpt>
      <trkpt lat="44.83892" lon="6.46103">
        <ele>1215</ele>
        <time>2024-08-12T03:10:26Z</time>
      </trkpt>
      <trkpt lat="44.83892" lon="6.46103">
        <ele>1215</ele>
        <time>2024-08-12T03:10:27Z</time>
      </trkpt>
      <trkpt lat="44.83892" lon="6.46103">
        <ele>1215.2</ele>
        <time>2024-08-12T03:10:28Z</time>
      </trkpt>
      <trkpt lat="44.83892" lon="6.46103">
        <ele>1215.2</ele>
        <time>2024-08-12T03:10:29Z</time>
      </trkpt>
      <trkpt lat="44.83892" lon="6.46103">
        <ele>1215.4</ele>
        <time>2024-08-12T03:10:30Z</time>
      </trkpt>
      <trkpt lat="44.83892" lon="6.46103">
        <ele>1215.4</ele>
        <time>2024-08-12T03:10:31Z</time>
      </trkpt>
      <trkpt lat="44.83892" lon="6.46099">
        <ele>1215.6</ele>
        <time>2024-08-12T03:10:32Z</time>
      </trkpt>
      <trkpt lat="44.83892" lon="6.46099">
        <ele>1215.6</ele>
        <time>2024-08-12T03:10:33Z</time>
      </trkpt>
      <trkpt lat="44.83892" lon="6.46099">
        <ele>1215.6</ele>
        <time>2024-08-12T03:10:34Z</time>
      </trkpt>
      <trkpt lat="44.83892" lon="6.46099">
        <ele>1215.6</ele>
        <time>2024-08-12T03:10:35Z</time>
      </trkpt>
      <trkpt lat="44.83892" lon="6.46099">
        <ele>1215.6</ele>
        <time>2024-08-12T03:10:36Z</time>
      </trkpt>
      <trkpt lat="44.83892" lon="6.46099">
        <ele>1216</ele>
        <time>2024-08-12T03:10:37Z</time>
      </trkpt>
      <trkpt lat="44.83892" lon="6.46099">
        <ele>1216</ele>
        <time>2024-08-12T03:10:38Z</time>
      </trkpt>
      <trkpt lat="44.83892" lon="6.46099">
        <ele>1215.8</ele>
        <time>2024-08-12T03:10:39Z</time>
      </trkpt>
      <trkpt lat="44.83892" lon="6.46099">
        <ele>1215.6</ele>
        <time>2024-08-12T03:10:40Z</time>
      </trkpt>
      <trkpt lat="44.83892" lon="6.46099">
        <ele>1215.6</ele>
        <time>2024-08-12T03:10:41Z</time>
      </trkpt>
      <trkpt lat="44.83891" lon="6.46097">
        <ele>1215.6</ele>
        <time>2024-08-12T03:10:42Z</time>
      </trkpt>
      <trkpt lat="44.83891" lon="6.46097">
        <ele>1215.6</ele>
        <time>2024-08-12T03:10:43Z</time>
      </trkpt>
      <trkpt lat="44.83891" lon="6.46097">
        <ele>1215.4</ele>
        <time>2024-08-12T03:10:44Z</time>
      </trkpt>
      <trkpt lat="44.83891" lon="6.46097">
        <ele>1215.4</ele>
        <time>2024-08-12T03:10:45Z</time>
      </trkpt>
      <trkpt lat="44.83891" lon="6.46097">
        <ele>1215.4</ele>
        <time>2024-08-12T03:10:46Z</time>
      </trkpt>
      <trkpt lat="44.83891" lon="6.46097">
        <ele>1215.2</ele>
        <time>2024-08-12T03:10:47Z</time>
      </trkpt>
      <trkpt lat="44.83891" lon="6.46097">
        <ele>1215.2</ele>
        <time>2024-08-12T03:10:48Z</time>
      </trkpt>
      <trkpt lat="44.83891" lon="6.46097">
        <ele>1215.4</ele>
        <time>2024-08-12T03:10:49Z</time>
      </trkpt>
      <trkpt lat="44.83891" lon="6.46097">
        <ele>1215.4</ele>
        <time>2024-08-12T03:10:50Z</time>
      </trkpt>
      <trkpt lat="44.83891" lon="6.46097">
        <ele>1215.4</ele>
        <time>2024-08-12T03:10:51Z</time>
      </trkpt>
      <trkpt lat="44.83891" lon="6.46097">
        <ele>1215.2</ele>
        <time>2024-08-12T03:10:52Z</time>
      </trkpt>
      <trkpt lat="44.83891" lon="6.46097">
        <ele>1215.2</ele>
        <time>2024-08-12T03:10:53Z</time>
      </trkpt>
      <trkpt lat="44.83891" lon="6.46097">
        <ele>1215.6</ele>
        <time>2024-08-12T03:10:54Z</time>
      </trkpt>
      <trkpt lat="44.83891" lon="6.46097">
        <ele>1215.6</ele>
        <time>2024-08-12T03:10:55Z</time>
      </trkpt>
      <trkpt lat="44.83891" lon="6.46097">
        <ele>1215.6</ele>
        <time>2024-08-12T03:10:56Z</time>
      </trkpt>
      <trkpt lat="44.83891" lon="6.46097">
        <ele>1215.4</ele>
        <time>2024-08-12T03:10:57Z</time>
      </trkpt>
      <trkpt lat="44.83891" lon="6.46097">
        <ele>1215.2</ele>
        <time>2024-08-12T03:10:58Z</time>
      </trkpt>
      <trkpt lat="44.83891" lon="6.46097">
        <ele>1215</ele>
        <time>2024-08-12T03:10:59Z</time>
      </trkpt>
      <trkpt lat="44.83891" lon="6.46097">
        <ele>1214.8</ele>
        <time>2024-08-12T03:11:00Z</time>
      </trkpt>
      <trkpt lat="44.83891" lon="6.46097">
        <ele>1214.8</ele>
        <time>2024-08-12T03:11:01Z</time>
      </trkpt>
      <trkpt lat="44.83891" lon="6.46097">
        <ele>1214.6</ele>
        <time>2024-08-12T03:11:02Z</time>
      </trkpt>
      <trkpt lat="44.83891" lon="6.46097">
        <ele>1214.6</ele>
        <time>2024-08-12T03:11:03Z</time>
      </trkpt>
      <trkpt lat="44.83891" lon="6.46097">
        <ele>1214.6</ele>
        <time>2024-08-12T03:11:04Z</time>
      </trkpt>
      <trkpt lat="44.83891" lon="6.46097">
        <ele>1214.6</ele>
        <time>2024-08-12T03:11:05Z</time>
      </trkpt>
      <trkpt lat="44.83891" lon="6.46097">
        <ele>1214.4</ele>
        <time>2024-08-12T03:11:06Z</time>
      </trkpt>
      <trkpt lat="44.83891" lon="6.46097">
        <ele>1214.4</ele>
        <time>2024-08-12T03:11:07Z</time>
      </trkpt>
      <trkpt lat="44.83891" lon="6.46097">
        <ele>1214.4</ele>
        <time>2024-08-12T03:11:08Z</time>
      </trkpt>
      <trkpt lat="44.83891" lon="6.46097">
        <ele>1214.6</ele>
        <time>2024-08-12T03:11:09Z</time>
      </trkpt>
      <trkpt lat="44.83891" lon="6.46097">
        <ele>1214.6</ele>
        <time>2024-08-12T03:11:10Z</time>
      </trkpt>
      <trkpt lat="44.83891" lon="6.46097">
        <ele>1214.6</ele>
        <time>2024-08-12T03:11:11Z</time>
      </trkpt>
      <trkpt lat="44.83891" lon="6.46097">
        <ele>1214.6</ele>
        <time>2024-08-12T03:11:12Z</time>
      </trkpt>
      <trkpt lat="44.83891" lon="6.46097">
        <ele>1214.6</ele>
        <time>2024-08-12T03:11:13Z</time>
      </trkpt>
      <trkpt lat="44.83891" lon="6.46097">
        <ele>1214.6</ele>
        <time>2024-08-12T03:11:14Z</time>
      </trkpt>
      <trkpt lat="44.83891" lon="6.46097">
        <ele>1214.6</ele>
        <time>2024-08-12T03:11:15Z</time>
      </trkpt>
      <trkpt lat="44.83891" lon="6.46097">
        <ele>1214.4</ele>
        <time>2024-08-12T03:11:16Z</time>
      </trkpt>
      <trkpt lat="44.8389" lon="6.46093">
        <ele>1214.4</ele>
        <time>2024-08-12T03:11:17Z</time>
      </trkpt>
      <trkpt lat="44.83889" lon="6.46091">
        <ele>1214.4</ele>
        <time>2024-08-12T03:11:18Z</time>
      </trkpt>
      <trkpt lat="44.83889" lon="6.46091">
        <ele>1214.4</ele>
        <time>2024-08-12T03:11:19Z</time>
      </trkpt>
      <trkpt lat="44.83889" lon="6.46086">
        <ele>1214.4</ele>
        <time>2024-08-12T03:11:20Z</time>
      </trkpt>
      <trkpt lat="44.83889" lon="6.46086">
        <ele>1214.2</ele>
        <time>2024-08-12T03:11:21Z</time>
      </trkpt>
      <trkpt lat="44.83889" lon="6.46086">
        <ele>1214.4</ele>
        <time>2024-08-12T03:11:22Z</time>
      </trkpt>
      <trkpt lat="44.83889" lon="6.46083">
        <ele>1214.4</ele>
        <time>2024-08-12T03:11:23Z</time>
      </trkpt>
      <trkpt lat="44.83889" lon="6.46083">
        <ele>1214.4</ele>
        <time>2024-08-12T03:11:24Z</time>
      </trkpt>
      <trkpt lat="44.83889" lon="6.4608">
        <ele>1214.4</ele>
        <time>2024-08-12T03:11:25Z</time>
      </trkpt>
      <trkpt lat="44.83889" lon="6.4608">
        <ele>1214.2</ele>
        <time>2024-08-12T03:11:26Z</time>
      </trkpt>
      <trkpt lat="44.83889" lon="6.46077">
        <ele>1214.4</ele>
        <time>2024-08-12T03:11:27Z</time>
      </trkpt>
      <trkpt lat="44.83889" lon="6.46077">
        <ele>1214.4</ele>
        <time>2024-08-12T03:11:28Z</time>
      </trkpt>
      <trkpt lat="44.83889" lon="6.46077">
        <ele>1214.4</ele>
        <time>2024-08-12T03:11:29Z</time>
      </trkpt>
      <trkpt lat="44.83889" lon="6.46074">
        <ele>1214.4</ele>
        <time>2024-08-12T03:11:30Z</time>
      </trkpt>
      <trkpt lat="44.83889" lon="6.46074">
        <ele>1214.4</ele>
        <time>2024-08-12T03:11:31Z</time>
      </trkpt>
      <trkpt lat="44.83889" lon="6.46074">
        <ele>1214.6</ele>
        <time>2024-08-12T03:11:32Z</time>
      </trkpt>
      <trkpt lat="44.83889" lon="6.46071">
        <ele>1214.6</ele>
        <time>2024-08-12T03:11:33Z</time>
      </trkpt>
      <trkpt lat="44.83889" lon="6.46071">
        <ele>1214.6</ele>
        <time>2024-08-12T03:11:34Z</time>
      </trkpt>
      <trkpt lat="44.83889" lon="6.46068">
        <ele>1214.8</ele>
        <time>2024-08-12T03:11:35Z</time>
      </trkpt>
      <trkpt lat="44.83889" lon="6.46068">
        <ele>1214.8</ele>
        <time>2024-08-12T03:11:36Z</time>
      </trkpt>
      <trkpt lat="44.8389" lon="6.46065">
        <ele>1214.8</ele>
        <time>2024-08-12T03:11:37Z</time>
      </trkpt>
      <trkpt lat="44.8389" lon="6.46065">
        <ele>1214.8</ele>
        <time>2024-08-12T03:11:38Z</time>
      </trkpt>
      <trkpt lat="44.8389" lon="6.46065">
        <ele>1214.8</ele>
        <time>2024-08-12T03:11:39Z</time>
      </trkpt>
      <trkpt lat="44.83891" lon="6.46063">
        <ele>1214.8</ele>
        <time>2024-08-12T03:11:40Z</time>
      </trkpt>
      <trkpt lat="44.83891" lon="6.46063">
        <ele>1215</ele>
        <time>2024-08-12T03:11:41Z</time>
      </trkpt>
      <trkpt lat="44.83891" lon="6.46063">
        <ele>1215</ele>
        <time>2024-08-12T03:11:42Z</time>
      </trkpt>
      <trkpt lat="44.83892" lon="6.4606">
        <ele>1215</ele>
        <time>2024-08-12T03:11:43Z</time>
      </trkpt>
      <trkpt lat="44.83892" lon="6.4606">
        <ele>1215</ele>
        <time>2024-08-12T03:11:44Z</time>
      </trkpt>
      <trkpt lat="44.83893" lon="6.46058">
        <ele>1215</ele>
        <time>2024-08-12T03:11:45Z</time>
      </trkpt>
      <trkpt lat="44.83893" lon="6.46058">
        <ele>1215</ele>
        <time>2024-08-12T03:11:46Z</time>
      </trkpt>
      <trkpt lat="44.83893" lon="6.46058">
        <ele>1215</ele>
        <time>2024-08-12T03:11:47Z</time>
      </trkpt>
      <trkpt lat="44.83893" lon="6.46055">
        <ele>1215</ele>
        <time>2024-08-12T03:11:48Z</time>
      </trkpt>
      <trkpt lat="44.83893" lon="6.46055">
        <ele>1215</ele>
        <time>2024-08-12T03:11:49Z</time>
      </trkpt>
      <trkpt lat="44.83894" lon="6.46053">
        <ele>1215</ele>
        <time>2024-08-12T03:11:50Z</time>
      </trkpt>
      <trkpt lat="44.83894" lon="6.46053">
        <ele>1215.2</ele>
        <time>2024-08-12T03:11:51Z</time>
      </trkpt>
      <trkpt lat="44.83894" lon="6.46053">
        <ele>1215.4</ele>
        <time>2024-08-12T03:11:52Z</time>
      </trkpt>
      <trkpt lat="44.83894" lon="6.46053">
        <ele>1215.6</ele>
        <time>2024-08-12T03:11:53Z</time>
      </trkpt>
      <trkpt lat="44.83894" lon="6.46053">
        <ele>1215.8</ele>
        <time>2024-08-12T03:11:54Z</time>
      </trkpt>
      <trkpt lat="44.83894" lon="6.46053">
        <ele>1215.8</ele>
        <time>2024-08-12T03:11:55Z</time>
      </trkpt>
      <trkpt lat="44.83894" lon="6.46053">
        <ele>1215.6</ele>
        <time>2024-08-12T03:11:56Z</time>
      </trkpt>
      <trkpt lat="44.83894" lon="6.46053">
        <ele>1215.6</ele>
        <time>2024-08-12T03:11:57Z</time>
      </trkpt>
      <trkpt lat="44.83894" lon="6.46053">
        <ele>1215.6</ele>
        <time>2024-08-12T03:11:58Z</time>
      </trkpt>
      <trkpt lat="44.83894" lon="6.46053">
        <ele>1215.6</ele>
        <time>2024-08-12T03:11:59Z</time>
      </trkpt>
      <trkpt lat="44.83894" lon="6.46053">
        <ele>1215.4</ele>
        <time>2024-08-12T03:12:00Z</time>
      </trkpt>
      <trkpt lat="44.83893" lon="6.46051">
        <ele>1215.4</ele>
        <time>2024-08-12T03:12:01Z</time>
      </trkpt>
      <trkpt lat="44.83893" lon="6.46051">
        <ele>1215.6</ele>
        <time>2024-08-12T03:12:02Z</time>
      </trkpt>
      <trkpt lat="44.83892" lon="6.46049">
        <ele>1215.6</ele>
        <time>2024-08-12T03:12:03Z</time>
      </trkpt>
      <trkpt lat="44.83892" lon="6.46049">
        <ele>1215.6</ele>
        <time>2024-08-12T03:12:04Z</time>
      </trkpt>
      <trkpt lat="44.8389" lon="6.46045">
        <ele>1215.6</ele>
        <time>2024-08-12T03:12:05Z</time>
      </trkpt>
      <trkpt lat="44.8389" lon="6.46045">
        <ele>1215.8</ele>
        <time>2024-08-12T03:12:06Z</time>
      </trkpt>
      <trkpt lat="44.83889" lon="6.46043">
        <ele>1215.8</ele>
        <time>2024-08-12T03:12:07Z</time>
      </trkpt>
      <trkpt lat="44.83889" lon="6.46043">
        <ele>1215.8</ele>
        <time>2024-08-12T03:12:08Z</time>
      </trkpt>
      <trkpt lat="44.83889" lon="6.46043">
        <ele>1215.8</ele>
        <time>2024-08-12T03:12:09Z</time>
      </trkpt>
      <trkpt lat="44.83889" lon="6.46043">
        <ele>1215.8</ele>
        <time>2024-08-12T03:12:10Z</time>
      </trkpt>
      <trkpt lat="44.83889" lon="6.46043">
        <ele>1215.8</ele>
        <time>2024-08-12T03:12:11Z</time>
      </trkpt>
      <trkpt lat="44.83889" lon="6.46043">
        <ele>1215.8</ele>
        <time>2024-08-12T03:12:12Z</time>
      </trkpt>
      <trkpt lat="44.83889" lon="6.46043">
        <ele>1215.8</ele>
        <time>2024-08-12T03:12:13Z</time>
      </trkpt>
      <trkpt lat="44.83889" lon="6.46043">
        <ele>1216</ele>
        <time>2024-08-12T03:12:14Z</time>
      </trkpt>
      <trkpt lat="44.83889" lon="6.46043">
        <ele>1216</ele>
        <time>2024-08-12T03:12:15Z</time>
      </trkpt>
      <trkpt lat="44.83889" lon="6.46043">
        <ele>1216</ele>
        <time>2024-08-12T03:12:16Z</time>
      </trkpt>
      <trkpt lat="44.83889" lon="6.46043">
        <ele>1216</ele>
        <time>2024-08-12T03:12:17Z</time>
      </trkpt>
      <trkpt lat="44.83889" lon="6.46043">
        <ele>1216</ele>
        <time>2024-08-12T03:12:18Z</time>
      </trkpt>
      <trkpt lat="44.83889" lon="6.46043">
        <ele>1216</ele>
        <time>2024-08-12T03:12:19Z</time>
      </trkpt>
      <trkpt lat="44.83889" lon="6.46043">
        <ele>1216</ele>
        <time>2024-08-12T03:12:20Z</time>
      </trkpt>
      <trkpt lat="44.83889" lon="6.46043">
        <ele>1216</ele>
        <time>2024-08-12T03:12:21Z</time>
      </trkpt>
      <trkpt lat="44.83889" lon="6.46043">
        <ele>1215.8</ele>
        <time>2024-08-12T03:12:22Z</time>
      </trkpt>
      <trkpt lat="44.83889" lon="6.46043">
        <ele>1215.8</ele>
        <time>2024-08-12T03:12:23Z</time>
      </trkpt>
      <trkpt lat="44.83887" lon="6.46043">
        <ele>1215.6</ele>
        <time>2024-08-12T03:12:24Z</time>
      </trkpt>
      <trkpt lat="44.83887" lon="6.46043">
        <ele>1215.6</ele>
        <time>2024-08-12T03:12:25Z</time>
      </trkpt>
      <trkpt lat="44.83887" lon="6.46043">
        <ele>1215.6</ele>
        <time>2024-08-12T03:12:26Z</time>
      </trkpt>
      <trkpt lat="44.83887" lon="6.46043">
        <ele>1215.8</ele>
        <time>2024-08-12T03:12:27Z</time>
      </trkpt>
      <trkpt lat="44.83887" lon="6.46043">
        <ele>1215.8</ele>
        <time>2024-08-12T03:12:28Z</time>
      </trkpt>
      <trkpt lat="44.83887" lon="6.46043">
        <ele>1215.8</ele>
        <time>2024-08-12T03:12:29Z</time>
      </trkpt>
      <trkpt lat="44.83885" lon="6.46043">
        <ele>1215.8</ele>
        <time>2024-08-12T03:12:30Z</time>
      </trkpt>
      <trkpt lat="44.83885" lon="6.46043">
        <ele>1216</ele>
        <time>2024-08-12T03:12:31Z</time>
      </trkpt>
      <trkpt lat="44.83885" lon="6.46043">
        <ele>1216</ele>
        <time>2024-08-12T03:12:32Z</time>
      </trkpt>
      <trkpt lat="44.83885" lon="6.46043">
        <ele>1216</ele>
        <time>2024-08-12T03:12:33Z</time>
      </trkpt>
      <trkpt lat="44.83885" lon="6.46043">
        <ele>1216</ele>
        <time>2024-08-12T03:12:34Z</time>
      </trkpt>
      <trkpt lat="44.83884" lon="6.46041">
        <ele>1215.8</ele>
        <time>2024-08-12T03:12:35Z</time>
      </trkpt>
      <trkpt lat="44.83884" lon="6.46041">
        <ele>1215.8</ele>
        <time>2024-08-12T03:12:36Z</time>
      </trkpt>
      <trkpt lat="44.83883" lon="6.46038">
        <ele>1216</ele>
        <time>2024-08-12T03:12:37Z</time>
      </trkpt>
      <trkpt lat="44.83883" lon="6.46038">
        <ele>1216.2</ele>
        <time>2024-08-12T03:12:38Z</time>
      </trkpt>
      <trkpt lat="44.83883" lon="6.46034">
        <ele>1216.2</ele>
        <time>2024-08-12T03:12:39Z</time>
      </trkpt>
      <trkpt lat="44.83883" lon="6.46034">
        <ele>1216.4</ele>
        <time>2024-08-12T03:12:40Z</time>
      </trkpt>
      <trkpt lat="44.83883" lon="6.4603">
        <ele>1216.4</ele>
        <time>2024-08-12T03:12:41Z</time>
      </trkpt>
      <trkpt lat="44.83883" lon="6.4603">
        <ele>1216.2</ele>
        <time>2024-08-12T03:12:42Z</time>
      </trkpt>
      <trkpt lat="44.83883" lon="6.46026">
        <ele>1216.2</ele>
        <time>2024-08-12T03:12:43Z</time>
      </trkpt>
      <trkpt lat="44.83883" lon="6.46026">
        <ele>1216.2</ele>
        <time>2024-08-12T03:12:44Z</time>
      </trkpt>
      <trkpt lat="44.83884" lon="6.46023">
        <ele>1216.4</ele>
        <time>2024-08-12T03:12:45Z</time>
      </trkpt>
      <trkpt lat="44.83884" lon="6.46023">
        <ele>1216.4</ele>
        <time>2024-08-12T03:12:46Z</time>
      </trkpt>
      <trkpt lat="44.83884" lon="6.46019">
        <ele>1216.2</ele>
        <time>2024-08-12T03:12:47Z</time>
      </trkpt>
      <trkpt lat="44.83884" lon="6.46019">
        <ele>1216.4</ele>
        <time>2024-08-12T03:12:48Z</time>
      </trkpt>
      <trkpt lat="44.83884" lon="6.46016">
        <ele>1216.4</ele>
        <time>2024-08-12T03:12:49Z</time>
      </trkpt>
      <trkpt lat="44.83884" lon="6.46016">
        <ele>1216.4</ele>
        <time>2024-08-12T03:12:50Z</time>
      </trkpt>
      <trkpt lat="44.83885" lon="6.46014">
        <ele>1216.4</ele>
        <time>2024-08-12T03:12:51Z</time>
      </trkpt>
      <trkpt lat="44.83885" lon="6.46014">
        <ele>1216.8</ele>
        <time>2024-08-12T03:12:52Z</time>
      </trkpt>
      <trkpt lat="44.83885" lon="6.46011">
        <ele>1216.8</ele>
        <time>2024-08-12T03:12:53Z</time>
      </trkpt>
      <trkpt lat="44.83885" lon="6.46011">
        <ele>1216.8</ele>
        <time>2024-08-12T03:12:54Z</time>
      </trkpt>
      <trkpt lat="44.83885" lon="6.46011">
        <ele>1216.8</ele>
        <time>2024-08-12T03:12:55Z</time>
      </trkpt>
      <trkpt lat="44.83885" lon="6.46011">
        <ele>1216.8</ele>
        <time>2024-08-12T03:12:56Z</time>
      </trkpt>
      <trkpt lat="44.83885" lon="6.46011">
        <ele>1217</ele>
        <time>2024-08-12T03:12:57Z</time>
      </trkpt>
      <trkpt lat="44.83885" lon="6.46007">
        <ele>1217</ele>
        <time>2024-08-12T03:12:58Z</time>
      </trkpt>
      <trkpt lat="44.83885" lon="6.46007">
        <ele>1216.8</ele>
        <time>2024-08-12T03:12:59Z</time>
      </trkpt>
      <trkpt lat="44.83885" lon="6.46003">
        <ele>1216.8</ele>
        <time>2024-08-12T03:13:00Z</time>
      </trkpt>
      <trkpt lat="44.83885" lon="6.46003">
        <ele>1217.2</ele>
        <time>2024-08-12T03:13:01Z</time>
      </trkpt>
      <trkpt lat="44.83885" lon="6.46">
        <ele>1217</ele>
        <time>2024-08-12T03:13:02Z</time>
      </trkpt>
      <trkpt lat="44.83885" lon="6.46">
        <ele>1217</ele>
        <time>2024-08-12T03:13:03Z</time>
      </trkpt>
      <trkpt lat="44.83885" lon="6.45996">
        <ele>1217.4</ele>
        <time>2024-08-12T03:13:04Z</time>
      </trkpt>
      <trkpt lat="44.83885" lon="6.45996">
        <ele>1217.6</ele>
        <time>2024-08-12T03:13:05Z</time>
      </trkpt>
      <trkpt lat="44.83886" lon="6.45993">
        <ele>1217.6</ele>
        <time>2024-08-12T03:13:06Z</time>
      </trkpt>
      <trkpt lat="44.83886" lon="6.45993">
        <ele>1217.4</ele>
        <time>2024-08-12T03:13:07Z</time>
      </trkpt>
      <trkpt lat="44.83886" lon="6.45989">
        <ele>1217.2</ele>
        <time>2024-08-12T03:13:08Z</time>
      </trkpt>
      <trkpt lat="44.83886" lon="6.45989">
        <ele>1217.2</ele>
        <time>2024-08-12T03:13:09Z</time>
      </trkpt>
      <trkpt lat="44.83886" lon="6.45986">
        <ele>1217.2</ele>
        <time>2024-08-12T03:13:10Z</time>
      </trkpt>
      <trkpt lat="44.83886" lon="6.45986">
        <ele>1217.4</ele>
        <time>2024-08-12T03:13:11Z</time>
      </trkpt>
      <trkpt lat="44.83887" lon="6.45981">
        <ele>1217.4</ele>
        <time>2024-08-12T03:13:12Z</time>
      </trkpt>
      <trkpt lat="44.83887" lon="6.45981">
        <ele>1217.4</ele>
        <time>2024-08-12T03:13:13Z</time>
      </trkpt>
      <trkpt lat="44.83888" lon="6.45978">
        <ele>1217.6</ele>
        <time>2024-08-12T03:13:14Z</time>
      </trkpt>
      <trkpt lat="44.83888" lon="6.45978">
        <ele>1217.8</ele>
        <time>2024-08-12T03:13:15Z</time>
      </trkpt>
      <trkpt lat="44.83889" lon="6.45974">
        <ele>1217.8</ele>
        <time>2024-08-12T03:13:16Z</time>
      </trkpt>
      <trkpt lat="44.83889" lon="6.45974">
        <ele>1217.8</ele>
        <time>2024-08-12T03:13:17Z</time>
      </trkpt>
      <trkpt lat="44.83889" lon="6.45971">
        <ele>1217.8</ele>
        <time>2024-08-12T03:13:18Z</time>
      </trkpt>
      <trkpt lat="44.83889" lon="6.45971">
        <ele>1217.8</ele>
        <time>2024-08-12T03:13:19Z</time>
      </trkpt>
      <trkpt lat="44.83889" lon="6.45967">
        <ele>1217.8</ele>
        <time>2024-08-12T03:13:20Z</time>
      </trkpt>
      <trkpt lat="44.83889" lon="6.45967">
        <ele>1217.8</ele>
        <time>2024-08-12T03:13:21Z</time>
      </trkpt>
      <trkpt lat="44.83889" lon="6.45964">
        <ele>1218</ele>
        <time>2024-08-12T03:13:22Z</time>
      </trkpt>
      <trkpt lat="44.83889" lon="6.45964">
        <ele>1218</ele>
        <time>2024-08-12T03:13:23Z</time>
      </trkpt>
      <trkpt lat="44.8389" lon="6.4596">
        <ele>1218.2</ele>
        <time>2024-08-12T03:13:24Z</time>
      </trkpt>
      <trkpt lat="44.8389" lon="6.4596">
        <ele>1218.2</ele>
        <time>2024-08-12T03:13:25Z</time>
      </trkpt>
      <trkpt lat="44.83891" lon="6.45956">
        <ele>1218.2</ele>
        <time>2024-08-12T03:13:26Z</time>
      </trkpt>
      <trkpt lat="44.83891" lon="6.45956">
        <ele>1218.2</ele>
        <time>2024-08-12T03:13:27Z</time>
      </trkpt>
      <trkpt lat="44.83893" lon="6.45953">
        <ele>1218.2</ele>
        <time>2024-08-12T03:13:28Z</time>
      </trkpt>
      <trkpt lat="44.83893" lon="6.45953">
        <ele>1218.4</ele>
        <time>2024-08-12T03:13:29Z</time>
      </trkpt>
      <trkpt lat="44.83892" lon="6.45949">
        <ele>1218.4</ele>
        <time>2024-08-12T03:13:30Z</time>
      </trkpt>
      <trkpt lat="44.83892" lon="6.45949">
        <ele>1218.6</ele>
        <time>2024-08-12T03:13:31Z</time>
      </trkpt>
      <trkpt lat="44.83892" lon="6.45945">
        <ele>1218.6</ele>
        <time>2024-08-12T03:13:32Z</time>
      </trkpt>
      <trkpt lat="44.83892" lon="6.45945">
        <ele>1218.6</ele>
        <time>2024-08-12T03:13:33Z</time>
      </trkpt>
      <trkpt lat="44.83893" lon="6.45941">
        <ele>1218.6</ele>
        <time>2024-08-12T03:13:34Z</time>
      </trkpt>
      <trkpt lat="44.83893" lon="6.45941">
        <ele>1218.8</ele>
        <time>2024-08-12T03:13:35Z</time>
      </trkpt>
      <trkpt lat="44.83893" lon="6.45938">
        <ele>1218.8</ele>
        <time>2024-08-12T03:13:36Z</time>
      </trkpt>
      <trkpt lat="44.83893" lon="6.45938">
        <ele>1218.8</ele>
        <time>2024-08-12T03:13:37Z</time>
      </trkpt>
      <trkpt lat="44.83894" lon="6.45934">
        <ele>1218.8</ele>
        <time>2024-08-12T03:13:38Z</time>
      </trkpt>
      <trkpt lat="44.83894" lon="6.45934">
        <ele>1218.6</ele>
        <time>2024-08-12T03:13:39Z</time>
      </trkpt>
      <trkpt lat="44.83895" lon="6.4593">
        <ele>1218.6</ele>
        <time>2024-08-12T03:13:40Z</time>
      </trkpt>
      <trkpt lat="44.83895" lon="6.4593">
        <ele>1218.6</ele>
        <time>2024-08-12T03:13:41Z</time>
      </trkpt>
      <trkpt lat="44.83895" lon="6.45926">
        <ele>1218.6</ele>
        <time>2024-08-12T03:13:42Z</time>
      </trkpt>
      <trkpt lat="44.83895" lon="6.45926">
        <ele>1218.6</ele>
        <time>2024-08-12T03:13:43Z</time>
      </trkpt>
      <trkpt lat="44.83895" lon="6.45923">
        <ele>1218.6</ele>
        <time>2024-08-12T03:13:44Z</time>
      </trkpt>
      <trkpt lat="44.83895" lon="6.45923">
        <ele>1218.6</ele>
        <time>2024-08-12T03:13:45Z</time>
      </trkpt>
      <trkpt lat="44.83896" lon="6.4592">
        <ele>1218.6</ele>
        <time>2024-08-12T03:13:46Z</time>
      </trkpt>
      <trkpt lat="44.83896" lon="6.4592">
        <ele>1218.6</ele>
        <time>2024-08-12T03:13:47Z</time>
      </trkpt>
      <trkpt lat="44.83896" lon="6.45916">
        <ele>1218.6</ele>
        <time>2024-08-12T03:13:48Z</time>
      </trkpt>
      <trkpt lat="44.83896" lon="6.45916">
        <ele>1218.8</ele>
        <time>2024-08-12T03:13:49Z</time>
      </trkpt>
      <trkpt lat="44.83897" lon="6.45913">
        <ele>1219</ele>
        <time>2024-08-12T03:13:50Z</time>
      </trkpt>
      <trkpt lat="44.83897" lon="6.45913">
        <ele>1219.2</ele>
        <time>2024-08-12T03:13:51Z</time>
      </trkpt>
      <trkpt lat="44.83897" lon="6.45909">
        <ele>1219.2</ele>
        <time>2024-08-12T03:13:52Z</time>
      </trkpt>
      <trkpt lat="44.83897" lon="6.45909">
        <ele>1219</ele>
        <time>2024-08-12T03:13:53Z</time>
      </trkpt>
      <trkpt lat="44.83899" lon="6.45905">
        <ele>1219</ele>
        <time>2024-08-12T03:13:54Z</time>
      </trkpt>
      <trkpt lat="44.83899" lon="6.45905">
        <ele>1219</ele>
        <time>2024-08-12T03:13:55Z</time>
      </trkpt>
      <trkpt lat="44.839" lon="6.45902">
        <ele>1219.2</ele>
        <time>2024-08-12T03:13:56Z</time>
      </trkpt>
      <trkpt lat="44.839" lon="6.45902">
        <ele>1219.4</ele>
        <time>2024-08-12T03:13:57Z</time>
      </trkpt>
      <trkpt lat="44.83901" lon="6.45898">
        <ele>1219.8</ele>
        <time>2024-08-12T03:13:58Z</time>
      </trkpt>
      <trkpt lat="44.83901" lon="6.45898">
        <ele>1220</ele>
        <time>2024-08-12T03:13:59Z</time>
      </trkpt>
      <trkpt lat="44.83903" lon="6.45895">
        <ele>1220</ele>
        <time>2024-08-12T03:14:00Z</time>
      </trkpt>
      <trkpt lat="44.83903" lon="6.45895">
        <ele>1220</ele>
        <time>2024-08-12T03:14:01Z</time>
      </trkpt>
      <trkpt lat="44.83904" lon="6.45892">
        <ele>1220.2</ele>
        <time>2024-08-12T03:14:02Z</time>
      </trkpt>
      <trkpt lat="44.83904" lon="6.45892">
        <ele>1220.2</ele>
        <time>2024-08-12T03:14:03Z</time>
      </trkpt>
      <trkpt lat="44.83906" lon="6.45889">
        <ele>1220.2</ele>
        <time>2024-08-12T03:14:04Z</time>
      </trkpt>
      <trkpt lat="44.83906" lon="6.45889">
        <ele>1220.4</ele>
        <time>2024-08-12T03:14:05Z</time>
      </trkpt>
      <trkpt lat="44.83907" lon="6.45886">
        <ele>1220.4</ele>
        <time>2024-08-12T03:14:06Z</time>
      </trkpt>
      <trkpt lat="44.83907" lon="6.45886">
        <ele>1220.6</ele>
        <time>2024-08-12T03:14:07Z</time>
      </trkpt>
      <trkpt lat="44.83909" lon="6.45882">
        <ele>1220.8</ele>
        <time>2024-08-12T03:14:08Z</time>
      </trkpt>
      <trkpt lat="44.83909" lon="6.45882">
        <ele>1220.8</ele>
        <time>2024-08-12T03:14:09Z</time>
      </trkpt>
      <trkpt lat="44.8391" lon="6.45879">
        <ele>1220.8</ele>
        <time>2024-08-12T03:14:10Z</time>
      </trkpt>
      <trkpt lat="44.8391" lon="6.45879">
        <ele>1220.8</ele>
        <time>2024-08-12T03:14:11Z</time>
      </trkpt>
      <trkpt lat="44.83911" lon="6.45876">
        <ele>1220.8</ele>
        <time>2024-08-12T03:14:12Z</time>
      </trkpt>
      <trkpt lat="44.83911" lon="6.45876">
        <ele>1220.8</ele>
        <time>2024-08-12T03:14:13Z</time>
      </trkpt>
      <trkpt lat="44.83913" lon="6.45872">
        <ele>1220.8</ele>
        <time>2024-08-12T03:14:14Z</time>
      </trkpt>
      <trkpt lat="44.83913" lon="6.45872">
        <ele>1220.8</ele>
        <time>2024-08-12T03:14:15Z</time>
      </trkpt>
      <trkpt lat="44.83914" lon="6.45869">
        <ele>1220.8</ele>
        <time>2024-08-12T03:14:16Z</time>
      </trkpt>
      <trkpt lat="44.83914" lon="6.45869">
        <ele>1220.8</ele>
        <time>2024-08-12T03:14:17Z</time>
      </trkpt>
      <trkpt lat="44.83915" lon="6.45866">
        <ele>1220.8</ele>
        <time>2024-08-12T03:14:18Z</time>
      </trkpt>
      <trkpt lat="44.83915" lon="6.45866">
        <ele>1220.8</ele>
        <time>2024-08-12T03:14:19Z</time>
      </trkpt>
      <trkpt lat="44.83917" lon="6.45863">
        <ele>1221</ele>
        <time>2024-08-12T03:14:20Z</time>
      </trkpt>
      <trkpt lat="44.83917" lon="6.45863">
        <ele>1221</ele>
        <time>2024-08-12T03:14:21Z</time>
      </trkpt>
      <trkpt lat="44.83917" lon="6.4586">
        <ele>1221</ele>
        <time>2024-08-12T03:14:22Z</time>
      </trkpt>
      <trkpt lat="44.83917" lon="6.4586">
        <ele>1221.2</ele>
        <time>2024-08-12T03:14:23Z</time>
      </trkpt>
      <trkpt lat="44.83918" lon="6.45856">
        <ele>1221.2</ele>
        <time>2024-08-12T03:14:24Z</time>
      </trkpt>
      <trkpt lat="44.83918" lon="6.45856">
        <ele>1221.4</ele>
        <time>2024-08-12T03:14:25Z</time>
      </trkpt>
      <trkpt lat="44.83918" lon="6.45853">
        <ele>1221.4</ele>
        <time>2024-08-12T03:14:26Z</time>
      </trkpt>
      <trkpt lat="44.83918" lon="6.45853">
        <ele>1221.8</ele>
        <time>2024-08-12T03:14:27Z</time>
      </trkpt>
      <trkpt lat="44.83919" lon="6.45849">
        <ele>1222</ele>
        <time>2024-08-12T03:14:28Z</time>
      </trkpt>
      <trkpt lat="44.83919" lon="6.45849">
        <ele>1222</ele>
        <time>2024-08-12T03:14:29Z</time>
      </trkpt>
      <trkpt lat="44.8392" lon="6.45845">
        <ele>1222</ele>
        <time>2024-08-12T03:14:30Z</time>
      </trkpt>
      <trkpt lat="44.8392" lon="6.45845">
        <ele>1222</ele>
        <time>2024-08-12T03:14:31Z</time>
      </trkpt>
      <trkpt lat="44.8392" lon="6.45841">
        <ele>1222</ele>
        <time>2024-08-12T03:14:32Z</time>
      </trkpt>
      <trkpt lat="44.8392" lon="6.45841">
        <ele>1222.2</ele>
        <time>2024-08-12T03:14:33Z</time>
      </trkpt>
      <trkpt lat="44.8392" lon="6.45837">
        <ele>1222.2</ele>
        <time>2024-08-12T03:14:34Z</time>
      </trkpt>
      <trkpt lat="44.8392" lon="6.45837">
        <ele>1221.8</ele>
        <time>2024-08-12T03:14:35Z</time>
      </trkpt>
      <trkpt lat="44.8392" lon="6.45834">
        <ele>1221.8</ele>
        <time>2024-08-12T03:14:36Z</time>
      </trkpt>
      <trkpt lat="44.8392" lon="6.45834">
        <ele>1222</ele>
        <time>2024-08-12T03:14:37Z</time>
      </trkpt>
      <trkpt lat="44.83921" lon="6.4583">
        <ele>1222</ele>
        <time>2024-08-12T03:14:38Z</time>
      </trkpt>
      <trkpt lat="44.83921" lon="6.4583">
        <ele>1221.8</ele>
        <time>2024-08-12T03:14:39Z</time>
      </trkpt>
      <trkpt lat="44.83921" lon="6.45826">
        <ele>1221.8</ele>
        <time>2024-08-12T03:14:40Z</time>
      </trkpt>
      <trkpt lat="44.83921" lon="6.45826">
        <ele>1222</ele>
        <time>2024-08-12T03:14:41Z</time>
      </trkpt>
      <trkpt lat="44.8392" lon="6.45822">
        <ele>1222</ele>
        <time>2024-08-12T03:14:42Z</time>
      </trkpt>
      <trkpt lat="44.8392" lon="6.45822">
        <ele>1221.8</ele>
        <time>2024-08-12T03:14:43Z</time>
      </trkpt>
      <trkpt lat="44.8392" lon="6.45818">
        <ele>1221.8</ele>
        <time>2024-08-12T03:14:44Z</time>
      </trkpt>
      <trkpt lat="44.8392" lon="6.45818">
        <ele>1222</ele>
        <time>2024-08-12T03:14:45Z</time>
      </trkpt>
      <trkpt lat="44.83921" lon="6.45814">
        <ele>1222</ele>
        <time>2024-08-12T03:14:46Z</time>
      </trkpt>
      <trkpt lat="44.83921" lon="6.45814">
        <ele>1222</ele>
        <time>2024-08-12T03:14:47Z</time>
      </trkpt>
      <trkpt lat="44.83921" lon="6.45811">
        <ele>1222</ele>
        <time>2024-08-12T03:14:48Z</time>
      </trkpt>
      <trkpt lat="44.83921" lon="6.45811">
        <ele>1222.2</ele>
        <time>2024-08-12T03:14:49Z</time>
      </trkpt>
      <trkpt lat="44.83921" lon="6.45808">
        <ele>1222.2</ele>
        <time>2024-08-12T03:14:50Z</time>
      </trkpt>
      <trkpt lat="44.83921" lon="6.45808">
        <ele>1222.4</ele>
        <time>2024-08-12T03:14:51Z</time>
      </trkpt>
      <trkpt lat="44.8392" lon="6.45805">
        <ele>1222.8</ele>
        <time>2024-08-12T03:14:52Z</time>
      </trkpt>
      <trkpt lat="44.8392" lon="6.45805">
        <ele>1222.8</ele>
        <time>2024-08-12T03:14:53Z</time>
      </trkpt>
      <trkpt lat="44.8392" lon="6.45801">
        <ele>1222.8</ele>
        <time>2024-08-12T03:14:54Z</time>
      </trkpt>
      <trkpt lat="44.8392" lon="6.45801">
        <ele>1223</ele>
        <time>2024-08-12T03:14:55Z</time>
      </trkpt>
      <trkpt lat="44.83919" lon="6.45798">
        <ele>1223.2</ele>
        <time>2024-08-12T03:14:56Z</time>
      </trkpt>
      <trkpt lat="44.83919" lon="6.45798">
        <ele>1223.2</ele>
        <time>2024-08-12T03:14:57Z</time>
      </trkpt>
      <trkpt lat="44.83919" lon="6.45795">
        <ele>1223.4</ele>
        <time>2024-08-12T03:14:58Z</time>
      </trkpt>
      <trkpt lat="44.83919" lon="6.45795">
        <ele>1223.6</ele>
        <time>2024-08-12T03:14:59Z</time>
      </trkpt>
      <trkpt lat="44.83918" lon="6.45791">
        <ele>1223.6</ele>
        <time>2024-08-12T03:15:00Z</time>
      </trkpt>
      <trkpt lat="44.83918" lon="6.45791">
        <ele>1223.6</ele>
        <time>2024-08-12T03:15:01Z</time>
      </trkpt>
      <trkpt lat="44.83917" lon="6.45788">
        <ele>1223.6</ele>
        <time>2024-08-12T03:15:02Z</time>
      </trkpt>
      <trkpt lat="44.83917" lon="6.45788">
        <ele>1223.6</ele>
        <time>2024-08-12T03:15:03Z</time>
      </trkpt>
      <trkpt lat="44.83917" lon="6.45785">
        <ele>1223.8</ele>
        <time>2024-08-12T03:15:04Z</time>
      </trkpt>
      <trkpt lat="44.83917" lon="6.45785">
        <ele>1224</ele>
        <time>2024-08-12T03:15:05Z</time>
      </trkpt>
      <trkpt lat="44.83916" lon="6.45781">
        <ele>1224</ele>
        <time>2024-08-12T03:15:06Z</time>
      </trkpt>
      <trkpt lat="44.83916" lon="6.45781">
        <ele>1224</ele>
        <time>2024-08-12T03:15:07Z</time>
      </trkpt>
      <trkpt lat="44.83916" lon="6.45777">
        <ele>1224</ele>
        <time>2024-08-12T03:15:08Z</time>
      </trkpt>
      <trkpt lat="44.83916" lon="6.45777">
        <ele>1224</ele>
        <time>2024-08-12T03:15:09Z</time>
      </trkpt>
      <trkpt lat="44.83916" lon="6.45774">
        <ele>1224</ele>
        <time>2024-08-12T03:15:10Z</time>
      </trkpt>
      <trkpt lat="44.83916" lon="6.45774">
        <ele>1224.2</ele>
        <time>2024-08-12T03:15:11Z</time>
      </trkpt>
      <trkpt lat="44.83916" lon="6.4577">
        <ele>1224.2</ele>
        <time>2024-08-12T03:15:12Z</time>
      </trkpt>
      <trkpt lat="44.83916" lon="6.4577">
        <ele>1224.2</ele>
        <time>2024-08-12T03:15:13Z</time>
      </trkpt>
      <trkpt lat="44.83916" lon="6.45766">
        <ele>1224.2</ele>
        <time>2024-08-12T03:15:14Z</time>
      </trkpt>
      <trkpt lat="44.83916" lon="6.45766">
        <ele>1224.2</ele>
        <time>2024-08-12T03:15:15Z</time>
      </trkpt>
      <trkpt lat="44.83917" lon="6.45763">
        <ele>1224.2</ele>
        <time>2024-08-12T03:15:16Z</time>
      </trkpt>
      <trkpt lat="44.83917" lon="6.45763">
        <ele>1224.4</ele>
        <time>2024-08-12T03:15:17Z</time>
      </trkpt>
      <trkpt lat="44.83917" lon="6.45759">
        <ele>1224.6</ele>
        <time>2024-08-12T03:15:18Z</time>
      </trkpt>
      <trkpt lat="44.83918" lon="6.45757">
        <ele>1224.6</ele>
        <time>2024-08-12T03:15:19Z</time>
      </trkpt>
      <trkpt lat="44.83918" lon="6.45757">
        <ele>1225</ele>
        <time>2024-08-12T03:15:20Z</time>
      </trkpt>
      <trkpt lat="44.83918" lon="6.45753">
        <ele>1225</ele>
        <time>2024-08-12T03:15:21Z</time>
      </trkpt>
      <trkpt lat="44.83918" lon="6.45753">
        <ele>1225</ele>
        <time>2024-08-12T03:15:22Z</time>
      </trkpt>
      <trkpt lat="44.83919" lon="6.45749">
        <ele>1225</ele>
        <time>2024-08-12T03:15:23Z</time>
      </trkpt>
      <trkpt lat="44.83919" lon="6.45749">
        <ele>1225.2</ele>
        <time>2024-08-12T03:15:24Z</time>
      </trkpt>
      <trkpt lat="44.83921" lon="6.45747">
        <ele>1225.2</ele>
        <time>2024-08-12T03:15:25Z</time>
      </trkpt>
      <trkpt lat="44.83921" lon="6.45747">
        <ele>1225.2</ele>
        <time>2024-08-12T03:15:26Z</time>
      </trkpt>
      <trkpt lat="44.83921" lon="6.45744">
        <ele>1225</ele>
        <time>2024-08-12T03:15:27Z</time>
      </trkpt>
      <trkpt lat="44.83921" lon="6.45744">
        <ele>1225</ele>
        <time>2024-08-12T03:15:28Z</time>
      </trkpt>
      <trkpt lat="44.83922" lon="6.4574">
        <ele>1225</ele>
        <time>2024-08-12T03:15:29Z</time>
      </trkpt>
      <trkpt lat="44.83922" lon="6.4574">
        <ele>1225.6</ele>
        <time>2024-08-12T03:15:30Z</time>
      </trkpt>
      <trkpt lat="44.83923" lon="6.45737">
        <ele>1225.6</ele>
        <time>2024-08-12T03:15:31Z</time>
      </trkpt>
      <trkpt lat="44.83923" lon="6.45737">
        <ele>1225.6</ele>
        <time>2024-08-12T03:15:32Z</time>
      </trkpt>
      <trkpt lat="44.83924" lon="6.45733">
        <ele>1225.6</ele>
        <time>2024-08-12T03:15:33Z</time>
      </trkpt>
      <trkpt lat="44.83924" lon="6.45733">
        <ele>1225.6</ele>
        <time>2024-08-12T03:15:34Z</time>
      </trkpt>
      <trkpt lat="44.83924" lon="6.4573">
        <ele>1225.8</ele>
        <time>2024-08-12T03:15:35Z</time>
      </trkpt>
      <trkpt lat="44.83924" lon="6.4573">
        <ele>1225.8</ele>
        <time>2024-08-12T03:15:36Z</time>
      </trkpt>
      <trkpt lat="44.83924" lon="6.45726">
        <ele>1225.8</ele>
        <time>2024-08-12T03:15:37Z</time>
      </trkpt>
      <trkpt lat="44.83924" lon="6.45726">
        <ele>1225.8</ele>
        <time>2024-08-12T03:15:38Z</time>
      </trkpt>
      <trkpt lat="44.83925" lon="6.45722">
        <ele>1226</ele>
        <time>2024-08-12T03:15:39Z</time>
      </trkpt>
      <trkpt lat="44.83925" lon="6.45722">
        <ele>1226.2</ele>
        <time>2024-08-12T03:15:40Z</time>
      </trkpt>
      <trkpt lat="44.83924" lon="6.45719">
        <ele>1226.2</ele>
        <time>2024-08-12T03:15:41Z</time>
      </trkpt>
      <trkpt lat="44.83924" lon="6.45719">
        <ele>1226.2</ele>
        <time>2024-08-12T03:15:42Z</time>
      </trkpt>
      <trkpt lat="44.83925" lon="6.45715">
        <ele>1226.2</ele>
        <time>2024-08-12T03:15:43Z</time>
      </trkpt>
      <trkpt lat="44.83925" lon="6.45715">
        <ele>1226.2</ele>
        <time>2024-08-12T03:15:44Z</time>
      </trkpt>
      <trkpt lat="44.83925" lon="6.45711">
        <ele>1226.6</ele>
        <time>2024-08-12T03:15:45Z</time>
      </trkpt>
      <trkpt lat="44.83925" lon="6.45711">
        <ele>1226.6</ele>
        <time>2024-08-12T03:15:46Z</time>
      </trkpt>
      <trkpt lat="44.83925" lon="6.45707">
        <ele>1226.6</ele>
        <time>2024-08-12T03:15:47Z</time>
      </trkpt>
      <trkpt lat="44.83925" lon="6.45707">
        <ele>1226.6</ele>
        <time>2024-08-12T03:15:48Z</time>
      </trkpt>
      <trkpt lat="44.83926" lon="6.45704">
        <ele>1226.8</ele>
        <time>2024-08-12T03:15:49Z</time>
      </trkpt>
      <trkpt lat="44.83926" lon="6.45704">
        <ele>1226.8</ele>
        <time>2024-08-12T03:15:50Z</time>
      </trkpt>
      <trkpt lat="44.83925" lon="6.457">
        <ele>1226.8</ele>
        <time>2024-08-12T03:15:51Z</time>
      </trkpt>
      <trkpt lat="44.83925" lon="6.457">
        <ele>1227</ele>
        <time>2024-08-12T03:15:52Z</time>
      </trkpt>
      <trkpt lat="44.83925" lon="6.45696">
        <ele>1227</ele>
        <time>2024-08-12T03:15:53Z</time>
      </trkpt>
      <trkpt lat="44.83925" lon="6.45696">
        <ele>1227</ele>
        <time>2024-08-12T03:15:54Z</time>
      </trkpt>
      <trkpt lat="44.83924" lon="6.45693">
        <ele>1227</ele>
        <time>2024-08-12T03:15:55Z</time>
      </trkpt>
      <trkpt lat="44.83924" lon="6.45693">
        <ele>1227</ele>
        <time>2024-08-12T03:15:56Z</time>
      </trkpt>
      <trkpt lat="44.83923" lon="6.45689">
        <ele>1226.8</ele>
        <time>2024-08-12T03:15:57Z</time>
      </trkpt>
      <trkpt lat="44.83923" lon="6.45689">
        <ele>1226.8</ele>
        <time>2024-08-12T03:15:58Z</time>
      </trkpt>
      <trkpt lat="44.83922" lon="6.45686">
        <ele>1227</ele>
        <time>2024-08-12T03:15:59Z</time>
      </trkpt>
      <trkpt lat="44.83922" lon="6.45686">
        <ele>1227</ele>
        <time>2024-08-12T03:16:00Z</time>
      </trkpt>
      <trkpt lat="44.83922" lon="6.45682">
        <ele>1227.2</ele>
        <time>2024-08-12T03:16:01Z</time>
      </trkpt>
      <trkpt lat="44.83922" lon="6.45682">
        <ele>1227.2</ele>
        <time>2024-08-12T03:16:02Z</time>
      </trkpt>
      <trkpt lat="44.83921" lon="6.45678">
        <ele>1227.2</ele>
        <time>2024-08-12T03:16:03Z</time>
      </trkpt>
      <trkpt lat="44.83921" lon="6.45678">
        <ele>1227.2</ele>
        <time>2024-08-12T03:16:04Z</time>
      </trkpt>
      <trkpt lat="44.8392" lon="6.45675">
        <ele>1227.2</ele>
        <time>2024-08-12T03:16:05Z</time>
      </trkpt>
      <trkpt lat="44.8392" lon="6.45675">
        <ele>1227.2</ele>
        <time>2024-08-12T03:16:06Z</time>
      </trkpt>
      <trkpt lat="44.83918" lon="6.45671">
        <ele>1227.2</ele>
        <time>2024-08-12T03:16:07Z</time>
      </trkpt>
      <trkpt lat="44.83918" lon="6.45671">
        <ele>1227.2</ele>
        <time>2024-08-12T03:16:08Z</time>
      </trkpt>
      <trkpt lat="44.83918" lon="6.45668">
        <ele>1227.2</ele>
        <time>2024-08-12T03:16:09Z</time>
      </trkpt>
      <trkpt lat="44.83918" lon="6.45668">
        <ele>1227.6</ele>
        <time>2024-08-12T03:16:10Z</time>
      </trkpt>
      <trkpt lat="44.83917" lon="6.45664">
        <ele>1227.6</ele>
        <time>2024-08-12T03:16:11Z</time>
      </trkpt>
      <trkpt lat="44.83917" lon="6.45664">
        <ele>1227.6</ele>
        <time>2024-08-12T03:16:12Z</time>
      </trkpt>
      <trkpt lat="44.83916" lon="6.45661">
        <ele>1227.6</ele>
        <time>2024-08-12T03:16:13Z</time>
      </trkpt>
      <trkpt lat="44.83916" lon="6.45661">
        <ele>1227.6</ele>
        <time>2024-08-12T03:16:14Z</time>
      </trkpt>
      <trkpt lat="44.83915" lon="6.45658">
        <ele>1227.6</ele>
        <time>2024-08-12T03:16:15Z</time>
      </trkpt>
      <trkpt lat="44.83915" lon="6.45658">
        <ele>1227.8</ele>
        <time>2024-08-12T03:16:16Z</time>
      </trkpt>
      <trkpt lat="44.83913" lon="6.45654">
        <ele>1227.8</ele>
        <time>2024-08-12T03:16:17Z</time>
      </trkpt>
      <trkpt lat="44.83913" lon="6.45654">
        <ele>1227.8</ele>
        <time>2024-08-12T03:16:18Z</time>
      </trkpt>
      <trkpt lat="44.83913" lon="6.45651">
        <ele>1227.8</ele>
        <time>2024-08-12T03:16:19Z</time>
      </trkpt>
      <trkpt lat="44.83913" lon="6.45651">
        <ele>1227.8</ele>
        <time>2024-08-12T03:16:20Z</time>
      </trkpt>
      <trkpt lat="44.83911" lon="6.45648">
        <ele>1227.6</ele>
        <time>2024-08-12T03:16:21Z</time>
      </trkpt>
      <trkpt lat="44.83911" lon="6.45648">
        <ele>1227.6</ele>
        <time>2024-08-12T03:16:22Z</time>
      </trkpt>
      <trkpt lat="44.8391" lon="6.45645">
        <ele>1227.6</ele>
        <time>2024-08-12T03:16:23Z</time>
      </trkpt>
      <trkpt lat="44.8391" lon="6.45645">
        <ele>1227.8</ele>
        <time>2024-08-12T03:16:24Z</time>
      </trkpt>
      <trkpt lat="44.83909" lon="6.45644">
        <ele>1227.8</ele>
        <time>2024-08-12T03:16:25Z</time>
      </trkpt>
      <trkpt lat="44.83909" lon="6.45644">
        <ele>1227.8</ele>
        <time>2024-08-12T03:16:26Z</time>
      </trkpt>
      <trkpt lat="44.83907" lon="6.45641">
        <ele>1228</ele>
        <time>2024-08-12T03:16:27Z</time>
      </trkpt>
      <trkpt lat="44.83907" lon="6.45641">
        <ele>1228.2</ele>
        <time>2024-08-12T03:16:28Z</time>
      </trkpt>
      <trkpt lat="44.83906" lon="6.45637">
        <ele>1228.2</ele>
        <time>2024-08-12T03:16:29Z</time>
      </trkpt>
      <trkpt lat="44.83906" lon="6.45637">
        <ele>1228.2</ele>
        <time>2024-08-12T03:16:30Z</time>
      </trkpt>
      <trkpt lat="44.83905" lon="6.45633">
        <ele>1228.2</ele>
        <time>2024-08-12T03:16:31Z</time>
      </trkpt>
      <trkpt lat="44.83905" lon="6.45633">
        <ele>1228.2</ele>
        <time>2024-08-12T03:16:32Z</time>
      </trkpt>
      <trkpt lat="44.83903" lon="6.4563">
        <ele>1228.2</ele>
        <time>2024-08-12T03:16:33Z</time>
      </trkpt>
      <trkpt lat="44.83903" lon="6.4563">
        <ele>1228.4</ele>
        <time>2024-08-12T03:16:34Z</time>
      </trkpt>
      <trkpt lat="44.83902" lon="6.45627">
        <ele>1228.4</ele>
        <time>2024-08-12T03:16:35Z</time>
      </trkpt>
      <trkpt lat="44.83902" lon="6.45627">
        <ele>1228.8</ele>
        <time>2024-08-12T03:16:36Z</time>
      </trkpt>
      <trkpt lat="44.83902" lon="6.45624">
        <ele>1228.8</ele>
        <time>2024-08-12T03:16:37Z</time>
      </trkpt>
      <trkpt lat="44.83902" lon="6.45624">
        <ele>1228.8</ele>
        <time>2024-08-12T03:16:38Z</time>
      </trkpt>
      <trkpt lat="44.83902" lon="6.45621">
        <ele>1228.8</ele>
        <time>2024-08-12T03:16:39Z</time>
      </trkpt>
      <trkpt lat="44.83902" lon="6.45621">
        <ele>1229</ele>
        <time>2024-08-12T03:16:40Z</time>
      </trkpt>
      <trkpt lat="44.83901" lon="6.45617">
        <ele>1229.4</ele>
        <time>2024-08-12T03:16:41Z</time>
      </trkpt>
      <trkpt lat="44.83901" lon="6.45617">
        <ele>1229.4</ele>
        <time>2024-08-12T03:16:42Z</time>
      </trkpt>
      <trkpt lat="44.83901" lon="6.45613">
        <ele>1229.4</ele>
        <time>2024-08-12T03:16:43Z</time>
      </trkpt>
      <trkpt lat="44.83901" lon="6.45613">
        <ele>1229.6</ele>
        <time>2024-08-12T03:16:44Z</time>
      </trkpt>
      <trkpt lat="44.83901" lon="6.45609">
        <ele>1229.6</ele>
        <time>2024-08-12T03:16:45Z</time>
      </trkpt>
      <trkpt lat="44.83901" lon="6.45609">
        <ele>1229.6</ele>
        <time>2024-08-12T03:16:46Z</time>
      </trkpt>
      <trkpt lat="44.839" lon="6.45606">
        <ele>1229.8</ele>
        <time>2024-08-12T03:16:47Z</time>
      </trkpt>
      <trkpt lat="44.839" lon="6.45606">
        <ele>1229.8</ele>
        <time>2024-08-12T03:16:48Z</time>
      </trkpt>
      <trkpt lat="44.839" lon="6.45602">
        <ele>1229.8</ele>
        <time>2024-08-12T03:16:49Z</time>
      </trkpt>
      <trkpt lat="44.839" lon="6.45602">
        <ele>1229.8</ele>
        <time>2024-08-12T03:16:50Z</time>
      </trkpt>
      <trkpt lat="44.839" lon="6.45599">
        <ele>1230</ele>
        <time>2024-08-12T03:16:51Z</time>
      </trkpt>
      <trkpt lat="44.839" lon="6.45599">
        <ele>1230.2</ele>
        <time>2024-08-12T03:16:52Z</time>
      </trkpt>
      <trkpt lat="44.839" lon="6.45595">
        <ele>1230.4</ele>
        <time>2024-08-12T03:16:53Z</time>
      </trkpt>
      <trkpt lat="44.839" lon="6.45595">
        <ele>1230.4</ele>
        <time>2024-08-12T03:16:54Z</time>
      </trkpt>
      <trkpt lat="44.839" lon="6.45591">
        <ele>1230.6</ele>
        <time>2024-08-12T03:16:55Z</time>
      </trkpt>
      <trkpt lat="44.839" lon="6.45591">
        <ele>1230.6</ele>
        <time>2024-08-12T03:16:56Z</time>
      </trkpt>
      <trkpt lat="44.839" lon="6.45587">
        <ele>1230.6</ele>
        <time>2024-08-12T03:16:57Z</time>
      </trkpt>
      <trkpt lat="44.839" lon="6.45587">
        <ele>1230.6</ele>
        <time>2024-08-12T03:16:58Z</time>
      </trkpt>
      <trkpt lat="44.839" lon="6.45583">
        <ele>1230.8</ele>
        <time>2024-08-12T03:16:59Z</time>
      </trkpt>
      <trkpt lat="44.839" lon="6.45583">
        <ele>1231</ele>
        <time>2024-08-12T03:17:00Z</time>
      </trkpt>
      <trkpt lat="44.83901" lon="6.45579">
        <ele>1231</ele>
        <time>2024-08-12T03:17:01Z</time>
      </trkpt>
      <trkpt lat="44.83901" lon="6.45579">
        <ele>1231</ele>
        <time>2024-08-12T03:17:02Z</time>
      </trkpt>
      <trkpt lat="44.83901" lon="6.45574">
        <ele>1231</ele>
        <time>2024-08-12T03:17:03Z</time>
      </trkpt>
      <trkpt lat="44.83901" lon="6.45574">
        <ele>1231.2</ele>
        <time>2024-08-12T03:17:04Z</time>
      </trkpt>
      <trkpt lat="44.83901" lon="6.4557">
        <ele>1231.2</ele>
        <time>2024-08-12T03:17:05Z</time>
      </trkpt>
      <trkpt lat="44.83901" lon="6.4557">
        <ele>1231.2</ele>
        <time>2024-08-12T03:17:06Z</time>
      </trkpt>
      <trkpt lat="44.83901" lon="6.45566">
        <ele>1231</ele>
        <time>2024-08-12T03:17:07Z</time>
      </trkpt>
      <trkpt lat="44.83901" lon="6.45566">
        <ele>1231.2</ele>
        <time>2024-08-12T03:17:08Z</time>
      </trkpt>
      <trkpt lat="44.83901" lon="6.45562">
        <ele>1231.2</ele>
        <time>2024-08-12T03:17:09Z</time>
      </trkpt>
      <trkpt lat="44.83901" lon="6.45562">
        <ele>1231.4</ele>
        <time>2024-08-12T03:17:10Z</time>
      </trkpt>
      <trkpt lat="44.83901" lon="6.45559">
        <ele>1231.8</ele>
        <time>2024-08-12T03:17:11Z</time>
      </trkpt>
      <trkpt lat="44.83901" lon="6.45559">
        <ele>1232.6</ele>
        <time>2024-08-12T03:17:12Z</time>
      </trkpt>
      <trkpt lat="44.83901" lon="6.45556">
        <ele>1232.6</ele>
        <time>2024-08-12T03:17:13Z</time>
      </trkpt>
      <trkpt lat="44.83901" lon="6.45556">
        <ele>1232.6</ele>
        <time>2024-08-12T03:17:14Z</time>
      </trkpt>
      <trkpt lat="44.83901" lon="6.45554">
        <ele>1232.6</ele>
        <time>2024-08-12T03:17:15Z</time>
      </trkpt>
      <trkpt lat="44.83901" lon="6.45554">
        <ele>1232.6</ele>
        <time>2024-08-12T03:17:16Z</time>
      </trkpt>
      <trkpt lat="44.83902" lon="6.4555">
        <ele>1232.6</ele>
        <time>2024-08-12T03:17:17Z</time>
      </trkpt>
      <trkpt lat="44.83902" lon="6.4555">
        <ele>1232.6</ele>
        <time>2024-08-12T03:17:18Z</time>
      </trkpt>
      <trkpt lat="44.83902" lon="6.4555">
        <ele>1232.8</ele>
        <time>2024-08-12T03:17:19Z</time>
      </trkpt>
      <trkpt lat="44.83902" lon="6.45547">
        <ele>1232.8</ele>
        <time>2024-08-12T03:17:20Z</time>
      </trkpt>
      <trkpt lat="44.83902" lon="6.45547">
        <ele>1233.4</ele>
        <time>2024-08-12T03:17:21Z</time>
      </trkpt>
      <trkpt lat="44.83903" lon="6.45543">
        <ele>1233.4</ele>
        <time>2024-08-12T03:17:22Z</time>
      </trkpt>
      <trkpt lat="44.83904" lon="6.45541">
        <ele>1233.4</ele>
        <time>2024-08-12T03:17:23Z</time>
      </trkpt>
      <trkpt lat="44.83904" lon="6.45541">
        <ele>1233.4</ele>
        <time>2024-08-12T03:17:24Z</time>
      </trkpt>
      <trkpt lat="44.83906" lon="6.45537">
        <ele>1233.8</ele>
        <time>2024-08-12T03:17:25Z</time>
      </trkpt>
      <trkpt lat="44.83906" lon="6.45537">
        <ele>1233.8</ele>
        <time>2024-08-12T03:17:26Z</time>
      </trkpt>
      <trkpt lat="44.83907" lon="6.45534">
        <ele>1233.6</ele>
        <time>2024-08-12T03:17:27Z</time>
      </trkpt>
      <trkpt lat="44.83907" lon="6.45534">
        <ele>1233.6</ele>
        <time>2024-08-12T03:17:28Z</time>
      </trkpt>
      <trkpt lat="44.83909" lon="6.45531">
        <ele>1233.8</ele>
        <time>2024-08-12T03:17:29Z</time>
      </trkpt>
      <trkpt lat="44.83909" lon="6.45531">
        <ele>1233.8</ele>
        <time>2024-08-12T03:17:30Z</time>
      </trkpt>
      <trkpt lat="44.8391" lon="6.45527">
        <ele>1233.8</ele>
        <time>2024-08-12T03:17:31Z</time>
      </trkpt>
      <trkpt lat="44.8391" lon="6.45527">
        <ele>1234</ele>
        <time>2024-08-12T03:17:32Z</time>
      </trkpt>
      <trkpt lat="44.83911" lon="6.45524">
        <ele>1234.2</ele>
        <time>2024-08-12T03:17:33Z</time>
      </trkpt>
      <trkpt lat="44.83911" lon="6.45524">
        <ele>1234.2</ele>
        <time>2024-08-12T03:17:34Z</time>
      </trkpt>
      <trkpt lat="44.83911" lon="6.45521">
        <ele>1234.4</ele>
        <time>2024-08-12T03:17:35Z</time>
      </trkpt>
      <trkpt lat="44.83911" lon="6.45521">
        <ele>1234.6</ele>
        <time>2024-08-12T03:17:36Z</time>
      </trkpt>
      <trkpt lat="44.83913" lon="6.45518">
        <ele>1234.8</ele>
        <time>2024-08-12T03:17:37Z</time>
      </trkpt>
      <trkpt lat="44.83913" lon="6.45518">
        <ele>1234.8</ele>
        <time>2024-08-12T03:17:38Z</time>
      </trkpt>
      <trkpt lat="44.83913" lon="6.45515">
        <ele>1235</ele>
        <time>2024-08-12T03:17:39Z</time>
      </trkpt>
      <trkpt lat="44.83913" lon="6.45515">
        <ele>1235</ele>
        <time>2024-08-12T03:17:40Z</time>
      </trkpt>
      <trkpt lat="44.83915" lon="6.45511">
        <ele>1235</ele>
        <time>2024-08-12T03:17:41Z</time>
      </trkpt>
      <trkpt lat="44.83915" lon="6.45511">
        <ele>1235</ele>
        <time>2024-08-12T03:17:42Z</time>
      </trkpt>
      <trkpt lat="44.83915" lon="6.45507">
        <ele>1235.2</ele>
        <time>2024-08-12T03:17:43Z</time>
      </trkpt>
      <trkpt lat="44.83915" lon="6.45507">
        <ele>1235.2</ele>
        <time>2024-08-12T03:17:44Z</time>
      </trkpt>
      <trkpt lat="44.83916" lon="6.45504">
        <ele>1235.4</ele>
        <time>2024-08-12T03:17:45Z</time>
      </trkpt>
      <trkpt lat="44.83916" lon="6.45504">
        <ele>1235.6</ele>
        <time>2024-08-12T03:17:46Z</time>
      </trkpt>
      <trkpt lat="44.83917" lon="6.45502">
        <ele>1235.6</ele>
        <time>2024-08-12T03:17:47Z</time>
      </trkpt>
      <trkpt lat="44.83918" lon="6.455">
        <ele>1235.6</ele>
        <time>2024-08-12T03:17:48Z</time>
      </trkpt>
      <trkpt lat="44.83918" lon="6.455">
        <ele>1235.6</ele>
        <time>2024-08-12T03:17:49Z</time>
      </trkpt>
      <trkpt lat="44.83921" lon="6.45498">
        <ele>1235.6</ele>
        <time>2024-08-12T03:17:50Z</time>
      </trkpt>
      <trkpt lat="44.83921" lon="6.45498">
        <ele>1235.6</ele>
        <time>2024-08-12T03:17:51Z</time>
      </trkpt>
      <trkpt lat="44.83923" lon="6.45496">
        <ele>1235.8</ele>
        <time>2024-08-12T03:17:52Z</time>
      </trkpt>
      <trkpt lat="44.83923" lon="6.45496">
        <ele>1235.8</ele>
        <time>2024-08-12T03:17:53Z</time>
      </trkpt>
      <trkpt lat="44.83925" lon="6.45494">
        <ele>1235.8</ele>
        <time>2024-08-12T03:17:54Z</time>
      </trkpt>
      <trkpt lat="44.83925" lon="6.45494">
        <ele>1235.8</ele>
        <time>2024-08-12T03:17:55Z</time>
      </trkpt>
      <trkpt lat="44.83926" lon="6.45491">
        <ele>1236</ele>
        <time>2024-08-12T03:17:56Z</time>
      </trkpt>
      <trkpt lat="44.83926" lon="6.45491">
        <ele>1236</ele>
        <time>2024-08-12T03:17:57Z</time>
      </trkpt>
      <trkpt lat="44.83929" lon="6.45489">
        <ele>1236</ele>
        <time>2024-08-12T03:17:58Z</time>
      </trkpt>
      <trkpt lat="44.83929" lon="6.45489">
        <ele>1236</ele>
        <time>2024-08-12T03:17:59Z</time>
      </trkpt>
      <trkpt lat="44.83931" lon="6.45486">
        <ele>1236</ele>
        <time>2024-08-12T03:18:00Z</time>
      </trkpt>
      <trkpt lat="44.83931" lon="6.45486">
        <ele>1236</ele>
        <time>2024-08-12T03:18:01Z</time>
      </trkpt>
      <trkpt lat="44.83932" lon="6.45483">
        <ele>1236.4</ele>
        <time>2024-08-12T03:18:02Z</time>
      </trkpt>
      <trkpt lat="44.83932" lon="6.45483">
        <ele>1236.4</ele>
        <time>2024-08-12T03:18:03Z</time>
      </trkpt>
      <trkpt lat="44.83934" lon="6.45481">
        <ele>1236.4</ele>
        <time>2024-08-12T03:18:04Z</time>
      </trkpt>
      <trkpt lat="44.83934" lon="6.45481">
        <ele>1236.4</ele>
        <time>2024-08-12T03:18:05Z</time>
      </trkpt>
      <trkpt lat="44.83935" lon="6.45477">
        <ele>1236.4</ele>
        <time>2024-08-12T03:18:06Z</time>
      </trkpt>
      <trkpt lat="44.83935" lon="6.45477">
        <ele>1236.4</ele>
        <time>2024-08-12T03:18:07Z</time>
      </trkpt>
      <trkpt lat="44.83937" lon="6.45474">
        <ele>1236.6</ele>
        <time>2024-08-12T03:18:08Z</time>
      </trkpt>
      <trkpt lat="44.83937" lon="6.45474">
        <ele>1236.6</ele>
        <time>2024-08-12T03:18:09Z</time>
      </trkpt>
      <trkpt lat="44.83939" lon="6.45471">
        <ele>1236.6</ele>
        <time>2024-08-12T03:18:10Z</time>
      </trkpt>
      <trkpt lat="44.83939" lon="6.45471">
        <ele>1236.6</ele>
        <time>2024-08-12T03:18:11Z</time>
      </trkpt>
      <trkpt lat="44.83939" lon="6.45468">
        <ele>1236.8</ele>
        <time>2024-08-12T03:18:12Z</time>
      </trkpt>
      <trkpt lat="44.83939" lon="6.45468">
        <ele>1236.8</ele>
        <time>2024-08-12T03:18:13Z</time>
      </trkpt>
      <trkpt lat="44.8394" lon="6.45464">
        <ele>1236.8</ele>
        <time>2024-08-12T03:18:14Z</time>
      </trkpt>
      <trkpt lat="44.8394" lon="6.45464">
        <ele>1237</ele>
        <time>2024-08-12T03:18:15Z</time>
      </trkpt>
      <trkpt lat="44.83941" lon="6.45461">
        <ele>1237</ele>
        <time>2024-08-12T03:18:16Z</time>
      </trkpt>
      <trkpt lat="44.83941" lon="6.45461">
        <ele>1237</ele>
        <time>2024-08-12T03:18:17Z</time>
      </trkpt>
      <trkpt lat="44.83941" lon="6.45458">
        <ele>1237</ele>
        <time>2024-08-12T03:18:18Z</time>
      </trkpt>
      <trkpt lat="44.83941" lon="6.45458">
        <ele>1237.2</ele>
        <time>2024-08-12T03:18:19Z</time>
      </trkpt>
      <trkpt lat="44.83942" lon="6.45454">
        <ele>1237.2</ele>
        <time>2024-08-12T03:18:20Z</time>
      </trkpt>
      <trkpt lat="44.83942" lon="6.45454">
        <ele>1237.2</ele>
        <time>2024-08-12T03:18:21Z</time>
      </trkpt>
      <trkpt lat="44.83943" lon="6.45451">
        <ele>1237.4</ele>
        <time>2024-08-12T03:18:22Z</time>
      </trkpt>
      <trkpt lat="44.83943" lon="6.45451">
        <ele>1237.4</ele>
        <time>2024-08-12T03:18:23Z</time>
      </trkpt>
      <trkpt lat="44.83944" lon="6.45447">
        <ele>1237.4</ele>
        <time>2024-08-12T03:18:24Z</time>
      </trkpt>
      <trkpt lat="44.83944" lon="6.45447">
        <ele>1237.4</ele>
        <time>2024-08-12T03:18:25Z</time>
      </trkpt>
      <trkpt lat="44.83945" lon="6.45444">
        <ele>1237.6</ele>
        <time>2024-08-12T03:18:26Z</time>
      </trkpt>
      <trkpt lat="44.83945" lon="6.45444">
        <ele>1237.6</ele>
        <time>2024-08-12T03:18:27Z</time>
      </trkpt>
      <trkpt lat="44.83946" lon="6.4544">
        <ele>1237.8</ele>
        <time>2024-08-12T03:18:28Z</time>
      </trkpt>
      <trkpt lat="44.83946" lon="6.4544">
        <ele>1238</ele>
        <time>2024-08-12T03:18:29Z</time>
      </trkpt>
      <trkpt lat="44.83946" lon="6.45436">
        <ele>1238</ele>
        <time>2024-08-12T03:18:30Z</time>
      </trkpt>
      <trkpt lat="44.83946" lon="6.45436">
        <ele>1238.2</ele>
        <time>2024-08-12T03:18:31Z</time>
      </trkpt>
      <trkpt lat="44.83948" lon="6.45433">
        <ele>1238.2</ele>
        <time>2024-08-12T03:18:32Z</time>
      </trkpt>
      <trkpt lat="44.83948" lon="6.45433">
        <ele>1238.2</ele>
        <time>2024-08-12T03:18:33Z</time>
      </trkpt>
      <trkpt lat="44.83947" lon="6.45429">
        <ele>1238.2</ele>
        <time>2024-08-12T03:18:34Z</time>
      </trkpt>
      <trkpt lat="44.83947" lon="6.45429">
        <ele>1238.4</ele>
        <time>2024-08-12T03:18:35Z</time>
      </trkpt>
      <trkpt lat="44.83948" lon="6.45427">
        <ele>1238.6</ele>
        <time>2024-08-12T03:18:36Z</time>
      </trkpt>
      <trkpt lat="44.83948" lon="6.45427">
        <ele>1238.8</ele>
        <time>2024-08-12T03:18:37Z</time>
      </trkpt>
      <trkpt lat="44.83948" lon="6.45423">
        <ele>1239</ele>
        <time>2024-08-12T03:18:38Z</time>
      </trkpt>
      <trkpt lat="44.83948" lon="6.45423">
        <ele>1239</ele>
        <time>2024-08-12T03:18:39Z</time>
      </trkpt>
      <trkpt lat="44.83948" lon="6.45419">
        <ele>1238.8</ele>
        <time>2024-08-12T03:18:40Z</time>
      </trkpt>
      <trkpt lat="44.83948" lon="6.45419">
        <ele>1238.8</ele>
        <time>2024-08-12T03:18:41Z</time>
      </trkpt>
      <trkpt lat="44.83947" lon="6.45415">
        <ele>1239</ele>
        <time>2024-08-12T03:18:42Z</time>
      </trkpt>
      <trkpt lat="44.83947" lon="6.45415">
        <ele>1239.2</ele>
        <time>2024-08-12T03:18:43Z</time>
      </trkpt>
      <trkpt lat="44.83947" lon="6.45412">
        <ele>1239.2</ele>
        <time>2024-08-12T03:18:44Z</time>
      </trkpt>
      <trkpt lat="44.83947" lon="6.45412">
        <ele>1239.2</ele>
        <time>2024-08-12T03:18:45Z</time>
      </trkpt>
      <trkpt lat="44.83948" lon="6.45408">
        <ele>1239.2</ele>
        <time>2024-08-12T03:18:46Z</time>
      </trkpt>
      <trkpt lat="44.83949" lon="6.45406">
        <ele>1239.4</ele>
        <time>2024-08-12T03:18:47Z</time>
      </trkpt>
      <trkpt lat="44.83949" lon="6.45406">
        <ele>1239.6</ele>
        <time>2024-08-12T03:18:48Z</time>
      </trkpt>
      <trkpt lat="44.83949" lon="6.45403">
        <ele>1239.8</ele>
        <time>2024-08-12T03:18:49Z</time>
      </trkpt>
      <trkpt lat="44.83949" lon="6.45403">
        <ele>1239.8</ele>
        <time>2024-08-12T03:18:50Z</time>
      </trkpt>
      <trkpt lat="44.83949" lon="6.45399">
        <ele>1240</ele>
        <time>2024-08-12T03:18:51Z</time>
      </trkpt>
      <trkpt lat="44.83949" lon="6.45399">
        <ele>1240</ele>
        <time>2024-08-12T03:18:52Z</time>
      </trkpt>
      <trkpt lat="44.8395" lon="6.45396">
        <ele>1240</ele>
        <time>2024-08-12T03:18:53Z</time>
      </trkpt>
      <trkpt lat="44.8395" lon="6.45396">
        <ele>1240</ele>
        <time>2024-08-12T03:18:54Z</time>
      </trkpt>
      <trkpt lat="44.8395" lon="6.45393">
        <ele>1240</ele>
        <time>2024-08-12T03:18:55Z</time>
      </trkpt>
      <trkpt lat="44.8395" lon="6.45393">
        <ele>1240</ele>
        <time>2024-08-12T03:18:56Z</time>
      </trkpt>
      <trkpt lat="44.8395" lon="6.45389">
        <ele>1240.4</ele>
        <time>2024-08-12T03:18:57Z</time>
      </trkpt>
      <trkpt lat="44.8395" lon="6.45389">
        <ele>1240.6</ele>
        <time>2024-08-12T03:18:58Z</time>
      </trkpt>
      <trkpt lat="44.83949" lon="6.45386">
        <ele>1240.6</ele>
        <time>2024-08-12T03:18:59Z</time>
      </trkpt>
      <trkpt lat="44.83949" lon="6.45386">
        <ele>1240.8</ele>
        <time>2024-08-12T03:19:00Z</time>
      </trkpt>
      <trkpt lat="44.83948" lon="6.45382">
        <ele>1240.8</ele>
        <time>2024-08-12T03:19:01Z</time>
      </trkpt>
      <trkpt lat="44.83948" lon="6.45382">
        <ele>1240.8</ele>
        <time>2024-08-12T03:19:02Z</time>
      </trkpt>
      <trkpt lat="44.83947" lon="6.45379">
        <ele>1240.8</ele>
        <time>2024-08-12T03:19:03Z</time>
      </trkpt>
      <trkpt lat="44.83947" lon="6.45379">
        <ele>1241</ele>
        <time>2024-08-12T03:19:04Z</time>
      </trkpt>
      <trkpt lat="44.83946" lon="6.45376">
        <ele>1241</ele>
        <time>2024-08-12T03:19:05Z</time>
      </trkpt>
      <trkpt lat="44.83946" lon="6.45376">
        <ele>1241.2</ele>
        <time>2024-08-12T03:19:06Z</time>
      </trkpt>
      <trkpt lat="44.83944" lon="6.45373">
        <ele>1241.4</ele>
        <time>2024-08-12T03:19:07Z</time>
      </trkpt>
      <trkpt lat="44.83944" lon="6.45373">
        <ele>1241.4</ele>
        <time>2024-08-12T03:19:08Z</time>
      </trkpt>
      <trkpt lat="44.83944" lon="6.45369">
        <ele>1241.8</ele>
        <time>2024-08-12T03:19:09Z</time>
      </trkpt>
      <trkpt lat="44.83944" lon="6.45369">
        <ele>1241.8</ele>
        <time>2024-08-12T03:19:10Z</time>
      </trkpt>
      <trkpt lat="44.83943" lon="6.45366">
        <ele>1241.8</ele>
        <time>2024-08-12T03:19:11Z</time>
      </trkpt>
      <trkpt lat="44.83943" lon="6.45366">
        <ele>1242.2</ele>
        <time>2024-08-12T03:19:12Z</time>
      </trkpt>
      <trkpt lat="44.83943" lon="6.45366">
        <ele>1242.6</ele>
        <time>2024-08-12T03:19:13Z</time>
      </trkpt>
      <trkpt lat="44.83943" lon="6.45366">
        <ele>1242.8</ele>
        <time>2024-08-12T03:19:14Z</time>
      </trkpt>
      <trkpt lat="44.83943" lon="6.45366">
        <ele>1243</ele>
        <time>2024-08-12T03:19:15Z</time>
      </trkpt>
      <trkpt lat="44.83943" lon="6.45366">
        <ele>1243</ele>
        <time>2024-08-12T03:19:16Z</time>
      </trkpt>
      <trkpt lat="44.83943" lon="6.45366">
        <ele>1243</ele>
        <time>2024-08-12T03:19:17Z</time>
      </trkpt>
      <trkpt lat="44.83943" lon="6.45366">
        <ele>1243</ele>
        <time>2024-08-12T03:19:18Z</time>
      </trkpt>
      <trkpt lat="44.83943" lon="6.45366">
        <ele>1243</ele>
        <time>2024-08-12T03:19:19Z</time>
      </trkpt>
      <trkpt lat="44.83943" lon="6.45366">
        <ele>1243</ele>
        <time>2024-08-12T03:19:20Z</time>
      </trkpt>
      <trkpt lat="44.83943" lon="6.45363">
        <ele>1242.8</ele>
        <time>2024-08-12T03:19:21Z</time>
      </trkpt>
      <trkpt lat="44.83943" lon="6.45363">
        <ele>1242.8</ele>
        <time>2024-08-12T03:19:22Z</time>
      </trkpt>
      <trkpt lat="44.83943" lon="6.45363">
        <ele>1242.8</ele>
        <time>2024-08-12T03:19:23Z</time>
      </trkpt>
      <trkpt lat="44.83943" lon="6.45363">
        <ele>1243</ele>
        <time>2024-08-12T03:19:24Z</time>
      </trkpt>
      <trkpt lat="44.83943" lon="6.45363">
        <ele>1243</ele>
        <time>2024-08-12T03:19:25Z</time>
      </trkpt>
      <trkpt lat="44.83943" lon="6.45363">
        <ele>1243</ele>
        <time>2024-08-12T03:19:26Z</time>
      </trkpt>
      <trkpt lat="44.83943" lon="6.45363">
        <ele>1242.8</ele>
        <time>2024-08-12T03:19:27Z</time>
      </trkpt>
      <trkpt lat="44.83943" lon="6.45363">
        <ele>1242.6</ele>
        <time>2024-08-12T03:19:28Z</time>
      </trkpt>
      <trkpt lat="44.83945" lon="6.45365">
        <ele>1242.4</ele>
        <time>2024-08-12T03:19:29Z</time>
      </trkpt>
      <trkpt lat="44.83945" lon="6.45365">
        <ele>1242.2</ele>
        <time>2024-08-12T03:19:30Z</time>
      </trkpt>
      <trkpt lat="44.83946" lon="6.45369">
        <ele>1242</ele>
        <time>2024-08-12T03:19:31Z</time>
      </trkpt>
      <trkpt lat="44.83947" lon="6.45372">
        <ele>1242</ele>
        <time>2024-08-12T03:19:32Z</time>
      </trkpt>
      <trkpt lat="44.83948" lon="6.45376">
        <ele>1241.8</ele>
        <time>2024-08-12T03:19:33Z</time>
      </trkpt>
      <trkpt lat="44.83949" lon="6.45379">
        <ele>1241.8</ele>
        <time>2024-08-12T03:19:34Z</time>
      </trkpt>
      <trkpt lat="44.83949" lon="6.45382">
        <ele>1241.8</ele>
        <time>2024-08-12T03:19:35Z</time>
      </trkpt>
      <trkpt lat="44.83949" lon="6.45384">
        <ele>1241.6</ele>
        <time>2024-08-12T03:19:36Z</time>
      </trkpt>
      <trkpt lat="44.8395" lon="6.45387">
        <ele>1241.6</ele>
        <time>2024-08-12T03:19:37Z</time>
      </trkpt>
      <trkpt lat="44.8395" lon="6.45387">
        <ele>1241.4</ele>
        <time>2024-08-12T03:19:38Z</time>
      </trkpt>
      <trkpt lat="44.8395" lon="6.45391">
        <ele>1241.4</ele>
        <time>2024-08-12T03:19:39Z</time>
      </trkpt>
      <trkpt lat="44.8395" lon="6.45391">
        <ele>1241.4</ele>
        <time>2024-08-12T03:19:40Z</time>
      </trkpt>
      <trkpt lat="44.8395" lon="6.45396">
        <ele>1241</ele>
        <time>2024-08-12T03:19:41Z</time>
      </trkpt>
      <trkpt lat="44.8395" lon="6.45396">
        <ele>1241</ele>
        <time>2024-08-12T03:19:42Z</time>
      </trkpt>
      <trkpt lat="44.8395" lon="6.454">
        <ele>1240.8</ele>
        <time>2024-08-12T03:19:43Z</time>
      </trkpt>
      <trkpt lat="44.8395" lon="6.454">
        <ele>1240.8</ele>
        <time>2024-08-12T03:19:44Z</time>
      </trkpt>
      <trkpt lat="44.8395" lon="6.45405">
        <ele>1240.6</ele>
        <time>2024-08-12T03:19:45Z</time>
      </trkpt>
      <trkpt lat="44.8395" lon="6.45405">
        <ele>1240.4</ele>
        <time>2024-08-12T03:19:46Z</time>
      </trkpt>
      <trkpt lat="44.83951" lon="6.45409">
        <ele>1240.2</ele>
        <time>2024-08-12T03:19:47Z</time>
      </trkpt>
      <trkpt lat="44.83951" lon="6.45409">
        <ele>1240.2</ele>
        <time>2024-08-12T03:19:48Z</time>
      </trkpt>
      <trkpt lat="44.83951" lon="6.45414">
        <ele>1240</ele>
        <time>2024-08-12T03:19:49Z</time>
      </trkpt>
      <trkpt lat="44.83951" lon="6.45414">
        <ele>1239.8</ele>
        <time>2024-08-12T03:19:50Z</time>
      </trkpt>
      <trkpt lat="44.8395" lon="6.45418">
        <ele>1239.8</ele>
        <time>2024-08-12T03:19:51Z</time>
      </trkpt>
      <trkpt lat="44.8395" lon="6.45418">
        <ele>1240</ele>
        <time>2024-08-12T03:19:52Z</time>
      </trkpt>
      <trkpt lat="44.8395" lon="6.45422">
        <ele>1240.2</ele>
        <time>2024-08-12T03:19:53Z</time>
      </trkpt>
      <trkpt lat="44.8395" lon="6.45422">
        <ele>1240.2</ele>
        <time>2024-08-12T03:19:54Z</time>
      </trkpt>
      <trkpt lat="44.83949" lon="6.45425">
        <ele>1239.6</ele>
        <time>2024-08-12T03:19:55Z</time>
      </trkpt>
      <trkpt lat="44.83949" lon="6.45425">
        <ele>1239</ele>
        <time>2024-08-12T03:19:56Z</time>
      </trkpt>
      <trkpt lat="44.83948" lon="6.45429">
        <ele>1238.8</ele>
        <time>2024-08-12T03:19:57Z</time>
      </trkpt>
      <trkpt lat="44.83948" lon="6.45429">
        <ele>1238.6</ele>
        <time>2024-08-12T03:19:58Z</time>
      </trkpt>
      <trkpt lat="44.83946" lon="6.45432">
        <ele>1238.6</ele>
        <time>2024-08-12T03:19:59Z</time>
      </trkpt>
      <trkpt lat="44.83946" lon="6.45432">
        <ele>1238.6</ele>
        <time>2024-08-12T03:20:00Z</time>
      </trkpt>
      <trkpt lat="44.83946" lon="6.45436">
        <ele>1238.6</ele>
        <time>2024-08-12T03:20:01Z</time>
      </trkpt>
      <trkpt lat="44.83946" lon="6.45436">
        <ele>1238.4</ele>
        <time>2024-08-12T03:20:02Z</time>
      </trkpt>
      <trkpt lat="44.83944" lon="6.4544">
        <ele>1238.4</ele>
        <time>2024-08-12T03:20:03Z</time>
      </trkpt>
      <trkpt lat="44.83944" lon="6.4544">
        <ele>1238.4</ele>
        <time>2024-08-12T03:20:04Z</time>
      </trkpt>
      <trkpt lat="44.83943" lon="6.45444">
        <ele>1238.4</ele>
        <time>2024-08-12T03:20:05Z</time>
      </trkpt>
      <trkpt lat="44.83943" lon="6.45444">
        <ele>1238.4</ele>
        <time>2024-08-12T03:20:06Z</time>
      </trkpt>
      <trkpt lat="44.83942" lon="6.45448">
        <ele>1238.2</ele>
        <time>2024-08-12T03:20:07Z</time>
      </trkpt>
      <trkpt lat="44.83942" lon="6.45448">
        <ele>1238</ele>
        <time>2024-08-12T03:20:08Z</time>
      </trkpt>
      <trkpt lat="44.83942" lon="6.45451">
        <ele>1238</ele>
        <time>2024-08-12T03:20:09Z</time>
      </trkpt>
      <trkpt lat="44.83942" lon="6.45451">
        <ele>1238</ele>
        <time>2024-08-12T03:20:10Z</time>
      </trkpt>
      <trkpt lat="44.83941" lon="6.45455">
        <ele>1238</ele>
        <time>2024-08-12T03:20:11Z</time>
      </trkpt>
      <trkpt lat="44.83941" lon="6.45455">
        <ele>1238</ele>
        <time>2024-08-12T03:20:12Z</time>
      </trkpt>
      <trkpt lat="44.8394" lon="6.45458">
        <ele>1237.6</ele>
        <time>2024-08-12T03:20:13Z</time>
      </trkpt>
      <trkpt lat="44.8394" lon="6.45458">
        <ele>1237.4</ele>
        <time>2024-08-12T03:20:14Z</time>
      </trkpt>
      <trkpt lat="44.83938" lon="6.45461">
        <ele>1237.4</ele>
        <time>2024-08-12T03:20:15Z</time>
      </trkpt>
      <trkpt lat="44.83938" lon="6.45461">
        <ele>1237.2</ele>
        <time>2024-08-12T03:20:16Z</time>
      </trkpt>
      <trkpt lat="44.83938" lon="6.45465">
        <ele>1237.2</ele>
        <time>2024-08-12T03:20:17Z</time>
      </trkpt>
      <trkpt lat="44.83938" lon="6.45465">
        <ele>1237.2</ele>
        <time>2024-08-12T03:20:18Z</time>
      </trkpt>
      <trkpt lat="44.83937" lon="6.45469">
        <ele>1237.2</ele>
        <time>2024-08-12T03:20:19Z</time>
      </trkpt>
      <trkpt lat="44.83937" lon="6.45469">
        <ele>1237.2</ele>
        <time>2024-08-12T03:20:20Z</time>
      </trkpt>
      <trkpt lat="44.83936" lon="6.45472">
        <ele>1237</ele>
        <time>2024-08-12T03:20:21Z</time>
      </trkpt>
      <trkpt lat="44.83936" lon="6.45472">
        <ele>1237</ele>
        <time>2024-08-12T03:20:22Z</time>
      </trkpt>
      <trkpt lat="44.83934" lon="6.45476">
        <ele>1237</ele>
        <time>2024-08-12T03:20:23Z</time>
      </trkpt>
      <trkpt lat="44.83934" lon="6.45476">
        <ele>1237.2</ele>
        <time>2024-08-12T03:20:24Z</time>
      </trkpt>
      <trkpt lat="44.83934" lon="6.45479">
        <ele>1237.4</ele>
        <time>2024-08-12T03:20:25Z</time>
      </trkpt>
      <trkpt lat="44.83934" lon="6.45479">
        <ele>1237.4</ele>
        <time>2024-08-12T03:20:26Z</time>
      </trkpt>
      <trkpt lat="44.83933" lon="6.45483">
        <ele>1237.2</ele>
        <time>2024-08-12T03:20:27Z</time>
      </trkpt>
      <trkpt lat="44.83933" lon="6.45483">
        <ele>1237</ele>
        <time>2024-08-12T03:20:28Z</time>
      </trkpt>
      <trkpt lat="44.83931" lon="6.45486">
        <ele>1237</ele>
        <time>2024-08-12T03:20:29Z</time>
      </trkpt>
      <trkpt lat="44.83931" lon="6.45486">
        <ele>1237</ele>
        <time>2024-08-12T03:20:30Z</time>
      </trkpt>
      <trkpt lat="44.8393" lon="6.45489">
        <ele>1237</ele>
        <time>2024-08-12T03:20:31Z</time>
      </trkpt>
      <trkpt lat="44.8393" lon="6.45489">
        <ele>1236.6</ele>
        <time>2024-08-12T03:20:32Z</time>
      </trkpt>
      <trkpt lat="44.83929" lon="6.45492">
        <ele>1236.6</ele>
        <time>2024-08-12T03:20:33Z</time>
      </trkpt>
      <trkpt lat="44.83929" lon="6.45492">
        <ele>1236.4</ele>
        <time>2024-08-12T03:20:34Z</time>
      </trkpt>
      <trkpt lat="44.83928" lon="6.45495">
        <ele>1236.4</ele>
        <time>2024-08-12T03:20:35Z</time>
      </trkpt>
      <trkpt lat="44.83928" lon="6.45495">
        <ele>1236.2</ele>
        <time>2024-08-12T03:20:36Z</time>
      </trkpt>
      <trkpt lat="44.83926" lon="6.45498">
        <ele>1235.8</ele>
        <time>2024-08-12T03:20:37Z</time>
      </trkpt>
      <trkpt lat="44.83926" lon="6.45498">
        <ele>1235.8</ele>
        <time>2024-08-12T03:20:38Z</time>
      </trkpt>
      <trkpt lat="44.83925" lon="6.45499">
        <ele>1235.6</ele>
        <time>2024-08-12T03:20:39Z</time>
      </trkpt>
      <trkpt lat="44.83925" lon="6.45499">
        <ele>1235.8</ele>
        <time>2024-08-12T03:20:40Z</time>
      </trkpt>
      <trkpt lat="44.83922" lon="6.45501">
        <ele>1235.8</ele>
        <time>2024-08-12T03:20:41Z</time>
      </trkpt>
      <trkpt lat="44.83922" lon="6.45501">
        <ele>1235.8</ele>
        <time>2024-08-12T03:20:42Z</time>
      </trkpt>
      <trkpt lat="44.8392" lon="6.45502">
        <ele>1235.8</ele>
        <time>2024-08-12T03:20:43Z</time>
      </trkpt>
      <trkpt lat="44.8392" lon="6.45502">
        <ele>1235.8</ele>
        <time>2024-08-12T03:20:44Z</time>
      </trkpt>
      <trkpt lat="44.83918" lon="6.45503">
        <ele>1235.8</ele>
        <time>2024-08-12T03:20:45Z</time>
      </trkpt>
      <trkpt lat="44.83918" lon="6.45503">
        <ele>1235.8</ele>
        <time>2024-08-12T03:20:46Z</time>
      </trkpt>
      <trkpt lat="44.83918" lon="6.45503">
        <ele>1235.8</ele>
        <time>2024-08-12T03:20:47Z</time>
      </trkpt>
      <trkpt lat="44.83916" lon="6.45503">
        <ele>1235.6</ele>
        <time>2024-08-12T03:20:48Z</time>
      </trkpt>
      <trkpt lat="44.83916" lon="6.45503">
        <ele>1235.4</ele>
        <time>2024-08-12T03:20:49Z</time>
      </trkpt>
      <trkpt lat="44.83916" lon="6.45503">
        <ele>1235.4</ele>
        <time>2024-08-12T03:20:50Z</time>
      </trkpt>
      <trkpt lat="44.83916" lon="6.45503">
        <ele>1235.6</ele>
        <time>2024-08-12T03:20:51Z</time>
      </trkpt>
      <trkpt lat="44.83916" lon="6.45503">
        <ele>1235.6</ele>
        <time>2024-08-12T03:20:52Z</time>
      </trkpt>
      <trkpt lat="44.83916" lon="6.45503">
        <ele>1235.6</ele>
        <time>2024-08-12T03:20:53Z</time>
      </trkpt>
      <trkpt lat="44.83917" lon="6.455">
        <ele>1235.6</ele>
        <time>2024-08-12T03:20:54Z</time>
      </trkpt>
      <trkpt lat="44.83917" lon="6.455">
        <ele>1235.6</ele>
        <time>2024-08-12T03:20:55Z</time>
      </trkpt>
      <trkpt lat="44.83917" lon="6.455">
        <ele>1235.6</ele>
        <time>2024-08-12T03:20:56Z</time>
      </trkpt>
      <trkpt lat="44.83917" lon="6.455">
        <ele>1235.6</ele>
        <time>2024-08-12T03:20:57Z</time>
      </trkpt>
      <trkpt lat="44.83917" lon="6.455">
        <ele>1235.6</ele>
        <time>2024-08-12T03:20:58Z</time>
      </trkpt>
      <trkpt lat="44.83917" lon="6.455">
        <ele>1235.8</ele>
        <time>2024-08-12T03:20:59Z</time>
      </trkpt>
      <trkpt lat="44.83917" lon="6.455">
        <ele>1235.8</ele>
        <time>2024-08-12T03:21:00Z</time>
      </trkpt>
      <trkpt lat="44.83917" lon="6.455">
        <ele>1236</ele>
        <time>2024-08-12T03:21:01Z</time>
      </trkpt>
      <trkpt lat="44.83917" lon="6.455">
        <ele>1236</ele>
        <time>2024-08-12T03:21:02Z</time>
      </trkpt>
      <trkpt lat="44.83917" lon="6.455">
        <ele>1236.2</ele>
        <time>2024-08-12T03:21:03Z</time>
      </trkpt>
      <trkpt lat="44.83917" lon="6.455">
        <ele>1236</ele>
        <time>2024-08-12T03:21:04Z</time>
      </trkpt>
      <trkpt lat="44.83917" lon="6.455">
        <ele>1236</ele>
        <time>2024-08-12T03:21:05Z</time>
      </trkpt>
      <trkpt lat="44.83917" lon="6.455">
        <ele>1236</ele>
        <time>2024-08-12T03:21:06Z</time>
      </trkpt>
      <trkpt lat="44.83917" lon="6.455">
        <ele>1236</ele>
        <time>2024-08-12T03:21:07Z</time>
      </trkpt>
      <trkpt lat="44.83917" lon="6.455">
        <ele>1236</ele>
        <time>2024-08-12T03:21:08Z</time>
      </trkpt>
      <trkpt lat="44.83917" lon="6.455">
        <ele>1235.8</ele>
        <time>2024-08-12T03:21:09Z</time>
      </trkpt>
      <trkpt lat="44.83917" lon="6.455">
        <ele>1235.8</ele>
        <time>2024-08-12T03:21:10Z</time>
      </trkpt>
      <trkpt lat="44.83917" lon="6.455">
        <ele>1235.8</ele>
        <time>2024-08-12T03:21:11Z</time>
      </trkpt>
      <trkpt lat="44.83917" lon="6.455">
        <ele>1236</ele>
        <time>2024-08-12T03:21:12Z</time>
      </trkpt>
      <trkpt lat="44.83917" lon="6.455">
        <ele>1236</ele>
        <time>2024-08-12T03:21:13Z</time>
      </trkpt>
      <trkpt lat="44.83917" lon="6.455">
        <ele>1236</ele>
        <time>2024-08-12T03:21:14Z</time>
      </trkpt>
      <trkpt lat="44.83917" lon="6.455">
        <ele>1236</ele>
        <time>2024-08-12T03:21:15Z</time>
      </trkpt>
      <trkpt lat="44.83917" lon="6.455">
        <ele>1236</ele>
        <time>2024-08-12T03:21:16Z</time>
      </trkpt>
      <trkpt lat="44.83917" lon="6.455">
        <ele>1235.8</ele>
        <time>2024-08-12T03:21:17Z</time>
      </trkpt>
      <trkpt lat="44.83917" lon="6.455">
        <ele>1235.8</ele>
        <time>2024-08-12T03:21:18Z</time>
      </trkpt>
      <trkpt lat="44.83917" lon="6.455">
        <ele>1235.8</ele>
        <time>2024-08-12T03:21:19Z</time>
      </trkpt>
      <trkpt lat="44.83917" lon="6.455">
        <ele>1235.8</ele>
        <time>2024-08-12T03:21:20Z</time>
      </trkpt>
      <trkpt lat="44.83917" lon="6.455">
        <ele>1236</ele>
        <time>2024-08-12T03:21:21Z</time>
      </trkpt>
      <trkpt lat="44.83917" lon="6.455">
        <ele>1236</ele>
        <time>2024-08-12T03:21:22Z</time>
      </trkpt>
      <trkpt lat="44.83917" lon="6.455">
        <ele>1236</ele>
        <time>2024-08-12T03:21:23Z</time>
      </trkpt>
      <trkpt lat="44.83917" lon="6.455">
        <ele>1236</ele>
        <time>2024-08-12T03:21:24Z</time>
      </trkpt>
      <trkpt lat="44.83917" lon="6.455">
        <ele>1236</ele>
        <time>2024-08-12T03:21:25Z</time>
      </trkpt>
      <trkpt lat="44.83917" lon="6.455">
        <ele>1236</ele>
        <time>2024-08-12T03:21:26Z</time>
      </trkpt>
      <trkpt lat="44.83917" lon="6.455">
        <ele>1236</ele>
        <time>2024-08-12T03:21:27Z</time>
      </trkpt>
      <trkpt lat="44.83917" lon="6.455">
        <ele>1236</ele>
        <time>2024-08-12T03:21:28Z</time>
      </trkpt>
      <trkpt lat="44.83917" lon="6.455">
        <ele>1236</ele>
        <time>2024-08-12T03:21:29Z</time>
      </trkpt>
      <trkpt lat="44.83917" lon="6.455">
        <ele>1236.2</ele>
        <time>2024-08-12T03:21:30Z</time>
      </trkpt>
      <trkpt lat="44.83917" lon="6.455">
        <ele>1236.2</ele>
        <time>2024-08-12T03:21:31Z</time>
      </trkpt>
      <trkpt lat="44.83917" lon="6.455">
        <ele>1236</ele>
        <time>2024-08-12T03:21:32Z</time>
      </trkpt>
      <trkpt lat="44.83917" lon="6.455">
        <ele>1236</ele>
        <time>2024-08-12T03:21:33Z</time>
      </trkpt>
      <trkpt lat="44.83917" lon="6.455">
        <ele>1236</ele>
        <time>2024-08-12T03:21:34Z</time>
      </trkpt>
      <trkpt lat="44.83917" lon="6.455">
        <ele>1236.2</ele>
        <time>2024-08-12T03:21:35Z</time>
      </trkpt>
      <trkpt lat="44.83917" lon="6.455">
        <ele>1236.2</ele>
        <time>2024-08-12T03:21:36Z</time>
      </trkpt>
      <trkpt lat="44.83917" lon="6.455">
        <ele>1236.2</ele>
        <time>2024-08-12T03:21:37Z</time>
      </trkpt>
      <trkpt lat="44.83917" lon="6.455">
        <ele>1236.2</ele>
        <time>2024-08-12T03:21:38Z</time>
      </trkpt>
      <trkpt lat="44.83918" lon="6.45503">
        <ele>1236.2</ele>
        <time>2024-08-12T03:21:39Z</time>
      </trkpt>
      <trkpt lat="44.83918" lon="6.45503">
        <ele>1236.2</ele>
        <time>2024-08-12T03:21:40Z</time>
      </trkpt>
      <trkpt lat="44.83921" lon="6.45506">
        <ele>1235.8</ele>
        <time>2024-08-12T03:21:41Z</time>
      </trkpt>
      <trkpt lat="44.83923" lon="6.45507">
        <ele>1235.8</ele>
        <time>2024-08-12T03:21:42Z</time>
      </trkpt>
      <trkpt lat="44.83923" lon="6.45507">
        <ele>1235.8</ele>
        <time>2024-08-12T03:21:43Z</time>
      </trkpt>
      <trkpt lat="44.83926" lon="6.4551">
        <ele>1235.6</ele>
        <time>2024-08-12T03:21:44Z</time>
      </trkpt>
      <trkpt lat="44.83926" lon="6.4551">
        <ele>1235.6</ele>
        <time>2024-08-12T03:21:45Z</time>
      </trkpt>
      <trkpt lat="44.83928" lon="6.45511">
        <ele>1235.6</ele>
        <time>2024-08-12T03:21:46Z</time>
      </trkpt>
      <trkpt lat="44.83928" lon="6.45511">
        <ele>1235.6</ele>
        <time>2024-08-12T03:21:47Z</time>
      </trkpt>
      <trkpt lat="44.8393" lon="6.45514">
        <ele>1235.4</ele>
        <time>2024-08-12T03:21:48Z</time>
      </trkpt>
      <trkpt lat="44.8393" lon="6.45514">
        <ele>1235.4</ele>
        <time>2024-08-12T03:21:49Z</time>
      </trkpt>
      <trkpt lat="44.83933" lon="6.45516">
        <ele>1235.4</ele>
        <time>2024-08-12T03:21:50Z</time>
      </trkpt>
      <trkpt lat="44.83933" lon="6.45516">
        <ele>1235.4</ele>
        <time>2024-08-12T03:21:51Z</time>
      </trkpt>
      <trkpt lat="44.83934" lon="6.45519">
        <ele>1235.4</ele>
        <time>2024-08-12T03:21:52Z</time>
      </trkpt>
      <trkpt lat="44.83934" lon="6.45519">
        <ele>1235.4</ele>
        <time>2024-08-12T03:21:53Z</time>
      </trkpt>
      <trkpt lat="44.83937" lon="6.45521">
        <ele>1235.2</ele>
        <time>2024-08-12T03:21:54Z</time>
      </trkpt>
      <trkpt lat="44.83937" lon="6.45521">
        <ele>1235</ele>
        <time>2024-08-12T03:21:55Z</time>
      </trkpt>
      <trkpt lat="44.8394" lon="6.45523">
        <ele>1235</ele>
        <time>2024-08-12T03:21:56Z</time>
      </trkpt>
      <trkpt lat="44.8394" lon="6.45523">
        <ele>1234.8</ele>
        <time>2024-08-12T03:21:57Z</time>
      </trkpt>
      <trkpt lat="44.83943" lon="6.45525">
        <ele>1234.8</ele>
        <time>2024-08-12T03:21:58Z</time>
      </trkpt>
      <trkpt lat="44.83943" lon="6.45525">
        <ele>1234.8</ele>
        <time>2024-08-12T03:21:59Z</time>
      </trkpt>
      <trkpt lat="44.83945" lon="6.45528">
        <ele>1234.4</ele>
        <time>2024-08-12T03:22:00Z</time>
      </trkpt>
      <trkpt lat="44.83945" lon="6.45528">
        <ele>1234.4</ele>
        <time>2024-08-12T03:22:01Z</time>
      </trkpt>
      <trkpt lat="44.83947" lon="6.45531">
        <ele>1234.2</ele>
        <time>2024-08-12T03:22:02Z</time>
      </trkpt>
      <trkpt lat="44.83947" lon="6.45531">
        <ele>1234.2</ele>
        <time>2024-08-12T03:22:03Z</time>
      </trkpt>
      <trkpt lat="44.83949" lon="6.45534">
        <ele>1234</ele>
        <time>2024-08-12T03:22:04Z</time>
      </trkpt>
      <trkpt lat="44.83949" lon="6.45534">
        <ele>1234</ele>
        <time>2024-08-12T03:22:05Z</time>
      </trkpt>
      <trkpt lat="44.83951" lon="6.45536">
        <ele>1234.2</ele>
        <time>2024-08-12T03:22:06Z</time>
      </trkpt>
      <trkpt lat="44.83951" lon="6.45536">
        <ele>1234.4</ele>
        <time>2024-08-12T03:22:07Z</time>
      </trkpt>
      <trkpt lat="44.83953" lon="6.45539">
        <ele>1234.4</ele>
        <time>2024-08-12T03:22:08Z</time>
      </trkpt>
      <trkpt lat="44.83953" lon="6.45539">
        <ele>1234.4</ele>
        <time>2024-08-12T03:22:09Z</time>
      </trkpt>
      <trkpt lat="44.83955" lon="6.45542">
        <ele>1234.2</ele>
        <time>2024-08-12T03:22:10Z</time>
      </trkpt>
      <trkpt lat="44.83955" lon="6.45542">
        <ele>1234.2</ele>
        <time>2024-08-12T03:22:11Z</time>
      </trkpt>
      <trkpt lat="44.83957" lon="6.45544">
        <ele>1233.8</ele>
        <time>2024-08-12T03:22:12Z</time>
      </trkpt>
      <trkpt lat="44.83957" lon="6.45544">
        <ele>1233.8</ele>
        <time>2024-08-12T03:22:13Z</time>
      </trkpt>
      <trkpt lat="44.8396" lon="6.45546">
        <ele>1233.4</ele>
        <time>2024-08-12T03:22:14Z</time>
      </trkpt>
      <trkpt lat="44.8396" lon="6.45546">
        <ele>1233</ele>
        <time>2024-08-12T03:22:15Z</time>
      </trkpt>
      <trkpt lat="44.83962" lon="6.45548">
        <ele>1233</ele>
        <time>2024-08-12T03:22:16Z</time>
      </trkpt>
      <trkpt lat="44.83962" lon="6.45548">
        <ele>1233</ele>
        <time>2024-08-12T03:22:17Z</time>
      </trkpt>
      <trkpt lat="44.83965" lon="6.4555">
        <ele>1232.8</ele>
        <time>2024-08-12T03:22:18Z</time>
      </trkpt>
      <trkpt lat="44.83965" lon="6.4555">
        <ele>1232.8</ele>
        <time>2024-08-12T03:22:19Z</time>
      </trkpt>
      <trkpt lat="44.83968" lon="6.45552">
        <ele>1232.8</ele>
        <time>2024-08-12T03:22:20Z</time>
      </trkpt>
      <trkpt lat="44.83968" lon="6.45552">
        <ele>1232.6</ele>
        <time>2024-08-12T03:22:21Z</time>
      </trkpt>
      <trkpt lat="44.8397" lon="6.45552">
        <ele>1232.6</ele>
        <time>2024-08-12T03:22:22Z</time>
      </trkpt>
      <trkpt lat="44.8397" lon="6.45552">
        <ele>1232.6</ele>
        <time>2024-08-12T03:22:23Z</time>
      </trkpt>
      <trkpt lat="44.83973" lon="6.45552">
        <ele>1232.6</ele>
        <time>2024-08-12T03:22:24Z</time>
      </trkpt>
      <trkpt lat="44.83973" lon="6.45552">
        <ele>1232.4</ele>
        <time>2024-08-12T03:22:25Z</time>
      </trkpt>
      <trkpt lat="44.83976" lon="6.45552">
        <ele>1232.4</ele>
        <time>2024-08-12T03:22:26Z</time>
      </trkpt>
      <trkpt lat="44.83976" lon="6.45552">
        <ele>1232.2</ele>
        <time>2024-08-12T03:22:27Z</time>
      </trkpt>
      <trkpt lat="44.83979" lon="6.45552">
        <ele>1232</ele>
        <time>2024-08-12T03:22:28Z</time>
      </trkpt>
      <trkpt lat="44.83979" lon="6.45552">
        <ele>1232</ele>
        <time>2024-08-12T03:22:29Z</time>
      </trkpt>
      <trkpt lat="44.83981" lon="6.45551">
        <ele>1232</ele>
        <time>2024-08-12T03:22:30Z</time>
      </trkpt>
      <trkpt lat="44.83981" lon="6.45551">
        <ele>1232</ele>
        <time>2024-08-12T03:22:31Z</time>
      </trkpt>
      <trkpt lat="44.83982" lon="6.45549">
        <ele>1232</ele>
        <time>2024-08-12T03:22:32Z</time>
      </trkpt>
      <trkpt lat="44.83982" lon="6.45549">
        <ele>1232</ele>
        <time>2024-08-12T03:22:33Z</time>
      </trkpt>
      <trkpt lat="44.83983" lon="6.45545">
        <ele>1232</ele>
        <time>2024-08-12T03:22:34Z</time>
      </trkpt>
      <trkpt lat="44.83983" lon="6.45542">
        <ele>1232.2</ele>
        <time>2024-08-12T03:22:35Z</time>
      </trkpt>
      <trkpt lat="44.83983" lon="6.45542">
        <ele>1232.4</ele>
        <time>2024-08-12T03:22:36Z</time>
      </trkpt>
      <trkpt lat="44.83983" lon="6.45538">
        <ele>1232.4</ele>
        <time>2024-08-12T03:22:37Z</time>
      </trkpt>
      <trkpt lat="44.83983" lon="6.45538">
        <ele>1232.4</ele>
        <time>2024-08-12T03:22:38Z</time>
      </trkpt>
      <trkpt lat="44.83983" lon="6.45534">
        <ele>1232.6</ele>
        <time>2024-08-12T03:22:39Z</time>
      </trkpt>
      <trkpt lat="44.83983" lon="6.45534">
        <ele>1232.4</ele>
        <time>2024-08-12T03:22:40Z</time>
      </trkpt>
      <trkpt lat="44.83983" lon="6.4553">
        <ele>1232.6</ele>
        <time>2024-08-12T03:22:41Z</time>
      </trkpt>
      <trkpt lat="44.83983" lon="6.4553">
        <ele>1232.6</ele>
        <time>2024-08-12T03:22:42Z</time>
      </trkpt>
      <trkpt lat="44.83983" lon="6.45526">
        <ele>1232.8</ele>
        <time>2024-08-12T03:22:43Z</time>
      </trkpt>
      <trkpt lat="44.83983" lon="6.45526">
        <ele>1233</ele>
        <time>2024-08-12T03:22:44Z</time>
      </trkpt>
      <trkpt lat="44.83984" lon="6.45523">
        <ele>1233.2</ele>
        <time>2024-08-12T03:22:45Z</time>
      </trkpt>
      <trkpt lat="44.83984" lon="6.45523">
        <ele>1233.2</ele>
        <time>2024-08-12T03:22:46Z</time>
      </trkpt>
      <trkpt lat="44.83985" lon="6.45519">
        <ele>1233.4</ele>
        <time>2024-08-12T03:22:47Z</time>
      </trkpt>
      <trkpt lat="44.83985" lon="6.45519">
        <ele>1233.6</ele>
        <time>2024-08-12T03:22:48Z</time>
      </trkpt>
      <trkpt lat="44.83985" lon="6.45516">
        <ele>1233.6</ele>
        <time>2024-08-12T03:22:49Z</time>
      </trkpt>
      <trkpt lat="44.83985" lon="6.45516">
        <ele>1233.6</ele>
        <time>2024-08-12T03:22:50Z</time>
      </trkpt>
      <trkpt lat="44.83985" lon="6.45516">
        <ele>1234</ele>
        <time>2024-08-12T03:22:51Z</time>
      </trkpt>
      <trkpt lat="44.83985" lon="6.45513">
        <ele>1234.2</ele>
        <time>2024-08-12T03:22:52Z</time>
      </trkpt>
      <trkpt lat="44.83985" lon="6.45513">
        <ele>1234.2</ele>
        <time>2024-08-12T03:22:53Z</time>
      </trkpt>
      <trkpt lat="44.83985" lon="6.45513">
        <ele>1234.4</ele>
        <time>2024-08-12T03:22:54Z</time>
      </trkpt>
      <trkpt lat="44.83985" lon="6.45513">
        <ele>1234.4</ele>
        <time>2024-08-12T03:22:55Z</time>
      </trkpt>
      <trkpt lat="44.83984" lon="6.45509">
        <ele>1234.4</ele>
        <time>2024-08-12T03:22:56Z</time>
      </trkpt>
      <trkpt lat="44.83984" lon="6.45509">
        <ele>1234.4</ele>
        <time>2024-08-12T03:22:57Z</time>
      </trkpt>
      <trkpt lat="44.83986" lon="6.45506">
        <ele>1234.2</ele>
        <time>2024-08-12T03:22:58Z</time>
      </trkpt>
      <trkpt lat="44.83986" lon="6.45506">
        <ele>1234.4</ele>
        <time>2024-08-12T03:22:59Z</time>
      </trkpt>
      <trkpt lat="44.83986" lon="6.45502">
        <ele>1234.6</ele>
        <time>2024-08-12T03:23:00Z</time>
      </trkpt>
      <trkpt lat="44.83986" lon="6.45502">
        <ele>1234.6</ele>
        <time>2024-08-12T03:23:01Z</time>
      </trkpt>
      <trkpt lat="44.83987" lon="6.45498">
        <ele>1235</ele>
        <time>2024-08-12T03:23:02Z</time>
      </trkpt>
      <trkpt lat="44.83987" lon="6.45498">
        <ele>1235</ele>
        <time>2024-08-12T03:23:03Z</time>
      </trkpt>
      <trkpt lat="44.83988" lon="6.45495">
        <ele>1235</ele>
        <time>2024-08-12T03:23:04Z</time>
      </trkpt>
      <trkpt lat="44.83988" lon="6.45495">
        <ele>1235</ele>
        <time>2024-08-12T03:23:05Z</time>
      </trkpt>
      <trkpt lat="44.83988" lon="6.45492">
        <ele>1235.4</ele>
        <time>2024-08-12T03:23:06Z</time>
      </trkpt>
      <trkpt lat="44.83988" lon="6.45492">
        <ele>1235.4</ele>
        <time>2024-08-12T03:23:07Z</time>
      </trkpt>
      <trkpt lat="44.83989" lon="6.45489">
        <ele>1235.6</ele>
        <time>2024-08-12T03:23:08Z</time>
      </trkpt>
      <trkpt lat="44.83989" lon="6.45489">
        <ele>1235.6</ele>
        <time>2024-08-12T03:23:09Z</time>
      </trkpt>
      <trkpt lat="44.83989" lon="6.45485">
        <ele>1236</ele>
        <time>2024-08-12T03:23:10Z</time>
      </trkpt>
      <trkpt lat="44.83989" lon="6.45485">
        <ele>1236.2</ele>
        <time>2024-08-12T03:23:11Z</time>
      </trkpt>
      <trkpt lat="44.8399" lon="6.45482">
        <ele>1236.2</ele>
        <time>2024-08-12T03:23:12Z</time>
      </trkpt>
      <trkpt lat="44.8399" lon="6.45482">
        <ele>1236.2</ele>
        <time>2024-08-12T03:23:13Z</time>
      </trkpt>
      <trkpt lat="44.83991" lon="6.45479">
        <ele>1236.4</ele>
        <time>2024-08-12T03:23:14Z</time>
      </trkpt>
      <trkpt lat="44.83991" lon="6.45479">
        <ele>1236.8</ele>
        <time>2024-08-12T03:23:15Z</time>
      </trkpt>
      <trkpt lat="44.83993" lon="6.45475">
        <ele>1237</ele>
        <time>2024-08-12T03:23:16Z</time>
      </trkpt>
      <trkpt lat="44.83993" lon="6.45475">
        <ele>1237.2</ele>
        <time>2024-08-12T03:23:17Z</time>
      </trkpt>
      <trkpt lat="44.83994" lon="6.45472">
        <ele>1237.2</ele>
        <time>2024-08-12T03:23:18Z</time>
      </trkpt>
      <trkpt lat="44.83994" lon="6.45472">
        <ele>1237.2</ele>
        <time>2024-08-12T03:23:19Z</time>
      </trkpt>
      <trkpt lat="44.83996" lon="6.45469">
        <ele>1237.2</ele>
        <time>2024-08-12T03:23:20Z</time>
      </trkpt>
      <trkpt lat="44.83996" lon="6.45469">
        <ele>1237.4</ele>
        <time>2024-08-12T03:23:21Z</time>
      </trkpt>
      <trkpt lat="44.83997" lon="6.45465">
        <ele>1237.6</ele>
        <time>2024-08-12T03:23:22Z</time>
      </trkpt>
      <trkpt lat="44.83997" lon="6.45465">
        <ele>1237.6</ele>
        <time>2024-08-12T03:23:23Z</time>
      </trkpt>
      <trkpt lat="44.83997" lon="6.45461">
        <ele>1237.8</ele>
        <time>2024-08-12T03:23:24Z</time>
      </trkpt>
      <trkpt lat="44.83997" lon="6.45461">
        <ele>1237.8</ele>
        <time>2024-08-12T03:23:25Z</time>
      </trkpt>
      <trkpt lat="44.83998" lon="6.45457">
        <ele>1237.8</ele>
        <time>2024-08-12T03:23:26Z</time>
      </trkpt>
      <trkpt lat="44.83998" lon="6.45457">
        <ele>1238</ele>
        <time>2024-08-12T03:23:27Z</time>
      </trkpt>
      <trkpt lat="44.83999" lon="6.45453">
        <ele>1238</ele>
        <time>2024-08-12T03:23:28Z</time>
      </trkpt>
      <trkpt lat="44.83999" lon="6.45453">
        <ele>1238</ele>
        <time>2024-08-12T03:23:29Z</time>
      </trkpt>
      <trkpt lat="44.83999" lon="6.4545">
        <ele>1238.2</ele>
        <time>2024-08-12T03:23:30Z</time>
      </trkpt>
      <trkpt lat="44.83999" lon="6.4545">
        <ele>1238.4</ele>
        <time>2024-08-12T03:23:31Z</time>
      </trkpt>
      <trkpt lat="44.84" lon="6.45446">
        <ele>1238.4</ele>
        <time>2024-08-12T03:23:32Z</time>
      </trkpt>
      <trkpt lat="44.84" lon="6.45446">
        <ele>1238.4</ele>
        <time>2024-08-12T03:23:33Z</time>
      </trkpt>
      <trkpt lat="44.84002" lon="6.45442">
        <ele>1238.4</ele>
        <time>2024-08-12T03:23:34Z</time>
      </trkpt>
      <trkpt lat="44.84002" lon="6.45442">
        <ele>1238.4</ele>
        <time>2024-08-12T03:23:35Z</time>
      </trkpt>
      <trkpt lat="44.84002" lon="6.45437">
        <ele>1238.4</ele>
        <time>2024-08-12T03:23:36Z</time>
      </trkpt>
      <trkpt lat="44.84002" lon="6.45437">
        <ele>1238.2</ele>
        <time>2024-08-12T03:23:37Z</time>
      </trkpt>
      <trkpt lat="44.84003" lon="6.45433">
        <ele>1238.2</ele>
        <time>2024-08-12T03:23:38Z</time>
      </trkpt>
      <trkpt lat="44.84003" lon="6.4543">
        <ele>1238.2</ele>
        <time>2024-08-12T03:23:39Z</time>
      </trkpt>
      <trkpt lat="44.84003" lon="6.4543">
        <ele>1238.2</ele>
        <time>2024-08-12T03:23:40Z</time>
      </trkpt>
      <trkpt lat="44.84003" lon="6.45425">
        <ele>1238.6</ele>
        <time>2024-08-12T03:23:41Z</time>
      </trkpt>
      <trkpt lat="44.84003" lon="6.45425">
        <ele>1238.6</ele>
        <time>2024-08-12T03:23:42Z</time>
      </trkpt>
      <trkpt lat="44.84003" lon="6.45421">
        <ele>1238.6</ele>
        <time>2024-08-12T03:23:43Z</time>
      </trkpt>
      <trkpt lat="44.84003" lon="6.45421">
        <ele>1238.6</ele>
        <time>2024-08-12T03:23:44Z</time>
      </trkpt>
      <trkpt lat="44.84003" lon="6.45417">
        <ele>1238.6</ele>
        <time>2024-08-12T03:23:45Z</time>
      </trkpt>
      <trkpt lat="44.84003" lon="6.45417">
        <ele>1238.6</ele>
        <time>2024-08-12T03:23:46Z</time>
      </trkpt>
      <trkpt lat="44.84004" lon="6.45412">
        <ele>1238.8</ele>
        <time>2024-08-12T03:23:47Z</time>
      </trkpt>
      <trkpt lat="44.84004" lon="6.45412">
        <ele>1239</ele>
        <time>2024-08-12T03:23:48Z</time>
      </trkpt>
      <trkpt lat="44.84004" lon="6.45409">
        <ele>1239</ele>
        <time>2024-08-12T03:23:49Z</time>
      </trkpt>
      <trkpt lat="44.84004" lon="6.45409">
        <ele>1239</ele>
        <time>2024-08-12T03:23:50Z</time>
      </trkpt>
      <trkpt lat="44.84003" lon="6.45405">
        <ele>1239.2</ele>
        <time>2024-08-12T03:23:51Z</time>
      </trkpt>
      <trkpt lat="44.84003" lon="6.45405">
        <ele>1239.2</ele>
        <time>2024-08-12T03:23:52Z</time>
      </trkpt>
      <trkpt lat="44.84002" lon="6.454">
        <ele>1239</ele>
        <time>2024-08-12T03:23:53Z</time>
      </trkpt>
      <trkpt lat="44.84002" lon="6.454">
        <ele>1239</ele>
        <time>2024-08-12T03:23:54Z</time>
      </trkpt>
      <trkpt lat="44.84002" lon="6.45397">
        <ele>1239</ele>
        <time>2024-08-12T03:23:55Z</time>
      </trkpt>
      <trkpt lat="44.84002" lon="6.45397">
        <ele>1239</ele>
        <time>2024-08-12T03:23:56Z</time>
      </trkpt>
      <trkpt lat="44.84001" lon="6.45393">
        <ele>1239</ele>
        <time>2024-08-12T03:23:57Z</time>
      </trkpt>
      <trkpt lat="44.84001" lon="6.45393">
        <ele>1239</ele>
        <time>2024-08-12T03:23:58Z</time>
      </trkpt>
      <trkpt lat="44.84" lon="6.45389">
        <ele>1239</ele>
        <time>2024-08-12T03:23:59Z</time>
      </trkpt>
      <trkpt lat="44.84" lon="6.45389">
        <ele>1239.2</ele>
        <time>2024-08-12T03:24:00Z</time>
      </trkpt>
      <trkpt lat="44.83999" lon="6.45385">
        <ele>1239.2</ele>
        <time>2024-08-12T03:24:01Z</time>
      </trkpt>
      <trkpt lat="44.83999" lon="6.45385">
        <ele>1239</ele>
        <time>2024-08-12T03:24:02Z</time>
      </trkpt>
      <trkpt lat="44.83997" lon="6.45382">
        <ele>1239</ele>
        <time>2024-08-12T03:24:03Z</time>
      </trkpt>
      <trkpt lat="44.83997" lon="6.45382">
        <ele>1239</ele>
        <time>2024-08-12T03:24:04Z</time>
      </trkpt>
      <trkpt lat="44.83996" lon="6.45377">
        <ele>1239</ele>
        <time>2024-08-12T03:24:05Z</time>
      </trkpt>
      <trkpt lat="44.83996" lon="6.45377">
        <ele>1239.2</ele>
        <time>2024-08-12T03:24:06Z</time>
      </trkpt>
      <trkpt lat="44.83994" lon="6.45374">
        <ele>1239.2</ele>
        <time>2024-08-12T03:24:07Z</time>
      </trkpt>
      <trkpt lat="44.83994" lon="6.45374">
        <ele>1239.2</ele>
        <time>2024-08-12T03:24:08Z</time>
      </trkpt>
      <trkpt lat="44.83993" lon="6.4537">
        <ele>1239.4</ele>
        <time>2024-08-12T03:24:09Z</time>
      </trkpt>
      <trkpt lat="44.83993" lon="6.4537">
        <ele>1239.4</ele>
        <time>2024-08-12T03:24:10Z</time>
      </trkpt>
      <trkpt lat="44.83991" lon="6.45367">
        <ele>1239.6</ele>
        <time>2024-08-12T03:24:11Z</time>
      </trkpt>
      <trkpt lat="44.83991" lon="6.45367">
        <ele>1239.6</ele>
        <time>2024-08-12T03:24:12Z</time>
      </trkpt>
      <trkpt lat="44.8399" lon="6.45363">
        <ele>1239.6</ele>
        <time>2024-08-12T03:24:13Z</time>
      </trkpt>
      <trkpt lat="44.8399" lon="6.45363">
        <ele>1239.6</ele>
        <time>2024-08-12T03:24:14Z</time>
      </trkpt>
      <trkpt lat="44.83988" lon="6.4536">
        <ele>1239.8</ele>
        <time>2024-08-12T03:24:15Z</time>
      </trkpt>
      <trkpt lat="44.83988" lon="6.4536">
        <ele>1240</ele>
        <time>2024-08-12T03:24:16Z</time>
      </trkpt>
      <trkpt lat="44.83987" lon="6.45356">
        <ele>1239.8</ele>
        <time>2024-08-12T03:24:17Z</time>
      </trkpt>
      <trkpt lat="44.83987" lon="6.45356">
        <ele>1239.8</ele>
        <time>2024-08-12T03:24:18Z</time>
      </trkpt>
      <trkpt lat="44.83986" lon="6.45352">
        <ele>1239.8</ele>
        <time>2024-08-12T03:24:19Z</time>
      </trkpt>
      <trkpt lat="44.83986" lon="6.45352">
        <ele>1239.8</ele>
        <time>2024-08-12T03:24:20Z</time>
      </trkpt>
      <trkpt lat="44.83985" lon="6.45348">
        <ele>1239.8</ele>
        <time>2024-08-12T03:24:21Z</time>
      </trkpt>
      <trkpt lat="44.83985" lon="6.45348">
        <ele>1239.8</ele>
        <time>2024-08-12T03:24:22Z</time>
      </trkpt>
      <trkpt lat="44.83984" lon="6.45344">
        <ele>1240</ele>
        <time>2024-08-12T03:24:23Z</time>
      </trkpt>
      <trkpt lat="44.83984" lon="6.45344">
        <ele>1240</ele>
        <time>2024-08-12T03:24:24Z</time>
      </trkpt>
      <trkpt lat="44.83983" lon="6.45341">
        <ele>1240</ele>
        <time>2024-08-12T03:24:25Z</time>
      </trkpt>
      <trkpt lat="44.83983" lon="6.45341">
        <ele>1240.2</ele>
        <time>2024-08-12T03:24:26Z</time>
      </trkpt>
      <trkpt lat="44.83983" lon="6.45337">
        <ele>1240.4</ele>
        <time>2024-08-12T03:24:27Z</time>
      </trkpt>
      <trkpt lat="44.83983" lon="6.45337">
        <ele>1240.6</ele>
        <time>2024-08-12T03:24:28Z</time>
      </trkpt>
      <trkpt lat="44.83982" lon="6.45333">
        <ele>1240.6</ele>
        <time>2024-08-12T03:24:29Z</time>
      </trkpt>
      <trkpt lat="44.83982" lon="6.45333">
        <ele>1240.8</ele>
        <time>2024-08-12T03:24:30Z</time>
      </trkpt>
      <trkpt lat="44.83982" lon="6.45329">
        <ele>1240.8</ele>
        <time>2024-08-12T03:24:31Z</time>
      </trkpt>
      <trkpt lat="44.83982" lon="6.45329">
        <ele>1241</ele>
        <time>2024-08-12T03:24:32Z</time>
      </trkpt>
      <trkpt lat="44.83981" lon="6.45324">
        <ele>1241</ele>
        <time>2024-08-12T03:24:33Z</time>
      </trkpt>
      <trkpt lat="44.83981" lon="6.45324">
        <ele>1241</ele>
        <time>2024-08-12T03:24:34Z</time>
      </trkpt>
      <trkpt lat="44.83981" lon="6.4532">
        <ele>1241</ele>
        <time>2024-08-12T03:24:35Z</time>
      </trkpt>
      <trkpt lat="44.83981" lon="6.4532">
        <ele>1241</ele>
        <time>2024-08-12T03:24:36Z</time>
      </trkpt>
      <trkpt lat="44.83981" lon="6.45316">
        <ele>1241</ele>
        <time>2024-08-12T03:24:37Z</time>
      </trkpt>
      <trkpt lat="44.83981" lon="6.45316">
        <ele>1241.2</ele>
        <time>2024-08-12T03:24:38Z</time>
      </trkpt>
      <trkpt lat="44.83981" lon="6.45312">
        <ele>1241.2</ele>
        <time>2024-08-12T03:24:39Z</time>
      </trkpt>
      <trkpt lat="44.83981" lon="6.45312">
        <ele>1241.6</ele>
        <time>2024-08-12T03:24:40Z</time>
      </trkpt>
      <trkpt lat="44.8398" lon="6.45309">
        <ele>1241.8</ele>
        <time>2024-08-12T03:24:41Z</time>
      </trkpt>
      <trkpt lat="44.8398" lon="6.45309">
        <ele>1241.8</ele>
        <time>2024-08-12T03:24:42Z</time>
      </trkpt>
      <trkpt lat="44.8398" lon="6.45304">
        <ele>1241.8</ele>
        <time>2024-08-12T03:24:43Z</time>
      </trkpt>
      <trkpt lat="44.8398" lon="6.45304">
        <ele>1241.8</ele>
        <time>2024-08-12T03:24:44Z</time>
      </trkpt>
      <trkpt lat="44.83979" lon="6.453">
        <ele>1241.8</ele>
        <time>2024-08-12T03:24:45Z</time>
      </trkpt>
      <trkpt lat="44.83979" lon="6.453">
        <ele>1241.8</ele>
        <time>2024-08-12T03:24:46Z</time>
      </trkpt>
      <trkpt lat="44.83979" lon="6.45296">
        <ele>1242</ele>
        <time>2024-08-12T03:24:47Z</time>
      </trkpt>
      <trkpt lat="44.83979" lon="6.45296">
        <ele>1242</ele>
        <time>2024-08-12T03:24:48Z</time>
      </trkpt>
      <trkpt lat="44.83978" lon="6.45291">
        <ele>1242</ele>
        <time>2024-08-12T03:24:49Z</time>
      </trkpt>
      <trkpt lat="44.83978" lon="6.45291">
        <ele>1242.2</ele>
        <time>2024-08-12T03:24:50Z</time>
      </trkpt>
      <trkpt lat="44.83978" lon="6.45287">
        <ele>1242.4</ele>
        <time>2024-08-12T03:24:51Z</time>
      </trkpt>
      <trkpt lat="44.83978" lon="6.45287">
        <ele>1242.4</ele>
        <time>2024-08-12T03:24:52Z</time>
      </trkpt>
      <trkpt lat="44.83977" lon="6.45284">
        <ele>1242.4</ele>
        <time>2024-08-12T03:24:53Z</time>
      </trkpt>
      <trkpt lat="44.83977" lon="6.45284">
        <ele>1242.6</ele>
        <time>2024-08-12T03:24:54Z</time>
      </trkpt>
      <trkpt lat="44.83977" lon="6.4528">
        <ele>1242.6</ele>
        <time>2024-08-12T03:24:55Z</time>
      </trkpt>
      <trkpt lat="44.83977" lon="6.4528">
        <ele>1242.8</ele>
        <time>2024-08-12T03:24:56Z</time>
      </trkpt>
      <trkpt lat="44.83977" lon="6.45276">
        <ele>1243</ele>
        <time>2024-08-12T03:24:57Z</time>
      </trkpt>
      <trkpt lat="44.83977" lon="6.45276">
        <ele>1243.2</ele>
        <time>2024-08-12T03:24:58Z</time>
      </trkpt>
      <trkpt lat="44.83977" lon="6.45272">
        <ele>1243.4</ele>
        <time>2024-08-12T03:24:59Z</time>
      </trkpt>
      <trkpt lat="44.83977" lon="6.45272">
        <ele>1243.4</ele>
        <time>2024-08-12T03:25:00Z</time>
      </trkpt>
      <trkpt lat="44.83976" lon="6.45268">
        <ele>1243.6</ele>
        <time>2024-08-12T03:25:01Z</time>
      </trkpt>
      <trkpt lat="44.83976" lon="6.45268">
        <ele>1243.6</ele>
        <time>2024-08-12T03:25:02Z</time>
      </trkpt>
      <trkpt lat="44.83976" lon="6.45263">
        <ele>1243.6</ele>
        <time>2024-08-12T03:25:03Z</time>
      </trkpt>
      <trkpt lat="44.83976" lon="6.45263">
        <ele>1244.2</ele>
        <time>2024-08-12T03:25:04Z</time>
      </trkpt>
      <trkpt lat="44.83976" lon="6.45263">
        <ele>1244.2</ele>
        <time>2024-08-12T03:25:05Z</time>
      </trkpt>
      <trkpt lat="44.83976" lon="6.45263">
        <ele>1244.4</ele>
        <time>2024-08-12T03:25:06Z</time>
      </trkpt>
      <trkpt lat="44.83976" lon="6.45263">
        <ele>1244.4</ele>
        <time>2024-08-12T03:25:07Z</time>
      </trkpt>
      <trkpt lat="44.83976" lon="6.45261">
        <ele>1244.6</ele>
        <time>2024-08-12T03:25:08Z</time>
      </trkpt>
      <trkpt lat="44.83976" lon="6.45261">
        <ele>1244.8</ele>
        <time>2024-08-12T03:25:09Z</time>
      </trkpt>
      <trkpt lat="44.83975" lon="6.45258">
        <ele>1244.8</ele>
        <time>2024-08-12T03:25:10Z</time>
      </trkpt>
      <trkpt lat="44.83975" lon="6.45258">
        <ele>1244.8</ele>
        <time>2024-08-12T03:25:11Z</time>
      </trkpt>
      <trkpt lat="44.83974" lon="6.45254">
        <ele>1244.6</ele>
        <time>2024-08-12T03:25:12Z</time>
      </trkpt>
      <trkpt lat="44.83974" lon="6.45254">
        <ele>1244.4</ele>
        <time>2024-08-12T03:25:13Z</time>
      </trkpt>
      <trkpt lat="44.83974" lon="6.45251">
        <ele>1244.4</ele>
        <time>2024-08-12T03:25:14Z</time>
      </trkpt>
      <trkpt lat="44.83973" lon="6.45248">
        <ele>1244.4</ele>
        <time>2024-08-12T03:25:15Z</time>
      </trkpt>
      <trkpt lat="44.83973" lon="6.45248">
        <ele>1244.6</ele>
        <time>2024-08-12T03:25:16Z</time>
      </trkpt>
      <trkpt lat="44.83972" lon="6.45244">
        <ele>1244.6</ele>
        <time>2024-08-12T03:25:17Z</time>
      </trkpt>
      <trkpt lat="44.83972" lon="6.45244">
        <ele>1244.6</ele>
        <time>2024-08-12T03:25:18Z</time>
      </trkpt>
      <trkpt lat="44.83972" lon="6.4524">
        <ele>1244.4</ele>
        <time>2024-08-12T03:25:19Z</time>
      </trkpt>
      <trkpt lat="44.83972" lon="6.4524">
        <ele>1244.4</ele>
        <time>2024-08-12T03:25:20Z</time>
      </trkpt>
      <trkpt lat="44.83972" lon="6.45235">
        <ele>1244.4</ele>
        <time>2024-08-12T03:25:21Z</time>
      </trkpt>
      <trkpt lat="44.83972" lon="6.45235">
        <ele>1244.6</ele>
        <time>2024-08-12T03:25:22Z</time>
      </trkpt>
      <trkpt lat="44.83971" lon="6.45231">
        <ele>1244.6</ele>
        <time>2024-08-12T03:25:23Z</time>
      </trkpt>
      <trkpt lat="44.83971" lon="6.45231">
        <ele>1244.8</ele>
        <time>2024-08-12T03:25:24Z</time>
      </trkpt>
      <trkpt lat="44.8397" lon="6.45227">
        <ele>1244.8</ele>
        <time>2024-08-12T03:25:25Z</time>
      </trkpt>
      <trkpt lat="44.8397" lon="6.45227">
        <ele>1244.8</ele>
        <time>2024-08-12T03:25:26Z</time>
      </trkpt>
      <trkpt lat="44.8397" lon="6.45223">
        <ele>1244.8</ele>
        <time>2024-08-12T03:25:27Z</time>
      </trkpt>
      <trkpt lat="44.8397" lon="6.45223">
        <ele>1244.8</ele>
        <time>2024-08-12T03:25:28Z</time>
      </trkpt>
      <trkpt lat="44.8397" lon="6.45218">
        <ele>1244.8</ele>
        <time>2024-08-12T03:25:29Z</time>
      </trkpt>
      <trkpt lat="44.8397" lon="6.45218">
        <ele>1244.8</ele>
        <time>2024-08-12T03:25:30Z</time>
      </trkpt>
      <trkpt lat="44.8397" lon="6.45214">
        <ele>1245</ele>
        <time>2024-08-12T03:25:31Z</time>
      </trkpt>
      <trkpt lat="44.8397" lon="6.45214">
        <ele>1245.2</ele>
        <time>2024-08-12T03:25:32Z</time>
      </trkpt>
      <trkpt lat="44.8397" lon="6.4521">
        <ele>1245.2</ele>
        <time>2024-08-12T03:25:33Z</time>
      </trkpt>
      <trkpt lat="44.8397" lon="6.4521">
        <ele>1245.4</ele>
        <time>2024-08-12T03:25:34Z</time>
      </trkpt>
      <trkpt lat="44.8397" lon="6.45206">
        <ele>1245.8</ele>
        <time>2024-08-12T03:25:35Z</time>
      </trkpt>
      <trkpt lat="44.8397" lon="6.45206">
        <ele>1245.8</ele>
        <time>2024-08-12T03:25:36Z</time>
      </trkpt>
      <trkpt lat="44.8397" lon="6.45202">
        <ele>1245.8</ele>
        <time>2024-08-12T03:25:37Z</time>
      </trkpt>
      <trkpt lat="44.8397" lon="6.45202">
        <ele>1246</ele>
        <time>2024-08-12T03:25:38Z</time>
      </trkpt>
      <trkpt lat="44.83969" lon="6.45198">
        <ele>1246</ele>
        <time>2024-08-12T03:25:39Z</time>
      </trkpt>
      <trkpt lat="44.83969" lon="6.45198">
        <ele>1246.2</ele>
        <time>2024-08-12T03:25:40Z</time>
      </trkpt>
      <trkpt lat="44.83969" lon="6.45194">
        <ele>1246.2</ele>
        <time>2024-08-12T03:25:41Z</time>
      </trkpt>
      <trkpt lat="44.83969" lon="6.45194">
        <ele>1246.4</ele>
        <time>2024-08-12T03:25:42Z</time>
      </trkpt>
      <trkpt lat="44.83969" lon="6.4519">
        <ele>1246.4</ele>
        <time>2024-08-12T03:25:43Z</time>
      </trkpt>
      <trkpt lat="44.83969" lon="6.4519">
        <ele>1246.6</ele>
        <time>2024-08-12T03:25:44Z</time>
      </trkpt>
      <trkpt lat="44.83969" lon="6.45186">
        <ele>1246.8</ele>
        <time>2024-08-12T03:25:45Z</time>
      </trkpt>
      <trkpt lat="44.83969" lon="6.45186">
        <ele>1247</ele>
        <time>2024-08-12T03:25:46Z</time>
      </trkpt>
      <trkpt lat="44.83969" lon="6.45182">
        <ele>1247</ele>
        <time>2024-08-12T03:25:47Z</time>
      </trkpt>
      <trkpt lat="44.83969" lon="6.45182">
        <ele>1247</ele>
        <time>2024-08-12T03:25:48Z</time>
      </trkpt>
      <trkpt lat="44.83969" lon="6.45178">
        <ele>1247.2</ele>
        <time>2024-08-12T03:25:49Z</time>
      </trkpt>
      <trkpt lat="44.83969" lon="6.45178">
        <ele>1247.6</ele>
        <time>2024-08-12T03:25:50Z</time>
      </trkpt>
      <trkpt lat="44.83969" lon="6.45174">
        <ele>1247.6</ele>
        <time>2024-08-12T03:25:51Z</time>
      </trkpt>
      <trkpt lat="44.83969" lon="6.45174">
        <ele>1247.6</ele>
        <time>2024-08-12T03:25:52Z</time>
      </trkpt>
      <trkpt lat="44.83969" lon="6.4517">
        <ele>1247.6</ele>
        <time>2024-08-12T03:25:53Z</time>
      </trkpt>
      <trkpt lat="44.83969" lon="6.4517">
        <ele>1247.6</ele>
        <time>2024-08-12T03:25:54Z</time>
      </trkpt>
      <trkpt lat="44.83969" lon="6.45166">
        <ele>1248</ele>
        <time>2024-08-12T03:25:55Z</time>
      </trkpt>
      <trkpt lat="44.83969" lon="6.45166">
        <ele>1248</ele>
        <time>2024-08-12T03:25:56Z</time>
      </trkpt>
      <trkpt lat="44.83969" lon="6.45162">
        <ele>1248.2</ele>
        <time>2024-08-12T03:25:57Z</time>
      </trkpt>
      <trkpt lat="44.83969" lon="6.45162">
        <ele>1248.2</ele>
        <time>2024-08-12T03:25:58Z</time>
      </trkpt>
      <trkpt lat="44.83969" lon="6.45159">
        <ele>1248.4</ele>
        <time>2024-08-12T03:25:59Z</time>
      </trkpt>
      <trkpt lat="44.83969" lon="6.45159">
        <ele>1248.6</ele>
        <time>2024-08-12T03:26:00Z</time>
      </trkpt>
      <trkpt lat="44.83969" lon="6.45155">
        <ele>1248.6</ele>
        <time>2024-08-12T03:26:01Z</time>
      </trkpt>
      <trkpt lat="44.83969" lon="6.45155">
        <ele>1248.8</ele>
        <time>2024-08-12T03:26:02Z</time>
      </trkpt>
      <trkpt lat="44.83969" lon="6.45151">
        <ele>1248.8</ele>
        <time>2024-08-12T03:26:03Z</time>
      </trkpt>
      <trkpt lat="44.83969" lon="6.45151">
        <ele>1249.2</ele>
        <time>2024-08-12T03:26:04Z</time>
      </trkpt>
      <trkpt lat="44.83969" lon="6.45147">
        <ele>1249.2</ele>
        <time>2024-08-12T03:26:05Z</time>
      </trkpt>
      <trkpt lat="44.83969" lon="6.45147">
        <ele>1249.4</ele>
        <time>2024-08-12T03:26:06Z</time>
      </trkpt>
      <trkpt lat="44.83969" lon="6.45143">
        <ele>1249.8</ele>
        <time>2024-08-12T03:26:07Z</time>
      </trkpt>
      <trkpt lat="44.83969" lon="6.45143">
        <ele>1249.8</ele>
        <time>2024-08-12T03:26:08Z</time>
      </trkpt>
      <trkpt lat="44.8397" lon="6.45139">
        <ele>1250</ele>
        <time>2024-08-12T03:26:09Z</time>
      </trkpt>
      <trkpt lat="44.8397" lon="6.45139">
        <ele>1250</ele>
        <time>2024-08-12T03:26:10Z</time>
      </trkpt>
      <trkpt lat="44.8397" lon="6.45135">
        <ele>1250</ele>
        <time>2024-08-12T03:26:11Z</time>
      </trkpt>
      <trkpt lat="44.8397" lon="6.45135">
        <ele>1250.2</ele>
        <time>2024-08-12T03:26:12Z</time>
      </trkpt>
      <trkpt lat="44.83971" lon="6.45131">
        <ele>1250.2</ele>
        <time>2024-08-12T03:26:13Z</time>
      </trkpt>
      <trkpt lat="44.83971" lon="6.45131">
        <ele>1250.2</ele>
        <time>2024-08-12T03:26:14Z</time>
      </trkpt>
      <trkpt lat="44.83971" lon="6.45127">
        <ele>1250.6</ele>
        <time>2024-08-12T03:26:15Z</time>
      </trkpt>
      <trkpt lat="44.83971" lon="6.45127">
        <ele>1250.6</ele>
        <time>2024-08-12T03:26:16Z</time>
      </trkpt>
      <trkpt lat="44.83971" lon="6.45123">
        <ele>1250.6</ele>
        <time>2024-08-12T03:26:17Z</time>
      </trkpt>
      <trkpt lat="44.83971" lon="6.45123">
        <ele>1250.6</ele>
        <time>2024-08-12T03:26:18Z</time>
      </trkpt>
      <trkpt lat="44.83972" lon="6.45119">
        <ele>1250.6</ele>
        <time>2024-08-12T03:26:19Z</time>
      </trkpt>
      <trkpt lat="44.83972" lon="6.45119">
        <ele>1250.6</ele>
        <time>2024-08-12T03:26:20Z</time>
      </trkpt>
      <trkpt lat="44.83973" lon="6.45116">
        <ele>1251</ele>
        <time>2024-08-12T03:26:21Z</time>
      </trkpt>
      <trkpt lat="44.83973" lon="6.45116">
        <ele>1251</ele>
        <time>2024-08-12T03:26:22Z</time>
      </trkpt>
      <trkpt lat="44.83974" lon="6.45112">
        <ele>1250.8</ele>
        <time>2024-08-12T03:26:23Z</time>
      </trkpt>
      <trkpt lat="44.83974" lon="6.45112">
        <ele>1250.8</ele>
        <time>2024-08-12T03:26:24Z</time>
      </trkpt>
      <trkpt lat="44.83974" lon="6.45108">
        <ele>1251</ele>
        <time>2024-08-12T03:26:25Z</time>
      </trkpt>
      <trkpt lat="44.83973" lon="6.45105">
        <ele>1251</ele>
        <time>2024-08-12T03:26:26Z</time>
      </trkpt>
      <trkpt lat="44.83973" lon="6.45105">
        <ele>1251</ele>
        <time>2024-08-12T03:26:27Z</time>
      </trkpt>
      <trkpt lat="44.83973" lon="6.45101">
        <ele>1251.2</ele>
        <time>2024-08-12T03:26:28Z</time>
      </trkpt>
      <trkpt lat="44.83973" lon="6.45101">
        <ele>1251.2</ele>
        <time>2024-08-12T03:26:29Z</time>
      </trkpt>
      <trkpt lat="44.83973" lon="6.45097">
        <ele>1251.6</ele>
        <time>2024-08-12T03:26:30Z</time>
      </trkpt>
      <trkpt lat="44.83973" lon="6.45097">
        <ele>1251.6</ele>
        <time>2024-08-12T03:26:31Z</time>
      </trkpt>
      <trkpt lat="44.83973" lon="6.45093">
        <ele>1251.2</ele>
        <time>2024-08-12T03:26:32Z</time>
      </trkpt>
      <trkpt lat="44.83973" lon="6.45093">
        <ele>1251.2</ele>
        <time>2024-08-12T03:26:33Z</time>
      </trkpt>
      <trkpt lat="44.83972" lon="6.45088">
        <ele>1251.2</ele>
        <time>2024-08-12T03:26:34Z</time>
      </trkpt>
      <trkpt lat="44.83972" lon="6.45088">
        <ele>1251.4</ele>
        <time>2024-08-12T03:26:35Z</time>
      </trkpt>
      <trkpt lat="44.8397" lon="6.45085">
        <ele>1251.2</ele>
        <time>2024-08-12T03:26:36Z</time>
      </trkpt>
      <trkpt lat="44.8397" lon="6.45085">
        <ele>1251.4</ele>
        <time>2024-08-12T03:26:37Z</time>
      </trkpt>
      <trkpt lat="44.83969" lon="6.45081">
        <ele>1251.4</ele>
        <time>2024-08-12T03:26:38Z</time>
      </trkpt>
      <trkpt lat="44.83969" lon="6.45081">
        <ele>1251.6</ele>
        <time>2024-08-12T03:26:39Z</time>
      </trkpt>
      <trkpt lat="44.83968" lon="6.45077">
        <ele>1251.6</ele>
        <time>2024-08-12T03:26:40Z</time>
      </trkpt>
      <trkpt lat="44.83968" lon="6.45077">
        <ele>1251.6</ele>
        <time>2024-08-12T03:26:41Z</time>
      </trkpt>
      <trkpt lat="44.83967" lon="6.45074">
        <ele>1251.6</ele>
        <time>2024-08-12T03:26:42Z</time>
      </trkpt>
      <trkpt lat="44.83967" lon="6.45074">
        <ele>1251.8</ele>
        <time>2024-08-12T03:26:43Z</time>
      </trkpt>
      <trkpt lat="44.83966" lon="6.4507">
        <ele>1251.8</ele>
        <time>2024-08-12T03:26:44Z</time>
      </trkpt>
      <trkpt lat="44.83966" lon="6.4507">
        <ele>1251.8</ele>
        <time>2024-08-12T03:26:45Z</time>
      </trkpt>
      <trkpt lat="44.83965" lon="6.45066">
        <ele>1251.8</ele>
        <time>2024-08-12T03:26:46Z</time>
      </trkpt>
      <trkpt lat="44.83965" lon="6.45066">
        <ele>1252</ele>
        <time>2024-08-12T03:26:47Z</time>
      </trkpt>
      <trkpt lat="44.83963" lon="6.45062">
        <ele>1252</ele>
        <time>2024-08-12T03:26:48Z</time>
      </trkpt>
      <trkpt lat="44.83963" lon="6.45062">
        <ele>1252.2</ele>
        <time>2024-08-12T03:26:49Z</time>
      </trkpt>
      <trkpt lat="44.83962" lon="6.45059">
        <ele>1252.4</ele>
        <time>2024-08-12T03:26:50Z</time>
      </trkpt>
      <trkpt lat="44.83962" lon="6.45059">
        <ele>1252.4</ele>
        <time>2024-08-12T03:26:51Z</time>
      </trkpt>
      <trkpt lat="44.83961" lon="6.45056">
        <ele>1252.4</ele>
        <time>2024-08-12T03:26:52Z</time>
      </trkpt>
      <trkpt lat="44.83961" lon="6.45056">
        <ele>1252.4</ele>
        <time>2024-08-12T03:26:53Z</time>
      </trkpt>
      <trkpt lat="44.8396" lon="6.45053">
        <ele>1252.6</ele>
        <time>2024-08-12T03:26:54Z</time>
      </trkpt>
      <trkpt lat="44.8396" lon="6.45053">
        <ele>1252.6</ele>
        <time>2024-08-12T03:26:55Z</time>
      </trkpt>
      <trkpt lat="44.83959" lon="6.45049">
        <ele>1253</ele>
        <time>2024-08-12T03:26:56Z</time>
      </trkpt>
      <trkpt lat="44.83959" lon="6.45049">
        <ele>1253.2</ele>
        <time>2024-08-12T03:26:57Z</time>
      </trkpt>
      <trkpt lat="44.83957" lon="6.45046">
        <ele>1253.2</ele>
        <time>2024-08-12T03:26:58Z</time>
      </trkpt>
      <trkpt lat="44.83957" lon="6.45046">
        <ele>1253.2</ele>
        <time>2024-08-12T03:26:59Z</time>
      </trkpt>
      <trkpt lat="44.83956" lon="6.45043">
        <ele>1253.2</ele>
        <time>2024-08-12T03:27:00Z</time>
      </trkpt>
      <trkpt lat="44.83956" lon="6.45043">
        <ele>1253.2</ele>
        <time>2024-08-12T03:27:01Z</time>
      </trkpt>
      <trkpt lat="44.83955" lon="6.4504">
        <ele>1253.6</ele>
        <time>2024-08-12T03:27:02Z</time>
      </trkpt>
      <trkpt lat="44.83955" lon="6.4504">
        <ele>1253.6</ele>
        <time>2024-08-12T03:27:03Z</time>
      </trkpt>
      <trkpt lat="44.83954" lon="6.45036">
        <ele>1253.6</ele>
        <time>2024-08-12T03:27:04Z</time>
      </trkpt>
      <trkpt lat="44.83954" lon="6.45036">
        <ele>1253.8</ele>
        <time>2024-08-12T03:27:05Z</time>
      </trkpt>
      <trkpt lat="44.83952" lon="6.45033">
        <ele>1253.8</ele>
        <time>2024-08-12T03:27:06Z</time>
      </trkpt>
      <trkpt lat="44.83952" lon="6.45033">
        <ele>1254.2</ele>
        <time>2024-08-12T03:27:07Z</time>
      </trkpt>
      <trkpt lat="44.8395" lon="6.4503">
        <ele>1254.2</ele>
        <time>2024-08-12T03:27:08Z</time>
      </trkpt>
      <trkpt lat="44.8395" lon="6.4503">
        <ele>1254.2</ele>
        <time>2024-08-12T03:27:09Z</time>
      </trkpt>
      <trkpt lat="44.83949" lon="6.45026">
        <ele>1254.2</ele>
        <time>2024-08-12T03:27:10Z</time>
      </trkpt>
      <trkpt lat="44.83949" lon="6.45026">
        <ele>1254.4</ele>
        <time>2024-08-12T03:27:11Z</time>
      </trkpt>
      <trkpt lat="44.83948" lon="6.45024">
        <ele>1254.6</ele>
        <time>2024-08-12T03:27:12Z</time>
      </trkpt>
      <trkpt lat="44.83948" lon="6.45024">
        <ele>1254.8</ele>
        <time>2024-08-12T03:27:13Z</time>
      </trkpt>
      <trkpt lat="44.83946" lon="6.45021">
        <ele>1254.8</ele>
        <time>2024-08-12T03:27:14Z</time>
      </trkpt>
      <trkpt lat="44.83946" lon="6.45021">
        <ele>1254.8</ele>
        <time>2024-08-12T03:27:15Z</time>
      </trkpt>
      <trkpt lat="44.83944" lon="6.45018">
        <ele>1255</ele>
        <time>2024-08-12T03:27:16Z</time>
      </trkpt>
      <trkpt lat="44.83944" lon="6.45018">
        <ele>1255.4</ele>
        <time>2024-08-12T03:27:17Z</time>
      </trkpt>
      <trkpt lat="44.83943" lon="6.45015">
        <ele>1255.6</ele>
        <time>2024-08-12T03:27:18Z</time>
      </trkpt>
      <trkpt lat="44.83943" lon="6.45015">
        <ele>1256</ele>
        <time>2024-08-12T03:27:19Z</time>
      </trkpt>
      <trkpt lat="44.83941" lon="6.45012">
        <ele>1256.2</ele>
        <time>2024-08-12T03:27:20Z</time>
      </trkpt>
      <trkpt lat="44.83941" lon="6.45012">
        <ele>1256.4</ele>
        <time>2024-08-12T03:27:21Z</time>
      </trkpt>
      <trkpt lat="44.8394" lon="6.45009">
        <ele>1256.4</ele>
        <time>2024-08-12T03:27:22Z</time>
      </trkpt>
      <trkpt lat="44.8394" lon="6.45009">
        <ele>1256.4</ele>
        <time>2024-08-12T03:27:23Z</time>
      </trkpt>
      <trkpt lat="44.83938" lon="6.45007">
        <ele>1256.4</ele>
        <time>2024-08-12T03:27:24Z</time>
      </trkpt>
      <trkpt lat="44.83938" lon="6.45007">
        <ele>1256.4</ele>
        <time>2024-08-12T03:27:25Z</time>
      </trkpt>
      <trkpt lat="44.83937" lon="6.45003">
        <ele>1256.6</ele>
        <time>2024-08-12T03:27:26Z</time>
      </trkpt>
      <trkpt lat="44.83937" lon="6.45003">
        <ele>1257</ele>
        <time>2024-08-12T03:27:27Z</time>
      </trkpt>
      <trkpt lat="44.83935" lon="6.45">
        <ele>1257.2</ele>
        <time>2024-08-12T03:27:28Z</time>
      </trkpt>
      <trkpt lat="44.83935" lon="6.45">
        <ele>1257.2</ele>
        <time>2024-08-12T03:27:29Z</time>
      </trkpt>
      <trkpt lat="44.83934" lon="6.44997">
        <ele>1257.4</ele>
        <time>2024-08-12T03:27:30Z</time>
      </trkpt>
      <trkpt lat="44.83934" lon="6.44997">
        <ele>1257.4</ele>
        <time>2024-08-12T03:27:31Z</time>
      </trkpt>
      <trkpt lat="44.83933" lon="6.44993">
        <ele>1257.4</ele>
        <time>2024-08-12T03:27:32Z</time>
      </trkpt>
      <trkpt lat="44.83933" lon="6.44993">
        <ele>1257.4</ele>
        <time>2024-08-12T03:27:33Z</time>
      </trkpt>
      <trkpt lat="44.83932" lon="6.44989">
        <ele>1257.4</ele>
        <time>2024-08-12T03:27:34Z</time>
      </trkpt>
      <trkpt lat="44.83932" lon="6.44989">
        <ele>1257.6</ele>
        <time>2024-08-12T03:27:35Z</time>
      </trkpt>
      <trkpt lat="44.83931" lon="6.44986">
        <ele>1257.6</ele>
        <time>2024-08-12T03:27:36Z</time>
      </trkpt>
      <trkpt lat="44.83931" lon="6.44986">
        <ele>1257.6</ele>
        <time>2024-08-12T03:27:37Z</time>
      </trkpt>
      <trkpt lat="44.8393" lon="6.44982">
        <ele>1257.6</ele>
        <time>2024-08-12T03:27:38Z</time>
      </trkpt>
      <trkpt lat="44.8393" lon="6.44982">
        <ele>1257.6</ele>
        <time>2024-08-12T03:27:39Z</time>
      </trkpt>
      <trkpt lat="44.83928" lon="6.44979">
        <ele>1257.4</ele>
        <time>2024-08-12T03:27:40Z</time>
      </trkpt>
      <trkpt lat="44.83928" lon="6.44979">
        <ele>1257.4</ele>
        <time>2024-08-12T03:27:41Z</time>
      </trkpt>
      <trkpt lat="44.83927" lon="6.44976">
        <ele>1257.4</ele>
        <time>2024-08-12T03:27:42Z</time>
      </trkpt>
      <trkpt lat="44.83927" lon="6.44976">
        <ele>1257.4</ele>
        <time>2024-08-12T03:27:43Z</time>
      </trkpt>
      <trkpt lat="44.83926" lon="6.44972">
        <ele>1257.6</ele>
        <time>2024-08-12T03:27:44Z</time>
      </trkpt>
      <trkpt lat="44.83926" lon="6.44972">
        <ele>1257.8</ele>
        <time>2024-08-12T03:27:45Z</time>
      </trkpt>
      <trkpt lat="44.83925" lon="6.44968">
        <ele>1257.8</ele>
        <time>2024-08-12T03:27:46Z</time>
      </trkpt>
      <trkpt lat="44.83925" lon="6.44968">
        <ele>1257.8</ele>
        <time>2024-08-12T03:27:47Z</time>
      </trkpt>
      <trkpt lat="44.83923" lon="6.44965">
        <ele>1257.8</ele>
        <time>2024-08-12T03:27:48Z</time>
      </trkpt>
      <trkpt lat="44.83923" lon="6.44965">
        <ele>1257.8</ele>
        <time>2024-08-12T03:27:49Z</time>
      </trkpt>
      <trkpt lat="44.83923" lon="6.44961">
        <ele>1258</ele>
        <time>2024-08-12T03:27:50Z</time>
      </trkpt>
      <trkpt lat="44.83923" lon="6.44961">
        <ele>1258</ele>
        <time>2024-08-12T03:27:51Z</time>
      </trkpt>
      <trkpt lat="44.83921" lon="6.44958">
        <ele>1258</ele>
        <time>2024-08-12T03:27:52Z</time>
      </trkpt>
      <trkpt lat="44.83921" lon="6.44958">
        <ele>1258</ele>
        <time>2024-08-12T03:27:53Z</time>
      </trkpt>
      <trkpt lat="44.8392" lon="6.44955">
        <ele>1258.2</ele>
        <time>2024-08-12T03:27:54Z</time>
      </trkpt>
      <trkpt lat="44.8392" lon="6.44955">
        <ele>1258.2</ele>
        <time>2024-08-12T03:27:55Z</time>
      </trkpt>
      <trkpt lat="44.83919" lon="6.44951">
        <ele>1258.2</ele>
        <time>2024-08-12T03:27:56Z</time>
      </trkpt>
      <trkpt lat="44.83919" lon="6.44951">
        <ele>1258.4</ele>
        <time>2024-08-12T03:27:57Z</time>
      </trkpt>
      <trkpt lat="44.83917" lon="6.44948">
        <ele>1258.4</ele>
        <time>2024-08-12T03:27:58Z</time>
      </trkpt>
      <trkpt lat="44.83917" lon="6.44948">
        <ele>1258.6</ele>
        <time>2024-08-12T03:27:59Z</time>
      </trkpt>
      <trkpt lat="44.83916" lon="6.44944">
        <ele>1258.6</ele>
        <time>2024-08-12T03:28:00Z</time>
      </trkpt>
      <trkpt lat="44.83916" lon="6.44944">
        <ele>1258.6</ele>
        <time>2024-08-12T03:28:01Z</time>
      </trkpt>
      <trkpt lat="44.83914" lon="6.44941">
        <ele>1259</ele>
        <time>2024-08-12T03:28:02Z</time>
      </trkpt>
      <trkpt lat="44.83914" lon="6.44941">
        <ele>1259</ele>
        <time>2024-08-12T03:28:03Z</time>
      </trkpt>
      <trkpt lat="44.83913" lon="6.44937">
        <ele>1258.8</ele>
        <time>2024-08-12T03:28:04Z</time>
      </trkpt>
      <trkpt lat="44.83913" lon="6.44937">
        <ele>1258.8</ele>
        <time>2024-08-12T03:28:05Z</time>
      </trkpt>
      <trkpt lat="44.83911" lon="6.44933">
        <ele>1259</ele>
        <time>2024-08-12T03:28:06Z</time>
      </trkpt>
      <trkpt lat="44.83911" lon="6.44933">
        <ele>1259</ele>
        <time>2024-08-12T03:28:07Z</time>
      </trkpt>
      <trkpt lat="44.83909" lon="6.4493">
        <ele>1259.4</ele>
        <time>2024-08-12T03:28:08Z</time>
      </trkpt>
      <trkpt lat="44.83909" lon="6.4493">
        <ele>1259.4</ele>
        <time>2024-08-12T03:28:09Z</time>
      </trkpt>
      <trkpt lat="44.83907" lon="6.44927">
        <ele>1259.2</ele>
        <time>2024-08-12T03:28:10Z</time>
      </trkpt>
      <trkpt lat="44.83907" lon="6.44927">
        <ele>1259.2</ele>
        <time>2024-08-12T03:28:11Z</time>
      </trkpt>
      <trkpt lat="44.83906" lon="6.44924">
        <ele>1259.4</ele>
        <time>2024-08-12T03:28:12Z</time>
      </trkpt>
      <trkpt lat="44.83906" lon="6.44924">
        <ele>1259.4</ele>
        <time>2024-08-12T03:28:13Z</time>
      </trkpt>
      <trkpt lat="44.83905" lon="6.44921">
        <ele>1259.4</ele>
        <time>2024-08-12T03:28:14Z</time>
      </trkpt>
      <trkpt lat="44.83905" lon="6.44921">
        <ele>1259.6</ele>
        <time>2024-08-12T03:28:15Z</time>
      </trkpt>
      <trkpt lat="44.83904" lon="6.44918">
        <ele>1259.8</ele>
        <time>2024-08-12T03:28:16Z</time>
      </trkpt>
      <trkpt lat="44.83904" lon="6.44918">
        <ele>1259.8</ele>
        <time>2024-08-12T03:28:17Z</time>
      </trkpt>
      <trkpt lat="44.83903" lon="6.44914">
        <ele>1259.6</ele>
        <time>2024-08-12T03:28:18Z</time>
      </trkpt>
      <trkpt lat="44.83903" lon="6.44914">
        <ele>1259.6</ele>
        <time>2024-08-12T03:28:19Z</time>
      </trkpt>
      <trkpt lat="44.83901" lon="6.4491">
        <ele>1260</ele>
        <time>2024-08-12T03:28:20Z</time>
      </trkpt>
      <trkpt lat="44.83901" lon="6.4491">
        <ele>1260</ele>
        <time>2024-08-12T03:28:21Z</time>
      </trkpt>
      <trkpt lat="44.839" lon="6.44907">
        <ele>1260</ele>
        <time>2024-08-12T03:28:22Z</time>
      </trkpt>
      <trkpt lat="44.839" lon="6.44907">
        <ele>1260</ele>
        <time>2024-08-12T03:28:23Z</time>
      </trkpt>
      <trkpt lat="44.83899" lon="6.44904">
        <ele>1260</ele>
        <time>2024-08-12T03:28:24Z</time>
      </trkpt>
      <trkpt lat="44.83899" lon="6.44904">
        <ele>1260.4</ele>
        <time>2024-08-12T03:28:25Z</time>
      </trkpt>
      <trkpt lat="44.83897" lon="6.44901">
        <ele>1260.4</ele>
        <time>2024-08-12T03:28:26Z</time>
      </trkpt>
      <trkpt lat="44.83897" lon="6.44901">
        <ele>1260.4</ele>
        <time>2024-08-12T03:28:27Z</time>
      </trkpt>
      <trkpt lat="44.83895" lon="6.44898">
        <ele>1260.6</ele>
        <time>2024-08-12T03:28:28Z</time>
      </trkpt>
      <trkpt lat="44.83895" lon="6.44898">
        <ele>1260.6</ele>
        <time>2024-08-12T03:28:29Z</time>
      </trkpt>
      <trkpt lat="44.83894" lon="6.44895">
        <ele>1260.8</ele>
        <time>2024-08-12T03:28:30Z</time>
      </trkpt>
      <trkpt lat="44.83894" lon="6.44895">
        <ele>1260.8</ele>
        <time>2024-08-12T03:28:31Z</time>
      </trkpt>
      <trkpt lat="44.83893" lon="6.44891">
        <ele>1261</ele>
        <time>2024-08-12T03:28:32Z</time>
      </trkpt>
      <trkpt lat="44.83893" lon="6.44891">
        <ele>1261.2</ele>
        <time>2024-08-12T03:28:33Z</time>
      </trkpt>
      <trkpt lat="44.83892" lon="6.44888">
        <ele>1261.4</ele>
        <time>2024-08-12T03:28:34Z</time>
      </trkpt>
      <trkpt lat="44.83892" lon="6.44888">
        <ele>1261.6</ele>
        <time>2024-08-12T03:28:35Z</time>
      </trkpt>
      <trkpt lat="44.83891" lon="6.44885">
        <ele>1261.6</ele>
        <time>2024-08-12T03:28:36Z</time>
      </trkpt>
      <trkpt lat="44.83891" lon="6.44885">
        <ele>1261.8</ele>
        <time>2024-08-12T03:28:37Z</time>
      </trkpt>
      <trkpt lat="44.8389" lon="6.44881">
        <ele>1262</ele>
        <time>2024-08-12T03:28:38Z</time>
      </trkpt>
      <trkpt lat="44.83889" lon="6.44879">
        <ele>1262.6</ele>
        <time>2024-08-12T03:28:39Z</time>
      </trkpt>
      <trkpt lat="44.83889" lon="6.44879">
        <ele>1263</ele>
        <time>2024-08-12T03:28:40Z</time>
      </trkpt>
      <trkpt lat="44.83888" lon="6.44875">
        <ele>1263</ele>
        <time>2024-08-12T03:28:41Z</time>
      </trkpt>
      <trkpt lat="44.83888" lon="6.44875">
        <ele>1263</ele>
        <time>2024-08-12T03:28:42Z</time>
      </trkpt>
      <trkpt lat="44.83887" lon="6.44871">
        <ele>1263</ele>
        <time>2024-08-12T03:28:43Z</time>
      </trkpt>
      <trkpt lat="44.83887" lon="6.44871">
        <ele>1263</ele>
        <time>2024-08-12T03:28:44Z</time>
      </trkpt>
      <trkpt lat="44.83885" lon="6.44868">
        <ele>1263</ele>
        <time>2024-08-12T03:28:45Z</time>
      </trkpt>
      <trkpt lat="44.83885" lon="6.44868">
        <ele>1263</ele>
        <time>2024-08-12T03:28:46Z</time>
      </trkpt>
      <trkpt lat="44.83884" lon="6.44865">
        <ele>1263.4</ele>
        <time>2024-08-12T03:28:47Z</time>
      </trkpt>
      <trkpt lat="44.83884" lon="6.44865">
        <ele>1263.8</ele>
        <time>2024-08-12T03:28:48Z</time>
      </trkpt>
      <trkpt lat="44.83883" lon="6.44862">
        <ele>1264</ele>
        <time>2024-08-12T03:28:49Z</time>
      </trkpt>
      <trkpt lat="44.83883" lon="6.44862">
        <ele>1264</ele>
        <time>2024-08-12T03:28:50Z</time>
      </trkpt>
      <trkpt lat="44.83881" lon="6.44859">
        <ele>1264.2</ele>
        <time>2024-08-12T03:28:51Z</time>
      </trkpt>
      <trkpt lat="44.83881" lon="6.44859">
        <ele>1264.2</ele>
        <time>2024-08-12T03:28:52Z</time>
      </trkpt>
      <trkpt lat="44.8388" lon="6.44856">
        <ele>1264.4</ele>
        <time>2024-08-12T03:28:53Z</time>
      </trkpt>
      <trkpt lat="44.8388" lon="6.44856">
        <ele>1264.6</ele>
        <time>2024-08-12T03:28:54Z</time>
      </trkpt>
      <trkpt lat="44.83879" lon="6.44852">
        <ele>1264.6</ele>
        <time>2024-08-12T03:28:55Z</time>
      </trkpt>
      <trkpt lat="44.83879" lon="6.44852">
        <ele>1264.8</ele>
        <time>2024-08-12T03:28:56Z</time>
      </trkpt>
      <trkpt lat="44.83877" lon="6.44849">
        <ele>1264.8</ele>
        <time>2024-08-12T03:28:57Z</time>
      </trkpt>
      <trkpt lat="44.83877" lon="6.44849">
        <ele>1265</ele>
        <time>2024-08-12T03:28:58Z</time>
      </trkpt>
      <trkpt lat="44.83877" lon="6.44846">
        <ele>1265.2</ele>
        <time>2024-08-12T03:28:59Z</time>
      </trkpt>
      <trkpt lat="44.83877" lon="6.44846">
        <ele>1265.2</ele>
        <time>2024-08-12T03:29:00Z</time>
      </trkpt>
      <trkpt lat="44.83875" lon="6.44843">
        <ele>1265.2</ele>
        <time>2024-08-12T03:29:01Z</time>
      </trkpt>
      <trkpt lat="44.83875" lon="6.44843">
        <ele>1265.4</ele>
        <time>2024-08-12T03:29:02Z</time>
      </trkpt>
      <trkpt lat="44.83874" lon="6.44839">
        <ele>1265.4</ele>
        <time>2024-08-12T03:29:03Z</time>
      </trkpt>
      <trkpt lat="44.83874" lon="6.44839">
        <ele>1265.6</ele>
        <time>2024-08-12T03:29:04Z</time>
      </trkpt>
      <trkpt lat="44.83873" lon="6.44836">
        <ele>1266.2</ele>
        <time>2024-08-12T03:29:05Z</time>
      </trkpt>
      <trkpt lat="44.83873" lon="6.44836">
        <ele>1266.2</ele>
        <time>2024-08-12T03:29:06Z</time>
      </trkpt>
      <trkpt lat="44.83872" lon="6.44832">
        <ele>1266.4</ele>
        <time>2024-08-12T03:29:07Z</time>
      </trkpt>
      <trkpt lat="44.83872" lon="6.44832">
        <ele>1266.4</ele>
        <time>2024-08-12T03:29:08Z</time>
      </trkpt>
      <trkpt lat="44.83871" lon="6.44829">
        <ele>1266.6</ele>
        <time>2024-08-12T03:29:09Z</time>
      </trkpt>
      <trkpt lat="44.83871" lon="6.44829">
        <ele>1266.8</ele>
        <time>2024-08-12T03:29:10Z</time>
      </trkpt>
      <trkpt lat="44.8387" lon="6.44825">
        <ele>1267</ele>
        <time>2024-08-12T03:29:11Z</time>
      </trkpt>
      <trkpt lat="44.8387" lon="6.44825">
        <ele>1267</ele>
        <time>2024-08-12T03:29:12Z</time>
      </trkpt>
      <trkpt lat="44.8387" lon="6.44822">
        <ele>1267</ele>
        <time>2024-08-12T03:29:13Z</time>
      </trkpt>
      <trkpt lat="44.8387" lon="6.44822">
        <ele>1267.4</ele>
        <time>2024-08-12T03:29:14Z</time>
      </trkpt>
      <trkpt lat="44.83869" lon="6.44818">
        <ele>1267.6</ele>
        <time>2024-08-12T03:29:15Z</time>
      </trkpt>
      <trkpt lat="44.83869" lon="6.44818">
        <ele>1267.6</ele>
        <time>2024-08-12T03:29:16Z</time>
      </trkpt>
      <trkpt lat="44.83869" lon="6.44814">
        <ele>1267.6</ele>
        <time>2024-08-12T03:29:17Z</time>
      </trkpt>
      <trkpt lat="44.83869" lon="6.44814">
        <ele>1268</ele>
        <time>2024-08-12T03:29:18Z</time>
      </trkpt>
      <trkpt lat="44.83869" lon="6.44811">
        <ele>1268</ele>
        <time>2024-08-12T03:29:19Z</time>
      </trkpt>
      <trkpt lat="44.83869" lon="6.44811">
        <ele>1268</ele>
        <time>2024-08-12T03:29:20Z</time>
      </trkpt>
      <trkpt lat="44.83869" lon="6.44807">
        <ele>1268.2</ele>
        <time>2024-08-12T03:29:21Z</time>
      </trkpt>
      <trkpt lat="44.83869" lon="6.44807">
        <ele>1268.4</ele>
        <time>2024-08-12T03:29:22Z</time>
      </trkpt>
      <trkpt lat="44.8387" lon="6.44804">
        <ele>1268.4</ele>
        <time>2024-08-12T03:29:23Z</time>
      </trkpt>
      <trkpt lat="44.8387" lon="6.44804">
        <ele>1268.8</ele>
        <time>2024-08-12T03:29:24Z</time>
      </trkpt>
      <trkpt lat="44.8387" lon="6.448">
        <ele>1268.8</ele>
        <time>2024-08-12T03:29:25Z</time>
      </trkpt>
      <trkpt lat="44.8387" lon="6.448">
        <ele>1269</ele>
        <time>2024-08-12T03:29:26Z</time>
      </trkpt>
      <trkpt lat="44.8387" lon="6.44796">
        <ele>1269.2</ele>
        <time>2024-08-12T03:29:27Z</time>
      </trkpt>
      <trkpt lat="44.8387" lon="6.44796">
        <ele>1269.2</ele>
        <time>2024-08-12T03:29:28Z</time>
      </trkpt>
      <trkpt lat="44.8387" lon="6.44792">
        <ele>1269.2</ele>
        <time>2024-08-12T03:29:29Z</time>
      </trkpt>
      <trkpt lat="44.8387" lon="6.44792">
        <ele>1269.2</ele>
        <time>2024-08-12T03:29:30Z</time>
      </trkpt>
      <trkpt lat="44.83871" lon="6.44788">
        <ele>1269.4</ele>
        <time>2024-08-12T03:29:31Z</time>
      </trkpt>
      <trkpt lat="44.83871" lon="6.44788">
        <ele>1269.4</ele>
        <time>2024-08-12T03:29:32Z</time>
      </trkpt>
      <trkpt lat="44.83871" lon="6.44785">
        <ele>1269.4</ele>
        <time>2024-08-12T03:29:33Z</time>
      </trkpt>
      <trkpt lat="44.83871" lon="6.44785">
        <ele>1269.6</ele>
        <time>2024-08-12T03:29:34Z</time>
      </trkpt>
      <trkpt lat="44.83872" lon="6.44781">
        <ele>1269.6</ele>
        <time>2024-08-12T03:29:35Z</time>
      </trkpt>
      <trkpt lat="44.83872" lon="6.44781">
        <ele>1269.6</ele>
        <time>2024-08-12T03:29:36Z</time>
      </trkpt>
      <trkpt lat="44.83873" lon="6.44777">
        <ele>1269.6</ele>
        <time>2024-08-12T03:29:37Z</time>
      </trkpt>
      <trkpt lat="44.83873" lon="6.44777">
        <ele>1269.8</ele>
        <time>2024-08-12T03:29:38Z</time>
      </trkpt>
      <trkpt lat="44.83873" lon="6.44773">
        <ele>1269.8</ele>
        <time>2024-08-12T03:29:39Z</time>
      </trkpt>
      <trkpt lat="44.83873" lon="6.44773">
        <ele>1270</ele>
        <time>2024-08-12T03:29:40Z</time>
      </trkpt>
      <trkpt lat="44.83873" lon="6.44769">
        <ele>1270</ele>
        <time>2024-08-12T03:29:41Z</time>
      </trkpt>
      <trkpt lat="44.83873" lon="6.44769">
        <ele>1270</ele>
        <time>2024-08-12T03:29:42Z</time>
      </trkpt>
      <trkpt lat="44.83874" lon="6.44766">
        <ele>1270.2</ele>
        <time>2024-08-12T03:29:43Z</time>
      </trkpt>
      <trkpt lat="44.83874" lon="6.44766">
        <ele>1270.4</ele>
        <time>2024-08-12T03:29:44Z</time>
      </trkpt>
      <trkpt lat="44.83875" lon="6.44762">
        <ele>1270.6</ele>
        <time>2024-08-12T03:29:45Z</time>
      </trkpt>
      <trkpt lat="44.83875" lon="6.44762">
        <ele>1270.6</ele>
        <time>2024-08-12T03:29:46Z</time>
      </trkpt>
      <trkpt lat="44.83875" lon="6.44758">
        <ele>1270.6</ele>
        <time>2024-08-12T03:29:47Z</time>
      </trkpt>
      <trkpt lat="44.83875" lon="6.44758">
        <ele>1270.6</ele>
        <time>2024-08-12T03:29:48Z</time>
      </trkpt>
      <trkpt lat="44.83875" lon="6.44754">
        <ele>1270.8</ele>
        <time>2024-08-12T03:29:49Z</time>
      </trkpt>
      <trkpt lat="44.83875" lon="6.44754">
        <ele>1270.8</ele>
        <time>2024-08-12T03:29:50Z</time>
      </trkpt>
      <trkpt lat="44.83875" lon="6.4475">
        <ele>1270.8</ele>
        <time>2024-08-12T03:29:51Z</time>
      </trkpt>
      <trkpt lat="44.83875" lon="6.4475">
        <ele>1270.8</ele>
        <time>2024-08-12T03:29:52Z</time>
      </trkpt>
      <trkpt lat="44.83876" lon="6.44746">
        <ele>1271</ele>
        <time>2024-08-12T03:29:53Z</time>
      </trkpt>
      <trkpt lat="44.83876" lon="6.44746">
        <ele>1271.2</ele>
        <time>2024-08-12T03:29:54Z</time>
      </trkpt>
      <trkpt lat="44.83876" lon="6.44742">
        <ele>1271.2</ele>
        <time>2024-08-12T03:29:55Z</time>
      </trkpt>
      <trkpt lat="44.83876" lon="6.44742">
        <ele>1271.4</ele>
        <time>2024-08-12T03:29:56Z</time>
      </trkpt>
      <trkpt lat="44.83877" lon="6.44739">
        <ele>1271.4</ele>
        <time>2024-08-12T03:29:57Z</time>
      </trkpt>
      <trkpt lat="44.83877" lon="6.44739">
        <ele>1271.8</ele>
        <time>2024-08-12T03:29:58Z</time>
      </trkpt>
      <trkpt lat="44.83877" lon="6.44735">
        <ele>1271.8</ele>
        <time>2024-08-12T03:29:59Z</time>
      </trkpt>
      <trkpt lat="44.83877" lon="6.44731">
        <ele>1272.2</ele>
        <time>2024-08-12T03:30:01Z</time>
      </trkpt>
      <trkpt lat="44.83877" lon="6.44731">
        <ele>1272.6</ele>
        <time>2024-08-12T03:30:02Z</time>
      </trkpt>
      <trkpt lat="44.83877" lon="6.44727">
        <ele>1272.6</ele>
        <time>2024-08-12T03:30:03Z</time>
      </trkpt>
      <trkpt lat="44.83877" lon="6.44727">
        <ele>1272.4</ele>
        <time>2024-08-12T03:30:04Z</time>
      </trkpt>
      <trkpt lat="44.83877" lon="6.44723">
        <ele>1272.4</ele>
        <time>2024-08-12T03:30:05Z</time>
      </trkpt>
      <trkpt lat="44.83877" lon="6.44723">
        <ele>1272.6</ele>
        <time>2024-08-12T03:30:06Z</time>
      </trkpt>
      <trkpt lat="44.83877" lon="6.4472">
        <ele>1272.8</ele>
        <time>2024-08-12T03:30:07Z</time>
      </trkpt>
      <trkpt lat="44.83877" lon="6.4472">
        <ele>1273</ele>
        <time>2024-08-12T03:30:08Z</time>
      </trkpt>
      <trkpt lat="44.83877" lon="6.44716">
        <ele>1273</ele>
        <time>2024-08-12T03:30:09Z</time>
      </trkpt>
      <trkpt lat="44.83877" lon="6.44716">
        <ele>1273.2</ele>
        <time>2024-08-12T03:30:10Z</time>
      </trkpt>
      <trkpt lat="44.83877" lon="6.44712">
        <ele>1273.4</ele>
        <time>2024-08-12T03:30:11Z</time>
      </trkpt>
      <trkpt lat="44.83877" lon="6.44712">
        <ele>1273.4</ele>
        <time>2024-08-12T03:30:12Z</time>
      </trkpt>
      <trkpt lat="44.83877" lon="6.44708">
        <ele>1273.6</ele>
        <time>2024-08-12T03:30:13Z</time>
      </trkpt>
      <trkpt lat="44.83877" lon="6.44708">
        <ele>1273.6</ele>
        <time>2024-08-12T03:30:14Z</time>
      </trkpt>
      <trkpt lat="44.83877" lon="6.44704">
        <ele>1273.6</ele>
        <time>2024-08-12T03:30:15Z</time>
      </trkpt>
      <trkpt lat="44.83877" lon="6.44704">
        <ele>1273.8</ele>
        <time>2024-08-12T03:30:16Z</time>
      </trkpt>
      <trkpt lat="44.83877" lon="6.447">
        <ele>1273.8</ele>
        <time>2024-08-12T03:30:17Z</time>
      </trkpt>
      <trkpt lat="44.83877" lon="6.447">
        <ele>1273.8</ele>
        <time>2024-08-12T03:30:18Z</time>
      </trkpt>
      <trkpt lat="44.83877" lon="6.44697">
        <ele>1273.8</ele>
        <time>2024-08-12T03:30:19Z</time>
      </trkpt>
      <trkpt lat="44.83877" lon="6.44697">
        <ele>1274</ele>
        <time>2024-08-12T03:30:20Z</time>
      </trkpt>
      <trkpt lat="44.83877" lon="6.44693">
        <ele>1274.4</ele>
        <time>2024-08-12T03:30:21Z</time>
      </trkpt>
      <trkpt lat="44.83877" lon="6.44693">
        <ele>1274.4</ele>
        <time>2024-08-12T03:30:22Z</time>
      </trkpt>
      <trkpt lat="44.83877" lon="6.44689">
        <ele>1274.6</ele>
        <time>2024-08-12T03:30:23Z</time>
      </trkpt>
      <trkpt lat="44.83877" lon="6.44689">
        <ele>1274.6</ele>
        <time>2024-08-12T03:30:24Z</time>
      </trkpt>
      <trkpt lat="44.83876" lon="6.44685">
        <ele>1274.8</ele>
        <time>2024-08-12T03:30:25Z</time>
      </trkpt>
      <trkpt lat="44.83876" lon="6.44685">
        <ele>1274.8</ele>
        <time>2024-08-12T03:30:26Z</time>
      </trkpt>
      <trkpt lat="44.83876" lon="6.44681">
        <ele>1274.8</ele>
        <time>2024-08-12T03:30:27Z</time>
      </trkpt>
      <trkpt lat="44.83876" lon="6.44681">
        <ele>1274.8</ele>
        <time>2024-08-12T03:30:28Z</time>
      </trkpt>
      <trkpt lat="44.83876" lon="6.44677">
        <ele>1275</ele>
        <time>2024-08-12T03:30:29Z</time>
      </trkpt>
      <trkpt lat="44.83876" lon="6.44677">
        <ele>1275.2</ele>
        <time>2024-08-12T03:30:30Z</time>
      </trkpt>
      <trkpt lat="44.83876" lon="6.44674">
        <ele>1275.2</ele>
        <time>2024-08-12T03:30:31Z</time>
      </trkpt>
      <trkpt lat="44.83876" lon="6.44674">
        <ele>1275.2</ele>
        <time>2024-08-12T03:30:32Z</time>
      </trkpt>
      <trkpt lat="44.83876" lon="6.4467">
        <ele>1275.4</ele>
        <time>2024-08-12T03:30:33Z</time>
      </trkpt>
      <trkpt lat="44.83876" lon="6.4467">
        <ele>1275.6</ele>
        <time>2024-08-12T03:30:34Z</time>
      </trkpt>
      <trkpt lat="44.83875" lon="6.44666">
        <ele>1275.8</ele>
        <time>2024-08-12T03:30:35Z</time>
      </trkpt>
      <trkpt lat="44.83875" lon="6.44666">
        <ele>1276</ele>
        <time>2024-08-12T03:30:36Z</time>
      </trkpt>
      <trkpt lat="44.83875" lon="6.44662">
        <ele>1276.2</ele>
        <time>2024-08-12T03:30:37Z</time>
      </trkpt>
      <trkpt lat="44.83875" lon="6.44662">
        <ele>1276.2</ele>
        <time>2024-08-12T03:30:38Z</time>
      </trkpt>
      <trkpt lat="44.83875" lon="6.44658">
        <ele>1276.2</ele>
        <time>2024-08-12T03:30:39Z</time>
      </trkpt>
      <trkpt lat="44.83875" lon="6.44658">
        <ele>1276.2</ele>
        <time>2024-08-12T03:30:40Z</time>
      </trkpt>
      <trkpt lat="44.83875" lon="6.44654">
        <ele>1276.2</ele>
        <time>2024-08-12T03:30:41Z</time>
      </trkpt>
      <trkpt lat="44.83875" lon="6.44654">
        <ele>1276.4</ele>
        <time>2024-08-12T03:30:42Z</time>
      </trkpt>
      <trkpt lat="44.83875" lon="6.4465">
        <ele>1276.4</ele>
        <time>2024-08-12T03:30:43Z</time>
      </trkpt>
      <trkpt lat="44.83875" lon="6.4465">
        <ele>1276.6</ele>
        <time>2024-08-12T03:30:44Z</time>
      </trkpt>
      <trkpt lat="44.83876" lon="6.44646">
        <ele>1276.6</ele>
        <time>2024-08-12T03:30:45Z</time>
      </trkpt>
      <trkpt lat="44.83876" lon="6.44646">
        <ele>1276.8</ele>
        <time>2024-08-12T03:30:46Z</time>
      </trkpt>
      <trkpt lat="44.83876" lon="6.44643">
        <ele>1277</ele>
        <time>2024-08-12T03:30:47Z</time>
      </trkpt>
      <trkpt lat="44.83876" lon="6.44643">
        <ele>1277</ele>
        <time>2024-08-12T03:30:48Z</time>
      </trkpt>
      <trkpt lat="44.83877" lon="6.44639">
        <ele>1277</ele>
        <time>2024-08-12T03:30:49Z</time>
      </trkpt>
      <trkpt lat="44.83877" lon="6.44639">
        <ele>1277.2</ele>
        <time>2024-08-12T03:30:50Z</time>
      </trkpt>
      <trkpt lat="44.83877" lon="6.44635">
        <ele>1277.2</ele>
        <time>2024-08-12T03:30:51Z</time>
      </trkpt>
      <trkpt lat="44.83877" lon="6.44635">
        <ele>1277.4</ele>
        <time>2024-08-12T03:30:52Z</time>
      </trkpt>
      <trkpt lat="44.83877" lon="6.44631">
        <ele>1277.6</ele>
        <time>2024-08-12T03:30:53Z</time>
      </trkpt>
      <trkpt lat="44.83877" lon="6.44631">
        <ele>1277.8</ele>
        <time>2024-08-12T03:30:54Z</time>
      </trkpt>
      <trkpt lat="44.83877" lon="6.44628">
        <ele>1277.8</ele>
        <time>2024-08-12T03:30:55Z</time>
      </trkpt>
      <trkpt lat="44.83877" lon="6.44628">
        <ele>1278.2</ele>
        <time>2024-08-12T03:30:56Z</time>
      </trkpt>
      <trkpt lat="44.83877" lon="6.44624">
        <ele>1278.2</ele>
        <time>2024-08-12T03:30:57Z</time>
      </trkpt>
      <trkpt lat="44.83877" lon="6.44624">
        <ele>1278.2</ele>
        <time>2024-08-12T03:30:58Z</time>
      </trkpt>
      <trkpt lat="44.83877" lon="6.4462">
        <ele>1278.4</ele>
        <time>2024-08-12T03:30:59Z</time>
      </trkpt>
      <trkpt lat="44.83877" lon="6.4462">
        <ele>1278.6</ele>
        <time>2024-08-12T03:31:00Z</time>
      </trkpt>
      <trkpt lat="44.83877" lon="6.44617">
        <ele>1279</ele>
        <time>2024-08-12T03:31:01Z</time>
      </trkpt>
      <trkpt lat="44.83877" lon="6.44617">
        <ele>1279.4</ele>
        <time>2024-08-12T03:31:02Z</time>
      </trkpt>
      <trkpt lat="44.83878" lon="6.44614">
        <ele>1279.4</ele>
        <time>2024-08-12T03:31:03Z</time>
      </trkpt>
      <trkpt lat="44.83878" lon="6.44614">
        <ele>1279.4</ele>
        <time>2024-08-12T03:31:04Z</time>
      </trkpt>
      <trkpt lat="44.83878" lon="6.44611">
        <ele>1279.4</ele>
        <time>2024-08-12T03:31:05Z</time>
      </trkpt>
      <trkpt lat="44.83878" lon="6.44611">
        <ele>1279.8</ele>
        <time>2024-08-12T03:31:06Z</time>
      </trkpt>
      <trkpt lat="44.83878" lon="6.44607">
        <ele>1280</ele>
        <time>2024-08-12T03:31:07Z</time>
      </trkpt>
      <trkpt lat="44.83878" lon="6.44607">
        <ele>1280</ele>
        <time>2024-08-12T03:31:08Z</time>
      </trkpt>
      <trkpt lat="44.83878" lon="6.44603">
        <ele>1280</ele>
        <time>2024-08-12T03:31:09Z</time>
      </trkpt>
      <trkpt lat="44.83878" lon="6.44603">
        <ele>1280.2</ele>
        <time>2024-08-12T03:31:10Z</time>
      </trkpt>
      <trkpt lat="44.83878" lon="6.44599">
        <ele>1280.4</ele>
        <time>2024-08-12T03:31:11Z</time>
      </trkpt>
      <trkpt lat="44.83878" lon="6.44599">
        <ele>1280.4</ele>
        <time>2024-08-12T03:31:12Z</time>
      </trkpt>
      <trkpt lat="44.83878" lon="6.44595">
        <ele>1280.4</ele>
        <time>2024-08-12T03:31:13Z</time>
      </trkpt>
      <trkpt lat="44.83878" lon="6.44595">
        <ele>1280.4</ele>
        <time>2024-08-12T03:31:14Z</time>
      </trkpt>
      <trkpt lat="44.83878" lon="6.44592">
        <ele>1280.6</ele>
        <time>2024-08-12T03:31:15Z</time>
      </trkpt>
      <trkpt lat="44.83878" lon="6.44592">
        <ele>1280.8</ele>
        <time>2024-08-12T03:31:16Z</time>
      </trkpt>
      <trkpt lat="44.83878" lon="6.44589">
        <ele>1281.2</ele>
        <time>2024-08-12T03:31:17Z</time>
      </trkpt>
      <trkpt lat="44.83878" lon="6.44589">
        <ele>1281.2</ele>
        <time>2024-08-12T03:31:18Z</time>
      </trkpt>
      <trkpt lat="44.83878" lon="6.44585">
        <ele>1281.4</ele>
        <time>2024-08-12T03:31:19Z</time>
      </trkpt>
      <trkpt lat="44.83878" lon="6.44585">
        <ele>1281.6</ele>
        <time>2024-08-12T03:31:20Z</time>
      </trkpt>
      <trkpt lat="44.83878" lon="6.44581">
        <ele>1281.8</ele>
        <time>2024-08-12T03:31:21Z</time>
      </trkpt>
      <trkpt lat="44.83878" lon="6.44581">
        <ele>1282</ele>
        <time>2024-08-12T03:31:22Z</time>
      </trkpt>
      <trkpt lat="44.83878" lon="6.44577">
        <ele>1282.2</ele>
        <time>2024-08-12T03:31:23Z</time>
      </trkpt>
      <trkpt lat="44.83878" lon="6.44577">
        <ele>1282.4</ele>
        <time>2024-08-12T03:31:24Z</time>
      </trkpt>
      <trkpt lat="44.83878" lon="6.44574">
        <ele>1282.4</ele>
        <time>2024-08-12T03:31:25Z</time>
      </trkpt>
      <trkpt lat="44.83878" lon="6.44574">
        <ele>1282.4</ele>
        <time>2024-08-12T03:31:26Z</time>
      </trkpt>
      <trkpt lat="44.83878" lon="6.4457">
        <ele>1282.8</ele>
        <time>2024-08-12T03:31:27Z</time>
      </trkpt>
      <trkpt lat="44.83878" lon="6.4457">
        <ele>1283</ele>
        <time>2024-08-12T03:31:28Z</time>
      </trkpt>
      <trkpt lat="44.83878" lon="6.44567">
        <ele>1283.2</ele>
        <time>2024-08-12T03:31:29Z</time>
      </trkpt>
      <trkpt lat="44.83878" lon="6.44567">
        <ele>1283.2</ele>
        <time>2024-08-12T03:31:30Z</time>
      </trkpt>
      <trkpt lat="44.83877" lon="6.44562">
        <ele>1283.4</ele>
        <time>2024-08-12T03:31:31Z</time>
      </trkpt>
      <trkpt lat="44.83877" lon="6.44562">
        <ele>1283.4</ele>
        <time>2024-08-12T03:31:32Z</time>
      </trkpt>
      <trkpt lat="44.83877" lon="6.44559">
        <ele>1283.6</ele>
        <time>2024-08-12T03:31:33Z</time>
      </trkpt>
      <trkpt lat="44.83877" lon="6.44559">
        <ele>1283.8</ele>
        <time>2024-08-12T03:31:34Z</time>
      </trkpt>
      <trkpt lat="44.83877" lon="6.44555">
        <ele>1284</ele>
        <time>2024-08-12T03:31:35Z</time>
      </trkpt>
      <trkpt lat="44.83877" lon="6.44555">
        <ele>1284</ele>
        <time>2024-08-12T03:31:36Z</time>
      </trkpt>
      <trkpt lat="44.83877" lon="6.44551">
        <ele>1284</ele>
        <time>2024-08-12T03:31:37Z</time>
      </trkpt>
      <trkpt lat="44.83877" lon="6.44551">
        <ele>1284.2</ele>
        <time>2024-08-12T03:31:38Z</time>
      </trkpt>
      <trkpt lat="44.83877" lon="6.44547">
        <ele>1284.6</ele>
        <time>2024-08-12T03:31:39Z</time>
      </trkpt>
      <trkpt lat="44.83877" lon="6.44547">
        <ele>1284.8</ele>
        <time>2024-08-12T03:31:40Z</time>
      </trkpt>
      <trkpt lat="44.83876" lon="6.44544">
        <ele>1284.8</ele>
        <time>2024-08-12T03:31:41Z</time>
      </trkpt>
      <trkpt lat="44.83876" lon="6.44544">
        <ele>1285</ele>
        <time>2024-08-12T03:31:42Z</time>
      </trkpt>
      <trkpt lat="44.83874" lon="6.4454">
        <ele>1285.2</ele>
        <time>2024-08-12T03:31:43Z</time>
      </trkpt>
      <trkpt lat="44.83874" lon="6.4454">
        <ele>1285.4</ele>
        <time>2024-08-12T03:31:44Z</time>
      </trkpt>
      <trkpt lat="44.83872" lon="6.44537">
        <ele>1285.8</ele>
        <time>2024-08-12T03:31:45Z</time>
      </trkpt>
      <trkpt lat="44.83872" lon="6.44537">
        <ele>1285.8</ele>
        <time>2024-08-12T03:31:46Z</time>
      </trkpt>
      <trkpt lat="44.83871" lon="6.44534">
        <ele>1285.8</ele>
        <time>2024-08-12T03:31:47Z</time>
      </trkpt>
      <trkpt lat="44.83871" lon="6.44534">
        <ele>1285.8</ele>
        <time>2024-08-12T03:31:48Z</time>
      </trkpt>
      <trkpt lat="44.8387" lon="6.44531">
        <ele>1285.8</ele>
        <time>2024-08-12T03:31:49Z</time>
      </trkpt>
      <trkpt lat="44.8387" lon="6.44531">
        <ele>1286.2</ele>
        <time>2024-08-12T03:31:50Z</time>
      </trkpt>
      <trkpt lat="44.8387" lon="6.44527">
        <ele>1286.2</ele>
        <time>2024-08-12T03:31:51Z</time>
      </trkpt>
      <trkpt lat="44.8387" lon="6.44527">
        <ele>1286.2</ele>
        <time>2024-08-12T03:31:52Z</time>
      </trkpt>
      <trkpt lat="44.83869" lon="6.44523">
        <ele>1286.4</ele>
        <time>2024-08-12T03:31:53Z</time>
      </trkpt>
      <trkpt lat="44.83869" lon="6.44523">
        <ele>1286.4</ele>
        <time>2024-08-12T03:31:54Z</time>
      </trkpt>
      <trkpt lat="44.83868" lon="6.4452">
        <ele>1286.8</ele>
        <time>2024-08-12T03:31:55Z</time>
      </trkpt>
      <trkpt lat="44.83868" lon="6.4452">
        <ele>1287</ele>
        <time>2024-08-12T03:31:56Z</time>
      </trkpt>
      <trkpt lat="44.83867" lon="6.44517">
        <ele>1287</ele>
        <time>2024-08-12T03:31:57Z</time>
      </trkpt>
      <trkpt lat="44.83867" lon="6.44517">
        <ele>1287</ele>
        <time>2024-08-12T03:31:58Z</time>
      </trkpt>
      <trkpt lat="44.83866" lon="6.44513">
        <ele>1287.6</ele>
        <time>2024-08-12T03:31:59Z</time>
      </trkpt>
      <trkpt lat="44.83866" lon="6.44513">
        <ele>1287.6</ele>
        <time>2024-08-12T03:32:00Z</time>
      </trkpt>
      <trkpt lat="44.83865" lon="6.4451">
        <ele>1287.6</ele>
        <time>2024-08-12T03:32:01Z</time>
      </trkpt>
      <trkpt lat="44.83865" lon="6.4451">
        <ele>1288</ele>
        <time>2024-08-12T03:32:02Z</time>
      </trkpt>
      <trkpt lat="44.83864" lon="6.44506">
        <ele>1288</ele>
        <time>2024-08-12T03:32:03Z</time>
      </trkpt>
      <trkpt lat="44.83864" lon="6.44506">
        <ele>1288</ele>
        <time>2024-08-12T03:32:04Z</time>
      </trkpt>
      <trkpt lat="44.83864" lon="6.44503">
        <ele>1288</ele>
        <time>2024-08-12T03:32:05Z</time>
      </trkpt>
      <trkpt lat="44.83864" lon="6.44503">
        <ele>1288</ele>
        <time>2024-08-12T03:32:06Z</time>
      </trkpt>
      <trkpt lat="44.83863" lon="6.44499">
        <ele>1288.2</ele>
        <time>2024-08-12T03:32:07Z</time>
      </trkpt>
      <trkpt lat="44.83863" lon="6.44499">
        <ele>1288.6</ele>
        <time>2024-08-12T03:32:08Z</time>
      </trkpt>
      <trkpt lat="44.83863" lon="6.44496">
        <ele>1288.6</ele>
        <time>2024-08-12T03:32:09Z</time>
      </trkpt>
      <trkpt lat="44.83863" lon="6.44496">
        <ele>1288.6</ele>
        <time>2024-08-12T03:32:10Z</time>
      </trkpt>
      <trkpt lat="44.83862" lon="6.44492">
        <ele>1288.8</ele>
        <time>2024-08-12T03:32:11Z</time>
      </trkpt>
      <trkpt lat="44.83862" lon="6.44492">
        <ele>1289</ele>
        <time>2024-08-12T03:32:12Z</time>
      </trkpt>
      <trkpt lat="44.83862" lon="6.44489">
        <ele>1289</ele>
        <time>2024-08-12T03:32:13Z</time>
      </trkpt>
      <trkpt lat="44.83862" lon="6.44489">
        <ele>1289.2</ele>
        <time>2024-08-12T03:32:14Z</time>
      </trkpt>
      <trkpt lat="44.83861" lon="6.44486">
        <ele>1289.2</ele>
        <time>2024-08-12T03:32:15Z</time>
      </trkpt>
      <trkpt lat="44.83861" lon="6.44486">
        <ele>1289.6</ele>
        <time>2024-08-12T03:32:16Z</time>
      </trkpt>
      <trkpt lat="44.83861" lon="6.44483">
        <ele>1289.6</ele>
        <time>2024-08-12T03:32:17Z</time>
      </trkpt>
      <trkpt lat="44.83861" lon="6.44483">
        <ele>1289.8</ele>
        <time>2024-08-12T03:32:18Z</time>
      </trkpt>
      <trkpt lat="44.8386" lon="6.44479">
        <ele>1290</ele>
        <time>2024-08-12T03:32:19Z</time>
      </trkpt>
      <trkpt lat="44.8386" lon="6.44479">
        <ele>1290.2</ele>
        <time>2024-08-12T03:32:20Z</time>
      </trkpt>
      <trkpt lat="44.83858" lon="6.44476">
        <ele>1290.4</ele>
        <time>2024-08-12T03:32:21Z</time>
      </trkpt>
      <trkpt lat="44.83858" lon="6.44476">
        <ele>1290.4</ele>
        <time>2024-08-12T03:32:22Z</time>
      </trkpt>
      <trkpt lat="44.83857" lon="6.44473">
        <ele>1290.6</ele>
        <time>2024-08-12T03:32:23Z</time>
      </trkpt>
      <trkpt lat="44.83857" lon="6.44473">
        <ele>1290.6</ele>
        <time>2024-08-12T03:32:24Z</time>
      </trkpt>
      <trkpt lat="44.83855" lon="6.4447">
        <ele>1290.8</ele>
        <time>2024-08-12T03:32:25Z</time>
      </trkpt>
      <trkpt lat="44.83855" lon="6.4447">
        <ele>1291.2</ele>
        <time>2024-08-12T03:32:26Z</time>
      </trkpt>
      <trkpt lat="44.83854" lon="6.44467">
        <ele>1291.4</ele>
        <time>2024-08-12T03:32:27Z</time>
      </trkpt>
      <trkpt lat="44.83854" lon="6.44467">
        <ele>1291.4</ele>
        <time>2024-08-12T03:32:28Z</time>
      </trkpt>
      <trkpt lat="44.83853" lon="6.44464">
        <ele>1291.6</ele>
        <time>2024-08-12T03:32:29Z</time>
      </trkpt>
      <trkpt lat="44.83853" lon="6.44464">
        <ele>1291.8</ele>
        <time>2024-08-12T03:32:30Z</time>
      </trkpt>
      <trkpt lat="44.83851" lon="6.44461">
        <ele>1292</ele>
        <time>2024-08-12T03:32:31Z</time>
      </trkpt>
      <trkpt lat="44.83851" lon="6.44461">
        <ele>1292</ele>
        <time>2024-08-12T03:32:32Z</time>
      </trkpt>
      <trkpt lat="44.83849" lon="6.44458">
        <ele>1292</ele>
        <time>2024-08-12T03:32:33Z</time>
      </trkpt>
      <trkpt lat="44.83849" lon="6.44458">
        <ele>1292.2</ele>
        <time>2024-08-12T03:32:34Z</time>
      </trkpt>
      <trkpt lat="44.83848" lon="6.44455">
        <ele>1292.4</ele>
        <time>2024-08-12T03:32:35Z</time>
      </trkpt>
      <trkpt lat="44.83848" lon="6.44455">
        <ele>1292.4</ele>
        <time>2024-08-12T03:32:36Z</time>
      </trkpt>
      <trkpt lat="44.83846" lon="6.44452">
        <ele>1292.8</ele>
        <time>2024-08-12T03:32:37Z</time>
      </trkpt>
      <trkpt lat="44.83846" lon="6.44452">
        <ele>1293.2</ele>
        <time>2024-08-12T03:32:38Z</time>
      </trkpt>
      <trkpt lat="44.83845" lon="6.4445">
        <ele>1293.2</ele>
        <time>2024-08-12T03:32:39Z</time>
      </trkpt>
      <trkpt lat="44.83845" lon="6.4445">
        <ele>1293.4</ele>
        <time>2024-08-12T03:32:40Z</time>
      </trkpt>
      <trkpt lat="44.83843" lon="6.44447">
        <ele>1293.4</ele>
        <time>2024-08-12T03:32:41Z</time>
      </trkpt>
      <trkpt lat="44.83843" lon="6.44447">
        <ele>1293.6</ele>
        <time>2024-08-12T03:32:42Z</time>
      </trkpt>
      <trkpt lat="44.83841" lon="6.44444">
        <ele>1293.6</ele>
        <time>2024-08-12T03:32:43Z</time>
      </trkpt>
      <trkpt lat="44.83841" lon="6.44444">
        <ele>1293.8</ele>
        <time>2024-08-12T03:32:44Z</time>
      </trkpt>
      <trkpt lat="44.8384" lon="6.44442">
        <ele>1294.2</ele>
        <time>2024-08-12T03:32:45Z</time>
      </trkpt>
      <trkpt lat="44.8384" lon="6.44442">
        <ele>1294.2</ele>
        <time>2024-08-12T03:32:46Z</time>
      </trkpt>
      <trkpt lat="44.83838" lon="6.4444">
        <ele>1294.4</ele>
        <time>2024-08-12T03:32:47Z</time>
      </trkpt>
      <trkpt lat="44.83838" lon="6.4444">
        <ele>1294.8</ele>
        <time>2024-08-12T03:32:48Z</time>
      </trkpt>
      <trkpt lat="44.83837" lon="6.44437">
        <ele>1295</ele>
        <time>2024-08-12T03:32:49Z</time>
      </trkpt>
      <trkpt lat="44.83837" lon="6.44437">
        <ele>1295</ele>
        <time>2024-08-12T03:32:50Z</time>
      </trkpt>
      <trkpt lat="44.83835" lon="6.44434">
        <ele>1295.2</ele>
        <time>2024-08-12T03:32:51Z</time>
      </trkpt>
      <trkpt lat="44.83835" lon="6.44434">
        <ele>1295.2</ele>
        <time>2024-08-12T03:32:52Z</time>
      </trkpt>
      <trkpt lat="44.83833" lon="6.44431">
        <ele>1295.4</ele>
        <time>2024-08-12T03:32:53Z</time>
      </trkpt>
      <trkpt lat="44.83833" lon="6.44431">
        <ele>1295.6</ele>
        <time>2024-08-12T03:32:54Z</time>
      </trkpt>
      <trkpt lat="44.83832" lon="6.44427">
        <ele>1295.8</ele>
        <time>2024-08-12T03:32:55Z</time>
      </trkpt>
      <trkpt lat="44.83832" lon="6.44427">
        <ele>1295.8</ele>
        <time>2024-08-12T03:32:56Z</time>
      </trkpt>
      <trkpt lat="44.83832" lon="6.44427">
        <ele>1296</ele>
        <time>2024-08-12T03:32:57Z</time>
      </trkpt>
      <trkpt lat="44.83832" lon="6.44427">
        <ele>1296</ele>
        <time>2024-08-12T03:32:58Z</time>
      </trkpt>
      <trkpt lat="44.83832" lon="6.44427">
        <ele>1296.4</ele>
        <time>2024-08-12T03:32:59Z</time>
      </trkpt>
      <trkpt lat="44.83832" lon="6.44427">
        <ele>1296.4</ele>
        <time>2024-08-12T03:33:00Z</time>
      </trkpt>
      <trkpt lat="44.83832" lon="6.44427">
        <ele>1296.6</ele>
        <time>2024-08-12T03:33:01Z</time>
      </trkpt>
      <trkpt lat="44.83832" lon="6.44427">
        <ele>1296.6</ele>
        <time>2024-08-12T03:33:02Z</time>
      </trkpt>
      <trkpt lat="44.83832" lon="6.44427">
        <ele>1296.6</ele>
        <time>2024-08-12T03:33:03Z</time>
      </trkpt>
      <trkpt lat="44.83832" lon="6.44427">
        <ele>1296.6</ele>
        <time>2024-08-12T03:33:04Z</time>
      </trkpt>
      <trkpt lat="44.83832" lon="6.44427">
        <ele>1296.6</ele>
        <time>2024-08-12T03:33:05Z</time>
      </trkpt>
      <trkpt lat="44.83832" lon="6.44427">
        <ele>1296.6</ele>
        <time>2024-08-12T03:33:06Z</time>
      </trkpt>
      <trkpt lat="44.83829" lon="6.44425">
        <ele>1296.6</ele>
        <time>2024-08-12T03:33:07Z</time>
      </trkpt>
      <trkpt lat="44.83829" lon="6.44425">
        <ele>1296.8</ele>
        <time>2024-08-12T03:33:08Z</time>
      </trkpt>
      <trkpt lat="44.83827" lon="6.44422">
        <ele>1297</ele>
        <time>2024-08-12T03:33:09Z</time>
      </trkpt>
      <trkpt lat="44.83827" lon="6.44422">
        <ele>1297</ele>
        <time>2024-08-12T03:33:10Z</time>
      </trkpt>
      <trkpt lat="44.83825" lon="6.44418">
        <ele>1297</ele>
        <time>2024-08-12T03:33:11Z</time>
      </trkpt>
      <trkpt lat="44.83825" lon="6.44418">
        <ele>1297</ele>
        <time>2024-08-12T03:33:12Z</time>
      </trkpt>
      <trkpt lat="44.83824" lon="6.44415">
        <ele>1297.4</ele>
        <time>2024-08-12T03:33:13Z</time>
      </trkpt>
      <trkpt lat="44.83824" lon="6.44415">
        <ele>1297.4</ele>
        <time>2024-08-12T03:33:14Z</time>
      </trkpt>
      <trkpt lat="44.83821" lon="6.44413">
        <ele>1297.6</ele>
        <time>2024-08-12T03:33:15Z</time>
      </trkpt>
      <trkpt lat="44.83821" lon="6.44413">
        <ele>1297.8</ele>
        <time>2024-08-12T03:33:16Z</time>
      </trkpt>
      <trkpt lat="44.8382" lon="6.4441">
        <ele>1297.8</ele>
        <time>2024-08-12T03:33:17Z</time>
      </trkpt>
      <trkpt lat="44.8382" lon="6.4441">
        <ele>1298</ele>
        <time>2024-08-12T03:33:18Z</time>
      </trkpt>
      <trkpt lat="44.83818" lon="6.44407">
        <ele>1298.2</ele>
        <time>2024-08-12T03:33:19Z</time>
      </trkpt>
      <trkpt lat="44.83818" lon="6.44407">
        <ele>1298.4</ele>
        <time>2024-08-12T03:33:20Z</time>
      </trkpt>
      <trkpt lat="44.83817" lon="6.44405">
        <ele>1298.4</ele>
        <time>2024-08-12T03:33:21Z</time>
      </trkpt>
      <trkpt lat="44.83817" lon="6.44405">
        <ele>1298.4</ele>
        <time>2024-08-12T03:33:22Z</time>
      </trkpt>
      <trkpt lat="44.83815" lon="6.44402">
        <ele>1298.8</ele>
        <time>2024-08-12T03:33:23Z</time>
      </trkpt>
      <trkpt lat="44.83815" lon="6.44402">
        <ele>1298.8</ele>
        <time>2024-08-12T03:33:24Z</time>
      </trkpt>
      <trkpt lat="44.83813" lon="6.444">
        <ele>1299</ele>
        <time>2024-08-12T03:33:25Z</time>
      </trkpt>
      <trkpt lat="44.83813" lon="6.444">
        <ele>1299.2</ele>
        <time>2024-08-12T03:33:26Z</time>
      </trkpt>
      <trkpt lat="44.83813" lon="6.44397">
        <ele>1299.6</ele>
        <time>2024-08-12T03:33:27Z</time>
      </trkpt>
      <trkpt lat="44.83813" lon="6.44397">
        <ele>1299.8</ele>
        <time>2024-08-12T03:33:28Z</time>
      </trkpt>
      <trkpt lat="44.83811" lon="6.44394">
        <ele>1299.8</ele>
        <time>2024-08-12T03:33:29Z</time>
      </trkpt>
      <trkpt lat="44.83811" lon="6.44394">
        <ele>1300</ele>
        <time>2024-08-12T03:33:30Z</time>
      </trkpt>
      <trkpt lat="44.83809" lon="6.44391">
        <ele>1300</ele>
        <time>2024-08-12T03:33:31Z</time>
      </trkpt>
      <trkpt lat="44.83809" lon="6.44391">
        <ele>1300</ele>
        <time>2024-08-12T03:33:32Z</time>
      </trkpt>
      <trkpt lat="44.83807" lon="6.44388">
        <ele>1300.2</ele>
        <time>2024-08-12T03:33:33Z</time>
      </trkpt>
      <trkpt lat="44.83807" lon="6.44388">
        <ele>1300.2</ele>
        <time>2024-08-12T03:33:34Z</time>
      </trkpt>
      <trkpt lat="44.83806" lon="6.44385">
        <ele>1300.4</ele>
        <time>2024-08-12T03:33:35Z</time>
      </trkpt>
      <trkpt lat="44.83806" lon="6.44385">
        <ele>1300.4</ele>
        <time>2024-08-12T03:33:36Z</time>
      </trkpt>
      <trkpt lat="44.83805" lon="6.44382">
        <ele>1300.6</ele>
        <time>2024-08-12T03:33:37Z</time>
      </trkpt>
      <trkpt lat="44.83805" lon="6.44382">
        <ele>1300.8</ele>
        <time>2024-08-12T03:33:38Z</time>
      </trkpt>
      <trkpt lat="44.83803" lon="6.44379">
        <ele>1301</ele>
        <time>2024-08-12T03:33:39Z</time>
      </trkpt>
      <trkpt lat="44.83803" lon="6.44379">
        <ele>1301.2</ele>
        <time>2024-08-12T03:33:40Z</time>
      </trkpt>
      <trkpt lat="44.83802" lon="6.44376">
        <ele>1301.2</ele>
        <time>2024-08-12T03:33:41Z</time>
      </trkpt>
      <trkpt lat="44.83802" lon="6.44376">
        <ele>1301.2</ele>
        <time>2024-08-12T03:33:42Z</time>
      </trkpt>
      <trkpt lat="44.83801" lon="6.44372">
        <ele>1301.2</ele>
        <time>2024-08-12T03:33:43Z</time>
      </trkpt>
      <trkpt lat="44.83801" lon="6.44372">
        <ele>1301.8</ele>
        <time>2024-08-12T03:33:44Z</time>
      </trkpt>
      <trkpt lat="44.83799" lon="6.44369">
        <ele>1301.8</ele>
        <time>2024-08-12T03:33:45Z</time>
      </trkpt>
      <trkpt lat="44.83799" lon="6.44369">
        <ele>1301.8</ele>
        <time>2024-08-12T03:33:46Z</time>
      </trkpt>
      <trkpt lat="44.83798" lon="6.44366">
        <ele>1302</ele>
        <time>2024-08-12T03:33:47Z</time>
      </trkpt>
      <trkpt lat="44.83798" lon="6.44366">
        <ele>1302</ele>
        <time>2024-08-12T03:33:48Z</time>
      </trkpt>
      <trkpt lat="44.83797" lon="6.44362">
        <ele>1302.2</ele>
        <time>2024-08-12T03:33:49Z</time>
      </trkpt>
      <trkpt lat="44.83797" lon="6.44362">
        <ele>1302.4</ele>
        <time>2024-08-12T03:33:50Z</time>
      </trkpt>
      <trkpt lat="44.83795" lon="6.4436">
        <ele>1302.6</ele>
        <time>2024-08-12T03:33:51Z</time>
      </trkpt>
      <trkpt lat="44.83795" lon="6.4436">
        <ele>1302.8</ele>
        <time>2024-08-12T03:33:52Z</time>
      </trkpt>
      <trkpt lat="44.83794" lon="6.44357">
        <ele>1302.8</ele>
        <time>2024-08-12T03:33:53Z</time>
      </trkpt>
      <trkpt lat="44.83794" lon="6.44357">
        <ele>1302.8</ele>
        <time>2024-08-12T03:33:54Z</time>
      </trkpt>
      <trkpt lat="44.83793" lon="6.44354">
        <ele>1302.8</ele>
        <time>2024-08-12T03:33:55Z</time>
      </trkpt>
      <trkpt lat="44.83793" lon="6.44354">
        <ele>1303.2</ele>
        <time>2024-08-12T03:33:56Z</time>
      </trkpt>
      <trkpt lat="44.83792" lon="6.4435">
        <ele>1303.2</ele>
        <time>2024-08-12T03:33:57Z</time>
      </trkpt>
      <trkpt lat="44.83792" lon="6.4435">
        <ele>1303.2</ele>
        <time>2024-08-12T03:33:58Z</time>
      </trkpt>
      <trkpt lat="44.83791" lon="6.44347">
        <ele>1303.2</ele>
        <time>2024-08-12T03:33:59Z</time>
      </trkpt>
      <trkpt lat="44.83791" lon="6.44347">
        <ele>1303.6</ele>
        <time>2024-08-12T03:34:00Z</time>
      </trkpt>
      <trkpt lat="44.8379" lon="6.44344">
        <ele>1303.6</ele>
        <time>2024-08-12T03:34:01Z</time>
      </trkpt>
      <trkpt lat="44.8379" lon="6.44344">
        <ele>1303.8</ele>
        <time>2024-08-12T03:34:02Z</time>
      </trkpt>
      <trkpt lat="44.83789" lon="6.44341">
        <ele>1303.8</ele>
        <time>2024-08-12T03:34:03Z</time>
      </trkpt>
      <trkpt lat="44.83789" lon="6.44341">
        <ele>1304</ele>
        <time>2024-08-12T03:34:04Z</time>
      </trkpt>
      <trkpt lat="44.83788" lon="6.44338">
        <ele>1304.2</ele>
        <time>2024-08-12T03:34:05Z</time>
      </trkpt>
      <trkpt lat="44.83788" lon="6.44338">
        <ele>1304.4</ele>
        <time>2024-08-12T03:34:06Z</time>
      </trkpt>
      <trkpt lat="44.83787" lon="6.44334">
        <ele>1304.4</ele>
        <time>2024-08-12T03:34:07Z</time>
      </trkpt>
      <trkpt lat="44.83787" lon="6.44334">
        <ele>1304.6</ele>
        <time>2024-08-12T03:34:08Z</time>
      </trkpt>
      <trkpt lat="44.83786" lon="6.44331">
        <ele>1304.8</ele>
        <time>2024-08-12T03:34:09Z</time>
      </trkpt>
      <trkpt lat="44.83786" lon="6.44331">
        <ele>1304.8</ele>
        <time>2024-08-12T03:34:10Z</time>
      </trkpt>
      <trkpt lat="44.83785" lon="6.44327">
        <ele>1305</ele>
        <time>2024-08-12T03:34:11Z</time>
      </trkpt>
      <trkpt lat="44.83785" lon="6.44327">
        <ele>1305.2</ele>
        <time>2024-08-12T03:34:12Z</time>
      </trkpt>
      <trkpt lat="44.83785" lon="6.44323">
        <ele>1305.2</ele>
        <time>2024-08-12T03:34:13Z</time>
      </trkpt>
      <trkpt lat="44.83785" lon="6.44323">
        <ele>1305.2</ele>
        <time>2024-08-12T03:34:14Z</time>
      </trkpt>
      <trkpt lat="44.83784" lon="6.44319">
        <ele>1305.4</ele>
        <time>2024-08-12T03:34:15Z</time>
      </trkpt>
      <trkpt lat="44.83784" lon="6.44319">
        <ele>1305.8</ele>
        <time>2024-08-12T03:34:16Z</time>
      </trkpt>
      <trkpt lat="44.83783" lon="6.44315">
        <ele>1306</ele>
        <time>2024-08-12T03:34:17Z</time>
      </trkpt>
      <trkpt lat="44.83783" lon="6.44315">
        <ele>1306</ele>
        <time>2024-08-12T03:34:18Z</time>
      </trkpt>
      <trkpt lat="44.83783" lon="6.44311">
        <ele>1306</ele>
        <time>2024-08-12T03:34:19Z</time>
      </trkpt>
      <trkpt lat="44.83783" lon="6.44311">
        <ele>1306.2</ele>
        <time>2024-08-12T03:34:20Z</time>
      </trkpt>
      <trkpt lat="44.83783" lon="6.44308">
        <ele>1306.2</ele>
        <time>2024-08-12T03:34:21Z</time>
      </trkpt>
      <trkpt lat="44.83783" lon="6.44308">
        <ele>1306.2</ele>
        <time>2024-08-12T03:34:22Z</time>
      </trkpt>
      <trkpt lat="44.83783" lon="6.44304">
        <ele>1306.2</ele>
        <time>2024-08-12T03:34:23Z</time>
      </trkpt>
      <trkpt lat="44.83783" lon="6.44304">
        <ele>1306.6</ele>
        <time>2024-08-12T03:34:24Z</time>
      </trkpt>
      <trkpt lat="44.83782" lon="6.443">
        <ele>1306.8</ele>
        <time>2024-08-12T03:34:25Z</time>
      </trkpt>
      <trkpt lat="44.83782" lon="6.443">
        <ele>1307</ele>
        <time>2024-08-12T03:34:26Z</time>
      </trkpt>
      <trkpt lat="44.83781" lon="6.44297">
        <ele>1307</ele>
        <time>2024-08-12T03:34:27Z</time>
      </trkpt>
      <trkpt lat="44.83781" lon="6.44297">
        <ele>1307.2</ele>
        <time>2024-08-12T03:34:28Z</time>
      </trkpt>
      <trkpt lat="44.83781" lon="6.44293">
        <ele>1307.4</ele>
        <time>2024-08-12T03:34:29Z</time>
      </trkpt>
      <trkpt lat="44.83781" lon="6.44293">
        <ele>1307.6</ele>
        <time>2024-08-12T03:34:30Z</time>
      </trkpt>
      <trkpt lat="44.83781" lon="6.4429">
        <ele>1308</ele>
        <time>2024-08-12T03:34:31Z</time>
      </trkpt>
      <trkpt lat="44.83781" lon="6.4429">
        <ele>1308</ele>
        <time>2024-08-12T03:34:32Z</time>
      </trkpt>
      <trkpt lat="44.8378" lon="6.44286">
        <ele>1308</ele>
        <time>2024-08-12T03:34:33Z</time>
      </trkpt>
      <trkpt lat="44.8378" lon="6.44286">
        <ele>1308.4</ele>
        <time>2024-08-12T03:34:34Z</time>
      </trkpt>
      <trkpt lat="44.83781" lon="6.44282">
        <ele>1308.6</ele>
        <time>2024-08-12T03:34:35Z</time>
      </trkpt>
      <trkpt lat="44.83781" lon="6.44282">
        <ele>1308.6</ele>
        <time>2024-08-12T03:34:36Z</time>
      </trkpt>
      <trkpt lat="44.83781" lon="6.44278">
        <ele>1308.8</ele>
        <time>2024-08-12T03:34:37Z</time>
      </trkpt>
      <trkpt lat="44.83781" lon="6.44278">
        <ele>1309</ele>
        <time>2024-08-12T03:34:38Z</time>
      </trkpt>
      <trkpt lat="44.83781" lon="6.44275">
        <ele>1309.2</ele>
        <time>2024-08-12T03:34:39Z</time>
      </trkpt>
      <trkpt lat="44.83781" lon="6.44275">
        <ele>1309.2</ele>
        <time>2024-08-12T03:34:40Z</time>
      </trkpt>
      <trkpt lat="44.83781" lon="6.44272">
        <ele>1309.2</ele>
        <time>2024-08-12T03:34:41Z</time>
      </trkpt>
      <trkpt lat="44.83781" lon="6.44272">
        <ele>1309.4</ele>
        <time>2024-08-12T03:34:42Z</time>
      </trkpt>
      <trkpt lat="44.83781" lon="6.44268">
        <ele>1309.6</ele>
        <time>2024-08-12T03:34:43Z</time>
      </trkpt>
      <trkpt lat="44.83781" lon="6.44268">
        <ele>1309.8</ele>
        <time>2024-08-12T03:34:44Z</time>
      </trkpt>
      <trkpt lat="44.8378" lon="6.44265">
        <ele>1309.8</ele>
        <time>2024-08-12T03:34:45Z</time>
      </trkpt>
      <trkpt lat="44.8378" lon="6.44265">
        <ele>1310</ele>
        <time>2024-08-12T03:34:46Z</time>
      </trkpt>
      <trkpt lat="44.83779" lon="6.44261">
        <ele>1310.4</ele>
        <time>2024-08-12T03:34:47Z</time>
      </trkpt>
      <trkpt lat="44.83779" lon="6.44261">
        <ele>1310.4</ele>
        <time>2024-08-12T03:34:48Z</time>
      </trkpt>
      <trkpt lat="44.83778" lon="6.44258">
        <ele>1310.4</ele>
        <time>2024-08-12T03:34:49Z</time>
      </trkpt>
      <trkpt lat="44.83778" lon="6.44258">
        <ele>1310.4</ele>
        <time>2024-08-12T03:34:50Z</time>
      </trkpt>
      <trkpt lat="44.83778" lon="6.44254">
        <ele>1310.6</ele>
        <time>2024-08-12T03:34:51Z</time>
      </trkpt>
      <trkpt lat="44.83778" lon="6.44254">
        <ele>1310.8</ele>
        <time>2024-08-12T03:34:52Z</time>
      </trkpt>
      <trkpt lat="44.83777" lon="6.44251">
        <ele>1311</ele>
        <time>2024-08-12T03:34:53Z</time>
      </trkpt>
      <trkpt lat="44.83777" lon="6.44251">
        <ele>1311.2</ele>
        <time>2024-08-12T03:34:54Z</time>
      </trkpt>
      <trkpt lat="44.83776" lon="6.44247">
        <ele>1311.2</ele>
        <time>2024-08-12T03:34:55Z</time>
      </trkpt>
      <trkpt lat="44.83776" lon="6.44247">
        <ele>1311.2</ele>
        <time>2024-08-12T03:34:56Z</time>
      </trkpt>
      <trkpt lat="44.83775" lon="6.44244">
        <ele>1311.6</ele>
        <time>2024-08-12T03:34:57Z</time>
      </trkpt>
      <trkpt lat="44.83775" lon="6.44244">
        <ele>1311.6</ele>
        <time>2024-08-12T03:34:58Z</time>
      </trkpt>
      <trkpt lat="44.83775" lon="6.4424">
        <ele>1311.6</ele>
        <time>2024-08-12T03:34:59Z</time>
      </trkpt>
      <trkpt lat="44.83775" lon="6.4424">
        <ele>1312.2</ele>
        <time>2024-08-12T03:35:00Z</time>
      </trkpt>
      <trkpt lat="44.83774" lon="6.44237">
        <ele>1312.2</ele>
        <time>2024-08-12T03:35:01Z</time>
      </trkpt>
      <trkpt lat="44.83774" lon="6.44237">
        <ele>1312.4</ele>
        <time>2024-08-12T03:35:02Z</time>
      </trkpt>
      <trkpt lat="44.83773" lon="6.44233">
        <ele>1312.4</ele>
        <time>2024-08-12T03:35:03Z</time>
      </trkpt>
      <trkpt lat="44.83773" lon="6.44233">
        <ele>1312.6</ele>
        <time>2024-08-12T03:35:04Z</time>
      </trkpt>
      <trkpt lat="44.83773" lon="6.4423">
        <ele>1312.6</ele>
        <time>2024-08-12T03:35:05Z</time>
      </trkpt>
      <trkpt lat="44.83773" lon="6.4423">
        <ele>1312.8</ele>
        <time>2024-08-12T03:35:06Z</time>
      </trkpt>
      <trkpt lat="44.83772" lon="6.44226">
        <ele>1313.2</ele>
        <time>2024-08-12T03:35:07Z</time>
      </trkpt>
      <trkpt lat="44.83772" lon="6.44226">
        <ele>1313.2</ele>
        <time>2024-08-12T03:35:08Z</time>
      </trkpt>
      <trkpt lat="44.83771" lon="6.44223">
        <ele>1313.4</ele>
        <time>2024-08-12T03:35:09Z</time>
      </trkpt>
      <trkpt lat="44.83771" lon="6.44223">
        <ele>1313.4</ele>
        <time>2024-08-12T03:35:10Z</time>
      </trkpt>
      <trkpt lat="44.8377" lon="6.4422">
        <ele>1313.8</ele>
        <time>2024-08-12T03:35:11Z</time>
      </trkpt>
      <trkpt lat="44.8377" lon="6.4422">
        <ele>1314.2</ele>
        <time>2024-08-12T03:35:12Z</time>
      </trkpt>
      <trkpt lat="44.8377" lon="6.44216">
        <ele>1314.2</ele>
        <time>2024-08-12T03:35:13Z</time>
      </trkpt>
      <trkpt lat="44.8377" lon="6.44216">
        <ele>1314.2</ele>
        <time>2024-08-12T03:35:14Z</time>
      </trkpt>
      <trkpt lat="44.83769" lon="6.44212">
        <ele>1314.4</ele>
        <time>2024-08-12T03:35:15Z</time>
      </trkpt>
      <trkpt lat="44.83769" lon="6.44212">
        <ele>1314.6</ele>
        <time>2024-08-12T03:35:16Z</time>
      </trkpt>
      <trkpt lat="44.83769" lon="6.44209">
        <ele>1314.8</ele>
        <time>2024-08-12T03:35:17Z</time>
      </trkpt>
      <trkpt lat="44.83769" lon="6.44209">
        <ele>1315</ele>
        <time>2024-08-12T03:35:18Z</time>
      </trkpt>
      <trkpt lat="44.83768" lon="6.44205">
        <ele>1315</ele>
        <time>2024-08-12T03:35:19Z</time>
      </trkpt>
      <trkpt lat="44.83768" lon="6.44205">
        <ele>1315.2</ele>
        <time>2024-08-12T03:35:20Z</time>
      </trkpt>
      <trkpt lat="44.83768" lon="6.44201">
        <ele>1315.2</ele>
        <time>2024-08-12T03:35:21Z</time>
      </trkpt>
      <trkpt lat="44.83768" lon="6.44201">
        <ele>1315.2</ele>
        <time>2024-08-12T03:35:22Z</time>
      </trkpt>
      <trkpt lat="44.83768" lon="6.44198">
        <ele>1315.4</ele>
        <time>2024-08-12T03:35:23Z</time>
      </trkpt>
      <trkpt lat="44.83768" lon="6.44198">
        <ele>1315.6</ele>
        <time>2024-08-12T03:35:24Z</time>
      </trkpt>
      <trkpt lat="44.83768" lon="6.44194">
        <ele>1315.8</ele>
        <time>2024-08-12T03:35:25Z</time>
      </trkpt>
      <trkpt lat="44.83768" lon="6.44194">
        <ele>1315.8</ele>
        <time>2024-08-12T03:35:26Z</time>
      </trkpt>
      <trkpt lat="44.83768" lon="6.4419">
        <ele>1316</ele>
        <time>2024-08-12T03:35:27Z</time>
      </trkpt>
      <trkpt lat="44.83768" lon="6.4419">
        <ele>1316</ele>
        <time>2024-08-12T03:35:28Z</time>
      </trkpt>
      <trkpt lat="44.83767" lon="6.44187">
        <ele>1316</ele>
        <time>2024-08-12T03:35:29Z</time>
      </trkpt>
      <trkpt lat="44.83767" lon="6.44187">
        <ele>1316.2</ele>
        <time>2024-08-12T03:35:30Z</time>
      </trkpt>
      <trkpt lat="44.83766" lon="6.44183">
        <ele>1316.4</ele>
        <time>2024-08-12T03:35:31Z</time>
      </trkpt>
      <trkpt lat="44.83766" lon="6.44183">
        <ele>1316.4</ele>
        <time>2024-08-12T03:35:32Z</time>
      </trkpt>
      <trkpt lat="44.83766" lon="6.4418">
        <ele>1316.6</ele>
        <time>2024-08-12T03:35:33Z</time>
      </trkpt>
      <trkpt lat="44.83766" lon="6.4418">
        <ele>1316.8</ele>
        <time>2024-08-12T03:35:34Z</time>
      </trkpt>
      <trkpt lat="44.83765" lon="6.44176">
        <ele>1317.2</ele>
        <time>2024-08-12T03:35:35Z</time>
      </trkpt>
      <trkpt lat="44.83765" lon="6.44176">
        <ele>1317.2</ele>
        <time>2024-08-12T03:35:36Z</time>
      </trkpt>
      <trkpt lat="44.83764" lon="6.44173">
        <ele>1317.4</ele>
        <time>2024-08-12T03:35:37Z</time>
      </trkpt>
      <trkpt lat="44.83764" lon="6.44173">
        <ele>1317.6</ele>
        <time>2024-08-12T03:35:38Z</time>
      </trkpt>
      <trkpt lat="44.83764" lon="6.44169">
        <ele>1317.8</ele>
        <time>2024-08-12T03:35:39Z</time>
      </trkpt>
      <trkpt lat="44.83764" lon="6.44169">
        <ele>1317.8</ele>
        <time>2024-08-12T03:35:40Z</time>
      </trkpt>
      <trkpt lat="44.83763" lon="6.44166">
        <ele>1317.8</ele>
        <time>2024-08-12T03:35:41Z</time>
      </trkpt>
      <trkpt lat="44.83763" lon="6.44166">
        <ele>1318</ele>
        <time>2024-08-12T03:35:42Z</time>
      </trkpt>
      <trkpt lat="44.83762" lon="6.44162">
        <ele>1318</ele>
        <time>2024-08-12T03:35:43Z</time>
      </trkpt>
      <trkpt lat="44.83762" lon="6.44162">
        <ele>1318.4</ele>
        <time>2024-08-12T03:35:44Z</time>
      </trkpt>
      <trkpt lat="44.83761" lon="6.44159">
        <ele>1318.4</ele>
        <time>2024-08-12T03:35:45Z</time>
      </trkpt>
      <trkpt lat="44.83761" lon="6.44159">
        <ele>1318.6</ele>
        <time>2024-08-12T03:35:46Z</time>
      </trkpt>
      <trkpt lat="44.8376" lon="6.44155">
        <ele>1319</ele>
        <time>2024-08-12T03:35:47Z</time>
      </trkpt>
      <trkpt lat="44.8376" lon="6.44155">
        <ele>1319</ele>
        <time>2024-08-12T03:35:48Z</time>
      </trkpt>
      <trkpt lat="44.83758" lon="6.44152">
        <ele>1319</ele>
        <time>2024-08-12T03:35:49Z</time>
      </trkpt>
      <trkpt lat="44.83758" lon="6.44152">
        <ele>1319</ele>
        <time>2024-08-12T03:35:50Z</time>
      </trkpt>
      <trkpt lat="44.83757" lon="6.44149">
        <ele>1319</ele>
        <time>2024-08-12T03:35:51Z</time>
      </trkpt>
      <trkpt lat="44.83757" lon="6.44149">
        <ele>1319</ele>
        <time>2024-08-12T03:35:52Z</time>
      </trkpt>
      <trkpt lat="44.83756" lon="6.44146">
        <ele>1319.2</ele>
        <time>2024-08-12T03:35:53Z</time>
      </trkpt>
      <trkpt lat="44.83756" lon="6.44146">
        <ele>1319.2</ele>
        <time>2024-08-12T03:35:54Z</time>
      </trkpt>
      <trkpt lat="44.83754" lon="6.44143">
        <ele>1319.6</ele>
        <time>2024-08-12T03:35:55Z</time>
      </trkpt>
      <trkpt lat="44.83754" lon="6.44143">
        <ele>1319.6</ele>
        <time>2024-08-12T03:35:56Z</time>
      </trkpt>
      <trkpt lat="44.83753" lon="6.4414">
        <ele>1319.8</ele>
        <time>2024-08-12T03:35:57Z</time>
      </trkpt>
      <trkpt lat="44.83753" lon="6.4414">
        <ele>1320.2</ele>
        <time>2024-08-12T03:35:58Z</time>
      </trkpt>
      <trkpt lat="44.8375" lon="6.44137">
        <ele>1320.2</ele>
        <time>2024-08-12T03:35:59Z</time>
      </trkpt>
      <trkpt lat="44.8375" lon="6.44137">
        <ele>1320.6</ele>
        <time>2024-08-12T03:36:00Z</time>
      </trkpt>
      <trkpt lat="44.83749" lon="6.44133">
        <ele>1320.6</ele>
        <time>2024-08-12T03:36:01Z</time>
      </trkpt>
      <trkpt lat="44.83749" lon="6.44133">
        <ele>1321</ele>
        <time>2024-08-12T03:36:02Z</time>
      </trkpt>
      <trkpt lat="44.83748" lon="6.44131">
        <ele>1321</ele>
        <time>2024-08-12T03:36:03Z</time>
      </trkpt>
      <trkpt lat="44.83748" lon="6.44131">
        <ele>1321.2</ele>
        <time>2024-08-12T03:36:04Z</time>
      </trkpt>
      <trkpt lat="44.83746" lon="6.44128">
        <ele>1321.2</ele>
        <time>2024-08-12T03:36:05Z</time>
      </trkpt>
      <trkpt lat="44.83746" lon="6.44128">
        <ele>1321.6</ele>
        <time>2024-08-12T03:36:06Z</time>
      </trkpt>
      <trkpt lat="44.83745" lon="6.44124">
        <ele>1321.6</ele>
        <time>2024-08-12T03:36:07Z</time>
      </trkpt>
      <trkpt lat="44.83745" lon="6.44124">
        <ele>1321.8</ele>
        <time>2024-08-12T03:36:08Z</time>
      </trkpt>
      <trkpt lat="44.83744" lon="6.44121">
        <ele>1322</ele>
        <time>2024-08-12T03:36:09Z</time>
      </trkpt>
      <trkpt lat="44.83744" lon="6.44121">
        <ele>1322</ele>
        <time>2024-08-12T03:36:10Z</time>
      </trkpt>
      <trkpt lat="44.83742" lon="6.44117">
        <ele>1322.2</ele>
        <time>2024-08-12T03:36:11Z</time>
      </trkpt>
      <trkpt lat="44.83742" lon="6.44117">
        <ele>1322.2</ele>
        <time>2024-08-12T03:36:12Z</time>
      </trkpt>
      <trkpt lat="44.83742" lon="6.44114">
        <ele>1322.2</ele>
        <time>2024-08-12T03:36:13Z</time>
      </trkpt>
      <trkpt lat="44.83742" lon="6.44114">
        <ele>1322.2</ele>
        <time>2024-08-12T03:36:14Z</time>
      </trkpt>
      <trkpt lat="44.83742" lon="6.4411">
        <ele>1322.2</ele>
        <time>2024-08-12T03:36:15Z</time>
      </trkpt>
      <trkpt lat="44.83742" lon="6.4411">
        <ele>1322.4</ele>
        <time>2024-08-12T03:36:16Z</time>
      </trkpt>
      <trkpt lat="44.83742" lon="6.44106">
        <ele>1322.8</ele>
        <time>2024-08-12T03:36:17Z</time>
      </trkpt>
      <trkpt lat="44.83742" lon="6.44106">
        <ele>1323</ele>
        <time>2024-08-12T03:36:18Z</time>
      </trkpt>
      <trkpt lat="44.83742" lon="6.44101">
        <ele>1323</ele>
        <time>2024-08-12T03:36:19Z</time>
      </trkpt>
      <trkpt lat="44.83742" lon="6.44101">
        <ele>1323.4</ele>
        <time>2024-08-12T03:36:20Z</time>
      </trkpt>
      <trkpt lat="44.83741" lon="6.44098">
        <ele>1323.6</ele>
        <time>2024-08-12T03:36:21Z</time>
      </trkpt>
      <trkpt lat="44.83741" lon="6.44098">
        <ele>1323.6</ele>
        <time>2024-08-12T03:36:22Z</time>
      </trkpt>
      <trkpt lat="44.8374" lon="6.44095">
        <ele>1323.6</ele>
        <time>2024-08-12T03:36:23Z</time>
      </trkpt>
      <trkpt lat="44.8374" lon="6.44095">
        <ele>1323.6</ele>
        <time>2024-08-12T03:36:24Z</time>
      </trkpt>
      <trkpt lat="44.83738" lon="6.44092">
        <ele>1324</ele>
        <time>2024-08-12T03:36:25Z</time>
      </trkpt>
      <trkpt lat="44.83738" lon="6.44092">
        <ele>1324.2</ele>
        <time>2024-08-12T03:36:26Z</time>
      </trkpt>
      <trkpt lat="44.83737" lon="6.4409">
        <ele>1324.2</ele>
        <time>2024-08-12T03:36:27Z</time>
      </trkpt>
      <trkpt lat="44.83737" lon="6.4409">
        <ele>1324.2</ele>
        <time>2024-08-12T03:36:28Z</time>
      </trkpt>
      <trkpt lat="44.83736" lon="6.44087">
        <ele>1324.4</ele>
        <time>2024-08-12T03:36:29Z</time>
      </trkpt>
      <trkpt lat="44.83736" lon="6.44087">
        <ele>1324.6</ele>
        <time>2024-08-12T03:36:30Z</time>
      </trkpt>
      <trkpt lat="44.83734" lon="6.44083">
        <ele>1324.6</ele>
        <time>2024-08-12T03:36:31Z</time>
      </trkpt>
      <trkpt lat="44.83734" lon="6.44083">
        <ele>1324.8</ele>
        <time>2024-08-12T03:36:32Z</time>
      </trkpt>
      <trkpt lat="44.83733" lon="6.4408">
        <ele>1324.8</ele>
        <time>2024-08-12T03:36:33Z</time>
      </trkpt>
      <trkpt lat="44.83733" lon="6.4408">
        <ele>1325</ele>
        <time>2024-08-12T03:36:34Z</time>
      </trkpt>
      <trkpt lat="44.83732" lon="6.44077">
        <ele>1325</ele>
        <time>2024-08-12T03:36:35Z</time>
      </trkpt>
      <trkpt lat="44.83732" lon="6.44077">
        <ele>1325.2</ele>
        <time>2024-08-12T03:36:36Z</time>
      </trkpt>
      <trkpt lat="44.8373" lon="6.44073">
        <ele>1325.4</ele>
        <time>2024-08-12T03:36:37Z</time>
      </trkpt>
      <trkpt lat="44.8373" lon="6.44073">
        <ele>1325.6</ele>
        <time>2024-08-12T03:36:38Z</time>
      </trkpt>
      <trkpt lat="44.83729" lon="6.4407">
        <ele>1325.8</ele>
        <time>2024-08-12T03:36:39Z</time>
      </trkpt>
      <trkpt lat="44.83729" lon="6.4407">
        <ele>1326</ele>
        <time>2024-08-12T03:36:40Z</time>
      </trkpt>
      <trkpt lat="44.83728" lon="6.44067">
        <ele>1326.2</ele>
        <time>2024-08-12T03:36:41Z</time>
      </trkpt>
      <trkpt lat="44.83728" lon="6.44067">
        <ele>1326.2</ele>
        <time>2024-08-12T03:36:42Z</time>
      </trkpt>
      <trkpt lat="44.83727" lon="6.44064">
        <ele>1326.2</ele>
        <time>2024-08-12T03:36:43Z</time>
      </trkpt>
      <trkpt lat="44.83727" lon="6.44064">
        <ele>1326.6</ele>
        <time>2024-08-12T03:36:44Z</time>
      </trkpt>
      <trkpt lat="44.83725" lon="6.4406">
        <ele>1326.8</ele>
        <time>2024-08-12T03:36:45Z</time>
      </trkpt>
      <trkpt lat="44.83725" lon="6.4406">
        <ele>1327</ele>
        <time>2024-08-12T03:36:46Z</time>
      </trkpt>
      <trkpt lat="44.83725" lon="6.44057">
        <ele>1327.4</ele>
        <time>2024-08-12T03:36:47Z</time>
      </trkpt>
      <trkpt lat="44.83725" lon="6.44057">
        <ele>1327.6</ele>
        <time>2024-08-12T03:36:48Z</time>
      </trkpt>
      <trkpt lat="44.83723" lon="6.44055">
        <ele>1327.8</ele>
        <time>2024-08-12T03:36:49Z</time>
      </trkpt>
      <trkpt lat="44.83723" lon="6.44055">
        <ele>1327.8</ele>
        <time>2024-08-12T03:36:50Z</time>
      </trkpt>
      <trkpt lat="44.83722" lon="6.44051">
        <ele>1328</ele>
        <time>2024-08-12T03:36:51Z</time>
      </trkpt>
      <trkpt lat="44.83722" lon="6.44051">
        <ele>1328</ele>
        <time>2024-08-12T03:36:52Z</time>
      </trkpt>
      <trkpt lat="44.8372" lon="6.44048">
        <ele>1328.2</ele>
        <time>2024-08-12T03:36:53Z</time>
      </trkpt>
      <trkpt lat="44.8372" lon="6.44048">
        <ele>1328.4</ele>
        <time>2024-08-12T03:36:54Z</time>
      </trkpt>
      <trkpt lat="44.83719" lon="6.44045">
        <ele>1328.8</ele>
        <time>2024-08-12T03:36:55Z</time>
      </trkpt>
      <trkpt lat="44.83719" lon="6.44045">
        <ele>1328.8</ele>
        <time>2024-08-12T03:36:56Z</time>
      </trkpt>
      <trkpt lat="44.83718" lon="6.44042">
        <ele>1328.8</ele>
        <time>2024-08-12T03:36:57Z</time>
      </trkpt>
      <trkpt lat="44.83718" lon="6.44042">
        <ele>1329</ele>
        <time>2024-08-12T03:36:58Z</time>
      </trkpt>
      <trkpt lat="44.83717" lon="6.44039">
        <ele>1329.4</ele>
        <time>2024-08-12T03:36:59Z</time>
      </trkpt>
      <trkpt lat="44.83717" lon="6.44039">
        <ele>1329.4</ele>
        <time>2024-08-12T03:37:00Z</time>
      </trkpt>
      <trkpt lat="44.83716" lon="6.44036">
        <ele>1329.6</ele>
        <time>2024-08-12T03:37:01Z</time>
      </trkpt>
      <trkpt lat="44.83716" lon="6.44036">
        <ele>1330.2</ele>
        <time>2024-08-12T03:37:02Z</time>
      </trkpt>
      <trkpt lat="44.83714" lon="6.44033">
        <ele>1330.2</ele>
        <time>2024-08-12T03:37:03Z</time>
      </trkpt>
      <trkpt lat="44.83714" lon="6.44033">
        <ele>1330.4</ele>
        <time>2024-08-12T03:37:04Z</time>
      </trkpt>
      <trkpt lat="44.83712" lon="6.44031">
        <ele>1330.6</ele>
        <time>2024-08-12T03:37:05Z</time>
      </trkpt>
      <trkpt lat="44.83712" lon="6.44031">
        <ele>1330.8</ele>
        <time>2024-08-12T03:37:06Z</time>
      </trkpt>
      <trkpt lat="44.8371" lon="6.44029">
        <ele>1330.8</ele>
        <time>2024-08-12T03:37:07Z</time>
      </trkpt>
      <trkpt lat="44.8371" lon="6.44029">
        <ele>1331</ele>
        <time>2024-08-12T03:37:08Z</time>
      </trkpt>
      <trkpt lat="44.83709" lon="6.44027">
        <ele>1331</ele>
        <time>2024-08-12T03:37:09Z</time>
      </trkpt>
      <trkpt lat="44.83709" lon="6.44027">
        <ele>1331.2</ele>
        <time>2024-08-12T03:37:10Z</time>
      </trkpt>
      <trkpt lat="44.83706" lon="6.44025">
        <ele>1331.6</ele>
        <time>2024-08-12T03:37:11Z</time>
      </trkpt>
      <trkpt lat="44.83706" lon="6.44025">
        <ele>1331.6</ele>
        <time>2024-08-12T03:37:12Z</time>
      </trkpt>
      <trkpt lat="44.83704" lon="6.44023">
        <ele>1331.6</ele>
        <time>2024-08-12T03:37:13Z</time>
      </trkpt>
      <trkpt lat="44.83704" lon="6.44023">
        <ele>1331.8</ele>
        <time>2024-08-12T03:37:14Z</time>
      </trkpt>
      <trkpt lat="44.83703" lon="6.44021">
        <ele>1332.2</ele>
        <time>2024-08-12T03:37:15Z</time>
      </trkpt>
      <trkpt lat="44.83703" lon="6.44021">
        <ele>1332.2</ele>
        <time>2024-08-12T03:37:16Z</time>
      </trkpt>
      <trkpt lat="44.83701" lon="6.44019">
        <ele>1332.2</ele>
        <time>2024-08-12T03:37:17Z</time>
      </trkpt>
      <trkpt lat="44.83701" lon="6.44019">
        <ele>1332.6</ele>
        <time>2024-08-12T03:37:18Z</time>
      </trkpt>
      <trkpt lat="44.83699" lon="6.44016">
        <ele>1332.8</ele>
        <time>2024-08-12T03:37:19Z</time>
      </trkpt>
      <trkpt lat="44.83699" lon="6.44016">
        <ele>1333</ele>
        <time>2024-08-12T03:37:20Z</time>
      </trkpt>
      <trkpt lat="44.83696" lon="6.44014">
        <ele>1333.2</ele>
        <time>2024-08-12T03:37:21Z</time>
      </trkpt>
      <trkpt lat="44.83696" lon="6.44014">
        <ele>1333.4</ele>
        <time>2024-08-12T03:37:22Z</time>
      </trkpt>
      <trkpt lat="44.83694" lon="6.44013">
        <ele>1333.4</ele>
        <time>2024-08-12T03:37:23Z</time>
      </trkpt>
      <trkpt lat="44.83694" lon="6.44013">
        <ele>1333.6</ele>
        <time>2024-08-12T03:37:24Z</time>
      </trkpt>
      <trkpt lat="44.83692" lon="6.44011">
        <ele>1333.8</ele>
        <time>2024-08-12T03:37:25Z</time>
      </trkpt>
      <trkpt lat="44.83692" lon="6.44011">
        <ele>1334</ele>
        <time>2024-08-12T03:37:26Z</time>
      </trkpt>
      <trkpt lat="44.8369" lon="6.44009">
        <ele>1334.2</ele>
        <time>2024-08-12T03:37:27Z</time>
      </trkpt>
      <trkpt lat="44.8369" lon="6.44009">
        <ele>1334.2</ele>
        <time>2024-08-12T03:37:28Z</time>
      </trkpt>
      <trkpt lat="44.83688" lon="6.44007">
        <ele>1334.4</ele>
        <time>2024-08-12T03:37:29Z</time>
      </trkpt>
      <trkpt lat="44.83688" lon="6.44007">
        <ele>1334.8</ele>
        <time>2024-08-12T03:37:30Z</time>
      </trkpt>
      <trkpt lat="44.83686" lon="6.44005">
        <ele>1334.8</ele>
        <time>2024-08-12T03:37:31Z</time>
      </trkpt>
      <trkpt lat="44.83686" lon="6.44005">
        <ele>1335</ele>
        <time>2024-08-12T03:37:32Z</time>
      </trkpt>
      <trkpt lat="44.83684" lon="6.44002">
        <ele>1335</ele>
        <time>2024-08-12T03:37:33Z</time>
      </trkpt>
      <trkpt lat="44.83684" lon="6.44002">
        <ele>1335.2</ele>
        <time>2024-08-12T03:37:34Z</time>
      </trkpt>
      <trkpt lat="44.83682" lon="6.44">
        <ele>1335.4</ele>
        <time>2024-08-12T03:37:35Z</time>
      </trkpt>
      <trkpt lat="44.83682" lon="6.44">
        <ele>1335.4</ele>
        <time>2024-08-12T03:37:36Z</time>
      </trkpt>
      <trkpt lat="44.8368" lon="6.43999">
        <ele>1335.8</ele>
        <time>2024-08-12T03:37:37Z</time>
      </trkpt>
      <trkpt lat="44.8368" lon="6.43999">
        <ele>1336</ele>
        <time>2024-08-12T03:37:38Z</time>
      </trkpt>
      <trkpt lat="44.8368" lon="6.43999">
        <ele>1336</ele>
        <time>2024-08-12T03:37:39Z</time>
      </trkpt>
      <trkpt lat="44.8368" lon="6.43999">
        <ele>1336.4</ele>
        <time>2024-08-12T03:37:40Z</time>
      </trkpt>
      <trkpt lat="44.8368" lon="6.43999">
        <ele>1336.6</ele>
        <time>2024-08-12T03:37:41Z</time>
      </trkpt>
      <trkpt lat="44.8368" lon="6.43999">
        <ele>1336.6</ele>
        <time>2024-08-12T03:37:42Z</time>
      </trkpt>
      <trkpt lat="44.8368" lon="6.43999">
        <ele>1336.6</ele>
        <time>2024-08-12T03:37:43Z</time>
      </trkpt>
      <trkpt lat="44.8368" lon="6.43999">
        <ele>1336.6</ele>
        <time>2024-08-12T03:37:44Z</time>
      </trkpt>
      <trkpt lat="44.8368" lon="6.43999">
        <ele>1336.6</ele>
        <time>2024-08-12T03:37:45Z</time>
      </trkpt>
      <trkpt lat="44.8368" lon="6.43999">
        <ele>1336.6</ele>
        <time>2024-08-12T03:37:46Z</time>
      </trkpt>
      <trkpt lat="44.8368" lon="6.43999">
        <ele>1336.6</ele>
        <time>2024-08-12T03:37:47Z</time>
      </trkpt>
      <trkpt lat="44.8368" lon="6.43999">
        <ele>1336.6</ele>
        <time>2024-08-12T03:37:48Z</time>
      </trkpt>
      <trkpt lat="44.8368" lon="6.43999">
        <ele>1336.6</ele>
        <time>2024-08-12T03:37:49Z</time>
      </trkpt>
      <trkpt lat="44.8368" lon="6.43999">
        <ele>1336.6</ele>
        <time>2024-08-12T03:37:50Z</time>
      </trkpt>
      <trkpt lat="44.8368" lon="6.43999">
        <ele>1336.6</ele>
        <time>2024-08-12T03:37:51Z</time>
      </trkpt>
      <trkpt lat="44.8368" lon="6.43999">
        <ele>1336.8</ele>
        <time>2024-08-12T03:37:52Z</time>
      </trkpt>
      <trkpt lat="44.8368" lon="6.43999">
        <ele>1336.8</ele>
        <time>2024-08-12T03:37:53Z</time>
      </trkpt>
      <trkpt lat="44.8368" lon="6.43999">
        <ele>1336.6</ele>
        <time>2024-08-12T03:37:54Z</time>
      </trkpt>
      <trkpt lat="44.8368" lon="6.43999">
        <ele>1336.6</ele>
        <time>2024-08-12T03:37:55Z</time>
      </trkpt>
      <trkpt lat="44.8368" lon="6.43999">
        <ele>1336.6</ele>
        <time>2024-08-12T03:37:56Z</time>
      </trkpt>
      <trkpt lat="44.8368" lon="6.43999">
        <ele>1336.6</ele>
        <time>2024-08-12T03:37:57Z</time>
      </trkpt>
      <trkpt lat="44.8368" lon="6.43999">
        <ele>1336.8</ele>
        <time>2024-08-12T03:37:58Z</time>
      </trkpt>
      <trkpt lat="44.8368" lon="6.43999">
        <ele>1336.8</ele>
        <time>2024-08-12T03:37:59Z</time>
      </trkpt>
      <trkpt lat="44.8368" lon="6.43999">
        <ele>1336.8</ele>
        <time>2024-08-12T03:38:00Z</time>
      </trkpt>
      <trkpt lat="44.8368" lon="6.43999">
        <ele>1336.8</ele>
        <time>2024-08-12T03:38:01Z</time>
      </trkpt>
      <trkpt lat="44.8368" lon="6.43999">
        <ele>1337</ele>
        <time>2024-08-12T03:38:02Z</time>
      </trkpt>
      <trkpt lat="44.8368" lon="6.43999">
        <ele>1337</ele>
        <time>2024-08-12T03:38:03Z</time>
      </trkpt>
      <trkpt lat="44.8368" lon="6.43999">
        <ele>1336.8</ele>
        <time>2024-08-12T03:38:04Z</time>
      </trkpt>
      <trkpt lat="44.8368" lon="6.43999">
        <ele>1336.8</ele>
        <time>2024-08-12T03:38:05Z</time>
      </trkpt>
      <trkpt lat="44.83677" lon="6.43997">
        <ele>1336.8</ele>
        <time>2024-08-12T03:38:06Z</time>
      </trkpt>
      <trkpt lat="44.83676" lon="6.43996">
        <ele>1336.8</ele>
        <time>2024-08-12T03:38:07Z</time>
      </trkpt>
      <trkpt lat="44.83674" lon="6.43994">
        <ele>1336.8</ele>
        <time>2024-08-12T03:38:08Z</time>
      </trkpt>
      <trkpt lat="44.83672" lon="6.43993">
        <ele>1337.2</ele>
        <time>2024-08-12T03:38:09Z</time>
      </trkpt>
      <trkpt lat="44.83671" lon="6.43992">
        <ele>1337.2</ele>
        <time>2024-08-12T03:38:10Z</time>
      </trkpt>
      <trkpt lat="44.83671" lon="6.43992">
        <ele>1337.4</ele>
        <time>2024-08-12T03:38:11Z</time>
      </trkpt>
      <trkpt lat="44.83669" lon="6.4399">
        <ele>1337.4</ele>
        <time>2024-08-12T03:38:12Z</time>
      </trkpt>
      <trkpt lat="44.83669" lon="6.4399">
        <ele>1337.6</ele>
        <time>2024-08-12T03:38:13Z</time>
      </trkpt>
      <trkpt lat="44.83666" lon="6.43988">
        <ele>1338.2</ele>
        <time>2024-08-12T03:38:14Z</time>
      </trkpt>
      <trkpt lat="44.83666" lon="6.43988">
        <ele>1338.4</ele>
        <time>2024-08-12T03:38:15Z</time>
      </trkpt>
      <trkpt lat="44.83664" lon="6.43986">
        <ele>1338.4</ele>
        <time>2024-08-12T03:38:16Z</time>
      </trkpt>
      <trkpt lat="44.83664" lon="6.43986">
        <ele>1338.6</ele>
        <time>2024-08-12T03:38:17Z</time>
      </trkpt>
      <trkpt lat="44.83663" lon="6.43983">
        <ele>1338.8</ele>
        <time>2024-08-12T03:38:18Z</time>
      </trkpt>
      <trkpt lat="44.83663" lon="6.43983">
        <ele>1338.8</ele>
        <time>2024-08-12T03:38:19Z</time>
      </trkpt>
      <trkpt lat="44.83661" lon="6.43981">
        <ele>1338.8</ele>
        <time>2024-08-12T03:38:20Z</time>
      </trkpt>
      <trkpt lat="44.83661" lon="6.43981">
        <ele>1339.2</ele>
        <time>2024-08-12T03:38:21Z</time>
      </trkpt>
      <trkpt lat="44.83659" lon="6.43979">
        <ele>1339.4</ele>
        <time>2024-08-12T03:38:22Z</time>
      </trkpt>
      <trkpt lat="44.83659" lon="6.43979">
        <ele>1339.6</ele>
        <time>2024-08-12T03:38:23Z</time>
      </trkpt>
      <trkpt lat="44.83657" lon="6.43977">
        <ele>1339.6</ele>
        <time>2024-08-12T03:38:24Z</time>
      </trkpt>
      <trkpt lat="44.83657" lon="6.43977">
        <ele>1339.6</ele>
        <time>2024-08-12T03:38:25Z</time>
      </trkpt>
      <trkpt lat="44.83655" lon="6.43975">
        <ele>1339.6</ele>
        <time>2024-08-12T03:38:26Z</time>
      </trkpt>
      <trkpt lat="44.83655" lon="6.43975">
        <ele>1339.8</ele>
        <time>2024-08-12T03:38:27Z</time>
      </trkpt>
      <trkpt lat="44.83653" lon="6.43973">
        <ele>1340.2</ele>
        <time>2024-08-12T03:38:28Z</time>
      </trkpt>
      <trkpt lat="44.83653" lon="6.43973">
        <ele>1340.4</ele>
        <time>2024-08-12T03:38:29Z</time>
      </trkpt>
      <trkpt lat="44.83651" lon="6.4397">
        <ele>1340.4</ele>
        <time>2024-08-12T03:38:30Z</time>
      </trkpt>
      <trkpt lat="44.83651" lon="6.4397">
        <ele>1340.8</ele>
        <time>2024-08-12T03:38:31Z</time>
      </trkpt>
      <trkpt lat="44.8365" lon="6.43968">
        <ele>1340.8</ele>
        <time>2024-08-12T03:38:32Z</time>
      </trkpt>
      <trkpt lat="44.8365" lon="6.43968">
        <ele>1340.8</ele>
        <time>2024-08-12T03:38:33Z</time>
      </trkpt>
      <trkpt lat="44.83648" lon="6.43966">
        <ele>1341</ele>
        <time>2024-08-12T03:38:34Z</time>
      </trkpt>
      <trkpt lat="44.83648" lon="6.43966">
        <ele>1341</ele>
        <time>2024-08-12T03:38:35Z</time>
      </trkpt>
      <trkpt lat="44.83646" lon="6.43963">
        <ele>1341.4</ele>
        <time>2024-08-12T03:38:36Z</time>
      </trkpt>
      <trkpt lat="44.83646" lon="6.43963">
        <ele>1341.4</ele>
        <time>2024-08-12T03:38:37Z</time>
      </trkpt>
      <trkpt lat="44.83644" lon="6.4396">
        <ele>1341.6</ele>
        <time>2024-08-12T03:38:38Z</time>
      </trkpt>
      <trkpt lat="44.83644" lon="6.4396">
        <ele>1341.8</ele>
        <time>2024-08-12T03:38:39Z</time>
      </trkpt>
      <trkpt lat="44.83643" lon="6.43958">
        <ele>1342.2</ele>
        <time>2024-08-12T03:38:40Z</time>
      </trkpt>
      <trkpt lat="44.83643" lon="6.43958">
        <ele>1342.4</ele>
        <time>2024-08-12T03:38:41Z</time>
      </trkpt>
      <trkpt lat="44.83641" lon="6.43955">
        <ele>1342.4</ele>
        <time>2024-08-12T03:38:42Z</time>
      </trkpt>
      <trkpt lat="44.83641" lon="6.43955">
        <ele>1342.4</ele>
        <time>2024-08-12T03:38:43Z</time>
      </trkpt>
      <trkpt lat="44.8364" lon="6.43952">
        <ele>1342.4</ele>
        <time>2024-08-12T03:38:44Z</time>
      </trkpt>
      <trkpt lat="44.8364" lon="6.43952">
        <ele>1342.6</ele>
        <time>2024-08-12T03:38:45Z</time>
      </trkpt>
      <trkpt lat="44.83638" lon="6.43949">
        <ele>1342.6</ele>
        <time>2024-08-12T03:38:46Z</time>
      </trkpt>
      <trkpt lat="44.83638" lon="6.43949">
        <ele>1343</ele>
        <time>2024-08-12T03:38:47Z</time>
      </trkpt>
      <trkpt lat="44.83636" lon="6.43946">
        <ele>1343.2</ele>
        <time>2024-08-12T03:38:48Z</time>
      </trkpt>
      <trkpt lat="44.83636" lon="6.43946">
        <ele>1343.2</ele>
        <time>2024-08-12T03:38:49Z</time>
      </trkpt>
      <trkpt lat="44.83635" lon="6.43943">
        <ele>1343.4</ele>
        <time>2024-08-12T03:38:50Z</time>
      </trkpt>
      <trkpt lat="44.83635" lon="6.43943">
        <ele>1343.6</ele>
        <time>2024-08-12T03:38:51Z</time>
      </trkpt>
      <trkpt lat="44.83634" lon="6.43939">
        <ele>1343.6</ele>
        <time>2024-08-12T03:38:52Z</time>
      </trkpt>
      <trkpt lat="44.83634" lon="6.43939">
        <ele>1343.6</ele>
        <time>2024-08-12T03:38:53Z</time>
      </trkpt>
      <trkpt lat="44.83633" lon="6.43937">
        <ele>1344</ele>
        <time>2024-08-12T03:38:54Z</time>
      </trkpt>
      <trkpt lat="44.83633" lon="6.43937">
        <ele>1344.2</ele>
        <time>2024-08-12T03:38:55Z</time>
      </trkpt>
      <trkpt lat="44.83631" lon="6.43934">
        <ele>1344.2</ele>
        <time>2024-08-12T03:38:56Z</time>
      </trkpt>
      <trkpt lat="44.83631" lon="6.43934">
        <ele>1344.4</ele>
        <time>2024-08-12T03:38:57Z</time>
      </trkpt>
      <trkpt lat="44.8363" lon="6.43931">
        <ele>1344.6</ele>
        <time>2024-08-12T03:38:58Z</time>
      </trkpt>
      <trkpt lat="44.8363" lon="6.43931">
        <ele>1345</ele>
        <time>2024-08-12T03:38:59Z</time>
      </trkpt>
      <trkpt lat="44.83628" lon="6.43928">
        <ele>1345</ele>
        <time>2024-08-12T03:39:00Z</time>
      </trkpt>
      <trkpt lat="44.83628" lon="6.43928">
        <ele>1345</ele>
        <time>2024-08-12T03:39:01Z</time>
      </trkpt>
      <trkpt lat="44.83627" lon="6.43924">
        <ele>1345.4</ele>
        <time>2024-08-12T03:39:02Z</time>
      </trkpt>
      <trkpt lat="44.83627" lon="6.43924">
        <ele>1345.4</ele>
        <time>2024-08-12T03:39:03Z</time>
      </trkpt>
      <trkpt lat="44.83627" lon="6.43921">
        <ele>1345.4</ele>
        <time>2024-08-12T03:39:04Z</time>
      </trkpt>
      <trkpt lat="44.83627" lon="6.43921">
        <ele>1345.6</ele>
        <time>2024-08-12T03:39:05Z</time>
      </trkpt>
      <trkpt lat="44.83625" lon="6.43918">
        <ele>1345.8</ele>
        <time>2024-08-12T03:39:06Z</time>
      </trkpt>
      <trkpt lat="44.83625" lon="6.43918">
        <ele>1346</ele>
        <time>2024-08-12T03:39:07Z</time>
      </trkpt>
      <trkpt lat="44.83623" lon="6.43916">
        <ele>1346.4</ele>
        <time>2024-08-12T03:39:08Z</time>
      </trkpt>
      <trkpt lat="44.83623" lon="6.43916">
        <ele>1346.6</ele>
        <time>2024-08-12T03:39:09Z</time>
      </trkpt>
      <trkpt lat="44.83621" lon="6.43914">
        <ele>1346.6</ele>
        <time>2024-08-12T03:39:10Z</time>
      </trkpt>
      <trkpt lat="44.83621" lon="6.43914">
        <ele>1346.6</ele>
        <time>2024-08-12T03:39:11Z</time>
      </trkpt>
      <trkpt lat="44.83619" lon="6.43911">
        <ele>1346.8</ele>
        <time>2024-08-12T03:39:12Z</time>
      </trkpt>
      <trkpt lat="44.83619" lon="6.43911">
        <ele>1347</ele>
        <time>2024-08-12T03:39:13Z</time>
      </trkpt>
      <trkpt lat="44.83618" lon="6.43908">
        <ele>1347</ele>
        <time>2024-08-12T03:39:14Z</time>
      </trkpt>
      <trkpt lat="44.83618" lon="6.43908">
        <ele>1347</ele>
        <time>2024-08-12T03:39:15Z</time>
      </trkpt>
      <trkpt lat="44.83617" lon="6.43906">
        <ele>1347.2</ele>
        <time>2024-08-12T03:39:16Z</time>
      </trkpt>
      <trkpt lat="44.83617" lon="6.43906">
        <ele>1347.4</ele>
        <time>2024-08-12T03:39:17Z</time>
      </trkpt>
      <trkpt lat="44.83615" lon="6.43903">
        <ele>1347.6</ele>
        <time>2024-08-12T03:39:18Z</time>
      </trkpt>
      <trkpt lat="44.83615" lon="6.43903">
        <ele>1347.6</ele>
        <time>2024-08-12T03:39:19Z</time>
      </trkpt>
      <trkpt lat="44.83614" lon="6.439">
        <ele>1347.8</ele>
        <time>2024-08-12T03:39:20Z</time>
      </trkpt>
      <trkpt lat="44.83614" lon="6.439">
        <ele>1348</ele>
        <time>2024-08-12T03:39:21Z</time>
      </trkpt>
      <trkpt lat="44.83612" lon="6.43898">
        <ele>1348.2</ele>
        <time>2024-08-12T03:39:22Z</time>
      </trkpt>
      <trkpt lat="44.83612" lon="6.43898">
        <ele>1348.4</ele>
        <time>2024-08-12T03:39:23Z</time>
      </trkpt>
      <trkpt lat="44.8361" lon="6.43895">
        <ele>1348.4</ele>
        <time>2024-08-12T03:39:24Z</time>
      </trkpt>
      <trkpt lat="44.8361" lon="6.43895">
        <ele>1348.8</ele>
        <time>2024-08-12T03:39:25Z</time>
      </trkpt>
      <trkpt lat="44.83609" lon="6.43893">
        <ele>1348.8</ele>
        <time>2024-08-12T03:39:26Z</time>
      </trkpt>
      <trkpt lat="44.83609" lon="6.43893">
        <ele>1349.2</ele>
        <time>2024-08-12T03:39:27Z</time>
      </trkpt>
      <trkpt lat="44.83607" lon="6.4389">
        <ele>1349.4</ele>
        <time>2024-08-12T03:39:28Z</time>
      </trkpt>
      <trkpt lat="44.83607" lon="6.4389">
        <ele>1349.6</ele>
        <time>2024-08-12T03:39:29Z</time>
      </trkpt>
      <trkpt lat="44.83606" lon="6.43886">
        <ele>1349.8</ele>
        <time>2024-08-12T03:39:30Z</time>
      </trkpt>
      <trkpt lat="44.83606" lon="6.43886">
        <ele>1350</ele>
        <time>2024-08-12T03:39:31Z</time>
      </trkpt>
      <trkpt lat="44.83605" lon="6.43883">
        <ele>1350</ele>
        <time>2024-08-12T03:39:32Z</time>
      </trkpt>
      <trkpt lat="44.83605" lon="6.43883">
        <ele>1350.4</ele>
        <time>2024-08-12T03:39:33Z</time>
      </trkpt>
      <trkpt lat="44.83604" lon="6.43879">
        <ele>1350.6</ele>
        <time>2024-08-12T03:39:34Z</time>
      </trkpt>
      <trkpt lat="44.83604" lon="6.43879">
        <ele>1350.8</ele>
        <time>2024-08-12T03:39:35Z</time>
      </trkpt>
      <trkpt lat="44.83603" lon="6.43875">
        <ele>1351</ele>
        <time>2024-08-12T03:39:36Z</time>
      </trkpt>
      <trkpt lat="44.83603" lon="6.43875">
        <ele>1351.8</ele>
        <time>2024-08-12T03:39:37Z</time>
      </trkpt>
      <trkpt lat="44.83602" lon="6.43872">
        <ele>1351.8</ele>
        <time>2024-08-12T03:39:38Z</time>
      </trkpt>
      <trkpt lat="44.83602" lon="6.43872">
        <ele>1351.6</ele>
        <time>2024-08-12T03:39:39Z</time>
      </trkpt>
      <trkpt lat="44.83601" lon="6.43869">
        <ele>1351.8</ele>
        <time>2024-08-12T03:39:40Z</time>
      </trkpt>
      <trkpt lat="44.83601" lon="6.43869">
        <ele>1351.8</ele>
        <time>2024-08-12T03:39:41Z</time>
      </trkpt>
      <trkpt lat="44.836" lon="6.43865">
        <ele>1351.8</ele>
        <time>2024-08-12T03:39:42Z</time>
      </trkpt>
      <trkpt lat="44.836" lon="6.43865">
        <ele>1351.8</ele>
        <time>2024-08-12T03:39:43Z</time>
      </trkpt>
      <trkpt lat="44.836" lon="6.43861">
        <ele>1352</ele>
        <time>2024-08-12T03:39:44Z</time>
      </trkpt>
      <trkpt lat="44.836" lon="6.43861">
        <ele>1352</ele>
        <time>2024-08-12T03:39:45Z</time>
      </trkpt>
      <trkpt lat="44.83599" lon="6.43858">
        <ele>1352.2</ele>
        <time>2024-08-12T03:39:46Z</time>
      </trkpt>
      <trkpt lat="44.83599" lon="6.43858">
        <ele>1352.4</ele>
        <time>2024-08-12T03:39:47Z</time>
      </trkpt>
      <trkpt lat="44.83599" lon="6.43854">
        <ele>1352.4</ele>
        <time>2024-08-12T03:39:48Z</time>
      </trkpt>
      <trkpt lat="44.83599" lon="6.43854">
        <ele>1352.4</ele>
        <time>2024-08-12T03:39:49Z</time>
      </trkpt>
      <trkpt lat="44.83598" lon="6.4385">
        <ele>1352.6</ele>
        <time>2024-08-12T03:39:50Z</time>
      </trkpt>
      <trkpt lat="44.83598" lon="6.4385">
        <ele>1352.8</ele>
        <time>2024-08-12T03:39:51Z</time>
      </trkpt>
      <trkpt lat="44.83599" lon="6.43847">
        <ele>1352.8</ele>
        <time>2024-08-12T03:39:52Z</time>
      </trkpt>
      <trkpt lat="44.83599" lon="6.43847">
        <ele>1352.6</ele>
        <time>2024-08-12T03:39:53Z</time>
      </trkpt>
      <trkpt lat="44.836" lon="6.43845">
        <ele>1352.6</ele>
        <time>2024-08-12T03:39:54Z</time>
      </trkpt>
      <trkpt lat="44.836" lon="6.43845">
        <ele>1352.6</ele>
        <time>2024-08-12T03:39:55Z</time>
      </trkpt>
      <trkpt lat="44.836" lon="6.43845">
        <ele>1352.6</ele>
        <time>2024-08-12T03:39:56Z</time>
      </trkpt>
      <trkpt lat="44.83599" lon="6.43843">
        <ele>1352.6</ele>
        <time>2024-08-12T03:39:57Z</time>
      </trkpt>
      <trkpt lat="44.83599" lon="6.43843">
        <ele>1352.6</ele>
        <time>2024-08-12T03:39:58Z</time>
      </trkpt>
      <trkpt lat="44.83597" lon="6.43841">
        <ele>1352.6</ele>
        <time>2024-08-12T03:39:59Z</time>
      </trkpt>
      <trkpt lat="44.83597" lon="6.43841">
        <ele>1352.6</ele>
        <time>2024-08-12T03:40:00Z</time>
      </trkpt>
      <trkpt lat="44.83597" lon="6.43837">
        <ele>1352.8</ele>
        <time>2024-08-12T03:40:01Z</time>
      </trkpt>
      <trkpt lat="44.83597" lon="6.43837">
        <ele>1353</ele>
        <time>2024-08-12T03:40:02Z</time>
      </trkpt>
      <trkpt lat="44.83596" lon="6.43835">
        <ele>1353</ele>
        <time>2024-08-12T03:40:03Z</time>
      </trkpt>
      <trkpt lat="44.83596" lon="6.43835">
        <ele>1353</ele>
        <time>2024-08-12T03:40:04Z</time>
      </trkpt>
      <trkpt lat="44.83596" lon="6.43835">
        <ele>1353</ele>
        <time>2024-08-12T03:40:05Z</time>
      </trkpt>
      <trkpt lat="44.83596" lon="6.43835">
        <ele>1353</ele>
        <time>2024-08-12T03:40:06Z</time>
      </trkpt>
      <trkpt lat="44.83596" lon="6.43835">
        <ele>1353.2</ele>
        <time>2024-08-12T03:40:07Z</time>
      </trkpt>
      <trkpt lat="44.83596" lon="6.43835">
        <ele>1353.2</ele>
        <time>2024-08-12T03:40:08Z</time>
      </trkpt>
      <trkpt lat="44.83596" lon="6.43835">
        <ele>1353.2</ele>
        <time>2024-08-12T03:40:09Z</time>
      </trkpt>
      <trkpt lat="44.83596" lon="6.43835">
        <ele>1353.2</ele>
        <time>2024-08-12T03:40:10Z</time>
      </trkpt>
      <trkpt lat="44.83596" lon="6.43835">
        <ele>1353</ele>
        <time>2024-08-12T03:40:11Z</time>
      </trkpt>
      <trkpt lat="44.83596" lon="6.43835">
        <ele>1353</ele>
        <time>2024-08-12T03:40:12Z</time>
      </trkpt>
      <trkpt lat="44.83596" lon="6.43835">
        <ele>1353.2</ele>
        <time>2024-08-12T03:40:13Z</time>
      </trkpt>
      <trkpt lat="44.83596" lon="6.43835">
        <ele>1353.2</ele>
        <time>2024-08-12T03:40:14Z</time>
      </trkpt>
      <trkpt lat="44.83596" lon="6.43835">
        <ele>1353.2</ele>
        <time>2024-08-12T03:40:15Z</time>
      </trkpt>
      <trkpt lat="44.83596" lon="6.43835">
        <ele>1353.2</ele>
        <time>2024-08-12T03:40:16Z</time>
      </trkpt>
      <trkpt lat="44.83596" lon="6.43835">
        <ele>1353.2</ele>
        <time>2024-08-12T03:40:17Z</time>
      </trkpt>
      <trkpt lat="44.83596" lon="6.43835">
        <ele>1353.4</ele>
        <time>2024-08-12T03:40:18Z</time>
      </trkpt>
      <trkpt lat="44.83596" lon="6.43835">
        <ele>1353.4</ele>
        <time>2024-08-12T03:40:19Z</time>
      </trkpt>
      <trkpt lat="44.83596" lon="6.43835">
        <ele>1353.6</ele>
        <time>2024-08-12T03:40:20Z</time>
      </trkpt>
      <trkpt lat="44.83596" lon="6.43835">
        <ele>1353.6</ele>
        <time>2024-08-12T03:40:21Z</time>
      </trkpt>
      <trkpt lat="44.83596" lon="6.43835">
        <ele>1353.6</ele>
        <time>2024-08-12T03:40:22Z</time>
      </trkpt>
      <trkpt lat="44.83596" lon="6.43835">
        <ele>1353.6</ele>
        <time>2024-08-12T03:40:23Z</time>
      </trkpt>
      <trkpt lat="44.83596" lon="6.43835">
        <ele>1353.6</ele>
        <time>2024-08-12T03:40:24Z</time>
      </trkpt>
      <trkpt lat="44.83596" lon="6.43835">
        <ele>1353.8</ele>
        <time>2024-08-12T03:40:25Z</time>
      </trkpt>
      <trkpt lat="44.83596" lon="6.43835">
        <ele>1353.8</ele>
        <time>2024-08-12T03:40:26Z</time>
      </trkpt>
      <trkpt lat="44.83596" lon="6.43835">
        <ele>1353.8</ele>
        <time>2024-08-12T03:40:27Z</time>
      </trkpt>
      <trkpt lat="44.83596" lon="6.43835">
        <ele>1353.8</ele>
        <time>2024-08-12T03:40:28Z</time>
      </trkpt>
      <trkpt lat="44.83596" lon="6.43835">
        <ele>1353.8</ele>
        <time>2024-08-12T03:40:29Z</time>
      </trkpt>
      <trkpt lat="44.83596" lon="6.43835">
        <ele>1353.8</ele>
        <time>2024-08-12T03:40:30Z</time>
      </trkpt>
      <trkpt lat="44.83596" lon="6.43835">
        <ele>1353.8</ele>
        <time>2024-08-12T03:40:31Z</time>
      </trkpt>
      <trkpt lat="44.83596" lon="6.43835">
        <ele>1353.8</ele>
        <time>2024-08-12T03:40:32Z</time>
      </trkpt>
      <trkpt lat="44.83596" lon="6.43835">
        <ele>1353.8</ele>
        <time>2024-08-12T03:40:33Z</time>
      </trkpt>
      <trkpt lat="44.83597" lon="6.43832">
        <ele>1353.8</ele>
        <time>2024-08-12T03:40:34Z</time>
      </trkpt>
      <trkpt lat="44.83597" lon="6.43832">
        <ele>1353.8</ele>
        <time>2024-08-12T03:40:35Z</time>
      </trkpt>
      <trkpt lat="44.83599" lon="6.43828">
        <ele>1353.8</ele>
        <time>2024-08-12T03:40:36Z</time>
      </trkpt>
      <trkpt lat="44.83599" lon="6.43828">
        <ele>1354.2</ele>
        <time>2024-08-12T03:40:37Z</time>
      </trkpt>
      <trkpt lat="44.836" lon="6.43824">
        <ele>1354.2</ele>
        <time>2024-08-12T03:40:38Z</time>
      </trkpt>
      <trkpt lat="44.836" lon="6.43824">
        <ele>1354.2</ele>
        <time>2024-08-12T03:40:39Z</time>
      </trkpt>
      <trkpt lat="44.83601" lon="6.4382">
        <ele>1354.2</ele>
        <time>2024-08-12T03:40:40Z</time>
      </trkpt>
      <trkpt lat="44.83601" lon="6.4382">
        <ele>1354.2</ele>
        <time>2024-08-12T03:40:41Z</time>
      </trkpt>
      <trkpt lat="44.83602" lon="6.43816">
        <ele>1354.6</ele>
        <time>2024-08-12T03:40:42Z</time>
      </trkpt>
      <trkpt lat="44.83602" lon="6.43816">
        <ele>1354.6</ele>
        <time>2024-08-12T03:40:43Z</time>
      </trkpt>
      <trkpt lat="44.83603" lon="6.43812">
        <ele>1354.8</ele>
        <time>2024-08-12T03:40:44Z</time>
      </trkpt>
      <trkpt lat="44.83603" lon="6.43812">
        <ele>1355.2</ele>
        <time>2024-08-12T03:40:45Z</time>
      </trkpt>
      <trkpt lat="44.83604" lon="6.43809">
        <ele>1355.2</ele>
        <time>2024-08-12T03:40:46Z</time>
      </trkpt>
      <trkpt lat="44.83604" lon="6.43809">
        <ele>1355.2</ele>
        <time>2024-08-12T03:40:47Z</time>
      </trkpt>
      <trkpt lat="44.83604" lon="6.43806">
        <ele>1355.4</ele>
        <time>2024-08-12T03:40:48Z</time>
      </trkpt>
      <trkpt lat="44.83604" lon="6.43806">
        <ele>1355.6</ele>
        <time>2024-08-12T03:40:49Z</time>
      </trkpt>
      <trkpt lat="44.83605" lon="6.43802">
        <ele>1355.6</ele>
        <time>2024-08-12T03:40:50Z</time>
      </trkpt>
      <trkpt lat="44.83605" lon="6.43802">
        <ele>1355.6</ele>
        <time>2024-08-12T03:40:51Z</time>
      </trkpt>
      <trkpt lat="44.83606" lon="6.43799">
        <ele>1355.6</ele>
        <time>2024-08-12T03:40:52Z</time>
      </trkpt>
      <trkpt lat="44.83606" lon="6.43799">
        <ele>1356</ele>
        <time>2024-08-12T03:40:53Z</time>
      </trkpt>
      <trkpt lat="44.83607" lon="6.43796">
        <ele>1356.2</ele>
        <time>2024-08-12T03:40:54Z</time>
      </trkpt>
      <trkpt lat="44.83607" lon="6.43796">
        <ele>1356.2</ele>
        <time>2024-08-12T03:40:55Z</time>
      </trkpt>
      <trkpt lat="44.83608" lon="6.43793">
        <ele>1356.2</ele>
        <time>2024-08-12T03:40:56Z</time>
      </trkpt>
      <trkpt lat="44.83608" lon="6.43793">
        <ele>1356.4</ele>
        <time>2024-08-12T03:40:57Z</time>
      </trkpt>
      <trkpt lat="44.83609" lon="6.43789">
        <ele>1356.6</ele>
        <time>2024-08-12T03:40:58Z</time>
      </trkpt>
      <trkpt lat="44.83609" lon="6.43789">
        <ele>1356.6</ele>
        <time>2024-08-12T03:40:59Z</time>
      </trkpt>
      <trkpt lat="44.8361" lon="6.43786">
        <ele>1356.8</ele>
        <time>2024-08-12T03:41:00Z</time>
      </trkpt>
      <trkpt lat="44.8361" lon="6.43786">
        <ele>1357</ele>
        <time>2024-08-12T03:41:01Z</time>
      </trkpt>
      <trkpt lat="44.83611" lon="6.43782">
        <ele>1357.2</ele>
        <time>2024-08-12T03:41:02Z</time>
      </trkpt>
      <trkpt lat="44.83611" lon="6.43782">
        <ele>1357.2</ele>
        <time>2024-08-12T03:41:03Z</time>
      </trkpt>
      <trkpt lat="44.8361" lon="6.43778">
        <ele>1357.2</ele>
        <time>2024-08-12T03:41:04Z</time>
      </trkpt>
      <trkpt lat="44.8361" lon="6.43778">
        <ele>1357.4</ele>
        <time>2024-08-12T03:41:05Z</time>
      </trkpt>
      <trkpt lat="44.8361" lon="6.43774">
        <ele>1357.8</ele>
        <time>2024-08-12T03:41:06Z</time>
      </trkpt>
      <trkpt lat="44.8361" lon="6.43774">
        <ele>1357.8</ele>
        <time>2024-08-12T03:41:07Z</time>
      </trkpt>
      <trkpt lat="44.8361" lon="6.4377">
        <ele>1358</ele>
        <time>2024-08-12T03:41:08Z</time>
      </trkpt>
      <trkpt lat="44.8361" lon="6.4377">
        <ele>1358.2</ele>
        <time>2024-08-12T03:41:09Z</time>
      </trkpt>
      <trkpt lat="44.8361" lon="6.43767">
        <ele>1358.4</ele>
        <time>2024-08-12T03:41:10Z</time>
      </trkpt>
      <trkpt lat="44.8361" lon="6.43767">
        <ele>1358.4</ele>
        <time>2024-08-12T03:41:11Z</time>
      </trkpt>
      <trkpt lat="44.8361" lon="6.43763">
        <ele>1358.6</ele>
        <time>2024-08-12T03:41:12Z</time>
      </trkpt>
      <trkpt lat="44.8361" lon="6.43763">
        <ele>1358.8</ele>
        <time>2024-08-12T03:41:13Z</time>
      </trkpt>
      <trkpt lat="44.8361" lon="6.43759">
        <ele>1358.8</ele>
        <time>2024-08-12T03:41:14Z</time>
      </trkpt>
      <trkpt lat="44.8361" lon="6.43759">
        <ele>1358.8</ele>
        <time>2024-08-12T03:41:15Z</time>
      </trkpt>
      <trkpt lat="44.83609" lon="6.43756">
        <ele>1359.2</ele>
        <time>2024-08-12T03:41:16Z</time>
      </trkpt>
      <trkpt lat="44.83609" lon="6.43756">
        <ele>1359.2</ele>
        <time>2024-08-12T03:41:17Z</time>
      </trkpt>
      <trkpt lat="44.83609" lon="6.43752">
        <ele>1359.2</ele>
        <time>2024-08-12T03:41:18Z</time>
      </trkpt>
      <trkpt lat="44.83609" lon="6.43752">
        <ele>1359.2</ele>
        <time>2024-08-12T03:41:19Z</time>
      </trkpt>
      <trkpt lat="44.8361" lon="6.43749">
        <ele>1359.2</ele>
        <time>2024-08-12T03:41:20Z</time>
      </trkpt>
      <trkpt lat="44.8361" lon="6.43749">
        <ele>1359.4</ele>
        <time>2024-08-12T03:41:21Z</time>
      </trkpt>
      <trkpt lat="44.83611" lon="6.43745">
        <ele>1359.6</ele>
        <time>2024-08-12T03:41:22Z</time>
      </trkpt>
      <trkpt lat="44.83611" lon="6.43745">
        <ele>1359.8</ele>
        <time>2024-08-12T03:41:23Z</time>
      </trkpt>
      <trkpt lat="44.83612" lon="6.43742">
        <ele>1359.8</ele>
        <time>2024-08-12T03:41:24Z</time>
      </trkpt>
      <trkpt lat="44.83612" lon="6.43742">
        <ele>1360</ele>
        <time>2024-08-12T03:41:25Z</time>
      </trkpt>
      <trkpt lat="44.83612" lon="6.43738">
        <ele>1360</ele>
        <time>2024-08-12T03:41:26Z</time>
      </trkpt>
      <trkpt lat="44.83612" lon="6.43738">
        <ele>1360.4</ele>
        <time>2024-08-12T03:41:27Z</time>
      </trkpt>
      <trkpt lat="44.83612" lon="6.43734">
        <ele>1360.6</ele>
        <time>2024-08-12T03:41:28Z</time>
      </trkpt>
      <trkpt lat="44.83612" lon="6.43734">
        <ele>1360.6</ele>
        <time>2024-08-12T03:41:29Z</time>
      </trkpt>
      <trkpt lat="44.83613" lon="6.43731">
        <ele>1360.6</ele>
        <time>2024-08-12T03:41:30Z</time>
      </trkpt>
      <trkpt lat="44.83613" lon="6.43731">
        <ele>1360.8</ele>
        <time>2024-08-12T03:41:31Z</time>
      </trkpt>
      <trkpt lat="44.83613" lon="6.43727">
        <ele>1360.8</ele>
        <time>2024-08-12T03:41:32Z</time>
      </trkpt>
      <trkpt lat="44.83613" lon="6.43727">
        <ele>1361</ele>
        <time>2024-08-12T03:41:33Z</time>
      </trkpt>
      <trkpt lat="44.83613" lon="6.43723">
        <ele>1361</ele>
        <time>2024-08-12T03:41:34Z</time>
      </trkpt>
      <trkpt lat="44.83613" lon="6.43723">
        <ele>1361.4</ele>
        <time>2024-08-12T03:41:35Z</time>
      </trkpt>
      <trkpt lat="44.83613" lon="6.4372">
        <ele>1361.4</ele>
        <time>2024-08-12T03:41:36Z</time>
      </trkpt>
      <trkpt lat="44.83613" lon="6.4372">
        <ele>1361.4</ele>
        <time>2024-08-12T03:41:37Z</time>
      </trkpt>
      <trkpt lat="44.83613" lon="6.43717">
        <ele>1361.6</ele>
        <time>2024-08-12T03:41:38Z</time>
      </trkpt>
      <trkpt lat="44.83613" lon="6.43717">
        <ele>1361.6</ele>
        <time>2024-08-12T03:41:39Z</time>
      </trkpt>
      <trkpt lat="44.83612" lon="6.43713">
        <ele>1361.6</ele>
        <time>2024-08-12T03:41:40Z</time>
      </trkpt>
      <trkpt lat="44.83612" lon="6.43713">
        <ele>1361.6</ele>
        <time>2024-08-12T03:41:41Z</time>
      </trkpt>
      <trkpt lat="44.83611" lon="6.43709">
        <ele>1361.8</ele>
        <time>2024-08-12T03:41:42Z</time>
      </trkpt>
      <trkpt lat="44.83611" lon="6.43709">
        <ele>1362</ele>
        <time>2024-08-12T03:41:43Z</time>
      </trkpt>
      <trkpt lat="44.83611" lon="6.43706">
        <ele>1362.4</ele>
        <time>2024-08-12T03:41:44Z</time>
      </trkpt>
      <trkpt lat="44.83611" lon="6.43706">
        <ele>1362.4</ele>
        <time>2024-08-12T03:41:45Z</time>
      </trkpt>
      <trkpt lat="44.8361" lon="6.43702">
        <ele>1362.6</ele>
        <time>2024-08-12T03:41:46Z</time>
      </trkpt>
      <trkpt lat="44.8361" lon="6.43702">
        <ele>1362.8</ele>
        <time>2024-08-12T03:41:47Z</time>
      </trkpt>
      <trkpt lat="44.8361" lon="6.43698">
        <ele>1362.8</ele>
        <time>2024-08-12T03:41:48Z</time>
      </trkpt>
      <trkpt lat="44.8361" lon="6.43698">
        <ele>1363</ele>
        <time>2024-08-12T03:41:49Z</time>
      </trkpt>
      <trkpt lat="44.83612" lon="6.43695">
        <ele>1363.2</ele>
        <time>2024-08-12T03:41:50Z</time>
      </trkpt>
      <trkpt lat="44.83612" lon="6.43695">
        <ele>1363.2</ele>
        <time>2024-08-12T03:41:51Z</time>
      </trkpt>
      <trkpt lat="44.83613" lon="6.43692">
        <ele>1363.6</ele>
        <time>2024-08-12T03:41:52Z</time>
      </trkpt>
      <trkpt lat="44.83613" lon="6.43692">
        <ele>1363.6</ele>
        <time>2024-08-12T03:41:53Z</time>
      </trkpt>
      <trkpt lat="44.83616" lon="6.43691">
        <ele>1363.6</ele>
        <time>2024-08-12T03:41:54Z</time>
      </trkpt>
      <trkpt lat="44.83616" lon="6.43691">
        <ele>1363.8</ele>
        <time>2024-08-12T03:41:55Z</time>
      </trkpt>
      <trkpt lat="44.83618" lon="6.43691">
        <ele>1364</ele>
        <time>2024-08-12T03:41:56Z</time>
      </trkpt>
      <trkpt lat="44.83618" lon="6.43691">
        <ele>1364.2</ele>
        <time>2024-08-12T03:41:57Z</time>
      </trkpt>
      <trkpt lat="44.83621" lon="6.43693">
        <ele>1364.2</ele>
        <time>2024-08-12T03:41:58Z</time>
      </trkpt>
      <trkpt lat="44.83621" lon="6.43693">
        <ele>1364.4</ele>
        <time>2024-08-12T03:41:59Z</time>
      </trkpt>
      <trkpt lat="44.83623" lon="6.43696">
        <ele>1364.6</ele>
        <time>2024-08-12T03:42:00Z</time>
      </trkpt>
      <trkpt lat="44.83623" lon="6.43696">
        <ele>1364.8</ele>
        <time>2024-08-12T03:42:01Z</time>
      </trkpt>
      <trkpt lat="44.83625" lon="6.43699">
        <ele>1365.2</ele>
        <time>2024-08-12T03:42:02Z</time>
      </trkpt>
      <trkpt lat="44.83625" lon="6.43699">
        <ele>1365.2</ele>
        <time>2024-08-12T03:42:03Z</time>
      </trkpt>
      <trkpt lat="44.83625" lon="6.43703">
        <ele>1365.2</ele>
        <time>2024-08-12T03:42:04Z</time>
      </trkpt>
      <trkpt lat="44.83625" lon="6.43703">
        <ele>1365.2</ele>
        <time>2024-08-12T03:42:05Z</time>
      </trkpt>
      <trkpt lat="44.83626" lon="6.43707">
        <ele>1365.2</ele>
        <time>2024-08-12T03:42:06Z</time>
      </trkpt>
      <trkpt lat="44.83626" lon="6.43707">
        <ele>1365.2</ele>
        <time>2024-08-12T03:42:07Z</time>
      </trkpt>
      <trkpt lat="44.83626" lon="6.43711">
        <ele>1365.4</ele>
        <time>2024-08-12T03:42:08Z</time>
      </trkpt>
      <trkpt lat="44.83626" lon="6.43711">
        <ele>1365.6</ele>
        <time>2024-08-12T03:42:09Z</time>
      </trkpt>
      <trkpt lat="44.83627" lon="6.43715">
        <ele>1365.8</ele>
        <time>2024-08-12T03:42:10Z</time>
      </trkpt>
      <trkpt lat="44.83627" lon="6.43715">
        <ele>1366</ele>
        <time>2024-08-12T03:42:11Z</time>
      </trkpt>
      <trkpt lat="44.83627" lon="6.43718">
        <ele>1366</ele>
        <time>2024-08-12T03:42:12Z</time>
      </trkpt>
      <trkpt lat="44.83627" lon="6.43718">
        <ele>1366</ele>
        <time>2024-08-12T03:42:13Z</time>
      </trkpt>
      <trkpt lat="44.83627" lon="6.43722">
        <ele>1366.2</ele>
        <time>2024-08-12T03:42:14Z</time>
      </trkpt>
      <trkpt lat="44.83627" lon="6.43722">
        <ele>1366.4</ele>
        <time>2024-08-12T03:42:15Z</time>
      </trkpt>
      <trkpt lat="44.83629" lon="6.43725">
        <ele>1366.6</ele>
        <time>2024-08-12T03:42:16Z</time>
      </trkpt>
      <trkpt lat="44.83629" lon="6.43725">
        <ele>1367</ele>
        <time>2024-08-12T03:42:17Z</time>
      </trkpt>
      <trkpt lat="44.83629" lon="6.43728">
        <ele>1367</ele>
        <time>2024-08-12T03:42:18Z</time>
      </trkpt>
      <trkpt lat="44.83629" lon="6.43728">
        <ele>1367</ele>
        <time>2024-08-12T03:42:19Z</time>
      </trkpt>
      <trkpt lat="44.8363" lon="6.43732">
        <ele>1366.8</ele>
        <time>2024-08-12T03:42:20Z</time>
      </trkpt>
      <trkpt lat="44.8363" lon="6.43732">
        <ele>1366.8</ele>
        <time>2024-08-12T03:42:21Z</time>
      </trkpt>
      <trkpt lat="44.83631" lon="6.43735">
        <ele>1367.2</ele>
        <time>2024-08-12T03:42:22Z</time>
      </trkpt>
      <trkpt lat="44.83631" lon="6.43735">
        <ele>1367.4</ele>
        <time>2024-08-12T03:42:23Z</time>
      </trkpt>
      <trkpt lat="44.83632" lon="6.43738">
        <ele>1367.4</ele>
        <time>2024-08-12T03:42:24Z</time>
      </trkpt>
      <trkpt lat="44.83632" lon="6.43738">
        <ele>1367.4</ele>
        <time>2024-08-12T03:42:25Z</time>
      </trkpt>
      <trkpt lat="44.83634" lon="6.4374">
        <ele>1367.6</ele>
        <time>2024-08-12T03:42:26Z</time>
      </trkpt>
      <trkpt lat="44.83634" lon="6.4374">
        <ele>1367.8</ele>
        <time>2024-08-12T03:42:27Z</time>
      </trkpt>
      <trkpt lat="44.83637" lon="6.4374">
        <ele>1368</ele>
        <time>2024-08-12T03:42:28Z</time>
      </trkpt>
      <trkpt lat="44.83637" lon="6.4374">
        <ele>1368</ele>
        <time>2024-08-12T03:42:29Z</time>
      </trkpt>
      <trkpt lat="44.83639" lon="6.43739">
        <ele>1368.4</ele>
        <time>2024-08-12T03:42:30Z</time>
      </trkpt>
      <trkpt lat="44.83639" lon="6.43739">
        <ele>1368.8</ele>
        <time>2024-08-12T03:42:31Z</time>
      </trkpt>
      <trkpt lat="44.8364" lon="6.43736">
        <ele>1369</ele>
        <time>2024-08-12T03:42:32Z</time>
      </trkpt>
      <trkpt lat="44.8364" lon="6.43736">
        <ele>1369.2</ele>
        <time>2024-08-12T03:42:33Z</time>
      </trkpt>
      <trkpt lat="44.8364" lon="6.43732">
        <ele>1369.4</ele>
        <time>2024-08-12T03:42:34Z</time>
      </trkpt>
      <trkpt lat="44.8364" lon="6.43732">
        <ele>1369.6</ele>
        <time>2024-08-12T03:42:35Z</time>
      </trkpt>
      <trkpt lat="44.83641" lon="6.43729">
        <ele>1369.6</ele>
        <time>2024-08-12T03:42:36Z</time>
      </trkpt>
      <trkpt lat="44.83641" lon="6.43729">
        <ele>1369.6</ele>
        <time>2024-08-12T03:42:37Z</time>
      </trkpt>
      <trkpt lat="44.83641" lon="6.43725">
        <ele>1369.8</ele>
        <time>2024-08-12T03:42:38Z</time>
      </trkpt>
      <trkpt lat="44.83641" lon="6.43725">
        <ele>1370</ele>
        <time>2024-08-12T03:42:39Z</time>
      </trkpt>
      <trkpt lat="44.83642" lon="6.43721">
        <ele>1370.2</ele>
        <time>2024-08-12T03:42:40Z</time>
      </trkpt>
      <trkpt lat="44.83642" lon="6.43721">
        <ele>1370.2</ele>
        <time>2024-08-12T03:42:41Z</time>
      </trkpt>
      <trkpt lat="44.83643" lon="6.43718">
        <ele>1370.4</ele>
        <time>2024-08-12T03:42:42Z</time>
      </trkpt>
      <trkpt lat="44.83643" lon="6.43718">
        <ele>1370.8</ele>
        <time>2024-08-12T03:42:43Z</time>
      </trkpt>
      <trkpt lat="44.83643" lon="6.43714">
        <ele>1371.2</ele>
        <time>2024-08-12T03:42:44Z</time>
      </trkpt>
      <trkpt lat="44.83643" lon="6.43714">
        <ele>1371.4</ele>
        <time>2024-08-12T03:42:45Z</time>
      </trkpt>
      <trkpt lat="44.83642" lon="6.4371">
        <ele>1371.6</ele>
        <time>2024-08-12T03:42:46Z</time>
      </trkpt>
      <trkpt lat="44.83642" lon="6.4371">
        <ele>1371.6</ele>
        <time>2024-08-12T03:42:47Z</time>
      </trkpt>
      <trkpt lat="44.83641" lon="6.43707">
        <ele>1371.6</ele>
        <time>2024-08-12T03:42:48Z</time>
      </trkpt>
      <trkpt lat="44.83641" lon="6.43707">
        <ele>1371.6</ele>
        <time>2024-08-12T03:42:49Z</time>
      </trkpt>
      <trkpt lat="44.83641" lon="6.43703">
        <ele>1371.8</ele>
        <time>2024-08-12T03:42:50Z</time>
      </trkpt>
      <trkpt lat="44.83641" lon="6.43703">
        <ele>1372</ele>
        <time>2024-08-12T03:42:51Z</time>
      </trkpt>
      <trkpt lat="44.8364" lon="6.43699">
        <ele>1372.2</ele>
        <time>2024-08-12T03:42:52Z</time>
      </trkpt>
      <trkpt lat="44.8364" lon="6.43699">
        <ele>1372.2</ele>
        <time>2024-08-12T03:42:53Z</time>
      </trkpt>
      <trkpt lat="44.83638" lon="6.43696">
        <ele>1372.4</ele>
        <time>2024-08-12T03:42:54Z</time>
      </trkpt>
      <trkpt lat="44.83638" lon="6.43696">
        <ele>1372.4</ele>
        <time>2024-08-12T03:42:55Z</time>
      </trkpt>
      <trkpt lat="44.83637" lon="6.43692">
        <ele>1372.6</ele>
        <time>2024-08-12T03:42:56Z</time>
      </trkpt>
      <trkpt lat="44.83637" lon="6.43692">
        <ele>1372.8</ele>
        <time>2024-08-12T03:42:57Z</time>
      </trkpt>
      <trkpt lat="44.83636" lon="6.43689">
        <ele>1373</ele>
        <time>2024-08-12T03:42:58Z</time>
      </trkpt>
      <trkpt lat="44.83636" lon="6.43689">
        <ele>1373</ele>
        <time>2024-08-12T03:42:59Z</time>
      </trkpt>
      <trkpt lat="44.83635" lon="6.43686">
        <ele>1373.2</ele>
        <time>2024-08-12T03:43:00Z</time>
      </trkpt>
      <trkpt lat="44.83635" lon="6.43686">
        <ele>1373.4</ele>
        <time>2024-08-12T03:43:01Z</time>
      </trkpt>
      <trkpt lat="44.83633" lon="6.43683">
        <ele>1373.8</ele>
        <time>2024-08-12T03:43:02Z</time>
      </trkpt>
      <trkpt lat="44.83633" lon="6.43683">
        <ele>1373.8</ele>
        <time>2024-08-12T03:43:03Z</time>
      </trkpt>
      <trkpt lat="44.83632" lon="6.4368">
        <ele>1373.8</ele>
        <time>2024-08-12T03:43:04Z</time>
      </trkpt>
      <trkpt lat="44.83632" lon="6.4368">
        <ele>1373.8</ele>
        <time>2024-08-12T03:43:05Z</time>
      </trkpt>
      <trkpt lat="44.8363" lon="6.43677">
        <ele>1374.4</ele>
        <time>2024-08-12T03:43:06Z</time>
      </trkpt>
      <trkpt lat="44.8363" lon="6.43677">
        <ele>1374.4</ele>
        <time>2024-08-12T03:43:07Z</time>
      </trkpt>
      <trkpt lat="44.83629" lon="6.43674">
        <ele>1374.4</ele>
        <time>2024-08-12T03:43:08Z</time>
      </trkpt>
      <trkpt lat="44.83629" lon="6.43674">
        <ele>1374.4</ele>
        <time>2024-08-12T03:43:09Z</time>
      </trkpt>
      <trkpt lat="44.83627" lon="6.43671">
        <ele>1374.6</ele>
        <time>2024-08-12T03:43:10Z</time>
      </trkpt>
      <trkpt lat="44.83627" lon="6.43671">
        <ele>1374.8</ele>
        <time>2024-08-12T03:43:11Z</time>
      </trkpt>
      <trkpt lat="44.83625" lon="6.43669">
        <ele>1374.8</ele>
        <time>2024-08-12T03:43:12Z</time>
      </trkpt>
      <trkpt lat="44.83625" lon="6.43669">
        <ele>1375</ele>
        <time>2024-08-12T03:43:13Z</time>
      </trkpt>
      <trkpt lat="44.83623" lon="6.43668">
        <ele>1375.2</ele>
        <time>2024-08-12T03:43:14Z</time>
      </trkpt>
      <trkpt lat="44.83623" lon="6.43668">
        <ele>1375.4</ele>
        <time>2024-08-12T03:43:15Z</time>
      </trkpt>
      <trkpt lat="44.83621" lon="6.43666">
        <ele>1375.4</ele>
        <time>2024-08-12T03:43:16Z</time>
      </trkpt>
      <trkpt lat="44.83621" lon="6.43666">
        <ele>1375.6</ele>
        <time>2024-08-12T03:43:17Z</time>
      </trkpt>
      <trkpt lat="44.83619" lon="6.43665">
        <ele>1375.6</ele>
        <time>2024-08-12T03:43:18Z</time>
      </trkpt>
      <trkpt lat="44.83619" lon="6.43665">
        <ele>1375.8</ele>
        <time>2024-08-12T03:43:19Z</time>
      </trkpt>
      <trkpt lat="44.83617" lon="6.43663">
        <ele>1376</ele>
        <time>2024-08-12T03:43:20Z</time>
      </trkpt>
      <trkpt lat="44.83617" lon="6.43663">
        <ele>1376.2</ele>
        <time>2024-08-12T03:43:21Z</time>
      </trkpt>
      <trkpt lat="44.83614" lon="6.4366">
        <ele>1376.4</ele>
        <time>2024-08-12T03:43:22Z</time>
      </trkpt>
      <trkpt lat="44.83614" lon="6.4366">
        <ele>1376.4</ele>
        <time>2024-08-12T03:43:23Z</time>
      </trkpt>
      <trkpt lat="44.83613" lon="6.43657">
        <ele>1376.4</ele>
        <time>2024-08-12T03:43:24Z</time>
      </trkpt>
      <trkpt lat="44.83613" lon="6.43657">
        <ele>1376.4</ele>
        <time>2024-08-12T03:43:25Z</time>
      </trkpt>
      <trkpt lat="44.83611" lon="6.43654">
        <ele>1376.6</ele>
        <time>2024-08-12T03:43:26Z</time>
      </trkpt>
      <trkpt lat="44.83611" lon="6.43654">
        <ele>1376.8</ele>
        <time>2024-08-12T03:43:27Z</time>
      </trkpt>
      <trkpt lat="44.8361" lon="6.43651">
        <ele>1377</ele>
        <time>2024-08-12T03:43:28Z</time>
      </trkpt>
      <trkpt lat="44.8361" lon="6.43651">
        <ele>1377</ele>
        <time>2024-08-12T03:43:29Z</time>
      </trkpt>
      <trkpt lat="44.83609" lon="6.43647">
        <ele>1377.2</ele>
        <time>2024-08-12T03:43:30Z</time>
      </trkpt>
      <trkpt lat="44.83609" lon="6.43647">
        <ele>1377.6</ele>
        <time>2024-08-12T03:43:31Z</time>
      </trkpt>
      <trkpt lat="44.83607" lon="6.43644">
        <ele>1377.6</ele>
        <time>2024-08-12T03:43:32Z</time>
      </trkpt>
      <trkpt lat="44.83607" lon="6.43644">
        <ele>1377.6</ele>
        <time>2024-08-12T03:43:33Z</time>
      </trkpt>
      <trkpt lat="44.83607" lon="6.43641">
        <ele>1377.6</ele>
        <time>2024-08-12T03:43:34Z</time>
      </trkpt>
      <trkpt lat="44.83607" lon="6.43641">
        <ele>1377.8</ele>
        <time>2024-08-12T03:43:35Z</time>
      </trkpt>
      <trkpt lat="44.83606" lon="6.43638">
        <ele>1378</ele>
        <time>2024-08-12T03:43:36Z</time>
      </trkpt>
      <trkpt lat="44.83606" lon="6.43638">
        <ele>1378.2</ele>
        <time>2024-08-12T03:43:37Z</time>
      </trkpt>
      <trkpt lat="44.83605" lon="6.43634">
        <ele>1378.4</ele>
        <time>2024-08-12T03:43:38Z</time>
      </trkpt>
      <trkpt lat="44.83605" lon="6.43634">
        <ele>1378.6</ele>
        <time>2024-08-12T03:43:39Z</time>
      </trkpt>
      <trkpt lat="44.83605" lon="6.43631">
        <ele>1378.6</ele>
        <time>2024-08-12T03:43:40Z</time>
      </trkpt>
      <trkpt lat="44.83605" lon="6.43631">
        <ele>1378.6</ele>
        <time>2024-08-12T03:43:41Z</time>
      </trkpt>
      <trkpt lat="44.83605" lon="6.43628">
        <ele>1378.8</ele>
        <time>2024-08-12T03:43:42Z</time>
      </trkpt>
      <trkpt lat="44.83605" lon="6.43628">
        <ele>1378.8</ele>
        <time>2024-08-12T03:43:43Z</time>
      </trkpt>
      <trkpt lat="44.83604" lon="6.43625">
        <ele>1379.2</ele>
        <time>2024-08-12T03:43:44Z</time>
      </trkpt>
      <trkpt lat="44.83604" lon="6.43625">
        <ele>1379.4</ele>
        <time>2024-08-12T03:43:45Z</time>
      </trkpt>
      <trkpt lat="44.83603" lon="6.43621">
        <ele>1379.6</ele>
        <time>2024-08-12T03:43:46Z</time>
      </trkpt>
      <trkpt lat="44.83603" lon="6.43621">
        <ele>1379.6</ele>
        <time>2024-08-12T03:43:47Z</time>
      </trkpt>
      <trkpt lat="44.83602" lon="6.43618">
        <ele>1379.6</ele>
        <time>2024-08-12T03:43:48Z</time>
      </trkpt>
      <trkpt lat="44.83602" lon="6.43618">
        <ele>1379.8</ele>
        <time>2024-08-12T03:43:49Z</time>
      </trkpt>
      <trkpt lat="44.83601" lon="6.43615">
        <ele>1380</ele>
        <time>2024-08-12T03:43:50Z</time>
      </trkpt>
      <trkpt lat="44.83601" lon="6.43615">
        <ele>1380</ele>
        <time>2024-08-12T03:43:51Z</time>
      </trkpt>
      <trkpt lat="44.83601" lon="6.43611">
        <ele>1380.4</ele>
        <time>2024-08-12T03:43:52Z</time>
      </trkpt>
      <trkpt lat="44.83601" lon="6.43611">
        <ele>1380.6</ele>
        <time>2024-08-12T03:43:53Z</time>
      </trkpt>
      <trkpt lat="44.836" lon="6.43607">
        <ele>1380.8</ele>
        <time>2024-08-12T03:43:54Z</time>
      </trkpt>
      <trkpt lat="44.836" lon="6.43607">
        <ele>1380.8</ele>
        <time>2024-08-12T03:43:55Z</time>
      </trkpt>
      <trkpt lat="44.83599" lon="6.43604">
        <ele>1381</ele>
        <time>2024-08-12T03:43:56Z</time>
      </trkpt>
      <trkpt lat="44.83599" lon="6.43604">
        <ele>1381.2</ele>
        <time>2024-08-12T03:43:57Z</time>
      </trkpt>
      <trkpt lat="44.83598" lon="6.43601">
        <ele>1381.2</ele>
        <time>2024-08-12T03:43:58Z</time>
      </trkpt>
      <trkpt lat="44.83598" lon="6.43601">
        <ele>1381.4</ele>
        <time>2024-08-12T03:43:59Z</time>
      </trkpt>
      <trkpt lat="44.83597" lon="6.43598">
        <ele>1381.6</ele>
        <time>2024-08-12T03:44:00Z</time>
      </trkpt>
      <trkpt lat="44.83597" lon="6.43598">
        <ele>1381.6</ele>
        <time>2024-08-12T03:44:01Z</time>
      </trkpt>
      <trkpt lat="44.83597" lon="6.43595">
        <ele>1381.8</ele>
        <time>2024-08-12T03:44:02Z</time>
      </trkpt>
      <trkpt lat="44.83597" lon="6.43595">
        <ele>1381.8</ele>
        <time>2024-08-12T03:44:03Z</time>
      </trkpt>
      <trkpt lat="44.83597" lon="6.43592">
        <ele>1382.2</ele>
        <time>2024-08-12T03:44:04Z</time>
      </trkpt>
      <trkpt lat="44.83597" lon="6.43592">
        <ele>1382.2</ele>
        <time>2024-08-12T03:44:05Z</time>
      </trkpt>
      <trkpt lat="44.83597" lon="6.43588">
        <ele>1382.4</ele>
        <time>2024-08-12T03:44:06Z</time>
      </trkpt>
      <trkpt lat="44.83597" lon="6.43588">
        <ele>1382.4</ele>
        <time>2024-08-12T03:44:07Z</time>
      </trkpt>
      <trkpt lat="44.83597" lon="6.43585">
        <ele>1382.6</ele>
        <time>2024-08-12T03:44:08Z</time>
      </trkpt>
      <trkpt lat="44.83597" lon="6.43585">
        <ele>1382.6</ele>
        <time>2024-08-12T03:44:09Z</time>
      </trkpt>
      <trkpt lat="44.83597" lon="6.43582">
        <ele>1382.8</ele>
        <time>2024-08-12T03:44:10Z</time>
      </trkpt>
      <trkpt lat="44.83597" lon="6.43582">
        <ele>1383.2</ele>
        <time>2024-08-12T03:44:11Z</time>
      </trkpt>
      <trkpt lat="44.83595" lon="6.43578">
        <ele>1383.4</ele>
        <time>2024-08-12T03:44:12Z</time>
      </trkpt>
      <trkpt lat="44.83595" lon="6.43578">
        <ele>1383.6</ele>
        <time>2024-08-12T03:44:13Z</time>
      </trkpt>
      <trkpt lat="44.83594" lon="6.43576">
        <ele>1383.6</ele>
        <time>2024-08-12T03:44:14Z</time>
      </trkpt>
      <trkpt lat="44.83594" lon="6.43576">
        <ele>1383.6</ele>
        <time>2024-08-12T03:44:15Z</time>
      </trkpt>
      <trkpt lat="44.83593" lon="6.43573">
        <ele>1383.8</ele>
        <time>2024-08-12T03:44:16Z</time>
      </trkpt>
      <trkpt lat="44.83593" lon="6.43573">
        <ele>1384</ele>
        <time>2024-08-12T03:44:17Z</time>
      </trkpt>
      <trkpt lat="44.83592" lon="6.4357">
        <ele>1384.2</ele>
        <time>2024-08-12T03:44:18Z</time>
      </trkpt>
      <trkpt lat="44.83592" lon="6.4357">
        <ele>1384.6</ele>
        <time>2024-08-12T03:44:19Z</time>
      </trkpt>
      <trkpt lat="44.83591" lon="6.43567">
        <ele>1384.6</ele>
        <time>2024-08-12T03:44:20Z</time>
      </trkpt>
      <trkpt lat="44.83591" lon="6.43567">
        <ele>1384.8</ele>
        <time>2024-08-12T03:44:21Z</time>
      </trkpt>
      <trkpt lat="44.8359" lon="6.43564">
        <ele>1384.8</ele>
        <time>2024-08-12T03:44:22Z</time>
      </trkpt>
      <trkpt lat="44.8359" lon="6.43564">
        <ele>1385</ele>
        <time>2024-08-12T03:44:23Z</time>
      </trkpt>
      <trkpt lat="44.8359" lon="6.4356">
        <ele>1385</ele>
        <time>2024-08-12T03:44:24Z</time>
      </trkpt>
      <trkpt lat="44.8359" lon="6.4356">
        <ele>1385</ele>
        <time>2024-08-12T03:44:25Z</time>
      </trkpt>
      <trkpt lat="44.8359" lon="6.43556">
        <ele>1385.4</ele>
        <time>2024-08-12T03:44:26Z</time>
      </trkpt>
      <trkpt lat="44.8359" lon="6.43556">
        <ele>1385.8</ele>
        <time>2024-08-12T03:44:27Z</time>
      </trkpt>
      <trkpt lat="44.83589" lon="6.43553">
        <ele>1386</ele>
        <time>2024-08-12T03:44:28Z</time>
      </trkpt>
      <trkpt lat="44.83589" lon="6.43553">
        <ele>1386</ele>
        <time>2024-08-12T03:44:29Z</time>
      </trkpt>
      <trkpt lat="44.83589" lon="6.4355">
        <ele>1386</ele>
        <time>2024-08-12T03:44:30Z</time>
      </trkpt>
      <trkpt lat="44.83589" lon="6.4355">
        <ele>1386.2</ele>
        <time>2024-08-12T03:44:31Z</time>
      </trkpt>
      <trkpt lat="44.83589" lon="6.43546">
        <ele>1386.4</ele>
        <time>2024-08-12T03:44:32Z</time>
      </trkpt>
      <trkpt lat="44.83589" lon="6.43546">
        <ele>1386.6</ele>
        <time>2024-08-12T03:44:33Z</time>
      </trkpt>
      <trkpt lat="44.83589" lon="6.43544">
        <ele>1386.6</ele>
        <time>2024-08-12T03:44:34Z</time>
      </trkpt>
      <trkpt lat="44.83589" lon="6.43544">
        <ele>1386.8</ele>
        <time>2024-08-12T03:44:35Z</time>
      </trkpt>
      <trkpt lat="44.83589" lon="6.43544">
        <ele>1386.8</ele>
        <time>2024-08-12T03:44:36Z</time>
      </trkpt>
      <trkpt lat="44.83589" lon="6.43544">
        <ele>1387.4</ele>
        <time>2024-08-12T03:44:37Z</time>
      </trkpt>
      <trkpt lat="44.83589" lon="6.43544">
        <ele>1387.8</ele>
        <time>2024-08-12T03:44:38Z</time>
      </trkpt>
      <trkpt lat="44.83589" lon="6.43544">
        <ele>1388</ele>
        <time>2024-08-12T03:44:39Z</time>
      </trkpt>
      <trkpt lat="44.83589" lon="6.43544">
        <ele>1388</ele>
        <time>2024-08-12T03:44:40Z</time>
      </trkpt>
      <trkpt lat="44.83589" lon="6.43541">
        <ele>1388</ele>
        <time>2024-08-12T03:44:41Z</time>
      </trkpt>
      <trkpt lat="44.83589" lon="6.43541">
        <ele>1387.8</ele>
        <time>2024-08-12T03:44:42Z</time>
      </trkpt>
      <trkpt lat="44.83589" lon="6.43537">
        <ele>1387.8</ele>
        <time>2024-08-12T03:44:43Z</time>
      </trkpt>
      <trkpt lat="44.83589" lon="6.43537">
        <ele>1387.8</ele>
        <time>2024-08-12T03:44:44Z</time>
      </trkpt>
      <trkpt lat="44.83589" lon="6.43533">
        <ele>1388.2</ele>
        <time>2024-08-12T03:44:45Z</time>
      </trkpt>
      <trkpt lat="44.83589" lon="6.43533">
        <ele>1388.6</ele>
        <time>2024-08-12T03:44:46Z</time>
      </trkpt>
      <trkpt lat="44.83587" lon="6.43531">
        <ele>1388.8</ele>
        <time>2024-08-12T03:44:47Z</time>
      </trkpt>
      <trkpt lat="44.83587" lon="6.43531">
        <ele>1389</ele>
        <time>2024-08-12T03:44:48Z</time>
      </trkpt>
      <trkpt lat="44.83586" lon="6.43528">
        <ele>1389</ele>
        <time>2024-08-12T03:44:49Z</time>
      </trkpt>
      <trkpt lat="44.83586" lon="6.43528">
        <ele>1389.2</ele>
        <time>2024-08-12T03:44:50Z</time>
      </trkpt>
      <trkpt lat="44.83585" lon="6.43526">
        <ele>1389.6</ele>
        <time>2024-08-12T03:44:51Z</time>
      </trkpt>
      <trkpt lat="44.83585" lon="6.43526">
        <ele>1389.6</ele>
        <time>2024-08-12T03:44:52Z</time>
      </trkpt>
      <trkpt lat="44.83583" lon="6.43523">
        <ele>1389.8</ele>
        <time>2024-08-12T03:44:53Z</time>
      </trkpt>
      <trkpt lat="44.83583" lon="6.43523">
        <ele>1390</ele>
        <time>2024-08-12T03:44:54Z</time>
      </trkpt>
      <trkpt lat="44.83583" lon="6.4352">
        <ele>1390.2</ele>
        <time>2024-08-12T03:44:55Z</time>
      </trkpt>
      <trkpt lat="44.83583" lon="6.4352">
        <ele>1390.2</ele>
        <time>2024-08-12T03:44:56Z</time>
      </trkpt>
      <trkpt lat="44.83582" lon="6.43516">
        <ele>1390.4</ele>
        <time>2024-08-12T03:44:57Z</time>
      </trkpt>
      <trkpt lat="44.83582" lon="6.43516">
        <ele>1390.8</ele>
        <time>2024-08-12T03:44:58Z</time>
      </trkpt>
      <trkpt lat="44.83583" lon="6.43513">
        <ele>1390.8</ele>
        <time>2024-08-12T03:44:59Z</time>
      </trkpt>
      <trkpt lat="44.83583" lon="6.43513">
        <ele>1391</ele>
        <time>2024-08-12T03:45:00Z</time>
      </trkpt>
      <trkpt lat="44.83584" lon="6.43509">
        <ele>1391</ele>
        <time>2024-08-12T03:45:01Z</time>
      </trkpt>
      <trkpt lat="44.83584" lon="6.43509">
        <ele>1391.2</ele>
        <time>2024-08-12T03:45:02Z</time>
      </trkpt>
      <trkpt lat="44.83585" lon="6.43506">
        <ele>1391.2</ele>
        <time>2024-08-12T03:45:03Z</time>
      </trkpt>
      <trkpt lat="44.83585" lon="6.43506">
        <ele>1391.2</ele>
        <time>2024-08-12T03:45:04Z</time>
      </trkpt>
      <trkpt lat="44.83585" lon="6.43502">
        <ele>1391.2</ele>
        <time>2024-08-12T03:45:05Z</time>
      </trkpt>
      <trkpt lat="44.83585" lon="6.43502">
        <ele>1391.2</ele>
        <time>2024-08-12T03:45:06Z</time>
      </trkpt>
      <trkpt lat="44.83587" lon="6.43499">
        <ele>1391.4</ele>
        <time>2024-08-12T03:45:07Z</time>
      </trkpt>
      <trkpt lat="44.83587" lon="6.43499">
        <ele>1391.6</ele>
        <time>2024-08-12T03:45:08Z</time>
      </trkpt>
      <trkpt lat="44.83588" lon="6.43497">
        <ele>1391.8</ele>
        <time>2024-08-12T03:45:09Z</time>
      </trkpt>
      <trkpt lat="44.83588" lon="6.43497">
        <ele>1391.8</ele>
        <time>2024-08-12T03:45:10Z</time>
      </trkpt>
      <trkpt lat="44.83589" lon="6.43493">
        <ele>1392</ele>
        <time>2024-08-12T03:45:11Z</time>
      </trkpt>
      <trkpt lat="44.83589" lon="6.43493">
        <ele>1392.2</ele>
        <time>2024-08-12T03:45:12Z</time>
      </trkpt>
      <trkpt lat="44.83589" lon="6.43491">
        <ele>1392.2</ele>
        <time>2024-08-12T03:45:13Z</time>
      </trkpt>
      <trkpt lat="44.83589" lon="6.43491">
        <ele>1392.6</ele>
        <time>2024-08-12T03:45:14Z</time>
      </trkpt>
      <trkpt lat="44.83591" lon="6.43488">
        <ele>1392.8</ele>
        <time>2024-08-12T03:45:15Z</time>
      </trkpt>
      <trkpt lat="44.83591" lon="6.43488">
        <ele>1393</ele>
        <time>2024-08-12T03:45:16Z</time>
      </trkpt>
      <trkpt lat="44.83593" lon="6.43485">
        <ele>1393</ele>
        <time>2024-08-12T03:45:17Z</time>
      </trkpt>
      <trkpt lat="44.83593" lon="6.43485">
        <ele>1393.2</ele>
        <time>2024-08-12T03:45:18Z</time>
      </trkpt>
      <trkpt lat="44.83594" lon="6.43483">
        <ele>1393.6</ele>
        <time>2024-08-12T03:45:19Z</time>
      </trkpt>
      <trkpt lat="44.83594" lon="6.43483">
        <ele>1393.8</ele>
        <time>2024-08-12T03:45:20Z</time>
      </trkpt>
      <trkpt lat="44.83593" lon="6.4348">
        <ele>1394</ele>
        <time>2024-08-12T03:45:21Z</time>
      </trkpt>
      <trkpt lat="44.83593" lon="6.4348">
        <ele>1394</ele>
        <time>2024-08-12T03:45:22Z</time>
      </trkpt>
      <trkpt lat="44.83593" lon="6.4348">
        <ele>1394</ele>
        <time>2024-08-12T03:45:23Z</time>
      </trkpt>
      <trkpt lat="44.83593" lon="6.43476">
        <ele>1394.2</ele>
        <time>2024-08-12T03:45:24Z</time>
      </trkpt>
      <trkpt lat="44.83593" lon="6.43476">
        <ele>1394.4</ele>
        <time>2024-08-12T03:45:25Z</time>
      </trkpt>
      <trkpt lat="44.83592" lon="6.43473">
        <ele>1394.8</ele>
        <time>2024-08-12T03:45:26Z</time>
      </trkpt>
      <trkpt lat="44.83592" lon="6.43473">
        <ele>1395</ele>
        <time>2024-08-12T03:45:27Z</time>
      </trkpt>
      <trkpt lat="44.83591" lon="6.43471">
        <ele>1395.2</ele>
        <time>2024-08-12T03:45:28Z</time>
      </trkpt>
      <trkpt lat="44.83591" lon="6.43471">
        <ele>1395.2</ele>
        <time>2024-08-12T03:45:29Z</time>
      </trkpt>
      <trkpt lat="44.8359" lon="6.43468">
        <ele>1395.2</ele>
        <time>2024-08-12T03:45:30Z</time>
      </trkpt>
      <trkpt lat="44.8359" lon="6.43468">
        <ele>1395.4</ele>
        <time>2024-08-12T03:45:31Z</time>
      </trkpt>
      <trkpt lat="44.83588" lon="6.43467">
        <ele>1395.6</ele>
        <time>2024-08-12T03:45:32Z</time>
      </trkpt>
      <trkpt lat="44.83588" lon="6.43467">
        <ele>1395.8</ele>
        <time>2024-08-12T03:45:33Z</time>
      </trkpt>
      <trkpt lat="44.83585" lon="6.43465">
        <ele>1395.8</ele>
        <time>2024-08-12T03:45:34Z</time>
      </trkpt>
      <trkpt lat="44.83585" lon="6.43465">
        <ele>1396</ele>
        <time>2024-08-12T03:45:35Z</time>
      </trkpt>
      <trkpt lat="44.83584" lon="6.43464">
        <ele>1396.2</ele>
        <time>2024-08-12T03:45:36Z</time>
      </trkpt>
      <trkpt lat="44.83584" lon="6.43464">
        <ele>1396.2</ele>
        <time>2024-08-12T03:45:37Z</time>
      </trkpt>
      <trkpt lat="44.83581" lon="6.43463">
        <ele>1396.4</ele>
        <time>2024-08-12T03:45:38Z</time>
      </trkpt>
      <trkpt lat="44.83581" lon="6.43463">
        <ele>1396.6</ele>
        <time>2024-08-12T03:45:39Z</time>
      </trkpt>
      <trkpt lat="44.83579" lon="6.43462">
        <ele>1396.8</ele>
        <time>2024-08-12T03:45:40Z</time>
      </trkpt>
      <trkpt lat="44.83579" lon="6.43462">
        <ele>1396.8</ele>
        <time>2024-08-12T03:45:41Z</time>
      </trkpt>
      <trkpt lat="44.83576" lon="6.4346">
        <ele>1397</ele>
        <time>2024-08-12T03:45:42Z</time>
      </trkpt>
      <trkpt lat="44.83576" lon="6.4346">
        <ele>1397.2</ele>
        <time>2024-08-12T03:45:43Z</time>
      </trkpt>
      <trkpt lat="44.83574" lon="6.43459">
        <ele>1397.2</ele>
        <time>2024-08-12T03:45:44Z</time>
      </trkpt>
      <trkpt lat="44.83574" lon="6.43459">
        <ele>1397.4</ele>
        <time>2024-08-12T03:45:45Z</time>
      </trkpt>
      <trkpt lat="44.83573" lon="6.43459">
        <ele>1397.8</ele>
        <time>2024-08-12T03:45:46Z</time>
      </trkpt>
      <trkpt lat="44.83573" lon="6.43459">
        <ele>1397.8</ele>
        <time>2024-08-12T03:45:47Z</time>
      </trkpt>
      <trkpt lat="44.8357" lon="6.43457">
        <ele>1398</ele>
        <time>2024-08-12T03:45:48Z</time>
      </trkpt>
      <trkpt lat="44.8357" lon="6.43457">
        <ele>1398</ele>
        <time>2024-08-12T03:45:49Z</time>
      </trkpt>
      <trkpt lat="44.83568" lon="6.43455">
        <ele>1398.4</ele>
        <time>2024-08-12T03:45:50Z</time>
      </trkpt>
      <trkpt lat="44.83568" lon="6.43455">
        <ele>1398.8</ele>
        <time>2024-08-12T03:45:51Z</time>
      </trkpt>
      <trkpt lat="44.83567" lon="6.43451">
        <ele>1398.8</ele>
        <time>2024-08-12T03:45:52Z</time>
      </trkpt>
      <trkpt lat="44.83567" lon="6.43451">
        <ele>1398.8</ele>
        <time>2024-08-12T03:45:53Z</time>
      </trkpt>
      <trkpt lat="44.83565" lon="6.43448">
        <ele>1399.2</ele>
        <time>2024-08-12T03:45:54Z</time>
      </trkpt>
      <trkpt lat="44.83565" lon="6.43448">
        <ele>1399.4</ele>
        <time>2024-08-12T03:45:55Z</time>
      </trkpt>
      <trkpt lat="44.83565" lon="6.43445">
        <ele>1399.4</ele>
        <time>2024-08-12T03:45:56Z</time>
      </trkpt>
      <trkpt lat="44.83565" lon="6.43445">
        <ele>1399.6</ele>
        <time>2024-08-12T03:45:57Z</time>
      </trkpt>
      <trkpt lat="44.83565" lon="6.43441">
        <ele>1399.8</ele>
        <time>2024-08-12T03:45:58Z</time>
      </trkpt>
      <trkpt lat="44.83565" lon="6.43441">
        <ele>1399.8</ele>
        <time>2024-08-12T03:45:59Z</time>
      </trkpt>
      <trkpt lat="44.83565" lon="6.43438">
        <ele>1400</ele>
        <time>2024-08-12T03:46:00Z</time>
      </trkpt>
      <trkpt lat="44.83565" lon="6.43438">
        <ele>1400</ele>
        <time>2024-08-12T03:46:01Z</time>
      </trkpt>
      <trkpt lat="44.83566" lon="6.43434">
        <ele>1400.2</ele>
        <time>2024-08-12T03:46:02Z</time>
      </trkpt>
      <trkpt lat="44.83566" lon="6.43434">
        <ele>1400.2</ele>
        <time>2024-08-12T03:46:03Z</time>
      </trkpt>
      <trkpt lat="44.83567" lon="6.43431">
        <ele>1400.2</ele>
        <time>2024-08-12T03:46:04Z</time>
      </trkpt>
      <trkpt lat="44.83567" lon="6.43431">
        <ele>1400.2</ele>
        <time>2024-08-12T03:46:05Z</time>
      </trkpt>
      <trkpt lat="44.83568" lon="6.43428">
        <ele>1400.4</ele>
        <time>2024-08-12T03:46:06Z</time>
      </trkpt>
      <trkpt lat="44.83568" lon="6.43428">
        <ele>1400.4</ele>
        <time>2024-08-12T03:46:07Z</time>
      </trkpt>
      <trkpt lat="44.83569" lon="6.43425">
        <ele>1400.6</ele>
        <time>2024-08-12T03:46:08Z</time>
      </trkpt>
      <trkpt lat="44.83569" lon="6.43425">
        <ele>1400.6</ele>
        <time>2024-08-12T03:46:09Z</time>
      </trkpt>
      <trkpt lat="44.83571" lon="6.43423">
        <ele>1401</ele>
        <time>2024-08-12T03:46:10Z</time>
      </trkpt>
      <trkpt lat="44.83571" lon="6.43423">
        <ele>1401.2</ele>
        <time>2024-08-12T03:46:11Z</time>
      </trkpt>
      <trkpt lat="44.83573" lon="6.43421">
        <ele>1401.2</ele>
        <time>2024-08-12T03:46:12Z</time>
      </trkpt>
      <trkpt lat="44.83573" lon="6.43421">
        <ele>1401.6</ele>
        <time>2024-08-12T03:46:13Z</time>
      </trkpt>
      <trkpt lat="44.83573" lon="6.43418">
        <ele>1401.8</ele>
        <time>2024-08-12T03:46:14Z</time>
      </trkpt>
      <trkpt lat="44.83573" lon="6.43418">
        <ele>1401.8</ele>
        <time>2024-08-12T03:46:15Z</time>
      </trkpt>
      <trkpt lat="44.83574" lon="6.43415">
        <ele>1401.8</ele>
        <time>2024-08-12T03:46:16Z</time>
      </trkpt>
      <trkpt lat="44.83574" lon="6.43415">
        <ele>1402.2</ele>
        <time>2024-08-12T03:46:17Z</time>
      </trkpt>
      <trkpt lat="44.83576" lon="6.43412">
        <ele>1402.4</ele>
        <time>2024-08-12T03:46:18Z</time>
      </trkpt>
      <trkpt lat="44.83576" lon="6.43412">
        <ele>1402.6</ele>
        <time>2024-08-12T03:46:19Z</time>
      </trkpt>
      <trkpt lat="44.83577" lon="6.4341">
        <ele>1402.8</ele>
        <time>2024-08-12T03:46:20Z</time>
      </trkpt>
      <trkpt lat="44.83577" lon="6.4341">
        <ele>1403</ele>
        <time>2024-08-12T03:46:21Z</time>
      </trkpt>
      <trkpt lat="44.83579" lon="6.43407">
        <ele>1403</ele>
        <time>2024-08-12T03:46:22Z</time>
      </trkpt>
      <trkpt lat="44.83579" lon="6.43407">
        <ele>1403.2</ele>
        <time>2024-08-12T03:46:23Z</time>
      </trkpt>
      <trkpt lat="44.83579" lon="6.43404">
        <ele>1403.4</ele>
        <time>2024-08-12T03:46:24Z</time>
      </trkpt>
      <trkpt lat="44.83579" lon="6.43404">
        <ele>1403.4</ele>
        <time>2024-08-12T03:46:25Z</time>
      </trkpt>
      <trkpt lat="44.8358" lon="6.434">
        <ele>1403.6</ele>
        <time>2024-08-12T03:46:26Z</time>
      </trkpt>
      <trkpt lat="44.8358" lon="6.434">
        <ele>1404</ele>
        <time>2024-08-12T03:46:27Z</time>
      </trkpt>
      <trkpt lat="44.8358" lon="6.43397">
        <ele>1404.2</ele>
        <time>2024-08-12T03:46:28Z</time>
      </trkpt>
      <trkpt lat="44.8358" lon="6.43397">
        <ele>1404.4</ele>
        <time>2024-08-12T03:46:29Z</time>
      </trkpt>
      <trkpt lat="44.83579" lon="6.43395">
        <ele>1404.4</ele>
        <time>2024-08-12T03:46:30Z</time>
      </trkpt>
      <trkpt lat="44.83579" lon="6.43395">
        <ele>1404.4</ele>
        <time>2024-08-12T03:46:31Z</time>
      </trkpt>
      <trkpt lat="44.83579" lon="6.43395">
        <ele>1404.6</ele>
        <time>2024-08-12T03:46:32Z</time>
      </trkpt>
      <trkpt lat="44.8358" lon="6.43392">
        <ele>1404.8</ele>
        <time>2024-08-12T03:46:33Z</time>
      </trkpt>
      <trkpt lat="44.8358" lon="6.43392">
        <ele>1405</ele>
        <time>2024-08-12T03:46:34Z</time>
      </trkpt>
      <trkpt lat="44.8358" lon="6.43392">
        <ele>1405.4</ele>
        <time>2024-08-12T03:46:35Z</time>
      </trkpt>
      <trkpt lat="44.8358" lon="6.43392">
        <ele>1405.4</ele>
        <time>2024-08-12T03:46:36Z</time>
      </trkpt>
      <trkpt lat="44.8358" lon="6.43392">
        <ele>1405.4</ele>
        <time>2024-08-12T03:46:37Z</time>
      </trkpt>
      <trkpt lat="44.8358" lon="6.43392">
        <ele>1405.4</ele>
        <time>2024-08-12T03:46:38Z</time>
      </trkpt>
      <trkpt lat="44.8358" lon="6.43392">
        <ele>1405.4</ele>
        <time>2024-08-12T03:46:39Z</time>
      </trkpt>
      <trkpt lat="44.8358" lon="6.43392">
        <ele>1405.6</ele>
        <time>2024-08-12T03:46:40Z</time>
      </trkpt>
      <trkpt lat="44.8358" lon="6.43392">
        <ele>1405.6</ele>
        <time>2024-08-12T03:46:41Z</time>
      </trkpt>
      <trkpt lat="44.8358" lon="6.43392">
        <ele>1405.6</ele>
        <time>2024-08-12T03:46:42Z</time>
      </trkpt>
      <trkpt lat="44.8358" lon="6.43392">
        <ele>1405.4</ele>
        <time>2024-08-12T03:46:43Z</time>
      </trkpt>
      <trkpt lat="44.8358" lon="6.43392">
        <ele>1405.4</ele>
        <time>2024-08-12T03:46:44Z</time>
      </trkpt>
      <trkpt lat="44.8358" lon="6.43392">
        <ele>1405.4</ele>
        <time>2024-08-12T03:46:45Z</time>
      </trkpt>
      <trkpt lat="44.83578" lon="6.43389">
        <ele>1405.6</ele>
        <time>2024-08-12T03:46:46Z</time>
      </trkpt>
      <trkpt lat="44.83578" lon="6.43389">
        <ele>1405.8</ele>
        <time>2024-08-12T03:46:47Z</time>
      </trkpt>
      <trkpt lat="44.83576" lon="6.43385">
        <ele>1405.8</ele>
        <time>2024-08-12T03:46:48Z</time>
      </trkpt>
      <trkpt lat="44.83576" lon="6.43385">
        <ele>1406</ele>
        <time>2024-08-12T03:46:49Z</time>
      </trkpt>
      <trkpt lat="44.83573" lon="6.43381">
        <ele>1406</ele>
        <time>2024-08-12T03:46:50Z</time>
      </trkpt>
      <trkpt lat="44.83573" lon="6.43381">
        <ele>1406</ele>
        <time>2024-08-12T03:46:51Z</time>
      </trkpt>
      <trkpt lat="44.83571" lon="6.43379">
        <ele>1406</ele>
        <time>2024-08-12T03:46:52Z</time>
      </trkpt>
      <trkpt lat="44.83571" lon="6.43379">
        <ele>1406.4</ele>
        <time>2024-08-12T03:46:53Z</time>
      </trkpt>
      <trkpt lat="44.83569" lon="6.43377">
        <ele>1406.4</ele>
        <time>2024-08-12T03:46:54Z</time>
      </trkpt>
      <trkpt lat="44.83569" lon="6.43377">
        <ele>1406.4</ele>
        <time>2024-08-12T03:46:55Z</time>
      </trkpt>
      <trkpt lat="44.83567" lon="6.43375">
        <ele>1406.6</ele>
        <time>2024-08-12T03:46:56Z</time>
      </trkpt>
      <trkpt lat="44.83567" lon="6.43375">
        <ele>1406.8</ele>
        <time>2024-08-12T03:46:57Z</time>
      </trkpt>
      <trkpt lat="44.83565" lon="6.43373">
        <ele>1407</ele>
        <time>2024-08-12T03:46:58Z</time>
      </trkpt>
      <trkpt lat="44.83565" lon="6.43373">
        <ele>1407.2</ele>
        <time>2024-08-12T03:46:59Z</time>
      </trkpt>
      <trkpt lat="44.83563" lon="6.43373">
        <ele>1407.2</ele>
        <time>2024-08-12T03:47:00Z</time>
      </trkpt>
      <trkpt lat="44.83563" lon="6.43373">
        <ele>1407.4</ele>
        <time>2024-08-12T03:47:01Z</time>
      </trkpt>
      <trkpt lat="44.8356" lon="6.43373">
        <ele>1408</ele>
        <time>2024-08-12T03:47:02Z</time>
      </trkpt>
      <trkpt lat="44.8356" lon="6.43373">
        <ele>1408</ele>
        <time>2024-08-12T03:47:03Z</time>
      </trkpt>
      <trkpt lat="44.83557" lon="6.43373">
        <ele>1408</ele>
        <time>2024-08-12T03:47:04Z</time>
      </trkpt>
      <trkpt lat="44.83557" lon="6.43373">
        <ele>1408.2</ele>
        <time>2024-08-12T03:47:05Z</time>
      </trkpt>
      <trkpt lat="44.83555" lon="6.43373">
        <ele>1408.2</ele>
        <time>2024-08-12T03:47:06Z</time>
      </trkpt>
      <trkpt lat="44.83555" lon="6.43373">
        <ele>1408.6</ele>
        <time>2024-08-12T03:47:07Z</time>
      </trkpt>
      <trkpt lat="44.83553" lon="6.43374">
        <ele>1409</ele>
        <time>2024-08-12T03:47:08Z</time>
      </trkpt>
      <trkpt lat="44.83553" lon="6.43374">
        <ele>1409</ele>
        <time>2024-08-12T03:47:09Z</time>
      </trkpt>
      <trkpt lat="44.8355" lon="6.43375">
        <ele>1409.2</ele>
        <time>2024-08-12T03:47:10Z</time>
      </trkpt>
      <trkpt lat="44.8355" lon="6.43375">
        <ele>1409.4</ele>
        <time>2024-08-12T03:47:11Z</time>
      </trkpt>
      <trkpt lat="44.83548" lon="6.43375">
        <ele>1409.4</ele>
        <time>2024-08-12T03:47:12Z</time>
      </trkpt>
      <trkpt lat="44.83548" lon="6.43375">
        <ele>1409.6</ele>
        <time>2024-08-12T03:47:13Z</time>
      </trkpt>
      <trkpt lat="44.83545" lon="6.43375">
        <ele>1409.8</ele>
        <time>2024-08-12T03:47:14Z</time>
      </trkpt>
      <trkpt lat="44.83545" lon="6.43375">
        <ele>1410</ele>
        <time>2024-08-12T03:47:15Z</time>
      </trkpt>
      <trkpt lat="44.83543" lon="6.43374">
        <ele>1410</ele>
        <time>2024-08-12T03:47:16Z</time>
      </trkpt>
      <trkpt lat="44.83543" lon="6.43374">
        <ele>1410</ele>
        <time>2024-08-12T03:47:17Z</time>
      </trkpt>
      <trkpt lat="44.83541" lon="6.43372">
        <ele>1410.6</ele>
        <time>2024-08-12T03:47:18Z</time>
      </trkpt>
      <trkpt lat="44.83541" lon="6.43372">
        <ele>1410.8</ele>
        <time>2024-08-12T03:47:19Z</time>
      </trkpt>
      <trkpt lat="44.83541" lon="6.43368">
        <ele>1411</ele>
        <time>2024-08-12T03:47:20Z</time>
      </trkpt>
      <trkpt lat="44.83541" lon="6.43368">
        <ele>1411.2</ele>
        <time>2024-08-12T03:47:21Z</time>
      </trkpt>
      <trkpt lat="44.83541" lon="6.43364">
        <ele>1411.2</ele>
        <time>2024-08-12T03:47:22Z</time>
      </trkpt>
      <trkpt lat="44.83541" lon="6.43364">
        <ele>1411.2</ele>
        <time>2024-08-12T03:47:23Z</time>
      </trkpt>
      <trkpt lat="44.83541" lon="6.4336">
        <ele>1411.2</ele>
        <time>2024-08-12T03:47:24Z</time>
      </trkpt>
      <trkpt lat="44.83541" lon="6.4336">
        <ele>1411.2</ele>
        <time>2024-08-12T03:47:25Z</time>
      </trkpt>
      <trkpt lat="44.83542" lon="6.43357">
        <ele>1411.6</ele>
        <time>2024-08-12T03:47:26Z</time>
      </trkpt>
      <trkpt lat="44.83542" lon="6.43357">
        <ele>1411.6</ele>
        <time>2024-08-12T03:47:27Z</time>
      </trkpt>
      <trkpt lat="44.83542" lon="6.43357">
        <ele>1411.6</ele>
        <time>2024-08-12T03:47:28Z</time>
      </trkpt>
      <trkpt lat="44.83545" lon="6.43355">
        <ele>1411.6</ele>
        <time>2024-08-12T03:47:29Z</time>
      </trkpt>
      <trkpt lat="44.83545" lon="6.43355">
        <ele>1411.8</ele>
        <time>2024-08-12T03:47:30Z</time>
      </trkpt>
      <trkpt lat="44.83546" lon="6.43351">
        <ele>1412</ele>
        <time>2024-08-12T03:47:31Z</time>
      </trkpt>
      <trkpt lat="44.83546" lon="6.43351">
        <ele>1412.2</ele>
        <time>2024-08-12T03:47:32Z</time>
      </trkpt>
      <trkpt lat="44.83549" lon="6.43349">
        <ele>1412.4</ele>
        <time>2024-08-12T03:47:33Z</time>
      </trkpt>
      <trkpt lat="44.83549" lon="6.43349">
        <ele>1412.6</ele>
        <time>2024-08-12T03:47:34Z</time>
      </trkpt>
      <trkpt lat="44.83551" lon="6.43347">
        <ele>1412.6</ele>
        <time>2024-08-12T03:47:35Z</time>
      </trkpt>
      <trkpt lat="44.83551" lon="6.43347">
        <ele>1412.8</ele>
        <time>2024-08-12T03:47:36Z</time>
      </trkpt>
      <trkpt lat="44.83552" lon="6.43345">
        <ele>1413</ele>
        <time>2024-08-12T03:47:37Z</time>
      </trkpt>
      <trkpt lat="44.83552" lon="6.43345">
        <ele>1413.2</ele>
        <time>2024-08-12T03:47:38Z</time>
      </trkpt>
      <trkpt lat="44.83554" lon="6.43342">
        <ele>1413.4</ele>
        <time>2024-08-12T03:47:39Z</time>
      </trkpt>
      <trkpt lat="44.83554" lon="6.43342">
        <ele>1413.6</ele>
        <time>2024-08-12T03:47:40Z</time>
      </trkpt>
      <trkpt lat="44.83557" lon="6.43341">
        <ele>1413.6</ele>
        <time>2024-08-12T03:47:41Z</time>
      </trkpt>
      <trkpt lat="44.83557" lon="6.43341">
        <ele>1413.8</ele>
        <time>2024-08-12T03:47:42Z</time>
      </trkpt>
      <trkpt lat="44.83559" lon="6.4334">
        <ele>1414</ele>
        <time>2024-08-12T03:47:43Z</time>
      </trkpt>
      <trkpt lat="44.83559" lon="6.4334">
        <ele>1414.2</ele>
        <time>2024-08-12T03:47:44Z</time>
      </trkpt>
      <trkpt lat="44.83561" lon="6.4334">
        <ele>1414.4</ele>
        <time>2024-08-12T03:47:45Z</time>
      </trkpt>
      <trkpt lat="44.83561" lon="6.4334">
        <ele>1414.4</ele>
        <time>2024-08-12T03:47:46Z</time>
      </trkpt>
      <trkpt lat="44.83563" lon="6.43341">
        <ele>1414.2</ele>
        <time>2024-08-12T03:47:47Z</time>
      </trkpt>
      <trkpt lat="44.83563" lon="6.43341">
        <ele>1414.2</ele>
        <time>2024-08-12T03:47:48Z</time>
      </trkpt>
      <trkpt lat="44.83566" lon="6.43342">
        <ele>1414.8</ele>
        <time>2024-08-12T03:47:49Z</time>
      </trkpt>
      <trkpt lat="44.83568" lon="6.43343">
        <ele>1415</ele>
        <time>2024-08-12T03:47:50Z</time>
      </trkpt>
      <trkpt lat="44.83571" lon="6.43344">
        <ele>1415</ele>
        <time>2024-08-12T03:47:51Z</time>
      </trkpt>
      <trkpt lat="44.83572" lon="6.43345">
        <ele>1415.2</ele>
        <time>2024-08-12T03:47:52Z</time>
      </trkpt>
      <trkpt lat="44.83573" lon="6.43347">
        <ele>1415.2</ele>
        <time>2024-08-12T03:47:53Z</time>
      </trkpt>
      <trkpt lat="44.83573" lon="6.43347">
        <ele>1415.4</ele>
        <time>2024-08-12T03:47:54Z</time>
      </trkpt>
      <trkpt lat="44.83576" lon="6.4335">
        <ele>1415.6</ele>
        <time>2024-08-12T03:47:55Z</time>
      </trkpt>
      <trkpt lat="44.83577" lon="6.43352">
        <ele>1415.8</ele>
        <time>2024-08-12T03:47:56Z</time>
      </trkpt>
      <trkpt lat="44.83577" lon="6.43352">
        <ele>1416</ele>
        <time>2024-08-12T03:47:57Z</time>
      </trkpt>
      <trkpt lat="44.83579" lon="6.43354">
        <ele>1416.2</ele>
        <time>2024-08-12T03:47:58Z</time>
      </trkpt>
      <trkpt lat="44.83579" lon="6.43354">
        <ele>1416.2</ele>
        <time>2024-08-12T03:47:59Z</time>
      </trkpt>
      <trkpt lat="44.83581" lon="6.43357">
        <ele>1416.2</ele>
        <time>2024-08-12T03:48:00Z</time>
      </trkpt>
      <trkpt lat="44.83581" lon="6.43357">
        <ele>1416.4</ele>
        <time>2024-08-12T03:48:01Z</time>
      </trkpt>
      <trkpt lat="44.83581" lon="6.4336">
        <ele>1416.8</ele>
        <time>2024-08-12T03:48:02Z</time>
      </trkpt>
      <trkpt lat="44.83581" lon="6.4336">
        <ele>1416.8</ele>
        <time>2024-08-12T03:48:03Z</time>
      </trkpt>
      <trkpt lat="44.83584" lon="6.43362">
        <ele>1416.8</ele>
        <time>2024-08-12T03:48:04Z</time>
      </trkpt>
      <trkpt lat="44.83584" lon="6.43362">
        <ele>1416.8</ele>
        <time>2024-08-12T03:48:05Z</time>
      </trkpt>
      <trkpt lat="44.83586" lon="6.43362">
        <ele>1417</ele>
        <time>2024-08-12T03:48:06Z</time>
      </trkpt>
      <trkpt lat="44.83586" lon="6.43362">
        <ele>1417.4</ele>
        <time>2024-08-12T03:48:07Z</time>
      </trkpt>
      <trkpt lat="44.83586" lon="6.43362">
        <ele>1417.4</ele>
        <time>2024-08-12T03:48:08Z</time>
      </trkpt>
      <trkpt lat="44.83589" lon="6.43361">
        <ele>1417.6</ele>
        <time>2024-08-12T03:48:09Z</time>
      </trkpt>
      <trkpt lat="44.83589" lon="6.43361">
        <ele>1417.8</ele>
        <time>2024-08-12T03:48:10Z</time>
      </trkpt>
      <trkpt lat="44.83591" lon="6.43359">
        <ele>1418</ele>
        <time>2024-08-12T03:48:11Z</time>
      </trkpt>
      <trkpt lat="44.83591" lon="6.43359">
        <ele>1418.4</ele>
        <time>2024-08-12T03:48:12Z</time>
      </trkpt>
      <trkpt lat="44.83592" lon="6.43356">
        <ele>1418.4</ele>
        <time>2024-08-12T03:48:13Z</time>
      </trkpt>
      <trkpt lat="44.83592" lon="6.43356">
        <ele>1418.4</ele>
        <time>2024-08-12T03:48:14Z</time>
      </trkpt>
      <trkpt lat="44.8359" lon="6.43353">
        <ele>1418.4</ele>
        <time>2024-08-12T03:48:15Z</time>
      </trkpt>
      <trkpt lat="44.8359" lon="6.43353">
        <ele>1418.6</ele>
        <time>2024-08-12T03:48:16Z</time>
      </trkpt>
      <trkpt lat="44.83589" lon="6.43349">
        <ele>1418.6</ele>
        <time>2024-08-12T03:48:17Z</time>
      </trkpt>
      <trkpt lat="44.83589" lon="6.43349">
        <ele>1419</ele>
        <time>2024-08-12T03:48:18Z</time>
      </trkpt>
      <trkpt lat="44.83588" lon="6.43346">
        <ele>1419</ele>
        <time>2024-08-12T03:48:19Z</time>
      </trkpt>
      <trkpt lat="44.83588" lon="6.43346">
        <ele>1419.2</ele>
        <time>2024-08-12T03:48:20Z</time>
      </trkpt>
      <trkpt lat="44.83585" lon="6.43344">
        <ele>1419.4</ele>
        <time>2024-08-12T03:48:21Z</time>
      </trkpt>
      <trkpt lat="44.83585" lon="6.43344">
        <ele>1419.6</ele>
        <time>2024-08-12T03:48:22Z</time>
      </trkpt>
      <trkpt lat="44.83583" lon="6.43342">
        <ele>1419.6</ele>
        <time>2024-08-12T03:48:23Z</time>
      </trkpt>
      <trkpt lat="44.83583" lon="6.43342">
        <ele>1419.6</ele>
        <time>2024-08-12T03:48:24Z</time>
      </trkpt>
      <trkpt lat="44.83582" lon="6.43339">
        <ele>1419.8</ele>
        <time>2024-08-12T03:48:25Z</time>
      </trkpt>
      <trkpt lat="44.83582" lon="6.43339">
        <ele>1420</ele>
        <time>2024-08-12T03:48:26Z</time>
      </trkpt>
      <trkpt lat="44.83581" lon="6.43336">
        <ele>1420</ele>
        <time>2024-08-12T03:48:27Z</time>
      </trkpt>
      <trkpt lat="44.83581" lon="6.43336">
        <ele>1420</ele>
        <time>2024-08-12T03:48:28Z</time>
      </trkpt>
      <trkpt lat="44.8358" lon="6.43333">
        <ele>1420.2</ele>
        <time>2024-08-12T03:48:29Z</time>
      </trkpt>
      <trkpt lat="44.8358" lon="6.43333">
        <ele>1420.4</ele>
        <time>2024-08-12T03:48:30Z</time>
      </trkpt>
      <trkpt lat="44.8358" lon="6.43331">
        <ele>1420.6</ele>
        <time>2024-08-12T03:48:31Z</time>
      </trkpt>
      <trkpt lat="44.8358" lon="6.43331">
        <ele>1420.6</ele>
        <time>2024-08-12T03:48:32Z</time>
      </trkpt>
      <trkpt lat="44.83579" lon="6.43328">
        <ele>1420.6</ele>
        <time>2024-08-12T03:48:33Z</time>
      </trkpt>
      <trkpt lat="44.83579" lon="6.43328">
        <ele>1421</ele>
        <time>2024-08-12T03:48:34Z</time>
      </trkpt>
      <trkpt lat="44.83578" lon="6.43324">
        <ele>1421</ele>
        <time>2024-08-12T03:48:35Z</time>
      </trkpt>
      <trkpt lat="44.83578" lon="6.43324">
        <ele>1421.2</ele>
        <time>2024-08-12T03:48:36Z</time>
      </trkpt>
      <trkpt lat="44.83577" lon="6.4332">
        <ele>1421.6</ele>
        <time>2024-08-12T03:48:37Z</time>
      </trkpt>
      <trkpt lat="44.83577" lon="6.4332">
        <ele>1421.6</ele>
        <time>2024-08-12T03:48:38Z</time>
      </trkpt>
      <trkpt lat="44.83577" lon="6.43317">
        <ele>1421.6</ele>
        <time>2024-08-12T03:48:39Z</time>
      </trkpt>
      <trkpt lat="44.83577" lon="6.43317">
        <ele>1422</ele>
        <time>2024-08-12T03:48:40Z</time>
      </trkpt>
      <trkpt lat="44.83576" lon="6.43313">
        <ele>1422.2</ele>
        <time>2024-08-12T03:48:41Z</time>
      </trkpt>
      <trkpt lat="44.83576" lon="6.43313">
        <ele>1422.4</ele>
        <time>2024-08-12T03:48:42Z</time>
      </trkpt>
      <trkpt lat="44.83575" lon="6.43309">
        <ele>1422.6</ele>
        <time>2024-08-12T03:48:43Z</time>
      </trkpt>
      <trkpt lat="44.83575" lon="6.43309">
        <ele>1422.8</ele>
        <time>2024-08-12T03:48:44Z</time>
      </trkpt>
      <trkpt lat="44.83574" lon="6.43306">
        <ele>1423</ele>
        <time>2024-08-12T03:48:45Z</time>
      </trkpt>
      <trkpt lat="44.83574" lon="6.43306">
        <ele>1423.2</ele>
        <time>2024-08-12T03:48:46Z</time>
      </trkpt>
      <trkpt lat="44.83574" lon="6.43301">
        <ele>1423.2</ele>
        <time>2024-08-12T03:48:47Z</time>
      </trkpt>
      <trkpt lat="44.83574" lon="6.43301">
        <ele>1423.4</ele>
        <time>2024-08-12T03:48:48Z</time>
      </trkpt>
      <trkpt lat="44.83574" lon="6.43297">
        <ele>1423.4</ele>
        <time>2024-08-12T03:48:49Z</time>
      </trkpt>
      <trkpt lat="44.83574" lon="6.43297">
        <ele>1423.8</ele>
        <time>2024-08-12T03:48:50Z</time>
      </trkpt>
      <trkpt lat="44.83575" lon="6.43294">
        <ele>1423.8</ele>
        <time>2024-08-12T03:48:51Z</time>
      </trkpt>
      <trkpt lat="44.83575" lon="6.43294">
        <ele>1424</ele>
        <time>2024-08-12T03:48:52Z</time>
      </trkpt>
      <trkpt lat="44.83574" lon="6.4329">
        <ele>1424</ele>
        <time>2024-08-12T03:48:53Z</time>
      </trkpt>
      <trkpt lat="44.83574" lon="6.4329">
        <ele>1424.2</ele>
        <time>2024-08-12T03:48:54Z</time>
      </trkpt>
      <trkpt lat="44.83573" lon="6.43287">
        <ele>1424.2</ele>
        <time>2024-08-12T03:48:55Z</time>
      </trkpt>
      <trkpt lat="44.83572" lon="6.43286">
        <ele>1424.6</ele>
        <time>2024-08-12T03:48:56Z</time>
      </trkpt>
      <trkpt lat="44.83572" lon="6.43286">
        <ele>1424.6</ele>
        <time>2024-08-12T03:48:57Z</time>
      </trkpt>
      <trkpt lat="44.83569" lon="6.43284">
        <ele>1424.6</ele>
        <time>2024-08-12T03:48:58Z</time>
      </trkpt>
      <trkpt lat="44.83569" lon="6.43284">
        <ele>1425</ele>
        <time>2024-08-12T03:48:59Z</time>
      </trkpt>
      <trkpt lat="44.83567" lon="6.43283">
        <ele>1425.2</ele>
        <time>2024-08-12T03:49:00Z</time>
      </trkpt>
      <trkpt lat="44.83567" lon="6.43283">
        <ele>1425.2</ele>
        <time>2024-08-12T03:49:01Z</time>
      </trkpt>
      <trkpt lat="44.83565" lon="6.43282">
        <ele>1425.6</ele>
        <time>2024-08-12T03:49:02Z</time>
      </trkpt>
      <trkpt lat="44.83565" lon="6.43282">
        <ele>1425.6</ele>
        <time>2024-08-12T03:49:03Z</time>
      </trkpt>
      <trkpt lat="44.83563" lon="6.43281">
        <ele>1425.8</ele>
        <time>2024-08-12T03:49:04Z</time>
      </trkpt>
      <trkpt lat="44.83563" lon="6.43281">
        <ele>1425.8</ele>
        <time>2024-08-12T03:49:05Z</time>
      </trkpt>
      <trkpt lat="44.83561" lon="6.43282">
        <ele>1425.8</ele>
        <time>2024-08-12T03:49:06Z</time>
      </trkpt>
      <trkpt lat="44.83561" lon="6.43282">
        <ele>1426</ele>
        <time>2024-08-12T03:49:07Z</time>
      </trkpt>
      <trkpt lat="44.83559" lon="6.4328">
        <ele>1426.2</ele>
        <time>2024-08-12T03:49:08Z</time>
      </trkpt>
      <trkpt lat="44.83559" lon="6.4328">
        <ele>1426.6</ele>
        <time>2024-08-12T03:49:09Z</time>
      </trkpt>
      <trkpt lat="44.83557" lon="6.43281">
        <ele>1427</ele>
        <time>2024-08-12T03:49:10Z</time>
      </trkpt>
      <trkpt lat="44.83557" lon="6.43281">
        <ele>1427</ele>
        <time>2024-08-12T03:49:11Z</time>
      </trkpt>
      <trkpt lat="44.83554" lon="6.43281">
        <ele>1427</ele>
        <time>2024-08-12T03:49:12Z</time>
      </trkpt>
      <trkpt lat="44.83554" lon="6.43281">
        <ele>1427</ele>
        <time>2024-08-12T03:49:13Z</time>
      </trkpt>
      <trkpt lat="44.83551" lon="6.43282">
        <ele>1427.2</ele>
        <time>2024-08-12T03:49:14Z</time>
      </trkpt>
      <trkpt lat="44.83551" lon="6.43282">
        <ele>1427.4</ele>
        <time>2024-08-12T03:49:15Z</time>
      </trkpt>
      <trkpt lat="44.83549" lon="6.43283">
        <ele>1427.6</ele>
        <time>2024-08-12T03:49:16Z</time>
      </trkpt>
      <trkpt lat="44.83549" lon="6.43283">
        <ele>1427.6</ele>
        <time>2024-08-12T03:49:17Z</time>
      </trkpt>
      <trkpt lat="44.83547" lon="6.43281">
        <ele>1427.8</ele>
        <time>2024-08-12T03:49:18Z</time>
      </trkpt>
      <trkpt lat="44.83547" lon="6.43281">
        <ele>1428.2</ele>
        <time>2024-08-12T03:49:19Z</time>
      </trkpt>
      <trkpt lat="44.83545" lon="6.43279">
        <ele>1428.4</ele>
        <time>2024-08-12T03:49:20Z</time>
      </trkpt>
      <trkpt lat="44.83545" lon="6.43279">
        <ele>1428.4</ele>
        <time>2024-08-12T03:49:21Z</time>
      </trkpt>
      <trkpt lat="44.83544" lon="6.43276">
        <ele>1428.4</ele>
        <time>2024-08-12T03:49:22Z</time>
      </trkpt>
      <trkpt lat="44.83544" lon="6.43276">
        <ele>1428.6</ele>
        <time>2024-08-12T03:49:23Z</time>
      </trkpt>
      <trkpt lat="44.83542" lon="6.43274">
        <ele>1428.8</ele>
        <time>2024-08-12T03:49:24Z</time>
      </trkpt>
      <trkpt lat="44.83542" lon="6.43274">
        <ele>1429</ele>
        <time>2024-08-12T03:49:25Z</time>
      </trkpt>
      <trkpt lat="44.83541" lon="6.43272">
        <ele>1429.2</ele>
        <time>2024-08-12T03:49:26Z</time>
      </trkpt>
      <trkpt lat="44.83541" lon="6.43272">
        <ele>1429.2</ele>
        <time>2024-08-12T03:49:27Z</time>
      </trkpt>
      <trkpt lat="44.83539" lon="6.43269">
        <ele>1429.4</ele>
        <time>2024-08-12T03:49:28Z</time>
      </trkpt>
      <trkpt lat="44.83539" lon="6.43269">
        <ele>1429.8</ele>
        <time>2024-08-12T03:49:29Z</time>
      </trkpt>
      <trkpt lat="44.83539" lon="6.43265">
        <ele>1429.8</ele>
        <time>2024-08-12T03:49:30Z</time>
      </trkpt>
      <trkpt lat="44.83539" lon="6.43265">
        <ele>1430.2</ele>
        <time>2024-08-12T03:49:31Z</time>
      </trkpt>
      <trkpt lat="44.83539" lon="6.43261">
        <ele>1430.2</ele>
        <time>2024-08-12T03:49:32Z</time>
      </trkpt>
      <trkpt lat="44.83539" lon="6.43261">
        <ele>1430.4</ele>
        <time>2024-08-12T03:49:33Z</time>
      </trkpt>
      <trkpt lat="44.83539" lon="6.43257">
        <ele>1430.4</ele>
        <time>2024-08-12T03:49:34Z</time>
      </trkpt>
      <trkpt lat="44.83539" lon="6.43257">
        <ele>1430.6</ele>
        <time>2024-08-12T03:49:35Z</time>
      </trkpt>
      <trkpt lat="44.83541" lon="6.43254">
        <ele>1431</ele>
        <time>2024-08-12T03:49:36Z</time>
      </trkpt>
      <trkpt lat="44.83541" lon="6.43254">
        <ele>1431</ele>
        <time>2024-08-12T03:49:37Z</time>
      </trkpt>
      <trkpt lat="44.83542" lon="6.43251">
        <ele>1431.2</ele>
        <time>2024-08-12T03:49:38Z</time>
      </trkpt>
      <trkpt lat="44.83542" lon="6.43251">
        <ele>1431.2</ele>
        <time>2024-08-12T03:49:39Z</time>
      </trkpt>
      <trkpt lat="44.83542" lon="6.43251">
        <ele>1431.2</ele>
        <time>2024-08-12T03:49:40Z</time>
      </trkpt>
      <trkpt lat="44.83545" lon="6.43249">
        <ele>1431.2</ele>
        <time>2024-08-12T03:49:41Z</time>
      </trkpt>
      <trkpt lat="44.83545" lon="6.43249">
        <ele>1431.8</ele>
        <time>2024-08-12T03:49:42Z</time>
      </trkpt>
      <trkpt lat="44.83547" lon="6.43247">
        <ele>1432</ele>
        <time>2024-08-12T03:49:43Z</time>
      </trkpt>
      <trkpt lat="44.83547" lon="6.43247">
        <ele>1432.2</ele>
        <time>2024-08-12T03:49:44Z</time>
      </trkpt>
      <trkpt lat="44.83547" lon="6.43247">
        <ele>1432.2</ele>
        <time>2024-08-12T03:49:45Z</time>
      </trkpt>
      <trkpt lat="44.83549" lon="6.43245">
        <ele>1432.4</ele>
        <time>2024-08-12T03:49:46Z</time>
      </trkpt>
      <trkpt lat="44.83549" lon="6.43245">
        <ele>1432.4</ele>
        <time>2024-08-12T03:49:47Z</time>
      </trkpt>
      <trkpt lat="44.83552" lon="6.43244">
        <ele>1432.6</ele>
        <time>2024-08-12T03:49:48Z</time>
      </trkpt>
      <trkpt lat="44.83552" lon="6.43244">
        <ele>1432.8</ele>
        <time>2024-08-12T03:49:49Z</time>
      </trkpt>
      <trkpt lat="44.83554" lon="6.43242">
        <ele>1433.2</ele>
        <time>2024-08-12T03:49:50Z</time>
      </trkpt>
      <trkpt lat="44.83554" lon="6.43242">
        <ele>1433.2</ele>
        <time>2024-08-12T03:49:51Z</time>
      </trkpt>
      <trkpt lat="44.83554" lon="6.43242">
        <ele>1433.4</ele>
        <time>2024-08-12T03:49:52Z</time>
      </trkpt>
      <trkpt lat="44.83554" lon="6.43242">
        <ele>1433.4</ele>
        <time>2024-08-12T03:49:53Z</time>
      </trkpt>
      <trkpt lat="44.83556" lon="6.43241">
        <ele>1433.4</ele>
        <time>2024-08-12T03:49:54Z</time>
      </trkpt>
      <trkpt lat="44.83556" lon="6.43241">
        <ele>1433.6</ele>
        <time>2024-08-12T03:49:55Z</time>
      </trkpt>
      <trkpt lat="44.83558" lon="6.4324">
        <ele>1433.6</ele>
        <time>2024-08-12T03:49:56Z</time>
      </trkpt>
      <trkpt lat="44.83558" lon="6.4324">
        <ele>1433.6</ele>
        <time>2024-08-12T03:49:57Z</time>
      </trkpt>
      <trkpt lat="44.83561" lon="6.43239">
        <ele>1433.8</ele>
        <time>2024-08-12T03:49:58Z</time>
      </trkpt>
      <trkpt lat="44.83561" lon="6.43239">
        <ele>1433.8</ele>
        <time>2024-08-12T03:49:59Z</time>
      </trkpt>
      <trkpt lat="44.83563" lon="6.43239">
        <ele>1433.8</ele>
        <time>2024-08-12T03:50:00Z</time>
      </trkpt>
      <trkpt lat="44.83563" lon="6.43239">
        <ele>1434</ele>
        <time>2024-08-12T03:50:01Z</time>
      </trkpt>
      <trkpt lat="44.83566" lon="6.43238">
        <ele>1434.2</ele>
        <time>2024-08-12T03:50:02Z</time>
      </trkpt>
      <trkpt lat="44.83566" lon="6.43238">
        <ele>1434.2</ele>
        <time>2024-08-12T03:50:03Z</time>
      </trkpt>
      <trkpt lat="44.83571" lon="6.43239">
        <ele>1434.4</ele>
        <time>2024-08-12T03:50:04Z</time>
      </trkpt>
      <trkpt lat="44.83573" lon="6.4324">
        <ele>1434.8</ele>
        <time>2024-08-12T03:50:05Z</time>
      </trkpt>
      <trkpt lat="44.83573" lon="6.4324">
        <ele>1434.8</ele>
        <time>2024-08-12T03:50:06Z</time>
      </trkpt>
      <trkpt lat="44.83576" lon="6.4324">
        <ele>1434.8</ele>
        <time>2024-08-12T03:50:07Z</time>
      </trkpt>
      <trkpt lat="44.83577" lon="6.43241">
        <ele>1434.8</ele>
        <time>2024-08-12T03:50:08Z</time>
      </trkpt>
      <trkpt lat="44.83577" lon="6.43241">
        <ele>1435.2</ele>
        <time>2024-08-12T03:50:09Z</time>
      </trkpt>
      <trkpt lat="44.8358" lon="6.43244">
        <ele>1435.2</ele>
        <time>2024-08-12T03:50:10Z</time>
      </trkpt>
      <trkpt lat="44.8358" lon="6.43244">
        <ele>1435.4</ele>
        <time>2024-08-12T03:50:11Z</time>
      </trkpt>
      <trkpt lat="44.83583" lon="6.43246">
        <ele>1435.4</ele>
        <time>2024-08-12T03:50:12Z</time>
      </trkpt>
      <trkpt lat="44.83583" lon="6.43246">
        <ele>1435.8</ele>
        <time>2024-08-12T03:50:13Z</time>
      </trkpt>
      <trkpt lat="44.83585" lon="6.43247">
        <ele>1435.8</ele>
        <time>2024-08-12T03:50:14Z</time>
      </trkpt>
      <trkpt lat="44.83586" lon="6.43248">
        <ele>1435.8</ele>
        <time>2024-08-12T03:50:15Z</time>
      </trkpt>
      <trkpt lat="44.83586" lon="6.43248">
        <ele>1435.8</ele>
        <time>2024-08-12T03:50:16Z</time>
      </trkpt>
      <trkpt lat="44.83588" lon="6.43251">
        <ele>1436.2</ele>
        <time>2024-08-12T03:50:17Z</time>
      </trkpt>
      <trkpt lat="44.83588" lon="6.43251">
        <ele>1436.4</ele>
        <time>2024-08-12T03:50:18Z</time>
      </trkpt>
      <trkpt lat="44.8359" lon="6.43254">
        <ele>1436.6</ele>
        <time>2024-08-12T03:50:19Z</time>
      </trkpt>
      <trkpt lat="44.8359" lon="6.43254">
        <ele>1436.6</ele>
        <time>2024-08-12T03:50:20Z</time>
      </trkpt>
      <trkpt lat="44.83592" lon="6.43256">
        <ele>1436.6</ele>
        <time>2024-08-12T03:50:21Z</time>
      </trkpt>
      <trkpt lat="44.83592" lon="6.43256">
        <ele>1436.8</ele>
        <time>2024-08-12T03:50:22Z</time>
      </trkpt>
      <trkpt lat="44.83593" lon="6.43258">
        <ele>1436.8</ele>
        <time>2024-08-12T03:50:23Z</time>
      </trkpt>
      <trkpt lat="44.83593" lon="6.43258">
        <ele>1437</ele>
        <time>2024-08-12T03:50:24Z</time>
      </trkpt>
      <trkpt lat="44.83596" lon="6.4326">
        <ele>1437.4</ele>
        <time>2024-08-12T03:50:25Z</time>
      </trkpt>
      <trkpt lat="44.83596" lon="6.4326">
        <ele>1437.6</ele>
        <time>2024-08-12T03:50:26Z</time>
      </trkpt>
      <trkpt lat="44.83598" lon="6.43259">
        <ele>1437.6</ele>
        <time>2024-08-12T03:50:27Z</time>
      </trkpt>
      <trkpt lat="44.83598" lon="6.43259">
        <ele>1437.8</ele>
        <time>2024-08-12T03:50:28Z</time>
      </trkpt>
      <trkpt lat="44.83599" lon="6.43257">
        <ele>1438</ele>
        <time>2024-08-12T03:50:29Z</time>
      </trkpt>
      <trkpt lat="44.83599" lon="6.43257">
        <ele>1438.2</ele>
        <time>2024-08-12T03:50:30Z</time>
      </trkpt>
      <trkpt lat="44.83599" lon="6.43254">
        <ele>1438.4</ele>
        <time>2024-08-12T03:50:31Z</time>
      </trkpt>
      <trkpt lat="44.83599" lon="6.43254">
        <ele>1438.6</ele>
        <time>2024-08-12T03:50:32Z</time>
      </trkpt>
      <trkpt lat="44.83599" lon="6.43251">
        <ele>1438.8</ele>
        <time>2024-08-12T03:50:33Z</time>
      </trkpt>
      <trkpt lat="44.83599" lon="6.43251">
        <ele>1439</ele>
        <time>2024-08-12T03:50:34Z</time>
      </trkpt>
      <trkpt lat="44.83598" lon="6.43247">
        <ele>1439</ele>
        <time>2024-08-12T03:50:35Z</time>
      </trkpt>
      <trkpt lat="44.83598" lon="6.43247">
        <ele>1439.2</ele>
        <time>2024-08-12T03:50:36Z</time>
      </trkpt>
      <trkpt lat="44.83597" lon="6.43244">
        <ele>1439.2</ele>
        <time>2024-08-12T03:50:37Z</time>
      </trkpt>
      <trkpt lat="44.83597" lon="6.43244">
        <ele>1439.6</ele>
        <time>2024-08-12T03:50:38Z</time>
      </trkpt>
      <trkpt lat="44.83596" lon="6.43241">
        <ele>1439.6</ele>
        <time>2024-08-12T03:50:39Z</time>
      </trkpt>
      <trkpt lat="44.83596" lon="6.43241">
        <ele>1439.6</ele>
        <time>2024-08-12T03:50:40Z</time>
      </trkpt>
      <trkpt lat="44.83595" lon="6.43238">
        <ele>1440.2</ele>
        <time>2024-08-12T03:50:41Z</time>
      </trkpt>
      <trkpt lat="44.83595" lon="6.43238">
        <ele>1440.2</ele>
        <time>2024-08-12T03:50:42Z</time>
      </trkpt>
      <trkpt lat="44.83594" lon="6.43235">
        <ele>1440.6</ele>
        <time>2024-08-12T03:50:43Z</time>
      </trkpt>
      <trkpt lat="44.83594" lon="6.43235">
        <ele>1440.6</ele>
        <time>2024-08-12T03:50:44Z</time>
      </trkpt>
      <trkpt lat="44.83593" lon="6.43232">
        <ele>1440.6</ele>
        <time>2024-08-12T03:50:45Z</time>
      </trkpt>
      <trkpt lat="44.83593" lon="6.43232">
        <ele>1440.6</ele>
        <time>2024-08-12T03:50:46Z</time>
      </trkpt>
      <trkpt lat="44.83593" lon="6.43228">
        <ele>1440.8</ele>
        <time>2024-08-12T03:50:47Z</time>
      </trkpt>
      <trkpt lat="44.83593" lon="6.43228">
        <ele>1441.2</ele>
        <time>2024-08-12T03:50:48Z</time>
      </trkpt>
      <trkpt lat="44.83591" lon="6.43225">
        <ele>1441.2</ele>
        <time>2024-08-12T03:50:49Z</time>
      </trkpt>
      <trkpt lat="44.83591" lon="6.43225">
        <ele>1441.4</ele>
        <time>2024-08-12T03:50:50Z</time>
      </trkpt>
      <trkpt lat="44.83591" lon="6.43222">
        <ele>1441.4</ele>
        <time>2024-08-12T03:50:51Z</time>
      </trkpt>
      <trkpt lat="44.83591" lon="6.43222">
        <ele>1441.8</ele>
        <time>2024-08-12T03:50:52Z</time>
      </trkpt>
      <trkpt lat="44.8359" lon="6.43218">
        <ele>1441.8</ele>
        <time>2024-08-12T03:50:53Z</time>
      </trkpt>
      <trkpt lat="44.8359" lon="6.43218">
        <ele>1442</ele>
        <time>2024-08-12T03:50:54Z</time>
      </trkpt>
      <trkpt lat="44.83589" lon="6.43215">
        <ele>1442.2</ele>
        <time>2024-08-12T03:50:55Z</time>
      </trkpt>
      <trkpt lat="44.83589" lon="6.43215">
        <ele>1442.2</ele>
        <time>2024-08-12T03:50:56Z</time>
      </trkpt>
      <trkpt lat="44.83588" lon="6.43211">
        <ele>1442.2</ele>
        <time>2024-08-12T03:50:57Z</time>
      </trkpt>
      <trkpt lat="44.83588" lon="6.43211">
        <ele>1442.4</ele>
        <time>2024-08-12T03:50:58Z</time>
      </trkpt>
      <trkpt lat="44.83587" lon="6.43208">
        <ele>1442.6</ele>
        <time>2024-08-12T03:50:59Z</time>
      </trkpt>
      <trkpt lat="44.83587" lon="6.43208">
        <ele>1442.8</ele>
        <time>2024-08-12T03:51:00Z</time>
      </trkpt>
      <trkpt lat="44.83585" lon="6.43205">
        <ele>1443</ele>
        <time>2024-08-12T03:51:01Z</time>
      </trkpt>
      <trkpt lat="44.83585" lon="6.43205">
        <ele>1443</ele>
        <time>2024-08-12T03:51:02Z</time>
      </trkpt>
      <trkpt lat="44.83584" lon="6.43202">
        <ele>1443.2</ele>
        <time>2024-08-12T03:51:03Z</time>
      </trkpt>
      <trkpt lat="44.83584" lon="6.43202">
        <ele>1443.2</ele>
        <time>2024-08-12T03:51:04Z</time>
      </trkpt>
      <trkpt lat="44.83583" lon="6.43198">
        <ele>1443.4</ele>
        <time>2024-08-12T03:51:05Z</time>
      </trkpt>
      <trkpt lat="44.83583" lon="6.43198">
        <ele>1443.4</ele>
        <time>2024-08-12T03:51:06Z</time>
      </trkpt>
      <trkpt lat="44.83582" lon="6.43195">
        <ele>1443.8</ele>
        <time>2024-08-12T03:51:07Z</time>
      </trkpt>
      <trkpt lat="44.83582" lon="6.43195">
        <ele>1443.8</ele>
        <time>2024-08-12T03:51:08Z</time>
      </trkpt>
      <trkpt lat="44.83581" lon="6.43192">
        <ele>1444</ele>
        <time>2024-08-12T03:51:09Z</time>
      </trkpt>
      <trkpt lat="44.83581" lon="6.43192">
        <ele>1444.2</ele>
        <time>2024-08-12T03:51:10Z</time>
      </trkpt>
      <trkpt lat="44.83581" lon="6.43189">
        <ele>1444.4</ele>
        <time>2024-08-12T03:51:11Z</time>
      </trkpt>
      <trkpt lat="44.83581" lon="6.43189">
        <ele>1444.6</ele>
        <time>2024-08-12T03:51:12Z</time>
      </trkpt>
      <trkpt lat="44.83579" lon="6.43186">
        <ele>1444.6</ele>
        <time>2024-08-12T03:51:13Z</time>
      </trkpt>
      <trkpt lat="44.83579" lon="6.43186">
        <ele>1444.4</ele>
        <time>2024-08-12T03:51:14Z</time>
      </trkpt>
      <trkpt lat="44.83578" lon="6.43183">
        <ele>1444.4</ele>
        <time>2024-08-12T03:51:15Z</time>
      </trkpt>
      <trkpt lat="44.83578" lon="6.43183">
        <ele>1445</ele>
        <time>2024-08-12T03:51:16Z</time>
      </trkpt>
      <trkpt lat="44.83577" lon="6.4318">
        <ele>1445.2</ele>
        <time>2024-08-12T03:51:17Z</time>
      </trkpt>
      <trkpt lat="44.83577" lon="6.4318">
        <ele>1445.2</ele>
        <time>2024-08-12T03:51:18Z</time>
      </trkpt>
      <trkpt lat="44.83576" lon="6.43177">
        <ele>1445.2</ele>
        <time>2024-08-12T03:51:19Z</time>
      </trkpt>
      <trkpt lat="44.83576" lon="6.43177">
        <ele>1445.2</ele>
        <time>2024-08-12T03:51:20Z</time>
      </trkpt>
      <trkpt lat="44.83575" lon="6.43174">
        <ele>1445.2</ele>
        <time>2024-08-12T03:51:21Z</time>
      </trkpt>
      <trkpt lat="44.83575" lon="6.43174">
        <ele>1445.4</ele>
        <time>2024-08-12T03:51:22Z</time>
      </trkpt>
      <trkpt lat="44.83574" lon="6.43171">
        <ele>1445.8</ele>
        <time>2024-08-12T03:51:23Z</time>
      </trkpt>
      <trkpt lat="44.83574" lon="6.43171">
        <ele>1446</ele>
        <time>2024-08-12T03:51:24Z</time>
      </trkpt>
      <trkpt lat="44.83573" lon="6.43168">
        <ele>1446.2</ele>
        <time>2024-08-12T03:51:25Z</time>
      </trkpt>
      <trkpt lat="44.83573" lon="6.43168">
        <ele>1446.4</ele>
        <time>2024-08-12T03:51:26Z</time>
      </trkpt>
      <trkpt lat="44.83573" lon="6.43165">
        <ele>1446.6</ele>
        <time>2024-08-12T03:51:27Z</time>
      </trkpt>
      <trkpt lat="44.83573" lon="6.43165">
        <ele>1446.8</ele>
        <time>2024-08-12T03:51:28Z</time>
      </trkpt>
      <trkpt lat="44.83572" lon="6.43161">
        <ele>1447</ele>
        <time>2024-08-12T03:51:29Z</time>
      </trkpt>
      <trkpt lat="44.83572" lon="6.43161">
        <ele>1447</ele>
        <time>2024-08-12T03:51:30Z</time>
      </trkpt>
      <trkpt lat="44.83572" lon="6.43157">
        <ele>1447.2</ele>
        <time>2024-08-12T03:51:31Z</time>
      </trkpt>
      <trkpt lat="44.83572" lon="6.43157">
        <ele>1447.2</ele>
        <time>2024-08-12T03:51:32Z</time>
      </trkpt>
      <trkpt lat="44.83572" lon="6.43153">
        <ele>1447.4</ele>
        <time>2024-08-12T03:51:33Z</time>
      </trkpt>
      <trkpt lat="44.83572" lon="6.43153">
        <ele>1447.4</ele>
        <time>2024-08-12T03:51:34Z</time>
      </trkpt>
      <trkpt lat="44.83572" lon="6.4315">
        <ele>1447.8</ele>
        <time>2024-08-12T03:51:35Z</time>
      </trkpt>
      <trkpt lat="44.83572" lon="6.4315">
        <ele>1447.8</ele>
        <time>2024-08-12T03:51:36Z</time>
      </trkpt>
      <trkpt lat="44.83572" lon="6.43146">
        <ele>1448</ele>
        <time>2024-08-12T03:51:37Z</time>
      </trkpt>
      <trkpt lat="44.83572" lon="6.43146">
        <ele>1448.2</ele>
        <time>2024-08-12T03:51:38Z</time>
      </trkpt>
      <trkpt lat="44.83572" lon="6.43142">
        <ele>1448.4</ele>
        <time>2024-08-12T03:51:39Z</time>
      </trkpt>
      <trkpt lat="44.83572" lon="6.43142">
        <ele>1448.6</ele>
        <time>2024-08-12T03:51:40Z</time>
      </trkpt>
      <trkpt lat="44.83573" lon="6.43138">
        <ele>1448.8</ele>
        <time>2024-08-12T03:51:41Z</time>
      </trkpt>
      <trkpt lat="44.83573" lon="6.43138">
        <ele>1448.8</ele>
        <time>2024-08-12T03:51:42Z</time>
      </trkpt>
      <trkpt lat="44.83573" lon="6.43135">
        <ele>1449</ele>
        <time>2024-08-12T03:51:43Z</time>
      </trkpt>
      <trkpt lat="44.83573" lon="6.43135">
        <ele>1449.2</ele>
        <time>2024-08-12T03:51:44Z</time>
      </trkpt>
      <trkpt lat="44.83575" lon="6.43131">
        <ele>1449.2</ele>
        <time>2024-08-12T03:51:45Z</time>
      </trkpt>
      <trkpt lat="44.83575" lon="6.43131">
        <ele>1449.2</ele>
        <time>2024-08-12T03:51:46Z</time>
      </trkpt>
      <trkpt lat="44.83575" lon="6.43128">
        <ele>1449.4</ele>
        <time>2024-08-12T03:51:47Z</time>
      </trkpt>
      <trkpt lat="44.83575" lon="6.43128">
        <ele>1450</ele>
        <time>2024-08-12T03:51:48Z</time>
      </trkpt>
      <trkpt lat="44.83575" lon="6.43124">
        <ele>1450.4</ele>
        <time>2024-08-12T03:51:49Z</time>
      </trkpt>
      <trkpt lat="44.83575" lon="6.43124">
        <ele>1450.6</ele>
        <time>2024-08-12T03:51:50Z</time>
      </trkpt>
      <trkpt lat="44.83575" lon="6.4312">
        <ele>1450.6</ele>
        <time>2024-08-12T03:51:51Z</time>
      </trkpt>
      <trkpt lat="44.83575" lon="6.4312">
        <ele>1450.6</ele>
        <time>2024-08-12T03:51:52Z</time>
      </trkpt>
      <trkpt lat="44.83575" lon="6.43117">
        <ele>1450.6</ele>
        <time>2024-08-12T03:51:53Z</time>
      </trkpt>
      <trkpt lat="44.83575" lon="6.43117">
        <ele>1450.6</ele>
        <time>2024-08-12T03:51:54Z</time>
      </trkpt>
      <trkpt lat="44.83575" lon="6.43114">
        <ele>1451</ele>
        <time>2024-08-12T03:51:55Z</time>
      </trkpt>
      <trkpt lat="44.83575" lon="6.43114">
        <ele>1451</ele>
        <time>2024-08-12T03:51:56Z</time>
      </trkpt>
      <trkpt lat="44.83576" lon="6.4311">
        <ele>1451.2</ele>
        <time>2024-08-12T03:51:57Z</time>
      </trkpt>
      <trkpt lat="44.83576" lon="6.4311">
        <ele>1451.6</ele>
        <time>2024-08-12T03:51:58Z</time>
      </trkpt>
      <trkpt lat="44.83577" lon="6.43106">
        <ele>1451.6</ele>
        <time>2024-08-12T03:51:59Z</time>
      </trkpt>
      <trkpt lat="44.83577" lon="6.43106">
        <ele>1451.6</ele>
        <time>2024-08-12T03:52:00Z</time>
      </trkpt>
      <trkpt lat="44.83579" lon="6.43103">
        <ele>1451.4</ele>
        <time>2024-08-12T03:52:01Z</time>
      </trkpt>
      <trkpt lat="44.83579" lon="6.43103">
        <ele>1451.6</ele>
        <time>2024-08-12T03:52:02Z</time>
      </trkpt>
      <trkpt lat="44.8358" lon="6.431">
        <ele>1451.6</ele>
        <time>2024-08-12T03:52:03Z</time>
      </trkpt>
      <trkpt lat="44.8358" lon="6.431">
        <ele>1451.6</ele>
        <time>2024-08-12T03:52:04Z</time>
      </trkpt>
      <trkpt lat="44.83581" lon="6.43097">
        <ele>1452</ele>
        <time>2024-08-12T03:52:05Z</time>
      </trkpt>
      <trkpt lat="44.83581" lon="6.43097">
        <ele>1452</ele>
        <time>2024-08-12T03:52:06Z</time>
      </trkpt>
      <trkpt lat="44.83582" lon="6.43093">
        <ele>1452</ele>
        <time>2024-08-12T03:52:07Z</time>
      </trkpt>
      <trkpt lat="44.83582" lon="6.43093">
        <ele>1452</ele>
        <time>2024-08-12T03:52:08Z</time>
      </trkpt>
      <trkpt lat="44.83583" lon="6.43089">
        <ele>1452.2</ele>
        <time>2024-08-12T03:52:09Z</time>
      </trkpt>
      <trkpt lat="44.83583" lon="6.43089">
        <ele>1452.4</ele>
        <time>2024-08-12T03:52:10Z</time>
      </trkpt>
      <trkpt lat="44.83584" lon="6.43086">
        <ele>1452.6</ele>
        <time>2024-08-12T03:52:11Z</time>
      </trkpt>
      <trkpt lat="44.83584" lon="6.43086">
        <ele>1452.6</ele>
        <time>2024-08-12T03:52:12Z</time>
      </trkpt>
      <trkpt lat="44.83585" lon="6.43082">
        <ele>1452.8</ele>
        <time>2024-08-12T03:52:13Z</time>
      </trkpt>
      <trkpt lat="44.83585" lon="6.43082">
        <ele>1452.8</ele>
        <time>2024-08-12T03:52:14Z</time>
      </trkpt>
      <trkpt lat="44.83587" lon="6.43078">
        <ele>1453</ele>
        <time>2024-08-12T03:52:15Z</time>
      </trkpt>
      <trkpt lat="44.83587" lon="6.43078">
        <ele>1453.2</ele>
        <time>2024-08-12T03:52:16Z</time>
      </trkpt>
      <trkpt lat="44.83588" lon="6.43075">
        <ele>1453.2</ele>
        <time>2024-08-12T03:52:17Z</time>
      </trkpt>
      <trkpt lat="44.83588" lon="6.43075">
        <ele>1453.4</ele>
        <time>2024-08-12T03:52:18Z</time>
      </trkpt>
      <trkpt lat="44.83588" lon="6.43071">
        <ele>1453.4</ele>
        <time>2024-08-12T03:52:19Z</time>
      </trkpt>
      <trkpt lat="44.83588" lon="6.43071">
        <ele>1453.6</ele>
        <time>2024-08-12T03:52:20Z</time>
      </trkpt>
      <trkpt lat="44.83589" lon="6.43068">
        <ele>1453.6</ele>
        <time>2024-08-12T03:52:21Z</time>
      </trkpt>
      <trkpt lat="44.83589" lon="6.43068">
        <ele>1453.8</ele>
        <time>2024-08-12T03:52:22Z</time>
      </trkpt>
      <trkpt lat="44.83589" lon="6.43064">
        <ele>1454</ele>
        <time>2024-08-12T03:52:23Z</time>
      </trkpt>
      <trkpt lat="44.83589" lon="6.43064">
        <ele>1454</ele>
        <time>2024-08-12T03:52:24Z</time>
      </trkpt>
      <trkpt lat="44.8359" lon="6.4306">
        <ele>1454.2</ele>
        <time>2024-08-12T03:52:25Z</time>
      </trkpt>
      <trkpt lat="44.8359" lon="6.4306">
        <ele>1454.4</ele>
        <time>2024-08-12T03:52:26Z</time>
      </trkpt>
      <trkpt lat="44.83591" lon="6.43057">
        <ele>1454.6</ele>
        <time>2024-08-12T03:52:27Z</time>
      </trkpt>
      <trkpt lat="44.83591" lon="6.43057">
        <ele>1454.8</ele>
        <time>2024-08-12T03:52:28Z</time>
      </trkpt>
      <trkpt lat="44.83592" lon="6.43053">
        <ele>1454.8</ele>
        <time>2024-08-12T03:52:29Z</time>
      </trkpt>
      <trkpt lat="44.83592" lon="6.43053">
        <ele>1455</ele>
        <time>2024-08-12T03:52:30Z</time>
      </trkpt>
      <trkpt lat="44.83593" lon="6.4305">
        <ele>1455.2</ele>
        <time>2024-08-12T03:52:31Z</time>
      </trkpt>
      <trkpt lat="44.83593" lon="6.4305">
        <ele>1455.4</ele>
        <time>2024-08-12T03:52:32Z</time>
      </trkpt>
      <trkpt lat="44.83591" lon="6.43046">
        <ele>1455.6</ele>
        <time>2024-08-12T03:52:33Z</time>
      </trkpt>
      <trkpt lat="44.83591" lon="6.43046">
        <ele>1455.6</ele>
        <time>2024-08-12T03:52:34Z</time>
      </trkpt>
      <trkpt lat="44.83591" lon="6.43042">
        <ele>1455.8</ele>
        <time>2024-08-12T03:52:35Z</time>
      </trkpt>
      <trkpt lat="44.83591" lon="6.43042">
        <ele>1455.8</ele>
        <time>2024-08-12T03:52:36Z</time>
      </trkpt>
      <trkpt lat="44.8359" lon="6.43039">
        <ele>1456</ele>
        <time>2024-08-12T03:52:37Z</time>
      </trkpt>
      <trkpt lat="44.8359" lon="6.43039">
        <ele>1456</ele>
        <time>2024-08-12T03:52:38Z</time>
      </trkpt>
      <trkpt lat="44.83589" lon="6.43035">
        <ele>1456</ele>
        <time>2024-08-12T03:52:39Z</time>
      </trkpt>
      <trkpt lat="44.83589" lon="6.43035">
        <ele>1456</ele>
        <time>2024-08-12T03:52:40Z</time>
      </trkpt>
      <trkpt lat="44.83588" lon="6.43032">
        <ele>1456.2</ele>
        <time>2024-08-12T03:52:41Z</time>
      </trkpt>
      <trkpt lat="44.83588" lon="6.43032">
        <ele>1456.6</ele>
        <time>2024-08-12T03:52:42Z</time>
      </trkpt>
      <trkpt lat="44.83586" lon="6.43029">
        <ele>1456.6</ele>
        <time>2024-08-12T03:52:43Z</time>
      </trkpt>
      <trkpt lat="44.83586" lon="6.43029">
        <ele>1456.8</ele>
        <time>2024-08-12T03:52:44Z</time>
      </trkpt>
      <trkpt lat="44.83586" lon="6.43029">
        <ele>1457</ele>
        <time>2024-08-12T03:52:45Z</time>
      </trkpt>
      <trkpt lat="44.83586" lon="6.43029">
        <ele>1457.2</ele>
        <time>2024-08-12T03:52:46Z</time>
      </trkpt>
      <trkpt lat="44.83586" lon="6.43029">
        <ele>1457.4</ele>
        <time>2024-08-12T03:52:47Z</time>
      </trkpt>
      <trkpt lat="44.83584" lon="6.43028">
        <ele>1457.4</ele>
        <time>2024-08-12T03:52:48Z</time>
      </trkpt>
      <trkpt lat="44.83584" lon="6.43028">
        <ele>1457.2</ele>
        <time>2024-08-12T03:52:49Z</time>
      </trkpt>
      <trkpt lat="44.83583" lon="6.43026">
        <ele>1457.2</ele>
        <time>2024-08-12T03:52:50Z</time>
      </trkpt>
      <trkpt lat="44.83583" lon="6.43026">
        <ele>1457.4</ele>
        <time>2024-08-12T03:52:51Z</time>
      </trkpt>
      <trkpt lat="44.83581" lon="6.43023">
        <ele>1457.4</ele>
        <time>2024-08-12T03:52:52Z</time>
      </trkpt>
      <trkpt lat="44.83581" lon="6.43023">
        <ele>1457.6</ele>
        <time>2024-08-12T03:52:53Z</time>
      </trkpt>
      <trkpt lat="44.83579" lon="6.43021">
        <ele>1457.6</ele>
        <time>2024-08-12T03:52:54Z</time>
      </trkpt>
      <trkpt lat="44.83579" lon="6.43021">
        <ele>1458</ele>
        <time>2024-08-12T03:52:55Z</time>
      </trkpt>
      <trkpt lat="44.83578" lon="6.43018">
        <ele>1458</ele>
        <time>2024-08-12T03:52:56Z</time>
      </trkpt>
      <trkpt lat="44.83578" lon="6.43018">
        <ele>1458</ele>
        <time>2024-08-12T03:52:57Z</time>
      </trkpt>
      <trkpt lat="44.83576" lon="6.43015">
        <ele>1458.2</ele>
        <time>2024-08-12T03:52:58Z</time>
      </trkpt>
      <trkpt lat="44.83576" lon="6.43015">
        <ele>1458.4</ele>
        <time>2024-08-12T03:52:59Z</time>
      </trkpt>
      <trkpt lat="44.83575" lon="6.43013">
        <ele>1458.6</ele>
        <time>2024-08-12T03:53:00Z</time>
      </trkpt>
      <trkpt lat="44.83575" lon="6.43013">
        <ele>1458.8</ele>
        <time>2024-08-12T03:53:01Z</time>
      </trkpt>
      <trkpt lat="44.83573" lon="6.4301">
        <ele>1459</ele>
        <time>2024-08-12T03:53:02Z</time>
      </trkpt>
      <trkpt lat="44.83573" lon="6.4301">
        <ele>1459</ele>
        <time>2024-08-12T03:53:03Z</time>
      </trkpt>
      <trkpt lat="44.83573" lon="6.43006">
        <ele>1459</ele>
        <time>2024-08-12T03:53:04Z</time>
      </trkpt>
      <trkpt lat="44.83573" lon="6.43006">
        <ele>1459.2</ele>
        <time>2024-08-12T03:53:05Z</time>
      </trkpt>
      <trkpt lat="44.83572" lon="6.43001">
        <ele>1459.4</ele>
        <time>2024-08-12T03:53:06Z</time>
      </trkpt>
      <trkpt lat="44.83572" lon="6.43001">
        <ele>1459.4</ele>
        <time>2024-08-12T03:53:07Z</time>
      </trkpt>
      <trkpt lat="44.83572" lon="6.42998">
        <ele>1459.6</ele>
        <time>2024-08-12T03:53:08Z</time>
      </trkpt>
      <trkpt lat="44.83572" lon="6.42998">
        <ele>1459.6</ele>
        <time>2024-08-12T03:53:09Z</time>
      </trkpt>
      <trkpt lat="44.83571" lon="6.42994">
        <ele>1459.8</ele>
        <time>2024-08-12T03:53:10Z</time>
      </trkpt>
      <trkpt lat="44.83571" lon="6.42994">
        <ele>1460</ele>
        <time>2024-08-12T03:53:11Z</time>
      </trkpt>
      <trkpt lat="44.8357" lon="6.42991">
        <ele>1460</ele>
        <time>2024-08-12T03:53:12Z</time>
      </trkpt>
      <trkpt lat="44.8357" lon="6.42991">
        <ele>1460</ele>
        <time>2024-08-12T03:53:13Z</time>
      </trkpt>
      <trkpt lat="44.83569" lon="6.42988">
        <ele>1460</ele>
        <time>2024-08-12T03:53:14Z</time>
      </trkpt>
      <trkpt lat="44.83569" lon="6.42988">
        <ele>1460.2</ele>
        <time>2024-08-12T03:53:15Z</time>
      </trkpt>
      <trkpt lat="44.83567" lon="6.42985">
        <ele>1460.4</ele>
        <time>2024-08-12T03:53:16Z</time>
      </trkpt>
      <trkpt lat="44.83567" lon="6.42985">
        <ele>1460.6</ele>
        <time>2024-08-12T03:53:17Z</time>
      </trkpt>
      <trkpt lat="44.83566" lon="6.42982">
        <ele>1460.8</ele>
        <time>2024-08-12T03:53:18Z</time>
      </trkpt>
      <trkpt lat="44.83566" lon="6.42982">
        <ele>1461</ele>
        <time>2024-08-12T03:53:19Z</time>
      </trkpt>
      <trkpt lat="44.83564" lon="6.4298">
        <ele>1461.2</ele>
        <time>2024-08-12T03:53:20Z</time>
      </trkpt>
      <trkpt lat="44.83564" lon="6.4298">
        <ele>1461.6</ele>
        <time>2024-08-12T03:53:21Z</time>
      </trkpt>
      <trkpt lat="44.83562" lon="6.42977">
        <ele>1461.6</ele>
        <time>2024-08-12T03:53:22Z</time>
      </trkpt>
      <trkpt lat="44.83562" lon="6.42977">
        <ele>1461.6</ele>
        <time>2024-08-12T03:53:23Z</time>
      </trkpt>
      <trkpt lat="44.83559" lon="6.42976">
        <ele>1461.6</ele>
        <time>2024-08-12T03:53:24Z</time>
      </trkpt>
      <trkpt lat="44.83559" lon="6.42976">
        <ele>1462</ele>
        <time>2024-08-12T03:53:25Z</time>
      </trkpt>
      <trkpt lat="44.83557" lon="6.42975">
        <ele>1462</ele>
        <time>2024-08-12T03:53:26Z</time>
      </trkpt>
      <trkpt lat="44.83557" lon="6.42975">
        <ele>1462</ele>
        <time>2024-08-12T03:53:27Z</time>
      </trkpt>
      <trkpt lat="44.83555" lon="6.42974">
        <ele>1462</ele>
        <time>2024-08-12T03:53:28Z</time>
      </trkpt>
      <trkpt lat="44.83555" lon="6.42974">
        <ele>1462</ele>
        <time>2024-08-12T03:53:29Z</time>
      </trkpt>
      <trkpt lat="44.83553" lon="6.42972">
        <ele>1462</ele>
        <time>2024-08-12T03:53:30Z</time>
      </trkpt>
      <trkpt lat="44.83553" lon="6.42972">
        <ele>1462.4</ele>
        <time>2024-08-12T03:53:31Z</time>
      </trkpt>
      <trkpt lat="44.83551" lon="6.4297">
        <ele>1462.6</ele>
        <time>2024-08-12T03:53:32Z</time>
      </trkpt>
      <trkpt lat="44.83549" lon="6.4297">
        <ele>1462.6</ele>
        <time>2024-08-12T03:53:33Z</time>
      </trkpt>
      <trkpt lat="44.83549" lon="6.4297">
        <ele>1462.6</ele>
        <time>2024-08-12T03:53:34Z</time>
      </trkpt>
      <trkpt lat="44.83547" lon="6.42968">
        <ele>1463</ele>
        <time>2024-08-12T03:53:35Z</time>
      </trkpt>
      <trkpt lat="44.83547" lon="6.42968">
        <ele>1463.2</ele>
        <time>2024-08-12T03:53:36Z</time>
      </trkpt>
      <trkpt lat="44.83544" lon="6.42966">
        <ele>1463.2</ele>
        <time>2024-08-12T03:53:37Z</time>
      </trkpt>
      <trkpt lat="44.83544" lon="6.42966">
        <ele>1463.2</ele>
        <time>2024-08-12T03:53:38Z</time>
      </trkpt>
      <trkpt lat="44.83541" lon="6.42964">
        <ele>1463.2</ele>
        <time>2024-08-12T03:53:39Z</time>
      </trkpt>
      <trkpt lat="44.83541" lon="6.42964">
        <ele>1463.4</ele>
        <time>2024-08-12T03:53:40Z</time>
      </trkpt>
      <trkpt lat="44.83539" lon="6.42962">
        <ele>1463.4</ele>
        <time>2024-08-12T03:53:41Z</time>
      </trkpt>
      <trkpt lat="44.83539" lon="6.42962">
        <ele>1463.8</ele>
        <time>2024-08-12T03:53:42Z</time>
      </trkpt>
      <trkpt lat="44.83537" lon="6.4296">
        <ele>1463.8</ele>
        <time>2024-08-12T03:53:43Z</time>
      </trkpt>
      <trkpt lat="44.83537" lon="6.4296">
        <ele>1463.8</ele>
        <time>2024-08-12T03:53:44Z</time>
      </trkpt>
      <trkpt lat="44.83536" lon="6.42957">
        <ele>1463.8</ele>
        <time>2024-08-12T03:53:45Z</time>
      </trkpt>
      <trkpt lat="44.83536" lon="6.42957">
        <ele>1464</ele>
        <time>2024-08-12T03:53:46Z</time>
      </trkpt>
      <trkpt lat="44.83534" lon="6.42954">
        <ele>1464.4</ele>
        <time>2024-08-12T03:53:47Z</time>
      </trkpt>
      <trkpt lat="44.83534" lon="6.42954">
        <ele>1464.6</ele>
        <time>2024-08-12T03:53:48Z</time>
      </trkpt>
      <trkpt lat="44.83534" lon="6.4295">
        <ele>1464.8</ele>
        <time>2024-08-12T03:53:49Z</time>
      </trkpt>
      <trkpt lat="44.83534" lon="6.4295">
        <ele>1464.8</ele>
        <time>2024-08-12T03:53:50Z</time>
      </trkpt>
      <trkpt lat="44.83534" lon="6.4295">
        <ele>1464.8</ele>
        <time>2024-08-12T03:53:51Z</time>
      </trkpt>
      <trkpt lat="44.83534" lon="6.4295">
        <ele>1464.8</ele>
        <time>2024-08-12T03:53:52Z</time>
      </trkpt>
      <trkpt lat="44.83534" lon="6.4295">
        <ele>1465</ele>
        <time>2024-08-12T03:53:53Z</time>
      </trkpt>
      <trkpt lat="44.83534" lon="6.42947">
        <ele>1465.2</ele>
        <time>2024-08-12T03:53:54Z</time>
      </trkpt>
      <trkpt lat="44.83534" lon="6.42947">
        <ele>1465.4</ele>
        <time>2024-08-12T03:53:55Z</time>
      </trkpt>
      <trkpt lat="44.83534" lon="6.42947">
        <ele>1465.4</ele>
        <time>2024-08-12T03:53:56Z</time>
      </trkpt>
      <trkpt lat="44.83534" lon="6.42945">
        <ele>1465.4</ele>
        <time>2024-08-12T03:53:57Z</time>
      </trkpt>
      <trkpt lat="44.83534" lon="6.42945">
        <ele>1465.6</ele>
        <time>2024-08-12T03:53:58Z</time>
      </trkpt>
      <trkpt lat="44.83533" lon="6.4294">
        <ele>1465.6</ele>
        <time>2024-08-12T03:53:59Z</time>
      </trkpt>
      <trkpt lat="44.83533" lon="6.4294">
        <ele>1465.8</ele>
        <time>2024-08-12T03:54:00Z</time>
      </trkpt>
      <trkpt lat="44.83533" lon="6.42936">
        <ele>1466</ele>
        <time>2024-08-12T03:54:01Z</time>
      </trkpt>
      <trkpt lat="44.83533" lon="6.42936">
        <ele>1466</ele>
        <time>2024-08-12T03:54:02Z</time>
      </trkpt>
      <trkpt lat="44.83532" lon="6.42932">
        <ele>1466</ele>
        <time>2024-08-12T03:54:03Z</time>
      </trkpt>
      <trkpt lat="44.83532" lon="6.42932">
        <ele>1466.4</ele>
        <time>2024-08-12T03:54:04Z</time>
      </trkpt>
      <trkpt lat="44.83531" lon="6.42929">
        <ele>1466.6</ele>
        <time>2024-08-12T03:54:05Z</time>
      </trkpt>
      <trkpt lat="44.83531" lon="6.42929">
        <ele>1466.8</ele>
        <time>2024-08-12T03:54:06Z</time>
      </trkpt>
      <trkpt lat="44.83529" lon="6.42925">
        <ele>1467</ele>
        <time>2024-08-12T03:54:07Z</time>
      </trkpt>
      <trkpt lat="44.83529" lon="6.42925">
        <ele>1467</ele>
        <time>2024-08-12T03:54:08Z</time>
      </trkpt>
      <trkpt lat="44.83528" lon="6.42922">
        <ele>1467</ele>
        <time>2024-08-12T03:54:09Z</time>
      </trkpt>
      <trkpt lat="44.83528" lon="6.42922">
        <ele>1467.2</ele>
        <time>2024-08-12T03:54:10Z</time>
      </trkpt>
      <trkpt lat="44.83526" lon="6.42919">
        <ele>1467.2</ele>
        <time>2024-08-12T03:54:11Z</time>
      </trkpt>
      <trkpt lat="44.83526" lon="6.42919">
        <ele>1467.4</ele>
        <time>2024-08-12T03:54:12Z</time>
      </trkpt>
      <trkpt lat="44.83525" lon="6.42916">
        <ele>1467.4</ele>
        <time>2024-08-12T03:54:13Z</time>
      </trkpt>
      <trkpt lat="44.83525" lon="6.42916">
        <ele>1467.6</ele>
        <time>2024-08-12T03:54:14Z</time>
      </trkpt>
      <trkpt lat="44.83523" lon="6.42912">
        <ele>1467.6</ele>
        <time>2024-08-12T03:54:15Z</time>
      </trkpt>
      <trkpt lat="44.83523" lon="6.42912">
        <ele>1467.8</ele>
        <time>2024-08-12T03:54:16Z</time>
      </trkpt>
      <trkpt lat="44.83523" lon="6.42908">
        <ele>1468</ele>
        <time>2024-08-12T03:54:17Z</time>
      </trkpt>
      <trkpt lat="44.83523" lon="6.42908">
        <ele>1468.2</ele>
        <time>2024-08-12T03:54:18Z</time>
      </trkpt>
      <trkpt lat="44.83523" lon="6.42908">
        <ele>1468.4</ele>
        <time>2024-08-12T03:54:19Z</time>
      </trkpt>
      <trkpt lat="44.83523" lon="6.42908">
        <ele>1468.6</ele>
        <time>2024-08-12T03:54:20Z</time>
      </trkpt>
      <trkpt lat="44.83521" lon="6.42905">
        <ele>1468.8</ele>
        <time>2024-08-12T03:54:21Z</time>
      </trkpt>
      <trkpt lat="44.83521" lon="6.42905">
        <ele>1469.2</ele>
        <time>2024-08-12T03:54:22Z</time>
      </trkpt>
      <trkpt lat="44.83521" lon="6.42903">
        <ele>1469.4</ele>
        <time>2024-08-12T03:54:23Z</time>
      </trkpt>
      <trkpt lat="44.83521" lon="6.42903">
        <ele>1469.4</ele>
        <time>2024-08-12T03:54:24Z</time>
      </trkpt>
      <trkpt lat="44.83519" lon="6.42899">
        <ele>1469</ele>
        <time>2024-08-12T03:54:25Z</time>
      </trkpt>
      <trkpt lat="44.83519" lon="6.42899">
        <ele>1469</ele>
        <time>2024-08-12T03:54:26Z</time>
      </trkpt>
      <trkpt lat="44.83518" lon="6.42896">
        <ele>1469</ele>
        <time>2024-08-12T03:54:27Z</time>
      </trkpt>
      <trkpt lat="44.83518" lon="6.42896">
        <ele>1469</ele>
        <time>2024-08-12T03:54:28Z</time>
      </trkpt>
      <trkpt lat="44.83516" lon="6.42893">
        <ele>1469.2</ele>
        <time>2024-08-12T03:54:29Z</time>
      </trkpt>
      <trkpt lat="44.83516" lon="6.42893">
        <ele>1469.4</ele>
        <time>2024-08-12T03:54:30Z</time>
      </trkpt>
      <trkpt lat="44.83515" lon="6.42889">
        <ele>1469.6</ele>
        <time>2024-08-12T03:54:31Z</time>
      </trkpt>
      <trkpt lat="44.83514" lon="6.42887">
        <ele>1469.6</ele>
        <time>2024-08-12T03:54:32Z</time>
      </trkpt>
      <trkpt lat="44.83514" lon="6.42887">
        <ele>1469.8</ele>
        <time>2024-08-12T03:54:33Z</time>
      </trkpt>
      <trkpt lat="44.83513" lon="6.42884">
        <ele>1470</ele>
        <time>2024-08-12T03:54:34Z</time>
      </trkpt>
      <trkpt lat="44.83513" lon="6.42884">
        <ele>1470</ele>
        <time>2024-08-12T03:54:35Z</time>
      </trkpt>
      <trkpt lat="44.83512" lon="6.42881">
        <ele>1470</ele>
        <time>2024-08-12T03:54:36Z</time>
      </trkpt>
      <trkpt lat="44.83512" lon="6.42881">
        <ele>1470.2</ele>
        <time>2024-08-12T03:54:37Z</time>
      </trkpt>
      <trkpt lat="44.83511" lon="6.42878">
        <ele>1470.2</ele>
        <time>2024-08-12T03:54:38Z</time>
      </trkpt>
      <trkpt lat="44.83511" lon="6.42878">
        <ele>1470.4</ele>
        <time>2024-08-12T03:54:39Z</time>
      </trkpt>
      <trkpt lat="44.83511" lon="6.42874">
        <ele>1470.6</ele>
        <time>2024-08-12T03:54:40Z</time>
      </trkpt>
      <trkpt lat="44.83511" lon="6.42874">
        <ele>1470.6</ele>
        <time>2024-08-12T03:54:41Z</time>
      </trkpt>
      <trkpt lat="44.8351" lon="6.4287">
        <ele>1470.6</ele>
        <time>2024-08-12T03:54:42Z</time>
      </trkpt>
      <trkpt lat="44.8351" lon="6.4287">
        <ele>1470.8</ele>
        <time>2024-08-12T03:54:43Z</time>
      </trkpt>
      <trkpt lat="44.83509" lon="6.42866">
        <ele>1470.8</ele>
        <time>2024-08-12T03:54:44Z</time>
      </trkpt>
      <trkpt lat="44.83509" lon="6.42866">
        <ele>1471.2</ele>
        <time>2024-08-12T03:54:45Z</time>
      </trkpt>
      <trkpt lat="44.83508" lon="6.42863">
        <ele>1471.4</ele>
        <time>2024-08-12T03:54:46Z</time>
      </trkpt>
      <trkpt lat="44.83508" lon="6.42863">
        <ele>1471.6</ele>
        <time>2024-08-12T03:54:47Z</time>
      </trkpt>
      <trkpt lat="44.83507" lon="6.4286">
        <ele>1471.6</ele>
        <time>2024-08-12T03:54:48Z</time>
      </trkpt>
      <trkpt lat="44.83507" lon="6.4286">
        <ele>1471.6</ele>
        <time>2024-08-12T03:54:49Z</time>
      </trkpt>
      <trkpt lat="44.83506" lon="6.42857">
        <ele>1471.6</ele>
        <time>2024-08-12T03:54:50Z</time>
      </trkpt>
      <trkpt lat="44.83506" lon="6.42857">
        <ele>1471.8</ele>
        <time>2024-08-12T03:54:51Z</time>
      </trkpt>
      <trkpt lat="44.83505" lon="6.42853">
        <ele>1472</ele>
        <time>2024-08-12T03:54:52Z</time>
      </trkpt>
      <trkpt lat="44.83505" lon="6.42853">
        <ele>1472.2</ele>
        <time>2024-08-12T03:54:53Z</time>
      </trkpt>
      <trkpt lat="44.83504" lon="6.42849">
        <ele>1472.2</ele>
        <time>2024-08-12T03:54:54Z</time>
      </trkpt>
      <trkpt lat="44.83504" lon="6.42849">
        <ele>1472.4</ele>
        <time>2024-08-12T03:54:55Z</time>
      </trkpt>
      <trkpt lat="44.83503" lon="6.42845">
        <ele>1472.6</ele>
        <time>2024-08-12T03:54:56Z</time>
      </trkpt>
      <trkpt lat="44.83503" lon="6.42845">
        <ele>1472.8</ele>
        <time>2024-08-12T03:54:57Z</time>
      </trkpt>
      <trkpt lat="44.83502" lon="6.42841">
        <ele>1472.8</ele>
        <time>2024-08-12T03:54:58Z</time>
      </trkpt>
      <trkpt lat="44.83502" lon="6.42841">
        <ele>1473</ele>
        <time>2024-08-12T03:54:59Z</time>
      </trkpt>
      <trkpt lat="44.83501" lon="6.42838">
        <ele>1473.2</ele>
        <time>2024-08-12T03:55:00Z</time>
      </trkpt>
      <trkpt lat="44.83501" lon="6.42838">
        <ele>1473.4</ele>
        <time>2024-08-12T03:55:01Z</time>
      </trkpt>
      <trkpt lat="44.83501" lon="6.42834">
        <ele>1473.4</ele>
        <time>2024-08-12T03:55:02Z</time>
      </trkpt>
      <trkpt lat="44.83501" lon="6.42834">
        <ele>1473.4</ele>
        <time>2024-08-12T03:55:03Z</time>
      </trkpt>
      <trkpt lat="44.83502" lon="6.42829">
        <ele>1473.6</ele>
        <time>2024-08-12T03:55:04Z</time>
      </trkpt>
      <trkpt lat="44.83502" lon="6.42829">
        <ele>1473.6</ele>
        <time>2024-08-12T03:55:05Z</time>
      </trkpt>
      <trkpt lat="44.83503" lon="6.42825">
        <ele>1474</ele>
        <time>2024-08-12T03:55:06Z</time>
      </trkpt>
      <trkpt lat="44.83503" lon="6.42825">
        <ele>1474.4</ele>
        <time>2024-08-12T03:55:07Z</time>
      </trkpt>
      <trkpt lat="44.83503" lon="6.42822">
        <ele>1474.4</ele>
        <time>2024-08-12T03:55:08Z</time>
      </trkpt>
      <trkpt lat="44.83503" lon="6.42822">
        <ele>1474.4</ele>
        <time>2024-08-12T03:55:09Z</time>
      </trkpt>
      <trkpt lat="44.83504" lon="6.42818">
        <ele>1474.6</ele>
        <time>2024-08-12T03:55:10Z</time>
      </trkpt>
      <trkpt lat="44.83504" lon="6.42818">
        <ele>1474.6</ele>
        <time>2024-08-12T03:55:11Z</time>
      </trkpt>
      <trkpt lat="44.83506" lon="6.42817">
        <ele>1474.6</ele>
        <time>2024-08-12T03:55:12Z</time>
      </trkpt>
      <trkpt lat="44.83506" lon="6.42817">
        <ele>1475</ele>
        <time>2024-08-12T03:55:13Z</time>
      </trkpt>
      <trkpt lat="44.83506" lon="6.42817">
        <ele>1475.2</ele>
        <time>2024-08-12T03:55:14Z</time>
      </trkpt>
      <trkpt lat="44.83506" lon="6.42817">
        <ele>1475.2</ele>
        <time>2024-08-12T03:55:15Z</time>
      </trkpt>
      <trkpt lat="44.83506" lon="6.42817">
        <ele>1475.2</ele>
        <time>2024-08-12T03:55:16Z</time>
      </trkpt>
      <trkpt lat="44.83506" lon="6.42817">
        <ele>1475.2</ele>
        <time>2024-08-12T03:55:17Z</time>
      </trkpt>
      <trkpt lat="44.83506" lon="6.42817">
        <ele>1475.2</ele>
        <time>2024-08-12T03:55:18Z</time>
      </trkpt>
      <trkpt lat="44.83506" lon="6.42817">
        <ele>1475.2</ele>
        <time>2024-08-12T03:55:19Z</time>
      </trkpt>
      <trkpt lat="44.83506" lon="6.42817">
        <ele>1475</ele>
        <time>2024-08-12T03:55:20Z</time>
      </trkpt>
      <trkpt lat="44.83503" lon="6.42815">
        <ele>1475</ele>
        <time>2024-08-12T03:55:21Z</time>
      </trkpt>
      <trkpt lat="44.83503" lon="6.42815">
        <ele>1475.2</ele>
        <time>2024-08-12T03:55:22Z</time>
      </trkpt>
      <trkpt lat="44.83502" lon="6.42811">
        <ele>1475.4</ele>
        <time>2024-08-12T03:55:23Z</time>
      </trkpt>
      <trkpt lat="44.83502" lon="6.42811">
        <ele>1475.4</ele>
        <time>2024-08-12T03:55:24Z</time>
      </trkpt>
      <trkpt lat="44.83503" lon="6.42807">
        <ele>1475.6</ele>
        <time>2024-08-12T03:55:25Z</time>
      </trkpt>
      <trkpt lat="44.83503" lon="6.42807">
        <ele>1475.6</ele>
        <time>2024-08-12T03:55:26Z</time>
      </trkpt>
      <trkpt lat="44.83503" lon="6.42802">
        <ele>1475.2</ele>
        <time>2024-08-12T03:55:27Z</time>
      </trkpt>
      <trkpt lat="44.83503" lon="6.42802">
        <ele>1475.2</ele>
        <time>2024-08-12T03:55:28Z</time>
      </trkpt>
      <trkpt lat="44.83503" lon="6.42798">
        <ele>1475.2</ele>
        <time>2024-08-12T03:55:29Z</time>
      </trkpt>
      <trkpt lat="44.83503" lon="6.42798">
        <ele>1475.2</ele>
        <time>2024-08-12T03:55:30Z</time>
      </trkpt>
      <trkpt lat="44.83503" lon="6.42794">
        <ele>1475.4</ele>
        <time>2024-08-12T03:55:31Z</time>
      </trkpt>
      <trkpt lat="44.83503" lon="6.42794">
        <ele>1475.4</ele>
        <time>2024-08-12T03:55:32Z</time>
      </trkpt>
      <trkpt lat="44.83502" lon="6.4279">
        <ele>1475.4</ele>
        <time>2024-08-12T03:55:33Z</time>
      </trkpt>
      <trkpt lat="44.83502" lon="6.4279">
        <ele>1475.8</ele>
        <time>2024-08-12T03:55:34Z</time>
      </trkpt>
      <trkpt lat="44.83501" lon="6.42788">
        <ele>1475.8</ele>
        <time>2024-08-12T03:55:35Z</time>
      </trkpt>
      <trkpt lat="44.83501" lon="6.42788">
        <ele>1475.8</ele>
        <time>2024-08-12T03:55:36Z</time>
      </trkpt>
      <trkpt lat="44.835" lon="6.42784">
        <ele>1475.8</ele>
        <time>2024-08-12T03:55:37Z</time>
      </trkpt>
      <trkpt lat="44.835" lon="6.42784">
        <ele>1475.8</ele>
        <time>2024-08-12T03:55:38Z</time>
      </trkpt>
      <trkpt lat="44.835" lon="6.42784">
        <ele>1475.8</ele>
        <time>2024-08-12T03:55:39Z</time>
      </trkpt>
      <trkpt lat="44.835" lon="6.42784">
        <ele>1475.8</ele>
        <time>2024-08-12T03:55:40Z</time>
      </trkpt>
      <trkpt lat="44.835" lon="6.42784">
        <ele>1476</ele>
        <time>2024-08-12T03:55:41Z</time>
      </trkpt>
      <trkpt lat="44.835" lon="6.42784">
        <ele>1476</ele>
        <time>2024-08-12T03:55:42Z</time>
      </trkpt>
      <trkpt lat="44.835" lon="6.42784">
        <ele>1476</ele>
        <time>2024-08-12T03:55:43Z</time>
      </trkpt>
      <trkpt lat="44.835" lon="6.42781">
        <ele>1476</ele>
        <time>2024-08-12T03:55:44Z</time>
      </trkpt>
      <trkpt lat="44.835" lon="6.42781">
        <ele>1475.8</ele>
        <time>2024-08-12T03:55:45Z</time>
      </trkpt>
      <trkpt lat="44.835" lon="6.42777">
        <ele>1475.8</ele>
        <time>2024-08-12T03:55:46Z</time>
      </trkpt>
      <trkpt lat="44.835" lon="6.42777">
        <ele>1476</ele>
        <time>2024-08-12T03:55:47Z</time>
      </trkpt>
      <trkpt lat="44.83501" lon="6.42772">
        <ele>1476</ele>
        <time>2024-08-12T03:55:48Z</time>
      </trkpt>
      <trkpt lat="44.83501" lon="6.42772">
        <ele>1475.8</ele>
        <time>2024-08-12T03:55:49Z</time>
      </trkpt>
      <trkpt lat="44.83501" lon="6.42767">
        <ele>1475.6</ele>
        <time>2024-08-12T03:55:50Z</time>
      </trkpt>
      <trkpt lat="44.83501" lon="6.42767">
        <ele>1475.6</ele>
        <time>2024-08-12T03:55:51Z</time>
      </trkpt>
      <trkpt lat="44.83501" lon="6.42763">
        <ele>1475.6</ele>
        <time>2024-08-12T03:55:52Z</time>
      </trkpt>
      <trkpt lat="44.83501" lon="6.42763">
        <ele>1475.8</ele>
        <time>2024-08-12T03:55:53Z</time>
      </trkpt>
      <trkpt lat="44.83502" lon="6.42759">
        <ele>1475.8</ele>
        <time>2024-08-12T03:55:54Z</time>
      </trkpt>
      <trkpt lat="44.83502" lon="6.42759">
        <ele>1476</ele>
        <time>2024-08-12T03:55:55Z</time>
      </trkpt>
      <trkpt lat="44.83503" lon="6.42755">
        <ele>1476</ele>
        <time>2024-08-12T03:55:56Z</time>
      </trkpt>
      <trkpt lat="44.83503" lon="6.42755">
        <ele>1476</ele>
        <time>2024-08-12T03:55:57Z</time>
      </trkpt>
      <trkpt lat="44.83505" lon="6.42751">
        <ele>1476</ele>
        <time>2024-08-12T03:55:58Z</time>
      </trkpt>
      <trkpt lat="44.83505" lon="6.42751">
        <ele>1476</ele>
        <time>2024-08-12T03:55:59Z</time>
      </trkpt>
      <trkpt lat="44.83506" lon="6.42747">
        <ele>1476.2</ele>
        <time>2024-08-12T03:56:00Z</time>
      </trkpt>
      <trkpt lat="44.83506" lon="6.42747">
        <ele>1476.2</ele>
        <time>2024-08-12T03:56:01Z</time>
      </trkpt>
      <trkpt lat="44.83507" lon="6.42744">
        <ele>1476.2</ele>
        <time>2024-08-12T03:56:02Z</time>
      </trkpt>
      <trkpt lat="44.83507" lon="6.42744">
        <ele>1476.4</ele>
        <time>2024-08-12T03:56:03Z</time>
      </trkpt>
      <trkpt lat="44.83508" lon="6.4274">
        <ele>1476.6</ele>
        <time>2024-08-12T03:56:04Z</time>
      </trkpt>
      <trkpt lat="44.83508" lon="6.4274">
        <ele>1476.8</ele>
        <time>2024-08-12T03:56:05Z</time>
      </trkpt>
      <trkpt lat="44.83509" lon="6.42736">
        <ele>1476.8</ele>
        <time>2024-08-12T03:56:06Z</time>
      </trkpt>
      <trkpt lat="44.83509" lon="6.42736">
        <ele>1477</ele>
        <time>2024-08-12T03:56:07Z</time>
      </trkpt>
      <trkpt lat="44.8351" lon="6.42733">
        <ele>1477</ele>
        <time>2024-08-12T03:56:08Z</time>
      </trkpt>
      <trkpt lat="44.8351" lon="6.42733">
        <ele>1477</ele>
        <time>2024-08-12T03:56:09Z</time>
      </trkpt>
      <trkpt lat="44.83511" lon="6.42729">
        <ele>1477.2</ele>
        <time>2024-08-12T03:56:10Z</time>
      </trkpt>
      <trkpt lat="44.83511" lon="6.42729">
        <ele>1477.4</ele>
        <time>2024-08-12T03:56:11Z</time>
      </trkpt>
      <trkpt lat="44.83513" lon="6.42726">
        <ele>1477.4</ele>
        <time>2024-08-12T03:56:12Z</time>
      </trkpt>
      <trkpt lat="44.83513" lon="6.42726">
        <ele>1477.6</ele>
        <time>2024-08-12T03:56:13Z</time>
      </trkpt>
      <trkpt lat="44.83515" lon="6.42722">
        <ele>1477.6</ele>
        <time>2024-08-12T03:56:14Z</time>
      </trkpt>
      <trkpt lat="44.83515" lon="6.42722">
        <ele>1477.6</ele>
        <time>2024-08-12T03:56:15Z</time>
      </trkpt>
      <trkpt lat="44.83516" lon="6.42719">
        <ele>1477.6</ele>
        <time>2024-08-12T03:56:16Z</time>
      </trkpt>
      <trkpt lat="44.83516" lon="6.42719">
        <ele>1478.2</ele>
        <time>2024-08-12T03:56:17Z</time>
      </trkpt>
      <trkpt lat="44.83517" lon="6.42716">
        <ele>1478.2</ele>
        <time>2024-08-12T03:56:18Z</time>
      </trkpt>
      <trkpt lat="44.83517" lon="6.42716">
        <ele>1478.2</ele>
        <time>2024-08-12T03:56:19Z</time>
      </trkpt>
      <trkpt lat="44.83519" lon="6.42713">
        <ele>1478.2</ele>
        <time>2024-08-12T03:56:20Z</time>
      </trkpt>
      <trkpt lat="44.83519" lon="6.42713">
        <ele>1478.4</ele>
        <time>2024-08-12T03:56:21Z</time>
      </trkpt>
      <trkpt lat="44.83521" lon="6.4271">
        <ele>1478.6</ele>
        <time>2024-08-12T03:56:22Z</time>
      </trkpt>
      <trkpt lat="44.83521" lon="6.4271">
        <ele>1478.6</ele>
        <time>2024-08-12T03:56:23Z</time>
      </trkpt>
      <trkpt lat="44.83522" lon="6.42706">
        <ele>1478.6</ele>
        <time>2024-08-12T03:56:24Z</time>
      </trkpt>
      <trkpt lat="44.83522" lon="6.42706">
        <ele>1478.8</ele>
        <time>2024-08-12T03:56:25Z</time>
      </trkpt>
      <trkpt lat="44.83524" lon="6.42703">
        <ele>1479</ele>
        <time>2024-08-12T03:56:26Z</time>
      </trkpt>
      <trkpt lat="44.83524" lon="6.42703">
        <ele>1479</ele>
        <time>2024-08-12T03:56:27Z</time>
      </trkpt>
      <trkpt lat="44.83525" lon="6.427">
        <ele>1479</ele>
        <time>2024-08-12T03:56:28Z</time>
      </trkpt>
      <trkpt lat="44.83525" lon="6.427">
        <ele>1479.4</ele>
        <time>2024-08-12T03:56:29Z</time>
      </trkpt>
      <trkpt lat="44.83527" lon="6.42696">
        <ele>1479.4</ele>
        <time>2024-08-12T03:56:30Z</time>
      </trkpt>
      <trkpt lat="44.83527" lon="6.42696">
        <ele>1479.4</ele>
        <time>2024-08-12T03:56:31Z</time>
      </trkpt>
      <trkpt lat="44.83527" lon="6.42692">
        <ele>1479.8</ele>
        <time>2024-08-12T03:56:32Z</time>
      </trkpt>
      <trkpt lat="44.83527" lon="6.42692">
        <ele>1479.8</ele>
        <time>2024-08-12T03:56:33Z</time>
      </trkpt>
      <trkpt lat="44.83527" lon="6.42689">
        <ele>1479.8</ele>
        <time>2024-08-12T03:56:34Z</time>
      </trkpt>
      <trkpt lat="44.83527" lon="6.42689">
        <ele>1479.8</ele>
        <time>2024-08-12T03:56:35Z</time>
      </trkpt>
      <trkpt lat="44.83527" lon="6.42685">
        <ele>1480</ele>
        <time>2024-08-12T03:56:36Z</time>
      </trkpt>
      <trkpt lat="44.83527" lon="6.42685">
        <ele>1480.4</ele>
        <time>2024-08-12T03:56:37Z</time>
      </trkpt>
      <trkpt lat="44.83527" lon="6.42681">
        <ele>1480.8</ele>
        <time>2024-08-12T03:56:38Z</time>
      </trkpt>
      <trkpt lat="44.83527" lon="6.42681">
        <ele>1480.8</ele>
        <time>2024-08-12T03:56:39Z</time>
      </trkpt>
      <trkpt lat="44.83528" lon="6.42677">
        <ele>1480.8</ele>
        <time>2024-08-12T03:56:40Z</time>
      </trkpt>
      <trkpt lat="44.83528" lon="6.42677">
        <ele>1480.8</ele>
        <time>2024-08-12T03:56:41Z</time>
      </trkpt>
      <trkpt lat="44.83529" lon="6.42673">
        <ele>1480.8</ele>
        <time>2024-08-12T03:56:42Z</time>
      </trkpt>
      <trkpt lat="44.83529" lon="6.42673">
        <ele>1480.8</ele>
        <time>2024-08-12T03:56:43Z</time>
      </trkpt>
      <trkpt lat="44.83529" lon="6.4267">
        <ele>1481</ele>
        <time>2024-08-12T03:56:44Z</time>
      </trkpt>
      <trkpt lat="44.83529" lon="6.4267">
        <ele>1481.2</ele>
        <time>2024-08-12T03:56:45Z</time>
      </trkpt>
      <trkpt lat="44.8353" lon="6.42666">
        <ele>1481.2</ele>
        <time>2024-08-12T03:56:46Z</time>
      </trkpt>
      <trkpt lat="44.8353" lon="6.42666">
        <ele>1481</ele>
        <time>2024-08-12T03:56:47Z</time>
      </trkpt>
      <trkpt lat="44.83529" lon="6.42662">
        <ele>1481</ele>
        <time>2024-08-12T03:56:48Z</time>
      </trkpt>
      <trkpt lat="44.83529" lon="6.42662">
        <ele>1481.2</ele>
        <time>2024-08-12T03:56:49Z</time>
      </trkpt>
      <trkpt lat="44.83529" lon="6.42658">
        <ele>1481.4</ele>
        <time>2024-08-12T03:56:50Z</time>
      </trkpt>
      <trkpt lat="44.83529" lon="6.42658">
        <ele>1481.6</ele>
        <time>2024-08-12T03:56:51Z</time>
      </trkpt>
      <trkpt lat="44.83529" lon="6.42655">
        <ele>1481.8</ele>
        <time>2024-08-12T03:56:52Z</time>
      </trkpt>
      <trkpt lat="44.83529" lon="6.42655">
        <ele>1482</ele>
        <time>2024-08-12T03:56:53Z</time>
      </trkpt>
      <trkpt lat="44.83529" lon="6.42651">
        <ele>1482</ele>
        <time>2024-08-12T03:56:54Z</time>
      </trkpt>
      <trkpt lat="44.83529" lon="6.42651">
        <ele>1482.2</ele>
        <time>2024-08-12T03:56:55Z</time>
      </trkpt>
      <trkpt lat="44.83529" lon="6.42648">
        <ele>1482.2</ele>
        <time>2024-08-12T03:56:56Z</time>
      </trkpt>
      <trkpt lat="44.83529" lon="6.42648">
        <ele>1482.2</ele>
        <time>2024-08-12T03:56:57Z</time>
      </trkpt>
      <trkpt lat="44.8353" lon="6.42644">
        <ele>1482.2</ele>
        <time>2024-08-12T03:56:58Z</time>
      </trkpt>
      <trkpt lat="44.8353" lon="6.42644">
        <ele>1482.4</ele>
        <time>2024-08-12T03:56:59Z</time>
      </trkpt>
      <trkpt lat="44.8353" lon="6.4264">
        <ele>1482.4</ele>
        <time>2024-08-12T03:57:00Z</time>
      </trkpt>
      <trkpt lat="44.8353" lon="6.4264">
        <ele>1482.4</ele>
        <time>2024-08-12T03:57:01Z</time>
      </trkpt>
      <trkpt lat="44.8353" lon="6.42636">
        <ele>1482.6</ele>
        <time>2024-08-12T03:57:02Z</time>
      </trkpt>
      <trkpt lat="44.8353" lon="6.42636">
        <ele>1482.6</ele>
        <time>2024-08-12T03:57:03Z</time>
      </trkpt>
      <trkpt lat="44.83529" lon="6.42632">
        <ele>1482.8</ele>
        <time>2024-08-12T03:57:04Z</time>
      </trkpt>
      <trkpt lat="44.83529" lon="6.42632">
        <ele>1483</ele>
        <time>2024-08-12T03:57:05Z</time>
      </trkpt>
      <trkpt lat="44.83527" lon="6.42628">
        <ele>1483.2</ele>
        <time>2024-08-12T03:57:06Z</time>
      </trkpt>
      <trkpt lat="44.83527" lon="6.42628">
        <ele>1483.2</ele>
        <time>2024-08-12T03:57:07Z</time>
      </trkpt>
      <trkpt lat="44.83526" lon="6.42625">
        <ele>1483</ele>
        <time>2024-08-12T03:57:08Z</time>
      </trkpt>
      <trkpt lat="44.83526" lon="6.42625">
        <ele>1483</ele>
        <time>2024-08-12T03:57:09Z</time>
      </trkpt>
      <trkpt lat="44.83525" lon="6.42621">
        <ele>1483.2</ele>
        <time>2024-08-12T03:57:10Z</time>
      </trkpt>
      <trkpt lat="44.83525" lon="6.42621">
        <ele>1483.4</ele>
        <time>2024-08-12T03:57:11Z</time>
      </trkpt>
      <trkpt lat="44.83525" lon="6.42617">
        <ele>1483.4</ele>
        <time>2024-08-12T03:57:12Z</time>
      </trkpt>
      <trkpt lat="44.83525" lon="6.42617">
        <ele>1483.6</ele>
        <time>2024-08-12T03:57:13Z</time>
      </trkpt>
      <trkpt lat="44.83525" lon="6.42613">
        <ele>1483.8</ele>
        <time>2024-08-12T03:57:14Z</time>
      </trkpt>
      <trkpt lat="44.83525" lon="6.42613">
        <ele>1483.8</ele>
        <time>2024-08-12T03:57:15Z</time>
      </trkpt>
      <trkpt lat="44.83523" lon="6.4261">
        <ele>1483.8</ele>
        <time>2024-08-12T03:57:16Z</time>
      </trkpt>
      <trkpt lat="44.83523" lon="6.4261">
        <ele>1483.8</ele>
        <time>2024-08-12T03:57:17Z</time>
      </trkpt>
      <trkpt lat="44.83522" lon="6.42607">
        <ele>1484</ele>
        <time>2024-08-12T03:57:18Z</time>
      </trkpt>
      <trkpt lat="44.83522" lon="6.42607">
        <ele>1484</ele>
        <time>2024-08-12T03:57:19Z</time>
      </trkpt>
      <trkpt lat="44.8352" lon="6.42604">
        <ele>1484.2</ele>
        <time>2024-08-12T03:57:20Z</time>
      </trkpt>
      <trkpt lat="44.8352" lon="6.42604">
        <ele>1484.4</ele>
        <time>2024-08-12T03:57:21Z</time>
      </trkpt>
      <trkpt lat="44.83519" lon="6.42601">
        <ele>1484.4</ele>
        <time>2024-08-12T03:57:22Z</time>
      </trkpt>
      <trkpt lat="44.83519" lon="6.42601">
        <ele>1484.4</ele>
        <time>2024-08-12T03:57:23Z</time>
      </trkpt>
      <trkpt lat="44.83517" lon="6.42597">
        <ele>1484.8</ele>
        <time>2024-08-12T03:57:24Z</time>
      </trkpt>
      <trkpt lat="44.83517" lon="6.42597">
        <ele>1484.8</ele>
        <time>2024-08-12T03:57:25Z</time>
      </trkpt>
      <trkpt lat="44.83516" lon="6.42593">
        <ele>1484.8</ele>
        <time>2024-08-12T03:57:26Z</time>
      </trkpt>
      <trkpt lat="44.83516" lon="6.42593">
        <ele>1485</ele>
        <time>2024-08-12T03:57:27Z</time>
      </trkpt>
      <trkpt lat="44.83516" lon="6.42589">
        <ele>1485.2</ele>
        <time>2024-08-12T03:57:28Z</time>
      </trkpt>
      <trkpt lat="44.83516" lon="6.42589">
        <ele>1485.4</ele>
        <time>2024-08-12T03:57:29Z</time>
      </trkpt>
      <trkpt lat="44.83515" lon="6.42586">
        <ele>1485.4</ele>
        <time>2024-08-12T03:57:30Z</time>
      </trkpt>
      <trkpt lat="44.83515" lon="6.42586">
        <ele>1485.6</ele>
        <time>2024-08-12T03:57:31Z</time>
      </trkpt>
      <trkpt lat="44.83515" lon="6.42582">
        <ele>1485.6</ele>
        <time>2024-08-12T03:57:32Z</time>
      </trkpt>
      <trkpt lat="44.83514" lon="6.4258">
        <ele>1485.8</ele>
        <time>2024-08-12T03:57:33Z</time>
      </trkpt>
      <trkpt lat="44.83514" lon="6.4258">
        <ele>1486</ele>
        <time>2024-08-12T03:57:34Z</time>
      </trkpt>
      <trkpt lat="44.83512" lon="6.42577">
        <ele>1486</ele>
        <time>2024-08-12T03:57:35Z</time>
      </trkpt>
      <trkpt lat="44.83512" lon="6.42577">
        <ele>1486.2</ele>
        <time>2024-08-12T03:57:36Z</time>
      </trkpt>
      <trkpt lat="44.8351" lon="6.42573">
        <ele>1486.2</ele>
        <time>2024-08-12T03:57:37Z</time>
      </trkpt>
      <trkpt lat="44.8351" lon="6.42573">
        <ele>1486.2</ele>
        <time>2024-08-12T03:57:38Z</time>
      </trkpt>
      <trkpt lat="44.83509" lon="6.4257">
        <ele>1486.2</ele>
        <time>2024-08-12T03:57:39Z</time>
      </trkpt>
      <trkpt lat="44.83509" lon="6.4257">
        <ele>1486.2</ele>
        <time>2024-08-12T03:57:40Z</time>
      </trkpt>
      <trkpt lat="44.83507" lon="6.42567">
        <ele>1486.6</ele>
        <time>2024-08-12T03:57:41Z</time>
      </trkpt>
      <trkpt lat="44.83507" lon="6.42567">
        <ele>1486.6</ele>
        <time>2024-08-12T03:57:42Z</time>
      </trkpt>
      <trkpt lat="44.83506" lon="6.42563">
        <ele>1486.6</ele>
        <time>2024-08-12T03:57:43Z</time>
      </trkpt>
      <trkpt lat="44.83506" lon="6.42563">
        <ele>1486.8</ele>
        <time>2024-08-12T03:57:44Z</time>
      </trkpt>
      <trkpt lat="44.83505" lon="6.4256">
        <ele>1487.2</ele>
        <time>2024-08-12T03:57:45Z</time>
      </trkpt>
      <trkpt lat="44.83505" lon="6.4256">
        <ele>1487.4</ele>
        <time>2024-08-12T03:57:46Z</time>
      </trkpt>
      <trkpt lat="44.83505" lon="6.42556">
        <ele>1487.4</ele>
        <time>2024-08-12T03:57:47Z</time>
      </trkpt>
      <trkpt lat="44.83505" lon="6.42556">
        <ele>1487.4</ele>
        <time>2024-08-12T03:57:48Z</time>
      </trkpt>
      <trkpt lat="44.83503" lon="6.42553">
        <ele>1487.6</ele>
        <time>2024-08-12T03:57:49Z</time>
      </trkpt>
      <trkpt lat="44.83503" lon="6.42553">
        <ele>1488</ele>
        <time>2024-08-12T03:57:50Z</time>
      </trkpt>
      <trkpt lat="44.83501" lon="6.4255">
        <ele>1488</ele>
        <time>2024-08-12T03:57:51Z</time>
      </trkpt>
      <trkpt lat="44.83501" lon="6.4255">
        <ele>1488</ele>
        <time>2024-08-12T03:57:52Z</time>
      </trkpt>
      <trkpt lat="44.83499" lon="6.42548">
        <ele>1488</ele>
        <time>2024-08-12T03:57:53Z</time>
      </trkpt>
      <trkpt lat="44.83499" lon="6.42548">
        <ele>1488.4</ele>
        <time>2024-08-12T03:57:54Z</time>
      </trkpt>
      <trkpt lat="44.83496" lon="6.42547">
        <ele>1488.4</ele>
        <time>2024-08-12T03:57:55Z</time>
      </trkpt>
      <trkpt lat="44.83496" lon="6.42547">
        <ele>1488.6</ele>
        <time>2024-08-12T03:57:56Z</time>
      </trkpt>
      <trkpt lat="44.83494" lon="6.42545">
        <ele>1488.6</ele>
        <time>2024-08-12T03:57:57Z</time>
      </trkpt>
      <trkpt lat="44.83494" lon="6.42545">
        <ele>1488.6</ele>
        <time>2024-08-12T03:57:58Z</time>
      </trkpt>
      <trkpt lat="44.83492" lon="6.42544">
        <ele>1488.8</ele>
        <time>2024-08-12T03:57:59Z</time>
      </trkpt>
      <trkpt lat="44.83492" lon="6.42544">
        <ele>1488.6</ele>
        <time>2024-08-12T03:58:00Z</time>
      </trkpt>
      <trkpt lat="44.83489" lon="6.42543">
        <ele>1488.8</ele>
        <time>2024-08-12T03:58:01Z</time>
      </trkpt>
      <trkpt lat="44.83489" lon="6.42543">
        <ele>1489</ele>
        <time>2024-08-12T03:58:02Z</time>
      </trkpt>
      <trkpt lat="44.83486" lon="6.42542">
        <ele>1489</ele>
        <time>2024-08-12T03:58:03Z</time>
      </trkpt>
      <trkpt lat="44.83486" lon="6.42542">
        <ele>1489.4</ele>
        <time>2024-08-12T03:58:04Z</time>
      </trkpt>
      <trkpt lat="44.83483" lon="6.42541">
        <ele>1489.4</ele>
        <time>2024-08-12T03:58:05Z</time>
      </trkpt>
      <trkpt lat="44.83483" lon="6.42541">
        <ele>1489.6</ele>
        <time>2024-08-12T03:58:06Z</time>
      </trkpt>
      <trkpt lat="44.83481" lon="6.42539">
        <ele>1489.6</ele>
        <time>2024-08-12T03:58:07Z</time>
      </trkpt>
      <trkpt lat="44.83481" lon="6.42539">
        <ele>1489.6</ele>
        <time>2024-08-12T03:58:08Z</time>
      </trkpt>
      <trkpt lat="44.83478" lon="6.42538">
        <ele>1489.8</ele>
        <time>2024-08-12T03:58:09Z</time>
      </trkpt>
      <trkpt lat="44.83478" lon="6.42538">
        <ele>1489.8</ele>
        <time>2024-08-12T03:58:10Z</time>
      </trkpt>
      <trkpt lat="44.83476" lon="6.42536">
        <ele>1489.8</ele>
        <time>2024-08-12T03:58:11Z</time>
      </trkpt>
      <trkpt lat="44.83476" lon="6.42536">
        <ele>1490.2</ele>
        <time>2024-08-12T03:58:12Z</time>
      </trkpt>
      <trkpt lat="44.83474" lon="6.42533">
        <ele>1490.4</ele>
        <time>2024-08-12T03:58:13Z</time>
      </trkpt>
      <trkpt lat="44.83474" lon="6.42533">
        <ele>1490.6</ele>
        <time>2024-08-12T03:58:14Z</time>
      </trkpt>
      <trkpt lat="44.83472" lon="6.4253">
        <ele>1490.6</ele>
        <time>2024-08-12T03:58:15Z</time>
      </trkpt>
      <trkpt lat="44.83472" lon="6.4253">
        <ele>1490.6</ele>
        <time>2024-08-12T03:58:16Z</time>
      </trkpt>
      <trkpt lat="44.83469" lon="6.42528">
        <ele>1490.6</ele>
        <time>2024-08-12T03:58:17Z</time>
      </trkpt>
      <trkpt lat="44.83469" lon="6.42528">
        <ele>1490.8</ele>
        <time>2024-08-12T03:58:18Z</time>
      </trkpt>
      <trkpt lat="44.83468" lon="6.42525">
        <ele>1491</ele>
        <time>2024-08-12T03:58:19Z</time>
      </trkpt>
      <trkpt lat="44.83468" lon="6.42525">
        <ele>1491</ele>
        <time>2024-08-12T03:58:20Z</time>
      </trkpt>
      <trkpt lat="44.83465" lon="6.42524">
        <ele>1491.2</ele>
        <time>2024-08-12T03:58:21Z</time>
      </trkpt>
      <trkpt lat="44.83465" lon="6.42524">
        <ele>1491.2</ele>
        <time>2024-08-12T03:58:22Z</time>
      </trkpt>
      <trkpt lat="44.83462" lon="6.42523">
        <ele>1491.4</ele>
        <time>2024-08-12T03:58:23Z</time>
      </trkpt>
      <trkpt lat="44.83462" lon="6.42523">
        <ele>1491.4</ele>
        <time>2024-08-12T03:58:24Z</time>
      </trkpt>
      <trkpt lat="44.8346" lon="6.42522">
        <ele>1491.4</ele>
        <time>2024-08-12T03:58:25Z</time>
      </trkpt>
      <trkpt lat="44.8346" lon="6.42522">
        <ele>1491.4</ele>
        <time>2024-08-12T03:58:26Z</time>
      </trkpt>
      <trkpt lat="44.83458" lon="6.42521">
        <ele>1491.8</ele>
        <time>2024-08-12T03:58:27Z</time>
      </trkpt>
      <trkpt lat="44.83458" lon="6.42521">
        <ele>1492</ele>
        <time>2024-08-12T03:58:28Z</time>
      </trkpt>
      <trkpt lat="44.83456" lon="6.42519">
        <ele>1492</ele>
        <time>2024-08-12T03:58:29Z</time>
      </trkpt>
      <trkpt lat="44.83456" lon="6.42519">
        <ele>1492.2</ele>
        <time>2024-08-12T03:58:30Z</time>
      </trkpt>
      <trkpt lat="44.83453" lon="6.42517">
        <ele>1492.4</ele>
        <time>2024-08-12T03:58:31Z</time>
      </trkpt>
      <trkpt lat="44.83453" lon="6.42517">
        <ele>1492.4</ele>
        <time>2024-08-12T03:58:32Z</time>
      </trkpt>
      <trkpt lat="44.83451" lon="6.42515">
        <ele>1492.6</ele>
        <time>2024-08-12T03:58:33Z</time>
      </trkpt>
      <trkpt lat="44.83451" lon="6.42515">
        <ele>1493</ele>
        <time>2024-08-12T03:58:34Z</time>
      </trkpt>
      <trkpt lat="44.83449" lon="6.42513">
        <ele>1493</ele>
        <time>2024-08-12T03:58:35Z</time>
      </trkpt>
      <trkpt lat="44.83449" lon="6.42513">
        <ele>1493</ele>
        <time>2024-08-12T03:58:36Z</time>
      </trkpt>
      <trkpt lat="44.83447" lon="6.4251">
        <ele>1493</ele>
        <time>2024-08-12T03:58:37Z</time>
      </trkpt>
      <trkpt lat="44.83447" lon="6.4251">
        <ele>1493.2</ele>
        <time>2024-08-12T03:58:38Z</time>
      </trkpt>
      <trkpt lat="44.83446" lon="6.42507">
        <ele>1493.2</ele>
        <time>2024-08-12T03:58:39Z</time>
      </trkpt>
      <trkpt lat="44.83446" lon="6.42507">
        <ele>1493.4</ele>
        <time>2024-08-12T03:58:40Z</time>
      </trkpt>
      <trkpt lat="44.83445" lon="6.42503">
        <ele>1493.8</ele>
        <time>2024-08-12T03:58:41Z</time>
      </trkpt>
      <trkpt lat="44.83445" lon="6.42503">
        <ele>1493.8</ele>
        <time>2024-08-12T03:58:42Z</time>
      </trkpt>
      <trkpt lat="44.83444" lon="6.42501">
        <ele>1493.6</ele>
        <time>2024-08-12T03:58:43Z</time>
      </trkpt>
      <trkpt lat="44.83444" lon="6.42501">
        <ele>1493.6</ele>
        <time>2024-08-12T03:58:44Z</time>
      </trkpt>
      <trkpt lat="44.83444" lon="6.42501">
        <ele>1493.6</ele>
        <time>2024-08-12T03:58:45Z</time>
      </trkpt>
      <trkpt lat="44.83444" lon="6.42497">
        <ele>1493.8</ele>
        <time>2024-08-12T03:58:46Z</time>
      </trkpt>
      <trkpt lat="44.83444" lon="6.42497">
        <ele>1494</ele>
        <time>2024-08-12T03:58:47Z</time>
      </trkpt>
      <trkpt lat="44.83443" lon="6.42493">
        <ele>1494</ele>
        <time>2024-08-12T03:58:48Z</time>
      </trkpt>
      <trkpt lat="44.83443" lon="6.42493">
        <ele>1494.2</ele>
        <time>2024-08-12T03:58:49Z</time>
      </trkpt>
      <trkpt lat="44.83442" lon="6.42489">
        <ele>1494.2</ele>
        <time>2024-08-12T03:58:50Z</time>
      </trkpt>
      <trkpt lat="44.83442" lon="6.42489">
        <ele>1494.2</ele>
        <time>2024-08-12T03:58:51Z</time>
      </trkpt>
      <trkpt lat="44.8344" lon="6.42486">
        <ele>1494.4</ele>
        <time>2024-08-12T03:58:52Z</time>
      </trkpt>
      <trkpt lat="44.8344" lon="6.42486">
        <ele>1494.4</ele>
        <time>2024-08-12T03:58:53Z</time>
      </trkpt>
      <trkpt lat="44.8344" lon="6.42482">
        <ele>1494.6</ele>
        <time>2024-08-12T03:58:54Z</time>
      </trkpt>
      <trkpt lat="44.8344" lon="6.42482">
        <ele>1494.8</ele>
        <time>2024-08-12T03:58:55Z</time>
      </trkpt>
      <trkpt lat="44.83438" lon="6.42479">
        <ele>1495</ele>
        <time>2024-08-12T03:58:56Z</time>
      </trkpt>
      <trkpt lat="44.83438" lon="6.42479">
        <ele>1495</ele>
        <time>2024-08-12T03:58:57Z</time>
      </trkpt>
      <trkpt lat="44.83437" lon="6.42475">
        <ele>1495.2</ele>
        <time>2024-08-12T03:58:58Z</time>
      </trkpt>
      <trkpt lat="44.83437" lon="6.42475">
        <ele>1495.2</ele>
        <time>2024-08-12T03:58:59Z</time>
      </trkpt>
      <trkpt lat="44.83436" lon="6.42471">
        <ele>1495.6</ele>
        <time>2024-08-12T03:59:00Z</time>
      </trkpt>
      <trkpt lat="44.83436" lon="6.42471">
        <ele>1495.6</ele>
        <time>2024-08-12T03:59:01Z</time>
      </trkpt>
      <trkpt lat="44.83435" lon="6.42468">
        <ele>1495.6</ele>
        <time>2024-08-12T03:59:02Z</time>
      </trkpt>
      <trkpt lat="44.83435" lon="6.42468">
        <ele>1495.6</ele>
        <time>2024-08-12T03:59:03Z</time>
      </trkpt>
      <trkpt lat="44.83434" lon="6.42464">
        <ele>1495.6</ele>
        <time>2024-08-12T03:59:04Z</time>
      </trkpt>
      <trkpt lat="44.83434" lon="6.42464">
        <ele>1495.6</ele>
        <time>2024-08-12T03:59:05Z</time>
      </trkpt>
      <trkpt lat="44.83432" lon="6.42461">
        <ele>1495.6</ele>
        <time>2024-08-12T03:59:06Z</time>
      </trkpt>
      <trkpt lat="44.83432" lon="6.42461">
        <ele>1495.8</ele>
        <time>2024-08-12T03:59:07Z</time>
      </trkpt>
      <trkpt lat="44.8343" lon="6.42458">
        <ele>1495.8</ele>
        <time>2024-08-12T03:59:08Z</time>
      </trkpt>
      <trkpt lat="44.8343" lon="6.42458">
        <ele>1496</ele>
        <time>2024-08-12T03:59:09Z</time>
      </trkpt>
      <trkpt lat="44.83429" lon="6.42455">
        <ele>1496</ele>
        <time>2024-08-12T03:59:10Z</time>
      </trkpt>
      <trkpt lat="44.83429" lon="6.42455">
        <ele>1496</ele>
        <time>2024-08-12T03:59:11Z</time>
      </trkpt>
      <trkpt lat="44.83427" lon="6.42452">
        <ele>1496</ele>
        <time>2024-08-12T03:59:12Z</time>
      </trkpt>
      <trkpt lat="44.83427" lon="6.42452">
        <ele>1496.2</ele>
        <time>2024-08-12T03:59:13Z</time>
      </trkpt>
      <trkpt lat="44.83425" lon="6.42449">
        <ele>1496.2</ele>
        <time>2024-08-12T03:59:14Z</time>
      </trkpt>
      <trkpt lat="44.83425" lon="6.42449">
        <ele>1496.2</ele>
        <time>2024-08-12T03:59:15Z</time>
      </trkpt>
      <trkpt lat="44.83424" lon="6.42446">
        <ele>1496.4</ele>
        <time>2024-08-12T03:59:16Z</time>
      </trkpt>
      <trkpt lat="44.83424" lon="6.42446">
        <ele>1496.4</ele>
        <time>2024-08-12T03:59:17Z</time>
      </trkpt>
      <trkpt lat="44.83422" lon="6.42443">
        <ele>1496.6</ele>
        <time>2024-08-12T03:59:18Z</time>
      </trkpt>
      <trkpt lat="44.83422" lon="6.42443">
        <ele>1496.6</ele>
        <time>2024-08-12T03:59:19Z</time>
      </trkpt>
      <trkpt lat="44.8342" lon="6.4244">
        <ele>1496.8</ele>
        <time>2024-08-12T03:59:20Z</time>
      </trkpt>
      <trkpt lat="44.83419" lon="6.42439">
        <ele>1497</ele>
        <time>2024-08-12T03:59:21Z</time>
      </trkpt>
      <trkpt lat="44.83419" lon="6.42439">
        <ele>1497</ele>
        <time>2024-08-12T03:59:22Z</time>
      </trkpt>
      <trkpt lat="44.83418" lon="6.42435">
        <ele>1497.2</ele>
        <time>2024-08-12T03:59:23Z</time>
      </trkpt>
      <trkpt lat="44.83418" lon="6.42435">
        <ele>1497.2</ele>
        <time>2024-08-12T03:59:24Z</time>
      </trkpt>
      <trkpt lat="44.83416" lon="6.42432">
        <ele>1497.4</ele>
        <time>2024-08-12T03:59:25Z</time>
      </trkpt>
      <trkpt lat="44.83416" lon="6.42432">
        <ele>1497.4</ele>
        <time>2024-08-12T03:59:26Z</time>
      </trkpt>
      <trkpt lat="44.83416" lon="6.42428">
        <ele>1497.4</ele>
        <time>2024-08-12T03:59:27Z</time>
      </trkpt>
      <trkpt lat="44.83416" lon="6.42428">
        <ele>1497.6</ele>
        <time>2024-08-12T03:59:28Z</time>
      </trkpt>
      <trkpt lat="44.83416" lon="6.42424">
        <ele>1498</ele>
        <time>2024-08-12T03:59:29Z</time>
      </trkpt>
      <trkpt lat="44.83416" lon="6.42424">
        <ele>1498</ele>
        <time>2024-08-12T03:59:30Z</time>
      </trkpt>
      <trkpt lat="44.83415" lon="6.42421">
        <ele>1498</ele>
        <time>2024-08-12T03:59:31Z</time>
      </trkpt>
      <trkpt lat="44.83415" lon="6.42421">
        <ele>1498.2</ele>
        <time>2024-08-12T03:59:32Z</time>
      </trkpt>
      <trkpt lat="44.83415" lon="6.42417">
        <ele>1498.2</ele>
        <time>2024-08-12T03:59:33Z</time>
      </trkpt>
      <trkpt lat="44.83415" lon="6.42417">
        <ele>1498.4</ele>
        <time>2024-08-12T03:59:34Z</time>
      </trkpt>
      <trkpt lat="44.83414" lon="6.42413">
        <ele>1498.4</ele>
        <time>2024-08-12T03:59:35Z</time>
      </trkpt>
      <trkpt lat="44.83414" lon="6.42413">
        <ele>1498.4</ele>
        <time>2024-08-12T03:59:36Z</time>
      </trkpt>
      <trkpt lat="44.83413" lon="6.4241">
        <ele>1498.6</ele>
        <time>2024-08-12T03:59:37Z</time>
      </trkpt>
      <trkpt lat="44.83413" lon="6.4241">
        <ele>1498.6</ele>
        <time>2024-08-12T03:59:38Z</time>
      </trkpt>
      <trkpt lat="44.83413" lon="6.42406">
        <ele>1498.8</ele>
        <time>2024-08-12T03:59:39Z</time>
      </trkpt>
      <trkpt lat="44.83413" lon="6.42406">
        <ele>1499</ele>
        <time>2024-08-12T03:59:40Z</time>
      </trkpt>
      <trkpt lat="44.83412" lon="6.42402">
        <ele>1499</ele>
        <time>2024-08-12T03:59:41Z</time>
      </trkpt>
      <trkpt lat="44.83412" lon="6.42402">
        <ele>1499.2</ele>
        <time>2024-08-12T03:59:42Z</time>
      </trkpt>
      <trkpt lat="44.83411" lon="6.42399">
        <ele>1499.4</ele>
        <time>2024-08-12T03:59:43Z</time>
      </trkpt>
      <trkpt lat="44.83411" lon="6.42399">
        <ele>1499.4</ele>
        <time>2024-08-12T03:59:44Z</time>
      </trkpt>
      <trkpt lat="44.8341" lon="6.42396">
        <ele>1499.6</ele>
        <time>2024-08-12T03:59:45Z</time>
      </trkpt>
      <trkpt lat="44.8341" lon="6.42396">
        <ele>1499.8</ele>
        <time>2024-08-12T03:59:46Z</time>
      </trkpt>
      <trkpt lat="44.83408" lon="6.42392">
        <ele>1500</ele>
        <time>2024-08-12T03:59:47Z</time>
      </trkpt>
      <trkpt lat="44.83408" lon="6.42392">
        <ele>1500.2</ele>
        <time>2024-08-12T03:59:48Z</time>
      </trkpt>
      <trkpt lat="44.83407" lon="6.42389">
        <ele>1500.2</ele>
        <time>2024-08-12T03:59:49Z</time>
      </trkpt>
      <trkpt lat="44.83407" lon="6.42389">
        <ele>1500.2</ele>
        <time>2024-08-12T03:59:50Z</time>
      </trkpt>
      <trkpt lat="44.83406" lon="6.42385">
        <ele>1500.2</ele>
        <time>2024-08-12T03:59:51Z</time>
      </trkpt>
      <trkpt lat="44.83406" lon="6.42385">
        <ele>1500.2</ele>
        <time>2024-08-12T03:59:52Z</time>
      </trkpt>
      <trkpt lat="44.83406" lon="6.42381">
        <ele>1500.6</ele>
        <time>2024-08-12T03:59:53Z</time>
      </trkpt>
      <trkpt lat="44.83406" lon="6.42381">
        <ele>1500.8</ele>
        <time>2024-08-12T03:59:54Z</time>
      </trkpt>
      <trkpt lat="44.83405" lon="6.42378">
        <ele>1501</ele>
        <time>2024-08-12T03:59:55Z</time>
      </trkpt>
      <trkpt lat="44.83405" lon="6.42378">
        <ele>1501.2</ele>
        <time>2024-08-12T03:59:56Z</time>
      </trkpt>
      <trkpt lat="44.83403" lon="6.42375">
        <ele>1501.2</ele>
        <time>2024-08-12T03:59:57Z</time>
      </trkpt>
      <trkpt lat="44.83403" lon="6.42375">
        <ele>1501.6</ele>
        <time>2024-08-12T03:59:58Z</time>
      </trkpt>
      <trkpt lat="44.83401" lon="6.42372">
        <ele>1501.8</ele>
        <time>2024-08-12T03:59:59Z</time>
      </trkpt>
      <trkpt lat="44.83401" lon="6.42372">
        <ele>1501.8</ele>
        <time>2024-08-12T04:00:00Z</time>
      </trkpt>
      <trkpt lat="44.83399" lon="6.42369">
        <ele>1502</ele>
        <time>2024-08-12T04:00:01Z</time>
      </trkpt>
      <trkpt lat="44.83399" lon="6.42369">
        <ele>1502.2</ele>
        <time>2024-08-12T04:00:02Z</time>
      </trkpt>
      <trkpt lat="44.83397" lon="6.42366">
        <ele>1502.2</ele>
        <time>2024-08-12T04:00:03Z</time>
      </trkpt>
      <trkpt lat="44.83397" lon="6.42366">
        <ele>1502.2</ele>
        <time>2024-08-12T04:00:04Z</time>
      </trkpt>
      <trkpt lat="44.83396" lon="6.42363">
        <ele>1502.2</ele>
        <time>2024-08-12T04:00:05Z</time>
      </trkpt>
      <trkpt lat="44.83396" lon="6.42363">
        <ele>1502.2</ele>
        <time>2024-08-12T04:00:06Z</time>
      </trkpt>
      <trkpt lat="44.83396" lon="6.42359">
        <ele>1502.4</ele>
        <time>2024-08-12T04:00:07Z</time>
      </trkpt>
      <trkpt lat="44.83396" lon="6.42359">
        <ele>1502.4</ele>
        <time>2024-08-12T04:00:08Z</time>
      </trkpt>
      <trkpt lat="44.83395" lon="6.42355">
        <ele>1502.6</ele>
        <time>2024-08-12T04:00:09Z</time>
      </trkpt>
      <trkpt lat="44.83395" lon="6.42355">
        <ele>1502.6</ele>
        <time>2024-08-12T04:00:10Z</time>
      </trkpt>
      <trkpt lat="44.83395" lon="6.42352">
        <ele>1502.8</ele>
        <time>2024-08-12T04:00:11Z</time>
      </trkpt>
      <trkpt lat="44.83395" lon="6.42352">
        <ele>1503</ele>
        <time>2024-08-12T04:00:12Z</time>
      </trkpt>
      <trkpt lat="44.83396" lon="6.42348">
        <ele>1503.2</ele>
        <time>2024-08-12T04:00:13Z</time>
      </trkpt>
      <trkpt lat="44.83396" lon="6.42348">
        <ele>1503.2</ele>
        <time>2024-08-12T04:00:14Z</time>
      </trkpt>
      <trkpt lat="44.83396" lon="6.42344">
        <ele>1503.2</ele>
        <time>2024-08-12T04:00:15Z</time>
      </trkpt>
      <trkpt lat="44.83396" lon="6.42344">
        <ele>1503.4</ele>
        <time>2024-08-12T04:00:16Z</time>
      </trkpt>
      <trkpt lat="44.83396" lon="6.4234">
        <ele>1503.4</ele>
        <time>2024-08-12T04:00:17Z</time>
      </trkpt>
      <trkpt lat="44.83396" lon="6.4234">
        <ele>1503.4</ele>
        <time>2024-08-12T04:00:18Z</time>
      </trkpt>
      <trkpt lat="44.83396" lon="6.42337">
        <ele>1503.6</ele>
        <time>2024-08-12T04:00:19Z</time>
      </trkpt>
      <trkpt lat="44.83396" lon="6.42337">
        <ele>1503.6</ele>
        <time>2024-08-12T04:00:20Z</time>
      </trkpt>
      <trkpt lat="44.83396" lon="6.42333">
        <ele>1503.8</ele>
        <time>2024-08-12T04:00:21Z</time>
      </trkpt>
      <trkpt lat="44.83396" lon="6.42333">
        <ele>1504</ele>
        <time>2024-08-12T04:00:22Z</time>
      </trkpt>
      <trkpt lat="44.83396" lon="6.4233">
        <ele>1504</ele>
        <time>2024-08-12T04:00:23Z</time>
      </trkpt>
      <trkpt lat="44.83396" lon="6.4233">
        <ele>1504.4</ele>
        <time>2024-08-12T04:00:24Z</time>
      </trkpt>
      <trkpt lat="44.83396" lon="6.42326">
        <ele>1504.4</ele>
        <time>2024-08-12T04:00:25Z</time>
      </trkpt>
      <trkpt lat="44.83396" lon="6.42326">
        <ele>1504.4</ele>
        <time>2024-08-12T04:00:26Z</time>
      </trkpt>
      <trkpt lat="44.83396" lon="6.42322">
        <ele>1504.6</ele>
        <time>2024-08-12T04:00:27Z</time>
      </trkpt>
      <trkpt lat="44.83396" lon="6.42322">
        <ele>1504.6</ele>
        <time>2024-08-12T04:00:28Z</time>
      </trkpt>
      <trkpt lat="44.83394" lon="6.42319">
        <ele>1504.8</ele>
        <time>2024-08-12T04:00:29Z</time>
      </trkpt>
      <trkpt lat="44.83394" lon="6.42319">
        <ele>1504.8</ele>
        <time>2024-08-12T04:00:30Z</time>
      </trkpt>
      <trkpt lat="44.83392" lon="6.42316">
        <ele>1504.8</ele>
        <time>2024-08-12T04:00:31Z</time>
      </trkpt>
      <trkpt lat="44.83392" lon="6.42316">
        <ele>1504.8</ele>
        <time>2024-08-12T04:00:32Z</time>
      </trkpt>
      <trkpt lat="44.83391" lon="6.42313">
        <ele>1505.2</ele>
        <time>2024-08-12T04:00:33Z</time>
      </trkpt>
      <trkpt lat="44.83391" lon="6.42313">
        <ele>1505.4</ele>
        <time>2024-08-12T04:00:34Z</time>
      </trkpt>
      <trkpt lat="44.83389" lon="6.4231">
        <ele>1505.4</ele>
        <time>2024-08-12T04:00:35Z</time>
      </trkpt>
      <trkpt lat="44.83389" lon="6.4231">
        <ele>1505.6</ele>
        <time>2024-08-12T04:00:36Z</time>
      </trkpt>
      <trkpt lat="44.83386" lon="6.42308">
        <ele>1505.6</ele>
        <time>2024-08-12T04:00:37Z</time>
      </trkpt>
      <trkpt lat="44.83386" lon="6.42308">
        <ele>1505.8</ele>
        <time>2024-08-12T04:00:38Z</time>
      </trkpt>
      <trkpt lat="44.83385" lon="6.42305">
        <ele>1505.8</ele>
        <time>2024-08-12T04:00:39Z</time>
      </trkpt>
      <trkpt lat="44.83385" lon="6.42305">
        <ele>1505.8</ele>
        <time>2024-08-12T04:00:40Z</time>
      </trkpt>
      <trkpt lat="44.83384" lon="6.42301">
        <ele>1505.8</ele>
        <time>2024-08-12T04:00:41Z</time>
      </trkpt>
      <trkpt lat="44.83384" lon="6.42301">
        <ele>1506</ele>
        <time>2024-08-12T04:00:42Z</time>
      </trkpt>
      <trkpt lat="44.83385" lon="6.42299">
        <ele>1506.4</ele>
        <time>2024-08-12T04:00:43Z</time>
      </trkpt>
      <trkpt lat="44.83385" lon="6.42299">
        <ele>1506.4</ele>
        <time>2024-08-12T04:00:44Z</time>
      </trkpt>
      <trkpt lat="44.83385" lon="6.42299">
        <ele>1506.6</ele>
        <time>2024-08-12T04:00:45Z</time>
      </trkpt>
      <trkpt lat="44.83384" lon="6.42295">
        <ele>1507</ele>
        <time>2024-08-12T04:00:46Z</time>
      </trkpt>
      <trkpt lat="44.83384" lon="6.42295">
        <ele>1507</ele>
        <time>2024-08-12T04:00:47Z</time>
      </trkpt>
      <trkpt lat="44.83384" lon="6.42292">
        <ele>1507</ele>
        <time>2024-08-12T04:00:48Z</time>
      </trkpt>
      <trkpt lat="44.83384" lon="6.42292">
        <ele>1507</ele>
        <time>2024-08-12T04:00:49Z</time>
      </trkpt>
      <trkpt lat="44.83383" lon="6.42288">
        <ele>1507</ele>
        <time>2024-08-12T04:00:50Z</time>
      </trkpt>
      <trkpt lat="44.83383" lon="6.42288">
        <ele>1507.2</ele>
        <time>2024-08-12T04:00:51Z</time>
      </trkpt>
      <trkpt lat="44.83384" lon="6.42283">
        <ele>1507.2</ele>
        <time>2024-08-12T04:00:52Z</time>
      </trkpt>
      <trkpt lat="44.83384" lon="6.42283">
        <ele>1507.2</ele>
        <time>2024-08-12T04:00:53Z</time>
      </trkpt>
      <trkpt lat="44.83383" lon="6.4228">
        <ele>1507.6</ele>
        <time>2024-08-12T04:00:54Z</time>
      </trkpt>
      <trkpt lat="44.83383" lon="6.4228">
        <ele>1507.6</ele>
        <time>2024-08-12T04:00:55Z</time>
      </trkpt>
      <trkpt lat="44.83382" lon="6.42277">
        <ele>1507.6</ele>
        <time>2024-08-12T04:00:56Z</time>
      </trkpt>
      <trkpt lat="44.83382" lon="6.42277">
        <ele>1507.8</ele>
        <time>2024-08-12T04:00:57Z</time>
      </trkpt>
      <trkpt lat="44.83382" lon="6.42273">
        <ele>1507.8</ele>
        <time>2024-08-12T04:00:58Z</time>
      </trkpt>
      <trkpt lat="44.83382" lon="6.42273">
        <ele>1507.8</ele>
        <time>2024-08-12T04:00:59Z</time>
      </trkpt>
      <trkpt lat="44.83382" lon="6.42269">
        <ele>1508</ele>
        <time>2024-08-12T04:01:00Z</time>
      </trkpt>
      <trkpt lat="44.83382" lon="6.42269">
        <ele>1508</ele>
        <time>2024-08-12T04:01:01Z</time>
      </trkpt>
      <trkpt lat="44.83381" lon="6.42265">
        <ele>1508.4</ele>
        <time>2024-08-12T04:01:02Z</time>
      </trkpt>
      <trkpt lat="44.83381" lon="6.42265">
        <ele>1508.4</ele>
        <time>2024-08-12T04:01:03Z</time>
      </trkpt>
      <trkpt lat="44.83381" lon="6.42261">
        <ele>1508.4</ele>
        <time>2024-08-12T04:01:04Z</time>
      </trkpt>
      <trkpt lat="44.83381" lon="6.42261">
        <ele>1508.6</ele>
        <time>2024-08-12T04:01:05Z</time>
      </trkpt>
      <trkpt lat="44.83381" lon="6.42258">
        <ele>1508.8</ele>
        <time>2024-08-12T04:01:06Z</time>
      </trkpt>
      <trkpt lat="44.83381" lon="6.42258">
        <ele>1509</ele>
        <time>2024-08-12T04:01:07Z</time>
      </trkpt>
      <trkpt lat="44.83381" lon="6.42254">
        <ele>1509</ele>
        <time>2024-08-12T04:01:08Z</time>
      </trkpt>
      <trkpt lat="44.83381" lon="6.42254">
        <ele>1509.2</ele>
        <time>2024-08-12T04:01:09Z</time>
      </trkpt>
      <trkpt lat="44.83381" lon="6.4225">
        <ele>1509.2</ele>
        <time>2024-08-12T04:01:10Z</time>
      </trkpt>
      <trkpt lat="44.83381" lon="6.4225">
        <ele>1509.2</ele>
        <time>2024-08-12T04:01:11Z</time>
      </trkpt>
      <trkpt lat="44.8338" lon="6.42247">
        <ele>1509.2</ele>
        <time>2024-08-12T04:01:12Z</time>
      </trkpt>
      <trkpt lat="44.8338" lon="6.42247">
        <ele>1509.6</ele>
        <time>2024-08-12T04:01:13Z</time>
      </trkpt>
      <trkpt lat="44.8338" lon="6.42244">
        <ele>1509.8</ele>
        <time>2024-08-12T04:01:14Z</time>
      </trkpt>
      <trkpt lat="44.8338" lon="6.42244">
        <ele>1509.8</ele>
        <time>2024-08-12T04:01:15Z</time>
      </trkpt>
      <trkpt lat="44.8338" lon="6.4224">
        <ele>1510</ele>
        <time>2024-08-12T04:01:16Z</time>
      </trkpt>
      <trkpt lat="44.8338" lon="6.4224">
        <ele>1510</ele>
        <time>2024-08-12T04:01:17Z</time>
      </trkpt>
      <trkpt lat="44.8338" lon="6.42237">
        <ele>1510</ele>
        <time>2024-08-12T04:01:18Z</time>
      </trkpt>
      <trkpt lat="44.8338" lon="6.42237">
        <ele>1510.2</ele>
        <time>2024-08-12T04:01:19Z</time>
      </trkpt>
      <trkpt lat="44.83379" lon="6.42233">
        <ele>1510.6</ele>
        <time>2024-08-12T04:01:20Z</time>
      </trkpt>
      <trkpt lat="44.83379" lon="6.42233">
        <ele>1510.6</ele>
        <time>2024-08-12T04:01:21Z</time>
      </trkpt>
      <trkpt lat="44.83379" lon="6.42229">
        <ele>1510.6</ele>
        <time>2024-08-12T04:01:22Z</time>
      </trkpt>
      <trkpt lat="44.83379" lon="6.42229">
        <ele>1510.8</ele>
        <time>2024-08-12T04:01:23Z</time>
      </trkpt>
      <trkpt lat="44.83379" lon="6.42225">
        <ele>1511</ele>
        <time>2024-08-12T04:01:24Z</time>
      </trkpt>
      <trkpt lat="44.83379" lon="6.42225">
        <ele>1511.2</ele>
        <time>2024-08-12T04:01:25Z</time>
      </trkpt>
      <trkpt lat="44.83378" lon="6.42221">
        <ele>1511.4</ele>
        <time>2024-08-12T04:01:26Z</time>
      </trkpt>
      <trkpt lat="44.83378" lon="6.42221">
        <ele>1511.6</ele>
        <time>2024-08-12T04:01:27Z</time>
      </trkpt>
      <trkpt lat="44.83378" lon="6.42218">
        <ele>1511.6</ele>
        <time>2024-08-12T04:01:28Z</time>
      </trkpt>
      <trkpt lat="44.83378" lon="6.42218">
        <ele>1511.6</ele>
        <time>2024-08-12T04:01:29Z</time>
      </trkpt>
      <trkpt lat="44.83378" lon="6.42218">
        <ele>1511.6</ele>
        <time>2024-08-12T04:01:30Z</time>
      </trkpt>
      <trkpt lat="44.83378" lon="6.42215">
        <ele>1511.8</ele>
        <time>2024-08-12T04:01:31Z</time>
      </trkpt>
      <trkpt lat="44.83378" lon="6.42215">
        <ele>1512.2</ele>
        <time>2024-08-12T04:01:32Z</time>
      </trkpt>
      <trkpt lat="44.83378" lon="6.42212">
        <ele>1512.2</ele>
        <time>2024-08-12T04:01:33Z</time>
      </trkpt>
      <trkpt lat="44.83378" lon="6.42212">
        <ele>1512.2</ele>
        <time>2024-08-12T04:01:34Z</time>
      </trkpt>
      <trkpt lat="44.83378" lon="6.42208">
        <ele>1512.2</ele>
        <time>2024-08-12T04:01:35Z</time>
      </trkpt>
      <trkpt lat="44.83378" lon="6.42208">
        <ele>1512.2</ele>
        <time>2024-08-12T04:01:36Z</time>
      </trkpt>
      <trkpt lat="44.83378" lon="6.42204">
        <ele>1512.2</ele>
        <time>2024-08-12T04:01:37Z</time>
      </trkpt>
      <trkpt lat="44.83378" lon="6.42204">
        <ele>1512.4</ele>
        <time>2024-08-12T04:01:38Z</time>
      </trkpt>
      <trkpt lat="44.83378" lon="6.422">
        <ele>1512.6</ele>
        <time>2024-08-12T04:01:39Z</time>
      </trkpt>
      <trkpt lat="44.83378" lon="6.422">
        <ele>1512.8</ele>
        <time>2024-08-12T04:01:40Z</time>
      </trkpt>
      <trkpt lat="44.83378" lon="6.42196">
        <ele>1512.8</ele>
        <time>2024-08-12T04:01:41Z</time>
      </trkpt>
      <trkpt lat="44.83378" lon="6.42196">
        <ele>1512.8</ele>
        <time>2024-08-12T04:01:42Z</time>
      </trkpt>
      <trkpt lat="44.83378" lon="6.42192">
        <ele>1513</ele>
        <time>2024-08-12T04:01:43Z</time>
      </trkpt>
      <trkpt lat="44.83378" lon="6.42192">
        <ele>1513.2</ele>
        <time>2024-08-12T04:01:44Z</time>
      </trkpt>
      <trkpt lat="44.83378" lon="6.42188">
        <ele>1513.2</ele>
        <time>2024-08-12T04:01:45Z</time>
      </trkpt>
      <trkpt lat="44.83378" lon="6.42188">
        <ele>1513.2</ele>
        <time>2024-08-12T04:01:46Z</time>
      </trkpt>
      <trkpt lat="44.83378" lon="6.42184">
        <ele>1513.4</ele>
        <time>2024-08-12T04:01:47Z</time>
      </trkpt>
      <trkpt lat="44.83378" lon="6.42184">
        <ele>1513.6</ele>
        <time>2024-08-12T04:01:48Z</time>
      </trkpt>
      <trkpt lat="44.83378" lon="6.4218">
        <ele>1513.6</ele>
        <time>2024-08-12T04:01:49Z</time>
      </trkpt>
      <trkpt lat="44.83378" lon="6.4218">
        <ele>1513.8</ele>
        <time>2024-08-12T04:01:50Z</time>
      </trkpt>
      <trkpt lat="44.83378" lon="6.42176">
        <ele>1513.8</ele>
        <time>2024-08-12T04:01:51Z</time>
      </trkpt>
      <trkpt lat="44.83378" lon="6.42176">
        <ele>1513.8</ele>
        <time>2024-08-12T04:01:52Z</time>
      </trkpt>
      <trkpt lat="44.83378" lon="6.42173">
        <ele>1513.8</ele>
        <time>2024-08-12T04:01:53Z</time>
      </trkpt>
      <trkpt lat="44.83378" lon="6.42173">
        <ele>1513.8</ele>
        <time>2024-08-12T04:01:54Z</time>
      </trkpt>
      <trkpt lat="44.83378" lon="6.42168">
        <ele>1514</ele>
        <time>2024-08-12T04:01:55Z</time>
      </trkpt>
      <trkpt lat="44.83378" lon="6.42168">
        <ele>1514</ele>
        <time>2024-08-12T04:01:56Z</time>
      </trkpt>
      <trkpt lat="44.83378" lon="6.42165">
        <ele>1514</ele>
        <time>2024-08-12T04:01:57Z</time>
      </trkpt>
      <trkpt lat="44.83378" lon="6.42165">
        <ele>1514.2</ele>
        <time>2024-08-12T04:01:58Z</time>
      </trkpt>
      <trkpt lat="44.83378" lon="6.42161">
        <ele>1514.6</ele>
        <time>2024-08-12T04:01:59Z</time>
      </trkpt>
      <trkpt lat="44.83378" lon="6.42161">
        <ele>1515</ele>
        <time>2024-08-12T04:02:00Z</time>
      </trkpt>
      <trkpt lat="44.83377" lon="6.42157">
        <ele>1515</ele>
        <time>2024-08-12T04:02:01Z</time>
      </trkpt>
      <trkpt lat="44.83377" lon="6.42157">
        <ele>1515.4</ele>
        <time>2024-08-12T04:02:02Z</time>
      </trkpt>
      <trkpt lat="44.83377" lon="6.42153">
        <ele>1515.4</ele>
        <time>2024-08-12T04:02:03Z</time>
      </trkpt>
      <trkpt lat="44.83377" lon="6.42153">
        <ele>1515.4</ele>
        <time>2024-08-12T04:02:04Z</time>
      </trkpt>
      <trkpt lat="44.83376" lon="6.42148">
        <ele>1515.6</ele>
        <time>2024-08-12T04:02:05Z</time>
      </trkpt>
      <trkpt lat="44.83376" lon="6.42148">
        <ele>1515.8</ele>
        <time>2024-08-12T04:02:06Z</time>
      </trkpt>
      <trkpt lat="44.83376" lon="6.42145">
        <ele>1516</ele>
        <time>2024-08-12T04:02:07Z</time>
      </trkpt>
      <trkpt lat="44.83376" lon="6.42145">
        <ele>1516.4</ele>
        <time>2024-08-12T04:02:08Z</time>
      </trkpt>
      <trkpt lat="44.83375" lon="6.42141">
        <ele>1516.6</ele>
        <time>2024-08-12T04:02:09Z</time>
      </trkpt>
      <trkpt lat="44.83375" lon="6.42141">
        <ele>1516.6</ele>
        <time>2024-08-12T04:02:10Z</time>
      </trkpt>
      <trkpt lat="44.83373" lon="6.42138">
        <ele>1516.4</ele>
        <time>2024-08-12T04:02:11Z</time>
      </trkpt>
      <trkpt lat="44.83373" lon="6.42138">
        <ele>1516.4</ele>
        <time>2024-08-12T04:02:12Z</time>
      </trkpt>
      <trkpt lat="44.83371" lon="6.42135">
        <ele>1516.8</ele>
        <time>2024-08-12T04:02:13Z</time>
      </trkpt>
      <trkpt lat="44.83371" lon="6.42135">
        <ele>1516.8</ele>
        <time>2024-08-12T04:02:14Z</time>
      </trkpt>
      <trkpt lat="44.83369" lon="6.42133">
        <ele>1516.8</ele>
        <time>2024-08-12T04:02:15Z</time>
      </trkpt>
      <trkpt lat="44.83369" lon="6.42133">
        <ele>1517</ele>
        <time>2024-08-12T04:02:16Z</time>
      </trkpt>
      <trkpt lat="44.83366" lon="6.4213">
        <ele>1517</ele>
        <time>2024-08-12T04:02:17Z</time>
      </trkpt>
      <trkpt lat="44.83366" lon="6.4213">
        <ele>1517.2</ele>
        <time>2024-08-12T04:02:18Z</time>
      </trkpt>
      <trkpt lat="44.83365" lon="6.42128">
        <ele>1517.2</ele>
        <time>2024-08-12T04:02:19Z</time>
      </trkpt>
      <trkpt lat="44.83365" lon="6.42128">
        <ele>1517.2</ele>
        <time>2024-08-12T04:02:20Z</time>
      </trkpt>
      <trkpt lat="44.83362" lon="6.42126">
        <ele>1517.2</ele>
        <time>2024-08-12T04:02:21Z</time>
      </trkpt>
      <trkpt lat="44.83362" lon="6.42126">
        <ele>1517.2</ele>
        <time>2024-08-12T04:02:22Z</time>
      </trkpt>
      <trkpt lat="44.8336" lon="6.42124">
        <ele>1517.4</ele>
        <time>2024-08-12T04:02:23Z</time>
      </trkpt>
      <trkpt lat="44.8336" lon="6.42124">
        <ele>1517.4</ele>
        <time>2024-08-12T04:02:24Z</time>
      </trkpt>
      <trkpt lat="44.83358" lon="6.42123">
        <ele>1518</ele>
        <time>2024-08-12T04:02:25Z</time>
      </trkpt>
      <trkpt lat="44.83358" lon="6.42123">
        <ele>1518.2</ele>
        <time>2024-08-12T04:02:26Z</time>
      </trkpt>
      <trkpt lat="44.83356" lon="6.42123">
        <ele>1518.2</ele>
        <time>2024-08-12T04:02:27Z</time>
      </trkpt>
      <trkpt lat="44.83356" lon="6.42123">
        <ele>1518.4</ele>
        <time>2024-08-12T04:02:28Z</time>
      </trkpt>
      <trkpt lat="44.83353" lon="6.42121">
        <ele>1518.4</ele>
        <time>2024-08-12T04:02:29Z</time>
      </trkpt>
      <trkpt lat="44.83353" lon="6.42121">
        <ele>1518.4</ele>
        <time>2024-08-12T04:02:30Z</time>
      </trkpt>
      <trkpt lat="44.83351" lon="6.42118">
        <ele>1518.4</ele>
        <time>2024-08-12T04:02:31Z</time>
      </trkpt>
      <trkpt lat="44.83351" lon="6.42118">
        <ele>1518.4</ele>
        <time>2024-08-12T04:02:32Z</time>
      </trkpt>
      <trkpt lat="44.83349" lon="6.42115">
        <ele>1518.6</ele>
        <time>2024-08-12T04:02:33Z</time>
      </trkpt>
      <trkpt lat="44.83349" lon="6.42115">
        <ele>1518.6</ele>
        <time>2024-08-12T04:02:34Z</time>
      </trkpt>
      <trkpt lat="44.83347" lon="6.42112">
        <ele>1518.8</ele>
        <time>2024-08-12T04:02:35Z</time>
      </trkpt>
      <trkpt lat="44.83347" lon="6.42112">
        <ele>1519</ele>
        <time>2024-08-12T04:02:36Z</time>
      </trkpt>
      <trkpt lat="44.83345" lon="6.4211">
        <ele>1519.2</ele>
        <time>2024-08-12T04:02:37Z</time>
      </trkpt>
      <trkpt lat="44.83345" lon="6.4211">
        <ele>1519.2</ele>
        <time>2024-08-12T04:02:38Z</time>
      </trkpt>
      <trkpt lat="44.83343" lon="6.42107">
        <ele>1519.2</ele>
        <time>2024-08-12T04:02:39Z</time>
      </trkpt>
      <trkpt lat="44.83343" lon="6.42107">
        <ele>1519.2</ele>
        <time>2024-08-12T04:02:40Z</time>
      </trkpt>
      <trkpt lat="44.83341" lon="6.42105">
        <ele>1519.4</ele>
        <time>2024-08-12T04:02:41Z</time>
      </trkpt>
      <trkpt lat="44.83341" lon="6.42105">
        <ele>1519.6</ele>
        <time>2024-08-12T04:02:42Z</time>
      </trkpt>
      <trkpt lat="44.83339" lon="6.42102">
        <ele>1519.8</ele>
        <time>2024-08-12T04:02:43Z</time>
      </trkpt>
      <trkpt lat="44.83339" lon="6.42102">
        <ele>1520</ele>
        <time>2024-08-12T04:02:44Z</time>
      </trkpt>
      <trkpt lat="44.83338" lon="6.42098">
        <ele>1520.2</ele>
        <time>2024-08-12T04:02:45Z</time>
      </trkpt>
      <trkpt lat="44.83338" lon="6.42098">
        <ele>1520.2</ele>
        <time>2024-08-12T04:02:46Z</time>
      </trkpt>
      <trkpt lat="44.83336" lon="6.42095">
        <ele>1520.4</ele>
        <time>2024-08-12T04:02:47Z</time>
      </trkpt>
      <trkpt lat="44.83336" lon="6.42095">
        <ele>1520.4</ele>
        <time>2024-08-12T04:02:48Z</time>
      </trkpt>
      <trkpt lat="44.83334" lon="6.42092">
        <ele>1520.6</ele>
        <time>2024-08-12T04:02:49Z</time>
      </trkpt>
      <trkpt lat="44.83334" lon="6.42092">
        <ele>1520.6</ele>
        <time>2024-08-12T04:02:50Z</time>
      </trkpt>
      <trkpt lat="44.83333" lon="6.42089">
        <ele>1520.8</ele>
        <time>2024-08-12T04:02:51Z</time>
      </trkpt>
      <trkpt lat="44.83331" lon="6.42087">
        <ele>1520.8</ele>
        <time>2024-08-12T04:02:52Z</time>
      </trkpt>
      <trkpt lat="44.83331" lon="6.42087">
        <ele>1520.8</ele>
        <time>2024-08-12T04:02:53Z</time>
      </trkpt>
      <trkpt lat="44.83331" lon="6.42083">
        <ele>1520.8</ele>
        <time>2024-08-12T04:02:54Z</time>
      </trkpt>
      <trkpt lat="44.83331" lon="6.42083">
        <ele>1520.8</ele>
        <time>2024-08-12T04:02:55Z</time>
      </trkpt>
      <trkpt lat="44.8333" lon="6.4208">
        <ele>1521</ele>
        <time>2024-08-12T04:02:56Z</time>
      </trkpt>
      <trkpt lat="44.8333" lon="6.4208">
        <ele>1521.2</ele>
        <time>2024-08-12T04:02:57Z</time>
      </trkpt>
      <trkpt lat="44.83329" lon="6.42076">
        <ele>1521.4</ele>
        <time>2024-08-12T04:02:58Z</time>
      </trkpt>
      <trkpt lat="44.83329" lon="6.42076">
        <ele>1521.4</ele>
        <time>2024-08-12T04:02:59Z</time>
      </trkpt>
      <trkpt lat="44.83329" lon="6.42072">
        <ele>1521.6</ele>
        <time>2024-08-12T04:03:00Z</time>
      </trkpt>
      <trkpt lat="44.83329" lon="6.42072">
        <ele>1521.6</ele>
        <time>2024-08-12T04:03:01Z</time>
      </trkpt>
      <trkpt lat="44.83327" lon="6.42068">
        <ele>1521.4</ele>
        <time>2024-08-12T04:03:02Z</time>
      </trkpt>
      <trkpt lat="44.83327" lon="6.42068">
        <ele>1521.4</ele>
        <time>2024-08-12T04:03:03Z</time>
      </trkpt>
      <trkpt lat="44.83325" lon="6.42065">
        <ele>1521.4</ele>
        <time>2024-08-12T04:03:04Z</time>
      </trkpt>
      <trkpt lat="44.83325" lon="6.42065">
        <ele>1521.4</ele>
        <time>2024-08-12T04:03:05Z</time>
      </trkpt>
      <trkpt lat="44.83323" lon="6.42063">
        <ele>1521.4</ele>
        <time>2024-08-12T04:03:06Z</time>
      </trkpt>
      <trkpt lat="44.83323" lon="6.42063">
        <ele>1521.4</ele>
        <time>2024-08-12T04:03:07Z</time>
      </trkpt>
      <trkpt lat="44.83321" lon="6.42061">
        <ele>1521.4</ele>
        <time>2024-08-12T04:03:08Z</time>
      </trkpt>
      <trkpt lat="44.83321" lon="6.42061">
        <ele>1521.4</ele>
        <time>2024-08-12T04:03:09Z</time>
      </trkpt>
      <trkpt lat="44.83319" lon="6.42058">
        <ele>1521.6</ele>
        <time>2024-08-12T04:03:10Z</time>
      </trkpt>
      <trkpt lat="44.83319" lon="6.42058">
        <ele>1521.8</ele>
        <time>2024-08-12T04:03:11Z</time>
      </trkpt>
      <trkpt lat="44.83317" lon="6.42056">
        <ele>1521.8</ele>
        <time>2024-08-12T04:03:12Z</time>
      </trkpt>
      <trkpt lat="44.83317" lon="6.42056">
        <ele>1522</ele>
        <time>2024-08-12T04:03:13Z</time>
      </trkpt>
      <trkpt lat="44.83316" lon="6.42053">
        <ele>1522.2</ele>
        <time>2024-08-12T04:03:14Z</time>
      </trkpt>
      <trkpt lat="44.83316" lon="6.42053">
        <ele>1522.2</ele>
        <time>2024-08-12T04:03:15Z</time>
      </trkpt>
      <trkpt lat="44.83315" lon="6.42049">
        <ele>1522.4</ele>
        <time>2024-08-12T04:03:16Z</time>
      </trkpt>
      <trkpt lat="44.83315" lon="6.42049">
        <ele>1522.4</ele>
        <time>2024-08-12T04:03:17Z</time>
      </trkpt>
      <trkpt lat="44.83313" lon="6.42045">
        <ele>1522.4</ele>
        <time>2024-08-12T04:03:18Z</time>
      </trkpt>
      <trkpt lat="44.83313" lon="6.42045">
        <ele>1522.6</ele>
        <time>2024-08-12T04:03:19Z</time>
      </trkpt>
      <trkpt lat="44.83312" lon="6.42041">
        <ele>1522.6</ele>
        <time>2024-08-12T04:03:20Z</time>
      </trkpt>
      <trkpt lat="44.83312" lon="6.42041">
        <ele>1522.6</ele>
        <time>2024-08-12T04:03:21Z</time>
      </trkpt>
      <trkpt lat="44.83312" lon="6.42037">
        <ele>1522.8</ele>
        <time>2024-08-12T04:03:22Z</time>
      </trkpt>
      <trkpt lat="44.83312" lon="6.42037">
        <ele>1522.8</ele>
        <time>2024-08-12T04:03:23Z</time>
      </trkpt>
      <trkpt lat="44.83311" lon="6.42034">
        <ele>1522.8</ele>
        <time>2024-08-12T04:03:24Z</time>
      </trkpt>
      <trkpt lat="44.83311" lon="6.42034">
        <ele>1522.8</ele>
        <time>2024-08-12T04:03:25Z</time>
      </trkpt>
      <trkpt lat="44.83311" lon="6.42031">
        <ele>1523</ele>
        <time>2024-08-12T04:03:26Z</time>
      </trkpt>
      <trkpt lat="44.83311" lon="6.42031">
        <ele>1523</ele>
        <time>2024-08-12T04:03:27Z</time>
      </trkpt>
      <trkpt lat="44.8331" lon="6.42027">
        <ele>1523</ele>
        <time>2024-08-12T04:03:28Z</time>
      </trkpt>
      <trkpt lat="44.8331" lon="6.42027">
        <ele>1523.2</ele>
        <time>2024-08-12T04:03:29Z</time>
      </trkpt>
      <trkpt lat="44.83311" lon="6.42023">
        <ele>1523.2</ele>
        <time>2024-08-12T04:03:30Z</time>
      </trkpt>
      <trkpt lat="44.83311" lon="6.42023">
        <ele>1523.2</ele>
        <time>2024-08-12T04:03:31Z</time>
      </trkpt>
      <trkpt lat="44.8331" lon="6.42019">
        <ele>1523.4</ele>
        <time>2024-08-12T04:03:32Z</time>
      </trkpt>
      <trkpt lat="44.8331" lon="6.42019">
        <ele>1523.4</ele>
        <time>2024-08-12T04:03:33Z</time>
      </trkpt>
      <trkpt lat="44.8331" lon="6.42015">
        <ele>1523.8</ele>
        <time>2024-08-12T04:03:34Z</time>
      </trkpt>
      <trkpt lat="44.8331" lon="6.42015">
        <ele>1523.8</ele>
        <time>2024-08-12T04:03:35Z</time>
      </trkpt>
      <trkpt lat="44.83309" lon="6.42011">
        <ele>1523.8</ele>
        <time>2024-08-12T04:03:36Z</time>
      </trkpt>
      <trkpt lat="44.83309" lon="6.42011">
        <ele>1523.8</ele>
        <time>2024-08-12T04:03:37Z</time>
      </trkpt>
      <trkpt lat="44.83309" lon="6.42007">
        <ele>1524</ele>
        <time>2024-08-12T04:03:38Z</time>
      </trkpt>
      <trkpt lat="44.83309" lon="6.42007">
        <ele>1524</ele>
        <time>2024-08-12T04:03:39Z</time>
      </trkpt>
      <trkpt lat="44.83309" lon="6.42002">
        <ele>1524.2</ele>
        <time>2024-08-12T04:03:40Z</time>
      </trkpt>
      <trkpt lat="44.83309" lon="6.42002">
        <ele>1524.2</ele>
        <time>2024-08-12T04:03:41Z</time>
      </trkpt>
      <trkpt lat="44.83309" lon="6.41998">
        <ele>1524.4</ele>
        <time>2024-08-12T04:03:42Z</time>
      </trkpt>
      <trkpt lat="44.83309" lon="6.41998">
        <ele>1524.6</ele>
        <time>2024-08-12T04:03:43Z</time>
      </trkpt>
      <trkpt lat="44.83308" lon="6.41993">
        <ele>1525</ele>
        <time>2024-08-12T04:03:44Z</time>
      </trkpt>
      <trkpt lat="44.83308" lon="6.41993">
        <ele>1525</ele>
        <time>2024-08-12T04:03:45Z</time>
      </trkpt>
      <trkpt lat="44.83309" lon="6.4199">
        <ele>1525</ele>
        <time>2024-08-12T04:03:46Z</time>
      </trkpt>
      <trkpt lat="44.83309" lon="6.4199">
        <ele>1525</ele>
        <time>2024-08-12T04:03:47Z</time>
      </trkpt>
      <trkpt lat="44.83309" lon="6.41987">
        <ele>1525</ele>
        <time>2024-08-12T04:03:48Z</time>
      </trkpt>
      <trkpt lat="44.83309" lon="6.41987">
        <ele>1525</ele>
        <time>2024-08-12T04:03:49Z</time>
      </trkpt>
      <trkpt lat="44.8331" lon="6.41983">
        <ele>1525.2</ele>
        <time>2024-08-12T04:03:50Z</time>
      </trkpt>
      <trkpt lat="44.8331" lon="6.41983">
        <ele>1525.2</ele>
        <time>2024-08-12T04:03:51Z</time>
      </trkpt>
      <trkpt lat="44.83311" lon="6.41979">
        <ele>1525.2</ele>
        <time>2024-08-12T04:03:52Z</time>
      </trkpt>
      <trkpt lat="44.83311" lon="6.41979">
        <ele>1525.2</ele>
        <time>2024-08-12T04:03:53Z</time>
      </trkpt>
      <trkpt lat="44.83313" lon="6.41975">
        <ele>1525.2</ele>
        <time>2024-08-12T04:03:54Z</time>
      </trkpt>
      <trkpt lat="44.83313" lon="6.41975">
        <ele>1525.2</ele>
        <time>2024-08-12T04:03:55Z</time>
      </trkpt>
      <trkpt lat="44.83314" lon="6.41971">
        <ele>1525.4</ele>
        <time>2024-08-12T04:03:56Z</time>
      </trkpt>
      <trkpt lat="44.83314" lon="6.41971">
        <ele>1525.4</ele>
        <time>2024-08-12T04:03:57Z</time>
      </trkpt>
      <trkpt lat="44.83314" lon="6.41967">
        <ele>1525.8</ele>
        <time>2024-08-12T04:03:58Z</time>
      </trkpt>
      <trkpt lat="44.83314" lon="6.41967">
        <ele>1525.8</ele>
        <time>2024-08-12T04:03:59Z</time>
      </trkpt>
      <trkpt lat="44.83315" lon="6.41963">
        <ele>1526</ele>
        <time>2024-08-12T04:04:00Z</time>
      </trkpt>
      <trkpt lat="44.83315" lon="6.41963">
        <ele>1526.2</ele>
        <time>2024-08-12T04:04:01Z</time>
      </trkpt>
      <trkpt lat="44.83314" lon="6.4196">
        <ele>1526.2</ele>
        <time>2024-08-12T04:04:02Z</time>
      </trkpt>
      <trkpt lat="44.83314" lon="6.4196">
        <ele>1526.2</ele>
        <time>2024-08-12T04:04:03Z</time>
      </trkpt>
      <trkpt lat="44.83314" lon="6.41956">
        <ele>1526.2</ele>
        <time>2024-08-12T04:04:04Z</time>
      </trkpt>
      <trkpt lat="44.83314" lon="6.41956">
        <ele>1526.4</ele>
        <time>2024-08-12T04:04:05Z</time>
      </trkpt>
      <trkpt lat="44.83315" lon="6.41953">
        <ele>1527</ele>
        <time>2024-08-12T04:04:06Z</time>
      </trkpt>
      <trkpt lat="44.83315" lon="6.41953">
        <ele>1527</ele>
        <time>2024-08-12T04:04:07Z</time>
      </trkpt>
      <trkpt lat="44.83314" lon="6.4195">
        <ele>1527</ele>
        <time>2024-08-12T04:04:08Z</time>
      </trkpt>
      <trkpt lat="44.83314" lon="6.4195">
        <ele>1527</ele>
        <time>2024-08-12T04:04:09Z</time>
      </trkpt>
      <trkpt lat="44.83315" lon="6.41945">
        <ele>1527.2</ele>
        <time>2024-08-12T04:04:10Z</time>
      </trkpt>
      <trkpt lat="44.83315" lon="6.41945">
        <ele>1527.4</ele>
        <time>2024-08-12T04:04:11Z</time>
      </trkpt>
      <trkpt lat="44.83316" lon="6.41941">
        <ele>1527.4</ele>
        <time>2024-08-12T04:04:12Z</time>
      </trkpt>
      <trkpt lat="44.83317" lon="6.41939">
        <ele>1527.8</ele>
        <time>2024-08-12T04:04:13Z</time>
      </trkpt>
      <trkpt lat="44.83317" lon="6.41939">
        <ele>1528</ele>
        <time>2024-08-12T04:04:14Z</time>
      </trkpt>
      <trkpt lat="44.83317" lon="6.41935">
        <ele>1528</ele>
        <time>2024-08-12T04:04:15Z</time>
      </trkpt>
      <trkpt lat="44.83317" lon="6.41935">
        <ele>1528</ele>
        <time>2024-08-12T04:04:16Z</time>
      </trkpt>
      <trkpt lat="44.83317" lon="6.41931">
        <ele>1528.2</ele>
        <time>2024-08-12T04:04:17Z</time>
      </trkpt>
      <trkpt lat="44.83317" lon="6.41928">
        <ele>1528.2</ele>
        <time>2024-08-12T04:04:18Z</time>
      </trkpt>
      <trkpt lat="44.83317" lon="6.41928">
        <ele>1528.2</ele>
        <time>2024-08-12T04:04:19Z</time>
      </trkpt>
      <trkpt lat="44.83317" lon="6.41924">
        <ele>1528.2</ele>
        <time>2024-08-12T04:04:20Z</time>
      </trkpt>
      <trkpt lat="44.83317" lon="6.41924">
        <ele>1528.2</ele>
        <time>2024-08-12T04:04:21Z</time>
      </trkpt>
      <trkpt lat="44.83317" lon="6.41921">
        <ele>1528.6</ele>
        <time>2024-08-12T04:04:22Z</time>
      </trkpt>
      <trkpt lat="44.83317" lon="6.41921">
        <ele>1528.6</ele>
        <time>2024-08-12T04:04:23Z</time>
      </trkpt>
      <trkpt lat="44.83316" lon="6.41917">
        <ele>1528.6</ele>
        <time>2024-08-12T04:04:24Z</time>
      </trkpt>
      <trkpt lat="44.83316" lon="6.41917">
        <ele>1528.6</ele>
        <time>2024-08-12T04:04:25Z</time>
      </trkpt>
      <trkpt lat="44.83315" lon="6.41914">
        <ele>1528.8</ele>
        <time>2024-08-12T04:04:26Z</time>
      </trkpt>
      <trkpt lat="44.83315" lon="6.41914">
        <ele>1528.8</ele>
        <time>2024-08-12T04:04:27Z</time>
      </trkpt>
      <trkpt lat="44.83314" lon="6.41911">
        <ele>1528.8</ele>
        <time>2024-08-12T04:04:28Z</time>
      </trkpt>
      <trkpt lat="44.83314" lon="6.41911">
        <ele>1529</ele>
        <time>2024-08-12T04:04:29Z</time>
      </trkpt>
      <trkpt lat="44.83313" lon="6.41907">
        <ele>1529.2</ele>
        <time>2024-08-12T04:04:30Z</time>
      </trkpt>
      <trkpt lat="44.83313" lon="6.41907">
        <ele>1529.2</ele>
        <time>2024-08-12T04:04:31Z</time>
      </trkpt>
      <trkpt lat="44.83312" lon="6.41903">
        <ele>1529.2</ele>
        <time>2024-08-12T04:04:32Z</time>
      </trkpt>
      <trkpt lat="44.83312" lon="6.41903">
        <ele>1529.2</ele>
        <time>2024-08-12T04:04:33Z</time>
      </trkpt>
      <trkpt lat="44.83311" lon="6.419">
        <ele>1529.2</ele>
        <time>2024-08-12T04:04:34Z</time>
      </trkpt>
      <trkpt lat="44.83311" lon="6.419">
        <ele>1529.4</ele>
        <time>2024-08-12T04:04:35Z</time>
      </trkpt>
      <trkpt lat="44.83309" lon="6.41896">
        <ele>1529.6</ele>
        <time>2024-08-12T04:04:36Z</time>
      </trkpt>
      <trkpt lat="44.83309" lon="6.41896">
        <ele>1529.6</ele>
        <time>2024-08-12T04:04:37Z</time>
      </trkpt>
      <trkpt lat="44.83308" lon="6.41893">
        <ele>1529.8</ele>
        <time>2024-08-12T04:04:38Z</time>
      </trkpt>
      <trkpt lat="44.83308" lon="6.41893">
        <ele>1529.8</ele>
        <time>2024-08-12T04:04:39Z</time>
      </trkpt>
      <trkpt lat="44.83307" lon="6.41889">
        <ele>1529.8</ele>
        <time>2024-08-12T04:04:40Z</time>
      </trkpt>
      <trkpt lat="44.83307" lon="6.41889">
        <ele>1529.8</ele>
        <time>2024-08-12T04:04:41Z</time>
      </trkpt>
      <trkpt lat="44.83305" lon="6.41885">
        <ele>1530.2</ele>
        <time>2024-08-12T04:04:42Z</time>
      </trkpt>
      <trkpt lat="44.83305" lon="6.41885">
        <ele>1530.2</ele>
        <time>2024-08-12T04:04:43Z</time>
      </trkpt>
      <trkpt lat="44.83304" lon="6.41881">
        <ele>1530.4</ele>
        <time>2024-08-12T04:04:44Z</time>
      </trkpt>
      <trkpt lat="44.83304" lon="6.41881">
        <ele>1530.4</ele>
        <time>2024-08-12T04:04:45Z</time>
      </trkpt>
      <trkpt lat="44.83302" lon="6.41879">
        <ele>1530.6</ele>
        <time>2024-08-12T04:04:46Z</time>
      </trkpt>
      <trkpt lat="44.83302" lon="6.41879">
        <ele>1530.8</ele>
        <time>2024-08-12T04:04:47Z</time>
      </trkpt>
      <trkpt lat="44.83301" lon="6.41875">
        <ele>1530.8</ele>
        <time>2024-08-12T04:04:48Z</time>
      </trkpt>
      <trkpt lat="44.83301" lon="6.41875">
        <ele>1530.8</ele>
        <time>2024-08-12T04:04:49Z</time>
      </trkpt>
      <trkpt lat="44.83299" lon="6.41872">
        <ele>1531</ele>
        <time>2024-08-12T04:04:50Z</time>
      </trkpt>
      <trkpt lat="44.83299" lon="6.41872">
        <ele>1531</ele>
        <time>2024-08-12T04:04:51Z</time>
      </trkpt>
      <trkpt lat="44.83297" lon="6.4187">
        <ele>1531.2</ele>
        <time>2024-08-12T04:04:52Z</time>
      </trkpt>
      <trkpt lat="44.83297" lon="6.4187">
        <ele>1531.2</ele>
        <time>2024-08-12T04:04:53Z</time>
      </trkpt>
      <trkpt lat="44.83295" lon="6.41867">
        <ele>1531.4</ele>
        <time>2024-08-12T04:04:54Z</time>
      </trkpt>
      <trkpt lat="44.83293" lon="6.41866">
        <ele>1531.6</ele>
        <time>2024-08-12T04:04:55Z</time>
      </trkpt>
      <trkpt lat="44.83293" lon="6.41866">
        <ele>1531.8</ele>
        <time>2024-08-12T04:04:56Z</time>
      </trkpt>
      <trkpt lat="44.83292" lon="6.41863">
        <ele>1531.8</ele>
        <time>2024-08-12T04:04:57Z</time>
      </trkpt>
      <trkpt lat="44.83292" lon="6.41863">
        <ele>1531.8</ele>
        <time>2024-08-12T04:04:58Z</time>
      </trkpt>
      <trkpt lat="44.83289" lon="6.4186">
        <ele>1531.8</ele>
        <time>2024-08-12T04:04:59Z</time>
      </trkpt>
      <trkpt lat="44.83289" lon="6.4186">
        <ele>1532</ele>
        <time>2024-08-12T04:05:00Z</time>
      </trkpt>
      <trkpt lat="44.83287" lon="6.41857">
        <ele>1532.2</ele>
        <time>2024-08-12T04:05:01Z</time>
      </trkpt>
      <trkpt lat="44.83287" lon="6.41857">
        <ele>1532.2</ele>
        <time>2024-08-12T04:05:02Z</time>
      </trkpt>
      <trkpt lat="44.83286" lon="6.41854">
        <ele>1532.2</ele>
        <time>2024-08-12T04:05:03Z</time>
      </trkpt>
      <trkpt lat="44.83286" lon="6.41854">
        <ele>1532.2</ele>
        <time>2024-08-12T04:05:04Z</time>
      </trkpt>
      <trkpt lat="44.83284" lon="6.41852">
        <ele>1532.2</ele>
        <time>2024-08-12T04:05:05Z</time>
      </trkpt>
      <trkpt lat="44.83284" lon="6.41852">
        <ele>1532.4</ele>
        <time>2024-08-12T04:05:06Z</time>
      </trkpt>
      <trkpt lat="44.83282" lon="6.41849">
        <ele>1532.6</ele>
        <time>2024-08-12T04:05:07Z</time>
      </trkpt>
      <trkpt lat="44.83282" lon="6.41849">
        <ele>1532.6</ele>
        <time>2024-08-12T04:05:08Z</time>
      </trkpt>
      <trkpt lat="44.8328" lon="6.41846">
        <ele>1532.6</ele>
        <time>2024-08-12T04:05:09Z</time>
      </trkpt>
      <trkpt lat="44.8328" lon="6.41846">
        <ele>1532.8</ele>
        <time>2024-08-12T04:05:10Z</time>
      </trkpt>
      <trkpt lat="44.83278" lon="6.41843">
        <ele>1532.8</ele>
        <time>2024-08-12T04:05:11Z</time>
      </trkpt>
      <trkpt lat="44.83278" lon="6.41843">
        <ele>1533.2</ele>
        <time>2024-08-12T04:05:12Z</time>
      </trkpt>
      <trkpt lat="44.83276" lon="6.41841">
        <ele>1533.2</ele>
        <time>2024-08-12T04:05:13Z</time>
      </trkpt>
      <trkpt lat="44.83276" lon="6.41841">
        <ele>1533.4</ele>
        <time>2024-08-12T04:05:14Z</time>
      </trkpt>
      <trkpt lat="44.83273" lon="6.41839">
        <ele>1533.4</ele>
        <time>2024-08-12T04:05:15Z</time>
      </trkpt>
      <trkpt lat="44.83273" lon="6.41839">
        <ele>1533.4</ele>
        <time>2024-08-12T04:05:16Z</time>
      </trkpt>
      <trkpt lat="44.83271" lon="6.41836">
        <ele>1533.6</ele>
        <time>2024-08-12T04:05:17Z</time>
      </trkpt>
      <trkpt lat="44.83271" lon="6.41836">
        <ele>1533.6</ele>
        <time>2024-08-12T04:05:18Z</time>
      </trkpt>
      <trkpt lat="44.83269" lon="6.41833">
        <ele>1533.6</ele>
        <time>2024-08-12T04:05:19Z</time>
      </trkpt>
      <trkpt lat="44.83269" lon="6.41833">
        <ele>1533.6</ele>
        <time>2024-08-12T04:05:20Z</time>
      </trkpt>
      <trkpt lat="44.83268" lon="6.4183">
        <ele>1533.6</ele>
        <time>2024-08-12T04:05:21Z</time>
      </trkpt>
      <trkpt lat="44.83268" lon="6.4183">
        <ele>1534</ele>
        <time>2024-08-12T04:05:22Z</time>
      </trkpt>
      <trkpt lat="44.83266" lon="6.41827">
        <ele>1534</ele>
        <time>2024-08-12T04:05:23Z</time>
      </trkpt>
      <trkpt lat="44.83266" lon="6.41827">
        <ele>1534</ele>
        <time>2024-08-12T04:05:24Z</time>
      </trkpt>
      <trkpt lat="44.83264" lon="6.41824">
        <ele>1534</ele>
        <time>2024-08-12T04:05:25Z</time>
      </trkpt>
      <trkpt lat="44.83264" lon="6.41824">
        <ele>1534.2</ele>
        <time>2024-08-12T04:05:26Z</time>
      </trkpt>
      <trkpt lat="44.83263" lon="6.41821">
        <ele>1534.4</ele>
        <time>2024-08-12T04:05:27Z</time>
      </trkpt>
      <trkpt lat="44.83263" lon="6.41821">
        <ele>1534.6</ele>
        <time>2024-08-12T04:05:28Z</time>
      </trkpt>
      <trkpt lat="44.83261" lon="6.41817">
        <ele>1534.6</ele>
        <time>2024-08-12T04:05:29Z</time>
      </trkpt>
      <trkpt lat="44.83261" lon="6.41817">
        <ele>1534.6</ele>
        <time>2024-08-12T04:05:30Z</time>
      </trkpt>
      <trkpt lat="44.8326" lon="6.41813">
        <ele>1534.8</ele>
        <time>2024-08-12T04:05:31Z</time>
      </trkpt>
      <trkpt lat="44.8326" lon="6.41813">
        <ele>1534.6</ele>
        <time>2024-08-12T04:05:32Z</time>
      </trkpt>
      <trkpt lat="44.83259" lon="6.4181">
        <ele>1534.8</ele>
        <time>2024-08-12T04:05:33Z</time>
      </trkpt>
      <trkpt lat="44.83259" lon="6.4181">
        <ele>1534.8</ele>
        <time>2024-08-12T04:05:34Z</time>
      </trkpt>
      <trkpt lat="44.83257" lon="6.41806">
        <ele>1535.2</ele>
        <time>2024-08-12T04:05:35Z</time>
      </trkpt>
      <trkpt lat="44.83257" lon="6.41806">
        <ele>1535.2</ele>
        <time>2024-08-12T04:05:36Z</time>
      </trkpt>
      <trkpt lat="44.83256" lon="6.41802">
        <ele>1535.2</ele>
        <time>2024-08-12T04:05:37Z</time>
      </trkpt>
      <trkpt lat="44.83256" lon="6.41802">
        <ele>1535.2</ele>
        <time>2024-08-12T04:05:38Z</time>
      </trkpt>
      <trkpt lat="44.83255" lon="6.41799">
        <ele>1535.2</ele>
        <time>2024-08-12T04:05:39Z</time>
      </trkpt>
      <trkpt lat="44.83255" lon="6.41799">
        <ele>1535.2</ele>
        <time>2024-08-12T04:05:40Z</time>
      </trkpt>
      <trkpt lat="44.83253" lon="6.41795">
        <ele>1535.2</ele>
        <time>2024-08-12T04:05:41Z</time>
      </trkpt>
      <trkpt lat="44.83253" lon="6.41795">
        <ele>1535.4</ele>
        <time>2024-08-12T04:05:42Z</time>
      </trkpt>
      <trkpt lat="44.83251" lon="6.41794">
        <ele>1535.4</ele>
        <time>2024-08-12T04:05:43Z</time>
      </trkpt>
      <trkpt lat="44.83251" lon="6.41794">
        <ele>1535.6</ele>
        <time>2024-08-12T04:05:44Z</time>
      </trkpt>
      <trkpt lat="44.83251" lon="6.41794">
        <ele>1536</ele>
        <time>2024-08-12T04:05:45Z</time>
      </trkpt>
      <trkpt lat="44.83251" lon="6.41794">
        <ele>1536</ele>
        <time>2024-08-12T04:05:46Z</time>
      </trkpt>
      <trkpt lat="44.83251" lon="6.41792">
        <ele>1535.8</ele>
        <time>2024-08-12T04:05:47Z</time>
      </trkpt>
      <trkpt lat="44.83251" lon="6.41792">
        <ele>1535.8</ele>
        <time>2024-08-12T04:05:48Z</time>
      </trkpt>
      <trkpt lat="44.8325" lon="6.41789">
        <ele>1535.8</ele>
        <time>2024-08-12T04:05:49Z</time>
      </trkpt>
      <trkpt lat="44.8325" lon="6.41789">
        <ele>1535.8</ele>
        <time>2024-08-12T04:05:50Z</time>
      </trkpt>
      <trkpt lat="44.83249" lon="6.41785">
        <ele>1535.8</ele>
        <time>2024-08-12T04:05:51Z</time>
      </trkpt>
      <trkpt lat="44.83249" lon="6.41785">
        <ele>1535.8</ele>
        <time>2024-08-12T04:05:52Z</time>
      </trkpt>
      <trkpt lat="44.83249" lon="6.41781">
        <ele>1535.8</ele>
        <time>2024-08-12T04:05:53Z</time>
      </trkpt>
      <trkpt lat="44.83249" lon="6.41781">
        <ele>1535.8</ele>
        <time>2024-08-12T04:05:54Z</time>
      </trkpt>
      <trkpt lat="44.83249" lon="6.41777">
        <ele>1536.2</ele>
        <time>2024-08-12T04:05:55Z</time>
      </trkpt>
      <trkpt lat="44.83249" lon="6.41777">
        <ele>1536.4</ele>
        <time>2024-08-12T04:05:56Z</time>
      </trkpt>
      <trkpt lat="44.83248" lon="6.41773">
        <ele>1536.4</ele>
        <time>2024-08-12T04:05:57Z</time>
      </trkpt>
      <trkpt lat="44.83248" lon="6.41773">
        <ele>1536.4</ele>
        <time>2024-08-12T04:05:58Z</time>
      </trkpt>
      <trkpt lat="44.83249" lon="6.4177">
        <ele>1536.4</ele>
        <time>2024-08-12T04:05:59Z</time>
      </trkpt>
      <trkpt lat="44.83249" lon="6.4177">
        <ele>1536.4</ele>
        <time>2024-08-12T04:06:00Z</time>
      </trkpt>
      <trkpt lat="44.8325" lon="6.41766">
        <ele>1536.6</ele>
        <time>2024-08-12T04:06:01Z</time>
      </trkpt>
      <trkpt lat="44.8325" lon="6.41766">
        <ele>1536.8</ele>
        <time>2024-08-12T04:06:02Z</time>
      </trkpt>
      <trkpt lat="44.8325" lon="6.41762">
        <ele>1536.8</ele>
        <time>2024-08-12T04:06:03Z</time>
      </trkpt>
      <trkpt lat="44.8325" lon="6.41762">
        <ele>1536.8</ele>
        <time>2024-08-12T04:06:04Z</time>
      </trkpt>
      <trkpt lat="44.83251" lon="6.41758">
        <ele>1536.8</ele>
        <time>2024-08-12T04:06:05Z</time>
      </trkpt>
      <trkpt lat="44.83251" lon="6.41758">
        <ele>1536.8</ele>
        <time>2024-08-12T04:06:06Z</time>
      </trkpt>
      <trkpt lat="44.83252" lon="6.41755">
        <ele>1537</ele>
        <time>2024-08-12T04:06:07Z</time>
      </trkpt>
      <trkpt lat="44.83252" lon="6.41755">
        <ele>1537</ele>
        <time>2024-08-12T04:06:08Z</time>
      </trkpt>
      <trkpt lat="44.83252" lon="6.41751">
        <ele>1537.4</ele>
        <time>2024-08-12T04:06:09Z</time>
      </trkpt>
      <trkpt lat="44.83252" lon="6.41751">
        <ele>1537.4</ele>
        <time>2024-08-12T04:06:10Z</time>
      </trkpt>
      <trkpt lat="44.83252" lon="6.41747">
        <ele>1537.4</ele>
        <time>2024-08-12T04:06:11Z</time>
      </trkpt>
      <trkpt lat="44.83252" lon="6.41747">
        <ele>1537.4</ele>
        <time>2024-08-12T04:06:12Z</time>
      </trkpt>
      <trkpt lat="44.83253" lon="6.41743">
        <ele>1537.6</ele>
        <time>2024-08-12T04:06:13Z</time>
      </trkpt>
      <trkpt lat="44.83253" lon="6.41743">
        <ele>1537.6</ele>
        <time>2024-08-12T04:06:14Z</time>
      </trkpt>
      <trkpt lat="44.83253" lon="6.4174">
        <ele>1537.6</ele>
        <time>2024-08-12T04:06:15Z</time>
      </trkpt>
      <trkpt lat="44.83253" lon="6.4174">
        <ele>1537.6</ele>
        <time>2024-08-12T04:06:16Z</time>
      </trkpt>
      <trkpt lat="44.83252" lon="6.41736">
        <ele>1537.8</ele>
        <time>2024-08-12T04:06:17Z</time>
      </trkpt>
      <trkpt lat="44.83252" lon="6.41736">
        <ele>1537.8</ele>
        <time>2024-08-12T04:06:18Z</time>
      </trkpt>
      <trkpt lat="44.83251" lon="6.41732">
        <ele>1538</ele>
        <time>2024-08-12T04:06:19Z</time>
      </trkpt>
      <trkpt lat="44.83251" lon="6.41732">
        <ele>1538</ele>
        <time>2024-08-12T04:06:20Z</time>
      </trkpt>
      <trkpt lat="44.83251" lon="6.41728">
        <ele>1538.2</ele>
        <time>2024-08-12T04:06:21Z</time>
      </trkpt>
      <trkpt lat="44.83251" lon="6.41728">
        <ele>1538.2</ele>
        <time>2024-08-12T04:06:22Z</time>
      </trkpt>
      <trkpt lat="44.83251" lon="6.41724">
        <ele>1538.2</ele>
        <time>2024-08-12T04:06:23Z</time>
      </trkpt>
      <trkpt lat="44.83251" lon="6.41724">
        <ele>1538.4</ele>
        <time>2024-08-12T04:06:24Z</time>
      </trkpt>
      <trkpt lat="44.83251" lon="6.4172">
        <ele>1538.4</ele>
        <time>2024-08-12T04:06:25Z</time>
      </trkpt>
      <trkpt lat="44.83251" lon="6.4172">
        <ele>1538.4</ele>
        <time>2024-08-12T04:06:26Z</time>
      </trkpt>
      <trkpt lat="44.83252" lon="6.41715">
        <ele>1538.4</ele>
        <time>2024-08-12T04:06:27Z</time>
      </trkpt>
      <trkpt lat="44.83252" lon="6.41715">
        <ele>1538.4</ele>
        <time>2024-08-12T04:06:28Z</time>
      </trkpt>
      <trkpt lat="44.83252" lon="6.41711">
        <ele>1538.4</ele>
        <time>2024-08-12T04:06:29Z</time>
      </trkpt>
      <trkpt lat="44.83252" lon="6.41711">
        <ele>1538.4</ele>
        <time>2024-08-12T04:06:30Z</time>
      </trkpt>
      <trkpt lat="44.83252" lon="6.41708">
        <ele>1538.6</ele>
        <time>2024-08-12T04:06:31Z</time>
      </trkpt>
      <trkpt lat="44.83252" lon="6.41708">
        <ele>1538.6</ele>
        <time>2024-08-12T04:06:32Z</time>
      </trkpt>
      <trkpt lat="44.83252" lon="6.41704">
        <ele>1538.6</ele>
        <time>2024-08-12T04:06:33Z</time>
      </trkpt>
      <trkpt lat="44.83252" lon="6.41704">
        <ele>1538.6</ele>
        <time>2024-08-12T04:06:34Z</time>
      </trkpt>
      <trkpt lat="44.83252" lon="6.417">
        <ele>1539</ele>
        <time>2024-08-12T04:06:35Z</time>
      </trkpt>
      <trkpt lat="44.83252" lon="6.417">
        <ele>1539</ele>
        <time>2024-08-12T04:06:36Z</time>
      </trkpt>
      <trkpt lat="44.83253" lon="6.41696">
        <ele>1539</ele>
        <time>2024-08-12T04:06:37Z</time>
      </trkpt>
      <trkpt lat="44.83253" lon="6.41696">
        <ele>1539</ele>
        <time>2024-08-12T04:06:38Z</time>
      </trkpt>
      <trkpt lat="44.83252" lon="6.41692">
        <ele>1539</ele>
        <time>2024-08-12T04:06:39Z</time>
      </trkpt>
      <trkpt lat="44.83252" lon="6.41692">
        <ele>1539.2</ele>
        <time>2024-08-12T04:06:40Z</time>
      </trkpt>
      <trkpt lat="44.83252" lon="6.41688">
        <ele>1539.4</ele>
        <time>2024-08-12T04:06:41Z</time>
      </trkpt>
      <trkpt lat="44.83252" lon="6.41688">
        <ele>1539.4</ele>
        <time>2024-08-12T04:06:42Z</time>
      </trkpt>
      <trkpt lat="44.83253" lon="6.41684">
        <ele>1539</ele>
        <time>2024-08-12T04:06:43Z</time>
      </trkpt>
      <trkpt lat="44.83253" lon="6.41684">
        <ele>1539</ele>
        <time>2024-08-12T04:06:44Z</time>
      </trkpt>
      <trkpt lat="44.83253" lon="6.4168">
        <ele>1539.4</ele>
        <time>2024-08-12T04:06:45Z</time>
      </trkpt>
      <trkpt lat="44.83253" lon="6.4168">
        <ele>1540</ele>
        <time>2024-08-12T04:06:46Z</time>
      </trkpt>
      <trkpt lat="44.83253" lon="6.41676">
        <ele>1540</ele>
        <time>2024-08-12T04:06:47Z</time>
      </trkpt>
      <trkpt lat="44.83253" lon="6.41676">
        <ele>1540</ele>
        <time>2024-08-12T04:06:48Z</time>
      </trkpt>
      <trkpt lat="44.83253" lon="6.41673">
        <ele>1540</ele>
        <time>2024-08-12T04:06:49Z</time>
      </trkpt>
      <trkpt lat="44.83253" lon="6.41673">
        <ele>1540</ele>
        <time>2024-08-12T04:06:50Z</time>
      </trkpt>
      <trkpt lat="44.83253" lon="6.41669">
        <ele>1540</ele>
        <time>2024-08-12T04:06:51Z</time>
      </trkpt>
      <trkpt lat="44.83253" lon="6.41669">
        <ele>1540</ele>
        <time>2024-08-12T04:06:52Z</time>
      </trkpt>
      <trkpt lat="44.83254" lon="6.41666">
        <ele>1540.6</ele>
        <time>2024-08-12T04:06:53Z</time>
      </trkpt>
      <trkpt lat="44.83254" lon="6.41666">
        <ele>1541</ele>
        <time>2024-08-12T04:06:54Z</time>
      </trkpt>
      <trkpt lat="44.83255" lon="6.41662">
        <ele>1541</ele>
        <time>2024-08-12T04:06:55Z</time>
      </trkpt>
      <trkpt lat="44.83255" lon="6.41662">
        <ele>1541</ele>
        <time>2024-08-12T04:06:56Z</time>
      </trkpt>
      <trkpt lat="44.83256" lon="6.41659">
        <ele>1541</ele>
        <time>2024-08-12T04:06:57Z</time>
      </trkpt>
      <trkpt lat="44.83256" lon="6.41659">
        <ele>1541</ele>
        <time>2024-08-12T04:06:58Z</time>
      </trkpt>
      <trkpt lat="44.83257" lon="6.41656">
        <ele>1541.2</ele>
        <time>2024-08-12T04:06:59Z</time>
      </trkpt>
      <trkpt lat="44.83257" lon="6.41656">
        <ele>1541.2</ele>
        <time>2024-08-12T04:07:00Z</time>
      </trkpt>
      <trkpt lat="44.83257" lon="6.41652">
        <ele>1541.6</ele>
        <time>2024-08-12T04:07:01Z</time>
      </trkpt>
      <trkpt lat="44.83257" lon="6.41652">
        <ele>1541.4</ele>
        <time>2024-08-12T04:07:02Z</time>
      </trkpt>
      <trkpt lat="44.83258" lon="6.41649">
        <ele>1541.4</ele>
        <time>2024-08-12T04:07:03Z</time>
      </trkpt>
      <trkpt lat="44.83258" lon="6.41649">
        <ele>1541.8</ele>
        <time>2024-08-12T04:07:04Z</time>
      </trkpt>
      <trkpt lat="44.83259" lon="6.41646">
        <ele>1541.8</ele>
        <time>2024-08-12T04:07:05Z</time>
      </trkpt>
      <trkpt lat="44.83259" lon="6.41646">
        <ele>1541.8</ele>
        <time>2024-08-12T04:07:06Z</time>
      </trkpt>
      <trkpt lat="44.83259" lon="6.41642">
        <ele>1542</ele>
        <time>2024-08-12T04:07:07Z</time>
      </trkpt>
      <trkpt lat="44.83259" lon="6.41642">
        <ele>1542</ele>
        <time>2024-08-12T04:07:08Z</time>
      </trkpt>
      <trkpt lat="44.8326" lon="6.41637">
        <ele>1542</ele>
        <time>2024-08-12T04:07:09Z</time>
      </trkpt>
      <trkpt lat="44.8326" lon="6.41637">
        <ele>1542</ele>
        <time>2024-08-12T04:07:10Z</time>
      </trkpt>
      <trkpt lat="44.8326" lon="6.41634">
        <ele>1542.4</ele>
        <time>2024-08-12T04:07:11Z</time>
      </trkpt>
      <trkpt lat="44.8326" lon="6.41634">
        <ele>1542.6</ele>
        <time>2024-08-12T04:07:12Z</time>
      </trkpt>
      <trkpt lat="44.8326" lon="6.41631">
        <ele>1542.6</ele>
        <time>2024-08-12T04:07:13Z</time>
      </trkpt>
      <trkpt lat="44.8326" lon="6.41631">
        <ele>1542.4</ele>
        <time>2024-08-12T04:07:14Z</time>
      </trkpt>
      <trkpt lat="44.83261" lon="6.41628">
        <ele>1542.4</ele>
        <time>2024-08-12T04:07:15Z</time>
      </trkpt>
      <trkpt lat="44.83261" lon="6.41628">
        <ele>1542.4</ele>
        <time>2024-08-12T04:07:16Z</time>
      </trkpt>
      <trkpt lat="44.83261" lon="6.41624">
        <ele>1542.6</ele>
        <time>2024-08-12T04:07:17Z</time>
      </trkpt>
      <trkpt lat="44.83261" lon="6.41624">
        <ele>1542.6</ele>
        <time>2024-08-12T04:07:18Z</time>
      </trkpt>
      <trkpt lat="44.83262" lon="6.4162">
        <ele>1542.6</ele>
        <time>2024-08-12T04:07:19Z</time>
      </trkpt>
      <trkpt lat="44.83262" lon="6.4162">
        <ele>1542.8</ele>
        <time>2024-08-12T04:07:20Z</time>
      </trkpt>
      <trkpt lat="44.83262" lon="6.41617">
        <ele>1542.8</ele>
        <time>2024-08-12T04:07:21Z</time>
      </trkpt>
      <trkpt lat="44.83262" lon="6.41617">
        <ele>1543</ele>
        <time>2024-08-12T04:07:22Z</time>
      </trkpt>
      <trkpt lat="44.83263" lon="6.41614">
        <ele>1543</ele>
        <time>2024-08-12T04:07:23Z</time>
      </trkpt>
      <trkpt lat="44.83263" lon="6.41614">
        <ele>1543.2</ele>
        <time>2024-08-12T04:07:24Z</time>
      </trkpt>
      <trkpt lat="44.83263" lon="6.4161">
        <ele>1543.4</ele>
        <time>2024-08-12T04:07:25Z</time>
      </trkpt>
      <trkpt lat="44.83263" lon="6.4161">
        <ele>1543.6</ele>
        <time>2024-08-12T04:07:26Z</time>
      </trkpt>
      <trkpt lat="44.83265" lon="6.41606">
        <ele>1543.6</ele>
        <time>2024-08-12T04:07:27Z</time>
      </trkpt>
      <trkpt lat="44.83265" lon="6.41606">
        <ele>1543.8</ele>
        <time>2024-08-12T04:07:28Z</time>
      </trkpt>
      <trkpt lat="44.83266" lon="6.41602">
        <ele>1544</ele>
        <time>2024-08-12T04:07:29Z</time>
      </trkpt>
      <trkpt lat="44.83266" lon="6.41602">
        <ele>1544.2</ele>
        <time>2024-08-12T04:07:30Z</time>
      </trkpt>
      <trkpt lat="44.83267" lon="6.41599">
        <ele>1544.2</ele>
        <time>2024-08-12T04:07:31Z</time>
      </trkpt>
      <trkpt lat="44.83267" lon="6.41599">
        <ele>1544</ele>
        <time>2024-08-12T04:07:32Z</time>
      </trkpt>
      <trkpt lat="44.83268" lon="6.41596">
        <ele>1544</ele>
        <time>2024-08-12T04:07:33Z</time>
      </trkpt>
      <trkpt lat="44.83268" lon="6.41596">
        <ele>1544</ele>
        <time>2024-08-12T04:07:34Z</time>
      </trkpt>
      <trkpt lat="44.83268" lon="6.41592">
        <ele>1544.6</ele>
        <time>2024-08-12T04:07:35Z</time>
      </trkpt>
      <trkpt lat="44.83268" lon="6.41592">
        <ele>1544.6</ele>
        <time>2024-08-12T04:07:36Z</time>
      </trkpt>
      <trkpt lat="44.83268" lon="6.41589">
        <ele>1544.6</ele>
        <time>2024-08-12T04:07:37Z</time>
      </trkpt>
      <trkpt lat="44.83268" lon="6.41589">
        <ele>1544.6</ele>
        <time>2024-08-12T04:07:38Z</time>
      </trkpt>
      <trkpt lat="44.83269" lon="6.41585">
        <ele>1545</ele>
        <time>2024-08-12T04:07:39Z</time>
      </trkpt>
      <trkpt lat="44.83269" lon="6.41585">
        <ele>1545.2</ele>
        <time>2024-08-12T04:07:40Z</time>
      </trkpt>
      <trkpt lat="44.83269" lon="6.41581">
        <ele>1545.2</ele>
        <time>2024-08-12T04:07:41Z</time>
      </trkpt>
      <trkpt lat="44.83269" lon="6.41581">
        <ele>1545.4</ele>
        <time>2024-08-12T04:07:42Z</time>
      </trkpt>
      <trkpt lat="44.83269" lon="6.41577">
        <ele>1545.4</ele>
        <time>2024-08-12T04:07:43Z</time>
      </trkpt>
      <trkpt lat="44.83269" lon="6.41577">
        <ele>1545.4</ele>
        <time>2024-08-12T04:07:44Z</time>
      </trkpt>
      <trkpt lat="44.83269" lon="6.41574">
        <ele>1546.2</ele>
        <time>2024-08-12T04:07:45Z</time>
      </trkpt>
      <trkpt lat="44.83269" lon="6.41574">
        <ele>1546.4</ele>
        <time>2024-08-12T04:07:46Z</time>
      </trkpt>
      <trkpt lat="44.8327" lon="6.4157">
        <ele>1546.4</ele>
        <time>2024-08-12T04:07:47Z</time>
      </trkpt>
      <trkpt lat="44.8327" lon="6.4157">
        <ele>1546.6</ele>
        <time>2024-08-12T04:07:48Z</time>
      </trkpt>
      <trkpt lat="44.8327" lon="6.41567">
        <ele>1546.8</ele>
        <time>2024-08-12T04:07:49Z</time>
      </trkpt>
      <trkpt lat="44.8327" lon="6.41567">
        <ele>1546.8</ele>
        <time>2024-08-12T04:07:50Z</time>
      </trkpt>
      <trkpt lat="44.83271" lon="6.41564">
        <ele>1547</ele>
        <time>2024-08-12T04:07:51Z</time>
      </trkpt>
      <trkpt lat="44.83271" lon="6.41564">
        <ele>1547.2</ele>
        <time>2024-08-12T04:07:52Z</time>
      </trkpt>
      <trkpt lat="44.83273" lon="6.4156">
        <ele>1547.4</ele>
        <time>2024-08-12T04:07:53Z</time>
      </trkpt>
      <trkpt lat="44.83273" lon="6.4156">
        <ele>1547.4</ele>
        <time>2024-08-12T04:07:54Z</time>
      </trkpt>
      <trkpt lat="44.83273" lon="6.41557">
        <ele>1547.6</ele>
        <time>2024-08-12T04:07:55Z</time>
      </trkpt>
      <trkpt lat="44.83273" lon="6.41557">
        <ele>1547.8</ele>
        <time>2024-08-12T04:07:56Z</time>
      </trkpt>
      <trkpt lat="44.83273" lon="6.41554">
        <ele>1547.8</ele>
        <time>2024-08-12T04:07:57Z</time>
      </trkpt>
      <trkpt lat="44.83273" lon="6.41554">
        <ele>1548</ele>
        <time>2024-08-12T04:07:58Z</time>
      </trkpt>
      <trkpt lat="44.83273" lon="6.41551">
        <ele>1548.2</ele>
        <time>2024-08-12T04:07:59Z</time>
      </trkpt>
      <trkpt lat="44.83273" lon="6.41551">
        <ele>1548.2</ele>
        <time>2024-08-12T04:08:00Z</time>
      </trkpt>
      <trkpt lat="44.83274" lon="6.41548">
        <ele>1548.4</ele>
        <time>2024-08-12T04:08:01Z</time>
      </trkpt>
      <trkpt lat="44.83275" lon="6.41547">
        <ele>1548.6</ele>
        <time>2024-08-12T04:08:02Z</time>
      </trkpt>
      <trkpt lat="44.83275" lon="6.41547">
        <ele>1548.6</ele>
        <time>2024-08-12T04:08:03Z</time>
      </trkpt>
      <trkpt lat="44.83275" lon="6.41543">
        <ele>1548.8</ele>
        <time>2024-08-12T04:08:04Z</time>
      </trkpt>
      <trkpt lat="44.83275" lon="6.41543">
        <ele>1549.4</ele>
        <time>2024-08-12T04:08:05Z</time>
      </trkpt>
      <trkpt lat="44.83274" lon="6.4154">
        <ele>1549.4</ele>
        <time>2024-08-12T04:08:06Z</time>
      </trkpt>
      <trkpt lat="44.83274" lon="6.4154">
        <ele>1549.4</ele>
        <time>2024-08-12T04:08:07Z</time>
      </trkpt>
      <trkpt lat="44.83274" lon="6.41537">
        <ele>1549.4</ele>
        <time>2024-08-12T04:08:08Z</time>
      </trkpt>
      <trkpt lat="44.83274" lon="6.41537">
        <ele>1549.2</ele>
        <time>2024-08-12T04:08:09Z</time>
      </trkpt>
      <trkpt lat="44.83273" lon="6.41534">
        <ele>1549.4</ele>
        <time>2024-08-12T04:08:10Z</time>
      </trkpt>
      <trkpt lat="44.83273" lon="6.41534">
        <ele>1549.6</ele>
        <time>2024-08-12T04:08:11Z</time>
      </trkpt>
      <trkpt lat="44.83273" lon="6.41531">
        <ele>1549.8</ele>
        <time>2024-08-12T04:08:12Z</time>
      </trkpt>
      <trkpt lat="44.83273" lon="6.41531">
        <ele>1549.8</ele>
        <time>2024-08-12T04:08:13Z</time>
      </trkpt>
      <trkpt lat="44.83272" lon="6.41528">
        <ele>1550</ele>
        <time>2024-08-12T04:08:14Z</time>
      </trkpt>
      <trkpt lat="44.83272" lon="6.41528">
        <ele>1550.2</ele>
        <time>2024-08-12T04:08:15Z</time>
      </trkpt>
      <trkpt lat="44.83272" lon="6.41525">
        <ele>1550.4</ele>
        <time>2024-08-12T04:08:16Z</time>
      </trkpt>
      <trkpt lat="44.83272" lon="6.41525">
        <ele>1550.4</ele>
        <time>2024-08-12T04:08:17Z</time>
      </trkpt>
      <trkpt lat="44.83271" lon="6.41522">
        <ele>1550.4</ele>
        <time>2024-08-12T04:08:18Z</time>
      </trkpt>
      <trkpt lat="44.83271" lon="6.41522">
        <ele>1550.6</ele>
        <time>2024-08-12T04:08:19Z</time>
      </trkpt>
      <trkpt lat="44.83271" lon="6.41519">
        <ele>1551</ele>
        <time>2024-08-12T04:08:20Z</time>
      </trkpt>
      <trkpt lat="44.83271" lon="6.41519">
        <ele>1551.2</ele>
        <time>2024-08-12T04:08:21Z</time>
      </trkpt>
      <trkpt lat="44.83271" lon="6.41516">
        <ele>1551.2</ele>
        <time>2024-08-12T04:08:22Z</time>
      </trkpt>
      <trkpt lat="44.83271" lon="6.41516">
        <ele>1551.2</ele>
        <time>2024-08-12T04:08:23Z</time>
      </trkpt>
      <trkpt lat="44.83271" lon="6.41512">
        <ele>1551.2</ele>
        <time>2024-08-12T04:08:24Z</time>
      </trkpt>
      <trkpt lat="44.83271" lon="6.41512">
        <ele>1551.4</ele>
        <time>2024-08-12T04:08:25Z</time>
      </trkpt>
      <trkpt lat="44.83271" lon="6.4151">
        <ele>1551.8</ele>
        <time>2024-08-12T04:08:26Z</time>
      </trkpt>
      <trkpt lat="44.83271" lon="6.4151">
        <ele>1552</ele>
        <time>2024-08-12T04:08:27Z</time>
      </trkpt>
      <trkpt lat="44.83271" lon="6.41507">
        <ele>1552.2</ele>
        <time>2024-08-12T04:08:28Z</time>
      </trkpt>
      <trkpt lat="44.83271" lon="6.41507">
        <ele>1552.2</ele>
        <time>2024-08-12T04:08:29Z</time>
      </trkpt>
      <trkpt lat="44.83271" lon="6.41504">
        <ele>1552.4</ele>
        <time>2024-08-12T04:08:30Z</time>
      </trkpt>
      <trkpt lat="44.83271" lon="6.41504">
        <ele>1552.6</ele>
        <time>2024-08-12T04:08:31Z</time>
      </trkpt>
      <trkpt lat="44.8327" lon="6.41501">
        <ele>1552.6</ele>
        <time>2024-08-12T04:08:32Z</time>
      </trkpt>
      <trkpt lat="44.8327" lon="6.41501">
        <ele>1552.8</ele>
        <time>2024-08-12T04:08:33Z</time>
      </trkpt>
      <trkpt lat="44.8327" lon="6.41498">
        <ele>1553</ele>
        <time>2024-08-12T04:08:34Z</time>
      </trkpt>
      <trkpt lat="44.8327" lon="6.41498">
        <ele>1553.4</ele>
        <time>2024-08-12T04:08:35Z</time>
      </trkpt>
      <trkpt lat="44.8327" lon="6.41495">
        <ele>1553.4</ele>
        <time>2024-08-12T04:08:36Z</time>
      </trkpt>
      <trkpt lat="44.8327" lon="6.41495">
        <ele>1553.8</ele>
        <time>2024-08-12T04:08:37Z</time>
      </trkpt>
      <trkpt lat="44.83269" lon="6.41492">
        <ele>1554.2</ele>
        <time>2024-08-12T04:08:38Z</time>
      </trkpt>
      <trkpt lat="44.83269" lon="6.41492">
        <ele>1554.2</ele>
        <time>2024-08-12T04:08:39Z</time>
      </trkpt>
      <trkpt lat="44.83269" lon="6.41489">
        <ele>1554.4</ele>
        <time>2024-08-12T04:08:40Z</time>
      </trkpt>
      <trkpt lat="44.83269" lon="6.41489">
        <ele>1554.8</ele>
        <time>2024-08-12T04:08:41Z</time>
      </trkpt>
      <trkpt lat="44.83269" lon="6.41486">
        <ele>1554.8</ele>
        <time>2024-08-12T04:08:42Z</time>
      </trkpt>
      <trkpt lat="44.83269" lon="6.41486">
        <ele>1555</ele>
        <time>2024-08-12T04:08:43Z</time>
      </trkpt>
      <trkpt lat="44.83269" lon="6.41483">
        <ele>1555.2</ele>
        <time>2024-08-12T04:08:44Z</time>
      </trkpt>
      <trkpt lat="44.83269" lon="6.41483">
        <ele>1555.2</ele>
        <time>2024-08-12T04:08:45Z</time>
      </trkpt>
      <trkpt lat="44.83269" lon="6.4148">
        <ele>1555.2</ele>
        <time>2024-08-12T04:08:46Z</time>
      </trkpt>
      <trkpt lat="44.83269" lon="6.4148">
        <ele>1555.6</ele>
        <time>2024-08-12T04:08:47Z</time>
      </trkpt>
      <trkpt lat="44.83268" lon="6.41477">
        <ele>1555.8</ele>
        <time>2024-08-12T04:08:48Z</time>
      </trkpt>
      <trkpt lat="44.83268" lon="6.41477">
        <ele>1555.8</ele>
        <time>2024-08-12T04:08:49Z</time>
      </trkpt>
      <trkpt lat="44.83267" lon="6.41474">
        <ele>1555.8</ele>
        <time>2024-08-12T04:08:50Z</time>
      </trkpt>
      <trkpt lat="44.83267" lon="6.41474">
        <ele>1556</ele>
        <time>2024-08-12T04:08:51Z</time>
      </trkpt>
      <trkpt lat="44.83267" lon="6.4147">
        <ele>1556</ele>
        <time>2024-08-12T04:08:52Z</time>
      </trkpt>
      <trkpt lat="44.83267" lon="6.4147">
        <ele>1556.4</ele>
        <time>2024-08-12T04:08:53Z</time>
      </trkpt>
      <trkpt lat="44.83266" lon="6.41467">
        <ele>1556.6</ele>
        <time>2024-08-12T04:08:54Z</time>
      </trkpt>
      <trkpt lat="44.83266" lon="6.41467">
        <ele>1556.6</ele>
        <time>2024-08-12T04:08:55Z</time>
      </trkpt>
      <trkpt lat="44.83265" lon="6.41464">
        <ele>1556.6</ele>
        <time>2024-08-12T04:08:56Z</time>
      </trkpt>
      <trkpt lat="44.83265" lon="6.41464">
        <ele>1557.2</ele>
        <time>2024-08-12T04:08:57Z</time>
      </trkpt>
      <trkpt lat="44.83265" lon="6.41461">
        <ele>1557.4</ele>
        <time>2024-08-12T04:08:58Z</time>
      </trkpt>
      <trkpt lat="44.83265" lon="6.41461">
        <ele>1557.4</ele>
        <time>2024-08-12T04:08:59Z</time>
      </trkpt>
      <trkpt lat="44.83264" lon="6.41459">
        <ele>1557.6</ele>
        <time>2024-08-12T04:09:00Z</time>
      </trkpt>
      <trkpt lat="44.83264" lon="6.41459">
        <ele>1557.6</ele>
        <time>2024-08-12T04:09:01Z</time>
      </trkpt>
      <trkpt lat="44.83263" lon="6.41456">
        <ele>1557.8</ele>
        <time>2024-08-12T04:09:02Z</time>
      </trkpt>
      <trkpt lat="44.83263" lon="6.41456">
        <ele>1557.8</ele>
        <time>2024-08-12T04:09:03Z</time>
      </trkpt>
      <trkpt lat="44.83263" lon="6.41453">
        <ele>1558</ele>
        <time>2024-08-12T04:09:04Z</time>
      </trkpt>
      <trkpt lat="44.83263" lon="6.41453">
        <ele>1558.4</ele>
        <time>2024-08-12T04:09:05Z</time>
      </trkpt>
      <trkpt lat="44.83262" lon="6.41451">
        <ele>1558.6</ele>
        <time>2024-08-12T04:09:06Z</time>
      </trkpt>
      <trkpt lat="44.83262" lon="6.41451">
        <ele>1558.6</ele>
        <time>2024-08-12T04:09:07Z</time>
      </trkpt>
      <trkpt lat="44.8326" lon="6.41448">
        <ele>1558.8</ele>
        <time>2024-08-12T04:09:08Z</time>
      </trkpt>
      <trkpt lat="44.8326" lon="6.41448">
        <ele>1559.2</ele>
        <time>2024-08-12T04:09:09Z</time>
      </trkpt>
      <trkpt lat="44.83259" lon="6.41445">
        <ele>1559.6</ele>
        <time>2024-08-12T04:09:10Z</time>
      </trkpt>
      <trkpt lat="44.83259" lon="6.41445">
        <ele>1559.6</ele>
        <time>2024-08-12T04:09:11Z</time>
      </trkpt>
      <trkpt lat="44.83258" lon="6.41443">
        <ele>1559.6</ele>
        <time>2024-08-12T04:09:12Z</time>
      </trkpt>
      <trkpt lat="44.83258" lon="6.41443">
        <ele>1559.8</ele>
        <time>2024-08-12T04:09:13Z</time>
      </trkpt>
      <trkpt lat="44.83257" lon="6.4144">
        <ele>1560</ele>
        <time>2024-08-12T04:09:14Z</time>
      </trkpt>
      <trkpt lat="44.83257" lon="6.4144">
        <ele>1560</ele>
        <time>2024-08-12T04:09:15Z</time>
      </trkpt>
      <trkpt lat="44.83256" lon="6.41437">
        <ele>1560.4</ele>
        <time>2024-08-12T04:09:16Z</time>
      </trkpt>
      <trkpt lat="44.83256" lon="6.41437">
        <ele>1560.4</ele>
        <time>2024-08-12T04:09:17Z</time>
      </trkpt>
      <trkpt lat="44.83255" lon="6.41434">
        <ele>1560.4</ele>
        <time>2024-08-12T04:09:18Z</time>
      </trkpt>
      <trkpt lat="44.83255" lon="6.41434">
        <ele>1560.6</ele>
        <time>2024-08-12T04:09:19Z</time>
      </trkpt>
      <trkpt lat="44.83255" lon="6.41431">
        <ele>1561</ele>
        <time>2024-08-12T04:09:20Z</time>
      </trkpt>
      <trkpt lat="44.83255" lon="6.41431">
        <ele>1561.4</ele>
        <time>2024-08-12T04:09:21Z</time>
      </trkpt>
      <trkpt lat="44.83253" lon="6.41429">
        <ele>1561.4</ele>
        <time>2024-08-12T04:09:22Z</time>
      </trkpt>
      <trkpt lat="44.83253" lon="6.41429">
        <ele>1561.6</ele>
        <time>2024-08-12T04:09:23Z</time>
      </trkpt>
      <trkpt lat="44.83253" lon="6.41426">
        <ele>1561.6</ele>
        <time>2024-08-12T04:09:24Z</time>
      </trkpt>
      <trkpt lat="44.83253" lon="6.41426">
        <ele>1561.6</ele>
        <time>2024-08-12T04:09:25Z</time>
      </trkpt>
      <trkpt lat="44.83252" lon="6.41423">
        <ele>1561.8</ele>
        <time>2024-08-12T04:09:26Z</time>
      </trkpt>
      <trkpt lat="44.83252" lon="6.41423">
        <ele>1562.2</ele>
        <time>2024-08-12T04:09:27Z</time>
      </trkpt>
      <trkpt lat="44.83251" lon="6.4142">
        <ele>1562.4</ele>
        <time>2024-08-12T04:09:28Z</time>
      </trkpt>
      <trkpt lat="44.83251" lon="6.4142">
        <ele>1562.6</ele>
        <time>2024-08-12T04:09:29Z</time>
      </trkpt>
      <trkpt lat="44.8325" lon="6.41418">
        <ele>1562.8</ele>
        <time>2024-08-12T04:09:30Z</time>
      </trkpt>
      <trkpt lat="44.8325" lon="6.41418">
        <ele>1563</ele>
        <time>2024-08-12T04:09:31Z</time>
      </trkpt>
      <trkpt lat="44.83249" lon="6.41415">
        <ele>1563</ele>
        <time>2024-08-12T04:09:32Z</time>
      </trkpt>
      <trkpt lat="44.83249" lon="6.41415">
        <ele>1563.2</ele>
        <time>2024-08-12T04:09:33Z</time>
      </trkpt>
      <trkpt lat="44.83249" lon="6.41412">
        <ele>1563.2</ele>
        <time>2024-08-12T04:09:34Z</time>
      </trkpt>
      <trkpt lat="44.83249" lon="6.41412">
        <ele>1563.4</ele>
        <time>2024-08-12T04:09:35Z</time>
      </trkpt>
      <trkpt lat="44.83247" lon="6.41409">
        <ele>1563.6</ele>
        <time>2024-08-12T04:09:36Z</time>
      </trkpt>
      <trkpt lat="44.83247" lon="6.41409">
        <ele>1563.6</ele>
        <time>2024-08-12T04:09:37Z</time>
      </trkpt>
      <trkpt lat="44.83247" lon="6.41406">
        <ele>1563.8</ele>
        <time>2024-08-12T04:09:38Z</time>
      </trkpt>
      <trkpt lat="44.83247" lon="6.41406">
        <ele>1564</ele>
        <time>2024-08-12T04:09:39Z</time>
      </trkpt>
      <trkpt lat="44.83246" lon="6.41403">
        <ele>1564</ele>
        <time>2024-08-12T04:09:40Z</time>
      </trkpt>
      <trkpt lat="44.83246" lon="6.41403">
        <ele>1564.4</ele>
        <time>2024-08-12T04:09:41Z</time>
      </trkpt>
      <trkpt lat="44.83246" lon="6.414">
        <ele>1564.4</ele>
        <time>2024-08-12T04:09:42Z</time>
      </trkpt>
      <trkpt lat="44.83246" lon="6.414">
        <ele>1564.6</ele>
        <time>2024-08-12T04:09:43Z</time>
      </trkpt>
      <trkpt lat="44.83245" lon="6.41397">
        <ele>1564.8</ele>
        <time>2024-08-12T04:09:44Z</time>
      </trkpt>
      <trkpt lat="44.83245" lon="6.41397">
        <ele>1565</ele>
        <time>2024-08-12T04:09:45Z</time>
      </trkpt>
      <trkpt lat="44.83245" lon="6.41394">
        <ele>1565.2</ele>
        <time>2024-08-12T04:09:46Z</time>
      </trkpt>
      <trkpt lat="44.83245" lon="6.41394">
        <ele>1565.4</ele>
        <time>2024-08-12T04:09:47Z</time>
      </trkpt>
      <trkpt lat="44.83245" lon="6.4139">
        <ele>1565.6</ele>
        <time>2024-08-12T04:09:48Z</time>
      </trkpt>
      <trkpt lat="44.83245" lon="6.4139">
        <ele>1565.6</ele>
        <time>2024-08-12T04:09:49Z</time>
      </trkpt>
      <trkpt lat="44.83245" lon="6.41387">
        <ele>1565.8</ele>
        <time>2024-08-12T04:09:50Z</time>
      </trkpt>
      <trkpt lat="44.83245" lon="6.41387">
        <ele>1566</ele>
        <time>2024-08-12T04:09:51Z</time>
      </trkpt>
      <trkpt lat="44.83245" lon="6.41384">
        <ele>1566</ele>
        <time>2024-08-12T04:09:52Z</time>
      </trkpt>
      <trkpt lat="44.83245" lon="6.41384">
        <ele>1566</ele>
        <time>2024-08-12T04:09:53Z</time>
      </trkpt>
      <trkpt lat="44.83246" lon="6.4138">
        <ele>1566.4</ele>
        <time>2024-08-12T04:09:54Z</time>
      </trkpt>
      <trkpt lat="44.83246" lon="6.4138">
        <ele>1566.6</ele>
        <time>2024-08-12T04:09:55Z</time>
      </trkpt>
      <trkpt lat="44.83247" lon="6.41377">
        <ele>1566.8</ele>
        <time>2024-08-12T04:09:56Z</time>
      </trkpt>
      <trkpt lat="44.83247" lon="6.41377">
        <ele>1567</ele>
        <time>2024-08-12T04:09:57Z</time>
      </trkpt>
      <trkpt lat="44.83247" lon="6.41374">
        <ele>1567</ele>
        <time>2024-08-12T04:09:58Z</time>
      </trkpt>
      <trkpt lat="44.83247" lon="6.41374">
        <ele>1567</ele>
        <time>2024-08-12T04:09:59Z</time>
      </trkpt>
      <trkpt lat="44.83247" lon="6.41371">
        <ele>1567</ele>
        <time>2024-08-12T04:10:00Z</time>
      </trkpt>
      <trkpt lat="44.83247" lon="6.41371">
        <ele>1567.2</ele>
        <time>2024-08-12T04:10:01Z</time>
      </trkpt>
      <trkpt lat="44.83248" lon="6.41368">
        <ele>1567.6</ele>
        <time>2024-08-12T04:10:02Z</time>
      </trkpt>
      <trkpt lat="44.83248" lon="6.41368">
        <ele>1567.4</ele>
        <time>2024-08-12T04:10:03Z</time>
      </trkpt>
      <trkpt lat="44.83249" lon="6.41365">
        <ele>1567.4</ele>
        <time>2024-08-12T04:10:04Z</time>
      </trkpt>
      <trkpt lat="44.83249" lon="6.41365">
        <ele>1567.8</ele>
        <time>2024-08-12T04:10:05Z</time>
      </trkpt>
      <trkpt lat="44.83251" lon="6.41362">
        <ele>1567.8</ele>
        <time>2024-08-12T04:10:06Z</time>
      </trkpt>
      <trkpt lat="44.83251" lon="6.41362">
        <ele>1568</ele>
        <time>2024-08-12T04:10:07Z</time>
      </trkpt>
      <trkpt lat="44.83251" lon="6.41359">
        <ele>1568.4</ele>
        <time>2024-08-12T04:10:08Z</time>
      </trkpt>
      <trkpt lat="44.83251" lon="6.41359">
        <ele>1568.4</ele>
        <time>2024-08-12T04:10:09Z</time>
      </trkpt>
      <trkpt lat="44.83253" lon="6.41357">
        <ele>1568.4</ele>
        <time>2024-08-12T04:10:10Z</time>
      </trkpt>
      <trkpt lat="44.83253" lon="6.41357">
        <ele>1568.4</ele>
        <time>2024-08-12T04:10:11Z</time>
      </trkpt>
      <trkpt lat="44.83253" lon="6.41353">
        <ele>1568.8</ele>
        <time>2024-08-12T04:10:12Z</time>
      </trkpt>
      <trkpt lat="44.83253" lon="6.41353">
        <ele>1569</ele>
        <time>2024-08-12T04:10:13Z</time>
      </trkpt>
      <trkpt lat="44.83253" lon="6.41351">
        <ele>1569.2</ele>
        <time>2024-08-12T04:10:14Z</time>
      </trkpt>
      <trkpt lat="44.83253" lon="6.41351">
        <ele>1569.2</ele>
        <time>2024-08-12T04:10:15Z</time>
      </trkpt>
      <trkpt lat="44.83254" lon="6.41348">
        <ele>1569.2</ele>
        <time>2024-08-12T04:10:16Z</time>
      </trkpt>
      <trkpt lat="44.83254" lon="6.41348">
        <ele>1569.6</ele>
        <time>2024-08-12T04:10:17Z</time>
      </trkpt>
      <trkpt lat="44.83255" lon="6.41345">
        <ele>1569.6</ele>
        <time>2024-08-12T04:10:18Z</time>
      </trkpt>
      <trkpt lat="44.83255" lon="6.41345">
        <ele>1569.6</ele>
        <time>2024-08-12T04:10:19Z</time>
      </trkpt>
      <trkpt lat="44.83255" lon="6.41341">
        <ele>1570</ele>
        <time>2024-08-12T04:10:20Z</time>
      </trkpt>
      <trkpt lat="44.83255" lon="6.41341">
        <ele>1570.2</ele>
        <time>2024-08-12T04:10:21Z</time>
      </trkpt>
      <trkpt lat="44.83255" lon="6.41338">
        <ele>1570.4</ele>
        <time>2024-08-12T04:10:22Z</time>
      </trkpt>
      <trkpt lat="44.83255" lon="6.41338">
        <ele>1570.4</ele>
        <time>2024-08-12T04:10:23Z</time>
      </trkpt>
      <trkpt lat="44.83257" lon="6.41335">
        <ele>1570.6</ele>
        <time>2024-08-12T04:10:24Z</time>
      </trkpt>
      <trkpt lat="44.83257" lon="6.41335">
        <ele>1570.6</ele>
        <time>2024-08-12T04:10:25Z</time>
      </trkpt>
      <trkpt lat="44.83257" lon="6.41332">
        <ele>1570.6</ele>
        <time>2024-08-12T04:10:26Z</time>
      </trkpt>
      <trkpt lat="44.83257" lon="6.41332">
        <ele>1570.8</ele>
        <time>2024-08-12T04:10:27Z</time>
      </trkpt>
      <trkpt lat="44.83258" lon="6.41329">
        <ele>1571</ele>
        <time>2024-08-12T04:10:28Z</time>
      </trkpt>
      <trkpt lat="44.83258" lon="6.41329">
        <ele>1571.4</ele>
        <time>2024-08-12T04:10:29Z</time>
      </trkpt>
      <trkpt lat="44.83259" lon="6.41326">
        <ele>1571.4</ele>
        <time>2024-08-12T04:10:30Z</time>
      </trkpt>
      <trkpt lat="44.83259" lon="6.41326">
        <ele>1571.6</ele>
        <time>2024-08-12T04:10:31Z</time>
      </trkpt>
      <trkpt lat="44.83259" lon="6.41323">
        <ele>1572</ele>
        <time>2024-08-12T04:10:32Z</time>
      </trkpt>
      <trkpt lat="44.83259" lon="6.41323">
        <ele>1572.2</ele>
        <time>2024-08-12T04:10:33Z</time>
      </trkpt>
      <trkpt lat="44.8326" lon="6.41321">
        <ele>1572.2</ele>
        <time>2024-08-12T04:10:34Z</time>
      </trkpt>
      <trkpt lat="44.8326" lon="6.41321">
        <ele>1572.4</ele>
        <time>2024-08-12T04:10:35Z</time>
      </trkpt>
      <trkpt lat="44.8326" lon="6.41317">
        <ele>1572.6</ele>
        <time>2024-08-12T04:10:36Z</time>
      </trkpt>
      <trkpt lat="44.8326" lon="6.41317">
        <ele>1572.6</ele>
        <time>2024-08-12T04:10:37Z</time>
      </trkpt>
      <trkpt lat="44.8326" lon="6.41314">
        <ele>1572.8</ele>
        <time>2024-08-12T04:10:38Z</time>
      </trkpt>
      <trkpt lat="44.8326" lon="6.41314">
        <ele>1573</ele>
        <time>2024-08-12T04:10:39Z</time>
      </trkpt>
      <trkpt lat="44.83261" lon="6.41311">
        <ele>1573</ele>
        <time>2024-08-12T04:10:40Z</time>
      </trkpt>
      <trkpt lat="44.83261" lon="6.41311">
        <ele>1573.4</ele>
        <time>2024-08-12T04:10:41Z</time>
      </trkpt>
      <trkpt lat="44.83261" lon="6.41308">
        <ele>1573.4</ele>
        <time>2024-08-12T04:10:42Z</time>
      </trkpt>
      <trkpt lat="44.83261" lon="6.41308">
        <ele>1573.8</ele>
        <time>2024-08-12T04:10:43Z</time>
      </trkpt>
      <trkpt lat="44.83261" lon="6.41305">
        <ele>1574</ele>
        <time>2024-08-12T04:10:44Z</time>
      </trkpt>
      <trkpt lat="44.83261" lon="6.41305">
        <ele>1574</ele>
        <time>2024-08-12T04:10:45Z</time>
      </trkpt>
      <trkpt lat="44.83261" lon="6.41301">
        <ele>1574</ele>
        <time>2024-08-12T04:10:46Z</time>
      </trkpt>
      <trkpt lat="44.83261" lon="6.41301">
        <ele>1574.2</ele>
        <time>2024-08-12T04:10:47Z</time>
      </trkpt>
      <trkpt lat="44.83262" lon="6.41298">
        <ele>1574.2</ele>
        <time>2024-08-12T04:10:48Z</time>
      </trkpt>
      <trkpt lat="44.83262" lon="6.41298">
        <ele>1574.4</ele>
        <time>2024-08-12T04:10:49Z</time>
      </trkpt>
      <trkpt lat="44.83263" lon="6.41295">
        <ele>1574.6</ele>
        <time>2024-08-12T04:10:50Z</time>
      </trkpt>
      <trkpt lat="44.83263" lon="6.41295">
        <ele>1574.6</ele>
        <time>2024-08-12T04:10:51Z</time>
      </trkpt>
      <trkpt lat="44.83264" lon="6.41293">
        <ele>1574.8</ele>
        <time>2024-08-12T04:10:52Z</time>
      </trkpt>
      <trkpt lat="44.83264" lon="6.41293">
        <ele>1575</ele>
        <time>2024-08-12T04:10:53Z</time>
      </trkpt>
      <trkpt lat="44.83265" lon="6.41289">
        <ele>1575.2</ele>
        <time>2024-08-12T04:10:54Z</time>
      </trkpt>
      <trkpt lat="44.83265" lon="6.41289">
        <ele>1575.4</ele>
        <time>2024-08-12T04:10:55Z</time>
      </trkpt>
      <trkpt lat="44.83265" lon="6.41289">
        <ele>1575.6</ele>
        <time>2024-08-12T04:10:56Z</time>
      </trkpt>
      <trkpt lat="44.83265" lon="6.41285">
        <ele>1575.8</ele>
        <time>2024-08-12T04:10:57Z</time>
      </trkpt>
      <trkpt lat="44.83265" lon="6.41285">
        <ele>1575.8</ele>
        <time>2024-08-12T04:10:58Z</time>
      </trkpt>
      <trkpt lat="44.83266" lon="6.41282">
        <ele>1576</ele>
        <time>2024-08-12T04:10:59Z</time>
      </trkpt>
      <trkpt lat="44.83266" lon="6.41282">
        <ele>1576.2</ele>
        <time>2024-08-12T04:11:00Z</time>
      </trkpt>
      <trkpt lat="44.83266" lon="6.41278">
        <ele>1576.2</ele>
        <time>2024-08-12T04:11:01Z</time>
      </trkpt>
      <trkpt lat="44.83266" lon="6.41278">
        <ele>1576.4</ele>
        <time>2024-08-12T04:11:02Z</time>
      </trkpt>
      <trkpt lat="44.83265" lon="6.41275">
        <ele>1576.4</ele>
        <time>2024-08-12T04:11:03Z</time>
      </trkpt>
      <trkpt lat="44.83265" lon="6.41275">
        <ele>1576.6</ele>
        <time>2024-08-12T04:11:04Z</time>
      </trkpt>
      <trkpt lat="44.83265" lon="6.41271">
        <ele>1576.8</ele>
        <time>2024-08-12T04:11:05Z</time>
      </trkpt>
      <trkpt lat="44.83265" lon="6.41271">
        <ele>1577</ele>
        <time>2024-08-12T04:11:06Z</time>
      </trkpt>
      <trkpt lat="44.83265" lon="6.41267">
        <ele>1577.2</ele>
        <time>2024-08-12T04:11:07Z</time>
      </trkpt>
      <trkpt lat="44.83265" lon="6.41267">
        <ele>1577.2</ele>
        <time>2024-08-12T04:11:08Z</time>
      </trkpt>
      <trkpt lat="44.83265" lon="6.41264">
        <ele>1577.4</ele>
        <time>2024-08-12T04:11:09Z</time>
      </trkpt>
      <trkpt lat="44.83265" lon="6.41264">
        <ele>1577.4</ele>
        <time>2024-08-12T04:11:10Z</time>
      </trkpt>
      <trkpt lat="44.83264" lon="6.4126">
        <ele>1577.4</ele>
        <time>2024-08-12T04:11:11Z</time>
      </trkpt>
      <trkpt lat="44.83264" lon="6.4126">
        <ele>1577.6</ele>
        <time>2024-08-12T04:11:12Z</time>
      </trkpt>
      <trkpt lat="44.83263" lon="6.41257">
        <ele>1578</ele>
        <time>2024-08-12T04:11:13Z</time>
      </trkpt>
      <trkpt lat="44.83263" lon="6.41257">
        <ele>1578</ele>
        <time>2024-08-12T04:11:14Z</time>
      </trkpt>
      <trkpt lat="44.83263" lon="6.41254">
        <ele>1578.2</ele>
        <time>2024-08-12T04:11:15Z</time>
      </trkpt>
      <trkpt lat="44.83263" lon="6.41254">
        <ele>1578.4</ele>
        <time>2024-08-12T04:11:16Z</time>
      </trkpt>
      <trkpt lat="44.83262" lon="6.4125">
        <ele>1578.6</ele>
        <time>2024-08-12T04:11:17Z</time>
      </trkpt>
      <trkpt lat="44.83262" lon="6.4125">
        <ele>1578.6</ele>
        <time>2024-08-12T04:11:18Z</time>
      </trkpt>
      <trkpt lat="44.83261" lon="6.41247">
        <ele>1578.8</ele>
        <time>2024-08-12T04:11:19Z</time>
      </trkpt>
      <trkpt lat="44.83261" lon="6.41247">
        <ele>1579.2</ele>
        <time>2024-08-12T04:11:20Z</time>
      </trkpt>
      <trkpt lat="44.83261" lon="6.41245">
        <ele>1579.6</ele>
        <time>2024-08-12T04:11:21Z</time>
      </trkpt>
      <trkpt lat="44.83261" lon="6.41245">
        <ele>1579.6</ele>
        <time>2024-08-12T04:11:22Z</time>
      </trkpt>
      <trkpt lat="44.83261" lon="6.41245">
        <ele>1579.8</ele>
        <time>2024-08-12T04:11:23Z</time>
      </trkpt>
      <trkpt lat="44.83261" lon="6.41245">
        <ele>1579.8</ele>
        <time>2024-08-12T04:11:24Z</time>
      </trkpt>
      <trkpt lat="44.83261" lon="6.41245">
        <ele>1580</ele>
        <time>2024-08-12T04:11:25Z</time>
      </trkpt>
      <trkpt lat="44.83261" lon="6.41245">
        <ele>1580</ele>
        <time>2024-08-12T04:11:26Z</time>
      </trkpt>
      <trkpt lat="44.83259" lon="6.41245">
        <ele>1580</ele>
        <time>2024-08-12T04:11:27Z</time>
      </trkpt>
      <trkpt lat="44.83259" lon="6.41245">
        <ele>1580</ele>
        <time>2024-08-12T04:11:28Z</time>
      </trkpt>
      <trkpt lat="44.83259" lon="6.41245">
        <ele>1580.2</ele>
        <time>2024-08-12T04:11:29Z</time>
      </trkpt>
      <trkpt lat="44.83259" lon="6.41245">
        <ele>1580.2</ele>
        <time>2024-08-12T04:11:30Z</time>
      </trkpt>
      <trkpt lat="44.83259" lon="6.41245">
        <ele>1580.2</ele>
        <time>2024-08-12T04:11:31Z</time>
      </trkpt>
      <trkpt lat="44.83259" lon="6.41245">
        <ele>1580.2</ele>
        <time>2024-08-12T04:11:32Z</time>
      </trkpt>
      <trkpt lat="44.83259" lon="6.41245">
        <ele>1580.2</ele>
        <time>2024-08-12T04:11:33Z</time>
      </trkpt>
      <trkpt lat="44.83259" lon="6.41245">
        <ele>1580.2</ele>
        <time>2024-08-12T04:11:34Z</time>
      </trkpt>
      <trkpt lat="44.83259" lon="6.41245">
        <ele>1580</ele>
        <time>2024-08-12T04:11:35Z</time>
      </trkpt>
      <trkpt lat="44.83259" lon="6.41245">
        <ele>1580</ele>
        <time>2024-08-12T04:11:36Z</time>
      </trkpt>
      <trkpt lat="44.83258" lon="6.41242">
        <ele>1580</ele>
        <time>2024-08-12T04:11:37Z</time>
      </trkpt>
      <trkpt lat="44.83258" lon="6.41242">
        <ele>1580</ele>
        <time>2024-08-12T04:11:38Z</time>
      </trkpt>
      <trkpt lat="44.83257" lon="6.41237">
        <ele>1580.6</ele>
        <time>2024-08-12T04:11:39Z</time>
      </trkpt>
      <trkpt lat="44.83256" lon="6.41234">
        <ele>1580.6</ele>
        <time>2024-08-12T04:11:40Z</time>
      </trkpt>
      <trkpt lat="44.83256" lon="6.41231">
        <ele>1580.6</ele>
        <time>2024-08-12T04:11:41Z</time>
      </trkpt>
      <trkpt lat="44.83256" lon="6.41228">
        <ele>1580.6</ele>
        <time>2024-08-12T04:11:42Z</time>
      </trkpt>
      <trkpt lat="44.83256" lon="6.41226">
        <ele>1580.8</ele>
        <time>2024-08-12T04:11:43Z</time>
      </trkpt>
      <trkpt lat="44.83256" lon="6.41226">
        <ele>1580.8</ele>
        <time>2024-08-12T04:11:44Z</time>
      </trkpt>
      <trkpt lat="44.83256" lon="6.41221">
        <ele>1580.8</ele>
        <time>2024-08-12T04:11:45Z</time>
      </trkpt>
      <trkpt lat="44.83256" lon="6.41221">
        <ele>1581</ele>
        <time>2024-08-12T04:11:46Z</time>
      </trkpt>
      <trkpt lat="44.83256" lon="6.41217">
        <ele>1581</ele>
        <time>2024-08-12T04:11:47Z</time>
      </trkpt>
      <trkpt lat="44.83256" lon="6.41217">
        <ele>1581</ele>
        <time>2024-08-12T04:11:48Z</time>
      </trkpt>
      <trkpt lat="44.83256" lon="6.41214">
        <ele>1581.2</ele>
        <time>2024-08-12T04:11:49Z</time>
      </trkpt>
      <trkpt lat="44.83256" lon="6.41214">
        <ele>1581.4</ele>
        <time>2024-08-12T04:11:50Z</time>
      </trkpt>
      <trkpt lat="44.83256" lon="6.4121">
        <ele>1581.6</ele>
        <time>2024-08-12T04:11:51Z</time>
      </trkpt>
      <trkpt lat="44.83256" lon="6.4121">
        <ele>1581.6</ele>
        <time>2024-08-12T04:11:52Z</time>
      </trkpt>
      <trkpt lat="44.83257" lon="6.41206">
        <ele>1581.8</ele>
        <time>2024-08-12T04:11:53Z</time>
      </trkpt>
      <trkpt lat="44.83257" lon="6.41206">
        <ele>1581.8</ele>
        <time>2024-08-12T04:11:54Z</time>
      </trkpt>
      <trkpt lat="44.83257" lon="6.41202">
        <ele>1582</ele>
        <time>2024-08-12T04:11:55Z</time>
      </trkpt>
      <trkpt lat="44.83257" lon="6.41202">
        <ele>1582</ele>
        <time>2024-08-12T04:11:56Z</time>
      </trkpt>
      <trkpt lat="44.83257" lon="6.41199">
        <ele>1582</ele>
        <time>2024-08-12T04:11:57Z</time>
      </trkpt>
      <trkpt lat="44.83257" lon="6.41199">
        <ele>1582</ele>
        <time>2024-08-12T04:11:58Z</time>
      </trkpt>
      <trkpt lat="44.83257" lon="6.41195">
        <ele>1582</ele>
        <time>2024-08-12T04:11:59Z</time>
      </trkpt>
      <trkpt lat="44.83257" lon="6.41195">
        <ele>1582</ele>
        <time>2024-08-12T04:12:00Z</time>
      </trkpt>
      <trkpt lat="44.83257" lon="6.41192">
        <ele>1582.6</ele>
        <time>2024-08-12T04:12:01Z</time>
      </trkpt>
      <trkpt lat="44.83257" lon="6.41192">
        <ele>1582.4</ele>
        <time>2024-08-12T04:12:02Z</time>
      </trkpt>
      <trkpt lat="44.83257" lon="6.41188">
        <ele>1582.4</ele>
        <time>2024-08-12T04:12:03Z</time>
      </trkpt>
      <trkpt lat="44.83257" lon="6.41188">
        <ele>1582.8</ele>
        <time>2024-08-12T04:12:04Z</time>
      </trkpt>
      <trkpt lat="44.83258" lon="6.41185">
        <ele>1583</ele>
        <time>2024-08-12T04:12:05Z</time>
      </trkpt>
      <trkpt lat="44.83258" lon="6.41185">
        <ele>1583</ele>
        <time>2024-08-12T04:12:06Z</time>
      </trkpt>
      <trkpt lat="44.83258" lon="6.41182">
        <ele>1583.2</ele>
        <time>2024-08-12T04:12:07Z</time>
      </trkpt>
      <trkpt lat="44.83258" lon="6.41182">
        <ele>1583.2</ele>
        <time>2024-08-12T04:12:08Z</time>
      </trkpt>
      <trkpt lat="44.83258" lon="6.41178">
        <ele>1583.4</ele>
        <time>2024-08-12T04:12:09Z</time>
      </trkpt>
      <trkpt lat="44.83258" lon="6.41178">
        <ele>1583.4</ele>
        <time>2024-08-12T04:12:10Z</time>
      </trkpt>
      <trkpt lat="44.83258" lon="6.41174">
        <ele>1583.4</ele>
        <time>2024-08-12T04:12:11Z</time>
      </trkpt>
      <trkpt lat="44.83258" lon="6.41174">
        <ele>1583.8</ele>
        <time>2024-08-12T04:12:12Z</time>
      </trkpt>
      <trkpt lat="44.83258" lon="6.4117">
        <ele>1584</ele>
        <time>2024-08-12T04:12:13Z</time>
      </trkpt>
      <trkpt lat="44.83258" lon="6.4117">
        <ele>1584</ele>
        <time>2024-08-12T04:12:14Z</time>
      </trkpt>
      <trkpt lat="44.83258" lon="6.41167">
        <ele>1584</ele>
        <time>2024-08-12T04:12:15Z</time>
      </trkpt>
      <trkpt lat="44.83258" lon="6.41167">
        <ele>1584.2</ele>
        <time>2024-08-12T04:12:16Z</time>
      </trkpt>
      <trkpt lat="44.83257" lon="6.41164">
        <ele>1584.2</ele>
        <time>2024-08-12T04:12:17Z</time>
      </trkpt>
      <trkpt lat="44.83257" lon="6.41164">
        <ele>1584.2</ele>
        <time>2024-08-12T04:12:18Z</time>
      </trkpt>
      <trkpt lat="44.83256" lon="6.41159">
        <ele>1584.8</ele>
        <time>2024-08-12T04:12:19Z</time>
      </trkpt>
      <trkpt lat="44.83256" lon="6.41159">
        <ele>1585.2</ele>
        <time>2024-08-12T04:12:20Z</time>
      </trkpt>
      <trkpt lat="44.83255" lon="6.41155">
        <ele>1585.2</ele>
        <time>2024-08-12T04:12:21Z</time>
      </trkpt>
      <trkpt lat="44.83255" lon="6.41155">
        <ele>1585.2</ele>
        <time>2024-08-12T04:12:22Z</time>
      </trkpt>
      <trkpt lat="44.83255" lon="6.41152">
        <ele>1585.4</ele>
        <time>2024-08-12T04:12:23Z</time>
      </trkpt>
      <trkpt lat="44.83255" lon="6.41152">
        <ele>1585.6</ele>
        <time>2024-08-12T04:12:24Z</time>
      </trkpt>
      <trkpt lat="44.83255" lon="6.41149">
        <ele>1585.8</ele>
        <time>2024-08-12T04:12:25Z</time>
      </trkpt>
      <trkpt lat="44.83255" lon="6.41149">
        <ele>1585.8</ele>
        <time>2024-08-12T04:12:26Z</time>
      </trkpt>
      <trkpt lat="44.83254" lon="6.41145">
        <ele>1585.8</ele>
        <time>2024-08-12T04:12:27Z</time>
      </trkpt>
      <trkpt lat="44.83254" lon="6.41145">
        <ele>1585.8</ele>
        <time>2024-08-12T04:12:28Z</time>
      </trkpt>
      <trkpt lat="44.83253" lon="6.41141">
        <ele>1585.8</ele>
        <time>2024-08-12T04:12:29Z</time>
      </trkpt>
      <trkpt lat="44.83253" lon="6.41141">
        <ele>1586</ele>
        <time>2024-08-12T04:12:30Z</time>
      </trkpt>
      <trkpt lat="44.83252" lon="6.41137">
        <ele>1586</ele>
        <time>2024-08-12T04:12:31Z</time>
      </trkpt>
      <trkpt lat="44.83252" lon="6.41137">
        <ele>1586.2</ele>
        <time>2024-08-12T04:12:32Z</time>
      </trkpt>
      <trkpt lat="44.83252" lon="6.41134">
        <ele>1586.2</ele>
        <time>2024-08-12T04:12:33Z</time>
      </trkpt>
      <trkpt lat="44.83252" lon="6.41134">
        <ele>1586.2</ele>
        <time>2024-08-12T04:12:34Z</time>
      </trkpt>
      <trkpt lat="44.83251" lon="6.41131">
        <ele>1586.2</ele>
        <time>2024-08-12T04:12:35Z</time>
      </trkpt>
      <trkpt lat="44.83251" lon="6.41131">
        <ele>1586.4</ele>
        <time>2024-08-12T04:12:36Z</time>
      </trkpt>
      <trkpt lat="44.8325" lon="6.41128">
        <ele>1586.4</ele>
        <time>2024-08-12T04:12:37Z</time>
      </trkpt>
      <trkpt lat="44.8325" lon="6.41128">
        <ele>1586.6</ele>
        <time>2024-08-12T04:12:38Z</time>
      </trkpt>
      <trkpt lat="44.83249" lon="6.41125">
        <ele>1586.8</ele>
        <time>2024-08-12T04:12:39Z</time>
      </trkpt>
      <trkpt lat="44.83249" lon="6.41125">
        <ele>1586.8</ele>
        <time>2024-08-12T04:12:40Z</time>
      </trkpt>
      <trkpt lat="44.83247" lon="6.4112">
        <ele>1587</ele>
        <time>2024-08-12T04:12:41Z</time>
      </trkpt>
      <trkpt lat="44.83247" lon="6.4112">
        <ele>1587</ele>
        <time>2024-08-12T04:12:42Z</time>
      </trkpt>
      <trkpt lat="44.83246" lon="6.41117">
        <ele>1587.2</ele>
        <time>2024-08-12T04:12:43Z</time>
      </trkpt>
      <trkpt lat="44.83246" lon="6.41117">
        <ele>1587.2</ele>
        <time>2024-08-12T04:12:44Z</time>
      </trkpt>
      <trkpt lat="44.83245" lon="6.41113">
        <ele>1587.2</ele>
        <time>2024-08-12T04:12:45Z</time>
      </trkpt>
      <trkpt lat="44.83245" lon="6.41113">
        <ele>1587.2</ele>
        <time>2024-08-12T04:12:46Z</time>
      </trkpt>
      <trkpt lat="44.83244" lon="6.4111">
        <ele>1587.2</ele>
        <time>2024-08-12T04:12:47Z</time>
      </trkpt>
      <trkpt lat="44.83244" lon="6.4111">
        <ele>1587.4</ele>
        <time>2024-08-12T04:12:48Z</time>
      </trkpt>
      <trkpt lat="44.83243" lon="6.41107">
        <ele>1587.4</ele>
        <time>2024-08-12T04:12:49Z</time>
      </trkpt>
      <trkpt lat="44.83243" lon="6.41107">
        <ele>1587.6</ele>
        <time>2024-08-12T04:12:50Z</time>
      </trkpt>
      <trkpt lat="44.83241" lon="6.41103">
        <ele>1587.8</ele>
        <time>2024-08-12T04:12:51Z</time>
      </trkpt>
      <trkpt lat="44.83241" lon="6.41103">
        <ele>1588</ele>
        <time>2024-08-12T04:12:52Z</time>
      </trkpt>
      <trkpt lat="44.8324" lon="6.411">
        <ele>1588.2</ele>
        <time>2024-08-12T04:12:53Z</time>
      </trkpt>
      <trkpt lat="44.8324" lon="6.411">
        <ele>1588.2</ele>
        <time>2024-08-12T04:12:54Z</time>
      </trkpt>
      <trkpt lat="44.83239" lon="6.41097">
        <ele>1588.2</ele>
        <time>2024-08-12T04:12:55Z</time>
      </trkpt>
      <trkpt lat="44.83239" lon="6.41097">
        <ele>1588.2</ele>
        <time>2024-08-12T04:12:56Z</time>
      </trkpt>
      <trkpt lat="44.83238" lon="6.41094">
        <ele>1588.2</ele>
        <time>2024-08-12T04:12:57Z</time>
      </trkpt>
      <trkpt lat="44.83238" lon="6.41094">
        <ele>1588.4</ele>
        <time>2024-08-12T04:12:58Z</time>
      </trkpt>
      <trkpt lat="44.83237" lon="6.4109">
        <ele>1588.4</ele>
        <time>2024-08-12T04:12:59Z</time>
      </trkpt>
      <trkpt lat="44.83237" lon="6.4109">
        <ele>1588.4</ele>
        <time>2024-08-12T04:13:00Z</time>
      </trkpt>
      <trkpt lat="44.83235" lon="6.41087">
        <ele>1588.8</ele>
        <time>2024-08-12T04:13:01Z</time>
      </trkpt>
      <trkpt lat="44.83235" lon="6.41087">
        <ele>1589</ele>
        <time>2024-08-12T04:13:02Z</time>
      </trkpt>
      <trkpt lat="44.83234" lon="6.41084">
        <ele>1589</ele>
        <time>2024-08-12T04:13:03Z</time>
      </trkpt>
      <trkpt lat="44.83234" lon="6.41084">
        <ele>1589</ele>
        <time>2024-08-12T04:13:04Z</time>
      </trkpt>
      <trkpt lat="44.83233" lon="6.41081">
        <ele>1589.2</ele>
        <time>2024-08-12T04:13:05Z</time>
      </trkpt>
      <trkpt lat="44.83233" lon="6.41081">
        <ele>1589.4</ele>
        <time>2024-08-12T04:13:06Z</time>
      </trkpt>
      <trkpt lat="44.83232" lon="6.41077">
        <ele>1589.4</ele>
        <time>2024-08-12T04:13:07Z</time>
      </trkpt>
      <trkpt lat="44.83232" lon="6.41077">
        <ele>1589.8</ele>
        <time>2024-08-12T04:13:08Z</time>
      </trkpt>
      <trkpt lat="44.8323" lon="6.41074">
        <ele>1589.8</ele>
        <time>2024-08-12T04:13:09Z</time>
      </trkpt>
      <trkpt lat="44.8323" lon="6.41074">
        <ele>1589.8</ele>
        <time>2024-08-12T04:13:10Z</time>
      </trkpt>
      <trkpt lat="44.83229" lon="6.41071">
        <ele>1590</ele>
        <time>2024-08-12T04:13:11Z</time>
      </trkpt>
      <trkpt lat="44.83229" lon="6.41071">
        <ele>1590</ele>
        <time>2024-08-12T04:13:12Z</time>
      </trkpt>
      <trkpt lat="44.83228" lon="6.41067">
        <ele>1590.2</ele>
        <time>2024-08-12T04:13:13Z</time>
      </trkpt>
      <trkpt lat="44.83228" lon="6.41067">
        <ele>1590.2</ele>
        <time>2024-08-12T04:13:14Z</time>
      </trkpt>
      <trkpt lat="44.83226" lon="6.41063">
        <ele>1590.2</ele>
        <time>2024-08-12T04:13:15Z</time>
      </trkpt>
      <trkpt lat="44.83226" lon="6.41063">
        <ele>1590.4</ele>
        <time>2024-08-12T04:13:16Z</time>
      </trkpt>
      <trkpt lat="44.83226" lon="6.4106">
        <ele>1590.4</ele>
        <time>2024-08-12T04:13:17Z</time>
      </trkpt>
      <trkpt lat="44.83226" lon="6.4106">
        <ele>1590.4</ele>
        <time>2024-08-12T04:13:18Z</time>
      </trkpt>
      <trkpt lat="44.83225" lon="6.41057">
        <ele>1590.4</ele>
        <time>2024-08-12T04:13:19Z</time>
      </trkpt>
      <trkpt lat="44.83225" lon="6.41057">
        <ele>1590.8</ele>
        <time>2024-08-12T04:13:20Z</time>
      </trkpt>
      <trkpt lat="44.83223" lon="6.41054">
        <ele>1591</ele>
        <time>2024-08-12T04:13:21Z</time>
      </trkpt>
      <trkpt lat="44.83223" lon="6.41054">
        <ele>1591.2</ele>
        <time>2024-08-12T04:13:22Z</time>
      </trkpt>
      <trkpt lat="44.83222" lon="6.41051">
        <ele>1591.2</ele>
        <time>2024-08-12T04:13:23Z</time>
      </trkpt>
      <trkpt lat="44.83222" lon="6.41051">
        <ele>1591.2</ele>
        <time>2024-08-12T04:13:24Z</time>
      </trkpt>
      <trkpt lat="44.83222" lon="6.41046">
        <ele>1591.2</ele>
        <time>2024-08-12T04:13:25Z</time>
      </trkpt>
      <trkpt lat="44.83222" lon="6.41046">
        <ele>1591.4</ele>
        <time>2024-08-12T04:13:26Z</time>
      </trkpt>
      <trkpt lat="44.83222" lon="6.41042">
        <ele>1591.4</ele>
        <time>2024-08-12T04:13:27Z</time>
      </trkpt>
      <trkpt lat="44.83222" lon="6.41042">
        <ele>1591.4</ele>
        <time>2024-08-12T04:13:28Z</time>
      </trkpt>
      <trkpt lat="44.83221" lon="6.41038">
        <ele>1591.4</ele>
        <time>2024-08-12T04:13:29Z</time>
      </trkpt>
      <trkpt lat="44.83221" lon="6.41038">
        <ele>1591.6</ele>
        <time>2024-08-12T04:13:30Z</time>
      </trkpt>
      <trkpt lat="44.8322" lon="6.41034">
        <ele>1591.6</ele>
        <time>2024-08-12T04:13:31Z</time>
      </trkpt>
      <trkpt lat="44.8322" lon="6.41034">
        <ele>1591.8</ele>
        <time>2024-08-12T04:13:32Z</time>
      </trkpt>
      <trkpt lat="44.8322" lon="6.4103">
        <ele>1591.8</ele>
        <time>2024-08-12T04:13:33Z</time>
      </trkpt>
      <trkpt lat="44.8322" lon="6.4103">
        <ele>1592</ele>
        <time>2024-08-12T04:13:34Z</time>
      </trkpt>
      <trkpt lat="44.8322" lon="6.41026">
        <ele>1592</ele>
        <time>2024-08-12T04:13:35Z</time>
      </trkpt>
      <trkpt lat="44.8322" lon="6.41026">
        <ele>1592</ele>
        <time>2024-08-12T04:13:36Z</time>
      </trkpt>
      <trkpt lat="44.83219" lon="6.41023">
        <ele>1592</ele>
        <time>2024-08-12T04:13:37Z</time>
      </trkpt>
      <trkpt lat="44.83219" lon="6.41023">
        <ele>1592</ele>
        <time>2024-08-12T04:13:38Z</time>
      </trkpt>
      <trkpt lat="44.83219" lon="6.4102">
        <ele>1592.2</ele>
        <time>2024-08-12T04:13:39Z</time>
      </trkpt>
      <trkpt lat="44.83219" lon="6.4102">
        <ele>1592.2</ele>
        <time>2024-08-12T04:13:40Z</time>
      </trkpt>
      <trkpt lat="44.83219" lon="6.41016">
        <ele>1592.4</ele>
        <time>2024-08-12T04:13:41Z</time>
      </trkpt>
      <trkpt lat="44.83219" lon="6.41016">
        <ele>1592.4</ele>
        <time>2024-08-12T04:13:42Z</time>
      </trkpt>
      <trkpt lat="44.8322" lon="6.41013">
        <ele>1592.4</ele>
        <time>2024-08-12T04:13:43Z</time>
      </trkpt>
      <trkpt lat="44.8322" lon="6.41013">
        <ele>1592.4</ele>
        <time>2024-08-12T04:13:44Z</time>
      </trkpt>
      <trkpt lat="44.8322" lon="6.41009">
        <ele>1592.6</ele>
        <time>2024-08-12T04:13:45Z</time>
      </trkpt>
      <trkpt lat="44.8322" lon="6.41009">
        <ele>1592.6</ele>
        <time>2024-08-12T04:13:46Z</time>
      </trkpt>
      <trkpt lat="44.8322" lon="6.41005">
        <ele>1592.6</ele>
        <time>2024-08-12T04:13:47Z</time>
      </trkpt>
      <trkpt lat="44.8322" lon="6.41005">
        <ele>1592.8</ele>
        <time>2024-08-12T04:13:48Z</time>
      </trkpt>
      <trkpt lat="44.83219" lon="6.41001">
        <ele>1592.8</ele>
        <time>2024-08-12T04:13:49Z</time>
      </trkpt>
      <trkpt lat="44.83219" lon="6.41001">
        <ele>1592.8</ele>
        <time>2024-08-12T04:13:50Z</time>
      </trkpt>
      <trkpt lat="44.83218" lon="6.40997">
        <ele>1593</ele>
        <time>2024-08-12T04:13:51Z</time>
      </trkpt>
      <trkpt lat="44.83218" lon="6.40997">
        <ele>1593</ele>
        <time>2024-08-12T04:13:52Z</time>
      </trkpt>
      <trkpt lat="44.83218" lon="6.40993">
        <ele>1593</ele>
        <time>2024-08-12T04:13:53Z</time>
      </trkpt>
      <trkpt lat="44.83218" lon="6.40993">
        <ele>1592.6</ele>
        <time>2024-08-12T04:13:54Z</time>
      </trkpt>
      <trkpt lat="44.83218" lon="6.40988">
        <ele>1592.6</ele>
        <time>2024-08-12T04:13:55Z</time>
      </trkpt>
      <trkpt lat="44.83218" lon="6.40986">
        <ele>1592.8</ele>
        <time>2024-08-12T04:13:56Z</time>
      </trkpt>
      <trkpt lat="44.83218" lon="6.40986">
        <ele>1592.8</ele>
        <time>2024-08-12T04:13:57Z</time>
      </trkpt>
      <trkpt lat="44.83218" lon="6.40981">
        <ele>1592.8</ele>
        <time>2024-08-12T04:13:58Z</time>
      </trkpt>
      <trkpt lat="44.83218" lon="6.40981">
        <ele>1593</ele>
        <time>2024-08-12T04:13:59Z</time>
      </trkpt>
      <trkpt lat="44.83219" lon="6.40978">
        <ele>1593</ele>
        <time>2024-08-12T04:14:00Z</time>
      </trkpt>
      <trkpt lat="44.83219" lon="6.40978">
        <ele>1593.2</ele>
        <time>2024-08-12T04:14:01Z</time>
      </trkpt>
      <trkpt lat="44.83219" lon="6.40974">
        <ele>1593.4</ele>
        <time>2024-08-12T04:14:02Z</time>
      </trkpt>
      <trkpt lat="44.83219" lon="6.40974">
        <ele>1593.4</ele>
        <time>2024-08-12T04:14:03Z</time>
      </trkpt>
      <trkpt lat="44.83219" lon="6.4097">
        <ele>1593.6</ele>
        <time>2024-08-12T04:14:04Z</time>
      </trkpt>
      <trkpt lat="44.83219" lon="6.4097">
        <ele>1593.6</ele>
        <time>2024-08-12T04:14:05Z</time>
      </trkpt>
      <trkpt lat="44.83219" lon="6.40967">
        <ele>1593.6</ele>
        <time>2024-08-12T04:14:06Z</time>
      </trkpt>
      <trkpt lat="44.83219" lon="6.40967">
        <ele>1593.6</ele>
        <time>2024-08-12T04:14:07Z</time>
      </trkpt>
      <trkpt lat="44.83219" lon="6.40963">
        <ele>1593.6</ele>
        <time>2024-08-12T04:14:08Z</time>
      </trkpt>
      <trkpt lat="44.83219" lon="6.40963">
        <ele>1593.6</ele>
        <time>2024-08-12T04:14:09Z</time>
      </trkpt>
      <trkpt lat="44.83219" lon="6.40959">
        <ele>1593.6</ele>
        <time>2024-08-12T04:14:10Z</time>
      </trkpt>
      <trkpt lat="44.83219" lon="6.40959">
        <ele>1593.8</ele>
        <time>2024-08-12T04:14:11Z</time>
      </trkpt>
      <trkpt lat="44.8322" lon="6.40955">
        <ele>1593.8</ele>
        <time>2024-08-12T04:14:12Z</time>
      </trkpt>
      <trkpt lat="44.8322" lon="6.40955">
        <ele>1593.6</ele>
        <time>2024-08-12T04:14:13Z</time>
      </trkpt>
      <trkpt lat="44.8322" lon="6.40951">
        <ele>1593.6</ele>
        <time>2024-08-12T04:14:14Z</time>
      </trkpt>
      <trkpt lat="44.8322" lon="6.40949">
        <ele>1593.8</ele>
        <time>2024-08-12T04:14:15Z</time>
      </trkpt>
      <trkpt lat="44.8322" lon="6.40947">
        <ele>1594.2</ele>
        <time>2024-08-12T04:14:16Z</time>
      </trkpt>
      <trkpt lat="44.83219" lon="6.40946">
        <ele>1594.2</ele>
        <time>2024-08-12T04:14:17Z</time>
      </trkpt>
      <trkpt lat="44.83219" lon="6.40945">
        <ele>1594.2</ele>
        <time>2024-08-12T04:14:18Z</time>
      </trkpt>
      <trkpt lat="44.83219" lon="6.4094">
        <ele>1594.4</ele>
        <time>2024-08-12T04:14:19Z</time>
      </trkpt>
      <trkpt lat="44.83219" lon="6.4094">
        <ele>1594.4</ele>
        <time>2024-08-12T04:14:20Z</time>
      </trkpt>
      <trkpt lat="44.83218" lon="6.40936">
        <ele>1594.4</ele>
        <time>2024-08-12T04:14:21Z</time>
      </trkpt>
      <trkpt lat="44.83218" lon="6.40936">
        <ele>1594.6</ele>
        <time>2024-08-12T04:14:22Z</time>
      </trkpt>
      <trkpt lat="44.83217" lon="6.40933">
        <ele>1594.6</ele>
        <time>2024-08-12T04:14:23Z</time>
      </trkpt>
      <trkpt lat="44.83217" lon="6.40933">
        <ele>1594.8</ele>
        <time>2024-08-12T04:14:24Z</time>
      </trkpt>
      <trkpt lat="44.83217" lon="6.4093">
        <ele>1595</ele>
        <time>2024-08-12T04:14:25Z</time>
      </trkpt>
      <trkpt lat="44.83217" lon="6.4093">
        <ele>1595</ele>
        <time>2024-08-12T04:14:26Z</time>
      </trkpt>
      <trkpt lat="44.83216" lon="6.40926">
        <ele>1595.2</ele>
        <time>2024-08-12T04:14:27Z</time>
      </trkpt>
      <trkpt lat="44.83216" lon="6.40926">
        <ele>1595.2</ele>
        <time>2024-08-12T04:14:28Z</time>
      </trkpt>
      <trkpt lat="44.83216" lon="6.40923">
        <ele>1595.2</ele>
        <time>2024-08-12T04:14:29Z</time>
      </trkpt>
      <trkpt lat="44.83216" lon="6.40923">
        <ele>1595.2</ele>
        <time>2024-08-12T04:14:30Z</time>
      </trkpt>
      <trkpt lat="44.83215" lon="6.40919">
        <ele>1595.4</ele>
        <time>2024-08-12T04:14:31Z</time>
      </trkpt>
      <trkpt lat="44.83215" lon="6.40919">
        <ele>1595.4</ele>
        <time>2024-08-12T04:14:32Z</time>
      </trkpt>
      <trkpt lat="44.83215" lon="6.40916">
        <ele>1595.6</ele>
        <time>2024-08-12T04:14:33Z</time>
      </trkpt>
      <trkpt lat="44.83215" lon="6.40916">
        <ele>1595.6</ele>
        <time>2024-08-12T04:14:34Z</time>
      </trkpt>
      <trkpt lat="44.83213" lon="6.40913">
        <ele>1595.6</ele>
        <time>2024-08-12T04:14:35Z</time>
      </trkpt>
      <trkpt lat="44.83213" lon="6.40913">
        <ele>1595.8</ele>
        <time>2024-08-12T04:14:36Z</time>
      </trkpt>
      <trkpt lat="44.83212" lon="6.4091">
        <ele>1595.8</ele>
        <time>2024-08-12T04:14:37Z</time>
      </trkpt>
      <trkpt lat="44.83212" lon="6.4091">
        <ele>1596</ele>
        <time>2024-08-12T04:14:38Z</time>
      </trkpt>
      <trkpt lat="44.8321" lon="6.40907">
        <ele>1596.2</ele>
        <time>2024-08-12T04:14:39Z</time>
      </trkpt>
      <trkpt lat="44.8321" lon="6.40907">
        <ele>1596.2</ele>
        <time>2024-08-12T04:14:40Z</time>
      </trkpt>
      <trkpt lat="44.83208" lon="6.40904">
        <ele>1596.2</ele>
        <time>2024-08-12T04:14:41Z</time>
      </trkpt>
      <trkpt lat="44.83208" lon="6.40904">
        <ele>1596.4</ele>
        <time>2024-08-12T04:14:42Z</time>
      </trkpt>
      <trkpt lat="44.83206" lon="6.40901">
        <ele>1596.6</ele>
        <time>2024-08-12T04:14:43Z</time>
      </trkpt>
      <trkpt lat="44.83206" lon="6.40901">
        <ele>1596.8</ele>
        <time>2024-08-12T04:14:44Z</time>
      </trkpt>
      <trkpt lat="44.83205" lon="6.40898">
        <ele>1596.8</ele>
        <time>2024-08-12T04:14:45Z</time>
      </trkpt>
      <trkpt lat="44.83205" lon="6.40898">
        <ele>1596.6</ele>
        <time>2024-08-12T04:14:46Z</time>
      </trkpt>
      <trkpt lat="44.83203" lon="6.40895">
        <ele>1596.6</ele>
        <time>2024-08-12T04:14:47Z</time>
      </trkpt>
      <trkpt lat="44.83202" lon="6.40893">
        <ele>1597</ele>
        <time>2024-08-12T04:14:48Z</time>
      </trkpt>
      <trkpt lat="44.83202" lon="6.40893">
        <ele>1597</ele>
        <time>2024-08-12T04:14:49Z</time>
      </trkpt>
      <trkpt lat="44.83201" lon="6.4089">
        <ele>1597.2</ele>
        <time>2024-08-12T04:14:50Z</time>
      </trkpt>
      <trkpt lat="44.83201" lon="6.4089">
        <ele>1597.4</ele>
        <time>2024-08-12T04:14:51Z</time>
      </trkpt>
      <trkpt lat="44.83199" lon="6.40887">
        <ele>1597.6</ele>
        <time>2024-08-12T04:14:52Z</time>
      </trkpt>
      <trkpt lat="44.83199" lon="6.40887">
        <ele>1597.6</ele>
        <time>2024-08-12T04:14:53Z</time>
      </trkpt>
      <trkpt lat="44.83198" lon="6.40883">
        <ele>1597.4</ele>
        <time>2024-08-12T04:14:54Z</time>
      </trkpt>
      <trkpt lat="44.83198" lon="6.40883">
        <ele>1597.4</ele>
        <time>2024-08-12T04:14:55Z</time>
      </trkpt>
      <trkpt lat="44.83196" lon="6.40879">
        <ele>1597.6</ele>
        <time>2024-08-12T04:14:56Z</time>
      </trkpt>
      <trkpt lat="44.83196" lon="6.40879">
        <ele>1597.6</ele>
        <time>2024-08-12T04:14:57Z</time>
      </trkpt>
      <trkpt lat="44.83195" lon="6.40876">
        <ele>1597.6</ele>
        <time>2024-08-12T04:14:58Z</time>
      </trkpt>
      <trkpt lat="44.83195" lon="6.40876">
        <ele>1597.8</ele>
        <time>2024-08-12T04:14:59Z</time>
      </trkpt>
      <trkpt lat="44.83194" lon="6.40873">
        <ele>1597.8</ele>
        <time>2024-08-12T04:15:00Z</time>
      </trkpt>
      <trkpt lat="44.83194" lon="6.40873">
        <ele>1597.8</ele>
        <time>2024-08-12T04:15:01Z</time>
      </trkpt>
      <trkpt lat="44.83192" lon="6.40871">
        <ele>1597.8</ele>
        <time>2024-08-12T04:15:02Z</time>
      </trkpt>
      <trkpt lat="44.83192" lon="6.40871">
        <ele>1597.8</ele>
        <time>2024-08-12T04:15:03Z</time>
      </trkpt>
      <trkpt lat="44.8319" lon="6.40868">
        <ele>1598</ele>
        <time>2024-08-12T04:15:04Z</time>
      </trkpt>
      <trkpt lat="44.8319" lon="6.40868">
        <ele>1598.2</ele>
        <time>2024-08-12T04:15:05Z</time>
      </trkpt>
      <trkpt lat="44.83189" lon="6.40864">
        <ele>1598.2</ele>
        <time>2024-08-12T04:15:06Z</time>
      </trkpt>
      <trkpt lat="44.83189" lon="6.40864">
        <ele>1598.2</ele>
        <time>2024-08-12T04:15:07Z</time>
      </trkpt>
      <trkpt lat="44.83188" lon="6.40862">
        <ele>1598.4</ele>
        <time>2024-08-12T04:15:08Z</time>
      </trkpt>
      <trkpt lat="44.83188" lon="6.40862">
        <ele>1598.4</ele>
        <time>2024-08-12T04:15:09Z</time>
      </trkpt>
      <trkpt lat="44.83186" lon="6.40858">
        <ele>1598.4</ele>
        <time>2024-08-12T04:15:10Z</time>
      </trkpt>
      <trkpt lat="44.83186" lon="6.40858">
        <ele>1598.4</ele>
        <time>2024-08-12T04:15:11Z</time>
      </trkpt>
      <trkpt lat="44.83184" lon="6.40855">
        <ele>1598.6</ele>
        <time>2024-08-12T04:15:12Z</time>
      </trkpt>
      <trkpt lat="44.83184" lon="6.40855">
        <ele>1598.6</ele>
        <time>2024-08-12T04:15:13Z</time>
      </trkpt>
      <trkpt lat="44.83184" lon="6.40852">
        <ele>1598.8</ele>
        <time>2024-08-12T04:15:14Z</time>
      </trkpt>
      <trkpt lat="44.83184" lon="6.40852">
        <ele>1598.8</ele>
        <time>2024-08-12T04:15:15Z</time>
      </trkpt>
      <trkpt lat="44.83183" lon="6.40849">
        <ele>1599</ele>
        <time>2024-08-12T04:15:16Z</time>
      </trkpt>
      <trkpt lat="44.83183" lon="6.40849">
        <ele>1599</ele>
        <time>2024-08-12T04:15:17Z</time>
      </trkpt>
      <trkpt lat="44.83183" lon="6.40845">
        <ele>1599.2</ele>
        <time>2024-08-12T04:15:18Z</time>
      </trkpt>
      <trkpt lat="44.83183" lon="6.40845">
        <ele>1599.4</ele>
        <time>2024-08-12T04:15:19Z</time>
      </trkpt>
      <trkpt lat="44.83181" lon="6.40841">
        <ele>1599.6</ele>
        <time>2024-08-12T04:15:20Z</time>
      </trkpt>
      <trkpt lat="44.83181" lon="6.40841">
        <ele>1599.6</ele>
        <time>2024-08-12T04:15:21Z</time>
      </trkpt>
      <trkpt lat="44.83179" lon="6.40837">
        <ele>1599.6</ele>
        <time>2024-08-12T04:15:22Z</time>
      </trkpt>
      <trkpt lat="44.83179" lon="6.40837">
        <ele>1599.4</ele>
        <time>2024-08-12T04:15:23Z</time>
      </trkpt>
      <trkpt lat="44.83177" lon="6.40834">
        <ele>1599.4</ele>
        <time>2024-08-12T04:15:24Z</time>
      </trkpt>
      <trkpt lat="44.83177" lon="6.40834">
        <ele>1599.6</ele>
        <time>2024-08-12T04:15:25Z</time>
      </trkpt>
      <trkpt lat="44.83177" lon="6.40834">
        <ele>1599.6</ele>
        <time>2024-08-12T04:15:26Z</time>
      </trkpt>
      <trkpt lat="44.83177" lon="6.40834">
        <ele>1599.6</ele>
        <time>2024-08-12T04:15:27Z</time>
      </trkpt>
      <trkpt lat="44.83177" lon="6.40834">
        <ele>1599.8</ele>
        <time>2024-08-12T04:15:28Z</time>
      </trkpt>
      <trkpt lat="44.83177" lon="6.40834">
        <ele>1600</ele>
        <time>2024-08-12T04:15:29Z</time>
      </trkpt>
      <trkpt lat="44.83179" lon="6.40832">
        <ele>1600</ele>
        <time>2024-08-12T04:15:30Z</time>
      </trkpt>
      <trkpt lat="44.83179" lon="6.40832">
        <ele>1600</ele>
        <time>2024-08-12T04:15:31Z</time>
      </trkpt>
      <trkpt lat="44.83179" lon="6.40832">
        <ele>1600</ele>
        <time>2024-08-12T04:15:32Z</time>
      </trkpt>
      <trkpt lat="44.83178" lon="6.40828">
        <ele>1600</ele>
        <time>2024-08-12T04:15:33Z</time>
      </trkpt>
      <trkpt lat="44.83178" lon="6.40828">
        <ele>1600</ele>
        <time>2024-08-12T04:15:34Z</time>
      </trkpt>
      <trkpt lat="44.83177" lon="6.40824">
        <ele>1600.4</ele>
        <time>2024-08-12T04:15:35Z</time>
      </trkpt>
      <trkpt lat="44.83177" lon="6.40824">
        <ele>1600.4</ele>
        <time>2024-08-12T04:15:36Z</time>
      </trkpt>
      <trkpt lat="44.83177" lon="6.4082">
        <ele>1600.4</ele>
        <time>2024-08-12T04:15:37Z</time>
      </trkpt>
      <trkpt lat="44.83176" lon="6.40818">
        <ele>1600.4</ele>
        <time>2024-08-12T04:15:38Z</time>
      </trkpt>
      <trkpt lat="44.83176" lon="6.40818">
        <ele>1600.4</ele>
        <time>2024-08-12T04:15:39Z</time>
      </trkpt>
      <trkpt lat="44.83175" lon="6.40815">
        <ele>1600.4</ele>
        <time>2024-08-12T04:15:40Z</time>
      </trkpt>
      <trkpt lat="44.83175" lon="6.40815">
        <ele>1600.4</ele>
        <time>2024-08-12T04:15:41Z</time>
      </trkpt>
      <trkpt lat="44.83173" lon="6.40811">
        <ele>1600.6</ele>
        <time>2024-08-12T04:15:42Z</time>
      </trkpt>
      <trkpt lat="44.83173" lon="6.40811">
        <ele>1600.8</ele>
        <time>2024-08-12T04:15:43Z</time>
      </trkpt>
      <trkpt lat="44.83172" lon="6.40809">
        <ele>1600.8</ele>
        <time>2024-08-12T04:15:44Z</time>
      </trkpt>
      <trkpt lat="44.83172" lon="6.40809">
        <ele>1600.8</ele>
        <time>2024-08-12T04:15:45Z</time>
      </trkpt>
      <trkpt lat="44.83172" lon="6.40809">
        <ele>1600.8</ele>
        <time>2024-08-12T04:15:46Z</time>
      </trkpt>
      <trkpt lat="44.8317" lon="6.40808">
        <ele>1600.8</ele>
        <time>2024-08-12T04:15:47Z</time>
      </trkpt>
      <trkpt lat="44.8317" lon="6.40808">
        <ele>1600.8</ele>
        <time>2024-08-12T04:15:48Z</time>
      </trkpt>
      <trkpt lat="44.83168" lon="6.40806">
        <ele>1601</ele>
        <time>2024-08-12T04:15:49Z</time>
      </trkpt>
      <trkpt lat="44.83168" lon="6.40806">
        <ele>1601</ele>
        <time>2024-08-12T04:15:50Z</time>
      </trkpt>
      <trkpt lat="44.83166" lon="6.40803">
        <ele>1601.2</ele>
        <time>2024-08-12T04:15:51Z</time>
      </trkpt>
      <trkpt lat="44.83166" lon="6.40803">
        <ele>1601.2</ele>
        <time>2024-08-12T04:15:52Z</time>
      </trkpt>
      <trkpt lat="44.83165" lon="6.408">
        <ele>1601.4</ele>
        <time>2024-08-12T04:15:53Z</time>
      </trkpt>
      <trkpt lat="44.83165" lon="6.408">
        <ele>1601.4</ele>
        <time>2024-08-12T04:15:54Z</time>
      </trkpt>
      <trkpt lat="44.83163" lon="6.40797">
        <ele>1601.4</ele>
        <time>2024-08-12T04:15:55Z</time>
      </trkpt>
      <trkpt lat="44.83163" lon="6.40797">
        <ele>1601.6</ele>
        <time>2024-08-12T04:15:56Z</time>
      </trkpt>
      <trkpt lat="44.83161" lon="6.40794">
        <ele>1601.6</ele>
        <time>2024-08-12T04:15:57Z</time>
      </trkpt>
      <trkpt lat="44.83161" lon="6.40794">
        <ele>1601.6</ele>
        <time>2024-08-12T04:15:58Z</time>
      </trkpt>
      <trkpt lat="44.8316" lon="6.40791">
        <ele>1601.8</ele>
        <time>2024-08-12T04:15:59Z</time>
      </trkpt>
      <trkpt lat="44.8316" lon="6.40791">
        <ele>1602</ele>
        <time>2024-08-12T04:16:00Z</time>
      </trkpt>
      <trkpt lat="44.83159" lon="6.40788">
        <ele>1602</ele>
        <time>2024-08-12T04:16:01Z</time>
      </trkpt>
      <trkpt lat="44.83159" lon="6.40788">
        <ele>1602.2</ele>
        <time>2024-08-12T04:16:02Z</time>
      </trkpt>
      <trkpt lat="44.83158" lon="6.40785">
        <ele>1602.2</ele>
        <time>2024-08-12T04:16:03Z</time>
      </trkpt>
      <trkpt lat="44.83158" lon="6.40785">
        <ele>1602.2</ele>
        <time>2024-08-12T04:16:04Z</time>
      </trkpt>
      <trkpt lat="44.83157" lon="6.40781">
        <ele>1602.4</ele>
        <time>2024-08-12T04:16:05Z</time>
      </trkpt>
      <trkpt lat="44.83157" lon="6.40781">
        <ele>1602.4</ele>
        <time>2024-08-12T04:16:06Z</time>
      </trkpt>
      <trkpt lat="44.83156" lon="6.40778">
        <ele>1602.4</ele>
        <time>2024-08-12T04:16:07Z</time>
      </trkpt>
      <trkpt lat="44.83156" lon="6.40778">
        <ele>1602.4</ele>
        <time>2024-08-12T04:16:08Z</time>
      </trkpt>
      <trkpt lat="44.83155" lon="6.40774">
        <ele>1602.4</ele>
        <time>2024-08-12T04:16:09Z</time>
      </trkpt>
      <trkpt lat="44.83155" lon="6.40774">
        <ele>1602.4</ele>
        <time>2024-08-12T04:16:10Z</time>
      </trkpt>
      <trkpt lat="44.83155" lon="6.4077">
        <ele>1602.4</ele>
        <time>2024-08-12T04:16:11Z</time>
      </trkpt>
      <trkpt lat="44.83155" lon="6.4077">
        <ele>1602.4</ele>
        <time>2024-08-12T04:16:12Z</time>
      </trkpt>
      <trkpt lat="44.83154" lon="6.40767">
        <ele>1602.4</ele>
        <time>2024-08-12T04:16:13Z</time>
      </trkpt>
      <trkpt lat="44.83152" lon="6.40765">
        <ele>1602.6</ele>
        <time>2024-08-12T04:16:14Z</time>
      </trkpt>
      <trkpt lat="44.83152" lon="6.40765">
        <ele>1602.6</ele>
        <time>2024-08-12T04:16:15Z</time>
      </trkpt>
      <trkpt lat="44.8315" lon="6.40762">
        <ele>1602.6</ele>
        <time>2024-08-12T04:16:16Z</time>
      </trkpt>
      <trkpt lat="44.8315" lon="6.40762">
        <ele>1603</ele>
        <time>2024-08-12T04:16:17Z</time>
      </trkpt>
      <trkpt lat="44.83149" lon="6.40758">
        <ele>1603</ele>
        <time>2024-08-12T04:16:18Z</time>
      </trkpt>
      <trkpt lat="44.83149" lon="6.40755">
        <ele>1603</ele>
        <time>2024-08-12T04:16:19Z</time>
      </trkpt>
      <trkpt lat="44.83149" lon="6.40755">
        <ele>1603</ele>
        <time>2024-08-12T04:16:20Z</time>
      </trkpt>
      <trkpt lat="44.83147" lon="6.40752">
        <ele>1603.2</ele>
        <time>2024-08-12T04:16:21Z</time>
      </trkpt>
      <trkpt lat="44.83147" lon="6.40752">
        <ele>1603.2</ele>
        <time>2024-08-12T04:16:22Z</time>
      </trkpt>
      <trkpt lat="44.83146" lon="6.40748">
        <ele>1603.2</ele>
        <time>2024-08-12T04:16:23Z</time>
      </trkpt>
      <trkpt lat="44.83146" lon="6.40748">
        <ele>1603.4</ele>
        <time>2024-08-12T04:16:24Z</time>
      </trkpt>
      <trkpt lat="44.83144" lon="6.40745">
        <ele>1603.6</ele>
        <time>2024-08-12T04:16:25Z</time>
      </trkpt>
      <trkpt lat="44.83144" lon="6.40745">
        <ele>1603.6</ele>
        <time>2024-08-12T04:16:26Z</time>
      </trkpt>
      <trkpt lat="44.83143" lon="6.40743">
        <ele>1603.6</ele>
        <time>2024-08-12T04:16:27Z</time>
      </trkpt>
      <trkpt lat="44.83143" lon="6.40743">
        <ele>1603.8</ele>
        <time>2024-08-12T04:16:28Z</time>
      </trkpt>
      <trkpt lat="44.83141" lon="6.4074">
        <ele>1604</ele>
        <time>2024-08-12T04:16:29Z</time>
      </trkpt>
      <trkpt lat="44.83141" lon="6.4074">
        <ele>1604.2</ele>
        <time>2024-08-12T04:16:30Z</time>
      </trkpt>
      <trkpt lat="44.8314" lon="6.40736">
        <ele>1604.2</ele>
        <time>2024-08-12T04:16:31Z</time>
      </trkpt>
      <trkpt lat="44.8314" lon="6.40736">
        <ele>1604.2</ele>
        <time>2024-08-12T04:16:32Z</time>
      </trkpt>
      <trkpt lat="44.83138" lon="6.40734">
        <ele>1604.2</ele>
        <time>2024-08-12T04:16:33Z</time>
      </trkpt>
      <trkpt lat="44.83138" lon="6.40734">
        <ele>1604.2</ele>
        <time>2024-08-12T04:16:34Z</time>
      </trkpt>
      <trkpt lat="44.83137" lon="6.40731">
        <ele>1604.2</ele>
        <time>2024-08-12T04:16:35Z</time>
      </trkpt>
      <trkpt lat="44.83137" lon="6.40731">
        <ele>1604.4</ele>
        <time>2024-08-12T04:16:36Z</time>
      </trkpt>
      <trkpt lat="44.83135" lon="6.40728">
        <ele>1604.4</ele>
        <time>2024-08-12T04:16:37Z</time>
      </trkpt>
      <trkpt lat="44.83135" lon="6.40728">
        <ele>1604.4</ele>
        <time>2024-08-12T04:16:38Z</time>
      </trkpt>
      <trkpt lat="44.83133" lon="6.40725">
        <ele>1604.4</ele>
        <time>2024-08-12T04:16:39Z</time>
      </trkpt>
      <trkpt lat="44.83133" lon="6.40725">
        <ele>1604.4</ele>
        <time>2024-08-12T04:16:40Z</time>
      </trkpt>
      <trkpt lat="44.83132" lon="6.40722">
        <ele>1605</ele>
        <time>2024-08-12T04:16:41Z</time>
      </trkpt>
      <trkpt lat="44.83132" lon="6.40722">
        <ele>1605.2</ele>
        <time>2024-08-12T04:16:42Z</time>
      </trkpt>
      <trkpt lat="44.8313" lon="6.40719">
        <ele>1605.4</ele>
        <time>2024-08-12T04:16:43Z</time>
      </trkpt>
      <trkpt lat="44.8313" lon="6.40719">
        <ele>1605.4</ele>
        <time>2024-08-12T04:16:44Z</time>
      </trkpt>
      <trkpt lat="44.83128" lon="6.40716">
        <ele>1605.2</ele>
        <time>2024-08-12T04:16:45Z</time>
      </trkpt>
      <trkpt lat="44.83128" lon="6.40716">
        <ele>1605.2</ele>
        <time>2024-08-12T04:16:46Z</time>
      </trkpt>
      <trkpt lat="44.83126" lon="6.40714">
        <ele>1605.4</ele>
        <time>2024-08-12T04:16:47Z</time>
      </trkpt>
      <trkpt lat="44.83126" lon="6.40714">
        <ele>1605.4</ele>
        <time>2024-08-12T04:16:48Z</time>
      </trkpt>
      <trkpt lat="44.83125" lon="6.40711">
        <ele>1605.4</ele>
        <time>2024-08-12T04:16:49Z</time>
      </trkpt>
      <trkpt lat="44.83125" lon="6.40711">
        <ele>1605.6</ele>
        <time>2024-08-12T04:16:50Z</time>
      </trkpt>
      <trkpt lat="44.83124" lon="6.40707">
        <ele>1605.6</ele>
        <time>2024-08-12T04:16:51Z</time>
      </trkpt>
      <trkpt lat="44.83124" lon="6.40707">
        <ele>1605.6</ele>
        <time>2024-08-12T04:16:52Z</time>
      </trkpt>
      <trkpt lat="44.83122" lon="6.40704">
        <ele>1605.8</ele>
        <time>2024-08-12T04:16:53Z</time>
      </trkpt>
      <trkpt lat="44.83122" lon="6.40704">
        <ele>1605.8</ele>
        <time>2024-08-12T04:16:54Z</time>
      </trkpt>
      <trkpt lat="44.8312" lon="6.40702">
        <ele>1605.8</ele>
        <time>2024-08-12T04:16:55Z</time>
      </trkpt>
      <trkpt lat="44.8312" lon="6.40702">
        <ele>1605.8</ele>
        <time>2024-08-12T04:16:56Z</time>
      </trkpt>
      <trkpt lat="44.83119" lon="6.407">
        <ele>1605.8</ele>
        <time>2024-08-12T04:16:57Z</time>
      </trkpt>
      <trkpt lat="44.83119" lon="6.407">
        <ele>1606</ele>
        <time>2024-08-12T04:16:58Z</time>
      </trkpt>
      <trkpt lat="44.83117" lon="6.40697">
        <ele>1606</ele>
        <time>2024-08-12T04:16:59Z</time>
      </trkpt>
      <trkpt lat="44.83117" lon="6.40697">
        <ele>1606</ele>
        <time>2024-08-12T04:17:00Z</time>
      </trkpt>
      <trkpt lat="44.83115" lon="6.40695">
        <ele>1606</ele>
        <time>2024-08-12T04:17:01Z</time>
      </trkpt>
      <trkpt lat="44.83115" lon="6.40695">
        <ele>1606.2</ele>
        <time>2024-08-12T04:17:02Z</time>
      </trkpt>
      <trkpt lat="44.83113" lon="6.40692">
        <ele>1606.2</ele>
        <time>2024-08-12T04:17:03Z</time>
      </trkpt>
      <trkpt lat="44.83113" lon="6.40692">
        <ele>1606.4</ele>
        <time>2024-08-12T04:17:04Z</time>
      </trkpt>
      <trkpt lat="44.83112" lon="6.40688">
        <ele>1606.4</ele>
        <time>2024-08-12T04:17:05Z</time>
      </trkpt>
      <trkpt lat="44.83112" lon="6.40688">
        <ele>1606.4</ele>
        <time>2024-08-12T04:17:06Z</time>
      </trkpt>
      <trkpt lat="44.8311" lon="6.40685">
        <ele>1606.4</ele>
        <time>2024-08-12T04:17:07Z</time>
      </trkpt>
      <trkpt lat="44.8311" lon="6.40685">
        <ele>1606.4</ele>
        <time>2024-08-12T04:17:08Z</time>
      </trkpt>
      <trkpt lat="44.83109" lon="6.40681">
        <ele>1606.6</ele>
        <time>2024-08-12T04:17:09Z</time>
      </trkpt>
      <trkpt lat="44.83107" lon="6.4068">
        <ele>1606.6</ele>
        <time>2024-08-12T04:17:10Z</time>
      </trkpt>
      <trkpt lat="44.83107" lon="6.4068">
        <ele>1606.6</ele>
        <time>2024-08-12T04:17:11Z</time>
      </trkpt>
      <trkpt lat="44.83105" lon="6.40677">
        <ele>1606.6</ele>
        <time>2024-08-12T04:17:12Z</time>
      </trkpt>
      <trkpt lat="44.83105" lon="6.40677">
        <ele>1606.6</ele>
        <time>2024-08-12T04:17:13Z</time>
      </trkpt>
      <trkpt lat="44.83104" lon="6.40673">
        <ele>1606.8</ele>
        <time>2024-08-12T04:17:14Z</time>
      </trkpt>
      <trkpt lat="44.83104" lon="6.40673">
        <ele>1606.8</ele>
        <time>2024-08-12T04:17:15Z</time>
      </trkpt>
      <trkpt lat="44.83103" lon="6.40669">
        <ele>1607</ele>
        <time>2024-08-12T04:17:16Z</time>
      </trkpt>
      <trkpt lat="44.83103" lon="6.40669">
        <ele>1607</ele>
        <time>2024-08-12T04:17:17Z</time>
      </trkpt>
      <trkpt lat="44.83102" lon="6.40665">
        <ele>1607</ele>
        <time>2024-08-12T04:17:18Z</time>
      </trkpt>
      <trkpt lat="44.83102" lon="6.40665">
        <ele>1607</ele>
        <time>2024-08-12T04:17:19Z</time>
      </trkpt>
      <trkpt lat="44.83101" lon="6.40661">
        <ele>1607.2</ele>
        <time>2024-08-12T04:17:20Z</time>
      </trkpt>
      <trkpt lat="44.83101" lon="6.40661">
        <ele>1607.4</ele>
        <time>2024-08-12T04:17:21Z</time>
      </trkpt>
      <trkpt lat="44.831" lon="6.40658">
        <ele>1607.4</ele>
        <time>2024-08-12T04:17:22Z</time>
      </trkpt>
      <trkpt lat="44.83099" lon="6.40656">
        <ele>1607.4</ele>
        <time>2024-08-12T04:17:23Z</time>
      </trkpt>
      <trkpt lat="44.83099" lon="6.40656">
        <ele>1607.4</ele>
        <time>2024-08-12T04:17:24Z</time>
      </trkpt>
      <trkpt lat="44.83097" lon="6.40653">
        <ele>1607.4</ele>
        <time>2024-08-12T04:17:25Z</time>
      </trkpt>
      <trkpt lat="44.83097" lon="6.40653">
        <ele>1607.6</ele>
        <time>2024-08-12T04:17:26Z</time>
      </trkpt>
      <trkpt lat="44.83095" lon="6.40651">
        <ele>1607.6</ele>
        <time>2024-08-12T04:17:27Z</time>
      </trkpt>
      <trkpt lat="44.83095" lon="6.40651">
        <ele>1607.6</ele>
        <time>2024-08-12T04:17:28Z</time>
      </trkpt>
      <trkpt lat="44.83093" lon="6.40649">
        <ele>1607.6</ele>
        <time>2024-08-12T04:17:29Z</time>
      </trkpt>
      <trkpt lat="44.83093" lon="6.40649">
        <ele>1607.8</ele>
        <time>2024-08-12T04:17:30Z</time>
      </trkpt>
      <trkpt lat="44.8309" lon="6.40646">
        <ele>1608</ele>
        <time>2024-08-12T04:17:31Z</time>
      </trkpt>
      <trkpt lat="44.8309" lon="6.40646">
        <ele>1608</ele>
        <time>2024-08-12T04:17:32Z</time>
      </trkpt>
      <trkpt lat="44.83089" lon="6.40643">
        <ele>1608</ele>
        <time>2024-08-12T04:17:33Z</time>
      </trkpt>
      <trkpt lat="44.83089" lon="6.40643">
        <ele>1608.2</ele>
        <time>2024-08-12T04:17:34Z</time>
      </trkpt>
      <trkpt lat="44.83088" lon="6.4064">
        <ele>1608.4</ele>
        <time>2024-08-12T04:17:35Z</time>
      </trkpt>
      <trkpt lat="44.83088" lon="6.4064">
        <ele>1608.6</ele>
        <time>2024-08-12T04:17:36Z</time>
      </trkpt>
      <trkpt lat="44.83085" lon="6.40638">
        <ele>1608.6</ele>
        <time>2024-08-12T04:17:37Z</time>
      </trkpt>
      <trkpt lat="44.83085" lon="6.40638">
        <ele>1608.6</ele>
        <time>2024-08-12T04:17:38Z</time>
      </trkpt>
      <trkpt lat="44.83084" lon="6.40636">
        <ele>1608.6</ele>
        <time>2024-08-12T04:17:39Z</time>
      </trkpt>
      <trkpt lat="44.83084" lon="6.40636">
        <ele>1608.6</ele>
        <time>2024-08-12T04:17:40Z</time>
      </trkpt>
      <trkpt lat="44.83082" lon="6.40633">
        <ele>1608.6</ele>
        <time>2024-08-12T04:17:41Z</time>
      </trkpt>
      <trkpt lat="44.83082" lon="6.40633">
        <ele>1608.6</ele>
        <time>2024-08-12T04:17:42Z</time>
      </trkpt>
      <trkpt lat="44.8308" lon="6.4063">
        <ele>1608.8</ele>
        <time>2024-08-12T04:17:43Z</time>
      </trkpt>
      <trkpt lat="44.8308" lon="6.4063">
        <ele>1609</ele>
        <time>2024-08-12T04:17:44Z</time>
      </trkpt>
      <trkpt lat="44.83078" lon="6.40627">
        <ele>1609</ele>
        <time>2024-08-12T04:17:45Z</time>
      </trkpt>
      <trkpt lat="44.83078" lon="6.40627">
        <ele>1609</ele>
        <time>2024-08-12T04:17:46Z</time>
      </trkpt>
      <trkpt lat="44.83077" lon="6.40624">
        <ele>1609</ele>
        <time>2024-08-12T04:17:47Z</time>
      </trkpt>
      <trkpt lat="44.83077" lon="6.40624">
        <ele>1609</ele>
        <time>2024-08-12T04:17:48Z</time>
      </trkpt>
      <trkpt lat="44.83075" lon="6.40622">
        <ele>1609.2</ele>
        <time>2024-08-12T04:17:49Z</time>
      </trkpt>
      <trkpt lat="44.83075" lon="6.40622">
        <ele>1609.2</ele>
        <time>2024-08-12T04:17:50Z</time>
      </trkpt>
      <trkpt lat="44.83073" lon="6.40619">
        <ele>1609.2</ele>
        <time>2024-08-12T04:17:51Z</time>
      </trkpt>
      <trkpt lat="44.83073" lon="6.40619">
        <ele>1609.2</ele>
        <time>2024-08-12T04:17:52Z</time>
      </trkpt>
      <trkpt lat="44.83071" lon="6.40615">
        <ele>1609.4</ele>
        <time>2024-08-12T04:17:53Z</time>
      </trkpt>
      <trkpt lat="44.83071" lon="6.40615">
        <ele>1609.6</ele>
        <time>2024-08-12T04:17:54Z</time>
      </trkpt>
      <trkpt lat="44.83071" lon="6.40612">
        <ele>1609.8</ele>
        <time>2024-08-12T04:17:55Z</time>
      </trkpt>
      <trkpt lat="44.83071" lon="6.40612">
        <ele>1609.8</ele>
        <time>2024-08-12T04:17:56Z</time>
      </trkpt>
      <trkpt lat="44.8307" lon="6.40609">
        <ele>1609.8</ele>
        <time>2024-08-12T04:17:57Z</time>
      </trkpt>
      <trkpt lat="44.8307" lon="6.40609">
        <ele>1610</ele>
        <time>2024-08-12T04:17:58Z</time>
      </trkpt>
      <trkpt lat="44.8307" lon="6.40605">
        <ele>1610.2</ele>
        <time>2024-08-12T04:17:59Z</time>
      </trkpt>
      <trkpt lat="44.8307" lon="6.40605">
        <ele>1610.2</ele>
        <time>2024-08-12T04:18:00Z</time>
      </trkpt>
      <trkpt lat="44.83069" lon="6.40602">
        <ele>1610.2</ele>
        <time>2024-08-12T04:18:01Z</time>
      </trkpt>
      <trkpt lat="44.83069" lon="6.40602">
        <ele>1610.4</ele>
        <time>2024-08-12T04:18:02Z</time>
      </trkpt>
      <trkpt lat="44.83068" lon="6.40598">
        <ele>1610.4</ele>
        <time>2024-08-12T04:18:03Z</time>
      </trkpt>
      <trkpt lat="44.83068" lon="6.40598">
        <ele>1610.6</ele>
        <time>2024-08-12T04:18:04Z</time>
      </trkpt>
      <trkpt lat="44.83067" lon="6.40594">
        <ele>1610.8</ele>
        <time>2024-08-12T04:18:05Z</time>
      </trkpt>
      <trkpt lat="44.83067" lon="6.40594">
        <ele>1610.8</ele>
        <time>2024-08-12T04:18:06Z</time>
      </trkpt>
      <trkpt lat="44.83067" lon="6.40589">
        <ele>1610.8</ele>
        <time>2024-08-12T04:18:07Z</time>
      </trkpt>
      <trkpt lat="44.83067" lon="6.40589">
        <ele>1610.8</ele>
        <time>2024-08-12T04:18:08Z</time>
      </trkpt>
      <trkpt lat="44.83067" lon="6.40585">
        <ele>1611</ele>
        <time>2024-08-12T04:18:09Z</time>
      </trkpt>
      <trkpt lat="44.83067" lon="6.40585">
        <ele>1611</ele>
        <time>2024-08-12T04:18:10Z</time>
      </trkpt>
      <trkpt lat="44.83066" lon="6.40581">
        <ele>1611</ele>
        <time>2024-08-12T04:18:11Z</time>
      </trkpt>
      <trkpt lat="44.83066" lon="6.40581">
        <ele>1611</ele>
        <time>2024-08-12T04:18:12Z</time>
      </trkpt>
      <trkpt lat="44.83065" lon="6.40578">
        <ele>1611.4</ele>
        <time>2024-08-12T04:18:13Z</time>
      </trkpt>
      <trkpt lat="44.83065" lon="6.40578">
        <ele>1611.4</ele>
        <time>2024-08-12T04:18:14Z</time>
      </trkpt>
      <trkpt lat="44.83064" lon="6.40574">
        <ele>1611.6</ele>
        <time>2024-08-12T04:18:15Z</time>
      </trkpt>
      <trkpt lat="44.83064" lon="6.40574">
        <ele>1611.6</ele>
        <time>2024-08-12T04:18:16Z</time>
      </trkpt>
      <trkpt lat="44.83064" lon="6.40571">
        <ele>1611.6</ele>
        <time>2024-08-12T04:18:17Z</time>
      </trkpt>
      <trkpt lat="44.83064" lon="6.40571">
        <ele>1611.8</ele>
        <time>2024-08-12T04:18:18Z</time>
      </trkpt>
      <trkpt lat="44.83064" lon="6.40568">
        <ele>1612</ele>
        <time>2024-08-12T04:18:19Z</time>
      </trkpt>
      <trkpt lat="44.83064" lon="6.40568">
        <ele>1612</ele>
        <time>2024-08-12T04:18:20Z</time>
      </trkpt>
      <trkpt lat="44.83064" lon="6.40564">
        <ele>1612</ele>
        <time>2024-08-12T04:18:21Z</time>
      </trkpt>
      <trkpt lat="44.83064" lon="6.40564">
        <ele>1612.2</ele>
        <time>2024-08-12T04:18:22Z</time>
      </trkpt>
      <trkpt lat="44.83063" lon="6.40561">
        <ele>1612.2</ele>
        <time>2024-08-12T04:18:23Z</time>
      </trkpt>
      <trkpt lat="44.83063" lon="6.40561">
        <ele>1612.2</ele>
        <time>2024-08-12T04:18:24Z</time>
      </trkpt>
      <trkpt lat="44.83062" lon="6.40558">
        <ele>1612.2</ele>
        <time>2024-08-12T04:18:25Z</time>
      </trkpt>
      <trkpt lat="44.83062" lon="6.40558">
        <ele>1612.2</ele>
        <time>2024-08-12T04:18:26Z</time>
      </trkpt>
      <trkpt lat="44.83061" lon="6.40553">
        <ele>1612.4</ele>
        <time>2024-08-12T04:18:27Z</time>
      </trkpt>
      <trkpt lat="44.83061" lon="6.40553">
        <ele>1612.6</ele>
        <time>2024-08-12T04:18:28Z</time>
      </trkpt>
      <trkpt lat="44.83061" lon="6.40549">
        <ele>1612.8</ele>
        <time>2024-08-12T04:18:29Z</time>
      </trkpt>
      <trkpt lat="44.83061" lon="6.40549">
        <ele>1613</ele>
        <time>2024-08-12T04:18:30Z</time>
      </trkpt>
      <trkpt lat="44.83061" lon="6.40546">
        <ele>1613</ele>
        <time>2024-08-12T04:18:31Z</time>
      </trkpt>
      <trkpt lat="44.83061" lon="6.40546">
        <ele>1613</ele>
        <time>2024-08-12T04:18:32Z</time>
      </trkpt>
      <trkpt lat="44.8306" lon="6.40542">
        <ele>1613</ele>
        <time>2024-08-12T04:18:33Z</time>
      </trkpt>
      <trkpt lat="44.8306" lon="6.40542">
        <ele>1613</ele>
        <time>2024-08-12T04:18:34Z</time>
      </trkpt>
      <trkpt lat="44.8306" lon="6.40539">
        <ele>1613</ele>
        <time>2024-08-12T04:18:35Z</time>
      </trkpt>
      <trkpt lat="44.8306" lon="6.40539">
        <ele>1613</ele>
        <time>2024-08-12T04:18:36Z</time>
      </trkpt>
      <trkpt lat="44.8306" lon="6.40535">
        <ele>1613.2</ele>
        <time>2024-08-12T04:18:37Z</time>
      </trkpt>
      <trkpt lat="44.8306" lon="6.40535">
        <ele>1613.2</ele>
        <time>2024-08-12T04:18:38Z</time>
      </trkpt>
      <trkpt lat="44.83059" lon="6.40531">
        <ele>1613.2</ele>
        <time>2024-08-12T04:18:39Z</time>
      </trkpt>
      <trkpt lat="44.83059" lon="6.40531">
        <ele>1613.2</ele>
        <time>2024-08-12T04:18:40Z</time>
      </trkpt>
      <trkpt lat="44.83059" lon="6.40531">
        <ele>1613.2</ele>
        <time>2024-08-12T04:18:41Z</time>
      </trkpt>
      <trkpt lat="44.83059" lon="6.40531">
        <ele>1613.4</ele>
        <time>2024-08-12T04:18:42Z</time>
      </trkpt>
      <trkpt lat="44.83059" lon="6.40531">
        <ele>1613.4</ele>
        <time>2024-08-12T04:18:43Z</time>
      </trkpt>
      <trkpt lat="44.83058" lon="6.40528">
        <ele>1613.4</ele>
        <time>2024-08-12T04:18:44Z</time>
      </trkpt>
      <trkpt lat="44.83058" lon="6.40528">
        <ele>1613.2</ele>
        <time>2024-08-12T04:18:45Z</time>
      </trkpt>
      <trkpt lat="44.83058" lon="6.40524">
        <ele>1613.2</ele>
        <time>2024-08-12T04:18:46Z</time>
      </trkpt>
      <trkpt lat="44.83058" lon="6.40524">
        <ele>1613.6</ele>
        <time>2024-08-12T04:18:47Z</time>
      </trkpt>
      <trkpt lat="44.83059" lon="6.40521">
        <ele>1613.8</ele>
        <time>2024-08-12T04:18:48Z</time>
      </trkpt>
      <trkpt lat="44.83059" lon="6.40521">
        <ele>1613.8</ele>
        <time>2024-08-12T04:18:49Z</time>
      </trkpt>
      <trkpt lat="44.83059" lon="6.40518">
        <ele>1613.8</ele>
        <time>2024-08-12T04:18:50Z</time>
      </trkpt>
      <trkpt lat="44.83059" lon="6.40518">
        <ele>1613.8</ele>
        <time>2024-08-12T04:18:51Z</time>
      </trkpt>
      <trkpt lat="44.8306" lon="6.40515">
        <ele>1613.8</ele>
        <time>2024-08-12T04:18:52Z</time>
      </trkpt>
      <trkpt lat="44.8306" lon="6.40515">
        <ele>1613.8</ele>
        <time>2024-08-12T04:18:53Z</time>
      </trkpt>
      <trkpt lat="44.83059" lon="6.40511">
        <ele>1613.8</ele>
        <time>2024-08-12T04:18:54Z</time>
      </trkpt>
      <trkpt lat="44.83059" lon="6.40511">
        <ele>1613.8</ele>
        <time>2024-08-12T04:18:55Z</time>
      </trkpt>
      <trkpt lat="44.83059" lon="6.40506">
        <ele>1614</ele>
        <time>2024-08-12T04:18:56Z</time>
      </trkpt>
      <trkpt lat="44.83059" lon="6.40506">
        <ele>1614.2</ele>
        <time>2024-08-12T04:18:57Z</time>
      </trkpt>
      <trkpt lat="44.83059" lon="6.40502">
        <ele>1614.4</ele>
        <time>2024-08-12T04:18:58Z</time>
      </trkpt>
      <trkpt lat="44.83059" lon="6.40502">
        <ele>1614.2</ele>
        <time>2024-08-12T04:18:59Z</time>
      </trkpt>
      <trkpt lat="44.83059" lon="6.40498">
        <ele>1614.2</ele>
        <time>2024-08-12T04:19:00Z</time>
      </trkpt>
      <trkpt lat="44.83059" lon="6.40498">
        <ele>1614.2</ele>
        <time>2024-08-12T04:19:01Z</time>
      </trkpt>
      <trkpt lat="44.83058" lon="6.40494">
        <ele>1614.4</ele>
        <time>2024-08-12T04:19:02Z</time>
      </trkpt>
      <trkpt lat="44.83058" lon="6.40494">
        <ele>1614.4</ele>
        <time>2024-08-12T04:19:03Z</time>
      </trkpt>
      <trkpt lat="44.83057" lon="6.40491">
        <ele>1614.6</ele>
        <time>2024-08-12T04:19:04Z</time>
      </trkpt>
      <trkpt lat="44.83057" lon="6.40491">
        <ele>1614.6</ele>
        <time>2024-08-12T04:19:05Z</time>
      </trkpt>
      <trkpt lat="44.83057" lon="6.40486">
        <ele>1614.6</ele>
        <time>2024-08-12T04:19:06Z</time>
      </trkpt>
      <trkpt lat="44.83057" lon="6.40486">
        <ele>1614.4</ele>
        <time>2024-08-12T04:19:07Z</time>
      </trkpt>
      <trkpt lat="44.83057" lon="6.40482">
        <ele>1614.4</ele>
        <time>2024-08-12T04:19:08Z</time>
      </trkpt>
      <trkpt lat="44.83057" lon="6.40482">
        <ele>1614.6</ele>
        <time>2024-08-12T04:19:09Z</time>
      </trkpt>
      <trkpt lat="44.83057" lon="6.40478">
        <ele>1614.6</ele>
        <time>2024-08-12T04:19:10Z</time>
      </trkpt>
      <trkpt lat="44.83057" lon="6.40478">
        <ele>1614.6</ele>
        <time>2024-08-12T04:19:11Z</time>
      </trkpt>
      <trkpt lat="44.83058" lon="6.40474">
        <ele>1614.8</ele>
        <time>2024-08-12T04:19:12Z</time>
      </trkpt>
      <trkpt lat="44.83058" lon="6.40474">
        <ele>1614.8</ele>
        <time>2024-08-12T04:19:13Z</time>
      </trkpt>
      <trkpt lat="44.83058" lon="6.40471">
        <ele>1615</ele>
        <time>2024-08-12T04:19:14Z</time>
      </trkpt>
      <trkpt lat="44.83058" lon="6.40471">
        <ele>1615</ele>
        <time>2024-08-12T04:19:15Z</time>
      </trkpt>
      <trkpt lat="44.83058" lon="6.40467">
        <ele>1615.2</ele>
        <time>2024-08-12T04:19:16Z</time>
      </trkpt>
      <trkpt lat="44.83058" lon="6.40467">
        <ele>1615</ele>
        <time>2024-08-12T04:19:17Z</time>
      </trkpt>
      <trkpt lat="44.83058" lon="6.40463">
        <ele>1615</ele>
        <time>2024-08-12T04:19:18Z</time>
      </trkpt>
      <trkpt lat="44.83058" lon="6.40463">
        <ele>1615</ele>
        <time>2024-08-12T04:19:19Z</time>
      </trkpt>
      <trkpt lat="44.83058" lon="6.40459">
        <ele>1615.2</ele>
        <time>2024-08-12T04:19:20Z</time>
      </trkpt>
      <trkpt lat="44.83058" lon="6.40459">
        <ele>1615.2</ele>
        <time>2024-08-12T04:19:21Z</time>
      </trkpt>
      <trkpt lat="44.83059" lon="6.40455">
        <ele>1615.2</ele>
        <time>2024-08-12T04:19:22Z</time>
      </trkpt>
      <trkpt lat="44.83059" lon="6.40455">
        <ele>1615.2</ele>
        <time>2024-08-12T04:19:23Z</time>
      </trkpt>
      <trkpt lat="44.8306" lon="6.40451">
        <ele>1615.2</ele>
        <time>2024-08-12T04:19:24Z</time>
      </trkpt>
      <trkpt lat="44.8306" lon="6.40451">
        <ele>1615.2</ele>
        <time>2024-08-12T04:19:25Z</time>
      </trkpt>
      <trkpt lat="44.8306" lon="6.40447">
        <ele>1615.2</ele>
        <time>2024-08-12T04:19:26Z</time>
      </trkpt>
      <trkpt lat="44.8306" lon="6.40447">
        <ele>1615.2</ele>
        <time>2024-08-12T04:19:27Z</time>
      </trkpt>
      <trkpt lat="44.8306" lon="6.40443">
        <ele>1615.4</ele>
        <time>2024-08-12T04:19:28Z</time>
      </trkpt>
      <trkpt lat="44.8306" lon="6.40443">
        <ele>1615.4</ele>
        <time>2024-08-12T04:19:29Z</time>
      </trkpt>
      <trkpt lat="44.8306" lon="6.40439">
        <ele>1615.4</ele>
        <time>2024-08-12T04:19:30Z</time>
      </trkpt>
      <trkpt lat="44.8306" lon="6.40439">
        <ele>1615.4</ele>
        <time>2024-08-12T04:19:31Z</time>
      </trkpt>
      <trkpt lat="44.8306" lon="6.40436">
        <ele>1615.6</ele>
        <time>2024-08-12T04:19:32Z</time>
      </trkpt>
      <trkpt lat="44.8306" lon="6.40436">
        <ele>1615.6</ele>
        <time>2024-08-12T04:19:33Z</time>
      </trkpt>
      <trkpt lat="44.8306" lon="6.40432">
        <ele>1615.6</ele>
        <time>2024-08-12T04:19:34Z</time>
      </trkpt>
      <trkpt lat="44.8306" lon="6.40432">
        <ele>1615.6</ele>
        <time>2024-08-12T04:19:35Z</time>
      </trkpt>
      <trkpt lat="44.83061" lon="6.40429">
        <ele>1615.6</ele>
        <time>2024-08-12T04:19:36Z</time>
      </trkpt>
      <trkpt lat="44.83061" lon="6.40429">
        <ele>1615.6</ele>
        <time>2024-08-12T04:19:37Z</time>
      </trkpt>
      <trkpt lat="44.83061" lon="6.40425">
        <ele>1615.6</ele>
        <time>2024-08-12T04:19:38Z</time>
      </trkpt>
      <trkpt lat="44.83061" lon="6.40425">
        <ele>1615.6</ele>
        <time>2024-08-12T04:19:39Z</time>
      </trkpt>
      <trkpt lat="44.83061" lon="6.40422">
        <ele>1615.6</ele>
        <time>2024-08-12T04:19:40Z</time>
      </trkpt>
      <trkpt lat="44.83061" lon="6.40422">
        <ele>1615.6</ele>
        <time>2024-08-12T04:19:41Z</time>
      </trkpt>
      <trkpt lat="44.83062" lon="6.40418">
        <ele>1615.8</ele>
        <time>2024-08-12T04:19:42Z</time>
      </trkpt>
      <trkpt lat="44.83062" lon="6.40418">
        <ele>1615.8</ele>
        <time>2024-08-12T04:19:43Z</time>
      </trkpt>
      <trkpt lat="44.83062" lon="6.40413">
        <ele>1615.8</ele>
        <time>2024-08-12T04:19:44Z</time>
      </trkpt>
      <trkpt lat="44.83062" lon="6.40413">
        <ele>1615.6</ele>
        <time>2024-08-12T04:19:45Z</time>
      </trkpt>
      <trkpt lat="44.83062" lon="6.40409">
        <ele>1615.6</ele>
        <time>2024-08-12T04:19:46Z</time>
      </trkpt>
      <trkpt lat="44.83062" lon="6.40409">
        <ele>1615.6</ele>
        <time>2024-08-12T04:19:47Z</time>
      </trkpt>
      <trkpt lat="44.83062" lon="6.40405">
        <ele>1615.6</ele>
        <time>2024-08-12T04:19:48Z</time>
      </trkpt>
      <trkpt lat="44.83062" lon="6.40405">
        <ele>1615.6</ele>
        <time>2024-08-12T04:19:49Z</time>
      </trkpt>
      <trkpt lat="44.83063" lon="6.40401">
        <ele>1615.6</ele>
        <time>2024-08-12T04:19:50Z</time>
      </trkpt>
      <trkpt lat="44.83063" lon="6.40401">
        <ele>1615.6</ele>
        <time>2024-08-12T04:19:51Z</time>
      </trkpt>
      <trkpt lat="44.83063" lon="6.40397">
        <ele>1615.6</ele>
        <time>2024-08-12T04:19:52Z</time>
      </trkpt>
      <trkpt lat="44.83063" lon="6.40397">
        <ele>1615.8</ele>
        <time>2024-08-12T04:19:53Z</time>
      </trkpt>
      <trkpt lat="44.83063" lon="6.40393">
        <ele>1615.8</ele>
        <time>2024-08-12T04:19:54Z</time>
      </trkpt>
      <trkpt lat="44.83063" lon="6.40393">
        <ele>1615.8</ele>
        <time>2024-08-12T04:19:55Z</time>
      </trkpt>
      <trkpt lat="44.83063" lon="6.40389">
        <ele>1615.8</ele>
        <time>2024-08-12T04:19:56Z</time>
      </trkpt>
      <trkpt lat="44.83063" lon="6.40389">
        <ele>1616</ele>
        <time>2024-08-12T04:19:57Z</time>
      </trkpt>
      <trkpt lat="44.83063" lon="6.40385">
        <ele>1616</ele>
        <time>2024-08-12T04:19:58Z</time>
      </trkpt>
      <trkpt lat="44.83063" lon="6.40385">
        <ele>1616</ele>
        <time>2024-08-12T04:19:59Z</time>
      </trkpt>
      <trkpt lat="44.83063" lon="6.40381">
        <ele>1616</ele>
        <time>2024-08-12T04:20:00Z</time>
      </trkpt>
      <trkpt lat="44.83063" lon="6.40381">
        <ele>1616.2</ele>
        <time>2024-08-12T04:20:01Z</time>
      </trkpt>
      <trkpt lat="44.83063" lon="6.40377">
        <ele>1616.2</ele>
        <time>2024-08-12T04:20:02Z</time>
      </trkpt>
      <trkpt lat="44.83063" lon="6.40377">
        <ele>1616.2</ele>
        <time>2024-08-12T04:20:03Z</time>
      </trkpt>
      <trkpt lat="44.83064" lon="6.40374">
        <ele>1616.2</ele>
        <time>2024-08-12T04:20:04Z</time>
      </trkpt>
      <trkpt lat="44.83064" lon="6.40374">
        <ele>1616.2</ele>
        <time>2024-08-12T04:20:05Z</time>
      </trkpt>
      <trkpt lat="44.83064" lon="6.40369">
        <ele>1616.2</ele>
        <time>2024-08-12T04:20:06Z</time>
      </trkpt>
      <trkpt lat="44.83064" lon="6.40369">
        <ele>1616.2</ele>
        <time>2024-08-12T04:20:07Z</time>
      </trkpt>
      <trkpt lat="44.83065" lon="6.40365">
        <ele>1616.2</ele>
        <time>2024-08-12T04:20:08Z</time>
      </trkpt>
      <trkpt lat="44.83065" lon="6.40365">
        <ele>1616.2</ele>
        <time>2024-08-12T04:20:09Z</time>
      </trkpt>
      <trkpt lat="44.83065" lon="6.40361">
        <ele>1616.2</ele>
        <time>2024-08-12T04:20:10Z</time>
      </trkpt>
      <trkpt lat="44.83065" lon="6.40361">
        <ele>1616</ele>
        <time>2024-08-12T04:20:11Z</time>
      </trkpt>
      <trkpt lat="44.83066" lon="6.40357">
        <ele>1616</ele>
        <time>2024-08-12T04:20:12Z</time>
      </trkpt>
      <trkpt lat="44.83066" lon="6.40357">
        <ele>1616.2</ele>
        <time>2024-08-12T04:20:13Z</time>
      </trkpt>
      <trkpt lat="44.83066" lon="6.40353">
        <ele>1616.2</ele>
        <time>2024-08-12T04:20:14Z</time>
      </trkpt>
      <trkpt lat="44.83066" lon="6.40353">
        <ele>1616.2</ele>
        <time>2024-08-12T04:20:15Z</time>
      </trkpt>
      <trkpt lat="44.83065" lon="6.4035">
        <ele>1616.2</ele>
        <time>2024-08-12T04:20:16Z</time>
      </trkpt>
      <trkpt lat="44.83065" lon="6.4035">
        <ele>1616.4</ele>
        <time>2024-08-12T04:20:17Z</time>
      </trkpt>
      <trkpt lat="44.83066" lon="6.40346">
        <ele>1616.4</ele>
        <time>2024-08-12T04:20:18Z</time>
      </trkpt>
      <trkpt lat="44.83066" lon="6.40346">
        <ele>1616.4</ele>
        <time>2024-08-12T04:20:19Z</time>
      </trkpt>
      <trkpt lat="44.83066" lon="6.40342">
        <ele>1616.4</ele>
        <time>2024-08-12T04:20:20Z</time>
      </trkpt>
      <trkpt lat="44.83066" lon="6.40342">
        <ele>1616.4</ele>
        <time>2024-08-12T04:20:21Z</time>
      </trkpt>
      <trkpt lat="44.83067" lon="6.40338">
        <ele>1616.4</ele>
        <time>2024-08-12T04:20:22Z</time>
      </trkpt>
      <trkpt lat="44.83068" lon="6.40336">
        <ele>1616.4</ele>
        <time>2024-08-12T04:20:23Z</time>
      </trkpt>
      <trkpt lat="44.83068" lon="6.40336">
        <ele>1616.6</ele>
        <time>2024-08-12T04:20:24Z</time>
      </trkpt>
      <trkpt lat="44.8307" lon="6.40332">
        <ele>1616.8</ele>
        <time>2024-08-12T04:20:25Z</time>
      </trkpt>
      <trkpt lat="44.8307" lon="6.40332">
        <ele>1616.8</ele>
        <time>2024-08-12T04:20:26Z</time>
      </trkpt>
      <trkpt lat="44.8307" lon="6.40328">
        <ele>1616.8</ele>
        <time>2024-08-12T04:20:27Z</time>
      </trkpt>
      <trkpt lat="44.8307" lon="6.40328">
        <ele>1616.8</ele>
        <time>2024-08-12T04:20:28Z</time>
      </trkpt>
      <trkpt lat="44.83071" lon="6.40325">
        <ele>1616.8</ele>
        <time>2024-08-12T04:20:29Z</time>
      </trkpt>
      <trkpt lat="44.83071" lon="6.40325">
        <ele>1616.8</ele>
        <time>2024-08-12T04:20:30Z</time>
      </trkpt>
      <trkpt lat="44.83073" lon="6.40321">
        <ele>1616.8</ele>
        <time>2024-08-12T04:20:31Z</time>
      </trkpt>
      <trkpt lat="44.83073" lon="6.40321">
        <ele>1616.8</ele>
        <time>2024-08-12T04:20:32Z</time>
      </trkpt>
      <trkpt lat="44.83074" lon="6.40317">
        <ele>1617</ele>
        <time>2024-08-12T04:20:33Z</time>
      </trkpt>
      <trkpt lat="44.83074" lon="6.40317">
        <ele>1617</ele>
        <time>2024-08-12T04:20:34Z</time>
      </trkpt>
      <trkpt lat="44.83075" lon="6.40314">
        <ele>1617</ele>
        <time>2024-08-12T04:20:35Z</time>
      </trkpt>
      <trkpt lat="44.83075" lon="6.40314">
        <ele>1617</ele>
        <time>2024-08-12T04:20:36Z</time>
      </trkpt>
      <trkpt lat="44.83076" lon="6.4031">
        <ele>1617</ele>
        <time>2024-08-12T04:20:37Z</time>
      </trkpt>
      <trkpt lat="44.83076" lon="6.4031">
        <ele>1617</ele>
        <time>2024-08-12T04:20:38Z</time>
      </trkpt>
      <trkpt lat="44.83077" lon="6.40307">
        <ele>1617</ele>
        <time>2024-08-12T04:20:39Z</time>
      </trkpt>
      <trkpt lat="44.83077" lon="6.40307">
        <ele>1617</ele>
        <time>2024-08-12T04:20:40Z</time>
      </trkpt>
      <trkpt lat="44.83079" lon="6.40304">
        <ele>1617</ele>
        <time>2024-08-12T04:20:41Z</time>
      </trkpt>
      <trkpt lat="44.8308" lon="6.40301">
        <ele>1617.2</ele>
        <time>2024-08-12T04:20:42Z</time>
      </trkpt>
      <trkpt lat="44.8308" lon="6.40301">
        <ele>1617.2</ele>
        <time>2024-08-12T04:20:43Z</time>
      </trkpt>
      <trkpt lat="44.83081" lon="6.40298">
        <ele>1617.2</ele>
        <time>2024-08-12T04:20:44Z</time>
      </trkpt>
      <trkpt lat="44.83081" lon="6.40298">
        <ele>1617.4</ele>
        <time>2024-08-12T04:20:45Z</time>
      </trkpt>
      <trkpt lat="44.83083" lon="6.40295">
        <ele>1617.4</ele>
        <time>2024-08-12T04:20:46Z</time>
      </trkpt>
      <trkpt lat="44.83083" lon="6.40295">
        <ele>1617.4</ele>
        <time>2024-08-12T04:20:47Z</time>
      </trkpt>
      <trkpt lat="44.83085" lon="6.40292">
        <ele>1617.4</ele>
        <time>2024-08-12T04:20:48Z</time>
      </trkpt>
      <trkpt lat="44.83085" lon="6.40292">
        <ele>1617.4</ele>
        <time>2024-08-12T04:20:49Z</time>
      </trkpt>
      <trkpt lat="44.83086" lon="6.40289">
        <ele>1617.6</ele>
        <time>2024-08-12T04:20:50Z</time>
      </trkpt>
      <trkpt lat="44.83086" lon="6.40289">
        <ele>1617.6</ele>
        <time>2024-08-12T04:20:51Z</time>
      </trkpt>
      <trkpt lat="44.83086" lon="6.40285">
        <ele>1617.8</ele>
        <time>2024-08-12T04:20:52Z</time>
      </trkpt>
      <trkpt lat="44.83086" lon="6.40285">
        <ele>1618</ele>
        <time>2024-08-12T04:20:53Z</time>
      </trkpt>
      <trkpt lat="44.83086" lon="6.40282">
        <ele>1618</ele>
        <time>2024-08-12T04:20:54Z</time>
      </trkpt>
      <trkpt lat="44.83086" lon="6.40282">
        <ele>1618</ele>
        <time>2024-08-12T04:20:55Z</time>
      </trkpt>
      <trkpt lat="44.83088" lon="6.40279">
        <ele>1618</ele>
        <time>2024-08-12T04:20:56Z</time>
      </trkpt>
      <trkpt lat="44.83088" lon="6.40279">
        <ele>1618.2</ele>
        <time>2024-08-12T04:20:57Z</time>
      </trkpt>
      <trkpt lat="44.83089" lon="6.40276">
        <ele>1618.2</ele>
        <time>2024-08-12T04:20:58Z</time>
      </trkpt>
      <trkpt lat="44.83089" lon="6.40276">
        <ele>1618.2</ele>
        <time>2024-08-12T04:20:59Z</time>
      </trkpt>
      <trkpt lat="44.8309" lon="6.40272">
        <ele>1618.2</ele>
        <time>2024-08-12T04:21:00Z</time>
      </trkpt>
      <trkpt lat="44.8309" lon="6.40272">
        <ele>1618.2</ele>
        <time>2024-08-12T04:21:01Z</time>
      </trkpt>
      <trkpt lat="44.8309" lon="6.40269">
        <ele>1618.4</ele>
        <time>2024-08-12T04:21:02Z</time>
      </trkpt>
      <trkpt lat="44.8309" lon="6.40269">
        <ele>1618.4</ele>
        <time>2024-08-12T04:21:03Z</time>
      </trkpt>
      <trkpt lat="44.83091" lon="6.40265">
        <ele>1618.4</ele>
        <time>2024-08-12T04:21:04Z</time>
      </trkpt>
      <trkpt lat="44.83092" lon="6.40262">
        <ele>1618.6</ele>
        <time>2024-08-12T04:21:05Z</time>
      </trkpt>
      <trkpt lat="44.83092" lon="6.40262">
        <ele>1618.8</ele>
        <time>2024-08-12T04:21:06Z</time>
      </trkpt>
      <trkpt lat="44.83093" lon="6.40259">
        <ele>1618.8</ele>
        <time>2024-08-12T04:21:07Z</time>
      </trkpt>
      <trkpt lat="44.83093" lon="6.40259">
        <ele>1618.8</ele>
        <time>2024-08-12T04:21:08Z</time>
      </trkpt>
      <trkpt lat="44.83094" lon="6.40255">
        <ele>1618.8</ele>
        <time>2024-08-12T04:21:09Z</time>
      </trkpt>
      <trkpt lat="44.83094" lon="6.40255">
        <ele>1619</ele>
        <time>2024-08-12T04:21:10Z</time>
      </trkpt>
      <trkpt lat="44.83095" lon="6.40252">
        <ele>1619</ele>
        <time>2024-08-12T04:21:11Z</time>
      </trkpt>
      <trkpt lat="44.83095" lon="6.40252">
        <ele>1618.8</ele>
        <time>2024-08-12T04:21:12Z</time>
      </trkpt>
      <trkpt lat="44.83096" lon="6.40249">
        <ele>1618.8</ele>
        <time>2024-08-12T04:21:13Z</time>
      </trkpt>
      <trkpt lat="44.83096" lon="6.40249">
        <ele>1619</ele>
        <time>2024-08-12T04:21:14Z</time>
      </trkpt>
      <trkpt lat="44.83098" lon="6.40245">
        <ele>1619</ele>
        <time>2024-08-12T04:21:15Z</time>
      </trkpt>
      <trkpt lat="44.83098" lon="6.40245">
        <ele>1619</ele>
        <time>2024-08-12T04:21:16Z</time>
      </trkpt>
      <trkpt lat="44.83099" lon="6.40242">
        <ele>1619</ele>
        <time>2024-08-12T04:21:17Z</time>
      </trkpt>
      <trkpt lat="44.83099" lon="6.40242">
        <ele>1619</ele>
        <time>2024-08-12T04:21:18Z</time>
      </trkpt>
      <trkpt lat="44.831" lon="6.40239">
        <ele>1619</ele>
        <time>2024-08-12T04:21:19Z</time>
      </trkpt>
      <trkpt lat="44.831" lon="6.40239">
        <ele>1619</ele>
        <time>2024-08-12T04:21:20Z</time>
      </trkpt>
      <trkpt lat="44.83102" lon="6.40236">
        <ele>1619</ele>
        <time>2024-08-12T04:21:21Z</time>
      </trkpt>
      <trkpt lat="44.83102" lon="6.40236">
        <ele>1619</ele>
        <time>2024-08-12T04:21:22Z</time>
      </trkpt>
      <trkpt lat="44.83103" lon="6.40233">
        <ele>1619</ele>
        <time>2024-08-12T04:21:23Z</time>
      </trkpt>
      <trkpt lat="44.83103" lon="6.40233">
        <ele>1619.2</ele>
        <time>2024-08-12T04:21:24Z</time>
      </trkpt>
      <trkpt lat="44.83105" lon="6.40229">
        <ele>1619.2</ele>
        <time>2024-08-12T04:21:25Z</time>
      </trkpt>
      <trkpt lat="44.83105" lon="6.40229">
        <ele>1619.2</ele>
        <time>2024-08-12T04:21:26Z</time>
      </trkpt>
      <trkpt lat="44.83107" lon="6.40226">
        <ele>1619.4</ele>
        <time>2024-08-12T04:21:27Z</time>
      </trkpt>
      <trkpt lat="44.83107" lon="6.40226">
        <ele>1619.4</ele>
        <time>2024-08-12T04:21:28Z</time>
      </trkpt>
      <trkpt lat="44.83107" lon="6.40222">
        <ele>1619.6</ele>
        <time>2024-08-12T04:21:29Z</time>
      </trkpt>
      <trkpt lat="44.83107" lon="6.40222">
        <ele>1619.6</ele>
        <time>2024-08-12T04:21:30Z</time>
      </trkpt>
      <trkpt lat="44.83108" lon="6.40219">
        <ele>1619.6</ele>
        <time>2024-08-12T04:21:31Z</time>
      </trkpt>
      <trkpt lat="44.83108" lon="6.40219">
        <ele>1619.8</ele>
        <time>2024-08-12T04:21:32Z</time>
      </trkpt>
      <trkpt lat="44.83107" lon="6.40216">
        <ele>1619.8</ele>
        <time>2024-08-12T04:21:33Z</time>
      </trkpt>
      <trkpt lat="44.83107" lon="6.40216">
        <ele>1620</ele>
        <time>2024-08-12T04:21:34Z</time>
      </trkpt>
      <trkpt lat="44.83108" lon="6.40212">
        <ele>1620</ele>
        <time>2024-08-12T04:21:35Z</time>
      </trkpt>
      <trkpt lat="44.83108" lon="6.40212">
        <ele>1620</ele>
        <time>2024-08-12T04:21:36Z</time>
      </trkpt>
      <trkpt lat="44.83109" lon="6.40208">
        <ele>1620</ele>
        <time>2024-08-12T04:21:37Z</time>
      </trkpt>
      <trkpt lat="44.83109" lon="6.40208">
        <ele>1620.2</ele>
        <time>2024-08-12T04:21:38Z</time>
      </trkpt>
      <trkpt lat="44.83111" lon="6.40205">
        <ele>1620.2</ele>
        <time>2024-08-12T04:21:39Z</time>
      </trkpt>
      <trkpt lat="44.83111" lon="6.40205">
        <ele>1620.2</ele>
        <time>2024-08-12T04:21:40Z</time>
      </trkpt>
      <trkpt lat="44.83112" lon="6.40202">
        <ele>1620.4</ele>
        <time>2024-08-12T04:21:41Z</time>
      </trkpt>
      <trkpt lat="44.83112" lon="6.40202">
        <ele>1620.6</ele>
        <time>2024-08-12T04:21:42Z</time>
      </trkpt>
      <trkpt lat="44.83114" lon="6.40199">
        <ele>1620.6</ele>
        <time>2024-08-12T04:21:43Z</time>
      </trkpt>
      <trkpt lat="44.83114" lon="6.40199">
        <ele>1620.6</ele>
        <time>2024-08-12T04:21:44Z</time>
      </trkpt>
      <trkpt lat="44.83115" lon="6.40196">
        <ele>1620.6</ele>
        <time>2024-08-12T04:21:45Z</time>
      </trkpt>
      <trkpt lat="44.83115" lon="6.40196">
        <ele>1620.6</ele>
        <time>2024-08-12T04:21:46Z</time>
      </trkpt>
      <trkpt lat="44.83116" lon="6.40192">
        <ele>1620.6</ele>
        <time>2024-08-12T04:21:47Z</time>
      </trkpt>
      <trkpt lat="44.83116" lon="6.40192">
        <ele>1620.6</ele>
        <time>2024-08-12T04:21:48Z</time>
      </trkpt>
      <trkpt lat="44.83117" lon="6.40189">
        <ele>1620.6</ele>
        <time>2024-08-12T04:21:49Z</time>
      </trkpt>
      <trkpt lat="44.83117" lon="6.40189">
        <ele>1620.6</ele>
        <time>2024-08-12T04:21:50Z</time>
      </trkpt>
      <trkpt lat="44.83118" lon="6.40186">
        <ele>1620.6</ele>
        <time>2024-08-12T04:21:51Z</time>
      </trkpt>
      <trkpt lat="44.83118" lon="6.40186">
        <ele>1620.8</ele>
        <time>2024-08-12T04:21:52Z</time>
      </trkpt>
      <trkpt lat="44.83118" lon="6.40186">
        <ele>1621</ele>
        <time>2024-08-12T04:21:53Z</time>
      </trkpt>
      <trkpt lat="44.83118" lon="6.40183">
        <ele>1621.2</ele>
        <time>2024-08-12T04:21:54Z</time>
      </trkpt>
      <trkpt lat="44.83118" lon="6.40183">
        <ele>1621.2</ele>
        <time>2024-08-12T04:21:55Z</time>
      </trkpt>
      <trkpt lat="44.83118" lon="6.40183">
        <ele>1621.2</ele>
        <time>2024-08-12T04:21:56Z</time>
      </trkpt>
      <trkpt lat="44.83118" lon="6.40183">
        <ele>1621.2</ele>
        <time>2024-08-12T04:21:57Z</time>
      </trkpt>
      <trkpt lat="44.83118" lon="6.40183">
        <ele>1621.2</ele>
        <time>2024-08-12T04:21:58Z</time>
      </trkpt>
      <trkpt lat="44.83118" lon="6.40183">
        <ele>1621.2</ele>
        <time>2024-08-12T04:21:59Z</time>
      </trkpt>
      <trkpt lat="44.83118" lon="6.40183">
        <ele>1621.4</ele>
        <time>2024-08-12T04:22:00Z</time>
      </trkpt>
      <trkpt lat="44.83118" lon="6.40183">
        <ele>1621.4</ele>
        <time>2024-08-12T04:22:01Z</time>
      </trkpt>
      <trkpt lat="44.83118" lon="6.40183">
        <ele>1621.4</ele>
        <time>2024-08-12T04:22:02Z</time>
      </trkpt>
      <trkpt lat="44.83118" lon="6.40183">
        <ele>1621.4</ele>
        <time>2024-08-12T04:22:03Z</time>
      </trkpt>
      <trkpt lat="44.83118" lon="6.40183">
        <ele>1621.4</ele>
        <time>2024-08-12T04:22:04Z</time>
      </trkpt>
      <trkpt lat="44.83118" lon="6.40183">
        <ele>1621.4</ele>
        <time>2024-08-12T04:22:05Z</time>
      </trkpt>
      <trkpt lat="44.83118" lon="6.40183">
        <ele>1621.4</ele>
        <time>2024-08-12T04:22:06Z</time>
      </trkpt>
      <trkpt lat="44.83118" lon="6.40183">
        <ele>1621.4</ele>
        <time>2024-08-12T04:22:07Z</time>
      </trkpt>
      <trkpt lat="44.83118" lon="6.40183">
        <ele>1621.4</ele>
        <time>2024-08-12T04:22:08Z</time>
      </trkpt>
      <trkpt lat="44.83118" lon="6.40183">
        <ele>1621.6</ele>
        <time>2024-08-12T04:22:09Z</time>
      </trkpt>
      <trkpt lat="44.83118" lon="6.40183">
        <ele>1621.8</ele>
        <time>2024-08-12T04:22:10Z</time>
      </trkpt>
      <trkpt lat="44.83118" lon="6.40183">
        <ele>1621.8</ele>
        <time>2024-08-12T04:22:11Z</time>
      </trkpt>
      <trkpt lat="44.83118" lon="6.40183">
        <ele>1622</ele>
        <time>2024-08-12T04:22:12Z</time>
      </trkpt>
      <trkpt lat="44.83118" lon="6.40183">
        <ele>1621.8</ele>
        <time>2024-08-12T04:22:13Z</time>
      </trkpt>
      <trkpt lat="44.83118" lon="6.40183">
        <ele>1621.8</ele>
        <time>2024-08-12T04:22:14Z</time>
      </trkpt>
      <trkpt lat="44.83118" lon="6.40183">
        <ele>1621.8</ele>
        <time>2024-08-12T04:22:15Z</time>
      </trkpt>
      <trkpt lat="44.83118" lon="6.40183">
        <ele>1621.8</ele>
        <time>2024-08-12T04:22:16Z</time>
      </trkpt>
      <trkpt lat="44.83118" lon="6.40183">
        <ele>1621.8</ele>
        <time>2024-08-12T04:22:17Z</time>
      </trkpt>
      <trkpt lat="44.83118" lon="6.40183">
        <ele>1621.8</ele>
        <time>2024-08-12T04:22:18Z</time>
      </trkpt>
      <trkpt lat="44.83118" lon="6.40183">
        <ele>1621.8</ele>
        <time>2024-08-12T04:22:19Z</time>
      </trkpt>
      <trkpt lat="44.83118" lon="6.40183">
        <ele>1621.8</ele>
        <time>2024-08-12T04:22:20Z</time>
      </trkpt>
      <trkpt lat="44.83118" lon="6.40183">
        <ele>1621.8</ele>
        <time>2024-08-12T04:22:21Z</time>
      </trkpt>
      <trkpt lat="44.83118" lon="6.40183">
        <ele>1621.8</ele>
        <time>2024-08-12T04:22:22Z</time>
      </trkpt>
      <trkpt lat="44.83118" lon="6.40183">
        <ele>1621.8</ele>
        <time>2024-08-12T04:22:23Z</time>
      </trkpt>
      <trkpt lat="44.83118" lon="6.40183">
        <ele>1621.8</ele>
        <time>2024-08-12T04:22:24Z</time>
      </trkpt>
      <trkpt lat="44.83118" lon="6.40183">
        <ele>1622.2</ele>
        <time>2024-08-12T04:22:25Z</time>
      </trkpt>
      <trkpt lat="44.83118" lon="6.40183">
        <ele>1622.4</ele>
        <time>2024-08-12T04:22:26Z</time>
      </trkpt>
      <trkpt lat="44.83118" lon="6.40183">
        <ele>1622.4</ele>
        <time>2024-08-12T04:22:27Z</time>
      </trkpt>
      <trkpt lat="44.83118" lon="6.40183">
        <ele>1622.4</ele>
        <time>2024-08-12T04:22:28Z</time>
      </trkpt>
      <trkpt lat="44.83118" lon="6.40183">
        <ele>1622.4</ele>
        <time>2024-08-12T04:22:29Z</time>
      </trkpt>
      <trkpt lat="44.83118" lon="6.40183">
        <ele>1622.4</ele>
        <time>2024-08-12T04:22:30Z</time>
      </trkpt>
      <trkpt lat="44.83118" lon="6.40183">
        <ele>1622.4</ele>
        <time>2024-08-12T04:22:31Z</time>
      </trkpt>
      <trkpt lat="44.83118" lon="6.40183">
        <ele>1622.4</ele>
        <time>2024-08-12T04:22:32Z</time>
      </trkpt>
      <trkpt lat="44.83118" lon="6.40183">
        <ele>1622.2</ele>
        <time>2024-08-12T04:22:33Z</time>
      </trkpt>
      <trkpt lat="44.83118" lon="6.40183">
        <ele>1622.2</ele>
        <time>2024-08-12T04:22:34Z</time>
      </trkpt>
      <trkpt lat="44.83118" lon="6.40183">
        <ele>1622.2</ele>
        <time>2024-08-12T04:22:35Z</time>
      </trkpt>
      <trkpt lat="44.83118" lon="6.40183">
        <ele>1622.2</ele>
        <time>2024-08-12T04:22:36Z</time>
      </trkpt>
      <trkpt lat="44.83118" lon="6.40183">
        <ele>1622.2</ele>
        <time>2024-08-12T04:22:37Z</time>
      </trkpt>
      <trkpt lat="44.83118" lon="6.40183">
        <ele>1622.4</ele>
        <time>2024-08-12T04:22:38Z</time>
      </trkpt>
      <trkpt lat="44.83118" lon="6.40183">
        <ele>1622.4</ele>
        <time>2024-08-12T04:22:39Z</time>
      </trkpt>
      <trkpt lat="44.83118" lon="6.40183">
        <ele>1622</ele>
        <time>2024-08-12T04:22:40Z</time>
      </trkpt>
      <trkpt lat="44.83118" lon="6.40183">
        <ele>1622</ele>
        <time>2024-08-12T04:22:41Z</time>
      </trkpt>
      <trkpt lat="44.83118" lon="6.40183">
        <ele>1622</ele>
        <time>2024-08-12T04:22:42Z</time>
      </trkpt>
      <trkpt lat="44.83118" lon="6.40183">
        <ele>1622.2</ele>
        <time>2024-08-12T04:22:43Z</time>
      </trkpt>
      <trkpt lat="44.83118" lon="6.40183">
        <ele>1622.2</ele>
        <time>2024-08-12T04:22:44Z</time>
      </trkpt>
      <trkpt lat="44.83118" lon="6.40183">
        <ele>1622.2</ele>
        <time>2024-08-12T04:22:45Z</time>
      </trkpt>
      <trkpt lat="44.83118" lon="6.40183">
        <ele>1622.2</ele>
        <time>2024-08-12T04:22:46Z</time>
      </trkpt>
      <trkpt lat="44.83118" lon="6.40183">
        <ele>1622.4</ele>
        <time>2024-08-12T04:22:47Z</time>
      </trkpt>
      <trkpt lat="44.83118" lon="6.40183">
        <ele>1622.4</ele>
        <time>2024-08-12T04:22:48Z</time>
      </trkpt>
      <trkpt lat="44.83118" lon="6.40183">
        <ele>1622.4</ele>
        <time>2024-08-12T04:22:49Z</time>
      </trkpt>
      <trkpt lat="44.83118" lon="6.40183">
        <ele>1622.6</ele>
        <time>2024-08-12T04:22:50Z</time>
      </trkpt>
      <trkpt lat="44.83118" lon="6.40183">
        <ele>1622.6</ele>
        <time>2024-08-12T04:22:51Z</time>
      </trkpt>
      <trkpt lat="44.83118" lon="6.40183">
        <ele>1622.6</ele>
        <time>2024-08-12T04:22:52Z</time>
      </trkpt>
      <trkpt lat="44.83118" lon="6.40183">
        <ele>1622.6</ele>
        <time>2024-08-12T04:22:53Z</time>
      </trkpt>
      <trkpt lat="44.83118" lon="6.40183">
        <ele>1622.4</ele>
        <time>2024-08-12T04:22:54Z</time>
      </trkpt>
      <trkpt lat="44.83118" lon="6.40183">
        <ele>1622.4</ele>
        <time>2024-08-12T04:22:55Z</time>
      </trkpt>
      <trkpt lat="44.83118" lon="6.40183">
        <ele>1622.4</ele>
        <time>2024-08-12T04:22:56Z</time>
      </trkpt>
      <trkpt lat="44.83118" lon="6.40183">
        <ele>1622.4</ele>
        <time>2024-08-12T04:22:57Z</time>
      </trkpt>
      <trkpt lat="44.83118" lon="6.40183">
        <ele>1622.4</ele>
        <time>2024-08-12T04:22:58Z</time>
      </trkpt>
      <trkpt lat="44.83118" lon="6.40183">
        <ele>1622.4</ele>
        <time>2024-08-12T04:22:59Z</time>
      </trkpt>
      <trkpt lat="44.83118" lon="6.40183">
        <ele>1622.4</ele>
        <time>2024-08-12T04:23:00Z</time>
      </trkpt>
      <trkpt lat="44.83118" lon="6.40183">
        <ele>1622.6</ele>
        <time>2024-08-12T04:23:01Z</time>
      </trkpt>
      <trkpt lat="44.83118" lon="6.40183">
        <ele>1622.6</ele>
        <time>2024-08-12T04:23:02Z</time>
      </trkpt>
      <trkpt lat="44.83118" lon="6.40183">
        <ele>1622.6</ele>
        <time>2024-08-12T04:23:03Z</time>
      </trkpt>
      <trkpt lat="44.83118" lon="6.40183">
        <ele>1622.8</ele>
        <time>2024-08-12T04:23:04Z</time>
      </trkpt>
      <trkpt lat="44.83118" lon="6.40183">
        <ele>1622.8</ele>
        <time>2024-08-12T04:23:05Z</time>
      </trkpt>
      <trkpt lat="44.83118" lon="6.40183">
        <ele>1622.8</ele>
        <time>2024-08-12T04:23:06Z</time>
      </trkpt>
      <trkpt lat="44.83118" lon="6.40183">
        <ele>1622.8</ele>
        <time>2024-08-12T04:23:07Z</time>
      </trkpt>
      <trkpt lat="44.83118" lon="6.40183">
        <ele>1622.8</ele>
        <time>2024-08-12T04:23:08Z</time>
      </trkpt>
      <trkpt lat="44.83118" lon="6.40183">
        <ele>1622.8</ele>
        <time>2024-08-12T04:23:09Z</time>
      </trkpt>
      <trkpt lat="44.83118" lon="6.40183">
        <ele>1623</ele>
        <time>2024-08-12T04:23:10Z</time>
      </trkpt>
      <trkpt lat="44.83118" lon="6.40183">
        <ele>1623</ele>
        <time>2024-08-12T04:23:11Z</time>
      </trkpt>
      <trkpt lat="44.83118" lon="6.40183">
        <ele>1623</ele>
        <time>2024-08-12T04:23:12Z</time>
      </trkpt>
      <trkpt lat="44.83118" lon="6.40183">
        <ele>1623</ele>
        <time>2024-08-12T04:23:13Z</time>
      </trkpt>
      <trkpt lat="44.83118" lon="6.40183">
        <ele>1622.8</ele>
        <time>2024-08-12T04:23:14Z</time>
      </trkpt>
      <trkpt lat="44.83118" lon="6.40183">
        <ele>1622.8</ele>
        <time>2024-08-12T04:23:15Z</time>
      </trkpt>
      <trkpt lat="44.83118" lon="6.40183">
        <ele>1622.8</ele>
        <time>2024-08-12T04:23:16Z</time>
      </trkpt>
      <trkpt lat="44.83118" lon="6.40183">
        <ele>1623</ele>
        <time>2024-08-12T04:23:17Z</time>
      </trkpt>
      <trkpt lat="44.83118" lon="6.40183">
        <ele>1623</ele>
        <time>2024-08-12T04:23:18Z</time>
      </trkpt>
      <trkpt lat="44.83118" lon="6.40183">
        <ele>1623</ele>
        <time>2024-08-12T04:23:19Z</time>
      </trkpt>
      <trkpt lat="44.83118" lon="6.40183">
        <ele>1623</ele>
        <time>2024-08-12T04:23:20Z</time>
      </trkpt>
      <trkpt lat="44.83118" lon="6.40183">
        <ele>1623</ele>
        <time>2024-08-12T04:23:21Z</time>
      </trkpt>
      <trkpt lat="44.83118" lon="6.40183">
        <ele>1623</ele>
        <time>2024-08-12T04:23:22Z</time>
      </trkpt>
      <trkpt lat="44.83118" lon="6.40183">
        <ele>1623.2</ele>
        <time>2024-08-12T04:23:23Z</time>
      </trkpt>
      <trkpt lat="44.83118" lon="6.40183">
        <ele>1623.4</ele>
        <time>2024-08-12T04:23:24Z</time>
      </trkpt>
      <trkpt lat="44.83118" lon="6.40183">
        <ele>1623.4</ele>
        <time>2024-08-12T04:23:25Z</time>
      </trkpt>
      <trkpt lat="44.83118" lon="6.40183">
        <ele>1623</ele>
        <time>2024-08-12T04:23:26Z</time>
      </trkpt>
      <trkpt lat="44.83118" lon="6.40183">
        <ele>1623</ele>
        <time>2024-08-12T04:23:27Z</time>
      </trkpt>
      <trkpt lat="44.83118" lon="6.40183">
        <ele>1623</ele>
        <time>2024-08-12T04:23:28Z</time>
      </trkpt>
      <trkpt lat="44.83118" lon="6.40183">
        <ele>1623</ele>
        <time>2024-08-12T04:23:29Z</time>
      </trkpt>
      <trkpt lat="44.83118" lon="6.40183">
        <ele>1623</ele>
        <time>2024-08-12T04:23:30Z</time>
      </trkpt>
      <trkpt lat="44.83118" lon="6.40183">
        <ele>1622.8</ele>
        <time>2024-08-12T04:23:31Z</time>
      </trkpt>
      <trkpt lat="44.83118" lon="6.40183">
        <ele>1622.8</ele>
        <time>2024-08-12T04:23:32Z</time>
      </trkpt>
      <trkpt lat="44.83118" lon="6.40183">
        <ele>1623</ele>
        <time>2024-08-12T04:23:33Z</time>
      </trkpt>
      <trkpt lat="44.83118" lon="6.40183">
        <ele>1623</ele>
        <time>2024-08-12T04:23:34Z</time>
      </trkpt>
      <trkpt lat="44.83118" lon="6.40183">
        <ele>1623</ele>
        <time>2024-08-12T04:23:35Z</time>
      </trkpt>
      <trkpt lat="44.83118" lon="6.40183">
        <ele>1623</ele>
        <time>2024-08-12T04:23:36Z</time>
      </trkpt>
      <trkpt lat="44.83118" lon="6.40183">
        <ele>1623</ele>
        <time>2024-08-12T04:23:37Z</time>
      </trkpt>
      <trkpt lat="44.83118" lon="6.40183">
        <ele>1623</ele>
        <time>2024-08-12T04:23:38Z</time>
      </trkpt>
      <trkpt lat="44.83118" lon="6.40183">
        <ele>1623</ele>
        <time>2024-08-12T04:23:39Z</time>
      </trkpt>
      <trkpt lat="44.83118" lon="6.40183">
        <ele>1623</ele>
        <time>2024-08-12T04:23:40Z</time>
      </trkpt>
      <trkpt lat="44.83118" lon="6.40183">
        <ele>1623</ele>
        <time>2024-08-12T04:23:41Z</time>
      </trkpt>
      <trkpt lat="44.83118" lon="6.40183">
        <ele>1623</ele>
        <time>2024-08-12T04:23:42Z</time>
      </trkpt>
      <trkpt lat="44.83118" lon="6.40183">
        <ele>1623</ele>
        <time>2024-08-12T04:23:43Z</time>
      </trkpt>
      <trkpt lat="44.83118" lon="6.40183">
        <ele>1623</ele>
        <time>2024-08-12T04:23:44Z</time>
      </trkpt>
      <trkpt lat="44.83118" lon="6.40183">
        <ele>1623</ele>
        <time>2024-08-12T04:23:45Z</time>
      </trkpt>
      <trkpt lat="44.83118" lon="6.40183">
        <ele>1623</ele>
        <time>2024-08-12T04:23:46Z</time>
      </trkpt>
      <trkpt lat="44.83118" lon="6.40183">
        <ele>1623</ele>
        <time>2024-08-12T04:23:47Z</time>
      </trkpt>
      <trkpt lat="44.83118" lon="6.40183">
        <ele>1623</ele>
        <time>2024-08-12T04:23:48Z</time>
      </trkpt>
      <trkpt lat="44.83118" lon="6.40183">
        <ele>1623.2</ele>
        <time>2024-08-12T04:23:49Z</time>
      </trkpt>
      <trkpt lat="44.83118" lon="6.40183">
        <ele>1623.2</ele>
        <time>2024-08-12T04:23:50Z</time>
      </trkpt>
      <trkpt lat="44.83118" lon="6.40183">
        <ele>1623.2</ele>
        <time>2024-08-12T04:23:51Z</time>
      </trkpt>
      <trkpt lat="44.83118" lon="6.40183">
        <ele>1623.2</ele>
        <time>2024-08-12T04:23:52Z</time>
      </trkpt>
      <trkpt lat="44.83118" lon="6.40183">
        <ele>1623.2</ele>
        <time>2024-08-12T04:23:53Z</time>
      </trkpt>
      <trkpt lat="44.83118" lon="6.40183">
        <ele>1623.2</ele>
        <time>2024-08-12T04:23:54Z</time>
      </trkpt>
      <trkpt lat="44.83118" lon="6.40183">
        <ele>1623</ele>
        <time>2024-08-12T04:23:55Z</time>
      </trkpt>
      <trkpt lat="44.83118" lon="6.40183">
        <ele>1623</ele>
        <time>2024-08-12T04:23:56Z</time>
      </trkpt>
      <trkpt lat="44.83118" lon="6.40183">
        <ele>1623</ele>
        <time>2024-08-12T04:23:57Z</time>
      </trkpt>
      <trkpt lat="44.83118" lon="6.40183">
        <ele>1623</ele>
        <time>2024-08-12T04:23:58Z</time>
      </trkpt>
      <trkpt lat="44.83118" lon="6.40183">
        <ele>1623.2</ele>
        <time>2024-08-12T04:23:59Z</time>
      </trkpt>
      <trkpt lat="44.83118" lon="6.40183">
        <ele>1623.2</ele>
        <time>2024-08-12T04:24:00Z</time>
      </trkpt>
      <trkpt lat="44.83118" lon="6.40183">
        <ele>1623</ele>
        <time>2024-08-12T04:24:01Z</time>
      </trkpt>
      <trkpt lat="44.83118" lon="6.40183">
        <ele>1623.2</ele>
        <time>2024-08-12T04:24:02Z</time>
      </trkpt>
      <trkpt lat="44.83118" lon="6.40183">
        <ele>1623.2</ele>
        <time>2024-08-12T04:24:03Z</time>
      </trkpt>
      <trkpt lat="44.83118" lon="6.40183">
        <ele>1623.4</ele>
        <time>2024-08-12T04:24:04Z</time>
      </trkpt>
      <trkpt lat="44.83118" lon="6.40183">
        <ele>1623.4</ele>
        <time>2024-08-12T04:24:05Z</time>
      </trkpt>
      <trkpt lat="44.83118" lon="6.40183">
        <ele>1623.2</ele>
        <time>2024-08-12T04:24:06Z</time>
      </trkpt>
      <trkpt lat="44.83118" lon="6.40183">
        <ele>1623.2</ele>
        <time>2024-08-12T04:24:07Z</time>
      </trkpt>
      <trkpt lat="44.83118" lon="6.40183">
        <ele>1623.2</ele>
        <time>2024-08-12T04:24:08Z</time>
      </trkpt>
      <trkpt lat="44.83118" lon="6.40183">
        <ele>1623.2</ele>
        <time>2024-08-12T04:24:09Z</time>
      </trkpt>
      <trkpt lat="44.83118" lon="6.40183">
        <ele>1623.2</ele>
        <time>2024-08-12T04:24:10Z</time>
      </trkpt>
      <trkpt lat="44.83118" lon="6.40183">
        <ele>1623.2</ele>
        <time>2024-08-12T04:24:11Z</time>
      </trkpt>
      <trkpt lat="44.83118" lon="6.40183">
        <ele>1623.2</ele>
        <time>2024-08-12T04:24:12Z</time>
      </trkpt>
      <trkpt lat="44.83118" lon="6.40183">
        <ele>1623.2</ele>
        <time>2024-08-12T04:24:13Z</time>
      </trkpt>
      <trkpt lat="44.83118" lon="6.40183">
        <ele>1623.2</ele>
        <time>2024-08-12T04:24:14Z</time>
      </trkpt>
      <trkpt lat="44.83118" lon="6.40183">
        <ele>1623.2</ele>
        <time>2024-08-12T04:24:15Z</time>
      </trkpt>
      <trkpt lat="44.83118" lon="6.40183">
        <ele>1623</ele>
        <time>2024-08-12T04:24:16Z</time>
      </trkpt>
      <trkpt lat="44.83118" lon="6.40183">
        <ele>1623</ele>
        <time>2024-08-12T04:24:17Z</time>
      </trkpt>
      <trkpt lat="44.83118" lon="6.40183">
        <ele>1623.2</ele>
        <time>2024-08-12T04:24:18Z</time>
      </trkpt>
      <trkpt lat="44.83118" lon="6.40183">
        <ele>1623.2</ele>
        <time>2024-08-12T04:24:19Z</time>
      </trkpt>
      <trkpt lat="44.83118" lon="6.40183">
        <ele>1623.2</ele>
        <time>2024-08-12T04:24:20Z</time>
      </trkpt>
      <trkpt lat="44.83118" lon="6.40183">
        <ele>1623.2</ele>
        <time>2024-08-12T04:24:21Z</time>
      </trkpt>
      <trkpt lat="44.83118" lon="6.40183">
        <ele>1623.2</ele>
        <time>2024-08-12T04:24:22Z</time>
      </trkpt>
      <trkpt lat="44.83118" lon="6.40183">
        <ele>1623.2</ele>
        <time>2024-08-12T04:24:23Z</time>
      </trkpt>
      <trkpt lat="44.83118" lon="6.40183">
        <ele>1623.2</ele>
        <time>2024-08-12T04:24:24Z</time>
      </trkpt>
      <trkpt lat="44.83118" lon="6.40183">
        <ele>1623</ele>
        <time>2024-08-12T04:24:25Z</time>
      </trkpt>
      <trkpt lat="44.83118" lon="6.40183">
        <ele>1623</ele>
        <time>2024-08-12T04:24:26Z</time>
      </trkpt>
      <trkpt lat="44.83118" lon="6.40183">
        <ele>1623.2</ele>
        <time>2024-08-12T04:24:27Z</time>
      </trkpt>
      <trkpt lat="44.83118" lon="6.40183">
        <ele>1623.2</ele>
        <time>2024-08-12T04:24:28Z</time>
      </trkpt>
      <trkpt lat="44.83118" lon="6.40183">
        <ele>1623.2</ele>
        <time>2024-08-12T04:24:29Z</time>
      </trkpt>
      <trkpt lat="44.83118" lon="6.40183">
        <ele>1623.4</ele>
        <time>2024-08-12T04:24:30Z</time>
      </trkpt>
      <trkpt lat="44.83118" lon="6.40183">
        <ele>1623.4</ele>
        <time>2024-08-12T04:24:31Z</time>
      </trkpt>
      <trkpt lat="44.83118" lon="6.40183">
        <ele>1623.4</ele>
        <time>2024-08-12T04:24:32Z</time>
      </trkpt>
      <trkpt lat="44.83118" lon="6.40183">
        <ele>1623.2</ele>
        <time>2024-08-12T04:24:33Z</time>
      </trkpt>
      <trkpt lat="44.83118" lon="6.40183">
        <ele>1623</ele>
        <time>2024-08-12T04:24:34Z</time>
      </trkpt>
      <trkpt lat="44.83118" lon="6.40183">
        <ele>1623</ele>
        <time>2024-08-12T04:24:35Z</time>
      </trkpt>
      <trkpt lat="44.83118" lon="6.40183">
        <ele>1623</ele>
        <time>2024-08-12T04:24:36Z</time>
      </trkpt>
      <trkpt lat="44.83118" lon="6.40183">
        <ele>1623.2</ele>
        <time>2024-08-12T04:24:37Z</time>
      </trkpt>
      <trkpt lat="44.83118" lon="6.40183">
        <ele>1623</ele>
        <time>2024-08-12T04:24:38Z</time>
      </trkpt>
      <trkpt lat="44.83118" lon="6.40183">
        <ele>1623</ele>
        <time>2024-08-12T04:24:39Z</time>
      </trkpt>
      <trkpt lat="44.83118" lon="6.40183">
        <ele>1623</ele>
        <time>2024-08-12T04:24:40Z</time>
      </trkpt>
      <trkpt lat="44.83118" lon="6.40183">
        <ele>1623.2</ele>
        <time>2024-08-12T04:24:41Z</time>
      </trkpt>
      <trkpt lat="44.83118" lon="6.40183">
        <ele>1623.2</ele>
        <time>2024-08-12T04:24:42Z</time>
      </trkpt>
      <trkpt lat="44.83118" lon="6.40183">
        <ele>1623.2</ele>
        <time>2024-08-12T04:24:43Z</time>
      </trkpt>
      <trkpt lat="44.83118" lon="6.40183">
        <ele>1623.2</ele>
        <time>2024-08-12T04:24:44Z</time>
      </trkpt>
      <trkpt lat="44.83118" lon="6.40183">
        <ele>1623.2</ele>
        <time>2024-08-12T04:24:45Z</time>
      </trkpt>
      <trkpt lat="44.83118" lon="6.40183">
        <ele>1623.2</ele>
        <time>2024-08-12T04:24:46Z</time>
      </trkpt>
      <trkpt lat="44.83118" lon="6.40183">
        <ele>1623.2</ele>
        <time>2024-08-12T04:24:47Z</time>
      </trkpt>
      <trkpt lat="44.83118" lon="6.40183">
        <ele>1623.2</ele>
        <time>2024-08-12T04:24:48Z</time>
      </trkpt>
      <trkpt lat="44.83118" lon="6.40183">
        <ele>1623.2</ele>
        <time>2024-08-12T04:24:49Z</time>
      </trkpt>
      <trkpt lat="44.83118" lon="6.40183">
        <ele>1623.2</ele>
        <time>2024-08-12T04:24:50Z</time>
      </trkpt>
      <trkpt lat="44.83118" lon="6.40183">
        <ele>1623.2</ele>
        <time>2024-08-12T04:24:51Z</time>
      </trkpt>
      <trkpt lat="44.83118" lon="6.40183">
        <ele>1623.2</ele>
        <time>2024-08-12T04:24:52Z</time>
      </trkpt>
      <trkpt lat="44.83118" lon="6.40183">
        <ele>1623.4</ele>
        <time>2024-08-12T04:24:53Z</time>
      </trkpt>
      <trkpt lat="44.83118" lon="6.40183">
        <ele>1623.4</ele>
        <time>2024-08-12T04:24:54Z</time>
      </trkpt>
      <trkpt lat="44.83118" lon="6.40183">
        <ele>1623.4</ele>
        <time>2024-08-12T04:24:55Z</time>
      </trkpt>
      <trkpt lat="44.83118" lon="6.40183">
        <ele>1623.4</ele>
        <time>2024-08-12T04:24:56Z</time>
      </trkpt>
      <trkpt lat="44.83118" lon="6.40183">
        <ele>1623.4</ele>
        <time>2024-08-12T04:24:57Z</time>
      </trkpt>
      <trkpt lat="44.83118" lon="6.40183">
        <ele>1623.4</ele>
        <time>2024-08-12T04:24:58Z</time>
      </trkpt>
      <trkpt lat="44.83118" lon="6.40183">
        <ele>1623.2</ele>
        <time>2024-08-12T04:24:59Z</time>
      </trkpt>
      <trkpt lat="44.83118" lon="6.40183">
        <ele>1623.2</ele>
        <time>2024-08-12T04:25:00Z</time>
      </trkpt>
      <trkpt lat="44.83118" lon="6.40183">
        <ele>1623</ele>
        <time>2024-08-12T04:25:01Z</time>
      </trkpt>
      <trkpt lat="44.83118" lon="6.40183">
        <ele>1623</ele>
        <time>2024-08-12T04:25:02Z</time>
      </trkpt>
      <trkpt lat="44.83118" lon="6.40183">
        <ele>1623</ele>
        <time>2024-08-12T04:25:03Z</time>
      </trkpt>
      <trkpt lat="44.83118" lon="6.40183">
        <ele>1623</ele>
        <time>2024-08-12T04:25:04Z</time>
      </trkpt>
      <trkpt lat="44.83118" lon="6.40183">
        <ele>1623</ele>
        <time>2024-08-12T04:25:05Z</time>
      </trkpt>
      <trkpt lat="44.83118" lon="6.40183">
        <ele>1623.2</ele>
        <time>2024-08-12T04:25:06Z</time>
      </trkpt>
      <trkpt lat="44.83118" lon="6.40183">
        <ele>1623.2</ele>
        <time>2024-08-12T04:25:07Z</time>
      </trkpt>
      <trkpt lat="44.83118" lon="6.40183">
        <ele>1623</ele>
        <time>2024-08-12T04:25:08Z</time>
      </trkpt>
      <trkpt lat="44.83118" lon="6.40183">
        <ele>1622.8</ele>
        <time>2024-08-12T04:25:09Z</time>
      </trkpt>
      <trkpt lat="44.83118" lon="6.40183">
        <ele>1622.8</ele>
        <time>2024-08-12T04:25:10Z</time>
      </trkpt>
      <trkpt lat="44.83118" lon="6.40183">
        <ele>1622.8</ele>
        <time>2024-08-12T04:25:11Z</time>
      </trkpt>
      <trkpt lat="44.83118" lon="6.40183">
        <ele>1623</ele>
        <time>2024-08-12T04:25:12Z</time>
      </trkpt>
      <trkpt lat="44.83118" lon="6.40183">
        <ele>1623</ele>
        <time>2024-08-12T04:25:13Z</time>
      </trkpt>
      <trkpt lat="44.83118" lon="6.40183">
        <ele>1623</ele>
        <time>2024-08-12T04:25:14Z</time>
      </trkpt>
      <trkpt lat="44.83118" lon="6.40183">
        <ele>1623</ele>
        <time>2024-08-12T04:25:15Z</time>
      </trkpt>
      <trkpt lat="44.83118" lon="6.40183">
        <ele>1623</ele>
        <time>2024-08-12T04:25:16Z</time>
      </trkpt>
      <trkpt lat="44.83118" lon="6.40183">
        <ele>1623.2</ele>
        <time>2024-08-12T04:25:17Z</time>
      </trkpt>
      <trkpt lat="44.83118" lon="6.40183">
        <ele>1623.2</ele>
        <time>2024-08-12T04:25:18Z</time>
      </trkpt>
      <trkpt lat="44.83118" lon="6.40183">
        <ele>1623</ele>
        <time>2024-08-12T04:25:19Z</time>
      </trkpt>
      <trkpt lat="44.83118" lon="6.40183">
        <ele>1623</ele>
        <time>2024-08-12T04:25:20Z</time>
      </trkpt>
      <trkpt lat="44.83118" lon="6.40183">
        <ele>1623</ele>
        <time>2024-08-12T04:25:21Z</time>
      </trkpt>
      <trkpt lat="44.83118" lon="6.40183">
        <ele>1623</ele>
        <time>2024-08-12T04:25:22Z</time>
      </trkpt>
      <trkpt lat="44.83118" lon="6.40183">
        <ele>1623</ele>
        <time>2024-08-12T04:25:23Z</time>
      </trkpt>
      <trkpt lat="44.83118" lon="6.40183">
        <ele>1623</ele>
        <time>2024-08-12T04:25:24Z</time>
      </trkpt>
      <trkpt lat="44.83118" lon="6.40183">
        <ele>1623</ele>
        <time>2024-08-12T04:25:25Z</time>
      </trkpt>
      <trkpt lat="44.83118" lon="6.40183">
        <ele>1623</ele>
        <time>2024-08-12T04:25:26Z</time>
      </trkpt>
      <trkpt lat="44.83118" lon="6.40183">
        <ele>1623</ele>
        <time>2024-08-12T04:25:27Z</time>
      </trkpt>
      <trkpt lat="44.83118" lon="6.40183">
        <ele>1623</ele>
        <time>2024-08-12T04:25:28Z</time>
      </trkpt>
      <trkpt lat="44.83118" lon="6.40183">
        <ele>1622.8</ele>
        <time>2024-08-12T04:25:29Z</time>
      </trkpt>
      <trkpt lat="44.83118" lon="6.40183">
        <ele>1622.6</ele>
        <time>2024-08-12T04:25:30Z</time>
      </trkpt>
      <trkpt lat="44.83118" lon="6.40183">
        <ele>1622.4</ele>
        <time>2024-08-12T04:25:31Z</time>
      </trkpt>
      <trkpt lat="44.83118" lon="6.40183">
        <ele>1622.4</ele>
        <time>2024-08-12T04:25:32Z</time>
      </trkpt>
      <trkpt lat="44.83118" lon="6.40183">
        <ele>1622.4</ele>
        <time>2024-08-12T04:25:33Z</time>
      </trkpt>
      <trkpt lat="44.83118" lon="6.40183">
        <ele>1622.4</ele>
        <time>2024-08-12T04:25:34Z</time>
      </trkpt>
      <trkpt lat="44.83118" lon="6.40183">
        <ele>1622.6</ele>
        <time>2024-08-12T04:25:35Z</time>
      </trkpt>
      <trkpt lat="44.83118" lon="6.40183">
        <ele>1622.6</ele>
        <time>2024-08-12T04:25:36Z</time>
      </trkpt>
      <trkpt lat="44.83118" lon="6.40183">
        <ele>1622.6</ele>
        <time>2024-08-12T04:25:37Z</time>
      </trkpt>
      <trkpt lat="44.83118" lon="6.40183">
        <ele>1622.6</ele>
        <time>2024-08-12T04:25:38Z</time>
      </trkpt>
      <trkpt lat="44.83118" lon="6.40183">
        <ele>1622.6</ele>
        <time>2024-08-12T04:25:39Z</time>
      </trkpt>
      <trkpt lat="44.83118" lon="6.40183">
        <ele>1622.6</ele>
        <time>2024-08-12T04:25:40Z</time>
      </trkpt>
      <trkpt lat="44.83118" lon="6.40183">
        <ele>1622.6</ele>
        <time>2024-08-12T04:25:41Z</time>
      </trkpt>
      <trkpt lat="44.83118" lon="6.40183">
        <ele>1622.6</ele>
        <time>2024-08-12T04:25:42Z</time>
      </trkpt>
      <trkpt lat="44.83118" lon="6.40183">
        <ele>1622.4</ele>
        <time>2024-08-12T04:25:43Z</time>
      </trkpt>
      <trkpt lat="44.83118" lon="6.40183">
        <ele>1622.4</ele>
        <time>2024-08-12T04:25:44Z</time>
      </trkpt>
      <trkpt lat="44.83118" lon="6.40183">
        <ele>1622.6</ele>
        <time>2024-08-12T04:25:45Z</time>
      </trkpt>
      <trkpt lat="44.83118" lon="6.40183">
        <ele>1622.6</ele>
        <time>2024-08-12T04:25:46Z</time>
      </trkpt>
      <trkpt lat="44.83118" lon="6.40183">
        <ele>1622.4</ele>
        <time>2024-08-12T04:25:47Z</time>
      </trkpt>
      <trkpt lat="44.83118" lon="6.40183">
        <ele>1622.2</ele>
        <time>2024-08-12T04:25:48Z</time>
      </trkpt>
      <trkpt lat="44.83118" lon="6.40183">
        <ele>1622.2</ele>
        <time>2024-08-12T04:25:49Z</time>
      </trkpt>
      <trkpt lat="44.83118" lon="6.40183">
        <ele>1622.2</ele>
        <time>2024-08-12T04:25:50Z</time>
      </trkpt>
      <trkpt lat="44.83118" lon="6.40183">
        <ele>1622.2</ele>
        <time>2024-08-12T04:25:51Z</time>
      </trkpt>
      <trkpt lat="44.83118" lon="6.40183">
        <ele>1622.2</ele>
        <time>2024-08-12T04:25:52Z</time>
      </trkpt>
      <trkpt lat="44.83118" lon="6.40183">
        <ele>1622.2</ele>
        <time>2024-08-12T04:25:53Z</time>
      </trkpt>
      <trkpt lat="44.83118" lon="6.40183">
        <ele>1622.2</ele>
        <time>2024-08-12T04:25:54Z</time>
      </trkpt>
      <trkpt lat="44.83118" lon="6.40183">
        <ele>1622</ele>
        <time>2024-08-12T04:25:55Z</time>
      </trkpt>
      <trkpt lat="44.83118" lon="6.40183">
        <ele>1622</ele>
        <time>2024-08-12T04:25:56Z</time>
      </trkpt>
      <trkpt lat="44.83118" lon="6.40183">
        <ele>1622</ele>
        <time>2024-08-12T04:25:57Z</time>
      </trkpt>
      <trkpt lat="44.83118" lon="6.40183">
        <ele>1622.2</ele>
        <time>2024-08-12T04:25:58Z</time>
      </trkpt>
      <trkpt lat="44.83118" lon="6.40183">
        <ele>1622.2</ele>
        <time>2024-08-12T04:25:59Z</time>
      </trkpt>
      <trkpt lat="44.83118" lon="6.40183">
        <ele>1622</ele>
        <time>2024-08-12T04:26:00Z</time>
      </trkpt>
      <trkpt lat="44.83118" lon="6.40183">
        <ele>1622</ele>
        <time>2024-08-12T04:26:01Z</time>
      </trkpt>
      <trkpt lat="44.83118" lon="6.40183">
        <ele>1622.2</ele>
        <time>2024-08-12T04:26:02Z</time>
      </trkpt>
      <trkpt lat="44.83118" lon="6.40183">
        <ele>1622.2</ele>
        <time>2024-08-12T04:26:03Z</time>
      </trkpt>
      <trkpt lat="44.83118" lon="6.40183">
        <ele>1622.6</ele>
        <time>2024-08-12T04:26:04Z</time>
      </trkpt>
      <trkpt lat="44.83118" lon="6.40183">
        <ele>1622.8</ele>
        <time>2024-08-12T04:26:05Z</time>
      </trkpt>
      <trkpt lat="44.83118" lon="6.40183">
        <ele>1622.8</ele>
        <time>2024-08-12T04:26:06Z</time>
      </trkpt>
      <trkpt lat="44.83118" lon="6.40183">
        <ele>1622.8</ele>
        <time>2024-08-12T04:26:07Z</time>
      </trkpt>
      <trkpt lat="44.83118" lon="6.40183">
        <ele>1622.8</ele>
        <time>2024-08-12T04:26:08Z</time>
      </trkpt>
      <trkpt lat="44.83118" lon="6.40183">
        <ele>1622.8</ele>
        <time>2024-08-12T04:26:09Z</time>
      </trkpt>
      <trkpt lat="44.83118" lon="6.40183">
        <ele>1622.8</ele>
        <time>2024-08-12T04:26:10Z</time>
      </trkpt>
      <trkpt lat="44.83118" lon="6.40183">
        <ele>1622.8</ele>
        <time>2024-08-12T04:26:11Z</time>
      </trkpt>
      <trkpt lat="44.83118" lon="6.40183">
        <ele>1622.8</ele>
        <time>2024-08-12T04:26:12Z</time>
      </trkpt>
      <trkpt lat="44.83118" lon="6.40183">
        <ele>1622.6</ele>
        <time>2024-08-12T04:26:13Z</time>
      </trkpt>
      <trkpt lat="44.83118" lon="6.40183">
        <ele>1622.6</ele>
        <time>2024-08-12T04:26:14Z</time>
      </trkpt>
      <trkpt lat="44.83118" lon="6.40183">
        <ele>1622.8</ele>
        <time>2024-08-12T04:26:15Z</time>
      </trkpt>
      <trkpt lat="44.83118" lon="6.40183">
        <ele>1622.8</ele>
        <time>2024-08-12T04:26:16Z</time>
      </trkpt>
      <trkpt lat="44.83118" lon="6.40183">
        <ele>1622.8</ele>
        <time>2024-08-12T04:26:17Z</time>
      </trkpt>
      <trkpt lat="44.83118" lon="6.40183">
        <ele>1622.4</ele>
        <time>2024-08-12T04:26:18Z</time>
      </trkpt>
      <trkpt lat="44.83118" lon="6.40183">
        <ele>1622.4</ele>
        <time>2024-08-12T04:26:19Z</time>
      </trkpt>
      <trkpt lat="44.83118" lon="6.40183">
        <ele>1622.4</ele>
        <time>2024-08-12T04:26:20Z</time>
      </trkpt>
      <trkpt lat="44.83118" lon="6.40183">
        <ele>1622.4</ele>
        <time>2024-08-12T04:26:21Z</time>
      </trkpt>
      <trkpt lat="44.83118" lon="6.40183">
        <ele>1622.6</ele>
        <time>2024-08-12T04:26:22Z</time>
      </trkpt>
      <trkpt lat="44.83118" lon="6.40183">
        <ele>1622.6</ele>
        <time>2024-08-12T04:26:23Z</time>
      </trkpt>
      <trkpt lat="44.83118" lon="6.40183">
        <ele>1622.6</ele>
        <time>2024-08-12T04:26:24Z</time>
      </trkpt>
      <trkpt lat="44.83118" lon="6.40183">
        <ele>1622.6</ele>
        <time>2024-08-12T04:26:25Z</time>
      </trkpt>
      <trkpt lat="44.83118" lon="6.40183">
        <ele>1622.6</ele>
        <time>2024-08-12T04:26:26Z</time>
      </trkpt>
      <trkpt lat="44.83118" lon="6.40183">
        <ele>1622.4</ele>
        <time>2024-08-12T04:26:27Z</time>
      </trkpt>
      <trkpt lat="44.83118" lon="6.40183">
        <ele>1622.4</ele>
        <time>2024-08-12T04:26:28Z</time>
      </trkpt>
      <trkpt lat="44.83118" lon="6.40183">
        <ele>1622.4</ele>
        <time>2024-08-12T04:26:29Z</time>
      </trkpt>
      <trkpt lat="44.83118" lon="6.40183">
        <ele>1622.4</ele>
        <time>2024-08-12T04:26:30Z</time>
      </trkpt>
      <trkpt lat="44.83118" lon="6.40183">
        <ele>1622.6</ele>
        <time>2024-08-12T04:26:31Z</time>
      </trkpt>
      <trkpt lat="44.83118" lon="6.40183">
        <ele>1622.6</ele>
        <time>2024-08-12T04:26:32Z</time>
      </trkpt>
      <trkpt lat="44.83118" lon="6.40183">
        <ele>1622.6</ele>
        <time>2024-08-12T04:26:33Z</time>
      </trkpt>
      <trkpt lat="44.83118" lon="6.40183">
        <ele>1622.8</ele>
        <time>2024-08-12T04:26:34Z</time>
      </trkpt>
      <trkpt lat="44.83118" lon="6.40183">
        <ele>1623</ele>
        <time>2024-08-12T04:26:35Z</time>
      </trkpt>
      <trkpt lat="44.83118" lon="6.40183">
        <ele>1623</ele>
        <time>2024-08-12T04:26:36Z</time>
      </trkpt>
      <trkpt lat="44.83118" lon="6.40183">
        <ele>1623</ele>
        <time>2024-08-12T04:26:37Z</time>
      </trkpt>
      <trkpt lat="44.83118" lon="6.40183">
        <ele>1623</ele>
        <time>2024-08-12T04:26:38Z</time>
      </trkpt>
      <trkpt lat="44.83118" lon="6.40183">
        <ele>1623</ele>
        <time>2024-08-12T04:26:39Z</time>
      </trkpt>
      <trkpt lat="44.83118" lon="6.40183">
        <ele>1623</ele>
        <time>2024-08-12T04:26:40Z</time>
      </trkpt>
      <trkpt lat="44.83118" lon="6.40183">
        <ele>1622.8</ele>
        <time>2024-08-12T04:26:41Z</time>
      </trkpt>
      <trkpt lat="44.83118" lon="6.40183">
        <ele>1622.8</ele>
        <time>2024-08-12T04:26:42Z</time>
      </trkpt>
      <trkpt lat="44.83118" lon="6.40183">
        <ele>1622.8</ele>
        <time>2024-08-12T04:26:43Z</time>
      </trkpt>
      <trkpt lat="44.83118" lon="6.40183">
        <ele>1622.8</ele>
        <time>2024-08-12T04:26:44Z</time>
      </trkpt>
      <trkpt lat="44.83118" lon="6.40183">
        <ele>1622.8</ele>
        <time>2024-08-12T04:26:45Z</time>
      </trkpt>
      <trkpt lat="44.83118" lon="6.40183">
        <ele>1622.8</ele>
        <time>2024-08-12T04:26:46Z</time>
      </trkpt>
      <trkpt lat="44.83118" lon="6.40183">
        <ele>1622.8</ele>
        <time>2024-08-12T04:26:47Z</time>
      </trkpt>
      <trkpt lat="44.83118" lon="6.40183">
        <ele>1622.8</ele>
        <time>2024-08-12T04:26:48Z</time>
      </trkpt>
      <trkpt lat="44.83118" lon="6.40183">
        <ele>1622.8</ele>
        <time>2024-08-12T04:26:49Z</time>
      </trkpt>
      <trkpt lat="44.83118" lon="6.40183">
        <ele>1622.8</ele>
        <time>2024-08-12T04:26:50Z</time>
      </trkpt>
      <trkpt lat="44.83118" lon="6.40183">
        <ele>1622.8</ele>
        <time>2024-08-12T04:26:51Z</time>
      </trkpt>
      <trkpt lat="44.83118" lon="6.40183">
        <ele>1622.8</ele>
        <time>2024-08-12T04:26:52Z</time>
      </trkpt>
      <trkpt lat="44.83118" lon="6.40183">
        <ele>1622.8</ele>
        <time>2024-08-12T04:26:53Z</time>
      </trkpt>
      <trkpt lat="44.83118" lon="6.40183">
        <ele>1622.8</ele>
        <time>2024-08-12T04:26:54Z</time>
      </trkpt>
      <trkpt lat="44.83118" lon="6.40183">
        <ele>1622.8</ele>
        <time>2024-08-12T04:26:55Z</time>
      </trkpt>
      <trkpt lat="44.83118" lon="6.40183">
        <ele>1622.8</ele>
        <time>2024-08-12T04:26:56Z</time>
      </trkpt>
      <trkpt lat="44.83118" lon="6.40183">
        <ele>1622.6</ele>
        <time>2024-08-12T04:26:57Z</time>
      </trkpt>
      <trkpt lat="44.83118" lon="6.40183">
        <ele>1622.6</ele>
        <time>2024-08-12T04:26:58Z</time>
      </trkpt>
      <trkpt lat="44.83118" lon="6.40183">
        <ele>1622.4</ele>
        <time>2024-08-12T04:26:59Z</time>
      </trkpt>
      <trkpt lat="44.83118" lon="6.40183">
        <ele>1622.4</ele>
        <time>2024-08-12T04:27:00Z</time>
      </trkpt>
      <trkpt lat="44.83119" lon="6.40179">
        <ele>1622.8</ele>
        <time>2024-08-12T04:27:01Z</time>
      </trkpt>
      <trkpt lat="44.83119" lon="6.40179">
        <ele>1622.6</ele>
        <time>2024-08-12T04:27:02Z</time>
      </trkpt>
      <trkpt lat="44.8312" lon="6.40176">
        <ele>1622.6</ele>
        <time>2024-08-12T04:27:03Z</time>
      </trkpt>
      <trkpt lat="44.8312" lon="6.40176">
        <ele>1622.6</ele>
        <time>2024-08-12T04:27:04Z</time>
      </trkpt>
      <trkpt lat="44.8312" lon="6.40176">
        <ele>1622.8</ele>
        <time>2024-08-12T04:27:05Z</time>
      </trkpt>
      <trkpt lat="44.8312" lon="6.40176">
        <ele>1623</ele>
        <time>2024-08-12T04:27:06Z</time>
      </trkpt>
      <trkpt lat="44.8312" lon="6.40176">
        <ele>1623</ele>
        <time>2024-08-12T04:27:07Z</time>
      </trkpt>
      <trkpt lat="44.8312" lon="6.40176">
        <ele>1622.6</ele>
        <time>2024-08-12T04:27:08Z</time>
      </trkpt>
      <trkpt lat="44.8312" lon="6.40176">
        <ele>1622.6</ele>
        <time>2024-08-12T04:27:09Z</time>
      </trkpt>
      <trkpt lat="44.8312" lon="6.40176">
        <ele>1622.4</ele>
        <time>2024-08-12T04:27:10Z</time>
      </trkpt>
      <trkpt lat="44.8312" lon="6.40176">
        <ele>1622.2</ele>
        <time>2024-08-12T04:27:11Z</time>
      </trkpt>
      <trkpt lat="44.8312" lon="6.40176">
        <ele>1622.2</ele>
        <time>2024-08-12T04:27:12Z</time>
      </trkpt>
      <trkpt lat="44.8312" lon="6.40176">
        <ele>1622.2</ele>
        <time>2024-08-12T04:27:13Z</time>
      </trkpt>
      <trkpt lat="44.8312" lon="6.40176">
        <ele>1622.4</ele>
        <time>2024-08-12T04:27:14Z</time>
      </trkpt>
      <trkpt lat="44.8312" lon="6.40176">
        <ele>1622.4</ele>
        <time>2024-08-12T04:27:15Z</time>
      </trkpt>
      <trkpt lat="44.8312" lon="6.40176">
        <ele>1622.4</ele>
        <time>2024-08-12T04:27:16Z</time>
      </trkpt>
      <trkpt lat="44.83119" lon="6.40174">
        <ele>1622.2</ele>
        <time>2024-08-12T04:27:17Z</time>
      </trkpt>
      <trkpt lat="44.83119" lon="6.40174">
        <ele>1622.2</ele>
        <time>2024-08-12T04:27:18Z</time>
      </trkpt>
      <trkpt lat="44.83117" lon="6.40173">
        <ele>1621.8</ele>
        <time>2024-08-12T04:27:19Z</time>
      </trkpt>
      <trkpt lat="44.83117" lon="6.40173">
        <ele>1621.6</ele>
        <time>2024-08-12T04:27:20Z</time>
      </trkpt>
      <trkpt lat="44.83114" lon="6.40172">
        <ele>1621.4</ele>
        <time>2024-08-12T04:27:21Z</time>
      </trkpt>
      <trkpt lat="44.83114" lon="6.40172">
        <ele>1621.2</ele>
        <time>2024-08-12T04:27:22Z</time>
      </trkpt>
      <trkpt lat="44.83111" lon="6.40172">
        <ele>1621.2</ele>
        <time>2024-08-12T04:27:23Z</time>
      </trkpt>
      <trkpt lat="44.83111" lon="6.40172">
        <ele>1620.8</ele>
        <time>2024-08-12T04:27:24Z</time>
      </trkpt>
      <trkpt lat="44.83109" lon="6.4017">
        <ele>1620.4</ele>
        <time>2024-08-12T04:27:25Z</time>
      </trkpt>
      <trkpt lat="44.83109" lon="6.4017">
        <ele>1620.2</ele>
        <time>2024-08-12T04:27:26Z</time>
      </trkpt>
      <trkpt lat="44.83107" lon="6.40169">
        <ele>1620</ele>
        <time>2024-08-12T04:27:27Z</time>
      </trkpt>
      <trkpt lat="44.83107" lon="6.40169">
        <ele>1620</ele>
        <time>2024-08-12T04:27:28Z</time>
      </trkpt>
      <trkpt lat="44.83107" lon="6.40166">
        <ele>1619.8</ele>
        <time>2024-08-12T04:27:29Z</time>
      </trkpt>
      <trkpt lat="44.83107" lon="6.40166">
        <ele>1619.6</ele>
        <time>2024-08-12T04:27:30Z</time>
      </trkpt>
      <trkpt lat="44.83107" lon="6.40162">
        <ele>1619.4</ele>
        <time>2024-08-12T04:27:31Z</time>
      </trkpt>
      <trkpt lat="44.83107" lon="6.40162">
        <ele>1619.4</ele>
        <time>2024-08-12T04:27:32Z</time>
      </trkpt>
      <trkpt lat="44.83107" lon="6.40159">
        <ele>1619.2</ele>
        <time>2024-08-12T04:27:33Z</time>
      </trkpt>
      <trkpt lat="44.83107" lon="6.40159">
        <ele>1619</ele>
        <time>2024-08-12T04:27:34Z</time>
      </trkpt>
      <trkpt lat="44.83108" lon="6.40156">
        <ele>1618.8</ele>
        <time>2024-08-12T04:27:35Z</time>
      </trkpt>
      <trkpt lat="44.83108" lon="6.40156">
        <ele>1618.6</ele>
        <time>2024-08-12T04:27:36Z</time>
      </trkpt>
      <trkpt lat="44.83108" lon="6.40152">
        <ele>1618.4</ele>
        <time>2024-08-12T04:27:37Z</time>
      </trkpt>
      <trkpt lat="44.83108" lon="6.40152">
        <ele>1618</ele>
        <time>2024-08-12T04:27:38Z</time>
      </trkpt>
      <trkpt lat="44.83109" lon="6.40148">
        <ele>1618</ele>
        <time>2024-08-12T04:27:39Z</time>
      </trkpt>
      <trkpt lat="44.83109" lon="6.40148">
        <ele>1617.8</ele>
        <time>2024-08-12T04:27:40Z</time>
      </trkpt>
      <trkpt lat="44.83109" lon="6.40145">
        <ele>1617.8</ele>
        <time>2024-08-12T04:27:41Z</time>
      </trkpt>
      <trkpt lat="44.83109" lon="6.40145">
        <ele>1617.6</ele>
        <time>2024-08-12T04:27:42Z</time>
      </trkpt>
      <trkpt lat="44.8311" lon="6.40142">
        <ele>1617.2</ele>
        <time>2024-08-12T04:27:43Z</time>
      </trkpt>
      <trkpt lat="44.8311" lon="6.40142">
        <ele>1617.2</ele>
        <time>2024-08-12T04:27:44Z</time>
      </trkpt>
      <trkpt lat="44.8311" lon="6.40139">
        <ele>1617.2</ele>
        <time>2024-08-12T04:27:45Z</time>
      </trkpt>
      <trkpt lat="44.8311" lon="6.40139">
        <ele>1617.2</ele>
        <time>2024-08-12T04:27:46Z</time>
      </trkpt>
      <trkpt lat="44.83112" lon="6.40136">
        <ele>1617.2</ele>
        <time>2024-08-12T04:27:47Z</time>
      </trkpt>
      <trkpt lat="44.83112" lon="6.40136">
        <ele>1617</ele>
        <time>2024-08-12T04:27:48Z</time>
      </trkpt>
      <trkpt lat="44.83114" lon="6.40133">
        <ele>1616.8</ele>
        <time>2024-08-12T04:27:49Z</time>
      </trkpt>
      <trkpt lat="44.83114" lon="6.40133">
        <ele>1616.8</ele>
        <time>2024-08-12T04:27:50Z</time>
      </trkpt>
      <trkpt lat="44.83116" lon="6.40131">
        <ele>1616.6</ele>
        <time>2024-08-12T04:27:51Z</time>
      </trkpt>
      <trkpt lat="44.83116" lon="6.40131">
        <ele>1616.8</ele>
        <time>2024-08-12T04:27:52Z</time>
      </trkpt>
      <trkpt lat="44.83116" lon="6.40131">
        <ele>1616.8</ele>
        <time>2024-08-12T04:27:53Z</time>
      </trkpt>
      <trkpt lat="44.83116" lon="6.40128">
        <ele>1617.2</ele>
        <time>2024-08-12T04:27:54Z</time>
      </trkpt>
      <trkpt lat="44.83116" lon="6.40128">
        <ele>1617.2</ele>
        <time>2024-08-12T04:27:55Z</time>
      </trkpt>
      <trkpt lat="44.83116" lon="6.40124">
        <ele>1617.2</ele>
        <time>2024-08-12T04:27:56Z</time>
      </trkpt>
      <trkpt lat="44.83116" lon="6.40124">
        <ele>1617.4</ele>
        <time>2024-08-12T04:27:57Z</time>
      </trkpt>
      <trkpt lat="44.83117" lon="6.40121">
        <ele>1617.6</ele>
        <time>2024-08-12T04:27:58Z</time>
      </trkpt>
      <trkpt lat="44.83117" lon="6.40121">
        <ele>1617.6</ele>
        <time>2024-08-12T04:27:59Z</time>
      </trkpt>
      <trkpt lat="44.83116" lon="6.40118">
        <ele>1617.2</ele>
        <time>2024-08-12T04:28:00Z</time>
      </trkpt>
      <trkpt lat="44.83116" lon="6.40118">
        <ele>1617.2</ele>
        <time>2024-08-12T04:28:01Z</time>
      </trkpt>
      <trkpt lat="44.83116" lon="6.40115">
        <ele>1617.2</ele>
        <time>2024-08-12T04:28:02Z</time>
      </trkpt>
      <trkpt lat="44.83116" lon="6.40115">
        <ele>1617.2</ele>
        <time>2024-08-12T04:28:03Z</time>
      </trkpt>
      <trkpt lat="44.83115" lon="6.40112">
        <ele>1616.8</ele>
        <time>2024-08-12T04:28:04Z</time>
      </trkpt>
      <trkpt lat="44.83115" lon="6.40112">
        <ele>1616.8</ele>
        <time>2024-08-12T04:28:05Z</time>
      </trkpt>
      <trkpt lat="44.83114" lon="6.40109">
        <ele>1616.6</ele>
        <time>2024-08-12T04:28:06Z</time>
      </trkpt>
      <trkpt lat="44.83114" lon="6.40109">
        <ele>1616.4</ele>
        <time>2024-08-12T04:28:07Z</time>
      </trkpt>
      <trkpt lat="44.83112" lon="6.40106">
        <ele>1616.4</ele>
        <time>2024-08-12T04:28:08Z</time>
      </trkpt>
      <trkpt lat="44.83112" lon="6.40106">
        <ele>1616.4</ele>
        <time>2024-08-12T04:28:09Z</time>
      </trkpt>
      <trkpt lat="44.83111" lon="6.40103">
        <ele>1616.4</ele>
        <time>2024-08-12T04:28:10Z</time>
      </trkpt>
      <trkpt lat="44.83111" lon="6.40103">
        <ele>1616</ele>
        <time>2024-08-12T04:28:11Z</time>
      </trkpt>
      <trkpt lat="44.8311" lon="6.401">
        <ele>1616</ele>
        <time>2024-08-12T04:28:12Z</time>
      </trkpt>
      <trkpt lat="44.8311" lon="6.401">
        <ele>1616</ele>
        <time>2024-08-12T04:28:13Z</time>
      </trkpt>
      <trkpt lat="44.8311" lon="6.40096">
        <ele>1616</ele>
        <time>2024-08-12T04:28:14Z</time>
      </trkpt>
      <trkpt lat="44.8311" lon="6.40096">
        <ele>1616</ele>
        <time>2024-08-12T04:28:15Z</time>
      </trkpt>
      <trkpt lat="44.8311" lon="6.40092">
        <ele>1616</ele>
        <time>2024-08-12T04:28:16Z</time>
      </trkpt>
      <trkpt lat="44.8311" lon="6.40092">
        <ele>1616</ele>
        <time>2024-08-12T04:28:17Z</time>
      </trkpt>
      <trkpt lat="44.83109" lon="6.40089">
        <ele>1616</ele>
        <time>2024-08-12T04:28:18Z</time>
      </trkpt>
      <trkpt lat="44.83109" lon="6.40089">
        <ele>1616</ele>
        <time>2024-08-12T04:28:19Z</time>
      </trkpt>
      <trkpt lat="44.83108" lon="6.40086">
        <ele>1616</ele>
        <time>2024-08-12T04:28:20Z</time>
      </trkpt>
      <trkpt lat="44.83108" lon="6.40086">
        <ele>1616.2</ele>
        <time>2024-08-12T04:28:21Z</time>
      </trkpt>
      <trkpt lat="44.83108" lon="6.40084">
        <ele>1616.2</ele>
        <time>2024-08-12T04:28:22Z</time>
      </trkpt>
      <trkpt lat="44.83108" lon="6.40084">
        <ele>1616.6</ele>
        <time>2024-08-12T04:28:23Z</time>
      </trkpt>
      <trkpt lat="44.83107" lon="6.40081">
        <ele>1616.8</ele>
        <time>2024-08-12T04:28:24Z</time>
      </trkpt>
      <trkpt lat="44.83107" lon="6.40081">
        <ele>1616.8</ele>
        <time>2024-08-12T04:28:25Z</time>
      </trkpt>
      <trkpt lat="44.83107" lon="6.40077">
        <ele>1617</ele>
        <time>2024-08-12T04:28:26Z</time>
      </trkpt>
      <trkpt lat="44.83107" lon="6.40077">
        <ele>1617</ele>
        <time>2024-08-12T04:28:27Z</time>
      </trkpt>
      <trkpt lat="44.83108" lon="6.40073">
        <ele>1616.8</ele>
        <time>2024-08-12T04:28:28Z</time>
      </trkpt>
      <trkpt lat="44.83108" lon="6.40073">
        <ele>1616.8</ele>
        <time>2024-08-12T04:28:29Z</time>
      </trkpt>
      <trkpt lat="44.83108" lon="6.40069">
        <ele>1616.6</ele>
        <time>2024-08-12T04:28:30Z</time>
      </trkpt>
      <trkpt lat="44.83108" lon="6.40069">
        <ele>1616.4</ele>
        <time>2024-08-12T04:28:31Z</time>
      </trkpt>
      <trkpt lat="44.83109" lon="6.40065">
        <ele>1616.2</ele>
        <time>2024-08-12T04:28:32Z</time>
      </trkpt>
      <trkpt lat="44.83109" lon="6.40065">
        <ele>1616</ele>
        <time>2024-08-12T04:28:33Z</time>
      </trkpt>
      <trkpt lat="44.8311" lon="6.40061">
        <ele>1615.8</ele>
        <time>2024-08-12T04:28:34Z</time>
      </trkpt>
      <trkpt lat="44.8311" lon="6.40061">
        <ele>1615.6</ele>
        <time>2024-08-12T04:28:35Z</time>
      </trkpt>
      <trkpt lat="44.83111" lon="6.40058">
        <ele>1615.6</ele>
        <time>2024-08-12T04:28:36Z</time>
      </trkpt>
      <trkpt lat="44.83111" lon="6.40058">
        <ele>1615.8</ele>
        <time>2024-08-12T04:28:37Z</time>
      </trkpt>
      <trkpt lat="44.83112" lon="6.40054">
        <ele>1616</ele>
        <time>2024-08-12T04:28:38Z</time>
      </trkpt>
      <trkpt lat="44.83112" lon="6.40054">
        <ele>1616</ele>
        <time>2024-08-12T04:28:39Z</time>
      </trkpt>
      <trkpt lat="44.83112" lon="6.40051">
        <ele>1616</ele>
        <time>2024-08-12T04:28:40Z</time>
      </trkpt>
      <trkpt lat="44.83112" lon="6.40051">
        <ele>1616</ele>
        <time>2024-08-12T04:28:41Z</time>
      </trkpt>
      <trkpt lat="44.83112" lon="6.40049">
        <ele>1616</ele>
        <time>2024-08-12T04:28:42Z</time>
      </trkpt>
      <trkpt lat="44.83112" lon="6.40049">
        <ele>1616</ele>
        <time>2024-08-12T04:28:43Z</time>
      </trkpt>
      <trkpt lat="44.83112" lon="6.40046">
        <ele>1616.2</ele>
        <time>2024-08-12T04:28:44Z</time>
      </trkpt>
      <trkpt lat="44.83112" lon="6.40046">
        <ele>1616.4</ele>
        <time>2024-08-12T04:28:45Z</time>
      </trkpt>
      <trkpt lat="44.83111" lon="6.40042">
        <ele>1616.6</ele>
        <time>2024-08-12T04:28:46Z</time>
      </trkpt>
      <trkpt lat="44.83111" lon="6.40042">
        <ele>1616.8</ele>
        <time>2024-08-12T04:28:47Z</time>
      </trkpt>
      <trkpt lat="44.83111" lon="6.40039">
        <ele>1617</ele>
        <time>2024-08-12T04:28:48Z</time>
      </trkpt>
      <trkpt lat="44.83111" lon="6.40039">
        <ele>1617</ele>
        <time>2024-08-12T04:28:49Z</time>
      </trkpt>
      <trkpt lat="44.83111" lon="6.40035">
        <ele>1617.2</ele>
        <time>2024-08-12T04:28:50Z</time>
      </trkpt>
      <trkpt lat="44.83111" lon="6.40035">
        <ele>1617.4</ele>
        <time>2024-08-12T04:28:51Z</time>
      </trkpt>
      <trkpt lat="44.83112" lon="6.40032">
        <ele>1617.4</ele>
        <time>2024-08-12T04:28:52Z</time>
      </trkpt>
      <trkpt lat="44.83112" lon="6.40032">
        <ele>1617.4</ele>
        <time>2024-08-12T04:28:53Z</time>
      </trkpt>
      <trkpt lat="44.83114" lon="6.40029">
        <ele>1617.4</ele>
        <time>2024-08-12T04:28:54Z</time>
      </trkpt>
      <trkpt lat="44.83114" lon="6.40029">
        <ele>1617.4</ele>
        <time>2024-08-12T04:28:55Z</time>
      </trkpt>
      <trkpt lat="44.83115" lon="6.40025">
        <ele>1617.4</ele>
        <time>2024-08-12T04:28:56Z</time>
      </trkpt>
      <trkpt lat="44.83115" lon="6.40025">
        <ele>1617.4</ele>
        <time>2024-08-12T04:28:57Z</time>
      </trkpt>
      <trkpt lat="44.83117" lon="6.40022">
        <ele>1617.4</ele>
        <time>2024-08-12T04:28:58Z</time>
      </trkpt>
      <trkpt lat="44.83117" lon="6.40022">
        <ele>1617.4</ele>
        <time>2024-08-12T04:28:59Z</time>
      </trkpt>
      <trkpt lat="44.83118" lon="6.40019">
        <ele>1617.4</ele>
        <time>2024-08-12T04:29:00Z</time>
      </trkpt>
      <trkpt lat="44.83118" lon="6.40019">
        <ele>1617.2</ele>
        <time>2024-08-12T04:29:01Z</time>
      </trkpt>
      <trkpt lat="44.8312" lon="6.40015">
        <ele>1617.2</ele>
        <time>2024-08-12T04:29:02Z</time>
      </trkpt>
      <trkpt lat="44.8312" lon="6.40015">
        <ele>1617.2</ele>
        <time>2024-08-12T04:29:03Z</time>
      </trkpt>
      <trkpt lat="44.83121" lon="6.40013">
        <ele>1617.2</ele>
        <time>2024-08-12T04:29:04Z</time>
      </trkpt>
      <trkpt lat="44.83121" lon="6.40013">
        <ele>1617</ele>
        <time>2024-08-12T04:29:05Z</time>
      </trkpt>
      <trkpt lat="44.83123" lon="6.40009">
        <ele>1617</ele>
        <time>2024-08-12T04:29:06Z</time>
      </trkpt>
      <trkpt lat="44.83123" lon="6.40009">
        <ele>1617</ele>
        <time>2024-08-12T04:29:07Z</time>
      </trkpt>
      <trkpt lat="44.83123" lon="6.40007">
        <ele>1617</ele>
        <time>2024-08-12T04:29:08Z</time>
      </trkpt>
      <trkpt lat="44.83123" lon="6.40007">
        <ele>1617</ele>
        <time>2024-08-12T04:29:09Z</time>
      </trkpt>
      <trkpt lat="44.83123" lon="6.40007">
        <ele>1617</ele>
        <time>2024-08-12T04:29:10Z</time>
      </trkpt>
      <trkpt lat="44.83123" lon="6.40003">
        <ele>1617</ele>
        <time>2024-08-12T04:29:11Z</time>
      </trkpt>
      <trkpt lat="44.83123" lon="6.40003">
        <ele>1617</ele>
        <time>2024-08-12T04:29:12Z</time>
      </trkpt>
      <trkpt lat="44.83123" lon="6.4">
        <ele>1617</ele>
        <time>2024-08-12T04:29:13Z</time>
      </trkpt>
      <trkpt lat="44.83123" lon="6.4">
        <ele>1617</ele>
        <time>2024-08-12T04:29:14Z</time>
      </trkpt>
      <trkpt lat="44.83123" lon="6.4">
        <ele>1617</ele>
        <time>2024-08-12T04:29:15Z</time>
      </trkpt>
      <trkpt lat="44.83123" lon="6.4">
        <ele>1617</ele>
        <time>2024-08-12T04:29:16Z</time>
      </trkpt>
      <trkpt lat="44.83123" lon="6.4">
        <ele>1617</ele>
        <time>2024-08-12T04:29:17Z</time>
      </trkpt>
      <trkpt lat="44.83123" lon="6.4">
        <ele>1616.8</ele>
        <time>2024-08-12T04:29:18Z</time>
      </trkpt>
      <trkpt lat="44.83123" lon="6.4">
        <ele>1616.8</ele>
        <time>2024-08-12T04:29:19Z</time>
      </trkpt>
      <trkpt lat="44.83123" lon="6.4">
        <ele>1617</ele>
        <time>2024-08-12T04:29:20Z</time>
      </trkpt>
      <trkpt lat="44.83123" lon="6.4">
        <ele>1617</ele>
        <time>2024-08-12T04:29:21Z</time>
      </trkpt>
      <trkpt lat="44.83123" lon="6.4">
        <ele>1617</ele>
        <time>2024-08-12T04:29:22Z</time>
      </trkpt>
      <trkpt lat="44.83123" lon="6.4">
        <ele>1617</ele>
        <time>2024-08-12T04:29:23Z</time>
      </trkpt>
      <trkpt lat="44.83123" lon="6.4">
        <ele>1617</ele>
        <time>2024-08-12T04:29:24Z</time>
      </trkpt>
      <trkpt lat="44.83123" lon="6.4">
        <ele>1617</ele>
        <time>2024-08-12T04:29:25Z</time>
      </trkpt>
      <trkpt lat="44.83123" lon="6.4">
        <ele>1617.2</ele>
        <time>2024-08-12T04:29:26Z</time>
      </trkpt>
      <trkpt lat="44.83123" lon="6.4">
        <ele>1617.2</ele>
        <time>2024-08-12T04:29:27Z</time>
      </trkpt>
      <trkpt lat="44.83123" lon="6.4">
        <ele>1617.2</ele>
        <time>2024-08-12T04:29:28Z</time>
      </trkpt>
      <trkpt lat="44.83123" lon="6.4">
        <ele>1617.2</ele>
        <time>2024-08-12T04:29:29Z</time>
      </trkpt>
      <trkpt lat="44.83123" lon="6.4">
        <ele>1617.2</ele>
        <time>2024-08-12T04:29:30Z</time>
      </trkpt>
      <trkpt lat="44.83123" lon="6.4">
        <ele>1617.2</ele>
        <time>2024-08-12T04:29:31Z</time>
      </trkpt>
      <trkpt lat="44.83123" lon="6.4">
        <ele>1617.2</ele>
        <time>2024-08-12T04:29:32Z</time>
      </trkpt>
      <trkpt lat="44.83123" lon="6.4">
        <ele>1617</ele>
        <time>2024-08-12T04:29:33Z</time>
      </trkpt>
      <trkpt lat="44.83123" lon="6.4">
        <ele>1617</ele>
        <time>2024-08-12T04:29:34Z</time>
      </trkpt>
      <trkpt lat="44.83123" lon="6.4">
        <ele>1617</ele>
        <time>2024-08-12T04:29:35Z</time>
      </trkpt>
      <trkpt lat="44.83123" lon="6.4">
        <ele>1617</ele>
        <time>2024-08-12T04:29:36Z</time>
      </trkpt>
      <trkpt lat="44.83123" lon="6.4">
        <ele>1617</ele>
        <time>2024-08-12T04:29:37Z</time>
      </trkpt>
      <trkpt lat="44.83123" lon="6.4">
        <ele>1617</ele>
        <time>2024-08-12T04:29:38Z</time>
      </trkpt>
      <trkpt lat="44.83123" lon="6.4">
        <ele>1617</ele>
        <time>2024-08-12T04:29:39Z</time>
      </trkpt>
      <trkpt lat="44.83123" lon="6.4">
        <ele>1617</ele>
        <time>2024-08-12T04:29:40Z</time>
      </trkpt>
      <trkpt lat="44.83123" lon="6.4">
        <ele>1617</ele>
        <time>2024-08-12T04:29:41Z</time>
      </trkpt>
      <trkpt lat="44.83123" lon="6.4">
        <ele>1617</ele>
        <time>2024-08-12T04:29:42Z</time>
      </trkpt>
      <trkpt lat="44.83123" lon="6.4">
        <ele>1617</ele>
        <time>2024-08-12T04:29:43Z</time>
      </trkpt>
      <trkpt lat="44.83123" lon="6.4">
        <ele>1617</ele>
        <time>2024-08-12T04:29:44Z</time>
      </trkpt>
      <trkpt lat="44.83123" lon="6.4">
        <ele>1617</ele>
        <time>2024-08-12T04:29:45Z</time>
      </trkpt>
      <trkpt lat="44.83123" lon="6.4">
        <ele>1617</ele>
        <time>2024-08-12T04:29:46Z</time>
      </trkpt>
      <trkpt lat="44.83123" lon="6.4">
        <ele>1617</ele>
        <time>2024-08-12T04:29:47Z</time>
      </trkpt>
      <trkpt lat="44.83123" lon="6.4">
        <ele>1617</ele>
        <time>2024-08-12T04:29:48Z</time>
      </trkpt>
      <trkpt lat="44.83123" lon="6.4">
        <ele>1617</ele>
        <time>2024-08-12T04:29:49Z</time>
      </trkpt>
      <trkpt lat="44.83123" lon="6.4">
        <ele>1617</ele>
        <time>2024-08-12T04:29:50Z</time>
      </trkpt>
      <trkpt lat="44.83123" lon="6.4">
        <ele>1617</ele>
        <time>2024-08-12T04:29:51Z</time>
      </trkpt>
      <trkpt lat="44.83123" lon="6.4">
        <ele>1617</ele>
        <time>2024-08-12T04:29:52Z</time>
      </trkpt>
      <trkpt lat="44.83123" lon="6.4">
        <ele>1617</ele>
        <time>2024-08-12T04:29:53Z</time>
      </trkpt>
      <trkpt lat="44.83123" lon="6.4">
        <ele>1617</ele>
        <time>2024-08-12T04:29:54Z</time>
      </trkpt>
      <trkpt lat="44.83123" lon="6.4">
        <ele>1617</ele>
        <time>2024-08-12T04:29:55Z</time>
      </trkpt>
      <trkpt lat="44.83123" lon="6.4">
        <ele>1617</ele>
        <time>2024-08-12T04:29:56Z</time>
      </trkpt>
      <trkpt lat="44.83123" lon="6.4">
        <ele>1617</ele>
        <time>2024-08-12T04:29:57Z</time>
      </trkpt>
      <trkpt lat="44.83123" lon="6.4">
        <ele>1617</ele>
        <time>2024-08-12T04:29:58Z</time>
      </trkpt>
      <trkpt lat="44.83123" lon="6.4">
        <ele>1617</ele>
        <time>2024-08-12T04:29:59Z</time>
      </trkpt>
      <trkpt lat="44.83123" lon="6.4">
        <ele>1617</ele>
        <time>2024-08-12T04:30:00Z</time>
      </trkpt>
      <trkpt lat="44.83123" lon="6.4">
        <ele>1617</ele>
        <time>2024-08-12T04:30:01Z</time>
      </trkpt>
      <trkpt lat="44.83123" lon="6.4">
        <ele>1617.4</ele>
        <time>2024-08-12T04:30:02Z</time>
      </trkpt>
      <trkpt lat="44.83124" lon="6.40003">
        <ele>1617.4</ele>
        <time>2024-08-12T04:30:03Z</time>
      </trkpt>
      <trkpt lat="44.83124" lon="6.40003">
        <ele>1617.4</ele>
        <time>2024-08-12T04:30:04Z</time>
      </trkpt>
      <trkpt lat="44.83124" lon="6.40007">
        <ele>1617.2</ele>
        <time>2024-08-12T04:30:05Z</time>
      </trkpt>
      <trkpt lat="44.83124" lon="6.40007">
        <ele>1617.2</ele>
        <time>2024-08-12T04:30:06Z</time>
      </trkpt>
      <trkpt lat="44.83123" lon="6.40012">
        <ele>1617.2</ele>
        <time>2024-08-12T04:30:07Z</time>
      </trkpt>
      <trkpt lat="44.83123" lon="6.40012">
        <ele>1617.2</ele>
        <time>2024-08-12T04:30:08Z</time>
      </trkpt>
      <trkpt lat="44.83122" lon="6.40015">
        <ele>1617</ele>
        <time>2024-08-12T04:30:09Z</time>
      </trkpt>
      <trkpt lat="44.8312" lon="6.40017">
        <ele>1616.8</ele>
        <time>2024-08-12T04:30:10Z</time>
      </trkpt>
      <trkpt lat="44.8312" lon="6.40017">
        <ele>1616.8</ele>
        <time>2024-08-12T04:30:11Z</time>
      </trkpt>
      <trkpt lat="44.83119" lon="6.40021">
        <ele>1617</ele>
        <time>2024-08-12T04:30:12Z</time>
      </trkpt>
      <trkpt lat="44.83119" lon="6.40021">
        <ele>1617.2</ele>
        <time>2024-08-12T04:30:13Z</time>
      </trkpt>
      <trkpt lat="44.83118" lon="6.40025">
        <ele>1617.2</ele>
        <time>2024-08-12T04:30:14Z</time>
      </trkpt>
      <trkpt lat="44.83118" lon="6.40025">
        <ele>1617.2</ele>
        <time>2024-08-12T04:30:15Z</time>
      </trkpt>
      <trkpt lat="44.83117" lon="6.40028">
        <ele>1617.2</ele>
        <time>2024-08-12T04:30:16Z</time>
      </trkpt>
      <trkpt lat="44.83117" lon="6.40028">
        <ele>1617.4</ele>
        <time>2024-08-12T04:30:17Z</time>
      </trkpt>
      <trkpt lat="44.83116" lon="6.40031">
        <ele>1617.4</ele>
        <time>2024-08-12T04:30:18Z</time>
      </trkpt>
      <trkpt lat="44.83116" lon="6.40031">
        <ele>1617.6</ele>
        <time>2024-08-12T04:30:19Z</time>
      </trkpt>
      <trkpt lat="44.83115" lon="6.40034">
        <ele>1617.8</ele>
        <time>2024-08-12T04:30:20Z</time>
      </trkpt>
      <trkpt lat="44.83115" lon="6.40034">
        <ele>1617.8</ele>
        <time>2024-08-12T04:30:21Z</time>
      </trkpt>
      <trkpt lat="44.83114" lon="6.40037">
        <ele>1617.8</ele>
        <time>2024-08-12T04:30:22Z</time>
      </trkpt>
      <trkpt lat="44.83114" lon="6.40037">
        <ele>1617.6</ele>
        <time>2024-08-12T04:30:23Z</time>
      </trkpt>
      <trkpt lat="44.83114" lon="6.4004">
        <ele>1617.6</ele>
        <time>2024-08-12T04:30:24Z</time>
      </trkpt>
      <trkpt lat="44.83114" lon="6.4004">
        <ele>1617.6</ele>
        <time>2024-08-12T04:30:25Z</time>
      </trkpt>
      <trkpt lat="44.83113" lon="6.40044">
        <ele>1617.4</ele>
        <time>2024-08-12T04:30:26Z</time>
      </trkpt>
      <trkpt lat="44.83113" lon="6.40044">
        <ele>1617.4</ele>
        <time>2024-08-12T04:30:27Z</time>
      </trkpt>
      <trkpt lat="44.83113" lon="6.40047">
        <ele>1617</ele>
        <time>2024-08-12T04:30:28Z</time>
      </trkpt>
      <trkpt lat="44.83113" lon="6.40047">
        <ele>1617</ele>
        <time>2024-08-12T04:30:29Z</time>
      </trkpt>
      <trkpt lat="44.83113" lon="6.40051">
        <ele>1617</ele>
        <time>2024-08-12T04:30:30Z</time>
      </trkpt>
      <trkpt lat="44.83113" lon="6.40051">
        <ele>1616.8</ele>
        <time>2024-08-12T04:30:31Z</time>
      </trkpt>
      <trkpt lat="44.83113" lon="6.40054">
        <ele>1616.4</ele>
        <time>2024-08-12T04:30:32Z</time>
      </trkpt>
      <trkpt lat="44.83113" lon="6.40054">
        <ele>1616.2</ele>
        <time>2024-08-12T04:30:33Z</time>
      </trkpt>
      <trkpt lat="44.83113" lon="6.40057">
        <ele>1616.2</ele>
        <time>2024-08-12T04:30:34Z</time>
      </trkpt>
      <trkpt lat="44.83113" lon="6.40057">
        <ele>1616.2</ele>
        <time>2024-08-12T04:30:35Z</time>
      </trkpt>
      <trkpt lat="44.83112" lon="6.40061">
        <ele>1616.2</ele>
        <time>2024-08-12T04:30:36Z</time>
      </trkpt>
      <trkpt lat="44.83112" lon="6.40061">
        <ele>1616.2</ele>
        <time>2024-08-12T04:30:37Z</time>
      </trkpt>
      <trkpt lat="44.83112" lon="6.40066">
        <ele>1616.2</ele>
        <time>2024-08-12T04:30:38Z</time>
      </trkpt>
      <trkpt lat="44.83112" lon="6.40066">
        <ele>1616</ele>
        <time>2024-08-12T04:30:39Z</time>
      </trkpt>
      <trkpt lat="44.83111" lon="6.4007">
        <ele>1616</ele>
        <time>2024-08-12T04:30:40Z</time>
      </trkpt>
      <trkpt lat="44.83111" lon="6.4007">
        <ele>1616</ele>
        <time>2024-08-12T04:30:41Z</time>
      </trkpt>
      <trkpt lat="44.8311" lon="6.40073">
        <ele>1615.8</ele>
        <time>2024-08-12T04:30:42Z</time>
      </trkpt>
      <trkpt lat="44.8311" lon="6.40073">
        <ele>1615.8</ele>
        <time>2024-08-12T04:30:43Z</time>
      </trkpt>
      <trkpt lat="44.8311" lon="6.40077">
        <ele>1616</ele>
        <time>2024-08-12T04:30:44Z</time>
      </trkpt>
      <trkpt lat="44.8311" lon="6.40077">
        <ele>1616.2</ele>
        <time>2024-08-12T04:30:45Z</time>
      </trkpt>
      <trkpt lat="44.8311" lon="6.40081">
        <ele>1616.4</ele>
        <time>2024-08-12T04:30:46Z</time>
      </trkpt>
      <trkpt lat="44.8311" lon="6.40081">
        <ele>1616.6</ele>
        <time>2024-08-12T04:30:47Z</time>
      </trkpt>
      <trkpt lat="44.83109" lon="6.40084">
        <ele>1616.6</ele>
        <time>2024-08-12T04:30:48Z</time>
      </trkpt>
      <trkpt lat="44.83109" lon="6.40084">
        <ele>1616.8</ele>
        <time>2024-08-12T04:30:49Z</time>
      </trkpt>
      <trkpt lat="44.8311" lon="6.40087">
        <ele>1616.8</ele>
        <time>2024-08-12T04:30:50Z</time>
      </trkpt>
      <trkpt lat="44.8311" lon="6.40087">
        <ele>1617</ele>
        <time>2024-08-12T04:30:51Z</time>
      </trkpt>
      <trkpt lat="44.8311" lon="6.4009">
        <ele>1617</ele>
        <time>2024-08-12T04:30:52Z</time>
      </trkpt>
      <trkpt lat="44.8311" lon="6.4009">
        <ele>1617</ele>
        <time>2024-08-12T04:30:53Z</time>
      </trkpt>
      <trkpt lat="44.8311" lon="6.40094">
        <ele>1616.8</ele>
        <time>2024-08-12T04:30:54Z</time>
      </trkpt>
      <trkpt lat="44.8311" lon="6.40094">
        <ele>1616.4</ele>
        <time>2024-08-12T04:30:55Z</time>
      </trkpt>
      <trkpt lat="44.8311" lon="6.40099">
        <ele>1616.4</ele>
        <time>2024-08-12T04:30:56Z</time>
      </trkpt>
      <trkpt lat="44.8311" lon="6.40099">
        <ele>1616.4</ele>
        <time>2024-08-12T04:30:57Z</time>
      </trkpt>
      <trkpt lat="44.83111" lon="6.40102">
        <ele>1616.4</ele>
        <time>2024-08-12T04:30:58Z</time>
      </trkpt>
      <trkpt lat="44.83111" lon="6.40102">
        <ele>1616.4</ele>
        <time>2024-08-12T04:30:59Z</time>
      </trkpt>
      <trkpt lat="44.83113" lon="6.40106">
        <ele>1616.4</ele>
        <time>2024-08-12T04:31:00Z</time>
      </trkpt>
      <trkpt lat="44.83113" lon="6.40106">
        <ele>1616.4</ele>
        <time>2024-08-12T04:31:01Z</time>
      </trkpt>
      <trkpt lat="44.83115" lon="6.40109">
        <ele>1616.6</ele>
        <time>2024-08-12T04:31:02Z</time>
      </trkpt>
      <trkpt lat="44.83115" lon="6.40109">
        <ele>1616.6</ele>
        <time>2024-08-12T04:31:03Z</time>
      </trkpt>
      <trkpt lat="44.83116" lon="6.40111">
        <ele>1616.6</ele>
        <time>2024-08-12T04:31:04Z</time>
      </trkpt>
      <trkpt lat="44.83116" lon="6.40111">
        <ele>1616.8</ele>
        <time>2024-08-12T04:31:05Z</time>
      </trkpt>
      <trkpt lat="44.83117" lon="6.40114">
        <ele>1616.8</ele>
        <time>2024-08-12T04:31:06Z</time>
      </trkpt>
      <trkpt lat="44.83117" lon="6.40114">
        <ele>1616.8</ele>
        <time>2024-08-12T04:31:07Z</time>
      </trkpt>
      <trkpt lat="44.83118" lon="6.40117">
        <ele>1617</ele>
        <time>2024-08-12T04:31:08Z</time>
      </trkpt>
      <trkpt lat="44.83118" lon="6.40117">
        <ele>1617.2</ele>
        <time>2024-08-12T04:31:09Z</time>
      </trkpt>
      <trkpt lat="44.83118" lon="6.4012">
        <ele>1617.4</ele>
        <time>2024-08-12T04:31:10Z</time>
      </trkpt>
      <trkpt lat="44.83118" lon="6.4012">
        <ele>1617.4</ele>
        <time>2024-08-12T04:31:11Z</time>
      </trkpt>
      <trkpt lat="44.83118" lon="6.4012">
        <ele>1617.6</ele>
        <time>2024-08-12T04:31:12Z</time>
      </trkpt>
      <trkpt lat="44.83119" lon="6.40123">
        <ele>1617.8</ele>
        <time>2024-08-12T04:31:13Z</time>
      </trkpt>
      <trkpt lat="44.83119" lon="6.40123">
        <ele>1618</ele>
        <time>2024-08-12T04:31:14Z</time>
      </trkpt>
      <trkpt lat="44.83119" lon="6.40126">
        <ele>1618</ele>
        <time>2024-08-12T04:31:15Z</time>
      </trkpt>
      <trkpt lat="44.83119" lon="6.40126">
        <ele>1618</ele>
        <time>2024-08-12T04:31:16Z</time>
      </trkpt>
      <trkpt lat="44.83118" lon="6.40129">
        <ele>1618</ele>
        <time>2024-08-12T04:31:17Z</time>
      </trkpt>
      <trkpt lat="44.83118" lon="6.40129">
        <ele>1618.2</ele>
        <time>2024-08-12T04:31:18Z</time>
      </trkpt>
      <trkpt lat="44.83117" lon="6.40131">
        <ele>1618.4</ele>
        <time>2024-08-12T04:31:19Z</time>
      </trkpt>
      <trkpt lat="44.83117" lon="6.40131">
        <ele>1618.4</ele>
        <time>2024-08-12T04:31:20Z</time>
      </trkpt>
      <trkpt lat="44.83116" lon="6.40134">
        <ele>1618.4</ele>
        <time>2024-08-12T04:31:21Z</time>
      </trkpt>
      <trkpt lat="44.83116" lon="6.40134">
        <ele>1618.2</ele>
        <time>2024-08-12T04:31:22Z</time>
      </trkpt>
      <trkpt lat="44.83114" lon="6.40136">
        <ele>1618</ele>
        <time>2024-08-12T04:31:23Z</time>
      </trkpt>
      <trkpt lat="44.83114" lon="6.40136">
        <ele>1618</ele>
        <time>2024-08-12T04:31:24Z</time>
      </trkpt>
      <trkpt lat="44.83112" lon="6.40139">
        <ele>1617.8</ele>
        <time>2024-08-12T04:31:25Z</time>
      </trkpt>
      <trkpt lat="44.83112" lon="6.40139">
        <ele>1617.6</ele>
        <time>2024-08-12T04:31:26Z</time>
      </trkpt>
      <trkpt lat="44.8311" lon="6.40143">
        <ele>1617.6</ele>
        <time>2024-08-12T04:31:27Z</time>
      </trkpt>
      <trkpt lat="44.8311" lon="6.40143">
        <ele>1617.8</ele>
        <time>2024-08-12T04:31:28Z</time>
      </trkpt>
      <trkpt lat="44.8311" lon="6.40143">
        <ele>1617.8</ele>
        <time>2024-08-12T04:31:29Z</time>
      </trkpt>
      <trkpt lat="44.8311" lon="6.40143">
        <ele>1617.8</ele>
        <time>2024-08-12T04:31:30Z</time>
      </trkpt>
      <trkpt lat="44.83109" lon="6.40145">
        <ele>1617.8</ele>
        <time>2024-08-12T04:31:31Z</time>
      </trkpt>
      <trkpt lat="44.83109" lon="6.40145">
        <ele>1618.2</ele>
        <time>2024-08-12T04:31:32Z</time>
      </trkpt>
      <trkpt lat="44.83107" lon="6.40147">
        <ele>1618.2</ele>
        <time>2024-08-12T04:31:33Z</time>
      </trkpt>
      <trkpt lat="44.83107" lon="6.40147">
        <ele>1618</ele>
        <time>2024-08-12T04:31:34Z</time>
      </trkpt>
      <trkpt lat="44.83105" lon="6.40148">
        <ele>1617.8</ele>
        <time>2024-08-12T04:31:35Z</time>
      </trkpt>
      <trkpt lat="44.83105" lon="6.40148">
        <ele>1617.6</ele>
        <time>2024-08-12T04:31:36Z</time>
      </trkpt>
      <trkpt lat="44.83105" lon="6.40148">
        <ele>1617.6</ele>
        <time>2024-08-12T04:31:37Z</time>
      </trkpt>
      <trkpt lat="44.83105" lon="6.40148">
        <ele>1617.4</ele>
        <time>2024-08-12T04:31:38Z</time>
      </trkpt>
      <trkpt lat="44.83105" lon="6.40148">
        <ele>1617.2</ele>
        <time>2024-08-12T04:31:39Z</time>
      </trkpt>
      <trkpt lat="44.83107" lon="6.40146">
        <ele>1617.2</ele>
        <time>2024-08-12T04:31:40Z</time>
      </trkpt>
      <trkpt lat="44.83107" lon="6.40146">
        <ele>1617.2</ele>
        <time>2024-08-12T04:31:41Z</time>
      </trkpt>
      <trkpt lat="44.83107" lon="6.40146">
        <ele>1617.2</ele>
        <time>2024-08-12T04:31:42Z</time>
      </trkpt>
      <trkpt lat="44.83107" lon="6.40146">
        <ele>1617.2</ele>
        <time>2024-08-12T04:31:43Z</time>
      </trkpt>
      <trkpt lat="44.83107" lon="6.40146">
        <ele>1617.4</ele>
        <time>2024-08-12T04:31:44Z</time>
      </trkpt>
      <trkpt lat="44.83107" lon="6.40146">
        <ele>1617.8</ele>
        <time>2024-08-12T04:31:45Z</time>
      </trkpt>
      <trkpt lat="44.83107" lon="6.40146">
        <ele>1617.8</ele>
        <time>2024-08-12T04:31:46Z</time>
      </trkpt>
      <trkpt lat="44.83107" lon="6.40146">
        <ele>1617.8</ele>
        <time>2024-08-12T04:31:47Z</time>
      </trkpt>
      <trkpt lat="44.83107" lon="6.40146">
        <ele>1617.8</ele>
        <time>2024-08-12T04:31:48Z</time>
      </trkpt>
      <trkpt lat="44.83107" lon="6.40146">
        <ele>1617.8</ele>
        <time>2024-08-12T04:31:49Z</time>
      </trkpt>
      <trkpt lat="44.83107" lon="6.40146">
        <ele>1617.6</ele>
        <time>2024-08-12T04:31:50Z</time>
      </trkpt>
      <trkpt lat="44.83107" lon="6.40146">
        <ele>1617.6</ele>
        <time>2024-08-12T04:31:51Z</time>
      </trkpt>
      <trkpt lat="44.83107" lon="6.40146">
        <ele>1617.6</ele>
        <time>2024-08-12T04:31:52Z</time>
      </trkpt>
      <trkpt lat="44.83107" lon="6.40146">
        <ele>1617.8</ele>
        <time>2024-08-12T04:31:53Z</time>
      </trkpt>
      <trkpt lat="44.83107" lon="6.40146">
        <ele>1617.8</ele>
        <time>2024-08-12T04:31:54Z</time>
      </trkpt>
      <trkpt lat="44.83107" lon="6.40146">
        <ele>1617.8</ele>
        <time>2024-08-12T04:31:55Z</time>
      </trkpt>
      <trkpt lat="44.83107" lon="6.40146">
        <ele>1617.8</ele>
        <time>2024-08-12T04:31:56Z</time>
      </trkpt>
      <trkpt lat="44.83107" lon="6.40146">
        <ele>1617.8</ele>
        <time>2024-08-12T04:31:57Z</time>
      </trkpt>
      <trkpt lat="44.83107" lon="6.40146">
        <ele>1617.8</ele>
        <time>2024-08-12T04:31:58Z</time>
      </trkpt>
      <trkpt lat="44.83107" lon="6.40146">
        <ele>1618</ele>
        <time>2024-08-12T04:31:59Z</time>
      </trkpt>
      <trkpt lat="44.83107" lon="6.40146">
        <ele>1618</ele>
        <time>2024-08-12T04:32:00Z</time>
      </trkpt>
      <trkpt lat="44.83107" lon="6.40146">
        <ele>1618</ele>
        <time>2024-08-12T04:32:01Z</time>
      </trkpt>
      <trkpt lat="44.83107" lon="6.40146">
        <ele>1618</ele>
        <time>2024-08-12T04:32:02Z</time>
      </trkpt>
      <trkpt lat="44.83107" lon="6.40146">
        <ele>1618</ele>
        <time>2024-08-12T04:32:03Z</time>
      </trkpt>
      <trkpt lat="44.83107" lon="6.40146">
        <ele>1618</ele>
        <time>2024-08-12T04:32:04Z</time>
      </trkpt>
      <trkpt lat="44.83107" lon="6.40146">
        <ele>1618</ele>
        <time>2024-08-12T04:32:05Z</time>
      </trkpt>
      <trkpt lat="44.83107" lon="6.40146">
        <ele>1618</ele>
        <time>2024-08-12T04:32:06Z</time>
      </trkpt>
      <trkpt lat="44.83107" lon="6.40146">
        <ele>1617.8</ele>
        <time>2024-08-12T04:32:07Z</time>
      </trkpt>
      <trkpt lat="44.83107" lon="6.40146">
        <ele>1617.8</ele>
        <time>2024-08-12T04:32:08Z</time>
      </trkpt>
      <trkpt lat="44.83107" lon="6.40146">
        <ele>1617.8</ele>
        <time>2024-08-12T04:32:09Z</time>
      </trkpt>
      <trkpt lat="44.83107" lon="6.40146">
        <ele>1617.8</ele>
        <time>2024-08-12T04:32:10Z</time>
      </trkpt>
      <trkpt lat="44.83107" lon="6.40146">
        <ele>1618</ele>
        <time>2024-08-12T04:32:11Z</time>
      </trkpt>
      <trkpt lat="44.83107" lon="6.40146">
        <ele>1618</ele>
        <time>2024-08-12T04:32:12Z</time>
      </trkpt>
      <trkpt lat="44.83107" lon="6.40146">
        <ele>1618</ele>
        <time>2024-08-12T04:32:13Z</time>
      </trkpt>
      <trkpt lat="44.83107" lon="6.40146">
        <ele>1618</ele>
        <time>2024-08-12T04:32:14Z</time>
      </trkpt>
      <trkpt lat="44.83107" lon="6.40146">
        <ele>1618</ele>
        <time>2024-08-12T04:32:15Z</time>
      </trkpt>
      <trkpt lat="44.83107" lon="6.40146">
        <ele>1618</ele>
        <time>2024-08-12T04:32:16Z</time>
      </trkpt>
      <trkpt lat="44.83107" lon="6.40146">
        <ele>1618</ele>
        <time>2024-08-12T04:32:17Z</time>
      </trkpt>
      <trkpt lat="44.83107" lon="6.40146">
        <ele>1618</ele>
        <time>2024-08-12T04:32:18Z</time>
      </trkpt>
      <trkpt lat="44.83107" lon="6.40146">
        <ele>1618</ele>
        <time>2024-08-12T04:32:19Z</time>
      </trkpt>
      <trkpt lat="44.83107" lon="6.40146">
        <ele>1618</ele>
        <time>2024-08-12T04:32:20Z</time>
      </trkpt>
      <trkpt lat="44.83107" lon="6.40146">
        <ele>1618</ele>
        <time>2024-08-12T04:32:21Z</time>
      </trkpt>
      <trkpt lat="44.83107" lon="6.40146">
        <ele>1618</ele>
        <time>2024-08-12T04:32:22Z</time>
      </trkpt>
      <trkpt lat="44.83107" lon="6.40146">
        <ele>1618</ele>
        <time>2024-08-12T04:32:23Z</time>
      </trkpt>
      <trkpt lat="44.83107" lon="6.40146">
        <ele>1618</ele>
        <time>2024-08-12T04:32:24Z</time>
      </trkpt>
      <trkpt lat="44.83107" lon="6.40146">
        <ele>1618</ele>
        <time>2024-08-12T04:32:25Z</time>
      </trkpt>
      <trkpt lat="44.83107" lon="6.40146">
        <ele>1617.8</ele>
        <time>2024-08-12T04:32:26Z</time>
      </trkpt>
      <trkpt lat="44.83107" lon="6.40146">
        <ele>1617.8</ele>
        <time>2024-08-12T04:32:27Z</time>
      </trkpt>
      <trkpt lat="44.83107" lon="6.40146">
        <ele>1618</ele>
        <time>2024-08-12T04:32:28Z</time>
      </trkpt>
      <trkpt lat="44.83107" lon="6.40146">
        <ele>1618</ele>
        <time>2024-08-12T04:32:29Z</time>
      </trkpt>
      <trkpt lat="44.83107" lon="6.40146">
        <ele>1618</ele>
        <time>2024-08-12T04:32:30Z</time>
      </trkpt>
      <trkpt lat="44.83107" lon="6.40146">
        <ele>1618</ele>
        <time>2024-08-12T04:32:31Z</time>
      </trkpt>
      <trkpt lat="44.83107" lon="6.40146">
        <ele>1618</ele>
        <time>2024-08-12T04:32:32Z</time>
      </trkpt>
      <trkpt lat="44.83107" lon="6.40146">
        <ele>1618</ele>
        <time>2024-08-12T04:32:33Z</time>
      </trkpt>
      <trkpt lat="44.83107" lon="6.40146">
        <ele>1618</ele>
        <time>2024-08-12T04:32:34Z</time>
      </trkpt>
      <trkpt lat="44.83107" lon="6.40146">
        <ele>1617.8</ele>
        <time>2024-08-12T04:32:35Z</time>
      </trkpt>
      <trkpt lat="44.83107" lon="6.40146">
        <ele>1617.8</ele>
        <time>2024-08-12T04:32:36Z</time>
      </trkpt>
      <trkpt lat="44.83107" lon="6.40146">
        <ele>1617.8</ele>
        <time>2024-08-12T04:32:37Z</time>
      </trkpt>
      <trkpt lat="44.83107" lon="6.40146">
        <ele>1617.8</ele>
        <time>2024-08-12T04:32:38Z</time>
      </trkpt>
      <trkpt lat="44.83107" lon="6.40146">
        <ele>1618</ele>
        <time>2024-08-12T04:32:39Z</time>
      </trkpt>
      <trkpt lat="44.83107" lon="6.40146">
        <ele>1618</ele>
        <time>2024-08-12T04:32:40Z</time>
      </trkpt>
      <trkpt lat="44.83107" lon="6.40146">
        <ele>1618</ele>
        <time>2024-08-12T04:32:41Z</time>
      </trkpt>
      <trkpt lat="44.83107" lon="6.40146">
        <ele>1618</ele>
        <time>2024-08-12T04:32:42Z</time>
      </trkpt>
      <trkpt lat="44.83107" lon="6.40146">
        <ele>1618</ele>
        <time>2024-08-12T04:32:43Z</time>
      </trkpt>
      <trkpt lat="44.83107" lon="6.40146">
        <ele>1618.2</ele>
        <time>2024-08-12T04:32:44Z</time>
      </trkpt>
      <trkpt lat="44.83107" lon="6.40146">
        <ele>1618.2</ele>
        <time>2024-08-12T04:32:45Z</time>
      </trkpt>
      <trkpt lat="44.83107" lon="6.40146">
        <ele>1618.2</ele>
        <time>2024-08-12T04:32:46Z</time>
      </trkpt>
      <trkpt lat="44.83107" lon="6.40146">
        <ele>1618</ele>
        <time>2024-08-12T04:32:47Z</time>
      </trkpt>
      <trkpt lat="44.83107" lon="6.40146">
        <ele>1617.8</ele>
        <time>2024-08-12T04:32:48Z</time>
      </trkpt>
      <trkpt lat="44.83107" lon="6.40146">
        <ele>1618</ele>
        <time>2024-08-12T04:32:49Z</time>
      </trkpt>
      <trkpt lat="44.83107" lon="6.40146">
        <ele>1617.8</ele>
        <time>2024-08-12T04:32:50Z</time>
      </trkpt>
      <trkpt lat="44.83107" lon="6.40146">
        <ele>1617.8</ele>
        <time>2024-08-12T04:32:51Z</time>
      </trkpt>
      <trkpt lat="44.83107" lon="6.40146">
        <ele>1617.6</ele>
        <time>2024-08-12T04:32:52Z</time>
      </trkpt>
      <trkpt lat="44.83104" lon="6.40147">
        <ele>1617.2</ele>
        <time>2024-08-12T04:32:53Z</time>
      </trkpt>
      <trkpt lat="44.83102" lon="6.40148">
        <ele>1617</ele>
        <time>2024-08-12T04:32:54Z</time>
      </trkpt>
      <trkpt lat="44.83102" lon="6.40148">
        <ele>1616.8</ele>
        <time>2024-08-12T04:32:55Z</time>
      </trkpt>
      <trkpt lat="44.83099" lon="6.40149">
        <ele>1616.8</ele>
        <time>2024-08-12T04:32:56Z</time>
      </trkpt>
      <trkpt lat="44.83099" lon="6.40149">
        <ele>1616.6</ele>
        <time>2024-08-12T04:32:57Z</time>
      </trkpt>
      <trkpt lat="44.83095" lon="6.4015">
        <ele>1616.6</ele>
        <time>2024-08-12T04:32:58Z</time>
      </trkpt>
      <trkpt lat="44.83095" lon="6.4015">
        <ele>1616.2</ele>
        <time>2024-08-12T04:32:59Z</time>
      </trkpt>
      <trkpt lat="44.83093" lon="6.40152">
        <ele>1616.2</ele>
        <time>2024-08-12T04:33:00Z</time>
      </trkpt>
      <trkpt lat="44.83093" lon="6.40152">
        <ele>1616</ele>
        <time>2024-08-12T04:33:01Z</time>
      </trkpt>
      <trkpt lat="44.83091" lon="6.40152">
        <ele>1615.6</ele>
        <time>2024-08-12T04:33:02Z</time>
      </trkpt>
      <trkpt lat="44.83091" lon="6.40152">
        <ele>1615.6</ele>
        <time>2024-08-12T04:33:03Z</time>
      </trkpt>
      <trkpt lat="44.83088" lon="6.40151">
        <ele>1615.4</ele>
        <time>2024-08-12T04:33:04Z</time>
      </trkpt>
      <trkpt lat="44.83088" lon="6.40151">
        <ele>1615.4</ele>
        <time>2024-08-12T04:33:05Z</time>
      </trkpt>
      <trkpt lat="44.83086" lon="6.40151">
        <ele>1615.2</ele>
        <time>2024-08-12T04:33:06Z</time>
      </trkpt>
      <trkpt lat="44.83086" lon="6.40151">
        <ele>1614.8</ele>
        <time>2024-08-12T04:33:07Z</time>
      </trkpt>
      <trkpt lat="44.83083" lon="6.40151">
        <ele>1614.6</ele>
        <time>2024-08-12T04:33:08Z</time>
      </trkpt>
      <trkpt lat="44.83083" lon="6.40151">
        <ele>1614.4</ele>
        <time>2024-08-12T04:33:09Z</time>
      </trkpt>
      <trkpt lat="44.83083" lon="6.40151">
        <ele>1614.4</ele>
        <time>2024-08-12T04:33:10Z</time>
      </trkpt>
      <trkpt lat="44.83083" lon="6.40147">
        <ele>1614</ele>
        <time>2024-08-12T04:33:11Z</time>
      </trkpt>
      <trkpt lat="44.83083" lon="6.40147">
        <ele>1613.8</ele>
        <time>2024-08-12T04:33:12Z</time>
      </trkpt>
      <trkpt lat="44.83083" lon="6.40147">
        <ele>1613.4</ele>
        <time>2024-08-12T04:33:13Z</time>
      </trkpt>
      <trkpt lat="44.83081" lon="6.40144">
        <ele>1613.4</ele>
        <time>2024-08-12T04:33:14Z</time>
      </trkpt>
      <trkpt lat="44.83081" lon="6.40144">
        <ele>1613.4</ele>
        <time>2024-08-12T04:33:15Z</time>
      </trkpt>
      <trkpt lat="44.83079" lon="6.40144">
        <ele>1613</ele>
        <time>2024-08-12T04:33:16Z</time>
      </trkpt>
      <trkpt lat="44.83079" lon="6.40144">
        <ele>1612.6</ele>
        <time>2024-08-12T04:33:17Z</time>
      </trkpt>
      <trkpt lat="44.83079" lon="6.40144">
        <ele>1612.2</ele>
        <time>2024-08-12T04:33:18Z</time>
      </trkpt>
      <trkpt lat="44.83077" lon="6.40141">
        <ele>1612</ele>
        <time>2024-08-12T04:33:19Z</time>
      </trkpt>
      <trkpt lat="44.83077" lon="6.40141">
        <ele>1611.8</ele>
        <time>2024-08-12T04:33:20Z</time>
      </trkpt>
      <trkpt lat="44.83075" lon="6.40141">
        <ele>1611.6</ele>
        <time>2024-08-12T04:33:21Z</time>
      </trkpt>
      <trkpt lat="44.83075" lon="6.40141">
        <ele>1611.6</ele>
        <time>2024-08-12T04:33:22Z</time>
      </trkpt>
      <trkpt lat="44.83073" lon="6.4014">
        <ele>1611.8</ele>
        <time>2024-08-12T04:33:23Z</time>
      </trkpt>
      <trkpt lat="44.83073" lon="6.4014">
        <ele>1611.8</ele>
        <time>2024-08-12T04:33:24Z</time>
      </trkpt>
      <trkpt lat="44.8307" lon="6.40138">
        <ele>1611.8</ele>
        <time>2024-08-12T04:33:25Z</time>
      </trkpt>
      <trkpt lat="44.8307" lon="6.40138">
        <ele>1611.8</ele>
        <time>2024-08-12T04:33:26Z</time>
      </trkpt>
      <trkpt lat="44.83067" lon="6.40137">
        <ele>1611.6</ele>
        <time>2024-08-12T04:33:27Z</time>
      </trkpt>
      <trkpt lat="44.83067" lon="6.40137">
        <ele>1611.6</ele>
        <time>2024-08-12T04:33:28Z</time>
      </trkpt>
      <trkpt lat="44.83065" lon="6.40136">
        <ele>1611.6</ele>
        <time>2024-08-12T04:33:29Z</time>
      </trkpt>
      <trkpt lat="44.83065" lon="6.40136">
        <ele>1611.6</ele>
        <time>2024-08-12T04:33:30Z</time>
      </trkpt>
      <trkpt lat="44.83063" lon="6.40135">
        <ele>1611.6</ele>
        <time>2024-08-12T04:33:31Z</time>
      </trkpt>
      <trkpt lat="44.83063" lon="6.40135">
        <ele>1611.6</ele>
        <time>2024-08-12T04:33:32Z</time>
      </trkpt>
      <trkpt lat="44.8306" lon="6.40134">
        <ele>1611.6</ele>
        <time>2024-08-12T04:33:33Z</time>
      </trkpt>
      <trkpt lat="44.8306" lon="6.40134">
        <ele>1611.4</ele>
        <time>2024-08-12T04:33:34Z</time>
      </trkpt>
      <trkpt lat="44.83057" lon="6.40132">
        <ele>1611.4</ele>
        <time>2024-08-12T04:33:35Z</time>
      </trkpt>
      <trkpt lat="44.83057" lon="6.40132">
        <ele>1611.4</ele>
        <time>2024-08-12T04:33:36Z</time>
      </trkpt>
      <trkpt lat="44.83055" lon="6.40131">
        <ele>1611.6</ele>
        <time>2024-08-12T04:33:37Z</time>
      </trkpt>
      <trkpt lat="44.83055" lon="6.40131">
        <ele>1611.8</ele>
        <time>2024-08-12T04:33:38Z</time>
      </trkpt>
      <trkpt lat="44.83053" lon="6.4013">
        <ele>1611.8</ele>
        <time>2024-08-12T04:33:39Z</time>
      </trkpt>
      <trkpt lat="44.83053" lon="6.4013">
        <ele>1611.8</ele>
        <time>2024-08-12T04:33:40Z</time>
      </trkpt>
      <trkpt lat="44.8305" lon="6.40129">
        <ele>1611.8</ele>
        <time>2024-08-12T04:33:41Z</time>
      </trkpt>
      <trkpt lat="44.8305" lon="6.40129">
        <ele>1612</ele>
        <time>2024-08-12T04:33:42Z</time>
      </trkpt>
      <trkpt lat="44.83048" lon="6.40127">
        <ele>1612</ele>
        <time>2024-08-12T04:33:43Z</time>
      </trkpt>
      <trkpt lat="44.83048" lon="6.40127">
        <ele>1611.8</ele>
        <time>2024-08-12T04:33:44Z</time>
      </trkpt>
      <trkpt lat="44.83048" lon="6.40127">
        <ele>1611.8</ele>
        <time>2024-08-12T04:33:45Z</time>
      </trkpt>
      <trkpt lat="44.83048" lon="6.40127">
        <ele>1612</ele>
        <time>2024-08-12T04:33:46Z</time>
      </trkpt>
      <trkpt lat="44.83048" lon="6.40127">
        <ele>1612</ele>
        <time>2024-08-12T04:33:47Z</time>
      </trkpt>
      <trkpt lat="44.83048" lon="6.40127">
        <ele>1611.8</ele>
        <time>2024-08-12T04:33:48Z</time>
      </trkpt>
      <trkpt lat="44.83048" lon="6.40127">
        <ele>1611.8</ele>
        <time>2024-08-12T04:33:49Z</time>
      </trkpt>
      <trkpt lat="44.83048" lon="6.40127">
        <ele>1612</ele>
        <time>2024-08-12T04:33:50Z</time>
      </trkpt>
      <trkpt lat="44.83048" lon="6.40127">
        <ele>1612</ele>
        <time>2024-08-12T04:33:51Z</time>
      </trkpt>
      <trkpt lat="44.83048" lon="6.40127">
        <ele>1612</ele>
        <time>2024-08-12T04:33:52Z</time>
      </trkpt>
      <trkpt lat="44.83048" lon="6.40127">
        <ele>1612</ele>
        <time>2024-08-12T04:33:53Z</time>
      </trkpt>
      <trkpt lat="44.83048" lon="6.40127">
        <ele>1612</ele>
        <time>2024-08-12T04:33:54Z</time>
      </trkpt>
      <trkpt lat="44.83048" lon="6.40127">
        <ele>1612.2</ele>
        <time>2024-08-12T04:33:55Z</time>
      </trkpt>
      <trkpt lat="44.83048" lon="6.40127">
        <ele>1612.2</ele>
        <time>2024-08-12T04:33:56Z</time>
      </trkpt>
      <trkpt lat="44.83048" lon="6.40127">
        <ele>1612.2</ele>
        <time>2024-08-12T04:33:57Z</time>
      </trkpt>
      <trkpt lat="44.83048" lon="6.40127">
        <ele>1612.4</ele>
        <time>2024-08-12T04:33:58Z</time>
      </trkpt>
      <trkpt lat="44.83048" lon="6.40127">
        <ele>1612.4</ele>
        <time>2024-08-12T04:33:59Z</time>
      </trkpt>
      <trkpt lat="44.83048" lon="6.40127">
        <ele>1612.4</ele>
        <time>2024-08-12T04:34:00Z</time>
      </trkpt>
      <trkpt lat="44.83048" lon="6.40127">
        <ele>1612.4</ele>
        <time>2024-08-12T04:34:01Z</time>
      </trkpt>
      <trkpt lat="44.83048" lon="6.40127">
        <ele>1612.2</ele>
        <time>2024-08-12T04:34:02Z</time>
      </trkpt>
      <trkpt lat="44.83048" lon="6.40127">
        <ele>1612.2</ele>
        <time>2024-08-12T04:34:03Z</time>
      </trkpt>
      <trkpt lat="44.83048" lon="6.40127">
        <ele>1612.2</ele>
        <time>2024-08-12T04:34:04Z</time>
      </trkpt>
      <trkpt lat="44.83048" lon="6.40127">
        <ele>1612</ele>
        <time>2024-08-12T04:34:05Z</time>
      </trkpt>
      <trkpt lat="44.83048" lon="6.40127">
        <ele>1612</ele>
        <time>2024-08-12T04:34:06Z</time>
      </trkpt>
      <trkpt lat="44.83048" lon="6.40127">
        <ele>1612</ele>
        <time>2024-08-12T04:34:07Z</time>
      </trkpt>
      <trkpt lat="44.83048" lon="6.40127">
        <ele>1612.2</ele>
        <time>2024-08-12T04:34:08Z</time>
      </trkpt>
      <trkpt lat="44.83048" lon="6.40127">
        <ele>1612.2</ele>
        <time>2024-08-12T04:34:09Z</time>
      </trkpt>
      <trkpt lat="44.83048" lon="6.40127">
        <ele>1612</ele>
        <time>2024-08-12T04:34:10Z</time>
      </trkpt>
      <trkpt lat="44.83048" lon="6.40127">
        <ele>1612</ele>
        <time>2024-08-12T04:34:11Z</time>
      </trkpt>
      <trkpt lat="44.83048" lon="6.40127">
        <ele>1612</ele>
        <time>2024-08-12T04:34:12Z</time>
      </trkpt>
      <trkpt lat="44.83048" lon="6.40127">
        <ele>1612</ele>
        <time>2024-08-12T04:34:13Z</time>
      </trkpt>
      <trkpt lat="44.83048" lon="6.40127">
        <ele>1612.2</ele>
        <time>2024-08-12T04:34:14Z</time>
      </trkpt>
      <trkpt lat="44.83048" lon="6.40127">
        <ele>1612.2</ele>
        <time>2024-08-12T04:34:15Z</time>
      </trkpt>
      <trkpt lat="44.83048" lon="6.40127">
        <ele>1612.2</ele>
        <time>2024-08-12T04:34:16Z</time>
      </trkpt>
      <trkpt lat="44.83048" lon="6.40127">
        <ele>1611.8</ele>
        <time>2024-08-12T04:34:17Z</time>
      </trkpt>
      <trkpt lat="44.83048" lon="6.40127">
        <ele>1611.8</ele>
        <time>2024-08-12T04:34:18Z</time>
      </trkpt>
      <trkpt lat="44.83048" lon="6.40127">
        <ele>1612</ele>
        <time>2024-08-12T04:34:19Z</time>
      </trkpt>
      <trkpt lat="44.83048" lon="6.40127">
        <ele>1612</ele>
        <time>2024-08-12T04:34:20Z</time>
      </trkpt>
      <trkpt lat="44.83048" lon="6.40127">
        <ele>1612</ele>
        <time>2024-08-12T04:34:21Z</time>
      </trkpt>
      <trkpt lat="44.83048" lon="6.40127">
        <ele>1612.2</ele>
        <time>2024-08-12T04:34:22Z</time>
      </trkpt>
      <trkpt lat="44.83048" lon="6.40127">
        <ele>1612.2</ele>
        <time>2024-08-12T04:34:23Z</time>
      </trkpt>
      <trkpt lat="44.83048" lon="6.40127">
        <ele>1612</ele>
        <time>2024-08-12T04:34:24Z</time>
      </trkpt>
      <trkpt lat="44.83048" lon="6.40127">
        <ele>1611.8</ele>
        <time>2024-08-12T04:34:25Z</time>
      </trkpt>
      <trkpt lat="44.83048" lon="6.40127">
        <ele>1611.8</ele>
        <time>2024-08-12T04:34:26Z</time>
      </trkpt>
      <trkpt lat="44.83048" lon="6.40127">
        <ele>1611.8</ele>
        <time>2024-08-12T04:34:27Z</time>
      </trkpt>
      <trkpt lat="44.83048" lon="6.40127">
        <ele>1611.8</ele>
        <time>2024-08-12T04:34:28Z</time>
      </trkpt>
      <trkpt lat="44.83048" lon="6.40127">
        <ele>1611.8</ele>
        <time>2024-08-12T04:34:29Z</time>
      </trkpt>
      <trkpt lat="44.83048" lon="6.40127">
        <ele>1611.8</ele>
        <time>2024-08-12T04:34:30Z</time>
      </trkpt>
      <trkpt lat="44.83048" lon="6.40127">
        <ele>1611.6</ele>
        <time>2024-08-12T04:34:31Z</time>
      </trkpt>
      <trkpt lat="44.83048" lon="6.40127">
        <ele>1611.6</ele>
        <time>2024-08-12T04:34:32Z</time>
      </trkpt>
      <trkpt lat="44.83048" lon="6.40127">
        <ele>1611.6</ele>
        <time>2024-08-12T04:34:33Z</time>
      </trkpt>
      <trkpt lat="44.83048" lon="6.40127">
        <ele>1611.6</ele>
        <time>2024-08-12T04:34:34Z</time>
      </trkpt>
      <trkpt lat="44.83048" lon="6.40127">
        <ele>1611.8</ele>
        <time>2024-08-12T04:34:35Z</time>
      </trkpt>
      <trkpt lat="44.83048" lon="6.40127">
        <ele>1611.8</ele>
        <time>2024-08-12T04:34:36Z</time>
      </trkpt>
      <trkpt lat="44.83048" lon="6.40127">
        <ele>1611.8</ele>
        <time>2024-08-12T04:34:37Z</time>
      </trkpt>
      <trkpt lat="44.83048" lon="6.40127">
        <ele>1611.4</ele>
        <time>2024-08-12T04:34:38Z</time>
      </trkpt>
      <trkpt lat="44.83048" lon="6.40127">
        <ele>1611.4</ele>
        <time>2024-08-12T04:34:39Z</time>
      </trkpt>
      <trkpt lat="44.83048" lon="6.40127">
        <ele>1611.6</ele>
        <time>2024-08-12T04:34:40Z</time>
      </trkpt>
      <trkpt lat="44.83048" lon="6.40127">
        <ele>1611.6</ele>
        <time>2024-08-12T04:34:41Z</time>
      </trkpt>
      <trkpt lat="44.83046" lon="6.40126">
        <ele>1611.6</ele>
        <time>2024-08-12T04:34:42Z</time>
      </trkpt>
      <trkpt lat="44.83046" lon="6.40126">
        <ele>1611.6</ele>
        <time>2024-08-12T04:34:43Z</time>
      </trkpt>
      <trkpt lat="44.83044" lon="6.40125">
        <ele>1611.6</ele>
        <time>2024-08-12T04:34:44Z</time>
      </trkpt>
      <trkpt lat="44.83044" lon="6.40125">
        <ele>1611.6</ele>
        <time>2024-08-12T04:34:45Z</time>
      </trkpt>
      <trkpt lat="44.83041" lon="6.40123">
        <ele>1611.6</ele>
        <time>2024-08-12T04:34:46Z</time>
      </trkpt>
      <trkpt lat="44.83039" lon="6.40122">
        <ele>1611.2</ele>
        <time>2024-08-12T04:34:47Z</time>
      </trkpt>
      <trkpt lat="44.83039" lon="6.40122">
        <ele>1611.2</ele>
        <time>2024-08-12T04:34:48Z</time>
      </trkpt>
      <trkpt lat="44.83037" lon="6.40118">
        <ele>1611.2</ele>
        <time>2024-08-12T04:34:49Z</time>
      </trkpt>
      <trkpt lat="44.83037" lon="6.40118">
        <ele>1611.2</ele>
        <time>2024-08-12T04:34:50Z</time>
      </trkpt>
      <trkpt lat="44.83037" lon="6.40115">
        <ele>1611.2</ele>
        <time>2024-08-12T04:34:51Z</time>
      </trkpt>
      <trkpt lat="44.83037" lon="6.40115">
        <ele>1611.2</ele>
        <time>2024-08-12T04:34:52Z</time>
      </trkpt>
      <trkpt lat="44.83036" lon="6.40112">
        <ele>1610.8</ele>
        <time>2024-08-12T04:34:53Z</time>
      </trkpt>
      <trkpt lat="44.83036" lon="6.40112">
        <ele>1610.8</ele>
        <time>2024-08-12T04:34:54Z</time>
      </trkpt>
      <trkpt lat="44.83035" lon="6.4011">
        <ele>1611</ele>
        <time>2024-08-12T04:34:55Z</time>
      </trkpt>
      <trkpt lat="44.83035" lon="6.4011">
        <ele>1611</ele>
        <time>2024-08-12T04:34:56Z</time>
      </trkpt>
      <trkpt lat="44.83033" lon="6.40108">
        <ele>1611.2</ele>
        <time>2024-08-12T04:34:57Z</time>
      </trkpt>
      <trkpt lat="44.83033" lon="6.40108">
        <ele>1611.4</ele>
        <time>2024-08-12T04:34:58Z</time>
      </trkpt>
      <trkpt lat="44.83031" lon="6.40105">
        <ele>1611.4</ele>
        <time>2024-08-12T04:34:59Z</time>
      </trkpt>
      <trkpt lat="44.83031" lon="6.40105">
        <ele>1611.4</ele>
        <time>2024-08-12T04:35:00Z</time>
      </trkpt>
      <trkpt lat="44.83029" lon="6.40102">
        <ele>1611.4</ele>
        <time>2024-08-12T04:35:01Z</time>
      </trkpt>
      <trkpt lat="44.83029" lon="6.40102">
        <ele>1611.6</ele>
        <time>2024-08-12T04:35:02Z</time>
      </trkpt>
      <trkpt lat="44.83028" lon="6.40099">
        <ele>1611.6</ele>
        <time>2024-08-12T04:35:03Z</time>
      </trkpt>
      <trkpt lat="44.83028" lon="6.40099">
        <ele>1611.6</ele>
        <time>2024-08-12T04:35:04Z</time>
      </trkpt>
      <trkpt lat="44.83027" lon="6.40095">
        <ele>1611.4</ele>
        <time>2024-08-12T04:35:05Z</time>
      </trkpt>
      <trkpt lat="44.83027" lon="6.40095">
        <ele>1611.2</ele>
        <time>2024-08-12T04:35:06Z</time>
      </trkpt>
      <trkpt lat="44.83027" lon="6.40092">
        <ele>1611</ele>
        <time>2024-08-12T04:35:07Z</time>
      </trkpt>
      <trkpt lat="44.83027" lon="6.40092">
        <ele>1611</ele>
        <time>2024-08-12T04:35:08Z</time>
      </trkpt>
      <trkpt lat="44.83027" lon="6.40088">
        <ele>1611.4</ele>
        <time>2024-08-12T04:35:09Z</time>
      </trkpt>
      <trkpt lat="44.83027" lon="6.40088">
        <ele>1611.4</ele>
        <time>2024-08-12T04:35:10Z</time>
      </trkpt>
      <trkpt lat="44.83028" lon="6.40085">
        <ele>1611.4</ele>
        <time>2024-08-12T04:35:11Z</time>
      </trkpt>
      <trkpt lat="44.83028" lon="6.40085">
        <ele>1611.4</ele>
        <time>2024-08-12T04:35:12Z</time>
      </trkpt>
      <trkpt lat="44.83029" lon="6.40081">
        <ele>1611.6</ele>
        <time>2024-08-12T04:35:13Z</time>
      </trkpt>
      <trkpt lat="44.83029" lon="6.40081">
        <ele>1611.6</ele>
        <time>2024-08-12T04:35:14Z</time>
      </trkpt>
      <trkpt lat="44.83029" lon="6.40077">
        <ele>1611.4</ele>
        <time>2024-08-12T04:35:15Z</time>
      </trkpt>
      <trkpt lat="44.83029" lon="6.40077">
        <ele>1611.4</ele>
        <time>2024-08-12T04:35:16Z</time>
      </trkpt>
      <trkpt lat="44.83028" lon="6.40074">
        <ele>1611.2</ele>
        <time>2024-08-12T04:35:17Z</time>
      </trkpt>
      <trkpt lat="44.83028" lon="6.40074">
        <ele>1611.2</ele>
        <time>2024-08-12T04:35:18Z</time>
      </trkpt>
      <trkpt lat="44.83028" lon="6.40074">
        <ele>1611.2</ele>
        <time>2024-08-12T04:35:19Z</time>
      </trkpt>
      <trkpt lat="44.83028" lon="6.40071">
        <ele>1611.4</ele>
        <time>2024-08-12T04:35:20Z</time>
      </trkpt>
      <trkpt lat="44.83028" lon="6.40071">
        <ele>1611.6</ele>
        <time>2024-08-12T04:35:21Z</time>
      </trkpt>
      <trkpt lat="44.83028" lon="6.40071">
        <ele>1611.6</ele>
        <time>2024-08-12T04:35:22Z</time>
      </trkpt>
      <trkpt lat="44.83027" lon="6.40067">
        <ele>1612</ele>
        <time>2024-08-12T04:35:23Z</time>
      </trkpt>
      <trkpt lat="44.83027" lon="6.40067">
        <ele>1612.2</ele>
        <time>2024-08-12T04:35:24Z</time>
      </trkpt>
      <trkpt lat="44.83027" lon="6.40064">
        <ele>1612.2</ele>
        <time>2024-08-12T04:35:25Z</time>
      </trkpt>
      <trkpt lat="44.83027" lon="6.40064">
        <ele>1612.2</ele>
        <time>2024-08-12T04:35:26Z</time>
      </trkpt>
      <trkpt lat="44.83025" lon="6.40062">
        <ele>1612.2</ele>
        <time>2024-08-12T04:35:27Z</time>
      </trkpt>
      <trkpt lat="44.83025" lon="6.40062">
        <ele>1612.4</ele>
        <time>2024-08-12T04:35:28Z</time>
      </trkpt>
      <trkpt lat="44.83023" lon="6.40059">
        <ele>1612.4</ele>
        <time>2024-08-12T04:35:29Z</time>
      </trkpt>
      <trkpt lat="44.83023" lon="6.40059">
        <ele>1612.4</ele>
        <time>2024-08-12T04:35:30Z</time>
      </trkpt>
      <trkpt lat="44.83021" lon="6.40056">
        <ele>1612.6</ele>
        <time>2024-08-12T04:35:31Z</time>
      </trkpt>
      <trkpt lat="44.83021" lon="6.40056">
        <ele>1612.6</ele>
        <time>2024-08-12T04:35:32Z</time>
      </trkpt>
      <trkpt lat="44.8302" lon="6.40055">
        <ele>1612.8</ele>
        <time>2024-08-12T04:35:33Z</time>
      </trkpt>
      <trkpt lat="44.8302" lon="6.40055">
        <ele>1612.6</ele>
        <time>2024-08-12T04:35:34Z</time>
      </trkpt>
      <trkpt lat="44.83018" lon="6.40053">
        <ele>1612.6</ele>
        <time>2024-08-12T04:35:35Z</time>
      </trkpt>
      <trkpt lat="44.83018" lon="6.40053">
        <ele>1612.4</ele>
        <time>2024-08-12T04:35:36Z</time>
      </trkpt>
      <trkpt lat="44.83016" lon="6.40051">
        <ele>1612.4</ele>
        <time>2024-08-12T04:35:37Z</time>
      </trkpt>
      <trkpt lat="44.83016" lon="6.40051">
        <ele>1612.6</ele>
        <time>2024-08-12T04:35:38Z</time>
      </trkpt>
      <trkpt lat="44.83014" lon="6.40048">
        <ele>1612.6</ele>
        <time>2024-08-12T04:35:39Z</time>
      </trkpt>
      <trkpt lat="44.83014" lon="6.40048">
        <ele>1612.6</ele>
        <time>2024-08-12T04:35:40Z</time>
      </trkpt>
      <trkpt lat="44.83013" lon="6.40045">
        <ele>1612.6</ele>
        <time>2024-08-12T04:35:41Z</time>
      </trkpt>
      <trkpt lat="44.83013" lon="6.40045">
        <ele>1612.8</ele>
        <time>2024-08-12T04:35:42Z</time>
      </trkpt>
      <trkpt lat="44.83013" lon="6.40042">
        <ele>1612.8</ele>
        <time>2024-08-12T04:35:43Z</time>
      </trkpt>
      <trkpt lat="44.83013" lon="6.40042">
        <ele>1613</ele>
        <time>2024-08-12T04:35:44Z</time>
      </trkpt>
      <trkpt lat="44.83012" lon="6.40039">
        <ele>1613</ele>
        <time>2024-08-12T04:35:45Z</time>
      </trkpt>
      <trkpt lat="44.83012" lon="6.40039">
        <ele>1613</ele>
        <time>2024-08-12T04:35:46Z</time>
      </trkpt>
      <trkpt lat="44.83012" lon="6.40036">
        <ele>1613</ele>
        <time>2024-08-12T04:35:47Z</time>
      </trkpt>
      <trkpt lat="44.83012" lon="6.40036">
        <ele>1613.2</ele>
        <time>2024-08-12T04:35:48Z</time>
      </trkpt>
      <trkpt lat="44.83012" lon="6.40033">
        <ele>1613.2</ele>
        <time>2024-08-12T04:35:49Z</time>
      </trkpt>
      <trkpt lat="44.83012" lon="6.40033">
        <ele>1613.4</ele>
        <time>2024-08-12T04:35:50Z</time>
      </trkpt>
      <trkpt lat="44.83013" lon="6.40029">
        <ele>1613.6</ele>
        <time>2024-08-12T04:35:51Z</time>
      </trkpt>
      <trkpt lat="44.83013" lon="6.40029">
        <ele>1613.6</ele>
        <time>2024-08-12T04:35:52Z</time>
      </trkpt>
      <trkpt lat="44.83013" lon="6.40026">
        <ele>1613.6</ele>
        <time>2024-08-12T04:35:53Z</time>
      </trkpt>
      <trkpt lat="44.83013" lon="6.40026">
        <ele>1613.6</ele>
        <time>2024-08-12T04:35:54Z</time>
      </trkpt>
      <trkpt lat="44.83012" lon="6.40023">
        <ele>1613.6</ele>
        <time>2024-08-12T04:35:55Z</time>
      </trkpt>
      <trkpt lat="44.83012" lon="6.40023">
        <ele>1614</ele>
        <time>2024-08-12T04:35:56Z</time>
      </trkpt>
      <trkpt lat="44.8301" lon="6.4002">
        <ele>1614</ele>
        <time>2024-08-12T04:35:57Z</time>
      </trkpt>
      <trkpt lat="44.8301" lon="6.4002">
        <ele>1614</ele>
        <time>2024-08-12T04:35:58Z</time>
      </trkpt>
      <trkpt lat="44.83008" lon="6.40018">
        <ele>1614</ele>
        <time>2024-08-12T04:35:59Z</time>
      </trkpt>
      <trkpt lat="44.83008" lon="6.40018">
        <ele>1614.2</ele>
        <time>2024-08-12T04:36:00Z</time>
      </trkpt>
      <trkpt lat="44.83005" lon="6.40016">
        <ele>1614.2</ele>
        <time>2024-08-12T04:36:01Z</time>
      </trkpt>
      <trkpt lat="44.83005" lon="6.40016">
        <ele>1614.2</ele>
        <time>2024-08-12T04:36:02Z</time>
      </trkpt>
      <trkpt lat="44.83003" lon="6.40015">
        <ele>1614.2</ele>
        <time>2024-08-12T04:36:03Z</time>
      </trkpt>
      <trkpt lat="44.83003" lon="6.40015">
        <ele>1614.2</ele>
        <time>2024-08-12T04:36:04Z</time>
      </trkpt>
      <trkpt lat="44.83001" lon="6.40012">
        <ele>1614.2</ele>
        <time>2024-08-12T04:36:05Z</time>
      </trkpt>
      <trkpt lat="44.83001" lon="6.40012">
        <ele>1614.2</ele>
        <time>2024-08-12T04:36:06Z</time>
      </trkpt>
      <trkpt lat="44.83" lon="6.40009">
        <ele>1614</ele>
        <time>2024-08-12T04:36:07Z</time>
      </trkpt>
      <trkpt lat="44.83" lon="6.40009">
        <ele>1614.2</ele>
        <time>2024-08-12T04:36:08Z</time>
      </trkpt>
      <trkpt lat="44.83" lon="6.40006">
        <ele>1614.2</ele>
        <time>2024-08-12T04:36:09Z</time>
      </trkpt>
      <trkpt lat="44.83" lon="6.40006">
        <ele>1614.2</ele>
        <time>2024-08-12T04:36:10Z</time>
      </trkpt>
      <trkpt lat="44.82999" lon="6.40003">
        <ele>1614.2</ele>
        <time>2024-08-12T04:36:11Z</time>
      </trkpt>
      <trkpt lat="44.82999" lon="6.40003">
        <ele>1614.2</ele>
        <time>2024-08-12T04:36:12Z</time>
      </trkpt>
      <trkpt lat="44.82999" lon="6.39999">
        <ele>1614.2</ele>
        <time>2024-08-12T04:36:13Z</time>
      </trkpt>
      <trkpt lat="44.82999" lon="6.39999">
        <ele>1614.2</ele>
        <time>2024-08-12T04:36:14Z</time>
      </trkpt>
      <trkpt lat="44.82999" lon="6.39996">
        <ele>1614.2</ele>
        <time>2024-08-12T04:36:15Z</time>
      </trkpt>
      <trkpt lat="44.82999" lon="6.39996">
        <ele>1614.2</ele>
        <time>2024-08-12T04:36:16Z</time>
      </trkpt>
      <trkpt lat="44.82999" lon="6.39992">
        <ele>1614.2</ele>
        <time>2024-08-12T04:36:17Z</time>
      </trkpt>
      <trkpt lat="44.82999" lon="6.39992">
        <ele>1614.2</ele>
        <time>2024-08-12T04:36:18Z</time>
      </trkpt>
      <trkpt lat="44.82998" lon="6.39989">
        <ele>1614.2</ele>
        <time>2024-08-12T04:36:19Z</time>
      </trkpt>
      <trkpt lat="44.82998" lon="6.39989">
        <ele>1614.6</ele>
        <time>2024-08-12T04:36:20Z</time>
      </trkpt>
      <trkpt lat="44.82997" lon="6.39985">
        <ele>1614.6</ele>
        <time>2024-08-12T04:36:21Z</time>
      </trkpt>
      <trkpt lat="44.82997" lon="6.39985">
        <ele>1614.6</ele>
        <time>2024-08-12T04:36:22Z</time>
      </trkpt>
      <trkpt lat="44.82997" lon="6.39982">
        <ele>1614.6</ele>
        <time>2024-08-12T04:36:23Z</time>
      </trkpt>
      <trkpt lat="44.82997" lon="6.39982">
        <ele>1614.8</ele>
        <time>2024-08-12T04:36:24Z</time>
      </trkpt>
      <trkpt lat="44.82997" lon="6.39978">
        <ele>1615.2</ele>
        <time>2024-08-12T04:36:25Z</time>
      </trkpt>
      <trkpt lat="44.82997" lon="6.39978">
        <ele>1615.2</ele>
        <time>2024-08-12T04:36:26Z</time>
      </trkpt>
      <trkpt lat="44.82997" lon="6.39975">
        <ele>1615.2</ele>
        <time>2024-08-12T04:36:27Z</time>
      </trkpt>
      <trkpt lat="44.82997" lon="6.39975">
        <ele>1615.4</ele>
        <time>2024-08-12T04:36:28Z</time>
      </trkpt>
      <trkpt lat="44.82996" lon="6.39971">
        <ele>1615.6</ele>
        <time>2024-08-12T04:36:29Z</time>
      </trkpt>
      <trkpt lat="44.82996" lon="6.39971">
        <ele>1615.8</ele>
        <time>2024-08-12T04:36:30Z</time>
      </trkpt>
      <trkpt lat="44.82996" lon="6.39968">
        <ele>1615.8</ele>
        <time>2024-08-12T04:36:31Z</time>
      </trkpt>
      <trkpt lat="44.82996" lon="6.39968">
        <ele>1616</ele>
        <time>2024-08-12T04:36:32Z</time>
      </trkpt>
      <trkpt lat="44.82996" lon="6.39965">
        <ele>1616</ele>
        <time>2024-08-12T04:36:33Z</time>
      </trkpt>
      <trkpt lat="44.82996" lon="6.39965">
        <ele>1616</ele>
        <time>2024-08-12T04:36:34Z</time>
      </trkpt>
      <trkpt lat="44.82996" lon="6.39962">
        <ele>1616</ele>
        <time>2024-08-12T04:36:35Z</time>
      </trkpt>
      <trkpt lat="44.82996" lon="6.39962">
        <ele>1616</ele>
        <time>2024-08-12T04:36:36Z</time>
      </trkpt>
      <trkpt lat="44.82995" lon="6.39958">
        <ele>1616</ele>
        <time>2024-08-12T04:36:37Z</time>
      </trkpt>
      <trkpt lat="44.82995" lon="6.39958">
        <ele>1616</ele>
        <time>2024-08-12T04:36:38Z</time>
      </trkpt>
      <trkpt lat="44.82993" lon="6.39955">
        <ele>1615.8</ele>
        <time>2024-08-12T04:36:39Z</time>
      </trkpt>
      <trkpt lat="44.82993" lon="6.39955">
        <ele>1615.8</ele>
        <time>2024-08-12T04:36:40Z</time>
      </trkpt>
      <trkpt lat="44.82993" lon="6.39951">
        <ele>1616</ele>
        <time>2024-08-12T04:36:41Z</time>
      </trkpt>
      <trkpt lat="44.82993" lon="6.39951">
        <ele>1616</ele>
        <time>2024-08-12T04:36:42Z</time>
      </trkpt>
      <trkpt lat="44.82992" lon="6.39947">
        <ele>1616.2</ele>
        <time>2024-08-12T04:36:43Z</time>
      </trkpt>
      <trkpt lat="44.82992" lon="6.39947">
        <ele>1616.2</ele>
        <time>2024-08-12T04:36:44Z</time>
      </trkpt>
      <trkpt lat="44.82991" lon="6.39944">
        <ele>1616.2</ele>
        <time>2024-08-12T04:36:45Z</time>
      </trkpt>
      <trkpt lat="44.82991" lon="6.39944">
        <ele>1616.2</ele>
        <time>2024-08-12T04:36:46Z</time>
      </trkpt>
      <trkpt lat="44.82989" lon="6.39941">
        <ele>1616.2</ele>
        <time>2024-08-12T04:36:47Z</time>
      </trkpt>
      <trkpt lat="44.82989" lon="6.39941">
        <ele>1616.2</ele>
        <time>2024-08-12T04:36:48Z</time>
      </trkpt>
      <trkpt lat="44.82989" lon="6.39937">
        <ele>1616.2</ele>
        <time>2024-08-12T04:36:49Z</time>
      </trkpt>
      <trkpt lat="44.82989" lon="6.39937">
        <ele>1616.4</ele>
        <time>2024-08-12T04:36:50Z</time>
      </trkpt>
      <trkpt lat="44.82987" lon="6.39934">
        <ele>1616.4</ele>
        <time>2024-08-12T04:36:51Z</time>
      </trkpt>
      <trkpt lat="44.82987" lon="6.39934">
        <ele>1616.2</ele>
        <time>2024-08-12T04:36:52Z</time>
      </trkpt>
      <trkpt lat="44.82987" lon="6.3993">
        <ele>1616.2</ele>
        <time>2024-08-12T04:36:53Z</time>
      </trkpt>
      <trkpt lat="44.82987" lon="6.3993">
        <ele>1616.2</ele>
        <time>2024-08-12T04:36:54Z</time>
      </trkpt>
      <trkpt lat="44.82986" lon="6.39927">
        <ele>1616.2</ele>
        <time>2024-08-12T04:36:55Z</time>
      </trkpt>
      <trkpt lat="44.82986" lon="6.39927">
        <ele>1616.4</ele>
        <time>2024-08-12T04:36:56Z</time>
      </trkpt>
      <trkpt lat="44.82985" lon="6.39924">
        <ele>1616.6</ele>
        <time>2024-08-12T04:36:57Z</time>
      </trkpt>
      <trkpt lat="44.82985" lon="6.39924">
        <ele>1616.6</ele>
        <time>2024-08-12T04:36:58Z</time>
      </trkpt>
      <trkpt lat="44.82984" lon="6.39921">
        <ele>1616.6</ele>
        <time>2024-08-12T04:36:59Z</time>
      </trkpt>
      <trkpt lat="44.82984" lon="6.39921">
        <ele>1616.6</ele>
        <time>2024-08-12T04:37:00Z</time>
      </trkpt>
      <trkpt lat="44.82983" lon="6.39918">
        <ele>1616.8</ele>
        <time>2024-08-12T04:37:01Z</time>
      </trkpt>
      <trkpt lat="44.82983" lon="6.39918">
        <ele>1617</ele>
        <time>2024-08-12T04:37:02Z</time>
      </trkpt>
      <trkpt lat="44.82983" lon="6.39915">
        <ele>1617</ele>
        <time>2024-08-12T04:37:03Z</time>
      </trkpt>
      <trkpt lat="44.82983" lon="6.39915">
        <ele>1617</ele>
        <time>2024-08-12T04:37:04Z</time>
      </trkpt>
      <trkpt lat="44.82982" lon="6.39912">
        <ele>1617.2</ele>
        <time>2024-08-12T04:37:05Z</time>
      </trkpt>
      <trkpt lat="44.82982" lon="6.39912">
        <ele>1617.2</ele>
        <time>2024-08-12T04:37:06Z</time>
      </trkpt>
      <trkpt lat="44.82981" lon="6.39908">
        <ele>1617</ele>
        <time>2024-08-12T04:37:07Z</time>
      </trkpt>
      <trkpt lat="44.82981" lon="6.39908">
        <ele>1617</ele>
        <time>2024-08-12T04:37:08Z</time>
      </trkpt>
      <trkpt lat="44.82981" lon="6.39904">
        <ele>1617</ele>
        <time>2024-08-12T04:37:09Z</time>
      </trkpt>
      <trkpt lat="44.82981" lon="6.39904">
        <ele>1617.4</ele>
        <time>2024-08-12T04:37:10Z</time>
      </trkpt>
      <trkpt lat="44.82981" lon="6.39901">
        <ele>1617.4</ele>
        <time>2024-08-12T04:37:11Z</time>
      </trkpt>
      <trkpt lat="44.82981" lon="6.39901">
        <ele>1617.4</ele>
        <time>2024-08-12T04:37:12Z</time>
      </trkpt>
      <trkpt lat="44.82981" lon="6.39897">
        <ele>1617.4</ele>
        <time>2024-08-12T04:37:13Z</time>
      </trkpt>
      <trkpt lat="44.82981" lon="6.39897">
        <ele>1617.6</ele>
        <time>2024-08-12T04:37:14Z</time>
      </trkpt>
      <trkpt lat="44.82981" lon="6.39894">
        <ele>1617.8</ele>
        <time>2024-08-12T04:37:15Z</time>
      </trkpt>
      <trkpt lat="44.82981" lon="6.39894">
        <ele>1617.8</ele>
        <time>2024-08-12T04:37:16Z</time>
      </trkpt>
      <trkpt lat="44.82981" lon="6.3989">
        <ele>1617.8</ele>
        <time>2024-08-12T04:37:17Z</time>
      </trkpt>
      <trkpt lat="44.82981" lon="6.3989">
        <ele>1617.8</ele>
        <time>2024-08-12T04:37:18Z</time>
      </trkpt>
      <trkpt lat="44.82981" lon="6.39887">
        <ele>1617.8</ele>
        <time>2024-08-12T04:37:19Z</time>
      </trkpt>
      <trkpt lat="44.82981" lon="6.39887">
        <ele>1617.8</ele>
        <time>2024-08-12T04:37:20Z</time>
      </trkpt>
      <trkpt lat="44.82981" lon="6.39884">
        <ele>1618</ele>
        <time>2024-08-12T04:37:21Z</time>
      </trkpt>
      <trkpt lat="44.82981" lon="6.39884">
        <ele>1618</ele>
        <time>2024-08-12T04:37:22Z</time>
      </trkpt>
      <trkpt lat="44.82979" lon="6.39881">
        <ele>1618</ele>
        <time>2024-08-12T04:37:23Z</time>
      </trkpt>
      <trkpt lat="44.82979" lon="6.39881">
        <ele>1618</ele>
        <time>2024-08-12T04:37:24Z</time>
      </trkpt>
      <trkpt lat="44.82979" lon="6.39877">
        <ele>1618.2</ele>
        <time>2024-08-12T04:37:25Z</time>
      </trkpt>
      <trkpt lat="44.82979" lon="6.39877">
        <ele>1618.2</ele>
        <time>2024-08-12T04:37:26Z</time>
      </trkpt>
      <trkpt lat="44.82977" lon="6.39874">
        <ele>1618</ele>
        <time>2024-08-12T04:37:27Z</time>
      </trkpt>
      <trkpt lat="44.82977" lon="6.39874">
        <ele>1618</ele>
        <time>2024-08-12T04:37:28Z</time>
      </trkpt>
      <trkpt lat="44.82975" lon="6.39871">
        <ele>1618</ele>
        <time>2024-08-12T04:37:29Z</time>
      </trkpt>
      <trkpt lat="44.82975" lon="6.39871">
        <ele>1618</ele>
        <time>2024-08-12T04:37:30Z</time>
      </trkpt>
      <trkpt lat="44.82973" lon="6.39868">
        <ele>1618</ele>
        <time>2024-08-12T04:37:31Z</time>
      </trkpt>
      <trkpt lat="44.82973" lon="6.39868">
        <ele>1618.2</ele>
        <time>2024-08-12T04:37:32Z</time>
      </trkpt>
      <trkpt lat="44.82972" lon="6.39865">
        <ele>1618.2</ele>
        <time>2024-08-12T04:37:33Z</time>
      </trkpt>
      <trkpt lat="44.82972" lon="6.39865">
        <ele>1618.2</ele>
        <time>2024-08-12T04:37:34Z</time>
      </trkpt>
      <trkpt lat="44.82971" lon="6.39862">
        <ele>1618.2</ele>
        <time>2024-08-12T04:37:35Z</time>
      </trkpt>
      <trkpt lat="44.82971" lon="6.39862">
        <ele>1618.2</ele>
        <time>2024-08-12T04:37:36Z</time>
      </trkpt>
      <trkpt lat="44.82969" lon="6.39859">
        <ele>1618.2</ele>
        <time>2024-08-12T04:37:37Z</time>
      </trkpt>
      <trkpt lat="44.82969" lon="6.39859">
        <ele>1618.2</ele>
        <time>2024-08-12T04:37:38Z</time>
      </trkpt>
      <trkpt lat="44.82967" lon="6.39856">
        <ele>1618.4</ele>
        <time>2024-08-12T04:37:39Z</time>
      </trkpt>
      <trkpt lat="44.82967" lon="6.39856">
        <ele>1618.4</ele>
        <time>2024-08-12T04:37:40Z</time>
      </trkpt>
      <trkpt lat="44.82966" lon="6.39853">
        <ele>1618.4</ele>
        <time>2024-08-12T04:37:41Z</time>
      </trkpt>
      <trkpt lat="44.82966" lon="6.39853">
        <ele>1618.2</ele>
        <time>2024-08-12T04:37:42Z</time>
      </trkpt>
      <trkpt lat="44.82965" lon="6.3985">
        <ele>1618.2</ele>
        <time>2024-08-12T04:37:43Z</time>
      </trkpt>
      <trkpt lat="44.82965" lon="6.3985">
        <ele>1618.2</ele>
        <time>2024-08-12T04:37:44Z</time>
      </trkpt>
      <trkpt lat="44.82964" lon="6.39847">
        <ele>1618.4</ele>
        <time>2024-08-12T04:37:45Z</time>
      </trkpt>
      <trkpt lat="44.82964" lon="6.39847">
        <ele>1618.4</ele>
        <time>2024-08-12T04:37:46Z</time>
      </trkpt>
      <trkpt lat="44.82963" lon="6.39845">
        <ele>1618.4</ele>
        <time>2024-08-12T04:37:47Z</time>
      </trkpt>
      <trkpt lat="44.82963" lon="6.39845">
        <ele>1618.4</ele>
        <time>2024-08-12T04:37:48Z</time>
      </trkpt>
      <trkpt lat="44.82962" lon="6.39842">
        <ele>1619</ele>
        <time>2024-08-12T04:37:49Z</time>
      </trkpt>
      <trkpt lat="44.82962" lon="6.39842">
        <ele>1619</ele>
        <time>2024-08-12T04:37:50Z</time>
      </trkpt>
      <trkpt lat="44.82961" lon="6.3984">
        <ele>1619</ele>
        <time>2024-08-12T04:37:51Z</time>
      </trkpt>
      <trkpt lat="44.82961" lon="6.3984">
        <ele>1619</ele>
        <time>2024-08-12T04:37:52Z</time>
      </trkpt>
      <trkpt lat="44.82959" lon="6.39837">
        <ele>1619</ele>
        <time>2024-08-12T04:37:53Z</time>
      </trkpt>
      <trkpt lat="44.82959" lon="6.39837">
        <ele>1619.2</ele>
        <time>2024-08-12T04:37:54Z</time>
      </trkpt>
      <trkpt lat="44.82957" lon="6.39835">
        <ele>1619.4</ele>
        <time>2024-08-12T04:37:55Z</time>
      </trkpt>
      <trkpt lat="44.82957" lon="6.39835">
        <ele>1619.4</ele>
        <time>2024-08-12T04:37:56Z</time>
      </trkpt>
      <trkpt lat="44.82956" lon="6.39833">
        <ele>1619.4</ele>
        <time>2024-08-12T04:37:57Z</time>
      </trkpt>
      <trkpt lat="44.82956" lon="6.39833">
        <ele>1619.6</ele>
        <time>2024-08-12T04:37:58Z</time>
      </trkpt>
      <trkpt lat="44.82954" lon="6.39832">
        <ele>1619.8</ele>
        <time>2024-08-12T04:37:59Z</time>
      </trkpt>
      <trkpt lat="44.82954" lon="6.39832">
        <ele>1619.6</ele>
        <time>2024-08-12T04:38:00Z</time>
      </trkpt>
      <trkpt lat="44.82952" lon="6.39829">
        <ele>1619.6</ele>
        <time>2024-08-12T04:38:01Z</time>
      </trkpt>
      <trkpt lat="44.82952" lon="6.39829">
        <ele>1620</ele>
        <time>2024-08-12T04:38:02Z</time>
      </trkpt>
      <trkpt lat="44.8295" lon="6.39826">
        <ele>1620</ele>
        <time>2024-08-12T04:38:03Z</time>
      </trkpt>
      <trkpt lat="44.8295" lon="6.39826">
        <ele>1619.8</ele>
        <time>2024-08-12T04:38:04Z</time>
      </trkpt>
      <trkpt lat="44.82949" lon="6.39823">
        <ele>1619.8</ele>
        <time>2024-08-12T04:38:05Z</time>
      </trkpt>
      <trkpt lat="44.82949" lon="6.39823">
        <ele>1619.8</ele>
        <time>2024-08-12T04:38:06Z</time>
      </trkpt>
      <trkpt lat="44.82948" lon="6.39821">
        <ele>1620</ele>
        <time>2024-08-12T04:38:07Z</time>
      </trkpt>
      <trkpt lat="44.82948" lon="6.39821">
        <ele>1620.2</ele>
        <time>2024-08-12T04:38:08Z</time>
      </trkpt>
      <trkpt lat="44.82946" lon="6.39818">
        <ele>1620.2</ele>
        <time>2024-08-12T04:38:09Z</time>
      </trkpt>
      <trkpt lat="44.82946" lon="6.39818">
        <ele>1620.4</ele>
        <time>2024-08-12T04:38:10Z</time>
      </trkpt>
      <trkpt lat="44.82944" lon="6.39814">
        <ele>1620.6</ele>
        <time>2024-08-12T04:38:11Z</time>
      </trkpt>
      <trkpt lat="44.82944" lon="6.39814">
        <ele>1620.6</ele>
        <time>2024-08-12T04:38:12Z</time>
      </trkpt>
      <trkpt lat="44.82943" lon="6.39811">
        <ele>1620.6</ele>
        <time>2024-08-12T04:38:13Z</time>
      </trkpt>
      <trkpt lat="44.82943" lon="6.39811">
        <ele>1620.4</ele>
        <time>2024-08-12T04:38:14Z</time>
      </trkpt>
      <trkpt lat="44.82942" lon="6.39808">
        <ele>1620.4</ele>
        <time>2024-08-12T04:38:15Z</time>
      </trkpt>
      <trkpt lat="44.82942" lon="6.39808">
        <ele>1620.6</ele>
        <time>2024-08-12T04:38:16Z</time>
      </trkpt>
      <trkpt lat="44.82942" lon="6.39804">
        <ele>1620.8</ele>
        <time>2024-08-12T04:38:17Z</time>
      </trkpt>
      <trkpt lat="44.82942" lon="6.39804">
        <ele>1620.8</ele>
        <time>2024-08-12T04:38:18Z</time>
      </trkpt>
      <trkpt lat="44.8294" lon="6.39802">
        <ele>1620.8</ele>
        <time>2024-08-12T04:38:19Z</time>
      </trkpt>
      <trkpt lat="44.8294" lon="6.39802">
        <ele>1620.8</ele>
        <time>2024-08-12T04:38:20Z</time>
      </trkpt>
      <trkpt lat="44.82939" lon="6.39799">
        <ele>1621</ele>
        <time>2024-08-12T04:38:21Z</time>
      </trkpt>
      <trkpt lat="44.82939" lon="6.39799">
        <ele>1621</ele>
        <time>2024-08-12T04:38:22Z</time>
      </trkpt>
      <trkpt lat="44.82938" lon="6.39797">
        <ele>1621.2</ele>
        <time>2024-08-12T04:38:23Z</time>
      </trkpt>
      <trkpt lat="44.82938" lon="6.39797">
        <ele>1621.2</ele>
        <time>2024-08-12T04:38:24Z</time>
      </trkpt>
      <trkpt lat="44.82936" lon="6.39795">
        <ele>1621.2</ele>
        <time>2024-08-12T04:38:25Z</time>
      </trkpt>
      <trkpt lat="44.82936" lon="6.39795">
        <ele>1621.4</ele>
        <time>2024-08-12T04:38:26Z</time>
      </trkpt>
      <trkpt lat="44.82934" lon="6.39793">
        <ele>1621.4</ele>
        <time>2024-08-12T04:38:27Z</time>
      </trkpt>
      <trkpt lat="44.82934" lon="6.39793">
        <ele>1621.4</ele>
        <time>2024-08-12T04:38:28Z</time>
      </trkpt>
      <trkpt lat="44.82932" lon="6.39792">
        <ele>1621.4</ele>
        <time>2024-08-12T04:38:29Z</time>
      </trkpt>
      <trkpt lat="44.82932" lon="6.39792">
        <ele>1621.6</ele>
        <time>2024-08-12T04:38:30Z</time>
      </trkpt>
      <trkpt lat="44.8293" lon="6.3979">
        <ele>1621.6</ele>
        <time>2024-08-12T04:38:31Z</time>
      </trkpt>
      <trkpt lat="44.8293" lon="6.3979">
        <ele>1621.6</ele>
        <time>2024-08-12T04:38:32Z</time>
      </trkpt>
      <trkpt lat="44.82928" lon="6.39788">
        <ele>1621.6</ele>
        <time>2024-08-12T04:38:33Z</time>
      </trkpt>
      <trkpt lat="44.82928" lon="6.39788">
        <ele>1621.6</ele>
        <time>2024-08-12T04:38:34Z</time>
      </trkpt>
      <trkpt lat="44.82926" lon="6.39785">
        <ele>1621.6</ele>
        <time>2024-08-12T04:38:35Z</time>
      </trkpt>
      <trkpt lat="44.82926" lon="6.39785">
        <ele>1621.6</ele>
        <time>2024-08-12T04:38:36Z</time>
      </trkpt>
      <trkpt lat="44.82925" lon="6.39783">
        <ele>1621.8</ele>
        <time>2024-08-12T04:38:37Z</time>
      </trkpt>
      <trkpt lat="44.82925" lon="6.39783">
        <ele>1622</ele>
        <time>2024-08-12T04:38:38Z</time>
      </trkpt>
      <trkpt lat="44.82923" lon="6.3978">
        <ele>1622</ele>
        <time>2024-08-12T04:38:39Z</time>
      </trkpt>
      <trkpt lat="44.82923" lon="6.3978">
        <ele>1622.2</ele>
        <time>2024-08-12T04:38:40Z</time>
      </trkpt>
      <trkpt lat="44.82922" lon="6.39777">
        <ele>1622.4</ele>
        <time>2024-08-12T04:38:41Z</time>
      </trkpt>
      <trkpt lat="44.82922" lon="6.39777">
        <ele>1622.4</ele>
        <time>2024-08-12T04:38:42Z</time>
      </trkpt>
      <trkpt lat="44.82922" lon="6.39774">
        <ele>1622.4</ele>
        <time>2024-08-12T04:38:43Z</time>
      </trkpt>
      <trkpt lat="44.82922" lon="6.39774">
        <ele>1622.6</ele>
        <time>2024-08-12T04:38:44Z</time>
      </trkpt>
      <trkpt lat="44.82921" lon="6.39771">
        <ele>1622.8</ele>
        <time>2024-08-12T04:38:45Z</time>
      </trkpt>
      <trkpt lat="44.82921" lon="6.39771">
        <ele>1622.8</ele>
        <time>2024-08-12T04:38:46Z</time>
      </trkpt>
      <trkpt lat="44.8292" lon="6.39768">
        <ele>1622.6</ele>
        <time>2024-08-12T04:38:47Z</time>
      </trkpt>
      <trkpt lat="44.8292" lon="6.39768">
        <ele>1622.6</ele>
        <time>2024-08-12T04:38:48Z</time>
      </trkpt>
      <trkpt lat="44.82919" lon="6.39765">
        <ele>1622.8</ele>
        <time>2024-08-12T04:38:49Z</time>
      </trkpt>
      <trkpt lat="44.82919" lon="6.39765">
        <ele>1622.8</ele>
        <time>2024-08-12T04:38:50Z</time>
      </trkpt>
      <trkpt lat="44.82918" lon="6.39762">
        <ele>1622.8</ele>
        <time>2024-08-12T04:38:51Z</time>
      </trkpt>
      <trkpt lat="44.82918" lon="6.39762">
        <ele>1622.8</ele>
        <time>2024-08-12T04:38:52Z</time>
      </trkpt>
      <trkpt lat="44.82916" lon="6.39758">
        <ele>1623</ele>
        <time>2024-08-12T04:38:53Z</time>
      </trkpt>
      <trkpt lat="44.82916" lon="6.39758">
        <ele>1623</ele>
        <time>2024-08-12T04:38:54Z</time>
      </trkpt>
      <trkpt lat="44.82915" lon="6.39755">
        <ele>1623.2</ele>
        <time>2024-08-12T04:38:55Z</time>
      </trkpt>
      <trkpt lat="44.82915" lon="6.39755">
        <ele>1623.4</ele>
        <time>2024-08-12T04:38:56Z</time>
      </trkpt>
      <trkpt lat="44.82914" lon="6.39752">
        <ele>1623.4</ele>
        <time>2024-08-12T04:38:57Z</time>
      </trkpt>
      <trkpt lat="44.82914" lon="6.39752">
        <ele>1623.4</ele>
        <time>2024-08-12T04:38:58Z</time>
      </trkpt>
      <trkpt lat="44.82912" lon="6.39749">
        <ele>1623.6</ele>
        <time>2024-08-12T04:38:59Z</time>
      </trkpt>
      <trkpt lat="44.82912" lon="6.39749">
        <ele>1623.8</ele>
        <time>2024-08-12T04:39:00Z</time>
      </trkpt>
      <trkpt lat="44.82911" lon="6.39746">
        <ele>1624</ele>
        <time>2024-08-12T04:39:01Z</time>
      </trkpt>
      <trkpt lat="44.82911" lon="6.39746">
        <ele>1624.2</ele>
        <time>2024-08-12T04:39:02Z</time>
      </trkpt>
      <trkpt lat="44.8291" lon="6.39743">
        <ele>1624.2</ele>
        <time>2024-08-12T04:39:03Z</time>
      </trkpt>
      <trkpt lat="44.8291" lon="6.39743">
        <ele>1624.2</ele>
        <time>2024-08-12T04:39:04Z</time>
      </trkpt>
      <trkpt lat="44.82908" lon="6.3974">
        <ele>1624.2</ele>
        <time>2024-08-12T04:39:05Z</time>
      </trkpt>
      <trkpt lat="44.82908" lon="6.3974">
        <ele>1624.2</ele>
        <time>2024-08-12T04:39:06Z</time>
      </trkpt>
      <trkpt lat="44.82907" lon="6.39736">
        <ele>1624.4</ele>
        <time>2024-08-12T04:39:07Z</time>
      </trkpt>
      <trkpt lat="44.82907" lon="6.39736">
        <ele>1624.6</ele>
        <time>2024-08-12T04:39:08Z</time>
      </trkpt>
      <trkpt lat="44.82906" lon="6.39733">
        <ele>1624.6</ele>
        <time>2024-08-12T04:39:09Z</time>
      </trkpt>
      <trkpt lat="44.82906" lon="6.39733">
        <ele>1624.6</ele>
        <time>2024-08-12T04:39:10Z</time>
      </trkpt>
      <trkpt lat="44.82905" lon="6.3973">
        <ele>1624.6</ele>
        <time>2024-08-12T04:39:11Z</time>
      </trkpt>
      <trkpt lat="44.82905" lon="6.3973">
        <ele>1624.6</ele>
        <time>2024-08-12T04:39:12Z</time>
      </trkpt>
      <trkpt lat="44.82903" lon="6.39727">
        <ele>1624.6</ele>
        <time>2024-08-12T04:39:13Z</time>
      </trkpt>
      <trkpt lat="44.82903" lon="6.39727">
        <ele>1624.8</ele>
        <time>2024-08-12T04:39:14Z</time>
      </trkpt>
      <trkpt lat="44.82901" lon="6.39724">
        <ele>1624.8</ele>
        <time>2024-08-12T04:39:15Z</time>
      </trkpt>
      <trkpt lat="44.82901" lon="6.39724">
        <ele>1624.8</ele>
        <time>2024-08-12T04:39:16Z</time>
      </trkpt>
      <trkpt lat="44.82901" lon="6.39721">
        <ele>1624.8</ele>
        <time>2024-08-12T04:39:17Z</time>
      </trkpt>
      <trkpt lat="44.82901" lon="6.39721">
        <ele>1624.8</ele>
        <time>2024-08-12T04:39:18Z</time>
      </trkpt>
      <trkpt lat="44.829" lon="6.39718">
        <ele>1624.8</ele>
        <time>2024-08-12T04:39:19Z</time>
      </trkpt>
      <trkpt lat="44.829" lon="6.39718">
        <ele>1625</ele>
        <time>2024-08-12T04:39:20Z</time>
      </trkpt>
      <trkpt lat="44.82899" lon="6.39715">
        <ele>1625.2</ele>
        <time>2024-08-12T04:39:21Z</time>
      </trkpt>
      <trkpt lat="44.82899" lon="6.39715">
        <ele>1625.2</ele>
        <time>2024-08-12T04:39:22Z</time>
      </trkpt>
      <trkpt lat="44.82898" lon="6.39711">
        <ele>1625.2</ele>
        <time>2024-08-12T04:39:23Z</time>
      </trkpt>
      <trkpt lat="44.82898" lon="6.39711">
        <ele>1625.2</ele>
        <time>2024-08-12T04:39:24Z</time>
      </trkpt>
      <trkpt lat="44.82896" lon="6.39708">
        <ele>1625.2</ele>
        <time>2024-08-12T04:39:25Z</time>
      </trkpt>
      <trkpt lat="44.82896" lon="6.39708">
        <ele>1625.2</ele>
        <time>2024-08-12T04:39:26Z</time>
      </trkpt>
      <trkpt lat="44.82894" lon="6.39705">
        <ele>1625.2</ele>
        <time>2024-08-12T04:39:27Z</time>
      </trkpt>
      <trkpt lat="44.82894" lon="6.39705">
        <ele>1625.4</ele>
        <time>2024-08-12T04:39:28Z</time>
      </trkpt>
      <trkpt lat="44.82893" lon="6.39702">
        <ele>1625.4</ele>
        <time>2024-08-12T04:39:29Z</time>
      </trkpt>
      <trkpt lat="44.82893" lon="6.39702">
        <ele>1625.4</ele>
        <time>2024-08-12T04:39:30Z</time>
      </trkpt>
      <trkpt lat="44.82893" lon="6.39699">
        <ele>1625.4</ele>
        <time>2024-08-12T04:39:31Z</time>
      </trkpt>
      <trkpt lat="44.82893" lon="6.39699">
        <ele>1625.4</ele>
        <time>2024-08-12T04:39:32Z</time>
      </trkpt>
      <trkpt lat="44.82892" lon="6.39696">
        <ele>1625.4</ele>
        <time>2024-08-12T04:39:33Z</time>
      </trkpt>
      <trkpt lat="44.82892" lon="6.39696">
        <ele>1625.4</ele>
        <time>2024-08-12T04:39:34Z</time>
      </trkpt>
      <trkpt lat="44.82893" lon="6.39692">
        <ele>1625.4</ele>
        <time>2024-08-12T04:39:35Z</time>
      </trkpt>
      <trkpt lat="44.82894" lon="6.3969">
        <ele>1625.4</ele>
        <time>2024-08-12T04:39:36Z</time>
      </trkpt>
      <trkpt lat="44.82896" lon="6.39688">
        <ele>1625.4</ele>
        <time>2024-08-12T04:39:37Z</time>
      </trkpt>
      <trkpt lat="44.82896" lon="6.39688">
        <ele>1625.2</ele>
        <time>2024-08-12T04:39:38Z</time>
      </trkpt>
      <trkpt lat="44.82897" lon="6.39685">
        <ele>1624.8</ele>
        <time>2024-08-12T04:39:39Z</time>
      </trkpt>
      <trkpt lat="44.82897" lon="6.39685">
        <ele>1624.8</ele>
        <time>2024-08-12T04:39:40Z</time>
      </trkpt>
      <trkpt lat="44.82898" lon="6.39681">
        <ele>1624.6</ele>
        <time>2024-08-12T04:39:41Z</time>
      </trkpt>
      <trkpt lat="44.82898" lon="6.39681">
        <ele>1624.6</ele>
        <time>2024-08-12T04:39:42Z</time>
      </trkpt>
      <trkpt lat="44.82899" lon="6.39677">
        <ele>1624.8</ele>
        <time>2024-08-12T04:39:43Z</time>
      </trkpt>
      <trkpt lat="44.82899" lon="6.39677">
        <ele>1625</ele>
        <time>2024-08-12T04:39:44Z</time>
      </trkpt>
      <trkpt lat="44.82899" lon="6.39673">
        <ele>1625</ele>
        <time>2024-08-12T04:39:45Z</time>
      </trkpt>
      <trkpt lat="44.82899" lon="6.39673">
        <ele>1625</ele>
        <time>2024-08-12T04:39:46Z</time>
      </trkpt>
      <trkpt lat="44.829" lon="6.39671">
        <ele>1624.8</ele>
        <time>2024-08-12T04:39:47Z</time>
      </trkpt>
      <trkpt lat="44.829" lon="6.39671">
        <ele>1624.8</ele>
        <time>2024-08-12T04:39:48Z</time>
      </trkpt>
      <trkpt lat="44.829" lon="6.39667">
        <ele>1624.8</ele>
        <time>2024-08-12T04:39:49Z</time>
      </trkpt>
      <trkpt lat="44.829" lon="6.39667">
        <ele>1625</ele>
        <time>2024-08-12T04:39:50Z</time>
      </trkpt>
      <trkpt lat="44.829" lon="6.39663">
        <ele>1625.2</ele>
        <time>2024-08-12T04:39:51Z</time>
      </trkpt>
      <trkpt lat="44.829" lon="6.39663">
        <ele>1625.2</ele>
        <time>2024-08-12T04:39:52Z</time>
      </trkpt>
      <trkpt lat="44.82899" lon="6.3966">
        <ele>1625.4</ele>
        <time>2024-08-12T04:39:53Z</time>
      </trkpt>
      <trkpt lat="44.82899" lon="6.3966">
        <ele>1625.4</ele>
        <time>2024-08-12T04:39:54Z</time>
      </trkpt>
      <trkpt lat="44.82899" lon="6.3966">
        <ele>1625.6</ele>
        <time>2024-08-12T04:39:55Z</time>
      </trkpt>
      <trkpt lat="44.82897" lon="6.39658">
        <ele>1626</ele>
        <time>2024-08-12T04:39:56Z</time>
      </trkpt>
      <trkpt lat="44.82897" lon="6.39658">
        <ele>1626.2</ele>
        <time>2024-08-12T04:39:57Z</time>
      </trkpt>
      <trkpt lat="44.82896" lon="6.39656">
        <ele>1626.4</ele>
        <time>2024-08-12T04:39:58Z</time>
      </trkpt>
      <trkpt lat="44.82896" lon="6.39656">
        <ele>1626.8</ele>
        <time>2024-08-12T04:39:59Z</time>
      </trkpt>
      <trkpt lat="44.82893" lon="6.39656">
        <ele>1627.4</ele>
        <time>2024-08-12T04:40:01Z</time>
      </trkpt>
      <trkpt lat="44.82893" lon="6.39656">
        <ele>1627.4</ele>
        <time>2024-08-12T04:40:02Z</time>
      </trkpt>
      <trkpt lat="44.82893" lon="6.39656">
        <ele>1627.4</ele>
        <time>2024-08-12T04:40:03Z</time>
      </trkpt>
      <trkpt lat="44.82891" lon="6.39654">
        <ele>1627.8</ele>
        <time>2024-08-12T04:40:04Z</time>
      </trkpt>
      <trkpt lat="44.82891" lon="6.39654">
        <ele>1628</ele>
        <time>2024-08-12T04:40:05Z</time>
      </trkpt>
      <trkpt lat="44.82891" lon="6.39654">
        <ele>1628</ele>
        <time>2024-08-12T04:40:06Z</time>
      </trkpt>
      <trkpt lat="44.82891" lon="6.39654">
        <ele>1628.2</ele>
        <time>2024-08-12T04:40:07Z</time>
      </trkpt>
      <trkpt lat="44.82889" lon="6.39651">
        <ele>1628.4</ele>
        <time>2024-08-12T04:40:08Z</time>
      </trkpt>
      <trkpt lat="44.82889" lon="6.39651">
        <ele>1628.8</ele>
        <time>2024-08-12T04:40:09Z</time>
      </trkpt>
      <trkpt lat="44.82888" lon="6.39648">
        <ele>1628.8</ele>
        <time>2024-08-12T04:40:10Z</time>
      </trkpt>
      <trkpt lat="44.82888" lon="6.39648">
        <ele>1629</ele>
        <time>2024-08-12T04:40:11Z</time>
      </trkpt>
      <trkpt lat="44.82888" lon="6.39648">
        <ele>1629.2</ele>
        <time>2024-08-12T04:40:12Z</time>
      </trkpt>
      <trkpt lat="44.82886" lon="6.39647">
        <ele>1629.2</ele>
        <time>2024-08-12T04:40:13Z</time>
      </trkpt>
      <trkpt lat="44.82886" lon="6.39647">
        <ele>1629.6</ele>
        <time>2024-08-12T04:40:14Z</time>
      </trkpt>
      <trkpt lat="44.82886" lon="6.39647">
        <ele>1629.8</ele>
        <time>2024-08-12T04:40:15Z</time>
      </trkpt>
      <trkpt lat="44.82885" lon="6.39644">
        <ele>1629.8</ele>
        <time>2024-08-12T04:40:16Z</time>
      </trkpt>
      <trkpt lat="44.82885" lon="6.39644">
        <ele>1630</ele>
        <time>2024-08-12T04:40:17Z</time>
      </trkpt>
      <trkpt lat="44.82884" lon="6.39642">
        <ele>1630.4</ele>
        <time>2024-08-12T04:40:18Z</time>
      </trkpt>
      <trkpt lat="44.82884" lon="6.39642">
        <ele>1630.6</ele>
        <time>2024-08-12T04:40:19Z</time>
      </trkpt>
      <trkpt lat="44.82882" lon="6.39641">
        <ele>1630.6</ele>
        <time>2024-08-12T04:40:20Z</time>
      </trkpt>
      <trkpt lat="44.82882" lon="6.39641">
        <ele>1630.8</ele>
        <time>2024-08-12T04:40:21Z</time>
      </trkpt>
      <trkpt lat="44.82882" lon="6.39641">
        <ele>1630.8</ele>
        <time>2024-08-12T04:40:22Z</time>
      </trkpt>
      <trkpt lat="44.82881" lon="6.39638">
        <ele>1630.8</ele>
        <time>2024-08-12T04:40:23Z</time>
      </trkpt>
      <trkpt lat="44.82881" lon="6.39638">
        <ele>1631.2</ele>
        <time>2024-08-12T04:40:24Z</time>
      </trkpt>
      <trkpt lat="44.82881" lon="6.39638">
        <ele>1632</ele>
        <time>2024-08-12T04:40:25Z</time>
      </trkpt>
      <trkpt lat="44.82881" lon="6.39634">
        <ele>1632</ele>
        <time>2024-08-12T04:40:26Z</time>
      </trkpt>
      <trkpt lat="44.82881" lon="6.39634">
        <ele>1632</ele>
        <time>2024-08-12T04:40:27Z</time>
      </trkpt>
      <trkpt lat="44.82881" lon="6.39634">
        <ele>1632.6</ele>
        <time>2024-08-12T04:40:28Z</time>
      </trkpt>
      <trkpt lat="44.82881" lon="6.39634">
        <ele>1632.6</ele>
        <time>2024-08-12T04:40:29Z</time>
      </trkpt>
      <trkpt lat="44.82881" lon="6.39634">
        <ele>1632.6</ele>
        <time>2024-08-12T04:40:30Z</time>
      </trkpt>
      <trkpt lat="44.8288" lon="6.39631">
        <ele>1633</ele>
        <time>2024-08-12T04:40:31Z</time>
      </trkpt>
      <trkpt lat="44.8288" lon="6.39631">
        <ele>1633</ele>
        <time>2024-08-12T04:40:32Z</time>
      </trkpt>
      <trkpt lat="44.8288" lon="6.39631">
        <ele>1633.2</ele>
        <time>2024-08-12T04:40:33Z</time>
      </trkpt>
      <trkpt lat="44.82878" lon="6.39629">
        <ele>1633.4</ele>
        <time>2024-08-12T04:40:34Z</time>
      </trkpt>
      <trkpt lat="44.82878" lon="6.39629">
        <ele>1633.6</ele>
        <time>2024-08-12T04:40:35Z</time>
      </trkpt>
      <trkpt lat="44.82878" lon="6.39629">
        <ele>1634</ele>
        <time>2024-08-12T04:40:36Z</time>
      </trkpt>
      <trkpt lat="44.82877" lon="6.39626">
        <ele>1634.2</ele>
        <time>2024-08-12T04:40:37Z</time>
      </trkpt>
      <trkpt lat="44.82877" lon="6.39626">
        <ele>1634.2</ele>
        <time>2024-08-12T04:40:38Z</time>
      </trkpt>
      <trkpt lat="44.82877" lon="6.39626">
        <ele>1634.4</ele>
        <time>2024-08-12T04:40:39Z</time>
      </trkpt>
      <trkpt lat="44.82876" lon="6.39624">
        <ele>1634.6</ele>
        <time>2024-08-12T04:40:40Z</time>
      </trkpt>
      <trkpt lat="44.82876" lon="6.39624">
        <ele>1634.6</ele>
        <time>2024-08-12T04:40:41Z</time>
      </trkpt>
      <trkpt lat="44.82876" lon="6.39624">
        <ele>1635</ele>
        <time>2024-08-12T04:40:42Z</time>
      </trkpt>
      <trkpt lat="44.82876" lon="6.39624">
        <ele>1635.2</ele>
        <time>2024-08-12T04:40:43Z</time>
      </trkpt>
      <trkpt lat="44.82876" lon="6.39624">
        <ele>1635.4</ele>
        <time>2024-08-12T04:40:44Z</time>
      </trkpt>
      <trkpt lat="44.82876" lon="6.39624">
        <ele>1635.4</ele>
        <time>2024-08-12T04:40:45Z</time>
      </trkpt>
      <trkpt lat="44.82876" lon="6.39624">
        <ele>1635.4</ele>
        <time>2024-08-12T04:40:46Z</time>
      </trkpt>
      <trkpt lat="44.82876" lon="6.39624">
        <ele>1635.4</ele>
        <time>2024-08-12T04:40:47Z</time>
      </trkpt>
      <trkpt lat="44.82876" lon="6.39624">
        <ele>1635.4</ele>
        <time>2024-08-12T04:40:48Z</time>
      </trkpt>
      <trkpt lat="44.82876" lon="6.39624">
        <ele>1635.4</ele>
        <time>2024-08-12T04:40:49Z</time>
      </trkpt>
      <trkpt lat="44.82876" lon="6.39624">
        <ele>1635.4</ele>
        <time>2024-08-12T04:40:50Z</time>
      </trkpt>
      <trkpt lat="44.82876" lon="6.39624">
        <ele>1635.4</ele>
        <time>2024-08-12T04:40:51Z</time>
      </trkpt>
      <trkpt lat="44.82876" lon="6.39624">
        <ele>1635.4</ele>
        <time>2024-08-12T04:40:52Z</time>
      </trkpt>
      <trkpt lat="44.82876" lon="6.39624">
        <ele>1635.4</ele>
        <time>2024-08-12T04:40:53Z</time>
      </trkpt>
      <trkpt lat="44.82876" lon="6.39624">
        <ele>1635.4</ele>
        <time>2024-08-12T04:40:54Z</time>
      </trkpt>
      <trkpt lat="44.82876" lon="6.39624">
        <ele>1635.4</ele>
        <time>2024-08-12T04:40:55Z</time>
      </trkpt>
      <trkpt lat="44.82876" lon="6.39624">
        <ele>1635.4</ele>
        <time>2024-08-12T04:40:56Z</time>
      </trkpt>
      <trkpt lat="44.82876" lon="6.39624">
        <ele>1635.6</ele>
        <time>2024-08-12T04:40:57Z</time>
      </trkpt>
      <trkpt lat="44.82876" lon="6.39624">
        <ele>1635.4</ele>
        <time>2024-08-12T04:40:58Z</time>
      </trkpt>
      <trkpt lat="44.82876" lon="6.39624">
        <ele>1635.6</ele>
        <time>2024-08-12T04:40:59Z</time>
      </trkpt>
      <trkpt lat="44.82875" lon="6.39626">
        <ele>1635.6</ele>
        <time>2024-08-12T04:41:00Z</time>
      </trkpt>
      <trkpt lat="44.82875" lon="6.39626">
        <ele>1635.6</ele>
        <time>2024-08-12T04:41:01Z</time>
      </trkpt>
      <trkpt lat="44.82872" lon="6.39626">
        <ele>1636</ele>
        <time>2024-08-12T04:41:02Z</time>
      </trkpt>
      <trkpt lat="44.82872" lon="6.39626">
        <ele>1636</ele>
        <time>2024-08-12T04:41:03Z</time>
      </trkpt>
      <trkpt lat="44.8287" lon="6.39626">
        <ele>1636</ele>
        <time>2024-08-12T04:41:04Z</time>
      </trkpt>
      <trkpt lat="44.8287" lon="6.39626">
        <ele>1636</ele>
        <time>2024-08-12T04:41:05Z</time>
      </trkpt>
      <trkpt lat="44.82868" lon="6.39626">
        <ele>1636.6</ele>
        <time>2024-08-12T04:41:06Z</time>
      </trkpt>
      <trkpt lat="44.82868" lon="6.39626">
        <ele>1637.2</ele>
        <time>2024-08-12T04:41:07Z</time>
      </trkpt>
      <trkpt lat="44.82868" lon="6.39626">
        <ele>1637.2</ele>
        <time>2024-08-12T04:41:08Z</time>
      </trkpt>
      <trkpt lat="44.82865" lon="6.39627">
        <ele>1637.4</ele>
        <time>2024-08-12T04:41:09Z</time>
      </trkpt>
      <trkpt lat="44.82865" lon="6.39627">
        <ele>1637.6</ele>
        <time>2024-08-12T04:41:10Z</time>
      </trkpt>
      <trkpt lat="44.82865" lon="6.39627">
        <ele>1637.6</ele>
        <time>2024-08-12T04:41:11Z</time>
      </trkpt>
      <trkpt lat="44.82865" lon="6.39627">
        <ele>1638</ele>
        <time>2024-08-12T04:41:12Z</time>
      </trkpt>
      <trkpt lat="44.82863" lon="6.39628">
        <ele>1638.2</ele>
        <time>2024-08-12T04:41:13Z</time>
      </trkpt>
      <trkpt lat="44.82863" lon="6.39628">
        <ele>1638.4</ele>
        <time>2024-08-12T04:41:14Z</time>
      </trkpt>
      <trkpt lat="44.82863" lon="6.39628">
        <ele>1638.8</ele>
        <time>2024-08-12T04:41:15Z</time>
      </trkpt>
      <trkpt lat="44.82861" lon="6.39628">
        <ele>1639</ele>
        <time>2024-08-12T04:41:16Z</time>
      </trkpt>
      <trkpt lat="44.82861" lon="6.39628">
        <ele>1639</ele>
        <time>2024-08-12T04:41:17Z</time>
      </trkpt>
      <trkpt lat="44.82861" lon="6.39628">
        <ele>1639.2</ele>
        <time>2024-08-12T04:41:18Z</time>
      </trkpt>
      <trkpt lat="44.82861" lon="6.39628">
        <ele>1639.2</ele>
        <time>2024-08-12T04:41:19Z</time>
      </trkpt>
      <trkpt lat="44.82861" lon="6.39628">
        <ele>1639.2</ele>
        <time>2024-08-12T04:41:20Z</time>
      </trkpt>
      <trkpt lat="44.82861" lon="6.39628">
        <ele>1639</ele>
        <time>2024-08-12T04:41:21Z</time>
      </trkpt>
      <trkpt lat="44.82861" lon="6.39628">
        <ele>1639</ele>
        <time>2024-08-12T04:41:22Z</time>
      </trkpt>
      <trkpt lat="44.82861" lon="6.39628">
        <ele>1639</ele>
        <time>2024-08-12T04:41:23Z</time>
      </trkpt>
      <trkpt lat="44.82861" lon="6.39628">
        <ele>1639</ele>
        <time>2024-08-12T04:41:24Z</time>
      </trkpt>
      <trkpt lat="44.82861" lon="6.39628">
        <ele>1639</ele>
        <time>2024-08-12T04:41:25Z</time>
      </trkpt>
      <trkpt lat="44.82861" lon="6.39628">
        <ele>1639</ele>
        <time>2024-08-12T04:41:26Z</time>
      </trkpt>
      <trkpt lat="44.82861" lon="6.39628">
        <ele>1639.2</ele>
        <time>2024-08-12T04:41:27Z</time>
      </trkpt>
      <trkpt lat="44.82861" lon="6.39628">
        <ele>1639.2</ele>
        <time>2024-08-12T04:41:28Z</time>
      </trkpt>
      <trkpt lat="44.82861" lon="6.39628">
        <ele>1639</ele>
        <time>2024-08-12T04:41:29Z</time>
      </trkpt>
      <trkpt lat="44.82861" lon="6.39628">
        <ele>1639</ele>
        <time>2024-08-12T04:41:30Z</time>
      </trkpt>
      <trkpt lat="44.82861" lon="6.39628">
        <ele>1639.2</ele>
        <time>2024-08-12T04:41:31Z</time>
      </trkpt>
      <trkpt lat="44.82861" lon="6.39628">
        <ele>1639.2</ele>
        <time>2024-08-12T04:41:32Z</time>
      </trkpt>
      <trkpt lat="44.82861" lon="6.39628">
        <ele>1639.2</ele>
        <time>2024-08-12T04:41:33Z</time>
      </trkpt>
      <trkpt lat="44.82861" lon="6.39628">
        <ele>1639.2</ele>
        <time>2024-08-12T04:41:34Z</time>
      </trkpt>
      <trkpt lat="44.82861" lon="6.39628">
        <ele>1639.2</ele>
        <time>2024-08-12T04:41:35Z</time>
      </trkpt>
      <trkpt lat="44.82861" lon="6.39628">
        <ele>1639.2</ele>
        <time>2024-08-12T04:41:36Z</time>
      </trkpt>
      <trkpt lat="44.82861" lon="6.39628">
        <ele>1639.2</ele>
        <time>2024-08-12T04:41:37Z</time>
      </trkpt>
      <trkpt lat="44.82861" lon="6.39628">
        <ele>1639.2</ele>
        <time>2024-08-12T04:41:38Z</time>
      </trkpt>
      <trkpt lat="44.82861" lon="6.39628">
        <ele>1638.8</ele>
        <time>2024-08-12T04:41:39Z</time>
      </trkpt>
      <trkpt lat="44.82861" lon="6.39628">
        <ele>1638.8</ele>
        <time>2024-08-12T04:41:40Z</time>
      </trkpt>
      <trkpt lat="44.82861" lon="6.39628">
        <ele>1639</ele>
        <time>2024-08-12T04:41:41Z</time>
      </trkpt>
      <trkpt lat="44.82861" lon="6.39628">
        <ele>1639.2</ele>
        <time>2024-08-12T04:41:42Z</time>
      </trkpt>
      <trkpt lat="44.82861" lon="6.39628">
        <ele>1639.2</ele>
        <time>2024-08-12T04:41:43Z</time>
      </trkpt>
      <trkpt lat="44.82861" lon="6.39628">
        <ele>1639.2</ele>
        <time>2024-08-12T04:41:44Z</time>
      </trkpt>
      <trkpt lat="44.82861" lon="6.39628">
        <ele>1639.2</ele>
        <time>2024-08-12T04:41:45Z</time>
      </trkpt>
      <trkpt lat="44.82861" lon="6.39628">
        <ele>1639.2</ele>
        <time>2024-08-12T04:41:46Z</time>
      </trkpt>
      <trkpt lat="44.82861" lon="6.39628">
        <ele>1639.2</ele>
        <time>2024-08-12T04:41:47Z</time>
      </trkpt>
      <trkpt lat="44.82861" lon="6.39628">
        <ele>1639.2</ele>
        <time>2024-08-12T04:41:48Z</time>
      </trkpt>
      <trkpt lat="44.82861" lon="6.39628">
        <ele>1639.2</ele>
        <time>2024-08-12T04:41:49Z</time>
      </trkpt>
      <trkpt lat="44.82861" lon="6.39628">
        <ele>1639.2</ele>
        <time>2024-08-12T04:41:50Z</time>
      </trkpt>
      <trkpt lat="44.82861" lon="6.39628">
        <ele>1639.2</ele>
        <time>2024-08-12T04:41:51Z</time>
      </trkpt>
      <trkpt lat="44.82861" lon="6.39628">
        <ele>1639</ele>
        <time>2024-08-12T04:41:52Z</time>
      </trkpt>
      <trkpt lat="44.82861" lon="6.39628">
        <ele>1639</ele>
        <time>2024-08-12T04:41:53Z</time>
      </trkpt>
      <trkpt lat="44.82861" lon="6.39628">
        <ele>1639.2</ele>
        <time>2024-08-12T04:41:54Z</time>
      </trkpt>
      <trkpt lat="44.82861" lon="6.39628">
        <ele>1639.4</ele>
        <time>2024-08-12T04:41:55Z</time>
      </trkpt>
      <trkpt lat="44.82861" lon="6.39628">
        <ele>1639.4</ele>
        <time>2024-08-12T04:41:56Z</time>
      </trkpt>
      <trkpt lat="44.82861" lon="6.39628">
        <ele>1639.4</ele>
        <time>2024-08-12T04:41:57Z</time>
      </trkpt>
      <trkpt lat="44.82861" lon="6.39628">
        <ele>1639.4</ele>
        <time>2024-08-12T04:41:58Z</time>
      </trkpt>
      <trkpt lat="44.82861" lon="6.39628">
        <ele>1639.4</ele>
        <time>2024-08-12T04:41:59Z</time>
      </trkpt>
      <trkpt lat="44.82861" lon="6.39628">
        <ele>1639.4</ele>
        <time>2024-08-12T04:42:00Z</time>
      </trkpt>
      <trkpt lat="44.82861" lon="6.39628">
        <ele>1639.2</ele>
        <time>2024-08-12T04:42:01Z</time>
      </trkpt>
      <trkpt lat="44.82861" lon="6.39628">
        <ele>1639.2</ele>
        <time>2024-08-12T04:42:02Z</time>
      </trkpt>
      <trkpt lat="44.82861" lon="6.39628">
        <ele>1639.2</ele>
        <time>2024-08-12T04:42:03Z</time>
      </trkpt>
      <trkpt lat="44.82861" lon="6.39628">
        <ele>1639.2</ele>
        <time>2024-08-12T04:42:04Z</time>
      </trkpt>
      <trkpt lat="44.82861" lon="6.39628">
        <ele>1639</ele>
        <time>2024-08-12T04:42:05Z</time>
      </trkpt>
      <trkpt lat="44.82861" lon="6.39628">
        <ele>1638.8</ele>
        <time>2024-08-12T04:42:06Z</time>
      </trkpt>
      <trkpt lat="44.82861" lon="6.39628">
        <ele>1638.8</ele>
        <time>2024-08-12T04:42:07Z</time>
      </trkpt>
      <trkpt lat="44.82861" lon="6.39628">
        <ele>1639</ele>
        <time>2024-08-12T04:42:08Z</time>
      </trkpt>
      <trkpt lat="44.82861" lon="6.39625">
        <ele>1639</ele>
        <time>2024-08-12T04:42:09Z</time>
      </trkpt>
      <trkpt lat="44.82861" lon="6.39625">
        <ele>1639</ele>
        <time>2024-08-12T04:42:10Z</time>
      </trkpt>
      <trkpt lat="44.82861" lon="6.39625">
        <ele>1639</ele>
        <time>2024-08-12T04:42:11Z</time>
      </trkpt>
      <trkpt lat="44.82859" lon="6.39625">
        <ele>1639.4</ele>
        <time>2024-08-12T04:42:12Z</time>
      </trkpt>
      <trkpt lat="44.82859" lon="6.39625">
        <ele>1639.6</ele>
        <time>2024-08-12T04:42:13Z</time>
      </trkpt>
      <trkpt lat="44.82856" lon="6.39624">
        <ele>1639.6</ele>
        <time>2024-08-12T04:42:14Z</time>
      </trkpt>
      <trkpt lat="44.82856" lon="6.39624">
        <ele>1639.6</ele>
        <time>2024-08-12T04:42:15Z</time>
      </trkpt>
      <trkpt lat="44.82853" lon="6.39623">
        <ele>1639.8</ele>
        <time>2024-08-12T04:42:16Z</time>
      </trkpt>
      <trkpt lat="44.82853" lon="6.39623">
        <ele>1640.2</ele>
        <time>2024-08-12T04:42:17Z</time>
      </trkpt>
      <trkpt lat="44.82852" lon="6.39623">
        <ele>1640.4</ele>
        <time>2024-08-12T04:42:18Z</time>
      </trkpt>
      <trkpt lat="44.82852" lon="6.39623">
        <ele>1640.6</ele>
        <time>2024-08-12T04:42:19Z</time>
      </trkpt>
      <trkpt lat="44.8285" lon="6.39623">
        <ele>1640.6</ele>
        <time>2024-08-12T04:42:20Z</time>
      </trkpt>
      <trkpt lat="44.8285" lon="6.39623">
        <ele>1640.8</ele>
        <time>2024-08-12T04:42:21Z</time>
      </trkpt>
      <trkpt lat="44.82848" lon="6.39623">
        <ele>1640.8</ele>
        <time>2024-08-12T04:42:22Z</time>
      </trkpt>
      <trkpt lat="44.82848" lon="6.39623">
        <ele>1640.8</ele>
        <time>2024-08-12T04:42:23Z</time>
      </trkpt>
      <trkpt lat="44.82845" lon="6.39623">
        <ele>1640.8</ele>
        <time>2024-08-12T04:42:24Z</time>
      </trkpt>
      <trkpt lat="44.82845" lon="6.39623">
        <ele>1640.8</ele>
        <time>2024-08-12T04:42:25Z</time>
      </trkpt>
      <trkpt lat="44.82843" lon="6.39623">
        <ele>1640.8</ele>
        <time>2024-08-12T04:42:26Z</time>
      </trkpt>
      <trkpt lat="44.82843" lon="6.39623">
        <ele>1641</ele>
        <time>2024-08-12T04:42:27Z</time>
      </trkpt>
      <trkpt lat="44.82843" lon="6.39623">
        <ele>1641.2</ele>
        <time>2024-08-12T04:42:28Z</time>
      </trkpt>
      <trkpt lat="44.82841" lon="6.39622">
        <ele>1641.2</ele>
        <time>2024-08-12T04:42:29Z</time>
      </trkpt>
      <trkpt lat="44.82841" lon="6.39622">
        <ele>1641.2</ele>
        <time>2024-08-12T04:42:30Z</time>
      </trkpt>
      <trkpt lat="44.82841" lon="6.39622">
        <ele>1641.6</ele>
        <time>2024-08-12T04:42:31Z</time>
      </trkpt>
      <trkpt lat="44.82839" lon="6.39621">
        <ele>1641.8</ele>
        <time>2024-08-12T04:42:32Z</time>
      </trkpt>
      <trkpt lat="44.82839" lon="6.39621">
        <ele>1641.8</ele>
        <time>2024-08-12T04:42:33Z</time>
      </trkpt>
      <trkpt lat="44.82839" lon="6.39621">
        <ele>1642.2</ele>
        <time>2024-08-12T04:42:34Z</time>
      </trkpt>
      <trkpt lat="44.82839" lon="6.39621">
        <ele>1642.2</ele>
        <time>2024-08-12T04:42:35Z</time>
      </trkpt>
      <trkpt lat="44.82839" lon="6.39621">
        <ele>1642.2</ele>
        <time>2024-08-12T04:42:36Z</time>
      </trkpt>
      <trkpt lat="44.82837" lon="6.39622">
        <ele>1642.8</ele>
        <time>2024-08-12T04:42:37Z</time>
      </trkpt>
      <trkpt lat="44.82837" lon="6.39622">
        <ele>1642.8</ele>
        <time>2024-08-12T04:42:38Z</time>
      </trkpt>
      <trkpt lat="44.82837" lon="6.39622">
        <ele>1643</ele>
        <time>2024-08-12T04:42:39Z</time>
      </trkpt>
      <trkpt lat="44.82835" lon="6.39624">
        <ele>1643.2</ele>
        <time>2024-08-12T04:42:40Z</time>
      </trkpt>
      <trkpt lat="44.82835" lon="6.39624">
        <ele>1643.4</ele>
        <time>2024-08-12T04:42:41Z</time>
      </trkpt>
      <trkpt lat="44.82833" lon="6.39626">
        <ele>1643.8</ele>
        <time>2024-08-12T04:42:42Z</time>
      </trkpt>
      <trkpt lat="44.82833" lon="6.39626">
        <ele>1644</ele>
        <time>2024-08-12T04:42:43Z</time>
      </trkpt>
      <trkpt lat="44.8283" lon="6.39626">
        <ele>1644</ele>
        <time>2024-08-12T04:42:44Z</time>
      </trkpt>
      <trkpt lat="44.8283" lon="6.39626">
        <ele>1644.2</ele>
        <time>2024-08-12T04:42:45Z</time>
      </trkpt>
      <trkpt lat="44.82829" lon="6.39626">
        <ele>1644.2</ele>
        <time>2024-08-12T04:42:46Z</time>
      </trkpt>
      <trkpt lat="44.82829" lon="6.39626">
        <ele>1644.4</ele>
        <time>2024-08-12T04:42:47Z</time>
      </trkpt>
      <trkpt lat="44.82826" lon="6.39626">
        <ele>1644.4</ele>
        <time>2024-08-12T04:42:48Z</time>
      </trkpt>
      <trkpt lat="44.82826" lon="6.39626">
        <ele>1644.4</ele>
        <time>2024-08-12T04:42:49Z</time>
      </trkpt>
      <trkpt lat="44.82823" lon="6.39626">
        <ele>1644.4</ele>
        <time>2024-08-12T04:42:50Z</time>
      </trkpt>
      <trkpt lat="44.82823" lon="6.39626">
        <ele>1644.4</ele>
        <time>2024-08-12T04:42:51Z</time>
      </trkpt>
      <trkpt lat="44.8282" lon="6.39626">
        <ele>1644.6</ele>
        <time>2024-08-12T04:42:52Z</time>
      </trkpt>
      <trkpt lat="44.8282" lon="6.39626">
        <ele>1644.8</ele>
        <time>2024-08-12T04:42:53Z</time>
      </trkpt>
      <trkpt lat="44.82818" lon="6.39626">
        <ele>1644.8</ele>
        <time>2024-08-12T04:42:54Z</time>
      </trkpt>
      <trkpt lat="44.82818" lon="6.39626">
        <ele>1644.8</ele>
        <time>2024-08-12T04:42:55Z</time>
      </trkpt>
      <trkpt lat="44.82816" lon="6.39624">
        <ele>1644.8</ele>
        <time>2024-08-12T04:42:56Z</time>
      </trkpt>
      <trkpt lat="44.82816" lon="6.39624">
        <ele>1644.8</ele>
        <time>2024-08-12T04:42:57Z</time>
      </trkpt>
      <trkpt lat="44.82814" lon="6.39623">
        <ele>1645</ele>
        <time>2024-08-12T04:42:58Z</time>
      </trkpt>
      <trkpt lat="44.82814" lon="6.39623">
        <ele>1645.2</ele>
        <time>2024-08-12T04:42:59Z</time>
      </trkpt>
      <trkpt lat="44.82812" lon="6.39621">
        <ele>1645.2</ele>
        <time>2024-08-12T04:43:00Z</time>
      </trkpt>
      <trkpt lat="44.82812" lon="6.39621">
        <ele>1645.2</ele>
        <time>2024-08-12T04:43:01Z</time>
      </trkpt>
      <trkpt lat="44.8281" lon="6.39621">
        <ele>1645.6</ele>
        <time>2024-08-12T04:43:02Z</time>
      </trkpt>
      <trkpt lat="44.8281" lon="6.39621">
        <ele>1645.6</ele>
        <time>2024-08-12T04:43:03Z</time>
      </trkpt>
      <trkpt lat="44.82808" lon="6.3962">
        <ele>1645.6</ele>
        <time>2024-08-12T04:43:04Z</time>
      </trkpt>
      <trkpt lat="44.82808" lon="6.3962">
        <ele>1645.6</ele>
        <time>2024-08-12T04:43:05Z</time>
      </trkpt>
      <trkpt lat="44.82805" lon="6.3962">
        <ele>1645.6</ele>
        <time>2024-08-12T04:43:06Z</time>
      </trkpt>
      <trkpt lat="44.82805" lon="6.3962">
        <ele>1645.6</ele>
        <time>2024-08-12T04:43:07Z</time>
      </trkpt>
      <trkpt lat="44.82802" lon="6.39619">
        <ele>1645.8</ele>
        <time>2024-08-12T04:43:08Z</time>
      </trkpt>
      <trkpt lat="44.82802" lon="6.39619">
        <ele>1646</ele>
        <time>2024-08-12T04:43:09Z</time>
      </trkpt>
      <trkpt lat="44.828" lon="6.39619">
        <ele>1646</ele>
        <time>2024-08-12T04:43:10Z</time>
      </trkpt>
      <trkpt lat="44.828" lon="6.39619">
        <ele>1646</ele>
        <time>2024-08-12T04:43:11Z</time>
      </trkpt>
      <trkpt lat="44.82797" lon="6.39619">
        <ele>1646</ele>
        <time>2024-08-12T04:43:12Z</time>
      </trkpt>
      <trkpt lat="44.82797" lon="6.39619">
        <ele>1646.2</ele>
        <time>2024-08-12T04:43:13Z</time>
      </trkpt>
      <trkpt lat="44.82797" lon="6.39619">
        <ele>1646.2</ele>
        <time>2024-08-12T04:43:14Z</time>
      </trkpt>
      <trkpt lat="44.82794" lon="6.39618">
        <ele>1646.4</ele>
        <time>2024-08-12T04:43:15Z</time>
      </trkpt>
      <trkpt lat="44.82794" lon="6.39618">
        <ele>1646.4</ele>
        <time>2024-08-12T04:43:16Z</time>
      </trkpt>
      <trkpt lat="44.82794" lon="6.39618">
        <ele>1646.6</ele>
        <time>2024-08-12T04:43:17Z</time>
      </trkpt>
      <trkpt lat="44.82794" lon="6.39618">
        <ele>1646.6</ele>
        <time>2024-08-12T04:43:18Z</time>
      </trkpt>
      <trkpt lat="44.82794" lon="6.39618">
        <ele>1646.6</ele>
        <time>2024-08-12T04:43:19Z</time>
      </trkpt>
      <trkpt lat="44.82794" lon="6.39618">
        <ele>1646.6</ele>
        <time>2024-08-12T04:43:20Z</time>
      </trkpt>
      <trkpt lat="44.82794" lon="6.39618">
        <ele>1646.8</ele>
        <time>2024-08-12T04:43:21Z</time>
      </trkpt>
      <trkpt lat="44.82794" lon="6.39618">
        <ele>1646.8</ele>
        <time>2024-08-12T04:43:22Z</time>
      </trkpt>
      <trkpt lat="44.82792" lon="6.39619">
        <ele>1646.6</ele>
        <time>2024-08-12T04:43:23Z</time>
      </trkpt>
      <trkpt lat="44.82792" lon="6.39619">
        <ele>1646.6</ele>
        <time>2024-08-12T04:43:24Z</time>
      </trkpt>
      <trkpt lat="44.8279" lon="6.39618">
        <ele>1646.8</ele>
        <time>2024-08-12T04:43:25Z</time>
      </trkpt>
      <trkpt lat="44.8279" lon="6.39618">
        <ele>1646.8</ele>
        <time>2024-08-12T04:43:26Z</time>
      </trkpt>
      <trkpt lat="44.82787" lon="6.39617">
        <ele>1646.8</ele>
        <time>2024-08-12T04:43:27Z</time>
      </trkpt>
      <trkpt lat="44.82787" lon="6.39617">
        <ele>1646.8</ele>
        <time>2024-08-12T04:43:28Z</time>
      </trkpt>
      <trkpt lat="44.82784" lon="6.39617">
        <ele>1646.8</ele>
        <time>2024-08-12T04:43:29Z</time>
      </trkpt>
      <trkpt lat="44.82784" lon="6.39617">
        <ele>1647</ele>
        <time>2024-08-12T04:43:30Z</time>
      </trkpt>
      <trkpt lat="44.82781" lon="6.39616">
        <ele>1647.2</ele>
        <time>2024-08-12T04:43:31Z</time>
      </trkpt>
      <trkpt lat="44.82781" lon="6.39616">
        <ele>1647.2</ele>
        <time>2024-08-12T04:43:32Z</time>
      </trkpt>
      <trkpt lat="44.82779" lon="6.39616">
        <ele>1647.2</ele>
        <time>2024-08-12T04:43:33Z</time>
      </trkpt>
      <trkpt lat="44.82779" lon="6.39616">
        <ele>1647.2</ele>
        <time>2024-08-12T04:43:34Z</time>
      </trkpt>
      <trkpt lat="44.82777" lon="6.39616">
        <ele>1647.6</ele>
        <time>2024-08-12T04:43:35Z</time>
      </trkpt>
      <trkpt lat="44.82777" lon="6.39616">
        <ele>1647.8</ele>
        <time>2024-08-12T04:43:36Z</time>
      </trkpt>
      <trkpt lat="44.82775" lon="6.39616">
        <ele>1647.8</ele>
        <time>2024-08-12T04:43:37Z</time>
      </trkpt>
      <trkpt lat="44.82775" lon="6.39616">
        <ele>1647.8</ele>
        <time>2024-08-12T04:43:38Z</time>
      </trkpt>
      <trkpt lat="44.82775" lon="6.39616">
        <ele>1648</ele>
        <time>2024-08-12T04:43:39Z</time>
      </trkpt>
      <trkpt lat="44.82775" lon="6.39616">
        <ele>1648</ele>
        <time>2024-08-12T04:43:40Z</time>
      </trkpt>
      <trkpt lat="44.82775" lon="6.39616">
        <ele>1648.2</ele>
        <time>2024-08-12T04:43:41Z</time>
      </trkpt>
      <trkpt lat="44.82775" lon="6.39616">
        <ele>1648.2</ele>
        <time>2024-08-12T04:43:42Z</time>
      </trkpt>
      <trkpt lat="44.82775" lon="6.39616">
        <ele>1648.2</ele>
        <time>2024-08-12T04:43:43Z</time>
      </trkpt>
      <trkpt lat="44.82775" lon="6.39616">
        <ele>1648</ele>
        <time>2024-08-12T04:43:44Z</time>
      </trkpt>
      <trkpt lat="44.82773" lon="6.39617">
        <ele>1648</ele>
        <time>2024-08-12T04:43:45Z</time>
      </trkpt>
      <trkpt lat="44.82773" lon="6.39617">
        <ele>1647.8</ele>
        <time>2024-08-12T04:43:46Z</time>
      </trkpt>
      <trkpt lat="44.82769" lon="6.39618">
        <ele>1647.6</ele>
        <time>2024-08-12T04:43:47Z</time>
      </trkpt>
      <trkpt lat="44.82767" lon="6.39618">
        <ele>1647.6</ele>
        <time>2024-08-12T04:43:48Z</time>
      </trkpt>
      <trkpt lat="44.82767" lon="6.39618">
        <ele>1647.6</ele>
        <time>2024-08-12T04:43:49Z</time>
      </trkpt>
      <trkpt lat="44.82765" lon="6.39619">
        <ele>1647.6</ele>
        <time>2024-08-12T04:43:50Z</time>
      </trkpt>
      <trkpt lat="44.82765" lon="6.39619">
        <ele>1647.6</ele>
        <time>2024-08-12T04:43:51Z</time>
      </trkpt>
      <trkpt lat="44.82762" lon="6.3962">
        <ele>1647.2</ele>
        <time>2024-08-12T04:43:52Z</time>
      </trkpt>
      <trkpt lat="44.82762" lon="6.3962">
        <ele>1647.2</ele>
        <time>2024-08-12T04:43:53Z</time>
      </trkpt>
      <trkpt lat="44.8276" lon="6.39621">
        <ele>1647.4</ele>
        <time>2024-08-12T04:43:54Z</time>
      </trkpt>
      <trkpt lat="44.8276" lon="6.39621">
        <ele>1647.4</ele>
        <time>2024-08-12T04:43:55Z</time>
      </trkpt>
      <trkpt lat="44.82757" lon="6.39621">
        <ele>1647.2</ele>
        <time>2024-08-12T04:43:56Z</time>
      </trkpt>
      <trkpt lat="44.82757" lon="6.39621">
        <ele>1647.2</ele>
        <time>2024-08-12T04:43:57Z</time>
      </trkpt>
      <trkpt lat="44.82755" lon="6.39622">
        <ele>1647.6</ele>
        <time>2024-08-12T04:43:58Z</time>
      </trkpt>
      <trkpt lat="44.82755" lon="6.39622">
        <ele>1647.6</ele>
        <time>2024-08-12T04:43:59Z</time>
      </trkpt>
      <trkpt lat="44.82752" lon="6.39622">
        <ele>1647.6</ele>
        <time>2024-08-12T04:44:00Z</time>
      </trkpt>
      <trkpt lat="44.82752" lon="6.39622">
        <ele>1647.4</ele>
        <time>2024-08-12T04:44:01Z</time>
      </trkpt>
      <trkpt lat="44.82749" lon="6.39622">
        <ele>1647.2</ele>
        <time>2024-08-12T04:44:02Z</time>
      </trkpt>
      <trkpt lat="44.82749" lon="6.39622">
        <ele>1647.2</ele>
        <time>2024-08-12T04:44:03Z</time>
      </trkpt>
      <trkpt lat="44.82748" lon="6.39623">
        <ele>1647.4</ele>
        <time>2024-08-12T04:44:04Z</time>
      </trkpt>
      <trkpt lat="44.82748" lon="6.39623">
        <ele>1647.4</ele>
        <time>2024-08-12T04:44:05Z</time>
      </trkpt>
      <trkpt lat="44.82748" lon="6.39623">
        <ele>1647.6</ele>
        <time>2024-08-12T04:44:06Z</time>
      </trkpt>
      <trkpt lat="44.82745" lon="6.39623">
        <ele>1647.6</ele>
        <time>2024-08-12T04:44:07Z</time>
      </trkpt>
      <trkpt lat="44.82745" lon="6.39623">
        <ele>1647.8</ele>
        <time>2024-08-12T04:44:08Z</time>
      </trkpt>
      <trkpt lat="44.82743" lon="6.39623">
        <ele>1648</ele>
        <time>2024-08-12T04:44:09Z</time>
      </trkpt>
      <trkpt lat="44.82743" lon="6.39623">
        <ele>1648</ele>
        <time>2024-08-12T04:44:10Z</time>
      </trkpt>
      <trkpt lat="44.82743" lon="6.39623">
        <ele>1648.2</ele>
        <time>2024-08-12T04:44:11Z</time>
      </trkpt>
      <trkpt lat="44.82741" lon="6.39622">
        <ele>1648.4</ele>
        <time>2024-08-12T04:44:12Z</time>
      </trkpt>
      <trkpt lat="44.82741" lon="6.39622">
        <ele>1648.6</ele>
        <time>2024-08-12T04:44:13Z</time>
      </trkpt>
      <trkpt lat="44.82739" lon="6.39621">
        <ele>1648.8</ele>
        <time>2024-08-12T04:44:14Z</time>
      </trkpt>
      <trkpt lat="44.82739" lon="6.39621">
        <ele>1648.8</ele>
        <time>2024-08-12T04:44:15Z</time>
      </trkpt>
      <trkpt lat="44.82739" lon="6.39621">
        <ele>1649.2</ele>
        <time>2024-08-12T04:44:16Z</time>
      </trkpt>
      <trkpt lat="44.82737" lon="6.39619">
        <ele>1649.2</ele>
        <time>2024-08-12T04:44:17Z</time>
      </trkpt>
      <trkpt lat="44.82737" lon="6.39619">
        <ele>1649.4</ele>
        <time>2024-08-12T04:44:18Z</time>
      </trkpt>
      <trkpt lat="44.82737" lon="6.39619">
        <ele>1649.4</ele>
        <time>2024-08-12T04:44:19Z</time>
      </trkpt>
      <trkpt lat="44.82737" lon="6.39619">
        <ele>1649.6</ele>
        <time>2024-08-12T04:44:20Z</time>
      </trkpt>
      <trkpt lat="44.82735" lon="6.39619">
        <ele>1649.8</ele>
        <time>2024-08-12T04:44:21Z</time>
      </trkpt>
      <trkpt lat="44.82735" lon="6.39619">
        <ele>1650</ele>
        <time>2024-08-12T04:44:22Z</time>
      </trkpt>
      <trkpt lat="44.82733" lon="6.39618">
        <ele>1650.6</ele>
        <time>2024-08-12T04:44:23Z</time>
      </trkpt>
      <trkpt lat="44.82733" lon="6.39618">
        <ele>1650.6</ele>
        <time>2024-08-12T04:44:24Z</time>
      </trkpt>
      <trkpt lat="44.82731" lon="6.39618">
        <ele>1650.8</ele>
        <time>2024-08-12T04:44:25Z</time>
      </trkpt>
      <trkpt lat="44.82731" lon="6.39618">
        <ele>1651.2</ele>
        <time>2024-08-12T04:44:26Z</time>
      </trkpt>
      <trkpt lat="44.82729" lon="6.39618">
        <ele>1651.2</ele>
        <time>2024-08-12T04:44:27Z</time>
      </trkpt>
      <trkpt lat="44.82729" lon="6.39618">
        <ele>1651.2</ele>
        <time>2024-08-12T04:44:28Z</time>
      </trkpt>
      <trkpt lat="44.82729" lon="6.39618">
        <ele>1651.2</ele>
        <time>2024-08-12T04:44:29Z</time>
      </trkpt>
      <trkpt lat="44.82727" lon="6.39618">
        <ele>1651.4</ele>
        <time>2024-08-12T04:44:30Z</time>
      </trkpt>
      <trkpt lat="44.82727" lon="6.39618">
        <ele>1651.8</ele>
        <time>2024-08-12T04:44:31Z</time>
      </trkpt>
      <trkpt lat="44.82725" lon="6.39618">
        <ele>1651.8</ele>
        <time>2024-08-12T04:44:32Z</time>
      </trkpt>
      <trkpt lat="44.82725" lon="6.39618">
        <ele>1651.8</ele>
        <time>2024-08-12T04:44:33Z</time>
      </trkpt>
      <trkpt lat="44.82725" lon="6.39618">
        <ele>1652.2</ele>
        <time>2024-08-12T04:44:34Z</time>
      </trkpt>
      <trkpt lat="44.82723" lon="6.39617">
        <ele>1652.6</ele>
        <time>2024-08-12T04:44:35Z</time>
      </trkpt>
      <trkpt lat="44.82723" lon="6.39617">
        <ele>1652.8</ele>
        <time>2024-08-12T04:44:36Z</time>
      </trkpt>
      <trkpt lat="44.82723" lon="6.39617">
        <ele>1653</ele>
        <time>2024-08-12T04:44:37Z</time>
      </trkpt>
      <trkpt lat="44.82719" lon="6.39618">
        <ele>1652.8</ele>
        <time>2024-08-12T04:44:38Z</time>
      </trkpt>
      <trkpt lat="44.82719" lon="6.39618">
        <ele>1653</ele>
        <time>2024-08-12T04:44:39Z</time>
      </trkpt>
      <trkpt lat="44.82717" lon="6.39618">
        <ele>1653.2</ele>
        <time>2024-08-12T04:44:40Z</time>
      </trkpt>
      <trkpt lat="44.82717" lon="6.39618">
        <ele>1653.4</ele>
        <time>2024-08-12T04:44:41Z</time>
      </trkpt>
      <trkpt lat="44.82715" lon="6.39618">
        <ele>1653.4</ele>
        <time>2024-08-12T04:44:42Z</time>
      </trkpt>
      <trkpt lat="44.82715" lon="6.39618">
        <ele>1653.4</ele>
        <time>2024-08-12T04:44:43Z</time>
      </trkpt>
      <trkpt lat="44.82713" lon="6.39619">
        <ele>1653.4</ele>
        <time>2024-08-12T04:44:44Z</time>
      </trkpt>
      <trkpt lat="44.82713" lon="6.39619">
        <ele>1653.4</ele>
        <time>2024-08-12T04:44:45Z</time>
      </trkpt>
      <trkpt lat="44.82713" lon="6.39619">
        <ele>1653.6</ele>
        <time>2024-08-12T04:44:46Z</time>
      </trkpt>
      <trkpt lat="44.82711" lon="6.39619">
        <ele>1654.2</ele>
        <time>2024-08-12T04:44:47Z</time>
      </trkpt>
      <trkpt lat="44.82711" lon="6.39619">
        <ele>1654.4</ele>
        <time>2024-08-12T04:44:48Z</time>
      </trkpt>
      <trkpt lat="44.82711" lon="6.39619">
        <ele>1654.4</ele>
        <time>2024-08-12T04:44:49Z</time>
      </trkpt>
      <trkpt lat="44.82708" lon="6.3962">
        <ele>1654.8</ele>
        <time>2024-08-12T04:44:50Z</time>
      </trkpt>
      <trkpt lat="44.82708" lon="6.3962">
        <ele>1654.8</ele>
        <time>2024-08-12T04:44:51Z</time>
      </trkpt>
      <trkpt lat="44.82708" lon="6.3962">
        <ele>1655</ele>
        <time>2024-08-12T04:44:52Z</time>
      </trkpt>
      <trkpt lat="44.82708" lon="6.3962">
        <ele>1655.4</ele>
        <time>2024-08-12T04:44:53Z</time>
      </trkpt>
      <trkpt lat="44.82708" lon="6.3962">
        <ele>1655.6</ele>
        <time>2024-08-12T04:44:54Z</time>
      </trkpt>
      <trkpt lat="44.82706" lon="6.39622">
        <ele>1655.6</ele>
        <time>2024-08-12T04:44:55Z</time>
      </trkpt>
      <trkpt lat="44.82706" lon="6.39622">
        <ele>1655.8</ele>
        <time>2024-08-12T04:44:56Z</time>
      </trkpt>
      <trkpt lat="44.82705" lon="6.39625">
        <ele>1655.8</ele>
        <time>2024-08-12T04:44:57Z</time>
      </trkpt>
      <trkpt lat="44.82705" lon="6.39625">
        <ele>1655.6</ele>
        <time>2024-08-12T04:44:58Z</time>
      </trkpt>
      <trkpt lat="44.82703" lon="6.39627">
        <ele>1655.6</ele>
        <time>2024-08-12T04:44:59Z</time>
      </trkpt>
      <trkpt lat="44.82703" lon="6.39627">
        <ele>1655.6</ele>
        <time>2024-08-12T04:45:00Z</time>
      </trkpt>
      <trkpt lat="44.82701" lon="6.39628">
        <ele>1655.6</ele>
        <time>2024-08-12T04:45:01Z</time>
      </trkpt>
      <trkpt lat="44.82701" lon="6.39628">
        <ele>1655.6</ele>
        <time>2024-08-12T04:45:02Z</time>
      </trkpt>
      <trkpt lat="44.82699" lon="6.3963">
        <ele>1655.6</ele>
        <time>2024-08-12T04:45:03Z</time>
      </trkpt>
      <trkpt lat="44.82699" lon="6.3963">
        <ele>1655.6</ele>
        <time>2024-08-12T04:45:04Z</time>
      </trkpt>
      <trkpt lat="44.82697" lon="6.39629">
        <ele>1655.6</ele>
        <time>2024-08-12T04:45:05Z</time>
      </trkpt>
      <trkpt lat="44.82697" lon="6.39629">
        <ele>1655.8</ele>
        <time>2024-08-12T04:45:06Z</time>
      </trkpt>
      <trkpt lat="44.82697" lon="6.39629">
        <ele>1655.8</ele>
        <time>2024-08-12T04:45:07Z</time>
      </trkpt>
      <trkpt lat="44.82694" lon="6.39628">
        <ele>1656</ele>
        <time>2024-08-12T04:45:08Z</time>
      </trkpt>
      <trkpt lat="44.82694" lon="6.39628">
        <ele>1656</ele>
        <time>2024-08-12T04:45:09Z</time>
      </trkpt>
      <trkpt lat="44.82692" lon="6.39627">
        <ele>1656.2</ele>
        <time>2024-08-12T04:45:10Z</time>
      </trkpt>
      <trkpt lat="44.82692" lon="6.39627">
        <ele>1656.4</ele>
        <time>2024-08-12T04:45:11Z</time>
      </trkpt>
      <trkpt lat="44.82692" lon="6.39627">
        <ele>1656.6</ele>
        <time>2024-08-12T04:45:12Z</time>
      </trkpt>
      <trkpt lat="44.8269" lon="6.39627">
        <ele>1656.8</ele>
        <time>2024-08-12T04:45:13Z</time>
      </trkpt>
      <trkpt lat="44.8269" lon="6.39627">
        <ele>1657</ele>
        <time>2024-08-12T04:45:14Z</time>
      </trkpt>
      <trkpt lat="44.82688" lon="6.39627">
        <ele>1657</ele>
        <time>2024-08-12T04:45:15Z</time>
      </trkpt>
      <trkpt lat="44.82688" lon="6.39627">
        <ele>1656.8</ele>
        <time>2024-08-12T04:45:16Z</time>
      </trkpt>
      <trkpt lat="44.82688" lon="6.39627">
        <ele>1656.8</ele>
        <time>2024-08-12T04:45:17Z</time>
      </trkpt>
      <trkpt lat="44.82688" lon="6.39627">
        <ele>1657</ele>
        <time>2024-08-12T04:45:18Z</time>
      </trkpt>
      <trkpt lat="44.82686" lon="6.39625">
        <ele>1657</ele>
        <time>2024-08-12T04:45:19Z</time>
      </trkpt>
      <trkpt lat="44.82686" lon="6.39625">
        <ele>1656.8</ele>
        <time>2024-08-12T04:45:20Z</time>
      </trkpt>
      <trkpt lat="44.82686" lon="6.39625">
        <ele>1656.8</ele>
        <time>2024-08-12T04:45:21Z</time>
      </trkpt>
      <trkpt lat="44.82684" lon="6.39623">
        <ele>1657</ele>
        <time>2024-08-12T04:45:22Z</time>
      </trkpt>
      <trkpt lat="44.82684" lon="6.39623">
        <ele>1657.6</ele>
        <time>2024-08-12T04:45:23Z</time>
      </trkpt>
      <trkpt lat="44.82683" lon="6.3962">
        <ele>1657.8</ele>
        <time>2024-08-12T04:45:24Z</time>
      </trkpt>
      <trkpt lat="44.82683" lon="6.3962">
        <ele>1657.8</ele>
        <time>2024-08-12T04:45:25Z</time>
      </trkpt>
      <trkpt lat="44.82681" lon="6.39618">
        <ele>1657.6</ele>
        <time>2024-08-12T04:45:26Z</time>
      </trkpt>
      <trkpt lat="44.82681" lon="6.39618">
        <ele>1657.6</ele>
        <time>2024-08-12T04:45:27Z</time>
      </trkpt>
      <trkpt lat="44.8268" lon="6.39616">
        <ele>1657.6</ele>
        <time>2024-08-12T04:45:28Z</time>
      </trkpt>
      <trkpt lat="44.8268" lon="6.39616">
        <ele>1657.6</ele>
        <time>2024-08-12T04:45:29Z</time>
      </trkpt>
      <trkpt lat="44.8268" lon="6.39616">
        <ele>1657.8</ele>
        <time>2024-08-12T04:45:30Z</time>
      </trkpt>
      <trkpt lat="44.82678" lon="6.39616">
        <ele>1658</ele>
        <time>2024-08-12T04:45:31Z</time>
      </trkpt>
      <trkpt lat="44.82678" lon="6.39616">
        <ele>1658.4</ele>
        <time>2024-08-12T04:45:32Z</time>
      </trkpt>
      <trkpt lat="44.82676" lon="6.39616">
        <ele>1658.4</ele>
        <time>2024-08-12T04:45:33Z</time>
      </trkpt>
      <trkpt lat="44.82676" lon="6.39616">
        <ele>1658.4</ele>
        <time>2024-08-12T04:45:34Z</time>
      </trkpt>
      <trkpt lat="44.82673" lon="6.39615">
        <ele>1658.6</ele>
        <time>2024-08-12T04:45:35Z</time>
      </trkpt>
      <trkpt lat="44.82673" lon="6.39615">
        <ele>1658.8</ele>
        <time>2024-08-12T04:45:36Z</time>
      </trkpt>
      <trkpt lat="44.82671" lon="6.39615">
        <ele>1658.8</ele>
        <time>2024-08-12T04:45:37Z</time>
      </trkpt>
      <trkpt lat="44.82671" lon="6.39615">
        <ele>1658.4</ele>
        <time>2024-08-12T04:45:38Z</time>
      </trkpt>
      <trkpt lat="44.82669" lon="6.39612">
        <ele>1658.4</ele>
        <time>2024-08-12T04:45:39Z</time>
      </trkpt>
      <trkpt lat="44.82669" lon="6.39612">
        <ele>1658</ele>
        <time>2024-08-12T04:45:40Z</time>
      </trkpt>
      <trkpt lat="44.82668" lon="6.3961">
        <ele>1657.8</ele>
        <time>2024-08-12T04:45:41Z</time>
      </trkpt>
      <trkpt lat="44.82668" lon="6.3961">
        <ele>1657.6</ele>
        <time>2024-08-12T04:45:42Z</time>
      </trkpt>
      <trkpt lat="44.82666" lon="6.39608">
        <ele>1657.4</ele>
        <time>2024-08-12T04:45:43Z</time>
      </trkpt>
      <trkpt lat="44.82666" lon="6.39608">
        <ele>1657.2</ele>
        <time>2024-08-12T04:45:44Z</time>
      </trkpt>
      <trkpt lat="44.82664" lon="6.39608">
        <ele>1657.2</ele>
        <time>2024-08-12T04:45:45Z</time>
      </trkpt>
      <trkpt lat="44.82664" lon="6.39608">
        <ele>1657</ele>
        <time>2024-08-12T04:45:46Z</time>
      </trkpt>
      <trkpt lat="44.82662" lon="6.39609">
        <ele>1657</ele>
        <time>2024-08-12T04:45:47Z</time>
      </trkpt>
      <trkpt lat="44.82662" lon="6.39609">
        <ele>1657</ele>
        <time>2024-08-12T04:45:48Z</time>
      </trkpt>
      <trkpt lat="44.82659" lon="6.39609">
        <ele>1656.8</ele>
        <time>2024-08-12T04:45:49Z</time>
      </trkpt>
      <trkpt lat="44.82659" lon="6.39609">
        <ele>1656.8</ele>
        <time>2024-08-12T04:45:50Z</time>
      </trkpt>
      <trkpt lat="44.82657" lon="6.39609">
        <ele>1656.6</ele>
        <time>2024-08-12T04:45:51Z</time>
      </trkpt>
      <trkpt lat="44.82657" lon="6.39609">
        <ele>1656.6</ele>
        <time>2024-08-12T04:45:52Z</time>
      </trkpt>
      <trkpt lat="44.82657" lon="6.39609">
        <ele>1656.8</ele>
        <time>2024-08-12T04:45:53Z</time>
      </trkpt>
      <trkpt lat="44.82654" lon="6.39609">
        <ele>1656.8</ele>
        <time>2024-08-12T04:45:54Z</time>
      </trkpt>
      <trkpt lat="44.82654" lon="6.39609">
        <ele>1657</ele>
        <time>2024-08-12T04:45:55Z</time>
      </trkpt>
      <trkpt lat="44.82654" lon="6.39609">
        <ele>1657.2</ele>
        <time>2024-08-12T04:45:56Z</time>
      </trkpt>
      <trkpt lat="44.82652" lon="6.39609">
        <ele>1657.4</ele>
        <time>2024-08-12T04:45:57Z</time>
      </trkpt>
      <trkpt lat="44.82652" lon="6.39609">
        <ele>1657.6</ele>
        <time>2024-08-12T04:45:58Z</time>
      </trkpt>
      <trkpt lat="44.8265" lon="6.39609">
        <ele>1657.6</ele>
        <time>2024-08-12T04:45:59Z</time>
      </trkpt>
      <trkpt lat="44.8265" lon="6.39609">
        <ele>1658</ele>
        <time>2024-08-12T04:46:00Z</time>
      </trkpt>
      <trkpt lat="44.8265" lon="6.39609">
        <ele>1658.2</ele>
        <time>2024-08-12T04:46:01Z</time>
      </trkpt>
      <trkpt lat="44.82648" lon="6.39607">
        <ele>1658.8</ele>
        <time>2024-08-12T04:46:02Z</time>
      </trkpt>
      <trkpt lat="44.82648" lon="6.39607">
        <ele>1658.8</ele>
        <time>2024-08-12T04:46:03Z</time>
      </trkpt>
      <trkpt lat="44.82648" lon="6.39607">
        <ele>1658.8</ele>
        <time>2024-08-12T04:46:04Z</time>
      </trkpt>
      <trkpt lat="44.82648" lon="6.39607">
        <ele>1658.6</ele>
        <time>2024-08-12T04:46:05Z</time>
      </trkpt>
      <trkpt lat="44.82645" lon="6.39606">
        <ele>1658.8</ele>
        <time>2024-08-12T04:46:06Z</time>
      </trkpt>
      <trkpt lat="44.82645" lon="6.39606">
        <ele>1658.8</ele>
        <time>2024-08-12T04:46:07Z</time>
      </trkpt>
      <trkpt lat="44.82645" lon="6.39606">
        <ele>1659.6</ele>
        <time>2024-08-12T04:46:08Z</time>
      </trkpt>
      <trkpt lat="44.82645" lon="6.39606">
        <ele>1659.6</ele>
        <time>2024-08-12T04:46:09Z</time>
      </trkpt>
      <trkpt lat="44.82643" lon="6.39606">
        <ele>1659.6</ele>
        <time>2024-08-12T04:46:10Z</time>
      </trkpt>
      <trkpt lat="44.82643" lon="6.39606">
        <ele>1659.8</ele>
        <time>2024-08-12T04:46:11Z</time>
      </trkpt>
      <trkpt lat="44.82643" lon="6.39606">
        <ele>1660.2</ele>
        <time>2024-08-12T04:46:12Z</time>
      </trkpt>
      <trkpt lat="44.82641" lon="6.39605">
        <ele>1660.4</ele>
        <time>2024-08-12T04:46:13Z</time>
      </trkpt>
      <trkpt lat="44.82641" lon="6.39605">
        <ele>1660.4</ele>
        <time>2024-08-12T04:46:14Z</time>
      </trkpt>
      <trkpt lat="44.82641" lon="6.39605">
        <ele>1661</ele>
        <time>2024-08-12T04:46:15Z</time>
      </trkpt>
      <trkpt lat="44.82639" lon="6.39606">
        <ele>1661</ele>
        <time>2024-08-12T04:46:16Z</time>
      </trkpt>
      <trkpt lat="44.82639" lon="6.39606">
        <ele>1661</ele>
        <time>2024-08-12T04:46:17Z</time>
      </trkpt>
      <trkpt lat="44.82639" lon="6.39606">
        <ele>1661</ele>
        <time>2024-08-12T04:46:18Z</time>
      </trkpt>
      <trkpt lat="44.82637" lon="6.39604">
        <ele>1661.2</ele>
        <time>2024-08-12T04:46:19Z</time>
      </trkpt>
      <trkpt lat="44.82637" lon="6.39604">
        <ele>1661.6</ele>
        <time>2024-08-12T04:46:20Z</time>
      </trkpt>
      <trkpt lat="44.82637" lon="6.39604">
        <ele>1661.6</ele>
        <time>2024-08-12T04:46:21Z</time>
      </trkpt>
      <trkpt lat="44.82634" lon="6.39604">
        <ele>1661.8</ele>
        <time>2024-08-12T04:46:22Z</time>
      </trkpt>
      <trkpt lat="44.82634" lon="6.39604">
        <ele>1662</ele>
        <time>2024-08-12T04:46:23Z</time>
      </trkpt>
      <trkpt lat="44.82632" lon="6.39604">
        <ele>1662</ele>
        <time>2024-08-12T04:46:24Z</time>
      </trkpt>
      <trkpt lat="44.82632" lon="6.39604">
        <ele>1662</ele>
        <time>2024-08-12T04:46:25Z</time>
      </trkpt>
      <trkpt lat="44.8263" lon="6.39605">
        <ele>1662</ele>
        <time>2024-08-12T04:46:26Z</time>
      </trkpt>
      <trkpt lat="44.8263" lon="6.39605">
        <ele>1662</ele>
        <time>2024-08-12T04:46:27Z</time>
      </trkpt>
      <trkpt lat="44.82629" lon="6.39603">
        <ele>1662.2</ele>
        <time>2024-08-12T04:46:28Z</time>
      </trkpt>
      <trkpt lat="44.82629" lon="6.39603">
        <ele>1662.2</ele>
        <time>2024-08-12T04:46:29Z</time>
      </trkpt>
      <trkpt lat="44.82626" lon="6.39604">
        <ele>1662.2</ele>
        <time>2024-08-12T04:46:30Z</time>
      </trkpt>
      <trkpt lat="44.82626" lon="6.39604">
        <ele>1662.4</ele>
        <time>2024-08-12T04:46:31Z</time>
      </trkpt>
      <trkpt lat="44.82624" lon="6.39604">
        <ele>1662.4</ele>
        <time>2024-08-12T04:46:32Z</time>
      </trkpt>
      <trkpt lat="44.82624" lon="6.39604">
        <ele>1662.4</ele>
        <time>2024-08-12T04:46:33Z</time>
      </trkpt>
      <trkpt lat="44.82622" lon="6.39605">
        <ele>1662.8</ele>
        <time>2024-08-12T04:46:34Z</time>
      </trkpt>
      <trkpt lat="44.82622" lon="6.39605">
        <ele>1663.2</ele>
        <time>2024-08-12T04:46:35Z</time>
      </trkpt>
      <trkpt lat="44.82621" lon="6.39606">
        <ele>1663.4</ele>
        <time>2024-08-12T04:46:36Z</time>
      </trkpt>
      <trkpt lat="44.82621" lon="6.39606">
        <ele>1663.6</ele>
        <time>2024-08-12T04:46:37Z</time>
      </trkpt>
      <trkpt lat="44.82621" lon="6.39606">
        <ele>1663.8</ele>
        <time>2024-08-12T04:46:38Z</time>
      </trkpt>
      <trkpt lat="44.82619" lon="6.39606">
        <ele>1664</ele>
        <time>2024-08-12T04:46:39Z</time>
      </trkpt>
      <trkpt lat="44.82619" lon="6.39606">
        <ele>1664</ele>
        <time>2024-08-12T04:46:40Z</time>
      </trkpt>
      <trkpt lat="44.82619" lon="6.39606">
        <ele>1664</ele>
        <time>2024-08-12T04:46:41Z</time>
      </trkpt>
      <trkpt lat="44.82616" lon="6.39607">
        <ele>1664.2</ele>
        <time>2024-08-12T04:46:42Z</time>
      </trkpt>
      <trkpt lat="44.82616" lon="6.39607">
        <ele>1664.4</ele>
        <time>2024-08-12T04:46:43Z</time>
      </trkpt>
      <trkpt lat="44.82616" lon="6.39607">
        <ele>1664.6</ele>
        <time>2024-08-12T04:46:44Z</time>
      </trkpt>
      <trkpt lat="44.82614" lon="6.39607">
        <ele>1664.6</ele>
        <time>2024-08-12T04:46:45Z</time>
      </trkpt>
      <trkpt lat="44.82614" lon="6.39607">
        <ele>1664.8</ele>
        <time>2024-08-12T04:46:46Z</time>
      </trkpt>
      <trkpt lat="44.82612" lon="6.39608">
        <ele>1665</ele>
        <time>2024-08-12T04:46:47Z</time>
      </trkpt>
      <trkpt lat="44.82612" lon="6.39608">
        <ele>1665</ele>
        <time>2024-08-12T04:46:48Z</time>
      </trkpt>
      <trkpt lat="44.82611" lon="6.3961">
        <ele>1665</ele>
        <time>2024-08-12T04:46:49Z</time>
      </trkpt>
      <trkpt lat="44.82611" lon="6.3961">
        <ele>1665.2</ele>
        <time>2024-08-12T04:46:50Z</time>
      </trkpt>
      <trkpt lat="44.82611" lon="6.3961">
        <ele>1665.4</ele>
        <time>2024-08-12T04:46:51Z</time>
      </trkpt>
      <trkpt lat="44.82609" lon="6.39611">
        <ele>1665.6</ele>
        <time>2024-08-12T04:46:52Z</time>
      </trkpt>
      <trkpt lat="44.82609" lon="6.39611">
        <ele>1666</ele>
        <time>2024-08-12T04:46:53Z</time>
      </trkpt>
      <trkpt lat="44.82609" lon="6.39611">
        <ele>1666.2</ele>
        <time>2024-08-12T04:46:54Z</time>
      </trkpt>
      <trkpt lat="44.82609" lon="6.39611">
        <ele>1666.2</ele>
        <time>2024-08-12T04:46:55Z</time>
      </trkpt>
      <trkpt lat="44.82606" lon="6.39612">
        <ele>1667</ele>
        <time>2024-08-12T04:46:56Z</time>
      </trkpt>
      <trkpt lat="44.82606" lon="6.39612">
        <ele>1667</ele>
        <time>2024-08-12T04:46:57Z</time>
      </trkpt>
      <trkpt lat="44.82606" lon="6.39612">
        <ele>1667.2</ele>
        <time>2024-08-12T04:46:58Z</time>
      </trkpt>
      <trkpt lat="44.82606" lon="6.39612">
        <ele>1667.2</ele>
        <time>2024-08-12T04:46:59Z</time>
      </trkpt>
      <trkpt lat="44.82606" lon="6.39612">
        <ele>1667.6</ele>
        <time>2024-08-12T04:47:00Z</time>
      </trkpt>
      <trkpt lat="44.82605" lon="6.39613">
        <ele>1667.8</ele>
        <time>2024-08-12T04:47:01Z</time>
      </trkpt>
      <trkpt lat="44.82605" lon="6.39613">
        <ele>1668.4</ele>
        <time>2024-08-12T04:47:02Z</time>
      </trkpt>
      <trkpt lat="44.82605" lon="6.39613">
        <ele>1668.4</ele>
        <time>2024-08-12T04:47:03Z</time>
      </trkpt>
      <trkpt lat="44.82602" lon="6.39614">
        <ele>1668.6</ele>
        <time>2024-08-12T04:47:04Z</time>
      </trkpt>
      <trkpt lat="44.82602" lon="6.39614">
        <ele>1668.8</ele>
        <time>2024-08-12T04:47:05Z</time>
      </trkpt>
      <trkpt lat="44.82602" lon="6.39614">
        <ele>1668.8</ele>
        <time>2024-08-12T04:47:06Z</time>
      </trkpt>
      <trkpt lat="44.826" lon="6.39613">
        <ele>1669.2</ele>
        <time>2024-08-12T04:47:07Z</time>
      </trkpt>
      <trkpt lat="44.826" lon="6.39613">
        <ele>1669.6</ele>
        <time>2024-08-12T04:47:08Z</time>
      </trkpt>
      <trkpt lat="44.826" lon="6.39613">
        <ele>1669.6</ele>
        <time>2024-08-12T04:47:09Z</time>
      </trkpt>
      <trkpt lat="44.826" lon="6.39613">
        <ele>1669.6</ele>
        <time>2024-08-12T04:47:10Z</time>
      </trkpt>
      <trkpt lat="44.82598" lon="6.39614">
        <ele>1669.8</ele>
        <time>2024-08-12T04:47:11Z</time>
      </trkpt>
      <trkpt lat="44.82598" lon="6.39614">
        <ele>1669.8</ele>
        <time>2024-08-12T04:47:12Z</time>
      </trkpt>
      <trkpt lat="44.82597" lon="6.39613">
        <ele>1669.8</ele>
        <time>2024-08-12T04:47:13Z</time>
      </trkpt>
      <trkpt lat="44.82597" lon="6.39613">
        <ele>1669.8</ele>
        <time>2024-08-12T04:47:14Z</time>
      </trkpt>
      <trkpt lat="44.82597" lon="6.39613">
        <ele>1670</ele>
        <time>2024-08-12T04:47:15Z</time>
      </trkpt>
      <trkpt lat="44.82594" lon="6.39613">
        <ele>1670</ele>
        <time>2024-08-12T04:47:16Z</time>
      </trkpt>
      <trkpt lat="44.82594" lon="6.39613">
        <ele>1670</ele>
        <time>2024-08-12T04:47:17Z</time>
      </trkpt>
      <trkpt lat="44.82594" lon="6.39613">
        <ele>1670.2</ele>
        <time>2024-08-12T04:47:18Z</time>
      </trkpt>
      <trkpt lat="44.82592" lon="6.39613">
        <ele>1670.6</ele>
        <time>2024-08-12T04:47:19Z</time>
      </trkpt>
      <trkpt lat="44.82592" lon="6.39613">
        <ele>1670.8</ele>
        <time>2024-08-12T04:47:20Z</time>
      </trkpt>
      <trkpt lat="44.8259" lon="6.39613">
        <ele>1670.8</ele>
        <time>2024-08-12T04:47:21Z</time>
      </trkpt>
      <trkpt lat="44.8259" lon="6.39613">
        <ele>1671.2</ele>
        <time>2024-08-12T04:47:22Z</time>
      </trkpt>
      <trkpt lat="44.8259" lon="6.39613">
        <ele>1671.4</ele>
        <time>2024-08-12T04:47:23Z</time>
      </trkpt>
      <trkpt lat="44.82588" lon="6.39613">
        <ele>1671.4</ele>
        <time>2024-08-12T04:47:24Z</time>
      </trkpt>
      <trkpt lat="44.82588" lon="6.39613">
        <ele>1672</ele>
        <time>2024-08-12T04:47:25Z</time>
      </trkpt>
      <trkpt lat="44.82586" lon="6.39614">
        <ele>1672</ele>
        <time>2024-08-12T04:47:26Z</time>
      </trkpt>
      <trkpt lat="44.82586" lon="6.39614">
        <ele>1672</ele>
        <time>2024-08-12T04:47:27Z</time>
      </trkpt>
      <trkpt lat="44.82584" lon="6.39614">
        <ele>1672.4</ele>
        <time>2024-08-12T04:47:28Z</time>
      </trkpt>
      <trkpt lat="44.82584" lon="6.39614">
        <ele>1672.6</ele>
        <time>2024-08-12T04:47:29Z</time>
      </trkpt>
      <trkpt lat="44.82582" lon="6.39613">
        <ele>1672.6</ele>
        <time>2024-08-12T04:47:30Z</time>
      </trkpt>
      <trkpt lat="44.82582" lon="6.39613">
        <ele>1672.6</ele>
        <time>2024-08-12T04:47:31Z</time>
      </trkpt>
      <trkpt lat="44.8258" lon="6.39614">
        <ele>1673</ele>
        <time>2024-08-12T04:47:32Z</time>
      </trkpt>
      <trkpt lat="44.8258" lon="6.39614">
        <ele>1673.2</ele>
        <time>2024-08-12T04:47:33Z</time>
      </trkpt>
      <trkpt lat="44.82578" lon="6.39615">
        <ele>1673.2</ele>
        <time>2024-08-12T04:47:34Z</time>
      </trkpt>
      <trkpt lat="44.82578" lon="6.39615">
        <ele>1673.2</ele>
        <time>2024-08-12T04:47:35Z</time>
      </trkpt>
      <trkpt lat="44.82576" lon="6.39615">
        <ele>1673.2</ele>
        <time>2024-08-12T04:47:36Z</time>
      </trkpt>
      <trkpt lat="44.82576" lon="6.39615">
        <ele>1673.6</ele>
        <time>2024-08-12T04:47:37Z</time>
      </trkpt>
      <trkpt lat="44.82576" lon="6.39615">
        <ele>1674</ele>
        <time>2024-08-12T04:47:38Z</time>
      </trkpt>
      <trkpt lat="44.82574" lon="6.39615">
        <ele>1674</ele>
        <time>2024-08-12T04:47:39Z</time>
      </trkpt>
      <trkpt lat="44.82574" lon="6.39615">
        <ele>1674</ele>
        <time>2024-08-12T04:47:40Z</time>
      </trkpt>
      <trkpt lat="44.82574" lon="6.39615">
        <ele>1674.2</ele>
        <time>2024-08-12T04:47:41Z</time>
      </trkpt>
      <trkpt lat="44.82572" lon="6.39614">
        <ele>1674.6</ele>
        <time>2024-08-12T04:47:42Z</time>
      </trkpt>
      <trkpt lat="44.82572" lon="6.39614">
        <ele>1674.6</ele>
        <time>2024-08-12T04:47:43Z</time>
      </trkpt>
      <trkpt lat="44.82572" lon="6.39614">
        <ele>1674.8</ele>
        <time>2024-08-12T04:47:44Z</time>
      </trkpt>
      <trkpt lat="44.82569" lon="6.39613">
        <ele>1674.8</ele>
        <time>2024-08-12T04:47:45Z</time>
      </trkpt>
      <trkpt lat="44.82569" lon="6.39613">
        <ele>1675</ele>
        <time>2024-08-12T04:47:46Z</time>
      </trkpt>
      <trkpt lat="44.82567" lon="6.39613">
        <ele>1675.4</ele>
        <time>2024-08-12T04:47:47Z</time>
      </trkpt>
      <trkpt lat="44.82567" lon="6.39613">
        <ele>1675.4</ele>
        <time>2024-08-12T04:47:48Z</time>
      </trkpt>
      <trkpt lat="44.82565" lon="6.39612">
        <ele>1675.6</ele>
        <time>2024-08-12T04:47:49Z</time>
      </trkpt>
      <trkpt lat="44.82565" lon="6.39612">
        <ele>1675.6</ele>
        <time>2024-08-12T04:47:50Z</time>
      </trkpt>
      <trkpt lat="44.82564" lon="6.39612">
        <ele>1675.6</ele>
        <time>2024-08-12T04:47:51Z</time>
      </trkpt>
      <trkpt lat="44.82564" lon="6.39612">
        <ele>1676.2</ele>
        <time>2024-08-12T04:47:52Z</time>
      </trkpt>
      <trkpt lat="44.82564" lon="6.39612">
        <ele>1676.2</ele>
        <time>2024-08-12T04:47:53Z</time>
      </trkpt>
      <trkpt lat="44.82562" lon="6.39611">
        <ele>1676.2</ele>
        <time>2024-08-12T04:47:54Z</time>
      </trkpt>
      <trkpt lat="44.82562" lon="6.39611">
        <ele>1676.2</ele>
        <time>2024-08-12T04:47:55Z</time>
      </trkpt>
      <trkpt lat="44.82562" lon="6.39611">
        <ele>1676.4</ele>
        <time>2024-08-12T04:47:56Z</time>
      </trkpt>
      <trkpt lat="44.82559" lon="6.39609">
        <ele>1676.8</ele>
        <time>2024-08-12T04:47:57Z</time>
      </trkpt>
      <trkpt lat="44.82559" lon="6.39609">
        <ele>1677</ele>
        <time>2024-08-12T04:47:58Z</time>
      </trkpt>
      <trkpt lat="44.82559" lon="6.39609">
        <ele>1677.2</ele>
        <time>2024-08-12T04:47:59Z</time>
      </trkpt>
      <trkpt lat="44.82559" lon="6.39609">
        <ele>1677.4</ele>
        <time>2024-08-12T04:48:00Z</time>
      </trkpt>
      <trkpt lat="44.82559" lon="6.39609">
        <ele>1678</ele>
        <time>2024-08-12T04:48:01Z</time>
      </trkpt>
      <trkpt lat="44.82557" lon="6.39609">
        <ele>1678.2</ele>
        <time>2024-08-12T04:48:02Z</time>
      </trkpt>
      <trkpt lat="44.82557" lon="6.39609">
        <ele>1678.2</ele>
        <time>2024-08-12T04:48:03Z</time>
      </trkpt>
      <trkpt lat="44.82555" lon="6.3961">
        <ele>1678.4</ele>
        <time>2024-08-12T04:48:04Z</time>
      </trkpt>
      <trkpt lat="44.82555" lon="6.3961">
        <ele>1678.4</ele>
        <time>2024-08-12T04:48:05Z</time>
      </trkpt>
      <trkpt lat="44.82553" lon="6.3961">
        <ele>1678.6</ele>
        <time>2024-08-12T04:48:06Z</time>
      </trkpt>
      <trkpt lat="44.82553" lon="6.3961">
        <ele>1678.6</ele>
        <time>2024-08-12T04:48:07Z</time>
      </trkpt>
      <trkpt lat="44.82551" lon="6.3961">
        <ele>1678.8</ele>
        <time>2024-08-12T04:48:08Z</time>
      </trkpt>
      <trkpt lat="44.82551" lon="6.3961">
        <ele>1678.8</ele>
        <time>2024-08-12T04:48:09Z</time>
      </trkpt>
      <trkpt lat="44.82551" lon="6.3961">
        <ele>1678.8</ele>
        <time>2024-08-12T04:48:10Z</time>
      </trkpt>
      <trkpt lat="44.82548" lon="6.3961">
        <ele>1678.8</ele>
        <time>2024-08-12T04:48:11Z</time>
      </trkpt>
      <trkpt lat="44.82548" lon="6.3961">
        <ele>1679</ele>
        <time>2024-08-12T04:48:12Z</time>
      </trkpt>
      <trkpt lat="44.82546" lon="6.39609">
        <ele>1679.4</ele>
        <time>2024-08-12T04:48:13Z</time>
      </trkpt>
      <trkpt lat="44.82546" lon="6.39609">
        <ele>1679.8</ele>
        <time>2024-08-12T04:48:14Z</time>
      </trkpt>
      <trkpt lat="44.82544" lon="6.39607">
        <ele>1679.8</ele>
        <time>2024-08-12T04:48:15Z</time>
      </trkpt>
      <trkpt lat="44.82544" lon="6.39607">
        <ele>1680</ele>
        <time>2024-08-12T04:48:16Z</time>
      </trkpt>
      <trkpt lat="44.82543" lon="6.39606">
        <ele>1680</ele>
        <time>2024-08-12T04:48:17Z</time>
      </trkpt>
      <trkpt lat="44.82543" lon="6.39606">
        <ele>1680.4</ele>
        <time>2024-08-12T04:48:18Z</time>
      </trkpt>
      <trkpt lat="44.82541" lon="6.39604">
        <ele>1680.6</ele>
        <time>2024-08-12T04:48:19Z</time>
      </trkpt>
      <trkpt lat="44.82541" lon="6.39604">
        <ele>1680.6</ele>
        <time>2024-08-12T04:48:20Z</time>
      </trkpt>
      <trkpt lat="44.82541" lon="6.39604">
        <ele>1680.6</ele>
        <time>2024-08-12T04:48:21Z</time>
      </trkpt>
      <trkpt lat="44.82541" lon="6.39604">
        <ele>1680.6</ele>
        <time>2024-08-12T04:48:22Z</time>
      </trkpt>
      <trkpt lat="44.82539" lon="6.39602">
        <ele>1680.6</ele>
        <time>2024-08-12T04:48:23Z</time>
      </trkpt>
      <trkpt lat="44.82539" lon="6.39602">
        <ele>1681</ele>
        <time>2024-08-12T04:48:24Z</time>
      </trkpt>
      <trkpt lat="44.82537" lon="6.39601">
        <ele>1681</ele>
        <time>2024-08-12T04:48:25Z</time>
      </trkpt>
      <trkpt lat="44.82537" lon="6.39601">
        <ele>1681.2</ele>
        <time>2024-08-12T04:48:26Z</time>
      </trkpt>
      <trkpt lat="44.82534" lon="6.396">
        <ele>1681.2</ele>
        <time>2024-08-12T04:48:27Z</time>
      </trkpt>
      <trkpt lat="44.82534" lon="6.396">
        <ele>1681</ele>
        <time>2024-08-12T04:48:28Z</time>
      </trkpt>
      <trkpt lat="44.82533" lon="6.39599">
        <ele>1681</ele>
        <time>2024-08-12T04:48:29Z</time>
      </trkpt>
      <trkpt lat="44.82533" lon="6.39599">
        <ele>1681.2</ele>
        <time>2024-08-12T04:48:30Z</time>
      </trkpt>
      <trkpt lat="44.82533" lon="6.39599">
        <ele>1681.2</ele>
        <time>2024-08-12T04:48:31Z</time>
      </trkpt>
      <trkpt lat="44.8253" lon="6.39599">
        <ele>1681.4</ele>
        <time>2024-08-12T04:48:32Z</time>
      </trkpt>
      <trkpt lat="44.8253" lon="6.39599">
        <ele>1681.4</ele>
        <time>2024-08-12T04:48:33Z</time>
      </trkpt>
      <trkpt lat="44.8253" lon="6.39599">
        <ele>1681.4</ele>
        <time>2024-08-12T04:48:34Z</time>
      </trkpt>
      <trkpt lat="44.82528" lon="6.39598">
        <ele>1681.8</ele>
        <time>2024-08-12T04:48:35Z</time>
      </trkpt>
      <trkpt lat="44.82528" lon="6.39598">
        <ele>1682.2</ele>
        <time>2024-08-12T04:48:36Z</time>
      </trkpt>
      <trkpt lat="44.82528" lon="6.39598">
        <ele>1682.2</ele>
        <time>2024-08-12T04:48:37Z</time>
      </trkpt>
      <trkpt lat="44.82526" lon="6.39597">
        <ele>1682.6</ele>
        <time>2024-08-12T04:48:38Z</time>
      </trkpt>
      <trkpt lat="44.82526" lon="6.39597">
        <ele>1682.8</ele>
        <time>2024-08-12T04:48:39Z</time>
      </trkpt>
      <trkpt lat="44.82526" lon="6.39597">
        <ele>1683</ele>
        <time>2024-08-12T04:48:40Z</time>
      </trkpt>
      <trkpt lat="44.82524" lon="6.39596">
        <ele>1683</ele>
        <time>2024-08-12T04:48:41Z</time>
      </trkpt>
      <trkpt lat="44.82524" lon="6.39596">
        <ele>1683.2</ele>
        <time>2024-08-12T04:48:42Z</time>
      </trkpt>
      <trkpt lat="44.82524" lon="6.39596">
        <ele>1683.4</ele>
        <time>2024-08-12T04:48:43Z</time>
      </trkpt>
      <trkpt lat="44.82521" lon="6.39595">
        <ele>1683.8</ele>
        <time>2024-08-12T04:48:44Z</time>
      </trkpt>
      <trkpt lat="44.82521" lon="6.39595">
        <ele>1684.2</ele>
        <time>2024-08-12T04:48:45Z</time>
      </trkpt>
      <trkpt lat="44.82521" lon="6.39595">
        <ele>1684.2</ele>
        <time>2024-08-12T04:48:46Z</time>
      </trkpt>
      <trkpt lat="44.82519" lon="6.39595">
        <ele>1684.2</ele>
        <time>2024-08-12T04:48:47Z</time>
      </trkpt>
      <trkpt lat="44.82519" lon="6.39595">
        <ele>1684.4</ele>
        <time>2024-08-12T04:48:48Z</time>
      </trkpt>
      <trkpt lat="44.82519" lon="6.39595">
        <ele>1684.6</ele>
        <time>2024-08-12T04:48:49Z</time>
      </trkpt>
      <trkpt lat="44.82517" lon="6.39595">
        <ele>1684.6</ele>
        <time>2024-08-12T04:48:50Z</time>
      </trkpt>
      <trkpt lat="44.82517" lon="6.39595">
        <ele>1684.8</ele>
        <time>2024-08-12T04:48:51Z</time>
      </trkpt>
      <trkpt lat="44.82515" lon="6.39595">
        <ele>1684.8</ele>
        <time>2024-08-12T04:48:52Z</time>
      </trkpt>
      <trkpt lat="44.82515" lon="6.39595">
        <ele>1684.8</ele>
        <time>2024-08-12T04:48:53Z</time>
      </trkpt>
      <trkpt lat="44.82515" lon="6.39595">
        <ele>1685.2</ele>
        <time>2024-08-12T04:48:54Z</time>
      </trkpt>
      <trkpt lat="44.82513" lon="6.39594">
        <ele>1685.6</ele>
        <time>2024-08-12T04:48:55Z</time>
      </trkpt>
      <trkpt lat="44.82513" lon="6.39594">
        <ele>1685.6</ele>
        <time>2024-08-12T04:48:56Z</time>
      </trkpt>
      <trkpt lat="44.82513" lon="6.39594">
        <ele>1685.8</ele>
        <time>2024-08-12T04:48:57Z</time>
      </trkpt>
      <trkpt lat="44.8251" lon="6.39594">
        <ele>1686</ele>
        <time>2024-08-12T04:48:58Z</time>
      </trkpt>
      <trkpt lat="44.8251" lon="6.39594">
        <ele>1686.4</ele>
        <time>2024-08-12T04:48:59Z</time>
      </trkpt>
      <trkpt lat="44.8251" lon="6.39594">
        <ele>1686.6</ele>
        <time>2024-08-12T04:49:00Z</time>
      </trkpt>
      <trkpt lat="44.82508" lon="6.39594">
        <ele>1686.8</ele>
        <time>2024-08-12T04:49:01Z</time>
      </trkpt>
      <trkpt lat="44.82508" lon="6.39594">
        <ele>1687.4</ele>
        <time>2024-08-12T04:49:02Z</time>
      </trkpt>
      <trkpt lat="44.82508" lon="6.39594">
        <ele>1687.4</ele>
        <time>2024-08-12T04:49:03Z</time>
      </trkpt>
      <trkpt lat="44.82505" lon="6.39594">
        <ele>1687.4</ele>
        <time>2024-08-12T04:49:04Z</time>
      </trkpt>
      <trkpt lat="44.82505" lon="6.39594">
        <ele>1687.4</ele>
        <time>2024-08-12T04:49:05Z</time>
      </trkpt>
      <trkpt lat="44.82503" lon="6.39595">
        <ele>1687.4</ele>
        <time>2024-08-12T04:49:06Z</time>
      </trkpt>
      <trkpt lat="44.82503" lon="6.39595">
        <ele>1687.4</ele>
        <time>2024-08-12T04:49:07Z</time>
      </trkpt>
      <trkpt lat="44.82501" lon="6.39595">
        <ele>1687.6</ele>
        <time>2024-08-12T04:49:08Z</time>
      </trkpt>
      <trkpt lat="44.82501" lon="6.39595">
        <ele>1687.6</ele>
        <time>2024-08-12T04:49:09Z</time>
      </trkpt>
      <trkpt lat="44.82499" lon="6.39595">
        <ele>1688</ele>
        <time>2024-08-12T04:49:10Z</time>
      </trkpt>
      <trkpt lat="44.82499" lon="6.39595">
        <ele>1688.2</ele>
        <time>2024-08-12T04:49:11Z</time>
      </trkpt>
      <trkpt lat="44.82499" lon="6.39595">
        <ele>1688.2</ele>
        <time>2024-08-12T04:49:12Z</time>
      </trkpt>
      <trkpt lat="44.82497" lon="6.39594">
        <ele>1688.4</ele>
        <time>2024-08-12T04:49:13Z</time>
      </trkpt>
      <trkpt lat="44.82497" lon="6.39594">
        <ele>1688.8</ele>
        <time>2024-08-12T04:49:14Z</time>
      </trkpt>
      <trkpt lat="44.82497" lon="6.39594">
        <ele>1688.8</ele>
        <time>2024-08-12T04:49:15Z</time>
      </trkpt>
      <trkpt lat="44.82495" lon="6.39593">
        <ele>1689.2</ele>
        <time>2024-08-12T04:49:16Z</time>
      </trkpt>
      <trkpt lat="44.82495" lon="6.39593">
        <ele>1689.2</ele>
        <time>2024-08-12T04:49:17Z</time>
      </trkpt>
      <trkpt lat="44.82495" lon="6.39593">
        <ele>1689.6</ele>
        <time>2024-08-12T04:49:18Z</time>
      </trkpt>
      <trkpt lat="44.82493" lon="6.39594">
        <ele>1689.8</ele>
        <time>2024-08-12T04:49:19Z</time>
      </trkpt>
      <trkpt lat="44.82493" lon="6.39594">
        <ele>1689.8</ele>
        <time>2024-08-12T04:49:20Z</time>
      </trkpt>
      <trkpt lat="44.82491" lon="6.39594">
        <ele>1689.8</ele>
        <time>2024-08-12T04:49:21Z</time>
      </trkpt>
      <trkpt lat="44.82491" lon="6.39594">
        <ele>1690.2</ele>
        <time>2024-08-12T04:49:22Z</time>
      </trkpt>
      <trkpt lat="44.82491" lon="6.39594">
        <ele>1690.2</ele>
        <time>2024-08-12T04:49:23Z</time>
      </trkpt>
      <trkpt lat="44.82489" lon="6.39593">
        <ele>1690.2</ele>
        <time>2024-08-12T04:49:24Z</time>
      </trkpt>
      <trkpt lat="44.82489" lon="6.39593">
        <ele>1690.6</ele>
        <time>2024-08-12T04:49:25Z</time>
      </trkpt>
      <trkpt lat="44.82487" lon="6.39594">
        <ele>1690.8</ele>
        <time>2024-08-12T04:49:26Z</time>
      </trkpt>
      <trkpt lat="44.82487" lon="6.39594">
        <ele>1690.8</ele>
        <time>2024-08-12T04:49:27Z</time>
      </trkpt>
      <trkpt lat="44.82485" lon="6.39595">
        <ele>1690.8</ele>
        <time>2024-08-12T04:49:28Z</time>
      </trkpt>
      <trkpt lat="44.82485" lon="6.39595">
        <ele>1691.2</ele>
        <time>2024-08-12T04:49:29Z</time>
      </trkpt>
      <trkpt lat="44.82485" lon="6.39595">
        <ele>1691.2</ele>
        <time>2024-08-12T04:49:30Z</time>
      </trkpt>
      <trkpt lat="44.82483" lon="6.39595">
        <ele>1691.6</ele>
        <time>2024-08-12T04:49:31Z</time>
      </trkpt>
      <trkpt lat="44.82483" lon="6.39595">
        <ele>1691.6</ele>
        <time>2024-08-12T04:49:32Z</time>
      </trkpt>
      <trkpt lat="44.82483" lon="6.39595">
        <ele>1691.6</ele>
        <time>2024-08-12T04:49:33Z</time>
      </trkpt>
      <trkpt lat="44.82481" lon="6.39593">
        <ele>1692</ele>
        <time>2024-08-12T04:49:34Z</time>
      </trkpt>
      <trkpt lat="44.82481" lon="6.39593">
        <ele>1692</ele>
        <time>2024-08-12T04:49:35Z</time>
      </trkpt>
      <trkpt lat="44.82481" lon="6.39593">
        <ele>1692.2</ele>
        <time>2024-08-12T04:49:36Z</time>
      </trkpt>
      <trkpt lat="44.82479" lon="6.39592">
        <ele>1692.2</ele>
        <time>2024-08-12T04:49:37Z</time>
      </trkpt>
      <trkpt lat="44.82479" lon="6.39592">
        <ele>1692.6</ele>
        <time>2024-08-12T04:49:38Z</time>
      </trkpt>
      <trkpt lat="44.82477" lon="6.39589">
        <ele>1692.8</ele>
        <time>2024-08-12T04:49:39Z</time>
      </trkpt>
      <trkpt lat="44.82477" lon="6.39589">
        <ele>1692.8</ele>
        <time>2024-08-12T04:49:40Z</time>
      </trkpt>
      <trkpt lat="44.82477" lon="6.39589">
        <ele>1692.6</ele>
        <time>2024-08-12T04:49:41Z</time>
      </trkpt>
      <trkpt lat="44.82474" lon="6.39589">
        <ele>1692.6</ele>
        <time>2024-08-12T04:49:42Z</time>
      </trkpt>
      <trkpt lat="44.82474" lon="6.39589">
        <ele>1693.2</ele>
        <time>2024-08-12T04:49:43Z</time>
      </trkpt>
      <trkpt lat="44.82474" lon="6.39589">
        <ele>1693.4</ele>
        <time>2024-08-12T04:49:44Z</time>
      </trkpt>
      <trkpt lat="44.82472" lon="6.39588">
        <ele>1693.8</ele>
        <time>2024-08-12T04:49:45Z</time>
      </trkpt>
      <trkpt lat="44.82472" lon="6.39588">
        <ele>1694</ele>
        <time>2024-08-12T04:49:46Z</time>
      </trkpt>
      <trkpt lat="44.82472" lon="6.39588">
        <ele>1694</ele>
        <time>2024-08-12T04:49:47Z</time>
      </trkpt>
      <trkpt lat="44.8247" lon="6.39587">
        <ele>1694.2</ele>
        <time>2024-08-12T04:49:48Z</time>
      </trkpt>
      <trkpt lat="44.8247" lon="6.39587">
        <ele>1694.4</ele>
        <time>2024-08-12T04:49:49Z</time>
      </trkpt>
      <trkpt lat="44.8247" lon="6.39587">
        <ele>1694.4</ele>
        <time>2024-08-12T04:49:50Z</time>
      </trkpt>
      <trkpt lat="44.82468" lon="6.39587">
        <ele>1695</ele>
        <time>2024-08-12T04:49:51Z</time>
      </trkpt>
      <trkpt lat="44.82468" lon="6.39587">
        <ele>1695.4</ele>
        <time>2024-08-12T04:49:52Z</time>
      </trkpt>
      <trkpt lat="44.82468" lon="6.39587">
        <ele>1695.4</ele>
        <time>2024-08-12T04:49:53Z</time>
      </trkpt>
      <trkpt lat="44.82465" lon="6.39585">
        <ele>1695.2</ele>
        <time>2024-08-12T04:49:54Z</time>
      </trkpt>
      <trkpt lat="44.82465" lon="6.39585">
        <ele>1695</ele>
        <time>2024-08-12T04:49:55Z</time>
      </trkpt>
      <trkpt lat="44.82463" lon="6.39584">
        <ele>1695</ele>
        <time>2024-08-12T04:49:56Z</time>
      </trkpt>
      <trkpt lat="44.82463" lon="6.39584">
        <ele>1695</ele>
        <time>2024-08-12T04:49:57Z</time>
      </trkpt>
      <trkpt lat="44.82461" lon="6.39582">
        <ele>1695</ele>
        <time>2024-08-12T04:49:58Z</time>
      </trkpt>
      <trkpt lat="44.82461" lon="6.39582">
        <ele>1695</ele>
        <time>2024-08-12T04:49:59Z</time>
      </trkpt>
      <trkpt lat="44.82459" lon="6.39581">
        <ele>1695</ele>
        <time>2024-08-12T04:50:00Z</time>
      </trkpt>
      <trkpt lat="44.82459" lon="6.39581">
        <ele>1694.8</ele>
        <time>2024-08-12T04:50:01Z</time>
      </trkpt>
      <trkpt lat="44.82457" lon="6.39581">
        <ele>1694.8</ele>
        <time>2024-08-12T04:50:02Z</time>
      </trkpt>
      <trkpt lat="44.82457" lon="6.39581">
        <ele>1694.8</ele>
        <time>2024-08-12T04:50:03Z</time>
      </trkpt>
      <trkpt lat="44.82455" lon="6.39581">
        <ele>1695</ele>
        <time>2024-08-12T04:50:04Z</time>
      </trkpt>
      <trkpt lat="44.82455" lon="6.39581">
        <ele>1695</ele>
        <time>2024-08-12T04:50:05Z</time>
      </trkpt>
      <trkpt lat="44.82455" lon="6.39581">
        <ele>1695</ele>
        <time>2024-08-12T04:50:06Z</time>
      </trkpt>
      <trkpt lat="44.82453" lon="6.39582">
        <ele>1694.8</ele>
        <time>2024-08-12T04:50:07Z</time>
      </trkpt>
      <trkpt lat="44.82451" lon="6.39581">
        <ele>1694.8</ele>
        <time>2024-08-12T04:50:08Z</time>
      </trkpt>
      <trkpt lat="44.82451" lon="6.39581">
        <ele>1694.6</ele>
        <time>2024-08-12T04:50:09Z</time>
      </trkpt>
      <trkpt lat="44.82448" lon="6.39581">
        <ele>1694.4</ele>
        <time>2024-08-12T04:50:10Z</time>
      </trkpt>
      <trkpt lat="44.82448" lon="6.39581">
        <ele>1694.2</ele>
        <time>2024-08-12T04:50:11Z</time>
      </trkpt>
      <trkpt lat="44.82446" lon="6.39582">
        <ele>1694</ele>
        <time>2024-08-12T04:50:12Z</time>
      </trkpt>
      <trkpt lat="44.82446" lon="6.39582">
        <ele>1694</ele>
        <time>2024-08-12T04:50:13Z</time>
      </trkpt>
      <trkpt lat="44.82444" lon="6.39581">
        <ele>1694</ele>
        <time>2024-08-12T04:50:14Z</time>
      </trkpt>
      <trkpt lat="44.82444" lon="6.39581">
        <ele>1694.2</ele>
        <time>2024-08-12T04:50:15Z</time>
      </trkpt>
      <trkpt lat="44.82441" lon="6.39581">
        <ele>1694.2</ele>
        <time>2024-08-12T04:50:16Z</time>
      </trkpt>
      <trkpt lat="44.82441" lon="6.39581">
        <ele>1694.2</ele>
        <time>2024-08-12T04:50:17Z</time>
      </trkpt>
      <trkpt lat="44.82439" lon="6.39582">
        <ele>1694.4</ele>
        <time>2024-08-12T04:50:18Z</time>
      </trkpt>
      <trkpt lat="44.82439" lon="6.39582">
        <ele>1694.4</ele>
        <time>2024-08-12T04:50:19Z</time>
      </trkpt>
      <trkpt lat="44.82437" lon="6.39582">
        <ele>1694.2</ele>
        <time>2024-08-12T04:50:20Z</time>
      </trkpt>
      <trkpt lat="44.82437" lon="6.39582">
        <ele>1694.2</ele>
        <time>2024-08-12T04:50:21Z</time>
      </trkpt>
      <trkpt lat="44.82434" lon="6.39582">
        <ele>1694.2</ele>
        <time>2024-08-12T04:50:22Z</time>
      </trkpt>
      <trkpt lat="44.82434" lon="6.39582">
        <ele>1694</ele>
        <time>2024-08-12T04:50:23Z</time>
      </trkpt>
      <trkpt lat="44.82432" lon="6.39583">
        <ele>1693.8</ele>
        <time>2024-08-12T04:50:24Z</time>
      </trkpt>
      <trkpt lat="44.82432" lon="6.39583">
        <ele>1694</ele>
        <time>2024-08-12T04:50:25Z</time>
      </trkpt>
      <trkpt lat="44.82432" lon="6.39583">
        <ele>1694</ele>
        <time>2024-08-12T04:50:26Z</time>
      </trkpt>
      <trkpt lat="44.82429" lon="6.39584">
        <ele>1694.4</ele>
        <time>2024-08-12T04:50:27Z</time>
      </trkpt>
      <trkpt lat="44.82429" lon="6.39584">
        <ele>1694.4</ele>
        <time>2024-08-12T04:50:28Z</time>
      </trkpt>
      <trkpt lat="44.82429" lon="6.39584">
        <ele>1694.4</ele>
        <time>2024-08-12T04:50:29Z</time>
      </trkpt>
      <trkpt lat="44.82427" lon="6.39584">
        <ele>1694.6</ele>
        <time>2024-08-12T04:50:30Z</time>
      </trkpt>
      <trkpt lat="44.82427" lon="6.39584">
        <ele>1695</ele>
        <time>2024-08-12T04:50:31Z</time>
      </trkpt>
      <trkpt lat="44.82427" lon="6.39584">
        <ele>1695.2</ele>
        <time>2024-08-12T04:50:32Z</time>
      </trkpt>
      <trkpt lat="44.82425" lon="6.39582">
        <ele>1695.2</ele>
        <time>2024-08-12T04:50:33Z</time>
      </trkpt>
      <trkpt lat="44.82425" lon="6.39582">
        <ele>1695.8</ele>
        <time>2024-08-12T04:50:34Z</time>
      </trkpt>
      <trkpt lat="44.82425" lon="6.39582">
        <ele>1696</ele>
        <time>2024-08-12T04:50:35Z</time>
      </trkpt>
      <trkpt lat="44.82425" lon="6.39582">
        <ele>1696.2</ele>
        <time>2024-08-12T04:50:36Z</time>
      </trkpt>
      <trkpt lat="44.82425" lon="6.39582">
        <ele>1696.4</ele>
        <time>2024-08-12T04:50:37Z</time>
      </trkpt>
      <trkpt lat="44.82422" lon="6.39583">
        <ele>1696.6</ele>
        <time>2024-08-12T04:50:38Z</time>
      </trkpt>
      <trkpt lat="44.82422" lon="6.39583">
        <ele>1697</ele>
        <time>2024-08-12T04:50:39Z</time>
      </trkpt>
      <trkpt lat="44.82422" lon="6.39583">
        <ele>1697</ele>
        <time>2024-08-12T04:50:40Z</time>
      </trkpt>
      <trkpt lat="44.82421" lon="6.39584">
        <ele>1697.4</ele>
        <time>2024-08-12T04:50:41Z</time>
      </trkpt>
      <trkpt lat="44.82421" lon="6.39584">
        <ele>1697.6</ele>
        <time>2024-08-12T04:50:42Z</time>
      </trkpt>
      <trkpt lat="44.82421" lon="6.39584">
        <ele>1697.6</ele>
        <time>2024-08-12T04:50:43Z</time>
      </trkpt>
      <trkpt lat="44.82418" lon="6.39584">
        <ele>1698</ele>
        <time>2024-08-12T04:50:44Z</time>
      </trkpt>
      <trkpt lat="44.82418" lon="6.39584">
        <ele>1698</ele>
        <time>2024-08-12T04:50:45Z</time>
      </trkpt>
      <trkpt lat="44.82418" lon="6.39584">
        <ele>1698.2</ele>
        <time>2024-08-12T04:50:46Z</time>
      </trkpt>
      <trkpt lat="44.82418" lon="6.39584">
        <ele>1698.6</ele>
        <time>2024-08-12T04:50:47Z</time>
      </trkpt>
      <trkpt lat="44.82416" lon="6.39585">
        <ele>1698.6</ele>
        <time>2024-08-12T04:50:48Z</time>
      </trkpt>
      <trkpt lat="44.82416" lon="6.39585">
        <ele>1699</ele>
        <time>2024-08-12T04:50:49Z</time>
      </trkpt>
      <trkpt lat="44.82416" lon="6.39585">
        <ele>1699.2</ele>
        <time>2024-08-12T04:50:50Z</time>
      </trkpt>
      <trkpt lat="44.82413" lon="6.39586">
        <ele>1699.2</ele>
        <time>2024-08-12T04:50:51Z</time>
      </trkpt>
      <trkpt lat="44.82413" lon="6.39586">
        <ele>1699.4</ele>
        <time>2024-08-12T04:50:52Z</time>
      </trkpt>
      <trkpt lat="44.82413" lon="6.39586">
        <ele>1699.6</ele>
        <time>2024-08-12T04:50:53Z</time>
      </trkpt>
      <trkpt lat="44.82412" lon="6.39587">
        <ele>1699.8</ele>
        <time>2024-08-12T04:50:54Z</time>
      </trkpt>
      <trkpt lat="44.82412" lon="6.39587">
        <ele>1700</ele>
        <time>2024-08-12T04:50:55Z</time>
      </trkpt>
      <trkpt lat="44.82412" lon="6.39587">
        <ele>1700</ele>
        <time>2024-08-12T04:50:56Z</time>
      </trkpt>
      <trkpt lat="44.8241" lon="6.39589">
        <ele>1700.2</ele>
        <time>2024-08-12T04:50:57Z</time>
      </trkpt>
      <trkpt lat="44.8241" lon="6.39589">
        <ele>1700.2</ele>
        <time>2024-08-12T04:50:58Z</time>
      </trkpt>
      <trkpt lat="44.8241" lon="6.39589">
        <ele>1700.4</ele>
        <time>2024-08-12T04:50:59Z</time>
      </trkpt>
      <trkpt lat="44.82407" lon="6.3959">
        <ele>1700.8</ele>
        <time>2024-08-12T04:51:00Z</time>
      </trkpt>
      <trkpt lat="44.82407" lon="6.3959">
        <ele>1700.8</ele>
        <time>2024-08-12T04:51:01Z</time>
      </trkpt>
      <trkpt lat="44.82407" lon="6.3959">
        <ele>1701</ele>
        <time>2024-08-12T04:51:02Z</time>
      </trkpt>
      <trkpt lat="44.82407" lon="6.3959">
        <ele>1701</ele>
        <time>2024-08-12T04:51:03Z</time>
      </trkpt>
      <trkpt lat="44.82405" lon="6.39591">
        <ele>1701.2</ele>
        <time>2024-08-12T04:51:04Z</time>
      </trkpt>
      <trkpt lat="44.82405" lon="6.39591">
        <ele>1701.4</ele>
        <time>2024-08-12T04:51:05Z</time>
      </trkpt>
      <trkpt lat="44.82404" lon="6.39593">
        <ele>1701.6</ele>
        <time>2024-08-12T04:51:06Z</time>
      </trkpt>
      <trkpt lat="44.82404" lon="6.39593">
        <ele>1701.8</ele>
        <time>2024-08-12T04:51:07Z</time>
      </trkpt>
      <trkpt lat="44.82402" lon="6.39593">
        <ele>1702</ele>
        <time>2024-08-12T04:51:08Z</time>
      </trkpt>
      <trkpt lat="44.82402" lon="6.39593">
        <ele>1702.4</ele>
        <time>2024-08-12T04:51:09Z</time>
      </trkpt>
      <trkpt lat="44.82402" lon="6.39593">
        <ele>1702.4</ele>
        <time>2024-08-12T04:51:10Z</time>
      </trkpt>
      <trkpt lat="44.82402" lon="6.39593">
        <ele>1702.4</ele>
        <time>2024-08-12T04:51:11Z</time>
      </trkpt>
      <trkpt lat="44.824" lon="6.39593">
        <ele>1702.8</ele>
        <time>2024-08-12T04:51:12Z</time>
      </trkpt>
      <trkpt lat="44.824" lon="6.39593">
        <ele>1703</ele>
        <time>2024-08-12T04:51:13Z</time>
      </trkpt>
      <trkpt lat="44.824" lon="6.39593">
        <ele>1703.2</ele>
        <time>2024-08-12T04:51:14Z</time>
      </trkpt>
      <trkpt lat="44.82397" lon="6.39593">
        <ele>1703.4</ele>
        <time>2024-08-12T04:51:15Z</time>
      </trkpt>
      <trkpt lat="44.82397" lon="6.39593">
        <ele>1703.4</ele>
        <time>2024-08-12T04:51:16Z</time>
      </trkpt>
      <trkpt lat="44.82397" lon="6.39593">
        <ele>1703.6</ele>
        <time>2024-08-12T04:51:17Z</time>
      </trkpt>
      <trkpt lat="44.82396" lon="6.39593">
        <ele>1704.2</ele>
        <time>2024-08-12T04:51:18Z</time>
      </trkpt>
      <trkpt lat="44.82396" lon="6.39593">
        <ele>1704.2</ele>
        <time>2024-08-12T04:51:19Z</time>
      </trkpt>
      <trkpt lat="44.82396" lon="6.39593">
        <ele>1704.4</ele>
        <time>2024-08-12T04:51:20Z</time>
      </trkpt>
      <trkpt lat="44.82394" lon="6.39592">
        <ele>1704.4</ele>
        <time>2024-08-12T04:51:21Z</time>
      </trkpt>
      <trkpt lat="44.82394" lon="6.39592">
        <ele>1704.8</ele>
        <time>2024-08-12T04:51:22Z</time>
      </trkpt>
      <trkpt lat="44.82394" lon="6.39592">
        <ele>1705</ele>
        <time>2024-08-12T04:51:23Z</time>
      </trkpt>
      <trkpt lat="44.82394" lon="6.39592">
        <ele>1705.2</ele>
        <time>2024-08-12T04:51:24Z</time>
      </trkpt>
      <trkpt lat="44.82391" lon="6.39594">
        <ele>1705.4</ele>
        <time>2024-08-12T04:51:25Z</time>
      </trkpt>
      <trkpt lat="44.82391" lon="6.39594">
        <ele>1705.6</ele>
        <time>2024-08-12T04:51:26Z</time>
      </trkpt>
      <trkpt lat="44.82391" lon="6.39594">
        <ele>1705.6</ele>
        <time>2024-08-12T04:51:27Z</time>
      </trkpt>
      <trkpt lat="44.82389" lon="6.39594">
        <ele>1705.8</ele>
        <time>2024-08-12T04:51:28Z</time>
      </trkpt>
      <trkpt lat="44.82389" lon="6.39594">
        <ele>1705.8</ele>
        <time>2024-08-12T04:51:29Z</time>
      </trkpt>
      <trkpt lat="44.82389" lon="6.39594">
        <ele>1706</ele>
        <time>2024-08-12T04:51:30Z</time>
      </trkpt>
      <trkpt lat="44.82388" lon="6.39595">
        <ele>1706</ele>
        <time>2024-08-12T04:51:31Z</time>
      </trkpt>
      <trkpt lat="44.82388" lon="6.39595">
        <ele>1706.6</ele>
        <time>2024-08-12T04:51:32Z</time>
      </trkpt>
      <trkpt lat="44.82388" lon="6.39595">
        <ele>1706.6</ele>
        <time>2024-08-12T04:51:33Z</time>
      </trkpt>
      <trkpt lat="44.82385" lon="6.39596">
        <ele>1706.8</ele>
        <time>2024-08-12T04:51:34Z</time>
      </trkpt>
      <trkpt lat="44.82385" lon="6.39596">
        <ele>1707.2</ele>
        <time>2024-08-12T04:51:35Z</time>
      </trkpt>
      <trkpt lat="44.82385" lon="6.39596">
        <ele>1707.2</ele>
        <time>2024-08-12T04:51:36Z</time>
      </trkpt>
      <trkpt lat="44.82383" lon="6.39596">
        <ele>1707.2</ele>
        <time>2024-08-12T04:51:37Z</time>
      </trkpt>
      <trkpt lat="44.82383" lon="6.39596">
        <ele>1707.6</ele>
        <time>2024-08-12T04:51:38Z</time>
      </trkpt>
      <trkpt lat="44.82383" lon="6.39596">
        <ele>1707.6</ele>
        <time>2024-08-12T04:51:39Z</time>
      </trkpt>
      <trkpt lat="44.82381" lon="6.39596">
        <ele>1707.6</ele>
        <time>2024-08-12T04:51:40Z</time>
      </trkpt>
      <trkpt lat="44.82381" lon="6.39596">
        <ele>1708</ele>
        <time>2024-08-12T04:51:41Z</time>
      </trkpt>
      <trkpt lat="44.82381" lon="6.39596">
        <ele>1708.2</ele>
        <time>2024-08-12T04:51:42Z</time>
      </trkpt>
      <trkpt lat="44.82379" lon="6.39595">
        <ele>1708.2</ele>
        <time>2024-08-12T04:51:43Z</time>
      </trkpt>
      <trkpt lat="44.82379" lon="6.39595">
        <ele>1708.6</ele>
        <time>2024-08-12T04:51:44Z</time>
      </trkpt>
      <trkpt lat="44.82379" lon="6.39595">
        <ele>1708.8</ele>
        <time>2024-08-12T04:51:45Z</time>
      </trkpt>
      <trkpt lat="44.82378" lon="6.39594">
        <ele>1709.2</ele>
        <time>2024-08-12T04:51:46Z</time>
      </trkpt>
      <trkpt lat="44.82378" lon="6.39594">
        <ele>1709.2</ele>
        <time>2024-08-12T04:51:47Z</time>
      </trkpt>
      <trkpt lat="44.82378" lon="6.39594">
        <ele>1709</ele>
        <time>2024-08-12T04:51:48Z</time>
      </trkpt>
      <trkpt lat="44.82375" lon="6.39594">
        <ele>1709</ele>
        <time>2024-08-12T04:51:49Z</time>
      </trkpt>
      <trkpt lat="44.82375" lon="6.39594">
        <ele>1709.4</ele>
        <time>2024-08-12T04:51:50Z</time>
      </trkpt>
      <trkpt lat="44.82375" lon="6.39594">
        <ele>1709.6</ele>
        <time>2024-08-12T04:51:51Z</time>
      </trkpt>
      <trkpt lat="44.82373" lon="6.39593">
        <ele>1709.6</ele>
        <time>2024-08-12T04:51:52Z</time>
      </trkpt>
      <trkpt lat="44.82373" lon="6.39593">
        <ele>1709.8</ele>
        <time>2024-08-12T04:51:53Z</time>
      </trkpt>
      <trkpt lat="44.82373" lon="6.39593">
        <ele>1710</ele>
        <time>2024-08-12T04:51:54Z</time>
      </trkpt>
      <trkpt lat="44.82373" lon="6.39593">
        <ele>1710.2</ele>
        <time>2024-08-12T04:51:55Z</time>
      </trkpt>
      <trkpt lat="44.82372" lon="6.39594">
        <ele>1710.4</ele>
        <time>2024-08-12T04:51:56Z</time>
      </trkpt>
      <trkpt lat="44.82372" lon="6.39594">
        <ele>1710.4</ele>
        <time>2024-08-12T04:51:57Z</time>
      </trkpt>
      <trkpt lat="44.82372" lon="6.39594">
        <ele>1710.6</ele>
        <time>2024-08-12T04:51:58Z</time>
      </trkpt>
      <trkpt lat="44.82369" lon="6.39595">
        <ele>1710.8</ele>
        <time>2024-08-12T04:51:59Z</time>
      </trkpt>
      <trkpt lat="44.82369" lon="6.39595">
        <ele>1711</ele>
        <time>2024-08-12T04:52:00Z</time>
      </trkpt>
      <trkpt lat="44.82368" lon="6.39597">
        <ele>1711.2</ele>
        <time>2024-08-12T04:52:01Z</time>
      </trkpt>
      <trkpt lat="44.82368" lon="6.39597">
        <ele>1711.2</ele>
        <time>2024-08-12T04:52:02Z</time>
      </trkpt>
      <trkpt lat="44.82368" lon="6.39597">
        <ele>1711.2</ele>
        <time>2024-08-12T04:52:03Z</time>
      </trkpt>
      <trkpt lat="44.82365" lon="6.39597">
        <ele>1711.4</ele>
        <time>2024-08-12T04:52:04Z</time>
      </trkpt>
      <trkpt lat="44.82365" lon="6.39597">
        <ele>1711.6</ele>
        <time>2024-08-12T04:52:05Z</time>
      </trkpt>
      <trkpt lat="44.82365" lon="6.39597">
        <ele>1711.8</ele>
        <time>2024-08-12T04:52:06Z</time>
      </trkpt>
      <trkpt lat="44.82364" lon="6.39596">
        <ele>1712</ele>
        <time>2024-08-12T04:52:07Z</time>
      </trkpt>
      <trkpt lat="44.82364" lon="6.39596">
        <ele>1712.2</ele>
        <time>2024-08-12T04:52:08Z</time>
      </trkpt>
      <trkpt lat="44.82364" lon="6.39596">
        <ele>1712.2</ele>
        <time>2024-08-12T04:52:09Z</time>
      </trkpt>
      <trkpt lat="44.82362" lon="6.39596">
        <ele>1712.4</ele>
        <time>2024-08-12T04:52:10Z</time>
      </trkpt>
      <trkpt lat="44.82362" lon="6.39596">
        <ele>1712.8</ele>
        <time>2024-08-12T04:52:11Z</time>
      </trkpt>
      <trkpt lat="44.82362" lon="6.39596">
        <ele>1713</ele>
        <time>2024-08-12T04:52:12Z</time>
      </trkpt>
      <trkpt lat="44.8236" lon="6.39597">
        <ele>1713</ele>
        <time>2024-08-12T04:52:13Z</time>
      </trkpt>
      <trkpt lat="44.8236" lon="6.39597">
        <ele>1713.2</ele>
        <time>2024-08-12T04:52:14Z</time>
      </trkpt>
      <trkpt lat="44.8236" lon="6.39597">
        <ele>1713.6</ele>
        <time>2024-08-12T04:52:15Z</time>
      </trkpt>
      <trkpt lat="44.82358" lon="6.39597">
        <ele>1713.6</ele>
        <time>2024-08-12T04:52:16Z</time>
      </trkpt>
      <trkpt lat="44.82358" lon="6.39597">
        <ele>1713.8</ele>
        <time>2024-08-12T04:52:17Z</time>
      </trkpt>
      <trkpt lat="44.82358" lon="6.39597">
        <ele>1714.2</ele>
        <time>2024-08-12T04:52:18Z</time>
      </trkpt>
      <trkpt lat="44.82356" lon="6.39599">
        <ele>1714.2</ele>
        <time>2024-08-12T04:52:19Z</time>
      </trkpt>
      <trkpt lat="44.82356" lon="6.39599">
        <ele>1714.2</ele>
        <time>2024-08-12T04:52:20Z</time>
      </trkpt>
      <trkpt lat="44.82356" lon="6.39599">
        <ele>1714.6</ele>
        <time>2024-08-12T04:52:21Z</time>
      </trkpt>
      <trkpt lat="44.82355" lon="6.39602">
        <ele>1714.8</ele>
        <time>2024-08-12T04:52:22Z</time>
      </trkpt>
      <trkpt lat="44.82355" lon="6.39602">
        <ele>1714.8</ele>
        <time>2024-08-12T04:52:23Z</time>
      </trkpt>
      <trkpt lat="44.82354" lon="6.39603">
        <ele>1714.8</ele>
        <time>2024-08-12T04:52:24Z</time>
      </trkpt>
      <trkpt lat="44.82354" lon="6.39603">
        <ele>1714.8</ele>
        <time>2024-08-12T04:52:25Z</time>
      </trkpt>
      <trkpt lat="44.82354" lon="6.39603">
        <ele>1715.2</ele>
        <time>2024-08-12T04:52:26Z</time>
      </trkpt>
      <trkpt lat="44.82352" lon="6.39604">
        <ele>1715.4</ele>
        <time>2024-08-12T04:52:27Z</time>
      </trkpt>
      <trkpt lat="44.82352" lon="6.39604">
        <ele>1715.6</ele>
        <time>2024-08-12T04:52:28Z</time>
      </trkpt>
      <trkpt lat="44.82352" lon="6.39604">
        <ele>1715.6</ele>
        <time>2024-08-12T04:52:29Z</time>
      </trkpt>
      <trkpt lat="44.8235" lon="6.39606">
        <ele>1716</ele>
        <time>2024-08-12T04:52:30Z</time>
      </trkpt>
      <trkpt lat="44.8235" lon="6.39606">
        <ele>1716</ele>
        <time>2024-08-12T04:52:31Z</time>
      </trkpt>
      <trkpt lat="44.8235" lon="6.39606">
        <ele>1716.2</ele>
        <time>2024-08-12T04:52:32Z</time>
      </trkpt>
      <trkpt lat="44.82348" lon="6.39608">
        <ele>1716.2</ele>
        <time>2024-08-12T04:52:33Z</time>
      </trkpt>
      <trkpt lat="44.82348" lon="6.39608">
        <ele>1716.6</ele>
        <time>2024-08-12T04:52:34Z</time>
      </trkpt>
      <trkpt lat="44.82347" lon="6.39611">
        <ele>1716.8</ele>
        <time>2024-08-12T04:52:35Z</time>
      </trkpt>
      <trkpt lat="44.82347" lon="6.39611">
        <ele>1716.8</ele>
        <time>2024-08-12T04:52:36Z</time>
      </trkpt>
      <trkpt lat="44.82345" lon="6.39612">
        <ele>1716.8</ele>
        <time>2024-08-12T04:52:37Z</time>
      </trkpt>
      <trkpt lat="44.82345" lon="6.39612">
        <ele>1716.6</ele>
        <time>2024-08-12T04:52:38Z</time>
      </trkpt>
      <trkpt lat="44.82343" lon="6.39612">
        <ele>1716.6</ele>
        <time>2024-08-12T04:52:39Z</time>
      </trkpt>
      <trkpt lat="44.82343" lon="6.39612">
        <ele>1716.6</ele>
        <time>2024-08-12T04:52:40Z</time>
      </trkpt>
      <trkpt lat="44.82341" lon="6.39613">
        <ele>1716.4</ele>
        <time>2024-08-12T04:52:41Z</time>
      </trkpt>
      <trkpt lat="44.82341" lon="6.39613">
        <ele>1716.2</ele>
        <time>2024-08-12T04:52:42Z</time>
      </trkpt>
      <trkpt lat="44.82339" lon="6.39615">
        <ele>1716.2</ele>
        <time>2024-08-12T04:52:43Z</time>
      </trkpt>
      <trkpt lat="44.82339" lon="6.39615">
        <ele>1716.2</ele>
        <time>2024-08-12T04:52:44Z</time>
      </trkpt>
      <trkpt lat="44.82336" lon="6.39617">
        <ele>1716.2</ele>
        <time>2024-08-12T04:52:45Z</time>
      </trkpt>
      <trkpt lat="44.82336" lon="6.39617">
        <ele>1716.2</ele>
        <time>2024-08-12T04:52:46Z</time>
      </trkpt>
      <trkpt lat="44.82334" lon="6.39618">
        <ele>1716.2</ele>
        <time>2024-08-12T04:52:47Z</time>
      </trkpt>
      <trkpt lat="44.82334" lon="6.39618">
        <ele>1716</ele>
        <time>2024-08-12T04:52:48Z</time>
      </trkpt>
      <trkpt lat="44.82332" lon="6.39618">
        <ele>1715.8</ele>
        <time>2024-08-12T04:52:49Z</time>
      </trkpt>
      <trkpt lat="44.82332" lon="6.39618">
        <ele>1715.8</ele>
        <time>2024-08-12T04:52:50Z</time>
      </trkpt>
      <trkpt lat="44.8233" lon="6.39618">
        <ele>1716.2</ele>
        <time>2024-08-12T04:52:51Z</time>
      </trkpt>
      <trkpt lat="44.8233" lon="6.39618">
        <ele>1716.4</ele>
        <time>2024-08-12T04:52:52Z</time>
      </trkpt>
      <trkpt lat="44.82327" lon="6.39618">
        <ele>1716.4</ele>
        <time>2024-08-12T04:52:53Z</time>
      </trkpt>
      <trkpt lat="44.82327" lon="6.39618">
        <ele>1716.6</ele>
        <time>2024-08-12T04:52:54Z</time>
      </trkpt>
      <trkpt lat="44.82327" lon="6.39618">
        <ele>1716.6</ele>
        <time>2024-08-12T04:52:55Z</time>
      </trkpt>
      <trkpt lat="44.82325" lon="6.39617">
        <ele>1716.8</ele>
        <time>2024-08-12T04:52:56Z</time>
      </trkpt>
      <trkpt lat="44.82325" lon="6.39617">
        <ele>1717</ele>
        <time>2024-08-12T04:52:57Z</time>
      </trkpt>
      <trkpt lat="44.82325" lon="6.39617">
        <ele>1717.2</ele>
        <time>2024-08-12T04:52:58Z</time>
      </trkpt>
      <trkpt lat="44.82323" lon="6.39615">
        <ele>1717.4</ele>
        <time>2024-08-12T04:52:59Z</time>
      </trkpt>
      <trkpt lat="44.82323" lon="6.39615">
        <ele>1717.6</ele>
        <time>2024-08-12T04:53:00Z</time>
      </trkpt>
      <trkpt lat="44.82323" lon="6.39615">
        <ele>1717.6</ele>
        <time>2024-08-12T04:53:01Z</time>
      </trkpt>
      <trkpt lat="44.82321" lon="6.39613">
        <ele>1718.4</ele>
        <time>2024-08-12T04:53:02Z</time>
      </trkpt>
      <trkpt lat="44.82321" lon="6.39613">
        <ele>1718.4</ele>
        <time>2024-08-12T04:53:03Z</time>
      </trkpt>
      <trkpt lat="44.82321" lon="6.39613">
        <ele>1718.4</ele>
        <time>2024-08-12T04:53:04Z</time>
      </trkpt>
      <trkpt lat="44.82318" lon="6.39612">
        <ele>1718.6</ele>
        <time>2024-08-12T04:53:05Z</time>
      </trkpt>
      <trkpt lat="44.82318" lon="6.39612">
        <ele>1718.8</ele>
        <time>2024-08-12T04:53:06Z</time>
      </trkpt>
      <trkpt lat="44.82318" lon="6.39612">
        <ele>1718.8</ele>
        <time>2024-08-12T04:53:07Z</time>
      </trkpt>
      <trkpt lat="44.82316" lon="6.39611">
        <ele>1719.2</ele>
        <time>2024-08-12T04:53:08Z</time>
      </trkpt>
      <trkpt lat="44.82316" lon="6.39611">
        <ele>1719.4</ele>
        <time>2024-08-12T04:53:09Z</time>
      </trkpt>
      <trkpt lat="44.82316" lon="6.39611">
        <ele>1719.6</ele>
        <time>2024-08-12T04:53:10Z</time>
      </trkpt>
      <trkpt lat="44.82314" lon="6.39611">
        <ele>1719.8</ele>
        <time>2024-08-12T04:53:11Z</time>
      </trkpt>
      <trkpt lat="44.82314" lon="6.39611">
        <ele>1720</ele>
        <time>2024-08-12T04:53:12Z</time>
      </trkpt>
      <trkpt lat="44.82314" lon="6.39611">
        <ele>1720</ele>
        <time>2024-08-12T04:53:13Z</time>
      </trkpt>
      <trkpt lat="44.82312" lon="6.39612">
        <ele>1720.2</ele>
        <time>2024-08-12T04:53:14Z</time>
      </trkpt>
      <trkpt lat="44.82312" lon="6.39612">
        <ele>1720.4</ele>
        <time>2024-08-12T04:53:15Z</time>
      </trkpt>
      <trkpt lat="44.8231" lon="6.39614">
        <ele>1720.4</ele>
        <time>2024-08-12T04:53:16Z</time>
      </trkpt>
      <trkpt lat="44.8231" lon="6.39614">
        <ele>1720.4</ele>
        <time>2024-08-12T04:53:17Z</time>
      </trkpt>
      <trkpt lat="44.82308" lon="6.39615">
        <ele>1720.4</ele>
        <time>2024-08-12T04:53:18Z</time>
      </trkpt>
      <trkpt lat="44.82308" lon="6.39615">
        <ele>1720.4</ele>
        <time>2024-08-12T04:53:19Z</time>
      </trkpt>
      <trkpt lat="44.82308" lon="6.39615">
        <ele>1720.6</ele>
        <time>2024-08-12T04:53:20Z</time>
      </trkpt>
      <trkpt lat="44.82306" lon="6.39616">
        <ele>1720.6</ele>
        <time>2024-08-12T04:53:21Z</time>
      </trkpt>
      <trkpt lat="44.82306" lon="6.39616">
        <ele>1720.4</ele>
        <time>2024-08-12T04:53:22Z</time>
      </trkpt>
      <trkpt lat="44.82304" lon="6.39618">
        <ele>1720.4</ele>
        <time>2024-08-12T04:53:23Z</time>
      </trkpt>
      <trkpt lat="44.82304" lon="6.39618">
        <ele>1720.2</ele>
        <time>2024-08-12T04:53:24Z</time>
      </trkpt>
      <trkpt lat="44.82303" lon="6.39619">
        <ele>1720.2</ele>
        <time>2024-08-12T04:53:25Z</time>
      </trkpt>
      <trkpt lat="44.82303" lon="6.39619">
        <ele>1720.2</ele>
        <time>2024-08-12T04:53:26Z</time>
      </trkpt>
      <trkpt lat="44.823" lon="6.3962">
        <ele>1720.2</ele>
        <time>2024-08-12T04:53:27Z</time>
      </trkpt>
      <trkpt lat="44.823" lon="6.3962">
        <ele>1720</ele>
        <time>2024-08-12T04:53:28Z</time>
      </trkpt>
      <trkpt lat="44.82298" lon="6.3962">
        <ele>1720</ele>
        <time>2024-08-12T04:53:29Z</time>
      </trkpt>
      <trkpt lat="44.82298" lon="6.3962">
        <ele>1720</ele>
        <time>2024-08-12T04:53:30Z</time>
      </trkpt>
      <trkpt lat="44.82296" lon="6.3962">
        <ele>1720</ele>
        <time>2024-08-12T04:53:31Z</time>
      </trkpt>
      <trkpt lat="44.82296" lon="6.3962">
        <ele>1720</ele>
        <time>2024-08-12T04:53:32Z</time>
      </trkpt>
      <trkpt lat="44.82294" lon="6.39621">
        <ele>1720.2</ele>
        <time>2024-08-12T04:53:33Z</time>
      </trkpt>
      <trkpt lat="44.82294" lon="6.39621">
        <ele>1720.2</ele>
        <time>2024-08-12T04:53:34Z</time>
      </trkpt>
      <trkpt lat="44.82292" lon="6.39621">
        <ele>1720.2</ele>
        <time>2024-08-12T04:53:35Z</time>
      </trkpt>
      <trkpt lat="44.82292" lon="6.39621">
        <ele>1720.2</ele>
        <time>2024-08-12T04:53:36Z</time>
      </trkpt>
      <trkpt lat="44.82292" lon="6.39621">
        <ele>1720.2</ele>
        <time>2024-08-12T04:53:37Z</time>
      </trkpt>
      <trkpt lat="44.8229" lon="6.3962">
        <ele>1720.2</ele>
        <time>2024-08-12T04:53:38Z</time>
      </trkpt>
      <trkpt lat="44.8229" lon="6.3962">
        <ele>1720.4</ele>
        <time>2024-08-12T04:53:39Z</time>
      </trkpt>
      <trkpt lat="44.8229" lon="6.3962">
        <ele>1720.6</ele>
        <time>2024-08-12T04:53:40Z</time>
      </trkpt>
      <trkpt lat="44.82288" lon="6.39621">
        <ele>1720.6</ele>
        <time>2024-08-12T04:53:41Z</time>
      </trkpt>
      <trkpt lat="44.82288" lon="6.39621">
        <ele>1720.6</ele>
        <time>2024-08-12T04:53:42Z</time>
      </trkpt>
      <trkpt lat="44.82286" lon="6.39622">
        <ele>1720.8</ele>
        <time>2024-08-12T04:53:43Z</time>
      </trkpt>
      <trkpt lat="44.82286" lon="6.39622">
        <ele>1720.8</ele>
        <time>2024-08-12T04:53:44Z</time>
      </trkpt>
      <trkpt lat="44.82284" lon="6.39622">
        <ele>1720.8</ele>
        <time>2024-08-12T04:53:45Z</time>
      </trkpt>
      <trkpt lat="44.82284" lon="6.39622">
        <ele>1721</ele>
        <time>2024-08-12T04:53:46Z</time>
      </trkpt>
      <trkpt lat="44.82282" lon="6.39624">
        <ele>1721.2</ele>
        <time>2024-08-12T04:53:47Z</time>
      </trkpt>
      <trkpt lat="44.82282" lon="6.39624">
        <ele>1721.2</ele>
        <time>2024-08-12T04:53:48Z</time>
      </trkpt>
      <trkpt lat="44.82282" lon="6.39624">
        <ele>1721.6</ele>
        <time>2024-08-12T04:53:49Z</time>
      </trkpt>
      <trkpt lat="44.8228" lon="6.39625">
        <ele>1721.8</ele>
        <time>2024-08-12T04:53:50Z</time>
      </trkpt>
      <trkpt lat="44.8228" lon="6.39625">
        <ele>1721.8</ele>
        <time>2024-08-12T04:53:51Z</time>
      </trkpt>
      <trkpt lat="44.82278" lon="6.39627">
        <ele>1721.8</ele>
        <time>2024-08-12T04:53:52Z</time>
      </trkpt>
      <trkpt lat="44.82278" lon="6.39627">
        <ele>1721.8</ele>
        <time>2024-08-12T04:53:53Z</time>
      </trkpt>
      <trkpt lat="44.82276" lon="6.39629">
        <ele>1722</ele>
        <time>2024-08-12T04:53:54Z</time>
      </trkpt>
      <trkpt lat="44.82276" lon="6.39629">
        <ele>1722</ele>
        <time>2024-08-12T04:53:55Z</time>
      </trkpt>
      <trkpt lat="44.82275" lon="6.39631">
        <ele>1722</ele>
        <time>2024-08-12T04:53:56Z</time>
      </trkpt>
      <trkpt lat="44.82275" lon="6.39631">
        <ele>1722</ele>
        <time>2024-08-12T04:53:57Z</time>
      </trkpt>
      <trkpt lat="44.82273" lon="6.39633">
        <ele>1721.8</ele>
        <time>2024-08-12T04:53:58Z</time>
      </trkpt>
      <trkpt lat="44.82273" lon="6.39633">
        <ele>1721.8</ele>
        <time>2024-08-12T04:53:59Z</time>
      </trkpt>
      <trkpt lat="44.82272" lon="6.39636">
        <ele>1722</ele>
        <time>2024-08-12T04:54:00Z</time>
      </trkpt>
      <trkpt lat="44.82272" lon="6.39636">
        <ele>1722.2</ele>
        <time>2024-08-12T04:54:01Z</time>
      </trkpt>
      <trkpt lat="44.82271" lon="6.39638">
        <ele>1722.2</ele>
        <time>2024-08-12T04:54:02Z</time>
      </trkpt>
      <trkpt lat="44.82271" lon="6.39638">
        <ele>1722.2</ele>
        <time>2024-08-12T04:54:03Z</time>
      </trkpt>
      <trkpt lat="44.82271" lon="6.39638">
        <ele>1722.2</ele>
        <time>2024-08-12T04:54:04Z</time>
      </trkpt>
      <trkpt lat="44.82269" lon="6.3964">
        <ele>1722.4</ele>
        <time>2024-08-12T04:54:05Z</time>
      </trkpt>
      <trkpt lat="44.82269" lon="6.3964">
        <ele>1722.6</ele>
        <time>2024-08-12T04:54:06Z</time>
      </trkpt>
      <trkpt lat="44.82269" lon="6.3964">
        <ele>1722.6</ele>
        <time>2024-08-12T04:54:07Z</time>
      </trkpt>
      <trkpt lat="44.82269" lon="6.3964">
        <ele>1722.4</ele>
        <time>2024-08-12T04:54:08Z</time>
      </trkpt>
      <trkpt lat="44.82269" lon="6.3964">
        <ele>1722.4</ele>
        <time>2024-08-12T04:54:09Z</time>
      </trkpt>
      <trkpt lat="44.82269" lon="6.3964">
        <ele>1722.6</ele>
        <time>2024-08-12T04:54:10Z</time>
      </trkpt>
      <trkpt lat="44.82269" lon="6.3964">
        <ele>1722.6</ele>
        <time>2024-08-12T04:54:11Z</time>
      </trkpt>
      <trkpt lat="44.82269" lon="6.3964">
        <ele>1722.6</ele>
        <time>2024-08-12T04:54:12Z</time>
      </trkpt>
      <trkpt lat="44.82269" lon="6.3964">
        <ele>1722.4</ele>
        <time>2024-08-12T04:54:13Z</time>
      </trkpt>
      <trkpt lat="44.82269" lon="6.3964">
        <ele>1722.2</ele>
        <time>2024-08-12T04:54:14Z</time>
      </trkpt>
      <trkpt lat="44.82269" lon="6.3964">
        <ele>1722.2</ele>
        <time>2024-08-12T04:54:15Z</time>
      </trkpt>
      <trkpt lat="44.82269" lon="6.3964">
        <ele>1722.2</ele>
        <time>2024-08-12T04:54:16Z</time>
      </trkpt>
      <trkpt lat="44.82269" lon="6.3964">
        <ele>1722.2</ele>
        <time>2024-08-12T04:54:17Z</time>
      </trkpt>
      <trkpt lat="44.82269" lon="6.3964">
        <ele>1722</ele>
        <time>2024-08-12T04:54:18Z</time>
      </trkpt>
      <trkpt lat="44.82269" lon="6.3964">
        <ele>1722</ele>
        <time>2024-08-12T04:54:19Z</time>
      </trkpt>
      <trkpt lat="44.82269" lon="6.3964">
        <ele>1722.2</ele>
        <time>2024-08-12T04:54:20Z</time>
      </trkpt>
      <trkpt lat="44.82269" lon="6.3964">
        <ele>1722.2</ele>
        <time>2024-08-12T04:54:21Z</time>
      </trkpt>
      <trkpt lat="44.82269" lon="6.3964">
        <ele>1722.2</ele>
        <time>2024-08-12T04:54:22Z</time>
      </trkpt>
      <trkpt lat="44.82269" lon="6.3964">
        <ele>1722</ele>
        <time>2024-08-12T04:54:23Z</time>
      </trkpt>
      <trkpt lat="44.82269" lon="6.3964">
        <ele>1721.8</ele>
        <time>2024-08-12T04:54:24Z</time>
      </trkpt>
      <trkpt lat="44.82269" lon="6.3964">
        <ele>1721.8</ele>
        <time>2024-08-12T04:54:25Z</time>
      </trkpt>
      <trkpt lat="44.82269" lon="6.3964">
        <ele>1721.6</ele>
        <time>2024-08-12T04:54:26Z</time>
      </trkpt>
      <trkpt lat="44.82269" lon="6.3964">
        <ele>1721.6</ele>
        <time>2024-08-12T04:54:27Z</time>
      </trkpt>
      <trkpt lat="44.82269" lon="6.3964">
        <ele>1721.6</ele>
        <time>2024-08-12T04:54:28Z</time>
      </trkpt>
      <trkpt lat="44.82269" lon="6.3964">
        <ele>1721.6</ele>
        <time>2024-08-12T04:54:29Z</time>
      </trkpt>
      <trkpt lat="44.82269" lon="6.3964">
        <ele>1721.6</ele>
        <time>2024-08-12T04:54:30Z</time>
      </trkpt>
      <trkpt lat="44.82269" lon="6.3964">
        <ele>1721.6</ele>
        <time>2024-08-12T04:54:31Z</time>
      </trkpt>
      <trkpt lat="44.82269" lon="6.3964">
        <ele>1721.8</ele>
        <time>2024-08-12T04:54:32Z</time>
      </trkpt>
      <trkpt lat="44.82269" lon="6.3964">
        <ele>1721.8</ele>
        <time>2024-08-12T04:54:33Z</time>
      </trkpt>
      <trkpt lat="44.82269" lon="6.3964">
        <ele>1722</ele>
        <time>2024-08-12T04:54:34Z</time>
      </trkpt>
      <trkpt lat="44.82269" lon="6.3964">
        <ele>1722.2</ele>
        <time>2024-08-12T04:54:35Z</time>
      </trkpt>
      <trkpt lat="44.82269" lon="6.3964">
        <ele>1722.4</ele>
        <time>2024-08-12T04:54:36Z</time>
      </trkpt>
      <trkpt lat="44.82269" lon="6.3964">
        <ele>1722.4</ele>
        <time>2024-08-12T04:54:37Z</time>
      </trkpt>
      <trkpt lat="44.82269" lon="6.3964">
        <ele>1722.6</ele>
        <time>2024-08-12T04:54:38Z</time>
      </trkpt>
      <trkpt lat="44.82269" lon="6.3964">
        <ele>1722.8</ele>
        <time>2024-08-12T04:54:39Z</time>
      </trkpt>
      <trkpt lat="44.82269" lon="6.3964">
        <ele>1722.8</ele>
        <time>2024-08-12T04:54:40Z</time>
      </trkpt>
      <trkpt lat="44.82269" lon="6.3964">
        <ele>1722.8</ele>
        <time>2024-08-12T04:54:41Z</time>
      </trkpt>
      <trkpt lat="44.82269" lon="6.3964">
        <ele>1722.8</ele>
        <time>2024-08-12T04:54:42Z</time>
      </trkpt>
      <trkpt lat="44.82269" lon="6.3964">
        <ele>1722.8</ele>
        <time>2024-08-12T04:54:43Z</time>
      </trkpt>
      <trkpt lat="44.82269" lon="6.3964">
        <ele>1722.8</ele>
        <time>2024-08-12T04:54:44Z</time>
      </trkpt>
      <trkpt lat="44.82269" lon="6.3964">
        <ele>1722.8</ele>
        <time>2024-08-12T04:54:45Z</time>
      </trkpt>
      <trkpt lat="44.82269" lon="6.39643">
        <ele>1722.8</ele>
        <time>2024-08-12T04:54:46Z</time>
      </trkpt>
      <trkpt lat="44.82269" lon="6.39643">
        <ele>1722.6</ele>
        <time>2024-08-12T04:54:47Z</time>
      </trkpt>
      <trkpt lat="44.82269" lon="6.39643">
        <ele>1722.2</ele>
        <time>2024-08-12T04:54:48Z</time>
      </trkpt>
      <trkpt lat="44.8227" lon="6.39646">
        <ele>1722</ele>
        <time>2024-08-12T04:54:49Z</time>
      </trkpt>
      <trkpt lat="44.8227" lon="6.39646">
        <ele>1722</ele>
        <time>2024-08-12T04:54:50Z</time>
      </trkpt>
      <trkpt lat="44.8227" lon="6.39646">
        <ele>1721.8</ele>
        <time>2024-08-12T04:54:51Z</time>
      </trkpt>
      <trkpt lat="44.82272" lon="6.39648">
        <ele>1721.8</ele>
        <time>2024-08-12T04:54:52Z</time>
      </trkpt>
      <trkpt lat="44.82272" lon="6.39648">
        <ele>1721.6</ele>
        <time>2024-08-12T04:54:53Z</time>
      </trkpt>
      <trkpt lat="44.82272" lon="6.39648">
        <ele>1721.6</ele>
        <time>2024-08-12T04:54:54Z</time>
      </trkpt>
      <trkpt lat="44.82272" lon="6.39648">
        <ele>1721.4</ele>
        <time>2024-08-12T04:54:55Z</time>
      </trkpt>
      <trkpt lat="44.82272" lon="6.39648">
        <ele>1721.4</ele>
        <time>2024-08-12T04:54:56Z</time>
      </trkpt>
      <trkpt lat="44.82272" lon="6.39648">
        <ele>1721.6</ele>
        <time>2024-08-12T04:54:57Z</time>
      </trkpt>
      <trkpt lat="44.82272" lon="6.39648">
        <ele>1721.6</ele>
        <time>2024-08-12T04:54:58Z</time>
      </trkpt>
      <trkpt lat="44.82272" lon="6.39648">
        <ele>1721.8</ele>
        <time>2024-08-12T04:54:59Z</time>
      </trkpt>
      <trkpt lat="44.82272" lon="6.39648">
        <ele>1721.8</ele>
        <time>2024-08-12T04:55:00Z</time>
      </trkpt>
      <trkpt lat="44.82272" lon="6.39648">
        <ele>1721.8</ele>
        <time>2024-08-12T04:55:01Z</time>
      </trkpt>
      <trkpt lat="44.82272" lon="6.39648">
        <ele>1721.6</ele>
        <time>2024-08-12T04:55:02Z</time>
      </trkpt>
      <trkpt lat="44.82272" lon="6.39648">
        <ele>1721.4</ele>
        <time>2024-08-12T04:55:03Z</time>
      </trkpt>
      <trkpt lat="44.82272" lon="6.39648">
        <ele>1721.4</ele>
        <time>2024-08-12T04:55:04Z</time>
      </trkpt>
      <trkpt lat="44.82272" lon="6.39648">
        <ele>1721.4</ele>
        <time>2024-08-12T04:55:05Z</time>
      </trkpt>
      <trkpt lat="44.82272" lon="6.39648">
        <ele>1721.4</ele>
        <time>2024-08-12T04:55:06Z</time>
      </trkpt>
      <trkpt lat="44.82272" lon="6.39648">
        <ele>1721.4</ele>
        <time>2024-08-12T04:55:07Z</time>
      </trkpt>
      <trkpt lat="44.82272" lon="6.39648">
        <ele>1721.4</ele>
        <time>2024-08-12T04:55:08Z</time>
      </trkpt>
      <trkpt lat="44.82272" lon="6.39648">
        <ele>1721.4</ele>
        <time>2024-08-12T04:55:09Z</time>
      </trkpt>
      <trkpt lat="44.82272" lon="6.39648">
        <ele>1721</ele>
        <time>2024-08-12T04:55:10Z</time>
      </trkpt>
      <trkpt lat="44.82272" lon="6.39648">
        <ele>1720.6</ele>
        <time>2024-08-12T04:55:11Z</time>
      </trkpt>
      <trkpt lat="44.82272" lon="6.39648">
        <ele>1720.6</ele>
        <time>2024-08-12T04:55:12Z</time>
      </trkpt>
      <trkpt lat="44.82272" lon="6.39648">
        <ele>1720.4</ele>
        <time>2024-08-12T04:55:13Z</time>
      </trkpt>
      <trkpt lat="44.82272" lon="6.39648">
        <ele>1720.4</ele>
        <time>2024-08-12T04:55:14Z</time>
      </trkpt>
      <trkpt lat="44.82272" lon="6.39648">
        <ele>1720.2</ele>
        <time>2024-08-12T04:55:15Z</time>
      </trkpt>
      <trkpt lat="44.82272" lon="6.39648">
        <ele>1720.2</ele>
        <time>2024-08-12T04:55:16Z</time>
      </trkpt>
      <trkpt lat="44.82272" lon="6.39648">
        <ele>1720.2</ele>
        <time>2024-08-12T04:55:17Z</time>
      </trkpt>
      <trkpt lat="44.82272" lon="6.39648">
        <ele>1720.4</ele>
        <time>2024-08-12T04:55:18Z</time>
      </trkpt>
      <trkpt lat="44.82272" lon="6.39648">
        <ele>1720.4</ele>
        <time>2024-08-12T04:55:19Z</time>
      </trkpt>
      <trkpt lat="44.82272" lon="6.39648">
        <ele>1720.4</ele>
        <time>2024-08-12T04:55:20Z</time>
      </trkpt>
      <trkpt lat="44.82272" lon="6.39648">
        <ele>1720.4</ele>
        <time>2024-08-12T04:55:21Z</time>
      </trkpt>
      <trkpt lat="44.82272" lon="6.39648">
        <ele>1720.4</ele>
        <time>2024-08-12T04:55:22Z</time>
      </trkpt>
      <trkpt lat="44.82272" lon="6.39648">
        <ele>1720.6</ele>
        <time>2024-08-12T04:55:23Z</time>
      </trkpt>
      <trkpt lat="44.82272" lon="6.39648">
        <ele>1720.6</ele>
        <time>2024-08-12T04:55:24Z</time>
      </trkpt>
      <trkpt lat="44.82272" lon="6.39648">
        <ele>1720.4</ele>
        <time>2024-08-12T04:55:25Z</time>
      </trkpt>
      <trkpt lat="44.82272" lon="6.39648">
        <ele>1720.4</ele>
        <time>2024-08-12T04:55:26Z</time>
      </trkpt>
      <trkpt lat="44.82272" lon="6.39648">
        <ele>1720.4</ele>
        <time>2024-08-12T04:55:27Z</time>
      </trkpt>
      <trkpt lat="44.82272" lon="6.39648">
        <ele>1720.6</ele>
        <time>2024-08-12T04:55:28Z</time>
      </trkpt>
      <trkpt lat="44.82272" lon="6.39648">
        <ele>1720.6</ele>
        <time>2024-08-12T04:55:29Z</time>
      </trkpt>
      <trkpt lat="44.82272" lon="6.39648">
        <ele>1720.6</ele>
        <time>2024-08-12T04:55:30Z</time>
      </trkpt>
      <trkpt lat="44.82272" lon="6.39648">
        <ele>1720.6</ele>
        <time>2024-08-12T04:55:31Z</time>
      </trkpt>
      <trkpt lat="44.82272" lon="6.39648">
        <ele>1720.8</ele>
        <time>2024-08-12T04:55:32Z</time>
      </trkpt>
      <trkpt lat="44.82272" lon="6.39648">
        <ele>1720.8</ele>
        <time>2024-08-12T04:55:33Z</time>
      </trkpt>
      <trkpt lat="44.82272" lon="6.39648">
        <ele>1720.6</ele>
        <time>2024-08-12T04:55:34Z</time>
      </trkpt>
      <trkpt lat="44.82272" lon="6.39648">
        <ele>1720.6</ele>
        <time>2024-08-12T04:55:35Z</time>
      </trkpt>
      <trkpt lat="44.82272" lon="6.39648">
        <ele>1721</ele>
        <time>2024-08-12T04:55:36Z</time>
      </trkpt>
      <trkpt lat="44.82272" lon="6.39648">
        <ele>1721</ele>
        <time>2024-08-12T04:55:37Z</time>
      </trkpt>
      <trkpt lat="44.8227" lon="6.39648">
        <ele>1721</ele>
        <time>2024-08-12T04:55:38Z</time>
      </trkpt>
      <trkpt lat="44.8227" lon="6.39648">
        <ele>1721</ele>
        <time>2024-08-12T04:55:39Z</time>
      </trkpt>
      <trkpt lat="44.82268" lon="6.39645">
        <ele>1721.6</ele>
        <time>2024-08-12T04:55:40Z</time>
      </trkpt>
      <trkpt lat="44.82268" lon="6.39645">
        <ele>1721.6</ele>
        <time>2024-08-12T04:55:41Z</time>
      </trkpt>
      <trkpt lat="44.82268" lon="6.39645">
        <ele>1721.8</ele>
        <time>2024-08-12T04:55:42Z</time>
      </trkpt>
      <trkpt lat="44.82268" lon="6.39645">
        <ele>1721.8</ele>
        <time>2024-08-12T04:55:43Z</time>
      </trkpt>
      <trkpt lat="44.82268" lon="6.39645">
        <ele>1721.8</ele>
        <time>2024-08-12T04:55:44Z</time>
      </trkpt>
      <trkpt lat="44.82268" lon="6.39645">
        <ele>1721.8</ele>
        <time>2024-08-12T04:55:45Z</time>
      </trkpt>
      <trkpt lat="44.82268" lon="6.39645">
        <ele>1721.8</ele>
        <time>2024-08-12T04:55:46Z</time>
      </trkpt>
      <trkpt lat="44.82268" lon="6.39645">
        <ele>1721.6</ele>
        <time>2024-08-12T04:55:47Z</time>
      </trkpt>
      <trkpt lat="44.82268" lon="6.39645">
        <ele>1721.6</ele>
        <time>2024-08-12T04:55:48Z</time>
      </trkpt>
      <trkpt lat="44.82268" lon="6.39645">
        <ele>1721.6</ele>
        <time>2024-08-12T04:55:49Z</time>
      </trkpt>
      <trkpt lat="44.82268" lon="6.39645">
        <ele>1721.6</ele>
        <time>2024-08-12T04:55:50Z</time>
      </trkpt>
      <trkpt lat="44.82268" lon="6.39645">
        <ele>1721.4</ele>
        <time>2024-08-12T04:55:51Z</time>
      </trkpt>
      <trkpt lat="44.82268" lon="6.39645">
        <ele>1721.4</ele>
        <time>2024-08-12T04:55:52Z</time>
      </trkpt>
      <trkpt lat="44.82268" lon="6.39645">
        <ele>1721.6</ele>
        <time>2024-08-12T04:55:53Z</time>
      </trkpt>
      <trkpt lat="44.82268" lon="6.39645">
        <ele>1721.8</ele>
        <time>2024-08-12T04:55:54Z</time>
      </trkpt>
      <trkpt lat="44.82268" lon="6.39645">
        <ele>1721.8</ele>
        <time>2024-08-12T04:55:55Z</time>
      </trkpt>
      <trkpt lat="44.82268" lon="6.39645">
        <ele>1721.6</ele>
        <time>2024-08-12T04:55:56Z</time>
      </trkpt>
      <trkpt lat="44.82268" lon="6.39645">
        <ele>1721.6</ele>
        <time>2024-08-12T04:55:57Z</time>
      </trkpt>
      <trkpt lat="44.82268" lon="6.39645">
        <ele>1721.4</ele>
        <time>2024-08-12T04:55:58Z</time>
      </trkpt>
      <trkpt lat="44.82268" lon="6.39645">
        <ele>1721.4</ele>
        <time>2024-08-12T04:55:59Z</time>
      </trkpt>
      <trkpt lat="44.82268" lon="6.39645">
        <ele>1721.6</ele>
        <time>2024-08-12T04:56:00Z</time>
      </trkpt>
      <trkpt lat="44.82268" lon="6.39645">
        <ele>1721.6</ele>
        <time>2024-08-12T04:56:01Z</time>
      </trkpt>
      <trkpt lat="44.82268" lon="6.39645">
        <ele>1721.8</ele>
        <time>2024-08-12T04:56:02Z</time>
      </trkpt>
      <trkpt lat="44.82268" lon="6.39645">
        <ele>1721.8</ele>
        <time>2024-08-12T04:56:03Z</time>
      </trkpt>
      <trkpt lat="44.82268" lon="6.39645">
        <ele>1721.8</ele>
        <time>2024-08-12T04:56:04Z</time>
      </trkpt>
      <trkpt lat="44.82268" lon="6.39645">
        <ele>1721.8</ele>
        <time>2024-08-12T04:56:05Z</time>
      </trkpt>
      <trkpt lat="44.82268" lon="6.39645">
        <ele>1721.8</ele>
        <time>2024-08-12T04:56:06Z</time>
      </trkpt>
      <trkpt lat="44.82268" lon="6.39645">
        <ele>1722.2</ele>
        <time>2024-08-12T04:56:07Z</time>
      </trkpt>
      <trkpt lat="44.82268" lon="6.39645">
        <ele>1722.2</ele>
        <time>2024-08-12T04:56:08Z</time>
      </trkpt>
      <trkpt lat="44.82268" lon="6.39645">
        <ele>1722</ele>
        <time>2024-08-12T04:56:09Z</time>
      </trkpt>
      <trkpt lat="44.82268" lon="6.39645">
        <ele>1722</ele>
        <time>2024-08-12T04:56:10Z</time>
      </trkpt>
      <trkpt lat="44.82268" lon="6.39645">
        <ele>1722.2</ele>
        <time>2024-08-12T04:56:11Z</time>
      </trkpt>
      <trkpt lat="44.82268" lon="6.39645">
        <ele>1722.2</ele>
        <time>2024-08-12T04:56:12Z</time>
      </trkpt>
      <trkpt lat="44.82268" lon="6.39645">
        <ele>1722</ele>
        <time>2024-08-12T04:56:13Z</time>
      </trkpt>
      <trkpt lat="44.82268" lon="6.39645">
        <ele>1722</ele>
        <time>2024-08-12T04:56:14Z</time>
      </trkpt>
      <trkpt lat="44.82268" lon="6.39645">
        <ele>1722</ele>
        <time>2024-08-12T04:56:15Z</time>
      </trkpt>
      <trkpt lat="44.82268" lon="6.39645">
        <ele>1722.2</ele>
        <time>2024-08-12T04:56:16Z</time>
      </trkpt>
      <trkpt lat="44.82268" lon="6.39645">
        <ele>1722.2</ele>
        <time>2024-08-12T04:56:17Z</time>
      </trkpt>
      <trkpt lat="44.82268" lon="6.39645">
        <ele>1722</ele>
        <time>2024-08-12T04:56:18Z</time>
      </trkpt>
      <trkpt lat="44.82268" lon="6.39645">
        <ele>1721.8</ele>
        <time>2024-08-12T04:56:19Z</time>
      </trkpt>
      <trkpt lat="44.82268" lon="6.39645">
        <ele>1721.8</ele>
        <time>2024-08-12T04:56:20Z</time>
      </trkpt>
      <trkpt lat="44.82268" lon="6.39645">
        <ele>1721.8</ele>
        <time>2024-08-12T04:56:21Z</time>
      </trkpt>
      <trkpt lat="44.82268" lon="6.39645">
        <ele>1721.8</ele>
        <time>2024-08-12T04:56:22Z</time>
      </trkpt>
      <trkpt lat="44.82268" lon="6.39645">
        <ele>1721.8</ele>
        <time>2024-08-12T04:56:23Z</time>
      </trkpt>
      <trkpt lat="44.82268" lon="6.39645">
        <ele>1721.8</ele>
        <time>2024-08-12T04:56:24Z</time>
      </trkpt>
      <trkpt lat="44.82268" lon="6.39645">
        <ele>1721.8</ele>
        <time>2024-08-12T04:56:25Z</time>
      </trkpt>
      <trkpt lat="44.82268" lon="6.39645">
        <ele>1721.6</ele>
        <time>2024-08-12T04:56:26Z</time>
      </trkpt>
      <trkpt lat="44.82268" lon="6.39645">
        <ele>1721.4</ele>
        <time>2024-08-12T04:56:27Z</time>
      </trkpt>
      <trkpt lat="44.82268" lon="6.39645">
        <ele>1721.4</ele>
        <time>2024-08-12T04:56:28Z</time>
      </trkpt>
      <trkpt lat="44.82268" lon="6.39643">
        <ele>1721.6</ele>
        <time>2024-08-12T04:56:29Z</time>
      </trkpt>
      <trkpt lat="44.82268" lon="6.39643">
        <ele>1722</ele>
        <time>2024-08-12T04:56:30Z</time>
      </trkpt>
      <trkpt lat="44.82268" lon="6.39643">
        <ele>1722.2</ele>
        <time>2024-08-12T04:56:31Z</time>
      </trkpt>
      <trkpt lat="44.82268" lon="6.3964">
        <ele>1722.2</ele>
        <time>2024-08-12T04:56:32Z</time>
      </trkpt>
      <trkpt lat="44.82268" lon="6.3964">
        <ele>1722.2</ele>
        <time>2024-08-12T04:56:33Z</time>
      </trkpt>
      <trkpt lat="44.82267" lon="6.39639">
        <ele>1722.6</ele>
        <time>2024-08-12T04:56:34Z</time>
      </trkpt>
      <trkpt lat="44.82267" lon="6.39639">
        <ele>1722.8</ele>
        <time>2024-08-12T04:56:35Z</time>
      </trkpt>
      <trkpt lat="44.82267" lon="6.39639">
        <ele>1722.8</ele>
        <time>2024-08-12T04:56:36Z</time>
      </trkpt>
      <trkpt lat="44.82264" lon="6.39638">
        <ele>1722.6</ele>
        <time>2024-08-12T04:56:37Z</time>
      </trkpt>
      <trkpt lat="44.82264" lon="6.39638">
        <ele>1722.6</ele>
        <time>2024-08-12T04:56:38Z</time>
      </trkpt>
      <trkpt lat="44.82264" lon="6.39638">
        <ele>1722.8</ele>
        <time>2024-08-12T04:56:39Z</time>
      </trkpt>
      <trkpt lat="44.82264" lon="6.39638">
        <ele>1722.8</ele>
        <time>2024-08-12T04:56:40Z</time>
      </trkpt>
      <trkpt lat="44.82262" lon="6.39638">
        <ele>1723</ele>
        <time>2024-08-12T04:56:41Z</time>
      </trkpt>
      <trkpt lat="44.82262" lon="6.39638">
        <ele>1723</ele>
        <time>2024-08-12T04:56:42Z</time>
      </trkpt>
      <trkpt lat="44.82262" lon="6.39638">
        <ele>1723.2</ele>
        <time>2024-08-12T04:56:43Z</time>
      </trkpt>
      <trkpt lat="44.82262" lon="6.39638">
        <ele>1723.6</ele>
        <time>2024-08-12T04:56:44Z</time>
      </trkpt>
      <trkpt lat="44.8226" lon="6.39638">
        <ele>1724</ele>
        <time>2024-08-12T04:56:45Z</time>
      </trkpt>
      <trkpt lat="44.8226" lon="6.39638">
        <ele>1724.4</ele>
        <time>2024-08-12T04:56:46Z</time>
      </trkpt>
      <trkpt lat="44.82258" lon="6.39636">
        <ele>1724.4</ele>
        <time>2024-08-12T04:56:47Z</time>
      </trkpt>
      <trkpt lat="44.82258" lon="6.39636">
        <ele>1724.6</ele>
        <time>2024-08-12T04:56:48Z</time>
      </trkpt>
      <trkpt lat="44.82258" lon="6.39636">
        <ele>1724.6</ele>
        <time>2024-08-12T04:56:49Z</time>
      </trkpt>
      <trkpt lat="44.82256" lon="6.39634">
        <ele>1724.6</ele>
        <time>2024-08-12T04:56:50Z</time>
      </trkpt>
      <trkpt lat="44.82256" lon="6.39634">
        <ele>1724.6</ele>
        <time>2024-08-12T04:56:51Z</time>
      </trkpt>
      <trkpt lat="44.82254" lon="6.39633">
        <ele>1724.6</ele>
        <time>2024-08-12T04:56:52Z</time>
      </trkpt>
      <trkpt lat="44.82254" lon="6.39633">
        <ele>1724.6</ele>
        <time>2024-08-12T04:56:53Z</time>
      </trkpt>
      <trkpt lat="44.82253" lon="6.39632">
        <ele>1724.6</ele>
        <time>2024-08-12T04:56:54Z</time>
      </trkpt>
      <trkpt lat="44.82253" lon="6.39632">
        <ele>1724.6</ele>
        <time>2024-08-12T04:56:55Z</time>
      </trkpt>
      <trkpt lat="44.82251" lon="6.39631">
        <ele>1724.6</ele>
        <time>2024-08-12T04:56:56Z</time>
      </trkpt>
      <trkpt lat="44.82251" lon="6.39631">
        <ele>1724.8</ele>
        <time>2024-08-12T04:56:57Z</time>
      </trkpt>
      <trkpt lat="44.82251" lon="6.39631">
        <ele>1725</ele>
        <time>2024-08-12T04:56:58Z</time>
      </trkpt>
      <trkpt lat="44.82249" lon="6.3963">
        <ele>1725.2</ele>
        <time>2024-08-12T04:56:59Z</time>
      </trkpt>
      <trkpt lat="44.82249" lon="6.3963">
        <ele>1725.2</ele>
        <time>2024-08-12T04:57:00Z</time>
      </trkpt>
      <trkpt lat="44.82249" lon="6.3963">
        <ele>1725.4</ele>
        <time>2024-08-12T04:57:01Z</time>
      </trkpt>
      <trkpt lat="44.82247" lon="6.39629">
        <ele>1725.6</ele>
        <time>2024-08-12T04:57:02Z</time>
      </trkpt>
      <trkpt lat="44.82247" lon="6.39629">
        <ele>1725.6</ele>
        <time>2024-08-12T04:57:03Z</time>
      </trkpt>
      <trkpt lat="44.82245" lon="6.39627">
        <ele>1726</ele>
        <time>2024-08-12T04:57:04Z</time>
      </trkpt>
      <trkpt lat="44.82245" lon="6.39627">
        <ele>1726</ele>
        <time>2024-08-12T04:57:05Z</time>
      </trkpt>
      <trkpt lat="44.82244" lon="6.39625">
        <ele>1726</ele>
        <time>2024-08-12T04:57:06Z</time>
      </trkpt>
      <trkpt lat="44.82244" lon="6.39625">
        <ele>1726.2</ele>
        <time>2024-08-12T04:57:07Z</time>
      </trkpt>
      <trkpt lat="44.82243" lon="6.39623">
        <ele>1726.2</ele>
        <time>2024-08-12T04:57:08Z</time>
      </trkpt>
      <trkpt lat="44.82243" lon="6.39623">
        <ele>1726.4</ele>
        <time>2024-08-12T04:57:09Z</time>
      </trkpt>
      <trkpt lat="44.82241" lon="6.39621">
        <ele>1726.6</ele>
        <time>2024-08-12T04:57:10Z</time>
      </trkpt>
      <trkpt lat="44.82241" lon="6.39621">
        <ele>1726.6</ele>
        <time>2024-08-12T04:57:11Z</time>
      </trkpt>
      <trkpt lat="44.82239" lon="6.3962">
        <ele>1726.6</ele>
        <time>2024-08-12T04:57:12Z</time>
      </trkpt>
      <trkpt lat="44.82239" lon="6.3962">
        <ele>1726.6</ele>
        <time>2024-08-12T04:57:13Z</time>
      </trkpt>
      <trkpt lat="44.82239" lon="6.3962">
        <ele>1726.8</ele>
        <time>2024-08-12T04:57:14Z</time>
      </trkpt>
      <trkpt lat="44.82237" lon="6.3962">
        <ele>1726.8</ele>
        <time>2024-08-12T04:57:15Z</time>
      </trkpt>
      <trkpt lat="44.82237" lon="6.3962">
        <ele>1727.4</ele>
        <time>2024-08-12T04:57:16Z</time>
      </trkpt>
      <trkpt lat="44.82237" lon="6.3962">
        <ele>1727.4</ele>
        <time>2024-08-12T04:57:17Z</time>
      </trkpt>
      <trkpt lat="44.82234" lon="6.39621">
        <ele>1727.4</ele>
        <time>2024-08-12T04:57:18Z</time>
      </trkpt>
      <trkpt lat="44.82234" lon="6.39621">
        <ele>1727.8</ele>
        <time>2024-08-12T04:57:19Z</time>
      </trkpt>
      <trkpt lat="44.82234" lon="6.39621">
        <ele>1727.8</ele>
        <time>2024-08-12T04:57:20Z</time>
      </trkpt>
      <trkpt lat="44.82232" lon="6.39622">
        <ele>1727.8</ele>
        <time>2024-08-12T04:57:21Z</time>
      </trkpt>
      <trkpt lat="44.82232" lon="6.39622">
        <ele>1728.2</ele>
        <time>2024-08-12T04:57:22Z</time>
      </trkpt>
      <trkpt lat="44.8223" lon="6.39623">
        <ele>1728.4</ele>
        <time>2024-08-12T04:57:23Z</time>
      </trkpt>
      <trkpt lat="44.8223" lon="6.39623">
        <ele>1728.6</ele>
        <time>2024-08-12T04:57:24Z</time>
      </trkpt>
      <trkpt lat="44.82229" lon="6.39625">
        <ele>1728.6</ele>
        <time>2024-08-12T04:57:25Z</time>
      </trkpt>
      <trkpt lat="44.82229" lon="6.39625">
        <ele>1729</ele>
        <time>2024-08-12T04:57:26Z</time>
      </trkpt>
      <trkpt lat="44.82227" lon="6.39626">
        <ele>1729.2</ele>
        <time>2024-08-12T04:57:27Z</time>
      </trkpt>
      <trkpt lat="44.82227" lon="6.39626">
        <ele>1729.2</ele>
        <time>2024-08-12T04:57:28Z</time>
      </trkpt>
      <trkpt lat="44.82225" lon="6.39627">
        <ele>1729.2</ele>
        <time>2024-08-12T04:57:29Z</time>
      </trkpt>
      <trkpt lat="44.82225" lon="6.39627">
        <ele>1729.4</ele>
        <time>2024-08-12T04:57:30Z</time>
      </trkpt>
      <trkpt lat="44.82222" lon="6.39627">
        <ele>1729.4</ele>
        <time>2024-08-12T04:57:31Z</time>
      </trkpt>
      <trkpt lat="44.82222" lon="6.39627">
        <ele>1729.4</ele>
        <time>2024-08-12T04:57:32Z</time>
      </trkpt>
      <trkpt lat="44.82222" lon="6.39627">
        <ele>1729.8</ele>
        <time>2024-08-12T04:57:33Z</time>
      </trkpt>
      <trkpt lat="44.8222" lon="6.39627">
        <ele>1729.8</ele>
        <time>2024-08-12T04:57:34Z</time>
      </trkpt>
      <trkpt lat="44.8222" lon="6.39627">
        <ele>1730</ele>
        <time>2024-08-12T04:57:35Z</time>
      </trkpt>
      <trkpt lat="44.8222" lon="6.39627">
        <ele>1730</ele>
        <time>2024-08-12T04:57:36Z</time>
      </trkpt>
      <trkpt lat="44.82217" lon="6.39627">
        <ele>1730.2</ele>
        <time>2024-08-12T04:57:37Z</time>
      </trkpt>
      <trkpt lat="44.82217" lon="6.39627">
        <ele>1730.2</ele>
        <time>2024-08-12T04:57:38Z</time>
      </trkpt>
      <trkpt lat="44.82215" lon="6.39628">
        <ele>1730.6</ele>
        <time>2024-08-12T04:57:39Z</time>
      </trkpt>
      <trkpt lat="44.82215" lon="6.39628">
        <ele>1730.8</ele>
        <time>2024-08-12T04:57:40Z</time>
      </trkpt>
      <trkpt lat="44.82213" lon="6.39628">
        <ele>1731</ele>
        <time>2024-08-12T04:57:41Z</time>
      </trkpt>
      <trkpt lat="44.82213" lon="6.39628">
        <ele>1731.2</ele>
        <time>2024-08-12T04:57:42Z</time>
      </trkpt>
      <trkpt lat="44.82212" lon="6.39626">
        <ele>1731.2</ele>
        <time>2024-08-12T04:57:43Z</time>
      </trkpt>
      <trkpt lat="44.82212" lon="6.39626">
        <ele>1731.2</ele>
        <time>2024-08-12T04:57:44Z</time>
      </trkpt>
      <trkpt lat="44.82212" lon="6.39626">
        <ele>1731.4</ele>
        <time>2024-08-12T04:57:45Z</time>
      </trkpt>
      <trkpt lat="44.82212" lon="6.39626">
        <ele>1731.4</ele>
        <time>2024-08-12T04:57:46Z</time>
      </trkpt>
      <trkpt lat="44.82212" lon="6.39623">
        <ele>1731.6</ele>
        <time>2024-08-12T04:57:47Z</time>
      </trkpt>
      <trkpt lat="44.82212" lon="6.39623">
        <ele>1731.6</ele>
        <time>2024-08-12T04:57:48Z</time>
      </trkpt>
      <trkpt lat="44.82212" lon="6.39623">
        <ele>1731.6</ele>
        <time>2024-08-12T04:57:49Z</time>
      </trkpt>
      <trkpt lat="44.82212" lon="6.3962">
        <ele>1731.6</ele>
        <time>2024-08-12T04:57:50Z</time>
      </trkpt>
      <trkpt lat="44.82212" lon="6.3962">
        <ele>1731.6</ele>
        <time>2024-08-12T04:57:51Z</time>
      </trkpt>
      <trkpt lat="44.82212" lon="6.3962">
        <ele>1732.4</ele>
        <time>2024-08-12T04:57:52Z</time>
      </trkpt>
      <trkpt lat="44.82211" lon="6.39617">
        <ele>1732.6</ele>
        <time>2024-08-12T04:57:53Z</time>
      </trkpt>
      <trkpt lat="44.82211" lon="6.39617">
        <ele>1732.6</ele>
        <time>2024-08-12T04:57:54Z</time>
      </trkpt>
      <trkpt lat="44.8221" lon="6.39616">
        <ele>1732.6</ele>
        <time>2024-08-12T04:57:55Z</time>
      </trkpt>
      <trkpt lat="44.8221" lon="6.39616">
        <ele>1732.4</ele>
        <time>2024-08-12T04:57:56Z</time>
      </trkpt>
      <trkpt lat="44.8221" lon="6.39616">
        <ele>1732.4</ele>
        <time>2024-08-12T04:57:57Z</time>
      </trkpt>
      <trkpt lat="44.82207" lon="6.39616">
        <ele>1732.4</ele>
        <time>2024-08-12T04:57:58Z</time>
      </trkpt>
      <trkpt lat="44.82207" lon="6.39616">
        <ele>1732.4</ele>
        <time>2024-08-12T04:57:59Z</time>
      </trkpt>
      <trkpt lat="44.82207" lon="6.39616">
        <ele>1732.4</ele>
        <time>2024-08-12T04:58:00Z</time>
      </trkpt>
      <trkpt lat="44.82207" lon="6.39616">
        <ele>1732.8</ele>
        <time>2024-08-12T04:58:01Z</time>
      </trkpt>
      <trkpt lat="44.82207" lon="6.39616">
        <ele>1733.2</ele>
        <time>2024-08-12T04:58:02Z</time>
      </trkpt>
      <trkpt lat="44.82205" lon="6.39617">
        <ele>1733.2</ele>
        <time>2024-08-12T04:58:03Z</time>
      </trkpt>
      <trkpt lat="44.82205" lon="6.39617">
        <ele>1733</ele>
        <time>2024-08-12T04:58:04Z</time>
      </trkpt>
      <trkpt lat="44.82205" lon="6.39617">
        <ele>1733</ele>
        <time>2024-08-12T04:58:05Z</time>
      </trkpt>
      <trkpt lat="44.82205" lon="6.39617">
        <ele>1733.2</ele>
        <time>2024-08-12T04:58:06Z</time>
      </trkpt>
      <trkpt lat="44.82205" lon="6.39617">
        <ele>1733.6</ele>
        <time>2024-08-12T04:58:07Z</time>
      </trkpt>
      <trkpt lat="44.82203" lon="6.39615">
        <ele>1733.6</ele>
        <time>2024-08-12T04:58:08Z</time>
      </trkpt>
      <trkpt lat="44.82203" lon="6.39615">
        <ele>1733.8</ele>
        <time>2024-08-12T04:58:09Z</time>
      </trkpt>
      <trkpt lat="44.82203" lon="6.39615">
        <ele>1734</ele>
        <time>2024-08-12T04:58:10Z</time>
      </trkpt>
      <trkpt lat="44.82201" lon="6.39614">
        <ele>1734.4</ele>
        <time>2024-08-12T04:58:11Z</time>
      </trkpt>
      <trkpt lat="44.82201" lon="6.39614">
        <ele>1734.6</ele>
        <time>2024-08-12T04:58:12Z</time>
      </trkpt>
      <trkpt lat="44.82201" lon="6.39614">
        <ele>1734.8</ele>
        <time>2024-08-12T04:58:13Z</time>
      </trkpt>
      <trkpt lat="44.822" lon="6.39612">
        <ele>1734.8</ele>
        <time>2024-08-12T04:58:14Z</time>
      </trkpt>
      <trkpt lat="44.822" lon="6.39612">
        <ele>1735.6</ele>
        <time>2024-08-12T04:58:15Z</time>
      </trkpt>
      <trkpt lat="44.82198" lon="6.3961">
        <ele>1735.6</ele>
        <time>2024-08-12T04:58:16Z</time>
      </trkpt>
      <trkpt lat="44.82198" lon="6.3961">
        <ele>1735.6</ele>
        <time>2024-08-12T04:58:17Z</time>
      </trkpt>
      <trkpt lat="44.82198" lon="6.3961">
        <ele>1735.6</ele>
        <time>2024-08-12T04:58:18Z</time>
      </trkpt>
      <trkpt lat="44.82195" lon="6.3961">
        <ele>1735.6</ele>
        <time>2024-08-12T04:58:19Z</time>
      </trkpt>
      <trkpt lat="44.82195" lon="6.3961">
        <ele>1736</ele>
        <time>2024-08-12T04:58:20Z</time>
      </trkpt>
      <trkpt lat="44.82193" lon="6.39611">
        <ele>1736</ele>
        <time>2024-08-12T04:58:21Z</time>
      </trkpt>
      <trkpt lat="44.82193" lon="6.39611">
        <ele>1736.2</ele>
        <time>2024-08-12T04:58:22Z</time>
      </trkpt>
      <trkpt lat="44.82193" lon="6.39611">
        <ele>1736.8</ele>
        <time>2024-08-12T04:58:23Z</time>
      </trkpt>
      <trkpt lat="44.82193" lon="6.39611">
        <ele>1736.8</ele>
        <time>2024-08-12T04:58:24Z</time>
      </trkpt>
      <trkpt lat="44.82193" lon="6.39611">
        <ele>1736.8</ele>
        <time>2024-08-12T04:58:25Z</time>
      </trkpt>
      <trkpt lat="44.82193" lon="6.39611">
        <ele>1737</ele>
        <time>2024-08-12T04:58:26Z</time>
      </trkpt>
      <trkpt lat="44.82193" lon="6.39611">
        <ele>1737</ele>
        <time>2024-08-12T04:58:27Z</time>
      </trkpt>
      <trkpt lat="44.82193" lon="6.39611">
        <ele>1736.8</ele>
        <time>2024-08-12T04:58:28Z</time>
      </trkpt>
      <trkpt lat="44.82193" lon="6.39611">
        <ele>1736.8</ele>
        <time>2024-08-12T04:58:29Z</time>
      </trkpt>
      <trkpt lat="44.82193" lon="6.39611">
        <ele>1737</ele>
        <time>2024-08-12T04:58:30Z</time>
      </trkpt>
      <trkpt lat="44.82193" lon="6.39611">
        <ele>1737</ele>
        <time>2024-08-12T04:58:31Z</time>
      </trkpt>
      <trkpt lat="44.82191" lon="6.39611">
        <ele>1736.8</ele>
        <time>2024-08-12T04:58:32Z</time>
      </trkpt>
      <trkpt lat="44.82191" lon="6.39611">
        <ele>1736.8</ele>
        <time>2024-08-12T04:58:33Z</time>
      </trkpt>
      <trkpt lat="44.82188" lon="6.3961">
        <ele>1736.8</ele>
        <time>2024-08-12T04:58:34Z</time>
      </trkpt>
      <trkpt lat="44.82188" lon="6.3961">
        <ele>1736.8</ele>
        <time>2024-08-12T04:58:35Z</time>
      </trkpt>
      <trkpt lat="44.82185" lon="6.39608">
        <ele>1736.4</ele>
        <time>2024-08-12T04:58:36Z</time>
      </trkpt>
      <trkpt lat="44.82185" lon="6.39608">
        <ele>1736.4</ele>
        <time>2024-08-12T04:58:37Z</time>
      </trkpt>
      <trkpt lat="44.82183" lon="6.39607">
        <ele>1736.4</ele>
        <time>2024-08-12T04:58:38Z</time>
      </trkpt>
      <trkpt lat="44.82183" lon="6.39607">
        <ele>1736.8</ele>
        <time>2024-08-12T04:58:39Z</time>
      </trkpt>
      <trkpt lat="44.82181" lon="6.39605">
        <ele>1736.8</ele>
        <time>2024-08-12T04:58:40Z</time>
      </trkpt>
      <trkpt lat="44.82181" lon="6.39605">
        <ele>1736.8</ele>
        <time>2024-08-12T04:58:41Z</time>
      </trkpt>
      <trkpt lat="44.82179" lon="6.39604">
        <ele>1737</ele>
        <time>2024-08-12T04:58:42Z</time>
      </trkpt>
      <trkpt lat="44.82179" lon="6.39604">
        <ele>1737</ele>
        <time>2024-08-12T04:58:43Z</time>
      </trkpt>
      <trkpt lat="44.82177" lon="6.39603">
        <ele>1737</ele>
        <time>2024-08-12T04:58:44Z</time>
      </trkpt>
      <trkpt lat="44.82177" lon="6.39603">
        <ele>1737</ele>
        <time>2024-08-12T04:58:45Z</time>
      </trkpt>
      <trkpt lat="44.82175" lon="6.39601">
        <ele>1737.4</ele>
        <time>2024-08-12T04:58:46Z</time>
      </trkpt>
      <trkpt lat="44.82175" lon="6.39601">
        <ele>1737.4</ele>
        <time>2024-08-12T04:58:47Z</time>
      </trkpt>
      <trkpt lat="44.82173" lon="6.39599">
        <ele>1737.4</ele>
        <time>2024-08-12T04:58:48Z</time>
      </trkpt>
      <trkpt lat="44.82173" lon="6.39599">
        <ele>1737.6</ele>
        <time>2024-08-12T04:58:49Z</time>
      </trkpt>
      <trkpt lat="44.82172" lon="6.39598">
        <ele>1737.8</ele>
        <time>2024-08-12T04:58:50Z</time>
      </trkpt>
      <trkpt lat="44.82172" lon="6.39598">
        <ele>1737.8</ele>
        <time>2024-08-12T04:58:51Z</time>
      </trkpt>
      <trkpt lat="44.8217" lon="6.39597">
        <ele>1737.8</ele>
        <time>2024-08-12T04:58:52Z</time>
      </trkpt>
      <trkpt lat="44.8217" lon="6.39597">
        <ele>1737.8</ele>
        <time>2024-08-12T04:58:53Z</time>
      </trkpt>
      <trkpt lat="44.82168" lon="6.39596">
        <ele>1738</ele>
        <time>2024-08-12T04:58:54Z</time>
      </trkpt>
      <trkpt lat="44.82168" lon="6.39596">
        <ele>1738</ele>
        <time>2024-08-12T04:58:55Z</time>
      </trkpt>
      <trkpt lat="44.82168" lon="6.39596">
        <ele>1738</ele>
        <time>2024-08-12T04:58:56Z</time>
      </trkpt>
      <trkpt lat="44.82165" lon="6.39594">
        <ele>1738</ele>
        <time>2024-08-12T04:58:57Z</time>
      </trkpt>
      <trkpt lat="44.82165" lon="6.39594">
        <ele>1738.2</ele>
        <time>2024-08-12T04:58:58Z</time>
      </trkpt>
      <trkpt lat="44.82163" lon="6.39593">
        <ele>1738.4</ele>
        <time>2024-08-12T04:58:59Z</time>
      </trkpt>
      <trkpt lat="44.82163" lon="6.39593">
        <ele>1738.4</ele>
        <time>2024-08-12T04:59:00Z</time>
      </trkpt>
      <trkpt lat="44.82161" lon="6.39593">
        <ele>1738.4</ele>
        <time>2024-08-12T04:59:01Z</time>
      </trkpt>
      <trkpt lat="44.82161" lon="6.39593">
        <ele>1738.8</ele>
        <time>2024-08-12T04:59:02Z</time>
      </trkpt>
      <trkpt lat="44.82159" lon="6.39593">
        <ele>1738.8</ele>
        <time>2024-08-12T04:59:03Z</time>
      </trkpt>
      <trkpt lat="44.82159" lon="6.39593">
        <ele>1739</ele>
        <time>2024-08-12T04:59:04Z</time>
      </trkpt>
      <trkpt lat="44.82157" lon="6.39592">
        <ele>1739</ele>
        <time>2024-08-12T04:59:05Z</time>
      </trkpt>
      <trkpt lat="44.82157" lon="6.39592">
        <ele>1739</ele>
        <time>2024-08-12T04:59:06Z</time>
      </trkpt>
      <trkpt lat="44.82156" lon="6.3959">
        <ele>1739</ele>
        <time>2024-08-12T04:59:07Z</time>
      </trkpt>
      <trkpt lat="44.82156" lon="6.3959">
        <ele>1739</ele>
        <time>2024-08-12T04:59:08Z</time>
      </trkpt>
      <trkpt lat="44.82154" lon="6.39589">
        <ele>1739</ele>
        <time>2024-08-12T04:59:09Z</time>
      </trkpt>
      <trkpt lat="44.82154" lon="6.39589">
        <ele>1739</ele>
        <time>2024-08-12T04:59:10Z</time>
      </trkpt>
      <trkpt lat="44.82152" lon="6.39587">
        <ele>1739.2</ele>
        <time>2024-08-12T04:59:11Z</time>
      </trkpt>
      <trkpt lat="44.82152" lon="6.39587">
        <ele>1739.2</ele>
        <time>2024-08-12T04:59:12Z</time>
      </trkpt>
      <trkpt lat="44.8215" lon="6.39585">
        <ele>1739.2</ele>
        <time>2024-08-12T04:59:13Z</time>
      </trkpt>
      <trkpt lat="44.8215" lon="6.39585">
        <ele>1739.2</ele>
        <time>2024-08-12T04:59:14Z</time>
      </trkpt>
      <trkpt lat="44.8215" lon="6.39585">
        <ele>1739.4</ele>
        <time>2024-08-12T04:59:15Z</time>
      </trkpt>
      <trkpt lat="44.82147" lon="6.39584">
        <ele>1739.6</ele>
        <time>2024-08-12T04:59:16Z</time>
      </trkpt>
      <trkpt lat="44.82147" lon="6.39584">
        <ele>1739.8</ele>
        <time>2024-08-12T04:59:17Z</time>
      </trkpt>
      <trkpt lat="44.82147" lon="6.39584">
        <ele>1740</ele>
        <time>2024-08-12T04:59:18Z</time>
      </trkpt>
      <trkpt lat="44.82145" lon="6.39584">
        <ele>1740.2</ele>
        <time>2024-08-12T04:59:19Z</time>
      </trkpt>
      <trkpt lat="44.82145" lon="6.39584">
        <ele>1740.6</ele>
        <time>2024-08-12T04:59:20Z</time>
      </trkpt>
      <trkpt lat="44.82145" lon="6.39584">
        <ele>1740.8</ele>
        <time>2024-08-12T04:59:21Z</time>
      </trkpt>
      <trkpt lat="44.82142" lon="6.39584">
        <ele>1740.8</ele>
        <time>2024-08-12T04:59:22Z</time>
      </trkpt>
      <trkpt lat="44.82142" lon="6.39584">
        <ele>1741.4</ele>
        <time>2024-08-12T04:59:23Z</time>
      </trkpt>
      <trkpt lat="44.82142" lon="6.39584">
        <ele>1741.4</ele>
        <time>2024-08-12T04:59:24Z</time>
      </trkpt>
      <trkpt lat="44.8214" lon="6.39585">
        <ele>1741.4</ele>
        <time>2024-08-12T04:59:25Z</time>
      </trkpt>
      <trkpt lat="44.8214" lon="6.39585">
        <ele>1741.6</ele>
        <time>2024-08-12T04:59:26Z</time>
      </trkpt>
      <trkpt lat="44.82138" lon="6.39586">
        <ele>1741.8</ele>
        <time>2024-08-12T04:59:27Z</time>
      </trkpt>
      <trkpt lat="44.82138" lon="6.39586">
        <ele>1742.2</ele>
        <time>2024-08-12T04:59:28Z</time>
      </trkpt>
      <trkpt lat="44.82138" lon="6.39586">
        <ele>1742.4</ele>
        <time>2024-08-12T04:59:29Z</time>
      </trkpt>
      <trkpt lat="44.82135" lon="6.39586">
        <ele>1742.4</ele>
        <time>2024-08-12T04:59:30Z</time>
      </trkpt>
      <trkpt lat="44.82135" lon="6.39586">
        <ele>1742.4</ele>
        <time>2024-08-12T04:59:31Z</time>
      </trkpt>
      <trkpt lat="44.82135" lon="6.39586">
        <ele>1742.6</ele>
        <time>2024-08-12T04:59:32Z</time>
      </trkpt>
      <trkpt lat="44.82133" lon="6.39586">
        <ele>1742.8</ele>
        <time>2024-08-12T04:59:33Z</time>
      </trkpt>
      <trkpt lat="44.82133" lon="6.39586">
        <ele>1742.8</ele>
        <time>2024-08-12T04:59:34Z</time>
      </trkpt>
      <trkpt lat="44.82131" lon="6.39586">
        <ele>1742.8</ele>
        <time>2024-08-12T04:59:35Z</time>
      </trkpt>
      <trkpt lat="44.82131" lon="6.39586">
        <ele>1743</ele>
        <time>2024-08-12T04:59:36Z</time>
      </trkpt>
      <trkpt lat="44.82129" lon="6.39585">
        <ele>1743.2</ele>
        <time>2024-08-12T04:59:37Z</time>
      </trkpt>
      <trkpt lat="44.82129" lon="6.39585">
        <ele>1743.4</ele>
        <time>2024-08-12T04:59:38Z</time>
      </trkpt>
      <trkpt lat="44.82127" lon="6.39585">
        <ele>1743.4</ele>
        <time>2024-08-12T04:59:39Z</time>
      </trkpt>
      <trkpt lat="44.82127" lon="6.39585">
        <ele>1743.4</ele>
        <time>2024-08-12T04:59:40Z</time>
      </trkpt>
      <trkpt lat="44.82127" lon="6.39585">
        <ele>1743.4</ele>
        <time>2024-08-12T04:59:41Z</time>
      </trkpt>
      <trkpt lat="44.82125" lon="6.39587">
        <ele>1743.6</ele>
        <time>2024-08-12T04:59:42Z</time>
      </trkpt>
      <trkpt lat="44.82125" lon="6.39587">
        <ele>1743.8</ele>
        <time>2024-08-12T04:59:43Z</time>
      </trkpt>
      <trkpt lat="44.82123" lon="6.39588">
        <ele>1744</ele>
        <time>2024-08-12T04:59:44Z</time>
      </trkpt>
      <trkpt lat="44.82123" lon="6.39588">
        <ele>1744</ele>
        <time>2024-08-12T04:59:45Z</time>
      </trkpt>
      <trkpt lat="44.82121" lon="6.39589">
        <ele>1744</ele>
        <time>2024-08-12T04:59:46Z</time>
      </trkpt>
      <trkpt lat="44.82121" lon="6.39589">
        <ele>1744</ele>
        <time>2024-08-12T04:59:47Z</time>
      </trkpt>
      <trkpt lat="44.82118" lon="6.3959">
        <ele>1744</ele>
        <time>2024-08-12T04:59:48Z</time>
      </trkpt>
      <trkpt lat="44.82118" lon="6.3959">
        <ele>1744</ele>
        <time>2024-08-12T04:59:49Z</time>
      </trkpt>
      <trkpt lat="44.82116" lon="6.3959">
        <ele>1744</ele>
        <time>2024-08-12T04:59:50Z</time>
      </trkpt>
      <trkpt lat="44.82116" lon="6.3959">
        <ele>1744</ele>
        <time>2024-08-12T04:59:51Z</time>
      </trkpt>
      <trkpt lat="44.82116" lon="6.3959">
        <ele>1744</ele>
        <time>2024-08-12T04:59:52Z</time>
      </trkpt>
      <trkpt lat="44.82114" lon="6.39591">
        <ele>1744.4</ele>
        <time>2024-08-12T04:59:53Z</time>
      </trkpt>
      <trkpt lat="44.82114" lon="6.39591">
        <ele>1744.6</ele>
        <time>2024-08-12T04:59:54Z</time>
      </trkpt>
      <trkpt lat="44.82112" lon="6.39593">
        <ele>1744.6</ele>
        <time>2024-08-12T04:59:55Z</time>
      </trkpt>
      <trkpt lat="44.82112" lon="6.39593">
        <ele>1744.6</ele>
        <time>2024-08-12T04:59:56Z</time>
      </trkpt>
      <trkpt lat="44.8211" lon="6.39594">
        <ele>1745</ele>
        <time>2024-08-12T04:59:57Z</time>
      </trkpt>
      <trkpt lat="44.8211" lon="6.39594">
        <ele>1745</ele>
        <time>2024-08-12T04:59:58Z</time>
      </trkpt>
      <trkpt lat="44.82108" lon="6.39596">
        <ele>1745</ele>
        <time>2024-08-12T04:59:59Z</time>
      </trkpt>
      <trkpt lat="44.82108" lon="6.39596">
        <ele>1745</ele>
        <time>2024-08-12T05:00:00Z</time>
      </trkpt>
      <trkpt lat="44.82107" lon="6.39598">
        <ele>1745</ele>
        <time>2024-08-12T05:00:01Z</time>
      </trkpt>
      <trkpt lat="44.82107" lon="6.39598">
        <ele>1745.4</ele>
        <time>2024-08-12T05:00:02Z</time>
      </trkpt>
      <trkpt lat="44.82106" lon="6.396">
        <ele>1745.4</ele>
        <time>2024-08-12T05:00:03Z</time>
      </trkpt>
      <trkpt lat="44.82106" lon="6.396">
        <ele>1745.8</ele>
        <time>2024-08-12T05:00:04Z</time>
      </trkpt>
      <trkpt lat="44.82106" lon="6.396">
        <ele>1746</ele>
        <time>2024-08-12T05:00:05Z</time>
      </trkpt>
      <trkpt lat="44.82104" lon="6.39601">
        <ele>1746</ele>
        <time>2024-08-12T05:00:06Z</time>
      </trkpt>
      <trkpt lat="44.82104" lon="6.39601">
        <ele>1746.2</ele>
        <time>2024-08-12T05:00:07Z</time>
      </trkpt>
      <trkpt lat="44.82104" lon="6.39601">
        <ele>1746.6</ele>
        <time>2024-08-12T05:00:08Z</time>
      </trkpt>
      <trkpt lat="44.82104" lon="6.39601">
        <ele>1746.8</ele>
        <time>2024-08-12T05:00:09Z</time>
      </trkpt>
      <trkpt lat="44.82104" lon="6.39601">
        <ele>1747</ele>
        <time>2024-08-12T05:00:10Z</time>
      </trkpt>
      <trkpt lat="44.82104" lon="6.39601">
        <ele>1747.2</ele>
        <time>2024-08-12T05:00:11Z</time>
      </trkpt>
      <trkpt lat="44.82104" lon="6.39601">
        <ele>1747.4</ele>
        <time>2024-08-12T05:00:12Z</time>
      </trkpt>
      <trkpt lat="44.82104" lon="6.39601">
        <ele>1747.4</ele>
        <time>2024-08-12T05:00:13Z</time>
      </trkpt>
      <trkpt lat="44.82104" lon="6.39601">
        <ele>1747.2</ele>
        <time>2024-08-12T05:00:14Z</time>
      </trkpt>
      <trkpt lat="44.82104" lon="6.39601">
        <ele>1747.2</ele>
        <time>2024-08-12T05:00:15Z</time>
      </trkpt>
      <trkpt lat="44.82102" lon="6.396">
        <ele>1747.2</ele>
        <time>2024-08-12T05:00:16Z</time>
      </trkpt>
      <trkpt lat="44.82102" lon="6.396">
        <ele>1747.2</ele>
        <time>2024-08-12T05:00:17Z</time>
      </trkpt>
      <trkpt lat="44.821" lon="6.39599">
        <ele>1747</ele>
        <time>2024-08-12T05:00:18Z</time>
      </trkpt>
      <trkpt lat="44.821" lon="6.39599">
        <ele>1747</ele>
        <time>2024-08-12T05:00:19Z</time>
      </trkpt>
      <trkpt lat="44.82097" lon="6.39599">
        <ele>1747.8</ele>
        <time>2024-08-12T05:00:20Z</time>
      </trkpt>
      <trkpt lat="44.82097" lon="6.39599">
        <ele>1747.8</ele>
        <time>2024-08-12T05:00:21Z</time>
      </trkpt>
      <trkpt lat="44.82094" lon="6.39599">
        <ele>1747.8</ele>
        <time>2024-08-12T05:00:22Z</time>
      </trkpt>
      <trkpt lat="44.82094" lon="6.39599">
        <ele>1747.8</ele>
        <time>2024-08-12T05:00:23Z</time>
      </trkpt>
      <trkpt lat="44.82094" lon="6.39599">
        <ele>1748.4</ele>
        <time>2024-08-12T05:00:24Z</time>
      </trkpt>
      <trkpt lat="44.82092" lon="6.39599">
        <ele>1748.4</ele>
        <time>2024-08-12T05:00:25Z</time>
      </trkpt>
      <trkpt lat="44.82092" lon="6.39599">
        <ele>1748.6</ele>
        <time>2024-08-12T05:00:26Z</time>
      </trkpt>
      <trkpt lat="44.82092" lon="6.39599">
        <ele>1748.8</ele>
        <time>2024-08-12T05:00:27Z</time>
      </trkpt>
      <trkpt lat="44.8209" lon="6.39597">
        <ele>1748.8</ele>
        <time>2024-08-12T05:00:28Z</time>
      </trkpt>
      <trkpt lat="44.8209" lon="6.39597">
        <ele>1748.8</ele>
        <time>2024-08-12T05:00:29Z</time>
      </trkpt>
      <trkpt lat="44.82088" lon="6.39598">
        <ele>1748.8</ele>
        <time>2024-08-12T05:00:30Z</time>
      </trkpt>
      <trkpt lat="44.82088" lon="6.39598">
        <ele>1749.2</ele>
        <time>2024-08-12T05:00:31Z</time>
      </trkpt>
      <trkpt lat="44.82086" lon="6.39598">
        <ele>1749.6</ele>
        <time>2024-08-12T05:00:32Z</time>
      </trkpt>
      <trkpt lat="44.82086" lon="6.39598">
        <ele>1749.6</ele>
        <time>2024-08-12T05:00:33Z</time>
      </trkpt>
      <trkpt lat="44.82084" lon="6.39598">
        <ele>1749.8</ele>
        <time>2024-08-12T05:00:34Z</time>
      </trkpt>
      <trkpt lat="44.82084" lon="6.39598">
        <ele>1749.8</ele>
        <time>2024-08-12T05:00:35Z</time>
      </trkpt>
      <trkpt lat="44.82082" lon="6.39598">
        <ele>1750</ele>
        <time>2024-08-12T05:00:36Z</time>
      </trkpt>
      <trkpt lat="44.82082" lon="6.39598">
        <ele>1750.2</ele>
        <time>2024-08-12T05:00:37Z</time>
      </trkpt>
      <trkpt lat="44.82082" lon="6.39598">
        <ele>1750.6</ele>
        <time>2024-08-12T05:00:38Z</time>
      </trkpt>
      <trkpt lat="44.82082" lon="6.39598">
        <ele>1750.8</ele>
        <time>2024-08-12T05:00:39Z</time>
      </trkpt>
      <trkpt lat="44.8208" lon="6.39599">
        <ele>1750.8</ele>
        <time>2024-08-12T05:00:40Z</time>
      </trkpt>
      <trkpt lat="44.8208" lon="6.39599">
        <ele>1751</ele>
        <time>2024-08-12T05:00:41Z</time>
      </trkpt>
      <trkpt lat="44.8208" lon="6.39599">
        <ele>1751.2</ele>
        <time>2024-08-12T05:00:42Z</time>
      </trkpt>
      <trkpt lat="44.82078" lon="6.39601">
        <ele>1751.8</ele>
        <time>2024-08-12T05:00:43Z</time>
      </trkpt>
      <trkpt lat="44.82078" lon="6.39601">
        <ele>1751.8</ele>
        <time>2024-08-12T05:00:44Z</time>
      </trkpt>
      <trkpt lat="44.82076" lon="6.39602">
        <ele>1751.8</ele>
        <time>2024-08-12T05:00:45Z</time>
      </trkpt>
      <trkpt lat="44.82076" lon="6.39602">
        <ele>1752</ele>
        <time>2024-08-12T05:00:46Z</time>
      </trkpt>
      <trkpt lat="44.82074" lon="6.39603">
        <ele>1752</ele>
        <time>2024-08-12T05:00:47Z</time>
      </trkpt>
      <trkpt lat="44.82074" lon="6.39603">
        <ele>1752.2</ele>
        <time>2024-08-12T05:00:48Z</time>
      </trkpt>
      <trkpt lat="44.82072" lon="6.39603">
        <ele>1752.6</ele>
        <time>2024-08-12T05:00:49Z</time>
      </trkpt>
      <trkpt lat="44.82072" lon="6.39603">
        <ele>1752.6</ele>
        <time>2024-08-12T05:00:50Z</time>
      </trkpt>
      <trkpt lat="44.8207" lon="6.39602">
        <ele>1752.6</ele>
        <time>2024-08-12T05:00:51Z</time>
      </trkpt>
      <trkpt lat="44.8207" lon="6.39602">
        <ele>1752.6</ele>
        <time>2024-08-12T05:00:52Z</time>
      </trkpt>
      <trkpt lat="44.8207" lon="6.39602">
        <ele>1753.4</ele>
        <time>2024-08-12T05:00:53Z</time>
      </trkpt>
      <trkpt lat="44.82068" lon="6.396">
        <ele>1753.4</ele>
        <time>2024-08-12T05:00:54Z</time>
      </trkpt>
      <trkpt lat="44.82068" lon="6.396">
        <ele>1753.2</ele>
        <time>2024-08-12T05:00:55Z</time>
      </trkpt>
      <trkpt lat="44.82068" lon="6.396">
        <ele>1753.2</ele>
        <time>2024-08-12T05:00:56Z</time>
      </trkpt>
      <trkpt lat="44.82066" lon="6.39599">
        <ele>1753.8</ele>
        <time>2024-08-12T05:00:57Z</time>
      </trkpt>
      <trkpt lat="44.82066" lon="6.39599">
        <ele>1753.8</ele>
        <time>2024-08-12T05:00:58Z</time>
      </trkpt>
      <trkpt lat="44.82064" lon="6.39598">
        <ele>1753.8</ele>
        <time>2024-08-12T05:00:59Z</time>
      </trkpt>
      <trkpt lat="44.82064" lon="6.39598">
        <ele>1753.8</ele>
        <time>2024-08-12T05:01:00Z</time>
      </trkpt>
      <trkpt lat="44.82062" lon="6.39597">
        <ele>1753.8</ele>
        <time>2024-08-12T05:01:01Z</time>
      </trkpt>
      <trkpt lat="44.82062" lon="6.39597">
        <ele>1754</ele>
        <time>2024-08-12T05:01:02Z</time>
      </trkpt>
      <trkpt lat="44.82062" lon="6.39597">
        <ele>1754</ele>
        <time>2024-08-12T05:01:03Z</time>
      </trkpt>
      <trkpt lat="44.8206" lon="6.39595">
        <ele>1754.4</ele>
        <time>2024-08-12T05:01:04Z</time>
      </trkpt>
      <trkpt lat="44.8206" lon="6.39595">
        <ele>1754.6</ele>
        <time>2024-08-12T05:01:05Z</time>
      </trkpt>
      <trkpt lat="44.82059" lon="6.39593">
        <ele>1755.2</ele>
        <time>2024-08-12T05:01:06Z</time>
      </trkpt>
      <trkpt lat="44.82059" lon="6.39593">
        <ele>1755.4</ele>
        <time>2024-08-12T05:01:07Z</time>
      </trkpt>
      <trkpt lat="44.82059" lon="6.39593">
        <ele>1755.4</ele>
        <time>2024-08-12T05:01:08Z</time>
      </trkpt>
      <trkpt lat="44.82058" lon="6.39591">
        <ele>1755.8</ele>
        <time>2024-08-12T05:01:09Z</time>
      </trkpt>
      <trkpt lat="44.82058" lon="6.39591">
        <ele>1756</ele>
        <time>2024-08-12T05:01:10Z</time>
      </trkpt>
      <trkpt lat="44.82056" lon="6.39589">
        <ele>1756</ele>
        <time>2024-08-12T05:01:11Z</time>
      </trkpt>
      <trkpt lat="44.82056" lon="6.39589">
        <ele>1756</ele>
        <time>2024-08-12T05:01:12Z</time>
      </trkpt>
      <trkpt lat="44.82056" lon="6.39589">
        <ele>1756</ele>
        <time>2024-08-12T05:01:13Z</time>
      </trkpt>
      <trkpt lat="44.82054" lon="6.39586">
        <ele>1756</ele>
        <time>2024-08-12T05:01:14Z</time>
      </trkpt>
      <trkpt lat="44.82054" lon="6.39586">
        <ele>1756</ele>
        <time>2024-08-12T05:01:15Z</time>
      </trkpt>
      <trkpt lat="44.82052" lon="6.39584">
        <ele>1756.2</ele>
        <time>2024-08-12T05:01:16Z</time>
      </trkpt>
      <trkpt lat="44.82052" lon="6.39584">
        <ele>1756.2</ele>
        <time>2024-08-12T05:01:17Z</time>
      </trkpt>
      <trkpt lat="44.8205" lon="6.39581">
        <ele>1756.2</ele>
        <time>2024-08-12T05:01:18Z</time>
      </trkpt>
      <trkpt lat="44.8205" lon="6.39581">
        <ele>1756.2</ele>
        <time>2024-08-12T05:01:19Z</time>
      </trkpt>
      <trkpt lat="44.82049" lon="6.39579">
        <ele>1756.4</ele>
        <time>2024-08-12T05:01:20Z</time>
      </trkpt>
      <trkpt lat="44.82049" lon="6.39579">
        <ele>1756.4</ele>
        <time>2024-08-12T05:01:21Z</time>
      </trkpt>
      <trkpt lat="44.82049" lon="6.39579">
        <ele>1756.4</ele>
        <time>2024-08-12T05:01:22Z</time>
      </trkpt>
      <trkpt lat="44.82047" lon="6.39576">
        <ele>1756.4</ele>
        <time>2024-08-12T05:01:23Z</time>
      </trkpt>
      <trkpt lat="44.82047" lon="6.39576">
        <ele>1756.6</ele>
        <time>2024-08-12T05:01:24Z</time>
      </trkpt>
      <trkpt lat="44.82047" lon="6.39576">
        <ele>1756.8</ele>
        <time>2024-08-12T05:01:25Z</time>
      </trkpt>
      <trkpt lat="44.82045" lon="6.39573">
        <ele>1756.8</ele>
        <time>2024-08-12T05:01:26Z</time>
      </trkpt>
      <trkpt lat="44.82045" lon="6.39573">
        <ele>1757</ele>
        <time>2024-08-12T05:01:27Z</time>
      </trkpt>
      <trkpt lat="44.82044" lon="6.39572">
        <ele>1757.2</ele>
        <time>2024-08-12T05:01:28Z</time>
      </trkpt>
      <trkpt lat="44.82044" lon="6.39572">
        <ele>1757.2</ele>
        <time>2024-08-12T05:01:29Z</time>
      </trkpt>
      <trkpt lat="44.82042" lon="6.39572">
        <ele>1757.2</ele>
        <time>2024-08-12T05:01:30Z</time>
      </trkpt>
      <trkpt lat="44.82042" lon="6.39572">
        <ele>1757.2</ele>
        <time>2024-08-12T05:01:31Z</time>
      </trkpt>
      <trkpt lat="44.82042" lon="6.39572">
        <ele>1757.4</ele>
        <time>2024-08-12T05:01:32Z</time>
      </trkpt>
      <trkpt lat="44.82039" lon="6.39572">
        <ele>1757.8</ele>
        <time>2024-08-12T05:01:33Z</time>
      </trkpt>
      <trkpt lat="44.82039" lon="6.39572">
        <ele>1757.8</ele>
        <time>2024-08-12T05:01:34Z</time>
      </trkpt>
      <trkpt lat="44.82037" lon="6.39572">
        <ele>1757.8</ele>
        <time>2024-08-12T05:01:35Z</time>
      </trkpt>
      <trkpt lat="44.82037" lon="6.39572">
        <ele>1757.6</ele>
        <time>2024-08-12T05:01:36Z</time>
      </trkpt>
      <trkpt lat="44.82034" lon="6.39572">
        <ele>1757.6</ele>
        <time>2024-08-12T05:01:37Z</time>
      </trkpt>
      <trkpt lat="44.82034" lon="6.39572">
        <ele>1757.6</ele>
        <time>2024-08-12T05:01:38Z</time>
      </trkpt>
      <trkpt lat="44.82032" lon="6.39571">
        <ele>1757.8</ele>
        <time>2024-08-12T05:01:39Z</time>
      </trkpt>
      <trkpt lat="44.82032" lon="6.39571">
        <ele>1757.8</ele>
        <time>2024-08-12T05:01:40Z</time>
      </trkpt>
      <trkpt lat="44.8203" lon="6.39569">
        <ele>1758</ele>
        <time>2024-08-12T05:01:41Z</time>
      </trkpt>
      <trkpt lat="44.8203" lon="6.39569">
        <ele>1757.8</ele>
        <time>2024-08-12T05:01:42Z</time>
      </trkpt>
      <trkpt lat="44.8203" lon="6.39565">
        <ele>1758</ele>
        <time>2024-08-12T05:01:43Z</time>
      </trkpt>
      <trkpt lat="44.8203" lon="6.39565">
        <ele>1758</ele>
        <time>2024-08-12T05:01:44Z</time>
      </trkpt>
      <trkpt lat="44.82032" lon="6.39564">
        <ele>1758</ele>
        <time>2024-08-12T05:01:45Z</time>
      </trkpt>
      <trkpt lat="44.82032" lon="6.39564">
        <ele>1758.2</ele>
        <time>2024-08-12T05:01:46Z</time>
      </trkpt>
      <trkpt lat="44.82032" lon="6.39564">
        <ele>1758.6</ele>
        <time>2024-08-12T05:01:47Z</time>
      </trkpt>
      <trkpt lat="44.82034" lon="6.39563">
        <ele>1758.8</ele>
        <time>2024-08-12T05:01:48Z</time>
      </trkpt>
      <trkpt lat="44.82034" lon="6.39563">
        <ele>1759.2</ele>
        <time>2024-08-12T05:01:49Z</time>
      </trkpt>
      <trkpt lat="44.82034" lon="6.39563">
        <ele>1759.2</ele>
        <time>2024-08-12T05:01:50Z</time>
      </trkpt>
      <trkpt lat="44.82034" lon="6.39563">
        <ele>1759.6</ele>
        <time>2024-08-12T05:01:51Z</time>
      </trkpt>
      <trkpt lat="44.82036" lon="6.39561">
        <ele>1759.6</ele>
        <time>2024-08-12T05:01:52Z</time>
      </trkpt>
      <trkpt lat="44.82036" lon="6.39561">
        <ele>1759.6</ele>
        <time>2024-08-12T05:01:53Z</time>
      </trkpt>
      <trkpt lat="44.82036" lon="6.39561">
        <ele>1760</ele>
        <time>2024-08-12T05:01:54Z</time>
      </trkpt>
      <trkpt lat="44.82036" lon="6.39561">
        <ele>1760</ele>
        <time>2024-08-12T05:01:55Z</time>
      </trkpt>
      <trkpt lat="44.82037" lon="6.39558">
        <ele>1760</ele>
        <time>2024-08-12T05:01:56Z</time>
      </trkpt>
      <trkpt lat="44.82037" lon="6.39558">
        <ele>1760.2</ele>
        <time>2024-08-12T05:01:57Z</time>
      </trkpt>
      <trkpt lat="44.82037" lon="6.39558">
        <ele>1760.4</ele>
        <time>2024-08-12T05:01:58Z</time>
      </trkpt>
      <trkpt lat="44.82037" lon="6.39558">
        <ele>1760.6</ele>
        <time>2024-08-12T05:01:59Z</time>
      </trkpt>
      <trkpt lat="44.82037" lon="6.39558">
        <ele>1761</ele>
        <time>2024-08-12T05:02:00Z</time>
      </trkpt>
      <trkpt lat="44.82037" lon="6.39558">
        <ele>1761.2</ele>
        <time>2024-08-12T05:02:01Z</time>
      </trkpt>
      <trkpt lat="44.82037" lon="6.39558">
        <ele>1761.4</ele>
        <time>2024-08-12T05:02:02Z</time>
      </trkpt>
      <trkpt lat="44.82036" lon="6.39555">
        <ele>1761.4</ele>
        <time>2024-08-12T05:02:03Z</time>
      </trkpt>
      <trkpt lat="44.82036" lon="6.39555">
        <ele>1761.6</ele>
        <time>2024-08-12T05:02:04Z</time>
      </trkpt>
      <trkpt lat="44.82034" lon="6.39553">
        <ele>1761.6</ele>
        <time>2024-08-12T05:02:05Z</time>
      </trkpt>
      <trkpt lat="44.82034" lon="6.39553">
        <ele>1762</ele>
        <time>2024-08-12T05:02:06Z</time>
      </trkpt>
      <trkpt lat="44.82034" lon="6.39553">
        <ele>1762.2</ele>
        <time>2024-08-12T05:02:07Z</time>
      </trkpt>
      <trkpt lat="44.82032" lon="6.39552">
        <ele>1762.2</ele>
        <time>2024-08-12T05:02:08Z</time>
      </trkpt>
      <trkpt lat="44.82032" lon="6.39552">
        <ele>1762.6</ele>
        <time>2024-08-12T05:02:09Z</time>
      </trkpt>
      <trkpt lat="44.82032" lon="6.39552">
        <ele>1763</ele>
        <time>2024-08-12T05:02:10Z</time>
      </trkpt>
      <trkpt lat="44.8203" lon="6.39551">
        <ele>1763</ele>
        <time>2024-08-12T05:02:11Z</time>
      </trkpt>
      <trkpt lat="44.8203" lon="6.39551">
        <ele>1763.2</ele>
        <time>2024-08-12T05:02:12Z</time>
      </trkpt>
      <trkpt lat="44.8203" lon="6.39551">
        <ele>1763.4</ele>
        <time>2024-08-12T05:02:13Z</time>
      </trkpt>
      <trkpt lat="44.82028" lon="6.39551">
        <ele>1763.4</ele>
        <time>2024-08-12T05:02:14Z</time>
      </trkpt>
      <trkpt lat="44.82028" lon="6.39551">
        <ele>1763.4</ele>
        <time>2024-08-12T05:02:15Z</time>
      </trkpt>
      <trkpt lat="44.82025" lon="6.3955">
        <ele>1763.4</ele>
        <time>2024-08-12T05:02:16Z</time>
      </trkpt>
      <trkpt lat="44.82025" lon="6.3955">
        <ele>1763.4</ele>
        <time>2024-08-12T05:02:17Z</time>
      </trkpt>
      <trkpt lat="44.82023" lon="6.39549">
        <ele>1763.6</ele>
        <time>2024-08-12T05:02:18Z</time>
      </trkpt>
      <trkpt lat="44.82023" lon="6.39549">
        <ele>1763.8</ele>
        <time>2024-08-12T05:02:19Z</time>
      </trkpt>
      <trkpt lat="44.82021" lon="6.39549">
        <ele>1763.8</ele>
        <time>2024-08-12T05:02:20Z</time>
      </trkpt>
      <trkpt lat="44.82021" lon="6.39549">
        <ele>1763.8</ele>
        <time>2024-08-12T05:02:21Z</time>
      </trkpt>
      <trkpt lat="44.82019" lon="6.3955">
        <ele>1763.6</ele>
        <time>2024-08-12T05:02:22Z</time>
      </trkpt>
      <trkpt lat="44.82019" lon="6.3955">
        <ele>1763.6</ele>
        <time>2024-08-12T05:02:23Z</time>
      </trkpt>
      <trkpt lat="44.82019" lon="6.3955">
        <ele>1763.8</ele>
        <time>2024-08-12T05:02:24Z</time>
      </trkpt>
      <trkpt lat="44.82017" lon="6.39552">
        <ele>1763.8</ele>
        <time>2024-08-12T05:02:25Z</time>
      </trkpt>
      <trkpt lat="44.82017" lon="6.39552">
        <ele>1763.6</ele>
        <time>2024-08-12T05:02:26Z</time>
      </trkpt>
      <trkpt lat="44.82016" lon="6.39555">
        <ele>1763.6</ele>
        <time>2024-08-12T05:02:27Z</time>
      </trkpt>
      <trkpt lat="44.82016" lon="6.39555">
        <ele>1763.4</ele>
        <time>2024-08-12T05:02:28Z</time>
      </trkpt>
      <trkpt lat="44.82016" lon="6.39555">
        <ele>1763.4</ele>
        <time>2024-08-12T05:02:29Z</time>
      </trkpt>
      <trkpt lat="44.82015" lon="6.39557">
        <ele>1763.2</ele>
        <time>2024-08-12T05:02:30Z</time>
      </trkpt>
      <trkpt lat="44.82015" lon="6.39557">
        <ele>1763.2</ele>
        <time>2024-08-12T05:02:31Z</time>
      </trkpt>
      <trkpt lat="44.82015" lon="6.39557">
        <ele>1763</ele>
        <time>2024-08-12T05:02:32Z</time>
      </trkpt>
      <trkpt lat="44.82013" lon="6.3956">
        <ele>1762.8</ele>
        <time>2024-08-12T05:02:33Z</time>
      </trkpt>
      <trkpt lat="44.82013" lon="6.3956">
        <ele>1762.6</ele>
        <time>2024-08-12T05:02:34Z</time>
      </trkpt>
      <trkpt lat="44.8201" lon="6.3956">
        <ele>1762.4</ele>
        <time>2024-08-12T05:02:35Z</time>
      </trkpt>
      <trkpt lat="44.8201" lon="6.3956">
        <ele>1762</ele>
        <time>2024-08-12T05:02:36Z</time>
      </trkpt>
      <trkpt lat="44.82007" lon="6.3956">
        <ele>1761.8</ele>
        <time>2024-08-12T05:02:37Z</time>
      </trkpt>
      <trkpt lat="44.82007" lon="6.3956">
        <ele>1761.8</ele>
        <time>2024-08-12T05:02:38Z</time>
      </trkpt>
      <trkpt lat="44.82005" lon="6.39559">
        <ele>1761.6</ele>
        <time>2024-08-12T05:02:39Z</time>
      </trkpt>
      <trkpt lat="44.82005" lon="6.39559">
        <ele>1761.6</ele>
        <time>2024-08-12T05:02:40Z</time>
      </trkpt>
      <trkpt lat="44.82003" lon="6.39559">
        <ele>1761.8</ele>
        <time>2024-08-12T05:02:41Z</time>
      </trkpt>
      <trkpt lat="44.82003" lon="6.39559">
        <ele>1761.8</ele>
        <time>2024-08-12T05:02:42Z</time>
      </trkpt>
      <trkpt lat="44.82001" lon="6.39558">
        <ele>1762</ele>
        <time>2024-08-12T05:02:43Z</time>
      </trkpt>
      <trkpt lat="44.82001" lon="6.39558">
        <ele>1762</ele>
        <time>2024-08-12T05:02:44Z</time>
      </trkpt>
      <trkpt lat="44.81999" lon="6.39557">
        <ele>1762</ele>
        <time>2024-08-12T05:02:45Z</time>
      </trkpt>
      <trkpt lat="44.81999" lon="6.39557">
        <ele>1762.2</ele>
        <time>2024-08-12T05:02:46Z</time>
      </trkpt>
      <trkpt lat="44.81997" lon="6.39556">
        <ele>1762.4</ele>
        <time>2024-08-12T05:02:47Z</time>
      </trkpt>
      <trkpt lat="44.81997" lon="6.39556">
        <ele>1762.6</ele>
        <time>2024-08-12T05:02:48Z</time>
      </trkpt>
      <trkpt lat="44.81995" lon="6.39554">
        <ele>1762.6</ele>
        <time>2024-08-12T05:02:49Z</time>
      </trkpt>
      <trkpt lat="44.81995" lon="6.39554">
        <ele>1762.6</ele>
        <time>2024-08-12T05:02:50Z</time>
      </trkpt>
      <trkpt lat="44.81992" lon="6.39553">
        <ele>1762.6</ele>
        <time>2024-08-12T05:02:51Z</time>
      </trkpt>
      <trkpt lat="44.81992" lon="6.39553">
        <ele>1762.6</ele>
        <time>2024-08-12T05:02:52Z</time>
      </trkpt>
      <trkpt lat="44.81992" lon="6.39553">
        <ele>1762.6</ele>
        <time>2024-08-12T05:02:53Z</time>
      </trkpt>
      <trkpt lat="44.8199" lon="6.39552">
        <ele>1762.6</ele>
        <time>2024-08-12T05:02:54Z</time>
      </trkpt>
      <trkpt lat="44.8199" lon="6.39552">
        <ele>1762.6</ele>
        <time>2024-08-12T05:02:55Z</time>
      </trkpt>
      <trkpt lat="44.81987" lon="6.39551">
        <ele>1762.6</ele>
        <time>2024-08-12T05:02:56Z</time>
      </trkpt>
      <trkpt lat="44.81987" lon="6.39551">
        <ele>1762.8</ele>
        <time>2024-08-12T05:02:57Z</time>
      </trkpt>
      <trkpt lat="44.81987" lon="6.39551">
        <ele>1762.8</ele>
        <time>2024-08-12T05:02:58Z</time>
      </trkpt>
      <trkpt lat="44.81985" lon="6.3955">
        <ele>1762.8</ele>
        <time>2024-08-12T05:02:59Z</time>
      </trkpt>
      <trkpt lat="44.81985" lon="6.3955">
        <ele>1763.2</ele>
        <time>2024-08-12T05:03:00Z</time>
      </trkpt>
      <trkpt lat="44.81983" lon="6.3955">
        <ele>1763.2</ele>
        <time>2024-08-12T05:03:01Z</time>
      </trkpt>
      <trkpt lat="44.81983" lon="6.3955">
        <ele>1763.4</ele>
        <time>2024-08-12T05:03:02Z</time>
      </trkpt>
      <trkpt lat="44.81981" lon="6.39549">
        <ele>1763.4</ele>
        <time>2024-08-12T05:03:03Z</time>
      </trkpt>
      <trkpt lat="44.81981" lon="6.39549">
        <ele>1763.8</ele>
        <time>2024-08-12T05:03:04Z</time>
      </trkpt>
      <trkpt lat="44.81979" lon="6.39548">
        <ele>1764</ele>
        <time>2024-08-12T05:03:05Z</time>
      </trkpt>
      <trkpt lat="44.81979" lon="6.39548">
        <ele>1764</ele>
        <time>2024-08-12T05:03:06Z</time>
      </trkpt>
      <trkpt lat="44.81979" lon="6.39548">
        <ele>1764.4</ele>
        <time>2024-08-12T05:03:07Z</time>
      </trkpt>
      <trkpt lat="44.81976" lon="6.39547">
        <ele>1764.4</ele>
        <time>2024-08-12T05:03:08Z</time>
      </trkpt>
      <trkpt lat="44.81976" lon="6.39547">
        <ele>1764.4</ele>
        <time>2024-08-12T05:03:09Z</time>
      </trkpt>
      <trkpt lat="44.81976" lon="6.39547">
        <ele>1764.4</ele>
        <time>2024-08-12T05:03:10Z</time>
      </trkpt>
      <trkpt lat="44.81974" lon="6.39547">
        <ele>1764.6</ele>
        <time>2024-08-12T05:03:11Z</time>
      </trkpt>
      <trkpt lat="44.81974" lon="6.39547">
        <ele>1764.6</ele>
        <time>2024-08-12T05:03:12Z</time>
      </trkpt>
      <trkpt lat="44.81973" lon="6.39549">
        <ele>1764.8</ele>
        <time>2024-08-12T05:03:13Z</time>
      </trkpt>
      <trkpt lat="44.81973" lon="6.39549">
        <ele>1764.8</ele>
        <time>2024-08-12T05:03:14Z</time>
      </trkpt>
      <trkpt lat="44.81971" lon="6.39551">
        <ele>1764.8</ele>
        <time>2024-08-12T05:03:15Z</time>
      </trkpt>
      <trkpt lat="44.81971" lon="6.39551">
        <ele>1764.8</ele>
        <time>2024-08-12T05:03:16Z</time>
      </trkpt>
      <trkpt lat="44.81969" lon="6.39554">
        <ele>1764.8</ele>
        <time>2024-08-12T05:03:17Z</time>
      </trkpt>
      <trkpt lat="44.81969" lon="6.39554">
        <ele>1764.8</ele>
        <time>2024-08-12T05:03:18Z</time>
      </trkpt>
      <trkpt lat="44.81967" lon="6.39557">
        <ele>1764.6</ele>
        <time>2024-08-12T05:03:19Z</time>
      </trkpt>
      <trkpt lat="44.81967" lon="6.39557">
        <ele>1764.6</ele>
        <time>2024-08-12T05:03:20Z</time>
      </trkpt>
      <trkpt lat="44.81965" lon="6.39557">
        <ele>1764.6</ele>
        <time>2024-08-12T05:03:21Z</time>
      </trkpt>
      <trkpt lat="44.81965" lon="6.39557">
        <ele>1764.6</ele>
        <time>2024-08-12T05:03:22Z</time>
      </trkpt>
      <trkpt lat="44.81963" lon="6.39557">
        <ele>1764.6</ele>
        <time>2024-08-12T05:03:23Z</time>
      </trkpt>
      <trkpt lat="44.81963" lon="6.39557">
        <ele>1764.6</ele>
        <time>2024-08-12T05:03:24Z</time>
      </trkpt>
      <trkpt lat="44.8196" lon="6.39557">
        <ele>1764.6</ele>
        <time>2024-08-12T05:03:25Z</time>
      </trkpt>
      <trkpt lat="44.8196" lon="6.39557">
        <ele>1764.6</ele>
        <time>2024-08-12T05:03:26Z</time>
      </trkpt>
      <trkpt lat="44.81958" lon="6.39557">
        <ele>1764.6</ele>
        <time>2024-08-12T05:03:27Z</time>
      </trkpt>
      <trkpt lat="44.81958" lon="6.39557">
        <ele>1764.8</ele>
        <time>2024-08-12T05:03:28Z</time>
      </trkpt>
      <trkpt lat="44.81955" lon="6.39556">
        <ele>1764.6</ele>
        <time>2024-08-12T05:03:29Z</time>
      </trkpt>
      <trkpt lat="44.81955" lon="6.39556">
        <ele>1764.8</ele>
        <time>2024-08-12T05:03:30Z</time>
      </trkpt>
      <trkpt lat="44.81953" lon="6.39555">
        <ele>1764.8</ele>
        <time>2024-08-12T05:03:31Z</time>
      </trkpt>
      <trkpt lat="44.81953" lon="6.39555">
        <ele>1764.8</ele>
        <time>2024-08-12T05:03:32Z</time>
      </trkpt>
      <trkpt lat="44.81951" lon="6.39554">
        <ele>1765.2</ele>
        <time>2024-08-12T05:03:33Z</time>
      </trkpt>
      <trkpt lat="44.81951" lon="6.39554">
        <ele>1765.2</ele>
        <time>2024-08-12T05:03:34Z</time>
      </trkpt>
      <trkpt lat="44.81951" lon="6.39554">
        <ele>1765.2</ele>
        <time>2024-08-12T05:03:35Z</time>
      </trkpt>
      <trkpt lat="44.81949" lon="6.39553">
        <ele>1765.4</ele>
        <time>2024-08-12T05:03:36Z</time>
      </trkpt>
      <trkpt lat="44.81949" lon="6.39553">
        <ele>1765.4</ele>
        <time>2024-08-12T05:03:37Z</time>
      </trkpt>
      <trkpt lat="44.81949" lon="6.39553">
        <ele>1765.6</ele>
        <time>2024-08-12T05:03:38Z</time>
      </trkpt>
      <trkpt lat="44.81947" lon="6.39554">
        <ele>1765.8</ele>
        <time>2024-08-12T05:03:39Z</time>
      </trkpt>
      <trkpt lat="44.81947" lon="6.39554">
        <ele>1766.2</ele>
        <time>2024-08-12T05:03:40Z</time>
      </trkpt>
      <trkpt lat="44.81944" lon="6.39555">
        <ele>1766.2</ele>
        <time>2024-08-12T05:03:41Z</time>
      </trkpt>
      <trkpt lat="44.81944" lon="6.39555">
        <ele>1766.6</ele>
        <time>2024-08-12T05:03:42Z</time>
      </trkpt>
      <trkpt lat="44.81942" lon="6.39555">
        <ele>1766.6</ele>
        <time>2024-08-12T05:03:43Z</time>
      </trkpt>
      <trkpt lat="44.81942" lon="6.39555">
        <ele>1766.8</ele>
        <time>2024-08-12T05:03:44Z</time>
      </trkpt>
      <trkpt lat="44.8194" lon="6.39554">
        <ele>1766.8</ele>
        <time>2024-08-12T05:03:45Z</time>
      </trkpt>
      <trkpt lat="44.8194" lon="6.39554">
        <ele>1767</ele>
        <time>2024-08-12T05:03:46Z</time>
      </trkpt>
      <trkpt lat="44.81938" lon="6.39552">
        <ele>1767</ele>
        <time>2024-08-12T05:03:47Z</time>
      </trkpt>
      <trkpt lat="44.81938" lon="6.39552">
        <ele>1767.2</ele>
        <time>2024-08-12T05:03:48Z</time>
      </trkpt>
      <trkpt lat="44.81938" lon="6.39552">
        <ele>1767.4</ele>
        <time>2024-08-12T05:03:49Z</time>
      </trkpt>
      <trkpt lat="44.81937" lon="6.3955">
        <ele>1767.6</ele>
        <time>2024-08-12T05:03:50Z</time>
      </trkpt>
      <trkpt lat="44.81937" lon="6.3955">
        <ele>1767.8</ele>
        <time>2024-08-12T05:03:51Z</time>
      </trkpt>
      <trkpt lat="44.81935" lon="6.39549">
        <ele>1767.8</ele>
        <time>2024-08-12T05:03:52Z</time>
      </trkpt>
      <trkpt lat="44.81935" lon="6.39549">
        <ele>1768.2</ele>
        <time>2024-08-12T05:03:53Z</time>
      </trkpt>
      <trkpt lat="44.81935" lon="6.39549">
        <ele>1768.2</ele>
        <time>2024-08-12T05:03:54Z</time>
      </trkpt>
      <trkpt lat="44.81933" lon="6.39548">
        <ele>1768.2</ele>
        <time>2024-08-12T05:03:55Z</time>
      </trkpt>
      <trkpt lat="44.81933" lon="6.39548">
        <ele>1768.2</ele>
        <time>2024-08-12T05:03:56Z</time>
      </trkpt>
      <trkpt lat="44.81933" lon="6.39548">
        <ele>1768.6</ele>
        <time>2024-08-12T05:03:57Z</time>
      </trkpt>
      <trkpt lat="44.8193" lon="6.39549">
        <ele>1769</ele>
        <time>2024-08-12T05:03:58Z</time>
      </trkpt>
      <trkpt lat="44.8193" lon="6.39549">
        <ele>1769</ele>
        <time>2024-08-12T05:03:59Z</time>
      </trkpt>
      <trkpt lat="44.81928" lon="6.39548">
        <ele>1769.2</ele>
        <time>2024-08-12T05:04:00Z</time>
      </trkpt>
      <trkpt lat="44.81928" lon="6.39548">
        <ele>1769.4</ele>
        <time>2024-08-12T05:04:01Z</time>
      </trkpt>
      <trkpt lat="44.81926" lon="6.39547">
        <ele>1769.6</ele>
        <time>2024-08-12T05:04:02Z</time>
      </trkpt>
      <trkpt lat="44.81926" lon="6.39547">
        <ele>1769.6</ele>
        <time>2024-08-12T05:04:03Z</time>
      </trkpt>
      <trkpt lat="44.81925" lon="6.39547">
        <ele>1769.6</ele>
        <time>2024-08-12T05:04:04Z</time>
      </trkpt>
      <trkpt lat="44.81925" lon="6.39547">
        <ele>1769.6</ele>
        <time>2024-08-12T05:04:05Z</time>
      </trkpt>
      <trkpt lat="44.81922" lon="6.39546">
        <ele>1770</ele>
        <time>2024-08-12T05:04:06Z</time>
      </trkpt>
      <trkpt lat="44.81922" lon="6.39546">
        <ele>1770</ele>
        <time>2024-08-12T05:04:07Z</time>
      </trkpt>
      <trkpt lat="44.8192" lon="6.39545">
        <ele>1770</ele>
        <time>2024-08-12T05:04:08Z</time>
      </trkpt>
      <trkpt lat="44.8192" lon="6.39545">
        <ele>1770.2</ele>
        <time>2024-08-12T05:04:09Z</time>
      </trkpt>
      <trkpt lat="44.81918" lon="6.39544">
        <ele>1770.6</ele>
        <time>2024-08-12T05:04:10Z</time>
      </trkpt>
      <trkpt lat="44.81918" lon="6.39544">
        <ele>1770.8</ele>
        <time>2024-08-12T05:04:11Z</time>
      </trkpt>
      <trkpt lat="44.81917" lon="6.39542">
        <ele>1771</ele>
        <time>2024-08-12T05:04:12Z</time>
      </trkpt>
      <trkpt lat="44.81917" lon="6.39542">
        <ele>1771</ele>
        <time>2024-08-12T05:04:13Z</time>
      </trkpt>
      <trkpt lat="44.81917" lon="6.39542">
        <ele>1771.4</ele>
        <time>2024-08-12T05:04:14Z</time>
      </trkpt>
      <trkpt lat="44.81915" lon="6.3954">
        <ele>1771.8</ele>
        <time>2024-08-12T05:04:15Z</time>
      </trkpt>
      <trkpt lat="44.81915" lon="6.3954">
        <ele>1771.8</ele>
        <time>2024-08-12T05:04:16Z</time>
      </trkpt>
      <trkpt lat="44.81913" lon="6.39538">
        <ele>1771.8</ele>
        <time>2024-08-12T05:04:17Z</time>
      </trkpt>
      <trkpt lat="44.81913" lon="6.39538">
        <ele>1772</ele>
        <time>2024-08-12T05:04:18Z</time>
      </trkpt>
      <trkpt lat="44.81912" lon="6.39536">
        <ele>1772</ele>
        <time>2024-08-12T05:04:19Z</time>
      </trkpt>
      <trkpt lat="44.81912" lon="6.39536">
        <ele>1772</ele>
        <time>2024-08-12T05:04:20Z</time>
      </trkpt>
      <trkpt lat="44.8191" lon="6.39534">
        <ele>1772</ele>
        <time>2024-08-12T05:04:21Z</time>
      </trkpt>
      <trkpt lat="44.8191" lon="6.39534">
        <ele>1771.8</ele>
        <time>2024-08-12T05:04:22Z</time>
      </trkpt>
      <trkpt lat="44.81908" lon="6.39532">
        <ele>1771.8</ele>
        <time>2024-08-12T05:04:23Z</time>
      </trkpt>
      <trkpt lat="44.81908" lon="6.39532">
        <ele>1771.8</ele>
        <time>2024-08-12T05:04:24Z</time>
      </trkpt>
      <trkpt lat="44.81906" lon="6.3953">
        <ele>1771.8</ele>
        <time>2024-08-12T05:04:25Z</time>
      </trkpt>
      <trkpt lat="44.81906" lon="6.3953">
        <ele>1771.8</ele>
        <time>2024-08-12T05:04:26Z</time>
      </trkpt>
      <trkpt lat="44.81904" lon="6.39529">
        <ele>1771.6</ele>
        <time>2024-08-12T05:04:27Z</time>
      </trkpt>
      <trkpt lat="44.81904" lon="6.39529">
        <ele>1771.6</ele>
        <time>2024-08-12T05:04:28Z</time>
      </trkpt>
      <trkpt lat="44.81902" lon="6.39528">
        <ele>1771.4</ele>
        <time>2024-08-12T05:04:29Z</time>
      </trkpt>
      <trkpt lat="44.81902" lon="6.39528">
        <ele>1771.4</ele>
        <time>2024-08-12T05:04:30Z</time>
      </trkpt>
      <trkpt lat="44.819" lon="6.39526">
        <ele>1771.4</ele>
        <time>2024-08-12T05:04:31Z</time>
      </trkpt>
      <trkpt lat="44.819" lon="6.39526">
        <ele>1771.4</ele>
        <time>2024-08-12T05:04:32Z</time>
      </trkpt>
      <trkpt lat="44.81898" lon="6.39525">
        <ele>1771.6</ele>
        <time>2024-08-12T05:04:33Z</time>
      </trkpt>
      <trkpt lat="44.81898" lon="6.39525">
        <ele>1771.6</ele>
        <time>2024-08-12T05:04:34Z</time>
      </trkpt>
      <trkpt lat="44.81896" lon="6.39524">
        <ele>1771.6</ele>
        <time>2024-08-12T05:04:35Z</time>
      </trkpt>
      <trkpt lat="44.81896" lon="6.39524">
        <ele>1771.6</ele>
        <time>2024-08-12T05:04:36Z</time>
      </trkpt>
      <trkpt lat="44.81896" lon="6.39524">
        <ele>1771.8</ele>
        <time>2024-08-12T05:04:37Z</time>
      </trkpt>
      <trkpt lat="44.81893" lon="6.39523">
        <ele>1772</ele>
        <time>2024-08-12T05:04:38Z</time>
      </trkpt>
      <trkpt lat="44.81893" lon="6.39523">
        <ele>1772</ele>
        <time>2024-08-12T05:04:39Z</time>
      </trkpt>
      <trkpt lat="44.81891" lon="6.39522">
        <ele>1772</ele>
        <time>2024-08-12T05:04:40Z</time>
      </trkpt>
      <trkpt lat="44.81891" lon="6.39522">
        <ele>1772.4</ele>
        <time>2024-08-12T05:04:41Z</time>
      </trkpt>
      <trkpt lat="44.81889" lon="6.3952">
        <ele>1772.6</ele>
        <time>2024-08-12T05:04:42Z</time>
      </trkpt>
      <trkpt lat="44.81889" lon="6.3952">
        <ele>1772.6</ele>
        <time>2024-08-12T05:04:43Z</time>
      </trkpt>
      <trkpt lat="44.81887" lon="6.39519">
        <ele>1772.8</ele>
        <time>2024-08-12T05:04:44Z</time>
      </trkpt>
      <trkpt lat="44.81887" lon="6.39519">
        <ele>1772.8</ele>
        <time>2024-08-12T05:04:45Z</time>
      </trkpt>
      <trkpt lat="44.81885" lon="6.39517">
        <ele>1772.8</ele>
        <time>2024-08-12T05:04:46Z</time>
      </trkpt>
      <trkpt lat="44.81885" lon="6.39517">
        <ele>1772.8</ele>
        <time>2024-08-12T05:04:47Z</time>
      </trkpt>
      <trkpt lat="44.81883" lon="6.39515">
        <ele>1772.8</ele>
        <time>2024-08-12T05:04:48Z</time>
      </trkpt>
      <trkpt lat="44.81883" lon="6.39515">
        <ele>1772.8</ele>
        <time>2024-08-12T05:04:49Z</time>
      </trkpt>
      <trkpt lat="44.8188" lon="6.39513">
        <ele>1772.8</ele>
        <time>2024-08-12T05:04:50Z</time>
      </trkpt>
      <trkpt lat="44.8188" lon="6.39513">
        <ele>1772.8</ele>
        <time>2024-08-12T05:04:51Z</time>
      </trkpt>
      <trkpt lat="44.81878" lon="6.39512">
        <ele>1772.8</ele>
        <time>2024-08-12T05:04:52Z</time>
      </trkpt>
      <trkpt lat="44.81878" lon="6.39512">
        <ele>1772.8</ele>
        <time>2024-08-12T05:04:53Z</time>
      </trkpt>
      <trkpt lat="44.81876" lon="6.39511">
        <ele>1772.8</ele>
        <time>2024-08-12T05:04:54Z</time>
      </trkpt>
      <trkpt lat="44.81876" lon="6.39511">
        <ele>1772.8</ele>
        <time>2024-08-12T05:04:55Z</time>
      </trkpt>
      <trkpt lat="44.81876" lon="6.39511">
        <ele>1773.2</ele>
        <time>2024-08-12T05:04:56Z</time>
      </trkpt>
      <trkpt lat="44.81873" lon="6.39509">
        <ele>1773.2</ele>
        <time>2024-08-12T05:04:57Z</time>
      </trkpt>
      <trkpt lat="44.81873" lon="6.39509">
        <ele>1773.2</ele>
        <time>2024-08-12T05:04:58Z</time>
      </trkpt>
      <trkpt lat="44.81871" lon="6.39508">
        <ele>1773.2</ele>
        <time>2024-08-12T05:04:59Z</time>
      </trkpt>
      <trkpt lat="44.81871" lon="6.39508">
        <ele>1773.4</ele>
        <time>2024-08-12T05:05:00Z</time>
      </trkpt>
      <trkpt lat="44.81869" lon="6.39507">
        <ele>1773.6</ele>
        <time>2024-08-12T05:05:01Z</time>
      </trkpt>
      <trkpt lat="44.81869" lon="6.39507">
        <ele>1773.8</ele>
        <time>2024-08-12T05:05:02Z</time>
      </trkpt>
      <trkpt lat="44.81867" lon="6.39505">
        <ele>1773.8</ele>
        <time>2024-08-12T05:05:03Z</time>
      </trkpt>
      <trkpt lat="44.81867" lon="6.39505">
        <ele>1774</ele>
        <time>2024-08-12T05:05:04Z</time>
      </trkpt>
      <trkpt lat="44.81867" lon="6.39505">
        <ele>1774</ele>
        <time>2024-08-12T05:05:05Z</time>
      </trkpt>
      <trkpt lat="44.81867" lon="6.39505">
        <ele>1774</ele>
        <time>2024-08-12T05:05:06Z</time>
      </trkpt>
      <trkpt lat="44.81867" lon="6.39505">
        <ele>1774</ele>
        <time>2024-08-12T05:05:07Z</time>
      </trkpt>
      <trkpt lat="44.81867" lon="6.39505">
        <ele>1774.2</ele>
        <time>2024-08-12T05:05:08Z</time>
      </trkpt>
      <trkpt lat="44.81867" lon="6.39505">
        <ele>1774.4</ele>
        <time>2024-08-12T05:05:09Z</time>
      </trkpt>
      <trkpt lat="44.81867" lon="6.39505">
        <ele>1774.4</ele>
        <time>2024-08-12T05:05:10Z</time>
      </trkpt>
      <trkpt lat="44.81867" lon="6.39505">
        <ele>1774.4</ele>
        <time>2024-08-12T05:05:11Z</time>
      </trkpt>
      <trkpt lat="44.81867" lon="6.39505">
        <ele>1774.4</ele>
        <time>2024-08-12T05:05:12Z</time>
      </trkpt>
      <trkpt lat="44.81867" lon="6.39505">
        <ele>1774.4</ele>
        <time>2024-08-12T05:05:13Z</time>
      </trkpt>
      <trkpt lat="44.81867" lon="6.39505">
        <ele>1774.4</ele>
        <time>2024-08-12T05:05:14Z</time>
      </trkpt>
      <trkpt lat="44.81867" lon="6.39505">
        <ele>1774.4</ele>
        <time>2024-08-12T05:05:15Z</time>
      </trkpt>
      <trkpt lat="44.81867" lon="6.39505">
        <ele>1774.2</ele>
        <time>2024-08-12T05:05:16Z</time>
      </trkpt>
      <trkpt lat="44.81867" lon="6.39505">
        <ele>1774.2</ele>
        <time>2024-08-12T05:05:17Z</time>
      </trkpt>
      <trkpt lat="44.81867" lon="6.39505">
        <ele>1774.4</ele>
        <time>2024-08-12T05:05:18Z</time>
      </trkpt>
      <trkpt lat="44.81867" lon="6.39505">
        <ele>1774.4</ele>
        <time>2024-08-12T05:05:19Z</time>
      </trkpt>
      <trkpt lat="44.81867" lon="6.39505">
        <ele>1774.6</ele>
        <time>2024-08-12T05:05:20Z</time>
      </trkpt>
      <trkpt lat="44.81867" lon="6.39505">
        <ele>1774.6</ele>
        <time>2024-08-12T05:05:21Z</time>
      </trkpt>
      <trkpt lat="44.81867" lon="6.39505">
        <ele>1774.4</ele>
        <time>2024-08-12T05:05:22Z</time>
      </trkpt>
      <trkpt lat="44.81867" lon="6.39505">
        <ele>1774.4</ele>
        <time>2024-08-12T05:05:23Z</time>
      </trkpt>
      <trkpt lat="44.81867" lon="6.39505">
        <ele>1774.4</ele>
        <time>2024-08-12T05:05:24Z</time>
      </trkpt>
      <trkpt lat="44.81867" lon="6.39505">
        <ele>1774.4</ele>
        <time>2024-08-12T05:05:25Z</time>
      </trkpt>
      <trkpt lat="44.81867" lon="6.39505">
        <ele>1774.4</ele>
        <time>2024-08-12T05:05:26Z</time>
      </trkpt>
      <trkpt lat="44.81867" lon="6.39505">
        <ele>1774.4</ele>
        <time>2024-08-12T05:05:27Z</time>
      </trkpt>
      <trkpt lat="44.81867" lon="6.39505">
        <ele>1774.4</ele>
        <time>2024-08-12T05:05:28Z</time>
      </trkpt>
      <trkpt lat="44.81867" lon="6.39505">
        <ele>1774.2</ele>
        <time>2024-08-12T05:05:29Z</time>
      </trkpt>
      <trkpt lat="44.81867" lon="6.39505">
        <ele>1774.2</ele>
        <time>2024-08-12T05:05:30Z</time>
      </trkpt>
      <trkpt lat="44.81867" lon="6.39505">
        <ele>1774.2</ele>
        <time>2024-08-12T05:05:31Z</time>
      </trkpt>
      <trkpt lat="44.81867" lon="6.39505">
        <ele>1774.4</ele>
        <time>2024-08-12T05:05:32Z</time>
      </trkpt>
      <trkpt lat="44.81867" lon="6.39505">
        <ele>1774.4</ele>
        <time>2024-08-12T05:05:33Z</time>
      </trkpt>
      <trkpt lat="44.81867" lon="6.39505">
        <ele>1774.4</ele>
        <time>2024-08-12T05:05:34Z</time>
      </trkpt>
      <trkpt lat="44.81867" lon="6.39505">
        <ele>1774.4</ele>
        <time>2024-08-12T05:05:35Z</time>
      </trkpt>
      <trkpt lat="44.81867" lon="6.39505">
        <ele>1774.4</ele>
        <time>2024-08-12T05:05:36Z</time>
      </trkpt>
      <trkpt lat="44.81867" lon="6.39505">
        <ele>1774.6</ele>
        <time>2024-08-12T05:05:37Z</time>
      </trkpt>
      <trkpt lat="44.81867" lon="6.39505">
        <ele>1774.6</ele>
        <time>2024-08-12T05:05:38Z</time>
      </trkpt>
      <trkpt lat="44.81867" lon="6.39505">
        <ele>1774.6</ele>
        <time>2024-08-12T05:05:39Z</time>
      </trkpt>
      <trkpt lat="44.81867" lon="6.39505">
        <ele>1774.6</ele>
        <time>2024-08-12T05:05:40Z</time>
      </trkpt>
      <trkpt lat="44.81867" lon="6.39505">
        <ele>1774.6</ele>
        <time>2024-08-12T05:05:41Z</time>
      </trkpt>
      <trkpt lat="44.81867" lon="6.39505">
        <ele>1774.6</ele>
        <time>2024-08-12T05:05:42Z</time>
      </trkpt>
      <trkpt lat="44.81867" lon="6.39505">
        <ele>1774.6</ele>
        <time>2024-08-12T05:05:43Z</time>
      </trkpt>
      <trkpt lat="44.81867" lon="6.39505">
        <ele>1774.6</ele>
        <time>2024-08-12T05:05:44Z</time>
      </trkpt>
      <trkpt lat="44.81867" lon="6.39505">
        <ele>1774.6</ele>
        <time>2024-08-12T05:05:45Z</time>
      </trkpt>
      <trkpt lat="44.81867" lon="6.39505">
        <ele>1774.4</ele>
        <time>2024-08-12T05:05:46Z</time>
      </trkpt>
      <trkpt lat="44.81867" lon="6.39505">
        <ele>1774.4</ele>
        <time>2024-08-12T05:05:47Z</time>
      </trkpt>
      <trkpt lat="44.81867" lon="6.39505">
        <ele>1774.4</ele>
        <time>2024-08-12T05:05:48Z</time>
      </trkpt>
      <trkpt lat="44.81867" lon="6.39505">
        <ele>1774.4</ele>
        <time>2024-08-12T05:05:49Z</time>
      </trkpt>
      <trkpt lat="44.81867" lon="6.39505">
        <ele>1774.4</ele>
        <time>2024-08-12T05:05:50Z</time>
      </trkpt>
      <trkpt lat="44.81867" lon="6.39505">
        <ele>1774.4</ele>
        <time>2024-08-12T05:05:51Z</time>
      </trkpt>
      <trkpt lat="44.81867" lon="6.39505">
        <ele>1774.4</ele>
        <time>2024-08-12T05:05:52Z</time>
      </trkpt>
      <trkpt lat="44.81867" lon="6.39505">
        <ele>1774.4</ele>
        <time>2024-08-12T05:05:53Z</time>
      </trkpt>
      <trkpt lat="44.81867" lon="6.39505">
        <ele>1774.4</ele>
        <time>2024-08-12T05:05:54Z</time>
      </trkpt>
      <trkpt lat="44.81867" lon="6.39505">
        <ele>1774.2</ele>
        <time>2024-08-12T05:05:55Z</time>
      </trkpt>
      <trkpt lat="44.81867" lon="6.39505">
        <ele>1774.2</ele>
        <time>2024-08-12T05:05:56Z</time>
      </trkpt>
      <trkpt lat="44.81867" lon="6.39505">
        <ele>1774.2</ele>
        <time>2024-08-12T05:05:57Z</time>
      </trkpt>
      <trkpt lat="44.81867" lon="6.39505">
        <ele>1774.2</ele>
        <time>2024-08-12T05:05:58Z</time>
      </trkpt>
      <trkpt lat="44.81867" lon="6.39505">
        <ele>1774.4</ele>
        <time>2024-08-12T05:05:59Z</time>
      </trkpt>
      <trkpt lat="44.81867" lon="6.39505">
        <ele>1774.4</ele>
        <time>2024-08-12T05:06:00Z</time>
      </trkpt>
      <trkpt lat="44.81867" lon="6.39505">
        <ele>1774.2</ele>
        <time>2024-08-12T05:06:01Z</time>
      </trkpt>
      <trkpt lat="44.81867" lon="6.39505">
        <ele>1774.2</ele>
        <time>2024-08-12T05:06:02Z</time>
      </trkpt>
      <trkpt lat="44.81867" lon="6.39505">
        <ele>1774.2</ele>
        <time>2024-08-12T05:06:03Z</time>
      </trkpt>
      <trkpt lat="44.81867" lon="6.39505">
        <ele>1774.4</ele>
        <time>2024-08-12T05:06:04Z</time>
      </trkpt>
      <trkpt lat="44.81867" lon="6.39505">
        <ele>1774.4</ele>
        <time>2024-08-12T05:06:05Z</time>
      </trkpt>
      <trkpt lat="44.81867" lon="6.39505">
        <ele>1774.4</ele>
        <time>2024-08-12T05:06:06Z</time>
      </trkpt>
      <trkpt lat="44.81867" lon="6.39505">
        <ele>1774.2</ele>
        <time>2024-08-12T05:06:07Z</time>
      </trkpt>
      <trkpt lat="44.81867" lon="6.39505">
        <ele>1774.2</ele>
        <time>2024-08-12T05:06:08Z</time>
      </trkpt>
      <trkpt lat="44.81867" lon="6.39505">
        <ele>1774.2</ele>
        <time>2024-08-12T05:06:09Z</time>
      </trkpt>
      <trkpt lat="44.81867" lon="6.39505">
        <ele>1774</ele>
        <time>2024-08-12T05:06:10Z</time>
      </trkpt>
      <trkpt lat="44.81867" lon="6.39505">
        <ele>1774.2</ele>
        <time>2024-08-12T05:06:11Z</time>
      </trkpt>
      <trkpt lat="44.81867" lon="6.39505">
        <ele>1774.2</ele>
        <time>2024-08-12T05:06:12Z</time>
      </trkpt>
      <trkpt lat="44.81867" lon="6.39505">
        <ele>1774.2</ele>
        <time>2024-08-12T05:06:13Z</time>
      </trkpt>
      <trkpt lat="44.81867" lon="6.39505">
        <ele>1774.2</ele>
        <time>2024-08-12T05:06:14Z</time>
      </trkpt>
      <trkpt lat="44.81867" lon="6.39505">
        <ele>1774.4</ele>
        <time>2024-08-12T05:06:15Z</time>
      </trkpt>
      <trkpt lat="44.81867" lon="6.39505">
        <ele>1774.2</ele>
        <time>2024-08-12T05:06:16Z</time>
      </trkpt>
      <trkpt lat="44.81867" lon="6.39505">
        <ele>1774.2</ele>
        <time>2024-08-12T05:06:17Z</time>
      </trkpt>
      <trkpt lat="44.81867" lon="6.39505">
        <ele>1774.2</ele>
        <time>2024-08-12T05:06:18Z</time>
      </trkpt>
      <trkpt lat="44.81867" lon="6.39505">
        <ele>1774.2</ele>
        <time>2024-08-12T05:06:19Z</time>
      </trkpt>
      <trkpt lat="44.81867" lon="6.39505">
        <ele>1774.2</ele>
        <time>2024-08-12T05:06:20Z</time>
      </trkpt>
      <trkpt lat="44.81867" lon="6.39505">
        <ele>1774.2</ele>
        <time>2024-08-12T05:06:21Z</time>
      </trkpt>
      <trkpt lat="44.81867" lon="6.39505">
        <ele>1774</ele>
        <time>2024-08-12T05:06:22Z</time>
      </trkpt>
      <trkpt lat="44.81867" lon="6.39505">
        <ele>1774</ele>
        <time>2024-08-12T05:06:23Z</time>
      </trkpt>
      <trkpt lat="44.81867" lon="6.39505">
        <ele>1774.2</ele>
        <time>2024-08-12T05:06:24Z</time>
      </trkpt>
      <trkpt lat="44.81867" lon="6.39505">
        <ele>1774.2</ele>
        <time>2024-08-12T05:06:25Z</time>
      </trkpt>
      <trkpt lat="44.81867" lon="6.39505">
        <ele>1774.2</ele>
        <time>2024-08-12T05:06:26Z</time>
      </trkpt>
      <trkpt lat="44.81867" lon="6.39505">
        <ele>1774.2</ele>
        <time>2024-08-12T05:06:27Z</time>
      </trkpt>
      <trkpt lat="44.81867" lon="6.39505">
        <ele>1774.4</ele>
        <time>2024-08-12T05:06:28Z</time>
      </trkpt>
      <trkpt lat="44.81867" lon="6.39505">
        <ele>1774.4</ele>
        <time>2024-08-12T05:06:29Z</time>
      </trkpt>
      <trkpt lat="44.81867" lon="6.39505">
        <ele>1774.4</ele>
        <time>2024-08-12T05:06:30Z</time>
      </trkpt>
      <trkpt lat="44.81867" lon="6.39505">
        <ele>1774.4</ele>
        <time>2024-08-12T05:06:31Z</time>
      </trkpt>
      <trkpt lat="44.81867" lon="6.39505">
        <ele>1774.4</ele>
        <time>2024-08-12T05:06:32Z</time>
      </trkpt>
      <trkpt lat="44.81867" lon="6.39505">
        <ele>1774.4</ele>
        <time>2024-08-12T05:06:33Z</time>
      </trkpt>
      <trkpt lat="44.81867" lon="6.39505">
        <ele>1774.6</ele>
        <time>2024-08-12T05:06:34Z</time>
      </trkpt>
      <trkpt lat="44.81867" lon="6.39505">
        <ele>1774.6</ele>
        <time>2024-08-12T05:06:35Z</time>
      </trkpt>
      <trkpt lat="44.81867" lon="6.39505">
        <ele>1774.4</ele>
        <time>2024-08-12T05:06:36Z</time>
      </trkpt>
      <trkpt lat="44.81867" lon="6.39505">
        <ele>1774.2</ele>
        <time>2024-08-12T05:06:37Z</time>
      </trkpt>
      <trkpt lat="44.81867" lon="6.39505">
        <ele>1774.2</ele>
        <time>2024-08-12T05:06:38Z</time>
      </trkpt>
      <trkpt lat="44.81867" lon="6.39505">
        <ele>1774.2</ele>
        <time>2024-08-12T05:06:39Z</time>
      </trkpt>
      <trkpt lat="44.81866" lon="6.39502">
        <ele>1774.2</ele>
        <time>2024-08-12T05:06:40Z</time>
      </trkpt>
      <trkpt lat="44.81866" lon="6.39502">
        <ele>1774</ele>
        <time>2024-08-12T05:06:41Z</time>
      </trkpt>
      <trkpt lat="44.81863" lon="6.39499">
        <ele>1773.6</ele>
        <time>2024-08-12T05:06:42Z</time>
      </trkpt>
      <trkpt lat="44.81863" lon="6.39499">
        <ele>1773.6</ele>
        <time>2024-08-12T05:06:43Z</time>
      </trkpt>
      <trkpt lat="44.81861" lon="6.39496">
        <ele>1773.6</ele>
        <time>2024-08-12T05:06:44Z</time>
      </trkpt>
      <trkpt lat="44.81861" lon="6.39496">
        <ele>1773.6</ele>
        <time>2024-08-12T05:06:45Z</time>
      </trkpt>
      <trkpt lat="44.81861" lon="6.39496">
        <ele>1773.6</ele>
        <time>2024-08-12T05:06:46Z</time>
      </trkpt>
      <trkpt lat="44.81859" lon="6.39495">
        <ele>1773.6</ele>
        <time>2024-08-12T05:06:47Z</time>
      </trkpt>
      <trkpt lat="44.81859" lon="6.39495">
        <ele>1773.6</ele>
        <time>2024-08-12T05:06:48Z</time>
      </trkpt>
      <trkpt lat="44.81857" lon="6.39493">
        <ele>1773.6</ele>
        <time>2024-08-12T05:06:49Z</time>
      </trkpt>
      <trkpt lat="44.81857" lon="6.39493">
        <ele>1773.6</ele>
        <time>2024-08-12T05:06:50Z</time>
      </trkpt>
      <trkpt lat="44.81855" lon="6.39492">
        <ele>1773.6</ele>
        <time>2024-08-12T05:06:51Z</time>
      </trkpt>
      <trkpt lat="44.81855" lon="6.39492">
        <ele>1773.6</ele>
        <time>2024-08-12T05:06:52Z</time>
      </trkpt>
      <trkpt lat="44.81853" lon="6.3949">
        <ele>1773.6</ele>
        <time>2024-08-12T05:06:53Z</time>
      </trkpt>
      <trkpt lat="44.81853" lon="6.3949">
        <ele>1773.8</ele>
        <time>2024-08-12T05:06:54Z</time>
      </trkpt>
      <trkpt lat="44.8185" lon="6.39488">
        <ele>1773.8</ele>
        <time>2024-08-12T05:06:55Z</time>
      </trkpt>
      <trkpt lat="44.8185" lon="6.39488">
        <ele>1774</ele>
        <time>2024-08-12T05:06:56Z</time>
      </trkpt>
      <trkpt lat="44.81848" lon="6.39486">
        <ele>1774</ele>
        <time>2024-08-12T05:06:57Z</time>
      </trkpt>
      <trkpt lat="44.81848" lon="6.39486">
        <ele>1773.8</ele>
        <time>2024-08-12T05:06:58Z</time>
      </trkpt>
      <trkpt lat="44.81846" lon="6.39484">
        <ele>1773.8</ele>
        <time>2024-08-12T05:06:59Z</time>
      </trkpt>
      <trkpt lat="44.81846" lon="6.39484">
        <ele>1774</ele>
        <time>2024-08-12T05:07:00Z</time>
      </trkpt>
      <trkpt lat="44.81846" lon="6.39484">
        <ele>1774</ele>
        <time>2024-08-12T05:07:01Z</time>
      </trkpt>
      <trkpt lat="44.81843" lon="6.39482">
        <ele>1774</ele>
        <time>2024-08-12T05:07:02Z</time>
      </trkpt>
      <trkpt lat="44.81843" lon="6.39482">
        <ele>1774</ele>
        <time>2024-08-12T05:07:03Z</time>
      </trkpt>
      <trkpt lat="44.81843" lon="6.39482">
        <ele>1774.2</ele>
        <time>2024-08-12T05:07:04Z</time>
      </trkpt>
      <trkpt lat="44.81843" lon="6.39482">
        <ele>1774.2</ele>
        <time>2024-08-12T05:07:05Z</time>
      </trkpt>
      <trkpt lat="44.81843" lon="6.39482">
        <ele>1774.6</ele>
        <time>2024-08-12T05:07:06Z</time>
      </trkpt>
      <trkpt lat="44.81843" lon="6.39482">
        <ele>1775</ele>
        <time>2024-08-12T05:07:07Z</time>
      </trkpt>
      <trkpt lat="44.81843" lon="6.39482">
        <ele>1775</ele>
        <time>2024-08-12T05:07:08Z</time>
      </trkpt>
      <trkpt lat="44.81843" lon="6.39482">
        <ele>1775</ele>
        <time>2024-08-12T05:07:09Z</time>
      </trkpt>
      <trkpt lat="44.81843" lon="6.39482">
        <ele>1775</ele>
        <time>2024-08-12T05:07:10Z</time>
      </trkpt>
      <trkpt lat="44.81843" lon="6.39482">
        <ele>1774.8</ele>
        <time>2024-08-12T05:07:11Z</time>
      </trkpt>
      <trkpt lat="44.81843" lon="6.39482">
        <ele>1774.8</ele>
        <time>2024-08-12T05:07:12Z</time>
      </trkpt>
      <trkpt lat="44.81843" lon="6.39482">
        <ele>1774.8</ele>
        <time>2024-08-12T05:07:13Z</time>
      </trkpt>
      <trkpt lat="44.81843" lon="6.39482">
        <ele>1774.8</ele>
        <time>2024-08-12T05:07:14Z</time>
      </trkpt>
      <trkpt lat="44.81843" lon="6.39482">
        <ele>1775</ele>
        <time>2024-08-12T05:07:15Z</time>
      </trkpt>
      <trkpt lat="44.81843" lon="6.39482">
        <ele>1775</ele>
        <time>2024-08-12T05:07:16Z</time>
      </trkpt>
      <trkpt lat="44.81843" lon="6.39482">
        <ele>1775</ele>
        <time>2024-08-12T05:07:17Z</time>
      </trkpt>
      <trkpt lat="44.81843" lon="6.39482">
        <ele>1775</ele>
        <time>2024-08-12T05:07:18Z</time>
      </trkpt>
      <trkpt lat="44.81843" lon="6.39482">
        <ele>1775</ele>
        <time>2024-08-12T05:07:19Z</time>
      </trkpt>
      <trkpt lat="44.81843" lon="6.39482">
        <ele>1775</ele>
        <time>2024-08-12T05:07:20Z</time>
      </trkpt>
      <trkpt lat="44.81843" lon="6.39482">
        <ele>1775</ele>
        <time>2024-08-12T05:07:21Z</time>
      </trkpt>
      <trkpt lat="44.81843" lon="6.39482">
        <ele>1775</ele>
        <time>2024-08-12T05:07:22Z</time>
      </trkpt>
      <trkpt lat="44.81843" lon="6.39482">
        <ele>1775</ele>
        <time>2024-08-12T05:07:23Z</time>
      </trkpt>
      <trkpt lat="44.81843" lon="6.39482">
        <ele>1775</ele>
        <time>2024-08-12T05:07:24Z</time>
      </trkpt>
      <trkpt lat="44.81843" lon="6.39482">
        <ele>1775.2</ele>
        <time>2024-08-12T05:07:25Z</time>
      </trkpt>
      <trkpt lat="44.81843" lon="6.39482">
        <ele>1775.2</ele>
        <time>2024-08-12T05:07:26Z</time>
      </trkpt>
      <trkpt lat="44.81843" lon="6.39482">
        <ele>1775.2</ele>
        <time>2024-08-12T05:07:27Z</time>
      </trkpt>
      <trkpt lat="44.81843" lon="6.39482">
        <ele>1775.2</ele>
        <time>2024-08-12T05:07:28Z</time>
      </trkpt>
      <trkpt lat="44.81843" lon="6.39482">
        <ele>1775</ele>
        <time>2024-08-12T05:07:29Z</time>
      </trkpt>
      <trkpt lat="44.81843" lon="6.39482">
        <ele>1775</ele>
        <time>2024-08-12T05:07:30Z</time>
      </trkpt>
      <trkpt lat="44.81841" lon="6.39482">
        <ele>1774.8</ele>
        <time>2024-08-12T05:07:31Z</time>
      </trkpt>
      <trkpt lat="44.81841" lon="6.39482">
        <ele>1774.8</ele>
        <time>2024-08-12T05:07:32Z</time>
      </trkpt>
      <trkpt lat="44.81839" lon="6.3948">
        <ele>1774.8</ele>
        <time>2024-08-12T05:07:33Z</time>
      </trkpt>
      <trkpt lat="44.81839" lon="6.3948">
        <ele>1774.6</ele>
        <time>2024-08-12T05:07:34Z</time>
      </trkpt>
      <trkpt lat="44.81837" lon="6.39477">
        <ele>1774.6</ele>
        <time>2024-08-12T05:07:35Z</time>
      </trkpt>
      <trkpt lat="44.81837" lon="6.39477">
        <ele>1774.8</ele>
        <time>2024-08-12T05:07:36Z</time>
      </trkpt>
      <trkpt lat="44.81835" lon="6.39474">
        <ele>1775</ele>
        <time>2024-08-12T05:07:37Z</time>
      </trkpt>
      <trkpt lat="44.81835" lon="6.39474">
        <ele>1775.2</ele>
        <time>2024-08-12T05:07:38Z</time>
      </trkpt>
      <trkpt lat="44.81833" lon="6.39472">
        <ele>1775.2</ele>
        <time>2024-08-12T05:07:39Z</time>
      </trkpt>
      <trkpt lat="44.81833" lon="6.39472">
        <ele>1775.4</ele>
        <time>2024-08-12T05:07:40Z</time>
      </trkpt>
      <trkpt lat="44.81831" lon="6.39473">
        <ele>1775.6</ele>
        <time>2024-08-12T05:07:41Z</time>
      </trkpt>
      <trkpt lat="44.81831" lon="6.39473">
        <ele>1776.2</ele>
        <time>2024-08-12T05:07:42Z</time>
      </trkpt>
      <trkpt lat="44.81829" lon="6.39471">
        <ele>1776.4</ele>
        <time>2024-08-12T05:07:43Z</time>
      </trkpt>
      <trkpt lat="44.81829" lon="6.39471">
        <ele>1776.4</ele>
        <time>2024-08-12T05:07:44Z</time>
      </trkpt>
      <trkpt lat="44.81829" lon="6.39471">
        <ele>1776.4</ele>
        <time>2024-08-12T05:07:45Z</time>
      </trkpt>
      <trkpt lat="44.81827" lon="6.39469">
        <ele>1776.2</ele>
        <time>2024-08-12T05:07:46Z</time>
      </trkpt>
      <trkpt lat="44.81827" lon="6.39469">
        <ele>1776.2</ele>
        <time>2024-08-12T05:07:47Z</time>
      </trkpt>
      <trkpt lat="44.81827" lon="6.39469">
        <ele>1776.4</ele>
        <time>2024-08-12T05:07:48Z</time>
      </trkpt>
      <trkpt lat="44.81824" lon="6.39469">
        <ele>1776.6</ele>
        <time>2024-08-12T05:07:49Z</time>
      </trkpt>
      <trkpt lat="44.81824" lon="6.39469">
        <ele>1776.8</ele>
        <time>2024-08-12T05:07:50Z</time>
      </trkpt>
      <trkpt lat="44.81822" lon="6.39468">
        <ele>1777</ele>
        <time>2024-08-12T05:07:51Z</time>
      </trkpt>
      <trkpt lat="44.81822" lon="6.39468">
        <ele>1777</ele>
        <time>2024-08-12T05:07:52Z</time>
      </trkpt>
      <trkpt lat="44.81821" lon="6.39467">
        <ele>1776.8</ele>
        <time>2024-08-12T05:07:53Z</time>
      </trkpt>
      <trkpt lat="44.81821" lon="6.39467">
        <ele>1776.8</ele>
        <time>2024-08-12T05:07:54Z</time>
      </trkpt>
      <trkpt lat="44.81821" lon="6.39467">
        <ele>1776.8</ele>
        <time>2024-08-12T05:07:55Z</time>
      </trkpt>
      <trkpt lat="44.8182" lon="6.39464">
        <ele>1776.8</ele>
        <time>2024-08-12T05:07:56Z</time>
      </trkpt>
      <trkpt lat="44.8182" lon="6.39464">
        <ele>1777</ele>
        <time>2024-08-12T05:07:57Z</time>
      </trkpt>
      <trkpt lat="44.8182" lon="6.39464">
        <ele>1777.2</ele>
        <time>2024-08-12T05:07:58Z</time>
      </trkpt>
      <trkpt lat="44.81819" lon="6.39461">
        <ele>1777.4</ele>
        <time>2024-08-12T05:07:59Z</time>
      </trkpt>
      <trkpt lat="44.81819" lon="6.39461">
        <ele>1777.6</ele>
        <time>2024-08-12T05:08:00Z</time>
      </trkpt>
      <trkpt lat="44.81819" lon="6.39461">
        <ele>1778</ele>
        <time>2024-08-12T05:08:01Z</time>
      </trkpt>
      <trkpt lat="44.81818" lon="6.39459">
        <ele>1778.2</ele>
        <time>2024-08-12T05:08:02Z</time>
      </trkpt>
      <trkpt lat="44.81818" lon="6.39459">
        <ele>1778.2</ele>
        <time>2024-08-12T05:08:03Z</time>
      </trkpt>
      <trkpt lat="44.81818" lon="6.39459">
        <ele>1778.6</ele>
        <time>2024-08-12T05:08:04Z</time>
      </trkpt>
      <trkpt lat="44.81816" lon="6.39458">
        <ele>1778.8</ele>
        <time>2024-08-12T05:08:05Z</time>
      </trkpt>
      <trkpt lat="44.81816" lon="6.39458">
        <ele>1779</ele>
        <time>2024-08-12T05:08:06Z</time>
      </trkpt>
      <trkpt lat="44.81813" lon="6.39458">
        <ele>1779</ele>
        <time>2024-08-12T05:08:07Z</time>
      </trkpt>
      <trkpt lat="44.81813" lon="6.39458">
        <ele>1778.6</ele>
        <time>2024-08-12T05:08:08Z</time>
      </trkpt>
      <trkpt lat="44.81812" lon="6.39457">
        <ele>1778.2</ele>
        <time>2024-08-12T05:08:09Z</time>
      </trkpt>
      <trkpt lat="44.81812" lon="6.39457">
        <ele>1777.6</ele>
        <time>2024-08-12T05:08:10Z</time>
      </trkpt>
      <trkpt lat="44.81809" lon="6.39457">
        <ele>1777.6</ele>
        <time>2024-08-12T05:08:11Z</time>
      </trkpt>
      <trkpt lat="44.81809" lon="6.39457">
        <ele>1777.4</ele>
        <time>2024-08-12T05:08:12Z</time>
      </trkpt>
      <trkpt lat="44.81806" lon="6.39457">
        <ele>1777.4</ele>
        <time>2024-08-12T05:08:13Z</time>
      </trkpt>
      <trkpt lat="44.81806" lon="6.39457">
        <ele>1777.4</ele>
        <time>2024-08-12T05:08:14Z</time>
      </trkpt>
      <trkpt lat="44.81806" lon="6.39457">
        <ele>1777.4</ele>
        <time>2024-08-12T05:08:15Z</time>
      </trkpt>
      <trkpt lat="44.81804" lon="6.39455">
        <ele>1777.4</ele>
        <time>2024-08-12T05:08:16Z</time>
      </trkpt>
      <trkpt lat="44.81804" lon="6.39455">
        <ele>1777.4</ele>
        <time>2024-08-12T05:08:17Z</time>
      </trkpt>
      <trkpt lat="44.81802" lon="6.39453">
        <ele>1777.6</ele>
        <time>2024-08-12T05:08:18Z</time>
      </trkpt>
      <trkpt lat="44.81802" lon="6.39453">
        <ele>1777.6</ele>
        <time>2024-08-12T05:08:19Z</time>
      </trkpt>
      <trkpt lat="44.818" lon="6.39452">
        <ele>1777.6</ele>
        <time>2024-08-12T05:08:20Z</time>
      </trkpt>
      <trkpt lat="44.818" lon="6.39452">
        <ele>1777.6</ele>
        <time>2024-08-12T05:08:21Z</time>
      </trkpt>
      <trkpt lat="44.81798" lon="6.39451">
        <ele>1777.6</ele>
        <time>2024-08-12T05:08:22Z</time>
      </trkpt>
      <trkpt lat="44.81798" lon="6.39451">
        <ele>1777.8</ele>
        <time>2024-08-12T05:08:23Z</time>
      </trkpt>
      <trkpt lat="44.81796" lon="6.3945">
        <ele>1778</ele>
        <time>2024-08-12T05:08:24Z</time>
      </trkpt>
      <trkpt lat="44.81796" lon="6.3945">
        <ele>1778</ele>
        <time>2024-08-12T05:08:25Z</time>
      </trkpt>
      <trkpt lat="44.81794" lon="6.39449">
        <ele>1778</ele>
        <time>2024-08-12T05:08:26Z</time>
      </trkpt>
      <trkpt lat="44.81794" lon="6.39449">
        <ele>1778.2</ele>
        <time>2024-08-12T05:08:27Z</time>
      </trkpt>
      <trkpt lat="44.81792" lon="6.39448">
        <ele>1778.2</ele>
        <time>2024-08-12T05:08:28Z</time>
      </trkpt>
      <trkpt lat="44.81792" lon="6.39448">
        <ele>1778.6</ele>
        <time>2024-08-12T05:08:29Z</time>
      </trkpt>
      <trkpt lat="44.8179" lon="6.39446">
        <ele>1778.6</ele>
        <time>2024-08-12T05:08:30Z</time>
      </trkpt>
      <trkpt lat="44.8179" lon="6.39446">
        <ele>1779</ele>
        <time>2024-08-12T05:08:31Z</time>
      </trkpt>
      <trkpt lat="44.8179" lon="6.39446">
        <ele>1779</ele>
        <time>2024-08-12T05:08:32Z</time>
      </trkpt>
      <trkpt lat="44.81789" lon="6.39446">
        <ele>1779.2</ele>
        <time>2024-08-12T05:08:33Z</time>
      </trkpt>
      <trkpt lat="44.81789" lon="6.39446">
        <ele>1779.4</ele>
        <time>2024-08-12T05:08:34Z</time>
      </trkpt>
      <trkpt lat="44.81786" lon="6.39445">
        <ele>1779.4</ele>
        <time>2024-08-12T05:08:35Z</time>
      </trkpt>
      <trkpt lat="44.81786" lon="6.39445">
        <ele>1779.6</ele>
        <time>2024-08-12T05:08:36Z</time>
      </trkpt>
      <trkpt lat="44.81786" lon="6.39445">
        <ele>1779.6</ele>
        <time>2024-08-12T05:08:37Z</time>
      </trkpt>
      <trkpt lat="44.81786" lon="6.39445">
        <ele>1780</ele>
        <time>2024-08-12T05:08:38Z</time>
      </trkpt>
      <trkpt lat="44.81786" lon="6.39445">
        <ele>1780.4</ele>
        <time>2024-08-12T05:08:39Z</time>
      </trkpt>
      <trkpt lat="44.81786" lon="6.39445">
        <ele>1780.4</ele>
        <time>2024-08-12T05:08:40Z</time>
      </trkpt>
      <trkpt lat="44.81786" lon="6.39445">
        <ele>1780.6</ele>
        <time>2024-08-12T05:08:41Z</time>
      </trkpt>
      <trkpt lat="44.81786" lon="6.39445">
        <ele>1780.6</ele>
        <time>2024-08-12T05:08:42Z</time>
      </trkpt>
      <trkpt lat="44.81786" lon="6.39445">
        <ele>1780.4</ele>
        <time>2024-08-12T05:08:43Z</time>
      </trkpt>
      <trkpt lat="44.81786" lon="6.39445">
        <ele>1780.4</ele>
        <time>2024-08-12T05:08:44Z</time>
      </trkpt>
      <trkpt lat="44.81786" lon="6.39445">
        <ele>1780.4</ele>
        <time>2024-08-12T05:08:45Z</time>
      </trkpt>
      <trkpt lat="44.81786" lon="6.39445">
        <ele>1780.4</ele>
        <time>2024-08-12T05:08:46Z</time>
      </trkpt>
      <trkpt lat="44.81786" lon="6.39445">
        <ele>1780.6</ele>
        <time>2024-08-12T05:08:47Z</time>
      </trkpt>
      <trkpt lat="44.81786" lon="6.39445">
        <ele>1780.6</ele>
        <time>2024-08-12T05:08:48Z</time>
      </trkpt>
      <trkpt lat="44.81786" lon="6.39445">
        <ele>1780.4</ele>
        <time>2024-08-12T05:08:49Z</time>
      </trkpt>
      <trkpt lat="44.81786" lon="6.39445">
        <ele>1780.6</ele>
        <time>2024-08-12T05:08:50Z</time>
      </trkpt>
      <trkpt lat="44.81786" lon="6.39445">
        <ele>1780.8</ele>
        <time>2024-08-12T05:08:51Z</time>
      </trkpt>
      <trkpt lat="44.81786" lon="6.39445">
        <ele>1780.8</ele>
        <time>2024-08-12T05:08:52Z</time>
      </trkpt>
      <trkpt lat="44.81786" lon="6.39445">
        <ele>1780.8</ele>
        <time>2024-08-12T05:08:53Z</time>
      </trkpt>
      <trkpt lat="44.81786" lon="6.39445">
        <ele>1780.8</ele>
        <time>2024-08-12T05:08:54Z</time>
      </trkpt>
      <trkpt lat="44.81786" lon="6.39445">
        <ele>1780.8</ele>
        <time>2024-08-12T05:08:55Z</time>
      </trkpt>
      <trkpt lat="44.81786" lon="6.39445">
        <ele>1780.8</ele>
        <time>2024-08-12T05:08:56Z</time>
      </trkpt>
      <trkpt lat="44.81786" lon="6.39445">
        <ele>1780.8</ele>
        <time>2024-08-12T05:08:57Z</time>
      </trkpt>
      <trkpt lat="44.81786" lon="6.39445">
        <ele>1780.8</ele>
        <time>2024-08-12T05:08:58Z</time>
      </trkpt>
      <trkpt lat="44.81786" lon="6.39445">
        <ele>1780.8</ele>
        <time>2024-08-12T05:08:59Z</time>
      </trkpt>
      <trkpt lat="44.81786" lon="6.39445">
        <ele>1780.6</ele>
        <time>2024-08-12T05:09:00Z</time>
      </trkpt>
      <trkpt lat="44.81786" lon="6.39445">
        <ele>1780.6</ele>
        <time>2024-08-12T05:09:01Z</time>
      </trkpt>
      <trkpt lat="44.81786" lon="6.39445">
        <ele>1780.2</ele>
        <time>2024-08-12T05:09:02Z</time>
      </trkpt>
      <trkpt lat="44.81786" lon="6.39445">
        <ele>1780.2</ele>
        <time>2024-08-12T05:09:03Z</time>
      </trkpt>
      <trkpt lat="44.81786" lon="6.39445">
        <ele>1780.4</ele>
        <time>2024-08-12T05:09:04Z</time>
      </trkpt>
      <trkpt lat="44.81786" lon="6.39445">
        <ele>1780.4</ele>
        <time>2024-08-12T05:09:05Z</time>
      </trkpt>
      <trkpt lat="44.81786" lon="6.39445">
        <ele>1780.4</ele>
        <time>2024-08-12T05:09:06Z</time>
      </trkpt>
      <trkpt lat="44.81786" lon="6.39445">
        <ele>1780.8</ele>
        <time>2024-08-12T05:09:07Z</time>
      </trkpt>
      <trkpt lat="44.81786" lon="6.39445">
        <ele>1780.8</ele>
        <time>2024-08-12T05:09:08Z</time>
      </trkpt>
      <trkpt lat="44.81786" lon="6.39445">
        <ele>1780.8</ele>
        <time>2024-08-12T05:09:09Z</time>
      </trkpt>
      <trkpt lat="44.81786" lon="6.39445">
        <ele>1780.8</ele>
        <time>2024-08-12T05:09:10Z</time>
      </trkpt>
      <trkpt lat="44.81786" lon="6.39445">
        <ele>1781</ele>
        <time>2024-08-12T05:09:11Z</time>
      </trkpt>
      <trkpt lat="44.81786" lon="6.39445">
        <ele>1781.4</ele>
        <time>2024-08-12T05:09:12Z</time>
      </trkpt>
      <trkpt lat="44.81785" lon="6.39443">
        <ele>1781.6</ele>
        <time>2024-08-12T05:09:13Z</time>
      </trkpt>
      <trkpt lat="44.81785" lon="6.39443">
        <ele>1782</ele>
        <time>2024-08-12T05:09:14Z</time>
      </trkpt>
      <trkpt lat="44.81782" lon="6.3944">
        <ele>1782.2</ele>
        <time>2024-08-12T05:09:15Z</time>
      </trkpt>
      <trkpt lat="44.81781" lon="6.39438">
        <ele>1782.2</ele>
        <time>2024-08-12T05:09:16Z</time>
      </trkpt>
      <trkpt lat="44.81779" lon="6.39437">
        <ele>1782.6</ele>
        <time>2024-08-12T05:09:17Z</time>
      </trkpt>
      <trkpt lat="44.81779" lon="6.39437">
        <ele>1782.6</ele>
        <time>2024-08-12T05:09:18Z</time>
      </trkpt>
      <trkpt lat="44.81776" lon="6.39435">
        <ele>1783</ele>
        <time>2024-08-12T05:09:19Z</time>
      </trkpt>
      <trkpt lat="44.81776" lon="6.39435">
        <ele>1783.2</ele>
        <time>2024-08-12T05:09:20Z</time>
      </trkpt>
      <trkpt lat="44.81776" lon="6.39435">
        <ele>1783.4</ele>
        <time>2024-08-12T05:09:21Z</time>
      </trkpt>
      <trkpt lat="44.81773" lon="6.39434">
        <ele>1783.6</ele>
        <time>2024-08-12T05:09:22Z</time>
      </trkpt>
      <trkpt lat="44.81773" lon="6.39434">
        <ele>1784</ele>
        <time>2024-08-12T05:09:23Z</time>
      </trkpt>
      <trkpt lat="44.81773" lon="6.39434">
        <ele>1784.2</ele>
        <time>2024-08-12T05:09:24Z</time>
      </trkpt>
      <trkpt lat="44.81772" lon="6.39433">
        <ele>1784.6</ele>
        <time>2024-08-12T05:09:25Z</time>
      </trkpt>
      <trkpt lat="44.81772" lon="6.39433">
        <ele>1785</ele>
        <time>2024-08-12T05:09:26Z</time>
      </trkpt>
      <trkpt lat="44.81772" lon="6.39433">
        <ele>1785</ele>
        <time>2024-08-12T05:09:27Z</time>
      </trkpt>
      <trkpt lat="44.81772" lon="6.39433">
        <ele>1785</ele>
        <time>2024-08-12T05:09:28Z</time>
      </trkpt>
      <trkpt lat="44.8177" lon="6.39431">
        <ele>1785</ele>
        <time>2024-08-12T05:09:29Z</time>
      </trkpt>
      <trkpt lat="44.8177" lon="6.39431">
        <ele>1785</ele>
        <time>2024-08-12T05:09:30Z</time>
      </trkpt>
      <trkpt lat="44.8177" lon="6.39431">
        <ele>1785.2</ele>
        <time>2024-08-12T05:09:31Z</time>
      </trkpt>
      <trkpt lat="44.8177" lon="6.39431">
        <ele>1785.4</ele>
        <time>2024-08-12T05:09:32Z</time>
      </trkpt>
      <trkpt lat="44.81768" lon="6.39429">
        <ele>1785.6</ele>
        <time>2024-08-12T05:09:33Z</time>
      </trkpt>
      <trkpt lat="44.81768" lon="6.39429">
        <ele>1785.8</ele>
        <time>2024-08-12T05:09:34Z</time>
      </trkpt>
      <trkpt lat="44.81768" lon="6.39429">
        <ele>1786</ele>
        <time>2024-08-12T05:09:35Z</time>
      </trkpt>
      <trkpt lat="44.81768" lon="6.39429">
        <ele>1786.4</ele>
        <time>2024-08-12T05:09:36Z</time>
      </trkpt>
      <trkpt lat="44.81765" lon="6.39427">
        <ele>1786.4</ele>
        <time>2024-08-12T05:09:37Z</time>
      </trkpt>
      <trkpt lat="44.81765" lon="6.39427">
        <ele>1786.6</ele>
        <time>2024-08-12T05:09:38Z</time>
      </trkpt>
      <trkpt lat="44.81764" lon="6.39425">
        <ele>1787</ele>
        <time>2024-08-12T05:09:39Z</time>
      </trkpt>
      <trkpt lat="44.81764" lon="6.39425">
        <ele>1787</ele>
        <time>2024-08-12T05:09:40Z</time>
      </trkpt>
      <trkpt lat="44.81762" lon="6.39424">
        <ele>1787</ele>
        <time>2024-08-12T05:09:41Z</time>
      </trkpt>
      <trkpt lat="44.81762" lon="6.39424">
        <ele>1787.4</ele>
        <time>2024-08-12T05:09:42Z</time>
      </trkpt>
      <trkpt lat="44.81761" lon="6.39422">
        <ele>1787.6</ele>
        <time>2024-08-12T05:09:43Z</time>
      </trkpt>
      <trkpt lat="44.81761" lon="6.39422">
        <ele>1787.6</ele>
        <time>2024-08-12T05:09:44Z</time>
      </trkpt>
      <trkpt lat="44.81761" lon="6.39422">
        <ele>1787.6</ele>
        <time>2024-08-12T05:09:45Z</time>
      </trkpt>
      <trkpt lat="44.81758" lon="6.3942">
        <ele>1787.6</ele>
        <time>2024-08-12T05:09:46Z</time>
      </trkpt>
      <trkpt lat="44.81758" lon="6.3942">
        <ele>1788</ele>
        <time>2024-08-12T05:09:47Z</time>
      </trkpt>
      <trkpt lat="44.81757" lon="6.39418">
        <ele>1788</ele>
        <time>2024-08-12T05:09:48Z</time>
      </trkpt>
      <trkpt lat="44.81757" lon="6.39418">
        <ele>1788</ele>
        <time>2024-08-12T05:09:49Z</time>
      </trkpt>
      <trkpt lat="44.81757" lon="6.39418">
        <ele>1788.4</ele>
        <time>2024-08-12T05:09:50Z</time>
      </trkpt>
      <trkpt lat="44.81755" lon="6.39415">
        <ele>1788.8</ele>
        <time>2024-08-12T05:09:51Z</time>
      </trkpt>
      <trkpt lat="44.81755" lon="6.39415">
        <ele>1788.8</ele>
        <time>2024-08-12T05:09:52Z</time>
      </trkpt>
      <trkpt lat="44.81753" lon="6.39413">
        <ele>1788.8</ele>
        <time>2024-08-12T05:09:53Z</time>
      </trkpt>
      <trkpt lat="44.81753" lon="6.39413">
        <ele>1788.8</ele>
        <time>2024-08-12T05:09:54Z</time>
      </trkpt>
      <trkpt lat="44.81753" lon="6.39413">
        <ele>1789</ele>
        <time>2024-08-12T05:09:55Z</time>
      </trkpt>
      <trkpt lat="44.81751" lon="6.39411">
        <ele>1789.2</ele>
        <time>2024-08-12T05:09:56Z</time>
      </trkpt>
      <trkpt lat="44.81751" lon="6.39411">
        <ele>1789.2</ele>
        <time>2024-08-12T05:09:57Z</time>
      </trkpt>
      <trkpt lat="44.8175" lon="6.39409">
        <ele>1789.4</ele>
        <time>2024-08-12T05:09:58Z</time>
      </trkpt>
      <trkpt lat="44.8175" lon="6.39409">
        <ele>1789.6</ele>
        <time>2024-08-12T05:09:59Z</time>
      </trkpt>
      <trkpt lat="44.81748" lon="6.39407">
        <ele>1789.6</ele>
        <time>2024-08-12T05:10:00Z</time>
      </trkpt>
      <trkpt lat="44.81748" lon="6.39407">
        <ele>1790</ele>
        <time>2024-08-12T05:10:01Z</time>
      </trkpt>
      <trkpt lat="44.81746" lon="6.39406">
        <ele>1790.2</ele>
        <time>2024-08-12T05:10:02Z</time>
      </trkpt>
      <trkpt lat="44.81746" lon="6.39406">
        <ele>1790.2</ele>
        <time>2024-08-12T05:10:03Z</time>
      </trkpt>
      <trkpt lat="44.81745" lon="6.39404">
        <ele>1790.2</ele>
        <time>2024-08-12T05:10:04Z</time>
      </trkpt>
      <trkpt lat="44.81745" lon="6.39404">
        <ele>1790.2</ele>
        <time>2024-08-12T05:10:05Z</time>
      </trkpt>
      <trkpt lat="44.81743" lon="6.39402">
        <ele>1790.2</ele>
        <time>2024-08-12T05:10:06Z</time>
      </trkpt>
      <trkpt lat="44.81743" lon="6.39402">
        <ele>1790.4</ele>
        <time>2024-08-12T05:10:07Z</time>
      </trkpt>
      <trkpt lat="44.81743" lon="6.39402">
        <ele>1790.8</ele>
        <time>2024-08-12T05:10:08Z</time>
      </trkpt>
      <trkpt lat="44.8174" lon="6.394">
        <ele>1790.8</ele>
        <time>2024-08-12T05:10:09Z</time>
      </trkpt>
      <trkpt lat="44.8174" lon="6.394">
        <ele>1791.2</ele>
        <time>2024-08-12T05:10:10Z</time>
      </trkpt>
      <trkpt lat="44.81739" lon="6.39399">
        <ele>1791.2</ele>
        <time>2024-08-12T05:10:11Z</time>
      </trkpt>
      <trkpt lat="44.81739" lon="6.39399">
        <ele>1791.2</ele>
        <time>2024-08-12T05:10:12Z</time>
      </trkpt>
      <trkpt lat="44.81737" lon="6.39397">
        <ele>1791.6</ele>
        <time>2024-08-12T05:10:13Z</time>
      </trkpt>
      <trkpt lat="44.81737" lon="6.39397">
        <ele>1791.6</ele>
        <time>2024-08-12T05:10:14Z</time>
      </trkpt>
      <trkpt lat="44.81734" lon="6.39395">
        <ele>1792</ele>
        <time>2024-08-12T05:10:15Z</time>
      </trkpt>
      <trkpt lat="44.81734" lon="6.39395">
        <ele>1792</ele>
        <time>2024-08-12T05:10:16Z</time>
      </trkpt>
      <trkpt lat="44.81733" lon="6.39394">
        <ele>1792</ele>
        <time>2024-08-12T05:10:17Z</time>
      </trkpt>
      <trkpt lat="44.81733" lon="6.39394">
        <ele>1792</ele>
        <time>2024-08-12T05:10:18Z</time>
      </trkpt>
      <trkpt lat="44.81731" lon="6.39392">
        <ele>1792</ele>
        <time>2024-08-12T05:10:19Z</time>
      </trkpt>
      <trkpt lat="44.81731" lon="6.39392">
        <ele>1792</ele>
        <time>2024-08-12T05:10:20Z</time>
      </trkpt>
      <trkpt lat="44.81731" lon="6.39392">
        <ele>1792.4</ele>
        <time>2024-08-12T05:10:21Z</time>
      </trkpt>
      <trkpt lat="44.81728" lon="6.39391">
        <ele>1792.4</ele>
        <time>2024-08-12T05:10:22Z</time>
      </trkpt>
      <trkpt lat="44.81728" lon="6.39391">
        <ele>1792.4</ele>
        <time>2024-08-12T05:10:23Z</time>
      </trkpt>
      <trkpt lat="44.81727" lon="6.3939">
        <ele>1792.6</ele>
        <time>2024-08-12T05:10:24Z</time>
      </trkpt>
      <trkpt lat="44.81727" lon="6.3939">
        <ele>1792.6</ele>
        <time>2024-08-12T05:10:25Z</time>
      </trkpt>
      <trkpt lat="44.81725" lon="6.39389">
        <ele>1792.8</ele>
        <time>2024-08-12T05:10:26Z</time>
      </trkpt>
      <trkpt lat="44.81725" lon="6.39389">
        <ele>1793.4</ele>
        <time>2024-08-12T05:10:27Z</time>
      </trkpt>
      <trkpt lat="44.81723" lon="6.39388">
        <ele>1793.6</ele>
        <time>2024-08-12T05:10:28Z</time>
      </trkpt>
      <trkpt lat="44.81723" lon="6.39388">
        <ele>1793.6</ele>
        <time>2024-08-12T05:10:29Z</time>
      </trkpt>
      <trkpt lat="44.81721" lon="6.39386">
        <ele>1793.8</ele>
        <time>2024-08-12T05:10:30Z</time>
      </trkpt>
      <trkpt lat="44.81721" lon="6.39386">
        <ele>1794</ele>
        <time>2024-08-12T05:10:31Z</time>
      </trkpt>
      <trkpt lat="44.81719" lon="6.39385">
        <ele>1794.2</ele>
        <time>2024-08-12T05:10:32Z</time>
      </trkpt>
      <trkpt lat="44.81719" lon="6.39385">
        <ele>1794.6</ele>
        <time>2024-08-12T05:10:33Z</time>
      </trkpt>
      <trkpt lat="44.81717" lon="6.39384">
        <ele>1794.6</ele>
        <time>2024-08-12T05:10:34Z</time>
      </trkpt>
      <trkpt lat="44.81717" lon="6.39384">
        <ele>1794.6</ele>
        <time>2024-08-12T05:10:35Z</time>
      </trkpt>
      <trkpt lat="44.81716" lon="6.39383">
        <ele>1794.8</ele>
        <time>2024-08-12T05:10:36Z</time>
      </trkpt>
      <trkpt lat="44.81716" lon="6.39383">
        <ele>1795</ele>
        <time>2024-08-12T05:10:37Z</time>
      </trkpt>
      <trkpt lat="44.81714" lon="6.39382">
        <ele>1795.2</ele>
        <time>2024-08-12T05:10:38Z</time>
      </trkpt>
      <trkpt lat="44.81714" lon="6.39382">
        <ele>1795.2</ele>
        <time>2024-08-12T05:10:39Z</time>
      </trkpt>
      <trkpt lat="44.81714" lon="6.39382">
        <ele>1795.4</ele>
        <time>2024-08-12T05:10:40Z</time>
      </trkpt>
      <trkpt lat="44.81712" lon="6.3938">
        <ele>1795.4</ele>
        <time>2024-08-12T05:10:41Z</time>
      </trkpt>
      <trkpt lat="44.81712" lon="6.3938">
        <ele>1795.6</ele>
        <time>2024-08-12T05:10:42Z</time>
      </trkpt>
      <trkpt lat="44.8171" lon="6.39379">
        <ele>1795.6</ele>
        <time>2024-08-12T05:10:43Z</time>
      </trkpt>
      <trkpt lat="44.8171" lon="6.39379">
        <ele>1796</ele>
        <time>2024-08-12T05:10:44Z</time>
      </trkpt>
      <trkpt lat="44.81708" lon="6.39377">
        <ele>1796</ele>
        <time>2024-08-12T05:10:45Z</time>
      </trkpt>
      <trkpt lat="44.81708" lon="6.39377">
        <ele>1796.2</ele>
        <time>2024-08-12T05:10:46Z</time>
      </trkpt>
      <trkpt lat="44.81706" lon="6.39376">
        <ele>1796.2</ele>
        <time>2024-08-12T05:10:47Z</time>
      </trkpt>
      <trkpt lat="44.81706" lon="6.39376">
        <ele>1796.2</ele>
        <time>2024-08-12T05:10:48Z</time>
      </trkpt>
      <trkpt lat="44.81704" lon="6.39374">
        <ele>1796.2</ele>
        <time>2024-08-12T05:10:49Z</time>
      </trkpt>
      <trkpt lat="44.81704" lon="6.39374">
        <ele>1796.2</ele>
        <time>2024-08-12T05:10:50Z</time>
      </trkpt>
      <trkpt lat="44.81702" lon="6.39371">
        <ele>1796.2</ele>
        <time>2024-08-12T05:10:51Z</time>
      </trkpt>
      <trkpt lat="44.81702" lon="6.39371">
        <ele>1796.2</ele>
        <time>2024-08-12T05:10:52Z</time>
      </trkpt>
      <trkpt lat="44.817" lon="6.39369">
        <ele>1796.4</ele>
        <time>2024-08-12T05:10:53Z</time>
      </trkpt>
      <trkpt lat="44.817" lon="6.39369">
        <ele>1796.6</ele>
        <time>2024-08-12T05:10:54Z</time>
      </trkpt>
      <trkpt lat="44.81699" lon="6.39366">
        <ele>1796.8</ele>
        <time>2024-08-12T05:10:55Z</time>
      </trkpt>
      <trkpt lat="44.81699" lon="6.39366">
        <ele>1796.8</ele>
        <time>2024-08-12T05:10:56Z</time>
      </trkpt>
      <trkpt lat="44.81697" lon="6.39363">
        <ele>1797</ele>
        <time>2024-08-12T05:10:57Z</time>
      </trkpt>
      <trkpt lat="44.81697" lon="6.39363">
        <ele>1796.8</ele>
        <time>2024-08-12T05:10:58Z</time>
      </trkpt>
      <trkpt lat="44.81695" lon="6.3936">
        <ele>1797</ele>
        <time>2024-08-12T05:10:59Z</time>
      </trkpt>
      <trkpt lat="44.81695" lon="6.3936">
        <ele>1797</ele>
        <time>2024-08-12T05:11:00Z</time>
      </trkpt>
      <trkpt lat="44.81694" lon="6.39358">
        <ele>1797</ele>
        <time>2024-08-12T05:11:01Z</time>
      </trkpt>
      <trkpt lat="44.81694" lon="6.39358">
        <ele>1797.8</ele>
        <time>2024-08-12T05:11:02Z</time>
      </trkpt>
      <trkpt lat="44.81693" lon="6.39356">
        <ele>1797.8</ele>
        <time>2024-08-12T05:11:03Z</time>
      </trkpt>
      <trkpt lat="44.81693" lon="6.39356">
        <ele>1798</ele>
        <time>2024-08-12T05:11:04Z</time>
      </trkpt>
      <trkpt lat="44.81692" lon="6.39353">
        <ele>1798.2</ele>
        <time>2024-08-12T05:11:05Z</time>
      </trkpt>
      <trkpt lat="44.81692" lon="6.39353">
        <ele>1798.2</ele>
        <time>2024-08-12T05:11:06Z</time>
      </trkpt>
      <trkpt lat="44.81691" lon="6.39349">
        <ele>1798</ele>
        <time>2024-08-12T05:11:07Z</time>
      </trkpt>
      <trkpt lat="44.81691" lon="6.39349">
        <ele>1798</ele>
        <time>2024-08-12T05:11:08Z</time>
      </trkpt>
      <trkpt lat="44.8169" lon="6.39346">
        <ele>1798.4</ele>
        <time>2024-08-12T05:11:09Z</time>
      </trkpt>
      <trkpt lat="44.8169" lon="6.39346">
        <ele>1798.4</ele>
        <time>2024-08-12T05:11:10Z</time>
      </trkpt>
      <trkpt lat="44.81689" lon="6.39342">
        <ele>1798.4</ele>
        <time>2024-08-12T05:11:11Z</time>
      </trkpt>
      <trkpt lat="44.81689" lon="6.39342">
        <ele>1798.4</ele>
        <time>2024-08-12T05:11:12Z</time>
      </trkpt>
      <trkpt lat="44.81689" lon="6.39339">
        <ele>1798.4</ele>
        <time>2024-08-12T05:11:13Z</time>
      </trkpt>
      <trkpt lat="44.81689" lon="6.39339">
        <ele>1798.4</ele>
        <time>2024-08-12T05:11:14Z</time>
      </trkpt>
      <trkpt lat="44.81688" lon="6.39335">
        <ele>1798</ele>
        <time>2024-08-12T05:11:15Z</time>
      </trkpt>
      <trkpt lat="44.81688" lon="6.39335">
        <ele>1798</ele>
        <time>2024-08-12T05:11:16Z</time>
      </trkpt>
      <trkpt lat="44.81687" lon="6.39331">
        <ele>1798</ele>
        <time>2024-08-12T05:11:17Z</time>
      </trkpt>
      <trkpt lat="44.81687" lon="6.39331">
        <ele>1798</ele>
        <time>2024-08-12T05:11:18Z</time>
      </trkpt>
      <trkpt lat="44.81687" lon="6.39328">
        <ele>1798.2</ele>
        <time>2024-08-12T05:11:19Z</time>
      </trkpt>
      <trkpt lat="44.81687" lon="6.39328">
        <ele>1798.2</ele>
        <time>2024-08-12T05:11:20Z</time>
      </trkpt>
      <trkpt lat="44.81686" lon="6.39325">
        <ele>1798.2</ele>
        <time>2024-08-12T05:11:21Z</time>
      </trkpt>
      <trkpt lat="44.81686" lon="6.39325">
        <ele>1798.4</ele>
        <time>2024-08-12T05:11:22Z</time>
      </trkpt>
      <trkpt lat="44.81686" lon="6.39322">
        <ele>1798.6</ele>
        <time>2024-08-12T05:11:23Z</time>
      </trkpt>
      <trkpt lat="44.81686" lon="6.39322">
        <ele>1798.8</ele>
        <time>2024-08-12T05:11:24Z</time>
      </trkpt>
      <trkpt lat="44.81685" lon="6.39319">
        <ele>1799</ele>
        <time>2024-08-12T05:11:25Z</time>
      </trkpt>
      <trkpt lat="44.81685" lon="6.39319">
        <ele>1799</ele>
        <time>2024-08-12T05:11:26Z</time>
      </trkpt>
      <trkpt lat="44.81684" lon="6.39316">
        <ele>1799</ele>
        <time>2024-08-12T05:11:27Z</time>
      </trkpt>
      <trkpt lat="44.81684" lon="6.39316">
        <ele>1799.2</ele>
        <time>2024-08-12T05:11:28Z</time>
      </trkpt>
      <trkpt lat="44.81683" lon="6.39313">
        <ele>1799.2</ele>
        <time>2024-08-12T05:11:29Z</time>
      </trkpt>
      <trkpt lat="44.81683" lon="6.39313">
        <ele>1799.2</ele>
        <time>2024-08-12T05:11:30Z</time>
      </trkpt>
      <trkpt lat="44.81682" lon="6.3931">
        <ele>1799</ele>
        <time>2024-08-12T05:11:31Z</time>
      </trkpt>
      <trkpt lat="44.81682" lon="6.3931">
        <ele>1799</ele>
        <time>2024-08-12T05:11:32Z</time>
      </trkpt>
      <trkpt lat="44.81681" lon="6.39307">
        <ele>1799.4</ele>
        <time>2024-08-12T05:11:33Z</time>
      </trkpt>
      <trkpt lat="44.81681" lon="6.39307">
        <ele>1799.6</ele>
        <time>2024-08-12T05:11:34Z</time>
      </trkpt>
      <trkpt lat="44.81679" lon="6.39304">
        <ele>1799.6</ele>
        <time>2024-08-12T05:11:35Z</time>
      </trkpt>
      <trkpt lat="44.81679" lon="6.39304">
        <ele>1799.6</ele>
        <time>2024-08-12T05:11:36Z</time>
      </trkpt>
      <trkpt lat="44.81678" lon="6.39301">
        <ele>1799.8</ele>
        <time>2024-08-12T05:11:37Z</time>
      </trkpt>
      <trkpt lat="44.81678" lon="6.39301">
        <ele>1799.8</ele>
        <time>2024-08-12T05:11:38Z</time>
      </trkpt>
      <trkpt lat="44.81677" lon="6.39298">
        <ele>1799.8</ele>
        <time>2024-08-12T05:11:39Z</time>
      </trkpt>
      <trkpt lat="44.81677" lon="6.39298">
        <ele>1800</ele>
        <time>2024-08-12T05:11:40Z</time>
      </trkpt>
      <trkpt lat="44.81675" lon="6.39296">
        <ele>1800.2</ele>
        <time>2024-08-12T05:11:41Z</time>
      </trkpt>
      <trkpt lat="44.81675" lon="6.39296">
        <ele>1800.2</ele>
        <time>2024-08-12T05:11:42Z</time>
      </trkpt>
      <trkpt lat="44.81673" lon="6.39293">
        <ele>1800</ele>
        <time>2024-08-12T05:11:43Z</time>
      </trkpt>
      <trkpt lat="44.81673" lon="6.39293">
        <ele>1800</ele>
        <time>2024-08-12T05:11:44Z</time>
      </trkpt>
      <trkpt lat="44.81672" lon="6.39291">
        <ele>1800</ele>
        <time>2024-08-12T05:11:45Z</time>
      </trkpt>
      <trkpt lat="44.81672" lon="6.39291">
        <ele>1800.2</ele>
        <time>2024-08-12T05:11:46Z</time>
      </trkpt>
      <trkpt lat="44.8167" lon="6.39288">
        <ele>1800.4</ele>
        <time>2024-08-12T05:11:47Z</time>
      </trkpt>
      <trkpt lat="44.8167" lon="6.39288">
        <ele>1800.6</ele>
        <time>2024-08-12T05:11:48Z</time>
      </trkpt>
      <trkpt lat="44.81669" lon="6.39286">
        <ele>1800.6</ele>
        <time>2024-08-12T05:11:49Z</time>
      </trkpt>
      <trkpt lat="44.81669" lon="6.39286">
        <ele>1800.6</ele>
        <time>2024-08-12T05:11:50Z</time>
      </trkpt>
      <trkpt lat="44.81669" lon="6.39286">
        <ele>1800.8</ele>
        <time>2024-08-12T05:11:51Z</time>
      </trkpt>
      <trkpt lat="44.81667" lon="6.39283">
        <ele>1800.8</ele>
        <time>2024-08-12T05:11:52Z</time>
      </trkpt>
      <trkpt lat="44.81667" lon="6.39283">
        <ele>1800.8</ele>
        <time>2024-08-12T05:11:53Z</time>
      </trkpt>
      <trkpt lat="44.81665" lon="6.39281">
        <ele>1801</ele>
        <time>2024-08-12T05:11:54Z</time>
      </trkpt>
      <trkpt lat="44.81665" lon="6.39281">
        <ele>1801.4</ele>
        <time>2024-08-12T05:11:55Z</time>
      </trkpt>
      <trkpt lat="44.81663" lon="6.39279">
        <ele>1801.4</ele>
        <time>2024-08-12T05:11:56Z</time>
      </trkpt>
      <trkpt lat="44.81663" lon="6.39279">
        <ele>1801.4</ele>
        <time>2024-08-12T05:11:57Z</time>
      </trkpt>
      <trkpt lat="44.81662" lon="6.39276">
        <ele>1801.6</ele>
        <time>2024-08-12T05:11:58Z</time>
      </trkpt>
      <trkpt lat="44.81662" lon="6.39276">
        <ele>1802</ele>
        <time>2024-08-12T05:11:59Z</time>
      </trkpt>
      <trkpt lat="44.81661" lon="6.39274">
        <ele>1802.2</ele>
        <time>2024-08-12T05:12:00Z</time>
      </trkpt>
      <trkpt lat="44.81661" lon="6.39274">
        <ele>1802.4</ele>
        <time>2024-08-12T05:12:01Z</time>
      </trkpt>
      <trkpt lat="44.81659" lon="6.39271">
        <ele>1802.6</ele>
        <time>2024-08-12T05:12:02Z</time>
      </trkpt>
      <trkpt lat="44.81659" lon="6.39271">
        <ele>1802.6</ele>
        <time>2024-08-12T05:12:03Z</time>
      </trkpt>
      <trkpt lat="44.81657" lon="6.39269">
        <ele>1802.6</ele>
        <time>2024-08-12T05:12:04Z</time>
      </trkpt>
      <trkpt lat="44.81657" lon="6.39269">
        <ele>1802.6</ele>
        <time>2024-08-12T05:12:05Z</time>
      </trkpt>
      <trkpt lat="44.81655" lon="6.39266">
        <ele>1802.6</ele>
        <time>2024-08-12T05:12:06Z</time>
      </trkpt>
      <trkpt lat="44.81655" lon="6.39266">
        <ele>1802.6</ele>
        <time>2024-08-12T05:12:07Z</time>
      </trkpt>
      <trkpt lat="44.81653" lon="6.39263">
        <ele>1802.6</ele>
        <time>2024-08-12T05:12:08Z</time>
      </trkpt>
      <trkpt lat="44.81653" lon="6.39263">
        <ele>1802.8</ele>
        <time>2024-08-12T05:12:09Z</time>
      </trkpt>
      <trkpt lat="44.81652" lon="6.39261">
        <ele>1802.8</ele>
        <time>2024-08-12T05:12:10Z</time>
      </trkpt>
      <trkpt lat="44.81652" lon="6.39261">
        <ele>1802.8</ele>
        <time>2024-08-12T05:12:11Z</time>
      </trkpt>
      <trkpt lat="44.81651" lon="6.39258">
        <ele>1802.8</ele>
        <time>2024-08-12T05:12:12Z</time>
      </trkpt>
      <trkpt lat="44.81651" lon="6.39258">
        <ele>1802.8</ele>
        <time>2024-08-12T05:12:13Z</time>
      </trkpt>
      <trkpt lat="44.81651" lon="6.39258">
        <ele>1803.2</ele>
        <time>2024-08-12T05:12:14Z</time>
      </trkpt>
      <trkpt lat="44.81649" lon="6.39255">
        <ele>1803.4</ele>
        <time>2024-08-12T05:12:15Z</time>
      </trkpt>
      <trkpt lat="44.81649" lon="6.39255">
        <ele>1803.8</ele>
        <time>2024-08-12T05:12:16Z</time>
      </trkpt>
      <trkpt lat="44.81648" lon="6.39253">
        <ele>1803.8</ele>
        <time>2024-08-12T05:12:17Z</time>
      </trkpt>
      <trkpt lat="44.81648" lon="6.39253">
        <ele>1803.8</ele>
        <time>2024-08-12T05:12:18Z</time>
      </trkpt>
      <trkpt lat="44.81647" lon="6.39251">
        <ele>1804.2</ele>
        <time>2024-08-12T05:12:19Z</time>
      </trkpt>
      <trkpt lat="44.81647" lon="6.39251">
        <ele>1804.4</ele>
        <time>2024-08-12T05:12:20Z</time>
      </trkpt>
      <trkpt lat="44.81647" lon="6.39251">
        <ele>1804.6</ele>
        <time>2024-08-12T05:12:21Z</time>
      </trkpt>
      <trkpt lat="44.81646" lon="6.39247">
        <ele>1804.8</ele>
        <time>2024-08-12T05:12:22Z</time>
      </trkpt>
      <trkpt lat="44.81646" lon="6.39247">
        <ele>1805</ele>
        <time>2024-08-12T05:12:23Z</time>
      </trkpt>
      <trkpt lat="44.81645" lon="6.39245">
        <ele>1805.2</ele>
        <time>2024-08-12T05:12:24Z</time>
      </trkpt>
      <trkpt lat="44.81645" lon="6.39245">
        <ele>1805.6</ele>
        <time>2024-08-12T05:12:25Z</time>
      </trkpt>
      <trkpt lat="44.81642" lon="6.39243">
        <ele>1805.8</ele>
        <time>2024-08-12T05:12:26Z</time>
      </trkpt>
      <trkpt lat="44.81642" lon="6.39243">
        <ele>1805.8</ele>
        <time>2024-08-12T05:12:27Z</time>
      </trkpt>
      <trkpt lat="44.8164" lon="6.39241">
        <ele>1806</ele>
        <time>2024-08-12T05:12:28Z</time>
      </trkpt>
      <trkpt lat="44.8164" lon="6.39241">
        <ele>1806.2</ele>
        <time>2024-08-12T05:12:29Z</time>
      </trkpt>
      <trkpt lat="44.81638" lon="6.3924">
        <ele>1806.2</ele>
        <time>2024-08-12T05:12:30Z</time>
      </trkpt>
      <trkpt lat="44.81638" lon="6.3924">
        <ele>1806</ele>
        <time>2024-08-12T05:12:31Z</time>
      </trkpt>
      <trkpt lat="44.81637" lon="6.39239">
        <ele>1806</ele>
        <time>2024-08-12T05:12:32Z</time>
      </trkpt>
      <trkpt lat="44.81637" lon="6.39239">
        <ele>1806.2</ele>
        <time>2024-08-12T05:12:33Z</time>
      </trkpt>
      <trkpt lat="44.81634" lon="6.39238">
        <ele>1806.2</ele>
        <time>2024-08-12T05:12:34Z</time>
      </trkpt>
      <trkpt lat="44.81634" lon="6.39238">
        <ele>1806.2</ele>
        <time>2024-08-12T05:12:35Z</time>
      </trkpt>
      <trkpt lat="44.81633" lon="6.39236">
        <ele>1806.2</ele>
        <time>2024-08-12T05:12:36Z</time>
      </trkpt>
      <trkpt lat="44.81633" lon="6.39236">
        <ele>1805.4</ele>
        <time>2024-08-12T05:12:37Z</time>
      </trkpt>
      <trkpt lat="44.81631" lon="6.39234">
        <ele>1805.2</ele>
        <time>2024-08-12T05:12:38Z</time>
      </trkpt>
      <trkpt lat="44.81631" lon="6.39234">
        <ele>1805.2</ele>
        <time>2024-08-12T05:12:39Z</time>
      </trkpt>
      <trkpt lat="44.81629" lon="6.39232">
        <ele>1805.2</ele>
        <time>2024-08-12T05:12:40Z</time>
      </trkpt>
      <trkpt lat="44.81629" lon="6.39232">
        <ele>1805.4</ele>
        <time>2024-08-12T05:12:41Z</time>
      </trkpt>
      <trkpt lat="44.81628" lon="6.39229">
        <ele>1805.6</ele>
        <time>2024-08-12T05:12:42Z</time>
      </trkpt>
      <trkpt lat="44.81628" lon="6.39229">
        <ele>1805.6</ele>
        <time>2024-08-12T05:12:43Z</time>
      </trkpt>
      <trkpt lat="44.81626" lon="6.39226">
        <ele>1805.6</ele>
        <time>2024-08-12T05:12:44Z</time>
      </trkpt>
      <trkpt lat="44.81626" lon="6.39226">
        <ele>1805.6</ele>
        <time>2024-08-12T05:12:45Z</time>
      </trkpt>
      <trkpt lat="44.81624" lon="6.39223">
        <ele>1805.6</ele>
        <time>2024-08-12T05:12:46Z</time>
      </trkpt>
      <trkpt lat="44.81624" lon="6.39223">
        <ele>1805.6</ele>
        <time>2024-08-12T05:12:47Z</time>
      </trkpt>
      <trkpt lat="44.81623" lon="6.39221">
        <ele>1805.6</ele>
        <time>2024-08-12T05:12:48Z</time>
      </trkpt>
      <trkpt lat="44.81623" lon="6.39221">
        <ele>1805.6</ele>
        <time>2024-08-12T05:12:49Z</time>
      </trkpt>
      <trkpt lat="44.8162" lon="6.39219">
        <ele>1805.6</ele>
        <time>2024-08-12T05:12:50Z</time>
      </trkpt>
      <trkpt lat="44.8162" lon="6.39219">
        <ele>1805.8</ele>
        <time>2024-08-12T05:12:51Z</time>
      </trkpt>
      <trkpt lat="44.81618" lon="6.39217">
        <ele>1805.8</ele>
        <time>2024-08-12T05:12:52Z</time>
      </trkpt>
      <trkpt lat="44.81618" lon="6.39217">
        <ele>1805.6</ele>
        <time>2024-08-12T05:12:53Z</time>
      </trkpt>
      <trkpt lat="44.81616" lon="6.39215">
        <ele>1805.4</ele>
        <time>2024-08-12T05:12:54Z</time>
      </trkpt>
      <trkpt lat="44.81616" lon="6.39215">
        <ele>1805.2</ele>
        <time>2024-08-12T05:12:55Z</time>
      </trkpt>
      <trkpt lat="44.81614" lon="6.39213">
        <ele>1805.2</ele>
        <time>2024-08-12T05:12:56Z</time>
      </trkpt>
      <trkpt lat="44.81614" lon="6.39213">
        <ele>1805</ele>
        <time>2024-08-12T05:12:57Z</time>
      </trkpt>
      <trkpt lat="44.81612" lon="6.39211">
        <ele>1805</ele>
        <time>2024-08-12T05:12:58Z</time>
      </trkpt>
      <trkpt lat="44.81612" lon="6.39211">
        <ele>1805.2</ele>
        <time>2024-08-12T05:12:59Z</time>
      </trkpt>
      <trkpt lat="44.81609" lon="6.39209">
        <ele>1805.2</ele>
        <time>2024-08-12T05:13:00Z</time>
      </trkpt>
      <trkpt lat="44.81609" lon="6.39209">
        <ele>1805</ele>
        <time>2024-08-12T05:13:01Z</time>
      </trkpt>
      <trkpt lat="44.81607" lon="6.39207">
        <ele>1804.4</ele>
        <time>2024-08-12T05:13:02Z</time>
      </trkpt>
      <trkpt lat="44.81607" lon="6.39207">
        <ele>1804.4</ele>
        <time>2024-08-12T05:13:03Z</time>
      </trkpt>
      <trkpt lat="44.81605" lon="6.39206">
        <ele>1804.2</ele>
        <time>2024-08-12T05:13:04Z</time>
      </trkpt>
      <trkpt lat="44.81605" lon="6.39206">
        <ele>1804.2</ele>
        <time>2024-08-12T05:13:05Z</time>
      </trkpt>
      <trkpt lat="44.81602" lon="6.39205">
        <ele>1804.2</ele>
        <time>2024-08-12T05:13:06Z</time>
      </trkpt>
      <trkpt lat="44.81602" lon="6.39205">
        <ele>1804</ele>
        <time>2024-08-12T05:13:07Z</time>
      </trkpt>
      <trkpt lat="44.81599" lon="6.39205">
        <ele>1803.6</ele>
        <time>2024-08-12T05:13:08Z</time>
      </trkpt>
      <trkpt lat="44.81599" lon="6.39205">
        <ele>1803.6</ele>
        <time>2024-08-12T05:13:09Z</time>
      </trkpt>
      <trkpt lat="44.81597" lon="6.39204">
        <ele>1803.4</ele>
        <time>2024-08-12T05:13:10Z</time>
      </trkpt>
      <trkpt lat="44.81597" lon="6.39204">
        <ele>1803.4</ele>
        <time>2024-08-12T05:13:11Z</time>
      </trkpt>
      <trkpt lat="44.81595" lon="6.39204">
        <ele>1803.4</ele>
        <time>2024-08-12T05:13:12Z</time>
      </trkpt>
      <trkpt lat="44.81595" lon="6.39204">
        <ele>1803.4</ele>
        <time>2024-08-12T05:13:13Z</time>
      </trkpt>
      <trkpt lat="44.81592" lon="6.39205">
        <ele>1803.4</ele>
        <time>2024-08-12T05:13:14Z</time>
      </trkpt>
      <trkpt lat="44.81592" lon="6.39205">
        <ele>1803.2</ele>
        <time>2024-08-12T05:13:15Z</time>
      </trkpt>
      <trkpt lat="44.81589" lon="6.39205">
        <ele>1802.8</ele>
        <time>2024-08-12T05:13:16Z</time>
      </trkpt>
      <trkpt lat="44.81589" lon="6.39205">
        <ele>1802.8</ele>
        <time>2024-08-12T05:13:17Z</time>
      </trkpt>
      <trkpt lat="44.81586" lon="6.39204">
        <ele>1802.8</ele>
        <time>2024-08-12T05:13:18Z</time>
      </trkpt>
      <trkpt lat="44.81586" lon="6.39204">
        <ele>1802.6</ele>
        <time>2024-08-12T05:13:19Z</time>
      </trkpt>
      <trkpt lat="44.81584" lon="6.39204">
        <ele>1802.6</ele>
        <time>2024-08-12T05:13:20Z</time>
      </trkpt>
      <trkpt lat="44.81584" lon="6.39204">
        <ele>1802.6</ele>
        <time>2024-08-12T05:13:21Z</time>
      </trkpt>
      <trkpt lat="44.81581" lon="6.39203">
        <ele>1802.6</ele>
        <time>2024-08-12T05:13:22Z</time>
      </trkpt>
      <trkpt lat="44.81581" lon="6.39203">
        <ele>1802.6</ele>
        <time>2024-08-12T05:13:23Z</time>
      </trkpt>
      <trkpt lat="44.81579" lon="6.39202">
        <ele>1802.6</ele>
        <time>2024-08-12T05:13:24Z</time>
      </trkpt>
      <trkpt lat="44.81579" lon="6.39202">
        <ele>1802.6</ele>
        <time>2024-08-12T05:13:25Z</time>
      </trkpt>
      <trkpt lat="44.81577" lon="6.39202">
        <ele>1802.6</ele>
        <time>2024-08-12T05:13:26Z</time>
      </trkpt>
      <trkpt lat="44.81577" lon="6.39202">
        <ele>1802.8</ele>
        <time>2024-08-12T05:13:27Z</time>
      </trkpt>
      <trkpt lat="44.81574" lon="6.39201">
        <ele>1802.8</ele>
        <time>2024-08-12T05:13:28Z</time>
      </trkpt>
      <trkpt lat="44.81574" lon="6.39201">
        <ele>1802.6</ele>
        <time>2024-08-12T05:13:29Z</time>
      </trkpt>
      <trkpt lat="44.81572" lon="6.39201">
        <ele>1802.4</ele>
        <time>2024-08-12T05:13:30Z</time>
      </trkpt>
      <trkpt lat="44.81572" lon="6.39201">
        <ele>1802.4</ele>
        <time>2024-08-12T05:13:31Z</time>
      </trkpt>
      <trkpt lat="44.8157" lon="6.392">
        <ele>1802.4</ele>
        <time>2024-08-12T05:13:32Z</time>
      </trkpt>
      <trkpt lat="44.8157" lon="6.392">
        <ele>1802.2</ele>
        <time>2024-08-12T05:13:33Z</time>
      </trkpt>
      <trkpt lat="44.81568" lon="6.39199">
        <ele>1802.2</ele>
        <time>2024-08-12T05:13:34Z</time>
      </trkpt>
      <trkpt lat="44.81568" lon="6.39199">
        <ele>1802.2</ele>
        <time>2024-08-12T05:13:35Z</time>
      </trkpt>
      <trkpt lat="44.81566" lon="6.39197">
        <ele>1802.4</ele>
        <time>2024-08-12T05:13:36Z</time>
      </trkpt>
      <trkpt lat="44.81566" lon="6.39197">
        <ele>1802.4</ele>
        <time>2024-08-12T05:13:37Z</time>
      </trkpt>
      <trkpt lat="44.81564" lon="6.39195">
        <ele>1802.4</ele>
        <time>2024-08-12T05:13:38Z</time>
      </trkpt>
      <trkpt lat="44.81564" lon="6.39195">
        <ele>1802.4</ele>
        <time>2024-08-12T05:13:39Z</time>
      </trkpt>
      <trkpt lat="44.81563" lon="6.39193">
        <ele>1802.8</ele>
        <time>2024-08-12T05:13:40Z</time>
      </trkpt>
      <trkpt lat="44.81563" lon="6.39193">
        <ele>1802.8</ele>
        <time>2024-08-12T05:13:41Z</time>
      </trkpt>
      <trkpt lat="44.8156" lon="6.39191">
        <ele>1803</ele>
        <time>2024-08-12T05:13:42Z</time>
      </trkpt>
      <trkpt lat="44.8156" lon="6.39191">
        <ele>1803</ele>
        <time>2024-08-12T05:13:43Z</time>
      </trkpt>
      <trkpt lat="44.8156" lon="6.39191">
        <ele>1803.2</ele>
        <time>2024-08-12T05:13:44Z</time>
      </trkpt>
      <trkpt lat="44.81557" lon="6.39189">
        <ele>1803.2</ele>
        <time>2024-08-12T05:13:45Z</time>
      </trkpt>
      <trkpt lat="44.81557" lon="6.39189">
        <ele>1803.4</ele>
        <time>2024-08-12T05:13:46Z</time>
      </trkpt>
      <trkpt lat="44.81556" lon="6.39187">
        <ele>1803.6</ele>
        <time>2024-08-12T05:13:47Z</time>
      </trkpt>
      <trkpt lat="44.81556" lon="6.39187">
        <ele>1804</ele>
        <time>2024-08-12T05:13:48Z</time>
      </trkpt>
      <trkpt lat="44.81554" lon="6.39186">
        <ele>1804.2</ele>
        <time>2024-08-12T05:13:49Z</time>
      </trkpt>
      <trkpt lat="44.81554" lon="6.39186">
        <ele>1804.4</ele>
        <time>2024-08-12T05:13:50Z</time>
      </trkpt>
      <trkpt lat="44.81551" lon="6.39184">
        <ele>1804.4</ele>
        <time>2024-08-12T05:13:51Z</time>
      </trkpt>
      <trkpt lat="44.81551" lon="6.39184">
        <ele>1804.4</ele>
        <time>2024-08-12T05:13:52Z</time>
      </trkpt>
      <trkpt lat="44.8155" lon="6.39182">
        <ele>1804.4</ele>
        <time>2024-08-12T05:13:53Z</time>
      </trkpt>
      <trkpt lat="44.8155" lon="6.39182">
        <ele>1804.4</ele>
        <time>2024-08-12T05:13:54Z</time>
      </trkpt>
      <trkpt lat="44.81548" lon="6.39179">
        <ele>1804.4</ele>
        <time>2024-08-12T05:13:55Z</time>
      </trkpt>
      <trkpt lat="44.81548" lon="6.39179">
        <ele>1804.4</ele>
        <time>2024-08-12T05:13:56Z</time>
      </trkpt>
      <trkpt lat="44.81547" lon="6.39176">
        <ele>1804.6</ele>
        <time>2024-08-12T05:13:57Z</time>
      </trkpt>
      <trkpt lat="44.81547" lon="6.39176">
        <ele>1804.6</ele>
        <time>2024-08-12T05:13:58Z</time>
      </trkpt>
      <trkpt lat="44.81545" lon="6.39173">
        <ele>1804.6</ele>
        <time>2024-08-12T05:13:59Z</time>
      </trkpt>
      <trkpt lat="44.81545" lon="6.39173">
        <ele>1804.4</ele>
        <time>2024-08-12T05:14:00Z</time>
      </trkpt>
      <trkpt lat="44.81543" lon="6.39171">
        <ele>1804.4</ele>
        <time>2024-08-12T05:14:01Z</time>
      </trkpt>
      <trkpt lat="44.81543" lon="6.39171">
        <ele>1804.6</ele>
        <time>2024-08-12T05:14:02Z</time>
      </trkpt>
      <trkpt lat="44.81541" lon="6.39169">
        <ele>1804.6</ele>
        <time>2024-08-12T05:14:03Z</time>
      </trkpt>
      <trkpt lat="44.81541" lon="6.39169">
        <ele>1804.6</ele>
        <time>2024-08-12T05:14:04Z</time>
      </trkpt>
      <trkpt lat="44.81539" lon="6.39166">
        <ele>1804.6</ele>
        <time>2024-08-12T05:14:05Z</time>
      </trkpt>
      <trkpt lat="44.81539" lon="6.39166">
        <ele>1804.6</ele>
        <time>2024-08-12T05:14:06Z</time>
      </trkpt>
      <trkpt lat="44.81538" lon="6.39163">
        <ele>1804.4</ele>
        <time>2024-08-12T05:14:07Z</time>
      </trkpt>
      <trkpt lat="44.81538" lon="6.39163">
        <ele>1804.4</ele>
        <time>2024-08-12T05:14:08Z</time>
      </trkpt>
      <trkpt lat="44.81536" lon="6.3916">
        <ele>1804.4</ele>
        <time>2024-08-12T05:14:09Z</time>
      </trkpt>
      <trkpt lat="44.81536" lon="6.3916">
        <ele>1804.4</ele>
        <time>2024-08-12T05:14:10Z</time>
      </trkpt>
      <trkpt lat="44.81535" lon="6.39157">
        <ele>1804.4</ele>
        <time>2024-08-12T05:14:11Z</time>
      </trkpt>
      <trkpt lat="44.81535" lon="6.39157">
        <ele>1804.4</ele>
        <time>2024-08-12T05:14:12Z</time>
      </trkpt>
      <trkpt lat="44.81535" lon="6.39153">
        <ele>1804.4</ele>
        <time>2024-08-12T05:14:13Z</time>
      </trkpt>
      <trkpt lat="44.81535" lon="6.39153">
        <ele>1804.4</ele>
        <time>2024-08-12T05:14:14Z</time>
      </trkpt>
      <trkpt lat="44.81535" lon="6.3915">
        <ele>1804.6</ele>
        <time>2024-08-12T05:14:15Z</time>
      </trkpt>
      <trkpt lat="44.81535" lon="6.3915">
        <ele>1804.6</ele>
        <time>2024-08-12T05:14:16Z</time>
      </trkpt>
      <trkpt lat="44.81535" lon="6.39147">
        <ele>1804.6</ele>
        <time>2024-08-12T05:14:17Z</time>
      </trkpt>
      <trkpt lat="44.81535" lon="6.39147">
        <ele>1804.6</ele>
        <time>2024-08-12T05:14:18Z</time>
      </trkpt>
      <trkpt lat="44.81535" lon="6.39144">
        <ele>1804.8</ele>
        <time>2024-08-12T05:14:19Z</time>
      </trkpt>
      <trkpt lat="44.81535" lon="6.39144">
        <ele>1804.8</ele>
        <time>2024-08-12T05:14:20Z</time>
      </trkpt>
      <trkpt lat="44.81533" lon="6.39141">
        <ele>1804.8</ele>
        <time>2024-08-12T05:14:21Z</time>
      </trkpt>
      <trkpt lat="44.81533" lon="6.39141">
        <ele>1805</ele>
        <time>2024-08-12T05:14:22Z</time>
      </trkpt>
      <trkpt lat="44.81532" lon="6.39138">
        <ele>1805.4</ele>
        <time>2024-08-12T05:14:23Z</time>
      </trkpt>
      <trkpt lat="44.81532" lon="6.39138">
        <ele>1805.6</ele>
        <time>2024-08-12T05:14:24Z</time>
      </trkpt>
      <trkpt lat="44.8153" lon="6.39136">
        <ele>1805.6</ele>
        <time>2024-08-12T05:14:25Z</time>
      </trkpt>
      <trkpt lat="44.8153" lon="6.39136">
        <ele>1805.8</ele>
        <time>2024-08-12T05:14:26Z</time>
      </trkpt>
      <trkpt lat="44.81528" lon="6.39133">
        <ele>1805.8</ele>
        <time>2024-08-12T05:14:27Z</time>
      </trkpt>
      <trkpt lat="44.81528" lon="6.39133">
        <ele>1805.6</ele>
        <time>2024-08-12T05:14:28Z</time>
      </trkpt>
      <trkpt lat="44.81526" lon="6.3913">
        <ele>1805.4</ele>
        <time>2024-08-12T05:14:29Z</time>
      </trkpt>
      <trkpt lat="44.81526" lon="6.3913">
        <ele>1805.4</ele>
        <time>2024-08-12T05:14:30Z</time>
      </trkpt>
      <trkpt lat="44.81525" lon="6.39127">
        <ele>1805.4</ele>
        <time>2024-08-12T05:14:31Z</time>
      </trkpt>
      <trkpt lat="44.81525" lon="6.39127">
        <ele>1805.6</ele>
        <time>2024-08-12T05:14:32Z</time>
      </trkpt>
      <trkpt lat="44.81523" lon="6.39124">
        <ele>1805.4</ele>
        <time>2024-08-12T05:14:33Z</time>
      </trkpt>
      <trkpt lat="44.81523" lon="6.39124">
        <ele>1805.4</ele>
        <time>2024-08-12T05:14:34Z</time>
      </trkpt>
      <trkpt lat="44.81522" lon="6.39121">
        <ele>1805.4</ele>
        <time>2024-08-12T05:14:35Z</time>
      </trkpt>
      <trkpt lat="44.81522" lon="6.39121">
        <ele>1805.8</ele>
        <time>2024-08-12T05:14:36Z</time>
      </trkpt>
      <trkpt lat="44.81521" lon="6.39118">
        <ele>1805.8</ele>
        <time>2024-08-12T05:14:37Z</time>
      </trkpt>
      <trkpt lat="44.81521" lon="6.39118">
        <ele>1805.6</ele>
        <time>2024-08-12T05:14:38Z</time>
      </trkpt>
      <trkpt lat="44.81519" lon="6.39115">
        <ele>1805.6</ele>
        <time>2024-08-12T05:14:39Z</time>
      </trkpt>
      <trkpt lat="44.81519" lon="6.39115">
        <ele>1805.6</ele>
        <time>2024-08-12T05:14:40Z</time>
      </trkpt>
      <trkpt lat="44.81517" lon="6.39112">
        <ele>1805.8</ele>
        <time>2024-08-12T05:14:41Z</time>
      </trkpt>
      <trkpt lat="44.81517" lon="6.39112">
        <ele>1805.8</ele>
        <time>2024-08-12T05:14:42Z</time>
      </trkpt>
      <trkpt lat="44.81516" lon="6.3911">
        <ele>1805.8</ele>
        <time>2024-08-12T05:14:43Z</time>
      </trkpt>
      <trkpt lat="44.81516" lon="6.3911">
        <ele>1805.8</ele>
        <time>2024-08-12T05:14:44Z</time>
      </trkpt>
      <trkpt lat="44.81514" lon="6.39108">
        <ele>1805.8</ele>
        <time>2024-08-12T05:14:45Z</time>
      </trkpt>
      <trkpt lat="44.81514" lon="6.39108">
        <ele>1805.8</ele>
        <time>2024-08-12T05:14:46Z</time>
      </trkpt>
      <trkpt lat="44.81512" lon="6.39106">
        <ele>1806</ele>
        <time>2024-08-12T05:14:47Z</time>
      </trkpt>
      <trkpt lat="44.81512" lon="6.39106">
        <ele>1806.2</ele>
        <time>2024-08-12T05:14:48Z</time>
      </trkpt>
      <trkpt lat="44.8151" lon="6.39103">
        <ele>1806.2</ele>
        <time>2024-08-12T05:14:49Z</time>
      </trkpt>
      <trkpt lat="44.8151" lon="6.39103">
        <ele>1806.2</ele>
        <time>2024-08-12T05:14:50Z</time>
      </trkpt>
      <trkpt lat="44.81508" lon="6.39102">
        <ele>1806.6</ele>
        <time>2024-08-12T05:14:51Z</time>
      </trkpt>
      <trkpt lat="44.81508" lon="6.39102">
        <ele>1806.8</ele>
        <time>2024-08-12T05:14:52Z</time>
      </trkpt>
      <trkpt lat="44.81506" lon="6.39099">
        <ele>1806.8</ele>
        <time>2024-08-12T05:14:53Z</time>
      </trkpt>
      <trkpt lat="44.81506" lon="6.39099">
        <ele>1807</ele>
        <time>2024-08-12T05:14:54Z</time>
      </trkpt>
      <trkpt lat="44.81506" lon="6.39099">
        <ele>1807</ele>
        <time>2024-08-12T05:14:55Z</time>
      </trkpt>
      <trkpt lat="44.81504" lon="6.39097">
        <ele>1807.2</ele>
        <time>2024-08-12T05:14:56Z</time>
      </trkpt>
      <trkpt lat="44.81504" lon="6.39097">
        <ele>1807.4</ele>
        <time>2024-08-12T05:14:57Z</time>
      </trkpt>
      <trkpt lat="44.81502" lon="6.39095">
        <ele>1807.4</ele>
        <time>2024-08-12T05:14:58Z</time>
      </trkpt>
      <trkpt lat="44.81502" lon="6.39095">
        <ele>1807.6</ele>
        <time>2024-08-12T05:14:59Z</time>
      </trkpt>
      <trkpt lat="44.815" lon="6.39092">
        <ele>1807.8</ele>
        <time>2024-08-12T05:15:00Z</time>
      </trkpt>
      <trkpt lat="44.815" lon="6.39092">
        <ele>1808</ele>
        <time>2024-08-12T05:15:01Z</time>
      </trkpt>
      <trkpt lat="44.81498" lon="6.3909">
        <ele>1808.2</ele>
        <time>2024-08-12T05:15:02Z</time>
      </trkpt>
      <trkpt lat="44.81498" lon="6.3909">
        <ele>1808.2</ele>
        <time>2024-08-12T05:15:03Z</time>
      </trkpt>
      <trkpt lat="44.81496" lon="6.39088">
        <ele>1808.4</ele>
        <time>2024-08-12T05:15:04Z</time>
      </trkpt>
      <trkpt lat="44.81496" lon="6.39088">
        <ele>1808.4</ele>
        <time>2024-08-12T05:15:05Z</time>
      </trkpt>
      <trkpt lat="44.81495" lon="6.39086">
        <ele>1808.4</ele>
        <time>2024-08-12T05:15:06Z</time>
      </trkpt>
      <trkpt lat="44.81495" lon="6.39086">
        <ele>1808.4</ele>
        <time>2024-08-12T05:15:07Z</time>
      </trkpt>
      <trkpt lat="44.81493" lon="6.39084">
        <ele>1808.4</ele>
        <time>2024-08-12T05:15:08Z</time>
      </trkpt>
      <trkpt lat="44.81493" lon="6.39084">
        <ele>1808.4</ele>
        <time>2024-08-12T05:15:09Z</time>
      </trkpt>
      <trkpt lat="44.81491" lon="6.39081">
        <ele>1808.4</ele>
        <time>2024-08-12T05:15:10Z</time>
      </trkpt>
      <trkpt lat="44.81491" lon="6.39081">
        <ele>1808.4</ele>
        <time>2024-08-12T05:15:11Z</time>
      </trkpt>
      <trkpt lat="44.81489" lon="6.3908">
        <ele>1808.2</ele>
        <time>2024-08-12T05:15:12Z</time>
      </trkpt>
      <trkpt lat="44.81489" lon="6.3908">
        <ele>1808.2</ele>
        <time>2024-08-12T05:15:13Z</time>
      </trkpt>
      <trkpt lat="44.81486" lon="6.39078">
        <ele>1808.2</ele>
        <time>2024-08-12T05:15:14Z</time>
      </trkpt>
      <trkpt lat="44.81486" lon="6.39078">
        <ele>1808.2</ele>
        <time>2024-08-12T05:15:15Z</time>
      </trkpt>
      <trkpt lat="44.81484" lon="6.39077">
        <ele>1808.4</ele>
        <time>2024-08-12T05:15:16Z</time>
      </trkpt>
      <trkpt lat="44.81484" lon="6.39077">
        <ele>1808.4</ele>
        <time>2024-08-12T05:15:17Z</time>
      </trkpt>
      <trkpt lat="44.81482" lon="6.39074">
        <ele>1808.4</ele>
        <time>2024-08-12T05:15:18Z</time>
      </trkpt>
      <trkpt lat="44.81482" lon="6.39074">
        <ele>1808.4</ele>
        <time>2024-08-12T05:15:19Z</time>
      </trkpt>
      <trkpt lat="44.8148" lon="6.39071">
        <ele>1808.4</ele>
        <time>2024-08-12T05:15:20Z</time>
      </trkpt>
      <trkpt lat="44.8148" lon="6.39071">
        <ele>1808.4</ele>
        <time>2024-08-12T05:15:21Z</time>
      </trkpt>
      <trkpt lat="44.81479" lon="6.39068">
        <ele>1808.6</ele>
        <time>2024-08-12T05:15:22Z</time>
      </trkpt>
      <trkpt lat="44.81479" lon="6.39068">
        <ele>1808.6</ele>
        <time>2024-08-12T05:15:23Z</time>
      </trkpt>
      <trkpt lat="44.81477" lon="6.39066">
        <ele>1808.6</ele>
        <time>2024-08-12T05:15:24Z</time>
      </trkpt>
      <trkpt lat="44.81477" lon="6.39066">
        <ele>1809</ele>
        <time>2024-08-12T05:15:25Z</time>
      </trkpt>
      <trkpt lat="44.81476" lon="6.39063">
        <ele>1809</ele>
        <time>2024-08-12T05:15:26Z</time>
      </trkpt>
      <trkpt lat="44.81476" lon="6.39063">
        <ele>1809.2</ele>
        <time>2024-08-12T05:15:27Z</time>
      </trkpt>
      <trkpt lat="44.81474" lon="6.39061">
        <ele>1809.2</ele>
        <time>2024-08-12T05:15:28Z</time>
      </trkpt>
      <trkpt lat="44.81474" lon="6.39061">
        <ele>1809.2</ele>
        <time>2024-08-12T05:15:29Z</time>
      </trkpt>
      <trkpt lat="44.81472" lon="6.3906">
        <ele>1809.2</ele>
        <time>2024-08-12T05:15:30Z</time>
      </trkpt>
      <trkpt lat="44.81472" lon="6.3906">
        <ele>1809.2</ele>
        <time>2024-08-12T05:15:31Z</time>
      </trkpt>
      <trkpt lat="44.8147" lon="6.39057">
        <ele>1809.4</ele>
        <time>2024-08-12T05:15:32Z</time>
      </trkpt>
      <trkpt lat="44.8147" lon="6.39057">
        <ele>1809.4</ele>
        <time>2024-08-12T05:15:33Z</time>
      </trkpt>
      <trkpt lat="44.81468" lon="6.39055">
        <ele>1809.4</ele>
        <time>2024-08-12T05:15:34Z</time>
      </trkpt>
      <trkpt lat="44.81468" lon="6.39055">
        <ele>1809.6</ele>
        <time>2024-08-12T05:15:35Z</time>
      </trkpt>
      <trkpt lat="44.81466" lon="6.39053">
        <ele>1809.6</ele>
        <time>2024-08-12T05:15:36Z</time>
      </trkpt>
      <trkpt lat="44.81466" lon="6.39053">
        <ele>1809.6</ele>
        <time>2024-08-12T05:15:37Z</time>
      </trkpt>
      <trkpt lat="44.81464" lon="6.39052">
        <ele>1809.6</ele>
        <time>2024-08-12T05:15:38Z</time>
      </trkpt>
      <trkpt lat="44.81464" lon="6.39052">
        <ele>1809.6</ele>
        <time>2024-08-12T05:15:39Z</time>
      </trkpt>
      <trkpt lat="44.81461" lon="6.3905">
        <ele>1809.8</ele>
        <time>2024-08-12T05:15:40Z</time>
      </trkpt>
      <trkpt lat="44.81461" lon="6.3905">
        <ele>1810</ele>
        <time>2024-08-12T05:15:41Z</time>
      </trkpt>
      <trkpt lat="44.8146" lon="6.39048">
        <ele>1810.2</ele>
        <time>2024-08-12T05:15:42Z</time>
      </trkpt>
      <trkpt lat="44.8146" lon="6.39048">
        <ele>1810.2</ele>
        <time>2024-08-12T05:15:43Z</time>
      </trkpt>
      <trkpt lat="44.81457" lon="6.39047">
        <ele>1810.2</ele>
        <time>2024-08-12T05:15:44Z</time>
      </trkpt>
      <trkpt lat="44.81457" lon="6.39047">
        <ele>1810.2</ele>
        <time>2024-08-12T05:15:45Z</time>
      </trkpt>
      <trkpt lat="44.81455" lon="6.39045">
        <ele>1810.4</ele>
        <time>2024-08-12T05:15:46Z</time>
      </trkpt>
      <trkpt lat="44.81455" lon="6.39045">
        <ele>1810.4</ele>
        <time>2024-08-12T05:15:47Z</time>
      </trkpt>
      <trkpt lat="44.81453" lon="6.39044">
        <ele>1810.4</ele>
        <time>2024-08-12T05:15:48Z</time>
      </trkpt>
      <trkpt lat="44.81453" lon="6.39044">
        <ele>1810.6</ele>
        <time>2024-08-12T05:15:49Z</time>
      </trkpt>
      <trkpt lat="44.81451" lon="6.3904">
        <ele>1810.6</ele>
        <time>2024-08-12T05:15:50Z</time>
      </trkpt>
      <trkpt lat="44.81451" lon="6.3904">
        <ele>1810.4</ele>
        <time>2024-08-12T05:15:51Z</time>
      </trkpt>
      <trkpt lat="44.8145" lon="6.39038">
        <ele>1810.4</ele>
        <time>2024-08-12T05:15:52Z</time>
      </trkpt>
      <trkpt lat="44.8145" lon="6.39038">
        <ele>1810.6</ele>
        <time>2024-08-12T05:15:53Z</time>
      </trkpt>
      <trkpt lat="44.81448" lon="6.39035">
        <ele>1811</ele>
        <time>2024-08-12T05:15:54Z</time>
      </trkpt>
      <trkpt lat="44.81448" lon="6.39035">
        <ele>1811</ele>
        <time>2024-08-12T05:15:55Z</time>
      </trkpt>
      <trkpt lat="44.81446" lon="6.39033">
        <ele>1811</ele>
        <time>2024-08-12T05:15:56Z</time>
      </trkpt>
      <trkpt lat="44.81446" lon="6.39033">
        <ele>1811</ele>
        <time>2024-08-12T05:15:57Z</time>
      </trkpt>
      <trkpt lat="44.81445" lon="6.39031">
        <ele>1811</ele>
        <time>2024-08-12T05:15:58Z</time>
      </trkpt>
      <trkpt lat="44.81445" lon="6.39031">
        <ele>1811.2</ele>
        <time>2024-08-12T05:15:59Z</time>
      </trkpt>
      <trkpt lat="44.81445" lon="6.39031">
        <ele>1811.4</ele>
        <time>2024-08-12T05:16:00Z</time>
      </trkpt>
      <trkpt lat="44.81443" lon="6.39028">
        <ele>1811.6</ele>
        <time>2024-08-12T05:16:01Z</time>
      </trkpt>
      <trkpt lat="44.81443" lon="6.39028">
        <ele>1812</ele>
        <time>2024-08-12T05:16:02Z</time>
      </trkpt>
      <trkpt lat="44.8144" lon="6.39026">
        <ele>1812</ele>
        <time>2024-08-12T05:16:03Z</time>
      </trkpt>
      <trkpt lat="44.8144" lon="6.39026">
        <ele>1812.4</ele>
        <time>2024-08-12T05:16:04Z</time>
      </trkpt>
      <trkpt lat="44.81438" lon="6.39024">
        <ele>1812.4</ele>
        <time>2024-08-12T05:16:05Z</time>
      </trkpt>
      <trkpt lat="44.81438" lon="6.39024">
        <ele>1812.4</ele>
        <time>2024-08-12T05:16:06Z</time>
      </trkpt>
      <trkpt lat="44.81437" lon="6.39022">
        <ele>1812.4</ele>
        <time>2024-08-12T05:16:07Z</time>
      </trkpt>
      <trkpt lat="44.81437" lon="6.39022">
        <ele>1812.4</ele>
        <time>2024-08-12T05:16:08Z</time>
      </trkpt>
      <trkpt lat="44.81435" lon="6.39021">
        <ele>1812.4</ele>
        <time>2024-08-12T05:16:09Z</time>
      </trkpt>
      <trkpt lat="44.81435" lon="6.39021">
        <ele>1812.6</ele>
        <time>2024-08-12T05:16:10Z</time>
      </trkpt>
      <trkpt lat="44.81433" lon="6.39019">
        <ele>1813</ele>
        <time>2024-08-12T05:16:11Z</time>
      </trkpt>
      <trkpt lat="44.81433" lon="6.39019">
        <ele>1813</ele>
        <time>2024-08-12T05:16:12Z</time>
      </trkpt>
      <trkpt lat="44.81431" lon="6.39018">
        <ele>1813</ele>
        <time>2024-08-12T05:16:13Z</time>
      </trkpt>
      <trkpt lat="44.81431" lon="6.39018">
        <ele>1813</ele>
        <time>2024-08-12T05:16:14Z</time>
      </trkpt>
      <trkpt lat="44.8143" lon="6.39015">
        <ele>1813</ele>
        <time>2024-08-12T05:16:15Z</time>
      </trkpt>
      <trkpt lat="44.8143" lon="6.39015">
        <ele>1813.2</ele>
        <time>2024-08-12T05:16:16Z</time>
      </trkpt>
      <trkpt lat="44.81428" lon="6.39013">
        <ele>1813.2</ele>
        <time>2024-08-12T05:16:17Z</time>
      </trkpt>
      <trkpt lat="44.81428" lon="6.39013">
        <ele>1813.2</ele>
        <time>2024-08-12T05:16:18Z</time>
      </trkpt>
      <trkpt lat="44.81428" lon="6.39013">
        <ele>1813.2</ele>
        <time>2024-08-12T05:16:19Z</time>
      </trkpt>
      <trkpt lat="44.81426" lon="6.3901">
        <ele>1813.8</ele>
        <time>2024-08-12T05:16:20Z</time>
      </trkpt>
      <trkpt lat="44.81426" lon="6.3901">
        <ele>1814</ele>
        <time>2024-08-12T05:16:21Z</time>
      </trkpt>
      <trkpt lat="44.81425" lon="6.39008">
        <ele>1814</ele>
        <time>2024-08-12T05:16:22Z</time>
      </trkpt>
      <trkpt lat="44.81425" lon="6.39008">
        <ele>1814</ele>
        <time>2024-08-12T05:16:23Z</time>
      </trkpt>
      <trkpt lat="44.81425" lon="6.39008">
        <ele>1814</ele>
        <time>2024-08-12T05:16:24Z</time>
      </trkpt>
      <trkpt lat="44.81423" lon="6.39005">
        <ele>1814.4</ele>
        <time>2024-08-12T05:16:25Z</time>
      </trkpt>
      <trkpt lat="44.81423" lon="6.39005">
        <ele>1814.4</ele>
        <time>2024-08-12T05:16:26Z</time>
      </trkpt>
      <trkpt lat="44.81423" lon="6.39005">
        <ele>1814.6</ele>
        <time>2024-08-12T05:16:27Z</time>
      </trkpt>
      <trkpt lat="44.81421" lon="6.39002">
        <ele>1814.6</ele>
        <time>2024-08-12T05:16:28Z</time>
      </trkpt>
      <trkpt lat="44.81421" lon="6.39002">
        <ele>1814.8</ele>
        <time>2024-08-12T05:16:29Z</time>
      </trkpt>
      <trkpt lat="44.81421" lon="6.39002">
        <ele>1814.8</ele>
        <time>2024-08-12T05:16:30Z</time>
      </trkpt>
      <trkpt lat="44.81419" lon="6.38999">
        <ele>1815</ele>
        <time>2024-08-12T05:16:31Z</time>
      </trkpt>
      <trkpt lat="44.81419" lon="6.38999">
        <ele>1815</ele>
        <time>2024-08-12T05:16:32Z</time>
      </trkpt>
      <trkpt lat="44.81419" lon="6.38999">
        <ele>1815</ele>
        <time>2024-08-12T05:16:33Z</time>
      </trkpt>
      <trkpt lat="44.81417" lon="6.38998">
        <ele>1815.2</ele>
        <time>2024-08-12T05:16:34Z</time>
      </trkpt>
      <trkpt lat="44.81417" lon="6.38998">
        <ele>1815.6</ele>
        <time>2024-08-12T05:16:35Z</time>
      </trkpt>
      <trkpt lat="44.81415" lon="6.38997">
        <ele>1815.6</ele>
        <time>2024-08-12T05:16:36Z</time>
      </trkpt>
      <trkpt lat="44.81415" lon="6.38997">
        <ele>1815.8</ele>
        <time>2024-08-12T05:16:37Z</time>
      </trkpt>
      <trkpt lat="44.81415" lon="6.38997">
        <ele>1816.2</ele>
        <time>2024-08-12T05:16:38Z</time>
      </trkpt>
      <trkpt lat="44.81413" lon="6.38995">
        <ele>1816.4</ele>
        <time>2024-08-12T05:16:39Z</time>
      </trkpt>
      <trkpt lat="44.81413" lon="6.38995">
        <ele>1816.4</ele>
        <time>2024-08-12T05:16:40Z</time>
      </trkpt>
      <trkpt lat="44.81413" lon="6.38995">
        <ele>1816.8</ele>
        <time>2024-08-12T05:16:41Z</time>
      </trkpt>
      <trkpt lat="44.81412" lon="6.38993">
        <ele>1817</ele>
        <time>2024-08-12T05:16:42Z</time>
      </trkpt>
      <trkpt lat="44.81412" lon="6.38993">
        <ele>1817</ele>
        <time>2024-08-12T05:16:43Z</time>
      </trkpt>
      <trkpt lat="44.81412" lon="6.38993">
        <ele>1817.2</ele>
        <time>2024-08-12T05:16:44Z</time>
      </trkpt>
      <trkpt lat="44.81409" lon="6.38991">
        <ele>1817.4</ele>
        <time>2024-08-12T05:16:45Z</time>
      </trkpt>
      <trkpt lat="44.81409" lon="6.38991">
        <ele>1817.6</ele>
        <time>2024-08-12T05:16:46Z</time>
      </trkpt>
      <trkpt lat="44.81409" lon="6.38991">
        <ele>1817.8</ele>
        <time>2024-08-12T05:16:47Z</time>
      </trkpt>
      <trkpt lat="44.81409" lon="6.38991">
        <ele>1818</ele>
        <time>2024-08-12T05:16:48Z</time>
      </trkpt>
      <trkpt lat="44.81409" lon="6.38991">
        <ele>1818.2</ele>
        <time>2024-08-12T05:16:49Z</time>
      </trkpt>
      <trkpt lat="44.81407" lon="6.38989">
        <ele>1818.4</ele>
        <time>2024-08-12T05:16:50Z</time>
      </trkpt>
      <trkpt lat="44.81407" lon="6.38989">
        <ele>1818.6</ele>
        <time>2024-08-12T05:16:51Z</time>
      </trkpt>
      <trkpt lat="44.81407" lon="6.38989">
        <ele>1819</ele>
        <time>2024-08-12T05:16:52Z</time>
      </trkpt>
      <trkpt lat="44.81405" lon="6.38988">
        <ele>1819</ele>
        <time>2024-08-12T05:16:53Z</time>
      </trkpt>
      <trkpt lat="44.81405" lon="6.38988">
        <ele>1819.2</ele>
        <time>2024-08-12T05:16:54Z</time>
      </trkpt>
      <trkpt lat="44.81405" lon="6.38988">
        <ele>1819.8</ele>
        <time>2024-08-12T05:16:55Z</time>
      </trkpt>
      <trkpt lat="44.81403" lon="6.38986">
        <ele>1819.8</ele>
        <time>2024-08-12T05:16:56Z</time>
      </trkpt>
      <trkpt lat="44.81403" lon="6.38986">
        <ele>1819.6</ele>
        <time>2024-08-12T05:16:57Z</time>
      </trkpt>
      <trkpt lat="44.81403" lon="6.38986">
        <ele>1819.6</ele>
        <time>2024-08-12T05:16:58Z</time>
      </trkpt>
      <trkpt lat="44.81402" lon="6.38984">
        <ele>1819.8</ele>
        <time>2024-08-12T05:16:59Z</time>
      </trkpt>
      <trkpt lat="44.81402" lon="6.38984">
        <ele>1820</ele>
        <time>2024-08-12T05:17:00Z</time>
      </trkpt>
      <trkpt lat="44.814" lon="6.38984">
        <ele>1820.4</ele>
        <time>2024-08-12T05:17:01Z</time>
      </trkpt>
      <trkpt lat="44.814" lon="6.38984">
        <ele>1820.8</ele>
        <time>2024-08-12T05:17:02Z</time>
      </trkpt>
      <trkpt lat="44.814" lon="6.38984">
        <ele>1820.8</ele>
        <time>2024-08-12T05:17:03Z</time>
      </trkpt>
      <trkpt lat="44.81398" lon="6.38982">
        <ele>1821.2</ele>
        <time>2024-08-12T05:17:04Z</time>
      </trkpt>
      <trkpt lat="44.81398" lon="6.38982">
        <ele>1821.4</ele>
        <time>2024-08-12T05:17:05Z</time>
      </trkpt>
      <trkpt lat="44.81397" lon="6.3898">
        <ele>1821.4</ele>
        <time>2024-08-12T05:17:06Z</time>
      </trkpt>
      <trkpt lat="44.81397" lon="6.3898">
        <ele>1821.4</ele>
        <time>2024-08-12T05:17:07Z</time>
      </trkpt>
      <trkpt lat="44.81395" lon="6.38979">
        <ele>1821.8</ele>
        <time>2024-08-12T05:17:08Z</time>
      </trkpt>
      <trkpt lat="44.81395" lon="6.38979">
        <ele>1821.8</ele>
        <time>2024-08-12T05:17:09Z</time>
      </trkpt>
      <trkpt lat="44.81393" lon="6.38976">
        <ele>1822.2</ele>
        <time>2024-08-12T05:17:10Z</time>
      </trkpt>
      <trkpt lat="44.81393" lon="6.38976">
        <ele>1822.2</ele>
        <time>2024-08-12T05:17:11Z</time>
      </trkpt>
      <trkpt lat="44.81393" lon="6.38976">
        <ele>1822.2</ele>
        <time>2024-08-12T05:17:12Z</time>
      </trkpt>
      <trkpt lat="44.81392" lon="6.38974">
        <ele>1822.4</ele>
        <time>2024-08-12T05:17:13Z</time>
      </trkpt>
      <trkpt lat="44.81392" lon="6.38974">
        <ele>1822.6</ele>
        <time>2024-08-12T05:17:14Z</time>
      </trkpt>
      <trkpt lat="44.81391" lon="6.38972">
        <ele>1822.6</ele>
        <time>2024-08-12T05:17:15Z</time>
      </trkpt>
      <trkpt lat="44.81391" lon="6.38972">
        <ele>1822.8</ele>
        <time>2024-08-12T05:17:16Z</time>
      </trkpt>
      <trkpt lat="44.81391" lon="6.38972">
        <ele>1822.8</ele>
        <time>2024-08-12T05:17:17Z</time>
      </trkpt>
      <trkpt lat="44.8139" lon="6.38969">
        <ele>1823</ele>
        <time>2024-08-12T05:17:18Z</time>
      </trkpt>
      <trkpt lat="44.8139" lon="6.38969">
        <ele>1823.4</ele>
        <time>2024-08-12T05:17:19Z</time>
      </trkpt>
      <trkpt lat="44.8139" lon="6.38969">
        <ele>1823.4</ele>
        <time>2024-08-12T05:17:20Z</time>
      </trkpt>
      <trkpt lat="44.81388" lon="6.38966">
        <ele>1824</ele>
        <time>2024-08-12T05:17:21Z</time>
      </trkpt>
      <trkpt lat="44.81388" lon="6.38966">
        <ele>1824.2</ele>
        <time>2024-08-12T05:17:22Z</time>
      </trkpt>
      <trkpt lat="44.81388" lon="6.38966">
        <ele>1824.4</ele>
        <time>2024-08-12T05:17:23Z</time>
      </trkpt>
      <trkpt lat="44.81387" lon="6.38963">
        <ele>1824.6</ele>
        <time>2024-08-12T05:17:24Z</time>
      </trkpt>
      <trkpt lat="44.81387" lon="6.38963">
        <ele>1824.8</ele>
        <time>2024-08-12T05:17:25Z</time>
      </trkpt>
      <trkpt lat="44.81387" lon="6.38963">
        <ele>1824.8</ele>
        <time>2024-08-12T05:17:26Z</time>
      </trkpt>
      <trkpt lat="44.81385" lon="6.38961">
        <ele>1824.8</ele>
        <time>2024-08-12T05:17:27Z</time>
      </trkpt>
      <trkpt lat="44.81385" lon="6.38961">
        <ele>1825.6</ele>
        <time>2024-08-12T05:17:28Z</time>
      </trkpt>
      <trkpt lat="44.81385" lon="6.38961">
        <ele>1826</ele>
        <time>2024-08-12T05:17:29Z</time>
      </trkpt>
      <trkpt lat="44.81384" lon="6.38958">
        <ele>1826.2</ele>
        <time>2024-08-12T05:17:30Z</time>
      </trkpt>
      <trkpt lat="44.81384" lon="6.38958">
        <ele>1826.2</ele>
        <time>2024-08-12T05:17:31Z</time>
      </trkpt>
      <trkpt lat="44.81384" lon="6.38958">
        <ele>1826.6</ele>
        <time>2024-08-12T05:17:32Z</time>
      </trkpt>
      <trkpt lat="44.81383" lon="6.38955">
        <ele>1826.6</ele>
        <time>2024-08-12T05:17:33Z</time>
      </trkpt>
      <trkpt lat="44.81383" lon="6.38955">
        <ele>1826.8</ele>
        <time>2024-08-12T05:17:34Z</time>
      </trkpt>
      <trkpt lat="44.81383" lon="6.38955">
        <ele>1826.8</ele>
        <time>2024-08-12T05:17:35Z</time>
      </trkpt>
      <trkpt lat="44.81381" lon="6.38952">
        <ele>1827</ele>
        <time>2024-08-12T05:17:36Z</time>
      </trkpt>
      <trkpt lat="44.81381" lon="6.38952">
        <ele>1827</ele>
        <time>2024-08-12T05:17:37Z</time>
      </trkpt>
      <trkpt lat="44.8138" lon="6.3895">
        <ele>1827.2</ele>
        <time>2024-08-12T05:17:38Z</time>
      </trkpt>
      <trkpt lat="44.8138" lon="6.3895">
        <ele>1827.6</ele>
        <time>2024-08-12T05:17:39Z</time>
      </trkpt>
      <trkpt lat="44.81378" lon="6.38948">
        <ele>1827.8</ele>
        <time>2024-08-12T05:17:40Z</time>
      </trkpt>
      <trkpt lat="44.81378" lon="6.38948">
        <ele>1828.2</ele>
        <time>2024-08-12T05:17:41Z</time>
      </trkpt>
      <trkpt lat="44.81377" lon="6.38946">
        <ele>1828.4</ele>
        <time>2024-08-12T05:17:42Z</time>
      </trkpt>
      <trkpt lat="44.81377" lon="6.38946">
        <ele>1828.4</ele>
        <time>2024-08-12T05:17:43Z</time>
      </trkpt>
      <trkpt lat="44.81376" lon="6.38943">
        <ele>1828.4</ele>
        <time>2024-08-12T05:17:44Z</time>
      </trkpt>
      <trkpt lat="44.81376" lon="6.38943">
        <ele>1828.4</ele>
        <time>2024-08-12T05:17:45Z</time>
      </trkpt>
      <trkpt lat="44.81375" lon="6.38941">
        <ele>1828.8</ele>
        <time>2024-08-12T05:17:46Z</time>
      </trkpt>
      <trkpt lat="44.81375" lon="6.38941">
        <ele>1828.8</ele>
        <time>2024-08-12T05:17:47Z</time>
      </trkpt>
      <trkpt lat="44.81373" lon="6.38939">
        <ele>1829</ele>
        <time>2024-08-12T05:17:48Z</time>
      </trkpt>
      <trkpt lat="44.81373" lon="6.38939">
        <ele>1829.2</ele>
        <time>2024-08-12T05:17:49Z</time>
      </trkpt>
      <trkpt lat="44.81372" lon="6.38936">
        <ele>1829.2</ele>
        <time>2024-08-12T05:17:50Z</time>
      </trkpt>
      <trkpt lat="44.81372" lon="6.38936">
        <ele>1829.4</ele>
        <time>2024-08-12T05:17:51Z</time>
      </trkpt>
      <trkpt lat="44.8137" lon="6.38934">
        <ele>1829.8</ele>
        <time>2024-08-12T05:17:52Z</time>
      </trkpt>
      <trkpt lat="44.8137" lon="6.38934">
        <ele>1830</ele>
        <time>2024-08-12T05:17:53Z</time>
      </trkpt>
      <trkpt lat="44.81369" lon="6.38932">
        <ele>1830</ele>
        <time>2024-08-12T05:17:54Z</time>
      </trkpt>
      <trkpt lat="44.81369" lon="6.38932">
        <ele>1830</ele>
        <time>2024-08-12T05:17:55Z</time>
      </trkpt>
      <trkpt lat="44.81367" lon="6.38929">
        <ele>1830.4</ele>
        <time>2024-08-12T05:17:56Z</time>
      </trkpt>
      <trkpt lat="44.81367" lon="6.38929">
        <ele>1830.6</ele>
        <time>2024-08-12T05:17:57Z</time>
      </trkpt>
      <trkpt lat="44.81367" lon="6.38926">
        <ele>1830.6</ele>
        <time>2024-08-12T05:17:58Z</time>
      </trkpt>
      <trkpt lat="44.81367" lon="6.38926">
        <ele>1830.6</ele>
        <time>2024-08-12T05:17:59Z</time>
      </trkpt>
      <trkpt lat="44.81366" lon="6.38923">
        <ele>1830.8</ele>
        <time>2024-08-12T05:18:00Z</time>
      </trkpt>
      <trkpt lat="44.81366" lon="6.38923">
        <ele>1830.8</ele>
        <time>2024-08-12T05:18:01Z</time>
      </trkpt>
      <trkpt lat="44.81365" lon="6.3892">
        <ele>1831.6</ele>
        <time>2024-08-12T05:18:02Z</time>
      </trkpt>
      <trkpt lat="44.81365" lon="6.3892">
        <ele>1831.6</ele>
        <time>2024-08-12T05:18:03Z</time>
      </trkpt>
      <trkpt lat="44.81365" lon="6.38918">
        <ele>1832</ele>
        <time>2024-08-12T05:18:04Z</time>
      </trkpt>
      <trkpt lat="44.81365" lon="6.38918">
        <ele>1832.2</ele>
        <time>2024-08-12T05:18:05Z</time>
      </trkpt>
      <trkpt lat="44.81365" lon="6.38914">
        <ele>1832.2</ele>
        <time>2024-08-12T05:18:06Z</time>
      </trkpt>
      <trkpt lat="44.81365" lon="6.38914">
        <ele>1832.2</ele>
        <time>2024-08-12T05:18:07Z</time>
      </trkpt>
      <trkpt lat="44.81365" lon="6.38911">
        <ele>1832.4</ele>
        <time>2024-08-12T05:18:08Z</time>
      </trkpt>
      <trkpt lat="44.81365" lon="6.38911">
        <ele>1832.6</ele>
        <time>2024-08-12T05:18:09Z</time>
      </trkpt>
      <trkpt lat="44.81365" lon="6.38909">
        <ele>1833</ele>
        <time>2024-08-12T05:18:10Z</time>
      </trkpt>
      <trkpt lat="44.81365" lon="6.38909">
        <ele>1833.4</ele>
        <time>2024-08-12T05:18:11Z</time>
      </trkpt>
      <trkpt lat="44.81365" lon="6.38906">
        <ele>1833.6</ele>
        <time>2024-08-12T05:18:12Z</time>
      </trkpt>
      <trkpt lat="44.81365" lon="6.38906">
        <ele>1833.8</ele>
        <time>2024-08-12T05:18:13Z</time>
      </trkpt>
      <trkpt lat="44.81365" lon="6.38903">
        <ele>1833.8</ele>
        <time>2024-08-12T05:18:14Z</time>
      </trkpt>
      <trkpt lat="44.81365" lon="6.38903">
        <ele>1834.2</ele>
        <time>2024-08-12T05:18:15Z</time>
      </trkpt>
      <trkpt lat="44.81365" lon="6.389">
        <ele>1834.2</ele>
        <time>2024-08-12T05:18:16Z</time>
      </trkpt>
      <trkpt lat="44.81365" lon="6.389">
        <ele>1834.2</ele>
        <time>2024-08-12T05:18:17Z</time>
      </trkpt>
      <trkpt lat="44.81364" lon="6.38897">
        <ele>1834.2</ele>
        <time>2024-08-12T05:18:18Z</time>
      </trkpt>
      <trkpt lat="44.81364" lon="6.38897">
        <ele>1834.4</ele>
        <time>2024-08-12T05:18:19Z</time>
      </trkpt>
      <trkpt lat="44.81363" lon="6.38893">
        <ele>1834.4</ele>
        <time>2024-08-12T05:18:20Z</time>
      </trkpt>
      <trkpt lat="44.81363" lon="6.38893">
        <ele>1834.4</ele>
        <time>2024-08-12T05:18:21Z</time>
      </trkpt>
      <trkpt lat="44.81363" lon="6.38889">
        <ele>1834.6</ele>
        <time>2024-08-12T05:18:22Z</time>
      </trkpt>
      <trkpt lat="44.81363" lon="6.38889">
        <ele>1834.6</ele>
        <time>2024-08-12T05:18:23Z</time>
      </trkpt>
      <trkpt lat="44.81363" lon="6.38886">
        <ele>1834.6</ele>
        <time>2024-08-12T05:18:24Z</time>
      </trkpt>
      <trkpt lat="44.81363" lon="6.38886">
        <ele>1834.6</ele>
        <time>2024-08-12T05:18:25Z</time>
      </trkpt>
      <trkpt lat="44.81363" lon="6.38882">
        <ele>1834.6</ele>
        <time>2024-08-12T05:18:26Z</time>
      </trkpt>
      <trkpt lat="44.81363" lon="6.38882">
        <ele>1834.6</ele>
        <time>2024-08-12T05:18:27Z</time>
      </trkpt>
      <trkpt lat="44.81362" lon="6.38879">
        <ele>1834.8</ele>
        <time>2024-08-12T05:18:28Z</time>
      </trkpt>
      <trkpt lat="44.81362" lon="6.38879">
        <ele>1835</ele>
        <time>2024-08-12T05:18:29Z</time>
      </trkpt>
      <trkpt lat="44.81361" lon="6.38875">
        <ele>1835</ele>
        <time>2024-08-12T05:18:30Z</time>
      </trkpt>
      <trkpt lat="44.81361" lon="6.38875">
        <ele>1835.2</ele>
        <time>2024-08-12T05:18:31Z</time>
      </trkpt>
      <trkpt lat="44.8136" lon="6.38871">
        <ele>1835.2</ele>
        <time>2024-08-12T05:18:32Z</time>
      </trkpt>
      <trkpt lat="44.8136" lon="6.38871">
        <ele>1835</ele>
        <time>2024-08-12T05:18:33Z</time>
      </trkpt>
      <trkpt lat="44.81359" lon="6.38868">
        <ele>1835</ele>
        <time>2024-08-12T05:18:34Z</time>
      </trkpt>
      <trkpt lat="44.81359" lon="6.38868">
        <ele>1835</ele>
        <time>2024-08-12T05:18:35Z</time>
      </trkpt>
      <trkpt lat="44.81357" lon="6.38865">
        <ele>1835.2</ele>
        <time>2024-08-12T05:18:36Z</time>
      </trkpt>
      <trkpt lat="44.81357" lon="6.38865">
        <ele>1835.2</ele>
        <time>2024-08-12T05:18:37Z</time>
      </trkpt>
      <trkpt lat="44.81356" lon="6.38862">
        <ele>1835.2</ele>
        <time>2024-08-12T05:18:38Z</time>
      </trkpt>
      <trkpt lat="44.81356" lon="6.38862">
        <ele>1835.2</ele>
        <time>2024-08-12T05:18:39Z</time>
      </trkpt>
      <trkpt lat="44.81355" lon="6.38858">
        <ele>1835.2</ele>
        <time>2024-08-12T05:18:40Z</time>
      </trkpt>
      <trkpt lat="44.81355" lon="6.38858">
        <ele>1835.2</ele>
        <time>2024-08-12T05:18:41Z</time>
      </trkpt>
      <trkpt lat="44.81355" lon="6.38854">
        <ele>1834.8</ele>
        <time>2024-08-12T05:18:42Z</time>
      </trkpt>
      <trkpt lat="44.81355" lon="6.38854">
        <ele>1834.6</ele>
        <time>2024-08-12T05:18:43Z</time>
      </trkpt>
      <trkpt lat="44.81354" lon="6.3885">
        <ele>1834.4</ele>
        <time>2024-08-12T05:18:44Z</time>
      </trkpt>
      <trkpt lat="44.81354" lon="6.3885">
        <ele>1834.4</ele>
        <time>2024-08-12T05:18:45Z</time>
      </trkpt>
      <trkpt lat="44.81355" lon="6.38847">
        <ele>1834.2</ele>
        <time>2024-08-12T05:18:46Z</time>
      </trkpt>
      <trkpt lat="44.81355" lon="6.38847">
        <ele>1834.2</ele>
        <time>2024-08-12T05:18:47Z</time>
      </trkpt>
      <trkpt lat="44.81354" lon="6.38843">
        <ele>1834.2</ele>
        <time>2024-08-12T05:18:48Z</time>
      </trkpt>
      <trkpt lat="44.81354" lon="6.38843">
        <ele>1834.2</ele>
        <time>2024-08-12T05:18:49Z</time>
      </trkpt>
      <trkpt lat="44.81353" lon="6.3884">
        <ele>1834.2</ele>
        <time>2024-08-12T05:18:50Z</time>
      </trkpt>
      <trkpt lat="44.81353" lon="6.3884">
        <ele>1834.2</ele>
        <time>2024-08-12T05:18:51Z</time>
      </trkpt>
      <trkpt lat="44.81353" lon="6.38836">
        <ele>1834.2</ele>
        <time>2024-08-12T05:18:52Z</time>
      </trkpt>
      <trkpt lat="44.81353" lon="6.38836">
        <ele>1834.2</ele>
        <time>2024-08-12T05:18:53Z</time>
      </trkpt>
      <trkpt lat="44.81353" lon="6.38832">
        <ele>1834.2</ele>
        <time>2024-08-12T05:18:54Z</time>
      </trkpt>
      <trkpt lat="44.81353" lon="6.38832">
        <ele>1834</ele>
        <time>2024-08-12T05:18:55Z</time>
      </trkpt>
      <trkpt lat="44.81352" lon="6.38828">
        <ele>1834</ele>
        <time>2024-08-12T05:18:56Z</time>
      </trkpt>
      <trkpt lat="44.81352" lon="6.38828">
        <ele>1833.8</ele>
        <time>2024-08-12T05:18:57Z</time>
      </trkpt>
      <trkpt lat="44.81351" lon="6.38825">
        <ele>1833.6</ele>
        <time>2024-08-12T05:18:58Z</time>
      </trkpt>
      <trkpt lat="44.81351" lon="6.38825">
        <ele>1833.6</ele>
        <time>2024-08-12T05:18:59Z</time>
      </trkpt>
      <trkpt lat="44.8135" lon="6.38821">
        <ele>1833.6</ele>
        <time>2024-08-12T05:19:00Z</time>
      </trkpt>
      <trkpt lat="44.8135" lon="6.38821">
        <ele>1833.6</ele>
        <time>2024-08-12T05:19:01Z</time>
      </trkpt>
      <trkpt lat="44.8135" lon="6.38818">
        <ele>1833.4</ele>
        <time>2024-08-12T05:19:02Z</time>
      </trkpt>
      <trkpt lat="44.8135" lon="6.38818">
        <ele>1833.4</ele>
        <time>2024-08-12T05:19:03Z</time>
      </trkpt>
      <trkpt lat="44.81349" lon="6.38815">
        <ele>1833.4</ele>
        <time>2024-08-12T05:19:04Z</time>
      </trkpt>
      <trkpt lat="44.81349" lon="6.38815">
        <ele>1833.4</ele>
        <time>2024-08-12T05:19:05Z</time>
      </trkpt>
      <trkpt lat="44.81349" lon="6.38812">
        <ele>1833.6</ele>
        <time>2024-08-12T05:19:06Z</time>
      </trkpt>
      <trkpt lat="44.81349" lon="6.38812">
        <ele>1833.6</ele>
        <time>2024-08-12T05:19:07Z</time>
      </trkpt>
      <trkpt lat="44.81347" lon="6.38808">
        <ele>1833.6</ele>
        <time>2024-08-12T05:19:08Z</time>
      </trkpt>
      <trkpt lat="44.81347" lon="6.38808">
        <ele>1833.4</ele>
        <time>2024-08-12T05:19:09Z</time>
      </trkpt>
      <trkpt lat="44.81347" lon="6.38805">
        <ele>1833.4</ele>
        <time>2024-08-12T05:19:10Z</time>
      </trkpt>
      <trkpt lat="44.81347" lon="6.38805">
        <ele>1833.4</ele>
        <time>2024-08-12T05:19:11Z</time>
      </trkpt>
      <trkpt lat="44.81346" lon="6.38801">
        <ele>1833.4</ele>
        <time>2024-08-12T05:19:12Z</time>
      </trkpt>
      <trkpt lat="44.81346" lon="6.38801">
        <ele>1833.2</ele>
        <time>2024-08-12T05:19:13Z</time>
      </trkpt>
      <trkpt lat="44.81345" lon="6.38798">
        <ele>1833.2</ele>
        <time>2024-08-12T05:19:14Z</time>
      </trkpt>
      <trkpt lat="44.81345" lon="6.38798">
        <ele>1833.2</ele>
        <time>2024-08-12T05:19:15Z</time>
      </trkpt>
      <trkpt lat="44.81344" lon="6.38794">
        <ele>1833</ele>
        <time>2024-08-12T05:19:16Z</time>
      </trkpt>
      <trkpt lat="44.81344" lon="6.38794">
        <ele>1832.8</ele>
        <time>2024-08-12T05:19:17Z</time>
      </trkpt>
      <trkpt lat="44.81343" lon="6.38792">
        <ele>1832.8</ele>
        <time>2024-08-12T05:19:18Z</time>
      </trkpt>
      <trkpt lat="44.81343" lon="6.38792">
        <ele>1832.8</ele>
        <time>2024-08-12T05:19:19Z</time>
      </trkpt>
      <trkpt lat="44.81341" lon="6.3879">
        <ele>1833</ele>
        <time>2024-08-12T05:19:20Z</time>
      </trkpt>
      <trkpt lat="44.81341" lon="6.3879">
        <ele>1833</ele>
        <time>2024-08-12T05:19:21Z</time>
      </trkpt>
      <trkpt lat="44.81339" lon="6.38788">
        <ele>1833</ele>
        <time>2024-08-12T05:19:22Z</time>
      </trkpt>
      <trkpt lat="44.81339" lon="6.38788">
        <ele>1832.8</ele>
        <time>2024-08-12T05:19:23Z</time>
      </trkpt>
      <trkpt lat="44.81337" lon="6.38785">
        <ele>1832.8</ele>
        <time>2024-08-12T05:19:24Z</time>
      </trkpt>
      <trkpt lat="44.81337" lon="6.38785">
        <ele>1832.8</ele>
        <time>2024-08-12T05:19:25Z</time>
      </trkpt>
      <trkpt lat="44.81335" lon="6.38782">
        <ele>1832.8</ele>
        <time>2024-08-12T05:19:26Z</time>
      </trkpt>
      <trkpt lat="44.81335" lon="6.38782">
        <ele>1832.8</ele>
        <time>2024-08-12T05:19:27Z</time>
      </trkpt>
      <trkpt lat="44.81333" lon="6.38779">
        <ele>1832.8</ele>
        <time>2024-08-12T05:19:28Z</time>
      </trkpt>
      <trkpt lat="44.81333" lon="6.38779">
        <ele>1832.8</ele>
        <time>2024-08-12T05:19:29Z</time>
      </trkpt>
      <trkpt lat="44.81333" lon="6.38777">
        <ele>1832.8</ele>
        <time>2024-08-12T05:19:30Z</time>
      </trkpt>
      <trkpt lat="44.81333" lon="6.38777">
        <ele>1832.6</ele>
        <time>2024-08-12T05:19:31Z</time>
      </trkpt>
      <trkpt lat="44.81331" lon="6.38774">
        <ele>1832.6</ele>
        <time>2024-08-12T05:19:32Z</time>
      </trkpt>
      <trkpt lat="44.81331" lon="6.38774">
        <ele>1832.8</ele>
        <time>2024-08-12T05:19:33Z</time>
      </trkpt>
      <trkpt lat="44.8133" lon="6.38771">
        <ele>1833</ele>
        <time>2024-08-12T05:19:34Z</time>
      </trkpt>
      <trkpt lat="44.8133" lon="6.38771">
        <ele>1833.4</ele>
        <time>2024-08-12T05:19:35Z</time>
      </trkpt>
      <trkpt lat="44.81328" lon="6.38768">
        <ele>1833.4</ele>
        <time>2024-08-12T05:19:36Z</time>
      </trkpt>
      <trkpt lat="44.81328" lon="6.38768">
        <ele>1833.4</ele>
        <time>2024-08-12T05:19:37Z</time>
      </trkpt>
      <trkpt lat="44.81326" lon="6.38766">
        <ele>1833.4</ele>
        <time>2024-08-12T05:19:38Z</time>
      </trkpt>
      <trkpt lat="44.81326" lon="6.38766">
        <ele>1833.4</ele>
        <time>2024-08-12T05:19:39Z</time>
      </trkpt>
      <trkpt lat="44.81325" lon="6.38765">
        <ele>1833.4</ele>
        <time>2024-08-12T05:19:40Z</time>
      </trkpt>
      <trkpt lat="44.81325" lon="6.38765">
        <ele>1833.6</ele>
        <time>2024-08-12T05:19:41Z</time>
      </trkpt>
      <trkpt lat="44.81323" lon="6.38762">
        <ele>1833.6</ele>
        <time>2024-08-12T05:19:42Z</time>
      </trkpt>
      <trkpt lat="44.81323" lon="6.38762">
        <ele>1833.6</ele>
        <time>2024-08-12T05:19:43Z</time>
      </trkpt>
      <trkpt lat="44.81322" lon="6.38758">
        <ele>1833.4</ele>
        <time>2024-08-12T05:19:44Z</time>
      </trkpt>
      <trkpt lat="44.81322" lon="6.38758">
        <ele>1833.2</ele>
        <time>2024-08-12T05:19:45Z</time>
      </trkpt>
      <trkpt lat="44.81321" lon="6.38755">
        <ele>1833</ele>
        <time>2024-08-12T05:19:46Z</time>
      </trkpt>
      <trkpt lat="44.81321" lon="6.38755">
        <ele>1833</ele>
        <time>2024-08-12T05:19:47Z</time>
      </trkpt>
      <trkpt lat="44.81321" lon="6.38752">
        <ele>1832.8</ele>
        <time>2024-08-12T05:19:48Z</time>
      </trkpt>
      <trkpt lat="44.81321" lon="6.38752">
        <ele>1832.8</ele>
        <time>2024-08-12T05:19:49Z</time>
      </trkpt>
      <trkpt lat="44.8132" lon="6.38749">
        <ele>1832.8</ele>
        <time>2024-08-12T05:19:50Z</time>
      </trkpt>
      <trkpt lat="44.8132" lon="6.38749">
        <ele>1833</ele>
        <time>2024-08-12T05:19:51Z</time>
      </trkpt>
      <trkpt lat="44.81319" lon="6.38747">
        <ele>1833</ele>
        <time>2024-08-12T05:19:52Z</time>
      </trkpt>
      <trkpt lat="44.81319" lon="6.38747">
        <ele>1833</ele>
        <time>2024-08-12T05:19:53Z</time>
      </trkpt>
      <trkpt lat="44.81317" lon="6.38744">
        <ele>1833</ele>
        <time>2024-08-12T05:19:54Z</time>
      </trkpt>
      <trkpt lat="44.81317" lon="6.38744">
        <ele>1833</ele>
        <time>2024-08-12T05:19:55Z</time>
      </trkpt>
      <trkpt lat="44.81317" lon="6.38741">
        <ele>1832.8</ele>
        <time>2024-08-12T05:19:56Z</time>
      </trkpt>
      <trkpt lat="44.81317" lon="6.38741">
        <ele>1832.8</ele>
        <time>2024-08-12T05:19:57Z</time>
      </trkpt>
      <trkpt lat="44.81315" lon="6.38738">
        <ele>1832.8</ele>
        <time>2024-08-12T05:19:58Z</time>
      </trkpt>
      <trkpt lat="44.81315" lon="6.38738">
        <ele>1832.8</ele>
        <time>2024-08-12T05:19:59Z</time>
      </trkpt>
      <trkpt lat="44.81314" lon="6.38735">
        <ele>1832.8</ele>
        <time>2024-08-12T05:20:00Z</time>
      </trkpt>
      <trkpt lat="44.81314" lon="6.38735">
        <ele>1832.6</ele>
        <time>2024-08-12T05:20:01Z</time>
      </trkpt>
      <trkpt lat="44.81312" lon="6.38732">
        <ele>1832</ele>
        <time>2024-08-12T05:20:02Z</time>
      </trkpt>
      <trkpt lat="44.81312" lon="6.38732">
        <ele>1832</ele>
        <time>2024-08-12T05:20:03Z</time>
      </trkpt>
      <trkpt lat="44.81311" lon="6.3873">
        <ele>1832</ele>
        <time>2024-08-12T05:20:04Z</time>
      </trkpt>
      <trkpt lat="44.81311" lon="6.3873">
        <ele>1831.6</ele>
        <time>2024-08-12T05:20:05Z</time>
      </trkpt>
      <trkpt lat="44.81309" lon="6.38726">
        <ele>1831.6</ele>
        <time>2024-08-12T05:20:06Z</time>
      </trkpt>
      <trkpt lat="44.81309" lon="6.38726">
        <ele>1831.4</ele>
        <time>2024-08-12T05:20:07Z</time>
      </trkpt>
      <trkpt lat="44.81308" lon="6.38724">
        <ele>1831.4</ele>
        <time>2024-08-12T05:20:08Z</time>
      </trkpt>
      <trkpt lat="44.81308" lon="6.38724">
        <ele>1831.6</ele>
        <time>2024-08-12T05:20:09Z</time>
      </trkpt>
      <trkpt lat="44.81306" lon="6.38721">
        <ele>1831.6</ele>
        <time>2024-08-12T05:20:10Z</time>
      </trkpt>
      <trkpt lat="44.81306" lon="6.38721">
        <ele>1831.4</ele>
        <time>2024-08-12T05:20:11Z</time>
      </trkpt>
      <trkpt lat="44.81304" lon="6.38719">
        <ele>1831.4</ele>
        <time>2024-08-12T05:20:12Z</time>
      </trkpt>
      <trkpt lat="44.81304" lon="6.38719">
        <ele>1831</ele>
        <time>2024-08-12T05:20:13Z</time>
      </trkpt>
      <trkpt lat="44.81303" lon="6.38716">
        <ele>1830.8</ele>
        <time>2024-08-12T05:20:14Z</time>
      </trkpt>
      <trkpt lat="44.81303" lon="6.38716">
        <ele>1830.8</ele>
        <time>2024-08-12T05:20:15Z</time>
      </trkpt>
      <trkpt lat="44.81301" lon="6.38713">
        <ele>1830.4</ele>
        <time>2024-08-12T05:20:16Z</time>
      </trkpt>
      <trkpt lat="44.81301" lon="6.38713">
        <ele>1830.4</ele>
        <time>2024-08-12T05:20:17Z</time>
      </trkpt>
      <trkpt lat="44.81299" lon="6.3871">
        <ele>1830.4</ele>
        <time>2024-08-12T05:20:18Z</time>
      </trkpt>
      <trkpt lat="44.81299" lon="6.3871">
        <ele>1830.4</ele>
        <time>2024-08-12T05:20:19Z</time>
      </trkpt>
      <trkpt lat="44.81297" lon="6.38707">
        <ele>1830.4</ele>
        <time>2024-08-12T05:20:20Z</time>
      </trkpt>
      <trkpt lat="44.81297" lon="6.38707">
        <ele>1830.4</ele>
        <time>2024-08-12T05:20:21Z</time>
      </trkpt>
      <trkpt lat="44.81295" lon="6.38704">
        <ele>1830.4</ele>
        <time>2024-08-12T05:20:22Z</time>
      </trkpt>
      <trkpt lat="44.81295" lon="6.38704">
        <ele>1830.2</ele>
        <time>2024-08-12T05:20:23Z</time>
      </trkpt>
      <trkpt lat="44.81294" lon="6.38701">
        <ele>1830.2</ele>
        <time>2024-08-12T05:20:24Z</time>
      </trkpt>
      <trkpt lat="44.81294" lon="6.38701">
        <ele>1830.2</ele>
        <time>2024-08-12T05:20:25Z</time>
      </trkpt>
      <trkpt lat="44.81293" lon="6.38699">
        <ele>1830.2</ele>
        <time>2024-08-12T05:20:26Z</time>
      </trkpt>
      <trkpt lat="44.81293" lon="6.38699">
        <ele>1830.4</ele>
        <time>2024-08-12T05:20:27Z</time>
      </trkpt>
      <trkpt lat="44.81292" lon="6.38696">
        <ele>1830.4</ele>
        <time>2024-08-12T05:20:28Z</time>
      </trkpt>
      <trkpt lat="44.81292" lon="6.38696">
        <ele>1830.4</ele>
        <time>2024-08-12T05:20:29Z</time>
      </trkpt>
      <trkpt lat="44.81291" lon="6.38693">
        <ele>1830.2</ele>
        <time>2024-08-12T05:20:30Z</time>
      </trkpt>
      <trkpt lat="44.81291" lon="6.38693">
        <ele>1830.2</ele>
        <time>2024-08-12T05:20:31Z</time>
      </trkpt>
      <trkpt lat="44.81289" lon="6.3869">
        <ele>1830.2</ele>
        <time>2024-08-12T05:20:32Z</time>
      </trkpt>
      <trkpt lat="44.81289" lon="6.3869">
        <ele>1830.2</ele>
        <time>2024-08-12T05:20:33Z</time>
      </trkpt>
      <trkpt lat="44.81287" lon="6.38687">
        <ele>1830</ele>
        <time>2024-08-12T05:20:34Z</time>
      </trkpt>
      <trkpt lat="44.81287" lon="6.38687">
        <ele>1829.6</ele>
        <time>2024-08-12T05:20:35Z</time>
      </trkpt>
      <trkpt lat="44.81285" lon="6.38685">
        <ele>1829.6</ele>
        <time>2024-08-12T05:20:36Z</time>
      </trkpt>
      <trkpt lat="44.81285" lon="6.38685">
        <ele>1829.6</ele>
        <time>2024-08-12T05:20:37Z</time>
      </trkpt>
      <trkpt lat="44.81283" lon="6.38682">
        <ele>1829.6</ele>
        <time>2024-08-12T05:20:38Z</time>
      </trkpt>
      <trkpt lat="44.81283" lon="6.38682">
        <ele>1829.6</ele>
        <time>2024-08-12T05:20:39Z</time>
      </trkpt>
      <trkpt lat="44.81281" lon="6.3868">
        <ele>1829.4</ele>
        <time>2024-08-12T05:20:40Z</time>
      </trkpt>
      <trkpt lat="44.81281" lon="6.3868">
        <ele>1829.4</ele>
        <time>2024-08-12T05:20:41Z</time>
      </trkpt>
      <trkpt lat="44.81279" lon="6.38677">
        <ele>1829.8</ele>
        <time>2024-08-12T05:20:42Z</time>
      </trkpt>
      <trkpt lat="44.81279" lon="6.38677">
        <ele>1829.8</ele>
        <time>2024-08-12T05:20:43Z</time>
      </trkpt>
      <trkpt lat="44.81278" lon="6.38674">
        <ele>1829.6</ele>
        <time>2024-08-12T05:20:44Z</time>
      </trkpt>
      <trkpt lat="44.81278" lon="6.38674">
        <ele>1829.6</ele>
        <time>2024-08-12T05:20:45Z</time>
      </trkpt>
      <trkpt lat="44.81277" lon="6.38671">
        <ele>1829.6</ele>
        <time>2024-08-12T05:20:46Z</time>
      </trkpt>
      <trkpt lat="44.81277" lon="6.38671">
        <ele>1829.6</ele>
        <time>2024-08-12T05:20:47Z</time>
      </trkpt>
      <trkpt lat="44.81275" lon="6.38668">
        <ele>1829.8</ele>
        <time>2024-08-12T05:20:48Z</time>
      </trkpt>
      <trkpt lat="44.81275" lon="6.38668">
        <ele>1829.8</ele>
        <time>2024-08-12T05:20:49Z</time>
      </trkpt>
      <trkpt lat="44.81274" lon="6.38665">
        <ele>1829.8</ele>
        <time>2024-08-12T05:20:50Z</time>
      </trkpt>
      <trkpt lat="44.81274" lon="6.38665">
        <ele>1830</ele>
        <time>2024-08-12T05:20:51Z</time>
      </trkpt>
      <trkpt lat="44.81272" lon="6.38662">
        <ele>1830</ele>
        <time>2024-08-12T05:20:52Z</time>
      </trkpt>
      <trkpt lat="44.81272" lon="6.38662">
        <ele>1830</ele>
        <time>2024-08-12T05:20:53Z</time>
      </trkpt>
      <trkpt lat="44.81271" lon="6.3866">
        <ele>1830</ele>
        <time>2024-08-12T05:20:54Z</time>
      </trkpt>
      <trkpt lat="44.81271" lon="6.3866">
        <ele>1830</ele>
        <time>2024-08-12T05:20:55Z</time>
      </trkpt>
      <trkpt lat="44.81269" lon="6.38658">
        <ele>1830.2</ele>
        <time>2024-08-12T05:20:56Z</time>
      </trkpt>
      <trkpt lat="44.81269" lon="6.38658">
        <ele>1830.2</ele>
        <time>2024-08-12T05:20:57Z</time>
      </trkpt>
      <trkpt lat="44.81267" lon="6.38657">
        <ele>1830.4</ele>
        <time>2024-08-12T05:20:58Z</time>
      </trkpt>
      <trkpt lat="44.81267" lon="6.38657">
        <ele>1830.6</ele>
        <time>2024-08-12T05:20:59Z</time>
      </trkpt>
      <trkpt lat="44.81265" lon="6.38656">
        <ele>1830.8</ele>
        <time>2024-08-12T05:21:00Z</time>
      </trkpt>
      <trkpt lat="44.81265" lon="6.38656">
        <ele>1830.8</ele>
        <time>2024-08-12T05:21:01Z</time>
      </trkpt>
      <trkpt lat="44.81262" lon="6.38654">
        <ele>1830.8</ele>
        <time>2024-08-12T05:21:02Z</time>
      </trkpt>
      <trkpt lat="44.81262" lon="6.38654">
        <ele>1830.8</ele>
        <time>2024-08-12T05:21:03Z</time>
      </trkpt>
      <trkpt lat="44.8126" lon="6.38652">
        <ele>1831</ele>
        <time>2024-08-12T05:21:04Z</time>
      </trkpt>
      <trkpt lat="44.8126" lon="6.38652">
        <ele>1831.4</ele>
        <time>2024-08-12T05:21:05Z</time>
      </trkpt>
      <trkpt lat="44.81259" lon="6.38649">
        <ele>1831.4</ele>
        <time>2024-08-12T05:21:06Z</time>
      </trkpt>
      <trkpt lat="44.81259" lon="6.38649">
        <ele>1831.4</ele>
        <time>2024-08-12T05:21:07Z</time>
      </trkpt>
      <trkpt lat="44.81258" lon="6.38646">
        <ele>1831.4</ele>
        <time>2024-08-12T05:21:08Z</time>
      </trkpt>
      <trkpt lat="44.81258" lon="6.38646">
        <ele>1831.4</ele>
        <time>2024-08-12T05:21:09Z</time>
      </trkpt>
      <trkpt lat="44.81257" lon="6.38643">
        <ele>1831.4</ele>
        <time>2024-08-12T05:21:10Z</time>
      </trkpt>
      <trkpt lat="44.81257" lon="6.38643">
        <ele>1831.6</ele>
        <time>2024-08-12T05:21:11Z</time>
      </trkpt>
      <trkpt lat="44.81255" lon="6.38641">
        <ele>1831.8</ele>
        <time>2024-08-12T05:21:12Z</time>
      </trkpt>
      <trkpt lat="44.81255" lon="6.38641">
        <ele>1832</ele>
        <time>2024-08-12T05:21:13Z</time>
      </trkpt>
      <trkpt lat="44.81253" lon="6.38639">
        <ele>1832</ele>
        <time>2024-08-12T05:21:14Z</time>
      </trkpt>
      <trkpt lat="44.81253" lon="6.38639">
        <ele>1832</ele>
        <time>2024-08-12T05:21:15Z</time>
      </trkpt>
      <trkpt lat="44.81251" lon="6.38637">
        <ele>1832.4</ele>
        <time>2024-08-12T05:21:16Z</time>
      </trkpt>
      <trkpt lat="44.81251" lon="6.38637">
        <ele>1832.4</ele>
        <time>2024-08-12T05:21:17Z</time>
      </trkpt>
      <trkpt lat="44.8125" lon="6.38634">
        <ele>1832.4</ele>
        <time>2024-08-12T05:21:18Z</time>
      </trkpt>
      <trkpt lat="44.8125" lon="6.38634">
        <ele>1832.4</ele>
        <time>2024-08-12T05:21:19Z</time>
      </trkpt>
      <trkpt lat="44.81248" lon="6.38631">
        <ele>1832.6</ele>
        <time>2024-08-12T05:21:20Z</time>
      </trkpt>
      <trkpt lat="44.81248" lon="6.38631">
        <ele>1832.6</ele>
        <time>2024-08-12T05:21:21Z</time>
      </trkpt>
      <trkpt lat="44.81247" lon="6.38628">
        <ele>1832.6</ele>
        <time>2024-08-12T05:21:22Z</time>
      </trkpt>
      <trkpt lat="44.81247" lon="6.38628">
        <ele>1832.6</ele>
        <time>2024-08-12T05:21:23Z</time>
      </trkpt>
      <trkpt lat="44.81245" lon="6.38625">
        <ele>1832.6</ele>
        <time>2024-08-12T05:21:24Z</time>
      </trkpt>
      <trkpt lat="44.81245" lon="6.38625">
        <ele>1832.6</ele>
        <time>2024-08-12T05:21:25Z</time>
      </trkpt>
      <trkpt lat="44.81245" lon="6.38625">
        <ele>1832.8</ele>
        <time>2024-08-12T05:21:26Z</time>
      </trkpt>
      <trkpt lat="44.81245" lon="6.38622">
        <ele>1833.4</ele>
        <time>2024-08-12T05:21:27Z</time>
      </trkpt>
      <trkpt lat="44.81245" lon="6.38622">
        <ele>1833.4</ele>
        <time>2024-08-12T05:21:28Z</time>
      </trkpt>
      <trkpt lat="44.81245" lon="6.38619">
        <ele>1833.8</ele>
        <time>2024-08-12T05:21:29Z</time>
      </trkpt>
      <trkpt lat="44.81245" lon="6.38619">
        <ele>1834</ele>
        <time>2024-08-12T05:21:30Z</time>
      </trkpt>
      <trkpt lat="44.81242" lon="6.38617">
        <ele>1834.2</ele>
        <time>2024-08-12T05:21:31Z</time>
      </trkpt>
      <trkpt lat="44.81242" lon="6.38617">
        <ele>1834.2</ele>
        <time>2024-08-12T05:21:32Z</time>
      </trkpt>
      <trkpt lat="44.8124" lon="6.38615">
        <ele>1834.2</ele>
        <time>2024-08-12T05:21:33Z</time>
      </trkpt>
      <trkpt lat="44.8124" lon="6.38615">
        <ele>1834</ele>
        <time>2024-08-12T05:21:34Z</time>
      </trkpt>
      <trkpt lat="44.81238" lon="6.38614">
        <ele>1833.8</ele>
        <time>2024-08-12T05:21:35Z</time>
      </trkpt>
      <trkpt lat="44.81238" lon="6.38614">
        <ele>1833.8</ele>
        <time>2024-08-12T05:21:36Z</time>
      </trkpt>
      <trkpt lat="44.81236" lon="6.38611">
        <ele>1833.8</ele>
        <time>2024-08-12T05:21:37Z</time>
      </trkpt>
      <trkpt lat="44.81236" lon="6.38611">
        <ele>1833.8</ele>
        <time>2024-08-12T05:21:38Z</time>
      </trkpt>
      <trkpt lat="44.81235" lon="6.38608">
        <ele>1833.6</ele>
        <time>2024-08-12T05:21:39Z</time>
      </trkpt>
      <trkpt lat="44.81235" lon="6.38608">
        <ele>1833.6</ele>
        <time>2024-08-12T05:21:40Z</time>
      </trkpt>
      <trkpt lat="44.81233" lon="6.38606">
        <ele>1833.4</ele>
        <time>2024-08-12T05:21:41Z</time>
      </trkpt>
      <trkpt lat="44.81233" lon="6.38606">
        <ele>1833.4</ele>
        <time>2024-08-12T05:21:42Z</time>
      </trkpt>
      <trkpt lat="44.81232" lon="6.38604">
        <ele>1833.4</ele>
        <time>2024-08-12T05:21:43Z</time>
      </trkpt>
      <trkpt lat="44.81232" lon="6.38604">
        <ele>1834</ele>
        <time>2024-08-12T05:21:44Z</time>
      </trkpt>
      <trkpt lat="44.81229" lon="6.38603">
        <ele>1834</ele>
        <time>2024-08-12T05:21:45Z</time>
      </trkpt>
      <trkpt lat="44.81229" lon="6.38603">
        <ele>1834</ele>
        <time>2024-08-12T05:21:46Z</time>
      </trkpt>
      <trkpt lat="44.81227" lon="6.38602">
        <ele>1834</ele>
        <time>2024-08-12T05:21:47Z</time>
      </trkpt>
      <trkpt lat="44.81227" lon="6.38602">
        <ele>1834.2</ele>
        <time>2024-08-12T05:21:48Z</time>
      </trkpt>
      <trkpt lat="44.81225" lon="6.38601">
        <ele>1834.2</ele>
        <time>2024-08-12T05:21:49Z</time>
      </trkpt>
      <trkpt lat="44.81225" lon="6.38601">
        <ele>1834.2</ele>
        <time>2024-08-12T05:21:50Z</time>
      </trkpt>
      <trkpt lat="44.81223" lon="6.38598">
        <ele>1834.2</ele>
        <time>2024-08-12T05:21:51Z</time>
      </trkpt>
      <trkpt lat="44.81223" lon="6.38598">
        <ele>1834.2</ele>
        <time>2024-08-12T05:21:52Z</time>
      </trkpt>
      <trkpt lat="44.81222" lon="6.38595">
        <ele>1834</ele>
        <time>2024-08-12T05:21:53Z</time>
      </trkpt>
      <trkpt lat="44.81222" lon="6.38595">
        <ele>1834</ele>
        <time>2024-08-12T05:21:54Z</time>
      </trkpt>
      <trkpt lat="44.81221" lon="6.38592">
        <ele>1834.2</ele>
        <time>2024-08-12T05:21:55Z</time>
      </trkpt>
      <trkpt lat="44.81221" lon="6.38592">
        <ele>1834.6</ele>
        <time>2024-08-12T05:21:56Z</time>
      </trkpt>
      <trkpt lat="44.8122" lon="6.38589">
        <ele>1834.6</ele>
        <time>2024-08-12T05:21:57Z</time>
      </trkpt>
      <trkpt lat="44.8122" lon="6.38589">
        <ele>1834.6</ele>
        <time>2024-08-12T05:21:58Z</time>
      </trkpt>
      <trkpt lat="44.81218" lon="6.38587">
        <ele>1834.6</ele>
        <time>2024-08-12T05:21:59Z</time>
      </trkpt>
      <trkpt lat="44.81218" lon="6.38587">
        <ele>1834.8</ele>
        <time>2024-08-12T05:22:00Z</time>
      </trkpt>
      <trkpt lat="44.81217" lon="6.38584">
        <ele>1834.8</ele>
        <time>2024-08-12T05:22:01Z</time>
      </trkpt>
      <trkpt lat="44.81217" lon="6.38584">
        <ele>1835</ele>
        <time>2024-08-12T05:22:02Z</time>
      </trkpt>
      <trkpt lat="44.81215" lon="6.38581">
        <ele>1835</ele>
        <time>2024-08-12T05:22:03Z</time>
      </trkpt>
      <trkpt lat="44.81215" lon="6.38581">
        <ele>1835</ele>
        <time>2024-08-12T05:22:04Z</time>
      </trkpt>
      <trkpt lat="44.81214" lon="6.38579">
        <ele>1835</ele>
        <time>2024-08-12T05:22:05Z</time>
      </trkpt>
      <trkpt lat="44.81214" lon="6.38579">
        <ele>1834.8</ele>
        <time>2024-08-12T05:22:06Z</time>
      </trkpt>
      <trkpt lat="44.81212" lon="6.38577">
        <ele>1834.8</ele>
        <time>2024-08-12T05:22:07Z</time>
      </trkpt>
      <trkpt lat="44.81212" lon="6.38577">
        <ele>1834.8</ele>
        <time>2024-08-12T05:22:08Z</time>
      </trkpt>
      <trkpt lat="44.81212" lon="6.38577">
        <ele>1835</ele>
        <time>2024-08-12T05:22:09Z</time>
      </trkpt>
      <trkpt lat="44.81211" lon="6.38575">
        <ele>1835.2</ele>
        <time>2024-08-12T05:22:10Z</time>
      </trkpt>
      <trkpt lat="44.81211" lon="6.38575">
        <ele>1835.2</ele>
        <time>2024-08-12T05:22:11Z</time>
      </trkpt>
      <trkpt lat="44.8121" lon="6.38573">
        <ele>1835.6</ele>
        <time>2024-08-12T05:22:12Z</time>
      </trkpt>
      <trkpt lat="44.8121" lon="6.38573">
        <ele>1835.6</ele>
        <time>2024-08-12T05:22:13Z</time>
      </trkpt>
      <trkpt lat="44.81209" lon="6.3857">
        <ele>1835.8</ele>
        <time>2024-08-12T05:22:14Z</time>
      </trkpt>
      <trkpt lat="44.81209" lon="6.3857">
        <ele>1835.8</ele>
        <time>2024-08-12T05:22:15Z</time>
      </trkpt>
      <trkpt lat="44.81208" lon="6.38568">
        <ele>1835.8</ele>
        <time>2024-08-12T05:22:16Z</time>
      </trkpt>
      <trkpt lat="44.81208" lon="6.38568">
        <ele>1835.8</ele>
        <time>2024-08-12T05:22:17Z</time>
      </trkpt>
      <trkpt lat="44.81208" lon="6.38568">
        <ele>1835.8</ele>
        <time>2024-08-12T05:22:18Z</time>
      </trkpt>
      <trkpt lat="44.81207" lon="6.38565">
        <ele>1835.8</ele>
        <time>2024-08-12T05:22:19Z</time>
      </trkpt>
      <trkpt lat="44.81207" lon="6.38565">
        <ele>1835.6</ele>
        <time>2024-08-12T05:22:20Z</time>
      </trkpt>
      <trkpt lat="44.81206" lon="6.38563">
        <ele>1835.6</ele>
        <time>2024-08-12T05:22:21Z</time>
      </trkpt>
      <trkpt lat="44.81206" lon="6.38563">
        <ele>1835.6</ele>
        <time>2024-08-12T05:22:22Z</time>
      </trkpt>
      <trkpt lat="44.81205" lon="6.38561">
        <ele>1835.2</ele>
        <time>2024-08-12T05:22:23Z</time>
      </trkpt>
      <trkpt lat="44.81205" lon="6.38561">
        <ele>1835.2</ele>
        <time>2024-08-12T05:22:24Z</time>
      </trkpt>
      <trkpt lat="44.81205" lon="6.38561">
        <ele>1835.2</ele>
        <time>2024-08-12T05:22:25Z</time>
      </trkpt>
      <trkpt lat="44.81203" lon="6.38558">
        <ele>1835.2</ele>
        <time>2024-08-12T05:22:26Z</time>
      </trkpt>
      <trkpt lat="44.81203" lon="6.38558">
        <ele>1834.8</ele>
        <time>2024-08-12T05:22:27Z</time>
      </trkpt>
      <trkpt lat="44.81201" lon="6.38556">
        <ele>1834.8</ele>
        <time>2024-08-12T05:22:28Z</time>
      </trkpt>
      <trkpt lat="44.81201" lon="6.38556">
        <ele>1834.8</ele>
        <time>2024-08-12T05:22:29Z</time>
      </trkpt>
      <trkpt lat="44.812" lon="6.38555">
        <ele>1834.8</ele>
        <time>2024-08-12T05:22:30Z</time>
      </trkpt>
      <trkpt lat="44.812" lon="6.38555">
        <ele>1835.2</ele>
        <time>2024-08-12T05:22:31Z</time>
      </trkpt>
      <trkpt lat="44.81198" lon="6.38552">
        <ele>1835.2</ele>
        <time>2024-08-12T05:22:32Z</time>
      </trkpt>
      <trkpt lat="44.81198" lon="6.38552">
        <ele>1835.2</ele>
        <time>2024-08-12T05:22:33Z</time>
      </trkpt>
      <trkpt lat="44.81198" lon="6.38549">
        <ele>1835.2</ele>
        <time>2024-08-12T05:22:34Z</time>
      </trkpt>
      <trkpt lat="44.81198" lon="6.38549">
        <ele>1835.2</ele>
        <time>2024-08-12T05:22:35Z</time>
      </trkpt>
      <trkpt lat="44.81197" lon="6.38547">
        <ele>1835.2</ele>
        <time>2024-08-12T05:22:36Z</time>
      </trkpt>
      <trkpt lat="44.81197" lon="6.38547">
        <ele>1835.2</ele>
        <time>2024-08-12T05:22:37Z</time>
      </trkpt>
      <trkpt lat="44.81196" lon="6.38545">
        <ele>1835.6</ele>
        <time>2024-08-12T05:22:38Z</time>
      </trkpt>
      <trkpt lat="44.81196" lon="6.38545">
        <ele>1835.6</ele>
        <time>2024-08-12T05:22:39Z</time>
      </trkpt>
      <trkpt lat="44.81196" lon="6.38545">
        <ele>1835.8</ele>
        <time>2024-08-12T05:22:40Z</time>
      </trkpt>
      <trkpt lat="44.81193" lon="6.38544">
        <ele>1835.6</ele>
        <time>2024-08-12T05:22:41Z</time>
      </trkpt>
      <trkpt lat="44.81193" lon="6.38544">
        <ele>1835.6</ele>
        <time>2024-08-12T05:22:42Z</time>
      </trkpt>
      <trkpt lat="44.81192" lon="6.38542">
        <ele>1835.2</ele>
        <time>2024-08-12T05:22:43Z</time>
      </trkpt>
      <trkpt lat="44.81192" lon="6.38542">
        <ele>1834.8</ele>
        <time>2024-08-12T05:22:44Z</time>
      </trkpt>
      <trkpt lat="44.8119" lon="6.3854">
        <ele>1834.4</ele>
        <time>2024-08-12T05:22:45Z</time>
      </trkpt>
      <trkpt lat="44.8119" lon="6.3854">
        <ele>1834.2</ele>
        <time>2024-08-12T05:22:46Z</time>
      </trkpt>
      <trkpt lat="44.8119" lon="6.3854">
        <ele>1834</ele>
        <time>2024-08-12T05:22:47Z</time>
      </trkpt>
      <trkpt lat="44.81188" lon="6.38538">
        <ele>1834</ele>
        <time>2024-08-12T05:22:48Z</time>
      </trkpt>
      <trkpt lat="44.81188" lon="6.38538">
        <ele>1833.6</ele>
        <time>2024-08-12T05:22:49Z</time>
      </trkpt>
      <trkpt lat="44.81186" lon="6.38537">
        <ele>1833.4</ele>
        <time>2024-08-12T05:22:50Z</time>
      </trkpt>
      <trkpt lat="44.81186" lon="6.38537">
        <ele>1833.4</ele>
        <time>2024-08-12T05:22:51Z</time>
      </trkpt>
      <trkpt lat="44.81185" lon="6.38534">
        <ele>1833</ele>
        <time>2024-08-12T05:22:52Z</time>
      </trkpt>
      <trkpt lat="44.81185" lon="6.38534">
        <ele>1832.6</ele>
        <time>2024-08-12T05:22:53Z</time>
      </trkpt>
      <trkpt lat="44.81183" lon="6.38532">
        <ele>1832.6</ele>
        <time>2024-08-12T05:22:54Z</time>
      </trkpt>
      <trkpt lat="44.81183" lon="6.38532">
        <ele>1832.4</ele>
        <time>2024-08-12T05:22:55Z</time>
      </trkpt>
      <trkpt lat="44.81181" lon="6.3853">
        <ele>1832.2</ele>
        <time>2024-08-12T05:22:56Z</time>
      </trkpt>
      <trkpt lat="44.81181" lon="6.3853">
        <ele>1832.2</ele>
        <time>2024-08-12T05:22:57Z</time>
      </trkpt>
      <trkpt lat="44.81179" lon="6.38528">
        <ele>1832</ele>
        <time>2024-08-12T05:22:58Z</time>
      </trkpt>
      <trkpt lat="44.81179" lon="6.38528">
        <ele>1831.8</ele>
        <time>2024-08-12T05:22:59Z</time>
      </trkpt>
      <trkpt lat="44.81176" lon="6.38526">
        <ele>1831.6</ele>
        <time>2024-08-12T05:23:00Z</time>
      </trkpt>
      <trkpt lat="44.81176" lon="6.38526">
        <ele>1831.6</ele>
        <time>2024-08-12T05:23:01Z</time>
      </trkpt>
      <trkpt lat="44.81174" lon="6.38524">
        <ele>1831.2</ele>
        <time>2024-08-12T05:23:02Z</time>
      </trkpt>
      <trkpt lat="44.81174" lon="6.38524">
        <ele>1831.4</ele>
        <time>2024-08-12T05:23:03Z</time>
      </trkpt>
      <trkpt lat="44.81173" lon="6.38521">
        <ele>1831.4</ele>
        <time>2024-08-12T05:23:04Z</time>
      </trkpt>
      <trkpt lat="44.81173" lon="6.38521">
        <ele>1831.2</ele>
        <time>2024-08-12T05:23:05Z</time>
      </trkpt>
      <trkpt lat="44.81173" lon="6.38521">
        <ele>1831.2</ele>
        <time>2024-08-12T05:23:06Z</time>
      </trkpt>
      <trkpt lat="44.81171" lon="6.38519">
        <ele>1831.4</ele>
        <time>2024-08-12T05:23:07Z</time>
      </trkpt>
      <trkpt lat="44.81171" lon="6.38519">
        <ele>1831.6</ele>
        <time>2024-08-12T05:23:08Z</time>
      </trkpt>
      <trkpt lat="44.81169" lon="6.38518">
        <ele>1831.8</ele>
        <time>2024-08-12T05:23:09Z</time>
      </trkpt>
      <trkpt lat="44.81169" lon="6.38518">
        <ele>1831.8</ele>
        <time>2024-08-12T05:23:10Z</time>
      </trkpt>
      <trkpt lat="44.81167" lon="6.38517">
        <ele>1831.8</ele>
        <time>2024-08-12T05:23:11Z</time>
      </trkpt>
      <trkpt lat="44.81167" lon="6.38517">
        <ele>1832</ele>
        <time>2024-08-12T05:23:12Z</time>
      </trkpt>
      <trkpt lat="44.81164" lon="6.38516">
        <ele>1832</ele>
        <time>2024-08-12T05:23:13Z</time>
      </trkpt>
      <trkpt lat="44.81164" lon="6.38516">
        <ele>1832</ele>
        <time>2024-08-12T05:23:14Z</time>
      </trkpt>
      <trkpt lat="44.81162" lon="6.38515">
        <ele>1832</ele>
        <time>2024-08-12T05:23:15Z</time>
      </trkpt>
      <trkpt lat="44.81162" lon="6.38515">
        <ele>1831.8</ele>
        <time>2024-08-12T05:23:16Z</time>
      </trkpt>
      <trkpt lat="44.81159" lon="6.38514">
        <ele>1831.8</ele>
        <time>2024-08-12T05:23:17Z</time>
      </trkpt>
      <trkpt lat="44.81159" lon="6.38514">
        <ele>1831.8</ele>
        <time>2024-08-12T05:23:18Z</time>
      </trkpt>
      <trkpt lat="44.81157" lon="6.38512">
        <ele>1832.2</ele>
        <time>2024-08-12T05:23:19Z</time>
      </trkpt>
      <trkpt lat="44.81157" lon="6.38512">
        <ele>1832.2</ele>
        <time>2024-08-12T05:23:20Z</time>
      </trkpt>
      <trkpt lat="44.81156" lon="6.3851">
        <ele>1832</ele>
        <time>2024-08-12T05:23:21Z</time>
      </trkpt>
      <trkpt lat="44.81156" lon="6.3851">
        <ele>1832.2</ele>
        <time>2024-08-12T05:23:22Z</time>
      </trkpt>
      <trkpt lat="44.81154" lon="6.38509">
        <ele>1832.2</ele>
        <time>2024-08-12T05:23:23Z</time>
      </trkpt>
      <trkpt lat="44.81154" lon="6.38509">
        <ele>1832.4</ele>
        <time>2024-08-12T05:23:24Z</time>
      </trkpt>
      <trkpt lat="44.81152" lon="6.38509">
        <ele>1832.4</ele>
        <time>2024-08-12T05:23:25Z</time>
      </trkpt>
      <trkpt lat="44.81152" lon="6.38509">
        <ele>1832.4</ele>
        <time>2024-08-12T05:23:26Z</time>
      </trkpt>
      <trkpt lat="44.81149" lon="6.38509">
        <ele>1832.6</ele>
        <time>2024-08-12T05:23:27Z</time>
      </trkpt>
      <trkpt lat="44.81149" lon="6.38509">
        <ele>1832.6</ele>
        <time>2024-08-12T05:23:28Z</time>
      </trkpt>
      <trkpt lat="44.81147" lon="6.38507">
        <ele>1832.6</ele>
        <time>2024-08-12T05:23:29Z</time>
      </trkpt>
      <trkpt lat="44.81147" lon="6.38507">
        <ele>1832.6</ele>
        <time>2024-08-12T05:23:30Z</time>
      </trkpt>
      <trkpt lat="44.81144" lon="6.38506">
        <ele>1832.6</ele>
        <time>2024-08-12T05:23:31Z</time>
      </trkpt>
      <trkpt lat="44.81144" lon="6.38506">
        <ele>1832.8</ele>
        <time>2024-08-12T05:23:32Z</time>
      </trkpt>
      <trkpt lat="44.81142" lon="6.38506">
        <ele>1832.6</ele>
        <time>2024-08-12T05:23:33Z</time>
      </trkpt>
      <trkpt lat="44.81142" lon="6.38506">
        <ele>1832.6</ele>
        <time>2024-08-12T05:23:34Z</time>
      </trkpt>
      <trkpt lat="44.81141" lon="6.38505">
        <ele>1832.6</ele>
        <time>2024-08-12T05:23:35Z</time>
      </trkpt>
      <trkpt lat="44.81141" lon="6.38505">
        <ele>1832.8</ele>
        <time>2024-08-12T05:23:36Z</time>
      </trkpt>
      <trkpt lat="44.81138" lon="6.38505">
        <ele>1832.8</ele>
        <time>2024-08-12T05:23:37Z</time>
      </trkpt>
      <trkpt lat="44.81138" lon="6.38505">
        <ele>1832.8</ele>
        <time>2024-08-12T05:23:38Z</time>
      </trkpt>
      <trkpt lat="44.81136" lon="6.38503">
        <ele>1832.8</ele>
        <time>2024-08-12T05:23:39Z</time>
      </trkpt>
      <trkpt lat="44.81136" lon="6.38503">
        <ele>1832.8</ele>
        <time>2024-08-12T05:23:40Z</time>
      </trkpt>
      <trkpt lat="44.81134" lon="6.38501">
        <ele>1832.8</ele>
        <time>2024-08-12T05:23:41Z</time>
      </trkpt>
      <trkpt lat="44.81134" lon="6.38501">
        <ele>1832.8</ele>
        <time>2024-08-12T05:23:42Z</time>
      </trkpt>
      <trkpt lat="44.81132" lon="6.38499">
        <ele>1832.8</ele>
        <time>2024-08-12T05:23:43Z</time>
      </trkpt>
      <trkpt lat="44.81132" lon="6.38499">
        <ele>1833</ele>
        <time>2024-08-12T05:23:44Z</time>
      </trkpt>
      <trkpt lat="44.81129" lon="6.38497">
        <ele>1833</ele>
        <time>2024-08-12T05:23:45Z</time>
      </trkpt>
      <trkpt lat="44.81129" lon="6.38497">
        <ele>1833</ele>
        <time>2024-08-12T05:23:46Z</time>
      </trkpt>
      <trkpt lat="44.81127" lon="6.38494">
        <ele>1833</ele>
        <time>2024-08-12T05:23:47Z</time>
      </trkpt>
      <trkpt lat="44.81127" lon="6.38494">
        <ele>1833.2</ele>
        <time>2024-08-12T05:23:48Z</time>
      </trkpt>
      <trkpt lat="44.81125" lon="6.38492">
        <ele>1833.2</ele>
        <time>2024-08-12T05:23:49Z</time>
      </trkpt>
      <trkpt lat="44.81125" lon="6.38492">
        <ele>1833.2</ele>
        <time>2024-08-12T05:23:50Z</time>
      </trkpt>
      <trkpt lat="44.81123" lon="6.38489">
        <ele>1833.2</ele>
        <time>2024-08-12T05:23:51Z</time>
      </trkpt>
      <trkpt lat="44.81123" lon="6.38489">
        <ele>1833.2</ele>
        <time>2024-08-12T05:23:52Z</time>
      </trkpt>
      <trkpt lat="44.81121" lon="6.38488">
        <ele>1833.2</ele>
        <time>2024-08-12T05:23:53Z</time>
      </trkpt>
      <trkpt lat="44.81121" lon="6.38488">
        <ele>1833.4</ele>
        <time>2024-08-12T05:23:54Z</time>
      </trkpt>
      <trkpt lat="44.81119" lon="6.38486">
        <ele>1833.4</ele>
        <time>2024-08-12T05:23:55Z</time>
      </trkpt>
      <trkpt lat="44.81119" lon="6.38486">
        <ele>1833.8</ele>
        <time>2024-08-12T05:23:56Z</time>
      </trkpt>
      <trkpt lat="44.81116" lon="6.38486">
        <ele>1833.8</ele>
        <time>2024-08-12T05:23:57Z</time>
      </trkpt>
      <trkpt lat="44.81116" lon="6.38486">
        <ele>1833.6</ele>
        <time>2024-08-12T05:23:58Z</time>
      </trkpt>
      <trkpt lat="44.81113" lon="6.38485">
        <ele>1833.4</ele>
        <time>2024-08-12T05:23:59Z</time>
      </trkpt>
      <trkpt lat="44.81113" lon="6.38485">
        <ele>1833.4</ele>
        <time>2024-08-12T05:24:00Z</time>
      </trkpt>
      <trkpt lat="44.81113" lon="6.38485">
        <ele>1833.4</ele>
        <time>2024-08-12T05:24:01Z</time>
      </trkpt>
      <trkpt lat="44.81111" lon="6.38483">
        <ele>1833.6</ele>
        <time>2024-08-12T05:24:02Z</time>
      </trkpt>
      <trkpt lat="44.81111" lon="6.38483">
        <ele>1833.6</ele>
        <time>2024-08-12T05:24:03Z</time>
      </trkpt>
      <trkpt lat="44.81109" lon="6.3848">
        <ele>1833.8</ele>
        <time>2024-08-12T05:24:04Z</time>
      </trkpt>
      <trkpt lat="44.81109" lon="6.3848">
        <ele>1833.8</ele>
        <time>2024-08-12T05:24:05Z</time>
      </trkpt>
      <trkpt lat="44.81109" lon="6.3848">
        <ele>1833.8</ele>
        <time>2024-08-12T05:24:06Z</time>
      </trkpt>
      <trkpt lat="44.81107" lon="6.38477">
        <ele>1833.8</ele>
        <time>2024-08-12T05:24:07Z</time>
      </trkpt>
      <trkpt lat="44.81107" lon="6.38477">
        <ele>1834.2</ele>
        <time>2024-08-12T05:24:08Z</time>
      </trkpt>
      <trkpt lat="44.81107" lon="6.38474">
        <ele>1834.4</ele>
        <time>2024-08-12T05:24:09Z</time>
      </trkpt>
      <trkpt lat="44.81107" lon="6.38474">
        <ele>1834.4</ele>
        <time>2024-08-12T05:24:10Z</time>
      </trkpt>
      <trkpt lat="44.81107" lon="6.38474">
        <ele>1834.4</ele>
        <time>2024-08-12T05:24:11Z</time>
      </trkpt>
      <trkpt lat="44.81106" lon="6.38471">
        <ele>1834.8</ele>
        <time>2024-08-12T05:24:12Z</time>
      </trkpt>
      <trkpt lat="44.81106" lon="6.38471">
        <ele>1835</ele>
        <time>2024-08-12T05:24:13Z</time>
      </trkpt>
      <trkpt lat="44.81105" lon="6.38468">
        <ele>1835.2</ele>
        <time>2024-08-12T05:24:14Z</time>
      </trkpt>
      <trkpt lat="44.81105" lon="6.38468">
        <ele>1835.2</ele>
        <time>2024-08-12T05:24:15Z</time>
      </trkpt>
      <trkpt lat="44.81105" lon="6.38464">
        <ele>1835.4</ele>
        <time>2024-08-12T05:24:16Z</time>
      </trkpt>
      <trkpt lat="44.81105" lon="6.38464">
        <ele>1835.4</ele>
        <time>2024-08-12T05:24:17Z</time>
      </trkpt>
      <trkpt lat="44.81105" lon="6.38461">
        <ele>1835.4</ele>
        <time>2024-08-12T05:24:18Z</time>
      </trkpt>
      <trkpt lat="44.81105" lon="6.38461">
        <ele>1835.4</ele>
        <time>2024-08-12T05:24:19Z</time>
      </trkpt>
      <trkpt lat="44.81105" lon="6.38457">
        <ele>1835.4</ele>
        <time>2024-08-12T05:24:20Z</time>
      </trkpt>
      <trkpt lat="44.81105" lon="6.38457">
        <ele>1835</ele>
        <time>2024-08-12T05:24:21Z</time>
      </trkpt>
      <trkpt lat="44.81105" lon="6.38454">
        <ele>1835</ele>
        <time>2024-08-12T05:24:22Z</time>
      </trkpt>
      <trkpt lat="44.81105" lon="6.38454">
        <ele>1835.2</ele>
        <time>2024-08-12T05:24:23Z</time>
      </trkpt>
      <trkpt lat="44.81105" lon="6.38451">
        <ele>1835.4</ele>
        <time>2024-08-12T05:24:24Z</time>
      </trkpt>
      <trkpt lat="44.81105" lon="6.38451">
        <ele>1835.4</ele>
        <time>2024-08-12T05:24:25Z</time>
      </trkpt>
      <trkpt lat="44.81105" lon="6.38447">
        <ele>1835.4</ele>
        <time>2024-08-12T05:24:26Z</time>
      </trkpt>
      <trkpt lat="44.81105" lon="6.38447">
        <ele>1835.4</ele>
        <time>2024-08-12T05:24:27Z</time>
      </trkpt>
      <trkpt lat="44.81105" lon="6.38444">
        <ele>1835.4</ele>
        <time>2024-08-12T05:24:28Z</time>
      </trkpt>
      <trkpt lat="44.81105" lon="6.38444">
        <ele>1835.4</ele>
        <time>2024-08-12T05:24:29Z</time>
      </trkpt>
      <trkpt lat="44.81106" lon="6.3844">
        <ele>1835.4</ele>
        <time>2024-08-12T05:24:30Z</time>
      </trkpt>
      <trkpt lat="44.81106" lon="6.3844">
        <ele>1835.4</ele>
        <time>2024-08-12T05:24:31Z</time>
      </trkpt>
      <trkpt lat="44.81106" lon="6.38437">
        <ele>1835.6</ele>
        <time>2024-08-12T05:24:32Z</time>
      </trkpt>
      <trkpt lat="44.81106" lon="6.38437">
        <ele>1835.8</ele>
        <time>2024-08-12T05:24:33Z</time>
      </trkpt>
      <trkpt lat="44.81107" lon="6.38434">
        <ele>1835.8</ele>
        <time>2024-08-12T05:24:34Z</time>
      </trkpt>
      <trkpt lat="44.81107" lon="6.38434">
        <ele>1835.8</ele>
        <time>2024-08-12T05:24:35Z</time>
      </trkpt>
      <trkpt lat="44.81107" lon="6.3843">
        <ele>1835.8</ele>
        <time>2024-08-12T05:24:36Z</time>
      </trkpt>
      <trkpt lat="44.81107" lon="6.3843">
        <ele>1835.6</ele>
        <time>2024-08-12T05:24:37Z</time>
      </trkpt>
      <trkpt lat="44.81107" lon="6.38426">
        <ele>1835.6</ele>
        <time>2024-08-12T05:24:38Z</time>
      </trkpt>
      <trkpt lat="44.81107" lon="6.38426">
        <ele>1835.6</ele>
        <time>2024-08-12T05:24:39Z</time>
      </trkpt>
      <trkpt lat="44.81107" lon="6.38423">
        <ele>1835.8</ele>
        <time>2024-08-12T05:24:40Z</time>
      </trkpt>
      <trkpt lat="44.81107" lon="6.38423">
        <ele>1835.8</ele>
        <time>2024-08-12T05:24:41Z</time>
      </trkpt>
      <trkpt lat="44.81107" lon="6.38419">
        <ele>1836</ele>
        <time>2024-08-12T05:24:42Z</time>
      </trkpt>
      <trkpt lat="44.81107" lon="6.38419">
        <ele>1836</ele>
        <time>2024-08-12T05:24:43Z</time>
      </trkpt>
      <trkpt lat="44.81107" lon="6.38416">
        <ele>1836</ele>
        <time>2024-08-12T05:24:44Z</time>
      </trkpt>
      <trkpt lat="44.81107" lon="6.38416">
        <ele>1836</ele>
        <time>2024-08-12T05:24:45Z</time>
      </trkpt>
      <trkpt lat="44.81107" lon="6.38413">
        <ele>1835.8</ele>
        <time>2024-08-12T05:24:46Z</time>
      </trkpt>
      <trkpt lat="44.81107" lon="6.38413">
        <ele>1835.8</ele>
        <time>2024-08-12T05:24:47Z</time>
      </trkpt>
      <trkpt lat="44.81106" lon="6.38409">
        <ele>1835.8</ele>
        <time>2024-08-12T05:24:48Z</time>
      </trkpt>
      <trkpt lat="44.81106" lon="6.38409">
        <ele>1835.6</ele>
        <time>2024-08-12T05:24:49Z</time>
      </trkpt>
      <trkpt lat="44.81106" lon="6.38406">
        <ele>1835.6</ele>
        <time>2024-08-12T05:24:50Z</time>
      </trkpt>
      <trkpt lat="44.81106" lon="6.38406">
        <ele>1835.6</ele>
        <time>2024-08-12T05:24:51Z</time>
      </trkpt>
      <trkpt lat="44.81105" lon="6.38403">
        <ele>1835.6</ele>
        <time>2024-08-12T05:24:52Z</time>
      </trkpt>
      <trkpt lat="44.81105" lon="6.38403">
        <ele>1835.6</ele>
        <time>2024-08-12T05:24:53Z</time>
      </trkpt>
      <trkpt lat="44.81104" lon="6.38399">
        <ele>1835.6</ele>
        <time>2024-08-12T05:24:54Z</time>
      </trkpt>
      <trkpt lat="44.81104" lon="6.38399">
        <ele>1835.8</ele>
        <time>2024-08-12T05:24:55Z</time>
      </trkpt>
      <trkpt lat="44.81104" lon="6.38396">
        <ele>1835.8</ele>
        <time>2024-08-12T05:24:56Z</time>
      </trkpt>
      <trkpt lat="44.81104" lon="6.38396">
        <ele>1835.8</ele>
        <time>2024-08-12T05:24:57Z</time>
      </trkpt>
      <trkpt lat="44.81104" lon="6.38392">
        <ele>1836</ele>
        <time>2024-08-12T05:24:58Z</time>
      </trkpt>
      <trkpt lat="44.81104" lon="6.38392">
        <ele>1836</ele>
        <time>2024-08-12T05:24:59Z</time>
      </trkpt>
      <trkpt lat="44.81103" lon="6.38388">
        <ele>1836</ele>
        <time>2024-08-12T05:25:00Z</time>
      </trkpt>
      <trkpt lat="44.81103" lon="6.38388">
        <ele>1836.2</ele>
        <time>2024-08-12T05:25:01Z</time>
      </trkpt>
      <trkpt lat="44.81103" lon="6.38385">
        <ele>1836</ele>
        <time>2024-08-12T05:25:02Z</time>
      </trkpt>
      <trkpt lat="44.81103" lon="6.38385">
        <ele>1836</ele>
        <time>2024-08-12T05:25:03Z</time>
      </trkpt>
      <trkpt lat="44.81103" lon="6.38383">
        <ele>1836</ele>
        <time>2024-08-12T05:25:04Z</time>
      </trkpt>
      <trkpt lat="44.81103" lon="6.38383">
        <ele>1836.2</ele>
        <time>2024-08-12T05:25:05Z</time>
      </trkpt>
      <trkpt lat="44.81103" lon="6.38383">
        <ele>1836.8</ele>
        <time>2024-08-12T05:25:06Z</time>
      </trkpt>
      <trkpt lat="44.81103" lon="6.38379">
        <ele>1836.8</ele>
        <time>2024-08-12T05:25:07Z</time>
      </trkpt>
      <trkpt lat="44.81103" lon="6.38379">
        <ele>1836.8</ele>
        <time>2024-08-12T05:25:08Z</time>
      </trkpt>
      <trkpt lat="44.81103" lon="6.38375">
        <ele>1836.8</ele>
        <time>2024-08-12T05:25:09Z</time>
      </trkpt>
      <trkpt lat="44.81103" lon="6.38375">
        <ele>1837</ele>
        <time>2024-08-12T05:25:10Z</time>
      </trkpt>
      <trkpt lat="44.81103" lon="6.38372">
        <ele>1837</ele>
        <time>2024-08-12T05:25:11Z</time>
      </trkpt>
      <trkpt lat="44.81103" lon="6.38372">
        <ele>1837.2</ele>
        <time>2024-08-12T05:25:12Z</time>
      </trkpt>
      <trkpt lat="44.81104" lon="6.38368">
        <ele>1837.4</ele>
        <time>2024-08-12T05:25:13Z</time>
      </trkpt>
      <trkpt lat="44.81104" lon="6.38368">
        <ele>1837.4</ele>
        <time>2024-08-12T05:25:14Z</time>
      </trkpt>
      <trkpt lat="44.81105" lon="6.38365">
        <ele>1837.4</ele>
        <time>2024-08-12T05:25:15Z</time>
      </trkpt>
      <trkpt lat="44.81105" lon="6.38365">
        <ele>1837.6</ele>
        <time>2024-08-12T05:25:16Z</time>
      </trkpt>
      <trkpt lat="44.81107" lon="6.38362">
        <ele>1837.6</ele>
        <time>2024-08-12T05:25:17Z</time>
      </trkpt>
      <trkpt lat="44.81107" lon="6.38362">
        <ele>1837.4</ele>
        <time>2024-08-12T05:25:18Z</time>
      </trkpt>
      <trkpt lat="44.81108" lon="6.38359">
        <ele>1837.4</ele>
        <time>2024-08-12T05:25:19Z</time>
      </trkpt>
      <trkpt lat="44.81108" lon="6.38359">
        <ele>1837.4</ele>
        <time>2024-08-12T05:25:20Z</time>
      </trkpt>
      <trkpt lat="44.81109" lon="6.38355">
        <ele>1837.4</ele>
        <time>2024-08-12T05:25:21Z</time>
      </trkpt>
      <trkpt lat="44.81109" lon="6.38355">
        <ele>1837.2</ele>
        <time>2024-08-12T05:25:22Z</time>
      </trkpt>
      <trkpt lat="44.81109" lon="6.38351">
        <ele>1837.2</ele>
        <time>2024-08-12T05:25:23Z</time>
      </trkpt>
      <trkpt lat="44.81109" lon="6.38351">
        <ele>1837.2</ele>
        <time>2024-08-12T05:25:24Z</time>
      </trkpt>
      <trkpt lat="44.81109" lon="6.38347">
        <ele>1837.4</ele>
        <time>2024-08-12T05:25:25Z</time>
      </trkpt>
      <trkpt lat="44.81109" lon="6.38347">
        <ele>1837.4</ele>
        <time>2024-08-12T05:25:26Z</time>
      </trkpt>
      <trkpt lat="44.81109" lon="6.38344">
        <ele>1837.4</ele>
        <time>2024-08-12T05:25:27Z</time>
      </trkpt>
      <trkpt lat="44.81109" lon="6.38344">
        <ele>1837.4</ele>
        <time>2024-08-12T05:25:28Z</time>
      </trkpt>
      <trkpt lat="44.81109" lon="6.38341">
        <ele>1837.4</ele>
        <time>2024-08-12T05:25:29Z</time>
      </trkpt>
      <trkpt lat="44.81109" lon="6.38341">
        <ele>1837.4</ele>
        <time>2024-08-12T05:25:30Z</time>
      </trkpt>
      <trkpt lat="44.81108" lon="6.38337">
        <ele>1837.4</ele>
        <time>2024-08-12T05:25:31Z</time>
      </trkpt>
      <trkpt lat="44.81108" lon="6.38337">
        <ele>1837.6</ele>
        <time>2024-08-12T05:25:32Z</time>
      </trkpt>
      <trkpt lat="44.81106" lon="6.38334">
        <ele>1837.8</ele>
        <time>2024-08-12T05:25:33Z</time>
      </trkpt>
      <trkpt lat="44.81106" lon="6.38334">
        <ele>1837.6</ele>
        <time>2024-08-12T05:25:34Z</time>
      </trkpt>
      <trkpt lat="44.81105" lon="6.38332">
        <ele>1837.6</ele>
        <time>2024-08-12T05:25:35Z</time>
      </trkpt>
      <trkpt lat="44.81105" lon="6.38332">
        <ele>1837.6</ele>
        <time>2024-08-12T05:25:36Z</time>
      </trkpt>
      <trkpt lat="44.81103" lon="6.38329">
        <ele>1837.6</ele>
        <time>2024-08-12T05:25:37Z</time>
      </trkpt>
      <trkpt lat="44.81103" lon="6.38329">
        <ele>1837.6</ele>
        <time>2024-08-12T05:25:38Z</time>
      </trkpt>
      <trkpt lat="44.81101" lon="6.38327">
        <ele>1837.8</ele>
        <time>2024-08-12T05:25:39Z</time>
      </trkpt>
      <trkpt lat="44.81101" lon="6.38327">
        <ele>1837.8</ele>
        <time>2024-08-12T05:25:40Z</time>
      </trkpt>
      <trkpt lat="44.81099" lon="6.38325">
        <ele>1837.8</ele>
        <time>2024-08-12T05:25:41Z</time>
      </trkpt>
      <trkpt lat="44.81099" lon="6.38325">
        <ele>1837.8</ele>
        <time>2024-08-12T05:25:42Z</time>
      </trkpt>
      <trkpt lat="44.81098" lon="6.38323">
        <ele>1838</ele>
        <time>2024-08-12T05:25:43Z</time>
      </trkpt>
      <trkpt lat="44.81098" lon="6.38323">
        <ele>1838</ele>
        <time>2024-08-12T05:25:44Z</time>
      </trkpt>
      <trkpt lat="44.81097" lon="6.3832">
        <ele>1838</ele>
        <time>2024-08-12T05:25:45Z</time>
      </trkpt>
      <trkpt lat="44.81097" lon="6.3832">
        <ele>1838.2</ele>
        <time>2024-08-12T05:25:46Z</time>
      </trkpt>
      <trkpt lat="44.81095" lon="6.38316">
        <ele>1838.2</ele>
        <time>2024-08-12T05:25:47Z</time>
      </trkpt>
      <trkpt lat="44.81095" lon="6.38316">
        <ele>1838.2</ele>
        <time>2024-08-12T05:25:48Z</time>
      </trkpt>
      <trkpt lat="44.81094" lon="6.38313">
        <ele>1837.8</ele>
        <time>2024-08-12T05:25:49Z</time>
      </trkpt>
      <trkpt lat="44.81093" lon="6.38312">
        <ele>1837.8</ele>
        <time>2024-08-12T05:25:50Z</time>
      </trkpt>
      <trkpt lat="44.81093" lon="6.38312">
        <ele>1837.8</ele>
        <time>2024-08-12T05:25:51Z</time>
      </trkpt>
      <trkpt lat="44.81091" lon="6.3831">
        <ele>1837.8</ele>
        <time>2024-08-12T05:25:52Z</time>
      </trkpt>
      <trkpt lat="44.81091" lon="6.3831">
        <ele>1837.8</ele>
        <time>2024-08-12T05:25:53Z</time>
      </trkpt>
      <trkpt lat="44.8109" lon="6.38307">
        <ele>1838</ele>
        <time>2024-08-12T05:25:54Z</time>
      </trkpt>
      <trkpt lat="44.8109" lon="6.38307">
        <ele>1838.2</ele>
        <time>2024-08-12T05:25:55Z</time>
      </trkpt>
      <trkpt lat="44.81088" lon="6.38305">
        <ele>1838.2</ele>
        <time>2024-08-12T05:25:56Z</time>
      </trkpt>
      <trkpt lat="44.81088" lon="6.38305">
        <ele>1838.2</ele>
        <time>2024-08-12T05:25:57Z</time>
      </trkpt>
      <trkpt lat="44.81087" lon="6.38303">
        <ele>1838.4</ele>
        <time>2024-08-12T05:25:58Z</time>
      </trkpt>
      <trkpt lat="44.81087" lon="6.38303">
        <ele>1838.2</ele>
        <time>2024-08-12T05:25:59Z</time>
      </trkpt>
      <trkpt lat="44.81085" lon="6.38301">
        <ele>1838.2</ele>
        <time>2024-08-12T05:26:00Z</time>
      </trkpt>
      <trkpt lat="44.81085" lon="6.38301">
        <ele>1838.2</ele>
        <time>2024-08-12T05:26:01Z</time>
      </trkpt>
      <trkpt lat="44.81084" lon="6.38298">
        <ele>1838.6</ele>
        <time>2024-08-12T05:26:02Z</time>
      </trkpt>
      <trkpt lat="44.81084" lon="6.38298">
        <ele>1838.6</ele>
        <time>2024-08-12T05:26:03Z</time>
      </trkpt>
      <trkpt lat="44.81082" lon="6.38296">
        <ele>1838.6</ele>
        <time>2024-08-12T05:26:04Z</time>
      </trkpt>
      <trkpt lat="44.81082" lon="6.38296">
        <ele>1838.6</ele>
        <time>2024-08-12T05:26:05Z</time>
      </trkpt>
      <trkpt lat="44.8108" lon="6.38295">
        <ele>1838.8</ele>
        <time>2024-08-12T05:26:06Z</time>
      </trkpt>
      <trkpt lat="44.8108" lon="6.38295">
        <ele>1838.8</ele>
        <time>2024-08-12T05:26:07Z</time>
      </trkpt>
      <trkpt lat="44.81078" lon="6.38294">
        <ele>1838.8</ele>
        <time>2024-08-12T05:26:08Z</time>
      </trkpt>
      <trkpt lat="44.81078" lon="6.38294">
        <ele>1839</ele>
        <time>2024-08-12T05:26:09Z</time>
      </trkpt>
      <trkpt lat="44.81076" lon="6.38292">
        <ele>1839.2</ele>
        <time>2024-08-12T05:26:10Z</time>
      </trkpt>
      <trkpt lat="44.81076" lon="6.38292">
        <ele>1839.2</ele>
        <time>2024-08-12T05:26:11Z</time>
      </trkpt>
      <trkpt lat="44.81074" lon="6.3829">
        <ele>1839.2</ele>
        <time>2024-08-12T05:26:12Z</time>
      </trkpt>
      <trkpt lat="44.81074" lon="6.3829">
        <ele>1838.8</ele>
        <time>2024-08-12T05:26:13Z</time>
      </trkpt>
      <trkpt lat="44.81072" lon="6.38288">
        <ele>1838.8</ele>
        <time>2024-08-12T05:26:14Z</time>
      </trkpt>
      <trkpt lat="44.81072" lon="6.38288">
        <ele>1839</ele>
        <time>2024-08-12T05:26:15Z</time>
      </trkpt>
      <trkpt lat="44.8107" lon="6.38286">
        <ele>1839</ele>
        <time>2024-08-12T05:26:16Z</time>
      </trkpt>
      <trkpt lat="44.8107" lon="6.38286">
        <ele>1839</ele>
        <time>2024-08-12T05:26:17Z</time>
      </trkpt>
      <trkpt lat="44.81069" lon="6.38283">
        <ele>1839.2</ele>
        <time>2024-08-12T05:26:18Z</time>
      </trkpt>
      <trkpt lat="44.81069" lon="6.38283">
        <ele>1839.2</ele>
        <time>2024-08-12T05:26:19Z</time>
      </trkpt>
      <trkpt lat="44.81067" lon="6.38281">
        <ele>1839.6</ele>
        <time>2024-08-12T05:26:20Z</time>
      </trkpt>
      <trkpt lat="44.81067" lon="6.38281">
        <ele>1839.6</ele>
        <time>2024-08-12T05:26:21Z</time>
      </trkpt>
      <trkpt lat="44.81065" lon="6.38279">
        <ele>1839.8</ele>
        <time>2024-08-12T05:26:22Z</time>
      </trkpt>
      <trkpt lat="44.81065" lon="6.38279">
        <ele>1839.8</ele>
        <time>2024-08-12T05:26:23Z</time>
      </trkpt>
      <trkpt lat="44.81063" lon="6.38276">
        <ele>1840</ele>
        <time>2024-08-12T05:26:24Z</time>
      </trkpt>
      <trkpt lat="44.81063" lon="6.38276">
        <ele>1840</ele>
        <time>2024-08-12T05:26:25Z</time>
      </trkpt>
      <trkpt lat="44.81061" lon="6.38274">
        <ele>1840</ele>
        <time>2024-08-12T05:26:26Z</time>
      </trkpt>
      <trkpt lat="44.81061" lon="6.38274">
        <ele>1840</ele>
        <time>2024-08-12T05:26:27Z</time>
      </trkpt>
      <trkpt lat="44.81059" lon="6.38271">
        <ele>1840</ele>
        <time>2024-08-12T05:26:28Z</time>
      </trkpt>
      <trkpt lat="44.81059" lon="6.38271">
        <ele>1840</ele>
        <time>2024-08-12T05:26:29Z</time>
      </trkpt>
      <trkpt lat="44.81057" lon="6.38269">
        <ele>1840.2</ele>
        <time>2024-08-12T05:26:30Z</time>
      </trkpt>
      <trkpt lat="44.81057" lon="6.38269">
        <ele>1840</ele>
        <time>2024-08-12T05:26:31Z</time>
      </trkpt>
      <trkpt lat="44.81056" lon="6.38266">
        <ele>1840.4</ele>
        <time>2024-08-12T05:26:32Z</time>
      </trkpt>
      <trkpt lat="44.81056" lon="6.38266">
        <ele>1840.4</ele>
        <time>2024-08-12T05:26:33Z</time>
      </trkpt>
      <trkpt lat="44.81054" lon="6.38264">
        <ele>1840.4</ele>
        <time>2024-08-12T05:26:34Z</time>
      </trkpt>
      <trkpt lat="44.81054" lon="6.38264">
        <ele>1840.4</ele>
        <time>2024-08-12T05:26:35Z</time>
      </trkpt>
      <trkpt lat="44.81052" lon="6.38261">
        <ele>1840.2</ele>
        <time>2024-08-12T05:26:36Z</time>
      </trkpt>
      <trkpt lat="44.81052" lon="6.38261">
        <ele>1840.2</ele>
        <time>2024-08-12T05:26:37Z</time>
      </trkpt>
      <trkpt lat="44.81051" lon="6.38258">
        <ele>1840.2</ele>
        <time>2024-08-12T05:26:38Z</time>
      </trkpt>
      <trkpt lat="44.81051" lon="6.38258">
        <ele>1840.4</ele>
        <time>2024-08-12T05:26:39Z</time>
      </trkpt>
      <trkpt lat="44.81049" lon="6.38257">
        <ele>1840.4</ele>
        <time>2024-08-12T05:26:40Z</time>
      </trkpt>
      <trkpt lat="44.81049" lon="6.38257">
        <ele>1840.4</ele>
        <time>2024-08-12T05:26:41Z</time>
      </trkpt>
      <trkpt lat="44.81047" lon="6.38255">
        <ele>1840.2</ele>
        <time>2024-08-12T05:26:42Z</time>
      </trkpt>
      <trkpt lat="44.81047" lon="6.38255">
        <ele>1840.2</ele>
        <time>2024-08-12T05:26:43Z</time>
      </trkpt>
      <trkpt lat="44.81045" lon="6.38253">
        <ele>1840.4</ele>
        <time>2024-08-12T05:26:44Z</time>
      </trkpt>
      <trkpt lat="44.81045" lon="6.38253">
        <ele>1840.4</ele>
        <time>2024-08-12T05:26:45Z</time>
      </trkpt>
      <trkpt lat="44.81045" lon="6.38253">
        <ele>1840.4</ele>
        <time>2024-08-12T05:26:46Z</time>
      </trkpt>
      <trkpt lat="44.81045" lon="6.38253">
        <ele>1840.4</ele>
        <time>2024-08-12T05:26:47Z</time>
      </trkpt>
      <trkpt lat="44.81045" lon="6.38253">
        <ele>1840.6</ele>
        <time>2024-08-12T05:26:48Z</time>
      </trkpt>
      <trkpt lat="44.81045" lon="6.38253">
        <ele>1841</ele>
        <time>2024-08-12T05:26:49Z</time>
      </trkpt>
      <trkpt lat="44.81045" lon="6.38253">
        <ele>1841.2</ele>
        <time>2024-08-12T05:26:50Z</time>
      </trkpt>
      <trkpt lat="44.81044" lon="6.3825">
        <ele>1841.2</ele>
        <time>2024-08-12T05:26:51Z</time>
      </trkpt>
      <trkpt lat="44.81044" lon="6.3825">
        <ele>1841.2</ele>
        <time>2024-08-12T05:26:52Z</time>
      </trkpt>
      <trkpt lat="44.81043" lon="6.38248">
        <ele>1841.2</ele>
        <time>2024-08-12T05:26:53Z</time>
      </trkpt>
      <trkpt lat="44.81043" lon="6.38248">
        <ele>1841.2</ele>
        <time>2024-08-12T05:26:54Z</time>
      </trkpt>
      <trkpt lat="44.81041" lon="6.38245">
        <ele>1841.2</ele>
        <time>2024-08-12T05:26:55Z</time>
      </trkpt>
      <trkpt lat="44.81041" lon="6.38245">
        <ele>1841</ele>
        <time>2024-08-12T05:26:56Z</time>
      </trkpt>
      <trkpt lat="44.8104" lon="6.38242">
        <ele>1841</ele>
        <time>2024-08-12T05:26:57Z</time>
      </trkpt>
      <trkpt lat="44.8104" lon="6.38242">
        <ele>1841.2</ele>
        <time>2024-08-12T05:26:58Z</time>
      </trkpt>
      <trkpt lat="44.81039" lon="6.3824">
        <ele>1841.4</ele>
        <time>2024-08-12T05:26:59Z</time>
      </trkpt>
      <trkpt lat="44.81037" lon="6.38239">
        <ele>1841.4</ele>
        <time>2024-08-12T05:27:00Z</time>
      </trkpt>
      <trkpt lat="44.81037" lon="6.38239">
        <ele>1841.4</ele>
        <time>2024-08-12T05:27:01Z</time>
      </trkpt>
      <trkpt lat="44.81036" lon="6.38237">
        <ele>1841.4</ele>
        <time>2024-08-12T05:27:02Z</time>
      </trkpt>
      <trkpt lat="44.81036" lon="6.38237">
        <ele>1841.4</ele>
        <time>2024-08-12T05:27:03Z</time>
      </trkpt>
      <trkpt lat="44.81034" lon="6.38236">
        <ele>1841.6</ele>
        <time>2024-08-12T05:27:04Z</time>
      </trkpt>
      <trkpt lat="44.81034" lon="6.38236">
        <ele>1841.8</ele>
        <time>2024-08-12T05:27:05Z</time>
      </trkpt>
      <trkpt lat="44.81034" lon="6.38236">
        <ele>1841.8</ele>
        <time>2024-08-12T05:27:06Z</time>
      </trkpt>
      <trkpt lat="44.81032" lon="6.38233">
        <ele>1841.8</ele>
        <time>2024-08-12T05:27:07Z</time>
      </trkpt>
      <trkpt lat="44.81032" lon="6.38233">
        <ele>1842.2</ele>
        <time>2024-08-12T05:27:08Z</time>
      </trkpt>
      <trkpt lat="44.81031" lon="6.38231">
        <ele>1842.4</ele>
        <time>2024-08-12T05:27:09Z</time>
      </trkpt>
      <trkpt lat="44.81031" lon="6.38231">
        <ele>1842.4</ele>
        <time>2024-08-12T05:27:10Z</time>
      </trkpt>
      <trkpt lat="44.81029" lon="6.38229">
        <ele>1842.4</ele>
        <time>2024-08-12T05:27:11Z</time>
      </trkpt>
      <trkpt lat="44.81029" lon="6.38229">
        <ele>1842.2</ele>
        <time>2024-08-12T05:27:12Z</time>
      </trkpt>
      <trkpt lat="44.81028" lon="6.38227">
        <ele>1842.2</ele>
        <time>2024-08-12T05:27:13Z</time>
      </trkpt>
      <trkpt lat="44.81028" lon="6.38227">
        <ele>1842.2</ele>
        <time>2024-08-12T05:27:14Z</time>
      </trkpt>
      <trkpt lat="44.81027" lon="6.38225">
        <ele>1842.2</ele>
        <time>2024-08-12T05:27:15Z</time>
      </trkpt>
      <trkpt lat="44.81027" lon="6.38225">
        <ele>1842.4</ele>
        <time>2024-08-12T05:27:16Z</time>
      </trkpt>
      <trkpt lat="44.81025" lon="6.38224">
        <ele>1842.6</ele>
        <time>2024-08-12T05:27:17Z</time>
      </trkpt>
      <trkpt lat="44.81025" lon="6.38224">
        <ele>1842.8</ele>
        <time>2024-08-12T05:27:18Z</time>
      </trkpt>
      <trkpt lat="44.81023" lon="6.38222">
        <ele>1843</ele>
        <time>2024-08-12T05:27:19Z</time>
      </trkpt>
      <trkpt lat="44.81023" lon="6.38222">
        <ele>1843.2</ele>
        <time>2024-08-12T05:27:20Z</time>
      </trkpt>
      <trkpt lat="44.81022" lon="6.3822">
        <ele>1843.2</ele>
        <time>2024-08-12T05:27:21Z</time>
      </trkpt>
      <trkpt lat="44.81022" lon="6.3822">
        <ele>1843.2</ele>
        <time>2024-08-12T05:27:22Z</time>
      </trkpt>
      <trkpt lat="44.81022" lon="6.3822">
        <ele>1843.2</ele>
        <time>2024-08-12T05:27:23Z</time>
      </trkpt>
      <trkpt lat="44.81021" lon="6.38216">
        <ele>1843.2</ele>
        <time>2024-08-12T05:27:24Z</time>
      </trkpt>
      <trkpt lat="44.81021" lon="6.38216">
        <ele>1843.4</ele>
        <time>2024-08-12T05:27:25Z</time>
      </trkpt>
      <trkpt lat="44.8102" lon="6.38214">
        <ele>1843.4</ele>
        <time>2024-08-12T05:27:26Z</time>
      </trkpt>
      <trkpt lat="44.8102" lon="6.38214">
        <ele>1843.4</ele>
        <time>2024-08-12T05:27:27Z</time>
      </trkpt>
      <trkpt lat="44.81018" lon="6.38212">
        <ele>1843.6</ele>
        <time>2024-08-12T05:27:28Z</time>
      </trkpt>
      <trkpt lat="44.81018" lon="6.38212">
        <ele>1844</ele>
        <time>2024-08-12T05:27:29Z</time>
      </trkpt>
      <trkpt lat="44.81016" lon="6.38211">
        <ele>1844</ele>
        <time>2024-08-12T05:27:30Z</time>
      </trkpt>
      <trkpt lat="44.81016" lon="6.38211">
        <ele>1844.2</ele>
        <time>2024-08-12T05:27:31Z</time>
      </trkpt>
      <trkpt lat="44.81014" lon="6.3821">
        <ele>1844.2</ele>
        <time>2024-08-12T05:27:32Z</time>
      </trkpt>
      <trkpt lat="44.81014" lon="6.3821">
        <ele>1844.2</ele>
        <time>2024-08-12T05:27:33Z</time>
      </trkpt>
      <trkpt lat="44.81014" lon="6.3821">
        <ele>1844.4</ele>
        <time>2024-08-12T05:27:34Z</time>
      </trkpt>
      <trkpt lat="44.81012" lon="6.38208">
        <ele>1844.6</ele>
        <time>2024-08-12T05:27:35Z</time>
      </trkpt>
      <trkpt lat="44.81012" lon="6.38208">
        <ele>1844.6</ele>
        <time>2024-08-12T05:27:36Z</time>
      </trkpt>
      <trkpt lat="44.81012" lon="6.38208">
        <ele>1844.8</ele>
        <time>2024-08-12T05:27:37Z</time>
      </trkpt>
      <trkpt lat="44.8101" lon="6.38206">
        <ele>1844.8</ele>
        <time>2024-08-12T05:27:38Z</time>
      </trkpt>
      <trkpt lat="44.8101" lon="6.38206">
        <ele>1845.2</ele>
        <time>2024-08-12T05:27:39Z</time>
      </trkpt>
      <trkpt lat="44.81008" lon="6.38205">
        <ele>1845.2</ele>
        <time>2024-08-12T05:27:40Z</time>
      </trkpt>
      <trkpt lat="44.81008" lon="6.38205">
        <ele>1845.2</ele>
        <time>2024-08-12T05:27:41Z</time>
      </trkpt>
      <trkpt lat="44.81008" lon="6.38205">
        <ele>1845.4</ele>
        <time>2024-08-12T05:27:42Z</time>
      </trkpt>
      <trkpt lat="44.81005" lon="6.38204">
        <ele>1845.6</ele>
        <time>2024-08-12T05:27:43Z</time>
      </trkpt>
      <trkpt lat="44.81005" lon="6.38204">
        <ele>1845.8</ele>
        <time>2024-08-12T05:27:44Z</time>
      </trkpt>
      <trkpt lat="44.81003" lon="6.38204">
        <ele>1845.8</ele>
        <time>2024-08-12T05:27:45Z</time>
      </trkpt>
      <trkpt lat="44.81003" lon="6.38204">
        <ele>1845.8</ele>
        <time>2024-08-12T05:27:46Z</time>
      </trkpt>
      <trkpt lat="44.81001" lon="6.38203">
        <ele>1845.8</ele>
        <time>2024-08-12T05:27:47Z</time>
      </trkpt>
      <trkpt lat="44.81001" lon="6.38203">
        <ele>1845.8</ele>
        <time>2024-08-12T05:27:48Z</time>
      </trkpt>
      <trkpt lat="44.81" lon="6.38201">
        <ele>1846</ele>
        <time>2024-08-12T05:27:49Z</time>
      </trkpt>
      <trkpt lat="44.81" lon="6.38201">
        <ele>1846</ele>
        <time>2024-08-12T05:27:50Z</time>
      </trkpt>
      <trkpt lat="44.80998" lon="6.382">
        <ele>1846.2</ele>
        <time>2024-08-12T05:27:51Z</time>
      </trkpt>
      <trkpt lat="44.80998" lon="6.382">
        <ele>1846.2</ele>
        <time>2024-08-12T05:27:52Z</time>
      </trkpt>
      <trkpt lat="44.80996" lon="6.38199">
        <ele>1846.2</ele>
        <time>2024-08-12T05:27:53Z</time>
      </trkpt>
      <trkpt lat="44.80996" lon="6.38199">
        <ele>1846.2</ele>
        <time>2024-08-12T05:27:54Z</time>
      </trkpt>
      <trkpt lat="44.80996" lon="6.38199">
        <ele>1846.2</ele>
        <time>2024-08-12T05:27:55Z</time>
      </trkpt>
      <trkpt lat="44.80993" lon="6.38197">
        <ele>1846.4</ele>
        <time>2024-08-12T05:27:56Z</time>
      </trkpt>
      <trkpt lat="44.80993" lon="6.38197">
        <ele>1846.6</ele>
        <time>2024-08-12T05:27:57Z</time>
      </trkpt>
      <trkpt lat="44.80991" lon="6.38195">
        <ele>1846.6</ele>
        <time>2024-08-12T05:27:58Z</time>
      </trkpt>
      <trkpt lat="44.80991" lon="6.38195">
        <ele>1846.6</ele>
        <time>2024-08-12T05:27:59Z</time>
      </trkpt>
      <trkpt lat="44.8099" lon="6.38194">
        <ele>1846.6</ele>
        <time>2024-08-12T05:28:00Z</time>
      </trkpt>
      <trkpt lat="44.8099" lon="6.38194">
        <ele>1846.8</ele>
        <time>2024-08-12T05:28:01Z</time>
      </trkpt>
      <trkpt lat="44.8099" lon="6.38194">
        <ele>1847</ele>
        <time>2024-08-12T05:28:02Z</time>
      </trkpt>
      <trkpt lat="44.80988" lon="6.38191">
        <ele>1847</ele>
        <time>2024-08-12T05:28:03Z</time>
      </trkpt>
      <trkpt lat="44.80988" lon="6.38191">
        <ele>1847.2</ele>
        <time>2024-08-12T05:28:04Z</time>
      </trkpt>
      <trkpt lat="44.80986" lon="6.38191">
        <ele>1847.4</ele>
        <time>2024-08-12T05:28:05Z</time>
      </trkpt>
      <trkpt lat="44.80986" lon="6.38191">
        <ele>1847.6</ele>
        <time>2024-08-12T05:28:06Z</time>
      </trkpt>
      <trkpt lat="44.80983" lon="6.3819">
        <ele>1847.8</ele>
        <time>2024-08-12T05:28:07Z</time>
      </trkpt>
      <trkpt lat="44.80983" lon="6.3819">
        <ele>1847.8</ele>
        <time>2024-08-12T05:28:08Z</time>
      </trkpt>
      <trkpt lat="44.80983" lon="6.3819">
        <ele>1847.6</ele>
        <time>2024-08-12T05:28:09Z</time>
      </trkpt>
      <trkpt lat="44.80981" lon="6.3819">
        <ele>1847.6</ele>
        <time>2024-08-12T05:28:10Z</time>
      </trkpt>
      <trkpt lat="44.80981" lon="6.3819">
        <ele>1847.8</ele>
        <time>2024-08-12T05:28:11Z</time>
      </trkpt>
      <trkpt lat="44.80978" lon="6.3819">
        <ele>1847.8</ele>
        <time>2024-08-12T05:28:12Z</time>
      </trkpt>
      <trkpt lat="44.80978" lon="6.3819">
        <ele>1847.8</ele>
        <time>2024-08-12T05:28:13Z</time>
      </trkpt>
      <trkpt lat="44.80976" lon="6.38188">
        <ele>1847.6</ele>
        <time>2024-08-12T05:28:14Z</time>
      </trkpt>
      <trkpt lat="44.80976" lon="6.38188">
        <ele>1847.4</ele>
        <time>2024-08-12T05:28:15Z</time>
      </trkpt>
      <trkpt lat="44.80974" lon="6.38186">
        <ele>1847.2</ele>
        <time>2024-08-12T05:28:16Z</time>
      </trkpt>
      <trkpt lat="44.80974" lon="6.38186">
        <ele>1847</ele>
        <time>2024-08-12T05:28:17Z</time>
      </trkpt>
      <trkpt lat="44.80971" lon="6.38184">
        <ele>1847</ele>
        <time>2024-08-12T05:28:18Z</time>
      </trkpt>
      <trkpt lat="44.80971" lon="6.38184">
        <ele>1846.6</ele>
        <time>2024-08-12T05:28:19Z</time>
      </trkpt>
      <trkpt lat="44.8097" lon="6.38182">
        <ele>1846.6</ele>
        <time>2024-08-12T05:28:20Z</time>
      </trkpt>
      <trkpt lat="44.8097" lon="6.38182">
        <ele>1846.8</ele>
        <time>2024-08-12T05:28:21Z</time>
      </trkpt>
      <trkpt lat="44.80967" lon="6.38181">
        <ele>1846.8</ele>
        <time>2024-08-12T05:28:22Z</time>
      </trkpt>
      <trkpt lat="44.80967" lon="6.38181">
        <ele>1846.8</ele>
        <time>2024-08-12T05:28:23Z</time>
      </trkpt>
      <trkpt lat="44.80966" lon="6.38178">
        <ele>1846.8</ele>
        <time>2024-08-12T05:28:24Z</time>
      </trkpt>
      <trkpt lat="44.80966" lon="6.38178">
        <ele>1847</ele>
        <time>2024-08-12T05:28:25Z</time>
      </trkpt>
      <trkpt lat="44.80965" lon="6.38176">
        <ele>1847</ele>
        <time>2024-08-12T05:28:26Z</time>
      </trkpt>
      <trkpt lat="44.80965" lon="6.38176">
        <ele>1847</ele>
        <time>2024-08-12T05:28:27Z</time>
      </trkpt>
      <trkpt lat="44.80964" lon="6.38174">
        <ele>1847.4</ele>
        <time>2024-08-12T05:28:28Z</time>
      </trkpt>
      <trkpt lat="44.80964" lon="6.38174">
        <ele>1847.4</ele>
        <time>2024-08-12T05:28:29Z</time>
      </trkpt>
      <trkpt lat="44.80962" lon="6.38172">
        <ele>1847.6</ele>
        <time>2024-08-12T05:28:30Z</time>
      </trkpt>
      <trkpt lat="44.80962" lon="6.38172">
        <ele>1847.8</ele>
        <time>2024-08-12T05:28:31Z</time>
      </trkpt>
      <trkpt lat="44.80961" lon="6.38169">
        <ele>1847.8</ele>
        <time>2024-08-12T05:28:32Z</time>
      </trkpt>
      <trkpt lat="44.80961" lon="6.38169">
        <ele>1847.8</ele>
        <time>2024-08-12T05:28:33Z</time>
      </trkpt>
      <trkpt lat="44.8096" lon="6.38166">
        <ele>1847.8</ele>
        <time>2024-08-12T05:28:34Z</time>
      </trkpt>
      <trkpt lat="44.8096" lon="6.38166">
        <ele>1848.2</ele>
        <time>2024-08-12T05:28:35Z</time>
      </trkpt>
      <trkpt lat="44.8096" lon="6.38163">
        <ele>1848.2</ele>
        <time>2024-08-12T05:28:36Z</time>
      </trkpt>
      <trkpt lat="44.8096" lon="6.38163">
        <ele>1848.2</ele>
        <time>2024-08-12T05:28:37Z</time>
      </trkpt>
      <trkpt lat="44.8096" lon="6.3816">
        <ele>1848.4</ele>
        <time>2024-08-12T05:28:38Z</time>
      </trkpt>
      <trkpt lat="44.8096" lon="6.3816">
        <ele>1848.6</ele>
        <time>2024-08-12T05:28:39Z</time>
      </trkpt>
      <trkpt lat="44.80961" lon="6.38157">
        <ele>1848.6</ele>
        <time>2024-08-12T05:28:40Z</time>
      </trkpt>
      <trkpt lat="44.80961" lon="6.38157">
        <ele>1848.6</ele>
        <time>2024-08-12T05:28:41Z</time>
      </trkpt>
      <trkpt lat="44.80961" lon="6.38153">
        <ele>1848.6</ele>
        <time>2024-08-12T05:28:42Z</time>
      </trkpt>
      <trkpt lat="44.80961" lon="6.38153">
        <ele>1848.6</ele>
        <time>2024-08-12T05:28:43Z</time>
      </trkpt>
      <trkpt lat="44.8096" lon="6.38151">
        <ele>1848.8</ele>
        <time>2024-08-12T05:28:44Z</time>
      </trkpt>
      <trkpt lat="44.8096" lon="6.38151">
        <ele>1849.2</ele>
        <time>2024-08-12T05:28:45Z</time>
      </trkpt>
      <trkpt lat="44.8096" lon="6.38148">
        <ele>1849.2</ele>
        <time>2024-08-12T05:28:46Z</time>
      </trkpt>
      <trkpt lat="44.8096" lon="6.38148">
        <ele>1849.2</ele>
        <time>2024-08-12T05:28:47Z</time>
      </trkpt>
      <trkpt lat="44.80959" lon="6.38145">
        <ele>1849.4</ele>
        <time>2024-08-12T05:28:48Z</time>
      </trkpt>
      <trkpt lat="44.80959" lon="6.38145">
        <ele>1849.4</ele>
        <time>2024-08-12T05:28:49Z</time>
      </trkpt>
      <trkpt lat="44.80958" lon="6.38142">
        <ele>1849.4</ele>
        <time>2024-08-12T05:28:50Z</time>
      </trkpt>
      <trkpt lat="44.80958" lon="6.38142">
        <ele>1849.4</ele>
        <time>2024-08-12T05:28:51Z</time>
      </trkpt>
      <trkpt lat="44.80956" lon="6.38141">
        <ele>1849.6</ele>
        <time>2024-08-12T05:28:52Z</time>
      </trkpt>
      <trkpt lat="44.80956" lon="6.38141">
        <ele>1849.6</ele>
        <time>2024-08-12T05:28:53Z</time>
      </trkpt>
      <trkpt lat="44.80954" lon="6.38138">
        <ele>1849.8</ele>
        <time>2024-08-12T05:28:54Z</time>
      </trkpt>
      <trkpt lat="44.80954" lon="6.38138">
        <ele>1849.8</ele>
        <time>2024-08-12T05:28:55Z</time>
      </trkpt>
      <trkpt lat="44.80953" lon="6.38135">
        <ele>1849.8</ele>
        <time>2024-08-12T05:28:56Z</time>
      </trkpt>
      <trkpt lat="44.80953" lon="6.38135">
        <ele>1849.8</ele>
        <time>2024-08-12T05:28:57Z</time>
      </trkpt>
      <trkpt lat="44.80952" lon="6.38131">
        <ele>1849.8</ele>
        <time>2024-08-12T05:28:58Z</time>
      </trkpt>
      <trkpt lat="44.80952" lon="6.38131">
        <ele>1849.8</ele>
        <time>2024-08-12T05:28:59Z</time>
      </trkpt>
      <trkpt lat="44.80952" lon="6.38128">
        <ele>1849.8</ele>
        <time>2024-08-12T05:29:00Z</time>
      </trkpt>
      <trkpt lat="44.80952" lon="6.38128">
        <ele>1849.8</ele>
        <time>2024-08-12T05:29:01Z</time>
      </trkpt>
      <trkpt lat="44.80952" lon="6.38125">
        <ele>1850</ele>
        <time>2024-08-12T05:29:02Z</time>
      </trkpt>
      <trkpt lat="44.80952" lon="6.38125">
        <ele>1850</ele>
        <time>2024-08-12T05:29:03Z</time>
      </trkpt>
      <trkpt lat="44.80953" lon="6.38122">
        <ele>1850.2</ele>
        <time>2024-08-12T05:29:04Z</time>
      </trkpt>
      <trkpt lat="44.80953" lon="6.38122">
        <ele>1850.6</ele>
        <time>2024-08-12T05:29:05Z</time>
      </trkpt>
      <trkpt lat="44.80953" lon="6.38122">
        <ele>1850.8</ele>
        <time>2024-08-12T05:29:06Z</time>
      </trkpt>
      <trkpt lat="44.80953" lon="6.38122">
        <ele>1851</ele>
        <time>2024-08-12T05:29:07Z</time>
      </trkpt>
      <trkpt lat="44.80952" lon="6.3812">
        <ele>1851</ele>
        <time>2024-08-12T05:29:08Z</time>
      </trkpt>
      <trkpt lat="44.80952" lon="6.3812">
        <ele>1851</ele>
        <time>2024-08-12T05:29:09Z</time>
      </trkpt>
      <trkpt lat="44.80952" lon="6.38117">
        <ele>1851.2</ele>
        <time>2024-08-12T05:29:10Z</time>
      </trkpt>
      <trkpt lat="44.80952" lon="6.38117">
        <ele>1851.4</ele>
        <time>2024-08-12T05:29:11Z</time>
      </trkpt>
      <trkpt lat="44.80952" lon="6.38117">
        <ele>1851.6</ele>
        <time>2024-08-12T05:29:12Z</time>
      </trkpt>
      <trkpt lat="44.8095" lon="6.38114">
        <ele>1851.6</ele>
        <time>2024-08-12T05:29:13Z</time>
      </trkpt>
      <trkpt lat="44.8095" lon="6.38114">
        <ele>1851.8</ele>
        <time>2024-08-12T05:29:14Z</time>
      </trkpt>
      <trkpt lat="44.8095" lon="6.38114">
        <ele>1852</ele>
        <time>2024-08-12T05:29:15Z</time>
      </trkpt>
      <trkpt lat="44.8095" lon="6.3811">
        <ele>1852.2</ele>
        <time>2024-08-12T05:29:16Z</time>
      </trkpt>
      <trkpt lat="44.8095" lon="6.3811">
        <ele>1852.6</ele>
        <time>2024-08-12T05:29:17Z</time>
      </trkpt>
      <trkpt lat="44.8095" lon="6.38107">
        <ele>1852.6</ele>
        <time>2024-08-12T05:29:18Z</time>
      </trkpt>
      <trkpt lat="44.8095" lon="6.38107">
        <ele>1852.6</ele>
        <time>2024-08-12T05:29:19Z</time>
      </trkpt>
      <trkpt lat="44.8095" lon="6.38107">
        <ele>1852.8</ele>
        <time>2024-08-12T05:29:20Z</time>
      </trkpt>
      <trkpt lat="44.80952" lon="6.38105">
        <ele>1853</ele>
        <time>2024-08-12T05:29:21Z</time>
      </trkpt>
      <trkpt lat="44.80952" lon="6.38105">
        <ele>1853.2</ele>
        <time>2024-08-12T05:29:22Z</time>
      </trkpt>
      <trkpt lat="44.80952" lon="6.38105">
        <ele>1853.2</ele>
        <time>2024-08-12T05:29:23Z</time>
      </trkpt>
      <trkpt lat="44.80951" lon="6.38102">
        <ele>1853.2</ele>
        <time>2024-08-12T05:29:24Z</time>
      </trkpt>
      <trkpt lat="44.80951" lon="6.38102">
        <ele>1853.6</ele>
        <time>2024-08-12T05:29:25Z</time>
      </trkpt>
      <trkpt lat="44.8095" lon="6.381">
        <ele>1854</ele>
        <time>2024-08-12T05:29:26Z</time>
      </trkpt>
      <trkpt lat="44.8095" lon="6.381">
        <ele>1854.2</ele>
        <time>2024-08-12T05:29:27Z</time>
      </trkpt>
      <trkpt lat="44.8095" lon="6.381">
        <ele>1854.2</ele>
        <time>2024-08-12T05:29:28Z</time>
      </trkpt>
      <trkpt lat="44.80949" lon="6.38098">
        <ele>1854.2</ele>
        <time>2024-08-12T05:29:29Z</time>
      </trkpt>
      <trkpt lat="44.80949" lon="6.38098">
        <ele>1854.6</ele>
        <time>2024-08-12T05:29:30Z</time>
      </trkpt>
      <trkpt lat="44.80949" lon="6.38098">
        <ele>1854.8</ele>
        <time>2024-08-12T05:29:31Z</time>
      </trkpt>
      <trkpt lat="44.80949" lon="6.38098">
        <ele>1854.8</ele>
        <time>2024-08-12T05:29:32Z</time>
      </trkpt>
      <trkpt lat="44.80948" lon="6.38096">
        <ele>1855.2</ele>
        <time>2024-08-12T05:29:33Z</time>
      </trkpt>
      <trkpt lat="44.80948" lon="6.38096">
        <ele>1855.6</ele>
        <time>2024-08-12T05:29:34Z</time>
      </trkpt>
      <trkpt lat="44.80948" lon="6.38096">
        <ele>1855.8</ele>
        <time>2024-08-12T05:29:35Z</time>
      </trkpt>
      <trkpt lat="44.80946" lon="6.38094">
        <ele>1856</ele>
        <time>2024-08-12T05:29:36Z</time>
      </trkpt>
      <trkpt lat="44.80946" lon="6.38094">
        <ele>1856</ele>
        <time>2024-08-12T05:29:37Z</time>
      </trkpt>
      <trkpt lat="44.80944" lon="6.38091">
        <ele>1856</ele>
        <time>2024-08-12T05:29:38Z</time>
      </trkpt>
      <trkpt lat="44.80944" lon="6.38091">
        <ele>1856</ele>
        <time>2024-08-12T05:29:39Z</time>
      </trkpt>
      <trkpt lat="44.80943" lon="6.38089">
        <ele>1856</ele>
        <time>2024-08-12T05:29:40Z</time>
      </trkpt>
      <trkpt lat="44.80943" lon="6.38089">
        <ele>1856.2</ele>
        <time>2024-08-12T05:29:41Z</time>
      </trkpt>
      <trkpt lat="44.80942" lon="6.38086">
        <ele>1856.2</ele>
        <time>2024-08-12T05:29:42Z</time>
      </trkpt>
      <trkpt lat="44.80942" lon="6.38086">
        <ele>1856.4</ele>
        <time>2024-08-12T05:29:43Z</time>
      </trkpt>
      <trkpt lat="44.80941" lon="6.38084">
        <ele>1856.4</ele>
        <time>2024-08-12T05:29:44Z</time>
      </trkpt>
      <trkpt lat="44.80941" lon="6.38084">
        <ele>1856.4</ele>
        <time>2024-08-12T05:29:45Z</time>
      </trkpt>
      <trkpt lat="44.8094" lon="6.3808">
        <ele>1856.6</ele>
        <time>2024-08-12T05:29:46Z</time>
      </trkpt>
      <trkpt lat="44.8094" lon="6.3808">
        <ele>1856.6</ele>
        <time>2024-08-12T05:29:47Z</time>
      </trkpt>
      <trkpt lat="44.80939" lon="6.38077">
        <ele>1856.6</ele>
        <time>2024-08-12T05:29:48Z</time>
      </trkpt>
      <trkpt lat="44.80939" lon="6.38077">
        <ele>1856.4</ele>
        <time>2024-08-12T05:29:49Z</time>
      </trkpt>
      <trkpt lat="44.80938" lon="6.38074">
        <ele>1856.4</ele>
        <time>2024-08-12T05:29:50Z</time>
      </trkpt>
      <trkpt lat="44.80938" lon="6.38074">
        <ele>1856.4</ele>
        <time>2024-08-12T05:29:51Z</time>
      </trkpt>
      <trkpt lat="44.80937" lon="6.3807">
        <ele>1856.4</ele>
        <time>2024-08-12T05:29:52Z</time>
      </trkpt>
      <trkpt lat="44.80937" lon="6.3807">
        <ele>1856.6</ele>
        <time>2024-08-12T05:29:53Z</time>
      </trkpt>
      <trkpt lat="44.80936" lon="6.38067">
        <ele>1856.6</ele>
        <time>2024-08-12T05:29:54Z</time>
      </trkpt>
      <trkpt lat="44.80936" lon="6.38067">
        <ele>1856.2</ele>
        <time>2024-08-12T05:29:55Z</time>
      </trkpt>
      <trkpt lat="44.80935" lon="6.38064">
        <ele>1856.2</ele>
        <time>2024-08-12T05:29:56Z</time>
      </trkpt>
      <trkpt lat="44.80935" lon="6.38064">
        <ele>1856.4</ele>
        <time>2024-08-12T05:29:57Z</time>
      </trkpt>
      <trkpt lat="44.80935" lon="6.38061">
        <ele>1856.4</ele>
        <time>2024-08-12T05:29:58Z</time>
      </trkpt>
      <trkpt lat="44.80935" lon="6.38061">
        <ele>1856.4</ele>
        <time>2024-08-12T05:29:59Z</time>
      </trkpt>
      <trkpt lat="44.80935" lon="6.38061">
        <ele>1856.6</ele>
        <time>2024-08-12T05:30:00Z</time>
      </trkpt>
      <trkpt lat="44.80934" lon="6.38058">
        <ele>1856.8</ele>
        <time>2024-08-12T05:30:01Z</time>
      </trkpt>
      <trkpt lat="44.80934" lon="6.38058">
        <ele>1857.2</ele>
        <time>2024-08-12T05:30:02Z</time>
      </trkpt>
      <trkpt lat="44.80933" lon="6.38055">
        <ele>1857</ele>
        <time>2024-08-12T05:30:03Z</time>
      </trkpt>
      <trkpt lat="44.80933" lon="6.38055">
        <ele>1857</ele>
        <time>2024-08-12T05:30:04Z</time>
      </trkpt>
      <trkpt lat="44.80932" lon="6.38052">
        <ele>1857.2</ele>
        <time>2024-08-12T05:30:05Z</time>
      </trkpt>
      <trkpt lat="44.80932" lon="6.38052">
        <ele>1857.2</ele>
        <time>2024-08-12T05:30:06Z</time>
      </trkpt>
      <trkpt lat="44.80931" lon="6.38049">
        <ele>1857.4</ele>
        <time>2024-08-12T05:30:07Z</time>
      </trkpt>
      <trkpt lat="44.80931" lon="6.38049">
        <ele>1857.6</ele>
        <time>2024-08-12T05:30:08Z</time>
      </trkpt>
      <trkpt lat="44.8093" lon="6.38047">
        <ele>1857.8</ele>
        <time>2024-08-12T05:30:09Z</time>
      </trkpt>
      <trkpt lat="44.8093" lon="6.38047">
        <ele>1857.8</ele>
        <time>2024-08-12T05:30:10Z</time>
      </trkpt>
      <trkpt lat="44.80929" lon="6.38044">
        <ele>1857.8</ele>
        <time>2024-08-12T05:30:11Z</time>
      </trkpt>
      <trkpt lat="44.80929" lon="6.38044">
        <ele>1857.8</ele>
        <time>2024-08-12T05:30:12Z</time>
      </trkpt>
      <trkpt lat="44.80928" lon="6.38041">
        <ele>1858</ele>
        <time>2024-08-12T05:30:13Z</time>
      </trkpt>
      <trkpt lat="44.80928" lon="6.38041">
        <ele>1858.2</ele>
        <time>2024-08-12T05:30:14Z</time>
      </trkpt>
      <trkpt lat="44.80927" lon="6.38038">
        <ele>1858.2</ele>
        <time>2024-08-12T05:30:15Z</time>
      </trkpt>
      <trkpt lat="44.80927" lon="6.38038">
        <ele>1858.2</ele>
        <time>2024-08-12T05:30:16Z</time>
      </trkpt>
      <trkpt lat="44.80927" lon="6.38038">
        <ele>1858.6</ele>
        <time>2024-08-12T05:30:17Z</time>
      </trkpt>
      <trkpt lat="44.80926" lon="6.38036">
        <ele>1858.8</ele>
        <time>2024-08-12T05:30:18Z</time>
      </trkpt>
      <trkpt lat="44.80926" lon="6.38036">
        <ele>1859.2</ele>
        <time>2024-08-12T05:30:19Z</time>
      </trkpt>
      <trkpt lat="44.80925" lon="6.38034">
        <ele>1859.4</ele>
        <time>2024-08-12T05:30:20Z</time>
      </trkpt>
      <trkpt lat="44.80925" lon="6.38034">
        <ele>1859.4</ele>
        <time>2024-08-12T05:30:21Z</time>
      </trkpt>
      <trkpt lat="44.80924" lon="6.38031">
        <ele>1859.2</ele>
        <time>2024-08-12T05:30:22Z</time>
      </trkpt>
      <trkpt lat="44.80924" lon="6.38031">
        <ele>1859.2</ele>
        <time>2024-08-12T05:30:23Z</time>
      </trkpt>
      <trkpt lat="44.80922" lon="6.38029">
        <ele>1859</ele>
        <time>2024-08-12T05:30:24Z</time>
      </trkpt>
      <trkpt lat="44.80922" lon="6.38029">
        <ele>1858.8</ele>
        <time>2024-08-12T05:30:25Z</time>
      </trkpt>
      <trkpt lat="44.8092" lon="6.38026">
        <ele>1858.8</ele>
        <time>2024-08-12T05:30:26Z</time>
      </trkpt>
      <trkpt lat="44.8092" lon="6.38026">
        <ele>1858.8</ele>
        <time>2024-08-12T05:30:27Z</time>
      </trkpt>
      <trkpt lat="44.80918" lon="6.38024">
        <ele>1858.8</ele>
        <time>2024-08-12T05:30:28Z</time>
      </trkpt>
      <trkpt lat="44.80918" lon="6.38024">
        <ele>1859</ele>
        <time>2024-08-12T05:30:29Z</time>
      </trkpt>
      <trkpt lat="44.80917" lon="6.38022">
        <ele>1859.2</ele>
        <time>2024-08-12T05:30:30Z</time>
      </trkpt>
      <trkpt lat="44.80917" lon="6.38022">
        <ele>1859.2</ele>
        <time>2024-08-12T05:30:31Z</time>
      </trkpt>
      <trkpt lat="44.80915" lon="6.3802">
        <ele>1859.2</ele>
        <time>2024-08-12T05:30:32Z</time>
      </trkpt>
      <trkpt lat="44.80915" lon="6.3802">
        <ele>1859.2</ele>
        <time>2024-08-12T05:30:33Z</time>
      </trkpt>
      <trkpt lat="44.80913" lon="6.38018">
        <ele>1859.2</ele>
        <time>2024-08-12T05:30:34Z</time>
      </trkpt>
      <trkpt lat="44.80913" lon="6.38018">
        <ele>1859.2</ele>
        <time>2024-08-12T05:30:35Z</time>
      </trkpt>
      <trkpt lat="44.80911" lon="6.38016">
        <ele>1858.8</ele>
        <time>2024-08-12T05:30:36Z</time>
      </trkpt>
      <trkpt lat="44.80911" lon="6.38016">
        <ele>1858.8</ele>
        <time>2024-08-12T05:30:37Z</time>
      </trkpt>
      <trkpt lat="44.80909" lon="6.38014">
        <ele>1859.2</ele>
        <time>2024-08-12T05:30:38Z</time>
      </trkpt>
      <trkpt lat="44.80909" lon="6.38014">
        <ele>1859.2</ele>
        <time>2024-08-12T05:30:39Z</time>
      </trkpt>
      <trkpt lat="44.80908" lon="6.38012">
        <ele>1859.2</ele>
        <time>2024-08-12T05:30:40Z</time>
      </trkpt>
      <trkpt lat="44.80908" lon="6.38012">
        <ele>1859</ele>
        <time>2024-08-12T05:30:41Z</time>
      </trkpt>
      <trkpt lat="44.80906" lon="6.38011">
        <ele>1859</ele>
        <time>2024-08-12T05:30:42Z</time>
      </trkpt>
      <trkpt lat="44.80906" lon="6.38011">
        <ele>1859.2</ele>
        <time>2024-08-12T05:30:43Z</time>
      </trkpt>
      <trkpt lat="44.80906" lon="6.38011">
        <ele>1859.6</ele>
        <time>2024-08-12T05:30:44Z</time>
      </trkpt>
      <trkpt lat="44.80902" lon="6.38009">
        <ele>1859.6</ele>
        <time>2024-08-12T05:30:45Z</time>
      </trkpt>
      <trkpt lat="44.80902" lon="6.38009">
        <ele>1859.6</ele>
        <time>2024-08-12T05:30:46Z</time>
      </trkpt>
      <trkpt lat="44.80901" lon="6.38008">
        <ele>1859.8</ele>
        <time>2024-08-12T05:30:47Z</time>
      </trkpt>
      <trkpt lat="44.80901" lon="6.38008">
        <ele>1860</ele>
        <time>2024-08-12T05:30:48Z</time>
      </trkpt>
      <trkpt lat="44.80899" lon="6.38007">
        <ele>1860.2</ele>
        <time>2024-08-12T05:30:49Z</time>
      </trkpt>
      <trkpt lat="44.80899" lon="6.38007">
        <ele>1860.2</ele>
        <time>2024-08-12T05:30:50Z</time>
      </trkpt>
      <trkpt lat="44.80897" lon="6.38006">
        <ele>1860.4</ele>
        <time>2024-08-12T05:30:51Z</time>
      </trkpt>
      <trkpt lat="44.80897" lon="6.38006">
        <ele>1860.6</ele>
        <time>2024-08-12T05:30:52Z</time>
      </trkpt>
      <trkpt lat="44.80895" lon="6.38005">
        <ele>1860.6</ele>
        <time>2024-08-12T05:30:53Z</time>
      </trkpt>
      <trkpt lat="44.80895" lon="6.38005">
        <ele>1860.6</ele>
        <time>2024-08-12T05:30:54Z</time>
      </trkpt>
      <trkpt lat="44.80893" lon="6.38004">
        <ele>1860.8</ele>
        <time>2024-08-12T05:30:55Z</time>
      </trkpt>
      <trkpt lat="44.80893" lon="6.38004">
        <ele>1860.8</ele>
        <time>2024-08-12T05:30:56Z</time>
      </trkpt>
      <trkpt lat="44.80891" lon="6.38002">
        <ele>1860.8</ele>
        <time>2024-08-12T05:30:57Z</time>
      </trkpt>
      <trkpt lat="44.80891" lon="6.38002">
        <ele>1861.2</ele>
        <time>2024-08-12T05:30:58Z</time>
      </trkpt>
      <trkpt lat="44.80891" lon="6.38002">
        <ele>1861.2</ele>
        <time>2024-08-12T05:30:59Z</time>
      </trkpt>
      <trkpt lat="44.80891" lon="6.38002">
        <ele>1861.4</ele>
        <time>2024-08-12T05:31:00Z</time>
      </trkpt>
      <trkpt lat="44.80888" lon="6.38002">
        <ele>1861.4</ele>
        <time>2024-08-12T05:31:01Z</time>
      </trkpt>
      <trkpt lat="44.80888" lon="6.38002">
        <ele>1862.2</ele>
        <time>2024-08-12T05:31:02Z</time>
      </trkpt>
      <trkpt lat="44.80886" lon="6.38001">
        <ele>1862.2</ele>
        <time>2024-08-12T05:31:03Z</time>
      </trkpt>
      <trkpt lat="44.80886" lon="6.38001">
        <ele>1862.4</ele>
        <time>2024-08-12T05:31:04Z</time>
      </trkpt>
      <trkpt lat="44.80886" lon="6.38001">
        <ele>1862.4</ele>
        <time>2024-08-12T05:31:05Z</time>
      </trkpt>
      <trkpt lat="44.80884" lon="6.38">
        <ele>1862.6</ele>
        <time>2024-08-12T05:31:06Z</time>
      </trkpt>
      <trkpt lat="44.80884" lon="6.38">
        <ele>1862.8</ele>
        <time>2024-08-12T05:31:07Z</time>
      </trkpt>
      <trkpt lat="44.80884" lon="6.38">
        <ele>1862.8</ele>
        <time>2024-08-12T05:31:08Z</time>
      </trkpt>
      <trkpt lat="44.80882" lon="6.37997">
        <ele>1862.8</ele>
        <time>2024-08-12T05:31:09Z</time>
      </trkpt>
      <trkpt lat="44.80882" lon="6.37997">
        <ele>1862.8</ele>
        <time>2024-08-12T05:31:10Z</time>
      </trkpt>
      <trkpt lat="44.80882" lon="6.37997">
        <ele>1862.8</ele>
        <time>2024-08-12T05:31:11Z</time>
      </trkpt>
      <trkpt lat="44.80884" lon="6.37995">
        <ele>1863.2</ele>
        <time>2024-08-12T05:31:12Z</time>
      </trkpt>
      <trkpt lat="44.80884" lon="6.37995">
        <ele>1863.6</ele>
        <time>2024-08-12T05:31:13Z</time>
      </trkpt>
      <trkpt lat="44.80884" lon="6.37995">
        <ele>1863.6</ele>
        <time>2024-08-12T05:31:14Z</time>
      </trkpt>
      <trkpt lat="44.80886" lon="6.37994">
        <ele>1863.8</ele>
        <time>2024-08-12T05:31:15Z</time>
      </trkpt>
      <trkpt lat="44.80886" lon="6.37994">
        <ele>1863.8</ele>
        <time>2024-08-12T05:31:16Z</time>
      </trkpt>
      <trkpt lat="44.80888" lon="6.37993">
        <ele>1864</ele>
        <time>2024-08-12T05:31:17Z</time>
      </trkpt>
      <trkpt lat="44.80888" lon="6.37993">
        <ele>1864</ele>
        <time>2024-08-12T05:31:18Z</time>
      </trkpt>
      <trkpt lat="44.80888" lon="6.37993">
        <ele>1864.2</ele>
        <time>2024-08-12T05:31:19Z</time>
      </trkpt>
      <trkpt lat="44.80888" lon="6.37993">
        <ele>1864.4</ele>
        <time>2024-08-12T05:31:20Z</time>
      </trkpt>
      <trkpt lat="44.80888" lon="6.37993">
        <ele>1864.6</ele>
        <time>2024-08-12T05:31:21Z</time>
      </trkpt>
      <trkpt lat="44.80887" lon="6.3799">
        <ele>1864.8</ele>
        <time>2024-08-12T05:31:22Z</time>
      </trkpt>
      <trkpt lat="44.80887" lon="6.3799">
        <ele>1865.2</ele>
        <time>2024-08-12T05:31:23Z</time>
      </trkpt>
      <trkpt lat="44.80887" lon="6.3799">
        <ele>1865.2</ele>
        <time>2024-08-12T05:31:24Z</time>
      </trkpt>
      <trkpt lat="44.80887" lon="6.3799">
        <ele>1865.2</ele>
        <time>2024-08-12T05:31:25Z</time>
      </trkpt>
      <trkpt lat="44.80887" lon="6.3799">
        <ele>1865.6</ele>
        <time>2024-08-12T05:31:26Z</time>
      </trkpt>
      <trkpt lat="44.80886" lon="6.37988">
        <ele>1865.8</ele>
        <time>2024-08-12T05:31:27Z</time>
      </trkpt>
      <trkpt lat="44.80886" lon="6.37988">
        <ele>1866</ele>
        <time>2024-08-12T05:31:28Z</time>
      </trkpt>
      <trkpt lat="44.80884" lon="6.37987">
        <ele>1866</ele>
        <time>2024-08-12T05:31:29Z</time>
      </trkpt>
      <trkpt lat="44.80884" lon="6.37987">
        <ele>1866.2</ele>
        <time>2024-08-12T05:31:30Z</time>
      </trkpt>
      <trkpt lat="44.80881" lon="6.37986">
        <ele>1866.2</ele>
        <time>2024-08-12T05:31:31Z</time>
      </trkpt>
      <trkpt lat="44.80881" lon="6.37986">
        <ele>1866.6</ele>
        <time>2024-08-12T05:31:32Z</time>
      </trkpt>
      <trkpt lat="44.80878" lon="6.37985">
        <ele>1866.6</ele>
        <time>2024-08-12T05:31:33Z</time>
      </trkpt>
      <trkpt lat="44.80878" lon="6.37985">
        <ele>1866.6</ele>
        <time>2024-08-12T05:31:34Z</time>
      </trkpt>
      <trkpt lat="44.80876" lon="6.37984">
        <ele>1866.6</ele>
        <time>2024-08-12T05:31:35Z</time>
      </trkpt>
      <trkpt lat="44.80876" lon="6.37984">
        <ele>1866.6</ele>
        <time>2024-08-12T05:31:36Z</time>
      </trkpt>
      <trkpt lat="44.80876" lon="6.37984">
        <ele>1866.6</ele>
        <time>2024-08-12T05:31:37Z</time>
      </trkpt>
      <trkpt lat="44.80874" lon="6.37983">
        <ele>1866.8</ele>
        <time>2024-08-12T05:31:38Z</time>
      </trkpt>
      <trkpt lat="44.80874" lon="6.37983">
        <ele>1866.8</ele>
        <time>2024-08-12T05:31:39Z</time>
      </trkpt>
      <trkpt lat="44.80872" lon="6.37981">
        <ele>1867.2</ele>
        <time>2024-08-12T05:31:40Z</time>
      </trkpt>
      <trkpt lat="44.80872" lon="6.37981">
        <ele>1867.4</ele>
        <time>2024-08-12T05:31:41Z</time>
      </trkpt>
      <trkpt lat="44.80871" lon="6.37979">
        <ele>1867.4</ele>
        <time>2024-08-12T05:31:42Z</time>
      </trkpt>
      <trkpt lat="44.80871" lon="6.37979">
        <ele>1867.4</ele>
        <time>2024-08-12T05:31:43Z</time>
      </trkpt>
      <trkpt lat="44.8087" lon="6.37977">
        <ele>1867.6</ele>
        <time>2024-08-12T05:31:44Z</time>
      </trkpt>
      <trkpt lat="44.8087" lon="6.37977">
        <ele>1867.8</ele>
        <time>2024-08-12T05:31:45Z</time>
      </trkpt>
      <trkpt lat="44.80868" lon="6.37975">
        <ele>1867.8</ele>
        <time>2024-08-12T05:31:46Z</time>
      </trkpt>
      <trkpt lat="44.80868" lon="6.37975">
        <ele>1867.8</ele>
        <time>2024-08-12T05:31:47Z</time>
      </trkpt>
      <trkpt lat="44.80867" lon="6.37973">
        <ele>1868.2</ele>
        <time>2024-08-12T05:31:48Z</time>
      </trkpt>
      <trkpt lat="44.80867" lon="6.37973">
        <ele>1868.4</ele>
        <time>2024-08-12T05:31:49Z</time>
      </trkpt>
      <trkpt lat="44.80866" lon="6.37971">
        <ele>1868.4</ele>
        <time>2024-08-12T05:31:50Z</time>
      </trkpt>
      <trkpt lat="44.80866" lon="6.37971">
        <ele>1868.6</ele>
        <time>2024-08-12T05:31:51Z</time>
      </trkpt>
      <trkpt lat="44.80864" lon="6.3797">
        <ele>1868.6</ele>
        <time>2024-08-12T05:31:52Z</time>
      </trkpt>
      <trkpt lat="44.80864" lon="6.3797">
        <ele>1868.8</ele>
        <time>2024-08-12T05:31:53Z</time>
      </trkpt>
      <trkpt lat="44.80863" lon="6.37967">
        <ele>1869</ele>
        <time>2024-08-12T05:31:54Z</time>
      </trkpt>
      <trkpt lat="44.80863" lon="6.37967">
        <ele>1869.2</ele>
        <time>2024-08-12T05:31:55Z</time>
      </trkpt>
      <trkpt lat="44.80863" lon="6.37967">
        <ele>1869.4</ele>
        <time>2024-08-12T05:31:56Z</time>
      </trkpt>
      <trkpt lat="44.80861" lon="6.37965">
        <ele>1869.6</ele>
        <time>2024-08-12T05:31:57Z</time>
      </trkpt>
      <trkpt lat="44.80861" lon="6.37965">
        <ele>1869.6</ele>
        <time>2024-08-12T05:31:58Z</time>
      </trkpt>
      <trkpt lat="44.8086" lon="6.37963">
        <ele>1869.8</ele>
        <time>2024-08-12T05:31:59Z</time>
      </trkpt>
      <trkpt lat="44.8086" lon="6.37963">
        <ele>1870</ele>
        <time>2024-08-12T05:32:00Z</time>
      </trkpt>
      <trkpt lat="44.8086" lon="6.37963">
        <ele>1870</ele>
        <time>2024-08-12T05:32:01Z</time>
      </trkpt>
      <trkpt lat="44.8086" lon="6.37963">
        <ele>1870.2</ele>
        <time>2024-08-12T05:32:02Z</time>
      </trkpt>
      <trkpt lat="44.8086" lon="6.37963">
        <ele>1870.2</ele>
        <time>2024-08-12T05:32:03Z</time>
      </trkpt>
      <trkpt lat="44.8086" lon="6.37963">
        <ele>1870.4</ele>
        <time>2024-08-12T05:32:04Z</time>
      </trkpt>
      <trkpt lat="44.8086" lon="6.37963">
        <ele>1870.6</ele>
        <time>2024-08-12T05:32:05Z</time>
      </trkpt>
      <trkpt lat="44.8086" lon="6.37963">
        <ele>1870.6</ele>
        <time>2024-08-12T05:32:06Z</time>
      </trkpt>
      <trkpt lat="44.8086" lon="6.37963">
        <ele>1870.6</ele>
        <time>2024-08-12T05:32:07Z</time>
      </trkpt>
      <trkpt lat="44.8086" lon="6.37963">
        <ele>1870.6</ele>
        <time>2024-08-12T05:32:08Z</time>
      </trkpt>
      <trkpt lat="44.8086" lon="6.37963">
        <ele>1870.4</ele>
        <time>2024-08-12T05:32:09Z</time>
      </trkpt>
      <trkpt lat="44.8086" lon="6.37963">
        <ele>1870.4</ele>
        <time>2024-08-12T05:32:10Z</time>
      </trkpt>
      <trkpt lat="44.80858" lon="6.37962">
        <ele>1870.4</ele>
        <time>2024-08-12T05:32:11Z</time>
      </trkpt>
      <trkpt lat="44.80858" lon="6.37962">
        <ele>1870.6</ele>
        <time>2024-08-12T05:32:12Z</time>
      </trkpt>
      <trkpt lat="44.80857" lon="6.3796">
        <ele>1870.6</ele>
        <time>2024-08-12T05:32:13Z</time>
      </trkpt>
      <trkpt lat="44.80857" lon="6.3796">
        <ele>1870.6</ele>
        <time>2024-08-12T05:32:14Z</time>
      </trkpt>
      <trkpt lat="44.80855" lon="6.37957">
        <ele>1870.6</ele>
        <time>2024-08-12T05:32:15Z</time>
      </trkpt>
      <trkpt lat="44.80855" lon="6.37957">
        <ele>1870.8</ele>
        <time>2024-08-12T05:32:16Z</time>
      </trkpt>
      <trkpt lat="44.80854" lon="6.37955">
        <ele>1870.8</ele>
        <time>2024-08-12T05:32:17Z</time>
      </trkpt>
      <trkpt lat="44.80854" lon="6.37955">
        <ele>1871</ele>
        <time>2024-08-12T05:32:18Z</time>
      </trkpt>
      <trkpt lat="44.80854" lon="6.37955">
        <ele>1871</ele>
        <time>2024-08-12T05:32:19Z</time>
      </trkpt>
      <trkpt lat="44.80853" lon="6.37952">
        <ele>1871.4</ele>
        <time>2024-08-12T05:32:20Z</time>
      </trkpt>
      <trkpt lat="44.80853" lon="6.37952">
        <ele>1871.4</ele>
        <time>2024-08-12T05:32:21Z</time>
      </trkpt>
      <trkpt lat="44.80853" lon="6.37952">
        <ele>1871.8</ele>
        <time>2024-08-12T05:32:22Z</time>
      </trkpt>
      <trkpt lat="44.80851" lon="6.3795">
        <ele>1872</ele>
        <time>2024-08-12T05:32:23Z</time>
      </trkpt>
      <trkpt lat="44.80851" lon="6.3795">
        <ele>1872</ele>
        <time>2024-08-12T05:32:24Z</time>
      </trkpt>
      <trkpt lat="44.8085" lon="6.37947">
        <ele>1872</ele>
        <time>2024-08-12T05:32:25Z</time>
      </trkpt>
      <trkpt lat="44.8085" lon="6.37947">
        <ele>1872.2</ele>
        <time>2024-08-12T05:32:26Z</time>
      </trkpt>
      <trkpt lat="44.8085" lon="6.37947">
        <ele>1872.6</ele>
        <time>2024-08-12T05:32:27Z</time>
      </trkpt>
      <trkpt lat="44.80847" lon="6.37945">
        <ele>1872.8</ele>
        <time>2024-08-12T05:32:28Z</time>
      </trkpt>
      <trkpt lat="44.80847" lon="6.37945">
        <ele>1873</ele>
        <time>2024-08-12T05:32:29Z</time>
      </trkpt>
      <trkpt lat="44.80847" lon="6.37945">
        <ele>1873</ele>
        <time>2024-08-12T05:32:30Z</time>
      </trkpt>
      <trkpt lat="44.80845" lon="6.37942">
        <ele>1873.2</ele>
        <time>2024-08-12T05:32:31Z</time>
      </trkpt>
      <trkpt lat="44.80845" lon="6.37942">
        <ele>1873.4</ele>
        <time>2024-08-12T05:32:32Z</time>
      </trkpt>
      <trkpt lat="44.80845" lon="6.37942">
        <ele>1873.6</ele>
        <time>2024-08-12T05:32:33Z</time>
      </trkpt>
      <trkpt lat="44.80843" lon="6.3794">
        <ele>1873.8</ele>
        <time>2024-08-12T05:32:34Z</time>
      </trkpt>
      <trkpt lat="44.80843" lon="6.3794">
        <ele>1874.2</ele>
        <time>2024-08-12T05:32:35Z</time>
      </trkpt>
      <trkpt lat="44.80843" lon="6.3794">
        <ele>1874.2</ele>
        <time>2024-08-12T05:32:36Z</time>
      </trkpt>
      <trkpt lat="44.80842" lon="6.37937">
        <ele>1874.4</ele>
        <time>2024-08-12T05:32:37Z</time>
      </trkpt>
      <trkpt lat="44.80842" lon="6.37937">
        <ele>1874.6</ele>
        <time>2024-08-12T05:32:38Z</time>
      </trkpt>
      <trkpt lat="44.80841" lon="6.37935">
        <ele>1874.8</ele>
        <time>2024-08-12T05:32:39Z</time>
      </trkpt>
      <trkpt lat="44.80841" lon="6.37935">
        <ele>1875</ele>
        <time>2024-08-12T05:32:40Z</time>
      </trkpt>
      <trkpt lat="44.80839" lon="6.37933">
        <ele>1875.2</ele>
        <time>2024-08-12T05:32:41Z</time>
      </trkpt>
      <trkpt lat="44.80839" lon="6.37933">
        <ele>1875.4</ele>
        <time>2024-08-12T05:32:42Z</time>
      </trkpt>
      <trkpt lat="44.80839" lon="6.37933">
        <ele>1875.6</ele>
        <time>2024-08-12T05:32:43Z</time>
      </trkpt>
      <trkpt lat="44.80837" lon="6.37932">
        <ele>1875.6</ele>
        <time>2024-08-12T05:32:44Z</time>
      </trkpt>
      <trkpt lat="44.80837" lon="6.37932">
        <ele>1875.6</ele>
        <time>2024-08-12T05:32:45Z</time>
      </trkpt>
      <trkpt lat="44.80837" lon="6.37932">
        <ele>1875.8</ele>
        <time>2024-08-12T05:32:46Z</time>
      </trkpt>
      <trkpt lat="44.80834" lon="6.37931">
        <ele>1876.2</ele>
        <time>2024-08-12T05:32:47Z</time>
      </trkpt>
      <trkpt lat="44.80834" lon="6.37931">
        <ele>1876.4</ele>
        <time>2024-08-12T05:32:48Z</time>
      </trkpt>
      <trkpt lat="44.80834" lon="6.37931">
        <ele>1876.8</ele>
        <time>2024-08-12T05:32:49Z</time>
      </trkpt>
      <trkpt lat="44.80831" lon="6.37931">
        <ele>1876.8</ele>
        <time>2024-08-12T05:32:50Z</time>
      </trkpt>
      <trkpt lat="44.80831" lon="6.37931">
        <ele>1877</ele>
        <time>2024-08-12T05:32:51Z</time>
      </trkpt>
      <trkpt lat="44.80829" lon="6.37931">
        <ele>1877</ele>
        <time>2024-08-12T05:32:52Z</time>
      </trkpt>
      <trkpt lat="44.80829" lon="6.37931">
        <ele>1877.2</ele>
        <time>2024-08-12T05:32:53Z</time>
      </trkpt>
      <trkpt lat="44.80829" lon="6.37931">
        <ele>1877.2</ele>
        <time>2024-08-12T05:32:54Z</time>
      </trkpt>
      <trkpt lat="44.80828" lon="6.37929">
        <ele>1877.4</ele>
        <time>2024-08-12T05:32:55Z</time>
      </trkpt>
      <trkpt lat="44.80828" lon="6.37929">
        <ele>1877.8</ele>
        <time>2024-08-12T05:32:56Z</time>
      </trkpt>
      <trkpt lat="44.80828" lon="6.37929">
        <ele>1877.8</ele>
        <time>2024-08-12T05:32:57Z</time>
      </trkpt>
      <trkpt lat="44.80828" lon="6.37926">
        <ele>1877.8</ele>
        <time>2024-08-12T05:32:58Z</time>
      </trkpt>
      <trkpt lat="44.80828" lon="6.37926">
        <ele>1878.2</ele>
        <time>2024-08-12T05:32:59Z</time>
      </trkpt>
      <trkpt lat="44.80828" lon="6.37923">
        <ele>1878.2</ele>
        <time>2024-08-12T05:33:00Z</time>
      </trkpt>
      <trkpt lat="44.80828" lon="6.37923">
        <ele>1878.2</ele>
        <time>2024-08-12T05:33:01Z</time>
      </trkpt>
      <trkpt lat="44.80828" lon="6.37923">
        <ele>1878.8</ele>
        <time>2024-08-12T05:33:02Z</time>
      </trkpt>
      <trkpt lat="44.80829" lon="6.3792">
        <ele>1878.8</ele>
        <time>2024-08-12T05:33:03Z</time>
      </trkpt>
      <trkpt lat="44.80829" lon="6.3792">
        <ele>1878.8</ele>
        <time>2024-08-12T05:33:04Z</time>
      </trkpt>
      <trkpt lat="44.80829" lon="6.3792">
        <ele>1879</ele>
        <time>2024-08-12T05:33:05Z</time>
      </trkpt>
      <trkpt lat="44.80831" lon="6.37918">
        <ele>1879.2</ele>
        <time>2024-08-12T05:33:06Z</time>
      </trkpt>
      <trkpt lat="44.80831" lon="6.37918">
        <ele>1879.4</ele>
        <time>2024-08-12T05:33:07Z</time>
      </trkpt>
      <trkpt lat="44.80831" lon="6.37918">
        <ele>1879.8</ele>
        <time>2024-08-12T05:33:08Z</time>
      </trkpt>
      <trkpt lat="44.80832" lon="6.37916">
        <ele>1879.8</ele>
        <time>2024-08-12T05:33:09Z</time>
      </trkpt>
      <trkpt lat="44.80832" lon="6.37916">
        <ele>1880</ele>
        <time>2024-08-12T05:33:10Z</time>
      </trkpt>
      <trkpt lat="44.80832" lon="6.37916">
        <ele>1880.2</ele>
        <time>2024-08-12T05:33:11Z</time>
      </trkpt>
      <trkpt lat="44.80833" lon="6.37913">
        <ele>1880.4</ele>
        <time>2024-08-12T05:33:12Z</time>
      </trkpt>
      <trkpt lat="44.80833" lon="6.37913">
        <ele>1880.6</ele>
        <time>2024-08-12T05:33:13Z</time>
      </trkpt>
      <trkpt lat="44.80833" lon="6.37913">
        <ele>1881</ele>
        <time>2024-08-12T05:33:14Z</time>
      </trkpt>
      <trkpt lat="44.80833" lon="6.37913">
        <ele>1881</ele>
        <time>2024-08-12T05:33:15Z</time>
      </trkpt>
      <trkpt lat="44.80835" lon="6.3791">
        <ele>1881.2</ele>
        <time>2024-08-12T05:33:16Z</time>
      </trkpt>
      <trkpt lat="44.80835" lon="6.3791">
        <ele>1881.4</ele>
        <time>2024-08-12T05:33:17Z</time>
      </trkpt>
      <trkpt lat="44.80835" lon="6.3791">
        <ele>1881.8</ele>
        <time>2024-08-12T05:33:18Z</time>
      </trkpt>
      <trkpt lat="44.80835" lon="6.3791">
        <ele>1882</ele>
        <time>2024-08-12T05:33:19Z</time>
      </trkpt>
      <trkpt lat="44.80833" lon="6.37907">
        <ele>1882</ele>
        <time>2024-08-12T05:33:20Z</time>
      </trkpt>
      <trkpt lat="44.80833" lon="6.37907">
        <ele>1882.2</ele>
        <time>2024-08-12T05:33:21Z</time>
      </trkpt>
      <trkpt lat="44.80833" lon="6.37907">
        <ele>1882.4</ele>
        <time>2024-08-12T05:33:22Z</time>
      </trkpt>
      <trkpt lat="44.80831" lon="6.37907">
        <ele>1882.6</ele>
        <time>2024-08-12T05:33:23Z</time>
      </trkpt>
      <trkpt lat="44.80831" lon="6.37907">
        <ele>1882.8</ele>
        <time>2024-08-12T05:33:24Z</time>
      </trkpt>
      <trkpt lat="44.80831" lon="6.37907">
        <ele>1882.8</ele>
        <time>2024-08-12T05:33:25Z</time>
      </trkpt>
      <trkpt lat="44.80829" lon="6.37907">
        <ele>1883</ele>
        <time>2024-08-12T05:33:26Z</time>
      </trkpt>
      <trkpt lat="44.80829" lon="6.37907">
        <ele>1883.2</ele>
        <time>2024-08-12T05:33:27Z</time>
      </trkpt>
      <trkpt lat="44.80827" lon="6.37907">
        <ele>1883.2</ele>
        <time>2024-08-12T05:33:28Z</time>
      </trkpt>
      <trkpt lat="44.80827" lon="6.37907">
        <ele>1883.2</ele>
        <time>2024-08-12T05:33:29Z</time>
      </trkpt>
      <trkpt lat="44.80825" lon="6.37906">
        <ele>1883.4</ele>
        <time>2024-08-12T05:33:30Z</time>
      </trkpt>
      <trkpt lat="44.80825" lon="6.37906">
        <ele>1883.6</ele>
        <time>2024-08-12T05:33:31Z</time>
      </trkpt>
      <trkpt lat="44.80825" lon="6.37906">
        <ele>1883.8</ele>
        <time>2024-08-12T05:33:32Z</time>
      </trkpt>
      <trkpt lat="44.80823" lon="6.37905">
        <ele>1884</ele>
        <time>2024-08-12T05:33:33Z</time>
      </trkpt>
      <trkpt lat="44.80823" lon="6.37905">
        <ele>1884.2</ele>
        <time>2024-08-12T05:33:34Z</time>
      </trkpt>
      <trkpt lat="44.80821" lon="6.37903">
        <ele>1884.2</ele>
        <time>2024-08-12T05:33:35Z</time>
      </trkpt>
      <trkpt lat="44.80821" lon="6.37903">
        <ele>1884.2</ele>
        <time>2024-08-12T05:33:36Z</time>
      </trkpt>
      <trkpt lat="44.80821" lon="6.37903">
        <ele>1884.2</ele>
        <time>2024-08-12T05:33:37Z</time>
      </trkpt>
      <trkpt lat="44.80819" lon="6.37902">
        <ele>1884.2</ele>
        <time>2024-08-12T05:33:38Z</time>
      </trkpt>
      <trkpt lat="44.80819" lon="6.37902">
        <ele>1884.6</ele>
        <time>2024-08-12T05:33:39Z</time>
      </trkpt>
      <trkpt lat="44.80819" lon="6.37902">
        <ele>1884.8</ele>
        <time>2024-08-12T05:33:40Z</time>
      </trkpt>
      <trkpt lat="44.80817" lon="6.379">
        <ele>1885</ele>
        <time>2024-08-12T05:33:41Z</time>
      </trkpt>
      <trkpt lat="44.80817" lon="6.379">
        <ele>1885.2</ele>
        <time>2024-08-12T05:33:42Z</time>
      </trkpt>
      <trkpt lat="44.80817" lon="6.379">
        <ele>1885.2</ele>
        <time>2024-08-12T05:33:43Z</time>
      </trkpt>
      <trkpt lat="44.80815" lon="6.37897">
        <ele>1885.6</ele>
        <time>2024-08-12T05:33:44Z</time>
      </trkpt>
      <trkpt lat="44.80815" lon="6.37897">
        <ele>1885.6</ele>
        <time>2024-08-12T05:33:45Z</time>
      </trkpt>
      <trkpt lat="44.80813" lon="6.37895">
        <ele>1885.6</ele>
        <time>2024-08-12T05:33:46Z</time>
      </trkpt>
      <trkpt lat="44.80813" lon="6.37895">
        <ele>1885.8</ele>
        <time>2024-08-12T05:33:47Z</time>
      </trkpt>
      <trkpt lat="44.80811" lon="6.37894">
        <ele>1885.8</ele>
        <time>2024-08-12T05:33:48Z</time>
      </trkpt>
      <trkpt lat="44.80811" lon="6.37894">
        <ele>1886.2</ele>
        <time>2024-08-12T05:33:49Z</time>
      </trkpt>
      <trkpt lat="44.80811" lon="6.37894">
        <ele>1886.2</ele>
        <time>2024-08-12T05:33:50Z</time>
      </trkpt>
      <trkpt lat="44.8081" lon="6.37891">
        <ele>1886.2</ele>
        <time>2024-08-12T05:33:51Z</time>
      </trkpt>
      <trkpt lat="44.8081" lon="6.37891">
        <ele>1886.2</ele>
        <time>2024-08-12T05:33:52Z</time>
      </trkpt>
      <trkpt lat="44.80808" lon="6.3789">
        <ele>1886.4</ele>
        <time>2024-08-12T05:33:53Z</time>
      </trkpt>
      <trkpt lat="44.80808" lon="6.3789">
        <ele>1886.8</ele>
        <time>2024-08-12T05:33:54Z</time>
      </trkpt>
      <trkpt lat="44.80808" lon="6.3789">
        <ele>1887</ele>
        <time>2024-08-12T05:33:55Z</time>
      </trkpt>
      <trkpt lat="44.80806" lon="6.37888">
        <ele>1887</ele>
        <time>2024-08-12T05:33:56Z</time>
      </trkpt>
      <trkpt lat="44.80806" lon="6.37888">
        <ele>1887.4</ele>
        <time>2024-08-12T05:33:57Z</time>
      </trkpt>
      <trkpt lat="44.80805" lon="6.37886">
        <ele>1887.4</ele>
        <time>2024-08-12T05:33:58Z</time>
      </trkpt>
      <trkpt lat="44.80805" lon="6.37886">
        <ele>1887.4</ele>
        <time>2024-08-12T05:33:59Z</time>
      </trkpt>
      <trkpt lat="44.80805" lon="6.37886">
        <ele>1887.6</ele>
        <time>2024-08-12T05:34:00Z</time>
      </trkpt>
      <trkpt lat="44.80803" lon="6.37884">
        <ele>1887.8</ele>
        <time>2024-08-12T05:34:01Z</time>
      </trkpt>
      <trkpt lat="44.80803" lon="6.37884">
        <ele>1888.2</ele>
        <time>2024-08-12T05:34:02Z</time>
      </trkpt>
      <trkpt lat="44.80801" lon="6.37882">
        <ele>1888.2</ele>
        <time>2024-08-12T05:34:03Z</time>
      </trkpt>
      <trkpt lat="44.80801" lon="6.37882">
        <ele>1888.2</ele>
        <time>2024-08-12T05:34:04Z</time>
      </trkpt>
      <trkpt lat="44.80801" lon="6.37882">
        <ele>1888.2</ele>
        <time>2024-08-12T05:34:05Z</time>
      </trkpt>
      <trkpt lat="44.80799" lon="6.3788">
        <ele>1888.4</ele>
        <time>2024-08-12T05:34:06Z</time>
      </trkpt>
      <trkpt lat="44.80799" lon="6.3788">
        <ele>1888.4</ele>
        <time>2024-08-12T05:34:07Z</time>
      </trkpt>
      <trkpt lat="44.80799" lon="6.3788">
        <ele>1888.4</ele>
        <time>2024-08-12T05:34:08Z</time>
      </trkpt>
      <trkpt lat="44.80797" lon="6.37877">
        <ele>1888.8</ele>
        <time>2024-08-12T05:34:09Z</time>
      </trkpt>
      <trkpt lat="44.80797" lon="6.37877">
        <ele>1888.8</ele>
        <time>2024-08-12T05:34:10Z</time>
      </trkpt>
      <trkpt lat="44.80797" lon="6.37877">
        <ele>1889.2</ele>
        <time>2024-08-12T05:34:11Z</time>
      </trkpt>
      <trkpt lat="44.80795" lon="6.37875">
        <ele>1889.4</ele>
        <time>2024-08-12T05:34:12Z</time>
      </trkpt>
      <trkpt lat="44.80795" lon="6.37875">
        <ele>1889.4</ele>
        <time>2024-08-12T05:34:13Z</time>
      </trkpt>
      <trkpt lat="44.80793" lon="6.37873">
        <ele>1889.6</ele>
        <time>2024-08-12T05:34:14Z</time>
      </trkpt>
      <trkpt lat="44.80793" lon="6.37873">
        <ele>1889.8</ele>
        <time>2024-08-12T05:34:15Z</time>
      </trkpt>
      <trkpt lat="44.80791" lon="6.37871">
        <ele>1889.8</ele>
        <time>2024-08-12T05:34:16Z</time>
      </trkpt>
      <trkpt lat="44.80791" lon="6.37871">
        <ele>1889.8</ele>
        <time>2024-08-12T05:34:17Z</time>
      </trkpt>
      <trkpt lat="44.80791" lon="6.37871">
        <ele>1890.2</ele>
        <time>2024-08-12T05:34:18Z</time>
      </trkpt>
      <trkpt lat="44.80792" lon="6.37868">
        <ele>1890.2</ele>
        <time>2024-08-12T05:34:19Z</time>
      </trkpt>
      <trkpt lat="44.80792" lon="6.37868">
        <ele>1890.8</ele>
        <time>2024-08-12T05:34:20Z</time>
      </trkpt>
      <trkpt lat="44.80794" lon="6.37867">
        <ele>1890.8</ele>
        <time>2024-08-12T05:34:21Z</time>
      </trkpt>
      <trkpt lat="44.80794" lon="6.37867">
        <ele>1891</ele>
        <time>2024-08-12T05:34:22Z</time>
      </trkpt>
      <trkpt lat="44.80794" lon="6.37867">
        <ele>1891.2</ele>
        <time>2024-08-12T05:34:23Z</time>
      </trkpt>
      <trkpt lat="44.80796" lon="6.37867">
        <ele>1891.2</ele>
        <time>2024-08-12T05:34:24Z</time>
      </trkpt>
      <trkpt lat="44.80796" lon="6.37867">
        <ele>1891.2</ele>
        <time>2024-08-12T05:34:25Z</time>
      </trkpt>
      <trkpt lat="44.80798" lon="6.37866">
        <ele>1891.4</ele>
        <time>2024-08-12T05:34:26Z</time>
      </trkpt>
      <trkpt lat="44.80798" lon="6.37866">
        <ele>1891.6</ele>
        <time>2024-08-12T05:34:27Z</time>
      </trkpt>
      <trkpt lat="44.808" lon="6.37866">
        <ele>1891.6</ele>
        <time>2024-08-12T05:34:28Z</time>
      </trkpt>
      <trkpt lat="44.808" lon="6.37866">
        <ele>1891.8</ele>
        <time>2024-08-12T05:34:29Z</time>
      </trkpt>
      <trkpt lat="44.80802" lon="6.37866">
        <ele>1892</ele>
        <time>2024-08-12T05:34:30Z</time>
      </trkpt>
      <trkpt lat="44.80802" lon="6.37866">
        <ele>1892.4</ele>
        <time>2024-08-12T05:34:31Z</time>
      </trkpt>
      <trkpt lat="44.80804" lon="6.37866">
        <ele>1892.4</ele>
        <time>2024-08-12T05:34:32Z</time>
      </trkpt>
      <trkpt lat="44.80804" lon="6.37866">
        <ele>1892.4</ele>
        <time>2024-08-12T05:34:33Z</time>
      </trkpt>
      <trkpt lat="44.80805" lon="6.37865">
        <ele>1892.6</ele>
        <time>2024-08-12T05:34:34Z</time>
      </trkpt>
      <trkpt lat="44.80805" lon="6.37865">
        <ele>1892.6</ele>
        <time>2024-08-12T05:34:35Z</time>
      </trkpt>
      <trkpt lat="44.80807" lon="6.37864">
        <ele>1892.6</ele>
        <time>2024-08-12T05:34:36Z</time>
      </trkpt>
      <trkpt lat="44.80807" lon="6.37864">
        <ele>1893</ele>
        <time>2024-08-12T05:34:37Z</time>
      </trkpt>
      <trkpt lat="44.80809" lon="6.37862">
        <ele>1893.2</ele>
        <time>2024-08-12T05:34:38Z</time>
      </trkpt>
      <trkpt lat="44.80809" lon="6.37862">
        <ele>1893.6</ele>
        <time>2024-08-12T05:34:39Z</time>
      </trkpt>
      <trkpt lat="44.80809" lon="6.37862">
        <ele>1893.8</ele>
        <time>2024-08-12T05:34:40Z</time>
      </trkpt>
      <trkpt lat="44.80811" lon="6.3786">
        <ele>1893.8</ele>
        <time>2024-08-12T05:34:41Z</time>
      </trkpt>
      <trkpt lat="44.80811" lon="6.3786">
        <ele>1893.8</ele>
        <time>2024-08-12T05:34:42Z</time>
      </trkpt>
      <trkpt lat="44.80811" lon="6.3786">
        <ele>1894</ele>
        <time>2024-08-12T05:34:43Z</time>
      </trkpt>
      <trkpt lat="44.80811" lon="6.3786">
        <ele>1894.2</ele>
        <time>2024-08-12T05:34:44Z</time>
      </trkpt>
      <trkpt lat="44.80809" lon="6.37857">
        <ele>1894.6</ele>
        <time>2024-08-12T05:34:45Z</time>
      </trkpt>
      <trkpt lat="44.80809" lon="6.37857">
        <ele>1894.6</ele>
        <time>2024-08-12T05:34:46Z</time>
      </trkpt>
      <trkpt lat="44.80809" lon="6.37857">
        <ele>1894.6</ele>
        <time>2024-08-12T05:34:47Z</time>
      </trkpt>
      <trkpt lat="44.80808" lon="6.37855">
        <ele>1894.6</ele>
        <time>2024-08-12T05:34:48Z</time>
      </trkpt>
      <trkpt lat="44.80808" lon="6.37855">
        <ele>1894.8</ele>
        <time>2024-08-12T05:34:49Z</time>
      </trkpt>
      <trkpt lat="44.80806" lon="6.37853">
        <ele>1895</ele>
        <time>2024-08-12T05:34:50Z</time>
      </trkpt>
      <trkpt lat="44.80806" lon="6.37853">
        <ele>1895</ele>
        <time>2024-08-12T05:34:51Z</time>
      </trkpt>
      <trkpt lat="44.80806" lon="6.37853">
        <ele>1895.6</ele>
        <time>2024-08-12T05:34:52Z</time>
      </trkpt>
      <trkpt lat="44.80805" lon="6.37852">
        <ele>1895.8</ele>
        <time>2024-08-12T05:34:53Z</time>
      </trkpt>
      <trkpt lat="44.80805" lon="6.37852">
        <ele>1895.8</ele>
        <time>2024-08-12T05:34:54Z</time>
      </trkpt>
      <trkpt lat="44.80803" lon="6.3785">
        <ele>1896</ele>
        <time>2024-08-12T05:34:55Z</time>
      </trkpt>
      <trkpt lat="44.80803" lon="6.3785">
        <ele>1896.4</ele>
        <time>2024-08-12T05:34:56Z</time>
      </trkpt>
      <trkpt lat="44.80803" lon="6.3785">
        <ele>1896.6</ele>
        <time>2024-08-12T05:34:57Z</time>
      </trkpt>
      <trkpt lat="44.80801" lon="6.37847">
        <ele>1896.6</ele>
        <time>2024-08-12T05:34:58Z</time>
      </trkpt>
      <trkpt lat="44.80801" lon="6.37847">
        <ele>1897</ele>
        <time>2024-08-12T05:34:59Z</time>
      </trkpt>
      <trkpt lat="44.80801" lon="6.37847">
        <ele>1897</ele>
        <time>2024-08-12T05:35:00Z</time>
      </trkpt>
      <trkpt lat="44.808" lon="6.37844">
        <ele>1897</ele>
        <time>2024-08-12T05:35:01Z</time>
      </trkpt>
      <trkpt lat="44.808" lon="6.37844">
        <ele>1897.2</ele>
        <time>2024-08-12T05:35:02Z</time>
      </trkpt>
      <trkpt lat="44.80798" lon="6.37843">
        <ele>1897.2</ele>
        <time>2024-08-12T05:35:03Z</time>
      </trkpt>
      <trkpt lat="44.80798" lon="6.37843">
        <ele>1897.4</ele>
        <time>2024-08-12T05:35:04Z</time>
      </trkpt>
      <trkpt lat="44.80798" lon="6.37843">
        <ele>1897.6</ele>
        <time>2024-08-12T05:35:05Z</time>
      </trkpt>
      <trkpt lat="44.80797" lon="6.3784">
        <ele>1897.8</ele>
        <time>2024-08-12T05:35:06Z</time>
      </trkpt>
      <trkpt lat="44.80797" lon="6.3784">
        <ele>1898.4</ele>
        <time>2024-08-12T05:35:07Z</time>
      </trkpt>
      <trkpt lat="44.80797" lon="6.3784">
        <ele>1898.4</ele>
        <time>2024-08-12T05:35:08Z</time>
      </trkpt>
      <trkpt lat="44.80796" lon="6.37837">
        <ele>1898.6</ele>
        <time>2024-08-12T05:35:09Z</time>
      </trkpt>
      <trkpt lat="44.80796" lon="6.37837">
        <ele>1898.8</ele>
        <time>2024-08-12T05:35:10Z</time>
      </trkpt>
      <trkpt lat="44.80796" lon="6.37837">
        <ele>1899</ele>
        <time>2024-08-12T05:35:11Z</time>
      </trkpt>
      <trkpt lat="44.80793" lon="6.37835">
        <ele>1899</ele>
        <time>2024-08-12T05:35:12Z</time>
      </trkpt>
      <trkpt lat="44.80793" lon="6.37835">
        <ele>1899.4</ele>
        <time>2024-08-12T05:35:13Z</time>
      </trkpt>
      <trkpt lat="44.80793" lon="6.37835">
        <ele>1899.8</ele>
        <time>2024-08-12T05:35:14Z</time>
      </trkpt>
      <trkpt lat="44.80792" lon="6.37833">
        <ele>1899.8</ele>
        <time>2024-08-12T05:35:15Z</time>
      </trkpt>
      <trkpt lat="44.80792" lon="6.37833">
        <ele>1899.8</ele>
        <time>2024-08-12T05:35:16Z</time>
      </trkpt>
      <trkpt lat="44.8079" lon="6.3783">
        <ele>1900</ele>
        <time>2024-08-12T05:35:17Z</time>
      </trkpt>
      <trkpt lat="44.8079" lon="6.3783">
        <ele>1900.2</ele>
        <time>2024-08-12T05:35:18Z</time>
      </trkpt>
      <trkpt lat="44.8079" lon="6.3783">
        <ele>1900.2</ele>
        <time>2024-08-12T05:35:19Z</time>
      </trkpt>
      <trkpt lat="44.8079" lon="6.37827">
        <ele>1900.4</ele>
        <time>2024-08-12T05:35:20Z</time>
      </trkpt>
      <trkpt lat="44.8079" lon="6.37827">
        <ele>1900.6</ele>
        <time>2024-08-12T05:35:21Z</time>
      </trkpt>
      <trkpt lat="44.8079" lon="6.37827">
        <ele>1900.8</ele>
        <time>2024-08-12T05:35:22Z</time>
      </trkpt>
      <trkpt lat="44.8079" lon="6.37827">
        <ele>1901</ele>
        <time>2024-08-12T05:35:23Z</time>
      </trkpt>
      <trkpt lat="44.8079" lon="6.37827">
        <ele>1901.4</ele>
        <time>2024-08-12T05:35:24Z</time>
      </trkpt>
      <trkpt lat="44.80789" lon="6.37824">
        <ele>1901.6</ele>
        <time>2024-08-12T05:35:25Z</time>
      </trkpt>
      <trkpt lat="44.80789" lon="6.37824">
        <ele>1901.8</ele>
        <time>2024-08-12T05:35:26Z</time>
      </trkpt>
      <trkpt lat="44.80789" lon="6.37824">
        <ele>1902.2</ele>
        <time>2024-08-12T05:35:27Z</time>
      </trkpt>
      <trkpt lat="44.80789" lon="6.37821">
        <ele>1902.4</ele>
        <time>2024-08-12T05:35:28Z</time>
      </trkpt>
      <trkpt lat="44.80789" lon="6.37821">
        <ele>1902.4</ele>
        <time>2024-08-12T05:35:29Z</time>
      </trkpt>
      <trkpt lat="44.80788" lon="6.37819">
        <ele>1902.4</ele>
        <time>2024-08-12T05:35:30Z</time>
      </trkpt>
      <trkpt lat="44.80788" lon="6.37819">
        <ele>1903</ele>
        <time>2024-08-12T05:35:31Z</time>
      </trkpt>
      <trkpt lat="44.80788" lon="6.37819">
        <ele>1903.2</ele>
        <time>2024-08-12T05:35:32Z</time>
      </trkpt>
      <trkpt lat="44.80787" lon="6.37816">
        <ele>1903.2</ele>
        <time>2024-08-12T05:35:33Z</time>
      </trkpt>
      <trkpt lat="44.80787" lon="6.37816">
        <ele>1903.2</ele>
        <time>2024-08-12T05:35:34Z</time>
      </trkpt>
      <trkpt lat="44.80785" lon="6.37814">
        <ele>1903.4</ele>
        <time>2024-08-12T05:35:35Z</time>
      </trkpt>
      <trkpt lat="44.80785" lon="6.37814">
        <ele>1903.8</ele>
        <time>2024-08-12T05:35:36Z</time>
      </trkpt>
      <trkpt lat="44.80785" lon="6.37814">
        <ele>1903.8</ele>
        <time>2024-08-12T05:35:37Z</time>
      </trkpt>
      <trkpt lat="44.80783" lon="6.37811">
        <ele>1904</ele>
        <time>2024-08-12T05:35:38Z</time>
      </trkpt>
      <trkpt lat="44.80783" lon="6.37811">
        <ele>1904</ele>
        <time>2024-08-12T05:35:39Z</time>
      </trkpt>
      <trkpt lat="44.80781" lon="6.37809">
        <ele>1904.2</ele>
        <time>2024-08-12T05:35:40Z</time>
      </trkpt>
      <trkpt lat="44.80781" lon="6.37809">
        <ele>1904.2</ele>
        <time>2024-08-12T05:35:41Z</time>
      </trkpt>
      <trkpt lat="44.8078" lon="6.37806">
        <ele>1904.2</ele>
        <time>2024-08-12T05:35:42Z</time>
      </trkpt>
      <trkpt lat="44.8078" lon="6.37806">
        <ele>1904.2</ele>
        <time>2024-08-12T05:35:43Z</time>
      </trkpt>
      <trkpt lat="44.80779" lon="6.37804">
        <ele>1904.2</ele>
        <time>2024-08-12T05:35:44Z</time>
      </trkpt>
      <trkpt lat="44.80779" lon="6.37804">
        <ele>1904.2</ele>
        <time>2024-08-12T05:35:45Z</time>
      </trkpt>
      <trkpt lat="44.80778" lon="6.37801">
        <ele>1904.4</ele>
        <time>2024-08-12T05:35:46Z</time>
      </trkpt>
      <trkpt lat="44.80778" lon="6.37801">
        <ele>1904.6</ele>
        <time>2024-08-12T05:35:47Z</time>
      </trkpt>
      <trkpt lat="44.80778" lon="6.37798">
        <ele>1904.6</ele>
        <time>2024-08-12T05:35:48Z</time>
      </trkpt>
      <trkpt lat="44.80778" lon="6.37798">
        <ele>1904.4</ele>
        <time>2024-08-12T05:35:49Z</time>
      </trkpt>
      <trkpt lat="44.80778" lon="6.37795">
        <ele>1904.4</ele>
        <time>2024-08-12T05:35:50Z</time>
      </trkpt>
      <trkpt lat="44.80778" lon="6.37795">
        <ele>1904.4</ele>
        <time>2024-08-12T05:35:51Z</time>
      </trkpt>
      <trkpt lat="44.80777" lon="6.37793">
        <ele>1904.2</ele>
        <time>2024-08-12T05:35:52Z</time>
      </trkpt>
      <trkpt lat="44.80777" lon="6.37793">
        <ele>1904.2</ele>
        <time>2024-08-12T05:35:53Z</time>
      </trkpt>
      <trkpt lat="44.80777" lon="6.3779">
        <ele>1904.2</ele>
        <time>2024-08-12T05:35:54Z</time>
      </trkpt>
      <trkpt lat="44.80777" lon="6.3779">
        <ele>1904.2</ele>
        <time>2024-08-12T05:35:55Z</time>
      </trkpt>
      <trkpt lat="44.80776" lon="6.37786">
        <ele>1904.2</ele>
        <time>2024-08-12T05:35:56Z</time>
      </trkpt>
      <trkpt lat="44.80776" lon="6.37786">
        <ele>1903.8</ele>
        <time>2024-08-12T05:35:57Z</time>
      </trkpt>
      <trkpt lat="44.80776" lon="6.37784">
        <ele>1903.2</ele>
        <time>2024-08-12T05:35:58Z</time>
      </trkpt>
      <trkpt lat="44.80776" lon="6.37784">
        <ele>1903</ele>
        <time>2024-08-12T05:35:59Z</time>
      </trkpt>
      <trkpt lat="44.80775" lon="6.37781">
        <ele>1903</ele>
        <time>2024-08-12T05:36:00Z</time>
      </trkpt>
      <trkpt lat="44.80775" lon="6.37781">
        <ele>1903</ele>
        <time>2024-08-12T05:36:01Z</time>
      </trkpt>
      <trkpt lat="44.80774" lon="6.37778">
        <ele>1903.2</ele>
        <time>2024-08-12T05:36:02Z</time>
      </trkpt>
      <trkpt lat="44.80774" lon="6.37778">
        <ele>1903.2</ele>
        <time>2024-08-12T05:36:03Z</time>
      </trkpt>
      <trkpt lat="44.80773" lon="6.37775">
        <ele>1903</ele>
        <time>2024-08-12T05:36:04Z</time>
      </trkpt>
      <trkpt lat="44.80773" lon="6.37775">
        <ele>1903</ele>
        <time>2024-08-12T05:36:05Z</time>
      </trkpt>
      <trkpt lat="44.80773" lon="6.37775">
        <ele>1902.8</ele>
        <time>2024-08-12T05:36:06Z</time>
      </trkpt>
      <trkpt lat="44.80774" lon="6.37772">
        <ele>1902.8</ele>
        <time>2024-08-12T05:36:07Z</time>
      </trkpt>
      <trkpt lat="44.80774" lon="6.37772">
        <ele>1902.8</ele>
        <time>2024-08-12T05:36:08Z</time>
      </trkpt>
      <trkpt lat="44.80773" lon="6.37769">
        <ele>1902.8</ele>
        <time>2024-08-12T05:36:09Z</time>
      </trkpt>
      <trkpt lat="44.80773" lon="6.37769">
        <ele>1903</ele>
        <time>2024-08-12T05:36:10Z</time>
      </trkpt>
      <trkpt lat="44.80773" lon="6.37766">
        <ele>1903.6</ele>
        <time>2024-08-12T05:36:11Z</time>
      </trkpt>
      <trkpt lat="44.80773" lon="6.37766">
        <ele>1903.8</ele>
        <time>2024-08-12T05:36:12Z</time>
      </trkpt>
      <trkpt lat="44.80773" lon="6.37762">
        <ele>1904</ele>
        <time>2024-08-12T05:36:13Z</time>
      </trkpt>
      <trkpt lat="44.80773" lon="6.37762">
        <ele>1904</ele>
        <time>2024-08-12T05:36:14Z</time>
      </trkpt>
      <trkpt lat="44.80773" lon="6.37759">
        <ele>1904</ele>
        <time>2024-08-12T05:36:15Z</time>
      </trkpt>
      <trkpt lat="44.80773" lon="6.37759">
        <ele>1904</ele>
        <time>2024-08-12T05:36:16Z</time>
      </trkpt>
      <trkpt lat="44.80773" lon="6.37756">
        <ele>1904</ele>
        <time>2024-08-12T05:36:17Z</time>
      </trkpt>
      <trkpt lat="44.80773" lon="6.37756">
        <ele>1904.2</ele>
        <time>2024-08-12T05:36:18Z</time>
      </trkpt>
      <trkpt lat="44.80772" lon="6.37753">
        <ele>1904.2</ele>
        <time>2024-08-12T05:36:19Z</time>
      </trkpt>
      <trkpt lat="44.80772" lon="6.37753">
        <ele>1904.4</ele>
        <time>2024-08-12T05:36:20Z</time>
      </trkpt>
      <trkpt lat="44.80771" lon="6.3775">
        <ele>1904.4</ele>
        <time>2024-08-12T05:36:21Z</time>
      </trkpt>
      <trkpt lat="44.80771" lon="6.3775">
        <ele>1904.4</ele>
        <time>2024-08-12T05:36:22Z</time>
      </trkpt>
      <trkpt lat="44.8077" lon="6.37748">
        <ele>1904.4</ele>
        <time>2024-08-12T05:36:23Z</time>
      </trkpt>
      <trkpt lat="44.8077" lon="6.37748">
        <ele>1904.6</ele>
        <time>2024-08-12T05:36:24Z</time>
      </trkpt>
      <trkpt lat="44.8077" lon="6.37748">
        <ele>1904.8</ele>
        <time>2024-08-12T05:36:25Z</time>
      </trkpt>
      <trkpt lat="44.80769" lon="6.37745">
        <ele>1904.8</ele>
        <time>2024-08-12T05:36:26Z</time>
      </trkpt>
      <trkpt lat="44.80769" lon="6.37745">
        <ele>1905.2</ele>
        <time>2024-08-12T05:36:27Z</time>
      </trkpt>
      <trkpt lat="44.80768" lon="6.37743">
        <ele>1905.2</ele>
        <time>2024-08-12T05:36:28Z</time>
      </trkpt>
      <trkpt lat="44.80768" lon="6.37743">
        <ele>1905.2</ele>
        <time>2024-08-12T05:36:29Z</time>
      </trkpt>
      <trkpt lat="44.80768" lon="6.37743">
        <ele>1905.2</ele>
        <time>2024-08-12T05:36:30Z</time>
      </trkpt>
      <trkpt lat="44.80768" lon="6.37743">
        <ele>1905.4</ele>
        <time>2024-08-12T05:36:31Z</time>
      </trkpt>
      <trkpt lat="44.80766" lon="6.37739">
        <ele>1905.4</ele>
        <time>2024-08-12T05:36:32Z</time>
      </trkpt>
      <trkpt lat="44.80766" lon="6.37739">
        <ele>1905.4</ele>
        <time>2024-08-12T05:36:33Z</time>
      </trkpt>
      <trkpt lat="44.80766" lon="6.37739">
        <ele>1905.6</ele>
        <time>2024-08-12T05:36:34Z</time>
      </trkpt>
      <trkpt lat="44.80765" lon="6.37736">
        <ele>1906.2</ele>
        <time>2024-08-12T05:36:35Z</time>
      </trkpt>
      <trkpt lat="44.80765" lon="6.37736">
        <ele>1906.2</ele>
        <time>2024-08-12T05:36:36Z</time>
      </trkpt>
      <trkpt lat="44.80765" lon="6.37736">
        <ele>1906.4</ele>
        <time>2024-08-12T05:36:37Z</time>
      </trkpt>
      <trkpt lat="44.80765" lon="6.37733">
        <ele>1906.4</ele>
        <time>2024-08-12T05:36:38Z</time>
      </trkpt>
      <trkpt lat="44.80765" lon="6.37733">
        <ele>1906.6</ele>
        <time>2024-08-12T05:36:39Z</time>
      </trkpt>
      <trkpt lat="44.80765" lon="6.37733">
        <ele>1907</ele>
        <time>2024-08-12T05:36:40Z</time>
      </trkpt>
      <trkpt lat="44.80764" lon="6.3773">
        <ele>1907.4</ele>
        <time>2024-08-12T05:36:41Z</time>
      </trkpt>
      <trkpt lat="44.80764" lon="6.3773">
        <ele>1907.4</ele>
        <time>2024-08-12T05:36:42Z</time>
      </trkpt>
      <trkpt lat="44.80764" lon="6.3773">
        <ele>1907.4</ele>
        <time>2024-08-12T05:36:43Z</time>
      </trkpt>
      <trkpt lat="44.80764" lon="6.3773">
        <ele>1907.4</ele>
        <time>2024-08-12T05:36:44Z</time>
      </trkpt>
      <trkpt lat="44.80765" lon="6.37727">
        <ele>1907.6</ele>
        <time>2024-08-12T05:36:45Z</time>
      </trkpt>
      <trkpt lat="44.80765" lon="6.37727">
        <ele>1908</ele>
        <time>2024-08-12T05:36:46Z</time>
      </trkpt>
      <trkpt lat="44.80765" lon="6.37727">
        <ele>1908</ele>
        <time>2024-08-12T05:36:47Z</time>
      </trkpt>
      <trkpt lat="44.80765" lon="6.37727">
        <ele>1908.4</ele>
        <time>2024-08-12T05:36:48Z</time>
      </trkpt>
      <trkpt lat="44.80765" lon="6.37727">
        <ele>1908.4</ele>
        <time>2024-08-12T05:36:49Z</time>
      </trkpt>
      <trkpt lat="44.80764" lon="6.37725">
        <ele>1908.6</ele>
        <time>2024-08-12T05:36:50Z</time>
      </trkpt>
      <trkpt lat="44.80764" lon="6.37725">
        <ele>1908.8</ele>
        <time>2024-08-12T05:36:51Z</time>
      </trkpt>
      <trkpt lat="44.80764" lon="6.37725">
        <ele>1908.8</ele>
        <time>2024-08-12T05:36:52Z</time>
      </trkpt>
      <trkpt lat="44.80762" lon="6.37724">
        <ele>1909.4</ele>
        <time>2024-08-12T05:36:53Z</time>
      </trkpt>
      <trkpt lat="44.80762" lon="6.37724">
        <ele>1909.4</ele>
        <time>2024-08-12T05:36:54Z</time>
      </trkpt>
      <trkpt lat="44.80761" lon="6.37722">
        <ele>1909.4</ele>
        <time>2024-08-12T05:36:55Z</time>
      </trkpt>
      <trkpt lat="44.80761" lon="6.37722">
        <ele>1909.6</ele>
        <time>2024-08-12T05:36:56Z</time>
      </trkpt>
      <trkpt lat="44.80759" lon="6.37721">
        <ele>1909.6</ele>
        <time>2024-08-12T05:36:57Z</time>
      </trkpt>
      <trkpt lat="44.80759" lon="6.37721">
        <ele>1909.6</ele>
        <time>2024-08-12T05:36:58Z</time>
      </trkpt>
      <trkpt lat="44.80757" lon="6.37719">
        <ele>1909.8</ele>
        <time>2024-08-12T05:36:59Z</time>
      </trkpt>
      <trkpt lat="44.80757" lon="6.37719">
        <ele>1909.8</ele>
        <time>2024-08-12T05:37:00Z</time>
      </trkpt>
      <trkpt lat="44.80755" lon="6.37717">
        <ele>1909.8</ele>
        <time>2024-08-12T05:37:01Z</time>
      </trkpt>
      <trkpt lat="44.80755" lon="6.37717">
        <ele>1910</ele>
        <time>2024-08-12T05:37:02Z</time>
      </trkpt>
      <trkpt lat="44.80755" lon="6.37717">
        <ele>1910</ele>
        <time>2024-08-12T05:37:03Z</time>
      </trkpt>
      <trkpt lat="44.80753" lon="6.37715">
        <ele>1910.4</ele>
        <time>2024-08-12T05:37:04Z</time>
      </trkpt>
      <trkpt lat="44.80753" lon="6.37715">
        <ele>1910.8</ele>
        <time>2024-08-12T05:37:05Z</time>
      </trkpt>
      <trkpt lat="44.80751" lon="6.37714">
        <ele>1911</ele>
        <time>2024-08-12T05:37:06Z</time>
      </trkpt>
      <trkpt lat="44.80751" lon="6.37714">
        <ele>1911.2</ele>
        <time>2024-08-12T05:37:07Z</time>
      </trkpt>
      <trkpt lat="44.8075" lon="6.37712">
        <ele>1911.4</ele>
        <time>2024-08-12T05:37:08Z</time>
      </trkpt>
      <trkpt lat="44.8075" lon="6.37712">
        <ele>1911.4</ele>
        <time>2024-08-12T05:37:09Z</time>
      </trkpt>
      <trkpt lat="44.8075" lon="6.37712">
        <ele>1911.8</ele>
        <time>2024-08-12T05:37:10Z</time>
      </trkpt>
      <trkpt lat="44.80749" lon="6.37709">
        <ele>1911.8</ele>
        <time>2024-08-12T05:37:11Z</time>
      </trkpt>
      <trkpt lat="44.80749" lon="6.37709">
        <ele>1912</ele>
        <time>2024-08-12T05:37:12Z</time>
      </trkpt>
      <trkpt lat="44.80749" lon="6.37709">
        <ele>1912.4</ele>
        <time>2024-08-12T05:37:13Z</time>
      </trkpt>
      <trkpt lat="44.80747" lon="6.37706">
        <ele>1912.4</ele>
        <time>2024-08-12T05:37:14Z</time>
      </trkpt>
      <trkpt lat="44.80747" lon="6.37706">
        <ele>1912.6</ele>
        <time>2024-08-12T05:37:15Z</time>
      </trkpt>
      <trkpt lat="44.80747" lon="6.37704">
        <ele>1912.6</ele>
        <time>2024-08-12T05:37:16Z</time>
      </trkpt>
      <trkpt lat="44.80747" lon="6.37704">
        <ele>1912.6</ele>
        <time>2024-08-12T05:37:17Z</time>
      </trkpt>
      <trkpt lat="44.80746" lon="6.37701">
        <ele>1912.8</ele>
        <time>2024-08-12T05:37:18Z</time>
      </trkpt>
      <trkpt lat="44.80746" lon="6.37701">
        <ele>1913</ele>
        <time>2024-08-12T05:37:19Z</time>
      </trkpt>
      <trkpt lat="44.80746" lon="6.37701">
        <ele>1913</ele>
        <time>2024-08-12T05:37:20Z</time>
      </trkpt>
      <trkpt lat="44.80745" lon="6.37698">
        <ele>1913</ele>
        <time>2024-08-12T05:37:21Z</time>
      </trkpt>
      <trkpt lat="44.80745" lon="6.37698">
        <ele>1913.4</ele>
        <time>2024-08-12T05:37:22Z</time>
      </trkpt>
      <trkpt lat="44.80743" lon="6.37697">
        <ele>1913.4</ele>
        <time>2024-08-12T05:37:23Z</time>
      </trkpt>
      <trkpt lat="44.80743" lon="6.37697">
        <ele>1913.4</ele>
        <time>2024-08-12T05:37:24Z</time>
      </trkpt>
      <trkpt lat="44.80741" lon="6.37696">
        <ele>1913.6</ele>
        <time>2024-08-12T05:37:25Z</time>
      </trkpt>
      <trkpt lat="44.80741" lon="6.37696">
        <ele>1913.6</ele>
        <time>2024-08-12T05:37:26Z</time>
      </trkpt>
      <trkpt lat="44.80739" lon="6.37696">
        <ele>1913.8</ele>
        <time>2024-08-12T05:37:27Z</time>
      </trkpt>
      <trkpt lat="44.80739" lon="6.37696">
        <ele>1913.8</ele>
        <time>2024-08-12T05:37:28Z</time>
      </trkpt>
      <trkpt lat="44.80737" lon="6.37695">
        <ele>1913.8</ele>
        <time>2024-08-12T05:37:29Z</time>
      </trkpt>
      <trkpt lat="44.80737" lon="6.37695">
        <ele>1914.4</ele>
        <time>2024-08-12T05:37:30Z</time>
      </trkpt>
      <trkpt lat="44.80737" lon="6.37695">
        <ele>1914.6</ele>
        <time>2024-08-12T05:37:31Z</time>
      </trkpt>
      <trkpt lat="44.80736" lon="6.37693">
        <ele>1914.8</ele>
        <time>2024-08-12T05:37:32Z</time>
      </trkpt>
      <trkpt lat="44.80736" lon="6.37693">
        <ele>1914.8</ele>
        <time>2024-08-12T05:37:33Z</time>
      </trkpt>
      <trkpt lat="44.80736" lon="6.37693">
        <ele>1915.2</ele>
        <time>2024-08-12T05:37:34Z</time>
      </trkpt>
      <trkpt lat="44.80736" lon="6.37693">
        <ele>1915.4</ele>
        <time>2024-08-12T05:37:35Z</time>
      </trkpt>
      <trkpt lat="44.80735" lon="6.3769">
        <ele>1915.6</ele>
        <time>2024-08-12T05:37:36Z</time>
      </trkpt>
      <trkpt lat="44.80735" lon="6.3769">
        <ele>1915.6</ele>
        <time>2024-08-12T05:37:37Z</time>
      </trkpt>
      <trkpt lat="44.80735" lon="6.3769">
        <ele>1916</ele>
        <time>2024-08-12T05:37:38Z</time>
      </trkpt>
      <trkpt lat="44.80735" lon="6.3769">
        <ele>1916.2</ele>
        <time>2024-08-12T05:37:39Z</time>
      </trkpt>
      <trkpt lat="44.80733" lon="6.37688">
        <ele>1916.2</ele>
        <time>2024-08-12T05:37:40Z</time>
      </trkpt>
      <trkpt lat="44.80733" lon="6.37688">
        <ele>1916.4</ele>
        <time>2024-08-12T05:37:41Z</time>
      </trkpt>
      <trkpt lat="44.80733" lon="6.37688">
        <ele>1916.6</ele>
        <time>2024-08-12T05:37:42Z</time>
      </trkpt>
      <trkpt lat="44.80732" lon="6.37686">
        <ele>1916.6</ele>
        <time>2024-08-12T05:37:43Z</time>
      </trkpt>
      <trkpt lat="44.80732" lon="6.37686">
        <ele>1917</ele>
        <time>2024-08-12T05:37:44Z</time>
      </trkpt>
      <trkpt lat="44.80732" lon="6.37686">
        <ele>1917.4</ele>
        <time>2024-08-12T05:37:45Z</time>
      </trkpt>
      <trkpt lat="44.8073" lon="6.37684">
        <ele>1917.4</ele>
        <time>2024-08-12T05:37:46Z</time>
      </trkpt>
      <trkpt lat="44.8073" lon="6.37684">
        <ele>1917.6</ele>
        <time>2024-08-12T05:37:47Z</time>
      </trkpt>
      <trkpt lat="44.8073" lon="6.37684">
        <ele>1917.8</ele>
        <time>2024-08-12T05:37:48Z</time>
      </trkpt>
      <trkpt lat="44.8073" lon="6.37684">
        <ele>1918</ele>
        <time>2024-08-12T05:37:49Z</time>
      </trkpt>
      <trkpt lat="44.80729" lon="6.37682">
        <ele>1918.4</ele>
        <time>2024-08-12T05:37:50Z</time>
      </trkpt>
      <trkpt lat="44.80729" lon="6.37682">
        <ele>1918.8</ele>
        <time>2024-08-12T05:37:51Z</time>
      </trkpt>
      <trkpt lat="44.80729" lon="6.37682">
        <ele>1918.8</ele>
        <time>2024-08-12T05:37:52Z</time>
      </trkpt>
      <trkpt lat="44.80727" lon="6.37679">
        <ele>1919.2</ele>
        <time>2024-08-12T05:37:53Z</time>
      </trkpt>
      <trkpt lat="44.80727" lon="6.37679">
        <ele>1919.2</ele>
        <time>2024-08-12T05:37:54Z</time>
      </trkpt>
      <trkpt lat="44.80725" lon="6.37679">
        <ele>1919.6</ele>
        <time>2024-08-12T05:37:55Z</time>
      </trkpt>
      <trkpt lat="44.80725" lon="6.37679">
        <ele>1919.8</ele>
        <time>2024-08-12T05:37:56Z</time>
      </trkpt>
      <trkpt lat="44.80724" lon="6.37678">
        <ele>1919.8</ele>
        <time>2024-08-12T05:37:57Z</time>
      </trkpt>
      <trkpt lat="44.80724" lon="6.37678">
        <ele>1919.8</ele>
        <time>2024-08-12T05:37:58Z</time>
      </trkpt>
      <trkpt lat="44.80721" lon="6.37677">
        <ele>1920</ele>
        <time>2024-08-12T05:37:59Z</time>
      </trkpt>
      <trkpt lat="44.80721" lon="6.37677">
        <ele>1920</ele>
        <time>2024-08-12T05:38:00Z</time>
      </trkpt>
      <trkpt lat="44.80719" lon="6.37676">
        <ele>1920</ele>
        <time>2024-08-12T05:38:01Z</time>
      </trkpt>
      <trkpt lat="44.80719" lon="6.37676">
        <ele>1920</ele>
        <time>2024-08-12T05:38:02Z</time>
      </trkpt>
      <trkpt lat="44.80717" lon="6.37676">
        <ele>1920</ele>
        <time>2024-08-12T05:38:03Z</time>
      </trkpt>
      <trkpt lat="44.80717" lon="6.37676">
        <ele>1920.2</ele>
        <time>2024-08-12T05:38:04Z</time>
      </trkpt>
      <trkpt lat="44.80716" lon="6.37675">
        <ele>1920.4</ele>
        <time>2024-08-12T05:38:05Z</time>
      </trkpt>
      <trkpt lat="44.80716" lon="6.37675">
        <ele>1920.6</ele>
        <time>2024-08-12T05:38:06Z</time>
      </trkpt>
      <trkpt lat="44.80714" lon="6.37673">
        <ele>1921</ele>
        <time>2024-08-12T05:38:07Z</time>
      </trkpt>
      <trkpt lat="44.80714" lon="6.37673">
        <ele>1921</ele>
        <time>2024-08-12T05:38:08Z</time>
      </trkpt>
      <trkpt lat="44.80714" lon="6.37673">
        <ele>1921.2</ele>
        <time>2024-08-12T05:38:09Z</time>
      </trkpt>
      <trkpt lat="44.80711" lon="6.37672">
        <ele>1921.2</ele>
        <time>2024-08-12T05:38:10Z</time>
      </trkpt>
      <trkpt lat="44.80711" lon="6.37672">
        <ele>1921.6</ele>
        <time>2024-08-12T05:38:11Z</time>
      </trkpt>
      <trkpt lat="44.80709" lon="6.37671">
        <ele>1921.6</ele>
        <time>2024-08-12T05:38:12Z</time>
      </trkpt>
      <trkpt lat="44.80709" lon="6.37671">
        <ele>1921.6</ele>
        <time>2024-08-12T05:38:13Z</time>
      </trkpt>
      <trkpt lat="44.80708" lon="6.37669">
        <ele>1922</ele>
        <time>2024-08-12T05:38:14Z</time>
      </trkpt>
      <trkpt lat="44.80708" lon="6.37669">
        <ele>1922.2</ele>
        <time>2024-08-12T05:38:15Z</time>
      </trkpt>
      <trkpt lat="44.80707" lon="6.37667">
        <ele>1922.2</ele>
        <time>2024-08-12T05:38:16Z</time>
      </trkpt>
      <trkpt lat="44.80707" lon="6.37667">
        <ele>1922.2</ele>
        <time>2024-08-12T05:38:17Z</time>
      </trkpt>
      <trkpt lat="44.80707" lon="6.37667">
        <ele>1922.4</ele>
        <time>2024-08-12T05:38:18Z</time>
      </trkpt>
      <trkpt lat="44.80705" lon="6.37664">
        <ele>1922.6</ele>
        <time>2024-08-12T05:38:19Z</time>
      </trkpt>
      <trkpt lat="44.80705" lon="6.37664">
        <ele>1922.8</ele>
        <time>2024-08-12T05:38:20Z</time>
      </trkpt>
      <trkpt lat="44.80703" lon="6.37662">
        <ele>1922.8</ele>
        <time>2024-08-12T05:38:21Z</time>
      </trkpt>
      <trkpt lat="44.80703" lon="6.37662">
        <ele>1922.8</ele>
        <time>2024-08-12T05:38:22Z</time>
      </trkpt>
      <trkpt lat="44.80702" lon="6.3766">
        <ele>1923.2</ele>
        <time>2024-08-12T05:38:23Z</time>
      </trkpt>
      <trkpt lat="44.80702" lon="6.3766">
        <ele>1923.4</ele>
        <time>2024-08-12T05:38:24Z</time>
      </trkpt>
      <trkpt lat="44.80702" lon="6.3766">
        <ele>1923.4</ele>
        <time>2024-08-12T05:38:25Z</time>
      </trkpt>
      <trkpt lat="44.80701" lon="6.37657">
        <ele>1923.6</ele>
        <time>2024-08-12T05:38:26Z</time>
      </trkpt>
      <trkpt lat="44.80701" lon="6.37657">
        <ele>1923.8</ele>
        <time>2024-08-12T05:38:27Z</time>
      </trkpt>
      <trkpt lat="44.80701" lon="6.37657">
        <ele>1923.8</ele>
        <time>2024-08-12T05:38:28Z</time>
      </trkpt>
      <trkpt lat="44.807" lon="6.37654">
        <ele>1924.2</ele>
        <time>2024-08-12T05:38:29Z</time>
      </trkpt>
      <trkpt lat="44.807" lon="6.37654">
        <ele>1924.2</ele>
        <time>2024-08-12T05:38:30Z</time>
      </trkpt>
      <trkpt lat="44.80699" lon="6.37651">
        <ele>1924.2</ele>
        <time>2024-08-12T05:38:31Z</time>
      </trkpt>
      <trkpt lat="44.80699" lon="6.37651">
        <ele>1924.2</ele>
        <time>2024-08-12T05:38:32Z</time>
      </trkpt>
      <trkpt lat="44.80698" lon="6.37649">
        <ele>1924.6</ele>
        <time>2024-08-12T05:38:33Z</time>
      </trkpt>
      <trkpt lat="44.80698" lon="6.37649">
        <ele>1925</ele>
        <time>2024-08-12T05:38:34Z</time>
      </trkpt>
      <trkpt lat="44.80698" lon="6.37649">
        <ele>1925</ele>
        <time>2024-08-12T05:38:35Z</time>
      </trkpt>
      <trkpt lat="44.80697" lon="6.37646">
        <ele>1925.2</ele>
        <time>2024-08-12T05:38:36Z</time>
      </trkpt>
      <trkpt lat="44.80697" lon="6.37646">
        <ele>1925.2</ele>
        <time>2024-08-12T05:38:37Z</time>
      </trkpt>
      <trkpt lat="44.80696" lon="6.37644">
        <ele>1925.4</ele>
        <time>2024-08-12T05:38:38Z</time>
      </trkpt>
      <trkpt lat="44.80696" lon="6.37644">
        <ele>1925.6</ele>
        <time>2024-08-12T05:38:39Z</time>
      </trkpt>
      <trkpt lat="44.80694" lon="6.37642">
        <ele>1926</ele>
        <time>2024-08-12T05:38:40Z</time>
      </trkpt>
      <trkpt lat="44.80694" lon="6.37642">
        <ele>1926.2</ele>
        <time>2024-08-12T05:38:41Z</time>
      </trkpt>
      <trkpt lat="44.80694" lon="6.37642">
        <ele>1926.2</ele>
        <time>2024-08-12T05:38:42Z</time>
      </trkpt>
      <trkpt lat="44.80692" lon="6.37639">
        <ele>1926.2</ele>
        <time>2024-08-12T05:38:43Z</time>
      </trkpt>
      <trkpt lat="44.80692" lon="6.37639">
        <ele>1926.4</ele>
        <time>2024-08-12T05:38:44Z</time>
      </trkpt>
      <trkpt lat="44.80692" lon="6.37639">
        <ele>1926.6</ele>
        <time>2024-08-12T05:38:45Z</time>
      </trkpt>
      <trkpt lat="44.8069" lon="6.37636">
        <ele>1926.8</ele>
        <time>2024-08-12T05:38:46Z</time>
      </trkpt>
      <trkpt lat="44.8069" lon="6.37636">
        <ele>1926.8</ele>
        <time>2024-08-12T05:38:47Z</time>
      </trkpt>
      <trkpt lat="44.80689" lon="6.37634">
        <ele>1927</ele>
        <time>2024-08-12T05:38:48Z</time>
      </trkpt>
      <trkpt lat="44.80689" lon="6.37634">
        <ele>1927</ele>
        <time>2024-08-12T05:38:49Z</time>
      </trkpt>
      <trkpt lat="44.80689" lon="6.37634">
        <ele>1927.2</ele>
        <time>2024-08-12T05:38:50Z</time>
      </trkpt>
      <trkpt lat="44.80687" lon="6.37632">
        <ele>1927.4</ele>
        <time>2024-08-12T05:38:51Z</time>
      </trkpt>
      <trkpt lat="44.80687" lon="6.37632">
        <ele>1927.4</ele>
        <time>2024-08-12T05:38:52Z</time>
      </trkpt>
      <trkpt lat="44.80686" lon="6.3763">
        <ele>1927.8</ele>
        <time>2024-08-12T05:38:53Z</time>
      </trkpt>
      <trkpt lat="44.80686" lon="6.3763">
        <ele>1927.8</ele>
        <time>2024-08-12T05:38:54Z</time>
      </trkpt>
      <trkpt lat="44.80686" lon="6.3763">
        <ele>1928</ele>
        <time>2024-08-12T05:38:55Z</time>
      </trkpt>
      <trkpt lat="44.80685" lon="6.37627">
        <ele>1928.2</ele>
        <time>2024-08-12T05:38:56Z</time>
      </trkpt>
      <trkpt lat="44.80685" lon="6.37627">
        <ele>1928.4</ele>
        <time>2024-08-12T05:38:57Z</time>
      </trkpt>
      <trkpt lat="44.80683" lon="6.37626">
        <ele>1928.6</ele>
        <time>2024-08-12T05:38:58Z</time>
      </trkpt>
      <trkpt lat="44.80683" lon="6.37626">
        <ele>1928.6</ele>
        <time>2024-08-12T05:38:59Z</time>
      </trkpt>
      <trkpt lat="44.80681" lon="6.37624">
        <ele>1929.4</ele>
        <time>2024-08-12T05:39:00Z</time>
      </trkpt>
      <trkpt lat="44.80681" lon="6.37624">
        <ele>1929.4</ele>
        <time>2024-08-12T05:39:01Z</time>
      </trkpt>
      <trkpt lat="44.8068" lon="6.37623">
        <ele>1929.4</ele>
        <time>2024-08-12T05:39:02Z</time>
      </trkpt>
      <trkpt lat="44.8068" lon="6.37623">
        <ele>1929.4</ele>
        <time>2024-08-12T05:39:03Z</time>
      </trkpt>
      <trkpt lat="44.8068" lon="6.37623">
        <ele>1929.4</ele>
        <time>2024-08-12T05:39:04Z</time>
      </trkpt>
      <trkpt lat="44.80678" lon="6.37622">
        <ele>1929.6</ele>
        <time>2024-08-12T05:39:05Z</time>
      </trkpt>
      <trkpt lat="44.80678" lon="6.37622">
        <ele>1929.8</ele>
        <time>2024-08-12T05:39:06Z</time>
      </trkpt>
      <trkpt lat="44.80676" lon="6.37621">
        <ele>1930</ele>
        <time>2024-08-12T05:39:07Z</time>
      </trkpt>
      <trkpt lat="44.80676" lon="6.37621">
        <ele>1930</ele>
        <time>2024-08-12T05:39:08Z</time>
      </trkpt>
      <trkpt lat="44.80676" lon="6.37621">
        <ele>1930</ele>
        <time>2024-08-12T05:39:09Z</time>
      </trkpt>
      <trkpt lat="44.80674" lon="6.3762">
        <ele>1930</ele>
        <time>2024-08-12T05:39:10Z</time>
      </trkpt>
      <trkpt lat="44.80674" lon="6.3762">
        <ele>1930</ele>
        <time>2024-08-12T05:39:11Z</time>
      </trkpt>
      <trkpt lat="44.80672" lon="6.37619">
        <ele>1930.2</ele>
        <time>2024-08-12T05:39:12Z</time>
      </trkpt>
      <trkpt lat="44.80672" lon="6.37619">
        <ele>1930.2</ele>
        <time>2024-08-12T05:39:13Z</time>
      </trkpt>
      <trkpt lat="44.8067" lon="6.37618">
        <ele>1930</ele>
        <time>2024-08-12T05:39:14Z</time>
      </trkpt>
      <trkpt lat="44.8067" lon="6.37618">
        <ele>1929.8</ele>
        <time>2024-08-12T05:39:15Z</time>
      </trkpt>
      <trkpt lat="44.8067" lon="6.37618">
        <ele>1929.8</ele>
        <time>2024-08-12T05:39:16Z</time>
      </trkpt>
      <trkpt lat="44.80668" lon="6.37616">
        <ele>1930.2</ele>
        <time>2024-08-12T05:39:17Z</time>
      </trkpt>
      <trkpt lat="44.80668" lon="6.37616">
        <ele>1930.2</ele>
        <time>2024-08-12T05:39:18Z</time>
      </trkpt>
      <trkpt lat="44.80668" lon="6.37616">
        <ele>1930.4</ele>
        <time>2024-08-12T05:39:19Z</time>
      </trkpt>
      <trkpt lat="44.80666" lon="6.37617">
        <ele>1930.4</ele>
        <time>2024-08-12T05:39:20Z</time>
      </trkpt>
      <trkpt lat="44.80666" lon="6.37617">
        <ele>1930.4</ele>
        <time>2024-08-12T05:39:21Z</time>
      </trkpt>
      <trkpt lat="44.80666" lon="6.37617">
        <ele>1930.6</ele>
        <time>2024-08-12T05:39:22Z</time>
      </trkpt>
      <trkpt lat="44.80664" lon="6.37618">
        <ele>1930.6</ele>
        <time>2024-08-12T05:39:23Z</time>
      </trkpt>
      <trkpt lat="44.80664" lon="6.37618">
        <ele>1930.8</ele>
        <time>2024-08-12T05:39:24Z</time>
      </trkpt>
      <trkpt lat="44.80664" lon="6.37618">
        <ele>1931</ele>
        <time>2024-08-12T05:39:25Z</time>
      </trkpt>
      <trkpt lat="44.80663" lon="6.37615">
        <ele>1931.4</ele>
        <time>2024-08-12T05:39:26Z</time>
      </trkpt>
      <trkpt lat="44.80663" lon="6.37615">
        <ele>1932</ele>
        <time>2024-08-12T05:39:27Z</time>
      </trkpt>
      <trkpt lat="44.80661" lon="6.37614">
        <ele>1932.2</ele>
        <time>2024-08-12T05:39:28Z</time>
      </trkpt>
      <trkpt lat="44.80661" lon="6.37614">
        <ele>1932.4</ele>
        <time>2024-08-12T05:39:29Z</time>
      </trkpt>
      <trkpt lat="44.80661" lon="6.37614">
        <ele>1932.6</ele>
        <time>2024-08-12T05:39:30Z</time>
      </trkpt>
      <trkpt lat="44.8066" lon="6.37613">
        <ele>1932.8</ele>
        <time>2024-08-12T05:39:31Z</time>
      </trkpt>
      <trkpt lat="44.8066" lon="6.37613">
        <ele>1932.8</ele>
        <time>2024-08-12T05:39:32Z</time>
      </trkpt>
      <trkpt lat="44.80658" lon="6.37611">
        <ele>1933</ele>
        <time>2024-08-12T05:39:33Z</time>
      </trkpt>
      <trkpt lat="44.80658" lon="6.37611">
        <ele>1933.2</ele>
        <time>2024-08-12T05:39:34Z</time>
      </trkpt>
      <trkpt lat="44.80658" lon="6.37611">
        <ele>1933.4</ele>
        <time>2024-08-12T05:39:35Z</time>
      </trkpt>
      <trkpt lat="44.80656" lon="6.37609">
        <ele>1933.8</ele>
        <time>2024-08-12T05:39:36Z</time>
      </trkpt>
      <trkpt lat="44.80656" lon="6.37609">
        <ele>1933.8</ele>
        <time>2024-08-12T05:39:37Z</time>
      </trkpt>
      <trkpt lat="44.80654" lon="6.37607">
        <ele>1933.6</ele>
        <time>2024-08-12T05:39:38Z</time>
      </trkpt>
      <trkpt lat="44.80654" lon="6.37607">
        <ele>1933.6</ele>
        <time>2024-08-12T05:39:39Z</time>
      </trkpt>
      <trkpt lat="44.80653" lon="6.37604">
        <ele>1934</ele>
        <time>2024-08-12T05:39:40Z</time>
      </trkpt>
      <trkpt lat="44.80653" lon="6.37604">
        <ele>1934.2</ele>
        <time>2024-08-12T05:39:41Z</time>
      </trkpt>
      <trkpt lat="44.80652" lon="6.37602">
        <ele>1934.2</ele>
        <time>2024-08-12T05:39:42Z</time>
      </trkpt>
      <trkpt lat="44.80652" lon="6.37602">
        <ele>1934.4</ele>
        <time>2024-08-12T05:39:43Z</time>
      </trkpt>
      <trkpt lat="44.80651" lon="6.37599">
        <ele>1934.4</ele>
        <time>2024-08-12T05:39:44Z</time>
      </trkpt>
      <trkpt lat="44.80651" lon="6.37599">
        <ele>1934.4</ele>
        <time>2024-08-12T05:39:45Z</time>
      </trkpt>
      <trkpt lat="44.80651" lon="6.37599">
        <ele>1934.4</ele>
        <time>2024-08-12T05:39:46Z</time>
      </trkpt>
      <trkpt lat="44.8065" lon="6.37596">
        <ele>1935</ele>
        <time>2024-08-12T05:39:47Z</time>
      </trkpt>
      <trkpt lat="44.8065" lon="6.37596">
        <ele>1935.2</ele>
        <time>2024-08-12T05:39:48Z</time>
      </trkpt>
      <trkpt lat="44.80648" lon="6.37595">
        <ele>1935.2</ele>
        <time>2024-08-12T05:39:49Z</time>
      </trkpt>
      <trkpt lat="44.80648" lon="6.37595">
        <ele>1935.2</ele>
        <time>2024-08-12T05:39:50Z</time>
      </trkpt>
      <trkpt lat="44.80646" lon="6.37593">
        <ele>1935.2</ele>
        <time>2024-08-12T05:39:51Z</time>
      </trkpt>
      <trkpt lat="44.80646" lon="6.37593">
        <ele>1935.8</ele>
        <time>2024-08-12T05:39:52Z</time>
      </trkpt>
      <trkpt lat="44.80644" lon="6.37591">
        <ele>1936.2</ele>
        <time>2024-08-12T05:39:53Z</time>
      </trkpt>
      <trkpt lat="44.80644" lon="6.37591">
        <ele>1936.2</ele>
        <time>2024-08-12T05:39:54Z</time>
      </trkpt>
      <trkpt lat="44.80642" lon="6.37588">
        <ele>1936.4</ele>
        <time>2024-08-12T05:39:55Z</time>
      </trkpt>
      <trkpt lat="44.80642" lon="6.37588">
        <ele>1936.4</ele>
        <time>2024-08-12T05:39:56Z</time>
      </trkpt>
      <trkpt lat="44.80641" lon="6.37586">
        <ele>1936.4</ele>
        <time>2024-08-12T05:39:57Z</time>
      </trkpt>
      <trkpt lat="44.80641" lon="6.37586">
        <ele>1936.6</ele>
        <time>2024-08-12T05:39:58Z</time>
      </trkpt>
      <trkpt lat="44.80638" lon="6.37585">
        <ele>1936.8</ele>
        <time>2024-08-12T05:39:59Z</time>
      </trkpt>
      <trkpt lat="44.80638" lon="6.37585">
        <ele>1936.8</ele>
        <time>2024-08-12T05:40:00Z</time>
      </trkpt>
      <trkpt lat="44.80637" lon="6.37582">
        <ele>1937</ele>
        <time>2024-08-12T05:40:01Z</time>
      </trkpt>
      <trkpt lat="44.80637" lon="6.37582">
        <ele>1937.2</ele>
        <time>2024-08-12T05:40:02Z</time>
      </trkpt>
      <trkpt lat="44.80635" lon="6.3758">
        <ele>1937</ele>
        <time>2024-08-12T05:40:03Z</time>
      </trkpt>
      <trkpt lat="44.80635" lon="6.3758">
        <ele>1937</ele>
        <time>2024-08-12T05:40:04Z</time>
      </trkpt>
      <trkpt lat="44.80633" lon="6.37578">
        <ele>1937</ele>
        <time>2024-08-12T05:40:05Z</time>
      </trkpt>
      <trkpt lat="44.80633" lon="6.37578">
        <ele>1937</ele>
        <time>2024-08-12T05:40:06Z</time>
      </trkpt>
      <trkpt lat="44.8063" lon="6.37576">
        <ele>1937.4</ele>
        <time>2024-08-12T05:40:07Z</time>
      </trkpt>
      <trkpt lat="44.8063" lon="6.37576">
        <ele>1937.4</ele>
        <time>2024-08-12T05:40:08Z</time>
      </trkpt>
      <trkpt lat="44.8063" lon="6.37576">
        <ele>1937.4</ele>
        <time>2024-08-12T05:40:09Z</time>
      </trkpt>
      <trkpt lat="44.80629" lon="6.37573">
        <ele>1937.6</ele>
        <time>2024-08-12T05:40:10Z</time>
      </trkpt>
      <trkpt lat="44.80629" lon="6.37573">
        <ele>1937.6</ele>
        <time>2024-08-12T05:40:11Z</time>
      </trkpt>
      <trkpt lat="44.80628" lon="6.3757">
        <ele>1938</ele>
        <time>2024-08-12T05:40:12Z</time>
      </trkpt>
      <trkpt lat="44.80628" lon="6.3757">
        <ele>1938.2</ele>
        <time>2024-08-12T05:40:13Z</time>
      </trkpt>
      <trkpt lat="44.80627" lon="6.37568">
        <ele>1938.2</ele>
        <time>2024-08-12T05:40:14Z</time>
      </trkpt>
      <trkpt lat="44.80627" lon="6.37568">
        <ele>1938</ele>
        <time>2024-08-12T05:40:15Z</time>
      </trkpt>
      <trkpt lat="44.80626" lon="6.37566">
        <ele>1938</ele>
        <time>2024-08-12T05:40:16Z</time>
      </trkpt>
      <trkpt lat="44.80626" lon="6.37566">
        <ele>1938</ele>
        <time>2024-08-12T05:40:17Z</time>
      </trkpt>
      <trkpt lat="44.80623" lon="6.37565">
        <ele>1938</ele>
        <time>2024-08-12T05:40:18Z</time>
      </trkpt>
      <trkpt lat="44.80623" lon="6.37565">
        <ele>1938</ele>
        <time>2024-08-12T05:40:19Z</time>
      </trkpt>
      <trkpt lat="44.80621" lon="6.37564">
        <ele>1937.8</ele>
        <time>2024-08-12T05:40:20Z</time>
      </trkpt>
      <trkpt lat="44.80621" lon="6.37564">
        <ele>1937.6</ele>
        <time>2024-08-12T05:40:21Z</time>
      </trkpt>
      <trkpt lat="44.80619" lon="6.37563">
        <ele>1937.6</ele>
        <time>2024-08-12T05:40:22Z</time>
      </trkpt>
      <trkpt lat="44.80619" lon="6.37563">
        <ele>1937.6</ele>
        <time>2024-08-12T05:40:23Z</time>
      </trkpt>
      <trkpt lat="44.80619" lon="6.37563">
        <ele>1937.6</ele>
        <time>2024-08-12T05:40:24Z</time>
      </trkpt>
      <trkpt lat="44.80616" lon="6.37562">
        <ele>1937.4</ele>
        <time>2024-08-12T05:40:25Z</time>
      </trkpt>
      <trkpt lat="44.80616" lon="6.37562">
        <ele>1937.4</ele>
        <time>2024-08-12T05:40:26Z</time>
      </trkpt>
      <trkpt lat="44.80614" lon="6.37559">
        <ele>1937.4</ele>
        <time>2024-08-12T05:40:27Z</time>
      </trkpt>
      <trkpt lat="44.80614" lon="6.37559">
        <ele>1937.6</ele>
        <time>2024-08-12T05:40:28Z</time>
      </trkpt>
      <trkpt lat="44.80613" lon="6.37557">
        <ele>1937.6</ele>
        <time>2024-08-12T05:40:29Z</time>
      </trkpt>
      <trkpt lat="44.80613" lon="6.37557">
        <ele>1937.6</ele>
        <time>2024-08-12T05:40:30Z</time>
      </trkpt>
      <trkpt lat="44.80612" lon="6.37555">
        <ele>1937.6</ele>
        <time>2024-08-12T05:40:31Z</time>
      </trkpt>
      <trkpt lat="44.80612" lon="6.37555">
        <ele>1937.8</ele>
        <time>2024-08-12T05:40:32Z</time>
      </trkpt>
      <trkpt lat="44.80611" lon="6.37552">
        <ele>1937.8</ele>
        <time>2024-08-12T05:40:33Z</time>
      </trkpt>
      <trkpt lat="44.80611" lon="6.37552">
        <ele>1938</ele>
        <time>2024-08-12T05:40:34Z</time>
      </trkpt>
      <trkpt lat="44.8061" lon="6.37549">
        <ele>1938</ele>
        <time>2024-08-12T05:40:35Z</time>
      </trkpt>
      <trkpt lat="44.8061" lon="6.37549">
        <ele>1938</ele>
        <time>2024-08-12T05:40:36Z</time>
      </trkpt>
      <trkpt lat="44.80608" lon="6.37546">
        <ele>1938</ele>
        <time>2024-08-12T05:40:37Z</time>
      </trkpt>
      <trkpt lat="44.80608" lon="6.37546">
        <ele>1938</ele>
        <time>2024-08-12T05:40:38Z</time>
      </trkpt>
      <trkpt lat="44.80607" lon="6.37543">
        <ele>1937.8</ele>
        <time>2024-08-12T05:40:39Z</time>
      </trkpt>
      <trkpt lat="44.80607" lon="6.37543">
        <ele>1937.8</ele>
        <time>2024-08-12T05:40:40Z</time>
      </trkpt>
      <trkpt lat="44.80605" lon="6.37541">
        <ele>1937.8</ele>
        <time>2024-08-12T05:40:41Z</time>
      </trkpt>
      <trkpt lat="44.80605" lon="6.37541">
        <ele>1937.6</ele>
        <time>2024-08-12T05:40:42Z</time>
      </trkpt>
      <trkpt lat="44.80605" lon="6.37541">
        <ele>1937.6</ele>
        <time>2024-08-12T05:40:43Z</time>
      </trkpt>
      <trkpt lat="44.80604" lon="6.37539">
        <ele>1937.6</ele>
        <time>2024-08-12T05:40:44Z</time>
      </trkpt>
      <trkpt lat="44.80604" lon="6.37539">
        <ele>1937.8</ele>
        <time>2024-08-12T05:40:45Z</time>
      </trkpt>
      <trkpt lat="44.80604" lon="6.37539">
        <ele>1937.8</ele>
        <time>2024-08-12T05:40:46Z</time>
      </trkpt>
      <trkpt lat="44.80604" lon="6.37539">
        <ele>1937.8</ele>
        <time>2024-08-12T05:40:47Z</time>
      </trkpt>
      <trkpt lat="44.80602" lon="6.37536">
        <ele>1937.8</ele>
        <time>2024-08-12T05:40:48Z</time>
      </trkpt>
      <trkpt lat="44.80602" lon="6.37536">
        <ele>1937.8</ele>
        <time>2024-08-12T05:40:49Z</time>
      </trkpt>
      <trkpt lat="44.80601" lon="6.37535">
        <ele>1937.8</ele>
        <time>2024-08-12T05:40:50Z</time>
      </trkpt>
      <trkpt lat="44.80601" lon="6.37535">
        <ele>1937.8</ele>
        <time>2024-08-12T05:40:51Z</time>
      </trkpt>
      <trkpt lat="44.80599" lon="6.37534">
        <ele>1937.8</ele>
        <time>2024-08-12T05:40:52Z</time>
      </trkpt>
      <trkpt lat="44.80599" lon="6.37534">
        <ele>1938.2</ele>
        <time>2024-08-12T05:40:53Z</time>
      </trkpt>
      <trkpt lat="44.80597" lon="6.37533">
        <ele>1938.2</ele>
        <time>2024-08-12T05:40:54Z</time>
      </trkpt>
      <trkpt lat="44.80597" lon="6.37533">
        <ele>1938.6</ele>
        <time>2024-08-12T05:40:55Z</time>
      </trkpt>
      <trkpt lat="44.80596" lon="6.37531">
        <ele>1938.6</ele>
        <time>2024-08-12T05:40:56Z</time>
      </trkpt>
      <trkpt lat="44.80596" lon="6.37531">
        <ele>1938.8</ele>
        <time>2024-08-12T05:40:57Z</time>
      </trkpt>
      <trkpt lat="44.80594" lon="6.3753">
        <ele>1938.8</ele>
        <time>2024-08-12T05:40:58Z</time>
      </trkpt>
      <trkpt lat="44.80594" lon="6.3753">
        <ele>1939</ele>
        <time>2024-08-12T05:40:59Z</time>
      </trkpt>
      <trkpt lat="44.80592" lon="6.37528">
        <ele>1939.4</ele>
        <time>2024-08-12T05:41:00Z</time>
      </trkpt>
      <trkpt lat="44.80592" lon="6.37528">
        <ele>1939.6</ele>
        <time>2024-08-12T05:41:01Z</time>
      </trkpt>
      <trkpt lat="44.80591" lon="6.37526">
        <ele>1939.8</ele>
        <time>2024-08-12T05:41:02Z</time>
      </trkpt>
      <trkpt lat="44.80591" lon="6.37526">
        <ele>1939.8</ele>
        <time>2024-08-12T05:41:03Z</time>
      </trkpt>
      <trkpt lat="44.8059" lon="6.37523">
        <ele>1940</ele>
        <time>2024-08-12T05:41:04Z</time>
      </trkpt>
      <trkpt lat="44.8059" lon="6.37523">
        <ele>1940.2</ele>
        <time>2024-08-12T05:41:05Z</time>
      </trkpt>
      <trkpt lat="44.80589" lon="6.3752">
        <ele>1940.2</ele>
        <time>2024-08-12T05:41:06Z</time>
      </trkpt>
      <trkpt lat="44.80589" lon="6.3752">
        <ele>1940.2</ele>
        <time>2024-08-12T05:41:07Z</time>
      </trkpt>
      <trkpt lat="44.80588" lon="6.37517">
        <ele>1940.4</ele>
        <time>2024-08-12T05:41:08Z</time>
      </trkpt>
      <trkpt lat="44.80588" lon="6.37517">
        <ele>1940.4</ele>
        <time>2024-08-12T05:41:09Z</time>
      </trkpt>
      <trkpt lat="44.80588" lon="6.37514">
        <ele>1940.4</ele>
        <time>2024-08-12T05:41:10Z</time>
      </trkpt>
      <trkpt lat="44.80588" lon="6.37514">
        <ele>1940.6</ele>
        <time>2024-08-12T05:41:11Z</time>
      </trkpt>
      <trkpt lat="44.80587" lon="6.37511">
        <ele>1940.6</ele>
        <time>2024-08-12T05:41:12Z</time>
      </trkpt>
      <trkpt lat="44.80587" lon="6.37511">
        <ele>1940.8</ele>
        <time>2024-08-12T05:41:13Z</time>
      </trkpt>
      <trkpt lat="44.80586" lon="6.37509">
        <ele>1940.8</ele>
        <time>2024-08-12T05:41:14Z</time>
      </trkpt>
      <trkpt lat="44.80586" lon="6.37509">
        <ele>1941</ele>
        <time>2024-08-12T05:41:15Z</time>
      </trkpt>
      <trkpt lat="44.80585" lon="6.37505">
        <ele>1941.2</ele>
        <time>2024-08-12T05:41:16Z</time>
      </trkpt>
      <trkpt lat="44.80585" lon="6.37505">
        <ele>1941.4</ele>
        <time>2024-08-12T05:41:17Z</time>
      </trkpt>
      <trkpt lat="44.80585" lon="6.37502">
        <ele>1941.4</ele>
        <time>2024-08-12T05:41:18Z</time>
      </trkpt>
      <trkpt lat="44.80585" lon="6.37502">
        <ele>1941.2</ele>
        <time>2024-08-12T05:41:19Z</time>
      </trkpt>
      <trkpt lat="44.80584" lon="6.37499">
        <ele>1941.2</ele>
        <time>2024-08-12T05:41:20Z</time>
      </trkpt>
      <trkpt lat="44.80584" lon="6.37499">
        <ele>1941.2</ele>
        <time>2024-08-12T05:41:21Z</time>
      </trkpt>
      <trkpt lat="44.80584" lon="6.37496">
        <ele>1941.2</ele>
        <time>2024-08-12T05:41:22Z</time>
      </trkpt>
      <trkpt lat="44.80584" lon="6.37496">
        <ele>1941.2</ele>
        <time>2024-08-12T05:41:23Z</time>
      </trkpt>
      <trkpt lat="44.80583" lon="6.37493">
        <ele>1941</ele>
        <time>2024-08-12T05:41:24Z</time>
      </trkpt>
      <trkpt lat="44.80583" lon="6.37493">
        <ele>1941</ele>
        <time>2024-08-12T05:41:25Z</time>
      </trkpt>
      <trkpt lat="44.80584" lon="6.3749">
        <ele>1941.2</ele>
        <time>2024-08-12T05:41:26Z</time>
      </trkpt>
      <trkpt lat="44.80584" lon="6.3749">
        <ele>1941.2</ele>
        <time>2024-08-12T05:41:27Z</time>
      </trkpt>
      <trkpt lat="44.80584" lon="6.37487">
        <ele>1941.6</ele>
        <time>2024-08-12T05:41:28Z</time>
      </trkpt>
      <trkpt lat="44.80584" lon="6.37487">
        <ele>1941.6</ele>
        <time>2024-08-12T05:41:29Z</time>
      </trkpt>
      <trkpt lat="44.80584" lon="6.37487">
        <ele>1941.8</ele>
        <time>2024-08-12T05:41:30Z</time>
      </trkpt>
      <trkpt lat="44.80585" lon="6.37483">
        <ele>1942</ele>
        <time>2024-08-12T05:41:31Z</time>
      </trkpt>
      <trkpt lat="44.80585" lon="6.37483">
        <ele>1942</ele>
        <time>2024-08-12T05:41:32Z</time>
      </trkpt>
      <trkpt lat="44.80585" lon="6.37483">
        <ele>1942</ele>
        <time>2024-08-12T05:41:33Z</time>
      </trkpt>
      <trkpt lat="44.80586" lon="6.37481">
        <ele>1942.2</ele>
        <time>2024-08-12T05:41:34Z</time>
      </trkpt>
      <trkpt lat="44.80586" lon="6.37481">
        <ele>1942.4</ele>
        <time>2024-08-12T05:41:35Z</time>
      </trkpt>
      <trkpt lat="44.80586" lon="6.37481">
        <ele>1942.4</ele>
        <time>2024-08-12T05:41:36Z</time>
      </trkpt>
      <trkpt lat="44.80586" lon="6.37481">
        <ele>1942.2</ele>
        <time>2024-08-12T05:41:37Z</time>
      </trkpt>
      <trkpt lat="44.80588" lon="6.37479">
        <ele>1942.2</ele>
        <time>2024-08-12T05:41:38Z</time>
      </trkpt>
      <trkpt lat="44.80588" lon="6.37479">
        <ele>1942.4</ele>
        <time>2024-08-12T05:41:39Z</time>
      </trkpt>
      <trkpt lat="44.80588" lon="6.37479">
        <ele>1942.4</ele>
        <time>2024-08-12T05:41:40Z</time>
      </trkpt>
      <trkpt lat="44.8059" lon="6.37478">
        <ele>1942.4</ele>
        <time>2024-08-12T05:41:41Z</time>
      </trkpt>
      <trkpt lat="44.8059" lon="6.37478">
        <ele>1942.4</ele>
        <time>2024-08-12T05:41:42Z</time>
      </trkpt>
      <trkpt lat="44.8059" lon="6.37478">
        <ele>1942.4</ele>
        <time>2024-08-12T05:41:43Z</time>
      </trkpt>
      <trkpt lat="44.80591" lon="6.37475">
        <ele>1942.4</ele>
        <time>2024-08-12T05:41:44Z</time>
      </trkpt>
      <trkpt lat="44.80591" lon="6.37475">
        <ele>1942.6</ele>
        <time>2024-08-12T05:41:45Z</time>
      </trkpt>
      <trkpt lat="44.80592" lon="6.37473">
        <ele>1942.4</ele>
        <time>2024-08-12T05:41:46Z</time>
      </trkpt>
      <trkpt lat="44.80592" lon="6.37473">
        <ele>1942.4</ele>
        <time>2024-08-12T05:41:47Z</time>
      </trkpt>
      <trkpt lat="44.80592" lon="6.37473">
        <ele>1942.4</ele>
        <time>2024-08-12T05:41:48Z</time>
      </trkpt>
      <trkpt lat="44.80594" lon="6.37471">
        <ele>1942.4</ele>
        <time>2024-08-12T05:41:49Z</time>
      </trkpt>
      <trkpt lat="44.80594" lon="6.37471">
        <ele>1942.4</ele>
        <time>2024-08-12T05:41:50Z</time>
      </trkpt>
      <trkpt lat="44.80595" lon="6.37469">
        <ele>1942.4</ele>
        <time>2024-08-12T05:41:51Z</time>
      </trkpt>
      <trkpt lat="44.80595" lon="6.37469">
        <ele>1942.4</ele>
        <time>2024-08-12T05:41:52Z</time>
      </trkpt>
      <trkpt lat="44.80596" lon="6.37467">
        <ele>1942.4</ele>
        <time>2024-08-12T05:41:53Z</time>
      </trkpt>
      <trkpt lat="44.80596" lon="6.37467">
        <ele>1942.4</ele>
        <time>2024-08-12T05:41:54Z</time>
      </trkpt>
      <trkpt lat="44.80598" lon="6.37464">
        <ele>1942.4</ele>
        <time>2024-08-12T05:41:55Z</time>
      </trkpt>
      <trkpt lat="44.80598" lon="6.37464">
        <ele>1942.4</ele>
        <time>2024-08-12T05:41:56Z</time>
      </trkpt>
      <trkpt lat="44.80599" lon="6.37462">
        <ele>1942.2</ele>
        <time>2024-08-12T05:41:57Z</time>
      </trkpt>
      <trkpt lat="44.80599" lon="6.37462">
        <ele>1942.2</ele>
        <time>2024-08-12T05:41:58Z</time>
      </trkpt>
      <trkpt lat="44.806" lon="6.37459">
        <ele>1942.2</ele>
        <time>2024-08-12T05:41:59Z</time>
      </trkpt>
      <trkpt lat="44.806" lon="6.37459">
        <ele>1942.2</ele>
        <time>2024-08-12T05:42:00Z</time>
      </trkpt>
      <trkpt lat="44.80601" lon="6.37456">
        <ele>1942.4</ele>
        <time>2024-08-12T05:42:01Z</time>
      </trkpt>
      <trkpt lat="44.80601" lon="6.37456">
        <ele>1942.6</ele>
        <time>2024-08-12T05:42:02Z</time>
      </trkpt>
      <trkpt lat="44.80603" lon="6.37453">
        <ele>1942.6</ele>
        <time>2024-08-12T05:42:03Z</time>
      </trkpt>
      <trkpt lat="44.80603" lon="6.37453">
        <ele>1942.4</ele>
        <time>2024-08-12T05:42:04Z</time>
      </trkpt>
      <trkpt lat="44.80604" lon="6.3745">
        <ele>1942.2</ele>
        <time>2024-08-12T05:42:05Z</time>
      </trkpt>
      <trkpt lat="44.80604" lon="6.3745">
        <ele>1942.2</ele>
        <time>2024-08-12T05:42:06Z</time>
      </trkpt>
      <trkpt lat="44.80606" lon="6.37448">
        <ele>1942.2</ele>
        <time>2024-08-12T05:42:07Z</time>
      </trkpt>
      <trkpt lat="44.80606" lon="6.37448">
        <ele>1942.2</ele>
        <time>2024-08-12T05:42:08Z</time>
      </trkpt>
      <trkpt lat="44.80606" lon="6.37445">
        <ele>1942.2</ele>
        <time>2024-08-12T05:42:09Z</time>
      </trkpt>
      <trkpt lat="44.80606" lon="6.37445">
        <ele>1942.2</ele>
        <time>2024-08-12T05:42:10Z</time>
      </trkpt>
      <trkpt lat="44.80605" lon="6.37443">
        <ele>1941.8</ele>
        <time>2024-08-12T05:42:11Z</time>
      </trkpt>
      <trkpt lat="44.80605" lon="6.37443">
        <ele>1941.8</ele>
        <time>2024-08-12T05:42:12Z</time>
      </trkpt>
      <trkpt lat="44.80604" lon="6.3744">
        <ele>1941.8</ele>
        <time>2024-08-12T05:42:13Z</time>
      </trkpt>
      <trkpt lat="44.80604" lon="6.3744">
        <ele>1941.8</ele>
        <time>2024-08-12T05:42:14Z</time>
      </trkpt>
      <trkpt lat="44.80602" lon="6.37439">
        <ele>1941.8</ele>
        <time>2024-08-12T05:42:15Z</time>
      </trkpt>
      <trkpt lat="44.80602" lon="6.37439">
        <ele>1941.6</ele>
        <time>2024-08-12T05:42:16Z</time>
      </trkpt>
      <trkpt lat="44.806" lon="6.37437">
        <ele>1941.6</ele>
        <time>2024-08-12T05:42:17Z</time>
      </trkpt>
      <trkpt lat="44.806" lon="6.37437">
        <ele>1941.8</ele>
        <time>2024-08-12T05:42:18Z</time>
      </trkpt>
      <trkpt lat="44.80598" lon="6.37433">
        <ele>1941.8</ele>
        <time>2024-08-12T05:42:19Z</time>
      </trkpt>
      <trkpt lat="44.80598" lon="6.37433">
        <ele>1941.8</ele>
        <time>2024-08-12T05:42:20Z</time>
      </trkpt>
      <trkpt lat="44.80597" lon="6.37431">
        <ele>1942.2</ele>
        <time>2024-08-12T05:42:21Z</time>
      </trkpt>
      <trkpt lat="44.80597" lon="6.37431">
        <ele>1942.2</ele>
        <time>2024-08-12T05:42:22Z</time>
      </trkpt>
      <trkpt lat="44.80596" lon="6.37428">
        <ele>1942.2</ele>
        <time>2024-08-12T05:42:23Z</time>
      </trkpt>
      <trkpt lat="44.80596" lon="6.37428">
        <ele>1942.2</ele>
        <time>2024-08-12T05:42:24Z</time>
      </trkpt>
      <trkpt lat="44.80595" lon="6.37425">
        <ele>1942.2</ele>
        <time>2024-08-12T05:42:25Z</time>
      </trkpt>
      <trkpt lat="44.80595" lon="6.37425">
        <ele>1942.2</ele>
        <time>2024-08-12T05:42:26Z</time>
      </trkpt>
      <trkpt lat="44.80594" lon="6.37421">
        <ele>1942.2</ele>
        <time>2024-08-12T05:42:27Z</time>
      </trkpt>
      <trkpt lat="44.80594" lon="6.37421">
        <ele>1942.6</ele>
        <time>2024-08-12T05:42:28Z</time>
      </trkpt>
      <trkpt lat="44.80594" lon="6.37418">
        <ele>1942.6</ele>
        <time>2024-08-12T05:42:29Z</time>
      </trkpt>
      <trkpt lat="44.80594" lon="6.37418">
        <ele>1942.4</ele>
        <time>2024-08-12T05:42:30Z</time>
      </trkpt>
      <trkpt lat="44.80594" lon="6.37414">
        <ele>1942.4</ele>
        <time>2024-08-12T05:42:31Z</time>
      </trkpt>
      <trkpt lat="44.80594" lon="6.37414">
        <ele>1942.4</ele>
        <time>2024-08-12T05:42:32Z</time>
      </trkpt>
      <trkpt lat="44.80592" lon="6.3741">
        <ele>1942.6</ele>
        <time>2024-08-12T05:42:33Z</time>
      </trkpt>
      <trkpt lat="44.80592" lon="6.3741">
        <ele>1942.8</ele>
        <time>2024-08-12T05:42:34Z</time>
      </trkpt>
      <trkpt lat="44.80591" lon="6.37409">
        <ele>1943</ele>
        <time>2024-08-12T05:42:35Z</time>
      </trkpt>
      <trkpt lat="44.80591" lon="6.37409">
        <ele>1943</ele>
        <time>2024-08-12T05:42:36Z</time>
      </trkpt>
      <trkpt lat="44.80589" lon="6.37406">
        <ele>1943</ele>
        <time>2024-08-12T05:42:37Z</time>
      </trkpt>
      <trkpt lat="44.80589" lon="6.37406">
        <ele>1943</ele>
        <time>2024-08-12T05:42:38Z</time>
      </trkpt>
      <trkpt lat="44.80588" lon="6.37403">
        <ele>1943</ele>
        <time>2024-08-12T05:42:39Z</time>
      </trkpt>
      <trkpt lat="44.80588" lon="6.37403">
        <ele>1943</ele>
        <time>2024-08-12T05:42:40Z</time>
      </trkpt>
      <trkpt lat="44.80587" lon="6.37401">
        <ele>1943</ele>
        <time>2024-08-12T05:42:41Z</time>
      </trkpt>
      <trkpt lat="44.80587" lon="6.37401">
        <ele>1942.8</ele>
        <time>2024-08-12T05:42:42Z</time>
      </trkpt>
      <trkpt lat="44.80585" lon="6.374">
        <ele>1942.8</ele>
        <time>2024-08-12T05:42:43Z</time>
      </trkpt>
      <trkpt lat="44.80585" lon="6.374">
        <ele>1942.8</ele>
        <time>2024-08-12T05:42:44Z</time>
      </trkpt>
      <trkpt lat="44.80583" lon="6.37399">
        <ele>1943</ele>
        <time>2024-08-12T05:42:45Z</time>
      </trkpt>
      <trkpt lat="44.80583" lon="6.37399">
        <ele>1943</ele>
        <time>2024-08-12T05:42:46Z</time>
      </trkpt>
      <trkpt lat="44.80583" lon="6.37399">
        <ele>1943</ele>
        <time>2024-08-12T05:42:47Z</time>
      </trkpt>
      <trkpt lat="44.80582" lon="6.37396">
        <ele>1943</ele>
        <time>2024-08-12T05:42:48Z</time>
      </trkpt>
      <trkpt lat="44.80582" lon="6.37396">
        <ele>1943.2</ele>
        <time>2024-08-12T05:42:49Z</time>
      </trkpt>
      <trkpt lat="44.80582" lon="6.37396">
        <ele>1943.2</ele>
        <time>2024-08-12T05:42:50Z</time>
      </trkpt>
      <trkpt lat="44.8058" lon="6.37393">
        <ele>1943.2</ele>
        <time>2024-08-12T05:42:51Z</time>
      </trkpt>
      <trkpt lat="44.8058" lon="6.37393">
        <ele>1943.2</ele>
        <time>2024-08-12T05:42:52Z</time>
      </trkpt>
      <trkpt lat="44.80579" lon="6.37392">
        <ele>1943.6</ele>
        <time>2024-08-12T05:42:53Z</time>
      </trkpt>
      <trkpt lat="44.80579" lon="6.37392">
        <ele>1943.6</ele>
        <time>2024-08-12T05:42:54Z</time>
      </trkpt>
      <trkpt lat="44.80577" lon="6.3739">
        <ele>1943.6</ele>
        <time>2024-08-12T05:42:55Z</time>
      </trkpt>
      <trkpt lat="44.80577" lon="6.3739">
        <ele>1943.6</ele>
        <time>2024-08-12T05:42:56Z</time>
      </trkpt>
      <trkpt lat="44.80577" lon="6.3739">
        <ele>1943.6</ele>
        <time>2024-08-12T05:42:57Z</time>
      </trkpt>
      <trkpt lat="44.80574" lon="6.3739">
        <ele>1943.6</ele>
        <time>2024-08-12T05:42:58Z</time>
      </trkpt>
      <trkpt lat="44.80574" lon="6.3739">
        <ele>1943.6</ele>
        <time>2024-08-12T05:42:59Z</time>
      </trkpt>
      <trkpt lat="44.80573" lon="6.37391">
        <ele>1943.6</ele>
        <time>2024-08-12T05:43:00Z</time>
      </trkpt>
      <trkpt lat="44.80573" lon="6.37391">
        <ele>1943.8</ele>
        <time>2024-08-12T05:43:01Z</time>
      </trkpt>
      <trkpt lat="44.8057" lon="6.37391">
        <ele>1944.2</ele>
        <time>2024-08-12T05:43:02Z</time>
      </trkpt>
      <trkpt lat="44.8057" lon="6.37391">
        <ele>1944.2</ele>
        <time>2024-08-12T05:43:03Z</time>
      </trkpt>
      <trkpt lat="44.80568" lon="6.37391">
        <ele>1944.2</ele>
        <time>2024-08-12T05:43:04Z</time>
      </trkpt>
      <trkpt lat="44.80568" lon="6.37391">
        <ele>1944.2</ele>
        <time>2024-08-12T05:43:05Z</time>
      </trkpt>
      <trkpt lat="44.80566" lon="6.3739">
        <ele>1944.2</ele>
        <time>2024-08-12T05:43:06Z</time>
      </trkpt>
      <trkpt lat="44.80566" lon="6.3739">
        <ele>1944.4</ele>
        <time>2024-08-12T05:43:07Z</time>
      </trkpt>
      <trkpt lat="44.80563" lon="6.3739">
        <ele>1944.4</ele>
        <time>2024-08-12T05:43:08Z</time>
      </trkpt>
      <trkpt lat="44.80563" lon="6.3739">
        <ele>1944.6</ele>
        <time>2024-08-12T05:43:09Z</time>
      </trkpt>
      <trkpt lat="44.80563" lon="6.3739">
        <ele>1944.6</ele>
        <time>2024-08-12T05:43:10Z</time>
      </trkpt>
      <trkpt lat="44.80562" lon="6.37387">
        <ele>1944.6</ele>
        <time>2024-08-12T05:43:11Z</time>
      </trkpt>
      <trkpt lat="44.80562" lon="6.37387">
        <ele>1944.6</ele>
        <time>2024-08-12T05:43:12Z</time>
      </trkpt>
      <trkpt lat="44.8056" lon="6.37385">
        <ele>1944.8</ele>
        <time>2024-08-12T05:43:13Z</time>
      </trkpt>
      <trkpt lat="44.8056" lon="6.37385">
        <ele>1944.8</ele>
        <time>2024-08-12T05:43:14Z</time>
      </trkpt>
      <trkpt lat="44.80558" lon="6.37385">
        <ele>1944.8</ele>
        <time>2024-08-12T05:43:15Z</time>
      </trkpt>
      <trkpt lat="44.80558" lon="6.37385">
        <ele>1944.6</ele>
        <time>2024-08-12T05:43:16Z</time>
      </trkpt>
      <trkpt lat="44.80556" lon="6.37385">
        <ele>1944.4</ele>
        <time>2024-08-12T05:43:17Z</time>
      </trkpt>
      <trkpt lat="44.80556" lon="6.37385">
        <ele>1944.4</ele>
        <time>2024-08-12T05:43:18Z</time>
      </trkpt>
      <trkpt lat="44.80553" lon="6.37384">
        <ele>1944.4</ele>
        <time>2024-08-12T05:43:19Z</time>
      </trkpt>
      <trkpt lat="44.80553" lon="6.37384">
        <ele>1944.6</ele>
        <time>2024-08-12T05:43:20Z</time>
      </trkpt>
      <trkpt lat="44.80551" lon="6.37384">
        <ele>1944.6</ele>
        <time>2024-08-12T05:43:21Z</time>
      </trkpt>
      <trkpt lat="44.80551" lon="6.37384">
        <ele>1944.6</ele>
        <time>2024-08-12T05:43:22Z</time>
      </trkpt>
      <trkpt lat="44.80549" lon="6.37383">
        <ele>1944.6</ele>
        <time>2024-08-12T05:43:23Z</time>
      </trkpt>
      <trkpt lat="44.80549" lon="6.37383">
        <ele>1944.6</ele>
        <time>2024-08-12T05:43:24Z</time>
      </trkpt>
      <trkpt lat="44.80549" lon="6.37383">
        <ele>1944.8</ele>
        <time>2024-08-12T05:43:25Z</time>
      </trkpt>
      <trkpt lat="44.80549" lon="6.37383">
        <ele>1944.6</ele>
        <time>2024-08-12T05:43:26Z</time>
      </trkpt>
      <trkpt lat="44.80549" lon="6.37383">
        <ele>1944.6</ele>
        <time>2024-08-12T05:43:27Z</time>
      </trkpt>
      <trkpt lat="44.80549" lon="6.37383">
        <ele>1944.6</ele>
        <time>2024-08-12T05:43:28Z</time>
      </trkpt>
      <trkpt lat="44.80549" lon="6.37383">
        <ele>1944.6</ele>
        <time>2024-08-12T05:43:29Z</time>
      </trkpt>
      <trkpt lat="44.80549" lon="6.37383">
        <ele>1944.6</ele>
        <time>2024-08-12T05:43:30Z</time>
      </trkpt>
      <trkpt lat="44.80549" lon="6.37383">
        <ele>1944.4</ele>
        <time>2024-08-12T05:43:31Z</time>
      </trkpt>
      <trkpt lat="44.80547" lon="6.37383">
        <ele>1944.4</ele>
        <time>2024-08-12T05:43:32Z</time>
      </trkpt>
      <trkpt lat="44.80547" lon="6.37383">
        <ele>1944.2</ele>
        <time>2024-08-12T05:43:33Z</time>
      </trkpt>
      <trkpt lat="44.80547" lon="6.37383">
        <ele>1944.4</ele>
        <time>2024-08-12T05:43:34Z</time>
      </trkpt>
      <trkpt lat="44.80547" lon="6.37383">
        <ele>1944.2</ele>
        <time>2024-08-12T05:43:35Z</time>
      </trkpt>
      <trkpt lat="44.80547" lon="6.37383">
        <ele>1944.2</ele>
        <time>2024-08-12T05:43:36Z</time>
      </trkpt>
      <trkpt lat="44.80547" lon="6.37383">
        <ele>1944.2</ele>
        <time>2024-08-12T05:43:37Z</time>
      </trkpt>
      <trkpt lat="44.80547" lon="6.37383">
        <ele>1944.2</ele>
        <time>2024-08-12T05:43:38Z</time>
      </trkpt>
      <trkpt lat="44.80547" lon="6.37383">
        <ele>1944</ele>
        <time>2024-08-12T05:43:39Z</time>
      </trkpt>
      <trkpt lat="44.80547" lon="6.37383">
        <ele>1944</ele>
        <time>2024-08-12T05:43:40Z</time>
      </trkpt>
      <trkpt lat="44.80547" lon="6.37383">
        <ele>1944</ele>
        <time>2024-08-12T05:43:41Z</time>
      </trkpt>
      <trkpt lat="44.80547" lon="6.37383">
        <ele>1944</ele>
        <time>2024-08-12T05:43:42Z</time>
      </trkpt>
      <trkpt lat="44.80547" lon="6.37383">
        <ele>1944</ele>
        <time>2024-08-12T05:43:43Z</time>
      </trkpt>
      <trkpt lat="44.80547" lon="6.37383">
        <ele>1944</ele>
        <time>2024-08-12T05:43:44Z</time>
      </trkpt>
      <trkpt lat="44.80547" lon="6.37383">
        <ele>1944</ele>
        <time>2024-08-12T05:43:45Z</time>
      </trkpt>
      <trkpt lat="44.80545" lon="6.37381">
        <ele>1944</ele>
        <time>2024-08-12T05:43:46Z</time>
      </trkpt>
      <trkpt lat="44.80545" lon="6.37381">
        <ele>1943.8</ele>
        <time>2024-08-12T05:43:47Z</time>
      </trkpt>
      <trkpt lat="44.80543" lon="6.37377">
        <ele>1943.8</ele>
        <time>2024-08-12T05:43:48Z</time>
      </trkpt>
      <trkpt lat="44.80543" lon="6.37377">
        <ele>1943.8</ele>
        <time>2024-08-12T05:43:49Z</time>
      </trkpt>
      <trkpt lat="44.80541" lon="6.37373">
        <ele>1943.8</ele>
        <time>2024-08-12T05:43:50Z</time>
      </trkpt>
      <trkpt lat="44.80539" lon="6.37371">
        <ele>1944</ele>
        <time>2024-08-12T05:43:51Z</time>
      </trkpt>
      <trkpt lat="44.80539" lon="6.37371">
        <ele>1944.2</ele>
        <time>2024-08-12T05:43:52Z</time>
      </trkpt>
      <trkpt lat="44.80537" lon="6.37368">
        <ele>1944.2</ele>
        <time>2024-08-12T05:43:53Z</time>
      </trkpt>
      <trkpt lat="44.80537" lon="6.37368">
        <ele>1944.2</ele>
        <time>2024-08-12T05:43:54Z</time>
      </trkpt>
      <trkpt lat="44.80536" lon="6.37365">
        <ele>1944.2</ele>
        <time>2024-08-12T05:43:55Z</time>
      </trkpt>
      <trkpt lat="44.80536" lon="6.37365">
        <ele>1944</ele>
        <time>2024-08-12T05:43:56Z</time>
      </trkpt>
      <trkpt lat="44.80534" lon="6.37363">
        <ele>1944</ele>
        <time>2024-08-12T05:43:57Z</time>
      </trkpt>
      <trkpt lat="44.80534" lon="6.37363">
        <ele>1944</ele>
        <time>2024-08-12T05:43:58Z</time>
      </trkpt>
      <trkpt lat="44.80533" lon="6.37361">
        <ele>1944.4</ele>
        <time>2024-08-12T05:43:59Z</time>
      </trkpt>
      <trkpt lat="44.80533" lon="6.37361">
        <ele>1944.4</ele>
        <time>2024-08-12T05:44:00Z</time>
      </trkpt>
      <trkpt lat="44.80532" lon="6.37359">
        <ele>1944.4</ele>
        <time>2024-08-12T05:44:01Z</time>
      </trkpt>
      <trkpt lat="44.80532" lon="6.37359">
        <ele>1944.6</ele>
        <time>2024-08-12T05:44:02Z</time>
      </trkpt>
      <trkpt lat="44.8053" lon="6.37357">
        <ele>1944.6</ele>
        <time>2024-08-12T05:44:03Z</time>
      </trkpt>
      <trkpt lat="44.8053" lon="6.37357">
        <ele>1944.6</ele>
        <time>2024-08-12T05:44:04Z</time>
      </trkpt>
      <trkpt lat="44.8053" lon="6.37357">
        <ele>1944.6</ele>
        <time>2024-08-12T05:44:05Z</time>
      </trkpt>
      <trkpt lat="44.80527" lon="6.37356">
        <ele>1945</ele>
        <time>2024-08-12T05:44:06Z</time>
      </trkpt>
      <trkpt lat="44.80527" lon="6.37356">
        <ele>1945</ele>
        <time>2024-08-12T05:44:07Z</time>
      </trkpt>
      <trkpt lat="44.80527" lon="6.37356">
        <ele>1945</ele>
        <time>2024-08-12T05:44:08Z</time>
      </trkpt>
      <trkpt lat="44.80525" lon="6.37354">
        <ele>1945</ele>
        <time>2024-08-12T05:44:09Z</time>
      </trkpt>
      <trkpt lat="44.80525" lon="6.37354">
        <ele>1945.4</ele>
        <time>2024-08-12T05:44:10Z</time>
      </trkpt>
      <trkpt lat="44.80525" lon="6.37354">
        <ele>1945.6</ele>
        <time>2024-08-12T05:44:11Z</time>
      </trkpt>
      <trkpt lat="44.80525" lon="6.37354">
        <ele>1946</ele>
        <time>2024-08-12T05:44:12Z</time>
      </trkpt>
      <trkpt lat="44.80523" lon="6.37352">
        <ele>1946.2</ele>
        <time>2024-08-12T05:44:13Z</time>
      </trkpt>
      <trkpt lat="44.80523" lon="6.37352">
        <ele>1946.2</ele>
        <time>2024-08-12T05:44:14Z</time>
      </trkpt>
      <trkpt lat="44.80523" lon="6.37352">
        <ele>1946.2</ele>
        <time>2024-08-12T05:44:15Z</time>
      </trkpt>
      <trkpt lat="44.80521" lon="6.37349">
        <ele>1946.2</ele>
        <time>2024-08-12T05:44:16Z</time>
      </trkpt>
      <trkpt lat="44.80521" lon="6.37349">
        <ele>1946.4</ele>
        <time>2024-08-12T05:44:17Z</time>
      </trkpt>
      <trkpt lat="44.80521" lon="6.37349">
        <ele>1946.8</ele>
        <time>2024-08-12T05:44:18Z</time>
      </trkpt>
      <trkpt lat="44.8052" lon="6.37345">
        <ele>1947</ele>
        <time>2024-08-12T05:44:19Z</time>
      </trkpt>
      <trkpt lat="44.8052" lon="6.37345">
        <ele>1947.2</ele>
        <time>2024-08-12T05:44:20Z</time>
      </trkpt>
      <trkpt lat="44.8052" lon="6.37345">
        <ele>1947.2</ele>
        <time>2024-08-12T05:44:21Z</time>
      </trkpt>
      <trkpt lat="44.80519" lon="6.37343">
        <ele>1947.4</ele>
        <time>2024-08-12T05:44:22Z</time>
      </trkpt>
      <trkpt lat="44.80519" lon="6.37343">
        <ele>1947.6</ele>
        <time>2024-08-12T05:44:23Z</time>
      </trkpt>
      <trkpt lat="44.80519" lon="6.37343">
        <ele>1947.6</ele>
        <time>2024-08-12T05:44:24Z</time>
      </trkpt>
      <trkpt lat="44.80519" lon="6.37339">
        <ele>1948</ele>
        <time>2024-08-12T05:44:25Z</time>
      </trkpt>
      <trkpt lat="44.80519" lon="6.37339">
        <ele>1948.2</ele>
        <time>2024-08-12T05:44:26Z</time>
      </trkpt>
      <trkpt lat="44.80519" lon="6.37339">
        <ele>1948.2</ele>
        <time>2024-08-12T05:44:27Z</time>
      </trkpt>
      <trkpt lat="44.80519" lon="6.37337">
        <ele>1948.4</ele>
        <time>2024-08-12T05:44:28Z</time>
      </trkpt>
      <trkpt lat="44.80519" lon="6.37337">
        <ele>1948.8</ele>
        <time>2024-08-12T05:44:29Z</time>
      </trkpt>
      <trkpt lat="44.80519" lon="6.37337">
        <ele>1948.8</ele>
        <time>2024-08-12T05:44:30Z</time>
      </trkpt>
      <trkpt lat="44.80519" lon="6.37337">
        <ele>1948.8</ele>
        <time>2024-08-12T05:44:31Z</time>
      </trkpt>
      <trkpt lat="44.80517" lon="6.37334">
        <ele>1949</ele>
        <time>2024-08-12T05:44:32Z</time>
      </trkpt>
      <trkpt lat="44.80517" lon="6.37334">
        <ele>1949.2</ele>
        <time>2024-08-12T05:44:33Z</time>
      </trkpt>
      <trkpt lat="44.80517" lon="6.37334">
        <ele>1949.4</ele>
        <time>2024-08-12T05:44:34Z</time>
      </trkpt>
      <trkpt lat="44.80518" lon="6.37331">
        <ele>1949.8</ele>
        <time>2024-08-12T05:44:35Z</time>
      </trkpt>
      <trkpt lat="44.80518" lon="6.37331">
        <ele>1950.2</ele>
        <time>2024-08-12T05:44:36Z</time>
      </trkpt>
      <trkpt lat="44.80518" lon="6.37331">
        <ele>1950.4</ele>
        <time>2024-08-12T05:44:37Z</time>
      </trkpt>
      <trkpt lat="44.80517" lon="6.37328">
        <ele>1950.4</ele>
        <time>2024-08-12T05:44:38Z</time>
      </trkpt>
      <trkpt lat="44.80517" lon="6.37328">
        <ele>1950.8</ele>
        <time>2024-08-12T05:44:39Z</time>
      </trkpt>
      <trkpt lat="44.80517" lon="6.37328">
        <ele>1950.8</ele>
        <time>2024-08-12T05:44:40Z</time>
      </trkpt>
      <trkpt lat="44.80517" lon="6.37328">
        <ele>1951</ele>
        <time>2024-08-12T05:44:41Z</time>
      </trkpt>
      <trkpt lat="44.80517" lon="6.37328">
        <ele>1951.2</ele>
        <time>2024-08-12T05:44:42Z</time>
      </trkpt>
      <trkpt lat="44.80515" lon="6.37327">
        <ele>1951.2</ele>
        <time>2024-08-12T05:44:43Z</time>
      </trkpt>
      <trkpt lat="44.80515" lon="6.37327">
        <ele>1951.4</ele>
        <time>2024-08-12T05:44:44Z</time>
      </trkpt>
      <trkpt lat="44.80513" lon="6.37326">
        <ele>1951.8</ele>
        <time>2024-08-12T05:44:45Z</time>
      </trkpt>
      <trkpt lat="44.80513" lon="6.37326">
        <ele>1951.8</ele>
        <time>2024-08-12T05:44:46Z</time>
      </trkpt>
      <trkpt lat="44.80511" lon="6.37327">
        <ele>1952</ele>
        <time>2024-08-12T05:44:47Z</time>
      </trkpt>
      <trkpt lat="44.80511" lon="6.37327">
        <ele>1952.2</ele>
        <time>2024-08-12T05:44:48Z</time>
      </trkpt>
      <trkpt lat="44.80509" lon="6.37326">
        <ele>1952.2</ele>
        <time>2024-08-12T05:44:49Z</time>
      </trkpt>
      <trkpt lat="44.80509" lon="6.37326">
        <ele>1952.2</ele>
        <time>2024-08-12T05:44:50Z</time>
      </trkpt>
      <trkpt lat="44.80509" lon="6.37326">
        <ele>1952.4</ele>
        <time>2024-08-12T05:44:51Z</time>
      </trkpt>
      <trkpt lat="44.80507" lon="6.37324">
        <ele>1952.4</ele>
        <time>2024-08-12T05:44:52Z</time>
      </trkpt>
      <trkpt lat="44.80507" lon="6.37324">
        <ele>1952.2</ele>
        <time>2024-08-12T05:44:53Z</time>
      </trkpt>
      <trkpt lat="44.80507" lon="6.37324">
        <ele>1952.2</ele>
        <time>2024-08-12T05:44:54Z</time>
      </trkpt>
      <trkpt lat="44.80507" lon="6.37324">
        <ele>1952.2</ele>
        <time>2024-08-12T05:44:55Z</time>
      </trkpt>
      <trkpt lat="44.80505" lon="6.37322">
        <ele>1952.2</ele>
        <time>2024-08-12T05:44:56Z</time>
      </trkpt>
      <trkpt lat="44.80505" lon="6.37322">
        <ele>1952.4</ele>
        <time>2024-08-12T05:44:57Z</time>
      </trkpt>
      <trkpt lat="44.80505" lon="6.37322">
        <ele>1952.4</ele>
        <time>2024-08-12T05:44:58Z</time>
      </trkpt>
      <trkpt lat="44.80503" lon="6.37322">
        <ele>1952.4</ele>
        <time>2024-08-12T05:44:59Z</time>
      </trkpt>
      <trkpt lat="44.80503" lon="6.37322">
        <ele>1952.4</ele>
        <time>2024-08-12T05:45:00Z</time>
      </trkpt>
      <trkpt lat="44.80503" lon="6.37322">
        <ele>1952.4</ele>
        <time>2024-08-12T05:45:01Z</time>
      </trkpt>
      <trkpt lat="44.80501" lon="6.37321">
        <ele>1952.8</ele>
        <time>2024-08-12T05:45:02Z</time>
      </trkpt>
      <trkpt lat="44.80501" lon="6.37321">
        <ele>1952.8</ele>
        <time>2024-08-12T05:45:03Z</time>
      </trkpt>
      <trkpt lat="44.80501" lon="6.37321">
        <ele>1953</ele>
        <time>2024-08-12T05:45:04Z</time>
      </trkpt>
      <trkpt lat="44.80501" lon="6.37321">
        <ele>1953.2</ele>
        <time>2024-08-12T05:45:05Z</time>
      </trkpt>
      <trkpt lat="44.80501" lon="6.37321">
        <ele>1953.2</ele>
        <time>2024-08-12T05:45:06Z</time>
      </trkpt>
      <trkpt lat="44.805" lon="6.37319">
        <ele>1953.6</ele>
        <time>2024-08-12T05:45:07Z</time>
      </trkpt>
      <trkpt lat="44.805" lon="6.37319">
        <ele>1954</ele>
        <time>2024-08-12T05:45:08Z</time>
      </trkpt>
      <trkpt lat="44.805" lon="6.37319">
        <ele>1954.2</ele>
        <time>2024-08-12T05:45:09Z</time>
      </trkpt>
      <trkpt lat="44.80498" lon="6.37316">
        <ele>1954.8</ele>
        <time>2024-08-12T05:45:10Z</time>
      </trkpt>
      <trkpt lat="44.80498" lon="6.37316">
        <ele>1955</ele>
        <time>2024-08-12T05:45:11Z</time>
      </trkpt>
      <trkpt lat="44.80497" lon="6.37313">
        <ele>1955.2</ele>
        <time>2024-08-12T05:45:12Z</time>
      </trkpt>
      <trkpt lat="44.80497" lon="6.37313">
        <ele>1955.2</ele>
        <time>2024-08-12T05:45:13Z</time>
      </trkpt>
      <trkpt lat="44.80497" lon="6.37313">
        <ele>1955.4</ele>
        <time>2024-08-12T05:45:14Z</time>
      </trkpt>
      <trkpt lat="44.80497" lon="6.37313">
        <ele>1956</ele>
        <time>2024-08-12T05:45:15Z</time>
      </trkpt>
      <trkpt lat="44.80497" lon="6.37313">
        <ele>1956</ele>
        <time>2024-08-12T05:45:16Z</time>
      </trkpt>
      <trkpt lat="44.80497" lon="6.37313">
        <ele>1955.6</ele>
        <time>2024-08-12T05:45:17Z</time>
      </trkpt>
      <trkpt lat="44.80497" lon="6.37313">
        <ele>1955.6</ele>
        <time>2024-08-12T05:45:18Z</time>
      </trkpt>
      <trkpt lat="44.80497" lon="6.37313">
        <ele>1955.6</ele>
        <time>2024-08-12T05:45:19Z</time>
      </trkpt>
      <trkpt lat="44.80497" lon="6.37313">
        <ele>1955.6</ele>
        <time>2024-08-12T05:45:20Z</time>
      </trkpt>
      <trkpt lat="44.80495" lon="6.37312">
        <ele>1955.6</ele>
        <time>2024-08-12T05:45:21Z</time>
      </trkpt>
      <trkpt lat="44.80495" lon="6.37312">
        <ele>1955.6</ele>
        <time>2024-08-12T05:45:22Z</time>
      </trkpt>
      <trkpt lat="44.80492" lon="6.37313">
        <ele>1955.6</ele>
        <time>2024-08-12T05:45:23Z</time>
      </trkpt>
      <trkpt lat="44.8049" lon="6.37313">
        <ele>1955.6</ele>
        <time>2024-08-12T05:45:24Z</time>
      </trkpt>
      <trkpt lat="44.8049" lon="6.37313">
        <ele>1955.4</ele>
        <time>2024-08-12T05:45:25Z</time>
      </trkpt>
      <trkpt lat="44.80487" lon="6.37313">
        <ele>1955</ele>
        <time>2024-08-12T05:45:26Z</time>
      </trkpt>
      <trkpt lat="44.80487" lon="6.37313">
        <ele>1954.8</ele>
        <time>2024-08-12T05:45:27Z</time>
      </trkpt>
      <trkpt lat="44.80485" lon="6.37313">
        <ele>1955</ele>
        <time>2024-08-12T05:45:28Z</time>
      </trkpt>
      <trkpt lat="44.80485" lon="6.37313">
        <ele>1955</ele>
        <time>2024-08-12T05:45:29Z</time>
      </trkpt>
      <trkpt lat="44.80483" lon="6.37312">
        <ele>1955</ele>
        <time>2024-08-12T05:45:30Z</time>
      </trkpt>
      <trkpt lat="44.80483" lon="6.37312">
        <ele>1954.6</ele>
        <time>2024-08-12T05:45:31Z</time>
      </trkpt>
      <trkpt lat="44.80481" lon="6.37313">
        <ele>1954</ele>
        <time>2024-08-12T05:45:32Z</time>
      </trkpt>
      <trkpt lat="44.80481" lon="6.37313">
        <ele>1953.8</ele>
        <time>2024-08-12T05:45:33Z</time>
      </trkpt>
      <trkpt lat="44.80479" lon="6.37314">
        <ele>1953.4</ele>
        <time>2024-08-12T05:45:34Z</time>
      </trkpt>
      <trkpt lat="44.80479" lon="6.37314">
        <ele>1953</ele>
        <time>2024-08-12T05:45:35Z</time>
      </trkpt>
      <trkpt lat="44.80476" lon="6.37315">
        <ele>1952.8</ele>
        <time>2024-08-12T05:45:36Z</time>
      </trkpt>
      <trkpt lat="44.80476" lon="6.37315">
        <ele>1952.6</ele>
        <time>2024-08-12T05:45:37Z</time>
      </trkpt>
      <trkpt lat="44.80473" lon="6.37316">
        <ele>1952.6</ele>
        <time>2024-08-12T05:45:38Z</time>
      </trkpt>
      <trkpt lat="44.80473" lon="6.37316">
        <ele>1952.6</ele>
        <time>2024-08-12T05:45:39Z</time>
      </trkpt>
      <trkpt lat="44.80471" lon="6.37316">
        <ele>1952.4</ele>
        <time>2024-08-12T05:45:40Z</time>
      </trkpt>
      <trkpt lat="44.80471" lon="6.37316">
        <ele>1952.4</ele>
        <time>2024-08-12T05:45:41Z</time>
      </trkpt>
      <trkpt lat="44.80469" lon="6.37315">
        <ele>1952</ele>
        <time>2024-08-12T05:45:42Z</time>
      </trkpt>
      <trkpt lat="44.80469" lon="6.37315">
        <ele>1952</ele>
        <time>2024-08-12T05:45:43Z</time>
      </trkpt>
      <trkpt lat="44.80469" lon="6.37315">
        <ele>1952</ele>
        <time>2024-08-12T05:45:44Z</time>
      </trkpt>
      <trkpt lat="44.80467" lon="6.37315">
        <ele>1952</ele>
        <time>2024-08-12T05:45:45Z</time>
      </trkpt>
      <trkpt lat="44.80467" lon="6.37315">
        <ele>1952.6</ele>
        <time>2024-08-12T05:45:46Z</time>
      </trkpt>
      <trkpt lat="44.80465" lon="6.37313">
        <ele>1952.6</ele>
        <time>2024-08-12T05:45:47Z</time>
      </trkpt>
      <trkpt lat="44.80465" lon="6.37313">
        <ele>1952.6</ele>
        <time>2024-08-12T05:45:48Z</time>
      </trkpt>
      <trkpt lat="44.80464" lon="6.3731">
        <ele>1952.4</ele>
        <time>2024-08-12T05:45:49Z</time>
      </trkpt>
      <trkpt lat="44.80464" lon="6.3731">
        <ele>1952.4</ele>
        <time>2024-08-12T05:45:50Z</time>
      </trkpt>
      <trkpt lat="44.80463" lon="6.37308">
        <ele>1952.4</ele>
        <time>2024-08-12T05:45:51Z</time>
      </trkpt>
      <trkpt lat="44.80463" lon="6.37308">
        <ele>1952.4</ele>
        <time>2024-08-12T05:45:52Z</time>
      </trkpt>
      <trkpt lat="44.80461" lon="6.37305">
        <ele>1953</ele>
        <time>2024-08-12T05:45:53Z</time>
      </trkpt>
      <trkpt lat="44.80461" lon="6.37305">
        <ele>1953</ele>
        <time>2024-08-12T05:45:54Z</time>
      </trkpt>
      <trkpt lat="44.80459" lon="6.37303">
        <ele>1952.6</ele>
        <time>2024-08-12T05:45:55Z</time>
      </trkpt>
      <trkpt lat="44.80459" lon="6.37303">
        <ele>1952.6</ele>
        <time>2024-08-12T05:45:56Z</time>
      </trkpt>
      <trkpt lat="44.80458" lon="6.373">
        <ele>1952.8</ele>
        <time>2024-08-12T05:45:57Z</time>
      </trkpt>
      <trkpt lat="44.80458" lon="6.373">
        <ele>1952.8</ele>
        <time>2024-08-12T05:45:58Z</time>
      </trkpt>
      <trkpt lat="44.80455" lon="6.37298">
        <ele>1953</ele>
        <time>2024-08-12T05:45:59Z</time>
      </trkpt>
      <trkpt lat="44.80455" lon="6.37298">
        <ele>1953.2</ele>
        <time>2024-08-12T05:46:00Z</time>
      </trkpt>
      <trkpt lat="44.80454" lon="6.37296">
        <ele>1953.4</ele>
        <time>2024-08-12T05:46:01Z</time>
      </trkpt>
      <trkpt lat="44.80454" lon="6.37296">
        <ele>1953.4</ele>
        <time>2024-08-12T05:46:02Z</time>
      </trkpt>
      <trkpt lat="44.80453" lon="6.37294">
        <ele>1953.4</ele>
        <time>2024-08-12T05:46:03Z</time>
      </trkpt>
      <trkpt lat="44.80453" lon="6.37294">
        <ele>1953.8</ele>
        <time>2024-08-12T05:46:04Z</time>
      </trkpt>
      <trkpt lat="44.80451" lon="6.37292">
        <ele>1954.2</ele>
        <time>2024-08-12T05:46:05Z</time>
      </trkpt>
      <trkpt lat="44.80451" lon="6.37292">
        <ele>1954.2</ele>
        <time>2024-08-12T05:46:06Z</time>
      </trkpt>
      <trkpt lat="44.80449" lon="6.3729">
        <ele>1954.4</ele>
        <time>2024-08-12T05:46:07Z</time>
      </trkpt>
      <trkpt lat="44.80449" lon="6.3729">
        <ele>1954.8</ele>
        <time>2024-08-12T05:46:08Z</time>
      </trkpt>
      <trkpt lat="44.80447" lon="6.37287">
        <ele>1954.8</ele>
        <time>2024-08-12T05:46:09Z</time>
      </trkpt>
      <trkpt lat="44.80447" lon="6.37287">
        <ele>1954.8</ele>
        <time>2024-08-12T05:46:10Z</time>
      </trkpt>
      <trkpt lat="44.80445" lon="6.37285">
        <ele>1955.2</ele>
        <time>2024-08-12T05:46:11Z</time>
      </trkpt>
      <trkpt lat="44.80445" lon="6.37285">
        <ele>1955.4</ele>
        <time>2024-08-12T05:46:12Z</time>
      </trkpt>
      <trkpt lat="44.80443" lon="6.37284">
        <ele>1955.4</ele>
        <time>2024-08-12T05:46:13Z</time>
      </trkpt>
      <trkpt lat="44.80443" lon="6.37284">
        <ele>1955.4</ele>
        <time>2024-08-12T05:46:14Z</time>
      </trkpt>
      <trkpt lat="44.80442" lon="6.37282">
        <ele>1955.4</ele>
        <time>2024-08-12T05:46:15Z</time>
      </trkpt>
      <trkpt lat="44.80442" lon="6.37282">
        <ele>1955.4</ele>
        <time>2024-08-12T05:46:16Z</time>
      </trkpt>
      <trkpt lat="44.80441" lon="6.3728">
        <ele>1955.8</ele>
        <time>2024-08-12T05:46:17Z</time>
      </trkpt>
      <trkpt lat="44.80441" lon="6.3728">
        <ele>1955.8</ele>
        <time>2024-08-12T05:46:18Z</time>
      </trkpt>
      <trkpt lat="44.80441" lon="6.3728">
        <ele>1955.8</ele>
        <time>2024-08-12T05:46:19Z</time>
      </trkpt>
      <trkpt lat="44.80438" lon="6.37279">
        <ele>1956</ele>
        <time>2024-08-12T05:46:20Z</time>
      </trkpt>
      <trkpt lat="44.80438" lon="6.37279">
        <ele>1956.4</ele>
        <time>2024-08-12T05:46:21Z</time>
      </trkpt>
      <trkpt lat="44.80436" lon="6.37278">
        <ele>1956.4</ele>
        <time>2024-08-12T05:46:22Z</time>
      </trkpt>
      <trkpt lat="44.80436" lon="6.37278">
        <ele>1956.6</ele>
        <time>2024-08-12T05:46:23Z</time>
      </trkpt>
      <trkpt lat="44.80434" lon="6.37276">
        <ele>1956.6</ele>
        <time>2024-08-12T05:46:24Z</time>
      </trkpt>
      <trkpt lat="44.80434" lon="6.37276">
        <ele>1956.8</ele>
        <time>2024-08-12T05:46:25Z</time>
      </trkpt>
      <trkpt lat="44.80433" lon="6.37274">
        <ele>1957</ele>
        <time>2024-08-12T05:46:26Z</time>
      </trkpt>
      <trkpt lat="44.80433" lon="6.37274">
        <ele>1957</ele>
        <time>2024-08-12T05:46:27Z</time>
      </trkpt>
      <trkpt lat="44.80431" lon="6.37272">
        <ele>1957.2</ele>
        <time>2024-08-12T05:46:28Z</time>
      </trkpt>
      <trkpt lat="44.80431" lon="6.37272">
        <ele>1957.2</ele>
        <time>2024-08-12T05:46:29Z</time>
      </trkpt>
      <trkpt lat="44.80429" lon="6.3727">
        <ele>1957.4</ele>
        <time>2024-08-12T05:46:30Z</time>
      </trkpt>
      <trkpt lat="44.80429" lon="6.3727">
        <ele>1957.4</ele>
        <time>2024-08-12T05:46:31Z</time>
      </trkpt>
      <trkpt lat="44.80428" lon="6.37267">
        <ele>1957.6</ele>
        <time>2024-08-12T05:46:32Z</time>
      </trkpt>
      <trkpt lat="44.80428" lon="6.37267">
        <ele>1957.6</ele>
        <time>2024-08-12T05:46:33Z</time>
      </trkpt>
      <trkpt lat="44.80427" lon="6.37265">
        <ele>1957.8</ele>
        <time>2024-08-12T05:46:34Z</time>
      </trkpt>
      <trkpt lat="44.80427" lon="6.37265">
        <ele>1957.8</ele>
        <time>2024-08-12T05:46:35Z</time>
      </trkpt>
      <trkpt lat="44.80426" lon="6.37262">
        <ele>1958.2</ele>
        <time>2024-08-12T05:46:36Z</time>
      </trkpt>
      <trkpt lat="44.80426" lon="6.37262">
        <ele>1958.4</ele>
        <time>2024-08-12T05:46:37Z</time>
      </trkpt>
      <trkpt lat="44.80424" lon="6.3726">
        <ele>1958.6</ele>
        <time>2024-08-12T05:46:38Z</time>
      </trkpt>
      <trkpt lat="44.80424" lon="6.3726">
        <ele>1958.6</ele>
        <time>2024-08-12T05:46:39Z</time>
      </trkpt>
      <trkpt lat="44.80422" lon="6.37259">
        <ele>1958.6</ele>
        <time>2024-08-12T05:46:40Z</time>
      </trkpt>
      <trkpt lat="44.80422" lon="6.37259">
        <ele>1959.2</ele>
        <time>2024-08-12T05:46:41Z</time>
      </trkpt>
      <trkpt lat="44.8042" lon="6.37257">
        <ele>1959.2</ele>
        <time>2024-08-12T05:46:42Z</time>
      </trkpt>
      <trkpt lat="44.8042" lon="6.37257">
        <ele>1959</ele>
        <time>2024-08-12T05:46:43Z</time>
      </trkpt>
      <trkpt lat="44.80418" lon="6.37255">
        <ele>1959</ele>
        <time>2024-08-12T05:46:44Z</time>
      </trkpt>
      <trkpt lat="44.80418" lon="6.37255">
        <ele>1959.2</ele>
        <time>2024-08-12T05:46:45Z</time>
      </trkpt>
      <trkpt lat="44.80415" lon="6.37253">
        <ele>1959.2</ele>
        <time>2024-08-12T05:46:46Z</time>
      </trkpt>
      <trkpt lat="44.80415" lon="6.37253">
        <ele>1959.2</ele>
        <time>2024-08-12T05:46:47Z</time>
      </trkpt>
      <trkpt lat="44.80413" lon="6.37252">
        <ele>1959.2</ele>
        <time>2024-08-12T05:46:48Z</time>
      </trkpt>
      <trkpt lat="44.80413" lon="6.37252">
        <ele>1959.2</ele>
        <time>2024-08-12T05:46:49Z</time>
      </trkpt>
      <trkpt lat="44.80411" lon="6.3725">
        <ele>1959.2</ele>
        <time>2024-08-12T05:46:50Z</time>
      </trkpt>
      <trkpt lat="44.80411" lon="6.3725">
        <ele>1959.4</ele>
        <time>2024-08-12T05:46:51Z</time>
      </trkpt>
      <trkpt lat="44.80409" lon="6.37248">
        <ele>1959.4</ele>
        <time>2024-08-12T05:46:52Z</time>
      </trkpt>
      <trkpt lat="44.80409" lon="6.37248">
        <ele>1959.4</ele>
        <time>2024-08-12T05:46:53Z</time>
      </trkpt>
      <trkpt lat="44.80407" lon="6.37246">
        <ele>1959.4</ele>
        <time>2024-08-12T05:46:54Z</time>
      </trkpt>
      <trkpt lat="44.80407" lon="6.37246">
        <ele>1959.4</ele>
        <time>2024-08-12T05:46:55Z</time>
      </trkpt>
      <trkpt lat="44.80405" lon="6.37244">
        <ele>1959.6</ele>
        <time>2024-08-12T05:46:56Z</time>
      </trkpt>
      <trkpt lat="44.80405" lon="6.37244">
        <ele>1959.8</ele>
        <time>2024-08-12T05:46:57Z</time>
      </trkpt>
      <trkpt lat="44.80403" lon="6.37242">
        <ele>1960.2</ele>
        <time>2024-08-12T05:46:58Z</time>
      </trkpt>
      <trkpt lat="44.80403" lon="6.37242">
        <ele>1960.2</ele>
        <time>2024-08-12T05:46:59Z</time>
      </trkpt>
      <trkpt lat="44.80402" lon="6.3724">
        <ele>1960.4</ele>
        <time>2024-08-12T05:47:00Z</time>
      </trkpt>
      <trkpt lat="44.80402" lon="6.3724">
        <ele>1960.6</ele>
        <time>2024-08-12T05:47:01Z</time>
      </trkpt>
      <trkpt lat="44.80399" lon="6.37239">
        <ele>1961.2</ele>
        <time>2024-08-12T05:47:02Z</time>
      </trkpt>
      <trkpt lat="44.80399" lon="6.37239">
        <ele>1961.2</ele>
        <time>2024-08-12T05:47:03Z</time>
      </trkpt>
      <trkpt lat="44.80398" lon="6.37236">
        <ele>1961.4</ele>
        <time>2024-08-12T05:47:04Z</time>
      </trkpt>
      <trkpt lat="44.80398" lon="6.37236">
        <ele>1961.4</ele>
        <time>2024-08-12T05:47:05Z</time>
      </trkpt>
      <trkpt lat="44.80397" lon="6.37234">
        <ele>1961.4</ele>
        <time>2024-08-12T05:47:06Z</time>
      </trkpt>
      <trkpt lat="44.80397" lon="6.37234">
        <ele>1961.4</ele>
        <time>2024-08-12T05:47:07Z</time>
      </trkpt>
      <trkpt lat="44.80396" lon="6.37231">
        <ele>1961.6</ele>
        <time>2024-08-12T05:47:08Z</time>
      </trkpt>
      <trkpt lat="44.80396" lon="6.37231">
        <ele>1962.2</ele>
        <time>2024-08-12T05:47:09Z</time>
      </trkpt>
      <trkpt lat="44.80395" lon="6.37227">
        <ele>1962.6</ele>
        <time>2024-08-12T05:47:10Z</time>
      </trkpt>
      <trkpt lat="44.80395" lon="6.37227">
        <ele>1962.8</ele>
        <time>2024-08-12T05:47:11Z</time>
      </trkpt>
      <trkpt lat="44.80393" lon="6.37224">
        <ele>1963</ele>
        <time>2024-08-12T05:47:12Z</time>
      </trkpt>
      <trkpt lat="44.80393" lon="6.37224">
        <ele>1963</ele>
        <time>2024-08-12T05:47:13Z</time>
      </trkpt>
      <trkpt lat="44.80391" lon="6.37222">
        <ele>1963</ele>
        <time>2024-08-12T05:47:14Z</time>
      </trkpt>
      <trkpt lat="44.80391" lon="6.37222">
        <ele>1963</ele>
        <time>2024-08-12T05:47:15Z</time>
      </trkpt>
      <trkpt lat="44.8039" lon="6.37219">
        <ele>1963</ele>
        <time>2024-08-12T05:47:16Z</time>
      </trkpt>
      <trkpt lat="44.8039" lon="6.37219">
        <ele>1963</ele>
        <time>2024-08-12T05:47:17Z</time>
      </trkpt>
      <trkpt lat="44.80389" lon="6.37216">
        <ele>1963</ele>
        <time>2024-08-12T05:47:18Z</time>
      </trkpt>
      <trkpt lat="44.80389" lon="6.37216">
        <ele>1963</ele>
        <time>2024-08-12T05:47:19Z</time>
      </trkpt>
      <trkpt lat="44.80388" lon="6.37212">
        <ele>1963</ele>
        <time>2024-08-12T05:47:20Z</time>
      </trkpt>
      <trkpt lat="44.80388" lon="6.37212">
        <ele>1963</ele>
        <time>2024-08-12T05:47:21Z</time>
      </trkpt>
      <trkpt lat="44.80387" lon="6.37209">
        <ele>1963</ele>
        <time>2024-08-12T05:47:22Z</time>
      </trkpt>
      <trkpt lat="44.80387" lon="6.37209">
        <ele>1963.2</ele>
        <time>2024-08-12T05:47:23Z</time>
      </trkpt>
      <trkpt lat="44.80385" lon="6.37206">
        <ele>1963.4</ele>
        <time>2024-08-12T05:47:24Z</time>
      </trkpt>
      <trkpt lat="44.80385" lon="6.37206">
        <ele>1963.4</ele>
        <time>2024-08-12T05:47:25Z</time>
      </trkpt>
      <trkpt lat="44.80384" lon="6.37204">
        <ele>1963.4</ele>
        <time>2024-08-12T05:47:26Z</time>
      </trkpt>
      <trkpt lat="44.80384" lon="6.37204">
        <ele>1963.6</ele>
        <time>2024-08-12T05:47:27Z</time>
      </trkpt>
      <trkpt lat="44.80382" lon="6.37202">
        <ele>1963.8</ele>
        <time>2024-08-12T05:47:28Z</time>
      </trkpt>
      <trkpt lat="44.80382" lon="6.37202">
        <ele>1964</ele>
        <time>2024-08-12T05:47:29Z</time>
      </trkpt>
      <trkpt lat="44.8038" lon="6.372">
        <ele>1964</ele>
        <time>2024-08-12T05:47:30Z</time>
      </trkpt>
      <trkpt lat="44.8038" lon="6.372">
        <ele>1964</ele>
        <time>2024-08-12T05:47:31Z</time>
      </trkpt>
      <trkpt lat="44.80378" lon="6.37198">
        <ele>1964</ele>
        <time>2024-08-12T05:47:32Z</time>
      </trkpt>
      <trkpt lat="44.80378" lon="6.37198">
        <ele>1964</ele>
        <time>2024-08-12T05:47:33Z</time>
      </trkpt>
      <trkpt lat="44.80376" lon="6.37196">
        <ele>1964.2</ele>
        <time>2024-08-12T05:47:34Z</time>
      </trkpt>
      <trkpt lat="44.80376" lon="6.37196">
        <ele>1964.2</ele>
        <time>2024-08-12T05:47:35Z</time>
      </trkpt>
      <trkpt lat="44.80373" lon="6.37195">
        <ele>1964.2</ele>
        <time>2024-08-12T05:47:36Z</time>
      </trkpt>
      <trkpt lat="44.80373" lon="6.37195">
        <ele>1964.4</ele>
        <time>2024-08-12T05:47:37Z</time>
      </trkpt>
      <trkpt lat="44.80372" lon="6.37193">
        <ele>1964.6</ele>
        <time>2024-08-12T05:47:38Z</time>
      </trkpt>
      <trkpt lat="44.80372" lon="6.37193">
        <ele>1964.6</ele>
        <time>2024-08-12T05:47:39Z</time>
      </trkpt>
      <trkpt lat="44.8037" lon="6.37191">
        <ele>1964.2</ele>
        <time>2024-08-12T05:47:40Z</time>
      </trkpt>
      <trkpt lat="44.8037" lon="6.37191">
        <ele>1964</ele>
        <time>2024-08-12T05:47:41Z</time>
      </trkpt>
      <trkpt lat="44.80368" lon="6.3719">
        <ele>1964</ele>
        <time>2024-08-12T05:47:42Z</time>
      </trkpt>
      <trkpt lat="44.80368" lon="6.3719">
        <ele>1964.6</ele>
        <time>2024-08-12T05:47:43Z</time>
      </trkpt>
      <trkpt lat="44.80366" lon="6.37188">
        <ele>1964.8</ele>
        <time>2024-08-12T05:47:44Z</time>
      </trkpt>
      <trkpt lat="44.80366" lon="6.37188">
        <ele>1965</ele>
        <time>2024-08-12T05:47:45Z</time>
      </trkpt>
      <trkpt lat="44.80364" lon="6.37186">
        <ele>1965</ele>
        <time>2024-08-12T05:47:46Z</time>
      </trkpt>
      <trkpt lat="44.80364" lon="6.37186">
        <ele>1965.2</ele>
        <time>2024-08-12T05:47:47Z</time>
      </trkpt>
      <trkpt lat="44.80362" lon="6.37184">
        <ele>1965.2</ele>
        <time>2024-08-12T05:47:48Z</time>
      </trkpt>
      <trkpt lat="44.80362" lon="6.37184">
        <ele>1965.2</ele>
        <time>2024-08-12T05:47:49Z</time>
      </trkpt>
      <trkpt lat="44.80362" lon="6.37181">
        <ele>1965.2</ele>
        <time>2024-08-12T05:47:50Z</time>
      </trkpt>
      <trkpt lat="44.80362" lon="6.37181">
        <ele>1965.2</ele>
        <time>2024-08-12T05:47:51Z</time>
      </trkpt>
      <trkpt lat="44.80361" lon="6.37178">
        <ele>1965.2</ele>
        <time>2024-08-12T05:47:52Z</time>
      </trkpt>
      <trkpt lat="44.80361" lon="6.37178">
        <ele>1965.6</ele>
        <time>2024-08-12T05:47:53Z</time>
      </trkpt>
      <trkpt lat="44.8036" lon="6.37175">
        <ele>1965.8</ele>
        <time>2024-08-12T05:47:54Z</time>
      </trkpt>
      <trkpt lat="44.8036" lon="6.37175">
        <ele>1966</ele>
        <time>2024-08-12T05:47:55Z</time>
      </trkpt>
      <trkpt lat="44.80358" lon="6.37173">
        <ele>1966</ele>
        <time>2024-08-12T05:47:56Z</time>
      </trkpt>
      <trkpt lat="44.80358" lon="6.37173">
        <ele>1966.2</ele>
        <time>2024-08-12T05:47:57Z</time>
      </trkpt>
      <trkpt lat="44.80357" lon="6.3717">
        <ele>1966.2</ele>
        <time>2024-08-12T05:47:58Z</time>
      </trkpt>
      <trkpt lat="44.80357" lon="6.3717">
        <ele>1966.2</ele>
        <time>2024-08-12T05:47:59Z</time>
      </trkpt>
      <trkpt lat="44.80356" lon="6.37167">
        <ele>1966.4</ele>
        <time>2024-08-12T05:48:00Z</time>
      </trkpt>
      <trkpt lat="44.80356" lon="6.37167">
        <ele>1966.4</ele>
        <time>2024-08-12T05:48:01Z</time>
      </trkpt>
      <trkpt lat="44.80356" lon="6.37167">
        <ele>1966.6</ele>
        <time>2024-08-12T05:48:02Z</time>
      </trkpt>
      <trkpt lat="44.80355" lon="6.37162">
        <ele>1966.6</ele>
        <time>2024-08-12T05:48:03Z</time>
      </trkpt>
      <trkpt lat="44.80355" lon="6.37162">
        <ele>1966.6</ele>
        <time>2024-08-12T05:48:04Z</time>
      </trkpt>
      <trkpt lat="44.80355" lon="6.37158">
        <ele>1966.6</ele>
        <time>2024-08-12T05:48:05Z</time>
      </trkpt>
      <trkpt lat="44.80355" lon="6.37158">
        <ele>1966.6</ele>
        <time>2024-08-12T05:48:06Z</time>
      </trkpt>
      <trkpt lat="44.80355" lon="6.37155">
        <ele>1966.6</ele>
        <time>2024-08-12T05:48:07Z</time>
      </trkpt>
      <trkpt lat="44.80355" lon="6.37155">
        <ele>1967</ele>
        <time>2024-08-12T05:48:08Z</time>
      </trkpt>
      <trkpt lat="44.80354" lon="6.37152">
        <ele>1967</ele>
        <time>2024-08-12T05:48:09Z</time>
      </trkpt>
      <trkpt lat="44.80354" lon="6.37152">
        <ele>1967</ele>
        <time>2024-08-12T05:48:10Z</time>
      </trkpt>
      <trkpt lat="44.80354" lon="6.37149">
        <ele>1967</ele>
        <time>2024-08-12T05:48:11Z</time>
      </trkpt>
      <trkpt lat="44.80354" lon="6.37149">
        <ele>1967</ele>
        <time>2024-08-12T05:48:12Z</time>
      </trkpt>
      <trkpt lat="44.80353" lon="6.37146">
        <ele>1967.2</ele>
        <time>2024-08-12T05:48:13Z</time>
      </trkpt>
      <trkpt lat="44.80353" lon="6.37146">
        <ele>1967.4</ele>
        <time>2024-08-12T05:48:14Z</time>
      </trkpt>
      <trkpt lat="44.80352" lon="6.37143">
        <ele>1967.4</ele>
        <time>2024-08-12T05:48:15Z</time>
      </trkpt>
      <trkpt lat="44.80352" lon="6.37143">
        <ele>1967.4</ele>
        <time>2024-08-12T05:48:16Z</time>
      </trkpt>
      <trkpt lat="44.80352" lon="6.3714">
        <ele>1967.4</ele>
        <time>2024-08-12T05:48:17Z</time>
      </trkpt>
      <trkpt lat="44.80352" lon="6.3714">
        <ele>1967.6</ele>
        <time>2024-08-12T05:48:18Z</time>
      </trkpt>
      <trkpt lat="44.8035" lon="6.37137">
        <ele>1967.6</ele>
        <time>2024-08-12T05:48:19Z</time>
      </trkpt>
      <trkpt lat="44.8035" lon="6.37137">
        <ele>1967.6</ele>
        <time>2024-08-12T05:48:20Z</time>
      </trkpt>
      <trkpt lat="44.80349" lon="6.37134">
        <ele>1967.6</ele>
        <time>2024-08-12T05:48:21Z</time>
      </trkpt>
      <trkpt lat="44.80349" lon="6.37134">
        <ele>1967.6</ele>
        <time>2024-08-12T05:48:22Z</time>
      </trkpt>
      <trkpt lat="44.80349" lon="6.37131">
        <ele>1967.8</ele>
        <time>2024-08-12T05:48:23Z</time>
      </trkpt>
      <trkpt lat="44.80349" lon="6.37131">
        <ele>1968.2</ele>
        <time>2024-08-12T05:48:24Z</time>
      </trkpt>
      <trkpt lat="44.80347" lon="6.37128">
        <ele>1968.2</ele>
        <time>2024-08-12T05:48:25Z</time>
      </trkpt>
      <trkpt lat="44.80347" lon="6.37128">
        <ele>1968.4</ele>
        <time>2024-08-12T05:48:26Z</time>
      </trkpt>
      <trkpt lat="44.80346" lon="6.37126">
        <ele>1968.4</ele>
        <time>2024-08-12T05:48:27Z</time>
      </trkpt>
      <trkpt lat="44.80346" lon="6.37126">
        <ele>1968.8</ele>
        <time>2024-08-12T05:48:28Z</time>
      </trkpt>
      <trkpt lat="44.80344" lon="6.37123">
        <ele>1968.8</ele>
        <time>2024-08-12T05:48:29Z</time>
      </trkpt>
      <trkpt lat="44.80344" lon="6.37123">
        <ele>1969</ele>
        <time>2024-08-12T05:48:30Z</time>
      </trkpt>
      <trkpt lat="44.80344" lon="6.3712">
        <ele>1969</ele>
        <time>2024-08-12T05:48:31Z</time>
      </trkpt>
      <trkpt lat="44.80344" lon="6.3712">
        <ele>1969.2</ele>
        <time>2024-08-12T05:48:32Z</time>
      </trkpt>
      <trkpt lat="44.80342" lon="6.37119">
        <ele>1969.4</ele>
        <time>2024-08-12T05:48:33Z</time>
      </trkpt>
      <trkpt lat="44.80342" lon="6.37119">
        <ele>1969.4</ele>
        <time>2024-08-12T05:48:34Z</time>
      </trkpt>
      <trkpt lat="44.8034" lon="6.37117">
        <ele>1969.6</ele>
        <time>2024-08-12T05:48:35Z</time>
      </trkpt>
      <trkpt lat="44.8034" lon="6.37117">
        <ele>1969.6</ele>
        <time>2024-08-12T05:48:36Z</time>
      </trkpt>
      <trkpt lat="44.8034" lon="6.37117">
        <ele>1969.6</ele>
        <time>2024-08-12T05:48:37Z</time>
      </trkpt>
      <trkpt lat="44.80339" lon="6.37114">
        <ele>1969.6</ele>
        <time>2024-08-12T05:48:38Z</time>
      </trkpt>
      <trkpt lat="44.80339" lon="6.37114">
        <ele>1969.6</ele>
        <time>2024-08-12T05:48:39Z</time>
      </trkpt>
      <trkpt lat="44.80338" lon="6.37111">
        <ele>1969.8</ele>
        <time>2024-08-12T05:48:40Z</time>
      </trkpt>
      <trkpt lat="44.80338" lon="6.37111">
        <ele>1970</ele>
        <time>2024-08-12T05:48:41Z</time>
      </trkpt>
      <trkpt lat="44.80339" lon="6.37108">
        <ele>1970.2</ele>
        <time>2024-08-12T05:48:42Z</time>
      </trkpt>
      <trkpt lat="44.80339" lon="6.37108">
        <ele>1970.2</ele>
        <time>2024-08-12T05:48:43Z</time>
      </trkpt>
      <trkpt lat="44.8034" lon="6.37106">
        <ele>1970.4</ele>
        <time>2024-08-12T05:48:44Z</time>
      </trkpt>
      <trkpt lat="44.8034" lon="6.37106">
        <ele>1970.4</ele>
        <time>2024-08-12T05:48:45Z</time>
      </trkpt>
      <trkpt lat="44.80341" lon="6.37103">
        <ele>1970.6</ele>
        <time>2024-08-12T05:48:46Z</time>
      </trkpt>
      <trkpt lat="44.80341" lon="6.37103">
        <ele>1970.6</ele>
        <time>2024-08-12T05:48:47Z</time>
      </trkpt>
      <trkpt lat="44.80341" lon="6.37103">
        <ele>1970.8</ele>
        <time>2024-08-12T05:48:48Z</time>
      </trkpt>
      <trkpt lat="44.8034" lon="6.37099">
        <ele>1971.2</ele>
        <time>2024-08-12T05:48:49Z</time>
      </trkpt>
      <trkpt lat="44.8034" lon="6.37099">
        <ele>1971.4</ele>
        <time>2024-08-12T05:48:50Z</time>
      </trkpt>
      <trkpt lat="44.8034" lon="6.37096">
        <ele>1971.6</ele>
        <time>2024-08-12T05:48:51Z</time>
      </trkpt>
      <trkpt lat="44.8034" lon="6.37096">
        <ele>1971.6</ele>
        <time>2024-08-12T05:48:52Z</time>
      </trkpt>
      <trkpt lat="44.8034" lon="6.37093">
        <ele>1971.6</ele>
        <time>2024-08-12T05:48:53Z</time>
      </trkpt>
      <trkpt lat="44.8034" lon="6.37093">
        <ele>1971.8</ele>
        <time>2024-08-12T05:48:54Z</time>
      </trkpt>
      <trkpt lat="44.80339" lon="6.3709">
        <ele>1971.8</ele>
        <time>2024-08-12T05:48:55Z</time>
      </trkpt>
      <trkpt lat="44.80339" lon="6.3709">
        <ele>1971.8</ele>
        <time>2024-08-12T05:48:56Z</time>
      </trkpt>
      <trkpt lat="44.80339" lon="6.37087">
        <ele>1971.8</ele>
        <time>2024-08-12T05:48:57Z</time>
      </trkpt>
      <trkpt lat="44.80339" lon="6.37087">
        <ele>1971.8</ele>
        <time>2024-08-12T05:48:58Z</time>
      </trkpt>
      <trkpt lat="44.80339" lon="6.37084">
        <ele>1971.8</ele>
        <time>2024-08-12T05:48:59Z</time>
      </trkpt>
      <trkpt lat="44.80339" lon="6.37084">
        <ele>1972.2</ele>
        <time>2024-08-12T05:49:00Z</time>
      </trkpt>
      <trkpt lat="44.80339" lon="6.37081">
        <ele>1972.2</ele>
        <time>2024-08-12T05:49:01Z</time>
      </trkpt>
      <trkpt lat="44.80339" lon="6.37081">
        <ele>1972.2</ele>
        <time>2024-08-12T05:49:02Z</time>
      </trkpt>
      <trkpt lat="44.80339" lon="6.37081">
        <ele>1972.2</ele>
        <time>2024-08-12T05:49:03Z</time>
      </trkpt>
      <trkpt lat="44.80339" lon="6.37081">
        <ele>1972.4</ele>
        <time>2024-08-12T05:49:04Z</time>
      </trkpt>
      <trkpt lat="44.80339" lon="6.37081">
        <ele>1972.4</ele>
        <time>2024-08-12T05:49:05Z</time>
      </trkpt>
      <trkpt lat="44.80339" lon="6.37081">
        <ele>1972.4</ele>
        <time>2024-08-12T05:49:06Z</time>
      </trkpt>
      <trkpt lat="44.80339" lon="6.37081">
        <ele>1972.4</ele>
        <time>2024-08-12T05:49:07Z</time>
      </trkpt>
      <trkpt lat="44.80338" lon="6.37078">
        <ele>1972.6</ele>
        <time>2024-08-12T05:49:08Z</time>
      </trkpt>
      <trkpt lat="44.80338" lon="6.37078">
        <ele>1972.6</ele>
        <time>2024-08-12T05:49:09Z</time>
      </trkpt>
      <trkpt lat="44.80337" lon="6.37075">
        <ele>1972.4</ele>
        <time>2024-08-12T05:49:10Z</time>
      </trkpt>
      <trkpt lat="44.80337" lon="6.37075">
        <ele>1972.4</ele>
        <time>2024-08-12T05:49:11Z</time>
      </trkpt>
      <trkpt lat="44.80337" lon="6.37075">
        <ele>1973</ele>
        <time>2024-08-12T05:49:12Z</time>
      </trkpt>
      <trkpt lat="44.80335" lon="6.37072">
        <ele>1973</ele>
        <time>2024-08-12T05:49:13Z</time>
      </trkpt>
      <trkpt lat="44.80335" lon="6.37072">
        <ele>1973</ele>
        <time>2024-08-12T05:49:14Z</time>
      </trkpt>
      <trkpt lat="44.80333" lon="6.3707">
        <ele>1973</ele>
        <time>2024-08-12T05:49:15Z</time>
      </trkpt>
      <trkpt lat="44.80333" lon="6.3707">
        <ele>1972.6</ele>
        <time>2024-08-12T05:49:16Z</time>
      </trkpt>
      <trkpt lat="44.80333" lon="6.3707">
        <ele>1972.6</ele>
        <time>2024-08-12T05:49:17Z</time>
      </trkpt>
      <trkpt lat="44.80331" lon="6.37068">
        <ele>1973</ele>
        <time>2024-08-12T05:49:18Z</time>
      </trkpt>
      <trkpt lat="44.80331" lon="6.37068">
        <ele>1973</ele>
        <time>2024-08-12T05:49:19Z</time>
      </trkpt>
      <trkpt lat="44.80331" lon="6.37068">
        <ele>1973</ele>
        <time>2024-08-12T05:49:20Z</time>
      </trkpt>
      <trkpt lat="44.80331" lon="6.37068">
        <ele>1973.2</ele>
        <time>2024-08-12T05:49:21Z</time>
      </trkpt>
      <trkpt lat="44.80328" lon="6.37066">
        <ele>1973.4</ele>
        <time>2024-08-12T05:49:22Z</time>
      </trkpt>
      <trkpt lat="44.80328" lon="6.37066">
        <ele>1973.6</ele>
        <time>2024-08-12T05:49:23Z</time>
      </trkpt>
      <trkpt lat="44.80328" lon="6.37066">
        <ele>1973.8</ele>
        <time>2024-08-12T05:49:24Z</time>
      </trkpt>
      <trkpt lat="44.80325" lon="6.37065">
        <ele>1973.8</ele>
        <time>2024-08-12T05:49:25Z</time>
      </trkpt>
      <trkpt lat="44.80325" lon="6.37065">
        <ele>1974.2</ele>
        <time>2024-08-12T05:49:26Z</time>
      </trkpt>
      <trkpt lat="44.80325" lon="6.37065">
        <ele>1974.4</ele>
        <time>2024-08-12T05:49:27Z</time>
      </trkpt>
      <trkpt lat="44.80323" lon="6.37063">
        <ele>1974.4</ele>
        <time>2024-08-12T05:49:28Z</time>
      </trkpt>
      <trkpt lat="44.80323" lon="6.37063">
        <ele>1974.6</ele>
        <time>2024-08-12T05:49:29Z</time>
      </trkpt>
      <trkpt lat="44.80323" lon="6.37063">
        <ele>1975</ele>
        <time>2024-08-12T05:49:30Z</time>
      </trkpt>
      <trkpt lat="44.80322" lon="6.3706">
        <ele>1975</ele>
        <time>2024-08-12T05:49:31Z</time>
      </trkpt>
      <trkpt lat="44.80322" lon="6.3706">
        <ele>1975</ele>
        <time>2024-08-12T05:49:32Z</time>
      </trkpt>
      <trkpt lat="44.80322" lon="6.3706">
        <ele>1975.2</ele>
        <time>2024-08-12T05:49:33Z</time>
      </trkpt>
      <trkpt lat="44.80321" lon="6.37056">
        <ele>1975.2</ele>
        <time>2024-08-12T05:49:34Z</time>
      </trkpt>
      <trkpt lat="44.80321" lon="6.37056">
        <ele>1975.2</ele>
        <time>2024-08-12T05:49:35Z</time>
      </trkpt>
      <trkpt lat="44.8032" lon="6.37054">
        <ele>1975.4</ele>
        <time>2024-08-12T05:49:36Z</time>
      </trkpt>
      <trkpt lat="44.8032" lon="6.37054">
        <ele>1975.4</ele>
        <time>2024-08-12T05:49:37Z</time>
      </trkpt>
      <trkpt lat="44.8032" lon="6.37054">
        <ele>1975.6</ele>
        <time>2024-08-12T05:49:38Z</time>
      </trkpt>
      <trkpt lat="44.80319" lon="6.3705">
        <ele>1975.8</ele>
        <time>2024-08-12T05:49:39Z</time>
      </trkpt>
      <trkpt lat="44.80319" lon="6.3705">
        <ele>1975.8</ele>
        <time>2024-08-12T05:49:40Z</time>
      </trkpt>
      <trkpt lat="44.80318" lon="6.37048">
        <ele>1976</ele>
        <time>2024-08-12T05:49:41Z</time>
      </trkpt>
      <trkpt lat="44.80318" lon="6.37048">
        <ele>1976.2</ele>
        <time>2024-08-12T05:49:42Z</time>
      </trkpt>
      <trkpt lat="44.80317" lon="6.37046">
        <ele>1976.4</ele>
        <time>2024-08-12T05:49:43Z</time>
      </trkpt>
      <trkpt lat="44.80317" lon="6.37046">
        <ele>1976.6</ele>
        <time>2024-08-12T05:49:44Z</time>
      </trkpt>
      <trkpt lat="44.80315" lon="6.37044">
        <ele>1976.6</ele>
        <time>2024-08-12T05:49:45Z</time>
      </trkpt>
      <trkpt lat="44.80315" lon="6.37044">
        <ele>1976.4</ele>
        <time>2024-08-12T05:49:46Z</time>
      </trkpt>
      <trkpt lat="44.80314" lon="6.37041">
        <ele>1976.4</ele>
        <time>2024-08-12T05:49:47Z</time>
      </trkpt>
      <trkpt lat="44.80314" lon="6.37041">
        <ele>1976.6</ele>
        <time>2024-08-12T05:49:48Z</time>
      </trkpt>
      <trkpt lat="44.80312" lon="6.37039">
        <ele>1976.8</ele>
        <time>2024-08-12T05:49:49Z</time>
      </trkpt>
      <trkpt lat="44.80312" lon="6.37039">
        <ele>1977</ele>
        <time>2024-08-12T05:49:50Z</time>
      </trkpt>
      <trkpt lat="44.80311" lon="6.37036">
        <ele>1977</ele>
        <time>2024-08-12T05:49:51Z</time>
      </trkpt>
      <trkpt lat="44.80311" lon="6.37036">
        <ele>1977</ele>
        <time>2024-08-12T05:49:52Z</time>
      </trkpt>
      <trkpt lat="44.8031" lon="6.37033">
        <ele>1977.2</ele>
        <time>2024-08-12T05:49:53Z</time>
      </trkpt>
      <trkpt lat="44.8031" lon="6.37033">
        <ele>1977.2</ele>
        <time>2024-08-12T05:49:54Z</time>
      </trkpt>
      <trkpt lat="44.80309" lon="6.3703">
        <ele>1977.4</ele>
        <time>2024-08-12T05:49:55Z</time>
      </trkpt>
      <trkpt lat="44.80309" lon="6.3703">
        <ele>1977.4</ele>
        <time>2024-08-12T05:49:56Z</time>
      </trkpt>
      <trkpt lat="44.80308" lon="6.37027">
        <ele>1977.4</ele>
        <time>2024-08-12T05:49:57Z</time>
      </trkpt>
      <trkpt lat="44.80308" lon="6.37027">
        <ele>1977.4</ele>
        <time>2024-08-12T05:49:58Z</time>
      </trkpt>
      <trkpt lat="44.80307" lon="6.37025">
        <ele>1977.4</ele>
        <time>2024-08-12T05:49:59Z</time>
      </trkpt>
      <trkpt lat="44.80307" lon="6.37025">
        <ele>1977.4</ele>
        <time>2024-08-12T05:50:00Z</time>
      </trkpt>
      <trkpt lat="44.80306" lon="6.37022">
        <ele>1977.8</ele>
        <time>2024-08-12T05:50:01Z</time>
      </trkpt>
      <trkpt lat="44.80306" lon="6.37022">
        <ele>1977.8</ele>
        <time>2024-08-12T05:50:02Z</time>
      </trkpt>
      <trkpt lat="44.80304" lon="6.37019">
        <ele>1977.8</ele>
        <time>2024-08-12T05:50:03Z</time>
      </trkpt>
      <trkpt lat="44.80304" lon="6.37019">
        <ele>1978</ele>
        <time>2024-08-12T05:50:04Z</time>
      </trkpt>
      <trkpt lat="44.80303" lon="6.37017">
        <ele>1978</ele>
        <time>2024-08-12T05:50:05Z</time>
      </trkpt>
      <trkpt lat="44.80303" lon="6.37017">
        <ele>1978</ele>
        <time>2024-08-12T05:50:06Z</time>
      </trkpt>
      <trkpt lat="44.80302" lon="6.37014">
        <ele>1978</ele>
        <time>2024-08-12T05:50:07Z</time>
      </trkpt>
      <trkpt lat="44.80302" lon="6.37014">
        <ele>1978.2</ele>
        <time>2024-08-12T05:50:08Z</time>
      </trkpt>
      <trkpt lat="44.80301" lon="6.37011">
        <ele>1978.4</ele>
        <time>2024-08-12T05:50:09Z</time>
      </trkpt>
      <trkpt lat="44.80301" lon="6.37011">
        <ele>1978.4</ele>
        <time>2024-08-12T05:50:10Z</time>
      </trkpt>
      <trkpt lat="44.803" lon="6.37008">
        <ele>1978.4</ele>
        <time>2024-08-12T05:50:11Z</time>
      </trkpt>
      <trkpt lat="44.803" lon="6.37008">
        <ele>1978.2</ele>
        <time>2024-08-12T05:50:12Z</time>
      </trkpt>
      <trkpt lat="44.80299" lon="6.37006">
        <ele>1978.2</ele>
        <time>2024-08-12T05:50:13Z</time>
      </trkpt>
      <trkpt lat="44.80299" lon="6.37006">
        <ele>1978.4</ele>
        <time>2024-08-12T05:50:14Z</time>
      </trkpt>
      <trkpt lat="44.80299" lon="6.37006">
        <ele>1978.8</ele>
        <time>2024-08-12T05:50:15Z</time>
      </trkpt>
      <trkpt lat="44.80298" lon="6.37003">
        <ele>1978.8</ele>
        <time>2024-08-12T05:50:16Z</time>
      </trkpt>
      <trkpt lat="44.80298" lon="6.37003">
        <ele>1979</ele>
        <time>2024-08-12T05:50:17Z</time>
      </trkpt>
      <trkpt lat="44.80298" lon="6.37003">
        <ele>1979.2</ele>
        <time>2024-08-12T05:50:18Z</time>
      </trkpt>
      <trkpt lat="44.80297" lon="6.37">
        <ele>1979.4</ele>
        <time>2024-08-12T05:50:19Z</time>
      </trkpt>
      <trkpt lat="44.80297" lon="6.37">
        <ele>1979.6</ele>
        <time>2024-08-12T05:50:20Z</time>
      </trkpt>
      <trkpt lat="44.80297" lon="6.37">
        <ele>1979.8</ele>
        <time>2024-08-12T05:50:21Z</time>
      </trkpt>
      <trkpt lat="44.80295" lon="6.36998">
        <ele>1979.8</ele>
        <time>2024-08-12T05:50:22Z</time>
      </trkpt>
      <trkpt lat="44.80295" lon="6.36998">
        <ele>1980</ele>
        <time>2024-08-12T05:50:23Z</time>
      </trkpt>
      <trkpt lat="44.80295" lon="6.36998">
        <ele>1980.2</ele>
        <time>2024-08-12T05:50:24Z</time>
      </trkpt>
      <trkpt lat="44.80295" lon="6.36998">
        <ele>1980.4</ele>
        <time>2024-08-12T05:50:25Z</time>
      </trkpt>
      <trkpt lat="44.80294" lon="6.36994">
        <ele>1980.6</ele>
        <time>2024-08-12T05:50:26Z</time>
      </trkpt>
      <trkpt lat="44.80294" lon="6.36994">
        <ele>1981</ele>
        <time>2024-08-12T05:50:27Z</time>
      </trkpt>
      <trkpt lat="44.80294" lon="6.36991">
        <ele>1981</ele>
        <time>2024-08-12T05:50:28Z</time>
      </trkpt>
      <trkpt lat="44.80294" lon="6.36991">
        <ele>1981</ele>
        <time>2024-08-12T05:50:29Z</time>
      </trkpt>
      <trkpt lat="44.80292" lon="6.36988">
        <ele>1981.2</ele>
        <time>2024-08-12T05:50:30Z</time>
      </trkpt>
      <trkpt lat="44.80292" lon="6.36988">
        <ele>1981.4</ele>
        <time>2024-08-12T05:50:31Z</time>
      </trkpt>
      <trkpt lat="44.80292" lon="6.36985">
        <ele>1981.4</ele>
        <time>2024-08-12T05:50:32Z</time>
      </trkpt>
      <trkpt lat="44.80292" lon="6.36985">
        <ele>1981.4</ele>
        <time>2024-08-12T05:50:33Z</time>
      </trkpt>
      <trkpt lat="44.80291" lon="6.36982">
        <ele>1981.4</ele>
        <time>2024-08-12T05:50:34Z</time>
      </trkpt>
      <trkpt lat="44.80291" lon="6.36982">
        <ele>1981.4</ele>
        <time>2024-08-12T05:50:35Z</time>
      </trkpt>
      <trkpt lat="44.8029" lon="6.36979">
        <ele>1981.6</ele>
        <time>2024-08-12T05:50:36Z</time>
      </trkpt>
      <trkpt lat="44.8029" lon="6.36979">
        <ele>1981.6</ele>
        <time>2024-08-12T05:50:37Z</time>
      </trkpt>
      <trkpt lat="44.80289" lon="6.36975">
        <ele>1981.6</ele>
        <time>2024-08-12T05:50:38Z</time>
      </trkpt>
      <trkpt lat="44.80289" lon="6.36975">
        <ele>1981.6</ele>
        <time>2024-08-12T05:50:39Z</time>
      </trkpt>
      <trkpt lat="44.80287" lon="6.36973">
        <ele>1981.6</ele>
        <time>2024-08-12T05:50:40Z</time>
      </trkpt>
      <trkpt lat="44.80287" lon="6.36973">
        <ele>1981.8</ele>
        <time>2024-08-12T05:50:41Z</time>
      </trkpt>
      <trkpt lat="44.80287" lon="6.36973">
        <ele>1981.8</ele>
        <time>2024-08-12T05:50:42Z</time>
      </trkpt>
      <trkpt lat="44.80286" lon="6.3697">
        <ele>1981.8</ele>
        <time>2024-08-12T05:50:43Z</time>
      </trkpt>
      <trkpt lat="44.80286" lon="6.3697">
        <ele>1981.8</ele>
        <time>2024-08-12T05:50:44Z</time>
      </trkpt>
      <trkpt lat="44.80285" lon="6.36968">
        <ele>1982.2</ele>
        <time>2024-08-12T05:50:45Z</time>
      </trkpt>
      <trkpt lat="44.80285" lon="6.36968">
        <ele>1982.2</ele>
        <time>2024-08-12T05:50:46Z</time>
      </trkpt>
      <trkpt lat="44.80285" lon="6.36968">
        <ele>1982.4</ele>
        <time>2024-08-12T05:50:47Z</time>
      </trkpt>
      <trkpt lat="44.80285" lon="6.36965">
        <ele>1982.6</ele>
        <time>2024-08-12T05:50:48Z</time>
      </trkpt>
      <trkpt lat="44.80285" lon="6.36965">
        <ele>1982.6</ele>
        <time>2024-08-12T05:50:49Z</time>
      </trkpt>
      <trkpt lat="44.80285" lon="6.36965">
        <ele>1982.6</ele>
        <time>2024-08-12T05:50:50Z</time>
      </trkpt>
      <trkpt lat="44.80285" lon="6.36965">
        <ele>1982.6</ele>
        <time>2024-08-12T05:50:51Z</time>
      </trkpt>
      <trkpt lat="44.80285" lon="6.36961">
        <ele>1983</ele>
        <time>2024-08-12T05:50:52Z</time>
      </trkpt>
      <trkpt lat="44.80285" lon="6.36961">
        <ele>1983.2</ele>
        <time>2024-08-12T05:50:53Z</time>
      </trkpt>
      <trkpt lat="44.80285" lon="6.36961">
        <ele>1983.4</ele>
        <time>2024-08-12T05:50:54Z</time>
      </trkpt>
      <trkpt lat="44.80285" lon="6.36958">
        <ele>1983.8</ele>
        <time>2024-08-12T05:50:55Z</time>
      </trkpt>
      <trkpt lat="44.80285" lon="6.36958">
        <ele>1984.2</ele>
        <time>2024-08-12T05:50:56Z</time>
      </trkpt>
      <trkpt lat="44.80285" lon="6.36958">
        <ele>1984.2</ele>
        <time>2024-08-12T05:50:57Z</time>
      </trkpt>
      <trkpt lat="44.80285" lon="6.36955">
        <ele>1984.2</ele>
        <time>2024-08-12T05:50:58Z</time>
      </trkpt>
      <trkpt lat="44.80285" lon="6.36955">
        <ele>1984.4</ele>
        <time>2024-08-12T05:50:59Z</time>
      </trkpt>
      <trkpt lat="44.80285" lon="6.36955">
        <ele>1984.6</ele>
        <time>2024-08-12T05:51:00Z</time>
      </trkpt>
      <trkpt lat="44.80285" lon="6.36951">
        <ele>1984.6</ele>
        <time>2024-08-12T05:51:01Z</time>
      </trkpt>
      <trkpt lat="44.80285" lon="6.36951">
        <ele>1985.4</ele>
        <time>2024-08-12T05:51:02Z</time>
      </trkpt>
      <trkpt lat="44.80285" lon="6.36951">
        <ele>1985.4</ele>
        <time>2024-08-12T05:51:03Z</time>
      </trkpt>
      <trkpt lat="44.80284" lon="6.36948">
        <ele>1985.6</ele>
        <time>2024-08-12T05:51:04Z</time>
      </trkpt>
      <trkpt lat="44.80284" lon="6.36948">
        <ele>1985.8</ele>
        <time>2024-08-12T05:51:05Z</time>
      </trkpt>
      <trkpt lat="44.80283" lon="6.36946">
        <ele>1986.2</ele>
        <time>2024-08-12T05:51:06Z</time>
      </trkpt>
      <trkpt lat="44.80283" lon="6.36946">
        <ele>1986.2</ele>
        <time>2024-08-12T05:51:07Z</time>
      </trkpt>
      <trkpt lat="44.80283" lon="6.36946">
        <ele>1986.4</ele>
        <time>2024-08-12T05:51:08Z</time>
      </trkpt>
      <trkpt lat="44.80282" lon="6.36943">
        <ele>1986.6</ele>
        <time>2024-08-12T05:51:09Z</time>
      </trkpt>
      <trkpt lat="44.80282" lon="6.36943">
        <ele>1986.8</ele>
        <time>2024-08-12T05:51:10Z</time>
      </trkpt>
      <trkpt lat="44.8028" lon="6.36941">
        <ele>1986.8</ele>
        <time>2024-08-12T05:51:11Z</time>
      </trkpt>
      <trkpt lat="44.8028" lon="6.36941">
        <ele>1986.8</ele>
        <time>2024-08-12T05:51:12Z</time>
      </trkpt>
      <trkpt lat="44.80279" lon="6.36939">
        <ele>1987</ele>
        <time>2024-08-12T05:51:13Z</time>
      </trkpt>
      <trkpt lat="44.80279" lon="6.36939">
        <ele>1987.2</ele>
        <time>2024-08-12T05:51:14Z</time>
      </trkpt>
      <trkpt lat="44.80277" lon="6.36936">
        <ele>1987.4</ele>
        <time>2024-08-12T05:51:15Z</time>
      </trkpt>
      <trkpt lat="44.80277" lon="6.36936">
        <ele>1987.4</ele>
        <time>2024-08-12T05:51:16Z</time>
      </trkpt>
      <trkpt lat="44.80276" lon="6.36934">
        <ele>1987.4</ele>
        <time>2024-08-12T05:51:17Z</time>
      </trkpt>
      <trkpt lat="44.80276" lon="6.36934">
        <ele>1987.4</ele>
        <time>2024-08-12T05:51:18Z</time>
      </trkpt>
      <trkpt lat="44.80275" lon="6.36931">
        <ele>1987.8</ele>
        <time>2024-08-12T05:51:19Z</time>
      </trkpt>
      <trkpt lat="44.80275" lon="6.36931">
        <ele>1988</ele>
        <time>2024-08-12T05:51:20Z</time>
      </trkpt>
      <trkpt lat="44.80274" lon="6.36928">
        <ele>1988</ele>
        <time>2024-08-12T05:51:21Z</time>
      </trkpt>
      <trkpt lat="44.80274" lon="6.36928">
        <ele>1988</ele>
        <time>2024-08-12T05:51:22Z</time>
      </trkpt>
      <trkpt lat="44.80273" lon="6.36925">
        <ele>1988</ele>
        <time>2024-08-12T05:51:23Z</time>
      </trkpt>
      <trkpt lat="44.80273" lon="6.36925">
        <ele>1988.2</ele>
        <time>2024-08-12T05:51:24Z</time>
      </trkpt>
      <trkpt lat="44.80272" lon="6.36922">
        <ele>1988.2</ele>
        <time>2024-08-12T05:51:25Z</time>
      </trkpt>
      <trkpt lat="44.80272" lon="6.36922">
        <ele>1988.2</ele>
        <time>2024-08-12T05:51:26Z</time>
      </trkpt>
      <trkpt lat="44.8027" lon="6.3692">
        <ele>1988.4</ele>
        <time>2024-08-12T05:51:27Z</time>
      </trkpt>
      <trkpt lat="44.8027" lon="6.3692">
        <ele>1988.6</ele>
        <time>2024-08-12T05:51:28Z</time>
      </trkpt>
      <trkpt lat="44.80269" lon="6.36918">
        <ele>1988.6</ele>
        <time>2024-08-12T05:51:29Z</time>
      </trkpt>
      <trkpt lat="44.80269" lon="6.36918">
        <ele>1988.6</ele>
        <time>2024-08-12T05:51:30Z</time>
      </trkpt>
      <trkpt lat="44.80267" lon="6.36916">
        <ele>1988.6</ele>
        <time>2024-08-12T05:51:31Z</time>
      </trkpt>
      <trkpt lat="44.80267" lon="6.36916">
        <ele>1988.8</ele>
        <time>2024-08-12T05:51:32Z</time>
      </trkpt>
      <trkpt lat="44.80267" lon="6.36916">
        <ele>1989.2</ele>
        <time>2024-08-12T05:51:33Z</time>
      </trkpt>
      <trkpt lat="44.80266" lon="6.36912">
        <ele>1989.2</ele>
        <time>2024-08-12T05:51:34Z</time>
      </trkpt>
      <trkpt lat="44.80266" lon="6.36912">
        <ele>1989.2</ele>
        <time>2024-08-12T05:51:35Z</time>
      </trkpt>
      <trkpt lat="44.80265" lon="6.3691">
        <ele>1989.6</ele>
        <time>2024-08-12T05:51:36Z</time>
      </trkpt>
      <trkpt lat="44.80265" lon="6.3691">
        <ele>1989.6</ele>
        <time>2024-08-12T05:51:37Z</time>
      </trkpt>
      <trkpt lat="44.80263" lon="6.36907">
        <ele>1989.6</ele>
        <time>2024-08-12T05:51:38Z</time>
      </trkpt>
      <trkpt lat="44.80263" lon="6.36907">
        <ele>1989.8</ele>
        <time>2024-08-12T05:51:39Z</time>
      </trkpt>
      <trkpt lat="44.80263" lon="6.36904">
        <ele>1989.8</ele>
        <time>2024-08-12T05:51:40Z</time>
      </trkpt>
      <trkpt lat="44.80263" lon="6.36904">
        <ele>1989.8</ele>
        <time>2024-08-12T05:51:41Z</time>
      </trkpt>
      <trkpt lat="44.80262" lon="6.36901">
        <ele>1989.8</ele>
        <time>2024-08-12T05:51:42Z</time>
      </trkpt>
      <trkpt lat="44.80262" lon="6.36901">
        <ele>1990</ele>
        <time>2024-08-12T05:51:43Z</time>
      </trkpt>
      <trkpt lat="44.8026" lon="6.36899">
        <ele>1990.2</ele>
        <time>2024-08-12T05:51:44Z</time>
      </trkpt>
      <trkpt lat="44.8026" lon="6.36899">
        <ele>1990.4</ele>
        <time>2024-08-12T05:51:45Z</time>
      </trkpt>
      <trkpt lat="44.80259" lon="6.36896">
        <ele>1990.4</ele>
        <time>2024-08-12T05:51:46Z</time>
      </trkpt>
      <trkpt lat="44.80259" lon="6.36896">
        <ele>1990.4</ele>
        <time>2024-08-12T05:51:47Z</time>
      </trkpt>
      <trkpt lat="44.80259" lon="6.36896">
        <ele>1990.6</ele>
        <time>2024-08-12T05:51:48Z</time>
      </trkpt>
      <trkpt lat="44.80259" lon="6.36896">
        <ele>1991</ele>
        <time>2024-08-12T05:51:49Z</time>
      </trkpt>
      <trkpt lat="44.80259" lon="6.36896">
        <ele>1991</ele>
        <time>2024-08-12T05:51:50Z</time>
      </trkpt>
      <trkpt lat="44.80259" lon="6.36896">
        <ele>1991</ele>
        <time>2024-08-12T05:51:51Z</time>
      </trkpt>
      <trkpt lat="44.80259" lon="6.36896">
        <ele>1991</ele>
        <time>2024-08-12T05:51:52Z</time>
      </trkpt>
      <trkpt lat="44.80259" lon="6.36896">
        <ele>1991</ele>
        <time>2024-08-12T05:51:53Z</time>
      </trkpt>
      <trkpt lat="44.80259" lon="6.36896">
        <ele>1991</ele>
        <time>2024-08-12T05:51:54Z</time>
      </trkpt>
      <trkpt lat="44.80259" lon="6.36896">
        <ele>1991</ele>
        <time>2024-08-12T05:51:55Z</time>
      </trkpt>
      <trkpt lat="44.80259" lon="6.36896">
        <ele>1990.8</ele>
        <time>2024-08-12T05:51:56Z</time>
      </trkpt>
      <trkpt lat="44.80259" lon="6.36896">
        <ele>1990.8</ele>
        <time>2024-08-12T05:51:57Z</time>
      </trkpt>
      <trkpt lat="44.80259" lon="6.36896">
        <ele>1991</ele>
        <time>2024-08-12T05:51:58Z</time>
      </trkpt>
      <trkpt lat="44.80259" lon="6.36896">
        <ele>1991.2</ele>
        <time>2024-08-12T05:51:59Z</time>
      </trkpt>
      <trkpt lat="44.80259" lon="6.36896">
        <ele>1991.2</ele>
        <time>2024-08-12T05:52:00Z</time>
      </trkpt>
      <trkpt lat="44.80259" lon="6.36896">
        <ele>1991.2</ele>
        <time>2024-08-12T05:52:01Z</time>
      </trkpt>
      <trkpt lat="44.80259" lon="6.36896">
        <ele>1991.2</ele>
        <time>2024-08-12T05:52:02Z</time>
      </trkpt>
      <trkpt lat="44.80259" lon="6.36896">
        <ele>1991.2</ele>
        <time>2024-08-12T05:52:03Z</time>
      </trkpt>
      <trkpt lat="44.80259" lon="6.36896">
        <ele>1991</ele>
        <time>2024-08-12T05:52:04Z</time>
      </trkpt>
      <trkpt lat="44.80259" lon="6.36896">
        <ele>1991</ele>
        <time>2024-08-12T05:52:05Z</time>
      </trkpt>
      <trkpt lat="44.80259" lon="6.36896">
        <ele>1991</ele>
        <time>2024-08-12T05:52:06Z</time>
      </trkpt>
      <trkpt lat="44.80259" lon="6.36896">
        <ele>1991</ele>
        <time>2024-08-12T05:52:07Z</time>
      </trkpt>
      <trkpt lat="44.80259" lon="6.36896">
        <ele>1991.2</ele>
        <time>2024-08-12T05:52:08Z</time>
      </trkpt>
      <trkpt lat="44.80259" lon="6.36896">
        <ele>1991.2</ele>
        <time>2024-08-12T05:52:09Z</time>
      </trkpt>
      <trkpt lat="44.80259" lon="6.36896">
        <ele>1991.2</ele>
        <time>2024-08-12T05:52:10Z</time>
      </trkpt>
      <trkpt lat="44.80259" lon="6.36896">
        <ele>1991.2</ele>
        <time>2024-08-12T05:52:11Z</time>
      </trkpt>
      <trkpt lat="44.80259" lon="6.36896">
        <ele>1991.2</ele>
        <time>2024-08-12T05:52:12Z</time>
      </trkpt>
      <trkpt lat="44.80259" lon="6.36896">
        <ele>1991.2</ele>
        <time>2024-08-12T05:52:13Z</time>
      </trkpt>
      <trkpt lat="44.80259" lon="6.36896">
        <ele>1991.2</ele>
        <time>2024-08-12T05:52:14Z</time>
      </trkpt>
      <trkpt lat="44.80259" lon="6.36896">
        <ele>1991.4</ele>
        <time>2024-08-12T05:52:15Z</time>
      </trkpt>
      <trkpt lat="44.80259" lon="6.36896">
        <ele>1991.8</ele>
        <time>2024-08-12T05:52:16Z</time>
      </trkpt>
      <trkpt lat="44.80259" lon="6.36896">
        <ele>1992</ele>
        <time>2024-08-12T05:52:17Z</time>
      </trkpt>
      <trkpt lat="44.80259" lon="6.36896">
        <ele>1992</ele>
        <time>2024-08-12T05:52:18Z</time>
      </trkpt>
      <trkpt lat="44.80259" lon="6.36896">
        <ele>1992</ele>
        <time>2024-08-12T05:52:19Z</time>
      </trkpt>
      <trkpt lat="44.80259" lon="6.36896">
        <ele>1992</ele>
        <time>2024-08-12T05:52:20Z</time>
      </trkpt>
      <trkpt lat="44.80259" lon="6.36896">
        <ele>1992</ele>
        <time>2024-08-12T05:52:21Z</time>
      </trkpt>
      <trkpt lat="44.80259" lon="6.36896">
        <ele>1992</ele>
        <time>2024-08-12T05:52:22Z</time>
      </trkpt>
      <trkpt lat="44.80259" lon="6.36896">
        <ele>1992</ele>
        <time>2024-08-12T05:52:23Z</time>
      </trkpt>
      <trkpt lat="44.80259" lon="6.36896">
        <ele>1991.8</ele>
        <time>2024-08-12T05:52:24Z</time>
      </trkpt>
      <trkpt lat="44.80259" lon="6.36896">
        <ele>1991.8</ele>
        <time>2024-08-12T05:52:25Z</time>
      </trkpt>
      <trkpt lat="44.80259" lon="6.36896">
        <ele>1991.8</ele>
        <time>2024-08-12T05:52:26Z</time>
      </trkpt>
      <trkpt lat="44.80259" lon="6.36896">
        <ele>1991.8</ele>
        <time>2024-08-12T05:52:27Z</time>
      </trkpt>
      <trkpt lat="44.80259" lon="6.36896">
        <ele>1992</ele>
        <time>2024-08-12T05:52:28Z</time>
      </trkpt>
      <trkpt lat="44.80259" lon="6.36896">
        <ele>1992</ele>
        <time>2024-08-12T05:52:29Z</time>
      </trkpt>
      <trkpt lat="44.80259" lon="6.36896">
        <ele>1992</ele>
        <time>2024-08-12T05:52:30Z</time>
      </trkpt>
      <trkpt lat="44.80259" lon="6.36896">
        <ele>1992.2</ele>
        <time>2024-08-12T05:52:31Z</time>
      </trkpt>
      <trkpt lat="44.80259" lon="6.36896">
        <ele>1992.2</ele>
        <time>2024-08-12T05:52:32Z</time>
      </trkpt>
      <trkpt lat="44.80259" lon="6.36896">
        <ele>1992.4</ele>
        <time>2024-08-12T05:52:33Z</time>
      </trkpt>
      <trkpt lat="44.80259" lon="6.36896">
        <ele>1992.4</ele>
        <time>2024-08-12T05:52:34Z</time>
      </trkpt>
      <trkpt lat="44.80259" lon="6.36896">
        <ele>1992.4</ele>
        <time>2024-08-12T05:52:35Z</time>
      </trkpt>
      <trkpt lat="44.80259" lon="6.36896">
        <ele>1992</ele>
        <time>2024-08-12T05:52:36Z</time>
      </trkpt>
      <trkpt lat="44.80259" lon="6.36896">
        <ele>1992</ele>
        <time>2024-08-12T05:52:37Z</time>
      </trkpt>
      <trkpt lat="44.80259" lon="6.36896">
        <ele>1991.8</ele>
        <time>2024-08-12T05:52:38Z</time>
      </trkpt>
      <trkpt lat="44.80259" lon="6.36896">
        <ele>1991.4</ele>
        <time>2024-08-12T05:52:39Z</time>
      </trkpt>
      <trkpt lat="44.80259" lon="6.36896">
        <ele>1991.4</ele>
        <time>2024-08-12T05:52:40Z</time>
      </trkpt>
      <trkpt lat="44.80259" lon="6.36896">
        <ele>1991.2</ele>
        <time>2024-08-12T05:52:41Z</time>
      </trkpt>
      <trkpt lat="44.80259" lon="6.36896">
        <ele>1991.2</ele>
        <time>2024-08-12T05:52:42Z</time>
      </trkpt>
      <trkpt lat="44.80259" lon="6.36896">
        <ele>1991.2</ele>
        <time>2024-08-12T05:52:43Z</time>
      </trkpt>
      <trkpt lat="44.80259" lon="6.36893">
        <ele>1990.8</ele>
        <time>2024-08-12T05:52:44Z</time>
      </trkpt>
      <trkpt lat="44.80259" lon="6.36893">
        <ele>1990.8</ele>
        <time>2024-08-12T05:52:45Z</time>
      </trkpt>
      <trkpt lat="44.80259" lon="6.36893">
        <ele>1991</ele>
        <time>2024-08-12T05:52:46Z</time>
      </trkpt>
      <trkpt lat="44.80259" lon="6.3689">
        <ele>1991</ele>
        <time>2024-08-12T05:52:47Z</time>
      </trkpt>
      <trkpt lat="44.80259" lon="6.3689">
        <ele>1991</ele>
        <time>2024-08-12T05:52:48Z</time>
      </trkpt>
      <trkpt lat="44.8026" lon="6.36886">
        <ele>1991</ele>
        <time>2024-08-12T05:52:49Z</time>
      </trkpt>
      <trkpt lat="44.8026" lon="6.36886">
        <ele>1991.4</ele>
        <time>2024-08-12T05:52:50Z</time>
      </trkpt>
      <trkpt lat="44.80261" lon="6.36884">
        <ele>1991.4</ele>
        <time>2024-08-12T05:52:51Z</time>
      </trkpt>
      <trkpt lat="44.80261" lon="6.36884">
        <ele>1991.4</ele>
        <time>2024-08-12T05:52:52Z</time>
      </trkpt>
      <trkpt lat="44.80262" lon="6.36882">
        <ele>1991.4</ele>
        <time>2024-08-12T05:52:53Z</time>
      </trkpt>
      <trkpt lat="44.80262" lon="6.36882">
        <ele>1991.8</ele>
        <time>2024-08-12T05:52:54Z</time>
      </trkpt>
      <trkpt lat="44.80262" lon="6.36882">
        <ele>1991.8</ele>
        <time>2024-08-12T05:52:55Z</time>
      </trkpt>
      <trkpt lat="44.80262" lon="6.36878">
        <ele>1991.8</ele>
        <time>2024-08-12T05:52:56Z</time>
      </trkpt>
      <trkpt lat="44.80262" lon="6.36878">
        <ele>1992</ele>
        <time>2024-08-12T05:52:57Z</time>
      </trkpt>
      <trkpt lat="44.80262" lon="6.36875">
        <ele>1992.4</ele>
        <time>2024-08-12T05:52:58Z</time>
      </trkpt>
      <trkpt lat="44.80262" lon="6.36875">
        <ele>1992.4</ele>
        <time>2024-08-12T05:52:59Z</time>
      </trkpt>
      <trkpt lat="44.80263" lon="6.36873">
        <ele>1992.4</ele>
        <time>2024-08-12T05:53:00Z</time>
      </trkpt>
      <trkpt lat="44.80263" lon="6.36873">
        <ele>1992.4</ele>
        <time>2024-08-12T05:53:01Z</time>
      </trkpt>
      <trkpt lat="44.80263" lon="6.36873">
        <ele>1992.8</ele>
        <time>2024-08-12T05:53:02Z</time>
      </trkpt>
      <trkpt lat="44.80265" lon="6.36869">
        <ele>1992.8</ele>
        <time>2024-08-12T05:53:03Z</time>
      </trkpt>
      <trkpt lat="44.80265" lon="6.36869">
        <ele>1992.8</ele>
        <time>2024-08-12T05:53:04Z</time>
      </trkpt>
      <trkpt lat="44.80265" lon="6.36869">
        <ele>1993</ele>
        <time>2024-08-12T05:53:05Z</time>
      </trkpt>
      <trkpt lat="44.80265" lon="6.36866">
        <ele>1993.6</ele>
        <time>2024-08-12T05:53:06Z</time>
      </trkpt>
      <trkpt lat="44.80265" lon="6.36866">
        <ele>1993.8</ele>
        <time>2024-08-12T05:53:07Z</time>
      </trkpt>
      <trkpt lat="44.80267" lon="6.36864">
        <ele>1993.8</ele>
        <time>2024-08-12T05:53:08Z</time>
      </trkpt>
      <trkpt lat="44.80267" lon="6.36864">
        <ele>1993.8</ele>
        <time>2024-08-12T05:53:09Z</time>
      </trkpt>
      <trkpt lat="44.80268" lon="6.36862">
        <ele>1994.2</ele>
        <time>2024-08-12T05:53:10Z</time>
      </trkpt>
      <trkpt lat="44.80268" lon="6.36862">
        <ele>1994.2</ele>
        <time>2024-08-12T05:53:11Z</time>
      </trkpt>
      <trkpt lat="44.80268" lon="6.36862">
        <ele>1994.4</ele>
        <time>2024-08-12T05:53:12Z</time>
      </trkpt>
      <trkpt lat="44.80269" lon="6.36859">
        <ele>1994.6</ele>
        <time>2024-08-12T05:53:13Z</time>
      </trkpt>
      <trkpt lat="44.80269" lon="6.36859">
        <ele>1995</ele>
        <time>2024-08-12T05:53:14Z</time>
      </trkpt>
      <trkpt lat="44.80269" lon="6.36859">
        <ele>1995.2</ele>
        <time>2024-08-12T05:53:15Z</time>
      </trkpt>
      <trkpt lat="44.80268" lon="6.36855">
        <ele>1995</ele>
        <time>2024-08-12T05:53:16Z</time>
      </trkpt>
      <trkpt lat="44.80268" lon="6.36855">
        <ele>1995.2</ele>
        <time>2024-08-12T05:53:17Z</time>
      </trkpt>
      <trkpt lat="44.80268" lon="6.36855">
        <ele>1995.2</ele>
        <time>2024-08-12T05:53:18Z</time>
      </trkpt>
      <trkpt lat="44.80266" lon="6.36853">
        <ele>1995.4</ele>
        <time>2024-08-12T05:53:19Z</time>
      </trkpt>
      <trkpt lat="44.80266" lon="6.36853">
        <ele>1995.4</ele>
        <time>2024-08-12T05:53:20Z</time>
      </trkpt>
      <trkpt lat="44.80266" lon="6.36853">
        <ele>1995.4</ele>
        <time>2024-08-12T05:53:21Z</time>
      </trkpt>
      <trkpt lat="44.80265" lon="6.36851">
        <ele>1995.4</ele>
        <time>2024-08-12T05:53:22Z</time>
      </trkpt>
      <trkpt lat="44.80265" lon="6.36851">
        <ele>1995.2</ele>
        <time>2024-08-12T05:53:23Z</time>
      </trkpt>
      <trkpt lat="44.80265" lon="6.36851">
        <ele>1995.2</ele>
        <time>2024-08-12T05:53:24Z</time>
      </trkpt>
      <trkpt lat="44.80263" lon="6.3685">
        <ele>1995.2</ele>
        <time>2024-08-12T05:53:25Z</time>
      </trkpt>
      <trkpt lat="44.80263" lon="6.3685">
        <ele>1995.6</ele>
        <time>2024-08-12T05:53:26Z</time>
      </trkpt>
      <trkpt lat="44.80263" lon="6.3685">
        <ele>1995.8</ele>
        <time>2024-08-12T05:53:27Z</time>
      </trkpt>
      <trkpt lat="44.8026" lon="6.36848">
        <ele>1995.8</ele>
        <time>2024-08-12T05:53:28Z</time>
      </trkpt>
      <trkpt lat="44.8026" lon="6.36848">
        <ele>1996</ele>
        <time>2024-08-12T05:53:29Z</time>
      </trkpt>
      <trkpt lat="44.80259" lon="6.36845">
        <ele>1996</ele>
        <time>2024-08-12T05:53:30Z</time>
      </trkpt>
      <trkpt lat="44.80259" lon="6.36845">
        <ele>1996</ele>
        <time>2024-08-12T05:53:31Z</time>
      </trkpt>
      <trkpt lat="44.80258" lon="6.36842">
        <ele>1996</ele>
        <time>2024-08-12T05:53:32Z</time>
      </trkpt>
      <trkpt lat="44.80258" lon="6.36842">
        <ele>1995.8</ele>
        <time>2024-08-12T05:53:33Z</time>
      </trkpt>
      <trkpt lat="44.80258" lon="6.36839">
        <ele>1995.8</ele>
        <time>2024-08-12T05:53:34Z</time>
      </trkpt>
      <trkpt lat="44.80258" lon="6.36839">
        <ele>1996</ele>
        <time>2024-08-12T05:53:35Z</time>
      </trkpt>
      <trkpt lat="44.80258" lon="6.36839">
        <ele>1996</ele>
        <time>2024-08-12T05:53:36Z</time>
      </trkpt>
      <trkpt lat="44.80257" lon="6.36835">
        <ele>1996</ele>
        <time>2024-08-12T05:53:37Z</time>
      </trkpt>
      <trkpt lat="44.80257" lon="6.36835">
        <ele>1996.2</ele>
        <time>2024-08-12T05:53:38Z</time>
      </trkpt>
      <trkpt lat="44.80256" lon="6.36832">
        <ele>1996.2</ele>
        <time>2024-08-12T05:53:39Z</time>
      </trkpt>
      <trkpt lat="44.80256" lon="6.36832">
        <ele>1996</ele>
        <time>2024-08-12T05:53:40Z</time>
      </trkpt>
      <trkpt lat="44.80255" lon="6.36829">
        <ele>1996</ele>
        <time>2024-08-12T05:53:41Z</time>
      </trkpt>
      <trkpt lat="44.80255" lon="6.36829">
        <ele>1996</ele>
        <time>2024-08-12T05:53:42Z</time>
      </trkpt>
      <trkpt lat="44.80254" lon="6.36826">
        <ele>1996.2</ele>
        <time>2024-08-12T05:53:43Z</time>
      </trkpt>
      <trkpt lat="44.80254" lon="6.36826">
        <ele>1996.2</ele>
        <time>2024-08-12T05:53:44Z</time>
      </trkpt>
      <trkpt lat="44.80253" lon="6.36824">
        <ele>1996</ele>
        <time>2024-08-12T05:53:45Z</time>
      </trkpt>
      <trkpt lat="44.80253" lon="6.36824">
        <ele>1996</ele>
        <time>2024-08-12T05:53:46Z</time>
      </trkpt>
      <trkpt lat="44.80251" lon="6.36822">
        <ele>1996</ele>
        <time>2024-08-12T05:53:47Z</time>
      </trkpt>
      <trkpt lat="44.80251" lon="6.36822">
        <ele>1996</ele>
        <time>2024-08-12T05:53:48Z</time>
      </trkpt>
      <trkpt lat="44.80249" lon="6.3682">
        <ele>1996.2</ele>
        <time>2024-08-12T05:53:49Z</time>
      </trkpt>
      <trkpt lat="44.80249" lon="6.3682">
        <ele>1996.2</ele>
        <time>2024-08-12T05:53:50Z</time>
      </trkpt>
      <trkpt lat="44.80247" lon="6.36819">
        <ele>1996.2</ele>
        <time>2024-08-12T05:53:51Z</time>
      </trkpt>
      <trkpt lat="44.80247" lon="6.36819">
        <ele>1996.2</ele>
        <time>2024-08-12T05:53:52Z</time>
      </trkpt>
      <trkpt lat="44.80245" lon="6.36817">
        <ele>1996.4</ele>
        <time>2024-08-12T05:53:53Z</time>
      </trkpt>
      <trkpt lat="44.80245" lon="6.36817">
        <ele>1996.4</ele>
        <time>2024-08-12T05:53:54Z</time>
      </trkpt>
      <trkpt lat="44.80245" lon="6.36817">
        <ele>1997</ele>
        <time>2024-08-12T05:53:55Z</time>
      </trkpt>
      <trkpt lat="44.80243" lon="6.36815">
        <ele>1997</ele>
        <time>2024-08-12T05:53:56Z</time>
      </trkpt>
      <trkpt lat="44.80243" lon="6.36815">
        <ele>1997.2</ele>
        <time>2024-08-12T05:53:57Z</time>
      </trkpt>
      <trkpt lat="44.80241" lon="6.36813">
        <ele>1997.2</ele>
        <time>2024-08-12T05:53:58Z</time>
      </trkpt>
      <trkpt lat="44.80241" lon="6.36813">
        <ele>1997.2</ele>
        <time>2024-08-12T05:53:59Z</time>
      </trkpt>
      <trkpt lat="44.80239" lon="6.36812">
        <ele>1997.4</ele>
        <time>2024-08-12T05:54:00Z</time>
      </trkpt>
      <trkpt lat="44.80239" lon="6.36812">
        <ele>1997.4</ele>
        <time>2024-08-12T05:54:01Z</time>
      </trkpt>
      <trkpt lat="44.80237" lon="6.36811">
        <ele>1997.4</ele>
        <time>2024-08-12T05:54:02Z</time>
      </trkpt>
      <trkpt lat="44.80237" lon="6.36811">
        <ele>1997.4</ele>
        <time>2024-08-12T05:54:03Z</time>
      </trkpt>
      <trkpt lat="44.80233" lon="6.3681">
        <ele>1997.2</ele>
        <time>2024-08-12T05:54:04Z</time>
      </trkpt>
      <trkpt lat="44.80233" lon="6.3681">
        <ele>1997.2</ele>
        <time>2024-08-12T05:54:05Z</time>
      </trkpt>
      <trkpt lat="44.80231" lon="6.36808">
        <ele>1997.2</ele>
        <time>2024-08-12T05:54:06Z</time>
      </trkpt>
      <trkpt lat="44.80231" lon="6.36808">
        <ele>1997</ele>
        <time>2024-08-12T05:54:07Z</time>
      </trkpt>
      <trkpt lat="44.80229" lon="6.36807">
        <ele>1997.2</ele>
        <time>2024-08-12T05:54:08Z</time>
      </trkpt>
      <trkpt lat="44.80229" lon="6.36807">
        <ele>1997.2</ele>
        <time>2024-08-12T05:54:09Z</time>
      </trkpt>
      <trkpt lat="44.80227" lon="6.36806">
        <ele>1997.2</ele>
        <time>2024-08-12T05:54:10Z</time>
      </trkpt>
      <trkpt lat="44.80227" lon="6.36806">
        <ele>1997.2</ele>
        <time>2024-08-12T05:54:11Z</time>
      </trkpt>
      <trkpt lat="44.80225" lon="6.36803">
        <ele>1997.2</ele>
        <time>2024-08-12T05:54:12Z</time>
      </trkpt>
      <trkpt lat="44.80225" lon="6.36803">
        <ele>1996.8</ele>
        <time>2024-08-12T05:54:13Z</time>
      </trkpt>
      <trkpt lat="44.80224" lon="6.368">
        <ele>1996.6</ele>
        <time>2024-08-12T05:54:14Z</time>
      </trkpt>
      <trkpt lat="44.80224" lon="6.368">
        <ele>1996.6</ele>
        <time>2024-08-12T05:54:15Z</time>
      </trkpt>
      <trkpt lat="44.80223" lon="6.36797">
        <ele>1996.8</ele>
        <time>2024-08-12T05:54:16Z</time>
      </trkpt>
      <trkpt lat="44.80223" lon="6.36797">
        <ele>1996.8</ele>
        <time>2024-08-12T05:54:17Z</time>
      </trkpt>
      <trkpt lat="44.80222" lon="6.36794">
        <ele>1996.8</ele>
        <time>2024-08-12T05:54:18Z</time>
      </trkpt>
      <trkpt lat="44.80222" lon="6.36794">
        <ele>1996.8</ele>
        <time>2024-08-12T05:54:19Z</time>
      </trkpt>
      <trkpt lat="44.80221" lon="6.36792">
        <ele>1996.8</ele>
        <time>2024-08-12T05:54:20Z</time>
      </trkpt>
      <trkpt lat="44.80221" lon="6.36792">
        <ele>1996.8</ele>
        <time>2024-08-12T05:54:21Z</time>
      </trkpt>
      <trkpt lat="44.80219" lon="6.36789">
        <ele>1997</ele>
        <time>2024-08-12T05:54:22Z</time>
      </trkpt>
      <trkpt lat="44.80219" lon="6.36789">
        <ele>1997.2</ele>
        <time>2024-08-12T05:54:23Z</time>
      </trkpt>
      <trkpt lat="44.80217" lon="6.36787">
        <ele>1997.2</ele>
        <time>2024-08-12T05:54:24Z</time>
      </trkpt>
      <trkpt lat="44.80217" lon="6.36787">
        <ele>1997.2</ele>
        <time>2024-08-12T05:54:25Z</time>
      </trkpt>
      <trkpt lat="44.80215" lon="6.36784">
        <ele>1997.2</ele>
        <time>2024-08-12T05:54:26Z</time>
      </trkpt>
      <trkpt lat="44.80215" lon="6.36784">
        <ele>1997.4</ele>
        <time>2024-08-12T05:54:27Z</time>
      </trkpt>
      <trkpt lat="44.80214" lon="6.36782">
        <ele>1997.4</ele>
        <time>2024-08-12T05:54:28Z</time>
      </trkpt>
      <trkpt lat="44.80214" lon="6.36782">
        <ele>1997.6</ele>
        <time>2024-08-12T05:54:29Z</time>
      </trkpt>
      <trkpt lat="44.80213" lon="6.36778">
        <ele>1998</ele>
        <time>2024-08-12T05:54:30Z</time>
      </trkpt>
      <trkpt lat="44.80213" lon="6.36778">
        <ele>1998</ele>
        <time>2024-08-12T05:54:31Z</time>
      </trkpt>
      <trkpt lat="44.80211" lon="6.36775">
        <ele>1998</ele>
        <time>2024-08-12T05:54:32Z</time>
      </trkpt>
      <trkpt lat="44.80211" lon="6.36775">
        <ele>1997.8</ele>
        <time>2024-08-12T05:54:33Z</time>
      </trkpt>
      <trkpt lat="44.8021" lon="6.36773">
        <ele>1997.8</ele>
        <time>2024-08-12T05:54:34Z</time>
      </trkpt>
      <trkpt lat="44.8021" lon="6.36773">
        <ele>1998</ele>
        <time>2024-08-12T05:54:35Z</time>
      </trkpt>
      <trkpt lat="44.80208" lon="6.3677">
        <ele>1998.2</ele>
        <time>2024-08-12T05:54:36Z</time>
      </trkpt>
      <trkpt lat="44.80208" lon="6.3677">
        <ele>1998.4</ele>
        <time>2024-08-12T05:54:37Z</time>
      </trkpt>
      <trkpt lat="44.80206" lon="6.36767">
        <ele>1998.4</ele>
        <time>2024-08-12T05:54:38Z</time>
      </trkpt>
      <trkpt lat="44.80206" lon="6.36767">
        <ele>1998.6</ele>
        <time>2024-08-12T05:54:39Z</time>
      </trkpt>
      <trkpt lat="44.80205" lon="6.36764">
        <ele>1998.6</ele>
        <time>2024-08-12T05:54:40Z</time>
      </trkpt>
      <trkpt lat="44.80205" lon="6.36764">
        <ele>1998.4</ele>
        <time>2024-08-12T05:54:41Z</time>
      </trkpt>
      <trkpt lat="44.80204" lon="6.36761">
        <ele>1998.4</ele>
        <time>2024-08-12T05:54:42Z</time>
      </trkpt>
      <trkpt lat="44.80204" lon="6.36761">
        <ele>1998.8</ele>
        <time>2024-08-12T05:54:43Z</time>
      </trkpt>
      <trkpt lat="44.80203" lon="6.36758">
        <ele>1999</ele>
        <time>2024-08-12T05:54:44Z</time>
      </trkpt>
      <trkpt lat="44.80203" lon="6.36758">
        <ele>1999</ele>
        <time>2024-08-12T05:54:45Z</time>
      </trkpt>
      <trkpt lat="44.80201" lon="6.36755">
        <ele>1999</ele>
        <time>2024-08-12T05:54:46Z</time>
      </trkpt>
      <trkpt lat="44.80201" lon="6.36755">
        <ele>1999</ele>
        <time>2024-08-12T05:54:47Z</time>
      </trkpt>
      <trkpt lat="44.802" lon="6.36752">
        <ele>1999</ele>
        <time>2024-08-12T05:54:48Z</time>
      </trkpt>
      <trkpt lat="44.802" lon="6.36752">
        <ele>1999</ele>
        <time>2024-08-12T05:54:49Z</time>
      </trkpt>
      <trkpt lat="44.80198" lon="6.36749">
        <ele>1999</ele>
        <time>2024-08-12T05:54:50Z</time>
      </trkpt>
      <trkpt lat="44.80198" lon="6.36749">
        <ele>1999.2</ele>
        <time>2024-08-12T05:54:51Z</time>
      </trkpt>
      <trkpt lat="44.80197" lon="6.36747">
        <ele>1999.4</ele>
        <time>2024-08-12T05:54:52Z</time>
      </trkpt>
      <trkpt lat="44.80197" lon="6.36747">
        <ele>1999.4</ele>
        <time>2024-08-12T05:54:53Z</time>
      </trkpt>
      <trkpt lat="44.80196" lon="6.36745">
        <ele>1999.4</ele>
        <time>2024-08-12T05:54:54Z</time>
      </trkpt>
      <trkpt lat="44.80196" lon="6.36745">
        <ele>1999.4</ele>
        <time>2024-08-12T05:54:55Z</time>
      </trkpt>
      <trkpt lat="44.80195" lon="6.36742">
        <ele>1999.4</ele>
        <time>2024-08-12T05:54:56Z</time>
      </trkpt>
      <trkpt lat="44.80195" lon="6.36742">
        <ele>1999.4</ele>
        <time>2024-08-12T05:54:57Z</time>
      </trkpt>
      <trkpt lat="44.80193" lon="6.36739">
        <ele>1999.8</ele>
        <time>2024-08-12T05:54:58Z</time>
      </trkpt>
      <trkpt lat="44.80193" lon="6.36739">
        <ele>1999.8</ele>
        <time>2024-08-12T05:54:59Z</time>
      </trkpt>
      <trkpt lat="44.80192" lon="6.36737">
        <ele>1999.8</ele>
        <time>2024-08-12T05:55:00Z</time>
      </trkpt>
      <trkpt lat="44.80192" lon="6.36737">
        <ele>2000</ele>
        <time>2024-08-12T05:55:01Z</time>
      </trkpt>
      <trkpt lat="44.80191" lon="6.36734">
        <ele>2000.4</ele>
        <time>2024-08-12T05:55:02Z</time>
      </trkpt>
      <trkpt lat="44.80191" lon="6.36734">
        <ele>2000.4</ele>
        <time>2024-08-12T05:55:03Z</time>
      </trkpt>
      <trkpt lat="44.8019" lon="6.36731">
        <ele>2000.2</ele>
        <time>2024-08-12T05:55:04Z</time>
      </trkpt>
      <trkpt lat="44.8019" lon="6.36731">
        <ele>2000.2</ele>
        <time>2024-08-12T05:55:05Z</time>
      </trkpt>
      <trkpt lat="44.80189" lon="6.36728">
        <ele>2000.4</ele>
        <time>2024-08-12T05:55:06Z</time>
      </trkpt>
      <trkpt lat="44.80189" lon="6.36728">
        <ele>2000.4</ele>
        <time>2024-08-12T05:55:07Z</time>
      </trkpt>
      <trkpt lat="44.80187" lon="6.36724">
        <ele>2000.4</ele>
        <time>2024-08-12T05:55:08Z</time>
      </trkpt>
      <trkpt lat="44.80187" lon="6.36724">
        <ele>2000.4</ele>
        <time>2024-08-12T05:55:09Z</time>
      </trkpt>
      <trkpt lat="44.80186" lon="6.3672">
        <ele>2000.2</ele>
        <time>2024-08-12T05:55:10Z</time>
      </trkpt>
      <trkpt lat="44.80186" lon="6.3672">
        <ele>2000.2</ele>
        <time>2024-08-12T05:55:11Z</time>
      </trkpt>
      <trkpt lat="44.80185" lon="6.36717">
        <ele>2000.2</ele>
        <time>2024-08-12T05:55:12Z</time>
      </trkpt>
      <trkpt lat="44.80185" lon="6.36717">
        <ele>2000.2</ele>
        <time>2024-08-12T05:55:13Z</time>
      </trkpt>
      <trkpt lat="44.80184" lon="6.36714">
        <ele>2000.4</ele>
        <time>2024-08-12T05:55:14Z</time>
      </trkpt>
      <trkpt lat="44.80184" lon="6.36714">
        <ele>2000.6</ele>
        <time>2024-08-12T05:55:15Z</time>
      </trkpt>
      <trkpt lat="44.80183" lon="6.36711">
        <ele>2000.6</ele>
        <time>2024-08-12T05:55:16Z</time>
      </trkpt>
      <trkpt lat="44.80183" lon="6.36711">
        <ele>2000.6</ele>
        <time>2024-08-12T05:55:17Z</time>
      </trkpt>
      <trkpt lat="44.80183" lon="6.36708">
        <ele>2000.4</ele>
        <time>2024-08-12T05:55:18Z</time>
      </trkpt>
      <trkpt lat="44.80183" lon="6.36708">
        <ele>2000.4</ele>
        <time>2024-08-12T05:55:19Z</time>
      </trkpt>
      <trkpt lat="44.80182" lon="6.36706">
        <ele>2000.6</ele>
        <time>2024-08-12T05:55:20Z</time>
      </trkpt>
      <trkpt lat="44.80182" lon="6.36706">
        <ele>2000.8</ele>
        <time>2024-08-12T05:55:21Z</time>
      </trkpt>
      <trkpt lat="44.80182" lon="6.36706">
        <ele>2001.4</ele>
        <time>2024-08-12T05:55:22Z</time>
      </trkpt>
      <trkpt lat="44.80181" lon="6.36703">
        <ele>2001.4</ele>
        <time>2024-08-12T05:55:23Z</time>
      </trkpt>
      <trkpt lat="44.80181" lon="6.36703">
        <ele>2001.6</ele>
        <time>2024-08-12T05:55:24Z</time>
      </trkpt>
      <trkpt lat="44.80181" lon="6.36703">
        <ele>2001.8</ele>
        <time>2024-08-12T05:55:25Z</time>
      </trkpt>
      <trkpt lat="44.80179" lon="6.36701">
        <ele>2001.8</ele>
        <time>2024-08-12T05:55:26Z</time>
      </trkpt>
      <trkpt lat="44.80179" lon="6.36701">
        <ele>2002.2</ele>
        <time>2024-08-12T05:55:27Z</time>
      </trkpt>
      <trkpt lat="44.80176" lon="6.367">
        <ele>2002.2</ele>
        <time>2024-08-12T05:55:28Z</time>
      </trkpt>
      <trkpt lat="44.80176" lon="6.367">
        <ele>2002.2</ele>
        <time>2024-08-12T05:55:29Z</time>
      </trkpt>
      <trkpt lat="44.80174" lon="6.367">
        <ele>2002.2</ele>
        <time>2024-08-12T05:55:30Z</time>
      </trkpt>
      <trkpt lat="44.80174" lon="6.367">
        <ele>2002.2</ele>
        <time>2024-08-12T05:55:31Z</time>
      </trkpt>
      <trkpt lat="44.80173" lon="6.36698">
        <ele>2002.2</ele>
        <time>2024-08-12T05:55:32Z</time>
      </trkpt>
      <trkpt lat="44.80173" lon="6.36698">
        <ele>2002.2</ele>
        <time>2024-08-12T05:55:33Z</time>
      </trkpt>
      <trkpt lat="44.80171" lon="6.36696">
        <ele>2002.2</ele>
        <time>2024-08-12T05:55:34Z</time>
      </trkpt>
      <trkpt lat="44.80171" lon="6.36696">
        <ele>2002.4</ele>
        <time>2024-08-12T05:55:35Z</time>
      </trkpt>
      <trkpt lat="44.80169" lon="6.36694">
        <ele>2002.4</ele>
        <time>2024-08-12T05:55:36Z</time>
      </trkpt>
      <trkpt lat="44.80169" lon="6.36694">
        <ele>2002.6</ele>
        <time>2024-08-12T05:55:37Z</time>
      </trkpt>
      <trkpt lat="44.80167" lon="6.36691">
        <ele>2002.6</ele>
        <time>2024-08-12T05:55:38Z</time>
      </trkpt>
      <trkpt lat="44.80167" lon="6.36691">
        <ele>2002.4</ele>
        <time>2024-08-12T05:55:39Z</time>
      </trkpt>
      <trkpt lat="44.80165" lon="6.36688">
        <ele>2002.4</ele>
        <time>2024-08-12T05:55:40Z</time>
      </trkpt>
      <trkpt lat="44.80165" lon="6.36688">
        <ele>2002.4</ele>
        <time>2024-08-12T05:55:41Z</time>
      </trkpt>
      <trkpt lat="44.80163" lon="6.36686">
        <ele>2002.6</ele>
        <time>2024-08-12T05:55:42Z</time>
      </trkpt>
      <trkpt lat="44.80163" lon="6.36686">
        <ele>2002.6</ele>
        <time>2024-08-12T05:55:43Z</time>
      </trkpt>
      <trkpt lat="44.80162" lon="6.36684">
        <ele>2002.6</ele>
        <time>2024-08-12T05:55:44Z</time>
      </trkpt>
      <trkpt lat="44.80162" lon="6.36684">
        <ele>2002.8</ele>
        <time>2024-08-12T05:55:45Z</time>
      </trkpt>
      <trkpt lat="44.80161" lon="6.36682">
        <ele>2003</ele>
        <time>2024-08-12T05:55:46Z</time>
      </trkpt>
      <trkpt lat="44.80161" lon="6.36682">
        <ele>2003.2</ele>
        <time>2024-08-12T05:55:47Z</time>
      </trkpt>
      <trkpt lat="44.80159" lon="6.3668">
        <ele>2003.2</ele>
        <time>2024-08-12T05:55:48Z</time>
      </trkpt>
      <trkpt lat="44.80159" lon="6.3668">
        <ele>2003.2</ele>
        <time>2024-08-12T05:55:49Z</time>
      </trkpt>
      <trkpt lat="44.80157" lon="6.36677">
        <ele>2003.2</ele>
        <time>2024-08-12T05:55:50Z</time>
      </trkpt>
      <trkpt lat="44.80157" lon="6.36677">
        <ele>2003.2</ele>
        <time>2024-08-12T05:55:51Z</time>
      </trkpt>
      <trkpt lat="44.80156" lon="6.36676">
        <ele>2003.2</ele>
        <time>2024-08-12T05:55:52Z</time>
      </trkpt>
      <trkpt lat="44.80156" lon="6.36676">
        <ele>2003.2</ele>
        <time>2024-08-12T05:55:53Z</time>
      </trkpt>
      <trkpt lat="44.80154" lon="6.36675">
        <ele>2003.2</ele>
        <time>2024-08-12T05:55:54Z</time>
      </trkpt>
      <trkpt lat="44.80154" lon="6.36675">
        <ele>2003.2</ele>
        <time>2024-08-12T05:55:55Z</time>
      </trkpt>
      <trkpt lat="44.80151" lon="6.36674">
        <ele>2003.6</ele>
        <time>2024-08-12T05:55:56Z</time>
      </trkpt>
      <trkpt lat="44.80151" lon="6.36674">
        <ele>2003.6</ele>
        <time>2024-08-12T05:55:57Z</time>
      </trkpt>
      <trkpt lat="44.80149" lon="6.36673">
        <ele>2003.6</ele>
        <time>2024-08-12T05:55:58Z</time>
      </trkpt>
      <trkpt lat="44.80149" lon="6.36673">
        <ele>2004</ele>
        <time>2024-08-12T05:55:59Z</time>
      </trkpt>
      <trkpt lat="44.80147" lon="6.36672">
        <ele>2004</ele>
        <time>2024-08-12T05:56:00Z</time>
      </trkpt>
      <trkpt lat="44.80147" lon="6.36672">
        <ele>2004</ele>
        <time>2024-08-12T05:56:01Z</time>
      </trkpt>
      <trkpt lat="44.80145" lon="6.3667">
        <ele>2003.8</ele>
        <time>2024-08-12T05:56:02Z</time>
      </trkpt>
      <trkpt lat="44.80145" lon="6.3667">
        <ele>2003.8</ele>
        <time>2024-08-12T05:56:03Z</time>
      </trkpt>
      <trkpt lat="44.80143" lon="6.36668">
        <ele>2003.6</ele>
        <time>2024-08-12T05:56:04Z</time>
      </trkpt>
      <trkpt lat="44.80143" lon="6.36668">
        <ele>2003.6</ele>
        <time>2024-08-12T05:56:05Z</time>
      </trkpt>
      <trkpt lat="44.80141" lon="6.36666">
        <ele>2003.6</ele>
        <time>2024-08-12T05:56:06Z</time>
      </trkpt>
      <trkpt lat="44.80141" lon="6.36666">
        <ele>2003.6</ele>
        <time>2024-08-12T05:56:07Z</time>
      </trkpt>
      <trkpt lat="44.80138" lon="6.36663">
        <ele>2003.6</ele>
        <time>2024-08-12T05:56:08Z</time>
      </trkpt>
      <trkpt lat="44.80138" lon="6.36663">
        <ele>2003.8</ele>
        <time>2024-08-12T05:56:09Z</time>
      </trkpt>
      <trkpt lat="44.80137" lon="6.3666">
        <ele>2004</ele>
        <time>2024-08-12T05:56:10Z</time>
      </trkpt>
      <trkpt lat="44.80137" lon="6.3666">
        <ele>2004</ele>
        <time>2024-08-12T05:56:11Z</time>
      </trkpt>
      <trkpt lat="44.80135" lon="6.36659">
        <ele>2004</ele>
        <time>2024-08-12T05:56:12Z</time>
      </trkpt>
      <trkpt lat="44.80135" lon="6.36659">
        <ele>2004</ele>
        <time>2024-08-12T05:56:13Z</time>
      </trkpt>
      <trkpt lat="44.80134" lon="6.36657">
        <ele>2004</ele>
        <time>2024-08-12T05:56:14Z</time>
      </trkpt>
      <trkpt lat="44.80134" lon="6.36657">
        <ele>2004</ele>
        <time>2024-08-12T05:56:15Z</time>
      </trkpt>
      <trkpt lat="44.80133" lon="6.36654">
        <ele>2004.2</ele>
        <time>2024-08-12T05:56:16Z</time>
      </trkpt>
      <trkpt lat="44.80133" lon="6.36654">
        <ele>2004.4</ele>
        <time>2024-08-12T05:56:17Z</time>
      </trkpt>
      <trkpt lat="44.80131" lon="6.36653">
        <ele>2004.4</ele>
        <time>2024-08-12T05:56:18Z</time>
      </trkpt>
      <trkpt lat="44.80131" lon="6.36653">
        <ele>2004.4</ele>
        <time>2024-08-12T05:56:19Z</time>
      </trkpt>
      <trkpt lat="44.8013" lon="6.36651">
        <ele>2004.4</ele>
        <time>2024-08-12T05:56:20Z</time>
      </trkpt>
      <trkpt lat="44.8013" lon="6.36651">
        <ele>2004.6</ele>
        <time>2024-08-12T05:56:21Z</time>
      </trkpt>
      <trkpt lat="44.80128" lon="6.36648">
        <ele>2004.8</ele>
        <time>2024-08-12T05:56:22Z</time>
      </trkpt>
      <trkpt lat="44.80128" lon="6.36648">
        <ele>2004.8</ele>
        <time>2024-08-12T05:56:23Z</time>
      </trkpt>
      <trkpt lat="44.80127" lon="6.36645">
        <ele>2005</ele>
        <time>2024-08-12T05:56:24Z</time>
      </trkpt>
      <trkpt lat="44.80127" lon="6.36645">
        <ele>2005</ele>
        <time>2024-08-12T05:56:25Z</time>
      </trkpt>
      <trkpt lat="44.80126" lon="6.36642">
        <ele>2005.2</ele>
        <time>2024-08-12T05:56:26Z</time>
      </trkpt>
      <trkpt lat="44.80126" lon="6.36642">
        <ele>2005</ele>
        <time>2024-08-12T05:56:27Z</time>
      </trkpt>
      <trkpt lat="44.80125" lon="6.36639">
        <ele>2005.2</ele>
        <time>2024-08-12T05:56:28Z</time>
      </trkpt>
      <trkpt lat="44.80125" lon="6.36639">
        <ele>2005</ele>
        <time>2024-08-12T05:56:29Z</time>
      </trkpt>
      <trkpt lat="44.80124" lon="6.36636">
        <ele>2005</ele>
        <time>2024-08-12T05:56:30Z</time>
      </trkpt>
      <trkpt lat="44.80124" lon="6.36636">
        <ele>2005</ele>
        <time>2024-08-12T05:56:31Z</time>
      </trkpt>
      <trkpt lat="44.80122" lon="6.36633">
        <ele>2005</ele>
        <time>2024-08-12T05:56:32Z</time>
      </trkpt>
      <trkpt lat="44.80122" lon="6.36633">
        <ele>2005</ele>
        <time>2024-08-12T05:56:33Z</time>
      </trkpt>
      <trkpt lat="44.8012" lon="6.3663">
        <ele>2005</ele>
        <time>2024-08-12T05:56:34Z</time>
      </trkpt>
      <trkpt lat="44.8012" lon="6.3663">
        <ele>2004.6</ele>
        <time>2024-08-12T05:56:35Z</time>
      </trkpt>
      <trkpt lat="44.80119" lon="6.36628">
        <ele>2004.6</ele>
        <time>2024-08-12T05:56:36Z</time>
      </trkpt>
      <trkpt lat="44.80119" lon="6.36628">
        <ele>2004.6</ele>
        <time>2024-08-12T05:56:37Z</time>
      </trkpt>
      <trkpt lat="44.80118" lon="6.36625">
        <ele>2004.6</ele>
        <time>2024-08-12T05:56:38Z</time>
      </trkpt>
      <trkpt lat="44.80118" lon="6.36625">
        <ele>2004.8</ele>
        <time>2024-08-12T05:56:39Z</time>
      </trkpt>
      <trkpt lat="44.80116" lon="6.36623">
        <ele>2004.8</ele>
        <time>2024-08-12T05:56:40Z</time>
      </trkpt>
      <trkpt lat="44.80116" lon="6.36623">
        <ele>2005</ele>
        <time>2024-08-12T05:56:41Z</time>
      </trkpt>
      <trkpt lat="44.80116" lon="6.36623">
        <ele>2005.2</ele>
        <time>2024-08-12T05:56:42Z</time>
      </trkpt>
      <trkpt lat="44.80114" lon="6.3662">
        <ele>2005.2</ele>
        <time>2024-08-12T05:56:43Z</time>
      </trkpt>
      <trkpt lat="44.80114" lon="6.3662">
        <ele>2005.2</ele>
        <time>2024-08-12T05:56:44Z</time>
      </trkpt>
      <trkpt lat="44.80113" lon="6.36617">
        <ele>2005.4</ele>
        <time>2024-08-12T05:56:45Z</time>
      </trkpt>
      <trkpt lat="44.80113" lon="6.36617">
        <ele>2005.6</ele>
        <time>2024-08-12T05:56:46Z</time>
      </trkpt>
      <trkpt lat="44.80113" lon="6.36617">
        <ele>2006</ele>
        <time>2024-08-12T05:56:47Z</time>
      </trkpt>
      <trkpt lat="44.80113" lon="6.36614">
        <ele>2006.4</ele>
        <time>2024-08-12T05:56:48Z</time>
      </trkpt>
      <trkpt lat="44.80113" lon="6.36614">
        <ele>2006.4</ele>
        <time>2024-08-12T05:56:49Z</time>
      </trkpt>
      <trkpt lat="44.80112" lon="6.36611">
        <ele>2006.6</ele>
        <time>2024-08-12T05:56:50Z</time>
      </trkpt>
      <trkpt lat="44.80112" lon="6.36611">
        <ele>2006.8</ele>
        <time>2024-08-12T05:56:51Z</time>
      </trkpt>
      <trkpt lat="44.80112" lon="6.36611">
        <ele>2006.8</ele>
        <time>2024-08-12T05:56:52Z</time>
      </trkpt>
      <trkpt lat="44.80111" lon="6.36608">
        <ele>2006.8</ele>
        <time>2024-08-12T05:56:53Z</time>
      </trkpt>
      <trkpt lat="44.80111" lon="6.36608">
        <ele>2007</ele>
        <time>2024-08-12T05:56:54Z</time>
      </trkpt>
      <trkpt lat="44.80109" lon="6.36608">
        <ele>2007.2</ele>
        <time>2024-08-12T05:56:55Z</time>
      </trkpt>
      <trkpt lat="44.80109" lon="6.36608">
        <ele>2007.2</ele>
        <time>2024-08-12T05:56:56Z</time>
      </trkpt>
      <trkpt lat="44.80109" lon="6.36608">
        <ele>2007.2</ele>
        <time>2024-08-12T05:56:57Z</time>
      </trkpt>
      <trkpt lat="44.80108" lon="6.36606">
        <ele>2007.2</ele>
        <time>2024-08-12T05:56:58Z</time>
      </trkpt>
      <trkpt lat="44.80108" lon="6.36606">
        <ele>2007.4</ele>
        <time>2024-08-12T05:56:59Z</time>
      </trkpt>
      <trkpt lat="44.80108" lon="6.36606">
        <ele>2007.6</ele>
        <time>2024-08-12T05:57:00Z</time>
      </trkpt>
      <trkpt lat="44.80106" lon="6.36602">
        <ele>2007.8</ele>
        <time>2024-08-12T05:57:01Z</time>
      </trkpt>
      <trkpt lat="44.80106" lon="6.36602">
        <ele>2008.2</ele>
        <time>2024-08-12T05:57:02Z</time>
      </trkpt>
      <trkpt lat="44.80106" lon="6.36602">
        <ele>2008.2</ele>
        <time>2024-08-12T05:57:03Z</time>
      </trkpt>
      <trkpt lat="44.80106" lon="6.36599">
        <ele>2008.2</ele>
        <time>2024-08-12T05:57:04Z</time>
      </trkpt>
      <trkpt lat="44.80106" lon="6.36599">
        <ele>2008.2</ele>
        <time>2024-08-12T05:57:05Z</time>
      </trkpt>
      <trkpt lat="44.80105" lon="6.36596">
        <ele>2008.6</ele>
        <time>2024-08-12T05:57:06Z</time>
      </trkpt>
      <trkpt lat="44.80105" lon="6.36596">
        <ele>2009</ele>
        <time>2024-08-12T05:57:07Z</time>
      </trkpt>
      <trkpt lat="44.80105" lon="6.36593">
        <ele>2009</ele>
        <time>2024-08-12T05:57:08Z</time>
      </trkpt>
      <trkpt lat="44.80105" lon="6.36593">
        <ele>2009</ele>
        <time>2024-08-12T05:57:09Z</time>
      </trkpt>
      <trkpt lat="44.80105" lon="6.36589">
        <ele>2009</ele>
        <time>2024-08-12T05:57:10Z</time>
      </trkpt>
      <trkpt lat="44.80105" lon="6.36589">
        <ele>2009</ele>
        <time>2024-08-12T05:57:11Z</time>
      </trkpt>
      <trkpt lat="44.80106" lon="6.36587">
        <ele>2009</ele>
        <time>2024-08-12T05:57:12Z</time>
      </trkpt>
      <trkpt lat="44.80106" lon="6.36587">
        <ele>2009.4</ele>
        <time>2024-08-12T05:57:13Z</time>
      </trkpt>
      <trkpt lat="44.80106" lon="6.36587">
        <ele>2009.4</ele>
        <time>2024-08-12T05:57:14Z</time>
      </trkpt>
      <trkpt lat="44.80106" lon="6.36583">
        <ele>2009.4</ele>
        <time>2024-08-12T05:57:15Z</time>
      </trkpt>
      <trkpt lat="44.80106" lon="6.36583">
        <ele>2009.4</ele>
        <time>2024-08-12T05:57:16Z</time>
      </trkpt>
      <trkpt lat="44.80106" lon="6.36583">
        <ele>2009.4</ele>
        <time>2024-08-12T05:57:17Z</time>
      </trkpt>
      <trkpt lat="44.80105" lon="6.3658">
        <ele>2009.6</ele>
        <time>2024-08-12T05:57:18Z</time>
      </trkpt>
      <trkpt lat="44.80105" lon="6.3658">
        <ele>2009.8</ele>
        <time>2024-08-12T05:57:19Z</time>
      </trkpt>
      <trkpt lat="44.80105" lon="6.3658">
        <ele>2010</ele>
        <time>2024-08-12T05:57:20Z</time>
      </trkpt>
      <trkpt lat="44.80104" lon="6.36577">
        <ele>2010</ele>
        <time>2024-08-12T05:57:21Z</time>
      </trkpt>
      <trkpt lat="44.80104" lon="6.36577">
        <ele>2010.2</ele>
        <time>2024-08-12T05:57:22Z</time>
      </trkpt>
      <trkpt lat="44.80103" lon="6.36574">
        <ele>2010.2</ele>
        <time>2024-08-12T05:57:23Z</time>
      </trkpt>
      <trkpt lat="44.80103" lon="6.36574">
        <ele>2010.4</ele>
        <time>2024-08-12T05:57:24Z</time>
      </trkpt>
      <trkpt lat="44.80102" lon="6.36572">
        <ele>2010.4</ele>
        <time>2024-08-12T05:57:25Z</time>
      </trkpt>
      <trkpt lat="44.80102" lon="6.36572">
        <ele>2010.4</ele>
        <time>2024-08-12T05:57:26Z</time>
      </trkpt>
      <trkpt lat="44.801" lon="6.36573">
        <ele>2010.6</ele>
        <time>2024-08-12T05:57:27Z</time>
      </trkpt>
      <trkpt lat="44.801" lon="6.36573">
        <ele>2010.6</ele>
        <time>2024-08-12T05:57:28Z</time>
      </trkpt>
      <trkpt lat="44.80098" lon="6.36575">
        <ele>2011</ele>
        <time>2024-08-12T05:57:29Z</time>
      </trkpt>
      <trkpt lat="44.80098" lon="6.36575">
        <ele>2011</ele>
        <time>2024-08-12T05:57:30Z</time>
      </trkpt>
      <trkpt lat="44.80096" lon="6.36575">
        <ele>2011</ele>
        <time>2024-08-12T05:57:31Z</time>
      </trkpt>
      <trkpt lat="44.80096" lon="6.36575">
        <ele>2010.6</ele>
        <time>2024-08-12T05:57:32Z</time>
      </trkpt>
      <trkpt lat="44.80096" lon="6.36575">
        <ele>2010.6</ele>
        <time>2024-08-12T05:57:33Z</time>
      </trkpt>
      <trkpt lat="44.80094" lon="6.36574">
        <ele>2010.6</ele>
        <time>2024-08-12T05:57:34Z</time>
      </trkpt>
      <trkpt lat="44.80094" lon="6.36574">
        <ele>2010.6</ele>
        <time>2024-08-12T05:57:35Z</time>
      </trkpt>
      <trkpt lat="44.80093" lon="6.36571">
        <ele>2010.4</ele>
        <time>2024-08-12T05:57:36Z</time>
      </trkpt>
      <trkpt lat="44.80093" lon="6.36571">
        <ele>2010</ele>
        <time>2024-08-12T05:57:37Z</time>
      </trkpt>
      <trkpt lat="44.80093" lon="6.36571">
        <ele>2009.4</ele>
        <time>2024-08-12T05:57:38Z</time>
      </trkpt>
      <trkpt lat="44.80093" lon="6.36567">
        <ele>2009.4</ele>
        <time>2024-08-12T05:57:39Z</time>
      </trkpt>
      <trkpt lat="44.80093" lon="6.36567">
        <ele>2009.4</ele>
        <time>2024-08-12T05:57:40Z</time>
      </trkpt>
      <trkpt lat="44.80093" lon="6.36567">
        <ele>2009.4</ele>
        <time>2024-08-12T05:57:41Z</time>
      </trkpt>
      <trkpt lat="44.80093" lon="6.36567">
        <ele>2009.4</ele>
        <time>2024-08-12T05:57:42Z</time>
      </trkpt>
      <trkpt lat="44.80092" lon="6.36565">
        <ele>2009.4</ele>
        <time>2024-08-12T05:57:43Z</time>
      </trkpt>
      <trkpt lat="44.80092" lon="6.36565">
        <ele>2009.6</ele>
        <time>2024-08-12T05:57:44Z</time>
      </trkpt>
      <trkpt lat="44.80092" lon="6.36565">
        <ele>2009.6</ele>
        <time>2024-08-12T05:57:45Z</time>
      </trkpt>
      <trkpt lat="44.8009" lon="6.36564">
        <ele>2009.6</ele>
        <time>2024-08-12T05:57:46Z</time>
      </trkpt>
      <trkpt lat="44.8009" lon="6.36564">
        <ele>2009.6</ele>
        <time>2024-08-12T05:57:47Z</time>
      </trkpt>
      <trkpt lat="44.80088" lon="6.36564">
        <ele>2009.6</ele>
        <time>2024-08-12T05:57:48Z</time>
      </trkpt>
      <trkpt lat="44.80088" lon="6.36564">
        <ele>2010.2</ele>
        <time>2024-08-12T05:57:49Z</time>
      </trkpt>
      <trkpt lat="44.80085" lon="6.36564">
        <ele>2010.2</ele>
        <time>2024-08-12T05:57:50Z</time>
      </trkpt>
      <trkpt lat="44.80085" lon="6.36564">
        <ele>2010.2</ele>
        <time>2024-08-12T05:57:51Z</time>
      </trkpt>
      <trkpt lat="44.80085" lon="6.36564">
        <ele>2010</ele>
        <time>2024-08-12T05:57:52Z</time>
      </trkpt>
      <trkpt lat="44.80084" lon="6.36565">
        <ele>2010</ele>
        <time>2024-08-12T05:57:53Z</time>
      </trkpt>
      <trkpt lat="44.80084" lon="6.36565">
        <ele>2010</ele>
        <time>2024-08-12T05:57:54Z</time>
      </trkpt>
      <trkpt lat="44.80084" lon="6.36565">
        <ele>2009.8</ele>
        <time>2024-08-12T05:57:55Z</time>
      </trkpt>
      <trkpt lat="44.80081" lon="6.36566">
        <ele>2009.6</ele>
        <time>2024-08-12T05:57:56Z</time>
      </trkpt>
      <trkpt lat="44.80081" lon="6.36566">
        <ele>2009.4</ele>
        <time>2024-08-12T05:57:57Z</time>
      </trkpt>
      <trkpt lat="44.80079" lon="6.36567">
        <ele>2009.4</ele>
        <time>2024-08-12T05:57:58Z</time>
      </trkpt>
      <trkpt lat="44.80079" lon="6.36567">
        <ele>2009.4</ele>
        <time>2024-08-12T05:57:59Z</time>
      </trkpt>
      <trkpt lat="44.80079" lon="6.36567">
        <ele>2009.4</ele>
        <time>2024-08-12T05:58:00Z</time>
      </trkpt>
      <trkpt lat="44.80077" lon="6.36568">
        <ele>2009.2</ele>
        <time>2024-08-12T05:58:01Z</time>
      </trkpt>
      <trkpt lat="44.80077" lon="6.36568">
        <ele>2009.4</ele>
        <time>2024-08-12T05:58:02Z</time>
      </trkpt>
      <trkpt lat="44.80077" lon="6.36568">
        <ele>2009.4</ele>
        <time>2024-08-12T05:58:03Z</time>
      </trkpt>
      <trkpt lat="44.80077" lon="6.36568">
        <ele>2009.6</ele>
        <time>2024-08-12T05:58:04Z</time>
      </trkpt>
      <trkpt lat="44.80076" lon="6.36569">
        <ele>2009.6</ele>
        <time>2024-08-12T05:58:05Z</time>
      </trkpt>
      <trkpt lat="44.80076" lon="6.36569">
        <ele>2009.6</ele>
        <time>2024-08-12T05:58:06Z</time>
      </trkpt>
      <trkpt lat="44.80076" lon="6.36569">
        <ele>2009.4</ele>
        <time>2024-08-12T05:58:07Z</time>
      </trkpt>
      <trkpt lat="44.80076" lon="6.36569">
        <ele>2009.4</ele>
        <time>2024-08-12T05:58:08Z</time>
      </trkpt>
      <trkpt lat="44.80076" lon="6.36569">
        <ele>2009.4</ele>
        <time>2024-08-12T05:58:09Z</time>
      </trkpt>
      <trkpt lat="44.80076" lon="6.36569">
        <ele>2009.4</ele>
        <time>2024-08-12T05:58:10Z</time>
      </trkpt>
      <trkpt lat="44.80076" lon="6.36569">
        <ele>2009.4</ele>
        <time>2024-08-12T05:58:11Z</time>
      </trkpt>
      <trkpt lat="44.80076" lon="6.36569">
        <ele>2009.4</ele>
        <time>2024-08-12T05:58:12Z</time>
      </trkpt>
      <trkpt lat="44.80076" lon="6.36569">
        <ele>2009.4</ele>
        <time>2024-08-12T05:58:13Z</time>
      </trkpt>
      <trkpt lat="44.80076" lon="6.36569">
        <ele>2009.4</ele>
        <time>2024-08-12T05:58:14Z</time>
      </trkpt>
      <trkpt lat="44.80076" lon="6.36569">
        <ele>2009.6</ele>
        <time>2024-08-12T05:58:15Z</time>
      </trkpt>
      <trkpt lat="44.80074" lon="6.36571">
        <ele>2009.6</ele>
        <time>2024-08-12T05:58:16Z</time>
      </trkpt>
      <trkpt lat="44.80074" lon="6.36571">
        <ele>2009.4</ele>
        <time>2024-08-12T05:58:17Z</time>
      </trkpt>
      <trkpt lat="44.80072" lon="6.36575">
        <ele>2009.4</ele>
        <time>2024-08-12T05:58:18Z</time>
      </trkpt>
      <trkpt lat="44.80072" lon="6.36575">
        <ele>2009.4</ele>
        <time>2024-08-12T05:58:19Z</time>
      </trkpt>
      <trkpt lat="44.8007" lon="6.36578">
        <ele>2009.4</ele>
        <time>2024-08-12T05:58:20Z</time>
      </trkpt>
      <trkpt lat="44.8007" lon="6.36578">
        <ele>2009.2</ele>
        <time>2024-08-12T05:58:21Z</time>
      </trkpt>
      <trkpt lat="44.80069" lon="6.3658">
        <ele>2009</ele>
        <time>2024-08-12T05:58:22Z</time>
      </trkpt>
      <trkpt lat="44.80069" lon="6.3658">
        <ele>2009</ele>
        <time>2024-08-12T05:58:23Z</time>
      </trkpt>
      <trkpt lat="44.80068" lon="6.36582">
        <ele>2009.2</ele>
        <time>2024-08-12T05:58:24Z</time>
      </trkpt>
      <trkpt lat="44.80068" lon="6.36582">
        <ele>2009.2</ele>
        <time>2024-08-12T05:58:25Z</time>
      </trkpt>
      <trkpt lat="44.80068" lon="6.36582">
        <ele>2009.6</ele>
        <time>2024-08-12T05:58:26Z</time>
      </trkpt>
      <trkpt lat="44.80066" lon="6.36584">
        <ele>2010</ele>
        <time>2024-08-12T05:58:27Z</time>
      </trkpt>
      <trkpt lat="44.80066" lon="6.36584">
        <ele>2010</ele>
        <time>2024-08-12T05:58:28Z</time>
      </trkpt>
      <trkpt lat="44.80066" lon="6.36584">
        <ele>2010.2</ele>
        <time>2024-08-12T05:58:29Z</time>
      </trkpt>
      <trkpt lat="44.80066" lon="6.36584">
        <ele>2010.6</ele>
        <time>2024-08-12T05:58:30Z</time>
      </trkpt>
      <trkpt lat="44.80065" lon="6.36587">
        <ele>2010.8</ele>
        <time>2024-08-12T05:58:31Z</time>
      </trkpt>
      <trkpt lat="44.80065" lon="6.36587">
        <ele>2011.2</ele>
        <time>2024-08-12T05:58:32Z</time>
      </trkpt>
      <trkpt lat="44.80064" lon="6.36589">
        <ele>2011.6</ele>
        <time>2024-08-12T05:58:33Z</time>
      </trkpt>
      <trkpt lat="44.80064" lon="6.36589">
        <ele>2011.8</ele>
        <time>2024-08-12T05:58:34Z</time>
      </trkpt>
      <trkpt lat="44.80063" lon="6.36591">
        <ele>2012.2</ele>
        <time>2024-08-12T05:58:35Z</time>
      </trkpt>
      <trkpt lat="44.80063" lon="6.36591">
        <ele>2012.4</ele>
        <time>2024-08-12T05:58:36Z</time>
      </trkpt>
      <trkpt lat="44.80063" lon="6.36591">
        <ele>2012.4</ele>
        <time>2024-08-12T05:58:37Z</time>
      </trkpt>
      <trkpt lat="44.80061" lon="6.36593">
        <ele>2012.6</ele>
        <time>2024-08-12T05:58:38Z</time>
      </trkpt>
      <trkpt lat="44.80061" lon="6.36593">
        <ele>2013</ele>
        <time>2024-08-12T05:58:39Z</time>
      </trkpt>
      <trkpt lat="44.80059" lon="6.36593">
        <ele>2013</ele>
        <time>2024-08-12T05:58:40Z</time>
      </trkpt>
      <trkpt lat="44.80059" lon="6.36593">
        <ele>2013.2</ele>
        <time>2024-08-12T05:58:41Z</time>
      </trkpt>
      <trkpt lat="44.80059" lon="6.36593">
        <ele>2013.2</ele>
        <time>2024-08-12T05:58:42Z</time>
      </trkpt>
      <trkpt lat="44.80056" lon="6.36595">
        <ele>2013.6</ele>
        <time>2024-08-12T05:58:43Z</time>
      </trkpt>
      <trkpt lat="44.80056" lon="6.36595">
        <ele>2013.6</ele>
        <time>2024-08-12T05:58:44Z</time>
      </trkpt>
      <trkpt lat="44.80056" lon="6.36595">
        <ele>2013.4</ele>
        <time>2024-08-12T05:58:45Z</time>
      </trkpt>
      <trkpt lat="44.80056" lon="6.36595">
        <ele>2013.4</ele>
        <time>2024-08-12T05:58:46Z</time>
      </trkpt>
      <trkpt lat="44.80056" lon="6.36595">
        <ele>2013.6</ele>
        <time>2024-08-12T05:58:47Z</time>
      </trkpt>
      <trkpt lat="44.80056" lon="6.36595">
        <ele>2013.8</ele>
        <time>2024-08-12T05:58:48Z</time>
      </trkpt>
      <trkpt lat="44.80056" lon="6.36595">
        <ele>2014</ele>
        <time>2024-08-12T05:58:49Z</time>
      </trkpt>
      <trkpt lat="44.80056" lon="6.36595">
        <ele>2014</ele>
        <time>2024-08-12T05:58:50Z</time>
      </trkpt>
      <trkpt lat="44.80056" lon="6.36595">
        <ele>2014</ele>
        <time>2024-08-12T05:58:51Z</time>
      </trkpt>
      <trkpt lat="44.80054" lon="6.36596">
        <ele>2014</ele>
        <time>2024-08-12T05:58:52Z</time>
      </trkpt>
      <trkpt lat="44.80054" lon="6.36596">
        <ele>2014</ele>
        <time>2024-08-12T05:58:53Z</time>
      </trkpt>
      <trkpt lat="44.80052" lon="6.36597">
        <ele>2014</ele>
        <time>2024-08-12T05:58:54Z</time>
      </trkpt>
      <trkpt lat="44.80052" lon="6.36597">
        <ele>2013.6</ele>
        <time>2024-08-12T05:58:55Z</time>
      </trkpt>
      <trkpt lat="44.8005" lon="6.36599">
        <ele>2013.6</ele>
        <time>2024-08-12T05:58:56Z</time>
      </trkpt>
      <trkpt lat="44.8005" lon="6.36599">
        <ele>2013.6</ele>
        <time>2024-08-12T05:58:57Z</time>
      </trkpt>
      <trkpt lat="44.80049" lon="6.366">
        <ele>2013.6</ele>
        <time>2024-08-12T05:58:58Z</time>
      </trkpt>
      <trkpt lat="44.80049" lon="6.366">
        <ele>2013.6</ele>
        <time>2024-08-12T05:58:59Z</time>
      </trkpt>
      <trkpt lat="44.80047" lon="6.36601">
        <ele>2013.8</ele>
        <time>2024-08-12T05:59:00Z</time>
      </trkpt>
      <trkpt lat="44.80047" lon="6.36601">
        <ele>2013.8</ele>
        <time>2024-08-12T05:59:01Z</time>
      </trkpt>
      <trkpt lat="44.80047" lon="6.36601">
        <ele>2013.8</ele>
        <time>2024-08-12T05:59:02Z</time>
      </trkpt>
      <trkpt lat="44.80045" lon="6.36604">
        <ele>2013.8</ele>
        <time>2024-08-12T05:59:03Z</time>
      </trkpt>
      <trkpt lat="44.80045" lon="6.36604">
        <ele>2013.8</ele>
        <time>2024-08-12T05:59:04Z</time>
      </trkpt>
      <trkpt lat="44.80043" lon="6.36605">
        <ele>2014</ele>
        <time>2024-08-12T05:59:05Z</time>
      </trkpt>
      <trkpt lat="44.80043" lon="6.36605">
        <ele>2014</ele>
        <time>2024-08-12T05:59:06Z</time>
      </trkpt>
      <trkpt lat="44.80043" lon="6.36605">
        <ele>2014.2</ele>
        <time>2024-08-12T05:59:07Z</time>
      </trkpt>
      <trkpt lat="44.80043" lon="6.36605">
        <ele>2014.2</ele>
        <time>2024-08-12T05:59:08Z</time>
      </trkpt>
      <trkpt lat="44.80043" lon="6.36605">
        <ele>2014.8</ele>
        <time>2024-08-12T05:59:09Z</time>
      </trkpt>
      <trkpt lat="44.80043" lon="6.36605">
        <ele>2014.8</ele>
        <time>2024-08-12T05:59:10Z</time>
      </trkpt>
      <trkpt lat="44.80043" lon="6.36605">
        <ele>2014.8</ele>
        <time>2024-08-12T05:59:11Z</time>
      </trkpt>
      <trkpt lat="44.80042" lon="6.36608">
        <ele>2015</ele>
        <time>2024-08-12T05:59:12Z</time>
      </trkpt>
      <trkpt lat="44.80042" lon="6.36608">
        <ele>2015</ele>
        <time>2024-08-12T05:59:13Z</time>
      </trkpt>
      <trkpt lat="44.8004" lon="6.36608">
        <ele>2015</ele>
        <time>2024-08-12T05:59:14Z</time>
      </trkpt>
      <trkpt lat="44.8004" lon="6.36608">
        <ele>2015.2</ele>
        <time>2024-08-12T05:59:15Z</time>
      </trkpt>
      <trkpt lat="44.80038" lon="6.3661">
        <ele>2015.4</ele>
        <time>2024-08-12T05:59:16Z</time>
      </trkpt>
      <trkpt lat="44.80038" lon="6.3661">
        <ele>2015.4</ele>
        <time>2024-08-12T05:59:17Z</time>
      </trkpt>
      <trkpt lat="44.80036" lon="6.36611">
        <ele>2015.4</ele>
        <time>2024-08-12T05:59:18Z</time>
      </trkpt>
      <trkpt lat="44.80036" lon="6.36611">
        <ele>2015.4</ele>
        <time>2024-08-12T05:59:19Z</time>
      </trkpt>
      <trkpt lat="44.80034" lon="6.36611">
        <ele>2015.8</ele>
        <time>2024-08-12T05:59:20Z</time>
      </trkpt>
      <trkpt lat="44.80034" lon="6.36611">
        <ele>2016</ele>
        <time>2024-08-12T05:59:21Z</time>
      </trkpt>
      <trkpt lat="44.80032" lon="6.3661">
        <ele>2016.2</ele>
        <time>2024-08-12T05:59:22Z</time>
      </trkpt>
      <trkpt lat="44.80032" lon="6.3661">
        <ele>2016.2</ele>
        <time>2024-08-12T05:59:23Z</time>
      </trkpt>
      <trkpt lat="44.8003" lon="6.36609">
        <ele>2016.4</ele>
        <time>2024-08-12T05:59:24Z</time>
      </trkpt>
      <trkpt lat="44.8003" lon="6.36609">
        <ele>2016.4</ele>
        <time>2024-08-12T05:59:25Z</time>
      </trkpt>
      <trkpt lat="44.8003" lon="6.36609">
        <ele>2016.6</ele>
        <time>2024-08-12T05:59:26Z</time>
      </trkpt>
      <trkpt lat="44.80028" lon="6.3661">
        <ele>2017</ele>
        <time>2024-08-12T05:59:27Z</time>
      </trkpt>
      <trkpt lat="44.80028" lon="6.3661">
        <ele>2017.2</ele>
        <time>2024-08-12T05:59:28Z</time>
      </trkpt>
      <trkpt lat="44.80026" lon="6.36612">
        <ele>2017.2</ele>
        <time>2024-08-12T05:59:29Z</time>
      </trkpt>
      <trkpt lat="44.80026" lon="6.36612">
        <ele>2017.2</ele>
        <time>2024-08-12T05:59:30Z</time>
      </trkpt>
      <trkpt lat="44.80024" lon="6.36614">
        <ele>2017.6</ele>
        <time>2024-08-12T05:59:31Z</time>
      </trkpt>
      <trkpt lat="44.80024" lon="6.36614">
        <ele>2017.6</ele>
        <time>2024-08-12T05:59:32Z</time>
      </trkpt>
      <trkpt lat="44.80024" lon="6.36614">
        <ele>2017.8</ele>
        <time>2024-08-12T05:59:33Z</time>
      </trkpt>
      <trkpt lat="44.80022" lon="6.36614">
        <ele>2018</ele>
        <time>2024-08-12T05:59:34Z</time>
      </trkpt>
      <trkpt lat="44.80022" lon="6.36614">
        <ele>2018</ele>
        <time>2024-08-12T05:59:35Z</time>
      </trkpt>
      <trkpt lat="44.80022" lon="6.36614">
        <ele>2018.2</ele>
        <time>2024-08-12T05:59:36Z</time>
      </trkpt>
      <trkpt lat="44.8002" lon="6.36616">
        <ele>2018.6</ele>
        <time>2024-08-12T05:59:37Z</time>
      </trkpt>
      <trkpt lat="44.8002" lon="6.36616">
        <ele>2018.8</ele>
        <time>2024-08-12T05:59:38Z</time>
      </trkpt>
      <trkpt lat="44.80019" lon="6.36617">
        <ele>2019</ele>
        <time>2024-08-12T05:59:39Z</time>
      </trkpt>
      <trkpt lat="44.80019" lon="6.36617">
        <ele>2019.2</ele>
        <time>2024-08-12T05:59:40Z</time>
      </trkpt>
      <trkpt lat="44.80019" lon="6.36617">
        <ele>2019.4</ele>
        <time>2024-08-12T05:59:41Z</time>
      </trkpt>
      <trkpt lat="44.80017" lon="6.36617">
        <ele>2019.6</ele>
        <time>2024-08-12T05:59:42Z</time>
      </trkpt>
      <trkpt lat="44.80017" lon="6.36617">
        <ele>2020</ele>
        <time>2024-08-12T05:59:43Z</time>
      </trkpt>
      <trkpt lat="44.80017" lon="6.36617">
        <ele>2020.2</ele>
        <time>2024-08-12T05:59:44Z</time>
      </trkpt>
      <trkpt lat="44.80015" lon="6.36616">
        <ele>2020.4</ele>
        <time>2024-08-12T05:59:45Z</time>
      </trkpt>
      <trkpt lat="44.80015" lon="6.36616">
        <ele>2020.6</ele>
        <time>2024-08-12T05:59:46Z</time>
      </trkpt>
      <trkpt lat="44.80015" lon="6.36616">
        <ele>2020.6</ele>
        <time>2024-08-12T05:59:47Z</time>
      </trkpt>
      <trkpt lat="44.80013" lon="6.36618">
        <ele>2020.6</ele>
        <time>2024-08-12T05:59:48Z</time>
      </trkpt>
      <trkpt lat="44.80013" lon="6.36618">
        <ele>2020.8</ele>
        <time>2024-08-12T05:59:49Z</time>
      </trkpt>
      <trkpt lat="44.80013" lon="6.36618">
        <ele>2020.8</ele>
        <time>2024-08-12T05:59:50Z</time>
      </trkpt>
      <trkpt lat="44.80011" lon="6.3662">
        <ele>2020.8</ele>
        <time>2024-08-12T05:59:51Z</time>
      </trkpt>
      <trkpt lat="44.80011" lon="6.3662">
        <ele>2021</ele>
        <time>2024-08-12T05:59:52Z</time>
      </trkpt>
      <trkpt lat="44.80011" lon="6.3662">
        <ele>2021.6</ele>
        <time>2024-08-12T05:59:53Z</time>
      </trkpt>
      <trkpt lat="44.80008" lon="6.36622">
        <ele>2021.8</ele>
        <time>2024-08-12T05:59:54Z</time>
      </trkpt>
      <trkpt lat="44.80008" lon="6.36622">
        <ele>2021.8</ele>
        <time>2024-08-12T05:59:55Z</time>
      </trkpt>
      <trkpt lat="44.80006" lon="6.36622">
        <ele>2021.8</ele>
        <time>2024-08-12T05:59:56Z</time>
      </trkpt>
      <trkpt lat="44.80006" lon="6.36622">
        <ele>2022</ele>
        <time>2024-08-12T05:59:57Z</time>
      </trkpt>
      <trkpt lat="44.80006" lon="6.36622">
        <ele>2022.2</ele>
        <time>2024-08-12T05:59:58Z</time>
      </trkpt>
      <trkpt lat="44.80004" lon="6.36621">
        <ele>2022.2</ele>
        <time>2024-08-12T05:59:59Z</time>
      </trkpt>
      <trkpt lat="44.80004" lon="6.36621">
        <ele>2022.2</ele>
        <time>2024-08-12T06:00:00Z</time>
      </trkpt>
      <trkpt lat="44.80004" lon="6.36621">
        <ele>2022.6</ele>
        <time>2024-08-12T06:00:01Z</time>
      </trkpt>
      <trkpt lat="44.80002" lon="6.36621">
        <ele>2022.8</ele>
        <time>2024-08-12T06:00:02Z</time>
      </trkpt>
      <trkpt lat="44.80002" lon="6.36621">
        <ele>2022.6</ele>
        <time>2024-08-12T06:00:03Z</time>
      </trkpt>
      <trkpt lat="44.80002" lon="6.36621">
        <ele>2022.6</ele>
        <time>2024-08-12T06:00:04Z</time>
      </trkpt>
      <trkpt lat="44.80002" lon="6.36621">
        <ele>2023</ele>
        <time>2024-08-12T06:00:05Z</time>
      </trkpt>
      <trkpt lat="44.8" lon="6.3662">
        <ele>2023.2</ele>
        <time>2024-08-12T06:00:06Z</time>
      </trkpt>
      <trkpt lat="44.8" lon="6.3662">
        <ele>2023.4</ele>
        <time>2024-08-12T06:00:07Z</time>
      </trkpt>
      <trkpt lat="44.79998" lon="6.36619">
        <ele>2023.4</ele>
        <time>2024-08-12T06:00:08Z</time>
      </trkpt>
      <trkpt lat="44.79998" lon="6.36619">
        <ele>2023.4</ele>
        <time>2024-08-12T06:00:09Z</time>
      </trkpt>
      <trkpt lat="44.79998" lon="6.36619">
        <ele>2023.4</ele>
        <time>2024-08-12T06:00:10Z</time>
      </trkpt>
      <trkpt lat="44.79997" lon="6.36619">
        <ele>2023.8</ele>
        <time>2024-08-12T06:00:11Z</time>
      </trkpt>
      <trkpt lat="44.79997" lon="6.36619">
        <ele>2024.2</ele>
        <time>2024-08-12T06:00:12Z</time>
      </trkpt>
      <trkpt lat="44.79997" lon="6.36619">
        <ele>2024.4</ele>
        <time>2024-08-12T06:00:13Z</time>
      </trkpt>
      <trkpt lat="44.79997" lon="6.36619">
        <ele>2024.4</ele>
        <time>2024-08-12T06:00:14Z</time>
      </trkpt>
      <trkpt lat="44.79994" lon="6.36619">
        <ele>2024.6</ele>
        <time>2024-08-12T06:00:15Z</time>
      </trkpt>
      <trkpt lat="44.79994" lon="6.36619">
        <ele>2024.6</ele>
        <time>2024-08-12T06:00:16Z</time>
      </trkpt>
      <trkpt lat="44.79994" lon="6.36619">
        <ele>2024.8</ele>
        <time>2024-08-12T06:00:17Z</time>
      </trkpt>
      <trkpt lat="44.79994" lon="6.36619">
        <ele>2025</ele>
        <time>2024-08-12T06:00:18Z</time>
      </trkpt>
      <trkpt lat="44.79992" lon="6.36618">
        <ele>2025</ele>
        <time>2024-08-12T06:00:19Z</time>
      </trkpt>
      <trkpt lat="44.79992" lon="6.36618">
        <ele>2025.2</ele>
        <time>2024-08-12T06:00:20Z</time>
      </trkpt>
      <trkpt lat="44.79992" lon="6.36618">
        <ele>2025.4</ele>
        <time>2024-08-12T06:00:21Z</time>
      </trkpt>
      <trkpt lat="44.7999" lon="6.36619">
        <ele>2025.4</ele>
        <time>2024-08-12T06:00:22Z</time>
      </trkpt>
      <trkpt lat="44.7999" lon="6.36619">
        <ele>2025.4</ele>
        <time>2024-08-12T06:00:23Z</time>
      </trkpt>
      <trkpt lat="44.7999" lon="6.36619">
        <ele>2025.8</ele>
        <time>2024-08-12T06:00:24Z</time>
      </trkpt>
      <trkpt lat="44.79988" lon="6.36618">
        <ele>2025.8</ele>
        <time>2024-08-12T06:00:25Z</time>
      </trkpt>
      <trkpt lat="44.79988" lon="6.36618">
        <ele>2026.4</ele>
        <time>2024-08-12T06:00:26Z</time>
      </trkpt>
      <trkpt lat="44.79988" lon="6.36618">
        <ele>2026.4</ele>
        <time>2024-08-12T06:00:27Z</time>
      </trkpt>
      <trkpt lat="44.79988" lon="6.36618">
        <ele>2026.4</ele>
        <time>2024-08-12T06:00:28Z</time>
      </trkpt>
      <trkpt lat="44.79986" lon="6.3662">
        <ele>2026.4</ele>
        <time>2024-08-12T06:00:29Z</time>
      </trkpt>
      <trkpt lat="44.79986" lon="6.3662">
        <ele>2026.6</ele>
        <time>2024-08-12T06:00:30Z</time>
      </trkpt>
      <trkpt lat="44.79985" lon="6.36622">
        <ele>2026.6</ele>
        <time>2024-08-12T06:00:31Z</time>
      </trkpt>
      <trkpt lat="44.79985" lon="6.36622">
        <ele>2027</ele>
        <time>2024-08-12T06:00:32Z</time>
      </trkpt>
      <trkpt lat="44.79985" lon="6.36622">
        <ele>2027.2</ele>
        <time>2024-08-12T06:00:33Z</time>
      </trkpt>
      <trkpt lat="44.79984" lon="6.36626">
        <ele>2027.2</ele>
        <time>2024-08-12T06:00:34Z</time>
      </trkpt>
      <trkpt lat="44.79984" lon="6.36626">
        <ele>2026.8</ele>
        <time>2024-08-12T06:00:35Z</time>
      </trkpt>
      <trkpt lat="44.79982" lon="6.36628">
        <ele>2026.8</ele>
        <time>2024-08-12T06:00:36Z</time>
      </trkpt>
      <trkpt lat="44.79982" lon="6.36628">
        <ele>2027.2</ele>
        <time>2024-08-12T06:00:37Z</time>
      </trkpt>
      <trkpt lat="44.79982" lon="6.36628">
        <ele>2027.6</ele>
        <time>2024-08-12T06:00:38Z</time>
      </trkpt>
      <trkpt lat="44.79981" lon="6.3663">
        <ele>2027.6</ele>
        <time>2024-08-12T06:00:39Z</time>
      </trkpt>
      <trkpt lat="44.79981" lon="6.3663">
        <ele>2027.4</ele>
        <time>2024-08-12T06:00:40Z</time>
      </trkpt>
      <trkpt lat="44.79981" lon="6.3663">
        <ele>2027.4</ele>
        <time>2024-08-12T06:00:41Z</time>
      </trkpt>
      <trkpt lat="44.79979" lon="6.36632">
        <ele>2028.4</ele>
        <time>2024-08-12T06:00:42Z</time>
      </trkpt>
      <trkpt lat="44.79979" lon="6.36632">
        <ele>2028.4</ele>
        <time>2024-08-12T06:00:43Z</time>
      </trkpt>
      <trkpt lat="44.79979" lon="6.36632">
        <ele>2028.6</ele>
        <time>2024-08-12T06:00:44Z</time>
      </trkpt>
      <trkpt lat="44.79977" lon="6.36633">
        <ele>2028.8</ele>
        <time>2024-08-12T06:00:45Z</time>
      </trkpt>
      <trkpt lat="44.79977" lon="6.36633">
        <ele>2029</ele>
        <time>2024-08-12T06:00:46Z</time>
      </trkpt>
      <trkpt lat="44.79975" lon="6.36635">
        <ele>2029</ele>
        <time>2024-08-12T06:00:47Z</time>
      </trkpt>
      <trkpt lat="44.79975" lon="6.36635">
        <ele>2029</ele>
        <time>2024-08-12T06:00:48Z</time>
      </trkpt>
      <trkpt lat="44.79975" lon="6.36635">
        <ele>2029.2</ele>
        <time>2024-08-12T06:00:49Z</time>
      </trkpt>
      <trkpt lat="44.79973" lon="6.36637">
        <ele>2029.4</ele>
        <time>2024-08-12T06:00:50Z</time>
      </trkpt>
      <trkpt lat="44.79973" lon="6.36637">
        <ele>2029.6</ele>
        <time>2024-08-12T06:00:51Z</time>
      </trkpt>
      <trkpt lat="44.79973" lon="6.36637">
        <ele>2029.6</ele>
        <time>2024-08-12T06:00:52Z</time>
      </trkpt>
      <trkpt lat="44.79972" lon="6.3664">
        <ele>2029.8</ele>
        <time>2024-08-12T06:00:53Z</time>
      </trkpt>
      <trkpt lat="44.79972" lon="6.3664">
        <ele>2029.8</ele>
        <time>2024-08-12T06:00:54Z</time>
      </trkpt>
      <trkpt lat="44.7997" lon="6.36642">
        <ele>2030</ele>
        <time>2024-08-12T06:00:55Z</time>
      </trkpt>
      <trkpt lat="44.7997" lon="6.36642">
        <ele>2030</ele>
        <time>2024-08-12T06:00:56Z</time>
      </trkpt>
      <trkpt lat="44.7997" lon="6.36642">
        <ele>2030.2</ele>
        <time>2024-08-12T06:00:57Z</time>
      </trkpt>
      <trkpt lat="44.79969" lon="6.36645">
        <ele>2030.4</ele>
        <time>2024-08-12T06:00:58Z</time>
      </trkpt>
      <trkpt lat="44.79969" lon="6.36645">
        <ele>2030.4</ele>
        <time>2024-08-12T06:00:59Z</time>
      </trkpt>
      <trkpt lat="44.79968" lon="6.36648">
        <ele>2030.4</ele>
        <time>2024-08-12T06:01:00Z</time>
      </trkpt>
      <trkpt lat="44.79968" lon="6.36648">
        <ele>2030.6</ele>
        <time>2024-08-12T06:01:01Z</time>
      </trkpt>
      <trkpt lat="44.79968" lon="6.36648">
        <ele>2031</ele>
        <time>2024-08-12T06:01:02Z</time>
      </trkpt>
      <trkpt lat="44.79966" lon="6.3665">
        <ele>2031</ele>
        <time>2024-08-12T06:01:03Z</time>
      </trkpt>
      <trkpt lat="44.79966" lon="6.3665">
        <ele>2031</ele>
        <time>2024-08-12T06:01:04Z</time>
      </trkpt>
      <trkpt lat="44.79966" lon="6.3665">
        <ele>2031</ele>
        <time>2024-08-12T06:01:05Z</time>
      </trkpt>
      <trkpt lat="44.79965" lon="6.36653">
        <ele>2031.4</ele>
        <time>2024-08-12T06:01:06Z</time>
      </trkpt>
      <trkpt lat="44.79965" lon="6.36653">
        <ele>2031.4</ele>
        <time>2024-08-12T06:01:07Z</time>
      </trkpt>
      <trkpt lat="44.79965" lon="6.36653">
        <ele>2031.6</ele>
        <time>2024-08-12T06:01:08Z</time>
      </trkpt>
      <trkpt lat="44.79965" lon="6.36653">
        <ele>2031.8</ele>
        <time>2024-08-12T06:01:09Z</time>
      </trkpt>
      <trkpt lat="44.79964" lon="6.36655">
        <ele>2031.8</ele>
        <time>2024-08-12T06:01:10Z</time>
      </trkpt>
      <trkpt lat="44.79964" lon="6.36655">
        <ele>2032</ele>
        <time>2024-08-12T06:01:11Z</time>
      </trkpt>
      <trkpt lat="44.79963" lon="6.36657">
        <ele>2032</ele>
        <time>2024-08-12T06:01:12Z</time>
      </trkpt>
      <trkpt lat="44.79963" lon="6.36657">
        <ele>2032</ele>
        <time>2024-08-12T06:01:13Z</time>
      </trkpt>
      <trkpt lat="44.79963" lon="6.36657">
        <ele>2032</ele>
        <time>2024-08-12T06:01:14Z</time>
      </trkpt>
      <trkpt lat="44.79961" lon="6.36658">
        <ele>2032.2</ele>
        <time>2024-08-12T06:01:15Z</time>
      </trkpt>
      <trkpt lat="44.79961" lon="6.36658">
        <ele>2032.4</ele>
        <time>2024-08-12T06:01:16Z</time>
      </trkpt>
      <trkpt lat="44.79961" lon="6.36658">
        <ele>2032.4</ele>
        <time>2024-08-12T06:01:17Z</time>
      </trkpt>
      <trkpt lat="44.79959" lon="6.3666">
        <ele>2032.4</ele>
        <time>2024-08-12T06:01:18Z</time>
      </trkpt>
      <trkpt lat="44.79959" lon="6.3666">
        <ele>2032.6</ele>
        <time>2024-08-12T06:01:19Z</time>
      </trkpt>
      <trkpt lat="44.79959" lon="6.3666">
        <ele>2033</ele>
        <time>2024-08-12T06:01:20Z</time>
      </trkpt>
      <trkpt lat="44.79957" lon="6.36661">
        <ele>2033.2</ele>
        <time>2024-08-12T06:01:21Z</time>
      </trkpt>
      <trkpt lat="44.79957" lon="6.36661">
        <ele>2033.6</ele>
        <time>2024-08-12T06:01:22Z</time>
      </trkpt>
      <trkpt lat="44.79957" lon="6.36661">
        <ele>2033.6</ele>
        <time>2024-08-12T06:01:23Z</time>
      </trkpt>
      <trkpt lat="44.79955" lon="6.36662">
        <ele>2033.4</ele>
        <time>2024-08-12T06:01:24Z</time>
      </trkpt>
      <trkpt lat="44.79955" lon="6.36662">
        <ele>2033.4</ele>
        <time>2024-08-12T06:01:25Z</time>
      </trkpt>
      <trkpt lat="44.79955" lon="6.36662">
        <ele>2033.4</ele>
        <time>2024-08-12T06:01:26Z</time>
      </trkpt>
      <trkpt lat="44.79955" lon="6.36662">
        <ele>2033.4</ele>
        <time>2024-08-12T06:01:27Z</time>
      </trkpt>
      <trkpt lat="44.79955" lon="6.36662">
        <ele>2033.4</ele>
        <time>2024-08-12T06:01:28Z</time>
      </trkpt>
      <trkpt lat="44.79953" lon="6.36661">
        <ele>2033.4</ele>
        <time>2024-08-12T06:01:29Z</time>
      </trkpt>
      <trkpt lat="44.79953" lon="6.36661">
        <ele>2033.8</ele>
        <time>2024-08-12T06:01:30Z</time>
      </trkpt>
      <trkpt lat="44.79951" lon="6.36662">
        <ele>2034.4</ele>
        <time>2024-08-12T06:01:31Z</time>
      </trkpt>
      <trkpt lat="44.79951" lon="6.36662">
        <ele>2034.6</ele>
        <time>2024-08-12T06:01:32Z</time>
      </trkpt>
      <trkpt lat="44.79949" lon="6.36665">
        <ele>2034.6</ele>
        <time>2024-08-12T06:01:33Z</time>
      </trkpt>
      <trkpt lat="44.79949" lon="6.36665">
        <ele>2034.6</ele>
        <time>2024-08-12T06:01:34Z</time>
      </trkpt>
      <trkpt lat="44.79949" lon="6.36667">
        <ele>2034.8</ele>
        <time>2024-08-12T06:01:35Z</time>
      </trkpt>
      <trkpt lat="44.79949" lon="6.36667">
        <ele>2035</ele>
        <time>2024-08-12T06:01:36Z</time>
      </trkpt>
      <trkpt lat="44.79947" lon="6.3667">
        <ele>2035</ele>
        <time>2024-08-12T06:01:37Z</time>
      </trkpt>
      <trkpt lat="44.79947" lon="6.3667">
        <ele>2035</ele>
        <time>2024-08-12T06:01:38Z</time>
      </trkpt>
      <trkpt lat="44.79947" lon="6.3667">
        <ele>2035.4</ele>
        <time>2024-08-12T06:01:39Z</time>
      </trkpt>
      <trkpt lat="44.79946" lon="6.36673">
        <ele>2035.4</ele>
        <time>2024-08-12T06:01:40Z</time>
      </trkpt>
      <trkpt lat="44.79946" lon="6.36673">
        <ele>2035.4</ele>
        <time>2024-08-12T06:01:41Z</time>
      </trkpt>
      <trkpt lat="44.79945" lon="6.36675">
        <ele>2035.6</ele>
        <time>2024-08-12T06:01:42Z</time>
      </trkpt>
      <trkpt lat="44.79945" lon="6.36675">
        <ele>2035.8</ele>
        <time>2024-08-12T06:01:43Z</time>
      </trkpt>
      <trkpt lat="44.79944" lon="6.36677">
        <ele>2036</ele>
        <time>2024-08-12T06:01:44Z</time>
      </trkpt>
      <trkpt lat="44.79944" lon="6.36677">
        <ele>2036</ele>
        <time>2024-08-12T06:01:45Z</time>
      </trkpt>
      <trkpt lat="44.79944" lon="6.36677">
        <ele>2036</ele>
        <time>2024-08-12T06:01:46Z</time>
      </trkpt>
      <trkpt lat="44.79943" lon="6.3668">
        <ele>2036</ele>
        <time>2024-08-12T06:01:47Z</time>
      </trkpt>
      <trkpt lat="44.79943" lon="6.3668">
        <ele>2036.6</ele>
        <time>2024-08-12T06:01:48Z</time>
      </trkpt>
      <trkpt lat="44.79943" lon="6.3668">
        <ele>2036.8</ele>
        <time>2024-08-12T06:01:49Z</time>
      </trkpt>
      <trkpt lat="44.7994" lon="6.36681">
        <ele>2036.8</ele>
        <time>2024-08-12T06:01:50Z</time>
      </trkpt>
      <trkpt lat="44.7994" lon="6.36681">
        <ele>2036.8</ele>
        <time>2024-08-12T06:01:51Z</time>
      </trkpt>
      <trkpt lat="44.7994" lon="6.36681">
        <ele>2036.8</ele>
        <time>2024-08-12T06:01:52Z</time>
      </trkpt>
      <trkpt lat="44.79938" lon="6.36682">
        <ele>2036.8</ele>
        <time>2024-08-12T06:01:53Z</time>
      </trkpt>
      <trkpt lat="44.79938" lon="6.36682">
        <ele>2037</ele>
        <time>2024-08-12T06:01:54Z</time>
      </trkpt>
      <trkpt lat="44.79938" lon="6.36682">
        <ele>2037</ele>
        <time>2024-08-12T06:01:55Z</time>
      </trkpt>
      <trkpt lat="44.79936" lon="6.3668">
        <ele>2037.2</ele>
        <time>2024-08-12T06:01:56Z</time>
      </trkpt>
      <trkpt lat="44.79936" lon="6.3668">
        <ele>2037.4</ele>
        <time>2024-08-12T06:01:57Z</time>
      </trkpt>
      <trkpt lat="44.79936" lon="6.36677">
        <ele>2038</ele>
        <time>2024-08-12T06:01:58Z</time>
      </trkpt>
      <trkpt lat="44.79936" lon="6.36677">
        <ele>2038</ele>
        <time>2024-08-12T06:01:59Z</time>
      </trkpt>
      <trkpt lat="44.79936" lon="6.36674">
        <ele>2037.6</ele>
        <time>2024-08-12T06:02:00Z</time>
      </trkpt>
      <trkpt lat="44.79936" lon="6.36674">
        <ele>2037.4</ele>
        <time>2024-08-12T06:02:01Z</time>
      </trkpt>
      <trkpt lat="44.79936" lon="6.36674">
        <ele>2038</ele>
        <time>2024-08-12T06:02:02Z</time>
      </trkpt>
      <trkpt lat="44.79935" lon="6.36671">
        <ele>2038</ele>
        <time>2024-08-12T06:02:03Z</time>
      </trkpt>
      <trkpt lat="44.79935" lon="6.36671">
        <ele>2038.2</ele>
        <time>2024-08-12T06:02:04Z</time>
      </trkpt>
      <trkpt lat="44.79935" lon="6.36671">
        <ele>2038.2</ele>
        <time>2024-08-12T06:02:05Z</time>
      </trkpt>
      <trkpt lat="44.79934" lon="6.36667">
        <ele>2038.8</ele>
        <time>2024-08-12T06:02:06Z</time>
      </trkpt>
      <trkpt lat="44.79934" lon="6.36667">
        <ele>2038.8</ele>
        <time>2024-08-12T06:02:07Z</time>
      </trkpt>
      <trkpt lat="44.79933" lon="6.36665">
        <ele>2039</ele>
        <time>2024-08-12T06:02:08Z</time>
      </trkpt>
      <trkpt lat="44.79933" lon="6.36665">
        <ele>2039.2</ele>
        <time>2024-08-12T06:02:09Z</time>
      </trkpt>
      <trkpt lat="44.79932" lon="6.36663">
        <ele>2039.2</ele>
        <time>2024-08-12T06:02:10Z</time>
      </trkpt>
      <trkpt lat="44.79932" lon="6.36663">
        <ele>2039.2</ele>
        <time>2024-08-12T06:02:11Z</time>
      </trkpt>
      <trkpt lat="44.79932" lon="6.36663">
        <ele>2039.4</ele>
        <time>2024-08-12T06:02:12Z</time>
      </trkpt>
      <trkpt lat="44.79931" lon="6.36662">
        <ele>2039.8</ele>
        <time>2024-08-12T06:02:13Z</time>
      </trkpt>
      <trkpt lat="44.79931" lon="6.36662">
        <ele>2039.8</ele>
        <time>2024-08-12T06:02:14Z</time>
      </trkpt>
      <trkpt lat="44.79929" lon="6.3666">
        <ele>2040.2</ele>
        <time>2024-08-12T06:02:15Z</time>
      </trkpt>
      <trkpt lat="44.79929" lon="6.3666">
        <ele>2040.2</ele>
        <time>2024-08-12T06:02:16Z</time>
      </trkpt>
      <trkpt lat="44.79928" lon="6.36658">
        <ele>2040.4</ele>
        <time>2024-08-12T06:02:17Z</time>
      </trkpt>
      <trkpt lat="44.79928" lon="6.36658">
        <ele>2040.6</ele>
        <time>2024-08-12T06:02:18Z</time>
      </trkpt>
      <trkpt lat="44.79927" lon="6.36655">
        <ele>2040.6</ele>
        <time>2024-08-12T06:02:19Z</time>
      </trkpt>
      <trkpt lat="44.79927" lon="6.36655">
        <ele>2040.6</ele>
        <time>2024-08-12T06:02:20Z</time>
      </trkpt>
      <trkpt lat="44.79925" lon="6.36653">
        <ele>2040.8</ele>
        <time>2024-08-12T06:02:21Z</time>
      </trkpt>
      <trkpt lat="44.79925" lon="6.36653">
        <ele>2040.8</ele>
        <time>2024-08-12T06:02:22Z</time>
      </trkpt>
      <trkpt lat="44.79925" lon="6.36653">
        <ele>2041</ele>
        <time>2024-08-12T06:02:23Z</time>
      </trkpt>
      <trkpt lat="44.79924" lon="6.3665">
        <ele>2041</ele>
        <time>2024-08-12T06:02:24Z</time>
      </trkpt>
      <trkpt lat="44.79924" lon="6.3665">
        <ele>2041</ele>
        <time>2024-08-12T06:02:25Z</time>
      </trkpt>
      <trkpt lat="44.79923" lon="6.36648">
        <ele>2041.4</ele>
        <time>2024-08-12T06:02:26Z</time>
      </trkpt>
      <trkpt lat="44.79923" lon="6.36648">
        <ele>2041.6</ele>
        <time>2024-08-12T06:02:27Z</time>
      </trkpt>
      <trkpt lat="44.79923" lon="6.36648">
        <ele>2041.6</ele>
        <time>2024-08-12T06:02:28Z</time>
      </trkpt>
      <trkpt lat="44.79921" lon="6.36646">
        <ele>2041.8</ele>
        <time>2024-08-12T06:02:29Z</time>
      </trkpt>
      <trkpt lat="44.79921" lon="6.36646">
        <ele>2041.8</ele>
        <time>2024-08-12T06:02:30Z</time>
      </trkpt>
      <trkpt lat="44.79919" lon="6.36644">
        <ele>2041.6</ele>
        <time>2024-08-12T06:02:31Z</time>
      </trkpt>
      <trkpt lat="44.79919" lon="6.36644">
        <ele>2041.6</ele>
        <time>2024-08-12T06:02:32Z</time>
      </trkpt>
      <trkpt lat="44.79919" lon="6.36644">
        <ele>2041.8</ele>
        <time>2024-08-12T06:02:33Z</time>
      </trkpt>
      <trkpt lat="44.79918" lon="6.36642">
        <ele>2042.2</ele>
        <time>2024-08-12T06:02:34Z</time>
      </trkpt>
      <trkpt lat="44.79918" lon="6.36642">
        <ele>2042.6</ele>
        <time>2024-08-12T06:02:35Z</time>
      </trkpt>
      <trkpt lat="44.79918" lon="6.36642">
        <ele>2042.6</ele>
        <time>2024-08-12T06:02:36Z</time>
      </trkpt>
      <trkpt lat="44.79918" lon="6.36642">
        <ele>2042.6</ele>
        <time>2024-08-12T06:02:37Z</time>
      </trkpt>
      <trkpt lat="44.79917" lon="6.36639">
        <ele>2042.8</ele>
        <time>2024-08-12T06:02:38Z</time>
      </trkpt>
      <trkpt lat="44.79917" lon="6.36639">
        <ele>2043.2</ele>
        <time>2024-08-12T06:02:39Z</time>
      </trkpt>
      <trkpt lat="44.79917" lon="6.36639">
        <ele>2043.2</ele>
        <time>2024-08-12T06:02:40Z</time>
      </trkpt>
      <trkpt lat="44.79917" lon="6.36639">
        <ele>2043.2</ele>
        <time>2024-08-12T06:02:41Z</time>
      </trkpt>
      <trkpt lat="44.79914" lon="6.36639">
        <ele>2043.8</ele>
        <time>2024-08-12T06:02:42Z</time>
      </trkpt>
      <trkpt lat="44.79914" lon="6.36639">
        <ele>2044.2</ele>
        <time>2024-08-12T06:02:43Z</time>
      </trkpt>
      <trkpt lat="44.79913" lon="6.36642">
        <ele>2044.2</ele>
        <time>2024-08-12T06:02:44Z</time>
      </trkpt>
      <trkpt lat="44.79913" lon="6.36642">
        <ele>2044.4</ele>
        <time>2024-08-12T06:02:45Z</time>
      </trkpt>
      <trkpt lat="44.79913" lon="6.36642">
        <ele>2044.4</ele>
        <time>2024-08-12T06:02:46Z</time>
      </trkpt>
      <trkpt lat="44.79912" lon="6.36645">
        <ele>2044.8</ele>
        <time>2024-08-12T06:02:47Z</time>
      </trkpt>
      <trkpt lat="44.79912" lon="6.36645">
        <ele>2044.8</ele>
        <time>2024-08-12T06:02:48Z</time>
      </trkpt>
      <trkpt lat="44.79912" lon="6.36645">
        <ele>2045</ele>
        <time>2024-08-12T06:02:49Z</time>
      </trkpt>
      <trkpt lat="44.79912" lon="6.36649">
        <ele>2045.2</ele>
        <time>2024-08-12T06:02:50Z</time>
      </trkpt>
      <trkpt lat="44.79912" lon="6.36649">
        <ele>2045.4</ele>
        <time>2024-08-12T06:02:51Z</time>
      </trkpt>
      <trkpt lat="44.79911" lon="6.36651">
        <ele>2045.4</ele>
        <time>2024-08-12T06:02:52Z</time>
      </trkpt>
      <trkpt lat="44.79911" lon="6.36651">
        <ele>2045.6</ele>
        <time>2024-08-12T06:02:53Z</time>
      </trkpt>
      <trkpt lat="44.79911" lon="6.36651">
        <ele>2045.6</ele>
        <time>2024-08-12T06:02:54Z</time>
      </trkpt>
      <trkpt lat="44.79911" lon="6.36655">
        <ele>2046</ele>
        <time>2024-08-12T06:02:55Z</time>
      </trkpt>
      <trkpt lat="44.79911" lon="6.36655">
        <ele>2046</ele>
        <time>2024-08-12T06:02:56Z</time>
      </trkpt>
      <trkpt lat="44.79911" lon="6.36657">
        <ele>2046</ele>
        <time>2024-08-12T06:02:57Z</time>
      </trkpt>
      <trkpt lat="44.79911" lon="6.36657">
        <ele>2046.2</ele>
        <time>2024-08-12T06:02:58Z</time>
      </trkpt>
      <trkpt lat="44.7991" lon="6.3666">
        <ele>2046.2</ele>
        <time>2024-08-12T06:02:59Z</time>
      </trkpt>
      <trkpt lat="44.7991" lon="6.3666">
        <ele>2046.4</ele>
        <time>2024-08-12T06:03:00Z</time>
      </trkpt>
      <trkpt lat="44.79909" lon="6.36663">
        <ele>2046.4</ele>
        <time>2024-08-12T06:03:01Z</time>
      </trkpt>
      <trkpt lat="44.79909" lon="6.36663">
        <ele>2046.6</ele>
        <time>2024-08-12T06:03:02Z</time>
      </trkpt>
      <trkpt lat="44.79909" lon="6.36663">
        <ele>2046.6</ele>
        <time>2024-08-12T06:03:03Z</time>
      </trkpt>
      <trkpt lat="44.79909" lon="6.36666">
        <ele>2047</ele>
        <time>2024-08-12T06:03:04Z</time>
      </trkpt>
      <trkpt lat="44.79909" lon="6.36666">
        <ele>2047</ele>
        <time>2024-08-12T06:03:05Z</time>
      </trkpt>
      <trkpt lat="44.79908" lon="6.36669">
        <ele>2047</ele>
        <time>2024-08-12T06:03:06Z</time>
      </trkpt>
      <trkpt lat="44.79908" lon="6.36669">
        <ele>2047</ele>
        <time>2024-08-12T06:03:07Z</time>
      </trkpt>
      <trkpt lat="44.79908" lon="6.36669">
        <ele>2047</ele>
        <time>2024-08-12T06:03:08Z</time>
      </trkpt>
      <trkpt lat="44.79908" lon="6.36673">
        <ele>2047.2</ele>
        <time>2024-08-12T06:03:09Z</time>
      </trkpt>
      <trkpt lat="44.79908" lon="6.36673">
        <ele>2047.8</ele>
        <time>2024-08-12T06:03:10Z</time>
      </trkpt>
      <trkpt lat="44.79907" lon="6.36676">
        <ele>2047.8</ele>
        <time>2024-08-12T06:03:11Z</time>
      </trkpt>
      <trkpt lat="44.79907" lon="6.36676">
        <ele>2047.8</ele>
        <time>2024-08-12T06:03:12Z</time>
      </trkpt>
      <trkpt lat="44.79907" lon="6.36678">
        <ele>2048.2</ele>
        <time>2024-08-12T06:03:13Z</time>
      </trkpt>
      <trkpt lat="44.79907" lon="6.36678">
        <ele>2048.2</ele>
        <time>2024-08-12T06:03:14Z</time>
      </trkpt>
      <trkpt lat="44.79907" lon="6.36681">
        <ele>2048.2</ele>
        <time>2024-08-12T06:03:15Z</time>
      </trkpt>
      <trkpt lat="44.79907" lon="6.36681">
        <ele>2048.2</ele>
        <time>2024-08-12T06:03:16Z</time>
      </trkpt>
      <trkpt lat="44.79907" lon="6.36681">
        <ele>2048.2</ele>
        <time>2024-08-12T06:03:17Z</time>
      </trkpt>
      <trkpt lat="44.79906" lon="6.36685">
        <ele>2048.2</ele>
        <time>2024-08-12T06:03:18Z</time>
      </trkpt>
      <trkpt lat="44.79906" lon="6.36685">
        <ele>2048.4</ele>
        <time>2024-08-12T06:03:19Z</time>
      </trkpt>
      <trkpt lat="44.79906" lon="6.36687">
        <ele>2048.6</ele>
        <time>2024-08-12T06:03:20Z</time>
      </trkpt>
      <trkpt lat="44.79906" lon="6.36687">
        <ele>2048.6</ele>
        <time>2024-08-12T06:03:21Z</time>
      </trkpt>
      <trkpt lat="44.79906" lon="6.3669">
        <ele>2048.6</ele>
        <time>2024-08-12T06:03:22Z</time>
      </trkpt>
      <trkpt lat="44.79906" lon="6.3669">
        <ele>2048.8</ele>
        <time>2024-08-12T06:03:23Z</time>
      </trkpt>
      <trkpt lat="44.79906" lon="6.3669">
        <ele>2049</ele>
        <time>2024-08-12T06:03:24Z</time>
      </trkpt>
      <trkpt lat="44.79906" lon="6.3669">
        <ele>2049.2</ele>
        <time>2024-08-12T06:03:25Z</time>
      </trkpt>
      <trkpt lat="44.79906" lon="6.3669">
        <ele>2049.2</ele>
        <time>2024-08-12T06:03:26Z</time>
      </trkpt>
      <trkpt lat="44.79906" lon="6.3669">
        <ele>2049.2</ele>
        <time>2024-08-12T06:03:27Z</time>
      </trkpt>
      <trkpt lat="44.79906" lon="6.3669">
        <ele>2049.8</ele>
        <time>2024-08-12T06:03:28Z</time>
      </trkpt>
      <trkpt lat="44.79906" lon="6.3669">
        <ele>2049.8</ele>
        <time>2024-08-12T06:03:29Z</time>
      </trkpt>
      <trkpt lat="44.79906" lon="6.3669">
        <ele>2049.8</ele>
        <time>2024-08-12T06:03:30Z</time>
      </trkpt>
      <trkpt lat="44.79906" lon="6.3669">
        <ele>2049.6</ele>
        <time>2024-08-12T06:03:31Z</time>
      </trkpt>
      <trkpt lat="44.79906" lon="6.3669">
        <ele>2049.6</ele>
        <time>2024-08-12T06:03:32Z</time>
      </trkpt>
      <trkpt lat="44.79906" lon="6.3669">
        <ele>2049.8</ele>
        <time>2024-08-12T06:03:33Z</time>
      </trkpt>
      <trkpt lat="44.79906" lon="6.3669">
        <ele>2049.8</ele>
        <time>2024-08-12T06:03:34Z</time>
      </trkpt>
      <trkpt lat="44.79906" lon="6.3669">
        <ele>2050</ele>
        <time>2024-08-12T06:03:35Z</time>
      </trkpt>
      <trkpt lat="44.79904" lon="6.36693">
        <ele>2050.2</ele>
        <time>2024-08-12T06:03:36Z</time>
      </trkpt>
      <trkpt lat="44.79904" lon="6.36693">
        <ele>2050.4</ele>
        <time>2024-08-12T06:03:37Z</time>
      </trkpt>
      <trkpt lat="44.79904" lon="6.36693">
        <ele>2050.4</ele>
        <time>2024-08-12T06:03:38Z</time>
      </trkpt>
      <trkpt lat="44.79904" lon="6.36693">
        <ele>2050.6</ele>
        <time>2024-08-12T06:03:39Z</time>
      </trkpt>
      <trkpt lat="44.79902" lon="6.36693">
        <ele>2050.6</ele>
        <time>2024-08-12T06:03:40Z</time>
      </trkpt>
      <trkpt lat="44.79902" lon="6.36693">
        <ele>2050.6</ele>
        <time>2024-08-12T06:03:41Z</time>
      </trkpt>
      <trkpt lat="44.79901" lon="6.3669">
        <ele>2050.6</ele>
        <time>2024-08-12T06:03:42Z</time>
      </trkpt>
      <trkpt lat="44.79901" lon="6.3669">
        <ele>2051</ele>
        <time>2024-08-12T06:03:43Z</time>
      </trkpt>
      <trkpt lat="44.79901" lon="6.36687">
        <ele>2051.2</ele>
        <time>2024-08-12T06:03:44Z</time>
      </trkpt>
      <trkpt lat="44.79901" lon="6.36687">
        <ele>2051.2</ele>
        <time>2024-08-12T06:03:45Z</time>
      </trkpt>
      <trkpt lat="44.79899" lon="6.36685">
        <ele>2051.4</ele>
        <time>2024-08-12T06:03:46Z</time>
      </trkpt>
      <trkpt lat="44.79899" lon="6.36685">
        <ele>2051.6</ele>
        <time>2024-08-12T06:03:47Z</time>
      </trkpt>
      <trkpt lat="44.79898" lon="6.36683">
        <ele>2051.6</ele>
        <time>2024-08-12T06:03:48Z</time>
      </trkpt>
      <trkpt lat="44.79898" lon="6.36683">
        <ele>2051.6</ele>
        <time>2024-08-12T06:03:49Z</time>
      </trkpt>
      <trkpt lat="44.79898" lon="6.36683">
        <ele>2051.8</ele>
        <time>2024-08-12T06:03:50Z</time>
      </trkpt>
      <trkpt lat="44.79896" lon="6.3668">
        <ele>2052</ele>
        <time>2024-08-12T06:03:51Z</time>
      </trkpt>
      <trkpt lat="44.79896" lon="6.3668">
        <ele>2052</ele>
        <time>2024-08-12T06:03:52Z</time>
      </trkpt>
      <trkpt lat="44.79896" lon="6.3668">
        <ele>2052.2</ele>
        <time>2024-08-12T06:03:53Z</time>
      </trkpt>
      <trkpt lat="44.79895" lon="6.36677">
        <ele>2052.2</ele>
        <time>2024-08-12T06:03:54Z</time>
      </trkpt>
      <trkpt lat="44.79895" lon="6.36677">
        <ele>2052.4</ele>
        <time>2024-08-12T06:03:55Z</time>
      </trkpt>
      <trkpt lat="44.79895" lon="6.36677">
        <ele>2052.4</ele>
        <time>2024-08-12T06:03:56Z</time>
      </trkpt>
      <trkpt lat="44.79893" lon="6.36674">
        <ele>2052.4</ele>
        <time>2024-08-12T06:03:57Z</time>
      </trkpt>
      <trkpt lat="44.79893" lon="6.36674">
        <ele>2052.4</ele>
        <time>2024-08-12T06:03:58Z</time>
      </trkpt>
      <trkpt lat="44.79893" lon="6.36674">
        <ele>2052.4</ele>
        <time>2024-08-12T06:03:59Z</time>
      </trkpt>
      <trkpt lat="44.79892" lon="6.36671">
        <ele>2052.8</ele>
        <time>2024-08-12T06:04:00Z</time>
      </trkpt>
      <trkpt lat="44.79892" lon="6.36671">
        <ele>2053.2</ele>
        <time>2024-08-12T06:04:01Z</time>
      </trkpt>
      <trkpt lat="44.79892" lon="6.36669">
        <ele>2053.2</ele>
        <time>2024-08-12T06:04:02Z</time>
      </trkpt>
      <trkpt lat="44.79892" lon="6.36669">
        <ele>2053.2</ele>
        <time>2024-08-12T06:04:03Z</time>
      </trkpt>
      <trkpt lat="44.79891" lon="6.36666">
        <ele>2053.4</ele>
        <time>2024-08-12T06:04:04Z</time>
      </trkpt>
      <trkpt lat="44.79891" lon="6.36666">
        <ele>2053.4</ele>
        <time>2024-08-12T06:04:05Z</time>
      </trkpt>
      <trkpt lat="44.79891" lon="6.36663">
        <ele>2053.4</ele>
        <time>2024-08-12T06:04:06Z</time>
      </trkpt>
      <trkpt lat="44.79891" lon="6.36663">
        <ele>2053.6</ele>
        <time>2024-08-12T06:04:07Z</time>
      </trkpt>
      <trkpt lat="44.7989" lon="6.3666">
        <ele>2054</ele>
        <time>2024-08-12T06:04:08Z</time>
      </trkpt>
      <trkpt lat="44.7989" lon="6.3666">
        <ele>2054</ele>
        <time>2024-08-12T06:04:09Z</time>
      </trkpt>
      <trkpt lat="44.79889" lon="6.36658">
        <ele>2054</ele>
        <time>2024-08-12T06:04:10Z</time>
      </trkpt>
      <trkpt lat="44.79889" lon="6.36658">
        <ele>2054</ele>
        <time>2024-08-12T06:04:11Z</time>
      </trkpt>
      <trkpt lat="44.79889" lon="6.36655">
        <ele>2054.2</ele>
        <time>2024-08-12T06:04:12Z</time>
      </trkpt>
      <trkpt lat="44.79889" lon="6.36655">
        <ele>2054.2</ele>
        <time>2024-08-12T06:04:13Z</time>
      </trkpt>
      <trkpt lat="44.79889" lon="6.36655">
        <ele>2054.4</ele>
        <time>2024-08-12T06:04:14Z</time>
      </trkpt>
      <trkpt lat="44.79888" lon="6.36651">
        <ele>2054.4</ele>
        <time>2024-08-12T06:04:15Z</time>
      </trkpt>
      <trkpt lat="44.79888" lon="6.36651">
        <ele>2054.4</ele>
        <time>2024-08-12T06:04:16Z</time>
      </trkpt>
      <trkpt lat="44.79887" lon="6.36649">
        <ele>2054.4</ele>
        <time>2024-08-12T06:04:17Z</time>
      </trkpt>
      <trkpt lat="44.79887" lon="6.36649">
        <ele>2054.6</ele>
        <time>2024-08-12T06:04:18Z</time>
      </trkpt>
      <trkpt lat="44.79887" lon="6.36646">
        <ele>2054.4</ele>
        <time>2024-08-12T06:04:19Z</time>
      </trkpt>
      <trkpt lat="44.79887" lon="6.36646">
        <ele>2054.4</ele>
        <time>2024-08-12T06:04:20Z</time>
      </trkpt>
      <trkpt lat="44.79886" lon="6.36643">
        <ele>2054.4</ele>
        <time>2024-08-12T06:04:21Z</time>
      </trkpt>
      <trkpt lat="44.79886" lon="6.36643">
        <ele>2055</ele>
        <time>2024-08-12T06:04:22Z</time>
      </trkpt>
      <trkpt lat="44.79885" lon="6.3664">
        <ele>2055</ele>
        <time>2024-08-12T06:04:23Z</time>
      </trkpt>
      <trkpt lat="44.79885" lon="6.3664">
        <ele>2055.2</ele>
        <time>2024-08-12T06:04:24Z</time>
      </trkpt>
      <trkpt lat="44.79884" lon="6.36638">
        <ele>2055.4</ele>
        <time>2024-08-12T06:04:25Z</time>
      </trkpt>
      <trkpt lat="44.79884" lon="6.36638">
        <ele>2055.6</ele>
        <time>2024-08-12T06:04:26Z</time>
      </trkpt>
      <trkpt lat="44.79883" lon="6.36635">
        <ele>2055.6</ele>
        <time>2024-08-12T06:04:27Z</time>
      </trkpt>
      <trkpt lat="44.79883" lon="6.36635">
        <ele>2055.6</ele>
        <time>2024-08-12T06:04:28Z</time>
      </trkpt>
      <trkpt lat="44.79883" lon="6.36632">
        <ele>2055.8</ele>
        <time>2024-08-12T06:04:29Z</time>
      </trkpt>
      <trkpt lat="44.79883" lon="6.36632">
        <ele>2055.8</ele>
        <time>2024-08-12T06:04:30Z</time>
      </trkpt>
      <trkpt lat="44.79882" lon="6.3663">
        <ele>2056</ele>
        <time>2024-08-12T06:04:31Z</time>
      </trkpt>
      <trkpt lat="44.79882" lon="6.3663">
        <ele>2056.2</ele>
        <time>2024-08-12T06:04:32Z</time>
      </trkpt>
      <trkpt lat="44.79882" lon="6.3663">
        <ele>2056.2</ele>
        <time>2024-08-12T06:04:33Z</time>
      </trkpt>
      <trkpt lat="44.79881" lon="6.36628">
        <ele>2056.2</ele>
        <time>2024-08-12T06:04:34Z</time>
      </trkpt>
      <trkpt lat="44.79881" lon="6.36628">
        <ele>2056.2</ele>
        <time>2024-08-12T06:04:35Z</time>
      </trkpt>
      <trkpt lat="44.79879" lon="6.36627">
        <ele>2056.8</ele>
        <time>2024-08-12T06:04:36Z</time>
      </trkpt>
      <trkpt lat="44.79879" lon="6.36627">
        <ele>2057</ele>
        <time>2024-08-12T06:04:37Z</time>
      </trkpt>
      <trkpt lat="44.79879" lon="6.36627">
        <ele>2057</ele>
        <time>2024-08-12T06:04:38Z</time>
      </trkpt>
      <trkpt lat="44.79879" lon="6.36627">
        <ele>2057.2</ele>
        <time>2024-08-12T06:04:39Z</time>
      </trkpt>
      <trkpt lat="44.79877" lon="6.36629">
        <ele>2057.4</ele>
        <time>2024-08-12T06:04:40Z</time>
      </trkpt>
      <trkpt lat="44.79877" lon="6.36629">
        <ele>2058</ele>
        <time>2024-08-12T06:04:41Z</time>
      </trkpt>
      <trkpt lat="44.79877" lon="6.36629">
        <ele>2058.2</ele>
        <time>2024-08-12T06:04:42Z</time>
      </trkpt>
      <trkpt lat="44.79875" lon="6.36632">
        <ele>2058.2</ele>
        <time>2024-08-12T06:04:43Z</time>
      </trkpt>
      <trkpt lat="44.79875" lon="6.36632">
        <ele>2058.2</ele>
        <time>2024-08-12T06:04:44Z</time>
      </trkpt>
      <trkpt lat="44.79875" lon="6.36632">
        <ele>2058.4</ele>
        <time>2024-08-12T06:04:45Z</time>
      </trkpt>
      <trkpt lat="44.79874" lon="6.36634">
        <ele>2058.6</ele>
        <time>2024-08-12T06:04:46Z</time>
      </trkpt>
      <trkpt lat="44.79874" lon="6.36634">
        <ele>2058.6</ele>
        <time>2024-08-12T06:04:47Z</time>
      </trkpt>
      <trkpt lat="44.79874" lon="6.36634">
        <ele>2058.8</ele>
        <time>2024-08-12T06:04:48Z</time>
      </trkpt>
      <trkpt lat="44.79874" lon="6.36634">
        <ele>2059</ele>
        <time>2024-08-12T06:04:49Z</time>
      </trkpt>
      <trkpt lat="44.79873" lon="6.36637">
        <ele>2059.2</ele>
        <time>2024-08-12T06:04:50Z</time>
      </trkpt>
      <trkpt lat="44.79873" lon="6.36637">
        <ele>2059.2</ele>
        <time>2024-08-12T06:04:51Z</time>
      </trkpt>
      <trkpt lat="44.79873" lon="6.36637">
        <ele>2059.4</ele>
        <time>2024-08-12T06:04:52Z</time>
      </trkpt>
      <trkpt lat="44.79873" lon="6.3664">
        <ele>2059.6</ele>
        <time>2024-08-12T06:04:53Z</time>
      </trkpt>
      <trkpt lat="44.79873" lon="6.3664">
        <ele>2059.6</ele>
        <time>2024-08-12T06:04:54Z</time>
      </trkpt>
      <trkpt lat="44.79873" lon="6.36642">
        <ele>2059.8</ele>
        <time>2024-08-12T06:04:55Z</time>
      </trkpt>
      <trkpt lat="44.79873" lon="6.36642">
        <ele>2060</ele>
        <time>2024-08-12T06:04:56Z</time>
      </trkpt>
      <trkpt lat="44.79873" lon="6.36642">
        <ele>2060.2</ele>
        <time>2024-08-12T06:04:57Z</time>
      </trkpt>
      <trkpt lat="44.79873" lon="6.36646">
        <ele>2060.2</ele>
        <time>2024-08-12T06:04:58Z</time>
      </trkpt>
      <trkpt lat="44.79873" lon="6.36646">
        <ele>2060.4</ele>
        <time>2024-08-12T06:04:59Z</time>
      </trkpt>
      <trkpt lat="44.79873" lon="6.36646">
        <ele>2060.6</ele>
        <time>2024-08-12T06:05:00Z</time>
      </trkpt>
      <trkpt lat="44.79873" lon="6.36648">
        <ele>2060.6</ele>
        <time>2024-08-12T06:05:01Z</time>
      </trkpt>
      <trkpt lat="44.79873" lon="6.36648">
        <ele>2060.6</ele>
        <time>2024-08-12T06:05:02Z</time>
      </trkpt>
      <trkpt lat="44.79873" lon="6.36648">
        <ele>2060.6</ele>
        <time>2024-08-12T06:05:03Z</time>
      </trkpt>
      <trkpt lat="44.7987" lon="6.36647">
        <ele>2061</ele>
        <time>2024-08-12T06:05:04Z</time>
      </trkpt>
      <trkpt lat="44.7987" lon="6.36647">
        <ele>2061.2</ele>
        <time>2024-08-12T06:05:05Z</time>
      </trkpt>
      <trkpt lat="44.7987" lon="6.36647">
        <ele>2061.2</ele>
        <time>2024-08-12T06:05:06Z</time>
      </trkpt>
      <trkpt lat="44.79869" lon="6.36644">
        <ele>2061.4</ele>
        <time>2024-08-12T06:05:07Z</time>
      </trkpt>
      <trkpt lat="44.79869" lon="6.36644">
        <ele>2061.4</ele>
        <time>2024-08-12T06:05:08Z</time>
      </trkpt>
      <trkpt lat="44.79869" lon="6.36644">
        <ele>2061.6</ele>
        <time>2024-08-12T06:05:09Z</time>
      </trkpt>
      <trkpt lat="44.79868" lon="6.36641">
        <ele>2061.8</ele>
        <time>2024-08-12T06:05:10Z</time>
      </trkpt>
      <trkpt lat="44.79868" lon="6.36641">
        <ele>2062</ele>
        <time>2024-08-12T06:05:11Z</time>
      </trkpt>
      <trkpt lat="44.79868" lon="6.36641">
        <ele>2062</ele>
        <time>2024-08-12T06:05:12Z</time>
      </trkpt>
      <trkpt lat="44.79868" lon="6.36641">
        <ele>2062.2</ele>
        <time>2024-08-12T06:05:13Z</time>
      </trkpt>
      <trkpt lat="44.79868" lon="6.36641">
        <ele>2062.2</ele>
        <time>2024-08-12T06:05:14Z</time>
      </trkpt>
      <trkpt lat="44.79866" lon="6.3664">
        <ele>2062.8</ele>
        <time>2024-08-12T06:05:15Z</time>
      </trkpt>
      <trkpt lat="44.79866" lon="6.3664">
        <ele>2063</ele>
        <time>2024-08-12T06:05:16Z</time>
      </trkpt>
      <trkpt lat="44.79866" lon="6.3664">
        <ele>2063.4</ele>
        <time>2024-08-12T06:05:17Z</time>
      </trkpt>
      <trkpt lat="44.79866" lon="6.3664">
        <ele>2063.4</ele>
        <time>2024-08-12T06:05:18Z</time>
      </trkpt>
      <trkpt lat="44.79867" lon="6.36643">
        <ele>2063.2</ele>
        <time>2024-08-12T06:05:19Z</time>
      </trkpt>
      <trkpt lat="44.79867" lon="6.36643">
        <ele>2063.2</ele>
        <time>2024-08-12T06:05:20Z</time>
      </trkpt>
      <trkpt lat="44.79867" lon="6.36643">
        <ele>2063.4</ele>
        <time>2024-08-12T06:05:21Z</time>
      </trkpt>
      <trkpt lat="44.79867" lon="6.36643">
        <ele>2063.6</ele>
        <time>2024-08-12T06:05:22Z</time>
      </trkpt>
      <trkpt lat="44.79867" lon="6.36643">
        <ele>2063.6</ele>
        <time>2024-08-12T06:05:23Z</time>
      </trkpt>
      <trkpt lat="44.79867" lon="6.36643">
        <ele>2063.8</ele>
        <time>2024-08-12T06:05:24Z</time>
      </trkpt>
      <trkpt lat="44.79867" lon="6.36643">
        <ele>2063.6</ele>
        <time>2024-08-12T06:05:25Z</time>
      </trkpt>
      <trkpt lat="44.79867" lon="6.36643">
        <ele>2063.6</ele>
        <time>2024-08-12T06:05:26Z</time>
      </trkpt>
      <trkpt lat="44.79867" lon="6.36643">
        <ele>2063.6</ele>
        <time>2024-08-12T06:05:27Z</time>
      </trkpt>
      <trkpt lat="44.79867" lon="6.36643">
        <ele>2063.6</ele>
        <time>2024-08-12T06:05:28Z</time>
      </trkpt>
      <trkpt lat="44.79867" lon="6.36643">
        <ele>2063.4</ele>
        <time>2024-08-12T06:05:29Z</time>
      </trkpt>
      <trkpt lat="44.79867" lon="6.36643">
        <ele>2063.4</ele>
        <time>2024-08-12T06:05:30Z</time>
      </trkpt>
      <trkpt lat="44.79867" lon="6.36643">
        <ele>2063.4</ele>
        <time>2024-08-12T06:05:31Z</time>
      </trkpt>
      <trkpt lat="44.79867" lon="6.36643">
        <ele>2063.4</ele>
        <time>2024-08-12T06:05:32Z</time>
      </trkpt>
      <trkpt lat="44.79867" lon="6.36643">
        <ele>2063.4</ele>
        <time>2024-08-12T06:05:33Z</time>
      </trkpt>
      <trkpt lat="44.79868" lon="6.36645">
        <ele>2063.4</ele>
        <time>2024-08-12T06:05:34Z</time>
      </trkpt>
      <trkpt lat="44.79868" lon="6.36645">
        <ele>2063.6</ele>
        <time>2024-08-12T06:05:35Z</time>
      </trkpt>
      <trkpt lat="44.79868" lon="6.36648">
        <ele>2063.8</ele>
        <time>2024-08-12T06:05:36Z</time>
      </trkpt>
      <trkpt lat="44.79868" lon="6.36648">
        <ele>2064</ele>
        <time>2024-08-12T06:05:37Z</time>
      </trkpt>
      <trkpt lat="44.79868" lon="6.36648">
        <ele>2064</ele>
        <time>2024-08-12T06:05:38Z</time>
      </trkpt>
      <trkpt lat="44.79868" lon="6.36652">
        <ele>2064</ele>
        <time>2024-08-12T06:05:39Z</time>
      </trkpt>
      <trkpt lat="44.79868" lon="6.36652">
        <ele>2064.2</ele>
        <time>2024-08-12T06:05:40Z</time>
      </trkpt>
      <trkpt lat="44.79868" lon="6.36652">
        <ele>2064.6</ele>
        <time>2024-08-12T06:05:41Z</time>
      </trkpt>
      <trkpt lat="44.79868" lon="6.36655">
        <ele>2064.8</ele>
        <time>2024-08-12T06:05:42Z</time>
      </trkpt>
      <trkpt lat="44.79868" lon="6.36655">
        <ele>2065</ele>
        <time>2024-08-12T06:05:43Z</time>
      </trkpt>
      <trkpt lat="44.79868" lon="6.36655">
        <ele>2065</ele>
        <time>2024-08-12T06:05:44Z</time>
      </trkpt>
      <trkpt lat="44.79867" lon="6.36659">
        <ele>2065.2</ele>
        <time>2024-08-12T06:05:45Z</time>
      </trkpt>
      <trkpt lat="44.79867" lon="6.36659">
        <ele>2065.4</ele>
        <time>2024-08-12T06:05:46Z</time>
      </trkpt>
      <trkpt lat="44.79867" lon="6.36659">
        <ele>2065.4</ele>
        <time>2024-08-12T06:05:47Z</time>
      </trkpt>
      <trkpt lat="44.79868" lon="6.36662">
        <ele>2065.4</ele>
        <time>2024-08-12T06:05:48Z</time>
      </trkpt>
      <trkpt lat="44.79868" lon="6.36662">
        <ele>2065.6</ele>
        <time>2024-08-12T06:05:49Z</time>
      </trkpt>
      <trkpt lat="44.79868" lon="6.36665">
        <ele>2065.6</ele>
        <time>2024-08-12T06:05:50Z</time>
      </trkpt>
      <trkpt lat="44.79868" lon="6.36665">
        <ele>2065.8</ele>
        <time>2024-08-12T06:05:51Z</time>
      </trkpt>
      <trkpt lat="44.79868" lon="6.36667">
        <ele>2065.8</ele>
        <time>2024-08-12T06:05:52Z</time>
      </trkpt>
      <trkpt lat="44.79868" lon="6.36667">
        <ele>2066</ele>
        <time>2024-08-12T06:05:53Z</time>
      </trkpt>
      <trkpt lat="44.79868" lon="6.36667">
        <ele>2066</ele>
        <time>2024-08-12T06:05:54Z</time>
      </trkpt>
      <trkpt lat="44.79869" lon="6.36671">
        <ele>2066.2</ele>
        <time>2024-08-12T06:05:55Z</time>
      </trkpt>
      <trkpt lat="44.79869" lon="6.36671">
        <ele>2066.4</ele>
        <time>2024-08-12T06:05:56Z</time>
      </trkpt>
      <trkpt lat="44.79869" lon="6.36674">
        <ele>2066.4</ele>
        <time>2024-08-12T06:05:57Z</time>
      </trkpt>
      <trkpt lat="44.79869" lon="6.36674">
        <ele>2066.4</ele>
        <time>2024-08-12T06:05:58Z</time>
      </trkpt>
      <trkpt lat="44.79869" lon="6.36674">
        <ele>2066.4</ele>
        <time>2024-08-12T06:05:59Z</time>
      </trkpt>
      <trkpt lat="44.7987" lon="6.36677">
        <ele>2066.6</ele>
        <time>2024-08-12T06:06:00Z</time>
      </trkpt>
      <trkpt lat="44.7987" lon="6.36677">
        <ele>2066.8</ele>
        <time>2024-08-12T06:06:01Z</time>
      </trkpt>
      <trkpt lat="44.7987" lon="6.36677">
        <ele>2067</ele>
        <time>2024-08-12T06:06:02Z</time>
      </trkpt>
      <trkpt lat="44.7987" lon="6.36681">
        <ele>2067</ele>
        <time>2024-08-12T06:06:03Z</time>
      </trkpt>
      <trkpt lat="44.7987" lon="6.36681">
        <ele>2067.2</ele>
        <time>2024-08-12T06:06:04Z</time>
      </trkpt>
      <trkpt lat="44.7987" lon="6.36681">
        <ele>2067.4</ele>
        <time>2024-08-12T06:06:05Z</time>
      </trkpt>
      <trkpt lat="44.7987" lon="6.36684">
        <ele>2067.6</ele>
        <time>2024-08-12T06:06:06Z</time>
      </trkpt>
      <trkpt lat="44.7987" lon="6.36684">
        <ele>2067.6</ele>
        <time>2024-08-12T06:06:07Z</time>
      </trkpt>
      <trkpt lat="44.7987" lon="6.36684">
        <ele>2067.8</ele>
        <time>2024-08-12T06:06:08Z</time>
      </trkpt>
      <trkpt lat="44.7987" lon="6.36684">
        <ele>2067.8</ele>
        <time>2024-08-12T06:06:09Z</time>
      </trkpt>
      <trkpt lat="44.79868" lon="6.36685">
        <ele>2068</ele>
        <time>2024-08-12T06:06:10Z</time>
      </trkpt>
      <trkpt lat="44.79868" lon="6.36685">
        <ele>2068.2</ele>
        <time>2024-08-12T06:06:11Z</time>
      </trkpt>
      <trkpt lat="44.79868" lon="6.36685">
        <ele>2068.2</ele>
        <time>2024-08-12T06:06:12Z</time>
      </trkpt>
      <trkpt lat="44.79867" lon="6.36684">
        <ele>2068.2</ele>
        <time>2024-08-12T06:06:13Z</time>
      </trkpt>
      <trkpt lat="44.79867" lon="6.36684">
        <ele>2068.2</ele>
        <time>2024-08-12T06:06:14Z</time>
      </trkpt>
      <trkpt lat="44.79867" lon="6.36684">
        <ele>2068.4</ele>
        <time>2024-08-12T06:06:15Z</time>
      </trkpt>
      <trkpt lat="44.79865" lon="6.36683">
        <ele>2068.6</ele>
        <time>2024-08-12T06:06:16Z</time>
      </trkpt>
      <trkpt lat="44.79865" lon="6.36683">
        <ele>2069.2</ele>
        <time>2024-08-12T06:06:17Z</time>
      </trkpt>
      <trkpt lat="44.79863" lon="6.36682">
        <ele>2069.2</ele>
        <time>2024-08-12T06:06:18Z</time>
      </trkpt>
      <trkpt lat="44.79863" lon="6.36682">
        <ele>2069.2</ele>
        <time>2024-08-12T06:06:19Z</time>
      </trkpt>
      <trkpt lat="44.79863" lon="6.36682">
        <ele>2069.2</ele>
        <time>2024-08-12T06:06:20Z</time>
      </trkpt>
      <trkpt lat="44.79861" lon="6.3668">
        <ele>2069.8</ele>
        <time>2024-08-12T06:06:21Z</time>
      </trkpt>
      <trkpt lat="44.79861" lon="6.3668">
        <ele>2069.8</ele>
        <time>2024-08-12T06:06:22Z</time>
      </trkpt>
      <trkpt lat="44.79861" lon="6.3668">
        <ele>2070</ele>
        <time>2024-08-12T06:06:23Z</time>
      </trkpt>
      <trkpt lat="44.79859" lon="6.36679">
        <ele>2070</ele>
        <time>2024-08-12T06:06:24Z</time>
      </trkpt>
      <trkpt lat="44.79859" lon="6.36679">
        <ele>2070.2</ele>
        <time>2024-08-12T06:06:25Z</time>
      </trkpt>
      <trkpt lat="44.79859" lon="6.36679">
        <ele>2070.4</ele>
        <time>2024-08-12T06:06:26Z</time>
      </trkpt>
      <trkpt lat="44.79858" lon="6.36677">
        <ele>2070.4</ele>
        <time>2024-08-12T06:06:27Z</time>
      </trkpt>
      <trkpt lat="44.79858" lon="6.36677">
        <ele>2071</ele>
        <time>2024-08-12T06:06:28Z</time>
      </trkpt>
      <trkpt lat="44.79858" lon="6.36677">
        <ele>2071</ele>
        <time>2024-08-12T06:06:29Z</time>
      </trkpt>
      <trkpt lat="44.79855" lon="6.36677">
        <ele>2071</ele>
        <time>2024-08-12T06:06:30Z</time>
      </trkpt>
      <trkpt lat="44.79855" lon="6.36677">
        <ele>2071</ele>
        <time>2024-08-12T06:06:31Z</time>
      </trkpt>
      <trkpt lat="44.79853" lon="6.36677">
        <ele>2071.6</ele>
        <time>2024-08-12T06:06:32Z</time>
      </trkpt>
      <trkpt lat="44.79853" lon="6.36677">
        <ele>2071.6</ele>
        <time>2024-08-12T06:06:33Z</time>
      </trkpt>
      <trkpt lat="44.79852" lon="6.36678">
        <ele>2071.4</ele>
        <time>2024-08-12T06:06:34Z</time>
      </trkpt>
      <trkpt lat="44.79852" lon="6.36678">
        <ele>2071.4</ele>
        <time>2024-08-12T06:06:35Z</time>
      </trkpt>
      <trkpt lat="44.7985" lon="6.3668">
        <ele>2071.6</ele>
        <time>2024-08-12T06:06:36Z</time>
      </trkpt>
      <trkpt lat="44.7985" lon="6.3668">
        <ele>2072</ele>
        <time>2024-08-12T06:06:37Z</time>
      </trkpt>
      <trkpt lat="44.7985" lon="6.3668">
        <ele>2072</ele>
        <time>2024-08-12T06:06:38Z</time>
      </trkpt>
      <trkpt lat="44.79848" lon="6.36683">
        <ele>2072</ele>
        <time>2024-08-12T06:06:39Z</time>
      </trkpt>
      <trkpt lat="44.79848" lon="6.36683">
        <ele>2071.8</ele>
        <time>2024-08-12T06:06:40Z</time>
      </trkpt>
      <trkpt lat="44.79846" lon="6.36684">
        <ele>2072</ele>
        <time>2024-08-12T06:06:41Z</time>
      </trkpt>
      <trkpt lat="44.79846" lon="6.36684">
        <ele>2072.4</ele>
        <time>2024-08-12T06:06:42Z</time>
      </trkpt>
      <trkpt lat="44.79846" lon="6.36684">
        <ele>2072.6</ele>
        <time>2024-08-12T06:06:43Z</time>
      </trkpt>
      <trkpt lat="44.79844" lon="6.36686">
        <ele>2072.6</ele>
        <time>2024-08-12T06:06:44Z</time>
      </trkpt>
      <trkpt lat="44.79844" lon="6.36686">
        <ele>2073</ele>
        <time>2024-08-12T06:06:45Z</time>
      </trkpt>
      <trkpt lat="44.79844" lon="6.36686">
        <ele>2073</ele>
        <time>2024-08-12T06:06:46Z</time>
      </trkpt>
      <trkpt lat="44.79842" lon="6.36686">
        <ele>2073.2</ele>
        <time>2024-08-12T06:06:47Z</time>
      </trkpt>
      <trkpt lat="44.79842" lon="6.36686">
        <ele>2073.2</ele>
        <time>2024-08-12T06:06:48Z</time>
      </trkpt>
      <trkpt lat="44.79842" lon="6.36686">
        <ele>2073.6</ele>
        <time>2024-08-12T06:06:49Z</time>
      </trkpt>
      <trkpt lat="44.7984" lon="6.36684">
        <ele>2074.2</ele>
        <time>2024-08-12T06:06:50Z</time>
      </trkpt>
      <trkpt lat="44.7984" lon="6.36684">
        <ele>2074.2</ele>
        <time>2024-08-12T06:06:51Z</time>
      </trkpt>
      <trkpt lat="44.7984" lon="6.36684">
        <ele>2074.2</ele>
        <time>2024-08-12T06:06:52Z</time>
      </trkpt>
      <trkpt lat="44.7984" lon="6.36684">
        <ele>2074.4</ele>
        <time>2024-08-12T06:06:53Z</time>
      </trkpt>
      <trkpt lat="44.7984" lon="6.36684">
        <ele>2074.4</ele>
        <time>2024-08-12T06:06:54Z</time>
      </trkpt>
      <trkpt lat="44.7984" lon="6.36684">
        <ele>2074.8</ele>
        <time>2024-08-12T06:06:55Z</time>
      </trkpt>
      <trkpt lat="44.79838" lon="6.36685">
        <ele>2075.2</ele>
        <time>2024-08-12T06:06:56Z</time>
      </trkpt>
      <trkpt lat="44.79838" lon="6.36685">
        <ele>2075.2</ele>
        <time>2024-08-12T06:06:57Z</time>
      </trkpt>
      <trkpt lat="44.79838" lon="6.36688">
        <ele>2075.6</ele>
        <time>2024-08-12T06:06:58Z</time>
      </trkpt>
      <trkpt lat="44.79838" lon="6.36688">
        <ele>2075.6</ele>
        <time>2024-08-12T06:06:59Z</time>
      </trkpt>
      <trkpt lat="44.79839" lon="6.36691">
        <ele>2075.8</ele>
        <time>2024-08-12T06:07:00Z</time>
      </trkpt>
      <trkpt lat="44.79839" lon="6.36691">
        <ele>2076</ele>
        <time>2024-08-12T06:07:01Z</time>
      </trkpt>
      <trkpt lat="44.79839" lon="6.36693">
        <ele>2076.2</ele>
        <time>2024-08-12T06:07:02Z</time>
      </trkpt>
      <trkpt lat="44.79839" lon="6.36693">
        <ele>2076.2</ele>
        <time>2024-08-12T06:07:03Z</time>
      </trkpt>
      <trkpt lat="44.79839" lon="6.36693">
        <ele>2076.2</ele>
        <time>2024-08-12T06:07:04Z</time>
      </trkpt>
      <trkpt lat="44.7984" lon="6.36697">
        <ele>2076.4</ele>
        <time>2024-08-12T06:07:05Z</time>
      </trkpt>
      <trkpt lat="44.7984" lon="6.36697">
        <ele>2076.8</ele>
        <time>2024-08-12T06:07:06Z</time>
      </trkpt>
      <trkpt lat="44.7984" lon="6.36697">
        <ele>2076.8</ele>
        <time>2024-08-12T06:07:07Z</time>
      </trkpt>
      <trkpt lat="44.79841" lon="6.367">
        <ele>2076.8</ele>
        <time>2024-08-12T06:07:08Z</time>
      </trkpt>
      <trkpt lat="44.79841" lon="6.367">
        <ele>2077.2</ele>
        <time>2024-08-12T06:07:09Z</time>
      </trkpt>
      <trkpt lat="44.79841" lon="6.36702">
        <ele>2077.4</ele>
        <time>2024-08-12T06:07:10Z</time>
      </trkpt>
      <trkpt lat="44.79841" lon="6.36702">
        <ele>2077.4</ele>
        <time>2024-08-12T06:07:11Z</time>
      </trkpt>
      <trkpt lat="44.79841" lon="6.36702">
        <ele>2077.4</ele>
        <time>2024-08-12T06:07:12Z</time>
      </trkpt>
      <trkpt lat="44.79842" lon="6.36706">
        <ele>2077.4</ele>
        <time>2024-08-12T06:07:13Z</time>
      </trkpt>
      <trkpt lat="44.79842" lon="6.36706">
        <ele>2077.4</ele>
        <time>2024-08-12T06:07:14Z</time>
      </trkpt>
      <trkpt lat="44.79842" lon="6.36708">
        <ele>2077.4</ele>
        <time>2024-08-12T06:07:15Z</time>
      </trkpt>
      <trkpt lat="44.79842" lon="6.36708">
        <ele>2077.4</ele>
        <time>2024-08-12T06:07:16Z</time>
      </trkpt>
      <trkpt lat="44.79842" lon="6.36708">
        <ele>2078</ele>
        <time>2024-08-12T06:07:17Z</time>
      </trkpt>
      <trkpt lat="44.79842" lon="6.36712">
        <ele>2078</ele>
        <time>2024-08-12T06:07:18Z</time>
      </trkpt>
      <trkpt lat="44.79842" lon="6.36712">
        <ele>2078.2</ele>
        <time>2024-08-12T06:07:19Z</time>
      </trkpt>
      <trkpt lat="44.79842" lon="6.36712">
        <ele>2078.2</ele>
        <time>2024-08-12T06:07:20Z</time>
      </trkpt>
      <trkpt lat="44.79842" lon="6.36715">
        <ele>2078.4</ele>
        <time>2024-08-12T06:07:21Z</time>
      </trkpt>
      <trkpt lat="44.79842" lon="6.36715">
        <ele>2078.6</ele>
        <time>2024-08-12T06:07:22Z</time>
      </trkpt>
      <trkpt lat="44.79842" lon="6.36715">
        <ele>2078.8</ele>
        <time>2024-08-12T06:07:23Z</time>
      </trkpt>
      <trkpt lat="44.79843" lon="6.36718">
        <ele>2078.8</ele>
        <time>2024-08-12T06:07:24Z</time>
      </trkpt>
      <trkpt lat="44.79843" lon="6.36718">
        <ele>2078.8</ele>
        <time>2024-08-12T06:07:25Z</time>
      </trkpt>
      <trkpt lat="44.79843" lon="6.36718">
        <ele>2079</ele>
        <time>2024-08-12T06:07:26Z</time>
      </trkpt>
      <trkpt lat="44.79844" lon="6.36721">
        <ele>2079.2</ele>
        <time>2024-08-12T06:07:27Z</time>
      </trkpt>
      <trkpt lat="44.79844" lon="6.36721">
        <ele>2079.4</ele>
        <time>2024-08-12T06:07:28Z</time>
      </trkpt>
      <trkpt lat="44.79844" lon="6.36721">
        <ele>2079.6</ele>
        <time>2024-08-12T06:07:29Z</time>
      </trkpt>
      <trkpt lat="44.79844" lon="6.36721">
        <ele>2079.8</ele>
        <time>2024-08-12T06:07:30Z</time>
      </trkpt>
      <trkpt lat="44.79842" lon="6.36721">
        <ele>2079.8</ele>
        <time>2024-08-12T06:07:31Z</time>
      </trkpt>
      <trkpt lat="44.79842" lon="6.36721">
        <ele>2080.4</ele>
        <time>2024-08-12T06:07:32Z</time>
      </trkpt>
      <trkpt lat="44.79842" lon="6.36721">
        <ele>2080.4</ele>
        <time>2024-08-12T06:07:33Z</time>
      </trkpt>
      <trkpt lat="44.7984" lon="6.36718">
        <ele>2080.4</ele>
        <time>2024-08-12T06:07:34Z</time>
      </trkpt>
      <trkpt lat="44.7984" lon="6.36718">
        <ele>2080.6</ele>
        <time>2024-08-12T06:07:35Z</time>
      </trkpt>
      <trkpt lat="44.79838" lon="6.36716">
        <ele>2080.6</ele>
        <time>2024-08-12T06:07:36Z</time>
      </trkpt>
      <trkpt lat="44.79838" lon="6.36716">
        <ele>2080.6</ele>
        <time>2024-08-12T06:07:37Z</time>
      </trkpt>
      <trkpt lat="44.79836" lon="6.36714">
        <ele>2080.8</ele>
        <time>2024-08-12T06:07:38Z</time>
      </trkpt>
      <trkpt lat="44.79836" lon="6.36714">
        <ele>2081</ele>
        <time>2024-08-12T06:07:39Z</time>
      </trkpt>
      <trkpt lat="44.79835" lon="6.36712">
        <ele>2081.4</ele>
        <time>2024-08-12T06:07:40Z</time>
      </trkpt>
      <trkpt lat="44.79835" lon="6.36712">
        <ele>2081.4</ele>
        <time>2024-08-12T06:07:41Z</time>
      </trkpt>
      <trkpt lat="44.79834" lon="6.36711">
        <ele>2081.6</ele>
        <time>2024-08-12T06:07:42Z</time>
      </trkpt>
      <trkpt lat="44.79834" lon="6.36711">
        <ele>2081.8</ele>
        <time>2024-08-12T06:07:43Z</time>
      </trkpt>
      <trkpt lat="44.79832" lon="6.36709">
        <ele>2082</ele>
        <time>2024-08-12T06:07:44Z</time>
      </trkpt>
      <trkpt lat="44.79832" lon="6.36709">
        <ele>2082</ele>
        <time>2024-08-12T06:07:45Z</time>
      </trkpt>
      <trkpt lat="44.7983" lon="6.36708">
        <ele>2082</ele>
        <time>2024-08-12T06:07:46Z</time>
      </trkpt>
      <trkpt lat="44.7983" lon="6.36708">
        <ele>2082</ele>
        <time>2024-08-12T06:07:47Z</time>
      </trkpt>
      <trkpt lat="44.7983" lon="6.36708">
        <ele>2082.2</ele>
        <time>2024-08-12T06:07:48Z</time>
      </trkpt>
      <trkpt lat="44.79828" lon="6.36706">
        <ele>2082.6</ele>
        <time>2024-08-12T06:07:49Z</time>
      </trkpt>
      <trkpt lat="44.79828" lon="6.36706">
        <ele>2082.6</ele>
        <time>2024-08-12T06:07:50Z</time>
      </trkpt>
      <trkpt lat="44.79828" lon="6.36706">
        <ele>2082.8</ele>
        <time>2024-08-12T06:07:51Z</time>
      </trkpt>
      <trkpt lat="44.79826" lon="6.36704">
        <ele>2083</ele>
        <time>2024-08-12T06:07:52Z</time>
      </trkpt>
      <trkpt lat="44.79826" lon="6.36704">
        <ele>2083.2</ele>
        <time>2024-08-12T06:07:53Z</time>
      </trkpt>
      <trkpt lat="44.79826" lon="6.36704">
        <ele>2083.4</ele>
        <time>2024-08-12T06:07:54Z</time>
      </trkpt>
      <trkpt lat="44.79824" lon="6.36702">
        <ele>2083.6</ele>
        <time>2024-08-12T06:07:55Z</time>
      </trkpt>
      <trkpt lat="44.79824" lon="6.36702">
        <ele>2083.8</ele>
        <time>2024-08-12T06:07:56Z</time>
      </trkpt>
      <trkpt lat="44.79823" lon="6.367">
        <ele>2083.8</ele>
        <time>2024-08-12T06:07:57Z</time>
      </trkpt>
      <trkpt lat="44.79823" lon="6.367">
        <ele>2084</ele>
        <time>2024-08-12T06:07:58Z</time>
      </trkpt>
      <trkpt lat="44.79822" lon="6.36697">
        <ele>2084</ele>
        <time>2024-08-12T06:07:59Z</time>
      </trkpt>
      <trkpt lat="44.79822" lon="6.36697">
        <ele>2084.2</ele>
        <time>2024-08-12T06:08:00Z</time>
      </trkpt>
      <trkpt lat="44.79822" lon="6.36697">
        <ele>2084.2</ele>
        <time>2024-08-12T06:08:01Z</time>
      </trkpt>
      <trkpt lat="44.79821" lon="6.36696">
        <ele>2084.6</ele>
        <time>2024-08-12T06:08:02Z</time>
      </trkpt>
      <trkpt lat="44.79821" lon="6.36696">
        <ele>2084.6</ele>
        <time>2024-08-12T06:08:03Z</time>
      </trkpt>
      <trkpt lat="44.79821" lon="6.36696">
        <ele>2084.6</ele>
        <time>2024-08-12T06:08:04Z</time>
      </trkpt>
      <trkpt lat="44.7982" lon="6.36693">
        <ele>2085</ele>
        <time>2024-08-12T06:08:05Z</time>
      </trkpt>
      <trkpt lat="44.7982" lon="6.36693">
        <ele>2085.4</ele>
        <time>2024-08-12T06:08:06Z</time>
      </trkpt>
      <trkpt lat="44.79818" lon="6.36691">
        <ele>2085.4</ele>
        <time>2024-08-12T06:08:07Z</time>
      </trkpt>
      <trkpt lat="44.79818" lon="6.36691">
        <ele>2085.4</ele>
        <time>2024-08-12T06:08:08Z</time>
      </trkpt>
      <trkpt lat="44.79818" lon="6.36691">
        <ele>2085.4</ele>
        <time>2024-08-12T06:08:09Z</time>
      </trkpt>
      <trkpt lat="44.79817" lon="6.36688">
        <ele>2085.6</ele>
        <time>2024-08-12T06:08:10Z</time>
      </trkpt>
      <trkpt lat="44.79817" lon="6.36688">
        <ele>2086.2</ele>
        <time>2024-08-12T06:08:11Z</time>
      </trkpt>
      <trkpt lat="44.79816" lon="6.36685">
        <ele>2086.2</ele>
        <time>2024-08-12T06:08:12Z</time>
      </trkpt>
      <trkpt lat="44.79816" lon="6.36685">
        <ele>2086.6</ele>
        <time>2024-08-12T06:08:13Z</time>
      </trkpt>
      <trkpt lat="44.79816" lon="6.36685">
        <ele>2086.6</ele>
        <time>2024-08-12T06:08:14Z</time>
      </trkpt>
      <trkpt lat="44.79815" lon="6.36682">
        <ele>2086.6</ele>
        <time>2024-08-12T06:08:15Z</time>
      </trkpt>
      <trkpt lat="44.79815" lon="6.36682">
        <ele>2086.6</ele>
        <time>2024-08-12T06:08:16Z</time>
      </trkpt>
      <trkpt lat="44.79814" lon="6.3668">
        <ele>2086.8</ele>
        <time>2024-08-12T06:08:17Z</time>
      </trkpt>
      <trkpt lat="44.79814" lon="6.3668">
        <ele>2087</ele>
        <time>2024-08-12T06:08:18Z</time>
      </trkpt>
      <trkpt lat="44.79814" lon="6.3668">
        <ele>2087.4</ele>
        <time>2024-08-12T06:08:19Z</time>
      </trkpt>
      <trkpt lat="44.79812" lon="6.36677">
        <ele>2087.4</ele>
        <time>2024-08-12T06:08:20Z</time>
      </trkpt>
      <trkpt lat="44.79812" lon="6.36677">
        <ele>2087.6</ele>
        <time>2024-08-12T06:08:21Z</time>
      </trkpt>
      <trkpt lat="44.79812" lon="6.36677">
        <ele>2087.8</ele>
        <time>2024-08-12T06:08:22Z</time>
      </trkpt>
      <trkpt lat="44.79812" lon="6.36675">
        <ele>2087.8</ele>
        <time>2024-08-12T06:08:23Z</time>
      </trkpt>
      <trkpt lat="44.79812" lon="6.36675">
        <ele>2088</ele>
        <time>2024-08-12T06:08:24Z</time>
      </trkpt>
      <trkpt lat="44.7981" lon="6.36673">
        <ele>2088</ele>
        <time>2024-08-12T06:08:25Z</time>
      </trkpt>
      <trkpt lat="44.7981" lon="6.36673">
        <ele>2088.4</ele>
        <time>2024-08-12T06:08:26Z</time>
      </trkpt>
      <trkpt lat="44.7981" lon="6.36673">
        <ele>2088.4</ele>
        <time>2024-08-12T06:08:27Z</time>
      </trkpt>
      <trkpt lat="44.79808" lon="6.36672">
        <ele>2088.4</ele>
        <time>2024-08-12T06:08:28Z</time>
      </trkpt>
      <trkpt lat="44.79808" lon="6.36672">
        <ele>2088.4</ele>
        <time>2024-08-12T06:08:29Z</time>
      </trkpt>
      <trkpt lat="44.79808" lon="6.36672">
        <ele>2088.6</ele>
        <time>2024-08-12T06:08:30Z</time>
      </trkpt>
      <trkpt lat="44.79808" lon="6.36672">
        <ele>2088.8</ele>
        <time>2024-08-12T06:08:31Z</time>
      </trkpt>
      <trkpt lat="44.79807" lon="6.36669">
        <ele>2088.8</ele>
        <time>2024-08-12T06:08:32Z</time>
      </trkpt>
      <trkpt lat="44.79807" lon="6.36669">
        <ele>2088.8</ele>
        <time>2024-08-12T06:08:33Z</time>
      </trkpt>
      <trkpt lat="44.79807" lon="6.36669">
        <ele>2089</ele>
        <time>2024-08-12T06:08:34Z</time>
      </trkpt>
      <trkpt lat="44.79806" lon="6.36667">
        <ele>2089</ele>
        <time>2024-08-12T06:08:35Z</time>
      </trkpt>
      <trkpt lat="44.79806" lon="6.36667">
        <ele>2089.4</ele>
        <time>2024-08-12T06:08:36Z</time>
      </trkpt>
      <trkpt lat="44.79806" lon="6.36667">
        <ele>2089.6</ele>
        <time>2024-08-12T06:08:37Z</time>
      </trkpt>
      <trkpt lat="44.79806" lon="6.36667">
        <ele>2090.8</ele>
        <time>2024-08-12T06:08:38Z</time>
      </trkpt>
      <trkpt lat="44.79804" lon="6.36666">
        <ele>2090.8</ele>
        <time>2024-08-12T06:08:39Z</time>
      </trkpt>
      <trkpt lat="44.79804" lon="6.36666">
        <ele>2090.8</ele>
        <time>2024-08-12T06:08:40Z</time>
      </trkpt>
      <trkpt lat="44.79804" lon="6.36666">
        <ele>2090.8</ele>
        <time>2024-08-12T06:08:41Z</time>
      </trkpt>
      <trkpt lat="44.79804" lon="6.36666">
        <ele>2091.2</ele>
        <time>2024-08-12T06:08:42Z</time>
      </trkpt>
      <trkpt lat="44.79804" lon="6.36666">
        <ele>2091.2</ele>
        <time>2024-08-12T06:08:43Z</time>
      </trkpt>
      <trkpt lat="44.79804" lon="6.36666">
        <ele>2091.4</ele>
        <time>2024-08-12T06:08:44Z</time>
      </trkpt>
      <trkpt lat="44.79804" lon="6.36666">
        <ele>2091.2</ele>
        <time>2024-08-12T06:08:45Z</time>
      </trkpt>
      <trkpt lat="44.79803" lon="6.36663">
        <ele>2091.2</ele>
        <time>2024-08-12T06:08:46Z</time>
      </trkpt>
      <trkpt lat="44.79803" lon="6.36663">
        <ele>2091.6</ele>
        <time>2024-08-12T06:08:47Z</time>
      </trkpt>
      <trkpt lat="44.79801" lon="6.3666">
        <ele>2091.8</ele>
        <time>2024-08-12T06:08:48Z</time>
      </trkpt>
      <trkpt lat="44.79801" lon="6.3666">
        <ele>2091.8</ele>
        <time>2024-08-12T06:08:49Z</time>
      </trkpt>
      <trkpt lat="44.798" lon="6.36657">
        <ele>2091.8</ele>
        <time>2024-08-12T06:08:50Z</time>
      </trkpt>
      <trkpt lat="44.798" lon="6.36657">
        <ele>2091.8</ele>
        <time>2024-08-12T06:08:51Z</time>
      </trkpt>
      <trkpt lat="44.798" lon="6.36653">
        <ele>2092</ele>
        <time>2024-08-12T06:08:52Z</time>
      </trkpt>
      <trkpt lat="44.798" lon="6.36653">
        <ele>2092.2</ele>
        <time>2024-08-12T06:08:53Z</time>
      </trkpt>
      <trkpt lat="44.798" lon="6.3665">
        <ele>2092.4</ele>
        <time>2024-08-12T06:08:54Z</time>
      </trkpt>
      <trkpt lat="44.798" lon="6.3665">
        <ele>2092.4</ele>
        <time>2024-08-12T06:08:55Z</time>
      </trkpt>
      <trkpt lat="44.798" lon="6.36647">
        <ele>2092.4</ele>
        <time>2024-08-12T06:08:56Z</time>
      </trkpt>
      <trkpt lat="44.798" lon="6.36647">
        <ele>2092.8</ele>
        <time>2024-08-12T06:08:57Z</time>
      </trkpt>
      <trkpt lat="44.798" lon="6.36647">
        <ele>2093</ele>
        <time>2024-08-12T06:08:58Z</time>
      </trkpt>
      <trkpt lat="44.798" lon="6.36644">
        <ele>2093.2</ele>
        <time>2024-08-12T06:08:59Z</time>
      </trkpt>
      <trkpt lat="44.798" lon="6.36644">
        <ele>2093.4</ele>
        <time>2024-08-12T06:09:00Z</time>
      </trkpt>
      <trkpt lat="44.798" lon="6.36644">
        <ele>2093.6</ele>
        <time>2024-08-12T06:09:01Z</time>
      </trkpt>
      <trkpt lat="44.798" lon="6.36641">
        <ele>2093.8</ele>
        <time>2024-08-12T06:09:02Z</time>
      </trkpt>
      <trkpt lat="44.798" lon="6.36641">
        <ele>2093.8</ele>
        <time>2024-08-12T06:09:03Z</time>
      </trkpt>
      <trkpt lat="44.798" lon="6.36641">
        <ele>2093.8</ele>
        <time>2024-08-12T06:09:04Z</time>
      </trkpt>
      <trkpt lat="44.79798" lon="6.36638">
        <ele>2093.8</ele>
        <time>2024-08-12T06:09:05Z</time>
      </trkpt>
      <trkpt lat="44.79798" lon="6.36638">
        <ele>2094.2</ele>
        <time>2024-08-12T06:09:06Z</time>
      </trkpt>
      <trkpt lat="44.79798" lon="6.36638">
        <ele>2094.8</ele>
        <time>2024-08-12T06:09:07Z</time>
      </trkpt>
      <trkpt lat="44.79797" lon="6.36636">
        <ele>2094.8</ele>
        <time>2024-08-12T06:09:08Z</time>
      </trkpt>
      <trkpt lat="44.79797" lon="6.36636">
        <ele>2095</ele>
        <time>2024-08-12T06:09:09Z</time>
      </trkpt>
      <trkpt lat="44.79796" lon="6.36634">
        <ele>2095.2</ele>
        <time>2024-08-12T06:09:10Z</time>
      </trkpt>
      <trkpt lat="44.79796" lon="6.36634">
        <ele>2095.2</ele>
        <time>2024-08-12T06:09:11Z</time>
      </trkpt>
      <trkpt lat="44.79796" lon="6.36634">
        <ele>2095.2</ele>
        <time>2024-08-12T06:09:12Z</time>
      </trkpt>
      <trkpt lat="44.79796" lon="6.36634">
        <ele>2095.4</ele>
        <time>2024-08-12T06:09:13Z</time>
      </trkpt>
      <trkpt lat="44.79796" lon="6.36634">
        <ele>2095.6</ele>
        <time>2024-08-12T06:09:14Z</time>
      </trkpt>
      <trkpt lat="44.79796" lon="6.36634">
        <ele>2095.8</ele>
        <time>2024-08-12T06:09:15Z</time>
      </trkpt>
      <trkpt lat="44.79796" lon="6.36634">
        <ele>2095.8</ele>
        <time>2024-08-12T06:09:16Z</time>
      </trkpt>
      <trkpt lat="44.79796" lon="6.36634">
        <ele>2096</ele>
        <time>2024-08-12T06:09:17Z</time>
      </trkpt>
      <trkpt lat="44.79796" lon="6.36634">
        <ele>2096.2</ele>
        <time>2024-08-12T06:09:18Z</time>
      </trkpt>
      <trkpt lat="44.79796" lon="6.36634">
        <ele>2096.2</ele>
        <time>2024-08-12T06:09:19Z</time>
      </trkpt>
      <trkpt lat="44.79796" lon="6.36634">
        <ele>2096</ele>
        <time>2024-08-12T06:09:20Z</time>
      </trkpt>
      <trkpt lat="44.79796" lon="6.36634">
        <ele>2096</ele>
        <time>2024-08-12T06:09:21Z</time>
      </trkpt>
      <trkpt lat="44.79796" lon="6.36634">
        <ele>2096.2</ele>
        <time>2024-08-12T06:09:22Z</time>
      </trkpt>
      <trkpt lat="44.79795" lon="6.36632">
        <ele>2096.2</ele>
        <time>2024-08-12T06:09:23Z</time>
      </trkpt>
      <trkpt lat="44.79795" lon="6.36632">
        <ele>2096</ele>
        <time>2024-08-12T06:09:24Z</time>
      </trkpt>
      <trkpt lat="44.79795" lon="6.36632">
        <ele>2095.8</ele>
        <time>2024-08-12T06:09:25Z</time>
      </trkpt>
      <trkpt lat="44.79794" lon="6.36629">
        <ele>2096</ele>
        <time>2024-08-12T06:09:26Z</time>
      </trkpt>
      <trkpt lat="44.79794" lon="6.36629">
        <ele>2096</ele>
        <time>2024-08-12T06:09:27Z</time>
      </trkpt>
      <trkpt lat="44.79792" lon="6.36626">
        <ele>2096.2</ele>
        <time>2024-08-12T06:09:28Z</time>
      </trkpt>
      <trkpt lat="44.79792" lon="6.36626">
        <ele>2096.4</ele>
        <time>2024-08-12T06:09:29Z</time>
      </trkpt>
      <trkpt lat="44.7979" lon="6.36623">
        <ele>2096.6</ele>
        <time>2024-08-12T06:09:30Z</time>
      </trkpt>
      <trkpt lat="44.7979" lon="6.36623">
        <ele>2096.8</ele>
        <time>2024-08-12T06:09:31Z</time>
      </trkpt>
      <trkpt lat="44.7979" lon="6.36623">
        <ele>2096.8</ele>
        <time>2024-08-12T06:09:32Z</time>
      </trkpt>
      <trkpt lat="44.79788" lon="6.36621">
        <ele>2097</ele>
        <time>2024-08-12T06:09:33Z</time>
      </trkpt>
      <trkpt lat="44.79788" lon="6.36621">
        <ele>2097.4</ele>
        <time>2024-08-12T06:09:34Z</time>
      </trkpt>
      <trkpt lat="44.79788" lon="6.36621">
        <ele>2097.6</ele>
        <time>2024-08-12T06:09:35Z</time>
      </trkpt>
      <trkpt lat="44.79787" lon="6.36619">
        <ele>2097.8</ele>
        <time>2024-08-12T06:09:36Z</time>
      </trkpt>
      <trkpt lat="44.79787" lon="6.36619">
        <ele>2098</ele>
        <time>2024-08-12T06:09:37Z</time>
      </trkpt>
      <trkpt lat="44.79787" lon="6.36619">
        <ele>2098.2</ele>
        <time>2024-08-12T06:09:38Z</time>
      </trkpt>
      <trkpt lat="44.79785" lon="6.36617">
        <ele>2098.4</ele>
        <time>2024-08-12T06:09:39Z</time>
      </trkpt>
      <trkpt lat="44.79785" lon="6.36617">
        <ele>2098.6</ele>
        <time>2024-08-12T06:09:40Z</time>
      </trkpt>
      <trkpt lat="44.79784" lon="6.36614">
        <ele>2099</ele>
        <time>2024-08-12T06:09:41Z</time>
      </trkpt>
      <trkpt lat="44.79784" lon="6.36614">
        <ele>2099</ele>
        <time>2024-08-12T06:09:42Z</time>
      </trkpt>
      <trkpt lat="44.79782" lon="6.36612">
        <ele>2099</ele>
        <time>2024-08-12T06:09:43Z</time>
      </trkpt>
      <trkpt lat="44.79782" lon="6.36612">
        <ele>2099.2</ele>
        <time>2024-08-12T06:09:44Z</time>
      </trkpt>
      <trkpt lat="44.79782" lon="6.36612">
        <ele>2099.4</ele>
        <time>2024-08-12T06:09:45Z</time>
      </trkpt>
      <trkpt lat="44.79781" lon="6.3661">
        <ele>2099.6</ele>
        <time>2024-08-12T06:09:46Z</time>
      </trkpt>
      <trkpt lat="44.79781" lon="6.3661">
        <ele>2099.6</ele>
        <time>2024-08-12T06:09:47Z</time>
      </trkpt>
      <trkpt lat="44.79779" lon="6.36608">
        <ele>2099.8</ele>
        <time>2024-08-12T06:09:48Z</time>
      </trkpt>
      <trkpt lat="44.79779" lon="6.36608">
        <ele>2099.8</ele>
        <time>2024-08-12T06:09:49Z</time>
      </trkpt>
      <trkpt lat="44.79777" lon="6.36606">
        <ele>2099.8</ele>
        <time>2024-08-12T06:09:50Z</time>
      </trkpt>
      <trkpt lat="44.79777" lon="6.36606">
        <ele>2099.8</ele>
        <time>2024-08-12T06:09:51Z</time>
      </trkpt>
      <trkpt lat="44.79775" lon="6.36607">
        <ele>2099.8</ele>
        <time>2024-08-12T06:09:52Z</time>
      </trkpt>
      <trkpt lat="44.79775" lon="6.36607">
        <ele>2100.4</ele>
        <time>2024-08-12T06:09:53Z</time>
      </trkpt>
      <trkpt lat="44.79775" lon="6.36607">
        <ele>2100.4</ele>
        <time>2024-08-12T06:09:54Z</time>
      </trkpt>
      <trkpt lat="44.79772" lon="6.36608">
        <ele>2100.6</ele>
        <time>2024-08-12T06:09:55Z</time>
      </trkpt>
      <trkpt lat="44.79772" lon="6.36608">
        <ele>2100.6</ele>
        <time>2024-08-12T06:09:56Z</time>
      </trkpt>
      <trkpt lat="44.7977" lon="6.36608">
        <ele>2100.6</ele>
        <time>2024-08-12T06:09:57Z</time>
      </trkpt>
      <trkpt lat="44.7977" lon="6.36608">
        <ele>2100.8</ele>
        <time>2024-08-12T06:09:58Z</time>
      </trkpt>
      <trkpt lat="44.79768" lon="6.36608">
        <ele>2101.4</ele>
        <time>2024-08-12T06:09:59Z</time>
      </trkpt>
      <trkpt lat="44.79768" lon="6.36608">
        <ele>2101.6</ele>
        <time>2024-08-12T06:10:00Z</time>
      </trkpt>
      <trkpt lat="44.79768" lon="6.36608">
        <ele>2101.6</ele>
        <time>2024-08-12T06:10:01Z</time>
      </trkpt>
      <trkpt lat="44.79766" lon="6.36609">
        <ele>2101.4</ele>
        <time>2024-08-12T06:10:02Z</time>
      </trkpt>
      <trkpt lat="44.79766" lon="6.36609">
        <ele>2101.6</ele>
        <time>2024-08-12T06:10:03Z</time>
      </trkpt>
      <trkpt lat="44.79766" lon="6.36609">
        <ele>2101.8</ele>
        <time>2024-08-12T06:10:04Z</time>
      </trkpt>
      <trkpt lat="44.79764" lon="6.36609">
        <ele>2102.2</ele>
        <time>2024-08-12T06:10:05Z</time>
      </trkpt>
      <trkpt lat="44.79764" lon="6.36609">
        <ele>2102.4</ele>
        <time>2024-08-12T06:10:06Z</time>
      </trkpt>
      <trkpt lat="44.79762" lon="6.36609">
        <ele>2102.4</ele>
        <time>2024-08-12T06:10:07Z</time>
      </trkpt>
      <trkpt lat="44.79762" lon="6.36609">
        <ele>2102.4</ele>
        <time>2024-08-12T06:10:08Z</time>
      </trkpt>
      <trkpt lat="44.79762" lon="6.36609">
        <ele>2102.2</ele>
        <time>2024-08-12T06:10:09Z</time>
      </trkpt>
      <trkpt lat="44.79759" lon="6.36609">
        <ele>2102.2</ele>
        <time>2024-08-12T06:10:10Z</time>
      </trkpt>
      <trkpt lat="44.79759" lon="6.36609">
        <ele>2102.6</ele>
        <time>2024-08-12T06:10:11Z</time>
      </trkpt>
      <trkpt lat="44.79757" lon="6.36608">
        <ele>2102.6</ele>
        <time>2024-08-12T06:10:12Z</time>
      </trkpt>
      <trkpt lat="44.79757" lon="6.36608">
        <ele>2102.6</ele>
        <time>2024-08-12T06:10:13Z</time>
      </trkpt>
      <trkpt lat="44.79755" lon="6.36605">
        <ele>2102.4</ele>
        <time>2024-08-12T06:10:14Z</time>
      </trkpt>
      <trkpt lat="44.79755" lon="6.36605">
        <ele>2102.4</ele>
        <time>2024-08-12T06:10:15Z</time>
      </trkpt>
      <trkpt lat="44.79753" lon="6.36604">
        <ele>2102.6</ele>
        <time>2024-08-12T06:10:16Z</time>
      </trkpt>
      <trkpt lat="44.79753" lon="6.36604">
        <ele>2103</ele>
        <time>2024-08-12T06:10:17Z</time>
      </trkpt>
      <trkpt lat="44.79751" lon="6.36602">
        <ele>2103</ele>
        <time>2024-08-12T06:10:18Z</time>
      </trkpt>
      <trkpt lat="44.79751" lon="6.36602">
        <ele>2103</ele>
        <time>2024-08-12T06:10:19Z</time>
      </trkpt>
      <trkpt lat="44.79749" lon="6.36601">
        <ele>2103</ele>
        <time>2024-08-12T06:10:20Z</time>
      </trkpt>
      <trkpt lat="44.79749" lon="6.36601">
        <ele>2103</ele>
        <time>2024-08-12T06:10:21Z</time>
      </trkpt>
      <trkpt lat="44.79747" lon="6.366">
        <ele>2103.2</ele>
        <time>2024-08-12T06:10:22Z</time>
      </trkpt>
      <trkpt lat="44.79747" lon="6.366">
        <ele>2103.2</ele>
        <time>2024-08-12T06:10:23Z</time>
      </trkpt>
      <trkpt lat="44.79745" lon="6.36599">
        <ele>2103.4</ele>
        <time>2024-08-12T06:10:24Z</time>
      </trkpt>
      <trkpt lat="44.79745" lon="6.36599">
        <ele>2103.4</ele>
        <time>2024-08-12T06:10:25Z</time>
      </trkpt>
      <trkpt lat="44.79743" lon="6.36598">
        <ele>2103.6</ele>
        <time>2024-08-12T06:10:26Z</time>
      </trkpt>
      <trkpt lat="44.79743" lon="6.36598">
        <ele>2103.8</ele>
        <time>2024-08-12T06:10:27Z</time>
      </trkpt>
      <trkpt lat="44.79741" lon="6.36597">
        <ele>2104</ele>
        <time>2024-08-12T06:10:28Z</time>
      </trkpt>
      <trkpt lat="44.79741" lon="6.36597">
        <ele>2104.6</ele>
        <time>2024-08-12T06:10:29Z</time>
      </trkpt>
      <trkpt lat="44.79739" lon="6.36597">
        <ele>2104.6</ele>
        <time>2024-08-12T06:10:30Z</time>
      </trkpt>
      <trkpt lat="44.79739" lon="6.36597">
        <ele>2104.6</ele>
        <time>2024-08-12T06:10:31Z</time>
      </trkpt>
      <trkpt lat="44.79737" lon="6.36598">
        <ele>2104.6</ele>
        <time>2024-08-12T06:10:32Z</time>
      </trkpt>
      <trkpt lat="44.79737" lon="6.36598">
        <ele>2104.6</ele>
        <time>2024-08-12T06:10:33Z</time>
      </trkpt>
      <trkpt lat="44.79735" lon="6.36599">
        <ele>2104.8</ele>
        <time>2024-08-12T06:10:34Z</time>
      </trkpt>
      <trkpt lat="44.79735" lon="6.36599">
        <ele>2104.8</ele>
        <time>2024-08-12T06:10:35Z</time>
      </trkpt>
      <trkpt lat="44.79733" lon="6.36599">
        <ele>2105.2</ele>
        <time>2024-08-12T06:10:36Z</time>
      </trkpt>
      <trkpt lat="44.79733" lon="6.36599">
        <ele>2105.2</ele>
        <time>2024-08-12T06:10:37Z</time>
      </trkpt>
      <trkpt lat="44.79731" lon="6.366">
        <ele>2105.2</ele>
        <time>2024-08-12T06:10:38Z</time>
      </trkpt>
      <trkpt lat="44.79731" lon="6.366">
        <ele>2105.2</ele>
        <time>2024-08-12T06:10:39Z</time>
      </trkpt>
      <trkpt lat="44.79729" lon="6.36601">
        <ele>2105.4</ele>
        <time>2024-08-12T06:10:40Z</time>
      </trkpt>
      <trkpt lat="44.79729" lon="6.36601">
        <ele>2105.6</ele>
        <time>2024-08-12T06:10:41Z</time>
      </trkpt>
      <trkpt lat="44.79727" lon="6.36602">
        <ele>2105.6</ele>
        <time>2024-08-12T06:10:42Z</time>
      </trkpt>
      <trkpt lat="44.79727" lon="6.36602">
        <ele>2105.6</ele>
        <time>2024-08-12T06:10:43Z</time>
      </trkpt>
      <trkpt lat="44.79727" lon="6.36602">
        <ele>2105.8</ele>
        <time>2024-08-12T06:10:44Z</time>
      </trkpt>
      <trkpt lat="44.79726" lon="6.36605">
        <ele>2105.8</ele>
        <time>2024-08-12T06:10:45Z</time>
      </trkpt>
      <trkpt lat="44.79726" lon="6.36605">
        <ele>2106.2</ele>
        <time>2024-08-12T06:10:46Z</time>
      </trkpt>
      <trkpt lat="44.79726" lon="6.36605">
        <ele>2106.4</ele>
        <time>2024-08-12T06:10:47Z</time>
      </trkpt>
      <trkpt lat="44.79723" lon="6.36606">
        <ele>2106.4</ele>
        <time>2024-08-12T06:10:48Z</time>
      </trkpt>
      <trkpt lat="44.79723" lon="6.36606">
        <ele>2106.4</ele>
        <time>2024-08-12T06:10:49Z</time>
      </trkpt>
      <trkpt lat="44.79723" lon="6.36606">
        <ele>2106.6</ele>
        <time>2024-08-12T06:10:50Z</time>
      </trkpt>
      <trkpt lat="44.79721" lon="6.36608">
        <ele>2106.8</ele>
        <time>2024-08-12T06:10:51Z</time>
      </trkpt>
      <trkpt lat="44.79721" lon="6.36608">
        <ele>2107.4</ele>
        <time>2024-08-12T06:10:52Z</time>
      </trkpt>
      <trkpt lat="44.79719" lon="6.36607">
        <ele>2107.4</ele>
        <time>2024-08-12T06:10:53Z</time>
      </trkpt>
      <trkpt lat="44.79719" lon="6.36607">
        <ele>2107.6</ele>
        <time>2024-08-12T06:10:54Z</time>
      </trkpt>
      <trkpt lat="44.79717" lon="6.36606">
        <ele>2107.6</ele>
        <time>2024-08-12T06:10:55Z</time>
      </trkpt>
      <trkpt lat="44.79717" lon="6.36606">
        <ele>2107.8</ele>
        <time>2024-08-12T06:10:56Z</time>
      </trkpt>
      <trkpt lat="44.79714" lon="6.36606">
        <ele>2108</ele>
        <time>2024-08-12T06:10:57Z</time>
      </trkpt>
      <trkpt lat="44.79714" lon="6.36606">
        <ele>2108</ele>
        <time>2024-08-12T06:10:58Z</time>
      </trkpt>
      <trkpt lat="44.79714" lon="6.36606">
        <ele>2108.2</ele>
        <time>2024-08-12T06:10:59Z</time>
      </trkpt>
      <trkpt lat="44.79712" lon="6.36605">
        <ele>2108.2</ele>
        <time>2024-08-12T06:11:00Z</time>
      </trkpt>
      <trkpt lat="44.79712" lon="6.36605">
        <ele>2108.2</ele>
        <time>2024-08-12T06:11:01Z</time>
      </trkpt>
      <trkpt lat="44.79711" lon="6.36603">
        <ele>2108.6</ele>
        <time>2024-08-12T06:11:02Z</time>
      </trkpt>
      <trkpt lat="44.79711" lon="6.36603">
        <ele>2108.6</ele>
        <time>2024-08-12T06:11:03Z</time>
      </trkpt>
      <trkpt lat="44.79709" lon="6.36601">
        <ele>2108.6</ele>
        <time>2024-08-12T06:11:04Z</time>
      </trkpt>
      <trkpt lat="44.79709" lon="6.36601">
        <ele>2108.6</ele>
        <time>2024-08-12T06:11:05Z</time>
      </trkpt>
      <trkpt lat="44.79709" lon="6.36601">
        <ele>2108.8</ele>
        <time>2024-08-12T06:11:06Z</time>
      </trkpt>
      <trkpt lat="44.79707" lon="6.366">
        <ele>2109.2</ele>
        <time>2024-08-12T06:11:07Z</time>
      </trkpt>
      <trkpt lat="44.79707" lon="6.366">
        <ele>2109.6</ele>
        <time>2024-08-12T06:11:08Z</time>
      </trkpt>
      <trkpt lat="44.79705" lon="6.36601">
        <ele>2109.6</ele>
        <time>2024-08-12T06:11:09Z</time>
      </trkpt>
      <trkpt lat="44.79705" lon="6.36601">
        <ele>2110</ele>
        <time>2024-08-12T06:11:10Z</time>
      </trkpt>
      <trkpt lat="44.79705" lon="6.36601">
        <ele>2110</ele>
        <time>2024-08-12T06:11:11Z</time>
      </trkpt>
      <trkpt lat="44.79703" lon="6.36601">
        <ele>2110</ele>
        <time>2024-08-12T06:11:12Z</time>
      </trkpt>
      <trkpt lat="44.79703" lon="6.36601">
        <ele>2110.2</ele>
        <time>2024-08-12T06:11:13Z</time>
      </trkpt>
      <trkpt lat="44.79701" lon="6.366">
        <ele>2110.2</ele>
        <time>2024-08-12T06:11:14Z</time>
      </trkpt>
      <trkpt lat="44.79701" lon="6.366">
        <ele>2110</ele>
        <time>2024-08-12T06:11:15Z</time>
      </trkpt>
      <trkpt lat="44.79699" lon="6.366">
        <ele>2110</ele>
        <time>2024-08-12T06:11:16Z</time>
      </trkpt>
      <trkpt lat="44.79699" lon="6.366">
        <ele>2110.2</ele>
        <time>2024-08-12T06:11:17Z</time>
      </trkpt>
      <trkpt lat="44.79697" lon="6.36598">
        <ele>2110.2</ele>
        <time>2024-08-12T06:11:18Z</time>
      </trkpt>
      <trkpt lat="44.79697" lon="6.36598">
        <ele>2110.2</ele>
        <time>2024-08-12T06:11:19Z</time>
      </trkpt>
      <trkpt lat="44.79695" lon="6.36597">
        <ele>2110.2</ele>
        <time>2024-08-12T06:11:20Z</time>
      </trkpt>
      <trkpt lat="44.79695" lon="6.36597">
        <ele>2110.4</ele>
        <time>2024-08-12T06:11:21Z</time>
      </trkpt>
      <trkpt lat="44.79693" lon="6.36596">
        <ele>2110.4</ele>
        <time>2024-08-12T06:11:22Z</time>
      </trkpt>
      <trkpt lat="44.79693" lon="6.36596">
        <ele>2110.4</ele>
        <time>2024-08-12T06:11:23Z</time>
      </trkpt>
      <trkpt lat="44.79691" lon="6.36594">
        <ele>2110.4</ele>
        <time>2024-08-12T06:11:24Z</time>
      </trkpt>
      <trkpt lat="44.79691" lon="6.36594">
        <ele>2110.2</ele>
        <time>2024-08-12T06:11:25Z</time>
      </trkpt>
      <trkpt lat="44.7969" lon="6.36592">
        <ele>2110.2</ele>
        <time>2024-08-12T06:11:26Z</time>
      </trkpt>
      <trkpt lat="44.7969" lon="6.36592">
        <ele>2110.4</ele>
        <time>2024-08-12T06:11:27Z</time>
      </trkpt>
      <trkpt lat="44.79688" lon="6.3659">
        <ele>2110.6</ele>
        <time>2024-08-12T06:11:28Z</time>
      </trkpt>
      <trkpt lat="44.79688" lon="6.3659">
        <ele>2110.2</ele>
        <time>2024-08-12T06:11:29Z</time>
      </trkpt>
      <trkpt lat="44.79687" lon="6.36588">
        <ele>2110.2</ele>
        <time>2024-08-12T06:11:30Z</time>
      </trkpt>
      <trkpt lat="44.79687" lon="6.36588">
        <ele>2110.4</ele>
        <time>2024-08-12T06:11:31Z</time>
      </trkpt>
      <trkpt lat="44.79685" lon="6.36586">
        <ele>2110.6</ele>
        <time>2024-08-12T06:11:32Z</time>
      </trkpt>
      <trkpt lat="44.79685" lon="6.36586">
        <ele>2110.6</ele>
        <time>2024-08-12T06:11:33Z</time>
      </trkpt>
      <trkpt lat="44.79682" lon="6.36584">
        <ele>2110.6</ele>
        <time>2024-08-12T06:11:34Z</time>
      </trkpt>
      <trkpt lat="44.79682" lon="6.36584">
        <ele>2110.6</ele>
        <time>2024-08-12T06:11:35Z</time>
      </trkpt>
      <trkpt lat="44.7968" lon="6.36582">
        <ele>2111</ele>
        <time>2024-08-12T06:11:36Z</time>
      </trkpt>
      <trkpt lat="44.7968" lon="6.36582">
        <ele>2111</ele>
        <time>2024-08-12T06:11:37Z</time>
      </trkpt>
      <trkpt lat="44.79678" lon="6.36581">
        <ele>2110.8</ele>
        <time>2024-08-12T06:11:38Z</time>
      </trkpt>
      <trkpt lat="44.79678" lon="6.36581">
        <ele>2110.8</ele>
        <time>2024-08-12T06:11:39Z</time>
      </trkpt>
      <trkpt lat="44.79677" lon="6.36579">
        <ele>2110.8</ele>
        <time>2024-08-12T06:11:40Z</time>
      </trkpt>
      <trkpt lat="44.79677" lon="6.36579">
        <ele>2111</ele>
        <time>2024-08-12T06:11:41Z</time>
      </trkpt>
      <trkpt lat="44.79675" lon="6.36576">
        <ele>2111.2</ele>
        <time>2024-08-12T06:11:42Z</time>
      </trkpt>
      <trkpt lat="44.79675" lon="6.36576">
        <ele>2111.2</ele>
        <time>2024-08-12T06:11:43Z</time>
      </trkpt>
      <trkpt lat="44.79673" lon="6.36574">
        <ele>2111.4</ele>
        <time>2024-08-12T06:11:44Z</time>
      </trkpt>
      <trkpt lat="44.79673" lon="6.36574">
        <ele>2111.4</ele>
        <time>2024-08-12T06:11:45Z</time>
      </trkpt>
      <trkpt lat="44.79671" lon="6.36571">
        <ele>2111.8</ele>
        <time>2024-08-12T06:11:46Z</time>
      </trkpt>
      <trkpt lat="44.79671" lon="6.36571">
        <ele>2111.8</ele>
        <time>2024-08-12T06:11:47Z</time>
      </trkpt>
      <trkpt lat="44.79669" lon="6.36569">
        <ele>2111.8</ele>
        <time>2024-08-12T06:11:48Z</time>
      </trkpt>
      <trkpt lat="44.79669" lon="6.36569">
        <ele>2112</ele>
        <time>2024-08-12T06:11:49Z</time>
      </trkpt>
      <trkpt lat="44.79667" lon="6.36568">
        <ele>2112.2</ele>
        <time>2024-08-12T06:11:50Z</time>
      </trkpt>
      <trkpt lat="44.79667" lon="6.36568">
        <ele>2112.2</ele>
        <time>2024-08-12T06:11:51Z</time>
      </trkpt>
      <trkpt lat="44.79665" lon="6.36567">
        <ele>2112.4</ele>
        <time>2024-08-12T06:11:52Z</time>
      </trkpt>
      <trkpt lat="44.79665" lon="6.36567">
        <ele>2112.6</ele>
        <time>2024-08-12T06:11:53Z</time>
      </trkpt>
      <trkpt lat="44.79663" lon="6.36565">
        <ele>2112.8</ele>
        <time>2024-08-12T06:11:54Z</time>
      </trkpt>
      <trkpt lat="44.79663" lon="6.36565">
        <ele>2112.8</ele>
        <time>2024-08-12T06:11:55Z</time>
      </trkpt>
      <trkpt lat="44.79661" lon="6.36564">
        <ele>2113</ele>
        <time>2024-08-12T06:11:56Z</time>
      </trkpt>
      <trkpt lat="44.79661" lon="6.36564">
        <ele>2113.2</ele>
        <time>2024-08-12T06:11:57Z</time>
      </trkpt>
      <trkpt lat="44.79659" lon="6.36562">
        <ele>2113.2</ele>
        <time>2024-08-12T06:11:58Z</time>
      </trkpt>
      <trkpt lat="44.79659" lon="6.36562">
        <ele>2113.6</ele>
        <time>2024-08-12T06:11:59Z</time>
      </trkpt>
      <trkpt lat="44.79657" lon="6.3656">
        <ele>2113.6</ele>
        <time>2024-08-12T06:12:00Z</time>
      </trkpt>
      <trkpt lat="44.79657" lon="6.3656">
        <ele>2113.6</ele>
        <time>2024-08-12T06:12:01Z</time>
      </trkpt>
      <trkpt lat="44.79655" lon="6.36558">
        <ele>2114</ele>
        <time>2024-08-12T06:12:02Z</time>
      </trkpt>
      <trkpt lat="44.79655" lon="6.36558">
        <ele>2114</ele>
        <time>2024-08-12T06:12:03Z</time>
      </trkpt>
      <trkpt lat="44.79654" lon="6.36557">
        <ele>2113.8</ele>
        <time>2024-08-12T06:12:04Z</time>
      </trkpt>
      <trkpt lat="44.79654" lon="6.36557">
        <ele>2113.8</ele>
        <time>2024-08-12T06:12:05Z</time>
      </trkpt>
      <trkpt lat="44.79652" lon="6.36555">
        <ele>2113.8</ele>
        <time>2024-08-12T06:12:06Z</time>
      </trkpt>
      <trkpt lat="44.79652" lon="6.36555">
        <ele>2114</ele>
        <time>2024-08-12T06:12:07Z</time>
      </trkpt>
      <trkpt lat="44.7965" lon="6.36553">
        <ele>2114</ele>
        <time>2024-08-12T06:12:08Z</time>
      </trkpt>
      <trkpt lat="44.7965" lon="6.36553">
        <ele>2114</ele>
        <time>2024-08-12T06:12:09Z</time>
      </trkpt>
      <trkpt lat="44.79648" lon="6.36551">
        <ele>2114</ele>
        <time>2024-08-12T06:12:10Z</time>
      </trkpt>
      <trkpt lat="44.79648" lon="6.36551">
        <ele>2114</ele>
        <time>2024-08-12T06:12:11Z</time>
      </trkpt>
      <trkpt lat="44.79646" lon="6.36549">
        <ele>2114.4</ele>
        <time>2024-08-12T06:12:12Z</time>
      </trkpt>
      <trkpt lat="44.79646" lon="6.36549">
        <ele>2114.4</ele>
        <time>2024-08-12T06:12:13Z</time>
      </trkpt>
      <trkpt lat="44.79644" lon="6.36548">
        <ele>2114.6</ele>
        <time>2024-08-12T06:12:14Z</time>
      </trkpt>
      <trkpt lat="44.79644" lon="6.36548">
        <ele>2114.6</ele>
        <time>2024-08-12T06:12:15Z</time>
      </trkpt>
      <trkpt lat="44.79641" lon="6.36546">
        <ele>2114.6</ele>
        <time>2024-08-12T06:12:16Z</time>
      </trkpt>
      <trkpt lat="44.79641" lon="6.36546">
        <ele>2114.6</ele>
        <time>2024-08-12T06:12:17Z</time>
      </trkpt>
      <trkpt lat="44.79639" lon="6.36545">
        <ele>2114.6</ele>
        <time>2024-08-12T06:12:18Z</time>
      </trkpt>
      <trkpt lat="44.79639" lon="6.36545">
        <ele>2114.6</ele>
        <time>2024-08-12T06:12:19Z</time>
      </trkpt>
      <trkpt lat="44.79637" lon="6.36544">
        <ele>2115</ele>
        <time>2024-08-12T06:12:20Z</time>
      </trkpt>
      <trkpt lat="44.79637" lon="6.36544">
        <ele>2115</ele>
        <time>2024-08-12T06:12:21Z</time>
      </trkpt>
      <trkpt lat="44.79635" lon="6.36543">
        <ele>2115</ele>
        <time>2024-08-12T06:12:22Z</time>
      </trkpt>
      <trkpt lat="44.79635" lon="6.36543">
        <ele>2115</ele>
        <time>2024-08-12T06:12:23Z</time>
      </trkpt>
      <trkpt lat="44.79633" lon="6.36541">
        <ele>2115.4</ele>
        <time>2024-08-12T06:12:24Z</time>
      </trkpt>
      <trkpt lat="44.79633" lon="6.36541">
        <ele>2115.4</ele>
        <time>2024-08-12T06:12:25Z</time>
      </trkpt>
      <trkpt lat="44.79631" lon="6.36542">
        <ele>2115.4</ele>
        <time>2024-08-12T06:12:26Z</time>
      </trkpt>
      <trkpt lat="44.79631" lon="6.36542">
        <ele>2115.4</ele>
        <time>2024-08-12T06:12:27Z</time>
      </trkpt>
      <trkpt lat="44.79629" lon="6.36541">
        <ele>2115.2</ele>
        <time>2024-08-12T06:12:28Z</time>
      </trkpt>
      <trkpt lat="44.79629" lon="6.36541">
        <ele>2115.2</ele>
        <time>2024-08-12T06:12:29Z</time>
      </trkpt>
      <trkpt lat="44.79627" lon="6.3654">
        <ele>2115.2</ele>
        <time>2024-08-12T06:12:30Z</time>
      </trkpt>
      <trkpt lat="44.79627" lon="6.3654">
        <ele>2115.4</ele>
        <time>2024-08-12T06:12:31Z</time>
      </trkpt>
      <trkpt lat="44.79625" lon="6.36538">
        <ele>2115.6</ele>
        <time>2024-08-12T06:12:32Z</time>
      </trkpt>
      <trkpt lat="44.79625" lon="6.36538">
        <ele>2115.6</ele>
        <time>2024-08-12T06:12:33Z</time>
      </trkpt>
      <trkpt lat="44.79625" lon="6.36538">
        <ele>2115.8</ele>
        <time>2024-08-12T06:12:34Z</time>
      </trkpt>
      <trkpt lat="44.79623" lon="6.36539">
        <ele>2116</ele>
        <time>2024-08-12T06:12:35Z</time>
      </trkpt>
      <trkpt lat="44.79623" lon="6.36539">
        <ele>2116.4</ele>
        <time>2024-08-12T06:12:36Z</time>
      </trkpt>
      <trkpt lat="44.79621" lon="6.3654">
        <ele>2116.4</ele>
        <time>2024-08-12T06:12:37Z</time>
      </trkpt>
      <trkpt lat="44.79621" lon="6.3654">
        <ele>2116.6</ele>
        <time>2024-08-12T06:12:38Z</time>
      </trkpt>
      <trkpt lat="44.79621" lon="6.3654">
        <ele>2116.6</ele>
        <time>2024-08-12T06:12:39Z</time>
      </trkpt>
      <trkpt lat="44.79621" lon="6.3654">
        <ele>2116.8</ele>
        <time>2024-08-12T06:12:40Z</time>
      </trkpt>
      <trkpt lat="44.79619" lon="6.36541">
        <ele>2117</ele>
        <time>2024-08-12T06:12:41Z</time>
      </trkpt>
      <trkpt lat="44.79619" lon="6.36541">
        <ele>2117</ele>
        <time>2024-08-12T06:12:42Z</time>
      </trkpt>
      <trkpt lat="44.79619" lon="6.36541">
        <ele>2117</ele>
        <time>2024-08-12T06:12:43Z</time>
      </trkpt>
      <trkpt lat="44.79617" lon="6.36541">
        <ele>2117</ele>
        <time>2024-08-12T06:12:44Z</time>
      </trkpt>
      <trkpt lat="44.79617" lon="6.36541">
        <ele>2117.2</ele>
        <time>2024-08-12T06:12:45Z</time>
      </trkpt>
      <trkpt lat="44.79615" lon="6.36541">
        <ele>2117.4</ele>
        <time>2024-08-12T06:12:46Z</time>
      </trkpt>
      <trkpt lat="44.79615" lon="6.36541">
        <ele>2117.4</ele>
        <time>2024-08-12T06:12:47Z</time>
      </trkpt>
      <trkpt lat="44.79613" lon="6.36539">
        <ele>2117.6</ele>
        <time>2024-08-12T06:12:48Z</time>
      </trkpt>
      <trkpt lat="44.79613" lon="6.36539">
        <ele>2117.6</ele>
        <time>2024-08-12T06:12:49Z</time>
      </trkpt>
      <trkpt lat="44.79611" lon="6.36539">
        <ele>2117.6</ele>
        <time>2024-08-12T06:12:50Z</time>
      </trkpt>
      <trkpt lat="44.79611" lon="6.36539">
        <ele>2117.6</ele>
        <time>2024-08-12T06:12:51Z</time>
      </trkpt>
      <trkpt lat="44.79611" lon="6.36539">
        <ele>2117.4</ele>
        <time>2024-08-12T06:12:52Z</time>
      </trkpt>
      <trkpt lat="44.79609" lon="6.36538">
        <ele>2117.4</ele>
        <time>2024-08-12T06:12:53Z</time>
      </trkpt>
      <trkpt lat="44.79609" lon="6.36538">
        <ele>2117.6</ele>
        <time>2024-08-12T06:12:54Z</time>
      </trkpt>
      <trkpt lat="44.79609" lon="6.36538">
        <ele>2117.8</ele>
        <time>2024-08-12T06:12:55Z</time>
      </trkpt>
      <trkpt lat="44.79607" lon="6.36537">
        <ele>2118</ele>
        <time>2024-08-12T06:12:56Z</time>
      </trkpt>
      <trkpt lat="44.79607" lon="6.36537">
        <ele>2118</ele>
        <time>2024-08-12T06:12:57Z</time>
      </trkpt>
      <trkpt lat="44.79607" lon="6.36537">
        <ele>2118</ele>
        <time>2024-08-12T06:12:58Z</time>
      </trkpt>
      <trkpt lat="44.79607" lon="6.36537">
        <ele>2118</ele>
        <time>2024-08-12T06:12:59Z</time>
      </trkpt>
      <trkpt lat="44.79607" lon="6.36537">
        <ele>2118</ele>
        <time>2024-08-12T06:13:00Z</time>
      </trkpt>
      <trkpt lat="44.79607" lon="6.36537">
        <ele>2118</ele>
        <time>2024-08-12T06:13:01Z</time>
      </trkpt>
      <trkpt lat="44.79607" lon="6.36537">
        <ele>2118.4</ele>
        <time>2024-08-12T06:13:02Z</time>
      </trkpt>
      <trkpt lat="44.79607" lon="6.36537">
        <ele>2118.4</ele>
        <time>2024-08-12T06:13:03Z</time>
      </trkpt>
      <trkpt lat="44.79607" lon="6.36537">
        <ele>2118.2</ele>
        <time>2024-08-12T06:13:04Z</time>
      </trkpt>
      <trkpt lat="44.79607" lon="6.36537">
        <ele>2118.4</ele>
        <time>2024-08-12T06:13:05Z</time>
      </trkpt>
      <trkpt lat="44.79607" lon="6.36537">
        <ele>2118.4</ele>
        <time>2024-08-12T06:13:06Z</time>
      </trkpt>
      <trkpt lat="44.79607" lon="6.36537">
        <ele>2118.4</ele>
        <time>2024-08-12T06:13:07Z</time>
      </trkpt>
      <trkpt lat="44.79607" lon="6.36537">
        <ele>2118.4</ele>
        <time>2024-08-12T06:13:08Z</time>
      </trkpt>
      <trkpt lat="44.79607" lon="6.36537">
        <ele>2118.4</ele>
        <time>2024-08-12T06:13:09Z</time>
      </trkpt>
      <trkpt lat="44.79607" lon="6.36537">
        <ele>2118.2</ele>
        <time>2024-08-12T06:13:10Z</time>
      </trkpt>
      <trkpt lat="44.79607" lon="6.36537">
        <ele>2118.2</ele>
        <time>2024-08-12T06:13:11Z</time>
      </trkpt>
      <trkpt lat="44.79607" lon="6.36537">
        <ele>2118.2</ele>
        <time>2024-08-12T06:13:12Z</time>
      </trkpt>
      <trkpt lat="44.79607" lon="6.36537">
        <ele>2118.2</ele>
        <time>2024-08-12T06:13:13Z</time>
      </trkpt>
      <trkpt lat="44.79607" lon="6.36537">
        <ele>2118.2</ele>
        <time>2024-08-12T06:13:14Z</time>
      </trkpt>
      <trkpt lat="44.79607" lon="6.36537">
        <ele>2118.2</ele>
        <time>2024-08-12T06:13:15Z</time>
      </trkpt>
      <trkpt lat="44.79607" lon="6.36537">
        <ele>2118.2</ele>
        <time>2024-08-12T06:13:16Z</time>
      </trkpt>
      <trkpt lat="44.79607" lon="6.36537">
        <ele>2118.4</ele>
        <time>2024-08-12T06:13:17Z</time>
      </trkpt>
      <trkpt lat="44.79607" lon="6.36537">
        <ele>2118.4</ele>
        <time>2024-08-12T06:13:18Z</time>
      </trkpt>
      <trkpt lat="44.79607" lon="6.36537">
        <ele>2118.4</ele>
        <time>2024-08-12T06:13:19Z</time>
      </trkpt>
      <trkpt lat="44.79607" lon="6.36537">
        <ele>2118.4</ele>
        <time>2024-08-12T06:13:20Z</time>
      </trkpt>
      <trkpt lat="44.79607" lon="6.36537">
        <ele>2118.4</ele>
        <time>2024-08-12T06:13:21Z</time>
      </trkpt>
      <trkpt lat="44.79607" lon="6.36537">
        <ele>2118.2</ele>
        <time>2024-08-12T06:13:22Z</time>
      </trkpt>
      <trkpt lat="44.79607" lon="6.36537">
        <ele>2118.2</ele>
        <time>2024-08-12T06:13:23Z</time>
      </trkpt>
      <trkpt lat="44.79607" lon="6.36537">
        <ele>2118.2</ele>
        <time>2024-08-12T06:13:24Z</time>
      </trkpt>
      <trkpt lat="44.79607" lon="6.36537">
        <ele>2118.4</ele>
        <time>2024-08-12T06:13:25Z</time>
      </trkpt>
      <trkpt lat="44.79607" lon="6.36537">
        <ele>2118.2</ele>
        <time>2024-08-12T06:13:26Z</time>
      </trkpt>
      <trkpt lat="44.79607" lon="6.36537">
        <ele>2118.4</ele>
        <time>2024-08-12T06:13:27Z</time>
      </trkpt>
      <trkpt lat="44.79607" lon="6.36537">
        <ele>2118.4</ele>
        <time>2024-08-12T06:13:28Z</time>
      </trkpt>
      <trkpt lat="44.79607" lon="6.36537">
        <ele>2118.6</ele>
        <time>2024-08-12T06:13:29Z</time>
      </trkpt>
      <trkpt lat="44.79607" lon="6.36537">
        <ele>2118.6</ele>
        <time>2024-08-12T06:13:30Z</time>
      </trkpt>
      <trkpt lat="44.79607" lon="6.36537">
        <ele>2118.6</ele>
        <time>2024-08-12T06:13:31Z</time>
      </trkpt>
      <trkpt lat="44.79607" lon="6.36537">
        <ele>2118.8</ele>
        <time>2024-08-12T06:13:32Z</time>
      </trkpt>
      <trkpt lat="44.79607" lon="6.36537">
        <ele>2119</ele>
        <time>2024-08-12T06:13:33Z</time>
      </trkpt>
      <trkpt lat="44.79607" lon="6.36537">
        <ele>2119</ele>
        <time>2024-08-12T06:13:34Z</time>
      </trkpt>
      <trkpt lat="44.79607" lon="6.36537">
        <ele>2118.8</ele>
        <time>2024-08-12T06:13:35Z</time>
      </trkpt>
      <trkpt lat="44.79607" lon="6.36537">
        <ele>2118.8</ele>
        <time>2024-08-12T06:13:36Z</time>
      </trkpt>
      <trkpt lat="44.79607" lon="6.36537">
        <ele>2118.8</ele>
        <time>2024-08-12T06:13:37Z</time>
      </trkpt>
      <trkpt lat="44.79607" lon="6.36537">
        <ele>2119</ele>
        <time>2024-08-12T06:13:38Z</time>
      </trkpt>
      <trkpt lat="44.79607" lon="6.36537">
        <ele>2119</ele>
        <time>2024-08-12T06:13:39Z</time>
      </trkpt>
      <trkpt lat="44.79607" lon="6.36537">
        <ele>2119</ele>
        <time>2024-08-12T06:13:40Z</time>
      </trkpt>
      <trkpt lat="44.79607" lon="6.36537">
        <ele>2119</ele>
        <time>2024-08-12T06:13:41Z</time>
      </trkpt>
      <trkpt lat="44.79607" lon="6.36537">
        <ele>2119</ele>
        <time>2024-08-12T06:13:42Z</time>
      </trkpt>
      <trkpt lat="44.79607" lon="6.36537">
        <ele>2119</ele>
        <time>2024-08-12T06:13:43Z</time>
      </trkpt>
      <trkpt lat="44.79607" lon="6.36537">
        <ele>2119</ele>
        <time>2024-08-12T06:13:44Z</time>
      </trkpt>
      <trkpt lat="44.79607" lon="6.36537">
        <ele>2119.2</ele>
        <time>2024-08-12T06:13:45Z</time>
      </trkpt>
      <trkpt lat="44.79607" lon="6.36537">
        <ele>2119.2</ele>
        <time>2024-08-12T06:13:46Z</time>
      </trkpt>
      <trkpt lat="44.79607" lon="6.36537">
        <ele>2119.2</ele>
        <time>2024-08-12T06:13:47Z</time>
      </trkpt>
      <trkpt lat="44.79607" lon="6.36537">
        <ele>2119.2</ele>
        <time>2024-08-12T06:13:48Z</time>
      </trkpt>
      <trkpt lat="44.79607" lon="6.36537">
        <ele>2119.2</ele>
        <time>2024-08-12T06:13:49Z</time>
      </trkpt>
      <trkpt lat="44.79607" lon="6.36537">
        <ele>2119.2</ele>
        <time>2024-08-12T06:13:50Z</time>
      </trkpt>
      <trkpt lat="44.79607" lon="6.36537">
        <ele>2118.8</ele>
        <time>2024-08-12T06:13:51Z</time>
      </trkpt>
      <trkpt lat="44.79607" lon="6.36537">
        <ele>2118.6</ele>
        <time>2024-08-12T06:13:52Z</time>
      </trkpt>
      <trkpt lat="44.79607" lon="6.36537">
        <ele>2118.4</ele>
        <time>2024-08-12T06:13:53Z</time>
      </trkpt>
      <trkpt lat="44.79607" lon="6.36537">
        <ele>2118.2</ele>
        <time>2024-08-12T06:13:54Z</time>
      </trkpt>
      <trkpt lat="44.79607" lon="6.36537">
        <ele>2118.2</ele>
        <time>2024-08-12T06:13:55Z</time>
      </trkpt>
      <trkpt lat="44.79607" lon="6.36537">
        <ele>2118.4</ele>
        <time>2024-08-12T06:13:56Z</time>
      </trkpt>
      <trkpt lat="44.79607" lon="6.36537">
        <ele>2118.4</ele>
        <time>2024-08-12T06:13:57Z</time>
      </trkpt>
      <trkpt lat="44.79607" lon="6.36537">
        <ele>2118.6</ele>
        <time>2024-08-12T06:13:58Z</time>
      </trkpt>
      <trkpt lat="44.79607" lon="6.36537">
        <ele>2118.6</ele>
        <time>2024-08-12T06:13:59Z</time>
      </trkpt>
      <trkpt lat="44.79607" lon="6.36537">
        <ele>2118.8</ele>
        <time>2024-08-12T06:14:00Z</time>
      </trkpt>
      <trkpt lat="44.79607" lon="6.36537">
        <ele>2118.6</ele>
        <time>2024-08-12T06:14:01Z</time>
      </trkpt>
      <trkpt lat="44.79607" lon="6.36537">
        <ele>2118.6</ele>
        <time>2024-08-12T06:14:02Z</time>
      </trkpt>
      <trkpt lat="44.79607" lon="6.36537">
        <ele>2118.6</ele>
        <time>2024-08-12T06:14:03Z</time>
      </trkpt>
      <trkpt lat="44.79607" lon="6.36537">
        <ele>2118.6</ele>
        <time>2024-08-12T06:14:04Z</time>
      </trkpt>
      <trkpt lat="44.79607" lon="6.36537">
        <ele>2118.8</ele>
        <time>2024-08-12T06:14:05Z</time>
      </trkpt>
      <trkpt lat="44.79607" lon="6.36537">
        <ele>2118.8</ele>
        <time>2024-08-12T06:14:06Z</time>
      </trkpt>
      <trkpt lat="44.79607" lon="6.36537">
        <ele>2118.8</ele>
        <time>2024-08-12T06:14:07Z</time>
      </trkpt>
      <trkpt lat="44.79607" lon="6.36537">
        <ele>2118.6</ele>
        <time>2024-08-12T06:14:08Z</time>
      </trkpt>
      <trkpt lat="44.79607" lon="6.36537">
        <ele>2118.6</ele>
        <time>2024-08-12T06:14:09Z</time>
      </trkpt>
      <trkpt lat="44.79607" lon="6.36537">
        <ele>2118.6</ele>
        <time>2024-08-12T06:14:10Z</time>
      </trkpt>
      <trkpt lat="44.79607" lon="6.36537">
        <ele>2118.6</ele>
        <time>2024-08-12T06:14:11Z</time>
      </trkpt>
      <trkpt lat="44.79607" lon="6.36537">
        <ele>2118.6</ele>
        <time>2024-08-12T06:14:12Z</time>
      </trkpt>
      <trkpt lat="44.79607" lon="6.36537">
        <ele>2118.6</ele>
        <time>2024-08-12T06:14:13Z</time>
      </trkpt>
      <trkpt lat="44.79607" lon="6.36537">
        <ele>2118.6</ele>
        <time>2024-08-12T06:14:14Z</time>
      </trkpt>
      <trkpt lat="44.79607" lon="6.36537">
        <ele>2118.6</ele>
        <time>2024-08-12T06:14:15Z</time>
      </trkpt>
      <trkpt lat="44.79607" lon="6.36537">
        <ele>2118.6</ele>
        <time>2024-08-12T06:14:16Z</time>
      </trkpt>
      <trkpt lat="44.79607" lon="6.36537">
        <ele>2118.6</ele>
        <time>2024-08-12T06:14:17Z</time>
      </trkpt>
      <trkpt lat="44.79607" lon="6.36537">
        <ele>2118.6</ele>
        <time>2024-08-12T06:14:18Z</time>
      </trkpt>
      <trkpt lat="44.79607" lon="6.36537">
        <ele>2118.6</ele>
        <time>2024-08-12T06:14:19Z</time>
      </trkpt>
      <trkpt lat="44.79607" lon="6.36537">
        <ele>2118.6</ele>
        <time>2024-08-12T06:14:20Z</time>
      </trkpt>
      <trkpt lat="44.79607" lon="6.36537">
        <ele>2118.6</ele>
        <time>2024-08-12T06:14:21Z</time>
      </trkpt>
      <trkpt lat="44.79607" lon="6.36537">
        <ele>2118.6</ele>
        <time>2024-08-12T06:14:22Z</time>
      </trkpt>
      <trkpt lat="44.79607" lon="6.36537">
        <ele>2118.6</ele>
        <time>2024-08-12T06:14:23Z</time>
      </trkpt>
      <trkpt lat="44.79607" lon="6.36537">
        <ele>2119</ele>
        <time>2024-08-12T06:14:24Z</time>
      </trkpt>
      <trkpt lat="44.79607" lon="6.36537">
        <ele>2119</ele>
        <time>2024-08-12T06:14:25Z</time>
      </trkpt>
      <trkpt lat="44.79607" lon="6.36537">
        <ele>2119</ele>
        <time>2024-08-12T06:14:26Z</time>
      </trkpt>
      <trkpt lat="44.79607" lon="6.36537">
        <ele>2118.8</ele>
        <time>2024-08-12T06:14:27Z</time>
      </trkpt>
      <trkpt lat="44.79607" lon="6.36537">
        <ele>2118.6</ele>
        <time>2024-08-12T06:14:28Z</time>
      </trkpt>
      <trkpt lat="44.79607" lon="6.36537">
        <ele>2118.6</ele>
        <time>2024-08-12T06:14:29Z</time>
      </trkpt>
      <trkpt lat="44.79607" lon="6.36537">
        <ele>2118.8</ele>
        <time>2024-08-12T06:14:30Z</time>
      </trkpt>
      <trkpt lat="44.79607" lon="6.36537">
        <ele>2118.8</ele>
        <time>2024-08-12T06:14:31Z</time>
      </trkpt>
      <trkpt lat="44.79607" lon="6.36537">
        <ele>2118.6</ele>
        <time>2024-08-12T06:14:32Z</time>
      </trkpt>
      <trkpt lat="44.79607" lon="6.36537">
        <ele>2118.4</ele>
        <time>2024-08-12T06:14:33Z</time>
      </trkpt>
      <trkpt lat="44.79607" lon="6.36537">
        <ele>2118.4</ele>
        <time>2024-08-12T06:14:34Z</time>
      </trkpt>
      <trkpt lat="44.79607" lon="6.36537">
        <ele>2118.4</ele>
        <time>2024-08-12T06:14:35Z</time>
      </trkpt>
      <trkpt lat="44.79607" lon="6.36537">
        <ele>2118.6</ele>
        <time>2024-08-12T06:14:36Z</time>
      </trkpt>
      <trkpt lat="44.79607" lon="6.36537">
        <ele>2118.6</ele>
        <time>2024-08-12T06:14:37Z</time>
      </trkpt>
      <trkpt lat="44.79607" lon="6.36537">
        <ele>2118.4</ele>
        <time>2024-08-12T06:14:38Z</time>
      </trkpt>
      <trkpt lat="44.79604" lon="6.36535">
        <ele>2118.4</ele>
        <time>2024-08-12T06:14:39Z</time>
      </trkpt>
      <trkpt lat="44.79604" lon="6.36535">
        <ele>2118.4</ele>
        <time>2024-08-12T06:14:40Z</time>
      </trkpt>
      <trkpt lat="44.79601" lon="6.36533">
        <ele>2118.4</ele>
        <time>2024-08-12T06:14:41Z</time>
      </trkpt>
      <trkpt lat="44.79601" lon="6.36533">
        <ele>2118.4</ele>
        <time>2024-08-12T06:14:42Z</time>
      </trkpt>
      <trkpt lat="44.79597" lon="6.36531">
        <ele>2118.4</ele>
        <time>2024-08-12T06:14:43Z</time>
      </trkpt>
      <trkpt lat="44.79597" lon="6.36531">
        <ele>2118.4</ele>
        <time>2024-08-12T06:14:44Z</time>
      </trkpt>
      <trkpt lat="44.79595" lon="6.3653">
        <ele>2118.4</ele>
        <time>2024-08-12T06:14:45Z</time>
      </trkpt>
      <trkpt lat="44.79595" lon="6.3653">
        <ele>2118.4</ele>
        <time>2024-08-12T06:14:46Z</time>
      </trkpt>
      <trkpt lat="44.79593" lon="6.36529">
        <ele>2118.4</ele>
        <time>2024-08-12T06:14:47Z</time>
      </trkpt>
      <trkpt lat="44.79593" lon="6.36529">
        <ele>2118.4</ele>
        <time>2024-08-12T06:14:48Z</time>
      </trkpt>
      <trkpt lat="44.7959" lon="6.36529">
        <ele>2118.4</ele>
        <time>2024-08-12T06:14:49Z</time>
      </trkpt>
      <trkpt lat="44.7959" lon="6.36529">
        <ele>2118.4</ele>
        <time>2024-08-12T06:14:50Z</time>
      </trkpt>
      <trkpt lat="44.7959" lon="6.36529">
        <ele>2118.8</ele>
        <time>2024-08-12T06:14:51Z</time>
      </trkpt>
      <trkpt lat="44.79587" lon="6.36529">
        <ele>2118.8</ele>
        <time>2024-08-12T06:14:52Z</time>
      </trkpt>
      <trkpt lat="44.79587" lon="6.36529">
        <ele>2118.8</ele>
        <time>2024-08-12T06:14:53Z</time>
      </trkpt>
      <trkpt lat="44.79585" lon="6.36528">
        <ele>2118.8</ele>
        <time>2024-08-12T06:14:54Z</time>
      </trkpt>
      <trkpt lat="44.79585" lon="6.36528">
        <ele>2119.2</ele>
        <time>2024-08-12T06:14:55Z</time>
      </trkpt>
      <trkpt lat="44.79585" lon="6.36528">
        <ele>2119.4</ele>
        <time>2024-08-12T06:14:56Z</time>
      </trkpt>
      <trkpt lat="44.79585" lon="6.36528">
        <ele>2119.4</ele>
        <time>2024-08-12T06:14:57Z</time>
      </trkpt>
      <trkpt lat="44.79585" lon="6.36528">
        <ele>2119.4</ele>
        <time>2024-08-12T06:14:58Z</time>
      </trkpt>
      <trkpt lat="44.79585" lon="6.36528">
        <ele>2119.6</ele>
        <time>2024-08-12T06:14:59Z</time>
      </trkpt>
      <trkpt lat="44.79585" lon="6.36528">
        <ele>2119.8</ele>
        <time>2024-08-12T06:15:00Z</time>
      </trkpt>
      <trkpt lat="44.79585" lon="6.36528">
        <ele>2119.8</ele>
        <time>2024-08-12T06:15:01Z</time>
      </trkpt>
      <trkpt lat="44.79585" lon="6.36528">
        <ele>2119.4</ele>
        <time>2024-08-12T06:15:02Z</time>
      </trkpt>
      <trkpt lat="44.79585" lon="6.36528">
        <ele>2119.4</ele>
        <time>2024-08-12T06:15:03Z</time>
      </trkpt>
      <trkpt lat="44.79585" lon="6.36528">
        <ele>2119.6</ele>
        <time>2024-08-12T06:15:04Z</time>
      </trkpt>
      <trkpt lat="44.79585" lon="6.36528">
        <ele>2119.8</ele>
        <time>2024-08-12T06:15:05Z</time>
      </trkpt>
      <trkpt lat="44.79583" lon="6.36528">
        <ele>2119.2</ele>
        <time>2024-08-12T06:15:06Z</time>
      </trkpt>
      <trkpt lat="44.79583" lon="6.36528">
        <ele>2119.2</ele>
        <time>2024-08-12T06:15:07Z</time>
      </trkpt>
      <trkpt lat="44.7958" lon="6.36527">
        <ele>2119.4</ele>
        <time>2024-08-12T06:15:08Z</time>
      </trkpt>
      <trkpt lat="44.7958" lon="6.36527">
        <ele>2119.6</ele>
        <time>2024-08-12T06:15:09Z</time>
      </trkpt>
      <trkpt lat="44.79578" lon="6.36527">
        <ele>2119.8</ele>
        <time>2024-08-12T06:15:10Z</time>
      </trkpt>
      <trkpt lat="44.79578" lon="6.36527">
        <ele>2120</ele>
        <time>2024-08-12T06:15:11Z</time>
      </trkpt>
      <trkpt lat="44.79578" lon="6.36527">
        <ele>2120.2</ele>
        <time>2024-08-12T06:15:12Z</time>
      </trkpt>
      <trkpt lat="44.79578" lon="6.36527">
        <ele>2120.4</ele>
        <time>2024-08-12T06:15:13Z</time>
      </trkpt>
      <trkpt lat="44.79578" lon="6.36527">
        <ele>2120.4</ele>
        <time>2024-08-12T06:15:14Z</time>
      </trkpt>
      <trkpt lat="44.79578" lon="6.36527">
        <ele>2120</ele>
        <time>2024-08-12T06:15:15Z</time>
      </trkpt>
      <trkpt lat="44.79578" lon="6.36527">
        <ele>2120</ele>
        <time>2024-08-12T06:15:16Z</time>
      </trkpt>
      <trkpt lat="44.79578" lon="6.36527">
        <ele>2120</ele>
        <time>2024-08-12T06:15:17Z</time>
      </trkpt>
      <trkpt lat="44.79576" lon="6.36527">
        <ele>2120.4</ele>
        <time>2024-08-12T06:15:18Z</time>
      </trkpt>
      <trkpt lat="44.79576" lon="6.36527">
        <ele>2120.6</ele>
        <time>2024-08-12T06:15:19Z</time>
      </trkpt>
      <trkpt lat="44.79573" lon="6.36527">
        <ele>2120.6</ele>
        <time>2024-08-12T06:15:20Z</time>
      </trkpt>
      <trkpt lat="44.79573" lon="6.36527">
        <ele>2120.4</ele>
        <time>2024-08-12T06:15:21Z</time>
      </trkpt>
      <trkpt lat="44.7957" lon="6.36527">
        <ele>2120.4</ele>
        <time>2024-08-12T06:15:22Z</time>
      </trkpt>
      <trkpt lat="44.7957" lon="6.36527">
        <ele>2120.6</ele>
        <time>2024-08-12T06:15:23Z</time>
      </trkpt>
      <trkpt lat="44.79566" lon="6.36527">
        <ele>2120.6</ele>
        <time>2024-08-12T06:15:24Z</time>
      </trkpt>
      <trkpt lat="44.79566" lon="6.36527">
        <ele>2120.2</ele>
        <time>2024-08-12T06:15:25Z</time>
      </trkpt>
      <trkpt lat="44.79564" lon="6.36526">
        <ele>2120</ele>
        <time>2024-08-12T06:15:26Z</time>
      </trkpt>
      <trkpt lat="44.79564" lon="6.36526">
        <ele>2120</ele>
        <time>2024-08-12T06:15:27Z</time>
      </trkpt>
      <trkpt lat="44.79561" lon="6.36525">
        <ele>2120</ele>
        <time>2024-08-12T06:15:28Z</time>
      </trkpt>
      <trkpt lat="44.79561" lon="6.36525">
        <ele>2120</ele>
        <time>2024-08-12T06:15:29Z</time>
      </trkpt>
      <trkpt lat="44.79559" lon="6.36524">
        <ele>2120</ele>
        <time>2024-08-12T06:15:30Z</time>
      </trkpt>
      <trkpt lat="44.79559" lon="6.36524">
        <ele>2120</ele>
        <time>2024-08-12T06:15:31Z</time>
      </trkpt>
      <trkpt lat="44.79557" lon="6.36524">
        <ele>2120</ele>
        <time>2024-08-12T06:15:32Z</time>
      </trkpt>
      <trkpt lat="44.79557" lon="6.36524">
        <ele>2120</ele>
        <time>2024-08-12T06:15:33Z</time>
      </trkpt>
      <trkpt lat="44.79554" lon="6.36523">
        <ele>2119.8</ele>
        <time>2024-08-12T06:15:34Z</time>
      </trkpt>
      <trkpt lat="44.79554" lon="6.36523">
        <ele>2119.8</ele>
        <time>2024-08-12T06:15:35Z</time>
      </trkpt>
      <trkpt lat="44.79554" lon="6.36523">
        <ele>2119.8</ele>
        <time>2024-08-12T06:15:36Z</time>
      </trkpt>
      <trkpt lat="44.79552" lon="6.36521">
        <ele>2119.6</ele>
        <time>2024-08-12T06:15:37Z</time>
      </trkpt>
      <trkpt lat="44.79552" lon="6.36521">
        <ele>2119.4</ele>
        <time>2024-08-12T06:15:38Z</time>
      </trkpt>
      <trkpt lat="44.7955" lon="6.36519">
        <ele>2119.4</ele>
        <time>2024-08-12T06:15:39Z</time>
      </trkpt>
      <trkpt lat="44.7955" lon="6.36519">
        <ele>2119.4</ele>
        <time>2024-08-12T06:15:40Z</time>
      </trkpt>
      <trkpt lat="44.79548" lon="6.36518">
        <ele>2119.4</ele>
        <time>2024-08-12T06:15:41Z</time>
      </trkpt>
      <trkpt lat="44.79548" lon="6.36518">
        <ele>2119</ele>
        <time>2024-08-12T06:15:42Z</time>
      </trkpt>
      <trkpt lat="44.79546" lon="6.36517">
        <ele>2118.8</ele>
        <time>2024-08-12T06:15:43Z</time>
      </trkpt>
      <trkpt lat="44.79546" lon="6.36517">
        <ele>2118.8</ele>
        <time>2024-08-12T06:15:44Z</time>
      </trkpt>
      <trkpt lat="44.79544" lon="6.36515">
        <ele>2118.4</ele>
        <time>2024-08-12T06:15:45Z</time>
      </trkpt>
      <trkpt lat="44.79544" lon="6.36515">
        <ele>2118.2</ele>
        <time>2024-08-12T06:15:46Z</time>
      </trkpt>
      <trkpt lat="44.79541" lon="6.36514">
        <ele>2118.2</ele>
        <time>2024-08-12T06:15:47Z</time>
      </trkpt>
      <trkpt lat="44.79541" lon="6.36514">
        <ele>2118.2</ele>
        <time>2024-08-12T06:15:48Z</time>
      </trkpt>
      <trkpt lat="44.7954" lon="6.36514">
        <ele>2118.2</ele>
        <time>2024-08-12T06:15:49Z</time>
      </trkpt>
      <trkpt lat="44.7954" lon="6.36514">
        <ele>2117.8</ele>
        <time>2024-08-12T06:15:50Z</time>
      </trkpt>
      <trkpt lat="44.79537" lon="6.36514">
        <ele>2117.8</ele>
        <time>2024-08-12T06:15:51Z</time>
      </trkpt>
      <trkpt lat="44.79537" lon="6.36514">
        <ele>2118</ele>
        <time>2024-08-12T06:15:52Z</time>
      </trkpt>
      <trkpt lat="44.79537" lon="6.36514">
        <ele>2117.8</ele>
        <time>2024-08-12T06:15:53Z</time>
      </trkpt>
      <trkpt lat="44.79534" lon="6.36513">
        <ele>2117.6</ele>
        <time>2024-08-12T06:15:54Z</time>
      </trkpt>
      <trkpt lat="44.79534" lon="6.36513">
        <ele>2117.6</ele>
        <time>2024-08-12T06:15:55Z</time>
      </trkpt>
      <trkpt lat="44.79532" lon="6.36513">
        <ele>2117.6</ele>
        <time>2024-08-12T06:15:56Z</time>
      </trkpt>
      <trkpt lat="44.79532" lon="6.36513">
        <ele>2117.6</ele>
        <time>2024-08-12T06:15:57Z</time>
      </trkpt>
      <trkpt lat="44.7953" lon="6.36512">
        <ele>2117.4</ele>
        <time>2024-08-12T06:15:58Z</time>
      </trkpt>
      <trkpt lat="44.7953" lon="6.36512">
        <ele>2117.4</ele>
        <time>2024-08-12T06:15:59Z</time>
      </trkpt>
      <trkpt lat="44.79528" lon="6.36511">
        <ele>2117.4</ele>
        <time>2024-08-12T06:16:00Z</time>
      </trkpt>
      <trkpt lat="44.79528" lon="6.36511">
        <ele>2117.4</ele>
        <time>2024-08-12T06:16:01Z</time>
      </trkpt>
      <trkpt lat="44.79526" lon="6.3651">
        <ele>2117.4</ele>
        <time>2024-08-12T06:16:02Z</time>
      </trkpt>
      <trkpt lat="44.79526" lon="6.3651">
        <ele>2117.4</ele>
        <time>2024-08-12T06:16:03Z</time>
      </trkpt>
      <trkpt lat="44.79525" lon="6.36508">
        <ele>2117</ele>
        <time>2024-08-12T06:16:04Z</time>
      </trkpt>
      <trkpt lat="44.79525" lon="6.36508">
        <ele>2117</ele>
        <time>2024-08-12T06:16:05Z</time>
      </trkpt>
      <trkpt lat="44.79523" lon="6.36506">
        <ele>2117.4</ele>
        <time>2024-08-12T06:16:06Z</time>
      </trkpt>
      <trkpt lat="44.79523" lon="6.36506">
        <ele>2117.4</ele>
        <time>2024-08-12T06:16:07Z</time>
      </trkpt>
      <trkpt lat="44.79523" lon="6.36506">
        <ele>2117.4</ele>
        <time>2024-08-12T06:16:08Z</time>
      </trkpt>
      <trkpt lat="44.7952" lon="6.36505">
        <ele>2117.4</ele>
        <time>2024-08-12T06:16:09Z</time>
      </trkpt>
      <trkpt lat="44.7952" lon="6.36505">
        <ele>2117.2</ele>
        <time>2024-08-12T06:16:10Z</time>
      </trkpt>
      <trkpt lat="44.79518" lon="6.36504">
        <ele>2117.2</ele>
        <time>2024-08-12T06:16:11Z</time>
      </trkpt>
      <trkpt lat="44.79518" lon="6.36504">
        <ele>2117.4</ele>
        <time>2024-08-12T06:16:12Z</time>
      </trkpt>
      <trkpt lat="44.79516" lon="6.36503">
        <ele>2117</ele>
        <time>2024-08-12T06:16:13Z</time>
      </trkpt>
      <trkpt lat="44.79516" lon="6.36503">
        <ele>2116.8</ele>
        <time>2024-08-12T06:16:14Z</time>
      </trkpt>
      <trkpt lat="44.79514" lon="6.36502">
        <ele>2116.8</ele>
        <time>2024-08-12T06:16:15Z</time>
      </trkpt>
      <trkpt lat="44.79514" lon="6.36502">
        <ele>2116.6</ele>
        <time>2024-08-12T06:16:16Z</time>
      </trkpt>
      <trkpt lat="44.79512" lon="6.36501">
        <ele>2116.4</ele>
        <time>2024-08-12T06:16:17Z</time>
      </trkpt>
      <trkpt lat="44.79512" lon="6.36501">
        <ele>2116.2</ele>
        <time>2024-08-12T06:16:18Z</time>
      </trkpt>
      <trkpt lat="44.79512" lon="6.36501">
        <ele>2116.2</ele>
        <time>2024-08-12T06:16:19Z</time>
      </trkpt>
      <trkpt lat="44.79509" lon="6.365">
        <ele>2116.2</ele>
        <time>2024-08-12T06:16:20Z</time>
      </trkpt>
      <trkpt lat="44.79509" lon="6.365">
        <ele>2116.2</ele>
        <time>2024-08-12T06:16:21Z</time>
      </trkpt>
      <trkpt lat="44.79507" lon="6.365">
        <ele>2116.2</ele>
        <time>2024-08-12T06:16:22Z</time>
      </trkpt>
      <trkpt lat="44.79507" lon="6.365">
        <ele>2116.2</ele>
        <time>2024-08-12T06:16:23Z</time>
      </trkpt>
      <trkpt lat="44.79505" lon="6.365">
        <ele>2115.8</ele>
        <time>2024-08-12T06:16:24Z</time>
      </trkpt>
      <trkpt lat="44.79505" lon="6.365">
        <ele>2116</ele>
        <time>2024-08-12T06:16:25Z</time>
      </trkpt>
      <trkpt lat="44.79502" lon="6.365">
        <ele>2116</ele>
        <time>2024-08-12T06:16:26Z</time>
      </trkpt>
      <trkpt lat="44.79502" lon="6.365">
        <ele>2116</ele>
        <time>2024-08-12T06:16:27Z</time>
      </trkpt>
      <trkpt lat="44.79501" lon="6.36501">
        <ele>2116</ele>
        <time>2024-08-12T06:16:28Z</time>
      </trkpt>
      <trkpt lat="44.79501" lon="6.36501">
        <ele>2116.2</ele>
        <time>2024-08-12T06:16:29Z</time>
      </trkpt>
      <trkpt lat="44.79499" lon="6.36501">
        <ele>2116.2</ele>
        <time>2024-08-12T06:16:30Z</time>
      </trkpt>
      <trkpt lat="44.79499" lon="6.36501">
        <ele>2116.2</ele>
        <time>2024-08-12T06:16:31Z</time>
      </trkpt>
      <trkpt lat="44.79496" lon="6.36501">
        <ele>2116.2</ele>
        <time>2024-08-12T06:16:32Z</time>
      </trkpt>
      <trkpt lat="44.79496" lon="6.36501">
        <ele>2116.2</ele>
        <time>2024-08-12T06:16:33Z</time>
      </trkpt>
      <trkpt lat="44.79496" lon="6.36501">
        <ele>2116.2</ele>
        <time>2024-08-12T06:16:34Z</time>
      </trkpt>
      <trkpt lat="44.79494" lon="6.36502">
        <ele>2116.4</ele>
        <time>2024-08-12T06:16:35Z</time>
      </trkpt>
      <trkpt lat="44.79494" lon="6.36502">
        <ele>2116.4</ele>
        <time>2024-08-12T06:16:36Z</time>
      </trkpt>
      <trkpt lat="44.79493" lon="6.36504">
        <ele>2116.6</ele>
        <time>2024-08-12T06:16:37Z</time>
      </trkpt>
      <trkpt lat="44.79493" lon="6.36504">
        <ele>2116.6</ele>
        <time>2024-08-12T06:16:38Z</time>
      </trkpt>
      <trkpt lat="44.79491" lon="6.36505">
        <ele>2116.8</ele>
        <time>2024-08-12T06:16:39Z</time>
      </trkpt>
      <trkpt lat="44.79491" lon="6.36505">
        <ele>2117</ele>
        <time>2024-08-12T06:16:40Z</time>
      </trkpt>
      <trkpt lat="44.79491" lon="6.36505">
        <ele>2117</ele>
        <time>2024-08-12T06:16:41Z</time>
      </trkpt>
      <trkpt lat="44.79488" lon="6.36508">
        <ele>2117</ele>
        <time>2024-08-12T06:16:42Z</time>
      </trkpt>
      <trkpt lat="44.79488" lon="6.36508">
        <ele>2117.2</ele>
        <time>2024-08-12T06:16:43Z</time>
      </trkpt>
      <trkpt lat="44.79486" lon="6.36509">
        <ele>2117.4</ele>
        <time>2024-08-12T06:16:44Z</time>
      </trkpt>
      <trkpt lat="44.79486" lon="6.36509">
        <ele>2117.8</ele>
        <time>2024-08-12T06:16:45Z</time>
      </trkpt>
      <trkpt lat="44.79484" lon="6.36509">
        <ele>2117.8</ele>
        <time>2024-08-12T06:16:46Z</time>
      </trkpt>
      <trkpt lat="44.79484" lon="6.36509">
        <ele>2117.6</ele>
        <time>2024-08-12T06:16:47Z</time>
      </trkpt>
      <trkpt lat="44.79481" lon="6.36507">
        <ele>2117.6</ele>
        <time>2024-08-12T06:16:48Z</time>
      </trkpt>
      <trkpt lat="44.79481" lon="6.36507">
        <ele>2117.6</ele>
        <time>2024-08-12T06:16:49Z</time>
      </trkpt>
      <trkpt lat="44.79479" lon="6.36505">
        <ele>2117.4</ele>
        <time>2024-08-12T06:16:50Z</time>
      </trkpt>
      <trkpt lat="44.79479" lon="6.36505">
        <ele>2117.4</ele>
        <time>2024-08-12T06:16:51Z</time>
      </trkpt>
      <trkpt lat="44.79477" lon="6.36502">
        <ele>2117.4</ele>
        <time>2024-08-12T06:16:52Z</time>
      </trkpt>
      <trkpt lat="44.79477" lon="6.36502">
        <ele>2117.2</ele>
        <time>2024-08-12T06:16:53Z</time>
      </trkpt>
      <trkpt lat="44.79476" lon="6.365">
        <ele>2117.2</ele>
        <time>2024-08-12T06:16:54Z</time>
      </trkpt>
      <trkpt lat="44.79476" lon="6.365">
        <ele>2117</ele>
        <time>2024-08-12T06:16:55Z</time>
      </trkpt>
      <trkpt lat="44.79475" lon="6.36498">
        <ele>2117</ele>
        <time>2024-08-12T06:16:56Z</time>
      </trkpt>
      <trkpt lat="44.79475" lon="6.36498">
        <ele>2117</ele>
        <time>2024-08-12T06:16:57Z</time>
      </trkpt>
      <trkpt lat="44.79475" lon="6.36498">
        <ele>2117.2</ele>
        <time>2024-08-12T06:16:58Z</time>
      </trkpt>
      <trkpt lat="44.79475" lon="6.36498">
        <ele>2117.2</ele>
        <time>2024-08-12T06:16:59Z</time>
      </trkpt>
      <trkpt lat="44.79475" lon="6.36498">
        <ele>2117.4</ele>
        <time>2024-08-12T06:17:00Z</time>
      </trkpt>
      <trkpt lat="44.79475" lon="6.36498">
        <ele>2117.4</ele>
        <time>2024-08-12T06:17:01Z</time>
      </trkpt>
      <trkpt lat="44.79475" lon="6.36498">
        <ele>2118</ele>
        <time>2024-08-12T06:17:02Z</time>
      </trkpt>
      <trkpt lat="44.79475" lon="6.36498">
        <ele>2118</ele>
        <time>2024-08-12T06:17:03Z</time>
      </trkpt>
      <trkpt lat="44.79473" lon="6.36496">
        <ele>2117.6</ele>
        <time>2024-08-12T06:17:04Z</time>
      </trkpt>
      <trkpt lat="44.79473" lon="6.36496">
        <ele>2117.6</ele>
        <time>2024-08-12T06:17:05Z</time>
      </trkpt>
      <trkpt lat="44.79473" lon="6.36496">
        <ele>2117.8</ele>
        <time>2024-08-12T06:17:06Z</time>
      </trkpt>
      <trkpt lat="44.79472" lon="6.36493">
        <ele>2117.8</ele>
        <time>2024-08-12T06:17:07Z</time>
      </trkpt>
      <trkpt lat="44.79472" lon="6.36493">
        <ele>2118</ele>
        <time>2024-08-12T06:17:08Z</time>
      </trkpt>
      <trkpt lat="44.79472" lon="6.36493">
        <ele>2117.8</ele>
        <time>2024-08-12T06:17:09Z</time>
      </trkpt>
      <trkpt lat="44.7947" lon="6.36491">
        <ele>2117.8</ele>
        <time>2024-08-12T06:17:10Z</time>
      </trkpt>
      <trkpt lat="44.7947" lon="6.36491">
        <ele>2117.8</ele>
        <time>2024-08-12T06:17:11Z</time>
      </trkpt>
      <trkpt lat="44.79468" lon="6.36488">
        <ele>2117.8</ele>
        <time>2024-08-12T06:17:12Z</time>
      </trkpt>
      <trkpt lat="44.79468" lon="6.36488">
        <ele>2117.8</ele>
        <time>2024-08-12T06:17:13Z</time>
      </trkpt>
      <trkpt lat="44.79466" lon="6.36487">
        <ele>2118</ele>
        <time>2024-08-12T06:17:14Z</time>
      </trkpt>
      <trkpt lat="44.79466" lon="6.36487">
        <ele>2118.2</ele>
        <time>2024-08-12T06:17:15Z</time>
      </trkpt>
      <trkpt lat="44.79464" lon="6.36486">
        <ele>2118.2</ele>
        <time>2024-08-12T06:17:16Z</time>
      </trkpt>
      <trkpt lat="44.79464" lon="6.36486">
        <ele>2117.8</ele>
        <time>2024-08-12T06:17:17Z</time>
      </trkpt>
      <trkpt lat="44.79461" lon="6.36485">
        <ele>2117.8</ele>
        <time>2024-08-12T06:17:18Z</time>
      </trkpt>
      <trkpt lat="44.79461" lon="6.36485">
        <ele>2117.8</ele>
        <time>2024-08-12T06:17:19Z</time>
      </trkpt>
      <trkpt lat="44.79459" lon="6.36484">
        <ele>2117.8</ele>
        <time>2024-08-12T06:17:20Z</time>
      </trkpt>
      <trkpt lat="44.79459" lon="6.36484">
        <ele>2117.6</ele>
        <time>2024-08-12T06:17:21Z</time>
      </trkpt>
      <trkpt lat="44.79459" lon="6.36484">
        <ele>2117.6</ele>
        <time>2024-08-12T06:17:22Z</time>
      </trkpt>
      <trkpt lat="44.79456" lon="6.36482">
        <ele>2117.6</ele>
        <time>2024-08-12T06:17:23Z</time>
      </trkpt>
      <trkpt lat="44.79456" lon="6.36482">
        <ele>2117.6</ele>
        <time>2024-08-12T06:17:24Z</time>
      </trkpt>
      <trkpt lat="44.79454" lon="6.36481">
        <ele>2117.4</ele>
        <time>2024-08-12T06:17:25Z</time>
      </trkpt>
      <trkpt lat="44.79454" lon="6.36481">
        <ele>2117.4</ele>
        <time>2024-08-12T06:17:26Z</time>
      </trkpt>
      <trkpt lat="44.79452" lon="6.3648">
        <ele>2117.2</ele>
        <time>2024-08-12T06:17:27Z</time>
      </trkpt>
      <trkpt lat="44.79452" lon="6.3648">
        <ele>2117.2</ele>
        <time>2024-08-12T06:17:28Z</time>
      </trkpt>
      <trkpt lat="44.7945" lon="6.3648">
        <ele>2117.2</ele>
        <time>2024-08-12T06:17:29Z</time>
      </trkpt>
      <trkpt lat="44.7945" lon="6.3648">
        <ele>2117.4</ele>
        <time>2024-08-12T06:17:30Z</time>
      </trkpt>
      <trkpt lat="44.79448" lon="6.3648">
        <ele>2117.6</ele>
        <time>2024-08-12T06:17:31Z</time>
      </trkpt>
      <trkpt lat="44.79448" lon="6.3648">
        <ele>2117.6</ele>
        <time>2024-08-12T06:17:32Z</time>
      </trkpt>
      <trkpt lat="44.79448" lon="6.3648">
        <ele>2117.6</ele>
        <time>2024-08-12T06:17:33Z</time>
      </trkpt>
      <trkpt lat="44.79446" lon="6.36482">
        <ele>2117.6</ele>
        <time>2024-08-12T06:17:34Z</time>
      </trkpt>
      <trkpt lat="44.79446" lon="6.36482">
        <ele>2117.8</ele>
        <time>2024-08-12T06:17:35Z</time>
      </trkpt>
      <trkpt lat="44.79444" lon="6.36483">
        <ele>2117.8</ele>
        <time>2024-08-12T06:17:36Z</time>
      </trkpt>
      <trkpt lat="44.79444" lon="6.36483">
        <ele>2117.8</ele>
        <time>2024-08-12T06:17:37Z</time>
      </trkpt>
      <trkpt lat="44.79442" lon="6.36484">
        <ele>2117.8</ele>
        <time>2024-08-12T06:17:38Z</time>
      </trkpt>
      <trkpt lat="44.79442" lon="6.36484">
        <ele>2117.8</ele>
        <time>2024-08-12T06:17:39Z</time>
      </trkpt>
      <trkpt lat="44.7944" lon="6.36485">
        <ele>2117.8</ele>
        <time>2024-08-12T06:17:40Z</time>
      </trkpt>
      <trkpt lat="44.7944" lon="6.36485">
        <ele>2117.6</ele>
        <time>2024-08-12T06:17:41Z</time>
      </trkpt>
      <trkpt lat="44.79438" lon="6.36486">
        <ele>2117.4</ele>
        <time>2024-08-12T06:17:42Z</time>
      </trkpt>
      <trkpt lat="44.79438" lon="6.36486">
        <ele>2117.2</ele>
        <time>2024-08-12T06:17:43Z</time>
      </trkpt>
      <trkpt lat="44.79437" lon="6.36488">
        <ele>2117</ele>
        <time>2024-08-12T06:17:44Z</time>
      </trkpt>
      <trkpt lat="44.79437" lon="6.36488">
        <ele>2117.2</ele>
        <time>2024-08-12T06:17:45Z</time>
      </trkpt>
      <trkpt lat="44.79435" lon="6.36489">
        <ele>2117.4</ele>
        <time>2024-08-12T06:17:46Z</time>
      </trkpt>
      <trkpt lat="44.79435" lon="6.36489">
        <ele>2117.4</ele>
        <time>2024-08-12T06:17:47Z</time>
      </trkpt>
      <trkpt lat="44.79433" lon="6.3649">
        <ele>2117.6</ele>
        <time>2024-08-12T06:17:48Z</time>
      </trkpt>
      <trkpt lat="44.79433" lon="6.3649">
        <ele>2117.6</ele>
        <time>2024-08-12T06:17:49Z</time>
      </trkpt>
      <trkpt lat="44.79433" lon="6.3649">
        <ele>2117.6</ele>
        <time>2024-08-12T06:17:50Z</time>
      </trkpt>
      <trkpt lat="44.7943" lon="6.36491">
        <ele>2117.6</ele>
        <time>2024-08-12T06:17:51Z</time>
      </trkpt>
      <trkpt lat="44.7943" lon="6.36491">
        <ele>2117.8</ele>
        <time>2024-08-12T06:17:52Z</time>
      </trkpt>
      <trkpt lat="44.79428" lon="6.36491">
        <ele>2117.8</ele>
        <time>2024-08-12T06:17:53Z</time>
      </trkpt>
      <trkpt lat="44.79428" lon="6.36491">
        <ele>2117.8</ele>
        <time>2024-08-12T06:17:54Z</time>
      </trkpt>
      <trkpt lat="44.79426" lon="6.3649">
        <ele>2118</ele>
        <time>2024-08-12T06:17:55Z</time>
      </trkpt>
      <trkpt lat="44.79426" lon="6.3649">
        <ele>2118</ele>
        <time>2024-08-12T06:17:56Z</time>
      </trkpt>
      <trkpt lat="44.79424" lon="6.3649">
        <ele>2118.4</ele>
        <time>2024-08-12T06:17:57Z</time>
      </trkpt>
      <trkpt lat="44.79424" lon="6.3649">
        <ele>2118.4</ele>
        <time>2024-08-12T06:17:58Z</time>
      </trkpt>
      <trkpt lat="44.79422" lon="6.3649">
        <ele>2118</ele>
        <time>2024-08-12T06:17:59Z</time>
      </trkpt>
      <trkpt lat="44.79422" lon="6.3649">
        <ele>2118</ele>
        <time>2024-08-12T06:18:00Z</time>
      </trkpt>
      <trkpt lat="44.79422" lon="6.3649">
        <ele>2118</ele>
        <time>2024-08-12T06:18:01Z</time>
      </trkpt>
      <trkpt lat="44.79419" lon="6.36492">
        <ele>2118</ele>
        <time>2024-08-12T06:18:02Z</time>
      </trkpt>
      <trkpt lat="44.79419" lon="6.36492">
        <ele>2118</ele>
        <time>2024-08-12T06:18:03Z</time>
      </trkpt>
      <trkpt lat="44.79419" lon="6.36492">
        <ele>2117.8</ele>
        <time>2024-08-12T06:18:04Z</time>
      </trkpt>
      <trkpt lat="44.79417" lon="6.36494">
        <ele>2117.8</ele>
        <time>2024-08-12T06:18:05Z</time>
      </trkpt>
      <trkpt lat="44.79417" lon="6.36494">
        <ele>2117.6</ele>
        <time>2024-08-12T06:18:06Z</time>
      </trkpt>
      <trkpt lat="44.79417" lon="6.36494">
        <ele>2117.6</ele>
        <time>2024-08-12T06:18:07Z</time>
      </trkpt>
      <trkpt lat="44.79417" lon="6.36494">
        <ele>2117.4</ele>
        <time>2024-08-12T06:18:08Z</time>
      </trkpt>
      <trkpt lat="44.79415" lon="6.36497">
        <ele>2117.2</ele>
        <time>2024-08-12T06:18:09Z</time>
      </trkpt>
      <trkpt lat="44.79415" lon="6.36497">
        <ele>2117.2</ele>
        <time>2024-08-12T06:18:10Z</time>
      </trkpt>
      <trkpt lat="44.79414" lon="6.36499">
        <ele>2117.2</ele>
        <time>2024-08-12T06:18:11Z</time>
      </trkpt>
      <trkpt lat="44.79414" lon="6.36499">
        <ele>2117.2</ele>
        <time>2024-08-12T06:18:12Z</time>
      </trkpt>
      <trkpt lat="44.79413" lon="6.36502">
        <ele>2117.2</ele>
        <time>2024-08-12T06:18:13Z</time>
      </trkpt>
      <trkpt lat="44.79413" lon="6.36502">
        <ele>2117.2</ele>
        <time>2024-08-12T06:18:14Z</time>
      </trkpt>
      <trkpt lat="44.7941" lon="6.36503">
        <ele>2117.6</ele>
        <time>2024-08-12T06:18:15Z</time>
      </trkpt>
      <trkpt lat="44.7941" lon="6.36503">
        <ele>2117.8</ele>
        <time>2024-08-12T06:18:16Z</time>
      </trkpt>
      <trkpt lat="44.79408" lon="6.36502">
        <ele>2117.8</ele>
        <time>2024-08-12T06:18:17Z</time>
      </trkpt>
      <trkpt lat="44.79408" lon="6.36502">
        <ele>2117.8</ele>
        <time>2024-08-12T06:18:18Z</time>
      </trkpt>
      <trkpt lat="44.79407" lon="6.36501">
        <ele>2118</ele>
        <time>2024-08-12T06:18:19Z</time>
      </trkpt>
      <trkpt lat="44.79407" lon="6.36501">
        <ele>2118.2</ele>
        <time>2024-08-12T06:18:20Z</time>
      </trkpt>
      <trkpt lat="44.79405" lon="6.365">
        <ele>2118.8</ele>
        <time>2024-08-12T06:18:21Z</time>
      </trkpt>
      <trkpt lat="44.79405" lon="6.365">
        <ele>2118.8</ele>
        <time>2024-08-12T06:18:22Z</time>
      </trkpt>
      <trkpt lat="44.79403" lon="6.36499">
        <ele>2118.8</ele>
        <time>2024-08-12T06:18:23Z</time>
      </trkpt>
      <trkpt lat="44.79403" lon="6.36499">
        <ele>2118.4</ele>
        <time>2024-08-12T06:18:24Z</time>
      </trkpt>
      <trkpt lat="44.79403" lon="6.36499">
        <ele>2118.4</ele>
        <time>2024-08-12T06:18:25Z</time>
      </trkpt>
      <trkpt lat="44.79403" lon="6.36499">
        <ele>2118.6</ele>
        <time>2024-08-12T06:18:26Z</time>
      </trkpt>
      <trkpt lat="44.79401" lon="6.36499">
        <ele>2118.6</ele>
        <time>2024-08-12T06:18:27Z</time>
      </trkpt>
      <trkpt lat="44.79401" lon="6.36499">
        <ele>2118.8</ele>
        <time>2024-08-12T06:18:28Z</time>
      </trkpt>
      <trkpt lat="44.79401" lon="6.36499">
        <ele>2119</ele>
        <time>2024-08-12T06:18:29Z</time>
      </trkpt>
      <trkpt lat="44.79401" lon="6.36499">
        <ele>2119</ele>
        <time>2024-08-12T06:18:30Z</time>
      </trkpt>
      <trkpt lat="44.79401" lon="6.36499">
        <ele>2119</ele>
        <time>2024-08-12T06:18:31Z</time>
      </trkpt>
      <trkpt lat="44.79401" lon="6.36499">
        <ele>2118.8</ele>
        <time>2024-08-12T06:18:32Z</time>
      </trkpt>
      <trkpt lat="44.79401" lon="6.36499">
        <ele>2118.8</ele>
        <time>2024-08-12T06:18:33Z</time>
      </trkpt>
      <trkpt lat="44.79401" lon="6.36499">
        <ele>2118.8</ele>
        <time>2024-08-12T06:18:34Z</time>
      </trkpt>
      <trkpt lat="44.79401" lon="6.36499">
        <ele>2118.8</ele>
        <time>2024-08-12T06:18:35Z</time>
      </trkpt>
      <trkpt lat="44.79401" lon="6.36499">
        <ele>2118.8</ele>
        <time>2024-08-12T06:18:36Z</time>
      </trkpt>
      <trkpt lat="44.79401" lon="6.36499">
        <ele>2118.8</ele>
        <time>2024-08-12T06:18:37Z</time>
      </trkpt>
      <trkpt lat="44.79401" lon="6.36499">
        <ele>2119</ele>
        <time>2024-08-12T06:18:38Z</time>
      </trkpt>
      <trkpt lat="44.79401" lon="6.36499">
        <ele>2119</ele>
        <time>2024-08-12T06:18:39Z</time>
      </trkpt>
      <trkpt lat="44.79401" lon="6.36499">
        <ele>2119</ele>
        <time>2024-08-12T06:18:40Z</time>
      </trkpt>
      <trkpt lat="44.79401" lon="6.36499">
        <ele>2119</ele>
        <time>2024-08-12T06:18:41Z</time>
      </trkpt>
      <trkpt lat="44.79401" lon="6.36499">
        <ele>2119</ele>
        <time>2024-08-12T06:18:42Z</time>
      </trkpt>
      <trkpt lat="44.79401" lon="6.36499">
        <ele>2119</ele>
        <time>2024-08-12T06:18:43Z</time>
      </trkpt>
      <trkpt lat="44.79401" lon="6.36499">
        <ele>2119</ele>
        <time>2024-08-12T06:18:44Z</time>
      </trkpt>
      <trkpt lat="44.79401" lon="6.36499">
        <ele>2119</ele>
        <time>2024-08-12T06:18:45Z</time>
      </trkpt>
      <trkpt lat="44.79401" lon="6.36499">
        <ele>2118.6</ele>
        <time>2024-08-12T06:18:46Z</time>
      </trkpt>
      <trkpt lat="44.79401" lon="6.36499">
        <ele>2118.6</ele>
        <time>2024-08-12T06:18:47Z</time>
      </trkpt>
      <trkpt lat="44.79401" lon="6.36499">
        <ele>2118.6</ele>
        <time>2024-08-12T06:18:48Z</time>
      </trkpt>
      <trkpt lat="44.79401" lon="6.36499">
        <ele>2118.2</ele>
        <time>2024-08-12T06:18:49Z</time>
      </trkpt>
      <trkpt lat="44.79401" lon="6.36499">
        <ele>2118</ele>
        <time>2024-08-12T06:18:50Z</time>
      </trkpt>
      <trkpt lat="44.79401" lon="6.36499">
        <ele>2118</ele>
        <time>2024-08-12T06:18:51Z</time>
      </trkpt>
      <trkpt lat="44.79401" lon="6.36499">
        <ele>2118.2</ele>
        <time>2024-08-12T06:18:52Z</time>
      </trkpt>
      <trkpt lat="44.79401" lon="6.36499">
        <ele>2118.2</ele>
        <time>2024-08-12T06:18:53Z</time>
      </trkpt>
      <trkpt lat="44.79401" lon="6.36499">
        <ele>2117.8</ele>
        <time>2024-08-12T06:18:54Z</time>
      </trkpt>
      <trkpt lat="44.79401" lon="6.36499">
        <ele>2117.8</ele>
        <time>2024-08-12T06:18:55Z</time>
      </trkpt>
      <trkpt lat="44.79401" lon="6.36499">
        <ele>2118.2</ele>
        <time>2024-08-12T06:18:56Z</time>
      </trkpt>
      <trkpt lat="44.79401" lon="6.36499">
        <ele>2118.2</ele>
        <time>2024-08-12T06:18:57Z</time>
      </trkpt>
      <trkpt lat="44.79401" lon="6.36499">
        <ele>2118.6</ele>
        <time>2024-08-12T06:18:58Z</time>
      </trkpt>
      <trkpt lat="44.79401" lon="6.36499">
        <ele>2118.8</ele>
        <time>2024-08-12T06:18:59Z</time>
      </trkpt>
      <trkpt lat="44.79398" lon="6.36499">
        <ele>2118.8</ele>
        <time>2024-08-12T06:19:00Z</time>
      </trkpt>
      <trkpt lat="44.79398" lon="6.36499">
        <ele>2118.8</ele>
        <time>2024-08-12T06:19:01Z</time>
      </trkpt>
      <trkpt lat="44.79397" lon="6.36498">
        <ele>2119</ele>
        <time>2024-08-12T06:19:02Z</time>
      </trkpt>
      <trkpt lat="44.79397" lon="6.36498">
        <ele>2119</ele>
        <time>2024-08-12T06:19:03Z</time>
      </trkpt>
      <trkpt lat="44.79394" lon="6.36497">
        <ele>2119</ele>
        <time>2024-08-12T06:19:04Z</time>
      </trkpt>
      <trkpt lat="44.79394" lon="6.36497">
        <ele>2119</ele>
        <time>2024-08-12T06:19:05Z</time>
      </trkpt>
      <trkpt lat="44.79392" lon="6.36497">
        <ele>2119</ele>
        <time>2024-08-12T06:19:06Z</time>
      </trkpt>
      <trkpt lat="44.79392" lon="6.36497">
        <ele>2119</ele>
        <time>2024-08-12T06:19:07Z</time>
      </trkpt>
      <trkpt lat="44.7939" lon="6.36497">
        <ele>2119</ele>
        <time>2024-08-12T06:19:08Z</time>
      </trkpt>
      <trkpt lat="44.7939" lon="6.36497">
        <ele>2119.4</ele>
        <time>2024-08-12T06:19:09Z</time>
      </trkpt>
      <trkpt lat="44.7939" lon="6.36497">
        <ele>2119.4</ele>
        <time>2024-08-12T06:19:10Z</time>
      </trkpt>
      <trkpt lat="44.79388" lon="6.36496">
        <ele>2119.4</ele>
        <time>2024-08-12T06:19:11Z</time>
      </trkpt>
      <trkpt lat="44.79388" lon="6.36496">
        <ele>2119.4</ele>
        <time>2024-08-12T06:19:12Z</time>
      </trkpt>
      <trkpt lat="44.79388" lon="6.36496">
        <ele>2119.6</ele>
        <time>2024-08-12T06:19:13Z</time>
      </trkpt>
      <trkpt lat="44.79385" lon="6.36496">
        <ele>2119.8</ele>
        <time>2024-08-12T06:19:14Z</time>
      </trkpt>
      <trkpt lat="44.79385" lon="6.36496">
        <ele>2119.8</ele>
        <time>2024-08-12T06:19:15Z</time>
      </trkpt>
      <trkpt lat="44.79383" lon="6.36495">
        <ele>2119.8</ele>
        <time>2024-08-12T06:19:16Z</time>
      </trkpt>
      <trkpt lat="44.79383" lon="6.36495">
        <ele>2119.8</ele>
        <time>2024-08-12T06:19:17Z</time>
      </trkpt>
      <trkpt lat="44.79381" lon="6.36495">
        <ele>2119.8</ele>
        <time>2024-08-12T06:19:18Z</time>
      </trkpt>
      <trkpt lat="44.79381" lon="6.36495">
        <ele>2120</ele>
        <time>2024-08-12T06:19:19Z</time>
      </trkpt>
      <trkpt lat="44.79381" lon="6.36495">
        <ele>2120</ele>
        <time>2024-08-12T06:19:20Z</time>
      </trkpt>
      <trkpt lat="44.79379" lon="6.36495">
        <ele>2120.8</ele>
        <time>2024-08-12T06:19:21Z</time>
      </trkpt>
      <trkpt lat="44.79379" lon="6.36495">
        <ele>2120.8</ele>
        <time>2024-08-12T06:19:22Z</time>
      </trkpt>
      <trkpt lat="44.79377" lon="6.36494">
        <ele>2121</ele>
        <time>2024-08-12T06:19:23Z</time>
      </trkpt>
      <trkpt lat="44.79377" lon="6.36494">
        <ele>2121.2</ele>
        <time>2024-08-12T06:19:24Z</time>
      </trkpt>
      <trkpt lat="44.79375" lon="6.36493">
        <ele>2121.2</ele>
        <time>2024-08-12T06:19:25Z</time>
      </trkpt>
      <trkpt lat="44.79375" lon="6.36493">
        <ele>2121.2</ele>
        <time>2024-08-12T06:19:26Z</time>
      </trkpt>
      <trkpt lat="44.79373" lon="6.36492">
        <ele>2121.2</ele>
        <time>2024-08-12T06:19:27Z</time>
      </trkpt>
      <trkpt lat="44.79373" lon="6.36492">
        <ele>2121.2</ele>
        <time>2024-08-12T06:19:28Z</time>
      </trkpt>
      <trkpt lat="44.79371" lon="6.36492">
        <ele>2121.4</ele>
        <time>2024-08-12T06:19:29Z</time>
      </trkpt>
      <trkpt lat="44.79371" lon="6.36492">
        <ele>2121.6</ele>
        <time>2024-08-12T06:19:30Z</time>
      </trkpt>
      <trkpt lat="44.79369" lon="6.36492">
        <ele>2121.6</ele>
        <time>2024-08-12T06:19:31Z</time>
      </trkpt>
      <trkpt lat="44.79369" lon="6.36492">
        <ele>2121.4</ele>
        <time>2024-08-12T06:19:32Z</time>
      </trkpt>
      <trkpt lat="44.79367" lon="6.36492">
        <ele>2121.4</ele>
        <time>2024-08-12T06:19:33Z</time>
      </trkpt>
      <trkpt lat="44.79367" lon="6.36492">
        <ele>2121.4</ele>
        <time>2024-08-12T06:19:34Z</time>
      </trkpt>
      <trkpt lat="44.79365" lon="6.36492">
        <ele>2121.8</ele>
        <time>2024-08-12T06:19:35Z</time>
      </trkpt>
      <trkpt lat="44.79365" lon="6.36492">
        <ele>2121.8</ele>
        <time>2024-08-12T06:19:36Z</time>
      </trkpt>
      <trkpt lat="44.79365" lon="6.36492">
        <ele>2122</ele>
        <time>2024-08-12T06:19:37Z</time>
      </trkpt>
      <trkpt lat="44.79362" lon="6.36494">
        <ele>2122</ele>
        <time>2024-08-12T06:19:38Z</time>
      </trkpt>
      <trkpt lat="44.79362" lon="6.36494">
        <ele>2122.6</ele>
        <time>2024-08-12T06:19:39Z</time>
      </trkpt>
      <trkpt lat="44.79362" lon="6.36494">
        <ele>2122.6</ele>
        <time>2024-08-12T06:19:40Z</time>
      </trkpt>
      <trkpt lat="44.7936" lon="6.36496">
        <ele>2122.4</ele>
        <time>2024-08-12T06:19:41Z</time>
      </trkpt>
      <trkpt lat="44.7936" lon="6.36496">
        <ele>2122.4</ele>
        <time>2024-08-12T06:19:42Z</time>
      </trkpt>
      <trkpt lat="44.79359" lon="6.36497">
        <ele>2122.8</ele>
        <time>2024-08-12T06:19:43Z</time>
      </trkpt>
      <trkpt lat="44.79359" lon="6.36497">
        <ele>2123.2</ele>
        <time>2024-08-12T06:19:44Z</time>
      </trkpt>
      <trkpt lat="44.79357" lon="6.36498">
        <ele>2123.2</ele>
        <time>2024-08-12T06:19:45Z</time>
      </trkpt>
      <trkpt lat="44.79357" lon="6.36498">
        <ele>2123.2</ele>
        <time>2024-08-12T06:19:46Z</time>
      </trkpt>
      <trkpt lat="44.79355" lon="6.36498">
        <ele>2123</ele>
        <time>2024-08-12T06:19:47Z</time>
      </trkpt>
      <trkpt lat="44.79355" lon="6.36498">
        <ele>2123</ele>
        <time>2024-08-12T06:19:48Z</time>
      </trkpt>
      <trkpt lat="44.79353" lon="6.36497">
        <ele>2123.2</ele>
        <time>2024-08-12T06:19:49Z</time>
      </trkpt>
      <trkpt lat="44.79353" lon="6.36497">
        <ele>2123.2</ele>
        <time>2024-08-12T06:19:50Z</time>
      </trkpt>
      <trkpt lat="44.79353" lon="6.36497">
        <ele>2123.4</ele>
        <time>2024-08-12T06:19:51Z</time>
      </trkpt>
      <trkpt lat="44.79351" lon="6.36496">
        <ele>2123.4</ele>
        <time>2024-08-12T06:19:52Z</time>
      </trkpt>
      <trkpt lat="44.79351" lon="6.36496">
        <ele>2123.6</ele>
        <time>2024-08-12T06:19:53Z</time>
      </trkpt>
      <trkpt lat="44.79351" lon="6.36496">
        <ele>2123.6</ele>
        <time>2024-08-12T06:19:54Z</time>
      </trkpt>
      <trkpt lat="44.79351" lon="6.36496">
        <ele>2124</ele>
        <time>2024-08-12T06:19:55Z</time>
      </trkpt>
      <trkpt lat="44.79351" lon="6.36496">
        <ele>2124.2</ele>
        <time>2024-08-12T06:19:56Z</time>
      </trkpt>
      <trkpt lat="44.79349" lon="6.36498">
        <ele>2124.2</ele>
        <time>2024-08-12T06:19:57Z</time>
      </trkpt>
      <trkpt lat="44.79349" lon="6.36498">
        <ele>2124.4</ele>
        <time>2024-08-12T06:19:58Z</time>
      </trkpt>
      <trkpt lat="44.79349" lon="6.36498">
        <ele>2124.4</ele>
        <time>2024-08-12T06:19:59Z</time>
      </trkpt>
      <trkpt lat="44.79351" lon="6.36501">
        <ele>2124.2</ele>
        <time>2024-08-12T06:20:00Z</time>
      </trkpt>
      <trkpt lat="44.79351" lon="6.36501">
        <ele>2124.2</ele>
        <time>2024-08-12T06:20:01Z</time>
      </trkpt>
      <trkpt lat="44.79351" lon="6.36501">
        <ele>2124.4</ele>
        <time>2024-08-12T06:20:02Z</time>
      </trkpt>
      <trkpt lat="44.79351" lon="6.36501">
        <ele>2124.2</ele>
        <time>2024-08-12T06:20:03Z</time>
      </trkpt>
      <trkpt lat="44.79351" lon="6.36501">
        <ele>2124.2</ele>
        <time>2024-08-12T06:20:04Z</time>
      </trkpt>
      <trkpt lat="44.79351" lon="6.36501">
        <ele>2124.2</ele>
        <time>2024-08-12T06:20:05Z</time>
      </trkpt>
      <trkpt lat="44.79351" lon="6.36501">
        <ele>2123.8</ele>
        <time>2024-08-12T06:20:06Z</time>
      </trkpt>
      <trkpt lat="44.79351" lon="6.36501">
        <ele>2123.8</ele>
        <time>2024-08-12T06:20:07Z</time>
      </trkpt>
      <trkpt lat="44.79351" lon="6.36501">
        <ele>2123.8</ele>
        <time>2024-08-12T06:20:08Z</time>
      </trkpt>
      <trkpt lat="44.79351" lon="6.36501">
        <ele>2123.8</ele>
        <time>2024-08-12T06:20:09Z</time>
      </trkpt>
      <trkpt lat="44.79351" lon="6.36501">
        <ele>2123.8</ele>
        <time>2024-08-12T06:20:10Z</time>
      </trkpt>
      <trkpt lat="44.79351" lon="6.36501">
        <ele>2123.6</ele>
        <time>2024-08-12T06:20:11Z</time>
      </trkpt>
      <trkpt lat="44.79351" lon="6.36501">
        <ele>2123.6</ele>
        <time>2024-08-12T06:20:12Z</time>
      </trkpt>
      <trkpt lat="44.79351" lon="6.36501">
        <ele>2123.8</ele>
        <time>2024-08-12T06:20:13Z</time>
      </trkpt>
      <trkpt lat="44.79351" lon="6.36501">
        <ele>2123.8</ele>
        <time>2024-08-12T06:20:14Z</time>
      </trkpt>
      <trkpt lat="44.79349" lon="6.36498">
        <ele>2124</ele>
        <time>2024-08-12T06:20:15Z</time>
      </trkpt>
      <trkpt lat="44.79349" lon="6.36498">
        <ele>2124</ele>
        <time>2024-08-12T06:20:16Z</time>
      </trkpt>
      <trkpt lat="44.79349" lon="6.36498">
        <ele>2124</ele>
        <time>2024-08-12T06:20:17Z</time>
      </trkpt>
      <trkpt lat="44.79349" lon="6.36495">
        <ele>2124</ele>
        <time>2024-08-12T06:20:18Z</time>
      </trkpt>
      <trkpt lat="44.79349" lon="6.36495">
        <ele>2124</ele>
        <time>2024-08-12T06:20:19Z</time>
      </trkpt>
      <trkpt lat="44.79349" lon="6.36495">
        <ele>2123.8</ele>
        <time>2024-08-12T06:20:20Z</time>
      </trkpt>
      <trkpt lat="44.79349" lon="6.36495">
        <ele>2123.8</ele>
        <time>2024-08-12T06:20:21Z</time>
      </trkpt>
      <trkpt lat="44.79349" lon="6.36495">
        <ele>2123.6</ele>
        <time>2024-08-12T06:20:22Z</time>
      </trkpt>
      <trkpt lat="44.79349" lon="6.36495">
        <ele>2123.8</ele>
        <time>2024-08-12T06:20:23Z</time>
      </trkpt>
      <trkpt lat="44.79347" lon="6.36494">
        <ele>2124.2</ele>
        <time>2024-08-12T06:20:24Z</time>
      </trkpt>
      <trkpt lat="44.79347" lon="6.36494">
        <ele>2124.4</ele>
        <time>2024-08-12T06:20:25Z</time>
      </trkpt>
      <trkpt lat="44.79347" lon="6.36494">
        <ele>2124.8</ele>
        <time>2024-08-12T06:20:26Z</time>
      </trkpt>
      <trkpt lat="44.79345" lon="6.36494">
        <ele>2124.8</ele>
        <time>2024-08-12T06:20:27Z</time>
      </trkpt>
      <trkpt lat="44.79345" lon="6.36494">
        <ele>2124.6</ele>
        <time>2024-08-12T06:20:28Z</time>
      </trkpt>
      <trkpt lat="44.79343" lon="6.36493">
        <ele>2124.6</ele>
        <time>2024-08-12T06:20:29Z</time>
      </trkpt>
      <trkpt lat="44.79343" lon="6.36493">
        <ele>2124.6</ele>
        <time>2024-08-12T06:20:30Z</time>
      </trkpt>
      <trkpt lat="44.79341" lon="6.36492">
        <ele>2124.8</ele>
        <time>2024-08-12T06:20:31Z</time>
      </trkpt>
      <trkpt lat="44.79341" lon="6.36492">
        <ele>2124.8</ele>
        <time>2024-08-12T06:20:32Z</time>
      </trkpt>
      <trkpt lat="44.79341" lon="6.36492">
        <ele>2124.8</ele>
        <time>2024-08-12T06:20:33Z</time>
      </trkpt>
      <trkpt lat="44.79341" lon="6.36492">
        <ele>2125</ele>
        <time>2024-08-12T06:20:34Z</time>
      </trkpt>
      <trkpt lat="44.79341" lon="6.36488">
        <ele>2125.2</ele>
        <time>2024-08-12T06:20:35Z</time>
      </trkpt>
      <trkpt lat="44.79341" lon="6.36488">
        <ele>2125.2</ele>
        <time>2024-08-12T06:20:36Z</time>
      </trkpt>
      <trkpt lat="44.79341" lon="6.36488">
        <ele>2125.2</ele>
        <time>2024-08-12T06:20:37Z</time>
      </trkpt>
      <trkpt lat="44.79341" lon="6.36488">
        <ele>2124.8</ele>
        <time>2024-08-12T06:20:38Z</time>
      </trkpt>
      <trkpt lat="44.79341" lon="6.36486">
        <ele>2124.8</ele>
        <time>2024-08-12T06:20:39Z</time>
      </trkpt>
      <trkpt lat="44.79341" lon="6.36486">
        <ele>2125.2</ele>
        <time>2024-08-12T06:20:40Z</time>
      </trkpt>
      <trkpt lat="44.79341" lon="6.36486">
        <ele>2125.6</ele>
        <time>2024-08-12T06:20:41Z</time>
      </trkpt>
      <trkpt lat="44.7934" lon="6.36483">
        <ele>2125.8</ele>
        <time>2024-08-12T06:20:42Z</time>
      </trkpt>
      <trkpt lat="44.7934" lon="6.36483">
        <ele>2126</ele>
        <time>2024-08-12T06:20:43Z</time>
      </trkpt>
      <trkpt lat="44.7934" lon="6.36483">
        <ele>2126.4</ele>
        <time>2024-08-12T06:20:44Z</time>
      </trkpt>
      <trkpt lat="44.79339" lon="6.36481">
        <ele>2126.8</ele>
        <time>2024-08-12T06:20:45Z</time>
      </trkpt>
      <trkpt lat="44.79339" lon="6.36481">
        <ele>2127</ele>
        <time>2024-08-12T06:20:46Z</time>
      </trkpt>
      <trkpt lat="44.79339" lon="6.36481">
        <ele>2127.2</ele>
        <time>2024-08-12T06:20:47Z</time>
      </trkpt>
      <trkpt lat="44.79339" lon="6.36481">
        <ele>2127.2</ele>
        <time>2024-08-12T06:20:48Z</time>
      </trkpt>
      <trkpt lat="44.79339" lon="6.36481">
        <ele>2127.4</ele>
        <time>2024-08-12T06:20:49Z</time>
      </trkpt>
      <trkpt lat="44.79339" lon="6.36481">
        <ele>2127.4</ele>
        <time>2024-08-12T06:20:50Z</time>
      </trkpt>
      <trkpt lat="44.79339" lon="6.36481">
        <ele>2127.4</ele>
        <time>2024-08-12T06:20:51Z</time>
      </trkpt>
      <trkpt lat="44.79339" lon="6.36481">
        <ele>2127.4</ele>
        <time>2024-08-12T06:20:52Z</time>
      </trkpt>
      <trkpt lat="44.79339" lon="6.36481">
        <ele>2127.6</ele>
        <time>2024-08-12T06:20:53Z</time>
      </trkpt>
      <trkpt lat="44.79339" lon="6.36481">
        <ele>2127.6</ele>
        <time>2024-08-12T06:20:54Z</time>
      </trkpt>
      <trkpt lat="44.79339" lon="6.36481">
        <ele>2127.6</ele>
        <time>2024-08-12T06:20:55Z</time>
      </trkpt>
      <trkpt lat="44.79339" lon="6.36481">
        <ele>2127.6</ele>
        <time>2024-08-12T06:20:56Z</time>
      </trkpt>
      <trkpt lat="44.79339" lon="6.36481">
        <ele>2127.6</ele>
        <time>2024-08-12T06:20:57Z</time>
      </trkpt>
      <trkpt lat="44.79339" lon="6.36481">
        <ele>2127.4</ele>
        <time>2024-08-12T06:20:58Z</time>
      </trkpt>
      <trkpt lat="44.79339" lon="6.36481">
        <ele>2127.2</ele>
        <time>2024-08-12T06:20:59Z</time>
      </trkpt>
      <trkpt lat="44.79339" lon="6.36481">
        <ele>2127</ele>
        <time>2024-08-12T06:21:00Z</time>
      </trkpt>
      <trkpt lat="44.79339" lon="6.36481">
        <ele>2127</ele>
        <time>2024-08-12T06:21:01Z</time>
      </trkpt>
      <trkpt lat="44.79339" lon="6.36481">
        <ele>2126.6</ele>
        <time>2024-08-12T06:21:02Z</time>
      </trkpt>
      <trkpt lat="44.79339" lon="6.36481">
        <ele>2126.6</ele>
        <time>2024-08-12T06:21:03Z</time>
      </trkpt>
      <trkpt lat="44.79339" lon="6.36481">
        <ele>2126.2</ele>
        <time>2024-08-12T06:21:04Z</time>
      </trkpt>
      <trkpt lat="44.79339" lon="6.36481">
        <ele>2126</ele>
        <time>2024-08-12T06:21:05Z</time>
      </trkpt>
      <trkpt lat="44.79339" lon="6.36481">
        <ele>2125.6</ele>
        <time>2024-08-12T06:21:06Z</time>
      </trkpt>
      <trkpt lat="44.79339" lon="6.36481">
        <ele>2125.6</ele>
        <time>2024-08-12T06:21:07Z</time>
      </trkpt>
      <trkpt lat="44.79339" lon="6.36481">
        <ele>2125.4</ele>
        <time>2024-08-12T06:21:08Z</time>
      </trkpt>
      <trkpt lat="44.79341" lon="6.36482">
        <ele>2125.2</ele>
        <time>2024-08-12T06:21:09Z</time>
      </trkpt>
      <trkpt lat="44.79341" lon="6.36482">
        <ele>2125.2</ele>
        <time>2024-08-12T06:21:10Z</time>
      </trkpt>
      <trkpt lat="44.79339" lon="6.36486">
        <ele>2125.4</ele>
        <time>2024-08-12T06:21:11Z</time>
      </trkpt>
      <trkpt lat="44.79339" lon="6.36486">
        <ele>2125.4</ele>
        <time>2024-08-12T06:21:12Z</time>
      </trkpt>
      <trkpt lat="44.79337" lon="6.36489">
        <ele>2125.4</ele>
        <time>2024-08-12T06:21:13Z</time>
      </trkpt>
      <trkpt lat="44.79337" lon="6.36489">
        <ele>2125.4</ele>
        <time>2024-08-12T06:21:14Z</time>
      </trkpt>
      <trkpt lat="44.79335" lon="6.3649">
        <ele>2125.4</ele>
        <time>2024-08-12T06:21:15Z</time>
      </trkpt>
      <trkpt lat="44.79335" lon="6.3649">
        <ele>2125.6</ele>
        <time>2024-08-12T06:21:16Z</time>
      </trkpt>
      <trkpt lat="44.79333" lon="6.36491">
        <ele>2125.8</ele>
        <time>2024-08-12T06:21:17Z</time>
      </trkpt>
      <trkpt lat="44.79333" lon="6.36491">
        <ele>2125.8</ele>
        <time>2024-08-12T06:21:18Z</time>
      </trkpt>
      <trkpt lat="44.7933" lon="6.36491">
        <ele>2125.8</ele>
        <time>2024-08-12T06:21:19Z</time>
      </trkpt>
      <trkpt lat="44.7933" lon="6.36491">
        <ele>2126</ele>
        <time>2024-08-12T06:21:20Z</time>
      </trkpt>
      <trkpt lat="44.7933" lon="6.36491">
        <ele>2126.2</ele>
        <time>2024-08-12T06:21:21Z</time>
      </trkpt>
      <trkpt lat="44.79327" lon="6.3649">
        <ele>2126.2</ele>
        <time>2024-08-12T06:21:22Z</time>
      </trkpt>
      <trkpt lat="44.79327" lon="6.3649">
        <ele>2126.4</ele>
        <time>2024-08-12T06:21:23Z</time>
      </trkpt>
      <trkpt lat="44.79327" lon="6.3649">
        <ele>2126.4</ele>
        <time>2024-08-12T06:21:24Z</time>
      </trkpt>
      <trkpt lat="44.79325" lon="6.36491">
        <ele>2126.4</ele>
        <time>2024-08-12T06:21:25Z</time>
      </trkpt>
      <trkpt lat="44.79325" lon="6.36491">
        <ele>2126.4</ele>
        <time>2024-08-12T06:21:26Z</time>
      </trkpt>
      <trkpt lat="44.79323" lon="6.36491">
        <ele>2126.8</ele>
        <time>2024-08-12T06:21:27Z</time>
      </trkpt>
      <trkpt lat="44.79323" lon="6.36491">
        <ele>2126.8</ele>
        <time>2024-08-12T06:21:28Z</time>
      </trkpt>
      <trkpt lat="44.79321" lon="6.36491">
        <ele>2127</ele>
        <time>2024-08-12T06:21:29Z</time>
      </trkpt>
      <trkpt lat="44.79321" lon="6.36491">
        <ele>2127.2</ele>
        <time>2024-08-12T06:21:30Z</time>
      </trkpt>
      <trkpt lat="44.79319" lon="6.36491">
        <ele>2127.2</ele>
        <time>2024-08-12T06:21:31Z</time>
      </trkpt>
      <trkpt lat="44.79319" lon="6.36491">
        <ele>2127.4</ele>
        <time>2024-08-12T06:21:32Z</time>
      </trkpt>
      <trkpt lat="44.79319" lon="6.36491">
        <ele>2127.4</ele>
        <time>2024-08-12T06:21:33Z</time>
      </trkpt>
      <trkpt lat="44.79317" lon="6.36492">
        <ele>2127.4</ele>
        <time>2024-08-12T06:21:34Z</time>
      </trkpt>
      <trkpt lat="44.79317" lon="6.36492">
        <ele>2127.4</ele>
        <time>2024-08-12T06:21:35Z</time>
      </trkpt>
      <trkpt lat="44.79317" lon="6.36492">
        <ele>2127.6</ele>
        <time>2024-08-12T06:21:36Z</time>
      </trkpt>
      <trkpt lat="44.79315" lon="6.36492">
        <ele>2127.6</ele>
        <time>2024-08-12T06:21:37Z</time>
      </trkpt>
      <trkpt lat="44.79315" lon="6.36492">
        <ele>2127.6</ele>
        <time>2024-08-12T06:21:38Z</time>
      </trkpt>
      <trkpt lat="44.79313" lon="6.36492">
        <ele>2128.2</ele>
        <time>2024-08-12T06:21:39Z</time>
      </trkpt>
      <trkpt lat="44.79313" lon="6.36492">
        <ele>2128.2</ele>
        <time>2024-08-12T06:21:40Z</time>
      </trkpt>
      <trkpt lat="44.79313" lon="6.36492">
        <ele>2128.8</ele>
        <time>2024-08-12T06:21:41Z</time>
      </trkpt>
      <trkpt lat="44.79313" lon="6.36492">
        <ele>2128.8</ele>
        <time>2024-08-12T06:21:42Z</time>
      </trkpt>
      <trkpt lat="44.79311" lon="6.36491">
        <ele>2129.2</ele>
        <time>2024-08-12T06:21:43Z</time>
      </trkpt>
      <trkpt lat="44.79311" lon="6.36491">
        <ele>2129.2</ele>
        <time>2024-08-12T06:21:44Z</time>
      </trkpt>
      <trkpt lat="44.79311" lon="6.36491">
        <ele>2129.2</ele>
        <time>2024-08-12T06:21:45Z</time>
      </trkpt>
      <trkpt lat="44.79309" lon="6.3649">
        <ele>2129.4</ele>
        <time>2024-08-12T06:21:46Z</time>
      </trkpt>
      <trkpt lat="44.79309" lon="6.3649">
        <ele>2129.6</ele>
        <time>2024-08-12T06:21:47Z</time>
      </trkpt>
      <trkpt lat="44.79307" lon="6.36491">
        <ele>2129.6</ele>
        <time>2024-08-12T06:21:48Z</time>
      </trkpt>
      <trkpt lat="44.79307" lon="6.36491">
        <ele>2130</ele>
        <time>2024-08-12T06:21:49Z</time>
      </trkpt>
      <trkpt lat="44.79307" lon="6.36491">
        <ele>2130.2</ele>
        <time>2024-08-12T06:21:50Z</time>
      </trkpt>
      <trkpt lat="44.79305" lon="6.3649">
        <ele>2130.2</ele>
        <time>2024-08-12T06:21:51Z</time>
      </trkpt>
      <trkpt lat="44.79305" lon="6.3649">
        <ele>2130.2</ele>
        <time>2024-08-12T06:21:52Z</time>
      </trkpt>
      <trkpt lat="44.79305" lon="6.3649">
        <ele>2130.2</ele>
        <time>2024-08-12T06:21:53Z</time>
      </trkpt>
      <trkpt lat="44.79305" lon="6.3649">
        <ele>2130.2</ele>
        <time>2024-08-12T06:21:54Z</time>
      </trkpt>
      <trkpt lat="44.79303" lon="6.36489">
        <ele>2130.2</ele>
        <time>2024-08-12T06:21:55Z</time>
      </trkpt>
      <trkpt lat="44.79303" lon="6.36489">
        <ele>2130.4</ele>
        <time>2024-08-12T06:21:56Z</time>
      </trkpt>
      <trkpt lat="44.79303" lon="6.36489">
        <ele>2130.8</ele>
        <time>2024-08-12T06:21:57Z</time>
      </trkpt>
      <trkpt lat="44.79303" lon="6.36489">
        <ele>2130.8</ele>
        <time>2024-08-12T06:21:58Z</time>
      </trkpt>
      <trkpt lat="44.79301" lon="6.3649">
        <ele>2130.8</ele>
        <time>2024-08-12T06:21:59Z</time>
      </trkpt>
      <trkpt lat="44.79301" lon="6.3649">
        <ele>2130.8</ele>
        <time>2024-08-12T06:22:00Z</time>
      </trkpt>
      <trkpt lat="44.79301" lon="6.3649">
        <ele>2130.6</ele>
        <time>2024-08-12T06:22:01Z</time>
      </trkpt>
      <trkpt lat="44.793" lon="6.36492">
        <ele>2130.4</ele>
        <time>2024-08-12T06:22:02Z</time>
      </trkpt>
      <trkpt lat="44.793" lon="6.36492">
        <ele>2130.4</ele>
        <time>2024-08-12T06:22:03Z</time>
      </trkpt>
      <trkpt lat="44.79299" lon="6.36494">
        <ele>2130.4</ele>
        <time>2024-08-12T06:22:04Z</time>
      </trkpt>
      <trkpt lat="44.79299" lon="6.36494">
        <ele>2130.4</ele>
        <time>2024-08-12T06:22:05Z</time>
      </trkpt>
      <trkpt lat="44.79299" lon="6.36494">
        <ele>2130.4</ele>
        <time>2024-08-12T06:22:06Z</time>
      </trkpt>
      <trkpt lat="44.79297" lon="6.36497">
        <ele>2130.8</ele>
        <time>2024-08-12T06:22:07Z</time>
      </trkpt>
      <trkpt lat="44.79297" lon="6.36497">
        <ele>2130.8</ele>
        <time>2024-08-12T06:22:08Z</time>
      </trkpt>
      <trkpt lat="44.79297" lon="6.36497">
        <ele>2130.6</ele>
        <time>2024-08-12T06:22:09Z</time>
      </trkpt>
      <trkpt lat="44.79297" lon="6.36497">
        <ele>2130.6</ele>
        <time>2024-08-12T06:22:10Z</time>
      </trkpt>
      <trkpt lat="44.79297" lon="6.36497">
        <ele>2130.8</ele>
        <time>2024-08-12T06:22:11Z</time>
      </trkpt>
      <trkpt lat="44.79297" lon="6.36497">
        <ele>2130.8</ele>
        <time>2024-08-12T06:22:12Z</time>
      </trkpt>
      <trkpt lat="44.79297" lon="6.36497">
        <ele>2130.8</ele>
        <time>2024-08-12T06:22:13Z</time>
      </trkpt>
      <trkpt lat="44.79297" lon="6.36497">
        <ele>2131</ele>
        <time>2024-08-12T06:22:14Z</time>
      </trkpt>
      <trkpt lat="44.79297" lon="6.36497">
        <ele>2131.4</ele>
        <time>2024-08-12T06:22:15Z</time>
      </trkpt>
      <trkpt lat="44.79297" lon="6.36497">
        <ele>2131.4</ele>
        <time>2024-08-12T06:22:16Z</time>
      </trkpt>
      <trkpt lat="44.79296" lon="6.36499">
        <ele>2131.4</ele>
        <time>2024-08-12T06:22:17Z</time>
      </trkpt>
      <trkpt lat="44.79296" lon="6.36499">
        <ele>2131</ele>
        <time>2024-08-12T06:22:18Z</time>
      </trkpt>
      <trkpt lat="44.79294" lon="6.36501">
        <ele>2131</ele>
        <time>2024-08-12T06:22:19Z</time>
      </trkpt>
      <trkpt lat="44.79294" lon="6.36501">
        <ele>2131</ele>
        <time>2024-08-12T06:22:20Z</time>
      </trkpt>
      <trkpt lat="44.79291" lon="6.36503">
        <ele>2131.4</ele>
        <time>2024-08-12T06:22:21Z</time>
      </trkpt>
      <trkpt lat="44.79291" lon="6.36503">
        <ele>2131.4</ele>
        <time>2024-08-12T06:22:22Z</time>
      </trkpt>
      <trkpt lat="44.79289" lon="6.36503">
        <ele>2131.4</ele>
        <time>2024-08-12T06:22:23Z</time>
      </trkpt>
      <trkpt lat="44.79289" lon="6.36503">
        <ele>2131.4</ele>
        <time>2024-08-12T06:22:24Z</time>
      </trkpt>
      <trkpt lat="44.79289" lon="6.36503">
        <ele>2131.6</ele>
        <time>2024-08-12T06:22:25Z</time>
      </trkpt>
      <trkpt lat="44.79287" lon="6.36503">
        <ele>2132</ele>
        <time>2024-08-12T06:22:26Z</time>
      </trkpt>
      <trkpt lat="44.79287" lon="6.36503">
        <ele>2132.2</ele>
        <time>2024-08-12T06:22:27Z</time>
      </trkpt>
      <trkpt lat="44.79287" lon="6.36503">
        <ele>2132.2</ele>
        <time>2024-08-12T06:22:28Z</time>
      </trkpt>
      <trkpt lat="44.79285" lon="6.36504">
        <ele>2132.8</ele>
        <time>2024-08-12T06:22:29Z</time>
      </trkpt>
      <trkpt lat="44.79285" lon="6.36504">
        <ele>2132.8</ele>
        <time>2024-08-12T06:22:30Z</time>
      </trkpt>
      <trkpt lat="44.79285" lon="6.36504">
        <ele>2132.6</ele>
        <time>2024-08-12T06:22:31Z</time>
      </trkpt>
      <trkpt lat="44.79282" lon="6.36505">
        <ele>2132.6</ele>
        <time>2024-08-12T06:22:32Z</time>
      </trkpt>
      <trkpt lat="44.79282" lon="6.36505">
        <ele>2132.6</ele>
        <time>2024-08-12T06:22:33Z</time>
      </trkpt>
      <trkpt lat="44.79282" lon="6.36505">
        <ele>2132.8</ele>
        <time>2024-08-12T06:22:34Z</time>
      </trkpt>
      <trkpt lat="44.7928" lon="6.36505">
        <ele>2133.2</ele>
        <time>2024-08-12T06:22:35Z</time>
      </trkpt>
      <trkpt lat="44.7928" lon="6.36505">
        <ele>2133.4</ele>
        <time>2024-08-12T06:22:36Z</time>
      </trkpt>
      <trkpt lat="44.7928" lon="6.36505">
        <ele>2133.4</ele>
        <time>2024-08-12T06:22:37Z</time>
      </trkpt>
      <trkpt lat="44.79279" lon="6.36503">
        <ele>2133.8</ele>
        <time>2024-08-12T06:22:38Z</time>
      </trkpt>
      <trkpt lat="44.79279" lon="6.36503">
        <ele>2134</ele>
        <time>2024-08-12T06:22:39Z</time>
      </trkpt>
      <trkpt lat="44.79279" lon="6.36503">
        <ele>2134.2</ele>
        <time>2024-08-12T06:22:40Z</time>
      </trkpt>
      <trkpt lat="44.79279" lon="6.36503">
        <ele>2134.2</ele>
        <time>2024-08-12T06:22:41Z</time>
      </trkpt>
      <trkpt lat="44.79279" lon="6.36503">
        <ele>2134.2</ele>
        <time>2024-08-12T06:22:42Z</time>
      </trkpt>
      <trkpt lat="44.79279" lon="6.36503">
        <ele>2134.4</ele>
        <time>2024-08-12T06:22:43Z</time>
      </trkpt>
      <trkpt lat="44.79279" lon="6.36503">
        <ele>2134.6</ele>
        <time>2024-08-12T06:22:44Z</time>
      </trkpt>
      <trkpt lat="44.79279" lon="6.36503">
        <ele>2134.6</ele>
        <time>2024-08-12T06:22:45Z</time>
      </trkpt>
      <trkpt lat="44.79277" lon="6.36503">
        <ele>2134.6</ele>
        <time>2024-08-12T06:22:46Z</time>
      </trkpt>
      <trkpt lat="44.79277" lon="6.36503">
        <ele>2134.8</ele>
        <time>2024-08-12T06:22:47Z</time>
      </trkpt>
      <trkpt lat="44.79277" lon="6.36503">
        <ele>2135</ele>
        <time>2024-08-12T06:22:48Z</time>
      </trkpt>
      <trkpt lat="44.79274" lon="6.36504">
        <ele>2135</ele>
        <time>2024-08-12T06:22:49Z</time>
      </trkpt>
      <trkpt lat="44.79274" lon="6.36504">
        <ele>2135.6</ele>
        <time>2024-08-12T06:22:50Z</time>
      </trkpt>
      <trkpt lat="44.79272" lon="6.36504">
        <ele>2135.6</ele>
        <time>2024-08-12T06:22:51Z</time>
      </trkpt>
      <trkpt lat="44.79272" lon="6.36504">
        <ele>2135.8</ele>
        <time>2024-08-12T06:22:52Z</time>
      </trkpt>
      <trkpt lat="44.7927" lon="6.36503">
        <ele>2135.8</ele>
        <time>2024-08-12T06:22:53Z</time>
      </trkpt>
      <trkpt lat="44.7927" lon="6.36503">
        <ele>2135.8</ele>
        <time>2024-08-12T06:22:54Z</time>
      </trkpt>
      <trkpt lat="44.79268" lon="6.36502">
        <ele>2135.8</ele>
        <time>2024-08-12T06:22:55Z</time>
      </trkpt>
      <trkpt lat="44.79268" lon="6.36502">
        <ele>2135.8</ele>
        <time>2024-08-12T06:22:56Z</time>
      </trkpt>
      <trkpt lat="44.79266" lon="6.36502">
        <ele>2136</ele>
        <time>2024-08-12T06:22:57Z</time>
      </trkpt>
      <trkpt lat="44.79266" lon="6.36502">
        <ele>2136.2</ele>
        <time>2024-08-12T06:22:58Z</time>
      </trkpt>
      <trkpt lat="44.79264" lon="6.36501">
        <ele>2136.4</ele>
        <time>2024-08-12T06:22:59Z</time>
      </trkpt>
      <trkpt lat="44.79264" lon="6.36501">
        <ele>2136.6</ele>
        <time>2024-08-12T06:23:00Z</time>
      </trkpt>
      <trkpt lat="44.79262" lon="6.36501">
        <ele>2136.8</ele>
        <time>2024-08-12T06:23:01Z</time>
      </trkpt>
      <trkpt lat="44.79262" lon="6.36501">
        <ele>2136.6</ele>
        <time>2024-08-12T06:23:02Z</time>
      </trkpt>
      <trkpt lat="44.79261" lon="6.36499">
        <ele>2136.6</ele>
        <time>2024-08-12T06:23:03Z</time>
      </trkpt>
      <trkpt lat="44.79261" lon="6.36499">
        <ele>2136.8</ele>
        <time>2024-08-12T06:23:04Z</time>
      </trkpt>
      <trkpt lat="44.79259" lon="6.36498">
        <ele>2137</ele>
        <time>2024-08-12T06:23:05Z</time>
      </trkpt>
      <trkpt lat="44.79259" lon="6.36498">
        <ele>2137</ele>
        <time>2024-08-12T06:23:06Z</time>
      </trkpt>
      <trkpt lat="44.79257" lon="6.36497">
        <ele>2137</ele>
        <time>2024-08-12T06:23:07Z</time>
      </trkpt>
      <trkpt lat="44.79257" lon="6.36497">
        <ele>2137</ele>
        <time>2024-08-12T06:23:08Z</time>
      </trkpt>
      <trkpt lat="44.79257" lon="6.36497">
        <ele>2137.2</ele>
        <time>2024-08-12T06:23:09Z</time>
      </trkpt>
      <trkpt lat="44.79255" lon="6.36495">
        <ele>2137.6</ele>
        <time>2024-08-12T06:23:10Z</time>
      </trkpt>
      <trkpt lat="44.79255" lon="6.36495">
        <ele>2137.6</ele>
        <time>2024-08-12T06:23:11Z</time>
      </trkpt>
      <trkpt lat="44.79255" lon="6.36495">
        <ele>2137.6</ele>
        <time>2024-08-12T06:23:12Z</time>
      </trkpt>
      <trkpt lat="44.79253" lon="6.36494">
        <ele>2137.8</ele>
        <time>2024-08-12T06:23:13Z</time>
      </trkpt>
      <trkpt lat="44.79253" lon="6.36494">
        <ele>2137.8</ele>
        <time>2024-08-12T06:23:14Z</time>
      </trkpt>
      <trkpt lat="44.79253" lon="6.36494">
        <ele>2138</ele>
        <time>2024-08-12T06:23:15Z</time>
      </trkpt>
      <trkpt lat="44.79253" lon="6.36494">
        <ele>2138.2</ele>
        <time>2024-08-12T06:23:16Z</time>
      </trkpt>
      <trkpt lat="44.79253" lon="6.36494">
        <ele>2138.2</ele>
        <time>2024-08-12T06:23:17Z</time>
      </trkpt>
      <trkpt lat="44.79253" lon="6.36494">
        <ele>2138</ele>
        <time>2024-08-12T06:23:18Z</time>
      </trkpt>
      <trkpt lat="44.79253" lon="6.36494">
        <ele>2138</ele>
        <time>2024-08-12T06:23:19Z</time>
      </trkpt>
      <trkpt lat="44.79253" lon="6.36491">
        <ele>2138</ele>
        <time>2024-08-12T06:23:20Z</time>
      </trkpt>
      <trkpt lat="44.79253" lon="6.36491">
        <ele>2138.2</ele>
        <time>2024-08-12T06:23:21Z</time>
      </trkpt>
      <trkpt lat="44.79253" lon="6.36491">
        <ele>2138.2</ele>
        <time>2024-08-12T06:23:22Z</time>
      </trkpt>
      <trkpt lat="44.79251" lon="6.36488">
        <ele>2138</ele>
        <time>2024-08-12T06:23:23Z</time>
      </trkpt>
      <trkpt lat="44.79251" lon="6.36488">
        <ele>2138</ele>
        <time>2024-08-12T06:23:24Z</time>
      </trkpt>
      <trkpt lat="44.79251" lon="6.36488">
        <ele>2138.4</ele>
        <time>2024-08-12T06:23:25Z</time>
      </trkpt>
      <trkpt lat="44.79249" lon="6.36487">
        <ele>2138.8</ele>
        <time>2024-08-12T06:23:26Z</time>
      </trkpt>
      <trkpt lat="44.79249" lon="6.36487">
        <ele>2138.8</ele>
        <time>2024-08-12T06:23:27Z</time>
      </trkpt>
      <trkpt lat="44.79249" lon="6.36487">
        <ele>2138.8</ele>
        <time>2024-08-12T06:23:28Z</time>
      </trkpt>
      <trkpt lat="44.79246" lon="6.36486">
        <ele>2138.8</ele>
        <time>2024-08-12T06:23:29Z</time>
      </trkpt>
      <trkpt lat="44.79246" lon="6.36486">
        <ele>2138.8</ele>
        <time>2024-08-12T06:23:30Z</time>
      </trkpt>
      <trkpt lat="44.79245" lon="6.36485">
        <ele>2138.8</ele>
        <time>2024-08-12T06:23:31Z</time>
      </trkpt>
      <trkpt lat="44.79245" lon="6.36485">
        <ele>2139</ele>
        <time>2024-08-12T06:23:32Z</time>
      </trkpt>
      <trkpt lat="44.79245" lon="6.36485">
        <ele>2139.2</ele>
        <time>2024-08-12T06:23:33Z</time>
      </trkpt>
      <trkpt lat="44.79242" lon="6.36483">
        <ele>2139.6</ele>
        <time>2024-08-12T06:23:34Z</time>
      </trkpt>
      <trkpt lat="44.79242" lon="6.36483">
        <ele>2139.6</ele>
        <time>2024-08-12T06:23:35Z</time>
      </trkpt>
      <trkpt lat="44.79242" lon="6.36483">
        <ele>2139.6</ele>
        <time>2024-08-12T06:23:36Z</time>
      </trkpt>
      <trkpt lat="44.7924" lon="6.36482">
        <ele>2139.6</ele>
        <time>2024-08-12T06:23:37Z</time>
      </trkpt>
      <trkpt lat="44.7924" lon="6.36482">
        <ele>2140</ele>
        <time>2024-08-12T06:23:38Z</time>
      </trkpt>
      <trkpt lat="44.7924" lon="6.36482">
        <ele>2140</ele>
        <time>2024-08-12T06:23:39Z</time>
      </trkpt>
      <trkpt lat="44.79238" lon="6.3648">
        <ele>2140</ele>
        <time>2024-08-12T06:23:40Z</time>
      </trkpt>
      <trkpt lat="44.79238" lon="6.3648">
        <ele>2140.2</ele>
        <time>2024-08-12T06:23:41Z</time>
      </trkpt>
      <trkpt lat="44.79236" lon="6.3648">
        <ele>2140.2</ele>
        <time>2024-08-12T06:23:42Z</time>
      </trkpt>
      <trkpt lat="44.79236" lon="6.3648">
        <ele>2140.4</ele>
        <time>2024-08-12T06:23:43Z</time>
      </trkpt>
      <trkpt lat="44.79234" lon="6.36479">
        <ele>2140.4</ele>
        <time>2024-08-12T06:23:44Z</time>
      </trkpt>
      <trkpt lat="44.79234" lon="6.36479">
        <ele>2140.4</ele>
        <time>2024-08-12T06:23:45Z</time>
      </trkpt>
      <trkpt lat="44.79234" lon="6.36479">
        <ele>2140.2</ele>
        <time>2024-08-12T06:23:46Z</time>
      </trkpt>
      <trkpt lat="44.79232" lon="6.36478">
        <ele>2140.6</ele>
        <time>2024-08-12T06:23:47Z</time>
      </trkpt>
      <trkpt lat="44.79232" lon="6.36478">
        <ele>2140.6</ele>
        <time>2024-08-12T06:23:48Z</time>
      </trkpt>
      <trkpt lat="44.79232" lon="6.36478">
        <ele>2140.6</ele>
        <time>2024-08-12T06:23:49Z</time>
      </trkpt>
      <trkpt lat="44.79229" lon="6.36477">
        <ele>2140.8</ele>
        <time>2024-08-12T06:23:50Z</time>
      </trkpt>
      <trkpt lat="44.79229" lon="6.36477">
        <ele>2140.8</ele>
        <time>2024-08-12T06:23:51Z</time>
      </trkpt>
      <trkpt lat="44.79229" lon="6.36477">
        <ele>2140.8</ele>
        <time>2024-08-12T06:23:52Z</time>
      </trkpt>
      <trkpt lat="44.79227" lon="6.36476">
        <ele>2140.8</ele>
        <time>2024-08-12T06:23:53Z</time>
      </trkpt>
      <trkpt lat="44.79227" lon="6.36476">
        <ele>2140.8</ele>
        <time>2024-08-12T06:23:54Z</time>
      </trkpt>
      <trkpt lat="44.79225" lon="6.36475">
        <ele>2140.8</ele>
        <time>2024-08-12T06:23:55Z</time>
      </trkpt>
      <trkpt lat="44.79225" lon="6.36475">
        <ele>2141</ele>
        <time>2024-08-12T06:23:56Z</time>
      </trkpt>
      <trkpt lat="44.79223" lon="6.36474">
        <ele>2141</ele>
        <time>2024-08-12T06:23:57Z</time>
      </trkpt>
      <trkpt lat="44.79223" lon="6.36474">
        <ele>2141.2</ele>
        <time>2024-08-12T06:23:58Z</time>
      </trkpt>
      <trkpt lat="44.79223" lon="6.36474">
        <ele>2141.4</ele>
        <time>2024-08-12T06:23:59Z</time>
      </trkpt>
      <trkpt lat="44.7922" lon="6.36472">
        <ele>2141.4</ele>
        <time>2024-08-12T06:24:00Z</time>
      </trkpt>
      <trkpt lat="44.7922" lon="6.36472">
        <ele>2141.6</ele>
        <time>2024-08-12T06:24:01Z</time>
      </trkpt>
      <trkpt lat="44.7922" lon="6.36472">
        <ele>2141.8</ele>
        <time>2024-08-12T06:24:02Z</time>
      </trkpt>
      <trkpt lat="44.7922" lon="6.36472">
        <ele>2141.8</ele>
        <time>2024-08-12T06:24:03Z</time>
      </trkpt>
      <trkpt lat="44.79218" lon="6.36471">
        <ele>2142.2</ele>
        <time>2024-08-12T06:24:04Z</time>
      </trkpt>
      <trkpt lat="44.79218" lon="6.36471">
        <ele>2142.6</ele>
        <time>2024-08-12T06:24:05Z</time>
      </trkpt>
      <trkpt lat="44.79216" lon="6.36469">
        <ele>2142.8</ele>
        <time>2024-08-12T06:24:06Z</time>
      </trkpt>
      <trkpt lat="44.79216" lon="6.36469">
        <ele>2142.8</ele>
        <time>2024-08-12T06:24:07Z</time>
      </trkpt>
      <trkpt lat="44.79216" lon="6.36469">
        <ele>2143</ele>
        <time>2024-08-12T06:24:08Z</time>
      </trkpt>
      <trkpt lat="44.79214" lon="6.36469">
        <ele>2143</ele>
        <time>2024-08-12T06:24:09Z</time>
      </trkpt>
      <trkpt lat="44.79214" lon="6.36469">
        <ele>2143</ele>
        <time>2024-08-12T06:24:10Z</time>
      </trkpt>
      <trkpt lat="44.79214" lon="6.36469">
        <ele>2143.2</ele>
        <time>2024-08-12T06:24:11Z</time>
      </trkpt>
      <trkpt lat="44.79212" lon="6.36468">
        <ele>2143.2</ele>
        <time>2024-08-12T06:24:12Z</time>
      </trkpt>
      <trkpt lat="44.79212" lon="6.36468">
        <ele>2143.4</ele>
        <time>2024-08-12T06:24:13Z</time>
      </trkpt>
      <trkpt lat="44.7921" lon="6.36468">
        <ele>2143.6</ele>
        <time>2024-08-12T06:24:14Z</time>
      </trkpt>
      <trkpt lat="44.7921" lon="6.36468">
        <ele>2143.6</ele>
        <time>2024-08-12T06:24:15Z</time>
      </trkpt>
      <trkpt lat="44.7921" lon="6.36468">
        <ele>2143.6</ele>
        <time>2024-08-12T06:24:16Z</time>
      </trkpt>
      <trkpt lat="44.79208" lon="6.36466">
        <ele>2143.8</ele>
        <time>2024-08-12T06:24:17Z</time>
      </trkpt>
      <trkpt lat="44.79208" lon="6.36466">
        <ele>2143.8</ele>
        <time>2024-08-12T06:24:18Z</time>
      </trkpt>
      <trkpt lat="44.79208" lon="6.36466">
        <ele>2144</ele>
        <time>2024-08-12T06:24:19Z</time>
      </trkpt>
      <trkpt lat="44.79206" lon="6.36465">
        <ele>2144.2</ele>
        <time>2024-08-12T06:24:20Z</time>
      </trkpt>
      <trkpt lat="44.79206" lon="6.36465">
        <ele>2144.6</ele>
        <time>2024-08-12T06:24:21Z</time>
      </trkpt>
      <trkpt lat="44.79206" lon="6.36465">
        <ele>2144.8</ele>
        <time>2024-08-12T06:24:22Z</time>
      </trkpt>
      <trkpt lat="44.79203" lon="6.36464">
        <ele>2144.8</ele>
        <time>2024-08-12T06:24:23Z</time>
      </trkpt>
      <trkpt lat="44.79203" lon="6.36464">
        <ele>2144.8</ele>
        <time>2024-08-12T06:24:24Z</time>
      </trkpt>
      <trkpt lat="44.79203" lon="6.36464">
        <ele>2145</ele>
        <time>2024-08-12T06:24:25Z</time>
      </trkpt>
      <trkpt lat="44.792" lon="6.36463">
        <ele>2145.2</ele>
        <time>2024-08-12T06:24:26Z</time>
      </trkpt>
      <trkpt lat="44.792" lon="6.36463">
        <ele>2145.4</ele>
        <time>2024-08-12T06:24:27Z</time>
      </trkpt>
      <trkpt lat="44.792" lon="6.36463">
        <ele>2145.4</ele>
        <time>2024-08-12T06:24:28Z</time>
      </trkpt>
      <trkpt lat="44.79198" lon="6.36461">
        <ele>2145.4</ele>
        <time>2024-08-12T06:24:29Z</time>
      </trkpt>
      <trkpt lat="44.79198" lon="6.36461">
        <ele>2145.6</ele>
        <time>2024-08-12T06:24:30Z</time>
      </trkpt>
      <trkpt lat="44.79198" lon="6.36461">
        <ele>2145.6</ele>
        <time>2024-08-12T06:24:31Z</time>
      </trkpt>
      <trkpt lat="44.79196" lon="6.3646">
        <ele>2146</ele>
        <time>2024-08-12T06:24:32Z</time>
      </trkpt>
      <trkpt lat="44.79196" lon="6.3646">
        <ele>2146</ele>
        <time>2024-08-12T06:24:33Z</time>
      </trkpt>
      <trkpt lat="44.79194" lon="6.36459">
        <ele>2146.2</ele>
        <time>2024-08-12T06:24:34Z</time>
      </trkpt>
      <trkpt lat="44.79194" lon="6.36459">
        <ele>2146.4</ele>
        <time>2024-08-12T06:24:35Z</time>
      </trkpt>
      <trkpt lat="44.79193" lon="6.36457">
        <ele>2146.4</ele>
        <time>2024-08-12T06:24:36Z</time>
      </trkpt>
      <trkpt lat="44.79193" lon="6.36457">
        <ele>2146.4</ele>
        <time>2024-08-12T06:24:37Z</time>
      </trkpt>
      <trkpt lat="44.79193" lon="6.36457">
        <ele>2146.4</ele>
        <time>2024-08-12T06:24:38Z</time>
      </trkpt>
      <trkpt lat="44.79191" lon="6.36455">
        <ele>2146.4</ele>
        <time>2024-08-12T06:24:39Z</time>
      </trkpt>
      <trkpt lat="44.79191" lon="6.36455">
        <ele>2147</ele>
        <time>2024-08-12T06:24:40Z</time>
      </trkpt>
      <trkpt lat="44.79191" lon="6.36455">
        <ele>2147</ele>
        <time>2024-08-12T06:24:41Z</time>
      </trkpt>
      <trkpt lat="44.79189" lon="6.36452">
        <ele>2147</ele>
        <time>2024-08-12T06:24:42Z</time>
      </trkpt>
      <trkpt lat="44.79189" lon="6.36452">
        <ele>2147</ele>
        <time>2024-08-12T06:24:43Z</time>
      </trkpt>
      <trkpt lat="44.79189" lon="6.36452">
        <ele>2147.2</ele>
        <time>2024-08-12T06:24:44Z</time>
      </trkpt>
      <trkpt lat="44.79187" lon="6.36449">
        <ele>2147.2</ele>
        <time>2024-08-12T06:24:45Z</time>
      </trkpt>
      <trkpt lat="44.79187" lon="6.36449">
        <ele>2147.2</ele>
        <time>2024-08-12T06:24:46Z</time>
      </trkpt>
      <trkpt lat="44.79185" lon="6.36448">
        <ele>2147.4</ele>
        <time>2024-08-12T06:24:47Z</time>
      </trkpt>
      <trkpt lat="44.79185" lon="6.36448">
        <ele>2147.6</ele>
        <time>2024-08-12T06:24:48Z</time>
      </trkpt>
      <trkpt lat="44.79185" lon="6.36448">
        <ele>2147.6</ele>
        <time>2024-08-12T06:24:49Z</time>
      </trkpt>
      <trkpt lat="44.79184" lon="6.36445">
        <ele>2147.6</ele>
        <time>2024-08-12T06:24:50Z</time>
      </trkpt>
      <trkpt lat="44.79184" lon="6.36445">
        <ele>2147.8</ele>
        <time>2024-08-12T06:24:51Z</time>
      </trkpt>
      <trkpt lat="44.79183" lon="6.36442">
        <ele>2148.2</ele>
        <time>2024-08-12T06:24:52Z</time>
      </trkpt>
      <trkpt lat="44.79183" lon="6.36442">
        <ele>2148.4</ele>
        <time>2024-08-12T06:24:53Z</time>
      </trkpt>
      <trkpt lat="44.79183" lon="6.36442">
        <ele>2148.4</ele>
        <time>2024-08-12T06:24:54Z</time>
      </trkpt>
      <trkpt lat="44.79182" lon="6.36439">
        <ele>2148.4</ele>
        <time>2024-08-12T06:24:55Z</time>
      </trkpt>
      <trkpt lat="44.79182" lon="6.36439">
        <ele>2148.4</ele>
        <time>2024-08-12T06:24:56Z</time>
      </trkpt>
      <trkpt lat="44.79182" lon="6.36439">
        <ele>2148.4</ele>
        <time>2024-08-12T06:24:57Z</time>
      </trkpt>
      <trkpt lat="44.7918" lon="6.36437">
        <ele>2148.4</ele>
        <time>2024-08-12T06:24:58Z</time>
      </trkpt>
      <trkpt lat="44.7918" lon="6.36437">
        <ele>2148.6</ele>
        <time>2024-08-12T06:24:59Z</time>
      </trkpt>
      <trkpt lat="44.7918" lon="6.36437">
        <ele>2149</ele>
        <time>2024-08-12T06:25:00Z</time>
      </trkpt>
      <trkpt lat="44.79179" lon="6.36434">
        <ele>2149</ele>
        <time>2024-08-12T06:25:01Z</time>
      </trkpt>
      <trkpt lat="44.79179" lon="6.36434">
        <ele>2149</ele>
        <time>2024-08-12T06:25:02Z</time>
      </trkpt>
      <trkpt lat="44.79179" lon="6.36434">
        <ele>2149</ele>
        <time>2024-08-12T06:25:03Z</time>
      </trkpt>
      <trkpt lat="44.79178" lon="6.3643">
        <ele>2149.2</ele>
        <time>2024-08-12T06:25:04Z</time>
      </trkpt>
      <trkpt lat="44.79178" lon="6.3643">
        <ele>2149.2</ele>
        <time>2024-08-12T06:25:05Z</time>
      </trkpt>
      <trkpt lat="44.79176" lon="6.36428">
        <ele>2149.2</ele>
        <time>2024-08-12T06:25:06Z</time>
      </trkpt>
      <trkpt lat="44.79176" lon="6.36428">
        <ele>2149.2</ele>
        <time>2024-08-12T06:25:07Z</time>
      </trkpt>
      <trkpt lat="44.79176" lon="6.36428">
        <ele>2149.4</ele>
        <time>2024-08-12T06:25:08Z</time>
      </trkpt>
      <trkpt lat="44.79174" lon="6.36427">
        <ele>2149.4</ele>
        <time>2024-08-12T06:25:09Z</time>
      </trkpt>
      <trkpt lat="44.79174" lon="6.36427">
        <ele>2149.4</ele>
        <time>2024-08-12T06:25:10Z</time>
      </trkpt>
      <trkpt lat="44.79174" lon="6.36427">
        <ele>2149.4</ele>
        <time>2024-08-12T06:25:11Z</time>
      </trkpt>
      <trkpt lat="44.79174" lon="6.36427">
        <ele>2149.6</ele>
        <time>2024-08-12T06:25:12Z</time>
      </trkpt>
      <trkpt lat="44.79172" lon="6.36426">
        <ele>2149.8</ele>
        <time>2024-08-12T06:25:13Z</time>
      </trkpt>
      <trkpt lat="44.79172" lon="6.36426">
        <ele>2150</ele>
        <time>2024-08-12T06:25:14Z</time>
      </trkpt>
      <trkpt lat="44.79172" lon="6.36426">
        <ele>2150</ele>
        <time>2024-08-12T06:25:15Z</time>
      </trkpt>
      <trkpt lat="44.79171" lon="6.36423">
        <ele>2150.2</ele>
        <time>2024-08-12T06:25:16Z</time>
      </trkpt>
      <trkpt lat="44.79171" lon="6.36423">
        <ele>2150.4</ele>
        <time>2024-08-12T06:25:17Z</time>
      </trkpt>
      <trkpt lat="44.79171" lon="6.36423">
        <ele>2150.4</ele>
        <time>2024-08-12T06:25:18Z</time>
      </trkpt>
      <trkpt lat="44.79171" lon="6.3642">
        <ele>2150.6</ele>
        <time>2024-08-12T06:25:19Z</time>
      </trkpt>
      <trkpt lat="44.79171" lon="6.3642">
        <ele>2150.6</ele>
        <time>2024-08-12T06:25:20Z</time>
      </trkpt>
      <trkpt lat="44.79172" lon="6.36418">
        <ele>2150.6</ele>
        <time>2024-08-12T06:25:21Z</time>
      </trkpt>
      <trkpt lat="44.79172" lon="6.36418">
        <ele>2150.6</ele>
        <time>2024-08-12T06:25:22Z</time>
      </trkpt>
      <trkpt lat="44.79172" lon="6.36418">
        <ele>2150.4</ele>
        <time>2024-08-12T06:25:23Z</time>
      </trkpt>
      <trkpt lat="44.79173" lon="6.36415">
        <ele>2150.6</ele>
        <time>2024-08-12T06:25:24Z</time>
      </trkpt>
      <trkpt lat="44.79173" lon="6.36415">
        <ele>2150.6</ele>
        <time>2024-08-12T06:25:25Z</time>
      </trkpt>
      <trkpt lat="44.79174" lon="6.36413">
        <ele>2150.6</ele>
        <time>2024-08-12T06:25:26Z</time>
      </trkpt>
      <trkpt lat="44.79174" lon="6.36413">
        <ele>2151</ele>
        <time>2024-08-12T06:25:27Z</time>
      </trkpt>
      <trkpt lat="44.79174" lon="6.36413">
        <ele>2151.2</ele>
        <time>2024-08-12T06:25:28Z</time>
      </trkpt>
      <trkpt lat="44.79175" lon="6.3641">
        <ele>2151.4</ele>
        <time>2024-08-12T06:25:29Z</time>
      </trkpt>
      <trkpt lat="44.79175" lon="6.3641">
        <ele>2151.4</ele>
        <time>2024-08-12T06:25:30Z</time>
      </trkpt>
      <trkpt lat="44.79175" lon="6.3641">
        <ele>2151.6</ele>
        <time>2024-08-12T06:25:31Z</time>
      </trkpt>
      <trkpt lat="44.79176" lon="6.36407">
        <ele>2151.6</ele>
        <time>2024-08-12T06:25:32Z</time>
      </trkpt>
      <trkpt lat="44.79176" lon="6.36407">
        <ele>2151.6</ele>
        <time>2024-08-12T06:25:33Z</time>
      </trkpt>
      <trkpt lat="44.79176" lon="6.36405">
        <ele>2151.8</ele>
        <time>2024-08-12T06:25:34Z</time>
      </trkpt>
      <trkpt lat="44.79176" lon="6.36405">
        <ele>2151.8</ele>
        <time>2024-08-12T06:25:35Z</time>
      </trkpt>
      <trkpt lat="44.79177" lon="6.36402">
        <ele>2152</ele>
        <time>2024-08-12T06:25:36Z</time>
      </trkpt>
      <trkpt lat="44.79177" lon="6.36402">
        <ele>2152</ele>
        <time>2024-08-12T06:25:37Z</time>
      </trkpt>
      <trkpt lat="44.79177" lon="6.36402">
        <ele>2152.2</ele>
        <time>2024-08-12T06:25:38Z</time>
      </trkpt>
      <trkpt lat="44.79178" lon="6.36399">
        <ele>2152.4</ele>
        <time>2024-08-12T06:25:39Z</time>
      </trkpt>
      <trkpt lat="44.79178" lon="6.36399">
        <ele>2152.6</ele>
        <time>2024-08-12T06:25:40Z</time>
      </trkpt>
      <trkpt lat="44.79178" lon="6.36399">
        <ele>2152.8</ele>
        <time>2024-08-12T06:25:41Z</time>
      </trkpt>
      <trkpt lat="44.79179" lon="6.36396">
        <ele>2153</ele>
        <time>2024-08-12T06:25:42Z</time>
      </trkpt>
      <trkpt lat="44.79179" lon="6.36396">
        <ele>2153</ele>
        <time>2024-08-12T06:25:43Z</time>
      </trkpt>
      <trkpt lat="44.79178" lon="6.36394">
        <ele>2153.4</ele>
        <time>2024-08-12T06:25:44Z</time>
      </trkpt>
      <trkpt lat="44.79178" lon="6.36394">
        <ele>2153.4</ele>
        <time>2024-08-12T06:25:45Z</time>
      </trkpt>
      <trkpt lat="44.79178" lon="6.36394">
        <ele>2153.6</ele>
        <time>2024-08-12T06:25:46Z</time>
      </trkpt>
      <trkpt lat="44.79178" lon="6.36391">
        <ele>2153.8</ele>
        <time>2024-08-12T06:25:47Z</time>
      </trkpt>
      <trkpt lat="44.79178" lon="6.36391">
        <ele>2154</ele>
        <time>2024-08-12T06:25:48Z</time>
      </trkpt>
      <trkpt lat="44.79178" lon="6.36391">
        <ele>2154</ele>
        <time>2024-08-12T06:25:49Z</time>
      </trkpt>
      <trkpt lat="44.79178" lon="6.36388">
        <ele>2154.2</ele>
        <time>2024-08-12T06:25:50Z</time>
      </trkpt>
      <trkpt lat="44.79178" lon="6.36388">
        <ele>2154.4</ele>
        <time>2024-08-12T06:25:51Z</time>
      </trkpt>
      <trkpt lat="44.79178" lon="6.36388">
        <ele>2154.4</ele>
        <time>2024-08-12T06:25:52Z</time>
      </trkpt>
      <trkpt lat="44.79177" lon="6.36385">
        <ele>2154.4</ele>
        <time>2024-08-12T06:25:53Z</time>
      </trkpt>
      <trkpt lat="44.79177" lon="6.36385">
        <ele>2154.6</ele>
        <time>2024-08-12T06:25:54Z</time>
      </trkpt>
      <trkpt lat="44.79177" lon="6.36385">
        <ele>2154.8</ele>
        <time>2024-08-12T06:25:55Z</time>
      </trkpt>
      <trkpt lat="44.79176" lon="6.36383">
        <ele>2155</ele>
        <time>2024-08-12T06:25:56Z</time>
      </trkpt>
      <trkpt lat="44.79176" lon="6.36383">
        <ele>2155.2</ele>
        <time>2024-08-12T06:25:57Z</time>
      </trkpt>
      <trkpt lat="44.79176" lon="6.36383">
        <ele>2155.4</ele>
        <time>2024-08-12T06:25:58Z</time>
      </trkpt>
      <trkpt lat="44.79174" lon="6.36381">
        <ele>2155.4</ele>
        <time>2024-08-12T06:25:59Z</time>
      </trkpt>
      <trkpt lat="44.79174" lon="6.36381">
        <ele>2155.8</ele>
        <time>2024-08-12T06:26:00Z</time>
      </trkpt>
      <trkpt lat="44.79174" lon="6.36381">
        <ele>2156</ele>
        <time>2024-08-12T06:26:01Z</time>
      </trkpt>
      <trkpt lat="44.79174" lon="6.36381">
        <ele>2156</ele>
        <time>2024-08-12T06:26:02Z</time>
      </trkpt>
      <trkpt lat="44.79174" lon="6.36381">
        <ele>2156</ele>
        <time>2024-08-12T06:26:03Z</time>
      </trkpt>
      <trkpt lat="44.79174" lon="6.36381">
        <ele>2155.8</ele>
        <time>2024-08-12T06:26:04Z</time>
      </trkpt>
      <trkpt lat="44.79174" lon="6.36381">
        <ele>2155.8</ele>
        <time>2024-08-12T06:26:05Z</time>
      </trkpt>
      <trkpt lat="44.79174" lon="6.36381">
        <ele>2155.8</ele>
        <time>2024-08-12T06:26:06Z</time>
      </trkpt>
      <trkpt lat="44.79174" lon="6.36381">
        <ele>2155.8</ele>
        <time>2024-08-12T06:26:07Z</time>
      </trkpt>
      <trkpt lat="44.79174" lon="6.36381">
        <ele>2155.8</ele>
        <time>2024-08-12T06:26:08Z</time>
      </trkpt>
      <trkpt lat="44.79174" lon="6.36381">
        <ele>2155.8</ele>
        <time>2024-08-12T06:26:09Z</time>
      </trkpt>
      <trkpt lat="44.79174" lon="6.36381">
        <ele>2155.8</ele>
        <time>2024-08-12T06:26:10Z</time>
      </trkpt>
      <trkpt lat="44.79174" lon="6.36381">
        <ele>2155.8</ele>
        <time>2024-08-12T06:26:11Z</time>
      </trkpt>
      <trkpt lat="44.79174" lon="6.36381">
        <ele>2155.8</ele>
        <time>2024-08-12T06:26:12Z</time>
      </trkpt>
      <trkpt lat="44.79174" lon="6.36381">
        <ele>2156</ele>
        <time>2024-08-12T06:26:13Z</time>
      </trkpt>
      <trkpt lat="44.79174" lon="6.36381">
        <ele>2156.4</ele>
        <time>2024-08-12T06:26:14Z</time>
      </trkpt>
      <trkpt lat="44.79172" lon="6.3638">
        <ele>2156.6</ele>
        <time>2024-08-12T06:26:15Z</time>
      </trkpt>
      <trkpt lat="44.79172" lon="6.3638">
        <ele>2156.6</ele>
        <time>2024-08-12T06:26:16Z</time>
      </trkpt>
      <trkpt lat="44.7917" lon="6.36378">
        <ele>2156.6</ele>
        <time>2024-08-12T06:26:17Z</time>
      </trkpt>
      <trkpt lat="44.7917" lon="6.36378">
        <ele>2157</ele>
        <time>2024-08-12T06:26:18Z</time>
      </trkpt>
      <trkpt lat="44.79168" lon="6.36376">
        <ele>2157.2</ele>
        <time>2024-08-12T06:26:19Z</time>
      </trkpt>
      <trkpt lat="44.79168" lon="6.36376">
        <ele>2157.4</ele>
        <time>2024-08-12T06:26:20Z</time>
      </trkpt>
      <trkpt lat="44.79167" lon="6.36374">
        <ele>2157.4</ele>
        <time>2024-08-12T06:26:21Z</time>
      </trkpt>
      <trkpt lat="44.79167" lon="6.36374">
        <ele>2157.6</ele>
        <time>2024-08-12T06:26:22Z</time>
      </trkpt>
      <trkpt lat="44.79167" lon="6.36374">
        <ele>2157.8</ele>
        <time>2024-08-12T06:26:23Z</time>
      </trkpt>
      <trkpt lat="44.79165" lon="6.36373">
        <ele>2158</ele>
        <time>2024-08-12T06:26:24Z</time>
      </trkpt>
      <trkpt lat="44.79165" lon="6.36373">
        <ele>2158</ele>
        <time>2024-08-12T06:26:25Z</time>
      </trkpt>
      <trkpt lat="44.79165" lon="6.36373">
        <ele>2158.4</ele>
        <time>2024-08-12T06:26:26Z</time>
      </trkpt>
      <trkpt lat="44.79163" lon="6.36371">
        <ele>2158.8</ele>
        <time>2024-08-12T06:26:27Z</time>
      </trkpt>
      <trkpt lat="44.79163" lon="6.36371">
        <ele>2158.8</ele>
        <time>2024-08-12T06:26:28Z</time>
      </trkpt>
      <trkpt lat="44.79163" lon="6.36371">
        <ele>2158.8</ele>
        <time>2024-08-12T06:26:29Z</time>
      </trkpt>
      <trkpt lat="44.79163" lon="6.36371">
        <ele>2158.8</ele>
        <time>2024-08-12T06:26:30Z</time>
      </trkpt>
      <trkpt lat="44.79161" lon="6.36369">
        <ele>2159.2</ele>
        <time>2024-08-12T06:26:31Z</time>
      </trkpt>
      <trkpt lat="44.79161" lon="6.36369">
        <ele>2159.4</ele>
        <time>2024-08-12T06:26:32Z</time>
      </trkpt>
      <trkpt lat="44.79161" lon="6.36369">
        <ele>2159.8</ele>
        <time>2024-08-12T06:26:33Z</time>
      </trkpt>
      <trkpt lat="44.79159" lon="6.36368">
        <ele>2159.8</ele>
        <time>2024-08-12T06:26:34Z</time>
      </trkpt>
      <trkpt lat="44.79159" lon="6.36368">
        <ele>2159.8</ele>
        <time>2024-08-12T06:26:35Z</time>
      </trkpt>
      <trkpt lat="44.79159" lon="6.36368">
        <ele>2160</ele>
        <time>2024-08-12T06:26:36Z</time>
      </trkpt>
      <trkpt lat="44.79159" lon="6.36368">
        <ele>2160.2</ele>
        <time>2024-08-12T06:26:37Z</time>
      </trkpt>
      <trkpt lat="44.79157" lon="6.36366">
        <ele>2160.2</ele>
        <time>2024-08-12T06:26:38Z</time>
      </trkpt>
      <trkpt lat="44.79157" lon="6.36366">
        <ele>2160.2</ele>
        <time>2024-08-12T06:26:39Z</time>
      </trkpt>
      <trkpt lat="44.79157" lon="6.36366">
        <ele>2160.2</ele>
        <time>2024-08-12T06:26:40Z</time>
      </trkpt>
      <trkpt lat="44.79155" lon="6.36365">
        <ele>2160.6</ele>
        <time>2024-08-12T06:26:41Z</time>
      </trkpt>
      <trkpt lat="44.79155" lon="6.36365">
        <ele>2160.8</ele>
        <time>2024-08-12T06:26:42Z</time>
      </trkpt>
      <trkpt lat="44.79155" lon="6.36365">
        <ele>2160.8</ele>
        <time>2024-08-12T06:26:43Z</time>
      </trkpt>
      <trkpt lat="44.79153" lon="6.36364">
        <ele>2161.2</ele>
        <time>2024-08-12T06:26:44Z</time>
      </trkpt>
      <trkpt lat="44.79153" lon="6.36364">
        <ele>2161.4</ele>
        <time>2024-08-12T06:26:45Z</time>
      </trkpt>
      <trkpt lat="44.79153" lon="6.36364">
        <ele>2161.4</ele>
        <time>2024-08-12T06:26:46Z</time>
      </trkpt>
      <trkpt lat="44.79151" lon="6.36362">
        <ele>2161.4</ele>
        <time>2024-08-12T06:26:47Z</time>
      </trkpt>
      <trkpt lat="44.79151" lon="6.36362">
        <ele>2161.6</ele>
        <time>2024-08-12T06:26:48Z</time>
      </trkpt>
      <trkpt lat="44.79151" lon="6.36362">
        <ele>2161.6</ele>
        <time>2024-08-12T06:26:49Z</time>
      </trkpt>
      <trkpt lat="44.79149" lon="6.36363">
        <ele>2161.6</ele>
        <time>2024-08-12T06:26:50Z</time>
      </trkpt>
      <trkpt lat="44.79149" lon="6.36363">
        <ele>2161.6</ele>
        <time>2024-08-12T06:26:51Z</time>
      </trkpt>
      <trkpt lat="44.79149" lon="6.36363">
        <ele>2161.6</ele>
        <time>2024-08-12T06:26:52Z</time>
      </trkpt>
      <trkpt lat="44.79147" lon="6.36361">
        <ele>2161.6</ele>
        <time>2024-08-12T06:26:53Z</time>
      </trkpt>
      <trkpt lat="44.79147" lon="6.36361">
        <ele>2162</ele>
        <time>2024-08-12T06:26:54Z</time>
      </trkpt>
      <trkpt lat="44.79147" lon="6.36361">
        <ele>2162.4</ele>
        <time>2024-08-12T06:26:55Z</time>
      </trkpt>
      <trkpt lat="44.79147" lon="6.36361">
        <ele>2162.4</ele>
        <time>2024-08-12T06:26:56Z</time>
      </trkpt>
      <trkpt lat="44.79145" lon="6.3636">
        <ele>2162.6</ele>
        <time>2024-08-12T06:26:57Z</time>
      </trkpt>
      <trkpt lat="44.79145" lon="6.3636">
        <ele>2162.8</ele>
        <time>2024-08-12T06:26:58Z</time>
      </trkpt>
      <trkpt lat="44.79145" lon="6.3636">
        <ele>2163</ele>
        <time>2024-08-12T06:26:59Z</time>
      </trkpt>
      <trkpt lat="44.79143" lon="6.36361">
        <ele>2163</ele>
        <time>2024-08-12T06:27:00Z</time>
      </trkpt>
      <trkpt lat="44.79143" lon="6.36361">
        <ele>2163.2</ele>
        <time>2024-08-12T06:27:01Z</time>
      </trkpt>
      <trkpt lat="44.79141" lon="6.36362">
        <ele>2163.4</ele>
        <time>2024-08-12T06:27:02Z</time>
      </trkpt>
      <trkpt lat="44.79141" lon="6.36362">
        <ele>2163.4</ele>
        <time>2024-08-12T06:27:03Z</time>
      </trkpt>
      <trkpt lat="44.79139" lon="6.36362">
        <ele>2163.4</ele>
        <time>2024-08-12T06:27:04Z</time>
      </trkpt>
      <trkpt lat="44.79139" lon="6.36362">
        <ele>2163.2</ele>
        <time>2024-08-12T06:27:05Z</time>
      </trkpt>
      <trkpt lat="44.79137" lon="6.36363">
        <ele>2163.2</ele>
        <time>2024-08-12T06:27:06Z</time>
      </trkpt>
      <trkpt lat="44.79137" lon="6.36363">
        <ele>2163.4</ele>
        <time>2024-08-12T06:27:07Z</time>
      </trkpt>
      <trkpt lat="44.79137" lon="6.36363">
        <ele>2163.4</ele>
        <time>2024-08-12T06:27:08Z</time>
      </trkpt>
      <trkpt lat="44.79134" lon="6.36363">
        <ele>2163.4</ele>
        <time>2024-08-12T06:27:09Z</time>
      </trkpt>
      <trkpt lat="44.79134" lon="6.36363">
        <ele>2163.4</ele>
        <time>2024-08-12T06:27:10Z</time>
      </trkpt>
      <trkpt lat="44.79134" lon="6.36363">
        <ele>2163.6</ele>
        <time>2024-08-12T06:27:11Z</time>
      </trkpt>
      <trkpt lat="44.79132" lon="6.36362">
        <ele>2163.6</ele>
        <time>2024-08-12T06:27:12Z</time>
      </trkpt>
      <trkpt lat="44.79132" lon="6.36362">
        <ele>2163.8</ele>
        <time>2024-08-12T06:27:13Z</time>
      </trkpt>
      <trkpt lat="44.7913" lon="6.36361">
        <ele>2163.8</ele>
        <time>2024-08-12T06:27:14Z</time>
      </trkpt>
      <trkpt lat="44.7913" lon="6.36361">
        <ele>2163.8</ele>
        <time>2024-08-12T06:27:15Z</time>
      </trkpt>
      <trkpt lat="44.7913" lon="6.36361">
        <ele>2164.2</ele>
        <time>2024-08-12T06:27:16Z</time>
      </trkpt>
      <trkpt lat="44.79128" lon="6.3636">
        <ele>2164.2</ele>
        <time>2024-08-12T06:27:17Z</time>
      </trkpt>
      <trkpt lat="44.79128" lon="6.3636">
        <ele>2164.4</ele>
        <time>2024-08-12T06:27:18Z</time>
      </trkpt>
      <trkpt lat="44.79128" lon="6.3636">
        <ele>2164.4</ele>
        <time>2024-08-12T06:27:19Z</time>
      </trkpt>
      <trkpt lat="44.79127" lon="6.36358">
        <ele>2164.6</ele>
        <time>2024-08-12T06:27:20Z</time>
      </trkpt>
      <trkpt lat="44.79127" lon="6.36358">
        <ele>2165.2</ele>
        <time>2024-08-12T06:27:21Z</time>
      </trkpt>
      <trkpt lat="44.79127" lon="6.36358">
        <ele>2165.2</ele>
        <time>2024-08-12T06:27:22Z</time>
      </trkpt>
      <trkpt lat="44.79125" lon="6.36357">
        <ele>2165.2</ele>
        <time>2024-08-12T06:27:23Z</time>
      </trkpt>
      <trkpt lat="44.79125" lon="6.36357">
        <ele>2165.4</ele>
        <time>2024-08-12T06:27:24Z</time>
      </trkpt>
      <trkpt lat="44.79125" lon="6.36357">
        <ele>2165.4</ele>
        <time>2024-08-12T06:27:25Z</time>
      </trkpt>
      <trkpt lat="44.79125" lon="6.36357">
        <ele>2165.6</ele>
        <time>2024-08-12T06:27:26Z</time>
      </trkpt>
      <trkpt lat="44.79123" lon="6.36356">
        <ele>2166</ele>
        <time>2024-08-12T06:27:27Z</time>
      </trkpt>
      <trkpt lat="44.79123" lon="6.36356">
        <ele>2166.2</ele>
        <time>2024-08-12T06:27:28Z</time>
      </trkpt>
      <trkpt lat="44.79123" lon="6.36356">
        <ele>2166.4</ele>
        <time>2024-08-12T06:27:29Z</time>
      </trkpt>
      <trkpt lat="44.79121" lon="6.36354">
        <ele>2166.4</ele>
        <time>2024-08-12T06:27:30Z</time>
      </trkpt>
      <trkpt lat="44.79121" lon="6.36354">
        <ele>2166.6</ele>
        <time>2024-08-12T06:27:31Z</time>
      </trkpt>
      <trkpt lat="44.79121" lon="6.36354">
        <ele>2166.8</ele>
        <time>2024-08-12T06:27:32Z</time>
      </trkpt>
      <trkpt lat="44.79118" lon="6.36353">
        <ele>2166.8</ele>
        <time>2024-08-12T06:27:33Z</time>
      </trkpt>
      <trkpt lat="44.79118" lon="6.36353">
        <ele>2166.8</ele>
        <time>2024-08-12T06:27:34Z</time>
      </trkpt>
      <trkpt lat="44.79118" lon="6.36353">
        <ele>2166.8</ele>
        <time>2024-08-12T06:27:35Z</time>
      </trkpt>
      <trkpt lat="44.79116" lon="6.36353">
        <ele>2166.8</ele>
        <time>2024-08-12T06:27:36Z</time>
      </trkpt>
      <trkpt lat="44.79116" lon="6.36353">
        <ele>2167</ele>
        <time>2024-08-12T06:27:37Z</time>
      </trkpt>
      <trkpt lat="44.79116" lon="6.36353">
        <ele>2167.2</ele>
        <time>2024-08-12T06:27:38Z</time>
      </trkpt>
      <trkpt lat="44.79114" lon="6.36351">
        <ele>2167.4</ele>
        <time>2024-08-12T06:27:39Z</time>
      </trkpt>
      <trkpt lat="44.79114" lon="6.36351">
        <ele>2167.6</ele>
        <time>2024-08-12T06:27:40Z</time>
      </trkpt>
      <trkpt lat="44.79112" lon="6.3635">
        <ele>2167.8</ele>
        <time>2024-08-12T06:27:41Z</time>
      </trkpt>
      <trkpt lat="44.79112" lon="6.3635">
        <ele>2167.8</ele>
        <time>2024-08-12T06:27:42Z</time>
      </trkpt>
      <trkpt lat="44.79112" lon="6.3635">
        <ele>2167.8</ele>
        <time>2024-08-12T06:27:43Z</time>
      </trkpt>
      <trkpt lat="44.7911" lon="6.36348">
        <ele>2168</ele>
        <time>2024-08-12T06:27:44Z</time>
      </trkpt>
      <trkpt lat="44.7911" lon="6.36348">
        <ele>2168</ele>
        <time>2024-08-12T06:27:45Z</time>
      </trkpt>
      <trkpt lat="44.7911" lon="6.36348">
        <ele>2168.2</ele>
        <time>2024-08-12T06:27:46Z</time>
      </trkpt>
      <trkpt lat="44.79109" lon="6.36348">
        <ele>2168.6</ele>
        <time>2024-08-12T06:27:47Z</time>
      </trkpt>
      <trkpt lat="44.79109" lon="6.36348">
        <ele>2168.6</ele>
        <time>2024-08-12T06:27:48Z</time>
      </trkpt>
      <trkpt lat="44.79109" lon="6.36348">
        <ele>2169</ele>
        <time>2024-08-12T06:27:49Z</time>
      </trkpt>
      <trkpt lat="44.79107" lon="6.36346">
        <ele>2169.2</ele>
        <time>2024-08-12T06:27:50Z</time>
      </trkpt>
      <trkpt lat="44.79107" lon="6.36346">
        <ele>2169.6</ele>
        <time>2024-08-12T06:27:51Z</time>
      </trkpt>
      <trkpt lat="44.79107" lon="6.36346">
        <ele>2169.6</ele>
        <time>2024-08-12T06:27:52Z</time>
      </trkpt>
      <trkpt lat="44.79105" lon="6.36344">
        <ele>2169.8</ele>
        <time>2024-08-12T06:27:53Z</time>
      </trkpt>
      <trkpt lat="44.79105" lon="6.36344">
        <ele>2169.8</ele>
        <time>2024-08-12T06:27:54Z</time>
      </trkpt>
      <trkpt lat="44.79105" lon="6.36344">
        <ele>2170</ele>
        <time>2024-08-12T06:27:55Z</time>
      </trkpt>
      <trkpt lat="44.79103" lon="6.36342">
        <ele>2170</ele>
        <time>2024-08-12T06:27:56Z</time>
      </trkpt>
      <trkpt lat="44.79103" lon="6.36342">
        <ele>2170</ele>
        <time>2024-08-12T06:27:57Z</time>
      </trkpt>
      <trkpt lat="44.79103" lon="6.36342">
        <ele>2170.2</ele>
        <time>2024-08-12T06:27:58Z</time>
      </trkpt>
      <trkpt lat="44.79101" lon="6.36343">
        <ele>2170.4</ele>
        <time>2024-08-12T06:27:59Z</time>
      </trkpt>
      <trkpt lat="44.79101" lon="6.36343">
        <ele>2170.4</ele>
        <time>2024-08-12T06:28:00Z</time>
      </trkpt>
      <trkpt lat="44.79099" lon="6.36343">
        <ele>2170.6</ele>
        <time>2024-08-12T06:28:01Z</time>
      </trkpt>
      <trkpt lat="44.79099" lon="6.36343">
        <ele>2170.6</ele>
        <time>2024-08-12T06:28:02Z</time>
      </trkpt>
      <trkpt lat="44.79099" lon="6.36343">
        <ele>2170.6</ele>
        <time>2024-08-12T06:28:03Z</time>
      </trkpt>
      <trkpt lat="44.79096" lon="6.36343">
        <ele>2170.8</ele>
        <time>2024-08-12T06:28:04Z</time>
      </trkpt>
      <trkpt lat="44.79096" lon="6.36343">
        <ele>2171.2</ele>
        <time>2024-08-12T06:28:05Z</time>
      </trkpt>
      <trkpt lat="44.79096" lon="6.36343">
        <ele>2171.2</ele>
        <time>2024-08-12T06:28:06Z</time>
      </trkpt>
      <trkpt lat="44.79094" lon="6.36342">
        <ele>2171.4</ele>
        <time>2024-08-12T06:28:07Z</time>
      </trkpt>
      <trkpt lat="44.79094" lon="6.36342">
        <ele>2171.6</ele>
        <time>2024-08-12T06:28:08Z</time>
      </trkpt>
      <trkpt lat="44.79094" lon="6.36342">
        <ele>2171.8</ele>
        <time>2024-08-12T06:28:09Z</time>
      </trkpt>
      <trkpt lat="44.79092" lon="6.36342">
        <ele>2172</ele>
        <time>2024-08-12T06:28:10Z</time>
      </trkpt>
      <trkpt lat="44.79092" lon="6.36342">
        <ele>2172</ele>
        <time>2024-08-12T06:28:11Z</time>
      </trkpt>
      <trkpt lat="44.7909" lon="6.36341">
        <ele>2172.2</ele>
        <time>2024-08-12T06:28:12Z</time>
      </trkpt>
      <trkpt lat="44.7909" lon="6.36341">
        <ele>2172.2</ele>
        <time>2024-08-12T06:28:13Z</time>
      </trkpt>
      <trkpt lat="44.7909" lon="6.36341">
        <ele>2172.4</ele>
        <time>2024-08-12T06:28:14Z</time>
      </trkpt>
      <trkpt lat="44.79087" lon="6.3634">
        <ele>2172.6</ele>
        <time>2024-08-12T06:28:15Z</time>
      </trkpt>
      <trkpt lat="44.79087" lon="6.3634">
        <ele>2172.6</ele>
        <time>2024-08-12T06:28:16Z</time>
      </trkpt>
      <trkpt lat="44.79085" lon="6.3634">
        <ele>2172.6</ele>
        <time>2024-08-12T06:28:17Z</time>
      </trkpt>
      <trkpt lat="44.79085" lon="6.3634">
        <ele>2172.8</ele>
        <time>2024-08-12T06:28:18Z</time>
      </trkpt>
      <trkpt lat="44.79085" lon="6.3634">
        <ele>2173</ele>
        <time>2024-08-12T06:28:19Z</time>
      </trkpt>
      <trkpt lat="44.79083" lon="6.3634">
        <ele>2173</ele>
        <time>2024-08-12T06:28:20Z</time>
      </trkpt>
      <trkpt lat="44.79083" lon="6.3634">
        <ele>2173.2</ele>
        <time>2024-08-12T06:28:21Z</time>
      </trkpt>
      <trkpt lat="44.79081" lon="6.3634">
        <ele>2173.2</ele>
        <time>2024-08-12T06:28:22Z</time>
      </trkpt>
      <trkpt lat="44.79081" lon="6.3634">
        <ele>2173.2</ele>
        <time>2024-08-12T06:28:23Z</time>
      </trkpt>
      <trkpt lat="44.79079" lon="6.36339">
        <ele>2173.4</ele>
        <time>2024-08-12T06:28:24Z</time>
      </trkpt>
      <trkpt lat="44.79079" lon="6.36339">
        <ele>2173.6</ele>
        <time>2024-08-12T06:28:25Z</time>
      </trkpt>
      <trkpt lat="44.79079" lon="6.36339">
        <ele>2173.8</ele>
        <time>2024-08-12T06:28:26Z</time>
      </trkpt>
      <trkpt lat="44.79077" lon="6.36338">
        <ele>2173.8</ele>
        <time>2024-08-12T06:28:27Z</time>
      </trkpt>
      <trkpt lat="44.79077" lon="6.36338">
        <ele>2173.8</ele>
        <time>2024-08-12T06:28:28Z</time>
      </trkpt>
      <trkpt lat="44.79077" lon="6.36338">
        <ele>2174</ele>
        <time>2024-08-12T06:28:29Z</time>
      </trkpt>
      <trkpt lat="44.79075" lon="6.36337">
        <ele>2174.2</ele>
        <time>2024-08-12T06:28:30Z</time>
      </trkpt>
      <trkpt lat="44.79075" lon="6.36337">
        <ele>2174.4</ele>
        <time>2024-08-12T06:28:31Z</time>
      </trkpt>
      <trkpt lat="44.79075" lon="6.36337">
        <ele>2174.4</ele>
        <time>2024-08-12T06:28:32Z</time>
      </trkpt>
      <trkpt lat="44.79073" lon="6.36335">
        <ele>2174.6</ele>
        <time>2024-08-12T06:28:33Z</time>
      </trkpt>
      <trkpt lat="44.79073" lon="6.36335">
        <ele>2174.6</ele>
        <time>2024-08-12T06:28:34Z</time>
      </trkpt>
      <trkpt lat="44.79073" lon="6.36335">
        <ele>2175.2</ele>
        <time>2024-08-12T06:28:35Z</time>
      </trkpt>
      <trkpt lat="44.7907" lon="6.36335">
        <ele>2175.4</ele>
        <time>2024-08-12T06:28:36Z</time>
      </trkpt>
      <trkpt lat="44.7907" lon="6.36335">
        <ele>2175.4</ele>
        <time>2024-08-12T06:28:37Z</time>
      </trkpt>
      <trkpt lat="44.7907" lon="6.36335">
        <ele>2175.4</ele>
        <time>2024-08-12T06:28:38Z</time>
      </trkpt>
      <trkpt lat="44.79068" lon="6.36336">
        <ele>2175.2</ele>
        <time>2024-08-12T06:28:39Z</time>
      </trkpt>
      <trkpt lat="44.79068" lon="6.36336">
        <ele>2175.2</ele>
        <time>2024-08-12T06:28:40Z</time>
      </trkpt>
      <trkpt lat="44.79068" lon="6.36336">
        <ele>2175.4</ele>
        <time>2024-08-12T06:28:41Z</time>
      </trkpt>
      <trkpt lat="44.79065" lon="6.36336">
        <ele>2175.6</ele>
        <time>2024-08-12T06:28:42Z</time>
      </trkpt>
      <trkpt lat="44.79065" lon="6.36336">
        <ele>2175.8</ele>
        <time>2024-08-12T06:28:43Z</time>
      </trkpt>
      <trkpt lat="44.79065" lon="6.36336">
        <ele>2175.8</ele>
        <time>2024-08-12T06:28:44Z</time>
      </trkpt>
      <trkpt lat="44.79063" lon="6.36336">
        <ele>2176</ele>
        <time>2024-08-12T06:28:45Z</time>
      </trkpt>
      <trkpt lat="44.79063" lon="6.36336">
        <ele>2176</ele>
        <time>2024-08-12T06:28:46Z</time>
      </trkpt>
      <trkpt lat="44.79063" lon="6.36336">
        <ele>2176</ele>
        <time>2024-08-12T06:28:47Z</time>
      </trkpt>
      <trkpt lat="44.79061" lon="6.36335">
        <ele>2176.2</ele>
        <time>2024-08-12T06:28:48Z</time>
      </trkpt>
      <trkpt lat="44.79061" lon="6.36335">
        <ele>2176.4</ele>
        <time>2024-08-12T06:28:49Z</time>
      </trkpt>
      <trkpt lat="44.79061" lon="6.36335">
        <ele>2176.4</ele>
        <time>2024-08-12T06:28:50Z</time>
      </trkpt>
      <trkpt lat="44.79059" lon="6.36335">
        <ele>2176.4</ele>
        <time>2024-08-12T06:28:51Z</time>
      </trkpt>
      <trkpt lat="44.79059" lon="6.36335">
        <ele>2176.6</ele>
        <time>2024-08-12T06:28:52Z</time>
      </trkpt>
      <trkpt lat="44.79057" lon="6.36335">
        <ele>2176.6</ele>
        <time>2024-08-12T06:28:53Z</time>
      </trkpt>
      <trkpt lat="44.79057" lon="6.36335">
        <ele>2176.8</ele>
        <time>2024-08-12T06:28:54Z</time>
      </trkpt>
      <trkpt lat="44.79055" lon="6.36335">
        <ele>2176.8</ele>
        <time>2024-08-12T06:28:55Z</time>
      </trkpt>
      <trkpt lat="44.79055" lon="6.36335">
        <ele>2177</ele>
        <time>2024-08-12T06:28:56Z</time>
      </trkpt>
      <trkpt lat="44.79053" lon="6.36334">
        <ele>2177.2</ele>
        <time>2024-08-12T06:28:57Z</time>
      </trkpt>
      <trkpt lat="44.79053" lon="6.36334">
        <ele>2177.2</ele>
        <time>2024-08-12T06:28:58Z</time>
      </trkpt>
      <trkpt lat="44.79053" lon="6.36334">
        <ele>2177.2</ele>
        <time>2024-08-12T06:28:59Z</time>
      </trkpt>
      <trkpt lat="44.79051" lon="6.36333">
        <ele>2177.4</ele>
        <time>2024-08-12T06:29:00Z</time>
      </trkpt>
      <trkpt lat="44.79051" lon="6.36333">
        <ele>2177.6</ele>
        <time>2024-08-12T06:29:01Z</time>
      </trkpt>
      <trkpt lat="44.79051" lon="6.36333">
        <ele>2178</ele>
        <time>2024-08-12T06:29:02Z</time>
      </trkpt>
      <trkpt lat="44.79049" lon="6.36332">
        <ele>2178</ele>
        <time>2024-08-12T06:29:03Z</time>
      </trkpt>
      <trkpt lat="44.79049" lon="6.36332">
        <ele>2178</ele>
        <time>2024-08-12T06:29:04Z</time>
      </trkpt>
      <trkpt lat="44.79049" lon="6.36332">
        <ele>2178</ele>
        <time>2024-08-12T06:29:05Z</time>
      </trkpt>
      <trkpt lat="44.79049" lon="6.36332">
        <ele>2178.2</ele>
        <time>2024-08-12T06:29:06Z</time>
      </trkpt>
      <trkpt lat="44.79048" lon="6.3633">
        <ele>2178.4</ele>
        <time>2024-08-12T06:29:07Z</time>
      </trkpt>
      <trkpt lat="44.79048" lon="6.3633">
        <ele>2178.6</ele>
        <time>2024-08-12T06:29:08Z</time>
      </trkpt>
      <trkpt lat="44.79048" lon="6.3633">
        <ele>2178.6</ele>
        <time>2024-08-12T06:29:09Z</time>
      </trkpt>
      <trkpt lat="44.79046" lon="6.36328">
        <ele>2178.6</ele>
        <time>2024-08-12T06:29:10Z</time>
      </trkpt>
      <trkpt lat="44.79046" lon="6.36328">
        <ele>2178.8</ele>
        <time>2024-08-12T06:29:11Z</time>
      </trkpt>
      <trkpt lat="44.79046" lon="6.36328">
        <ele>2179</ele>
        <time>2024-08-12T06:29:12Z</time>
      </trkpt>
      <trkpt lat="44.79046" lon="6.36328">
        <ele>2179.2</ele>
        <time>2024-08-12T06:29:13Z</time>
      </trkpt>
      <trkpt lat="44.79046" lon="6.36328">
        <ele>2179.2</ele>
        <time>2024-08-12T06:29:14Z</time>
      </trkpt>
      <trkpt lat="44.79046" lon="6.36328">
        <ele>2179</ele>
        <time>2024-08-12T06:29:15Z</time>
      </trkpt>
      <trkpt lat="44.79046" lon="6.36328">
        <ele>2179</ele>
        <time>2024-08-12T06:29:16Z</time>
      </trkpt>
      <trkpt lat="44.79046" lon="6.36328">
        <ele>2179</ele>
        <time>2024-08-12T06:29:17Z</time>
      </trkpt>
      <trkpt lat="44.79046" lon="6.36328">
        <ele>2178.8</ele>
        <time>2024-08-12T06:29:18Z</time>
      </trkpt>
      <trkpt lat="44.79046" lon="6.36328">
        <ele>2178.8</ele>
        <time>2024-08-12T06:29:19Z</time>
      </trkpt>
      <trkpt lat="44.79046" lon="6.36328">
        <ele>2178.8</ele>
        <time>2024-08-12T06:29:20Z</time>
      </trkpt>
      <trkpt lat="44.79046" lon="6.36328">
        <ele>2179.2</ele>
        <time>2024-08-12T06:29:21Z</time>
      </trkpt>
      <trkpt lat="44.79046" lon="6.36328">
        <ele>2179.2</ele>
        <time>2024-08-12T06:29:22Z</time>
      </trkpt>
      <trkpt lat="44.79046" lon="6.36328">
        <ele>2179.2</ele>
        <time>2024-08-12T06:29:23Z</time>
      </trkpt>
      <trkpt lat="44.79046" lon="6.36328">
        <ele>2179.2</ele>
        <time>2024-08-12T06:29:24Z</time>
      </trkpt>
      <trkpt lat="44.79046" lon="6.36328">
        <ele>2179.2</ele>
        <time>2024-08-12T06:29:25Z</time>
      </trkpt>
      <trkpt lat="44.79045" lon="6.36327">
        <ele>2179.2</ele>
        <time>2024-08-12T06:29:26Z</time>
      </trkpt>
      <trkpt lat="44.79045" lon="6.36327">
        <ele>2179.2</ele>
        <time>2024-08-12T06:29:27Z</time>
      </trkpt>
      <trkpt lat="44.79043" lon="6.36326">
        <ele>2179.2</ele>
        <time>2024-08-12T06:29:28Z</time>
      </trkpt>
      <trkpt lat="44.79043" lon="6.36326">
        <ele>2179.2</ele>
        <time>2024-08-12T06:29:29Z</time>
      </trkpt>
      <trkpt lat="44.79041" lon="6.36324">
        <ele>2179.4</ele>
        <time>2024-08-12T06:29:30Z</time>
      </trkpt>
      <trkpt lat="44.79041" lon="6.36324">
        <ele>2179.6</ele>
        <time>2024-08-12T06:29:31Z</time>
      </trkpt>
      <trkpt lat="44.79039" lon="6.36323">
        <ele>2179.6</ele>
        <time>2024-08-12T06:29:32Z</time>
      </trkpt>
      <trkpt lat="44.79039" lon="6.36323">
        <ele>2179.8</ele>
        <time>2024-08-12T06:29:33Z</time>
      </trkpt>
      <trkpt lat="44.79038" lon="6.36321">
        <ele>2179.8</ele>
        <time>2024-08-12T06:29:34Z</time>
      </trkpt>
      <trkpt lat="44.79038" lon="6.36321">
        <ele>2180</ele>
        <time>2024-08-12T06:29:35Z</time>
      </trkpt>
      <trkpt lat="44.79038" lon="6.36321">
        <ele>2180.2</ele>
        <time>2024-08-12T06:29:36Z</time>
      </trkpt>
      <trkpt lat="44.79036" lon="6.36319">
        <ele>2180.2</ele>
        <time>2024-08-12T06:29:37Z</time>
      </trkpt>
      <trkpt lat="44.79036" lon="6.36319">
        <ele>2180.4</ele>
        <time>2024-08-12T06:29:38Z</time>
      </trkpt>
      <trkpt lat="44.79036" lon="6.36319">
        <ele>2180.6</ele>
        <time>2024-08-12T06:29:39Z</time>
      </trkpt>
      <trkpt lat="44.79034" lon="6.36318">
        <ele>2180.8</ele>
        <time>2024-08-12T06:29:40Z</time>
      </trkpt>
      <trkpt lat="44.79034" lon="6.36318">
        <ele>2180.8</ele>
        <time>2024-08-12T06:29:41Z</time>
      </trkpt>
      <trkpt lat="44.79034" lon="6.36318">
        <ele>2180.8</ele>
        <time>2024-08-12T06:29:42Z</time>
      </trkpt>
      <trkpt lat="44.79032" lon="6.36317">
        <ele>2181</ele>
        <time>2024-08-12T06:29:43Z</time>
      </trkpt>
      <trkpt lat="44.79032" lon="6.36317">
        <ele>2181.2</ele>
        <time>2024-08-12T06:29:44Z</time>
      </trkpt>
      <trkpt lat="44.79032" lon="6.36317">
        <ele>2181.2</ele>
        <time>2024-08-12T06:29:45Z</time>
      </trkpt>
      <trkpt lat="44.7903" lon="6.36316">
        <ele>2181.4</ele>
        <time>2024-08-12T06:29:46Z</time>
      </trkpt>
      <trkpt lat="44.7903" lon="6.36316">
        <ele>2181.6</ele>
        <time>2024-08-12T06:29:47Z</time>
      </trkpt>
      <trkpt lat="44.7903" lon="6.36316">
        <ele>2181.8</ele>
        <time>2024-08-12T06:29:48Z</time>
      </trkpt>
      <trkpt lat="44.7903" lon="6.36316">
        <ele>2181.8</ele>
        <time>2024-08-12T06:29:49Z</time>
      </trkpt>
      <trkpt lat="44.79029" lon="6.36314">
        <ele>2182</ele>
        <time>2024-08-12T06:29:50Z</time>
      </trkpt>
      <trkpt lat="44.79029" lon="6.36314">
        <ele>2182</ele>
        <time>2024-08-12T06:29:51Z</time>
      </trkpt>
      <trkpt lat="44.79029" lon="6.36314">
        <ele>2182.2</ele>
        <time>2024-08-12T06:29:52Z</time>
      </trkpt>
      <trkpt lat="44.79029" lon="6.36314">
        <ele>2182.4</ele>
        <time>2024-08-12T06:29:53Z</time>
      </trkpt>
      <trkpt lat="44.79027" lon="6.36312">
        <ele>2182.4</ele>
        <time>2024-08-12T06:29:54Z</time>
      </trkpt>
      <trkpt lat="44.79027" lon="6.36312">
        <ele>2182.8</ele>
        <time>2024-08-12T06:29:55Z</time>
      </trkpt>
      <trkpt lat="44.79027" lon="6.36312">
        <ele>2183</ele>
        <time>2024-08-12T06:29:56Z</time>
      </trkpt>
      <trkpt lat="44.79025" lon="6.36312">
        <ele>2183.2</ele>
        <time>2024-08-12T06:29:57Z</time>
      </trkpt>
      <trkpt lat="44.79025" lon="6.36312">
        <ele>2183.6</ele>
        <time>2024-08-12T06:29:58Z</time>
      </trkpt>
      <trkpt lat="44.79025" lon="6.36312">
        <ele>2183.8</ele>
        <time>2024-08-12T06:29:59Z</time>
      </trkpt>
      <trkpt lat="44.79023" lon="6.36312">
        <ele>2183.8</ele>
        <time>2024-08-12T06:30:00Z</time>
      </trkpt>
      <trkpt lat="44.79023" lon="6.36312">
        <ele>2184</ele>
        <time>2024-08-12T06:30:01Z</time>
      </trkpt>
      <trkpt lat="44.79023" lon="6.36312">
        <ele>2184</ele>
        <time>2024-08-12T06:30:02Z</time>
      </trkpt>
      <trkpt lat="44.79021" lon="6.36313">
        <ele>2184.2</ele>
        <time>2024-08-12T06:30:03Z</time>
      </trkpt>
      <trkpt lat="44.79021" lon="6.36313">
        <ele>2184.2</ele>
        <time>2024-08-12T06:30:04Z</time>
      </trkpt>
      <trkpt lat="44.79019" lon="6.36314">
        <ele>2184.4</ele>
        <time>2024-08-12T06:30:05Z</time>
      </trkpt>
      <trkpt lat="44.79019" lon="6.36314">
        <ele>2184.6</ele>
        <time>2024-08-12T06:30:06Z</time>
      </trkpt>
      <trkpt lat="44.79019" lon="6.36314">
        <ele>2184.6</ele>
        <time>2024-08-12T06:30:07Z</time>
      </trkpt>
      <trkpt lat="44.79017" lon="6.36315">
        <ele>2184.6</ele>
        <time>2024-08-12T06:30:08Z</time>
      </trkpt>
      <trkpt lat="44.79017" lon="6.36315">
        <ele>2184.6</ele>
        <time>2024-08-12T06:30:09Z</time>
      </trkpt>
      <trkpt lat="44.79017" lon="6.36315">
        <ele>2184.6</ele>
        <time>2024-08-12T06:30:10Z</time>
      </trkpt>
      <trkpt lat="44.79017" lon="6.36315">
        <ele>2184.8</ele>
        <time>2024-08-12T06:30:11Z</time>
      </trkpt>
      <trkpt lat="44.79014" lon="6.36316">
        <ele>2184.8</ele>
        <time>2024-08-12T06:30:12Z</time>
      </trkpt>
      <trkpt lat="44.79014" lon="6.36316">
        <ele>2185</ele>
        <time>2024-08-12T06:30:13Z</time>
      </trkpt>
      <trkpt lat="44.79012" lon="6.36316">
        <ele>2185.2</ele>
        <time>2024-08-12T06:30:14Z</time>
      </trkpt>
      <trkpt lat="44.79012" lon="6.36316">
        <ele>2185.2</ele>
        <time>2024-08-12T06:30:15Z</time>
      </trkpt>
      <trkpt lat="44.7901" lon="6.36317">
        <ele>2185.6</ele>
        <time>2024-08-12T06:30:16Z</time>
      </trkpt>
      <trkpt lat="44.7901" lon="6.36317">
        <ele>2185.8</ele>
        <time>2024-08-12T06:30:17Z</time>
      </trkpt>
      <trkpt lat="44.7901" lon="6.36317">
        <ele>2185.8</ele>
        <time>2024-08-12T06:30:18Z</time>
      </trkpt>
      <trkpt lat="44.79008" lon="6.36317">
        <ele>2185.8</ele>
        <time>2024-08-12T06:30:19Z</time>
      </trkpt>
      <trkpt lat="44.79008" lon="6.36317">
        <ele>2185.8</ele>
        <time>2024-08-12T06:30:20Z</time>
      </trkpt>
      <trkpt lat="44.79006" lon="6.36317">
        <ele>2185.8</ele>
        <time>2024-08-12T06:30:21Z</time>
      </trkpt>
      <trkpt lat="44.79006" lon="6.36317">
        <ele>2186.2</ele>
        <time>2024-08-12T06:30:22Z</time>
      </trkpt>
      <trkpt lat="44.79006" lon="6.36317">
        <ele>2186.2</ele>
        <time>2024-08-12T06:30:23Z</time>
      </trkpt>
      <trkpt lat="44.79004" lon="6.36316">
        <ele>2186.6</ele>
        <time>2024-08-12T06:30:24Z</time>
      </trkpt>
      <trkpt lat="44.79004" lon="6.36316">
        <ele>2186.8</ele>
        <time>2024-08-12T06:30:25Z</time>
      </trkpt>
      <trkpt lat="44.79004" lon="6.36316">
        <ele>2187</ele>
        <time>2024-08-12T06:30:26Z</time>
      </trkpt>
      <trkpt lat="44.79002" lon="6.36316">
        <ele>2187</ele>
        <time>2024-08-12T06:30:27Z</time>
      </trkpt>
      <trkpt lat="44.79002" lon="6.36316">
        <ele>2187.2</ele>
        <time>2024-08-12T06:30:28Z</time>
      </trkpt>
      <trkpt lat="44.79002" lon="6.36316">
        <ele>2187.4</ele>
        <time>2024-08-12T06:30:29Z</time>
      </trkpt>
      <trkpt lat="44.79" lon="6.36315">
        <ele>2187.6</ele>
        <time>2024-08-12T06:30:30Z</time>
      </trkpt>
      <trkpt lat="44.79" lon="6.36315">
        <ele>2187.6</ele>
        <time>2024-08-12T06:30:31Z</time>
      </trkpt>
      <trkpt lat="44.79" lon="6.36315">
        <ele>2187.8</ele>
        <time>2024-08-12T06:30:32Z</time>
      </trkpt>
      <trkpt lat="44.78997" lon="6.36316">
        <ele>2187.8</ele>
        <time>2024-08-12T06:30:33Z</time>
      </trkpt>
      <trkpt lat="44.78997" lon="6.36316">
        <ele>2187.8</ele>
        <time>2024-08-12T06:30:34Z</time>
      </trkpt>
      <trkpt lat="44.78996" lon="6.36316">
        <ele>2188</ele>
        <time>2024-08-12T06:30:35Z</time>
      </trkpt>
      <trkpt lat="44.78996" lon="6.36316">
        <ele>2188.2</ele>
        <time>2024-08-12T06:30:36Z</time>
      </trkpt>
      <trkpt lat="44.78996" lon="6.36316">
        <ele>2188.4</ele>
        <time>2024-08-12T06:30:37Z</time>
      </trkpt>
      <trkpt lat="44.78993" lon="6.36316">
        <ele>2188.4</ele>
        <time>2024-08-12T06:30:38Z</time>
      </trkpt>
      <trkpt lat="44.78993" lon="6.36316">
        <ele>2188.4</ele>
        <time>2024-08-12T06:30:39Z</time>
      </trkpt>
      <trkpt lat="44.78992" lon="6.36317">
        <ele>2188.6</ele>
        <time>2024-08-12T06:30:40Z</time>
      </trkpt>
      <trkpt lat="44.78992" lon="6.36317">
        <ele>2188.8</ele>
        <time>2024-08-12T06:30:41Z</time>
      </trkpt>
      <trkpt lat="44.78992" lon="6.36317">
        <ele>2189</ele>
        <time>2024-08-12T06:30:42Z</time>
      </trkpt>
      <trkpt lat="44.7899" lon="6.36318">
        <ele>2189</ele>
        <time>2024-08-12T06:30:43Z</time>
      </trkpt>
      <trkpt lat="44.7899" lon="6.36318">
        <ele>2189.2</ele>
        <time>2024-08-12T06:30:44Z</time>
      </trkpt>
      <trkpt lat="44.7899" lon="6.36318">
        <ele>2189.4</ele>
        <time>2024-08-12T06:30:45Z</time>
      </trkpt>
      <trkpt lat="44.78988" lon="6.36319">
        <ele>2189.6</ele>
        <time>2024-08-12T06:30:46Z</time>
      </trkpt>
      <trkpt lat="44.78988" lon="6.36319">
        <ele>2190</ele>
        <time>2024-08-12T06:30:47Z</time>
      </trkpt>
      <trkpt lat="44.78986" lon="6.36318">
        <ele>2190</ele>
        <time>2024-08-12T06:30:48Z</time>
      </trkpt>
      <trkpt lat="44.78986" lon="6.36318">
        <ele>2190</ele>
        <time>2024-08-12T06:30:49Z</time>
      </trkpt>
      <trkpt lat="44.78986" lon="6.36318">
        <ele>2190.4</ele>
        <time>2024-08-12T06:30:50Z</time>
      </trkpt>
      <trkpt lat="44.78983" lon="6.36318">
        <ele>2190.6</ele>
        <time>2024-08-12T06:30:51Z</time>
      </trkpt>
      <trkpt lat="44.78983" lon="6.36318">
        <ele>2190.8</ele>
        <time>2024-08-12T06:30:52Z</time>
      </trkpt>
      <trkpt lat="44.78983" lon="6.36318">
        <ele>2190.8</ele>
        <time>2024-08-12T06:30:53Z</time>
      </trkpt>
      <trkpt lat="44.78981" lon="6.36317">
        <ele>2191</ele>
        <time>2024-08-12T06:30:54Z</time>
      </trkpt>
      <trkpt lat="44.78981" lon="6.36317">
        <ele>2191</ele>
        <time>2024-08-12T06:30:55Z</time>
      </trkpt>
      <trkpt lat="44.78981" lon="6.36317">
        <ele>2191</ele>
        <time>2024-08-12T06:30:56Z</time>
      </trkpt>
      <trkpt lat="44.7898" lon="6.36316">
        <ele>2191.2</ele>
        <time>2024-08-12T06:30:57Z</time>
      </trkpt>
      <trkpt lat="44.7898" lon="6.36316">
        <ele>2191.4</ele>
        <time>2024-08-12T06:30:58Z</time>
      </trkpt>
      <trkpt lat="44.78978" lon="6.36314">
        <ele>2191.6</ele>
        <time>2024-08-12T06:30:59Z</time>
      </trkpt>
      <trkpt lat="44.78978" lon="6.36314">
        <ele>2191.6</ele>
        <time>2024-08-12T06:31:00Z</time>
      </trkpt>
      <trkpt lat="44.78978" lon="6.36314">
        <ele>2191.8</ele>
        <time>2024-08-12T06:31:01Z</time>
      </trkpt>
      <trkpt lat="44.78976" lon="6.36312">
        <ele>2192</ele>
        <time>2024-08-12T06:31:02Z</time>
      </trkpt>
      <trkpt lat="44.78976" lon="6.36312">
        <ele>2192</ele>
        <time>2024-08-12T06:31:03Z</time>
      </trkpt>
      <trkpt lat="44.78976" lon="6.36312">
        <ele>2192.2</ele>
        <time>2024-08-12T06:31:04Z</time>
      </trkpt>
      <trkpt lat="44.78974" lon="6.36311">
        <ele>2192.2</ele>
        <time>2024-08-12T06:31:05Z</time>
      </trkpt>
      <trkpt lat="44.78974" lon="6.36311">
        <ele>2192.2</ele>
        <time>2024-08-12T06:31:06Z</time>
      </trkpt>
      <trkpt lat="44.78972" lon="6.3631">
        <ele>2192.2</ele>
        <time>2024-08-12T06:31:07Z</time>
      </trkpt>
      <trkpt lat="44.78972" lon="6.3631">
        <ele>2192.2</ele>
        <time>2024-08-12T06:31:08Z</time>
      </trkpt>
      <trkpt lat="44.7897" lon="6.36311">
        <ele>2192.4</ele>
        <time>2024-08-12T06:31:09Z</time>
      </trkpt>
      <trkpt lat="44.7897" lon="6.36311">
        <ele>2192.4</ele>
        <time>2024-08-12T06:31:10Z</time>
      </trkpt>
      <trkpt lat="44.7897" lon="6.36311">
        <ele>2192.4</ele>
        <time>2024-08-12T06:31:11Z</time>
      </trkpt>
      <trkpt lat="44.78968" lon="6.36313">
        <ele>2192.6</ele>
        <time>2024-08-12T06:31:12Z</time>
      </trkpt>
      <trkpt lat="44.78968" lon="6.36313">
        <ele>2192.6</ele>
        <time>2024-08-12T06:31:13Z</time>
      </trkpt>
      <trkpt lat="44.78968" lon="6.36313">
        <ele>2192.6</ele>
        <time>2024-08-12T06:31:14Z</time>
      </trkpt>
      <trkpt lat="44.78968" lon="6.36313">
        <ele>2192.8</ele>
        <time>2024-08-12T06:31:15Z</time>
      </trkpt>
      <trkpt lat="44.78968" lon="6.36313">
        <ele>2192.8</ele>
        <time>2024-08-12T06:31:16Z</time>
      </trkpt>
      <trkpt lat="44.78967" lon="6.3631">
        <ele>2192.8</ele>
        <time>2024-08-12T06:31:17Z</time>
      </trkpt>
      <trkpt lat="44.78967" lon="6.3631">
        <ele>2193</ele>
        <time>2024-08-12T06:31:18Z</time>
      </trkpt>
      <trkpt lat="44.78967" lon="6.3631">
        <ele>2193</ele>
        <time>2024-08-12T06:31:19Z</time>
      </trkpt>
      <trkpt lat="44.78967" lon="6.3631">
        <ele>2193.4</ele>
        <time>2024-08-12T06:31:20Z</time>
      </trkpt>
      <trkpt lat="44.78967" lon="6.3631">
        <ele>2193.4</ele>
        <time>2024-08-12T06:31:21Z</time>
      </trkpt>
      <trkpt lat="44.78967" lon="6.3631">
        <ele>2193.4</ele>
        <time>2024-08-12T06:31:22Z</time>
      </trkpt>
      <trkpt lat="44.78967" lon="6.3631">
        <ele>2193.4</ele>
        <time>2024-08-12T06:31:23Z</time>
      </trkpt>
      <trkpt lat="44.78967" lon="6.3631">
        <ele>2193.4</ele>
        <time>2024-08-12T06:31:24Z</time>
      </trkpt>
      <trkpt lat="44.78967" lon="6.3631">
        <ele>2193.4</ele>
        <time>2024-08-12T06:31:25Z</time>
      </trkpt>
      <trkpt lat="44.78967" lon="6.3631">
        <ele>2193.4</ele>
        <time>2024-08-12T06:31:26Z</time>
      </trkpt>
      <trkpt lat="44.78967" lon="6.3631">
        <ele>2193.4</ele>
        <time>2024-08-12T06:31:27Z</time>
      </trkpt>
      <trkpt lat="44.78967" lon="6.3631">
        <ele>2193.2</ele>
        <time>2024-08-12T06:31:28Z</time>
      </trkpt>
      <trkpt lat="44.78967" lon="6.3631">
        <ele>2193</ele>
        <time>2024-08-12T06:31:29Z</time>
      </trkpt>
      <trkpt lat="44.78967" lon="6.3631">
        <ele>2193</ele>
        <time>2024-08-12T06:31:30Z</time>
      </trkpt>
      <trkpt lat="44.78967" lon="6.3631">
        <ele>2193.2</ele>
        <time>2024-08-12T06:31:31Z</time>
      </trkpt>
      <trkpt lat="44.78967" lon="6.3631">
        <ele>2193.2</ele>
        <time>2024-08-12T06:31:32Z</time>
      </trkpt>
      <trkpt lat="44.78967" lon="6.3631">
        <ele>2193</ele>
        <time>2024-08-12T06:31:33Z</time>
      </trkpt>
      <trkpt lat="44.78969" lon="6.36308">
        <ele>2193</ele>
        <time>2024-08-12T06:31:34Z</time>
      </trkpt>
      <trkpt lat="44.78969" lon="6.36308">
        <ele>2193</ele>
        <time>2024-08-12T06:31:35Z</time>
      </trkpt>
      <trkpt lat="44.78971" lon="6.36305">
        <ele>2193</ele>
        <time>2024-08-12T06:31:36Z</time>
      </trkpt>
      <trkpt lat="44.78971" lon="6.36305">
        <ele>2193.2</ele>
        <time>2024-08-12T06:31:37Z</time>
      </trkpt>
      <trkpt lat="44.78973" lon="6.36304">
        <ele>2193.2</ele>
        <time>2024-08-12T06:31:38Z</time>
      </trkpt>
      <trkpt lat="44.78973" lon="6.36304">
        <ele>2193.4</ele>
        <time>2024-08-12T06:31:39Z</time>
      </trkpt>
      <trkpt lat="44.78973" lon="6.36304">
        <ele>2193.4</ele>
        <time>2024-08-12T06:31:40Z</time>
      </trkpt>
      <trkpt lat="44.78974" lon="6.36302">
        <ele>2193.6</ele>
        <time>2024-08-12T06:31:41Z</time>
      </trkpt>
      <trkpt lat="44.78974" lon="6.36302">
        <ele>2193.8</ele>
        <time>2024-08-12T06:31:42Z</time>
      </trkpt>
      <trkpt lat="44.78974" lon="6.36302">
        <ele>2193.8</ele>
        <time>2024-08-12T06:31:43Z</time>
      </trkpt>
      <trkpt lat="44.78976" lon="6.36299">
        <ele>2194.2</ele>
        <time>2024-08-12T06:31:44Z</time>
      </trkpt>
      <trkpt lat="44.78976" lon="6.36299">
        <ele>2194.2</ele>
        <time>2024-08-12T06:31:45Z</time>
      </trkpt>
      <trkpt lat="44.78976" lon="6.36299">
        <ele>2194.2</ele>
        <time>2024-08-12T06:31:46Z</time>
      </trkpt>
      <trkpt lat="44.78977" lon="6.36297">
        <ele>2195</ele>
        <time>2024-08-12T06:31:47Z</time>
      </trkpt>
      <trkpt lat="44.78977" lon="6.36297">
        <ele>2195</ele>
        <time>2024-08-12T06:31:48Z</time>
      </trkpt>
      <trkpt lat="44.78977" lon="6.36297">
        <ele>2195</ele>
        <time>2024-08-12T06:31:49Z</time>
      </trkpt>
      <trkpt lat="44.78978" lon="6.36294">
        <ele>2195.4</ele>
        <time>2024-08-12T06:31:50Z</time>
      </trkpt>
      <trkpt lat="44.78978" lon="6.36294">
        <ele>2195.8</ele>
        <time>2024-08-12T06:31:51Z</time>
      </trkpt>
      <trkpt lat="44.78978" lon="6.36294">
        <ele>2195.8</ele>
        <time>2024-08-12T06:31:52Z</time>
      </trkpt>
      <trkpt lat="44.78978" lon="6.36294">
        <ele>2195.8</ele>
        <time>2024-08-12T06:31:53Z</time>
      </trkpt>
      <trkpt lat="44.78978" lon="6.36294">
        <ele>2196.2</ele>
        <time>2024-08-12T06:31:54Z</time>
      </trkpt>
      <trkpt lat="44.78978" lon="6.36291">
        <ele>2196.2</ele>
        <time>2024-08-12T06:31:55Z</time>
      </trkpt>
      <trkpt lat="44.78978" lon="6.36291">
        <ele>2196.2</ele>
        <time>2024-08-12T06:31:56Z</time>
      </trkpt>
      <trkpt lat="44.78979" lon="6.36289">
        <ele>2196.4</ele>
        <time>2024-08-12T06:31:57Z</time>
      </trkpt>
      <trkpt lat="44.78979" lon="6.36289">
        <ele>2196.6</ele>
        <time>2024-08-12T06:31:58Z</time>
      </trkpt>
      <trkpt lat="44.78979" lon="6.36289">
        <ele>2197</ele>
        <time>2024-08-12T06:31:59Z</time>
      </trkpt>
      <trkpt lat="44.7898" lon="6.36286">
        <ele>2197</ele>
        <time>2024-08-12T06:32:00Z</time>
      </trkpt>
      <trkpt lat="44.7898" lon="6.36286">
        <ele>2197</ele>
        <time>2024-08-12T06:32:01Z</time>
      </trkpt>
      <trkpt lat="44.7898" lon="6.36286">
        <ele>2197.6</ele>
        <time>2024-08-12T06:32:02Z</time>
      </trkpt>
      <trkpt lat="44.78981" lon="6.36283">
        <ele>2197.6</ele>
        <time>2024-08-12T06:32:03Z</time>
      </trkpt>
      <trkpt lat="44.78981" lon="6.36283">
        <ele>2197.6</ele>
        <time>2024-08-12T06:32:04Z</time>
      </trkpt>
      <trkpt lat="44.78981" lon="6.36283">
        <ele>2197.6</ele>
        <time>2024-08-12T06:32:05Z</time>
      </trkpt>
      <trkpt lat="44.78983" lon="6.36282">
        <ele>2197.6</ele>
        <time>2024-08-12T06:32:06Z</time>
      </trkpt>
      <trkpt lat="44.78983" lon="6.36282">
        <ele>2197.8</ele>
        <time>2024-08-12T06:32:07Z</time>
      </trkpt>
      <trkpt lat="44.78983" lon="6.36282">
        <ele>2198</ele>
        <time>2024-08-12T06:32:08Z</time>
      </trkpt>
      <trkpt lat="44.78983" lon="6.36282">
        <ele>2198.2</ele>
        <time>2024-08-12T06:32:09Z</time>
      </trkpt>
      <trkpt lat="44.78983" lon="6.36282">
        <ele>2198.2</ele>
        <time>2024-08-12T06:32:10Z</time>
      </trkpt>
      <trkpt lat="44.78983" lon="6.36282">
        <ele>2198.2</ele>
        <time>2024-08-12T06:32:11Z</time>
      </trkpt>
      <trkpt lat="44.78983" lon="6.36282">
        <ele>2198.2</ele>
        <time>2024-08-12T06:32:12Z</time>
      </trkpt>
      <trkpt lat="44.78983" lon="6.36282">
        <ele>2198</ele>
        <time>2024-08-12T06:32:13Z</time>
      </trkpt>
      <trkpt lat="44.78983" lon="6.36282">
        <ele>2198</ele>
        <time>2024-08-12T06:32:14Z</time>
      </trkpt>
      <trkpt lat="44.78983" lon="6.36282">
        <ele>2198</ele>
        <time>2024-08-12T06:32:15Z</time>
      </trkpt>
      <trkpt lat="44.78983" lon="6.36282">
        <ele>2198</ele>
        <time>2024-08-12T06:32:16Z</time>
      </trkpt>
      <trkpt lat="44.78983" lon="6.36282">
        <ele>2198</ele>
        <time>2024-08-12T06:32:17Z</time>
      </trkpt>
      <trkpt lat="44.78983" lon="6.36282">
        <ele>2198</ele>
        <time>2024-08-12T06:32:18Z</time>
      </trkpt>
      <trkpt lat="44.78983" lon="6.36282">
        <ele>2198</ele>
        <time>2024-08-12T06:32:19Z</time>
      </trkpt>
      <trkpt lat="44.78983" lon="6.36282">
        <ele>2198</ele>
        <time>2024-08-12T06:32:20Z</time>
      </trkpt>
      <trkpt lat="44.78983" lon="6.36282">
        <ele>2198</ele>
        <time>2024-08-12T06:32:21Z</time>
      </trkpt>
      <trkpt lat="44.78983" lon="6.36282">
        <ele>2198.2</ele>
        <time>2024-08-12T06:32:22Z</time>
      </trkpt>
      <trkpt lat="44.78983" lon="6.36282">
        <ele>2198</ele>
        <time>2024-08-12T06:32:23Z</time>
      </trkpt>
      <trkpt lat="44.78983" lon="6.36282">
        <ele>2198</ele>
        <time>2024-08-12T06:32:24Z</time>
      </trkpt>
      <trkpt lat="44.78983" lon="6.36282">
        <ele>2198</ele>
        <time>2024-08-12T06:32:25Z</time>
      </trkpt>
      <trkpt lat="44.78983" lon="6.36282">
        <ele>2198</ele>
        <time>2024-08-12T06:32:26Z</time>
      </trkpt>
      <trkpt lat="44.78985" lon="6.36279">
        <ele>2198.2</ele>
        <time>2024-08-12T06:32:27Z</time>
      </trkpt>
      <trkpt lat="44.78985" lon="6.36279">
        <ele>2198.4</ele>
        <time>2024-08-12T06:32:28Z</time>
      </trkpt>
      <trkpt lat="44.78985" lon="6.36279">
        <ele>2198.6</ele>
        <time>2024-08-12T06:32:29Z</time>
      </trkpt>
      <trkpt lat="44.78987" lon="6.36277">
        <ele>2198.6</ele>
        <time>2024-08-12T06:32:30Z</time>
      </trkpt>
      <trkpt lat="44.78987" lon="6.36277">
        <ele>2198.8</ele>
        <time>2024-08-12T06:32:31Z</time>
      </trkpt>
      <trkpt lat="44.78987" lon="6.36277">
        <ele>2198.8</ele>
        <time>2024-08-12T06:32:32Z</time>
      </trkpt>
      <trkpt lat="44.78987" lon="6.36277">
        <ele>2199.4</ele>
        <time>2024-08-12T06:32:33Z</time>
      </trkpt>
      <trkpt lat="44.78987" lon="6.36277">
        <ele>2199.4</ele>
        <time>2024-08-12T06:32:34Z</time>
      </trkpt>
      <trkpt lat="44.78988" lon="6.36275">
        <ele>2199</ele>
        <time>2024-08-12T06:32:35Z</time>
      </trkpt>
      <trkpt lat="44.78988" lon="6.36275">
        <ele>2199</ele>
        <time>2024-08-12T06:32:36Z</time>
      </trkpt>
      <trkpt lat="44.78988" lon="6.36275">
        <ele>2199</ele>
        <time>2024-08-12T06:32:37Z</time>
      </trkpt>
      <trkpt lat="44.78988" lon="6.36275">
        <ele>2199.2</ele>
        <time>2024-08-12T06:32:38Z</time>
      </trkpt>
      <trkpt lat="44.78988" lon="6.36275">
        <ele>2199.2</ele>
        <time>2024-08-12T06:32:39Z</time>
      </trkpt>
      <trkpt lat="44.78988" lon="6.36275">
        <ele>2199.6</ele>
        <time>2024-08-12T06:32:40Z</time>
      </trkpt>
      <trkpt lat="44.78988" lon="6.36275">
        <ele>2199.8</ele>
        <time>2024-08-12T06:32:41Z</time>
      </trkpt>
      <trkpt lat="44.78988" lon="6.36275">
        <ele>2200</ele>
        <time>2024-08-12T06:32:42Z</time>
      </trkpt>
      <trkpt lat="44.78988" lon="6.36275">
        <ele>2200</ele>
        <time>2024-08-12T06:32:43Z</time>
      </trkpt>
      <trkpt lat="44.78988" lon="6.36275">
        <ele>2199.8</ele>
        <time>2024-08-12T06:32:44Z</time>
      </trkpt>
      <trkpt lat="44.78988" lon="6.36275">
        <ele>2199.6</ele>
        <time>2024-08-12T06:32:45Z</time>
      </trkpt>
      <trkpt lat="44.78988" lon="6.36275">
        <ele>2199.6</ele>
        <time>2024-08-12T06:32:46Z</time>
      </trkpt>
      <trkpt lat="44.78988" lon="6.36275">
        <ele>2199.4</ele>
        <time>2024-08-12T06:32:47Z</time>
      </trkpt>
      <trkpt lat="44.78988" lon="6.36275">
        <ele>2199.8</ele>
        <time>2024-08-12T06:32:48Z</time>
      </trkpt>
      <trkpt lat="44.78988" lon="6.36275">
        <ele>2199.8</ele>
        <time>2024-08-12T06:32:49Z</time>
      </trkpt>
      <trkpt lat="44.78988" lon="6.36275">
        <ele>2199.4</ele>
        <time>2024-08-12T06:32:50Z</time>
      </trkpt>
      <trkpt lat="44.78988" lon="6.36275">
        <ele>2199.4</ele>
        <time>2024-08-12T06:32:51Z</time>
      </trkpt>
      <trkpt lat="44.78988" lon="6.36275">
        <ele>2199.4</ele>
        <time>2024-08-12T06:32:52Z</time>
      </trkpt>
      <trkpt lat="44.78988" lon="6.36275">
        <ele>2199.4</ele>
        <time>2024-08-12T06:32:53Z</time>
      </trkpt>
      <trkpt lat="44.78988" lon="6.36275">
        <ele>2199.6</ele>
        <time>2024-08-12T06:32:54Z</time>
      </trkpt>
      <trkpt lat="44.78988" lon="6.36275">
        <ele>2199.6</ele>
        <time>2024-08-12T06:32:55Z</time>
      </trkpt>
      <trkpt lat="44.78988" lon="6.36275">
        <ele>2199.6</ele>
        <time>2024-08-12T06:32:56Z</time>
      </trkpt>
      <trkpt lat="44.78988" lon="6.36275">
        <ele>2200</ele>
        <time>2024-08-12T06:32:57Z</time>
      </trkpt>
      <trkpt lat="44.78988" lon="6.36275">
        <ele>2200</ele>
        <time>2024-08-12T06:32:58Z</time>
      </trkpt>
      <trkpt lat="44.78988" lon="6.36275">
        <ele>2200</ele>
        <time>2024-08-12T06:32:59Z</time>
      </trkpt>
      <trkpt lat="44.78988" lon="6.36275">
        <ele>2199.8</ele>
        <time>2024-08-12T06:33:00Z</time>
      </trkpt>
      <trkpt lat="44.78988" lon="6.36275">
        <ele>2199.8</ele>
        <time>2024-08-12T06:33:01Z</time>
      </trkpt>
      <trkpt lat="44.78988" lon="6.36275">
        <ele>2200.2</ele>
        <time>2024-08-12T06:33:02Z</time>
      </trkpt>
      <trkpt lat="44.78988" lon="6.36275">
        <ele>2200.2</ele>
        <time>2024-08-12T06:33:03Z</time>
      </trkpt>
      <trkpt lat="44.78988" lon="6.36275">
        <ele>2200.2</ele>
        <time>2024-08-12T06:33:04Z</time>
      </trkpt>
      <trkpt lat="44.78988" lon="6.36275">
        <ele>2200.2</ele>
        <time>2024-08-12T06:33:05Z</time>
      </trkpt>
      <trkpt lat="44.78988" lon="6.36275">
        <ele>2199.8</ele>
        <time>2024-08-12T06:33:06Z</time>
      </trkpt>
      <trkpt lat="44.78988" lon="6.36275">
        <ele>2199.8</ele>
        <time>2024-08-12T06:33:07Z</time>
      </trkpt>
      <trkpt lat="44.78988" lon="6.36275">
        <ele>2199.8</ele>
        <time>2024-08-12T06:33:08Z</time>
      </trkpt>
      <trkpt lat="44.78988" lon="6.36275">
        <ele>2199.6</ele>
        <time>2024-08-12T06:33:09Z</time>
      </trkpt>
      <trkpt lat="44.78988" lon="6.36275">
        <ele>2199.6</ele>
        <time>2024-08-12T06:33:10Z</time>
      </trkpt>
      <trkpt lat="44.78988" lon="6.36275">
        <ele>2199.8</ele>
        <time>2024-08-12T06:33:11Z</time>
      </trkpt>
      <trkpt lat="44.78988" lon="6.36275">
        <ele>2199.8</ele>
        <time>2024-08-12T06:33:12Z</time>
      </trkpt>
      <trkpt lat="44.78988" lon="6.36275">
        <ele>2199.8</ele>
        <time>2024-08-12T06:33:13Z</time>
      </trkpt>
      <trkpt lat="44.78988" lon="6.36275">
        <ele>2199.8</ele>
        <time>2024-08-12T06:33:14Z</time>
      </trkpt>
      <trkpt lat="44.78988" lon="6.36275">
        <ele>2199.8</ele>
        <time>2024-08-12T06:33:15Z</time>
      </trkpt>
      <trkpt lat="44.78988" lon="6.36275">
        <ele>2200</ele>
        <time>2024-08-12T06:33:16Z</time>
      </trkpt>
      <trkpt lat="44.78988" lon="6.36275">
        <ele>2200</ele>
        <time>2024-08-12T06:33:17Z</time>
      </trkpt>
      <trkpt lat="44.78988" lon="6.36275">
        <ele>2200</ele>
        <time>2024-08-12T06:33:18Z</time>
      </trkpt>
      <trkpt lat="44.78988" lon="6.36275">
        <ele>2199.8</ele>
        <time>2024-08-12T06:33:19Z</time>
      </trkpt>
      <trkpt lat="44.78988" lon="6.36275">
        <ele>2199.8</ele>
        <time>2024-08-12T06:33:20Z</time>
      </trkpt>
      <trkpt lat="44.78988" lon="6.36275">
        <ele>2200</ele>
        <time>2024-08-12T06:33:21Z</time>
      </trkpt>
      <trkpt lat="44.78988" lon="6.36275">
        <ele>2200</ele>
        <time>2024-08-12T06:33:22Z</time>
      </trkpt>
      <trkpt lat="44.78988" lon="6.36275">
        <ele>2199.8</ele>
        <time>2024-08-12T06:33:23Z</time>
      </trkpt>
      <trkpt lat="44.78988" lon="6.36275">
        <ele>2199.8</ele>
        <time>2024-08-12T06:33:24Z</time>
      </trkpt>
      <trkpt lat="44.78988" lon="6.36275">
        <ele>2200</ele>
        <time>2024-08-12T06:33:25Z</time>
      </trkpt>
      <trkpt lat="44.78988" lon="6.36275">
        <ele>2200</ele>
        <time>2024-08-12T06:33:26Z</time>
      </trkpt>
      <trkpt lat="44.78988" lon="6.36275">
        <ele>2200</ele>
        <time>2024-08-12T06:33:27Z</time>
      </trkpt>
      <trkpt lat="44.78988" lon="6.36275">
        <ele>2200</ele>
        <time>2024-08-12T06:33:28Z</time>
      </trkpt>
      <trkpt lat="44.78988" lon="6.36275">
        <ele>2200</ele>
        <time>2024-08-12T06:33:29Z</time>
      </trkpt>
      <trkpt lat="44.78988" lon="6.36275">
        <ele>2200</ele>
        <time>2024-08-12T06:33:30Z</time>
      </trkpt>
      <trkpt lat="44.78988" lon="6.36275">
        <ele>2200</ele>
        <time>2024-08-12T06:33:31Z</time>
      </trkpt>
      <trkpt lat="44.78988" lon="6.36275">
        <ele>2200</ele>
        <time>2024-08-12T06:33:32Z</time>
      </trkpt>
      <trkpt lat="44.78988" lon="6.36275">
        <ele>2200</ele>
        <time>2024-08-12T06:33:33Z</time>
      </trkpt>
      <trkpt lat="44.78988" lon="6.36275">
        <ele>2200</ele>
        <time>2024-08-12T06:33:34Z</time>
      </trkpt>
      <trkpt lat="44.78988" lon="6.36275">
        <ele>2200</ele>
        <time>2024-08-12T06:33:35Z</time>
      </trkpt>
      <trkpt lat="44.78988" lon="6.36275">
        <ele>2200.2</ele>
        <time>2024-08-12T06:33:36Z</time>
      </trkpt>
      <trkpt lat="44.78988" lon="6.36275">
        <ele>2200.2</ele>
        <time>2024-08-12T06:33:37Z</time>
      </trkpt>
      <trkpt lat="44.78988" lon="6.36275">
        <ele>2200.2</ele>
        <time>2024-08-12T06:33:38Z</time>
      </trkpt>
      <trkpt lat="44.78988" lon="6.36275">
        <ele>2200.2</ele>
        <time>2024-08-12T06:33:39Z</time>
      </trkpt>
      <trkpt lat="44.78988" lon="6.36275">
        <ele>2200.2</ele>
        <time>2024-08-12T06:33:40Z</time>
      </trkpt>
      <trkpt lat="44.78988" lon="6.36275">
        <ele>2200.2</ele>
        <time>2024-08-12T06:33:41Z</time>
      </trkpt>
      <trkpt lat="44.78988" lon="6.36275">
        <ele>2200.2</ele>
        <time>2024-08-12T06:33:42Z</time>
      </trkpt>
      <trkpt lat="44.78988" lon="6.36275">
        <ele>2200.2</ele>
        <time>2024-08-12T06:33:43Z</time>
      </trkpt>
      <trkpt lat="44.78988" lon="6.36275">
        <ele>2200.2</ele>
        <time>2024-08-12T06:33:44Z</time>
      </trkpt>
      <trkpt lat="44.78988" lon="6.36275">
        <ele>2200.2</ele>
        <time>2024-08-12T06:33:45Z</time>
      </trkpt>
      <trkpt lat="44.78988" lon="6.36275">
        <ele>2200.2</ele>
        <time>2024-08-12T06:33:46Z</time>
      </trkpt>
      <trkpt lat="44.78988" lon="6.36275">
        <ele>2200.2</ele>
        <time>2024-08-12T06:33:47Z</time>
      </trkpt>
      <trkpt lat="44.78988" lon="6.36275">
        <ele>2200.2</ele>
        <time>2024-08-12T06:33:48Z</time>
      </trkpt>
      <trkpt lat="44.78988" lon="6.36275">
        <ele>2200</ele>
        <time>2024-08-12T06:33:49Z</time>
      </trkpt>
      <trkpt lat="44.78988" lon="6.36275">
        <ele>2200</ele>
        <time>2024-08-12T06:33:50Z</time>
      </trkpt>
      <trkpt lat="44.78988" lon="6.36275">
        <ele>2200</ele>
        <time>2024-08-12T06:33:51Z</time>
      </trkpt>
      <trkpt lat="44.78988" lon="6.36275">
        <ele>2200</ele>
        <time>2024-08-12T06:33:52Z</time>
      </trkpt>
      <trkpt lat="44.78988" lon="6.36275">
        <ele>2200</ele>
        <time>2024-08-12T06:33:53Z</time>
      </trkpt>
      <trkpt lat="44.78988" lon="6.36275">
        <ele>2200</ele>
        <time>2024-08-12T06:33:54Z</time>
      </trkpt>
      <trkpt lat="44.78988" lon="6.36275">
        <ele>2200</ele>
        <time>2024-08-12T06:33:55Z</time>
      </trkpt>
      <trkpt lat="44.78988" lon="6.36275">
        <ele>2200</ele>
        <time>2024-08-12T06:33:56Z</time>
      </trkpt>
      <trkpt lat="44.78988" lon="6.36275">
        <ele>2200</ele>
        <time>2024-08-12T06:33:57Z</time>
      </trkpt>
      <trkpt lat="44.78988" lon="6.36275">
        <ele>2200.2</ele>
        <time>2024-08-12T06:33:58Z</time>
      </trkpt>
      <trkpt lat="44.78988" lon="6.36275">
        <ele>2200.2</ele>
        <time>2024-08-12T06:33:59Z</time>
      </trkpt>
      <trkpt lat="44.78988" lon="6.36275">
        <ele>2200.2</ele>
        <time>2024-08-12T06:34:00Z</time>
      </trkpt>
      <trkpt lat="44.78988" lon="6.36275">
        <ele>2200.2</ele>
        <time>2024-08-12T06:34:01Z</time>
      </trkpt>
      <trkpt lat="44.78988" lon="6.36275">
        <ele>2200.2</ele>
        <time>2024-08-12T06:34:02Z</time>
      </trkpt>
      <trkpt lat="44.78988" lon="6.36275">
        <ele>2200.2</ele>
        <time>2024-08-12T06:34:03Z</time>
      </trkpt>
      <trkpt lat="44.78988" lon="6.36275">
        <ele>2200</ele>
        <time>2024-08-12T06:34:04Z</time>
      </trkpt>
      <trkpt lat="44.78988" lon="6.36275">
        <ele>2200</ele>
        <time>2024-08-12T06:34:05Z</time>
      </trkpt>
      <trkpt lat="44.78988" lon="6.36275">
        <ele>2200.2</ele>
        <time>2024-08-12T06:34:06Z</time>
      </trkpt>
      <trkpt lat="44.78988" lon="6.36275">
        <ele>2200.2</ele>
        <time>2024-08-12T06:34:07Z</time>
      </trkpt>
      <trkpt lat="44.78988" lon="6.36275">
        <ele>2200.2</ele>
        <time>2024-08-12T06:34:08Z</time>
      </trkpt>
      <trkpt lat="44.78988" lon="6.36275">
        <ele>2200.4</ele>
        <time>2024-08-12T06:34:09Z</time>
      </trkpt>
      <trkpt lat="44.78988" lon="6.36275">
        <ele>2200.4</ele>
        <time>2024-08-12T06:34:10Z</time>
      </trkpt>
      <trkpt lat="44.78988" lon="6.36275">
        <ele>2200.2</ele>
        <time>2024-08-12T06:34:11Z</time>
      </trkpt>
      <trkpt lat="44.78988" lon="6.36275">
        <ele>2200.2</ele>
        <time>2024-08-12T06:34:12Z</time>
      </trkpt>
      <trkpt lat="44.78988" lon="6.36275">
        <ele>2200.4</ele>
        <time>2024-08-12T06:34:13Z</time>
      </trkpt>
      <trkpt lat="44.78988" lon="6.36275">
        <ele>2200.4</ele>
        <time>2024-08-12T06:34:14Z</time>
      </trkpt>
      <trkpt lat="44.78988" lon="6.36275">
        <ele>2200.4</ele>
        <time>2024-08-12T06:34:15Z</time>
      </trkpt>
      <trkpt lat="44.78988" lon="6.36275">
        <ele>2200.4</ele>
        <time>2024-08-12T06:34:16Z</time>
      </trkpt>
      <trkpt lat="44.78988" lon="6.36275">
        <ele>2200.2</ele>
        <time>2024-08-12T06:34:17Z</time>
      </trkpt>
      <trkpt lat="44.78988" lon="6.36275">
        <ele>2200.2</ele>
        <time>2024-08-12T06:34:18Z</time>
      </trkpt>
      <trkpt lat="44.78988" lon="6.36275">
        <ele>2200.2</ele>
        <time>2024-08-12T06:34:19Z</time>
      </trkpt>
      <trkpt lat="44.78988" lon="6.36275">
        <ele>2200.4</ele>
        <time>2024-08-12T06:34:20Z</time>
      </trkpt>
      <trkpt lat="44.78988" lon="6.36275">
        <ele>2200.4</ele>
        <time>2024-08-12T06:34:21Z</time>
      </trkpt>
      <trkpt lat="44.78988" lon="6.36275">
        <ele>2200.4</ele>
        <time>2024-08-12T06:34:22Z</time>
      </trkpt>
      <trkpt lat="44.78988" lon="6.36275">
        <ele>2200.4</ele>
        <time>2024-08-12T06:34:23Z</time>
      </trkpt>
      <trkpt lat="44.78988" lon="6.36275">
        <ele>2200.4</ele>
        <time>2024-08-12T06:34:24Z</time>
      </trkpt>
      <trkpt lat="44.78988" lon="6.36275">
        <ele>2200.4</ele>
        <time>2024-08-12T06:34:25Z</time>
      </trkpt>
      <trkpt lat="44.78988" lon="6.36275">
        <ele>2200.4</ele>
        <time>2024-08-12T06:34:26Z</time>
      </trkpt>
      <trkpt lat="44.78988" lon="6.36275">
        <ele>2200.4</ele>
        <time>2024-08-12T06:34:27Z</time>
      </trkpt>
      <trkpt lat="44.78988" lon="6.36275">
        <ele>2200.4</ele>
        <time>2024-08-12T06:34:28Z</time>
      </trkpt>
      <trkpt lat="44.78988" lon="6.36275">
        <ele>2200.4</ele>
        <time>2024-08-12T06:34:29Z</time>
      </trkpt>
      <trkpt lat="44.78988" lon="6.36275">
        <ele>2200.4</ele>
        <time>2024-08-12T06:34:30Z</time>
      </trkpt>
      <trkpt lat="44.78988" lon="6.36275">
        <ele>2200.4</ele>
        <time>2024-08-12T06:34:31Z</time>
      </trkpt>
      <trkpt lat="44.78988" lon="6.36275">
        <ele>2200.4</ele>
        <time>2024-08-12T06:34:32Z</time>
      </trkpt>
      <trkpt lat="44.78988" lon="6.36275">
        <ele>2200</ele>
        <time>2024-08-12T06:34:33Z</time>
      </trkpt>
      <trkpt lat="44.78988" lon="6.36275">
        <ele>2200</ele>
        <time>2024-08-12T06:34:34Z</time>
      </trkpt>
      <trkpt lat="44.78988" lon="6.36275">
        <ele>2200.2</ele>
        <time>2024-08-12T06:34:35Z</time>
      </trkpt>
      <trkpt lat="44.78988" lon="6.36275">
        <ele>2200.2</ele>
        <time>2024-08-12T06:34:36Z</time>
      </trkpt>
      <trkpt lat="44.78988" lon="6.36275">
        <ele>2200.2</ele>
        <time>2024-08-12T06:34:37Z</time>
      </trkpt>
      <trkpt lat="44.78988" lon="6.36275">
        <ele>2200.2</ele>
        <time>2024-08-12T06:34:38Z</time>
      </trkpt>
      <trkpt lat="44.78988" lon="6.36275">
        <ele>2200.2</ele>
        <time>2024-08-12T06:34:39Z</time>
      </trkpt>
      <trkpt lat="44.78988" lon="6.36275">
        <ele>2200</ele>
        <time>2024-08-12T06:34:40Z</time>
      </trkpt>
      <trkpt lat="44.78988" lon="6.36275">
        <ele>2200</ele>
        <time>2024-08-12T06:34:41Z</time>
      </trkpt>
      <trkpt lat="44.78988" lon="6.36275">
        <ele>2200.2</ele>
        <time>2024-08-12T06:34:42Z</time>
      </trkpt>
      <trkpt lat="44.78988" lon="6.36275">
        <ele>2200.2</ele>
        <time>2024-08-12T06:34:43Z</time>
      </trkpt>
      <trkpt lat="44.78988" lon="6.36275">
        <ele>2200</ele>
        <time>2024-08-12T06:34:44Z</time>
      </trkpt>
      <trkpt lat="44.78988" lon="6.36275">
        <ele>2200</ele>
        <time>2024-08-12T06:34:45Z</time>
      </trkpt>
      <trkpt lat="44.78988" lon="6.36275">
        <ele>2200.2</ele>
        <time>2024-08-12T06:34:46Z</time>
      </trkpt>
      <trkpt lat="44.78988" lon="6.36275">
        <ele>2200.2</ele>
        <time>2024-08-12T06:34:47Z</time>
      </trkpt>
      <trkpt lat="44.78988" lon="6.36275">
        <ele>2200</ele>
        <time>2024-08-12T06:34:48Z</time>
      </trkpt>
      <trkpt lat="44.78988" lon="6.36275">
        <ele>2199.8</ele>
        <time>2024-08-12T06:34:49Z</time>
      </trkpt>
      <trkpt lat="44.78988" lon="6.36275">
        <ele>2199.8</ele>
        <time>2024-08-12T06:34:50Z</time>
      </trkpt>
      <trkpt lat="44.78988" lon="6.36275">
        <ele>2200.2</ele>
        <time>2024-08-12T06:34:51Z</time>
      </trkpt>
      <trkpt lat="44.78988" lon="6.36275">
        <ele>2200.6</ele>
        <time>2024-08-12T06:34:52Z</time>
      </trkpt>
      <trkpt lat="44.78988" lon="6.36275">
        <ele>2200.8</ele>
        <time>2024-08-12T06:34:53Z</time>
      </trkpt>
      <trkpt lat="44.78989" lon="6.36271">
        <ele>2200.8</ele>
        <time>2024-08-12T06:34:54Z</time>
      </trkpt>
      <trkpt lat="44.78989" lon="6.36271">
        <ele>2200.8</ele>
        <time>2024-08-12T06:34:55Z</time>
      </trkpt>
      <trkpt lat="44.7899" lon="6.36269">
        <ele>2200.8</ele>
        <time>2024-08-12T06:34:56Z</time>
      </trkpt>
      <trkpt lat="44.7899" lon="6.36269">
        <ele>2200.8</ele>
        <time>2024-08-12T06:34:57Z</time>
      </trkpt>
      <trkpt lat="44.78991" lon="6.36267">
        <ele>2200.8</ele>
        <time>2024-08-12T06:34:58Z</time>
      </trkpt>
      <trkpt lat="44.78991" lon="6.36267">
        <ele>2200.8</ele>
        <time>2024-08-12T06:34:59Z</time>
      </trkpt>
      <trkpt lat="44.78993" lon="6.36265">
        <ele>2200.8</ele>
        <time>2024-08-12T06:35:00Z</time>
      </trkpt>
      <trkpt lat="44.78993" lon="6.36265">
        <ele>2200.8</ele>
        <time>2024-08-12T06:35:01Z</time>
      </trkpt>
      <trkpt lat="44.78994" lon="6.36262">
        <ele>2201.4</ele>
        <time>2024-08-12T06:35:02Z</time>
      </trkpt>
      <trkpt lat="44.78994" lon="6.36262">
        <ele>2201.4</ele>
        <time>2024-08-12T06:35:03Z</time>
      </trkpt>
      <trkpt lat="44.78994" lon="6.36262">
        <ele>2201.2</ele>
        <time>2024-08-12T06:35:04Z</time>
      </trkpt>
      <trkpt lat="44.78993" lon="6.36259">
        <ele>2201.2</ele>
        <time>2024-08-12T06:35:05Z</time>
      </trkpt>
      <trkpt lat="44.78993" lon="6.36259">
        <ele>2201.2</ele>
        <time>2024-08-12T06:35:06Z</time>
      </trkpt>
      <trkpt lat="44.78994" lon="6.36256">
        <ele>2201.4</ele>
        <time>2024-08-12T06:35:07Z</time>
      </trkpt>
      <trkpt lat="44.78994" lon="6.36256">
        <ele>2201.6</ele>
        <time>2024-08-12T06:35:08Z</time>
      </trkpt>
      <trkpt lat="44.78994" lon="6.36256">
        <ele>2201.6</ele>
        <time>2024-08-12T06:35:09Z</time>
      </trkpt>
      <trkpt lat="44.78994" lon="6.36253">
        <ele>2201.8</ele>
        <time>2024-08-12T06:35:10Z</time>
      </trkpt>
      <trkpt lat="44.78994" lon="6.36253">
        <ele>2201.8</ele>
        <time>2024-08-12T06:35:11Z</time>
      </trkpt>
      <trkpt lat="44.78994" lon="6.36251">
        <ele>2202.4</ele>
        <time>2024-08-12T06:35:12Z</time>
      </trkpt>
      <trkpt lat="44.78994" lon="6.36251">
        <ele>2202.6</ele>
        <time>2024-08-12T06:35:13Z</time>
      </trkpt>
      <trkpt lat="44.78994" lon="6.36251">
        <ele>2202.6</ele>
        <time>2024-08-12T06:35:14Z</time>
      </trkpt>
      <trkpt lat="44.78994" lon="6.36247">
        <ele>2202.6</ele>
        <time>2024-08-12T06:35:15Z</time>
      </trkpt>
      <trkpt lat="44.78994" lon="6.36247">
        <ele>2202.8</ele>
        <time>2024-08-12T06:35:16Z</time>
      </trkpt>
      <trkpt lat="44.78994" lon="6.36247">
        <ele>2202.8</ele>
        <time>2024-08-12T06:35:17Z</time>
      </trkpt>
      <trkpt lat="44.78995" lon="6.36244">
        <ele>2203</ele>
        <time>2024-08-12T06:35:18Z</time>
      </trkpt>
      <trkpt lat="44.78995" lon="6.36244">
        <ele>2203.4</ele>
        <time>2024-08-12T06:35:19Z</time>
      </trkpt>
      <trkpt lat="44.78995" lon="6.36244">
        <ele>2203.4</ele>
        <time>2024-08-12T06:35:20Z</time>
      </trkpt>
      <trkpt lat="44.78995" lon="6.36244">
        <ele>2203.4</ele>
        <time>2024-08-12T06:35:21Z</time>
      </trkpt>
      <trkpt lat="44.78994" lon="6.36242">
        <ele>2203.8</ele>
        <time>2024-08-12T06:35:22Z</time>
      </trkpt>
      <trkpt lat="44.78994" lon="6.36242">
        <ele>2204</ele>
        <time>2024-08-12T06:35:23Z</time>
      </trkpt>
      <trkpt lat="44.78994" lon="6.36242">
        <ele>2204.2</ele>
        <time>2024-08-12T06:35:24Z</time>
      </trkpt>
      <trkpt lat="44.78993" lon="6.36244">
        <ele>2204.4</ele>
        <time>2024-08-12T06:35:25Z</time>
      </trkpt>
      <trkpt lat="44.78993" lon="6.36244">
        <ele>2204.4</ele>
        <time>2024-08-12T06:35:26Z</time>
      </trkpt>
      <trkpt lat="44.78992" lon="6.36246">
        <ele>2205</ele>
        <time>2024-08-12T06:35:27Z</time>
      </trkpt>
      <trkpt lat="44.78992" lon="6.36246">
        <ele>2205</ele>
        <time>2024-08-12T06:35:28Z</time>
      </trkpt>
      <trkpt lat="44.78992" lon="6.36246">
        <ele>2205</ele>
        <time>2024-08-12T06:35:29Z</time>
      </trkpt>
      <trkpt lat="44.7899" lon="6.36249">
        <ele>2205</ele>
        <time>2024-08-12T06:35:30Z</time>
      </trkpt>
      <trkpt lat="44.7899" lon="6.36249">
        <ele>2205</ele>
        <time>2024-08-12T06:35:31Z</time>
      </trkpt>
      <trkpt lat="44.78988" lon="6.36249">
        <ele>2205</ele>
        <time>2024-08-12T06:35:32Z</time>
      </trkpt>
      <trkpt lat="44.78988" lon="6.36249">
        <ele>2205</ele>
        <time>2024-08-12T06:35:33Z</time>
      </trkpt>
      <trkpt lat="44.78988" lon="6.36249">
        <ele>2205.2</ele>
        <time>2024-08-12T06:35:34Z</time>
      </trkpt>
      <trkpt lat="44.78986" lon="6.3625">
        <ele>2205.4</ele>
        <time>2024-08-12T06:35:35Z</time>
      </trkpt>
      <trkpt lat="44.78986" lon="6.3625">
        <ele>2205.4</ele>
        <time>2024-08-12T06:35:36Z</time>
      </trkpt>
      <trkpt lat="44.78986" lon="6.3625">
        <ele>2205.8</ele>
        <time>2024-08-12T06:35:37Z</time>
      </trkpt>
      <trkpt lat="44.78983" lon="6.36251">
        <ele>2205.8</ele>
        <time>2024-08-12T06:35:38Z</time>
      </trkpt>
      <trkpt lat="44.78983" lon="6.36251">
        <ele>2205.8</ele>
        <time>2024-08-12T06:35:39Z</time>
      </trkpt>
      <trkpt lat="44.78983" lon="6.36251">
        <ele>2206.2</ele>
        <time>2024-08-12T06:35:40Z</time>
      </trkpt>
      <trkpt lat="44.78981" lon="6.36252">
        <ele>2206.8</ele>
        <time>2024-08-12T06:35:41Z</time>
      </trkpt>
      <trkpt lat="44.78981" lon="6.36252">
        <ele>2206.8</ele>
        <time>2024-08-12T06:35:42Z</time>
      </trkpt>
      <trkpt lat="44.7898" lon="6.36252">
        <ele>2207.2</ele>
        <time>2024-08-12T06:35:43Z</time>
      </trkpt>
      <trkpt lat="44.7898" lon="6.36252">
        <ele>2207.4</ele>
        <time>2024-08-12T06:35:44Z</time>
      </trkpt>
      <trkpt lat="44.7898" lon="6.36252">
        <ele>2207.6</ele>
        <time>2024-08-12T06:35:45Z</time>
      </trkpt>
      <trkpt lat="44.78977" lon="6.36251">
        <ele>2207.8</ele>
        <time>2024-08-12T06:35:46Z</time>
      </trkpt>
      <trkpt lat="44.78977" lon="6.36251">
        <ele>2207.8</ele>
        <time>2024-08-12T06:35:47Z</time>
      </trkpt>
      <trkpt lat="44.78977" lon="6.36251">
        <ele>2207.8</ele>
        <time>2024-08-12T06:35:48Z</time>
      </trkpt>
      <trkpt lat="44.78975" lon="6.3625">
        <ele>2207.8</ele>
        <time>2024-08-12T06:35:49Z</time>
      </trkpt>
      <trkpt lat="44.78975" lon="6.3625">
        <ele>2208</ele>
        <time>2024-08-12T06:35:50Z</time>
      </trkpt>
      <trkpt lat="44.78973" lon="6.3625">
        <ele>2208</ele>
        <time>2024-08-12T06:35:51Z</time>
      </trkpt>
      <trkpt lat="44.78973" lon="6.3625">
        <ele>2208.2</ele>
        <time>2024-08-12T06:35:52Z</time>
      </trkpt>
      <trkpt lat="44.78972" lon="6.36249">
        <ele>2208.2</ele>
        <time>2024-08-12T06:35:53Z</time>
      </trkpt>
      <trkpt lat="44.78972" lon="6.36249">
        <ele>2208.6</ele>
        <time>2024-08-12T06:35:54Z</time>
      </trkpt>
      <trkpt lat="44.78972" lon="6.36249">
        <ele>2208.8</ele>
        <time>2024-08-12T06:35:55Z</time>
      </trkpt>
      <trkpt lat="44.78969" lon="6.36248">
        <ele>2209</ele>
        <time>2024-08-12T06:35:56Z</time>
      </trkpt>
      <trkpt lat="44.78969" lon="6.36248">
        <ele>2209.2</ele>
        <time>2024-08-12T06:35:57Z</time>
      </trkpt>
      <trkpt lat="44.78969" lon="6.36248">
        <ele>2209.6</ele>
        <time>2024-08-12T06:35:58Z</time>
      </trkpt>
      <trkpt lat="44.78967" lon="6.36247">
        <ele>2209.8</ele>
        <time>2024-08-12T06:35:59Z</time>
      </trkpt>
      <trkpt lat="44.78967" lon="6.36247">
        <ele>2209.8</ele>
        <time>2024-08-12T06:36:00Z</time>
      </trkpt>
      <trkpt lat="44.78967" lon="6.36247">
        <ele>2210.2</ele>
        <time>2024-08-12T06:36:01Z</time>
      </trkpt>
      <trkpt lat="44.78967" lon="6.36247">
        <ele>2210.2</ele>
        <time>2024-08-12T06:36:02Z</time>
      </trkpt>
      <trkpt lat="44.78965" lon="6.36246">
        <ele>2210.2</ele>
        <time>2024-08-12T06:36:03Z</time>
      </trkpt>
      <trkpt lat="44.78965" lon="6.36246">
        <ele>2210.4</ele>
        <time>2024-08-12T06:36:04Z</time>
      </trkpt>
      <trkpt lat="44.78965" lon="6.36246">
        <ele>2210.6</ele>
        <time>2024-08-12T06:36:05Z</time>
      </trkpt>
      <trkpt lat="44.78963" lon="6.36246">
        <ele>2210.8</ele>
        <time>2024-08-12T06:36:06Z</time>
      </trkpt>
      <trkpt lat="44.78963" lon="6.36246">
        <ele>2210.8</ele>
        <time>2024-08-12T06:36:07Z</time>
      </trkpt>
      <trkpt lat="44.78963" lon="6.36246">
        <ele>2210.8</ele>
        <time>2024-08-12T06:36:08Z</time>
      </trkpt>
      <trkpt lat="44.78963" lon="6.36246">
        <ele>2211</ele>
        <time>2024-08-12T06:36:09Z</time>
      </trkpt>
      <trkpt lat="44.7896" lon="6.36245">
        <ele>2211.2</ele>
        <time>2024-08-12T06:36:10Z</time>
      </trkpt>
      <trkpt lat="44.7896" lon="6.36245">
        <ele>2211.2</ele>
        <time>2024-08-12T06:36:11Z</time>
      </trkpt>
      <trkpt lat="44.7896" lon="6.36245">
        <ele>2211.2</ele>
        <time>2024-08-12T06:36:12Z</time>
      </trkpt>
      <trkpt lat="44.78958" lon="6.36243">
        <ele>2211.2</ele>
        <time>2024-08-12T06:36:13Z</time>
      </trkpt>
      <trkpt lat="44.78958" lon="6.36243">
        <ele>2211.2</ele>
        <time>2024-08-12T06:36:14Z</time>
      </trkpt>
      <trkpt lat="44.78956" lon="6.36242">
        <ele>2211.4</ele>
        <time>2024-08-12T06:36:15Z</time>
      </trkpt>
      <trkpt lat="44.78956" lon="6.36242">
        <ele>2211.8</ele>
        <time>2024-08-12T06:36:16Z</time>
      </trkpt>
      <trkpt lat="44.78954" lon="6.36241">
        <ele>2211.8</ele>
        <time>2024-08-12T06:36:17Z</time>
      </trkpt>
      <trkpt lat="44.78954" lon="6.36241">
        <ele>2211.8</ele>
        <time>2024-08-12T06:36:18Z</time>
      </trkpt>
      <trkpt lat="44.78954" lon="6.36241">
        <ele>2212</ele>
        <time>2024-08-12T06:36:19Z</time>
      </trkpt>
      <trkpt lat="44.78952" lon="6.3624">
        <ele>2212.4</ele>
        <time>2024-08-12T06:36:20Z</time>
      </trkpt>
      <trkpt lat="44.78952" lon="6.3624">
        <ele>2212.6</ele>
        <time>2024-08-12T06:36:21Z</time>
      </trkpt>
      <trkpt lat="44.78952" lon="6.3624">
        <ele>2212.6</ele>
        <time>2024-08-12T06:36:22Z</time>
      </trkpt>
      <trkpt lat="44.7895" lon="6.3624">
        <ele>2212.8</ele>
        <time>2024-08-12T06:36:23Z</time>
      </trkpt>
      <trkpt lat="44.7895" lon="6.3624">
        <ele>2212.8</ele>
        <time>2024-08-12T06:36:24Z</time>
      </trkpt>
      <trkpt lat="44.7895" lon="6.3624">
        <ele>2213</ele>
        <time>2024-08-12T06:36:25Z</time>
      </trkpt>
      <trkpt lat="44.7895" lon="6.3624">
        <ele>2213.2</ele>
        <time>2024-08-12T06:36:26Z</time>
      </trkpt>
      <trkpt lat="44.78948" lon="6.3624">
        <ele>2213.2</ele>
        <time>2024-08-12T06:36:27Z</time>
      </trkpt>
      <trkpt lat="44.78948" lon="6.3624">
        <ele>2213.4</ele>
        <time>2024-08-12T06:36:28Z</time>
      </trkpt>
      <trkpt lat="44.78946" lon="6.36241">
        <ele>2213.4</ele>
        <time>2024-08-12T06:36:29Z</time>
      </trkpt>
      <trkpt lat="44.78946" lon="6.36241">
        <ele>2213.6</ele>
        <time>2024-08-12T06:36:30Z</time>
      </trkpt>
      <trkpt lat="44.78946" lon="6.36241">
        <ele>2213.6</ele>
        <time>2024-08-12T06:36:31Z</time>
      </trkpt>
      <trkpt lat="44.78944" lon="6.36241">
        <ele>2213.8</ele>
        <time>2024-08-12T06:36:32Z</time>
      </trkpt>
      <trkpt lat="44.78944" lon="6.36241">
        <ele>2214</ele>
        <time>2024-08-12T06:36:33Z</time>
      </trkpt>
      <trkpt lat="44.78942" lon="6.36242">
        <ele>2214.2</ele>
        <time>2024-08-12T06:36:34Z</time>
      </trkpt>
      <trkpt lat="44.78942" lon="6.36242">
        <ele>2214.4</ele>
        <time>2024-08-12T06:36:35Z</time>
      </trkpt>
      <trkpt lat="44.78942" lon="6.36242">
        <ele>2214.4</ele>
        <time>2024-08-12T06:36:36Z</time>
      </trkpt>
      <trkpt lat="44.78942" lon="6.36242">
        <ele>2214.4</ele>
        <time>2024-08-12T06:36:37Z</time>
      </trkpt>
      <trkpt lat="44.78942" lon="6.36242">
        <ele>2214.6</ele>
        <time>2024-08-12T06:36:38Z</time>
      </trkpt>
      <trkpt lat="44.78942" lon="6.36242">
        <ele>2214.8</ele>
        <time>2024-08-12T06:36:39Z</time>
      </trkpt>
      <trkpt lat="44.78942" lon="6.36242">
        <ele>2215</ele>
        <time>2024-08-12T06:36:40Z</time>
      </trkpt>
      <trkpt lat="44.78942" lon="6.36242">
        <ele>2215</ele>
        <time>2024-08-12T06:36:41Z</time>
      </trkpt>
      <trkpt lat="44.78942" lon="6.36242">
        <ele>2215.2</ele>
        <time>2024-08-12T06:36:42Z</time>
      </trkpt>
      <trkpt lat="44.78942" lon="6.36242">
        <ele>2215.2</ele>
        <time>2024-08-12T06:36:43Z</time>
      </trkpt>
      <trkpt lat="44.78942" lon="6.36242">
        <ele>2215.2</ele>
        <time>2024-08-12T06:36:44Z</time>
      </trkpt>
      <trkpt lat="44.78942" lon="6.36242">
        <ele>2215</ele>
        <time>2024-08-12T06:36:45Z</time>
      </trkpt>
      <trkpt lat="44.78942" lon="6.36242">
        <ele>2215</ele>
        <time>2024-08-12T06:36:46Z</time>
      </trkpt>
      <trkpt lat="44.78941" lon="6.36244">
        <ele>2215</ele>
        <time>2024-08-12T06:36:47Z</time>
      </trkpt>
      <trkpt lat="44.78941" lon="6.36244">
        <ele>2215.2</ele>
        <time>2024-08-12T06:36:48Z</time>
      </trkpt>
      <trkpt lat="44.78939" lon="6.36246">
        <ele>2215.2</ele>
        <time>2024-08-12T06:36:49Z</time>
      </trkpt>
      <trkpt lat="44.78939" lon="6.36246">
        <ele>2215.4</ele>
        <time>2024-08-12T06:36:50Z</time>
      </trkpt>
      <trkpt lat="44.78937" lon="6.36246">
        <ele>2215.6</ele>
        <time>2024-08-12T06:36:51Z</time>
      </trkpt>
      <trkpt lat="44.78937" lon="6.36246">
        <ele>2215.6</ele>
        <time>2024-08-12T06:36:52Z</time>
      </trkpt>
      <trkpt lat="44.78934" lon="6.36245">
        <ele>2215.8</ele>
        <time>2024-08-12T06:36:53Z</time>
      </trkpt>
      <trkpt lat="44.78934" lon="6.36245">
        <ele>2216</ele>
        <time>2024-08-12T06:36:54Z</time>
      </trkpt>
      <trkpt lat="44.78933" lon="6.36245">
        <ele>2216.2</ele>
        <time>2024-08-12T06:36:55Z</time>
      </trkpt>
      <trkpt lat="44.78933" lon="6.36245">
        <ele>2216.4</ele>
        <time>2024-08-12T06:36:56Z</time>
      </trkpt>
      <trkpt lat="44.78931" lon="6.36245">
        <ele>2216.4</ele>
        <time>2024-08-12T06:36:57Z</time>
      </trkpt>
      <trkpt lat="44.78931" lon="6.36245">
        <ele>2216.8</ele>
        <time>2024-08-12T06:36:58Z</time>
      </trkpt>
      <trkpt lat="44.78931" lon="6.36245">
        <ele>2216.8</ele>
        <time>2024-08-12T06:36:59Z</time>
      </trkpt>
      <trkpt lat="44.78928" lon="6.36245">
        <ele>2217</ele>
        <time>2024-08-12T06:37:00Z</time>
      </trkpt>
      <trkpt lat="44.78928" lon="6.36245">
        <ele>2217.2</ele>
        <time>2024-08-12T06:37:01Z</time>
      </trkpt>
      <trkpt lat="44.78926" lon="6.36246">
        <ele>2217.4</ele>
        <time>2024-08-12T06:37:02Z</time>
      </trkpt>
      <trkpt lat="44.78926" lon="6.36246">
        <ele>2217.4</ele>
        <time>2024-08-12T06:37:03Z</time>
      </trkpt>
      <trkpt lat="44.78926" lon="6.36246">
        <ele>2217.6</ele>
        <time>2024-08-12T06:37:04Z</time>
      </trkpt>
      <trkpt lat="44.78924" lon="6.36246">
        <ele>2217.6</ele>
        <time>2024-08-12T06:37:05Z</time>
      </trkpt>
      <trkpt lat="44.78924" lon="6.36246">
        <ele>2217.8</ele>
        <time>2024-08-12T06:37:06Z</time>
      </trkpt>
      <trkpt lat="44.78924" lon="6.36246">
        <ele>2217.8</ele>
        <time>2024-08-12T06:37:07Z</time>
      </trkpt>
      <trkpt lat="44.78921" lon="6.36247">
        <ele>2218</ele>
        <time>2024-08-12T06:37:08Z</time>
      </trkpt>
      <trkpt lat="44.78921" lon="6.36247">
        <ele>2218.2</ele>
        <time>2024-08-12T06:37:09Z</time>
      </trkpt>
      <trkpt lat="44.78921" lon="6.36247">
        <ele>2218.2</ele>
        <time>2024-08-12T06:37:10Z</time>
      </trkpt>
      <trkpt lat="44.78919" lon="6.36247">
        <ele>2218.2</ele>
        <time>2024-08-12T06:37:11Z</time>
      </trkpt>
      <trkpt lat="44.78919" lon="6.36247">
        <ele>2218.6</ele>
        <time>2024-08-12T06:37:12Z</time>
      </trkpt>
      <trkpt lat="44.78917" lon="6.36246">
        <ele>2218.6</ele>
        <time>2024-08-12T06:37:13Z</time>
      </trkpt>
      <trkpt lat="44.78917" lon="6.36246">
        <ele>2218.8</ele>
        <time>2024-08-12T06:37:14Z</time>
      </trkpt>
      <trkpt lat="44.78915" lon="6.36245">
        <ele>2219</ele>
        <time>2024-08-12T06:37:15Z</time>
      </trkpt>
      <trkpt lat="44.78915" lon="6.36245">
        <ele>2219.2</ele>
        <time>2024-08-12T06:37:16Z</time>
      </trkpt>
      <trkpt lat="44.78915" lon="6.36245">
        <ele>2219.2</ele>
        <time>2024-08-12T06:37:17Z</time>
      </trkpt>
      <trkpt lat="44.78913" lon="6.36243">
        <ele>2219.2</ele>
        <time>2024-08-12T06:37:18Z</time>
      </trkpt>
      <trkpt lat="44.78913" lon="6.36243">
        <ele>2219.6</ele>
        <time>2024-08-12T06:37:19Z</time>
      </trkpt>
      <trkpt lat="44.78913" lon="6.36243">
        <ele>2219.6</ele>
        <time>2024-08-12T06:37:20Z</time>
      </trkpt>
      <trkpt lat="44.78913" lon="6.36243">
        <ele>2219.8</ele>
        <time>2024-08-12T06:37:21Z</time>
      </trkpt>
      <trkpt lat="44.78911" lon="6.36243">
        <ele>2220</ele>
        <time>2024-08-12T06:37:22Z</time>
      </trkpt>
      <trkpt lat="44.78911" lon="6.36243">
        <ele>2220.4</ele>
        <time>2024-08-12T06:37:23Z</time>
      </trkpt>
      <trkpt lat="44.78909" lon="6.36242">
        <ele>2220.8</ele>
        <time>2024-08-12T06:37:24Z</time>
      </trkpt>
      <trkpt lat="44.78909" lon="6.36242">
        <ele>2220.8</ele>
        <time>2024-08-12T06:37:25Z</time>
      </trkpt>
      <trkpt lat="44.78907" lon="6.36243">
        <ele>2220.8</ele>
        <time>2024-08-12T06:37:26Z</time>
      </trkpt>
      <trkpt lat="44.78907" lon="6.36243">
        <ele>2220.8</ele>
        <time>2024-08-12T06:37:27Z</time>
      </trkpt>
      <trkpt lat="44.78905" lon="6.36243">
        <ele>2221</ele>
        <time>2024-08-12T06:37:28Z</time>
      </trkpt>
      <trkpt lat="44.78905" lon="6.36243">
        <ele>2221.2</ele>
        <time>2024-08-12T06:37:29Z</time>
      </trkpt>
      <trkpt lat="44.78903" lon="6.36243">
        <ele>2221.2</ele>
        <time>2024-08-12T06:37:30Z</time>
      </trkpt>
      <trkpt lat="44.78903" lon="6.36243">
        <ele>2221.4</ele>
        <time>2024-08-12T06:37:31Z</time>
      </trkpt>
      <trkpt lat="44.78903" lon="6.36243">
        <ele>2221.4</ele>
        <time>2024-08-12T06:37:32Z</time>
      </trkpt>
      <trkpt lat="44.78901" lon="6.36243">
        <ele>2221.8</ele>
        <time>2024-08-12T06:37:33Z</time>
      </trkpt>
      <trkpt lat="44.78901" lon="6.36243">
        <ele>2222</ele>
        <time>2024-08-12T06:37:34Z</time>
      </trkpt>
      <trkpt lat="44.78899" lon="6.36242">
        <ele>2222.2</ele>
        <time>2024-08-12T06:37:35Z</time>
      </trkpt>
      <trkpt lat="44.78899" lon="6.36242">
        <ele>2222.4</ele>
        <time>2024-08-12T06:37:36Z</time>
      </trkpt>
      <trkpt lat="44.78899" lon="6.36242">
        <ele>2222.4</ele>
        <time>2024-08-12T06:37:37Z</time>
      </trkpt>
      <trkpt lat="44.78899" lon="6.36242">
        <ele>2222.8</ele>
        <time>2024-08-12T06:37:38Z</time>
      </trkpt>
      <trkpt lat="44.78898" lon="6.36239">
        <ele>2223</ele>
        <time>2024-08-12T06:37:39Z</time>
      </trkpt>
      <trkpt lat="44.78898" lon="6.36239">
        <ele>2223.2</ele>
        <time>2024-08-12T06:37:40Z</time>
      </trkpt>
      <trkpt lat="44.78898" lon="6.36239">
        <ele>2223.4</ele>
        <time>2024-08-12T06:37:41Z</time>
      </trkpt>
      <trkpt lat="44.78896" lon="6.36237">
        <ele>2223.4</ele>
        <time>2024-08-12T06:37:42Z</time>
      </trkpt>
      <trkpt lat="44.78896" lon="6.36237">
        <ele>2223.4</ele>
        <time>2024-08-12T06:37:43Z</time>
      </trkpt>
      <trkpt lat="44.78896" lon="6.36237">
        <ele>2223.8</ele>
        <time>2024-08-12T06:37:44Z</time>
      </trkpt>
      <trkpt lat="44.78895" lon="6.36234">
        <ele>2223.8</ele>
        <time>2024-08-12T06:37:45Z</time>
      </trkpt>
      <trkpt lat="44.78895" lon="6.36234">
        <ele>2223.8</ele>
        <time>2024-08-12T06:37:46Z</time>
      </trkpt>
      <trkpt lat="44.78895" lon="6.36234">
        <ele>2223.8</ele>
        <time>2024-08-12T06:37:47Z</time>
      </trkpt>
      <trkpt lat="44.78895" lon="6.36234">
        <ele>2224</ele>
        <time>2024-08-12T06:37:48Z</time>
      </trkpt>
      <trkpt lat="44.78895" lon="6.36234">
        <ele>2224.2</ele>
        <time>2024-08-12T06:37:49Z</time>
      </trkpt>
      <trkpt lat="44.78895" lon="6.36234">
        <ele>2224.4</ele>
        <time>2024-08-12T06:37:50Z</time>
      </trkpt>
      <trkpt lat="44.78895" lon="6.36234">
        <ele>2224.6</ele>
        <time>2024-08-12T06:37:51Z</time>
      </trkpt>
      <trkpt lat="44.78895" lon="6.36234">
        <ele>2224.6</ele>
        <time>2024-08-12T06:37:52Z</time>
      </trkpt>
      <trkpt lat="44.78895" lon="6.36234">
        <ele>2224.6</ele>
        <time>2024-08-12T06:37:53Z</time>
      </trkpt>
      <trkpt lat="44.78895" lon="6.36234">
        <ele>2224.8</ele>
        <time>2024-08-12T06:37:54Z</time>
      </trkpt>
      <trkpt lat="44.78895" lon="6.36234">
        <ele>2224.8</ele>
        <time>2024-08-12T06:37:55Z</time>
      </trkpt>
      <trkpt lat="44.78895" lon="6.36234">
        <ele>2224.8</ele>
        <time>2024-08-12T06:37:56Z</time>
      </trkpt>
      <trkpt lat="44.78895" lon="6.36234">
        <ele>2224.8</ele>
        <time>2024-08-12T06:37:57Z</time>
      </trkpt>
      <trkpt lat="44.78895" lon="6.36234">
        <ele>2224.8</ele>
        <time>2024-08-12T06:37:58Z</time>
      </trkpt>
      <trkpt lat="44.78895" lon="6.36234">
        <ele>2224.8</ele>
        <time>2024-08-12T06:37:59Z</time>
      </trkpt>
      <trkpt lat="44.78895" lon="6.36234">
        <ele>2224.6</ele>
        <time>2024-08-12T06:38:00Z</time>
      </trkpt>
      <trkpt lat="44.78895" lon="6.36234">
        <ele>2224.6</ele>
        <time>2024-08-12T06:38:01Z</time>
      </trkpt>
      <trkpt lat="44.78895" lon="6.36234">
        <ele>2224.6</ele>
        <time>2024-08-12T06:38:02Z</time>
      </trkpt>
      <trkpt lat="44.78895" lon="6.36234">
        <ele>2224.6</ele>
        <time>2024-08-12T06:38:03Z</time>
      </trkpt>
      <trkpt lat="44.78895" lon="6.36234">
        <ele>2224.4</ele>
        <time>2024-08-12T06:38:04Z</time>
      </trkpt>
      <trkpt lat="44.78895" lon="6.36234">
        <ele>2224.4</ele>
        <time>2024-08-12T06:38:05Z</time>
      </trkpt>
      <trkpt lat="44.78895" lon="6.36234">
        <ele>2224.2</ele>
        <time>2024-08-12T06:38:06Z</time>
      </trkpt>
      <trkpt lat="44.78895" lon="6.36234">
        <ele>2224</ele>
        <time>2024-08-12T06:38:07Z</time>
      </trkpt>
      <trkpt lat="44.78895" lon="6.36234">
        <ele>2224</ele>
        <time>2024-08-12T06:38:08Z</time>
      </trkpt>
      <trkpt lat="44.78895" lon="6.36234">
        <ele>2224.2</ele>
        <time>2024-08-12T06:38:09Z</time>
      </trkpt>
      <trkpt lat="44.78895" lon="6.36234">
        <ele>2224.2</ele>
        <time>2024-08-12T06:38:10Z</time>
      </trkpt>
      <trkpt lat="44.78895" lon="6.36234">
        <ele>2224.2</ele>
        <time>2024-08-12T06:38:11Z</time>
      </trkpt>
      <trkpt lat="44.78895" lon="6.36234">
        <ele>2224.2</ele>
        <time>2024-08-12T06:38:12Z</time>
      </trkpt>
      <trkpt lat="44.78895" lon="6.36234">
        <ele>2224.2</ele>
        <time>2024-08-12T06:38:13Z</time>
      </trkpt>
      <trkpt lat="44.78895" lon="6.36234">
        <ele>2224.2</ele>
        <time>2024-08-12T06:38:14Z</time>
      </trkpt>
      <trkpt lat="44.78895" lon="6.36234">
        <ele>2224.2</ele>
        <time>2024-08-12T06:38:15Z</time>
      </trkpt>
      <trkpt lat="44.78895" lon="6.36234">
        <ele>2224.2</ele>
        <time>2024-08-12T06:38:16Z</time>
      </trkpt>
      <trkpt lat="44.78895" lon="6.36234">
        <ele>2224.2</ele>
        <time>2024-08-12T06:38:17Z</time>
      </trkpt>
      <trkpt lat="44.78895" lon="6.36234">
        <ele>2224.2</ele>
        <time>2024-08-12T06:38:18Z</time>
      </trkpt>
      <trkpt lat="44.78895" lon="6.36234">
        <ele>2224.2</ele>
        <time>2024-08-12T06:38:19Z</time>
      </trkpt>
      <trkpt lat="44.78895" lon="6.36234">
        <ele>2224.2</ele>
        <time>2024-08-12T06:38:20Z</time>
      </trkpt>
      <trkpt lat="44.78895" lon="6.36234">
        <ele>2224.2</ele>
        <time>2024-08-12T06:38:21Z</time>
      </trkpt>
      <trkpt lat="44.78895" lon="6.36234">
        <ele>2224.2</ele>
        <time>2024-08-12T06:38:22Z</time>
      </trkpt>
      <trkpt lat="44.78895" lon="6.36234">
        <ele>2224.2</ele>
        <time>2024-08-12T06:38:23Z</time>
      </trkpt>
      <trkpt lat="44.78895" lon="6.36234">
        <ele>2224.4</ele>
        <time>2024-08-12T06:38:24Z</time>
      </trkpt>
      <trkpt lat="44.78895" lon="6.36234">
        <ele>2224.4</ele>
        <time>2024-08-12T06:38:25Z</time>
      </trkpt>
      <trkpt lat="44.78895" lon="6.36234">
        <ele>2224.4</ele>
        <time>2024-08-12T06:38:26Z</time>
      </trkpt>
      <trkpt lat="44.78895" lon="6.36234">
        <ele>2224.4</ele>
        <time>2024-08-12T06:38:27Z</time>
      </trkpt>
      <trkpt lat="44.78895" lon="6.36234">
        <ele>2224.4</ele>
        <time>2024-08-12T06:38:28Z</time>
      </trkpt>
      <trkpt lat="44.78895" lon="6.36234">
        <ele>2224.4</ele>
        <time>2024-08-12T06:38:29Z</time>
      </trkpt>
      <trkpt lat="44.78895" lon="6.36234">
        <ele>2224.6</ele>
        <time>2024-08-12T06:38:30Z</time>
      </trkpt>
      <trkpt lat="44.78895" lon="6.36234">
        <ele>2224.6</ele>
        <time>2024-08-12T06:38:31Z</time>
      </trkpt>
      <trkpt lat="44.78895" lon="6.36234">
        <ele>2224.2</ele>
        <time>2024-08-12T06:38:32Z</time>
      </trkpt>
      <trkpt lat="44.78895" lon="6.36234">
        <ele>2224</ele>
        <time>2024-08-12T06:38:33Z</time>
      </trkpt>
      <trkpt lat="44.78893" lon="6.36235">
        <ele>2223.8</ele>
        <time>2024-08-12T06:38:34Z</time>
      </trkpt>
      <trkpt lat="44.78893" lon="6.36235">
        <ele>2223.8</ele>
        <time>2024-08-12T06:38:35Z</time>
      </trkpt>
      <trkpt lat="44.78893" lon="6.36235">
        <ele>2223.8</ele>
        <time>2024-08-12T06:38:36Z</time>
      </trkpt>
      <trkpt lat="44.78893" lon="6.36235">
        <ele>2223.8</ele>
        <time>2024-08-12T06:38:37Z</time>
      </trkpt>
      <trkpt lat="44.78893" lon="6.36235">
        <ele>2223.8</ele>
        <time>2024-08-12T06:38:38Z</time>
      </trkpt>
      <trkpt lat="44.78893" lon="6.36235">
        <ele>2223.8</ele>
        <time>2024-08-12T06:38:39Z</time>
      </trkpt>
      <trkpt lat="44.78893" lon="6.36235">
        <ele>2224</ele>
        <time>2024-08-12T06:38:40Z</time>
      </trkpt>
      <trkpt lat="44.78893" lon="6.36235">
        <ele>2224</ele>
        <time>2024-08-12T06:38:41Z</time>
      </trkpt>
      <trkpt lat="44.78893" lon="6.36235">
        <ele>2224</ele>
        <time>2024-08-12T06:38:42Z</time>
      </trkpt>
      <trkpt lat="44.78893" lon="6.36235">
        <ele>2223.8</ele>
        <time>2024-08-12T06:38:43Z</time>
      </trkpt>
      <trkpt lat="44.78893" lon="6.36235">
        <ele>2223.4</ele>
        <time>2024-08-12T06:38:44Z</time>
      </trkpt>
      <trkpt lat="44.78893" lon="6.36235">
        <ele>2223.4</ele>
        <time>2024-08-12T06:38:45Z</time>
      </trkpt>
      <trkpt lat="44.78893" lon="6.36235">
        <ele>2223.2</ele>
        <time>2024-08-12T06:38:46Z</time>
      </trkpt>
      <trkpt lat="44.78893" lon="6.36235">
        <ele>2223.2</ele>
        <time>2024-08-12T06:38:47Z</time>
      </trkpt>
      <trkpt lat="44.78893" lon="6.36235">
        <ele>2223.2</ele>
        <time>2024-08-12T06:38:48Z</time>
      </trkpt>
      <trkpt lat="44.78893" lon="6.36235">
        <ele>2223.2</ele>
        <time>2024-08-12T06:38:49Z</time>
      </trkpt>
      <trkpt lat="44.78893" lon="6.36235">
        <ele>2223.2</ele>
        <time>2024-08-12T06:38:50Z</time>
      </trkpt>
      <trkpt lat="44.78893" lon="6.36235">
        <ele>2223.2</ele>
        <time>2024-08-12T06:38:51Z</time>
      </trkpt>
      <trkpt lat="44.78893" lon="6.36235">
        <ele>2223.2</ele>
        <time>2024-08-12T06:38:52Z</time>
      </trkpt>
      <trkpt lat="44.78893" lon="6.36235">
        <ele>2223.2</ele>
        <time>2024-08-12T06:38:53Z</time>
      </trkpt>
      <trkpt lat="44.78893" lon="6.36235">
        <ele>2223.2</ele>
        <time>2024-08-12T06:38:54Z</time>
      </trkpt>
      <trkpt lat="44.78893" lon="6.36235">
        <ele>2223.2</ele>
        <time>2024-08-12T06:38:55Z</time>
      </trkpt>
      <trkpt lat="44.78893" lon="6.36235">
        <ele>2223.2</ele>
        <time>2024-08-12T06:38:56Z</time>
      </trkpt>
      <trkpt lat="44.78893" lon="6.36235">
        <ele>2223.2</ele>
        <time>2024-08-12T06:38:57Z</time>
      </trkpt>
      <trkpt lat="44.78893" lon="6.36235">
        <ele>2223.2</ele>
        <time>2024-08-12T06:38:58Z</time>
      </trkpt>
      <trkpt lat="44.78893" lon="6.36235">
        <ele>2223.2</ele>
        <time>2024-08-12T06:38:59Z</time>
      </trkpt>
      <trkpt lat="44.78893" lon="6.36235">
        <ele>2223.2</ele>
        <time>2024-08-12T06:39:00Z</time>
      </trkpt>
      <trkpt lat="44.78893" lon="6.36235">
        <ele>2223.2</ele>
        <time>2024-08-12T06:39:01Z</time>
      </trkpt>
      <trkpt lat="44.78893" lon="6.36235">
        <ele>2223</ele>
        <time>2024-08-12T06:39:02Z</time>
      </trkpt>
      <trkpt lat="44.78893" lon="6.36235">
        <ele>2223</ele>
        <time>2024-08-12T06:39:03Z</time>
      </trkpt>
      <trkpt lat="44.78893" lon="6.36235">
        <ele>2223</ele>
        <time>2024-08-12T06:39:04Z</time>
      </trkpt>
      <trkpt lat="44.78893" lon="6.36235">
        <ele>2223.2</ele>
        <time>2024-08-12T06:39:05Z</time>
      </trkpt>
      <trkpt lat="44.78893" lon="6.36235">
        <ele>2223.2</ele>
        <time>2024-08-12T06:39:06Z</time>
      </trkpt>
      <trkpt lat="44.78893" lon="6.36235">
        <ele>2223.2</ele>
        <time>2024-08-12T06:39:07Z</time>
      </trkpt>
      <trkpt lat="44.78893" lon="6.36235">
        <ele>2223.2</ele>
        <time>2024-08-12T06:39:08Z</time>
      </trkpt>
      <trkpt lat="44.78893" lon="6.36235">
        <ele>2223.2</ele>
        <time>2024-08-12T06:39:09Z</time>
      </trkpt>
      <trkpt lat="44.78893" lon="6.36235">
        <ele>2223.2</ele>
        <time>2024-08-12T06:39:10Z</time>
      </trkpt>
      <trkpt lat="44.78893" lon="6.36235">
        <ele>2223.2</ele>
        <time>2024-08-12T06:39:11Z</time>
      </trkpt>
      <trkpt lat="44.78893" lon="6.36235">
        <ele>2223.4</ele>
        <time>2024-08-12T06:39:12Z</time>
      </trkpt>
      <trkpt lat="44.78893" lon="6.36235">
        <ele>2223.4</ele>
        <time>2024-08-12T06:39:13Z</time>
      </trkpt>
      <trkpt lat="44.78893" lon="6.36235">
        <ele>2223</ele>
        <time>2024-08-12T06:39:14Z</time>
      </trkpt>
      <trkpt lat="44.78893" lon="6.36235">
        <ele>2223</ele>
        <time>2024-08-12T06:39:15Z</time>
      </trkpt>
      <trkpt lat="44.78893" lon="6.36235">
        <ele>2223.2</ele>
        <time>2024-08-12T06:39:16Z</time>
      </trkpt>
      <trkpt lat="44.78893" lon="6.36235">
        <ele>2223.2</ele>
        <time>2024-08-12T06:39:17Z</time>
      </trkpt>
      <trkpt lat="44.78893" lon="6.36235">
        <ele>2223.2</ele>
        <time>2024-08-12T06:39:18Z</time>
      </trkpt>
      <trkpt lat="44.78893" lon="6.36235">
        <ele>2223</ele>
        <time>2024-08-12T06:39:19Z</time>
      </trkpt>
      <trkpt lat="44.78893" lon="6.36235">
        <ele>2223</ele>
        <time>2024-08-12T06:39:20Z</time>
      </trkpt>
      <trkpt lat="44.78893" lon="6.36235">
        <ele>2223.2</ele>
        <time>2024-08-12T06:39:21Z</time>
      </trkpt>
      <trkpt lat="44.78893" lon="6.36235">
        <ele>2223.2</ele>
        <time>2024-08-12T06:39:22Z</time>
      </trkpt>
      <trkpt lat="44.78893" lon="6.36235">
        <ele>2223.2</ele>
        <time>2024-08-12T06:39:23Z</time>
      </trkpt>
      <trkpt lat="44.78893" lon="6.36235">
        <ele>2223.2</ele>
        <time>2024-08-12T06:39:24Z</time>
      </trkpt>
      <trkpt lat="44.78893" lon="6.36235">
        <ele>2223.4</ele>
        <time>2024-08-12T06:39:25Z</time>
      </trkpt>
      <trkpt lat="44.78893" lon="6.36235">
        <ele>2223.4</ele>
        <time>2024-08-12T06:39:26Z</time>
      </trkpt>
      <trkpt lat="44.78893" lon="6.36235">
        <ele>2223.2</ele>
        <time>2024-08-12T06:39:27Z</time>
      </trkpt>
      <trkpt lat="44.78893" lon="6.36235">
        <ele>2223.2</ele>
        <time>2024-08-12T06:39:28Z</time>
      </trkpt>
      <trkpt lat="44.78893" lon="6.36235">
        <ele>2223.2</ele>
        <time>2024-08-12T06:39:29Z</time>
      </trkpt>
      <trkpt lat="44.78893" lon="6.36235">
        <ele>2223.2</ele>
        <time>2024-08-12T06:39:30Z</time>
      </trkpt>
      <trkpt lat="44.78893" lon="6.36235">
        <ele>2223</ele>
        <time>2024-08-12T06:39:31Z</time>
      </trkpt>
      <trkpt lat="44.78893" lon="6.36235">
        <ele>2223</ele>
        <time>2024-08-12T06:39:32Z</time>
      </trkpt>
      <trkpt lat="44.78893" lon="6.36235">
        <ele>2223.2</ele>
        <time>2024-08-12T06:39:33Z</time>
      </trkpt>
      <trkpt lat="44.78893" lon="6.36235">
        <ele>2223.4</ele>
        <time>2024-08-12T06:39:34Z</time>
      </trkpt>
      <trkpt lat="44.78893" lon="6.36235">
        <ele>2223.4</ele>
        <time>2024-08-12T06:39:35Z</time>
      </trkpt>
      <trkpt lat="44.78893" lon="6.36235">
        <ele>2223.2</ele>
        <time>2024-08-12T06:39:36Z</time>
      </trkpt>
      <trkpt lat="44.78893" lon="6.36235">
        <ele>2223.2</ele>
        <time>2024-08-12T06:39:37Z</time>
      </trkpt>
      <trkpt lat="44.78893" lon="6.36235">
        <ele>2223</ele>
        <time>2024-08-12T06:39:38Z</time>
      </trkpt>
      <trkpt lat="44.78893" lon="6.36235">
        <ele>2223</ele>
        <time>2024-08-12T06:39:39Z</time>
      </trkpt>
      <trkpt lat="44.78893" lon="6.36235">
        <ele>2223</ele>
        <time>2024-08-12T06:39:40Z</time>
      </trkpt>
      <trkpt lat="44.78893" lon="6.36235">
        <ele>2223</ele>
        <time>2024-08-12T06:39:41Z</time>
      </trkpt>
      <trkpt lat="44.78893" lon="6.36235">
        <ele>2223</ele>
        <time>2024-08-12T06:39:42Z</time>
      </trkpt>
      <trkpt lat="44.78893" lon="6.36235">
        <ele>2223</ele>
        <time>2024-08-12T06:39:43Z</time>
      </trkpt>
      <trkpt lat="44.78893" lon="6.36235">
        <ele>2223.2</ele>
        <time>2024-08-12T06:39:44Z</time>
      </trkpt>
      <trkpt lat="44.78893" lon="6.36235">
        <ele>2223.6</ele>
        <time>2024-08-12T06:39:45Z</time>
      </trkpt>
      <trkpt lat="44.78893" lon="6.36235">
        <ele>2223.8</ele>
        <time>2024-08-12T06:39:46Z</time>
      </trkpt>
      <trkpt lat="44.78893" lon="6.36235">
        <ele>2223.8</ele>
        <time>2024-08-12T06:39:47Z</time>
      </trkpt>
      <trkpt lat="44.78893" lon="6.36235">
        <ele>2223.8</ele>
        <time>2024-08-12T06:39:48Z</time>
      </trkpt>
      <trkpt lat="44.78893" lon="6.36235">
        <ele>2223.8</ele>
        <time>2024-08-12T06:39:49Z</time>
      </trkpt>
      <trkpt lat="44.78893" lon="6.36235">
        <ele>2223.8</ele>
        <time>2024-08-12T06:39:50Z</time>
      </trkpt>
      <trkpt lat="44.78893" lon="6.36235">
        <ele>2223.8</ele>
        <time>2024-08-12T06:39:51Z</time>
      </trkpt>
      <trkpt lat="44.78893" lon="6.36235">
        <ele>2224</ele>
        <time>2024-08-12T06:39:52Z</time>
      </trkpt>
      <trkpt lat="44.78893" lon="6.36235">
        <ele>2224</ele>
        <time>2024-08-12T06:39:53Z</time>
      </trkpt>
      <trkpt lat="44.78893" lon="6.36235">
        <ele>2224</ele>
        <time>2024-08-12T06:39:54Z</time>
      </trkpt>
      <trkpt lat="44.78893" lon="6.36235">
        <ele>2224</ele>
        <time>2024-08-12T06:39:55Z</time>
      </trkpt>
      <trkpt lat="44.78893" lon="6.36235">
        <ele>2224</ele>
        <time>2024-08-12T06:39:56Z</time>
      </trkpt>
      <trkpt lat="44.78893" lon="6.36235">
        <ele>2224.2</ele>
        <time>2024-08-12T06:39:57Z</time>
      </trkpt>
      <trkpt lat="44.78893" lon="6.36235">
        <ele>2224</ele>
        <time>2024-08-12T06:39:58Z</time>
      </trkpt>
      <trkpt lat="44.78893" lon="6.36235">
        <ele>2224.2</ele>
        <time>2024-08-12T06:39:59Z</time>
      </trkpt>
      <trkpt lat="44.78893" lon="6.36235">
        <ele>2224.2</ele>
        <time>2024-08-12T06:40:00Z</time>
      </trkpt>
      <trkpt lat="44.78893" lon="6.36235">
        <ele>2224.2</ele>
        <time>2024-08-12T06:40:01Z</time>
      </trkpt>
      <trkpt lat="44.78893" lon="6.36235">
        <ele>2223.8</ele>
        <time>2024-08-12T06:40:02Z</time>
      </trkpt>
      <trkpt lat="44.78893" lon="6.36235">
        <ele>2223.8</ele>
        <time>2024-08-12T06:40:03Z</time>
      </trkpt>
      <trkpt lat="44.78893" lon="6.36235">
        <ele>2223.8</ele>
        <time>2024-08-12T06:40:04Z</time>
      </trkpt>
      <trkpt lat="44.78893" lon="6.36235">
        <ele>2224</ele>
        <time>2024-08-12T06:40:05Z</time>
      </trkpt>
      <trkpt lat="44.78893" lon="6.36235">
        <ele>2223.8</ele>
        <time>2024-08-12T06:40:06Z</time>
      </trkpt>
      <trkpt lat="44.78893" lon="6.36235">
        <ele>2223.8</ele>
        <time>2024-08-12T06:40:07Z</time>
      </trkpt>
      <trkpt lat="44.78893" lon="6.36235">
        <ele>2223.6</ele>
        <time>2024-08-12T06:40:08Z</time>
      </trkpt>
      <trkpt lat="44.78893" lon="6.36235">
        <ele>2223.6</ele>
        <time>2024-08-12T06:40:09Z</time>
      </trkpt>
      <trkpt lat="44.78893" lon="6.36235">
        <ele>2223.6</ele>
        <time>2024-08-12T06:40:10Z</time>
      </trkpt>
      <trkpt lat="44.78893" lon="6.36235">
        <ele>2223.6</ele>
        <time>2024-08-12T06:40:11Z</time>
      </trkpt>
      <trkpt lat="44.78893" lon="6.36235">
        <ele>2223.4</ele>
        <time>2024-08-12T06:40:12Z</time>
      </trkpt>
      <trkpt lat="44.78893" lon="6.36235">
        <ele>2223.4</ele>
        <time>2024-08-12T06:40:13Z</time>
      </trkpt>
      <trkpt lat="44.78893" lon="6.36235">
        <ele>2223.4</ele>
        <time>2024-08-12T06:40:14Z</time>
      </trkpt>
      <trkpt lat="44.78893" lon="6.36235">
        <ele>2223.4</ele>
        <time>2024-08-12T06:40:15Z</time>
      </trkpt>
      <trkpt lat="44.78893" lon="6.36235">
        <ele>2223.4</ele>
        <time>2024-08-12T06:40:16Z</time>
      </trkpt>
      <trkpt lat="44.78893" lon="6.36235">
        <ele>2223.4</ele>
        <time>2024-08-12T06:40:17Z</time>
      </trkpt>
      <trkpt lat="44.78893" lon="6.36235">
        <ele>2223.2</ele>
        <time>2024-08-12T06:40:18Z</time>
      </trkpt>
      <trkpt lat="44.78893" lon="6.36235">
        <ele>2223.2</ele>
        <time>2024-08-12T06:40:19Z</time>
      </trkpt>
      <trkpt lat="44.78893" lon="6.36235">
        <ele>2223.4</ele>
        <time>2024-08-12T06:40:20Z</time>
      </trkpt>
      <trkpt lat="44.78893" lon="6.36235">
        <ele>2223.4</ele>
        <time>2024-08-12T06:40:21Z</time>
      </trkpt>
      <trkpt lat="44.78894" lon="6.36233">
        <ele>2223.8</ele>
        <time>2024-08-12T06:40:22Z</time>
      </trkpt>
      <trkpt lat="44.78894" lon="6.36233">
        <ele>2224.2</ele>
        <time>2024-08-12T06:40:23Z</time>
      </trkpt>
      <trkpt lat="44.78894" lon="6.36233">
        <ele>2224.4</ele>
        <time>2024-08-12T06:40:24Z</time>
      </trkpt>
      <trkpt lat="44.78894" lon="6.36233">
        <ele>2224.4</ele>
        <time>2024-08-12T06:40:25Z</time>
      </trkpt>
      <trkpt lat="44.78894" lon="6.36233">
        <ele>2224.2</ele>
        <time>2024-08-12T06:40:26Z</time>
      </trkpt>
      <trkpt lat="44.78894" lon="6.36233">
        <ele>2224</ele>
        <time>2024-08-12T06:40:27Z</time>
      </trkpt>
      <trkpt lat="44.78894" lon="6.36233">
        <ele>2223.8</ele>
        <time>2024-08-12T06:40:28Z</time>
      </trkpt>
      <trkpt lat="44.78894" lon="6.36233">
        <ele>2223.8</ele>
        <time>2024-08-12T06:40:29Z</time>
      </trkpt>
      <trkpt lat="44.78894" lon="6.36233">
        <ele>2224</ele>
        <time>2024-08-12T06:40:30Z</time>
      </trkpt>
      <trkpt lat="44.78894" lon="6.36233">
        <ele>2224</ele>
        <time>2024-08-12T06:40:31Z</time>
      </trkpt>
      <trkpt lat="44.78894" lon="6.36233">
        <ele>2224</ele>
        <time>2024-08-12T06:40:32Z</time>
      </trkpt>
      <trkpt lat="44.78894" lon="6.36233">
        <ele>2224</ele>
        <time>2024-08-12T06:40:33Z</time>
      </trkpt>
      <trkpt lat="44.78894" lon="6.36233">
        <ele>2224</ele>
        <time>2024-08-12T06:40:34Z</time>
      </trkpt>
      <trkpt lat="44.78894" lon="6.36233">
        <ele>2223.8</ele>
        <time>2024-08-12T06:40:35Z</time>
      </trkpt>
      <trkpt lat="44.78894" lon="6.36233">
        <ele>2223.8</ele>
        <time>2024-08-12T06:40:36Z</time>
      </trkpt>
      <trkpt lat="44.78894" lon="6.36233">
        <ele>2224</ele>
        <time>2024-08-12T06:40:37Z</time>
      </trkpt>
      <trkpt lat="44.78894" lon="6.36233">
        <ele>2224</ele>
        <time>2024-08-12T06:40:38Z</time>
      </trkpt>
      <trkpt lat="44.78894" lon="6.36233">
        <ele>2224</ele>
        <time>2024-08-12T06:40:39Z</time>
      </trkpt>
      <trkpt lat="44.78894" lon="6.36233">
        <ele>2223.8</ele>
        <time>2024-08-12T06:40:40Z</time>
      </trkpt>
      <trkpt lat="44.78894" lon="6.36233">
        <ele>2223.8</ele>
        <time>2024-08-12T06:40:41Z</time>
      </trkpt>
      <trkpt lat="44.78894" lon="6.36233">
        <ele>2223.8</ele>
        <time>2024-08-12T06:40:42Z</time>
      </trkpt>
      <trkpt lat="44.78894" lon="6.36233">
        <ele>2223.8</ele>
        <time>2024-08-12T06:40:43Z</time>
      </trkpt>
      <trkpt lat="44.78894" lon="6.36233">
        <ele>2223.8</ele>
        <time>2024-08-12T06:40:44Z</time>
      </trkpt>
      <trkpt lat="44.78894" lon="6.36233">
        <ele>2224</ele>
        <time>2024-08-12T06:40:45Z</time>
      </trkpt>
      <trkpt lat="44.78894" lon="6.36233">
        <ele>2224</ele>
        <time>2024-08-12T06:40:46Z</time>
      </trkpt>
      <trkpt lat="44.78894" lon="6.36233">
        <ele>2224</ele>
        <time>2024-08-12T06:40:47Z</time>
      </trkpt>
      <trkpt lat="44.78894" lon="6.36233">
        <ele>2223.8</ele>
        <time>2024-08-12T06:40:48Z</time>
      </trkpt>
      <trkpt lat="44.78894" lon="6.36233">
        <ele>2223.8</ele>
        <time>2024-08-12T06:40:49Z</time>
      </trkpt>
      <trkpt lat="44.78894" lon="6.36233">
        <ele>2224</ele>
        <time>2024-08-12T06:40:50Z</time>
      </trkpt>
      <trkpt lat="44.78894" lon="6.36233">
        <ele>2224</ele>
        <time>2024-08-12T06:40:51Z</time>
      </trkpt>
      <trkpt lat="44.78894" lon="6.36233">
        <ele>2224</ele>
        <time>2024-08-12T06:40:52Z</time>
      </trkpt>
      <trkpt lat="44.78894" lon="6.36233">
        <ele>2224</ele>
        <time>2024-08-12T06:40:53Z</time>
      </trkpt>
      <trkpt lat="44.78894" lon="6.36233">
        <ele>2224.2</ele>
        <time>2024-08-12T06:40:54Z</time>
      </trkpt>
      <trkpt lat="44.78894" lon="6.36233">
        <ele>2224.4</ele>
        <time>2024-08-12T06:40:55Z</time>
      </trkpt>
      <trkpt lat="44.78894" lon="6.36233">
        <ele>2224.4</ele>
        <time>2024-08-12T06:40:56Z</time>
      </trkpt>
      <trkpt lat="44.78894" lon="6.36233">
        <ele>2224.4</ele>
        <time>2024-08-12T06:40:57Z</time>
      </trkpt>
      <trkpt lat="44.78894" lon="6.36233">
        <ele>2224.4</ele>
        <time>2024-08-12T06:40:58Z</time>
      </trkpt>
      <trkpt lat="44.78894" lon="6.36233">
        <ele>2224.4</ele>
        <time>2024-08-12T06:40:59Z</time>
      </trkpt>
      <trkpt lat="44.78894" lon="6.36233">
        <ele>2224.2</ele>
        <time>2024-08-12T06:41:00Z</time>
      </trkpt>
      <trkpt lat="44.78894" lon="6.36233">
        <ele>2224.2</ele>
        <time>2024-08-12T06:41:01Z</time>
      </trkpt>
      <trkpt lat="44.78894" lon="6.36233">
        <ele>2224.2</ele>
        <time>2024-08-12T06:41:02Z</time>
      </trkpt>
      <trkpt lat="44.78894" lon="6.36233">
        <ele>2224.2</ele>
        <time>2024-08-12T06:41:03Z</time>
      </trkpt>
      <trkpt lat="44.78894" lon="6.36233">
        <ele>2224.2</ele>
        <time>2024-08-12T06:41:04Z</time>
      </trkpt>
      <trkpt lat="44.78894" lon="6.36233">
        <ele>2224</ele>
        <time>2024-08-12T06:41:05Z</time>
      </trkpt>
      <trkpt lat="44.78894" lon="6.36233">
        <ele>2224.2</ele>
        <time>2024-08-12T06:41:06Z</time>
      </trkpt>
      <trkpt lat="44.78894" lon="6.36233">
        <ele>2224.2</ele>
        <time>2024-08-12T06:41:07Z</time>
      </trkpt>
      <trkpt lat="44.78894" lon="6.36233">
        <ele>2224.2</ele>
        <time>2024-08-12T06:41:08Z</time>
      </trkpt>
      <trkpt lat="44.78894" lon="6.36233">
        <ele>2224</ele>
        <time>2024-08-12T06:41:09Z</time>
      </trkpt>
      <trkpt lat="44.78894" lon="6.36233">
        <ele>2224</ele>
        <time>2024-08-12T06:41:10Z</time>
      </trkpt>
      <trkpt lat="44.78894" lon="6.36233">
        <ele>2224.2</ele>
        <time>2024-08-12T06:41:11Z</time>
      </trkpt>
      <trkpt lat="44.78894" lon="6.36233">
        <ele>2224.4</ele>
        <time>2024-08-12T06:41:12Z</time>
      </trkpt>
      <trkpt lat="44.78894" lon="6.36233">
        <ele>2224.4</ele>
        <time>2024-08-12T06:41:13Z</time>
      </trkpt>
      <trkpt lat="44.78894" lon="6.36233">
        <ele>2224.4</ele>
        <time>2024-08-12T06:41:14Z</time>
      </trkpt>
      <trkpt lat="44.78894" lon="6.36233">
        <ele>2224.4</ele>
        <time>2024-08-12T06:41:15Z</time>
      </trkpt>
      <trkpt lat="44.78894" lon="6.36233">
        <ele>2224.4</ele>
        <time>2024-08-12T06:41:16Z</time>
      </trkpt>
      <trkpt lat="44.78894" lon="6.36233">
        <ele>2224.2</ele>
        <time>2024-08-12T06:41:17Z</time>
      </trkpt>
      <trkpt lat="44.78894" lon="6.36233">
        <ele>2224.2</ele>
        <time>2024-08-12T06:41:18Z</time>
      </trkpt>
      <trkpt lat="44.78894" lon="6.36233">
        <ele>2224.2</ele>
        <time>2024-08-12T06:41:19Z</time>
      </trkpt>
      <trkpt lat="44.78894" lon="6.36233">
        <ele>2224.2</ele>
        <time>2024-08-12T06:41:20Z</time>
      </trkpt>
      <trkpt lat="44.78894" lon="6.36233">
        <ele>2224.2</ele>
        <time>2024-08-12T06:41:21Z</time>
      </trkpt>
      <trkpt lat="44.78894" lon="6.36233">
        <ele>2224.2</ele>
        <time>2024-08-12T06:41:22Z</time>
      </trkpt>
      <trkpt lat="44.78894" lon="6.36233">
        <ele>2224.2</ele>
        <time>2024-08-12T06:41:23Z</time>
      </trkpt>
      <trkpt lat="44.78894" lon="6.36233">
        <ele>2224.2</ele>
        <time>2024-08-12T06:41:24Z</time>
      </trkpt>
      <trkpt lat="44.78894" lon="6.36233">
        <ele>2224.2</ele>
        <time>2024-08-12T06:41:25Z</time>
      </trkpt>
      <trkpt lat="44.78894" lon="6.36233">
        <ele>2224.2</ele>
        <time>2024-08-12T06:41:26Z</time>
      </trkpt>
      <trkpt lat="44.78894" lon="6.36233">
        <ele>2224.2</ele>
        <time>2024-08-12T06:41:27Z</time>
      </trkpt>
      <trkpt lat="44.78894" lon="6.36233">
        <ele>2224.2</ele>
        <time>2024-08-12T06:41:28Z</time>
      </trkpt>
      <trkpt lat="44.78894" lon="6.36233">
        <ele>2224.2</ele>
        <time>2024-08-12T06:41:29Z</time>
      </trkpt>
      <trkpt lat="44.78894" lon="6.36233">
        <ele>2224.2</ele>
        <time>2024-08-12T06:41:30Z</time>
      </trkpt>
      <trkpt lat="44.78894" lon="6.36233">
        <ele>2224.2</ele>
        <time>2024-08-12T06:41:31Z</time>
      </trkpt>
      <trkpt lat="44.78894" lon="6.36233">
        <ele>2224.2</ele>
        <time>2024-08-12T06:41:32Z</time>
      </trkpt>
      <trkpt lat="44.78894" lon="6.36233">
        <ele>2224.2</ele>
        <time>2024-08-12T06:41:33Z</time>
      </trkpt>
      <trkpt lat="44.78894" lon="6.36233">
        <ele>2224.2</ele>
        <time>2024-08-12T06:41:34Z</time>
      </trkpt>
      <trkpt lat="44.78894" lon="6.36233">
        <ele>2224.2</ele>
        <time>2024-08-12T06:41:35Z</time>
      </trkpt>
      <trkpt lat="44.78894" lon="6.36233">
        <ele>2224.2</ele>
        <time>2024-08-12T06:41:36Z</time>
      </trkpt>
      <trkpt lat="44.78894" lon="6.36233">
        <ele>2224.2</ele>
        <time>2024-08-12T06:41:37Z</time>
      </trkpt>
      <trkpt lat="44.78894" lon="6.36233">
        <ele>2224.2</ele>
        <time>2024-08-12T06:41:38Z</time>
      </trkpt>
      <trkpt lat="44.78894" lon="6.36233">
        <ele>2224.2</ele>
        <time>2024-08-12T06:41:39Z</time>
      </trkpt>
      <trkpt lat="44.78894" lon="6.36233">
        <ele>2224</ele>
        <time>2024-08-12T06:41:40Z</time>
      </trkpt>
      <trkpt lat="44.78894" lon="6.36233">
        <ele>2224</ele>
        <time>2024-08-12T06:41:41Z</time>
      </trkpt>
      <trkpt lat="44.78894" lon="6.36233">
        <ele>2224.4</ele>
        <time>2024-08-12T06:41:42Z</time>
      </trkpt>
      <trkpt lat="44.78894" lon="6.36233">
        <ele>2224.4</ele>
        <time>2024-08-12T06:41:43Z</time>
      </trkpt>
      <trkpt lat="44.78894" lon="6.36233">
        <ele>2224.4</ele>
        <time>2024-08-12T06:41:44Z</time>
      </trkpt>
      <trkpt lat="44.78894" lon="6.36233">
        <ele>2224.4</ele>
        <time>2024-08-12T06:41:45Z</time>
      </trkpt>
      <trkpt lat="44.78894" lon="6.36233">
        <ele>2224.4</ele>
        <time>2024-08-12T06:41:46Z</time>
      </trkpt>
      <trkpt lat="44.78894" lon="6.36233">
        <ele>2224.4</ele>
        <time>2024-08-12T06:41:47Z</time>
      </trkpt>
      <trkpt lat="44.78894" lon="6.36233">
        <ele>2224.4</ele>
        <time>2024-08-12T06:41:48Z</time>
      </trkpt>
      <trkpt lat="44.78894" lon="6.36233">
        <ele>2224.4</ele>
        <time>2024-08-12T06:41:49Z</time>
      </trkpt>
      <trkpt lat="44.78894" lon="6.36233">
        <ele>2224.4</ele>
        <time>2024-08-12T06:41:50Z</time>
      </trkpt>
      <trkpt lat="44.78894" lon="6.36233">
        <ele>2224.6</ele>
        <time>2024-08-12T06:41:51Z</time>
      </trkpt>
      <trkpt lat="44.78894" lon="6.36233">
        <ele>2224.6</ele>
        <time>2024-08-12T06:41:52Z</time>
      </trkpt>
      <trkpt lat="44.78894" lon="6.36233">
        <ele>2224.4</ele>
        <time>2024-08-12T06:41:53Z</time>
      </trkpt>
      <trkpt lat="44.78894" lon="6.36233">
        <ele>2224.2</ele>
        <time>2024-08-12T06:41:54Z</time>
      </trkpt>
      <trkpt lat="44.78894" lon="6.36233">
        <ele>2224</ele>
        <time>2024-08-12T06:41:55Z</time>
      </trkpt>
      <trkpt lat="44.78894" lon="6.36233">
        <ele>2223.6</ele>
        <time>2024-08-12T06:41:56Z</time>
      </trkpt>
      <trkpt lat="44.78894" lon="6.36233">
        <ele>2223.8</ele>
        <time>2024-08-12T06:41:57Z</time>
      </trkpt>
      <trkpt lat="44.78894" lon="6.36233">
        <ele>2223.8</ele>
        <time>2024-08-12T06:41:58Z</time>
      </trkpt>
      <trkpt lat="44.78894" lon="6.36233">
        <ele>2223.8</ele>
        <time>2024-08-12T06:41:59Z</time>
      </trkpt>
      <trkpt lat="44.78894" lon="6.36233">
        <ele>2223.8</ele>
        <time>2024-08-12T06:42:00Z</time>
      </trkpt>
      <trkpt lat="44.78894" lon="6.36233">
        <ele>2223.8</ele>
        <time>2024-08-12T06:42:01Z</time>
      </trkpt>
      <trkpt lat="44.78894" lon="6.36233">
        <ele>2224</ele>
        <time>2024-08-12T06:42:02Z</time>
      </trkpt>
      <trkpt lat="44.78894" lon="6.36233">
        <ele>2224</ele>
        <time>2024-08-12T06:42:03Z</time>
      </trkpt>
      <trkpt lat="44.78894" lon="6.36233">
        <ele>2224</ele>
        <time>2024-08-12T06:42:04Z</time>
      </trkpt>
      <trkpt lat="44.78894" lon="6.36233">
        <ele>2224</ele>
        <time>2024-08-12T06:42:05Z</time>
      </trkpt>
      <trkpt lat="44.78894" lon="6.36233">
        <ele>2224.4</ele>
        <time>2024-08-12T06:42:06Z</time>
      </trkpt>
      <trkpt lat="44.78894" lon="6.36233">
        <ele>2224.6</ele>
        <time>2024-08-12T06:42:07Z</time>
      </trkpt>
      <trkpt lat="44.78894" lon="6.36233">
        <ele>2224.8</ele>
        <time>2024-08-12T06:42:08Z</time>
      </trkpt>
      <trkpt lat="44.78894" lon="6.36233">
        <ele>2224.8</ele>
        <time>2024-08-12T06:42:09Z</time>
      </trkpt>
      <trkpt lat="44.78894" lon="6.36233">
        <ele>2224.6</ele>
        <time>2024-08-12T06:42:10Z</time>
      </trkpt>
      <trkpt lat="44.78894" lon="6.36233">
        <ele>2224.6</ele>
        <time>2024-08-12T06:42:11Z</time>
      </trkpt>
      <trkpt lat="44.78894" lon="6.36233">
        <ele>2224.6</ele>
        <time>2024-08-12T06:42:12Z</time>
      </trkpt>
      <trkpt lat="44.78894" lon="6.36233">
        <ele>2224.6</ele>
        <time>2024-08-12T06:42:13Z</time>
      </trkpt>
      <trkpt lat="44.78894" lon="6.36233">
        <ele>2224.6</ele>
        <time>2024-08-12T06:42:14Z</time>
      </trkpt>
      <trkpt lat="44.78894" lon="6.36233">
        <ele>2224.6</ele>
        <time>2024-08-12T06:42:15Z</time>
      </trkpt>
      <trkpt lat="44.78894" lon="6.36233">
        <ele>2224.6</ele>
        <time>2024-08-12T06:42:16Z</time>
      </trkpt>
      <trkpt lat="44.78894" lon="6.36233">
        <ele>2224.6</ele>
        <time>2024-08-12T06:42:17Z</time>
      </trkpt>
      <trkpt lat="44.78894" lon="6.36233">
        <ele>2224.6</ele>
        <time>2024-08-12T06:42:18Z</time>
      </trkpt>
      <trkpt lat="44.78894" lon="6.36233">
        <ele>2224.4</ele>
        <time>2024-08-12T06:42:19Z</time>
      </trkpt>
      <trkpt lat="44.78894" lon="6.36233">
        <ele>2224.4</ele>
        <time>2024-08-12T06:42:20Z</time>
      </trkpt>
      <trkpt lat="44.78894" lon="6.36233">
        <ele>2224.4</ele>
        <time>2024-08-12T06:42:21Z</time>
      </trkpt>
      <trkpt lat="44.78894" lon="6.36233">
        <ele>2224.4</ele>
        <time>2024-08-12T06:42:22Z</time>
      </trkpt>
      <trkpt lat="44.78894" lon="6.36233">
        <ele>2224.4</ele>
        <time>2024-08-12T06:42:23Z</time>
      </trkpt>
      <trkpt lat="44.78894" lon="6.36233">
        <ele>2224.4</ele>
        <time>2024-08-12T06:42:24Z</time>
      </trkpt>
      <trkpt lat="44.78894" lon="6.36233">
        <ele>2224.4</ele>
        <time>2024-08-12T06:42:25Z</time>
      </trkpt>
      <trkpt lat="44.78894" lon="6.36233">
        <ele>2224</ele>
        <time>2024-08-12T06:42:26Z</time>
      </trkpt>
      <trkpt lat="44.78894" lon="6.36233">
        <ele>2223.8</ele>
        <time>2024-08-12T06:42:27Z</time>
      </trkpt>
      <trkpt lat="44.78894" lon="6.36233">
        <ele>2223.6</ele>
        <time>2024-08-12T06:42:28Z</time>
      </trkpt>
      <trkpt lat="44.78894" lon="6.36233">
        <ele>2223.6</ele>
        <time>2024-08-12T06:42:29Z</time>
      </trkpt>
      <trkpt lat="44.78894" lon="6.36233">
        <ele>2223.8</ele>
        <time>2024-08-12T06:42:30Z</time>
      </trkpt>
      <trkpt lat="44.78894" lon="6.36233">
        <ele>2223.8</ele>
        <time>2024-08-12T06:42:31Z</time>
      </trkpt>
      <trkpt lat="44.78894" lon="6.36233">
        <ele>2223.8</ele>
        <time>2024-08-12T06:42:32Z</time>
      </trkpt>
      <trkpt lat="44.78894" lon="6.36233">
        <ele>2223.8</ele>
        <time>2024-08-12T06:42:33Z</time>
      </trkpt>
      <trkpt lat="44.78894" lon="6.36233">
        <ele>2223.6</ele>
        <time>2024-08-12T06:42:34Z</time>
      </trkpt>
      <trkpt lat="44.78894" lon="6.36233">
        <ele>2223.6</ele>
        <time>2024-08-12T06:42:35Z</time>
      </trkpt>
      <trkpt lat="44.78894" lon="6.36233">
        <ele>2223.6</ele>
        <time>2024-08-12T06:42:36Z</time>
      </trkpt>
      <trkpt lat="44.78894" lon="6.36233">
        <ele>2223.8</ele>
        <time>2024-08-12T06:42:37Z</time>
      </trkpt>
      <trkpt lat="44.78894" lon="6.36233">
        <ele>2223.8</ele>
        <time>2024-08-12T06:42:38Z</time>
      </trkpt>
      <trkpt lat="44.78894" lon="6.36233">
        <ele>2223.8</ele>
        <time>2024-08-12T06:42:39Z</time>
      </trkpt>
      <trkpt lat="44.78894" lon="6.36233">
        <ele>2223.8</ele>
        <time>2024-08-12T06:42:40Z</time>
      </trkpt>
      <trkpt lat="44.78894" lon="6.36233">
        <ele>2224</ele>
        <time>2024-08-12T06:42:41Z</time>
      </trkpt>
      <trkpt lat="44.78894" lon="6.36233">
        <ele>2224.2</ele>
        <time>2024-08-12T06:42:42Z</time>
      </trkpt>
      <trkpt lat="44.78894" lon="6.36233">
        <ele>2224.4</ele>
        <time>2024-08-12T06:42:43Z</time>
      </trkpt>
      <trkpt lat="44.78894" lon="6.36233">
        <ele>2224.6</ele>
        <time>2024-08-12T06:42:44Z</time>
      </trkpt>
      <trkpt lat="44.78894" lon="6.36233">
        <ele>2224.6</ele>
        <time>2024-08-12T06:42:45Z</time>
      </trkpt>
      <trkpt lat="44.78894" lon="6.36233">
        <ele>2224.6</ele>
        <time>2024-08-12T06:42:46Z</time>
      </trkpt>
      <trkpt lat="44.78894" lon="6.36233">
        <ele>2224.6</ele>
        <time>2024-08-12T06:42:47Z</time>
      </trkpt>
      <trkpt lat="44.78894" lon="6.36233">
        <ele>2224.4</ele>
        <time>2024-08-12T06:42:48Z</time>
      </trkpt>
      <trkpt lat="44.78894" lon="6.36233">
        <ele>2224.4</ele>
        <time>2024-08-12T06:42:49Z</time>
      </trkpt>
      <trkpt lat="44.78894" lon="6.36233">
        <ele>2224.4</ele>
        <time>2024-08-12T06:42:50Z</time>
      </trkpt>
      <trkpt lat="44.78894" lon="6.36233">
        <ele>2224.4</ele>
        <time>2024-08-12T06:42:51Z</time>
      </trkpt>
      <trkpt lat="44.78894" lon="6.36233">
        <ele>2224.4</ele>
        <time>2024-08-12T06:42:52Z</time>
      </trkpt>
      <trkpt lat="44.78894" lon="6.36233">
        <ele>2224.4</ele>
        <time>2024-08-12T06:42:53Z</time>
      </trkpt>
      <trkpt lat="44.78894" lon="6.36233">
        <ele>2224.4</ele>
        <time>2024-08-12T06:42:54Z</time>
      </trkpt>
      <trkpt lat="44.78894" lon="6.36233">
        <ele>2224.4</ele>
        <time>2024-08-12T06:42:55Z</time>
      </trkpt>
      <trkpt lat="44.78894" lon="6.36233">
        <ele>2224.2</ele>
        <time>2024-08-12T06:42:56Z</time>
      </trkpt>
      <trkpt lat="44.78894" lon="6.36233">
        <ele>2224.2</ele>
        <time>2024-08-12T06:42:57Z</time>
      </trkpt>
      <trkpt lat="44.78894" lon="6.36233">
        <ele>2224.2</ele>
        <time>2024-08-12T06:42:58Z</time>
      </trkpt>
      <trkpt lat="44.78894" lon="6.36233">
        <ele>2224.4</ele>
        <time>2024-08-12T06:42:59Z</time>
      </trkpt>
      <trkpt lat="44.78894" lon="6.36233">
        <ele>2224.4</ele>
        <time>2024-08-12T06:43:00Z</time>
      </trkpt>
      <trkpt lat="44.78894" lon="6.36233">
        <ele>2224.4</ele>
        <time>2024-08-12T06:43:01Z</time>
      </trkpt>
      <trkpt lat="44.78894" lon="6.36233">
        <ele>2224.4</ele>
        <time>2024-08-12T06:43:02Z</time>
      </trkpt>
      <trkpt lat="44.78894" lon="6.36233">
        <ele>2224.4</ele>
        <time>2024-08-12T06:43:03Z</time>
      </trkpt>
      <trkpt lat="44.78894" lon="6.36233">
        <ele>2224.4</ele>
        <time>2024-08-12T06:43:04Z</time>
      </trkpt>
      <trkpt lat="44.78894" lon="6.36233">
        <ele>2224.4</ele>
        <time>2024-08-12T06:43:05Z</time>
      </trkpt>
      <trkpt lat="44.78895" lon="6.3623">
        <ele>2224.8</ele>
        <time>2024-08-12T06:43:06Z</time>
      </trkpt>
      <trkpt lat="44.78895" lon="6.3623">
        <ele>2224.8</ele>
        <time>2024-08-12T06:43:07Z</time>
      </trkpt>
      <trkpt lat="44.78896" lon="6.36228">
        <ele>2225</ele>
        <time>2024-08-12T06:43:08Z</time>
      </trkpt>
      <trkpt lat="44.78896" lon="6.36228">
        <ele>2225</ele>
        <time>2024-08-12T06:43:09Z</time>
      </trkpt>
      <trkpt lat="44.78896" lon="6.36228">
        <ele>2225.2</ele>
        <time>2024-08-12T06:43:10Z</time>
      </trkpt>
      <trkpt lat="44.78899" lon="6.36228">
        <ele>2225.8</ele>
        <time>2024-08-12T06:43:11Z</time>
      </trkpt>
      <trkpt lat="44.78899" lon="6.36228">
        <ele>2226</ele>
        <time>2024-08-12T06:43:12Z</time>
      </trkpt>
      <trkpt lat="44.78899" lon="6.36228">
        <ele>2226</ele>
        <time>2024-08-12T06:43:13Z</time>
      </trkpt>
      <trkpt lat="44.78901" lon="6.36227">
        <ele>2226</ele>
        <time>2024-08-12T06:43:14Z</time>
      </trkpt>
      <trkpt lat="44.78901" lon="6.36227">
        <ele>2226.2</ele>
        <time>2024-08-12T06:43:15Z</time>
      </trkpt>
      <trkpt lat="44.78901" lon="6.36227">
        <ele>2226.2</ele>
        <time>2024-08-12T06:43:16Z</time>
      </trkpt>
      <trkpt lat="44.78904" lon="6.36225">
        <ele>2226.4</ele>
        <time>2024-08-12T06:43:17Z</time>
      </trkpt>
      <trkpt lat="44.78904" lon="6.36225">
        <ele>2226.4</ele>
        <time>2024-08-12T06:43:18Z</time>
      </trkpt>
      <trkpt lat="44.78904" lon="6.36225">
        <ele>2226.6</ele>
        <time>2024-08-12T06:43:19Z</time>
      </trkpt>
      <trkpt lat="44.78906" lon="6.36223">
        <ele>2226.6</ele>
        <time>2024-08-12T06:43:20Z</time>
      </trkpt>
      <trkpt lat="44.78906" lon="6.36223">
        <ele>2226.8</ele>
        <time>2024-08-12T06:43:21Z</time>
      </trkpt>
      <trkpt lat="44.78906" lon="6.36223">
        <ele>2227</ele>
        <time>2024-08-12T06:43:22Z</time>
      </trkpt>
      <trkpt lat="44.78908" lon="6.36222">
        <ele>2227.2</ele>
        <time>2024-08-12T06:43:23Z</time>
      </trkpt>
      <trkpt lat="44.78908" lon="6.36222">
        <ele>2227.2</ele>
        <time>2024-08-12T06:43:24Z</time>
      </trkpt>
      <trkpt lat="44.78908" lon="6.36222">
        <ele>2227.4</ele>
        <time>2024-08-12T06:43:25Z</time>
      </trkpt>
      <trkpt lat="44.78909" lon="6.3622">
        <ele>2227.6</ele>
        <time>2024-08-12T06:43:26Z</time>
      </trkpt>
      <trkpt lat="44.78909" lon="6.3622">
        <ele>2227.8</ele>
        <time>2024-08-12T06:43:27Z</time>
      </trkpt>
      <trkpt lat="44.78909" lon="6.3622">
        <ele>2227.8</ele>
        <time>2024-08-12T06:43:28Z</time>
      </trkpt>
      <trkpt lat="44.7891" lon="6.36216">
        <ele>2228</ele>
        <time>2024-08-12T06:43:29Z</time>
      </trkpt>
      <trkpt lat="44.7891" lon="6.36216">
        <ele>2228.4</ele>
        <time>2024-08-12T06:43:30Z</time>
      </trkpt>
      <trkpt lat="44.7891" lon="6.36216">
        <ele>2228.4</ele>
        <time>2024-08-12T06:43:31Z</time>
      </trkpt>
      <trkpt lat="44.7891" lon="6.36216">
        <ele>2228.4</ele>
        <time>2024-08-12T06:43:32Z</time>
      </trkpt>
      <trkpt lat="44.7891" lon="6.36216">
        <ele>2228.6</ele>
        <time>2024-08-12T06:43:33Z</time>
      </trkpt>
      <trkpt lat="44.78908" lon="6.36215">
        <ele>2229</ele>
        <time>2024-08-12T06:43:34Z</time>
      </trkpt>
      <trkpt lat="44.78908" lon="6.36215">
        <ele>2229</ele>
        <time>2024-08-12T06:43:35Z</time>
      </trkpt>
      <trkpt lat="44.78908" lon="6.36215">
        <ele>2229</ele>
        <time>2024-08-12T06:43:36Z</time>
      </trkpt>
      <trkpt lat="44.78906" lon="6.36216">
        <ele>2229.4</ele>
        <time>2024-08-12T06:43:37Z</time>
      </trkpt>
      <trkpt lat="44.78906" lon="6.36216">
        <ele>2229.6</ele>
        <time>2024-08-12T06:43:38Z</time>
      </trkpt>
      <trkpt lat="44.78906" lon="6.36216">
        <ele>2229.6</ele>
        <time>2024-08-12T06:43:39Z</time>
      </trkpt>
      <trkpt lat="44.78906" lon="6.36216">
        <ele>2229.8</ele>
        <time>2024-08-12T06:43:40Z</time>
      </trkpt>
      <trkpt lat="44.78906" lon="6.36216">
        <ele>2230</ele>
        <time>2024-08-12T06:43:41Z</time>
      </trkpt>
      <trkpt lat="44.78903" lon="6.36215">
        <ele>2230.2</ele>
        <time>2024-08-12T06:43:42Z</time>
      </trkpt>
      <trkpt lat="44.78903" lon="6.36215">
        <ele>2230.2</ele>
        <time>2024-08-12T06:43:43Z</time>
      </trkpt>
      <trkpt lat="44.78903" lon="6.36215">
        <ele>2230.2</ele>
        <time>2024-08-12T06:43:44Z</time>
      </trkpt>
      <trkpt lat="44.78903" lon="6.36215">
        <ele>2230.2</ele>
        <time>2024-08-12T06:43:45Z</time>
      </trkpt>
      <trkpt lat="44.78901" lon="6.36214">
        <ele>2230.2</ele>
        <time>2024-08-12T06:43:46Z</time>
      </trkpt>
      <trkpt lat="44.78901" lon="6.36214">
        <ele>2230.4</ele>
        <time>2024-08-12T06:43:47Z</time>
      </trkpt>
      <trkpt lat="44.78901" lon="6.36214">
        <ele>2230.8</ele>
        <time>2024-08-12T06:43:48Z</time>
      </trkpt>
      <trkpt lat="44.78901" lon="6.36214">
        <ele>2231</ele>
        <time>2024-08-12T06:43:49Z</time>
      </trkpt>
      <trkpt lat="44.78901" lon="6.36214">
        <ele>2231.4</ele>
        <time>2024-08-12T06:43:50Z</time>
      </trkpt>
      <trkpt lat="44.78901" lon="6.36214">
        <ele>2231.6</ele>
        <time>2024-08-12T06:43:51Z</time>
      </trkpt>
      <trkpt lat="44.78901" lon="6.36214">
        <ele>2231.6</ele>
        <time>2024-08-12T06:43:52Z</time>
      </trkpt>
      <trkpt lat="44.78901" lon="6.36214">
        <ele>2231.4</ele>
        <time>2024-08-12T06:43:53Z</time>
      </trkpt>
      <trkpt lat="44.78901" lon="6.36214">
        <ele>2231.4</ele>
        <time>2024-08-12T06:43:54Z</time>
      </trkpt>
      <trkpt lat="44.78901" lon="6.36214">
        <ele>2231.2</ele>
        <time>2024-08-12T06:43:55Z</time>
      </trkpt>
      <trkpt lat="44.78901" lon="6.36214">
        <ele>2231.2</ele>
        <time>2024-08-12T06:43:56Z</time>
      </trkpt>
      <trkpt lat="44.78901" lon="6.36214">
        <ele>2231.2</ele>
        <time>2024-08-12T06:43:57Z</time>
      </trkpt>
      <trkpt lat="44.78901" lon="6.36214">
        <ele>2231.4</ele>
        <time>2024-08-12T06:43:58Z</time>
      </trkpt>
      <trkpt lat="44.78901" lon="6.36214">
        <ele>2231.6</ele>
        <time>2024-08-12T06:43:59Z</time>
      </trkpt>
      <trkpt lat="44.78898" lon="6.36213">
        <ele>2231.6</ele>
        <time>2024-08-12T06:44:00Z</time>
      </trkpt>
      <trkpt lat="44.78898" lon="6.36213">
        <ele>2231.6</ele>
        <time>2024-08-12T06:44:01Z</time>
      </trkpt>
      <trkpt lat="44.78896" lon="6.36211">
        <ele>2231.6</ele>
        <time>2024-08-12T06:44:02Z</time>
      </trkpt>
      <trkpt lat="44.78896" lon="6.36211">
        <ele>2231.6</ele>
        <time>2024-08-12T06:44:03Z</time>
      </trkpt>
      <trkpt lat="44.78895" lon="6.36208">
        <ele>2231.8</ele>
        <time>2024-08-12T06:44:04Z</time>
      </trkpt>
      <trkpt lat="44.78895" lon="6.36208">
        <ele>2232</ele>
        <time>2024-08-12T06:44:05Z</time>
      </trkpt>
      <trkpt lat="44.78895" lon="6.36208">
        <ele>2232</ele>
        <time>2024-08-12T06:44:06Z</time>
      </trkpt>
      <trkpt lat="44.78894" lon="6.36205">
        <ele>2232</ele>
        <time>2024-08-12T06:44:07Z</time>
      </trkpt>
      <trkpt lat="44.78894" lon="6.36205">
        <ele>2232.2</ele>
        <time>2024-08-12T06:44:08Z</time>
      </trkpt>
      <trkpt lat="44.78894" lon="6.36205">
        <ele>2232.4</ele>
        <time>2024-08-12T06:44:09Z</time>
      </trkpt>
      <trkpt lat="44.78892" lon="6.36204">
        <ele>2232.6</ele>
        <time>2024-08-12T06:44:10Z</time>
      </trkpt>
      <trkpt lat="44.78892" lon="6.36204">
        <ele>2232.6</ele>
        <time>2024-08-12T06:44:11Z</time>
      </trkpt>
      <trkpt lat="44.78892" lon="6.36204">
        <ele>2232.8</ele>
        <time>2024-08-12T06:44:12Z</time>
      </trkpt>
      <trkpt lat="44.7889" lon="6.36204">
        <ele>2232.8</ele>
        <time>2024-08-12T06:44:13Z</time>
      </trkpt>
      <trkpt lat="44.7889" lon="6.36204">
        <ele>2233.2</ele>
        <time>2024-08-12T06:44:14Z</time>
      </trkpt>
      <trkpt lat="44.7889" lon="6.36204">
        <ele>2233.6</ele>
        <time>2024-08-12T06:44:15Z</time>
      </trkpt>
      <trkpt lat="44.78887" lon="6.36203">
        <ele>2233.6</ele>
        <time>2024-08-12T06:44:16Z</time>
      </trkpt>
      <trkpt lat="44.78887" lon="6.36203">
        <ele>2233.8</ele>
        <time>2024-08-12T06:44:17Z</time>
      </trkpt>
      <trkpt lat="44.78887" lon="6.36203">
        <ele>2234</ele>
        <time>2024-08-12T06:44:18Z</time>
      </trkpt>
      <trkpt lat="44.78885" lon="6.36203">
        <ele>2234.2</ele>
        <time>2024-08-12T06:44:19Z</time>
      </trkpt>
      <trkpt lat="44.78885" lon="6.36203">
        <ele>2234.6</ele>
        <time>2024-08-12T06:44:20Z</time>
      </trkpt>
      <trkpt lat="44.78885" lon="6.36203">
        <ele>2234.8</ele>
        <time>2024-08-12T06:44:21Z</time>
      </trkpt>
      <trkpt lat="44.78883" lon="6.36203">
        <ele>2234.8</ele>
        <time>2024-08-12T06:44:22Z</time>
      </trkpt>
      <trkpt lat="44.78883" lon="6.36203">
        <ele>2235</ele>
        <time>2024-08-12T06:44:23Z</time>
      </trkpt>
      <trkpt lat="44.78881" lon="6.36204">
        <ele>2235</ele>
        <time>2024-08-12T06:44:24Z</time>
      </trkpt>
      <trkpt lat="44.78881" lon="6.36204">
        <ele>2235.2</ele>
        <time>2024-08-12T06:44:25Z</time>
      </trkpt>
      <trkpt lat="44.78881" lon="6.36204">
        <ele>2235.2</ele>
        <time>2024-08-12T06:44:26Z</time>
      </trkpt>
      <trkpt lat="44.78878" lon="6.36204">
        <ele>2235.4</ele>
        <time>2024-08-12T06:44:27Z</time>
      </trkpt>
      <trkpt lat="44.78878" lon="6.36204">
        <ele>2235.4</ele>
        <time>2024-08-12T06:44:28Z</time>
      </trkpt>
      <trkpt lat="44.78878" lon="6.36204">
        <ele>2235.6</ele>
        <time>2024-08-12T06:44:29Z</time>
      </trkpt>
      <trkpt lat="44.78877" lon="6.36205">
        <ele>2236</ele>
        <time>2024-08-12T06:44:30Z</time>
      </trkpt>
      <trkpt lat="44.78877" lon="6.36205">
        <ele>2236.4</ele>
        <time>2024-08-12T06:44:31Z</time>
      </trkpt>
      <trkpt lat="44.78877" lon="6.36205">
        <ele>2236.4</ele>
        <time>2024-08-12T06:44:32Z</time>
      </trkpt>
      <trkpt lat="44.78875" lon="6.36204">
        <ele>2236.4</ele>
        <time>2024-08-12T06:44:33Z</time>
      </trkpt>
      <trkpt lat="44.78875" lon="6.36204">
        <ele>2236.4</ele>
        <time>2024-08-12T06:44:34Z</time>
      </trkpt>
      <trkpt lat="44.78875" lon="6.36204">
        <ele>2236.8</ele>
        <time>2024-08-12T06:44:35Z</time>
      </trkpt>
      <trkpt lat="44.78873" lon="6.36203">
        <ele>2236.8</ele>
        <time>2024-08-12T06:44:36Z</time>
      </trkpt>
      <trkpt lat="44.78873" lon="6.36203">
        <ele>2237.2</ele>
        <time>2024-08-12T06:44:37Z</time>
      </trkpt>
      <trkpt lat="44.78873" lon="6.36203">
        <ele>2237.4</ele>
        <time>2024-08-12T06:44:38Z</time>
      </trkpt>
      <trkpt lat="44.7887" lon="6.36202">
        <ele>2237.4</ele>
        <time>2024-08-12T06:44:39Z</time>
      </trkpt>
      <trkpt lat="44.7887" lon="6.36202">
        <ele>2237.8</ele>
        <time>2024-08-12T06:44:40Z</time>
      </trkpt>
      <trkpt lat="44.7887" lon="6.36202">
        <ele>2238.2</ele>
        <time>2024-08-12T06:44:41Z</time>
      </trkpt>
      <trkpt lat="44.78869" lon="6.362">
        <ele>2238.2</ele>
        <time>2024-08-12T06:44:42Z</time>
      </trkpt>
      <trkpt lat="44.78869" lon="6.362">
        <ele>2238.2</ele>
        <time>2024-08-12T06:44:43Z</time>
      </trkpt>
      <trkpt lat="44.78869" lon="6.362">
        <ele>2238.4</ele>
        <time>2024-08-12T06:44:44Z</time>
      </trkpt>
      <trkpt lat="44.78869" lon="6.362">
        <ele>2238.8</ele>
        <time>2024-08-12T06:44:45Z</time>
      </trkpt>
      <trkpt lat="44.78869" lon="6.362">
        <ele>2238.8</ele>
        <time>2024-08-12T06:44:46Z</time>
      </trkpt>
      <trkpt lat="44.78867" lon="6.36198">
        <ele>2239.2</ele>
        <time>2024-08-12T06:44:47Z</time>
      </trkpt>
      <trkpt lat="44.78867" lon="6.36198">
        <ele>2239.2</ele>
        <time>2024-08-12T06:44:48Z</time>
      </trkpt>
      <trkpt lat="44.78867" lon="6.36198">
        <ele>2239.4</ele>
        <time>2024-08-12T06:44:49Z</time>
      </trkpt>
      <trkpt lat="44.78867" lon="6.36198">
        <ele>2239.8</ele>
        <time>2024-08-12T06:44:50Z</time>
      </trkpt>
      <trkpt lat="44.78865" lon="6.36195">
        <ele>2240</ele>
        <time>2024-08-12T06:44:51Z</time>
      </trkpt>
      <trkpt lat="44.78865" lon="6.36195">
        <ele>2240.2</ele>
        <time>2024-08-12T06:44:52Z</time>
      </trkpt>
      <trkpt lat="44.78865" lon="6.36195">
        <ele>2240.4</ele>
        <time>2024-08-12T06:44:53Z</time>
      </trkpt>
      <trkpt lat="44.78864" lon="6.36194">
        <ele>2240.4</ele>
        <time>2024-08-12T06:44:54Z</time>
      </trkpt>
      <trkpt lat="44.78864" lon="6.36194">
        <ele>2240.8</ele>
        <time>2024-08-12T06:44:55Z</time>
      </trkpt>
      <trkpt lat="44.78862" lon="6.36192">
        <ele>2241</ele>
        <time>2024-08-12T06:44:56Z</time>
      </trkpt>
      <trkpt lat="44.78862" lon="6.36192">
        <ele>2241</ele>
        <time>2024-08-12T06:44:57Z</time>
      </trkpt>
      <trkpt lat="44.78861" lon="6.36191">
        <ele>2241.2</ele>
        <time>2024-08-12T06:44:58Z</time>
      </trkpt>
      <trkpt lat="44.78861" lon="6.36191">
        <ele>2241.2</ele>
        <time>2024-08-12T06:44:59Z</time>
      </trkpt>
      <trkpt lat="44.78859" lon="6.36189">
        <ele>2241.2</ele>
        <time>2024-08-12T06:45:00Z</time>
      </trkpt>
      <trkpt lat="44.78859" lon="6.36189">
        <ele>2241.4</ele>
        <time>2024-08-12T06:45:01Z</time>
      </trkpt>
      <trkpt lat="44.78859" lon="6.36189">
        <ele>2241.2</ele>
        <time>2024-08-12T06:45:02Z</time>
      </trkpt>
      <trkpt lat="44.78859" lon="6.36189">
        <ele>2241.2</ele>
        <time>2024-08-12T06:45:03Z</time>
      </trkpt>
      <trkpt lat="44.78859" lon="6.36189">
        <ele>2241.2</ele>
        <time>2024-08-12T06:45:04Z</time>
      </trkpt>
      <trkpt lat="44.78857" lon="6.36186">
        <ele>2241.4</ele>
        <time>2024-08-12T06:45:05Z</time>
      </trkpt>
      <trkpt lat="44.78857" lon="6.36186">
        <ele>2241.4</ele>
        <time>2024-08-12T06:45:06Z</time>
      </trkpt>
      <trkpt lat="44.78857" lon="6.36186">
        <ele>2241.4</ele>
        <time>2024-08-12T06:45:07Z</time>
      </trkpt>
      <trkpt lat="44.78857" lon="6.36186">
        <ele>2241.4</ele>
        <time>2024-08-12T06:45:08Z</time>
      </trkpt>
      <trkpt lat="44.78857" lon="6.36186">
        <ele>2241.6</ele>
        <time>2024-08-12T06:45:09Z</time>
      </trkpt>
      <trkpt lat="44.78855" lon="6.36186">
        <ele>2241.8</ele>
        <time>2024-08-12T06:45:10Z</time>
      </trkpt>
      <trkpt lat="44.78855" lon="6.36186">
        <ele>2241.8</ele>
        <time>2024-08-12T06:45:11Z</time>
      </trkpt>
      <trkpt lat="44.78855" lon="6.36186">
        <ele>2242</ele>
        <time>2024-08-12T06:45:12Z</time>
      </trkpt>
      <trkpt lat="44.78855" lon="6.36186">
        <ele>2242</ele>
        <time>2024-08-12T06:45:13Z</time>
      </trkpt>
      <trkpt lat="44.78853" lon="6.36187">
        <ele>2242</ele>
        <time>2024-08-12T06:45:14Z</time>
      </trkpt>
      <trkpt lat="44.78853" lon="6.36187">
        <ele>2242</ele>
        <time>2024-08-12T06:45:15Z</time>
      </trkpt>
      <trkpt lat="44.78853" lon="6.36187">
        <ele>2242</ele>
        <time>2024-08-12T06:45:16Z</time>
      </trkpt>
      <trkpt lat="44.78851" lon="6.36188">
        <ele>2242</ele>
        <time>2024-08-12T06:45:17Z</time>
      </trkpt>
      <trkpt lat="44.78851" lon="6.36188">
        <ele>2242.2</ele>
        <time>2024-08-12T06:45:18Z</time>
      </trkpt>
      <trkpt lat="44.78851" lon="6.36188">
        <ele>2242.4</ele>
        <time>2024-08-12T06:45:19Z</time>
      </trkpt>
      <trkpt lat="44.78849" lon="6.3619">
        <ele>2242.4</ele>
        <time>2024-08-12T06:45:20Z</time>
      </trkpt>
      <trkpt lat="44.78849" lon="6.3619">
        <ele>2242.6</ele>
        <time>2024-08-12T06:45:21Z</time>
      </trkpt>
      <trkpt lat="44.78849" lon="6.3619">
        <ele>2242.6</ele>
        <time>2024-08-12T06:45:22Z</time>
      </trkpt>
      <trkpt lat="44.78847" lon="6.36191">
        <ele>2242.6</ele>
        <time>2024-08-12T06:45:23Z</time>
      </trkpt>
      <trkpt lat="44.78847" lon="6.36191">
        <ele>2242.8</ele>
        <time>2024-08-12T06:45:24Z</time>
      </trkpt>
      <trkpt lat="44.78847" lon="6.36191">
        <ele>2242.8</ele>
        <time>2024-08-12T06:45:25Z</time>
      </trkpt>
      <trkpt lat="44.78845" lon="6.3619">
        <ele>2243.2</ele>
        <time>2024-08-12T06:45:26Z</time>
      </trkpt>
      <trkpt lat="44.78845" lon="6.3619">
        <ele>2243.2</ele>
        <time>2024-08-12T06:45:27Z</time>
      </trkpt>
      <trkpt lat="44.78845" lon="6.3619">
        <ele>2243.2</ele>
        <time>2024-08-12T06:45:28Z</time>
      </trkpt>
      <trkpt lat="44.78845" lon="6.3619">
        <ele>2243.2</ele>
        <time>2024-08-12T06:45:29Z</time>
      </trkpt>
      <trkpt lat="44.78846" lon="6.36187">
        <ele>2243.4</ele>
        <time>2024-08-12T06:45:30Z</time>
      </trkpt>
      <trkpt lat="44.78846" lon="6.36187">
        <ele>2243.6</ele>
        <time>2024-08-12T06:45:31Z</time>
      </trkpt>
      <trkpt lat="44.78846" lon="6.36187">
        <ele>2244</ele>
        <time>2024-08-12T06:45:32Z</time>
      </trkpt>
      <trkpt lat="44.78846" lon="6.36187">
        <ele>2244.2</ele>
        <time>2024-08-12T06:45:33Z</time>
      </trkpt>
      <trkpt lat="44.78846" lon="6.36187">
        <ele>2244.4</ele>
        <time>2024-08-12T06:45:34Z</time>
      </trkpt>
      <trkpt lat="44.78846" lon="6.36187">
        <ele>2244.8</ele>
        <time>2024-08-12T06:45:35Z</time>
      </trkpt>
      <trkpt lat="44.78846" lon="6.36187">
        <ele>2245</ele>
        <time>2024-08-12T06:45:36Z</time>
      </trkpt>
      <trkpt lat="44.78846" lon="6.36187">
        <ele>2245.4</ele>
        <time>2024-08-12T06:45:37Z</time>
      </trkpt>
      <trkpt lat="44.78846" lon="6.36187">
        <ele>2245.8</ele>
        <time>2024-08-12T06:45:38Z</time>
      </trkpt>
      <trkpt lat="44.78844" lon="6.36185">
        <ele>2246</ele>
        <time>2024-08-12T06:45:39Z</time>
      </trkpt>
      <trkpt lat="44.78844" lon="6.36185">
        <ele>2246.2</ele>
        <time>2024-08-12T06:45:40Z</time>
      </trkpt>
      <trkpt lat="44.78844" lon="6.36185">
        <ele>2246.2</ele>
        <time>2024-08-12T06:45:41Z</time>
      </trkpt>
      <trkpt lat="44.78844" lon="6.36185">
        <ele>2246.2</ele>
        <time>2024-08-12T06:45:42Z</time>
      </trkpt>
      <trkpt lat="44.78842" lon="6.36184">
        <ele>2246.2</ele>
        <time>2024-08-12T06:45:43Z</time>
      </trkpt>
      <trkpt lat="44.78842" lon="6.36184">
        <ele>2246.4</ele>
        <time>2024-08-12T06:45:44Z</time>
      </trkpt>
      <trkpt lat="44.78839" lon="6.36184">
        <ele>2246.6</ele>
        <time>2024-08-12T06:45:45Z</time>
      </trkpt>
      <trkpt lat="44.78839" lon="6.36184">
        <ele>2246.8</ele>
        <time>2024-08-12T06:45:46Z</time>
      </trkpt>
      <trkpt lat="44.78836" lon="6.36184">
        <ele>2246.8</ele>
        <time>2024-08-12T06:45:47Z</time>
      </trkpt>
      <trkpt lat="44.78836" lon="6.36184">
        <ele>2246.8</ele>
        <time>2024-08-12T06:45:48Z</time>
      </trkpt>
      <trkpt lat="44.78834" lon="6.36183">
        <ele>2246.6</ele>
        <time>2024-08-12T06:45:49Z</time>
      </trkpt>
      <trkpt lat="44.78834" lon="6.36183">
        <ele>2246.6</ele>
        <time>2024-08-12T06:45:50Z</time>
      </trkpt>
      <trkpt lat="44.78834" lon="6.36183">
        <ele>2246.8</ele>
        <time>2024-08-12T06:45:51Z</time>
      </trkpt>
      <trkpt lat="44.78834" lon="6.36183">
        <ele>2247</ele>
        <time>2024-08-12T06:45:52Z</time>
      </trkpt>
      <trkpt lat="44.78832" lon="6.36181">
        <ele>2247.4</ele>
        <time>2024-08-12T06:45:53Z</time>
      </trkpt>
      <trkpt lat="44.78832" lon="6.36181">
        <ele>2247.4</ele>
        <time>2024-08-12T06:45:54Z</time>
      </trkpt>
      <trkpt lat="44.78832" lon="6.36181">
        <ele>2247.6</ele>
        <time>2024-08-12T06:45:55Z</time>
      </trkpt>
      <trkpt lat="44.78832" lon="6.36181">
        <ele>2247.8</ele>
        <time>2024-08-12T06:45:56Z</time>
      </trkpt>
      <trkpt lat="44.78832" lon="6.36181">
        <ele>2247.8</ele>
        <time>2024-08-12T06:45:57Z</time>
      </trkpt>
      <trkpt lat="44.78832" lon="6.36181">
        <ele>2248</ele>
        <time>2024-08-12T06:45:58Z</time>
      </trkpt>
      <trkpt lat="44.7883" lon="6.36182">
        <ele>2248</ele>
        <time>2024-08-12T06:45:59Z</time>
      </trkpt>
      <trkpt lat="44.7883" lon="6.36182">
        <ele>2248</ele>
        <time>2024-08-12T06:46:00Z</time>
      </trkpt>
      <trkpt lat="44.7883" lon="6.36182">
        <ele>2248.2</ele>
        <time>2024-08-12T06:46:01Z</time>
      </trkpt>
      <trkpt lat="44.7883" lon="6.36182">
        <ele>2248.4</ele>
        <time>2024-08-12T06:46:02Z</time>
      </trkpt>
      <trkpt lat="44.78829" lon="6.36184">
        <ele>2248.4</ele>
        <time>2024-08-12T06:46:03Z</time>
      </trkpt>
      <trkpt lat="44.78829" lon="6.36184">
        <ele>2248.4</ele>
        <time>2024-08-12T06:46:04Z</time>
      </trkpt>
      <trkpt lat="44.78829" lon="6.36184">
        <ele>2248.4</ele>
        <time>2024-08-12T06:46:05Z</time>
      </trkpt>
      <trkpt lat="44.78829" lon="6.36184">
        <ele>2248.4</ele>
        <time>2024-08-12T06:46:06Z</time>
      </trkpt>
      <trkpt lat="44.78829" lon="6.36184">
        <ele>2248.6</ele>
        <time>2024-08-12T06:46:07Z</time>
      </trkpt>
      <trkpt lat="44.78828" lon="6.36186">
        <ele>2248.6</ele>
        <time>2024-08-12T06:46:08Z</time>
      </trkpt>
      <trkpt lat="44.78828" lon="6.36186">
        <ele>2248.6</ele>
        <time>2024-08-12T06:46:09Z</time>
      </trkpt>
      <trkpt lat="44.78828" lon="6.36186">
        <ele>2248.8</ele>
        <time>2024-08-12T06:46:10Z</time>
      </trkpt>
      <trkpt lat="44.78828" lon="6.36186">
        <ele>2249</ele>
        <time>2024-08-12T06:46:11Z</time>
      </trkpt>
      <trkpt lat="44.78828" lon="6.36189">
        <ele>2249.2</ele>
        <time>2024-08-12T06:46:12Z</time>
      </trkpt>
      <trkpt lat="44.78828" lon="6.36189">
        <ele>2249</ele>
        <time>2024-08-12T06:46:13Z</time>
      </trkpt>
      <trkpt lat="44.78827" lon="6.36192">
        <ele>2249</ele>
        <time>2024-08-12T06:46:14Z</time>
      </trkpt>
      <trkpt lat="44.78827" lon="6.36192">
        <ele>2249</ele>
        <time>2024-08-12T06:46:15Z</time>
      </trkpt>
      <trkpt lat="44.78827" lon="6.36192">
        <ele>2249.4</ele>
        <time>2024-08-12T06:46:16Z</time>
      </trkpt>
      <trkpt lat="44.78827" lon="6.36196">
        <ele>2249.6</ele>
        <time>2024-08-12T06:46:17Z</time>
      </trkpt>
      <trkpt lat="44.78827" lon="6.36196">
        <ele>2249.6</ele>
        <time>2024-08-12T06:46:18Z</time>
      </trkpt>
      <trkpt lat="44.78827" lon="6.36199">
        <ele>2249.8</ele>
        <time>2024-08-12T06:46:19Z</time>
      </trkpt>
      <trkpt lat="44.78827" lon="6.36199">
        <ele>2249.8</ele>
        <time>2024-08-12T06:46:20Z</time>
      </trkpt>
      <trkpt lat="44.78827" lon="6.36199">
        <ele>2250</ele>
        <time>2024-08-12T06:46:21Z</time>
      </trkpt>
      <trkpt lat="44.78826" lon="6.36202">
        <ele>2250.2</ele>
        <time>2024-08-12T06:46:22Z</time>
      </trkpt>
      <trkpt lat="44.78826" lon="6.36202">
        <ele>2250.6</ele>
        <time>2024-08-12T06:46:23Z</time>
      </trkpt>
      <trkpt lat="44.78826" lon="6.36202">
        <ele>2250.6</ele>
        <time>2024-08-12T06:46:24Z</time>
      </trkpt>
      <trkpt lat="44.78826" lon="6.36205">
        <ele>2250.6</ele>
        <time>2024-08-12T06:46:25Z</time>
      </trkpt>
      <trkpt lat="44.78826" lon="6.36205">
        <ele>2251</ele>
        <time>2024-08-12T06:46:26Z</time>
      </trkpt>
      <trkpt lat="44.78826" lon="6.36207">
        <ele>2251</ele>
        <time>2024-08-12T06:46:27Z</time>
      </trkpt>
      <trkpt lat="44.78826" lon="6.36207">
        <ele>2251</ele>
        <time>2024-08-12T06:46:28Z</time>
      </trkpt>
      <trkpt lat="44.78826" lon="6.36207">
        <ele>2251.6</ele>
        <time>2024-08-12T06:46:29Z</time>
      </trkpt>
      <trkpt lat="44.78825" lon="6.3621">
        <ele>2252</ele>
        <time>2024-08-12T06:46:30Z</time>
      </trkpt>
      <trkpt lat="44.78825" lon="6.3621">
        <ele>2252</ele>
        <time>2024-08-12T06:46:31Z</time>
      </trkpt>
      <trkpt lat="44.78825" lon="6.3621">
        <ele>2252</ele>
        <time>2024-08-12T06:46:32Z</time>
      </trkpt>
      <trkpt lat="44.78825" lon="6.3621">
        <ele>2252</ele>
        <time>2024-08-12T06:46:33Z</time>
      </trkpt>
      <trkpt lat="44.78825" lon="6.3621">
        <ele>2252.2</ele>
        <time>2024-08-12T06:46:34Z</time>
      </trkpt>
      <trkpt lat="44.78825" lon="6.3621">
        <ele>2252.4</ele>
        <time>2024-08-12T06:46:35Z</time>
      </trkpt>
      <trkpt lat="44.78825" lon="6.3621">
        <ele>2252.4</ele>
        <time>2024-08-12T06:46:36Z</time>
      </trkpt>
      <trkpt lat="44.78825" lon="6.3621">
        <ele>2252.4</ele>
        <time>2024-08-12T06:46:37Z</time>
      </trkpt>
      <trkpt lat="44.78825" lon="6.3621">
        <ele>2252.4</ele>
        <time>2024-08-12T06:46:38Z</time>
      </trkpt>
      <trkpt lat="44.78825" lon="6.3621">
        <ele>2252.2</ele>
        <time>2024-08-12T06:46:39Z</time>
      </trkpt>
      <trkpt lat="44.78823" lon="6.36211">
        <ele>2252.2</ele>
        <time>2024-08-12T06:46:40Z</time>
      </trkpt>
      <trkpt lat="44.78823" lon="6.36211">
        <ele>2252.2</ele>
        <time>2024-08-12T06:46:41Z</time>
      </trkpt>
      <trkpt lat="44.78821" lon="6.36212">
        <ele>2252.6</ele>
        <time>2024-08-12T06:46:42Z</time>
      </trkpt>
      <trkpt lat="44.78821" lon="6.36212">
        <ele>2252.8</ele>
        <time>2024-08-12T06:46:43Z</time>
      </trkpt>
      <trkpt lat="44.78818" lon="6.36213">
        <ele>2253.2</ele>
        <time>2024-08-12T06:46:44Z</time>
      </trkpt>
      <trkpt lat="44.78818" lon="6.36213">
        <ele>2253.2</ele>
        <time>2024-08-12T06:46:45Z</time>
      </trkpt>
      <trkpt lat="44.78816" lon="6.36214">
        <ele>2253.4</ele>
        <time>2024-08-12T06:46:46Z</time>
      </trkpt>
      <trkpt lat="44.78816" lon="6.36214">
        <ele>2253.4</ele>
        <time>2024-08-12T06:46:47Z</time>
      </trkpt>
      <trkpt lat="44.78814" lon="6.36215">
        <ele>2253.4</ele>
        <time>2024-08-12T06:46:48Z</time>
      </trkpt>
      <trkpt lat="44.78814" lon="6.36215">
        <ele>2253.4</ele>
        <time>2024-08-12T06:46:49Z</time>
      </trkpt>
      <trkpt lat="44.78812" lon="6.36215">
        <ele>2253.4</ele>
        <time>2024-08-12T06:46:50Z</time>
      </trkpt>
      <trkpt lat="44.78812" lon="6.36215">
        <ele>2253.8</ele>
        <time>2024-08-12T06:46:51Z</time>
      </trkpt>
      <trkpt lat="44.78812" lon="6.36215">
        <ele>2254</ele>
        <time>2024-08-12T06:46:52Z</time>
      </trkpt>
      <trkpt lat="44.7881" lon="6.36216">
        <ele>2254</ele>
        <time>2024-08-12T06:46:53Z</time>
      </trkpt>
      <trkpt lat="44.7881" lon="6.36216">
        <ele>2254.2</ele>
        <time>2024-08-12T06:46:54Z</time>
      </trkpt>
      <trkpt lat="44.78808" lon="6.36216">
        <ele>2254.4</ele>
        <time>2024-08-12T06:46:55Z</time>
      </trkpt>
      <trkpt lat="44.78808" lon="6.36216">
        <ele>2254.4</ele>
        <time>2024-08-12T06:46:56Z</time>
      </trkpt>
      <trkpt lat="44.78808" lon="6.36216">
        <ele>2254.4</ele>
        <time>2024-08-12T06:46:57Z</time>
      </trkpt>
      <trkpt lat="44.78805" lon="6.36217">
        <ele>2254.6</ele>
        <time>2024-08-12T06:46:58Z</time>
      </trkpt>
      <trkpt lat="44.78805" lon="6.36217">
        <ele>2254.6</ele>
        <time>2024-08-12T06:46:59Z</time>
      </trkpt>
      <trkpt lat="44.78805" lon="6.36217">
        <ele>2254.8</ele>
        <time>2024-08-12T06:47:00Z</time>
      </trkpt>
      <trkpt lat="44.78803" lon="6.36217">
        <ele>2255</ele>
        <time>2024-08-12T06:47:01Z</time>
      </trkpt>
      <trkpt lat="44.78803" lon="6.36217">
        <ele>2255</ele>
        <time>2024-08-12T06:47:02Z</time>
      </trkpt>
      <trkpt lat="44.78801" lon="6.36217">
        <ele>2255</ele>
        <time>2024-08-12T06:47:03Z</time>
      </trkpt>
      <trkpt lat="44.78801" lon="6.36217">
        <ele>2255.2</ele>
        <time>2024-08-12T06:47:04Z</time>
      </trkpt>
      <trkpt lat="44.78801" lon="6.36217">
        <ele>2255.4</ele>
        <time>2024-08-12T06:47:05Z</time>
      </trkpt>
      <trkpt lat="44.78799" lon="6.36217">
        <ele>2255.6</ele>
        <time>2024-08-12T06:47:06Z</time>
      </trkpt>
      <trkpt lat="44.78799" lon="6.36217">
        <ele>2256</ele>
        <time>2024-08-12T06:47:07Z</time>
      </trkpt>
      <trkpt lat="44.78799" lon="6.36217">
        <ele>2256</ele>
        <time>2024-08-12T06:47:08Z</time>
      </trkpt>
      <trkpt lat="44.78797" lon="6.36217">
        <ele>2256.2</ele>
        <time>2024-08-12T06:47:09Z</time>
      </trkpt>
      <trkpt lat="44.78797" lon="6.36217">
        <ele>2256.2</ele>
        <time>2024-08-12T06:47:10Z</time>
      </trkpt>
      <trkpt lat="44.78797" lon="6.36217">
        <ele>2256.2</ele>
        <time>2024-08-12T06:47:11Z</time>
      </trkpt>
      <trkpt lat="44.78795" lon="6.36217">
        <ele>2256.4</ele>
        <time>2024-08-12T06:47:12Z</time>
      </trkpt>
      <trkpt lat="44.78795" lon="6.36217">
        <ele>2256.6</ele>
        <time>2024-08-12T06:47:13Z</time>
      </trkpt>
      <trkpt lat="44.78795" lon="6.36217">
        <ele>2256.6</ele>
        <time>2024-08-12T06:47:14Z</time>
      </trkpt>
      <trkpt lat="44.78795" lon="6.36217">
        <ele>2257.2</ele>
        <time>2024-08-12T06:47:15Z</time>
      </trkpt>
      <trkpt lat="44.78794" lon="6.36219">
        <ele>2257.4</ele>
        <time>2024-08-12T06:47:16Z</time>
      </trkpt>
      <trkpt lat="44.78794" lon="6.36219">
        <ele>2257.4</ele>
        <time>2024-08-12T06:47:17Z</time>
      </trkpt>
      <trkpt lat="44.78794" lon="6.36219">
        <ele>2257.6</ele>
        <time>2024-08-12T06:47:18Z</time>
      </trkpt>
      <trkpt lat="44.78794" lon="6.36219">
        <ele>2258</ele>
        <time>2024-08-12T06:47:19Z</time>
      </trkpt>
      <trkpt lat="44.78792" lon="6.36222">
        <ele>2258.2</ele>
        <time>2024-08-12T06:47:20Z</time>
      </trkpt>
      <trkpt lat="44.78792" lon="6.36222">
        <ele>2258.2</ele>
        <time>2024-08-12T06:47:21Z</time>
      </trkpt>
      <trkpt lat="44.78792" lon="6.36222">
        <ele>2258.2</ele>
        <time>2024-08-12T06:47:22Z</time>
      </trkpt>
      <trkpt lat="44.78791" lon="6.36225">
        <ele>2258.2</ele>
        <time>2024-08-12T06:47:23Z</time>
      </trkpt>
      <trkpt lat="44.78791" lon="6.36225">
        <ele>2258.6</ele>
        <time>2024-08-12T06:47:24Z</time>
      </trkpt>
      <trkpt lat="44.78791" lon="6.36225">
        <ele>2258.8</ele>
        <time>2024-08-12T06:47:25Z</time>
      </trkpt>
      <trkpt lat="44.78789" lon="6.36227">
        <ele>2258.8</ele>
        <time>2024-08-12T06:47:26Z</time>
      </trkpt>
      <trkpt lat="44.78789" lon="6.36227">
        <ele>2258.8</ele>
        <time>2024-08-12T06:47:27Z</time>
      </trkpt>
      <trkpt lat="44.78789" lon="6.36227">
        <ele>2258.8</ele>
        <time>2024-08-12T06:47:28Z</time>
      </trkpt>
      <trkpt lat="44.78789" lon="6.36227">
        <ele>2259.2</ele>
        <time>2024-08-12T06:47:29Z</time>
      </trkpt>
      <trkpt lat="44.78789" lon="6.36227">
        <ele>2259.2</ele>
        <time>2024-08-12T06:47:30Z</time>
      </trkpt>
      <trkpt lat="44.78789" lon="6.36227">
        <ele>2259.2</ele>
        <time>2024-08-12T06:47:31Z</time>
      </trkpt>
      <trkpt lat="44.78789" lon="6.36227">
        <ele>2259.2</ele>
        <time>2024-08-12T06:47:32Z</time>
      </trkpt>
      <trkpt lat="44.78789" lon="6.36227">
        <ele>2259.2</ele>
        <time>2024-08-12T06:47:33Z</time>
      </trkpt>
      <trkpt lat="44.78789" lon="6.36227">
        <ele>2259.4</ele>
        <time>2024-08-12T06:47:34Z</time>
      </trkpt>
      <trkpt lat="44.78791" lon="6.3623">
        <ele>2259.4</ele>
        <time>2024-08-12T06:47:35Z</time>
      </trkpt>
      <trkpt lat="44.78791" lon="6.3623">
        <ele>2260</ele>
        <time>2024-08-12T06:47:36Z</time>
      </trkpt>
      <trkpt lat="44.78791" lon="6.36233">
        <ele>2260.2</ele>
        <time>2024-08-12T06:47:37Z</time>
      </trkpt>
      <trkpt lat="44.78791" lon="6.36233">
        <ele>2260.2</ele>
        <time>2024-08-12T06:47:38Z</time>
      </trkpt>
      <trkpt lat="44.78791" lon="6.36237">
        <ele>2260.4</ele>
        <time>2024-08-12T06:47:39Z</time>
      </trkpt>
      <trkpt lat="44.78791" lon="6.36237">
        <ele>2260.4</ele>
        <time>2024-08-12T06:47:40Z</time>
      </trkpt>
      <trkpt lat="44.78792" lon="6.36239">
        <ele>2260.6</ele>
        <time>2024-08-12T06:47:41Z</time>
      </trkpt>
      <trkpt lat="44.78792" lon="6.36239">
        <ele>2260.6</ele>
        <time>2024-08-12T06:47:42Z</time>
      </trkpt>
      <trkpt lat="44.78792" lon="6.36242">
        <ele>2260.6</ele>
        <time>2024-08-12T06:47:43Z</time>
      </trkpt>
      <trkpt lat="44.78792" lon="6.36242">
        <ele>2260.6</ele>
        <time>2024-08-12T06:47:44Z</time>
      </trkpt>
      <trkpt lat="44.78792" lon="6.36245">
        <ele>2260.8</ele>
        <time>2024-08-12T06:47:45Z</time>
      </trkpt>
      <trkpt lat="44.78792" lon="6.36245">
        <ele>2260.8</ele>
        <time>2024-08-12T06:47:46Z</time>
      </trkpt>
      <trkpt lat="44.78792" lon="6.36245">
        <ele>2261</ele>
        <time>2024-08-12T06:47:47Z</time>
      </trkpt>
      <trkpt lat="44.78791" lon="6.36248">
        <ele>2261.2</ele>
        <time>2024-08-12T06:47:48Z</time>
      </trkpt>
      <trkpt lat="44.78791" lon="6.36248">
        <ele>2261.6</ele>
        <time>2024-08-12T06:47:49Z</time>
      </trkpt>
      <trkpt lat="44.78789" lon="6.36249">
        <ele>2261.8</ele>
        <time>2024-08-12T06:47:50Z</time>
      </trkpt>
      <trkpt lat="44.78789" lon="6.36249">
        <ele>2261.8</ele>
        <time>2024-08-12T06:47:51Z</time>
      </trkpt>
      <trkpt lat="44.78788" lon="6.36249">
        <ele>2262</ele>
        <time>2024-08-12T06:47:52Z</time>
      </trkpt>
      <trkpt lat="44.78788" lon="6.36249">
        <ele>2262</ele>
        <time>2024-08-12T06:47:53Z</time>
      </trkpt>
      <trkpt lat="44.78786" lon="6.36248">
        <ele>2262.2</ele>
        <time>2024-08-12T06:47:54Z</time>
      </trkpt>
      <trkpt lat="44.78786" lon="6.36248">
        <ele>2262.4</ele>
        <time>2024-08-12T06:47:55Z</time>
      </trkpt>
      <trkpt lat="44.78786" lon="6.36248">
        <ele>2262.4</ele>
        <time>2024-08-12T06:47:56Z</time>
      </trkpt>
      <trkpt lat="44.78783" lon="6.36247">
        <ele>2262.4</ele>
        <time>2024-08-12T06:47:57Z</time>
      </trkpt>
      <trkpt lat="44.78783" lon="6.36247">
        <ele>2262.6</ele>
        <time>2024-08-12T06:47:58Z</time>
      </trkpt>
      <trkpt lat="44.78781" lon="6.36245">
        <ele>2262.8</ele>
        <time>2024-08-12T06:47:59Z</time>
      </trkpt>
      <trkpt lat="44.78781" lon="6.36245">
        <ele>2262.8</ele>
        <time>2024-08-12T06:48:00Z</time>
      </trkpt>
      <trkpt lat="44.7878" lon="6.36244">
        <ele>2263.2</ele>
        <time>2024-08-12T06:48:01Z</time>
      </trkpt>
      <trkpt lat="44.7878" lon="6.36244">
        <ele>2263.4</ele>
        <time>2024-08-12T06:48:02Z</time>
      </trkpt>
      <trkpt lat="44.78777" lon="6.36242">
        <ele>2263.4</ele>
        <time>2024-08-12T06:48:03Z</time>
      </trkpt>
      <trkpt lat="44.78777" lon="6.36242">
        <ele>2263.4</ele>
        <time>2024-08-12T06:48:04Z</time>
      </trkpt>
      <trkpt lat="44.78777" lon="6.36242">
        <ele>2263.6</ele>
        <time>2024-08-12T06:48:05Z</time>
      </trkpt>
      <trkpt lat="44.78775" lon="6.36239">
        <ele>2263.6</ele>
        <time>2024-08-12T06:48:06Z</time>
      </trkpt>
      <trkpt lat="44.78775" lon="6.36239">
        <ele>2264</ele>
        <time>2024-08-12T06:48:07Z</time>
      </trkpt>
      <trkpt lat="44.78774" lon="6.36237">
        <ele>2264</ele>
        <time>2024-08-12T06:48:08Z</time>
      </trkpt>
      <trkpt lat="44.78774" lon="6.36237">
        <ele>2264.2</ele>
        <time>2024-08-12T06:48:09Z</time>
      </trkpt>
      <trkpt lat="44.78772" lon="6.36235">
        <ele>2264.4</ele>
        <time>2024-08-12T06:48:10Z</time>
      </trkpt>
      <trkpt lat="44.78772" lon="6.36235">
        <ele>2264.4</ele>
        <time>2024-08-12T06:48:11Z</time>
      </trkpt>
      <trkpt lat="44.7877" lon="6.36233">
        <ele>2264.6</ele>
        <time>2024-08-12T06:48:12Z</time>
      </trkpt>
      <trkpt lat="44.7877" lon="6.36233">
        <ele>2264.6</ele>
        <time>2024-08-12T06:48:13Z</time>
      </trkpt>
      <trkpt lat="44.78768" lon="6.36231">
        <ele>2264.8</ele>
        <time>2024-08-12T06:48:14Z</time>
      </trkpt>
      <trkpt lat="44.78768" lon="6.36231">
        <ele>2264.8</ele>
        <time>2024-08-12T06:48:15Z</time>
      </trkpt>
      <trkpt lat="44.78767" lon="6.36229">
        <ele>2264.8</ele>
        <time>2024-08-12T06:48:16Z</time>
      </trkpt>
      <trkpt lat="44.78767" lon="6.36229">
        <ele>2264.8</ele>
        <time>2024-08-12T06:48:17Z</time>
      </trkpt>
      <trkpt lat="44.78765" lon="6.36227">
        <ele>2264.8</ele>
        <time>2024-08-12T06:48:18Z</time>
      </trkpt>
      <trkpt lat="44.78765" lon="6.36227">
        <ele>2264.8</ele>
        <time>2024-08-12T06:48:19Z</time>
      </trkpt>
      <trkpt lat="44.78764" lon="6.36225">
        <ele>2264.8</ele>
        <time>2024-08-12T06:48:20Z</time>
      </trkpt>
      <trkpt lat="44.78764" lon="6.36225">
        <ele>2265</ele>
        <time>2024-08-12T06:48:21Z</time>
      </trkpt>
      <trkpt lat="44.78762" lon="6.36223">
        <ele>2265.2</ele>
        <time>2024-08-12T06:48:22Z</time>
      </trkpt>
      <trkpt lat="44.78762" lon="6.36223">
        <ele>2265.4</ele>
        <time>2024-08-12T06:48:23Z</time>
      </trkpt>
      <trkpt lat="44.78761" lon="6.36221">
        <ele>2265.6</ele>
        <time>2024-08-12T06:48:24Z</time>
      </trkpt>
      <trkpt lat="44.78761" lon="6.36221">
        <ele>2266</ele>
        <time>2024-08-12T06:48:25Z</time>
      </trkpt>
      <trkpt lat="44.78759" lon="6.36219">
        <ele>2266</ele>
        <time>2024-08-12T06:48:26Z</time>
      </trkpt>
      <trkpt lat="44.78759" lon="6.36219">
        <ele>2266.6</ele>
        <time>2024-08-12T06:48:27Z</time>
      </trkpt>
      <trkpt lat="44.78757" lon="6.36217">
        <ele>2266.6</ele>
        <time>2024-08-12T06:48:28Z</time>
      </trkpt>
      <trkpt lat="44.78757" lon="6.36217">
        <ele>2266.6</ele>
        <time>2024-08-12T06:48:29Z</time>
      </trkpt>
      <trkpt lat="44.78757" lon="6.36217">
        <ele>2266.6</ele>
        <time>2024-08-12T06:48:30Z</time>
      </trkpt>
      <trkpt lat="44.78757" lon="6.36214">
        <ele>2267</ele>
        <time>2024-08-12T06:48:31Z</time>
      </trkpt>
      <trkpt lat="44.78757" lon="6.36214">
        <ele>2267.2</ele>
        <time>2024-08-12T06:48:32Z</time>
      </trkpt>
      <trkpt lat="44.78755" lon="6.36212">
        <ele>2267.2</ele>
        <time>2024-08-12T06:48:33Z</time>
      </trkpt>
      <trkpt lat="44.78755" lon="6.36212">
        <ele>2267.4</ele>
        <time>2024-08-12T06:48:34Z</time>
      </trkpt>
      <trkpt lat="44.78754" lon="6.3621">
        <ele>2267.4</ele>
        <time>2024-08-12T06:48:35Z</time>
      </trkpt>
      <trkpt lat="44.78754" lon="6.3621">
        <ele>2267.6</ele>
        <time>2024-08-12T06:48:36Z</time>
      </trkpt>
      <trkpt lat="44.78754" lon="6.3621">
        <ele>2267.6</ele>
        <time>2024-08-12T06:48:37Z</time>
      </trkpt>
      <trkpt lat="44.78752" lon="6.36208">
        <ele>2267.6</ele>
        <time>2024-08-12T06:48:38Z</time>
      </trkpt>
      <trkpt lat="44.78752" lon="6.36208">
        <ele>2268</ele>
        <time>2024-08-12T06:48:39Z</time>
      </trkpt>
      <trkpt lat="44.78751" lon="6.36205">
        <ele>2268.2</ele>
        <time>2024-08-12T06:48:40Z</time>
      </trkpt>
      <trkpt lat="44.78751" lon="6.36205">
        <ele>2268.2</ele>
        <time>2024-08-12T06:48:41Z</time>
      </trkpt>
      <trkpt lat="44.78749" lon="6.36203">
        <ele>2268.4</ele>
        <time>2024-08-12T06:48:42Z</time>
      </trkpt>
      <trkpt lat="44.78749" lon="6.36203">
        <ele>2268.4</ele>
        <time>2024-08-12T06:48:43Z</time>
      </trkpt>
      <trkpt lat="44.78748" lon="6.36201">
        <ele>2268.4</ele>
        <time>2024-08-12T06:48:44Z</time>
      </trkpt>
      <trkpt lat="44.78748" lon="6.36201">
        <ele>2268.8</ele>
        <time>2024-08-12T06:48:45Z</time>
      </trkpt>
      <trkpt lat="44.78748" lon="6.36201">
        <ele>2269</ele>
        <time>2024-08-12T06:48:46Z</time>
      </trkpt>
      <trkpt lat="44.78746" lon="6.36198">
        <ele>2269.4</ele>
        <time>2024-08-12T06:48:47Z</time>
      </trkpt>
      <trkpt lat="44.78746" lon="6.36198">
        <ele>2269.6</ele>
        <time>2024-08-12T06:48:48Z</time>
      </trkpt>
      <trkpt lat="44.78746" lon="6.36198">
        <ele>2269.8</ele>
        <time>2024-08-12T06:48:49Z</time>
      </trkpt>
      <trkpt lat="44.78744" lon="6.36195">
        <ele>2270</ele>
        <time>2024-08-12T06:48:50Z</time>
      </trkpt>
      <trkpt lat="44.78744" lon="6.36195">
        <ele>2270</ele>
        <time>2024-08-12T06:48:51Z</time>
      </trkpt>
      <trkpt lat="44.78743" lon="6.36193">
        <ele>2270.2</ele>
        <time>2024-08-12T06:48:52Z</time>
      </trkpt>
      <trkpt lat="44.78743" lon="6.36193">
        <ele>2270.4</ele>
        <time>2024-08-12T06:48:53Z</time>
      </trkpt>
      <trkpt lat="44.78741" lon="6.36191">
        <ele>2270.4</ele>
        <time>2024-08-12T06:48:54Z</time>
      </trkpt>
      <trkpt lat="44.78741" lon="6.36191">
        <ele>2270.6</ele>
        <time>2024-08-12T06:48:55Z</time>
      </trkpt>
      <trkpt lat="44.7874" lon="6.36189">
        <ele>2270.6</ele>
        <time>2024-08-12T06:48:56Z</time>
      </trkpt>
      <trkpt lat="44.7874" lon="6.36189">
        <ele>2270.6</ele>
        <time>2024-08-12T06:48:57Z</time>
      </trkpt>
      <trkpt lat="44.78738" lon="6.36187">
        <ele>2270.8</ele>
        <time>2024-08-12T06:48:58Z</time>
      </trkpt>
      <trkpt lat="44.78738" lon="6.36187">
        <ele>2270.8</ele>
        <time>2024-08-12T06:48:59Z</time>
      </trkpt>
      <trkpt lat="44.78738" lon="6.36187">
        <ele>2271</ele>
        <time>2024-08-12T06:49:00Z</time>
      </trkpt>
      <trkpt lat="44.78736" lon="6.36187">
        <ele>2271.4</ele>
        <time>2024-08-12T06:49:01Z</time>
      </trkpt>
      <trkpt lat="44.78736" lon="6.36187">
        <ele>2271.6</ele>
        <time>2024-08-12T06:49:02Z</time>
      </trkpt>
      <trkpt lat="44.78735" lon="6.36189">
        <ele>2271.6</ele>
        <time>2024-08-12T06:49:03Z</time>
      </trkpt>
      <trkpt lat="44.78735" lon="6.36189">
        <ele>2271.8</ele>
        <time>2024-08-12T06:49:04Z</time>
      </trkpt>
      <trkpt lat="44.78734" lon="6.36192">
        <ele>2272</ele>
        <time>2024-08-12T06:49:05Z</time>
      </trkpt>
      <trkpt lat="44.78734" lon="6.36192">
        <ele>2272.2</ele>
        <time>2024-08-12T06:49:06Z</time>
      </trkpt>
      <trkpt lat="44.78733" lon="6.36195">
        <ele>2272.4</ele>
        <time>2024-08-12T06:49:07Z</time>
      </trkpt>
      <trkpt lat="44.78733" lon="6.36195">
        <ele>2272.4</ele>
        <time>2024-08-12T06:49:08Z</time>
      </trkpt>
      <trkpt lat="44.78732" lon="6.36198">
        <ele>2272.4</ele>
        <time>2024-08-12T06:49:09Z</time>
      </trkpt>
      <trkpt lat="44.78732" lon="6.36198">
        <ele>2272.8</ele>
        <time>2024-08-12T06:49:10Z</time>
      </trkpt>
      <trkpt lat="44.78731" lon="6.36202">
        <ele>2272.8</ele>
        <time>2024-08-12T06:49:11Z</time>
      </trkpt>
      <trkpt lat="44.78731" lon="6.36202">
        <ele>2272.8</ele>
        <time>2024-08-12T06:49:12Z</time>
      </trkpt>
      <trkpt lat="44.7873" lon="6.36204">
        <ele>2273.2</ele>
        <time>2024-08-12T06:49:13Z</time>
      </trkpt>
      <trkpt lat="44.7873" lon="6.36204">
        <ele>2273.4</ele>
        <time>2024-08-12T06:49:14Z</time>
      </trkpt>
      <trkpt lat="44.7873" lon="6.36207">
        <ele>2273.4</ele>
        <time>2024-08-12T06:49:15Z</time>
      </trkpt>
      <trkpt lat="44.7873" lon="6.36207">
        <ele>2273.6</ele>
        <time>2024-08-12T06:49:16Z</time>
      </trkpt>
      <trkpt lat="44.78729" lon="6.36211">
        <ele>2273.8</ele>
        <time>2024-08-12T06:49:17Z</time>
      </trkpt>
      <trkpt lat="44.78729" lon="6.36211">
        <ele>2273.8</ele>
        <time>2024-08-12T06:49:18Z</time>
      </trkpt>
      <trkpt lat="44.78729" lon="6.36214">
        <ele>2274</ele>
        <time>2024-08-12T06:49:19Z</time>
      </trkpt>
      <trkpt lat="44.78729" lon="6.36214">
        <ele>2274</ele>
        <time>2024-08-12T06:49:20Z</time>
      </trkpt>
      <trkpt lat="44.78728" lon="6.36216">
        <ele>2274.2</ele>
        <time>2024-08-12T06:49:21Z</time>
      </trkpt>
      <trkpt lat="44.78728" lon="6.36216">
        <ele>2274.4</ele>
        <time>2024-08-12T06:49:22Z</time>
      </trkpt>
      <trkpt lat="44.78727" lon="6.3622">
        <ele>2274.6</ele>
        <time>2024-08-12T06:49:23Z</time>
      </trkpt>
      <trkpt lat="44.78727" lon="6.3622">
        <ele>2274.6</ele>
        <time>2024-08-12T06:49:24Z</time>
      </trkpt>
      <trkpt lat="44.78726" lon="6.36223">
        <ele>2274.6</ele>
        <time>2024-08-12T06:49:25Z</time>
      </trkpt>
      <trkpt lat="44.78726" lon="6.36223">
        <ele>2274.6</ele>
        <time>2024-08-12T06:49:26Z</time>
      </trkpt>
      <trkpt lat="44.78725" lon="6.36225">
        <ele>2274.8</ele>
        <time>2024-08-12T06:49:27Z</time>
      </trkpt>
      <trkpt lat="44.78725" lon="6.36225">
        <ele>2274.8</ele>
        <time>2024-08-12T06:49:28Z</time>
      </trkpt>
      <trkpt lat="44.78725" lon="6.36228">
        <ele>2275</ele>
        <time>2024-08-12T06:49:29Z</time>
      </trkpt>
      <trkpt lat="44.78725" lon="6.36228">
        <ele>2275</ele>
        <time>2024-08-12T06:49:30Z</time>
      </trkpt>
      <trkpt lat="44.78724" lon="6.36231">
        <ele>2275.2</ele>
        <time>2024-08-12T06:49:31Z</time>
      </trkpt>
      <trkpt lat="44.78724" lon="6.36231">
        <ele>2275.2</ele>
        <time>2024-08-12T06:49:32Z</time>
      </trkpt>
      <trkpt lat="44.78724" lon="6.36235">
        <ele>2275.4</ele>
        <time>2024-08-12T06:49:33Z</time>
      </trkpt>
      <trkpt lat="44.78724" lon="6.36235">
        <ele>2275.4</ele>
        <time>2024-08-12T06:49:34Z</time>
      </trkpt>
      <trkpt lat="44.78723" lon="6.36238">
        <ele>2275.4</ele>
        <time>2024-08-12T06:49:35Z</time>
      </trkpt>
      <trkpt lat="44.78723" lon="6.36238">
        <ele>2275.4</ele>
        <time>2024-08-12T06:49:36Z</time>
      </trkpt>
      <trkpt lat="44.78722" lon="6.36241">
        <ele>2275.8</ele>
        <time>2024-08-12T06:49:37Z</time>
      </trkpt>
      <trkpt lat="44.78722" lon="6.36241">
        <ele>2276</ele>
        <time>2024-08-12T06:49:38Z</time>
      </trkpt>
      <trkpt lat="44.78722" lon="6.36244">
        <ele>2276.2</ele>
        <time>2024-08-12T06:49:39Z</time>
      </trkpt>
      <trkpt lat="44.78722" lon="6.36244">
        <ele>2276.2</ele>
        <time>2024-08-12T06:49:40Z</time>
      </trkpt>
      <trkpt lat="44.78721" lon="6.36247">
        <ele>2276.4</ele>
        <time>2024-08-12T06:49:41Z</time>
      </trkpt>
      <trkpt lat="44.78721" lon="6.36247">
        <ele>2276.4</ele>
        <time>2024-08-12T06:49:42Z</time>
      </trkpt>
      <trkpt lat="44.7872" lon="6.36249">
        <ele>2276.4</ele>
        <time>2024-08-12T06:49:43Z</time>
      </trkpt>
      <trkpt lat="44.7872" lon="6.36249">
        <ele>2276.6</ele>
        <time>2024-08-12T06:49:44Z</time>
      </trkpt>
      <trkpt lat="44.78719" lon="6.36252">
        <ele>2276.8</ele>
        <time>2024-08-12T06:49:45Z</time>
      </trkpt>
      <trkpt lat="44.78719" lon="6.36252">
        <ele>2276.8</ele>
        <time>2024-08-12T06:49:46Z</time>
      </trkpt>
      <trkpt lat="44.78719" lon="6.36254">
        <ele>2276.8</ele>
        <time>2024-08-12T06:49:47Z</time>
      </trkpt>
      <trkpt lat="44.78719" lon="6.36254">
        <ele>2277.2</ele>
        <time>2024-08-12T06:49:48Z</time>
      </trkpt>
      <trkpt lat="44.78719" lon="6.36257">
        <ele>2277.2</ele>
        <time>2024-08-12T06:49:49Z</time>
      </trkpt>
      <trkpt lat="44.78719" lon="6.36257">
        <ele>2277.2</ele>
        <time>2024-08-12T06:49:50Z</time>
      </trkpt>
      <trkpt lat="44.78719" lon="6.36257">
        <ele>2277.4</ele>
        <time>2024-08-12T06:49:51Z</time>
      </trkpt>
      <trkpt lat="44.78719" lon="6.36261">
        <ele>2277.6</ele>
        <time>2024-08-12T06:49:52Z</time>
      </trkpt>
      <trkpt lat="44.78719" lon="6.36261">
        <ele>2277.6</ele>
        <time>2024-08-12T06:49:53Z</time>
      </trkpt>
      <trkpt lat="44.78719" lon="6.36264">
        <ele>2277.8</ele>
        <time>2024-08-12T06:49:54Z</time>
      </trkpt>
      <trkpt lat="44.78719" lon="6.36264">
        <ele>2278.2</ele>
        <time>2024-08-12T06:49:55Z</time>
      </trkpt>
      <trkpt lat="44.78719" lon="6.36266">
        <ele>2278.6</ele>
        <time>2024-08-12T06:49:56Z</time>
      </trkpt>
      <trkpt lat="44.78719" lon="6.36266">
        <ele>2278.6</ele>
        <time>2024-08-12T06:49:57Z</time>
      </trkpt>
      <trkpt lat="44.78719" lon="6.3627">
        <ele>2279</ele>
        <time>2024-08-12T06:49:58Z</time>
      </trkpt>
      <trkpt lat="44.78719" lon="6.3627">
        <ele>2279</ele>
        <time>2024-08-12T06:49:59Z</time>
      </trkpt>
      <trkpt lat="44.78718" lon="6.36273">
        <ele>2278.8</ele>
        <time>2024-08-12T06:50:00Z</time>
      </trkpt>
      <trkpt lat="44.78718" lon="6.36273">
        <ele>2278.8</ele>
        <time>2024-08-12T06:50:01Z</time>
      </trkpt>
      <trkpt lat="44.78717" lon="6.36276">
        <ele>2279</ele>
        <time>2024-08-12T06:50:02Z</time>
      </trkpt>
      <trkpt lat="44.78717" lon="6.36276">
        <ele>2279</ele>
        <time>2024-08-12T06:50:03Z</time>
      </trkpt>
      <trkpt lat="44.78717" lon="6.36279">
        <ele>2279.4</ele>
        <time>2024-08-12T06:50:04Z</time>
      </trkpt>
      <trkpt lat="44.78717" lon="6.36279">
        <ele>2279.4</ele>
        <time>2024-08-12T06:50:05Z</time>
      </trkpt>
      <trkpt lat="44.78717" lon="6.36283">
        <ele>2279.4</ele>
        <time>2024-08-12T06:50:06Z</time>
      </trkpt>
      <trkpt lat="44.78717" lon="6.36283">
        <ele>2279.4</ele>
        <time>2024-08-12T06:50:07Z</time>
      </trkpt>
      <trkpt lat="44.78716" lon="6.36286">
        <ele>2279.6</ele>
        <time>2024-08-12T06:50:08Z</time>
      </trkpt>
      <trkpt lat="44.78716" lon="6.36286">
        <ele>2279.6</ele>
        <time>2024-08-12T06:50:09Z</time>
      </trkpt>
      <trkpt lat="44.78716" lon="6.36289">
        <ele>2279.8</ele>
        <time>2024-08-12T06:50:10Z</time>
      </trkpt>
      <trkpt lat="44.78716" lon="6.36289">
        <ele>2279.8</ele>
        <time>2024-08-12T06:50:11Z</time>
      </trkpt>
      <trkpt lat="44.78715" lon="6.36292">
        <ele>2279.8</ele>
        <time>2024-08-12T06:50:12Z</time>
      </trkpt>
      <trkpt lat="44.78715" lon="6.36292">
        <ele>2280</ele>
        <time>2024-08-12T06:50:13Z</time>
      </trkpt>
      <trkpt lat="44.78714" lon="6.36294">
        <ele>2280</ele>
        <time>2024-08-12T06:50:14Z</time>
      </trkpt>
      <trkpt lat="44.78714" lon="6.36294">
        <ele>2280</ele>
        <time>2024-08-12T06:50:15Z</time>
      </trkpt>
      <trkpt lat="44.78714" lon="6.36294">
        <ele>2279.8</ele>
        <time>2024-08-12T06:50:16Z</time>
      </trkpt>
      <trkpt lat="44.78712" lon="6.36298">
        <ele>2279.6</ele>
        <time>2024-08-12T06:50:17Z</time>
      </trkpt>
      <trkpt lat="44.78712" lon="6.36298">
        <ele>2279.6</ele>
        <time>2024-08-12T06:50:18Z</time>
      </trkpt>
      <trkpt lat="44.78711" lon="6.36301">
        <ele>2279.6</ele>
        <time>2024-08-12T06:50:19Z</time>
      </trkpt>
      <trkpt lat="44.78711" lon="6.36301">
        <ele>2279.6</ele>
        <time>2024-08-12T06:50:20Z</time>
      </trkpt>
      <trkpt lat="44.7871" lon="6.36305">
        <ele>2279.6</ele>
        <time>2024-08-12T06:50:21Z</time>
      </trkpt>
      <trkpt lat="44.7871" lon="6.36305">
        <ele>2279.8</ele>
        <time>2024-08-12T06:50:22Z</time>
      </trkpt>
      <trkpt lat="44.78708" lon="6.36308">
        <ele>2280</ele>
        <time>2024-08-12T06:50:23Z</time>
      </trkpt>
      <trkpt lat="44.78708" lon="6.36308">
        <ele>2279.8</ele>
        <time>2024-08-12T06:50:24Z</time>
      </trkpt>
      <trkpt lat="44.78706" lon="6.3631">
        <ele>2279.8</ele>
        <time>2024-08-12T06:50:25Z</time>
      </trkpt>
      <trkpt lat="44.78706" lon="6.3631">
        <ele>2279.8</ele>
        <time>2024-08-12T06:50:26Z</time>
      </trkpt>
      <trkpt lat="44.78705" lon="6.36313">
        <ele>2279.8</ele>
        <time>2024-08-12T06:50:27Z</time>
      </trkpt>
      <trkpt lat="44.78705" lon="6.36313">
        <ele>2279.8</ele>
        <time>2024-08-12T06:50:28Z</time>
      </trkpt>
      <trkpt lat="44.78703" lon="6.36316">
        <ele>2280.2</ele>
        <time>2024-08-12T06:50:29Z</time>
      </trkpt>
      <trkpt lat="44.78703" lon="6.36316">
        <ele>2280.2</ele>
        <time>2024-08-12T06:50:30Z</time>
      </trkpt>
      <trkpt lat="44.78702" lon="6.36319">
        <ele>2280.2</ele>
        <time>2024-08-12T06:50:31Z</time>
      </trkpt>
      <trkpt lat="44.78702" lon="6.36319">
        <ele>2280.2</ele>
        <time>2024-08-12T06:50:32Z</time>
      </trkpt>
      <trkpt lat="44.78702" lon="6.36322">
        <ele>2280.2</ele>
        <time>2024-08-12T06:50:33Z</time>
      </trkpt>
      <trkpt lat="44.78702" lon="6.36322">
        <ele>2280.2</ele>
        <time>2024-08-12T06:50:34Z</time>
      </trkpt>
      <trkpt lat="44.78702" lon="6.36322">
        <ele>2280.2</ele>
        <time>2024-08-12T06:50:35Z</time>
      </trkpt>
      <trkpt lat="44.78702" lon="6.36326">
        <ele>2280.2</ele>
        <time>2024-08-12T06:50:36Z</time>
      </trkpt>
      <trkpt lat="44.78702" lon="6.36326">
        <ele>2280.2</ele>
        <time>2024-08-12T06:50:37Z</time>
      </trkpt>
      <trkpt lat="44.78702" lon="6.3633">
        <ele>2280.2</ele>
        <time>2024-08-12T06:50:38Z</time>
      </trkpt>
      <trkpt lat="44.78702" lon="6.3633">
        <ele>2280.2</ele>
        <time>2024-08-12T06:50:39Z</time>
      </trkpt>
      <trkpt lat="44.78704" lon="6.36332">
        <ele>2280</ele>
        <time>2024-08-12T06:50:40Z</time>
      </trkpt>
      <trkpt lat="44.78704" lon="6.36332">
        <ele>2279.8</ele>
        <time>2024-08-12T06:50:41Z</time>
      </trkpt>
      <trkpt lat="44.78705" lon="6.36335">
        <ele>2279.8</ele>
        <time>2024-08-12T06:50:42Z</time>
      </trkpt>
      <trkpt lat="44.78705" lon="6.36335">
        <ele>2279.8</ele>
        <time>2024-08-12T06:50:43Z</time>
      </trkpt>
      <trkpt lat="44.78707" lon="6.36338">
        <ele>2279.8</ele>
        <time>2024-08-12T06:50:44Z</time>
      </trkpt>
      <trkpt lat="44.78707" lon="6.36338">
        <ele>2280</ele>
        <time>2024-08-12T06:50:45Z</time>
      </trkpt>
      <trkpt lat="44.78709" lon="6.3634">
        <ele>2280</ele>
        <time>2024-08-12T06:50:46Z</time>
      </trkpt>
      <trkpt lat="44.78709" lon="6.3634">
        <ele>2280</ele>
        <time>2024-08-12T06:50:47Z</time>
      </trkpt>
      <trkpt lat="44.7871" lon="6.36342">
        <ele>2280</ele>
        <time>2024-08-12T06:50:48Z</time>
      </trkpt>
      <trkpt lat="44.7871" lon="6.36342">
        <ele>2280.4</ele>
        <time>2024-08-12T06:50:49Z</time>
      </trkpt>
      <trkpt lat="44.78711" lon="6.36345">
        <ele>2280.4</ele>
        <time>2024-08-12T06:50:50Z</time>
      </trkpt>
      <trkpt lat="44.78711" lon="6.36345">
        <ele>2280.6</ele>
        <time>2024-08-12T06:50:51Z</time>
      </trkpt>
      <trkpt lat="44.78713" lon="6.36347">
        <ele>2280.6</ele>
        <time>2024-08-12T06:50:52Z</time>
      </trkpt>
      <trkpt lat="44.78713" lon="6.36347">
        <ele>2280.8</ele>
        <time>2024-08-12T06:50:53Z</time>
      </trkpt>
      <trkpt lat="44.78715" lon="6.3635">
        <ele>2280.8</ele>
        <time>2024-08-12T06:50:54Z</time>
      </trkpt>
      <trkpt lat="44.78715" lon="6.3635">
        <ele>2281</ele>
        <time>2024-08-12T06:50:55Z</time>
      </trkpt>
      <trkpt lat="44.78716" lon="6.36353">
        <ele>2281</ele>
        <time>2024-08-12T06:50:56Z</time>
      </trkpt>
      <trkpt lat="44.78716" lon="6.36353">
        <ele>2281</ele>
        <time>2024-08-12T06:50:57Z</time>
      </trkpt>
      <trkpt lat="44.78717" lon="6.36356">
        <ele>2281.2</ele>
        <time>2024-08-12T06:50:58Z</time>
      </trkpt>
      <trkpt lat="44.78719" lon="6.36357">
        <ele>2281.2</ele>
        <time>2024-08-12T06:50:59Z</time>
      </trkpt>
      <trkpt lat="44.78719" lon="6.36357">
        <ele>2281.2</ele>
        <time>2024-08-12T06:51:00Z</time>
      </trkpt>
      <trkpt lat="44.7872" lon="6.3636">
        <ele>2281.2</ele>
        <time>2024-08-12T06:51:01Z</time>
      </trkpt>
      <trkpt lat="44.7872" lon="6.3636">
        <ele>2281.2</ele>
        <time>2024-08-12T06:51:02Z</time>
      </trkpt>
      <trkpt lat="44.78721" lon="6.36364">
        <ele>2281.2</ele>
        <time>2024-08-12T06:51:03Z</time>
      </trkpt>
      <trkpt lat="44.78721" lon="6.36364">
        <ele>2281.2</ele>
        <time>2024-08-12T06:51:04Z</time>
      </trkpt>
      <trkpt lat="44.78722" lon="6.36368">
        <ele>2281.2</ele>
        <time>2024-08-12T06:51:05Z</time>
      </trkpt>
      <trkpt lat="44.78722" lon="6.36368">
        <ele>2281.2</ele>
        <time>2024-08-12T06:51:06Z</time>
      </trkpt>
      <trkpt lat="44.78724" lon="6.36371">
        <ele>2281</ele>
        <time>2024-08-12T06:51:07Z</time>
      </trkpt>
      <trkpt lat="44.78724" lon="6.36371">
        <ele>2281</ele>
        <time>2024-08-12T06:51:08Z</time>
      </trkpt>
      <trkpt lat="44.78725" lon="6.36374">
        <ele>2281</ele>
        <time>2024-08-12T06:51:09Z</time>
      </trkpt>
      <trkpt lat="44.78725" lon="6.36374">
        <ele>2281</ele>
        <time>2024-08-12T06:51:10Z</time>
      </trkpt>
      <trkpt lat="44.78725" lon="6.36377">
        <ele>2281</ele>
        <time>2024-08-12T06:51:11Z</time>
      </trkpt>
      <trkpt lat="44.78725" lon="6.36377">
        <ele>2281.4</ele>
        <time>2024-08-12T06:51:12Z</time>
      </trkpt>
      <trkpt lat="44.78724" lon="6.36381">
        <ele>2281.4</ele>
        <time>2024-08-12T06:51:13Z</time>
      </trkpt>
      <trkpt lat="44.78724" lon="6.36381">
        <ele>2281.6</ele>
        <time>2024-08-12T06:51:14Z</time>
      </trkpt>
      <trkpt lat="44.78724" lon="6.36384">
        <ele>2282</ele>
        <time>2024-08-12T06:51:15Z</time>
      </trkpt>
      <trkpt lat="44.78724" lon="6.36384">
        <ele>2282</ele>
        <time>2024-08-12T06:51:16Z</time>
      </trkpt>
      <trkpt lat="44.78723" lon="6.36386">
        <ele>2282</ele>
        <time>2024-08-12T06:51:17Z</time>
      </trkpt>
      <trkpt lat="44.78723" lon="6.36386">
        <ele>2282</ele>
        <time>2024-08-12T06:51:18Z</time>
      </trkpt>
      <trkpt lat="44.78721" lon="6.36389">
        <ele>2282</ele>
        <time>2024-08-12T06:51:19Z</time>
      </trkpt>
      <trkpt lat="44.78721" lon="6.36389">
        <ele>2282.2</ele>
        <time>2024-08-12T06:51:20Z</time>
      </trkpt>
      <trkpt lat="44.78719" lon="6.3639">
        <ele>2282.2</ele>
        <time>2024-08-12T06:51:21Z</time>
      </trkpt>
      <trkpt lat="44.78719" lon="6.3639">
        <ele>2282.2</ele>
        <time>2024-08-12T06:51:22Z</time>
      </trkpt>
      <trkpt lat="44.78716" lon="6.36391">
        <ele>2282.6</ele>
        <time>2024-08-12T06:51:23Z</time>
      </trkpt>
      <trkpt lat="44.78716" lon="6.36391">
        <ele>2282.6</ele>
        <time>2024-08-12T06:51:24Z</time>
      </trkpt>
      <trkpt lat="44.78714" lon="6.36392">
        <ele>2282.6</ele>
        <time>2024-08-12T06:51:25Z</time>
      </trkpt>
      <trkpt lat="44.78714" lon="6.36392">
        <ele>2282.6</ele>
        <time>2024-08-12T06:51:26Z</time>
      </trkpt>
      <trkpt lat="44.78711" lon="6.36392">
        <ele>2282.8</ele>
        <time>2024-08-12T06:51:27Z</time>
      </trkpt>
      <trkpt lat="44.78711" lon="6.36392">
        <ele>2283</ele>
        <time>2024-08-12T06:51:28Z</time>
      </trkpt>
      <trkpt lat="44.78709" lon="6.36392">
        <ele>2283.2</ele>
        <time>2024-08-12T06:51:29Z</time>
      </trkpt>
      <trkpt lat="44.78709" lon="6.36392">
        <ele>2283.4</ele>
        <time>2024-08-12T06:51:30Z</time>
      </trkpt>
      <trkpt lat="44.78707" lon="6.36393">
        <ele>2283.4</ele>
        <time>2024-08-12T06:51:31Z</time>
      </trkpt>
      <trkpt lat="44.78707" lon="6.36393">
        <ele>2283.4</ele>
        <time>2024-08-12T06:51:32Z</time>
      </trkpt>
      <trkpt lat="44.78704" lon="6.36392">
        <ele>2283.4</ele>
        <time>2024-08-12T06:51:33Z</time>
      </trkpt>
      <trkpt lat="44.78704" lon="6.36392">
        <ele>2283.4</ele>
        <time>2024-08-12T06:51:34Z</time>
      </trkpt>
      <trkpt lat="44.78702" lon="6.36392">
        <ele>2283.6</ele>
        <time>2024-08-12T06:51:35Z</time>
      </trkpt>
      <trkpt lat="44.78702" lon="6.36392">
        <ele>2284</ele>
        <time>2024-08-12T06:51:36Z</time>
      </trkpt>
      <trkpt lat="44.787" lon="6.36391">
        <ele>2284.2</ele>
        <time>2024-08-12T06:51:37Z</time>
      </trkpt>
      <trkpt lat="44.787" lon="6.36391">
        <ele>2284.2</ele>
        <time>2024-08-12T06:51:38Z</time>
      </trkpt>
      <trkpt lat="44.78698" lon="6.36391">
        <ele>2284.4</ele>
        <time>2024-08-12T06:51:39Z</time>
      </trkpt>
      <trkpt lat="44.78698" lon="6.36391">
        <ele>2284.4</ele>
        <time>2024-08-12T06:51:40Z</time>
      </trkpt>
      <trkpt lat="44.78696" lon="6.3639">
        <ele>2284.6</ele>
        <time>2024-08-12T06:51:41Z</time>
      </trkpt>
      <trkpt lat="44.78696" lon="6.3639">
        <ele>2285</ele>
        <time>2024-08-12T06:51:42Z</time>
      </trkpt>
      <trkpt lat="44.78693" lon="6.3639">
        <ele>2285.2</ele>
        <time>2024-08-12T06:51:43Z</time>
      </trkpt>
      <trkpt lat="44.78693" lon="6.3639">
        <ele>2285.2</ele>
        <time>2024-08-12T06:51:44Z</time>
      </trkpt>
      <trkpt lat="44.78691" lon="6.36388">
        <ele>2285.4</ele>
        <time>2024-08-12T06:51:45Z</time>
      </trkpt>
      <trkpt lat="44.78691" lon="6.36388">
        <ele>2285.4</ele>
        <time>2024-08-12T06:51:46Z</time>
      </trkpt>
      <trkpt lat="44.78691" lon="6.36388">
        <ele>2285.6</ele>
        <time>2024-08-12T06:51:47Z</time>
      </trkpt>
      <trkpt lat="44.78689" lon="6.36387">
        <ele>2285.6</ele>
        <time>2024-08-12T06:51:48Z</time>
      </trkpt>
      <trkpt lat="44.78689" lon="6.36387">
        <ele>2286</ele>
        <time>2024-08-12T06:51:49Z</time>
      </trkpt>
      <trkpt lat="44.78686" lon="6.36388">
        <ele>2286</ele>
        <time>2024-08-12T06:51:50Z</time>
      </trkpt>
      <trkpt lat="44.78686" lon="6.36388">
        <ele>2286.2</ele>
        <time>2024-08-12T06:51:51Z</time>
      </trkpt>
      <trkpt lat="44.78686" lon="6.36388">
        <ele>2286.4</ele>
        <time>2024-08-12T06:51:52Z</time>
      </trkpt>
      <trkpt lat="44.78684" lon="6.36389">
        <ele>2286.6</ele>
        <time>2024-08-12T06:51:53Z</time>
      </trkpt>
      <trkpt lat="44.78684" lon="6.36389">
        <ele>2286.8</ele>
        <time>2024-08-12T06:51:54Z</time>
      </trkpt>
      <trkpt lat="44.78682" lon="6.3639">
        <ele>2286.8</ele>
        <time>2024-08-12T06:51:55Z</time>
      </trkpt>
      <trkpt lat="44.78682" lon="6.3639">
        <ele>2286.8</ele>
        <time>2024-08-12T06:51:56Z</time>
      </trkpt>
      <trkpt lat="44.7868" lon="6.36391">
        <ele>2287</ele>
        <time>2024-08-12T06:51:57Z</time>
      </trkpt>
      <trkpt lat="44.7868" lon="6.36391">
        <ele>2287</ele>
        <time>2024-08-12T06:51:58Z</time>
      </trkpt>
      <trkpt lat="44.7868" lon="6.36391">
        <ele>2287.4</ele>
        <time>2024-08-12T06:51:59Z</time>
      </trkpt>
      <trkpt lat="44.78677" lon="6.36392">
        <ele>2287.4</ele>
        <time>2024-08-12T06:52:00Z</time>
      </trkpt>
      <trkpt lat="44.78677" lon="6.36392">
        <ele>2287.6</ele>
        <time>2024-08-12T06:52:01Z</time>
      </trkpt>
      <trkpt lat="44.78677" lon="6.36392">
        <ele>2288</ele>
        <time>2024-08-12T06:52:02Z</time>
      </trkpt>
      <trkpt lat="44.78675" lon="6.36393">
        <ele>2288</ele>
        <time>2024-08-12T06:52:03Z</time>
      </trkpt>
      <trkpt lat="44.78675" lon="6.36393">
        <ele>2288</ele>
        <time>2024-08-12T06:52:04Z</time>
      </trkpt>
      <trkpt lat="44.78673" lon="6.36394">
        <ele>2288.2</ele>
        <time>2024-08-12T06:52:05Z</time>
      </trkpt>
      <trkpt lat="44.78673" lon="6.36394">
        <ele>2288.4</ele>
        <time>2024-08-12T06:52:06Z</time>
      </trkpt>
      <trkpt lat="44.78671" lon="6.36395">
        <ele>2288.6</ele>
        <time>2024-08-12T06:52:07Z</time>
      </trkpt>
      <trkpt lat="44.78671" lon="6.36395">
        <ele>2288.6</ele>
        <time>2024-08-12T06:52:08Z</time>
      </trkpt>
      <trkpt lat="44.78669" lon="6.36395">
        <ele>2288.6</ele>
        <time>2024-08-12T06:52:09Z</time>
      </trkpt>
      <trkpt lat="44.78669" lon="6.36395">
        <ele>2288.6</ele>
        <time>2024-08-12T06:52:10Z</time>
      </trkpt>
      <trkpt lat="44.78667" lon="6.36395">
        <ele>2288.8</ele>
        <time>2024-08-12T06:52:11Z</time>
      </trkpt>
      <trkpt lat="44.78667" lon="6.36395">
        <ele>2289</ele>
        <time>2024-08-12T06:52:12Z</time>
      </trkpt>
      <trkpt lat="44.78664" lon="6.36395">
        <ele>2289.2</ele>
        <time>2024-08-12T06:52:13Z</time>
      </trkpt>
      <trkpt lat="44.78664" lon="6.36395">
        <ele>2289.2</ele>
        <time>2024-08-12T06:52:14Z</time>
      </trkpt>
      <trkpt lat="44.78662" lon="6.36394">
        <ele>2289.4</ele>
        <time>2024-08-12T06:52:15Z</time>
      </trkpt>
      <trkpt lat="44.78662" lon="6.36394">
        <ele>2289.6</ele>
        <time>2024-08-12T06:52:16Z</time>
      </trkpt>
      <trkpt lat="44.7866" lon="6.36394">
        <ele>2289.8</ele>
        <time>2024-08-12T06:52:17Z</time>
      </trkpt>
      <trkpt lat="44.7866" lon="6.36394">
        <ele>2289.8</ele>
        <time>2024-08-12T06:52:18Z</time>
      </trkpt>
      <trkpt lat="44.78658" lon="6.36394">
        <ele>2290</ele>
        <time>2024-08-12T06:52:19Z</time>
      </trkpt>
      <trkpt lat="44.78658" lon="6.36394">
        <ele>2290</ele>
        <time>2024-08-12T06:52:20Z</time>
      </trkpt>
      <trkpt lat="44.78658" lon="6.36394">
        <ele>2290.2</ele>
        <time>2024-08-12T06:52:21Z</time>
      </trkpt>
      <trkpt lat="44.78656" lon="6.36394">
        <ele>2290.8</ele>
        <time>2024-08-12T06:52:22Z</time>
      </trkpt>
      <trkpt lat="44.78656" lon="6.36394">
        <ele>2291</ele>
        <time>2024-08-12T06:52:23Z</time>
      </trkpt>
      <trkpt lat="44.78656" lon="6.36394">
        <ele>2291</ele>
        <time>2024-08-12T06:52:24Z</time>
      </trkpt>
      <trkpt lat="44.78654" lon="6.36394">
        <ele>2291.2</ele>
        <time>2024-08-12T06:52:25Z</time>
      </trkpt>
      <trkpt lat="44.78654" lon="6.36394">
        <ele>2291.2</ele>
        <time>2024-08-12T06:52:26Z</time>
      </trkpt>
      <trkpt lat="44.78654" lon="6.36394">
        <ele>2291.2</ele>
        <time>2024-08-12T06:52:27Z</time>
      </trkpt>
      <trkpt lat="44.78654" lon="6.36394">
        <ele>2291.4</ele>
        <time>2024-08-12T06:52:28Z</time>
      </trkpt>
      <trkpt lat="44.78654" lon="6.36394">
        <ele>2291.6</ele>
        <time>2024-08-12T06:52:29Z</time>
      </trkpt>
      <trkpt lat="44.78654" lon="6.36394">
        <ele>2291.6</ele>
        <time>2024-08-12T06:52:30Z</time>
      </trkpt>
      <trkpt lat="44.78654" lon="6.36394">
        <ele>2291.2</ele>
        <time>2024-08-12T06:52:31Z</time>
      </trkpt>
      <trkpt lat="44.78654" lon="6.36394">
        <ele>2291.2</ele>
        <time>2024-08-12T06:52:32Z</time>
      </trkpt>
      <trkpt lat="44.78654" lon="6.36394">
        <ele>2291.2</ele>
        <time>2024-08-12T06:52:33Z</time>
      </trkpt>
      <trkpt lat="44.78654" lon="6.36394">
        <ele>2291</ele>
        <time>2024-08-12T06:52:34Z</time>
      </trkpt>
      <trkpt lat="44.78654" lon="6.36394">
        <ele>2291</ele>
        <time>2024-08-12T06:52:35Z</time>
      </trkpt>
      <trkpt lat="44.78654" lon="6.36394">
        <ele>2291.2</ele>
        <time>2024-08-12T06:52:36Z</time>
      </trkpt>
      <trkpt lat="44.78654" lon="6.36394">
        <ele>2291.2</ele>
        <time>2024-08-12T06:52:37Z</time>
      </trkpt>
      <trkpt lat="44.78654" lon="6.36394">
        <ele>2291</ele>
        <time>2024-08-12T06:52:38Z</time>
      </trkpt>
      <trkpt lat="44.78654" lon="6.36394">
        <ele>2291</ele>
        <time>2024-08-12T06:52:39Z</time>
      </trkpt>
      <trkpt lat="44.78654" lon="6.36394">
        <ele>2290.8</ele>
        <time>2024-08-12T06:52:40Z</time>
      </trkpt>
      <trkpt lat="44.78654" lon="6.36394">
        <ele>2290.8</ele>
        <time>2024-08-12T06:52:41Z</time>
      </trkpt>
      <trkpt lat="44.78654" lon="6.36394">
        <ele>2290.8</ele>
        <time>2024-08-12T06:52:42Z</time>
      </trkpt>
      <trkpt lat="44.78654" lon="6.36394">
        <ele>2290.6</ele>
        <time>2024-08-12T06:52:43Z</time>
      </trkpt>
      <trkpt lat="44.78654" lon="6.36394">
        <ele>2290.6</ele>
        <time>2024-08-12T06:52:44Z</time>
      </trkpt>
      <trkpt lat="44.78654" lon="6.36394">
        <ele>2290.6</ele>
        <time>2024-08-12T06:52:45Z</time>
      </trkpt>
      <trkpt lat="44.78654" lon="6.36394">
        <ele>2290.6</ele>
        <time>2024-08-12T06:52:46Z</time>
      </trkpt>
      <trkpt lat="44.78654" lon="6.36394">
        <ele>2290.4</ele>
        <time>2024-08-12T06:52:47Z</time>
      </trkpt>
      <trkpt lat="44.78654" lon="6.36394">
        <ele>2290.4</ele>
        <time>2024-08-12T06:52:48Z</time>
      </trkpt>
      <trkpt lat="44.78654" lon="6.36394">
        <ele>2290.4</ele>
        <time>2024-08-12T06:52:49Z</time>
      </trkpt>
      <trkpt lat="44.78654" lon="6.36394">
        <ele>2290.4</ele>
        <time>2024-08-12T06:52:50Z</time>
      </trkpt>
      <trkpt lat="44.78654" lon="6.36394">
        <ele>2290.4</ele>
        <time>2024-08-12T06:52:51Z</time>
      </trkpt>
      <trkpt lat="44.78654" lon="6.36394">
        <ele>2290.6</ele>
        <time>2024-08-12T06:52:52Z</time>
      </trkpt>
      <trkpt lat="44.78654" lon="6.36394">
        <ele>2290.6</ele>
        <time>2024-08-12T06:52:53Z</time>
      </trkpt>
      <trkpt lat="44.78654" lon="6.36394">
        <ele>2290.6</ele>
        <time>2024-08-12T06:52:54Z</time>
      </trkpt>
      <trkpt lat="44.78654" lon="6.36394">
        <ele>2290.6</ele>
        <time>2024-08-12T06:52:55Z</time>
      </trkpt>
      <trkpt lat="44.78654" lon="6.36394">
        <ele>2290.6</ele>
        <time>2024-08-12T06:52:56Z</time>
      </trkpt>
      <trkpt lat="44.78654" lon="6.36394">
        <ele>2290.4</ele>
        <time>2024-08-12T06:52:57Z</time>
      </trkpt>
      <trkpt lat="44.78654" lon="6.36394">
        <ele>2290.4</ele>
        <time>2024-08-12T06:52:58Z</time>
      </trkpt>
      <trkpt lat="44.78654" lon="6.36394">
        <ele>2290.6</ele>
        <time>2024-08-12T06:52:59Z</time>
      </trkpt>
      <trkpt lat="44.78654" lon="6.36394">
        <ele>2290.6</ele>
        <time>2024-08-12T06:53:00Z</time>
      </trkpt>
      <trkpt lat="44.78654" lon="6.36394">
        <ele>2290.4</ele>
        <time>2024-08-12T06:53:01Z</time>
      </trkpt>
      <trkpt lat="44.78654" lon="6.36394">
        <ele>2290.4</ele>
        <time>2024-08-12T06:53:02Z</time>
      </trkpt>
      <trkpt lat="44.78654" lon="6.36394">
        <ele>2290.4</ele>
        <time>2024-08-12T06:53:03Z</time>
      </trkpt>
      <trkpt lat="44.78654" lon="6.36394">
        <ele>2290.2</ele>
        <time>2024-08-12T06:53:04Z</time>
      </trkpt>
      <trkpt lat="44.78652" lon="6.36393">
        <ele>2290.2</ele>
        <time>2024-08-12T06:53:05Z</time>
      </trkpt>
      <trkpt lat="44.78652" lon="6.36393">
        <ele>2290.4</ele>
        <time>2024-08-12T06:53:06Z</time>
      </trkpt>
      <trkpt lat="44.7865" lon="6.36393">
        <ele>2290.4</ele>
        <time>2024-08-12T06:53:07Z</time>
      </trkpt>
      <trkpt lat="44.7865" lon="6.36393">
        <ele>2290.6</ele>
        <time>2024-08-12T06:53:08Z</time>
      </trkpt>
      <trkpt lat="44.78648" lon="6.36393">
        <ele>2290.6</ele>
        <time>2024-08-12T06:53:09Z</time>
      </trkpt>
      <trkpt lat="44.78648" lon="6.36393">
        <ele>2290.6</ele>
        <time>2024-08-12T06:53:10Z</time>
      </trkpt>
      <trkpt lat="44.78646" lon="6.36393">
        <ele>2290.8</ele>
        <time>2024-08-12T06:53:11Z</time>
      </trkpt>
      <trkpt lat="44.78646" lon="6.36393">
        <ele>2290.8</ele>
        <time>2024-08-12T06:53:12Z</time>
      </trkpt>
      <trkpt lat="44.78646" lon="6.36393">
        <ele>2291.2</ele>
        <time>2024-08-12T06:53:13Z</time>
      </trkpt>
      <trkpt lat="44.78644" lon="6.36394">
        <ele>2291.4</ele>
        <time>2024-08-12T06:53:14Z</time>
      </trkpt>
      <trkpt lat="44.78644" lon="6.36394">
        <ele>2291.4</ele>
        <time>2024-08-12T06:53:15Z</time>
      </trkpt>
      <trkpt lat="44.78644" lon="6.36394">
        <ele>2291.2</ele>
        <time>2024-08-12T06:53:16Z</time>
      </trkpt>
      <trkpt lat="44.78642" lon="6.36395">
        <ele>2291.2</ele>
        <time>2024-08-12T06:53:17Z</time>
      </trkpt>
      <trkpt lat="44.78642" lon="6.36395">
        <ele>2291.4</ele>
        <time>2024-08-12T06:53:18Z</time>
      </trkpt>
      <trkpt lat="44.78642" lon="6.36395">
        <ele>2291.4</ele>
        <time>2024-08-12T06:53:19Z</time>
      </trkpt>
      <trkpt lat="44.7864" lon="6.36395">
        <ele>2291.4</ele>
        <time>2024-08-12T06:53:20Z</time>
      </trkpt>
      <trkpt lat="44.7864" lon="6.36395">
        <ele>2291.6</ele>
        <time>2024-08-12T06:53:21Z</time>
      </trkpt>
      <trkpt lat="44.7864" lon="6.36395">
        <ele>2291.6</ele>
        <time>2024-08-12T06:53:22Z</time>
      </trkpt>
      <trkpt lat="44.78637" lon="6.36396">
        <ele>2291.8</ele>
        <time>2024-08-12T06:53:23Z</time>
      </trkpt>
      <trkpt lat="44.78637" lon="6.36396">
        <ele>2291.8</ele>
        <time>2024-08-12T06:53:24Z</time>
      </trkpt>
      <trkpt lat="44.78637" lon="6.36396">
        <ele>2292</ele>
        <time>2024-08-12T06:53:25Z</time>
      </trkpt>
      <trkpt lat="44.78636" lon="6.36398">
        <ele>2292.4</ele>
        <time>2024-08-12T06:53:26Z</time>
      </trkpt>
      <trkpt lat="44.78636" lon="6.36398">
        <ele>2292.4</ele>
        <time>2024-08-12T06:53:27Z</time>
      </trkpt>
      <trkpt lat="44.78634" lon="6.364">
        <ele>2292.4</ele>
        <time>2024-08-12T06:53:28Z</time>
      </trkpt>
      <trkpt lat="44.78634" lon="6.364">
        <ele>2292.6</ele>
        <time>2024-08-12T06:53:29Z</time>
      </trkpt>
      <trkpt lat="44.78634" lon="6.364">
        <ele>2292.6</ele>
        <time>2024-08-12T06:53:30Z</time>
      </trkpt>
      <trkpt lat="44.78632" lon="6.364">
        <ele>2292.8</ele>
        <time>2024-08-12T06:53:31Z</time>
      </trkpt>
      <trkpt lat="44.78632" lon="6.364">
        <ele>2293.2</ele>
        <time>2024-08-12T06:53:32Z</time>
      </trkpt>
      <trkpt lat="44.78632" lon="6.364">
        <ele>2293.2</ele>
        <time>2024-08-12T06:53:33Z</time>
      </trkpt>
      <trkpt lat="44.7863" lon="6.364">
        <ele>2293.2</ele>
        <time>2024-08-12T06:53:34Z</time>
      </trkpt>
      <trkpt lat="44.7863" lon="6.364">
        <ele>2293.2</ele>
        <time>2024-08-12T06:53:35Z</time>
      </trkpt>
      <trkpt lat="44.7863" lon="6.364">
        <ele>2293.8</ele>
        <time>2024-08-12T06:53:36Z</time>
      </trkpt>
      <trkpt lat="44.78628" lon="6.36399">
        <ele>2294</ele>
        <time>2024-08-12T06:53:37Z</time>
      </trkpt>
      <trkpt lat="44.78628" lon="6.36399">
        <ele>2294.2</ele>
        <time>2024-08-12T06:53:38Z</time>
      </trkpt>
      <trkpt lat="44.78628" lon="6.36399">
        <ele>2294.4</ele>
        <time>2024-08-12T06:53:39Z</time>
      </trkpt>
      <trkpt lat="44.78626" lon="6.36397">
        <ele>2294.8</ele>
        <time>2024-08-12T06:53:40Z</time>
      </trkpt>
      <trkpt lat="44.78626" lon="6.36397">
        <ele>2294.8</ele>
        <time>2024-08-12T06:53:41Z</time>
      </trkpt>
      <trkpt lat="44.78626" lon="6.36397">
        <ele>2295</ele>
        <time>2024-08-12T06:53:42Z</time>
      </trkpt>
      <trkpt lat="44.78625" lon="6.36395">
        <ele>2295.2</ele>
        <time>2024-08-12T06:53:43Z</time>
      </trkpt>
      <trkpt lat="44.78625" lon="6.36395">
        <ele>2295.4</ele>
        <time>2024-08-12T06:53:44Z</time>
      </trkpt>
      <trkpt lat="44.78625" lon="6.36395">
        <ele>2295.8</ele>
        <time>2024-08-12T06:53:45Z</time>
      </trkpt>
      <trkpt lat="44.78625" lon="6.36395">
        <ele>2296.4</ele>
        <time>2024-08-12T06:53:46Z</time>
      </trkpt>
      <trkpt lat="44.78625" lon="6.36395">
        <ele>2296.4</ele>
        <time>2024-08-12T06:53:47Z</time>
      </trkpt>
      <trkpt lat="44.78625" lon="6.36395">
        <ele>2296.4</ele>
        <time>2024-08-12T06:53:48Z</time>
      </trkpt>
      <trkpt lat="44.78625" lon="6.36395">
        <ele>2296.8</ele>
        <time>2024-08-12T06:53:49Z</time>
      </trkpt>
      <trkpt lat="44.78625" lon="6.36395">
        <ele>2297.4</ele>
        <time>2024-08-12T06:53:50Z</time>
      </trkpt>
      <trkpt lat="44.78625" lon="6.36395">
        <ele>2297.4</ele>
        <time>2024-08-12T06:53:51Z</time>
      </trkpt>
      <trkpt lat="44.78625" lon="6.36395">
        <ele>2297.4</ele>
        <time>2024-08-12T06:53:52Z</time>
      </trkpt>
      <trkpt lat="44.78625" lon="6.36395">
        <ele>2297.4</ele>
        <time>2024-08-12T06:53:53Z</time>
      </trkpt>
      <trkpt lat="44.78625" lon="6.36395">
        <ele>2297.4</ele>
        <time>2024-08-12T06:53:54Z</time>
      </trkpt>
      <trkpt lat="44.78625" lon="6.36395">
        <ele>2297.4</ele>
        <time>2024-08-12T06:53:55Z</time>
      </trkpt>
      <trkpt lat="44.78625" lon="6.36395">
        <ele>2297.4</ele>
        <time>2024-08-12T06:53:56Z</time>
      </trkpt>
      <trkpt lat="44.78625" lon="6.36395">
        <ele>2297.4</ele>
        <time>2024-08-12T06:53:57Z</time>
      </trkpt>
      <trkpt lat="44.78625" lon="6.36395">
        <ele>2297.4</ele>
        <time>2024-08-12T06:53:58Z</time>
      </trkpt>
      <trkpt lat="44.78625" lon="6.36395">
        <ele>2297.2</ele>
        <time>2024-08-12T06:53:59Z</time>
      </trkpt>
      <trkpt lat="44.78625" lon="6.36395">
        <ele>2297</ele>
        <time>2024-08-12T06:54:00Z</time>
      </trkpt>
      <trkpt lat="44.78625" lon="6.36395">
        <ele>2297</ele>
        <time>2024-08-12T06:54:01Z</time>
      </trkpt>
      <trkpt lat="44.78625" lon="6.36395">
        <ele>2297</ele>
        <time>2024-08-12T06:54:02Z</time>
      </trkpt>
      <trkpt lat="44.78625" lon="6.36395">
        <ele>2297</ele>
        <time>2024-08-12T06:54:03Z</time>
      </trkpt>
      <trkpt lat="44.78625" lon="6.36395">
        <ele>2297</ele>
        <time>2024-08-12T06:54:04Z</time>
      </trkpt>
      <trkpt lat="44.78625" lon="6.36395">
        <ele>2297.2</ele>
        <time>2024-08-12T06:54:05Z</time>
      </trkpt>
      <trkpt lat="44.78625" lon="6.36395">
        <ele>2297.2</ele>
        <time>2024-08-12T06:54:06Z</time>
      </trkpt>
      <trkpt lat="44.78625" lon="6.36395">
        <ele>2297</ele>
        <time>2024-08-12T06:54:07Z</time>
      </trkpt>
      <trkpt lat="44.78625" lon="6.36395">
        <ele>2297</ele>
        <time>2024-08-12T06:54:08Z</time>
      </trkpt>
      <trkpt lat="44.78625" lon="6.36395">
        <ele>2297</ele>
        <time>2024-08-12T06:54:09Z</time>
      </trkpt>
      <trkpt lat="44.78625" lon="6.36395">
        <ele>2297.2</ele>
        <time>2024-08-12T06:54:10Z</time>
      </trkpt>
      <trkpt lat="44.78625" lon="6.36395">
        <ele>2297.2</ele>
        <time>2024-08-12T06:54:11Z</time>
      </trkpt>
      <trkpt lat="44.78625" lon="6.36395">
        <ele>2297.2</ele>
        <time>2024-08-12T06:54:12Z</time>
      </trkpt>
      <trkpt lat="44.78625" lon="6.36395">
        <ele>2297.2</ele>
        <time>2024-08-12T06:54:13Z</time>
      </trkpt>
      <trkpt lat="44.78625" lon="6.36395">
        <ele>2297.2</ele>
        <time>2024-08-12T06:54:14Z</time>
      </trkpt>
      <trkpt lat="44.78625" lon="6.36395">
        <ele>2297</ele>
        <time>2024-08-12T06:54:15Z</time>
      </trkpt>
      <trkpt lat="44.78625" lon="6.36395">
        <ele>2296.8</ele>
        <time>2024-08-12T06:54:16Z</time>
      </trkpt>
      <trkpt lat="44.78626" lon="6.36393">
        <ele>2296.6</ele>
        <time>2024-08-12T06:54:17Z</time>
      </trkpt>
      <trkpt lat="44.78626" lon="6.36393">
        <ele>2296.4</ele>
        <time>2024-08-12T06:54:18Z</time>
      </trkpt>
      <trkpt lat="44.78629" lon="6.3639">
        <ele>2296.2</ele>
        <time>2024-08-12T06:54:19Z</time>
      </trkpt>
      <trkpt lat="44.78629" lon="6.3639">
        <ele>2296.2</ele>
        <time>2024-08-12T06:54:20Z</time>
      </trkpt>
      <trkpt lat="44.78632" lon="6.36389">
        <ele>2296</ele>
        <time>2024-08-12T06:54:21Z</time>
      </trkpt>
      <trkpt lat="44.78632" lon="6.36389">
        <ele>2296</ele>
        <time>2024-08-12T06:54:22Z</time>
      </trkpt>
      <trkpt lat="44.78634" lon="6.36388">
        <ele>2296</ele>
        <time>2024-08-12T06:54:23Z</time>
      </trkpt>
      <trkpt lat="44.78634" lon="6.36388">
        <ele>2295.6</ele>
        <time>2024-08-12T06:54:24Z</time>
      </trkpt>
      <trkpt lat="44.78636" lon="6.36387">
        <ele>2295.4</ele>
        <time>2024-08-12T06:54:25Z</time>
      </trkpt>
      <trkpt lat="44.78636" lon="6.36387">
        <ele>2295.4</ele>
        <time>2024-08-12T06:54:26Z</time>
      </trkpt>
      <trkpt lat="44.78639" lon="6.36385">
        <ele>2295.4</ele>
        <time>2024-08-12T06:54:27Z</time>
      </trkpt>
      <trkpt lat="44.78639" lon="6.36385">
        <ele>2295.2</ele>
        <time>2024-08-12T06:54:28Z</time>
      </trkpt>
      <trkpt lat="44.7864" lon="6.36383">
        <ele>2295</ele>
        <time>2024-08-12T06:54:29Z</time>
      </trkpt>
      <trkpt lat="44.7864" lon="6.36383">
        <ele>2295</ele>
        <time>2024-08-12T06:54:30Z</time>
      </trkpt>
      <trkpt lat="44.78642" lon="6.36381">
        <ele>2295</ele>
        <time>2024-08-12T06:54:31Z</time>
      </trkpt>
      <trkpt lat="44.78642" lon="6.36381">
        <ele>2295</ele>
        <time>2024-08-12T06:54:32Z</time>
      </trkpt>
      <trkpt lat="44.78643" lon="6.36378">
        <ele>2295</ele>
        <time>2024-08-12T06:54:33Z</time>
      </trkpt>
      <trkpt lat="44.78643" lon="6.36378">
        <ele>2295</ele>
        <time>2024-08-12T06:54:34Z</time>
      </trkpt>
      <trkpt lat="44.78645" lon="6.36376">
        <ele>2295</ele>
        <time>2024-08-12T06:54:35Z</time>
      </trkpt>
      <trkpt lat="44.78645" lon="6.36376">
        <ele>2295.2</ele>
        <time>2024-08-12T06:54:36Z</time>
      </trkpt>
      <trkpt lat="44.78646" lon="6.36373">
        <ele>2295.6</ele>
        <time>2024-08-12T06:54:37Z</time>
      </trkpt>
      <trkpt lat="44.78646" lon="6.36373">
        <ele>2295.6</ele>
        <time>2024-08-12T06:54:38Z</time>
      </trkpt>
      <trkpt lat="44.78647" lon="6.36371">
        <ele>2295.8</ele>
        <time>2024-08-12T06:54:39Z</time>
      </trkpt>
      <trkpt lat="44.78647" lon="6.36371">
        <ele>2295.8</ele>
        <time>2024-08-12T06:54:40Z</time>
      </trkpt>
      <trkpt lat="44.78648" lon="6.36368">
        <ele>2296</ele>
        <time>2024-08-12T06:54:41Z</time>
      </trkpt>
      <trkpt lat="44.78648" lon="6.36368">
        <ele>2296</ele>
        <time>2024-08-12T06:54:42Z</time>
      </trkpt>
      <trkpt lat="44.7865" lon="6.36366">
        <ele>2296.2</ele>
        <time>2024-08-12T06:54:43Z</time>
      </trkpt>
      <trkpt lat="44.7865" lon="6.36366">
        <ele>2296.4</ele>
        <time>2024-08-12T06:54:44Z</time>
      </trkpt>
      <trkpt lat="44.78651" lon="6.36363">
        <ele>2296.6</ele>
        <time>2024-08-12T06:54:45Z</time>
      </trkpt>
      <trkpt lat="44.78651" lon="6.36363">
        <ele>2296.6</ele>
        <time>2024-08-12T06:54:46Z</time>
      </trkpt>
      <trkpt lat="44.78652" lon="6.36361">
        <ele>2297</ele>
        <time>2024-08-12T06:54:47Z</time>
      </trkpt>
      <trkpt lat="44.78652" lon="6.36361">
        <ele>2297</ele>
        <time>2024-08-12T06:54:48Z</time>
      </trkpt>
      <trkpt lat="44.78653" lon="6.36358">
        <ele>2297</ele>
        <time>2024-08-12T06:54:49Z</time>
      </trkpt>
      <trkpt lat="44.78653" lon="6.36358">
        <ele>2297.2</ele>
        <time>2024-08-12T06:54:50Z</time>
      </trkpt>
      <trkpt lat="44.78654" lon="6.36356">
        <ele>2297.4</ele>
        <time>2024-08-12T06:54:51Z</time>
      </trkpt>
      <trkpt lat="44.78654" lon="6.36356">
        <ele>2297.6</ele>
        <time>2024-08-12T06:54:52Z</time>
      </trkpt>
      <trkpt lat="44.78656" lon="6.36354">
        <ele>2297.8</ele>
        <time>2024-08-12T06:54:53Z</time>
      </trkpt>
      <trkpt lat="44.78656" lon="6.36354">
        <ele>2298</ele>
        <time>2024-08-12T06:54:54Z</time>
      </trkpt>
      <trkpt lat="44.78657" lon="6.36352">
        <ele>2298</ele>
        <time>2024-08-12T06:54:55Z</time>
      </trkpt>
      <trkpt lat="44.78657" lon="6.36352">
        <ele>2298</ele>
        <time>2024-08-12T06:54:56Z</time>
      </trkpt>
      <trkpt lat="44.78656" lon="6.36351">
        <ele>2298</ele>
        <time>2024-08-12T06:54:57Z</time>
      </trkpt>
      <trkpt lat="44.78656" lon="6.36351">
        <ele>2298.2</ele>
        <time>2024-08-12T06:54:58Z</time>
      </trkpt>
      <trkpt lat="44.78656" lon="6.36351">
        <ele>2298.6</ele>
        <time>2024-08-12T06:54:59Z</time>
      </trkpt>
      <trkpt lat="44.78656" lon="6.36351">
        <ele>2298.6</ele>
        <time>2024-08-12T06:55:00Z</time>
      </trkpt>
      <trkpt lat="44.78656" lon="6.36351">
        <ele>2298.8</ele>
        <time>2024-08-12T06:55:01Z</time>
      </trkpt>
      <trkpt lat="44.78656" lon="6.36351">
        <ele>2298.8</ele>
        <time>2024-08-12T06:55:02Z</time>
      </trkpt>
      <trkpt lat="44.78654" lon="6.36351">
        <ele>2298.8</ele>
        <time>2024-08-12T06:55:03Z</time>
      </trkpt>
      <trkpt lat="44.78654" lon="6.36351">
        <ele>2299</ele>
        <time>2024-08-12T06:55:04Z</time>
      </trkpt>
      <trkpt lat="44.78651" lon="6.36353">
        <ele>2299</ele>
        <time>2024-08-12T06:55:05Z</time>
      </trkpt>
      <trkpt lat="44.78651" lon="6.36353">
        <ele>2299.4</ele>
        <time>2024-08-12T06:55:06Z</time>
      </trkpt>
      <trkpt lat="44.78648" lon="6.36355">
        <ele>2299.4</ele>
        <time>2024-08-12T06:55:07Z</time>
      </trkpt>
      <trkpt lat="44.78648" lon="6.36355">
        <ele>2299.6</ele>
        <time>2024-08-12T06:55:08Z</time>
      </trkpt>
      <trkpt lat="44.78645" lon="6.36356">
        <ele>2299.6</ele>
        <time>2024-08-12T06:55:09Z</time>
      </trkpt>
      <trkpt lat="44.78645" lon="6.36356">
        <ele>2299.8</ele>
        <time>2024-08-12T06:55:10Z</time>
      </trkpt>
      <trkpt lat="44.78643" lon="6.36357">
        <ele>2299.8</ele>
        <time>2024-08-12T06:55:11Z</time>
      </trkpt>
      <trkpt lat="44.78643" lon="6.36357">
        <ele>2299.8</ele>
        <time>2024-08-12T06:55:12Z</time>
      </trkpt>
      <trkpt lat="44.78643" lon="6.36357">
        <ele>2300</ele>
        <time>2024-08-12T06:55:13Z</time>
      </trkpt>
      <trkpt lat="44.7864" lon="6.36359">
        <ele>2300.2</ele>
        <time>2024-08-12T06:55:14Z</time>
      </trkpt>
      <trkpt lat="44.7864" lon="6.36359">
        <ele>2300.2</ele>
        <time>2024-08-12T06:55:15Z</time>
      </trkpt>
      <trkpt lat="44.78638" lon="6.3636">
        <ele>2300.4</ele>
        <time>2024-08-12T06:55:16Z</time>
      </trkpt>
      <trkpt lat="44.78638" lon="6.3636">
        <ele>2300.6</ele>
        <time>2024-08-12T06:55:17Z</time>
      </trkpt>
      <trkpt lat="44.78636" lon="6.36361">
        <ele>2300.8</ele>
        <time>2024-08-12T06:55:18Z</time>
      </trkpt>
      <trkpt lat="44.78636" lon="6.36361">
        <ele>2301.2</ele>
        <time>2024-08-12T06:55:19Z</time>
      </trkpt>
      <trkpt lat="44.78634" lon="6.36362">
        <ele>2301.4</ele>
        <time>2024-08-12T06:55:20Z</time>
      </trkpt>
      <trkpt lat="44.78634" lon="6.36362">
        <ele>2301.4</ele>
        <time>2024-08-12T06:55:21Z</time>
      </trkpt>
      <trkpt lat="44.78631" lon="6.36363">
        <ele>2301.4</ele>
        <time>2024-08-12T06:55:22Z</time>
      </trkpt>
      <trkpt lat="44.78631" lon="6.36363">
        <ele>2301.6</ele>
        <time>2024-08-12T06:55:23Z</time>
      </trkpt>
      <trkpt lat="44.78629" lon="6.36364">
        <ele>2301.6</ele>
        <time>2024-08-12T06:55:24Z</time>
      </trkpt>
      <trkpt lat="44.78629" lon="6.36364">
        <ele>2301.8</ele>
        <time>2024-08-12T06:55:25Z</time>
      </trkpt>
      <trkpt lat="44.78627" lon="6.36365">
        <ele>2302.2</ele>
        <time>2024-08-12T06:55:26Z</time>
      </trkpt>
      <trkpt lat="44.78627" lon="6.36365">
        <ele>2302.4</ele>
        <time>2024-08-12T06:55:27Z</time>
      </trkpt>
      <trkpt lat="44.78625" lon="6.36367">
        <ele>2302.6</ele>
        <time>2024-08-12T06:55:28Z</time>
      </trkpt>
      <trkpt lat="44.78625" lon="6.36367">
        <ele>2302.6</ele>
        <time>2024-08-12T06:55:29Z</time>
      </trkpt>
      <trkpt lat="44.78622" lon="6.36367">
        <ele>2302.8</ele>
        <time>2024-08-12T06:55:30Z</time>
      </trkpt>
      <trkpt lat="44.78622" lon="6.36367">
        <ele>2302.8</ele>
        <time>2024-08-12T06:55:31Z</time>
      </trkpt>
      <trkpt lat="44.7862" lon="6.36368">
        <ele>2302.8</ele>
        <time>2024-08-12T06:55:32Z</time>
      </trkpt>
      <trkpt lat="44.7862" lon="6.36368">
        <ele>2303.2</ele>
        <time>2024-08-12T06:55:33Z</time>
      </trkpt>
      <trkpt lat="44.78618" lon="6.36369">
        <ele>2303.2</ele>
        <time>2024-08-12T06:55:34Z</time>
      </trkpt>
      <trkpt lat="44.78618" lon="6.36369">
        <ele>2303.6</ele>
        <time>2024-08-12T06:55:35Z</time>
      </trkpt>
      <trkpt lat="44.78616" lon="6.3637">
        <ele>2303.6</ele>
        <time>2024-08-12T06:55:36Z</time>
      </trkpt>
      <trkpt lat="44.78616" lon="6.3637">
        <ele>2303.8</ele>
        <time>2024-08-12T06:55:37Z</time>
      </trkpt>
      <trkpt lat="44.78614" lon="6.36371">
        <ele>2303.8</ele>
        <time>2024-08-12T06:55:38Z</time>
      </trkpt>
      <trkpt lat="44.78614" lon="6.36371">
        <ele>2303.8</ele>
        <time>2024-08-12T06:55:39Z</time>
      </trkpt>
      <trkpt lat="44.78614" lon="6.36371">
        <ele>2303.8</ele>
        <time>2024-08-12T06:55:40Z</time>
      </trkpt>
      <trkpt lat="44.78611" lon="6.36372">
        <ele>2303.8</ele>
        <time>2024-08-12T06:55:41Z</time>
      </trkpt>
      <trkpt lat="44.78611" lon="6.36372">
        <ele>2304.4</ele>
        <time>2024-08-12T06:55:42Z</time>
      </trkpt>
      <trkpt lat="44.78611" lon="6.36372">
        <ele>2304.4</ele>
        <time>2024-08-12T06:55:43Z</time>
      </trkpt>
      <trkpt lat="44.78608" lon="6.36374">
        <ele>2304.4</ele>
        <time>2024-08-12T06:55:44Z</time>
      </trkpt>
      <trkpt lat="44.78608" lon="6.36374">
        <ele>2304.4</ele>
        <time>2024-08-12T06:55:45Z</time>
      </trkpt>
      <trkpt lat="44.78606" lon="6.36374">
        <ele>2304.4</ele>
        <time>2024-08-12T06:55:46Z</time>
      </trkpt>
      <trkpt lat="44.78606" lon="6.36374">
        <ele>2304.6</ele>
        <time>2024-08-12T06:55:47Z</time>
      </trkpt>
      <trkpt lat="44.78604" lon="6.36376">
        <ele>2305</ele>
        <time>2024-08-12T06:55:48Z</time>
      </trkpt>
      <trkpt lat="44.78604" lon="6.36376">
        <ele>2305</ele>
        <time>2024-08-12T06:55:49Z</time>
      </trkpt>
      <trkpt lat="44.78602" lon="6.36377">
        <ele>2305</ele>
        <time>2024-08-12T06:55:50Z</time>
      </trkpt>
      <trkpt lat="44.78602" lon="6.36377">
        <ele>2305</ele>
        <time>2024-08-12T06:55:51Z</time>
      </trkpt>
      <trkpt lat="44.786" lon="6.36378">
        <ele>2305.4</ele>
        <time>2024-08-12T06:55:52Z</time>
      </trkpt>
      <trkpt lat="44.786" lon="6.36378">
        <ele>2305.8</ele>
        <time>2024-08-12T06:55:53Z</time>
      </trkpt>
      <trkpt lat="44.78598" lon="6.3638">
        <ele>2305.8</ele>
        <time>2024-08-12T06:55:54Z</time>
      </trkpt>
      <trkpt lat="44.78598" lon="6.3638">
        <ele>2305.8</ele>
        <time>2024-08-12T06:55:55Z</time>
      </trkpt>
      <trkpt lat="44.78596" lon="6.36381">
        <ele>2306</ele>
        <time>2024-08-12T06:55:56Z</time>
      </trkpt>
      <trkpt lat="44.78596" lon="6.36381">
        <ele>2306</ele>
        <time>2024-08-12T06:55:57Z</time>
      </trkpt>
      <trkpt lat="44.78594" lon="6.36381">
        <ele>2306.4</ele>
        <time>2024-08-12T06:55:58Z</time>
      </trkpt>
      <trkpt lat="44.78594" lon="6.36381">
        <ele>2306.4</ele>
        <time>2024-08-12T06:55:59Z</time>
      </trkpt>
      <trkpt lat="44.78594" lon="6.36381">
        <ele>2306.4</ele>
        <time>2024-08-12T06:56:00Z</time>
      </trkpt>
      <trkpt lat="44.78591" lon="6.36381">
        <ele>2306.4</ele>
        <time>2024-08-12T06:56:01Z</time>
      </trkpt>
      <trkpt lat="44.78591" lon="6.36381">
        <ele>2306.4</ele>
        <time>2024-08-12T06:56:02Z</time>
      </trkpt>
      <trkpt lat="44.78589" lon="6.36381">
        <ele>2306.4</ele>
        <time>2024-08-12T06:56:03Z</time>
      </trkpt>
      <trkpt lat="44.78589" lon="6.36381">
        <ele>2306.8</ele>
        <time>2024-08-12T06:56:04Z</time>
      </trkpt>
      <trkpt lat="44.78589" lon="6.36381">
        <ele>2306.8</ele>
        <time>2024-08-12T06:56:05Z</time>
      </trkpt>
      <trkpt lat="44.78587" lon="6.3638">
        <ele>2306.8</ele>
        <time>2024-08-12T06:56:06Z</time>
      </trkpt>
      <trkpt lat="44.78587" lon="6.3638">
        <ele>2307</ele>
        <time>2024-08-12T06:56:07Z</time>
      </trkpt>
      <trkpt lat="44.78587" lon="6.3638">
        <ele>2307.2</ele>
        <time>2024-08-12T06:56:08Z</time>
      </trkpt>
      <trkpt lat="44.78585" lon="6.36379">
        <ele>2307.2</ele>
        <time>2024-08-12T06:56:09Z</time>
      </trkpt>
      <trkpt lat="44.78585" lon="6.36379">
        <ele>2307.2</ele>
        <time>2024-08-12T06:56:10Z</time>
      </trkpt>
      <trkpt lat="44.78583" lon="6.36378">
        <ele>2307.6</ele>
        <time>2024-08-12T06:56:11Z</time>
      </trkpt>
      <trkpt lat="44.78583" lon="6.36378">
        <ele>2307.6</ele>
        <time>2024-08-12T06:56:12Z</time>
      </trkpt>
      <trkpt lat="44.78581" lon="6.36378">
        <ele>2307.6</ele>
        <time>2024-08-12T06:56:13Z</time>
      </trkpt>
      <trkpt lat="44.78581" lon="6.36378">
        <ele>2308</ele>
        <time>2024-08-12T06:56:14Z</time>
      </trkpt>
      <trkpt lat="44.78579" lon="6.36377">
        <ele>2308.2</ele>
        <time>2024-08-12T06:56:15Z</time>
      </trkpt>
      <trkpt lat="44.78579" lon="6.36377">
        <ele>2308.2</ele>
        <time>2024-08-12T06:56:16Z</time>
      </trkpt>
      <trkpt lat="44.78577" lon="6.36376">
        <ele>2308.2</ele>
        <time>2024-08-12T06:56:17Z</time>
      </trkpt>
      <trkpt lat="44.78577" lon="6.36376">
        <ele>2308.2</ele>
        <time>2024-08-12T06:56:18Z</time>
      </trkpt>
      <trkpt lat="44.78577" lon="6.36376">
        <ele>2308.6</ele>
        <time>2024-08-12T06:56:19Z</time>
      </trkpt>
      <trkpt lat="44.78574" lon="6.36374">
        <ele>2308.6</ele>
        <time>2024-08-12T06:56:20Z</time>
      </trkpt>
      <trkpt lat="44.78574" lon="6.36374">
        <ele>2309</ele>
        <time>2024-08-12T06:56:21Z</time>
      </trkpt>
      <trkpt lat="44.78573" lon="6.36373">
        <ele>2309.4</ele>
        <time>2024-08-12T06:56:22Z</time>
      </trkpt>
      <trkpt lat="44.78573" lon="6.36373">
        <ele>2309.4</ele>
        <time>2024-08-12T06:56:23Z</time>
      </trkpt>
      <trkpt lat="44.78573" lon="6.36373">
        <ele>2309.6</ele>
        <time>2024-08-12T06:56:24Z</time>
      </trkpt>
      <trkpt lat="44.78572" lon="6.3637">
        <ele>2309.6</ele>
        <time>2024-08-12T06:56:25Z</time>
      </trkpt>
      <trkpt lat="44.78572" lon="6.3637">
        <ele>2309.6</ele>
        <time>2024-08-12T06:56:26Z</time>
      </trkpt>
      <trkpt lat="44.78572" lon="6.3637">
        <ele>2310</ele>
        <time>2024-08-12T06:56:27Z</time>
      </trkpt>
      <trkpt lat="44.78572" lon="6.3637">
        <ele>2310.2</ele>
        <time>2024-08-12T06:56:28Z</time>
      </trkpt>
      <trkpt lat="44.78572" lon="6.3637">
        <ele>2310.6</ele>
        <time>2024-08-12T06:56:29Z</time>
      </trkpt>
      <trkpt lat="44.78573" lon="6.36367">
        <ele>2310.8</ele>
        <time>2024-08-12T06:56:30Z</time>
      </trkpt>
      <trkpt lat="44.78573" lon="6.36367">
        <ele>2310.8</ele>
        <time>2024-08-12T06:56:31Z</time>
      </trkpt>
      <trkpt lat="44.78573" lon="6.36367">
        <ele>2311</ele>
        <time>2024-08-12T06:56:32Z</time>
      </trkpt>
      <trkpt lat="44.78572" lon="6.36365">
        <ele>2311.4</ele>
        <time>2024-08-12T06:56:33Z</time>
      </trkpt>
      <trkpt lat="44.78572" lon="6.36365">
        <ele>2311.4</ele>
        <time>2024-08-12T06:56:34Z</time>
      </trkpt>
      <trkpt lat="44.78572" lon="6.36365">
        <ele>2311.6</ele>
        <time>2024-08-12T06:56:35Z</time>
      </trkpt>
      <trkpt lat="44.78572" lon="6.36365">
        <ele>2311.6</ele>
        <time>2024-08-12T06:56:36Z</time>
      </trkpt>
      <trkpt lat="44.78572" lon="6.36365">
        <ele>2312.2</ele>
        <time>2024-08-12T06:56:37Z</time>
      </trkpt>
      <trkpt lat="44.78572" lon="6.36365">
        <ele>2312.2</ele>
        <time>2024-08-12T06:56:38Z</time>
      </trkpt>
      <trkpt lat="44.78572" lon="6.36365">
        <ele>2312.2</ele>
        <time>2024-08-12T06:56:39Z</time>
      </trkpt>
      <trkpt lat="44.78572" lon="6.36365">
        <ele>2312.2</ele>
        <time>2024-08-12T06:56:40Z</time>
      </trkpt>
      <trkpt lat="44.78572" lon="6.36365">
        <ele>2312</ele>
        <time>2024-08-12T06:56:41Z</time>
      </trkpt>
      <trkpt lat="44.78572" lon="6.36365">
        <ele>2312</ele>
        <time>2024-08-12T06:56:42Z</time>
      </trkpt>
      <trkpt lat="44.78572" lon="6.36365">
        <ele>2312</ele>
        <time>2024-08-12T06:56:43Z</time>
      </trkpt>
      <trkpt lat="44.78572" lon="6.36365">
        <ele>2312.2</ele>
        <time>2024-08-12T06:56:44Z</time>
      </trkpt>
      <trkpt lat="44.7857" lon="6.36364">
        <ele>2312.4</ele>
        <time>2024-08-12T06:56:45Z</time>
      </trkpt>
      <trkpt lat="44.7857" lon="6.36364">
        <ele>2312.6</ele>
        <time>2024-08-12T06:56:46Z</time>
      </trkpt>
      <trkpt lat="44.7857" lon="6.36364">
        <ele>2312.8</ele>
        <time>2024-08-12T06:56:47Z</time>
      </trkpt>
      <trkpt lat="44.78568" lon="6.36363">
        <ele>2312.8</ele>
        <time>2024-08-12T06:56:48Z</time>
      </trkpt>
      <trkpt lat="44.78568" lon="6.36363">
        <ele>2313.2</ele>
        <time>2024-08-12T06:56:49Z</time>
      </trkpt>
      <trkpt lat="44.78565" lon="6.3636">
        <ele>2313.4</ele>
        <time>2024-08-12T06:56:50Z</time>
      </trkpt>
      <trkpt lat="44.78563" lon="6.36359">
        <ele>2313.8</ele>
        <time>2024-08-12T06:56:51Z</time>
      </trkpt>
      <trkpt lat="44.78563" lon="6.36359">
        <ele>2314</ele>
        <time>2024-08-12T06:56:52Z</time>
      </trkpt>
      <trkpt lat="44.78561" lon="6.36357">
        <ele>2314.2</ele>
        <time>2024-08-12T06:56:53Z</time>
      </trkpt>
      <trkpt lat="44.78561" lon="6.36357">
        <ele>2314.4</ele>
        <time>2024-08-12T06:56:54Z</time>
      </trkpt>
      <trkpt lat="44.78561" lon="6.36357">
        <ele>2314.8</ele>
        <time>2024-08-12T06:56:55Z</time>
      </trkpt>
      <trkpt lat="44.78559" lon="6.36355">
        <ele>2314.8</ele>
        <time>2024-08-12T06:56:56Z</time>
      </trkpt>
      <trkpt lat="44.78559" lon="6.36355">
        <ele>2315</ele>
        <time>2024-08-12T06:56:57Z</time>
      </trkpt>
      <trkpt lat="44.78559" lon="6.36355">
        <ele>2315</ele>
        <time>2024-08-12T06:56:58Z</time>
      </trkpt>
      <trkpt lat="44.78557" lon="6.36353">
        <ele>2315.6</ele>
        <time>2024-08-12T06:56:59Z</time>
      </trkpt>
      <trkpt lat="44.78557" lon="6.36353">
        <ele>2315.6</ele>
        <time>2024-08-12T06:57:00Z</time>
      </trkpt>
      <trkpt lat="44.78557" lon="6.36353">
        <ele>2315.8</ele>
        <time>2024-08-12T06:57:01Z</time>
      </trkpt>
      <trkpt lat="44.78557" lon="6.36349">
        <ele>2316.2</ele>
        <time>2024-08-12T06:57:02Z</time>
      </trkpt>
      <trkpt lat="44.78557" lon="6.36349">
        <ele>2316.2</ele>
        <time>2024-08-12T06:57:03Z</time>
      </trkpt>
      <trkpt lat="44.78558" lon="6.36347">
        <ele>2316.4</ele>
        <time>2024-08-12T06:57:04Z</time>
      </trkpt>
      <trkpt lat="44.78558" lon="6.36347">
        <ele>2316.6</ele>
        <time>2024-08-12T06:57:05Z</time>
      </trkpt>
      <trkpt lat="44.78559" lon="6.36344">
        <ele>2316.6</ele>
        <time>2024-08-12T06:57:06Z</time>
      </trkpt>
      <trkpt lat="44.78559" lon="6.36344">
        <ele>2316.8</ele>
        <time>2024-08-12T06:57:07Z</time>
      </trkpt>
      <trkpt lat="44.7856" lon="6.36342">
        <ele>2316.8</ele>
        <time>2024-08-12T06:57:08Z</time>
      </trkpt>
      <trkpt lat="44.7856" lon="6.36342">
        <ele>2317</ele>
        <time>2024-08-12T06:57:09Z</time>
      </trkpt>
      <trkpt lat="44.78561" lon="6.3634">
        <ele>2317.2</ele>
        <time>2024-08-12T06:57:10Z</time>
      </trkpt>
      <trkpt lat="44.78561" lon="6.3634">
        <ele>2317.6</ele>
        <time>2024-08-12T06:57:11Z</time>
      </trkpt>
      <trkpt lat="44.78562" lon="6.36337">
        <ele>2318.2</ele>
        <time>2024-08-12T06:57:12Z</time>
      </trkpt>
      <trkpt lat="44.78562" lon="6.36337">
        <ele>2318.2</ele>
        <time>2024-08-12T06:57:13Z</time>
      </trkpt>
      <trkpt lat="44.78562" lon="6.36337">
        <ele>2318.2</ele>
        <time>2024-08-12T06:57:14Z</time>
      </trkpt>
      <trkpt lat="44.78561" lon="6.36334">
        <ele>2318.2</ele>
        <time>2024-08-12T06:57:15Z</time>
      </trkpt>
      <trkpt lat="44.78561" lon="6.36334">
        <ele>2318.2</ele>
        <time>2024-08-12T06:57:16Z</time>
      </trkpt>
      <trkpt lat="44.78559" lon="6.36332">
        <ele>2318.4</ele>
        <time>2024-08-12T06:57:17Z</time>
      </trkpt>
      <trkpt lat="44.78559" lon="6.36332">
        <ele>2318.4</ele>
        <time>2024-08-12T06:57:18Z</time>
      </trkpt>
      <trkpt lat="44.78559" lon="6.36332">
        <ele>2318.4</ele>
        <time>2024-08-12T06:57:19Z</time>
      </trkpt>
      <trkpt lat="44.78558" lon="6.36329">
        <ele>2318.4</ele>
        <time>2024-08-12T06:57:20Z</time>
      </trkpt>
      <trkpt lat="44.78558" lon="6.36329">
        <ele>2318.8</ele>
        <time>2024-08-12T06:57:21Z</time>
      </trkpt>
      <trkpt lat="44.78558" lon="6.36329">
        <ele>2318.8</ele>
        <time>2024-08-12T06:57:22Z</time>
      </trkpt>
      <trkpt lat="44.78558" lon="6.36329">
        <ele>2318.8</ele>
        <time>2024-08-12T06:57:23Z</time>
      </trkpt>
      <trkpt lat="44.78557" lon="6.36331">
        <ele>2319</ele>
        <time>2024-08-12T06:57:24Z</time>
      </trkpt>
      <trkpt lat="44.78557" lon="6.36331">
        <ele>2319.4</ele>
        <time>2024-08-12T06:57:25Z</time>
      </trkpt>
      <trkpt lat="44.78556" lon="6.36332">
        <ele>2319.8</ele>
        <time>2024-08-12T06:57:26Z</time>
      </trkpt>
      <trkpt lat="44.78556" lon="6.36332">
        <ele>2320</ele>
        <time>2024-08-12T06:57:27Z</time>
      </trkpt>
      <trkpt lat="44.78556" lon="6.36332">
        <ele>2320</ele>
        <time>2024-08-12T06:57:28Z</time>
      </trkpt>
      <trkpt lat="44.78556" lon="6.36332">
        <ele>2320</ele>
        <time>2024-08-12T06:57:29Z</time>
      </trkpt>
      <trkpt lat="44.78553" lon="6.36333">
        <ele>2320.2</ele>
        <time>2024-08-12T06:57:30Z</time>
      </trkpt>
      <trkpt lat="44.78553" lon="6.36333">
        <ele>2320.2</ele>
        <time>2024-08-12T06:57:31Z</time>
      </trkpt>
      <trkpt lat="44.78553" lon="6.36333">
        <ele>2320.4</ele>
        <time>2024-08-12T06:57:32Z</time>
      </trkpt>
      <trkpt lat="44.78551" lon="6.36334">
        <ele>2320.6</ele>
        <time>2024-08-12T06:57:33Z</time>
      </trkpt>
      <trkpt lat="44.78551" lon="6.36334">
        <ele>2321.2</ele>
        <time>2024-08-12T06:57:34Z</time>
      </trkpt>
      <trkpt lat="44.78549" lon="6.36334">
        <ele>2321.2</ele>
        <time>2024-08-12T06:57:35Z</time>
      </trkpt>
      <trkpt lat="44.78549" lon="6.36334">
        <ele>2321.2</ele>
        <time>2024-08-12T06:57:36Z</time>
      </trkpt>
      <trkpt lat="44.78546" lon="6.36334">
        <ele>2321.2</ele>
        <time>2024-08-12T06:57:37Z</time>
      </trkpt>
      <trkpt lat="44.78546" lon="6.36334">
        <ele>2321.4</ele>
        <time>2024-08-12T06:57:38Z</time>
      </trkpt>
      <trkpt lat="44.78544" lon="6.36334">
        <ele>2321.6</ele>
        <time>2024-08-12T06:57:39Z</time>
      </trkpt>
      <trkpt lat="44.78544" lon="6.36334">
        <ele>2321.6</ele>
        <time>2024-08-12T06:57:40Z</time>
      </trkpt>
      <trkpt lat="44.78544" lon="6.36334">
        <ele>2321.8</ele>
        <time>2024-08-12T06:57:41Z</time>
      </trkpt>
      <trkpt lat="44.78542" lon="6.36335">
        <ele>2322</ele>
        <time>2024-08-12T06:57:42Z</time>
      </trkpt>
      <trkpt lat="44.78542" lon="6.36335">
        <ele>2322</ele>
        <time>2024-08-12T06:57:43Z</time>
      </trkpt>
      <trkpt lat="44.78542" lon="6.36335">
        <ele>2322</ele>
        <time>2024-08-12T06:57:44Z</time>
      </trkpt>
      <trkpt lat="44.78541" lon="6.36338">
        <ele>2322</ele>
        <time>2024-08-12T06:57:45Z</time>
      </trkpt>
      <trkpt lat="44.78541" lon="6.36338">
        <ele>2322.2</ele>
        <time>2024-08-12T06:57:46Z</time>
      </trkpt>
      <trkpt lat="44.7854" lon="6.36339">
        <ele>2322.2</ele>
        <time>2024-08-12T06:57:47Z</time>
      </trkpt>
      <trkpt lat="44.7854" lon="6.36339">
        <ele>2322.4</ele>
        <time>2024-08-12T06:57:48Z</time>
      </trkpt>
      <trkpt lat="44.78538" lon="6.36341">
        <ele>2322.6</ele>
        <time>2024-08-12T06:57:49Z</time>
      </trkpt>
      <trkpt lat="44.78538" lon="6.36341">
        <ele>2322.8</ele>
        <time>2024-08-12T06:57:50Z</time>
      </trkpt>
      <trkpt lat="44.78535" lon="6.36341">
        <ele>2323.2</ele>
        <time>2024-08-12T06:57:51Z</time>
      </trkpt>
      <trkpt lat="44.78535" lon="6.36341">
        <ele>2323.2</ele>
        <time>2024-08-12T06:57:52Z</time>
      </trkpt>
      <trkpt lat="44.78533" lon="6.36342">
        <ele>2323.4</ele>
        <time>2024-08-12T06:57:53Z</time>
      </trkpt>
      <trkpt lat="44.78533" lon="6.36342">
        <ele>2323.4</ele>
        <time>2024-08-12T06:57:54Z</time>
      </trkpt>
      <trkpt lat="44.78531" lon="6.36342">
        <ele>2323.6</ele>
        <time>2024-08-12T06:57:55Z</time>
      </trkpt>
      <trkpt lat="44.78531" lon="6.36342">
        <ele>2323.8</ele>
        <time>2024-08-12T06:57:56Z</time>
      </trkpt>
      <trkpt lat="44.7853" lon="6.3634">
        <ele>2324</ele>
        <time>2024-08-12T06:57:57Z</time>
      </trkpt>
      <trkpt lat="44.7853" lon="6.3634">
        <ele>2324.2</ele>
        <time>2024-08-12T06:57:58Z</time>
      </trkpt>
      <trkpt lat="44.7853" lon="6.36338">
        <ele>2324.4</ele>
        <time>2024-08-12T06:57:59Z</time>
      </trkpt>
      <trkpt lat="44.7853" lon="6.36338">
        <ele>2324.6</ele>
        <time>2024-08-12T06:58:00Z</time>
      </trkpt>
      <trkpt lat="44.7853" lon="6.36338">
        <ele>2324.6</ele>
        <time>2024-08-12T06:58:01Z</time>
      </trkpt>
      <trkpt lat="44.78531" lon="6.36334">
        <ele>2325</ele>
        <time>2024-08-12T06:58:02Z</time>
      </trkpt>
      <trkpt lat="44.78531" lon="6.36334">
        <ele>2325</ele>
        <time>2024-08-12T06:58:03Z</time>
      </trkpt>
      <trkpt lat="44.78531" lon="6.36334">
        <ele>2325</ele>
        <time>2024-08-12T06:58:04Z</time>
      </trkpt>
      <trkpt lat="44.78532" lon="6.36331">
        <ele>2325.2</ele>
        <time>2024-08-12T06:58:05Z</time>
      </trkpt>
      <trkpt lat="44.78532" lon="6.36331">
        <ele>2325.4</ele>
        <time>2024-08-12T06:58:06Z</time>
      </trkpt>
      <trkpt lat="44.78533" lon="6.36327">
        <ele>2325.4</ele>
        <time>2024-08-12T06:58:07Z</time>
      </trkpt>
      <trkpt lat="44.78533" lon="6.36327">
        <ele>2325.4</ele>
        <time>2024-08-12T06:58:08Z</time>
      </trkpt>
      <trkpt lat="44.78533" lon="6.36325">
        <ele>2325.6</ele>
        <time>2024-08-12T06:58:09Z</time>
      </trkpt>
      <trkpt lat="44.78533" lon="6.36325">
        <ele>2325.6</ele>
        <time>2024-08-12T06:58:10Z</time>
      </trkpt>
      <trkpt lat="44.78533" lon="6.36325">
        <ele>2325.8</ele>
        <time>2024-08-12T06:58:11Z</time>
      </trkpt>
      <trkpt lat="44.78535" lon="6.36323">
        <ele>2325.8</ele>
        <time>2024-08-12T06:58:12Z</time>
      </trkpt>
      <trkpt lat="44.78535" lon="6.36323">
        <ele>2326</ele>
        <time>2024-08-12T06:58:13Z</time>
      </trkpt>
      <trkpt lat="44.78537" lon="6.36321">
        <ele>2326</ele>
        <time>2024-08-12T06:58:14Z</time>
      </trkpt>
      <trkpt lat="44.78537" lon="6.36321">
        <ele>2327</ele>
        <time>2024-08-12T06:58:15Z</time>
      </trkpt>
      <trkpt lat="44.78539" lon="6.36319">
        <ele>2327</ele>
        <time>2024-08-12T06:58:16Z</time>
      </trkpt>
      <trkpt lat="44.78539" lon="6.36319">
        <ele>2327.2</ele>
        <time>2024-08-12T06:58:17Z</time>
      </trkpt>
      <trkpt lat="44.7854" lon="6.36317">
        <ele>2327.4</ele>
        <time>2024-08-12T06:58:18Z</time>
      </trkpt>
      <trkpt lat="44.7854" lon="6.36317">
        <ele>2327.4</ele>
        <time>2024-08-12T06:58:19Z</time>
      </trkpt>
      <trkpt lat="44.7854" lon="6.36317">
        <ele>2327.4</ele>
        <time>2024-08-12T06:58:20Z</time>
      </trkpt>
      <trkpt lat="44.78542" lon="6.36314">
        <ele>2327.4</ele>
        <time>2024-08-12T06:58:21Z</time>
      </trkpt>
      <trkpt lat="44.78542" lon="6.36314">
        <ele>2327.4</ele>
        <time>2024-08-12T06:58:22Z</time>
      </trkpt>
      <trkpt lat="44.78544" lon="6.36312">
        <ele>2327.4</ele>
        <time>2024-08-12T06:58:23Z</time>
      </trkpt>
      <trkpt lat="44.78544" lon="6.36312">
        <ele>2327.4</ele>
        <time>2024-08-12T06:58:24Z</time>
      </trkpt>
      <trkpt lat="44.78545" lon="6.36309">
        <ele>2327.6</ele>
        <time>2024-08-12T06:58:25Z</time>
      </trkpt>
      <trkpt lat="44.78545" lon="6.36309">
        <ele>2327.6</ele>
        <time>2024-08-12T06:58:26Z</time>
      </trkpt>
      <trkpt lat="44.78546" lon="6.36306">
        <ele>2327.8</ele>
        <time>2024-08-12T06:58:27Z</time>
      </trkpt>
      <trkpt lat="44.78546" lon="6.36306">
        <ele>2327.8</ele>
        <time>2024-08-12T06:58:28Z</time>
      </trkpt>
      <trkpt lat="44.78546" lon="6.36306">
        <ele>2327.8</ele>
        <time>2024-08-12T06:58:29Z</time>
      </trkpt>
      <trkpt lat="44.78547" lon="6.36303">
        <ele>2327.8</ele>
        <time>2024-08-12T06:58:30Z</time>
      </trkpt>
      <trkpt lat="44.78547" lon="6.36303">
        <ele>2328</ele>
        <time>2024-08-12T06:58:31Z</time>
      </trkpt>
      <trkpt lat="44.78549" lon="6.36301">
        <ele>2328.2</ele>
        <time>2024-08-12T06:58:32Z</time>
      </trkpt>
      <trkpt lat="44.78549" lon="6.36301">
        <ele>2328.4</ele>
        <time>2024-08-12T06:58:33Z</time>
      </trkpt>
      <trkpt lat="44.78549" lon="6.36298">
        <ele>2328.6</ele>
        <time>2024-08-12T06:58:34Z</time>
      </trkpt>
      <trkpt lat="44.78549" lon="6.36298">
        <ele>2328.6</ele>
        <time>2024-08-12T06:58:35Z</time>
      </trkpt>
      <trkpt lat="44.78549" lon="6.36298">
        <ele>2328.6</ele>
        <time>2024-08-12T06:58:36Z</time>
      </trkpt>
      <trkpt lat="44.78549" lon="6.36298">
        <ele>2328.8</ele>
        <time>2024-08-12T06:58:37Z</time>
      </trkpt>
      <trkpt lat="44.78549" lon="6.36298">
        <ele>2329.2</ele>
        <time>2024-08-12T06:58:38Z</time>
      </trkpt>
      <trkpt lat="44.78549" lon="6.36298">
        <ele>2329.6</ele>
        <time>2024-08-12T06:58:39Z</time>
      </trkpt>
      <trkpt lat="44.78549" lon="6.36298">
        <ele>2329.6</ele>
        <time>2024-08-12T06:58:40Z</time>
      </trkpt>
      <trkpt lat="44.78548" lon="6.36296">
        <ele>2330</ele>
        <time>2024-08-12T06:58:41Z</time>
      </trkpt>
      <trkpt lat="44.78548" lon="6.36296">
        <ele>2330</ele>
        <time>2024-08-12T06:58:42Z</time>
      </trkpt>
      <trkpt lat="44.78548" lon="6.36296">
        <ele>2329.8</ele>
        <time>2024-08-12T06:58:43Z</time>
      </trkpt>
      <trkpt lat="44.78545" lon="6.36296">
        <ele>2329.8</ele>
        <time>2024-08-12T06:58:44Z</time>
      </trkpt>
      <trkpt lat="44.78545" lon="6.36296">
        <ele>2330.2</ele>
        <time>2024-08-12T06:58:45Z</time>
      </trkpt>
      <trkpt lat="44.78543" lon="6.36296">
        <ele>2330.4</ele>
        <time>2024-08-12T06:58:46Z</time>
      </trkpt>
      <trkpt lat="44.78543" lon="6.36296">
        <ele>2330.4</ele>
        <time>2024-08-12T06:58:47Z</time>
      </trkpt>
      <trkpt lat="44.78541" lon="6.36296">
        <ele>2330.8</ele>
        <time>2024-08-12T06:58:48Z</time>
      </trkpt>
      <trkpt lat="44.78541" lon="6.36296">
        <ele>2331</ele>
        <time>2024-08-12T06:58:49Z</time>
      </trkpt>
      <trkpt lat="44.78538" lon="6.36297">
        <ele>2331.2</ele>
        <time>2024-08-12T06:58:50Z</time>
      </trkpt>
      <trkpt lat="44.78538" lon="6.36297">
        <ele>2331.2</ele>
        <time>2024-08-12T06:58:51Z</time>
      </trkpt>
      <trkpt lat="44.78537" lon="6.36298">
        <ele>2331.2</ele>
        <time>2024-08-12T06:58:52Z</time>
      </trkpt>
      <trkpt lat="44.78537" lon="6.36298">
        <ele>2331.4</ele>
        <time>2024-08-12T06:58:53Z</time>
      </trkpt>
      <trkpt lat="44.78534" lon="6.363">
        <ele>2331.6</ele>
        <time>2024-08-12T06:58:54Z</time>
      </trkpt>
      <trkpt lat="44.78534" lon="6.363">
        <ele>2331.6</ele>
        <time>2024-08-12T06:58:55Z</time>
      </trkpt>
      <trkpt lat="44.78534" lon="6.363">
        <ele>2332</ele>
        <time>2024-08-12T06:58:56Z</time>
      </trkpt>
      <trkpt lat="44.78532" lon="6.36301">
        <ele>2332.2</ele>
        <time>2024-08-12T06:58:57Z</time>
      </trkpt>
      <trkpt lat="44.78532" lon="6.36301">
        <ele>2332.2</ele>
        <time>2024-08-12T06:58:58Z</time>
      </trkpt>
      <trkpt lat="44.78532" lon="6.36301">
        <ele>2332.4</ele>
        <time>2024-08-12T06:58:59Z</time>
      </trkpt>
      <trkpt lat="44.78529" lon="6.36302">
        <ele>2332.6</ele>
        <time>2024-08-12T06:59:00Z</time>
      </trkpt>
      <trkpt lat="44.78529" lon="6.36302">
        <ele>2332.8</ele>
        <time>2024-08-12T06:59:01Z</time>
      </trkpt>
      <trkpt lat="44.78527" lon="6.36302">
        <ele>2332.8</ele>
        <time>2024-08-12T06:59:02Z</time>
      </trkpt>
      <trkpt lat="44.78527" lon="6.36302">
        <ele>2332.8</ele>
        <time>2024-08-12T06:59:03Z</time>
      </trkpt>
      <trkpt lat="44.78525" lon="6.36303">
        <ele>2332.8</ele>
        <time>2024-08-12T06:59:04Z</time>
      </trkpt>
      <trkpt lat="44.78525" lon="6.36303">
        <ele>2333</ele>
        <time>2024-08-12T06:59:05Z</time>
      </trkpt>
      <trkpt lat="44.78525" lon="6.36303">
        <ele>2333</ele>
        <time>2024-08-12T06:59:06Z</time>
      </trkpt>
      <trkpt lat="44.78523" lon="6.36304">
        <ele>2333.4</ele>
        <time>2024-08-12T06:59:07Z</time>
      </trkpt>
      <trkpt lat="44.78523" lon="6.36304">
        <ele>2333.4</ele>
        <time>2024-08-12T06:59:08Z</time>
      </trkpt>
      <trkpt lat="44.78523" lon="6.36304">
        <ele>2333.6</ele>
        <time>2024-08-12T06:59:09Z</time>
      </trkpt>
      <trkpt lat="44.78521" lon="6.36303">
        <ele>2333.6</ele>
        <time>2024-08-12T06:59:10Z</time>
      </trkpt>
      <trkpt lat="44.78521" lon="6.36303">
        <ele>2333.8</ele>
        <time>2024-08-12T06:59:11Z</time>
      </trkpt>
      <trkpt lat="44.78521" lon="6.36303">
        <ele>2333.8</ele>
        <time>2024-08-12T06:59:12Z</time>
      </trkpt>
      <trkpt lat="44.78521" lon="6.36303">
        <ele>2334</ele>
        <time>2024-08-12T06:59:13Z</time>
      </trkpt>
      <trkpt lat="44.78518" lon="6.36304">
        <ele>2334.4</ele>
        <time>2024-08-12T06:59:14Z</time>
      </trkpt>
      <trkpt lat="44.78518" lon="6.36304">
        <ele>2334.4</ele>
        <time>2024-08-12T06:59:15Z</time>
      </trkpt>
      <trkpt lat="44.78518" lon="6.36304">
        <ele>2334.6</ele>
        <time>2024-08-12T06:59:16Z</time>
      </trkpt>
      <trkpt lat="44.78516" lon="6.36305">
        <ele>2334.6</ele>
        <time>2024-08-12T06:59:17Z</time>
      </trkpt>
      <trkpt lat="44.78516" lon="6.36305">
        <ele>2334.6</ele>
        <time>2024-08-12T06:59:18Z</time>
      </trkpt>
      <trkpt lat="44.78516" lon="6.36305">
        <ele>2334.8</ele>
        <time>2024-08-12T06:59:19Z</time>
      </trkpt>
      <trkpt lat="44.78513" lon="6.36305">
        <ele>2335</ele>
        <time>2024-08-12T06:59:20Z</time>
      </trkpt>
      <trkpt lat="44.78513" lon="6.36305">
        <ele>2335</ele>
        <time>2024-08-12T06:59:21Z</time>
      </trkpt>
      <trkpt lat="44.78511" lon="6.36306">
        <ele>2335.2</ele>
        <time>2024-08-12T06:59:22Z</time>
      </trkpt>
      <trkpt lat="44.78511" lon="6.36306">
        <ele>2335.6</ele>
        <time>2024-08-12T06:59:23Z</time>
      </trkpt>
      <trkpt lat="44.78511" lon="6.36306">
        <ele>2335.8</ele>
        <time>2024-08-12T06:59:24Z</time>
      </trkpt>
      <trkpt lat="44.78509" lon="6.36306">
        <ele>2336</ele>
        <time>2024-08-12T06:59:25Z</time>
      </trkpt>
      <trkpt lat="44.78509" lon="6.36306">
        <ele>2336.2</ele>
        <time>2024-08-12T06:59:26Z</time>
      </trkpt>
      <trkpt lat="44.78507" lon="6.36308">
        <ele>2336.2</ele>
        <time>2024-08-12T06:59:27Z</time>
      </trkpt>
      <trkpt lat="44.78507" lon="6.36308">
        <ele>2336.2</ele>
        <time>2024-08-12T06:59:28Z</time>
      </trkpt>
      <trkpt lat="44.78505" lon="6.36308">
        <ele>2336.4</ele>
        <time>2024-08-12T06:59:29Z</time>
      </trkpt>
      <trkpt lat="44.78505" lon="6.36308">
        <ele>2336.4</ele>
        <time>2024-08-12T06:59:30Z</time>
      </trkpt>
      <trkpt lat="44.78503" lon="6.36309">
        <ele>2336.6</ele>
        <time>2024-08-12T06:59:31Z</time>
      </trkpt>
      <trkpt lat="44.78503" lon="6.36309">
        <ele>2337</ele>
        <time>2024-08-12T06:59:32Z</time>
      </trkpt>
      <trkpt lat="44.78503" lon="6.36309">
        <ele>2337.2</ele>
        <time>2024-08-12T06:59:33Z</time>
      </trkpt>
      <trkpt lat="44.78501" lon="6.36309">
        <ele>2337.2</ele>
        <time>2024-08-12T06:59:34Z</time>
      </trkpt>
      <trkpt lat="44.78501" lon="6.36309">
        <ele>2337.2</ele>
        <time>2024-08-12T06:59:35Z</time>
      </trkpt>
      <trkpt lat="44.78501" lon="6.36309">
        <ele>2337.4</ele>
        <time>2024-08-12T06:59:36Z</time>
      </trkpt>
      <trkpt lat="44.78499" lon="6.36311">
        <ele>2337.4</ele>
        <time>2024-08-12T06:59:37Z</time>
      </trkpt>
      <trkpt lat="44.78499" lon="6.36311">
        <ele>2337.4</ele>
        <time>2024-08-12T06:59:38Z</time>
      </trkpt>
      <trkpt lat="44.78499" lon="6.36311">
        <ele>2337.8</ele>
        <time>2024-08-12T06:59:39Z</time>
      </trkpt>
      <trkpt lat="44.78499" lon="6.36311">
        <ele>2337.8</ele>
        <time>2024-08-12T06:59:40Z</time>
      </trkpt>
      <trkpt lat="44.78498" lon="6.36312">
        <ele>2337.6</ele>
        <time>2024-08-12T06:59:41Z</time>
      </trkpt>
      <trkpt lat="44.78498" lon="6.36312">
        <ele>2337.2</ele>
        <time>2024-08-12T06:59:42Z</time>
      </trkpt>
      <trkpt lat="44.78498" lon="6.36312">
        <ele>2337.2</ele>
        <time>2024-08-12T06:59:43Z</time>
      </trkpt>
      <trkpt lat="44.78498" lon="6.36312">
        <ele>2337.2</ele>
        <time>2024-08-12T06:59:44Z</time>
      </trkpt>
      <trkpt lat="44.78498" lon="6.36312">
        <ele>2337.2</ele>
        <time>2024-08-12T06:59:45Z</time>
      </trkpt>
      <trkpt lat="44.78498" lon="6.36312">
        <ele>2337.2</ele>
        <time>2024-08-12T06:59:46Z</time>
      </trkpt>
      <trkpt lat="44.78498" lon="6.36312">
        <ele>2337.2</ele>
        <time>2024-08-12T06:59:47Z</time>
      </trkpt>
      <trkpt lat="44.78498" lon="6.36312">
        <ele>2337.4</ele>
        <time>2024-08-12T06:59:48Z</time>
      </trkpt>
      <trkpt lat="44.78498" lon="6.36312">
        <ele>2337.4</ele>
        <time>2024-08-12T06:59:49Z</time>
      </trkpt>
      <trkpt lat="44.78498" lon="6.36312">
        <ele>2337.4</ele>
        <time>2024-08-12T06:59:50Z</time>
      </trkpt>
      <trkpt lat="44.78498" lon="6.36312">
        <ele>2337.4</ele>
        <time>2024-08-12T06:59:51Z</time>
      </trkpt>
      <trkpt lat="44.78498" lon="6.36312">
        <ele>2337.4</ele>
        <time>2024-08-12T06:59:52Z</time>
      </trkpt>
      <trkpt lat="44.78498" lon="6.36312">
        <ele>2337.4</ele>
        <time>2024-08-12T06:59:53Z</time>
      </trkpt>
      <trkpt lat="44.78498" lon="6.36312">
        <ele>2337.4</ele>
        <time>2024-08-12T06:59:54Z</time>
      </trkpt>
      <trkpt lat="44.78498" lon="6.36312">
        <ele>2337.4</ele>
        <time>2024-08-12T06:59:55Z</time>
      </trkpt>
      <trkpt lat="44.78498" lon="6.36312">
        <ele>2337.4</ele>
        <time>2024-08-12T06:59:56Z</time>
      </trkpt>
      <trkpt lat="44.78498" lon="6.36312">
        <ele>2337.4</ele>
        <time>2024-08-12T06:59:57Z</time>
      </trkpt>
      <trkpt lat="44.78498" lon="6.36312">
        <ele>2337</ele>
        <time>2024-08-12T06:59:58Z</time>
      </trkpt>
      <trkpt lat="44.78498" lon="6.36312">
        <ele>2337</ele>
        <time>2024-08-12T06:59:59Z</time>
      </trkpt>
      <trkpt lat="44.78498" lon="6.36312">
        <ele>2337.2</ele>
        <time>2024-08-12T07:00:00Z</time>
      </trkpt>
      <trkpt lat="44.78498" lon="6.36312">
        <ele>2337.2</ele>
        <time>2024-08-12T07:00:01Z</time>
      </trkpt>
      <trkpt lat="44.78498" lon="6.36312">
        <ele>2337</ele>
        <time>2024-08-12T07:00:02Z</time>
      </trkpt>
      <trkpt lat="44.78498" lon="6.36312">
        <ele>2337</ele>
        <time>2024-08-12T07:00:03Z</time>
      </trkpt>
      <trkpt lat="44.78498" lon="6.36312">
        <ele>2337.2</ele>
        <time>2024-08-12T07:00:04Z</time>
      </trkpt>
      <trkpt lat="44.78498" lon="6.36312">
        <ele>2337.4</ele>
        <time>2024-08-12T07:00:05Z</time>
      </trkpt>
      <trkpt lat="44.78498" lon="6.36312">
        <ele>2337.4</ele>
        <time>2024-08-12T07:00:06Z</time>
      </trkpt>
      <trkpt lat="44.78498" lon="6.36312">
        <ele>2337.4</ele>
        <time>2024-08-12T07:00:07Z</time>
      </trkpt>
      <trkpt lat="44.78498" lon="6.36312">
        <ele>2337.4</ele>
        <time>2024-08-12T07:00:08Z</time>
      </trkpt>
      <trkpt lat="44.78498" lon="6.36312">
        <ele>2337.4</ele>
        <time>2024-08-12T07:00:09Z</time>
      </trkpt>
      <trkpt lat="44.78499" lon="6.3631">
        <ele>2337.8</ele>
        <time>2024-08-12T07:00:10Z</time>
      </trkpt>
      <trkpt lat="44.78499" lon="6.3631">
        <ele>2337.8</ele>
        <time>2024-08-12T07:00:11Z</time>
      </trkpt>
      <trkpt lat="44.78499" lon="6.3631">
        <ele>2337.8</ele>
        <time>2024-08-12T07:00:12Z</time>
      </trkpt>
      <trkpt lat="44.78499" lon="6.3631">
        <ele>2338</ele>
        <time>2024-08-12T07:00:13Z</time>
      </trkpt>
      <trkpt lat="44.785" lon="6.36307">
        <ele>2338</ele>
        <time>2024-08-12T07:00:14Z</time>
      </trkpt>
      <trkpt lat="44.785" lon="6.36307">
        <ele>2338</ele>
        <time>2024-08-12T07:00:15Z</time>
      </trkpt>
      <trkpt lat="44.785" lon="6.36307">
        <ele>2338</ele>
        <time>2024-08-12T07:00:16Z</time>
      </trkpt>
      <trkpt lat="44.78501" lon="6.36304">
        <ele>2338.4</ele>
        <time>2024-08-12T07:00:17Z</time>
      </trkpt>
      <trkpt lat="44.78501" lon="6.36304">
        <ele>2338.6</ele>
        <time>2024-08-12T07:00:18Z</time>
      </trkpt>
      <trkpt lat="44.78501" lon="6.36304">
        <ele>2339</ele>
        <time>2024-08-12T07:00:19Z</time>
      </trkpt>
      <trkpt lat="44.78501" lon="6.36301">
        <ele>2339.2</ele>
        <time>2024-08-12T07:00:20Z</time>
      </trkpt>
      <trkpt lat="44.78501" lon="6.36301">
        <ele>2339.2</ele>
        <time>2024-08-12T07:00:21Z</time>
      </trkpt>
      <trkpt lat="44.78503" lon="6.36299">
        <ele>2339</ele>
        <time>2024-08-12T07:00:22Z</time>
      </trkpt>
      <trkpt lat="44.78503" lon="6.36299">
        <ele>2339</ele>
        <time>2024-08-12T07:00:23Z</time>
      </trkpt>
      <trkpt lat="44.78503" lon="6.36299">
        <ele>2339.6</ele>
        <time>2024-08-12T07:00:24Z</time>
      </trkpt>
      <trkpt lat="44.78503" lon="6.36295">
        <ele>2339.6</ele>
        <time>2024-08-12T07:00:25Z</time>
      </trkpt>
      <trkpt lat="44.78503" lon="6.36295">
        <ele>2339.8</ele>
        <time>2024-08-12T07:00:26Z</time>
      </trkpt>
      <trkpt lat="44.78505" lon="6.36293">
        <ele>2340</ele>
        <time>2024-08-12T07:00:27Z</time>
      </trkpt>
      <trkpt lat="44.78505" lon="6.36293">
        <ele>2340</ele>
        <time>2024-08-12T07:00:28Z</time>
      </trkpt>
      <trkpt lat="44.78507" lon="6.36291">
        <ele>2340.2</ele>
        <time>2024-08-12T07:00:29Z</time>
      </trkpt>
      <trkpt lat="44.78507" lon="6.36291">
        <ele>2340.2</ele>
        <time>2024-08-12T07:00:30Z</time>
      </trkpt>
      <trkpt lat="44.78508" lon="6.36288">
        <ele>2340.4</ele>
        <time>2024-08-12T07:00:31Z</time>
      </trkpt>
      <trkpt lat="44.78508" lon="6.36288">
        <ele>2340.4</ele>
        <time>2024-08-12T07:00:32Z</time>
      </trkpt>
      <trkpt lat="44.78508" lon="6.36288">
        <ele>2340.6</ele>
        <time>2024-08-12T07:00:33Z</time>
      </trkpt>
      <trkpt lat="44.78509" lon="6.36286">
        <ele>2340.8</ele>
        <time>2024-08-12T07:00:34Z</time>
      </trkpt>
      <trkpt lat="44.78509" lon="6.36286">
        <ele>2341</ele>
        <time>2024-08-12T07:00:35Z</time>
      </trkpt>
      <trkpt lat="44.78511" lon="6.36284">
        <ele>2341</ele>
        <time>2024-08-12T07:00:36Z</time>
      </trkpt>
      <trkpt lat="44.78511" lon="6.36284">
        <ele>2341.2</ele>
        <time>2024-08-12T07:00:37Z</time>
      </trkpt>
      <trkpt lat="44.78512" lon="6.36283">
        <ele>2341.4</ele>
        <time>2024-08-12T07:00:38Z</time>
      </trkpt>
      <trkpt lat="44.78512" lon="6.36283">
        <ele>2341.4</ele>
        <time>2024-08-12T07:00:39Z</time>
      </trkpt>
      <trkpt lat="44.78512" lon="6.36283">
        <ele>2341.6</ele>
        <time>2024-08-12T07:00:40Z</time>
      </trkpt>
      <trkpt lat="44.78514" lon="6.36281">
        <ele>2341.6</ele>
        <time>2024-08-12T07:00:41Z</time>
      </trkpt>
      <trkpt lat="44.78514" lon="6.36281">
        <ele>2342</ele>
        <time>2024-08-12T07:00:42Z</time>
      </trkpt>
      <trkpt lat="44.78514" lon="6.36281">
        <ele>2342</ele>
        <time>2024-08-12T07:00:43Z</time>
      </trkpt>
      <trkpt lat="44.78514" lon="6.36281">
        <ele>2342.2</ele>
        <time>2024-08-12T07:00:44Z</time>
      </trkpt>
      <trkpt lat="44.78514" lon="6.36281">
        <ele>2342.4</ele>
        <time>2024-08-12T07:00:45Z</time>
      </trkpt>
      <trkpt lat="44.78513" lon="6.36278">
        <ele>2342.8</ele>
        <time>2024-08-12T07:00:46Z</time>
      </trkpt>
      <trkpt lat="44.78513" lon="6.36278">
        <ele>2343.2</ele>
        <time>2024-08-12T07:00:47Z</time>
      </trkpt>
      <trkpt lat="44.78513" lon="6.36278">
        <ele>2343.2</ele>
        <time>2024-08-12T07:00:48Z</time>
      </trkpt>
      <trkpt lat="44.78513" lon="6.36278">
        <ele>2343.2</ele>
        <time>2024-08-12T07:00:49Z</time>
      </trkpt>
      <trkpt lat="44.78511" lon="6.36278">
        <ele>2343.2</ele>
        <time>2024-08-12T07:00:50Z</time>
      </trkpt>
      <trkpt lat="44.78511" lon="6.36278">
        <ele>2343.4</ele>
        <time>2024-08-12T07:00:51Z</time>
      </trkpt>
      <trkpt lat="44.78509" lon="6.36278">
        <ele>2343.8</ele>
        <time>2024-08-12T07:00:52Z</time>
      </trkpt>
      <trkpt lat="44.78509" lon="6.36278">
        <ele>2344</ele>
        <time>2024-08-12T07:00:53Z</time>
      </trkpt>
      <trkpt lat="44.78507" lon="6.36278">
        <ele>2344</ele>
        <time>2024-08-12T07:00:54Z</time>
      </trkpt>
      <trkpt lat="44.78507" lon="6.36278">
        <ele>2344.2</ele>
        <time>2024-08-12T07:00:55Z</time>
      </trkpt>
      <trkpt lat="44.78507" lon="6.36278">
        <ele>2344.4</ele>
        <time>2024-08-12T07:00:56Z</time>
      </trkpt>
      <trkpt lat="44.78505" lon="6.36277">
        <ele>2344.6</ele>
        <time>2024-08-12T07:00:57Z</time>
      </trkpt>
      <trkpt lat="44.78505" lon="6.36277">
        <ele>2344.6</ele>
        <time>2024-08-12T07:00:58Z</time>
      </trkpt>
      <trkpt lat="44.78505" lon="6.36277">
        <ele>2344.6</ele>
        <time>2024-08-12T07:00:59Z</time>
      </trkpt>
      <trkpt lat="44.78503" lon="6.36278">
        <ele>2344.8</ele>
        <time>2024-08-12T07:01:00Z</time>
      </trkpt>
      <trkpt lat="44.78503" lon="6.36278">
        <ele>2344.8</ele>
        <time>2024-08-12T07:01:01Z</time>
      </trkpt>
      <trkpt lat="44.78503" lon="6.36278">
        <ele>2345.2</ele>
        <time>2024-08-12T07:01:02Z</time>
      </trkpt>
      <trkpt lat="44.785" lon="6.36279">
        <ele>2345.2</ele>
        <time>2024-08-12T07:01:03Z</time>
      </trkpt>
      <trkpt lat="44.785" lon="6.36279">
        <ele>2345.2</ele>
        <time>2024-08-12T07:01:04Z</time>
      </trkpt>
      <trkpt lat="44.785" lon="6.36279">
        <ele>2345.2</ele>
        <time>2024-08-12T07:01:05Z</time>
      </trkpt>
      <trkpt lat="44.78498" lon="6.3628">
        <ele>2345.2</ele>
        <time>2024-08-12T07:01:06Z</time>
      </trkpt>
      <trkpt lat="44.78498" lon="6.3628">
        <ele>2345.6</ele>
        <time>2024-08-12T07:01:07Z</time>
      </trkpt>
      <trkpt lat="44.78498" lon="6.3628">
        <ele>2345.8</ele>
        <time>2024-08-12T07:01:08Z</time>
      </trkpt>
      <trkpt lat="44.78498" lon="6.3628">
        <ele>2345.8</ele>
        <time>2024-08-12T07:01:09Z</time>
      </trkpt>
      <trkpt lat="44.78496" lon="6.36281">
        <ele>2346</ele>
        <time>2024-08-12T07:01:10Z</time>
      </trkpt>
      <trkpt lat="44.78496" lon="6.36281">
        <ele>2346</ele>
        <time>2024-08-12T07:01:11Z</time>
      </trkpt>
      <trkpt lat="44.78494" lon="6.36281">
        <ele>2346.2</ele>
        <time>2024-08-12T07:01:12Z</time>
      </trkpt>
      <trkpt lat="44.78494" lon="6.36281">
        <ele>2346.2</ele>
        <time>2024-08-12T07:01:13Z</time>
      </trkpt>
      <trkpt lat="44.78494" lon="6.36281">
        <ele>2346.4</ele>
        <time>2024-08-12T07:01:14Z</time>
      </trkpt>
      <trkpt lat="44.78492" lon="6.36281">
        <ele>2347</ele>
        <time>2024-08-12T07:01:15Z</time>
      </trkpt>
      <trkpt lat="44.78492" lon="6.36281">
        <ele>2347</ele>
        <time>2024-08-12T07:01:16Z</time>
      </trkpt>
      <trkpt lat="44.78492" lon="6.36281">
        <ele>2347</ele>
        <time>2024-08-12T07:01:17Z</time>
      </trkpt>
      <trkpt lat="44.78492" lon="6.36281">
        <ele>2347.2</ele>
        <time>2024-08-12T07:01:18Z</time>
      </trkpt>
      <trkpt lat="44.78492" lon="6.36278">
        <ele>2347.4</ele>
        <time>2024-08-12T07:01:19Z</time>
      </trkpt>
      <trkpt lat="44.78492" lon="6.36278">
        <ele>2347.4</ele>
        <time>2024-08-12T07:01:20Z</time>
      </trkpt>
      <trkpt lat="44.78492" lon="6.36278">
        <ele>2347.6</ele>
        <time>2024-08-12T07:01:21Z</time>
      </trkpt>
      <trkpt lat="44.78492" lon="6.36278">
        <ele>2347.6</ele>
        <time>2024-08-12T07:01:22Z</time>
      </trkpt>
      <trkpt lat="44.78493" lon="6.36276">
        <ele>2348</ele>
        <time>2024-08-12T07:01:23Z</time>
      </trkpt>
      <trkpt lat="44.78493" lon="6.36276">
        <ele>2348.4</ele>
        <time>2024-08-12T07:01:24Z</time>
      </trkpt>
      <trkpt lat="44.78493" lon="6.36276">
        <ele>2348.4</ele>
        <time>2024-08-12T07:01:25Z</time>
      </trkpt>
      <trkpt lat="44.78493" lon="6.36276">
        <ele>2348.4</ele>
        <time>2024-08-12T07:01:26Z</time>
      </trkpt>
      <trkpt lat="44.78493" lon="6.36276">
        <ele>2348.4</ele>
        <time>2024-08-12T07:01:27Z</time>
      </trkpt>
      <trkpt lat="44.78493" lon="6.36276">
        <ele>2348.4</ele>
        <time>2024-08-12T07:01:28Z</time>
      </trkpt>
      <trkpt lat="44.78493" lon="6.36276">
        <ele>2348.6</ele>
        <time>2024-08-12T07:01:29Z</time>
      </trkpt>
      <trkpt lat="44.78493" lon="6.36276">
        <ele>2348.6</ele>
        <time>2024-08-12T07:01:30Z</time>
      </trkpt>
      <trkpt lat="44.78493" lon="6.36276">
        <ele>2348.8</ele>
        <time>2024-08-12T07:01:31Z</time>
      </trkpt>
      <trkpt lat="44.78493" lon="6.36276">
        <ele>2348.8</ele>
        <time>2024-08-12T07:01:32Z</time>
      </trkpt>
      <trkpt lat="44.78493" lon="6.36276">
        <ele>2349</ele>
        <time>2024-08-12T07:01:33Z</time>
      </trkpt>
      <trkpt lat="44.78493" lon="6.36276">
        <ele>2349.2</ele>
        <time>2024-08-12T07:01:34Z</time>
      </trkpt>
      <trkpt lat="44.78493" lon="6.36276">
        <ele>2349.2</ele>
        <time>2024-08-12T07:01:35Z</time>
      </trkpt>
      <trkpt lat="44.78493" lon="6.36276">
        <ele>2349.6</ele>
        <time>2024-08-12T07:01:36Z</time>
      </trkpt>
      <trkpt lat="44.78493" lon="6.36276">
        <ele>2349.6</ele>
        <time>2024-08-12T07:01:37Z</time>
      </trkpt>
      <trkpt lat="44.78493" lon="6.36276">
        <ele>2349.8</ele>
        <time>2024-08-12T07:01:38Z</time>
      </trkpt>
      <trkpt lat="44.78493" lon="6.36276">
        <ele>2350</ele>
        <time>2024-08-12T07:01:39Z</time>
      </trkpt>
      <trkpt lat="44.78493" lon="6.36276">
        <ele>2350.2</ele>
        <time>2024-08-12T07:01:40Z</time>
      </trkpt>
      <trkpt lat="44.78493" lon="6.36276">
        <ele>2350.4</ele>
        <time>2024-08-12T07:01:41Z</time>
      </trkpt>
      <trkpt lat="44.78493" lon="6.36276">
        <ele>2350.6</ele>
        <time>2024-08-12T07:01:42Z</time>
      </trkpt>
      <trkpt lat="44.78493" lon="6.36276">
        <ele>2350.8</ele>
        <time>2024-08-12T07:01:43Z</time>
      </trkpt>
      <trkpt lat="44.78493" lon="6.36276">
        <ele>2351</ele>
        <time>2024-08-12T07:01:44Z</time>
      </trkpt>
      <trkpt lat="44.78493" lon="6.36276">
        <ele>2351.2</ele>
        <time>2024-08-12T07:01:45Z</time>
      </trkpt>
      <trkpt lat="44.78493" lon="6.36276">
        <ele>2351.2</ele>
        <time>2024-08-12T07:01:46Z</time>
      </trkpt>
      <trkpt lat="44.78493" lon="6.36276">
        <ele>2351.4</ele>
        <time>2024-08-12T07:01:47Z</time>
      </trkpt>
      <trkpt lat="44.78493" lon="6.36276">
        <ele>2351.4</ele>
        <time>2024-08-12T07:01:48Z</time>
      </trkpt>
      <trkpt lat="44.78493" lon="6.36276">
        <ele>2351.6</ele>
        <time>2024-08-12T07:01:49Z</time>
      </trkpt>
      <trkpt lat="44.78493" lon="6.36276">
        <ele>2351.6</ele>
        <time>2024-08-12T07:01:50Z</time>
      </trkpt>
      <trkpt lat="44.78495" lon="6.36274">
        <ele>2351.6</ele>
        <time>2024-08-12T07:01:51Z</time>
      </trkpt>
      <trkpt lat="44.78497" lon="6.36272">
        <ele>2351.8</ele>
        <time>2024-08-12T07:01:52Z</time>
      </trkpt>
      <trkpt lat="44.78501" lon="6.36269">
        <ele>2352</ele>
        <time>2024-08-12T07:01:53Z</time>
      </trkpt>
      <trkpt lat="44.78504" lon="6.36267">
        <ele>2352.4</ele>
        <time>2024-08-12T07:01:54Z</time>
      </trkpt>
      <trkpt lat="44.78507" lon="6.36265">
        <ele>2352.4</ele>
        <time>2024-08-12T07:01:55Z</time>
      </trkpt>
      <trkpt lat="44.78508" lon="6.36263">
        <ele>2352.6</ele>
        <time>2024-08-12T07:01:56Z</time>
      </trkpt>
      <trkpt lat="44.78509" lon="6.36261">
        <ele>2352.6</ele>
        <time>2024-08-12T07:01:57Z</time>
      </trkpt>
      <trkpt lat="44.78509" lon="6.36261">
        <ele>2352.6</ele>
        <time>2024-08-12T07:01:58Z</time>
      </trkpt>
      <trkpt lat="44.78509" lon="6.36261">
        <ele>2352.8</ele>
        <time>2024-08-12T07:01:59Z</time>
      </trkpt>
      <trkpt lat="44.78509" lon="6.36261">
        <ele>2353.2</ele>
        <time>2024-08-12T07:02:00Z</time>
      </trkpt>
      <trkpt lat="44.78509" lon="6.36261">
        <ele>2353.2</ele>
        <time>2024-08-12T07:02:01Z</time>
      </trkpt>
      <trkpt lat="44.78509" lon="6.36261">
        <ele>2353.2</ele>
        <time>2024-08-12T07:02:02Z</time>
      </trkpt>
      <trkpt lat="44.78509" lon="6.36261">
        <ele>2353.2</ele>
        <time>2024-08-12T07:02:03Z</time>
      </trkpt>
      <trkpt lat="44.78509" lon="6.36261">
        <ele>2353</ele>
        <time>2024-08-12T07:02:04Z</time>
      </trkpt>
      <trkpt lat="44.78509" lon="6.36261">
        <ele>2353</ele>
        <time>2024-08-12T07:02:05Z</time>
      </trkpt>
      <trkpt lat="44.78509" lon="6.36261">
        <ele>2352.8</ele>
        <time>2024-08-12T07:02:06Z</time>
      </trkpt>
      <trkpt lat="44.78509" lon="6.36261">
        <ele>2352.8</ele>
        <time>2024-08-12T07:02:07Z</time>
      </trkpt>
      <trkpt lat="44.78509" lon="6.36261">
        <ele>2352.8</ele>
        <time>2024-08-12T07:02:08Z</time>
      </trkpt>
      <trkpt lat="44.78509" lon="6.36261">
        <ele>2352.8</ele>
        <time>2024-08-12T07:02:09Z</time>
      </trkpt>
      <trkpt lat="44.78509" lon="6.36261">
        <ele>2352.8</ele>
        <time>2024-08-12T07:02:10Z</time>
      </trkpt>
      <trkpt lat="44.78509" lon="6.36261">
        <ele>2353</ele>
        <time>2024-08-12T07:02:11Z</time>
      </trkpt>
      <trkpt lat="44.78509" lon="6.36261">
        <ele>2353</ele>
        <time>2024-08-12T07:02:12Z</time>
      </trkpt>
      <trkpt lat="44.78509" lon="6.36261">
        <ele>2353.4</ele>
        <time>2024-08-12T07:02:13Z</time>
      </trkpt>
      <trkpt lat="44.78509" lon="6.36261">
        <ele>2353.4</ele>
        <time>2024-08-12T07:02:14Z</time>
      </trkpt>
      <trkpt lat="44.78508" lon="6.3626">
        <ele>2353.8</ele>
        <time>2024-08-12T07:02:15Z</time>
      </trkpt>
      <trkpt lat="44.78508" lon="6.3626">
        <ele>2354.2</ele>
        <time>2024-08-12T07:02:16Z</time>
      </trkpt>
      <trkpt lat="44.78505" lon="6.36259">
        <ele>2354.2</ele>
        <time>2024-08-12T07:02:17Z</time>
      </trkpt>
      <trkpt lat="44.78505" lon="6.36259">
        <ele>2354.2</ele>
        <time>2024-08-12T07:02:18Z</time>
      </trkpt>
      <trkpt lat="44.78502" lon="6.36259">
        <ele>2354.2</ele>
        <time>2024-08-12T07:02:19Z</time>
      </trkpt>
      <trkpt lat="44.78502" lon="6.36259">
        <ele>2354.4</ele>
        <time>2024-08-12T07:02:20Z</time>
      </trkpt>
      <trkpt lat="44.785" lon="6.36258">
        <ele>2355</ele>
        <time>2024-08-12T07:02:21Z</time>
      </trkpt>
      <trkpt lat="44.785" lon="6.36258">
        <ele>2355</ele>
        <time>2024-08-12T07:02:22Z</time>
      </trkpt>
      <trkpt lat="44.78498" lon="6.36257">
        <ele>2355</ele>
        <time>2024-08-12T07:02:23Z</time>
      </trkpt>
      <trkpt lat="44.78498" lon="6.36257">
        <ele>2355.2</ele>
        <time>2024-08-12T07:02:24Z</time>
      </trkpt>
      <trkpt lat="44.78498" lon="6.36257">
        <ele>2355.4</ele>
        <time>2024-08-12T07:02:25Z</time>
      </trkpt>
      <trkpt lat="44.78498" lon="6.36257">
        <ele>2355.4</ele>
        <time>2024-08-12T07:02:26Z</time>
      </trkpt>
      <trkpt lat="44.78496" lon="6.36257">
        <ele>2355.4</ele>
        <time>2024-08-12T07:02:27Z</time>
      </trkpt>
      <trkpt lat="44.78496" lon="6.36257">
        <ele>2355.6</ele>
        <time>2024-08-12T07:02:28Z</time>
      </trkpt>
      <trkpt lat="44.78496" lon="6.36257">
        <ele>2355.8</ele>
        <time>2024-08-12T07:02:29Z</time>
      </trkpt>
      <trkpt lat="44.78496" lon="6.36257">
        <ele>2356</ele>
        <time>2024-08-12T07:02:30Z</time>
      </trkpt>
      <trkpt lat="44.78496" lon="6.36257">
        <ele>2356</ele>
        <time>2024-08-12T07:02:31Z</time>
      </trkpt>
      <trkpt lat="44.78494" lon="6.36255">
        <ele>2356.2</ele>
        <time>2024-08-12T07:02:32Z</time>
      </trkpt>
      <trkpt lat="44.78494" lon="6.36255">
        <ele>2356.6</ele>
        <time>2024-08-12T07:02:33Z</time>
      </trkpt>
      <trkpt lat="44.78494" lon="6.36255">
        <ele>2356.8</ele>
        <time>2024-08-12T07:02:34Z</time>
      </trkpt>
      <trkpt lat="44.78494" lon="6.36255">
        <ele>2356.8</ele>
        <time>2024-08-12T07:02:35Z</time>
      </trkpt>
      <trkpt lat="44.78494" lon="6.36255">
        <ele>2356.8</ele>
        <time>2024-08-12T07:02:36Z</time>
      </trkpt>
      <trkpt lat="44.78492" lon="6.36253">
        <ele>2357</ele>
        <time>2024-08-12T07:02:37Z</time>
      </trkpt>
      <trkpt lat="44.78492" lon="6.36253">
        <ele>2357</ele>
        <time>2024-08-12T07:02:38Z</time>
      </trkpt>
      <trkpt lat="44.78492" lon="6.36253">
        <ele>2357.2</ele>
        <time>2024-08-12T07:02:39Z</time>
      </trkpt>
      <trkpt lat="44.78492" lon="6.36253">
        <ele>2357.8</ele>
        <time>2024-08-12T07:02:40Z</time>
      </trkpt>
      <trkpt lat="44.7849" lon="6.36253">
        <ele>2357.8</ele>
        <time>2024-08-12T07:02:41Z</time>
      </trkpt>
      <trkpt lat="44.7849" lon="6.36253">
        <ele>2358.2</ele>
        <time>2024-08-12T07:02:42Z</time>
      </trkpt>
      <trkpt lat="44.7849" lon="6.36253">
        <ele>2358.4</ele>
        <time>2024-08-12T07:02:43Z</time>
      </trkpt>
      <trkpt lat="44.78488" lon="6.36253">
        <ele>2358.6</ele>
        <time>2024-08-12T07:02:44Z</time>
      </trkpt>
      <trkpt lat="44.78488" lon="6.36253">
        <ele>2358.6</ele>
        <time>2024-08-12T07:02:45Z</time>
      </trkpt>
      <trkpt lat="44.78488" lon="6.36253">
        <ele>2358.6</ele>
        <time>2024-08-12T07:02:46Z</time>
      </trkpt>
      <trkpt lat="44.78488" lon="6.36253">
        <ele>2359.2</ele>
        <time>2024-08-12T07:02:47Z</time>
      </trkpt>
      <trkpt lat="44.78486" lon="6.36252">
        <ele>2359.6</ele>
        <time>2024-08-12T07:02:48Z</time>
      </trkpt>
      <trkpt lat="44.78486" lon="6.36252">
        <ele>2359.6</ele>
        <time>2024-08-12T07:02:49Z</time>
      </trkpt>
      <trkpt lat="44.78486" lon="6.36252">
        <ele>2359.8</ele>
        <time>2024-08-12T07:02:50Z</time>
      </trkpt>
      <trkpt lat="44.78486" lon="6.36252">
        <ele>2360</ele>
        <time>2024-08-12T07:02:51Z</time>
      </trkpt>
      <trkpt lat="44.78486" lon="6.36252">
        <ele>2360.4</ele>
        <time>2024-08-12T07:02:52Z</time>
      </trkpt>
      <trkpt lat="44.78484" lon="6.36251">
        <ele>2360.4</ele>
        <time>2024-08-12T07:02:53Z</time>
      </trkpt>
      <trkpt lat="44.78484" lon="6.36251">
        <ele>2360.4</ele>
        <time>2024-08-12T07:02:54Z</time>
      </trkpt>
      <trkpt lat="44.78484" lon="6.36251">
        <ele>2360.6</ele>
        <time>2024-08-12T07:02:55Z</time>
      </trkpt>
      <trkpt lat="44.78484" lon="6.36251">
        <ele>2360.6</ele>
        <time>2024-08-12T07:02:56Z</time>
      </trkpt>
      <trkpt lat="44.78482" lon="6.3625">
        <ele>2360.6</ele>
        <time>2024-08-12T07:02:57Z</time>
      </trkpt>
      <trkpt lat="44.78482" lon="6.3625">
        <ele>2360.8</ele>
        <time>2024-08-12T07:02:58Z</time>
      </trkpt>
      <trkpt lat="44.78482" lon="6.3625">
        <ele>2361.4</ele>
        <time>2024-08-12T07:02:59Z</time>
      </trkpt>
      <trkpt lat="44.78482" lon="6.3625">
        <ele>2361.6</ele>
        <time>2024-08-12T07:03:00Z</time>
      </trkpt>
      <trkpt lat="44.7848" lon="6.36249">
        <ele>2361.6</ele>
        <time>2024-08-12T07:03:01Z</time>
      </trkpt>
      <trkpt lat="44.7848" lon="6.36249">
        <ele>2362.4</ele>
        <time>2024-08-12T07:03:02Z</time>
      </trkpt>
      <trkpt lat="44.7848" lon="6.36249">
        <ele>2362.4</ele>
        <time>2024-08-12T07:03:03Z</time>
      </trkpt>
      <trkpt lat="44.7848" lon="6.36249">
        <ele>2362.8</ele>
        <time>2024-08-12T07:03:04Z</time>
      </trkpt>
      <trkpt lat="44.78477" lon="6.36248">
        <ele>2362.8</ele>
        <time>2024-08-12T07:03:05Z</time>
      </trkpt>
      <trkpt lat="44.78477" lon="6.36248">
        <ele>2362.8</ele>
        <time>2024-08-12T07:03:06Z</time>
      </trkpt>
      <trkpt lat="44.78477" lon="6.36248">
        <ele>2363</ele>
        <time>2024-08-12T07:03:07Z</time>
      </trkpt>
      <trkpt lat="44.78476" lon="6.36248">
        <ele>2363</ele>
        <time>2024-08-12T07:03:08Z</time>
      </trkpt>
      <trkpt lat="44.78476" lon="6.36248">
        <ele>2363.6</ele>
        <time>2024-08-12T07:03:09Z</time>
      </trkpt>
      <trkpt lat="44.78476" lon="6.36248">
        <ele>2363.6</ele>
        <time>2024-08-12T07:03:10Z</time>
      </trkpt>
      <trkpt lat="44.78476" lon="6.36248">
        <ele>2363.6</ele>
        <time>2024-08-12T07:03:11Z</time>
      </trkpt>
      <trkpt lat="44.78474" lon="6.36247">
        <ele>2363.6</ele>
        <time>2024-08-12T07:03:12Z</time>
      </trkpt>
      <trkpt lat="44.78474" lon="6.36247">
        <ele>2364.2</ele>
        <time>2024-08-12T07:03:13Z</time>
      </trkpt>
      <trkpt lat="44.78474" lon="6.36247">
        <ele>2364.4</ele>
        <time>2024-08-12T07:03:14Z</time>
      </trkpt>
      <trkpt lat="44.78474" lon="6.36247">
        <ele>2364.4</ele>
        <time>2024-08-12T07:03:15Z</time>
      </trkpt>
      <trkpt lat="44.78473" lon="6.36244">
        <ele>2365</ele>
        <time>2024-08-12T07:03:16Z</time>
      </trkpt>
      <trkpt lat="44.78473" lon="6.36244">
        <ele>2365.4</ele>
        <time>2024-08-12T07:03:17Z</time>
      </trkpt>
      <trkpt lat="44.78473" lon="6.36244">
        <ele>2365.4</ele>
        <time>2024-08-12T07:03:18Z</time>
      </trkpt>
      <trkpt lat="44.78475" lon="6.36242">
        <ele>2365.6</ele>
        <time>2024-08-12T07:03:19Z</time>
      </trkpt>
      <trkpt lat="44.78475" lon="6.36242">
        <ele>2365.6</ele>
        <time>2024-08-12T07:03:20Z</time>
      </trkpt>
      <trkpt lat="44.78475" lon="6.36242">
        <ele>2365.6</ele>
        <time>2024-08-12T07:03:21Z</time>
      </trkpt>
      <trkpt lat="44.78477" lon="6.36241">
        <ele>2365.8</ele>
        <time>2024-08-12T07:03:22Z</time>
      </trkpt>
      <trkpt lat="44.78477" lon="6.36241">
        <ele>2365.8</ele>
        <time>2024-08-12T07:03:23Z</time>
      </trkpt>
      <trkpt lat="44.78478" lon="6.3624">
        <ele>2366</ele>
        <time>2024-08-12T07:03:24Z</time>
      </trkpt>
      <trkpt lat="44.78478" lon="6.3624">
        <ele>2366</ele>
        <time>2024-08-12T07:03:25Z</time>
      </trkpt>
      <trkpt lat="44.78478" lon="6.3624">
        <ele>2366.2</ele>
        <time>2024-08-12T07:03:26Z</time>
      </trkpt>
      <trkpt lat="44.7848" lon="6.36238">
        <ele>2366.2</ele>
        <time>2024-08-12T07:03:27Z</time>
      </trkpt>
      <trkpt lat="44.7848" lon="6.36238">
        <ele>2366.6</ele>
        <time>2024-08-12T07:03:28Z</time>
      </trkpt>
      <trkpt lat="44.7848" lon="6.36238">
        <ele>2366.6</ele>
        <time>2024-08-12T07:03:29Z</time>
      </trkpt>
      <trkpt lat="44.78482" lon="6.36236">
        <ele>2367</ele>
        <time>2024-08-12T07:03:30Z</time>
      </trkpt>
      <trkpt lat="44.78482" lon="6.36236">
        <ele>2367.4</ele>
        <time>2024-08-12T07:03:31Z</time>
      </trkpt>
      <trkpt lat="44.78482" lon="6.36236">
        <ele>2367.4</ele>
        <time>2024-08-12T07:03:32Z</time>
      </trkpt>
      <trkpt lat="44.78482" lon="6.36236">
        <ele>2367.4</ele>
        <time>2024-08-12T07:03:33Z</time>
      </trkpt>
      <trkpt lat="44.78482" lon="6.36236">
        <ele>2367.4</ele>
        <time>2024-08-12T07:03:34Z</time>
      </trkpt>
      <trkpt lat="44.78484" lon="6.36234">
        <ele>2367.6</ele>
        <time>2024-08-12T07:03:35Z</time>
      </trkpt>
      <trkpt lat="44.78484" lon="6.36234">
        <ele>2367.6</ele>
        <time>2024-08-12T07:03:36Z</time>
      </trkpt>
      <trkpt lat="44.78484" lon="6.36234">
        <ele>2367.6</ele>
        <time>2024-08-12T07:03:37Z</time>
      </trkpt>
      <trkpt lat="44.78484" lon="6.36234">
        <ele>2367.8</ele>
        <time>2024-08-12T07:03:38Z</time>
      </trkpt>
      <trkpt lat="44.78484" lon="6.36234">
        <ele>2367.8</ele>
        <time>2024-08-12T07:03:39Z</time>
      </trkpt>
      <trkpt lat="44.78484" lon="6.36234">
        <ele>2368.2</ele>
        <time>2024-08-12T07:03:40Z</time>
      </trkpt>
      <trkpt lat="44.78484" lon="6.36234">
        <ele>2368.4</ele>
        <time>2024-08-12T07:03:41Z</time>
      </trkpt>
      <trkpt lat="44.78484" lon="6.36234">
        <ele>2368.6</ele>
        <time>2024-08-12T07:03:42Z</time>
      </trkpt>
      <trkpt lat="44.78484" lon="6.36234">
        <ele>2368.6</ele>
        <time>2024-08-12T07:03:43Z</time>
      </trkpt>
      <trkpt lat="44.78484" lon="6.36234">
        <ele>2368.6</ele>
        <time>2024-08-12T07:03:44Z</time>
      </trkpt>
      <trkpt lat="44.78484" lon="6.36234">
        <ele>2368.6</ele>
        <time>2024-08-12T07:03:45Z</time>
      </trkpt>
      <trkpt lat="44.78484" lon="6.36234">
        <ele>2368.6</ele>
        <time>2024-08-12T07:03:46Z</time>
      </trkpt>
      <trkpt lat="44.78484" lon="6.36234">
        <ele>2368.4</ele>
        <time>2024-08-12T07:03:47Z</time>
      </trkpt>
      <trkpt lat="44.78484" lon="6.36234">
        <ele>2368.4</ele>
        <time>2024-08-12T07:03:48Z</time>
      </trkpt>
      <trkpt lat="44.78485" lon="6.36232">
        <ele>2368.2</ele>
        <time>2024-08-12T07:03:49Z</time>
      </trkpt>
      <trkpt lat="44.78485" lon="6.36232">
        <ele>2368.2</ele>
        <time>2024-08-12T07:03:50Z</time>
      </trkpt>
      <trkpt lat="44.78487" lon="6.3623">
        <ele>2368.4</ele>
        <time>2024-08-12T07:03:51Z</time>
      </trkpt>
      <trkpt lat="44.78487" lon="6.3623">
        <ele>2368.4</ele>
        <time>2024-08-12T07:03:52Z</time>
      </trkpt>
      <trkpt lat="44.78488" lon="6.36227">
        <ele>2368.6</ele>
        <time>2024-08-12T07:03:53Z</time>
      </trkpt>
      <trkpt lat="44.78488" lon="6.36227">
        <ele>2368.8</ele>
        <time>2024-08-12T07:03:54Z</time>
      </trkpt>
      <trkpt lat="44.78489" lon="6.36225">
        <ele>2369</ele>
        <time>2024-08-12T07:03:55Z</time>
      </trkpt>
      <trkpt lat="44.78489" lon="6.36225">
        <ele>2369.2</ele>
        <time>2024-08-12T07:03:56Z</time>
      </trkpt>
      <trkpt lat="44.78489" lon="6.36225">
        <ele>2369.4</ele>
        <time>2024-08-12T07:03:57Z</time>
      </trkpt>
      <trkpt lat="44.78489" lon="6.36225">
        <ele>2369.4</ele>
        <time>2024-08-12T07:03:58Z</time>
      </trkpt>
      <trkpt lat="44.78489" lon="6.36225">
        <ele>2369.4</ele>
        <time>2024-08-12T07:03:59Z</time>
      </trkpt>
      <trkpt lat="44.78489" lon="6.36225">
        <ele>2369.8</ele>
        <time>2024-08-12T07:04:00Z</time>
      </trkpt>
      <trkpt lat="44.78489" lon="6.36225">
        <ele>2370</ele>
        <time>2024-08-12T07:04:01Z</time>
      </trkpt>
      <trkpt lat="44.78489" lon="6.36225">
        <ele>2370.2</ele>
        <time>2024-08-12T07:04:02Z</time>
      </trkpt>
      <trkpt lat="44.78489" lon="6.36225">
        <ele>2370.2</ele>
        <time>2024-08-12T07:04:03Z</time>
      </trkpt>
      <trkpt lat="44.78489" lon="6.36225">
        <ele>2370.2</ele>
        <time>2024-08-12T07:04:04Z</time>
      </trkpt>
      <trkpt lat="44.7849" lon="6.36222">
        <ele>2370.2</ele>
        <time>2024-08-12T07:04:05Z</time>
      </trkpt>
      <trkpt lat="44.7849" lon="6.36222">
        <ele>2370.2</ele>
        <time>2024-08-12T07:04:06Z</time>
      </trkpt>
      <trkpt lat="44.7849" lon="6.36222">
        <ele>2370.2</ele>
        <time>2024-08-12T07:04:07Z</time>
      </trkpt>
      <trkpt lat="44.7849" lon="6.36222">
        <ele>2370.2</ele>
        <time>2024-08-12T07:04:08Z</time>
      </trkpt>
      <trkpt lat="44.78491" lon="6.36219">
        <ele>2370.4</ele>
        <time>2024-08-12T07:04:09Z</time>
      </trkpt>
      <trkpt lat="44.78491" lon="6.36219">
        <ele>2370.6</ele>
        <time>2024-08-12T07:04:10Z</time>
      </trkpt>
      <trkpt lat="44.78493" lon="6.36217">
        <ele>2370.6</ele>
        <time>2024-08-12T07:04:11Z</time>
      </trkpt>
      <trkpt lat="44.78493" lon="6.36217">
        <ele>2370.8</ele>
        <time>2024-08-12T07:04:12Z</time>
      </trkpt>
      <trkpt lat="44.78493" lon="6.36217">
        <ele>2371.2</ele>
        <time>2024-08-12T07:04:13Z</time>
      </trkpt>
      <trkpt lat="44.78493" lon="6.36214">
        <ele>2371.6</ele>
        <time>2024-08-12T07:04:14Z</time>
      </trkpt>
      <trkpt lat="44.78493" lon="6.36214">
        <ele>2371.6</ele>
        <time>2024-08-12T07:04:15Z</time>
      </trkpt>
      <trkpt lat="44.78493" lon="6.36214">
        <ele>2371.8</ele>
        <time>2024-08-12T07:04:16Z</time>
      </trkpt>
      <trkpt lat="44.78494" lon="6.36211">
        <ele>2371.8</ele>
        <time>2024-08-12T07:04:17Z</time>
      </trkpt>
      <trkpt lat="44.78494" lon="6.36211">
        <ele>2371.8</ele>
        <time>2024-08-12T07:04:18Z</time>
      </trkpt>
      <trkpt lat="44.78492" lon="6.36209">
        <ele>2371.8</ele>
        <time>2024-08-12T07:04:19Z</time>
      </trkpt>
      <trkpt lat="44.78492" lon="6.36209">
        <ele>2372.2</ele>
        <time>2024-08-12T07:04:20Z</time>
      </trkpt>
      <trkpt lat="44.78492" lon="6.36209">
        <ele>2372.2</ele>
        <time>2024-08-12T07:04:21Z</time>
      </trkpt>
      <trkpt lat="44.78492" lon="6.36209">
        <ele>2372.6</ele>
        <time>2024-08-12T07:04:22Z</time>
      </trkpt>
      <trkpt lat="44.7849" lon="6.36207">
        <ele>2373</ele>
        <time>2024-08-12T07:04:23Z</time>
      </trkpt>
      <trkpt lat="44.7849" lon="6.36207">
        <ele>2373</ele>
        <time>2024-08-12T07:04:24Z</time>
      </trkpt>
      <trkpt lat="44.7849" lon="6.36207">
        <ele>2373.4</ele>
        <time>2024-08-12T07:04:25Z</time>
      </trkpt>
      <trkpt lat="44.78487" lon="6.36207">
        <ele>2373.4</ele>
        <time>2024-08-12T07:04:26Z</time>
      </trkpt>
      <trkpt lat="44.78487" lon="6.36207">
        <ele>2373.6</ele>
        <time>2024-08-12T07:04:27Z</time>
      </trkpt>
      <trkpt lat="44.78487" lon="6.36207">
        <ele>2373.6</ele>
        <time>2024-08-12T07:04:28Z</time>
      </trkpt>
      <trkpt lat="44.78485" lon="6.36204">
        <ele>2373.6</ele>
        <time>2024-08-12T07:04:29Z</time>
      </trkpt>
      <trkpt lat="44.78485" lon="6.36204">
        <ele>2373.8</ele>
        <time>2024-08-12T07:04:30Z</time>
      </trkpt>
      <trkpt lat="44.78487" lon="6.36202">
        <ele>2373.8</ele>
        <time>2024-08-12T07:04:31Z</time>
      </trkpt>
      <trkpt lat="44.78487" lon="6.36202">
        <ele>2373.8</ele>
        <time>2024-08-12T07:04:32Z</time>
      </trkpt>
      <trkpt lat="44.78487" lon="6.36202">
        <ele>2374</ele>
        <time>2024-08-12T07:04:33Z</time>
      </trkpt>
      <trkpt lat="44.78488" lon="6.362">
        <ele>2374.4</ele>
        <time>2024-08-12T07:04:34Z</time>
      </trkpt>
      <trkpt lat="44.78488" lon="6.362">
        <ele>2374.6</ele>
        <time>2024-08-12T07:04:35Z</time>
      </trkpt>
      <trkpt lat="44.78488" lon="6.362">
        <ele>2374.6</ele>
        <time>2024-08-12T07:04:36Z</time>
      </trkpt>
      <trkpt lat="44.78488" lon="6.36196">
        <ele>2375</ele>
        <time>2024-08-12T07:04:37Z</time>
      </trkpt>
      <trkpt lat="44.78488" lon="6.36196">
        <ele>2375.4</ele>
        <time>2024-08-12T07:04:38Z</time>
      </trkpt>
      <trkpt lat="44.78488" lon="6.36196">
        <ele>2375.4</ele>
        <time>2024-08-12T07:04:39Z</time>
      </trkpt>
      <trkpt lat="44.78489" lon="6.36193">
        <ele>2375.4</ele>
        <time>2024-08-12T07:04:40Z</time>
      </trkpt>
      <trkpt lat="44.78489" lon="6.36193">
        <ele>2375.4</ele>
        <time>2024-08-12T07:04:41Z</time>
      </trkpt>
      <trkpt lat="44.78489" lon="6.3619">
        <ele>2375.6</ele>
        <time>2024-08-12T07:04:42Z</time>
      </trkpt>
      <trkpt lat="44.78489" lon="6.3619">
        <ele>2375.6</ele>
        <time>2024-08-12T07:04:43Z</time>
      </trkpt>
      <trkpt lat="44.7849" lon="6.36188">
        <ele>2375.6</ele>
        <time>2024-08-12T07:04:44Z</time>
      </trkpt>
      <trkpt lat="44.7849" lon="6.36188">
        <ele>2375.6</ele>
        <time>2024-08-12T07:04:45Z</time>
      </trkpt>
      <trkpt lat="44.7849" lon="6.36188">
        <ele>2375.8</ele>
        <time>2024-08-12T07:04:46Z</time>
      </trkpt>
      <trkpt lat="44.78491" lon="6.36185">
        <ele>2376</ele>
        <time>2024-08-12T07:04:47Z</time>
      </trkpt>
      <trkpt lat="44.78491" lon="6.36185">
        <ele>2376.2</ele>
        <time>2024-08-12T07:04:48Z</time>
      </trkpt>
      <trkpt lat="44.78491" lon="6.36185">
        <ele>2376.4</ele>
        <time>2024-08-12T07:04:49Z</time>
      </trkpt>
      <trkpt lat="44.78493" lon="6.36184">
        <ele>2376.4</ele>
        <time>2024-08-12T07:04:50Z</time>
      </trkpt>
      <trkpt lat="44.78493" lon="6.36184">
        <ele>2376.6</ele>
        <time>2024-08-12T07:04:51Z</time>
      </trkpt>
      <trkpt lat="44.78495" lon="6.36183">
        <ele>2376.8</ele>
        <time>2024-08-12T07:04:52Z</time>
      </trkpt>
      <trkpt lat="44.78495" lon="6.36183">
        <ele>2376.8</ele>
        <time>2024-08-12T07:04:53Z</time>
      </trkpt>
      <trkpt lat="44.78497" lon="6.36182">
        <ele>2377.2</ele>
        <time>2024-08-12T07:04:54Z</time>
      </trkpt>
      <trkpt lat="44.78497" lon="6.36182">
        <ele>2377.2</ele>
        <time>2024-08-12T07:04:55Z</time>
      </trkpt>
      <trkpt lat="44.78499" lon="6.36181">
        <ele>2377</ele>
        <time>2024-08-12T07:04:56Z</time>
      </trkpt>
      <trkpt lat="44.78499" lon="6.36181">
        <ele>2377</ele>
        <time>2024-08-12T07:04:57Z</time>
      </trkpt>
      <trkpt lat="44.78501" lon="6.3618">
        <ele>2377.2</ele>
        <time>2024-08-12T07:04:58Z</time>
      </trkpt>
      <trkpt lat="44.78501" lon="6.3618">
        <ele>2377.4</ele>
        <time>2024-08-12T07:04:59Z</time>
      </trkpt>
      <trkpt lat="44.78501" lon="6.3618">
        <ele>2377.6</ele>
        <time>2024-08-12T07:05:00Z</time>
      </trkpt>
      <trkpt lat="44.78504" lon="6.36178">
        <ele>2377.6</ele>
        <time>2024-08-12T07:05:01Z</time>
      </trkpt>
      <trkpt lat="44.78504" lon="6.36178">
        <ele>2377.8</ele>
        <time>2024-08-12T07:05:02Z</time>
      </trkpt>
      <trkpt lat="44.78504" lon="6.36178">
        <ele>2377.8</ele>
        <time>2024-08-12T07:05:03Z</time>
      </trkpt>
      <trkpt lat="44.78504" lon="6.36178">
        <ele>2378.2</ele>
        <time>2024-08-12T07:05:04Z</time>
      </trkpt>
      <trkpt lat="44.78503" lon="6.36175">
        <ele>2378.2</ele>
        <time>2024-08-12T07:05:05Z</time>
      </trkpt>
      <trkpt lat="44.78503" lon="6.36175">
        <ele>2378.6</ele>
        <time>2024-08-12T07:05:06Z</time>
      </trkpt>
      <trkpt lat="44.78501" lon="6.36175">
        <ele>2378.6</ele>
        <time>2024-08-12T07:05:07Z</time>
      </trkpt>
      <trkpt lat="44.78501" lon="6.36175">
        <ele>2378.8</ele>
        <time>2024-08-12T07:05:08Z</time>
      </trkpt>
      <trkpt lat="44.78501" lon="6.36175">
        <ele>2379</ele>
        <time>2024-08-12T07:05:09Z</time>
      </trkpt>
      <trkpt lat="44.78501" lon="6.36175">
        <ele>2379.4</ele>
        <time>2024-08-12T07:05:10Z</time>
      </trkpt>
      <trkpt lat="44.78501" lon="6.36175">
        <ele>2379.4</ele>
        <time>2024-08-12T07:05:11Z</time>
      </trkpt>
      <trkpt lat="44.78501" lon="6.36175">
        <ele>2379.4</ele>
        <time>2024-08-12T07:05:12Z</time>
      </trkpt>
      <trkpt lat="44.78501" lon="6.36175">
        <ele>2379.6</ele>
        <time>2024-08-12T07:05:13Z</time>
      </trkpt>
      <trkpt lat="44.78501" lon="6.36175">
        <ele>2379.6</ele>
        <time>2024-08-12T07:05:14Z</time>
      </trkpt>
      <trkpt lat="44.78501" lon="6.36175">
        <ele>2379.6</ele>
        <time>2024-08-12T07:05:15Z</time>
      </trkpt>
      <trkpt lat="44.78501" lon="6.36175">
        <ele>2379.6</ele>
        <time>2024-08-12T07:05:16Z</time>
      </trkpt>
      <trkpt lat="44.78501" lon="6.36175">
        <ele>2379.8</ele>
        <time>2024-08-12T07:05:17Z</time>
      </trkpt>
      <trkpt lat="44.78501" lon="6.36175">
        <ele>2379.8</ele>
        <time>2024-08-12T07:05:18Z</time>
      </trkpt>
      <trkpt lat="44.78501" lon="6.36175">
        <ele>2379.8</ele>
        <time>2024-08-12T07:05:19Z</time>
      </trkpt>
      <trkpt lat="44.78501" lon="6.36175">
        <ele>2379.6</ele>
        <time>2024-08-12T07:05:20Z</time>
      </trkpt>
      <trkpt lat="44.78501" lon="6.36175">
        <ele>2379.6</ele>
        <time>2024-08-12T07:05:21Z</time>
      </trkpt>
      <trkpt lat="44.78501" lon="6.36175">
        <ele>2379.6</ele>
        <time>2024-08-12T07:05:22Z</time>
      </trkpt>
      <trkpt lat="44.78501" lon="6.36175">
        <ele>2379.4</ele>
        <time>2024-08-12T07:05:23Z</time>
      </trkpt>
      <trkpt lat="44.78501" lon="6.36175">
        <ele>2379</ele>
        <time>2024-08-12T07:05:24Z</time>
      </trkpt>
      <trkpt lat="44.78501" lon="6.36175">
        <ele>2379</ele>
        <time>2024-08-12T07:05:25Z</time>
      </trkpt>
      <trkpt lat="44.78501" lon="6.36175">
        <ele>2379</ele>
        <time>2024-08-12T07:05:26Z</time>
      </trkpt>
      <trkpt lat="44.78501" lon="6.36175">
        <ele>2379</ele>
        <time>2024-08-12T07:05:27Z</time>
      </trkpt>
      <trkpt lat="44.78501" lon="6.36175">
        <ele>2379</ele>
        <time>2024-08-12T07:05:28Z</time>
      </trkpt>
      <trkpt lat="44.78501" lon="6.36175">
        <ele>2379</ele>
        <time>2024-08-12T07:05:29Z</time>
      </trkpt>
      <trkpt lat="44.78501" lon="6.36175">
        <ele>2379</ele>
        <time>2024-08-12T07:05:30Z</time>
      </trkpt>
      <trkpt lat="44.78501" lon="6.36175">
        <ele>2378.8</ele>
        <time>2024-08-12T07:05:31Z</time>
      </trkpt>
      <trkpt lat="44.78501" lon="6.36175">
        <ele>2379</ele>
        <time>2024-08-12T07:05:32Z</time>
      </trkpt>
      <trkpt lat="44.78501" lon="6.36175">
        <ele>2379.2</ele>
        <time>2024-08-12T07:05:33Z</time>
      </trkpt>
      <trkpt lat="44.78501" lon="6.36175">
        <ele>2379.4</ele>
        <time>2024-08-12T07:05:34Z</time>
      </trkpt>
      <trkpt lat="44.78501" lon="6.36175">
        <ele>2379.4</ele>
        <time>2024-08-12T07:05:35Z</time>
      </trkpt>
      <trkpt lat="44.78501" lon="6.36175">
        <ele>2379.4</ele>
        <time>2024-08-12T07:05:36Z</time>
      </trkpt>
      <trkpt lat="44.78501" lon="6.36175">
        <ele>2379.4</ele>
        <time>2024-08-12T07:05:37Z</time>
      </trkpt>
      <trkpt lat="44.78501" lon="6.36175">
        <ele>2379.4</ele>
        <time>2024-08-12T07:05:38Z</time>
      </trkpt>
      <trkpt lat="44.78501" lon="6.36175">
        <ele>2379.2</ele>
        <time>2024-08-12T07:05:39Z</time>
      </trkpt>
      <trkpt lat="44.78501" lon="6.36175">
        <ele>2379.2</ele>
        <time>2024-08-12T07:05:40Z</time>
      </trkpt>
      <trkpt lat="44.78501" lon="6.36175">
        <ele>2379.2</ele>
        <time>2024-08-12T07:05:41Z</time>
      </trkpt>
      <trkpt lat="44.78501" lon="6.36175">
        <ele>2379</ele>
        <time>2024-08-12T07:05:42Z</time>
      </trkpt>
      <trkpt lat="44.78501" lon="6.36175">
        <ele>2379</ele>
        <time>2024-08-12T07:05:43Z</time>
      </trkpt>
      <trkpt lat="44.78501" lon="6.36175">
        <ele>2379</ele>
        <time>2024-08-12T07:05:44Z</time>
      </trkpt>
      <trkpt lat="44.78501" lon="6.36175">
        <ele>2379.2</ele>
        <time>2024-08-12T07:05:45Z</time>
      </trkpt>
      <trkpt lat="44.78501" lon="6.36175">
        <ele>2379.2</ele>
        <time>2024-08-12T07:05:46Z</time>
      </trkpt>
      <trkpt lat="44.78501" lon="6.36175">
        <ele>2379.2</ele>
        <time>2024-08-12T07:05:47Z</time>
      </trkpt>
      <trkpt lat="44.78501" lon="6.36175">
        <ele>2379.4</ele>
        <time>2024-08-12T07:05:48Z</time>
      </trkpt>
      <trkpt lat="44.78501" lon="6.36175">
        <ele>2379.4</ele>
        <time>2024-08-12T07:05:49Z</time>
      </trkpt>
      <trkpt lat="44.78501" lon="6.36175">
        <ele>2379.4</ele>
        <time>2024-08-12T07:05:50Z</time>
      </trkpt>
      <trkpt lat="44.78501" lon="6.36175">
        <ele>2379.4</ele>
        <time>2024-08-12T07:05:51Z</time>
      </trkpt>
      <trkpt lat="44.78501" lon="6.36175">
        <ele>2379.4</ele>
        <time>2024-08-12T07:05:52Z</time>
      </trkpt>
      <trkpt lat="44.78501" lon="6.36175">
        <ele>2379.4</ele>
        <time>2024-08-12T07:05:53Z</time>
      </trkpt>
      <trkpt lat="44.78501" lon="6.36175">
        <ele>2379.4</ele>
        <time>2024-08-12T07:05:54Z</time>
      </trkpt>
      <trkpt lat="44.78501" lon="6.36175">
        <ele>2379.8</ele>
        <time>2024-08-12T07:05:55Z</time>
      </trkpt>
      <trkpt lat="44.78501" lon="6.36175">
        <ele>2379.6</ele>
        <time>2024-08-12T07:05:56Z</time>
      </trkpt>
      <trkpt lat="44.78501" lon="6.36175">
        <ele>2379.6</ele>
        <time>2024-08-12T07:05:57Z</time>
      </trkpt>
      <trkpt lat="44.78501" lon="6.36175">
        <ele>2379.6</ele>
        <time>2024-08-12T07:05:58Z</time>
      </trkpt>
      <trkpt lat="44.78501" lon="6.36175">
        <ele>2379.8</ele>
        <time>2024-08-12T07:05:59Z</time>
      </trkpt>
      <trkpt lat="44.78501" lon="6.36175">
        <ele>2379.8</ele>
        <time>2024-08-12T07:06:00Z</time>
      </trkpt>
      <trkpt lat="44.78501" lon="6.36175">
        <ele>2379.6</ele>
        <time>2024-08-12T07:06:01Z</time>
      </trkpt>
      <trkpt lat="44.78501" lon="6.36175">
        <ele>2379.4</ele>
        <time>2024-08-12T07:06:02Z</time>
      </trkpt>
      <trkpt lat="44.78501" lon="6.36175">
        <ele>2379.4</ele>
        <time>2024-08-12T07:06:03Z</time>
      </trkpt>
      <trkpt lat="44.78501" lon="6.36175">
        <ele>2379.4</ele>
        <time>2024-08-12T07:06:04Z</time>
      </trkpt>
      <trkpt lat="44.78501" lon="6.36175">
        <ele>2380</ele>
        <time>2024-08-12T07:06:05Z</time>
      </trkpt>
      <trkpt lat="44.78501" lon="6.36175">
        <ele>2380</ele>
        <time>2024-08-12T07:06:06Z</time>
      </trkpt>
      <trkpt lat="44.78501" lon="6.36175">
        <ele>2380</ele>
        <time>2024-08-12T07:06:07Z</time>
      </trkpt>
      <trkpt lat="44.78501" lon="6.36175">
        <ele>2379.8</ele>
        <time>2024-08-12T07:06:08Z</time>
      </trkpt>
      <trkpt lat="44.78501" lon="6.36175">
        <ele>2379.8</ele>
        <time>2024-08-12T07:06:09Z</time>
      </trkpt>
      <trkpt lat="44.78501" lon="6.36175">
        <ele>2379.8</ele>
        <time>2024-08-12T07:06:10Z</time>
      </trkpt>
      <trkpt lat="44.78501" lon="6.36175">
        <ele>2379.8</ele>
        <time>2024-08-12T07:06:11Z</time>
      </trkpt>
      <trkpt lat="44.78501" lon="6.36175">
        <ele>2379.8</ele>
        <time>2024-08-12T07:06:12Z</time>
      </trkpt>
      <trkpt lat="44.78501" lon="6.36175">
        <ele>2379.6</ele>
        <time>2024-08-12T07:06:13Z</time>
      </trkpt>
      <trkpt lat="44.78501" lon="6.36175">
        <ele>2379.8</ele>
        <time>2024-08-12T07:06:14Z</time>
      </trkpt>
      <trkpt lat="44.78501" lon="6.36175">
        <ele>2379.8</ele>
        <time>2024-08-12T07:06:15Z</time>
      </trkpt>
      <trkpt lat="44.78501" lon="6.36175">
        <ele>2379.8</ele>
        <time>2024-08-12T07:06:16Z</time>
      </trkpt>
      <trkpt lat="44.78501" lon="6.36175">
        <ele>2379.8</ele>
        <time>2024-08-12T07:06:17Z</time>
      </trkpt>
      <trkpt lat="44.78501" lon="6.36175">
        <ele>2379.8</ele>
        <time>2024-08-12T07:06:18Z</time>
      </trkpt>
      <trkpt lat="44.78501" lon="6.36175">
        <ele>2380</ele>
        <time>2024-08-12T07:06:19Z</time>
      </trkpt>
      <trkpt lat="44.78501" lon="6.36175">
        <ele>2380</ele>
        <time>2024-08-12T07:06:20Z</time>
      </trkpt>
      <trkpt lat="44.78501" lon="6.36175">
        <ele>2380.2</ele>
        <time>2024-08-12T07:06:21Z</time>
      </trkpt>
      <trkpt lat="44.78501" lon="6.36175">
        <ele>2380.2</ele>
        <time>2024-08-12T07:06:22Z</time>
      </trkpt>
      <trkpt lat="44.78501" lon="6.36175">
        <ele>2380.2</ele>
        <time>2024-08-12T07:06:23Z</time>
      </trkpt>
      <trkpt lat="44.78501" lon="6.36175">
        <ele>2380.2</ele>
        <time>2024-08-12T07:06:24Z</time>
      </trkpt>
      <trkpt lat="44.78501" lon="6.36175">
        <ele>2380.2</ele>
        <time>2024-08-12T07:06:25Z</time>
      </trkpt>
      <trkpt lat="44.78501" lon="6.36175">
        <ele>2380.2</ele>
        <time>2024-08-12T07:06:26Z</time>
      </trkpt>
      <trkpt lat="44.78501" lon="6.36175">
        <ele>2380.2</ele>
        <time>2024-08-12T07:06:27Z</time>
      </trkpt>
      <trkpt lat="44.78501" lon="6.36175">
        <ele>2380.2</ele>
        <time>2024-08-12T07:06:28Z</time>
      </trkpt>
      <trkpt lat="44.78501" lon="6.36175">
        <ele>2380.2</ele>
        <time>2024-08-12T07:06:29Z</time>
      </trkpt>
      <trkpt lat="44.78501" lon="6.36175">
        <ele>2380.2</ele>
        <time>2024-08-12T07:06:30Z</time>
      </trkpt>
      <trkpt lat="44.78501" lon="6.36175">
        <ele>2380</ele>
        <time>2024-08-12T07:06:31Z</time>
      </trkpt>
      <trkpt lat="44.78501" lon="6.36175">
        <ele>2380</ele>
        <time>2024-08-12T07:06:32Z</time>
      </trkpt>
      <trkpt lat="44.78501" lon="6.36175">
        <ele>2380</ele>
        <time>2024-08-12T07:06:33Z</time>
      </trkpt>
      <trkpt lat="44.78501" lon="6.36175">
        <ele>2380</ele>
        <time>2024-08-12T07:06:34Z</time>
      </trkpt>
      <trkpt lat="44.78501" lon="6.36175">
        <ele>2380.2</ele>
        <time>2024-08-12T07:06:35Z</time>
      </trkpt>
      <trkpt lat="44.78501" lon="6.36175">
        <ele>2380.2</ele>
        <time>2024-08-12T07:06:36Z</time>
      </trkpt>
      <trkpt lat="44.78501" lon="6.36175">
        <ele>2379.8</ele>
        <time>2024-08-12T07:06:37Z</time>
      </trkpt>
      <trkpt lat="44.78501" lon="6.36175">
        <ele>2379.8</ele>
        <time>2024-08-12T07:06:38Z</time>
      </trkpt>
      <trkpt lat="44.78501" lon="6.36175">
        <ele>2380</ele>
        <time>2024-08-12T07:06:39Z</time>
      </trkpt>
      <trkpt lat="44.78501" lon="6.36175">
        <ele>2380</ele>
        <time>2024-08-12T07:06:40Z</time>
      </trkpt>
      <trkpt lat="44.78501" lon="6.36175">
        <ele>2380</ele>
        <time>2024-08-12T07:06:41Z</time>
      </trkpt>
      <trkpt lat="44.78501" lon="6.36175">
        <ele>2380</ele>
        <time>2024-08-12T07:06:42Z</time>
      </trkpt>
      <trkpt lat="44.78501" lon="6.36175">
        <ele>2380.4</ele>
        <time>2024-08-12T07:06:43Z</time>
      </trkpt>
      <trkpt lat="44.78501" lon="6.36175">
        <ele>2380.6</ele>
        <time>2024-08-12T07:06:44Z</time>
      </trkpt>
      <trkpt lat="44.78501" lon="6.36175">
        <ele>2380.6</ele>
        <time>2024-08-12T07:06:45Z</time>
      </trkpt>
      <trkpt lat="44.78501" lon="6.36175">
        <ele>2380.6</ele>
        <time>2024-08-12T07:06:46Z</time>
      </trkpt>
      <trkpt lat="44.78501" lon="6.36175">
        <ele>2380.6</ele>
        <time>2024-08-12T07:06:47Z</time>
      </trkpt>
      <trkpt lat="44.78501" lon="6.36175">
        <ele>2380.8</ele>
        <time>2024-08-12T07:06:48Z</time>
      </trkpt>
      <trkpt lat="44.78501" lon="6.36175">
        <ele>2380.8</ele>
        <time>2024-08-12T07:06:49Z</time>
      </trkpt>
      <trkpt lat="44.78501" lon="6.36175">
        <ele>2381</ele>
        <time>2024-08-12T07:06:50Z</time>
      </trkpt>
      <trkpt lat="44.78501" lon="6.36175">
        <ele>2381</ele>
        <time>2024-08-12T07:06:51Z</time>
      </trkpt>
      <trkpt lat="44.78501" lon="6.36175">
        <ele>2381</ele>
        <time>2024-08-12T07:06:52Z</time>
      </trkpt>
      <trkpt lat="44.78501" lon="6.36175">
        <ele>2381</ele>
        <time>2024-08-12T07:06:53Z</time>
      </trkpt>
      <trkpt lat="44.78501" lon="6.36175">
        <ele>2380.8</ele>
        <time>2024-08-12T07:06:54Z</time>
      </trkpt>
      <trkpt lat="44.78501" lon="6.36175">
        <ele>2380.8</ele>
        <time>2024-08-12T07:06:55Z</time>
      </trkpt>
      <trkpt lat="44.78501" lon="6.36175">
        <ele>2380.6</ele>
        <time>2024-08-12T07:06:56Z</time>
      </trkpt>
      <trkpt lat="44.78501" lon="6.36175">
        <ele>2380.6</ele>
        <time>2024-08-12T07:06:57Z</time>
      </trkpt>
      <trkpt lat="44.78501" lon="6.36175">
        <ele>2380.6</ele>
        <time>2024-08-12T07:06:58Z</time>
      </trkpt>
      <trkpt lat="44.78501" lon="6.36175">
        <ele>2380.6</ele>
        <time>2024-08-12T07:06:59Z</time>
      </trkpt>
      <trkpt lat="44.78499" lon="6.36174">
        <ele>2380.8</ele>
        <time>2024-08-12T07:07:00Z</time>
      </trkpt>
      <trkpt lat="44.78499" lon="6.36174">
        <ele>2380.8</ele>
        <time>2024-08-12T07:07:01Z</time>
      </trkpt>
      <trkpt lat="44.78499" lon="6.36174">
        <ele>2381.4</ele>
        <time>2024-08-12T07:07:02Z</time>
      </trkpt>
      <trkpt lat="44.78497" lon="6.36174">
        <ele>2381.4</ele>
        <time>2024-08-12T07:07:03Z</time>
      </trkpt>
      <trkpt lat="44.78497" lon="6.36174">
        <ele>2381.4</ele>
        <time>2024-08-12T07:07:04Z</time>
      </trkpt>
      <trkpt lat="44.78495" lon="6.36173">
        <ele>2381.4</ele>
        <time>2024-08-12T07:07:05Z</time>
      </trkpt>
      <trkpt lat="44.78495" lon="6.36173">
        <ele>2381.4</ele>
        <time>2024-08-12T07:07:06Z</time>
      </trkpt>
      <trkpt lat="44.78495" lon="6.36173">
        <ele>2381.8</ele>
        <time>2024-08-12T07:07:07Z</time>
      </trkpt>
      <trkpt lat="44.78493" lon="6.36171">
        <ele>2382</ele>
        <time>2024-08-12T07:07:08Z</time>
      </trkpt>
      <trkpt lat="44.78493" lon="6.36171">
        <ele>2382</ele>
        <time>2024-08-12T07:07:09Z</time>
      </trkpt>
      <trkpt lat="44.78491" lon="6.3617">
        <ele>2382.2</ele>
        <time>2024-08-12T07:07:10Z</time>
      </trkpt>
      <trkpt lat="44.78491" lon="6.3617">
        <ele>2382.2</ele>
        <time>2024-08-12T07:07:11Z</time>
      </trkpt>
      <trkpt lat="44.78491" lon="6.3617">
        <ele>2382.2</ele>
        <time>2024-08-12T07:07:12Z</time>
      </trkpt>
      <trkpt lat="44.78491" lon="6.3617">
        <ele>2382.4</ele>
        <time>2024-08-12T07:07:13Z</time>
      </trkpt>
      <trkpt lat="44.78489" lon="6.36169">
        <ele>2383</ele>
        <time>2024-08-12T07:07:14Z</time>
      </trkpt>
      <trkpt lat="44.78489" lon="6.36169">
        <ele>2383.4</ele>
        <time>2024-08-12T07:07:15Z</time>
      </trkpt>
      <trkpt lat="44.78487" lon="6.36169">
        <ele>2383.4</ele>
        <time>2024-08-12T07:07:16Z</time>
      </trkpt>
      <trkpt lat="44.78487" lon="6.36169">
        <ele>2383.6</ele>
        <time>2024-08-12T07:07:17Z</time>
      </trkpt>
      <trkpt lat="44.78487" lon="6.36169">
        <ele>2383.6</ele>
        <time>2024-08-12T07:07:18Z</time>
      </trkpt>
      <trkpt lat="44.78485" lon="6.3617">
        <ele>2383.6</ele>
        <time>2024-08-12T07:07:19Z</time>
      </trkpt>
      <trkpt lat="44.78485" lon="6.3617">
        <ele>2383.6</ele>
        <time>2024-08-12T07:07:20Z</time>
      </trkpt>
      <trkpt lat="44.78482" lon="6.3617">
        <ele>2383.6</ele>
        <time>2024-08-12T07:07:21Z</time>
      </trkpt>
      <trkpt lat="44.78482" lon="6.3617">
        <ele>2383.8</ele>
        <time>2024-08-12T07:07:22Z</time>
      </trkpt>
      <trkpt lat="44.78482" lon="6.3617">
        <ele>2383.8</ele>
        <time>2024-08-12T07:07:23Z</time>
      </trkpt>
      <trkpt lat="44.78483" lon="6.36167">
        <ele>2384</ele>
        <time>2024-08-12T07:07:24Z</time>
      </trkpt>
      <trkpt lat="44.78483" lon="6.36167">
        <ele>2384.2</ele>
        <time>2024-08-12T07:07:25Z</time>
      </trkpt>
      <trkpt lat="44.78483" lon="6.36167">
        <ele>2384.4</ele>
        <time>2024-08-12T07:07:26Z</time>
      </trkpt>
      <trkpt lat="44.78485" lon="6.36164">
        <ele>2384.6</ele>
        <time>2024-08-12T07:07:27Z</time>
      </trkpt>
      <trkpt lat="44.78485" lon="6.36164">
        <ele>2384.6</ele>
        <time>2024-08-12T07:07:28Z</time>
      </trkpt>
      <trkpt lat="44.78486" lon="6.36163">
        <ele>2385</ele>
        <time>2024-08-12T07:07:29Z</time>
      </trkpt>
      <trkpt lat="44.78486" lon="6.36163">
        <ele>2385.2</ele>
        <time>2024-08-12T07:07:30Z</time>
      </trkpt>
      <trkpt lat="44.78486" lon="6.36163">
        <ele>2385.2</ele>
        <time>2024-08-12T07:07:31Z</time>
      </trkpt>
      <trkpt lat="44.7849" lon="6.36162">
        <ele>2385.2</ele>
        <time>2024-08-12T07:07:32Z</time>
      </trkpt>
      <trkpt lat="44.7849" lon="6.36162">
        <ele>2385.4</ele>
        <time>2024-08-12T07:07:33Z</time>
      </trkpt>
      <trkpt lat="44.78492" lon="6.3616">
        <ele>2385.4</ele>
        <time>2024-08-12T07:07:34Z</time>
      </trkpt>
      <trkpt lat="44.78492" lon="6.3616">
        <ele>2385.4</ele>
        <time>2024-08-12T07:07:35Z</time>
      </trkpt>
      <trkpt lat="44.78493" lon="6.36159">
        <ele>2385.4</ele>
        <time>2024-08-12T07:07:36Z</time>
      </trkpt>
      <trkpt lat="44.78493" lon="6.36159">
        <ele>2385.8</ele>
        <time>2024-08-12T07:07:37Z</time>
      </trkpt>
      <trkpt lat="44.78495" lon="6.36159">
        <ele>2386</ele>
        <time>2024-08-12T07:07:38Z</time>
      </trkpt>
      <trkpt lat="44.78495" lon="6.36159">
        <ele>2386.2</ele>
        <time>2024-08-12T07:07:39Z</time>
      </trkpt>
      <trkpt lat="44.78495" lon="6.36159">
        <ele>2386.2</ele>
        <time>2024-08-12T07:07:40Z</time>
      </trkpt>
      <trkpt lat="44.78497" lon="6.36159">
        <ele>2386.4</ele>
        <time>2024-08-12T07:07:41Z</time>
      </trkpt>
      <trkpt lat="44.78497" lon="6.36159">
        <ele>2386.6</ele>
        <time>2024-08-12T07:07:42Z</time>
      </trkpt>
      <trkpt lat="44.78497" lon="6.36159">
        <ele>2386.8</ele>
        <time>2024-08-12T07:07:43Z</time>
      </trkpt>
      <trkpt lat="44.78499" lon="6.36159">
        <ele>2386.8</ele>
        <time>2024-08-12T07:07:44Z</time>
      </trkpt>
      <trkpt lat="44.78499" lon="6.36159">
        <ele>2387</ele>
        <time>2024-08-12T07:07:45Z</time>
      </trkpt>
      <trkpt lat="44.78499" lon="6.36159">
        <ele>2387</ele>
        <time>2024-08-12T07:07:46Z</time>
      </trkpt>
      <trkpt lat="44.78501" lon="6.36159">
        <ele>2387</ele>
        <time>2024-08-12T07:07:47Z</time>
      </trkpt>
      <trkpt lat="44.78501" lon="6.36159">
        <ele>2387.4</ele>
        <time>2024-08-12T07:07:48Z</time>
      </trkpt>
      <trkpt lat="44.78501" lon="6.36159">
        <ele>2387.6</ele>
        <time>2024-08-12T07:07:49Z</time>
      </trkpt>
      <trkpt lat="44.78501" lon="6.36159">
        <ele>2387.8</ele>
        <time>2024-08-12T07:07:50Z</time>
      </trkpt>
      <trkpt lat="44.78504" lon="6.36159">
        <ele>2387.8</ele>
        <time>2024-08-12T07:07:51Z</time>
      </trkpt>
      <trkpt lat="44.78504" lon="6.36159">
        <ele>2387.8</ele>
        <time>2024-08-12T07:07:52Z</time>
      </trkpt>
      <trkpt lat="44.78504" lon="6.36159">
        <ele>2388</ele>
        <time>2024-08-12T07:07:53Z</time>
      </trkpt>
      <trkpt lat="44.78504" lon="6.36159">
        <ele>2388.2</ele>
        <time>2024-08-12T07:07:54Z</time>
      </trkpt>
      <trkpt lat="44.78504" lon="6.36159">
        <ele>2388.4</ele>
        <time>2024-08-12T07:07:55Z</time>
      </trkpt>
      <trkpt lat="44.78505" lon="6.36157">
        <ele>2388.4</ele>
        <time>2024-08-12T07:07:56Z</time>
      </trkpt>
      <trkpt lat="44.78505" lon="6.36157">
        <ele>2388.8</ele>
        <time>2024-08-12T07:07:57Z</time>
      </trkpt>
      <trkpt lat="44.78505" lon="6.36157">
        <ele>2388.8</ele>
        <time>2024-08-12T07:07:58Z</time>
      </trkpt>
      <trkpt lat="44.78505" lon="6.36157">
        <ele>2389</ele>
        <time>2024-08-12T07:07:59Z</time>
      </trkpt>
      <trkpt lat="44.78504" lon="6.36156">
        <ele>2389.2</ele>
        <time>2024-08-12T07:08:00Z</time>
      </trkpt>
      <trkpt lat="44.78504" lon="6.36156">
        <ele>2389.6</ele>
        <time>2024-08-12T07:08:01Z</time>
      </trkpt>
      <trkpt lat="44.78504" lon="6.36156">
        <ele>2390</ele>
        <time>2024-08-12T07:08:02Z</time>
      </trkpt>
      <trkpt lat="44.78504" lon="6.36156">
        <ele>2390</ele>
        <time>2024-08-12T07:08:03Z</time>
      </trkpt>
      <trkpt lat="44.78504" lon="6.36156">
        <ele>2390.2</ele>
        <time>2024-08-12T07:08:04Z</time>
      </trkpt>
      <trkpt lat="44.78504" lon="6.36156">
        <ele>2390.2</ele>
        <time>2024-08-12T07:08:05Z</time>
      </trkpt>
      <trkpt lat="44.78504" lon="6.36156">
        <ele>2390.4</ele>
        <time>2024-08-12T07:08:06Z</time>
      </trkpt>
      <trkpt lat="44.78504" lon="6.36156">
        <ele>2390.6</ele>
        <time>2024-08-12T07:08:07Z</time>
      </trkpt>
      <trkpt lat="44.78504" lon="6.36156">
        <ele>2390.8</ele>
        <time>2024-08-12T07:08:08Z</time>
      </trkpt>
      <trkpt lat="44.78504" lon="6.36156">
        <ele>2390.8</ele>
        <time>2024-08-12T07:08:09Z</time>
      </trkpt>
      <trkpt lat="44.78504" lon="6.36156">
        <ele>2390.6</ele>
        <time>2024-08-12T07:08:10Z</time>
      </trkpt>
      <trkpt lat="44.78504" lon="6.36156">
        <ele>2390.6</ele>
        <time>2024-08-12T07:08:11Z</time>
      </trkpt>
      <trkpt lat="44.78504" lon="6.36156">
        <ele>2390.8</ele>
        <time>2024-08-12T07:08:12Z</time>
      </trkpt>
      <trkpt lat="44.78504" lon="6.36156">
        <ele>2390.8</ele>
        <time>2024-08-12T07:08:13Z</time>
      </trkpt>
      <trkpt lat="44.78504" lon="6.36156">
        <ele>2390.8</ele>
        <time>2024-08-12T07:08:14Z</time>
      </trkpt>
      <trkpt lat="44.78504" lon="6.36156">
        <ele>2390.8</ele>
        <time>2024-08-12T07:08:15Z</time>
      </trkpt>
      <trkpt lat="44.78504" lon="6.36156">
        <ele>2390.8</ele>
        <time>2024-08-12T07:08:16Z</time>
      </trkpt>
      <trkpt lat="44.78501" lon="6.36155">
        <ele>2390.8</ele>
        <time>2024-08-12T07:08:17Z</time>
      </trkpt>
      <trkpt lat="44.78501" lon="6.36155">
        <ele>2391</ele>
        <time>2024-08-12T07:08:18Z</time>
      </trkpt>
      <trkpt lat="44.78499" lon="6.36155">
        <ele>2391.4</ele>
        <time>2024-08-12T07:08:19Z</time>
      </trkpt>
      <trkpt lat="44.78499" lon="6.36155">
        <ele>2391.6</ele>
        <time>2024-08-12T07:08:20Z</time>
      </trkpt>
      <trkpt lat="44.78497" lon="6.36153">
        <ele>2391.8</ele>
        <time>2024-08-12T07:08:21Z</time>
      </trkpt>
      <trkpt lat="44.78497" lon="6.36153">
        <ele>2391.8</ele>
        <time>2024-08-12T07:08:22Z</time>
      </trkpt>
      <trkpt lat="44.78494" lon="6.36152">
        <ele>2392</ele>
        <time>2024-08-12T07:08:23Z</time>
      </trkpt>
      <trkpt lat="44.78494" lon="6.36152">
        <ele>2392.2</ele>
        <time>2024-08-12T07:08:24Z</time>
      </trkpt>
      <trkpt lat="44.78494" lon="6.36152">
        <ele>2392.8</ele>
        <time>2024-08-12T07:08:25Z</time>
      </trkpt>
      <trkpt lat="44.78493" lon="6.3615">
        <ele>2393</ele>
        <time>2024-08-12T07:08:26Z</time>
      </trkpt>
      <trkpt lat="44.78493" lon="6.3615">
        <ele>2393.4</ele>
        <time>2024-08-12T07:08:27Z</time>
      </trkpt>
      <trkpt lat="44.78493" lon="6.3615">
        <ele>2393.4</ele>
        <time>2024-08-12T07:08:28Z</time>
      </trkpt>
      <trkpt lat="44.78491" lon="6.36149">
        <ele>2393.4</ele>
        <time>2024-08-12T07:08:29Z</time>
      </trkpt>
      <trkpt lat="44.78491" lon="6.36149">
        <ele>2394</ele>
        <time>2024-08-12T07:08:30Z</time>
      </trkpt>
      <trkpt lat="44.78491" lon="6.36149">
        <ele>2394.2</ele>
        <time>2024-08-12T07:08:31Z</time>
      </trkpt>
      <trkpt lat="44.78489" lon="6.36149">
        <ele>2394.2</ele>
        <time>2024-08-12T07:08:32Z</time>
      </trkpt>
      <trkpt lat="44.78489" lon="6.36149">
        <ele>2394.4</ele>
        <time>2024-08-12T07:08:33Z</time>
      </trkpt>
      <trkpt lat="44.78489" lon="6.36149">
        <ele>2394.6</ele>
        <time>2024-08-12T07:08:34Z</time>
      </trkpt>
      <trkpt lat="44.78487" lon="6.36148">
        <ele>2395</ele>
        <time>2024-08-12T07:08:35Z</time>
      </trkpt>
      <trkpt lat="44.78487" lon="6.36148">
        <ele>2395.2</ele>
        <time>2024-08-12T07:08:36Z</time>
      </trkpt>
      <trkpt lat="44.78487" lon="6.36148">
        <ele>2395.2</ele>
        <time>2024-08-12T07:08:37Z</time>
      </trkpt>
      <trkpt lat="44.78485" lon="6.36147">
        <ele>2395.4</ele>
        <time>2024-08-12T07:08:38Z</time>
      </trkpt>
      <trkpt lat="44.78485" lon="6.36147">
        <ele>2395.6</ele>
        <time>2024-08-12T07:08:39Z</time>
      </trkpt>
      <trkpt lat="44.78485" lon="6.36147">
        <ele>2395.6</ele>
        <time>2024-08-12T07:08:40Z</time>
      </trkpt>
      <trkpt lat="44.78485" lon="6.36147">
        <ele>2395.8</ele>
        <time>2024-08-12T07:08:41Z</time>
      </trkpt>
      <trkpt lat="44.78482" lon="6.36145">
        <ele>2396</ele>
        <time>2024-08-12T07:08:42Z</time>
      </trkpt>
      <trkpt lat="44.78482" lon="6.36145">
        <ele>2396.2</ele>
        <time>2024-08-12T07:08:43Z</time>
      </trkpt>
      <trkpt lat="44.7848" lon="6.36145">
        <ele>2396.2</ele>
        <time>2024-08-12T07:08:44Z</time>
      </trkpt>
      <trkpt lat="44.7848" lon="6.36145">
        <ele>2396.2</ele>
        <time>2024-08-12T07:08:45Z</time>
      </trkpt>
      <trkpt lat="44.7848" lon="6.36145">
        <ele>2396.2</ele>
        <time>2024-08-12T07:08:46Z</time>
      </trkpt>
      <trkpt lat="44.78478" lon="6.36143">
        <ele>2396.4</ele>
        <time>2024-08-12T07:08:47Z</time>
      </trkpt>
      <trkpt lat="44.78478" lon="6.36143">
        <ele>2396.4</ele>
        <time>2024-08-12T07:08:48Z</time>
      </trkpt>
      <trkpt lat="44.78478" lon="6.36143">
        <ele>2397.2</ele>
        <time>2024-08-12T07:08:49Z</time>
      </trkpt>
      <trkpt lat="44.78477" lon="6.3614">
        <ele>2397.4</ele>
        <time>2024-08-12T07:08:50Z</time>
      </trkpt>
      <trkpt lat="44.78477" lon="6.3614">
        <ele>2397.4</ele>
        <time>2024-08-12T07:08:51Z</time>
      </trkpt>
      <trkpt lat="44.78479" lon="6.36137">
        <ele>2397.6</ele>
        <time>2024-08-12T07:08:52Z</time>
      </trkpt>
      <trkpt lat="44.78479" lon="6.36137">
        <ele>2397.6</ele>
        <time>2024-08-12T07:08:53Z</time>
      </trkpt>
      <trkpt lat="44.78481" lon="6.36135">
        <ele>2397.8</ele>
        <time>2024-08-12T07:08:54Z</time>
      </trkpt>
      <trkpt lat="44.78481" lon="6.36135">
        <ele>2398.2</ele>
        <time>2024-08-12T07:08:55Z</time>
      </trkpt>
      <trkpt lat="44.78483" lon="6.36134">
        <ele>2398.2</ele>
        <time>2024-08-12T07:08:56Z</time>
      </trkpt>
      <trkpt lat="44.78483" lon="6.36134">
        <ele>2398.4</ele>
        <time>2024-08-12T07:08:57Z</time>
      </trkpt>
      <trkpt lat="44.78485" lon="6.36134">
        <ele>2398.4</ele>
        <time>2024-08-12T07:08:58Z</time>
      </trkpt>
      <trkpt lat="44.78485" lon="6.36134">
        <ele>2398.4</ele>
        <time>2024-08-12T07:08:59Z</time>
      </trkpt>
      <trkpt lat="44.78487" lon="6.36134">
        <ele>2398.4</ele>
        <time>2024-08-12T07:09:00Z</time>
      </trkpt>
      <trkpt lat="44.78487" lon="6.36134">
        <ele>2398.4</ele>
        <time>2024-08-12T07:09:01Z</time>
      </trkpt>
      <trkpt lat="44.7849" lon="6.36135">
        <ele>2398.4</ele>
        <time>2024-08-12T07:09:02Z</time>
      </trkpt>
      <trkpt lat="44.7849" lon="6.36135">
        <ele>2398.4</ele>
        <time>2024-08-12T07:09:03Z</time>
      </trkpt>
      <trkpt lat="44.78492" lon="6.36135">
        <ele>2398.4</ele>
        <time>2024-08-12T07:09:04Z</time>
      </trkpt>
      <trkpt lat="44.78492" lon="6.36135">
        <ele>2398.4</ele>
        <time>2024-08-12T07:09:05Z</time>
      </trkpt>
      <trkpt lat="44.78494" lon="6.36136">
        <ele>2398.4</ele>
        <time>2024-08-12T07:09:06Z</time>
      </trkpt>
      <trkpt lat="44.78494" lon="6.36136">
        <ele>2398.4</ele>
        <time>2024-08-12T07:09:07Z</time>
      </trkpt>
      <trkpt lat="44.78494" lon="6.36136">
        <ele>2398.6</ele>
        <time>2024-08-12T07:09:08Z</time>
      </trkpt>
      <trkpt lat="44.78497" lon="6.36136">
        <ele>2398.8</ele>
        <time>2024-08-12T07:09:09Z</time>
      </trkpt>
      <trkpt lat="44.78497" lon="6.36136">
        <ele>2398.8</ele>
        <time>2024-08-12T07:09:10Z</time>
      </trkpt>
      <trkpt lat="44.78499" lon="6.36135">
        <ele>2399</ele>
        <time>2024-08-12T07:09:11Z</time>
      </trkpt>
      <trkpt lat="44.78499" lon="6.36135">
        <ele>2399.2</ele>
        <time>2024-08-12T07:09:12Z</time>
      </trkpt>
      <trkpt lat="44.78499" lon="6.36135">
        <ele>2399.6</ele>
        <time>2024-08-12T07:09:13Z</time>
      </trkpt>
      <trkpt lat="44.78499" lon="6.36135">
        <ele>2399.6</ele>
        <time>2024-08-12T07:09:14Z</time>
      </trkpt>
      <trkpt lat="44.78499" lon="6.36135">
        <ele>2399.8</ele>
        <time>2024-08-12T07:09:15Z</time>
      </trkpt>
      <trkpt lat="44.78501" lon="6.36132">
        <ele>2400.2</ele>
        <time>2024-08-12T07:09:16Z</time>
      </trkpt>
      <trkpt lat="44.78501" lon="6.36132">
        <ele>2400.4</ele>
        <time>2024-08-12T07:09:17Z</time>
      </trkpt>
      <trkpt lat="44.78501" lon="6.36132">
        <ele>2400.6</ele>
        <time>2024-08-12T07:09:18Z</time>
      </trkpt>
      <trkpt lat="44.78503" lon="6.3613">
        <ele>2400.6</ele>
        <time>2024-08-12T07:09:19Z</time>
      </trkpt>
      <trkpt lat="44.78503" lon="6.3613">
        <ele>2400.8</ele>
        <time>2024-08-12T07:09:20Z</time>
      </trkpt>
      <trkpt lat="44.78503" lon="6.3613">
        <ele>2401</ele>
        <time>2024-08-12T07:09:21Z</time>
      </trkpt>
      <trkpt lat="44.78505" lon="6.36128">
        <ele>2401.2</ele>
        <time>2024-08-12T07:09:22Z</time>
      </trkpt>
      <trkpt lat="44.78505" lon="6.36128">
        <ele>2401.4</ele>
        <time>2024-08-12T07:09:23Z</time>
      </trkpt>
      <trkpt lat="44.78507" lon="6.36127">
        <ele>2401.6</ele>
        <time>2024-08-12T07:09:24Z</time>
      </trkpt>
      <trkpt lat="44.78507" lon="6.36127">
        <ele>2401.8</ele>
        <time>2024-08-12T07:09:25Z</time>
      </trkpt>
      <trkpt lat="44.78507" lon="6.36127">
        <ele>2401.8</ele>
        <time>2024-08-12T07:09:26Z</time>
      </trkpt>
      <trkpt lat="44.78509" lon="6.36126">
        <ele>2402</ele>
        <time>2024-08-12T07:09:27Z</time>
      </trkpt>
      <trkpt lat="44.78509" lon="6.36126">
        <ele>2402.2</ele>
        <time>2024-08-12T07:09:28Z</time>
      </trkpt>
      <trkpt lat="44.78509" lon="6.36126">
        <ele>2402.4</ele>
        <time>2024-08-12T07:09:29Z</time>
      </trkpt>
      <trkpt lat="44.78511" lon="6.36124">
        <ele>2402.4</ele>
        <time>2024-08-12T07:09:30Z</time>
      </trkpt>
      <trkpt lat="44.78511" lon="6.36124">
        <ele>2402.6</ele>
        <time>2024-08-12T07:09:31Z</time>
      </trkpt>
      <trkpt lat="44.78513" lon="6.36123">
        <ele>2402.6</ele>
        <time>2024-08-12T07:09:32Z</time>
      </trkpt>
      <trkpt lat="44.78513" lon="6.36123">
        <ele>2402.6</ele>
        <time>2024-08-12T07:09:33Z</time>
      </trkpt>
      <trkpt lat="44.78513" lon="6.36123">
        <ele>2402.8</ele>
        <time>2024-08-12T07:09:34Z</time>
      </trkpt>
      <trkpt lat="44.78515" lon="6.36122">
        <ele>2402.8</ele>
        <time>2024-08-12T07:09:35Z</time>
      </trkpt>
      <trkpt lat="44.78515" lon="6.36122">
        <ele>2403</ele>
        <time>2024-08-12T07:09:36Z</time>
      </trkpt>
      <trkpt lat="44.78517" lon="6.36121">
        <ele>2403.2</ele>
        <time>2024-08-12T07:09:37Z</time>
      </trkpt>
      <trkpt lat="44.78519" lon="6.36121">
        <ele>2403.4</ele>
        <time>2024-08-12T07:09:38Z</time>
      </trkpt>
      <trkpt lat="44.78519" lon="6.36121">
        <ele>2403.4</ele>
        <time>2024-08-12T07:09:39Z</time>
      </trkpt>
      <trkpt lat="44.78521" lon="6.3612">
        <ele>2403.6</ele>
        <time>2024-08-12T07:09:40Z</time>
      </trkpt>
      <trkpt lat="44.78521" lon="6.3612">
        <ele>2404</ele>
        <time>2024-08-12T07:09:41Z</time>
      </trkpt>
      <trkpt lat="44.78521" lon="6.3612">
        <ele>2404.4</ele>
        <time>2024-08-12T07:09:42Z</time>
      </trkpt>
      <trkpt lat="44.78522" lon="6.36118">
        <ele>2404.4</ele>
        <time>2024-08-12T07:09:43Z</time>
      </trkpt>
      <trkpt lat="44.78522" lon="6.36118">
        <ele>2404.6</ele>
        <time>2024-08-12T07:09:44Z</time>
      </trkpt>
      <trkpt lat="44.78522" lon="6.36118">
        <ele>2404.6</ele>
        <time>2024-08-12T07:09:45Z</time>
      </trkpt>
      <trkpt lat="44.78525" lon="6.36117">
        <ele>2404.8</ele>
        <time>2024-08-12T07:09:46Z</time>
      </trkpt>
      <trkpt lat="44.78525" lon="6.36117">
        <ele>2405</ele>
        <time>2024-08-12T07:09:47Z</time>
      </trkpt>
      <trkpt lat="44.78526" lon="6.36115">
        <ele>2405.2</ele>
        <time>2024-08-12T07:09:48Z</time>
      </trkpt>
      <trkpt lat="44.78526" lon="6.36115">
        <ele>2405.2</ele>
        <time>2024-08-12T07:09:49Z</time>
      </trkpt>
      <trkpt lat="44.78526" lon="6.36115">
        <ele>2405.4</ele>
        <time>2024-08-12T07:09:50Z</time>
      </trkpt>
      <trkpt lat="44.78529" lon="6.36114">
        <ele>2405.6</ele>
        <time>2024-08-12T07:09:51Z</time>
      </trkpt>
      <trkpt lat="44.78529" lon="6.36114">
        <ele>2405.6</ele>
        <time>2024-08-12T07:09:52Z</time>
      </trkpt>
      <trkpt lat="44.78531" lon="6.36113">
        <ele>2405.6</ele>
        <time>2024-08-12T07:09:53Z</time>
      </trkpt>
      <trkpt lat="44.78531" lon="6.36113">
        <ele>2405.8</ele>
        <time>2024-08-12T07:09:54Z</time>
      </trkpt>
      <trkpt lat="44.78533" lon="6.36113">
        <ele>2406</ele>
        <time>2024-08-12T07:09:55Z</time>
      </trkpt>
      <trkpt lat="44.78533" lon="6.36113">
        <ele>2406</ele>
        <time>2024-08-12T07:09:56Z</time>
      </trkpt>
      <trkpt lat="44.78533" lon="6.36113">
        <ele>2406.2</ele>
        <time>2024-08-12T07:09:57Z</time>
      </trkpt>
      <trkpt lat="44.78535" lon="6.36111">
        <ele>2406.2</ele>
        <time>2024-08-12T07:09:58Z</time>
      </trkpt>
      <trkpt lat="44.78535" lon="6.36111">
        <ele>2406.4</ele>
        <time>2024-08-12T07:09:59Z</time>
      </trkpt>
      <trkpt lat="44.78535" lon="6.36111">
        <ele>2406.6</ele>
        <time>2024-08-12T07:10:00Z</time>
      </trkpt>
      <trkpt lat="44.78533" lon="6.3611">
        <ele>2406.6</ele>
        <time>2024-08-12T07:10:01Z</time>
      </trkpt>
      <trkpt lat="44.78533" lon="6.3611">
        <ele>2407</ele>
        <time>2024-08-12T07:10:02Z</time>
      </trkpt>
      <trkpt lat="44.78532" lon="6.36109">
        <ele>2407.2</ele>
        <time>2024-08-12T07:10:03Z</time>
      </trkpt>
      <trkpt lat="44.78532" lon="6.36109">
        <ele>2407.4</ele>
        <time>2024-08-12T07:10:04Z</time>
      </trkpt>
      <trkpt lat="44.7853" lon="6.36109">
        <ele>2407.4</ele>
        <time>2024-08-12T07:10:05Z</time>
      </trkpt>
      <trkpt lat="44.7853" lon="6.36109">
        <ele>2407.8</ele>
        <time>2024-08-12T07:10:06Z</time>
      </trkpt>
      <trkpt lat="44.78528" lon="6.36108">
        <ele>2407.8</ele>
        <time>2024-08-12T07:10:07Z</time>
      </trkpt>
      <trkpt lat="44.78528" lon="6.36108">
        <ele>2407.8</ele>
        <time>2024-08-12T07:10:08Z</time>
      </trkpt>
      <trkpt lat="44.78528" lon="6.36108">
        <ele>2408.2</ele>
        <time>2024-08-12T07:10:09Z</time>
      </trkpt>
      <trkpt lat="44.78525" lon="6.36107">
        <ele>2408.2</ele>
        <time>2024-08-12T07:10:10Z</time>
      </trkpt>
      <trkpt lat="44.78525" lon="6.36107">
        <ele>2408.2</ele>
        <time>2024-08-12T07:10:11Z</time>
      </trkpt>
      <trkpt lat="44.78525" lon="6.36107">
        <ele>2408.8</ele>
        <time>2024-08-12T07:10:12Z</time>
      </trkpt>
      <trkpt lat="44.78525" lon="6.36107">
        <ele>2409</ele>
        <time>2024-08-12T07:10:13Z</time>
      </trkpt>
      <trkpt lat="44.78525" lon="6.36107">
        <ele>2409</ele>
        <time>2024-08-12T07:10:14Z</time>
      </trkpt>
      <trkpt lat="44.78523" lon="6.36105">
        <ele>2409.4</ele>
        <time>2024-08-12T07:10:15Z</time>
      </trkpt>
      <trkpt lat="44.78523" lon="6.36105">
        <ele>2409.8</ele>
        <time>2024-08-12T07:10:16Z</time>
      </trkpt>
      <trkpt lat="44.78521" lon="6.36103">
        <ele>2410.2</ele>
        <time>2024-08-12T07:10:17Z</time>
      </trkpt>
      <trkpt lat="44.78521" lon="6.36103">
        <ele>2410.4</ele>
        <time>2024-08-12T07:10:18Z</time>
      </trkpt>
      <trkpt lat="44.7852" lon="6.36102">
        <ele>2410.4</ele>
        <time>2024-08-12T07:10:19Z</time>
      </trkpt>
      <trkpt lat="44.7852" lon="6.36102">
        <ele>2410.6</ele>
        <time>2024-08-12T07:10:20Z</time>
      </trkpt>
      <trkpt lat="44.78518" lon="6.36101">
        <ele>2411</ele>
        <time>2024-08-12T07:10:21Z</time>
      </trkpt>
      <trkpt lat="44.78518" lon="6.36101">
        <ele>2411</ele>
        <time>2024-08-12T07:10:22Z</time>
      </trkpt>
      <trkpt lat="44.78518" lon="6.36101">
        <ele>2411</ele>
        <time>2024-08-12T07:10:23Z</time>
      </trkpt>
      <trkpt lat="44.78518" lon="6.36101">
        <ele>2411.6</ele>
        <time>2024-08-12T07:10:24Z</time>
      </trkpt>
      <trkpt lat="44.78516" lon="6.36098">
        <ele>2411.6</ele>
        <time>2024-08-12T07:10:25Z</time>
      </trkpt>
      <trkpt lat="44.78516" lon="6.36098">
        <ele>2411.6</ele>
        <time>2024-08-12T07:10:26Z</time>
      </trkpt>
      <trkpt lat="44.78516" lon="6.36098">
        <ele>2412</ele>
        <time>2024-08-12T07:10:27Z</time>
      </trkpt>
      <trkpt lat="44.78516" lon="6.36098">
        <ele>2412.2</ele>
        <time>2024-08-12T07:10:28Z</time>
      </trkpt>
      <trkpt lat="44.78514" lon="6.36096">
        <ele>2412.4</ele>
        <time>2024-08-12T07:10:29Z</time>
      </trkpt>
      <trkpt lat="44.78514" lon="6.36096">
        <ele>2412.6</ele>
        <time>2024-08-12T07:10:30Z</time>
      </trkpt>
      <trkpt lat="44.78514" lon="6.36096">
        <ele>2412.6</ele>
        <time>2024-08-12T07:10:31Z</time>
      </trkpt>
      <trkpt lat="44.78512" lon="6.36094">
        <ele>2412.6</ele>
        <time>2024-08-12T07:10:32Z</time>
      </trkpt>
      <trkpt lat="44.78512" lon="6.36094">
        <ele>2413</ele>
        <time>2024-08-12T07:10:33Z</time>
      </trkpt>
      <trkpt lat="44.78512" lon="6.36094">
        <ele>2413.4</ele>
        <time>2024-08-12T07:10:34Z</time>
      </trkpt>
      <trkpt lat="44.78511" lon="6.36091">
        <ele>2413.4</ele>
        <time>2024-08-12T07:10:35Z</time>
      </trkpt>
      <trkpt lat="44.78511" lon="6.36091">
        <ele>2413.6</ele>
        <time>2024-08-12T07:10:36Z</time>
      </trkpt>
      <trkpt lat="44.78511" lon="6.36091">
        <ele>2413.8</ele>
        <time>2024-08-12T07:10:37Z</time>
      </trkpt>
      <trkpt lat="44.78509" lon="6.3609">
        <ele>2414</ele>
        <time>2024-08-12T07:10:38Z</time>
      </trkpt>
      <trkpt lat="44.78509" lon="6.3609">
        <ele>2414</ele>
        <time>2024-08-12T07:10:39Z</time>
      </trkpt>
      <trkpt lat="44.78509" lon="6.3609">
        <ele>2414.4</ele>
        <time>2024-08-12T07:10:40Z</time>
      </trkpt>
      <trkpt lat="44.78509" lon="6.36087">
        <ele>2414.4</ele>
        <time>2024-08-12T07:10:41Z</time>
      </trkpt>
      <trkpt lat="44.78509" lon="6.36087">
        <ele>2414.6</ele>
        <time>2024-08-12T07:10:42Z</time>
      </trkpt>
      <trkpt lat="44.78508" lon="6.36084">
        <ele>2414.8</ele>
        <time>2024-08-12T07:10:43Z</time>
      </trkpt>
      <trkpt lat="44.78508" lon="6.36084">
        <ele>2415</ele>
        <time>2024-08-12T07:10:44Z</time>
      </trkpt>
      <trkpt lat="44.78508" lon="6.36084">
        <ele>2415.2</ele>
        <time>2024-08-12T07:10:45Z</time>
      </trkpt>
      <trkpt lat="44.78506" lon="6.36083">
        <ele>2415.4</ele>
        <time>2024-08-12T07:10:46Z</time>
      </trkpt>
      <trkpt lat="44.78506" lon="6.36083">
        <ele>2415.4</ele>
        <time>2024-08-12T07:10:47Z</time>
      </trkpt>
      <trkpt lat="44.78505" lon="6.36081">
        <ele>2415.6</ele>
        <time>2024-08-12T07:10:48Z</time>
      </trkpt>
      <trkpt lat="44.78505" lon="6.36081">
        <ele>2415.6</ele>
        <time>2024-08-12T07:10:49Z</time>
      </trkpt>
      <trkpt lat="44.78504" lon="6.36078">
        <ele>2415.8</ele>
        <time>2024-08-12T07:10:50Z</time>
      </trkpt>
      <trkpt lat="44.78504" lon="6.36078">
        <ele>2415.8</ele>
        <time>2024-08-12T07:10:51Z</time>
      </trkpt>
      <trkpt lat="44.78506" lon="6.36076">
        <ele>2416</ele>
        <time>2024-08-12T07:10:52Z</time>
      </trkpt>
      <trkpt lat="44.78506" lon="6.36076">
        <ele>2416</ele>
        <time>2024-08-12T07:10:53Z</time>
      </trkpt>
      <trkpt lat="44.78509" lon="6.36075">
        <ele>2416.2</ele>
        <time>2024-08-12T07:10:54Z</time>
      </trkpt>
      <trkpt lat="44.78509" lon="6.36075">
        <ele>2416.4</ele>
        <time>2024-08-12T07:10:55Z</time>
      </trkpt>
      <trkpt lat="44.78511" lon="6.36076">
        <ele>2416.8</ele>
        <time>2024-08-12T07:10:56Z</time>
      </trkpt>
      <trkpt lat="44.78511" lon="6.36076">
        <ele>2417.2</ele>
        <time>2024-08-12T07:10:57Z</time>
      </trkpt>
      <trkpt lat="44.78514" lon="6.36077">
        <ele>2417.4</ele>
        <time>2024-08-12T07:10:58Z</time>
      </trkpt>
      <trkpt lat="44.78514" lon="6.36077">
        <ele>2417.4</ele>
        <time>2024-08-12T07:10:59Z</time>
      </trkpt>
      <trkpt lat="44.78516" lon="6.36077">
        <ele>2417.4</ele>
        <time>2024-08-12T07:11:00Z</time>
      </trkpt>
      <trkpt lat="44.78516" lon="6.36077">
        <ele>2417</ele>
        <time>2024-08-12T07:11:01Z</time>
      </trkpt>
      <trkpt lat="44.78519" lon="6.36077">
        <ele>2416.8</ele>
        <time>2024-08-12T07:11:02Z</time>
      </trkpt>
      <trkpt lat="44.78519" lon="6.36077">
        <ele>2416.8</ele>
        <time>2024-08-12T07:11:03Z</time>
      </trkpt>
      <trkpt lat="44.78521" lon="6.36077">
        <ele>2416.8</ele>
        <time>2024-08-12T07:11:04Z</time>
      </trkpt>
      <trkpt lat="44.78521" lon="6.36077">
        <ele>2416.4</ele>
        <time>2024-08-12T07:11:05Z</time>
      </trkpt>
      <trkpt lat="44.78523" lon="6.36076">
        <ele>2416.2</ele>
        <time>2024-08-12T07:11:06Z</time>
      </trkpt>
      <trkpt lat="44.78523" lon="6.36076">
        <ele>2416.2</ele>
        <time>2024-08-12T07:11:07Z</time>
      </trkpt>
      <trkpt lat="44.78525" lon="6.36074">
        <ele>2415.8</ele>
        <time>2024-08-12T07:11:08Z</time>
      </trkpt>
      <trkpt lat="44.78525" lon="6.36074">
        <ele>2415.8</ele>
        <time>2024-08-12T07:11:09Z</time>
      </trkpt>
      <trkpt lat="44.78525" lon="6.36074">
        <ele>2415.6</ele>
        <time>2024-08-12T07:11:10Z</time>
      </trkpt>
      <trkpt lat="44.78523" lon="6.36071">
        <ele>2415.6</ele>
        <time>2024-08-12T07:11:11Z</time>
      </trkpt>
      <trkpt lat="44.78523" lon="6.36071">
        <ele>2416</ele>
        <time>2024-08-12T07:11:12Z</time>
      </trkpt>
      <trkpt lat="44.78522" lon="6.36069">
        <ele>2416</ele>
        <time>2024-08-12T07:11:13Z</time>
      </trkpt>
      <trkpt lat="44.78522" lon="6.36069">
        <ele>2416.2</ele>
        <time>2024-08-12T07:11:14Z</time>
      </trkpt>
      <trkpt lat="44.78522" lon="6.36069">
        <ele>2416.6</ele>
        <time>2024-08-12T07:11:15Z</time>
      </trkpt>
      <trkpt lat="44.78522" lon="6.36069">
        <ele>2416.8</ele>
        <time>2024-08-12T07:11:16Z</time>
      </trkpt>
      <trkpt lat="44.78521" lon="6.36066">
        <ele>2416.8</ele>
        <time>2024-08-12T07:11:17Z</time>
      </trkpt>
      <trkpt lat="44.78521" lon="6.36066">
        <ele>2417.4</ele>
        <time>2024-08-12T07:11:18Z</time>
      </trkpt>
      <trkpt lat="44.78521" lon="6.36066">
        <ele>2418</ele>
        <time>2024-08-12T07:11:19Z</time>
      </trkpt>
      <trkpt lat="44.7852" lon="6.36064">
        <ele>2418.4</ele>
        <time>2024-08-12T07:11:20Z</time>
      </trkpt>
      <trkpt lat="44.7852" lon="6.36064">
        <ele>2418.6</ele>
        <time>2024-08-12T07:11:21Z</time>
      </trkpt>
      <trkpt lat="44.78518" lon="6.36063">
        <ele>2418.8</ele>
        <time>2024-08-12T07:11:22Z</time>
      </trkpt>
      <trkpt lat="44.78518" lon="6.36063">
        <ele>2419</ele>
        <time>2024-08-12T07:11:23Z</time>
      </trkpt>
      <trkpt lat="44.78517" lon="6.36061">
        <ele>2419</ele>
        <time>2024-08-12T07:11:24Z</time>
      </trkpt>
      <trkpt lat="44.78517" lon="6.36061">
        <ele>2419.2</ele>
        <time>2024-08-12T07:11:25Z</time>
      </trkpt>
      <trkpt lat="44.78515" lon="6.3606">
        <ele>2419.6</ele>
        <time>2024-08-12T07:11:26Z</time>
      </trkpt>
      <trkpt lat="44.78515" lon="6.3606">
        <ele>2419.8</ele>
        <time>2024-08-12T07:11:27Z</time>
      </trkpt>
      <trkpt lat="44.78513" lon="6.36058">
        <ele>2419.8</ele>
        <time>2024-08-12T07:11:28Z</time>
      </trkpt>
      <trkpt lat="44.78513" lon="6.36058">
        <ele>2419.8</ele>
        <time>2024-08-12T07:11:29Z</time>
      </trkpt>
      <trkpt lat="44.78513" lon="6.36058">
        <ele>2420</ele>
        <time>2024-08-12T07:11:30Z</time>
      </trkpt>
      <trkpt lat="44.78511" lon="6.36056">
        <ele>2420</ele>
        <time>2024-08-12T07:11:31Z</time>
      </trkpt>
      <trkpt lat="44.78511" lon="6.36056">
        <ele>2420.4</ele>
        <time>2024-08-12T07:11:32Z</time>
      </trkpt>
      <trkpt lat="44.78511" lon="6.36056">
        <ele>2420.8</ele>
        <time>2024-08-12T07:11:33Z</time>
      </trkpt>
      <trkpt lat="44.78509" lon="6.36053">
        <ele>2420.8</ele>
        <time>2024-08-12T07:11:34Z</time>
      </trkpt>
      <trkpt lat="44.78509" lon="6.36053">
        <ele>2421</ele>
        <time>2024-08-12T07:11:35Z</time>
      </trkpt>
      <trkpt lat="44.78509" lon="6.36053">
        <ele>2421</ele>
        <time>2024-08-12T07:11:36Z</time>
      </trkpt>
      <trkpt lat="44.78508" lon="6.36051">
        <ele>2421</ele>
        <time>2024-08-12T07:11:37Z</time>
      </trkpt>
      <trkpt lat="44.78508" lon="6.36051">
        <ele>2421.2</ele>
        <time>2024-08-12T07:11:38Z</time>
      </trkpt>
      <trkpt lat="44.78508" lon="6.36051">
        <ele>2421.4</ele>
        <time>2024-08-12T07:11:39Z</time>
      </trkpt>
      <trkpt lat="44.78505" lon="6.36048">
        <ele>2421.6</ele>
        <time>2024-08-12T07:11:40Z</time>
      </trkpt>
      <trkpt lat="44.78505" lon="6.36048">
        <ele>2421.8</ele>
        <time>2024-08-12T07:11:41Z</time>
      </trkpt>
      <trkpt lat="44.78505" lon="6.36048">
        <ele>2422</ele>
        <time>2024-08-12T07:11:42Z</time>
      </trkpt>
      <trkpt lat="44.78503" lon="6.36046">
        <ele>2422.2</ele>
        <time>2024-08-12T07:11:43Z</time>
      </trkpt>
      <trkpt lat="44.78503" lon="6.36046">
        <ele>2422.2</ele>
        <time>2024-08-12T07:11:44Z</time>
      </trkpt>
      <trkpt lat="44.78502" lon="6.36044">
        <ele>2422.2</ele>
        <time>2024-08-12T07:11:45Z</time>
      </trkpt>
      <trkpt lat="44.78502" lon="6.36044">
        <ele>2422.2</ele>
        <time>2024-08-12T07:11:46Z</time>
      </trkpt>
      <trkpt lat="44.785" lon="6.36044">
        <ele>2422.8</ele>
        <time>2024-08-12T07:11:47Z</time>
      </trkpt>
      <trkpt lat="44.785" lon="6.36044">
        <ele>2423</ele>
        <time>2024-08-12T07:11:48Z</time>
      </trkpt>
      <trkpt lat="44.785" lon="6.36044">
        <ele>2423.2</ele>
        <time>2024-08-12T07:11:49Z</time>
      </trkpt>
      <trkpt lat="44.78497" lon="6.36043">
        <ele>2423.2</ele>
        <time>2024-08-12T07:11:50Z</time>
      </trkpt>
      <trkpt lat="44.78497" lon="6.36043">
        <ele>2423.4</ele>
        <time>2024-08-12T07:11:51Z</time>
      </trkpt>
      <trkpt lat="44.78497" lon="6.36043">
        <ele>2423.8</ele>
        <time>2024-08-12T07:11:52Z</time>
      </trkpt>
      <trkpt lat="44.78495" lon="6.36043">
        <ele>2424</ele>
        <time>2024-08-12T07:11:53Z</time>
      </trkpt>
      <trkpt lat="44.78495" lon="6.36043">
        <ele>2424.2</ele>
        <time>2024-08-12T07:11:54Z</time>
      </trkpt>
      <trkpt lat="44.78493" lon="6.36042">
        <ele>2424.4</ele>
        <time>2024-08-12T07:11:55Z</time>
      </trkpt>
      <trkpt lat="44.78493" lon="6.36042">
        <ele>2424.4</ele>
        <time>2024-08-12T07:11:56Z</time>
      </trkpt>
      <trkpt lat="44.78491" lon="6.36042">
        <ele>2424.6</ele>
        <time>2024-08-12T07:11:57Z</time>
      </trkpt>
      <trkpt lat="44.78491" lon="6.36042">
        <ele>2424.6</ele>
        <time>2024-08-12T07:11:58Z</time>
      </trkpt>
      <trkpt lat="44.78489" lon="6.36041">
        <ele>2424.8</ele>
        <time>2024-08-12T07:11:59Z</time>
      </trkpt>
      <trkpt lat="44.78489" lon="6.36041">
        <ele>2425.4</ele>
        <time>2024-08-12T07:12:00Z</time>
      </trkpt>
      <trkpt lat="44.78487" lon="6.3604">
        <ele>2425.4</ele>
        <time>2024-08-12T07:12:01Z</time>
      </trkpt>
      <trkpt lat="44.78487" lon="6.3604">
        <ele>2425.6</ele>
        <time>2024-08-12T07:12:02Z</time>
      </trkpt>
      <trkpt lat="44.78485" lon="6.36041">
        <ele>2425.6</ele>
        <time>2024-08-12T07:12:03Z</time>
      </trkpt>
      <trkpt lat="44.78485" lon="6.36041">
        <ele>2425.8</ele>
        <time>2024-08-12T07:12:04Z</time>
      </trkpt>
      <trkpt lat="44.78483" lon="6.36041">
        <ele>2425.8</ele>
        <time>2024-08-12T07:12:05Z</time>
      </trkpt>
      <trkpt lat="44.78483" lon="6.36041">
        <ele>2426</ele>
        <time>2024-08-12T07:12:06Z</time>
      </trkpt>
      <trkpt lat="44.78483" lon="6.36041">
        <ele>2426.2</ele>
        <time>2024-08-12T07:12:07Z</time>
      </trkpt>
      <trkpt lat="44.7848" lon="6.36041">
        <ele>2426.2</ele>
        <time>2024-08-12T07:12:08Z</time>
      </trkpt>
      <trkpt lat="44.7848" lon="6.36041">
        <ele>2426.2</ele>
        <time>2024-08-12T07:12:09Z</time>
      </trkpt>
      <trkpt lat="44.7848" lon="6.36041">
        <ele>2426.6</ele>
        <time>2024-08-12T07:12:10Z</time>
      </trkpt>
      <trkpt lat="44.78478" lon="6.36041">
        <ele>2426.8</ele>
        <time>2024-08-12T07:12:11Z</time>
      </trkpt>
      <trkpt lat="44.78478" lon="6.36041">
        <ele>2427</ele>
        <time>2024-08-12T07:12:12Z</time>
      </trkpt>
      <trkpt lat="44.78476" lon="6.36041">
        <ele>2427</ele>
        <time>2024-08-12T07:12:13Z</time>
      </trkpt>
      <trkpt lat="44.78476" lon="6.36041">
        <ele>2427</ele>
        <time>2024-08-12T07:12:14Z</time>
      </trkpt>
      <trkpt lat="44.78476" lon="6.36041">
        <ele>2427.2</ele>
        <time>2024-08-12T07:12:15Z</time>
      </trkpt>
      <trkpt lat="44.78474" lon="6.36041">
        <ele>2427.2</ele>
        <time>2024-08-12T07:12:16Z</time>
      </trkpt>
      <trkpt lat="44.78474" lon="6.36041">
        <ele>2427.4</ele>
        <time>2024-08-12T07:12:17Z</time>
      </trkpt>
      <trkpt lat="44.78474" lon="6.36041">
        <ele>2427.8</ele>
        <time>2024-08-12T07:12:18Z</time>
      </trkpt>
      <trkpt lat="44.78471" lon="6.36042">
        <ele>2428</ele>
        <time>2024-08-12T07:12:19Z</time>
      </trkpt>
      <trkpt lat="44.78471" lon="6.36042">
        <ele>2428.4</ele>
        <time>2024-08-12T07:12:20Z</time>
      </trkpt>
      <trkpt lat="44.78471" lon="6.36042">
        <ele>2428.6</ele>
        <time>2024-08-12T07:12:21Z</time>
      </trkpt>
      <trkpt lat="44.78469" lon="6.36042">
        <ele>2429</ele>
        <time>2024-08-12T07:12:22Z</time>
      </trkpt>
      <trkpt lat="44.78469" lon="6.36042">
        <ele>2429</ele>
        <time>2024-08-12T07:12:23Z</time>
      </trkpt>
      <trkpt lat="44.78469" lon="6.36042">
        <ele>2429</ele>
        <time>2024-08-12T07:12:24Z</time>
      </trkpt>
      <trkpt lat="44.78467" lon="6.36042">
        <ele>2429.2</ele>
        <time>2024-08-12T07:12:25Z</time>
      </trkpt>
      <trkpt lat="44.78467" lon="6.36042">
        <ele>2429.2</ele>
        <time>2024-08-12T07:12:26Z</time>
      </trkpt>
      <trkpt lat="44.78467" lon="6.36042">
        <ele>2429.6</ele>
        <time>2024-08-12T07:12:27Z</time>
      </trkpt>
      <trkpt lat="44.78465" lon="6.36041">
        <ele>2429.6</ele>
        <time>2024-08-12T07:12:28Z</time>
      </trkpt>
      <trkpt lat="44.78465" lon="6.36041">
        <ele>2429.6</ele>
        <time>2024-08-12T07:12:29Z</time>
      </trkpt>
      <trkpt lat="44.78465" lon="6.36041">
        <ele>2429.6</ele>
        <time>2024-08-12T07:12:30Z</time>
      </trkpt>
      <trkpt lat="44.78463" lon="6.36042">
        <ele>2429.8</ele>
        <time>2024-08-12T07:12:31Z</time>
      </trkpt>
      <trkpt lat="44.78463" lon="6.36042">
        <ele>2430.4</ele>
        <time>2024-08-12T07:12:32Z</time>
      </trkpt>
      <trkpt lat="44.78463" lon="6.36042">
        <ele>2430.4</ele>
        <time>2024-08-12T07:12:33Z</time>
      </trkpt>
      <trkpt lat="44.7846" lon="6.36042">
        <ele>2430.4</ele>
        <time>2024-08-12T07:12:34Z</time>
      </trkpt>
      <trkpt lat="44.7846" lon="6.36042">
        <ele>2430.8</ele>
        <time>2024-08-12T07:12:35Z</time>
      </trkpt>
      <trkpt lat="44.7846" lon="6.36042">
        <ele>2431</ele>
        <time>2024-08-12T07:12:36Z</time>
      </trkpt>
      <trkpt lat="44.7846" lon="6.36038">
        <ele>2431</ele>
        <time>2024-08-12T07:12:37Z</time>
      </trkpt>
      <trkpt lat="44.7846" lon="6.36038">
        <ele>2431</ele>
        <time>2024-08-12T07:12:38Z</time>
      </trkpt>
      <trkpt lat="44.7846" lon="6.36038">
        <ele>2431.6</ele>
        <time>2024-08-12T07:12:39Z</time>
      </trkpt>
      <trkpt lat="44.78461" lon="6.36035">
        <ele>2431.8</ele>
        <time>2024-08-12T07:12:40Z</time>
      </trkpt>
      <trkpt lat="44.78461" lon="6.36035">
        <ele>2431.8</ele>
        <time>2024-08-12T07:12:41Z</time>
      </trkpt>
      <trkpt lat="44.78461" lon="6.36035">
        <ele>2432.2</ele>
        <time>2024-08-12T07:12:42Z</time>
      </trkpt>
      <trkpt lat="44.78463" lon="6.36033">
        <ele>2432.4</ele>
        <time>2024-08-12T07:12:43Z</time>
      </trkpt>
      <trkpt lat="44.78463" lon="6.36033">
        <ele>2432.4</ele>
        <time>2024-08-12T07:12:44Z</time>
      </trkpt>
      <trkpt lat="44.78464" lon="6.36031">
        <ele>2432.6</ele>
        <time>2024-08-12T07:12:45Z</time>
      </trkpt>
      <trkpt lat="44.78464" lon="6.36031">
        <ele>2432.6</ele>
        <time>2024-08-12T07:12:46Z</time>
      </trkpt>
      <trkpt lat="44.78464" lon="6.36031">
        <ele>2432.8</ele>
        <time>2024-08-12T07:12:47Z</time>
      </trkpt>
      <trkpt lat="44.78466" lon="6.36029">
        <ele>2432.8</ele>
        <time>2024-08-12T07:12:48Z</time>
      </trkpt>
      <trkpt lat="44.78466" lon="6.36029">
        <ele>2433</ele>
        <time>2024-08-12T07:12:49Z</time>
      </trkpt>
      <trkpt lat="44.78466" lon="6.36029">
        <ele>2433</ele>
        <time>2024-08-12T07:12:50Z</time>
      </trkpt>
      <trkpt lat="44.78468" lon="6.36027">
        <ele>2433.2</ele>
        <time>2024-08-12T07:12:51Z</time>
      </trkpt>
      <trkpt lat="44.78468" lon="6.36027">
        <ele>2433.2</ele>
        <time>2024-08-12T07:12:52Z</time>
      </trkpt>
      <trkpt lat="44.78468" lon="6.36027">
        <ele>2433.6</ele>
        <time>2024-08-12T07:12:53Z</time>
      </trkpt>
      <trkpt lat="44.7847" lon="6.36025">
        <ele>2433.8</ele>
        <time>2024-08-12T07:12:54Z</time>
      </trkpt>
      <trkpt lat="44.7847" lon="6.36025">
        <ele>2434</ele>
        <time>2024-08-12T07:12:55Z</time>
      </trkpt>
      <trkpt lat="44.7847" lon="6.36025">
        <ele>2434</ele>
        <time>2024-08-12T07:12:56Z</time>
      </trkpt>
      <trkpt lat="44.7847" lon="6.36025">
        <ele>2434.2</ele>
        <time>2024-08-12T07:12:57Z</time>
      </trkpt>
      <trkpt lat="44.78468" lon="6.36024">
        <ele>2434.2</ele>
        <time>2024-08-12T07:12:58Z</time>
      </trkpt>
      <trkpt lat="44.78468" lon="6.36024">
        <ele>2434.4</ele>
        <time>2024-08-12T07:12:59Z</time>
      </trkpt>
      <trkpt lat="44.78468" lon="6.36024">
        <ele>2434.6</ele>
        <time>2024-08-12T07:13:00Z</time>
      </trkpt>
      <trkpt lat="44.78465" lon="6.36026">
        <ele>2435</ele>
        <time>2024-08-12T07:13:01Z</time>
      </trkpt>
      <trkpt lat="44.78465" lon="6.36026">
        <ele>2435.2</ele>
        <time>2024-08-12T07:13:02Z</time>
      </trkpt>
      <trkpt lat="44.78465" lon="6.36026">
        <ele>2435.2</ele>
        <time>2024-08-12T07:13:03Z</time>
      </trkpt>
      <trkpt lat="44.78463" lon="6.36027">
        <ele>2435.4</ele>
        <time>2024-08-12T07:13:04Z</time>
      </trkpt>
      <trkpt lat="44.78463" lon="6.36027">
        <ele>2435.4</ele>
        <time>2024-08-12T07:13:05Z</time>
      </trkpt>
      <trkpt lat="44.78461" lon="6.36027">
        <ele>2435.6</ele>
        <time>2024-08-12T07:13:06Z</time>
      </trkpt>
      <trkpt lat="44.78461" lon="6.36027">
        <ele>2436</ele>
        <time>2024-08-12T07:13:07Z</time>
      </trkpt>
      <trkpt lat="44.78459" lon="6.36027">
        <ele>2436.2</ele>
        <time>2024-08-12T07:13:08Z</time>
      </trkpt>
      <trkpt lat="44.78459" lon="6.36027">
        <ele>2436.2</ele>
        <time>2024-08-12T07:13:09Z</time>
      </trkpt>
      <trkpt lat="44.78459" lon="6.36027">
        <ele>2436.4</ele>
        <time>2024-08-12T07:13:10Z</time>
      </trkpt>
      <trkpt lat="44.78457" lon="6.36028">
        <ele>2436.6</ele>
        <time>2024-08-12T07:13:11Z</time>
      </trkpt>
      <trkpt lat="44.78457" lon="6.36028">
        <ele>2436.8</ele>
        <time>2024-08-12T07:13:12Z</time>
      </trkpt>
      <trkpt lat="44.78457" lon="6.36028">
        <ele>2436.8</ele>
        <time>2024-08-12T07:13:13Z</time>
      </trkpt>
      <trkpt lat="44.78455" lon="6.36027">
        <ele>2437</ele>
        <time>2024-08-12T07:13:14Z</time>
      </trkpt>
      <trkpt lat="44.78455" lon="6.36027">
        <ele>2437</ele>
        <time>2024-08-12T07:13:15Z</time>
      </trkpt>
      <trkpt lat="44.78455" lon="6.36027">
        <ele>2437</ele>
        <time>2024-08-12T07:13:16Z</time>
      </trkpt>
      <trkpt lat="44.78452" lon="6.36028">
        <ele>2437.2</ele>
        <time>2024-08-12T07:13:17Z</time>
      </trkpt>
      <trkpt lat="44.78452" lon="6.36028">
        <ele>2437.4</ele>
        <time>2024-08-12T07:13:18Z</time>
      </trkpt>
      <trkpt lat="44.7845" lon="6.36029">
        <ele>2437.8</ele>
        <time>2024-08-12T07:13:19Z</time>
      </trkpt>
      <trkpt lat="44.7845" lon="6.36029">
        <ele>2437.8</ele>
        <time>2024-08-12T07:13:20Z</time>
      </trkpt>
      <trkpt lat="44.78448" lon="6.36029">
        <ele>2437.8</ele>
        <time>2024-08-12T07:13:21Z</time>
      </trkpt>
      <trkpt lat="44.78448" lon="6.36029">
        <ele>2438</ele>
        <time>2024-08-12T07:13:22Z</time>
      </trkpt>
      <trkpt lat="44.78448" lon="6.36029">
        <ele>2438</ele>
        <time>2024-08-12T07:13:23Z</time>
      </trkpt>
      <trkpt lat="44.78448" lon="6.36029">
        <ele>2438.2</ele>
        <time>2024-08-12T07:13:24Z</time>
      </trkpt>
      <trkpt lat="44.78448" lon="6.36029">
        <ele>2438.4</ele>
        <time>2024-08-12T07:13:25Z</time>
      </trkpt>
      <trkpt lat="44.78447" lon="6.36026">
        <ele>2438.4</ele>
        <time>2024-08-12T07:13:26Z</time>
      </trkpt>
      <trkpt lat="44.78447" lon="6.36026">
        <ele>2438.8</ele>
        <time>2024-08-12T07:13:27Z</time>
      </trkpt>
      <trkpt lat="44.78449" lon="6.36024">
        <ele>2438.8</ele>
        <time>2024-08-12T07:13:28Z</time>
      </trkpt>
      <trkpt lat="44.78449" lon="6.36024">
        <ele>2438.8</ele>
        <time>2024-08-12T07:13:29Z</time>
      </trkpt>
      <trkpt lat="44.78449" lon="6.36024">
        <ele>2438.8</ele>
        <time>2024-08-12T07:13:30Z</time>
      </trkpt>
      <trkpt lat="44.78451" lon="6.36022">
        <ele>2439.6</ele>
        <time>2024-08-12T07:13:31Z</time>
      </trkpt>
      <trkpt lat="44.78451" lon="6.36022">
        <ele>2439.8</ele>
        <time>2024-08-12T07:13:32Z</time>
      </trkpt>
      <trkpt lat="44.78451" lon="6.36022">
        <ele>2440</ele>
        <time>2024-08-12T07:13:33Z</time>
      </trkpt>
      <trkpt lat="44.78451" lon="6.36022">
        <ele>2440</ele>
        <time>2024-08-12T07:13:34Z</time>
      </trkpt>
      <trkpt lat="44.78453" lon="6.3602">
        <ele>2440</ele>
        <time>2024-08-12T07:13:35Z</time>
      </trkpt>
      <trkpt lat="44.78453" lon="6.3602">
        <ele>2440</ele>
        <time>2024-08-12T07:13:36Z</time>
      </trkpt>
      <trkpt lat="44.78453" lon="6.3602">
        <ele>2440.2</ele>
        <time>2024-08-12T07:13:37Z</time>
      </trkpt>
      <trkpt lat="44.78455" lon="6.36018">
        <ele>2440.4</ele>
        <time>2024-08-12T07:13:38Z</time>
      </trkpt>
      <trkpt lat="44.78455" lon="6.36018">
        <ele>2440.6</ele>
        <time>2024-08-12T07:13:39Z</time>
      </trkpt>
      <trkpt lat="44.78456" lon="6.36016">
        <ele>2440.8</ele>
        <time>2024-08-12T07:13:40Z</time>
      </trkpt>
      <trkpt lat="44.78456" lon="6.36016">
        <ele>2441</ele>
        <time>2024-08-12T07:13:41Z</time>
      </trkpt>
      <trkpt lat="44.78458" lon="6.36014">
        <ele>2441.2</ele>
        <time>2024-08-12T07:13:42Z</time>
      </trkpt>
      <trkpt lat="44.78458" lon="6.36014">
        <ele>2441.2</ele>
        <time>2024-08-12T07:13:43Z</time>
      </trkpt>
      <trkpt lat="44.7846" lon="6.36012">
        <ele>2441.4</ele>
        <time>2024-08-12T07:13:44Z</time>
      </trkpt>
      <trkpt lat="44.7846" lon="6.36012">
        <ele>2441.4</ele>
        <time>2024-08-12T07:13:45Z</time>
      </trkpt>
      <trkpt lat="44.78462" lon="6.36011">
        <ele>2441.2</ele>
        <time>2024-08-12T07:13:46Z</time>
      </trkpt>
      <trkpt lat="44.78462" lon="6.36011">
        <ele>2441.2</ele>
        <time>2024-08-12T07:13:47Z</time>
      </trkpt>
      <trkpt lat="44.78462" lon="6.36011">
        <ele>2441.4</ele>
        <time>2024-08-12T07:13:48Z</time>
      </trkpt>
      <trkpt lat="44.78465" lon="6.3601">
        <ele>2441.6</ele>
        <time>2024-08-12T07:13:49Z</time>
      </trkpt>
      <trkpt lat="44.78465" lon="6.3601">
        <ele>2441.6</ele>
        <time>2024-08-12T07:13:50Z</time>
      </trkpt>
      <trkpt lat="44.78465" lon="6.3601">
        <ele>2441.8</ele>
        <time>2024-08-12T07:13:51Z</time>
      </trkpt>
      <trkpt lat="44.78467" lon="6.36008">
        <ele>2441.8</ele>
        <time>2024-08-12T07:13:52Z</time>
      </trkpt>
      <trkpt lat="44.78467" lon="6.36008">
        <ele>2442.2</ele>
        <time>2024-08-12T07:13:53Z</time>
      </trkpt>
      <trkpt lat="44.78469" lon="6.36008">
        <ele>2442.4</ele>
        <time>2024-08-12T07:13:54Z</time>
      </trkpt>
      <trkpt lat="44.78469" lon="6.36008">
        <ele>2442.6</ele>
        <time>2024-08-12T07:13:55Z</time>
      </trkpt>
      <trkpt lat="44.78471" lon="6.36008">
        <ele>2442.8</ele>
        <time>2024-08-12T07:13:56Z</time>
      </trkpt>
      <trkpt lat="44.78471" lon="6.36008">
        <ele>2442.8</ele>
        <time>2024-08-12T07:13:57Z</time>
      </trkpt>
      <trkpt lat="44.78473" lon="6.36009">
        <ele>2442.8</ele>
        <time>2024-08-12T07:13:58Z</time>
      </trkpt>
      <trkpt lat="44.78473" lon="6.36009">
        <ele>2442.8</ele>
        <time>2024-08-12T07:13:59Z</time>
      </trkpt>
      <trkpt lat="44.78476" lon="6.36009">
        <ele>2442.8</ele>
        <time>2024-08-12T07:14:00Z</time>
      </trkpt>
      <trkpt lat="44.78476" lon="6.36009">
        <ele>2443</ele>
        <time>2024-08-12T07:14:01Z</time>
      </trkpt>
      <trkpt lat="44.78478" lon="6.36009">
        <ele>2443</ele>
        <time>2024-08-12T07:14:02Z</time>
      </trkpt>
      <trkpt lat="44.78478" lon="6.36009">
        <ele>2443</ele>
        <time>2024-08-12T07:14:03Z</time>
      </trkpt>
      <trkpt lat="44.78481" lon="6.36009">
        <ele>2443</ele>
        <time>2024-08-12T07:14:04Z</time>
      </trkpt>
      <trkpt lat="44.78481" lon="6.36009">
        <ele>2443</ele>
        <time>2024-08-12T07:14:05Z</time>
      </trkpt>
      <trkpt lat="44.78483" lon="6.36009">
        <ele>2443.2</ele>
        <time>2024-08-12T07:14:06Z</time>
      </trkpt>
      <trkpt lat="44.78483" lon="6.36009">
        <ele>2443.4</ele>
        <time>2024-08-12T07:14:07Z</time>
      </trkpt>
      <trkpt lat="44.78485" lon="6.36008">
        <ele>2443.4</ele>
        <time>2024-08-12T07:14:08Z</time>
      </trkpt>
      <trkpt lat="44.78485" lon="6.36008">
        <ele>2443.2</ele>
        <time>2024-08-12T07:14:09Z</time>
      </trkpt>
      <trkpt lat="44.78486" lon="6.36008">
        <ele>2443.2</ele>
        <time>2024-08-12T07:14:10Z</time>
      </trkpt>
      <trkpt lat="44.78486" lon="6.36008">
        <ele>2443.2</ele>
        <time>2024-08-12T07:14:11Z</time>
      </trkpt>
      <trkpt lat="44.78489" lon="6.36008">
        <ele>2443.4</ele>
        <time>2024-08-12T07:14:12Z</time>
      </trkpt>
      <trkpt lat="44.78489" lon="6.36008">
        <ele>2443.6</ele>
        <time>2024-08-12T07:14:13Z</time>
      </trkpt>
      <trkpt lat="44.78491" lon="6.36008">
        <ele>2443.8</ele>
        <time>2024-08-12T07:14:14Z</time>
      </trkpt>
      <trkpt lat="44.78491" lon="6.36008">
        <ele>2443.8</ele>
        <time>2024-08-12T07:14:15Z</time>
      </trkpt>
      <trkpt lat="44.78493" lon="6.36008">
        <ele>2443.8</ele>
        <time>2024-08-12T07:14:16Z</time>
      </trkpt>
      <trkpt lat="44.78493" lon="6.36008">
        <ele>2443.8</ele>
        <time>2024-08-12T07:14:17Z</time>
      </trkpt>
      <trkpt lat="44.78495" lon="6.36009">
        <ele>2443.8</ele>
        <time>2024-08-12T07:14:18Z</time>
      </trkpt>
      <trkpt lat="44.78495" lon="6.36009">
        <ele>2444</ele>
        <time>2024-08-12T07:14:19Z</time>
      </trkpt>
      <trkpt lat="44.78497" lon="6.36009">
        <ele>2444.2</ele>
        <time>2024-08-12T07:14:20Z</time>
      </trkpt>
      <trkpt lat="44.78497" lon="6.36009">
        <ele>2444.4</ele>
        <time>2024-08-12T07:14:21Z</time>
      </trkpt>
      <trkpt lat="44.78497" lon="6.36009">
        <ele>2444.4</ele>
        <time>2024-08-12T07:14:22Z</time>
      </trkpt>
      <trkpt lat="44.78499" lon="6.36008">
        <ele>2444.8</ele>
        <time>2024-08-12T07:14:23Z</time>
      </trkpt>
      <trkpt lat="44.78499" lon="6.36008">
        <ele>2445.2</ele>
        <time>2024-08-12T07:14:24Z</time>
      </trkpt>
      <trkpt lat="44.78501" lon="6.36007">
        <ele>2445.2</ele>
        <time>2024-08-12T07:14:25Z</time>
      </trkpt>
      <trkpt lat="44.78501" lon="6.36007">
        <ele>2445.4</ele>
        <time>2024-08-12T07:14:26Z</time>
      </trkpt>
      <trkpt lat="44.78501" lon="6.36007">
        <ele>2445.6</ele>
        <time>2024-08-12T07:14:27Z</time>
      </trkpt>
      <trkpt lat="44.78503" lon="6.36006">
        <ele>2445.8</ele>
        <time>2024-08-12T07:14:28Z</time>
      </trkpt>
      <trkpt lat="44.78503" lon="6.36006">
        <ele>2445.8</ele>
        <time>2024-08-12T07:14:29Z</time>
      </trkpt>
      <trkpt lat="44.78503" lon="6.36006">
        <ele>2446</ele>
        <time>2024-08-12T07:14:30Z</time>
      </trkpt>
      <trkpt lat="44.78503" lon="6.36006">
        <ele>2446</ele>
        <time>2024-08-12T07:14:31Z</time>
      </trkpt>
      <trkpt lat="44.78503" lon="6.36006">
        <ele>2445.8</ele>
        <time>2024-08-12T07:14:32Z</time>
      </trkpt>
      <trkpt lat="44.78503" lon="6.36006">
        <ele>2445.8</ele>
        <time>2024-08-12T07:14:33Z</time>
      </trkpt>
      <trkpt lat="44.78503" lon="6.36006">
        <ele>2446</ele>
        <time>2024-08-12T07:14:34Z</time>
      </trkpt>
      <trkpt lat="44.78503" lon="6.36006">
        <ele>2446</ele>
        <time>2024-08-12T07:14:35Z</time>
      </trkpt>
      <trkpt lat="44.78503" lon="6.36006">
        <ele>2446</ele>
        <time>2024-08-12T07:14:36Z</time>
      </trkpt>
      <trkpt lat="44.78503" lon="6.36006">
        <ele>2446</ele>
        <time>2024-08-12T07:14:37Z</time>
      </trkpt>
      <trkpt lat="44.78503" lon="6.36006">
        <ele>2446.2</ele>
        <time>2024-08-12T07:14:38Z</time>
      </trkpt>
      <trkpt lat="44.78503" lon="6.36006">
        <ele>2446.2</ele>
        <time>2024-08-12T07:14:39Z</time>
      </trkpt>
      <trkpt lat="44.78503" lon="6.36006">
        <ele>2446.2</ele>
        <time>2024-08-12T07:14:40Z</time>
      </trkpt>
      <trkpt lat="44.78503" lon="6.36006">
        <ele>2446.6</ele>
        <time>2024-08-12T07:14:41Z</time>
      </trkpt>
      <trkpt lat="44.78503" lon="6.36006">
        <ele>2446.8</ele>
        <time>2024-08-12T07:14:42Z</time>
      </trkpt>
      <trkpt lat="44.78503" lon="6.36006">
        <ele>2446.8</ele>
        <time>2024-08-12T07:14:43Z</time>
      </trkpt>
      <trkpt lat="44.78503" lon="6.36006">
        <ele>2446.2</ele>
        <time>2024-08-12T07:14:44Z</time>
      </trkpt>
      <trkpt lat="44.78503" lon="6.36006">
        <ele>2446</ele>
        <time>2024-08-12T07:14:45Z</time>
      </trkpt>
      <trkpt lat="44.78503" lon="6.36006">
        <ele>2446</ele>
        <time>2024-08-12T07:14:46Z</time>
      </trkpt>
      <trkpt lat="44.78503" lon="6.36006">
        <ele>2446</ele>
        <time>2024-08-12T07:14:47Z</time>
      </trkpt>
      <trkpt lat="44.78503" lon="6.36006">
        <ele>2446</ele>
        <time>2024-08-12T07:14:48Z</time>
      </trkpt>
      <trkpt lat="44.78503" lon="6.36006">
        <ele>2446</ele>
        <time>2024-08-12T07:14:49Z</time>
      </trkpt>
      <trkpt lat="44.78503" lon="6.36006">
        <ele>2445.8</ele>
        <time>2024-08-12T07:14:50Z</time>
      </trkpt>
      <trkpt lat="44.78503" lon="6.36006">
        <ele>2446</ele>
        <time>2024-08-12T07:14:51Z</time>
      </trkpt>
      <trkpt lat="44.78503" lon="6.36006">
        <ele>2446</ele>
        <time>2024-08-12T07:14:52Z</time>
      </trkpt>
      <trkpt lat="44.78503" lon="6.36006">
        <ele>2446</ele>
        <time>2024-08-12T07:14:53Z</time>
      </trkpt>
      <trkpt lat="44.78503" lon="6.36006">
        <ele>2446</ele>
        <time>2024-08-12T07:14:54Z</time>
      </trkpt>
      <trkpt lat="44.78503" lon="6.36006">
        <ele>2446</ele>
        <time>2024-08-12T07:14:55Z</time>
      </trkpt>
      <trkpt lat="44.78503" lon="6.36006">
        <ele>2446</ele>
        <time>2024-08-12T07:14:56Z</time>
      </trkpt>
      <trkpt lat="44.78503" lon="6.36006">
        <ele>2446</ele>
        <time>2024-08-12T07:14:57Z</time>
      </trkpt>
      <trkpt lat="44.78503" lon="6.36006">
        <ele>2446</ele>
        <time>2024-08-12T07:14:58Z</time>
      </trkpt>
      <trkpt lat="44.78503" lon="6.36006">
        <ele>2446</ele>
        <time>2024-08-12T07:14:59Z</time>
      </trkpt>
      <trkpt lat="44.78503" lon="6.36006">
        <ele>2446</ele>
        <time>2024-08-12T07:15:00Z</time>
      </trkpt>
      <trkpt lat="44.78503" lon="6.36006">
        <ele>2446</ele>
        <time>2024-08-12T07:15:01Z</time>
      </trkpt>
      <trkpt lat="44.78503" lon="6.36006">
        <ele>2446.8</ele>
        <time>2024-08-12T07:15:02Z</time>
      </trkpt>
      <trkpt lat="44.78501" lon="6.36006">
        <ele>2446.8</ele>
        <time>2024-08-12T07:15:03Z</time>
      </trkpt>
      <trkpt lat="44.78501" lon="6.36006">
        <ele>2446.8</ele>
        <time>2024-08-12T07:15:04Z</time>
      </trkpt>
      <trkpt lat="44.78499" lon="6.36004">
        <ele>2447</ele>
        <time>2024-08-12T07:15:05Z</time>
      </trkpt>
      <trkpt lat="44.78497" lon="6.36003">
        <ele>2447</ele>
        <time>2024-08-12T07:15:06Z</time>
      </trkpt>
      <trkpt lat="44.78497" lon="6.36003">
        <ele>2447</ele>
        <time>2024-08-12T07:15:07Z</time>
      </trkpt>
      <trkpt lat="44.78495" lon="6.36001">
        <ele>2447.4</ele>
        <time>2024-08-12T07:15:08Z</time>
      </trkpt>
      <trkpt lat="44.78495" lon="6.36001">
        <ele>2447.6</ele>
        <time>2024-08-12T07:15:09Z</time>
      </trkpt>
      <trkpt lat="44.78493" lon="6.35999">
        <ele>2447.8</ele>
        <time>2024-08-12T07:15:10Z</time>
      </trkpt>
      <trkpt lat="44.78493" lon="6.35999">
        <ele>2447.8</ele>
        <time>2024-08-12T07:15:11Z</time>
      </trkpt>
      <trkpt lat="44.78493" lon="6.35999">
        <ele>2447.8</ele>
        <time>2024-08-12T07:15:12Z</time>
      </trkpt>
      <trkpt lat="44.7849" lon="6.35997">
        <ele>2447.8</ele>
        <time>2024-08-12T07:15:13Z</time>
      </trkpt>
      <trkpt lat="44.7849" lon="6.35997">
        <ele>2448.2</ele>
        <time>2024-08-12T07:15:14Z</time>
      </trkpt>
      <trkpt lat="44.7849" lon="6.35997">
        <ele>2448.4</ele>
        <time>2024-08-12T07:15:15Z</time>
      </trkpt>
      <trkpt lat="44.78489" lon="6.35995">
        <ele>2448.6</ele>
        <time>2024-08-12T07:15:16Z</time>
      </trkpt>
      <trkpt lat="44.78489" lon="6.35995">
        <ele>2448.6</ele>
        <time>2024-08-12T07:15:17Z</time>
      </trkpt>
      <trkpt lat="44.78487" lon="6.35993">
        <ele>2448.8</ele>
        <time>2024-08-12T07:15:18Z</time>
      </trkpt>
      <trkpt lat="44.78487" lon="6.35993">
        <ele>2449</ele>
        <time>2024-08-12T07:15:19Z</time>
      </trkpt>
      <trkpt lat="44.78487" lon="6.35993">
        <ele>2449</ele>
        <time>2024-08-12T07:15:20Z</time>
      </trkpt>
      <trkpt lat="44.78485" lon="6.35992">
        <ele>2449.4</ele>
        <time>2024-08-12T07:15:21Z</time>
      </trkpt>
      <trkpt lat="44.78485" lon="6.35992">
        <ele>2449.4</ele>
        <time>2024-08-12T07:15:22Z</time>
      </trkpt>
      <trkpt lat="44.78485" lon="6.35992">
        <ele>2449.8</ele>
        <time>2024-08-12T07:15:23Z</time>
      </trkpt>
      <trkpt lat="44.78483" lon="6.35991">
        <ele>2449.8</ele>
        <time>2024-08-12T07:15:24Z</time>
      </trkpt>
      <trkpt lat="44.78483" lon="6.35991">
        <ele>2450</ele>
        <time>2024-08-12T07:15:25Z</time>
      </trkpt>
      <trkpt lat="44.78481" lon="6.3599">
        <ele>2450</ele>
        <time>2024-08-12T07:15:26Z</time>
      </trkpt>
      <trkpt lat="44.78481" lon="6.3599">
        <ele>2450</ele>
        <time>2024-08-12T07:15:27Z</time>
      </trkpt>
      <trkpt lat="44.7848" lon="6.35988">
        <ele>2450.4</ele>
        <time>2024-08-12T07:15:28Z</time>
      </trkpt>
      <trkpt lat="44.7848" lon="6.35988">
        <ele>2450.6</ele>
        <time>2024-08-12T07:15:29Z</time>
      </trkpt>
      <trkpt lat="44.7848" lon="6.35988">
        <ele>2450.8</ele>
        <time>2024-08-12T07:15:30Z</time>
      </trkpt>
      <trkpt lat="44.78477" lon="6.35986">
        <ele>2451</ele>
        <time>2024-08-12T07:15:31Z</time>
      </trkpt>
      <trkpt lat="44.78477" lon="6.35986">
        <ele>2451.2</ele>
        <time>2024-08-12T07:15:32Z</time>
      </trkpt>
      <trkpt lat="44.78476" lon="6.35985">
        <ele>2451.4</ele>
        <time>2024-08-12T07:15:33Z</time>
      </trkpt>
      <trkpt lat="44.78476" lon="6.35985">
        <ele>2451.8</ele>
        <time>2024-08-12T07:15:34Z</time>
      </trkpt>
      <trkpt lat="44.78476" lon="6.35985">
        <ele>2451.8</ele>
        <time>2024-08-12T07:15:35Z</time>
      </trkpt>
      <trkpt lat="44.78473" lon="6.35982">
        <ele>2451.8</ele>
        <time>2024-08-12T07:15:36Z</time>
      </trkpt>
      <trkpt lat="44.78473" lon="6.35982">
        <ele>2451.8</ele>
        <time>2024-08-12T07:15:37Z</time>
      </trkpt>
      <trkpt lat="44.78471" lon="6.35982">
        <ele>2451.8</ele>
        <time>2024-08-12T07:15:38Z</time>
      </trkpt>
      <trkpt lat="44.78471" lon="6.35982">
        <ele>2452.2</ele>
        <time>2024-08-12T07:15:39Z</time>
      </trkpt>
      <trkpt lat="44.78471" lon="6.35982">
        <ele>2452.4</ele>
        <time>2024-08-12T07:15:40Z</time>
      </trkpt>
      <trkpt lat="44.78469" lon="6.35981">
        <ele>2452.6</ele>
        <time>2024-08-12T07:15:41Z</time>
      </trkpt>
      <trkpt lat="44.78469" lon="6.35981">
        <ele>2452.6</ele>
        <time>2024-08-12T07:15:42Z</time>
      </trkpt>
      <trkpt lat="44.78469" lon="6.35981">
        <ele>2452.8</ele>
        <time>2024-08-12T07:15:43Z</time>
      </trkpt>
      <trkpt lat="44.78467" lon="6.35979">
        <ele>2453</ele>
        <time>2024-08-12T07:15:44Z</time>
      </trkpt>
      <trkpt lat="44.78467" lon="6.35979">
        <ele>2453.2</ele>
        <time>2024-08-12T07:15:45Z</time>
      </trkpt>
      <trkpt lat="44.78467" lon="6.35979">
        <ele>2453.2</ele>
        <time>2024-08-12T07:15:46Z</time>
      </trkpt>
      <trkpt lat="44.78465" lon="6.35978">
        <ele>2453.6</ele>
        <time>2024-08-12T07:15:47Z</time>
      </trkpt>
      <trkpt lat="44.78465" lon="6.35978">
        <ele>2453.8</ele>
        <time>2024-08-12T07:15:48Z</time>
      </trkpt>
      <trkpt lat="44.78463" lon="6.35977">
        <ele>2453.8</ele>
        <time>2024-08-12T07:15:49Z</time>
      </trkpt>
      <trkpt lat="44.78463" lon="6.35977">
        <ele>2454</ele>
        <time>2024-08-12T07:15:50Z</time>
      </trkpt>
      <trkpt lat="44.78463" lon="6.35977">
        <ele>2454.2</ele>
        <time>2024-08-12T07:15:51Z</time>
      </trkpt>
      <trkpt lat="44.78461" lon="6.35976">
        <ele>2454.4</ele>
        <time>2024-08-12T07:15:52Z</time>
      </trkpt>
      <trkpt lat="44.78461" lon="6.35976">
        <ele>2454.6</ele>
        <time>2024-08-12T07:15:53Z</time>
      </trkpt>
      <trkpt lat="44.78461" lon="6.35976">
        <ele>2455</ele>
        <time>2024-08-12T07:15:54Z</time>
      </trkpt>
      <trkpt lat="44.78459" lon="6.35975">
        <ele>2454.8</ele>
        <time>2024-08-12T07:15:55Z</time>
      </trkpt>
      <trkpt lat="44.78459" lon="6.35975">
        <ele>2455.2</ele>
        <time>2024-08-12T07:15:56Z</time>
      </trkpt>
      <trkpt lat="44.78457" lon="6.35975">
        <ele>2455</ele>
        <time>2024-08-12T07:15:57Z</time>
      </trkpt>
      <trkpt lat="44.78457" lon="6.35975">
        <ele>2455.6</ele>
        <time>2024-08-12T07:15:58Z</time>
      </trkpt>
      <trkpt lat="44.78455" lon="6.35974">
        <ele>2455.6</ele>
        <time>2024-08-12T07:15:59Z</time>
      </trkpt>
      <trkpt lat="44.78455" lon="6.35974">
        <ele>2455.8</ele>
        <time>2024-08-12T07:16:00Z</time>
      </trkpt>
      <trkpt lat="44.78453" lon="6.35973">
        <ele>2455.8</ele>
        <time>2024-08-12T07:16:01Z</time>
      </trkpt>
      <trkpt lat="44.78453" lon="6.35973">
        <ele>2456.6</ele>
        <time>2024-08-12T07:16:02Z</time>
      </trkpt>
      <trkpt lat="44.78452" lon="6.35972">
        <ele>2456.6</ele>
        <time>2024-08-12T07:16:03Z</time>
      </trkpt>
      <trkpt lat="44.78452" lon="6.35972">
        <ele>2456.6</ele>
        <time>2024-08-12T07:16:04Z</time>
      </trkpt>
      <trkpt lat="44.78452" lon="6.35972">
        <ele>2456.6</ele>
        <time>2024-08-12T07:16:05Z</time>
      </trkpt>
      <trkpt lat="44.78449" lon="6.35973">
        <ele>2456.8</ele>
        <time>2024-08-12T07:16:06Z</time>
      </trkpt>
      <trkpt lat="44.78449" lon="6.35973">
        <ele>2456.8</ele>
        <time>2024-08-12T07:16:07Z</time>
      </trkpt>
      <trkpt lat="44.78447" lon="6.35973">
        <ele>2456.8</ele>
        <time>2024-08-12T07:16:08Z</time>
      </trkpt>
      <trkpt lat="44.78447" lon="6.35973">
        <ele>2456.8</ele>
        <time>2024-08-12T07:16:09Z</time>
      </trkpt>
      <trkpt lat="44.78445" lon="6.35973">
        <ele>2456.8</ele>
        <time>2024-08-12T07:16:10Z</time>
      </trkpt>
      <trkpt lat="44.78445" lon="6.35973">
        <ele>2457</ele>
        <time>2024-08-12T07:16:11Z</time>
      </trkpt>
      <trkpt lat="44.78443" lon="6.35974">
        <ele>2457</ele>
        <time>2024-08-12T07:16:12Z</time>
      </trkpt>
      <trkpt lat="44.78443" lon="6.35974">
        <ele>2457.2</ele>
        <time>2024-08-12T07:16:13Z</time>
      </trkpt>
      <trkpt lat="44.78443" lon="6.35974">
        <ele>2457.2</ele>
        <time>2024-08-12T07:16:14Z</time>
      </trkpt>
      <trkpt lat="44.7844" lon="6.35975">
        <ele>2457.2</ele>
        <time>2024-08-12T07:16:15Z</time>
      </trkpt>
      <trkpt lat="44.7844" lon="6.35975">
        <ele>2457.4</ele>
        <time>2024-08-12T07:16:16Z</time>
      </trkpt>
      <trkpt lat="44.78438" lon="6.35975">
        <ele>2457.6</ele>
        <time>2024-08-12T07:16:17Z</time>
      </trkpt>
      <trkpt lat="44.78438" lon="6.35975">
        <ele>2457.6</ele>
        <time>2024-08-12T07:16:18Z</time>
      </trkpt>
      <trkpt lat="44.78436" lon="6.35975">
        <ele>2457.8</ele>
        <time>2024-08-12T07:16:19Z</time>
      </trkpt>
      <trkpt lat="44.78436" lon="6.35975">
        <ele>2458</ele>
        <time>2024-08-12T07:16:20Z</time>
      </trkpt>
      <trkpt lat="44.78434" lon="6.35974">
        <ele>2458</ele>
        <time>2024-08-12T07:16:21Z</time>
      </trkpt>
      <trkpt lat="44.78434" lon="6.35974">
        <ele>2458</ele>
        <time>2024-08-12T07:16:22Z</time>
      </trkpt>
      <trkpt lat="44.78432" lon="6.35973">
        <ele>2458.2</ele>
        <time>2024-08-12T07:16:23Z</time>
      </trkpt>
      <trkpt lat="44.78432" lon="6.35973">
        <ele>2458.2</ele>
        <time>2024-08-12T07:16:24Z</time>
      </trkpt>
      <trkpt lat="44.7843" lon="6.35973">
        <ele>2458.4</ele>
        <time>2024-08-12T07:16:25Z</time>
      </trkpt>
      <trkpt lat="44.7843" lon="6.35973">
        <ele>2458.6</ele>
        <time>2024-08-12T07:16:26Z</time>
      </trkpt>
      <trkpt lat="44.78428" lon="6.35974">
        <ele>2458.6</ele>
        <time>2024-08-12T07:16:27Z</time>
      </trkpt>
      <trkpt lat="44.78428" lon="6.35974">
        <ele>2458.6</ele>
        <time>2024-08-12T07:16:28Z</time>
      </trkpt>
      <trkpt lat="44.78426" lon="6.35974">
        <ele>2458.6</ele>
        <time>2024-08-12T07:16:29Z</time>
      </trkpt>
      <trkpt lat="44.78426" lon="6.35974">
        <ele>2458.8</ele>
        <time>2024-08-12T07:16:30Z</time>
      </trkpt>
      <trkpt lat="44.78424" lon="6.35974">
        <ele>2459</ele>
        <time>2024-08-12T07:16:31Z</time>
      </trkpt>
      <trkpt lat="44.78424" lon="6.35974">
        <ele>2459.2</ele>
        <time>2024-08-12T07:16:32Z</time>
      </trkpt>
      <trkpt lat="44.78422" lon="6.35975">
        <ele>2459.2</ele>
        <time>2024-08-12T07:16:33Z</time>
      </trkpt>
      <trkpt lat="44.78422" lon="6.35975">
        <ele>2459</ele>
        <time>2024-08-12T07:16:34Z</time>
      </trkpt>
      <trkpt lat="44.7842" lon="6.35976">
        <ele>2459</ele>
        <time>2024-08-12T07:16:35Z</time>
      </trkpt>
      <trkpt lat="44.7842" lon="6.35976">
        <ele>2459</ele>
        <time>2024-08-12T07:16:36Z</time>
      </trkpt>
      <trkpt lat="44.7842" lon="6.35976">
        <ele>2459.4</ele>
        <time>2024-08-12T07:16:37Z</time>
      </trkpt>
      <trkpt lat="44.78418" lon="6.35978">
        <ele>2459.4</ele>
        <time>2024-08-12T07:16:38Z</time>
      </trkpt>
      <trkpt lat="44.78418" lon="6.35978">
        <ele>2459.4</ele>
        <time>2024-08-12T07:16:39Z</time>
      </trkpt>
      <trkpt lat="44.78418" lon="6.35978">
        <ele>2459.4</ele>
        <time>2024-08-12T07:16:40Z</time>
      </trkpt>
      <trkpt lat="44.78417" lon="6.35981">
        <ele>2459.4</ele>
        <time>2024-08-12T07:16:41Z</time>
      </trkpt>
      <trkpt lat="44.78417" lon="6.35981">
        <ele>2459.4</ele>
        <time>2024-08-12T07:16:42Z</time>
      </trkpt>
      <trkpt lat="44.78417" lon="6.35984">
        <ele>2459.8</ele>
        <time>2024-08-12T07:16:43Z</time>
      </trkpt>
      <trkpt lat="44.78417" lon="6.35984">
        <ele>2460</ele>
        <time>2024-08-12T07:16:44Z</time>
      </trkpt>
      <trkpt lat="44.78416" lon="6.35986">
        <ele>2460</ele>
        <time>2024-08-12T07:16:45Z</time>
      </trkpt>
      <trkpt lat="44.78416" lon="6.35986">
        <ele>2460.2</ele>
        <time>2024-08-12T07:16:46Z</time>
      </trkpt>
      <trkpt lat="44.78414" lon="6.35988">
        <ele>2460.4</ele>
        <time>2024-08-12T07:16:47Z</time>
      </trkpt>
      <trkpt lat="44.78414" lon="6.35988">
        <ele>2460.8</ele>
        <time>2024-08-12T07:16:48Z</time>
      </trkpt>
      <trkpt lat="44.78414" lon="6.35988">
        <ele>2460.8</ele>
        <time>2024-08-12T07:16:49Z</time>
      </trkpt>
      <trkpt lat="44.78414" lon="6.35988">
        <ele>2460.6</ele>
        <time>2024-08-12T07:16:50Z</time>
      </trkpt>
      <trkpt lat="44.78414" lon="6.35988">
        <ele>2460.6</ele>
        <time>2024-08-12T07:16:51Z</time>
      </trkpt>
      <trkpt lat="44.78414" lon="6.35988">
        <ele>2460.6</ele>
        <time>2024-08-12T07:16:52Z</time>
      </trkpt>
      <trkpt lat="44.78414" lon="6.35988">
        <ele>2460.6</ele>
        <time>2024-08-12T07:16:53Z</time>
      </trkpt>
      <trkpt lat="44.78414" lon="6.35988">
        <ele>2460.6</ele>
        <time>2024-08-12T07:16:54Z</time>
      </trkpt>
      <trkpt lat="44.78414" lon="6.35988">
        <ele>2460.6</ele>
        <time>2024-08-12T07:16:55Z</time>
      </trkpt>
      <trkpt lat="44.78414" lon="6.35988">
        <ele>2460.6</ele>
        <time>2024-08-12T07:16:56Z</time>
      </trkpt>
      <trkpt lat="44.78414" lon="6.35988">
        <ele>2460.8</ele>
        <time>2024-08-12T07:16:57Z</time>
      </trkpt>
      <trkpt lat="44.78414" lon="6.35988">
        <ele>2460.8</ele>
        <time>2024-08-12T07:16:58Z</time>
      </trkpt>
      <trkpt lat="44.78414" lon="6.35988">
        <ele>2460.8</ele>
        <time>2024-08-12T07:16:59Z</time>
      </trkpt>
      <trkpt lat="44.78414" lon="6.35991">
        <ele>2460.8</ele>
        <time>2024-08-12T07:17:00Z</time>
      </trkpt>
      <trkpt lat="44.78414" lon="6.35991">
        <ele>2460.8</ele>
        <time>2024-08-12T07:17:01Z</time>
      </trkpt>
      <trkpt lat="44.78414" lon="6.35991">
        <ele>2461.2</ele>
        <time>2024-08-12T07:17:02Z</time>
      </trkpt>
      <trkpt lat="44.78414" lon="6.35991">
        <ele>2461.2</ele>
        <time>2024-08-12T07:17:03Z</time>
      </trkpt>
      <trkpt lat="44.78414" lon="6.35991">
        <ele>2461.2</ele>
        <time>2024-08-12T07:17:04Z</time>
      </trkpt>
      <trkpt lat="44.78414" lon="6.35991">
        <ele>2461.6</ele>
        <time>2024-08-12T07:17:05Z</time>
      </trkpt>
      <trkpt lat="44.78413" lon="6.35994">
        <ele>2461.8</ele>
        <time>2024-08-12T07:17:06Z</time>
      </trkpt>
      <trkpt lat="44.78413" lon="6.35994">
        <ele>2461.8</ele>
        <time>2024-08-12T07:17:07Z</time>
      </trkpt>
      <trkpt lat="44.78412" lon="6.35997">
        <ele>2461.8</ele>
        <time>2024-08-12T07:17:08Z</time>
      </trkpt>
      <trkpt lat="44.78412" lon="6.35997">
        <ele>2461.8</ele>
        <time>2024-08-12T07:17:09Z</time>
      </trkpt>
      <trkpt lat="44.7841" lon="6.35999">
        <ele>2462.2</ele>
        <time>2024-08-12T07:17:10Z</time>
      </trkpt>
      <trkpt lat="44.7841" lon="6.35999">
        <ele>2462.4</ele>
        <time>2024-08-12T07:17:11Z</time>
      </trkpt>
      <trkpt lat="44.78407" lon="6.36">
        <ele>2462.4</ele>
        <time>2024-08-12T07:17:12Z</time>
      </trkpt>
      <trkpt lat="44.78407" lon="6.36">
        <ele>2462.6</ele>
        <time>2024-08-12T07:17:13Z</time>
      </trkpt>
      <trkpt lat="44.78405" lon="6.36001">
        <ele>2462.8</ele>
        <time>2024-08-12T07:17:14Z</time>
      </trkpt>
      <trkpt lat="44.78405" lon="6.36001">
        <ele>2462.8</ele>
        <time>2024-08-12T07:17:15Z</time>
      </trkpt>
      <trkpt lat="44.78405" lon="6.36001">
        <ele>2463</ele>
        <time>2024-08-12T07:17:16Z</time>
      </trkpt>
      <trkpt lat="44.78404" lon="6.36003">
        <ele>2463.2</ele>
        <time>2024-08-12T07:17:17Z</time>
      </trkpt>
      <trkpt lat="44.78404" lon="6.36003">
        <ele>2463.4</ele>
        <time>2024-08-12T07:17:18Z</time>
      </trkpt>
      <trkpt lat="44.78402" lon="6.36005">
        <ele>2463.6</ele>
        <time>2024-08-12T07:17:19Z</time>
      </trkpt>
      <trkpt lat="44.78402" lon="6.36005">
        <ele>2463.8</ele>
        <time>2024-08-12T07:17:20Z</time>
      </trkpt>
      <trkpt lat="44.78402" lon="6.36005">
        <ele>2464</ele>
        <time>2024-08-12T07:17:21Z</time>
      </trkpt>
      <trkpt lat="44.784" lon="6.36007">
        <ele>2464</ele>
        <time>2024-08-12T07:17:22Z</time>
      </trkpt>
      <trkpt lat="44.784" lon="6.36007">
        <ele>2464</ele>
        <time>2024-08-12T07:17:23Z</time>
      </trkpt>
      <trkpt lat="44.78398" lon="6.36008">
        <ele>2464.2</ele>
        <time>2024-08-12T07:17:24Z</time>
      </trkpt>
      <trkpt lat="44.78398" lon="6.36008">
        <ele>2464.4</ele>
        <time>2024-08-12T07:17:25Z</time>
      </trkpt>
      <trkpt lat="44.78396" lon="6.36008">
        <ele>2464.4</ele>
        <time>2024-08-12T07:17:26Z</time>
      </trkpt>
      <trkpt lat="44.78396" lon="6.36008">
        <ele>2464.4</ele>
        <time>2024-08-12T07:17:27Z</time>
      </trkpt>
      <trkpt lat="44.78393" lon="6.36008">
        <ele>2464.4</ele>
        <time>2024-08-12T07:17:28Z</time>
      </trkpt>
      <trkpt lat="44.78393" lon="6.36008">
        <ele>2464.4</ele>
        <time>2024-08-12T07:17:29Z</time>
      </trkpt>
      <trkpt lat="44.78393" lon="6.36008">
        <ele>2464.4</ele>
        <time>2024-08-12T07:17:30Z</time>
      </trkpt>
      <trkpt lat="44.78391" lon="6.36007">
        <ele>2464.4</ele>
        <time>2024-08-12T07:17:31Z</time>
      </trkpt>
      <trkpt lat="44.78391" lon="6.36007">
        <ele>2464.6</ele>
        <time>2024-08-12T07:17:32Z</time>
      </trkpt>
      <trkpt lat="44.78389" lon="6.36007">
        <ele>2464.6</ele>
        <time>2024-08-12T07:17:33Z</time>
      </trkpt>
      <trkpt lat="44.78389" lon="6.36007">
        <ele>2465</ele>
        <time>2024-08-12T07:17:34Z</time>
      </trkpt>
      <trkpt lat="44.78387" lon="6.36007">
        <ele>2465</ele>
        <time>2024-08-12T07:17:35Z</time>
      </trkpt>
      <trkpt lat="44.78387" lon="6.36007">
        <ele>2465.2</ele>
        <time>2024-08-12T07:17:36Z</time>
      </trkpt>
      <trkpt lat="44.78384" lon="6.36007">
        <ele>2465.2</ele>
        <time>2024-08-12T07:17:37Z</time>
      </trkpt>
      <trkpt lat="44.78384" lon="6.36007">
        <ele>2465.4</ele>
        <time>2024-08-12T07:17:38Z</time>
      </trkpt>
      <trkpt lat="44.78384" lon="6.36007">
        <ele>2465.4</ele>
        <time>2024-08-12T07:17:39Z</time>
      </trkpt>
      <trkpt lat="44.78382" lon="6.36008">
        <ele>2465.8</ele>
        <time>2024-08-12T07:17:40Z</time>
      </trkpt>
      <trkpt lat="44.78382" lon="6.36008">
        <ele>2466</ele>
        <time>2024-08-12T07:17:41Z</time>
      </trkpt>
      <trkpt lat="44.78382" lon="6.36008">
        <ele>2466</ele>
        <time>2024-08-12T07:17:42Z</time>
      </trkpt>
      <trkpt lat="44.7838" lon="6.36008">
        <ele>2466</ele>
        <time>2024-08-12T07:17:43Z</time>
      </trkpt>
      <trkpt lat="44.7838" lon="6.36008">
        <ele>2466.2</ele>
        <time>2024-08-12T07:17:44Z</time>
      </trkpt>
      <trkpt lat="44.7838" lon="6.36008">
        <ele>2466.4</ele>
        <time>2024-08-12T07:17:45Z</time>
      </trkpt>
      <trkpt lat="44.78378" lon="6.36008">
        <ele>2466.4</ele>
        <time>2024-08-12T07:17:46Z</time>
      </trkpt>
      <trkpt lat="44.78378" lon="6.36008">
        <ele>2466.6</ele>
        <time>2024-08-12T07:17:47Z</time>
      </trkpt>
      <trkpt lat="44.78378" lon="6.36008">
        <ele>2466.6</ele>
        <time>2024-08-12T07:17:48Z</time>
      </trkpt>
      <trkpt lat="44.78375" lon="6.36008">
        <ele>2466.8</ele>
        <time>2024-08-12T07:17:49Z</time>
      </trkpt>
      <trkpt lat="44.78375" lon="6.36008">
        <ele>2466.8</ele>
        <time>2024-08-12T07:17:50Z</time>
      </trkpt>
      <trkpt lat="44.78375" lon="6.36008">
        <ele>2467</ele>
        <time>2024-08-12T07:17:51Z</time>
      </trkpt>
      <trkpt lat="44.78372" lon="6.36008">
        <ele>2467</ele>
        <time>2024-08-12T07:17:52Z</time>
      </trkpt>
      <trkpt lat="44.78372" lon="6.36008">
        <ele>2467.2</ele>
        <time>2024-08-12T07:17:53Z</time>
      </trkpt>
      <trkpt lat="44.78372" lon="6.36008">
        <ele>2467.2</ele>
        <time>2024-08-12T07:17:54Z</time>
      </trkpt>
      <trkpt lat="44.78372" lon="6.36008">
        <ele>2467.2</ele>
        <time>2024-08-12T07:17:55Z</time>
      </trkpt>
      <trkpt lat="44.78372" lon="6.36008">
        <ele>2467.4</ele>
        <time>2024-08-12T07:17:56Z</time>
      </trkpt>
      <trkpt lat="44.78373" lon="6.36005">
        <ele>2467.6</ele>
        <time>2024-08-12T07:17:57Z</time>
      </trkpt>
      <trkpt lat="44.78373" lon="6.36005">
        <ele>2467.6</ele>
        <time>2024-08-12T07:17:58Z</time>
      </trkpt>
      <trkpt lat="44.78375" lon="6.36003">
        <ele>2468</ele>
        <time>2024-08-12T07:17:59Z</time>
      </trkpt>
      <trkpt lat="44.78375" lon="6.36003">
        <ele>2468</ele>
        <time>2024-08-12T07:18:00Z</time>
      </trkpt>
      <trkpt lat="44.78376" lon="6.36001">
        <ele>2468</ele>
        <time>2024-08-12T07:18:01Z</time>
      </trkpt>
      <trkpt lat="44.78376" lon="6.36001">
        <ele>2468.4</ele>
        <time>2024-08-12T07:18:02Z</time>
      </trkpt>
      <trkpt lat="44.78378" lon="6.35999">
        <ele>2468.4</ele>
        <time>2024-08-12T07:18:03Z</time>
      </trkpt>
      <trkpt lat="44.78378" lon="6.35999">
        <ele>2468.2</ele>
        <time>2024-08-12T07:18:04Z</time>
      </trkpt>
      <trkpt lat="44.7838" lon="6.35997">
        <ele>2468.8</ele>
        <time>2024-08-12T07:18:05Z</time>
      </trkpt>
      <trkpt lat="44.7838" lon="6.35997">
        <ele>2469</ele>
        <time>2024-08-12T07:18:06Z</time>
      </trkpt>
      <trkpt lat="44.78382" lon="6.35995">
        <ele>2469</ele>
        <time>2024-08-12T07:18:07Z</time>
      </trkpt>
      <trkpt lat="44.78382" lon="6.35995">
        <ele>2468.8</ele>
        <time>2024-08-12T07:18:08Z</time>
      </trkpt>
      <trkpt lat="44.78383" lon="6.35993">
        <ele>2468.8</ele>
        <time>2024-08-12T07:18:09Z</time>
      </trkpt>
      <trkpt lat="44.78383" lon="6.35993">
        <ele>2468.8</ele>
        <time>2024-08-12T07:18:10Z</time>
      </trkpt>
      <trkpt lat="44.78383" lon="6.35993">
        <ele>2469</ele>
        <time>2024-08-12T07:18:11Z</time>
      </trkpt>
      <trkpt lat="44.78383" lon="6.3599">
        <ele>2469</ele>
        <time>2024-08-12T07:18:12Z</time>
      </trkpt>
      <trkpt lat="44.78383" lon="6.3599">
        <ele>2469</ele>
        <time>2024-08-12T07:18:13Z</time>
      </trkpt>
      <trkpt lat="44.78381" lon="6.35989">
        <ele>2469.2</ele>
        <time>2024-08-12T07:18:14Z</time>
      </trkpt>
      <trkpt lat="44.78381" lon="6.35989">
        <ele>2469.2</ele>
        <time>2024-08-12T07:18:15Z</time>
      </trkpt>
      <trkpt lat="44.78381" lon="6.35989">
        <ele>2469.4</ele>
        <time>2024-08-12T07:18:16Z</time>
      </trkpt>
      <trkpt lat="44.78379" lon="6.35989">
        <ele>2469.6</ele>
        <time>2024-08-12T07:18:17Z</time>
      </trkpt>
      <trkpt lat="44.78379" lon="6.35989">
        <ele>2469.8</ele>
        <time>2024-08-12T07:18:18Z</time>
      </trkpt>
      <trkpt lat="44.78379" lon="6.35989">
        <ele>2470</ele>
        <time>2024-08-12T07:18:19Z</time>
      </trkpt>
      <trkpt lat="44.78376" lon="6.35991">
        <ele>2470.2</ele>
        <time>2024-08-12T07:18:20Z</time>
      </trkpt>
      <trkpt lat="44.78376" lon="6.35991">
        <ele>2470.4</ele>
        <time>2024-08-12T07:18:21Z</time>
      </trkpt>
      <trkpt lat="44.78376" lon="6.35991">
        <ele>2470.6</ele>
        <time>2024-08-12T07:18:22Z</time>
      </trkpt>
      <trkpt lat="44.78376" lon="6.35991">
        <ele>2470.8</ele>
        <time>2024-08-12T07:18:23Z</time>
      </trkpt>
      <trkpt lat="44.78376" lon="6.35991">
        <ele>2471</ele>
        <time>2024-08-12T07:18:24Z</time>
      </trkpt>
      <trkpt lat="44.78376" lon="6.35991">
        <ele>2471</ele>
        <time>2024-08-12T07:18:25Z</time>
      </trkpt>
      <trkpt lat="44.78376" lon="6.35991">
        <ele>2471.4</ele>
        <time>2024-08-12T07:18:26Z</time>
      </trkpt>
      <trkpt lat="44.78376" lon="6.35991">
        <ele>2471.4</ele>
        <time>2024-08-12T07:18:27Z</time>
      </trkpt>
      <trkpt lat="44.78374" lon="6.35991">
        <ele>2471.6</ele>
        <time>2024-08-12T07:18:28Z</time>
      </trkpt>
      <trkpt lat="44.78374" lon="6.35991">
        <ele>2471.8</ele>
        <time>2024-08-12T07:18:29Z</time>
      </trkpt>
      <trkpt lat="44.78374" lon="6.35991">
        <ele>2471.8</ele>
        <time>2024-08-12T07:18:30Z</time>
      </trkpt>
      <trkpt lat="44.78372" lon="6.35992">
        <ele>2472</ele>
        <time>2024-08-12T07:18:31Z</time>
      </trkpt>
      <trkpt lat="44.78372" lon="6.35992">
        <ele>2472.2</ele>
        <time>2024-08-12T07:18:32Z</time>
      </trkpt>
      <trkpt lat="44.78368" lon="6.35992">
        <ele>2472.2</ele>
        <time>2024-08-12T07:18:33Z</time>
      </trkpt>
      <trkpt lat="44.78368" lon="6.35992">
        <ele>2472.6</ele>
        <time>2024-08-12T07:18:34Z</time>
      </trkpt>
      <trkpt lat="44.78366" lon="6.35991">
        <ele>2472.8</ele>
        <time>2024-08-12T07:18:35Z</time>
      </trkpt>
      <trkpt lat="44.78366" lon="6.35991">
        <ele>2473</ele>
        <time>2024-08-12T07:18:36Z</time>
      </trkpt>
      <trkpt lat="44.78364" lon="6.3599">
        <ele>2473.2</ele>
        <time>2024-08-12T07:18:37Z</time>
      </trkpt>
      <trkpt lat="44.78364" lon="6.3599">
        <ele>2473.2</ele>
        <time>2024-08-12T07:18:38Z</time>
      </trkpt>
      <trkpt lat="44.78364" lon="6.3599">
        <ele>2473.2</ele>
        <time>2024-08-12T07:18:39Z</time>
      </trkpt>
      <trkpt lat="44.78362" lon="6.3599">
        <ele>2473.4</ele>
        <time>2024-08-12T07:18:40Z</time>
      </trkpt>
      <trkpt lat="44.78362" lon="6.3599">
        <ele>2473.4</ele>
        <time>2024-08-12T07:18:41Z</time>
      </trkpt>
      <trkpt lat="44.7836" lon="6.35989">
        <ele>2473.2</ele>
        <time>2024-08-12T07:18:42Z</time>
      </trkpt>
      <trkpt lat="44.7836" lon="6.35989">
        <ele>2473.2</ele>
        <time>2024-08-12T07:18:43Z</time>
      </trkpt>
      <trkpt lat="44.7836" lon="6.35989">
        <ele>2473.6</ele>
        <time>2024-08-12T07:18:44Z</time>
      </trkpt>
      <trkpt lat="44.78358" lon="6.35987">
        <ele>2473.8</ele>
        <time>2024-08-12T07:18:45Z</time>
      </trkpt>
      <trkpt lat="44.78358" lon="6.35987">
        <ele>2473.8</ele>
        <time>2024-08-12T07:18:46Z</time>
      </trkpt>
      <trkpt lat="44.78358" lon="6.35987">
        <ele>2474</ele>
        <time>2024-08-12T07:18:47Z</time>
      </trkpt>
      <trkpt lat="44.78356" lon="6.35986">
        <ele>2474</ele>
        <time>2024-08-12T07:18:48Z</time>
      </trkpt>
      <trkpt lat="44.78356" lon="6.35986">
        <ele>2474.2</ele>
        <time>2024-08-12T07:18:49Z</time>
      </trkpt>
      <trkpt lat="44.78356" lon="6.35986">
        <ele>2474.2</ele>
        <time>2024-08-12T07:18:50Z</time>
      </trkpt>
      <trkpt lat="44.78354" lon="6.35985">
        <ele>2474.6</ele>
        <time>2024-08-12T07:18:51Z</time>
      </trkpt>
      <trkpt lat="44.78354" lon="6.35985">
        <ele>2475</ele>
        <time>2024-08-12T07:18:52Z</time>
      </trkpt>
      <trkpt lat="44.78353" lon="6.35984">
        <ele>2475</ele>
        <time>2024-08-12T07:18:53Z</time>
      </trkpt>
      <trkpt lat="44.78353" lon="6.35984">
        <ele>2475.2</ele>
        <time>2024-08-12T07:18:54Z</time>
      </trkpt>
      <trkpt lat="44.78353" lon="6.35984">
        <ele>2475.2</ele>
        <time>2024-08-12T07:18:55Z</time>
      </trkpt>
      <trkpt lat="44.78353" lon="6.35984">
        <ele>2475.2</ele>
        <time>2024-08-12T07:18:56Z</time>
      </trkpt>
      <trkpt lat="44.7835" lon="6.35982">
        <ele>2475.6</ele>
        <time>2024-08-12T07:18:57Z</time>
      </trkpt>
      <trkpt lat="44.7835" lon="6.35982">
        <ele>2475.8</ele>
        <time>2024-08-12T07:18:58Z</time>
      </trkpt>
      <trkpt lat="44.78349" lon="6.3598">
        <ele>2476</ele>
        <time>2024-08-12T07:18:59Z</time>
      </trkpt>
      <trkpt lat="44.78349" lon="6.3598">
        <ele>2476.4</ele>
        <time>2024-08-12T07:19:00Z</time>
      </trkpt>
      <trkpt lat="44.78347" lon="6.35979">
        <ele>2476.4</ele>
        <time>2024-08-12T07:19:01Z</time>
      </trkpt>
      <trkpt lat="44.78347" lon="6.35979">
        <ele>2476.8</ele>
        <time>2024-08-12T07:19:02Z</time>
      </trkpt>
      <trkpt lat="44.78346" lon="6.35977">
        <ele>2476.8</ele>
        <time>2024-08-12T07:19:03Z</time>
      </trkpt>
      <trkpt lat="44.78346" lon="6.35977">
        <ele>2477.4</ele>
        <time>2024-08-12T07:19:04Z</time>
      </trkpt>
      <trkpt lat="44.78346" lon="6.35977">
        <ele>2477.6</ele>
        <time>2024-08-12T07:19:05Z</time>
      </trkpt>
      <trkpt lat="44.78345" lon="6.35974">
        <ele>2477.8</ele>
        <time>2024-08-12T07:19:06Z</time>
      </trkpt>
      <trkpt lat="44.78345" lon="6.35974">
        <ele>2477.8</ele>
        <time>2024-08-12T07:19:07Z</time>
      </trkpt>
      <trkpt lat="44.78345" lon="6.35974">
        <ele>2478.2</ele>
        <time>2024-08-12T07:19:08Z</time>
      </trkpt>
      <trkpt lat="44.78342" lon="6.35972">
        <ele>2478.4</ele>
        <time>2024-08-12T07:19:09Z</time>
      </trkpt>
      <trkpt lat="44.78342" lon="6.35972">
        <ele>2478.6</ele>
        <time>2024-08-12T07:19:10Z</time>
      </trkpt>
      <trkpt lat="44.78342" lon="6.35972">
        <ele>2479</ele>
        <time>2024-08-12T07:19:11Z</time>
      </trkpt>
      <trkpt lat="44.78341" lon="6.35969">
        <ele>2479</ele>
        <time>2024-08-12T07:19:12Z</time>
      </trkpt>
      <trkpt lat="44.78341" lon="6.35969">
        <ele>2478.8</ele>
        <time>2024-08-12T07:19:13Z</time>
      </trkpt>
      <trkpt lat="44.78339" lon="6.35967">
        <ele>2478.4</ele>
        <time>2024-08-12T07:19:14Z</time>
      </trkpt>
      <trkpt lat="44.78339" lon="6.35967">
        <ele>2478.4</ele>
        <time>2024-08-12T07:19:15Z</time>
      </trkpt>
      <trkpt lat="44.78338" lon="6.35966">
        <ele>2478.4</ele>
        <time>2024-08-12T07:19:16Z</time>
      </trkpt>
      <trkpt lat="44.78338" lon="6.35966">
        <ele>2478.4</ele>
        <time>2024-08-12T07:19:17Z</time>
      </trkpt>
      <trkpt lat="44.78336" lon="6.35964">
        <ele>2478.4</ele>
        <time>2024-08-12T07:19:18Z</time>
      </trkpt>
      <trkpt lat="44.78336" lon="6.35964">
        <ele>2478.8</ele>
        <time>2024-08-12T07:19:19Z</time>
      </trkpt>
      <trkpt lat="44.78334" lon="6.35962">
        <ele>2478.8</ele>
        <time>2024-08-12T07:19:20Z</time>
      </trkpt>
      <trkpt lat="44.78334" lon="6.35962">
        <ele>2478.6</ele>
        <time>2024-08-12T07:19:21Z</time>
      </trkpt>
      <trkpt lat="44.78332" lon="6.3596">
        <ele>2478.6</ele>
        <time>2024-08-12T07:19:22Z</time>
      </trkpt>
      <trkpt lat="44.78332" lon="6.3596">
        <ele>2478.8</ele>
        <time>2024-08-12T07:19:23Z</time>
      </trkpt>
      <trkpt lat="44.7833" lon="6.35958">
        <ele>2478.8</ele>
        <time>2024-08-12T07:19:24Z</time>
      </trkpt>
      <trkpt lat="44.7833" lon="6.35958">
        <ele>2478.8</ele>
        <time>2024-08-12T07:19:25Z</time>
      </trkpt>
      <trkpt lat="44.78329" lon="6.35955">
        <ele>2478.8</ele>
        <time>2024-08-12T07:19:26Z</time>
      </trkpt>
      <trkpt lat="44.78329" lon="6.35955">
        <ele>2478.8</ele>
        <time>2024-08-12T07:19:27Z</time>
      </trkpt>
      <trkpt lat="44.78329" lon="6.35955">
        <ele>2478.8</ele>
        <time>2024-08-12T07:19:28Z</time>
      </trkpt>
      <trkpt lat="44.78328" lon="6.35952">
        <ele>2478.8</ele>
        <time>2024-08-12T07:19:29Z</time>
      </trkpt>
      <trkpt lat="44.78328" lon="6.35952">
        <ele>2478.8</ele>
        <time>2024-08-12T07:19:30Z</time>
      </trkpt>
      <trkpt lat="44.78326" lon="6.3595">
        <ele>2478.8</ele>
        <time>2024-08-12T07:19:31Z</time>
      </trkpt>
      <trkpt lat="44.78326" lon="6.3595">
        <ele>2479</ele>
        <time>2024-08-12T07:19:32Z</time>
      </trkpt>
      <trkpt lat="44.78326" lon="6.3595">
        <ele>2479</ele>
        <time>2024-08-12T07:19:33Z</time>
      </trkpt>
      <trkpt lat="44.78325" lon="6.35946">
        <ele>2479</ele>
        <time>2024-08-12T07:19:34Z</time>
      </trkpt>
      <trkpt lat="44.78325" lon="6.35946">
        <ele>2479.2</ele>
        <time>2024-08-12T07:19:35Z</time>
      </trkpt>
      <trkpt lat="44.78325" lon="6.35946">
        <ele>2479.2</ele>
        <time>2024-08-12T07:19:36Z</time>
      </trkpt>
      <trkpt lat="44.78325" lon="6.35946">
        <ele>2479.2</ele>
        <time>2024-08-12T07:19:37Z</time>
      </trkpt>
      <trkpt lat="44.78325" lon="6.35946">
        <ele>2479.4</ele>
        <time>2024-08-12T07:19:38Z</time>
      </trkpt>
      <trkpt lat="44.78325" lon="6.35946">
        <ele>2479.4</ele>
        <time>2024-08-12T07:19:39Z</time>
      </trkpt>
      <trkpt lat="44.78325" lon="6.35946">
        <ele>2479.4</ele>
        <time>2024-08-12T07:19:40Z</time>
      </trkpt>
      <trkpt lat="44.78325" lon="6.35946">
        <ele>2479.4</ele>
        <time>2024-08-12T07:19:41Z</time>
      </trkpt>
      <trkpt lat="44.78325" lon="6.35946">
        <ele>2479.4</ele>
        <time>2024-08-12T07:19:42Z</time>
      </trkpt>
      <trkpt lat="44.78325" lon="6.35946">
        <ele>2479.4</ele>
        <time>2024-08-12T07:19:43Z</time>
      </trkpt>
      <trkpt lat="44.78325" lon="6.35946">
        <ele>2479.2</ele>
        <time>2024-08-12T07:19:44Z</time>
      </trkpt>
      <trkpt lat="44.78325" lon="6.35946">
        <ele>2479</ele>
        <time>2024-08-12T07:19:45Z</time>
      </trkpt>
      <trkpt lat="44.78325" lon="6.35946">
        <ele>2479</ele>
        <time>2024-08-12T07:19:46Z</time>
      </trkpt>
      <trkpt lat="44.78324" lon="6.35944">
        <ele>2478.6</ele>
        <time>2024-08-12T07:19:47Z</time>
      </trkpt>
      <trkpt lat="44.78324" lon="6.35944">
        <ele>2478.6</ele>
        <time>2024-08-12T07:19:48Z</time>
      </trkpt>
      <trkpt lat="44.78322" lon="6.35941">
        <ele>2478.8</ele>
        <time>2024-08-12T07:19:49Z</time>
      </trkpt>
      <trkpt lat="44.78322" lon="6.35941">
        <ele>2479</ele>
        <time>2024-08-12T07:19:50Z</time>
      </trkpt>
      <trkpt lat="44.7832" lon="6.35939">
        <ele>2479</ele>
        <time>2024-08-12T07:19:51Z</time>
      </trkpt>
      <trkpt lat="44.7832" lon="6.35939">
        <ele>2479.2</ele>
        <time>2024-08-12T07:19:52Z</time>
      </trkpt>
      <trkpt lat="44.78318" lon="6.35936">
        <ele>2479.4</ele>
        <time>2024-08-12T07:19:53Z</time>
      </trkpt>
      <trkpt lat="44.78318" lon="6.35936">
        <ele>2479.8</ele>
        <time>2024-08-12T07:19:54Z</time>
      </trkpt>
      <trkpt lat="44.78316" lon="6.35934">
        <ele>2480</ele>
        <time>2024-08-12T07:19:55Z</time>
      </trkpt>
      <trkpt lat="44.78316" lon="6.35934">
        <ele>2480</ele>
        <time>2024-08-12T07:19:56Z</time>
      </trkpt>
      <trkpt lat="44.78315" lon="6.35932">
        <ele>2480</ele>
        <time>2024-08-12T07:19:57Z</time>
      </trkpt>
      <trkpt lat="44.78315" lon="6.35932">
        <ele>2480</ele>
        <time>2024-08-12T07:19:58Z</time>
      </trkpt>
      <trkpt lat="44.78315" lon="6.35932">
        <ele>2480.2</ele>
        <time>2024-08-12T07:19:59Z</time>
      </trkpt>
      <trkpt lat="44.78314" lon="6.35929">
        <ele>2480.2</ele>
        <time>2024-08-12T07:20:00Z</time>
      </trkpt>
      <trkpt lat="44.78314" lon="6.35929">
        <ele>2480.6</ele>
        <time>2024-08-12T07:20:01Z</time>
      </trkpt>
      <trkpt lat="44.78312" lon="6.35927">
        <ele>2481.4</ele>
        <time>2024-08-12T07:20:02Z</time>
      </trkpt>
      <trkpt lat="44.78312" lon="6.35927">
        <ele>2481.6</ele>
        <time>2024-08-12T07:20:03Z</time>
      </trkpt>
      <trkpt lat="44.78312" lon="6.35927">
        <ele>2481.8</ele>
        <time>2024-08-12T07:20:04Z</time>
      </trkpt>
      <trkpt lat="44.78312" lon="6.35924">
        <ele>2482</ele>
        <time>2024-08-12T07:20:05Z</time>
      </trkpt>
      <trkpt lat="44.78312" lon="6.35924">
        <ele>2482.2</ele>
        <time>2024-08-12T07:20:06Z</time>
      </trkpt>
      <trkpt lat="44.7831" lon="6.35922">
        <ele>2482.2</ele>
        <time>2024-08-12T07:20:07Z</time>
      </trkpt>
      <trkpt lat="44.7831" lon="6.35922">
        <ele>2482.4</ele>
        <time>2024-08-12T07:20:08Z</time>
      </trkpt>
      <trkpt lat="44.7831" lon="6.35922">
        <ele>2482.4</ele>
        <time>2024-08-12T07:20:09Z</time>
      </trkpt>
      <trkpt lat="44.78308" lon="6.35919">
        <ele>2482.6</ele>
        <time>2024-08-12T07:20:10Z</time>
      </trkpt>
      <trkpt lat="44.78308" lon="6.35919">
        <ele>2482.4</ele>
        <time>2024-08-12T07:20:11Z</time>
      </trkpt>
      <trkpt lat="44.78307" lon="6.35917">
        <ele>2482.6</ele>
        <time>2024-08-12T07:20:12Z</time>
      </trkpt>
      <trkpt lat="44.78307" lon="6.35917">
        <ele>2482.8</ele>
        <time>2024-08-12T07:20:13Z</time>
      </trkpt>
      <trkpt lat="44.78307" lon="6.35917">
        <ele>2483.2</ele>
        <time>2024-08-12T07:20:14Z</time>
      </trkpt>
      <trkpt lat="44.78307" lon="6.35917">
        <ele>2483.2</ele>
        <time>2024-08-12T07:20:15Z</time>
      </trkpt>
      <trkpt lat="44.78307" lon="6.35917">
        <ele>2483</ele>
        <time>2024-08-12T07:20:16Z</time>
      </trkpt>
      <trkpt lat="44.78307" lon="6.35917">
        <ele>2483</ele>
        <time>2024-08-12T07:20:17Z</time>
      </trkpt>
      <trkpt lat="44.78307" lon="6.35917">
        <ele>2483</ele>
        <time>2024-08-12T07:20:18Z</time>
      </trkpt>
      <trkpt lat="44.78307" lon="6.35917">
        <ele>2483</ele>
        <time>2024-08-12T07:20:19Z</time>
      </trkpt>
      <trkpt lat="44.78307" lon="6.35917">
        <ele>2483</ele>
        <time>2024-08-12T07:20:20Z</time>
      </trkpt>
      <trkpt lat="44.78307" lon="6.35917">
        <ele>2482.8</ele>
        <time>2024-08-12T07:20:21Z</time>
      </trkpt>
      <trkpt lat="44.78307" lon="6.35917">
        <ele>2482.8</ele>
        <time>2024-08-12T07:20:22Z</time>
      </trkpt>
      <trkpt lat="44.78306" lon="6.35914">
        <ele>2482.8</ele>
        <time>2024-08-12T07:20:23Z</time>
      </trkpt>
      <trkpt lat="44.78306" lon="6.35914">
        <ele>2483</ele>
        <time>2024-08-12T07:20:24Z</time>
      </trkpt>
      <trkpt lat="44.78304" lon="6.35911">
        <ele>2483</ele>
        <time>2024-08-12T07:20:25Z</time>
      </trkpt>
      <trkpt lat="44.78303" lon="6.35909">
        <ele>2483.4</ele>
        <time>2024-08-12T07:20:26Z</time>
      </trkpt>
      <trkpt lat="44.78303" lon="6.35909">
        <ele>2483.4</ele>
        <time>2024-08-12T07:20:27Z</time>
      </trkpt>
      <trkpt lat="44.78301" lon="6.35906">
        <ele>2483.6</ele>
        <time>2024-08-12T07:20:28Z</time>
      </trkpt>
      <trkpt lat="44.78301" lon="6.35906">
        <ele>2483.8</ele>
        <time>2024-08-12T07:20:29Z</time>
      </trkpt>
      <trkpt lat="44.78299" lon="6.35903">
        <ele>2483.8</ele>
        <time>2024-08-12T07:20:30Z</time>
      </trkpt>
      <trkpt lat="44.78299" lon="6.35903">
        <ele>2483.8</ele>
        <time>2024-08-12T07:20:31Z</time>
      </trkpt>
      <trkpt lat="44.78298" lon="6.35901">
        <ele>2484</ele>
        <time>2024-08-12T07:20:32Z</time>
      </trkpt>
      <trkpt lat="44.78298" lon="6.35901">
        <ele>2484.2</ele>
        <time>2024-08-12T07:20:33Z</time>
      </trkpt>
      <trkpt lat="44.78296" lon="6.35899">
        <ele>2484.2</ele>
        <time>2024-08-12T07:20:34Z</time>
      </trkpt>
      <trkpt lat="44.78296" lon="6.35899">
        <ele>2484.4</ele>
        <time>2024-08-12T07:20:35Z</time>
      </trkpt>
      <trkpt lat="44.78294" lon="6.35897">
        <ele>2484.6</ele>
        <time>2024-08-12T07:20:36Z</time>
      </trkpt>
      <trkpt lat="44.78294" lon="6.35897">
        <ele>2484.6</ele>
        <time>2024-08-12T07:20:37Z</time>
      </trkpt>
      <trkpt lat="44.78293" lon="6.35895">
        <ele>2484.8</ele>
        <time>2024-08-12T07:20:38Z</time>
      </trkpt>
      <trkpt lat="44.78293" lon="6.35895">
        <ele>2484.8</ele>
        <time>2024-08-12T07:20:39Z</time>
      </trkpt>
      <trkpt lat="44.7829" lon="6.35894">
        <ele>2485</ele>
        <time>2024-08-12T07:20:40Z</time>
      </trkpt>
      <trkpt lat="44.7829" lon="6.35894">
        <ele>2485</ele>
        <time>2024-08-12T07:20:41Z</time>
      </trkpt>
      <trkpt lat="44.78289" lon="6.35892">
        <ele>2485</ele>
        <time>2024-08-12T07:20:42Z</time>
      </trkpt>
      <trkpt lat="44.78289" lon="6.35892">
        <ele>2485</ele>
        <time>2024-08-12T07:20:43Z</time>
      </trkpt>
      <trkpt lat="44.78287" lon="6.3589">
        <ele>2485.2</ele>
        <time>2024-08-12T07:20:44Z</time>
      </trkpt>
      <trkpt lat="44.78287" lon="6.3589">
        <ele>2485.2</ele>
        <time>2024-08-12T07:20:45Z</time>
      </trkpt>
      <trkpt lat="44.78285" lon="6.35888">
        <ele>2485.2</ele>
        <time>2024-08-12T07:20:46Z</time>
      </trkpt>
      <trkpt lat="44.78285" lon="6.35888">
        <ele>2485.2</ele>
        <time>2024-08-12T07:20:47Z</time>
      </trkpt>
      <trkpt lat="44.78284" lon="6.35885">
        <ele>2485.2</ele>
        <time>2024-08-12T07:20:48Z</time>
      </trkpt>
      <trkpt lat="44.78284" lon="6.35885">
        <ele>2485.2</ele>
        <time>2024-08-12T07:20:49Z</time>
      </trkpt>
      <trkpt lat="44.78284" lon="6.35882">
        <ele>2485.4</ele>
        <time>2024-08-12T07:20:50Z</time>
      </trkpt>
      <trkpt lat="44.78284" lon="6.35882">
        <ele>2485.6</ele>
        <time>2024-08-12T07:20:51Z</time>
      </trkpt>
      <trkpt lat="44.78284" lon="6.35878">
        <ele>2485.6</ele>
        <time>2024-08-12T07:20:52Z</time>
      </trkpt>
      <trkpt lat="44.78284" lon="6.35878">
        <ele>2485.6</ele>
        <time>2024-08-12T07:20:53Z</time>
      </trkpt>
      <trkpt lat="44.78284" lon="6.35875">
        <ele>2485.6</ele>
        <time>2024-08-12T07:20:54Z</time>
      </trkpt>
      <trkpt lat="44.78284" lon="6.35875">
        <ele>2485.8</ele>
        <time>2024-08-12T07:20:55Z</time>
      </trkpt>
      <trkpt lat="44.78284" lon="6.35871">
        <ele>2486.2</ele>
        <time>2024-08-12T07:20:56Z</time>
      </trkpt>
      <trkpt lat="44.78284" lon="6.35871">
        <ele>2486.2</ele>
        <time>2024-08-12T07:20:57Z</time>
      </trkpt>
      <trkpt lat="44.78284" lon="6.35868">
        <ele>2486.4</ele>
        <time>2024-08-12T07:20:58Z</time>
      </trkpt>
      <trkpt lat="44.78284" lon="6.35868">
        <ele>2486.6</ele>
        <time>2024-08-12T07:20:59Z</time>
      </trkpt>
      <trkpt lat="44.78283" lon="6.35865">
        <ele>2487</ele>
        <time>2024-08-12T07:21:00Z</time>
      </trkpt>
      <trkpt lat="44.78283" lon="6.35865">
        <ele>2487</ele>
        <time>2024-08-12T07:21:01Z</time>
      </trkpt>
      <trkpt lat="44.78282" lon="6.35862">
        <ele>2487</ele>
        <time>2024-08-12T07:21:02Z</time>
      </trkpt>
      <trkpt lat="44.78282" lon="6.35862">
        <ele>2487</ele>
        <time>2024-08-12T07:21:03Z</time>
      </trkpt>
      <trkpt lat="44.78281" lon="6.35859">
        <ele>2486.2</ele>
        <time>2024-08-12T07:21:04Z</time>
      </trkpt>
      <trkpt lat="44.78281" lon="6.35859">
        <ele>2486.2</ele>
        <time>2024-08-12T07:21:05Z</time>
      </trkpt>
      <trkpt lat="44.78279" lon="6.35855">
        <ele>2486.2</ele>
        <time>2024-08-12T07:21:06Z</time>
      </trkpt>
      <trkpt lat="44.78279" lon="6.35855">
        <ele>2486.2</ele>
        <time>2024-08-12T07:21:07Z</time>
      </trkpt>
      <trkpt lat="44.78278" lon="6.35852">
        <ele>2486</ele>
        <time>2024-08-12T07:21:08Z</time>
      </trkpt>
      <trkpt lat="44.78278" lon="6.35852">
        <ele>2486</ele>
        <time>2024-08-12T07:21:09Z</time>
      </trkpt>
      <trkpt lat="44.78277" lon="6.3585">
        <ele>2485.8</ele>
        <time>2024-08-12T07:21:10Z</time>
      </trkpt>
      <trkpt lat="44.78277" lon="6.3585">
        <ele>2485.6</ele>
        <time>2024-08-12T07:21:11Z</time>
      </trkpt>
      <trkpt lat="44.78276" lon="6.35847">
        <ele>2485.4</ele>
        <time>2024-08-12T07:21:12Z</time>
      </trkpt>
      <trkpt lat="44.78276" lon="6.35847">
        <ele>2485</ele>
        <time>2024-08-12T07:21:13Z</time>
      </trkpt>
      <trkpt lat="44.78274" lon="6.35844">
        <ele>2485</ele>
        <time>2024-08-12T07:21:14Z</time>
      </trkpt>
      <trkpt lat="44.78274" lon="6.35844">
        <ele>2485</ele>
        <time>2024-08-12T07:21:15Z</time>
      </trkpt>
      <trkpt lat="44.78273" lon="6.35841">
        <ele>2485</ele>
        <time>2024-08-12T07:21:16Z</time>
      </trkpt>
      <trkpt lat="44.78273" lon="6.35841">
        <ele>2484.8</ele>
        <time>2024-08-12T07:21:17Z</time>
      </trkpt>
      <trkpt lat="44.78271" lon="6.35838">
        <ele>2484.4</ele>
        <time>2024-08-12T07:21:18Z</time>
      </trkpt>
      <trkpt lat="44.78271" lon="6.35838">
        <ele>2484.2</ele>
        <time>2024-08-12T07:21:19Z</time>
      </trkpt>
      <trkpt lat="44.7827" lon="6.35835">
        <ele>2484.2</ele>
        <time>2024-08-12T07:21:20Z</time>
      </trkpt>
      <trkpt lat="44.7827" lon="6.35835">
        <ele>2484.2</ele>
        <time>2024-08-12T07:21:21Z</time>
      </trkpt>
      <trkpt lat="44.7827" lon="6.35832">
        <ele>2484.2</ele>
        <time>2024-08-12T07:21:22Z</time>
      </trkpt>
      <trkpt lat="44.7827" lon="6.35832">
        <ele>2484.2</ele>
        <time>2024-08-12T07:21:23Z</time>
      </trkpt>
      <trkpt lat="44.78269" lon="6.35829">
        <ele>2484.4</ele>
        <time>2024-08-12T07:21:24Z</time>
      </trkpt>
      <trkpt lat="44.78269" lon="6.35829">
        <ele>2484.4</ele>
        <time>2024-08-12T07:21:25Z</time>
      </trkpt>
      <trkpt lat="44.78268" lon="6.35827">
        <ele>2484.6</ele>
        <time>2024-08-12T07:21:26Z</time>
      </trkpt>
      <trkpt lat="44.78268" lon="6.35827">
        <ele>2484.6</ele>
        <time>2024-08-12T07:21:27Z</time>
      </trkpt>
      <trkpt lat="44.78266" lon="6.35826">
        <ele>2484.2</ele>
        <time>2024-08-12T07:21:28Z</time>
      </trkpt>
      <trkpt lat="44.78266" lon="6.35826">
        <ele>2484</ele>
        <time>2024-08-12T07:21:29Z</time>
      </trkpt>
      <trkpt lat="44.78265" lon="6.35823">
        <ele>2484</ele>
        <time>2024-08-12T07:21:30Z</time>
      </trkpt>
      <trkpt lat="44.78265" lon="6.35823">
        <ele>2484.2</ele>
        <time>2024-08-12T07:21:31Z</time>
      </trkpt>
      <trkpt lat="44.78263" lon="6.35822">
        <ele>2484</ele>
        <time>2024-08-12T07:21:32Z</time>
      </trkpt>
      <trkpt lat="44.78263" lon="6.35822">
        <ele>2484</ele>
        <time>2024-08-12T07:21:33Z</time>
      </trkpt>
      <trkpt lat="44.78261" lon="6.35821">
        <ele>2484</ele>
        <time>2024-08-12T07:21:34Z</time>
      </trkpt>
      <trkpt lat="44.78261" lon="6.35821">
        <ele>2484</ele>
        <time>2024-08-12T07:21:35Z</time>
      </trkpt>
      <trkpt lat="44.78259" lon="6.3582">
        <ele>2484.2</ele>
        <time>2024-08-12T07:21:36Z</time>
      </trkpt>
      <trkpt lat="44.78259" lon="6.3582">
        <ele>2484.6</ele>
        <time>2024-08-12T07:21:37Z</time>
      </trkpt>
      <trkpt lat="44.78257" lon="6.35818">
        <ele>2485</ele>
        <time>2024-08-12T07:21:38Z</time>
      </trkpt>
      <trkpt lat="44.78257" lon="6.35818">
        <ele>2485.2</ele>
        <time>2024-08-12T07:21:39Z</time>
      </trkpt>
      <trkpt lat="44.78255" lon="6.35817">
        <ele>2485.2</ele>
        <time>2024-08-12T07:21:40Z</time>
      </trkpt>
      <trkpt lat="44.78255" lon="6.35817">
        <ele>2485.4</ele>
        <time>2024-08-12T07:21:41Z</time>
      </trkpt>
      <trkpt lat="44.78253" lon="6.35815">
        <ele>2485.4</ele>
        <time>2024-08-12T07:21:42Z</time>
      </trkpt>
      <trkpt lat="44.78253" lon="6.35815">
        <ele>2485.6</ele>
        <time>2024-08-12T07:21:43Z</time>
      </trkpt>
      <trkpt lat="44.78251" lon="6.35813">
        <ele>2485.8</ele>
        <time>2024-08-12T07:21:44Z</time>
      </trkpt>
      <trkpt lat="44.78251" lon="6.35813">
        <ele>2485.8</ele>
        <time>2024-08-12T07:21:45Z</time>
      </trkpt>
      <trkpt lat="44.78249" lon="6.35811">
        <ele>2485.8</ele>
        <time>2024-08-12T07:21:46Z</time>
      </trkpt>
      <trkpt lat="44.78249" lon="6.35811">
        <ele>2485.6</ele>
        <time>2024-08-12T07:21:47Z</time>
      </trkpt>
      <trkpt lat="44.78246" lon="6.3581">
        <ele>2485.6</ele>
        <time>2024-08-12T07:21:48Z</time>
      </trkpt>
      <trkpt lat="44.78246" lon="6.3581">
        <ele>2485.6</ele>
        <time>2024-08-12T07:21:49Z</time>
      </trkpt>
      <trkpt lat="44.78245" lon="6.35808">
        <ele>2485.8</ele>
        <time>2024-08-12T07:21:50Z</time>
      </trkpt>
      <trkpt lat="44.78245" lon="6.35808">
        <ele>2485.8</ele>
        <time>2024-08-12T07:21:51Z</time>
      </trkpt>
      <trkpt lat="44.78242" lon="6.35807">
        <ele>2485.8</ele>
        <time>2024-08-12T07:21:52Z</time>
      </trkpt>
      <trkpt lat="44.78242" lon="6.35807">
        <ele>2485.8</ele>
        <time>2024-08-12T07:21:53Z</time>
      </trkpt>
      <trkpt lat="44.7824" lon="6.35807">
        <ele>2485.8</ele>
        <time>2024-08-12T07:21:54Z</time>
      </trkpt>
      <trkpt lat="44.7824" lon="6.35807">
        <ele>2486.2</ele>
        <time>2024-08-12T07:21:55Z</time>
      </trkpt>
      <trkpt lat="44.78238" lon="6.35807">
        <ele>2486.4</ele>
        <time>2024-08-12T07:21:56Z</time>
      </trkpt>
      <trkpt lat="44.78238" lon="6.35807">
        <ele>2486.2</ele>
        <time>2024-08-12T07:21:57Z</time>
      </trkpt>
      <trkpt lat="44.78236" lon="6.35807">
        <ele>2486</ele>
        <time>2024-08-12T07:21:58Z</time>
      </trkpt>
      <trkpt lat="44.78236" lon="6.35807">
        <ele>2485.8</ele>
        <time>2024-08-12T07:21:59Z</time>
      </trkpt>
      <trkpt lat="44.78234" lon="6.35808">
        <ele>2485.8</ele>
        <time>2024-08-12T07:22:00Z</time>
      </trkpt>
      <trkpt lat="44.78234" lon="6.35808">
        <ele>2485.8</ele>
        <time>2024-08-12T07:22:01Z</time>
      </trkpt>
      <trkpt lat="44.78234" lon="6.35808">
        <ele>2485.6</ele>
        <time>2024-08-12T07:22:02Z</time>
      </trkpt>
      <trkpt lat="44.78233" lon="6.3581">
        <ele>2485.6</ele>
        <time>2024-08-12T07:22:03Z</time>
      </trkpt>
      <trkpt lat="44.78233" lon="6.3581">
        <ele>2485.6</ele>
        <time>2024-08-12T07:22:04Z</time>
      </trkpt>
      <trkpt lat="44.78233" lon="6.3581">
        <ele>2485.6</ele>
        <time>2024-08-12T07:22:05Z</time>
      </trkpt>
      <trkpt lat="44.78231" lon="6.35812">
        <ele>2485.2</ele>
        <time>2024-08-12T07:22:06Z</time>
      </trkpt>
      <trkpt lat="44.78231" lon="6.35812">
        <ele>2485.4</ele>
        <time>2024-08-12T07:22:07Z</time>
      </trkpt>
      <trkpt lat="44.78231" lon="6.35812">
        <ele>2485.4</ele>
        <time>2024-08-12T07:22:08Z</time>
      </trkpt>
      <trkpt lat="44.7823" lon="6.35814">
        <ele>2485.4</ele>
        <time>2024-08-12T07:22:09Z</time>
      </trkpt>
      <trkpt lat="44.7823" lon="6.35814">
        <ele>2485.2</ele>
        <time>2024-08-12T07:22:10Z</time>
      </trkpt>
      <trkpt lat="44.78231" lon="6.35816">
        <ele>2485.2</ele>
        <time>2024-08-12T07:22:11Z</time>
      </trkpt>
      <trkpt lat="44.78231" lon="6.35816">
        <ele>2485.2</ele>
        <time>2024-08-12T07:22:12Z</time>
      </trkpt>
      <trkpt lat="44.78231" lon="6.35816">
        <ele>2485.2</ele>
        <time>2024-08-12T07:22:13Z</time>
      </trkpt>
      <trkpt lat="44.78231" lon="6.35819">
        <ele>2485.2</ele>
        <time>2024-08-12T07:22:14Z</time>
      </trkpt>
      <trkpt lat="44.78231" lon="6.35819">
        <ele>2485.4</ele>
        <time>2024-08-12T07:22:15Z</time>
      </trkpt>
      <trkpt lat="44.78231" lon="6.35819">
        <ele>2485.8</ele>
        <time>2024-08-12T07:22:16Z</time>
      </trkpt>
      <trkpt lat="44.78231" lon="6.35819">
        <ele>2485.8</ele>
        <time>2024-08-12T07:22:17Z</time>
      </trkpt>
      <trkpt lat="44.78231" lon="6.35819">
        <ele>2486</ele>
        <time>2024-08-12T07:22:18Z</time>
      </trkpt>
      <trkpt lat="44.78231" lon="6.35819">
        <ele>2486</ele>
        <time>2024-08-12T07:22:19Z</time>
      </trkpt>
      <trkpt lat="44.78231" lon="6.35819">
        <ele>2486</ele>
        <time>2024-08-12T07:22:20Z</time>
      </trkpt>
      <trkpt lat="44.78231" lon="6.35819">
        <ele>2486</ele>
        <time>2024-08-12T07:22:21Z</time>
      </trkpt>
      <trkpt lat="44.78231" lon="6.35819">
        <ele>2486</ele>
        <time>2024-08-12T07:22:22Z</time>
      </trkpt>
      <trkpt lat="44.78231" lon="6.35819">
        <ele>2486</ele>
        <time>2024-08-12T07:22:23Z</time>
      </trkpt>
      <trkpt lat="44.78231" lon="6.35819">
        <ele>2486</ele>
        <time>2024-08-12T07:22:24Z</time>
      </trkpt>
      <trkpt lat="44.78231" lon="6.35819">
        <ele>2486.2</ele>
        <time>2024-08-12T07:22:25Z</time>
      </trkpt>
      <trkpt lat="44.78231" lon="6.35819">
        <ele>2486.2</ele>
        <time>2024-08-12T07:22:26Z</time>
      </trkpt>
      <trkpt lat="44.78231" lon="6.35819">
        <ele>2486.4</ele>
        <time>2024-08-12T07:22:27Z</time>
      </trkpt>
      <trkpt lat="44.78231" lon="6.35819">
        <ele>2486.4</ele>
        <time>2024-08-12T07:22:28Z</time>
      </trkpt>
      <trkpt lat="44.78231" lon="6.35819">
        <ele>2486.4</ele>
        <time>2024-08-12T07:22:29Z</time>
      </trkpt>
      <trkpt lat="44.78231" lon="6.35819">
        <ele>2486.2</ele>
        <time>2024-08-12T07:22:30Z</time>
      </trkpt>
      <trkpt lat="44.78231" lon="6.35819">
        <ele>2486.2</ele>
        <time>2024-08-12T07:22:31Z</time>
      </trkpt>
      <trkpt lat="44.78231" lon="6.35819">
        <ele>2486.2</ele>
        <time>2024-08-12T07:22:32Z</time>
      </trkpt>
      <trkpt lat="44.78231" lon="6.35819">
        <ele>2486.4</ele>
        <time>2024-08-12T07:22:33Z</time>
      </trkpt>
      <trkpt lat="44.78231" lon="6.35819">
        <ele>2486.4</ele>
        <time>2024-08-12T07:22:34Z</time>
      </trkpt>
      <trkpt lat="44.78231" lon="6.35819">
        <ele>2486.6</ele>
        <time>2024-08-12T07:22:35Z</time>
      </trkpt>
      <trkpt lat="44.78231" lon="6.35819">
        <ele>2486.8</ele>
        <time>2024-08-12T07:22:36Z</time>
      </trkpt>
      <trkpt lat="44.78231" lon="6.35819">
        <ele>2486.8</ele>
        <time>2024-08-12T07:22:37Z</time>
      </trkpt>
      <trkpt lat="44.78231" lon="6.35819">
        <ele>2486.6</ele>
        <time>2024-08-12T07:22:38Z</time>
      </trkpt>
      <trkpt lat="44.78231" lon="6.35819">
        <ele>2486.6</ele>
        <time>2024-08-12T07:22:39Z</time>
      </trkpt>
      <trkpt lat="44.78231" lon="6.35819">
        <ele>2486.6</ele>
        <time>2024-08-12T07:22:40Z</time>
      </trkpt>
      <trkpt lat="44.78231" lon="6.35819">
        <ele>2486.6</ele>
        <time>2024-08-12T07:22:41Z</time>
      </trkpt>
      <trkpt lat="44.78231" lon="6.35819">
        <ele>2486.4</ele>
        <time>2024-08-12T07:22:42Z</time>
      </trkpt>
      <trkpt lat="44.78231" lon="6.35819">
        <ele>2486.4</ele>
        <time>2024-08-12T07:22:43Z</time>
      </trkpt>
      <trkpt lat="44.78231" lon="6.35819">
        <ele>2486.4</ele>
        <time>2024-08-12T07:22:44Z</time>
      </trkpt>
      <trkpt lat="44.78231" lon="6.35819">
        <ele>2486.4</ele>
        <time>2024-08-12T07:22:45Z</time>
      </trkpt>
      <trkpt lat="44.78231" lon="6.35819">
        <ele>2486.2</ele>
        <time>2024-08-12T07:22:46Z</time>
      </trkpt>
      <trkpt lat="44.78231" lon="6.35819">
        <ele>2486.2</ele>
        <time>2024-08-12T07:22:47Z</time>
      </trkpt>
      <trkpt lat="44.78231" lon="6.35819">
        <ele>2486.2</ele>
        <time>2024-08-12T07:22:48Z</time>
      </trkpt>
      <trkpt lat="44.78231" lon="6.35819">
        <ele>2486.2</ele>
        <time>2024-08-12T07:22:49Z</time>
      </trkpt>
      <trkpt lat="44.78231" lon="6.35819">
        <ele>2486.2</ele>
        <time>2024-08-12T07:22:50Z</time>
      </trkpt>
      <trkpt lat="44.78231" lon="6.35819">
        <ele>2486.2</ele>
        <time>2024-08-12T07:22:51Z</time>
      </trkpt>
      <trkpt lat="44.78231" lon="6.35819">
        <ele>2486.4</ele>
        <time>2024-08-12T07:22:52Z</time>
      </trkpt>
      <trkpt lat="44.78231" lon="6.35819">
        <ele>2486.8</ele>
        <time>2024-08-12T07:22:53Z</time>
      </trkpt>
      <trkpt lat="44.78231" lon="6.35819">
        <ele>2486.8</ele>
        <time>2024-08-12T07:22:54Z</time>
      </trkpt>
      <trkpt lat="44.78231" lon="6.35819">
        <ele>2486.8</ele>
        <time>2024-08-12T07:22:55Z</time>
      </trkpt>
      <trkpt lat="44.78231" lon="6.35819">
        <ele>2487</ele>
        <time>2024-08-12T07:22:56Z</time>
      </trkpt>
      <trkpt lat="44.78231" lon="6.35819">
        <ele>2487</ele>
        <time>2024-08-12T07:22:57Z</time>
      </trkpt>
      <trkpt lat="44.78231" lon="6.35819">
        <ele>2487.2</ele>
        <time>2024-08-12T07:22:58Z</time>
      </trkpt>
      <trkpt lat="44.78231" lon="6.35819">
        <ele>2487.2</ele>
        <time>2024-08-12T07:22:59Z</time>
      </trkpt>
      <trkpt lat="44.78231" lon="6.35819">
        <ele>2487.4</ele>
        <time>2024-08-12T07:23:00Z</time>
      </trkpt>
      <trkpt lat="44.78231" lon="6.35819">
        <ele>2487.4</ele>
        <time>2024-08-12T07:23:01Z</time>
      </trkpt>
      <trkpt lat="44.78231" lon="6.35819">
        <ele>2487</ele>
        <time>2024-08-12T07:23:02Z</time>
      </trkpt>
      <trkpt lat="44.78231" lon="6.35819">
        <ele>2487</ele>
        <time>2024-08-12T07:23:03Z</time>
      </trkpt>
      <trkpt lat="44.78231" lon="6.35819">
        <ele>2487.2</ele>
        <time>2024-08-12T07:23:04Z</time>
      </trkpt>
      <trkpt lat="44.78231" lon="6.35819">
        <ele>2487.2</ele>
        <time>2024-08-12T07:23:05Z</time>
      </trkpt>
      <trkpt lat="44.78231" lon="6.35819">
        <ele>2487.2</ele>
        <time>2024-08-12T07:23:06Z</time>
      </trkpt>
      <trkpt lat="44.78231" lon="6.35819">
        <ele>2487</ele>
        <time>2024-08-12T07:23:07Z</time>
      </trkpt>
      <trkpt lat="44.78231" lon="6.35819">
        <ele>2487</ele>
        <time>2024-08-12T07:23:08Z</time>
      </trkpt>
      <trkpt lat="44.78231" lon="6.35819">
        <ele>2487.2</ele>
        <time>2024-08-12T07:23:09Z</time>
      </trkpt>
      <trkpt lat="44.78231" lon="6.35819">
        <ele>2487.2</ele>
        <time>2024-08-12T07:23:10Z</time>
      </trkpt>
      <trkpt lat="44.78231" lon="6.35819">
        <ele>2487.2</ele>
        <time>2024-08-12T07:23:11Z</time>
      </trkpt>
      <trkpt lat="44.78231" lon="6.35819">
        <ele>2487.2</ele>
        <time>2024-08-12T07:23:12Z</time>
      </trkpt>
      <trkpt lat="44.78231" lon="6.35819">
        <ele>2487.2</ele>
        <time>2024-08-12T07:23:13Z</time>
      </trkpt>
      <trkpt lat="44.78231" lon="6.35819">
        <ele>2487.2</ele>
        <time>2024-08-12T07:23:14Z</time>
      </trkpt>
      <trkpt lat="44.78231" lon="6.35819">
        <ele>2487</ele>
        <time>2024-08-12T07:23:15Z</time>
      </trkpt>
      <trkpt lat="44.78231" lon="6.35819">
        <ele>2487</ele>
        <time>2024-08-12T07:23:16Z</time>
      </trkpt>
      <trkpt lat="44.78231" lon="6.35819">
        <ele>2487</ele>
        <time>2024-08-12T07:23:17Z</time>
      </trkpt>
      <trkpt lat="44.78231" lon="6.35819">
        <ele>2487.2</ele>
        <time>2024-08-12T07:23:18Z</time>
      </trkpt>
      <trkpt lat="44.78231" lon="6.35819">
        <ele>2487.4</ele>
        <time>2024-08-12T07:23:19Z</time>
      </trkpt>
      <trkpt lat="44.78231" lon="6.35819">
        <ele>2487.6</ele>
        <time>2024-08-12T07:23:20Z</time>
      </trkpt>
      <trkpt lat="44.78231" lon="6.35819">
        <ele>2487.6</ele>
        <time>2024-08-12T07:23:21Z</time>
      </trkpt>
      <trkpt lat="44.78231" lon="6.35819">
        <ele>2487.6</ele>
        <time>2024-08-12T07:23:22Z</time>
      </trkpt>
      <trkpt lat="44.78231" lon="6.35819">
        <ele>2487.4</ele>
        <time>2024-08-12T07:23:23Z</time>
      </trkpt>
      <trkpt lat="44.78231" lon="6.35819">
        <ele>2487.8</ele>
        <time>2024-08-12T07:23:24Z</time>
      </trkpt>
      <trkpt lat="44.78231" lon="6.35819">
        <ele>2487.8</ele>
        <time>2024-08-12T07:23:25Z</time>
      </trkpt>
      <trkpt lat="44.78231" lon="6.35819">
        <ele>2487.8</ele>
        <time>2024-08-12T07:23:26Z</time>
      </trkpt>
      <trkpt lat="44.78231" lon="6.35819">
        <ele>2487.8</ele>
        <time>2024-08-12T07:23:27Z</time>
      </trkpt>
      <trkpt lat="44.78231" lon="6.35819">
        <ele>2487.8</ele>
        <time>2024-08-12T07:23:28Z</time>
      </trkpt>
      <trkpt lat="44.78231" lon="6.35819">
        <ele>2487.8</ele>
        <time>2024-08-12T07:23:29Z</time>
      </trkpt>
      <trkpt lat="44.78231" lon="6.35819">
        <ele>2487.6</ele>
        <time>2024-08-12T07:23:30Z</time>
      </trkpt>
      <trkpt lat="44.78231" lon="6.35819">
        <ele>2487.6</ele>
        <time>2024-08-12T07:23:31Z</time>
      </trkpt>
      <trkpt lat="44.78231" lon="6.35819">
        <ele>2487.4</ele>
        <time>2024-08-12T07:23:32Z</time>
      </trkpt>
      <trkpt lat="44.78231" lon="6.35819">
        <ele>2487.2</ele>
        <time>2024-08-12T07:23:33Z</time>
      </trkpt>
      <trkpt lat="44.78231" lon="6.35816">
        <ele>2486.6</ele>
        <time>2024-08-12T07:23:34Z</time>
      </trkpt>
      <trkpt lat="44.78231" lon="6.35816">
        <ele>2486.4</ele>
        <time>2024-08-12T07:23:35Z</time>
      </trkpt>
      <trkpt lat="44.78231" lon="6.35816">
        <ele>2486.4</ele>
        <time>2024-08-12T07:23:36Z</time>
      </trkpt>
      <trkpt lat="44.78231" lon="6.35816">
        <ele>2486.4</ele>
        <time>2024-08-12T07:23:37Z</time>
      </trkpt>
      <trkpt lat="44.78231" lon="6.35816">
        <ele>2486.4</ele>
        <time>2024-08-12T07:23:38Z</time>
      </trkpt>
      <trkpt lat="44.78231" lon="6.35816">
        <ele>2486.4</ele>
        <time>2024-08-12T07:23:39Z</time>
      </trkpt>
      <trkpt lat="44.78231" lon="6.35816">
        <ele>2486.4</ele>
        <time>2024-08-12T07:23:40Z</time>
      </trkpt>
      <trkpt lat="44.78231" lon="6.35816">
        <ele>2486.4</ele>
        <time>2024-08-12T07:23:41Z</time>
      </trkpt>
      <trkpt lat="44.78231" lon="6.35816">
        <ele>2486.4</ele>
        <time>2024-08-12T07:23:42Z</time>
      </trkpt>
      <trkpt lat="44.78231" lon="6.35816">
        <ele>2486.4</ele>
        <time>2024-08-12T07:23:43Z</time>
      </trkpt>
      <trkpt lat="44.78231" lon="6.35816">
        <ele>2486.4</ele>
        <time>2024-08-12T07:23:44Z</time>
      </trkpt>
      <trkpt lat="44.78231" lon="6.35816">
        <ele>2486.6</ele>
        <time>2024-08-12T07:23:45Z</time>
      </trkpt>
      <trkpt lat="44.78231" lon="6.35816">
        <ele>2486.8</ele>
        <time>2024-08-12T07:23:46Z</time>
      </trkpt>
      <trkpt lat="44.78231" lon="6.35816">
        <ele>2486.8</ele>
        <time>2024-08-12T07:23:47Z</time>
      </trkpt>
      <trkpt lat="44.78231" lon="6.35816">
        <ele>2487</ele>
        <time>2024-08-12T07:23:48Z</time>
      </trkpt>
      <trkpt lat="44.78231" lon="6.35816">
        <ele>2487</ele>
        <time>2024-08-12T07:23:49Z</time>
      </trkpt>
      <trkpt lat="44.78231" lon="6.35816">
        <ele>2487</ele>
        <time>2024-08-12T07:23:50Z</time>
      </trkpt>
      <trkpt lat="44.78231" lon="6.35816">
        <ele>2487</ele>
        <time>2024-08-12T07:23:51Z</time>
      </trkpt>
      <trkpt lat="44.78231" lon="6.35816">
        <ele>2486.8</ele>
        <time>2024-08-12T07:23:52Z</time>
      </trkpt>
      <trkpt lat="44.78231" lon="6.35816">
        <ele>2486.6</ele>
        <time>2024-08-12T07:23:53Z</time>
      </trkpt>
      <trkpt lat="44.78231" lon="6.35816">
        <ele>2486.4</ele>
        <time>2024-08-12T07:23:54Z</time>
      </trkpt>
      <trkpt lat="44.78231" lon="6.35816">
        <ele>2486.4</ele>
        <time>2024-08-12T07:23:55Z</time>
      </trkpt>
      <trkpt lat="44.78231" lon="6.35816">
        <ele>2486.2</ele>
        <time>2024-08-12T07:23:56Z</time>
      </trkpt>
      <trkpt lat="44.78231" lon="6.35816">
        <ele>2486.2</ele>
        <time>2024-08-12T07:23:57Z</time>
      </trkpt>
      <trkpt lat="44.78231" lon="6.35816">
        <ele>2486.2</ele>
        <time>2024-08-12T07:23:58Z</time>
      </trkpt>
      <trkpt lat="44.78231" lon="6.35816">
        <ele>2486.4</ele>
        <time>2024-08-12T07:23:59Z</time>
      </trkpt>
      <trkpt lat="44.78231" lon="6.35816">
        <ele>2486.6</ele>
        <time>2024-08-12T07:24:00Z</time>
      </trkpt>
      <trkpt lat="44.78231" lon="6.35816">
        <ele>2486.8</ele>
        <time>2024-08-12T07:24:01Z</time>
      </trkpt>
      <trkpt lat="44.78231" lon="6.35816">
        <ele>2487</ele>
        <time>2024-08-12T07:24:02Z</time>
      </trkpt>
      <trkpt lat="44.78231" lon="6.35816">
        <ele>2487</ele>
        <time>2024-08-12T07:24:03Z</time>
      </trkpt>
      <trkpt lat="44.78231" lon="6.35816">
        <ele>2486.8</ele>
        <time>2024-08-12T07:24:04Z</time>
      </trkpt>
      <trkpt lat="44.78231" lon="6.35816">
        <ele>2486.8</ele>
        <time>2024-08-12T07:24:05Z</time>
      </trkpt>
      <trkpt lat="44.78231" lon="6.35816">
        <ele>2486.8</ele>
        <time>2024-08-12T07:24:06Z</time>
      </trkpt>
      <trkpt lat="44.78231" lon="6.35816">
        <ele>2486.8</ele>
        <time>2024-08-12T07:24:07Z</time>
      </trkpt>
      <trkpt lat="44.78231" lon="6.35816">
        <ele>2487</ele>
        <time>2024-08-12T07:24:08Z</time>
      </trkpt>
      <trkpt lat="44.78231" lon="6.35816">
        <ele>2487.2</ele>
        <time>2024-08-12T07:24:09Z</time>
      </trkpt>
      <trkpt lat="44.78231" lon="6.35816">
        <ele>2487.4</ele>
        <time>2024-08-12T07:24:10Z</time>
      </trkpt>
      <trkpt lat="44.78231" lon="6.35816">
        <ele>2487.6</ele>
        <time>2024-08-12T07:24:11Z</time>
      </trkpt>
      <trkpt lat="44.78231" lon="6.35816">
        <ele>2487.6</ele>
        <time>2024-08-12T07:24:12Z</time>
      </trkpt>
      <trkpt lat="44.78231" lon="6.35816">
        <ele>2487.8</ele>
        <time>2024-08-12T07:24:13Z</time>
      </trkpt>
      <trkpt lat="44.78231" lon="6.35816">
        <ele>2487.8</ele>
        <time>2024-08-12T07:24:14Z</time>
      </trkpt>
      <trkpt lat="44.78231" lon="6.35816">
        <ele>2488</ele>
        <time>2024-08-12T07:24:15Z</time>
      </trkpt>
      <trkpt lat="44.78231" lon="6.35816">
        <ele>2488</ele>
        <time>2024-08-12T07:24:16Z</time>
      </trkpt>
      <trkpt lat="44.78231" lon="6.35816">
        <ele>2488</ele>
        <time>2024-08-12T07:24:17Z</time>
      </trkpt>
      <trkpt lat="44.78231" lon="6.35816">
        <ele>2487.8</ele>
        <time>2024-08-12T07:24:18Z</time>
      </trkpt>
      <trkpt lat="44.78231" lon="6.35816">
        <ele>2487.4</ele>
        <time>2024-08-12T07:24:19Z</time>
      </trkpt>
      <trkpt lat="44.78231" lon="6.35816">
        <ele>2487.2</ele>
        <time>2024-08-12T07:24:20Z</time>
      </trkpt>
      <trkpt lat="44.78231" lon="6.35816">
        <ele>2487.2</ele>
        <time>2024-08-12T07:24:21Z</time>
      </trkpt>
      <trkpt lat="44.78231" lon="6.35816">
        <ele>2487.8</ele>
        <time>2024-08-12T07:24:22Z</time>
      </trkpt>
      <trkpt lat="44.78231" lon="6.35816">
        <ele>2487.8</ele>
        <time>2024-08-12T07:24:23Z</time>
      </trkpt>
      <trkpt lat="44.78231" lon="6.35816">
        <ele>2487.8</ele>
        <time>2024-08-12T07:24:24Z</time>
      </trkpt>
      <trkpt lat="44.78231" lon="6.35816">
        <ele>2487.8</ele>
        <time>2024-08-12T07:24:25Z</time>
      </trkpt>
      <trkpt lat="44.78231" lon="6.35816">
        <ele>2487.8</ele>
        <time>2024-08-12T07:24:26Z</time>
      </trkpt>
      <trkpt lat="44.78231" lon="6.35816">
        <ele>2487.8</ele>
        <time>2024-08-12T07:24:27Z</time>
      </trkpt>
      <trkpt lat="44.78231" lon="6.35816">
        <ele>2488</ele>
        <time>2024-08-12T07:24:28Z</time>
      </trkpt>
      <trkpt lat="44.78231" lon="6.35819">
        <ele>2488</ele>
        <time>2024-08-12T07:24:29Z</time>
      </trkpt>
      <trkpt lat="44.78231" lon="6.35819">
        <ele>2488</ele>
        <time>2024-08-12T07:24:30Z</time>
      </trkpt>
      <trkpt lat="44.78231" lon="6.35819">
        <ele>2488</ele>
        <time>2024-08-12T07:24:31Z</time>
      </trkpt>
      <trkpt lat="44.78231" lon="6.35819">
        <ele>2488</ele>
        <time>2024-08-12T07:24:32Z</time>
      </trkpt>
      <trkpt lat="44.78231" lon="6.35819">
        <ele>2488</ele>
        <time>2024-08-12T07:24:33Z</time>
      </trkpt>
      <trkpt lat="44.78231" lon="6.35819">
        <ele>2488</ele>
        <time>2024-08-12T07:24:34Z</time>
      </trkpt>
      <trkpt lat="44.78231" lon="6.35819">
        <ele>2488.6</ele>
        <time>2024-08-12T07:24:35Z</time>
      </trkpt>
      <trkpt lat="44.78231" lon="6.35819">
        <ele>2488.8</ele>
        <time>2024-08-12T07:24:36Z</time>
      </trkpt>
      <trkpt lat="44.78231" lon="6.35819">
        <ele>2488.8</ele>
        <time>2024-08-12T07:24:37Z</time>
      </trkpt>
      <trkpt lat="44.78231" lon="6.35819">
        <ele>2488.8</ele>
        <time>2024-08-12T07:24:38Z</time>
      </trkpt>
      <trkpt lat="44.78231" lon="6.35819">
        <ele>2488.8</ele>
        <time>2024-08-12T07:24:39Z</time>
      </trkpt>
      <trkpt lat="44.78231" lon="6.35819">
        <ele>2488.8</ele>
        <time>2024-08-12T07:24:40Z</time>
      </trkpt>
      <trkpt lat="44.78231" lon="6.35819">
        <ele>2489</ele>
        <time>2024-08-12T07:24:41Z</time>
      </trkpt>
      <trkpt lat="44.78231" lon="6.35819">
        <ele>2489</ele>
        <time>2024-08-12T07:24:42Z</time>
      </trkpt>
      <trkpt lat="44.78231" lon="6.35819">
        <ele>2489</ele>
        <time>2024-08-12T07:24:43Z</time>
      </trkpt>
      <trkpt lat="44.78231" lon="6.35819">
        <ele>2489</ele>
        <time>2024-08-12T07:24:44Z</time>
      </trkpt>
      <trkpt lat="44.78231" lon="6.35819">
        <ele>2489</ele>
        <time>2024-08-12T07:24:45Z</time>
      </trkpt>
      <trkpt lat="44.78231" lon="6.35819">
        <ele>2488.8</ele>
        <time>2024-08-12T07:24:46Z</time>
      </trkpt>
      <trkpt lat="44.78231" lon="6.35819">
        <ele>2488.8</ele>
        <time>2024-08-12T07:24:47Z</time>
      </trkpt>
      <trkpt lat="44.78231" lon="6.35819">
        <ele>2488.6</ele>
        <time>2024-08-12T07:24:48Z</time>
      </trkpt>
      <trkpt lat="44.78231" lon="6.35819">
        <ele>2488.6</ele>
        <time>2024-08-12T07:24:49Z</time>
      </trkpt>
      <trkpt lat="44.78231" lon="6.35819">
        <ele>2488.6</ele>
        <time>2024-08-12T07:24:50Z</time>
      </trkpt>
      <trkpt lat="44.78231" lon="6.35819">
        <ele>2488.6</ele>
        <time>2024-08-12T07:24:51Z</time>
      </trkpt>
      <trkpt lat="44.78231" lon="6.35819">
        <ele>2488.8</ele>
        <time>2024-08-12T07:24:52Z</time>
      </trkpt>
      <trkpt lat="44.78231" lon="6.35819">
        <ele>2489.2</ele>
        <time>2024-08-12T07:24:53Z</time>
      </trkpt>
      <trkpt lat="44.78231" lon="6.35819">
        <ele>2489.2</ele>
        <time>2024-08-12T07:24:54Z</time>
      </trkpt>
      <trkpt lat="44.78231" lon="6.35819">
        <ele>2489</ele>
        <time>2024-08-12T07:24:55Z</time>
      </trkpt>
      <trkpt lat="44.78231" lon="6.35819">
        <ele>2488.8</ele>
        <time>2024-08-12T07:24:56Z</time>
      </trkpt>
      <trkpt lat="44.78231" lon="6.35819">
        <ele>2488.8</ele>
        <time>2024-08-12T07:24:57Z</time>
      </trkpt>
      <trkpt lat="44.78231" lon="6.35819">
        <ele>2488.6</ele>
        <time>2024-08-12T07:24:58Z</time>
      </trkpt>
      <trkpt lat="44.78231" lon="6.35819">
        <ele>2488.6</ele>
        <time>2024-08-12T07:24:59Z</time>
      </trkpt>
      <trkpt lat="44.78231" lon="6.35819">
        <ele>2488.6</ele>
        <time>2024-08-12T07:25:00Z</time>
      </trkpt>
      <trkpt lat="44.78231" lon="6.35819">
        <ele>2488.6</ele>
        <time>2024-08-12T07:25:01Z</time>
      </trkpt>
      <trkpt lat="44.78231" lon="6.35819">
        <ele>2488.6</ele>
        <time>2024-08-12T07:25:02Z</time>
      </trkpt>
      <trkpt lat="44.78231" lon="6.35819">
        <ele>2488.6</ele>
        <time>2024-08-12T07:25:03Z</time>
      </trkpt>
      <trkpt lat="44.78231" lon="6.35819">
        <ele>2488.6</ele>
        <time>2024-08-12T07:25:04Z</time>
      </trkpt>
      <trkpt lat="44.78231" lon="6.35819">
        <ele>2488.6</ele>
        <time>2024-08-12T07:25:05Z</time>
      </trkpt>
      <trkpt lat="44.78231" lon="6.35819">
        <ele>2488.8</ele>
        <time>2024-08-12T07:25:06Z</time>
      </trkpt>
      <trkpt lat="44.78231" lon="6.35819">
        <ele>2488.8</ele>
        <time>2024-08-12T07:25:07Z</time>
      </trkpt>
      <trkpt lat="44.78231" lon="6.35819">
        <ele>2488.8</ele>
        <time>2024-08-12T07:25:08Z</time>
      </trkpt>
      <trkpt lat="44.78231" lon="6.35819">
        <ele>2488.8</ele>
        <time>2024-08-12T07:25:09Z</time>
      </trkpt>
      <trkpt lat="44.78231" lon="6.35819">
        <ele>2488.8</ele>
        <time>2024-08-12T07:25:10Z</time>
      </trkpt>
      <trkpt lat="44.78231" lon="6.35819">
        <ele>2488.8</ele>
        <time>2024-08-12T07:25:11Z</time>
      </trkpt>
      <trkpt lat="44.78231" lon="6.35819">
        <ele>2488.8</ele>
        <time>2024-08-12T07:25:12Z</time>
      </trkpt>
      <trkpt lat="44.78231" lon="6.35819">
        <ele>2488.8</ele>
        <time>2024-08-12T07:25:13Z</time>
      </trkpt>
      <trkpt lat="44.78231" lon="6.35819">
        <ele>2488.8</ele>
        <time>2024-08-12T07:25:14Z</time>
      </trkpt>
      <trkpt lat="44.78231" lon="6.35819">
        <ele>2488.8</ele>
        <time>2024-08-12T07:25:15Z</time>
      </trkpt>
      <trkpt lat="44.78231" lon="6.35819">
        <ele>2488.8</ele>
        <time>2024-08-12T07:25:16Z</time>
      </trkpt>
      <trkpt lat="44.78231" lon="6.35819">
        <ele>2488.8</ele>
        <time>2024-08-12T07:25:17Z</time>
      </trkpt>
      <trkpt lat="44.78231" lon="6.35819">
        <ele>2488.4</ele>
        <time>2024-08-12T07:25:18Z</time>
      </trkpt>
      <trkpt lat="44.78231" lon="6.35819">
        <ele>2488.4</ele>
        <time>2024-08-12T07:25:19Z</time>
      </trkpt>
      <trkpt lat="44.78231" lon="6.35819">
        <ele>2488.4</ele>
        <time>2024-08-12T07:25:20Z</time>
      </trkpt>
      <trkpt lat="44.78231" lon="6.35819">
        <ele>2488.4</ele>
        <time>2024-08-12T07:25:21Z</time>
      </trkpt>
      <trkpt lat="44.78231" lon="6.35819">
        <ele>2488.4</ele>
        <time>2024-08-12T07:25:22Z</time>
      </trkpt>
      <trkpt lat="44.78231" lon="6.35819">
        <ele>2488.4</ele>
        <time>2024-08-12T07:25:23Z</time>
      </trkpt>
      <trkpt lat="44.78231" lon="6.35819">
        <ele>2488.4</ele>
        <time>2024-08-12T07:25:24Z</time>
      </trkpt>
      <trkpt lat="44.78231" lon="6.35819">
        <ele>2488.4</ele>
        <time>2024-08-12T07:25:25Z</time>
      </trkpt>
      <trkpt lat="44.78231" lon="6.35819">
        <ele>2488.2</ele>
        <time>2024-08-12T07:25:26Z</time>
      </trkpt>
      <trkpt lat="44.78231" lon="6.35819">
        <ele>2488.2</ele>
        <time>2024-08-12T07:25:27Z</time>
      </trkpt>
      <trkpt lat="44.78231" lon="6.35819">
        <ele>2488</ele>
        <time>2024-08-12T07:25:28Z</time>
      </trkpt>
      <trkpt lat="44.78231" lon="6.35819">
        <ele>2488</ele>
        <time>2024-08-12T07:25:29Z</time>
      </trkpt>
      <trkpt lat="44.78231" lon="6.35819">
        <ele>2488.2</ele>
        <time>2024-08-12T07:25:30Z</time>
      </trkpt>
      <trkpt lat="44.78231" lon="6.35819">
        <ele>2488.2</ele>
        <time>2024-08-12T07:25:31Z</time>
      </trkpt>
      <trkpt lat="44.78231" lon="6.35819">
        <ele>2488.4</ele>
        <time>2024-08-12T07:25:32Z</time>
      </trkpt>
      <trkpt lat="44.78231" lon="6.35819">
        <ele>2488.4</ele>
        <time>2024-08-12T07:25:33Z</time>
      </trkpt>
      <trkpt lat="44.78231" lon="6.35819">
        <ele>2488.4</ele>
        <time>2024-08-12T07:25:34Z</time>
      </trkpt>
      <trkpt lat="44.78231" lon="6.35819">
        <ele>2488.4</ele>
        <time>2024-08-12T07:25:35Z</time>
      </trkpt>
      <trkpt lat="44.78231" lon="6.35819">
        <ele>2488.8</ele>
        <time>2024-08-12T07:25:36Z</time>
      </trkpt>
      <trkpt lat="44.78231" lon="6.35819">
        <ele>2488.8</ele>
        <time>2024-08-12T07:25:37Z</time>
      </trkpt>
      <trkpt lat="44.78231" lon="6.35819">
        <ele>2488.6</ele>
        <time>2024-08-12T07:25:38Z</time>
      </trkpt>
      <trkpt lat="44.78231" lon="6.35819">
        <ele>2488.4</ele>
        <time>2024-08-12T07:25:39Z</time>
      </trkpt>
      <trkpt lat="44.78231" lon="6.35819">
        <ele>2488.4</ele>
        <time>2024-08-12T07:25:40Z</time>
      </trkpt>
      <trkpt lat="44.78231" lon="6.35819">
        <ele>2488.6</ele>
        <time>2024-08-12T07:25:41Z</time>
      </trkpt>
      <trkpt lat="44.78231" lon="6.35819">
        <ele>2488.6</ele>
        <time>2024-08-12T07:25:42Z</time>
      </trkpt>
      <trkpt lat="44.78231" lon="6.35819">
        <ele>2488.8</ele>
        <time>2024-08-12T07:25:43Z</time>
      </trkpt>
      <trkpt lat="44.78231" lon="6.35819">
        <ele>2489</ele>
        <time>2024-08-12T07:25:44Z</time>
      </trkpt>
      <trkpt lat="44.78231" lon="6.35819">
        <ele>2489</ele>
        <time>2024-08-12T07:25:45Z</time>
      </trkpt>
      <trkpt lat="44.78231" lon="6.35819">
        <ele>2488.8</ele>
        <time>2024-08-12T07:25:46Z</time>
      </trkpt>
      <trkpt lat="44.78231" lon="6.35819">
        <ele>2488.8</ele>
        <time>2024-08-12T07:25:47Z</time>
      </trkpt>
      <trkpt lat="44.78231" lon="6.35819">
        <ele>2489.2</ele>
        <time>2024-08-12T07:25:48Z</time>
      </trkpt>
      <trkpt lat="44.78231" lon="6.35819">
        <ele>2489.2</ele>
        <time>2024-08-12T07:25:49Z</time>
      </trkpt>
      <trkpt lat="44.78231" lon="6.35819">
        <ele>2489.6</ele>
        <time>2024-08-12T07:25:50Z</time>
      </trkpt>
      <trkpt lat="44.78231" lon="6.35819">
        <ele>2490</ele>
        <time>2024-08-12T07:25:51Z</time>
      </trkpt>
      <trkpt lat="44.78231" lon="6.35819">
        <ele>2490</ele>
        <time>2024-08-12T07:25:52Z</time>
      </trkpt>
      <trkpt lat="44.78231" lon="6.35819">
        <ele>2489.8</ele>
        <time>2024-08-12T07:25:53Z</time>
      </trkpt>
      <trkpt lat="44.78231" lon="6.35819">
        <ele>2489.6</ele>
        <time>2024-08-12T07:25:54Z</time>
      </trkpt>
      <trkpt lat="44.78231" lon="6.35819">
        <ele>2489.6</ele>
        <time>2024-08-12T07:25:55Z</time>
      </trkpt>
      <trkpt lat="44.78231" lon="6.35819">
        <ele>2490</ele>
        <time>2024-08-12T07:25:56Z</time>
      </trkpt>
      <trkpt lat="44.78231" lon="6.35819">
        <ele>2490.4</ele>
        <time>2024-08-12T07:25:57Z</time>
      </trkpt>
      <trkpt lat="44.78231" lon="6.35819">
        <ele>2490.4</ele>
        <time>2024-08-12T07:25:58Z</time>
      </trkpt>
      <trkpt lat="44.78231" lon="6.35819">
        <ele>2491</ele>
        <time>2024-08-12T07:25:59Z</time>
      </trkpt>
      <trkpt lat="44.78231" lon="6.35819">
        <ele>2491</ele>
        <time>2024-08-12T07:26:00Z</time>
      </trkpt>
      <trkpt lat="44.78231" lon="6.35819">
        <ele>2490.8</ele>
        <time>2024-08-12T07:26:01Z</time>
      </trkpt>
      <trkpt lat="44.78231" lon="6.35819">
        <ele>2490.6</ele>
        <time>2024-08-12T07:26:02Z</time>
      </trkpt>
      <trkpt lat="44.78231" lon="6.35819">
        <ele>2490.6</ele>
        <time>2024-08-12T07:26:03Z</time>
      </trkpt>
      <trkpt lat="44.78231" lon="6.35819">
        <ele>2490.6</ele>
        <time>2024-08-12T07:26:04Z</time>
      </trkpt>
      <trkpt lat="44.78231" lon="6.35819">
        <ele>2490.6</ele>
        <time>2024-08-12T07:26:05Z</time>
      </trkpt>
      <trkpt lat="44.78231" lon="6.35819">
        <ele>2490.4</ele>
        <time>2024-08-12T07:26:06Z</time>
      </trkpt>
      <trkpt lat="44.78231" lon="6.35819">
        <ele>2490.4</ele>
        <time>2024-08-12T07:26:07Z</time>
      </trkpt>
      <trkpt lat="44.78231" lon="6.35819">
        <ele>2490.6</ele>
        <time>2024-08-12T07:26:08Z</time>
      </trkpt>
      <trkpt lat="44.78231" lon="6.35819">
        <ele>2490.6</ele>
        <time>2024-08-12T07:26:09Z</time>
      </trkpt>
      <trkpt lat="44.78231" lon="6.35819">
        <ele>2490.4</ele>
        <time>2024-08-12T07:26:10Z</time>
      </trkpt>
      <trkpt lat="44.78231" lon="6.35819">
        <ele>2490</ele>
        <time>2024-08-12T07:26:11Z</time>
      </trkpt>
      <trkpt lat="44.78231" lon="6.35819">
        <ele>2490</ele>
        <time>2024-08-12T07:26:12Z</time>
      </trkpt>
      <trkpt lat="44.78231" lon="6.35819">
        <ele>2489.8</ele>
        <time>2024-08-12T07:26:13Z</time>
      </trkpt>
      <trkpt lat="44.78231" lon="6.35819">
        <ele>2489.8</ele>
        <time>2024-08-12T07:26:14Z</time>
      </trkpt>
      <trkpt lat="44.78231" lon="6.35819">
        <ele>2489.6</ele>
        <time>2024-08-12T07:26:15Z</time>
      </trkpt>
      <trkpt lat="44.78231" lon="6.35819">
        <ele>2489.6</ele>
        <time>2024-08-12T07:26:16Z</time>
      </trkpt>
      <trkpt lat="44.78231" lon="6.35819">
        <ele>2489.2</ele>
        <time>2024-08-12T07:26:17Z</time>
      </trkpt>
      <trkpt lat="44.78231" lon="6.35819">
        <ele>2489.2</ele>
        <time>2024-08-12T07:26:18Z</time>
      </trkpt>
      <trkpt lat="44.78231" lon="6.35819">
        <ele>2489.2</ele>
        <time>2024-08-12T07:26:19Z</time>
      </trkpt>
      <trkpt lat="44.78231" lon="6.35819">
        <ele>2489.2</ele>
        <time>2024-08-12T07:26:20Z</time>
      </trkpt>
      <trkpt lat="44.78231" lon="6.35819">
        <ele>2489.4</ele>
        <time>2024-08-12T07:26:21Z</time>
      </trkpt>
      <trkpt lat="44.78231" lon="6.35819">
        <ele>2489.8</ele>
        <time>2024-08-12T07:26:22Z</time>
      </trkpt>
      <trkpt lat="44.78231" lon="6.35819">
        <ele>2489.8</ele>
        <time>2024-08-12T07:26:23Z</time>
      </trkpt>
      <trkpt lat="44.78231" lon="6.35819">
        <ele>2489.8</ele>
        <time>2024-08-12T07:26:24Z</time>
      </trkpt>
      <trkpt lat="44.78231" lon="6.35819">
        <ele>2489.8</ele>
        <time>2024-08-12T07:26:25Z</time>
      </trkpt>
      <trkpt lat="44.78231" lon="6.35819">
        <ele>2490</ele>
        <time>2024-08-12T07:26:26Z</time>
      </trkpt>
      <trkpt lat="44.78231" lon="6.35819">
        <ele>2490.2</ele>
        <time>2024-08-12T07:26:27Z</time>
      </trkpt>
      <trkpt lat="44.78231" lon="6.35819">
        <ele>2490.4</ele>
        <time>2024-08-12T07:26:28Z</time>
      </trkpt>
      <trkpt lat="44.78231" lon="6.35819">
        <ele>2490.6</ele>
        <time>2024-08-12T07:26:29Z</time>
      </trkpt>
      <trkpt lat="44.78231" lon="6.35819">
        <ele>2490.8</ele>
        <time>2024-08-12T07:26:30Z</time>
      </trkpt>
      <trkpt lat="44.78231" lon="6.35819">
        <ele>2491</ele>
        <time>2024-08-12T07:26:31Z</time>
      </trkpt>
      <trkpt lat="44.78231" lon="6.35819">
        <ele>2491.2</ele>
        <time>2024-08-12T07:26:32Z</time>
      </trkpt>
      <trkpt lat="44.78231" lon="6.35819">
        <ele>2491.2</ele>
        <time>2024-08-12T07:26:33Z</time>
      </trkpt>
      <trkpt lat="44.78231" lon="6.35819">
        <ele>2491.4</ele>
        <time>2024-08-12T07:26:34Z</time>
      </trkpt>
      <trkpt lat="44.78231" lon="6.35819">
        <ele>2491.4</ele>
        <time>2024-08-12T07:26:35Z</time>
      </trkpt>
      <trkpt lat="44.78231" lon="6.35819">
        <ele>2491.4</ele>
        <time>2024-08-12T07:26:36Z</time>
      </trkpt>
      <trkpt lat="44.78231" lon="6.35819">
        <ele>2491.6</ele>
        <time>2024-08-12T07:26:37Z</time>
      </trkpt>
      <trkpt lat="44.78231" lon="6.35819">
        <ele>2491.6</ele>
        <time>2024-08-12T07:26:38Z</time>
      </trkpt>
      <trkpt lat="44.78231" lon="6.35819">
        <ele>2491.2</ele>
        <time>2024-08-12T07:26:39Z</time>
      </trkpt>
      <trkpt lat="44.78231" lon="6.35819">
        <ele>2491.2</ele>
        <time>2024-08-12T07:26:40Z</time>
      </trkpt>
      <trkpt lat="44.78231" lon="6.35819">
        <ele>2491.2</ele>
        <time>2024-08-12T07:26:41Z</time>
      </trkpt>
      <trkpt lat="44.78231" lon="6.35819">
        <ele>2491.2</ele>
        <time>2024-08-12T07:26:42Z</time>
      </trkpt>
      <trkpt lat="44.78231" lon="6.35819">
        <ele>2491.2</ele>
        <time>2024-08-12T07:26:43Z</time>
      </trkpt>
      <trkpt lat="44.78231" lon="6.35819">
        <ele>2491.2</ele>
        <time>2024-08-12T07:26:44Z</time>
      </trkpt>
      <trkpt lat="44.78231" lon="6.35819">
        <ele>2491.8</ele>
        <time>2024-08-12T07:26:45Z</time>
      </trkpt>
      <trkpt lat="44.78231" lon="6.35819">
        <ele>2491.8</ele>
        <time>2024-08-12T07:26:46Z</time>
      </trkpt>
      <trkpt lat="44.78231" lon="6.35819">
        <ele>2491.8</ele>
        <time>2024-08-12T07:26:47Z</time>
      </trkpt>
      <trkpt lat="44.78231" lon="6.35819">
        <ele>2491.8</ele>
        <time>2024-08-12T07:26:48Z</time>
      </trkpt>
      <trkpt lat="44.78231" lon="6.35819">
        <ele>2491.8</ele>
        <time>2024-08-12T07:26:49Z</time>
      </trkpt>
      <trkpt lat="44.78231" lon="6.35819">
        <ele>2492</ele>
        <time>2024-08-12T07:26:50Z</time>
      </trkpt>
      <trkpt lat="44.78231" lon="6.35819">
        <ele>2492.2</ele>
        <time>2024-08-12T07:26:51Z</time>
      </trkpt>
      <trkpt lat="44.78231" lon="6.35819">
        <ele>2492.2</ele>
        <time>2024-08-12T07:26:52Z</time>
      </trkpt>
      <trkpt lat="44.78231" lon="6.35819">
        <ele>2491.8</ele>
        <time>2024-08-12T07:26:53Z</time>
      </trkpt>
      <trkpt lat="44.78231" lon="6.35819">
        <ele>2491.8</ele>
        <time>2024-08-12T07:26:54Z</time>
      </trkpt>
      <trkpt lat="44.78231" lon="6.35819">
        <ele>2491.4</ele>
        <time>2024-08-12T07:26:55Z</time>
      </trkpt>
      <trkpt lat="44.78231" lon="6.35819">
        <ele>2491.4</ele>
        <time>2024-08-12T07:26:56Z</time>
      </trkpt>
      <trkpt lat="44.78231" lon="6.35819">
        <ele>2491.4</ele>
        <time>2024-08-12T07:26:57Z</time>
      </trkpt>
      <trkpt lat="44.78231" lon="6.35819">
        <ele>2491.6</ele>
        <time>2024-08-12T07:26:58Z</time>
      </trkpt>
      <trkpt lat="44.78231" lon="6.35819">
        <ele>2491.6</ele>
        <time>2024-08-12T07:26:59Z</time>
      </trkpt>
      <trkpt lat="44.78231" lon="6.35819">
        <ele>2491.2</ele>
        <time>2024-08-12T07:27:00Z</time>
      </trkpt>
      <trkpt lat="44.78231" lon="6.35819">
        <ele>2491.2</ele>
        <time>2024-08-12T07:27:01Z</time>
      </trkpt>
      <trkpt lat="44.78231" lon="6.35819">
        <ele>2491</ele>
        <time>2024-08-12T07:27:02Z</time>
      </trkpt>
      <trkpt lat="44.78231" lon="6.35819">
        <ele>2491</ele>
        <time>2024-08-12T07:27:03Z</time>
      </trkpt>
      <trkpt lat="44.78231" lon="6.35819">
        <ele>2491</ele>
        <time>2024-08-12T07:27:04Z</time>
      </trkpt>
      <trkpt lat="44.78231" lon="6.35819">
        <ele>2491.4</ele>
        <time>2024-08-12T07:27:05Z</time>
      </trkpt>
      <trkpt lat="44.78231" lon="6.35819">
        <ele>2491.6</ele>
        <time>2024-08-12T07:27:06Z</time>
      </trkpt>
      <trkpt lat="44.78231" lon="6.35819">
        <ele>2491.8</ele>
        <time>2024-08-12T07:27:07Z</time>
      </trkpt>
      <trkpt lat="44.78231" lon="6.35819">
        <ele>2491.8</ele>
        <time>2024-08-12T07:27:08Z</time>
      </trkpt>
      <trkpt lat="44.78231" lon="6.35819">
        <ele>2491.8</ele>
        <time>2024-08-12T07:27:09Z</time>
      </trkpt>
      <trkpt lat="44.78231" lon="6.35819">
        <ele>2490.8</ele>
        <time>2024-08-12T07:27:10Z</time>
      </trkpt>
      <trkpt lat="44.78231" lon="6.35819">
        <ele>2490.8</ele>
        <time>2024-08-12T07:27:11Z</time>
      </trkpt>
      <trkpt lat="44.78231" lon="6.35819">
        <ele>2491.8</ele>
        <time>2024-08-12T07:27:12Z</time>
      </trkpt>
      <trkpt lat="44.78231" lon="6.35819">
        <ele>2492.2</ele>
        <time>2024-08-12T07:27:13Z</time>
      </trkpt>
      <trkpt lat="44.78231" lon="6.35819">
        <ele>2492.2</ele>
        <time>2024-08-12T07:27:14Z</time>
      </trkpt>
      <trkpt lat="44.78231" lon="6.35819">
        <ele>2491.2</ele>
        <time>2024-08-12T07:27:15Z</time>
      </trkpt>
      <trkpt lat="44.78231" lon="6.35819">
        <ele>2490.2</ele>
        <time>2024-08-12T07:27:16Z</time>
      </trkpt>
      <trkpt lat="44.78231" lon="6.35819">
        <ele>2490.2</ele>
        <time>2024-08-12T07:27:17Z</time>
      </trkpt>
      <trkpt lat="44.78231" lon="6.35819">
        <ele>2490.4</ele>
        <time>2024-08-12T07:27:18Z</time>
      </trkpt>
      <trkpt lat="44.78231" lon="6.35819">
        <ele>2490.4</ele>
        <time>2024-08-12T07:27:19Z</time>
      </trkpt>
      <trkpt lat="44.78231" lon="6.35819">
        <ele>2490.2</ele>
        <time>2024-08-12T07:27:20Z</time>
      </trkpt>
      <trkpt lat="44.78231" lon="6.35819">
        <ele>2490.2</ele>
        <time>2024-08-12T07:27:21Z</time>
      </trkpt>
      <trkpt lat="44.78231" lon="6.35819">
        <ele>2490.2</ele>
        <time>2024-08-12T07:27:22Z</time>
      </trkpt>
      <trkpt lat="44.78231" lon="6.35819">
        <ele>2490.2</ele>
        <time>2024-08-12T07:27:23Z</time>
      </trkpt>
      <trkpt lat="44.78231" lon="6.35819">
        <ele>2490.2</ele>
        <time>2024-08-12T07:27:24Z</time>
      </trkpt>
      <trkpt lat="44.78231" lon="6.35819">
        <ele>2490.4</ele>
        <time>2024-08-12T07:27:25Z</time>
      </trkpt>
      <trkpt lat="44.78231" lon="6.35819">
        <ele>2490.4</ele>
        <time>2024-08-12T07:27:26Z</time>
      </trkpt>
      <trkpt lat="44.78231" lon="6.35819">
        <ele>2491</ele>
        <time>2024-08-12T07:27:27Z</time>
      </trkpt>
      <trkpt lat="44.78231" lon="6.35819">
        <ele>2491</ele>
        <time>2024-08-12T07:27:28Z</time>
      </trkpt>
      <trkpt lat="44.78231" lon="6.35819">
        <ele>2491</ele>
        <time>2024-08-12T07:27:29Z</time>
      </trkpt>
      <trkpt lat="44.78231" lon="6.35819">
        <ele>2490.8</ele>
        <time>2024-08-12T07:27:30Z</time>
      </trkpt>
      <trkpt lat="44.78231" lon="6.35819">
        <ele>2490.8</ele>
        <time>2024-08-12T07:27:31Z</time>
      </trkpt>
      <trkpt lat="44.78231" lon="6.35819">
        <ele>2491</ele>
        <time>2024-08-12T07:27:32Z</time>
      </trkpt>
      <trkpt lat="44.78231" lon="6.35819">
        <ele>2491</ele>
        <time>2024-08-12T07:27:33Z</time>
      </trkpt>
      <trkpt lat="44.78231" lon="6.35819">
        <ele>2491</ele>
        <time>2024-08-12T07:27:34Z</time>
      </trkpt>
      <trkpt lat="44.78231" lon="6.35819">
        <ele>2490.6</ele>
        <time>2024-08-12T07:27:35Z</time>
      </trkpt>
      <trkpt lat="44.78231" lon="6.35819">
        <ele>2490</ele>
        <time>2024-08-12T07:27:36Z</time>
      </trkpt>
      <trkpt lat="44.78231" lon="6.35819">
        <ele>2490.2</ele>
        <time>2024-08-12T07:27:37Z</time>
      </trkpt>
      <trkpt lat="44.78231" lon="6.35819">
        <ele>2490.2</ele>
        <time>2024-08-12T07:27:38Z</time>
      </trkpt>
      <trkpt lat="44.78231" lon="6.35819">
        <ele>2490.2</ele>
        <time>2024-08-12T07:27:39Z</time>
      </trkpt>
      <trkpt lat="44.78231" lon="6.35819">
        <ele>2490.2</ele>
        <time>2024-08-12T07:27:40Z</time>
      </trkpt>
      <trkpt lat="44.78231" lon="6.35819">
        <ele>2490.2</ele>
        <time>2024-08-12T07:27:41Z</time>
      </trkpt>
      <trkpt lat="44.78231" lon="6.35819">
        <ele>2490.2</ele>
        <time>2024-08-12T07:27:42Z</time>
      </trkpt>
      <trkpt lat="44.78231" lon="6.35819">
        <ele>2490.4</ele>
        <time>2024-08-12T07:27:43Z</time>
      </trkpt>
      <trkpt lat="44.78231" lon="6.35819">
        <ele>2490.4</ele>
        <time>2024-08-12T07:27:44Z</time>
      </trkpt>
      <trkpt lat="44.78231" lon="6.35819">
        <ele>2490.4</ele>
        <time>2024-08-12T07:27:45Z</time>
      </trkpt>
      <trkpt lat="44.78231" lon="6.35819">
        <ele>2490.4</ele>
        <time>2024-08-12T07:27:46Z</time>
      </trkpt>
      <trkpt lat="44.78231" lon="6.35819">
        <ele>2490.6</ele>
        <time>2024-08-12T07:27:47Z</time>
      </trkpt>
      <trkpt lat="44.78231" lon="6.35819">
        <ele>2490.6</ele>
        <time>2024-08-12T07:27:48Z</time>
      </trkpt>
      <trkpt lat="44.78231" lon="6.35819">
        <ele>2490.6</ele>
        <time>2024-08-12T07:27:49Z</time>
      </trkpt>
      <trkpt lat="44.78231" lon="6.35819">
        <ele>2490.6</ele>
        <time>2024-08-12T07:27:50Z</time>
      </trkpt>
      <trkpt lat="44.78231" lon="6.35819">
        <ele>2490.2</ele>
        <time>2024-08-12T07:27:51Z</time>
      </trkpt>
      <trkpt lat="44.78231" lon="6.35819">
        <ele>2490</ele>
        <time>2024-08-12T07:27:52Z</time>
      </trkpt>
      <trkpt lat="44.78231" lon="6.35819">
        <ele>2490</ele>
        <time>2024-08-12T07:27:53Z</time>
      </trkpt>
      <trkpt lat="44.78231" lon="6.35819">
        <ele>2490</ele>
        <time>2024-08-12T07:27:54Z</time>
      </trkpt>
      <trkpt lat="44.78231" lon="6.35819">
        <ele>2490</ele>
        <time>2024-08-12T07:27:55Z</time>
      </trkpt>
      <trkpt lat="44.78231" lon="6.35819">
        <ele>2489.8</ele>
        <time>2024-08-12T07:27:56Z</time>
      </trkpt>
      <trkpt lat="44.78231" lon="6.35819">
        <ele>2489.8</ele>
        <time>2024-08-12T07:27:57Z</time>
      </trkpt>
      <trkpt lat="44.78231" lon="6.35819">
        <ele>2489.8</ele>
        <time>2024-08-12T07:27:58Z</time>
      </trkpt>
      <trkpt lat="44.78231" lon="6.35819">
        <ele>2489.4</ele>
        <time>2024-08-12T07:27:59Z</time>
      </trkpt>
      <trkpt lat="44.78231" lon="6.35819">
        <ele>2489.4</ele>
        <time>2024-08-12T07:28:00Z</time>
      </trkpt>
      <trkpt lat="44.78231" lon="6.35819">
        <ele>2489.4</ele>
        <time>2024-08-12T07:28:01Z</time>
      </trkpt>
      <trkpt lat="44.78231" lon="6.35819">
        <ele>2489.2</ele>
        <time>2024-08-12T07:28:02Z</time>
      </trkpt>
      <trkpt lat="44.78231" lon="6.35821">
        <ele>2489.2</ele>
        <time>2024-08-12T07:28:03Z</time>
      </trkpt>
      <trkpt lat="44.78231" lon="6.35821">
        <ele>2489.2</ele>
        <time>2024-08-12T07:28:04Z</time>
      </trkpt>
      <trkpt lat="44.78231" lon="6.35821">
        <ele>2489.2</ele>
        <time>2024-08-12T07:28:05Z</time>
      </trkpt>
      <trkpt lat="44.78232" lon="6.35824">
        <ele>2489.2</ele>
        <time>2024-08-12T07:28:06Z</time>
      </trkpt>
      <trkpt lat="44.78232" lon="6.35824">
        <ele>2489.6</ele>
        <time>2024-08-12T07:28:07Z</time>
      </trkpt>
      <trkpt lat="44.78232" lon="6.35827">
        <ele>2490</ele>
        <time>2024-08-12T07:28:08Z</time>
      </trkpt>
      <trkpt lat="44.78232" lon="6.35827">
        <ele>2490.4</ele>
        <time>2024-08-12T07:28:09Z</time>
      </trkpt>
      <trkpt lat="44.78231" lon="6.3583">
        <ele>2490.4</ele>
        <time>2024-08-12T07:28:10Z</time>
      </trkpt>
      <trkpt lat="44.78231" lon="6.3583">
        <ele>2490.4</ele>
        <time>2024-08-12T07:28:11Z</time>
      </trkpt>
      <trkpt lat="44.7823" lon="6.35833">
        <ele>2490.4</ele>
        <time>2024-08-12T07:28:12Z</time>
      </trkpt>
      <trkpt lat="44.7823" lon="6.35833">
        <ele>2490.4</ele>
        <time>2024-08-12T07:28:13Z</time>
      </trkpt>
      <trkpt lat="44.78229" lon="6.35836">
        <ele>2490.4</ele>
        <time>2024-08-12T07:28:14Z</time>
      </trkpt>
      <trkpt lat="44.78229" lon="6.35836">
        <ele>2490.4</ele>
        <time>2024-08-12T07:28:15Z</time>
      </trkpt>
      <trkpt lat="44.78228" lon="6.35838">
        <ele>2490.4</ele>
        <time>2024-08-12T07:28:16Z</time>
      </trkpt>
      <trkpt lat="44.78228" lon="6.35838">
        <ele>2490.4</ele>
        <time>2024-08-12T07:28:17Z</time>
      </trkpt>
      <trkpt lat="44.78228" lon="6.35841">
        <ele>2490.2</ele>
        <time>2024-08-12T07:28:18Z</time>
      </trkpt>
      <trkpt lat="44.78228" lon="6.35841">
        <ele>2490.2</ele>
        <time>2024-08-12T07:28:19Z</time>
      </trkpt>
      <trkpt lat="44.78229" lon="6.35844">
        <ele>2490.4</ele>
        <time>2024-08-12T07:28:20Z</time>
      </trkpt>
      <trkpt lat="44.78229" lon="6.35844">
        <ele>2490.6</ele>
        <time>2024-08-12T07:28:21Z</time>
      </trkpt>
      <trkpt lat="44.78229" lon="6.35847">
        <ele>2490.6</ele>
        <time>2024-08-12T07:28:22Z</time>
      </trkpt>
      <trkpt lat="44.78229" lon="6.35847">
        <ele>2490.6</ele>
        <time>2024-08-12T07:28:23Z</time>
      </trkpt>
      <trkpt lat="44.7823" lon="6.3585">
        <ele>2490.4</ele>
        <time>2024-08-12T07:28:24Z</time>
      </trkpt>
      <trkpt lat="44.7823" lon="6.3585">
        <ele>2490.4</ele>
        <time>2024-08-12T07:28:25Z</time>
      </trkpt>
      <trkpt lat="44.7823" lon="6.35854">
        <ele>2490.2</ele>
        <time>2024-08-12T07:28:26Z</time>
      </trkpt>
      <trkpt lat="44.7823" lon="6.35854">
        <ele>2490.2</ele>
        <time>2024-08-12T07:28:27Z</time>
      </trkpt>
      <trkpt lat="44.7823" lon="6.35857">
        <ele>2490.2</ele>
        <time>2024-08-12T07:28:28Z</time>
      </trkpt>
      <trkpt lat="44.7823" lon="6.35857">
        <ele>2490.6</ele>
        <time>2024-08-12T07:28:29Z</time>
      </trkpt>
      <trkpt lat="44.78229" lon="6.35859">
        <ele>2490.6</ele>
        <time>2024-08-12T07:28:30Z</time>
      </trkpt>
      <trkpt lat="44.78229" lon="6.35859">
        <ele>2490.8</ele>
        <time>2024-08-12T07:28:31Z</time>
      </trkpt>
      <trkpt lat="44.78229" lon="6.35863">
        <ele>2490.8</ele>
        <time>2024-08-12T07:28:32Z</time>
      </trkpt>
      <trkpt lat="44.78229" lon="6.35863">
        <ele>2490.8</ele>
        <time>2024-08-12T07:28:33Z</time>
      </trkpt>
      <trkpt lat="44.78229" lon="6.35866">
        <ele>2490.8</ele>
        <time>2024-08-12T07:28:34Z</time>
      </trkpt>
      <trkpt lat="44.78229" lon="6.35866">
        <ele>2490.8</ele>
        <time>2024-08-12T07:28:35Z</time>
      </trkpt>
      <trkpt lat="44.78229" lon="6.35869">
        <ele>2490.8</ele>
        <time>2024-08-12T07:28:36Z</time>
      </trkpt>
      <trkpt lat="44.78229" lon="6.35869">
        <ele>2490.8</ele>
        <time>2024-08-12T07:28:37Z</time>
      </trkpt>
      <trkpt lat="44.78229" lon="6.35873">
        <ele>2490.8</ele>
        <time>2024-08-12T07:28:38Z</time>
      </trkpt>
      <trkpt lat="44.78229" lon="6.35873">
        <ele>2490.8</ele>
        <time>2024-08-12T07:28:39Z</time>
      </trkpt>
      <trkpt lat="44.78229" lon="6.35876">
        <ele>2490.8</ele>
        <time>2024-08-12T07:28:40Z</time>
      </trkpt>
      <trkpt lat="44.78229" lon="6.35876">
        <ele>2491</ele>
        <time>2024-08-12T07:28:41Z</time>
      </trkpt>
      <trkpt lat="44.78229" lon="6.3588">
        <ele>2491</ele>
        <time>2024-08-12T07:28:42Z</time>
      </trkpt>
      <trkpt lat="44.78229" lon="6.3588">
        <ele>2491</ele>
        <time>2024-08-12T07:28:43Z</time>
      </trkpt>
      <trkpt lat="44.78227" lon="6.35882">
        <ele>2490.8</ele>
        <time>2024-08-12T07:28:44Z</time>
      </trkpt>
      <trkpt lat="44.78227" lon="6.35882">
        <ele>2490.8</ele>
        <time>2024-08-12T07:28:45Z</time>
      </trkpt>
      <trkpt lat="44.78227" lon="6.35885">
        <ele>2491</ele>
        <time>2024-08-12T07:28:46Z</time>
      </trkpt>
      <trkpt lat="44.78227" lon="6.35885">
        <ele>2491</ele>
        <time>2024-08-12T07:28:47Z</time>
      </trkpt>
      <trkpt lat="44.78227" lon="6.35889">
        <ele>2490.8</ele>
        <time>2024-08-12T07:28:48Z</time>
      </trkpt>
      <trkpt lat="44.78227" lon="6.35889">
        <ele>2490.8</ele>
        <time>2024-08-12T07:28:49Z</time>
      </trkpt>
      <trkpt lat="44.78227" lon="6.35892">
        <ele>2490.8</ele>
        <time>2024-08-12T07:28:50Z</time>
      </trkpt>
      <trkpt lat="44.78227" lon="6.35892">
        <ele>2491</ele>
        <time>2024-08-12T07:28:51Z</time>
      </trkpt>
      <trkpt lat="44.78227" lon="6.35896">
        <ele>2491</ele>
        <time>2024-08-12T07:28:52Z</time>
      </trkpt>
      <trkpt lat="44.78227" lon="6.35896">
        <ele>2491</ele>
        <time>2024-08-12T07:28:53Z</time>
      </trkpt>
      <trkpt lat="44.78227" lon="6.359">
        <ele>2491</ele>
        <time>2024-08-12T07:28:54Z</time>
      </trkpt>
      <trkpt lat="44.78227" lon="6.359">
        <ele>2491.4</ele>
        <time>2024-08-12T07:28:55Z</time>
      </trkpt>
      <trkpt lat="44.78226" lon="6.35903">
        <ele>2491.4</ele>
        <time>2024-08-12T07:28:56Z</time>
      </trkpt>
      <trkpt lat="44.78226" lon="6.35903">
        <ele>2490.8</ele>
        <time>2024-08-12T07:28:57Z</time>
      </trkpt>
      <trkpt lat="44.78225" lon="6.35905">
        <ele>2490.8</ele>
        <time>2024-08-12T07:28:58Z</time>
      </trkpt>
      <trkpt lat="44.78225" lon="6.35905">
        <ele>2491</ele>
        <time>2024-08-12T07:28:59Z</time>
      </trkpt>
      <trkpt lat="44.78223" lon="6.35908">
        <ele>2491</ele>
        <time>2024-08-12T07:29:00Z</time>
      </trkpt>
      <trkpt lat="44.78223" lon="6.35908">
        <ele>2491.2</ele>
        <time>2024-08-12T07:29:01Z</time>
      </trkpt>
      <trkpt lat="44.78223" lon="6.35908">
        <ele>2491.6</ele>
        <time>2024-08-12T07:29:02Z</time>
      </trkpt>
      <trkpt lat="44.78223" lon="6.35908">
        <ele>2491.6</ele>
        <time>2024-08-12T07:29:03Z</time>
      </trkpt>
      <trkpt lat="44.78223" lon="6.35908">
        <ele>2491.8</ele>
        <time>2024-08-12T07:29:04Z</time>
      </trkpt>
      <trkpt lat="44.78223" lon="6.35908">
        <ele>2491.8</ele>
        <time>2024-08-12T07:29:05Z</time>
      </trkpt>
      <trkpt lat="44.78223" lon="6.35908">
        <ele>2492</ele>
        <time>2024-08-12T07:29:06Z</time>
      </trkpt>
      <trkpt lat="44.78223" lon="6.35908">
        <ele>2492.4</ele>
        <time>2024-08-12T07:29:07Z</time>
      </trkpt>
      <trkpt lat="44.78223" lon="6.35908">
        <ele>2492.6</ele>
        <time>2024-08-12T07:29:08Z</time>
      </trkpt>
      <trkpt lat="44.78223" lon="6.35908">
        <ele>2492.8</ele>
        <time>2024-08-12T07:29:09Z</time>
      </trkpt>
      <trkpt lat="44.78223" lon="6.35908">
        <ele>2492.8</ele>
        <time>2024-08-12T07:29:10Z</time>
      </trkpt>
      <trkpt lat="44.78223" lon="6.35908">
        <ele>2492.6</ele>
        <time>2024-08-12T07:29:11Z</time>
      </trkpt>
      <trkpt lat="44.78223" lon="6.35908">
        <ele>2492.6</ele>
        <time>2024-08-12T07:29:12Z</time>
      </trkpt>
      <trkpt lat="44.78223" lon="6.35908">
        <ele>2492.4</ele>
        <time>2024-08-12T07:29:13Z</time>
      </trkpt>
      <trkpt lat="44.78223" lon="6.35908">
        <ele>2492.2</ele>
        <time>2024-08-12T07:29:14Z</time>
      </trkpt>
      <trkpt lat="44.78223" lon="6.35908">
        <ele>2492.2</ele>
        <time>2024-08-12T07:29:15Z</time>
      </trkpt>
      <trkpt lat="44.78223" lon="6.35908">
        <ele>2492</ele>
        <time>2024-08-12T07:29:16Z</time>
      </trkpt>
      <trkpt lat="44.78223" lon="6.35908">
        <ele>2492</ele>
        <time>2024-08-12T07:29:17Z</time>
      </trkpt>
      <trkpt lat="44.78223" lon="6.35908">
        <ele>2492.6</ele>
        <time>2024-08-12T07:29:18Z</time>
      </trkpt>
      <trkpt lat="44.78223" lon="6.35908">
        <ele>2492.6</ele>
        <time>2024-08-12T07:29:19Z</time>
      </trkpt>
      <trkpt lat="44.78223" lon="6.35908">
        <ele>2492.6</ele>
        <time>2024-08-12T07:29:20Z</time>
      </trkpt>
      <trkpt lat="44.78223" lon="6.35908">
        <ele>2492.6</ele>
        <time>2024-08-12T07:29:21Z</time>
      </trkpt>
      <trkpt lat="44.78223" lon="6.35908">
        <ele>2492.6</ele>
        <time>2024-08-12T07:29:22Z</time>
      </trkpt>
      <trkpt lat="44.78223" lon="6.35908">
        <ele>2492.8</ele>
        <time>2024-08-12T07:29:23Z</time>
      </trkpt>
      <trkpt lat="44.78223" lon="6.35908">
        <ele>2492.8</ele>
        <time>2024-08-12T07:29:24Z</time>
      </trkpt>
      <trkpt lat="44.78223" lon="6.35908">
        <ele>2492.8</ele>
        <time>2024-08-12T07:29:25Z</time>
      </trkpt>
      <trkpt lat="44.78223" lon="6.35908">
        <ele>2492.8</ele>
        <time>2024-08-12T07:29:26Z</time>
      </trkpt>
      <trkpt lat="44.78223" lon="6.35908">
        <ele>2492.6</ele>
        <time>2024-08-12T07:29:27Z</time>
      </trkpt>
      <trkpt lat="44.78223" lon="6.35908">
        <ele>2492.6</ele>
        <time>2024-08-12T07:29:28Z</time>
      </trkpt>
      <trkpt lat="44.78223" lon="6.35908">
        <ele>2492.8</ele>
        <time>2024-08-12T07:29:29Z</time>
      </trkpt>
      <trkpt lat="44.78221" lon="6.3591">
        <ele>2492.8</ele>
        <time>2024-08-12T07:29:30Z</time>
      </trkpt>
      <trkpt lat="44.78221" lon="6.3591">
        <ele>2492.4</ele>
        <time>2024-08-12T07:29:31Z</time>
      </trkpt>
      <trkpt lat="44.7822" lon="6.35912">
        <ele>2492.4</ele>
        <time>2024-08-12T07:29:32Z</time>
      </trkpt>
      <trkpt lat="44.7822" lon="6.35912">
        <ele>2492.4</ele>
        <time>2024-08-12T07:29:33Z</time>
      </trkpt>
      <trkpt lat="44.7822" lon="6.35912">
        <ele>2492.4</ele>
        <time>2024-08-12T07:29:34Z</time>
      </trkpt>
      <trkpt lat="44.7822" lon="6.35912">
        <ele>2492.4</ele>
        <time>2024-08-12T07:29:35Z</time>
      </trkpt>
      <trkpt lat="44.7822" lon="6.35912">
        <ele>2492.4</ele>
        <time>2024-08-12T07:29:36Z</time>
      </trkpt>
      <trkpt lat="44.7822" lon="6.35912">
        <ele>2492.6</ele>
        <time>2024-08-12T07:29:37Z</time>
      </trkpt>
      <trkpt lat="44.7822" lon="6.35912">
        <ele>2492.6</ele>
        <time>2024-08-12T07:29:38Z</time>
      </trkpt>
      <trkpt lat="44.7822" lon="6.35912">
        <ele>2492.4</ele>
        <time>2024-08-12T07:29:39Z</time>
      </trkpt>
      <trkpt lat="44.7822" lon="6.35912">
        <ele>2492.4</ele>
        <time>2024-08-12T07:29:40Z</time>
      </trkpt>
      <trkpt lat="44.7822" lon="6.35912">
        <ele>2492.2</ele>
        <time>2024-08-12T07:29:41Z</time>
      </trkpt>
      <trkpt lat="44.7822" lon="6.35912">
        <ele>2492.2</ele>
        <time>2024-08-12T07:29:42Z</time>
      </trkpt>
      <trkpt lat="44.7822" lon="6.35912">
        <ele>2492.2</ele>
        <time>2024-08-12T07:29:43Z</time>
      </trkpt>
      <trkpt lat="44.7822" lon="6.35912">
        <ele>2492.4</ele>
        <time>2024-08-12T07:29:44Z</time>
      </trkpt>
      <trkpt lat="44.7822" lon="6.35912">
        <ele>2492.4</ele>
        <time>2024-08-12T07:29:45Z</time>
      </trkpt>
      <trkpt lat="44.7822" lon="6.35912">
        <ele>2492.6</ele>
        <time>2024-08-12T07:29:46Z</time>
      </trkpt>
      <trkpt lat="44.7822" lon="6.35912">
        <ele>2492.8</ele>
        <time>2024-08-12T07:29:47Z</time>
      </trkpt>
      <trkpt lat="44.7822" lon="6.35912">
        <ele>2492.8</ele>
        <time>2024-08-12T07:29:48Z</time>
      </trkpt>
      <trkpt lat="44.7822" lon="6.35912">
        <ele>2492.8</ele>
        <time>2024-08-12T07:29:49Z</time>
      </trkpt>
      <trkpt lat="44.7822" lon="6.35912">
        <ele>2493</ele>
        <time>2024-08-12T07:29:50Z</time>
      </trkpt>
      <trkpt lat="44.7822" lon="6.35912">
        <ele>2493</ele>
        <time>2024-08-12T07:29:51Z</time>
      </trkpt>
      <trkpt lat="44.7822" lon="6.35912">
        <ele>2493</ele>
        <time>2024-08-12T07:29:52Z</time>
      </trkpt>
      <trkpt lat="44.7822" lon="6.35912">
        <ele>2492.8</ele>
        <time>2024-08-12T07:29:53Z</time>
      </trkpt>
      <trkpt lat="44.7822" lon="6.35912">
        <ele>2492.8</ele>
        <time>2024-08-12T07:29:54Z</time>
      </trkpt>
      <trkpt lat="44.7822" lon="6.35912">
        <ele>2492.8</ele>
        <time>2024-08-12T07:29:55Z</time>
      </trkpt>
      <trkpt lat="44.7822" lon="6.35912">
        <ele>2492.8</ele>
        <time>2024-08-12T07:29:56Z</time>
      </trkpt>
      <trkpt lat="44.7822" lon="6.35912">
        <ele>2492.8</ele>
        <time>2024-08-12T07:29:57Z</time>
      </trkpt>
      <trkpt lat="44.7822" lon="6.35912">
        <ele>2492.8</ele>
        <time>2024-08-12T07:29:58Z</time>
      </trkpt>
      <trkpt lat="44.7822" lon="6.35912">
        <ele>2492.8</ele>
        <time>2024-08-12T07:29:59Z</time>
      </trkpt>
      <trkpt lat="44.7822" lon="6.35912">
        <ele>2492.8</ele>
        <time>2024-08-12T07:30:00Z</time>
      </trkpt>
      <trkpt lat="44.7822" lon="6.35912">
        <ele>2492.8</ele>
        <time>2024-08-12T07:30:01Z</time>
      </trkpt>
      <trkpt lat="44.7822" lon="6.35912">
        <ele>2492.4</ele>
        <time>2024-08-12T07:30:02Z</time>
      </trkpt>
      <trkpt lat="44.7822" lon="6.35912">
        <ele>2492.4</ele>
        <time>2024-08-12T07:30:03Z</time>
      </trkpt>
      <trkpt lat="44.7822" lon="6.35912">
        <ele>2492.4</ele>
        <time>2024-08-12T07:30:04Z</time>
      </trkpt>
      <trkpt lat="44.7822" lon="6.35912">
        <ele>2492.4</ele>
        <time>2024-08-12T07:30:05Z</time>
      </trkpt>
      <trkpt lat="44.7822" lon="6.35912">
        <ele>2492.2</ele>
        <time>2024-08-12T07:30:06Z</time>
      </trkpt>
      <trkpt lat="44.7822" lon="6.35912">
        <ele>2492.2</ele>
        <time>2024-08-12T07:30:07Z</time>
      </trkpt>
      <trkpt lat="44.7822" lon="6.35912">
        <ele>2492.2</ele>
        <time>2024-08-12T07:30:08Z</time>
      </trkpt>
      <trkpt lat="44.7822" lon="6.35912">
        <ele>2492.4</ele>
        <time>2024-08-12T07:30:09Z</time>
      </trkpt>
      <trkpt lat="44.7822" lon="6.35912">
        <ele>2492.6</ele>
        <time>2024-08-12T07:30:10Z</time>
      </trkpt>
      <trkpt lat="44.7822" lon="6.35912">
        <ele>2492.6</ele>
        <time>2024-08-12T07:30:11Z</time>
      </trkpt>
      <trkpt lat="44.7822" lon="6.35912">
        <ele>2492.6</ele>
        <time>2024-08-12T07:30:12Z</time>
      </trkpt>
      <trkpt lat="44.7822" lon="6.35912">
        <ele>2492.6</ele>
        <time>2024-08-12T07:30:13Z</time>
      </trkpt>
      <trkpt lat="44.7822" lon="6.35912">
        <ele>2492.6</ele>
        <time>2024-08-12T07:30:14Z</time>
      </trkpt>
      <trkpt lat="44.7822" lon="6.35912">
        <ele>2492.6</ele>
        <time>2024-08-12T07:30:15Z</time>
      </trkpt>
      <trkpt lat="44.7822" lon="6.35912">
        <ele>2492.4</ele>
        <time>2024-08-12T07:30:16Z</time>
      </trkpt>
      <trkpt lat="44.7822" lon="6.35912">
        <ele>2492.4</ele>
        <time>2024-08-12T07:30:17Z</time>
      </trkpt>
      <trkpt lat="44.7822" lon="6.35912">
        <ele>2492.4</ele>
        <time>2024-08-12T07:30:18Z</time>
      </trkpt>
      <trkpt lat="44.7822" lon="6.35912">
        <ele>2492.4</ele>
        <time>2024-08-12T07:30:19Z</time>
      </trkpt>
      <trkpt lat="44.7822" lon="6.35912">
        <ele>2492.6</ele>
        <time>2024-08-12T07:30:20Z</time>
      </trkpt>
      <trkpt lat="44.7822" lon="6.35916">
        <ele>2492.6</ele>
        <time>2024-08-12T07:30:21Z</time>
      </trkpt>
      <trkpt lat="44.7822" lon="6.35916">
        <ele>2492.6</ele>
        <time>2024-08-12T07:30:22Z</time>
      </trkpt>
      <trkpt lat="44.7822" lon="6.35921">
        <ele>2492.6</ele>
        <time>2024-08-12T07:30:23Z</time>
      </trkpt>
      <trkpt lat="44.7822" lon="6.35921">
        <ele>2492.8</ele>
        <time>2024-08-12T07:30:24Z</time>
      </trkpt>
      <trkpt lat="44.7822" lon="6.35925">
        <ele>2493</ele>
        <time>2024-08-12T07:30:25Z</time>
      </trkpt>
      <trkpt lat="44.7822" lon="6.35925">
        <ele>2493</ele>
        <time>2024-08-12T07:30:26Z</time>
      </trkpt>
      <trkpt lat="44.7822" lon="6.35928">
        <ele>2493</ele>
        <time>2024-08-12T07:30:27Z</time>
      </trkpt>
      <trkpt lat="44.7822" lon="6.35928">
        <ele>2493.4</ele>
        <time>2024-08-12T07:30:28Z</time>
      </trkpt>
      <trkpt lat="44.78219" lon="6.35931">
        <ele>2493.4</ele>
        <time>2024-08-12T07:30:29Z</time>
      </trkpt>
      <trkpt lat="44.78219" lon="6.35931">
        <ele>2493.4</ele>
        <time>2024-08-12T07:30:30Z</time>
      </trkpt>
      <trkpt lat="44.7822" lon="6.35934">
        <ele>2493.4</ele>
        <time>2024-08-12T07:30:31Z</time>
      </trkpt>
      <trkpt lat="44.7822" lon="6.35934">
        <ele>2493.6</ele>
        <time>2024-08-12T07:30:32Z</time>
      </trkpt>
      <trkpt lat="44.7822" lon="6.35937">
        <ele>2493.6</ele>
        <time>2024-08-12T07:30:33Z</time>
      </trkpt>
      <trkpt lat="44.7822" lon="6.35937">
        <ele>2493.6</ele>
        <time>2024-08-12T07:30:34Z</time>
      </trkpt>
      <trkpt lat="44.78221" lon="6.3594">
        <ele>2493.6</ele>
        <time>2024-08-12T07:30:35Z</time>
      </trkpt>
      <trkpt lat="44.78221" lon="6.3594">
        <ele>2493.6</ele>
        <time>2024-08-12T07:30:36Z</time>
      </trkpt>
      <trkpt lat="44.78221" lon="6.35943">
        <ele>2493.8</ele>
        <time>2024-08-12T07:30:37Z</time>
      </trkpt>
      <trkpt lat="44.78221" lon="6.35943">
        <ele>2493.8</ele>
        <time>2024-08-12T07:30:38Z</time>
      </trkpt>
      <trkpt lat="44.78221" lon="6.35947">
        <ele>2493.6</ele>
        <time>2024-08-12T07:30:39Z</time>
      </trkpt>
      <trkpt lat="44.78221" lon="6.35947">
        <ele>2493.4</ele>
        <time>2024-08-12T07:30:40Z</time>
      </trkpt>
      <trkpt lat="44.78222" lon="6.3595">
        <ele>2493.4</ele>
        <time>2024-08-12T07:30:41Z</time>
      </trkpt>
      <trkpt lat="44.78222" lon="6.3595">
        <ele>2493.4</ele>
        <time>2024-08-12T07:30:42Z</time>
      </trkpt>
      <trkpt lat="44.78222" lon="6.35953">
        <ele>2493.6</ele>
        <time>2024-08-12T07:30:43Z</time>
      </trkpt>
      <trkpt lat="44.78222" lon="6.35953">
        <ele>2493.6</ele>
        <time>2024-08-12T07:30:44Z</time>
      </trkpt>
      <trkpt lat="44.78223" lon="6.35956">
        <ele>2493.4</ele>
        <time>2024-08-12T07:30:45Z</time>
      </trkpt>
      <trkpt lat="44.78223" lon="6.35956">
        <ele>2493.4</ele>
        <time>2024-08-12T07:30:46Z</time>
      </trkpt>
      <trkpt lat="44.78223" lon="6.3596">
        <ele>2493.4</ele>
        <time>2024-08-12T07:30:47Z</time>
      </trkpt>
      <trkpt lat="44.78223" lon="6.3596">
        <ele>2493.4</ele>
        <time>2024-08-12T07:30:48Z</time>
      </trkpt>
      <trkpt lat="44.78223" lon="6.35964">
        <ele>2493.2</ele>
        <time>2024-08-12T07:30:49Z</time>
      </trkpt>
      <trkpt lat="44.78223" lon="6.35964">
        <ele>2493.2</ele>
        <time>2024-08-12T07:30:50Z</time>
      </trkpt>
      <trkpt lat="44.78222" lon="6.35967">
        <ele>2493.2</ele>
        <time>2024-08-12T07:30:51Z</time>
      </trkpt>
      <trkpt lat="44.78222" lon="6.35967">
        <ele>2493.2</ele>
        <time>2024-08-12T07:30:52Z</time>
      </trkpt>
      <trkpt lat="44.78222" lon="6.3597">
        <ele>2493.4</ele>
        <time>2024-08-12T07:30:53Z</time>
      </trkpt>
      <trkpt lat="44.78222" lon="6.3597">
        <ele>2493.4</ele>
        <time>2024-08-12T07:30:54Z</time>
      </trkpt>
      <trkpt lat="44.78222" lon="6.35974">
        <ele>2493.4</ele>
        <time>2024-08-12T07:30:55Z</time>
      </trkpt>
      <trkpt lat="44.78222" lon="6.35974">
        <ele>2493.4</ele>
        <time>2024-08-12T07:30:56Z</time>
      </trkpt>
      <trkpt lat="44.78221" lon="6.35977">
        <ele>2493.4</ele>
        <time>2024-08-12T07:30:57Z</time>
      </trkpt>
      <trkpt lat="44.78221" lon="6.35977">
        <ele>2493.8</ele>
        <time>2024-08-12T07:30:58Z</time>
      </trkpt>
      <trkpt lat="44.78221" lon="6.35981">
        <ele>2494</ele>
        <time>2024-08-12T07:30:59Z</time>
      </trkpt>
      <trkpt lat="44.78221" lon="6.35981">
        <ele>2494</ele>
        <time>2024-08-12T07:31:00Z</time>
      </trkpt>
      <trkpt lat="44.78221" lon="6.35984">
        <ele>2494</ele>
        <time>2024-08-12T07:31:01Z</time>
      </trkpt>
      <trkpt lat="44.78221" lon="6.35984">
        <ele>2494</ele>
        <time>2024-08-12T07:31:02Z</time>
      </trkpt>
      <trkpt lat="44.78221" lon="6.35987">
        <ele>2494</ele>
        <time>2024-08-12T07:31:03Z</time>
      </trkpt>
      <trkpt lat="44.78221" lon="6.35987">
        <ele>2494.2</ele>
        <time>2024-08-12T07:31:04Z</time>
      </trkpt>
      <trkpt lat="44.78221" lon="6.35991">
        <ele>2494.4</ele>
        <time>2024-08-12T07:31:05Z</time>
      </trkpt>
      <trkpt lat="44.78221" lon="6.35991">
        <ele>2494.4</ele>
        <time>2024-08-12T07:31:06Z</time>
      </trkpt>
      <trkpt lat="44.78221" lon="6.35994">
        <ele>2494.4</ele>
        <time>2024-08-12T07:31:07Z</time>
      </trkpt>
      <trkpt lat="44.78221" lon="6.35994">
        <ele>2494.4</ele>
        <time>2024-08-12T07:31:08Z</time>
      </trkpt>
      <trkpt lat="44.78221" lon="6.35994">
        <ele>2494.4</ele>
        <time>2024-08-12T07:31:09Z</time>
      </trkpt>
      <trkpt lat="44.78221" lon="6.35998">
        <ele>2494.6</ele>
        <time>2024-08-12T07:31:10Z</time>
      </trkpt>
      <trkpt lat="44.78221" lon="6.35998">
        <ele>2494.8</ele>
        <time>2024-08-12T07:31:11Z</time>
      </trkpt>
      <trkpt lat="44.78222" lon="6.36001">
        <ele>2494.8</ele>
        <time>2024-08-12T07:31:12Z</time>
      </trkpt>
      <trkpt lat="44.78222" lon="6.36001">
        <ele>2494.8</ele>
        <time>2024-08-12T07:31:13Z</time>
      </trkpt>
      <trkpt lat="44.78222" lon="6.36001">
        <ele>2494.8</ele>
        <time>2024-08-12T07:31:14Z</time>
      </trkpt>
      <trkpt lat="44.78223" lon="6.36005">
        <ele>2494.8</ele>
        <time>2024-08-12T07:31:15Z</time>
      </trkpt>
      <trkpt lat="44.78223" lon="6.36005">
        <ele>2495</ele>
        <time>2024-08-12T07:31:16Z</time>
      </trkpt>
      <trkpt lat="44.78223" lon="6.36008">
        <ele>2495</ele>
        <time>2024-08-12T07:31:17Z</time>
      </trkpt>
      <trkpt lat="44.78223" lon="6.36008">
        <ele>2495</ele>
        <time>2024-08-12T07:31:18Z</time>
      </trkpt>
      <trkpt lat="44.78222" lon="6.36011">
        <ele>2495.2</ele>
        <time>2024-08-12T07:31:19Z</time>
      </trkpt>
      <trkpt lat="44.78222" lon="6.36011">
        <ele>2495.2</ele>
        <time>2024-08-12T07:31:20Z</time>
      </trkpt>
      <trkpt lat="44.78222" lon="6.36013">
        <ele>2495.6</ele>
        <time>2024-08-12T07:31:21Z</time>
      </trkpt>
      <trkpt lat="44.78222" lon="6.36013">
        <ele>2495.8</ele>
        <time>2024-08-12T07:31:22Z</time>
      </trkpt>
      <trkpt lat="44.78221" lon="6.36016">
        <ele>2495.8</ele>
        <time>2024-08-12T07:31:23Z</time>
      </trkpt>
      <trkpt lat="44.78221" lon="6.36016">
        <ele>2496</ele>
        <time>2024-08-12T07:31:24Z</time>
      </trkpt>
      <trkpt lat="44.78221" lon="6.36019">
        <ele>2496</ele>
        <time>2024-08-12T07:31:25Z</time>
      </trkpt>
      <trkpt lat="44.78221" lon="6.36019">
        <ele>2496.2</ele>
        <time>2024-08-12T07:31:26Z</time>
      </trkpt>
      <trkpt lat="44.78221" lon="6.36021">
        <ele>2496.2</ele>
        <time>2024-08-12T07:31:27Z</time>
      </trkpt>
      <trkpt lat="44.78221" lon="6.36021">
        <ele>2496.4</ele>
        <time>2024-08-12T07:31:28Z</time>
      </trkpt>
      <trkpt lat="44.78222" lon="6.36024">
        <ele>2496.6</ele>
        <time>2024-08-12T07:31:29Z</time>
      </trkpt>
      <trkpt lat="44.78222" lon="6.36024">
        <ele>2496.8</ele>
        <time>2024-08-12T07:31:30Z</time>
      </trkpt>
      <trkpt lat="44.78221" lon="6.36027">
        <ele>2496.8</ele>
        <time>2024-08-12T07:31:31Z</time>
      </trkpt>
      <trkpt lat="44.78221" lon="6.36027">
        <ele>2497</ele>
        <time>2024-08-12T07:31:32Z</time>
      </trkpt>
      <trkpt lat="44.78221" lon="6.36027">
        <ele>2497</ele>
        <time>2024-08-12T07:31:33Z</time>
      </trkpt>
      <trkpt lat="44.78221" lon="6.3603">
        <ele>2497</ele>
        <time>2024-08-12T07:31:34Z</time>
      </trkpt>
      <trkpt lat="44.78221" lon="6.3603">
        <ele>2497.4</ele>
        <time>2024-08-12T07:31:35Z</time>
      </trkpt>
      <trkpt lat="44.78221" lon="6.3603">
        <ele>2497.8</ele>
        <time>2024-08-12T07:31:36Z</time>
      </trkpt>
      <trkpt lat="44.78221" lon="6.36033">
        <ele>2497.8</ele>
        <time>2024-08-12T07:31:37Z</time>
      </trkpt>
      <trkpt lat="44.78221" lon="6.36033">
        <ele>2497.8</ele>
        <time>2024-08-12T07:31:38Z</time>
      </trkpt>
      <trkpt lat="44.78221" lon="6.36033">
        <ele>2498.6</ele>
        <time>2024-08-12T07:31:39Z</time>
      </trkpt>
      <trkpt lat="44.78221" lon="6.36033">
        <ele>2498.6</ele>
        <time>2024-08-12T07:31:40Z</time>
      </trkpt>
      <trkpt lat="44.78221" lon="6.36037">
        <ele>2499</ele>
        <time>2024-08-12T07:31:41Z</time>
      </trkpt>
      <trkpt lat="44.78221" lon="6.36037">
        <ele>2499.2</ele>
        <time>2024-08-12T07:31:42Z</time>
      </trkpt>
      <trkpt lat="44.78221" lon="6.36037">
        <ele>2499.2</ele>
        <time>2024-08-12T07:31:43Z</time>
      </trkpt>
      <trkpt lat="44.7822" lon="6.36039">
        <ele>2499.6</ele>
        <time>2024-08-12T07:31:44Z</time>
      </trkpt>
      <trkpt lat="44.7822" lon="6.36039">
        <ele>2500</ele>
        <time>2024-08-12T07:31:45Z</time>
      </trkpt>
      <trkpt lat="44.7822" lon="6.36039">
        <ele>2500</ele>
        <time>2024-08-12T07:31:46Z</time>
      </trkpt>
      <trkpt lat="44.7822" lon="6.36039">
        <ele>2500.2</ele>
        <time>2024-08-12T07:31:47Z</time>
      </trkpt>
      <trkpt lat="44.78219" lon="6.36042">
        <ele>2500.4</ele>
        <time>2024-08-12T07:31:48Z</time>
      </trkpt>
      <trkpt lat="44.78219" lon="6.36042">
        <ele>2500.6</ele>
        <time>2024-08-12T07:31:49Z</time>
      </trkpt>
      <trkpt lat="44.78219" lon="6.36042">
        <ele>2501</ele>
        <time>2024-08-12T07:31:50Z</time>
      </trkpt>
      <trkpt lat="44.78219" lon="6.36042">
        <ele>2501.2</ele>
        <time>2024-08-12T07:31:51Z</time>
      </trkpt>
      <trkpt lat="44.78219" lon="6.36042">
        <ele>2501.2</ele>
        <time>2024-08-12T07:31:52Z</time>
      </trkpt>
      <trkpt lat="44.78219" lon="6.36042">
        <ele>2501.2</ele>
        <time>2024-08-12T07:31:53Z</time>
      </trkpt>
      <trkpt lat="44.78219" lon="6.36042">
        <ele>2501</ele>
        <time>2024-08-12T07:31:54Z</time>
      </trkpt>
      <trkpt lat="44.78219" lon="6.36042">
        <ele>2501</ele>
        <time>2024-08-12T07:31:55Z</time>
      </trkpt>
      <trkpt lat="44.78219" lon="6.36042">
        <ele>2501</ele>
        <time>2024-08-12T07:31:56Z</time>
      </trkpt>
      <trkpt lat="44.78219" lon="6.36042">
        <ele>2501</ele>
        <time>2024-08-12T07:31:57Z</time>
      </trkpt>
      <trkpt lat="44.78219" lon="6.36042">
        <ele>2501.2</ele>
        <time>2024-08-12T07:31:58Z</time>
      </trkpt>
      <trkpt lat="44.78219" lon="6.36042">
        <ele>2501.4</ele>
        <time>2024-08-12T07:31:59Z</time>
      </trkpt>
      <trkpt lat="44.78219" lon="6.36042">
        <ele>2501.4</ele>
        <time>2024-08-12T07:32:00Z</time>
      </trkpt>
      <trkpt lat="44.78219" lon="6.36042">
        <ele>2501.4</ele>
        <time>2024-08-12T07:32:01Z</time>
      </trkpt>
      <trkpt lat="44.78219" lon="6.36042">
        <ele>2501.8</ele>
        <time>2024-08-12T07:32:02Z</time>
      </trkpt>
      <trkpt lat="44.78219" lon="6.36042">
        <ele>2501.8</ele>
        <time>2024-08-12T07:32:03Z</time>
      </trkpt>
      <trkpt lat="44.7822" lon="6.36045">
        <ele>2502.2</ele>
        <time>2024-08-12T07:32:04Z</time>
      </trkpt>
      <trkpt lat="44.7822" lon="6.36045">
        <ele>2502.2</ele>
        <time>2024-08-12T07:32:05Z</time>
      </trkpt>
      <trkpt lat="44.7822" lon="6.36048">
        <ele>2502.4</ele>
        <time>2024-08-12T07:32:06Z</time>
      </trkpt>
      <trkpt lat="44.7822" lon="6.36048">
        <ele>2502.8</ele>
        <time>2024-08-12T07:32:07Z</time>
      </trkpt>
      <trkpt lat="44.7822" lon="6.36048">
        <ele>2503</ele>
        <time>2024-08-12T07:32:08Z</time>
      </trkpt>
      <trkpt lat="44.7822" lon="6.3605">
        <ele>2503</ele>
        <time>2024-08-12T07:32:09Z</time>
      </trkpt>
      <trkpt lat="44.7822" lon="6.3605">
        <ele>2503</ele>
        <time>2024-08-12T07:32:10Z</time>
      </trkpt>
      <trkpt lat="44.7822" lon="6.3605">
        <ele>2503.4</ele>
        <time>2024-08-12T07:32:11Z</time>
      </trkpt>
      <trkpt lat="44.7822" lon="6.3605">
        <ele>2503.6</ele>
        <time>2024-08-12T07:32:12Z</time>
      </trkpt>
      <trkpt lat="44.7822" lon="6.3605">
        <ele>2503.6</ele>
        <time>2024-08-12T07:32:13Z</time>
      </trkpt>
      <trkpt lat="44.7822" lon="6.3605">
        <ele>2503.6</ele>
        <time>2024-08-12T07:32:14Z</time>
      </trkpt>
      <trkpt lat="44.7822" lon="6.3605">
        <ele>2503.6</ele>
        <time>2024-08-12T07:32:15Z</time>
      </trkpt>
      <trkpt lat="44.7822" lon="6.3605">
        <ele>2503.8</ele>
        <time>2024-08-12T07:32:16Z</time>
      </trkpt>
      <trkpt lat="44.7822" lon="6.3605">
        <ele>2503.8</ele>
        <time>2024-08-12T07:32:17Z</time>
      </trkpt>
      <trkpt lat="44.7822" lon="6.3605">
        <ele>2503.8</ele>
        <time>2024-08-12T07:32:18Z</time>
      </trkpt>
      <trkpt lat="44.7822" lon="6.3605">
        <ele>2503.8</ele>
        <time>2024-08-12T07:32:19Z</time>
      </trkpt>
      <trkpt lat="44.78219" lon="6.36053">
        <ele>2504</ele>
        <time>2024-08-12T07:32:20Z</time>
      </trkpt>
      <trkpt lat="44.78219" lon="6.36053">
        <ele>2504.2</ele>
        <time>2024-08-12T07:32:21Z</time>
      </trkpt>
      <trkpt lat="44.78219" lon="6.36057">
        <ele>2504.6</ele>
        <time>2024-08-12T07:32:22Z</time>
      </trkpt>
      <trkpt lat="44.78219" lon="6.36057">
        <ele>2504.6</ele>
        <time>2024-08-12T07:32:23Z</time>
      </trkpt>
      <trkpt lat="44.78219" lon="6.3606">
        <ele>2504.8</ele>
        <time>2024-08-12T07:32:24Z</time>
      </trkpt>
      <trkpt lat="44.78219" lon="6.3606">
        <ele>2505</ele>
        <time>2024-08-12T07:32:25Z</time>
      </trkpt>
      <trkpt lat="44.78219" lon="6.36063">
        <ele>2505.2</ele>
        <time>2024-08-12T07:32:26Z</time>
      </trkpt>
      <trkpt lat="44.78219" lon="6.36063">
        <ele>2505.4</ele>
        <time>2024-08-12T07:32:27Z</time>
      </trkpt>
      <trkpt lat="44.78219" lon="6.36063">
        <ele>2505.4</ele>
        <time>2024-08-12T07:32:28Z</time>
      </trkpt>
      <trkpt lat="44.78219" lon="6.36067">
        <ele>2505.6</ele>
        <time>2024-08-12T07:32:29Z</time>
      </trkpt>
      <trkpt lat="44.78219" lon="6.36067">
        <ele>2505.6</ele>
        <time>2024-08-12T07:32:30Z</time>
      </trkpt>
      <trkpt lat="44.78219" lon="6.36067">
        <ele>2505.6</ele>
        <time>2024-08-12T07:32:31Z</time>
      </trkpt>
      <trkpt lat="44.78217" lon="6.36069">
        <ele>2505.8</ele>
        <time>2024-08-12T07:32:32Z</time>
      </trkpt>
      <trkpt lat="44.78217" lon="6.36069">
        <ele>2506</ele>
        <time>2024-08-12T07:32:33Z</time>
      </trkpt>
      <trkpt lat="44.78217" lon="6.36069">
        <ele>2506.2</ele>
        <time>2024-08-12T07:32:34Z</time>
      </trkpt>
      <trkpt lat="44.78214" lon="6.3607">
        <ele>2506.2</ele>
        <time>2024-08-12T07:32:35Z</time>
      </trkpt>
      <trkpt lat="44.78214" lon="6.3607">
        <ele>2506.4</ele>
        <time>2024-08-12T07:32:36Z</time>
      </trkpt>
      <trkpt lat="44.78214" lon="6.3607">
        <ele>2506.6</ele>
        <time>2024-08-12T07:32:37Z</time>
      </trkpt>
      <trkpt lat="44.78212" lon="6.36071">
        <ele>2506.6</ele>
        <time>2024-08-12T07:32:38Z</time>
      </trkpt>
      <trkpt lat="44.78212" lon="6.36071">
        <ele>2506.8</ele>
        <time>2024-08-12T07:32:39Z</time>
      </trkpt>
      <trkpt lat="44.7821" lon="6.36072">
        <ele>2507.4</ele>
        <time>2024-08-12T07:32:40Z</time>
      </trkpt>
      <trkpt lat="44.7821" lon="6.36072">
        <ele>2507.6</ele>
        <time>2024-08-12T07:32:41Z</time>
      </trkpt>
      <trkpt lat="44.7821" lon="6.36072">
        <ele>2507.6</ele>
        <time>2024-08-12T07:32:42Z</time>
      </trkpt>
      <trkpt lat="44.78208" lon="6.36073">
        <ele>2507.8</ele>
        <time>2024-08-12T07:32:43Z</time>
      </trkpt>
      <trkpt lat="44.78208" lon="6.36073">
        <ele>2508</ele>
        <time>2024-08-12T07:32:44Z</time>
      </trkpt>
      <trkpt lat="44.78208" lon="6.36073">
        <ele>2508.4</ele>
        <time>2024-08-12T07:32:45Z</time>
      </trkpt>
      <trkpt lat="44.78205" lon="6.36074">
        <ele>2508.6</ele>
        <time>2024-08-12T07:32:46Z</time>
      </trkpt>
      <trkpt lat="44.78205" lon="6.36074">
        <ele>2509</ele>
        <time>2024-08-12T07:32:47Z</time>
      </trkpt>
      <trkpt lat="44.78205" lon="6.36074">
        <ele>2509</ele>
        <time>2024-08-12T07:32:48Z</time>
      </trkpt>
      <trkpt lat="44.78203" lon="6.36074">
        <ele>2509</ele>
        <time>2024-08-12T07:32:49Z</time>
      </trkpt>
      <trkpt lat="44.78203" lon="6.36074">
        <ele>2509.2</ele>
        <time>2024-08-12T07:32:50Z</time>
      </trkpt>
      <trkpt lat="44.78201" lon="6.36073">
        <ele>2509.6</ele>
        <time>2024-08-12T07:32:51Z</time>
      </trkpt>
      <trkpt lat="44.78201" lon="6.36073">
        <ele>2509.6</ele>
        <time>2024-08-12T07:32:52Z</time>
      </trkpt>
      <trkpt lat="44.782" lon="6.36072">
        <ele>2509.8</ele>
        <time>2024-08-12T07:32:53Z</time>
      </trkpt>
      <trkpt lat="44.782" lon="6.36072">
        <ele>2510.2</ele>
        <time>2024-08-12T07:32:54Z</time>
      </trkpt>
      <trkpt lat="44.782" lon="6.36072">
        <ele>2510.4</ele>
        <time>2024-08-12T07:32:55Z</time>
      </trkpt>
      <trkpt lat="44.78197" lon="6.36071">
        <ele>2510.6</ele>
        <time>2024-08-12T07:32:56Z</time>
      </trkpt>
      <trkpt lat="44.78197" lon="6.36071">
        <ele>2510.6</ele>
        <time>2024-08-12T07:32:57Z</time>
      </trkpt>
      <trkpt lat="44.78197" lon="6.36071">
        <ele>2511</ele>
        <time>2024-08-12T07:32:58Z</time>
      </trkpt>
      <trkpt lat="44.78196" lon="6.36069">
        <ele>2511</ele>
        <time>2024-08-12T07:32:59Z</time>
      </trkpt>
      <trkpt lat="44.78196" lon="6.36069">
        <ele>2511.4</ele>
        <time>2024-08-12T07:33:00Z</time>
      </trkpt>
      <trkpt lat="44.78196" lon="6.36069">
        <ele>2511.6</ele>
        <time>2024-08-12T07:33:01Z</time>
      </trkpt>
      <trkpt lat="44.78194" lon="6.36068">
        <ele>2512.2</ele>
        <time>2024-08-12T07:33:02Z</time>
      </trkpt>
      <trkpt lat="44.78194" lon="6.36068">
        <ele>2512.2</ele>
        <time>2024-08-12T07:33:03Z</time>
      </trkpt>
      <trkpt lat="44.78194" lon="6.36068">
        <ele>2512.2</ele>
        <time>2024-08-12T07:33:04Z</time>
      </trkpt>
      <trkpt lat="44.78194" lon="6.36068">
        <ele>2512.2</ele>
        <time>2024-08-12T07:33:05Z</time>
      </trkpt>
      <trkpt lat="44.78192" lon="6.36066">
        <ele>2512.6</ele>
        <time>2024-08-12T07:33:06Z</time>
      </trkpt>
      <trkpt lat="44.78192" lon="6.36066">
        <ele>2513</ele>
        <time>2024-08-12T07:33:07Z</time>
      </trkpt>
      <trkpt lat="44.78192" lon="6.36066">
        <ele>2513.4</ele>
        <time>2024-08-12T07:33:08Z</time>
      </trkpt>
      <trkpt lat="44.78192" lon="6.36066">
        <ele>2513.8</ele>
        <time>2024-08-12T07:33:09Z</time>
      </trkpt>
      <trkpt lat="44.78192" lon="6.36066">
        <ele>2513.8</ele>
        <time>2024-08-12T07:33:10Z</time>
      </trkpt>
      <trkpt lat="44.7819" lon="6.36064">
        <ele>2514</ele>
        <time>2024-08-12T07:33:11Z</time>
      </trkpt>
      <trkpt lat="44.7819" lon="6.36064">
        <ele>2514.2</ele>
        <time>2024-08-12T07:33:12Z</time>
      </trkpt>
      <trkpt lat="44.7819" lon="6.36064">
        <ele>2514.4</ele>
        <time>2024-08-12T07:33:13Z</time>
      </trkpt>
      <trkpt lat="44.7819" lon="6.36064">
        <ele>2514.6</ele>
        <time>2024-08-12T07:33:14Z</time>
      </trkpt>
      <trkpt lat="44.7819" lon="6.36064">
        <ele>2514.6</ele>
        <time>2024-08-12T07:33:15Z</time>
      </trkpt>
      <trkpt lat="44.78188" lon="6.36066">
        <ele>2514.6</ele>
        <time>2024-08-12T07:33:16Z</time>
      </trkpt>
      <trkpt lat="44.78188" lon="6.36066">
        <ele>2514.6</ele>
        <time>2024-08-12T07:33:17Z</time>
      </trkpt>
      <trkpt lat="44.78188" lon="6.36066">
        <ele>2514.4</ele>
        <time>2024-08-12T07:33:18Z</time>
      </trkpt>
      <trkpt lat="44.78186" lon="6.36067">
        <ele>2514.4</ele>
        <time>2024-08-12T07:33:19Z</time>
      </trkpt>
      <trkpt lat="44.78186" lon="6.36067">
        <ele>2514.6</ele>
        <time>2024-08-12T07:33:20Z</time>
      </trkpt>
      <trkpt lat="44.78184" lon="6.36068">
        <ele>2514.6</ele>
        <time>2024-08-12T07:33:21Z</time>
      </trkpt>
      <trkpt lat="44.78184" lon="6.36068">
        <ele>2514.8</ele>
        <time>2024-08-12T07:33:22Z</time>
      </trkpt>
      <trkpt lat="44.78184" lon="6.36068">
        <ele>2515</ele>
        <time>2024-08-12T07:33:23Z</time>
      </trkpt>
      <trkpt lat="44.78182" lon="6.36069">
        <ele>2515</ele>
        <time>2024-08-12T07:33:24Z</time>
      </trkpt>
      <trkpt lat="44.78182" lon="6.36069">
        <ele>2515</ele>
        <time>2024-08-12T07:33:25Z</time>
      </trkpt>
      <trkpt lat="44.7818" lon="6.36069">
        <ele>2515</ele>
        <time>2024-08-12T07:33:26Z</time>
      </trkpt>
      <trkpt lat="44.7818" lon="6.36069">
        <ele>2515.2</ele>
        <time>2024-08-12T07:33:27Z</time>
      </trkpt>
      <trkpt lat="44.78178" lon="6.36068">
        <ele>2515.2</ele>
        <time>2024-08-12T07:33:28Z</time>
      </trkpt>
      <trkpt lat="44.78178" lon="6.36068">
        <ele>2515.2</ele>
        <time>2024-08-12T07:33:29Z</time>
      </trkpt>
      <trkpt lat="44.78176" lon="6.36067">
        <ele>2515</ele>
        <time>2024-08-12T07:33:30Z</time>
      </trkpt>
      <trkpt lat="44.78176" lon="6.36067">
        <ele>2515</ele>
        <time>2024-08-12T07:33:31Z</time>
      </trkpt>
      <trkpt lat="44.78176" lon="6.36067">
        <ele>2515</ele>
        <time>2024-08-12T07:33:32Z</time>
      </trkpt>
      <trkpt lat="44.78174" lon="6.36065">
        <ele>2515</ele>
        <time>2024-08-12T07:33:33Z</time>
      </trkpt>
      <trkpt lat="44.78174" lon="6.36065">
        <ele>2515</ele>
        <time>2024-08-12T07:33:34Z</time>
      </trkpt>
      <trkpt lat="44.78174" lon="6.36065">
        <ele>2515.4</ele>
        <time>2024-08-12T07:33:35Z</time>
      </trkpt>
      <trkpt lat="44.78173" lon="6.36063">
        <ele>2515.6</ele>
        <time>2024-08-12T07:33:36Z</time>
      </trkpt>
      <trkpt lat="44.78173" lon="6.36063">
        <ele>2515.8</ele>
        <time>2024-08-12T07:33:37Z</time>
      </trkpt>
      <trkpt lat="44.78173" lon="6.36063">
        <ele>2516</ele>
        <time>2024-08-12T07:33:38Z</time>
      </trkpt>
      <trkpt lat="44.78172" lon="6.3606">
        <ele>2516</ele>
        <time>2024-08-12T07:33:39Z</time>
      </trkpt>
      <trkpt lat="44.78172" lon="6.3606">
        <ele>2516.6</ele>
        <time>2024-08-12T07:33:40Z</time>
      </trkpt>
      <trkpt lat="44.78172" lon="6.3606">
        <ele>2516.6</ele>
        <time>2024-08-12T07:33:41Z</time>
      </trkpt>
      <trkpt lat="44.78172" lon="6.36058">
        <ele>2517</ele>
        <time>2024-08-12T07:33:42Z</time>
      </trkpt>
      <trkpt lat="44.78172" lon="6.36058">
        <ele>2517</ele>
        <time>2024-08-12T07:33:43Z</time>
      </trkpt>
      <trkpt lat="44.78172" lon="6.36058">
        <ele>2517</ele>
        <time>2024-08-12T07:33:44Z</time>
      </trkpt>
      <trkpt lat="44.7817" lon="6.36055">
        <ele>2517.4</ele>
        <time>2024-08-12T07:33:45Z</time>
      </trkpt>
      <trkpt lat="44.7817" lon="6.36055">
        <ele>2517.6</ele>
        <time>2024-08-12T07:33:46Z</time>
      </trkpt>
      <trkpt lat="44.7817" lon="6.36055">
        <ele>2517.8</ele>
        <time>2024-08-12T07:33:47Z</time>
      </trkpt>
      <trkpt lat="44.78169" lon="6.36053">
        <ele>2518</ele>
        <time>2024-08-12T07:33:48Z</time>
      </trkpt>
      <trkpt lat="44.78169" lon="6.36053">
        <ele>2518.2</ele>
        <time>2024-08-12T07:33:49Z</time>
      </trkpt>
      <trkpt lat="44.78169" lon="6.36053">
        <ele>2518.4</ele>
        <time>2024-08-12T07:33:50Z</time>
      </trkpt>
      <trkpt lat="44.78169" lon="6.3605">
        <ele>2518.4</ele>
        <time>2024-08-12T07:33:51Z</time>
      </trkpt>
      <trkpt lat="44.78169" lon="6.3605">
        <ele>2518.6</ele>
        <time>2024-08-12T07:33:52Z</time>
      </trkpt>
      <trkpt lat="44.78169" lon="6.3605">
        <ele>2519</ele>
        <time>2024-08-12T07:33:53Z</time>
      </trkpt>
      <trkpt lat="44.78168" lon="6.36047">
        <ele>2519.4</ele>
        <time>2024-08-12T07:33:54Z</time>
      </trkpt>
      <trkpt lat="44.78168" lon="6.36047">
        <ele>2519.4</ele>
        <time>2024-08-12T07:33:55Z</time>
      </trkpt>
      <trkpt lat="44.78168" lon="6.36047">
        <ele>2520.2</ele>
        <time>2024-08-12T07:33:56Z</time>
      </trkpt>
      <trkpt lat="44.78167" lon="6.36045">
        <ele>2520.2</ele>
        <time>2024-08-12T07:33:57Z</time>
      </trkpt>
      <trkpt lat="44.78167" lon="6.36045">
        <ele>2520.4</ele>
        <time>2024-08-12T07:33:58Z</time>
      </trkpt>
      <trkpt lat="44.78167" lon="6.36045">
        <ele>2520.6</ele>
        <time>2024-08-12T07:33:59Z</time>
      </trkpt>
      <trkpt lat="44.78165" lon="6.36043">
        <ele>2520.6</ele>
        <time>2024-08-12T07:34:00Z</time>
      </trkpt>
      <trkpt lat="44.78165" lon="6.36043">
        <ele>2520.6</ele>
        <time>2024-08-12T07:34:01Z</time>
      </trkpt>
      <trkpt lat="44.78165" lon="6.36043">
        <ele>2520.4</ele>
        <time>2024-08-12T07:34:02Z</time>
      </trkpt>
      <trkpt lat="44.78163" lon="6.36041">
        <ele>2520.4</ele>
        <time>2024-08-12T07:34:03Z</time>
      </trkpt>
      <trkpt lat="44.78163" lon="6.36041">
        <ele>2520.8</ele>
        <time>2024-08-12T07:34:04Z</time>
      </trkpt>
      <trkpt lat="44.78163" lon="6.36041">
        <ele>2521.2</ele>
        <time>2024-08-12T07:34:05Z</time>
      </trkpt>
      <trkpt lat="44.78161" lon="6.36039">
        <ele>2521.2</ele>
        <time>2024-08-12T07:34:06Z</time>
      </trkpt>
      <trkpt lat="44.78161" lon="6.36039">
        <ele>2521.2</ele>
        <time>2024-08-12T07:34:07Z</time>
      </trkpt>
      <trkpt lat="44.78159" lon="6.36037">
        <ele>2521.4</ele>
        <time>2024-08-12T07:34:08Z</time>
      </trkpt>
      <trkpt lat="44.78159" lon="6.36037">
        <ele>2521.4</ele>
        <time>2024-08-12T07:34:09Z</time>
      </trkpt>
      <trkpt lat="44.78159" lon="6.36037">
        <ele>2521.8</ele>
        <time>2024-08-12T07:34:10Z</time>
      </trkpt>
      <trkpt lat="44.78158" lon="6.36034">
        <ele>2521.8</ele>
        <time>2024-08-12T07:34:11Z</time>
      </trkpt>
      <trkpt lat="44.78158" lon="6.36034">
        <ele>2522</ele>
        <time>2024-08-12T07:34:12Z</time>
      </trkpt>
      <trkpt lat="44.78158" lon="6.36034">
        <ele>2522.2</ele>
        <time>2024-08-12T07:34:13Z</time>
      </trkpt>
      <trkpt lat="44.78157" lon="6.36032">
        <ele>2522.2</ele>
        <time>2024-08-12T07:34:14Z</time>
      </trkpt>
      <trkpt lat="44.78157" lon="6.36032">
        <ele>2522.4</ele>
        <time>2024-08-12T07:34:15Z</time>
      </trkpt>
      <trkpt lat="44.78157" lon="6.36032">
        <ele>2522.6</ele>
        <time>2024-08-12T07:34:16Z</time>
      </trkpt>
      <trkpt lat="44.78157" lon="6.36032">
        <ele>2522.6</ele>
        <time>2024-08-12T07:34:17Z</time>
      </trkpt>
      <trkpt lat="44.78157" lon="6.36029">
        <ele>2523.2</ele>
        <time>2024-08-12T07:34:18Z</time>
      </trkpt>
      <trkpt lat="44.78157" lon="6.36029">
        <ele>2524.2</ele>
        <time>2024-08-12T07:34:19Z</time>
      </trkpt>
      <trkpt lat="44.78157" lon="6.36029">
        <ele>2524.4</ele>
        <time>2024-08-12T07:34:20Z</time>
      </trkpt>
      <trkpt lat="44.78157" lon="6.36029">
        <ele>2524.4</ele>
        <time>2024-08-12T07:34:21Z</time>
      </trkpt>
      <trkpt lat="44.78157" lon="6.36029">
        <ele>2524.6</ele>
        <time>2024-08-12T07:34:22Z</time>
      </trkpt>
      <trkpt lat="44.78157" lon="6.36029">
        <ele>2524.6</ele>
        <time>2024-08-12T07:34:23Z</time>
      </trkpt>
      <trkpt lat="44.78157" lon="6.36029">
        <ele>2524.6</ele>
        <time>2024-08-12T07:34:24Z</time>
      </trkpt>
      <trkpt lat="44.78157" lon="6.36029">
        <ele>2524.8</ele>
        <time>2024-08-12T07:34:25Z</time>
      </trkpt>
      <trkpt lat="44.78156" lon="6.36027">
        <ele>2524.8</ele>
        <time>2024-08-12T07:34:26Z</time>
      </trkpt>
      <trkpt lat="44.78156" lon="6.36027">
        <ele>2524.8</ele>
        <time>2024-08-12T07:34:27Z</time>
      </trkpt>
      <trkpt lat="44.78153" lon="6.36025">
        <ele>2525</ele>
        <time>2024-08-12T07:34:28Z</time>
      </trkpt>
      <trkpt lat="44.78153" lon="6.36025">
        <ele>2525.2</ele>
        <time>2024-08-12T07:34:29Z</time>
      </trkpt>
      <trkpt lat="44.78151" lon="6.36023">
        <ele>2525.2</ele>
        <time>2024-08-12T07:34:30Z</time>
      </trkpt>
      <trkpt lat="44.78151" lon="6.36023">
        <ele>2525.2</ele>
        <time>2024-08-12T07:34:31Z</time>
      </trkpt>
      <trkpt lat="44.78149" lon="6.36022">
        <ele>2525.2</ele>
        <time>2024-08-12T07:34:32Z</time>
      </trkpt>
      <trkpt lat="44.78149" lon="6.36022">
        <ele>2525.2</ele>
        <time>2024-08-12T07:34:33Z</time>
      </trkpt>
      <trkpt lat="44.78149" lon="6.36022">
        <ele>2525.6</ele>
        <time>2024-08-12T07:34:34Z</time>
      </trkpt>
      <trkpt lat="44.78148" lon="6.36019">
        <ele>2525.8</ele>
        <time>2024-08-12T07:34:35Z</time>
      </trkpt>
      <trkpt lat="44.78148" lon="6.36019">
        <ele>2526</ele>
        <time>2024-08-12T07:34:36Z</time>
      </trkpt>
      <trkpt lat="44.78148" lon="6.36019">
        <ele>2526</ele>
        <time>2024-08-12T07:34:37Z</time>
      </trkpt>
      <trkpt lat="44.78148" lon="6.36019">
        <ele>2526.8</ele>
        <time>2024-08-12T07:34:38Z</time>
      </trkpt>
      <trkpt lat="44.78147" lon="6.36017">
        <ele>2526.8</ele>
        <time>2024-08-12T07:34:39Z</time>
      </trkpt>
      <trkpt lat="44.78147" lon="6.36017">
        <ele>2526.8</ele>
        <time>2024-08-12T07:34:40Z</time>
      </trkpt>
      <trkpt lat="44.78147" lon="6.36017">
        <ele>2527.4</ele>
        <time>2024-08-12T07:34:41Z</time>
      </trkpt>
      <trkpt lat="44.78147" lon="6.36017">
        <ele>2527.8</ele>
        <time>2024-08-12T07:34:42Z</time>
      </trkpt>
      <trkpt lat="44.78145" lon="6.36015">
        <ele>2527.8</ele>
        <time>2024-08-12T07:34:43Z</time>
      </trkpt>
      <trkpt lat="44.78145" lon="6.36015">
        <ele>2528</ele>
        <time>2024-08-12T07:34:44Z</time>
      </trkpt>
      <trkpt lat="44.78145" lon="6.36015">
        <ele>2528.2</ele>
        <time>2024-08-12T07:34:45Z</time>
      </trkpt>
      <trkpt lat="44.78143" lon="6.36014">
        <ele>2528.6</ele>
        <time>2024-08-12T07:34:46Z</time>
      </trkpt>
      <trkpt lat="44.78143" lon="6.36014">
        <ele>2529.2</ele>
        <time>2024-08-12T07:34:47Z</time>
      </trkpt>
      <trkpt lat="44.78143" lon="6.36014">
        <ele>2529.2</ele>
        <time>2024-08-12T07:34:48Z</time>
      </trkpt>
      <trkpt lat="44.78141" lon="6.36013">
        <ele>2529.2</ele>
        <time>2024-08-12T07:34:49Z</time>
      </trkpt>
      <trkpt lat="44.78141" lon="6.36013">
        <ele>2529.4</ele>
        <time>2024-08-12T07:34:50Z</time>
      </trkpt>
      <trkpt lat="44.78141" lon="6.36013">
        <ele>2529.6</ele>
        <time>2024-08-12T07:34:51Z</time>
      </trkpt>
      <trkpt lat="44.78141" lon="6.36013">
        <ele>2529.8</ele>
        <time>2024-08-12T07:34:52Z</time>
      </trkpt>
      <trkpt lat="44.7814" lon="6.3601">
        <ele>2530</ele>
        <time>2024-08-12T07:34:53Z</time>
      </trkpt>
      <trkpt lat="44.7814" lon="6.3601">
        <ele>2530.2</ele>
        <time>2024-08-12T07:34:54Z</time>
      </trkpt>
      <trkpt lat="44.7814" lon="6.3601">
        <ele>2530.6</ele>
        <time>2024-08-12T07:34:55Z</time>
      </trkpt>
      <trkpt lat="44.7814" lon="6.3601">
        <ele>2530.8</ele>
        <time>2024-08-12T07:34:56Z</time>
      </trkpt>
      <trkpt lat="44.7814" lon="6.3601">
        <ele>2530.8</ele>
        <time>2024-08-12T07:34:57Z</time>
      </trkpt>
      <trkpt lat="44.78139" lon="6.36008">
        <ele>2531.4</ele>
        <time>2024-08-12T07:34:58Z</time>
      </trkpt>
      <trkpt lat="44.78139" lon="6.36008">
        <ele>2531.6</ele>
        <time>2024-08-12T07:34:59Z</time>
      </trkpt>
      <trkpt lat="44.78139" lon="6.36008">
        <ele>2531.8</ele>
        <time>2024-08-12T07:35:00Z</time>
      </trkpt>
      <trkpt lat="44.78139" lon="6.36008">
        <ele>2532</ele>
        <time>2024-08-12T07:35:01Z</time>
      </trkpt>
      <trkpt lat="44.78139" lon="6.36008">
        <ele>2532.4</ele>
        <time>2024-08-12T07:35:02Z</time>
      </trkpt>
      <trkpt lat="44.78137" lon="6.36006">
        <ele>2532.4</ele>
        <time>2024-08-12T07:35:03Z</time>
      </trkpt>
      <trkpt lat="44.78137" lon="6.36006">
        <ele>2532.8</ele>
        <time>2024-08-12T07:35:04Z</time>
      </trkpt>
      <trkpt lat="44.78137" lon="6.36006">
        <ele>2533.2</ele>
        <time>2024-08-12T07:35:05Z</time>
      </trkpt>
      <trkpt lat="44.78137" lon="6.36006">
        <ele>2533.2</ele>
        <time>2024-08-12T07:35:06Z</time>
      </trkpt>
      <trkpt lat="44.78134" lon="6.36005">
        <ele>2533.2</ele>
        <time>2024-08-12T07:35:07Z</time>
      </trkpt>
      <trkpt lat="44.78134" lon="6.36005">
        <ele>2533.4</ele>
        <time>2024-08-12T07:35:08Z</time>
      </trkpt>
      <trkpt lat="44.78134" lon="6.36005">
        <ele>2533.8</ele>
        <time>2024-08-12T07:35:09Z</time>
      </trkpt>
      <trkpt lat="44.78133" lon="6.36005">
        <ele>2534</ele>
        <time>2024-08-12T07:35:10Z</time>
      </trkpt>
      <trkpt lat="44.78133" lon="6.36005">
        <ele>2534</ele>
        <time>2024-08-12T07:35:11Z</time>
      </trkpt>
      <trkpt lat="44.78133" lon="6.36005">
        <ele>2534.2</ele>
        <time>2024-08-12T07:35:12Z</time>
      </trkpt>
      <trkpt lat="44.78133" lon="6.36005">
        <ele>2534.4</ele>
        <time>2024-08-12T07:35:13Z</time>
      </trkpt>
      <trkpt lat="44.78133" lon="6.36005">
        <ele>2534.4</ele>
        <time>2024-08-12T07:35:14Z</time>
      </trkpt>
      <trkpt lat="44.7813" lon="6.36005">
        <ele>2534.4</ele>
        <time>2024-08-12T07:35:15Z</time>
      </trkpt>
      <trkpt lat="44.7813" lon="6.36005">
        <ele>2534.4</ele>
        <time>2024-08-12T07:35:16Z</time>
      </trkpt>
      <trkpt lat="44.7813" lon="6.36005">
        <ele>2534.6</ele>
        <time>2024-08-12T07:35:17Z</time>
      </trkpt>
      <trkpt lat="44.7813" lon="6.36005">
        <ele>2534.6</ele>
        <time>2024-08-12T07:35:18Z</time>
      </trkpt>
      <trkpt lat="44.7813" lon="6.36005">
        <ele>2534.8</ele>
        <time>2024-08-12T07:35:19Z</time>
      </trkpt>
      <trkpt lat="44.78128" lon="6.36007">
        <ele>2535</ele>
        <time>2024-08-12T07:35:20Z</time>
      </trkpt>
      <trkpt lat="44.78128" lon="6.36007">
        <ele>2535.4</ele>
        <time>2024-08-12T07:35:21Z</time>
      </trkpt>
      <trkpt lat="44.78128" lon="6.36007">
        <ele>2535.8</ele>
        <time>2024-08-12T07:35:22Z</time>
      </trkpt>
      <trkpt lat="44.78128" lon="6.36007">
        <ele>2535.8</ele>
        <time>2024-08-12T07:35:23Z</time>
      </trkpt>
      <trkpt lat="44.78126" lon="6.36009">
        <ele>2535.8</ele>
        <time>2024-08-12T07:35:24Z</time>
      </trkpt>
      <trkpt lat="44.78126" lon="6.36009">
        <ele>2536.2</ele>
        <time>2024-08-12T07:35:25Z</time>
      </trkpt>
      <trkpt lat="44.78126" lon="6.36012">
        <ele>2536.2</ele>
        <time>2024-08-12T07:35:26Z</time>
      </trkpt>
      <trkpt lat="44.78126" lon="6.36012">
        <ele>2536</ele>
        <time>2024-08-12T07:35:27Z</time>
      </trkpt>
      <trkpt lat="44.78124" lon="6.36014">
        <ele>2536</ele>
        <time>2024-08-12T07:35:28Z</time>
      </trkpt>
      <trkpt lat="44.78124" lon="6.36014">
        <ele>2536.2</ele>
        <time>2024-08-12T07:35:29Z</time>
      </trkpt>
      <trkpt lat="44.78122" lon="6.36016">
        <ele>2536.4</ele>
        <time>2024-08-12T07:35:30Z</time>
      </trkpt>
      <trkpt lat="44.78122" lon="6.36016">
        <ele>2536.4</ele>
        <time>2024-08-12T07:35:31Z</time>
      </trkpt>
      <trkpt lat="44.78122" lon="6.36016">
        <ele>2536.6</ele>
        <time>2024-08-12T07:35:32Z</time>
      </trkpt>
      <trkpt lat="44.78121" lon="6.36019">
        <ele>2536.8</ele>
        <time>2024-08-12T07:35:33Z</time>
      </trkpt>
      <trkpt lat="44.78121" lon="6.36019">
        <ele>2536.8</ele>
        <time>2024-08-12T07:35:34Z</time>
      </trkpt>
      <trkpt lat="44.78121" lon="6.36019">
        <ele>2537.2</ele>
        <time>2024-08-12T07:35:35Z</time>
      </trkpt>
      <trkpt lat="44.78121" lon="6.36019">
        <ele>2537.4</ele>
        <time>2024-08-12T07:35:36Z</time>
      </trkpt>
      <trkpt lat="44.78121" lon="6.36019">
        <ele>2537.4</ele>
        <time>2024-08-12T07:35:37Z</time>
      </trkpt>
      <trkpt lat="44.78121" lon="6.36019">
        <ele>2537.6</ele>
        <time>2024-08-12T07:35:38Z</time>
      </trkpt>
      <trkpt lat="44.78121" lon="6.36019">
        <ele>2537.6</ele>
        <time>2024-08-12T07:35:39Z</time>
      </trkpt>
      <trkpt lat="44.78121" lon="6.36019">
        <ele>2537.6</ele>
        <time>2024-08-12T07:35:40Z</time>
      </trkpt>
      <trkpt lat="44.78121" lon="6.36019">
        <ele>2537.6</ele>
        <time>2024-08-12T07:35:41Z</time>
      </trkpt>
      <trkpt lat="44.78121" lon="6.36019">
        <ele>2537.4</ele>
        <time>2024-08-12T07:35:42Z</time>
      </trkpt>
      <trkpt lat="44.78121" lon="6.36019">
        <ele>2537.6</ele>
        <time>2024-08-12T07:35:43Z</time>
      </trkpt>
      <trkpt lat="44.78121" lon="6.36019">
        <ele>2537.8</ele>
        <time>2024-08-12T07:35:44Z</time>
      </trkpt>
      <trkpt lat="44.78121" lon="6.36019">
        <ele>2537.8</ele>
        <time>2024-08-12T07:35:45Z</time>
      </trkpt>
      <trkpt lat="44.78121" lon="6.36019">
        <ele>2537.8</ele>
        <time>2024-08-12T07:35:46Z</time>
      </trkpt>
      <trkpt lat="44.78121" lon="6.36019">
        <ele>2537.8</ele>
        <time>2024-08-12T07:35:47Z</time>
      </trkpt>
      <trkpt lat="44.78121" lon="6.36019">
        <ele>2537.8</ele>
        <time>2024-08-12T07:35:48Z</time>
      </trkpt>
      <trkpt lat="44.78121" lon="6.36019">
        <ele>2537.8</ele>
        <time>2024-08-12T07:35:49Z</time>
      </trkpt>
      <trkpt lat="44.78121" lon="6.36019">
        <ele>2537.8</ele>
        <time>2024-08-12T07:35:50Z</time>
      </trkpt>
      <trkpt lat="44.78121" lon="6.36019">
        <ele>2537.8</ele>
        <time>2024-08-12T07:35:51Z</time>
      </trkpt>
      <trkpt lat="44.78121" lon="6.36019">
        <ele>2537.8</ele>
        <time>2024-08-12T07:35:52Z</time>
      </trkpt>
      <trkpt lat="44.78121" lon="6.36019">
        <ele>2537.8</ele>
        <time>2024-08-12T07:35:53Z</time>
      </trkpt>
      <trkpt lat="44.78121" lon="6.36019">
        <ele>2537.8</ele>
        <time>2024-08-12T07:35:54Z</time>
      </trkpt>
      <trkpt lat="44.78121" lon="6.36019">
        <ele>2537.6</ele>
        <time>2024-08-12T07:35:55Z</time>
      </trkpt>
      <trkpt lat="44.78121" lon="6.36019">
        <ele>2537.6</ele>
        <time>2024-08-12T07:35:56Z</time>
      </trkpt>
      <trkpt lat="44.78121" lon="6.36019">
        <ele>2537.6</ele>
        <time>2024-08-12T07:35:57Z</time>
      </trkpt>
      <trkpt lat="44.78121" lon="6.36019">
        <ele>2537.6</ele>
        <time>2024-08-12T07:35:58Z</time>
      </trkpt>
      <trkpt lat="44.78121" lon="6.36019">
        <ele>2538</ele>
        <time>2024-08-12T07:35:59Z</time>
      </trkpt>
      <trkpt lat="44.78121" lon="6.36019">
        <ele>2538</ele>
        <time>2024-08-12T07:36:00Z</time>
      </trkpt>
      <trkpt lat="44.78121" lon="6.36019">
        <ele>2537.6</ele>
        <time>2024-08-12T07:36:01Z</time>
      </trkpt>
      <trkpt lat="44.78121" lon="6.36019">
        <ele>2537.8</ele>
        <time>2024-08-12T07:36:02Z</time>
      </trkpt>
      <trkpt lat="44.78121" lon="6.36019">
        <ele>2537.8</ele>
        <time>2024-08-12T07:36:03Z</time>
      </trkpt>
      <trkpt lat="44.78121" lon="6.36019">
        <ele>2537.8</ele>
        <time>2024-08-12T07:36:04Z</time>
      </trkpt>
      <trkpt lat="44.78121" lon="6.36019">
        <ele>2537.8</ele>
        <time>2024-08-12T07:36:05Z</time>
      </trkpt>
      <trkpt lat="44.78121" lon="6.36019">
        <ele>2537.8</ele>
        <time>2024-08-12T07:36:06Z</time>
      </trkpt>
      <trkpt lat="44.78121" lon="6.36019">
        <ele>2537.8</ele>
        <time>2024-08-12T07:36:07Z</time>
      </trkpt>
      <trkpt lat="44.78121" lon="6.36019">
        <ele>2537.8</ele>
        <time>2024-08-12T07:36:08Z</time>
      </trkpt>
      <trkpt lat="44.78121" lon="6.36019">
        <ele>2537.8</ele>
        <time>2024-08-12T07:36:09Z</time>
      </trkpt>
      <trkpt lat="44.78121" lon="6.36019">
        <ele>2537.6</ele>
        <time>2024-08-12T07:36:10Z</time>
      </trkpt>
      <trkpt lat="44.78121" lon="6.36019">
        <ele>2537.6</ele>
        <time>2024-08-12T07:36:11Z</time>
      </trkpt>
      <trkpt lat="44.78121" lon="6.36019">
        <ele>2537.8</ele>
        <time>2024-08-12T07:36:12Z</time>
      </trkpt>
      <trkpt lat="44.78121" lon="6.36019">
        <ele>2537.8</ele>
        <time>2024-08-12T07:36:13Z</time>
      </trkpt>
      <trkpt lat="44.78121" lon="6.36019">
        <ele>2537.8</ele>
        <time>2024-08-12T07:36:14Z</time>
      </trkpt>
      <trkpt lat="44.78121" lon="6.36019">
        <ele>2537.8</ele>
        <time>2024-08-12T07:36:15Z</time>
      </trkpt>
      <trkpt lat="44.78121" lon="6.36019">
        <ele>2537.8</ele>
        <time>2024-08-12T07:36:16Z</time>
      </trkpt>
      <trkpt lat="44.78121" lon="6.36019">
        <ele>2537.8</ele>
        <time>2024-08-12T07:36:17Z</time>
      </trkpt>
      <trkpt lat="44.78121" lon="6.36019">
        <ele>2537.8</ele>
        <time>2024-08-12T07:36:18Z</time>
      </trkpt>
      <trkpt lat="44.78121" lon="6.36019">
        <ele>2537.8</ele>
        <time>2024-08-12T07:36:19Z</time>
      </trkpt>
      <trkpt lat="44.78121" lon="6.36019">
        <ele>2537.6</ele>
        <time>2024-08-12T07:36:20Z</time>
      </trkpt>
      <trkpt lat="44.78121" lon="6.36019">
        <ele>2537.6</ele>
        <time>2024-08-12T07:36:21Z</time>
      </trkpt>
      <trkpt lat="44.78121" lon="6.36019">
        <ele>2537.6</ele>
        <time>2024-08-12T07:36:22Z</time>
      </trkpt>
      <trkpt lat="44.78121" lon="6.36019">
        <ele>2537.6</ele>
        <time>2024-08-12T07:36:23Z</time>
      </trkpt>
      <trkpt lat="44.78118" lon="6.36017">
        <ele>2537.8</ele>
        <time>2024-08-12T07:36:24Z</time>
      </trkpt>
      <trkpt lat="44.78118" lon="6.36017">
        <ele>2538</ele>
        <time>2024-08-12T07:36:25Z</time>
      </trkpt>
      <trkpt lat="44.78118" lon="6.36017">
        <ele>2538</ele>
        <time>2024-08-12T07:36:26Z</time>
      </trkpt>
      <trkpt lat="44.78116" lon="6.36015">
        <ele>2538.4</ele>
        <time>2024-08-12T07:36:27Z</time>
      </trkpt>
      <trkpt lat="44.78116" lon="6.36015">
        <ele>2538.6</ele>
        <time>2024-08-12T07:36:28Z</time>
      </trkpt>
      <trkpt lat="44.78114" lon="6.36014">
        <ele>2538.8</ele>
        <time>2024-08-12T07:36:29Z</time>
      </trkpt>
      <trkpt lat="44.78114" lon="6.36014">
        <ele>2539</ele>
        <time>2024-08-12T07:36:30Z</time>
      </trkpt>
      <trkpt lat="44.78112" lon="6.36013">
        <ele>2539</ele>
        <time>2024-08-12T07:36:31Z</time>
      </trkpt>
      <trkpt lat="44.78112" lon="6.36013">
        <ele>2539.4</ele>
        <time>2024-08-12T07:36:32Z</time>
      </trkpt>
      <trkpt lat="44.7811" lon="6.36013">
        <ele>2539.4</ele>
        <time>2024-08-12T07:36:33Z</time>
      </trkpt>
      <trkpt lat="44.7811" lon="6.36013">
        <ele>2539.6</ele>
        <time>2024-08-12T07:36:34Z</time>
      </trkpt>
      <trkpt lat="44.7811" lon="6.36013">
        <ele>2539.4</ele>
        <time>2024-08-12T07:36:35Z</time>
      </trkpt>
      <trkpt lat="44.78109" lon="6.36011">
        <ele>2539.6</ele>
        <time>2024-08-12T07:36:36Z</time>
      </trkpt>
      <trkpt lat="44.78109" lon="6.36011">
        <ele>2539.6</ele>
        <time>2024-08-12T07:36:37Z</time>
      </trkpt>
      <trkpt lat="44.78107" lon="6.36011">
        <ele>2540</ele>
        <time>2024-08-12T07:36:38Z</time>
      </trkpt>
      <trkpt lat="44.78107" lon="6.36011">
        <ele>2540</ele>
        <time>2024-08-12T07:36:39Z</time>
      </trkpt>
      <trkpt lat="44.78105" lon="6.3601">
        <ele>2540.4</ele>
        <time>2024-08-12T07:36:40Z</time>
      </trkpt>
      <trkpt lat="44.78105" lon="6.3601">
        <ele>2540.4</ele>
        <time>2024-08-12T07:36:41Z</time>
      </trkpt>
      <trkpt lat="44.78105" lon="6.3601">
        <ele>2540.6</ele>
        <time>2024-08-12T07:36:42Z</time>
      </trkpt>
      <trkpt lat="44.78102" lon="6.36008">
        <ele>2540.8</ele>
        <time>2024-08-12T07:36:43Z</time>
      </trkpt>
      <trkpt lat="44.78102" lon="6.36008">
        <ele>2540.8</ele>
        <time>2024-08-12T07:36:44Z</time>
      </trkpt>
      <trkpt lat="44.78102" lon="6.36008">
        <ele>2540.8</ele>
        <time>2024-08-12T07:36:45Z</time>
      </trkpt>
      <trkpt lat="44.781" lon="6.36007">
        <ele>2541</ele>
        <time>2024-08-12T07:36:46Z</time>
      </trkpt>
      <trkpt lat="44.781" lon="6.36007">
        <ele>2541.2</ele>
        <time>2024-08-12T07:36:47Z</time>
      </trkpt>
      <trkpt lat="44.781" lon="6.36007">
        <ele>2541.2</ele>
        <time>2024-08-12T07:36:48Z</time>
      </trkpt>
      <trkpt lat="44.78098" lon="6.36008">
        <ele>2541.4</ele>
        <time>2024-08-12T07:36:49Z</time>
      </trkpt>
      <trkpt lat="44.78098" lon="6.36008">
        <ele>2541.6</ele>
        <time>2024-08-12T07:36:50Z</time>
      </trkpt>
      <trkpt lat="44.78096" lon="6.36008">
        <ele>2541.6</ele>
        <time>2024-08-12T07:36:51Z</time>
      </trkpt>
      <trkpt lat="44.78096" lon="6.36008">
        <ele>2541.8</ele>
        <time>2024-08-12T07:36:52Z</time>
      </trkpt>
      <trkpt lat="44.78096" lon="6.36008">
        <ele>2541.8</ele>
        <time>2024-08-12T07:36:53Z</time>
      </trkpt>
      <trkpt lat="44.78094" lon="6.3601">
        <ele>2542.4</ele>
        <time>2024-08-12T07:36:54Z</time>
      </trkpt>
      <trkpt lat="44.78094" lon="6.3601">
        <ele>2542.6</ele>
        <time>2024-08-12T07:36:55Z</time>
      </trkpt>
      <trkpt lat="44.78092" lon="6.3601">
        <ele>2542.6</ele>
        <time>2024-08-12T07:36:56Z</time>
      </trkpt>
      <trkpt lat="44.78092" lon="6.3601">
        <ele>2542.6</ele>
        <time>2024-08-12T07:36:57Z</time>
      </trkpt>
      <trkpt lat="44.7809" lon="6.3601">
        <ele>2543</ele>
        <time>2024-08-12T07:36:58Z</time>
      </trkpt>
      <trkpt lat="44.7809" lon="6.3601">
        <ele>2543</ele>
        <time>2024-08-12T07:36:59Z</time>
      </trkpt>
      <trkpt lat="44.78088" lon="6.36011">
        <ele>2543.2</ele>
        <time>2024-08-12T07:37:00Z</time>
      </trkpt>
      <trkpt lat="44.78088" lon="6.36011">
        <ele>2543.2</ele>
        <time>2024-08-12T07:37:01Z</time>
      </trkpt>
      <trkpt lat="44.78086" lon="6.36012">
        <ele>2543.6</ele>
        <time>2024-08-12T07:37:02Z</time>
      </trkpt>
      <trkpt lat="44.78086" lon="6.36012">
        <ele>2543.6</ele>
        <time>2024-08-12T07:37:03Z</time>
      </trkpt>
      <trkpt lat="44.78084" lon="6.36013">
        <ele>2543.6</ele>
        <time>2024-08-12T07:37:04Z</time>
      </trkpt>
      <trkpt lat="44.78084" lon="6.36013">
        <ele>2543.6</ele>
        <time>2024-08-12T07:37:05Z</time>
      </trkpt>
      <trkpt lat="44.78084" lon="6.36013">
        <ele>2544</ele>
        <time>2024-08-12T07:37:06Z</time>
      </trkpt>
      <trkpt lat="44.78082" lon="6.36013">
        <ele>2544.2</ele>
        <time>2024-08-12T07:37:07Z</time>
      </trkpt>
      <trkpt lat="44.78082" lon="6.36013">
        <ele>2544.2</ele>
        <time>2024-08-12T07:37:08Z</time>
      </trkpt>
      <trkpt lat="44.7808" lon="6.36013">
        <ele>2544.2</ele>
        <time>2024-08-12T07:37:09Z</time>
      </trkpt>
      <trkpt lat="44.7808" lon="6.36013">
        <ele>2544.2</ele>
        <time>2024-08-12T07:37:10Z</time>
      </trkpt>
      <trkpt lat="44.78077" lon="6.36014">
        <ele>2544.2</ele>
        <time>2024-08-12T07:37:11Z</time>
      </trkpt>
      <trkpt lat="44.78077" lon="6.36014">
        <ele>2544.2</ele>
        <time>2024-08-12T07:37:12Z</time>
      </trkpt>
      <trkpt lat="44.78075" lon="6.36013">
        <ele>2544.2</ele>
        <time>2024-08-12T07:37:13Z</time>
      </trkpt>
      <trkpt lat="44.78075" lon="6.36013">
        <ele>2544.2</ele>
        <time>2024-08-12T07:37:14Z</time>
      </trkpt>
      <trkpt lat="44.78073" lon="6.36014">
        <ele>2544.2</ele>
        <time>2024-08-12T07:37:15Z</time>
      </trkpt>
      <trkpt lat="44.78073" lon="6.36014">
        <ele>2544.2</ele>
        <time>2024-08-12T07:37:16Z</time>
      </trkpt>
      <trkpt lat="44.7807" lon="6.36014">
        <ele>2544.2</ele>
        <time>2024-08-12T07:37:17Z</time>
      </trkpt>
      <trkpt lat="44.7807" lon="6.36014">
        <ele>2544.2</ele>
        <time>2024-08-12T07:37:18Z</time>
      </trkpt>
      <trkpt lat="44.78068" lon="6.36015">
        <ele>2543.8</ele>
        <time>2024-08-12T07:37:19Z</time>
      </trkpt>
      <trkpt lat="44.78068" lon="6.36015">
        <ele>2543.8</ele>
        <time>2024-08-12T07:37:20Z</time>
      </trkpt>
      <trkpt lat="44.78066" lon="6.36016">
        <ele>2543.6</ele>
        <time>2024-08-12T07:37:21Z</time>
      </trkpt>
      <trkpt lat="44.78066" lon="6.36016">
        <ele>2543.6</ele>
        <time>2024-08-12T07:37:22Z</time>
      </trkpt>
      <trkpt lat="44.78064" lon="6.36018">
        <ele>2543.6</ele>
        <time>2024-08-12T07:37:23Z</time>
      </trkpt>
      <trkpt lat="44.78064" lon="6.36018">
        <ele>2543.6</ele>
        <time>2024-08-12T07:37:24Z</time>
      </trkpt>
      <trkpt lat="44.78062" lon="6.3602">
        <ele>2543.6</ele>
        <time>2024-08-12T07:37:25Z</time>
      </trkpt>
      <trkpt lat="44.78062" lon="6.3602">
        <ele>2543.6</ele>
        <time>2024-08-12T07:37:26Z</time>
      </trkpt>
      <trkpt lat="44.7806" lon="6.36021">
        <ele>2543.4</ele>
        <time>2024-08-12T07:37:27Z</time>
      </trkpt>
      <trkpt lat="44.7806" lon="6.36021">
        <ele>2543.4</ele>
        <time>2024-08-12T07:37:28Z</time>
      </trkpt>
      <trkpt lat="44.78058" lon="6.36021">
        <ele>2543.4</ele>
        <time>2024-08-12T07:37:29Z</time>
      </trkpt>
      <trkpt lat="44.78058" lon="6.36021">
        <ele>2543.6</ele>
        <time>2024-08-12T07:37:30Z</time>
      </trkpt>
      <trkpt lat="44.78056" lon="6.3602">
        <ele>2543.6</ele>
        <time>2024-08-12T07:37:31Z</time>
      </trkpt>
      <trkpt lat="44.78056" lon="6.3602">
        <ele>2544.2</ele>
        <time>2024-08-12T07:37:32Z</time>
      </trkpt>
      <trkpt lat="44.78054" lon="6.36019">
        <ele>2544.4</ele>
        <time>2024-08-12T07:37:33Z</time>
      </trkpt>
      <trkpt lat="44.78054" lon="6.36019">
        <ele>2544.6</ele>
        <time>2024-08-12T07:37:34Z</time>
      </trkpt>
      <trkpt lat="44.78054" lon="6.36019">
        <ele>2544.8</ele>
        <time>2024-08-12T07:37:35Z</time>
      </trkpt>
      <trkpt lat="44.78052" lon="6.36017">
        <ele>2545</ele>
        <time>2024-08-12T07:37:36Z</time>
      </trkpt>
      <trkpt lat="44.78052" lon="6.36017">
        <ele>2545.4</ele>
        <time>2024-08-12T07:37:37Z</time>
      </trkpt>
      <trkpt lat="44.7805" lon="6.36016">
        <ele>2545.6</ele>
        <time>2024-08-12T07:37:38Z</time>
      </trkpt>
      <trkpt lat="44.7805" lon="6.36016">
        <ele>2545.6</ele>
        <time>2024-08-12T07:37:39Z</time>
      </trkpt>
      <trkpt lat="44.7805" lon="6.36016">
        <ele>2545.8</ele>
        <time>2024-08-12T07:37:40Z</time>
      </trkpt>
      <trkpt lat="44.78048" lon="6.36015">
        <ele>2546</ele>
        <time>2024-08-12T07:37:41Z</time>
      </trkpt>
      <trkpt lat="44.78048" lon="6.36015">
        <ele>2546.2</ele>
        <time>2024-08-12T07:37:42Z</time>
      </trkpt>
      <trkpt lat="44.78048" lon="6.36015">
        <ele>2546.4</ele>
        <time>2024-08-12T07:37:43Z</time>
      </trkpt>
      <trkpt lat="44.78045" lon="6.36013">
        <ele>2546.4</ele>
        <time>2024-08-12T07:37:44Z</time>
      </trkpt>
      <trkpt lat="44.78045" lon="6.36013">
        <ele>2546.4</ele>
        <time>2024-08-12T07:37:45Z</time>
      </trkpt>
      <trkpt lat="44.78045" lon="6.36013">
        <ele>2547</ele>
        <time>2024-08-12T07:37:46Z</time>
      </trkpt>
      <trkpt lat="44.78042" lon="6.36011">
        <ele>2547.2</ele>
        <time>2024-08-12T07:37:47Z</time>
      </trkpt>
      <trkpt lat="44.78042" lon="6.36011">
        <ele>2547.4</ele>
        <time>2024-08-12T07:37:48Z</time>
      </trkpt>
      <trkpt lat="44.78042" lon="6.36011">
        <ele>2547.4</ele>
        <time>2024-08-12T07:37:49Z</time>
      </trkpt>
      <trkpt lat="44.7804" lon="6.3601">
        <ele>2547.4</ele>
        <time>2024-08-12T07:37:50Z</time>
      </trkpt>
      <trkpt lat="44.7804" lon="6.3601">
        <ele>2547.4</ele>
        <time>2024-08-12T07:37:51Z</time>
      </trkpt>
      <trkpt lat="44.78038" lon="6.3601">
        <ele>2547.6</ele>
        <time>2024-08-12T07:37:52Z</time>
      </trkpt>
      <trkpt lat="44.78038" lon="6.3601">
        <ele>2547.8</ele>
        <time>2024-08-12T07:37:53Z</time>
      </trkpt>
      <trkpt lat="44.78037" lon="6.36009">
        <ele>2547.8</ele>
        <time>2024-08-12T07:37:54Z</time>
      </trkpt>
      <trkpt lat="44.78037" lon="6.36009">
        <ele>2547.8</ele>
        <time>2024-08-12T07:37:55Z</time>
      </trkpt>
      <trkpt lat="44.78037" lon="6.36009">
        <ele>2548</ele>
        <time>2024-08-12T07:37:56Z</time>
      </trkpt>
      <trkpt lat="44.78034" lon="6.3601">
        <ele>2548.2</ele>
        <time>2024-08-12T07:37:57Z</time>
      </trkpt>
      <trkpt lat="44.78034" lon="6.3601">
        <ele>2548.2</ele>
        <time>2024-08-12T07:37:58Z</time>
      </trkpt>
      <trkpt lat="44.78032" lon="6.3601">
        <ele>2548.2</ele>
        <time>2024-08-12T07:37:59Z</time>
      </trkpt>
      <trkpt lat="44.78032" lon="6.3601">
        <ele>2548.4</ele>
        <time>2024-08-12T07:38:00Z</time>
      </trkpt>
      <trkpt lat="44.7803" lon="6.3601">
        <ele>2548.4</ele>
        <time>2024-08-12T07:38:01Z</time>
      </trkpt>
      <trkpt lat="44.7803" lon="6.3601">
        <ele>2548.6</ele>
        <time>2024-08-12T07:38:02Z</time>
      </trkpt>
      <trkpt lat="44.78027" lon="6.3601">
        <ele>2548.6</ele>
        <time>2024-08-12T07:38:03Z</time>
      </trkpt>
      <trkpt lat="44.78027" lon="6.3601">
        <ele>2548.8</ele>
        <time>2024-08-12T07:38:04Z</time>
      </trkpt>
      <trkpt lat="44.78027" lon="6.3601">
        <ele>2548.8</ele>
        <time>2024-08-12T07:38:05Z</time>
      </trkpt>
      <trkpt lat="44.78025" lon="6.3601">
        <ele>2549</ele>
        <time>2024-08-12T07:38:06Z</time>
      </trkpt>
      <trkpt lat="44.78025" lon="6.3601">
        <ele>2549.2</ele>
        <time>2024-08-12T07:38:07Z</time>
      </trkpt>
      <trkpt lat="44.78025" lon="6.3601">
        <ele>2549.2</ele>
        <time>2024-08-12T07:38:08Z</time>
      </trkpt>
      <trkpt lat="44.78022" lon="6.3601">
        <ele>2549.2</ele>
        <time>2024-08-12T07:38:09Z</time>
      </trkpt>
      <trkpt lat="44.78022" lon="6.3601">
        <ele>2549.2</ele>
        <time>2024-08-12T07:38:10Z</time>
      </trkpt>
      <trkpt lat="44.7802" lon="6.36009">
        <ele>2549.2</ele>
        <time>2024-08-12T07:38:11Z</time>
      </trkpt>
      <trkpt lat="44.7802" lon="6.36009">
        <ele>2549.2</ele>
        <time>2024-08-12T07:38:12Z</time>
      </trkpt>
      <trkpt lat="44.7802" lon="6.36009">
        <ele>2549.2</ele>
        <time>2024-08-12T07:38:13Z</time>
      </trkpt>
      <trkpt lat="44.78017" lon="6.36008">
        <ele>2549.4</ele>
        <time>2024-08-12T07:38:14Z</time>
      </trkpt>
      <trkpt lat="44.78017" lon="6.36008">
        <ele>2549.8</ele>
        <time>2024-08-12T07:38:15Z</time>
      </trkpt>
      <trkpt lat="44.78017" lon="6.36008">
        <ele>2550</ele>
        <time>2024-08-12T07:38:16Z</time>
      </trkpt>
      <trkpt lat="44.78015" lon="6.36006">
        <ele>2550</ele>
        <time>2024-08-12T07:38:17Z</time>
      </trkpt>
      <trkpt lat="44.78015" lon="6.36006">
        <ele>2550.4</ele>
        <time>2024-08-12T07:38:18Z</time>
      </trkpt>
      <trkpt lat="44.78015" lon="6.36006">
        <ele>2550.4</ele>
        <time>2024-08-12T07:38:19Z</time>
      </trkpt>
      <trkpt lat="44.78013" lon="6.36005">
        <ele>2550.6</ele>
        <time>2024-08-12T07:38:20Z</time>
      </trkpt>
      <trkpt lat="44.78013" lon="6.36005">
        <ele>2550.8</ele>
        <time>2024-08-12T07:38:21Z</time>
      </trkpt>
      <trkpt lat="44.78011" lon="6.36005">
        <ele>2551.2</ele>
        <time>2024-08-12T07:38:22Z</time>
      </trkpt>
      <trkpt lat="44.78011" lon="6.36005">
        <ele>2551.4</ele>
        <time>2024-08-12T07:38:23Z</time>
      </trkpt>
      <trkpt lat="44.78009" lon="6.36005">
        <ele>2551.4</ele>
        <time>2024-08-12T07:38:24Z</time>
      </trkpt>
      <trkpt lat="44.78009" lon="6.36005">
        <ele>2551.4</ele>
        <time>2024-08-12T07:38:25Z</time>
      </trkpt>
      <trkpt lat="44.78009" lon="6.36005">
        <ele>2551.4</ele>
        <time>2024-08-12T07:38:26Z</time>
      </trkpt>
      <trkpt lat="44.78007" lon="6.36004">
        <ele>2551.4</ele>
        <time>2024-08-12T07:38:27Z</time>
      </trkpt>
      <trkpt lat="44.78007" lon="6.36004">
        <ele>2551.4</ele>
        <time>2024-08-12T07:38:28Z</time>
      </trkpt>
      <trkpt lat="44.78007" lon="6.36004">
        <ele>2551.4</ele>
        <time>2024-08-12T07:38:29Z</time>
      </trkpt>
      <trkpt lat="44.78004" lon="6.36003">
        <ele>2552</ele>
        <time>2024-08-12T07:38:30Z</time>
      </trkpt>
      <trkpt lat="44.78004" lon="6.36003">
        <ele>2552</ele>
        <time>2024-08-12T07:38:31Z</time>
      </trkpt>
      <trkpt lat="44.78002" lon="6.36003">
        <ele>2552.2</ele>
        <time>2024-08-12T07:38:32Z</time>
      </trkpt>
      <trkpt lat="44.78002" lon="6.36003">
        <ele>2552.4</ele>
        <time>2024-08-12T07:38:33Z</time>
      </trkpt>
      <trkpt lat="44.78002" lon="6.36003">
        <ele>2552.6</ele>
        <time>2024-08-12T07:38:34Z</time>
      </trkpt>
      <trkpt lat="44.77999" lon="6.36003">
        <ele>2552.6</ele>
        <time>2024-08-12T07:38:35Z</time>
      </trkpt>
      <trkpt lat="44.77999" lon="6.36003">
        <ele>2552.4</ele>
        <time>2024-08-12T07:38:36Z</time>
      </trkpt>
      <trkpt lat="44.77999" lon="6.36003">
        <ele>2552.2</ele>
        <time>2024-08-12T07:38:37Z</time>
      </trkpt>
      <trkpt lat="44.77997" lon="6.36004">
        <ele>2552.2</ele>
        <time>2024-08-12T07:38:38Z</time>
      </trkpt>
      <trkpt lat="44.77997" lon="6.36004">
        <ele>2552.2</ele>
        <time>2024-08-12T07:38:39Z</time>
      </trkpt>
      <trkpt lat="44.77997" lon="6.36004">
        <ele>2551.6</ele>
        <time>2024-08-12T07:38:40Z</time>
      </trkpt>
      <trkpt lat="44.77995" lon="6.36004">
        <ele>2551.2</ele>
        <time>2024-08-12T07:38:41Z</time>
      </trkpt>
      <trkpt lat="44.77995" lon="6.36004">
        <ele>2551.2</ele>
        <time>2024-08-12T07:38:42Z</time>
      </trkpt>
      <trkpt lat="44.77993" lon="6.36005">
        <ele>2551.2</ele>
        <time>2024-08-12T07:38:43Z</time>
      </trkpt>
      <trkpt lat="44.77993" lon="6.36005">
        <ele>2551.2</ele>
        <time>2024-08-12T07:38:44Z</time>
      </trkpt>
      <trkpt lat="44.77993" lon="6.36005">
        <ele>2550.8</ele>
        <time>2024-08-12T07:38:45Z</time>
      </trkpt>
      <trkpt lat="44.7799" lon="6.36005">
        <ele>2550.8</ele>
        <time>2024-08-12T07:38:46Z</time>
      </trkpt>
      <trkpt lat="44.7799" lon="6.36005">
        <ele>2550.4</ele>
        <time>2024-08-12T07:38:47Z</time>
      </trkpt>
      <trkpt lat="44.77989" lon="6.36006">
        <ele>2550.2</ele>
        <time>2024-08-12T07:38:48Z</time>
      </trkpt>
      <trkpt lat="44.77989" lon="6.36006">
        <ele>2550.2</ele>
        <time>2024-08-12T07:38:49Z</time>
      </trkpt>
      <trkpt lat="44.77989" lon="6.36006">
        <ele>2550.2</ele>
        <time>2024-08-12T07:38:50Z</time>
      </trkpt>
      <trkpt lat="44.77986" lon="6.36006">
        <ele>2550.2</ele>
        <time>2024-08-12T07:38:51Z</time>
      </trkpt>
      <trkpt lat="44.77986" lon="6.36006">
        <ele>2550.2</ele>
        <time>2024-08-12T07:38:52Z</time>
      </trkpt>
      <trkpt lat="44.77986" lon="6.36006">
        <ele>2550.2</ele>
        <time>2024-08-12T07:38:53Z</time>
      </trkpt>
      <trkpt lat="44.77984" lon="6.36007">
        <ele>2550.2</ele>
        <time>2024-08-12T07:38:54Z</time>
      </trkpt>
      <trkpt lat="44.77984" lon="6.36007">
        <ele>2550.4</ele>
        <time>2024-08-12T07:38:55Z</time>
      </trkpt>
      <trkpt lat="44.77981" lon="6.36006">
        <ele>2550.4</ele>
        <time>2024-08-12T07:38:56Z</time>
      </trkpt>
      <trkpt lat="44.77981" lon="6.36006">
        <ele>2550.8</ele>
        <time>2024-08-12T07:38:57Z</time>
      </trkpt>
      <trkpt lat="44.77981" lon="6.36006">
        <ele>2551</ele>
        <time>2024-08-12T07:38:58Z</time>
      </trkpt>
      <trkpt lat="44.7798" lon="6.36006">
        <ele>2551</ele>
        <time>2024-08-12T07:38:59Z</time>
      </trkpt>
      <trkpt lat="44.7798" lon="6.36006">
        <ele>2551.2</ele>
        <time>2024-08-12T07:39:00Z</time>
      </trkpt>
      <trkpt lat="44.7798" lon="6.36006">
        <ele>2551.4</ele>
        <time>2024-08-12T07:39:01Z</time>
      </trkpt>
      <trkpt lat="44.77977" lon="6.36005">
        <ele>2551.6</ele>
        <time>2024-08-12T07:39:02Z</time>
      </trkpt>
      <trkpt lat="44.77977" lon="6.36005">
        <ele>2551.6</ele>
        <time>2024-08-12T07:39:03Z</time>
      </trkpt>
      <trkpt lat="44.77977" lon="6.36005">
        <ele>2552.2</ele>
        <time>2024-08-12T07:39:04Z</time>
      </trkpt>
      <trkpt lat="44.77974" lon="6.36005">
        <ele>2552.4</ele>
        <time>2024-08-12T07:39:05Z</time>
      </trkpt>
      <trkpt lat="44.77974" lon="6.36005">
        <ele>2552.4</ele>
        <time>2024-08-12T07:39:06Z</time>
      </trkpt>
      <trkpt lat="44.77974" lon="6.36005">
        <ele>2552.6</ele>
        <time>2024-08-12T07:39:07Z</time>
      </trkpt>
      <trkpt lat="44.77972" lon="6.36005">
        <ele>2552.6</ele>
        <time>2024-08-12T07:39:08Z</time>
      </trkpt>
      <trkpt lat="44.77972" lon="6.36005">
        <ele>2552.6</ele>
        <time>2024-08-12T07:39:09Z</time>
      </trkpt>
      <trkpt lat="44.77972" lon="6.36005">
        <ele>2552.4</ele>
        <time>2024-08-12T07:39:10Z</time>
      </trkpt>
      <trkpt lat="44.77969" lon="6.36004">
        <ele>2552.4</ele>
        <time>2024-08-12T07:39:11Z</time>
      </trkpt>
      <trkpt lat="44.77969" lon="6.36004">
        <ele>2552.4</ele>
        <time>2024-08-12T07:39:12Z</time>
      </trkpt>
      <trkpt lat="44.77967" lon="6.36004">
        <ele>2552.4</ele>
        <time>2024-08-12T07:39:13Z</time>
      </trkpt>
      <trkpt lat="44.77967" lon="6.36004">
        <ele>2552.2</ele>
        <time>2024-08-12T07:39:14Z</time>
      </trkpt>
      <trkpt lat="44.77967" lon="6.36004">
        <ele>2552</ele>
        <time>2024-08-12T07:39:15Z</time>
      </trkpt>
      <trkpt lat="44.77965" lon="6.36002">
        <ele>2551.2</ele>
        <time>2024-08-12T07:39:16Z</time>
      </trkpt>
      <trkpt lat="44.77965" lon="6.36002">
        <ele>2551.2</ele>
        <time>2024-08-12T07:39:17Z</time>
      </trkpt>
      <trkpt lat="44.77963" lon="6.36001">
        <ele>2550.6</ele>
        <time>2024-08-12T07:39:18Z</time>
      </trkpt>
      <trkpt lat="44.77963" lon="6.36001">
        <ele>2550.6</ele>
        <time>2024-08-12T07:39:19Z</time>
      </trkpt>
      <trkpt lat="44.77961" lon="6.35999">
        <ele>2550.6</ele>
        <time>2024-08-12T07:39:20Z</time>
      </trkpt>
      <trkpt lat="44.77961" lon="6.35999">
        <ele>2550.8</ele>
        <time>2024-08-12T07:39:21Z</time>
      </trkpt>
      <trkpt lat="44.77959" lon="6.35997">
        <ele>2550.8</ele>
        <time>2024-08-12T07:39:22Z</time>
      </trkpt>
      <trkpt lat="44.77959" lon="6.35997">
        <ele>2550.6</ele>
        <time>2024-08-12T07:39:23Z</time>
      </trkpt>
      <trkpt lat="44.77957" lon="6.35995">
        <ele>2550.6</ele>
        <time>2024-08-12T07:39:24Z</time>
      </trkpt>
      <trkpt lat="44.77957" lon="6.35995">
        <ele>2550.6</ele>
        <time>2024-08-12T07:39:25Z</time>
      </trkpt>
      <trkpt lat="44.77955" lon="6.35993">
        <ele>2550.6</ele>
        <time>2024-08-12T07:39:26Z</time>
      </trkpt>
      <trkpt lat="44.77955" lon="6.35993">
        <ele>2550.6</ele>
        <time>2024-08-12T07:39:27Z</time>
      </trkpt>
      <trkpt lat="44.77953" lon="6.35992">
        <ele>2550.4</ele>
        <time>2024-08-12T07:39:28Z</time>
      </trkpt>
      <trkpt lat="44.77953" lon="6.35992">
        <ele>2550.2</ele>
        <time>2024-08-12T07:39:29Z</time>
      </trkpt>
      <trkpt lat="44.77951" lon="6.35992">
        <ele>2550.2</ele>
        <time>2024-08-12T07:39:30Z</time>
      </trkpt>
      <trkpt lat="44.77951" lon="6.35992">
        <ele>2550.2</ele>
        <time>2024-08-12T07:39:31Z</time>
      </trkpt>
      <trkpt lat="44.77951" lon="6.35992">
        <ele>2550.2</ele>
        <time>2024-08-12T07:39:32Z</time>
      </trkpt>
      <trkpt lat="44.7795" lon="6.35995">
        <ele>2550</ele>
        <time>2024-08-12T07:39:33Z</time>
      </trkpt>
      <trkpt lat="44.7795" lon="6.35995">
        <ele>2549.6</ele>
        <time>2024-08-12T07:39:34Z</time>
      </trkpt>
      <trkpt lat="44.7795" lon="6.35995">
        <ele>2549.6</ele>
        <time>2024-08-12T07:39:35Z</time>
      </trkpt>
      <trkpt lat="44.7795" lon="6.35995">
        <ele>2549.6</ele>
        <time>2024-08-12T07:39:36Z</time>
      </trkpt>
      <trkpt lat="44.77949" lon="6.35997">
        <ele>2549.2</ele>
        <time>2024-08-12T07:39:37Z</time>
      </trkpt>
      <trkpt lat="44.77949" lon="6.35997">
        <ele>2549.2</ele>
        <time>2024-08-12T07:39:38Z</time>
      </trkpt>
      <trkpt lat="44.77949" lon="6.35997">
        <ele>2549</ele>
        <time>2024-08-12T07:39:39Z</time>
      </trkpt>
      <trkpt lat="44.77948" lon="6.36">
        <ele>2549</ele>
        <time>2024-08-12T07:39:40Z</time>
      </trkpt>
      <trkpt lat="44.77948" lon="6.36">
        <ele>2548.4</ele>
        <time>2024-08-12T07:39:41Z</time>
      </trkpt>
      <trkpt lat="44.77948" lon="6.36">
        <ele>2548</ele>
        <time>2024-08-12T07:39:42Z</time>
      </trkpt>
      <trkpt lat="44.77948" lon="6.36">
        <ele>2547.6</ele>
        <time>2024-08-12T07:39:43Z</time>
      </trkpt>
      <trkpt lat="44.77948" lon="6.36">
        <ele>2547.6</ele>
        <time>2024-08-12T07:39:44Z</time>
      </trkpt>
      <trkpt lat="44.77948" lon="6.36">
        <ele>2548</ele>
        <time>2024-08-12T07:39:45Z</time>
      </trkpt>
      <trkpt lat="44.77948" lon="6.36">
        <ele>2548.6</ele>
        <time>2024-08-12T07:39:46Z</time>
      </trkpt>
      <trkpt lat="44.77948" lon="6.36">
        <ele>2548.6</ele>
        <time>2024-08-12T07:39:47Z</time>
      </trkpt>
      <trkpt lat="44.77948" lon="6.36">
        <ele>2548.6</ele>
        <time>2024-08-12T07:39:48Z</time>
      </trkpt>
      <trkpt lat="44.77948" lon="6.36">
        <ele>2548.8</ele>
        <time>2024-08-12T07:39:49Z</time>
      </trkpt>
      <trkpt lat="44.77948" lon="6.36">
        <ele>2549</ele>
        <time>2024-08-12T07:39:50Z</time>
      </trkpt>
      <trkpt lat="44.77948" lon="6.36">
        <ele>2549</ele>
        <time>2024-08-12T07:39:51Z</time>
      </trkpt>
      <trkpt lat="44.77948" lon="6.36">
        <ele>2549.2</ele>
        <time>2024-08-12T07:39:52Z</time>
      </trkpt>
      <trkpt lat="44.77948" lon="6.36">
        <ele>2549.2</ele>
        <time>2024-08-12T07:39:53Z</time>
      </trkpt>
      <trkpt lat="44.77948" lon="6.36">
        <ele>2549.2</ele>
        <time>2024-08-12T07:39:54Z</time>
      </trkpt>
      <trkpt lat="44.77948" lon="6.36">
        <ele>2549.2</ele>
        <time>2024-08-12T07:39:55Z</time>
      </trkpt>
      <trkpt lat="44.77948" lon="6.36">
        <ele>2549</ele>
        <time>2024-08-12T07:39:56Z</time>
      </trkpt>
      <trkpt lat="44.77948" lon="6.36">
        <ele>2549.2</ele>
        <time>2024-08-12T07:39:57Z</time>
      </trkpt>
      <trkpt lat="44.77945" lon="6.36002">
        <ele>2549.6</ele>
        <time>2024-08-12T07:39:58Z</time>
      </trkpt>
      <trkpt lat="44.77945" lon="6.36002">
        <ele>2549.6</ele>
        <time>2024-08-12T07:39:59Z</time>
      </trkpt>
      <trkpt lat="44.77945" lon="6.36002">
        <ele>2550.2</ele>
        <time>2024-08-12T07:40:00Z</time>
      </trkpt>
      <trkpt lat="44.77943" lon="6.36002">
        <ele>2550.2</ele>
        <time>2024-08-12T07:40:01Z</time>
      </trkpt>
      <trkpt lat="44.77943" lon="6.36002">
        <ele>2550.6</ele>
        <time>2024-08-12T07:40:02Z</time>
      </trkpt>
      <trkpt lat="44.77943" lon="6.36002">
        <ele>2550.8</ele>
        <time>2024-08-12T07:40:03Z</time>
      </trkpt>
      <trkpt lat="44.77942" lon="6.36">
        <ele>2551.4</ele>
        <time>2024-08-12T07:40:04Z</time>
      </trkpt>
      <trkpt lat="44.77942" lon="6.36">
        <ele>2551.4</ele>
        <time>2024-08-12T07:40:05Z</time>
      </trkpt>
      <trkpt lat="44.77942" lon="6.36">
        <ele>2551.2</ele>
        <time>2024-08-12T07:40:06Z</time>
      </trkpt>
      <trkpt lat="44.77942" lon="6.36">
        <ele>2551.2</ele>
        <time>2024-08-12T07:40:07Z</time>
      </trkpt>
      <trkpt lat="44.77942" lon="6.36">
        <ele>2551.6</ele>
        <time>2024-08-12T07:40:08Z</time>
      </trkpt>
      <trkpt lat="44.77942" lon="6.36">
        <ele>2552</ele>
        <time>2024-08-12T07:40:09Z</time>
      </trkpt>
      <trkpt lat="44.77942" lon="6.36">
        <ele>2552</ele>
        <time>2024-08-12T07:40:10Z</time>
      </trkpt>
      <trkpt lat="44.7794" lon="6.36002">
        <ele>2552.2</ele>
        <time>2024-08-12T07:40:11Z</time>
      </trkpt>
      <trkpt lat="44.7794" lon="6.36002">
        <ele>2552.6</ele>
        <time>2024-08-12T07:40:12Z</time>
      </trkpt>
      <trkpt lat="44.7794" lon="6.36002">
        <ele>2552.6</ele>
        <time>2024-08-12T07:40:13Z</time>
      </trkpt>
      <trkpt lat="44.7794" lon="6.36002">
        <ele>2553</ele>
        <time>2024-08-12T07:40:14Z</time>
      </trkpt>
      <trkpt lat="44.7794" lon="6.36002">
        <ele>2553</ele>
        <time>2024-08-12T07:40:15Z</time>
      </trkpt>
      <trkpt lat="44.7794" lon="6.36002">
        <ele>2553</ele>
        <time>2024-08-12T07:40:16Z</time>
      </trkpt>
      <trkpt lat="44.77938" lon="6.36003">
        <ele>2553.4</ele>
        <time>2024-08-12T07:40:17Z</time>
      </trkpt>
      <trkpt lat="44.77938" lon="6.36003">
        <ele>2553.6</ele>
        <time>2024-08-12T07:40:18Z</time>
      </trkpt>
      <trkpt lat="44.77936" lon="6.36002">
        <ele>2554</ele>
        <time>2024-08-12T07:40:19Z</time>
      </trkpt>
      <trkpt lat="44.77936" lon="6.36002">
        <ele>2554</ele>
        <time>2024-08-12T07:40:20Z</time>
      </trkpt>
      <trkpt lat="44.77936" lon="6.36002">
        <ele>2554.2</ele>
        <time>2024-08-12T07:40:21Z</time>
      </trkpt>
      <trkpt lat="44.77936" lon="6.36002">
        <ele>2554.4</ele>
        <time>2024-08-12T07:40:22Z</time>
      </trkpt>
      <trkpt lat="44.77935" lon="6.35999">
        <ele>2554.4</ele>
        <time>2024-08-12T07:40:23Z</time>
      </trkpt>
      <trkpt lat="44.77935" lon="6.35999">
        <ele>2554.4</ele>
        <time>2024-08-12T07:40:24Z</time>
      </trkpt>
      <trkpt lat="44.77935" lon="6.35999">
        <ele>2555</ele>
        <time>2024-08-12T07:40:25Z</time>
      </trkpt>
      <trkpt lat="44.77935" lon="6.35999">
        <ele>2555.2</ele>
        <time>2024-08-12T07:40:26Z</time>
      </trkpt>
      <trkpt lat="44.77935" lon="6.35999">
        <ele>2556</ele>
        <time>2024-08-12T07:40:27Z</time>
      </trkpt>
      <trkpt lat="44.77935" lon="6.35999">
        <ele>2556</ele>
        <time>2024-08-12T07:40:28Z</time>
      </trkpt>
      <trkpt lat="44.77935" lon="6.35999">
        <ele>2555.8</ele>
        <time>2024-08-12T07:40:29Z</time>
      </trkpt>
      <trkpt lat="44.77935" lon="6.35999">
        <ele>2555.8</ele>
        <time>2024-08-12T07:40:30Z</time>
      </trkpt>
      <trkpt lat="44.77935" lon="6.35999">
        <ele>2556</ele>
        <time>2024-08-12T07:40:31Z</time>
      </trkpt>
      <trkpt lat="44.77935" lon="6.35999">
        <ele>2556.4</ele>
        <time>2024-08-12T07:40:32Z</time>
      </trkpt>
      <trkpt lat="44.77935" lon="6.35999">
        <ele>2556.6</ele>
        <time>2024-08-12T07:40:33Z</time>
      </trkpt>
      <trkpt lat="44.77935" lon="6.35999">
        <ele>2556.6</ele>
        <time>2024-08-12T07:40:34Z</time>
      </trkpt>
      <trkpt lat="44.77935" lon="6.35999">
        <ele>2556.6</ele>
        <time>2024-08-12T07:40:35Z</time>
      </trkpt>
      <trkpt lat="44.77935" lon="6.35999">
        <ele>2557.2</ele>
        <time>2024-08-12T07:40:36Z</time>
      </trkpt>
      <trkpt lat="44.77935" lon="6.35999">
        <ele>2557.4</ele>
        <time>2024-08-12T07:40:37Z</time>
      </trkpt>
      <trkpt lat="44.77935" lon="6.35999">
        <ele>2558.2</ele>
        <time>2024-08-12T07:40:38Z</time>
      </trkpt>
      <trkpt lat="44.77935" lon="6.35999">
        <ele>2558.2</ele>
        <time>2024-08-12T07:40:39Z</time>
      </trkpt>
      <trkpt lat="44.77935" lon="6.35997">
        <ele>2558.2</ele>
        <time>2024-08-12T07:40:40Z</time>
      </trkpt>
      <trkpt lat="44.77935" lon="6.35997">
        <ele>2558.4</ele>
        <time>2024-08-12T07:40:41Z</time>
      </trkpt>
      <trkpt lat="44.77935" lon="6.35997">
        <ele>2558.6</ele>
        <time>2024-08-12T07:40:42Z</time>
      </trkpt>
      <trkpt lat="44.77935" lon="6.35997">
        <ele>2558.6</ele>
        <time>2024-08-12T07:40:43Z</time>
      </trkpt>
      <trkpt lat="44.77935" lon="6.35997">
        <ele>2559</ele>
        <time>2024-08-12T07:40:44Z</time>
      </trkpt>
      <trkpt lat="44.77935" lon="6.35997">
        <ele>2559</ele>
        <time>2024-08-12T07:40:45Z</time>
      </trkpt>
      <trkpt lat="44.77935" lon="6.35997">
        <ele>2559.2</ele>
        <time>2024-08-12T07:40:46Z</time>
      </trkpt>
      <trkpt lat="44.77935" lon="6.35997">
        <ele>2559.2</ele>
        <time>2024-08-12T07:40:47Z</time>
      </trkpt>
      <trkpt lat="44.77935" lon="6.35997">
        <ele>2559.6</ele>
        <time>2024-08-12T07:40:48Z</time>
      </trkpt>
      <trkpt lat="44.77935" lon="6.35997">
        <ele>2560.2</ele>
        <time>2024-08-12T07:40:49Z</time>
      </trkpt>
      <trkpt lat="44.77934" lon="6.35993">
        <ele>2560.2</ele>
        <time>2024-08-12T07:40:50Z</time>
      </trkpt>
      <trkpt lat="44.77934" lon="6.35993">
        <ele>2560.2</ele>
        <time>2024-08-12T07:40:51Z</time>
      </trkpt>
      <trkpt lat="44.77933" lon="6.35989">
        <ele>2560.6</ele>
        <time>2024-08-12T07:40:52Z</time>
      </trkpt>
      <trkpt lat="44.77932" lon="6.35987">
        <ele>2561</ele>
        <time>2024-08-12T07:40:53Z</time>
      </trkpt>
      <trkpt lat="44.77932" lon="6.35987">
        <ele>2561</ele>
        <time>2024-08-12T07:40:54Z</time>
      </trkpt>
      <trkpt lat="44.77931" lon="6.35984">
        <ele>2561</ele>
        <time>2024-08-12T07:40:55Z</time>
      </trkpt>
      <trkpt lat="44.77931" lon="6.35984">
        <ele>2561.4</ele>
        <time>2024-08-12T07:40:56Z</time>
      </trkpt>
      <trkpt lat="44.77931" lon="6.35984">
        <ele>2561.8</ele>
        <time>2024-08-12T07:40:57Z</time>
      </trkpt>
      <trkpt lat="44.77931" lon="6.35984">
        <ele>2561.8</ele>
        <time>2024-08-12T07:40:58Z</time>
      </trkpt>
      <trkpt lat="44.7793" lon="6.35982">
        <ele>2562</ele>
        <time>2024-08-12T07:40:59Z</time>
      </trkpt>
      <trkpt lat="44.7793" lon="6.35982">
        <ele>2562</ele>
        <time>2024-08-12T07:41:00Z</time>
      </trkpt>
      <trkpt lat="44.7793" lon="6.35982">
        <ele>2562</ele>
        <time>2024-08-12T07:41:01Z</time>
      </trkpt>
      <trkpt lat="44.7793" lon="6.35982">
        <ele>2562.6</ele>
        <time>2024-08-12T07:41:02Z</time>
      </trkpt>
      <trkpt lat="44.7793" lon="6.35982">
        <ele>2562.6</ele>
        <time>2024-08-12T07:41:03Z</time>
      </trkpt>
      <trkpt lat="44.7793" lon="6.35982">
        <ele>2562.8</ele>
        <time>2024-08-12T07:41:04Z</time>
      </trkpt>
      <trkpt lat="44.77928" lon="6.3598">
        <ele>2563</ele>
        <time>2024-08-12T07:41:05Z</time>
      </trkpt>
      <trkpt lat="44.77928" lon="6.3598">
        <ele>2563.4</ele>
        <time>2024-08-12T07:41:06Z</time>
      </trkpt>
      <trkpt lat="44.77928" lon="6.3598">
        <ele>2563.4</ele>
        <time>2024-08-12T07:41:07Z</time>
      </trkpt>
      <trkpt lat="44.77928" lon="6.3598">
        <ele>2563.6</ele>
        <time>2024-08-12T07:41:08Z</time>
      </trkpt>
      <trkpt lat="44.77928" lon="6.3598">
        <ele>2563.6</ele>
        <time>2024-08-12T07:41:09Z</time>
      </trkpt>
      <trkpt lat="44.77928" lon="6.3598">
        <ele>2564</ele>
        <time>2024-08-12T07:41:10Z</time>
      </trkpt>
      <trkpt lat="44.77928" lon="6.3598">
        <ele>2564</ele>
        <time>2024-08-12T07:41:11Z</time>
      </trkpt>
      <trkpt lat="44.77928" lon="6.3598">
        <ele>2564.2</ele>
        <time>2024-08-12T07:41:12Z</time>
      </trkpt>
      <trkpt lat="44.77928" lon="6.3598">
        <ele>2564.4</ele>
        <time>2024-08-12T07:41:13Z</time>
      </trkpt>
      <trkpt lat="44.77927" lon="6.35979">
        <ele>2564.8</ele>
        <time>2024-08-12T07:41:14Z</time>
      </trkpt>
      <trkpt lat="44.77927" lon="6.35979">
        <ele>2565</ele>
        <time>2024-08-12T07:41:15Z</time>
      </trkpt>
      <trkpt lat="44.77927" lon="6.35979">
        <ele>2565.2</ele>
        <time>2024-08-12T07:41:16Z</time>
      </trkpt>
      <trkpt lat="44.77927" lon="6.35979">
        <ele>2565.6</ele>
        <time>2024-08-12T07:41:17Z</time>
      </trkpt>
      <trkpt lat="44.77927" lon="6.35979">
        <ele>2566</ele>
        <time>2024-08-12T07:41:18Z</time>
      </trkpt>
      <trkpt lat="44.77927" lon="6.35979">
        <ele>2566</ele>
        <time>2024-08-12T07:41:19Z</time>
      </trkpt>
      <trkpt lat="44.77927" lon="6.35979">
        <ele>2565.8</ele>
        <time>2024-08-12T07:41:20Z</time>
      </trkpt>
      <trkpt lat="44.77927" lon="6.35979">
        <ele>2565.8</ele>
        <time>2024-08-12T07:41:21Z</time>
      </trkpt>
      <trkpt lat="44.77927" lon="6.35979">
        <ele>2566</ele>
        <time>2024-08-12T07:41:22Z</time>
      </trkpt>
      <trkpt lat="44.77927" lon="6.35979">
        <ele>2566</ele>
        <time>2024-08-12T07:41:23Z</time>
      </trkpt>
      <trkpt lat="44.77927" lon="6.35979">
        <ele>2566</ele>
        <time>2024-08-12T07:41:24Z</time>
      </trkpt>
      <trkpt lat="44.77927" lon="6.35979">
        <ele>2565.8</ele>
        <time>2024-08-12T07:41:25Z</time>
      </trkpt>
      <trkpt lat="44.77927" lon="6.35979">
        <ele>2565.8</ele>
        <time>2024-08-12T07:41:26Z</time>
      </trkpt>
      <trkpt lat="44.77927" lon="6.35979">
        <ele>2565.8</ele>
        <time>2024-08-12T07:41:27Z</time>
      </trkpt>
      <trkpt lat="44.77927" lon="6.35979">
        <ele>2566.2</ele>
        <time>2024-08-12T07:41:28Z</time>
      </trkpt>
      <trkpt lat="44.77927" lon="6.35979">
        <ele>2566.4</ele>
        <time>2024-08-12T07:41:29Z</time>
      </trkpt>
      <trkpt lat="44.77927" lon="6.35979">
        <ele>2566.6</ele>
        <time>2024-08-12T07:41:30Z</time>
      </trkpt>
      <trkpt lat="44.77927" lon="6.35979">
        <ele>2567</ele>
        <time>2024-08-12T07:41:31Z</time>
      </trkpt>
      <trkpt lat="44.77927" lon="6.35979">
        <ele>2567.2</ele>
        <time>2024-08-12T07:41:32Z</time>
      </trkpt>
      <trkpt lat="44.77927" lon="6.35979">
        <ele>2567.4</ele>
        <time>2024-08-12T07:41:33Z</time>
      </trkpt>
      <trkpt lat="44.77927" lon="6.35979">
        <ele>2567.6</ele>
        <time>2024-08-12T07:41:34Z</time>
      </trkpt>
      <trkpt lat="44.77927" lon="6.35979">
        <ele>2567.6</ele>
        <time>2024-08-12T07:41:35Z</time>
      </trkpt>
      <trkpt lat="44.77927" lon="6.35979">
        <ele>2567.8</ele>
        <time>2024-08-12T07:41:36Z</time>
      </trkpt>
      <trkpt lat="44.77927" lon="6.35979">
        <ele>2567.8</ele>
        <time>2024-08-12T07:41:37Z</time>
      </trkpt>
      <trkpt lat="44.77925" lon="6.35978">
        <ele>2568.2</ele>
        <time>2024-08-12T07:41:38Z</time>
      </trkpt>
      <trkpt lat="44.77925" lon="6.35978">
        <ele>2568.6</ele>
        <time>2024-08-12T07:41:39Z</time>
      </trkpt>
      <trkpt lat="44.77921" lon="6.35977">
        <ele>2568.6</ele>
        <time>2024-08-12T07:41:40Z</time>
      </trkpt>
      <trkpt lat="44.77921" lon="6.35977">
        <ele>2569</ele>
        <time>2024-08-12T07:41:41Z</time>
      </trkpt>
      <trkpt lat="44.77919" lon="6.35977">
        <ele>2569.2</ele>
        <time>2024-08-12T07:41:42Z</time>
      </trkpt>
      <trkpt lat="44.77919" lon="6.35977">
        <ele>2569.2</ele>
        <time>2024-08-12T07:41:43Z</time>
      </trkpt>
      <trkpt lat="44.77919" lon="6.35977">
        <ele>2569.8</ele>
        <time>2024-08-12T07:41:44Z</time>
      </trkpt>
      <trkpt lat="44.77917" lon="6.35976">
        <ele>2569.8</ele>
        <time>2024-08-12T07:41:45Z</time>
      </trkpt>
      <trkpt lat="44.77917" lon="6.35976">
        <ele>2570</ele>
        <time>2024-08-12T07:41:46Z</time>
      </trkpt>
      <trkpt lat="44.77917" lon="6.35976">
        <ele>2570</ele>
        <time>2024-08-12T07:41:47Z</time>
      </trkpt>
      <trkpt lat="44.77917" lon="6.35976">
        <ele>2570.4</ele>
        <time>2024-08-12T07:41:48Z</time>
      </trkpt>
      <trkpt lat="44.77917" lon="6.35976">
        <ele>2570.8</ele>
        <time>2024-08-12T07:41:49Z</time>
      </trkpt>
      <trkpt lat="44.77915" lon="6.35977">
        <ele>2570.8</ele>
        <time>2024-08-12T07:41:50Z</time>
      </trkpt>
      <trkpt lat="44.77915" lon="6.35977">
        <ele>2571</ele>
        <time>2024-08-12T07:41:51Z</time>
      </trkpt>
      <trkpt lat="44.77915" lon="6.35977">
        <ele>2571.2</ele>
        <time>2024-08-12T07:41:52Z</time>
      </trkpt>
      <trkpt lat="44.77915" lon="6.35977">
        <ele>2571.2</ele>
        <time>2024-08-12T07:41:53Z</time>
      </trkpt>
      <trkpt lat="44.77915" lon="6.35977">
        <ele>2571.4</ele>
        <time>2024-08-12T07:41:54Z</time>
      </trkpt>
      <trkpt lat="44.77915" lon="6.35977">
        <ele>2571.6</ele>
        <time>2024-08-12T07:41:55Z</time>
      </trkpt>
      <trkpt lat="44.77915" lon="6.35977">
        <ele>2571.6</ele>
        <time>2024-08-12T07:41:56Z</time>
      </trkpt>
      <trkpt lat="44.77915" lon="6.35977">
        <ele>2572</ele>
        <time>2024-08-12T07:41:57Z</time>
      </trkpt>
      <trkpt lat="44.77915" lon="6.35977">
        <ele>2572</ele>
        <time>2024-08-12T07:41:58Z</time>
      </trkpt>
      <trkpt lat="44.77915" lon="6.35977">
        <ele>2572</ele>
        <time>2024-08-12T07:41:59Z</time>
      </trkpt>
      <trkpt lat="44.77915" lon="6.35977">
        <ele>2572</ele>
        <time>2024-08-12T07:42:00Z</time>
      </trkpt>
      <trkpt lat="44.77915" lon="6.35977">
        <ele>2571.8</ele>
        <time>2024-08-12T07:42:01Z</time>
      </trkpt>
      <trkpt lat="44.77915" lon="6.35977">
        <ele>2571.8</ele>
        <time>2024-08-12T07:42:02Z</time>
      </trkpt>
      <trkpt lat="44.77915" lon="6.35977">
        <ele>2571.8</ele>
        <time>2024-08-12T07:42:03Z</time>
      </trkpt>
      <trkpt lat="44.77915" lon="6.35977">
        <ele>2571.8</ele>
        <time>2024-08-12T07:42:04Z</time>
      </trkpt>
      <trkpt lat="44.77915" lon="6.35977">
        <ele>2571.8</ele>
        <time>2024-08-12T07:42:05Z</time>
      </trkpt>
      <trkpt lat="44.77915" lon="6.35977">
        <ele>2571.8</ele>
        <time>2024-08-12T07:42:06Z</time>
      </trkpt>
      <trkpt lat="44.77913" lon="6.35977">
        <ele>2571.8</ele>
        <time>2024-08-12T07:42:07Z</time>
      </trkpt>
      <trkpt lat="44.77913" lon="6.35977">
        <ele>2572</ele>
        <time>2024-08-12T07:42:08Z</time>
      </trkpt>
      <trkpt lat="44.77911" lon="6.35975">
        <ele>2572.2</ele>
        <time>2024-08-12T07:42:09Z</time>
      </trkpt>
      <trkpt lat="44.77911" lon="6.35975">
        <ele>2572.4</ele>
        <time>2024-08-12T07:42:10Z</time>
      </trkpt>
      <trkpt lat="44.77909" lon="6.35973">
        <ele>2572.6</ele>
        <time>2024-08-12T07:42:11Z</time>
      </trkpt>
      <trkpt lat="44.77909" lon="6.35973">
        <ele>2572.6</ele>
        <time>2024-08-12T07:42:12Z</time>
      </trkpt>
      <trkpt lat="44.77908" lon="6.35971">
        <ele>2572.8</ele>
        <time>2024-08-12T07:42:13Z</time>
      </trkpt>
      <trkpt lat="44.77908" lon="6.35971">
        <ele>2572.8</ele>
        <time>2024-08-12T07:42:14Z</time>
      </trkpt>
      <trkpt lat="44.77908" lon="6.35971">
        <ele>2573</ele>
        <time>2024-08-12T07:42:15Z</time>
      </trkpt>
      <trkpt lat="44.77906" lon="6.3597">
        <ele>2573.2</ele>
        <time>2024-08-12T07:42:16Z</time>
      </trkpt>
      <trkpt lat="44.77906" lon="6.3597">
        <ele>2573.2</ele>
        <time>2024-08-12T07:42:17Z</time>
      </trkpt>
      <trkpt lat="44.77906" lon="6.3597">
        <ele>2574</ele>
        <time>2024-08-12T07:42:18Z</time>
      </trkpt>
      <trkpt lat="44.77905" lon="6.35968">
        <ele>2574.2</ele>
        <time>2024-08-12T07:42:19Z</time>
      </trkpt>
      <trkpt lat="44.77905" lon="6.35968">
        <ele>2574.2</ele>
        <time>2024-08-12T07:42:20Z</time>
      </trkpt>
      <trkpt lat="44.77905" lon="6.35968">
        <ele>2574.6</ele>
        <time>2024-08-12T07:42:21Z</time>
      </trkpt>
      <trkpt lat="44.77905" lon="6.35968">
        <ele>2574.8</ele>
        <time>2024-08-12T07:42:22Z</time>
      </trkpt>
      <trkpt lat="44.77905" lon="6.35968">
        <ele>2574.8</ele>
        <time>2024-08-12T07:42:23Z</time>
      </trkpt>
      <trkpt lat="44.77905" lon="6.35968">
        <ele>2575</ele>
        <time>2024-08-12T07:42:24Z</time>
      </trkpt>
      <trkpt lat="44.77905" lon="6.35968">
        <ele>2575.6</ele>
        <time>2024-08-12T07:42:25Z</time>
      </trkpt>
      <trkpt lat="44.77905" lon="6.35968">
        <ele>2575.8</ele>
        <time>2024-08-12T07:42:26Z</time>
      </trkpt>
      <trkpt lat="44.77905" lon="6.35968">
        <ele>2575.8</ele>
        <time>2024-08-12T07:42:27Z</time>
      </trkpt>
      <trkpt lat="44.77903" lon="6.35966">
        <ele>2575.8</ele>
        <time>2024-08-12T07:42:28Z</time>
      </trkpt>
      <trkpt lat="44.77903" lon="6.35966">
        <ele>2576.2</ele>
        <time>2024-08-12T07:42:29Z</time>
      </trkpt>
      <trkpt lat="44.77901" lon="6.35964">
        <ele>2576.4</ele>
        <time>2024-08-12T07:42:30Z</time>
      </trkpt>
      <trkpt lat="44.77901" lon="6.35964">
        <ele>2576.6</ele>
        <time>2024-08-12T07:42:31Z</time>
      </trkpt>
      <trkpt lat="44.77899" lon="6.35963">
        <ele>2577</ele>
        <time>2024-08-12T07:42:32Z</time>
      </trkpt>
      <trkpt lat="44.77899" lon="6.35963">
        <ele>2577.2</ele>
        <time>2024-08-12T07:42:33Z</time>
      </trkpt>
      <trkpt lat="44.77899" lon="6.35963">
        <ele>2577.4</ele>
        <time>2024-08-12T07:42:34Z</time>
      </trkpt>
      <trkpt lat="44.77899" lon="6.35963">
        <ele>2577.4</ele>
        <time>2024-08-12T07:42:35Z</time>
      </trkpt>
      <trkpt lat="44.77899" lon="6.35963">
        <ele>2578.2</ele>
        <time>2024-08-12T07:42:36Z</time>
      </trkpt>
      <trkpt lat="44.77898" lon="6.35959">
        <ele>2578.4</ele>
        <time>2024-08-12T07:42:37Z</time>
      </trkpt>
      <trkpt lat="44.77898" lon="6.35959">
        <ele>2578.4</ele>
        <time>2024-08-12T07:42:38Z</time>
      </trkpt>
      <trkpt lat="44.77898" lon="6.35959">
        <ele>2578.4</ele>
        <time>2024-08-12T07:42:39Z</time>
      </trkpt>
      <trkpt lat="44.77898" lon="6.35959">
        <ele>2578.4</ele>
        <time>2024-08-12T07:42:40Z</time>
      </trkpt>
      <trkpt lat="44.77897" lon="6.35957">
        <ele>2578.6</ele>
        <time>2024-08-12T07:42:41Z</time>
      </trkpt>
      <trkpt lat="44.77897" lon="6.35957">
        <ele>2578.8</ele>
        <time>2024-08-12T07:42:42Z</time>
      </trkpt>
      <trkpt lat="44.77897" lon="6.35957">
        <ele>2578.8</ele>
        <time>2024-08-12T07:42:43Z</time>
      </trkpt>
      <trkpt lat="44.77897" lon="6.35957">
        <ele>2579</ele>
        <time>2024-08-12T07:42:44Z</time>
      </trkpt>
      <trkpt lat="44.77895" lon="6.35956">
        <ele>2579.6</ele>
        <time>2024-08-12T07:42:45Z</time>
      </trkpt>
      <trkpt lat="44.77895" lon="6.35956">
        <ele>2579.8</ele>
        <time>2024-08-12T07:42:46Z</time>
      </trkpt>
      <trkpt lat="44.77895" lon="6.35956">
        <ele>2580</ele>
        <time>2024-08-12T07:42:47Z</time>
      </trkpt>
      <trkpt lat="44.77893" lon="6.35954">
        <ele>2580</ele>
        <time>2024-08-12T07:42:48Z</time>
      </trkpt>
      <trkpt lat="44.77893" lon="6.35954">
        <ele>2580.4</ele>
        <time>2024-08-12T07:42:49Z</time>
      </trkpt>
      <trkpt lat="44.77893" lon="6.35954">
        <ele>2580.4</ele>
        <time>2024-08-12T07:42:50Z</time>
      </trkpt>
      <trkpt lat="44.77892" lon="6.35955">
        <ele>2580.4</ele>
        <time>2024-08-12T07:42:51Z</time>
      </trkpt>
      <trkpt lat="44.77892" lon="6.35955">
        <ele>2580.4</ele>
        <time>2024-08-12T07:42:52Z</time>
      </trkpt>
      <trkpt lat="44.77892" lon="6.35955">
        <ele>2580.6</ele>
        <time>2024-08-12T07:42:53Z</time>
      </trkpt>
      <trkpt lat="44.77892" lon="6.35955">
        <ele>2580.8</ele>
        <time>2024-08-12T07:42:54Z</time>
      </trkpt>
      <trkpt lat="44.7789" lon="6.35954">
        <ele>2581.2</ele>
        <time>2024-08-12T07:42:55Z</time>
      </trkpt>
      <trkpt lat="44.7789" lon="6.35954">
        <ele>2581.4</ele>
        <time>2024-08-12T07:42:56Z</time>
      </trkpt>
      <trkpt lat="44.7789" lon="6.35954">
        <ele>2581.8</ele>
        <time>2024-08-12T07:42:57Z</time>
      </trkpt>
      <trkpt lat="44.77887" lon="6.35954">
        <ele>2582.2</ele>
        <time>2024-08-12T07:42:58Z</time>
      </trkpt>
      <trkpt lat="44.77887" lon="6.35954">
        <ele>2582.2</ele>
        <time>2024-08-12T07:42:59Z</time>
      </trkpt>
      <trkpt lat="44.77887" lon="6.35954">
        <ele>2582.4</ele>
        <time>2024-08-12T07:43:00Z</time>
      </trkpt>
      <trkpt lat="44.77885" lon="6.35953">
        <ele>2582.6</ele>
        <time>2024-08-12T07:43:01Z</time>
      </trkpt>
      <trkpt lat="44.77885" lon="6.35953">
        <ele>2583.4</ele>
        <time>2024-08-12T07:43:02Z</time>
      </trkpt>
      <trkpt lat="44.77884" lon="6.35952">
        <ele>2583.4</ele>
        <time>2024-08-12T07:43:03Z</time>
      </trkpt>
      <trkpt lat="44.77884" lon="6.35952">
        <ele>2583.2</ele>
        <time>2024-08-12T07:43:04Z</time>
      </trkpt>
      <trkpt lat="44.77884" lon="6.35952">
        <ele>2583.2</ele>
        <time>2024-08-12T07:43:05Z</time>
      </trkpt>
      <trkpt lat="44.77882" lon="6.3595">
        <ele>2583.6</ele>
        <time>2024-08-12T07:43:06Z</time>
      </trkpt>
      <trkpt lat="44.77882" lon="6.3595">
        <ele>2583.8</ele>
        <time>2024-08-12T07:43:07Z</time>
      </trkpt>
      <trkpt lat="44.77882" lon="6.3595">
        <ele>2583.8</ele>
        <time>2024-08-12T07:43:08Z</time>
      </trkpt>
      <trkpt lat="44.77882" lon="6.3595">
        <ele>2584.4</ele>
        <time>2024-08-12T07:43:09Z</time>
      </trkpt>
      <trkpt lat="44.77882" lon="6.3595">
        <ele>2584.4</ele>
        <time>2024-08-12T07:43:10Z</time>
      </trkpt>
      <trkpt lat="44.77882" lon="6.3595">
        <ele>2584.8</ele>
        <time>2024-08-12T07:43:11Z</time>
      </trkpt>
      <trkpt lat="44.77882" lon="6.3595">
        <ele>2585.2</ele>
        <time>2024-08-12T07:43:12Z</time>
      </trkpt>
      <trkpt lat="44.77882" lon="6.3595">
        <ele>2585.4</ele>
        <time>2024-08-12T07:43:13Z</time>
      </trkpt>
      <trkpt lat="44.7788" lon="6.3595">
        <ele>2585.4</ele>
        <time>2024-08-12T07:43:14Z</time>
      </trkpt>
      <trkpt lat="44.7788" lon="6.3595">
        <ele>2585.4</ele>
        <time>2024-08-12T07:43:15Z</time>
      </trkpt>
      <trkpt lat="44.77878" lon="6.3595">
        <ele>2585.2</ele>
        <time>2024-08-12T07:43:16Z</time>
      </trkpt>
      <trkpt lat="44.77878" lon="6.3595">
        <ele>2585.2</ele>
        <time>2024-08-12T07:43:17Z</time>
      </trkpt>
      <trkpt lat="44.77878" lon="6.3595">
        <ele>2585.6</ele>
        <time>2024-08-12T07:43:18Z</time>
      </trkpt>
      <trkpt lat="44.77877" lon="6.35948">
        <ele>2585.6</ele>
        <time>2024-08-12T07:43:19Z</time>
      </trkpt>
      <trkpt lat="44.77877" lon="6.35948">
        <ele>2585.6</ele>
        <time>2024-08-12T07:43:20Z</time>
      </trkpt>
      <trkpt lat="44.77877" lon="6.35948">
        <ele>2586.4</ele>
        <time>2024-08-12T07:43:21Z</time>
      </trkpt>
      <trkpt lat="44.77876" lon="6.35945">
        <ele>2586.4</ele>
        <time>2024-08-12T07:43:22Z</time>
      </trkpt>
      <trkpt lat="44.77876" lon="6.35945">
        <ele>2586.4</ele>
        <time>2024-08-12T07:43:23Z</time>
      </trkpt>
      <trkpt lat="44.77876" lon="6.35945">
        <ele>2586.8</ele>
        <time>2024-08-12T07:43:24Z</time>
      </trkpt>
      <trkpt lat="44.77876" lon="6.35945">
        <ele>2587.2</ele>
        <time>2024-08-12T07:43:25Z</time>
      </trkpt>
      <trkpt lat="44.77874" lon="6.35943">
        <ele>2587.2</ele>
        <time>2024-08-12T07:43:26Z</time>
      </trkpt>
      <trkpt lat="44.77874" lon="6.35943">
        <ele>2587.6</ele>
        <time>2024-08-12T07:43:27Z</time>
      </trkpt>
      <trkpt lat="44.77874" lon="6.35943">
        <ele>2587.8</ele>
        <time>2024-08-12T07:43:28Z</time>
      </trkpt>
      <trkpt lat="44.77872" lon="6.35943">
        <ele>2587.8</ele>
        <time>2024-08-12T07:43:29Z</time>
      </trkpt>
      <trkpt lat="44.77872" lon="6.35943">
        <ele>2588</ele>
        <time>2024-08-12T07:43:30Z</time>
      </trkpt>
      <trkpt lat="44.77872" lon="6.35943">
        <ele>2588.2</ele>
        <time>2024-08-12T07:43:31Z</time>
      </trkpt>
      <trkpt lat="44.77869" lon="6.35942">
        <ele>2588.2</ele>
        <time>2024-08-12T07:43:32Z</time>
      </trkpt>
      <trkpt lat="44.77869" lon="6.35942">
        <ele>2588.4</ele>
        <time>2024-08-12T07:43:33Z</time>
      </trkpt>
      <trkpt lat="44.77869" lon="6.35942">
        <ele>2588.6</ele>
        <time>2024-08-12T07:43:34Z</time>
      </trkpt>
      <trkpt lat="44.77869" lon="6.35942">
        <ele>2588.8</ele>
        <time>2024-08-12T07:43:35Z</time>
      </trkpt>
      <trkpt lat="44.77869" lon="6.35942">
        <ele>2588.8</ele>
        <time>2024-08-12T07:43:36Z</time>
      </trkpt>
      <trkpt lat="44.77869" lon="6.35942">
        <ele>2589.4</ele>
        <time>2024-08-12T07:43:37Z</time>
      </trkpt>
      <trkpt lat="44.77869" lon="6.35942">
        <ele>2589.6</ele>
        <time>2024-08-12T07:43:38Z</time>
      </trkpt>
      <trkpt lat="44.77869" lon="6.35942">
        <ele>2589.6</ele>
        <time>2024-08-12T07:43:39Z</time>
      </trkpt>
      <trkpt lat="44.77869" lon="6.35942">
        <ele>2589.8</ele>
        <time>2024-08-12T07:43:40Z</time>
      </trkpt>
      <trkpt lat="44.77869" lon="6.35942">
        <ele>2589.8</ele>
        <time>2024-08-12T07:43:41Z</time>
      </trkpt>
      <trkpt lat="44.77869" lon="6.35942">
        <ele>2589.8</ele>
        <time>2024-08-12T07:43:42Z</time>
      </trkpt>
      <trkpt lat="44.77869" lon="6.35942">
        <ele>2589.8</ele>
        <time>2024-08-12T07:43:43Z</time>
      </trkpt>
      <trkpt lat="44.77869" lon="6.35942">
        <ele>2589.8</ele>
        <time>2024-08-12T07:43:44Z</time>
      </trkpt>
      <trkpt lat="44.77869" lon="6.35942">
        <ele>2589.8</ele>
        <time>2024-08-12T07:43:45Z</time>
      </trkpt>
      <trkpt lat="44.77868" lon="6.3594">
        <ele>2589.8</ele>
        <time>2024-08-12T07:43:46Z</time>
      </trkpt>
      <trkpt lat="44.77868" lon="6.3594">
        <ele>2590</ele>
        <time>2024-08-12T07:43:47Z</time>
      </trkpt>
      <trkpt lat="44.77868" lon="6.3594">
        <ele>2590.2</ele>
        <time>2024-08-12T07:43:48Z</time>
      </trkpt>
      <trkpt lat="44.77866" lon="6.35939">
        <ele>2590.2</ele>
        <time>2024-08-12T07:43:49Z</time>
      </trkpt>
      <trkpt lat="44.77866" lon="6.35939">
        <ele>2590.2</ele>
        <time>2024-08-12T07:43:50Z</time>
      </trkpt>
      <trkpt lat="44.77864" lon="6.35937">
        <ele>2590.4</ele>
        <time>2024-08-12T07:43:51Z</time>
      </trkpt>
      <trkpt lat="44.77864" lon="6.35937">
        <ele>2590.4</ele>
        <time>2024-08-12T07:43:52Z</time>
      </trkpt>
      <trkpt lat="44.77864" lon="6.35937">
        <ele>2591</ele>
        <time>2024-08-12T07:43:53Z</time>
      </trkpt>
      <trkpt lat="44.77862" lon="6.35937">
        <ele>2591.2</ele>
        <time>2024-08-12T07:43:54Z</time>
      </trkpt>
      <trkpt lat="44.77862" lon="6.35937">
        <ele>2591.2</ele>
        <time>2024-08-12T07:43:55Z</time>
      </trkpt>
      <trkpt lat="44.77862" lon="6.35937">
        <ele>2591.6</ele>
        <time>2024-08-12T07:43:56Z</time>
      </trkpt>
      <trkpt lat="44.7786" lon="6.35936">
        <ele>2591.6</ele>
        <time>2024-08-12T07:43:57Z</time>
      </trkpt>
      <trkpt lat="44.7786" lon="6.35936">
        <ele>2592</ele>
        <time>2024-08-12T07:43:58Z</time>
      </trkpt>
      <trkpt lat="44.7786" lon="6.35936">
        <ele>2592</ele>
        <time>2024-08-12T07:43:59Z</time>
      </trkpt>
      <trkpt lat="44.7786" lon="6.35936">
        <ele>2592.2</ele>
        <time>2024-08-12T07:44:00Z</time>
      </trkpt>
      <trkpt lat="44.77858" lon="6.35935">
        <ele>2592.8</ele>
        <time>2024-08-12T07:44:01Z</time>
      </trkpt>
      <trkpt lat="44.77858" lon="6.35935">
        <ele>2592.4</ele>
        <time>2024-08-12T07:44:02Z</time>
      </trkpt>
      <trkpt lat="44.77858" lon="6.35935">
        <ele>2592.6</ele>
        <time>2024-08-12T07:44:03Z</time>
      </trkpt>
      <trkpt lat="44.77856" lon="6.35935">
        <ele>2592.6</ele>
        <time>2024-08-12T07:44:04Z</time>
      </trkpt>
      <trkpt lat="44.77856" lon="6.35935">
        <ele>2593.2</ele>
        <time>2024-08-12T07:44:05Z</time>
      </trkpt>
      <trkpt lat="44.77856" lon="6.35935">
        <ele>2593.4</ele>
        <time>2024-08-12T07:44:06Z</time>
      </trkpt>
      <trkpt lat="44.77853" lon="6.35933">
        <ele>2593.4</ele>
        <time>2024-08-12T07:44:07Z</time>
      </trkpt>
      <trkpt lat="44.77853" lon="6.35933">
        <ele>2593.4</ele>
        <time>2024-08-12T07:44:08Z</time>
      </trkpt>
      <trkpt lat="44.77852" lon="6.35932">
        <ele>2593.4</ele>
        <time>2024-08-12T07:44:09Z</time>
      </trkpt>
      <trkpt lat="44.77852" lon="6.35932">
        <ele>2593.4</ele>
        <time>2024-08-12T07:44:10Z</time>
      </trkpt>
      <trkpt lat="44.77852" lon="6.35932">
        <ele>2593.6</ele>
        <time>2024-08-12T07:44:11Z</time>
      </trkpt>
      <trkpt lat="44.77849" lon="6.35931">
        <ele>2593.6</ele>
        <time>2024-08-12T07:44:12Z</time>
      </trkpt>
      <trkpt lat="44.77849" lon="6.35931">
        <ele>2594</ele>
        <time>2024-08-12T07:44:13Z</time>
      </trkpt>
      <trkpt lat="44.77849" lon="6.35931">
        <ele>2594</ele>
        <time>2024-08-12T07:44:14Z</time>
      </trkpt>
      <trkpt lat="44.77847" lon="6.3593">
        <ele>2594.2</ele>
        <time>2024-08-12T07:44:15Z</time>
      </trkpt>
      <trkpt lat="44.77847" lon="6.3593">
        <ele>2594.4</ele>
        <time>2024-08-12T07:44:16Z</time>
      </trkpt>
      <trkpt lat="44.77847" lon="6.3593">
        <ele>2594.6</ele>
        <time>2024-08-12T07:44:17Z</time>
      </trkpt>
      <trkpt lat="44.77845" lon="6.35929">
        <ele>2594.6</ele>
        <time>2024-08-12T07:44:18Z</time>
      </trkpt>
      <trkpt lat="44.77845" lon="6.35929">
        <ele>2594.8</ele>
        <time>2024-08-12T07:44:19Z</time>
      </trkpt>
      <trkpt lat="44.77845" lon="6.35929">
        <ele>2594.8</ele>
        <time>2024-08-12T07:44:20Z</time>
      </trkpt>
      <trkpt lat="44.77842" lon="6.35928">
        <ele>2595</ele>
        <time>2024-08-12T07:44:21Z</time>
      </trkpt>
      <trkpt lat="44.77842" lon="6.35928">
        <ele>2595.6</ele>
        <time>2024-08-12T07:44:22Z</time>
      </trkpt>
      <trkpt lat="44.7784" lon="6.35927">
        <ele>2595.6</ele>
        <time>2024-08-12T07:44:23Z</time>
      </trkpt>
      <trkpt lat="44.7784" lon="6.35927">
        <ele>2595.8</ele>
        <time>2024-08-12T07:44:24Z</time>
      </trkpt>
      <trkpt lat="44.7784" lon="6.35927">
        <ele>2596</ele>
        <time>2024-08-12T07:44:25Z</time>
      </trkpt>
      <trkpt lat="44.77838" lon="6.35926">
        <ele>2596</ele>
        <time>2024-08-12T07:44:26Z</time>
      </trkpt>
      <trkpt lat="44.77838" lon="6.35926">
        <ele>2596</ele>
        <time>2024-08-12T07:44:27Z</time>
      </trkpt>
      <trkpt lat="44.77838" lon="6.35926">
        <ele>2596</ele>
        <time>2024-08-12T07:44:28Z</time>
      </trkpt>
      <trkpt lat="44.77838" lon="6.35926">
        <ele>2596.4</ele>
        <time>2024-08-12T07:44:29Z</time>
      </trkpt>
      <trkpt lat="44.77838" lon="6.35926">
        <ele>2597</ele>
        <time>2024-08-12T07:44:30Z</time>
      </trkpt>
      <trkpt lat="44.77838" lon="6.35926">
        <ele>2597</ele>
        <time>2024-08-12T07:44:31Z</time>
      </trkpt>
      <trkpt lat="44.77838" lon="6.35926">
        <ele>2597</ele>
        <time>2024-08-12T07:44:32Z</time>
      </trkpt>
      <trkpt lat="44.77838" lon="6.35926">
        <ele>2597</ele>
        <time>2024-08-12T07:44:33Z</time>
      </trkpt>
      <trkpt lat="44.77838" lon="6.35926">
        <ele>2597</ele>
        <time>2024-08-12T07:44:34Z</time>
      </trkpt>
      <trkpt lat="44.77838" lon="6.35926">
        <ele>2596.8</ele>
        <time>2024-08-12T07:44:35Z</time>
      </trkpt>
      <trkpt lat="44.77838" lon="6.35926">
        <ele>2596.6</ele>
        <time>2024-08-12T07:44:36Z</time>
      </trkpt>
      <trkpt lat="44.77838" lon="6.35926">
        <ele>2596.4</ele>
        <time>2024-08-12T07:44:37Z</time>
      </trkpt>
      <trkpt lat="44.77838" lon="6.35926">
        <ele>2596.4</ele>
        <time>2024-08-12T07:44:38Z</time>
      </trkpt>
      <trkpt lat="44.77838" lon="6.35926">
        <ele>2596.4</ele>
        <time>2024-08-12T07:44:39Z</time>
      </trkpt>
      <trkpt lat="44.77838" lon="6.35926">
        <ele>2596.4</ele>
        <time>2024-08-12T07:44:40Z</time>
      </trkpt>
      <trkpt lat="44.77838" lon="6.35926">
        <ele>2596.6</ele>
        <time>2024-08-12T07:44:41Z</time>
      </trkpt>
      <trkpt lat="44.77838" lon="6.35926">
        <ele>2597</ele>
        <time>2024-08-12T07:44:42Z</time>
      </trkpt>
      <trkpt lat="44.77838" lon="6.35926">
        <ele>2597</ele>
        <time>2024-08-12T07:44:43Z</time>
      </trkpt>
      <trkpt lat="44.77838" lon="6.35926">
        <ele>2597.2</ele>
        <time>2024-08-12T07:44:44Z</time>
      </trkpt>
      <trkpt lat="44.77838" lon="6.35926">
        <ele>2597.2</ele>
        <time>2024-08-12T07:44:45Z</time>
      </trkpt>
      <trkpt lat="44.77838" lon="6.35926">
        <ele>2597</ele>
        <time>2024-08-12T07:44:46Z</time>
      </trkpt>
      <trkpt lat="44.77838" lon="6.35926">
        <ele>2597</ele>
        <time>2024-08-12T07:44:47Z</time>
      </trkpt>
      <trkpt lat="44.77838" lon="6.35926">
        <ele>2597</ele>
        <time>2024-08-12T07:44:48Z</time>
      </trkpt>
      <trkpt lat="44.77838" lon="6.35926">
        <ele>2597</ele>
        <time>2024-08-12T07:44:49Z</time>
      </trkpt>
      <trkpt lat="44.77838" lon="6.35926">
        <ele>2597</ele>
        <time>2024-08-12T07:44:50Z</time>
      </trkpt>
      <trkpt lat="44.77838" lon="6.35926">
        <ele>2597</ele>
        <time>2024-08-12T07:44:51Z</time>
      </trkpt>
      <trkpt lat="44.77838" lon="6.35926">
        <ele>2597.4</ele>
        <time>2024-08-12T07:44:52Z</time>
      </trkpt>
      <trkpt lat="44.77838" lon="6.35926">
        <ele>2597.6</ele>
        <time>2024-08-12T07:44:53Z</time>
      </trkpt>
      <trkpt lat="44.77838" lon="6.35926">
        <ele>2597.8</ele>
        <time>2024-08-12T07:44:54Z</time>
      </trkpt>
      <trkpt lat="44.77838" lon="6.35926">
        <ele>2597.8</ele>
        <time>2024-08-12T07:44:55Z</time>
      </trkpt>
      <trkpt lat="44.77838" lon="6.35926">
        <ele>2597.4</ele>
        <time>2024-08-12T07:44:56Z</time>
      </trkpt>
      <trkpt lat="44.77838" lon="6.35926">
        <ele>2597.4</ele>
        <time>2024-08-12T07:44:57Z</time>
      </trkpt>
      <trkpt lat="44.77838" lon="6.35926">
        <ele>2597.2</ele>
        <time>2024-08-12T07:44:58Z</time>
      </trkpt>
      <trkpt lat="44.77838" lon="6.35926">
        <ele>2597.2</ele>
        <time>2024-08-12T07:44:59Z</time>
      </trkpt>
      <trkpt lat="44.77838" lon="6.35926">
        <ele>2597.2</ele>
        <time>2024-08-12T07:45:00Z</time>
      </trkpt>
      <trkpt lat="44.77838" lon="6.35926">
        <ele>2597.2</ele>
        <time>2024-08-12T07:45:01Z</time>
      </trkpt>
      <trkpt lat="44.77838" lon="6.35926">
        <ele>2597.4</ele>
        <time>2024-08-12T07:45:02Z</time>
      </trkpt>
      <trkpt lat="44.77838" lon="6.35926">
        <ele>2597.4</ele>
        <time>2024-08-12T07:45:03Z</time>
      </trkpt>
      <trkpt lat="44.77838" lon="6.35926">
        <ele>2597.4</ele>
        <time>2024-08-12T07:45:04Z</time>
      </trkpt>
      <trkpt lat="44.77838" lon="6.35926">
        <ele>2597.6</ele>
        <time>2024-08-12T07:45:05Z</time>
      </trkpt>
      <trkpt lat="44.77838" lon="6.35926">
        <ele>2597.6</ele>
        <time>2024-08-12T07:45:06Z</time>
      </trkpt>
      <trkpt lat="44.77838" lon="6.35926">
        <ele>2597.6</ele>
        <time>2024-08-12T07:45:07Z</time>
      </trkpt>
      <trkpt lat="44.77838" lon="6.35926">
        <ele>2597.6</ele>
        <time>2024-08-12T07:45:08Z</time>
      </trkpt>
      <trkpt lat="44.77838" lon="6.35926">
        <ele>2597.6</ele>
        <time>2024-08-12T07:45:09Z</time>
      </trkpt>
      <trkpt lat="44.77838" lon="6.35926">
        <ele>2597.6</ele>
        <time>2024-08-12T07:45:10Z</time>
      </trkpt>
      <trkpt lat="44.77838" lon="6.35926">
        <ele>2597.6</ele>
        <time>2024-08-12T07:45:11Z</time>
      </trkpt>
      <trkpt lat="44.77838" lon="6.35926">
        <ele>2598</ele>
        <time>2024-08-12T07:45:12Z</time>
      </trkpt>
      <trkpt lat="44.77838" lon="6.35926">
        <ele>2598.2</ele>
        <time>2024-08-12T07:45:13Z</time>
      </trkpt>
      <trkpt lat="44.77838" lon="6.35926">
        <ele>2598.2</ele>
        <time>2024-08-12T07:45:14Z</time>
      </trkpt>
      <trkpt lat="44.77838" lon="6.35926">
        <ele>2598.2</ele>
        <time>2024-08-12T07:45:15Z</time>
      </trkpt>
      <trkpt lat="44.77838" lon="6.35926">
        <ele>2598</ele>
        <time>2024-08-12T07:45:16Z</time>
      </trkpt>
      <trkpt lat="44.77838" lon="6.35926">
        <ele>2598</ele>
        <time>2024-08-12T07:45:17Z</time>
      </trkpt>
      <trkpt lat="44.77838" lon="6.35926">
        <ele>2598</ele>
        <time>2024-08-12T07:45:18Z</time>
      </trkpt>
      <trkpt lat="44.77838" lon="6.35926">
        <ele>2597.8</ele>
        <time>2024-08-12T07:45:19Z</time>
      </trkpt>
      <trkpt lat="44.77838" lon="6.35926">
        <ele>2597.8</ele>
        <time>2024-08-12T07:45:20Z</time>
      </trkpt>
      <trkpt lat="44.77838" lon="6.35926">
        <ele>2597.8</ele>
        <time>2024-08-12T07:45:21Z</time>
      </trkpt>
      <trkpt lat="44.77838" lon="6.35926">
        <ele>2598</ele>
        <time>2024-08-12T07:45:22Z</time>
      </trkpt>
      <trkpt lat="44.77838" lon="6.35926">
        <ele>2598.2</ele>
        <time>2024-08-12T07:45:23Z</time>
      </trkpt>
      <trkpt lat="44.77838" lon="6.35926">
        <ele>2598.2</ele>
        <time>2024-08-12T07:45:24Z</time>
      </trkpt>
      <trkpt lat="44.77838" lon="6.35926">
        <ele>2598.2</ele>
        <time>2024-08-12T07:45:25Z</time>
      </trkpt>
      <trkpt lat="44.77838" lon="6.35926">
        <ele>2598.4</ele>
        <time>2024-08-12T07:45:26Z</time>
      </trkpt>
      <trkpt lat="44.77838" lon="6.35926">
        <ele>2598.4</ele>
        <time>2024-08-12T07:45:27Z</time>
      </trkpt>
      <trkpt lat="44.77838" lon="6.35926">
        <ele>2598.4</ele>
        <time>2024-08-12T07:45:28Z</time>
      </trkpt>
      <trkpt lat="44.77838" lon="6.35926">
        <ele>2598.2</ele>
        <time>2024-08-12T07:45:29Z</time>
      </trkpt>
      <trkpt lat="44.77838" lon="6.35926">
        <ele>2598.2</ele>
        <time>2024-08-12T07:45:30Z</time>
      </trkpt>
      <trkpt lat="44.77838" lon="6.35926">
        <ele>2598</ele>
        <time>2024-08-12T07:45:31Z</time>
      </trkpt>
      <trkpt lat="44.77838" lon="6.35926">
        <ele>2598</ele>
        <time>2024-08-12T07:45:32Z</time>
      </trkpt>
      <trkpt lat="44.77838" lon="6.35926">
        <ele>2598</ele>
        <time>2024-08-12T07:45:33Z</time>
      </trkpt>
      <trkpt lat="44.77838" lon="6.35926">
        <ele>2598.2</ele>
        <time>2024-08-12T07:45:34Z</time>
      </trkpt>
      <trkpt lat="44.77838" lon="6.35926">
        <ele>2598.4</ele>
        <time>2024-08-12T07:45:35Z</time>
      </trkpt>
      <trkpt lat="44.77838" lon="6.35926">
        <ele>2598.4</ele>
        <time>2024-08-12T07:45:36Z</time>
      </trkpt>
      <trkpt lat="44.77838" lon="6.35926">
        <ele>2598.4</ele>
        <time>2024-08-12T07:45:37Z</time>
      </trkpt>
      <trkpt lat="44.77838" lon="6.35926">
        <ele>2598.2</ele>
        <time>2024-08-12T07:45:38Z</time>
      </trkpt>
      <trkpt lat="44.77838" lon="6.35926">
        <ele>2598.2</ele>
        <time>2024-08-12T07:45:39Z</time>
      </trkpt>
      <trkpt lat="44.77838" lon="6.35926">
        <ele>2598.4</ele>
        <time>2024-08-12T07:45:40Z</time>
      </trkpt>
      <trkpt lat="44.77838" lon="6.35926">
        <ele>2598.6</ele>
        <time>2024-08-12T07:45:41Z</time>
      </trkpt>
      <trkpt lat="44.77838" lon="6.35926">
        <ele>2598.6</ele>
        <time>2024-08-12T07:45:42Z</time>
      </trkpt>
      <trkpt lat="44.77838" lon="6.35926">
        <ele>2598.6</ele>
        <time>2024-08-12T07:45:43Z</time>
      </trkpt>
      <trkpt lat="44.77838" lon="6.35926">
        <ele>2598.8</ele>
        <time>2024-08-12T07:45:44Z</time>
      </trkpt>
      <trkpt lat="44.77838" lon="6.35926">
        <ele>2598.8</ele>
        <time>2024-08-12T07:45:45Z</time>
      </trkpt>
      <trkpt lat="44.77838" lon="6.35926">
        <ele>2598.8</ele>
        <time>2024-08-12T07:45:46Z</time>
      </trkpt>
      <trkpt lat="44.77838" lon="6.35926">
        <ele>2598.8</ele>
        <time>2024-08-12T07:45:47Z</time>
      </trkpt>
      <trkpt lat="44.77838" lon="6.35926">
        <ele>2599</ele>
        <time>2024-08-12T07:45:48Z</time>
      </trkpt>
      <trkpt lat="44.77838" lon="6.35926">
        <ele>2599</ele>
        <time>2024-08-12T07:45:49Z</time>
      </trkpt>
      <trkpt lat="44.77838" lon="6.35926">
        <ele>2598.6</ele>
        <time>2024-08-12T07:45:50Z</time>
      </trkpt>
      <trkpt lat="44.77838" lon="6.35926">
        <ele>2598.4</ele>
        <time>2024-08-12T07:45:51Z</time>
      </trkpt>
      <trkpt lat="44.77838" lon="6.35926">
        <ele>2598.4</ele>
        <time>2024-08-12T07:45:52Z</time>
      </trkpt>
      <trkpt lat="44.77838" lon="6.35926">
        <ele>2598.6</ele>
        <time>2024-08-12T07:45:53Z</time>
      </trkpt>
      <trkpt lat="44.77838" lon="6.35926">
        <ele>2598.6</ele>
        <time>2024-08-12T07:45:54Z</time>
      </trkpt>
      <trkpt lat="44.77838" lon="6.35926">
        <ele>2599</ele>
        <time>2024-08-12T07:45:55Z</time>
      </trkpt>
      <trkpt lat="44.77838" lon="6.35926">
        <ele>2599</ele>
        <time>2024-08-12T07:45:56Z</time>
      </trkpt>
      <trkpt lat="44.77838" lon="6.35926">
        <ele>2598.6</ele>
        <time>2024-08-12T07:45:57Z</time>
      </trkpt>
      <trkpt lat="44.77838" lon="6.35926">
        <ele>2598</ele>
        <time>2024-08-12T07:45:58Z</time>
      </trkpt>
      <trkpt lat="44.77838" lon="6.35926">
        <ele>2598</ele>
        <time>2024-08-12T07:45:59Z</time>
      </trkpt>
      <trkpt lat="44.77838" lon="6.35926">
        <ele>2598</ele>
        <time>2024-08-12T07:46:00Z</time>
      </trkpt>
      <trkpt lat="44.77836" lon="6.35924">
        <ele>2598.2</ele>
        <time>2024-08-12T07:46:01Z</time>
      </trkpt>
      <trkpt lat="44.77836" lon="6.35924">
        <ele>2598.8</ele>
        <time>2024-08-12T07:46:02Z</time>
      </trkpt>
      <trkpt lat="44.77834" lon="6.35923">
        <ele>2598.8</ele>
        <time>2024-08-12T07:46:03Z</time>
      </trkpt>
      <trkpt lat="44.77834" lon="6.35923">
        <ele>2599.2</ele>
        <time>2024-08-12T07:46:04Z</time>
      </trkpt>
      <trkpt lat="44.77832" lon="6.35921">
        <ele>2599.2</ele>
        <time>2024-08-12T07:46:05Z</time>
      </trkpt>
      <trkpt lat="44.77832" lon="6.35921">
        <ele>2599.2</ele>
        <time>2024-08-12T07:46:06Z</time>
      </trkpt>
      <trkpt lat="44.7783" lon="6.3592">
        <ele>2599.4</ele>
        <time>2024-08-12T07:46:07Z</time>
      </trkpt>
      <trkpt lat="44.7783" lon="6.3592">
        <ele>2599.4</ele>
        <time>2024-08-12T07:46:08Z</time>
      </trkpt>
      <trkpt lat="44.77828" lon="6.35918">
        <ele>2599.6</ele>
        <time>2024-08-12T07:46:09Z</time>
      </trkpt>
      <trkpt lat="44.77828" lon="6.35918">
        <ele>2599.8</ele>
        <time>2024-08-12T07:46:10Z</time>
      </trkpt>
      <trkpt lat="44.77828" lon="6.35918">
        <ele>2600</ele>
        <time>2024-08-12T07:46:11Z</time>
      </trkpt>
      <trkpt lat="44.77826" lon="6.35916">
        <ele>2600.2</ele>
        <time>2024-08-12T07:46:12Z</time>
      </trkpt>
      <trkpt lat="44.77826" lon="6.35916">
        <ele>2600.6</ele>
        <time>2024-08-12T07:46:13Z</time>
      </trkpt>
      <trkpt lat="44.77824" lon="6.35915">
        <ele>2600.6</ele>
        <time>2024-08-12T07:46:14Z</time>
      </trkpt>
      <trkpt lat="44.77824" lon="6.35915">
        <ele>2600.6</ele>
        <time>2024-08-12T07:46:15Z</time>
      </trkpt>
      <trkpt lat="44.77822" lon="6.35913">
        <ele>2600.6</ele>
        <time>2024-08-12T07:46:16Z</time>
      </trkpt>
      <trkpt lat="44.77822" lon="6.35913">
        <ele>2600.8</ele>
        <time>2024-08-12T07:46:17Z</time>
      </trkpt>
      <trkpt lat="44.7782" lon="6.35912">
        <ele>2600.8</ele>
        <time>2024-08-12T07:46:18Z</time>
      </trkpt>
      <trkpt lat="44.7782" lon="6.35912">
        <ele>2600.8</ele>
        <time>2024-08-12T07:46:19Z</time>
      </trkpt>
      <trkpt lat="44.77818" lon="6.35911">
        <ele>2601</ele>
        <time>2024-08-12T07:46:20Z</time>
      </trkpt>
      <trkpt lat="44.77818" lon="6.35911">
        <ele>2601.2</ele>
        <time>2024-08-12T07:46:21Z</time>
      </trkpt>
      <trkpt lat="44.77816" lon="6.35912">
        <ele>2601.2</ele>
        <time>2024-08-12T07:46:22Z</time>
      </trkpt>
      <trkpt lat="44.77816" lon="6.35912">
        <ele>2601</ele>
        <time>2024-08-12T07:46:23Z</time>
      </trkpt>
      <trkpt lat="44.77816" lon="6.35912">
        <ele>2601</ele>
        <time>2024-08-12T07:46:24Z</time>
      </trkpt>
      <trkpt lat="44.77814" lon="6.35912">
        <ele>2601</ele>
        <time>2024-08-12T07:46:25Z</time>
      </trkpt>
      <trkpt lat="44.77814" lon="6.35912">
        <ele>2601</ele>
        <time>2024-08-12T07:46:26Z</time>
      </trkpt>
      <trkpt lat="44.77814" lon="6.35912">
        <ele>2601</ele>
        <time>2024-08-12T07:46:27Z</time>
      </trkpt>
      <trkpt lat="44.77812" lon="6.35912">
        <ele>2601.2</ele>
        <time>2024-08-12T07:46:28Z</time>
      </trkpt>
      <trkpt lat="44.77812" lon="6.35912">
        <ele>2601.6</ele>
        <time>2024-08-12T07:46:29Z</time>
      </trkpt>
      <trkpt lat="44.77812" lon="6.35912">
        <ele>2601.8</ele>
        <time>2024-08-12T07:46:30Z</time>
      </trkpt>
      <trkpt lat="44.7781" lon="6.35911">
        <ele>2602.2</ele>
        <time>2024-08-12T07:46:31Z</time>
      </trkpt>
      <trkpt lat="44.7781" lon="6.35911">
        <ele>2602.6</ele>
        <time>2024-08-12T07:46:32Z</time>
      </trkpt>
      <trkpt lat="44.7781" lon="6.35911">
        <ele>2602.6</ele>
        <time>2024-08-12T07:46:33Z</time>
      </trkpt>
      <trkpt lat="44.77808" lon="6.35912">
        <ele>2602.8</ele>
        <time>2024-08-12T07:46:34Z</time>
      </trkpt>
      <trkpt lat="44.77808" lon="6.35912">
        <ele>2603.2</ele>
        <time>2024-08-12T07:46:35Z</time>
      </trkpt>
      <trkpt lat="44.77808" lon="6.35912">
        <ele>2603.2</ele>
        <time>2024-08-12T07:46:36Z</time>
      </trkpt>
      <trkpt lat="44.77806" lon="6.3591">
        <ele>2603.6</ele>
        <time>2024-08-12T07:46:37Z</time>
      </trkpt>
      <trkpt lat="44.77806" lon="6.3591">
        <ele>2604</ele>
        <time>2024-08-12T07:46:38Z</time>
      </trkpt>
      <trkpt lat="44.77806" lon="6.3591">
        <ele>2604.2</ele>
        <time>2024-08-12T07:46:39Z</time>
      </trkpt>
      <trkpt lat="44.77806" lon="6.35908">
        <ele>2604.4</ele>
        <time>2024-08-12T07:46:40Z</time>
      </trkpt>
      <trkpt lat="44.77806" lon="6.35908">
        <ele>2604.8</ele>
        <time>2024-08-12T07:46:41Z</time>
      </trkpt>
      <trkpt lat="44.77806" lon="6.35908">
        <ele>2604.8</ele>
        <time>2024-08-12T07:46:42Z</time>
      </trkpt>
      <trkpt lat="44.77806" lon="6.35908">
        <ele>2604.8</ele>
        <time>2024-08-12T07:46:43Z</time>
      </trkpt>
      <trkpt lat="44.77806" lon="6.35908">
        <ele>2604.8</ele>
        <time>2024-08-12T07:46:44Z</time>
      </trkpt>
      <trkpt lat="44.77805" lon="6.35906">
        <ele>2605</ele>
        <time>2024-08-12T07:46:45Z</time>
      </trkpt>
      <trkpt lat="44.77805" lon="6.35906">
        <ele>2605.2</ele>
        <time>2024-08-12T07:46:46Z</time>
      </trkpt>
      <trkpt lat="44.77805" lon="6.35906">
        <ele>2605.6</ele>
        <time>2024-08-12T07:46:47Z</time>
      </trkpt>
      <trkpt lat="44.77803" lon="6.35906">
        <ele>2605.8</ele>
        <time>2024-08-12T07:46:48Z</time>
      </trkpt>
      <trkpt lat="44.77803" lon="6.35906">
        <ele>2605.8</ele>
        <time>2024-08-12T07:46:49Z</time>
      </trkpt>
      <trkpt lat="44.77803" lon="6.35906">
        <ele>2605.8</ele>
        <time>2024-08-12T07:46:50Z</time>
      </trkpt>
      <trkpt lat="44.77801" lon="6.35906">
        <ele>2606.4</ele>
        <time>2024-08-12T07:46:51Z</time>
      </trkpt>
      <trkpt lat="44.77801" lon="6.35906">
        <ele>2606.4</ele>
        <time>2024-08-12T07:46:52Z</time>
      </trkpt>
      <trkpt lat="44.77801" lon="6.35906">
        <ele>2606.6</ele>
        <time>2024-08-12T07:46:53Z</time>
      </trkpt>
      <trkpt lat="44.77801" lon="6.35906">
        <ele>2606.8</ele>
        <time>2024-08-12T07:46:54Z</time>
      </trkpt>
      <trkpt lat="44.77799" lon="6.35904">
        <ele>2607.2</ele>
        <time>2024-08-12T07:46:55Z</time>
      </trkpt>
      <trkpt lat="44.77799" lon="6.35904">
        <ele>2607.2</ele>
        <time>2024-08-12T07:46:56Z</time>
      </trkpt>
      <trkpt lat="44.77799" lon="6.35904">
        <ele>2607.4</ele>
        <time>2024-08-12T07:46:57Z</time>
      </trkpt>
      <trkpt lat="44.77799" lon="6.35901">
        <ele>2607.6</ele>
        <time>2024-08-12T07:46:58Z</time>
      </trkpt>
      <trkpt lat="44.77799" lon="6.35901">
        <ele>2607.8</ele>
        <time>2024-08-12T07:46:59Z</time>
      </trkpt>
      <trkpt lat="44.77799" lon="6.35901">
        <ele>2608</ele>
        <time>2024-08-12T07:47:00Z</time>
      </trkpt>
      <trkpt lat="44.77799" lon="6.35901">
        <ele>2608</ele>
        <time>2024-08-12T07:47:01Z</time>
      </trkpt>
      <trkpt lat="44.77797" lon="6.359">
        <ele>2608.4</ele>
        <time>2024-08-12T07:47:02Z</time>
      </trkpt>
      <trkpt lat="44.77797" lon="6.359">
        <ele>2608.4</ele>
        <time>2024-08-12T07:47:03Z</time>
      </trkpt>
      <trkpt lat="44.77797" lon="6.359">
        <ele>2608.4</ele>
        <time>2024-08-12T07:47:04Z</time>
      </trkpt>
      <trkpt lat="44.77797" lon="6.359">
        <ele>2608.6</ele>
        <time>2024-08-12T07:47:05Z</time>
      </trkpt>
      <trkpt lat="44.77795" lon="6.35899">
        <ele>2609.2</ele>
        <time>2024-08-12T07:47:06Z</time>
      </trkpt>
      <trkpt lat="44.77795" lon="6.35899">
        <ele>2609.2</ele>
        <time>2024-08-12T07:47:07Z</time>
      </trkpt>
      <trkpt lat="44.77795" lon="6.35899">
        <ele>2609.6</ele>
        <time>2024-08-12T07:47:08Z</time>
      </trkpt>
      <trkpt lat="44.77795" lon="6.35899">
        <ele>2609.8</ele>
        <time>2024-08-12T07:47:09Z</time>
      </trkpt>
      <trkpt lat="44.77795" lon="6.35899">
        <ele>2609.8</ele>
        <time>2024-08-12T07:47:10Z</time>
      </trkpt>
      <trkpt lat="44.77793" lon="6.35897">
        <ele>2609.8</ele>
        <time>2024-08-12T07:47:11Z</time>
      </trkpt>
      <trkpt lat="44.77793" lon="6.35897">
        <ele>2610.2</ele>
        <time>2024-08-12T07:47:12Z</time>
      </trkpt>
      <trkpt lat="44.77793" lon="6.35897">
        <ele>2610.4</ele>
        <time>2024-08-12T07:47:13Z</time>
      </trkpt>
      <trkpt lat="44.77793" lon="6.35897">
        <ele>2610.8</ele>
        <time>2024-08-12T07:47:14Z</time>
      </trkpt>
      <trkpt lat="44.7779" lon="6.35896">
        <ele>2610.8</ele>
        <time>2024-08-12T07:47:15Z</time>
      </trkpt>
      <trkpt lat="44.7779" lon="6.35896">
        <ele>2611</ele>
        <time>2024-08-12T07:47:16Z</time>
      </trkpt>
      <trkpt lat="44.7779" lon="6.35896">
        <ele>2611.4</ele>
        <time>2024-08-12T07:47:17Z</time>
      </trkpt>
      <trkpt lat="44.7779" lon="6.35896">
        <ele>2611.6</ele>
        <time>2024-08-12T07:47:18Z</time>
      </trkpt>
      <trkpt lat="44.7779" lon="6.35896">
        <ele>2612.2</ele>
        <time>2024-08-12T07:47:19Z</time>
      </trkpt>
      <trkpt lat="44.77788" lon="6.35895">
        <ele>2612.2</ele>
        <time>2024-08-12T07:47:20Z</time>
      </trkpt>
      <trkpt lat="44.77788" lon="6.35895">
        <ele>2612.2</ele>
        <time>2024-08-12T07:47:21Z</time>
      </trkpt>
      <trkpt lat="44.77788" lon="6.35895">
        <ele>2612.2</ele>
        <time>2024-08-12T07:47:22Z</time>
      </trkpt>
      <trkpt lat="44.77786" lon="6.35895">
        <ele>2612.2</ele>
        <time>2024-08-12T07:47:23Z</time>
      </trkpt>
      <trkpt lat="44.77786" lon="6.35895">
        <ele>2612.4</ele>
        <time>2024-08-12T07:47:24Z</time>
      </trkpt>
      <trkpt lat="44.77784" lon="6.35895">
        <ele>2612.4</ele>
        <time>2024-08-12T07:47:25Z</time>
      </trkpt>
      <trkpt lat="44.77784" lon="6.35895">
        <ele>2612.6</ele>
        <time>2024-08-12T07:47:26Z</time>
      </trkpt>
      <trkpt lat="44.77784" lon="6.35895">
        <ele>2612.6</ele>
        <time>2024-08-12T07:47:27Z</time>
      </trkpt>
      <trkpt lat="44.77783" lon="6.35894">
        <ele>2613.2</ele>
        <time>2024-08-12T07:47:28Z</time>
      </trkpt>
      <trkpt lat="44.77783" lon="6.35894">
        <ele>2613.4</ele>
        <time>2024-08-12T07:47:29Z</time>
      </trkpt>
      <trkpt lat="44.77783" lon="6.35894">
        <ele>2613.4</ele>
        <time>2024-08-12T07:47:30Z</time>
      </trkpt>
      <trkpt lat="44.77782" lon="6.35892">
        <ele>2613.4</ele>
        <time>2024-08-12T07:47:31Z</time>
      </trkpt>
      <trkpt lat="44.77782" lon="6.35892">
        <ele>2613.8</ele>
        <time>2024-08-12T07:47:32Z</time>
      </trkpt>
      <trkpt lat="44.77782" lon="6.35892">
        <ele>2614</ele>
        <time>2024-08-12T07:47:33Z</time>
      </trkpt>
      <trkpt lat="44.7778" lon="6.3589">
        <ele>2614</ele>
        <time>2024-08-12T07:47:34Z</time>
      </trkpt>
      <trkpt lat="44.7778" lon="6.3589">
        <ele>2614</ele>
        <time>2024-08-12T07:47:35Z</time>
      </trkpt>
      <trkpt lat="44.77779" lon="6.35888">
        <ele>2614</ele>
        <time>2024-08-12T07:47:36Z</time>
      </trkpt>
      <trkpt lat="44.77779" lon="6.35888">
        <ele>2614.2</ele>
        <time>2024-08-12T07:47:37Z</time>
      </trkpt>
      <trkpt lat="44.77779" lon="6.35888">
        <ele>2614.2</ele>
        <time>2024-08-12T07:47:38Z</time>
      </trkpt>
      <trkpt lat="44.77779" lon="6.35888">
        <ele>2614.4</ele>
        <time>2024-08-12T07:47:39Z</time>
      </trkpt>
      <trkpt lat="44.77777" lon="6.35886">
        <ele>2615</ele>
        <time>2024-08-12T07:47:40Z</time>
      </trkpt>
      <trkpt lat="44.77777" lon="6.35886">
        <ele>2615</ele>
        <time>2024-08-12T07:47:41Z</time>
      </trkpt>
      <trkpt lat="44.77777" lon="6.35886">
        <ele>2615.2</ele>
        <time>2024-08-12T07:47:42Z</time>
      </trkpt>
      <trkpt lat="44.77775" lon="6.35887">
        <ele>2615.2</ele>
        <time>2024-08-12T07:47:43Z</time>
      </trkpt>
      <trkpt lat="44.77775" lon="6.35887">
        <ele>2615.2</ele>
        <time>2024-08-12T07:47:44Z</time>
      </trkpt>
      <trkpt lat="44.77775" lon="6.35887">
        <ele>2614.8</ele>
        <time>2024-08-12T07:47:45Z</time>
      </trkpt>
      <trkpt lat="44.77773" lon="6.35886">
        <ele>2614.8</ele>
        <time>2024-08-12T07:47:46Z</time>
      </trkpt>
      <trkpt lat="44.77773" lon="6.35886">
        <ele>2614.8</ele>
        <time>2024-08-12T07:47:47Z</time>
      </trkpt>
      <trkpt lat="44.77773" lon="6.35886">
        <ele>2614.8</ele>
        <time>2024-08-12T07:47:48Z</time>
      </trkpt>
      <trkpt lat="44.77773" lon="6.35886">
        <ele>2615</ele>
        <time>2024-08-12T07:47:49Z</time>
      </trkpt>
      <trkpt lat="44.77771" lon="6.35885">
        <ele>2615</ele>
        <time>2024-08-12T07:47:50Z</time>
      </trkpt>
      <trkpt lat="44.77771" lon="6.35885">
        <ele>2615</ele>
        <time>2024-08-12T07:47:51Z</time>
      </trkpt>
      <trkpt lat="44.77771" lon="6.35885">
        <ele>2614.8</ele>
        <time>2024-08-12T07:47:52Z</time>
      </trkpt>
      <trkpt lat="44.7777" lon="6.35887">
        <ele>2614.8</ele>
        <time>2024-08-12T07:47:53Z</time>
      </trkpt>
      <trkpt lat="44.7777" lon="6.35887">
        <ele>2614.6</ele>
        <time>2024-08-12T07:47:54Z</time>
      </trkpt>
      <trkpt lat="44.7777" lon="6.35887">
        <ele>2614.6</ele>
        <time>2024-08-12T07:47:55Z</time>
      </trkpt>
      <trkpt lat="44.77768" lon="6.3589">
        <ele>2615</ele>
        <time>2024-08-12T07:47:56Z</time>
      </trkpt>
      <trkpt lat="44.77768" lon="6.3589">
        <ele>2615</ele>
        <time>2024-08-12T07:47:57Z</time>
      </trkpt>
      <trkpt lat="44.77767" lon="6.35892">
        <ele>2615.2</ele>
        <time>2024-08-12T07:47:58Z</time>
      </trkpt>
      <trkpt lat="44.77767" lon="6.35892">
        <ele>2615.2</ele>
        <time>2024-08-12T07:47:59Z</time>
      </trkpt>
      <trkpt lat="44.77767" lon="6.35892">
        <ele>2615</ele>
        <time>2024-08-12T07:48:00Z</time>
      </trkpt>
      <trkpt lat="44.77765" lon="6.35894">
        <ele>2614.6</ele>
        <time>2024-08-12T07:48:01Z</time>
      </trkpt>
      <trkpt lat="44.77765" lon="6.35894">
        <ele>2614.4</ele>
        <time>2024-08-12T07:48:02Z</time>
      </trkpt>
      <trkpt lat="44.77762" lon="6.35893">
        <ele>2614.4</ele>
        <time>2024-08-12T07:48:03Z</time>
      </trkpt>
      <trkpt lat="44.77762" lon="6.35893">
        <ele>2614.4</ele>
        <time>2024-08-12T07:48:04Z</time>
      </trkpt>
      <trkpt lat="44.77759" lon="6.35892">
        <ele>2614.4</ele>
        <time>2024-08-12T07:48:05Z</time>
      </trkpt>
      <trkpt lat="44.77759" lon="6.35892">
        <ele>2614.4</ele>
        <time>2024-08-12T07:48:06Z</time>
      </trkpt>
      <trkpt lat="44.77759" lon="6.35892">
        <ele>2614.4</ele>
        <time>2024-08-12T07:48:07Z</time>
      </trkpt>
      <trkpt lat="44.77757" lon="6.35891">
        <ele>2614.4</ele>
        <time>2024-08-12T07:48:08Z</time>
      </trkpt>
      <trkpt lat="44.77757" lon="6.35891">
        <ele>2614.4</ele>
        <time>2024-08-12T07:48:09Z</time>
      </trkpt>
      <trkpt lat="44.77754" lon="6.35891">
        <ele>2614.4</ele>
        <time>2024-08-12T07:48:10Z</time>
      </trkpt>
      <trkpt lat="44.77754" lon="6.35891">
        <ele>2614.6</ele>
        <time>2024-08-12T07:48:11Z</time>
      </trkpt>
      <trkpt lat="44.77754" lon="6.35891">
        <ele>2614.8</ele>
        <time>2024-08-12T07:48:12Z</time>
      </trkpt>
      <trkpt lat="44.77753" lon="6.35893">
        <ele>2614.8</ele>
        <time>2024-08-12T07:48:13Z</time>
      </trkpt>
      <trkpt lat="44.77753" lon="6.35893">
        <ele>2614.8</ele>
        <time>2024-08-12T07:48:14Z</time>
      </trkpt>
      <trkpt lat="44.77752" lon="6.35895">
        <ele>2614.8</ele>
        <time>2024-08-12T07:48:15Z</time>
      </trkpt>
      <trkpt lat="44.77752" lon="6.35895">
        <ele>2614.8</ele>
        <time>2024-08-12T07:48:16Z</time>
      </trkpt>
      <trkpt lat="44.77752" lon="6.35895">
        <ele>2615</ele>
        <time>2024-08-12T07:48:17Z</time>
      </trkpt>
      <trkpt lat="44.77751" lon="6.35899">
        <ele>2615</ele>
        <time>2024-08-12T07:48:18Z</time>
      </trkpt>
      <trkpt lat="44.77751" lon="6.35899">
        <ele>2614.6</ele>
        <time>2024-08-12T07:48:19Z</time>
      </trkpt>
      <trkpt lat="44.7775" lon="6.35901">
        <ele>2614.6</ele>
        <time>2024-08-12T07:48:20Z</time>
      </trkpt>
      <trkpt lat="44.7775" lon="6.35901">
        <ele>2614.2</ele>
        <time>2024-08-12T07:48:21Z</time>
      </trkpt>
      <trkpt lat="44.77749" lon="6.35904">
        <ele>2614.2</ele>
        <time>2024-08-12T07:48:22Z</time>
      </trkpt>
      <trkpt lat="44.77749" lon="6.35904">
        <ele>2614</ele>
        <time>2024-08-12T07:48:23Z</time>
      </trkpt>
      <trkpt lat="44.77749" lon="6.35904">
        <ele>2613.8</ele>
        <time>2024-08-12T07:48:24Z</time>
      </trkpt>
      <trkpt lat="44.77748" lon="6.35907">
        <ele>2613.8</ele>
        <time>2024-08-12T07:48:25Z</time>
      </trkpt>
      <trkpt lat="44.77748" lon="6.35907">
        <ele>2613.4</ele>
        <time>2024-08-12T07:48:26Z</time>
      </trkpt>
      <trkpt lat="44.77747" lon="6.3591">
        <ele>2613</ele>
        <time>2024-08-12T07:48:27Z</time>
      </trkpt>
      <trkpt lat="44.77747" lon="6.3591">
        <ele>2613</ele>
        <time>2024-08-12T07:48:28Z</time>
      </trkpt>
      <trkpt lat="44.77747" lon="6.3591">
        <ele>2613</ele>
        <time>2024-08-12T07:48:29Z</time>
      </trkpt>
      <trkpt lat="44.77746" lon="6.35913">
        <ele>2613</ele>
        <time>2024-08-12T07:48:30Z</time>
      </trkpt>
      <trkpt lat="44.77746" lon="6.35913">
        <ele>2613</ele>
        <time>2024-08-12T07:48:31Z</time>
      </trkpt>
      <trkpt lat="44.77746" lon="6.35913">
        <ele>2612.8</ele>
        <time>2024-08-12T07:48:32Z</time>
      </trkpt>
      <trkpt lat="44.77745" lon="6.35916">
        <ele>2612.6</ele>
        <time>2024-08-12T07:48:33Z</time>
      </trkpt>
      <trkpt lat="44.77745" lon="6.35916">
        <ele>2612.4</ele>
        <time>2024-08-12T07:48:34Z</time>
      </trkpt>
      <trkpt lat="44.77745" lon="6.35916">
        <ele>2612.2</ele>
        <time>2024-08-12T07:48:35Z</time>
      </trkpt>
      <trkpt lat="44.77744" lon="6.3592">
        <ele>2612</ele>
        <time>2024-08-12T07:48:36Z</time>
      </trkpt>
      <trkpt lat="44.77744" lon="6.3592">
        <ele>2611.6</ele>
        <time>2024-08-12T07:48:37Z</time>
      </trkpt>
      <trkpt lat="44.77743" lon="6.35922">
        <ele>2611.4</ele>
        <time>2024-08-12T07:48:38Z</time>
      </trkpt>
      <trkpt lat="44.77743" lon="6.35922">
        <ele>2611</ele>
        <time>2024-08-12T07:48:39Z</time>
      </trkpt>
      <trkpt lat="44.77742" lon="6.35924">
        <ele>2610.8</ele>
        <time>2024-08-12T07:48:40Z</time>
      </trkpt>
      <trkpt lat="44.77742" lon="6.35924">
        <ele>2610.4</ele>
        <time>2024-08-12T07:48:41Z</time>
      </trkpt>
      <trkpt lat="44.77741" lon="6.35926">
        <ele>2610.2</ele>
        <time>2024-08-12T07:48:42Z</time>
      </trkpt>
      <trkpt lat="44.77741" lon="6.35926">
        <ele>2610</ele>
        <time>2024-08-12T07:48:43Z</time>
      </trkpt>
      <trkpt lat="44.77739" lon="6.35928">
        <ele>2609.6</ele>
        <time>2024-08-12T07:48:44Z</time>
      </trkpt>
      <trkpt lat="44.77739" lon="6.35928">
        <ele>2609.4</ele>
        <time>2024-08-12T07:48:45Z</time>
      </trkpt>
      <trkpt lat="44.77737" lon="6.35929">
        <ele>2609.6</ele>
        <time>2024-08-12T07:48:46Z</time>
      </trkpt>
      <trkpt lat="44.77737" lon="6.35929">
        <ele>2609.6</ele>
        <time>2024-08-12T07:48:47Z</time>
      </trkpt>
      <trkpt lat="44.77737" lon="6.35929">
        <ele>2609.8</ele>
        <time>2024-08-12T07:48:48Z</time>
      </trkpt>
      <trkpt lat="44.77735" lon="6.3593">
        <ele>2609.8</ele>
        <time>2024-08-12T07:48:49Z</time>
      </trkpt>
      <trkpt lat="44.77735" lon="6.3593">
        <ele>2609.8</ele>
        <time>2024-08-12T07:48:50Z</time>
      </trkpt>
      <trkpt lat="44.77735" lon="6.3593">
        <ele>2610</ele>
        <time>2024-08-12T07:48:51Z</time>
      </trkpt>
      <trkpt lat="44.77735" lon="6.3593">
        <ele>2610.4</ele>
        <time>2024-08-12T07:48:52Z</time>
      </trkpt>
      <trkpt lat="44.77733" lon="6.35932">
        <ele>2610.4</ele>
        <time>2024-08-12T07:48:53Z</time>
      </trkpt>
      <trkpt lat="44.77733" lon="6.35932">
        <ele>2611.2</ele>
        <time>2024-08-12T07:48:54Z</time>
      </trkpt>
      <trkpt lat="44.77733" lon="6.35932">
        <ele>2611.4</ele>
        <time>2024-08-12T07:48:55Z</time>
      </trkpt>
      <trkpt lat="44.77731" lon="6.35932">
        <ele>2611.6</ele>
        <time>2024-08-12T07:48:56Z</time>
      </trkpt>
      <trkpt lat="44.77731" lon="6.35932">
        <ele>2611.6</ele>
        <time>2024-08-12T07:48:57Z</time>
      </trkpt>
      <trkpt lat="44.77731" lon="6.35932">
        <ele>2611.6</ele>
        <time>2024-08-12T07:48:58Z</time>
      </trkpt>
      <trkpt lat="44.77731" lon="6.35932">
        <ele>2612</ele>
        <time>2024-08-12T07:48:59Z</time>
      </trkpt>
      <trkpt lat="44.77729" lon="6.35932">
        <ele>2612.4</ele>
        <time>2024-08-12T07:49:00Z</time>
      </trkpt>
      <trkpt lat="44.77729" lon="6.35932">
        <ele>2612.4</ele>
        <time>2024-08-12T07:49:01Z</time>
      </trkpt>
      <trkpt lat="44.77729" lon="6.35932">
        <ele>2613</ele>
        <time>2024-08-12T07:49:02Z</time>
      </trkpt>
      <trkpt lat="44.77729" lon="6.35932">
        <ele>2613</ele>
        <time>2024-08-12T07:49:03Z</time>
      </trkpt>
      <trkpt lat="44.77729" lon="6.35932">
        <ele>2613.4</ele>
        <time>2024-08-12T07:49:04Z</time>
      </trkpt>
      <trkpt lat="44.77727" lon="6.35932">
        <ele>2614</ele>
        <time>2024-08-12T07:49:05Z</time>
      </trkpt>
      <trkpt lat="44.77727" lon="6.35932">
        <ele>2614.2</ele>
        <time>2024-08-12T07:49:06Z</time>
      </trkpt>
      <trkpt lat="44.77727" lon="6.35932">
        <ele>2614.2</ele>
        <time>2024-08-12T07:49:07Z</time>
      </trkpt>
      <trkpt lat="44.77727" lon="6.35932">
        <ele>2614.6</ele>
        <time>2024-08-12T07:49:08Z</time>
      </trkpt>
      <trkpt lat="44.77727" lon="6.35932">
        <ele>2614.8</ele>
        <time>2024-08-12T07:49:09Z</time>
      </trkpt>
      <trkpt lat="44.77725" lon="6.35932">
        <ele>2615</ele>
        <time>2024-08-12T07:49:10Z</time>
      </trkpt>
      <trkpt lat="44.77725" lon="6.35932">
        <ele>2615</ele>
        <time>2024-08-12T07:49:11Z</time>
      </trkpt>
      <trkpt lat="44.77725" lon="6.35932">
        <ele>2615</ele>
        <time>2024-08-12T07:49:12Z</time>
      </trkpt>
      <trkpt lat="44.77725" lon="6.35932">
        <ele>2615.2</ele>
        <time>2024-08-12T07:49:13Z</time>
      </trkpt>
      <trkpt lat="44.77725" lon="6.35932">
        <ele>2615.8</ele>
        <time>2024-08-12T07:49:14Z</time>
      </trkpt>
      <trkpt lat="44.77723" lon="6.35932">
        <ele>2615.8</ele>
        <time>2024-08-12T07:49:15Z</time>
      </trkpt>
      <trkpt lat="44.77723" lon="6.35932">
        <ele>2616</ele>
        <time>2024-08-12T07:49:16Z</time>
      </trkpt>
      <trkpt lat="44.77723" lon="6.35932">
        <ele>2616</ele>
        <time>2024-08-12T07:49:17Z</time>
      </trkpt>
      <trkpt lat="44.77723" lon="6.35932">
        <ele>2616.6</ele>
        <time>2024-08-12T07:49:18Z</time>
      </trkpt>
      <trkpt lat="44.77721" lon="6.35933">
        <ele>2616.6</ele>
        <time>2024-08-12T07:49:19Z</time>
      </trkpt>
      <trkpt lat="44.77721" lon="6.35933">
        <ele>2616.8</ele>
        <time>2024-08-12T07:49:20Z</time>
      </trkpt>
      <trkpt lat="44.77721" lon="6.35933">
        <ele>2617</ele>
        <time>2024-08-12T07:49:21Z</time>
      </trkpt>
      <trkpt lat="44.77719" lon="6.35934">
        <ele>2617</ele>
        <time>2024-08-12T07:49:22Z</time>
      </trkpt>
      <trkpt lat="44.77719" lon="6.35934">
        <ele>2617.4</ele>
        <time>2024-08-12T07:49:23Z</time>
      </trkpt>
      <trkpt lat="44.77719" lon="6.35934">
        <ele>2617.8</ele>
        <time>2024-08-12T07:49:24Z</time>
      </trkpt>
      <trkpt lat="44.77719" lon="6.35934">
        <ele>2617.8</ele>
        <time>2024-08-12T07:49:25Z</time>
      </trkpt>
      <trkpt lat="44.77717" lon="6.35935">
        <ele>2618.2</ele>
        <time>2024-08-12T07:49:26Z</time>
      </trkpt>
      <trkpt lat="44.77717" lon="6.35935">
        <ele>2618.6</ele>
        <time>2024-08-12T07:49:27Z</time>
      </trkpt>
      <trkpt lat="44.77717" lon="6.35935">
        <ele>2618.6</ele>
        <time>2024-08-12T07:49:28Z</time>
      </trkpt>
      <trkpt lat="44.77717" lon="6.35935">
        <ele>2619</ele>
        <time>2024-08-12T07:49:29Z</time>
      </trkpt>
      <trkpt lat="44.77717" lon="6.35935">
        <ele>2619.4</ele>
        <time>2024-08-12T07:49:30Z</time>
      </trkpt>
      <trkpt lat="44.77715" lon="6.35936">
        <ele>2619.8</ele>
        <time>2024-08-12T07:49:31Z</time>
      </trkpt>
      <trkpt lat="44.77715" lon="6.35936">
        <ele>2620</ele>
        <time>2024-08-12T07:49:32Z</time>
      </trkpt>
      <trkpt lat="44.77715" lon="6.35936">
        <ele>2620</ele>
        <time>2024-08-12T07:49:33Z</time>
      </trkpt>
      <trkpt lat="44.77715" lon="6.35936">
        <ele>2620</ele>
        <time>2024-08-12T07:49:34Z</time>
      </trkpt>
      <trkpt lat="44.77715" lon="6.35936">
        <ele>2620.4</ele>
        <time>2024-08-12T07:49:35Z</time>
      </trkpt>
      <trkpt lat="44.77713" lon="6.35937">
        <ele>2620.6</ele>
        <time>2024-08-12T07:49:36Z</time>
      </trkpt>
      <trkpt lat="44.77713" lon="6.35937">
        <ele>2621</ele>
        <time>2024-08-12T07:49:37Z</time>
      </trkpt>
      <trkpt lat="44.77713" lon="6.35937">
        <ele>2621.4</ele>
        <time>2024-08-12T07:49:38Z</time>
      </trkpt>
      <trkpt lat="44.77711" lon="6.35938">
        <ele>2621.4</ele>
        <time>2024-08-12T07:49:39Z</time>
      </trkpt>
      <trkpt lat="44.77711" lon="6.35938">
        <ele>2621.6</ele>
        <time>2024-08-12T07:49:40Z</time>
      </trkpt>
      <trkpt lat="44.77709" lon="6.3594">
        <ele>2621.6</ele>
        <time>2024-08-12T07:49:41Z</time>
      </trkpt>
      <trkpt lat="44.77709" lon="6.3594">
        <ele>2621.6</ele>
        <time>2024-08-12T07:49:42Z</time>
      </trkpt>
      <trkpt lat="44.77709" lon="6.3594">
        <ele>2621.6</ele>
        <time>2024-08-12T07:49:43Z</time>
      </trkpt>
      <trkpt lat="44.77708" lon="6.35941">
        <ele>2621.6</ele>
        <time>2024-08-12T07:49:44Z</time>
      </trkpt>
      <trkpt lat="44.77708" lon="6.35941">
        <ele>2621.8</ele>
        <time>2024-08-12T07:49:45Z</time>
      </trkpt>
      <trkpt lat="44.77708" lon="6.35941">
        <ele>2622</ele>
        <time>2024-08-12T07:49:46Z</time>
      </trkpt>
      <trkpt lat="44.77708" lon="6.35941">
        <ele>2622</ele>
        <time>2024-08-12T07:49:47Z</time>
      </trkpt>
      <trkpt lat="44.77706" lon="6.35942">
        <ele>2622.4</ele>
        <time>2024-08-12T07:49:48Z</time>
      </trkpt>
      <trkpt lat="44.77706" lon="6.35942">
        <ele>2622.8</ele>
        <time>2024-08-12T07:49:49Z</time>
      </trkpt>
      <trkpt lat="44.77706" lon="6.35942">
        <ele>2622.8</ele>
        <time>2024-08-12T07:49:50Z</time>
      </trkpt>
      <trkpt lat="44.77704" lon="6.35944">
        <ele>2623.2</ele>
        <time>2024-08-12T07:49:51Z</time>
      </trkpt>
      <trkpt lat="44.77704" lon="6.35944">
        <ele>2623.4</ele>
        <time>2024-08-12T07:49:52Z</time>
      </trkpt>
      <trkpt lat="44.77704" lon="6.35944">
        <ele>2623.8</ele>
        <time>2024-08-12T07:49:53Z</time>
      </trkpt>
      <trkpt lat="44.77704" lon="6.35944">
        <ele>2623.8</ele>
        <time>2024-08-12T07:49:54Z</time>
      </trkpt>
      <trkpt lat="44.77702" lon="6.35945">
        <ele>2624</ele>
        <time>2024-08-12T07:49:55Z</time>
      </trkpt>
      <trkpt lat="44.77702" lon="6.35945">
        <ele>2624</ele>
        <time>2024-08-12T07:49:56Z</time>
      </trkpt>
      <trkpt lat="44.77702" lon="6.35945">
        <ele>2624.8</ele>
        <time>2024-08-12T07:49:57Z</time>
      </trkpt>
      <trkpt lat="44.77702" lon="6.35945">
        <ele>2624.8</ele>
        <time>2024-08-12T07:49:58Z</time>
      </trkpt>
      <trkpt lat="44.777" lon="6.35945">
        <ele>2624.8</ele>
        <time>2024-08-12T07:49:59Z</time>
      </trkpt>
      <trkpt lat="44.777" lon="6.35945">
        <ele>2625.2</ele>
        <time>2024-08-12T07:50:00Z</time>
      </trkpt>
      <trkpt lat="44.777" lon="6.35945">
        <ele>2625.2</ele>
        <time>2024-08-12T07:50:01Z</time>
      </trkpt>
      <trkpt lat="44.777" lon="6.35945">
        <ele>2625.4</ele>
        <time>2024-08-12T07:50:02Z</time>
      </trkpt>
      <trkpt lat="44.777" lon="6.35945">
        <ele>2625.6</ele>
        <time>2024-08-12T07:50:03Z</time>
      </trkpt>
      <trkpt lat="44.777" lon="6.35945">
        <ele>2626</ele>
        <time>2024-08-12T07:50:04Z</time>
      </trkpt>
      <trkpt lat="44.777" lon="6.35945">
        <ele>2626</ele>
        <time>2024-08-12T07:50:05Z</time>
      </trkpt>
      <trkpt lat="44.777" lon="6.35945">
        <ele>2626</ele>
        <time>2024-08-12T07:50:06Z</time>
      </trkpt>
      <trkpt lat="44.777" lon="6.35945">
        <ele>2626</ele>
        <time>2024-08-12T07:50:07Z</time>
      </trkpt>
      <trkpt lat="44.777" lon="6.35945">
        <ele>2626.4</ele>
        <time>2024-08-12T07:50:08Z</time>
      </trkpt>
      <trkpt lat="44.777" lon="6.35945">
        <ele>2626.4</ele>
        <time>2024-08-12T07:50:09Z</time>
      </trkpt>
      <trkpt lat="44.777" lon="6.35945">
        <ele>2626.4</ele>
        <time>2024-08-12T07:50:10Z</time>
      </trkpt>
      <trkpt lat="44.777" lon="6.35945">
        <ele>2626.8</ele>
        <time>2024-08-12T07:50:11Z</time>
      </trkpt>
      <trkpt lat="44.777" lon="6.35945">
        <ele>2627</ele>
        <time>2024-08-12T07:50:12Z</time>
      </trkpt>
      <trkpt lat="44.777" lon="6.35945">
        <ele>2627.2</ele>
        <time>2024-08-12T07:50:13Z</time>
      </trkpt>
      <trkpt lat="44.777" lon="6.35945">
        <ele>2627.6</ele>
        <time>2024-08-12T07:50:14Z</time>
      </trkpt>
      <trkpt lat="44.777" lon="6.35945">
        <ele>2627.6</ele>
        <time>2024-08-12T07:50:15Z</time>
      </trkpt>
      <trkpt lat="44.777" lon="6.35945">
        <ele>2627.8</ele>
        <time>2024-08-12T07:50:16Z</time>
      </trkpt>
      <trkpt lat="44.77697" lon="6.35945">
        <ele>2628</ele>
        <time>2024-08-12T07:50:17Z</time>
      </trkpt>
      <trkpt lat="44.77697" lon="6.35945">
        <ele>2628.2</ele>
        <time>2024-08-12T07:50:18Z</time>
      </trkpt>
      <trkpt lat="44.77693" lon="6.35946">
        <ele>2628.4</ele>
        <time>2024-08-12T07:50:19Z</time>
      </trkpt>
      <trkpt lat="44.77692" lon="6.35946">
        <ele>2628.4</ele>
        <time>2024-08-12T07:50:20Z</time>
      </trkpt>
      <trkpt lat="44.77692" lon="6.35946">
        <ele>2628.6</ele>
        <time>2024-08-12T07:50:21Z</time>
      </trkpt>
      <trkpt lat="44.77689" lon="6.35947">
        <ele>2628.8</ele>
        <time>2024-08-12T07:50:22Z</time>
      </trkpt>
      <trkpt lat="44.77689" lon="6.35947">
        <ele>2628.8</ele>
        <time>2024-08-12T07:50:23Z</time>
      </trkpt>
      <trkpt lat="44.77687" lon="6.35948">
        <ele>2629</ele>
        <time>2024-08-12T07:50:24Z</time>
      </trkpt>
      <trkpt lat="44.77687" lon="6.35948">
        <ele>2629.2</ele>
        <time>2024-08-12T07:50:25Z</time>
      </trkpt>
      <trkpt lat="44.77685" lon="6.35949">
        <ele>2629.2</ele>
        <time>2024-08-12T07:50:26Z</time>
      </trkpt>
      <trkpt lat="44.77685" lon="6.35949">
        <ele>2628.8</ele>
        <time>2024-08-12T07:50:27Z</time>
      </trkpt>
      <trkpt lat="44.77683" lon="6.35951">
        <ele>2628.6</ele>
        <time>2024-08-12T07:50:28Z</time>
      </trkpt>
      <trkpt lat="44.77683" lon="6.35951">
        <ele>2628.6</ele>
        <time>2024-08-12T07:50:29Z</time>
      </trkpt>
      <trkpt lat="44.77683" lon="6.35951">
        <ele>2628.6</ele>
        <time>2024-08-12T07:50:30Z</time>
      </trkpt>
      <trkpt lat="44.77681" lon="6.35952">
        <ele>2629</ele>
        <time>2024-08-12T07:50:31Z</time>
      </trkpt>
      <trkpt lat="44.77681" lon="6.35952">
        <ele>2629.2</ele>
        <time>2024-08-12T07:50:32Z</time>
      </trkpt>
      <trkpt lat="44.77681" lon="6.35952">
        <ele>2629.4</ele>
        <time>2024-08-12T07:50:33Z</time>
      </trkpt>
      <trkpt lat="44.77679" lon="6.35954">
        <ele>2629.4</ele>
        <time>2024-08-12T07:50:34Z</time>
      </trkpt>
      <trkpt lat="44.77679" lon="6.35954">
        <ele>2629.6</ele>
        <time>2024-08-12T07:50:35Z</time>
      </trkpt>
      <trkpt lat="44.77679" lon="6.35954">
        <ele>2629.6</ele>
        <time>2024-08-12T07:50:36Z</time>
      </trkpt>
      <trkpt lat="44.77676" lon="6.35955">
        <ele>2629.6</ele>
        <time>2024-08-12T07:50:37Z</time>
      </trkpt>
      <trkpt lat="44.77676" lon="6.35955">
        <ele>2629.6</ele>
        <time>2024-08-12T07:50:38Z</time>
      </trkpt>
      <trkpt lat="44.77676" lon="6.35955">
        <ele>2629.6</ele>
        <time>2024-08-12T07:50:39Z</time>
      </trkpt>
      <trkpt lat="44.77674" lon="6.35957">
        <ele>2629.8</ele>
        <time>2024-08-12T07:50:40Z</time>
      </trkpt>
      <trkpt lat="44.77674" lon="6.35957">
        <ele>2630</ele>
        <time>2024-08-12T07:50:41Z</time>
      </trkpt>
      <trkpt lat="44.77674" lon="6.35957">
        <ele>2630.6</ele>
        <time>2024-08-12T07:50:42Z</time>
      </trkpt>
      <trkpt lat="44.77672" lon="6.35958">
        <ele>2630.8</ele>
        <time>2024-08-12T07:50:43Z</time>
      </trkpt>
      <trkpt lat="44.77672" lon="6.35958">
        <ele>2631</ele>
        <time>2024-08-12T07:50:44Z</time>
      </trkpt>
      <trkpt lat="44.77672" lon="6.35958">
        <ele>2631.2</ele>
        <time>2024-08-12T07:50:45Z</time>
      </trkpt>
      <trkpt lat="44.7767" lon="6.35957">
        <ele>2631.2</ele>
        <time>2024-08-12T07:50:46Z</time>
      </trkpt>
      <trkpt lat="44.7767" lon="6.35957">
        <ele>2631.2</ele>
        <time>2024-08-12T07:50:47Z</time>
      </trkpt>
      <trkpt lat="44.7767" lon="6.35957">
        <ele>2631.2</ele>
        <time>2024-08-12T07:50:48Z</time>
      </trkpt>
      <trkpt lat="44.77668" lon="6.35957">
        <ele>2631.2</ele>
        <time>2024-08-12T07:50:49Z</time>
      </trkpt>
      <trkpt lat="44.77668" lon="6.35957">
        <ele>2631.4</ele>
        <time>2024-08-12T07:50:50Z</time>
      </trkpt>
      <trkpt lat="44.77668" lon="6.35957">
        <ele>2631.4</ele>
        <time>2024-08-12T07:50:51Z</time>
      </trkpt>
      <trkpt lat="44.77667" lon="6.3596">
        <ele>2631.4</ele>
        <time>2024-08-12T07:50:52Z</time>
      </trkpt>
      <trkpt lat="44.77667" lon="6.3596">
        <ele>2631.2</ele>
        <time>2024-08-12T07:50:53Z</time>
      </trkpt>
      <trkpt lat="44.77667" lon="6.3596">
        <ele>2631.2</ele>
        <time>2024-08-12T07:50:54Z</time>
      </trkpt>
      <trkpt lat="44.77667" lon="6.35963">
        <ele>2630.8</ele>
        <time>2024-08-12T07:50:55Z</time>
      </trkpt>
      <trkpt lat="44.77667" lon="6.35963">
        <ele>2630.8</ele>
        <time>2024-08-12T07:50:56Z</time>
      </trkpt>
      <trkpt lat="44.77667" lon="6.35963">
        <ele>2630.8</ele>
        <time>2024-08-12T07:50:57Z</time>
      </trkpt>
      <trkpt lat="44.77667" lon="6.35963">
        <ele>2630.8</ele>
        <time>2024-08-12T07:50:58Z</time>
      </trkpt>
      <trkpt lat="44.77667" lon="6.35963">
        <ele>2630.6</ele>
        <time>2024-08-12T07:50:59Z</time>
      </trkpt>
      <trkpt lat="44.77667" lon="6.35963">
        <ele>2630.6</ele>
        <time>2024-08-12T07:51:00Z</time>
      </trkpt>
      <trkpt lat="44.77667" lon="6.35963">
        <ele>2630.6</ele>
        <time>2024-08-12T07:51:01Z</time>
      </trkpt>
      <trkpt lat="44.77667" lon="6.35963">
        <ele>2630.6</ele>
        <time>2024-08-12T07:51:02Z</time>
      </trkpt>
      <trkpt lat="44.77667" lon="6.35963">
        <ele>2630.6</ele>
        <time>2024-08-12T07:51:03Z</time>
      </trkpt>
      <trkpt lat="44.77667" lon="6.35963">
        <ele>2630.6</ele>
        <time>2024-08-12T07:51:04Z</time>
      </trkpt>
      <trkpt lat="44.77667" lon="6.35963">
        <ele>2630.6</ele>
        <time>2024-08-12T07:51:05Z</time>
      </trkpt>
      <trkpt lat="44.77667" lon="6.35963">
        <ele>2630.6</ele>
        <time>2024-08-12T07:51:06Z</time>
      </trkpt>
      <trkpt lat="44.77667" lon="6.35963">
        <ele>2630.6</ele>
        <time>2024-08-12T07:51:07Z</time>
      </trkpt>
      <trkpt lat="44.77667" lon="6.35963">
        <ele>2630.8</ele>
        <time>2024-08-12T07:51:08Z</time>
      </trkpt>
      <trkpt lat="44.77667" lon="6.35963">
        <ele>2630.8</ele>
        <time>2024-08-12T07:51:09Z</time>
      </trkpt>
      <trkpt lat="44.77667" lon="6.35963">
        <ele>2631</ele>
        <time>2024-08-12T07:51:10Z</time>
      </trkpt>
      <trkpt lat="44.77667" lon="6.35963">
        <ele>2631</ele>
        <time>2024-08-12T07:51:11Z</time>
      </trkpt>
      <trkpt lat="44.77667" lon="6.35963">
        <ele>2630.8</ele>
        <time>2024-08-12T07:51:12Z</time>
      </trkpt>
      <trkpt lat="44.77667" lon="6.35963">
        <ele>2630.8</ele>
        <time>2024-08-12T07:51:13Z</time>
      </trkpt>
      <trkpt lat="44.77667" lon="6.35963">
        <ele>2631.4</ele>
        <time>2024-08-12T07:51:14Z</time>
      </trkpt>
      <trkpt lat="44.77665" lon="6.35966">
        <ele>2631.4</ele>
        <time>2024-08-12T07:51:15Z</time>
      </trkpt>
      <trkpt lat="44.77665" lon="6.35966">
        <ele>2631.6</ele>
        <time>2024-08-12T07:51:16Z</time>
      </trkpt>
      <trkpt lat="44.77663" lon="6.35967">
        <ele>2631.8</ele>
        <time>2024-08-12T07:51:17Z</time>
      </trkpt>
      <trkpt lat="44.77663" lon="6.35967">
        <ele>2632</ele>
        <time>2024-08-12T07:51:18Z</time>
      </trkpt>
      <trkpt lat="44.77661" lon="6.35966">
        <ele>2632.2</ele>
        <time>2024-08-12T07:51:19Z</time>
      </trkpt>
      <trkpt lat="44.77661" lon="6.35966">
        <ele>2632.2</ele>
        <time>2024-08-12T07:51:20Z</time>
      </trkpt>
      <trkpt lat="44.77661" lon="6.35966">
        <ele>2632.6</ele>
        <time>2024-08-12T07:51:21Z</time>
      </trkpt>
      <trkpt lat="44.77661" lon="6.35966">
        <ele>2633</ele>
        <time>2024-08-12T07:51:22Z</time>
      </trkpt>
      <trkpt lat="44.7766" lon="6.35966">
        <ele>2633</ele>
        <time>2024-08-12T07:51:23Z</time>
      </trkpt>
      <trkpt lat="44.7766" lon="6.35966">
        <ele>2633.2</ele>
        <time>2024-08-12T07:51:24Z</time>
      </trkpt>
      <trkpt lat="44.7766" lon="6.35966">
        <ele>2633.4</ele>
        <time>2024-08-12T07:51:25Z</time>
      </trkpt>
      <trkpt lat="44.7766" lon="6.35966">
        <ele>2634</ele>
        <time>2024-08-12T07:51:26Z</time>
      </trkpt>
      <trkpt lat="44.77658" lon="6.35966">
        <ele>2634.2</ele>
        <time>2024-08-12T07:51:27Z</time>
      </trkpt>
      <trkpt lat="44.77658" lon="6.35966">
        <ele>2634.2</ele>
        <time>2024-08-12T07:51:28Z</time>
      </trkpt>
      <trkpt lat="44.77658" lon="6.35966">
        <ele>2634.4</ele>
        <time>2024-08-12T07:51:29Z</time>
      </trkpt>
      <trkpt lat="44.77658" lon="6.35966">
        <ele>2634.6</ele>
        <time>2024-08-12T07:51:30Z</time>
      </trkpt>
      <trkpt lat="44.77655" lon="6.35967">
        <ele>2634.6</ele>
        <time>2024-08-12T07:51:31Z</time>
      </trkpt>
      <trkpt lat="44.77655" lon="6.35967">
        <ele>2635</ele>
        <time>2024-08-12T07:51:32Z</time>
      </trkpt>
      <trkpt lat="44.77654" lon="6.35968">
        <ele>2635.4</ele>
        <time>2024-08-12T07:51:33Z</time>
      </trkpt>
      <trkpt lat="44.77654" lon="6.35968">
        <ele>2636</ele>
        <time>2024-08-12T07:51:34Z</time>
      </trkpt>
      <trkpt lat="44.77654" lon="6.35968">
        <ele>2636</ele>
        <time>2024-08-12T07:51:35Z</time>
      </trkpt>
      <trkpt lat="44.77652" lon="6.3597">
        <ele>2636</ele>
        <time>2024-08-12T07:51:36Z</time>
      </trkpt>
      <trkpt lat="44.77652" lon="6.3597">
        <ele>2636</ele>
        <time>2024-08-12T07:51:37Z</time>
      </trkpt>
      <trkpt lat="44.7765" lon="6.35971">
        <ele>2636.4</ele>
        <time>2024-08-12T07:51:38Z</time>
      </trkpt>
      <trkpt lat="44.7765" lon="6.35971">
        <ele>2636.8</ele>
        <time>2024-08-12T07:51:39Z</time>
      </trkpt>
      <trkpt lat="44.7765" lon="6.35971">
        <ele>2636.8</ele>
        <time>2024-08-12T07:51:40Z</time>
      </trkpt>
      <trkpt lat="44.77647" lon="6.35973">
        <ele>2636.8</ele>
        <time>2024-08-12T07:51:41Z</time>
      </trkpt>
      <trkpt lat="44.77647" lon="6.35973">
        <ele>2637</ele>
        <time>2024-08-12T07:51:42Z</time>
      </trkpt>
      <trkpt lat="44.77647" lon="6.35973">
        <ele>2637</ele>
        <time>2024-08-12T07:51:43Z</time>
      </trkpt>
      <trkpt lat="44.77645" lon="6.35974">
        <ele>2637.2</ele>
        <time>2024-08-12T07:51:44Z</time>
      </trkpt>
      <trkpt lat="44.77645" lon="6.35974">
        <ele>2637.8</ele>
        <time>2024-08-12T07:51:45Z</time>
      </trkpt>
      <trkpt lat="44.77643" lon="6.35975">
        <ele>2637.8</ele>
        <time>2024-08-12T07:51:46Z</time>
      </trkpt>
      <trkpt lat="44.77643" lon="6.35975">
        <ele>2637.8</ele>
        <time>2024-08-12T07:51:47Z</time>
      </trkpt>
      <trkpt lat="44.77641" lon="6.35976">
        <ele>2638.2</ele>
        <time>2024-08-12T07:51:48Z</time>
      </trkpt>
      <trkpt lat="44.77641" lon="6.35976">
        <ele>2638.4</ele>
        <time>2024-08-12T07:51:49Z</time>
      </trkpt>
      <trkpt lat="44.77639" lon="6.35978">
        <ele>2638.6</ele>
        <time>2024-08-12T07:51:50Z</time>
      </trkpt>
      <trkpt lat="44.77639" lon="6.35978">
        <ele>2638.6</ele>
        <time>2024-08-12T07:51:51Z</time>
      </trkpt>
      <trkpt lat="44.77637" lon="6.35978">
        <ele>2638.8</ele>
        <time>2024-08-12T07:51:52Z</time>
      </trkpt>
      <trkpt lat="44.77637" lon="6.35978">
        <ele>2638.8</ele>
        <time>2024-08-12T07:51:53Z</time>
      </trkpt>
      <trkpt lat="44.77637" lon="6.35978">
        <ele>2638.8</ele>
        <time>2024-08-12T07:51:54Z</time>
      </trkpt>
      <trkpt lat="44.77636" lon="6.35978">
        <ele>2639</ele>
        <time>2024-08-12T07:51:55Z</time>
      </trkpt>
      <trkpt lat="44.77636" lon="6.35978">
        <ele>2639.4</ele>
        <time>2024-08-12T07:51:56Z</time>
      </trkpt>
      <trkpt lat="44.77636" lon="6.35978">
        <ele>2639.4</ele>
        <time>2024-08-12T07:51:57Z</time>
      </trkpt>
      <trkpt lat="44.77634" lon="6.3598">
        <ele>2640</ele>
        <time>2024-08-12T07:51:58Z</time>
      </trkpt>
      <trkpt lat="44.77634" lon="6.3598">
        <ele>2640</ele>
        <time>2024-08-12T07:51:59Z</time>
      </trkpt>
      <trkpt lat="44.77634" lon="6.3598">
        <ele>2640.4</ele>
        <time>2024-08-12T07:52:00Z</time>
      </trkpt>
      <trkpt lat="44.77634" lon="6.3598">
        <ele>2640.4</ele>
        <time>2024-08-12T07:52:01Z</time>
      </trkpt>
      <trkpt lat="44.77632" lon="6.3598">
        <ele>2640.2</ele>
        <time>2024-08-12T07:52:02Z</time>
      </trkpt>
      <trkpt lat="44.77632" lon="6.3598">
        <ele>2640.2</ele>
        <time>2024-08-12T07:52:03Z</time>
      </trkpt>
      <trkpt lat="44.77631" lon="6.35982">
        <ele>2640.4</ele>
        <time>2024-08-12T07:52:04Z</time>
      </trkpt>
      <trkpt lat="44.77631" lon="6.35982">
        <ele>2640.4</ele>
        <time>2024-08-12T07:52:05Z</time>
      </trkpt>
      <trkpt lat="44.77631" lon="6.35982">
        <ele>2640.2</ele>
        <time>2024-08-12T07:52:06Z</time>
      </trkpt>
      <trkpt lat="44.77631" lon="6.35982">
        <ele>2640.2</ele>
        <time>2024-08-12T07:52:07Z</time>
      </trkpt>
      <trkpt lat="44.77629" lon="6.35984">
        <ele>2640.2</ele>
        <time>2024-08-12T07:52:08Z</time>
      </trkpt>
      <trkpt lat="44.77629" lon="6.35984">
        <ele>2640.4</ele>
        <time>2024-08-12T07:52:09Z</time>
      </trkpt>
      <trkpt lat="44.77629" lon="6.35984">
        <ele>2640.6</ele>
        <time>2024-08-12T07:52:10Z</time>
      </trkpt>
      <trkpt lat="44.77629" lon="6.35984">
        <ele>2641</ele>
        <time>2024-08-12T07:52:11Z</time>
      </trkpt>
      <trkpt lat="44.77628" lon="6.35985">
        <ele>2641.6</ele>
        <time>2024-08-12T07:52:12Z</time>
      </trkpt>
      <trkpt lat="44.77628" lon="6.35985">
        <ele>2641.6</ele>
        <time>2024-08-12T07:52:13Z</time>
      </trkpt>
      <trkpt lat="44.77628" lon="6.35985">
        <ele>2642</ele>
        <time>2024-08-12T07:52:14Z</time>
      </trkpt>
      <trkpt lat="44.77626" lon="6.35988">
        <ele>2642</ele>
        <time>2024-08-12T07:52:15Z</time>
      </trkpt>
      <trkpt lat="44.77626" lon="6.35988">
        <ele>2641.8</ele>
        <time>2024-08-12T07:52:16Z</time>
      </trkpt>
      <trkpt lat="44.77624" lon="6.35989">
        <ele>2641.8</ele>
        <time>2024-08-12T07:52:17Z</time>
      </trkpt>
      <trkpt lat="44.77624" lon="6.35989">
        <ele>2641.8</ele>
        <time>2024-08-12T07:52:18Z</time>
      </trkpt>
      <trkpt lat="44.77624" lon="6.35989">
        <ele>2641.6</ele>
        <time>2024-08-12T07:52:19Z</time>
      </trkpt>
      <trkpt lat="44.77621" lon="6.35991">
        <ele>2641.6</ele>
        <time>2024-08-12T07:52:20Z</time>
      </trkpt>
      <trkpt lat="44.77621" lon="6.35991">
        <ele>2641.8</ele>
        <time>2024-08-12T07:52:21Z</time>
      </trkpt>
      <trkpt lat="44.7762" lon="6.35992">
        <ele>2642</ele>
        <time>2024-08-12T07:52:22Z</time>
      </trkpt>
      <trkpt lat="44.7762" lon="6.35992">
        <ele>2642</ele>
        <time>2024-08-12T07:52:23Z</time>
      </trkpt>
      <trkpt lat="44.77619" lon="6.35994">
        <ele>2642.4</ele>
        <time>2024-08-12T07:52:24Z</time>
      </trkpt>
      <trkpt lat="44.77619" lon="6.35994">
        <ele>2642.6</ele>
        <time>2024-08-12T07:52:25Z</time>
      </trkpt>
      <trkpt lat="44.77617" lon="6.35996">
        <ele>2642.6</ele>
        <time>2024-08-12T07:52:26Z</time>
      </trkpt>
      <trkpt lat="44.77617" lon="6.35996">
        <ele>2642.8</ele>
        <time>2024-08-12T07:52:27Z</time>
      </trkpt>
      <trkpt lat="44.77615" lon="6.35998">
        <ele>2642.8</ele>
        <time>2024-08-12T07:52:28Z</time>
      </trkpt>
      <trkpt lat="44.77615" lon="6.35998">
        <ele>2643.2</ele>
        <time>2024-08-12T07:52:29Z</time>
      </trkpt>
      <trkpt lat="44.77613" lon="6.35999">
        <ele>2643.2</ele>
        <time>2024-08-12T07:52:30Z</time>
      </trkpt>
      <trkpt lat="44.77613" lon="6.35999">
        <ele>2643.4</ele>
        <time>2024-08-12T07:52:31Z</time>
      </trkpt>
      <trkpt lat="44.77613" lon="6.35999">
        <ele>2643.6</ele>
        <time>2024-08-12T07:52:32Z</time>
      </trkpt>
      <trkpt lat="44.77611" lon="6.36">
        <ele>2643.6</ele>
        <time>2024-08-12T07:52:33Z</time>
      </trkpt>
      <trkpt lat="44.77611" lon="6.36">
        <ele>2643.6</ele>
        <time>2024-08-12T07:52:34Z</time>
      </trkpt>
      <trkpt lat="44.77611" lon="6.36">
        <ele>2643.8</ele>
        <time>2024-08-12T07:52:35Z</time>
      </trkpt>
      <trkpt lat="44.77609" lon="6.36001">
        <ele>2644.4</ele>
        <time>2024-08-12T07:52:36Z</time>
      </trkpt>
      <trkpt lat="44.77609" lon="6.36001">
        <ele>2644.6</ele>
        <time>2024-08-12T07:52:37Z</time>
      </trkpt>
      <trkpt lat="44.77609" lon="6.36001">
        <ele>2644.8</ele>
        <time>2024-08-12T07:52:38Z</time>
      </trkpt>
      <trkpt lat="44.77606" lon="6.36002">
        <ele>2645.2</ele>
        <time>2024-08-12T07:52:39Z</time>
      </trkpt>
      <trkpt lat="44.77606" lon="6.36002">
        <ele>2645.4</ele>
        <time>2024-08-12T07:52:40Z</time>
      </trkpt>
      <trkpt lat="44.77606" lon="6.36002">
        <ele>2645.6</ele>
        <time>2024-08-12T07:52:41Z</time>
      </trkpt>
      <trkpt lat="44.77604" lon="6.36003">
        <ele>2645.6</ele>
        <time>2024-08-12T07:52:42Z</time>
      </trkpt>
      <trkpt lat="44.77604" lon="6.36003">
        <ele>2645.6</ele>
        <time>2024-08-12T07:52:43Z</time>
      </trkpt>
      <trkpt lat="44.77604" lon="6.36003">
        <ele>2645.6</ele>
        <time>2024-08-12T07:52:44Z</time>
      </trkpt>
      <trkpt lat="44.77602" lon="6.36004">
        <ele>2646.2</ele>
        <time>2024-08-12T07:52:45Z</time>
      </trkpt>
      <trkpt lat="44.77602" lon="6.36004">
        <ele>2646.4</ele>
        <time>2024-08-12T07:52:46Z</time>
      </trkpt>
      <trkpt lat="44.77602" lon="6.36004">
        <ele>2646.8</ele>
        <time>2024-08-12T07:52:47Z</time>
      </trkpt>
      <trkpt lat="44.776" lon="6.36005">
        <ele>2647</ele>
        <time>2024-08-12T07:52:48Z</time>
      </trkpt>
      <trkpt lat="44.776" lon="6.36005">
        <ele>2647</ele>
        <time>2024-08-12T07:52:49Z</time>
      </trkpt>
      <trkpt lat="44.776" lon="6.36005">
        <ele>2647.2</ele>
        <time>2024-08-12T07:52:50Z</time>
      </trkpt>
      <trkpt lat="44.776" lon="6.36005">
        <ele>2647.4</ele>
        <time>2024-08-12T07:52:51Z</time>
      </trkpt>
      <trkpt lat="44.77598" lon="6.36006">
        <ele>2648.2</ele>
        <time>2024-08-12T07:52:52Z</time>
      </trkpt>
      <trkpt lat="44.77598" lon="6.36006">
        <ele>2648.4</ele>
        <time>2024-08-12T07:52:53Z</time>
      </trkpt>
      <trkpt lat="44.77598" lon="6.36006">
        <ele>2648.6</ele>
        <time>2024-08-12T07:52:54Z</time>
      </trkpt>
      <trkpt lat="44.77598" lon="6.36006">
        <ele>2648.6</ele>
        <time>2024-08-12T07:52:55Z</time>
      </trkpt>
      <trkpt lat="44.77596" lon="6.36006">
        <ele>2649</ele>
        <time>2024-08-12T07:52:56Z</time>
      </trkpt>
      <trkpt lat="44.77596" lon="6.36006">
        <ele>2649</ele>
        <time>2024-08-12T07:52:57Z</time>
      </trkpt>
      <trkpt lat="44.77596" lon="6.36006">
        <ele>2649.2</ele>
        <time>2024-08-12T07:52:58Z</time>
      </trkpt>
      <trkpt lat="44.77594" lon="6.36007">
        <ele>2649.4</ele>
        <time>2024-08-12T07:52:59Z</time>
      </trkpt>
      <trkpt lat="44.77594" lon="6.36007">
        <ele>2649.4</ele>
        <time>2024-08-12T07:53:00Z</time>
      </trkpt>
      <trkpt lat="44.77594" lon="6.36007">
        <ele>2649.4</ele>
        <time>2024-08-12T07:53:01Z</time>
      </trkpt>
      <trkpt lat="44.77594" lon="6.36007">
        <ele>2650</ele>
        <time>2024-08-12T07:53:02Z</time>
      </trkpt>
      <trkpt lat="44.77592" lon="6.36008">
        <ele>2650</ele>
        <time>2024-08-12T07:53:03Z</time>
      </trkpt>
      <trkpt lat="44.77592" lon="6.36008">
        <ele>2650.2</ele>
        <time>2024-08-12T07:53:04Z</time>
      </trkpt>
      <trkpt lat="44.77592" lon="6.36008">
        <ele>2650.4</ele>
        <time>2024-08-12T07:53:05Z</time>
      </trkpt>
      <trkpt lat="44.77592" lon="6.36008">
        <ele>2650.4</ele>
        <time>2024-08-12T07:53:06Z</time>
      </trkpt>
      <trkpt lat="44.77592" lon="6.36008">
        <ele>2650.4</ele>
        <time>2024-08-12T07:53:07Z</time>
      </trkpt>
      <trkpt lat="44.77592" lon="6.36008">
        <ele>2650.4</ele>
        <time>2024-08-12T07:53:08Z</time>
      </trkpt>
      <trkpt lat="44.77592" lon="6.36008">
        <ele>2650.4</ele>
        <time>2024-08-12T07:53:09Z</time>
      </trkpt>
      <trkpt lat="44.77592" lon="6.36008">
        <ele>2650.4</ele>
        <time>2024-08-12T07:53:10Z</time>
      </trkpt>
      <trkpt lat="44.77592" lon="6.36008">
        <ele>2650.6</ele>
        <time>2024-08-12T07:53:11Z</time>
      </trkpt>
      <trkpt lat="44.77592" lon="6.36008">
        <ele>2650.6</ele>
        <time>2024-08-12T07:53:12Z</time>
      </trkpt>
      <trkpt lat="44.77592" lon="6.36008">
        <ele>2650.8</ele>
        <time>2024-08-12T07:53:13Z</time>
      </trkpt>
      <trkpt lat="44.77592" lon="6.36008">
        <ele>2651</ele>
        <time>2024-08-12T07:53:14Z</time>
      </trkpt>
      <trkpt lat="44.77592" lon="6.36008">
        <ele>2651</ele>
        <time>2024-08-12T07:53:15Z</time>
      </trkpt>
      <trkpt lat="44.77592" lon="6.36008">
        <ele>2650.8</ele>
        <time>2024-08-12T07:53:16Z</time>
      </trkpt>
      <trkpt lat="44.77592" lon="6.36008">
        <ele>2650.8</ele>
        <time>2024-08-12T07:53:17Z</time>
      </trkpt>
      <trkpt lat="44.77592" lon="6.36008">
        <ele>2651</ele>
        <time>2024-08-12T07:53:18Z</time>
      </trkpt>
      <trkpt lat="44.77592" lon="6.36008">
        <ele>2651</ele>
        <time>2024-08-12T07:53:19Z</time>
      </trkpt>
      <trkpt lat="44.77592" lon="6.36008">
        <ele>2651.2</ele>
        <time>2024-08-12T07:53:20Z</time>
      </trkpt>
      <trkpt lat="44.77592" lon="6.36008">
        <ele>2651.2</ele>
        <time>2024-08-12T07:53:21Z</time>
      </trkpt>
      <trkpt lat="44.77592" lon="6.36008">
        <ele>2651.2</ele>
        <time>2024-08-12T07:53:22Z</time>
      </trkpt>
      <trkpt lat="44.77592" lon="6.36008">
        <ele>2651.2</ele>
        <time>2024-08-12T07:53:23Z</time>
      </trkpt>
      <trkpt lat="44.77592" lon="6.36008">
        <ele>2651.2</ele>
        <time>2024-08-12T07:53:24Z</time>
      </trkpt>
      <trkpt lat="44.77591" lon="6.3601">
        <ele>2651.2</ele>
        <time>2024-08-12T07:53:25Z</time>
      </trkpt>
      <trkpt lat="44.77591" lon="6.3601">
        <ele>2651.4</ele>
        <time>2024-08-12T07:53:26Z</time>
      </trkpt>
      <trkpt lat="44.77591" lon="6.3601">
        <ele>2651.6</ele>
        <time>2024-08-12T07:53:27Z</time>
      </trkpt>
      <trkpt lat="44.77588" lon="6.36011">
        <ele>2651.8</ele>
        <time>2024-08-12T07:53:28Z</time>
      </trkpt>
      <trkpt lat="44.77588" lon="6.36011">
        <ele>2652</ele>
        <time>2024-08-12T07:53:29Z</time>
      </trkpt>
      <trkpt lat="44.77588" lon="6.36011">
        <ele>2652.2</ele>
        <time>2024-08-12T07:53:30Z</time>
      </trkpt>
      <trkpt lat="44.77586" lon="6.36011">
        <ele>2652.6</ele>
        <time>2024-08-12T07:53:31Z</time>
      </trkpt>
      <trkpt lat="44.77586" lon="6.36011">
        <ele>2652.8</ele>
        <time>2024-08-12T07:53:32Z</time>
      </trkpt>
      <trkpt lat="44.77586" lon="6.36011">
        <ele>2653.4</ele>
        <time>2024-08-12T07:53:33Z</time>
      </trkpt>
      <trkpt lat="44.77584" lon="6.36012">
        <ele>2653.6</ele>
        <time>2024-08-12T07:53:34Z</time>
      </trkpt>
      <trkpt lat="44.77584" lon="6.36012">
        <ele>2653.8</ele>
        <time>2024-08-12T07:53:35Z</time>
      </trkpt>
      <trkpt lat="44.77584" lon="6.36012">
        <ele>2654</ele>
        <time>2024-08-12T07:53:36Z</time>
      </trkpt>
      <trkpt lat="44.77582" lon="6.36011">
        <ele>2654.2</ele>
        <time>2024-08-12T07:53:37Z</time>
      </trkpt>
      <trkpt lat="44.77582" lon="6.36011">
        <ele>2654.4</ele>
        <time>2024-08-12T07:53:38Z</time>
      </trkpt>
      <trkpt lat="44.77582" lon="6.36011">
        <ele>2654.6</ele>
        <time>2024-08-12T07:53:39Z</time>
      </trkpt>
      <trkpt lat="44.77582" lon="6.36011">
        <ele>2654.8</ele>
        <time>2024-08-12T07:53:40Z</time>
      </trkpt>
      <trkpt lat="44.77582" lon="6.36011">
        <ele>2655.6</ele>
        <time>2024-08-12T07:53:41Z</time>
      </trkpt>
      <trkpt lat="44.77582" lon="6.36011">
        <ele>2655.8</ele>
        <time>2024-08-12T07:53:42Z</time>
      </trkpt>
      <trkpt lat="44.7758" lon="6.3601">
        <ele>2656</ele>
        <time>2024-08-12T07:53:43Z</time>
      </trkpt>
      <trkpt lat="44.7758" lon="6.3601">
        <ele>2656</ele>
        <time>2024-08-12T07:53:44Z</time>
      </trkpt>
      <trkpt lat="44.7758" lon="6.3601">
        <ele>2656.2</ele>
        <time>2024-08-12T07:53:45Z</time>
      </trkpt>
      <trkpt lat="44.7758" lon="6.3601">
        <ele>2656.6</ele>
        <time>2024-08-12T07:53:46Z</time>
      </trkpt>
      <trkpt lat="44.77578" lon="6.36009">
        <ele>2656.6</ele>
        <time>2024-08-12T07:53:47Z</time>
      </trkpt>
      <trkpt lat="44.77578" lon="6.36009">
        <ele>2656.8</ele>
        <time>2024-08-12T07:53:48Z</time>
      </trkpt>
      <trkpt lat="44.77578" lon="6.36009">
        <ele>2656.8</ele>
        <time>2024-08-12T07:53:49Z</time>
      </trkpt>
      <trkpt lat="44.77576" lon="6.3601">
        <ele>2657</ele>
        <time>2024-08-12T07:53:50Z</time>
      </trkpt>
      <trkpt lat="44.77576" lon="6.3601">
        <ele>2657.4</ele>
        <time>2024-08-12T07:53:51Z</time>
      </trkpt>
      <trkpt lat="44.77576" lon="6.3601">
        <ele>2657.8</ele>
        <time>2024-08-12T07:53:52Z</time>
      </trkpt>
      <trkpt lat="44.77574" lon="6.3601">
        <ele>2657.8</ele>
        <time>2024-08-12T07:53:53Z</time>
      </trkpt>
      <trkpt lat="44.77574" lon="6.3601">
        <ele>2658</ele>
        <time>2024-08-12T07:53:54Z</time>
      </trkpt>
      <trkpt lat="44.77574" lon="6.3601">
        <ele>2658</ele>
        <time>2024-08-12T07:53:55Z</time>
      </trkpt>
      <trkpt lat="44.77574" lon="6.3601">
        <ele>2658.4</ele>
        <time>2024-08-12T07:53:56Z</time>
      </trkpt>
      <trkpt lat="44.77572" lon="6.36009">
        <ele>2658.4</ele>
        <time>2024-08-12T07:53:57Z</time>
      </trkpt>
      <trkpt lat="44.77572" lon="6.36009">
        <ele>2658.8</ele>
        <time>2024-08-12T07:53:58Z</time>
      </trkpt>
      <trkpt lat="44.77572" lon="6.36009">
        <ele>2659</ele>
        <time>2024-08-12T07:53:59Z</time>
      </trkpt>
      <trkpt lat="44.7757" lon="6.36009">
        <ele>2659</ele>
        <time>2024-08-12T07:54:00Z</time>
      </trkpt>
      <trkpt lat="44.7757" lon="6.36009">
        <ele>2659.4</ele>
        <time>2024-08-12T07:54:01Z</time>
      </trkpt>
      <trkpt lat="44.7757" lon="6.36009">
        <ele>2660</ele>
        <time>2024-08-12T07:54:02Z</time>
      </trkpt>
      <trkpt lat="44.77568" lon="6.3601">
        <ele>2660</ele>
        <time>2024-08-12T07:54:03Z</time>
      </trkpt>
      <trkpt lat="44.77568" lon="6.3601">
        <ele>2660</ele>
        <time>2024-08-12T07:54:04Z</time>
      </trkpt>
      <trkpt lat="44.77568" lon="6.3601">
        <ele>2660.2</ele>
        <time>2024-08-12T07:54:05Z</time>
      </trkpt>
      <trkpt lat="44.77566" lon="6.36012">
        <ele>2660.2</ele>
        <time>2024-08-12T07:54:06Z</time>
      </trkpt>
      <trkpt lat="44.77566" lon="6.36012">
        <ele>2660.2</ele>
        <time>2024-08-12T07:54:07Z</time>
      </trkpt>
      <trkpt lat="44.77566" lon="6.36012">
        <ele>2660.4</ele>
        <time>2024-08-12T07:54:08Z</time>
      </trkpt>
      <trkpt lat="44.77564" lon="6.36012">
        <ele>2660.4</ele>
        <time>2024-08-12T07:54:09Z</time>
      </trkpt>
      <trkpt lat="44.77564" lon="6.36012">
        <ele>2660.6</ele>
        <time>2024-08-12T07:54:10Z</time>
      </trkpt>
      <trkpt lat="44.77564" lon="6.36012">
        <ele>2660.6</ele>
        <time>2024-08-12T07:54:11Z</time>
      </trkpt>
      <trkpt lat="44.77562" lon="6.36015">
        <ele>2660.6</ele>
        <time>2024-08-12T07:54:12Z</time>
      </trkpt>
      <trkpt lat="44.77562" lon="6.36015">
        <ele>2660.8</ele>
        <time>2024-08-12T07:54:13Z</time>
      </trkpt>
      <trkpt lat="44.77562" lon="6.36015">
        <ele>2660.8</ele>
        <time>2024-08-12T07:54:14Z</time>
      </trkpt>
      <trkpt lat="44.77562" lon="6.36015">
        <ele>2660.8</ele>
        <time>2024-08-12T07:54:15Z</time>
      </trkpt>
      <trkpt lat="44.7756" lon="6.36016">
        <ele>2660.8</ele>
        <time>2024-08-12T07:54:16Z</time>
      </trkpt>
      <trkpt lat="44.7756" lon="6.36016">
        <ele>2661.6</ele>
        <time>2024-08-12T07:54:17Z</time>
      </trkpt>
      <trkpt lat="44.7756" lon="6.36016">
        <ele>2661.6</ele>
        <time>2024-08-12T07:54:18Z</time>
      </trkpt>
      <trkpt lat="44.77558" lon="6.36018">
        <ele>2661.8</ele>
        <time>2024-08-12T07:54:19Z</time>
      </trkpt>
      <trkpt lat="44.77558" lon="6.36018">
        <ele>2662</ele>
        <time>2024-08-12T07:54:20Z</time>
      </trkpt>
      <trkpt lat="44.77558" lon="6.36018">
        <ele>2662</ele>
        <time>2024-08-12T07:54:21Z</time>
      </trkpt>
      <trkpt lat="44.77558" lon="6.36018">
        <ele>2662</ele>
        <time>2024-08-12T07:54:22Z</time>
      </trkpt>
      <trkpt lat="44.77558" lon="6.36018">
        <ele>2662.4</ele>
        <time>2024-08-12T07:54:23Z</time>
      </trkpt>
      <trkpt lat="44.77557" lon="6.36016">
        <ele>2662.6</ele>
        <time>2024-08-12T07:54:24Z</time>
      </trkpt>
      <trkpt lat="44.77557" lon="6.36016">
        <ele>2662.8</ele>
        <time>2024-08-12T07:54:25Z</time>
      </trkpt>
      <trkpt lat="44.77557" lon="6.36016">
        <ele>2663.6</ele>
        <time>2024-08-12T07:54:26Z</time>
      </trkpt>
      <trkpt lat="44.77557" lon="6.36016">
        <ele>2664</ele>
        <time>2024-08-12T07:54:27Z</time>
      </trkpt>
      <trkpt lat="44.77557" lon="6.36016">
        <ele>2664.2</ele>
        <time>2024-08-12T07:54:28Z</time>
      </trkpt>
      <trkpt lat="44.77557" lon="6.36016">
        <ele>2664.2</ele>
        <time>2024-08-12T07:54:29Z</time>
      </trkpt>
      <trkpt lat="44.77557" lon="6.36016">
        <ele>2664.2</ele>
        <time>2024-08-12T07:54:30Z</time>
      </trkpt>
      <trkpt lat="44.77557" lon="6.36016">
        <ele>2664.4</ele>
        <time>2024-08-12T07:54:31Z</time>
      </trkpt>
      <trkpt lat="44.77557" lon="6.36016">
        <ele>2664.8</ele>
        <time>2024-08-12T07:54:32Z</time>
      </trkpt>
      <trkpt lat="44.77557" lon="6.36016">
        <ele>2664.8</ele>
        <time>2024-08-12T07:54:33Z</time>
      </trkpt>
      <trkpt lat="44.77557" lon="6.36016">
        <ele>2665</ele>
        <time>2024-08-12T07:54:34Z</time>
      </trkpt>
      <trkpt lat="44.77554" lon="6.36016">
        <ele>2665</ele>
        <time>2024-08-12T07:54:35Z</time>
      </trkpt>
      <trkpt lat="44.77554" lon="6.36016">
        <ele>2665.6</ele>
        <time>2024-08-12T07:54:36Z</time>
      </trkpt>
      <trkpt lat="44.77554" lon="6.36016">
        <ele>2665.8</ele>
        <time>2024-08-12T07:54:37Z</time>
      </trkpt>
      <trkpt lat="44.77554" lon="6.36016">
        <ele>2665.8</ele>
        <time>2024-08-12T07:54:38Z</time>
      </trkpt>
      <trkpt lat="44.77554" lon="6.36016">
        <ele>2666.2</ele>
        <time>2024-08-12T07:54:39Z</time>
      </trkpt>
      <trkpt lat="44.77554" lon="6.36016">
        <ele>2666.2</ele>
        <time>2024-08-12T07:54:40Z</time>
      </trkpt>
      <trkpt lat="44.77553" lon="6.36019">
        <ele>2666.2</ele>
        <time>2024-08-12T07:54:41Z</time>
      </trkpt>
      <trkpt lat="44.77553" lon="6.36019">
        <ele>2666.2</ele>
        <time>2024-08-12T07:54:42Z</time>
      </trkpt>
      <trkpt lat="44.7755" lon="6.36022">
        <ele>2666.2</ele>
        <time>2024-08-12T07:54:43Z</time>
      </trkpt>
      <trkpt lat="44.7755" lon="6.36022">
        <ele>2666.2</ele>
        <time>2024-08-12T07:54:44Z</time>
      </trkpt>
      <trkpt lat="44.77549" lon="6.36026">
        <ele>2666.2</ele>
        <time>2024-08-12T07:54:45Z</time>
      </trkpt>
      <trkpt lat="44.77549" lon="6.36026">
        <ele>2666.2</ele>
        <time>2024-08-12T07:54:46Z</time>
      </trkpt>
      <trkpt lat="44.77548" lon="6.36029">
        <ele>2666.2</ele>
        <time>2024-08-12T07:54:47Z</time>
      </trkpt>
      <trkpt lat="44.77548" lon="6.36029">
        <ele>2666.2</ele>
        <time>2024-08-12T07:54:48Z</time>
      </trkpt>
      <trkpt lat="44.77548" lon="6.36029">
        <ele>2666.2</ele>
        <time>2024-08-12T07:54:49Z</time>
      </trkpt>
      <trkpt lat="44.77546" lon="6.36031">
        <ele>2666.4</ele>
        <time>2024-08-12T07:54:50Z</time>
      </trkpt>
      <trkpt lat="44.77546" lon="6.36031">
        <ele>2666.4</ele>
        <time>2024-08-12T07:54:51Z</time>
      </trkpt>
      <trkpt lat="44.77546" lon="6.36031">
        <ele>2666.8</ele>
        <time>2024-08-12T07:54:52Z</time>
      </trkpt>
      <trkpt lat="44.77544" lon="6.36033">
        <ele>2666.8</ele>
        <time>2024-08-12T07:54:53Z</time>
      </trkpt>
      <trkpt lat="44.77544" lon="6.36033">
        <ele>2667.6</ele>
        <time>2024-08-12T07:54:54Z</time>
      </trkpt>
      <trkpt lat="44.77544" lon="6.36033">
        <ele>2667.6</ele>
        <time>2024-08-12T07:54:55Z</time>
      </trkpt>
      <trkpt lat="44.77542" lon="6.36034">
        <ele>2667.6</ele>
        <time>2024-08-12T07:54:56Z</time>
      </trkpt>
      <trkpt lat="44.77542" lon="6.36034">
        <ele>2667.8</ele>
        <time>2024-08-12T07:54:57Z</time>
      </trkpt>
      <trkpt lat="44.77542" lon="6.36034">
        <ele>2668</ele>
        <time>2024-08-12T07:54:58Z</time>
      </trkpt>
      <trkpt lat="44.77542" lon="6.36034">
        <ele>2668.2</ele>
        <time>2024-08-12T07:54:59Z</time>
      </trkpt>
      <trkpt lat="44.7754" lon="6.36036">
        <ele>2668.6</ele>
        <time>2024-08-12T07:55:00Z</time>
      </trkpt>
      <trkpt lat="44.7754" lon="6.36036">
        <ele>2668.8</ele>
        <time>2024-08-12T07:55:01Z</time>
      </trkpt>
      <trkpt lat="44.7754" lon="6.36036">
        <ele>2669.6</ele>
        <time>2024-08-12T07:55:02Z</time>
      </trkpt>
      <trkpt lat="44.7754" lon="6.36036">
        <ele>2669.6</ele>
        <time>2024-08-12T07:55:03Z</time>
      </trkpt>
      <trkpt lat="44.77539" lon="6.36038">
        <ele>2669.6</ele>
        <time>2024-08-12T07:55:04Z</time>
      </trkpt>
      <trkpt lat="44.77539" lon="6.36038">
        <ele>2669.8</ele>
        <time>2024-08-12T07:55:05Z</time>
      </trkpt>
      <trkpt lat="44.77539" lon="6.36038">
        <ele>2670.2</ele>
        <time>2024-08-12T07:55:06Z</time>
      </trkpt>
      <trkpt lat="44.77539" lon="6.36038">
        <ele>2670.4</ele>
        <time>2024-08-12T07:55:07Z</time>
      </trkpt>
      <trkpt lat="44.77537" lon="6.36039">
        <ele>2670.4</ele>
        <time>2024-08-12T07:55:08Z</time>
      </trkpt>
      <trkpt lat="44.77537" lon="6.36039">
        <ele>2670.6</ele>
        <time>2024-08-12T07:55:09Z</time>
      </trkpt>
      <trkpt lat="44.77537" lon="6.36039">
        <ele>2670.8</ele>
        <time>2024-08-12T07:55:10Z</time>
      </trkpt>
      <trkpt lat="44.77537" lon="6.36039">
        <ele>2671.2</ele>
        <time>2024-08-12T07:55:11Z</time>
      </trkpt>
      <trkpt lat="44.77537" lon="6.36039">
        <ele>2671.6</ele>
        <time>2024-08-12T07:55:12Z</time>
      </trkpt>
      <trkpt lat="44.77534" lon="6.36041">
        <ele>2671.6</ele>
        <time>2024-08-12T07:55:13Z</time>
      </trkpt>
      <trkpt lat="44.77534" lon="6.36041">
        <ele>2672</ele>
        <time>2024-08-12T07:55:14Z</time>
      </trkpt>
      <trkpt lat="44.77534" lon="6.36041">
        <ele>2672</ele>
        <time>2024-08-12T07:55:15Z</time>
      </trkpt>
      <trkpt lat="44.77534" lon="6.36041">
        <ele>2672.2</ele>
        <time>2024-08-12T07:55:16Z</time>
      </trkpt>
      <trkpt lat="44.77534" lon="6.36041">
        <ele>2672.4</ele>
        <time>2024-08-12T07:55:17Z</time>
      </trkpt>
      <trkpt lat="44.77533" lon="6.36041">
        <ele>2672.8</ele>
        <time>2024-08-12T07:55:18Z</time>
      </trkpt>
      <trkpt lat="44.77533" lon="6.36041">
        <ele>2672.8</ele>
        <time>2024-08-12T07:55:19Z</time>
      </trkpt>
      <trkpt lat="44.77533" lon="6.36041">
        <ele>2673.4</ele>
        <time>2024-08-12T07:55:20Z</time>
      </trkpt>
      <trkpt lat="44.77533" lon="6.36041">
        <ele>2673.4</ele>
        <time>2024-08-12T07:55:21Z</time>
      </trkpt>
      <trkpt lat="44.77531" lon="6.36042">
        <ele>2673.4</ele>
        <time>2024-08-12T07:55:22Z</time>
      </trkpt>
      <trkpt lat="44.77531" lon="6.36042">
        <ele>2673.8</ele>
        <time>2024-08-12T07:55:23Z</time>
      </trkpt>
      <trkpt lat="44.77531" lon="6.36042">
        <ele>2674</ele>
        <time>2024-08-12T07:55:24Z</time>
      </trkpt>
      <trkpt lat="44.77531" lon="6.36042">
        <ele>2674.2</ele>
        <time>2024-08-12T07:55:25Z</time>
      </trkpt>
      <trkpt lat="44.77531" lon="6.36042">
        <ele>2674.6</ele>
        <time>2024-08-12T07:55:26Z</time>
      </trkpt>
      <trkpt lat="44.77529" lon="6.36044">
        <ele>2674.8</ele>
        <time>2024-08-12T07:55:27Z</time>
      </trkpt>
      <trkpt lat="44.77529" lon="6.36044">
        <ele>2674.8</ele>
        <time>2024-08-12T07:55:28Z</time>
      </trkpt>
      <trkpt lat="44.77529" lon="6.36044">
        <ele>2675.4</ele>
        <time>2024-08-12T07:55:29Z</time>
      </trkpt>
      <trkpt lat="44.77529" lon="6.36044">
        <ele>2675.4</ele>
        <time>2024-08-12T07:55:30Z</time>
      </trkpt>
      <trkpt lat="44.77527" lon="6.36046">
        <ele>2675.8</ele>
        <time>2024-08-12T07:55:31Z</time>
      </trkpt>
      <trkpt lat="44.77527" lon="6.36046">
        <ele>2675.8</ele>
        <time>2024-08-12T07:55:32Z</time>
      </trkpt>
      <trkpt lat="44.77527" lon="6.36046">
        <ele>2676</ele>
        <time>2024-08-12T07:55:33Z</time>
      </trkpt>
      <trkpt lat="44.77527" lon="6.36046">
        <ele>2676</ele>
        <time>2024-08-12T07:55:34Z</time>
      </trkpt>
      <trkpt lat="44.77527" lon="6.36046">
        <ele>2676.2</ele>
        <time>2024-08-12T07:55:35Z</time>
      </trkpt>
      <trkpt lat="44.77525" lon="6.36047">
        <ele>2676.4</ele>
        <time>2024-08-12T07:55:36Z</time>
      </trkpt>
      <trkpt lat="44.77525" lon="6.36047">
        <ele>2676.6</ele>
        <time>2024-08-12T07:55:37Z</time>
      </trkpt>
      <trkpt lat="44.77525" lon="6.36047">
        <ele>2676.8</ele>
        <time>2024-08-12T07:55:38Z</time>
      </trkpt>
      <trkpt lat="44.77525" lon="6.36047">
        <ele>2677</ele>
        <time>2024-08-12T07:55:39Z</time>
      </trkpt>
      <trkpt lat="44.77525" lon="6.36047">
        <ele>2677.4</ele>
        <time>2024-08-12T07:55:40Z</time>
      </trkpt>
      <trkpt lat="44.77525" lon="6.36047">
        <ele>2677.6</ele>
        <time>2024-08-12T07:55:41Z</time>
      </trkpt>
      <trkpt lat="44.77525" lon="6.36047">
        <ele>2677.6</ele>
        <time>2024-08-12T07:55:42Z</time>
      </trkpt>
      <trkpt lat="44.77525" lon="6.36047">
        <ele>2677.8</ele>
        <time>2024-08-12T07:55:43Z</time>
      </trkpt>
      <trkpt lat="44.77525" lon="6.36047">
        <ele>2677.8</ele>
        <time>2024-08-12T07:55:44Z</time>
      </trkpt>
      <trkpt lat="44.77525" lon="6.36047">
        <ele>2678.2</ele>
        <time>2024-08-12T07:55:45Z</time>
      </trkpt>
      <trkpt lat="44.77525" lon="6.36047">
        <ele>2678.2</ele>
        <time>2024-08-12T07:55:46Z</time>
      </trkpt>
      <trkpt lat="44.77525" lon="6.36047">
        <ele>2678.2</ele>
        <time>2024-08-12T07:55:47Z</time>
      </trkpt>
      <trkpt lat="44.77525" lon="6.36047">
        <ele>2678.2</ele>
        <time>2024-08-12T07:55:48Z</time>
      </trkpt>
      <trkpt lat="44.77525" lon="6.36047">
        <ele>2678.2</ele>
        <time>2024-08-12T07:55:49Z</time>
      </trkpt>
      <trkpt lat="44.77525" lon="6.36047">
        <ele>2678.2</ele>
        <time>2024-08-12T07:55:50Z</time>
      </trkpt>
      <trkpt lat="44.77523" lon="6.36048">
        <ele>2678.2</ele>
        <time>2024-08-12T07:55:51Z</time>
      </trkpt>
      <trkpt lat="44.77523" lon="6.36048">
        <ele>2678.2</ele>
        <time>2024-08-12T07:55:52Z</time>
      </trkpt>
      <trkpt lat="44.77523" lon="6.36048">
        <ele>2678.2</ele>
        <time>2024-08-12T07:55:53Z</time>
      </trkpt>
      <trkpt lat="44.77521" lon="6.3605">
        <ele>2678.4</ele>
        <time>2024-08-12T07:55:54Z</time>
      </trkpt>
      <trkpt lat="44.77521" lon="6.3605">
        <ele>2678.4</ele>
        <time>2024-08-12T07:55:55Z</time>
      </trkpt>
      <trkpt lat="44.77521" lon="6.3605">
        <ele>2679</ele>
        <time>2024-08-12T07:55:56Z</time>
      </trkpt>
      <trkpt lat="44.77518" lon="6.36052">
        <ele>2679</ele>
        <time>2024-08-12T07:55:57Z</time>
      </trkpt>
      <trkpt lat="44.77518" lon="6.36052">
        <ele>2679.2</ele>
        <time>2024-08-12T07:55:58Z</time>
      </trkpt>
      <trkpt lat="44.77518" lon="6.36052">
        <ele>2679.2</ele>
        <time>2024-08-12T07:55:59Z</time>
      </trkpt>
      <trkpt lat="44.77517" lon="6.36052">
        <ele>2679.4</ele>
        <time>2024-08-12T07:56:00Z</time>
      </trkpt>
      <trkpt lat="44.77517" lon="6.36052">
        <ele>2679.4</ele>
        <time>2024-08-12T07:56:01Z</time>
      </trkpt>
      <trkpt lat="44.77517" lon="6.36052">
        <ele>2680</ele>
        <time>2024-08-12T07:56:02Z</time>
      </trkpt>
      <trkpt lat="44.77517" lon="6.36052">
        <ele>2680</ele>
        <time>2024-08-12T07:56:03Z</time>
      </trkpt>
      <trkpt lat="44.77517" lon="6.36052">
        <ele>2680.6</ele>
        <time>2024-08-12T07:56:04Z</time>
      </trkpt>
      <trkpt lat="44.77517" lon="6.36052">
        <ele>2680.6</ele>
        <time>2024-08-12T07:56:05Z</time>
      </trkpt>
      <trkpt lat="44.77517" lon="6.36052">
        <ele>2680.6</ele>
        <time>2024-08-12T07:56:06Z</time>
      </trkpt>
      <trkpt lat="44.77517" lon="6.36052">
        <ele>2680.6</ele>
        <time>2024-08-12T07:56:07Z</time>
      </trkpt>
      <trkpt lat="44.77517" lon="6.36052">
        <ele>2680.6</ele>
        <time>2024-08-12T07:56:08Z</time>
      </trkpt>
      <trkpt lat="44.77517" lon="6.36052">
        <ele>2680.8</ele>
        <time>2024-08-12T07:56:09Z</time>
      </trkpt>
      <trkpt lat="44.77517" lon="6.36052">
        <ele>2680.8</ele>
        <time>2024-08-12T07:56:10Z</time>
      </trkpt>
      <trkpt lat="44.77517" lon="6.36052">
        <ele>2680.6</ele>
        <time>2024-08-12T07:56:11Z</time>
      </trkpt>
      <trkpt lat="44.77517" lon="6.36052">
        <ele>2680.4</ele>
        <time>2024-08-12T07:56:12Z</time>
      </trkpt>
      <trkpt lat="44.77517" lon="6.36052">
        <ele>2680.4</ele>
        <time>2024-08-12T07:56:13Z</time>
      </trkpt>
      <trkpt lat="44.77517" lon="6.36052">
        <ele>2680.6</ele>
        <time>2024-08-12T07:56:14Z</time>
      </trkpt>
      <trkpt lat="44.77517" lon="6.36052">
        <ele>2680.6</ele>
        <time>2024-08-12T07:56:15Z</time>
      </trkpt>
      <trkpt lat="44.77517" lon="6.36052">
        <ele>2680.8</ele>
        <time>2024-08-12T07:56:16Z</time>
      </trkpt>
      <trkpt lat="44.77517" lon="6.36052">
        <ele>2680.8</ele>
        <time>2024-08-12T07:56:17Z</time>
      </trkpt>
      <trkpt lat="44.77517" lon="6.36052">
        <ele>2680.6</ele>
        <time>2024-08-12T07:56:18Z</time>
      </trkpt>
      <trkpt lat="44.77517" lon="6.36052">
        <ele>2680.6</ele>
        <time>2024-08-12T07:56:19Z</time>
      </trkpt>
      <trkpt lat="44.77517" lon="6.36052">
        <ele>2680.6</ele>
        <time>2024-08-12T07:56:20Z</time>
      </trkpt>
      <trkpt lat="44.77517" lon="6.36052">
        <ele>2680.6</ele>
        <time>2024-08-12T07:56:21Z</time>
      </trkpt>
      <trkpt lat="44.77517" lon="6.36052">
        <ele>2680.6</ele>
        <time>2024-08-12T07:56:22Z</time>
      </trkpt>
      <trkpt lat="44.77517" lon="6.36052">
        <ele>2680.6</ele>
        <time>2024-08-12T07:56:23Z</time>
      </trkpt>
      <trkpt lat="44.77517" lon="6.36052">
        <ele>2680.8</ele>
        <time>2024-08-12T07:56:24Z</time>
      </trkpt>
      <trkpt lat="44.77517" lon="6.36052">
        <ele>2680.8</ele>
        <time>2024-08-12T07:56:25Z</time>
      </trkpt>
      <trkpt lat="44.77517" lon="6.36052">
        <ele>2680.8</ele>
        <time>2024-08-12T07:56:26Z</time>
      </trkpt>
      <trkpt lat="44.77517" lon="6.36052">
        <ele>2680.8</ele>
        <time>2024-08-12T07:56:27Z</time>
      </trkpt>
      <trkpt lat="44.77517" lon="6.36052">
        <ele>2680.8</ele>
        <time>2024-08-12T07:56:28Z</time>
      </trkpt>
      <trkpt lat="44.77517" lon="6.36052">
        <ele>2680.6</ele>
        <time>2024-08-12T07:56:29Z</time>
      </trkpt>
      <trkpt lat="44.77517" lon="6.36052">
        <ele>2680.4</ele>
        <time>2024-08-12T07:56:30Z</time>
      </trkpt>
      <trkpt lat="44.77517" lon="6.36052">
        <ele>2680.2</ele>
        <time>2024-08-12T07:56:31Z</time>
      </trkpt>
      <trkpt lat="44.77517" lon="6.36052">
        <ele>2680.2</ele>
        <time>2024-08-12T07:56:32Z</time>
      </trkpt>
      <trkpt lat="44.77517" lon="6.36052">
        <ele>2680.2</ele>
        <time>2024-08-12T07:56:33Z</time>
      </trkpt>
      <trkpt lat="44.77517" lon="6.36052">
        <ele>2680.2</ele>
        <time>2024-08-12T07:56:34Z</time>
      </trkpt>
      <trkpt lat="44.77517" lon="6.36052">
        <ele>2680.2</ele>
        <time>2024-08-12T07:56:35Z</time>
      </trkpt>
      <trkpt lat="44.77517" lon="6.36052">
        <ele>2680.2</ele>
        <time>2024-08-12T07:56:36Z</time>
      </trkpt>
      <trkpt lat="44.77517" lon="6.36052">
        <ele>2680.2</ele>
        <time>2024-08-12T07:56:37Z</time>
      </trkpt>
      <trkpt lat="44.77517" lon="6.36052">
        <ele>2680.2</ele>
        <time>2024-08-12T07:56:38Z</time>
      </trkpt>
      <trkpt lat="44.77517" lon="6.36052">
        <ele>2680.2</ele>
        <time>2024-08-12T07:56:39Z</time>
      </trkpt>
      <trkpt lat="44.77517" lon="6.36052">
        <ele>2680.2</ele>
        <time>2024-08-12T07:56:40Z</time>
      </trkpt>
      <trkpt lat="44.77517" lon="6.36052">
        <ele>2680.4</ele>
        <time>2024-08-12T07:56:41Z</time>
      </trkpt>
      <trkpt lat="44.77517" lon="6.36052">
        <ele>2680.6</ele>
        <time>2024-08-12T07:56:42Z</time>
      </trkpt>
      <trkpt lat="44.77517" lon="6.36052">
        <ele>2680.6</ele>
        <time>2024-08-12T07:56:43Z</time>
      </trkpt>
      <trkpt lat="44.77517" lon="6.36052">
        <ele>2680.2</ele>
        <time>2024-08-12T07:56:44Z</time>
      </trkpt>
      <trkpt lat="44.77517" lon="6.36052">
        <ele>2680.2</ele>
        <time>2024-08-12T07:56:45Z</time>
      </trkpt>
      <trkpt lat="44.77517" lon="6.36052">
        <ele>2680.2</ele>
        <time>2024-08-12T07:56:46Z</time>
      </trkpt>
      <trkpt lat="44.77517" lon="6.36052">
        <ele>2680.4</ele>
        <time>2024-08-12T07:56:47Z</time>
      </trkpt>
      <trkpt lat="44.77517" lon="6.36052">
        <ele>2680.4</ele>
        <time>2024-08-12T07:56:48Z</time>
      </trkpt>
      <trkpt lat="44.77517" lon="6.36052">
        <ele>2680.2</ele>
        <time>2024-08-12T07:56:49Z</time>
      </trkpt>
      <trkpt lat="44.77517" lon="6.36052">
        <ele>2680.2</ele>
        <time>2024-08-12T07:56:50Z</time>
      </trkpt>
      <trkpt lat="44.77517" lon="6.36052">
        <ele>2680.4</ele>
        <time>2024-08-12T07:56:51Z</time>
      </trkpt>
      <trkpt lat="44.77517" lon="6.36052">
        <ele>2680.4</ele>
        <time>2024-08-12T07:56:52Z</time>
      </trkpt>
      <trkpt lat="44.77517" lon="6.36052">
        <ele>2680.6</ele>
        <time>2024-08-12T07:56:53Z</time>
      </trkpt>
      <trkpt lat="44.77517" lon="6.36052">
        <ele>2680.6</ele>
        <time>2024-08-12T07:56:54Z</time>
      </trkpt>
      <trkpt lat="44.77517" lon="6.36052">
        <ele>2680.4</ele>
        <time>2024-08-12T07:56:55Z</time>
      </trkpt>
      <trkpt lat="44.77517" lon="6.36052">
        <ele>2680.4</ele>
        <time>2024-08-12T07:56:56Z</time>
      </trkpt>
      <trkpt lat="44.77517" lon="6.36052">
        <ele>2680.4</ele>
        <time>2024-08-12T07:56:57Z</time>
      </trkpt>
      <trkpt lat="44.77517" lon="6.36052">
        <ele>2680.4</ele>
        <time>2024-08-12T07:56:58Z</time>
      </trkpt>
      <trkpt lat="44.77517" lon="6.36052">
        <ele>2680.4</ele>
        <time>2024-08-12T07:56:59Z</time>
      </trkpt>
      <trkpt lat="44.77517" lon="6.36052">
        <ele>2680.4</ele>
        <time>2024-08-12T07:57:00Z</time>
      </trkpt>
      <trkpt lat="44.77517" lon="6.36052">
        <ele>2680.4</ele>
        <time>2024-08-12T07:57:01Z</time>
      </trkpt>
      <trkpt lat="44.77517" lon="6.36052">
        <ele>2680.6</ele>
        <time>2024-08-12T07:57:02Z</time>
      </trkpt>
      <trkpt lat="44.77517" lon="6.36052">
        <ele>2680.6</ele>
        <time>2024-08-12T07:57:03Z</time>
      </trkpt>
      <trkpt lat="44.77517" lon="6.36052">
        <ele>2680.6</ele>
        <time>2024-08-12T07:57:04Z</time>
      </trkpt>
      <trkpt lat="44.77517" lon="6.36052">
        <ele>2680.6</ele>
        <time>2024-08-12T07:57:05Z</time>
      </trkpt>
      <trkpt lat="44.77517" lon="6.36052">
        <ele>2680.8</ele>
        <time>2024-08-12T07:57:06Z</time>
      </trkpt>
      <trkpt lat="44.77517" lon="6.36052">
        <ele>2680.8</ele>
        <time>2024-08-12T07:57:07Z</time>
      </trkpt>
      <trkpt lat="44.77517" lon="6.36052">
        <ele>2680.8</ele>
        <time>2024-08-12T07:57:08Z</time>
      </trkpt>
      <trkpt lat="44.77517" lon="6.36052">
        <ele>2680.8</ele>
        <time>2024-08-12T07:57:09Z</time>
      </trkpt>
      <trkpt lat="44.77517" lon="6.36052">
        <ele>2680.6</ele>
        <time>2024-08-12T07:57:10Z</time>
      </trkpt>
      <trkpt lat="44.77517" lon="6.36052">
        <ele>2680.8</ele>
        <time>2024-08-12T07:57:11Z</time>
      </trkpt>
      <trkpt lat="44.77517" lon="6.36052">
        <ele>2680.8</ele>
        <time>2024-08-12T07:57:12Z</time>
      </trkpt>
      <trkpt lat="44.77517" lon="6.36052">
        <ele>2680.8</ele>
        <time>2024-08-12T07:57:13Z</time>
      </trkpt>
      <trkpt lat="44.77517" lon="6.36052">
        <ele>2681</ele>
        <time>2024-08-12T07:57:14Z</time>
      </trkpt>
      <trkpt lat="44.77517" lon="6.36052">
        <ele>2681</ele>
        <time>2024-08-12T07:57:15Z</time>
      </trkpt>
      <trkpt lat="44.77517" lon="6.36052">
        <ele>2680.8</ele>
        <time>2024-08-12T07:57:16Z</time>
      </trkpt>
      <trkpt lat="44.77517" lon="6.36052">
        <ele>2680.6</ele>
        <time>2024-08-12T07:57:17Z</time>
      </trkpt>
      <trkpt lat="44.77517" lon="6.36052">
        <ele>2680.6</ele>
        <time>2024-08-12T07:57:18Z</time>
      </trkpt>
      <trkpt lat="44.77517" lon="6.36052">
        <ele>2680.8</ele>
        <time>2024-08-12T07:57:19Z</time>
      </trkpt>
      <trkpt lat="44.77517" lon="6.36052">
        <ele>2681</ele>
        <time>2024-08-12T07:57:20Z</time>
      </trkpt>
      <trkpt lat="44.77517" lon="6.36052">
        <ele>2681</ele>
        <time>2024-08-12T07:57:21Z</time>
      </trkpt>
      <trkpt lat="44.77517" lon="6.36052">
        <ele>2681.2</ele>
        <time>2024-08-12T07:57:22Z</time>
      </trkpt>
      <trkpt lat="44.77517" lon="6.36052">
        <ele>2681.2</ele>
        <time>2024-08-12T07:57:23Z</time>
      </trkpt>
      <trkpt lat="44.77517" lon="6.36052">
        <ele>2681</ele>
        <time>2024-08-12T07:57:24Z</time>
      </trkpt>
      <trkpt lat="44.77517" lon="6.36052">
        <ele>2680.8</ele>
        <time>2024-08-12T07:57:25Z</time>
      </trkpt>
      <trkpt lat="44.77517" lon="6.36052">
        <ele>2680.6</ele>
        <time>2024-08-12T07:57:26Z</time>
      </trkpt>
      <trkpt lat="44.77517" lon="6.36052">
        <ele>2680.6</ele>
        <time>2024-08-12T07:57:27Z</time>
      </trkpt>
      <trkpt lat="44.77517" lon="6.36052">
        <ele>2680.6</ele>
        <time>2024-08-12T07:57:28Z</time>
      </trkpt>
      <trkpt lat="44.77517" lon="6.36052">
        <ele>2681</ele>
        <time>2024-08-12T07:57:29Z</time>
      </trkpt>
      <trkpt lat="44.77517" lon="6.36052">
        <ele>2681</ele>
        <time>2024-08-12T07:57:30Z</time>
      </trkpt>
      <trkpt lat="44.77517" lon="6.36052">
        <ele>2681</ele>
        <time>2024-08-12T07:57:31Z</time>
      </trkpt>
      <trkpt lat="44.77517" lon="6.36052">
        <ele>2681</ele>
        <time>2024-08-12T07:57:32Z</time>
      </trkpt>
      <trkpt lat="44.77517" lon="6.36052">
        <ele>2680.8</ele>
        <time>2024-08-12T07:57:33Z</time>
      </trkpt>
      <trkpt lat="44.77517" lon="6.36052">
        <ele>2681</ele>
        <time>2024-08-12T07:57:34Z</time>
      </trkpt>
      <trkpt lat="44.77517" lon="6.36052">
        <ele>2681.2</ele>
        <time>2024-08-12T07:57:35Z</time>
      </trkpt>
      <trkpt lat="44.77517" lon="6.36052">
        <ele>2681.2</ele>
        <time>2024-08-12T07:57:36Z</time>
      </trkpt>
      <trkpt lat="44.77517" lon="6.36052">
        <ele>2681.2</ele>
        <time>2024-08-12T07:57:37Z</time>
      </trkpt>
      <trkpt lat="44.77517" lon="6.36052">
        <ele>2681.2</ele>
        <time>2024-08-12T07:57:38Z</time>
      </trkpt>
      <trkpt lat="44.77517" lon="6.36052">
        <ele>2681.2</ele>
        <time>2024-08-12T07:57:39Z</time>
      </trkpt>
      <trkpt lat="44.77517" lon="6.36052">
        <ele>2681.2</ele>
        <time>2024-08-12T07:57:40Z</time>
      </trkpt>
      <trkpt lat="44.77517" lon="6.36052">
        <ele>2681.2</ele>
        <time>2024-08-12T07:57:41Z</time>
      </trkpt>
      <trkpt lat="44.77517" lon="6.36052">
        <ele>2681.2</ele>
        <time>2024-08-12T07:57:42Z</time>
      </trkpt>
      <trkpt lat="44.77517" lon="6.36052">
        <ele>2681.2</ele>
        <time>2024-08-12T07:57:43Z</time>
      </trkpt>
      <trkpt lat="44.77517" lon="6.36052">
        <ele>2681.2</ele>
        <time>2024-08-12T07:57:44Z</time>
      </trkpt>
      <trkpt lat="44.77517" lon="6.36052">
        <ele>2681</ele>
        <time>2024-08-12T07:57:45Z</time>
      </trkpt>
      <trkpt lat="44.77517" lon="6.36052">
        <ele>2681</ele>
        <time>2024-08-12T07:57:46Z</time>
      </trkpt>
      <trkpt lat="44.77517" lon="6.36052">
        <ele>2681</ele>
        <time>2024-08-12T07:57:47Z</time>
      </trkpt>
      <trkpt lat="44.77517" lon="6.36052">
        <ele>2681</ele>
        <time>2024-08-12T07:57:48Z</time>
      </trkpt>
      <trkpt lat="44.77517" lon="6.36052">
        <ele>2681</ele>
        <time>2024-08-12T07:57:49Z</time>
      </trkpt>
      <trkpt lat="44.77517" lon="6.36052">
        <ele>2681.2</ele>
        <time>2024-08-12T07:57:50Z</time>
      </trkpt>
      <trkpt lat="44.77517" lon="6.36052">
        <ele>2681.2</ele>
        <time>2024-08-12T07:57:51Z</time>
      </trkpt>
      <trkpt lat="44.77517" lon="6.36052">
        <ele>2681</ele>
        <time>2024-08-12T07:57:52Z</time>
      </trkpt>
      <trkpt lat="44.77517" lon="6.36052">
        <ele>2681</ele>
        <time>2024-08-12T07:57:53Z</time>
      </trkpt>
      <trkpt lat="44.77517" lon="6.36052">
        <ele>2681</ele>
        <time>2024-08-12T07:57:54Z</time>
      </trkpt>
      <trkpt lat="44.77517" lon="6.36052">
        <ele>2681</ele>
        <time>2024-08-12T07:57:55Z</time>
      </trkpt>
      <trkpt lat="44.77517" lon="6.36052">
        <ele>2681.4</ele>
        <time>2024-08-12T07:57:56Z</time>
      </trkpt>
      <trkpt lat="44.77517" lon="6.36052">
        <ele>2681.4</ele>
        <time>2024-08-12T07:57:57Z</time>
      </trkpt>
      <trkpt lat="44.77517" lon="6.36052">
        <ele>2681.4</ele>
        <time>2024-08-12T07:57:58Z</time>
      </trkpt>
      <trkpt lat="44.77517" lon="6.36052">
        <ele>2681.4</ele>
        <time>2024-08-12T07:57:59Z</time>
      </trkpt>
      <trkpt lat="44.77517" lon="6.36052">
        <ele>2681.4</ele>
        <time>2024-08-12T07:58:00Z</time>
      </trkpt>
      <trkpt lat="44.77517" lon="6.36052">
        <ele>2681.4</ele>
        <time>2024-08-12T07:58:01Z</time>
      </trkpt>
      <trkpt lat="44.77517" lon="6.36052">
        <ele>2682</ele>
        <time>2024-08-12T07:58:02Z</time>
      </trkpt>
      <trkpt lat="44.77517" lon="6.36052">
        <ele>2682</ele>
        <time>2024-08-12T07:58:03Z</time>
      </trkpt>
      <trkpt lat="44.77517" lon="6.36052">
        <ele>2682</ele>
        <time>2024-08-12T07:58:04Z</time>
      </trkpt>
      <trkpt lat="44.77517" lon="6.36052">
        <ele>2682</ele>
        <time>2024-08-12T07:58:05Z</time>
      </trkpt>
      <trkpt lat="44.77517" lon="6.36052">
        <ele>2682</ele>
        <time>2024-08-12T07:58:06Z</time>
      </trkpt>
      <trkpt lat="44.77517" lon="6.36052">
        <ele>2681.6</ele>
        <time>2024-08-12T07:58:07Z</time>
      </trkpt>
      <trkpt lat="44.77517" lon="6.36052">
        <ele>2681.2</ele>
        <time>2024-08-12T07:58:08Z</time>
      </trkpt>
      <trkpt lat="44.77517" lon="6.36052">
        <ele>2681.2</ele>
        <time>2024-08-12T07:58:09Z</time>
      </trkpt>
      <trkpt lat="44.77517" lon="6.36052">
        <ele>2681.4</ele>
        <time>2024-08-12T07:58:10Z</time>
      </trkpt>
      <trkpt lat="44.77517" lon="6.36052">
        <ele>2681.4</ele>
        <time>2024-08-12T07:58:11Z</time>
      </trkpt>
      <trkpt lat="44.77517" lon="6.36052">
        <ele>2681.6</ele>
        <time>2024-08-12T07:58:12Z</time>
      </trkpt>
      <trkpt lat="44.77517" lon="6.36052">
        <ele>2681.8</ele>
        <time>2024-08-12T07:58:13Z</time>
      </trkpt>
      <trkpt lat="44.77517" lon="6.36052">
        <ele>2681.8</ele>
        <time>2024-08-12T07:58:14Z</time>
      </trkpt>
      <trkpt lat="44.77517" lon="6.36052">
        <ele>2681.8</ele>
        <time>2024-08-12T07:58:15Z</time>
      </trkpt>
      <trkpt lat="44.77517" lon="6.36052">
        <ele>2681.8</ele>
        <time>2024-08-12T07:58:16Z</time>
      </trkpt>
      <trkpt lat="44.77517" lon="6.36052">
        <ele>2681.6</ele>
        <time>2024-08-12T07:58:17Z</time>
      </trkpt>
      <trkpt lat="44.77517" lon="6.36052">
        <ele>2681.6</ele>
        <time>2024-08-12T07:58:18Z</time>
      </trkpt>
      <trkpt lat="44.77517" lon="6.36052">
        <ele>2681.8</ele>
        <time>2024-08-12T07:58:19Z</time>
      </trkpt>
      <trkpt lat="44.77517" lon="6.36052">
        <ele>2682</ele>
        <time>2024-08-12T07:58:20Z</time>
      </trkpt>
      <trkpt lat="44.77517" lon="6.36052">
        <ele>2682</ele>
        <time>2024-08-12T07:58:21Z</time>
      </trkpt>
      <trkpt lat="44.77517" lon="6.36052">
        <ele>2681.8</ele>
        <time>2024-08-12T07:58:22Z</time>
      </trkpt>
      <trkpt lat="44.77517" lon="6.36052">
        <ele>2681.8</ele>
        <time>2024-08-12T07:58:23Z</time>
      </trkpt>
      <trkpt lat="44.77517" lon="6.36052">
        <ele>2681.8</ele>
        <time>2024-08-12T07:58:24Z</time>
      </trkpt>
      <trkpt lat="44.77517" lon="6.36052">
        <ele>2682.2</ele>
        <time>2024-08-12T07:58:25Z</time>
      </trkpt>
      <trkpt lat="44.77517" lon="6.36052">
        <ele>2682.4</ele>
        <time>2024-08-12T07:58:26Z</time>
      </trkpt>
      <trkpt lat="44.77517" lon="6.36052">
        <ele>2682.8</ele>
        <time>2024-08-12T07:58:27Z</time>
      </trkpt>
      <trkpt lat="44.77517" lon="6.36052">
        <ele>2683</ele>
        <time>2024-08-12T07:58:28Z</time>
      </trkpt>
      <trkpt lat="44.77517" lon="6.36052">
        <ele>2683</ele>
        <time>2024-08-12T07:58:29Z</time>
      </trkpt>
      <trkpt lat="44.77517" lon="6.36052">
        <ele>2683.2</ele>
        <time>2024-08-12T07:58:30Z</time>
      </trkpt>
      <trkpt lat="44.77517" lon="6.36052">
        <ele>2683.2</ele>
        <time>2024-08-12T07:58:31Z</time>
      </trkpt>
      <trkpt lat="44.77517" lon="6.36052">
        <ele>2682.8</ele>
        <time>2024-08-12T07:58:32Z</time>
      </trkpt>
      <trkpt lat="44.77517" lon="6.36052">
        <ele>2682</ele>
        <time>2024-08-12T07:58:33Z</time>
      </trkpt>
      <trkpt lat="44.77517" lon="6.36052">
        <ele>2682</ele>
        <time>2024-08-12T07:58:34Z</time>
      </trkpt>
      <trkpt lat="44.77517" lon="6.36052">
        <ele>2682</ele>
        <time>2024-08-12T07:58:35Z</time>
      </trkpt>
      <trkpt lat="44.77517" lon="6.36052">
        <ele>2682.2</ele>
        <time>2024-08-12T07:58:36Z</time>
      </trkpt>
      <trkpt lat="44.77517" lon="6.36052">
        <ele>2681.8</ele>
        <time>2024-08-12T07:58:37Z</time>
      </trkpt>
      <trkpt lat="44.77517" lon="6.36052">
        <ele>2681.8</ele>
        <time>2024-08-12T07:58:38Z</time>
      </trkpt>
      <trkpt lat="44.77517" lon="6.36052">
        <ele>2682</ele>
        <time>2024-08-12T07:58:39Z</time>
      </trkpt>
      <trkpt lat="44.77517" lon="6.36052">
        <ele>2682.2</ele>
        <time>2024-08-12T07:58:40Z</time>
      </trkpt>
      <trkpt lat="44.77517" lon="6.36052">
        <ele>2682.2</ele>
        <time>2024-08-12T07:58:41Z</time>
      </trkpt>
      <trkpt lat="44.77517" lon="6.36052">
        <ele>2682.2</ele>
        <time>2024-08-12T07:58:42Z</time>
      </trkpt>
      <trkpt lat="44.77517" lon="6.36052">
        <ele>2682.2</ele>
        <time>2024-08-12T07:58:43Z</time>
      </trkpt>
      <trkpt lat="44.77517" lon="6.36052">
        <ele>2682.2</ele>
        <time>2024-08-12T07:58:44Z</time>
      </trkpt>
      <trkpt lat="44.77517" lon="6.36052">
        <ele>2682</ele>
        <time>2024-08-12T07:58:45Z</time>
      </trkpt>
      <trkpt lat="44.77517" lon="6.36052">
        <ele>2682</ele>
        <time>2024-08-12T07:58:46Z</time>
      </trkpt>
      <trkpt lat="44.77517" lon="6.36052">
        <ele>2682</ele>
        <time>2024-08-12T07:58:47Z</time>
      </trkpt>
      <trkpt lat="44.77517" lon="6.36052">
        <ele>2681.8</ele>
        <time>2024-08-12T07:58:48Z</time>
      </trkpt>
      <trkpt lat="44.77517" lon="6.36052">
        <ele>2681.8</ele>
        <time>2024-08-12T07:58:49Z</time>
      </trkpt>
      <trkpt lat="44.77517" lon="6.36052">
        <ele>2682</ele>
        <time>2024-08-12T07:58:50Z</time>
      </trkpt>
      <trkpt lat="44.77517" lon="6.36052">
        <ele>2682.8</ele>
        <time>2024-08-12T07:58:51Z</time>
      </trkpt>
      <trkpt lat="44.77517" lon="6.36052">
        <ele>2682.8</ele>
        <time>2024-08-12T07:58:52Z</time>
      </trkpt>
      <trkpt lat="44.77517" lon="6.36052">
        <ele>2682.4</ele>
        <time>2024-08-12T07:58:53Z</time>
      </trkpt>
      <trkpt lat="44.77517" lon="6.36052">
        <ele>2682.4</ele>
        <time>2024-08-12T07:58:54Z</time>
      </trkpt>
      <trkpt lat="44.77517" lon="6.36052">
        <ele>2682.8</ele>
        <time>2024-08-12T07:58:55Z</time>
      </trkpt>
      <trkpt lat="44.77517" lon="6.36052">
        <ele>2683</ele>
        <time>2024-08-12T07:58:56Z</time>
      </trkpt>
      <trkpt lat="44.77517" lon="6.36052">
        <ele>2683</ele>
        <time>2024-08-12T07:58:57Z</time>
      </trkpt>
      <trkpt lat="44.77517" lon="6.36052">
        <ele>2682.8</ele>
        <time>2024-08-12T07:58:58Z</time>
      </trkpt>
      <trkpt lat="44.77517" lon="6.36052">
        <ele>2682.8</ele>
        <time>2024-08-12T07:58:59Z</time>
      </trkpt>
      <trkpt lat="44.77517" lon="6.36052">
        <ele>2682.6</ele>
        <time>2024-08-12T07:59:00Z</time>
      </trkpt>
      <trkpt lat="44.77517" lon="6.36052">
        <ele>2682.2</ele>
        <time>2024-08-12T07:59:01Z</time>
      </trkpt>
      <trkpt lat="44.77517" lon="6.36052">
        <ele>2682.6</ele>
        <time>2024-08-12T07:59:02Z</time>
      </trkpt>
      <trkpt lat="44.77517" lon="6.36052">
        <ele>2682.6</ele>
        <time>2024-08-12T07:59:03Z</time>
      </trkpt>
      <trkpt lat="44.77517" lon="6.36052">
        <ele>2682.6</ele>
        <time>2024-08-12T07:59:04Z</time>
      </trkpt>
      <trkpt lat="44.77517" lon="6.36052">
        <ele>2682.8</ele>
        <time>2024-08-12T07:59:05Z</time>
      </trkpt>
      <trkpt lat="44.77517" lon="6.36052">
        <ele>2682.8</ele>
        <time>2024-08-12T07:59:06Z</time>
      </trkpt>
      <trkpt lat="44.77517" lon="6.36052">
        <ele>2682.8</ele>
        <time>2024-08-12T07:59:07Z</time>
      </trkpt>
      <trkpt lat="44.77517" lon="6.36052">
        <ele>2682.8</ele>
        <time>2024-08-12T07:59:08Z</time>
      </trkpt>
      <trkpt lat="44.77517" lon="6.36052">
        <ele>2682.8</ele>
        <time>2024-08-12T07:59:09Z</time>
      </trkpt>
      <trkpt lat="44.77517" lon="6.36052">
        <ele>2682.8</ele>
        <time>2024-08-12T07:59:10Z</time>
      </trkpt>
      <trkpt lat="44.77517" lon="6.36052">
        <ele>2682.8</ele>
        <time>2024-08-12T07:59:11Z</time>
      </trkpt>
      <trkpt lat="44.77517" lon="6.36052">
        <ele>2682.6</ele>
        <time>2024-08-12T07:59:12Z</time>
      </trkpt>
      <trkpt lat="44.77517" lon="6.36052">
        <ele>2682.6</ele>
        <time>2024-08-12T07:59:13Z</time>
      </trkpt>
      <trkpt lat="44.77517" lon="6.36052">
        <ele>2682.4</ele>
        <time>2024-08-12T07:59:14Z</time>
      </trkpt>
      <trkpt lat="44.77517" lon="6.36052">
        <ele>2682.4</ele>
        <time>2024-08-12T07:59:15Z</time>
      </trkpt>
      <trkpt lat="44.77517" lon="6.36052">
        <ele>2682.4</ele>
        <time>2024-08-12T07:59:16Z</time>
      </trkpt>
      <trkpt lat="44.77517" lon="6.36052">
        <ele>2682.4</ele>
        <time>2024-08-12T07:59:17Z</time>
      </trkpt>
      <trkpt lat="44.77517" lon="6.36052">
        <ele>2682.6</ele>
        <time>2024-08-12T07:59:18Z</time>
      </trkpt>
      <trkpt lat="44.77517" lon="6.36052">
        <ele>2682.8</ele>
        <time>2024-08-12T07:59:19Z</time>
      </trkpt>
      <trkpt lat="44.77517" lon="6.36052">
        <ele>2682.2</ele>
        <time>2024-08-12T07:59:20Z</time>
      </trkpt>
      <trkpt lat="44.77517" lon="6.36052">
        <ele>2682.2</ele>
        <time>2024-08-12T07:59:21Z</time>
      </trkpt>
      <trkpt lat="44.77517" lon="6.36052">
        <ele>2682.2</ele>
        <time>2024-08-12T07:59:22Z</time>
      </trkpt>
      <trkpt lat="44.77517" lon="6.36052">
        <ele>2682.2</ele>
        <time>2024-08-12T07:59:23Z</time>
      </trkpt>
      <trkpt lat="44.77517" lon="6.36052">
        <ele>2682.2</ele>
        <time>2024-08-12T07:59:24Z</time>
      </trkpt>
      <trkpt lat="44.77517" lon="6.36052">
        <ele>2682.6</ele>
        <time>2024-08-12T07:59:25Z</time>
      </trkpt>
      <trkpt lat="44.77517" lon="6.36052">
        <ele>2682.6</ele>
        <time>2024-08-12T07:59:26Z</time>
      </trkpt>
      <trkpt lat="44.77517" lon="6.36052">
        <ele>2682.6</ele>
        <time>2024-08-12T07:59:27Z</time>
      </trkpt>
      <trkpt lat="44.77517" lon="6.36052">
        <ele>2682.6</ele>
        <time>2024-08-12T07:59:28Z</time>
      </trkpt>
      <trkpt lat="44.77517" lon="6.36052">
        <ele>2682.6</ele>
        <time>2024-08-12T07:59:29Z</time>
      </trkpt>
      <trkpt lat="44.77517" lon="6.36052">
        <ele>2682.6</ele>
        <time>2024-08-12T07:59:30Z</time>
      </trkpt>
      <trkpt lat="44.77517" lon="6.36052">
        <ele>2682.8</ele>
        <time>2024-08-12T07:59:31Z</time>
      </trkpt>
      <trkpt lat="44.77517" lon="6.36052">
        <ele>2683</ele>
        <time>2024-08-12T07:59:32Z</time>
      </trkpt>
      <trkpt lat="44.77517" lon="6.36052">
        <ele>2683</ele>
        <time>2024-08-12T07:59:33Z</time>
      </trkpt>
      <trkpt lat="44.77517" lon="6.36052">
        <ele>2683</ele>
        <time>2024-08-12T07:59:34Z</time>
      </trkpt>
      <trkpt lat="44.77517" lon="6.36052">
        <ele>2682.8</ele>
        <time>2024-08-12T07:59:35Z</time>
      </trkpt>
      <trkpt lat="44.77517" lon="6.36052">
        <ele>2682.8</ele>
        <time>2024-08-12T07:59:36Z</time>
      </trkpt>
      <trkpt lat="44.77517" lon="6.36052">
        <ele>2682.8</ele>
        <time>2024-08-12T07:59:37Z</time>
      </trkpt>
      <trkpt lat="44.77517" lon="6.36052">
        <ele>2682.6</ele>
        <time>2024-08-12T07:59:38Z</time>
      </trkpt>
      <trkpt lat="44.77517" lon="6.36052">
        <ele>2682.6</ele>
        <time>2024-08-12T07:59:39Z</time>
      </trkpt>
      <trkpt lat="44.77517" lon="6.36052">
        <ele>2682.6</ele>
        <time>2024-08-12T07:59:40Z</time>
      </trkpt>
      <trkpt lat="44.77517" lon="6.36052">
        <ele>2682.6</ele>
        <time>2024-08-12T07:59:41Z</time>
      </trkpt>
      <trkpt lat="44.77517" lon="6.36052">
        <ele>2682.4</ele>
        <time>2024-08-12T07:59:42Z</time>
      </trkpt>
      <trkpt lat="44.77517" lon="6.36052">
        <ele>2682.4</ele>
        <time>2024-08-12T07:59:43Z</time>
      </trkpt>
      <trkpt lat="44.77517" lon="6.36052">
        <ele>2682.4</ele>
        <time>2024-08-12T07:59:44Z</time>
      </trkpt>
      <trkpt lat="44.77516" lon="6.36055">
        <ele>2682.4</ele>
        <time>2024-08-12T07:59:45Z</time>
      </trkpt>
      <trkpt lat="44.77516" lon="6.36055">
        <ele>2682.4</ele>
        <time>2024-08-12T07:59:46Z</time>
      </trkpt>
      <trkpt lat="44.77514" lon="6.36057">
        <ele>2682.4</ele>
        <time>2024-08-12T07:59:47Z</time>
      </trkpt>
      <trkpt lat="44.77514" lon="6.36057">
        <ele>2682.4</ele>
        <time>2024-08-12T07:59:48Z</time>
      </trkpt>
      <trkpt lat="44.77513" lon="6.36058">
        <ele>2682.6</ele>
        <time>2024-08-12T07:59:49Z</time>
      </trkpt>
      <trkpt lat="44.77513" lon="6.36058">
        <ele>2682.6</ele>
        <time>2024-08-12T07:59:50Z</time>
      </trkpt>
      <trkpt lat="44.77513" lon="6.36058">
        <ele>2682.8</ele>
        <time>2024-08-12T07:59:51Z</time>
      </trkpt>
      <trkpt lat="44.77513" lon="6.36058">
        <ele>2683</ele>
        <time>2024-08-12T07:59:52Z</time>
      </trkpt>
      <trkpt lat="44.77511" lon="6.3606">
        <ele>2683.4</ele>
        <time>2024-08-12T07:59:53Z</time>
      </trkpt>
      <trkpt lat="44.77511" lon="6.3606">
        <ele>2683.8</ele>
        <time>2024-08-12T07:59:54Z</time>
      </trkpt>
      <trkpt lat="44.77511" lon="6.3606">
        <ele>2684</ele>
        <time>2024-08-12T07:59:55Z</time>
      </trkpt>
      <trkpt lat="44.77511" lon="6.3606">
        <ele>2684</ele>
        <time>2024-08-12T07:59:56Z</time>
      </trkpt>
      <trkpt lat="44.77509" lon="6.3606">
        <ele>2684.2</ele>
        <time>2024-08-12T07:59:57Z</time>
      </trkpt>
      <trkpt lat="44.77509" lon="6.3606">
        <ele>2684.4</ele>
        <time>2024-08-12T07:59:58Z</time>
      </trkpt>
      <trkpt lat="44.77509" lon="6.3606">
        <ele>2685</ele>
        <time>2024-08-12T07:59:59Z</time>
      </trkpt>
      <trkpt lat="44.77508" lon="6.36063">
        <ele>2685.2</ele>
        <time>2024-08-12T08:00:00Z</time>
      </trkpt>
      <trkpt lat="44.77508" lon="6.36063">
        <ele>2685.4</ele>
        <time>2024-08-12T08:00:01Z</time>
      </trkpt>
      <trkpt lat="44.77508" lon="6.36063">
        <ele>2685.6</ele>
        <time>2024-08-12T08:00:02Z</time>
      </trkpt>
      <trkpt lat="44.77506" lon="6.36064">
        <ele>2685.6</ele>
        <time>2024-08-12T08:00:03Z</time>
      </trkpt>
      <trkpt lat="44.77506" lon="6.36064">
        <ele>2685.6</ele>
        <time>2024-08-12T08:00:04Z</time>
      </trkpt>
      <trkpt lat="44.77506" lon="6.36064">
        <ele>2686</ele>
        <time>2024-08-12T08:00:05Z</time>
      </trkpt>
      <trkpt lat="44.77504" lon="6.36065">
        <ele>2686.4</ele>
        <time>2024-08-12T08:00:06Z</time>
      </trkpt>
      <trkpt lat="44.77504" lon="6.36065">
        <ele>2686.6</ele>
        <time>2024-08-12T08:00:07Z</time>
      </trkpt>
      <trkpt lat="44.77504" lon="6.36065">
        <ele>2686.8</ele>
        <time>2024-08-12T08:00:08Z</time>
      </trkpt>
      <trkpt lat="44.77502" lon="6.36067">
        <ele>2687.2</ele>
        <time>2024-08-12T08:00:09Z</time>
      </trkpt>
      <trkpt lat="44.77502" lon="6.36067">
        <ele>2687.4</ele>
        <time>2024-08-12T08:00:10Z</time>
      </trkpt>
      <trkpt lat="44.77502" lon="6.36067">
        <ele>2687.4</ele>
        <time>2024-08-12T08:00:11Z</time>
      </trkpt>
      <trkpt lat="44.77501" lon="6.36068">
        <ele>2687.6</ele>
        <time>2024-08-12T08:00:12Z</time>
      </trkpt>
      <trkpt lat="44.77501" lon="6.36068">
        <ele>2687.8</ele>
        <time>2024-08-12T08:00:13Z</time>
      </trkpt>
      <trkpt lat="44.77501" lon="6.36068">
        <ele>2687.8</ele>
        <time>2024-08-12T08:00:14Z</time>
      </trkpt>
      <trkpt lat="44.77501" lon="6.36068">
        <ele>2688</ele>
        <time>2024-08-12T08:00:15Z</time>
      </trkpt>
      <trkpt lat="44.77501" lon="6.36068">
        <ele>2688.4</ele>
        <time>2024-08-12T08:00:16Z</time>
      </trkpt>
      <trkpt lat="44.77501" lon="6.36068">
        <ele>2688.6</ele>
        <time>2024-08-12T08:00:17Z</time>
      </trkpt>
      <trkpt lat="44.77499" lon="6.3607">
        <ele>2688.6</ele>
        <time>2024-08-12T08:00:18Z</time>
      </trkpt>
      <trkpt lat="44.77499" lon="6.3607">
        <ele>2689.2</ele>
        <time>2024-08-12T08:00:19Z</time>
      </trkpt>
      <trkpt lat="44.77499" lon="6.3607">
        <ele>2689.4</ele>
        <time>2024-08-12T08:00:20Z</time>
      </trkpt>
      <trkpt lat="44.77499" lon="6.3607">
        <ele>2689.4</ele>
        <time>2024-08-12T08:00:21Z</time>
      </trkpt>
      <trkpt lat="44.77499" lon="6.3607">
        <ele>2689.8</ele>
        <time>2024-08-12T08:00:22Z</time>
      </trkpt>
      <trkpt lat="44.77499" lon="6.3607">
        <ele>2690</ele>
        <time>2024-08-12T08:00:23Z</time>
      </trkpt>
      <trkpt lat="44.77497" lon="6.36072">
        <ele>2690.2</ele>
        <time>2024-08-12T08:00:24Z</time>
      </trkpt>
      <trkpt lat="44.77497" lon="6.36072">
        <ele>2690.4</ele>
        <time>2024-08-12T08:00:25Z</time>
      </trkpt>
      <trkpt lat="44.77497" lon="6.36072">
        <ele>2690.6</ele>
        <time>2024-08-12T08:00:26Z</time>
      </trkpt>
      <trkpt lat="44.77496" lon="6.36075">
        <ele>2690.8</ele>
        <time>2024-08-12T08:00:27Z</time>
      </trkpt>
      <trkpt lat="44.77496" lon="6.36075">
        <ele>2690.8</ele>
        <time>2024-08-12T08:00:28Z</time>
      </trkpt>
      <trkpt lat="44.77496" lon="6.36075">
        <ele>2690.8</ele>
        <time>2024-08-12T08:00:29Z</time>
      </trkpt>
      <trkpt lat="44.77495" lon="6.36079">
        <ele>2690.8</ele>
        <time>2024-08-12T08:00:30Z</time>
      </trkpt>
      <trkpt lat="44.77495" lon="6.36079">
        <ele>2690.8</ele>
        <time>2024-08-12T08:00:31Z</time>
      </trkpt>
      <trkpt lat="44.77495" lon="6.36079">
        <ele>2690.8</ele>
        <time>2024-08-12T08:00:32Z</time>
      </trkpt>
      <trkpt lat="44.77494" lon="6.36082">
        <ele>2690.8</ele>
        <time>2024-08-12T08:00:33Z</time>
      </trkpt>
      <trkpt lat="44.77494" lon="6.36082">
        <ele>2691.2</ele>
        <time>2024-08-12T08:00:34Z</time>
      </trkpt>
      <trkpt lat="44.77494" lon="6.36082">
        <ele>2691.2</ele>
        <time>2024-08-12T08:00:35Z</time>
      </trkpt>
      <trkpt lat="44.77493" lon="6.36084">
        <ele>2691.2</ele>
        <time>2024-08-12T08:00:36Z</time>
      </trkpt>
      <trkpt lat="44.77493" lon="6.36084">
        <ele>2691.4</ele>
        <time>2024-08-12T08:00:37Z</time>
      </trkpt>
      <trkpt lat="44.77493" lon="6.36084">
        <ele>2691.6</ele>
        <time>2024-08-12T08:00:38Z</time>
      </trkpt>
      <trkpt lat="44.77493" lon="6.36084">
        <ele>2692.2</ele>
        <time>2024-08-12T08:00:39Z</time>
      </trkpt>
      <trkpt lat="44.77492" lon="6.36086">
        <ele>2692.2</ele>
        <time>2024-08-12T08:00:40Z</time>
      </trkpt>
      <trkpt lat="44.77492" lon="6.36086">
        <ele>2692.6</ele>
        <time>2024-08-12T08:00:41Z</time>
      </trkpt>
      <trkpt lat="44.77492" lon="6.36086">
        <ele>2692.8</ele>
        <time>2024-08-12T08:00:42Z</time>
      </trkpt>
      <trkpt lat="44.77492" lon="6.36086">
        <ele>2692.8</ele>
        <time>2024-08-12T08:00:43Z</time>
      </trkpt>
      <trkpt lat="44.7749" lon="6.36088">
        <ele>2693</ele>
        <time>2024-08-12T08:00:44Z</time>
      </trkpt>
      <trkpt lat="44.7749" lon="6.36088">
        <ele>2693.2</ele>
        <time>2024-08-12T08:00:45Z</time>
      </trkpt>
      <trkpt lat="44.7749" lon="6.36088">
        <ele>2693.4</ele>
        <time>2024-08-12T08:00:46Z</time>
      </trkpt>
      <trkpt lat="44.7749" lon="6.36088">
        <ele>2693.6</ele>
        <time>2024-08-12T08:00:47Z</time>
      </trkpt>
      <trkpt lat="44.77489" lon="6.36091">
        <ele>2694</ele>
        <time>2024-08-12T08:00:48Z</time>
      </trkpt>
      <trkpt lat="44.77489" lon="6.36091">
        <ele>2694</ele>
        <time>2024-08-12T08:00:49Z</time>
      </trkpt>
      <trkpt lat="44.77489" lon="6.36091">
        <ele>2694.2</ele>
        <time>2024-08-12T08:00:50Z</time>
      </trkpt>
      <trkpt lat="44.77489" lon="6.36091">
        <ele>2694.4</ele>
        <time>2024-08-12T08:00:51Z</time>
      </trkpt>
      <trkpt lat="44.77488" lon="6.36094">
        <ele>2694.4</ele>
        <time>2024-08-12T08:00:52Z</time>
      </trkpt>
      <trkpt lat="44.77488" lon="6.36094">
        <ele>2694.8</ele>
        <time>2024-08-12T08:00:53Z</time>
      </trkpt>
      <trkpt lat="44.77488" lon="6.36094">
        <ele>2694.8</ele>
        <time>2024-08-12T08:00:54Z</time>
      </trkpt>
      <trkpt lat="44.77488" lon="6.36094">
        <ele>2694.8</ele>
        <time>2024-08-12T08:00:55Z</time>
      </trkpt>
      <trkpt lat="44.77488" lon="6.36094">
        <ele>2695.2</ele>
        <time>2024-08-12T08:00:56Z</time>
      </trkpt>
      <trkpt lat="44.77487" lon="6.36096">
        <ele>2695.6</ele>
        <time>2024-08-12T08:00:57Z</time>
      </trkpt>
      <trkpt lat="44.77487" lon="6.36096">
        <ele>2695.8</ele>
        <time>2024-08-12T08:00:58Z</time>
      </trkpt>
      <trkpt lat="44.77487" lon="6.36096">
        <ele>2695.8</ele>
        <time>2024-08-12T08:00:59Z</time>
      </trkpt>
      <trkpt lat="44.77487" lon="6.36096">
        <ele>2696.2</ele>
        <time>2024-08-12T08:01:00Z</time>
      </trkpt>
      <trkpt lat="44.77486" lon="6.36099">
        <ele>2696.4</ele>
        <time>2024-08-12T08:01:01Z</time>
      </trkpt>
      <trkpt lat="44.77486" lon="6.36099">
        <ele>2696.6</ele>
        <time>2024-08-12T08:01:02Z</time>
      </trkpt>
      <trkpt lat="44.77486" lon="6.36099">
        <ele>2696.6</ele>
        <time>2024-08-12T08:01:03Z</time>
      </trkpt>
      <trkpt lat="44.77486" lon="6.36099">
        <ele>2696.6</ele>
        <time>2024-08-12T08:01:04Z</time>
      </trkpt>
      <trkpt lat="44.77486" lon="6.36099">
        <ele>2696.6</ele>
        <time>2024-08-12T08:01:05Z</time>
      </trkpt>
      <trkpt lat="44.77486" lon="6.36101">
        <ele>2697.4</ele>
        <time>2024-08-12T08:01:06Z</time>
      </trkpt>
      <trkpt lat="44.77486" lon="6.36101">
        <ele>2697.6</ele>
        <time>2024-08-12T08:01:07Z</time>
      </trkpt>
      <trkpt lat="44.77486" lon="6.36101">
        <ele>2697.8</ele>
        <time>2024-08-12T08:01:08Z</time>
      </trkpt>
      <trkpt lat="44.77486" lon="6.36101">
        <ele>2697.8</ele>
        <time>2024-08-12T08:01:09Z</time>
      </trkpt>
      <trkpt lat="44.77486" lon="6.36101">
        <ele>2697.8</ele>
        <time>2024-08-12T08:01:10Z</time>
      </trkpt>
      <trkpt lat="44.77486" lon="6.36101">
        <ele>2697.8</ele>
        <time>2024-08-12T08:01:11Z</time>
      </trkpt>
      <trkpt lat="44.77486" lon="6.36101">
        <ele>2697.8</ele>
        <time>2024-08-12T08:01:12Z</time>
      </trkpt>
      <trkpt lat="44.77486" lon="6.36101">
        <ele>2698</ele>
        <time>2024-08-12T08:01:13Z</time>
      </trkpt>
      <trkpt lat="44.77486" lon="6.36101">
        <ele>2698.2</ele>
        <time>2024-08-12T08:01:14Z</time>
      </trkpt>
      <trkpt lat="44.77486" lon="6.36101">
        <ele>2698.4</ele>
        <time>2024-08-12T08:01:15Z</time>
      </trkpt>
      <trkpt lat="44.77486" lon="6.36101">
        <ele>2698.4</ele>
        <time>2024-08-12T08:01:16Z</time>
      </trkpt>
      <trkpt lat="44.77486" lon="6.36101">
        <ele>2698.4</ele>
        <time>2024-08-12T08:01:17Z</time>
      </trkpt>
      <trkpt lat="44.77486" lon="6.36101">
        <ele>2698.8</ele>
        <time>2024-08-12T08:01:18Z</time>
      </trkpt>
      <trkpt lat="44.77486" lon="6.36101">
        <ele>2698.8</ele>
        <time>2024-08-12T08:01:19Z</time>
      </trkpt>
      <trkpt lat="44.77486" lon="6.36101">
        <ele>2699</ele>
        <time>2024-08-12T08:01:20Z</time>
      </trkpt>
      <trkpt lat="44.77485" lon="6.36106">
        <ele>2699</ele>
        <time>2024-08-12T08:01:21Z</time>
      </trkpt>
      <trkpt lat="44.77485" lon="6.36106">
        <ele>2699.2</ele>
        <time>2024-08-12T08:01:22Z</time>
      </trkpt>
      <trkpt lat="44.77484" lon="6.36111">
        <ele>2699.2</ele>
        <time>2024-08-12T08:01:23Z</time>
      </trkpt>
      <trkpt lat="44.77484" lon="6.36111">
        <ele>2699.2</ele>
        <time>2024-08-12T08:01:24Z</time>
      </trkpt>
      <trkpt lat="44.77483" lon="6.36115">
        <ele>2699.4</ele>
        <time>2024-08-12T08:01:25Z</time>
      </trkpt>
      <trkpt lat="44.77483" lon="6.36115">
        <ele>2699.4</ele>
        <time>2024-08-12T08:01:26Z</time>
      </trkpt>
      <trkpt lat="44.77483" lon="6.36115">
        <ele>2699.4</ele>
        <time>2024-08-12T08:01:27Z</time>
      </trkpt>
      <trkpt lat="44.77483" lon="6.36118">
        <ele>2699.8</ele>
        <time>2024-08-12T08:01:28Z</time>
      </trkpt>
      <trkpt lat="44.77483" lon="6.36118">
        <ele>2699.8</ele>
        <time>2024-08-12T08:01:29Z</time>
      </trkpt>
      <trkpt lat="44.77483" lon="6.36118">
        <ele>2699.8</ele>
        <time>2024-08-12T08:01:30Z</time>
      </trkpt>
      <trkpt lat="44.77483" lon="6.36118">
        <ele>2700.4</ele>
        <time>2024-08-12T08:01:31Z</time>
      </trkpt>
      <trkpt lat="44.77483" lon="6.36121">
        <ele>2700.8</ele>
        <time>2024-08-12T08:01:32Z</time>
      </trkpt>
      <trkpt lat="44.77483" lon="6.36121">
        <ele>2701</ele>
        <time>2024-08-12T08:01:33Z</time>
      </trkpt>
      <trkpt lat="44.77483" lon="6.36121">
        <ele>2701.2</ele>
        <time>2024-08-12T08:01:34Z</time>
      </trkpt>
      <trkpt lat="44.77483" lon="6.36121">
        <ele>2701.6</ele>
        <time>2024-08-12T08:01:35Z</time>
      </trkpt>
      <trkpt lat="44.77482" lon="6.36123">
        <ele>2701.6</ele>
        <time>2024-08-12T08:01:36Z</time>
      </trkpt>
      <trkpt lat="44.77482" lon="6.36123">
        <ele>2702</ele>
        <time>2024-08-12T08:01:37Z</time>
      </trkpt>
      <trkpt lat="44.77482" lon="6.36123">
        <ele>2702.2</ele>
        <time>2024-08-12T08:01:38Z</time>
      </trkpt>
      <trkpt lat="44.77482" lon="6.36123">
        <ele>2702.4</ele>
        <time>2024-08-12T08:01:39Z</time>
      </trkpt>
      <trkpt lat="44.77482" lon="6.36126">
        <ele>2702.8</ele>
        <time>2024-08-12T08:01:40Z</time>
      </trkpt>
      <trkpt lat="44.77482" lon="6.36126">
        <ele>2703</ele>
        <time>2024-08-12T08:01:41Z</time>
      </trkpt>
      <trkpt lat="44.77482" lon="6.36126">
        <ele>2703.4</ele>
        <time>2024-08-12T08:01:42Z</time>
      </trkpt>
      <trkpt lat="44.77482" lon="6.36126">
        <ele>2703.4</ele>
        <time>2024-08-12T08:01:43Z</time>
      </trkpt>
      <trkpt lat="44.77481" lon="6.36129">
        <ele>2703.6</ele>
        <time>2024-08-12T08:01:44Z</time>
      </trkpt>
      <trkpt lat="44.77481" lon="6.36129">
        <ele>2703.8</ele>
        <time>2024-08-12T08:01:45Z</time>
      </trkpt>
      <trkpt lat="44.77481" lon="6.36129">
        <ele>2704</ele>
        <time>2024-08-12T08:01:46Z</time>
      </trkpt>
      <trkpt lat="44.77481" lon="6.36132">
        <ele>2704</ele>
        <time>2024-08-12T08:01:47Z</time>
      </trkpt>
      <trkpt lat="44.77481" lon="6.36132">
        <ele>2704</ele>
        <time>2024-08-12T08:01:48Z</time>
      </trkpt>
      <trkpt lat="44.77481" lon="6.36132">
        <ele>2704</ele>
        <time>2024-08-12T08:01:49Z</time>
      </trkpt>
      <trkpt lat="44.7748" lon="6.36135">
        <ele>2704.2</ele>
        <time>2024-08-12T08:01:50Z</time>
      </trkpt>
      <trkpt lat="44.7748" lon="6.36135">
        <ele>2704.4</ele>
        <time>2024-08-12T08:01:51Z</time>
      </trkpt>
      <trkpt lat="44.7748" lon="6.36135">
        <ele>2704.4</ele>
        <time>2024-08-12T08:01:52Z</time>
      </trkpt>
      <trkpt lat="44.77478" lon="6.36136">
        <ele>2704.8</ele>
        <time>2024-08-12T08:01:53Z</time>
      </trkpt>
      <trkpt lat="44.77478" lon="6.36136">
        <ele>2705</ele>
        <time>2024-08-12T08:01:54Z</time>
      </trkpt>
      <trkpt lat="44.77478" lon="6.36136">
        <ele>2705</ele>
        <time>2024-08-12T08:01:55Z</time>
      </trkpt>
      <trkpt lat="44.77477" lon="6.36138">
        <ele>2705.4</ele>
        <time>2024-08-12T08:01:56Z</time>
      </trkpt>
      <trkpt lat="44.77477" lon="6.36138">
        <ele>2705.6</ele>
        <time>2024-08-12T08:01:57Z</time>
      </trkpt>
      <trkpt lat="44.77477" lon="6.36138">
        <ele>2705.8</ele>
        <time>2024-08-12T08:01:58Z</time>
      </trkpt>
      <trkpt lat="44.77477" lon="6.36138">
        <ele>2706.2</ele>
        <time>2024-08-12T08:01:59Z</time>
      </trkpt>
      <trkpt lat="44.77475" lon="6.36139">
        <ele>2706.4</ele>
        <time>2024-08-12T08:02:00Z</time>
      </trkpt>
      <trkpt lat="44.77475" lon="6.36139">
        <ele>2706.6</ele>
        <time>2024-08-12T08:02:01Z</time>
      </trkpt>
      <trkpt lat="44.77475" lon="6.36139">
        <ele>2706.8</ele>
        <time>2024-08-12T08:02:02Z</time>
      </trkpt>
      <trkpt lat="44.77475" lon="6.36139">
        <ele>2706.8</ele>
        <time>2024-08-12T08:02:03Z</time>
      </trkpt>
      <trkpt lat="44.77474" lon="6.36137">
        <ele>2707.2</ele>
        <time>2024-08-12T08:02:04Z</time>
      </trkpt>
      <trkpt lat="44.77474" lon="6.36137">
        <ele>2707.6</ele>
        <time>2024-08-12T08:02:05Z</time>
      </trkpt>
      <trkpt lat="44.77474" lon="6.36137">
        <ele>2708</ele>
        <time>2024-08-12T08:02:06Z</time>
      </trkpt>
      <trkpt lat="44.77474" lon="6.36137">
        <ele>2708.2</ele>
        <time>2024-08-12T08:02:07Z</time>
      </trkpt>
      <trkpt lat="44.77474" lon="6.36134">
        <ele>2708.4</ele>
        <time>2024-08-12T08:02:08Z</time>
      </trkpt>
      <trkpt lat="44.77474" lon="6.36134">
        <ele>2708.8</ele>
        <time>2024-08-12T08:02:09Z</time>
      </trkpt>
      <trkpt lat="44.77474" lon="6.36134">
        <ele>2709.2</ele>
        <time>2024-08-12T08:02:10Z</time>
      </trkpt>
      <trkpt lat="44.77474" lon="6.36134">
        <ele>2709.4</ele>
        <time>2024-08-12T08:02:11Z</time>
      </trkpt>
      <trkpt lat="44.77474" lon="6.36134">
        <ele>2709.6</ele>
        <time>2024-08-12T08:02:12Z</time>
      </trkpt>
      <trkpt lat="44.77474" lon="6.36132">
        <ele>2709.6</ele>
        <time>2024-08-12T08:02:13Z</time>
      </trkpt>
      <trkpt lat="44.77474" lon="6.36132">
        <ele>2709.8</ele>
        <time>2024-08-12T08:02:14Z</time>
      </trkpt>
      <trkpt lat="44.77474" lon="6.36132">
        <ele>2710.2</ele>
        <time>2024-08-12T08:02:15Z</time>
      </trkpt>
      <trkpt lat="44.77474" lon="6.36132">
        <ele>2710.6</ele>
        <time>2024-08-12T08:02:16Z</time>
      </trkpt>
      <trkpt lat="44.77474" lon="6.36132">
        <ele>2710.8</ele>
        <time>2024-08-12T08:02:17Z</time>
      </trkpt>
      <trkpt lat="44.77474" lon="6.36132">
        <ele>2710.8</ele>
        <time>2024-08-12T08:02:18Z</time>
      </trkpt>
      <trkpt lat="44.77474" lon="6.36132">
        <ele>2711.2</ele>
        <time>2024-08-12T08:02:19Z</time>
      </trkpt>
      <trkpt lat="44.77474" lon="6.36128">
        <ele>2711.4</ele>
        <time>2024-08-12T08:02:20Z</time>
      </trkpt>
      <trkpt lat="44.77474" lon="6.36128">
        <ele>2711.6</ele>
        <time>2024-08-12T08:02:21Z</time>
      </trkpt>
      <trkpt lat="44.77475" lon="6.36125">
        <ele>2711.6</ele>
        <time>2024-08-12T08:02:22Z</time>
      </trkpt>
      <trkpt lat="44.77475" lon="6.36125">
        <ele>2711.8</ele>
        <time>2024-08-12T08:02:23Z</time>
      </trkpt>
      <trkpt lat="44.77475" lon="6.36125">
        <ele>2712.2</ele>
        <time>2024-08-12T08:02:24Z</time>
      </trkpt>
      <trkpt lat="44.77475" lon="6.36122">
        <ele>2712.2</ele>
        <time>2024-08-12T08:02:25Z</time>
      </trkpt>
      <trkpt lat="44.77475" lon="6.36122">
        <ele>2712.4</ele>
        <time>2024-08-12T08:02:26Z</time>
      </trkpt>
      <trkpt lat="44.77475" lon="6.36122">
        <ele>2712.6</ele>
        <time>2024-08-12T08:02:27Z</time>
      </trkpt>
      <trkpt lat="44.77475" lon="6.36122">
        <ele>2713</ele>
        <time>2024-08-12T08:02:28Z</time>
      </trkpt>
      <trkpt lat="44.77475" lon="6.36122">
        <ele>2713.2</ele>
        <time>2024-08-12T08:02:29Z</time>
      </trkpt>
      <trkpt lat="44.77474" lon="6.36119">
        <ele>2713.6</ele>
        <time>2024-08-12T08:02:30Z</time>
      </trkpt>
      <trkpt lat="44.77474" lon="6.36119">
        <ele>2713.8</ele>
        <time>2024-08-12T08:02:31Z</time>
      </trkpt>
      <trkpt lat="44.77474" lon="6.36119">
        <ele>2714.2</ele>
        <time>2024-08-12T08:02:32Z</time>
      </trkpt>
      <trkpt lat="44.77474" lon="6.36119">
        <ele>2714.2</ele>
        <time>2024-08-12T08:02:33Z</time>
      </trkpt>
      <trkpt lat="44.77474" lon="6.36116">
        <ele>2714.4</ele>
        <time>2024-08-12T08:02:34Z</time>
      </trkpt>
      <trkpt lat="44.77474" lon="6.36116">
        <ele>2714.4</ele>
        <time>2024-08-12T08:02:35Z</time>
      </trkpt>
      <trkpt lat="44.77474" lon="6.36116">
        <ele>2714.8</ele>
        <time>2024-08-12T08:02:36Z</time>
      </trkpt>
      <trkpt lat="44.77474" lon="6.36116">
        <ele>2715.2</ele>
        <time>2024-08-12T08:02:37Z</time>
      </trkpt>
      <trkpt lat="44.77473" lon="6.36114">
        <ele>2715.2</ele>
        <time>2024-08-12T08:02:38Z</time>
      </trkpt>
      <trkpt lat="44.77473" lon="6.36114">
        <ele>2715.4</ele>
        <time>2024-08-12T08:02:39Z</time>
      </trkpt>
      <trkpt lat="44.77473" lon="6.36114">
        <ele>2715.6</ele>
        <time>2024-08-12T08:02:40Z</time>
      </trkpt>
      <trkpt lat="44.77473" lon="6.36114">
        <ele>2715.8</ele>
        <time>2024-08-12T08:02:41Z</time>
      </trkpt>
      <trkpt lat="44.77473" lon="6.36111">
        <ele>2716.4</ele>
        <time>2024-08-12T08:02:42Z</time>
      </trkpt>
      <trkpt lat="44.77473" lon="6.36111">
        <ele>2716.6</ele>
        <time>2024-08-12T08:02:43Z</time>
      </trkpt>
      <trkpt lat="44.77473" lon="6.36111">
        <ele>2716.8</ele>
        <time>2024-08-12T08:02:44Z</time>
      </trkpt>
      <trkpt lat="44.77472" lon="6.36109">
        <ele>2717</ele>
        <time>2024-08-12T08:02:45Z</time>
      </trkpt>
      <trkpt lat="44.77472" lon="6.36109">
        <ele>2717</ele>
        <time>2024-08-12T08:02:46Z</time>
      </trkpt>
      <trkpt lat="44.77472" lon="6.36109">
        <ele>2717.2</ele>
        <time>2024-08-12T08:02:47Z</time>
      </trkpt>
      <trkpt lat="44.77472" lon="6.36109">
        <ele>2717.4</ele>
        <time>2024-08-12T08:02:48Z</time>
      </trkpt>
      <trkpt lat="44.77471" lon="6.36106">
        <ele>2717.6</ele>
        <time>2024-08-12T08:02:49Z</time>
      </trkpt>
      <trkpt lat="44.77471" lon="6.36106">
        <ele>2717.8</ele>
        <time>2024-08-12T08:02:50Z</time>
      </trkpt>
      <trkpt lat="44.77471" lon="6.36106">
        <ele>2718</ele>
        <time>2024-08-12T08:02:51Z</time>
      </trkpt>
      <trkpt lat="44.77471" lon="6.36106">
        <ele>2718.2</ele>
        <time>2024-08-12T08:02:52Z</time>
      </trkpt>
      <trkpt lat="44.77471" lon="6.36106">
        <ele>2718.2</ele>
        <time>2024-08-12T08:02:53Z</time>
      </trkpt>
      <trkpt lat="44.77471" lon="6.36106">
        <ele>2718.4</ele>
        <time>2024-08-12T08:02:54Z</time>
      </trkpt>
      <trkpt lat="44.77471" lon="6.36106">
        <ele>2718.6</ele>
        <time>2024-08-12T08:02:55Z</time>
      </trkpt>
      <trkpt lat="44.77471" lon="6.36106">
        <ele>2719.2</ele>
        <time>2024-08-12T08:02:56Z</time>
      </trkpt>
      <trkpt lat="44.77471" lon="6.36106">
        <ele>2719.2</ele>
        <time>2024-08-12T08:02:57Z</time>
      </trkpt>
      <trkpt lat="44.77471" lon="6.36106">
        <ele>2719.4</ele>
        <time>2024-08-12T08:02:58Z</time>
      </trkpt>
      <trkpt lat="44.77471" lon="6.36106">
        <ele>2719.6</ele>
        <time>2024-08-12T08:02:59Z</time>
      </trkpt>
      <trkpt lat="44.77471" lon="6.36106">
        <ele>2719.6</ele>
        <time>2024-08-12T08:03:00Z</time>
      </trkpt>
      <trkpt lat="44.77471" lon="6.36106">
        <ele>2720</ele>
        <time>2024-08-12T08:03:01Z</time>
      </trkpt>
      <trkpt lat="44.77471" lon="6.36106">
        <ele>2720.4</ele>
        <time>2024-08-12T08:03:02Z</time>
      </trkpt>
      <trkpt lat="44.77471" lon="6.36106">
        <ele>2720.4</ele>
        <time>2024-08-12T08:03:03Z</time>
      </trkpt>
      <trkpt lat="44.77471" lon="6.36106">
        <ele>2720.6</ele>
        <time>2024-08-12T08:03:04Z</time>
      </trkpt>
      <trkpt lat="44.77471" lon="6.36106">
        <ele>2720.6</ele>
        <time>2024-08-12T08:03:05Z</time>
      </trkpt>
      <trkpt lat="44.77471" lon="6.36106">
        <ele>2720.8</ele>
        <time>2024-08-12T08:03:06Z</time>
      </trkpt>
      <trkpt lat="44.77471" lon="6.36106">
        <ele>2720.8</ele>
        <time>2024-08-12T08:03:07Z</time>
      </trkpt>
      <trkpt lat="44.77471" lon="6.36106">
        <ele>2720.8</ele>
        <time>2024-08-12T08:03:08Z</time>
      </trkpt>
      <trkpt lat="44.77471" lon="6.36106">
        <ele>2720.8</ele>
        <time>2024-08-12T08:03:09Z</time>
      </trkpt>
      <trkpt lat="44.77471" lon="6.36106">
        <ele>2720.8</ele>
        <time>2024-08-12T08:03:10Z</time>
      </trkpt>
      <trkpt lat="44.77471" lon="6.36106">
        <ele>2720.8</ele>
        <time>2024-08-12T08:03:11Z</time>
      </trkpt>
      <trkpt lat="44.77471" lon="6.36106">
        <ele>2720.8</ele>
        <time>2024-08-12T08:03:12Z</time>
      </trkpt>
      <trkpt lat="44.77471" lon="6.36106">
        <ele>2720.8</ele>
        <time>2024-08-12T08:03:13Z</time>
      </trkpt>
      <trkpt lat="44.77471" lon="6.36106">
        <ele>2720.8</ele>
        <time>2024-08-12T08:03:14Z</time>
      </trkpt>
      <trkpt lat="44.77471" lon="6.36106">
        <ele>2721.2</ele>
        <time>2024-08-12T08:03:15Z</time>
      </trkpt>
      <trkpt lat="44.77471" lon="6.36106">
        <ele>2721.4</ele>
        <time>2024-08-12T08:03:16Z</time>
      </trkpt>
      <trkpt lat="44.77471" lon="6.36106">
        <ele>2721.4</ele>
        <time>2024-08-12T08:03:17Z</time>
      </trkpt>
      <trkpt lat="44.77471" lon="6.36106">
        <ele>2721</ele>
        <time>2024-08-12T08:03:18Z</time>
      </trkpt>
      <trkpt lat="44.77471" lon="6.36106">
        <ele>2720.8</ele>
        <time>2024-08-12T08:03:19Z</time>
      </trkpt>
      <trkpt lat="44.77471" lon="6.36106">
        <ele>2720.8</ele>
        <time>2024-08-12T08:03:20Z</time>
      </trkpt>
      <trkpt lat="44.77471" lon="6.36106">
        <ele>2720.6</ele>
        <time>2024-08-12T08:03:21Z</time>
      </trkpt>
      <trkpt lat="44.77471" lon="6.36106">
        <ele>2720.6</ele>
        <time>2024-08-12T08:03:22Z</time>
      </trkpt>
      <trkpt lat="44.77471" lon="6.36106">
        <ele>2720.6</ele>
        <time>2024-08-12T08:03:23Z</time>
      </trkpt>
      <trkpt lat="44.77471" lon="6.36106">
        <ele>2720.8</ele>
        <time>2024-08-12T08:03:24Z</time>
      </trkpt>
      <trkpt lat="44.77471" lon="6.36106">
        <ele>2721</ele>
        <time>2024-08-12T08:03:25Z</time>
      </trkpt>
      <trkpt lat="44.77471" lon="6.36106">
        <ele>2721</ele>
        <time>2024-08-12T08:03:26Z</time>
      </trkpt>
      <trkpt lat="44.77471" lon="6.36106">
        <ele>2721</ele>
        <time>2024-08-12T08:03:27Z</time>
      </trkpt>
      <trkpt lat="44.77471" lon="6.36106">
        <ele>2721</ele>
        <time>2024-08-12T08:03:28Z</time>
      </trkpt>
      <trkpt lat="44.77471" lon="6.36106">
        <ele>2721</ele>
        <time>2024-08-12T08:03:29Z</time>
      </trkpt>
      <trkpt lat="44.77471" lon="6.36106">
        <ele>2721.2</ele>
        <time>2024-08-12T08:03:30Z</time>
      </trkpt>
      <trkpt lat="44.77471" lon="6.36106">
        <ele>2721.6</ele>
        <time>2024-08-12T08:03:31Z</time>
      </trkpt>
      <trkpt lat="44.77471" lon="6.36106">
        <ele>2721.6</ele>
        <time>2024-08-12T08:03:32Z</time>
      </trkpt>
      <trkpt lat="44.77471" lon="6.36106">
        <ele>2721.6</ele>
        <time>2024-08-12T08:03:33Z</time>
      </trkpt>
      <trkpt lat="44.77471" lon="6.36106">
        <ele>2721.6</ele>
        <time>2024-08-12T08:03:34Z</time>
      </trkpt>
      <trkpt lat="44.77469" lon="6.36109">
        <ele>2721.8</ele>
        <time>2024-08-12T08:03:35Z</time>
      </trkpt>
      <trkpt lat="44.77467" lon="6.36112">
        <ele>2722</ele>
        <time>2024-08-12T08:03:36Z</time>
      </trkpt>
      <trkpt lat="44.77465" lon="6.36115">
        <ele>2722.2</ele>
        <time>2024-08-12T08:03:37Z</time>
      </trkpt>
      <trkpt lat="44.77464" lon="6.36119">
        <ele>2722.4</ele>
        <time>2024-08-12T08:03:38Z</time>
      </trkpt>
      <trkpt lat="44.77462" lon="6.36122">
        <ele>2722.4</ele>
        <time>2024-08-12T08:03:39Z</time>
      </trkpt>
      <trkpt lat="44.77461" lon="6.36125">
        <ele>2722.4</ele>
        <time>2024-08-12T08:03:40Z</time>
      </trkpt>
      <trkpt lat="44.77461" lon="6.36125">
        <ele>2722.6</ele>
        <time>2024-08-12T08:03:41Z</time>
      </trkpt>
      <trkpt lat="44.7746" lon="6.36128">
        <ele>2722.6</ele>
        <time>2024-08-12T08:03:42Z</time>
      </trkpt>
      <trkpt lat="44.7746" lon="6.36128">
        <ele>2722.6</ele>
        <time>2024-08-12T08:03:43Z</time>
      </trkpt>
      <trkpt lat="44.7746" lon="6.36128">
        <ele>2723</ele>
        <time>2024-08-12T08:03:44Z</time>
      </trkpt>
      <trkpt lat="44.77458" lon="6.3613">
        <ele>2723.2</ele>
        <time>2024-08-12T08:03:45Z</time>
      </trkpt>
      <trkpt lat="44.77458" lon="6.3613">
        <ele>2723.2</ele>
        <time>2024-08-12T08:03:46Z</time>
      </trkpt>
      <trkpt lat="44.77458" lon="6.3613">
        <ele>2723.4</ele>
        <time>2024-08-12T08:03:47Z</time>
      </trkpt>
      <trkpt lat="44.77458" lon="6.3613">
        <ele>2723.6</ele>
        <time>2024-08-12T08:03:48Z</time>
      </trkpt>
      <trkpt lat="44.77458" lon="6.3613">
        <ele>2723.6</ele>
        <time>2024-08-12T08:03:49Z</time>
      </trkpt>
      <trkpt lat="44.77457" lon="6.36127">
        <ele>2724</ele>
        <time>2024-08-12T08:03:50Z</time>
      </trkpt>
      <trkpt lat="44.77457" lon="6.36127">
        <ele>2724.6</ele>
        <time>2024-08-12T08:03:51Z</time>
      </trkpt>
      <trkpt lat="44.77457" lon="6.36127">
        <ele>2724.6</ele>
        <time>2024-08-12T08:03:52Z</time>
      </trkpt>
      <trkpt lat="44.77457" lon="6.36127">
        <ele>2725</ele>
        <time>2024-08-12T08:03:53Z</time>
      </trkpt>
      <trkpt lat="44.77456" lon="6.36124">
        <ele>2725</ele>
        <time>2024-08-12T08:03:54Z</time>
      </trkpt>
      <trkpt lat="44.77456" lon="6.36124">
        <ele>2725.6</ele>
        <time>2024-08-12T08:03:55Z</time>
      </trkpt>
      <trkpt lat="44.77456" lon="6.36124">
        <ele>2725.8</ele>
        <time>2024-08-12T08:03:56Z</time>
      </trkpt>
      <trkpt lat="44.77456" lon="6.36124">
        <ele>2726</ele>
        <time>2024-08-12T08:03:57Z</time>
      </trkpt>
      <trkpt lat="44.77456" lon="6.36124">
        <ele>2726.2</ele>
        <time>2024-08-12T08:03:58Z</time>
      </trkpt>
      <trkpt lat="44.77456" lon="6.36124">
        <ele>2726.4</ele>
        <time>2024-08-12T08:03:59Z</time>
      </trkpt>
      <trkpt lat="44.77456" lon="6.36124">
        <ele>2726.4</ele>
        <time>2024-08-12T08:04:00Z</time>
      </trkpt>
      <trkpt lat="44.77456" lon="6.36124">
        <ele>2726.4</ele>
        <time>2024-08-12T08:04:01Z</time>
      </trkpt>
      <trkpt lat="44.77456" lon="6.36124">
        <ele>2726.8</ele>
        <time>2024-08-12T08:04:02Z</time>
      </trkpt>
      <trkpt lat="44.77456" lon="6.36124">
        <ele>2726.8</ele>
        <time>2024-08-12T08:04:03Z</time>
      </trkpt>
      <trkpt lat="44.77456" lon="6.36124">
        <ele>2727</ele>
        <time>2024-08-12T08:04:04Z</time>
      </trkpt>
      <trkpt lat="44.77456" lon="6.36124">
        <ele>2727</ele>
        <time>2024-08-12T08:04:05Z</time>
      </trkpt>
      <trkpt lat="44.77456" lon="6.36124">
        <ele>2727</ele>
        <time>2024-08-12T08:04:06Z</time>
      </trkpt>
      <trkpt lat="44.77456" lon="6.36124">
        <ele>2727.2</ele>
        <time>2024-08-12T08:04:07Z</time>
      </trkpt>
      <trkpt lat="44.77456" lon="6.36122">
        <ele>2727.2</ele>
        <time>2024-08-12T08:04:08Z</time>
      </trkpt>
      <trkpt lat="44.77456" lon="6.36122">
        <ele>2727.6</ele>
        <time>2024-08-12T08:04:09Z</time>
      </trkpt>
      <trkpt lat="44.77456" lon="6.36122">
        <ele>2727.8</ele>
        <time>2024-08-12T08:04:10Z</time>
      </trkpt>
      <trkpt lat="44.77456" lon="6.36122">
        <ele>2728</ele>
        <time>2024-08-12T08:04:11Z</time>
      </trkpt>
      <trkpt lat="44.77454" lon="6.36123">
        <ele>2728.2</ele>
        <time>2024-08-12T08:04:12Z</time>
      </trkpt>
      <trkpt lat="44.77454" lon="6.36123">
        <ele>2728.2</ele>
        <time>2024-08-12T08:04:13Z</time>
      </trkpt>
      <trkpt lat="44.77453" lon="6.36125">
        <ele>2728.2</ele>
        <time>2024-08-12T08:04:14Z</time>
      </trkpt>
      <trkpt lat="44.77453" lon="6.36125">
        <ele>2728.2</ele>
        <time>2024-08-12T08:04:15Z</time>
      </trkpt>
      <trkpt lat="44.77453" lon="6.36125">
        <ele>2728.6</ele>
        <time>2024-08-12T08:04:16Z</time>
      </trkpt>
      <trkpt lat="44.77453" lon="6.36125">
        <ele>2728.6</ele>
        <time>2024-08-12T08:04:17Z</time>
      </trkpt>
      <trkpt lat="44.77453" lon="6.36125">
        <ele>2728.6</ele>
        <time>2024-08-12T08:04:18Z</time>
      </trkpt>
      <trkpt lat="44.77453" lon="6.36125">
        <ele>2728.8</ele>
        <time>2024-08-12T08:04:19Z</time>
      </trkpt>
      <trkpt lat="44.77453" lon="6.36125">
        <ele>2729.2</ele>
        <time>2024-08-12T08:04:20Z</time>
      </trkpt>
      <trkpt lat="44.77453" lon="6.36125">
        <ele>2729.2</ele>
        <time>2024-08-12T08:04:21Z</time>
      </trkpt>
      <trkpt lat="44.77453" lon="6.36125">
        <ele>2729.2</ele>
        <time>2024-08-12T08:04:22Z</time>
      </trkpt>
      <trkpt lat="44.77452" lon="6.36128">
        <ele>2729.4</ele>
        <time>2024-08-12T08:04:23Z</time>
      </trkpt>
      <trkpt lat="44.77452" lon="6.36128">
        <ele>2729.4</ele>
        <time>2024-08-12T08:04:24Z</time>
      </trkpt>
      <trkpt lat="44.77452" lon="6.36128">
        <ele>2729.6</ele>
        <time>2024-08-12T08:04:25Z</time>
      </trkpt>
      <trkpt lat="44.77452" lon="6.36128">
        <ele>2730.2</ele>
        <time>2024-08-12T08:04:26Z</time>
      </trkpt>
      <trkpt lat="44.77449" lon="6.36127">
        <ele>2730.8</ele>
        <time>2024-08-12T08:04:27Z</time>
      </trkpt>
      <trkpt lat="44.77449" lon="6.36127">
        <ele>2730.8</ele>
        <time>2024-08-12T08:04:28Z</time>
      </trkpt>
      <trkpt lat="44.77449" lon="6.36127">
        <ele>2730.8</ele>
        <time>2024-08-12T08:04:29Z</time>
      </trkpt>
      <trkpt lat="44.77449" lon="6.36127">
        <ele>2731.2</ele>
        <time>2024-08-12T08:04:30Z</time>
      </trkpt>
      <trkpt lat="44.77449" lon="6.36127">
        <ele>2731.4</ele>
        <time>2024-08-12T08:04:31Z</time>
      </trkpt>
      <trkpt lat="44.77449" lon="6.36127">
        <ele>2732</ele>
        <time>2024-08-12T08:04:32Z</time>
      </trkpt>
      <trkpt lat="44.77449" lon="6.36127">
        <ele>2732.2</ele>
        <time>2024-08-12T08:04:33Z</time>
      </trkpt>
      <trkpt lat="44.77449" lon="6.36127">
        <ele>2732.4</ele>
        <time>2024-08-12T08:04:34Z</time>
      </trkpt>
      <trkpt lat="44.77449" lon="6.36127">
        <ele>2732.8</ele>
        <time>2024-08-12T08:04:35Z</time>
      </trkpt>
      <trkpt lat="44.77449" lon="6.36127">
        <ele>2732.8</ele>
        <time>2024-08-12T08:04:36Z</time>
      </trkpt>
      <trkpt lat="44.77449" lon="6.36127">
        <ele>2732.8</ele>
        <time>2024-08-12T08:04:37Z</time>
      </trkpt>
      <trkpt lat="44.77449" lon="6.36127">
        <ele>2733</ele>
        <time>2024-08-12T08:04:38Z</time>
      </trkpt>
      <trkpt lat="44.77449" lon="6.36127">
        <ele>2733</ele>
        <time>2024-08-12T08:04:39Z</time>
      </trkpt>
      <trkpt lat="44.77449" lon="6.36127">
        <ele>2733.2</ele>
        <time>2024-08-12T08:04:40Z</time>
      </trkpt>
      <trkpt lat="44.77449" lon="6.36127">
        <ele>2733.2</ele>
        <time>2024-08-12T08:04:41Z</time>
      </trkpt>
      <trkpt lat="44.77449" lon="6.36127">
        <ele>2733.4</ele>
        <time>2024-08-12T08:04:42Z</time>
      </trkpt>
      <trkpt lat="44.77449" lon="6.36127">
        <ele>2733.6</ele>
        <time>2024-08-12T08:04:43Z</time>
      </trkpt>
      <trkpt lat="44.77449" lon="6.36127">
        <ele>2733.8</ele>
        <time>2024-08-12T08:04:44Z</time>
      </trkpt>
      <trkpt lat="44.77449" lon="6.36127">
        <ele>2733.8</ele>
        <time>2024-08-12T08:04:45Z</time>
      </trkpt>
      <trkpt lat="44.77449" lon="6.36127">
        <ele>2734</ele>
        <time>2024-08-12T08:04:46Z</time>
      </trkpt>
      <trkpt lat="44.77449" lon="6.36127">
        <ele>2734</ele>
        <time>2024-08-12T08:04:47Z</time>
      </trkpt>
      <trkpt lat="44.77449" lon="6.36127">
        <ele>2734.6</ele>
        <time>2024-08-12T08:04:48Z</time>
      </trkpt>
      <trkpt lat="44.77448" lon="6.36124">
        <ele>2734.8</ele>
        <time>2024-08-12T08:04:49Z</time>
      </trkpt>
      <trkpt lat="44.77447" lon="6.36121">
        <ele>2735</ele>
        <time>2024-08-12T08:04:50Z</time>
      </trkpt>
      <trkpt lat="44.77447" lon="6.36118">
        <ele>2735.2</ele>
        <time>2024-08-12T08:04:51Z</time>
      </trkpt>
      <trkpt lat="44.77446" lon="6.36115">
        <ele>2735.4</ele>
        <time>2024-08-12T08:04:52Z</time>
      </trkpt>
      <trkpt lat="44.77446" lon="6.36112">
        <ele>2735.6</ele>
        <time>2024-08-12T08:04:53Z</time>
      </trkpt>
      <trkpt lat="44.77446" lon="6.36112">
        <ele>2735.8</ele>
        <time>2024-08-12T08:04:54Z</time>
      </trkpt>
      <trkpt lat="44.77445" lon="6.36109">
        <ele>2735.8</ele>
        <time>2024-08-12T08:04:55Z</time>
      </trkpt>
      <trkpt lat="44.77445" lon="6.36109">
        <ele>2736.2</ele>
        <time>2024-08-12T08:04:56Z</time>
      </trkpt>
      <trkpt lat="44.77445" lon="6.36109">
        <ele>2736.8</ele>
        <time>2024-08-12T08:04:57Z</time>
      </trkpt>
      <trkpt lat="44.77445" lon="6.36109">
        <ele>2737</ele>
        <time>2024-08-12T08:04:58Z</time>
      </trkpt>
      <trkpt lat="44.77445" lon="6.36106">
        <ele>2737.2</ele>
        <time>2024-08-12T08:04:59Z</time>
      </trkpt>
      <trkpt lat="44.77445" lon="6.36106">
        <ele>2737.2</ele>
        <time>2024-08-12T08:05:00Z</time>
      </trkpt>
      <trkpt lat="44.77445" lon="6.36106">
        <ele>2737.4</ele>
        <time>2024-08-12T08:05:01Z</time>
      </trkpt>
      <trkpt lat="44.77445" lon="6.36106">
        <ele>2737.6</ele>
        <time>2024-08-12T08:05:02Z</time>
      </trkpt>
      <trkpt lat="44.77445" lon="6.36106">
        <ele>2737.6</ele>
        <time>2024-08-12T08:05:03Z</time>
      </trkpt>
      <trkpt lat="44.77445" lon="6.36104">
        <ele>2737.8</ele>
        <time>2024-08-12T08:05:04Z</time>
      </trkpt>
      <trkpt lat="44.77445" lon="6.36104">
        <ele>2738</ele>
        <time>2024-08-12T08:05:05Z</time>
      </trkpt>
      <trkpt lat="44.77445" lon="6.36104">
        <ele>2738.2</ele>
        <time>2024-08-12T08:05:06Z</time>
      </trkpt>
      <trkpt lat="44.77445" lon="6.36104">
        <ele>2738.2</ele>
        <time>2024-08-12T08:05:07Z</time>
      </trkpt>
      <trkpt lat="44.77445" lon="6.36104">
        <ele>2738.2</ele>
        <time>2024-08-12T08:05:08Z</time>
      </trkpt>
      <trkpt lat="44.77444" lon="6.36101">
        <ele>2738.6</ele>
        <time>2024-08-12T08:05:09Z</time>
      </trkpt>
      <trkpt lat="44.77444" lon="6.36101">
        <ele>2738.8</ele>
        <time>2024-08-12T08:05:10Z</time>
      </trkpt>
      <trkpt lat="44.77444" lon="6.36101">
        <ele>2739.2</ele>
        <time>2024-08-12T08:05:11Z</time>
      </trkpt>
      <trkpt lat="44.77444" lon="6.36101">
        <ele>2739.4</ele>
        <time>2024-08-12T08:05:12Z</time>
      </trkpt>
      <trkpt lat="44.77444" lon="6.36101">
        <ele>2739.8</ele>
        <time>2024-08-12T08:05:13Z</time>
      </trkpt>
      <trkpt lat="44.77443" lon="6.36098">
        <ele>2740</ele>
        <time>2024-08-12T08:05:14Z</time>
      </trkpt>
      <trkpt lat="44.77443" lon="6.36098">
        <ele>2740.2</ele>
        <time>2024-08-12T08:05:15Z</time>
      </trkpt>
      <trkpt lat="44.77443" lon="6.36098">
        <ele>2740.4</ele>
        <time>2024-08-12T08:05:16Z</time>
      </trkpt>
      <trkpt lat="44.77443" lon="6.36098">
        <ele>2740.4</ele>
        <time>2024-08-12T08:05:17Z</time>
      </trkpt>
      <trkpt lat="44.77443" lon="6.36098">
        <ele>2740.4</ele>
        <time>2024-08-12T08:05:18Z</time>
      </trkpt>
      <trkpt lat="44.77441" lon="6.36095">
        <ele>2740.4</ele>
        <time>2024-08-12T08:05:19Z</time>
      </trkpt>
      <trkpt lat="44.77441" lon="6.36095">
        <ele>2740.6</ele>
        <time>2024-08-12T08:05:20Z</time>
      </trkpt>
      <trkpt lat="44.77441" lon="6.36095">
        <ele>2741.2</ele>
        <time>2024-08-12T08:05:21Z</time>
      </trkpt>
      <trkpt lat="44.77441" lon="6.36095">
        <ele>2741.6</ele>
        <time>2024-08-12T08:05:22Z</time>
      </trkpt>
      <trkpt lat="44.77441" lon="6.36095">
        <ele>2741.8</ele>
        <time>2024-08-12T08:05:23Z</time>
      </trkpt>
      <trkpt lat="44.77441" lon="6.36095">
        <ele>2742</ele>
        <time>2024-08-12T08:05:24Z</time>
      </trkpt>
      <trkpt lat="44.77441" lon="6.36095">
        <ele>2742</ele>
        <time>2024-08-12T08:05:25Z</time>
      </trkpt>
      <trkpt lat="44.77441" lon="6.36095">
        <ele>2742</ele>
        <time>2024-08-12T08:05:26Z</time>
      </trkpt>
      <trkpt lat="44.77441" lon="6.36095">
        <ele>2742</ele>
        <time>2024-08-12T08:05:27Z</time>
      </trkpt>
      <trkpt lat="44.77441" lon="6.36095">
        <ele>2742.4</ele>
        <time>2024-08-12T08:05:28Z</time>
      </trkpt>
      <trkpt lat="44.77441" lon="6.36095">
        <ele>2742.4</ele>
        <time>2024-08-12T08:05:29Z</time>
      </trkpt>
      <trkpt lat="44.7744" lon="6.36098">
        <ele>2742.4</ele>
        <time>2024-08-12T08:05:30Z</time>
      </trkpt>
      <trkpt lat="44.7744" lon="6.36098">
        <ele>2742.4</ele>
        <time>2024-08-12T08:05:31Z</time>
      </trkpt>
      <trkpt lat="44.77439" lon="6.361">
        <ele>2742.4</ele>
        <time>2024-08-12T08:05:32Z</time>
      </trkpt>
      <trkpt lat="44.77439" lon="6.361">
        <ele>2742.4</ele>
        <time>2024-08-12T08:05:33Z</time>
      </trkpt>
      <trkpt lat="44.77439" lon="6.361">
        <ele>2742.4</ele>
        <time>2024-08-12T08:05:34Z</time>
      </trkpt>
      <trkpt lat="44.77437" lon="6.36099">
        <ele>2742.6</ele>
        <time>2024-08-12T08:05:35Z</time>
      </trkpt>
      <trkpt lat="44.77437" lon="6.36099">
        <ele>2742.6</ele>
        <time>2024-08-12T08:05:36Z</time>
      </trkpt>
      <trkpt lat="44.77437" lon="6.36099">
        <ele>2743.2</ele>
        <time>2024-08-12T08:05:37Z</time>
      </trkpt>
      <trkpt lat="44.77437" lon="6.36099">
        <ele>2743.6</ele>
        <time>2024-08-12T08:05:38Z</time>
      </trkpt>
      <trkpt lat="44.77437" lon="6.36099">
        <ele>2744.2</ele>
        <time>2024-08-12T08:05:39Z</time>
      </trkpt>
      <trkpt lat="44.77437" lon="6.36097">
        <ele>2744.2</ele>
        <time>2024-08-12T08:05:40Z</time>
      </trkpt>
      <trkpt lat="44.77437" lon="6.36097">
        <ele>2744.2</ele>
        <time>2024-08-12T08:05:41Z</time>
      </trkpt>
      <trkpt lat="44.77437" lon="6.36097">
        <ele>2744.4</ele>
        <time>2024-08-12T08:05:42Z</time>
      </trkpt>
      <trkpt lat="44.77437" lon="6.36097">
        <ele>2744.6</ele>
        <time>2024-08-12T08:05:43Z</time>
      </trkpt>
      <trkpt lat="44.77437" lon="6.36097">
        <ele>2744.6</ele>
        <time>2024-08-12T08:05:44Z</time>
      </trkpt>
      <trkpt lat="44.77437" lon="6.36097">
        <ele>2744.8</ele>
        <time>2024-08-12T08:05:45Z</time>
      </trkpt>
      <trkpt lat="44.77437" lon="6.36097">
        <ele>2745.4</ele>
        <time>2024-08-12T08:05:46Z</time>
      </trkpt>
      <trkpt lat="44.77437" lon="6.36097">
        <ele>2745.6</ele>
        <time>2024-08-12T08:05:47Z</time>
      </trkpt>
      <trkpt lat="44.77437" lon="6.36097">
        <ele>2745.6</ele>
        <time>2024-08-12T08:05:48Z</time>
      </trkpt>
      <trkpt lat="44.77437" lon="6.36097">
        <ele>2745.6</ele>
        <time>2024-08-12T08:05:49Z</time>
      </trkpt>
      <trkpt lat="44.77437" lon="6.36097">
        <ele>2746</ele>
        <time>2024-08-12T08:05:50Z</time>
      </trkpt>
      <trkpt lat="44.77437" lon="6.36097">
        <ele>2746.2</ele>
        <time>2024-08-12T08:05:51Z</time>
      </trkpt>
      <trkpt lat="44.77437" lon="6.36097">
        <ele>2746.4</ele>
        <time>2024-08-12T08:05:52Z</time>
      </trkpt>
      <trkpt lat="44.77437" lon="6.36097">
        <ele>2746.6</ele>
        <time>2024-08-12T08:05:53Z</time>
      </trkpt>
      <trkpt lat="44.77437" lon="6.36097">
        <ele>2747</ele>
        <time>2024-08-12T08:05:54Z</time>
      </trkpt>
      <trkpt lat="44.77437" lon="6.36097">
        <ele>2747</ele>
        <time>2024-08-12T08:05:55Z</time>
      </trkpt>
      <trkpt lat="44.77437" lon="6.36097">
        <ele>2747.4</ele>
        <time>2024-08-12T08:05:56Z</time>
      </trkpt>
      <trkpt lat="44.77437" lon="6.36097">
        <ele>2747.4</ele>
        <time>2024-08-12T08:05:57Z</time>
      </trkpt>
      <trkpt lat="44.77437" lon="6.36097">
        <ele>2747.8</ele>
        <time>2024-08-12T08:05:58Z</time>
      </trkpt>
      <trkpt lat="44.77437" lon="6.36097">
        <ele>2747.8</ele>
        <time>2024-08-12T08:05:59Z</time>
      </trkpt>
      <trkpt lat="44.77437" lon="6.36097">
        <ele>2748.2</ele>
        <time>2024-08-12T08:06:00Z</time>
      </trkpt>
      <trkpt lat="44.77437" lon="6.36097">
        <ele>2748.4</ele>
        <time>2024-08-12T08:06:01Z</time>
      </trkpt>
      <trkpt lat="44.77437" lon="6.36097">
        <ele>2748.6</ele>
        <time>2024-08-12T08:06:02Z</time>
      </trkpt>
      <trkpt lat="44.77437" lon="6.36097">
        <ele>2748.6</ele>
        <time>2024-08-12T08:06:03Z</time>
      </trkpt>
      <trkpt lat="44.77437" lon="6.36097">
        <ele>2749</ele>
        <time>2024-08-12T08:06:04Z</time>
      </trkpt>
      <trkpt lat="44.77437" lon="6.36097">
        <ele>2749</ele>
        <time>2024-08-12T08:06:05Z</time>
      </trkpt>
      <trkpt lat="44.77437" lon="6.36097">
        <ele>2749.4</ele>
        <time>2024-08-12T08:06:06Z</time>
      </trkpt>
      <trkpt lat="44.77437" lon="6.36097">
        <ele>2749.4</ele>
        <time>2024-08-12T08:06:07Z</time>
      </trkpt>
      <trkpt lat="44.77437" lon="6.36097">
        <ele>2749.8</ele>
        <time>2024-08-12T08:06:08Z</time>
      </trkpt>
      <trkpt lat="44.77437" lon="6.36097">
        <ele>2750.4</ele>
        <time>2024-08-12T08:06:09Z</time>
      </trkpt>
      <trkpt lat="44.77437" lon="6.36097">
        <ele>2750.4</ele>
        <time>2024-08-12T08:06:10Z</time>
      </trkpt>
      <trkpt lat="44.77437" lon="6.36097">
        <ele>2750.6</ele>
        <time>2024-08-12T08:06:11Z</time>
      </trkpt>
      <trkpt lat="44.77436" lon="6.36091">
        <ele>2750.6</ele>
        <time>2024-08-12T08:06:12Z</time>
      </trkpt>
      <trkpt lat="44.77435" lon="6.36086">
        <ele>2750.8</ele>
        <time>2024-08-12T08:06:13Z</time>
      </trkpt>
      <trkpt lat="44.77434" lon="6.36081">
        <ele>2751</ele>
        <time>2024-08-12T08:06:14Z</time>
      </trkpt>
      <trkpt lat="44.77433" lon="6.36078">
        <ele>2751.2</ele>
        <time>2024-08-12T08:06:15Z</time>
      </trkpt>
      <trkpt lat="44.77433" lon="6.36078">
        <ele>2751.2</ele>
        <time>2024-08-12T08:06:16Z</time>
      </trkpt>
      <trkpt lat="44.77433" lon="6.36078">
        <ele>2751.4</ele>
        <time>2024-08-12T08:06:17Z</time>
      </trkpt>
      <trkpt lat="44.77433" lon="6.36078">
        <ele>2752.4</ele>
        <time>2024-08-12T08:06:18Z</time>
      </trkpt>
      <trkpt lat="44.77433" lon="6.36078">
        <ele>2752.6</ele>
        <time>2024-08-12T08:06:19Z</time>
      </trkpt>
      <trkpt lat="44.77433" lon="6.36078">
        <ele>2752.8</ele>
        <time>2024-08-12T08:06:20Z</time>
      </trkpt>
      <trkpt lat="44.77433" lon="6.36073">
        <ele>2752.8</ele>
        <time>2024-08-12T08:06:21Z</time>
      </trkpt>
      <trkpt lat="44.77433" lon="6.36073">
        <ele>2752.6</ele>
        <time>2024-08-12T08:06:22Z</time>
      </trkpt>
      <trkpt lat="44.77433" lon="6.36073">
        <ele>2752.4</ele>
        <time>2024-08-12T08:06:23Z</time>
      </trkpt>
      <trkpt lat="44.77433" lon="6.36073">
        <ele>2752</ele>
        <time>2024-08-12T08:06:24Z</time>
      </trkpt>
      <trkpt lat="44.77433" lon="6.36073">
        <ele>2751.6</ele>
        <time>2024-08-12T08:06:25Z</time>
      </trkpt>
      <trkpt lat="44.77433" lon="6.36073">
        <ele>2751.6</ele>
        <time>2024-08-12T08:06:26Z</time>
      </trkpt>
      <trkpt lat="44.77433" lon="6.36073">
        <ele>2751.6</ele>
        <time>2024-08-12T08:06:27Z</time>
      </trkpt>
      <trkpt lat="44.77433" lon="6.36073">
        <ele>2751.6</ele>
        <time>2024-08-12T08:06:28Z</time>
      </trkpt>
      <trkpt lat="44.77433" lon="6.36073">
        <ele>2751.6</ele>
        <time>2024-08-12T08:06:29Z</time>
      </trkpt>
      <trkpt lat="44.77433" lon="6.36073">
        <ele>2751.6</ele>
        <time>2024-08-12T08:06:30Z</time>
      </trkpt>
      <trkpt lat="44.77433" lon="6.36073">
        <ele>2751.8</ele>
        <time>2024-08-12T08:06:31Z</time>
      </trkpt>
      <trkpt lat="44.77433" lon="6.36073">
        <ele>2752</ele>
        <time>2024-08-12T08:06:32Z</time>
      </trkpt>
      <trkpt lat="44.77433" lon="6.36073">
        <ele>2752.4</ele>
        <time>2024-08-12T08:06:33Z</time>
      </trkpt>
      <trkpt lat="44.77433" lon="6.36073">
        <ele>2752.4</ele>
        <time>2024-08-12T08:06:34Z</time>
      </trkpt>
      <trkpt lat="44.77433" lon="6.36073">
        <ele>2752.4</ele>
        <time>2024-08-12T08:06:35Z</time>
      </trkpt>
      <trkpt lat="44.77433" lon="6.36073">
        <ele>2752.6</ele>
        <time>2024-08-12T08:06:36Z</time>
      </trkpt>
      <trkpt lat="44.77433" lon="6.36073">
        <ele>2752.6</ele>
        <time>2024-08-12T08:06:37Z</time>
      </trkpt>
      <trkpt lat="44.77433" lon="6.36073">
        <ele>2752.6</ele>
        <time>2024-08-12T08:06:38Z</time>
      </trkpt>
      <trkpt lat="44.77433" lon="6.36073">
        <ele>2752.6</ele>
        <time>2024-08-12T08:06:39Z</time>
      </trkpt>
      <trkpt lat="44.77433" lon="6.36073">
        <ele>2752.4</ele>
        <time>2024-08-12T08:06:40Z</time>
      </trkpt>
      <trkpt lat="44.77433" lon="6.36073">
        <ele>2752.6</ele>
        <time>2024-08-12T08:06:41Z</time>
      </trkpt>
      <trkpt lat="44.77433" lon="6.36073">
        <ele>2752.6</ele>
        <time>2024-08-12T08:06:42Z</time>
      </trkpt>
      <trkpt lat="44.77433" lon="6.36073">
        <ele>2752.6</ele>
        <time>2024-08-12T08:06:43Z</time>
      </trkpt>
      <trkpt lat="44.77433" lon="6.36073">
        <ele>2752.8</ele>
        <time>2024-08-12T08:06:44Z</time>
      </trkpt>
      <trkpt lat="44.77433" lon="6.36073">
        <ele>2752.8</ele>
        <time>2024-08-12T08:06:45Z</time>
      </trkpt>
      <trkpt lat="44.77433" lon="6.36073">
        <ele>2752.8</ele>
        <time>2024-08-12T08:06:46Z</time>
      </trkpt>
      <trkpt lat="44.77433" lon="6.36073">
        <ele>2752.6</ele>
        <time>2024-08-12T08:06:47Z</time>
      </trkpt>
      <trkpt lat="44.77433" lon="6.36073">
        <ele>2752.6</ele>
        <time>2024-08-12T08:06:48Z</time>
      </trkpt>
      <trkpt lat="44.77433" lon="6.36073">
        <ele>2752.4</ele>
        <time>2024-08-12T08:06:49Z</time>
      </trkpt>
      <trkpt lat="44.77433" lon="6.36073">
        <ele>2752.4</ele>
        <time>2024-08-12T08:06:50Z</time>
      </trkpt>
      <trkpt lat="44.77433" lon="6.36073">
        <ele>2752.4</ele>
        <time>2024-08-12T08:06:51Z</time>
      </trkpt>
      <trkpt lat="44.77433" lon="6.36073">
        <ele>2752.2</ele>
        <time>2024-08-12T08:06:52Z</time>
      </trkpt>
      <trkpt lat="44.77433" lon="6.36073">
        <ele>2752.4</ele>
        <time>2024-08-12T08:06:53Z</time>
      </trkpt>
      <trkpt lat="44.77433" lon="6.36073">
        <ele>2752.4</ele>
        <time>2024-08-12T08:06:54Z</time>
      </trkpt>
      <trkpt lat="44.77433" lon="6.36073">
        <ele>2752.4</ele>
        <time>2024-08-12T08:06:55Z</time>
      </trkpt>
      <trkpt lat="44.77433" lon="6.36073">
        <ele>2752.4</ele>
        <time>2024-08-12T08:06:56Z</time>
      </trkpt>
      <trkpt lat="44.77433" lon="6.36073">
        <ele>2752.2</ele>
        <time>2024-08-12T08:06:57Z</time>
      </trkpt>
      <trkpt lat="44.77433" lon="6.36073">
        <ele>2752.2</ele>
        <time>2024-08-12T08:06:58Z</time>
      </trkpt>
      <trkpt lat="44.77433" lon="6.36073">
        <ele>2752.2</ele>
        <time>2024-08-12T08:06:59Z</time>
      </trkpt>
      <trkpt lat="44.77433" lon="6.36073">
        <ele>2752.2</ele>
        <time>2024-08-12T08:07:00Z</time>
      </trkpt>
      <trkpt lat="44.77433" lon="6.36073">
        <ele>2752.2</ele>
        <time>2024-08-12T08:07:01Z</time>
      </trkpt>
      <trkpt lat="44.77433" lon="6.36073">
        <ele>2752.2</ele>
        <time>2024-08-12T08:07:02Z</time>
      </trkpt>
      <trkpt lat="44.77433" lon="6.36073">
        <ele>2752.2</ele>
        <time>2024-08-12T08:07:03Z</time>
      </trkpt>
      <trkpt lat="44.77433" lon="6.36073">
        <ele>2752.2</ele>
        <time>2024-08-12T08:07:04Z</time>
      </trkpt>
      <trkpt lat="44.77433" lon="6.36073">
        <ele>2751.8</ele>
        <time>2024-08-12T08:07:05Z</time>
      </trkpt>
      <trkpt lat="44.77433" lon="6.36073">
        <ele>2751.8</ele>
        <time>2024-08-12T08:07:06Z</time>
      </trkpt>
      <trkpt lat="44.77433" lon="6.36073">
        <ele>2751.8</ele>
        <time>2024-08-12T08:07:07Z</time>
      </trkpt>
      <trkpt lat="44.77433" lon="6.36073">
        <ele>2752</ele>
        <time>2024-08-12T08:07:08Z</time>
      </trkpt>
      <trkpt lat="44.77433" lon="6.36073">
        <ele>2752</ele>
        <time>2024-08-12T08:07:09Z</time>
      </trkpt>
      <trkpt lat="44.77433" lon="6.36073">
        <ele>2751.6</ele>
        <time>2024-08-12T08:07:10Z</time>
      </trkpt>
      <trkpt lat="44.77433" lon="6.36073">
        <ele>2751.6</ele>
        <time>2024-08-12T08:07:11Z</time>
      </trkpt>
      <trkpt lat="44.77433" lon="6.36073">
        <ele>2751.6</ele>
        <time>2024-08-12T08:07:12Z</time>
      </trkpt>
      <trkpt lat="44.77433" lon="6.36073">
        <ele>2752</ele>
        <time>2024-08-12T08:07:13Z</time>
      </trkpt>
      <trkpt lat="44.77433" lon="6.36073">
        <ele>2752</ele>
        <time>2024-08-12T08:07:14Z</time>
      </trkpt>
      <trkpt lat="44.77433" lon="6.36073">
        <ele>2752</ele>
        <time>2024-08-12T08:07:15Z</time>
      </trkpt>
      <trkpt lat="44.77433" lon="6.36073">
        <ele>2752</ele>
        <time>2024-08-12T08:07:16Z</time>
      </trkpt>
      <trkpt lat="44.77433" lon="6.36073">
        <ele>2752</ele>
        <time>2024-08-12T08:07:17Z</time>
      </trkpt>
      <trkpt lat="44.77433" lon="6.36073">
        <ele>2752.2</ele>
        <time>2024-08-12T08:07:18Z</time>
      </trkpt>
      <trkpt lat="44.77433" lon="6.36073">
        <ele>2752.2</ele>
        <time>2024-08-12T08:07:19Z</time>
      </trkpt>
      <trkpt lat="44.77433" lon="6.36073">
        <ele>2752.2</ele>
        <time>2024-08-12T08:07:20Z</time>
      </trkpt>
      <trkpt lat="44.77433" lon="6.36073">
        <ele>2752.2</ele>
        <time>2024-08-12T08:07:21Z</time>
      </trkpt>
      <trkpt lat="44.77433" lon="6.36073">
        <ele>2752.4</ele>
        <time>2024-08-12T08:07:22Z</time>
      </trkpt>
      <trkpt lat="44.77431" lon="6.36069">
        <ele>2752.4</ele>
        <time>2024-08-12T08:07:23Z</time>
      </trkpt>
      <trkpt lat="44.77431" lon="6.36069">
        <ele>2752.2</ele>
        <time>2024-08-12T08:07:24Z</time>
      </trkpt>
      <trkpt lat="44.77431" lon="6.36065">
        <ele>2752.2</ele>
        <time>2024-08-12T08:07:25Z</time>
      </trkpt>
      <trkpt lat="44.77431" lon="6.36065">
        <ele>2752.4</ele>
        <time>2024-08-12T08:07:26Z</time>
      </trkpt>
      <trkpt lat="44.77432" lon="6.3606">
        <ele>2752.4</ele>
        <time>2024-08-12T08:07:27Z</time>
      </trkpt>
      <trkpt lat="44.77432" lon="6.3606">
        <ele>2752.8</ele>
        <time>2024-08-12T08:07:28Z</time>
      </trkpt>
      <trkpt lat="44.77432" lon="6.36057">
        <ele>2752.8</ele>
        <time>2024-08-12T08:07:29Z</time>
      </trkpt>
      <trkpt lat="44.77432" lon="6.36057">
        <ele>2753.2</ele>
        <time>2024-08-12T08:07:30Z</time>
      </trkpt>
      <trkpt lat="44.77431" lon="6.36054">
        <ele>2753.4</ele>
        <time>2024-08-12T08:07:31Z</time>
      </trkpt>
      <trkpt lat="44.77431" lon="6.36054">
        <ele>2753.6</ele>
        <time>2024-08-12T08:07:32Z</time>
      </trkpt>
      <trkpt lat="44.77431" lon="6.36054">
        <ele>2753.6</ele>
        <time>2024-08-12T08:07:33Z</time>
      </trkpt>
      <trkpt lat="44.77432" lon="6.36051">
        <ele>2754</ele>
        <time>2024-08-12T08:07:34Z</time>
      </trkpt>
      <trkpt lat="44.77432" lon="6.36051">
        <ele>2754</ele>
        <time>2024-08-12T08:07:35Z</time>
      </trkpt>
      <trkpt lat="44.77432" lon="6.36051">
        <ele>2754</ele>
        <time>2024-08-12T08:07:36Z</time>
      </trkpt>
      <trkpt lat="44.77432" lon="6.36051">
        <ele>2754.2</ele>
        <time>2024-08-12T08:07:37Z</time>
      </trkpt>
      <trkpt lat="44.77432" lon="6.36048">
        <ele>2754.4</ele>
        <time>2024-08-12T08:07:38Z</time>
      </trkpt>
      <trkpt lat="44.77432" lon="6.36048">
        <ele>2754.6</ele>
        <time>2024-08-12T08:07:39Z</time>
      </trkpt>
      <trkpt lat="44.77432" lon="6.36048">
        <ele>2754.8</ele>
        <time>2024-08-12T08:07:40Z</time>
      </trkpt>
      <trkpt lat="44.77432" lon="6.36048">
        <ele>2755.2</ele>
        <time>2024-08-12T08:07:41Z</time>
      </trkpt>
      <trkpt lat="44.77431" lon="6.36045">
        <ele>2755.6</ele>
        <time>2024-08-12T08:07:42Z</time>
      </trkpt>
      <trkpt lat="44.77431" lon="6.36045">
        <ele>2755.8</ele>
        <time>2024-08-12T08:07:43Z</time>
      </trkpt>
      <trkpt lat="44.77431" lon="6.36045">
        <ele>2756.4</ele>
        <time>2024-08-12T08:07:44Z</time>
      </trkpt>
      <trkpt lat="44.77431" lon="6.36045">
        <ele>2756.8</ele>
        <time>2024-08-12T08:07:45Z</time>
      </trkpt>
      <trkpt lat="44.77431" lon="6.36043">
        <ele>2757.2</ele>
        <time>2024-08-12T08:07:46Z</time>
      </trkpt>
      <trkpt lat="44.77431" lon="6.36043">
        <ele>2757.6</ele>
        <time>2024-08-12T08:07:47Z</time>
      </trkpt>
      <trkpt lat="44.77431" lon="6.36043">
        <ele>2757.8</ele>
        <time>2024-08-12T08:07:48Z</time>
      </trkpt>
      <trkpt lat="44.77431" lon="6.3604">
        <ele>2757.8</ele>
        <time>2024-08-12T08:07:49Z</time>
      </trkpt>
      <trkpt lat="44.77431" lon="6.3604">
        <ele>2758</ele>
        <time>2024-08-12T08:07:50Z</time>
      </trkpt>
      <trkpt lat="44.77431" lon="6.3604">
        <ele>2758.4</ele>
        <time>2024-08-12T08:07:51Z</time>
      </trkpt>
      <trkpt lat="44.7743" lon="6.36037">
        <ele>2758.8</ele>
        <time>2024-08-12T08:07:52Z</time>
      </trkpt>
      <trkpt lat="44.7743" lon="6.36037">
        <ele>2759</ele>
        <time>2024-08-12T08:07:53Z</time>
      </trkpt>
      <trkpt lat="44.7743" lon="6.36035">
        <ele>2759.4</ele>
        <time>2024-08-12T08:07:54Z</time>
      </trkpt>
      <trkpt lat="44.7743" lon="6.36035">
        <ele>2759.4</ele>
        <time>2024-08-12T08:07:55Z</time>
      </trkpt>
      <trkpt lat="44.7743" lon="6.36035">
        <ele>2759.8</ele>
        <time>2024-08-12T08:07:56Z</time>
      </trkpt>
      <trkpt lat="44.7743" lon="6.36035">
        <ele>2760.4</ele>
        <time>2024-08-12T08:07:57Z</time>
      </trkpt>
      <trkpt lat="44.77429" lon="6.36032">
        <ele>2761</ele>
        <time>2024-08-12T08:07:58Z</time>
      </trkpt>
      <trkpt lat="44.77429" lon="6.36032">
        <ele>2761.2</ele>
        <time>2024-08-12T08:07:59Z</time>
      </trkpt>
      <trkpt lat="44.77429" lon="6.36032">
        <ele>2761.2</ele>
        <time>2024-08-12T08:08:00Z</time>
      </trkpt>
      <trkpt lat="44.77428" lon="6.36029">
        <ele>2761.2</ele>
        <time>2024-08-12T08:08:01Z</time>
      </trkpt>
      <trkpt lat="44.77428" lon="6.36029">
        <ele>2761</ele>
        <time>2024-08-12T08:08:02Z</time>
      </trkpt>
      <trkpt lat="44.77427" lon="6.36027">
        <ele>2761</ele>
        <time>2024-08-12T08:08:03Z</time>
      </trkpt>
      <trkpt lat="44.77427" lon="6.36027">
        <ele>2761.6</ele>
        <time>2024-08-12T08:08:04Z</time>
      </trkpt>
      <trkpt lat="44.77427" lon="6.36027">
        <ele>2761.8</ele>
        <time>2024-08-12T08:08:05Z</time>
      </trkpt>
      <trkpt lat="44.77426" lon="6.36025">
        <ele>2761.8</ele>
        <time>2024-08-12T08:08:06Z</time>
      </trkpt>
      <trkpt lat="44.77426" lon="6.36025">
        <ele>2761.8</ele>
        <time>2024-08-12T08:08:07Z</time>
      </trkpt>
      <trkpt lat="44.77426" lon="6.36025">
        <ele>2762</ele>
        <time>2024-08-12T08:08:08Z</time>
      </trkpt>
      <trkpt lat="44.77426" lon="6.36025">
        <ele>2762.4</ele>
        <time>2024-08-12T08:08:09Z</time>
      </trkpt>
      <trkpt lat="44.77426" lon="6.36025">
        <ele>2762.4</ele>
        <time>2024-08-12T08:08:10Z</time>
      </trkpt>
      <trkpt lat="44.77426" lon="6.36025">
        <ele>2762.2</ele>
        <time>2024-08-12T08:08:11Z</time>
      </trkpt>
      <trkpt lat="44.77426" lon="6.36025">
        <ele>2762.2</ele>
        <time>2024-08-12T08:08:12Z</time>
      </trkpt>
      <trkpt lat="44.77426" lon="6.36025">
        <ele>2762.4</ele>
        <time>2024-08-12T08:08:13Z</time>
      </trkpt>
      <trkpt lat="44.77426" lon="6.36025">
        <ele>2762.6</ele>
        <time>2024-08-12T08:08:14Z</time>
      </trkpt>
      <trkpt lat="44.77426" lon="6.36025">
        <ele>2762.6</ele>
        <time>2024-08-12T08:08:15Z</time>
      </trkpt>
      <trkpt lat="44.77426" lon="6.36025">
        <ele>2762.6</ele>
        <time>2024-08-12T08:08:16Z</time>
      </trkpt>
      <trkpt lat="44.77426" lon="6.36025">
        <ele>2762.6</ele>
        <time>2024-08-12T08:08:17Z</time>
      </trkpt>
      <trkpt lat="44.77426" lon="6.36025">
        <ele>2762.6</ele>
        <time>2024-08-12T08:08:18Z</time>
      </trkpt>
      <trkpt lat="44.77426" lon="6.36025">
        <ele>2762.4</ele>
        <time>2024-08-12T08:08:19Z</time>
      </trkpt>
      <trkpt lat="44.77426" lon="6.36025">
        <ele>2762.4</ele>
        <time>2024-08-12T08:08:20Z</time>
      </trkpt>
      <trkpt lat="44.77426" lon="6.36025">
        <ele>2762.4</ele>
        <time>2024-08-12T08:08:21Z</time>
      </trkpt>
      <trkpt lat="44.77426" lon="6.36025">
        <ele>2762.8</ele>
        <time>2024-08-12T08:08:22Z</time>
      </trkpt>
      <trkpt lat="44.77426" lon="6.36025">
        <ele>2763</ele>
        <time>2024-08-12T08:08:23Z</time>
      </trkpt>
      <trkpt lat="44.77426" lon="6.36025">
        <ele>2763</ele>
        <time>2024-08-12T08:08:24Z</time>
      </trkpt>
      <trkpt lat="44.77426" lon="6.36025">
        <ele>2763</ele>
        <time>2024-08-12T08:08:25Z</time>
      </trkpt>
      <trkpt lat="44.77426" lon="6.36025">
        <ele>2763</ele>
        <time>2024-08-12T08:08:26Z</time>
      </trkpt>
      <trkpt lat="44.77426" lon="6.36025">
        <ele>2763</ele>
        <time>2024-08-12T08:08:27Z</time>
      </trkpt>
      <trkpt lat="44.77426" lon="6.36025">
        <ele>2763</ele>
        <time>2024-08-12T08:08:28Z</time>
      </trkpt>
      <trkpt lat="44.77426" lon="6.36025">
        <ele>2763</ele>
        <time>2024-08-12T08:08:29Z</time>
      </trkpt>
      <trkpt lat="44.77426" lon="6.36028">
        <ele>2763</ele>
        <time>2024-08-12T08:08:30Z</time>
      </trkpt>
      <trkpt lat="44.77426" lon="6.36028">
        <ele>2763</ele>
        <time>2024-08-12T08:08:31Z</time>
      </trkpt>
      <trkpt lat="44.77427" lon="6.36031">
        <ele>2763</ele>
        <time>2024-08-12T08:08:32Z</time>
      </trkpt>
      <trkpt lat="44.77427" lon="6.36031">
        <ele>2763</ele>
        <time>2024-08-12T08:08:33Z</time>
      </trkpt>
      <trkpt lat="44.77427" lon="6.36031">
        <ele>2763.2</ele>
        <time>2024-08-12T08:08:34Z</time>
      </trkpt>
      <trkpt lat="44.77427" lon="6.36031">
        <ele>2763.2</ele>
        <time>2024-08-12T08:08:35Z</time>
      </trkpt>
      <trkpt lat="44.77427" lon="6.36031">
        <ele>2763.2</ele>
        <time>2024-08-12T08:08:36Z</time>
      </trkpt>
      <trkpt lat="44.77427" lon="6.36031">
        <ele>2763</ele>
        <time>2024-08-12T08:08:37Z</time>
      </trkpt>
      <trkpt lat="44.77427" lon="6.36031">
        <ele>2762.6</ele>
        <time>2024-08-12T08:08:38Z</time>
      </trkpt>
      <trkpt lat="44.77427" lon="6.36031">
        <ele>2762.8</ele>
        <time>2024-08-12T08:08:39Z</time>
      </trkpt>
      <trkpt lat="44.77427" lon="6.36031">
        <ele>2763</ele>
        <time>2024-08-12T08:08:40Z</time>
      </trkpt>
      <trkpt lat="44.77427" lon="6.36031">
        <ele>2763</ele>
        <time>2024-08-12T08:08:41Z</time>
      </trkpt>
      <trkpt lat="44.77427" lon="6.36031">
        <ele>2763</ele>
        <time>2024-08-12T08:08:42Z</time>
      </trkpt>
      <trkpt lat="44.77427" lon="6.36031">
        <ele>2763</ele>
        <time>2024-08-12T08:08:43Z</time>
      </trkpt>
      <trkpt lat="44.77427" lon="6.36031">
        <ele>2763</ele>
        <time>2024-08-12T08:08:44Z</time>
      </trkpt>
      <trkpt lat="44.77427" lon="6.36031">
        <ele>2762.6</ele>
        <time>2024-08-12T08:08:45Z</time>
      </trkpt>
      <trkpt lat="44.77427" lon="6.36031">
        <ele>2762.6</ele>
        <time>2024-08-12T08:08:46Z</time>
      </trkpt>
      <trkpt lat="44.77427" lon="6.36031">
        <ele>2762.4</ele>
        <time>2024-08-12T08:08:47Z</time>
      </trkpt>
      <trkpt lat="44.77427" lon="6.36031">
        <ele>2762.4</ele>
        <time>2024-08-12T08:08:48Z</time>
      </trkpt>
      <trkpt lat="44.77427" lon="6.36031">
        <ele>2762.6</ele>
        <time>2024-08-12T08:08:49Z</time>
      </trkpt>
      <trkpt lat="44.77427" lon="6.36031">
        <ele>2762.8</ele>
        <time>2024-08-12T08:08:50Z</time>
      </trkpt>
      <trkpt lat="44.77427" lon="6.36031">
        <ele>2762.8</ele>
        <time>2024-08-12T08:08:51Z</time>
      </trkpt>
      <trkpt lat="44.77427" lon="6.36031">
        <ele>2762.6</ele>
        <time>2024-08-12T08:08:52Z</time>
      </trkpt>
      <trkpt lat="44.77427" lon="6.36031">
        <ele>2762.6</ele>
        <time>2024-08-12T08:08:53Z</time>
      </trkpt>
      <trkpt lat="44.77427" lon="6.36031">
        <ele>2762.8</ele>
        <time>2024-08-12T08:08:54Z</time>
      </trkpt>
      <trkpt lat="44.77427" lon="6.36031">
        <ele>2762.8</ele>
        <time>2024-08-12T08:08:55Z</time>
      </trkpt>
      <trkpt lat="44.77427" lon="6.36031">
        <ele>2762.8</ele>
        <time>2024-08-12T08:08:56Z</time>
      </trkpt>
      <trkpt lat="44.77427" lon="6.36031">
        <ele>2762.8</ele>
        <time>2024-08-12T08:08:57Z</time>
      </trkpt>
      <trkpt lat="44.77427" lon="6.36031">
        <ele>2762.4</ele>
        <time>2024-08-12T08:08:58Z</time>
      </trkpt>
      <trkpt lat="44.77427" lon="6.36031">
        <ele>2762.4</ele>
        <time>2024-08-12T08:08:59Z</time>
      </trkpt>
      <trkpt lat="44.77427" lon="6.36031">
        <ele>2762.6</ele>
        <time>2024-08-12T08:09:00Z</time>
      </trkpt>
      <trkpt lat="44.77427" lon="6.36031">
        <ele>2762.6</ele>
        <time>2024-08-12T08:09:01Z</time>
      </trkpt>
      <trkpt lat="44.77427" lon="6.36031">
        <ele>2762.6</ele>
        <time>2024-08-12T08:09:02Z</time>
      </trkpt>
      <trkpt lat="44.77427" lon="6.36031">
        <ele>2762.6</ele>
        <time>2024-08-12T08:09:03Z</time>
      </trkpt>
      <trkpt lat="44.77427" lon="6.36031">
        <ele>2762.6</ele>
        <time>2024-08-12T08:09:04Z</time>
      </trkpt>
      <trkpt lat="44.77427" lon="6.36031">
        <ele>2762</ele>
        <time>2024-08-12T08:09:05Z</time>
      </trkpt>
      <trkpt lat="44.77427" lon="6.36031">
        <ele>2761.6</ele>
        <time>2024-08-12T08:09:06Z</time>
      </trkpt>
      <trkpt lat="44.77427" lon="6.36031">
        <ele>2761.6</ele>
        <time>2024-08-12T08:09:07Z</time>
      </trkpt>
      <trkpt lat="44.77425" lon="6.36028">
        <ele>2762</ele>
        <time>2024-08-12T08:09:08Z</time>
      </trkpt>
      <trkpt lat="44.77425" lon="6.36028">
        <ele>2762.2</ele>
        <time>2024-08-12T08:09:09Z</time>
      </trkpt>
      <trkpt lat="44.77425" lon="6.36028">
        <ele>2762.2</ele>
        <time>2024-08-12T08:09:10Z</time>
      </trkpt>
      <trkpt lat="44.77425" lon="6.36028">
        <ele>2762.6</ele>
        <time>2024-08-12T08:09:11Z</time>
      </trkpt>
      <trkpt lat="44.77425" lon="6.36028">
        <ele>2762.8</ele>
        <time>2024-08-12T08:09:12Z</time>
      </trkpt>
      <trkpt lat="44.77425" lon="6.36028">
        <ele>2762.8</ele>
        <time>2024-08-12T08:09:13Z</time>
      </trkpt>
      <trkpt lat="44.77425" lon="6.36028">
        <ele>2763</ele>
        <time>2024-08-12T08:09:14Z</time>
      </trkpt>
      <trkpt lat="44.77425" lon="6.36028">
        <ele>2763</ele>
        <time>2024-08-12T08:09:15Z</time>
      </trkpt>
      <trkpt lat="44.77425" lon="6.36028">
        <ele>2763</ele>
        <time>2024-08-12T08:09:16Z</time>
      </trkpt>
      <trkpt lat="44.77425" lon="6.36028">
        <ele>2763</ele>
        <time>2024-08-12T08:09:17Z</time>
      </trkpt>
      <trkpt lat="44.77425" lon="6.36028">
        <ele>2763</ele>
        <time>2024-08-12T08:09:18Z</time>
      </trkpt>
      <trkpt lat="44.77425" lon="6.36028">
        <ele>2763</ele>
        <time>2024-08-12T08:09:19Z</time>
      </trkpt>
      <trkpt lat="44.77425" lon="6.36028">
        <ele>2763</ele>
        <time>2024-08-12T08:09:20Z</time>
      </trkpt>
      <trkpt lat="44.77425" lon="6.36028">
        <ele>2762.8</ele>
        <time>2024-08-12T08:09:21Z</time>
      </trkpt>
      <trkpt lat="44.77425" lon="6.36028">
        <ele>2762.8</ele>
        <time>2024-08-12T08:09:22Z</time>
      </trkpt>
      <trkpt lat="44.77425" lon="6.36028">
        <ele>2762.8</ele>
        <time>2024-08-12T08:09:23Z</time>
      </trkpt>
      <trkpt lat="44.77425" lon="6.36028">
        <ele>2762.8</ele>
        <time>2024-08-12T08:09:24Z</time>
      </trkpt>
      <trkpt lat="44.77425" lon="6.36028">
        <ele>2762.8</ele>
        <time>2024-08-12T08:09:25Z</time>
      </trkpt>
      <trkpt lat="44.77425" lon="6.36028">
        <ele>2762.8</ele>
        <time>2024-08-12T08:09:26Z</time>
      </trkpt>
      <trkpt lat="44.77425" lon="6.36028">
        <ele>2762.8</ele>
        <time>2024-08-12T08:09:27Z</time>
      </trkpt>
      <trkpt lat="44.77424" lon="6.36025">
        <ele>2763.4</ele>
        <time>2024-08-12T08:09:28Z</time>
      </trkpt>
      <trkpt lat="44.77424" lon="6.36025">
        <ele>2763.4</ele>
        <time>2024-08-12T08:09:29Z</time>
      </trkpt>
      <trkpt lat="44.77423" lon="6.36022">
        <ele>2763.4</ele>
        <time>2024-08-12T08:09:30Z</time>
      </trkpt>
      <trkpt lat="44.77423" lon="6.36022">
        <ele>2763.2</ele>
        <time>2024-08-12T08:09:31Z</time>
      </trkpt>
      <trkpt lat="44.77422" lon="6.36019">
        <ele>2763</ele>
        <time>2024-08-12T08:09:32Z</time>
      </trkpt>
      <trkpt lat="44.77422" lon="6.36019">
        <ele>2763</ele>
        <time>2024-08-12T08:09:33Z</time>
      </trkpt>
      <trkpt lat="44.77421" lon="6.36015">
        <ele>2763</ele>
        <time>2024-08-12T08:09:34Z</time>
      </trkpt>
      <trkpt lat="44.77421" lon="6.36015">
        <ele>2763</ele>
        <time>2024-08-12T08:09:35Z</time>
      </trkpt>
      <trkpt lat="44.77421" lon="6.36011">
        <ele>2762.8</ele>
        <time>2024-08-12T08:09:36Z</time>
      </trkpt>
      <trkpt lat="44.77421" lon="6.36011">
        <ele>2762.8</ele>
        <time>2024-08-12T08:09:37Z</time>
      </trkpt>
      <trkpt lat="44.77421" lon="6.36011">
        <ele>2762.8</ele>
        <time>2024-08-12T08:09:38Z</time>
      </trkpt>
      <trkpt lat="44.77421" lon="6.36011">
        <ele>2762.8</ele>
        <time>2024-08-12T08:09:39Z</time>
      </trkpt>
      <trkpt lat="44.77421" lon="6.36011">
        <ele>2762.8</ele>
        <time>2024-08-12T08:09:40Z</time>
      </trkpt>
      <trkpt lat="44.7742" lon="6.36008">
        <ele>2762.8</ele>
        <time>2024-08-12T08:09:41Z</time>
      </trkpt>
      <trkpt lat="44.7742" lon="6.36008">
        <ele>2763</ele>
        <time>2024-08-12T08:09:42Z</time>
      </trkpt>
      <trkpt lat="44.77419" lon="6.36005">
        <ele>2763</ele>
        <time>2024-08-12T08:09:43Z</time>
      </trkpt>
      <trkpt lat="44.77419" lon="6.36005">
        <ele>2762.8</ele>
        <time>2024-08-12T08:09:44Z</time>
      </trkpt>
      <trkpt lat="44.77419" lon="6.36005">
        <ele>2762.8</ele>
        <time>2024-08-12T08:09:45Z</time>
      </trkpt>
      <trkpt lat="44.77418" lon="6.36001">
        <ele>2762.6</ele>
        <time>2024-08-12T08:09:46Z</time>
      </trkpt>
      <trkpt lat="44.77418" lon="6.36001">
        <ele>2762.6</ele>
        <time>2024-08-12T08:09:47Z</time>
      </trkpt>
      <trkpt lat="44.77417" lon="6.35998">
        <ele>2762.6</ele>
        <time>2024-08-12T08:09:48Z</time>
      </trkpt>
      <trkpt lat="44.77417" lon="6.35998">
        <ele>2762</ele>
        <time>2024-08-12T08:09:49Z</time>
      </trkpt>
      <trkpt lat="44.77417" lon="6.35995">
        <ele>2762</ele>
        <time>2024-08-12T08:09:50Z</time>
      </trkpt>
      <trkpt lat="44.77417" lon="6.35995">
        <ele>2762</ele>
        <time>2024-08-12T08:09:51Z</time>
      </trkpt>
      <trkpt lat="44.77417" lon="6.35995">
        <ele>2762</ele>
        <time>2024-08-12T08:09:52Z</time>
      </trkpt>
      <trkpt lat="44.77416" lon="6.35991">
        <ele>2762.2</ele>
        <time>2024-08-12T08:09:53Z</time>
      </trkpt>
      <trkpt lat="44.77416" lon="6.35991">
        <ele>2762.2</ele>
        <time>2024-08-12T08:09:54Z</time>
      </trkpt>
      <trkpt lat="44.77415" lon="6.35989">
        <ele>2762.2</ele>
        <time>2024-08-12T08:09:55Z</time>
      </trkpt>
      <trkpt lat="44.77415" lon="6.35989">
        <ele>2762.4</ele>
        <time>2024-08-12T08:09:56Z</time>
      </trkpt>
      <trkpt lat="44.77413" lon="6.35986">
        <ele>2762.4</ele>
        <time>2024-08-12T08:09:57Z</time>
      </trkpt>
      <trkpt lat="44.77413" lon="6.35986">
        <ele>2762.4</ele>
        <time>2024-08-12T08:09:58Z</time>
      </trkpt>
      <trkpt lat="44.77413" lon="6.35984">
        <ele>2762.4</ele>
        <time>2024-08-12T08:09:59Z</time>
      </trkpt>
      <trkpt lat="44.77413" lon="6.35984">
        <ele>2762.2</ele>
        <time>2024-08-12T08:10:00Z</time>
      </trkpt>
      <trkpt lat="44.77412" lon="6.35981">
        <ele>2762</ele>
        <time>2024-08-12T08:10:01Z</time>
      </trkpt>
      <trkpt lat="44.77412" lon="6.35981">
        <ele>2762.2</ele>
        <time>2024-08-12T08:10:02Z</time>
      </trkpt>
      <trkpt lat="44.77411" lon="6.35979">
        <ele>2762.4</ele>
        <time>2024-08-12T08:10:03Z</time>
      </trkpt>
      <trkpt lat="44.77411" lon="6.35979">
        <ele>2762.4</ele>
        <time>2024-08-12T08:10:04Z</time>
      </trkpt>
      <trkpt lat="44.7741" lon="6.35976">
        <ele>2762.6</ele>
        <time>2024-08-12T08:10:05Z</time>
      </trkpt>
      <trkpt lat="44.7741" lon="6.35976">
        <ele>2762.6</ele>
        <time>2024-08-12T08:10:06Z</time>
      </trkpt>
      <trkpt lat="44.77409" lon="6.35974">
        <ele>2762.6</ele>
        <time>2024-08-12T08:10:07Z</time>
      </trkpt>
      <trkpt lat="44.77409" lon="6.35974">
        <ele>2762.6</ele>
        <time>2024-08-12T08:10:08Z</time>
      </trkpt>
      <trkpt lat="44.77409" lon="6.35971">
        <ele>2762.8</ele>
        <time>2024-08-12T08:10:09Z</time>
      </trkpt>
      <trkpt lat="44.77409" lon="6.35971">
        <ele>2763</ele>
        <time>2024-08-12T08:10:10Z</time>
      </trkpt>
      <trkpt lat="44.77409" lon="6.35971">
        <ele>2763.2</ele>
        <time>2024-08-12T08:10:11Z</time>
      </trkpt>
      <trkpt lat="44.77409" lon="6.35971">
        <ele>2763.6</ele>
        <time>2024-08-12T08:10:12Z</time>
      </trkpt>
      <trkpt lat="44.77408" lon="6.35968">
        <ele>2764</ele>
        <time>2024-08-12T08:10:13Z</time>
      </trkpt>
      <trkpt lat="44.77408" lon="6.35968">
        <ele>2764</ele>
        <time>2024-08-12T08:10:14Z</time>
      </trkpt>
      <trkpt lat="44.77408" lon="6.35965">
        <ele>2764</ele>
        <time>2024-08-12T08:10:15Z</time>
      </trkpt>
      <trkpt lat="44.77408" lon="6.35965">
        <ele>2764</ele>
        <time>2024-08-12T08:10:16Z</time>
      </trkpt>
      <trkpt lat="44.77408" lon="6.35962">
        <ele>2764</ele>
        <time>2024-08-12T08:10:17Z</time>
      </trkpt>
      <trkpt lat="44.77408" lon="6.35962">
        <ele>2764.2</ele>
        <time>2024-08-12T08:10:18Z</time>
      </trkpt>
      <trkpt lat="44.77408" lon="6.35959">
        <ele>2764.2</ele>
        <time>2024-08-12T08:10:19Z</time>
      </trkpt>
      <trkpt lat="44.77408" lon="6.35959">
        <ele>2764.2</ele>
        <time>2024-08-12T08:10:20Z</time>
      </trkpt>
      <trkpt lat="44.77408" lon="6.35957">
        <ele>2764.2</ele>
        <time>2024-08-12T08:10:21Z</time>
      </trkpt>
      <trkpt lat="44.77408" lon="6.35957">
        <ele>2764</ele>
        <time>2024-08-12T08:10:22Z</time>
      </trkpt>
      <trkpt lat="44.77407" lon="6.35954">
        <ele>2764</ele>
        <time>2024-08-12T08:10:23Z</time>
      </trkpt>
      <trkpt lat="44.77407" lon="6.35954">
        <ele>2763.8</ele>
        <time>2024-08-12T08:10:24Z</time>
      </trkpt>
      <trkpt lat="44.77407" lon="6.3595">
        <ele>2763.4</ele>
        <time>2024-08-12T08:10:25Z</time>
      </trkpt>
      <trkpt lat="44.77407" lon="6.3595">
        <ele>2763</ele>
        <time>2024-08-12T08:10:26Z</time>
      </trkpt>
      <trkpt lat="44.77407" lon="6.35947">
        <ele>2763</ele>
        <time>2024-08-12T08:10:27Z</time>
      </trkpt>
      <trkpt lat="44.77407" lon="6.35947">
        <ele>2763</ele>
        <time>2024-08-12T08:10:28Z</time>
      </trkpt>
      <trkpt lat="44.77407" lon="6.35944">
        <ele>2763</ele>
        <time>2024-08-12T08:10:29Z</time>
      </trkpt>
      <trkpt lat="44.77407" lon="6.35944">
        <ele>2763</ele>
        <time>2024-08-12T08:10:30Z</time>
      </trkpt>
      <trkpt lat="44.77407" lon="6.35941">
        <ele>2763</ele>
        <time>2024-08-12T08:10:31Z</time>
      </trkpt>
      <trkpt lat="44.77407" lon="6.35941">
        <ele>2762.8</ele>
        <time>2024-08-12T08:10:32Z</time>
      </trkpt>
      <trkpt lat="44.77407" lon="6.35941">
        <ele>2762.6</ele>
        <time>2024-08-12T08:10:33Z</time>
      </trkpt>
      <trkpt lat="44.77406" lon="6.35938">
        <ele>2762.4</ele>
        <time>2024-08-12T08:10:34Z</time>
      </trkpt>
      <trkpt lat="44.77406" lon="6.35938">
        <ele>2762.4</ele>
        <time>2024-08-12T08:10:35Z</time>
      </trkpt>
      <trkpt lat="44.77406" lon="6.35938">
        <ele>2762.2</ele>
        <time>2024-08-12T08:10:36Z</time>
      </trkpt>
      <trkpt lat="44.77406" lon="6.35934">
        <ele>2762</ele>
        <time>2024-08-12T08:10:37Z</time>
      </trkpt>
      <trkpt lat="44.77406" lon="6.35934">
        <ele>2761.2</ele>
        <time>2024-08-12T08:10:38Z</time>
      </trkpt>
      <trkpt lat="44.77405" lon="6.35931">
        <ele>2761</ele>
        <time>2024-08-12T08:10:39Z</time>
      </trkpt>
      <trkpt lat="44.77405" lon="6.35931">
        <ele>2761</ele>
        <time>2024-08-12T08:10:40Z</time>
      </trkpt>
      <trkpt lat="44.77405" lon="6.35931">
        <ele>2760.8</ele>
        <time>2024-08-12T08:10:41Z</time>
      </trkpt>
      <trkpt lat="44.77405" lon="6.35927">
        <ele>2760.6</ele>
        <time>2024-08-12T08:10:42Z</time>
      </trkpt>
      <trkpt lat="44.77405" lon="6.35927">
        <ele>2760.6</ele>
        <time>2024-08-12T08:10:43Z</time>
      </trkpt>
      <trkpt lat="44.77405" lon="6.35924">
        <ele>2760.2</ele>
        <time>2024-08-12T08:10:44Z</time>
      </trkpt>
      <trkpt lat="44.77405" lon="6.35924">
        <ele>2759.8</ele>
        <time>2024-08-12T08:10:45Z</time>
      </trkpt>
      <trkpt lat="44.77404" lon="6.35921">
        <ele>2759.6</ele>
        <time>2024-08-12T08:10:46Z</time>
      </trkpt>
      <trkpt lat="44.77404" lon="6.35921">
        <ele>2759.6</ele>
        <time>2024-08-12T08:10:47Z</time>
      </trkpt>
      <trkpt lat="44.77404" lon="6.35918">
        <ele>2759.8</ele>
        <time>2024-08-12T08:10:48Z</time>
      </trkpt>
      <trkpt lat="44.77404" lon="6.35918">
        <ele>2759.8</ele>
        <time>2024-08-12T08:10:49Z</time>
      </trkpt>
      <trkpt lat="44.77403" lon="6.35915">
        <ele>2760</ele>
        <time>2024-08-12T08:10:50Z</time>
      </trkpt>
      <trkpt lat="44.77403" lon="6.35915">
        <ele>2760.2</ele>
        <time>2024-08-12T08:10:51Z</time>
      </trkpt>
      <trkpt lat="44.77403" lon="6.35912">
        <ele>2760.2</ele>
        <time>2024-08-12T08:10:52Z</time>
      </trkpt>
      <trkpt lat="44.77403" lon="6.35912">
        <ele>2760</ele>
        <time>2024-08-12T08:10:53Z</time>
      </trkpt>
      <trkpt lat="44.77403" lon="6.35909">
        <ele>2759.8</ele>
        <time>2024-08-12T08:10:54Z</time>
      </trkpt>
      <trkpt lat="44.77403" lon="6.35909">
        <ele>2759.8</ele>
        <time>2024-08-12T08:10:55Z</time>
      </trkpt>
      <trkpt lat="44.77402" lon="6.35907">
        <ele>2759.8</ele>
        <time>2024-08-12T08:10:56Z</time>
      </trkpt>
      <trkpt lat="44.77402" lon="6.35907">
        <ele>2760.2</ele>
        <time>2024-08-12T08:10:57Z</time>
      </trkpt>
      <trkpt lat="44.77402" lon="6.35907">
        <ele>2760.2</ele>
        <time>2024-08-12T08:10:58Z</time>
      </trkpt>
      <trkpt lat="44.77401" lon="6.35904">
        <ele>2760.2</ele>
        <time>2024-08-12T08:10:59Z</time>
      </trkpt>
      <trkpt lat="44.77401" lon="6.35904">
        <ele>2760.2</ele>
        <time>2024-08-12T08:11:00Z</time>
      </trkpt>
      <trkpt lat="44.774" lon="6.35901">
        <ele>2760.2</ele>
        <time>2024-08-12T08:11:01Z</time>
      </trkpt>
      <trkpt lat="44.774" lon="6.35901">
        <ele>2759.4</ele>
        <time>2024-08-12T08:11:02Z</time>
      </trkpt>
      <trkpt lat="44.77399" lon="6.35899">
        <ele>2759.4</ele>
        <time>2024-08-12T08:11:03Z</time>
      </trkpt>
      <trkpt lat="44.77399" lon="6.35899">
        <ele>2759.6</ele>
        <time>2024-08-12T08:11:04Z</time>
      </trkpt>
      <trkpt lat="44.77399" lon="6.35896">
        <ele>2760</ele>
        <time>2024-08-12T08:11:05Z</time>
      </trkpt>
      <trkpt lat="44.77399" lon="6.35896">
        <ele>2760.2</ele>
        <time>2024-08-12T08:11:06Z</time>
      </trkpt>
      <trkpt lat="44.77399" lon="6.35896">
        <ele>2760.2</ele>
        <time>2024-08-12T08:11:07Z</time>
      </trkpt>
      <trkpt lat="44.77398" lon="6.35893">
        <ele>2760.2</ele>
        <time>2024-08-12T08:11:08Z</time>
      </trkpt>
      <trkpt lat="44.77398" lon="6.35893">
        <ele>2760.6</ele>
        <time>2024-08-12T08:11:09Z</time>
      </trkpt>
      <trkpt lat="44.77397" lon="6.35891">
        <ele>2760.6</ele>
        <time>2024-08-12T08:11:10Z</time>
      </trkpt>
      <trkpt lat="44.77397" lon="6.35891">
        <ele>2760.4</ele>
        <time>2024-08-12T08:11:11Z</time>
      </trkpt>
      <trkpt lat="44.77397" lon="6.35891">
        <ele>2760.2</ele>
        <time>2024-08-12T08:11:12Z</time>
      </trkpt>
      <trkpt lat="44.77396" lon="6.35888">
        <ele>2760.2</ele>
        <time>2024-08-12T08:11:13Z</time>
      </trkpt>
      <trkpt lat="44.77396" lon="6.35888">
        <ele>2760.4</ele>
        <time>2024-08-12T08:11:14Z</time>
      </trkpt>
      <trkpt lat="44.77394" lon="6.35886">
        <ele>2760.6</ele>
        <time>2024-08-12T08:11:15Z</time>
      </trkpt>
      <trkpt lat="44.77394" lon="6.35886">
        <ele>2760.6</ele>
        <time>2024-08-12T08:11:16Z</time>
      </trkpt>
      <trkpt lat="44.77394" lon="6.35886">
        <ele>2760.4</ele>
        <time>2024-08-12T08:11:17Z</time>
      </trkpt>
      <trkpt lat="44.77392" lon="6.35883">
        <ele>2760.2</ele>
        <time>2024-08-12T08:11:18Z</time>
      </trkpt>
      <trkpt lat="44.77392" lon="6.35883">
        <ele>2760.2</ele>
        <time>2024-08-12T08:11:19Z</time>
      </trkpt>
      <trkpt lat="44.77392" lon="6.35883">
        <ele>2760.2</ele>
        <time>2024-08-12T08:11:20Z</time>
      </trkpt>
      <trkpt lat="44.77391" lon="6.3588">
        <ele>2760.2</ele>
        <time>2024-08-12T08:11:21Z</time>
      </trkpt>
      <trkpt lat="44.77391" lon="6.3588">
        <ele>2760.2</ele>
        <time>2024-08-12T08:11:22Z</time>
      </trkpt>
      <trkpt lat="44.77391" lon="6.3588">
        <ele>2760</ele>
        <time>2024-08-12T08:11:23Z</time>
      </trkpt>
      <trkpt lat="44.77389" lon="6.35878">
        <ele>2760.2</ele>
        <time>2024-08-12T08:11:24Z</time>
      </trkpt>
      <trkpt lat="44.77389" lon="6.35878">
        <ele>2760.4</ele>
        <time>2024-08-12T08:11:25Z</time>
      </trkpt>
      <trkpt lat="44.77389" lon="6.35878">
        <ele>2760.6</ele>
        <time>2024-08-12T08:11:26Z</time>
      </trkpt>
      <trkpt lat="44.77387" lon="6.35875">
        <ele>2760.6</ele>
        <time>2024-08-12T08:11:27Z</time>
      </trkpt>
      <trkpt lat="44.77387" lon="6.35875">
        <ele>2760.6</ele>
        <time>2024-08-12T08:11:28Z</time>
      </trkpt>
      <trkpt lat="44.77386" lon="6.35873">
        <ele>2760.6</ele>
        <time>2024-08-12T08:11:29Z</time>
      </trkpt>
      <trkpt lat="44.77386" lon="6.35873">
        <ele>2761</ele>
        <time>2024-08-12T08:11:30Z</time>
      </trkpt>
      <trkpt lat="44.77385" lon="6.35871">
        <ele>2761.2</ele>
        <time>2024-08-12T08:11:31Z</time>
      </trkpt>
      <trkpt lat="44.77385" lon="6.35871">
        <ele>2761.2</ele>
        <time>2024-08-12T08:11:32Z</time>
      </trkpt>
      <trkpt lat="44.77385" lon="6.35871">
        <ele>2761.8</ele>
        <time>2024-08-12T08:11:33Z</time>
      </trkpt>
      <trkpt lat="44.77384" lon="6.35868">
        <ele>2761.8</ele>
        <time>2024-08-12T08:11:34Z</time>
      </trkpt>
      <trkpt lat="44.77384" lon="6.35868">
        <ele>2762</ele>
        <time>2024-08-12T08:11:35Z</time>
      </trkpt>
      <trkpt lat="44.77383" lon="6.35865">
        <ele>2762.4</ele>
        <time>2024-08-12T08:11:36Z</time>
      </trkpt>
      <trkpt lat="44.77383" lon="6.35865">
        <ele>2762.6</ele>
        <time>2024-08-12T08:11:37Z</time>
      </trkpt>
      <trkpt lat="44.77383" lon="6.35865">
        <ele>2763.4</ele>
        <time>2024-08-12T08:11:38Z</time>
      </trkpt>
      <trkpt lat="44.77382" lon="6.35862">
        <ele>2763.4</ele>
        <time>2024-08-12T08:11:39Z</time>
      </trkpt>
      <trkpt lat="44.77382" lon="6.35862">
        <ele>2763.4</ele>
        <time>2024-08-12T08:11:40Z</time>
      </trkpt>
      <trkpt lat="44.77381" lon="6.3586">
        <ele>2763.6</ele>
        <time>2024-08-12T08:11:41Z</time>
      </trkpt>
      <trkpt lat="44.77381" lon="6.3586">
        <ele>2763.6</ele>
        <time>2024-08-12T08:11:42Z</time>
      </trkpt>
      <trkpt lat="44.77381" lon="6.3586">
        <ele>2763.8</ele>
        <time>2024-08-12T08:11:43Z</time>
      </trkpt>
      <trkpt lat="44.7738" lon="6.35856">
        <ele>2764.2</ele>
        <time>2024-08-12T08:11:44Z</time>
      </trkpt>
      <trkpt lat="44.7738" lon="6.35856">
        <ele>2764.2</ele>
        <time>2024-08-12T08:11:45Z</time>
      </trkpt>
      <trkpt lat="44.7738" lon="6.35856">
        <ele>2764</ele>
        <time>2024-08-12T08:11:46Z</time>
      </trkpt>
      <trkpt lat="44.77379" lon="6.35853">
        <ele>2764</ele>
        <time>2024-08-12T08:11:47Z</time>
      </trkpt>
      <trkpt lat="44.77379" lon="6.35853">
        <ele>2764.4</ele>
        <time>2024-08-12T08:11:48Z</time>
      </trkpt>
      <trkpt lat="44.77379" lon="6.35853">
        <ele>2764.4</ele>
        <time>2024-08-12T08:11:49Z</time>
      </trkpt>
      <trkpt lat="44.77379" lon="6.35853">
        <ele>2764.4</ele>
        <time>2024-08-12T08:11:50Z</time>
      </trkpt>
      <trkpt lat="44.77379" lon="6.35853">
        <ele>2764.8</ele>
        <time>2024-08-12T08:11:51Z</time>
      </trkpt>
      <trkpt lat="44.77377" lon="6.35851">
        <ele>2764.8</ele>
        <time>2024-08-12T08:11:52Z</time>
      </trkpt>
      <trkpt lat="44.77377" lon="6.35851">
        <ele>2764.8</ele>
        <time>2024-08-12T08:11:53Z</time>
      </trkpt>
      <trkpt lat="44.77376" lon="6.35848">
        <ele>2764.6</ele>
        <time>2024-08-12T08:11:54Z</time>
      </trkpt>
      <trkpt lat="44.77376" lon="6.35848">
        <ele>2764.6</ele>
        <time>2024-08-12T08:11:55Z</time>
      </trkpt>
      <trkpt lat="44.77375" lon="6.35846">
        <ele>2764.2</ele>
        <time>2024-08-12T08:11:56Z</time>
      </trkpt>
      <trkpt lat="44.77375" lon="6.35846">
        <ele>2764.4</ele>
        <time>2024-08-12T08:11:57Z</time>
      </trkpt>
      <trkpt lat="44.77375" lon="6.35846">
        <ele>2764.6</ele>
        <time>2024-08-12T08:11:58Z</time>
      </trkpt>
      <trkpt lat="44.77373" lon="6.35844">
        <ele>2764.6</ele>
        <time>2024-08-12T08:11:59Z</time>
      </trkpt>
      <trkpt lat="44.77373" lon="6.35844">
        <ele>2764.6</ele>
        <time>2024-08-12T08:12:00Z</time>
      </trkpt>
      <trkpt lat="44.77371" lon="6.35843">
        <ele>2764.6</ele>
        <time>2024-08-12T08:12:01Z</time>
      </trkpt>
      <trkpt lat="44.77371" lon="6.35843">
        <ele>2764</ele>
        <time>2024-08-12T08:12:02Z</time>
      </trkpt>
      <trkpt lat="44.77371" lon="6.35843">
        <ele>2764</ele>
        <time>2024-08-12T08:12:03Z</time>
      </trkpt>
      <trkpt lat="44.77369" lon="6.35842">
        <ele>2764</ele>
        <time>2024-08-12T08:12:04Z</time>
      </trkpt>
      <trkpt lat="44.77369" lon="6.35842">
        <ele>2763.8</ele>
        <time>2024-08-12T08:12:05Z</time>
      </trkpt>
      <trkpt lat="44.77369" lon="6.35842">
        <ele>2763.6</ele>
        <time>2024-08-12T08:12:06Z</time>
      </trkpt>
      <trkpt lat="44.77367" lon="6.35841">
        <ele>2763</ele>
        <time>2024-08-12T08:12:07Z</time>
      </trkpt>
      <trkpt lat="44.77367" lon="6.35841">
        <ele>2762.8</ele>
        <time>2024-08-12T08:12:08Z</time>
      </trkpt>
      <trkpt lat="44.77367" lon="6.35841">
        <ele>2762.6</ele>
        <time>2024-08-12T08:12:09Z</time>
      </trkpt>
      <trkpt lat="44.77365" lon="6.35839">
        <ele>2762.4</ele>
        <time>2024-08-12T08:12:10Z</time>
      </trkpt>
      <trkpt lat="44.77365" lon="6.35839">
        <ele>2762</ele>
        <time>2024-08-12T08:12:11Z</time>
      </trkpt>
      <trkpt lat="44.77365" lon="6.35839">
        <ele>2762</ele>
        <time>2024-08-12T08:12:12Z</time>
      </trkpt>
      <trkpt lat="44.77364" lon="6.35837">
        <ele>2761.6</ele>
        <time>2024-08-12T08:12:13Z</time>
      </trkpt>
      <trkpt lat="44.77364" lon="6.35837">
        <ele>2761.6</ele>
        <time>2024-08-12T08:12:14Z</time>
      </trkpt>
      <trkpt lat="44.77364" lon="6.35837">
        <ele>2761.6</ele>
        <time>2024-08-12T08:12:15Z</time>
      </trkpt>
      <trkpt lat="44.77362" lon="6.35835">
        <ele>2761.4</ele>
        <time>2024-08-12T08:12:16Z</time>
      </trkpt>
      <trkpt lat="44.77362" lon="6.35835">
        <ele>2761</ele>
        <time>2024-08-12T08:12:17Z</time>
      </trkpt>
      <trkpt lat="44.77362" lon="6.35835">
        <ele>2760.8</ele>
        <time>2024-08-12T08:12:18Z</time>
      </trkpt>
      <trkpt lat="44.7736" lon="6.35833">
        <ele>2760.8</ele>
        <time>2024-08-12T08:12:19Z</time>
      </trkpt>
      <trkpt lat="44.7736" lon="6.35833">
        <ele>2760.8</ele>
        <time>2024-08-12T08:12:20Z</time>
      </trkpt>
      <trkpt lat="44.77359" lon="6.3583">
        <ele>2760.4</ele>
        <time>2024-08-12T08:12:21Z</time>
      </trkpt>
      <trkpt lat="44.77359" lon="6.3583">
        <ele>2760</ele>
        <time>2024-08-12T08:12:22Z</time>
      </trkpt>
      <trkpt lat="44.77359" lon="6.3583">
        <ele>2760</ele>
        <time>2024-08-12T08:12:23Z</time>
      </trkpt>
      <trkpt lat="44.77357" lon="6.35828">
        <ele>2760.2</ele>
        <time>2024-08-12T08:12:24Z</time>
      </trkpt>
      <trkpt lat="44.77357" lon="6.35828">
        <ele>2760.2</ele>
        <time>2024-08-12T08:12:25Z</time>
      </trkpt>
      <trkpt lat="44.77355" lon="6.35827">
        <ele>2760</ele>
        <time>2024-08-12T08:12:26Z</time>
      </trkpt>
      <trkpt lat="44.77355" lon="6.35827">
        <ele>2759.8</ele>
        <time>2024-08-12T08:12:27Z</time>
      </trkpt>
      <trkpt lat="44.77355" lon="6.35827">
        <ele>2759.4</ele>
        <time>2024-08-12T08:12:28Z</time>
      </trkpt>
      <trkpt lat="44.77353" lon="6.35825">
        <ele>2759.2</ele>
        <time>2024-08-12T08:12:29Z</time>
      </trkpt>
      <trkpt lat="44.77353" lon="6.35825">
        <ele>2759.2</ele>
        <time>2024-08-12T08:12:30Z</time>
      </trkpt>
      <trkpt lat="44.77352" lon="6.35823">
        <ele>2759.2</ele>
        <time>2024-08-12T08:12:31Z</time>
      </trkpt>
      <trkpt lat="44.77352" lon="6.35823">
        <ele>2759.2</ele>
        <time>2024-08-12T08:12:32Z</time>
      </trkpt>
      <trkpt lat="44.77352" lon="6.35823">
        <ele>2759</ele>
        <time>2024-08-12T08:12:33Z</time>
      </trkpt>
      <trkpt lat="44.77352" lon="6.35823">
        <ele>2758.8</ele>
        <time>2024-08-12T08:12:34Z</time>
      </trkpt>
      <trkpt lat="44.7735" lon="6.35822">
        <ele>2758.8</ele>
        <time>2024-08-12T08:12:35Z</time>
      </trkpt>
      <trkpt lat="44.7735" lon="6.35822">
        <ele>2758.8</ele>
        <time>2024-08-12T08:12:36Z</time>
      </trkpt>
      <trkpt lat="44.7735" lon="6.35822">
        <ele>2758.4</ele>
        <time>2024-08-12T08:12:37Z</time>
      </trkpt>
      <trkpt lat="44.77348" lon="6.3582">
        <ele>2758</ele>
        <time>2024-08-12T08:12:38Z</time>
      </trkpt>
      <trkpt lat="44.77348" lon="6.3582">
        <ele>2757.8</ele>
        <time>2024-08-12T08:12:39Z</time>
      </trkpt>
      <trkpt lat="44.77348" lon="6.3582">
        <ele>2757.6</ele>
        <time>2024-08-12T08:12:40Z</time>
      </trkpt>
      <trkpt lat="44.77346" lon="6.35818">
        <ele>2757</ele>
        <time>2024-08-12T08:12:41Z</time>
      </trkpt>
      <trkpt lat="44.77346" lon="6.35818">
        <ele>2756.8</ele>
        <time>2024-08-12T08:12:42Z</time>
      </trkpt>
      <trkpt lat="44.77346" lon="6.35818">
        <ele>2756.8</ele>
        <time>2024-08-12T08:12:43Z</time>
      </trkpt>
      <trkpt lat="44.77344" lon="6.35815">
        <ele>2756.6</ele>
        <time>2024-08-12T08:12:44Z</time>
      </trkpt>
      <trkpt lat="44.77344" lon="6.35815">
        <ele>2756</ele>
        <time>2024-08-12T08:12:45Z</time>
      </trkpt>
      <trkpt lat="44.77342" lon="6.35812">
        <ele>2755.8</ele>
        <time>2024-08-12T08:12:46Z</time>
      </trkpt>
      <trkpt lat="44.77342" lon="6.35812">
        <ele>2755.8</ele>
        <time>2024-08-12T08:12:47Z</time>
      </trkpt>
      <trkpt lat="44.77342" lon="6.35812">
        <ele>2755.6</ele>
        <time>2024-08-12T08:12:48Z</time>
      </trkpt>
      <trkpt lat="44.77341" lon="6.35809">
        <ele>2755.4</ele>
        <time>2024-08-12T08:12:49Z</time>
      </trkpt>
      <trkpt lat="44.77341" lon="6.35809">
        <ele>2755.4</ele>
        <time>2024-08-12T08:12:50Z</time>
      </trkpt>
      <trkpt lat="44.77341" lon="6.35809">
        <ele>2755.4</ele>
        <time>2024-08-12T08:12:51Z</time>
      </trkpt>
      <trkpt lat="44.7734" lon="6.35807">
        <ele>2755.4</ele>
        <time>2024-08-12T08:12:52Z</time>
      </trkpt>
      <trkpt lat="44.7734" lon="6.35807">
        <ele>2755.2</ele>
        <time>2024-08-12T08:12:53Z</time>
      </trkpt>
      <trkpt lat="44.7734" lon="6.35807">
        <ele>2754.8</ele>
        <time>2024-08-12T08:12:54Z</time>
      </trkpt>
      <trkpt lat="44.77339" lon="6.35804">
        <ele>2754.6</ele>
        <time>2024-08-12T08:12:55Z</time>
      </trkpt>
      <trkpt lat="44.77339" lon="6.35804">
        <ele>2754.6</ele>
        <time>2024-08-12T08:12:56Z</time>
      </trkpt>
      <trkpt lat="44.77338" lon="6.35802">
        <ele>2754.6</ele>
        <time>2024-08-12T08:12:57Z</time>
      </trkpt>
      <trkpt lat="44.77338" lon="6.35802">
        <ele>2754.4</ele>
        <time>2024-08-12T08:12:58Z</time>
      </trkpt>
      <trkpt lat="44.77338" lon="6.35799">
        <ele>2754.2</ele>
        <time>2024-08-12T08:12:59Z</time>
      </trkpt>
      <trkpt lat="44.77338" lon="6.35799">
        <ele>2754.2</ele>
        <time>2024-08-12T08:13:00Z</time>
      </trkpt>
      <trkpt lat="44.77338" lon="6.35799">
        <ele>2754.2</ele>
        <time>2024-08-12T08:13:01Z</time>
      </trkpt>
      <trkpt lat="44.77338" lon="6.35799">
        <ele>2754.6</ele>
        <time>2024-08-12T08:13:02Z</time>
      </trkpt>
      <trkpt lat="44.77337" lon="6.35797">
        <ele>2754.6</ele>
        <time>2024-08-12T08:13:03Z</time>
      </trkpt>
      <trkpt lat="44.77337" lon="6.35797">
        <ele>2754.6</ele>
        <time>2024-08-12T08:13:04Z</time>
      </trkpt>
      <trkpt lat="44.77337" lon="6.35797">
        <ele>2755</ele>
        <time>2024-08-12T08:13:05Z</time>
      </trkpt>
      <trkpt lat="44.77335" lon="6.35795">
        <ele>2755</ele>
        <time>2024-08-12T08:13:06Z</time>
      </trkpt>
      <trkpt lat="44.77335" lon="6.35795">
        <ele>2754.8</ele>
        <time>2024-08-12T08:13:07Z</time>
      </trkpt>
      <trkpt lat="44.77334" lon="6.35793">
        <ele>2754.6</ele>
        <time>2024-08-12T08:13:08Z</time>
      </trkpt>
      <trkpt lat="44.77334" lon="6.35793">
        <ele>2754.6</ele>
        <time>2024-08-12T08:13:09Z</time>
      </trkpt>
      <trkpt lat="44.77334" lon="6.35793">
        <ele>2754.4</ele>
        <time>2024-08-12T08:13:10Z</time>
      </trkpt>
      <trkpt lat="44.77334" lon="6.35793">
        <ele>2754.2</ele>
        <time>2024-08-12T08:13:11Z</time>
      </trkpt>
      <trkpt lat="44.77333" lon="6.3579">
        <ele>2754.2</ele>
        <time>2024-08-12T08:13:12Z</time>
      </trkpt>
      <trkpt lat="44.77333" lon="6.3579">
        <ele>2754.4</ele>
        <time>2024-08-12T08:13:13Z</time>
      </trkpt>
      <trkpt lat="44.77333" lon="6.3579">
        <ele>2754.8</ele>
        <time>2024-08-12T08:13:14Z</time>
      </trkpt>
      <trkpt lat="44.77333" lon="6.3579">
        <ele>2754.8</ele>
        <time>2024-08-12T08:13:15Z</time>
      </trkpt>
      <trkpt lat="44.77333" lon="6.3579">
        <ele>2754.6</ele>
        <time>2024-08-12T08:13:16Z</time>
      </trkpt>
      <trkpt lat="44.77333" lon="6.3579">
        <ele>2754.2</ele>
        <time>2024-08-12T08:13:17Z</time>
      </trkpt>
      <trkpt lat="44.77333" lon="6.3579">
        <ele>2754.2</ele>
        <time>2024-08-12T08:13:18Z</time>
      </trkpt>
      <trkpt lat="44.77333" lon="6.3579">
        <ele>2754</ele>
        <time>2024-08-12T08:13:19Z</time>
      </trkpt>
      <trkpt lat="44.77333" lon="6.3579">
        <ele>2754</ele>
        <time>2024-08-12T08:13:20Z</time>
      </trkpt>
      <trkpt lat="44.77333" lon="6.3579">
        <ele>2754</ele>
        <time>2024-08-12T08:13:21Z</time>
      </trkpt>
      <trkpt lat="44.77333" lon="6.3579">
        <ele>2753.8</ele>
        <time>2024-08-12T08:13:22Z</time>
      </trkpt>
      <trkpt lat="44.77331" lon="6.35791">
        <ele>2753.4</ele>
        <time>2024-08-12T08:13:23Z</time>
      </trkpt>
      <trkpt lat="44.77331" lon="6.35791">
        <ele>2753</ele>
        <time>2024-08-12T08:13:24Z</time>
      </trkpt>
      <trkpt lat="44.77329" lon="6.35793">
        <ele>2752.8</ele>
        <time>2024-08-12T08:13:25Z</time>
      </trkpt>
      <trkpt lat="44.77329" lon="6.35793">
        <ele>2752.2</ele>
        <time>2024-08-12T08:13:26Z</time>
      </trkpt>
      <trkpt lat="44.77327" lon="6.35794">
        <ele>2751.8</ele>
        <time>2024-08-12T08:13:27Z</time>
      </trkpt>
      <trkpt lat="44.77327" lon="6.35794">
        <ele>2751.4</ele>
        <time>2024-08-12T08:13:28Z</time>
      </trkpt>
      <trkpt lat="44.77325" lon="6.35795">
        <ele>2751</ele>
        <time>2024-08-12T08:13:29Z</time>
      </trkpt>
      <trkpt lat="44.77325" lon="6.35795">
        <ele>2750.8</ele>
        <time>2024-08-12T08:13:30Z</time>
      </trkpt>
      <trkpt lat="44.77325" lon="6.35795">
        <ele>2750.6</ele>
        <time>2024-08-12T08:13:31Z</time>
      </trkpt>
      <trkpt lat="44.77322" lon="6.35795">
        <ele>2750</ele>
        <time>2024-08-12T08:13:32Z</time>
      </trkpt>
      <trkpt lat="44.77322" lon="6.35795">
        <ele>2749.8</ele>
        <time>2024-08-12T08:13:33Z</time>
      </trkpt>
      <trkpt lat="44.77322" lon="6.35795">
        <ele>2749.6</ele>
        <time>2024-08-12T08:13:34Z</time>
      </trkpt>
      <trkpt lat="44.7732" lon="6.35795">
        <ele>2749.4</ele>
        <time>2024-08-12T08:13:35Z</time>
      </trkpt>
      <trkpt lat="44.7732" lon="6.35795">
        <ele>2749</ele>
        <time>2024-08-12T08:13:36Z</time>
      </trkpt>
      <trkpt lat="44.7732" lon="6.35795">
        <ele>2749</ele>
        <time>2024-08-12T08:13:37Z</time>
      </trkpt>
      <trkpt lat="44.77318" lon="6.35795">
        <ele>2749</ele>
        <time>2024-08-12T08:13:38Z</time>
      </trkpt>
      <trkpt lat="44.77318" lon="6.35795">
        <ele>2748.2</ele>
        <time>2024-08-12T08:13:39Z</time>
      </trkpt>
      <trkpt lat="44.77318" lon="6.35795">
        <ele>2748</ele>
        <time>2024-08-12T08:13:40Z</time>
      </trkpt>
      <trkpt lat="44.77316" lon="6.35793">
        <ele>2747.8</ele>
        <time>2024-08-12T08:13:41Z</time>
      </trkpt>
      <trkpt lat="44.77316" lon="6.35793">
        <ele>2747.8</ele>
        <time>2024-08-12T08:13:42Z</time>
      </trkpt>
      <trkpt lat="44.77314" lon="6.35793">
        <ele>2747.4</ele>
        <time>2024-08-12T08:13:43Z</time>
      </trkpt>
      <trkpt lat="44.77314" lon="6.35793">
        <ele>2747.4</ele>
        <time>2024-08-12T08:13:44Z</time>
      </trkpt>
      <trkpt lat="44.77314" lon="6.35793">
        <ele>2747.2</ele>
        <time>2024-08-12T08:13:45Z</time>
      </trkpt>
      <trkpt lat="44.77312" lon="6.35791">
        <ele>2746.8</ele>
        <time>2024-08-12T08:13:46Z</time>
      </trkpt>
      <trkpt lat="44.77312" lon="6.35791">
        <ele>2746.4</ele>
        <time>2024-08-12T08:13:47Z</time>
      </trkpt>
      <trkpt lat="44.7731" lon="6.35789">
        <ele>2746.2</ele>
        <time>2024-08-12T08:13:48Z</time>
      </trkpt>
      <trkpt lat="44.7731" lon="6.35789">
        <ele>2745.8</ele>
        <time>2024-08-12T08:13:49Z</time>
      </trkpt>
      <trkpt lat="44.7731" lon="6.35789">
        <ele>2745.4</ele>
        <time>2024-08-12T08:13:50Z</time>
      </trkpt>
      <trkpt lat="44.77308" lon="6.35788">
        <ele>2745.2</ele>
        <time>2024-08-12T08:13:51Z</time>
      </trkpt>
      <trkpt lat="44.77308" lon="6.35788">
        <ele>2745.2</ele>
        <time>2024-08-12T08:13:52Z</time>
      </trkpt>
      <trkpt lat="44.77306" lon="6.35786">
        <ele>2745</ele>
        <time>2024-08-12T08:13:53Z</time>
      </trkpt>
      <trkpt lat="44.77306" lon="6.35786">
        <ele>2744.8</ele>
        <time>2024-08-12T08:13:54Z</time>
      </trkpt>
      <trkpt lat="44.77304" lon="6.35784">
        <ele>2744.2</ele>
        <time>2024-08-12T08:13:55Z</time>
      </trkpt>
      <trkpt lat="44.77304" lon="6.35784">
        <ele>2744.4</ele>
        <time>2024-08-12T08:13:56Z</time>
      </trkpt>
      <trkpt lat="44.77304" lon="6.35784">
        <ele>2744.6</ele>
        <time>2024-08-12T08:13:57Z</time>
      </trkpt>
      <trkpt lat="44.77303" lon="6.35781">
        <ele>2744.6</ele>
        <time>2024-08-12T08:13:58Z</time>
      </trkpt>
      <trkpt lat="44.77303" lon="6.35781">
        <ele>2744.6</ele>
        <time>2024-08-12T08:13:59Z</time>
      </trkpt>
      <trkpt lat="44.77303" lon="6.35781">
        <ele>2744.2</ele>
        <time>2024-08-12T08:14:00Z</time>
      </trkpt>
      <trkpt lat="44.77301" lon="6.35781">
        <ele>2743.4</ele>
        <time>2024-08-12T08:14:01Z</time>
      </trkpt>
      <trkpt lat="44.77301" lon="6.35781">
        <ele>2743</ele>
        <time>2024-08-12T08:14:02Z</time>
      </trkpt>
      <trkpt lat="44.77299" lon="6.3578">
        <ele>2743</ele>
        <time>2024-08-12T08:14:03Z</time>
      </trkpt>
      <trkpt lat="44.77299" lon="6.3578">
        <ele>2742.6</ele>
        <time>2024-08-12T08:14:04Z</time>
      </trkpt>
      <trkpt lat="44.77297" lon="6.35778">
        <ele>2742.2</ele>
        <time>2024-08-12T08:14:05Z</time>
      </trkpt>
      <trkpt lat="44.77297" lon="6.35778">
        <ele>2742</ele>
        <time>2024-08-12T08:14:06Z</time>
      </trkpt>
      <trkpt lat="44.77296" lon="6.35776">
        <ele>2742</ele>
        <time>2024-08-12T08:14:07Z</time>
      </trkpt>
      <trkpt lat="44.77296" lon="6.35776">
        <ele>2741.8</ele>
        <time>2024-08-12T08:14:08Z</time>
      </trkpt>
      <trkpt lat="44.77294" lon="6.35774">
        <ele>2741.8</ele>
        <time>2024-08-12T08:14:09Z</time>
      </trkpt>
      <trkpt lat="44.77294" lon="6.35774">
        <ele>2741.4</ele>
        <time>2024-08-12T08:14:10Z</time>
      </trkpt>
      <trkpt lat="44.77292" lon="6.35771">
        <ele>2741.4</ele>
        <time>2024-08-12T08:14:11Z</time>
      </trkpt>
      <trkpt lat="44.77292" lon="6.35771">
        <ele>2741.4</ele>
        <time>2024-08-12T08:14:12Z</time>
      </trkpt>
      <trkpt lat="44.77292" lon="6.35768">
        <ele>2741.2</ele>
        <time>2024-08-12T08:14:13Z</time>
      </trkpt>
      <trkpt lat="44.77292" lon="6.35768">
        <ele>2741.2</ele>
        <time>2024-08-12T08:14:14Z</time>
      </trkpt>
      <trkpt lat="44.7729" lon="6.35765">
        <ele>2741</ele>
        <time>2024-08-12T08:14:15Z</time>
      </trkpt>
      <trkpt lat="44.7729" lon="6.35765">
        <ele>2741</ele>
        <time>2024-08-12T08:14:16Z</time>
      </trkpt>
      <trkpt lat="44.7729" lon="6.35763">
        <ele>2741</ele>
        <time>2024-08-12T08:14:17Z</time>
      </trkpt>
      <trkpt lat="44.7729" lon="6.35763">
        <ele>2741.2</ele>
        <time>2024-08-12T08:14:18Z</time>
      </trkpt>
      <trkpt lat="44.77289" lon="6.3576">
        <ele>2741.2</ele>
        <time>2024-08-12T08:14:19Z</time>
      </trkpt>
      <trkpt lat="44.77289" lon="6.3576">
        <ele>2741.2</ele>
        <time>2024-08-12T08:14:20Z</time>
      </trkpt>
      <trkpt lat="44.77288" lon="6.35758">
        <ele>2741</ele>
        <time>2024-08-12T08:14:21Z</time>
      </trkpt>
      <trkpt lat="44.77288" lon="6.35758">
        <ele>2741</ele>
        <time>2024-08-12T08:14:22Z</time>
      </trkpt>
      <trkpt lat="44.77287" lon="6.35755">
        <ele>2741</ele>
        <time>2024-08-12T08:14:23Z</time>
      </trkpt>
      <trkpt lat="44.77287" lon="6.35755">
        <ele>2741</ele>
        <time>2024-08-12T08:14:24Z</time>
      </trkpt>
      <trkpt lat="44.77286" lon="6.35753">
        <ele>2741</ele>
        <time>2024-08-12T08:14:25Z</time>
      </trkpt>
      <trkpt lat="44.77286" lon="6.35753">
        <ele>2741</ele>
        <time>2024-08-12T08:14:26Z</time>
      </trkpt>
      <trkpt lat="44.77286" lon="6.35749">
        <ele>2741</ele>
        <time>2024-08-12T08:14:27Z</time>
      </trkpt>
      <trkpt lat="44.77286" lon="6.35749">
        <ele>2740.8</ele>
        <time>2024-08-12T08:14:28Z</time>
      </trkpt>
      <trkpt lat="44.77286" lon="6.35746">
        <ele>2740.8</ele>
        <time>2024-08-12T08:14:29Z</time>
      </trkpt>
      <trkpt lat="44.77286" lon="6.35746">
        <ele>2740.8</ele>
        <time>2024-08-12T08:14:30Z</time>
      </trkpt>
      <trkpt lat="44.77286" lon="6.35744">
        <ele>2740.8</ele>
        <time>2024-08-12T08:14:31Z</time>
      </trkpt>
      <trkpt lat="44.77286" lon="6.35744">
        <ele>2740.8</ele>
        <time>2024-08-12T08:14:32Z</time>
      </trkpt>
      <trkpt lat="44.77286" lon="6.35744">
        <ele>2741.2</ele>
        <time>2024-08-12T08:14:33Z</time>
      </trkpt>
      <trkpt lat="44.77286" lon="6.35741">
        <ele>2741.2</ele>
        <time>2024-08-12T08:14:34Z</time>
      </trkpt>
      <trkpt lat="44.77286" lon="6.35741">
        <ele>2741.2</ele>
        <time>2024-08-12T08:14:35Z</time>
      </trkpt>
      <trkpt lat="44.77286" lon="6.35741">
        <ele>2741.4</ele>
        <time>2024-08-12T08:14:36Z</time>
      </trkpt>
      <trkpt lat="44.77286" lon="6.35738">
        <ele>2741.4</ele>
        <time>2024-08-12T08:14:37Z</time>
      </trkpt>
      <trkpt lat="44.77286" lon="6.35738">
        <ele>2741.4</ele>
        <time>2024-08-12T08:14:38Z</time>
      </trkpt>
      <trkpt lat="44.77285" lon="6.35736">
        <ele>2741.4</ele>
        <time>2024-08-12T08:14:39Z</time>
      </trkpt>
      <trkpt lat="44.77285" lon="6.35736">
        <ele>2741.4</ele>
        <time>2024-08-12T08:14:40Z</time>
      </trkpt>
      <trkpt lat="44.77285" lon="6.35736">
        <ele>2741</ele>
        <time>2024-08-12T08:14:41Z</time>
      </trkpt>
      <trkpt lat="44.77285" lon="6.35736">
        <ele>2741</ele>
        <time>2024-08-12T08:14:42Z</time>
      </trkpt>
      <trkpt lat="44.77283" lon="6.35734">
        <ele>2740.8</ele>
        <time>2024-08-12T08:14:43Z</time>
      </trkpt>
      <trkpt lat="44.77283" lon="6.35734">
        <ele>2740.8</ele>
        <time>2024-08-12T08:14:44Z</time>
      </trkpt>
      <trkpt lat="44.77283" lon="6.35734">
        <ele>2740.8</ele>
        <time>2024-08-12T08:14:45Z</time>
      </trkpt>
      <trkpt lat="44.77283" lon="6.35734">
        <ele>2740.8</ele>
        <time>2024-08-12T08:14:46Z</time>
      </trkpt>
      <trkpt lat="44.77283" lon="6.35734">
        <ele>2741</ele>
        <time>2024-08-12T08:14:47Z</time>
      </trkpt>
      <trkpt lat="44.7728" lon="6.35732">
        <ele>2741</ele>
        <time>2024-08-12T08:14:48Z</time>
      </trkpt>
      <trkpt lat="44.7728" lon="6.35732">
        <ele>2741.2</ele>
        <time>2024-08-12T08:14:49Z</time>
      </trkpt>
      <trkpt lat="44.7728" lon="6.35732">
        <ele>2741.2</ele>
        <time>2024-08-12T08:14:50Z</time>
      </trkpt>
      <trkpt lat="44.77277" lon="6.35732">
        <ele>2741</ele>
        <time>2024-08-12T08:14:51Z</time>
      </trkpt>
      <trkpt lat="44.77277" lon="6.35732">
        <ele>2740.6</ele>
        <time>2024-08-12T08:14:52Z</time>
      </trkpt>
      <trkpt lat="44.77277" lon="6.35732">
        <ele>2740</ele>
        <time>2024-08-12T08:14:53Z</time>
      </trkpt>
      <trkpt lat="44.77275" lon="6.35731">
        <ele>2740</ele>
        <time>2024-08-12T08:14:54Z</time>
      </trkpt>
      <trkpt lat="44.77275" lon="6.35731">
        <ele>2740</ele>
        <time>2024-08-12T08:14:55Z</time>
      </trkpt>
      <trkpt lat="44.77275" lon="6.35731">
        <ele>2740</ele>
        <time>2024-08-12T08:14:56Z</time>
      </trkpt>
      <trkpt lat="44.77273" lon="6.3573">
        <ele>2739.6</ele>
        <time>2024-08-12T08:14:57Z</time>
      </trkpt>
      <trkpt lat="44.77273" lon="6.3573">
        <ele>2739</ele>
        <time>2024-08-12T08:14:58Z</time>
      </trkpt>
      <trkpt lat="44.7727" lon="6.35729">
        <ele>2739</ele>
        <time>2024-08-12T08:14:59Z</time>
      </trkpt>
      <trkpt lat="44.7727" lon="6.35729">
        <ele>2739.2</ele>
        <time>2024-08-12T08:15:00Z</time>
      </trkpt>
      <trkpt lat="44.7727" lon="6.35729">
        <ele>2738.8</ele>
        <time>2024-08-12T08:15:01Z</time>
      </trkpt>
      <trkpt lat="44.77269" lon="6.35729">
        <ele>2738.6</ele>
        <time>2024-08-12T08:15:02Z</time>
      </trkpt>
      <trkpt lat="44.77269" lon="6.35729">
        <ele>2738.6</ele>
        <time>2024-08-12T08:15:03Z</time>
      </trkpt>
      <trkpt lat="44.77269" lon="6.35729">
        <ele>2738.4</ele>
        <time>2024-08-12T08:15:04Z</time>
      </trkpt>
      <trkpt lat="44.77266" lon="6.35729">
        <ele>2738.2</ele>
        <time>2024-08-12T08:15:05Z</time>
      </trkpt>
      <trkpt lat="44.77266" lon="6.35729">
        <ele>2737.8</ele>
        <time>2024-08-12T08:15:06Z</time>
      </trkpt>
      <trkpt lat="44.77264" lon="6.35728">
        <ele>2737.6</ele>
        <time>2024-08-12T08:15:07Z</time>
      </trkpt>
      <trkpt lat="44.77264" lon="6.35728">
        <ele>2737.2</ele>
        <time>2024-08-12T08:15:08Z</time>
      </trkpt>
      <trkpt lat="44.77263" lon="6.35726">
        <ele>2737.2</ele>
        <time>2024-08-12T08:15:09Z</time>
      </trkpt>
      <trkpt lat="44.77263" lon="6.35726">
        <ele>2737.2</ele>
        <time>2024-08-12T08:15:10Z</time>
      </trkpt>
      <trkpt lat="44.77261" lon="6.35723">
        <ele>2737.2</ele>
        <time>2024-08-12T08:15:11Z</time>
      </trkpt>
      <trkpt lat="44.77261" lon="6.35723">
        <ele>2737</ele>
        <time>2024-08-12T08:15:12Z</time>
      </trkpt>
      <trkpt lat="44.7726" lon="6.35721">
        <ele>2736.8</ele>
        <time>2024-08-12T08:15:13Z</time>
      </trkpt>
      <trkpt lat="44.7726" lon="6.35721">
        <ele>2736.8</ele>
        <time>2024-08-12T08:15:14Z</time>
      </trkpt>
      <trkpt lat="44.77258" lon="6.35719">
        <ele>2736.8</ele>
        <time>2024-08-12T08:15:15Z</time>
      </trkpt>
      <trkpt lat="44.77258" lon="6.35719">
        <ele>2736.6</ele>
        <time>2024-08-12T08:15:16Z</time>
      </trkpt>
      <trkpt lat="44.77256" lon="6.35717">
        <ele>2736.6</ele>
        <time>2024-08-12T08:15:17Z</time>
      </trkpt>
      <trkpt lat="44.77256" lon="6.35717">
        <ele>2736.6</ele>
        <time>2024-08-12T08:15:18Z</time>
      </trkpt>
      <trkpt lat="44.77256" lon="6.35714">
        <ele>2736.8</ele>
        <time>2024-08-12T08:15:19Z</time>
      </trkpt>
      <trkpt lat="44.77256" lon="6.35714">
        <ele>2736.6</ele>
        <time>2024-08-12T08:15:20Z</time>
      </trkpt>
      <trkpt lat="44.77256" lon="6.35714">
        <ele>2736.6</ele>
        <time>2024-08-12T08:15:21Z</time>
      </trkpt>
      <trkpt lat="44.77256" lon="6.35712">
        <ele>2736.6</ele>
        <time>2024-08-12T08:15:22Z</time>
      </trkpt>
      <trkpt lat="44.77256" lon="6.35712">
        <ele>2737.2</ele>
        <time>2024-08-12T08:15:23Z</time>
      </trkpt>
      <trkpt lat="44.77256" lon="6.35712">
        <ele>2737.2</ele>
        <time>2024-08-12T08:15:24Z</time>
      </trkpt>
      <trkpt lat="44.77256" lon="6.35709">
        <ele>2737.4</ele>
        <time>2024-08-12T08:15:25Z</time>
      </trkpt>
      <trkpt lat="44.77256" lon="6.35709">
        <ele>2737.8</ele>
        <time>2024-08-12T08:15:26Z</time>
      </trkpt>
      <trkpt lat="44.77256" lon="6.35709">
        <ele>2737.8</ele>
        <time>2024-08-12T08:15:27Z</time>
      </trkpt>
      <trkpt lat="44.77256" lon="6.35709">
        <ele>2738.2</ele>
        <time>2024-08-12T08:15:28Z</time>
      </trkpt>
      <trkpt lat="44.77256" lon="6.35706">
        <ele>2738.2</ele>
        <time>2024-08-12T08:15:29Z</time>
      </trkpt>
      <trkpt lat="44.77256" lon="6.35706">
        <ele>2738.2</ele>
        <time>2024-08-12T08:15:30Z</time>
      </trkpt>
      <trkpt lat="44.77256" lon="6.35706">
        <ele>2738.2</ele>
        <time>2024-08-12T08:15:31Z</time>
      </trkpt>
      <trkpt lat="44.77254" lon="6.35704">
        <ele>2738.2</ele>
        <time>2024-08-12T08:15:32Z</time>
      </trkpt>
      <trkpt lat="44.77254" lon="6.35704">
        <ele>2738.4</ele>
        <time>2024-08-12T08:15:33Z</time>
      </trkpt>
      <trkpt lat="44.77254" lon="6.35704">
        <ele>2738.8</ele>
        <time>2024-08-12T08:15:34Z</time>
      </trkpt>
      <trkpt lat="44.77252" lon="6.35705">
        <ele>2738.8</ele>
        <time>2024-08-12T08:15:35Z</time>
      </trkpt>
      <trkpt lat="44.77252" lon="6.35705">
        <ele>2738.8</ele>
        <time>2024-08-12T08:15:36Z</time>
      </trkpt>
      <trkpt lat="44.77252" lon="6.35705">
        <ele>2738.6</ele>
        <time>2024-08-12T08:15:37Z</time>
      </trkpt>
      <trkpt lat="44.7725" lon="6.35706">
        <ele>2738.2</ele>
        <time>2024-08-12T08:15:38Z</time>
      </trkpt>
      <trkpt lat="44.7725" lon="6.35706">
        <ele>2737.6</ele>
        <time>2024-08-12T08:15:39Z</time>
      </trkpt>
      <trkpt lat="44.77248" lon="6.35707">
        <ele>2737.6</ele>
        <time>2024-08-12T08:15:40Z</time>
      </trkpt>
      <trkpt lat="44.77248" lon="6.35707">
        <ele>2737.4</ele>
        <time>2024-08-12T08:15:41Z</time>
      </trkpt>
      <trkpt lat="44.77246" lon="6.35708">
        <ele>2737.2</ele>
        <time>2024-08-12T08:15:42Z</time>
      </trkpt>
      <trkpt lat="44.77246" lon="6.35708">
        <ele>2737.2</ele>
        <time>2024-08-12T08:15:43Z</time>
      </trkpt>
      <trkpt lat="44.77244" lon="6.35709">
        <ele>2736.8</ele>
        <time>2024-08-12T08:15:44Z</time>
      </trkpt>
      <trkpt lat="44.77244" lon="6.35709">
        <ele>2736.6</ele>
        <time>2024-08-12T08:15:45Z</time>
      </trkpt>
      <trkpt lat="44.77244" lon="6.35709">
        <ele>2736.6</ele>
        <time>2024-08-12T08:15:46Z</time>
      </trkpt>
      <trkpt lat="44.77241" lon="6.3571">
        <ele>2736.6</ele>
        <time>2024-08-12T08:15:47Z</time>
      </trkpt>
      <trkpt lat="44.77241" lon="6.3571">
        <ele>2736.4</ele>
        <time>2024-08-12T08:15:48Z</time>
      </trkpt>
      <trkpt lat="44.77239" lon="6.35711">
        <ele>2736.2</ele>
        <time>2024-08-12T08:15:49Z</time>
      </trkpt>
      <trkpt lat="44.77239" lon="6.35711">
        <ele>2736.2</ele>
        <time>2024-08-12T08:15:50Z</time>
      </trkpt>
      <trkpt lat="44.77237" lon="6.35711">
        <ele>2736</ele>
        <time>2024-08-12T08:15:51Z</time>
      </trkpt>
      <trkpt lat="44.77237" lon="6.35711">
        <ele>2735.8</ele>
        <time>2024-08-12T08:15:52Z</time>
      </trkpt>
      <trkpt lat="44.77237" lon="6.35711">
        <ele>2735.8</ele>
        <time>2024-08-12T08:15:53Z</time>
      </trkpt>
      <trkpt lat="44.77235" lon="6.35711">
        <ele>2735.8</ele>
        <time>2024-08-12T08:15:54Z</time>
      </trkpt>
      <trkpt lat="44.77235" lon="6.35711">
        <ele>2735.6</ele>
        <time>2024-08-12T08:15:55Z</time>
      </trkpt>
      <trkpt lat="44.77233" lon="6.35711">
        <ele>2735.6</ele>
        <time>2024-08-12T08:15:56Z</time>
      </trkpt>
      <trkpt lat="44.77233" lon="6.35711">
        <ele>2735.4</ele>
        <time>2024-08-12T08:15:57Z</time>
      </trkpt>
      <trkpt lat="44.77231" lon="6.35711">
        <ele>2735.2</ele>
        <time>2024-08-12T08:15:58Z</time>
      </trkpt>
      <trkpt lat="44.77231" lon="6.35711">
        <ele>2735.2</ele>
        <time>2024-08-12T08:15:59Z</time>
      </trkpt>
      <trkpt lat="44.77231" lon="6.35711">
        <ele>2735.2</ele>
        <time>2024-08-12T08:16:00Z</time>
      </trkpt>
      <trkpt lat="44.77228" lon="6.35709">
        <ele>2735.2</ele>
        <time>2024-08-12T08:16:01Z</time>
      </trkpt>
      <trkpt lat="44.77228" lon="6.35709">
        <ele>2735.2</ele>
        <time>2024-08-12T08:16:02Z</time>
      </trkpt>
      <trkpt lat="44.77228" lon="6.35709">
        <ele>2735.2</ele>
        <time>2024-08-12T08:16:03Z</time>
      </trkpt>
      <trkpt lat="44.77226" lon="6.35708">
        <ele>2735</ele>
        <time>2024-08-12T08:16:04Z</time>
      </trkpt>
      <trkpt lat="44.77226" lon="6.35708">
        <ele>2735</ele>
        <time>2024-08-12T08:16:05Z</time>
      </trkpt>
      <trkpt lat="44.77226" lon="6.35708">
        <ele>2734.8</ele>
        <time>2024-08-12T08:16:06Z</time>
      </trkpt>
      <trkpt lat="44.77223" lon="6.35706">
        <ele>2734.4</ele>
        <time>2024-08-12T08:16:07Z</time>
      </trkpt>
      <trkpt lat="44.77223" lon="6.35706">
        <ele>2734.4</ele>
        <time>2024-08-12T08:16:08Z</time>
      </trkpt>
      <trkpt lat="44.77223" lon="6.35706">
        <ele>2734.4</ele>
        <time>2024-08-12T08:16:09Z</time>
      </trkpt>
      <trkpt lat="44.7722" lon="6.35705">
        <ele>2734.2</ele>
        <time>2024-08-12T08:16:10Z</time>
      </trkpt>
      <trkpt lat="44.7722" lon="6.35705">
        <ele>2733.8</ele>
        <time>2024-08-12T08:16:11Z</time>
      </trkpt>
      <trkpt lat="44.77219" lon="6.35703">
        <ele>2733.8</ele>
        <time>2024-08-12T08:16:12Z</time>
      </trkpt>
      <trkpt lat="44.77219" lon="6.35703">
        <ele>2733.6</ele>
        <time>2024-08-12T08:16:13Z</time>
      </trkpt>
      <trkpt lat="44.77218" lon="6.357">
        <ele>2733.6</ele>
        <time>2024-08-12T08:16:14Z</time>
      </trkpt>
      <trkpt lat="44.77218" lon="6.357">
        <ele>2733.6</ele>
        <time>2024-08-12T08:16:15Z</time>
      </trkpt>
      <trkpt lat="44.77216" lon="6.35698">
        <ele>2733.6</ele>
        <time>2024-08-12T08:16:16Z</time>
      </trkpt>
      <trkpt lat="44.77216" lon="6.35698">
        <ele>2733.6</ele>
        <time>2024-08-12T08:16:17Z</time>
      </trkpt>
      <trkpt lat="44.77215" lon="6.35696">
        <ele>2734</ele>
        <time>2024-08-12T08:16:18Z</time>
      </trkpt>
      <trkpt lat="44.77215" lon="6.35696">
        <ele>2734</ele>
        <time>2024-08-12T08:16:19Z</time>
      </trkpt>
      <trkpt lat="44.77213" lon="6.35695">
        <ele>2734</ele>
        <time>2024-08-12T08:16:20Z</time>
      </trkpt>
      <trkpt lat="44.77213" lon="6.35695">
        <ele>2733.8</ele>
        <time>2024-08-12T08:16:21Z</time>
      </trkpt>
      <trkpt lat="44.77213" lon="6.35695">
        <ele>2733.6</ele>
        <time>2024-08-12T08:16:22Z</time>
      </trkpt>
      <trkpt lat="44.7721" lon="6.35696">
        <ele>2733.2</ele>
        <time>2024-08-12T08:16:23Z</time>
      </trkpt>
      <trkpt lat="44.7721" lon="6.35696">
        <ele>2732.8</ele>
        <time>2024-08-12T08:16:24Z</time>
      </trkpt>
      <trkpt lat="44.77208" lon="6.35694">
        <ele>2732.8</ele>
        <time>2024-08-12T08:16:25Z</time>
      </trkpt>
      <trkpt lat="44.77208" lon="6.35694">
        <ele>2732.6</ele>
        <time>2024-08-12T08:16:26Z</time>
      </trkpt>
      <trkpt lat="44.77206" lon="6.35693">
        <ele>2732.6</ele>
        <time>2024-08-12T08:16:27Z</time>
      </trkpt>
      <trkpt lat="44.77206" lon="6.35693">
        <ele>2732.6</ele>
        <time>2024-08-12T08:16:28Z</time>
      </trkpt>
      <trkpt lat="44.77206" lon="6.35693">
        <ele>2732.8</ele>
        <time>2024-08-12T08:16:29Z</time>
      </trkpt>
      <trkpt lat="44.77205" lon="6.35691">
        <ele>2732.8</ele>
        <time>2024-08-12T08:16:30Z</time>
      </trkpt>
      <trkpt lat="44.77205" lon="6.35691">
        <ele>2732.8</ele>
        <time>2024-08-12T08:16:31Z</time>
      </trkpt>
      <trkpt lat="44.77203" lon="6.3569">
        <ele>2732.6</ele>
        <time>2024-08-12T08:16:32Z</time>
      </trkpt>
      <trkpt lat="44.77203" lon="6.3569">
        <ele>2732.2</ele>
        <time>2024-08-12T08:16:33Z</time>
      </trkpt>
      <trkpt lat="44.77201" lon="6.3569">
        <ele>2732.4</ele>
        <time>2024-08-12T08:16:34Z</time>
      </trkpt>
      <trkpt lat="44.77201" lon="6.3569">
        <ele>2732.2</ele>
        <time>2024-08-12T08:16:35Z</time>
      </trkpt>
      <trkpt lat="44.77199" lon="6.35691">
        <ele>2732.2</ele>
        <time>2024-08-12T08:16:36Z</time>
      </trkpt>
      <trkpt lat="44.77199" lon="6.35691">
        <ele>2731.8</ele>
        <time>2024-08-12T08:16:37Z</time>
      </trkpt>
      <trkpt lat="44.77199" lon="6.35691">
        <ele>2731.6</ele>
        <time>2024-08-12T08:16:38Z</time>
      </trkpt>
      <trkpt lat="44.77199" lon="6.35691">
        <ele>2731.8</ele>
        <time>2024-08-12T08:16:39Z</time>
      </trkpt>
      <trkpt lat="44.77199" lon="6.35691">
        <ele>2731.8</ele>
        <time>2024-08-12T08:16:40Z</time>
      </trkpt>
      <trkpt lat="44.77197" lon="6.35689">
        <ele>2732.2</ele>
        <time>2024-08-12T08:16:41Z</time>
      </trkpt>
      <trkpt lat="44.77197" lon="6.35689">
        <ele>2732.2</ele>
        <time>2024-08-12T08:16:42Z</time>
      </trkpt>
      <trkpt lat="44.77197" lon="6.35689">
        <ele>2732.2</ele>
        <time>2024-08-12T08:16:43Z</time>
      </trkpt>
      <trkpt lat="44.77195" lon="6.35689">
        <ele>2732.2</ele>
        <time>2024-08-12T08:16:44Z</time>
      </trkpt>
      <trkpt lat="44.77195" lon="6.35689">
        <ele>2732.4</ele>
        <time>2024-08-12T08:16:45Z</time>
      </trkpt>
      <trkpt lat="44.77193" lon="6.35688">
        <ele>2732.4</ele>
        <time>2024-08-12T08:16:46Z</time>
      </trkpt>
      <trkpt lat="44.77193" lon="6.35688">
        <ele>2732.4</ele>
        <time>2024-08-12T08:16:47Z</time>
      </trkpt>
      <trkpt lat="44.77193" lon="6.35688">
        <ele>2732.4</ele>
        <time>2024-08-12T08:16:48Z</time>
      </trkpt>
      <trkpt lat="44.7719" lon="6.35688">
        <ele>2732.6</ele>
        <time>2024-08-12T08:16:49Z</time>
      </trkpt>
      <trkpt lat="44.7719" lon="6.35688">
        <ele>2732.6</ele>
        <time>2024-08-12T08:16:50Z</time>
      </trkpt>
      <trkpt lat="44.77189" lon="6.35689">
        <ele>2732.8</ele>
        <time>2024-08-12T08:16:51Z</time>
      </trkpt>
      <trkpt lat="44.77189" lon="6.35689">
        <ele>2732.8</ele>
        <time>2024-08-12T08:16:52Z</time>
      </trkpt>
      <trkpt lat="44.77187" lon="6.35689">
        <ele>2732.4</ele>
        <time>2024-08-12T08:16:53Z</time>
      </trkpt>
      <trkpt lat="44.77187" lon="6.35689">
        <ele>2732.2</ele>
        <time>2024-08-12T08:16:54Z</time>
      </trkpt>
      <trkpt lat="44.77184" lon="6.35688">
        <ele>2732</ele>
        <time>2024-08-12T08:16:55Z</time>
      </trkpt>
      <trkpt lat="44.77184" lon="6.35688">
        <ele>2731.8</ele>
        <time>2024-08-12T08:16:56Z</time>
      </trkpt>
      <trkpt lat="44.77182" lon="6.35687">
        <ele>2731.8</ele>
        <time>2024-08-12T08:16:57Z</time>
      </trkpt>
      <trkpt lat="44.77182" lon="6.35687">
        <ele>2731.6</ele>
        <time>2024-08-12T08:16:58Z</time>
      </trkpt>
      <trkpt lat="44.77181" lon="6.35686">
        <ele>2731.4</ele>
        <time>2024-08-12T08:16:59Z</time>
      </trkpt>
      <trkpt lat="44.77181" lon="6.35686">
        <ele>2731.4</ele>
        <time>2024-08-12T08:17:00Z</time>
      </trkpt>
      <trkpt lat="44.77179" lon="6.35684">
        <ele>2731.8</ele>
        <time>2024-08-12T08:17:01Z</time>
      </trkpt>
      <trkpt lat="44.77179" lon="6.35684">
        <ele>2732.2</ele>
        <time>2024-08-12T08:17:02Z</time>
      </trkpt>
      <trkpt lat="44.77179" lon="6.35684">
        <ele>2732.2</ele>
        <time>2024-08-12T08:17:03Z</time>
      </trkpt>
      <trkpt lat="44.77177" lon="6.35683">
        <ele>2732.2</ele>
        <time>2024-08-12T08:17:04Z</time>
      </trkpt>
      <trkpt lat="44.77177" lon="6.35683">
        <ele>2732.2</ele>
        <time>2024-08-12T08:17:05Z</time>
      </trkpt>
      <trkpt lat="44.77177" lon="6.35683">
        <ele>2731.8</ele>
        <time>2024-08-12T08:17:06Z</time>
      </trkpt>
      <trkpt lat="44.77177" lon="6.35683">
        <ele>2731.8</ele>
        <time>2024-08-12T08:17:07Z</time>
      </trkpt>
      <trkpt lat="44.77174" lon="6.35683">
        <ele>2731.8</ele>
        <time>2024-08-12T08:17:08Z</time>
      </trkpt>
      <trkpt lat="44.77174" lon="6.35683">
        <ele>2731.8</ele>
        <time>2024-08-12T08:17:09Z</time>
      </trkpt>
      <trkpt lat="44.77173" lon="6.35682">
        <ele>2731.6</ele>
        <time>2024-08-12T08:17:10Z</time>
      </trkpt>
      <trkpt lat="44.77173" lon="6.35682">
        <ele>2731</ele>
        <time>2024-08-12T08:17:11Z</time>
      </trkpt>
      <trkpt lat="44.77171" lon="6.35681">
        <ele>2730.6</ele>
        <time>2024-08-12T08:17:12Z</time>
      </trkpt>
      <trkpt lat="44.77171" lon="6.35681">
        <ele>2730.6</ele>
        <time>2024-08-12T08:17:13Z</time>
      </trkpt>
      <trkpt lat="44.77169" lon="6.35679">
        <ele>2730.6</ele>
        <time>2024-08-12T08:17:14Z</time>
      </trkpt>
      <trkpt lat="44.77169" lon="6.35679">
        <ele>2730.4</ele>
        <time>2024-08-12T08:17:15Z</time>
      </trkpt>
      <trkpt lat="44.77167" lon="6.35677">
        <ele>2730.8</ele>
        <time>2024-08-12T08:17:16Z</time>
      </trkpt>
      <trkpt lat="44.77167" lon="6.35677">
        <ele>2731</ele>
        <time>2024-08-12T08:17:17Z</time>
      </trkpt>
      <trkpt lat="44.77167" lon="6.35677">
        <ele>2731.2</ele>
        <time>2024-08-12T08:17:18Z</time>
      </trkpt>
      <trkpt lat="44.77166" lon="6.35675">
        <ele>2731.2</ele>
        <time>2024-08-12T08:17:19Z</time>
      </trkpt>
      <trkpt lat="44.77166" lon="6.35675">
        <ele>2731.2</ele>
        <time>2024-08-12T08:17:20Z</time>
      </trkpt>
      <trkpt lat="44.77164" lon="6.35674">
        <ele>2730.8</ele>
        <time>2024-08-12T08:17:21Z</time>
      </trkpt>
      <trkpt lat="44.77164" lon="6.35674">
        <ele>2730.6</ele>
        <time>2024-08-12T08:17:22Z</time>
      </trkpt>
      <trkpt lat="44.77161" lon="6.35674">
        <ele>2730.4</ele>
        <time>2024-08-12T08:17:23Z</time>
      </trkpt>
      <trkpt lat="44.77161" lon="6.35674">
        <ele>2730.2</ele>
        <time>2024-08-12T08:17:24Z</time>
      </trkpt>
      <trkpt lat="44.77159" lon="6.35675">
        <ele>2730</ele>
        <time>2024-08-12T08:17:25Z</time>
      </trkpt>
      <trkpt lat="44.77159" lon="6.35675">
        <ele>2730</ele>
        <time>2024-08-12T08:17:26Z</time>
      </trkpt>
      <trkpt lat="44.77157" lon="6.35678">
        <ele>2730</ele>
        <time>2024-08-12T08:17:27Z</time>
      </trkpt>
      <trkpt lat="44.77157" lon="6.35678">
        <ele>2730</ele>
        <time>2024-08-12T08:17:28Z</time>
      </trkpt>
      <trkpt lat="44.77155" lon="6.35679">
        <ele>2730</ele>
        <time>2024-08-12T08:17:29Z</time>
      </trkpt>
      <trkpt lat="44.77155" lon="6.35679">
        <ele>2729.4</ele>
        <time>2024-08-12T08:17:30Z</time>
      </trkpt>
      <trkpt lat="44.77155" lon="6.35679">
        <ele>2728.6</ele>
        <time>2024-08-12T08:17:31Z</time>
      </trkpt>
      <trkpt lat="44.77155" lon="6.35679">
        <ele>2728.6</ele>
        <time>2024-08-12T08:17:32Z</time>
      </trkpt>
      <trkpt lat="44.77154" lon="6.35678">
        <ele>2729</ele>
        <time>2024-08-12T08:17:33Z</time>
      </trkpt>
      <trkpt lat="44.77154" lon="6.35678">
        <ele>2729.2</ele>
        <time>2024-08-12T08:17:34Z</time>
      </trkpt>
      <trkpt lat="44.77154" lon="6.35678">
        <ele>2730.2</ele>
        <time>2024-08-12T08:17:35Z</time>
      </trkpt>
      <trkpt lat="44.77154" lon="6.35678">
        <ele>2730.6</ele>
        <time>2024-08-12T08:17:36Z</time>
      </trkpt>
      <trkpt lat="44.77152" lon="6.35675">
        <ele>2730.8</ele>
        <time>2024-08-12T08:17:37Z</time>
      </trkpt>
      <trkpt lat="44.77152" lon="6.35675">
        <ele>2731.2</ele>
        <time>2024-08-12T08:17:38Z</time>
      </trkpt>
      <trkpt lat="44.7715" lon="6.35674">
        <ele>2731.2</ele>
        <time>2024-08-12T08:17:39Z</time>
      </trkpt>
      <trkpt lat="44.7715" lon="6.35674">
        <ele>2731.6</ele>
        <time>2024-08-12T08:17:40Z</time>
      </trkpt>
      <trkpt lat="44.77149" lon="6.35672">
        <ele>2731.6</ele>
        <time>2024-08-12T08:17:41Z</time>
      </trkpt>
      <trkpt lat="44.77149" lon="6.35672">
        <ele>2731.6</ele>
        <time>2024-08-12T08:17:42Z</time>
      </trkpt>
      <trkpt lat="44.77147" lon="6.35671">
        <ele>2731.6</ele>
        <time>2024-08-12T08:17:43Z</time>
      </trkpt>
      <trkpt lat="44.77147" lon="6.35671">
        <ele>2731.8</ele>
        <time>2024-08-12T08:17:44Z</time>
      </trkpt>
      <trkpt lat="44.77145" lon="6.35669">
        <ele>2731.8</ele>
        <time>2024-08-12T08:17:45Z</time>
      </trkpt>
      <trkpt lat="44.77145" lon="6.35669">
        <ele>2732</ele>
        <time>2024-08-12T08:17:46Z</time>
      </trkpt>
      <trkpt lat="44.77144" lon="6.35667">
        <ele>2732.2</ele>
        <time>2024-08-12T08:17:47Z</time>
      </trkpt>
      <trkpt lat="44.77144" lon="6.35667">
        <ele>2732.4</ele>
        <time>2024-08-12T08:17:48Z</time>
      </trkpt>
      <trkpt lat="44.77143" lon="6.35665">
        <ele>2732.4</ele>
        <time>2024-08-12T08:17:49Z</time>
      </trkpt>
      <trkpt lat="44.77143" lon="6.35665">
        <ele>2732.2</ele>
        <time>2024-08-12T08:17:50Z</time>
      </trkpt>
      <trkpt lat="44.77141" lon="6.35663">
        <ele>2732.2</ele>
        <time>2024-08-12T08:17:51Z</time>
      </trkpt>
      <trkpt lat="44.77141" lon="6.35663">
        <ele>2732.2</ele>
        <time>2024-08-12T08:17:52Z</time>
      </trkpt>
      <trkpt lat="44.77139" lon="6.35662">
        <ele>2732.6</ele>
        <time>2024-08-12T08:17:53Z</time>
      </trkpt>
      <trkpt lat="44.77139" lon="6.35662">
        <ele>2733</ele>
        <time>2024-08-12T08:17:54Z</time>
      </trkpt>
      <trkpt lat="44.77137" lon="6.3566">
        <ele>2733</ele>
        <time>2024-08-12T08:17:55Z</time>
      </trkpt>
      <trkpt lat="44.77137" lon="6.3566">
        <ele>2733.4</ele>
        <time>2024-08-12T08:17:56Z</time>
      </trkpt>
      <trkpt lat="44.77137" lon="6.3566">
        <ele>2733.4</ele>
        <time>2024-08-12T08:17:57Z</time>
      </trkpt>
      <trkpt lat="44.77136" lon="6.35657">
        <ele>2733</ele>
        <time>2024-08-12T08:17:58Z</time>
      </trkpt>
      <trkpt lat="44.77136" lon="6.35657">
        <ele>2733.2</ele>
        <time>2024-08-12T08:17:59Z</time>
      </trkpt>
      <trkpt lat="44.77134" lon="6.35655">
        <ele>2733.6</ele>
        <time>2024-08-12T08:18:00Z</time>
      </trkpt>
      <trkpt lat="44.77134" lon="6.35655">
        <ele>2733.8</ele>
        <time>2024-08-12T08:18:01Z</time>
      </trkpt>
      <trkpt lat="44.77133" lon="6.35653">
        <ele>2733.8</ele>
        <time>2024-08-12T08:18:02Z</time>
      </trkpt>
      <trkpt lat="44.77133" lon="6.35653">
        <ele>2733.8</ele>
        <time>2024-08-12T08:18:03Z</time>
      </trkpt>
      <trkpt lat="44.77132" lon="6.35651">
        <ele>2734</ele>
        <time>2024-08-12T08:18:04Z</time>
      </trkpt>
      <trkpt lat="44.77132" lon="6.35651">
        <ele>2734</ele>
        <time>2024-08-12T08:18:05Z</time>
      </trkpt>
      <trkpt lat="44.77132" lon="6.35651">
        <ele>2734</ele>
        <time>2024-08-12T08:18:06Z</time>
      </trkpt>
      <trkpt lat="44.7713" lon="6.35649">
        <ele>2734.2</ele>
        <time>2024-08-12T08:18:07Z</time>
      </trkpt>
      <trkpt lat="44.7713" lon="6.35649">
        <ele>2734.2</ele>
        <time>2024-08-12T08:18:08Z</time>
      </trkpt>
      <trkpt lat="44.7713" lon="6.35649">
        <ele>2734.8</ele>
        <time>2024-08-12T08:18:09Z</time>
      </trkpt>
      <trkpt lat="44.77129" lon="6.35646">
        <ele>2734.8</ele>
        <time>2024-08-12T08:18:10Z</time>
      </trkpt>
      <trkpt lat="44.77129" lon="6.35646">
        <ele>2734.6</ele>
        <time>2024-08-12T08:18:11Z</time>
      </trkpt>
      <trkpt lat="44.77129" lon="6.35646">
        <ele>2734.6</ele>
        <time>2024-08-12T08:18:12Z</time>
      </trkpt>
      <trkpt lat="44.77129" lon="6.35646">
        <ele>2735.2</ele>
        <time>2024-08-12T08:18:13Z</time>
      </trkpt>
      <trkpt lat="44.77129" lon="6.35646">
        <ele>2735.8</ele>
        <time>2024-08-12T08:18:14Z</time>
      </trkpt>
      <trkpt lat="44.77129" lon="6.35646">
        <ele>2736</ele>
        <time>2024-08-12T08:18:15Z</time>
      </trkpt>
      <trkpt lat="44.77129" lon="6.35644">
        <ele>2736</ele>
        <time>2024-08-12T08:18:16Z</time>
      </trkpt>
      <trkpt lat="44.77129" lon="6.35644">
        <ele>2736</ele>
        <time>2024-08-12T08:18:17Z</time>
      </trkpt>
      <trkpt lat="44.77129" lon="6.35644">
        <ele>2736</ele>
        <time>2024-08-12T08:18:18Z</time>
      </trkpt>
      <trkpt lat="44.77129" lon="6.35644">
        <ele>2736</ele>
        <time>2024-08-12T08:18:19Z</time>
      </trkpt>
      <trkpt lat="44.77126" lon="6.35643">
        <ele>2736</ele>
        <time>2024-08-12T08:18:20Z</time>
      </trkpt>
      <trkpt lat="44.77126" lon="6.35643">
        <ele>2735.8</ele>
        <time>2024-08-12T08:18:21Z</time>
      </trkpt>
      <trkpt lat="44.77125" lon="6.35643">
        <ele>2735.8</ele>
        <time>2024-08-12T08:18:22Z</time>
      </trkpt>
      <trkpt lat="44.77125" lon="6.35643">
        <ele>2735.6</ele>
        <time>2024-08-12T08:18:23Z</time>
      </trkpt>
      <trkpt lat="44.77125" lon="6.35643">
        <ele>2735.6</ele>
        <time>2024-08-12T08:18:24Z</time>
      </trkpt>
      <trkpt lat="44.77125" lon="6.35643">
        <ele>2735.6</ele>
        <time>2024-08-12T08:18:25Z</time>
      </trkpt>
      <trkpt lat="44.77125" lon="6.35643">
        <ele>2735.6</ele>
        <time>2024-08-12T08:18:26Z</time>
      </trkpt>
      <trkpt lat="44.77125" lon="6.35643">
        <ele>2735.6</ele>
        <time>2024-08-12T08:18:27Z</time>
      </trkpt>
      <trkpt lat="44.77125" lon="6.35643">
        <ele>2735.8</ele>
        <time>2024-08-12T08:18:28Z</time>
      </trkpt>
      <trkpt lat="44.77125" lon="6.35643">
        <ele>2735.8</ele>
        <time>2024-08-12T08:18:29Z</time>
      </trkpt>
      <trkpt lat="44.77123" lon="6.35641">
        <ele>2735.8</ele>
        <time>2024-08-12T08:18:30Z</time>
      </trkpt>
      <trkpt lat="44.77123" lon="6.35641">
        <ele>2735.8</ele>
        <time>2024-08-12T08:18:31Z</time>
      </trkpt>
      <trkpt lat="44.7712" lon="6.35639">
        <ele>2736</ele>
        <time>2024-08-12T08:18:32Z</time>
      </trkpt>
      <trkpt lat="44.7712" lon="6.35639">
        <ele>2736.2</ele>
        <time>2024-08-12T08:18:33Z</time>
      </trkpt>
      <trkpt lat="44.77118" lon="6.35637">
        <ele>2736.2</ele>
        <time>2024-08-12T08:18:34Z</time>
      </trkpt>
      <trkpt lat="44.77118" lon="6.35637">
        <ele>2735.4</ele>
        <time>2024-08-12T08:18:35Z</time>
      </trkpt>
      <trkpt lat="44.77117" lon="6.35634">
        <ele>2735.4</ele>
        <time>2024-08-12T08:18:36Z</time>
      </trkpt>
      <trkpt lat="44.77117" lon="6.35634">
        <ele>2735.8</ele>
        <time>2024-08-12T08:18:37Z</time>
      </trkpt>
      <trkpt lat="44.77116" lon="6.35631">
        <ele>2736</ele>
        <time>2024-08-12T08:18:38Z</time>
      </trkpt>
      <trkpt lat="44.77116" lon="6.35631">
        <ele>2736</ele>
        <time>2024-08-12T08:18:39Z</time>
      </trkpt>
      <trkpt lat="44.77115" lon="6.35629">
        <ele>2735.6</ele>
        <time>2024-08-12T08:18:40Z</time>
      </trkpt>
      <trkpt lat="44.77115" lon="6.35629">
        <ele>2735.4</ele>
        <time>2024-08-12T08:18:41Z</time>
      </trkpt>
      <trkpt lat="44.77113" lon="6.35626">
        <ele>2735.2</ele>
        <time>2024-08-12T08:18:42Z</time>
      </trkpt>
      <trkpt lat="44.77113" lon="6.35626">
        <ele>2735.2</ele>
        <time>2024-08-12T08:18:43Z</time>
      </trkpt>
      <trkpt lat="44.77111" lon="6.35623">
        <ele>2735.2</ele>
        <time>2024-08-12T08:18:44Z</time>
      </trkpt>
      <trkpt lat="44.77111" lon="6.35623">
        <ele>2735</ele>
        <time>2024-08-12T08:18:45Z</time>
      </trkpt>
      <trkpt lat="44.77111" lon="6.35623">
        <ele>2735</ele>
        <time>2024-08-12T08:18:46Z</time>
      </trkpt>
      <trkpt lat="44.77109" lon="6.35621">
        <ele>2735.2</ele>
        <time>2024-08-12T08:18:47Z</time>
      </trkpt>
      <trkpt lat="44.77109" lon="6.35621">
        <ele>2735.2</ele>
        <time>2024-08-12T08:18:48Z</time>
      </trkpt>
      <trkpt lat="44.77108" lon="6.35619">
        <ele>2735.2</ele>
        <time>2024-08-12T08:18:49Z</time>
      </trkpt>
      <trkpt lat="44.77108" lon="6.35619">
        <ele>2735.4</ele>
        <time>2024-08-12T08:18:50Z</time>
      </trkpt>
      <trkpt lat="44.77105" lon="6.35617">
        <ele>2735.4</ele>
        <time>2024-08-12T08:18:51Z</time>
      </trkpt>
      <trkpt lat="44.77105" lon="6.35617">
        <ele>2735.4</ele>
        <time>2024-08-12T08:18:52Z</time>
      </trkpt>
      <trkpt lat="44.77104" lon="6.35616">
        <ele>2735.2</ele>
        <time>2024-08-12T08:18:53Z</time>
      </trkpt>
      <trkpt lat="44.77104" lon="6.35616">
        <ele>2735</ele>
        <time>2024-08-12T08:18:54Z</time>
      </trkpt>
      <trkpt lat="44.77101" lon="6.35615">
        <ele>2735</ele>
        <time>2024-08-12T08:18:55Z</time>
      </trkpt>
      <trkpt lat="44.77101" lon="6.35615">
        <ele>2734.8</ele>
        <time>2024-08-12T08:18:56Z</time>
      </trkpt>
      <trkpt lat="44.77099" lon="6.35614">
        <ele>2734.8</ele>
        <time>2024-08-12T08:18:57Z</time>
      </trkpt>
      <trkpt lat="44.77099" lon="6.35614">
        <ele>2734.8</ele>
        <time>2024-08-12T08:18:58Z</time>
      </trkpt>
      <trkpt lat="44.77097" lon="6.35614">
        <ele>2734.8</ele>
        <time>2024-08-12T08:18:59Z</time>
      </trkpt>
      <trkpt lat="44.77097" lon="6.35614">
        <ele>2734.8</ele>
        <time>2024-08-12T08:19:00Z</time>
      </trkpt>
      <trkpt lat="44.77095" lon="6.35614">
        <ele>2734.8</ele>
        <time>2024-08-12T08:19:01Z</time>
      </trkpt>
      <trkpt lat="44.77095" lon="6.35614">
        <ele>2734.8</ele>
        <time>2024-08-12T08:19:02Z</time>
      </trkpt>
      <trkpt lat="44.77093" lon="6.35614">
        <ele>2734.8</ele>
        <time>2024-08-12T08:19:03Z</time>
      </trkpt>
      <trkpt lat="44.77093" lon="6.35614">
        <ele>2734.6</ele>
        <time>2024-08-12T08:19:04Z</time>
      </trkpt>
      <trkpt lat="44.77091" lon="6.35614">
        <ele>2734.6</ele>
        <time>2024-08-12T08:19:05Z</time>
      </trkpt>
      <trkpt lat="44.77091" lon="6.35614">
        <ele>2734.2</ele>
        <time>2024-08-12T08:19:06Z</time>
      </trkpt>
      <trkpt lat="44.77088" lon="6.35614">
        <ele>2734</ele>
        <time>2024-08-12T08:19:07Z</time>
      </trkpt>
      <trkpt lat="44.77088" lon="6.35614">
        <ele>2734</ele>
        <time>2024-08-12T08:19:08Z</time>
      </trkpt>
      <trkpt lat="44.77088" lon="6.35614">
        <ele>2734.2</ele>
        <time>2024-08-12T08:19:09Z</time>
      </trkpt>
      <trkpt lat="44.77086" lon="6.35615">
        <ele>2734.2</ele>
        <time>2024-08-12T08:19:10Z</time>
      </trkpt>
      <trkpt lat="44.77086" lon="6.35615">
        <ele>2734.4</ele>
        <time>2024-08-12T08:19:11Z</time>
      </trkpt>
      <trkpt lat="44.77086" lon="6.35615">
        <ele>2734.6</ele>
        <time>2024-08-12T08:19:12Z</time>
      </trkpt>
      <trkpt lat="44.77084" lon="6.35614">
        <ele>2734.8</ele>
        <time>2024-08-12T08:19:13Z</time>
      </trkpt>
      <trkpt lat="44.77084" lon="6.35614">
        <ele>2734.8</ele>
        <time>2024-08-12T08:19:14Z</time>
      </trkpt>
      <trkpt lat="44.77082" lon="6.35614">
        <ele>2734.8</ele>
        <time>2024-08-12T08:19:15Z</time>
      </trkpt>
      <trkpt lat="44.77082" lon="6.35614">
        <ele>2735</ele>
        <time>2024-08-12T08:19:16Z</time>
      </trkpt>
      <trkpt lat="44.77079" lon="6.35614">
        <ele>2735</ele>
        <time>2024-08-12T08:19:17Z</time>
      </trkpt>
      <trkpt lat="44.77079" lon="6.35614">
        <ele>2734.6</ele>
        <time>2024-08-12T08:19:18Z</time>
      </trkpt>
      <trkpt lat="44.77077" lon="6.35614">
        <ele>2734.4</ele>
        <time>2024-08-12T08:19:19Z</time>
      </trkpt>
      <trkpt lat="44.77077" lon="6.35614">
        <ele>2734.2</ele>
        <time>2024-08-12T08:19:20Z</time>
      </trkpt>
      <trkpt lat="44.77077" lon="6.35614">
        <ele>2734.2</ele>
        <time>2024-08-12T08:19:21Z</time>
      </trkpt>
      <trkpt lat="44.77075" lon="6.35613">
        <ele>2734.4</ele>
        <time>2024-08-12T08:19:22Z</time>
      </trkpt>
      <trkpt lat="44.77075" lon="6.35613">
        <ele>2734.8</ele>
        <time>2024-08-12T08:19:23Z</time>
      </trkpt>
      <trkpt lat="44.77075" lon="6.35613">
        <ele>2735</ele>
        <time>2024-08-12T08:19:24Z</time>
      </trkpt>
      <trkpt lat="44.77072" lon="6.35613">
        <ele>2735</ele>
        <time>2024-08-12T08:19:25Z</time>
      </trkpt>
      <trkpt lat="44.77072" lon="6.35613">
        <ele>2735.4</ele>
        <time>2024-08-12T08:19:26Z</time>
      </trkpt>
      <trkpt lat="44.7707" lon="6.35614">
        <ele>2735.4</ele>
        <time>2024-08-12T08:19:27Z</time>
      </trkpt>
      <trkpt lat="44.7707" lon="6.35614">
        <ele>2735.4</ele>
        <time>2024-08-12T08:19:28Z</time>
      </trkpt>
      <trkpt lat="44.77068" lon="6.35614">
        <ele>2735.2</ele>
        <time>2024-08-12T08:19:29Z</time>
      </trkpt>
      <trkpt lat="44.77068" lon="6.35614">
        <ele>2735.2</ele>
        <time>2024-08-12T08:19:30Z</time>
      </trkpt>
      <trkpt lat="44.77066" lon="6.35614">
        <ele>2736</ele>
        <time>2024-08-12T08:19:31Z</time>
      </trkpt>
      <trkpt lat="44.77066" lon="6.35614">
        <ele>2736.4</ele>
        <time>2024-08-12T08:19:32Z</time>
      </trkpt>
      <trkpt lat="44.77064" lon="6.35614">
        <ele>2736.4</ele>
        <time>2024-08-12T08:19:33Z</time>
      </trkpt>
      <trkpt lat="44.77064" lon="6.35614">
        <ele>2736.4</ele>
        <time>2024-08-12T08:19:34Z</time>
      </trkpt>
      <trkpt lat="44.77061" lon="6.35615">
        <ele>2736.4</ele>
        <time>2024-08-12T08:19:35Z</time>
      </trkpt>
      <trkpt lat="44.77061" lon="6.35615">
        <ele>2735.8</ele>
        <time>2024-08-12T08:19:36Z</time>
      </trkpt>
      <trkpt lat="44.7706" lon="6.35614">
        <ele>2735.8</ele>
        <time>2024-08-12T08:19:37Z</time>
      </trkpt>
      <trkpt lat="44.7706" lon="6.35614">
        <ele>2735.6</ele>
        <time>2024-08-12T08:19:38Z</time>
      </trkpt>
      <trkpt lat="44.77058" lon="6.35614">
        <ele>2735.2</ele>
        <time>2024-08-12T08:19:39Z</time>
      </trkpt>
      <trkpt lat="44.77058" lon="6.35614">
        <ele>2735</ele>
        <time>2024-08-12T08:19:40Z</time>
      </trkpt>
      <trkpt lat="44.77055" lon="6.35613">
        <ele>2735</ele>
        <time>2024-08-12T08:19:41Z</time>
      </trkpt>
      <trkpt lat="44.77055" lon="6.35613">
        <ele>2735</ele>
        <time>2024-08-12T08:19:42Z</time>
      </trkpt>
      <trkpt lat="44.77053" lon="6.35612">
        <ele>2734.6</ele>
        <time>2024-08-12T08:19:43Z</time>
      </trkpt>
      <trkpt lat="44.77053" lon="6.35612">
        <ele>2734.4</ele>
        <time>2024-08-12T08:19:44Z</time>
      </trkpt>
      <trkpt lat="44.77051" lon="6.35611">
        <ele>2733.8</ele>
        <time>2024-08-12T08:19:45Z</time>
      </trkpt>
      <trkpt lat="44.77051" lon="6.35611">
        <ele>2733.4</ele>
        <time>2024-08-12T08:19:46Z</time>
      </trkpt>
      <trkpt lat="44.77049" lon="6.35611">
        <ele>2733.4</ele>
        <time>2024-08-12T08:19:47Z</time>
      </trkpt>
      <trkpt lat="44.77049" lon="6.35611">
        <ele>2733</ele>
        <time>2024-08-12T08:19:48Z</time>
      </trkpt>
      <trkpt lat="44.77047" lon="6.35611">
        <ele>2733</ele>
        <time>2024-08-12T08:19:49Z</time>
      </trkpt>
      <trkpt lat="44.77047" lon="6.35611">
        <ele>2733.2</ele>
        <time>2024-08-12T08:19:50Z</time>
      </trkpt>
      <trkpt lat="44.77045" lon="6.35611">
        <ele>2733.2</ele>
        <time>2024-08-12T08:19:51Z</time>
      </trkpt>
      <trkpt lat="44.77045" lon="6.35611">
        <ele>2733.2</ele>
        <time>2024-08-12T08:19:52Z</time>
      </trkpt>
      <trkpt lat="44.77042" lon="6.35611">
        <ele>2733</ele>
        <time>2024-08-12T08:19:53Z</time>
      </trkpt>
      <trkpt lat="44.77042" lon="6.35611">
        <ele>2732.8</ele>
        <time>2024-08-12T08:19:54Z</time>
      </trkpt>
      <trkpt lat="44.77042" lon="6.35611">
        <ele>2732.6</ele>
        <time>2024-08-12T08:19:55Z</time>
      </trkpt>
      <trkpt lat="44.7704" lon="6.35611">
        <ele>2732.2</ele>
        <time>2024-08-12T08:19:56Z</time>
      </trkpt>
      <trkpt lat="44.7704" lon="6.35611">
        <ele>2732.2</ele>
        <time>2024-08-12T08:19:57Z</time>
      </trkpt>
      <trkpt lat="44.77038" lon="6.35612">
        <ele>2732.2</ele>
        <time>2024-08-12T08:19:58Z</time>
      </trkpt>
      <trkpt lat="44.77038" lon="6.35612">
        <ele>2732</ele>
        <time>2024-08-12T08:19:59Z</time>
      </trkpt>
      <trkpt lat="44.77036" lon="6.35612">
        <ele>2732</ele>
        <time>2024-08-12T08:20:00Z</time>
      </trkpt>
      <trkpt lat="44.77036" lon="6.35612">
        <ele>2732</ele>
        <time>2024-08-12T08:20:01Z</time>
      </trkpt>
      <trkpt lat="44.77034" lon="6.35612">
        <ele>2731.8</ele>
        <time>2024-08-12T08:20:02Z</time>
      </trkpt>
      <trkpt lat="44.77034" lon="6.35612">
        <ele>2731.8</ele>
        <time>2024-08-12T08:20:03Z</time>
      </trkpt>
      <trkpt lat="44.77032" lon="6.35611">
        <ele>2731.6</ele>
        <time>2024-08-12T08:20:04Z</time>
      </trkpt>
      <trkpt lat="44.77032" lon="6.35611">
        <ele>2731.4</ele>
        <time>2024-08-12T08:20:05Z</time>
      </trkpt>
      <trkpt lat="44.7703" lon="6.35609">
        <ele>2731</ele>
        <time>2024-08-12T08:20:06Z</time>
      </trkpt>
      <trkpt lat="44.7703" lon="6.35609">
        <ele>2731</ele>
        <time>2024-08-12T08:20:07Z</time>
      </trkpt>
      <trkpt lat="44.7703" lon="6.35609">
        <ele>2730.2</ele>
        <time>2024-08-12T08:20:08Z</time>
      </trkpt>
      <trkpt lat="44.77029" lon="6.35607">
        <ele>2730.2</ele>
        <time>2024-08-12T08:20:09Z</time>
      </trkpt>
      <trkpt lat="44.77029" lon="6.35607">
        <ele>2730.6</ele>
        <time>2024-08-12T08:20:10Z</time>
      </trkpt>
      <trkpt lat="44.77029" lon="6.35607">
        <ele>2731.4</ele>
        <time>2024-08-12T08:20:11Z</time>
      </trkpt>
      <trkpt lat="44.77028" lon="6.35605">
        <ele>2731.8</ele>
        <time>2024-08-12T08:20:12Z</time>
      </trkpt>
      <trkpt lat="44.77028" lon="6.35605">
        <ele>2732.2</ele>
        <time>2024-08-12T08:20:13Z</time>
      </trkpt>
      <trkpt lat="44.77028" lon="6.35605">
        <ele>2732.2</ele>
        <time>2024-08-12T08:20:14Z</time>
      </trkpt>
      <trkpt lat="44.77028" lon="6.35605">
        <ele>2732.2</ele>
        <time>2024-08-12T08:20:15Z</time>
      </trkpt>
      <trkpt lat="44.77028" lon="6.35605">
        <ele>2733</ele>
        <time>2024-08-12T08:20:16Z</time>
      </trkpt>
      <trkpt lat="44.77028" lon="6.35602">
        <ele>2733.2</ele>
        <time>2024-08-12T08:20:17Z</time>
      </trkpt>
      <trkpt lat="44.77028" lon="6.35602">
        <ele>2733.2</ele>
        <time>2024-08-12T08:20:18Z</time>
      </trkpt>
      <trkpt lat="44.77028" lon="6.35602">
        <ele>2733.8</ele>
        <time>2024-08-12T08:20:19Z</time>
      </trkpt>
      <trkpt lat="44.77026" lon="6.356">
        <ele>2733.8</ele>
        <time>2024-08-12T08:20:20Z</time>
      </trkpt>
      <trkpt lat="44.77026" lon="6.356">
        <ele>2733</ele>
        <time>2024-08-12T08:20:21Z</time>
      </trkpt>
      <trkpt lat="44.77025" lon="6.35597">
        <ele>2733</ele>
        <time>2024-08-12T08:20:22Z</time>
      </trkpt>
      <trkpt lat="44.77025" lon="6.35597">
        <ele>2733.2</ele>
        <time>2024-08-12T08:20:23Z</time>
      </trkpt>
      <trkpt lat="44.77024" lon="6.35594">
        <ele>2733.4</ele>
        <time>2024-08-12T08:20:24Z</time>
      </trkpt>
      <trkpt lat="44.77024" lon="6.35594">
        <ele>2733.4</ele>
        <time>2024-08-12T08:20:25Z</time>
      </trkpt>
      <trkpt lat="44.77022" lon="6.35592">
        <ele>2733.4</ele>
        <time>2024-08-12T08:20:26Z</time>
      </trkpt>
      <trkpt lat="44.77022" lon="6.35592">
        <ele>2733.4</ele>
        <time>2024-08-12T08:20:27Z</time>
      </trkpt>
      <trkpt lat="44.77022" lon="6.35592">
        <ele>2734</ele>
        <time>2024-08-12T08:20:28Z</time>
      </trkpt>
      <trkpt lat="44.7702" lon="6.3559">
        <ele>2734.2</ele>
        <time>2024-08-12T08:20:29Z</time>
      </trkpt>
      <trkpt lat="44.7702" lon="6.3559">
        <ele>2734.2</ele>
        <time>2024-08-12T08:20:30Z</time>
      </trkpt>
      <trkpt lat="44.7702" lon="6.3559">
        <ele>2734.4</ele>
        <time>2024-08-12T08:20:31Z</time>
      </trkpt>
      <trkpt lat="44.77018" lon="6.35589">
        <ele>2734.6</ele>
        <time>2024-08-12T08:20:32Z</time>
      </trkpt>
      <trkpt lat="44.77018" lon="6.35589">
        <ele>2734.6</ele>
        <time>2024-08-12T08:20:33Z</time>
      </trkpt>
      <trkpt lat="44.77018" lon="6.35589">
        <ele>2734.6</ele>
        <time>2024-08-12T08:20:34Z</time>
      </trkpt>
      <trkpt lat="44.77015" lon="6.3559">
        <ele>2734.6</ele>
        <time>2024-08-12T08:20:35Z</time>
      </trkpt>
      <trkpt lat="44.77015" lon="6.3559">
        <ele>2734.4</ele>
        <time>2024-08-12T08:20:36Z</time>
      </trkpt>
      <trkpt lat="44.77013" lon="6.35591">
        <ele>2734.2</ele>
        <time>2024-08-12T08:20:37Z</time>
      </trkpt>
      <trkpt lat="44.77013" lon="6.35591">
        <ele>2734.2</ele>
        <time>2024-08-12T08:20:38Z</time>
      </trkpt>
      <trkpt lat="44.77011" lon="6.35591">
        <ele>2733.6</ele>
        <time>2024-08-12T08:20:39Z</time>
      </trkpt>
      <trkpt lat="44.77011" lon="6.35591">
        <ele>2733.6</ele>
        <time>2024-08-12T08:20:40Z</time>
      </trkpt>
      <trkpt lat="44.77008" lon="6.3559">
        <ele>2733.6</ele>
        <time>2024-08-12T08:20:41Z</time>
      </trkpt>
      <trkpt lat="44.77008" lon="6.3559">
        <ele>2733.6</ele>
        <time>2024-08-12T08:20:42Z</time>
      </trkpt>
      <trkpt lat="44.77006" lon="6.35589">
        <ele>2733.6</ele>
        <time>2024-08-12T08:20:43Z</time>
      </trkpt>
      <trkpt lat="44.77006" lon="6.35589">
        <ele>2733</ele>
        <time>2024-08-12T08:20:44Z</time>
      </trkpt>
      <trkpt lat="44.77004" lon="6.35588">
        <ele>2732.8</ele>
        <time>2024-08-12T08:20:45Z</time>
      </trkpt>
      <trkpt lat="44.77004" lon="6.35588">
        <ele>2732.8</ele>
        <time>2024-08-12T08:20:46Z</time>
      </trkpt>
      <trkpt lat="44.77002" lon="6.35586">
        <ele>2732.8</ele>
        <time>2024-08-12T08:20:47Z</time>
      </trkpt>
      <trkpt lat="44.77002" lon="6.35586">
        <ele>2732.6</ele>
        <time>2024-08-12T08:20:48Z</time>
      </trkpt>
      <trkpt lat="44.77" lon="6.35583">
        <ele>2732.6</ele>
        <time>2024-08-12T08:20:49Z</time>
      </trkpt>
      <trkpt lat="44.77" lon="6.35583">
        <ele>2732.8</ele>
        <time>2024-08-12T08:20:50Z</time>
      </trkpt>
      <trkpt lat="44.77" lon="6.35583">
        <ele>2732.8</ele>
        <time>2024-08-12T08:20:51Z</time>
      </trkpt>
      <trkpt lat="44.76998" lon="6.35581">
        <ele>2733</ele>
        <time>2024-08-12T08:20:52Z</time>
      </trkpt>
      <trkpt lat="44.76998" lon="6.35581">
        <ele>2733</ele>
        <time>2024-08-12T08:20:53Z</time>
      </trkpt>
      <trkpt lat="44.76998" lon="6.35581">
        <ele>2733</ele>
        <time>2024-08-12T08:20:54Z</time>
      </trkpt>
      <trkpt lat="44.76997" lon="6.35578">
        <ele>2733.4</ele>
        <time>2024-08-12T08:20:55Z</time>
      </trkpt>
      <trkpt lat="44.76997" lon="6.35578">
        <ele>2733.8</ele>
        <time>2024-08-12T08:20:56Z</time>
      </trkpt>
      <trkpt lat="44.76995" lon="6.35576">
        <ele>2733.8</ele>
        <time>2024-08-12T08:20:57Z</time>
      </trkpt>
      <trkpt lat="44.76995" lon="6.35576">
        <ele>2733.8</ele>
        <time>2024-08-12T08:20:58Z</time>
      </trkpt>
      <trkpt lat="44.76994" lon="6.35574">
        <ele>2733.8</ele>
        <time>2024-08-12T08:20:59Z</time>
      </trkpt>
      <trkpt lat="44.76994" lon="6.35574">
        <ele>2733.8</ele>
        <time>2024-08-12T08:21:00Z</time>
      </trkpt>
      <trkpt lat="44.76992" lon="6.35572">
        <ele>2734</ele>
        <time>2024-08-12T08:21:01Z</time>
      </trkpt>
      <trkpt lat="44.76992" lon="6.35572">
        <ele>2734</ele>
        <time>2024-08-12T08:21:02Z</time>
      </trkpt>
      <trkpt lat="44.7699" lon="6.3557">
        <ele>2734</ele>
        <time>2024-08-12T08:21:03Z</time>
      </trkpt>
      <trkpt lat="44.7699" lon="6.3557">
        <ele>2734.2</ele>
        <time>2024-08-12T08:21:04Z</time>
      </trkpt>
      <trkpt lat="44.76988" lon="6.35568">
        <ele>2734.2</ele>
        <time>2024-08-12T08:21:05Z</time>
      </trkpt>
      <trkpt lat="44.76988" lon="6.35568">
        <ele>2734.2</ele>
        <time>2024-08-12T08:21:06Z</time>
      </trkpt>
      <trkpt lat="44.76988" lon="6.35568">
        <ele>2734.2</ele>
        <time>2024-08-12T08:21:07Z</time>
      </trkpt>
      <trkpt lat="44.76988" lon="6.35568">
        <ele>2734</ele>
        <time>2024-08-12T08:21:08Z</time>
      </trkpt>
      <trkpt lat="44.76988" lon="6.35568">
        <ele>2734</ele>
        <time>2024-08-12T08:21:09Z</time>
      </trkpt>
      <trkpt lat="44.76988" lon="6.35568">
        <ele>2734.2</ele>
        <time>2024-08-12T08:21:10Z</time>
      </trkpt>
      <trkpt lat="44.76987" lon="6.35565">
        <ele>2734.2</ele>
        <time>2024-08-12T08:21:11Z</time>
      </trkpt>
      <trkpt lat="44.76987" lon="6.35565">
        <ele>2734.2</ele>
        <time>2024-08-12T08:21:12Z</time>
      </trkpt>
      <trkpt lat="44.76987" lon="6.35565">
        <ele>2734</ele>
        <time>2024-08-12T08:21:13Z</time>
      </trkpt>
      <trkpt lat="44.76987" lon="6.35565">
        <ele>2734</ele>
        <time>2024-08-12T08:21:14Z</time>
      </trkpt>
      <trkpt lat="44.76987" lon="6.35565">
        <ele>2733.6</ele>
        <time>2024-08-12T08:21:15Z</time>
      </trkpt>
      <trkpt lat="44.76987" lon="6.35565">
        <ele>2733.6</ele>
        <time>2024-08-12T08:21:16Z</time>
      </trkpt>
      <trkpt lat="44.76987" lon="6.35565">
        <ele>2733.6</ele>
        <time>2024-08-12T08:21:17Z</time>
      </trkpt>
      <trkpt lat="44.76987" lon="6.35565">
        <ele>2733.6</ele>
        <time>2024-08-12T08:21:18Z</time>
      </trkpt>
      <trkpt lat="44.76987" lon="6.35565">
        <ele>2733.6</ele>
        <time>2024-08-12T08:21:19Z</time>
      </trkpt>
      <trkpt lat="44.76987" lon="6.35565">
        <ele>2733.8</ele>
        <time>2024-08-12T08:21:20Z</time>
      </trkpt>
      <trkpt lat="44.76987" lon="6.35565">
        <ele>2733.8</ele>
        <time>2024-08-12T08:21:21Z</time>
      </trkpt>
      <trkpt lat="44.76987" lon="6.35565">
        <ele>2733.8</ele>
        <time>2024-08-12T08:21:22Z</time>
      </trkpt>
      <trkpt lat="44.76987" lon="6.35565">
        <ele>2733.8</ele>
        <time>2024-08-12T08:21:23Z</time>
      </trkpt>
      <trkpt lat="44.76987" lon="6.35565">
        <ele>2733.8</ele>
        <time>2024-08-12T08:21:24Z</time>
      </trkpt>
      <trkpt lat="44.76987" lon="6.35565">
        <ele>2733.6</ele>
        <time>2024-08-12T08:21:25Z</time>
      </trkpt>
      <trkpt lat="44.76987" lon="6.35565">
        <ele>2733.6</ele>
        <time>2024-08-12T08:21:26Z</time>
      </trkpt>
      <trkpt lat="44.76987" lon="6.35565">
        <ele>2733.6</ele>
        <time>2024-08-12T08:21:27Z</time>
      </trkpt>
      <trkpt lat="44.76987" lon="6.35565">
        <ele>2733.8</ele>
        <time>2024-08-12T08:21:28Z</time>
      </trkpt>
      <trkpt lat="44.76987" lon="6.35565">
        <ele>2733.8</ele>
        <time>2024-08-12T08:21:29Z</time>
      </trkpt>
      <trkpt lat="44.76987" lon="6.35565">
        <ele>2733.8</ele>
        <time>2024-08-12T08:21:30Z</time>
      </trkpt>
      <trkpt lat="44.76987" lon="6.35565">
        <ele>2733.8</ele>
        <time>2024-08-12T08:21:31Z</time>
      </trkpt>
      <trkpt lat="44.76987" lon="6.35565">
        <ele>2733.8</ele>
        <time>2024-08-12T08:21:32Z</time>
      </trkpt>
      <trkpt lat="44.76987" lon="6.35565">
        <ele>2734</ele>
        <time>2024-08-12T08:21:33Z</time>
      </trkpt>
      <trkpt lat="44.76987" lon="6.35565">
        <ele>2734</ele>
        <time>2024-08-12T08:21:34Z</time>
      </trkpt>
      <trkpt lat="44.76987" lon="6.35565">
        <ele>2734</ele>
        <time>2024-08-12T08:21:35Z</time>
      </trkpt>
      <trkpt lat="44.76987" lon="6.35565">
        <ele>2734.2</ele>
        <time>2024-08-12T08:21:36Z</time>
      </trkpt>
      <trkpt lat="44.76987" lon="6.35565">
        <ele>2734.4</ele>
        <time>2024-08-12T08:21:37Z</time>
      </trkpt>
      <trkpt lat="44.76987" lon="6.35565">
        <ele>2734.4</ele>
        <time>2024-08-12T08:21:38Z</time>
      </trkpt>
      <trkpt lat="44.76987" lon="6.35565">
        <ele>2734.4</ele>
        <time>2024-08-12T08:21:39Z</time>
      </trkpt>
      <trkpt lat="44.76987" lon="6.35565">
        <ele>2734.4</ele>
        <time>2024-08-12T08:21:40Z</time>
      </trkpt>
      <trkpt lat="44.76987" lon="6.35565">
        <ele>2734.4</ele>
        <time>2024-08-12T08:21:41Z</time>
      </trkpt>
      <trkpt lat="44.76987" lon="6.35565">
        <ele>2734.4</ele>
        <time>2024-08-12T08:21:42Z</time>
      </trkpt>
      <trkpt lat="44.76987" lon="6.35565">
        <ele>2734.2</ele>
        <time>2024-08-12T08:21:43Z</time>
      </trkpt>
      <trkpt lat="44.76987" lon="6.35565">
        <ele>2734.2</ele>
        <time>2024-08-12T08:21:44Z</time>
      </trkpt>
      <trkpt lat="44.76987" lon="6.35565">
        <ele>2734.2</ele>
        <time>2024-08-12T08:21:45Z</time>
      </trkpt>
      <trkpt lat="44.76987" lon="6.35565">
        <ele>2734.2</ele>
        <time>2024-08-12T08:21:46Z</time>
      </trkpt>
      <trkpt lat="44.76987" lon="6.35565">
        <ele>2734</ele>
        <time>2024-08-12T08:21:47Z</time>
      </trkpt>
      <trkpt lat="44.76987" lon="6.35565">
        <ele>2734</ele>
        <time>2024-08-12T08:21:48Z</time>
      </trkpt>
      <trkpt lat="44.76987" lon="6.35565">
        <ele>2734</ele>
        <time>2024-08-12T08:21:49Z</time>
      </trkpt>
      <trkpt lat="44.76986" lon="6.35564">
        <ele>2734</ele>
        <time>2024-08-12T08:21:50Z</time>
      </trkpt>
      <trkpt lat="44.76986" lon="6.35564">
        <ele>2734</ele>
        <time>2024-08-12T08:21:51Z</time>
      </trkpt>
      <trkpt lat="44.76984" lon="6.35562">
        <ele>2733.8</ele>
        <time>2024-08-12T08:21:52Z</time>
      </trkpt>
      <trkpt lat="44.76984" lon="6.35562">
        <ele>2733.8</ele>
        <time>2024-08-12T08:21:53Z</time>
      </trkpt>
      <trkpt lat="44.76983" lon="6.3556">
        <ele>2733.8</ele>
        <time>2024-08-12T08:21:54Z</time>
      </trkpt>
      <trkpt lat="44.76983" lon="6.3556">
        <ele>2734</ele>
        <time>2024-08-12T08:21:55Z</time>
      </trkpt>
      <trkpt lat="44.76983" lon="6.3556">
        <ele>2734.2</ele>
        <time>2024-08-12T08:21:56Z</time>
      </trkpt>
      <trkpt lat="44.76982" lon="6.35556">
        <ele>2734.4</ele>
        <time>2024-08-12T08:21:57Z</time>
      </trkpt>
      <trkpt lat="44.76982" lon="6.35556">
        <ele>2735</ele>
        <time>2024-08-12T08:21:58Z</time>
      </trkpt>
      <trkpt lat="44.7698" lon="6.35555">
        <ele>2735.2</ele>
        <time>2024-08-12T08:21:59Z</time>
      </trkpt>
      <trkpt lat="44.7698" lon="6.35555">
        <ele>2735.2</ele>
        <time>2024-08-12T08:22:00Z</time>
      </trkpt>
      <trkpt lat="44.76978" lon="6.35555">
        <ele>2734.6</ele>
        <time>2024-08-12T08:22:01Z</time>
      </trkpt>
      <trkpt lat="44.76978" lon="6.35555">
        <ele>2734.6</ele>
        <time>2024-08-12T08:22:02Z</time>
      </trkpt>
      <trkpt lat="44.76976" lon="6.35553">
        <ele>2734.6</ele>
        <time>2024-08-12T08:22:03Z</time>
      </trkpt>
      <trkpt lat="44.76976" lon="6.35553">
        <ele>2734.6</ele>
        <time>2024-08-12T08:22:04Z</time>
      </trkpt>
      <trkpt lat="44.76974" lon="6.35551">
        <ele>2734.6</ele>
        <time>2024-08-12T08:22:05Z</time>
      </trkpt>
      <trkpt lat="44.76974" lon="6.35551">
        <ele>2734.8</ele>
        <time>2024-08-12T08:22:06Z</time>
      </trkpt>
      <trkpt lat="44.76974" lon="6.35551">
        <ele>2735</ele>
        <time>2024-08-12T08:22:07Z</time>
      </trkpt>
      <trkpt lat="44.76973" lon="6.35548">
        <ele>2735</ele>
        <time>2024-08-12T08:22:08Z</time>
      </trkpt>
      <trkpt lat="44.76973" lon="6.35548">
        <ele>2735</ele>
        <time>2024-08-12T08:22:09Z</time>
      </trkpt>
      <trkpt lat="44.76972" lon="6.35545">
        <ele>2735.6</ele>
        <time>2024-08-12T08:22:10Z</time>
      </trkpt>
      <trkpt lat="44.76972" lon="6.35545">
        <ele>2735.8</ele>
        <time>2024-08-12T08:22:11Z</time>
      </trkpt>
      <trkpt lat="44.76972" lon="6.35545">
        <ele>2736</ele>
        <time>2024-08-12T08:22:12Z</time>
      </trkpt>
      <trkpt lat="44.76971" lon="6.35542">
        <ele>2736.6</ele>
        <time>2024-08-12T08:22:13Z</time>
      </trkpt>
      <trkpt lat="44.76971" lon="6.35542">
        <ele>2736.8</ele>
        <time>2024-08-12T08:22:14Z</time>
      </trkpt>
      <trkpt lat="44.7697" lon="6.3554">
        <ele>2736.8</ele>
        <time>2024-08-12T08:22:15Z</time>
      </trkpt>
      <trkpt lat="44.7697" lon="6.3554">
        <ele>2737.2</ele>
        <time>2024-08-12T08:22:16Z</time>
      </trkpt>
      <trkpt lat="44.76969" lon="6.35538">
        <ele>2737.4</ele>
        <time>2024-08-12T08:22:17Z</time>
      </trkpt>
      <trkpt lat="44.76969" lon="6.35538">
        <ele>2737.4</ele>
        <time>2024-08-12T08:22:18Z</time>
      </trkpt>
      <trkpt lat="44.76969" lon="6.35538">
        <ele>2737.6</ele>
        <time>2024-08-12T08:22:19Z</time>
      </trkpt>
      <trkpt lat="44.76968" lon="6.35534">
        <ele>2737.6</ele>
        <time>2024-08-12T08:22:20Z</time>
      </trkpt>
      <trkpt lat="44.76968" lon="6.35534">
        <ele>2738</ele>
        <time>2024-08-12T08:22:21Z</time>
      </trkpt>
      <trkpt lat="44.76968" lon="6.35534">
        <ele>2738</ele>
        <time>2024-08-12T08:22:22Z</time>
      </trkpt>
      <trkpt lat="44.76967" lon="6.35531">
        <ele>2738.2</ele>
        <time>2024-08-12T08:22:23Z</time>
      </trkpt>
      <trkpt lat="44.76967" lon="6.35531">
        <ele>2738.4</ele>
        <time>2024-08-12T08:22:24Z</time>
      </trkpt>
      <trkpt lat="44.76965" lon="6.35529">
        <ele>2738.6</ele>
        <time>2024-08-12T08:22:25Z</time>
      </trkpt>
      <trkpt lat="44.76965" lon="6.35529">
        <ele>2738.6</ele>
        <time>2024-08-12T08:22:26Z</time>
      </trkpt>
      <trkpt lat="44.76964" lon="6.35527">
        <ele>2739.4</ele>
        <time>2024-08-12T08:22:27Z</time>
      </trkpt>
      <trkpt lat="44.76964" lon="6.35527">
        <ele>2739.4</ele>
        <time>2024-08-12T08:22:28Z</time>
      </trkpt>
      <trkpt lat="44.76962" lon="6.35525">
        <ele>2739.4</ele>
        <time>2024-08-12T08:22:29Z</time>
      </trkpt>
      <trkpt lat="44.76962" lon="6.35525">
        <ele>2739.4</ele>
        <time>2024-08-12T08:22:30Z</time>
      </trkpt>
      <trkpt lat="44.7696" lon="6.35523">
        <ele>2739.4</ele>
        <time>2024-08-12T08:22:31Z</time>
      </trkpt>
      <trkpt lat="44.7696" lon="6.35523">
        <ele>2739.4</ele>
        <time>2024-08-12T08:22:32Z</time>
      </trkpt>
      <trkpt lat="44.76958" lon="6.35521">
        <ele>2739.4</ele>
        <time>2024-08-12T08:22:33Z</time>
      </trkpt>
      <trkpt lat="44.76958" lon="6.35521">
        <ele>2739.2</ele>
        <time>2024-08-12T08:22:34Z</time>
      </trkpt>
      <trkpt lat="44.76956" lon="6.35518">
        <ele>2739.2</ele>
        <time>2024-08-12T08:22:35Z</time>
      </trkpt>
      <trkpt lat="44.76956" lon="6.35518">
        <ele>2739.2</ele>
        <time>2024-08-12T08:22:36Z</time>
      </trkpt>
      <trkpt lat="44.76954" lon="6.35516">
        <ele>2739.2</ele>
        <time>2024-08-12T08:22:37Z</time>
      </trkpt>
      <trkpt lat="44.76954" lon="6.35516">
        <ele>2739.2</ele>
        <time>2024-08-12T08:22:38Z</time>
      </trkpt>
      <trkpt lat="44.76952" lon="6.35514">
        <ele>2739.4</ele>
        <time>2024-08-12T08:22:39Z</time>
      </trkpt>
      <trkpt lat="44.76952" lon="6.35514">
        <ele>2739.4</ele>
        <time>2024-08-12T08:22:40Z</time>
      </trkpt>
      <trkpt lat="44.7695" lon="6.35512">
        <ele>2739.2</ele>
        <time>2024-08-12T08:22:41Z</time>
      </trkpt>
      <trkpt lat="44.7695" lon="6.35512">
        <ele>2739.2</ele>
        <time>2024-08-12T08:22:42Z</time>
      </trkpt>
      <trkpt lat="44.76949" lon="6.35509">
        <ele>2739.2</ele>
        <time>2024-08-12T08:22:43Z</time>
      </trkpt>
      <trkpt lat="44.76949" lon="6.35509">
        <ele>2739.2</ele>
        <time>2024-08-12T08:22:44Z</time>
      </trkpt>
      <trkpt lat="44.76947" lon="6.35506">
        <ele>2739.4</ele>
        <time>2024-08-12T08:22:45Z</time>
      </trkpt>
      <trkpt lat="44.76947" lon="6.35506">
        <ele>2739.4</ele>
        <time>2024-08-12T08:22:46Z</time>
      </trkpt>
      <trkpt lat="44.76946" lon="6.35503">
        <ele>2739.2</ele>
        <time>2024-08-12T08:22:47Z</time>
      </trkpt>
      <trkpt lat="44.76946" lon="6.35503">
        <ele>2739.2</ele>
        <time>2024-08-12T08:22:48Z</time>
      </trkpt>
      <trkpt lat="44.76944" lon="6.355">
        <ele>2739.2</ele>
        <time>2024-08-12T08:22:49Z</time>
      </trkpt>
      <trkpt lat="44.76944" lon="6.355">
        <ele>2739.2</ele>
        <time>2024-08-12T08:22:50Z</time>
      </trkpt>
      <trkpt lat="44.76943" lon="6.35497">
        <ele>2739.2</ele>
        <time>2024-08-12T08:22:51Z</time>
      </trkpt>
      <trkpt lat="44.76943" lon="6.35497">
        <ele>2739.2</ele>
        <time>2024-08-12T08:22:52Z</time>
      </trkpt>
      <trkpt lat="44.76941" lon="6.35495">
        <ele>2739.2</ele>
        <time>2024-08-12T08:22:53Z</time>
      </trkpt>
      <trkpt lat="44.76941" lon="6.35495">
        <ele>2739.2</ele>
        <time>2024-08-12T08:22:54Z</time>
      </trkpt>
      <trkpt lat="44.7694" lon="6.35492">
        <ele>2739.2</ele>
        <time>2024-08-12T08:22:55Z</time>
      </trkpt>
      <trkpt lat="44.7694" lon="6.35492">
        <ele>2739.4</ele>
        <time>2024-08-12T08:22:56Z</time>
      </trkpt>
      <trkpt lat="44.76938" lon="6.35489">
        <ele>2739.4</ele>
        <time>2024-08-12T08:22:57Z</time>
      </trkpt>
      <trkpt lat="44.76938" lon="6.35489">
        <ele>2739.4</ele>
        <time>2024-08-12T08:22:58Z</time>
      </trkpt>
      <trkpt lat="44.76937" lon="6.35486">
        <ele>2739.4</ele>
        <time>2024-08-12T08:22:59Z</time>
      </trkpt>
      <trkpt lat="44.76937" lon="6.35486">
        <ele>2739.4</ele>
        <time>2024-08-12T08:23:00Z</time>
      </trkpt>
      <trkpt lat="44.76936" lon="6.35483">
        <ele>2739.4</ele>
        <time>2024-08-12T08:23:01Z</time>
      </trkpt>
      <trkpt lat="44.76936" lon="6.35483">
        <ele>2739.6</ele>
        <time>2024-08-12T08:23:02Z</time>
      </trkpt>
      <trkpt lat="44.76934" lon="6.35481">
        <ele>2739.6</ele>
        <time>2024-08-12T08:23:03Z</time>
      </trkpt>
      <trkpt lat="44.76934" lon="6.35481">
        <ele>2739.6</ele>
        <time>2024-08-12T08:23:04Z</time>
      </trkpt>
      <trkpt lat="44.76933" lon="6.35479">
        <ele>2739.8</ele>
        <time>2024-08-12T08:23:05Z</time>
      </trkpt>
      <trkpt lat="44.76933" lon="6.35479">
        <ele>2740</ele>
        <time>2024-08-12T08:23:06Z</time>
      </trkpt>
      <trkpt lat="44.76931" lon="6.35476">
        <ele>2740</ele>
        <time>2024-08-12T08:23:07Z</time>
      </trkpt>
      <trkpt lat="44.76931" lon="6.35476">
        <ele>2740</ele>
        <time>2024-08-12T08:23:08Z</time>
      </trkpt>
      <trkpt lat="44.76929" lon="6.35474">
        <ele>2740</ele>
        <time>2024-08-12T08:23:09Z</time>
      </trkpt>
      <trkpt lat="44.76929" lon="6.35474">
        <ele>2739.8</ele>
        <time>2024-08-12T08:23:10Z</time>
      </trkpt>
      <trkpt lat="44.76928" lon="6.35471">
        <ele>2740</ele>
        <time>2024-08-12T08:23:11Z</time>
      </trkpt>
      <trkpt lat="44.76928" lon="6.35471">
        <ele>2740</ele>
        <time>2024-08-12T08:23:12Z</time>
      </trkpt>
      <trkpt lat="44.76926" lon="6.35468">
        <ele>2740</ele>
        <time>2024-08-12T08:23:13Z</time>
      </trkpt>
      <trkpt lat="44.76926" lon="6.35468">
        <ele>2739.8</ele>
        <time>2024-08-12T08:23:14Z</time>
      </trkpt>
      <trkpt lat="44.76924" lon="6.35465">
        <ele>2739.8</ele>
        <time>2024-08-12T08:23:15Z</time>
      </trkpt>
      <trkpt lat="44.76924" lon="6.35465">
        <ele>2740</ele>
        <time>2024-08-12T08:23:16Z</time>
      </trkpt>
      <trkpt lat="44.76922" lon="6.35463">
        <ele>2740.2</ele>
        <time>2024-08-12T08:23:17Z</time>
      </trkpt>
      <trkpt lat="44.76922" lon="6.35463">
        <ele>2740.2</ele>
        <time>2024-08-12T08:23:18Z</time>
      </trkpt>
      <trkpt lat="44.76921" lon="6.3546">
        <ele>2740.2</ele>
        <time>2024-08-12T08:23:19Z</time>
      </trkpt>
      <trkpt lat="44.76921" lon="6.3546">
        <ele>2740.2</ele>
        <time>2024-08-12T08:23:20Z</time>
      </trkpt>
      <trkpt lat="44.76919" lon="6.35458">
        <ele>2740.2</ele>
        <time>2024-08-12T08:23:21Z</time>
      </trkpt>
      <trkpt lat="44.76919" lon="6.35458">
        <ele>2740.2</ele>
        <time>2024-08-12T08:23:22Z</time>
      </trkpt>
      <trkpt lat="44.76917" lon="6.35456">
        <ele>2740.4</ele>
        <time>2024-08-12T08:23:23Z</time>
      </trkpt>
      <trkpt lat="44.76917" lon="6.35456">
        <ele>2740.4</ele>
        <time>2024-08-12T08:23:24Z</time>
      </trkpt>
      <trkpt lat="44.76915" lon="6.35455">
        <ele>2740.2</ele>
        <time>2024-08-12T08:23:25Z</time>
      </trkpt>
      <trkpt lat="44.76915" lon="6.35455">
        <ele>2740</ele>
        <time>2024-08-12T08:23:26Z</time>
      </trkpt>
      <trkpt lat="44.76912" lon="6.35454">
        <ele>2740</ele>
        <time>2024-08-12T08:23:27Z</time>
      </trkpt>
      <trkpt lat="44.76912" lon="6.35454">
        <ele>2740</ele>
        <time>2024-08-12T08:23:28Z</time>
      </trkpt>
      <trkpt lat="44.7691" lon="6.35453">
        <ele>2740</ele>
        <time>2024-08-12T08:23:29Z</time>
      </trkpt>
      <trkpt lat="44.7691" lon="6.35453">
        <ele>2739.6</ele>
        <time>2024-08-12T08:23:30Z</time>
      </trkpt>
      <trkpt lat="44.76908" lon="6.35453">
        <ele>2739.6</ele>
        <time>2024-08-12T08:23:31Z</time>
      </trkpt>
      <trkpt lat="44.76908" lon="6.35453">
        <ele>2739.4</ele>
        <time>2024-08-12T08:23:32Z</time>
      </trkpt>
      <trkpt lat="44.76906" lon="6.35452">
        <ele>2739.4</ele>
        <time>2024-08-12T08:23:33Z</time>
      </trkpt>
      <trkpt lat="44.76906" lon="6.35452">
        <ele>2739.2</ele>
        <time>2024-08-12T08:23:34Z</time>
      </trkpt>
      <trkpt lat="44.76904" lon="6.35451">
        <ele>2739.2</ele>
        <time>2024-08-12T08:23:35Z</time>
      </trkpt>
      <trkpt lat="44.76904" lon="6.35451">
        <ele>2739</ele>
        <time>2024-08-12T08:23:36Z</time>
      </trkpt>
      <trkpt lat="44.76902" lon="6.3545">
        <ele>2738.6</ele>
        <time>2024-08-12T08:23:37Z</time>
      </trkpt>
      <trkpt lat="44.76902" lon="6.3545">
        <ele>2738.6</ele>
        <time>2024-08-12T08:23:38Z</time>
      </trkpt>
      <trkpt lat="44.76901" lon="6.35449">
        <ele>2738.6</ele>
        <time>2024-08-12T08:23:39Z</time>
      </trkpt>
      <trkpt lat="44.76901" lon="6.35449">
        <ele>2738.4</ele>
        <time>2024-08-12T08:23:40Z</time>
      </trkpt>
      <trkpt lat="44.76899" lon="6.35447">
        <ele>2738.4</ele>
        <time>2024-08-12T08:23:41Z</time>
      </trkpt>
      <trkpt lat="44.76899" lon="6.35447">
        <ele>2737.6</ele>
        <time>2024-08-12T08:23:42Z</time>
      </trkpt>
      <trkpt lat="44.76897" lon="6.35445">
        <ele>2737.4</ele>
        <time>2024-08-12T08:23:43Z</time>
      </trkpt>
      <trkpt lat="44.76897" lon="6.35445">
        <ele>2737.2</ele>
        <time>2024-08-12T08:23:44Z</time>
      </trkpt>
      <trkpt lat="44.76895" lon="6.35443">
        <ele>2737</ele>
        <time>2024-08-12T08:23:45Z</time>
      </trkpt>
      <trkpt lat="44.76895" lon="6.35443">
        <ele>2737</ele>
        <time>2024-08-12T08:23:46Z</time>
      </trkpt>
      <trkpt lat="44.76894" lon="6.35441">
        <ele>2737</ele>
        <time>2024-08-12T08:23:47Z</time>
      </trkpt>
      <trkpt lat="44.76894" lon="6.35441">
        <ele>2737</ele>
        <time>2024-08-12T08:23:48Z</time>
      </trkpt>
      <trkpt lat="44.76893" lon="6.35438">
        <ele>2737</ele>
        <time>2024-08-12T08:23:49Z</time>
      </trkpt>
      <trkpt lat="44.76893" lon="6.35438">
        <ele>2737</ele>
        <time>2024-08-12T08:23:50Z</time>
      </trkpt>
      <trkpt lat="44.76892" lon="6.35435">
        <ele>2737</ele>
        <time>2024-08-12T08:23:51Z</time>
      </trkpt>
      <trkpt lat="44.76892" lon="6.35435">
        <ele>2737.2</ele>
        <time>2024-08-12T08:23:52Z</time>
      </trkpt>
      <trkpt lat="44.76892" lon="6.35435">
        <ele>2737.2</ele>
        <time>2024-08-12T08:23:53Z</time>
      </trkpt>
      <trkpt lat="44.76891" lon="6.35431">
        <ele>2737.6</ele>
        <time>2024-08-12T08:23:54Z</time>
      </trkpt>
      <trkpt lat="44.76891" lon="6.35431">
        <ele>2737.6</ele>
        <time>2024-08-12T08:23:55Z</time>
      </trkpt>
      <trkpt lat="44.76891" lon="6.35431">
        <ele>2737.8</ele>
        <time>2024-08-12T08:23:56Z</time>
      </trkpt>
      <trkpt lat="44.76889" lon="6.35429">
        <ele>2737.8</ele>
        <time>2024-08-12T08:23:57Z</time>
      </trkpt>
      <trkpt lat="44.76889" lon="6.35429">
        <ele>2738</ele>
        <time>2024-08-12T08:23:58Z</time>
      </trkpt>
      <trkpt lat="44.76889" lon="6.35429">
        <ele>2738</ele>
        <time>2024-08-12T08:23:59Z</time>
      </trkpt>
      <trkpt lat="44.76887" lon="6.35427">
        <ele>2737.8</ele>
        <time>2024-08-12T08:24:00Z</time>
      </trkpt>
      <trkpt lat="44.76887" lon="6.35427">
        <ele>2737.6</ele>
        <time>2024-08-12T08:24:01Z</time>
      </trkpt>
      <trkpt lat="44.76887" lon="6.35427">
        <ele>2737.4</ele>
        <time>2024-08-12T08:24:02Z</time>
      </trkpt>
      <trkpt lat="44.76885" lon="6.35425">
        <ele>2737.4</ele>
        <time>2024-08-12T08:24:03Z</time>
      </trkpt>
      <trkpt lat="44.76885" lon="6.35425">
        <ele>2737.4</ele>
        <time>2024-08-12T08:24:04Z</time>
      </trkpt>
      <trkpt lat="44.76883" lon="6.35424">
        <ele>2737.4</ele>
        <time>2024-08-12T08:24:05Z</time>
      </trkpt>
      <trkpt lat="44.76883" lon="6.35424">
        <ele>2737.2</ele>
        <time>2024-08-12T08:24:06Z</time>
      </trkpt>
      <trkpt lat="44.76881" lon="6.35422">
        <ele>2736.8</ele>
        <time>2024-08-12T08:24:07Z</time>
      </trkpt>
      <trkpt lat="44.76881" lon="6.35422">
        <ele>2736.8</ele>
        <time>2024-08-12T08:24:08Z</time>
      </trkpt>
      <trkpt lat="44.7688" lon="6.3542">
        <ele>2737</ele>
        <time>2024-08-12T08:24:09Z</time>
      </trkpt>
      <trkpt lat="44.7688" lon="6.3542">
        <ele>2737</ele>
        <time>2024-08-12T08:24:10Z</time>
      </trkpt>
      <trkpt lat="44.7688" lon="6.3542">
        <ele>2736.8</ele>
        <time>2024-08-12T08:24:11Z</time>
      </trkpt>
      <trkpt lat="44.76877" lon="6.35419">
        <ele>2736.8</ele>
        <time>2024-08-12T08:24:12Z</time>
      </trkpt>
      <trkpt lat="44.76877" lon="6.35419">
        <ele>2737</ele>
        <time>2024-08-12T08:24:13Z</time>
      </trkpt>
      <trkpt lat="44.76877" lon="6.35419">
        <ele>2737</ele>
        <time>2024-08-12T08:24:14Z</time>
      </trkpt>
      <trkpt lat="44.76875" lon="6.35419">
        <ele>2737</ele>
        <time>2024-08-12T08:24:15Z</time>
      </trkpt>
      <trkpt lat="44.76875" lon="6.35419">
        <ele>2737.2</ele>
        <time>2024-08-12T08:24:16Z</time>
      </trkpt>
      <trkpt lat="44.76873" lon="6.35418">
        <ele>2737.2</ele>
        <time>2024-08-12T08:24:17Z</time>
      </trkpt>
      <trkpt lat="44.76873" lon="6.35418">
        <ele>2737.2</ele>
        <time>2024-08-12T08:24:18Z</time>
      </trkpt>
      <trkpt lat="44.76873" lon="6.35418">
        <ele>2736.8</ele>
        <time>2024-08-12T08:24:19Z</time>
      </trkpt>
      <trkpt lat="44.76873" lon="6.35418">
        <ele>2736.6</ele>
        <time>2024-08-12T08:24:20Z</time>
      </trkpt>
      <trkpt lat="44.76872" lon="6.35415">
        <ele>2736.6</ele>
        <time>2024-08-12T08:24:21Z</time>
      </trkpt>
      <trkpt lat="44.76872" lon="6.35415">
        <ele>2736.6</ele>
        <time>2024-08-12T08:24:22Z</time>
      </trkpt>
      <trkpt lat="44.76872" lon="6.35415">
        <ele>2737</ele>
        <time>2024-08-12T08:24:23Z</time>
      </trkpt>
      <trkpt lat="44.76871" lon="6.35413">
        <ele>2737.4</ele>
        <time>2024-08-12T08:24:24Z</time>
      </trkpt>
      <trkpt lat="44.76871" lon="6.35413">
        <ele>2738</ele>
        <time>2024-08-12T08:24:25Z</time>
      </trkpt>
      <trkpt lat="44.76871" lon="6.35413">
        <ele>2738.2</ele>
        <time>2024-08-12T08:24:26Z</time>
      </trkpt>
      <trkpt lat="44.76871" lon="6.35413">
        <ele>2738.2</ele>
        <time>2024-08-12T08:24:27Z</time>
      </trkpt>
      <trkpt lat="44.76869" lon="6.35411">
        <ele>2738.2</ele>
        <time>2024-08-12T08:24:28Z</time>
      </trkpt>
      <trkpt lat="44.76869" lon="6.35411">
        <ele>2738.4</ele>
        <time>2024-08-12T08:24:29Z</time>
      </trkpt>
      <trkpt lat="44.76869" lon="6.35411">
        <ele>2738.8</ele>
        <time>2024-08-12T08:24:30Z</time>
      </trkpt>
      <trkpt lat="44.76867" lon="6.35409">
        <ele>2739</ele>
        <time>2024-08-12T08:24:31Z</time>
      </trkpt>
      <trkpt lat="44.76867" lon="6.35409">
        <ele>2739</ele>
        <time>2024-08-12T08:24:32Z</time>
      </trkpt>
      <trkpt lat="44.76867" lon="6.35409">
        <ele>2739.2</ele>
        <time>2024-08-12T08:24:33Z</time>
      </trkpt>
      <trkpt lat="44.76865" lon="6.35407">
        <ele>2739.6</ele>
        <time>2024-08-12T08:24:34Z</time>
      </trkpt>
      <trkpt lat="44.76865" lon="6.35407">
        <ele>2739.6</ele>
        <time>2024-08-12T08:24:35Z</time>
      </trkpt>
      <trkpt lat="44.76863" lon="6.35407">
        <ele>2739.6</ele>
        <time>2024-08-12T08:24:36Z</time>
      </trkpt>
      <trkpt lat="44.76863" lon="6.35407">
        <ele>2739.6</ele>
        <time>2024-08-12T08:24:37Z</time>
      </trkpt>
      <trkpt lat="44.76861" lon="6.35405">
        <ele>2739.2</ele>
        <time>2024-08-12T08:24:38Z</time>
      </trkpt>
      <trkpt lat="44.76861" lon="6.35405">
        <ele>2738.8</ele>
        <time>2024-08-12T08:24:39Z</time>
      </trkpt>
      <trkpt lat="44.76859" lon="6.35403">
        <ele>2738.8</ele>
        <time>2024-08-12T08:24:40Z</time>
      </trkpt>
      <trkpt lat="44.76859" lon="6.35403">
        <ele>2738.8</ele>
        <time>2024-08-12T08:24:41Z</time>
      </trkpt>
      <trkpt lat="44.76857" lon="6.35402">
        <ele>2738.8</ele>
        <time>2024-08-12T08:24:42Z</time>
      </trkpt>
      <trkpt lat="44.76857" lon="6.35402">
        <ele>2738.8</ele>
        <time>2024-08-12T08:24:43Z</time>
      </trkpt>
      <trkpt lat="44.76855" lon="6.354">
        <ele>2739</ele>
        <time>2024-08-12T08:24:44Z</time>
      </trkpt>
      <trkpt lat="44.76855" lon="6.354">
        <ele>2739</ele>
        <time>2024-08-12T08:24:45Z</time>
      </trkpt>
      <trkpt lat="44.76854" lon="6.35398">
        <ele>2739</ele>
        <time>2024-08-12T08:24:46Z</time>
      </trkpt>
      <trkpt lat="44.76854" lon="6.35398">
        <ele>2739.2</ele>
        <time>2024-08-12T08:24:47Z</time>
      </trkpt>
      <trkpt lat="44.76853" lon="6.35397">
        <ele>2739.4</ele>
        <time>2024-08-12T08:24:48Z</time>
      </trkpt>
      <trkpt lat="44.76853" lon="6.35397">
        <ele>2739.6</ele>
        <time>2024-08-12T08:24:49Z</time>
      </trkpt>
      <trkpt lat="44.76851" lon="6.35395">
        <ele>2739.8</ele>
        <time>2024-08-12T08:24:50Z</time>
      </trkpt>
      <trkpt lat="44.76851" lon="6.35395">
        <ele>2740</ele>
        <time>2024-08-12T08:24:51Z</time>
      </trkpt>
      <trkpt lat="44.76849" lon="6.35394">
        <ele>2740.4</ele>
        <time>2024-08-12T08:24:52Z</time>
      </trkpt>
      <trkpt lat="44.76849" lon="6.35394">
        <ele>2740.4</ele>
        <time>2024-08-12T08:24:53Z</time>
      </trkpt>
      <trkpt lat="44.76847" lon="6.35393">
        <ele>2740.4</ele>
        <time>2024-08-12T08:24:54Z</time>
      </trkpt>
      <trkpt lat="44.76847" lon="6.35393">
        <ele>2740.6</ele>
        <time>2024-08-12T08:24:55Z</time>
      </trkpt>
      <trkpt lat="44.76845" lon="6.35394">
        <ele>2741.2</ele>
        <time>2024-08-12T08:24:56Z</time>
      </trkpt>
      <trkpt lat="44.76845" lon="6.35394">
        <ele>2741.2</ele>
        <time>2024-08-12T08:24:57Z</time>
      </trkpt>
      <trkpt lat="44.76845" lon="6.35394">
        <ele>2740.6</ele>
        <time>2024-08-12T08:24:58Z</time>
      </trkpt>
      <trkpt lat="44.76845" lon="6.35394">
        <ele>2740.2</ele>
        <time>2024-08-12T08:24:59Z</time>
      </trkpt>
      <trkpt lat="44.76845" lon="6.35394">
        <ele>2740.2</ele>
        <time>2024-08-12T08:25:00Z</time>
      </trkpt>
      <trkpt lat="44.76845" lon="6.35394">
        <ele>2740.6</ele>
        <time>2024-08-12T08:25:01Z</time>
      </trkpt>
      <trkpt lat="44.76845" lon="6.35394">
        <ele>2740.6</ele>
        <time>2024-08-12T08:25:02Z</time>
      </trkpt>
      <trkpt lat="44.76845" lon="6.35394">
        <ele>2740.6</ele>
        <time>2024-08-12T08:25:03Z</time>
      </trkpt>
      <trkpt lat="44.76845" lon="6.35394">
        <ele>2740.6</ele>
        <time>2024-08-12T08:25:04Z</time>
      </trkpt>
      <trkpt lat="44.76845" lon="6.35394">
        <ele>2740.6</ele>
        <time>2024-08-12T08:25:05Z</time>
      </trkpt>
      <trkpt lat="44.76843" lon="6.35394">
        <ele>2740.4</ele>
        <time>2024-08-12T08:25:06Z</time>
      </trkpt>
      <trkpt lat="44.76843" lon="6.35394">
        <ele>2740</ele>
        <time>2024-08-12T08:25:07Z</time>
      </trkpt>
      <trkpt lat="44.76843" lon="6.35394">
        <ele>2740</ele>
        <time>2024-08-12T08:25:08Z</time>
      </trkpt>
      <trkpt lat="44.76843" lon="6.35394">
        <ele>2740.4</ele>
        <time>2024-08-12T08:25:09Z</time>
      </trkpt>
      <trkpt lat="44.76843" lon="6.35394">
        <ele>2741</ele>
        <time>2024-08-12T08:25:10Z</time>
      </trkpt>
      <trkpt lat="44.76843" lon="6.35394">
        <ele>2741</ele>
        <time>2024-08-12T08:25:11Z</time>
      </trkpt>
      <trkpt lat="44.76843" lon="6.35394">
        <ele>2741</ele>
        <time>2024-08-12T08:25:12Z</time>
      </trkpt>
      <trkpt lat="44.76843" lon="6.35394">
        <ele>2740.6</ele>
        <time>2024-08-12T08:25:13Z</time>
      </trkpt>
      <trkpt lat="44.76843" lon="6.35394">
        <ele>2740.6</ele>
        <time>2024-08-12T08:25:14Z</time>
      </trkpt>
      <trkpt lat="44.76843" lon="6.35394">
        <ele>2740.6</ele>
        <time>2024-08-12T08:25:15Z</time>
      </trkpt>
      <trkpt lat="44.76843" lon="6.35394">
        <ele>2740.6</ele>
        <time>2024-08-12T08:25:16Z</time>
      </trkpt>
      <trkpt lat="44.76843" lon="6.35394">
        <ele>2740.6</ele>
        <time>2024-08-12T08:25:17Z</time>
      </trkpt>
      <trkpt lat="44.76843" lon="6.35394">
        <ele>2740.6</ele>
        <time>2024-08-12T08:25:18Z</time>
      </trkpt>
      <trkpt lat="44.76843" lon="6.35394">
        <ele>2740.6</ele>
        <time>2024-08-12T08:25:19Z</time>
      </trkpt>
      <trkpt lat="44.76843" lon="6.35394">
        <ele>2740.6</ele>
        <time>2024-08-12T08:25:20Z</time>
      </trkpt>
      <trkpt lat="44.76843" lon="6.35394">
        <ele>2740.6</ele>
        <time>2024-08-12T08:25:21Z</time>
      </trkpt>
      <trkpt lat="44.76843" lon="6.35394">
        <ele>2740.6</ele>
        <time>2024-08-12T08:25:22Z</time>
      </trkpt>
      <trkpt lat="44.76843" lon="6.35394">
        <ele>2740.4</ele>
        <time>2024-08-12T08:25:23Z</time>
      </trkpt>
      <trkpt lat="44.76843" lon="6.35394">
        <ele>2740.4</ele>
        <time>2024-08-12T08:25:24Z</time>
      </trkpt>
      <trkpt lat="44.76843" lon="6.35394">
        <ele>2740.4</ele>
        <time>2024-08-12T08:25:25Z</time>
      </trkpt>
      <trkpt lat="44.76843" lon="6.35394">
        <ele>2740.8</ele>
        <time>2024-08-12T08:25:26Z</time>
      </trkpt>
      <trkpt lat="44.76843" lon="6.35394">
        <ele>2740.8</ele>
        <time>2024-08-12T08:25:27Z</time>
      </trkpt>
      <trkpt lat="44.76843" lon="6.35394">
        <ele>2740.8</ele>
        <time>2024-08-12T08:25:28Z</time>
      </trkpt>
      <trkpt lat="44.76843" lon="6.35394">
        <ele>2740.8</ele>
        <time>2024-08-12T08:25:29Z</time>
      </trkpt>
      <trkpt lat="44.76843" lon="6.35394">
        <ele>2740.4</ele>
        <time>2024-08-12T08:25:30Z</time>
      </trkpt>
      <trkpt lat="44.76843" lon="6.35394">
        <ele>2740.4</ele>
        <time>2024-08-12T08:25:31Z</time>
      </trkpt>
      <trkpt lat="44.76843" lon="6.35394">
        <ele>2740.2</ele>
        <time>2024-08-12T08:25:32Z</time>
      </trkpt>
      <trkpt lat="44.76843" lon="6.35394">
        <ele>2739.8</ele>
        <time>2024-08-12T08:25:33Z</time>
      </trkpt>
      <trkpt lat="44.76843" lon="6.35394">
        <ele>2739.8</ele>
        <time>2024-08-12T08:25:34Z</time>
      </trkpt>
      <trkpt lat="44.76843" lon="6.35394">
        <ele>2739.8</ele>
        <time>2024-08-12T08:25:35Z</time>
      </trkpt>
      <trkpt lat="44.76843" lon="6.35394">
        <ele>2740</ele>
        <time>2024-08-12T08:25:36Z</time>
      </trkpt>
      <trkpt lat="44.76843" lon="6.35394">
        <ele>2740</ele>
        <time>2024-08-12T08:25:37Z</time>
      </trkpt>
      <trkpt lat="44.76843" lon="6.35394">
        <ele>2740</ele>
        <time>2024-08-12T08:25:38Z</time>
      </trkpt>
      <trkpt lat="44.76843" lon="6.35394">
        <ele>2740</ele>
        <time>2024-08-12T08:25:39Z</time>
      </trkpt>
      <trkpt lat="44.76843" lon="6.35394">
        <ele>2740</ele>
        <time>2024-08-12T08:25:40Z</time>
      </trkpt>
      <trkpt lat="44.76843" lon="6.35394">
        <ele>2740</ele>
        <time>2024-08-12T08:25:41Z</time>
      </trkpt>
      <trkpt lat="44.76843" lon="6.35394">
        <ele>2739.8</ele>
        <time>2024-08-12T08:25:42Z</time>
      </trkpt>
      <trkpt lat="44.76843" lon="6.35394">
        <ele>2739.8</ele>
        <time>2024-08-12T08:25:43Z</time>
      </trkpt>
      <trkpt lat="44.76843" lon="6.35394">
        <ele>2740.2</ele>
        <time>2024-08-12T08:25:44Z</time>
      </trkpt>
      <trkpt lat="44.76843" lon="6.35394">
        <ele>2740.4</ele>
        <time>2024-08-12T08:25:45Z</time>
      </trkpt>
      <trkpt lat="44.76843" lon="6.35394">
        <ele>2740.4</ele>
        <time>2024-08-12T08:25:46Z</time>
      </trkpt>
      <trkpt lat="44.76843" lon="6.35394">
        <ele>2740.2</ele>
        <time>2024-08-12T08:25:47Z</time>
      </trkpt>
      <trkpt lat="44.76843" lon="6.35394">
        <ele>2740.2</ele>
        <time>2024-08-12T08:25:48Z</time>
      </trkpt>
      <trkpt lat="44.76843" lon="6.35394">
        <ele>2740</ele>
        <time>2024-08-12T08:25:49Z</time>
      </trkpt>
      <trkpt lat="44.76843" lon="6.35394">
        <ele>2740</ele>
        <time>2024-08-12T08:25:50Z</time>
      </trkpt>
      <trkpt lat="44.76843" lon="6.35394">
        <ele>2739.8</ele>
        <time>2024-08-12T08:25:51Z</time>
      </trkpt>
      <trkpt lat="44.76843" lon="6.35394">
        <ele>2739.8</ele>
        <time>2024-08-12T08:25:52Z</time>
      </trkpt>
      <trkpt lat="44.76843" lon="6.35394">
        <ele>2739.8</ele>
        <time>2024-08-12T08:25:53Z</time>
      </trkpt>
      <trkpt lat="44.76843" lon="6.35394">
        <ele>2739.8</ele>
        <time>2024-08-12T08:25:54Z</time>
      </trkpt>
      <trkpt lat="44.76843" lon="6.35394">
        <ele>2739.8</ele>
        <time>2024-08-12T08:25:55Z</time>
      </trkpt>
      <trkpt lat="44.76843" lon="6.35394">
        <ele>2739.8</ele>
        <time>2024-08-12T08:25:56Z</time>
      </trkpt>
      <trkpt lat="44.76843" lon="6.35394">
        <ele>2739.8</ele>
        <time>2024-08-12T08:25:57Z</time>
      </trkpt>
      <trkpt lat="44.76843" lon="6.35394">
        <ele>2739.8</ele>
        <time>2024-08-12T08:25:58Z</time>
      </trkpt>
      <trkpt lat="44.76843" lon="6.35394">
        <ele>2739.8</ele>
        <time>2024-08-12T08:25:59Z</time>
      </trkpt>
      <trkpt lat="44.76843" lon="6.35394">
        <ele>2739.6</ele>
        <time>2024-08-12T08:26:00Z</time>
      </trkpt>
      <trkpt lat="44.76843" lon="6.35394">
        <ele>2739.6</ele>
        <time>2024-08-12T08:26:01Z</time>
      </trkpt>
      <trkpt lat="44.76843" lon="6.35394">
        <ele>2739.6</ele>
        <time>2024-08-12T08:26:02Z</time>
      </trkpt>
      <trkpt lat="44.76843" lon="6.35394">
        <ele>2739.6</ele>
        <time>2024-08-12T08:26:03Z</time>
      </trkpt>
      <trkpt lat="44.76843" lon="6.35394">
        <ele>2740</ele>
        <time>2024-08-12T08:26:04Z</time>
      </trkpt>
      <trkpt lat="44.76843" lon="6.35394">
        <ele>2740</ele>
        <time>2024-08-12T08:26:05Z</time>
      </trkpt>
      <trkpt lat="44.76843" lon="6.35394">
        <ele>2739.8</ele>
        <time>2024-08-12T08:26:06Z</time>
      </trkpt>
      <trkpt lat="44.76843" lon="6.35394">
        <ele>2739.8</ele>
        <time>2024-08-12T08:26:07Z</time>
      </trkpt>
      <trkpt lat="44.76843" lon="6.35394">
        <ele>2739.8</ele>
        <time>2024-08-12T08:26:08Z</time>
      </trkpt>
      <trkpt lat="44.76843" lon="6.35394">
        <ele>2739.8</ele>
        <time>2024-08-12T08:26:09Z</time>
      </trkpt>
      <trkpt lat="44.76843" lon="6.35394">
        <ele>2739.8</ele>
        <time>2024-08-12T08:26:10Z</time>
      </trkpt>
      <trkpt lat="44.76843" lon="6.35394">
        <ele>2739.6</ele>
        <time>2024-08-12T08:26:11Z</time>
      </trkpt>
      <trkpt lat="44.76843" lon="6.35394">
        <ele>2739.6</ele>
        <time>2024-08-12T08:26:12Z</time>
      </trkpt>
      <trkpt lat="44.76843" lon="6.35394">
        <ele>2739.6</ele>
        <time>2024-08-12T08:26:13Z</time>
      </trkpt>
      <trkpt lat="44.76843" lon="6.35394">
        <ele>2739.6</ele>
        <time>2024-08-12T08:26:14Z</time>
      </trkpt>
      <trkpt lat="44.76843" lon="6.35394">
        <ele>2739.6</ele>
        <time>2024-08-12T08:26:15Z</time>
      </trkpt>
      <trkpt lat="44.76843" lon="6.35394">
        <ele>2739.6</ele>
        <time>2024-08-12T08:26:16Z</time>
      </trkpt>
      <trkpt lat="44.76843" lon="6.35394">
        <ele>2739.6</ele>
        <time>2024-08-12T08:26:17Z</time>
      </trkpt>
      <trkpt lat="44.76843" lon="6.35394">
        <ele>2739.8</ele>
        <time>2024-08-12T08:26:18Z</time>
      </trkpt>
      <trkpt lat="44.76843" lon="6.35394">
        <ele>2740.2</ele>
        <time>2024-08-12T08:26:19Z</time>
      </trkpt>
      <trkpt lat="44.76843" lon="6.35394">
        <ele>2740.2</ele>
        <time>2024-08-12T08:26:20Z</time>
      </trkpt>
      <trkpt lat="44.76843" lon="6.35394">
        <ele>2740.4</ele>
        <time>2024-08-12T08:26:21Z</time>
      </trkpt>
      <trkpt lat="44.76843" lon="6.35394">
        <ele>2740.4</ele>
        <time>2024-08-12T08:26:22Z</time>
      </trkpt>
      <trkpt lat="44.76843" lon="6.35394">
        <ele>2740</ele>
        <time>2024-08-12T08:26:23Z</time>
      </trkpt>
      <trkpt lat="44.76843" lon="6.35394">
        <ele>2740</ele>
        <time>2024-08-12T08:26:24Z</time>
      </trkpt>
      <trkpt lat="44.76843" lon="6.35394">
        <ele>2740.2</ele>
        <time>2024-08-12T08:26:25Z</time>
      </trkpt>
      <trkpt lat="44.76843" lon="6.35394">
        <ele>2740.2</ele>
        <time>2024-08-12T08:26:26Z</time>
      </trkpt>
      <trkpt lat="44.76843" lon="6.35394">
        <ele>2740</ele>
        <time>2024-08-12T08:26:27Z</time>
      </trkpt>
      <trkpt lat="44.76843" lon="6.35394">
        <ele>2740</ele>
        <time>2024-08-12T08:26:28Z</time>
      </trkpt>
      <trkpt lat="44.76843" lon="6.35394">
        <ele>2740</ele>
        <time>2024-08-12T08:26:29Z</time>
      </trkpt>
      <trkpt lat="44.76843" lon="6.35394">
        <ele>2740.2</ele>
        <time>2024-08-12T08:26:30Z</time>
      </trkpt>
      <trkpt lat="44.76843" lon="6.35394">
        <ele>2740.2</ele>
        <time>2024-08-12T08:26:31Z</time>
      </trkpt>
      <trkpt lat="44.76843" lon="6.35394">
        <ele>2740.2</ele>
        <time>2024-08-12T08:26:32Z</time>
      </trkpt>
      <trkpt lat="44.76843" lon="6.35394">
        <ele>2740.2</ele>
        <time>2024-08-12T08:26:33Z</time>
      </trkpt>
      <trkpt lat="44.76843" lon="6.35394">
        <ele>2740.2</ele>
        <time>2024-08-12T08:26:34Z</time>
      </trkpt>
      <trkpt lat="44.76843" lon="6.35394">
        <ele>2740</ele>
        <time>2024-08-12T08:26:35Z</time>
      </trkpt>
      <trkpt lat="44.76843" lon="6.35394">
        <ele>2740</ele>
        <time>2024-08-12T08:26:36Z</time>
      </trkpt>
      <trkpt lat="44.76843" lon="6.35394">
        <ele>2739.8</ele>
        <time>2024-08-12T08:26:37Z</time>
      </trkpt>
      <trkpt lat="44.76843" lon="6.35394">
        <ele>2739.8</ele>
        <time>2024-08-12T08:26:38Z</time>
      </trkpt>
      <trkpt lat="44.76843" lon="6.35394">
        <ele>2740.2</ele>
        <time>2024-08-12T08:26:39Z</time>
      </trkpt>
      <trkpt lat="44.76843" lon="6.35394">
        <ele>2740.2</ele>
        <time>2024-08-12T08:26:40Z</time>
      </trkpt>
      <trkpt lat="44.76843" lon="6.35394">
        <ele>2740.2</ele>
        <time>2024-08-12T08:26:41Z</time>
      </trkpt>
      <trkpt lat="44.76843" lon="6.35394">
        <ele>2740</ele>
        <time>2024-08-12T08:26:42Z</time>
      </trkpt>
      <trkpt lat="44.76843" lon="6.35394">
        <ele>2740</ele>
        <time>2024-08-12T08:26:43Z</time>
      </trkpt>
      <trkpt lat="44.76843" lon="6.35394">
        <ele>2740</ele>
        <time>2024-08-12T08:26:44Z</time>
      </trkpt>
      <trkpt lat="44.76843" lon="6.35394">
        <ele>2740</ele>
        <time>2024-08-12T08:26:45Z</time>
      </trkpt>
      <trkpt lat="44.76843" lon="6.35394">
        <ele>2740</ele>
        <time>2024-08-12T08:26:46Z</time>
      </trkpt>
      <trkpt lat="44.76843" lon="6.35394">
        <ele>2740.2</ele>
        <time>2024-08-12T08:26:47Z</time>
      </trkpt>
      <trkpt lat="44.76843" lon="6.35394">
        <ele>2740.2</ele>
        <time>2024-08-12T08:26:48Z</time>
      </trkpt>
      <trkpt lat="44.76843" lon="6.35394">
        <ele>2740.2</ele>
        <time>2024-08-12T08:26:49Z</time>
      </trkpt>
      <trkpt lat="44.76843" lon="6.35394">
        <ele>2740.2</ele>
        <time>2024-08-12T08:26:50Z</time>
      </trkpt>
      <trkpt lat="44.76843" lon="6.35394">
        <ele>2740.2</ele>
        <time>2024-08-12T08:26:51Z</time>
      </trkpt>
      <trkpt lat="44.76843" lon="6.35394">
        <ele>2740.2</ele>
        <time>2024-08-12T08:26:52Z</time>
      </trkpt>
      <trkpt lat="44.76843" lon="6.35394">
        <ele>2740.2</ele>
        <time>2024-08-12T08:26:53Z</time>
      </trkpt>
      <trkpt lat="44.76843" lon="6.35394">
        <ele>2740.2</ele>
        <time>2024-08-12T08:26:54Z</time>
      </trkpt>
      <trkpt lat="44.76843" lon="6.35394">
        <ele>2740.2</ele>
        <time>2024-08-12T08:26:55Z</time>
      </trkpt>
      <trkpt lat="44.76843" lon="6.35394">
        <ele>2740</ele>
        <time>2024-08-12T08:26:56Z</time>
      </trkpt>
      <trkpt lat="44.76843" lon="6.35394">
        <ele>2740</ele>
        <time>2024-08-12T08:26:57Z</time>
      </trkpt>
      <trkpt lat="44.76843" lon="6.35394">
        <ele>2740</ele>
        <time>2024-08-12T08:26:58Z</time>
      </trkpt>
      <trkpt lat="44.76843" lon="6.35394">
        <ele>2740</ele>
        <time>2024-08-12T08:26:59Z</time>
      </trkpt>
      <trkpt lat="44.76843" lon="6.35394">
        <ele>2740.6</ele>
        <time>2024-08-12T08:27:00Z</time>
      </trkpt>
      <trkpt lat="44.76843" lon="6.35394">
        <ele>2740.6</ele>
        <time>2024-08-12T08:27:01Z</time>
      </trkpt>
      <trkpt lat="44.76843" lon="6.35394">
        <ele>2740.6</ele>
        <time>2024-08-12T08:27:02Z</time>
      </trkpt>
      <trkpt lat="44.76843" lon="6.35394">
        <ele>2740.6</ele>
        <time>2024-08-12T08:27:03Z</time>
      </trkpt>
      <trkpt lat="44.76843" lon="6.35394">
        <ele>2740.6</ele>
        <time>2024-08-12T08:27:04Z</time>
      </trkpt>
      <trkpt lat="44.76843" lon="6.35394">
        <ele>2740.6</ele>
        <time>2024-08-12T08:27:05Z</time>
      </trkpt>
      <trkpt lat="44.76843" lon="6.35394">
        <ele>2740.4</ele>
        <time>2024-08-12T08:27:06Z</time>
      </trkpt>
      <trkpt lat="44.76843" lon="6.35394">
        <ele>2740.4</ele>
        <time>2024-08-12T08:27:07Z</time>
      </trkpt>
      <trkpt lat="44.76843" lon="6.35394">
        <ele>2740.4</ele>
        <time>2024-08-12T08:27:08Z</time>
      </trkpt>
      <trkpt lat="44.76843" lon="6.35394">
        <ele>2740.4</ele>
        <time>2024-08-12T08:27:09Z</time>
      </trkpt>
      <trkpt lat="44.76843" lon="6.35394">
        <ele>2740.4</ele>
        <time>2024-08-12T08:27:10Z</time>
      </trkpt>
      <trkpt lat="44.76843" lon="6.35394">
        <ele>2740.4</ele>
        <time>2024-08-12T08:27:11Z</time>
      </trkpt>
      <trkpt lat="44.76843" lon="6.35394">
        <ele>2740.6</ele>
        <time>2024-08-12T08:27:12Z</time>
      </trkpt>
      <trkpt lat="44.76843" lon="6.35394">
        <ele>2740.6</ele>
        <time>2024-08-12T08:27:13Z</time>
      </trkpt>
      <trkpt lat="44.76843" lon="6.35394">
        <ele>2740.4</ele>
        <time>2024-08-12T08:27:14Z</time>
      </trkpt>
      <trkpt lat="44.76843" lon="6.35394">
        <ele>2740.2</ele>
        <time>2024-08-12T08:27:15Z</time>
      </trkpt>
      <trkpt lat="44.76843" lon="6.35394">
        <ele>2740.2</ele>
        <time>2024-08-12T08:27:16Z</time>
      </trkpt>
      <trkpt lat="44.76843" lon="6.35394">
        <ele>2740.2</ele>
        <time>2024-08-12T08:27:17Z</time>
      </trkpt>
      <trkpt lat="44.76843" lon="6.35394">
        <ele>2740.2</ele>
        <time>2024-08-12T08:27:18Z</time>
      </trkpt>
      <trkpt lat="44.76843" lon="6.35394">
        <ele>2740.4</ele>
        <time>2024-08-12T08:27:19Z</time>
      </trkpt>
      <trkpt lat="44.76843" lon="6.35394">
        <ele>2740.4</ele>
        <time>2024-08-12T08:27:20Z</time>
      </trkpt>
      <trkpt lat="44.76843" lon="6.35394">
        <ele>2740.2</ele>
        <time>2024-08-12T08:27:21Z</time>
      </trkpt>
      <trkpt lat="44.76843" lon="6.35394">
        <ele>2740.2</ele>
        <time>2024-08-12T08:27:22Z</time>
      </trkpt>
      <trkpt lat="44.76843" lon="6.35394">
        <ele>2740.2</ele>
        <time>2024-08-12T08:27:23Z</time>
      </trkpt>
      <trkpt lat="44.76843" lon="6.35394">
        <ele>2740.2</ele>
        <time>2024-08-12T08:27:24Z</time>
      </trkpt>
      <trkpt lat="44.76843" lon="6.35394">
        <ele>2740.2</ele>
        <time>2024-08-12T08:27:25Z</time>
      </trkpt>
      <trkpt lat="44.76843" lon="6.35394">
        <ele>2740.2</ele>
        <time>2024-08-12T08:27:26Z</time>
      </trkpt>
      <trkpt lat="44.76843" lon="6.35394">
        <ele>2740.4</ele>
        <time>2024-08-12T08:27:27Z</time>
      </trkpt>
      <trkpt lat="44.76843" lon="6.35394">
        <ele>2740.4</ele>
        <time>2024-08-12T08:27:28Z</time>
      </trkpt>
      <trkpt lat="44.76843" lon="6.35394">
        <ele>2740</ele>
        <time>2024-08-12T08:27:29Z</time>
      </trkpt>
      <trkpt lat="44.76843" lon="6.35394">
        <ele>2740</ele>
        <time>2024-08-12T08:27:30Z</time>
      </trkpt>
      <trkpt lat="44.76843" lon="6.35394">
        <ele>2740</ele>
        <time>2024-08-12T08:27:31Z</time>
      </trkpt>
      <trkpt lat="44.76843" lon="6.35394">
        <ele>2740</ele>
        <time>2024-08-12T08:27:32Z</time>
      </trkpt>
      <trkpt lat="44.76843" lon="6.35394">
        <ele>2740</ele>
        <time>2024-08-12T08:27:33Z</time>
      </trkpt>
      <trkpt lat="44.76843" lon="6.35394">
        <ele>2739.8</ele>
        <time>2024-08-12T08:27:34Z</time>
      </trkpt>
      <trkpt lat="44.76843" lon="6.35394">
        <ele>2739.8</ele>
        <time>2024-08-12T08:27:35Z</time>
      </trkpt>
      <trkpt lat="44.76843" lon="6.35394">
        <ele>2739.8</ele>
        <time>2024-08-12T08:27:36Z</time>
      </trkpt>
      <trkpt lat="44.76843" lon="6.35394">
        <ele>2739.8</ele>
        <time>2024-08-12T08:27:37Z</time>
      </trkpt>
      <trkpt lat="44.76843" lon="6.35394">
        <ele>2739.8</ele>
        <time>2024-08-12T08:27:38Z</time>
      </trkpt>
      <trkpt lat="44.76843" lon="6.35394">
        <ele>2740</ele>
        <time>2024-08-12T08:27:39Z</time>
      </trkpt>
      <trkpt lat="44.76843" lon="6.35394">
        <ele>2740</ele>
        <time>2024-08-12T08:27:40Z</time>
      </trkpt>
      <trkpt lat="44.76843" lon="6.35394">
        <ele>2739.8</ele>
        <time>2024-08-12T08:27:41Z</time>
      </trkpt>
      <trkpt lat="44.76843" lon="6.35394">
        <ele>2739.8</ele>
        <time>2024-08-12T08:27:42Z</time>
      </trkpt>
      <trkpt lat="44.76843" lon="6.35394">
        <ele>2739.8</ele>
        <time>2024-08-12T08:27:43Z</time>
      </trkpt>
      <trkpt lat="44.76843" lon="6.35394">
        <ele>2739.8</ele>
        <time>2024-08-12T08:27:44Z</time>
      </trkpt>
      <trkpt lat="44.76843" lon="6.35394">
        <ele>2739.8</ele>
        <time>2024-08-12T08:27:45Z</time>
      </trkpt>
      <trkpt lat="44.76843" lon="6.35394">
        <ele>2739.8</ele>
        <time>2024-08-12T08:27:46Z</time>
      </trkpt>
      <trkpt lat="44.76843" lon="6.35394">
        <ele>2739.8</ele>
        <time>2024-08-12T08:27:47Z</time>
      </trkpt>
      <trkpt lat="44.76843" lon="6.35394">
        <ele>2739.8</ele>
        <time>2024-08-12T08:27:48Z</time>
      </trkpt>
      <trkpt lat="44.76843" lon="6.35394">
        <ele>2739.8</ele>
        <time>2024-08-12T08:27:49Z</time>
      </trkpt>
      <trkpt lat="44.76843" lon="6.35394">
        <ele>2739.8</ele>
        <time>2024-08-12T08:27:50Z</time>
      </trkpt>
      <trkpt lat="44.76843" lon="6.35394">
        <ele>2740</ele>
        <time>2024-08-12T08:27:51Z</time>
      </trkpt>
      <trkpt lat="44.76843" lon="6.35394">
        <ele>2740</ele>
        <time>2024-08-12T08:27:52Z</time>
      </trkpt>
      <trkpt lat="44.76843" lon="6.35394">
        <ele>2739.6</ele>
        <time>2024-08-12T08:27:53Z</time>
      </trkpt>
      <trkpt lat="44.76843" lon="6.35394">
        <ele>2739.6</ele>
        <time>2024-08-12T08:27:54Z</time>
      </trkpt>
      <trkpt lat="44.76843" lon="6.35394">
        <ele>2740</ele>
        <time>2024-08-12T08:27:55Z</time>
      </trkpt>
      <trkpt lat="44.76843" lon="6.35394">
        <ele>2740</ele>
        <time>2024-08-12T08:27:56Z</time>
      </trkpt>
      <trkpt lat="44.76843" lon="6.35394">
        <ele>2740</ele>
        <time>2024-08-12T08:27:57Z</time>
      </trkpt>
      <trkpt lat="44.76843" lon="6.35394">
        <ele>2739.8</ele>
        <time>2024-08-12T08:27:58Z</time>
      </trkpt>
      <trkpt lat="44.76843" lon="6.35394">
        <ele>2739.8</ele>
        <time>2024-08-12T08:27:59Z</time>
      </trkpt>
      <trkpt lat="44.76843" lon="6.35394">
        <ele>2739.6</ele>
        <time>2024-08-12T08:28:00Z</time>
      </trkpt>
      <trkpt lat="44.76843" lon="6.35394">
        <ele>2739.6</ele>
        <time>2024-08-12T08:28:01Z</time>
      </trkpt>
      <trkpt lat="44.76843" lon="6.35394">
        <ele>2739.6</ele>
        <time>2024-08-12T08:28:02Z</time>
      </trkpt>
      <trkpt lat="44.76843" lon="6.35394">
        <ele>2739.6</ele>
        <time>2024-08-12T08:28:03Z</time>
      </trkpt>
      <trkpt lat="44.76843" lon="6.35394">
        <ele>2739.6</ele>
        <time>2024-08-12T08:28:04Z</time>
      </trkpt>
      <trkpt lat="44.76843" lon="6.35394">
        <ele>2739.6</ele>
        <time>2024-08-12T08:28:05Z</time>
      </trkpt>
      <trkpt lat="44.76843" lon="6.35394">
        <ele>2739.6</ele>
        <time>2024-08-12T08:28:06Z</time>
      </trkpt>
      <trkpt lat="44.76843" lon="6.35394">
        <ele>2739.6</ele>
        <time>2024-08-12T08:28:07Z</time>
      </trkpt>
      <trkpt lat="44.76843" lon="6.35394">
        <ele>2739.8</ele>
        <time>2024-08-12T08:28:08Z</time>
      </trkpt>
      <trkpt lat="44.76843" lon="6.35394">
        <ele>2739.8</ele>
        <time>2024-08-12T08:28:09Z</time>
      </trkpt>
      <trkpt lat="44.76843" lon="6.35394">
        <ele>2739.8</ele>
        <time>2024-08-12T08:28:10Z</time>
      </trkpt>
      <trkpt lat="44.76843" lon="6.35394">
        <ele>2739.8</ele>
        <time>2024-08-12T08:28:11Z</time>
      </trkpt>
      <trkpt lat="44.76843" lon="6.35394">
        <ele>2740</ele>
        <time>2024-08-12T08:28:12Z</time>
      </trkpt>
      <trkpt lat="44.76843" lon="6.35394">
        <ele>2740</ele>
        <time>2024-08-12T08:28:13Z</time>
      </trkpt>
      <trkpt lat="44.76843" lon="6.35394">
        <ele>2740</ele>
        <time>2024-08-12T08:28:14Z</time>
      </trkpt>
      <trkpt lat="44.76843" lon="6.35394">
        <ele>2739.8</ele>
        <time>2024-08-12T08:28:15Z</time>
      </trkpt>
      <trkpt lat="44.76843" lon="6.35394">
        <ele>2739.8</ele>
        <time>2024-08-12T08:28:16Z</time>
      </trkpt>
      <trkpt lat="44.76843" lon="6.35394">
        <ele>2739.8</ele>
        <time>2024-08-12T08:28:17Z</time>
      </trkpt>
      <trkpt lat="44.76843" lon="6.35394">
        <ele>2739.8</ele>
        <time>2024-08-12T08:28:18Z</time>
      </trkpt>
      <trkpt lat="44.76843" lon="6.35394">
        <ele>2740</ele>
        <time>2024-08-12T08:28:19Z</time>
      </trkpt>
      <trkpt lat="44.76843" lon="6.35394">
        <ele>2740</ele>
        <time>2024-08-12T08:28:20Z</time>
      </trkpt>
      <trkpt lat="44.76843" lon="6.35394">
        <ele>2740</ele>
        <time>2024-08-12T08:28:21Z</time>
      </trkpt>
      <trkpt lat="44.76843" lon="6.35394">
        <ele>2740</ele>
        <time>2024-08-12T08:28:22Z</time>
      </trkpt>
      <trkpt lat="44.76843" lon="6.35394">
        <ele>2740</ele>
        <time>2024-08-12T08:28:23Z</time>
      </trkpt>
      <trkpt lat="44.76843" lon="6.35394">
        <ele>2740</ele>
        <time>2024-08-12T08:28:24Z</time>
      </trkpt>
      <trkpt lat="44.76843" lon="6.35394">
        <ele>2740</ele>
        <time>2024-08-12T08:28:25Z</time>
      </trkpt>
      <trkpt lat="44.76843" lon="6.35394">
        <ele>2739.8</ele>
        <time>2024-08-12T08:28:26Z</time>
      </trkpt>
      <trkpt lat="44.76843" lon="6.35394">
        <ele>2739.8</ele>
        <time>2024-08-12T08:28:27Z</time>
      </trkpt>
      <trkpt lat="44.76843" lon="6.35394">
        <ele>2739.8</ele>
        <time>2024-08-12T08:28:28Z</time>
      </trkpt>
      <trkpt lat="44.76843" lon="6.35394">
        <ele>2739.8</ele>
        <time>2024-08-12T08:28:29Z</time>
      </trkpt>
      <trkpt lat="44.76843" lon="6.35394">
        <ele>2739.8</ele>
        <time>2024-08-12T08:28:30Z</time>
      </trkpt>
      <trkpt lat="44.76843" lon="6.35394">
        <ele>2739.8</ele>
        <time>2024-08-12T08:28:31Z</time>
      </trkpt>
      <trkpt lat="44.76843" lon="6.35394">
        <ele>2740</ele>
        <time>2024-08-12T08:28:32Z</time>
      </trkpt>
      <trkpt lat="44.76843" lon="6.35394">
        <ele>2740</ele>
        <time>2024-08-12T08:28:33Z</time>
      </trkpt>
      <trkpt lat="44.76843" lon="6.35394">
        <ele>2740.2</ele>
        <time>2024-08-12T08:28:34Z</time>
      </trkpt>
      <trkpt lat="44.76843" lon="6.35394">
        <ele>2740.2</ele>
        <time>2024-08-12T08:28:35Z</time>
      </trkpt>
      <trkpt lat="44.76843" lon="6.35394">
        <ele>2740.2</ele>
        <time>2024-08-12T08:28:36Z</time>
      </trkpt>
      <trkpt lat="44.76843" lon="6.35394">
        <ele>2740.2</ele>
        <time>2024-08-12T08:28:37Z</time>
      </trkpt>
      <trkpt lat="44.76843" lon="6.35394">
        <ele>2740.2</ele>
        <time>2024-08-12T08:28:38Z</time>
      </trkpt>
      <trkpt lat="44.76843" lon="6.35394">
        <ele>2740.6</ele>
        <time>2024-08-12T08:28:39Z</time>
      </trkpt>
      <trkpt lat="44.76843" lon="6.35394">
        <ele>2740.6</ele>
        <time>2024-08-12T08:28:40Z</time>
      </trkpt>
      <trkpt lat="44.76843" lon="6.35394">
        <ele>2740.2</ele>
        <time>2024-08-12T08:28:41Z</time>
      </trkpt>
      <trkpt lat="44.76843" lon="6.35394">
        <ele>2740</ele>
        <time>2024-08-12T08:28:42Z</time>
      </trkpt>
      <trkpt lat="44.76843" lon="6.35394">
        <ele>2740</ele>
        <time>2024-08-12T08:28:43Z</time>
      </trkpt>
      <trkpt lat="44.76843" lon="6.35394">
        <ele>2740.6</ele>
        <time>2024-08-12T08:28:44Z</time>
      </trkpt>
      <trkpt lat="44.76843" lon="6.35394">
        <ele>2740.6</ele>
        <time>2024-08-12T08:28:45Z</time>
      </trkpt>
      <trkpt lat="44.76843" lon="6.35394">
        <ele>2740.6</ele>
        <time>2024-08-12T08:28:46Z</time>
      </trkpt>
      <trkpt lat="44.76843" lon="6.35394">
        <ele>2740.6</ele>
        <time>2024-08-12T08:28:47Z</time>
      </trkpt>
      <trkpt lat="44.76843" lon="6.35394">
        <ele>2740.6</ele>
        <time>2024-08-12T08:28:48Z</time>
      </trkpt>
      <trkpt lat="44.76843" lon="6.35394">
        <ele>2740.6</ele>
        <time>2024-08-12T08:28:49Z</time>
      </trkpt>
      <trkpt lat="44.76843" lon="6.35394">
        <ele>2740.6</ele>
        <time>2024-08-12T08:28:50Z</time>
      </trkpt>
      <trkpt lat="44.76843" lon="6.35394">
        <ele>2740.6</ele>
        <time>2024-08-12T08:28:51Z</time>
      </trkpt>
      <trkpt lat="44.76843" lon="6.35394">
        <ele>2740.6</ele>
        <time>2024-08-12T08:28:52Z</time>
      </trkpt>
      <trkpt lat="44.76843" lon="6.35394">
        <ele>2740.8</ele>
        <time>2024-08-12T08:28:53Z</time>
      </trkpt>
      <trkpt lat="44.76843" lon="6.35394">
        <ele>2740.8</ele>
        <time>2024-08-12T08:28:54Z</time>
      </trkpt>
      <trkpt lat="44.76843" lon="6.35394">
        <ele>2740.6</ele>
        <time>2024-08-12T08:28:55Z</time>
      </trkpt>
      <trkpt lat="44.76843" lon="6.35394">
        <ele>2740.6</ele>
        <time>2024-08-12T08:28:56Z</time>
      </trkpt>
      <trkpt lat="44.76843" lon="6.35394">
        <ele>2740.4</ele>
        <time>2024-08-12T08:28:57Z</time>
      </trkpt>
      <trkpt lat="44.76843" lon="6.35394">
        <ele>2740.6</ele>
        <time>2024-08-12T08:28:58Z</time>
      </trkpt>
      <trkpt lat="44.76843" lon="6.35394">
        <ele>2740.6</ele>
        <time>2024-08-12T08:28:59Z</time>
      </trkpt>
      <trkpt lat="44.76843" lon="6.35394">
        <ele>2740.8</ele>
        <time>2024-08-12T08:29:00Z</time>
      </trkpt>
      <trkpt lat="44.76843" lon="6.35394">
        <ele>2740.8</ele>
        <time>2024-08-12T08:29:01Z</time>
      </trkpt>
      <trkpt lat="44.76843" lon="6.35394">
        <ele>2740.8</ele>
        <time>2024-08-12T08:29:02Z</time>
      </trkpt>
      <trkpt lat="44.76843" lon="6.35394">
        <ele>2740.8</ele>
        <time>2024-08-12T08:29:03Z</time>
      </trkpt>
      <trkpt lat="44.76843" lon="6.35394">
        <ele>2741</ele>
        <time>2024-08-12T08:29:04Z</time>
      </trkpt>
      <trkpt lat="44.76843" lon="6.35394">
        <ele>2741</ele>
        <time>2024-08-12T08:29:05Z</time>
      </trkpt>
      <trkpt lat="44.76843" lon="6.35394">
        <ele>2741</ele>
        <time>2024-08-12T08:29:06Z</time>
      </trkpt>
      <trkpt lat="44.76843" lon="6.35394">
        <ele>2741</ele>
        <time>2024-08-12T08:29:07Z</time>
      </trkpt>
      <trkpt lat="44.76843" lon="6.35394">
        <ele>2741</ele>
        <time>2024-08-12T08:29:08Z</time>
      </trkpt>
      <trkpt lat="44.76843" lon="6.35394">
        <ele>2741</ele>
        <time>2024-08-12T08:29:09Z</time>
      </trkpt>
      <trkpt lat="44.76843" lon="6.35394">
        <ele>2741.2</ele>
        <time>2024-08-12T08:29:10Z</time>
      </trkpt>
      <trkpt lat="44.76843" lon="6.35394">
        <ele>2741.2</ele>
        <time>2024-08-12T08:29:11Z</time>
      </trkpt>
      <trkpt lat="44.76843" lon="6.35394">
        <ele>2741.2</ele>
        <time>2024-08-12T08:29:12Z</time>
      </trkpt>
      <trkpt lat="44.76843" lon="6.35394">
        <ele>2741</ele>
        <time>2024-08-12T08:29:13Z</time>
      </trkpt>
      <trkpt lat="44.76843" lon="6.35394">
        <ele>2740.8</ele>
        <time>2024-08-12T08:29:14Z</time>
      </trkpt>
      <trkpt lat="44.76843" lon="6.35394">
        <ele>2740.8</ele>
        <time>2024-08-12T08:29:15Z</time>
      </trkpt>
      <trkpt lat="44.76843" lon="6.35394">
        <ele>2740.8</ele>
        <time>2024-08-12T08:29:16Z</time>
      </trkpt>
      <trkpt lat="44.76843" lon="6.35394">
        <ele>2740.8</ele>
        <time>2024-08-12T08:29:17Z</time>
      </trkpt>
      <trkpt lat="44.76843" lon="6.35394">
        <ele>2741</ele>
        <time>2024-08-12T08:29:18Z</time>
      </trkpt>
      <trkpt lat="44.76843" lon="6.35394">
        <ele>2741.2</ele>
        <time>2024-08-12T08:29:19Z</time>
      </trkpt>
      <trkpt lat="44.76843" lon="6.35394">
        <ele>2741.2</ele>
        <time>2024-08-12T08:29:20Z</time>
      </trkpt>
      <trkpt lat="44.76843" lon="6.35394">
        <ele>2741.2</ele>
        <time>2024-08-12T08:29:21Z</time>
      </trkpt>
      <trkpt lat="44.76843" lon="6.35394">
        <ele>2741.2</ele>
        <time>2024-08-12T08:29:22Z</time>
      </trkpt>
      <trkpt lat="44.76843" lon="6.35394">
        <ele>2741.2</ele>
        <time>2024-08-12T08:29:23Z</time>
      </trkpt>
      <trkpt lat="44.76843" lon="6.35394">
        <ele>2741.2</ele>
        <time>2024-08-12T08:29:24Z</time>
      </trkpt>
      <trkpt lat="44.76843" lon="6.35394">
        <ele>2741.2</ele>
        <time>2024-08-12T08:29:25Z</time>
      </trkpt>
      <trkpt lat="44.76843" lon="6.35394">
        <ele>2741.2</ele>
        <time>2024-08-12T08:29:26Z</time>
      </trkpt>
      <trkpt lat="44.76843" lon="6.35394">
        <ele>2741</ele>
        <time>2024-08-12T08:29:27Z</time>
      </trkpt>
      <trkpt lat="44.76843" lon="6.35394">
        <ele>2741</ele>
        <time>2024-08-12T08:29:28Z</time>
      </trkpt>
      <trkpt lat="44.76843" lon="6.35394">
        <ele>2741</ele>
        <time>2024-08-12T08:29:29Z</time>
      </trkpt>
      <trkpt lat="44.76843" lon="6.35394">
        <ele>2741</ele>
        <time>2024-08-12T08:29:30Z</time>
      </trkpt>
      <trkpt lat="44.76843" lon="6.35394">
        <ele>2741</ele>
        <time>2024-08-12T08:29:31Z</time>
      </trkpt>
      <trkpt lat="44.76843" lon="6.35394">
        <ele>2740.8</ele>
        <time>2024-08-12T08:29:32Z</time>
      </trkpt>
      <trkpt lat="44.76843" lon="6.35394">
        <ele>2740.8</ele>
        <time>2024-08-12T08:29:33Z</time>
      </trkpt>
      <trkpt lat="44.76843" lon="6.35394">
        <ele>2741</ele>
        <time>2024-08-12T08:29:34Z</time>
      </trkpt>
      <trkpt lat="44.76843" lon="6.35394">
        <ele>2741</ele>
        <time>2024-08-12T08:29:35Z</time>
      </trkpt>
      <trkpt lat="44.76843" lon="6.35394">
        <ele>2741</ele>
        <time>2024-08-12T08:29:36Z</time>
      </trkpt>
      <trkpt lat="44.76843" lon="6.35394">
        <ele>2741</ele>
        <time>2024-08-12T08:29:37Z</time>
      </trkpt>
      <trkpt lat="44.76843" lon="6.35394">
        <ele>2741</ele>
        <time>2024-08-12T08:29:38Z</time>
      </trkpt>
      <trkpt lat="44.76843" lon="6.35394">
        <ele>2741</ele>
        <time>2024-08-12T08:29:39Z</time>
      </trkpt>
      <trkpt lat="44.76843" lon="6.35394">
        <ele>2741.2</ele>
        <time>2024-08-12T08:29:40Z</time>
      </trkpt>
      <trkpt lat="44.76843" lon="6.35394">
        <ele>2741.4</ele>
        <time>2024-08-12T08:29:41Z</time>
      </trkpt>
      <trkpt lat="44.76843" lon="6.35394">
        <ele>2741.4</ele>
        <time>2024-08-12T08:29:42Z</time>
      </trkpt>
      <trkpt lat="44.76843" lon="6.35394">
        <ele>2741.4</ele>
        <time>2024-08-12T08:29:43Z</time>
      </trkpt>
      <trkpt lat="44.76843" lon="6.35394">
        <ele>2741.4</ele>
        <time>2024-08-12T08:29:44Z</time>
      </trkpt>
      <trkpt lat="44.76843" lon="6.35394">
        <ele>2741.4</ele>
        <time>2024-08-12T08:29:45Z</time>
      </trkpt>
      <trkpt lat="44.76843" lon="6.35394">
        <ele>2741.4</ele>
        <time>2024-08-12T08:29:46Z</time>
      </trkpt>
      <trkpt lat="44.76843" lon="6.35394">
        <ele>2741.4</ele>
        <time>2024-08-12T08:29:47Z</time>
      </trkpt>
      <trkpt lat="44.76843" lon="6.35394">
        <ele>2741.6</ele>
        <time>2024-08-12T08:29:48Z</time>
      </trkpt>
      <trkpt lat="44.76843" lon="6.35394">
        <ele>2741.6</ele>
        <time>2024-08-12T08:29:49Z</time>
      </trkpt>
      <trkpt lat="44.76843" lon="6.35394">
        <ele>2741.6</ele>
        <time>2024-08-12T08:29:50Z</time>
      </trkpt>
      <trkpt lat="44.76843" lon="6.35394">
        <ele>2741.6</ele>
        <time>2024-08-12T08:29:51Z</time>
      </trkpt>
      <trkpt lat="44.76843" lon="6.35394">
        <ele>2741.6</ele>
        <time>2024-08-12T08:29:52Z</time>
      </trkpt>
      <trkpt lat="44.76843" lon="6.35394">
        <ele>2741.6</ele>
        <time>2024-08-12T08:29:53Z</time>
      </trkpt>
      <trkpt lat="44.76843" lon="6.35394">
        <ele>2742</ele>
        <time>2024-08-12T08:29:54Z</time>
      </trkpt>
      <trkpt lat="44.76843" lon="6.35394">
        <ele>2742</ele>
        <time>2024-08-12T08:29:55Z</time>
      </trkpt>
      <trkpt lat="44.76843" lon="6.35394">
        <ele>2741.8</ele>
        <time>2024-08-12T08:29:56Z</time>
      </trkpt>
      <trkpt lat="44.76843" lon="6.35394">
        <ele>2742.2</ele>
        <time>2024-08-12T08:29:57Z</time>
      </trkpt>
      <trkpt lat="44.76843" lon="6.35394">
        <ele>2742.2</ele>
        <time>2024-08-12T08:29:58Z</time>
      </trkpt>
      <trkpt lat="44.76843" lon="6.35394">
        <ele>2741.6</ele>
        <time>2024-08-12T08:29:59Z</time>
      </trkpt>
      <trkpt lat="44.76843" lon="6.35394">
        <ele>2741.6</ele>
        <time>2024-08-12T08:30:00Z</time>
      </trkpt>
      <trkpt lat="44.76843" lon="6.35394">
        <ele>2741.6</ele>
        <time>2024-08-12T08:30:01Z</time>
      </trkpt>
      <trkpt lat="44.76843" lon="6.35394">
        <ele>2741.4</ele>
        <time>2024-08-12T08:30:02Z</time>
      </trkpt>
      <trkpt lat="44.76843" lon="6.35394">
        <ele>2741.4</ele>
        <time>2024-08-12T08:30:03Z</time>
      </trkpt>
      <trkpt lat="44.76843" lon="6.35394">
        <ele>2741.6</ele>
        <time>2024-08-12T08:30:04Z</time>
      </trkpt>
      <trkpt lat="44.76843" lon="6.35394">
        <ele>2741.6</ele>
        <time>2024-08-12T08:30:05Z</time>
      </trkpt>
      <trkpt lat="44.76843" lon="6.35394">
        <ele>2741.4</ele>
        <time>2024-08-12T08:30:06Z</time>
      </trkpt>
      <trkpt lat="44.76843" lon="6.35394">
        <ele>2741.4</ele>
        <time>2024-08-12T08:30:07Z</time>
      </trkpt>
      <trkpt lat="44.76843" lon="6.35394">
        <ele>2741.4</ele>
        <time>2024-08-12T08:30:08Z</time>
      </trkpt>
      <trkpt lat="44.76843" lon="6.35394">
        <ele>2741.4</ele>
        <time>2024-08-12T08:30:09Z</time>
      </trkpt>
      <trkpt lat="44.76843" lon="6.35394">
        <ele>2741.6</ele>
        <time>2024-08-12T08:30:10Z</time>
      </trkpt>
      <trkpt lat="44.76843" lon="6.35394">
        <ele>2741.6</ele>
        <time>2024-08-12T08:30:11Z</time>
      </trkpt>
      <trkpt lat="44.76843" lon="6.35394">
        <ele>2741.6</ele>
        <time>2024-08-12T08:30:12Z</time>
      </trkpt>
      <trkpt lat="44.76843" lon="6.35394">
        <ele>2741.6</ele>
        <time>2024-08-12T08:30:13Z</time>
      </trkpt>
      <trkpt lat="44.76843" lon="6.35394">
        <ele>2741.8</ele>
        <time>2024-08-12T08:30:14Z</time>
      </trkpt>
      <trkpt lat="44.76843" lon="6.35394">
        <ele>2741.8</ele>
        <time>2024-08-12T08:30:15Z</time>
      </trkpt>
      <trkpt lat="44.76843" lon="6.35394">
        <ele>2741.6</ele>
        <time>2024-08-12T08:30:16Z</time>
      </trkpt>
      <trkpt lat="44.76843" lon="6.35394">
        <ele>2741.4</ele>
        <time>2024-08-12T08:30:17Z</time>
      </trkpt>
      <trkpt lat="44.76843" lon="6.35394">
        <ele>2741.4</ele>
        <time>2024-08-12T08:30:18Z</time>
      </trkpt>
      <trkpt lat="44.76843" lon="6.35394">
        <ele>2741.6</ele>
        <time>2024-08-12T08:30:19Z</time>
      </trkpt>
      <trkpt lat="44.76843" lon="6.35394">
        <ele>2741.8</ele>
        <time>2024-08-12T08:30:20Z</time>
      </trkpt>
      <trkpt lat="44.76843" lon="6.35394">
        <ele>2741.8</ele>
        <time>2024-08-12T08:30:21Z</time>
      </trkpt>
      <trkpt lat="44.76843" lon="6.35394">
        <ele>2741.8</ele>
        <time>2024-08-12T08:30:22Z</time>
      </trkpt>
      <trkpt lat="44.76843" lon="6.35394">
        <ele>2741.6</ele>
        <time>2024-08-12T08:30:23Z</time>
      </trkpt>
      <trkpt lat="44.76843" lon="6.35394">
        <ele>2741.8</ele>
        <time>2024-08-12T08:30:24Z</time>
      </trkpt>
      <trkpt lat="44.76843" lon="6.35394">
        <ele>2741.8</ele>
        <time>2024-08-12T08:30:25Z</time>
      </trkpt>
      <trkpt lat="44.76843" lon="6.35394">
        <ele>2741.8</ele>
        <time>2024-08-12T08:30:26Z</time>
      </trkpt>
      <trkpt lat="44.76843" lon="6.35394">
        <ele>2741.8</ele>
        <time>2024-08-12T08:30:27Z</time>
      </trkpt>
      <trkpt lat="44.76843" lon="6.35394">
        <ele>2742</ele>
        <time>2024-08-12T08:30:28Z</time>
      </trkpt>
      <trkpt lat="44.76843" lon="6.35394">
        <ele>2742</ele>
        <time>2024-08-12T08:30:29Z</time>
      </trkpt>
      <trkpt lat="44.76843" lon="6.35394">
        <ele>2741.8</ele>
        <time>2024-08-12T08:30:30Z</time>
      </trkpt>
      <trkpt lat="44.76843" lon="6.35394">
        <ele>2741.8</ele>
        <time>2024-08-12T08:30:31Z</time>
      </trkpt>
      <trkpt lat="44.76843" lon="6.35394">
        <ele>2741.8</ele>
        <time>2024-08-12T08:30:32Z</time>
      </trkpt>
      <trkpt lat="44.76843" lon="6.35394">
        <ele>2742</ele>
        <time>2024-08-12T08:30:33Z</time>
      </trkpt>
      <trkpt lat="44.76843" lon="6.35394">
        <ele>2742</ele>
        <time>2024-08-12T08:30:34Z</time>
      </trkpt>
      <trkpt lat="44.76843" lon="6.35394">
        <ele>2742</ele>
        <time>2024-08-12T08:30:35Z</time>
      </trkpt>
      <trkpt lat="44.76843" lon="6.35394">
        <ele>2742</ele>
        <time>2024-08-12T08:30:36Z</time>
      </trkpt>
      <trkpt lat="44.76843" lon="6.35394">
        <ele>2741.6</ele>
        <time>2024-08-12T08:30:37Z</time>
      </trkpt>
      <trkpt lat="44.76843" lon="6.35394">
        <ele>2741.6</ele>
        <time>2024-08-12T08:30:38Z</time>
      </trkpt>
      <trkpt lat="44.76843" lon="6.35394">
        <ele>2741.6</ele>
        <time>2024-08-12T08:30:39Z</time>
      </trkpt>
      <trkpt lat="44.76843" lon="6.35394">
        <ele>2741.6</ele>
        <time>2024-08-12T08:30:40Z</time>
      </trkpt>
      <trkpt lat="44.76843" lon="6.35394">
        <ele>2741.4</ele>
        <time>2024-08-12T08:30:41Z</time>
      </trkpt>
      <trkpt lat="44.76843" lon="6.35394">
        <ele>2741.4</ele>
        <time>2024-08-12T08:30:42Z</time>
      </trkpt>
      <trkpt lat="44.76843" lon="6.35394">
        <ele>2741.4</ele>
        <time>2024-08-12T08:30:43Z</time>
      </trkpt>
      <trkpt lat="44.76843" lon="6.35394">
        <ele>2741.4</ele>
        <time>2024-08-12T08:30:44Z</time>
      </trkpt>
      <trkpt lat="44.76843" lon="6.35394">
        <ele>2741.2</ele>
        <time>2024-08-12T08:30:45Z</time>
      </trkpt>
      <trkpt lat="44.76843" lon="6.35394">
        <ele>2741.2</ele>
        <time>2024-08-12T08:30:46Z</time>
      </trkpt>
      <trkpt lat="44.76843" lon="6.35394">
        <ele>2741.4</ele>
        <time>2024-08-12T08:30:47Z</time>
      </trkpt>
      <trkpt lat="44.76843" lon="6.35394">
        <ele>2741.4</ele>
        <time>2024-08-12T08:30:48Z</time>
      </trkpt>
      <trkpt lat="44.76843" lon="6.35394">
        <ele>2741.2</ele>
        <time>2024-08-12T08:30:49Z</time>
      </trkpt>
      <trkpt lat="44.76843" lon="6.35394">
        <ele>2741</ele>
        <time>2024-08-12T08:30:50Z</time>
      </trkpt>
      <trkpt lat="44.76843" lon="6.35394">
        <ele>2741</ele>
        <time>2024-08-12T08:30:51Z</time>
      </trkpt>
      <trkpt lat="44.76843" lon="6.35394">
        <ele>2741</ele>
        <time>2024-08-12T08:30:52Z</time>
      </trkpt>
      <trkpt lat="44.76843" lon="6.35394">
        <ele>2741.2</ele>
        <time>2024-08-12T08:30:53Z</time>
      </trkpt>
      <trkpt lat="44.76843" lon="6.35394">
        <ele>2741.2</ele>
        <time>2024-08-12T08:30:54Z</time>
      </trkpt>
      <trkpt lat="44.76843" lon="6.35394">
        <ele>2740.8</ele>
        <time>2024-08-12T08:30:55Z</time>
      </trkpt>
      <trkpt lat="44.76843" lon="6.35394">
        <ele>2740.8</ele>
        <time>2024-08-12T08:30:56Z</time>
      </trkpt>
      <trkpt lat="44.76843" lon="6.35394">
        <ele>2741</ele>
        <time>2024-08-12T08:30:57Z</time>
      </trkpt>
      <trkpt lat="44.76843" lon="6.35394">
        <ele>2741.2</ele>
        <time>2024-08-12T08:30:58Z</time>
      </trkpt>
      <trkpt lat="44.76843" lon="6.35394">
        <ele>2741.2</ele>
        <time>2024-08-12T08:30:59Z</time>
      </trkpt>
      <trkpt lat="44.76843" lon="6.35394">
        <ele>2741</ele>
        <time>2024-08-12T08:31:00Z</time>
      </trkpt>
      <trkpt lat="44.76843" lon="6.35394">
        <ele>2741</ele>
        <time>2024-08-12T08:31:01Z</time>
      </trkpt>
      <trkpt lat="44.76843" lon="6.35394">
        <ele>2741</ele>
        <time>2024-08-12T08:31:02Z</time>
      </trkpt>
      <trkpt lat="44.76843" lon="6.35394">
        <ele>2741</ele>
        <time>2024-08-12T08:31:03Z</time>
      </trkpt>
      <trkpt lat="44.76843" lon="6.35394">
        <ele>2741</ele>
        <time>2024-08-12T08:31:04Z</time>
      </trkpt>
      <trkpt lat="44.76843" lon="6.35394">
        <ele>2741</ele>
        <time>2024-08-12T08:31:05Z</time>
      </trkpt>
      <trkpt lat="44.76843" lon="6.35394">
        <ele>2741</ele>
        <time>2024-08-12T08:31:06Z</time>
      </trkpt>
      <trkpt lat="44.76843" lon="6.35394">
        <ele>2741</ele>
        <time>2024-08-12T08:31:07Z</time>
      </trkpt>
      <trkpt lat="44.76843" lon="6.35394">
        <ele>2740.8</ele>
        <time>2024-08-12T08:31:08Z</time>
      </trkpt>
      <trkpt lat="44.76843" lon="6.35394">
        <ele>2740.8</ele>
        <time>2024-08-12T08:31:09Z</time>
      </trkpt>
      <trkpt lat="44.76843" lon="6.35394">
        <ele>2740.8</ele>
        <time>2024-08-12T08:31:10Z</time>
      </trkpt>
      <trkpt lat="44.76843" lon="6.35394">
        <ele>2740.8</ele>
        <time>2024-08-12T08:31:11Z</time>
      </trkpt>
      <trkpt lat="44.76843" lon="6.35394">
        <ele>2740.8</ele>
        <time>2024-08-12T08:31:12Z</time>
      </trkpt>
      <trkpt lat="44.76843" lon="6.35394">
        <ele>2740.8</ele>
        <time>2024-08-12T08:31:13Z</time>
      </trkpt>
      <trkpt lat="44.76843" lon="6.35394">
        <ele>2740.8</ele>
        <time>2024-08-12T08:31:14Z</time>
      </trkpt>
      <trkpt lat="44.76843" lon="6.35394">
        <ele>2741</ele>
        <time>2024-08-12T08:31:15Z</time>
      </trkpt>
      <trkpt lat="44.76843" lon="6.35394">
        <ele>2741</ele>
        <time>2024-08-12T08:31:16Z</time>
      </trkpt>
      <trkpt lat="44.76843" lon="6.35394">
        <ele>2741</ele>
        <time>2024-08-12T08:31:17Z</time>
      </trkpt>
      <trkpt lat="44.76843" lon="6.35394">
        <ele>2740.8</ele>
        <time>2024-08-12T08:31:18Z</time>
      </trkpt>
      <trkpt lat="44.76843" lon="6.35394">
        <ele>2740.8</ele>
        <time>2024-08-12T08:31:19Z</time>
      </trkpt>
      <trkpt lat="44.76843" lon="6.35394">
        <ele>2740.8</ele>
        <time>2024-08-12T08:31:20Z</time>
      </trkpt>
      <trkpt lat="44.76843" lon="6.35394">
        <ele>2740.8</ele>
        <time>2024-08-12T08:31:21Z</time>
      </trkpt>
      <trkpt lat="44.76843" lon="6.35394">
        <ele>2740.8</ele>
        <time>2024-08-12T08:31:22Z</time>
      </trkpt>
      <trkpt lat="44.76843" lon="6.35394">
        <ele>2741</ele>
        <time>2024-08-12T08:31:23Z</time>
      </trkpt>
      <trkpt lat="44.76843" lon="6.35394">
        <ele>2741</ele>
        <time>2024-08-12T08:31:24Z</time>
      </trkpt>
      <trkpt lat="44.76843" lon="6.35394">
        <ele>2740.8</ele>
        <time>2024-08-12T08:31:25Z</time>
      </trkpt>
      <trkpt lat="44.76843" lon="6.35394">
        <ele>2740.8</ele>
        <time>2024-08-12T08:31:26Z</time>
      </trkpt>
      <trkpt lat="44.76843" lon="6.35394">
        <ele>2740.8</ele>
        <time>2024-08-12T08:31:27Z</time>
      </trkpt>
      <trkpt lat="44.76843" lon="6.35394">
        <ele>2740.8</ele>
        <time>2024-08-12T08:31:28Z</time>
      </trkpt>
      <trkpt lat="44.76843" lon="6.35394">
        <ele>2740.8</ele>
        <time>2024-08-12T08:31:29Z</time>
      </trkpt>
      <trkpt lat="44.76843" lon="6.35394">
        <ele>2740.8</ele>
        <time>2024-08-12T08:31:30Z</time>
      </trkpt>
      <trkpt lat="44.76843" lon="6.35394">
        <ele>2740.8</ele>
        <time>2024-08-12T08:31:31Z</time>
      </trkpt>
      <trkpt lat="44.76843" lon="6.35394">
        <ele>2740.6</ele>
        <time>2024-08-12T08:31:32Z</time>
      </trkpt>
      <trkpt lat="44.76843" lon="6.35394">
        <ele>2740.6</ele>
        <time>2024-08-12T08:31:33Z</time>
      </trkpt>
      <trkpt lat="44.76843" lon="6.35394">
        <ele>2740.8</ele>
        <time>2024-08-12T08:31:34Z</time>
      </trkpt>
      <trkpt lat="44.76843" lon="6.35394">
        <ele>2741</ele>
        <time>2024-08-12T08:31:35Z</time>
      </trkpt>
      <trkpt lat="44.76843" lon="6.35394">
        <ele>2741</ele>
        <time>2024-08-12T08:31:36Z</time>
      </trkpt>
      <trkpt lat="44.76843" lon="6.35394">
        <ele>2741</ele>
        <time>2024-08-12T08:31:37Z</time>
      </trkpt>
      <trkpt lat="44.76843" lon="6.35394">
        <ele>2740.8</ele>
        <time>2024-08-12T08:31:38Z</time>
      </trkpt>
      <trkpt lat="44.76843" lon="6.35394">
        <ele>2740.8</ele>
        <time>2024-08-12T08:31:39Z</time>
      </trkpt>
      <trkpt lat="44.76843" lon="6.35394">
        <ele>2740.8</ele>
        <time>2024-08-12T08:31:40Z</time>
      </trkpt>
      <trkpt lat="44.76843" lon="6.35394">
        <ele>2741</ele>
        <time>2024-08-12T08:31:41Z</time>
      </trkpt>
      <trkpt lat="44.76843" lon="6.35394">
        <ele>2741</ele>
        <time>2024-08-12T08:31:42Z</time>
      </trkpt>
      <trkpt lat="44.76843" lon="6.35394">
        <ele>2740.8</ele>
        <time>2024-08-12T08:31:43Z</time>
      </trkpt>
      <trkpt lat="44.76843" lon="6.35394">
        <ele>2740.8</ele>
        <time>2024-08-12T08:31:44Z</time>
      </trkpt>
      <trkpt lat="44.76843" lon="6.35394">
        <ele>2740.8</ele>
        <time>2024-08-12T08:31:45Z</time>
      </trkpt>
      <trkpt lat="44.76843" lon="6.35394">
        <ele>2740.8</ele>
        <time>2024-08-12T08:31:46Z</time>
      </trkpt>
      <trkpt lat="44.76843" lon="6.35394">
        <ele>2740.8</ele>
        <time>2024-08-12T08:31:47Z</time>
      </trkpt>
      <trkpt lat="44.76843" lon="6.35394">
        <ele>2740.8</ele>
        <time>2024-08-12T08:31:48Z</time>
      </trkpt>
      <trkpt lat="44.76843" lon="6.35394">
        <ele>2740.8</ele>
        <time>2024-08-12T08:31:49Z</time>
      </trkpt>
      <trkpt lat="44.76843" lon="6.35394">
        <ele>2740.8</ele>
        <time>2024-08-12T08:31:50Z</time>
      </trkpt>
      <trkpt lat="44.76843" lon="6.35394">
        <ele>2740.8</ele>
        <time>2024-08-12T08:31:51Z</time>
      </trkpt>
      <trkpt lat="44.76843" lon="6.35394">
        <ele>2740.8</ele>
        <time>2024-08-12T08:31:52Z</time>
      </trkpt>
      <trkpt lat="44.76843" lon="6.35394">
        <ele>2740.8</ele>
        <time>2024-08-12T08:31:53Z</time>
      </trkpt>
      <trkpt lat="44.76843" lon="6.35394">
        <ele>2741</ele>
        <time>2024-08-12T08:31:54Z</time>
      </trkpt>
      <trkpt lat="44.76843" lon="6.35394">
        <ele>2741</ele>
        <time>2024-08-12T08:31:55Z</time>
      </trkpt>
      <trkpt lat="44.76843" lon="6.35394">
        <ele>2740.8</ele>
        <time>2024-08-12T08:31:56Z</time>
      </trkpt>
      <trkpt lat="44.76843" lon="6.35394">
        <ele>2740.8</ele>
        <time>2024-08-12T08:31:57Z</time>
      </trkpt>
      <trkpt lat="44.76843" lon="6.35394">
        <ele>2740.6</ele>
        <time>2024-08-12T08:31:58Z</time>
      </trkpt>
      <trkpt lat="44.76843" lon="6.35394">
        <ele>2740.4</ele>
        <time>2024-08-12T08:31:59Z</time>
      </trkpt>
      <trkpt lat="44.76843" lon="6.35394">
        <ele>2740.4</ele>
        <time>2024-08-12T08:32:00Z</time>
      </trkpt>
      <trkpt lat="44.76843" lon="6.35394">
        <ele>2740.4</ele>
        <time>2024-08-12T08:32:01Z</time>
      </trkpt>
      <trkpt lat="44.76843" lon="6.35394">
        <ele>2740.6</ele>
        <time>2024-08-12T08:32:02Z</time>
      </trkpt>
      <trkpt lat="44.76843" lon="6.35394">
        <ele>2740.6</ele>
        <time>2024-08-12T08:32:03Z</time>
      </trkpt>
      <trkpt lat="44.76843" lon="6.35394">
        <ele>2740.6</ele>
        <time>2024-08-12T08:32:04Z</time>
      </trkpt>
      <trkpt lat="44.76843" lon="6.35394">
        <ele>2740.6</ele>
        <time>2024-08-12T08:32:05Z</time>
      </trkpt>
      <trkpt lat="44.76843" lon="6.35394">
        <ele>2740.6</ele>
        <time>2024-08-12T08:32:06Z</time>
      </trkpt>
      <trkpt lat="44.76843" lon="6.35394">
        <ele>2740.4</ele>
        <time>2024-08-12T08:32:07Z</time>
      </trkpt>
      <trkpt lat="44.76843" lon="6.35394">
        <ele>2740.4</ele>
        <time>2024-08-12T08:32:08Z</time>
      </trkpt>
      <trkpt lat="44.76843" lon="6.35394">
        <ele>2740.2</ele>
        <time>2024-08-12T08:32:09Z</time>
      </trkpt>
      <trkpt lat="44.76843" lon="6.35394">
        <ele>2740.4</ele>
        <time>2024-08-12T08:32:10Z</time>
      </trkpt>
      <trkpt lat="44.76843" lon="6.35394">
        <ele>2740.4</ele>
        <time>2024-08-12T08:32:11Z</time>
      </trkpt>
      <trkpt lat="44.76843" lon="6.35394">
        <ele>2740.6</ele>
        <time>2024-08-12T08:32:12Z</time>
      </trkpt>
      <trkpt lat="44.76843" lon="6.35394">
        <ele>2740.6</ele>
        <time>2024-08-12T08:32:13Z</time>
      </trkpt>
      <trkpt lat="44.76843" lon="6.35394">
        <ele>2740.4</ele>
        <time>2024-08-12T08:32:14Z</time>
      </trkpt>
      <trkpt lat="44.76843" lon="6.35394">
        <ele>2740.4</ele>
        <time>2024-08-12T08:32:15Z</time>
      </trkpt>
      <trkpt lat="44.76843" lon="6.35394">
        <ele>2740.4</ele>
        <time>2024-08-12T08:32:16Z</time>
      </trkpt>
      <trkpt lat="44.76843" lon="6.35394">
        <ele>2740.6</ele>
        <time>2024-08-12T08:32:17Z</time>
      </trkpt>
      <trkpt lat="44.76843" lon="6.35394">
        <ele>2740.6</ele>
        <time>2024-08-12T08:32:18Z</time>
      </trkpt>
      <trkpt lat="44.76843" lon="6.35394">
        <ele>2740.6</ele>
        <time>2024-08-12T08:32:19Z</time>
      </trkpt>
      <trkpt lat="44.76843" lon="6.35394">
        <ele>2740.4</ele>
        <time>2024-08-12T08:32:20Z</time>
      </trkpt>
      <trkpt lat="44.76843" lon="6.35394">
        <ele>2740.4</ele>
        <time>2024-08-12T08:32:21Z</time>
      </trkpt>
      <trkpt lat="44.76843" lon="6.35394">
        <ele>2740.4</ele>
        <time>2024-08-12T08:32:22Z</time>
      </trkpt>
      <trkpt lat="44.76843" lon="6.35394">
        <ele>2740.4</ele>
        <time>2024-08-12T08:32:23Z</time>
      </trkpt>
      <trkpt lat="44.76843" lon="6.35394">
        <ele>2740.4</ele>
        <time>2024-08-12T08:32:24Z</time>
      </trkpt>
      <trkpt lat="44.76843" lon="6.35394">
        <ele>2740.4</ele>
        <time>2024-08-12T08:32:25Z</time>
      </trkpt>
      <trkpt lat="44.76843" lon="6.35394">
        <ele>2740.4</ele>
        <time>2024-08-12T08:32:26Z</time>
      </trkpt>
      <trkpt lat="44.76843" lon="6.35394">
        <ele>2740.4</ele>
        <time>2024-08-12T08:32:27Z</time>
      </trkpt>
      <trkpt lat="44.76843" lon="6.35394">
        <ele>2740.4</ele>
        <time>2024-08-12T08:32:28Z</time>
      </trkpt>
      <trkpt lat="44.76843" lon="6.35394">
        <ele>2740.4</ele>
        <time>2024-08-12T08:32:29Z</time>
      </trkpt>
      <trkpt lat="44.76843" lon="6.35394">
        <ele>2740.4</ele>
        <time>2024-08-12T08:32:30Z</time>
      </trkpt>
      <trkpt lat="44.76843" lon="6.35394">
        <ele>2740.4</ele>
        <time>2024-08-12T08:32:31Z</time>
      </trkpt>
      <trkpt lat="44.76843" lon="6.35394">
        <ele>2740.4</ele>
        <time>2024-08-12T08:32:32Z</time>
      </trkpt>
      <trkpt lat="44.76843" lon="6.35394">
        <ele>2740.4</ele>
        <time>2024-08-12T08:32:33Z</time>
      </trkpt>
      <trkpt lat="44.76843" lon="6.35394">
        <ele>2740.2</ele>
        <time>2024-08-12T08:32:34Z</time>
      </trkpt>
      <trkpt lat="44.76843" lon="6.35394">
        <ele>2740.2</ele>
        <time>2024-08-12T08:32:35Z</time>
      </trkpt>
      <trkpt lat="44.76843" lon="6.35394">
        <ele>2740.2</ele>
        <time>2024-08-12T08:32:36Z</time>
      </trkpt>
      <trkpt lat="44.76843" lon="6.35394">
        <ele>2740.2</ele>
        <time>2024-08-12T08:32:37Z</time>
      </trkpt>
      <trkpt lat="44.76843" lon="6.35394">
        <ele>2740.2</ele>
        <time>2024-08-12T08:32:38Z</time>
      </trkpt>
      <trkpt lat="44.76843" lon="6.35394">
        <ele>2740.2</ele>
        <time>2024-08-12T08:32:39Z</time>
      </trkpt>
      <trkpt lat="44.76843" lon="6.35394">
        <ele>2740.4</ele>
        <time>2024-08-12T08:32:40Z</time>
      </trkpt>
      <trkpt lat="44.76843" lon="6.35394">
        <ele>2740.4</ele>
        <time>2024-08-12T08:32:41Z</time>
      </trkpt>
      <trkpt lat="44.76843" lon="6.35394">
        <ele>2740.2</ele>
        <time>2024-08-12T08:32:42Z</time>
      </trkpt>
      <trkpt lat="44.76843" lon="6.35394">
        <ele>2740.2</ele>
        <time>2024-08-12T08:32:43Z</time>
      </trkpt>
      <trkpt lat="44.76843" lon="6.35394">
        <ele>2740.4</ele>
        <time>2024-08-12T08:32:44Z</time>
      </trkpt>
      <trkpt lat="44.76843" lon="6.35394">
        <ele>2740.4</ele>
        <time>2024-08-12T08:32:45Z</time>
      </trkpt>
      <trkpt lat="44.76843" lon="6.35394">
        <ele>2740.2</ele>
        <time>2024-08-12T08:32:46Z</time>
      </trkpt>
      <trkpt lat="44.76843" lon="6.35394">
        <ele>2740</ele>
        <time>2024-08-12T08:32:47Z</time>
      </trkpt>
      <trkpt lat="44.76843" lon="6.35394">
        <ele>2740</ele>
        <time>2024-08-12T08:32:48Z</time>
      </trkpt>
      <trkpt lat="44.76843" lon="6.35394">
        <ele>2740</ele>
        <time>2024-08-12T08:32:49Z</time>
      </trkpt>
      <trkpt lat="44.76843" lon="6.35394">
        <ele>2740</ele>
        <time>2024-08-12T08:32:50Z</time>
      </trkpt>
      <trkpt lat="44.76843" lon="6.35394">
        <ele>2739.8</ele>
        <time>2024-08-12T08:32:51Z</time>
      </trkpt>
      <trkpt lat="44.76843" lon="6.35394">
        <ele>2739.8</ele>
        <time>2024-08-12T08:32:52Z</time>
      </trkpt>
      <trkpt lat="44.76843" lon="6.35394">
        <ele>2739.8</ele>
        <time>2024-08-12T08:32:53Z</time>
      </trkpt>
      <trkpt lat="44.76843" lon="6.35394">
        <ele>2739.8</ele>
        <time>2024-08-12T08:32:54Z</time>
      </trkpt>
      <trkpt lat="44.76843" lon="6.35394">
        <ele>2739.8</ele>
        <time>2024-08-12T08:32:55Z</time>
      </trkpt>
      <trkpt lat="44.76843" lon="6.35394">
        <ele>2739.8</ele>
        <time>2024-08-12T08:32:56Z</time>
      </trkpt>
      <trkpt lat="44.76843" lon="6.35394">
        <ele>2739.8</ele>
        <time>2024-08-12T08:32:57Z</time>
      </trkpt>
      <trkpt lat="44.76843" lon="6.35394">
        <ele>2740</ele>
        <time>2024-08-12T08:32:58Z</time>
      </trkpt>
      <trkpt lat="44.76843" lon="6.35394">
        <ele>2740</ele>
        <time>2024-08-12T08:32:59Z</time>
      </trkpt>
      <trkpt lat="44.76843" lon="6.35394">
        <ele>2740.4</ele>
        <time>2024-08-12T08:33:00Z</time>
      </trkpt>
      <trkpt lat="44.76843" lon="6.35394">
        <ele>2740.4</ele>
        <time>2024-08-12T08:33:01Z</time>
      </trkpt>
      <trkpt lat="44.76843" lon="6.35394">
        <ele>2740</ele>
        <time>2024-08-12T08:33:02Z</time>
      </trkpt>
      <trkpt lat="44.76843" lon="6.35394">
        <ele>2740</ele>
        <time>2024-08-12T08:33:03Z</time>
      </trkpt>
      <trkpt lat="44.76843" lon="6.35394">
        <ele>2739.8</ele>
        <time>2024-08-12T08:33:04Z</time>
      </trkpt>
      <trkpt lat="44.76843" lon="6.35394">
        <ele>2739.8</ele>
        <time>2024-08-12T08:33:05Z</time>
      </trkpt>
      <trkpt lat="44.76843" lon="6.35394">
        <ele>2739.8</ele>
        <time>2024-08-12T08:33:06Z</time>
      </trkpt>
      <trkpt lat="44.76843" lon="6.35394">
        <ele>2739.8</ele>
        <time>2024-08-12T08:33:07Z</time>
      </trkpt>
      <trkpt lat="44.76843" lon="6.35394">
        <ele>2740.2</ele>
        <time>2024-08-12T08:33:08Z</time>
      </trkpt>
      <trkpt lat="44.76843" lon="6.35394">
        <ele>2740.2</ele>
        <time>2024-08-12T08:33:09Z</time>
      </trkpt>
      <trkpt lat="44.76843" lon="6.35394">
        <ele>2740.2</ele>
        <time>2024-08-12T08:33:10Z</time>
      </trkpt>
      <trkpt lat="44.76843" lon="6.35394">
        <ele>2740.2</ele>
        <time>2024-08-12T08:33:11Z</time>
      </trkpt>
      <trkpt lat="44.76843" lon="6.35394">
        <ele>2740.2</ele>
        <time>2024-08-12T08:33:12Z</time>
      </trkpt>
      <trkpt lat="44.76843" lon="6.35394">
        <ele>2740.4</ele>
        <time>2024-08-12T08:33:13Z</time>
      </trkpt>
      <trkpt lat="44.76843" lon="6.35394">
        <ele>2740.4</ele>
        <time>2024-08-12T08:33:14Z</time>
      </trkpt>
      <trkpt lat="44.76843" lon="6.35394">
        <ele>2740.4</ele>
        <time>2024-08-12T08:33:15Z</time>
      </trkpt>
      <trkpt lat="44.76843" lon="6.35394">
        <ele>2740.4</ele>
        <time>2024-08-12T08:33:16Z</time>
      </trkpt>
      <trkpt lat="44.76843" lon="6.35394">
        <ele>2740.2</ele>
        <time>2024-08-12T08:33:17Z</time>
      </trkpt>
      <trkpt lat="44.76843" lon="6.35394">
        <ele>2740.2</ele>
        <time>2024-08-12T08:33:18Z</time>
      </trkpt>
      <trkpt lat="44.76843" lon="6.35394">
        <ele>2740.2</ele>
        <time>2024-08-12T08:33:19Z</time>
      </trkpt>
      <trkpt lat="44.76843" lon="6.35394">
        <ele>2740.2</ele>
        <time>2024-08-12T08:33:20Z</time>
      </trkpt>
      <trkpt lat="44.76843" lon="6.35394">
        <ele>2740.2</ele>
        <time>2024-08-12T08:33:21Z</time>
      </trkpt>
      <trkpt lat="44.76843" lon="6.35394">
        <ele>2740</ele>
        <time>2024-08-12T08:33:22Z</time>
      </trkpt>
      <trkpt lat="44.76843" lon="6.35394">
        <ele>2740.2</ele>
        <time>2024-08-12T08:33:23Z</time>
      </trkpt>
      <trkpt lat="44.76843" lon="6.35394">
        <ele>2740.2</ele>
        <time>2024-08-12T08:33:24Z</time>
      </trkpt>
      <trkpt lat="44.76843" lon="6.35394">
        <ele>2740.2</ele>
        <time>2024-08-12T08:33:25Z</time>
      </trkpt>
      <trkpt lat="44.76843" lon="6.35394">
        <ele>2740.2</ele>
        <time>2024-08-12T08:33:26Z</time>
      </trkpt>
      <trkpt lat="44.76843" lon="6.35394">
        <ele>2740.2</ele>
        <time>2024-08-12T08:33:27Z</time>
      </trkpt>
      <trkpt lat="44.76843" lon="6.35394">
        <ele>2740.2</ele>
        <time>2024-08-12T08:33:28Z</time>
      </trkpt>
      <trkpt lat="44.76843" lon="6.35394">
        <ele>2740</ele>
        <time>2024-08-12T08:33:29Z</time>
      </trkpt>
      <trkpt lat="44.76843" lon="6.35394">
        <ele>2740</ele>
        <time>2024-08-12T08:33:30Z</time>
      </trkpt>
      <trkpt lat="44.76843" lon="6.35394">
        <ele>2740</ele>
        <time>2024-08-12T08:33:31Z</time>
      </trkpt>
      <trkpt lat="44.76843" lon="6.35394">
        <ele>2740</ele>
        <time>2024-08-12T08:33:32Z</time>
      </trkpt>
      <trkpt lat="44.76843" lon="6.35394">
        <ele>2740</ele>
        <time>2024-08-12T08:33:33Z</time>
      </trkpt>
      <trkpt lat="44.76843" lon="6.35394">
        <ele>2739.8</ele>
        <time>2024-08-12T08:33:34Z</time>
      </trkpt>
      <trkpt lat="44.76843" lon="6.35394">
        <ele>2739.8</ele>
        <time>2024-08-12T08:33:35Z</time>
      </trkpt>
      <trkpt lat="44.76843" lon="6.35394">
        <ele>2739.8</ele>
        <time>2024-08-12T08:33:36Z</time>
      </trkpt>
      <trkpt lat="44.76843" lon="6.35394">
        <ele>2740</ele>
        <time>2024-08-12T08:33:37Z</time>
      </trkpt>
      <trkpt lat="44.76843" lon="6.35394">
        <ele>2740</ele>
        <time>2024-08-12T08:33:38Z</time>
      </trkpt>
      <trkpt lat="44.76843" lon="6.35394">
        <ele>2740</ele>
        <time>2024-08-12T08:33:39Z</time>
      </trkpt>
      <trkpt lat="44.76843" lon="6.35394">
        <ele>2740</ele>
        <time>2024-08-12T08:33:40Z</time>
      </trkpt>
      <trkpt lat="44.76843" lon="6.35394">
        <ele>2740</ele>
        <time>2024-08-12T08:33:41Z</time>
      </trkpt>
      <trkpt lat="44.76843" lon="6.35394">
        <ele>2740</ele>
        <time>2024-08-12T08:33:42Z</time>
      </trkpt>
      <trkpt lat="44.76843" lon="6.35394">
        <ele>2740</ele>
        <time>2024-08-12T08:33:43Z</time>
      </trkpt>
      <trkpt lat="44.76843" lon="6.35394">
        <ele>2740</ele>
        <time>2024-08-12T08:33:44Z</time>
      </trkpt>
      <trkpt lat="44.76843" lon="6.35394">
        <ele>2740.2</ele>
        <time>2024-08-12T08:33:45Z</time>
      </trkpt>
      <trkpt lat="44.76843" lon="6.35394">
        <ele>2740.2</ele>
        <time>2024-08-12T08:33:46Z</time>
      </trkpt>
      <trkpt lat="44.76843" lon="6.35394">
        <ele>2740.2</ele>
        <time>2024-08-12T08:33:47Z</time>
      </trkpt>
      <trkpt lat="44.76843" lon="6.35394">
        <ele>2740.2</ele>
        <time>2024-08-12T08:33:48Z</time>
      </trkpt>
      <trkpt lat="44.76843" lon="6.35394">
        <ele>2740</ele>
        <time>2024-08-12T08:33:49Z</time>
      </trkpt>
      <trkpt lat="44.76843" lon="6.35394">
        <ele>2740</ele>
        <time>2024-08-12T08:33:50Z</time>
      </trkpt>
      <trkpt lat="44.76843" lon="6.35394">
        <ele>2740</ele>
        <time>2024-08-12T08:33:51Z</time>
      </trkpt>
      <trkpt lat="44.76843" lon="6.35394">
        <ele>2740.6</ele>
        <time>2024-08-12T08:33:52Z</time>
      </trkpt>
      <trkpt lat="44.76843" lon="6.35394">
        <ele>2740.6</ele>
        <time>2024-08-12T08:33:53Z</time>
      </trkpt>
      <trkpt lat="44.76843" lon="6.35394">
        <ele>2740.6</ele>
        <time>2024-08-12T08:33:54Z</time>
      </trkpt>
      <trkpt lat="44.76843" lon="6.35394">
        <ele>2740.4</ele>
        <time>2024-08-12T08:33:55Z</time>
      </trkpt>
      <trkpt lat="44.76843" lon="6.35394">
        <ele>2740.6</ele>
        <time>2024-08-12T08:33:56Z</time>
      </trkpt>
      <trkpt lat="44.76843" lon="6.35394">
        <ele>2740.6</ele>
        <time>2024-08-12T08:33:57Z</time>
      </trkpt>
      <trkpt lat="44.76843" lon="6.35394">
        <ele>2740.6</ele>
        <time>2024-08-12T08:33:58Z</time>
      </trkpt>
      <trkpt lat="44.76843" lon="6.35394">
        <ele>2740.6</ele>
        <time>2024-08-12T08:33:59Z</time>
      </trkpt>
      <trkpt lat="44.76843" lon="6.35394">
        <ele>2740.6</ele>
        <time>2024-08-12T08:34:00Z</time>
      </trkpt>
      <trkpt lat="44.76843" lon="6.35394">
        <ele>2740.6</ele>
        <time>2024-08-12T08:34:01Z</time>
      </trkpt>
      <trkpt lat="44.76843" lon="6.35394">
        <ele>2740.6</ele>
        <time>2024-08-12T08:34:02Z</time>
      </trkpt>
      <trkpt lat="44.76843" lon="6.35394">
        <ele>2740.6</ele>
        <time>2024-08-12T08:34:03Z</time>
      </trkpt>
      <trkpt lat="44.76843" lon="6.35394">
        <ele>2740.6</ele>
        <time>2024-08-12T08:34:04Z</time>
      </trkpt>
      <trkpt lat="44.76843" lon="6.35394">
        <ele>2740.4</ele>
        <time>2024-08-12T08:34:05Z</time>
      </trkpt>
      <trkpt lat="44.76843" lon="6.35394">
        <ele>2740.4</ele>
        <time>2024-08-12T08:34:06Z</time>
      </trkpt>
      <trkpt lat="44.76843" lon="6.35394">
        <ele>2740.4</ele>
        <time>2024-08-12T08:34:07Z</time>
      </trkpt>
      <trkpt lat="44.76843" lon="6.35394">
        <ele>2740.2</ele>
        <time>2024-08-12T08:34:08Z</time>
      </trkpt>
      <trkpt lat="44.76843" lon="6.35394">
        <ele>2740.2</ele>
        <time>2024-08-12T08:34:09Z</time>
      </trkpt>
      <trkpt lat="44.76843" lon="6.35394">
        <ele>2740.2</ele>
        <time>2024-08-12T08:34:10Z</time>
      </trkpt>
      <trkpt lat="44.76843" lon="6.35394">
        <ele>2740.2</ele>
        <time>2024-08-12T08:34:11Z</time>
      </trkpt>
      <trkpt lat="44.76843" lon="6.35394">
        <ele>2740.2</ele>
        <time>2024-08-12T08:34:12Z</time>
      </trkpt>
      <trkpt lat="44.76843" lon="6.35394">
        <ele>2740.2</ele>
        <time>2024-08-12T08:34:13Z</time>
      </trkpt>
      <trkpt lat="44.76843" lon="6.35394">
        <ele>2740</ele>
        <time>2024-08-12T08:34:14Z</time>
      </trkpt>
      <trkpt lat="44.76843" lon="6.35394">
        <ele>2740</ele>
        <time>2024-08-12T08:34:15Z</time>
      </trkpt>
      <trkpt lat="44.76843" lon="6.35394">
        <ele>2740</ele>
        <time>2024-08-12T08:34:16Z</time>
      </trkpt>
      <trkpt lat="44.76843" lon="6.35394">
        <ele>2740</ele>
        <time>2024-08-12T08:34:17Z</time>
      </trkpt>
      <trkpt lat="44.76843" lon="6.35394">
        <ele>2740.2</ele>
        <time>2024-08-12T08:34:18Z</time>
      </trkpt>
      <trkpt lat="44.76843" lon="6.35394">
        <ele>2740.2</ele>
        <time>2024-08-12T08:34:19Z</time>
      </trkpt>
      <trkpt lat="44.76843" lon="6.35394">
        <ele>2740</ele>
        <time>2024-08-12T08:34:20Z</time>
      </trkpt>
      <trkpt lat="44.76843" lon="6.35394">
        <ele>2740</ele>
        <time>2024-08-12T08:34:21Z</time>
      </trkpt>
      <trkpt lat="44.76843" lon="6.35394">
        <ele>2740.6</ele>
        <time>2024-08-12T08:34:22Z</time>
      </trkpt>
      <trkpt lat="44.76843" lon="6.35394">
        <ele>2741</ele>
        <time>2024-08-12T08:34:23Z</time>
      </trkpt>
      <trkpt lat="44.76843" lon="6.35394">
        <ele>2741</ele>
        <time>2024-08-12T08:34:24Z</time>
      </trkpt>
      <trkpt lat="44.76843" lon="6.35394">
        <ele>2741</ele>
        <time>2024-08-12T08:34:25Z</time>
      </trkpt>
      <trkpt lat="44.76843" lon="6.35394">
        <ele>2741</ele>
        <time>2024-08-12T08:34:26Z</time>
      </trkpt>
      <trkpt lat="44.76843" lon="6.35394">
        <ele>2741</ele>
        <time>2024-08-12T08:34:27Z</time>
      </trkpt>
      <trkpt lat="44.76843" lon="6.35394">
        <ele>2741</ele>
        <time>2024-08-12T08:34:28Z</time>
      </trkpt>
      <trkpt lat="44.76843" lon="6.35394">
        <ele>2741</ele>
        <time>2024-08-12T08:34:29Z</time>
      </trkpt>
      <trkpt lat="44.76843" lon="6.35394">
        <ele>2741</ele>
        <time>2024-08-12T08:34:30Z</time>
      </trkpt>
      <trkpt lat="44.76843" lon="6.35394">
        <ele>2741</ele>
        <time>2024-08-12T08:34:31Z</time>
      </trkpt>
      <trkpt lat="44.76843" lon="6.35394">
        <ele>2741</ele>
        <time>2024-08-12T08:34:32Z</time>
      </trkpt>
      <trkpt lat="44.76843" lon="6.35394">
        <ele>2741</ele>
        <time>2024-08-12T08:34:33Z</time>
      </trkpt>
      <trkpt lat="44.76843" lon="6.35394">
        <ele>2741</ele>
        <time>2024-08-12T08:34:34Z</time>
      </trkpt>
      <trkpt lat="44.76843" lon="6.35394">
        <ele>2740.8</ele>
        <time>2024-08-12T08:34:35Z</time>
      </trkpt>
      <trkpt lat="44.76843" lon="6.35394">
        <ele>2740.8</ele>
        <time>2024-08-12T08:34:36Z</time>
      </trkpt>
      <trkpt lat="44.76843" lon="6.35394">
        <ele>2741</ele>
        <time>2024-08-12T08:34:37Z</time>
      </trkpt>
      <trkpt lat="44.76843" lon="6.35394">
        <ele>2741</ele>
        <time>2024-08-12T08:34:38Z</time>
      </trkpt>
      <trkpt lat="44.76843" lon="6.35394">
        <ele>2741</ele>
        <time>2024-08-12T08:34:39Z</time>
      </trkpt>
      <trkpt lat="44.76843" lon="6.35394">
        <ele>2741.2</ele>
        <time>2024-08-12T08:34:40Z</time>
      </trkpt>
      <trkpt lat="44.76843" lon="6.35394">
        <ele>2741.2</ele>
        <time>2024-08-12T08:34:41Z</time>
      </trkpt>
      <trkpt lat="44.76843" lon="6.35394">
        <ele>2741.2</ele>
        <time>2024-08-12T08:34:42Z</time>
      </trkpt>
      <trkpt lat="44.76843" lon="6.35394">
        <ele>2741.2</ele>
        <time>2024-08-12T08:34:43Z</time>
      </trkpt>
      <trkpt lat="44.76843" lon="6.35394">
        <ele>2741</ele>
        <time>2024-08-12T08:34:44Z</time>
      </trkpt>
      <trkpt lat="44.76843" lon="6.35394">
        <ele>2741</ele>
        <time>2024-08-12T08:34:45Z</time>
      </trkpt>
      <trkpt lat="44.76843" lon="6.35394">
        <ele>2740.8</ele>
        <time>2024-08-12T08:34:46Z</time>
      </trkpt>
      <trkpt lat="44.76843" lon="6.35394">
        <ele>2740.8</ele>
        <time>2024-08-12T08:34:47Z</time>
      </trkpt>
      <trkpt lat="44.76843" lon="6.35394">
        <ele>2740.6</ele>
        <time>2024-08-12T08:34:48Z</time>
      </trkpt>
      <trkpt lat="44.76843" lon="6.35394">
        <ele>2740.6</ele>
        <time>2024-08-12T08:34:49Z</time>
      </trkpt>
      <trkpt lat="44.76843" lon="6.35394">
        <ele>2740.6</ele>
        <time>2024-08-12T08:34:50Z</time>
      </trkpt>
      <trkpt lat="44.76843" lon="6.35394">
        <ele>2740.8</ele>
        <time>2024-08-12T08:34:51Z</time>
      </trkpt>
      <trkpt lat="44.76843" lon="6.35394">
        <ele>2740.8</ele>
        <time>2024-08-12T08:34:52Z</time>
      </trkpt>
      <trkpt lat="44.76843" lon="6.35394">
        <ele>2740.8</ele>
        <time>2024-08-12T08:34:53Z</time>
      </trkpt>
      <trkpt lat="44.76843" lon="6.35394">
        <ele>2741.2</ele>
        <time>2024-08-12T08:34:54Z</time>
      </trkpt>
      <trkpt lat="44.76843" lon="6.35394">
        <ele>2741.2</ele>
        <time>2024-08-12T08:34:55Z</time>
      </trkpt>
      <trkpt lat="44.76843" lon="6.35394">
        <ele>2741.2</ele>
        <time>2024-08-12T08:34:56Z</time>
      </trkpt>
      <trkpt lat="44.76843" lon="6.35394">
        <ele>2741</ele>
        <time>2024-08-12T08:34:57Z</time>
      </trkpt>
      <trkpt lat="44.76843" lon="6.35394">
        <ele>2740.8</ele>
        <time>2024-08-12T08:34:58Z</time>
      </trkpt>
      <trkpt lat="44.76843" lon="6.35394">
        <ele>2740.6</ele>
        <time>2024-08-12T08:34:59Z</time>
      </trkpt>
      <trkpt lat="44.76843" lon="6.35394">
        <ele>2740.6</ele>
        <time>2024-08-12T08:35:00Z</time>
      </trkpt>
      <trkpt lat="44.76843" lon="6.35394">
        <ele>2740</ele>
        <time>2024-08-12T08:35:01Z</time>
      </trkpt>
      <trkpt lat="44.76843" lon="6.35394">
        <ele>2739.8</ele>
        <time>2024-08-12T08:35:02Z</time>
      </trkpt>
      <trkpt lat="44.76843" lon="6.35394">
        <ele>2739.8</ele>
        <time>2024-08-12T08:35:03Z</time>
      </trkpt>
      <trkpt lat="44.76843" lon="6.35394">
        <ele>2740.2</ele>
        <time>2024-08-12T08:35:04Z</time>
      </trkpt>
      <trkpt lat="44.76843" lon="6.35394">
        <ele>2740.2</ele>
        <time>2024-08-12T08:35:05Z</time>
      </trkpt>
      <trkpt lat="44.76843" lon="6.35394">
        <ele>2740.2</ele>
        <time>2024-08-12T08:35:06Z</time>
      </trkpt>
      <trkpt lat="44.76843" lon="6.35394">
        <ele>2740</ele>
        <time>2024-08-12T08:35:07Z</time>
      </trkpt>
      <trkpt lat="44.76843" lon="6.35394">
        <ele>2740</ele>
        <time>2024-08-12T08:35:08Z</time>
      </trkpt>
      <trkpt lat="44.76843" lon="6.35394">
        <ele>2740.2</ele>
        <time>2024-08-12T08:35:09Z</time>
      </trkpt>
      <trkpt lat="44.76843" lon="6.35394">
        <ele>2740.4</ele>
        <time>2024-08-12T08:35:10Z</time>
      </trkpt>
      <trkpt lat="44.76843" lon="6.35394">
        <ele>2740.4</ele>
        <time>2024-08-12T08:35:11Z</time>
      </trkpt>
      <trkpt lat="44.76843" lon="6.35394">
        <ele>2740.4</ele>
        <time>2024-08-12T08:35:12Z</time>
      </trkpt>
      <trkpt lat="44.76843" lon="6.35394">
        <ele>2740.4</ele>
        <time>2024-08-12T08:35:13Z</time>
      </trkpt>
      <trkpt lat="44.76843" lon="6.35394">
        <ele>2740.4</ele>
        <time>2024-08-12T08:35:14Z</time>
      </trkpt>
      <trkpt lat="44.76843" lon="6.35394">
        <ele>2740.4</ele>
        <time>2024-08-12T08:35:15Z</time>
      </trkpt>
      <trkpt lat="44.76843" lon="6.35394">
        <ele>2740.4</ele>
        <time>2024-08-12T08:35:16Z</time>
      </trkpt>
      <trkpt lat="44.76843" lon="6.35394">
        <ele>2740.4</ele>
        <time>2024-08-12T08:35:17Z</time>
      </trkpt>
      <trkpt lat="44.76843" lon="6.35394">
        <ele>2740.6</ele>
        <time>2024-08-12T08:35:18Z</time>
      </trkpt>
      <trkpt lat="44.76843" lon="6.35394">
        <ele>2740.8</ele>
        <time>2024-08-12T08:35:19Z</time>
      </trkpt>
      <trkpt lat="44.76843" lon="6.35394">
        <ele>2740.8</ele>
        <time>2024-08-12T08:35:20Z</time>
      </trkpt>
      <trkpt lat="44.76843" lon="6.35394">
        <ele>2740.8</ele>
        <time>2024-08-12T08:35:21Z</time>
      </trkpt>
      <trkpt lat="44.76843" lon="6.35394">
        <ele>2740.8</ele>
        <time>2024-08-12T08:35:22Z</time>
      </trkpt>
      <trkpt lat="44.76843" lon="6.35394">
        <ele>2740.6</ele>
        <time>2024-08-12T08:35:23Z</time>
      </trkpt>
      <trkpt lat="44.76843" lon="6.35394">
        <ele>2740.6</ele>
        <time>2024-08-12T08:35:24Z</time>
      </trkpt>
      <trkpt lat="44.76843" lon="6.35394">
        <ele>2740.8</ele>
        <time>2024-08-12T08:35:25Z</time>
      </trkpt>
      <trkpt lat="44.76843" lon="6.35394">
        <ele>2740.8</ele>
        <time>2024-08-12T08:35:26Z</time>
      </trkpt>
      <trkpt lat="44.76843" lon="6.35394">
        <ele>2740.8</ele>
        <time>2024-08-12T08:35:27Z</time>
      </trkpt>
      <trkpt lat="44.76843" lon="6.35394">
        <ele>2740.4</ele>
        <time>2024-08-12T08:35:28Z</time>
      </trkpt>
      <trkpt lat="44.76843" lon="6.35394">
        <ele>2740.4</ele>
        <time>2024-08-12T08:35:29Z</time>
      </trkpt>
      <trkpt lat="44.76843" lon="6.35394">
        <ele>2740.4</ele>
        <time>2024-08-12T08:35:30Z</time>
      </trkpt>
      <trkpt lat="44.76843" lon="6.35394">
        <ele>2740.4</ele>
        <time>2024-08-12T08:35:31Z</time>
      </trkpt>
      <trkpt lat="44.76843" lon="6.35394">
        <ele>2740.4</ele>
        <time>2024-08-12T08:35:32Z</time>
      </trkpt>
      <trkpt lat="44.76843" lon="6.35394">
        <ele>2740.4</ele>
        <time>2024-08-12T08:35:33Z</time>
      </trkpt>
      <trkpt lat="44.76843" lon="6.35394">
        <ele>2740.2</ele>
        <time>2024-08-12T08:35:34Z</time>
      </trkpt>
      <trkpt lat="44.76843" lon="6.35394">
        <ele>2740.2</ele>
        <time>2024-08-12T08:35:35Z</time>
      </trkpt>
      <trkpt lat="44.76843" lon="6.35394">
        <ele>2740.2</ele>
        <time>2024-08-12T08:35:36Z</time>
      </trkpt>
      <trkpt lat="44.76843" lon="6.35394">
        <ele>2740</ele>
        <time>2024-08-12T08:35:37Z</time>
      </trkpt>
      <trkpt lat="44.76843" lon="6.35394">
        <ele>2740</ele>
        <time>2024-08-12T08:35:38Z</time>
      </trkpt>
      <trkpt lat="44.76843" lon="6.35394">
        <ele>2740</ele>
        <time>2024-08-12T08:35:39Z</time>
      </trkpt>
      <trkpt lat="44.76843" lon="6.35394">
        <ele>2740.2</ele>
        <time>2024-08-12T08:35:40Z</time>
      </trkpt>
      <trkpt lat="44.76843" lon="6.35394">
        <ele>2740.2</ele>
        <time>2024-08-12T08:35:41Z</time>
      </trkpt>
      <trkpt lat="44.76843" lon="6.35394">
        <ele>2740</ele>
        <time>2024-08-12T08:35:42Z</time>
      </trkpt>
      <trkpt lat="44.76843" lon="6.35394">
        <ele>2740</ele>
        <time>2024-08-12T08:35:43Z</time>
      </trkpt>
      <trkpt lat="44.76843" lon="6.35394">
        <ele>2740</ele>
        <time>2024-08-12T08:35:44Z</time>
      </trkpt>
      <trkpt lat="44.76843" lon="6.35394">
        <ele>2740</ele>
        <time>2024-08-12T08:35:45Z</time>
      </trkpt>
      <trkpt lat="44.76843" lon="6.35394">
        <ele>2740</ele>
        <time>2024-08-12T08:35:46Z</time>
      </trkpt>
      <trkpt lat="44.76843" lon="6.35394">
        <ele>2740</ele>
        <time>2024-08-12T08:35:47Z</time>
      </trkpt>
      <trkpt lat="44.76843" lon="6.35394">
        <ele>2739.8</ele>
        <time>2024-08-12T08:35:48Z</time>
      </trkpt>
      <trkpt lat="44.76843" lon="6.35394">
        <ele>2739.8</ele>
        <time>2024-08-12T08:35:49Z</time>
      </trkpt>
      <trkpt lat="44.76843" lon="6.35394">
        <ele>2739.8</ele>
        <time>2024-08-12T08:35:50Z</time>
      </trkpt>
      <trkpt lat="44.76843" lon="6.35394">
        <ele>2739.8</ele>
        <time>2024-08-12T08:35:51Z</time>
      </trkpt>
      <trkpt lat="44.76843" lon="6.35394">
        <ele>2739.8</ele>
        <time>2024-08-12T08:35:52Z</time>
      </trkpt>
      <trkpt lat="44.76843" lon="6.35394">
        <ele>2740</ele>
        <time>2024-08-12T08:35:53Z</time>
      </trkpt>
      <trkpt lat="44.76843" lon="6.35394">
        <ele>2740</ele>
        <time>2024-08-12T08:35:54Z</time>
      </trkpt>
      <trkpt lat="44.76843" lon="6.35394">
        <ele>2740</ele>
        <time>2024-08-12T08:35:55Z</time>
      </trkpt>
      <trkpt lat="44.76843" lon="6.35394">
        <ele>2740</ele>
        <time>2024-08-12T08:35:56Z</time>
      </trkpt>
      <trkpt lat="44.76843" lon="6.35394">
        <ele>2740</ele>
        <time>2024-08-12T08:35:57Z</time>
      </trkpt>
      <trkpt lat="44.76843" lon="6.35394">
        <ele>2740</ele>
        <time>2024-08-12T08:35:58Z</time>
      </trkpt>
      <trkpt lat="44.76843" lon="6.35394">
        <ele>2740</ele>
        <time>2024-08-12T08:35:59Z</time>
      </trkpt>
      <trkpt lat="44.76843" lon="6.35394">
        <ele>2740</ele>
        <time>2024-08-12T08:36:00Z</time>
      </trkpt>
      <trkpt lat="44.76843" lon="6.35394">
        <ele>2740</ele>
        <time>2024-08-12T08:36:01Z</time>
      </trkpt>
      <trkpt lat="44.76843" lon="6.35394">
        <ele>2739.8</ele>
        <time>2024-08-12T08:36:02Z</time>
      </trkpt>
      <trkpt lat="44.76843" lon="6.35394">
        <ele>2739.8</ele>
        <time>2024-08-12T08:36:03Z</time>
      </trkpt>
      <trkpt lat="44.76843" lon="6.35394">
        <ele>2739.8</ele>
        <time>2024-08-12T08:36:04Z</time>
      </trkpt>
      <trkpt lat="44.76843" lon="6.35394">
        <ele>2740</ele>
        <time>2024-08-12T08:36:05Z</time>
      </trkpt>
      <trkpt lat="44.76843" lon="6.35394">
        <ele>2740</ele>
        <time>2024-08-12T08:36:06Z</time>
      </trkpt>
      <trkpt lat="44.76843" lon="6.35394">
        <ele>2739.8</ele>
        <time>2024-08-12T08:36:07Z</time>
      </trkpt>
      <trkpt lat="44.76843" lon="6.35394">
        <ele>2739.8</ele>
        <time>2024-08-12T08:36:08Z</time>
      </trkpt>
      <trkpt lat="44.76843" lon="6.35394">
        <ele>2739.8</ele>
        <time>2024-08-12T08:36:09Z</time>
      </trkpt>
      <trkpt lat="44.76843" lon="6.35394">
        <ele>2740</ele>
        <time>2024-08-12T08:36:10Z</time>
      </trkpt>
      <trkpt lat="44.76843" lon="6.35394">
        <ele>2740</ele>
        <time>2024-08-12T08:36:11Z</time>
      </trkpt>
      <trkpt lat="44.76843" lon="6.35394">
        <ele>2740</ele>
        <time>2024-08-12T08:36:12Z</time>
      </trkpt>
      <trkpt lat="44.76843" lon="6.35394">
        <ele>2740</ele>
        <time>2024-08-12T08:36:13Z</time>
      </trkpt>
      <trkpt lat="44.76843" lon="6.35394">
        <ele>2740</ele>
        <time>2024-08-12T08:36:14Z</time>
      </trkpt>
      <trkpt lat="44.76843" lon="6.35394">
        <ele>2740.2</ele>
        <time>2024-08-12T08:36:15Z</time>
      </trkpt>
      <trkpt lat="44.76843" lon="6.35394">
        <ele>2740.2</ele>
        <time>2024-08-12T08:36:16Z</time>
      </trkpt>
      <trkpt lat="44.76843" lon="6.35394">
        <ele>2740.4</ele>
        <time>2024-08-12T08:36:17Z</time>
      </trkpt>
      <trkpt lat="44.76843" lon="6.35394">
        <ele>2740.4</ele>
        <time>2024-08-12T08:36:18Z</time>
      </trkpt>
      <trkpt lat="44.76843" lon="6.35394">
        <ele>2740.4</ele>
        <time>2024-08-12T08:36:19Z</time>
      </trkpt>
      <trkpt lat="44.76843" lon="6.35394">
        <ele>2740.8</ele>
        <time>2024-08-12T08:36:20Z</time>
      </trkpt>
      <trkpt lat="44.76843" lon="6.35394">
        <ele>2741</ele>
        <time>2024-08-12T08:36:21Z</time>
      </trkpt>
      <trkpt lat="44.76843" lon="6.35394">
        <ele>2741.2</ele>
        <time>2024-08-12T08:36:22Z</time>
      </trkpt>
      <trkpt lat="44.76843" lon="6.35394">
        <ele>2741.2</ele>
        <time>2024-08-12T08:36:23Z</time>
      </trkpt>
      <trkpt lat="44.76843" lon="6.35394">
        <ele>2741</ele>
        <time>2024-08-12T08:36:24Z</time>
      </trkpt>
      <trkpt lat="44.76843" lon="6.35394">
        <ele>2741</ele>
        <time>2024-08-12T08:36:25Z</time>
      </trkpt>
      <trkpt lat="44.76843" lon="6.35394">
        <ele>2741</ele>
        <time>2024-08-12T08:36:26Z</time>
      </trkpt>
      <trkpt lat="44.76845" lon="6.35392">
        <ele>2741</ele>
        <time>2024-08-12T08:36:27Z</time>
      </trkpt>
      <trkpt lat="44.76845" lon="6.35392">
        <ele>2741</ele>
        <time>2024-08-12T08:36:28Z</time>
      </trkpt>
      <trkpt lat="44.76845" lon="6.35392">
        <ele>2741</ele>
        <time>2024-08-12T08:36:29Z</time>
      </trkpt>
      <trkpt lat="44.76845" lon="6.35392">
        <ele>2741</ele>
        <time>2024-08-12T08:36:30Z</time>
      </trkpt>
      <trkpt lat="44.76845" lon="6.35392">
        <ele>2741.2</ele>
        <time>2024-08-12T08:36:31Z</time>
      </trkpt>
      <trkpt lat="44.76845" lon="6.35392">
        <ele>2741.2</ele>
        <time>2024-08-12T08:36:32Z</time>
      </trkpt>
      <trkpt lat="44.76845" lon="6.35392">
        <ele>2741.2</ele>
        <time>2024-08-12T08:36:33Z</time>
      </trkpt>
      <trkpt lat="44.76845" lon="6.35392">
        <ele>2741.2</ele>
        <time>2024-08-12T08:36:34Z</time>
      </trkpt>
      <trkpt lat="44.76845" lon="6.35392">
        <ele>2741.2</ele>
        <time>2024-08-12T08:36:35Z</time>
      </trkpt>
      <trkpt lat="44.76845" lon="6.35392">
        <ele>2741.2</ele>
        <time>2024-08-12T08:36:36Z</time>
      </trkpt>
      <trkpt lat="44.76845" lon="6.35389">
        <ele>2741.2</ele>
        <time>2024-08-12T08:36:37Z</time>
      </trkpt>
      <trkpt lat="44.76845" lon="6.35389">
        <ele>2741.2</ele>
        <time>2024-08-12T08:36:38Z</time>
      </trkpt>
      <trkpt lat="44.76846" lon="6.35387">
        <ele>2741.4</ele>
        <time>2024-08-12T08:36:39Z</time>
      </trkpt>
      <trkpt lat="44.76846" lon="6.35387">
        <ele>2741.4</ele>
        <time>2024-08-12T08:36:40Z</time>
      </trkpt>
      <trkpt lat="44.76846" lon="6.35387">
        <ele>2741.2</ele>
        <time>2024-08-12T08:36:41Z</time>
      </trkpt>
      <trkpt lat="44.76846" lon="6.35383">
        <ele>2741</ele>
        <time>2024-08-12T08:36:42Z</time>
      </trkpt>
      <trkpt lat="44.76846" lon="6.35383">
        <ele>2740.4</ele>
        <time>2024-08-12T08:36:43Z</time>
      </trkpt>
      <trkpt lat="44.76846" lon="6.35383">
        <ele>2740</ele>
        <time>2024-08-12T08:36:44Z</time>
      </trkpt>
      <trkpt lat="44.76846" lon="6.3538">
        <ele>2739.8</ele>
        <time>2024-08-12T08:36:45Z</time>
      </trkpt>
      <trkpt lat="44.76846" lon="6.3538">
        <ele>2739.6</ele>
        <time>2024-08-12T08:36:46Z</time>
      </trkpt>
      <trkpt lat="44.76846" lon="6.3538">
        <ele>2739.4</ele>
        <time>2024-08-12T08:36:47Z</time>
      </trkpt>
      <trkpt lat="44.76846" lon="6.3538">
        <ele>2739.4</ele>
        <time>2024-08-12T08:36:48Z</time>
      </trkpt>
      <trkpt lat="44.76846" lon="6.3538">
        <ele>2739.4</ele>
        <time>2024-08-12T08:36:49Z</time>
      </trkpt>
      <trkpt lat="44.76846" lon="6.3538">
        <ele>2739.6</ele>
        <time>2024-08-12T08:36:50Z</time>
      </trkpt>
      <trkpt lat="44.76846" lon="6.3538">
        <ele>2739.6</ele>
        <time>2024-08-12T08:36:51Z</time>
      </trkpt>
      <trkpt lat="44.76846" lon="6.3538">
        <ele>2739.6</ele>
        <time>2024-08-12T08:36:52Z</time>
      </trkpt>
      <trkpt lat="44.76846" lon="6.3538">
        <ele>2739.6</ele>
        <time>2024-08-12T08:36:53Z</time>
      </trkpt>
      <trkpt lat="44.76846" lon="6.3538">
        <ele>2739.6</ele>
        <time>2024-08-12T08:36:54Z</time>
      </trkpt>
      <trkpt lat="44.76846" lon="6.3538">
        <ele>2739.8</ele>
        <time>2024-08-12T08:36:55Z</time>
      </trkpt>
      <trkpt lat="44.76846" lon="6.3538">
        <ele>2739.8</ele>
        <time>2024-08-12T08:36:56Z</time>
      </trkpt>
      <trkpt lat="44.76846" lon="6.35378">
        <ele>2739.8</ele>
        <time>2024-08-12T08:36:57Z</time>
      </trkpt>
      <trkpt lat="44.76846" lon="6.35378">
        <ele>2739.6</ele>
        <time>2024-08-12T08:36:58Z</time>
      </trkpt>
      <trkpt lat="44.76846" lon="6.35378">
        <ele>2739.4</ele>
        <time>2024-08-12T08:36:59Z</time>
      </trkpt>
      <trkpt lat="44.76846" lon="6.35373">
        <ele>2738.8</ele>
        <time>2024-08-12T08:37:00Z</time>
      </trkpt>
      <trkpt lat="44.76846" lon="6.35373">
        <ele>2738.4</ele>
        <time>2024-08-12T08:37:01Z</time>
      </trkpt>
      <trkpt lat="44.76846" lon="6.35369">
        <ele>2738</ele>
        <time>2024-08-12T08:37:02Z</time>
      </trkpt>
      <trkpt lat="44.76846" lon="6.35369">
        <ele>2738</ele>
        <time>2024-08-12T08:37:03Z</time>
      </trkpt>
      <trkpt lat="44.76846" lon="6.35366">
        <ele>2737.8</ele>
        <time>2024-08-12T08:37:04Z</time>
      </trkpt>
      <trkpt lat="44.76846" lon="6.35366">
        <ele>2737.2</ele>
        <time>2024-08-12T08:37:05Z</time>
      </trkpt>
      <trkpt lat="44.76845" lon="6.35363">
        <ele>2737.2</ele>
        <time>2024-08-12T08:37:06Z</time>
      </trkpt>
      <trkpt lat="44.76845" lon="6.35363">
        <ele>2737</ele>
        <time>2024-08-12T08:37:07Z</time>
      </trkpt>
      <trkpt lat="44.76845" lon="6.35359">
        <ele>2737</ele>
        <time>2024-08-12T08:37:08Z</time>
      </trkpt>
      <trkpt lat="44.76845" lon="6.35359">
        <ele>2736.8</ele>
        <time>2024-08-12T08:37:09Z</time>
      </trkpt>
      <trkpt lat="44.76845" lon="6.35356">
        <ele>2736.4</ele>
        <time>2024-08-12T08:37:10Z</time>
      </trkpt>
      <trkpt lat="44.76845" lon="6.35356">
        <ele>2736</ele>
        <time>2024-08-12T08:37:11Z</time>
      </trkpt>
      <trkpt lat="44.76844" lon="6.35353">
        <ele>2735.8</ele>
        <time>2024-08-12T08:37:12Z</time>
      </trkpt>
      <trkpt lat="44.76844" lon="6.35353">
        <ele>2735.4</ele>
        <time>2024-08-12T08:37:13Z</time>
      </trkpt>
      <trkpt lat="44.76845" lon="6.3535">
        <ele>2735.2</ele>
        <time>2024-08-12T08:37:14Z</time>
      </trkpt>
      <trkpt lat="44.76845" lon="6.3535">
        <ele>2735</ele>
        <time>2024-08-12T08:37:15Z</time>
      </trkpt>
      <trkpt lat="44.76845" lon="6.35347">
        <ele>2735</ele>
        <time>2024-08-12T08:37:16Z</time>
      </trkpt>
      <trkpt lat="44.76845" lon="6.35347">
        <ele>2735.2</ele>
        <time>2024-08-12T08:37:17Z</time>
      </trkpt>
      <trkpt lat="44.76845" lon="6.35347">
        <ele>2735.2</ele>
        <time>2024-08-12T08:37:18Z</time>
      </trkpt>
      <trkpt lat="44.76845" lon="6.35344">
        <ele>2734.8</ele>
        <time>2024-08-12T08:37:19Z</time>
      </trkpt>
      <trkpt lat="44.76845" lon="6.35344">
        <ele>2734.8</ele>
        <time>2024-08-12T08:37:20Z</time>
      </trkpt>
      <trkpt lat="44.76845" lon="6.3534">
        <ele>2735</ele>
        <time>2024-08-12T08:37:21Z</time>
      </trkpt>
      <trkpt lat="44.76845" lon="6.3534">
        <ele>2735</ele>
        <time>2024-08-12T08:37:22Z</time>
      </trkpt>
      <trkpt lat="44.76845" lon="6.35337">
        <ele>2734.8</ele>
        <time>2024-08-12T08:37:23Z</time>
      </trkpt>
      <trkpt lat="44.76845" lon="6.35337">
        <ele>2734.6</ele>
        <time>2024-08-12T08:37:24Z</time>
      </trkpt>
      <trkpt lat="44.76845" lon="6.35334">
        <ele>2734.6</ele>
        <time>2024-08-12T08:37:25Z</time>
      </trkpt>
      <trkpt lat="44.76845" lon="6.35334">
        <ele>2734.6</ele>
        <time>2024-08-12T08:37:26Z</time>
      </trkpt>
      <trkpt lat="44.76845" lon="6.3533">
        <ele>2734.6</ele>
        <time>2024-08-12T08:37:27Z</time>
      </trkpt>
      <trkpt lat="44.76845" lon="6.3533">
        <ele>2734.6</ele>
        <time>2024-08-12T08:37:28Z</time>
      </trkpt>
      <trkpt lat="44.76845" lon="6.35326">
        <ele>2734.2</ele>
        <time>2024-08-12T08:37:29Z</time>
      </trkpt>
      <trkpt lat="44.76845" lon="6.35326">
        <ele>2734</ele>
        <time>2024-08-12T08:37:30Z</time>
      </trkpt>
      <trkpt lat="44.76845" lon="6.35322">
        <ele>2734</ele>
        <time>2024-08-12T08:37:31Z</time>
      </trkpt>
      <trkpt lat="44.76845" lon="6.35322">
        <ele>2734</ele>
        <time>2024-08-12T08:37:32Z</time>
      </trkpt>
      <trkpt lat="44.76845" lon="6.35319">
        <ele>2734</ele>
        <time>2024-08-12T08:37:33Z</time>
      </trkpt>
      <trkpt lat="44.76845" lon="6.35319">
        <ele>2733.8</ele>
        <time>2024-08-12T08:37:34Z</time>
      </trkpt>
      <trkpt lat="44.76846" lon="6.35316">
        <ele>2733.6</ele>
        <time>2024-08-12T08:37:35Z</time>
      </trkpt>
      <trkpt lat="44.76846" lon="6.35316">
        <ele>2733.6</ele>
        <time>2024-08-12T08:37:36Z</time>
      </trkpt>
      <trkpt lat="44.76846" lon="6.35313">
        <ele>2733.6</ele>
        <time>2024-08-12T08:37:37Z</time>
      </trkpt>
      <trkpt lat="44.76846" lon="6.35313">
        <ele>2733.6</ele>
        <time>2024-08-12T08:37:38Z</time>
      </trkpt>
      <trkpt lat="44.76846" lon="6.3531">
        <ele>2733.4</ele>
        <time>2024-08-12T08:37:39Z</time>
      </trkpt>
      <trkpt lat="44.76846" lon="6.3531">
        <ele>2733.2</ele>
        <time>2024-08-12T08:37:40Z</time>
      </trkpt>
      <trkpt lat="44.76847" lon="6.35306">
        <ele>2733.2</ele>
        <time>2024-08-12T08:37:41Z</time>
      </trkpt>
      <trkpt lat="44.76847" lon="6.35306">
        <ele>2733.2</ele>
        <time>2024-08-12T08:37:42Z</time>
      </trkpt>
      <trkpt lat="44.76847" lon="6.35303">
        <ele>2733.2</ele>
        <time>2024-08-12T08:37:43Z</time>
      </trkpt>
      <trkpt lat="44.76847" lon="6.35303">
        <ele>2733.2</ele>
        <time>2024-08-12T08:37:44Z</time>
      </trkpt>
      <trkpt lat="44.76846" lon="6.353">
        <ele>2733</ele>
        <time>2024-08-12T08:37:45Z</time>
      </trkpt>
      <trkpt lat="44.76846" lon="6.353">
        <ele>2732.8</ele>
        <time>2024-08-12T08:37:46Z</time>
      </trkpt>
      <trkpt lat="44.76846" lon="6.35296">
        <ele>2732.8</ele>
        <time>2024-08-12T08:37:47Z</time>
      </trkpt>
      <trkpt lat="44.76846" lon="6.35296">
        <ele>2732.6</ele>
        <time>2024-08-12T08:37:48Z</time>
      </trkpt>
      <trkpt lat="44.76845" lon="6.35293">
        <ele>2732</ele>
        <time>2024-08-12T08:37:49Z</time>
      </trkpt>
      <trkpt lat="44.76845" lon="6.35293">
        <ele>2732</ele>
        <time>2024-08-12T08:37:50Z</time>
      </trkpt>
      <trkpt lat="44.76845" lon="6.3529">
        <ele>2732</ele>
        <time>2024-08-12T08:37:51Z</time>
      </trkpt>
      <trkpt lat="44.76845" lon="6.3529">
        <ele>2731.8</ele>
        <time>2024-08-12T08:37:52Z</time>
      </trkpt>
      <trkpt lat="44.76845" lon="6.35286">
        <ele>2731.8</ele>
        <time>2024-08-12T08:37:53Z</time>
      </trkpt>
      <trkpt lat="44.76845" lon="6.35286">
        <ele>2731.8</ele>
        <time>2024-08-12T08:37:54Z</time>
      </trkpt>
      <trkpt lat="44.76845" lon="6.35286">
        <ele>2731.6</ele>
        <time>2024-08-12T08:37:55Z</time>
      </trkpt>
      <trkpt lat="44.76845" lon="6.35286">
        <ele>2731.6</ele>
        <time>2024-08-12T08:37:56Z</time>
      </trkpt>
      <trkpt lat="44.76844" lon="6.35284">
        <ele>2731.2</ele>
        <time>2024-08-12T08:37:57Z</time>
      </trkpt>
      <trkpt lat="44.76844" lon="6.35284">
        <ele>2731.2</ele>
        <time>2024-08-12T08:37:58Z</time>
      </trkpt>
      <trkpt lat="44.76844" lon="6.35284">
        <ele>2731.2</ele>
        <time>2024-08-12T08:37:59Z</time>
      </trkpt>
      <trkpt lat="44.76845" lon="6.35281">
        <ele>2731.4</ele>
        <time>2024-08-12T08:38:00Z</time>
      </trkpt>
      <trkpt lat="44.76845" lon="6.35281">
        <ele>2731.4</ele>
        <time>2024-08-12T08:38:01Z</time>
      </trkpt>
      <trkpt lat="44.76845" lon="6.35278">
        <ele>2732.2</ele>
        <time>2024-08-12T08:38:02Z</time>
      </trkpt>
      <trkpt lat="44.76845" lon="6.35278">
        <ele>2732.2</ele>
        <time>2024-08-12T08:38:03Z</time>
      </trkpt>
      <trkpt lat="44.76845" lon="6.35275">
        <ele>2732</ele>
        <time>2024-08-12T08:38:04Z</time>
      </trkpt>
      <trkpt lat="44.76845" lon="6.35275">
        <ele>2731.6</ele>
        <time>2024-08-12T08:38:05Z</time>
      </trkpt>
      <trkpt lat="44.76845" lon="6.35275">
        <ele>2731.2</ele>
        <time>2024-08-12T08:38:06Z</time>
      </trkpt>
      <trkpt lat="44.76845" lon="6.35275">
        <ele>2731</ele>
        <time>2024-08-12T08:38:07Z</time>
      </trkpt>
      <trkpt lat="44.76845" lon="6.35275">
        <ele>2730.6</ele>
        <time>2024-08-12T08:38:08Z</time>
      </trkpt>
      <trkpt lat="44.76845" lon="6.35275">
        <ele>2730.4</ele>
        <time>2024-08-12T08:38:09Z</time>
      </trkpt>
      <trkpt lat="44.76843" lon="6.35277">
        <ele>2730.4</ele>
        <time>2024-08-12T08:38:10Z</time>
      </trkpt>
      <trkpt lat="44.76843" lon="6.35277">
        <ele>2730.4</ele>
        <time>2024-08-12T08:38:11Z</time>
      </trkpt>
      <trkpt lat="44.76841" lon="6.3528">
        <ele>2730.4</ele>
        <time>2024-08-12T08:38:12Z</time>
      </trkpt>
      <trkpt lat="44.76839" lon="6.35282">
        <ele>2729.8</ele>
        <time>2024-08-12T08:38:13Z</time>
      </trkpt>
      <trkpt lat="44.76839" lon="6.35282">
        <ele>2729.6</ele>
        <time>2024-08-12T08:38:14Z</time>
      </trkpt>
      <trkpt lat="44.76838" lon="6.35283">
        <ele>2729.2</ele>
        <time>2024-08-12T08:38:15Z</time>
      </trkpt>
      <trkpt lat="44.76838" lon="6.35283">
        <ele>2728.6</ele>
        <time>2024-08-12T08:38:16Z</time>
      </trkpt>
      <trkpt lat="44.76837" lon="6.35286">
        <ele>2728.4</ele>
        <time>2024-08-12T08:38:17Z</time>
      </trkpt>
      <trkpt lat="44.76837" lon="6.35286">
        <ele>2728.4</ele>
        <time>2024-08-12T08:38:18Z</time>
      </trkpt>
      <trkpt lat="44.76836" lon="6.35289">
        <ele>2728.2</ele>
        <time>2024-08-12T08:38:19Z</time>
      </trkpt>
      <trkpt lat="44.76836" lon="6.35289">
        <ele>2727.8</ele>
        <time>2024-08-12T08:38:20Z</time>
      </trkpt>
      <trkpt lat="44.76835" lon="6.3529">
        <ele>2727.6</ele>
        <time>2024-08-12T08:38:21Z</time>
      </trkpt>
      <trkpt lat="44.76835" lon="6.3529">
        <ele>2727.6</ele>
        <time>2024-08-12T08:38:22Z</time>
      </trkpt>
      <trkpt lat="44.76834" lon="6.35293">
        <ele>2727.2</ele>
        <time>2024-08-12T08:38:23Z</time>
      </trkpt>
      <trkpt lat="44.76834" lon="6.35293">
        <ele>2727</ele>
        <time>2024-08-12T08:38:24Z</time>
      </trkpt>
      <trkpt lat="44.76833" lon="6.35296">
        <ele>2726.8</ele>
        <time>2024-08-12T08:38:25Z</time>
      </trkpt>
      <trkpt lat="44.76833" lon="6.35296">
        <ele>2726.6</ele>
        <time>2024-08-12T08:38:26Z</time>
      </trkpt>
      <trkpt lat="44.76832" lon="6.35298">
        <ele>2726.4</ele>
        <time>2024-08-12T08:38:27Z</time>
      </trkpt>
      <trkpt lat="44.76832" lon="6.35298">
        <ele>2726.2</ele>
        <time>2024-08-12T08:38:28Z</time>
      </trkpt>
      <trkpt lat="44.76831" lon="6.35301">
        <ele>2726</ele>
        <time>2024-08-12T08:38:29Z</time>
      </trkpt>
      <trkpt lat="44.76831" lon="6.35301">
        <ele>2726</ele>
        <time>2024-08-12T08:38:30Z</time>
      </trkpt>
      <trkpt lat="44.76831" lon="6.35305">
        <ele>2725.4</ele>
        <time>2024-08-12T08:38:31Z</time>
      </trkpt>
      <trkpt lat="44.76831" lon="6.35305">
        <ele>2725.2</ele>
        <time>2024-08-12T08:38:32Z</time>
      </trkpt>
      <trkpt lat="44.76831" lon="6.35308">
        <ele>2725.2</ele>
        <time>2024-08-12T08:38:33Z</time>
      </trkpt>
      <trkpt lat="44.76831" lon="6.35308">
        <ele>2725</ele>
        <time>2024-08-12T08:38:34Z</time>
      </trkpt>
      <trkpt lat="44.76831" lon="6.35312">
        <ele>2724.8</ele>
        <time>2024-08-12T08:38:35Z</time>
      </trkpt>
      <trkpt lat="44.76831" lon="6.35312">
        <ele>2724.8</ele>
        <time>2024-08-12T08:38:36Z</time>
      </trkpt>
      <trkpt lat="44.76831" lon="6.35315">
        <ele>2724.6</ele>
        <time>2024-08-12T08:38:37Z</time>
      </trkpt>
      <trkpt lat="44.76831" lon="6.35315">
        <ele>2724.2</ele>
        <time>2024-08-12T08:38:38Z</time>
      </trkpt>
      <trkpt lat="44.7683" lon="6.35318">
        <ele>2724.2</ele>
        <time>2024-08-12T08:38:39Z</time>
      </trkpt>
      <trkpt lat="44.7683" lon="6.35318">
        <ele>2724</ele>
        <time>2024-08-12T08:38:40Z</time>
      </trkpt>
      <trkpt lat="44.76829" lon="6.3532">
        <ele>2724</ele>
        <time>2024-08-12T08:38:41Z</time>
      </trkpt>
      <trkpt lat="44.76829" lon="6.3532">
        <ele>2723.6</ele>
        <time>2024-08-12T08:38:42Z</time>
      </trkpt>
      <trkpt lat="44.76829" lon="6.3532">
        <ele>2723.4</ele>
        <time>2024-08-12T08:38:43Z</time>
      </trkpt>
      <trkpt lat="44.76827" lon="6.35323">
        <ele>2723.2</ele>
        <time>2024-08-12T08:38:44Z</time>
      </trkpt>
      <trkpt lat="44.76827" lon="6.35323">
        <ele>2723.2</ele>
        <time>2024-08-12T08:38:45Z</time>
      </trkpt>
      <trkpt lat="44.76825" lon="6.35324">
        <ele>2723.2</ele>
        <time>2024-08-12T08:38:46Z</time>
      </trkpt>
      <trkpt lat="44.76825" lon="6.35324">
        <ele>2722.8</ele>
        <time>2024-08-12T08:38:47Z</time>
      </trkpt>
      <trkpt lat="44.76824" lon="6.35326">
        <ele>2722.2</ele>
        <time>2024-08-12T08:38:48Z</time>
      </trkpt>
      <trkpt lat="44.76824" lon="6.35326">
        <ele>2722</ele>
        <time>2024-08-12T08:38:49Z</time>
      </trkpt>
      <trkpt lat="44.76824" lon="6.35326">
        <ele>2721.8</ele>
        <time>2024-08-12T08:38:50Z</time>
      </trkpt>
      <trkpt lat="44.76822" lon="6.35328">
        <ele>2721.6</ele>
        <time>2024-08-12T08:38:51Z</time>
      </trkpt>
      <trkpt lat="44.76822" lon="6.35328">
        <ele>2721.6</ele>
        <time>2024-08-12T08:38:52Z</time>
      </trkpt>
      <trkpt lat="44.7682" lon="6.3533">
        <ele>2721.4</ele>
        <time>2024-08-12T08:38:53Z</time>
      </trkpt>
      <trkpt lat="44.7682" lon="6.3533">
        <ele>2721.2</ele>
        <time>2024-08-12T08:38:54Z</time>
      </trkpt>
      <trkpt lat="44.76818" lon="6.35331">
        <ele>2721.2</ele>
        <time>2024-08-12T08:38:55Z</time>
      </trkpt>
      <trkpt lat="44.76818" lon="6.35331">
        <ele>2721</ele>
        <time>2024-08-12T08:38:56Z</time>
      </trkpt>
      <trkpt lat="44.76818" lon="6.35331">
        <ele>2720.8</ele>
        <time>2024-08-12T08:38:57Z</time>
      </trkpt>
      <trkpt lat="44.76815" lon="6.35333">
        <ele>2720.6</ele>
        <time>2024-08-12T08:38:58Z</time>
      </trkpt>
      <trkpt lat="44.76815" lon="6.35333">
        <ele>2720.2</ele>
        <time>2024-08-12T08:38:59Z</time>
      </trkpt>
      <trkpt lat="44.76815" lon="6.35333">
        <ele>2720</ele>
        <time>2024-08-12T08:39:00Z</time>
      </trkpt>
      <trkpt lat="44.76813" lon="6.35336">
        <ele>2719.6</ele>
        <time>2024-08-12T08:39:01Z</time>
      </trkpt>
      <trkpt lat="44.76813" lon="6.35336">
        <ele>2719.4</ele>
        <time>2024-08-12T08:39:02Z</time>
      </trkpt>
      <trkpt lat="44.76812" lon="6.35339">
        <ele>2719.4</ele>
        <time>2024-08-12T08:39:03Z</time>
      </trkpt>
      <trkpt lat="44.76812" lon="6.35339">
        <ele>2719.2</ele>
        <time>2024-08-12T08:39:04Z</time>
      </trkpt>
      <trkpt lat="44.76811" lon="6.35341">
        <ele>2719</ele>
        <time>2024-08-12T08:39:05Z</time>
      </trkpt>
      <trkpt lat="44.76811" lon="6.35341">
        <ele>2719</ele>
        <time>2024-08-12T08:39:06Z</time>
      </trkpt>
      <trkpt lat="44.76809" lon="6.35343">
        <ele>2719</ele>
        <time>2024-08-12T08:39:07Z</time>
      </trkpt>
      <trkpt lat="44.76809" lon="6.35343">
        <ele>2719</ele>
        <time>2024-08-12T08:39:08Z</time>
      </trkpt>
      <trkpt lat="44.76807" lon="6.35342">
        <ele>2718.8</ele>
        <time>2024-08-12T08:39:09Z</time>
      </trkpt>
      <trkpt lat="44.76807" lon="6.35342">
        <ele>2718.4</ele>
        <time>2024-08-12T08:39:10Z</time>
      </trkpt>
      <trkpt lat="44.76806" lon="6.3534">
        <ele>2718.4</ele>
        <time>2024-08-12T08:39:11Z</time>
      </trkpt>
      <trkpt lat="44.76806" lon="6.3534">
        <ele>2718.2</ele>
        <time>2024-08-12T08:39:12Z</time>
      </trkpt>
      <trkpt lat="44.76805" lon="6.35336">
        <ele>2717.8</ele>
        <time>2024-08-12T08:39:13Z</time>
      </trkpt>
      <trkpt lat="44.76805" lon="6.35336">
        <ele>2717.4</ele>
        <time>2024-08-12T08:39:14Z</time>
      </trkpt>
      <trkpt lat="44.76805" lon="6.35333">
        <ele>2717.4</ele>
        <time>2024-08-12T08:39:15Z</time>
      </trkpt>
      <trkpt lat="44.76805" lon="6.35333">
        <ele>2717.2</ele>
        <time>2024-08-12T08:39:16Z</time>
      </trkpt>
      <trkpt lat="44.76806" lon="6.35329">
        <ele>2717</ele>
        <time>2024-08-12T08:39:17Z</time>
      </trkpt>
      <trkpt lat="44.76806" lon="6.35329">
        <ele>2716.4</ele>
        <time>2024-08-12T08:39:18Z</time>
      </trkpt>
      <trkpt lat="44.76806" lon="6.35326">
        <ele>2716.2</ele>
        <time>2024-08-12T08:39:19Z</time>
      </trkpt>
      <trkpt lat="44.76806" lon="6.35326">
        <ele>2716</ele>
        <time>2024-08-12T08:39:20Z</time>
      </trkpt>
      <trkpt lat="44.76807" lon="6.35322">
        <ele>2716</ele>
        <time>2024-08-12T08:39:21Z</time>
      </trkpt>
      <trkpt lat="44.76807" lon="6.35322">
        <ele>2715.8</ele>
        <time>2024-08-12T08:39:22Z</time>
      </trkpt>
      <trkpt lat="44.76807" lon="6.35319">
        <ele>2715.8</ele>
        <time>2024-08-12T08:39:23Z</time>
      </trkpt>
      <trkpt lat="44.76807" lon="6.35319">
        <ele>2715.6</ele>
        <time>2024-08-12T08:39:24Z</time>
      </trkpt>
      <trkpt lat="44.76807" lon="6.35319">
        <ele>2715.6</ele>
        <time>2024-08-12T08:39:25Z</time>
      </trkpt>
      <trkpt lat="44.76808" lon="6.35315">
        <ele>2715.6</ele>
        <time>2024-08-12T08:39:26Z</time>
      </trkpt>
      <trkpt lat="44.76808" lon="6.35315">
        <ele>2715.6</ele>
        <time>2024-08-12T08:39:27Z</time>
      </trkpt>
      <trkpt lat="44.76807" lon="6.35312">
        <ele>2715.6</ele>
        <time>2024-08-12T08:39:28Z</time>
      </trkpt>
      <trkpt lat="44.76807" lon="6.35312">
        <ele>2715.6</ele>
        <time>2024-08-12T08:39:29Z</time>
      </trkpt>
      <trkpt lat="44.76807" lon="6.35309">
        <ele>2715.6</ele>
        <time>2024-08-12T08:39:30Z</time>
      </trkpt>
      <trkpt lat="44.76807" lon="6.35309">
        <ele>2715.4</ele>
        <time>2024-08-12T08:39:31Z</time>
      </trkpt>
      <trkpt lat="44.76806" lon="6.35307">
        <ele>2715.4</ele>
        <time>2024-08-12T08:39:32Z</time>
      </trkpt>
      <trkpt lat="44.76806" lon="6.35307">
        <ele>2715.2</ele>
        <time>2024-08-12T08:39:33Z</time>
      </trkpt>
      <trkpt lat="44.76806" lon="6.35307">
        <ele>2714.8</ele>
        <time>2024-08-12T08:39:34Z</time>
      </trkpt>
      <trkpt lat="44.76805" lon="6.35304">
        <ele>2714.4</ele>
        <time>2024-08-12T08:39:35Z</time>
      </trkpt>
      <trkpt lat="44.76805" lon="6.35304">
        <ele>2714.2</ele>
        <time>2024-08-12T08:39:36Z</time>
      </trkpt>
      <trkpt lat="44.76803" lon="6.35302">
        <ele>2714.2</ele>
        <time>2024-08-12T08:39:37Z</time>
      </trkpt>
      <trkpt lat="44.76803" lon="6.35302">
        <ele>2714.2</ele>
        <time>2024-08-12T08:39:38Z</time>
      </trkpt>
      <trkpt lat="44.76802" lon="6.35301">
        <ele>2713.6</ele>
        <time>2024-08-12T08:39:39Z</time>
      </trkpt>
      <trkpt lat="44.76802" lon="6.35301">
        <ele>2713.2</ele>
        <time>2024-08-12T08:39:40Z</time>
      </trkpt>
      <trkpt lat="44.76799" lon="6.35299">
        <ele>2713</ele>
        <time>2024-08-12T08:39:41Z</time>
      </trkpt>
      <trkpt lat="44.76799" lon="6.35299">
        <ele>2712.8</ele>
        <time>2024-08-12T08:39:42Z</time>
      </trkpt>
      <trkpt lat="44.76798" lon="6.35296">
        <ele>2712.8</ele>
        <time>2024-08-12T08:39:43Z</time>
      </trkpt>
      <trkpt lat="44.76798" lon="6.35296">
        <ele>2712.6</ele>
        <time>2024-08-12T08:39:44Z</time>
      </trkpt>
      <trkpt lat="44.76797" lon="6.35294">
        <ele>2712.4</ele>
        <time>2024-08-12T08:39:45Z</time>
      </trkpt>
      <trkpt lat="44.76797" lon="6.35294">
        <ele>2712.2</ele>
        <time>2024-08-12T08:39:46Z</time>
      </trkpt>
      <trkpt lat="44.76797" lon="6.35294">
        <ele>2712</ele>
        <time>2024-08-12T08:39:47Z</time>
      </trkpt>
      <trkpt lat="44.76796" lon="6.35291">
        <ele>2711.8</ele>
        <time>2024-08-12T08:39:48Z</time>
      </trkpt>
      <trkpt lat="44.76796" lon="6.35291">
        <ele>2711.4</ele>
        <time>2024-08-12T08:39:49Z</time>
      </trkpt>
      <trkpt lat="44.76796" lon="6.35291">
        <ele>2710.8</ele>
        <time>2024-08-12T08:39:50Z</time>
      </trkpt>
      <trkpt lat="44.76796" lon="6.35287">
        <ele>2710.8</ele>
        <time>2024-08-12T08:39:51Z</time>
      </trkpt>
      <trkpt lat="44.76796" lon="6.35287">
        <ele>2710.4</ele>
        <time>2024-08-12T08:39:52Z</time>
      </trkpt>
      <trkpt lat="44.76796" lon="6.35287">
        <ele>2710.4</ele>
        <time>2024-08-12T08:39:53Z</time>
      </trkpt>
      <trkpt lat="44.76795" lon="6.35284">
        <ele>2710.4</ele>
        <time>2024-08-12T08:39:54Z</time>
      </trkpt>
      <trkpt lat="44.76795" lon="6.35284">
        <ele>2710.2</ele>
        <time>2024-08-12T08:39:55Z</time>
      </trkpt>
      <trkpt lat="44.76795" lon="6.35281">
        <ele>2710</ele>
        <time>2024-08-12T08:39:56Z</time>
      </trkpt>
      <trkpt lat="44.76795" lon="6.35281">
        <ele>2709.8</ele>
        <time>2024-08-12T08:39:57Z</time>
      </trkpt>
      <trkpt lat="44.76796" lon="6.35278">
        <ele>2709.4</ele>
        <time>2024-08-12T08:39:58Z</time>
      </trkpt>
      <trkpt lat="44.76796" lon="6.35278">
        <ele>2709.2</ele>
        <time>2024-08-12T08:39:59Z</time>
      </trkpt>
      <trkpt lat="44.76797" lon="6.35275">
        <ele>2708.8</ele>
        <time>2024-08-12T08:40:00Z</time>
      </trkpt>
      <trkpt lat="44.76797" lon="6.35275">
        <ele>2708.8</ele>
        <time>2024-08-12T08:40:01Z</time>
      </trkpt>
      <trkpt lat="44.76798" lon="6.35272">
        <ele>2708.6</ele>
        <time>2024-08-12T08:40:02Z</time>
      </trkpt>
      <trkpt lat="44.76798" lon="6.35272">
        <ele>2708.6</ele>
        <time>2024-08-12T08:40:03Z</time>
      </trkpt>
      <trkpt lat="44.768" lon="6.35269">
        <ele>2708.4</ele>
        <time>2024-08-12T08:40:04Z</time>
      </trkpt>
      <trkpt lat="44.768" lon="6.35269">
        <ele>2708.2</ele>
        <time>2024-08-12T08:40:05Z</time>
      </trkpt>
      <trkpt lat="44.76801" lon="6.35266">
        <ele>2708</ele>
        <time>2024-08-12T08:40:06Z</time>
      </trkpt>
      <trkpt lat="44.76801" lon="6.35266">
        <ele>2708</ele>
        <time>2024-08-12T08:40:07Z</time>
      </trkpt>
      <trkpt lat="44.76802" lon="6.35263">
        <ele>2708</ele>
        <time>2024-08-12T08:40:08Z</time>
      </trkpt>
      <trkpt lat="44.76802" lon="6.35263">
        <ele>2707.8</ele>
        <time>2024-08-12T08:40:09Z</time>
      </trkpt>
      <trkpt lat="44.76803" lon="6.3526">
        <ele>2707.4</ele>
        <time>2024-08-12T08:40:10Z</time>
      </trkpt>
      <trkpt lat="44.76803" lon="6.3526">
        <ele>2707.4</ele>
        <time>2024-08-12T08:40:11Z</time>
      </trkpt>
      <trkpt lat="44.76804" lon="6.35257">
        <ele>2707.4</ele>
        <time>2024-08-12T08:40:12Z</time>
      </trkpt>
      <trkpt lat="44.76804" lon="6.35257">
        <ele>2707.6</ele>
        <time>2024-08-12T08:40:13Z</time>
      </trkpt>
      <trkpt lat="44.76804" lon="6.35257">
        <ele>2707</ele>
        <time>2024-08-12T08:40:14Z</time>
      </trkpt>
      <trkpt lat="44.76803" lon="6.35254">
        <ele>2707</ele>
        <time>2024-08-12T08:40:15Z</time>
      </trkpt>
      <trkpt lat="44.76803" lon="6.35254">
        <ele>2706.8</ele>
        <time>2024-08-12T08:40:16Z</time>
      </trkpt>
      <trkpt lat="44.76803" lon="6.35254">
        <ele>2706.6</ele>
        <time>2024-08-12T08:40:17Z</time>
      </trkpt>
      <trkpt lat="44.76803" lon="6.3525">
        <ele>2706.6</ele>
        <time>2024-08-12T08:40:18Z</time>
      </trkpt>
      <trkpt lat="44.76803" lon="6.3525">
        <ele>2706.4</ele>
        <time>2024-08-12T08:40:19Z</time>
      </trkpt>
      <trkpt lat="44.76803" lon="6.3525">
        <ele>2706</ele>
        <time>2024-08-12T08:40:20Z</time>
      </trkpt>
      <trkpt lat="44.76803" lon="6.35247">
        <ele>2705.8</ele>
        <time>2024-08-12T08:40:21Z</time>
      </trkpt>
      <trkpt lat="44.76803" lon="6.35247">
        <ele>2705.6</ele>
        <time>2024-08-12T08:40:22Z</time>
      </trkpt>
      <trkpt lat="44.76802" lon="6.35244">
        <ele>2705.4</ele>
        <time>2024-08-12T08:40:23Z</time>
      </trkpt>
      <trkpt lat="44.76802" lon="6.35244">
        <ele>2705</ele>
        <time>2024-08-12T08:40:24Z</time>
      </trkpt>
      <trkpt lat="44.76802" lon="6.35244">
        <ele>2704.6</ele>
        <time>2024-08-12T08:40:25Z</time>
      </trkpt>
      <trkpt lat="44.76801" lon="6.35241">
        <ele>2704.2</ele>
        <time>2024-08-12T08:40:26Z</time>
      </trkpt>
      <trkpt lat="44.76801" lon="6.35241">
        <ele>2704.2</ele>
        <time>2024-08-12T08:40:27Z</time>
      </trkpt>
      <trkpt lat="44.76801" lon="6.35241">
        <ele>2704</ele>
        <time>2024-08-12T08:40:28Z</time>
      </trkpt>
      <trkpt lat="44.768" lon="6.35238">
        <ele>2704</ele>
        <time>2024-08-12T08:40:29Z</time>
      </trkpt>
      <trkpt lat="44.768" lon="6.35238">
        <ele>2704</ele>
        <time>2024-08-12T08:40:30Z</time>
      </trkpt>
      <trkpt lat="44.768" lon="6.35238">
        <ele>2704</ele>
        <time>2024-08-12T08:40:31Z</time>
      </trkpt>
      <trkpt lat="44.768" lon="6.35238">
        <ele>2703.8</ele>
        <time>2024-08-12T08:40:32Z</time>
      </trkpt>
      <trkpt lat="44.76799" lon="6.35236">
        <ele>2703.4</ele>
        <time>2024-08-12T08:40:33Z</time>
      </trkpt>
      <trkpt lat="44.76799" lon="6.35236">
        <ele>2703.4</ele>
        <time>2024-08-12T08:40:34Z</time>
      </trkpt>
      <trkpt lat="44.76799" lon="6.35236">
        <ele>2703.6</ele>
        <time>2024-08-12T08:40:35Z</time>
      </trkpt>
      <trkpt lat="44.76799" lon="6.35233">
        <ele>2703.6</ele>
        <time>2024-08-12T08:40:36Z</time>
      </trkpt>
      <trkpt lat="44.76799" lon="6.35233">
        <ele>2703.4</ele>
        <time>2024-08-12T08:40:37Z</time>
      </trkpt>
      <trkpt lat="44.76798" lon="6.35231">
        <ele>2703</ele>
        <time>2024-08-12T08:40:38Z</time>
      </trkpt>
      <trkpt lat="44.76798" lon="6.35231">
        <ele>2702.8</ele>
        <time>2024-08-12T08:40:39Z</time>
      </trkpt>
      <trkpt lat="44.76798" lon="6.35231">
        <ele>2702.6</ele>
        <time>2024-08-12T08:40:40Z</time>
      </trkpt>
      <trkpt lat="44.76797" lon="6.35227">
        <ele>2702.4</ele>
        <time>2024-08-12T08:40:41Z</time>
      </trkpt>
      <trkpt lat="44.76797" lon="6.35227">
        <ele>2702.2</ele>
        <time>2024-08-12T08:40:42Z</time>
      </trkpt>
      <trkpt lat="44.76797" lon="6.35225">
        <ele>2702.2</ele>
        <time>2024-08-12T08:40:43Z</time>
      </trkpt>
      <trkpt lat="44.76797" lon="6.35225">
        <ele>2701.8</ele>
        <time>2024-08-12T08:40:44Z</time>
      </trkpt>
      <trkpt lat="44.76797" lon="6.35221">
        <ele>2701.4</ele>
        <time>2024-08-12T08:40:45Z</time>
      </trkpt>
      <trkpt lat="44.76797" lon="6.35221">
        <ele>2701.4</ele>
        <time>2024-08-12T08:40:46Z</time>
      </trkpt>
      <trkpt lat="44.76797" lon="6.35221">
        <ele>2701.4</ele>
        <time>2024-08-12T08:40:47Z</time>
      </trkpt>
      <trkpt lat="44.76796" lon="6.35218">
        <ele>2701.2</ele>
        <time>2024-08-12T08:40:48Z</time>
      </trkpt>
      <trkpt lat="44.76796" lon="6.35218">
        <ele>2701.2</ele>
        <time>2024-08-12T08:40:49Z</time>
      </trkpt>
      <trkpt lat="44.76795" lon="6.35214">
        <ele>2701</ele>
        <time>2024-08-12T08:40:50Z</time>
      </trkpt>
      <trkpt lat="44.76795" lon="6.35214">
        <ele>2701</ele>
        <time>2024-08-12T08:40:51Z</time>
      </trkpt>
      <trkpt lat="44.76795" lon="6.35211">
        <ele>2700.8</ele>
        <time>2024-08-12T08:40:52Z</time>
      </trkpt>
      <trkpt lat="44.76795" lon="6.35211">
        <ele>2700.6</ele>
        <time>2024-08-12T08:40:53Z</time>
      </trkpt>
      <trkpt lat="44.76794" lon="6.35208">
        <ele>2700.6</ele>
        <time>2024-08-12T08:40:54Z</time>
      </trkpt>
      <trkpt lat="44.76794" lon="6.35208">
        <ele>2700.4</ele>
        <time>2024-08-12T08:40:55Z</time>
      </trkpt>
      <trkpt lat="44.76793" lon="6.35206">
        <ele>2700.2</ele>
        <time>2024-08-12T08:40:56Z</time>
      </trkpt>
      <trkpt lat="44.76793" lon="6.35206">
        <ele>2700.2</ele>
        <time>2024-08-12T08:40:57Z</time>
      </trkpt>
      <trkpt lat="44.76793" lon="6.35203">
        <ele>2700</ele>
        <time>2024-08-12T08:40:58Z</time>
      </trkpt>
      <trkpt lat="44.76793" lon="6.35203">
        <ele>2699.6</ele>
        <time>2024-08-12T08:40:59Z</time>
      </trkpt>
      <trkpt lat="44.76792" lon="6.35201">
        <ele>2699.2</ele>
        <time>2024-08-12T08:41:00Z</time>
      </trkpt>
      <trkpt lat="44.76792" lon="6.35201">
        <ele>2699.2</ele>
        <time>2024-08-12T08:41:01Z</time>
      </trkpt>
      <trkpt lat="44.76791" lon="6.35198">
        <ele>2698.6</ele>
        <time>2024-08-12T08:41:02Z</time>
      </trkpt>
      <trkpt lat="44.76791" lon="6.35198">
        <ele>2698.6</ele>
        <time>2024-08-12T08:41:03Z</time>
      </trkpt>
      <trkpt lat="44.7679" lon="6.35195">
        <ele>2698.6</ele>
        <time>2024-08-12T08:41:04Z</time>
      </trkpt>
      <trkpt lat="44.7679" lon="6.35195">
        <ele>2698.4</ele>
        <time>2024-08-12T08:41:05Z</time>
      </trkpt>
      <trkpt lat="44.7679" lon="6.35195">
        <ele>2698</ele>
        <time>2024-08-12T08:41:06Z</time>
      </trkpt>
      <trkpt lat="44.76789" lon="6.35191">
        <ele>2697.8</ele>
        <time>2024-08-12T08:41:07Z</time>
      </trkpt>
      <trkpt lat="44.76789" lon="6.35191">
        <ele>2697.6</ele>
        <time>2024-08-12T08:41:08Z</time>
      </trkpt>
      <trkpt lat="44.76789" lon="6.35189">
        <ele>2697.4</ele>
        <time>2024-08-12T08:41:09Z</time>
      </trkpt>
      <trkpt lat="44.76789" lon="6.35189">
        <ele>2697.4</ele>
        <time>2024-08-12T08:41:10Z</time>
      </trkpt>
      <trkpt lat="44.76787" lon="6.35186">
        <ele>2696.8</ele>
        <time>2024-08-12T08:41:11Z</time>
      </trkpt>
      <trkpt lat="44.76787" lon="6.35186">
        <ele>2696.8</ele>
        <time>2024-08-12T08:41:12Z</time>
      </trkpt>
      <trkpt lat="44.76787" lon="6.35186">
        <ele>2696.4</ele>
        <time>2024-08-12T08:41:13Z</time>
      </trkpt>
      <trkpt lat="44.76786" lon="6.35185">
        <ele>2696.2</ele>
        <time>2024-08-12T08:41:14Z</time>
      </trkpt>
      <trkpt lat="44.76786" lon="6.35185">
        <ele>2696</ele>
        <time>2024-08-12T08:41:15Z</time>
      </trkpt>
      <trkpt lat="44.76786" lon="6.35187">
        <ele>2695.8</ele>
        <time>2024-08-12T08:41:16Z</time>
      </trkpt>
      <trkpt lat="44.76786" lon="6.35187">
        <ele>2695.2</ele>
        <time>2024-08-12T08:41:17Z</time>
      </trkpt>
      <trkpt lat="44.76786" lon="6.35191">
        <ele>2695</ele>
        <time>2024-08-12T08:41:18Z</time>
      </trkpt>
      <trkpt lat="44.76786" lon="6.35191">
        <ele>2695</ele>
        <time>2024-08-12T08:41:19Z</time>
      </trkpt>
      <trkpt lat="44.76785" lon="6.35194">
        <ele>2694.8</ele>
        <time>2024-08-12T08:41:20Z</time>
      </trkpt>
      <trkpt lat="44.76785" lon="6.35194">
        <ele>2694.8</ele>
        <time>2024-08-12T08:41:21Z</time>
      </trkpt>
      <trkpt lat="44.76784" lon="6.35197">
        <ele>2694.4</ele>
        <time>2024-08-12T08:41:22Z</time>
      </trkpt>
      <trkpt lat="44.76784" lon="6.35197">
        <ele>2694.2</ele>
        <time>2024-08-12T08:41:23Z</time>
      </trkpt>
      <trkpt lat="44.76783" lon="6.35199">
        <ele>2694</ele>
        <time>2024-08-12T08:41:24Z</time>
      </trkpt>
      <trkpt lat="44.76783" lon="6.35199">
        <ele>2693.6</ele>
        <time>2024-08-12T08:41:25Z</time>
      </trkpt>
      <trkpt lat="44.76781" lon="6.35202">
        <ele>2693.4</ele>
        <time>2024-08-12T08:41:26Z</time>
      </trkpt>
      <trkpt lat="44.76781" lon="6.35202">
        <ele>2693.2</ele>
        <time>2024-08-12T08:41:27Z</time>
      </trkpt>
      <trkpt lat="44.7678" lon="6.35204">
        <ele>2693</ele>
        <time>2024-08-12T08:41:28Z</time>
      </trkpt>
      <trkpt lat="44.7678" lon="6.35204">
        <ele>2693</ele>
        <time>2024-08-12T08:41:29Z</time>
      </trkpt>
      <trkpt lat="44.76779" lon="6.35207">
        <ele>2692.6</ele>
        <time>2024-08-12T08:41:30Z</time>
      </trkpt>
      <trkpt lat="44.76779" lon="6.35207">
        <ele>2692.2</ele>
        <time>2024-08-12T08:41:31Z</time>
      </trkpt>
      <trkpt lat="44.76778" lon="6.35209">
        <ele>2691.8</ele>
        <time>2024-08-12T08:41:32Z</time>
      </trkpt>
      <trkpt lat="44.76778" lon="6.35209">
        <ele>2691.6</ele>
        <time>2024-08-12T08:41:33Z</time>
      </trkpt>
      <trkpt lat="44.76777" lon="6.35212">
        <ele>2691.6</ele>
        <time>2024-08-12T08:41:34Z</time>
      </trkpt>
      <trkpt lat="44.76777" lon="6.35212">
        <ele>2691.6</ele>
        <time>2024-08-12T08:41:35Z</time>
      </trkpt>
      <trkpt lat="44.76775" lon="6.35215">
        <ele>2691.2</ele>
        <time>2024-08-12T08:41:36Z</time>
      </trkpt>
      <trkpt lat="44.76775" lon="6.35215">
        <ele>2691</ele>
        <time>2024-08-12T08:41:37Z</time>
      </trkpt>
      <trkpt lat="44.76775" lon="6.35218">
        <ele>2690.8</ele>
        <time>2024-08-12T08:41:38Z</time>
      </trkpt>
      <trkpt lat="44.76775" lon="6.35218">
        <ele>2690.4</ele>
        <time>2024-08-12T08:41:39Z</time>
      </trkpt>
      <trkpt lat="44.76775" lon="6.35222">
        <ele>2690.2</ele>
        <time>2024-08-12T08:41:40Z</time>
      </trkpt>
      <trkpt lat="44.76775" lon="6.35222">
        <ele>2690.2</ele>
        <time>2024-08-12T08:41:41Z</time>
      </trkpt>
      <trkpt lat="44.76774" lon="6.35225">
        <ele>2690.2</ele>
        <time>2024-08-12T08:41:42Z</time>
      </trkpt>
      <trkpt lat="44.76774" lon="6.35225">
        <ele>2690.2</ele>
        <time>2024-08-12T08:41:43Z</time>
      </trkpt>
      <trkpt lat="44.76775" lon="6.35228">
        <ele>2690</ele>
        <time>2024-08-12T08:41:44Z</time>
      </trkpt>
      <trkpt lat="44.76775" lon="6.35228">
        <ele>2689.8</ele>
        <time>2024-08-12T08:41:45Z</time>
      </trkpt>
      <trkpt lat="44.76774" lon="6.35231">
        <ele>2689.6</ele>
        <time>2024-08-12T08:41:46Z</time>
      </trkpt>
      <trkpt lat="44.76774" lon="6.35231">
        <ele>2689.6</ele>
        <time>2024-08-12T08:41:47Z</time>
      </trkpt>
      <trkpt lat="44.76773" lon="6.35235">
        <ele>2689.4</ele>
        <time>2024-08-12T08:41:48Z</time>
      </trkpt>
      <trkpt lat="44.76773" lon="6.35235">
        <ele>2689.2</ele>
        <time>2024-08-12T08:41:49Z</time>
      </trkpt>
      <trkpt lat="44.76772" lon="6.35237">
        <ele>2689.2</ele>
        <time>2024-08-12T08:41:50Z</time>
      </trkpt>
      <trkpt lat="44.76772" lon="6.35237">
        <ele>2689</ele>
        <time>2024-08-12T08:41:51Z</time>
      </trkpt>
      <trkpt lat="44.76771" lon="6.35239">
        <ele>2688.8</ele>
        <time>2024-08-12T08:41:52Z</time>
      </trkpt>
      <trkpt lat="44.76771" lon="6.35239">
        <ele>2688.8</ele>
        <time>2024-08-12T08:41:53Z</time>
      </trkpt>
      <trkpt lat="44.7677" lon="6.35242">
        <ele>2688.4</ele>
        <time>2024-08-12T08:41:54Z</time>
      </trkpt>
      <trkpt lat="44.7677" lon="6.35242">
        <ele>2688.4</ele>
        <time>2024-08-12T08:41:55Z</time>
      </trkpt>
      <trkpt lat="44.76769" lon="6.35245">
        <ele>2688</ele>
        <time>2024-08-12T08:41:56Z</time>
      </trkpt>
      <trkpt lat="44.76769" lon="6.35245">
        <ele>2687.8</ele>
        <time>2024-08-12T08:41:57Z</time>
      </trkpt>
      <trkpt lat="44.76768" lon="6.35248">
        <ele>2687.8</ele>
        <time>2024-08-12T08:41:58Z</time>
      </trkpt>
      <trkpt lat="44.76768" lon="6.35248">
        <ele>2687.6</ele>
        <time>2024-08-12T08:41:59Z</time>
      </trkpt>
      <trkpt lat="44.76768" lon="6.35248">
        <ele>2687.6</ele>
        <time>2024-08-12T08:42:00Z</time>
      </trkpt>
      <trkpt lat="44.76766" lon="6.35252">
        <ele>2687.4</ele>
        <time>2024-08-12T08:42:01Z</time>
      </trkpt>
      <trkpt lat="44.76766" lon="6.35252">
        <ele>2687</ele>
        <time>2024-08-12T08:42:02Z</time>
      </trkpt>
      <trkpt lat="44.76765" lon="6.35254">
        <ele>2687</ele>
        <time>2024-08-12T08:42:03Z</time>
      </trkpt>
      <trkpt lat="44.76765" lon="6.35254">
        <ele>2687.2</ele>
        <time>2024-08-12T08:42:04Z</time>
      </trkpt>
      <trkpt lat="44.76763" lon="6.35256">
        <ele>2687.2</ele>
        <time>2024-08-12T08:42:05Z</time>
      </trkpt>
      <trkpt lat="44.76763" lon="6.35256">
        <ele>2687</ele>
        <time>2024-08-12T08:42:06Z</time>
      </trkpt>
      <trkpt lat="44.76762" lon="6.35258">
        <ele>2686.6</ele>
        <time>2024-08-12T08:42:07Z</time>
      </trkpt>
      <trkpt lat="44.76762" lon="6.35258">
        <ele>2686.4</ele>
        <time>2024-08-12T08:42:08Z</time>
      </trkpt>
      <trkpt lat="44.76762" lon="6.35258">
        <ele>2686.4</ele>
        <time>2024-08-12T08:42:09Z</time>
      </trkpt>
      <trkpt lat="44.76761" lon="6.35262">
        <ele>2686.2</ele>
        <time>2024-08-12T08:42:10Z</time>
      </trkpt>
      <trkpt lat="44.76761" lon="6.35262">
        <ele>2686.2</ele>
        <time>2024-08-12T08:42:11Z</time>
      </trkpt>
      <trkpt lat="44.76759" lon="6.35264">
        <ele>2686.2</ele>
        <time>2024-08-12T08:42:12Z</time>
      </trkpt>
      <trkpt lat="44.76759" lon="6.35264">
        <ele>2685.8</ele>
        <time>2024-08-12T08:42:13Z</time>
      </trkpt>
      <trkpt lat="44.76757" lon="6.35265">
        <ele>2685.8</ele>
        <time>2024-08-12T08:42:14Z</time>
      </trkpt>
      <trkpt lat="44.76757" lon="6.35265">
        <ele>2685.6</ele>
        <time>2024-08-12T08:42:15Z</time>
      </trkpt>
      <trkpt lat="44.76756" lon="6.35267">
        <ele>2685.6</ele>
        <time>2024-08-12T08:42:16Z</time>
      </trkpt>
      <trkpt lat="44.76756" lon="6.35267">
        <ele>2685.4</ele>
        <time>2024-08-12T08:42:17Z</time>
      </trkpt>
      <trkpt lat="44.76754" lon="6.35268">
        <ele>2685</ele>
        <time>2024-08-12T08:42:18Z</time>
      </trkpt>
      <trkpt lat="44.76754" lon="6.35268">
        <ele>2684.8</ele>
        <time>2024-08-12T08:42:19Z</time>
      </trkpt>
      <trkpt lat="44.76753" lon="6.35271">
        <ele>2684.6</ele>
        <time>2024-08-12T08:42:20Z</time>
      </trkpt>
      <trkpt lat="44.76753" lon="6.35271">
        <ele>2684.4</ele>
        <time>2024-08-12T08:42:21Z</time>
      </trkpt>
      <trkpt lat="44.76752" lon="6.35274">
        <ele>2684.2</ele>
        <time>2024-08-12T08:42:22Z</time>
      </trkpt>
      <trkpt lat="44.76752" lon="6.35274">
        <ele>2684</ele>
        <time>2024-08-12T08:42:23Z</time>
      </trkpt>
      <trkpt lat="44.76752" lon="6.35274">
        <ele>2683.8</ele>
        <time>2024-08-12T08:42:24Z</time>
      </trkpt>
      <trkpt lat="44.76751" lon="6.35278">
        <ele>2683.8</ele>
        <time>2024-08-12T08:42:25Z</time>
      </trkpt>
      <trkpt lat="44.76751" lon="6.35278">
        <ele>2683.6</ele>
        <time>2024-08-12T08:42:26Z</time>
      </trkpt>
      <trkpt lat="44.7675" lon="6.35281">
        <ele>2683.4</ele>
        <time>2024-08-12T08:42:27Z</time>
      </trkpt>
      <trkpt lat="44.7675" lon="6.35281">
        <ele>2683.2</ele>
        <time>2024-08-12T08:42:28Z</time>
      </trkpt>
      <trkpt lat="44.76748" lon="6.35283">
        <ele>2683.2</ele>
        <time>2024-08-12T08:42:29Z</time>
      </trkpt>
      <trkpt lat="44.76748" lon="6.35283">
        <ele>2682.8</ele>
        <time>2024-08-12T08:42:30Z</time>
      </trkpt>
      <trkpt lat="44.76746" lon="6.35285">
        <ele>2682.6</ele>
        <time>2024-08-12T08:42:31Z</time>
      </trkpt>
      <trkpt lat="44.76746" lon="6.35285">
        <ele>2682.4</ele>
        <time>2024-08-12T08:42:32Z</time>
      </trkpt>
      <trkpt lat="44.76744" lon="6.35288">
        <ele>2682.4</ele>
        <time>2024-08-12T08:42:33Z</time>
      </trkpt>
      <trkpt lat="44.76744" lon="6.35288">
        <ele>2682</ele>
        <time>2024-08-12T08:42:34Z</time>
      </trkpt>
      <trkpt lat="44.76742" lon="6.35289">
        <ele>2682.2</ele>
        <time>2024-08-12T08:42:35Z</time>
      </trkpt>
      <trkpt lat="44.76742" lon="6.35289">
        <ele>2681.6</ele>
        <time>2024-08-12T08:42:36Z</time>
      </trkpt>
      <trkpt lat="44.76741" lon="6.35291">
        <ele>2681.6</ele>
        <time>2024-08-12T08:42:37Z</time>
      </trkpt>
      <trkpt lat="44.76741" lon="6.35291">
        <ele>2681.4</ele>
        <time>2024-08-12T08:42:38Z</time>
      </trkpt>
      <trkpt lat="44.76739" lon="6.35292">
        <ele>2681.4</ele>
        <time>2024-08-12T08:42:39Z</time>
      </trkpt>
      <trkpt lat="44.76739" lon="6.35292">
        <ele>2681.2</ele>
        <time>2024-08-12T08:42:40Z</time>
      </trkpt>
      <trkpt lat="44.76737" lon="6.35293">
        <ele>2681</ele>
        <time>2024-08-12T08:42:41Z</time>
      </trkpt>
      <trkpt lat="44.76737" lon="6.35293">
        <ele>2680.6</ele>
        <time>2024-08-12T08:42:42Z</time>
      </trkpt>
      <trkpt lat="44.76736" lon="6.35295">
        <ele>2680.4</ele>
        <time>2024-08-12T08:42:43Z</time>
      </trkpt>
      <trkpt lat="44.76736" lon="6.35295">
        <ele>2680.4</ele>
        <time>2024-08-12T08:42:44Z</time>
      </trkpt>
      <trkpt lat="44.76734" lon="6.35297">
        <ele>2680.2</ele>
        <time>2024-08-12T08:42:45Z</time>
      </trkpt>
      <trkpt lat="44.76734" lon="6.35297">
        <ele>2680</ele>
        <time>2024-08-12T08:42:46Z</time>
      </trkpt>
      <trkpt lat="44.76732" lon="6.35298">
        <ele>2679.8</ele>
        <time>2024-08-12T08:42:47Z</time>
      </trkpt>
      <trkpt lat="44.76732" lon="6.35298">
        <ele>2679.8</ele>
        <time>2024-08-12T08:42:48Z</time>
      </trkpt>
      <trkpt lat="44.7673" lon="6.35299">
        <ele>2679.8</ele>
        <time>2024-08-12T08:42:49Z</time>
      </trkpt>
      <trkpt lat="44.7673" lon="6.35299">
        <ele>2679.6</ele>
        <time>2024-08-12T08:42:50Z</time>
      </trkpt>
      <trkpt lat="44.76728" lon="6.353">
        <ele>2679.2</ele>
        <time>2024-08-12T08:42:51Z</time>
      </trkpt>
      <trkpt lat="44.76728" lon="6.353">
        <ele>2679.2</ele>
        <time>2024-08-12T08:42:52Z</time>
      </trkpt>
      <trkpt lat="44.76726" lon="6.35301">
        <ele>2679</ele>
        <time>2024-08-12T08:42:53Z</time>
      </trkpt>
      <trkpt lat="44.76726" lon="6.35301">
        <ele>2679</ele>
        <time>2024-08-12T08:42:54Z</time>
      </trkpt>
      <trkpt lat="44.76724" lon="6.353">
        <ele>2678.8</ele>
        <time>2024-08-12T08:42:55Z</time>
      </trkpt>
      <trkpt lat="44.76724" lon="6.353">
        <ele>2678.8</ele>
        <time>2024-08-12T08:42:56Z</time>
      </trkpt>
      <trkpt lat="44.76722" lon="6.353">
        <ele>2678.6</ele>
        <time>2024-08-12T08:42:57Z</time>
      </trkpt>
      <trkpt lat="44.76722" lon="6.353">
        <ele>2678</ele>
        <time>2024-08-12T08:42:58Z</time>
      </trkpt>
      <trkpt lat="44.7672" lon="6.353">
        <ele>2677.8</ele>
        <time>2024-08-12T08:42:59Z</time>
      </trkpt>
      <trkpt lat="44.7672" lon="6.353">
        <ele>2677.8</ele>
        <time>2024-08-12T08:43:00Z</time>
      </trkpt>
      <trkpt lat="44.76718" lon="6.353">
        <ele>2677.6</ele>
        <time>2024-08-12T08:43:01Z</time>
      </trkpt>
      <trkpt lat="44.76718" lon="6.353">
        <ele>2677.4</ele>
        <time>2024-08-12T08:43:02Z</time>
      </trkpt>
      <trkpt lat="44.76716" lon="6.353">
        <ele>2677.4</ele>
        <time>2024-08-12T08:43:03Z</time>
      </trkpt>
      <trkpt lat="44.76716" lon="6.353">
        <ele>2677</ele>
        <time>2024-08-12T08:43:04Z</time>
      </trkpt>
      <trkpt lat="44.76714" lon="6.35299">
        <ele>2676.6</ele>
        <time>2024-08-12T08:43:05Z</time>
      </trkpt>
      <trkpt lat="44.76714" lon="6.35299">
        <ele>2676.4</ele>
        <time>2024-08-12T08:43:06Z</time>
      </trkpt>
      <trkpt lat="44.76712" lon="6.353">
        <ele>2676.4</ele>
        <time>2024-08-12T08:43:07Z</time>
      </trkpt>
      <trkpt lat="44.76712" lon="6.353">
        <ele>2676.2</ele>
        <time>2024-08-12T08:43:08Z</time>
      </trkpt>
      <trkpt lat="44.76709" lon="6.353">
        <ele>2676.2</ele>
        <time>2024-08-12T08:43:09Z</time>
      </trkpt>
      <trkpt lat="44.76709" lon="6.353">
        <ele>2675.8</ele>
        <time>2024-08-12T08:43:10Z</time>
      </trkpt>
      <trkpt lat="44.76706" lon="6.353">
        <ele>2675.6</ele>
        <time>2024-08-12T08:43:11Z</time>
      </trkpt>
      <trkpt lat="44.76706" lon="6.353">
        <ele>2675.4</ele>
        <time>2024-08-12T08:43:12Z</time>
      </trkpt>
      <trkpt lat="44.76704" lon="6.35298">
        <ele>2675.2</ele>
        <time>2024-08-12T08:43:13Z</time>
      </trkpt>
      <trkpt lat="44.76704" lon="6.35298">
        <ele>2675.2</ele>
        <time>2024-08-12T08:43:14Z</time>
      </trkpt>
      <trkpt lat="44.76702" lon="6.35298">
        <ele>2675</ele>
        <time>2024-08-12T08:43:15Z</time>
      </trkpt>
      <trkpt lat="44.76702" lon="6.35298">
        <ele>2675</ele>
        <time>2024-08-12T08:43:16Z</time>
      </trkpt>
      <trkpt lat="44.76702" lon="6.35298">
        <ele>2675</ele>
        <time>2024-08-12T08:43:17Z</time>
      </trkpt>
      <trkpt lat="44.76701" lon="6.35296">
        <ele>2674.8</ele>
        <time>2024-08-12T08:43:18Z</time>
      </trkpt>
      <trkpt lat="44.76701" lon="6.35296">
        <ele>2674.6</ele>
        <time>2024-08-12T08:43:19Z</time>
      </trkpt>
      <trkpt lat="44.76701" lon="6.35296">
        <ele>2674.6</ele>
        <time>2024-08-12T08:43:20Z</time>
      </trkpt>
      <trkpt lat="44.76701" lon="6.35296">
        <ele>2674.2</ele>
        <time>2024-08-12T08:43:21Z</time>
      </trkpt>
      <trkpt lat="44.76701" lon="6.35296">
        <ele>2673.8</ele>
        <time>2024-08-12T08:43:22Z</time>
      </trkpt>
      <trkpt lat="44.76701" lon="6.35293">
        <ele>2673.6</ele>
        <time>2024-08-12T08:43:23Z</time>
      </trkpt>
      <trkpt lat="44.76701" lon="6.35293">
        <ele>2673.4</ele>
        <time>2024-08-12T08:43:24Z</time>
      </trkpt>
      <trkpt lat="44.76699" lon="6.35293">
        <ele>2673.2</ele>
        <time>2024-08-12T08:43:25Z</time>
      </trkpt>
      <trkpt lat="44.76699" lon="6.35293">
        <ele>2673</ele>
        <time>2024-08-12T08:43:26Z</time>
      </trkpt>
      <trkpt lat="44.76696" lon="6.35294">
        <ele>2672.8</ele>
        <time>2024-08-12T08:43:27Z</time>
      </trkpt>
      <trkpt lat="44.76696" lon="6.35294">
        <ele>2672.6</ele>
        <time>2024-08-12T08:43:28Z</time>
      </trkpt>
      <trkpt lat="44.76694" lon="6.35295">
        <ele>2672.6</ele>
        <time>2024-08-12T08:43:29Z</time>
      </trkpt>
      <trkpt lat="44.76694" lon="6.35295">
        <ele>2672.4</ele>
        <time>2024-08-12T08:43:30Z</time>
      </trkpt>
      <trkpt lat="44.76692" lon="6.35296">
        <ele>2672.2</ele>
        <time>2024-08-12T08:43:31Z</time>
      </trkpt>
      <trkpt lat="44.76692" lon="6.35296">
        <ele>2672.2</ele>
        <time>2024-08-12T08:43:32Z</time>
      </trkpt>
      <trkpt lat="44.76691" lon="6.35299">
        <ele>2672.2</ele>
        <time>2024-08-12T08:43:33Z</time>
      </trkpt>
      <trkpt lat="44.76691" lon="6.35299">
        <ele>2672.2</ele>
        <time>2024-08-12T08:43:34Z</time>
      </trkpt>
      <trkpt lat="44.76689" lon="6.35301">
        <ele>2672</ele>
        <time>2024-08-12T08:43:35Z</time>
      </trkpt>
      <trkpt lat="44.76689" lon="6.35301">
        <ele>2672</ele>
        <time>2024-08-12T08:43:36Z</time>
      </trkpt>
      <trkpt lat="44.76689" lon="6.35301">
        <ele>2671.8</ele>
        <time>2024-08-12T08:43:37Z</time>
      </trkpt>
      <trkpt lat="44.76687" lon="6.353">
        <ele>2671.8</ele>
        <time>2024-08-12T08:43:38Z</time>
      </trkpt>
      <trkpt lat="44.76687" lon="6.353">
        <ele>2671.8</ele>
        <time>2024-08-12T08:43:39Z</time>
      </trkpt>
      <trkpt lat="44.76687" lon="6.353">
        <ele>2671.6</ele>
        <time>2024-08-12T08:43:40Z</time>
      </trkpt>
      <trkpt lat="44.76685" lon="6.353">
        <ele>2671.6</ele>
        <time>2024-08-12T08:43:41Z</time>
      </trkpt>
      <trkpt lat="44.76685" lon="6.353">
        <ele>2671.4</ele>
        <time>2024-08-12T08:43:42Z</time>
      </trkpt>
      <trkpt lat="44.76683" lon="6.353">
        <ele>2671.2</ele>
        <time>2024-08-12T08:43:43Z</time>
      </trkpt>
      <trkpt lat="44.76683" lon="6.353">
        <ele>2671</ele>
        <time>2024-08-12T08:43:44Z</time>
      </trkpt>
      <trkpt lat="44.76681" lon="6.353">
        <ele>2670.8</ele>
        <time>2024-08-12T08:43:45Z</time>
      </trkpt>
      <trkpt lat="44.76681" lon="6.353">
        <ele>2670.8</ele>
        <time>2024-08-12T08:43:46Z</time>
      </trkpt>
      <trkpt lat="44.76679" lon="6.353">
        <ele>2670.6</ele>
        <time>2024-08-12T08:43:47Z</time>
      </trkpt>
      <trkpt lat="44.76679" lon="6.353">
        <ele>2670</ele>
        <time>2024-08-12T08:43:48Z</time>
      </trkpt>
      <trkpt lat="44.76679" lon="6.353">
        <ele>2670</ele>
        <time>2024-08-12T08:43:49Z</time>
      </trkpt>
      <trkpt lat="44.76677" lon="6.35299">
        <ele>2669.6</ele>
        <time>2024-08-12T08:43:50Z</time>
      </trkpt>
      <trkpt lat="44.76677" lon="6.35299">
        <ele>2669.6</ele>
        <time>2024-08-12T08:43:51Z</time>
      </trkpt>
      <trkpt lat="44.76675" lon="6.35299">
        <ele>2669.6</ele>
        <time>2024-08-12T08:43:52Z</time>
      </trkpt>
      <trkpt lat="44.76675" lon="6.35299">
        <ele>2669.2</ele>
        <time>2024-08-12T08:43:53Z</time>
      </trkpt>
      <trkpt lat="44.76675" lon="6.35299">
        <ele>2668.8</ele>
        <time>2024-08-12T08:43:54Z</time>
      </trkpt>
      <trkpt lat="44.76672" lon="6.353">
        <ele>2668.4</ele>
        <time>2024-08-12T08:43:55Z</time>
      </trkpt>
      <trkpt lat="44.76672" lon="6.353">
        <ele>2668.4</ele>
        <time>2024-08-12T08:43:56Z</time>
      </trkpt>
      <trkpt lat="44.76672" lon="6.353">
        <ele>2668.4</ele>
        <time>2024-08-12T08:43:57Z</time>
      </trkpt>
      <trkpt lat="44.7667" lon="6.353">
        <ele>2668</ele>
        <time>2024-08-12T08:43:58Z</time>
      </trkpt>
      <trkpt lat="44.7667" lon="6.353">
        <ele>2667.8</ele>
        <time>2024-08-12T08:43:59Z</time>
      </trkpt>
      <trkpt lat="44.76668" lon="6.35301">
        <ele>2667.8</ele>
        <time>2024-08-12T08:44:00Z</time>
      </trkpt>
      <trkpt lat="44.76668" lon="6.35301">
        <ele>2667.4</ele>
        <time>2024-08-12T08:44:01Z</time>
      </trkpt>
      <trkpt lat="44.76668" lon="6.35301">
        <ele>2667</ele>
        <time>2024-08-12T08:44:02Z</time>
      </trkpt>
      <trkpt lat="44.76668" lon="6.35301">
        <ele>2667</ele>
        <time>2024-08-12T08:44:03Z</time>
      </trkpt>
      <trkpt lat="44.76668" lon="6.35301">
        <ele>2667</ele>
        <time>2024-08-12T08:44:04Z</time>
      </trkpt>
      <trkpt lat="44.76668" lon="6.35301">
        <ele>2667</ele>
        <time>2024-08-12T08:44:05Z</time>
      </trkpt>
      <trkpt lat="44.76668" lon="6.35301">
        <ele>2667</ele>
        <time>2024-08-12T08:44:06Z</time>
      </trkpt>
      <trkpt lat="44.76668" lon="6.35301">
        <ele>2667</ele>
        <time>2024-08-12T08:44:07Z</time>
      </trkpt>
      <trkpt lat="44.76668" lon="6.35301">
        <ele>2667.2</ele>
        <time>2024-08-12T08:44:08Z</time>
      </trkpt>
      <trkpt lat="44.76668" lon="6.35301">
        <ele>2667.2</ele>
        <time>2024-08-12T08:44:09Z</time>
      </trkpt>
      <trkpt lat="44.76668" lon="6.35301">
        <ele>2667</ele>
        <time>2024-08-12T08:44:10Z</time>
      </trkpt>
      <trkpt lat="44.76668" lon="6.35301">
        <ele>2667</ele>
        <time>2024-08-12T08:44:11Z</time>
      </trkpt>
      <trkpt lat="44.76668" lon="6.35301">
        <ele>2667</ele>
        <time>2024-08-12T08:44:12Z</time>
      </trkpt>
      <trkpt lat="44.76668" lon="6.35301">
        <ele>2667</ele>
        <time>2024-08-12T08:44:13Z</time>
      </trkpt>
      <trkpt lat="44.76668" lon="6.35301">
        <ele>2667.2</ele>
        <time>2024-08-12T08:44:14Z</time>
      </trkpt>
      <trkpt lat="44.76668" lon="6.35301">
        <ele>2667.2</ele>
        <time>2024-08-12T08:44:15Z</time>
      </trkpt>
      <trkpt lat="44.76668" lon="6.35301">
        <ele>2666.8</ele>
        <time>2024-08-12T08:44:16Z</time>
      </trkpt>
      <trkpt lat="44.76668" lon="6.35301">
        <ele>2666.8</ele>
        <time>2024-08-12T08:44:17Z</time>
      </trkpt>
      <trkpt lat="44.76668" lon="6.35301">
        <ele>2667</ele>
        <time>2024-08-12T08:44:18Z</time>
      </trkpt>
      <trkpt lat="44.76668" lon="6.35301">
        <ele>2667</ele>
        <time>2024-08-12T08:44:19Z</time>
      </trkpt>
      <trkpt lat="44.76668" lon="6.35301">
        <ele>2667</ele>
        <time>2024-08-12T08:44:20Z</time>
      </trkpt>
      <trkpt lat="44.76668" lon="6.35301">
        <ele>2667.2</ele>
        <time>2024-08-12T08:44:21Z</time>
      </trkpt>
      <trkpt lat="44.76668" lon="6.35301">
        <ele>2667.2</ele>
        <time>2024-08-12T08:44:22Z</time>
      </trkpt>
      <trkpt lat="44.76668" lon="6.35301">
        <ele>2667</ele>
        <time>2024-08-12T08:44:23Z</time>
      </trkpt>
      <trkpt lat="44.76668" lon="6.35297">
        <ele>2666.8</ele>
        <time>2024-08-12T08:44:24Z</time>
      </trkpt>
      <trkpt lat="44.76668" lon="6.35297">
        <ele>2666.6</ele>
        <time>2024-08-12T08:44:25Z</time>
      </trkpt>
      <trkpt lat="44.76668" lon="6.35292">
        <ele>2666.4</ele>
        <time>2024-08-12T08:44:26Z</time>
      </trkpt>
      <trkpt lat="44.76668" lon="6.3529">
        <ele>2666.2</ele>
        <time>2024-08-12T08:44:27Z</time>
      </trkpt>
      <trkpt lat="44.76668" lon="6.3529">
        <ele>2666</ele>
        <time>2024-08-12T08:44:28Z</time>
      </trkpt>
      <trkpt lat="44.76666" lon="6.35286">
        <ele>2665.8</ele>
        <time>2024-08-12T08:44:29Z</time>
      </trkpt>
      <trkpt lat="44.76666" lon="6.35286">
        <ele>2665.6</ele>
        <time>2024-08-12T08:44:30Z</time>
      </trkpt>
      <trkpt lat="44.76664" lon="6.35284">
        <ele>2665.6</ele>
        <time>2024-08-12T08:44:31Z</time>
      </trkpt>
      <trkpt lat="44.76664" lon="6.35284">
        <ele>2665.6</ele>
        <time>2024-08-12T08:44:32Z</time>
      </trkpt>
      <trkpt lat="44.76664" lon="6.35284">
        <ele>2665.4</ele>
        <time>2024-08-12T08:44:33Z</time>
      </trkpt>
      <trkpt lat="44.76663" lon="6.3528">
        <ele>2665</ele>
        <time>2024-08-12T08:44:34Z</time>
      </trkpt>
      <trkpt lat="44.76663" lon="6.3528">
        <ele>2664.8</ele>
        <time>2024-08-12T08:44:35Z</time>
      </trkpt>
      <trkpt lat="44.76662" lon="6.35278">
        <ele>2664.6</ele>
        <time>2024-08-12T08:44:36Z</time>
      </trkpt>
      <trkpt lat="44.76662" lon="6.35278">
        <ele>2664.4</ele>
        <time>2024-08-12T08:44:37Z</time>
      </trkpt>
      <trkpt lat="44.76662" lon="6.35275">
        <ele>2664.2</ele>
        <time>2024-08-12T08:44:38Z</time>
      </trkpt>
      <trkpt lat="44.76662" lon="6.35275">
        <ele>2664</ele>
        <time>2024-08-12T08:44:39Z</time>
      </trkpt>
      <trkpt lat="44.76662" lon="6.35275">
        <ele>2664</ele>
        <time>2024-08-12T08:44:40Z</time>
      </trkpt>
      <trkpt lat="44.76663" lon="6.35272">
        <ele>2663.8</ele>
        <time>2024-08-12T08:44:41Z</time>
      </trkpt>
      <trkpt lat="44.76663" lon="6.35272">
        <ele>2663.8</ele>
        <time>2024-08-12T08:44:42Z</time>
      </trkpt>
      <trkpt lat="44.76664" lon="6.3527">
        <ele>2663.2</ele>
        <time>2024-08-12T08:44:43Z</time>
      </trkpt>
      <trkpt lat="44.76664" lon="6.3527">
        <ele>2663.2</ele>
        <time>2024-08-12T08:44:44Z</time>
      </trkpt>
      <trkpt lat="44.76664" lon="6.3527">
        <ele>2663</ele>
        <time>2024-08-12T08:44:45Z</time>
      </trkpt>
      <trkpt lat="44.76666" lon="6.35267">
        <ele>2663</ele>
        <time>2024-08-12T08:44:46Z</time>
      </trkpt>
      <trkpt lat="44.76666" lon="6.35267">
        <ele>2662.8</ele>
        <time>2024-08-12T08:44:47Z</time>
      </trkpt>
      <trkpt lat="44.76667" lon="6.35264">
        <ele>2662.6</ele>
        <time>2024-08-12T08:44:48Z</time>
      </trkpt>
      <trkpt lat="44.76667" lon="6.35264">
        <ele>2662.4</ele>
        <time>2024-08-12T08:44:49Z</time>
      </trkpt>
      <trkpt lat="44.76668" lon="6.35262">
        <ele>2662.4</ele>
        <time>2024-08-12T08:44:50Z</time>
      </trkpt>
      <trkpt lat="44.76668" lon="6.35262">
        <ele>2662.4</ele>
        <time>2024-08-12T08:44:51Z</time>
      </trkpt>
      <trkpt lat="44.76668" lon="6.35262">
        <ele>2662</ele>
        <time>2024-08-12T08:44:52Z</time>
      </trkpt>
      <trkpt lat="44.76668" lon="6.35262">
        <ele>2662</ele>
        <time>2024-08-12T08:44:53Z</time>
      </trkpt>
      <trkpt lat="44.76669" lon="6.35259">
        <ele>2661.4</ele>
        <time>2024-08-12T08:44:54Z</time>
      </trkpt>
      <trkpt lat="44.76669" lon="6.35259">
        <ele>2661.4</ele>
        <time>2024-08-12T08:44:55Z</time>
      </trkpt>
      <trkpt lat="44.76671" lon="6.35258">
        <ele>2661.2</ele>
        <time>2024-08-12T08:44:56Z</time>
      </trkpt>
      <trkpt lat="44.76671" lon="6.35258">
        <ele>2661</ele>
        <time>2024-08-12T08:44:57Z</time>
      </trkpt>
      <trkpt lat="44.76671" lon="6.35258">
        <ele>2661</ele>
        <time>2024-08-12T08:44:58Z</time>
      </trkpt>
      <trkpt lat="44.76672" lon="6.35255">
        <ele>2660.8</ele>
        <time>2024-08-12T08:44:59Z</time>
      </trkpt>
      <trkpt lat="44.76672" lon="6.35255">
        <ele>2660.6</ele>
        <time>2024-08-12T08:45:00Z</time>
      </trkpt>
      <trkpt lat="44.76674" lon="6.35253">
        <ele>2660.6</ele>
        <time>2024-08-12T08:45:01Z</time>
      </trkpt>
      <trkpt lat="44.76674" lon="6.35253">
        <ele>2660.4</ele>
        <time>2024-08-12T08:45:02Z</time>
      </trkpt>
      <trkpt lat="44.76674" lon="6.35253">
        <ele>2660.4</ele>
        <time>2024-08-12T08:45:03Z</time>
      </trkpt>
      <trkpt lat="44.76676" lon="6.35252">
        <ele>2660.4</ele>
        <time>2024-08-12T08:45:04Z</time>
      </trkpt>
      <trkpt lat="44.76676" lon="6.35252">
        <ele>2660</ele>
        <time>2024-08-12T08:45:05Z</time>
      </trkpt>
      <trkpt lat="44.76677" lon="6.3525">
        <ele>2659.8</ele>
        <time>2024-08-12T08:45:06Z</time>
      </trkpt>
      <trkpt lat="44.76677" lon="6.3525">
        <ele>2659.4</ele>
        <time>2024-08-12T08:45:07Z</time>
      </trkpt>
      <trkpt lat="44.76679" lon="6.35247">
        <ele>2659.4</ele>
        <time>2024-08-12T08:45:08Z</time>
      </trkpt>
      <trkpt lat="44.76679" lon="6.35247">
        <ele>2659.2</ele>
        <time>2024-08-12T08:45:09Z</time>
      </trkpt>
      <trkpt lat="44.76681" lon="6.35245">
        <ele>2659.2</ele>
        <time>2024-08-12T08:45:10Z</time>
      </trkpt>
      <trkpt lat="44.76681" lon="6.35245">
        <ele>2658.8</ele>
        <time>2024-08-12T08:45:11Z</time>
      </trkpt>
      <trkpt lat="44.76682" lon="6.35242">
        <ele>2658.6</ele>
        <time>2024-08-12T08:45:12Z</time>
      </trkpt>
      <trkpt lat="44.76682" lon="6.35242">
        <ele>2658.2</ele>
        <time>2024-08-12T08:45:13Z</time>
      </trkpt>
      <trkpt lat="44.76683" lon="6.35238">
        <ele>2658.2</ele>
        <time>2024-08-12T08:45:14Z</time>
      </trkpt>
      <trkpt lat="44.76683" lon="6.35238">
        <ele>2657.8</ele>
        <time>2024-08-12T08:45:15Z</time>
      </trkpt>
      <trkpt lat="44.76682" lon="6.35235">
        <ele>2657.8</ele>
        <time>2024-08-12T08:45:16Z</time>
      </trkpt>
      <trkpt lat="44.76682" lon="6.35235">
        <ele>2657.6</ele>
        <time>2024-08-12T08:45:17Z</time>
      </trkpt>
      <trkpt lat="44.76681" lon="6.35231">
        <ele>2657.6</ele>
        <time>2024-08-12T08:45:18Z</time>
      </trkpt>
      <trkpt lat="44.76681" lon="6.35231">
        <ele>2657.4</ele>
        <time>2024-08-12T08:45:19Z</time>
      </trkpt>
      <trkpt lat="44.7668" lon="6.35228">
        <ele>2657.2</ele>
        <time>2024-08-12T08:45:20Z</time>
      </trkpt>
      <trkpt lat="44.7668" lon="6.35228">
        <ele>2657.2</ele>
        <time>2024-08-12T08:45:21Z</time>
      </trkpt>
      <trkpt lat="44.7668" lon="6.35225">
        <ele>2657.2</ele>
        <time>2024-08-12T08:45:22Z</time>
      </trkpt>
      <trkpt lat="44.7668" lon="6.35225">
        <ele>2657.2</ele>
        <time>2024-08-12T08:45:23Z</time>
      </trkpt>
      <trkpt lat="44.7668" lon="6.35225">
        <ele>2657</ele>
        <time>2024-08-12T08:45:24Z</time>
      </trkpt>
      <trkpt lat="44.76679" lon="6.35221">
        <ele>2656.8</ele>
        <time>2024-08-12T08:45:25Z</time>
      </trkpt>
      <trkpt lat="44.76679" lon="6.35221">
        <ele>2656.8</ele>
        <time>2024-08-12T08:45:26Z</time>
      </trkpt>
      <trkpt lat="44.76679" lon="6.35218">
        <ele>2656.8</ele>
        <time>2024-08-12T08:45:27Z</time>
      </trkpt>
      <trkpt lat="44.76679" lon="6.35218">
        <ele>2656.8</ele>
        <time>2024-08-12T08:45:28Z</time>
      </trkpt>
      <trkpt lat="44.76679" lon="6.35218">
        <ele>2656.8</ele>
        <time>2024-08-12T08:45:29Z</time>
      </trkpt>
      <trkpt lat="44.76679" lon="6.35218">
        <ele>2656.8</ele>
        <time>2024-08-12T08:45:30Z</time>
      </trkpt>
      <trkpt lat="44.76679" lon="6.35215">
        <ele>2656.8</ele>
        <time>2024-08-12T08:45:31Z</time>
      </trkpt>
      <trkpt lat="44.76679" lon="6.35215">
        <ele>2656.8</ele>
        <time>2024-08-12T08:45:32Z</time>
      </trkpt>
      <trkpt lat="44.76679" lon="6.35215">
        <ele>2656.8</ele>
        <time>2024-08-12T08:45:33Z</time>
      </trkpt>
      <trkpt lat="44.76679" lon="6.35211">
        <ele>2656.8</ele>
        <time>2024-08-12T08:45:34Z</time>
      </trkpt>
      <trkpt lat="44.76679" lon="6.35211">
        <ele>2656.6</ele>
        <time>2024-08-12T08:45:35Z</time>
      </trkpt>
      <trkpt lat="44.76678" lon="6.35209">
        <ele>2656.6</ele>
        <time>2024-08-12T08:45:36Z</time>
      </trkpt>
      <trkpt lat="44.76678" lon="6.35209">
        <ele>2656.6</ele>
        <time>2024-08-12T08:45:37Z</time>
      </trkpt>
      <trkpt lat="44.76678" lon="6.35206">
        <ele>2656.6</ele>
        <time>2024-08-12T08:45:38Z</time>
      </trkpt>
      <trkpt lat="44.76678" lon="6.35206">
        <ele>2656.6</ele>
        <time>2024-08-12T08:45:39Z</time>
      </trkpt>
      <trkpt lat="44.76678" lon="6.35206">
        <ele>2656.2</ele>
        <time>2024-08-12T08:45:40Z</time>
      </trkpt>
      <trkpt lat="44.76678" lon="6.35202">
        <ele>2656</ele>
        <time>2024-08-12T08:45:41Z</time>
      </trkpt>
      <trkpt lat="44.76678" lon="6.35202">
        <ele>2656</ele>
        <time>2024-08-12T08:45:42Z</time>
      </trkpt>
      <trkpt lat="44.76678" lon="6.35202">
        <ele>2655.8</ele>
        <time>2024-08-12T08:45:43Z</time>
      </trkpt>
      <trkpt lat="44.76678" lon="6.35199">
        <ele>2655.6</ele>
        <time>2024-08-12T08:45:44Z</time>
      </trkpt>
      <trkpt lat="44.76678" lon="6.35199">
        <ele>2655.4</ele>
        <time>2024-08-12T08:45:45Z</time>
      </trkpt>
      <trkpt lat="44.76679" lon="6.35196">
        <ele>2655.2</ele>
        <time>2024-08-12T08:45:46Z</time>
      </trkpt>
      <trkpt lat="44.76679" lon="6.35196">
        <ele>2655</ele>
        <time>2024-08-12T08:45:47Z</time>
      </trkpt>
      <trkpt lat="44.76679" lon="6.35193">
        <ele>2654.8</ele>
        <time>2024-08-12T08:45:48Z</time>
      </trkpt>
      <trkpt lat="44.76679" lon="6.35193">
        <ele>2654.8</ele>
        <time>2024-08-12T08:45:49Z</time>
      </trkpt>
      <trkpt lat="44.76678" lon="6.35191">
        <ele>2654.8</ele>
        <time>2024-08-12T08:45:50Z</time>
      </trkpt>
      <trkpt lat="44.76678" lon="6.35191">
        <ele>2654.4</ele>
        <time>2024-08-12T08:45:51Z</time>
      </trkpt>
      <trkpt lat="44.76678" lon="6.35191">
        <ele>2654.4</ele>
        <time>2024-08-12T08:45:52Z</time>
      </trkpt>
      <trkpt lat="44.76677" lon="6.35187">
        <ele>2654</ele>
        <time>2024-08-12T08:45:53Z</time>
      </trkpt>
      <trkpt lat="44.76677" lon="6.35187">
        <ele>2653.2</ele>
        <time>2024-08-12T08:45:54Z</time>
      </trkpt>
      <trkpt lat="44.76676" lon="6.35185">
        <ele>2653</ele>
        <time>2024-08-12T08:45:55Z</time>
      </trkpt>
      <trkpt lat="44.76676" lon="6.35185">
        <ele>2652.8</ele>
        <time>2024-08-12T08:45:56Z</time>
      </trkpt>
      <trkpt lat="44.76676" lon="6.35181">
        <ele>2652.6</ele>
        <time>2024-08-12T08:45:57Z</time>
      </trkpt>
      <trkpt lat="44.76676" lon="6.35181">
        <ele>2652.2</ele>
        <time>2024-08-12T08:45:58Z</time>
      </trkpt>
      <trkpt lat="44.76675" lon="6.35178">
        <ele>2652.2</ele>
        <time>2024-08-12T08:45:59Z</time>
      </trkpt>
      <trkpt lat="44.76675" lon="6.35178">
        <ele>2652</ele>
        <time>2024-08-12T08:46:00Z</time>
      </trkpt>
      <trkpt lat="44.76675" lon="6.35175">
        <ele>2652</ele>
        <time>2024-08-12T08:46:01Z</time>
      </trkpt>
      <trkpt lat="44.76675" lon="6.35175">
        <ele>2651.4</ele>
        <time>2024-08-12T08:46:02Z</time>
      </trkpt>
      <trkpt lat="44.76674" lon="6.35173">
        <ele>2651.4</ele>
        <time>2024-08-12T08:46:03Z</time>
      </trkpt>
      <trkpt lat="44.76674" lon="6.35173">
        <ele>2651</ele>
        <time>2024-08-12T08:46:04Z</time>
      </trkpt>
      <trkpt lat="44.76674" lon="6.35173">
        <ele>2650.8</ele>
        <time>2024-08-12T08:46:05Z</time>
      </trkpt>
      <trkpt lat="44.76673" lon="6.3517">
        <ele>2650.4</ele>
        <time>2024-08-12T08:46:06Z</time>
      </trkpt>
      <trkpt lat="44.76673" lon="6.3517">
        <ele>2650.2</ele>
        <time>2024-08-12T08:46:07Z</time>
      </trkpt>
      <trkpt lat="44.76673" lon="6.3517">
        <ele>2650.2</ele>
        <time>2024-08-12T08:46:08Z</time>
      </trkpt>
      <trkpt lat="44.76673" lon="6.3517">
        <ele>2650.2</ele>
        <time>2024-08-12T08:46:09Z</time>
      </trkpt>
      <trkpt lat="44.76673" lon="6.3517">
        <ele>2649.8</ele>
        <time>2024-08-12T08:46:10Z</time>
      </trkpt>
      <trkpt lat="44.76673" lon="6.3517">
        <ele>2649.8</ele>
        <time>2024-08-12T08:46:11Z</time>
      </trkpt>
      <trkpt lat="44.76672" lon="6.35172">
        <ele>2649.8</ele>
        <time>2024-08-12T08:46:12Z</time>
      </trkpt>
      <trkpt lat="44.76672" lon="6.35172">
        <ele>2649.8</ele>
        <time>2024-08-12T08:46:13Z</time>
      </trkpt>
      <trkpt lat="44.76672" lon="6.35172">
        <ele>2649.8</ele>
        <time>2024-08-12T08:46:14Z</time>
      </trkpt>
      <trkpt lat="44.76672" lon="6.35172">
        <ele>2649.8</ele>
        <time>2024-08-12T08:46:15Z</time>
      </trkpt>
      <trkpt lat="44.76672" lon="6.35172">
        <ele>2649.6</ele>
        <time>2024-08-12T08:46:16Z</time>
      </trkpt>
      <trkpt lat="44.76672" lon="6.35172">
        <ele>2649.4</ele>
        <time>2024-08-12T08:46:17Z</time>
      </trkpt>
      <trkpt lat="44.76672" lon="6.35172">
        <ele>2649.4</ele>
        <time>2024-08-12T08:46:18Z</time>
      </trkpt>
      <trkpt lat="44.76672" lon="6.35172">
        <ele>2649.8</ele>
        <time>2024-08-12T08:46:19Z</time>
      </trkpt>
      <trkpt lat="44.76672" lon="6.35172">
        <ele>2649.8</ele>
        <time>2024-08-12T08:46:20Z</time>
      </trkpt>
      <trkpt lat="44.76672" lon="6.35172">
        <ele>2649.8</ele>
        <time>2024-08-12T08:46:21Z</time>
      </trkpt>
      <trkpt lat="44.76672" lon="6.35172">
        <ele>2650</ele>
        <time>2024-08-12T08:46:22Z</time>
      </trkpt>
      <trkpt lat="44.76672" lon="6.35172">
        <ele>2650</ele>
        <time>2024-08-12T08:46:23Z</time>
      </trkpt>
      <trkpt lat="44.76672" lon="6.35172">
        <ele>2650</ele>
        <time>2024-08-12T08:46:24Z</time>
      </trkpt>
      <trkpt lat="44.76672" lon="6.35176">
        <ele>2650</ele>
        <time>2024-08-12T08:46:25Z</time>
      </trkpt>
      <trkpt lat="44.76672" lon="6.35176">
        <ele>2650</ele>
        <time>2024-08-12T08:46:26Z</time>
      </trkpt>
      <trkpt lat="44.76671" lon="6.3518">
        <ele>2650</ele>
        <time>2024-08-12T08:46:27Z</time>
      </trkpt>
      <trkpt lat="44.76671" lon="6.3518">
        <ele>2649.8</ele>
        <time>2024-08-12T08:46:28Z</time>
      </trkpt>
      <trkpt lat="44.7667" lon="6.35183">
        <ele>2649.6</ele>
        <time>2024-08-12T08:46:29Z</time>
      </trkpt>
      <trkpt lat="44.7667" lon="6.35183">
        <ele>2649.2</ele>
        <time>2024-08-12T08:46:30Z</time>
      </trkpt>
      <trkpt lat="44.7667" lon="6.35187">
        <ele>2649.2</ele>
        <time>2024-08-12T08:46:31Z</time>
      </trkpt>
      <trkpt lat="44.7667" lon="6.35187">
        <ele>2649.2</ele>
        <time>2024-08-12T08:46:32Z</time>
      </trkpt>
      <trkpt lat="44.76669" lon="6.3519">
        <ele>2648.8</ele>
        <time>2024-08-12T08:46:33Z</time>
      </trkpt>
      <trkpt lat="44.76669" lon="6.3519">
        <ele>2648.8</ele>
        <time>2024-08-12T08:46:34Z</time>
      </trkpt>
      <trkpt lat="44.76669" lon="6.3519">
        <ele>2648.6</ele>
        <time>2024-08-12T08:46:35Z</time>
      </trkpt>
      <trkpt lat="44.76668" lon="6.35194">
        <ele>2648.6</ele>
        <time>2024-08-12T08:46:36Z</time>
      </trkpt>
      <trkpt lat="44.76668" lon="6.35194">
        <ele>2648.2</ele>
        <time>2024-08-12T08:46:37Z</time>
      </trkpt>
      <trkpt lat="44.76666" lon="6.35196">
        <ele>2648.2</ele>
        <time>2024-08-12T08:46:38Z</time>
      </trkpt>
      <trkpt lat="44.76666" lon="6.35196">
        <ele>2648.2</ele>
        <time>2024-08-12T08:46:39Z</time>
      </trkpt>
      <trkpt lat="44.76664" lon="6.35196">
        <ele>2648.2</ele>
        <time>2024-08-12T08:46:40Z</time>
      </trkpt>
      <trkpt lat="44.76664" lon="6.35196">
        <ele>2648</ele>
        <time>2024-08-12T08:46:41Z</time>
      </trkpt>
      <trkpt lat="44.76662" lon="6.35197">
        <ele>2647.8</ele>
        <time>2024-08-12T08:46:42Z</time>
      </trkpt>
      <trkpt lat="44.76662" lon="6.35197">
        <ele>2647.4</ele>
        <time>2024-08-12T08:46:43Z</time>
      </trkpt>
      <trkpt lat="44.7666" lon="6.35196">
        <ele>2647.2</ele>
        <time>2024-08-12T08:46:44Z</time>
      </trkpt>
      <trkpt lat="44.7666" lon="6.35196">
        <ele>2646.8</ele>
        <time>2024-08-12T08:46:45Z</time>
      </trkpt>
      <trkpt lat="44.7666" lon="6.35196">
        <ele>2646.6</ele>
        <time>2024-08-12T08:46:46Z</time>
      </trkpt>
      <trkpt lat="44.76658" lon="6.35194">
        <ele>2646.4</ele>
        <time>2024-08-12T08:46:47Z</time>
      </trkpt>
      <trkpt lat="44.76658" lon="6.35194">
        <ele>2646.2</ele>
        <time>2024-08-12T08:46:48Z</time>
      </trkpt>
      <trkpt lat="44.76657" lon="6.35191">
        <ele>2645.6</ele>
        <time>2024-08-12T08:46:49Z</time>
      </trkpt>
      <trkpt lat="44.76657" lon="6.35191">
        <ele>2645.4</ele>
        <time>2024-08-12T08:46:50Z</time>
      </trkpt>
      <trkpt lat="44.76657" lon="6.35191">
        <ele>2645.2</ele>
        <time>2024-08-12T08:46:51Z</time>
      </trkpt>
      <trkpt lat="44.76655" lon="6.35188">
        <ele>2645</ele>
        <time>2024-08-12T08:46:52Z</time>
      </trkpt>
      <trkpt lat="44.76655" lon="6.35188">
        <ele>2644.6</ele>
        <time>2024-08-12T08:46:53Z</time>
      </trkpt>
      <trkpt lat="44.76655" lon="6.35188">
        <ele>2644.6</ele>
        <time>2024-08-12T08:46:54Z</time>
      </trkpt>
      <trkpt lat="44.76654" lon="6.35184">
        <ele>2644.4</ele>
        <time>2024-08-12T08:46:55Z</time>
      </trkpt>
      <trkpt lat="44.76654" lon="6.35184">
        <ele>2644.2</ele>
        <time>2024-08-12T08:46:56Z</time>
      </trkpt>
      <trkpt lat="44.76653" lon="6.35182">
        <ele>2643.8</ele>
        <time>2024-08-12T08:46:57Z</time>
      </trkpt>
      <trkpt lat="44.76653" lon="6.35182">
        <ele>2643.4</ele>
        <time>2024-08-12T08:46:58Z</time>
      </trkpt>
      <trkpt lat="44.76652" lon="6.3518">
        <ele>2643.2</ele>
        <time>2024-08-12T08:46:59Z</time>
      </trkpt>
      <trkpt lat="44.76652" lon="6.3518">
        <ele>2643.2</ele>
        <time>2024-08-12T08:47:00Z</time>
      </trkpt>
      <trkpt lat="44.76652" lon="6.3518">
        <ele>2642.8</ele>
        <time>2024-08-12T08:47:01Z</time>
      </trkpt>
      <trkpt lat="44.7665" lon="6.35177">
        <ele>2642.2</ele>
        <time>2024-08-12T08:47:02Z</time>
      </trkpt>
      <trkpt lat="44.7665" lon="6.35177">
        <ele>2642.2</ele>
        <time>2024-08-12T08:47:03Z</time>
      </trkpt>
      <trkpt lat="44.7665" lon="6.35177">
        <ele>2642.2</ele>
        <time>2024-08-12T08:47:04Z</time>
      </trkpt>
      <trkpt lat="44.76648" lon="6.35175">
        <ele>2642.2</ele>
        <time>2024-08-12T08:47:05Z</time>
      </trkpt>
      <trkpt lat="44.76648" lon="6.35175">
        <ele>2642</ele>
        <time>2024-08-12T08:47:06Z</time>
      </trkpt>
      <trkpt lat="44.76646" lon="6.35174">
        <ele>2641.6</ele>
        <time>2024-08-12T08:47:07Z</time>
      </trkpt>
      <trkpt lat="44.76646" lon="6.35174">
        <ele>2641.6</ele>
        <time>2024-08-12T08:47:08Z</time>
      </trkpt>
      <trkpt lat="44.76644" lon="6.35174">
        <ele>2641.6</ele>
        <time>2024-08-12T08:47:09Z</time>
      </trkpt>
      <trkpt lat="44.76644" lon="6.35174">
        <ele>2641.6</ele>
        <time>2024-08-12T08:47:10Z</time>
      </trkpt>
      <trkpt lat="44.76644" lon="6.35174">
        <ele>2641.4</ele>
        <time>2024-08-12T08:47:11Z</time>
      </trkpt>
      <trkpt lat="44.76642" lon="6.35172">
        <ele>2641.4</ele>
        <time>2024-08-12T08:47:12Z</time>
      </trkpt>
      <trkpt lat="44.76642" lon="6.35172">
        <ele>2641</ele>
        <time>2024-08-12T08:47:13Z</time>
      </trkpt>
      <trkpt lat="44.7664" lon="6.35172">
        <ele>2640.8</ele>
        <time>2024-08-12T08:47:14Z</time>
      </trkpt>
      <trkpt lat="44.7664" lon="6.35172">
        <ele>2640.6</ele>
        <time>2024-08-12T08:47:15Z</time>
      </trkpt>
      <trkpt lat="44.7664" lon="6.35172">
        <ele>2640.4</ele>
        <time>2024-08-12T08:47:16Z</time>
      </trkpt>
      <trkpt lat="44.76638" lon="6.35174">
        <ele>2640</ele>
        <time>2024-08-12T08:47:17Z</time>
      </trkpt>
      <trkpt lat="44.76638" lon="6.35174">
        <ele>2639.8</ele>
        <time>2024-08-12T08:47:18Z</time>
      </trkpt>
      <trkpt lat="44.76638" lon="6.35178">
        <ele>2639.6</ele>
        <time>2024-08-12T08:47:19Z</time>
      </trkpt>
      <trkpt lat="44.76638" lon="6.35178">
        <ele>2639.2</ele>
        <time>2024-08-12T08:47:20Z</time>
      </trkpt>
      <trkpt lat="44.76638" lon="6.35181">
        <ele>2639</ele>
        <time>2024-08-12T08:47:21Z</time>
      </trkpt>
      <trkpt lat="44.76638" lon="6.35181">
        <ele>2638.6</ele>
        <time>2024-08-12T08:47:22Z</time>
      </trkpt>
      <trkpt lat="44.76639" lon="6.35184">
        <ele>2638.4</ele>
        <time>2024-08-12T08:47:23Z</time>
      </trkpt>
      <trkpt lat="44.76639" lon="6.35184">
        <ele>2638.4</ele>
        <time>2024-08-12T08:47:24Z</time>
      </trkpt>
      <trkpt lat="44.76638" lon="6.35188">
        <ele>2638.2</ele>
        <time>2024-08-12T08:47:25Z</time>
      </trkpt>
      <trkpt lat="44.76638" lon="6.35188">
        <ele>2637.8</ele>
        <time>2024-08-12T08:47:26Z</time>
      </trkpt>
      <trkpt lat="44.76638" lon="6.35191">
        <ele>2637.8</ele>
        <time>2024-08-12T08:47:27Z</time>
      </trkpt>
      <trkpt lat="44.76638" lon="6.35191">
        <ele>2637.8</ele>
        <time>2024-08-12T08:47:28Z</time>
      </trkpt>
      <trkpt lat="44.76638" lon="6.35194">
        <ele>2637.4</ele>
        <time>2024-08-12T08:47:29Z</time>
      </trkpt>
      <trkpt lat="44.76638" lon="6.35194">
        <ele>2637.4</ele>
        <time>2024-08-12T08:47:30Z</time>
      </trkpt>
      <trkpt lat="44.76638" lon="6.35196">
        <ele>2637.4</ele>
        <time>2024-08-12T08:47:31Z</time>
      </trkpt>
      <trkpt lat="44.76638" lon="6.35196">
        <ele>2637.4</ele>
        <time>2024-08-12T08:47:32Z</time>
      </trkpt>
      <trkpt lat="44.76637" lon="6.35198">
        <ele>2637.4</ele>
        <time>2024-08-12T08:47:33Z</time>
      </trkpt>
      <trkpt lat="44.76637" lon="6.35198">
        <ele>2637.6</ele>
        <time>2024-08-12T08:47:34Z</time>
      </trkpt>
      <trkpt lat="44.76635" lon="6.352">
        <ele>2637.6</ele>
        <time>2024-08-12T08:47:35Z</time>
      </trkpt>
      <trkpt lat="44.76635" lon="6.352">
        <ele>2637.4</ele>
        <time>2024-08-12T08:47:36Z</time>
      </trkpt>
      <trkpt lat="44.76634" lon="6.35202">
        <ele>2637.2</ele>
        <time>2024-08-12T08:47:37Z</time>
      </trkpt>
      <trkpt lat="44.76634" lon="6.35202">
        <ele>2637</ele>
        <time>2024-08-12T08:47:38Z</time>
      </trkpt>
      <trkpt lat="44.76631" lon="6.35203">
        <ele>2637</ele>
        <time>2024-08-12T08:47:39Z</time>
      </trkpt>
      <trkpt lat="44.76631" lon="6.35203">
        <ele>2637</ele>
        <time>2024-08-12T08:47:40Z</time>
      </trkpt>
      <trkpt lat="44.76629" lon="6.35204">
        <ele>2637</ele>
        <time>2024-08-12T08:47:41Z</time>
      </trkpt>
      <trkpt lat="44.76629" lon="6.35204">
        <ele>2637</ele>
        <time>2024-08-12T08:47:42Z</time>
      </trkpt>
      <trkpt lat="44.76627" lon="6.35205">
        <ele>2637</ele>
        <time>2024-08-12T08:47:43Z</time>
      </trkpt>
      <trkpt lat="44.76627" lon="6.35205">
        <ele>2637</ele>
        <time>2024-08-12T08:47:44Z</time>
      </trkpt>
      <trkpt lat="44.76627" lon="6.35205">
        <ele>2637</ele>
        <time>2024-08-12T08:47:45Z</time>
      </trkpt>
      <trkpt lat="44.76624" lon="6.35206">
        <ele>2636.8</ele>
        <time>2024-08-12T08:47:46Z</time>
      </trkpt>
      <trkpt lat="44.76624" lon="6.35206">
        <ele>2637</ele>
        <time>2024-08-12T08:47:47Z</time>
      </trkpt>
      <trkpt lat="44.76621" lon="6.35207">
        <ele>2636.8</ele>
        <time>2024-08-12T08:47:48Z</time>
      </trkpt>
      <trkpt lat="44.76621" lon="6.35207">
        <ele>2636.8</ele>
        <time>2024-08-12T08:47:49Z</time>
      </trkpt>
      <trkpt lat="44.76619" lon="6.35206">
        <ele>2636.8</ele>
        <time>2024-08-12T08:47:50Z</time>
      </trkpt>
      <trkpt lat="44.76619" lon="6.35206">
        <ele>2636.8</ele>
        <time>2024-08-12T08:47:51Z</time>
      </trkpt>
      <trkpt lat="44.76619" lon="6.35206">
        <ele>2636.8</ele>
        <time>2024-08-12T08:47:52Z</time>
      </trkpt>
      <trkpt lat="44.76618" lon="6.35204">
        <ele>2636</ele>
        <time>2024-08-12T08:47:53Z</time>
      </trkpt>
      <trkpt lat="44.76618" lon="6.35204">
        <ele>2635.6</ele>
        <time>2024-08-12T08:47:54Z</time>
      </trkpt>
      <trkpt lat="44.76619" lon="6.35201">
        <ele>2635.4</ele>
        <time>2024-08-12T08:47:55Z</time>
      </trkpt>
      <trkpt lat="44.76619" lon="6.35201">
        <ele>2635.4</ele>
        <time>2024-08-12T08:47:56Z</time>
      </trkpt>
      <trkpt lat="44.76618" lon="6.35197">
        <ele>2635.2</ele>
        <time>2024-08-12T08:47:57Z</time>
      </trkpt>
      <trkpt lat="44.76618" lon="6.35197">
        <ele>2635</ele>
        <time>2024-08-12T08:47:58Z</time>
      </trkpt>
      <trkpt lat="44.76618" lon="6.35194">
        <ele>2635</ele>
        <time>2024-08-12T08:47:59Z</time>
      </trkpt>
      <trkpt lat="44.76618" lon="6.35194">
        <ele>2635</ele>
        <time>2024-08-12T08:48:00Z</time>
      </trkpt>
      <trkpt lat="44.76618" lon="6.35194">
        <ele>2635</ele>
        <time>2024-08-12T08:48:01Z</time>
      </trkpt>
      <trkpt lat="44.76618" lon="6.35191">
        <ele>2635</ele>
        <time>2024-08-12T08:48:02Z</time>
      </trkpt>
      <trkpt lat="44.76618" lon="6.35191">
        <ele>2635</ele>
        <time>2024-08-12T08:48:03Z</time>
      </trkpt>
      <trkpt lat="44.76619" lon="6.35188">
        <ele>2635</ele>
        <time>2024-08-12T08:48:04Z</time>
      </trkpt>
      <trkpt lat="44.76619" lon="6.35188">
        <ele>2634.8</ele>
        <time>2024-08-12T08:48:05Z</time>
      </trkpt>
      <trkpt lat="44.76619" lon="6.35185">
        <ele>2634.4</ele>
        <time>2024-08-12T08:48:06Z</time>
      </trkpt>
      <trkpt lat="44.76619" lon="6.35185">
        <ele>2634.2</ele>
        <time>2024-08-12T08:48:07Z</time>
      </trkpt>
      <trkpt lat="44.76618" lon="6.35182">
        <ele>2634</ele>
        <time>2024-08-12T08:48:08Z</time>
      </trkpt>
      <trkpt lat="44.76618" lon="6.35182">
        <ele>2634</ele>
        <time>2024-08-12T08:48:09Z</time>
      </trkpt>
      <trkpt lat="44.76617" lon="6.35179">
        <ele>2634</ele>
        <time>2024-08-12T08:48:10Z</time>
      </trkpt>
      <trkpt lat="44.76617" lon="6.35179">
        <ele>2633.8</ele>
        <time>2024-08-12T08:48:11Z</time>
      </trkpt>
      <trkpt lat="44.76616" lon="6.35178">
        <ele>2633.8</ele>
        <time>2024-08-12T08:48:12Z</time>
      </trkpt>
      <trkpt lat="44.76616" lon="6.35178">
        <ele>2633.8</ele>
        <time>2024-08-12T08:48:13Z</time>
      </trkpt>
      <trkpt lat="44.76616" lon="6.35178">
        <ele>2633.8</ele>
        <time>2024-08-12T08:48:14Z</time>
      </trkpt>
      <trkpt lat="44.76613" lon="6.35177">
        <ele>2633.8</ele>
        <time>2024-08-12T08:48:15Z</time>
      </trkpt>
      <trkpt lat="44.76613" lon="6.35177">
        <ele>2633.8</ele>
        <time>2024-08-12T08:48:16Z</time>
      </trkpt>
      <trkpt lat="44.76613" lon="6.35177">
        <ele>2633.4</ele>
        <time>2024-08-12T08:48:17Z</time>
      </trkpt>
      <trkpt lat="44.76613" lon="6.35177">
        <ele>2633.4</ele>
        <time>2024-08-12T08:48:18Z</time>
      </trkpt>
      <trkpt lat="44.76613" lon="6.35177">
        <ele>2633.4</ele>
        <time>2024-08-12T08:48:19Z</time>
      </trkpt>
      <trkpt lat="44.76613" lon="6.35177">
        <ele>2633</ele>
        <time>2024-08-12T08:48:20Z</time>
      </trkpt>
      <trkpt lat="44.76613" lon="6.35177">
        <ele>2633</ele>
        <time>2024-08-12T08:48:21Z</time>
      </trkpt>
      <trkpt lat="44.76613" lon="6.35177">
        <ele>2633</ele>
        <time>2024-08-12T08:48:22Z</time>
      </trkpt>
      <trkpt lat="44.76613" lon="6.35177">
        <ele>2633</ele>
        <time>2024-08-12T08:48:23Z</time>
      </trkpt>
      <trkpt lat="44.76613" lon="6.35177">
        <ele>2632.8</ele>
        <time>2024-08-12T08:48:24Z</time>
      </trkpt>
      <trkpt lat="44.76613" lon="6.35177">
        <ele>2632.8</ele>
        <time>2024-08-12T08:48:25Z</time>
      </trkpt>
      <trkpt lat="44.76611" lon="6.35174">
        <ele>2633</ele>
        <time>2024-08-12T08:48:26Z</time>
      </trkpt>
      <trkpt lat="44.76611" lon="6.35174">
        <ele>2633</ele>
        <time>2024-08-12T08:48:27Z</time>
      </trkpt>
      <trkpt lat="44.76611" lon="6.35174">
        <ele>2632.6</ele>
        <time>2024-08-12T08:48:28Z</time>
      </trkpt>
      <trkpt lat="44.76611" lon="6.35174">
        <ele>2632.4</ele>
        <time>2024-08-12T08:48:29Z</time>
      </trkpt>
      <trkpt lat="44.7661" lon="6.35172">
        <ele>2632.2</ele>
        <time>2024-08-12T08:48:30Z</time>
      </trkpt>
      <trkpt lat="44.7661" lon="6.35172">
        <ele>2632</ele>
        <time>2024-08-12T08:48:31Z</time>
      </trkpt>
      <trkpt lat="44.76609" lon="6.3517">
        <ele>2632</ele>
        <time>2024-08-12T08:48:32Z</time>
      </trkpt>
      <trkpt lat="44.76609" lon="6.3517">
        <ele>2632</ele>
        <time>2024-08-12T08:48:33Z</time>
      </trkpt>
      <trkpt lat="44.76607" lon="6.35168">
        <ele>2632</ele>
        <time>2024-08-12T08:48:34Z</time>
      </trkpt>
      <trkpt lat="44.76607" lon="6.35168">
        <ele>2631.8</ele>
        <time>2024-08-12T08:48:35Z</time>
      </trkpt>
      <trkpt lat="44.76607" lon="6.35168">
        <ele>2631.4</ele>
        <time>2024-08-12T08:48:36Z</time>
      </trkpt>
      <trkpt lat="44.76607" lon="6.35168">
        <ele>2631</ele>
        <time>2024-08-12T08:48:37Z</time>
      </trkpt>
      <trkpt lat="44.76605" lon="6.35167">
        <ele>2631</ele>
        <time>2024-08-12T08:48:38Z</time>
      </trkpt>
      <trkpt lat="44.76605" lon="6.35167">
        <ele>2630.8</ele>
        <time>2024-08-12T08:48:39Z</time>
      </trkpt>
      <trkpt lat="44.76603" lon="6.35167">
        <ele>2630.4</ele>
        <time>2024-08-12T08:48:40Z</time>
      </trkpt>
      <trkpt lat="44.76603" lon="6.35167">
        <ele>2630.4</ele>
        <time>2024-08-12T08:48:41Z</time>
      </trkpt>
      <trkpt lat="44.76603" lon="6.35167">
        <ele>2630.4</ele>
        <time>2024-08-12T08:48:42Z</time>
      </trkpt>
      <trkpt lat="44.76601" lon="6.35165">
        <ele>2630.2</ele>
        <time>2024-08-12T08:48:43Z</time>
      </trkpt>
      <trkpt lat="44.76601" lon="6.35165">
        <ele>2630</ele>
        <time>2024-08-12T08:48:44Z</time>
      </trkpt>
      <trkpt lat="44.76601" lon="6.35165">
        <ele>2629.8</ele>
        <time>2024-08-12T08:48:45Z</time>
      </trkpt>
      <trkpt lat="44.766" lon="6.35162">
        <ele>2629.6</ele>
        <time>2024-08-12T08:48:46Z</time>
      </trkpt>
      <trkpt lat="44.766" lon="6.35162">
        <ele>2629.6</ele>
        <time>2024-08-12T08:48:47Z</time>
      </trkpt>
      <trkpt lat="44.766" lon="6.35162">
        <ele>2629.6</ele>
        <time>2024-08-12T08:48:48Z</time>
      </trkpt>
      <trkpt lat="44.76601" lon="6.35159">
        <ele>2629.4</ele>
        <time>2024-08-12T08:48:49Z</time>
      </trkpt>
      <trkpt lat="44.76601" lon="6.35159">
        <ele>2629.4</ele>
        <time>2024-08-12T08:48:50Z</time>
      </trkpt>
      <trkpt lat="44.76601" lon="6.35159">
        <ele>2629.2</ele>
        <time>2024-08-12T08:48:51Z</time>
      </trkpt>
      <trkpt lat="44.76602" lon="6.35156">
        <ele>2629.2</ele>
        <time>2024-08-12T08:48:52Z</time>
      </trkpt>
      <trkpt lat="44.76602" lon="6.35156">
        <ele>2629</ele>
        <time>2024-08-12T08:48:53Z</time>
      </trkpt>
      <trkpt lat="44.766" lon="6.35154">
        <ele>2628.6</ele>
        <time>2024-08-12T08:48:54Z</time>
      </trkpt>
      <trkpt lat="44.766" lon="6.35154">
        <ele>2628.4</ele>
        <time>2024-08-12T08:48:55Z</time>
      </trkpt>
      <trkpt lat="44.766" lon="6.35154">
        <ele>2628</ele>
        <time>2024-08-12T08:48:56Z</time>
      </trkpt>
      <trkpt lat="44.76602" lon="6.35151">
        <ele>2627.2</ele>
        <time>2024-08-12T08:48:57Z</time>
      </trkpt>
      <trkpt lat="44.76602" lon="6.35151">
        <ele>2626.4</ele>
        <time>2024-08-12T08:48:58Z</time>
      </trkpt>
      <trkpt lat="44.76602" lon="6.35151">
        <ele>2626</ele>
        <time>2024-08-12T08:48:59Z</time>
      </trkpt>
      <trkpt lat="44.76601" lon="6.35149">
        <ele>2625.4</ele>
        <time>2024-08-12T08:49:00Z</time>
      </trkpt>
      <trkpt lat="44.76601" lon="6.35149">
        <ele>2625</ele>
        <time>2024-08-12T08:49:01Z</time>
      </trkpt>
      <trkpt lat="44.76601" lon="6.35149">
        <ele>2624.6</ele>
        <time>2024-08-12T08:49:02Z</time>
      </trkpt>
      <trkpt lat="44.76598" lon="6.35149">
        <ele>2624.6</ele>
        <time>2024-08-12T08:49:03Z</time>
      </trkpt>
      <trkpt lat="44.76598" lon="6.35149">
        <ele>2624.6</ele>
        <time>2024-08-12T08:49:04Z</time>
      </trkpt>
      <trkpt lat="44.76598" lon="6.35149">
        <ele>2624.2</ele>
        <time>2024-08-12T08:49:05Z</time>
      </trkpt>
      <trkpt lat="44.76596" lon="6.35149">
        <ele>2624.2</ele>
        <time>2024-08-12T08:49:06Z</time>
      </trkpt>
      <trkpt lat="44.76596" lon="6.35149">
        <ele>2623.8</ele>
        <time>2024-08-12T08:49:07Z</time>
      </trkpt>
      <trkpt lat="44.76596" lon="6.35149">
        <ele>2623</ele>
        <time>2024-08-12T08:49:08Z</time>
      </trkpt>
      <trkpt lat="44.76594" lon="6.35148">
        <ele>2623</ele>
        <time>2024-08-12T08:49:09Z</time>
      </trkpt>
      <trkpt lat="44.76594" lon="6.35148">
        <ele>2622.8</ele>
        <time>2024-08-12T08:49:10Z</time>
      </trkpt>
      <trkpt lat="44.76592" lon="6.3515">
        <ele>2622.4</ele>
        <time>2024-08-12T08:49:11Z</time>
      </trkpt>
      <trkpt lat="44.76592" lon="6.3515">
        <ele>2622</ele>
        <time>2024-08-12T08:49:12Z</time>
      </trkpt>
      <trkpt lat="44.7659" lon="6.35153">
        <ele>2621.8</ele>
        <time>2024-08-12T08:49:13Z</time>
      </trkpt>
      <trkpt lat="44.7659" lon="6.35153">
        <ele>2621.6</ele>
        <time>2024-08-12T08:49:14Z</time>
      </trkpt>
      <trkpt lat="44.76589" lon="6.35155">
        <ele>2621.6</ele>
        <time>2024-08-12T08:49:15Z</time>
      </trkpt>
      <trkpt lat="44.76589" lon="6.35155">
        <ele>2621.4</ele>
        <time>2024-08-12T08:49:16Z</time>
      </trkpt>
      <trkpt lat="44.76587" lon="6.35157">
        <ele>2621.2</ele>
        <time>2024-08-12T08:49:17Z</time>
      </trkpt>
      <trkpt lat="44.76587" lon="6.35157">
        <ele>2620.8</ele>
        <time>2024-08-12T08:49:18Z</time>
      </trkpt>
      <trkpt lat="44.76585" lon="6.35158">
        <ele>2620.8</ele>
        <time>2024-08-12T08:49:19Z</time>
      </trkpt>
      <trkpt lat="44.76585" lon="6.35158">
        <ele>2621.2</ele>
        <time>2024-08-12T08:49:20Z</time>
      </trkpt>
      <trkpt lat="44.76583" lon="6.3516">
        <ele>2621</ele>
        <time>2024-08-12T08:49:21Z</time>
      </trkpt>
      <trkpt lat="44.76583" lon="6.3516">
        <ele>2620.6</ele>
        <time>2024-08-12T08:49:22Z</time>
      </trkpt>
      <trkpt lat="44.76581" lon="6.35161">
        <ele>2620.6</ele>
        <time>2024-08-12T08:49:23Z</time>
      </trkpt>
      <trkpt lat="44.76581" lon="6.35161">
        <ele>2620.4</ele>
        <time>2024-08-12T08:49:24Z</time>
      </trkpt>
      <trkpt lat="44.76579" lon="6.35164">
        <ele>2620.2</ele>
        <time>2024-08-12T08:49:25Z</time>
      </trkpt>
      <trkpt lat="44.76579" lon="6.35164">
        <ele>2620.2</ele>
        <time>2024-08-12T08:49:26Z</time>
      </trkpt>
      <trkpt lat="44.76577" lon="6.35165">
        <ele>2620</ele>
        <time>2024-08-12T08:49:27Z</time>
      </trkpt>
      <trkpt lat="44.76577" lon="6.35165">
        <ele>2619.6</ele>
        <time>2024-08-12T08:49:28Z</time>
      </trkpt>
      <trkpt lat="44.76575" lon="6.35167">
        <ele>2619.6</ele>
        <time>2024-08-12T08:49:29Z</time>
      </trkpt>
      <trkpt lat="44.76575" lon="6.35167">
        <ele>2619.6</ele>
        <time>2024-08-12T08:49:30Z</time>
      </trkpt>
      <trkpt lat="44.76573" lon="6.35168">
        <ele>2619.4</ele>
        <time>2024-08-12T08:49:31Z</time>
      </trkpt>
      <trkpt lat="44.76573" lon="6.35168">
        <ele>2619.4</ele>
        <time>2024-08-12T08:49:32Z</time>
      </trkpt>
      <trkpt lat="44.76571" lon="6.3517">
        <ele>2619.4</ele>
        <time>2024-08-12T08:49:33Z</time>
      </trkpt>
      <trkpt lat="44.76571" lon="6.3517">
        <ele>2619.2</ele>
        <time>2024-08-12T08:49:34Z</time>
      </trkpt>
      <trkpt lat="44.76569" lon="6.35172">
        <ele>2619</ele>
        <time>2024-08-12T08:49:35Z</time>
      </trkpt>
      <trkpt lat="44.76569" lon="6.35172">
        <ele>2619</ele>
        <time>2024-08-12T08:49:36Z</time>
      </trkpt>
      <trkpt lat="44.76567" lon="6.35173">
        <ele>2618.8</ele>
        <time>2024-08-12T08:49:37Z</time>
      </trkpt>
      <trkpt lat="44.76567" lon="6.35173">
        <ele>2618.6</ele>
        <time>2024-08-12T08:49:38Z</time>
      </trkpt>
      <trkpt lat="44.76565" lon="6.35176">
        <ele>2618.6</ele>
        <time>2024-08-12T08:49:39Z</time>
      </trkpt>
      <trkpt lat="44.76565" lon="6.35176">
        <ele>2618.6</ele>
        <time>2024-08-12T08:49:40Z</time>
      </trkpt>
      <trkpt lat="44.76563" lon="6.35177">
        <ele>2618.6</ele>
        <time>2024-08-12T08:49:41Z</time>
      </trkpt>
      <trkpt lat="44.76563" lon="6.35177">
        <ele>2618.6</ele>
        <time>2024-08-12T08:49:42Z</time>
      </trkpt>
      <trkpt lat="44.7656" lon="6.35177">
        <ele>2618.4</ele>
        <time>2024-08-12T08:49:43Z</time>
      </trkpt>
      <trkpt lat="44.7656" lon="6.35177">
        <ele>2618.4</ele>
        <time>2024-08-12T08:49:44Z</time>
      </trkpt>
      <trkpt lat="44.76557" lon="6.35176">
        <ele>2618.6</ele>
        <time>2024-08-12T08:49:45Z</time>
      </trkpt>
      <trkpt lat="44.76557" lon="6.35176">
        <ele>2618.6</ele>
        <time>2024-08-12T08:49:46Z</time>
      </trkpt>
      <trkpt lat="44.76556" lon="6.35176">
        <ele>2618.6</ele>
        <time>2024-08-12T08:49:47Z</time>
      </trkpt>
      <trkpt lat="44.76556" lon="6.35176">
        <ele>2618.2</ele>
        <time>2024-08-12T08:49:48Z</time>
      </trkpt>
      <trkpt lat="44.76553" lon="6.35175">
        <ele>2618</ele>
        <time>2024-08-12T08:49:49Z</time>
      </trkpt>
      <trkpt lat="44.76553" lon="6.35175">
        <ele>2617.8</ele>
        <time>2024-08-12T08:49:50Z</time>
      </trkpt>
      <trkpt lat="44.76551" lon="6.35174">
        <ele>2617.8</ele>
        <time>2024-08-12T08:49:51Z</time>
      </trkpt>
      <trkpt lat="44.76551" lon="6.35174">
        <ele>2617.8</ele>
        <time>2024-08-12T08:49:52Z</time>
      </trkpt>
      <trkpt lat="44.76549" lon="6.35173">
        <ele>2617.4</ele>
        <time>2024-08-12T08:49:53Z</time>
      </trkpt>
      <trkpt lat="44.76549" lon="6.35173">
        <ele>2617.2</ele>
        <time>2024-08-12T08:49:54Z</time>
      </trkpt>
      <trkpt lat="44.76547" lon="6.35172">
        <ele>2616.8</ele>
        <time>2024-08-12T08:49:55Z</time>
      </trkpt>
      <trkpt lat="44.76547" lon="6.35172">
        <ele>2616.6</ele>
        <time>2024-08-12T08:49:56Z</time>
      </trkpt>
      <trkpt lat="44.76545" lon="6.35172">
        <ele>2616.6</ele>
        <time>2024-08-12T08:49:57Z</time>
      </trkpt>
      <trkpt lat="44.76545" lon="6.35172">
        <ele>2616.4</ele>
        <time>2024-08-12T08:49:58Z</time>
      </trkpt>
      <trkpt lat="44.76543" lon="6.35174">
        <ele>2616.4</ele>
        <time>2024-08-12T08:49:59Z</time>
      </trkpt>
      <trkpt lat="44.76543" lon="6.35174">
        <ele>2616.4</ele>
        <time>2024-08-12T08:50:00Z</time>
      </trkpt>
      <trkpt lat="44.76541" lon="6.35176">
        <ele>2616.2</ele>
        <time>2024-08-12T08:50:01Z</time>
      </trkpt>
      <trkpt lat="44.76541" lon="6.35176">
        <ele>2616</ele>
        <time>2024-08-12T08:50:02Z</time>
      </trkpt>
      <trkpt lat="44.76541" lon="6.35178">
        <ele>2615.8</ele>
        <time>2024-08-12T08:50:03Z</time>
      </trkpt>
      <trkpt lat="44.76541" lon="6.35178">
        <ele>2615.6</ele>
        <time>2024-08-12T08:50:04Z</time>
      </trkpt>
      <trkpt lat="44.76541" lon="6.35178">
        <ele>2615.6</ele>
        <time>2024-08-12T08:50:05Z</time>
      </trkpt>
      <trkpt lat="44.76541" lon="6.35178">
        <ele>2615.4</ele>
        <time>2024-08-12T08:50:06Z</time>
      </trkpt>
      <trkpt lat="44.76539" lon="6.35177">
        <ele>2615.4</ele>
        <time>2024-08-12T08:50:07Z</time>
      </trkpt>
      <trkpt lat="44.76539" lon="6.35177">
        <ele>2615.2</ele>
        <time>2024-08-12T08:50:08Z</time>
      </trkpt>
      <trkpt lat="44.76539" lon="6.35175">
        <ele>2615</ele>
        <time>2024-08-12T08:50:09Z</time>
      </trkpt>
      <trkpt lat="44.76539" lon="6.35175">
        <ele>2614.8</ele>
        <time>2024-08-12T08:50:10Z</time>
      </trkpt>
      <trkpt lat="44.7654" lon="6.35172">
        <ele>2614.8</ele>
        <time>2024-08-12T08:50:11Z</time>
      </trkpt>
      <trkpt lat="44.7654" lon="6.35172">
        <ele>2614.6</ele>
        <time>2024-08-12T08:50:12Z</time>
      </trkpt>
      <trkpt lat="44.7654" lon="6.35169">
        <ele>2614.6</ele>
        <time>2024-08-12T08:50:13Z</time>
      </trkpt>
      <trkpt lat="44.7654" lon="6.35169">
        <ele>2614.2</ele>
        <time>2024-08-12T08:50:14Z</time>
      </trkpt>
      <trkpt lat="44.76541" lon="6.35167">
        <ele>2614</ele>
        <time>2024-08-12T08:50:15Z</time>
      </trkpt>
      <trkpt lat="44.76541" lon="6.35167">
        <ele>2613.8</ele>
        <time>2024-08-12T08:50:16Z</time>
      </trkpt>
      <trkpt lat="44.76541" lon="6.35167">
        <ele>2613.6</ele>
        <time>2024-08-12T08:50:17Z</time>
      </trkpt>
      <trkpt lat="44.76542" lon="6.35164">
        <ele>2613.6</ele>
        <time>2024-08-12T08:50:18Z</time>
      </trkpt>
      <trkpt lat="44.76542" lon="6.35164">
        <ele>2613.6</ele>
        <time>2024-08-12T08:50:19Z</time>
      </trkpt>
      <trkpt lat="44.76544" lon="6.35163">
        <ele>2613.2</ele>
        <time>2024-08-12T08:50:20Z</time>
      </trkpt>
      <trkpt lat="44.76544" lon="6.35163">
        <ele>2612.8</ele>
        <time>2024-08-12T08:50:21Z</time>
      </trkpt>
      <trkpt lat="44.76544" lon="6.35163">
        <ele>2612.8</ele>
        <time>2024-08-12T08:50:22Z</time>
      </trkpt>
      <trkpt lat="44.76546" lon="6.35161">
        <ele>2612.6</ele>
        <time>2024-08-12T08:50:23Z</time>
      </trkpt>
      <trkpt lat="44.76546" lon="6.35161">
        <ele>2612.4</ele>
        <time>2024-08-12T08:50:24Z</time>
      </trkpt>
      <trkpt lat="44.76546" lon="6.35161">
        <ele>2612.4</ele>
        <time>2024-08-12T08:50:25Z</time>
      </trkpt>
      <trkpt lat="44.76546" lon="6.35161">
        <ele>2612</ele>
        <time>2024-08-12T08:50:26Z</time>
      </trkpt>
      <trkpt lat="44.76546" lon="6.35161">
        <ele>2612</ele>
        <time>2024-08-12T08:50:27Z</time>
      </trkpt>
      <trkpt lat="44.76545" lon="6.35158">
        <ele>2612</ele>
        <time>2024-08-12T08:50:28Z</time>
      </trkpt>
      <trkpt lat="44.76545" lon="6.35158">
        <ele>2611.6</ele>
        <time>2024-08-12T08:50:29Z</time>
      </trkpt>
      <trkpt lat="44.76545" lon="6.35158">
        <ele>2611.6</ele>
        <time>2024-08-12T08:50:30Z</time>
      </trkpt>
      <trkpt lat="44.76543" lon="6.35157">
        <ele>2611.4</ele>
        <time>2024-08-12T08:50:31Z</time>
      </trkpt>
      <trkpt lat="44.76543" lon="6.35157">
        <ele>2611.2</ele>
        <time>2024-08-12T08:50:32Z</time>
      </trkpt>
      <trkpt lat="44.76543" lon="6.35157">
        <ele>2611.2</ele>
        <time>2024-08-12T08:50:33Z</time>
      </trkpt>
      <trkpt lat="44.7654" lon="6.35156">
        <ele>2611.2</ele>
        <time>2024-08-12T08:50:34Z</time>
      </trkpt>
      <trkpt lat="44.7654" lon="6.35156">
        <ele>2611.2</ele>
        <time>2024-08-12T08:50:35Z</time>
      </trkpt>
      <trkpt lat="44.7654" lon="6.35156">
        <ele>2610.8</ele>
        <time>2024-08-12T08:50:36Z</time>
      </trkpt>
      <trkpt lat="44.76538" lon="6.35154">
        <ele>2610.6</ele>
        <time>2024-08-12T08:50:37Z</time>
      </trkpt>
      <trkpt lat="44.76538" lon="6.35154">
        <ele>2610.6</ele>
        <time>2024-08-12T08:50:38Z</time>
      </trkpt>
      <trkpt lat="44.76538" lon="6.35154">
        <ele>2610.4</ele>
        <time>2024-08-12T08:50:39Z</time>
      </trkpt>
      <trkpt lat="44.76535" lon="6.35155">
        <ele>2610.4</ele>
        <time>2024-08-12T08:50:40Z</time>
      </trkpt>
      <trkpt lat="44.76535" lon="6.35155">
        <ele>2610.4</ele>
        <time>2024-08-12T08:50:41Z</time>
      </trkpt>
      <trkpt lat="44.76533" lon="6.35155">
        <ele>2610</ele>
        <time>2024-08-12T08:50:42Z</time>
      </trkpt>
      <trkpt lat="44.76533" lon="6.35155">
        <ele>2609.8</ele>
        <time>2024-08-12T08:50:43Z</time>
      </trkpt>
      <trkpt lat="44.76533" lon="6.35155">
        <ele>2609.2</ele>
        <time>2024-08-12T08:50:44Z</time>
      </trkpt>
      <trkpt lat="44.76533" lon="6.35152">
        <ele>2609</ele>
        <time>2024-08-12T08:50:45Z</time>
      </trkpt>
      <trkpt lat="44.76533" lon="6.35152">
        <ele>2609</ele>
        <time>2024-08-12T08:50:46Z</time>
      </trkpt>
      <trkpt lat="44.76533" lon="6.35149">
        <ele>2609</ele>
        <time>2024-08-12T08:50:47Z</time>
      </trkpt>
      <trkpt lat="44.76533" lon="6.35149">
        <ele>2608.6</ele>
        <time>2024-08-12T08:50:48Z</time>
      </trkpt>
      <trkpt lat="44.76535" lon="6.35147">
        <ele>2608.6</ele>
        <time>2024-08-12T08:50:49Z</time>
      </trkpt>
      <trkpt lat="44.76535" lon="6.35147">
        <ele>2608.2</ele>
        <time>2024-08-12T08:50:50Z</time>
      </trkpt>
      <trkpt lat="44.76537" lon="6.35146">
        <ele>2608</ele>
        <time>2024-08-12T08:50:51Z</time>
      </trkpt>
      <trkpt lat="44.76537" lon="6.35146">
        <ele>2607.8</ele>
        <time>2024-08-12T08:50:52Z</time>
      </trkpt>
      <trkpt lat="44.76537" lon="6.35146">
        <ele>2607.4</ele>
        <time>2024-08-12T08:50:53Z</time>
      </trkpt>
      <trkpt lat="44.7654" lon="6.35145">
        <ele>2607.4</ele>
        <time>2024-08-12T08:50:54Z</time>
      </trkpt>
      <trkpt lat="44.7654" lon="6.35145">
        <ele>2607.4</ele>
        <time>2024-08-12T08:50:55Z</time>
      </trkpt>
      <trkpt lat="44.76541" lon="6.35145">
        <ele>2607.2</ele>
        <time>2024-08-12T08:50:56Z</time>
      </trkpt>
      <trkpt lat="44.76541" lon="6.35145">
        <ele>2607</ele>
        <time>2024-08-12T08:50:57Z</time>
      </trkpt>
      <trkpt lat="44.76544" lon="6.35144">
        <ele>2607</ele>
        <time>2024-08-12T08:50:58Z</time>
      </trkpt>
      <trkpt lat="44.76544" lon="6.35144">
        <ele>2606.6</ele>
        <time>2024-08-12T08:50:59Z</time>
      </trkpt>
      <trkpt lat="44.76544" lon="6.35144">
        <ele>2606.6</ele>
        <time>2024-08-12T08:51:00Z</time>
      </trkpt>
      <trkpt lat="44.76545" lon="6.35143">
        <ele>2606.4</ele>
        <time>2024-08-12T08:51:01Z</time>
      </trkpt>
      <trkpt lat="44.76545" lon="6.35143">
        <ele>2606.2</ele>
        <time>2024-08-12T08:51:02Z</time>
      </trkpt>
      <trkpt lat="44.76546" lon="6.3514">
        <ele>2606.2</ele>
        <time>2024-08-12T08:51:03Z</time>
      </trkpt>
      <trkpt lat="44.76546" lon="6.3514">
        <ele>2606</ele>
        <time>2024-08-12T08:51:04Z</time>
      </trkpt>
      <trkpt lat="44.76546" lon="6.35137">
        <ele>2606</ele>
        <time>2024-08-12T08:51:05Z</time>
      </trkpt>
      <trkpt lat="44.76546" lon="6.35137">
        <ele>2606</ele>
        <time>2024-08-12T08:51:06Z</time>
      </trkpt>
      <trkpt lat="44.76547" lon="6.35135">
        <ele>2605.8</ele>
        <time>2024-08-12T08:51:07Z</time>
      </trkpt>
      <trkpt lat="44.76547" lon="6.35135">
        <ele>2605.6</ele>
        <time>2024-08-12T08:51:08Z</time>
      </trkpt>
      <trkpt lat="44.76547" lon="6.35132">
        <ele>2605.6</ele>
        <time>2024-08-12T08:51:09Z</time>
      </trkpt>
      <trkpt lat="44.76547" lon="6.35132">
        <ele>2605.4</ele>
        <time>2024-08-12T08:51:10Z</time>
      </trkpt>
      <trkpt lat="44.76547" lon="6.35129">
        <ele>2605</ele>
        <time>2024-08-12T08:51:11Z</time>
      </trkpt>
      <trkpt lat="44.76547" lon="6.35129">
        <ele>2604.6</ele>
        <time>2024-08-12T08:51:12Z</time>
      </trkpt>
      <trkpt lat="44.76546" lon="6.35128">
        <ele>2604.4</ele>
        <time>2024-08-12T08:51:13Z</time>
      </trkpt>
      <trkpt lat="44.76546" lon="6.35128">
        <ele>2604</ele>
        <time>2024-08-12T08:51:14Z</time>
      </trkpt>
      <trkpt lat="44.76546" lon="6.35128">
        <ele>2604</ele>
        <time>2024-08-12T08:51:15Z</time>
      </trkpt>
      <trkpt lat="44.76543" lon="6.35129">
        <ele>2604</ele>
        <time>2024-08-12T08:51:16Z</time>
      </trkpt>
      <trkpt lat="44.76543" lon="6.35129">
        <ele>2603.8</ele>
        <time>2024-08-12T08:51:17Z</time>
      </trkpt>
      <trkpt lat="44.76541" lon="6.3513">
        <ele>2603.8</ele>
        <time>2024-08-12T08:51:18Z</time>
      </trkpt>
      <trkpt lat="44.76541" lon="6.3513">
        <ele>2603.8</ele>
        <time>2024-08-12T08:51:19Z</time>
      </trkpt>
      <trkpt lat="44.7654" lon="6.35129">
        <ele>2603.8</ele>
        <time>2024-08-12T08:51:20Z</time>
      </trkpt>
      <trkpt lat="44.7654" lon="6.35129">
        <ele>2603.8</ele>
        <time>2024-08-12T08:51:21Z</time>
      </trkpt>
      <trkpt lat="44.76538" lon="6.35129">
        <ele>2603.6</ele>
        <time>2024-08-12T08:51:22Z</time>
      </trkpt>
      <trkpt lat="44.76538" lon="6.35129">
        <ele>2603.6</ele>
        <time>2024-08-12T08:51:23Z</time>
      </trkpt>
      <trkpt lat="44.76535" lon="6.3513">
        <ele>2603</ele>
        <time>2024-08-12T08:51:24Z</time>
      </trkpt>
      <trkpt lat="44.76535" lon="6.3513">
        <ele>2603</ele>
        <time>2024-08-12T08:51:25Z</time>
      </trkpt>
      <trkpt lat="44.76533" lon="6.3513">
        <ele>2602.8</ele>
        <time>2024-08-12T08:51:26Z</time>
      </trkpt>
      <trkpt lat="44.76533" lon="6.3513">
        <ele>2602.8</ele>
        <time>2024-08-12T08:51:27Z</time>
      </trkpt>
      <trkpt lat="44.76532" lon="6.35129">
        <ele>2602.8</ele>
        <time>2024-08-12T08:51:28Z</time>
      </trkpt>
      <trkpt lat="44.76532" lon="6.35129">
        <ele>2602.8</ele>
        <time>2024-08-12T08:51:29Z</time>
      </trkpt>
      <trkpt lat="44.76529" lon="6.3513">
        <ele>2602</ele>
        <time>2024-08-12T08:51:30Z</time>
      </trkpt>
      <trkpt lat="44.76529" lon="6.3513">
        <ele>2602</ele>
        <time>2024-08-12T08:51:31Z</time>
      </trkpt>
      <trkpt lat="44.76529" lon="6.3513">
        <ele>2602</ele>
        <time>2024-08-12T08:51:32Z</time>
      </trkpt>
      <trkpt lat="44.76527" lon="6.35128">
        <ele>2601.8</ele>
        <time>2024-08-12T08:51:33Z</time>
      </trkpt>
      <trkpt lat="44.76527" lon="6.35128">
        <ele>2601.6</ele>
        <time>2024-08-12T08:51:34Z</time>
      </trkpt>
      <trkpt lat="44.76527" lon="6.35128">
        <ele>2601.6</ele>
        <time>2024-08-12T08:51:35Z</time>
      </trkpt>
      <trkpt lat="44.76527" lon="6.35125">
        <ele>2601.4</ele>
        <time>2024-08-12T08:51:36Z</time>
      </trkpt>
      <trkpt lat="44.76527" lon="6.35125">
        <ele>2601</ele>
        <time>2024-08-12T08:51:37Z</time>
      </trkpt>
      <trkpt lat="44.76529" lon="6.35124">
        <ele>2600.8</ele>
        <time>2024-08-12T08:51:38Z</time>
      </trkpt>
      <trkpt lat="44.76529" lon="6.35124">
        <ele>2600.8</ele>
        <time>2024-08-12T08:51:39Z</time>
      </trkpt>
      <trkpt lat="44.76531" lon="6.35123">
        <ele>2600.6</ele>
        <time>2024-08-12T08:51:40Z</time>
      </trkpt>
      <trkpt lat="44.76531" lon="6.35123">
        <ele>2600</ele>
        <time>2024-08-12T08:51:41Z</time>
      </trkpt>
      <trkpt lat="44.76533" lon="6.3512">
        <ele>2600</ele>
        <time>2024-08-12T08:51:42Z</time>
      </trkpt>
      <trkpt lat="44.76533" lon="6.3512">
        <ele>2600</ele>
        <time>2024-08-12T08:51:43Z</time>
      </trkpt>
      <trkpt lat="44.76535" lon="6.35119">
        <ele>2600</ele>
        <time>2024-08-12T08:51:44Z</time>
      </trkpt>
      <trkpt lat="44.76535" lon="6.35119">
        <ele>2599.8</ele>
        <time>2024-08-12T08:51:45Z</time>
      </trkpt>
      <trkpt lat="44.76537" lon="6.35117">
        <ele>2599.4</ele>
        <time>2024-08-12T08:51:46Z</time>
      </trkpt>
      <trkpt lat="44.76537" lon="6.35117">
        <ele>2599.4</ele>
        <time>2024-08-12T08:51:47Z</time>
      </trkpt>
      <trkpt lat="44.76537" lon="6.35117">
        <ele>2599.2</ele>
        <time>2024-08-12T08:51:48Z</time>
      </trkpt>
      <trkpt lat="44.76538" lon="6.35115">
        <ele>2599.2</ele>
        <time>2024-08-12T08:51:49Z</time>
      </trkpt>
      <trkpt lat="44.76538" lon="6.35115">
        <ele>2598.8</ele>
        <time>2024-08-12T08:51:50Z</time>
      </trkpt>
      <trkpt lat="44.76539" lon="6.35112">
        <ele>2598.6</ele>
        <time>2024-08-12T08:51:51Z</time>
      </trkpt>
      <trkpt lat="44.76539" lon="6.35112">
        <ele>2598.2</ele>
        <time>2024-08-12T08:51:52Z</time>
      </trkpt>
      <trkpt lat="44.76541" lon="6.3511">
        <ele>2598.2</ele>
        <time>2024-08-12T08:51:53Z</time>
      </trkpt>
      <trkpt lat="44.76541" lon="6.3511">
        <ele>2598</ele>
        <time>2024-08-12T08:51:54Z</time>
      </trkpt>
      <trkpt lat="44.76541" lon="6.3511">
        <ele>2597.8</ele>
        <time>2024-08-12T08:51:55Z</time>
      </trkpt>
      <trkpt lat="44.76541" lon="6.3511">
        <ele>2597.8</ele>
        <time>2024-08-12T08:51:56Z</time>
      </trkpt>
      <trkpt lat="44.76541" lon="6.3511">
        <ele>2597.6</ele>
        <time>2024-08-12T08:51:57Z</time>
      </trkpt>
      <trkpt lat="44.76541" lon="6.3511">
        <ele>2597.6</ele>
        <time>2024-08-12T08:51:58Z</time>
      </trkpt>
      <trkpt lat="44.76539" lon="6.35109">
        <ele>2597.6</ele>
        <time>2024-08-12T08:51:59Z</time>
      </trkpt>
      <trkpt lat="44.76539" lon="6.35109">
        <ele>2597.2</ele>
        <time>2024-08-12T08:52:00Z</time>
      </trkpt>
      <trkpt lat="44.76539" lon="6.35109">
        <ele>2597</ele>
        <time>2024-08-12T08:52:01Z</time>
      </trkpt>
      <trkpt lat="44.76539" lon="6.35109">
        <ele>2596.8</ele>
        <time>2024-08-12T08:52:02Z</time>
      </trkpt>
      <trkpt lat="44.76537" lon="6.35107">
        <ele>2596.8</ele>
        <time>2024-08-12T08:52:03Z</time>
      </trkpt>
      <trkpt lat="44.76537" lon="6.35107">
        <ele>2596.6</ele>
        <time>2024-08-12T08:52:04Z</time>
      </trkpt>
      <trkpt lat="44.76537" lon="6.35107">
        <ele>2596.4</ele>
        <time>2024-08-12T08:52:05Z</time>
      </trkpt>
      <trkpt lat="44.76537" lon="6.35107">
        <ele>2596.2</ele>
        <time>2024-08-12T08:52:06Z</time>
      </trkpt>
      <trkpt lat="44.76537" lon="6.35107">
        <ele>2595.8</ele>
        <time>2024-08-12T08:52:07Z</time>
      </trkpt>
      <trkpt lat="44.76535" lon="6.35108">
        <ele>2595.4</ele>
        <time>2024-08-12T08:52:08Z</time>
      </trkpt>
      <trkpt lat="44.76535" lon="6.35108">
        <ele>2595.2</ele>
        <time>2024-08-12T08:52:09Z</time>
      </trkpt>
      <trkpt lat="44.76535" lon="6.35108">
        <ele>2595</ele>
        <time>2024-08-12T08:52:10Z</time>
      </trkpt>
      <trkpt lat="44.76533" lon="6.35108">
        <ele>2594.6</ele>
        <time>2024-08-12T08:52:11Z</time>
      </trkpt>
      <trkpt lat="44.76533" lon="6.35108">
        <ele>2594.4</ele>
        <time>2024-08-12T08:52:12Z</time>
      </trkpt>
      <trkpt lat="44.7653" lon="6.35109">
        <ele>2594.2</ele>
        <time>2024-08-12T08:52:13Z</time>
      </trkpt>
      <trkpt lat="44.7653" lon="6.35109">
        <ele>2594.2</ele>
        <time>2024-08-12T08:52:14Z</time>
      </trkpt>
      <trkpt lat="44.76528" lon="6.35109">
        <ele>2594</ele>
        <time>2024-08-12T08:52:15Z</time>
      </trkpt>
      <trkpt lat="44.76528" lon="6.35109">
        <ele>2594</ele>
        <time>2024-08-12T08:52:16Z</time>
      </trkpt>
      <trkpt lat="44.76526" lon="6.35111">
        <ele>2593.8</ele>
        <time>2024-08-12T08:52:17Z</time>
      </trkpt>
      <trkpt lat="44.76526" lon="6.35111">
        <ele>2593</ele>
        <time>2024-08-12T08:52:18Z</time>
      </trkpt>
      <trkpt lat="44.76526" lon="6.35111">
        <ele>2593</ele>
        <time>2024-08-12T08:52:19Z</time>
      </trkpt>
      <trkpt lat="44.76523" lon="6.35113">
        <ele>2592.8</ele>
        <time>2024-08-12T08:52:20Z</time>
      </trkpt>
      <trkpt lat="44.76523" lon="6.35113">
        <ele>2592.6</ele>
        <time>2024-08-12T08:52:21Z</time>
      </trkpt>
      <trkpt lat="44.76523" lon="6.35113">
        <ele>2592.6</ele>
        <time>2024-08-12T08:52:22Z</time>
      </trkpt>
      <trkpt lat="44.76521" lon="6.35113">
        <ele>2592.4</ele>
        <time>2024-08-12T08:52:23Z</time>
      </trkpt>
      <trkpt lat="44.76521" lon="6.35113">
        <ele>2592</ele>
        <time>2024-08-12T08:52:24Z</time>
      </trkpt>
      <trkpt lat="44.76518" lon="6.35114">
        <ele>2591.8</ele>
        <time>2024-08-12T08:52:25Z</time>
      </trkpt>
      <trkpt lat="44.76518" lon="6.35114">
        <ele>2591.4</ele>
        <time>2024-08-12T08:52:26Z</time>
      </trkpt>
      <trkpt lat="44.76516" lon="6.35114">
        <ele>2591.2</ele>
        <time>2024-08-12T08:52:27Z</time>
      </trkpt>
      <trkpt lat="44.76516" lon="6.35114">
        <ele>2591</ele>
        <time>2024-08-12T08:52:28Z</time>
      </trkpt>
      <trkpt lat="44.76516" lon="6.35114">
        <ele>2591</ele>
        <time>2024-08-12T08:52:29Z</time>
      </trkpt>
      <trkpt lat="44.76514" lon="6.35114">
        <ele>2590.8</ele>
        <time>2024-08-12T08:52:30Z</time>
      </trkpt>
      <trkpt lat="44.76514" lon="6.35114">
        <ele>2590.6</ele>
        <time>2024-08-12T08:52:31Z</time>
      </trkpt>
      <trkpt lat="44.76511" lon="6.35114">
        <ele>2590.2</ele>
        <time>2024-08-12T08:52:32Z</time>
      </trkpt>
      <trkpt lat="44.76511" lon="6.35114">
        <ele>2590.2</ele>
        <time>2024-08-12T08:52:33Z</time>
      </trkpt>
      <trkpt lat="44.76511" lon="6.35114">
        <ele>2590.2</ele>
        <time>2024-08-12T08:52:34Z</time>
      </trkpt>
      <trkpt lat="44.76509" lon="6.35113">
        <ele>2590.2</ele>
        <time>2024-08-12T08:52:35Z</time>
      </trkpt>
      <trkpt lat="44.76509" lon="6.35113">
        <ele>2590</ele>
        <time>2024-08-12T08:52:36Z</time>
      </trkpt>
      <trkpt lat="44.76509" lon="6.35113">
        <ele>2589.4</ele>
        <time>2024-08-12T08:52:37Z</time>
      </trkpt>
      <trkpt lat="44.76506" lon="6.35113">
        <ele>2589</ele>
        <time>2024-08-12T08:52:38Z</time>
      </trkpt>
      <trkpt lat="44.76506" lon="6.35113">
        <ele>2588.8</ele>
        <time>2024-08-12T08:52:39Z</time>
      </trkpt>
      <trkpt lat="44.76504" lon="6.35113">
        <ele>2588.8</ele>
        <time>2024-08-12T08:52:40Z</time>
      </trkpt>
      <trkpt lat="44.76504" lon="6.35113">
        <ele>2588.8</ele>
        <time>2024-08-12T08:52:41Z</time>
      </trkpt>
      <trkpt lat="44.76502" lon="6.35114">
        <ele>2588.4</ele>
        <time>2024-08-12T08:52:42Z</time>
      </trkpt>
      <trkpt lat="44.76502" lon="6.35114">
        <ele>2588.4</ele>
        <time>2024-08-12T08:52:43Z</time>
      </trkpt>
      <trkpt lat="44.76502" lon="6.35114">
        <ele>2588.4</ele>
        <time>2024-08-12T08:52:44Z</time>
      </trkpt>
      <trkpt lat="44.76499" lon="6.35115">
        <ele>2588.4</ele>
        <time>2024-08-12T08:52:45Z</time>
      </trkpt>
      <trkpt lat="44.76499" lon="6.35115">
        <ele>2587.8</ele>
        <time>2024-08-12T08:52:46Z</time>
      </trkpt>
      <trkpt lat="44.76499" lon="6.35115">
        <ele>2587.6</ele>
        <time>2024-08-12T08:52:47Z</time>
      </trkpt>
      <trkpt lat="44.76497" lon="6.35116">
        <ele>2587.2</ele>
        <time>2024-08-12T08:52:48Z</time>
      </trkpt>
      <trkpt lat="44.76497" lon="6.35116">
        <ele>2586.8</ele>
        <time>2024-08-12T08:52:49Z</time>
      </trkpt>
      <trkpt lat="44.76495" lon="6.35118">
        <ele>2586.8</ele>
        <time>2024-08-12T08:52:50Z</time>
      </trkpt>
      <trkpt lat="44.76495" lon="6.35118">
        <ele>2586.8</ele>
        <time>2024-08-12T08:52:51Z</time>
      </trkpt>
      <trkpt lat="44.76493" lon="6.35119">
        <ele>2586.4</ele>
        <time>2024-08-12T08:52:52Z</time>
      </trkpt>
      <trkpt lat="44.76493" lon="6.35119">
        <ele>2585.8</ele>
        <time>2024-08-12T08:52:53Z</time>
      </trkpt>
      <trkpt lat="44.76493" lon="6.35119">
        <ele>2585.6</ele>
        <time>2024-08-12T08:52:54Z</time>
      </trkpt>
      <trkpt lat="44.76491" lon="6.35119">
        <ele>2585.4</ele>
        <time>2024-08-12T08:52:55Z</time>
      </trkpt>
      <trkpt lat="44.76491" lon="6.35119">
        <ele>2585</ele>
        <time>2024-08-12T08:52:56Z</time>
      </trkpt>
      <trkpt lat="44.76491" lon="6.35119">
        <ele>2585</ele>
        <time>2024-08-12T08:52:57Z</time>
      </trkpt>
      <trkpt lat="44.76489" lon="6.3512">
        <ele>2584.8</ele>
        <time>2024-08-12T08:52:58Z</time>
      </trkpt>
      <trkpt lat="44.76489" lon="6.3512">
        <ele>2584.4</ele>
        <time>2024-08-12T08:52:59Z</time>
      </trkpt>
      <trkpt lat="44.76487" lon="6.35121">
        <ele>2584.4</ele>
        <time>2024-08-12T08:53:00Z</time>
      </trkpt>
      <trkpt lat="44.76487" lon="6.35121">
        <ele>2584.4</ele>
        <time>2024-08-12T08:53:01Z</time>
      </trkpt>
      <trkpt lat="44.76487" lon="6.35121">
        <ele>2583.6</ele>
        <time>2024-08-12T08:53:02Z</time>
      </trkpt>
      <trkpt lat="44.76487" lon="6.35121">
        <ele>2583.6</ele>
        <time>2024-08-12T08:53:03Z</time>
      </trkpt>
      <trkpt lat="44.76487" lon="6.35121">
        <ele>2583.6</ele>
        <time>2024-08-12T08:53:04Z</time>
      </trkpt>
      <trkpt lat="44.76487" lon="6.35121">
        <ele>2583.6</ele>
        <time>2024-08-12T08:53:05Z</time>
      </trkpt>
      <trkpt lat="44.76487" lon="6.35121">
        <ele>2583.4</ele>
        <time>2024-08-12T08:53:06Z</time>
      </trkpt>
      <trkpt lat="44.76487" lon="6.35121">
        <ele>2583.4</ele>
        <time>2024-08-12T08:53:07Z</time>
      </trkpt>
      <trkpt lat="44.76485" lon="6.35121">
        <ele>2583.4</ele>
        <time>2024-08-12T08:53:08Z</time>
      </trkpt>
      <trkpt lat="44.76485" lon="6.35121">
        <ele>2583.4</ele>
        <time>2024-08-12T08:53:09Z</time>
      </trkpt>
      <trkpt lat="44.76483" lon="6.35121">
        <ele>2583</ele>
        <time>2024-08-12T08:53:10Z</time>
      </trkpt>
      <trkpt lat="44.76483" lon="6.35121">
        <ele>2582</ele>
        <time>2024-08-12T08:53:11Z</time>
      </trkpt>
      <trkpt lat="44.7648" lon="6.35122">
        <ele>2581.8</ele>
        <time>2024-08-12T08:53:12Z</time>
      </trkpt>
      <trkpt lat="44.7648" lon="6.35122">
        <ele>2581.4</ele>
        <time>2024-08-12T08:53:13Z</time>
      </trkpt>
      <trkpt lat="44.76477" lon="6.35123">
        <ele>2581.4</ele>
        <time>2024-08-12T08:53:14Z</time>
      </trkpt>
      <trkpt lat="44.76477" lon="6.35123">
        <ele>2581.2</ele>
        <time>2024-08-12T08:53:15Z</time>
      </trkpt>
      <trkpt lat="44.76477" lon="6.35123">
        <ele>2581.2</ele>
        <time>2024-08-12T08:53:16Z</time>
      </trkpt>
      <trkpt lat="44.76475" lon="6.35122">
        <ele>2581</ele>
        <time>2024-08-12T08:53:17Z</time>
      </trkpt>
      <trkpt lat="44.76475" lon="6.35122">
        <ele>2581</ele>
        <time>2024-08-12T08:53:18Z</time>
      </trkpt>
      <trkpt lat="44.76475" lon="6.35122">
        <ele>2580.8</ele>
        <time>2024-08-12T08:53:19Z</time>
      </trkpt>
      <trkpt lat="44.76476" lon="6.35119">
        <ele>2580.4</ele>
        <time>2024-08-12T08:53:20Z</time>
      </trkpt>
      <trkpt lat="44.76476" lon="6.35119">
        <ele>2579.8</ele>
        <time>2024-08-12T08:53:21Z</time>
      </trkpt>
      <trkpt lat="44.76477" lon="6.35117">
        <ele>2579.4</ele>
        <time>2024-08-12T08:53:22Z</time>
      </trkpt>
      <trkpt lat="44.76477" lon="6.35117">
        <ele>2579</ele>
        <time>2024-08-12T08:53:23Z</time>
      </trkpt>
      <trkpt lat="44.76479" lon="6.35114">
        <ele>2578.8</ele>
        <time>2024-08-12T08:53:24Z</time>
      </trkpt>
      <trkpt lat="44.76479" lon="6.35114">
        <ele>2578.8</ele>
        <time>2024-08-12T08:53:25Z</time>
      </trkpt>
      <trkpt lat="44.76481" lon="6.35111">
        <ele>2578.2</ele>
        <time>2024-08-12T08:53:26Z</time>
      </trkpt>
      <trkpt lat="44.76481" lon="6.35111">
        <ele>2578</ele>
        <time>2024-08-12T08:53:27Z</time>
      </trkpt>
      <trkpt lat="44.76483" lon="6.35109">
        <ele>2578</ele>
        <time>2024-08-12T08:53:28Z</time>
      </trkpt>
      <trkpt lat="44.76483" lon="6.35109">
        <ele>2578</ele>
        <time>2024-08-12T08:53:29Z</time>
      </trkpt>
      <trkpt lat="44.76485" lon="6.35107">
        <ele>2578</ele>
        <time>2024-08-12T08:53:30Z</time>
      </trkpt>
      <trkpt lat="44.76485" lon="6.35107">
        <ele>2577.8</ele>
        <time>2024-08-12T08:53:31Z</time>
      </trkpt>
      <trkpt lat="44.76487" lon="6.35105">
        <ele>2577.6</ele>
        <time>2024-08-12T08:53:32Z</time>
      </trkpt>
      <trkpt lat="44.76487" lon="6.35105">
        <ele>2577.4</ele>
        <time>2024-08-12T08:53:33Z</time>
      </trkpt>
      <trkpt lat="44.76489" lon="6.35103">
        <ele>2577.4</ele>
        <time>2024-08-12T08:53:34Z</time>
      </trkpt>
      <trkpt lat="44.76489" lon="6.35103">
        <ele>2577.4</ele>
        <time>2024-08-12T08:53:35Z</time>
      </trkpt>
      <trkpt lat="44.7649" lon="6.35101">
        <ele>2577.4</ele>
        <time>2024-08-12T08:53:36Z</time>
      </trkpt>
      <trkpt lat="44.7649" lon="6.35101">
        <ele>2577.4</ele>
        <time>2024-08-12T08:53:37Z</time>
      </trkpt>
      <trkpt lat="44.76491" lon="6.35099">
        <ele>2577.4</ele>
        <time>2024-08-12T08:53:38Z</time>
      </trkpt>
      <trkpt lat="44.76491" lon="6.35099">
        <ele>2577.2</ele>
        <time>2024-08-12T08:53:39Z</time>
      </trkpt>
      <trkpt lat="44.76493" lon="6.35097">
        <ele>2577</ele>
        <time>2024-08-12T08:53:40Z</time>
      </trkpt>
      <trkpt lat="44.76493" lon="6.35097">
        <ele>2576.6</ele>
        <time>2024-08-12T08:53:41Z</time>
      </trkpt>
      <trkpt lat="44.76495" lon="6.35095">
        <ele>2576.2</ele>
        <time>2024-08-12T08:53:42Z</time>
      </trkpt>
      <trkpt lat="44.76495" lon="6.35095">
        <ele>2576</ele>
        <time>2024-08-12T08:53:43Z</time>
      </trkpt>
      <trkpt lat="44.76497" lon="6.35094">
        <ele>2576</ele>
        <time>2024-08-12T08:53:44Z</time>
      </trkpt>
      <trkpt lat="44.76497" lon="6.35094">
        <ele>2576</ele>
        <time>2024-08-12T08:53:45Z</time>
      </trkpt>
      <trkpt lat="44.76497" lon="6.35094">
        <ele>2575.8</ele>
        <time>2024-08-12T08:53:46Z</time>
      </trkpt>
      <trkpt lat="44.76499" lon="6.35092">
        <ele>2575.6</ele>
        <time>2024-08-12T08:53:47Z</time>
      </trkpt>
      <trkpt lat="44.76499" lon="6.35092">
        <ele>2575.6</ele>
        <time>2024-08-12T08:53:48Z</time>
      </trkpt>
      <trkpt lat="44.76499" lon="6.35092">
        <ele>2575.6</ele>
        <time>2024-08-12T08:53:49Z</time>
      </trkpt>
      <trkpt lat="44.765" lon="6.35089">
        <ele>2575.6</ele>
        <time>2024-08-12T08:53:50Z</time>
      </trkpt>
      <trkpt lat="44.765" lon="6.35089">
        <ele>2575.4</ele>
        <time>2024-08-12T08:53:51Z</time>
      </trkpt>
      <trkpt lat="44.765" lon="6.35089">
        <ele>2575</ele>
        <time>2024-08-12T08:53:52Z</time>
      </trkpt>
      <trkpt lat="44.76502" lon="6.35088">
        <ele>2574.8</ele>
        <time>2024-08-12T08:53:53Z</time>
      </trkpt>
      <trkpt lat="44.76502" lon="6.35088">
        <ele>2574.4</ele>
        <time>2024-08-12T08:53:54Z</time>
      </trkpt>
      <trkpt lat="44.76503" lon="6.35086">
        <ele>2574</ele>
        <time>2024-08-12T08:53:55Z</time>
      </trkpt>
      <trkpt lat="44.76503" lon="6.35086">
        <ele>2573.8</ele>
        <time>2024-08-12T08:53:56Z</time>
      </trkpt>
      <trkpt lat="44.76503" lon="6.35086">
        <ele>2573.4</ele>
        <time>2024-08-12T08:53:57Z</time>
      </trkpt>
      <trkpt lat="44.76506" lon="6.35085">
        <ele>2573.2</ele>
        <time>2024-08-12T08:53:58Z</time>
      </trkpt>
      <trkpt lat="44.76506" lon="6.35085">
        <ele>2573</ele>
        <time>2024-08-12T08:53:59Z</time>
      </trkpt>
      <trkpt lat="44.76506" lon="6.35085">
        <ele>2572.8</ele>
        <time>2024-08-12T08:54:00Z</time>
      </trkpt>
      <trkpt lat="44.76508" lon="6.35083">
        <ele>2572.8</ele>
        <time>2024-08-12T08:54:01Z</time>
      </trkpt>
      <trkpt lat="44.76508" lon="6.35083">
        <ele>2572.2</ele>
        <time>2024-08-12T08:54:02Z</time>
      </trkpt>
      <trkpt lat="44.76508" lon="6.35083">
        <ele>2572.2</ele>
        <time>2024-08-12T08:54:03Z</time>
      </trkpt>
      <trkpt lat="44.76509" lon="6.35082">
        <ele>2572</ele>
        <time>2024-08-12T08:54:04Z</time>
      </trkpt>
      <trkpt lat="44.76509" lon="6.35082">
        <ele>2571.8</ele>
        <time>2024-08-12T08:54:05Z</time>
      </trkpt>
      <trkpt lat="44.76509" lon="6.35082">
        <ele>2571.8</ele>
        <time>2024-08-12T08:54:06Z</time>
      </trkpt>
      <trkpt lat="44.76512" lon="6.3508">
        <ele>2571.4</ele>
        <time>2024-08-12T08:54:07Z</time>
      </trkpt>
      <trkpt lat="44.76512" lon="6.3508">
        <ele>2571.2</ele>
        <time>2024-08-12T08:54:08Z</time>
      </trkpt>
      <trkpt lat="44.76513" lon="6.35078">
        <ele>2571</ele>
        <time>2024-08-12T08:54:09Z</time>
      </trkpt>
      <trkpt lat="44.76513" lon="6.35078">
        <ele>2570.8</ele>
        <time>2024-08-12T08:54:10Z</time>
      </trkpt>
      <trkpt lat="44.76513" lon="6.35078">
        <ele>2570.6</ele>
        <time>2024-08-12T08:54:11Z</time>
      </trkpt>
      <trkpt lat="44.76515" lon="6.35077">
        <ele>2570.4</ele>
        <time>2024-08-12T08:54:12Z</time>
      </trkpt>
      <trkpt lat="44.76515" lon="6.35077">
        <ele>2570.2</ele>
        <time>2024-08-12T08:54:13Z</time>
      </trkpt>
      <trkpt lat="44.76517" lon="6.35075">
        <ele>2569.8</ele>
        <time>2024-08-12T08:54:14Z</time>
      </trkpt>
      <trkpt lat="44.76517" lon="6.35075">
        <ele>2569.6</ele>
        <time>2024-08-12T08:54:15Z</time>
      </trkpt>
      <trkpt lat="44.76517" lon="6.35075">
        <ele>2569.2</ele>
        <time>2024-08-12T08:54:16Z</time>
      </trkpt>
      <trkpt lat="44.76517" lon="6.35075">
        <ele>2568.8</ele>
        <time>2024-08-12T08:54:17Z</time>
      </trkpt>
      <trkpt lat="44.76517" lon="6.35075">
        <ele>2568.8</ele>
        <time>2024-08-12T08:54:18Z</time>
      </trkpt>
      <trkpt lat="44.76517" lon="6.35073">
        <ele>2568.8</ele>
        <time>2024-08-12T08:54:19Z</time>
      </trkpt>
      <trkpt lat="44.76517" lon="6.35073">
        <ele>2568.6</ele>
        <time>2024-08-12T08:54:20Z</time>
      </trkpt>
      <trkpt lat="44.76517" lon="6.35073">
        <ele>2568.6</ele>
        <time>2024-08-12T08:54:21Z</time>
      </trkpt>
      <trkpt lat="44.76517" lon="6.35073">
        <ele>2568</ele>
        <time>2024-08-12T08:54:22Z</time>
      </trkpt>
      <trkpt lat="44.76519" lon="6.35071">
        <ele>2567.8</ele>
        <time>2024-08-12T08:54:23Z</time>
      </trkpt>
      <trkpt lat="44.76519" lon="6.35071">
        <ele>2567.2</ele>
        <time>2024-08-12T08:54:24Z</time>
      </trkpt>
      <trkpt lat="44.76519" lon="6.35071">
        <ele>2567.2</ele>
        <time>2024-08-12T08:54:25Z</time>
      </trkpt>
      <trkpt lat="44.76519" lon="6.35071">
        <ele>2567.8</ele>
        <time>2024-08-12T08:54:26Z</time>
      </trkpt>
      <trkpt lat="44.76519" lon="6.35071">
        <ele>2568</ele>
        <time>2024-08-12T08:54:27Z</time>
      </trkpt>
      <trkpt lat="44.76519" lon="6.35071">
        <ele>2568</ele>
        <time>2024-08-12T08:54:28Z</time>
      </trkpt>
      <trkpt lat="44.76519" lon="6.35071">
        <ele>2568</ele>
        <time>2024-08-12T08:54:29Z</time>
      </trkpt>
      <trkpt lat="44.76519" lon="6.35071">
        <ele>2568</ele>
        <time>2024-08-12T08:54:30Z</time>
      </trkpt>
      <trkpt lat="44.76519" lon="6.35071">
        <ele>2568</ele>
        <time>2024-08-12T08:54:31Z</time>
      </trkpt>
      <trkpt lat="44.76519" lon="6.35071">
        <ele>2567.6</ele>
        <time>2024-08-12T08:54:32Z</time>
      </trkpt>
      <trkpt lat="44.76519" lon="6.35071">
        <ele>2567.2</ele>
        <time>2024-08-12T08:54:33Z</time>
      </trkpt>
      <trkpt lat="44.76521" lon="6.35069">
        <ele>2567</ele>
        <time>2024-08-12T08:54:34Z</time>
      </trkpt>
      <trkpt lat="44.76521" lon="6.35069">
        <ele>2566.6</ele>
        <time>2024-08-12T08:54:35Z</time>
      </trkpt>
      <trkpt lat="44.76523" lon="6.35067">
        <ele>2566.6</ele>
        <time>2024-08-12T08:54:36Z</time>
      </trkpt>
      <trkpt lat="44.76523" lon="6.35067">
        <ele>2566.6</ele>
        <time>2024-08-12T08:54:37Z</time>
      </trkpt>
      <trkpt lat="44.76523" lon="6.35067">
        <ele>2566</ele>
        <time>2024-08-12T08:54:38Z</time>
      </trkpt>
      <trkpt lat="44.76525" lon="6.35064">
        <ele>2566</ele>
        <time>2024-08-12T08:54:39Z</time>
      </trkpt>
      <trkpt lat="44.76525" lon="6.35064">
        <ele>2566</ele>
        <time>2024-08-12T08:54:40Z</time>
      </trkpt>
      <trkpt lat="44.76527" lon="6.35064">
        <ele>2565.6</ele>
        <time>2024-08-12T08:54:41Z</time>
      </trkpt>
      <trkpt lat="44.76527" lon="6.35064">
        <ele>2565.4</ele>
        <time>2024-08-12T08:54:42Z</time>
      </trkpt>
      <trkpt lat="44.76527" lon="6.35064">
        <ele>2565.4</ele>
        <time>2024-08-12T08:54:43Z</time>
      </trkpt>
      <trkpt lat="44.76529" lon="6.35062">
        <ele>2565.4</ele>
        <time>2024-08-12T08:54:44Z</time>
      </trkpt>
      <trkpt lat="44.76529" lon="6.35062">
        <ele>2565.2</ele>
        <time>2024-08-12T08:54:45Z</time>
      </trkpt>
      <trkpt lat="44.76529" lon="6.35062">
        <ele>2564.8</ele>
        <time>2024-08-12T08:54:46Z</time>
      </trkpt>
      <trkpt lat="44.76531" lon="6.3506">
        <ele>2564.6</ele>
        <time>2024-08-12T08:54:47Z</time>
      </trkpt>
      <trkpt lat="44.76531" lon="6.3506">
        <ele>2564.4</ele>
        <time>2024-08-12T08:54:48Z</time>
      </trkpt>
      <trkpt lat="44.76531" lon="6.3506">
        <ele>2564.4</ele>
        <time>2024-08-12T08:54:49Z</time>
      </trkpt>
      <trkpt lat="44.76533" lon="6.35058">
        <ele>2564.2</ele>
        <time>2024-08-12T08:54:50Z</time>
      </trkpt>
      <trkpt lat="44.76533" lon="6.35058">
        <ele>2563.8</ele>
        <time>2024-08-12T08:54:51Z</time>
      </trkpt>
      <trkpt lat="44.76533" lon="6.35058">
        <ele>2563.8</ele>
        <time>2024-08-12T08:54:52Z</time>
      </trkpt>
      <trkpt lat="44.76535" lon="6.35057">
        <ele>2563.4</ele>
        <time>2024-08-12T08:54:53Z</time>
      </trkpt>
      <trkpt lat="44.76535" lon="6.35057">
        <ele>2563</ele>
        <time>2024-08-12T08:54:54Z</time>
      </trkpt>
      <trkpt lat="44.76535" lon="6.35057">
        <ele>2563</ele>
        <time>2024-08-12T08:54:55Z</time>
      </trkpt>
      <trkpt lat="44.76535" lon="6.35057">
        <ele>2562.6</ele>
        <time>2024-08-12T08:54:56Z</time>
      </trkpt>
      <trkpt lat="44.76535" lon="6.35057">
        <ele>2562.4</ele>
        <time>2024-08-12T08:54:57Z</time>
      </trkpt>
      <trkpt lat="44.76535" lon="6.35057">
        <ele>2562.4</ele>
        <time>2024-08-12T08:54:58Z</time>
      </trkpt>
      <trkpt lat="44.76535" lon="6.35057">
        <ele>2562.4</ele>
        <time>2024-08-12T08:54:59Z</time>
      </trkpt>
      <trkpt lat="44.76535" lon="6.35057">
        <ele>2562.4</ele>
        <time>2024-08-12T08:55:00Z</time>
      </trkpt>
      <trkpt lat="44.76537" lon="6.35056">
        <ele>2562.4</ele>
        <time>2024-08-12T08:55:01Z</time>
      </trkpt>
      <trkpt lat="44.76537" lon="6.35056">
        <ele>2562.2</ele>
        <time>2024-08-12T08:55:02Z</time>
      </trkpt>
      <trkpt lat="44.76537" lon="6.35056">
        <ele>2562.2</ele>
        <time>2024-08-12T08:55:03Z</time>
      </trkpt>
      <trkpt lat="44.76539" lon="6.35055">
        <ele>2562</ele>
        <time>2024-08-12T08:55:04Z</time>
      </trkpt>
      <trkpt lat="44.76539" lon="6.35055">
        <ele>2562</ele>
        <time>2024-08-12T08:55:05Z</time>
      </trkpt>
      <trkpt lat="44.76539" lon="6.35055">
        <ele>2562.2</ele>
        <time>2024-08-12T08:55:06Z</time>
      </trkpt>
      <trkpt lat="44.76541" lon="6.35054">
        <ele>2562.4</ele>
        <time>2024-08-12T08:55:07Z</time>
      </trkpt>
      <trkpt lat="44.76541" lon="6.35054">
        <ele>2562.4</ele>
        <time>2024-08-12T08:55:08Z</time>
      </trkpt>
      <trkpt lat="44.76541" lon="6.35054">
        <ele>2562</ele>
        <time>2024-08-12T08:55:09Z</time>
      </trkpt>
      <trkpt lat="44.76541" lon="6.35054">
        <ele>2561.8</ele>
        <time>2024-08-12T08:55:10Z</time>
      </trkpt>
      <trkpt lat="44.76541" lon="6.35054">
        <ele>2561.2</ele>
        <time>2024-08-12T08:55:11Z</time>
      </trkpt>
      <trkpt lat="44.76541" lon="6.35051">
        <ele>2561</ele>
        <time>2024-08-12T08:55:12Z</time>
      </trkpt>
      <trkpt lat="44.76541" lon="6.35051">
        <ele>2560.8</ele>
        <time>2024-08-12T08:55:13Z</time>
      </trkpt>
      <trkpt lat="44.76541" lon="6.35051">
        <ele>2560.6</ele>
        <time>2024-08-12T08:55:14Z</time>
      </trkpt>
      <trkpt lat="44.76538" lon="6.35051">
        <ele>2560.4</ele>
        <time>2024-08-12T08:55:15Z</time>
      </trkpt>
      <trkpt lat="44.76538" lon="6.35051">
        <ele>2560.2</ele>
        <time>2024-08-12T08:55:16Z</time>
      </trkpt>
      <trkpt lat="44.76538" lon="6.35051">
        <ele>2559.8</ele>
        <time>2024-08-12T08:55:17Z</time>
      </trkpt>
      <trkpt lat="44.76538" lon="6.35051">
        <ele>2559.4</ele>
        <time>2024-08-12T08:55:18Z</time>
      </trkpt>
      <trkpt lat="44.76538" lon="6.35051">
        <ele>2559.4</ele>
        <time>2024-08-12T08:55:19Z</time>
      </trkpt>
      <trkpt lat="44.76535" lon="6.35051">
        <ele>2559.2</ele>
        <time>2024-08-12T08:55:20Z</time>
      </trkpt>
      <trkpt lat="44.76535" lon="6.35051">
        <ele>2559</ele>
        <time>2024-08-12T08:55:21Z</time>
      </trkpt>
      <trkpt lat="44.76533" lon="6.3505">
        <ele>2559</ele>
        <time>2024-08-12T08:55:22Z</time>
      </trkpt>
      <trkpt lat="44.76533" lon="6.3505">
        <ele>2559</ele>
        <time>2024-08-12T08:55:23Z</time>
      </trkpt>
      <trkpt lat="44.76533" lon="6.3505">
        <ele>2558.6</ele>
        <time>2024-08-12T08:55:24Z</time>
      </trkpt>
      <trkpt lat="44.76531" lon="6.35049">
        <ele>2558.2</ele>
        <time>2024-08-12T08:55:25Z</time>
      </trkpt>
      <trkpt lat="44.76531" lon="6.35049">
        <ele>2558.2</ele>
        <time>2024-08-12T08:55:26Z</time>
      </trkpt>
      <trkpt lat="44.76531" lon="6.35049">
        <ele>2558</ele>
        <time>2024-08-12T08:55:27Z</time>
      </trkpt>
      <trkpt lat="44.76529" lon="6.35049">
        <ele>2557.6</ele>
        <time>2024-08-12T08:55:28Z</time>
      </trkpt>
      <trkpt lat="44.76529" lon="6.35049">
        <ele>2557.6</ele>
        <time>2024-08-12T08:55:29Z</time>
      </trkpt>
      <trkpt lat="44.76529" lon="6.35049">
        <ele>2557.4</ele>
        <time>2024-08-12T08:55:30Z</time>
      </trkpt>
      <trkpt lat="44.76527" lon="6.35049">
        <ele>2557.2</ele>
        <time>2024-08-12T08:55:31Z</time>
      </trkpt>
      <trkpt lat="44.76527" lon="6.35049">
        <ele>2557</ele>
        <time>2024-08-12T08:55:32Z</time>
      </trkpt>
      <trkpt lat="44.76527" lon="6.35049">
        <ele>2556.8</ele>
        <time>2024-08-12T08:55:33Z</time>
      </trkpt>
      <trkpt lat="44.76524" lon="6.3505">
        <ele>2556.6</ele>
        <time>2024-08-12T08:55:34Z</time>
      </trkpt>
      <trkpt lat="44.76524" lon="6.3505">
        <ele>2556</ele>
        <time>2024-08-12T08:55:35Z</time>
      </trkpt>
      <trkpt lat="44.76522" lon="6.3505">
        <ele>2556</ele>
        <time>2024-08-12T08:55:36Z</time>
      </trkpt>
      <trkpt lat="44.76522" lon="6.3505">
        <ele>2555.6</ele>
        <time>2024-08-12T08:55:37Z</time>
      </trkpt>
      <trkpt lat="44.76522" lon="6.3505">
        <ele>2555.6</ele>
        <time>2024-08-12T08:55:38Z</time>
      </trkpt>
      <trkpt lat="44.7652" lon="6.3505">
        <ele>2555.2</ele>
        <time>2024-08-12T08:55:39Z</time>
      </trkpt>
      <trkpt lat="44.7652" lon="6.3505">
        <ele>2555.2</ele>
        <time>2024-08-12T08:55:40Z</time>
      </trkpt>
      <trkpt lat="44.76518" lon="6.3505">
        <ele>2555.2</ele>
        <time>2024-08-12T08:55:41Z</time>
      </trkpt>
      <trkpt lat="44.76518" lon="6.3505">
        <ele>2555</ele>
        <time>2024-08-12T08:55:42Z</time>
      </trkpt>
      <trkpt lat="44.76516" lon="6.3505">
        <ele>2555</ele>
        <time>2024-08-12T08:55:43Z</time>
      </trkpt>
      <trkpt lat="44.76516" lon="6.3505">
        <ele>2554.6</ele>
        <time>2024-08-12T08:55:44Z</time>
      </trkpt>
      <trkpt lat="44.76514" lon="6.3505">
        <ele>2554.6</ele>
        <time>2024-08-12T08:55:45Z</time>
      </trkpt>
      <trkpt lat="44.76514" lon="6.3505">
        <ele>2554.6</ele>
        <time>2024-08-12T08:55:46Z</time>
      </trkpt>
      <trkpt lat="44.76512" lon="6.35051">
        <ele>2554.4</ele>
        <time>2024-08-12T08:55:47Z</time>
      </trkpt>
      <trkpt lat="44.76512" lon="6.35051">
        <ele>2554.2</ele>
        <time>2024-08-12T08:55:48Z</time>
      </trkpt>
      <trkpt lat="44.7651" lon="6.35052">
        <ele>2554</ele>
        <time>2024-08-12T08:55:49Z</time>
      </trkpt>
      <trkpt lat="44.7651" lon="6.35052">
        <ele>2553.8</ele>
        <time>2024-08-12T08:55:50Z</time>
      </trkpt>
      <trkpt lat="44.7651" lon="6.35052">
        <ele>2553.6</ele>
        <time>2024-08-12T08:55:51Z</time>
      </trkpt>
      <trkpt lat="44.76508" lon="6.35052">
        <ele>2553.6</ele>
        <time>2024-08-12T08:55:52Z</time>
      </trkpt>
      <trkpt lat="44.76508" lon="6.35052">
        <ele>2553.2</ele>
        <time>2024-08-12T08:55:53Z</time>
      </trkpt>
      <trkpt lat="44.76506" lon="6.35052">
        <ele>2553</ele>
        <time>2024-08-12T08:55:54Z</time>
      </trkpt>
      <trkpt lat="44.76506" lon="6.35052">
        <ele>2552.4</ele>
        <time>2024-08-12T08:55:55Z</time>
      </trkpt>
      <trkpt lat="44.76504" lon="6.35052">
        <ele>2552</ele>
        <time>2024-08-12T08:55:56Z</time>
      </trkpt>
      <trkpt lat="44.76504" lon="6.35052">
        <ele>2551.8</ele>
        <time>2024-08-12T08:55:57Z</time>
      </trkpt>
      <trkpt lat="44.76502" lon="6.35052">
        <ele>2551.6</ele>
        <time>2024-08-12T08:55:58Z</time>
      </trkpt>
      <trkpt lat="44.76502" lon="6.35052">
        <ele>2551.6</ele>
        <time>2024-08-12T08:55:59Z</time>
      </trkpt>
      <trkpt lat="44.76502" lon="6.35052">
        <ele>2551.4</ele>
        <time>2024-08-12T08:56:00Z</time>
      </trkpt>
      <trkpt lat="44.765" lon="6.35052">
        <ele>2550.8</ele>
        <time>2024-08-12T08:56:01Z</time>
      </trkpt>
      <trkpt lat="44.765" lon="6.35052">
        <ele>2550.4</ele>
        <time>2024-08-12T08:56:02Z</time>
      </trkpt>
      <trkpt lat="44.765" lon="6.35052">
        <ele>2550.4</ele>
        <time>2024-08-12T08:56:03Z</time>
      </trkpt>
      <trkpt lat="44.765" lon="6.35052">
        <ele>2550.2</ele>
        <time>2024-08-12T08:56:04Z</time>
      </trkpt>
      <trkpt lat="44.765" lon="6.35052">
        <ele>2549.8</ele>
        <time>2024-08-12T08:56:05Z</time>
      </trkpt>
      <trkpt lat="44.765" lon="6.35052">
        <ele>2549.2</ele>
        <time>2024-08-12T08:56:06Z</time>
      </trkpt>
      <trkpt lat="44.76498" lon="6.35051">
        <ele>2549</ele>
        <time>2024-08-12T08:56:07Z</time>
      </trkpt>
      <trkpt lat="44.76498" lon="6.35051">
        <ele>2549</ele>
        <time>2024-08-12T08:56:08Z</time>
      </trkpt>
      <trkpt lat="44.76498" lon="6.35051">
        <ele>2548.6</ele>
        <time>2024-08-12T08:56:09Z</time>
      </trkpt>
      <trkpt lat="44.76496" lon="6.35049">
        <ele>2548.4</ele>
        <time>2024-08-12T08:56:10Z</time>
      </trkpt>
      <trkpt lat="44.76496" lon="6.35049">
        <ele>2548</ele>
        <time>2024-08-12T08:56:11Z</time>
      </trkpt>
      <trkpt lat="44.76493" lon="6.35049">
        <ele>2547.8</ele>
        <time>2024-08-12T08:56:12Z</time>
      </trkpt>
      <trkpt lat="44.76493" lon="6.35049">
        <ele>2547.6</ele>
        <time>2024-08-12T08:56:13Z</time>
      </trkpt>
      <trkpt lat="44.76493" lon="6.35049">
        <ele>2546.8</ele>
        <time>2024-08-12T08:56:14Z</time>
      </trkpt>
      <trkpt lat="44.76493" lon="6.35049">
        <ele>2546.8</ele>
        <time>2024-08-12T08:56:15Z</time>
      </trkpt>
      <trkpt lat="44.76492" lon="6.35048">
        <ele>2546.6</ele>
        <time>2024-08-12T08:56:16Z</time>
      </trkpt>
      <trkpt lat="44.76492" lon="6.35048">
        <ele>2546.2</ele>
        <time>2024-08-12T08:56:17Z</time>
      </trkpt>
      <trkpt lat="44.76492" lon="6.35048">
        <ele>2546.2</ele>
        <time>2024-08-12T08:56:18Z</time>
      </trkpt>
      <trkpt lat="44.7649" lon="6.35046">
        <ele>2546.2</ele>
        <time>2024-08-12T08:56:19Z</time>
      </trkpt>
      <trkpt lat="44.7649" lon="6.35046">
        <ele>2545.8</ele>
        <time>2024-08-12T08:56:20Z</time>
      </trkpt>
      <trkpt lat="44.76488" lon="6.35045">
        <ele>2545.4</ele>
        <time>2024-08-12T08:56:21Z</time>
      </trkpt>
      <trkpt lat="44.76488" lon="6.35045">
        <ele>2545.2</ele>
        <time>2024-08-12T08:56:22Z</time>
      </trkpt>
      <trkpt lat="44.76486" lon="6.35044">
        <ele>2545</ele>
        <time>2024-08-12T08:56:23Z</time>
      </trkpt>
      <trkpt lat="44.76486" lon="6.35044">
        <ele>2544.8</ele>
        <time>2024-08-12T08:56:24Z</time>
      </trkpt>
      <trkpt lat="44.76483" lon="6.35044">
        <ele>2544.2</ele>
        <time>2024-08-12T08:56:25Z</time>
      </trkpt>
      <trkpt lat="44.76483" lon="6.35044">
        <ele>2544</ele>
        <time>2024-08-12T08:56:26Z</time>
      </trkpt>
      <trkpt lat="44.76481" lon="6.35045">
        <ele>2543.8</ele>
        <time>2024-08-12T08:56:27Z</time>
      </trkpt>
      <trkpt lat="44.76481" lon="6.35045">
        <ele>2543.8</ele>
        <time>2024-08-12T08:56:28Z</time>
      </trkpt>
      <trkpt lat="44.76479" lon="6.35047">
        <ele>2543.6</ele>
        <time>2024-08-12T08:56:29Z</time>
      </trkpt>
      <trkpt lat="44.76479" lon="6.35047">
        <ele>2543.6</ele>
        <time>2024-08-12T08:56:30Z</time>
      </trkpt>
      <trkpt lat="44.76478" lon="6.35048">
        <ele>2543.6</ele>
        <time>2024-08-12T08:56:31Z</time>
      </trkpt>
      <trkpt lat="44.76478" lon="6.35048">
        <ele>2543.8</ele>
        <time>2024-08-12T08:56:32Z</time>
      </trkpt>
      <trkpt lat="44.76476" lon="6.3505">
        <ele>2543.8</ele>
        <time>2024-08-12T08:56:33Z</time>
      </trkpt>
      <trkpt lat="44.76476" lon="6.3505">
        <ele>2543.6</ele>
        <time>2024-08-12T08:56:34Z</time>
      </trkpt>
      <trkpt lat="44.76474" lon="6.35052">
        <ele>2543.2</ele>
        <time>2024-08-12T08:56:35Z</time>
      </trkpt>
      <trkpt lat="44.76474" lon="6.35052">
        <ele>2543.2</ele>
        <time>2024-08-12T08:56:36Z</time>
      </trkpt>
      <trkpt lat="44.76474" lon="6.35052">
        <ele>2543.2</ele>
        <time>2024-08-12T08:56:37Z</time>
      </trkpt>
      <trkpt lat="44.76472" lon="6.35055">
        <ele>2542.8</ele>
        <time>2024-08-12T08:56:38Z</time>
      </trkpt>
      <trkpt lat="44.76472" lon="6.35055">
        <ele>2542.8</ele>
        <time>2024-08-12T08:56:39Z</time>
      </trkpt>
      <trkpt lat="44.76472" lon="6.35055">
        <ele>2542.4</ele>
        <time>2024-08-12T08:56:40Z</time>
      </trkpt>
      <trkpt lat="44.76472" lon="6.35055">
        <ele>2542.4</ele>
        <time>2024-08-12T08:56:41Z</time>
      </trkpt>
      <trkpt lat="44.7647" lon="6.35056">
        <ele>2542</ele>
        <time>2024-08-12T08:56:42Z</time>
      </trkpt>
      <trkpt lat="44.7647" lon="6.35056">
        <ele>2541.8</ele>
        <time>2024-08-12T08:56:43Z</time>
      </trkpt>
      <trkpt lat="44.7647" lon="6.35056">
        <ele>2541.6</ele>
        <time>2024-08-12T08:56:44Z</time>
      </trkpt>
      <trkpt lat="44.76468" lon="6.35058">
        <ele>2541</ele>
        <time>2024-08-12T08:56:45Z</time>
      </trkpt>
      <trkpt lat="44.76468" lon="6.35058">
        <ele>2540.8</ele>
        <time>2024-08-12T08:56:46Z</time>
      </trkpt>
      <trkpt lat="44.76466" lon="6.3506">
        <ele>2540.6</ele>
        <time>2024-08-12T08:56:47Z</time>
      </trkpt>
      <trkpt lat="44.76466" lon="6.3506">
        <ele>2540</ele>
        <time>2024-08-12T08:56:48Z</time>
      </trkpt>
      <trkpt lat="44.76466" lon="6.3506">
        <ele>2539.8</ele>
        <time>2024-08-12T08:56:49Z</time>
      </trkpt>
      <trkpt lat="44.76464" lon="6.3506">
        <ele>2539.8</ele>
        <time>2024-08-12T08:56:50Z</time>
      </trkpt>
      <trkpt lat="44.76464" lon="6.3506">
        <ele>2539.8</ele>
        <time>2024-08-12T08:56:51Z</time>
      </trkpt>
      <trkpt lat="44.76464" lon="6.3506">
        <ele>2539.8</ele>
        <time>2024-08-12T08:56:52Z</time>
      </trkpt>
      <trkpt lat="44.76462" lon="6.35061">
        <ele>2539.4</ele>
        <time>2024-08-12T08:56:53Z</time>
      </trkpt>
      <trkpt lat="44.76462" lon="6.35061">
        <ele>2539</ele>
        <time>2024-08-12T08:56:54Z</time>
      </trkpt>
      <trkpt lat="44.76462" lon="6.35061">
        <ele>2538.8</ele>
        <time>2024-08-12T08:56:55Z</time>
      </trkpt>
      <trkpt lat="44.7646" lon="6.35062">
        <ele>2538.6</ele>
        <time>2024-08-12T08:56:56Z</time>
      </trkpt>
      <trkpt lat="44.7646" lon="6.35062">
        <ele>2538.2</ele>
        <time>2024-08-12T08:56:57Z</time>
      </trkpt>
      <trkpt lat="44.7646" lon="6.35062">
        <ele>2537.8</ele>
        <time>2024-08-12T08:56:58Z</time>
      </trkpt>
      <trkpt lat="44.7646" lon="6.35058">
        <ele>2537.4</ele>
        <time>2024-08-12T08:56:59Z</time>
      </trkpt>
      <trkpt lat="44.7646" lon="6.35058">
        <ele>2537.2</ele>
        <time>2024-08-12T08:57:00Z</time>
      </trkpt>
      <trkpt lat="44.7646" lon="6.35056">
        <ele>2536.8</ele>
        <time>2024-08-12T08:57:01Z</time>
      </trkpt>
      <trkpt lat="44.7646" lon="6.35056">
        <ele>2536</ele>
        <time>2024-08-12T08:57:02Z</time>
      </trkpt>
      <trkpt lat="44.76461" lon="6.35053">
        <ele>2536</ele>
        <time>2024-08-12T08:57:03Z</time>
      </trkpt>
      <trkpt lat="44.76461" lon="6.35053">
        <ele>2535.6</ele>
        <time>2024-08-12T08:57:04Z</time>
      </trkpt>
      <trkpt lat="44.76462" lon="6.35051">
        <ele>2535.4</ele>
        <time>2024-08-12T08:57:05Z</time>
      </trkpt>
      <trkpt lat="44.76462" lon="6.35051">
        <ele>2534.8</ele>
        <time>2024-08-12T08:57:06Z</time>
      </trkpt>
      <trkpt lat="44.76463" lon="6.35049">
        <ele>2534.2</ele>
        <time>2024-08-12T08:57:07Z</time>
      </trkpt>
      <trkpt lat="44.76463" lon="6.35049">
        <ele>2534</ele>
        <time>2024-08-12T08:57:08Z</time>
      </trkpt>
      <trkpt lat="44.76464" lon="6.35047">
        <ele>2534</ele>
        <time>2024-08-12T08:57:09Z</time>
      </trkpt>
      <trkpt lat="44.76464" lon="6.35047">
        <ele>2533.6</ele>
        <time>2024-08-12T08:57:10Z</time>
      </trkpt>
      <trkpt lat="44.76466" lon="6.35044">
        <ele>2533.4</ele>
        <time>2024-08-12T08:57:11Z</time>
      </trkpt>
      <trkpt lat="44.76466" lon="6.35044">
        <ele>2533.2</ele>
        <time>2024-08-12T08:57:12Z</time>
      </trkpt>
      <trkpt lat="44.76467" lon="6.35042">
        <ele>2533.2</ele>
        <time>2024-08-12T08:57:13Z</time>
      </trkpt>
      <trkpt lat="44.76467" lon="6.35042">
        <ele>2533.2</ele>
        <time>2024-08-12T08:57:14Z</time>
      </trkpt>
      <trkpt lat="44.76469" lon="6.3504">
        <ele>2533.2</ele>
        <time>2024-08-12T08:57:15Z</time>
      </trkpt>
      <trkpt lat="44.76469" lon="6.3504">
        <ele>2532.8</ele>
        <time>2024-08-12T08:57:16Z</time>
      </trkpt>
      <trkpt lat="44.76469" lon="6.3504">
        <ele>2532.6</ele>
        <time>2024-08-12T08:57:17Z</time>
      </trkpt>
      <trkpt lat="44.76469" lon="6.35036">
        <ele>2532.6</ele>
        <time>2024-08-12T08:57:18Z</time>
      </trkpt>
      <trkpt lat="44.76469" lon="6.35036">
        <ele>2532.6</ele>
        <time>2024-08-12T08:57:19Z</time>
      </trkpt>
      <trkpt lat="44.76469" lon="6.35036">
        <ele>2532.2</ele>
        <time>2024-08-12T08:57:20Z</time>
      </trkpt>
      <trkpt lat="44.7647" lon="6.35034">
        <ele>2532</ele>
        <time>2024-08-12T08:57:21Z</time>
      </trkpt>
      <trkpt lat="44.7647" lon="6.35034">
        <ele>2531.8</ele>
        <time>2024-08-12T08:57:22Z</time>
      </trkpt>
      <trkpt lat="44.7647" lon="6.35034">
        <ele>2531.8</ele>
        <time>2024-08-12T08:57:23Z</time>
      </trkpt>
      <trkpt lat="44.76471" lon="6.35031">
        <ele>2531.4</ele>
        <time>2024-08-12T08:57:24Z</time>
      </trkpt>
      <trkpt lat="44.76471" lon="6.35031">
        <ele>2531</ele>
        <time>2024-08-12T08:57:25Z</time>
      </trkpt>
      <trkpt lat="44.76471" lon="6.35031">
        <ele>2530.6</ele>
        <time>2024-08-12T08:57:26Z</time>
      </trkpt>
      <trkpt lat="44.76471" lon="6.35031">
        <ele>2530.4</ele>
        <time>2024-08-12T08:57:27Z</time>
      </trkpt>
      <trkpt lat="44.76471" lon="6.35028">
        <ele>2530.4</ele>
        <time>2024-08-12T08:57:28Z</time>
      </trkpt>
      <trkpt lat="44.76471" lon="6.35028">
        <ele>2530.2</ele>
        <time>2024-08-12T08:57:29Z</time>
      </trkpt>
      <trkpt lat="44.76471" lon="6.35025">
        <ele>2530</ele>
        <time>2024-08-12T08:57:30Z</time>
      </trkpt>
      <trkpt lat="44.76471" lon="6.35025">
        <ele>2529.6</ele>
        <time>2024-08-12T08:57:31Z</time>
      </trkpt>
      <trkpt lat="44.76472" lon="6.35022">
        <ele>2529.2</ele>
        <time>2024-08-12T08:57:32Z</time>
      </trkpt>
      <trkpt lat="44.76472" lon="6.35022">
        <ele>2528.8</ele>
        <time>2024-08-12T08:57:33Z</time>
      </trkpt>
      <trkpt lat="44.76473" lon="6.3502">
        <ele>2528.6</ele>
        <time>2024-08-12T08:57:34Z</time>
      </trkpt>
      <trkpt lat="44.76473" lon="6.3502">
        <ele>2528.6</ele>
        <time>2024-08-12T08:57:35Z</time>
      </trkpt>
      <trkpt lat="44.76474" lon="6.35017">
        <ele>2528.8</ele>
        <time>2024-08-12T08:57:36Z</time>
      </trkpt>
      <trkpt lat="44.76474" lon="6.35017">
        <ele>2528.8</ele>
        <time>2024-08-12T08:57:37Z</time>
      </trkpt>
      <trkpt lat="44.76476" lon="6.35015">
        <ele>2528.6</ele>
        <time>2024-08-12T08:57:38Z</time>
      </trkpt>
      <trkpt lat="44.76476" lon="6.35015">
        <ele>2528.6</ele>
        <time>2024-08-12T08:57:39Z</time>
      </trkpt>
      <trkpt lat="44.76477" lon="6.35014">
        <ele>2528.8</ele>
        <time>2024-08-12T08:57:40Z</time>
      </trkpt>
      <trkpt lat="44.76477" lon="6.35014">
        <ele>2529</ele>
        <time>2024-08-12T08:57:41Z</time>
      </trkpt>
      <trkpt lat="44.76479" lon="6.35013">
        <ele>2529</ele>
        <time>2024-08-12T08:57:42Z</time>
      </trkpt>
      <trkpt lat="44.76479" lon="6.35013">
        <ele>2529</ele>
        <time>2024-08-12T08:57:43Z</time>
      </trkpt>
      <trkpt lat="44.76481" lon="6.35012">
        <ele>2528.8</ele>
        <time>2024-08-12T08:57:44Z</time>
      </trkpt>
      <trkpt lat="44.76481" lon="6.35012">
        <ele>2528.4</ele>
        <time>2024-08-12T08:57:45Z</time>
      </trkpt>
      <trkpt lat="44.76483" lon="6.35013">
        <ele>2528.2</ele>
        <time>2024-08-12T08:57:46Z</time>
      </trkpt>
      <trkpt lat="44.76483" lon="6.35013">
        <ele>2528.2</ele>
        <time>2024-08-12T08:57:47Z</time>
      </trkpt>
      <trkpt lat="44.76483" lon="6.35013">
        <ele>2527.8</ele>
        <time>2024-08-12T08:57:48Z</time>
      </trkpt>
      <trkpt lat="44.76483" lon="6.35013">
        <ele>2527.8</ele>
        <time>2024-08-12T08:57:49Z</time>
      </trkpt>
      <trkpt lat="44.76483" lon="6.35013">
        <ele>2527.8</ele>
        <time>2024-08-12T08:57:50Z</time>
      </trkpt>
      <trkpt lat="44.76483" lon="6.35013">
        <ele>2527.2</ele>
        <time>2024-08-12T08:57:51Z</time>
      </trkpt>
      <trkpt lat="44.76483" lon="6.35013">
        <ele>2527.2</ele>
        <time>2024-08-12T08:57:52Z</time>
      </trkpt>
      <trkpt lat="44.76485" lon="6.35012">
        <ele>2527</ele>
        <time>2024-08-12T08:57:53Z</time>
      </trkpt>
      <trkpt lat="44.76485" lon="6.35012">
        <ele>2526.8</ele>
        <time>2024-08-12T08:57:54Z</time>
      </trkpt>
      <trkpt lat="44.76485" lon="6.35012">
        <ele>2526.4</ele>
        <time>2024-08-12T08:57:55Z</time>
      </trkpt>
      <trkpt lat="44.76487" lon="6.35013">
        <ele>2526.4</ele>
        <time>2024-08-12T08:57:56Z</time>
      </trkpt>
      <trkpt lat="44.76487" lon="6.35013">
        <ele>2526.4</ele>
        <time>2024-08-12T08:57:57Z</time>
      </trkpt>
      <trkpt lat="44.76487" lon="6.35013">
        <ele>2526.4</ele>
        <time>2024-08-12T08:57:58Z</time>
      </trkpt>
      <trkpt lat="44.76487" lon="6.35013">
        <ele>2526.2</ele>
        <time>2024-08-12T08:57:59Z</time>
      </trkpt>
      <trkpt lat="44.76487" lon="6.35013">
        <ele>2526.2</ele>
        <time>2024-08-12T08:58:00Z</time>
      </trkpt>
      <trkpt lat="44.76488" lon="6.3501">
        <ele>2526</ele>
        <time>2024-08-12T08:58:01Z</time>
      </trkpt>
      <trkpt lat="44.76488" lon="6.3501">
        <ele>2525.2</ele>
        <time>2024-08-12T08:58:02Z</time>
      </trkpt>
      <trkpt lat="44.76485" lon="6.35009">
        <ele>2525.2</ele>
        <time>2024-08-12T08:58:03Z</time>
      </trkpt>
      <trkpt lat="44.76485" lon="6.35009">
        <ele>2524.8</ele>
        <time>2024-08-12T08:58:04Z</time>
      </trkpt>
      <trkpt lat="44.76484" lon="6.35007">
        <ele>2524.6</ele>
        <time>2024-08-12T08:58:05Z</time>
      </trkpt>
      <trkpt lat="44.76484" lon="6.35007">
        <ele>2524.6</ele>
        <time>2024-08-12T08:58:06Z</time>
      </trkpt>
      <trkpt lat="44.76482" lon="6.35005">
        <ele>2524.4</ele>
        <time>2024-08-12T08:58:07Z</time>
      </trkpt>
      <trkpt lat="44.76482" lon="6.35005">
        <ele>2524</ele>
        <time>2024-08-12T08:58:08Z</time>
      </trkpt>
      <trkpt lat="44.76481" lon="6.35004">
        <ele>2524</ele>
        <time>2024-08-12T08:58:09Z</time>
      </trkpt>
      <trkpt lat="44.76481" lon="6.35004">
        <ele>2524</ele>
        <time>2024-08-12T08:58:10Z</time>
      </trkpt>
      <trkpt lat="44.76478" lon="6.35003">
        <ele>2523.6</ele>
        <time>2024-08-12T08:58:11Z</time>
      </trkpt>
      <trkpt lat="44.76478" lon="6.35003">
        <ele>2523.2</ele>
        <time>2024-08-12T08:58:12Z</time>
      </trkpt>
      <trkpt lat="44.76478" lon="6.35003">
        <ele>2523.2</ele>
        <time>2024-08-12T08:58:13Z</time>
      </trkpt>
      <trkpt lat="44.76476" lon="6.35002">
        <ele>2522.8</ele>
        <time>2024-08-12T08:58:14Z</time>
      </trkpt>
      <trkpt lat="44.76476" lon="6.35002">
        <ele>2522.6</ele>
        <time>2024-08-12T08:58:15Z</time>
      </trkpt>
      <trkpt lat="44.76476" lon="6.35002">
        <ele>2522.4</ele>
        <time>2024-08-12T08:58:16Z</time>
      </trkpt>
      <trkpt lat="44.76473" lon="6.35003">
        <ele>2522.2</ele>
        <time>2024-08-12T08:58:17Z</time>
      </trkpt>
      <trkpt lat="44.76473" lon="6.35003">
        <ele>2522</ele>
        <time>2024-08-12T08:58:18Z</time>
      </trkpt>
      <trkpt lat="44.76473" lon="6.35003">
        <ele>2522</ele>
        <time>2024-08-12T08:58:19Z</time>
      </trkpt>
      <trkpt lat="44.76473" lon="6.35003">
        <ele>2521.8</ele>
        <time>2024-08-12T08:58:20Z</time>
      </trkpt>
      <trkpt lat="44.76471" lon="6.35004">
        <ele>2521.8</ele>
        <time>2024-08-12T08:58:21Z</time>
      </trkpt>
      <trkpt lat="44.76471" lon="6.35004">
        <ele>2521.6</ele>
        <time>2024-08-12T08:58:22Z</time>
      </trkpt>
      <trkpt lat="44.7647" lon="6.35007">
        <ele>2521</ele>
        <time>2024-08-12T08:58:23Z</time>
      </trkpt>
      <trkpt lat="44.7647" lon="6.35007">
        <ele>2521</ele>
        <time>2024-08-12T08:58:24Z</time>
      </trkpt>
      <trkpt lat="44.7647" lon="6.35007">
        <ele>2521</ele>
        <time>2024-08-12T08:58:25Z</time>
      </trkpt>
      <trkpt lat="44.7647" lon="6.35007">
        <ele>2520.4</ele>
        <time>2024-08-12T08:58:26Z</time>
      </trkpt>
      <trkpt lat="44.76468" lon="6.35009">
        <ele>2520.2</ele>
        <time>2024-08-12T08:58:27Z</time>
      </trkpt>
      <trkpt lat="44.76468" lon="6.35009">
        <ele>2519.8</ele>
        <time>2024-08-12T08:58:28Z</time>
      </trkpt>
      <trkpt lat="44.76466" lon="6.35011">
        <ele>2519.2</ele>
        <time>2024-08-12T08:58:29Z</time>
      </trkpt>
      <trkpt lat="44.76466" lon="6.35011">
        <ele>2519.2</ele>
        <time>2024-08-12T08:58:30Z</time>
      </trkpt>
      <trkpt lat="44.76466" lon="6.35011">
        <ele>2519</ele>
        <time>2024-08-12T08:58:31Z</time>
      </trkpt>
      <trkpt lat="44.76466" lon="6.35011">
        <ele>2518.8</ele>
        <time>2024-08-12T08:58:32Z</time>
      </trkpt>
      <trkpt lat="44.76465" lon="6.35013">
        <ele>2518.8</ele>
        <time>2024-08-12T08:58:33Z</time>
      </trkpt>
      <trkpt lat="44.76465" lon="6.35013">
        <ele>2518.8</ele>
        <time>2024-08-12T08:58:34Z</time>
      </trkpt>
      <trkpt lat="44.76465" lon="6.35013">
        <ele>2518.8</ele>
        <time>2024-08-12T08:58:35Z</time>
      </trkpt>
      <trkpt lat="44.76465" lon="6.35013">
        <ele>2518.8</ele>
        <time>2024-08-12T08:58:36Z</time>
      </trkpt>
      <trkpt lat="44.76465" lon="6.35013">
        <ele>2518.8</ele>
        <time>2024-08-12T08:58:37Z</time>
      </trkpt>
      <trkpt lat="44.76465" lon="6.35013">
        <ele>2518.8</ele>
        <time>2024-08-12T08:58:38Z</time>
      </trkpt>
      <trkpt lat="44.76465" lon="6.35013">
        <ele>2518.8</ele>
        <time>2024-08-12T08:58:39Z</time>
      </trkpt>
      <trkpt lat="44.76465" lon="6.35013">
        <ele>2518.8</ele>
        <time>2024-08-12T08:58:40Z</time>
      </trkpt>
      <trkpt lat="44.76465" lon="6.35013">
        <ele>2518.8</ele>
        <time>2024-08-12T08:58:41Z</time>
      </trkpt>
      <trkpt lat="44.76465" lon="6.35013">
        <ele>2518.4</ele>
        <time>2024-08-12T08:58:42Z</time>
      </trkpt>
      <trkpt lat="44.76465" lon="6.35013">
        <ele>2518.2</ele>
        <time>2024-08-12T08:58:43Z</time>
      </trkpt>
      <trkpt lat="44.76465" lon="6.35013">
        <ele>2518</ele>
        <time>2024-08-12T08:58:44Z</time>
      </trkpt>
      <trkpt lat="44.76465" lon="6.35013">
        <ele>2518</ele>
        <time>2024-08-12T08:58:45Z</time>
      </trkpt>
      <trkpt lat="44.76465" lon="6.35013">
        <ele>2518</ele>
        <time>2024-08-12T08:58:46Z</time>
      </trkpt>
      <trkpt lat="44.76465" lon="6.35013">
        <ele>2518</ele>
        <time>2024-08-12T08:58:47Z</time>
      </trkpt>
      <trkpt lat="44.76465" lon="6.35013">
        <ele>2517.8</ele>
        <time>2024-08-12T08:58:48Z</time>
      </trkpt>
      <trkpt lat="44.76465" lon="6.35013">
        <ele>2517.8</ele>
        <time>2024-08-12T08:58:49Z</time>
      </trkpt>
      <trkpt lat="44.76465" lon="6.35013">
        <ele>2517.8</ele>
        <time>2024-08-12T08:58:50Z</time>
      </trkpt>
      <trkpt lat="44.76465" lon="6.35013">
        <ele>2517.8</ele>
        <time>2024-08-12T08:58:51Z</time>
      </trkpt>
      <trkpt lat="44.76465" lon="6.35013">
        <ele>2517.8</ele>
        <time>2024-08-12T08:58:52Z</time>
      </trkpt>
      <trkpt lat="44.76465" lon="6.35013">
        <ele>2517.8</ele>
        <time>2024-08-12T08:58:53Z</time>
      </trkpt>
      <trkpt lat="44.76465" lon="6.35013">
        <ele>2517.6</ele>
        <time>2024-08-12T08:58:54Z</time>
      </trkpt>
      <trkpt lat="44.76465" lon="6.35013">
        <ele>2517.6</ele>
        <time>2024-08-12T08:58:55Z</time>
      </trkpt>
      <trkpt lat="44.76465" lon="6.35013">
        <ele>2517.6</ele>
        <time>2024-08-12T08:58:56Z</time>
      </trkpt>
      <trkpt lat="44.76465" lon="6.35013">
        <ele>2517.6</ele>
        <time>2024-08-12T08:58:57Z</time>
      </trkpt>
      <trkpt lat="44.76465" lon="6.35013">
        <ele>2517.6</ele>
        <time>2024-08-12T08:58:58Z</time>
      </trkpt>
      <trkpt lat="44.76465" lon="6.35013">
        <ele>2517.6</ele>
        <time>2024-08-12T08:58:59Z</time>
      </trkpt>
      <trkpt lat="44.76463" lon="6.35014">
        <ele>2517.2</ele>
        <time>2024-08-12T08:59:00Z</time>
      </trkpt>
      <trkpt lat="44.76463" lon="6.35014">
        <ele>2516.8</ele>
        <time>2024-08-12T08:59:01Z</time>
      </trkpt>
      <trkpt lat="44.76462" lon="6.35016">
        <ele>2516.6</ele>
        <time>2024-08-12T08:59:02Z</time>
      </trkpt>
      <trkpt lat="44.76462" lon="6.35016">
        <ele>2516.6</ele>
        <time>2024-08-12T08:59:03Z</time>
      </trkpt>
      <trkpt lat="44.7646" lon="6.35016">
        <ele>2516.6</ele>
        <time>2024-08-12T08:59:04Z</time>
      </trkpt>
      <trkpt lat="44.7646" lon="6.35016">
        <ele>2516.4</ele>
        <time>2024-08-12T08:59:05Z</time>
      </trkpt>
      <trkpt lat="44.76458" lon="6.35017">
        <ele>2515.8</ele>
        <time>2024-08-12T08:59:06Z</time>
      </trkpt>
      <trkpt lat="44.76458" lon="6.35017">
        <ele>2515.6</ele>
        <time>2024-08-12T08:59:07Z</time>
      </trkpt>
      <trkpt lat="44.76458" lon="6.35017">
        <ele>2515</ele>
        <time>2024-08-12T08:59:08Z</time>
      </trkpt>
      <trkpt lat="44.76456" lon="6.35018">
        <ele>2514.6</ele>
        <time>2024-08-12T08:59:09Z</time>
      </trkpt>
      <trkpt lat="44.76456" lon="6.35018">
        <ele>2514.6</ele>
        <time>2024-08-12T08:59:10Z</time>
      </trkpt>
      <trkpt lat="44.76456" lon="6.35018">
        <ele>2514.6</ele>
        <time>2024-08-12T08:59:11Z</time>
      </trkpt>
      <trkpt lat="44.76454" lon="6.35016">
        <ele>2514.2</ele>
        <time>2024-08-12T08:59:12Z</time>
      </trkpt>
      <trkpt lat="44.76454" lon="6.35016">
        <ele>2513.6</ele>
        <time>2024-08-12T08:59:13Z</time>
      </trkpt>
      <trkpt lat="44.76454" lon="6.35016">
        <ele>2513.2</ele>
        <time>2024-08-12T08:59:14Z</time>
      </trkpt>
      <trkpt lat="44.76455" lon="6.35014">
        <ele>2513.2</ele>
        <time>2024-08-12T08:59:15Z</time>
      </trkpt>
      <trkpt lat="44.76455" lon="6.35014">
        <ele>2513</ele>
        <time>2024-08-12T08:59:16Z</time>
      </trkpt>
      <trkpt lat="44.76455" lon="6.35014">
        <ele>2512.6</ele>
        <time>2024-08-12T08:59:17Z</time>
      </trkpt>
      <trkpt lat="44.76455" lon="6.35014">
        <ele>2512.4</ele>
        <time>2024-08-12T08:59:18Z</time>
      </trkpt>
      <trkpt lat="44.76456" lon="6.35011">
        <ele>2512.2</ele>
        <time>2024-08-12T08:59:19Z</time>
      </trkpt>
      <trkpt lat="44.76456" lon="6.35011">
        <ele>2511.8</ele>
        <time>2024-08-12T08:59:20Z</time>
      </trkpt>
      <trkpt lat="44.76456" lon="6.35011">
        <ele>2511.4</ele>
        <time>2024-08-12T08:59:21Z</time>
      </trkpt>
      <trkpt lat="44.76456" lon="6.35011">
        <ele>2511.4</ele>
        <time>2024-08-12T08:59:22Z</time>
      </trkpt>
      <trkpt lat="44.76456" lon="6.35011">
        <ele>2511.2</ele>
        <time>2024-08-12T08:59:23Z</time>
      </trkpt>
      <trkpt lat="44.76456" lon="6.35008">
        <ele>2510.8</ele>
        <time>2024-08-12T08:59:24Z</time>
      </trkpt>
      <trkpt lat="44.76456" lon="6.35008">
        <ele>2510.4</ele>
        <time>2024-08-12T08:59:25Z</time>
      </trkpt>
      <trkpt lat="44.76456" lon="6.35005">
        <ele>2510</ele>
        <time>2024-08-12T08:59:26Z</time>
      </trkpt>
      <trkpt lat="44.76456" lon="6.35005">
        <ele>2510</ele>
        <time>2024-08-12T08:59:27Z</time>
      </trkpt>
      <trkpt lat="44.76457" lon="6.35001">
        <ele>2509.6</ele>
        <time>2024-08-12T08:59:28Z</time>
      </trkpt>
      <trkpt lat="44.76457" lon="6.35001">
        <ele>2509</ele>
        <time>2024-08-12T08:59:29Z</time>
      </trkpt>
      <trkpt lat="44.76458" lon="6.34999">
        <ele>2508.8</ele>
        <time>2024-08-12T08:59:30Z</time>
      </trkpt>
      <trkpt lat="44.76458" lon="6.34999">
        <ele>2508.2</ele>
        <time>2024-08-12T08:59:31Z</time>
      </trkpt>
      <trkpt lat="44.76458" lon="6.34996">
        <ele>2508</ele>
        <time>2024-08-12T08:59:32Z</time>
      </trkpt>
      <trkpt lat="44.76458" lon="6.34996">
        <ele>2507.8</ele>
        <time>2024-08-12T08:59:33Z</time>
      </trkpt>
      <trkpt lat="44.76459" lon="6.34992">
        <ele>2507.4</ele>
        <time>2024-08-12T08:59:34Z</time>
      </trkpt>
      <trkpt lat="44.76459" lon="6.34992">
        <ele>2507.2</ele>
        <time>2024-08-12T08:59:35Z</time>
      </trkpt>
      <trkpt lat="44.76459" lon="6.34989">
        <ele>2506.8</ele>
        <time>2024-08-12T08:59:36Z</time>
      </trkpt>
      <trkpt lat="44.76459" lon="6.34989">
        <ele>2506.6</ele>
        <time>2024-08-12T08:59:37Z</time>
      </trkpt>
      <trkpt lat="44.76459" lon="6.34987">
        <ele>2506.4</ele>
        <time>2024-08-12T08:59:38Z</time>
      </trkpt>
      <trkpt lat="44.76459" lon="6.34987">
        <ele>2506.2</ele>
        <time>2024-08-12T08:59:39Z</time>
      </trkpt>
      <trkpt lat="44.76459" lon="6.34983">
        <ele>2505.8</ele>
        <time>2024-08-12T08:59:40Z</time>
      </trkpt>
      <trkpt lat="44.76459" lon="6.34983">
        <ele>2505.8</ele>
        <time>2024-08-12T08:59:41Z</time>
      </trkpt>
      <trkpt lat="44.7646" lon="6.3498">
        <ele>2505.4</ele>
        <time>2024-08-12T08:59:42Z</time>
      </trkpt>
      <trkpt lat="44.7646" lon="6.3498">
        <ele>2505.4</ele>
        <time>2024-08-12T08:59:43Z</time>
      </trkpt>
      <trkpt lat="44.76461" lon="6.34978">
        <ele>2505.4</ele>
        <time>2024-08-12T08:59:44Z</time>
      </trkpt>
      <trkpt lat="44.76461" lon="6.34978">
        <ele>2505.8</ele>
        <time>2024-08-12T08:59:45Z</time>
      </trkpt>
      <trkpt lat="44.76461" lon="6.34978">
        <ele>2505.8</ele>
        <time>2024-08-12T08:59:46Z</time>
      </trkpt>
      <trkpt lat="44.76463" lon="6.34976">
        <ele>2505.8</ele>
        <time>2024-08-12T08:59:47Z</time>
      </trkpt>
      <trkpt lat="44.76463" lon="6.34976">
        <ele>2505.6</ele>
        <time>2024-08-12T08:59:48Z</time>
      </trkpt>
      <trkpt lat="44.76466" lon="6.34975">
        <ele>2505.4</ele>
        <time>2024-08-12T08:59:49Z</time>
      </trkpt>
      <trkpt lat="44.76466" lon="6.34975">
        <ele>2505</ele>
        <time>2024-08-12T08:59:50Z</time>
      </trkpt>
      <trkpt lat="44.76466" lon="6.34975">
        <ele>2504.8</ele>
        <time>2024-08-12T08:59:51Z</time>
      </trkpt>
      <trkpt lat="44.76468" lon="6.34974">
        <ele>2504.4</ele>
        <time>2024-08-12T08:59:52Z</time>
      </trkpt>
      <trkpt lat="44.76468" lon="6.34974">
        <ele>2504</ele>
        <time>2024-08-12T08:59:53Z</time>
      </trkpt>
      <trkpt lat="44.76468" lon="6.34974">
        <ele>2503.6</ele>
        <time>2024-08-12T08:59:54Z</time>
      </trkpt>
      <trkpt lat="44.76465" lon="6.34974">
        <ele>2503.6</ele>
        <time>2024-08-12T08:59:55Z</time>
      </trkpt>
      <trkpt lat="44.76465" lon="6.34974">
        <ele>2503.6</ele>
        <time>2024-08-12T08:59:56Z</time>
      </trkpt>
      <trkpt lat="44.76463" lon="6.34973">
        <ele>2503.4</ele>
        <time>2024-08-12T08:59:57Z</time>
      </trkpt>
      <trkpt lat="44.76463" lon="6.34973">
        <ele>2503.4</ele>
        <time>2024-08-12T08:59:58Z</time>
      </trkpt>
      <trkpt lat="44.76463" lon="6.34973">
        <ele>2503.2</ele>
        <time>2024-08-12T08:59:59Z</time>
      </trkpt>
      <trkpt lat="44.7646" lon="6.34972">
        <ele>2502.8</ele>
        <time>2024-08-12T09:00:00Z</time>
      </trkpt>
      <trkpt lat="44.7646" lon="6.34972">
        <ele>2502.6</ele>
        <time>2024-08-12T09:00:01Z</time>
      </trkpt>
      <trkpt lat="44.7646" lon="6.34972">
        <ele>2502.2</ele>
        <time>2024-08-12T09:00:02Z</time>
      </trkpt>
      <trkpt lat="44.7646" lon="6.34972">
        <ele>2502.2</ele>
        <time>2024-08-12T09:00:03Z</time>
      </trkpt>
      <trkpt lat="44.76458" lon="6.34971">
        <ele>2501.8</ele>
        <time>2024-08-12T09:00:04Z</time>
      </trkpt>
      <trkpt lat="44.76458" lon="6.34971">
        <ele>2501.8</ele>
        <time>2024-08-12T09:00:05Z</time>
      </trkpt>
      <trkpt lat="44.76458" lon="6.34971">
        <ele>2501.8</ele>
        <time>2024-08-12T09:00:06Z</time>
      </trkpt>
      <trkpt lat="44.76458" lon="6.34971">
        <ele>2501.4</ele>
        <time>2024-08-12T09:00:07Z</time>
      </trkpt>
      <trkpt lat="44.76458" lon="6.34971">
        <ele>2500.8</ele>
        <time>2024-08-12T09:00:08Z</time>
      </trkpt>
      <trkpt lat="44.76458" lon="6.34971">
        <ele>2500.6</ele>
        <time>2024-08-12T09:00:09Z</time>
      </trkpt>
      <trkpt lat="44.76458" lon="6.34971">
        <ele>2500.4</ele>
        <time>2024-08-12T09:00:10Z</time>
      </trkpt>
      <trkpt lat="44.76458" lon="6.34971">
        <ele>2500.2</ele>
        <time>2024-08-12T09:00:11Z</time>
      </trkpt>
      <trkpt lat="44.76455" lon="6.3497">
        <ele>2500</ele>
        <time>2024-08-12T09:00:12Z</time>
      </trkpt>
      <trkpt lat="44.76455" lon="6.3497">
        <ele>2499.8</ele>
        <time>2024-08-12T09:00:13Z</time>
      </trkpt>
      <trkpt lat="44.76452" lon="6.34971">
        <ele>2499.6</ele>
        <time>2024-08-12T09:00:14Z</time>
      </trkpt>
      <trkpt lat="44.76452" lon="6.34971">
        <ele>2499.4</ele>
        <time>2024-08-12T09:00:15Z</time>
      </trkpt>
      <trkpt lat="44.76449" lon="6.34971">
        <ele>2499</ele>
        <time>2024-08-12T09:00:16Z</time>
      </trkpt>
      <trkpt lat="44.76449" lon="6.34971">
        <ele>2498.8</ele>
        <time>2024-08-12T09:00:17Z</time>
      </trkpt>
      <trkpt lat="44.76449" lon="6.34971">
        <ele>2498.6</ele>
        <time>2024-08-12T09:00:18Z</time>
      </trkpt>
      <trkpt lat="44.76449" lon="6.34968">
        <ele>2498.4</ele>
        <time>2024-08-12T09:00:19Z</time>
      </trkpt>
      <trkpt lat="44.76449" lon="6.34968">
        <ele>2498.4</ele>
        <time>2024-08-12T09:00:20Z</time>
      </trkpt>
      <trkpt lat="44.76449" lon="6.34968">
        <ele>2498</ele>
        <time>2024-08-12T09:00:21Z</time>
      </trkpt>
      <trkpt lat="44.7645" lon="6.34964">
        <ele>2497.8</ele>
        <time>2024-08-12T09:00:22Z</time>
      </trkpt>
      <trkpt lat="44.7645" lon="6.34964">
        <ele>2497.6</ele>
        <time>2024-08-12T09:00:23Z</time>
      </trkpt>
      <trkpt lat="44.76451" lon="6.34962">
        <ele>2497.2</ele>
        <time>2024-08-12T09:00:24Z</time>
      </trkpt>
      <trkpt lat="44.76451" lon="6.34962">
        <ele>2496.8</ele>
        <time>2024-08-12T09:00:25Z</time>
      </trkpt>
      <trkpt lat="44.76452" lon="6.34961">
        <ele>2496.8</ele>
        <time>2024-08-12T09:00:26Z</time>
      </trkpt>
      <trkpt lat="44.76452" lon="6.34961">
        <ele>2496.4</ele>
        <time>2024-08-12T09:00:27Z</time>
      </trkpt>
      <trkpt lat="44.76454" lon="6.3496">
        <ele>2496.4</ele>
        <time>2024-08-12T09:00:28Z</time>
      </trkpt>
      <trkpt lat="44.76454" lon="6.3496">
        <ele>2496.2</ele>
        <time>2024-08-12T09:00:29Z</time>
      </trkpt>
      <trkpt lat="44.76456" lon="6.34958">
        <ele>2495.8</ele>
        <time>2024-08-12T09:00:30Z</time>
      </trkpt>
      <trkpt lat="44.76456" lon="6.34958">
        <ele>2495.6</ele>
        <time>2024-08-12T09:00:31Z</time>
      </trkpt>
      <trkpt lat="44.76458" lon="6.34958">
        <ele>2495.4</ele>
        <time>2024-08-12T09:00:32Z</time>
      </trkpt>
      <trkpt lat="44.76458" lon="6.34958">
        <ele>2495</ele>
        <time>2024-08-12T09:00:33Z</time>
      </trkpt>
      <trkpt lat="44.7646" lon="6.34958">
        <ele>2495</ele>
        <time>2024-08-12T09:00:34Z</time>
      </trkpt>
      <trkpt lat="44.7646" lon="6.34958">
        <ele>2494.8</ele>
        <time>2024-08-12T09:00:35Z</time>
      </trkpt>
      <trkpt lat="44.76462" lon="6.34959">
        <ele>2494.8</ele>
        <time>2024-08-12T09:00:36Z</time>
      </trkpt>
      <trkpt lat="44.76462" lon="6.34959">
        <ele>2494.4</ele>
        <time>2024-08-12T09:00:37Z</time>
      </trkpt>
      <trkpt lat="44.76464" lon="6.34961">
        <ele>2494.4</ele>
        <time>2024-08-12T09:00:38Z</time>
      </trkpt>
      <trkpt lat="44.76464" lon="6.34961">
        <ele>2494.2</ele>
        <time>2024-08-12T09:00:39Z</time>
      </trkpt>
      <trkpt lat="44.76466" lon="6.34962">
        <ele>2494.2</ele>
        <time>2024-08-12T09:00:40Z</time>
      </trkpt>
      <trkpt lat="44.76466" lon="6.34962">
        <ele>2494</ele>
        <time>2024-08-12T09:00:41Z</time>
      </trkpt>
      <trkpt lat="44.76469" lon="6.34962">
        <ele>2493.8</ele>
        <time>2024-08-12T09:00:42Z</time>
      </trkpt>
      <trkpt lat="44.76469" lon="6.34962">
        <ele>2493.6</ele>
        <time>2024-08-12T09:00:43Z</time>
      </trkpt>
      <trkpt lat="44.76471" lon="6.34962">
        <ele>2493.2</ele>
        <time>2024-08-12T09:00:44Z</time>
      </trkpt>
      <trkpt lat="44.76471" lon="6.34962">
        <ele>2493.2</ele>
        <time>2024-08-12T09:00:45Z</time>
      </trkpt>
      <trkpt lat="44.76474" lon="6.34963">
        <ele>2493</ele>
        <time>2024-08-12T09:00:46Z</time>
      </trkpt>
      <trkpt lat="44.76474" lon="6.34963">
        <ele>2492.8</ele>
        <time>2024-08-12T09:00:47Z</time>
      </trkpt>
      <trkpt lat="44.76476" lon="6.34964">
        <ele>2492.6</ele>
        <time>2024-08-12T09:00:48Z</time>
      </trkpt>
      <trkpt lat="44.76476" lon="6.34964">
        <ele>2492.2</ele>
        <time>2024-08-12T09:00:49Z</time>
      </trkpt>
      <trkpt lat="44.76479" lon="6.34965">
        <ele>2492.2</ele>
        <time>2024-08-12T09:00:50Z</time>
      </trkpt>
      <trkpt lat="44.76479" lon="6.34965">
        <ele>2492</ele>
        <time>2024-08-12T09:00:51Z</time>
      </trkpt>
      <trkpt lat="44.76481" lon="6.34966">
        <ele>2491.8</ele>
        <time>2024-08-12T09:00:52Z</time>
      </trkpt>
      <trkpt lat="44.76481" lon="6.34966">
        <ele>2491.4</ele>
        <time>2024-08-12T09:00:53Z</time>
      </trkpt>
      <trkpt lat="44.76483" lon="6.34966">
        <ele>2491.2</ele>
        <time>2024-08-12T09:00:54Z</time>
      </trkpt>
      <trkpt lat="44.76483" lon="6.34966">
        <ele>2491</ele>
        <time>2024-08-12T09:00:55Z</time>
      </trkpt>
      <trkpt lat="44.76485" lon="6.34966">
        <ele>2490.6</ele>
        <time>2024-08-12T09:00:56Z</time>
      </trkpt>
      <trkpt lat="44.76485" lon="6.34966">
        <ele>2490.6</ele>
        <time>2024-08-12T09:00:57Z</time>
      </trkpt>
      <trkpt lat="44.76487" lon="6.34966">
        <ele>2490.4</ele>
        <time>2024-08-12T09:00:58Z</time>
      </trkpt>
      <trkpt lat="44.76487" lon="6.34966">
        <ele>2490.4</ele>
        <time>2024-08-12T09:00:59Z</time>
      </trkpt>
      <trkpt lat="44.7649" lon="6.34967">
        <ele>2490</ele>
        <time>2024-08-12T09:01:00Z</time>
      </trkpt>
      <trkpt lat="44.7649" lon="6.34967">
        <ele>2490</ele>
        <time>2024-08-12T09:01:01Z</time>
      </trkpt>
      <trkpt lat="44.76492" lon="6.34969">
        <ele>2489.8</ele>
        <time>2024-08-12T09:01:02Z</time>
      </trkpt>
      <trkpt lat="44.76494" lon="6.3497">
        <ele>2489.6</ele>
        <time>2024-08-12T09:01:03Z</time>
      </trkpt>
      <trkpt lat="44.76494" lon="6.3497">
        <ele>2489.6</ele>
        <time>2024-08-12T09:01:04Z</time>
      </trkpt>
      <trkpt lat="44.76494" lon="6.3497">
        <ele>2489.4</ele>
        <time>2024-08-12T09:01:05Z</time>
      </trkpt>
      <trkpt lat="44.76496" lon="6.3497">
        <ele>2489.4</ele>
        <time>2024-08-12T09:01:06Z</time>
      </trkpt>
      <trkpt lat="44.76496" lon="6.3497">
        <ele>2489.4</ele>
        <time>2024-08-12T09:01:07Z</time>
      </trkpt>
      <trkpt lat="44.76496" lon="6.3497">
        <ele>2489.4</ele>
        <time>2024-08-12T09:01:08Z</time>
      </trkpt>
      <trkpt lat="44.76498" lon="6.34971">
        <ele>2489.2</ele>
        <time>2024-08-12T09:01:09Z</time>
      </trkpt>
      <trkpt lat="44.76498" lon="6.34971">
        <ele>2488.8</ele>
        <time>2024-08-12T09:01:10Z</time>
      </trkpt>
      <trkpt lat="44.76498" lon="6.34971">
        <ele>2488.6</ele>
        <time>2024-08-12T09:01:11Z</time>
      </trkpt>
      <trkpt lat="44.76498" lon="6.34971">
        <ele>2488.2</ele>
        <time>2024-08-12T09:01:12Z</time>
      </trkpt>
      <trkpt lat="44.765" lon="6.34969">
        <ele>2488</ele>
        <time>2024-08-12T09:01:13Z</time>
      </trkpt>
      <trkpt lat="44.765" lon="6.34969">
        <ele>2488</ele>
        <time>2024-08-12T09:01:14Z</time>
      </trkpt>
      <trkpt lat="44.765" lon="6.34969">
        <ele>2487.8</ele>
        <time>2024-08-12T09:01:15Z</time>
      </trkpt>
      <trkpt lat="44.76501" lon="6.34966">
        <ele>2487.8</ele>
        <time>2024-08-12T09:01:16Z</time>
      </trkpt>
      <trkpt lat="44.76501" lon="6.34966">
        <ele>2487.6</ele>
        <time>2024-08-12T09:01:17Z</time>
      </trkpt>
      <trkpt lat="44.76502" lon="6.34963">
        <ele>2487.6</ele>
        <time>2024-08-12T09:01:18Z</time>
      </trkpt>
      <trkpt lat="44.76502" lon="6.34963">
        <ele>2487.2</ele>
        <time>2024-08-12T09:01:19Z</time>
      </trkpt>
      <trkpt lat="44.76503" lon="6.34961">
        <ele>2486.8</ele>
        <time>2024-08-12T09:01:20Z</time>
      </trkpt>
      <trkpt lat="44.76503" lon="6.34961">
        <ele>2486.4</ele>
        <time>2024-08-12T09:01:21Z</time>
      </trkpt>
      <trkpt lat="44.76505" lon="6.3496">
        <ele>2486.2</ele>
        <time>2024-08-12T09:01:22Z</time>
      </trkpt>
      <trkpt lat="44.76505" lon="6.3496">
        <ele>2486</ele>
        <time>2024-08-12T09:01:23Z</time>
      </trkpt>
      <trkpt lat="44.76508" lon="6.34959">
        <ele>2485.6</ele>
        <time>2024-08-12T09:01:24Z</time>
      </trkpt>
      <trkpt lat="44.76508" lon="6.34959">
        <ele>2485.6</ele>
        <time>2024-08-12T09:01:25Z</time>
      </trkpt>
      <trkpt lat="44.7651" lon="6.34957">
        <ele>2485.6</ele>
        <time>2024-08-12T09:01:26Z</time>
      </trkpt>
      <trkpt lat="44.7651" lon="6.34957">
        <ele>2485.4</ele>
        <time>2024-08-12T09:01:27Z</time>
      </trkpt>
      <trkpt lat="44.76512" lon="6.34955">
        <ele>2485</ele>
        <time>2024-08-12T09:01:28Z</time>
      </trkpt>
      <trkpt lat="44.76512" lon="6.34955">
        <ele>2485</ele>
        <time>2024-08-12T09:01:29Z</time>
      </trkpt>
      <trkpt lat="44.76515" lon="6.34954">
        <ele>2484.8</ele>
        <time>2024-08-12T09:01:30Z</time>
      </trkpt>
      <trkpt lat="44.76515" lon="6.34954">
        <ele>2484.8</ele>
        <time>2024-08-12T09:01:31Z</time>
      </trkpt>
      <trkpt lat="44.76517" lon="6.34955">
        <ele>2484.6</ele>
        <time>2024-08-12T09:01:32Z</time>
      </trkpt>
      <trkpt lat="44.76517" lon="6.34955">
        <ele>2484.2</ele>
        <time>2024-08-12T09:01:33Z</time>
      </trkpt>
      <trkpt lat="44.76517" lon="6.34955">
        <ele>2484.2</ele>
        <time>2024-08-12T09:01:34Z</time>
      </trkpt>
      <trkpt lat="44.76517" lon="6.34955">
        <ele>2484.2</ele>
        <time>2024-08-12T09:01:35Z</time>
      </trkpt>
      <trkpt lat="44.76517" lon="6.34955">
        <ele>2483.8</ele>
        <time>2024-08-12T09:01:36Z</time>
      </trkpt>
      <trkpt lat="44.76515" lon="6.34955">
        <ele>2483.6</ele>
        <time>2024-08-12T09:01:37Z</time>
      </trkpt>
      <trkpt lat="44.76515" lon="6.34955">
        <ele>2483.6</ele>
        <time>2024-08-12T09:01:38Z</time>
      </trkpt>
      <trkpt lat="44.76512" lon="6.34955">
        <ele>2482.8</ele>
        <time>2024-08-12T09:01:39Z</time>
      </trkpt>
      <trkpt lat="44.76512" lon="6.34955">
        <ele>2482.6</ele>
        <time>2024-08-12T09:01:40Z</time>
      </trkpt>
      <trkpt lat="44.7651" lon="6.34955">
        <ele>2482.4</ele>
        <time>2024-08-12T09:01:41Z</time>
      </trkpt>
      <trkpt lat="44.7651" lon="6.34955">
        <ele>2482.4</ele>
        <time>2024-08-12T09:01:42Z</time>
      </trkpt>
      <trkpt lat="44.76508" lon="6.34954">
        <ele>2482.2</ele>
        <time>2024-08-12T09:01:43Z</time>
      </trkpt>
      <trkpt lat="44.76508" lon="6.34954">
        <ele>2481.8</ele>
        <time>2024-08-12T09:01:44Z</time>
      </trkpt>
      <trkpt lat="44.76506" lon="6.34953">
        <ele>2481.8</ele>
        <time>2024-08-12T09:01:45Z</time>
      </trkpt>
      <trkpt lat="44.76506" lon="6.34953">
        <ele>2481.8</ele>
        <time>2024-08-12T09:01:46Z</time>
      </trkpt>
      <trkpt lat="44.76504" lon="6.34952">
        <ele>2481.4</ele>
        <time>2024-08-12T09:01:47Z</time>
      </trkpt>
      <trkpt lat="44.76504" lon="6.34952">
        <ele>2481.2</ele>
        <time>2024-08-12T09:01:48Z</time>
      </trkpt>
      <trkpt lat="44.76502" lon="6.34952">
        <ele>2481</ele>
        <time>2024-08-12T09:01:49Z</time>
      </trkpt>
      <trkpt lat="44.76502" lon="6.34952">
        <ele>2480.8</ele>
        <time>2024-08-12T09:01:50Z</time>
      </trkpt>
      <trkpt lat="44.765" lon="6.34952">
        <ele>2480.2</ele>
        <time>2024-08-12T09:01:51Z</time>
      </trkpt>
      <trkpt lat="44.765" lon="6.34952">
        <ele>2480</ele>
        <time>2024-08-12T09:01:52Z</time>
      </trkpt>
      <trkpt lat="44.765" lon="6.34952">
        <ele>2479.8</ele>
        <time>2024-08-12T09:01:53Z</time>
      </trkpt>
      <trkpt lat="44.765" lon="6.34952">
        <ele>2479.4</ele>
        <time>2024-08-12T09:01:54Z</time>
      </trkpt>
      <trkpt lat="44.76501" lon="6.34949">
        <ele>2479.2</ele>
        <time>2024-08-12T09:01:55Z</time>
      </trkpt>
      <trkpt lat="44.76501" lon="6.34949">
        <ele>2479</ele>
        <time>2024-08-12T09:01:56Z</time>
      </trkpt>
      <trkpt lat="44.76502" lon="6.34947">
        <ele>2479</ele>
        <time>2024-08-12T09:01:57Z</time>
      </trkpt>
      <trkpt lat="44.76502" lon="6.34947">
        <ele>2478.8</ele>
        <time>2024-08-12T09:01:58Z</time>
      </trkpt>
      <trkpt lat="44.76505" lon="6.34946">
        <ele>2478.4</ele>
        <time>2024-08-12T09:01:59Z</time>
      </trkpt>
      <trkpt lat="44.76505" lon="6.34946">
        <ele>2478.4</ele>
        <time>2024-08-12T09:02:00Z</time>
      </trkpt>
      <trkpt lat="44.76507" lon="6.34945">
        <ele>2478</ele>
        <time>2024-08-12T09:02:01Z</time>
      </trkpt>
      <trkpt lat="44.76507" lon="6.34945">
        <ele>2477.8</ele>
        <time>2024-08-12T09:02:02Z</time>
      </trkpt>
      <trkpt lat="44.76509" lon="6.34944">
        <ele>2477.8</ele>
        <time>2024-08-12T09:02:03Z</time>
      </trkpt>
      <trkpt lat="44.76509" lon="6.34944">
        <ele>2477.8</ele>
        <time>2024-08-12T09:02:04Z</time>
      </trkpt>
      <trkpt lat="44.76511" lon="6.34943">
        <ele>2477.6</ele>
        <time>2024-08-12T09:02:05Z</time>
      </trkpt>
      <trkpt lat="44.76511" lon="6.34943">
        <ele>2477.6</ele>
        <time>2024-08-12T09:02:06Z</time>
      </trkpt>
      <trkpt lat="44.76514" lon="6.34943">
        <ele>2477.2</ele>
        <time>2024-08-12T09:02:07Z</time>
      </trkpt>
      <trkpt lat="44.76514" lon="6.34943">
        <ele>2477.2</ele>
        <time>2024-08-12T09:02:08Z</time>
      </trkpt>
      <trkpt lat="44.76516" lon="6.34942">
        <ele>2477</ele>
        <time>2024-08-12T09:02:09Z</time>
      </trkpt>
      <trkpt lat="44.76516" lon="6.34942">
        <ele>2476.4</ele>
        <time>2024-08-12T09:02:10Z</time>
      </trkpt>
      <trkpt lat="44.76516" lon="6.34942">
        <ele>2476.4</ele>
        <time>2024-08-12T09:02:11Z</time>
      </trkpt>
      <trkpt lat="44.76518" lon="6.34941">
        <ele>2476.2</ele>
        <time>2024-08-12T09:02:12Z</time>
      </trkpt>
      <trkpt lat="44.76518" lon="6.34941">
        <ele>2476</ele>
        <time>2024-08-12T09:02:13Z</time>
      </trkpt>
      <trkpt lat="44.76518" lon="6.34941">
        <ele>2475.8</ele>
        <time>2024-08-12T09:02:14Z</time>
      </trkpt>
      <trkpt lat="44.76518" lon="6.34941">
        <ele>2475.6</ele>
        <time>2024-08-12T09:02:15Z</time>
      </trkpt>
      <trkpt lat="44.7652" lon="6.34939">
        <ele>2475.4</ele>
        <time>2024-08-12T09:02:16Z</time>
      </trkpt>
      <trkpt lat="44.7652" lon="6.34939">
        <ele>2475.2</ele>
        <time>2024-08-12T09:02:17Z</time>
      </trkpt>
      <trkpt lat="44.7652" lon="6.34939">
        <ele>2474.6</ele>
        <time>2024-08-12T09:02:18Z</time>
      </trkpt>
      <trkpt lat="44.7652" lon="6.34939">
        <ele>2474.4</ele>
        <time>2024-08-12T09:02:19Z</time>
      </trkpt>
      <trkpt lat="44.7652" lon="6.34939">
        <ele>2474.2</ele>
        <time>2024-08-12T09:02:20Z</time>
      </trkpt>
      <trkpt lat="44.76517" lon="6.34937">
        <ele>2474.2</ele>
        <time>2024-08-12T09:02:21Z</time>
      </trkpt>
      <trkpt lat="44.76517" lon="6.34937">
        <ele>2473.8</ele>
        <time>2024-08-12T09:02:22Z</time>
      </trkpt>
      <trkpt lat="44.76515" lon="6.34935">
        <ele>2473.6</ele>
        <time>2024-08-12T09:02:23Z</time>
      </trkpt>
      <trkpt lat="44.76515" lon="6.34935">
        <ele>2473.2</ele>
        <time>2024-08-12T09:02:24Z</time>
      </trkpt>
      <trkpt lat="44.76512" lon="6.34934">
        <ele>2472.8</ele>
        <time>2024-08-12T09:02:25Z</time>
      </trkpt>
      <trkpt lat="44.76512" lon="6.34934">
        <ele>2472.8</ele>
        <time>2024-08-12T09:02:26Z</time>
      </trkpt>
      <trkpt lat="44.7651" lon="6.34933">
        <ele>2472.6</ele>
        <time>2024-08-12T09:02:27Z</time>
      </trkpt>
      <trkpt lat="44.7651" lon="6.34933">
        <ele>2472.4</ele>
        <time>2024-08-12T09:02:28Z</time>
      </trkpt>
      <trkpt lat="44.76508" lon="6.34932">
        <ele>2472.4</ele>
        <time>2024-08-12T09:02:29Z</time>
      </trkpt>
      <trkpt lat="44.76508" lon="6.34932">
        <ele>2472.2</ele>
        <time>2024-08-12T09:02:30Z</time>
      </trkpt>
      <trkpt lat="44.76506" lon="6.34931">
        <ele>2472</ele>
        <time>2024-08-12T09:02:31Z</time>
      </trkpt>
      <trkpt lat="44.76506" lon="6.34931">
        <ele>2472</ele>
        <time>2024-08-12T09:02:32Z</time>
      </trkpt>
      <trkpt lat="44.76503" lon="6.34931">
        <ele>2471.8</ele>
        <time>2024-08-12T09:02:33Z</time>
      </trkpt>
      <trkpt lat="44.76503" lon="6.34931">
        <ele>2471.4</ele>
        <time>2024-08-12T09:02:34Z</time>
      </trkpt>
      <trkpt lat="44.76503" lon="6.34931">
        <ele>2471.2</ele>
        <time>2024-08-12T09:02:35Z</time>
      </trkpt>
      <trkpt lat="44.76501" lon="6.3493">
        <ele>2470.6</ele>
        <time>2024-08-12T09:02:36Z</time>
      </trkpt>
      <trkpt lat="44.76501" lon="6.3493">
        <ele>2470.6</ele>
        <time>2024-08-12T09:02:37Z</time>
      </trkpt>
      <trkpt lat="44.76499" lon="6.34929">
        <ele>2470.4</ele>
        <time>2024-08-12T09:02:38Z</time>
      </trkpt>
      <trkpt lat="44.76499" lon="6.34929">
        <ele>2470.2</ele>
        <time>2024-08-12T09:02:39Z</time>
      </trkpt>
      <trkpt lat="44.76497" lon="6.34929">
        <ele>2470</ele>
        <time>2024-08-12T09:02:40Z</time>
      </trkpt>
      <trkpt lat="44.76497" lon="6.34929">
        <ele>2469.8</ele>
        <time>2024-08-12T09:02:41Z</time>
      </trkpt>
      <trkpt lat="44.76497" lon="6.34929">
        <ele>2469.8</ele>
        <time>2024-08-12T09:02:42Z</time>
      </trkpt>
      <trkpt lat="44.76494" lon="6.34929">
        <ele>2469.6</ele>
        <time>2024-08-12T09:02:43Z</time>
      </trkpt>
      <trkpt lat="44.76494" lon="6.34929">
        <ele>2469.2</ele>
        <time>2024-08-12T09:02:44Z</time>
      </trkpt>
      <trkpt lat="44.76492" lon="6.34929">
        <ele>2469</ele>
        <time>2024-08-12T09:02:45Z</time>
      </trkpt>
      <trkpt lat="44.76492" lon="6.34929">
        <ele>2468.8</ele>
        <time>2024-08-12T09:02:46Z</time>
      </trkpt>
      <trkpt lat="44.76489" lon="6.34929">
        <ele>2468.4</ele>
        <time>2024-08-12T09:02:47Z</time>
      </trkpt>
      <trkpt lat="44.76489" lon="6.34929">
        <ele>2468</ele>
        <time>2024-08-12T09:02:48Z</time>
      </trkpt>
      <trkpt lat="44.76489" lon="6.34929">
        <ele>2467.6</ele>
        <time>2024-08-12T09:02:49Z</time>
      </trkpt>
      <trkpt lat="44.76487" lon="6.3493">
        <ele>2467.6</ele>
        <time>2024-08-12T09:02:50Z</time>
      </trkpt>
      <trkpt lat="44.76487" lon="6.3493">
        <ele>2467.4</ele>
        <time>2024-08-12T09:02:51Z</time>
      </trkpt>
      <trkpt lat="44.76487" lon="6.3493">
        <ele>2467</ele>
        <time>2024-08-12T09:02:52Z</time>
      </trkpt>
      <trkpt lat="44.76487" lon="6.3493">
        <ele>2466.4</ele>
        <time>2024-08-12T09:02:53Z</time>
      </trkpt>
      <trkpt lat="44.76487" lon="6.3493">
        <ele>2465.8</ele>
        <time>2024-08-12T09:02:54Z</time>
      </trkpt>
      <trkpt lat="44.76488" lon="6.34927">
        <ele>2465.8</ele>
        <time>2024-08-12T09:02:55Z</time>
      </trkpt>
      <trkpt lat="44.76488" lon="6.34927">
        <ele>2465.4</ele>
        <time>2024-08-12T09:02:56Z</time>
      </trkpt>
      <trkpt lat="44.76489" lon="6.34925">
        <ele>2465.4</ele>
        <time>2024-08-12T09:02:57Z</time>
      </trkpt>
      <trkpt lat="44.76489" lon="6.34925">
        <ele>2465.4</ele>
        <time>2024-08-12T09:02:58Z</time>
      </trkpt>
      <trkpt lat="44.76491" lon="6.34923">
        <ele>2465.4</ele>
        <time>2024-08-12T09:02:59Z</time>
      </trkpt>
      <trkpt lat="44.76491" lon="6.34923">
        <ele>2465.2</ele>
        <time>2024-08-12T09:03:00Z</time>
      </trkpt>
      <trkpt lat="44.76491" lon="6.34923">
        <ele>2465</ele>
        <time>2024-08-12T09:03:01Z</time>
      </trkpt>
      <trkpt lat="44.76493" lon="6.3492">
        <ele>2464.6</ele>
        <time>2024-08-12T09:03:02Z</time>
      </trkpt>
      <trkpt lat="44.76493" lon="6.3492">
        <ele>2464.6</ele>
        <time>2024-08-12T09:03:03Z</time>
      </trkpt>
      <trkpt lat="44.76495" lon="6.34919">
        <ele>2464.6</ele>
        <time>2024-08-12T09:03:04Z</time>
      </trkpt>
      <trkpt lat="44.76495" lon="6.34919">
        <ele>2464.4</ele>
        <time>2024-08-12T09:03:05Z</time>
      </trkpt>
      <trkpt lat="44.76497" lon="6.34918">
        <ele>2464.2</ele>
        <time>2024-08-12T09:03:06Z</time>
      </trkpt>
      <trkpt lat="44.76497" lon="6.34918">
        <ele>2463.8</ele>
        <time>2024-08-12T09:03:07Z</time>
      </trkpt>
      <trkpt lat="44.76499" lon="6.34916">
        <ele>2463.4</ele>
        <time>2024-08-12T09:03:08Z</time>
      </trkpt>
      <trkpt lat="44.76499" lon="6.34916">
        <ele>2463.4</ele>
        <time>2024-08-12T09:03:09Z</time>
      </trkpt>
      <trkpt lat="44.76501" lon="6.34915">
        <ele>2463.2</ele>
        <time>2024-08-12T09:03:10Z</time>
      </trkpt>
      <trkpt lat="44.76501" lon="6.34915">
        <ele>2462.8</ele>
        <time>2024-08-12T09:03:11Z</time>
      </trkpt>
      <trkpt lat="44.76503" lon="6.34915">
        <ele>2462.8</ele>
        <time>2024-08-12T09:03:12Z</time>
      </trkpt>
      <trkpt lat="44.76503" lon="6.34915">
        <ele>2462.6</ele>
        <time>2024-08-12T09:03:13Z</time>
      </trkpt>
      <trkpt lat="44.76503" lon="6.34915">
        <ele>2462.4</ele>
        <time>2024-08-12T09:03:14Z</time>
      </trkpt>
      <trkpt lat="44.76505" lon="6.34913">
        <ele>2462.2</ele>
        <time>2024-08-12T09:03:15Z</time>
      </trkpt>
      <trkpt lat="44.76505" lon="6.34913">
        <ele>2462</ele>
        <time>2024-08-12T09:03:16Z</time>
      </trkpt>
      <trkpt lat="44.76505" lon="6.34913">
        <ele>2461.8</ele>
        <time>2024-08-12T09:03:17Z</time>
      </trkpt>
      <trkpt lat="44.76508" lon="6.34911">
        <ele>2461.8</ele>
        <time>2024-08-12T09:03:18Z</time>
      </trkpt>
      <trkpt lat="44.76508" lon="6.34911">
        <ele>2461.6</ele>
        <time>2024-08-12T09:03:19Z</time>
      </trkpt>
      <trkpt lat="44.76508" lon="6.34911">
        <ele>2461.2</ele>
        <time>2024-08-12T09:03:20Z</time>
      </trkpt>
      <trkpt lat="44.76509" lon="6.34909">
        <ele>2461</ele>
        <time>2024-08-12T09:03:21Z</time>
      </trkpt>
      <trkpt lat="44.76509" lon="6.34909">
        <ele>2460.8</ele>
        <time>2024-08-12T09:03:22Z</time>
      </trkpt>
      <trkpt lat="44.76511" lon="6.34907">
        <ele>2460.6</ele>
        <time>2024-08-12T09:03:23Z</time>
      </trkpt>
      <trkpt lat="44.76511" lon="6.34907">
        <ele>2460.4</ele>
        <time>2024-08-12T09:03:24Z</time>
      </trkpt>
      <trkpt lat="44.76511" lon="6.34907">
        <ele>2460</ele>
        <time>2024-08-12T09:03:25Z</time>
      </trkpt>
      <trkpt lat="44.76513" lon="6.34905">
        <ele>2459.8</ele>
        <time>2024-08-12T09:03:26Z</time>
      </trkpt>
      <trkpt lat="44.76513" lon="6.34905">
        <ele>2459.8</ele>
        <time>2024-08-12T09:03:27Z</time>
      </trkpt>
      <trkpt lat="44.76513" lon="6.34905">
        <ele>2459.4</ele>
        <time>2024-08-12T09:03:28Z</time>
      </trkpt>
      <trkpt lat="44.76515" lon="6.34904">
        <ele>2459</ele>
        <time>2024-08-12T09:03:29Z</time>
      </trkpt>
      <trkpt lat="44.76515" lon="6.34904">
        <ele>2458.6</ele>
        <time>2024-08-12T09:03:30Z</time>
      </trkpt>
      <trkpt lat="44.76515" lon="6.34904">
        <ele>2458.4</ele>
        <time>2024-08-12T09:03:31Z</time>
      </trkpt>
      <trkpt lat="44.76515" lon="6.34904">
        <ele>2458</ele>
        <time>2024-08-12T09:03:32Z</time>
      </trkpt>
      <trkpt lat="44.76515" lon="6.34904">
        <ele>2457.6</ele>
        <time>2024-08-12T09:03:33Z</time>
      </trkpt>
      <trkpt lat="44.76515" lon="6.34904">
        <ele>2457.4</ele>
        <time>2024-08-12T09:03:34Z</time>
      </trkpt>
      <trkpt lat="44.76515" lon="6.34904">
        <ele>2457</ele>
        <time>2024-08-12T09:03:35Z</time>
      </trkpt>
      <trkpt lat="44.76515" lon="6.34904">
        <ele>2456.8</ele>
        <time>2024-08-12T09:03:36Z</time>
      </trkpt>
      <trkpt lat="44.76514" lon="6.34901">
        <ele>2456.4</ele>
        <time>2024-08-12T09:03:37Z</time>
      </trkpt>
      <trkpt lat="44.76514" lon="6.34901">
        <ele>2456</ele>
        <time>2024-08-12T09:03:38Z</time>
      </trkpt>
      <trkpt lat="44.76512" lon="6.349">
        <ele>2455.8</ele>
        <time>2024-08-12T09:03:39Z</time>
      </trkpt>
      <trkpt lat="44.76512" lon="6.349">
        <ele>2455.4</ele>
        <time>2024-08-12T09:03:40Z</time>
      </trkpt>
      <trkpt lat="44.7651" lon="6.34899">
        <ele>2455.2</ele>
        <time>2024-08-12T09:03:41Z</time>
      </trkpt>
      <trkpt lat="44.7651" lon="6.34899">
        <ele>2454.6</ele>
        <time>2024-08-12T09:03:42Z</time>
      </trkpt>
      <trkpt lat="44.7651" lon="6.34899">
        <ele>2454.4</ele>
        <time>2024-08-12T09:03:43Z</time>
      </trkpt>
      <trkpt lat="44.76508" lon="6.34898">
        <ele>2454</ele>
        <time>2024-08-12T09:03:44Z</time>
      </trkpt>
      <trkpt lat="44.76508" lon="6.34898">
        <ele>2453.8</ele>
        <time>2024-08-12T09:03:45Z</time>
      </trkpt>
      <trkpt lat="44.76508" lon="6.34898">
        <ele>2453.6</ele>
        <time>2024-08-12T09:03:46Z</time>
      </trkpt>
      <trkpt lat="44.76506" lon="6.34897">
        <ele>2453.4</ele>
        <time>2024-08-12T09:03:47Z</time>
      </trkpt>
      <trkpt lat="44.76506" lon="6.34897">
        <ele>2453.2</ele>
        <time>2024-08-12T09:03:48Z</time>
      </trkpt>
      <trkpt lat="44.76506" lon="6.34897">
        <ele>2452.6</ele>
        <time>2024-08-12T09:03:49Z</time>
      </trkpt>
      <trkpt lat="44.76503" lon="6.34896">
        <ele>2452.6</ele>
        <time>2024-08-12T09:03:50Z</time>
      </trkpt>
      <trkpt lat="44.76503" lon="6.34896">
        <ele>2452.4</ele>
        <time>2024-08-12T09:03:51Z</time>
      </trkpt>
      <trkpt lat="44.76501" lon="6.34895">
        <ele>2452</ele>
        <time>2024-08-12T09:03:52Z</time>
      </trkpt>
      <trkpt lat="44.76501" lon="6.34895">
        <ele>2451.8</ele>
        <time>2024-08-12T09:03:53Z</time>
      </trkpt>
      <trkpt lat="44.765" lon="6.34894">
        <ele>2451.4</ele>
        <time>2024-08-12T09:03:54Z</time>
      </trkpt>
      <trkpt lat="44.765" lon="6.34894">
        <ele>2451.2</ele>
        <time>2024-08-12T09:03:55Z</time>
      </trkpt>
      <trkpt lat="44.765" lon="6.34894">
        <ele>2451</ele>
        <time>2024-08-12T09:03:56Z</time>
      </trkpt>
      <trkpt lat="44.76497" lon="6.34893">
        <ele>2450.6</ele>
        <time>2024-08-12T09:03:57Z</time>
      </trkpt>
      <trkpt lat="44.76497" lon="6.34893">
        <ele>2450.2</ele>
        <time>2024-08-12T09:03:58Z</time>
      </trkpt>
      <trkpt lat="44.76497" lon="6.34893">
        <ele>2449.8</ele>
        <time>2024-08-12T09:03:59Z</time>
      </trkpt>
      <trkpt lat="44.76497" lon="6.34893">
        <ele>2449.6</ele>
        <time>2024-08-12T09:04:00Z</time>
      </trkpt>
      <trkpt lat="44.76495" lon="6.34892">
        <ele>2449.6</ele>
        <time>2024-08-12T09:04:01Z</time>
      </trkpt>
      <trkpt lat="44.76495" lon="6.34892">
        <ele>2449</ele>
        <time>2024-08-12T09:04:02Z</time>
      </trkpt>
      <trkpt lat="44.76493" lon="6.3489">
        <ele>2449</ele>
        <time>2024-08-12T09:04:03Z</time>
      </trkpt>
      <trkpt lat="44.76493" lon="6.3489">
        <ele>2448.8</ele>
        <time>2024-08-12T09:04:04Z</time>
      </trkpt>
      <trkpt lat="44.76493" lon="6.3489">
        <ele>2448.6</ele>
        <time>2024-08-12T09:04:05Z</time>
      </trkpt>
      <trkpt lat="44.76491" lon="6.3489">
        <ele>2448.6</ele>
        <time>2024-08-12T09:04:06Z</time>
      </trkpt>
      <trkpt lat="44.76491" lon="6.3489">
        <ele>2448.2</ele>
        <time>2024-08-12T09:04:07Z</time>
      </trkpt>
      <trkpt lat="44.76491" lon="6.3489">
        <ele>2447.8</ele>
        <time>2024-08-12T09:04:08Z</time>
      </trkpt>
      <trkpt lat="44.76489" lon="6.34889">
        <ele>2447.4</ele>
        <time>2024-08-12T09:04:09Z</time>
      </trkpt>
      <trkpt lat="44.76489" lon="6.34889">
        <ele>2447.2</ele>
        <time>2024-08-12T09:04:10Z</time>
      </trkpt>
      <trkpt lat="44.76489" lon="6.34889">
        <ele>2446.8</ele>
        <time>2024-08-12T09:04:11Z</time>
      </trkpt>
      <trkpt lat="44.76486" lon="6.34889">
        <ele>2446.6</ele>
        <time>2024-08-12T09:04:12Z</time>
      </trkpt>
      <trkpt lat="44.76486" lon="6.34889">
        <ele>2446.4</ele>
        <time>2024-08-12T09:04:13Z</time>
      </trkpt>
      <trkpt lat="44.76484" lon="6.34889">
        <ele>2446</ele>
        <time>2024-08-12T09:04:14Z</time>
      </trkpt>
      <trkpt lat="44.76484" lon="6.34889">
        <ele>2446</ele>
        <time>2024-08-12T09:04:15Z</time>
      </trkpt>
      <trkpt lat="44.76482" lon="6.34889">
        <ele>2445.8</ele>
        <time>2024-08-12T09:04:16Z</time>
      </trkpt>
      <trkpt lat="44.76482" lon="6.34889">
        <ele>2445.2</ele>
        <time>2024-08-12T09:04:17Z</time>
      </trkpt>
      <trkpt lat="44.76482" lon="6.34889">
        <ele>2444.8</ele>
        <time>2024-08-12T09:04:18Z</time>
      </trkpt>
      <trkpt lat="44.76479" lon="6.3489">
        <ele>2444.6</ele>
        <time>2024-08-12T09:04:19Z</time>
      </trkpt>
      <trkpt lat="44.76479" lon="6.3489">
        <ele>2444.4</ele>
        <time>2024-08-12T09:04:20Z</time>
      </trkpt>
      <trkpt lat="44.76479" lon="6.3489">
        <ele>2444</ele>
        <time>2024-08-12T09:04:21Z</time>
      </trkpt>
      <trkpt lat="44.76479" lon="6.3489">
        <ele>2443.8</ele>
        <time>2024-08-12T09:04:22Z</time>
      </trkpt>
      <trkpt lat="44.76477" lon="6.34891">
        <ele>2443.6</ele>
        <time>2024-08-12T09:04:23Z</time>
      </trkpt>
      <trkpt lat="44.76477" lon="6.34891">
        <ele>2443.4</ele>
        <time>2024-08-12T09:04:24Z</time>
      </trkpt>
      <trkpt lat="44.76477" lon="6.34891">
        <ele>2443.2</ele>
        <time>2024-08-12T09:04:25Z</time>
      </trkpt>
      <trkpt lat="44.76477" lon="6.34887">
        <ele>2443.2</ele>
        <time>2024-08-12T09:04:26Z</time>
      </trkpt>
      <trkpt lat="44.76477" lon="6.34887">
        <ele>2442.8</ele>
        <time>2024-08-12T09:04:27Z</time>
      </trkpt>
      <trkpt lat="44.76477" lon="6.34887">
        <ele>2442.6</ele>
        <time>2024-08-12T09:04:28Z</time>
      </trkpt>
      <trkpt lat="44.76479" lon="6.34885">
        <ele>2442</ele>
        <time>2024-08-12T09:04:29Z</time>
      </trkpt>
      <trkpt lat="44.76479" lon="6.34885">
        <ele>2442</ele>
        <time>2024-08-12T09:04:30Z</time>
      </trkpt>
      <trkpt lat="44.7648" lon="6.34883">
        <ele>2442</ele>
        <time>2024-08-12T09:04:31Z</time>
      </trkpt>
      <trkpt lat="44.7648" lon="6.34883">
        <ele>2441.8</ele>
        <time>2024-08-12T09:04:32Z</time>
      </trkpt>
      <trkpt lat="44.76482" lon="6.3488">
        <ele>2441.6</ele>
        <time>2024-08-12T09:04:33Z</time>
      </trkpt>
      <trkpt lat="44.76482" lon="6.3488">
        <ele>2441.2</ele>
        <time>2024-08-12T09:04:34Z</time>
      </trkpt>
      <trkpt lat="44.76483" lon="6.34878">
        <ele>2441</ele>
        <time>2024-08-12T09:04:35Z</time>
      </trkpt>
      <trkpt lat="44.76483" lon="6.34878">
        <ele>2440.8</ele>
        <time>2024-08-12T09:04:36Z</time>
      </trkpt>
      <trkpt lat="44.76485" lon="6.34876">
        <ele>2440</ele>
        <time>2024-08-12T09:04:37Z</time>
      </trkpt>
      <trkpt lat="44.76485" lon="6.34876">
        <ele>2439.8</ele>
        <time>2024-08-12T09:04:38Z</time>
      </trkpt>
      <trkpt lat="44.76487" lon="6.34875">
        <ele>2439.8</ele>
        <time>2024-08-12T09:04:39Z</time>
      </trkpt>
      <trkpt lat="44.76487" lon="6.34875">
        <ele>2439.4</ele>
        <time>2024-08-12T09:04:40Z</time>
      </trkpt>
      <trkpt lat="44.76488" lon="6.34873">
        <ele>2439.2</ele>
        <time>2024-08-12T09:04:41Z</time>
      </trkpt>
      <trkpt lat="44.76488" lon="6.34873">
        <ele>2439.2</ele>
        <time>2024-08-12T09:04:42Z</time>
      </trkpt>
      <trkpt lat="44.76488" lon="6.34873">
        <ele>2438.8</ele>
        <time>2024-08-12T09:04:43Z</time>
      </trkpt>
      <trkpt lat="44.7649" lon="6.34871">
        <ele>2438.6</ele>
        <time>2024-08-12T09:04:44Z</time>
      </trkpt>
      <trkpt lat="44.7649" lon="6.34871">
        <ele>2438.2</ele>
        <time>2024-08-12T09:04:45Z</time>
      </trkpt>
      <trkpt lat="44.7649" lon="6.34871">
        <ele>2437.8</ele>
        <time>2024-08-12T09:04:46Z</time>
      </trkpt>
      <trkpt lat="44.76491" lon="6.34868">
        <ele>2437.8</ele>
        <time>2024-08-12T09:04:47Z</time>
      </trkpt>
      <trkpt lat="44.76491" lon="6.34868">
        <ele>2437.6</ele>
        <time>2024-08-12T09:04:48Z</time>
      </trkpt>
      <trkpt lat="44.76491" lon="6.34868">
        <ele>2437.4</ele>
        <time>2024-08-12T09:04:49Z</time>
      </trkpt>
      <trkpt lat="44.76491" lon="6.34866">
        <ele>2437.2</ele>
        <time>2024-08-12T09:04:50Z</time>
      </trkpt>
      <trkpt lat="44.76491" lon="6.34866">
        <ele>2437</ele>
        <time>2024-08-12T09:04:51Z</time>
      </trkpt>
      <trkpt lat="44.76491" lon="6.34866">
        <ele>2436.6</ele>
        <time>2024-08-12T09:04:52Z</time>
      </trkpt>
      <trkpt lat="44.76489" lon="6.34865">
        <ele>2436.2</ele>
        <time>2024-08-12T09:04:53Z</time>
      </trkpt>
      <trkpt lat="44.76489" lon="6.34865">
        <ele>2436.2</ele>
        <time>2024-08-12T09:04:54Z</time>
      </trkpt>
      <trkpt lat="44.76486" lon="6.34865">
        <ele>2435.8</ele>
        <time>2024-08-12T09:04:55Z</time>
      </trkpt>
      <trkpt lat="44.76486" lon="6.34865">
        <ele>2435.6</ele>
        <time>2024-08-12T09:04:56Z</time>
      </trkpt>
      <trkpt lat="44.76484" lon="6.34865">
        <ele>2435.4</ele>
        <time>2024-08-12T09:04:57Z</time>
      </trkpt>
      <trkpt lat="44.76484" lon="6.34865">
        <ele>2435</ele>
        <time>2024-08-12T09:04:58Z</time>
      </trkpt>
      <trkpt lat="44.76482" lon="6.34865">
        <ele>2434.6</ele>
        <time>2024-08-12T09:04:59Z</time>
      </trkpt>
      <trkpt lat="44.76482" lon="6.34865">
        <ele>2434.4</ele>
        <time>2024-08-12T09:05:00Z</time>
      </trkpt>
      <trkpt lat="44.76482" lon="6.34865">
        <ele>2434.2</ele>
        <time>2024-08-12T09:05:01Z</time>
      </trkpt>
      <trkpt lat="44.7648" lon="6.34865">
        <ele>2433.8</ele>
        <time>2024-08-12T09:05:02Z</time>
      </trkpt>
      <trkpt lat="44.7648" lon="6.34865">
        <ele>2433.8</ele>
        <time>2024-08-12T09:05:03Z</time>
      </trkpt>
      <trkpt lat="44.7648" lon="6.34865">
        <ele>2433.4</ele>
        <time>2024-08-12T09:05:04Z</time>
      </trkpt>
      <trkpt lat="44.76477" lon="6.34865">
        <ele>2433</ele>
        <time>2024-08-12T09:05:05Z</time>
      </trkpt>
      <trkpt lat="44.76477" lon="6.34865">
        <ele>2432.8</ele>
        <time>2024-08-12T09:05:06Z</time>
      </trkpt>
      <trkpt lat="44.76475" lon="6.34865">
        <ele>2432.4</ele>
        <time>2024-08-12T09:05:07Z</time>
      </trkpt>
      <trkpt lat="44.76475" lon="6.34865">
        <ele>2432.2</ele>
        <time>2024-08-12T09:05:08Z</time>
      </trkpt>
      <trkpt lat="44.76473" lon="6.34865">
        <ele>2432</ele>
        <time>2024-08-12T09:05:09Z</time>
      </trkpt>
      <trkpt lat="44.76473" lon="6.34865">
        <ele>2431.6</ele>
        <time>2024-08-12T09:05:10Z</time>
      </trkpt>
      <trkpt lat="44.76471" lon="6.34866">
        <ele>2431.4</ele>
        <time>2024-08-12T09:05:11Z</time>
      </trkpt>
      <trkpt lat="44.76471" lon="6.34866">
        <ele>2431</ele>
        <time>2024-08-12T09:05:12Z</time>
      </trkpt>
      <trkpt lat="44.76468" lon="6.34866">
        <ele>2430.6</ele>
        <time>2024-08-12T09:05:13Z</time>
      </trkpt>
      <trkpt lat="44.76468" lon="6.34866">
        <ele>2430.6</ele>
        <time>2024-08-12T09:05:14Z</time>
      </trkpt>
      <trkpt lat="44.76466" lon="6.34867">
        <ele>2430.4</ele>
        <time>2024-08-12T09:05:15Z</time>
      </trkpt>
      <trkpt lat="44.76466" lon="6.34867">
        <ele>2430</ele>
        <time>2024-08-12T09:05:16Z</time>
      </trkpt>
      <trkpt lat="44.76466" lon="6.34867">
        <ele>2429.8</ele>
        <time>2024-08-12T09:05:17Z</time>
      </trkpt>
      <trkpt lat="44.76464" lon="6.34868">
        <ele>2429.6</ele>
        <time>2024-08-12T09:05:18Z</time>
      </trkpt>
      <trkpt lat="44.76464" lon="6.34868">
        <ele>2429.6</ele>
        <time>2024-08-12T09:05:19Z</time>
      </trkpt>
      <trkpt lat="44.76464" lon="6.34868">
        <ele>2429.4</ele>
        <time>2024-08-12T09:05:20Z</time>
      </trkpt>
      <trkpt lat="44.76461" lon="6.34869">
        <ele>2429.2</ele>
        <time>2024-08-12T09:05:21Z</time>
      </trkpt>
      <trkpt lat="44.76461" lon="6.34869">
        <ele>2428.8</ele>
        <time>2024-08-12T09:05:22Z</time>
      </trkpt>
      <trkpt lat="44.7646" lon="6.3487">
        <ele>2428.4</ele>
        <time>2024-08-12T09:05:23Z</time>
      </trkpt>
      <trkpt lat="44.7646" lon="6.3487">
        <ele>2428.4</ele>
        <time>2024-08-12T09:05:24Z</time>
      </trkpt>
      <trkpt lat="44.76458" lon="6.34868">
        <ele>2427.8</ele>
        <time>2024-08-12T09:05:25Z</time>
      </trkpt>
      <trkpt lat="44.76458" lon="6.34868">
        <ele>2427.4</ele>
        <time>2024-08-12T09:05:26Z</time>
      </trkpt>
      <trkpt lat="44.7646" lon="6.34866">
        <ele>2427.4</ele>
        <time>2024-08-12T09:05:27Z</time>
      </trkpt>
      <trkpt lat="44.7646" lon="6.34866">
        <ele>2427.2</ele>
        <time>2024-08-12T09:05:28Z</time>
      </trkpt>
      <trkpt lat="44.76461" lon="6.34864">
        <ele>2427.2</ele>
        <time>2024-08-12T09:05:29Z</time>
      </trkpt>
      <trkpt lat="44.76461" lon="6.34864">
        <ele>2427</ele>
        <time>2024-08-12T09:05:30Z</time>
      </trkpt>
      <trkpt lat="44.76463" lon="6.34861">
        <ele>2426.8</ele>
        <time>2024-08-12T09:05:31Z</time>
      </trkpt>
      <trkpt lat="44.76463" lon="6.34861">
        <ele>2426.8</ele>
        <time>2024-08-12T09:05:32Z</time>
      </trkpt>
      <trkpt lat="44.76465" lon="6.34859">
        <ele>2426.6</ele>
        <time>2024-08-12T09:05:33Z</time>
      </trkpt>
      <trkpt lat="44.76465" lon="6.34859">
        <ele>2426.4</ele>
        <time>2024-08-12T09:05:34Z</time>
      </trkpt>
      <trkpt lat="44.76466" lon="6.34857">
        <ele>2426.2</ele>
        <time>2024-08-12T09:05:35Z</time>
      </trkpt>
      <trkpt lat="44.76466" lon="6.34857">
        <ele>2426</ele>
        <time>2024-08-12T09:05:36Z</time>
      </trkpt>
      <trkpt lat="44.76468" lon="6.34855">
        <ele>2425.8</ele>
        <time>2024-08-12T09:05:37Z</time>
      </trkpt>
      <trkpt lat="44.76468" lon="6.34855">
        <ele>2425.6</ele>
        <time>2024-08-12T09:05:38Z</time>
      </trkpt>
      <trkpt lat="44.76469" lon="6.34852">
        <ele>2425.4</ele>
        <time>2024-08-12T09:05:39Z</time>
      </trkpt>
      <trkpt lat="44.76469" lon="6.34852">
        <ele>2425.2</ele>
        <time>2024-08-12T09:05:40Z</time>
      </trkpt>
      <trkpt lat="44.76471" lon="6.3485">
        <ele>2424.8</ele>
        <time>2024-08-12T09:05:41Z</time>
      </trkpt>
      <trkpt lat="44.76471" lon="6.3485">
        <ele>2424.8</ele>
        <time>2024-08-12T09:05:42Z</time>
      </trkpt>
      <trkpt lat="44.76472" lon="6.34848">
        <ele>2424.6</ele>
        <time>2024-08-12T09:05:43Z</time>
      </trkpt>
      <trkpt lat="44.76472" lon="6.34848">
        <ele>2424.2</ele>
        <time>2024-08-12T09:05:44Z</time>
      </trkpt>
      <trkpt lat="44.76474" lon="6.34846">
        <ele>2424.2</ele>
        <time>2024-08-12T09:05:45Z</time>
      </trkpt>
      <trkpt lat="44.76474" lon="6.34846">
        <ele>2424.2</ele>
        <time>2024-08-12T09:05:46Z</time>
      </trkpt>
      <trkpt lat="44.76476" lon="6.34844">
        <ele>2424</ele>
        <time>2024-08-12T09:05:47Z</time>
      </trkpt>
      <trkpt lat="44.76476" lon="6.34844">
        <ele>2424</ele>
        <time>2024-08-12T09:05:48Z</time>
      </trkpt>
      <trkpt lat="44.76477" lon="6.34843">
        <ele>2424</ele>
        <time>2024-08-12T09:05:49Z</time>
      </trkpt>
      <trkpt lat="44.76477" lon="6.34843">
        <ele>2423.8</ele>
        <time>2024-08-12T09:05:50Z</time>
      </trkpt>
      <trkpt lat="44.76479" lon="6.3484">
        <ele>2423.4</ele>
        <time>2024-08-12T09:05:51Z</time>
      </trkpt>
      <trkpt lat="44.76479" lon="6.3484">
        <ele>2422.8</ele>
        <time>2024-08-12T09:05:52Z</time>
      </trkpt>
      <trkpt lat="44.7648" lon="6.34838">
        <ele>2422.8</ele>
        <time>2024-08-12T09:05:53Z</time>
      </trkpt>
      <trkpt lat="44.7648" lon="6.34838">
        <ele>2422.8</ele>
        <time>2024-08-12T09:05:54Z</time>
      </trkpt>
      <trkpt lat="44.76482" lon="6.34837">
        <ele>2422.6</ele>
        <time>2024-08-12T09:05:55Z</time>
      </trkpt>
      <trkpt lat="44.76482" lon="6.34837">
        <ele>2422.4</ele>
        <time>2024-08-12T09:05:56Z</time>
      </trkpt>
      <trkpt lat="44.76484" lon="6.34835">
        <ele>2422</ele>
        <time>2024-08-12T09:05:57Z</time>
      </trkpt>
      <trkpt lat="44.76484" lon="6.34835">
        <ele>2422</ele>
        <time>2024-08-12T09:05:58Z</time>
      </trkpt>
      <trkpt lat="44.76485" lon="6.34833">
        <ele>2421.8</ele>
        <time>2024-08-12T09:05:59Z</time>
      </trkpt>
      <trkpt lat="44.76485" lon="6.34833">
        <ele>2421.6</ele>
        <time>2024-08-12T09:06:00Z</time>
      </trkpt>
      <trkpt lat="44.76487" lon="6.34832">
        <ele>2421.4</ele>
        <time>2024-08-12T09:06:01Z</time>
      </trkpt>
      <trkpt lat="44.76487" lon="6.34832">
        <ele>2420.8</ele>
        <time>2024-08-12T09:06:02Z</time>
      </trkpt>
      <trkpt lat="44.76487" lon="6.34832">
        <ele>2420.6</ele>
        <time>2024-08-12T09:06:03Z</time>
      </trkpt>
      <trkpt lat="44.76487" lon="6.34832">
        <ele>2420.6</ele>
        <time>2024-08-12T09:06:04Z</time>
      </trkpt>
      <trkpt lat="44.76487" lon="6.34832">
        <ele>2420.4</ele>
        <time>2024-08-12T09:06:05Z</time>
      </trkpt>
      <trkpt lat="44.76487" lon="6.34832">
        <ele>2420.2</ele>
        <time>2024-08-12T09:06:06Z</time>
      </trkpt>
      <trkpt lat="44.76485" lon="6.3483">
        <ele>2420</ele>
        <time>2024-08-12T09:06:07Z</time>
      </trkpt>
      <trkpt lat="44.76485" lon="6.3483">
        <ele>2420</ele>
        <time>2024-08-12T09:06:08Z</time>
      </trkpt>
      <trkpt lat="44.76483" lon="6.3483">
        <ele>2419.6</ele>
        <time>2024-08-12T09:06:09Z</time>
      </trkpt>
      <trkpt lat="44.76483" lon="6.3483">
        <ele>2419.2</ele>
        <time>2024-08-12T09:06:10Z</time>
      </trkpt>
      <trkpt lat="44.76481" lon="6.34831">
        <ele>2418.8</ele>
        <time>2024-08-12T09:06:11Z</time>
      </trkpt>
      <trkpt lat="44.76481" lon="6.34831">
        <ele>2418.4</ele>
        <time>2024-08-12T09:06:12Z</time>
      </trkpt>
      <trkpt lat="44.76481" lon="6.34831">
        <ele>2418.2</ele>
        <time>2024-08-12T09:06:13Z</time>
      </trkpt>
      <trkpt lat="44.76481" lon="6.34831">
        <ele>2418</ele>
        <time>2024-08-12T09:06:14Z</time>
      </trkpt>
      <trkpt lat="44.76479" lon="6.34831">
        <ele>2418</ele>
        <time>2024-08-12T09:06:15Z</time>
      </trkpt>
      <trkpt lat="44.76479" lon="6.34831">
        <ele>2417.8</ele>
        <time>2024-08-12T09:06:16Z</time>
      </trkpt>
      <trkpt lat="44.76476" lon="6.34831">
        <ele>2417.4</ele>
        <time>2024-08-12T09:06:17Z</time>
      </trkpt>
      <trkpt lat="44.76476" lon="6.34831">
        <ele>2417.2</ele>
        <time>2024-08-12T09:06:18Z</time>
      </trkpt>
      <trkpt lat="44.76473" lon="6.34832">
        <ele>2417</ele>
        <time>2024-08-12T09:06:19Z</time>
      </trkpt>
      <trkpt lat="44.76473" lon="6.34832">
        <ele>2416.6</ele>
        <time>2024-08-12T09:06:20Z</time>
      </trkpt>
      <trkpt lat="44.76471" lon="6.34832">
        <ele>2416.4</ele>
        <time>2024-08-12T09:06:21Z</time>
      </trkpt>
      <trkpt lat="44.76471" lon="6.34832">
        <ele>2416.4</ele>
        <time>2024-08-12T09:06:22Z</time>
      </trkpt>
      <trkpt lat="44.76469" lon="6.34833">
        <ele>2416.2</ele>
        <time>2024-08-12T09:06:23Z</time>
      </trkpt>
      <trkpt lat="44.76469" lon="6.34833">
        <ele>2416.2</ele>
        <time>2024-08-12T09:06:24Z</time>
      </trkpt>
      <trkpt lat="44.76467" lon="6.34833">
        <ele>2415.8</ele>
        <time>2024-08-12T09:06:25Z</time>
      </trkpt>
      <trkpt lat="44.76467" lon="6.34833">
        <ele>2415.8</ele>
        <time>2024-08-12T09:06:26Z</time>
      </trkpt>
      <trkpt lat="44.76465" lon="6.34833">
        <ele>2415.6</ele>
        <time>2024-08-12T09:06:27Z</time>
      </trkpt>
      <trkpt lat="44.76465" lon="6.34833">
        <ele>2415.4</ele>
        <time>2024-08-12T09:06:28Z</time>
      </trkpt>
      <trkpt lat="44.76465" lon="6.34833">
        <ele>2415.4</ele>
        <time>2024-08-12T09:06:29Z</time>
      </trkpt>
      <trkpt lat="44.76463" lon="6.34833">
        <ele>2415.2</ele>
        <time>2024-08-12T09:06:30Z</time>
      </trkpt>
      <trkpt lat="44.76463" lon="6.34833">
        <ele>2414.8</ele>
        <time>2024-08-12T09:06:31Z</time>
      </trkpt>
      <trkpt lat="44.76461" lon="6.34833">
        <ele>2414.6</ele>
        <time>2024-08-12T09:06:32Z</time>
      </trkpt>
      <trkpt lat="44.76461" lon="6.34833">
        <ele>2414</ele>
        <time>2024-08-12T09:06:33Z</time>
      </trkpt>
      <trkpt lat="44.76461" lon="6.34833">
        <ele>2413.8</ele>
        <time>2024-08-12T09:06:34Z</time>
      </trkpt>
      <trkpt lat="44.76458" lon="6.34834">
        <ele>2413.6</ele>
        <time>2024-08-12T09:06:35Z</time>
      </trkpt>
      <trkpt lat="44.76458" lon="6.34834">
        <ele>2413.6</ele>
        <time>2024-08-12T09:06:36Z</time>
      </trkpt>
      <trkpt lat="44.76456" lon="6.34835">
        <ele>2413.4</ele>
        <time>2024-08-12T09:06:37Z</time>
      </trkpt>
      <trkpt lat="44.76456" lon="6.34835">
        <ele>2413</ele>
        <time>2024-08-12T09:06:38Z</time>
      </trkpt>
      <trkpt lat="44.76454" lon="6.34835">
        <ele>2412.8</ele>
        <time>2024-08-12T09:06:39Z</time>
      </trkpt>
      <trkpt lat="44.76454" lon="6.34835">
        <ele>2412.6</ele>
        <time>2024-08-12T09:06:40Z</time>
      </trkpt>
      <trkpt lat="44.76452" lon="6.34835">
        <ele>2412.2</ele>
        <time>2024-08-12T09:06:41Z</time>
      </trkpt>
      <trkpt lat="44.76452" lon="6.34835">
        <ele>2411.8</ele>
        <time>2024-08-12T09:06:42Z</time>
      </trkpt>
      <trkpt lat="44.76452" lon="6.34835">
        <ele>2411.8</ele>
        <time>2024-08-12T09:06:43Z</time>
      </trkpt>
      <trkpt lat="44.7645" lon="6.34836">
        <ele>2411.6</ele>
        <time>2024-08-12T09:06:44Z</time>
      </trkpt>
      <trkpt lat="44.7645" lon="6.34836">
        <ele>2411.2</ele>
        <time>2024-08-12T09:06:45Z</time>
      </trkpt>
      <trkpt lat="44.76448" lon="6.34836">
        <ele>2411</ele>
        <time>2024-08-12T09:06:46Z</time>
      </trkpt>
      <trkpt lat="44.76448" lon="6.34836">
        <ele>2410.6</ele>
        <time>2024-08-12T09:06:47Z</time>
      </trkpt>
      <trkpt lat="44.76446" lon="6.34835">
        <ele>2410.4</ele>
        <time>2024-08-12T09:06:48Z</time>
      </trkpt>
      <trkpt lat="44.76446" lon="6.34835">
        <ele>2410</ele>
        <time>2024-08-12T09:06:49Z</time>
      </trkpt>
      <trkpt lat="44.76444" lon="6.34837">
        <ele>2409.8</ele>
        <time>2024-08-12T09:06:50Z</time>
      </trkpt>
      <trkpt lat="44.76444" lon="6.34837">
        <ele>2409.6</ele>
        <time>2024-08-12T09:06:51Z</time>
      </trkpt>
      <trkpt lat="44.76442" lon="6.34837">
        <ele>2409.4</ele>
        <time>2024-08-12T09:06:52Z</time>
      </trkpt>
      <trkpt lat="44.76442" lon="6.34837">
        <ele>2409</ele>
        <time>2024-08-12T09:06:53Z</time>
      </trkpt>
      <trkpt lat="44.7644" lon="6.34838">
        <ele>2409</ele>
        <time>2024-08-12T09:06:54Z</time>
      </trkpt>
      <trkpt lat="44.7644" lon="6.34838">
        <ele>2408.2</ele>
        <time>2024-08-12T09:06:55Z</time>
      </trkpt>
      <trkpt lat="44.7644" lon="6.34838">
        <ele>2407.8</ele>
        <time>2024-08-12T09:06:56Z</time>
      </trkpt>
      <trkpt lat="44.7644" lon="6.34835">
        <ele>2407.6</ele>
        <time>2024-08-12T09:06:57Z</time>
      </trkpt>
      <trkpt lat="44.7644" lon="6.34835">
        <ele>2407.4</ele>
        <time>2024-08-12T09:06:58Z</time>
      </trkpt>
      <trkpt lat="44.76441" lon="6.34832">
        <ele>2407.2</ele>
        <time>2024-08-12T09:06:59Z</time>
      </trkpt>
      <trkpt lat="44.76441" lon="6.34832">
        <ele>2407</ele>
        <time>2024-08-12T09:07:00Z</time>
      </trkpt>
      <trkpt lat="44.76443" lon="6.34829">
        <ele>2406.8</ele>
        <time>2024-08-12T09:07:01Z</time>
      </trkpt>
      <trkpt lat="44.76443" lon="6.34829">
        <ele>2406.6</ele>
        <time>2024-08-12T09:07:02Z</time>
      </trkpt>
      <trkpt lat="44.76445" lon="6.34827">
        <ele>2406.6</ele>
        <time>2024-08-12T09:07:03Z</time>
      </trkpt>
      <trkpt lat="44.76445" lon="6.34827">
        <ele>2406.4</ele>
        <time>2024-08-12T09:07:04Z</time>
      </trkpt>
      <trkpt lat="44.76446" lon="6.34824">
        <ele>2406</ele>
        <time>2024-08-12T09:07:05Z</time>
      </trkpt>
      <trkpt lat="44.76446" lon="6.34824">
        <ele>2406</ele>
        <time>2024-08-12T09:07:06Z</time>
      </trkpt>
      <trkpt lat="44.76447" lon="6.34822">
        <ele>2405.8</ele>
        <time>2024-08-12T09:07:07Z</time>
      </trkpt>
      <trkpt lat="44.76447" lon="6.34822">
        <ele>2405.2</ele>
        <time>2024-08-12T09:07:08Z</time>
      </trkpt>
      <trkpt lat="44.76449" lon="6.3482">
        <ele>2405</ele>
        <time>2024-08-12T09:07:09Z</time>
      </trkpt>
      <trkpt lat="44.76449" lon="6.3482">
        <ele>2404.8</ele>
        <time>2024-08-12T09:07:10Z</time>
      </trkpt>
      <trkpt lat="44.7645" lon="6.34818">
        <ele>2404.6</ele>
        <time>2024-08-12T09:07:11Z</time>
      </trkpt>
      <trkpt lat="44.7645" lon="6.34818">
        <ele>2404.4</ele>
        <time>2024-08-12T09:07:12Z</time>
      </trkpt>
      <trkpt lat="44.76452" lon="6.34816">
        <ele>2404.2</ele>
        <time>2024-08-12T09:07:13Z</time>
      </trkpt>
      <trkpt lat="44.76452" lon="6.34816">
        <ele>2403.8</ele>
        <time>2024-08-12T09:07:14Z</time>
      </trkpt>
      <trkpt lat="44.76453" lon="6.34813">
        <ele>2403.4</ele>
        <time>2024-08-12T09:07:15Z</time>
      </trkpt>
      <trkpt lat="44.76453" lon="6.34813">
        <ele>2403.2</ele>
        <time>2024-08-12T09:07:16Z</time>
      </trkpt>
      <trkpt lat="44.76454" lon="6.34811">
        <ele>2402.8</ele>
        <time>2024-08-12T09:07:17Z</time>
      </trkpt>
      <trkpt lat="44.76454" lon="6.34811">
        <ele>2402.8</ele>
        <time>2024-08-12T09:07:18Z</time>
      </trkpt>
      <trkpt lat="44.76456" lon="6.34808">
        <ele>2402.6</ele>
        <time>2024-08-12T09:07:19Z</time>
      </trkpt>
      <trkpt lat="44.76456" lon="6.34808">
        <ele>2402.2</ele>
        <time>2024-08-12T09:07:20Z</time>
      </trkpt>
      <trkpt lat="44.76457" lon="6.34805">
        <ele>2402</ele>
        <time>2024-08-12T09:07:21Z</time>
      </trkpt>
      <trkpt lat="44.76457" lon="6.34805">
        <ele>2401.6</ele>
        <time>2024-08-12T09:07:22Z</time>
      </trkpt>
      <trkpt lat="44.76458" lon="6.34803">
        <ele>2401.4</ele>
        <time>2024-08-12T09:07:23Z</time>
      </trkpt>
      <trkpt lat="44.76458" lon="6.34803">
        <ele>2401</ele>
        <time>2024-08-12T09:07:24Z</time>
      </trkpt>
      <trkpt lat="44.7646" lon="6.348">
        <ele>2400.8</ele>
        <time>2024-08-12T09:07:25Z</time>
      </trkpt>
      <trkpt lat="44.7646" lon="6.348">
        <ele>2400.8</ele>
        <time>2024-08-12T09:07:26Z</time>
      </trkpt>
      <trkpt lat="44.76461" lon="6.34798">
        <ele>2400.6</ele>
        <time>2024-08-12T09:07:27Z</time>
      </trkpt>
      <trkpt lat="44.76461" lon="6.34798">
        <ele>2400.6</ele>
        <time>2024-08-12T09:07:28Z</time>
      </trkpt>
      <trkpt lat="44.76461" lon="6.34795">
        <ele>2400.6</ele>
        <time>2024-08-12T09:07:29Z</time>
      </trkpt>
      <trkpt lat="44.76461" lon="6.34795">
        <ele>2400.2</ele>
        <time>2024-08-12T09:07:30Z</time>
      </trkpt>
      <trkpt lat="44.76462" lon="6.34792">
        <ele>2400</ele>
        <time>2024-08-12T09:07:31Z</time>
      </trkpt>
      <trkpt lat="44.76462" lon="6.34792">
        <ele>2399.4</ele>
        <time>2024-08-12T09:07:32Z</time>
      </trkpt>
      <trkpt lat="44.76462" lon="6.34789">
        <ele>2399.2</ele>
        <time>2024-08-12T09:07:33Z</time>
      </trkpt>
      <trkpt lat="44.76462" lon="6.34789">
        <ele>2399</ele>
        <time>2024-08-12T09:07:34Z</time>
      </trkpt>
      <trkpt lat="44.76462" lon="6.34789">
        <ele>2398.8</ele>
        <time>2024-08-12T09:07:35Z</time>
      </trkpt>
      <trkpt lat="44.76462" lon="6.34786">
        <ele>2398.6</ele>
        <time>2024-08-12T09:07:36Z</time>
      </trkpt>
      <trkpt lat="44.76462" lon="6.34786">
        <ele>2398.6</ele>
        <time>2024-08-12T09:07:37Z</time>
      </trkpt>
      <trkpt lat="44.76462" lon="6.34786">
        <ele>2398.4</ele>
        <time>2024-08-12T09:07:38Z</time>
      </trkpt>
      <trkpt lat="44.76462" lon="6.34786">
        <ele>2398.2</ele>
        <time>2024-08-12T09:07:39Z</time>
      </trkpt>
      <trkpt lat="44.7646" lon="6.34788">
        <ele>2397.8</ele>
        <time>2024-08-12T09:07:40Z</time>
      </trkpt>
      <trkpt lat="44.7646" lon="6.34788">
        <ele>2397.4</ele>
        <time>2024-08-12T09:07:41Z</time>
      </trkpt>
      <trkpt lat="44.76459" lon="6.3479">
        <ele>2397.4</ele>
        <time>2024-08-12T09:07:42Z</time>
      </trkpt>
      <trkpt lat="44.76459" lon="6.3479">
        <ele>2397.6</ele>
        <time>2024-08-12T09:07:43Z</time>
      </trkpt>
      <trkpt lat="44.76457" lon="6.34792">
        <ele>2397.6</ele>
        <time>2024-08-12T09:07:44Z</time>
      </trkpt>
      <trkpt lat="44.76457" lon="6.34792">
        <ele>2397.4</ele>
        <time>2024-08-12T09:07:45Z</time>
      </trkpt>
      <trkpt lat="44.76455" lon="6.34794">
        <ele>2397.4</ele>
        <time>2024-08-12T09:07:46Z</time>
      </trkpt>
      <trkpt lat="44.76455" lon="6.34794">
        <ele>2397</ele>
        <time>2024-08-12T09:07:47Z</time>
      </trkpt>
      <trkpt lat="44.76453" lon="6.34795">
        <ele>2396.6</ele>
        <time>2024-08-12T09:07:48Z</time>
      </trkpt>
      <trkpt lat="44.76453" lon="6.34795">
        <ele>2396.6</ele>
        <time>2024-08-12T09:07:49Z</time>
      </trkpt>
      <trkpt lat="44.76451" lon="6.34797">
        <ele>2396.2</ele>
        <time>2024-08-12T09:07:50Z</time>
      </trkpt>
      <trkpt lat="44.76451" lon="6.34797">
        <ele>2396</ele>
        <time>2024-08-12T09:07:51Z</time>
      </trkpt>
      <trkpt lat="44.76449" lon="6.34799">
        <ele>2396</ele>
        <time>2024-08-12T09:07:52Z</time>
      </trkpt>
      <trkpt lat="44.76449" lon="6.34799">
        <ele>2396</ele>
        <time>2024-08-12T09:07:53Z</time>
      </trkpt>
      <trkpt lat="44.76446" lon="6.348">
        <ele>2396</ele>
        <time>2024-08-12T09:07:54Z</time>
      </trkpt>
      <trkpt lat="44.76446" lon="6.348">
        <ele>2395.8</ele>
        <time>2024-08-12T09:07:55Z</time>
      </trkpt>
      <trkpt lat="44.76444" lon="6.34802">
        <ele>2395.6</ele>
        <time>2024-08-12T09:07:56Z</time>
      </trkpt>
      <trkpt lat="44.76444" lon="6.34802">
        <ele>2395.4</ele>
        <time>2024-08-12T09:07:57Z</time>
      </trkpt>
      <trkpt lat="44.76442" lon="6.34803">
        <ele>2395.4</ele>
        <time>2024-08-12T09:07:58Z</time>
      </trkpt>
      <trkpt lat="44.76442" lon="6.34803">
        <ele>2395.2</ele>
        <time>2024-08-12T09:07:59Z</time>
      </trkpt>
      <trkpt lat="44.7644" lon="6.34803">
        <ele>2395.2</ele>
        <time>2024-08-12T09:08:00Z</time>
      </trkpt>
      <trkpt lat="44.7644" lon="6.34803">
        <ele>2395.2</ele>
        <time>2024-08-12T09:08:01Z</time>
      </trkpt>
      <trkpt lat="44.76437" lon="6.34804">
        <ele>2394.8</ele>
        <time>2024-08-12T09:08:02Z</time>
      </trkpt>
      <trkpt lat="44.76437" lon="6.34804">
        <ele>2394.8</ele>
        <time>2024-08-12T09:08:03Z</time>
      </trkpt>
      <trkpt lat="44.76435" lon="6.34805">
        <ele>2394.6</ele>
        <time>2024-08-12T09:08:04Z</time>
      </trkpt>
      <trkpt lat="44.76435" lon="6.34805">
        <ele>2394.2</ele>
        <time>2024-08-12T09:08:05Z</time>
      </trkpt>
      <trkpt lat="44.76435" lon="6.34805">
        <ele>2394</ele>
        <time>2024-08-12T09:08:06Z</time>
      </trkpt>
      <trkpt lat="44.76432" lon="6.34806">
        <ele>2394</ele>
        <time>2024-08-12T09:08:07Z</time>
      </trkpt>
      <trkpt lat="44.76432" lon="6.34806">
        <ele>2393.8</ele>
        <time>2024-08-12T09:08:08Z</time>
      </trkpt>
      <trkpt lat="44.76432" lon="6.34806">
        <ele>2393.4</ele>
        <time>2024-08-12T09:08:09Z</time>
      </trkpt>
      <trkpt lat="44.7643" lon="6.34806">
        <ele>2393.4</ele>
        <time>2024-08-12T09:08:10Z</time>
      </trkpt>
      <trkpt lat="44.7643" lon="6.34806">
        <ele>2393.4</ele>
        <time>2024-08-12T09:08:11Z</time>
      </trkpt>
      <trkpt lat="44.7643" lon="6.34806">
        <ele>2393</ele>
        <time>2024-08-12T09:08:12Z</time>
      </trkpt>
      <trkpt lat="44.76429" lon="6.34803">
        <ele>2393</ele>
        <time>2024-08-12T09:08:13Z</time>
      </trkpt>
      <trkpt lat="44.76429" lon="6.34803">
        <ele>2392.6</ele>
        <time>2024-08-12T09:08:14Z</time>
      </trkpt>
      <trkpt lat="44.7643" lon="6.348">
        <ele>2392.2</ele>
        <time>2024-08-12T09:08:15Z</time>
      </trkpt>
      <trkpt lat="44.7643" lon="6.348">
        <ele>2392.2</ele>
        <time>2024-08-12T09:08:16Z</time>
      </trkpt>
      <trkpt lat="44.76432" lon="6.34798">
        <ele>2392</ele>
        <time>2024-08-12T09:08:17Z</time>
      </trkpt>
      <trkpt lat="44.76432" lon="6.34798">
        <ele>2391.8</ele>
        <time>2024-08-12T09:08:18Z</time>
      </trkpt>
      <trkpt lat="44.76434" lon="6.34796">
        <ele>2391.6</ele>
        <time>2024-08-12T09:08:19Z</time>
      </trkpt>
      <trkpt lat="44.76434" lon="6.34796">
        <ele>2391.6</ele>
        <time>2024-08-12T09:08:20Z</time>
      </trkpt>
      <trkpt lat="44.76436" lon="6.34794">
        <ele>2391.4</ele>
        <time>2024-08-12T09:08:21Z</time>
      </trkpt>
      <trkpt lat="44.76436" lon="6.34794">
        <ele>2391.2</ele>
        <time>2024-08-12T09:08:22Z</time>
      </trkpt>
      <trkpt lat="44.76438" lon="6.34792">
        <ele>2390.8</ele>
        <time>2024-08-12T09:08:23Z</time>
      </trkpt>
      <trkpt lat="44.76438" lon="6.34792">
        <ele>2390.6</ele>
        <time>2024-08-12T09:08:24Z</time>
      </trkpt>
      <trkpt lat="44.7644" lon="6.34789">
        <ele>2390.4</ele>
        <time>2024-08-12T09:08:25Z</time>
      </trkpt>
      <trkpt lat="44.7644" lon="6.34789">
        <ele>2390.2</ele>
        <time>2024-08-12T09:08:26Z</time>
      </trkpt>
      <trkpt lat="44.76441" lon="6.34787">
        <ele>2390.2</ele>
        <time>2024-08-12T09:08:27Z</time>
      </trkpt>
      <trkpt lat="44.76441" lon="6.34787">
        <ele>2390</ele>
        <time>2024-08-12T09:08:28Z</time>
      </trkpt>
      <trkpt lat="44.76441" lon="6.34787">
        <ele>2389.8</ele>
        <time>2024-08-12T09:08:29Z</time>
      </trkpt>
      <trkpt lat="44.76442" lon="6.34783">
        <ele>2389.8</ele>
        <time>2024-08-12T09:08:30Z</time>
      </trkpt>
      <trkpt lat="44.76442" lon="6.34783">
        <ele>2389.8</ele>
        <time>2024-08-12T09:08:31Z</time>
      </trkpt>
      <trkpt lat="44.76442" lon="6.34783">
        <ele>2389.6</ele>
        <time>2024-08-12T09:08:32Z</time>
      </trkpt>
      <trkpt lat="44.76442" lon="6.34779">
        <ele>2389.4</ele>
        <time>2024-08-12T09:08:33Z</time>
      </trkpt>
      <trkpt lat="44.76442" lon="6.34779">
        <ele>2389</ele>
        <time>2024-08-12T09:08:34Z</time>
      </trkpt>
      <trkpt lat="44.76442" lon="6.34779">
        <ele>2388.8</ele>
        <time>2024-08-12T09:08:35Z</time>
      </trkpt>
      <trkpt lat="44.76442" lon="6.34779">
        <ele>2388.6</ele>
        <time>2024-08-12T09:08:36Z</time>
      </trkpt>
      <trkpt lat="44.7644" lon="6.34777">
        <ele>2388.2</ele>
        <time>2024-08-12T09:08:37Z</time>
      </trkpt>
      <trkpt lat="44.7644" lon="6.34777">
        <ele>2388.2</ele>
        <time>2024-08-12T09:08:38Z</time>
      </trkpt>
      <trkpt lat="44.7644" lon="6.34777">
        <ele>2388.2</ele>
        <time>2024-08-12T09:08:39Z</time>
      </trkpt>
      <trkpt lat="44.76438" lon="6.34779">
        <ele>2387.4</ele>
        <time>2024-08-12T09:08:40Z</time>
      </trkpt>
      <trkpt lat="44.76438" lon="6.34779">
        <ele>2386.8</ele>
        <time>2024-08-12T09:08:41Z</time>
      </trkpt>
      <trkpt lat="44.76437" lon="6.34781">
        <ele>2386.8</ele>
        <time>2024-08-12T09:08:42Z</time>
      </trkpt>
      <trkpt lat="44.76437" lon="6.34781">
        <ele>2386.8</ele>
        <time>2024-08-12T09:08:43Z</time>
      </trkpt>
      <trkpt lat="44.76435" lon="6.34783">
        <ele>2386.8</ele>
        <time>2024-08-12T09:08:44Z</time>
      </trkpt>
      <trkpt lat="44.76435" lon="6.34783">
        <ele>2386.6</ele>
        <time>2024-08-12T09:08:45Z</time>
      </trkpt>
      <trkpt lat="44.76432" lon="6.34784">
        <ele>2386.2</ele>
        <time>2024-08-12T09:08:46Z</time>
      </trkpt>
      <trkpt lat="44.76432" lon="6.34784">
        <ele>2386.2</ele>
        <time>2024-08-12T09:08:47Z</time>
      </trkpt>
      <trkpt lat="44.7643" lon="6.34785">
        <ele>2386</ele>
        <time>2024-08-12T09:08:48Z</time>
      </trkpt>
      <trkpt lat="44.7643" lon="6.34785">
        <ele>2385.6</ele>
        <time>2024-08-12T09:08:49Z</time>
      </trkpt>
      <trkpt lat="44.76428" lon="6.34786">
        <ele>2385.2</ele>
        <time>2024-08-12T09:08:50Z</time>
      </trkpt>
      <trkpt lat="44.76428" lon="6.34786">
        <ele>2385</ele>
        <time>2024-08-12T09:08:51Z</time>
      </trkpt>
      <trkpt lat="44.76428" lon="6.34786">
        <ele>2385</ele>
        <time>2024-08-12T09:08:52Z</time>
      </trkpt>
      <trkpt lat="44.76426" lon="6.34787">
        <ele>2384.8</ele>
        <time>2024-08-12T09:08:53Z</time>
      </trkpt>
      <trkpt lat="44.76426" lon="6.34787">
        <ele>2384.6</ele>
        <time>2024-08-12T09:08:54Z</time>
      </trkpt>
      <trkpt lat="44.76424" lon="6.34787">
        <ele>2384.4</ele>
        <time>2024-08-12T09:08:55Z</time>
      </trkpt>
      <trkpt lat="44.76424" lon="6.34787">
        <ele>2384.4</ele>
        <time>2024-08-12T09:08:56Z</time>
      </trkpt>
      <trkpt lat="44.76424" lon="6.34787">
        <ele>2384.2</ele>
        <time>2024-08-12T09:08:57Z</time>
      </trkpt>
      <trkpt lat="44.76421" lon="6.34788">
        <ele>2384.2</ele>
        <time>2024-08-12T09:08:58Z</time>
      </trkpt>
      <trkpt lat="44.76421" lon="6.34788">
        <ele>2384</ele>
        <time>2024-08-12T09:08:59Z</time>
      </trkpt>
      <trkpt lat="44.76419" lon="6.34788">
        <ele>2384</ele>
        <time>2024-08-12T09:09:00Z</time>
      </trkpt>
      <trkpt lat="44.76419" lon="6.34788">
        <ele>2383.8</ele>
        <time>2024-08-12T09:09:01Z</time>
      </trkpt>
      <trkpt lat="44.7642" lon="6.34786">
        <ele>2383.4</ele>
        <time>2024-08-12T09:09:02Z</time>
      </trkpt>
      <trkpt lat="44.7642" lon="6.34786">
        <ele>2383.2</ele>
        <time>2024-08-12T09:09:03Z</time>
      </trkpt>
      <trkpt lat="44.76421" lon="6.34783">
        <ele>2382.8</ele>
        <time>2024-08-12T09:09:04Z</time>
      </trkpt>
      <trkpt lat="44.76421" lon="6.34783">
        <ele>2382.6</ele>
        <time>2024-08-12T09:09:05Z</time>
      </trkpt>
      <trkpt lat="44.76422" lon="6.3478">
        <ele>2382.4</ele>
        <time>2024-08-12T09:09:06Z</time>
      </trkpt>
      <trkpt lat="44.76422" lon="6.3478">
        <ele>2382.2</ele>
        <time>2024-08-12T09:09:07Z</time>
      </trkpt>
      <trkpt lat="44.76424" lon="6.34778">
        <ele>2382.2</ele>
        <time>2024-08-12T09:09:08Z</time>
      </trkpt>
      <trkpt lat="44.76424" lon="6.34778">
        <ele>2382.2</ele>
        <time>2024-08-12T09:09:09Z</time>
      </trkpt>
      <trkpt lat="44.76426" lon="6.34775">
        <ele>2381.8</ele>
        <time>2024-08-12T09:09:10Z</time>
      </trkpt>
      <trkpt lat="44.76426" lon="6.34775">
        <ele>2381.8</ele>
        <time>2024-08-12T09:09:11Z</time>
      </trkpt>
      <trkpt lat="44.76427" lon="6.34772">
        <ele>2381.8</ele>
        <time>2024-08-12T09:09:12Z</time>
      </trkpt>
      <trkpt lat="44.76427" lon="6.34772">
        <ele>2381.6</ele>
        <time>2024-08-12T09:09:13Z</time>
      </trkpt>
      <trkpt lat="44.76428" lon="6.34769">
        <ele>2381.4</ele>
        <time>2024-08-12T09:09:14Z</time>
      </trkpt>
      <trkpt lat="44.76428" lon="6.34769">
        <ele>2381.2</ele>
        <time>2024-08-12T09:09:15Z</time>
      </trkpt>
      <trkpt lat="44.76428" lon="6.34767">
        <ele>2380.8</ele>
        <time>2024-08-12T09:09:16Z</time>
      </trkpt>
      <trkpt lat="44.76428" lon="6.34767">
        <ele>2380.4</ele>
        <time>2024-08-12T09:09:17Z</time>
      </trkpt>
      <trkpt lat="44.76428" lon="6.34767">
        <ele>2380.4</ele>
        <time>2024-08-12T09:09:18Z</time>
      </trkpt>
      <trkpt lat="44.76428" lon="6.34767">
        <ele>2380.2</ele>
        <time>2024-08-12T09:09:19Z</time>
      </trkpt>
      <trkpt lat="44.76426" lon="6.34767">
        <ele>2380.2</ele>
        <time>2024-08-12T09:09:20Z</time>
      </trkpt>
      <trkpt lat="44.76426" lon="6.34767">
        <ele>2379.8</ele>
        <time>2024-08-12T09:09:21Z</time>
      </trkpt>
      <trkpt lat="44.76425" lon="6.3477">
        <ele>2379.8</ele>
        <time>2024-08-12T09:09:22Z</time>
      </trkpt>
      <trkpt lat="44.76425" lon="6.3477">
        <ele>2379.8</ele>
        <time>2024-08-12T09:09:23Z</time>
      </trkpt>
      <trkpt lat="44.76423" lon="6.34772">
        <ele>2379.6</ele>
        <time>2024-08-12T09:09:24Z</time>
      </trkpt>
      <trkpt lat="44.76423" lon="6.34772">
        <ele>2379.2</ele>
        <time>2024-08-12T09:09:25Z</time>
      </trkpt>
      <trkpt lat="44.76422" lon="6.34774">
        <ele>2379</ele>
        <time>2024-08-12T09:09:26Z</time>
      </trkpt>
      <trkpt lat="44.76422" lon="6.34774">
        <ele>2379</ele>
        <time>2024-08-12T09:09:27Z</time>
      </trkpt>
      <trkpt lat="44.7642" lon="6.34776">
        <ele>2378.4</ele>
        <time>2024-08-12T09:09:28Z</time>
      </trkpt>
      <trkpt lat="44.7642" lon="6.34776">
        <ele>2378.2</ele>
        <time>2024-08-12T09:09:29Z</time>
      </trkpt>
      <trkpt lat="44.76417" lon="6.34777">
        <ele>2378.2</ele>
        <time>2024-08-12T09:09:30Z</time>
      </trkpt>
      <trkpt lat="44.76417" lon="6.34777">
        <ele>2378</ele>
        <time>2024-08-12T09:09:31Z</time>
      </trkpt>
      <trkpt lat="44.76417" lon="6.34777">
        <ele>2377.8</ele>
        <time>2024-08-12T09:09:32Z</time>
      </trkpt>
      <trkpt lat="44.76414" lon="6.34777">
        <ele>2377.6</ele>
        <time>2024-08-12T09:09:33Z</time>
      </trkpt>
      <trkpt lat="44.76414" lon="6.34777">
        <ele>2377.6</ele>
        <time>2024-08-12T09:09:34Z</time>
      </trkpt>
      <trkpt lat="44.76414" lon="6.34777">
        <ele>2377.2</ele>
        <time>2024-08-12T09:09:35Z</time>
      </trkpt>
      <trkpt lat="44.76414" lon="6.34774">
        <ele>2377.2</ele>
        <time>2024-08-12T09:09:36Z</time>
      </trkpt>
      <trkpt lat="44.76414" lon="6.34774">
        <ele>2377</ele>
        <time>2024-08-12T09:09:37Z</time>
      </trkpt>
      <trkpt lat="44.76416" lon="6.34771">
        <ele>2376.4</ele>
        <time>2024-08-12T09:09:38Z</time>
      </trkpt>
      <trkpt lat="44.76416" lon="6.34771">
        <ele>2376.2</ele>
        <time>2024-08-12T09:09:39Z</time>
      </trkpt>
      <trkpt lat="44.76417" lon="6.34768">
        <ele>2376</ele>
        <time>2024-08-12T09:09:40Z</time>
      </trkpt>
      <trkpt lat="44.76417" lon="6.34768">
        <ele>2376</ele>
        <time>2024-08-12T09:09:41Z</time>
      </trkpt>
      <trkpt lat="44.76418" lon="6.34764">
        <ele>2375.6</ele>
        <time>2024-08-12T09:09:42Z</time>
      </trkpt>
      <trkpt lat="44.76418" lon="6.34764">
        <ele>2375.6</ele>
        <time>2024-08-12T09:09:43Z</time>
      </trkpt>
      <trkpt lat="44.76419" lon="6.34762">
        <ele>2375.4</ele>
        <time>2024-08-12T09:09:44Z</time>
      </trkpt>
      <trkpt lat="44.76419" lon="6.34762">
        <ele>2375.4</ele>
        <time>2024-08-12T09:09:45Z</time>
      </trkpt>
      <trkpt lat="44.7642" lon="6.34759">
        <ele>2375.4</ele>
        <time>2024-08-12T09:09:46Z</time>
      </trkpt>
      <trkpt lat="44.7642" lon="6.34759">
        <ele>2375.2</ele>
        <time>2024-08-12T09:09:47Z</time>
      </trkpt>
      <trkpt lat="44.7642" lon="6.34759">
        <ele>2375.2</ele>
        <time>2024-08-12T09:09:48Z</time>
      </trkpt>
      <trkpt lat="44.7642" lon="6.34759">
        <ele>2375</ele>
        <time>2024-08-12T09:09:49Z</time>
      </trkpt>
      <trkpt lat="44.7642" lon="6.34759">
        <ele>2374.6</ele>
        <time>2024-08-12T09:09:50Z</time>
      </trkpt>
      <trkpt lat="44.76417" lon="6.34759">
        <ele>2374.4</ele>
        <time>2024-08-12T09:09:51Z</time>
      </trkpt>
      <trkpt lat="44.76417" lon="6.34759">
        <ele>2374.2</ele>
        <time>2024-08-12T09:09:52Z</time>
      </trkpt>
      <trkpt lat="44.76415" lon="6.34761">
        <ele>2374.2</ele>
        <time>2024-08-12T09:09:53Z</time>
      </trkpt>
      <trkpt lat="44.76415" lon="6.34761">
        <ele>2373.8</ele>
        <time>2024-08-12T09:09:54Z</time>
      </trkpt>
      <trkpt lat="44.76413" lon="6.34764">
        <ele>2373.6</ele>
        <time>2024-08-12T09:09:55Z</time>
      </trkpt>
      <trkpt lat="44.76413" lon="6.34764">
        <ele>2373.4</ele>
        <time>2024-08-12T09:09:56Z</time>
      </trkpt>
      <trkpt lat="44.76412" lon="6.34765">
        <ele>2373.2</ele>
        <time>2024-08-12T09:09:57Z</time>
      </trkpt>
      <trkpt lat="44.76412" lon="6.34765">
        <ele>2373.2</ele>
        <time>2024-08-12T09:09:58Z</time>
      </trkpt>
      <trkpt lat="44.7641" lon="6.34767">
        <ele>2373</ele>
        <time>2024-08-12T09:09:59Z</time>
      </trkpt>
      <trkpt lat="44.7641" lon="6.34767">
        <ele>2372.4</ele>
        <time>2024-08-12T09:10:00Z</time>
      </trkpt>
      <trkpt lat="44.7641" lon="6.34767">
        <ele>2372</ele>
        <time>2024-08-12T09:10:01Z</time>
      </trkpt>
      <trkpt lat="44.76408" lon="6.34765">
        <ele>2372</ele>
        <time>2024-08-12T09:10:02Z</time>
      </trkpt>
      <trkpt lat="44.76408" lon="6.34765">
        <ele>2372</ele>
        <time>2024-08-12T09:10:03Z</time>
      </trkpt>
      <trkpt lat="44.76408" lon="6.34761">
        <ele>2371.8</ele>
        <time>2024-08-12T09:10:04Z</time>
      </trkpt>
      <trkpt lat="44.76408" lon="6.34761">
        <ele>2371.6</ele>
        <time>2024-08-12T09:10:05Z</time>
      </trkpt>
      <trkpt lat="44.7641" lon="6.34759">
        <ele>2371.2</ele>
        <time>2024-08-12T09:10:06Z</time>
      </trkpt>
      <trkpt lat="44.7641" lon="6.34759">
        <ele>2371</ele>
        <time>2024-08-12T09:10:07Z</time>
      </trkpt>
      <trkpt lat="44.76411" lon="6.34755">
        <ele>2370.8</ele>
        <time>2024-08-12T09:10:08Z</time>
      </trkpt>
      <trkpt lat="44.76411" lon="6.34755">
        <ele>2370.8</ele>
        <time>2024-08-12T09:10:09Z</time>
      </trkpt>
      <trkpt lat="44.76412" lon="6.34752">
        <ele>2370.8</ele>
        <time>2024-08-12T09:10:10Z</time>
      </trkpt>
      <trkpt lat="44.76412" lon="6.34752">
        <ele>2370.4</ele>
        <time>2024-08-12T09:10:11Z</time>
      </trkpt>
      <trkpt lat="44.76413" lon="6.3475">
        <ele>2370.4</ele>
        <time>2024-08-12T09:10:12Z</time>
      </trkpt>
      <trkpt lat="44.76413" lon="6.3475">
        <ele>2370.2</ele>
        <time>2024-08-12T09:10:13Z</time>
      </trkpt>
      <trkpt lat="44.76413" lon="6.3475">
        <ele>2370.2</ele>
        <time>2024-08-12T09:10:14Z</time>
      </trkpt>
      <trkpt lat="44.76413" lon="6.3475">
        <ele>2370.2</ele>
        <time>2024-08-12T09:10:15Z</time>
      </trkpt>
      <trkpt lat="44.76413" lon="6.3475">
        <ele>2370.2</ele>
        <time>2024-08-12T09:10:16Z</time>
      </trkpt>
      <trkpt lat="44.76413" lon="6.3475">
        <ele>2370</ele>
        <time>2024-08-12T09:10:17Z</time>
      </trkpt>
      <trkpt lat="44.76413" lon="6.3475">
        <ele>2369.6</ele>
        <time>2024-08-12T09:10:18Z</time>
      </trkpt>
      <trkpt lat="44.76411" lon="6.3475">
        <ele>2369.4</ele>
        <time>2024-08-12T09:10:19Z</time>
      </trkpt>
      <trkpt lat="44.76411" lon="6.3475">
        <ele>2369.2</ele>
        <time>2024-08-12T09:10:20Z</time>
      </trkpt>
      <trkpt lat="44.76409" lon="6.34753">
        <ele>2368.8</ele>
        <time>2024-08-12T09:10:21Z</time>
      </trkpt>
      <trkpt lat="44.76409" lon="6.34753">
        <ele>2368.8</ele>
        <time>2024-08-12T09:10:22Z</time>
      </trkpt>
      <trkpt lat="44.76407" lon="6.34755">
        <ele>2368.6</ele>
        <time>2024-08-12T09:10:23Z</time>
      </trkpt>
      <trkpt lat="44.76407" lon="6.34755">
        <ele>2368.6</ele>
        <time>2024-08-12T09:10:24Z</time>
      </trkpt>
      <trkpt lat="44.76405" lon="6.34758">
        <ele>2368.4</ele>
        <time>2024-08-12T09:10:25Z</time>
      </trkpt>
      <trkpt lat="44.76405" lon="6.34758">
        <ele>2368.2</ele>
        <time>2024-08-12T09:10:26Z</time>
      </trkpt>
      <trkpt lat="44.76404" lon="6.3476">
        <ele>2368</ele>
        <time>2024-08-12T09:10:27Z</time>
      </trkpt>
      <trkpt lat="44.76404" lon="6.3476">
        <ele>2367.8</ele>
        <time>2024-08-12T09:10:28Z</time>
      </trkpt>
      <trkpt lat="44.76404" lon="6.3476">
        <ele>2367.6</ele>
        <time>2024-08-12T09:10:29Z</time>
      </trkpt>
      <trkpt lat="44.76402" lon="6.34759">
        <ele>2367</ele>
        <time>2024-08-12T09:10:30Z</time>
      </trkpt>
      <trkpt lat="44.76402" lon="6.34759">
        <ele>2366.8</ele>
        <time>2024-08-12T09:10:31Z</time>
      </trkpt>
      <trkpt lat="44.76402" lon="6.34756">
        <ele>2366.6</ele>
        <time>2024-08-12T09:10:32Z</time>
      </trkpt>
      <trkpt lat="44.76402" lon="6.34756">
        <ele>2366.2</ele>
        <time>2024-08-12T09:10:33Z</time>
      </trkpt>
      <trkpt lat="44.76403" lon="6.34753">
        <ele>2366</ele>
        <time>2024-08-12T09:10:34Z</time>
      </trkpt>
      <trkpt lat="44.76403" lon="6.34753">
        <ele>2366</ele>
        <time>2024-08-12T09:10:35Z</time>
      </trkpt>
      <trkpt lat="44.76404" lon="6.3475">
        <ele>2366</ele>
        <time>2024-08-12T09:10:36Z</time>
      </trkpt>
      <trkpt lat="44.76404" lon="6.3475">
        <ele>2365.8</ele>
        <time>2024-08-12T09:10:37Z</time>
      </trkpt>
      <trkpt lat="44.76404" lon="6.34747">
        <ele>2365.2</ele>
        <time>2024-08-12T09:10:38Z</time>
      </trkpt>
      <trkpt lat="44.76404" lon="6.34747">
        <ele>2365.2</ele>
        <time>2024-08-12T09:10:39Z</time>
      </trkpt>
      <trkpt lat="44.76404" lon="6.34747">
        <ele>2365</ele>
        <time>2024-08-12T09:10:40Z</time>
      </trkpt>
      <trkpt lat="44.76404" lon="6.34747">
        <ele>2364.6</ele>
        <time>2024-08-12T09:10:41Z</time>
      </trkpt>
      <trkpt lat="44.76404" lon="6.34747">
        <ele>2364.6</ele>
        <time>2024-08-12T09:10:42Z</time>
      </trkpt>
      <trkpt lat="44.76404" lon="6.34747">
        <ele>2364.6</ele>
        <time>2024-08-12T09:10:43Z</time>
      </trkpt>
      <trkpt lat="44.76404" lon="6.34747">
        <ele>2364.2</ele>
        <time>2024-08-12T09:10:44Z</time>
      </trkpt>
      <trkpt lat="44.76404" lon="6.34747">
        <ele>2363.8</ele>
        <time>2024-08-12T09:10:45Z</time>
      </trkpt>
      <trkpt lat="44.76405" lon="6.34744">
        <ele>2363.6</ele>
        <time>2024-08-12T09:10:46Z</time>
      </trkpt>
      <trkpt lat="44.76405" lon="6.34744">
        <ele>2363.2</ele>
        <time>2024-08-12T09:10:47Z</time>
      </trkpt>
      <trkpt lat="44.76405" lon="6.34744">
        <ele>2363.2</ele>
        <time>2024-08-12T09:10:48Z</time>
      </trkpt>
      <trkpt lat="44.76402" lon="6.34745">
        <ele>2363</ele>
        <time>2024-08-12T09:10:49Z</time>
      </trkpt>
      <trkpt lat="44.76402" lon="6.34745">
        <ele>2362.6</ele>
        <time>2024-08-12T09:10:50Z</time>
      </trkpt>
      <trkpt lat="44.76399" lon="6.34746">
        <ele>2362.4</ele>
        <time>2024-08-12T09:10:51Z</time>
      </trkpt>
      <trkpt lat="44.76399" lon="6.34746">
        <ele>2362.4</ele>
        <time>2024-08-12T09:10:52Z</time>
      </trkpt>
      <trkpt lat="44.76397" lon="6.34749">
        <ele>2362.6</ele>
        <time>2024-08-12T09:10:53Z</time>
      </trkpt>
      <trkpt lat="44.76397" lon="6.34749">
        <ele>2362.6</ele>
        <time>2024-08-12T09:10:54Z</time>
      </trkpt>
      <trkpt lat="44.76397" lon="6.34749">
        <ele>2362.4</ele>
        <time>2024-08-12T09:10:55Z</time>
      </trkpt>
      <trkpt lat="44.76396" lon="6.34752">
        <ele>2362</ele>
        <time>2024-08-12T09:10:56Z</time>
      </trkpt>
      <trkpt lat="44.76396" lon="6.34752">
        <ele>2361.6</ele>
        <time>2024-08-12T09:10:57Z</time>
      </trkpt>
      <trkpt lat="44.76395" lon="6.3475">
        <ele>2361.2</ele>
        <time>2024-08-12T09:10:58Z</time>
      </trkpt>
      <trkpt lat="44.76395" lon="6.3475">
        <ele>2361.2</ele>
        <time>2024-08-12T09:10:59Z</time>
      </trkpt>
      <trkpt lat="44.76394" lon="6.34747">
        <ele>2360.8</ele>
        <time>2024-08-12T09:11:00Z</time>
      </trkpt>
      <trkpt lat="44.76394" lon="6.34747">
        <ele>2360.4</ele>
        <time>2024-08-12T09:11:01Z</time>
      </trkpt>
      <trkpt lat="44.76394" lon="6.34744">
        <ele>2359.8</ele>
        <time>2024-08-12T09:11:02Z</time>
      </trkpt>
      <trkpt lat="44.76394" lon="6.34744">
        <ele>2359.8</ele>
        <time>2024-08-12T09:11:03Z</time>
      </trkpt>
      <trkpt lat="44.76395" lon="6.34741">
        <ele>2359.6</ele>
        <time>2024-08-12T09:11:04Z</time>
      </trkpt>
      <trkpt lat="44.76395" lon="6.34741">
        <ele>2359.4</ele>
        <time>2024-08-12T09:11:05Z</time>
      </trkpt>
      <trkpt lat="44.76395" lon="6.34741">
        <ele>2359.2</ele>
        <time>2024-08-12T09:11:06Z</time>
      </trkpt>
      <trkpt lat="44.76395" lon="6.34741">
        <ele>2359.2</ele>
        <time>2024-08-12T09:11:07Z</time>
      </trkpt>
      <trkpt lat="44.76395" lon="6.34741">
        <ele>2358.8</ele>
        <time>2024-08-12T09:11:08Z</time>
      </trkpt>
      <trkpt lat="44.76395" lon="6.34741">
        <ele>2358.4</ele>
        <time>2024-08-12T09:11:09Z</time>
      </trkpt>
      <trkpt lat="44.76395" lon="6.34741">
        <ele>2358.4</ele>
        <time>2024-08-12T09:11:10Z</time>
      </trkpt>
      <trkpt lat="44.76393" lon="6.34743">
        <ele>2358.2</ele>
        <time>2024-08-12T09:11:11Z</time>
      </trkpt>
      <trkpt lat="44.76393" lon="6.34743">
        <ele>2358.2</ele>
        <time>2024-08-12T09:11:12Z</time>
      </trkpt>
      <trkpt lat="44.76391" lon="6.34743">
        <ele>2357.8</ele>
        <time>2024-08-12T09:11:13Z</time>
      </trkpt>
      <trkpt lat="44.76391" lon="6.34743">
        <ele>2357.6</ele>
        <time>2024-08-12T09:11:14Z</time>
      </trkpt>
      <trkpt lat="44.7639" lon="6.34741">
        <ele>2357.4</ele>
        <time>2024-08-12T09:11:15Z</time>
      </trkpt>
      <trkpt lat="44.7639" lon="6.34741">
        <ele>2357</ele>
        <time>2024-08-12T09:11:16Z</time>
      </trkpt>
      <trkpt lat="44.76389" lon="6.34739">
        <ele>2356.8</ele>
        <time>2024-08-12T09:11:17Z</time>
      </trkpt>
      <trkpt lat="44.76389" lon="6.34739">
        <ele>2356.6</ele>
        <time>2024-08-12T09:11:18Z</time>
      </trkpt>
      <trkpt lat="44.76389" lon="6.34739">
        <ele>2356.6</ele>
        <time>2024-08-12T09:11:19Z</time>
      </trkpt>
      <trkpt lat="44.76389" lon="6.34735">
        <ele>2356.4</ele>
        <time>2024-08-12T09:11:20Z</time>
      </trkpt>
      <trkpt lat="44.76389" lon="6.34735">
        <ele>2356.2</ele>
        <time>2024-08-12T09:11:21Z</time>
      </trkpt>
      <trkpt lat="44.76389" lon="6.34735">
        <ele>2355.8</ele>
        <time>2024-08-12T09:11:22Z</time>
      </trkpt>
      <trkpt lat="44.76389" lon="6.34735">
        <ele>2355.6</ele>
        <time>2024-08-12T09:11:23Z</time>
      </trkpt>
      <trkpt lat="44.76389" lon="6.34735">
        <ele>2355.6</ele>
        <time>2024-08-12T09:11:24Z</time>
      </trkpt>
      <trkpt lat="44.76389" lon="6.34735">
        <ele>2355.2</ele>
        <time>2024-08-12T09:11:25Z</time>
      </trkpt>
      <trkpt lat="44.76387" lon="6.34735">
        <ele>2355</ele>
        <time>2024-08-12T09:11:26Z</time>
      </trkpt>
      <trkpt lat="44.76387" lon="6.34735">
        <ele>2354.8</ele>
        <time>2024-08-12T09:11:27Z</time>
      </trkpt>
      <trkpt lat="44.76386" lon="6.34738">
        <ele>2354.6</ele>
        <time>2024-08-12T09:11:28Z</time>
      </trkpt>
      <trkpt lat="44.76386" lon="6.34738">
        <ele>2354.4</ele>
        <time>2024-08-12T09:11:29Z</time>
      </trkpt>
      <trkpt lat="44.76386" lon="6.34738">
        <ele>2354</ele>
        <time>2024-08-12T09:11:30Z</time>
      </trkpt>
      <trkpt lat="44.76384" lon="6.34736">
        <ele>2353.8</ele>
        <time>2024-08-12T09:11:31Z</time>
      </trkpt>
      <trkpt lat="44.76384" lon="6.34736">
        <ele>2353.8</ele>
        <time>2024-08-12T09:11:32Z</time>
      </trkpt>
      <trkpt lat="44.76384" lon="6.34733">
        <ele>2353.6</ele>
        <time>2024-08-12T09:11:33Z</time>
      </trkpt>
      <trkpt lat="44.76384" lon="6.34733">
        <ele>2353.6</ele>
        <time>2024-08-12T09:11:34Z</time>
      </trkpt>
      <trkpt lat="44.76383" lon="6.34731">
        <ele>2353.2</ele>
        <time>2024-08-12T09:11:35Z</time>
      </trkpt>
      <trkpt lat="44.76383" lon="6.34731">
        <ele>2353</ele>
        <time>2024-08-12T09:11:36Z</time>
      </trkpt>
      <trkpt lat="44.76383" lon="6.34728">
        <ele>2352.8</ele>
        <time>2024-08-12T09:11:37Z</time>
      </trkpt>
      <trkpt lat="44.76383" lon="6.34728">
        <ele>2352.6</ele>
        <time>2024-08-12T09:11:38Z</time>
      </trkpt>
      <trkpt lat="44.76383" lon="6.34728">
        <ele>2352</ele>
        <time>2024-08-12T09:11:39Z</time>
      </trkpt>
      <trkpt lat="44.76383" lon="6.34725">
        <ele>2352</ele>
        <time>2024-08-12T09:11:40Z</time>
      </trkpt>
      <trkpt lat="44.76383" lon="6.34725">
        <ele>2351.8</ele>
        <time>2024-08-12T09:11:41Z</time>
      </trkpt>
      <trkpt lat="44.76383" lon="6.34725">
        <ele>2351.8</ele>
        <time>2024-08-12T09:11:42Z</time>
      </trkpt>
      <trkpt lat="44.76383" lon="6.34725">
        <ele>2351.6</ele>
        <time>2024-08-12T09:11:43Z</time>
      </trkpt>
      <trkpt lat="44.76381" lon="6.34726">
        <ele>2351.2</ele>
        <time>2024-08-12T09:11:44Z</time>
      </trkpt>
      <trkpt lat="44.76381" lon="6.34726">
        <ele>2351.2</ele>
        <time>2024-08-12T09:11:45Z</time>
      </trkpt>
      <trkpt lat="44.76381" lon="6.34726">
        <ele>2351.2</ele>
        <time>2024-08-12T09:11:46Z</time>
      </trkpt>
      <trkpt lat="44.76379" lon="6.34728">
        <ele>2351</ele>
        <time>2024-08-12T09:11:47Z</time>
      </trkpt>
      <trkpt lat="44.76379" lon="6.34728">
        <ele>2351</ele>
        <time>2024-08-12T09:11:48Z</time>
      </trkpt>
      <trkpt lat="44.76379" lon="6.34728">
        <ele>2350.4</ele>
        <time>2024-08-12T09:11:49Z</time>
      </trkpt>
      <trkpt lat="44.76378" lon="6.34726">
        <ele>2350</ele>
        <time>2024-08-12T09:11:50Z</time>
      </trkpt>
      <trkpt lat="44.76378" lon="6.34726">
        <ele>2349.6</ele>
        <time>2024-08-12T09:11:51Z</time>
      </trkpt>
      <trkpt lat="44.76378" lon="6.34723">
        <ele>2349.2</ele>
        <time>2024-08-12T09:11:52Z</time>
      </trkpt>
      <trkpt lat="44.76378" lon="6.34723">
        <ele>2349.2</ele>
        <time>2024-08-12T09:11:53Z</time>
      </trkpt>
      <trkpt lat="44.76379" lon="6.34721">
        <ele>2349.2</ele>
        <time>2024-08-12T09:11:54Z</time>
      </trkpt>
      <trkpt lat="44.76379" lon="6.34721">
        <ele>2349.2</ele>
        <time>2024-08-12T09:11:55Z</time>
      </trkpt>
      <trkpt lat="44.76379" lon="6.34721">
        <ele>2348.6</ele>
        <time>2024-08-12T09:11:56Z</time>
      </trkpt>
      <trkpt lat="44.76379" lon="6.34717">
        <ele>2348.4</ele>
        <time>2024-08-12T09:11:57Z</time>
      </trkpt>
      <trkpt lat="44.76379" lon="6.34717">
        <ele>2348.2</ele>
        <time>2024-08-12T09:11:58Z</time>
      </trkpt>
      <trkpt lat="44.7638" lon="6.34714">
        <ele>2348.2</ele>
        <time>2024-08-12T09:11:59Z</time>
      </trkpt>
      <trkpt lat="44.7638" lon="6.34714">
        <ele>2347.8</ele>
        <time>2024-08-12T09:12:00Z</time>
      </trkpt>
      <trkpt lat="44.7638" lon="6.34714">
        <ele>2347.4</ele>
        <time>2024-08-12T09:12:01Z</time>
      </trkpt>
      <trkpt lat="44.7638" lon="6.34714">
        <ele>2346.6</ele>
        <time>2024-08-12T09:12:02Z</time>
      </trkpt>
      <trkpt lat="44.7638" lon="6.34714">
        <ele>2346.6</ele>
        <time>2024-08-12T09:12:03Z</time>
      </trkpt>
      <trkpt lat="44.76378" lon="6.34714">
        <ele>2346.6</ele>
        <time>2024-08-12T09:12:04Z</time>
      </trkpt>
      <trkpt lat="44.76378" lon="6.34714">
        <ele>2346.2</ele>
        <time>2024-08-12T09:12:05Z</time>
      </trkpt>
      <trkpt lat="44.76376" lon="6.34715">
        <ele>2345.8</ele>
        <time>2024-08-12T09:12:06Z</time>
      </trkpt>
      <trkpt lat="44.76376" lon="6.34715">
        <ele>2345.8</ele>
        <time>2024-08-12T09:12:07Z</time>
      </trkpt>
      <trkpt lat="44.76374" lon="6.34717">
        <ele>2345.6</ele>
        <time>2024-08-12T09:12:08Z</time>
      </trkpt>
      <trkpt lat="44.76374" lon="6.34717">
        <ele>2345.6</ele>
        <time>2024-08-12T09:12:09Z</time>
      </trkpt>
      <trkpt lat="44.76373" lon="6.34719">
        <ele>2345.2</ele>
        <time>2024-08-12T09:12:10Z</time>
      </trkpt>
      <trkpt lat="44.76373" lon="6.34719">
        <ele>2345.2</ele>
        <time>2024-08-12T09:12:11Z</time>
      </trkpt>
      <trkpt lat="44.76373" lon="6.34719">
        <ele>2345</ele>
        <time>2024-08-12T09:12:12Z</time>
      </trkpt>
      <trkpt lat="44.76373" lon="6.34719">
        <ele>2345</ele>
        <time>2024-08-12T09:12:13Z</time>
      </trkpt>
      <trkpt lat="44.76371" lon="6.34719">
        <ele>2344.6</ele>
        <time>2024-08-12T09:12:14Z</time>
      </trkpt>
      <trkpt lat="44.76371" lon="6.34719">
        <ele>2344.6</ele>
        <time>2024-08-12T09:12:15Z</time>
      </trkpt>
      <trkpt lat="44.76371" lon="6.34716">
        <ele>2344.2</ele>
        <time>2024-08-12T09:12:16Z</time>
      </trkpt>
      <trkpt lat="44.76371" lon="6.34716">
        <ele>2344</ele>
        <time>2024-08-12T09:12:17Z</time>
      </trkpt>
      <trkpt lat="44.76371" lon="6.34714">
        <ele>2344</ele>
        <time>2024-08-12T09:12:18Z</time>
      </trkpt>
      <trkpt lat="44.76371" lon="6.34714">
        <ele>2343.8</ele>
        <time>2024-08-12T09:12:19Z</time>
      </trkpt>
      <trkpt lat="44.76371" lon="6.34714">
        <ele>2343.2</ele>
        <time>2024-08-12T09:12:20Z</time>
      </trkpt>
      <trkpt lat="44.7637" lon="6.3471">
        <ele>2342.8</ele>
        <time>2024-08-12T09:12:21Z</time>
      </trkpt>
      <trkpt lat="44.7637" lon="6.3471">
        <ele>2342.8</ele>
        <time>2024-08-12T09:12:22Z</time>
      </trkpt>
      <trkpt lat="44.76371" lon="6.34707">
        <ele>2342.4</ele>
        <time>2024-08-12T09:12:23Z</time>
      </trkpt>
      <trkpt lat="44.76371" lon="6.34707">
        <ele>2342.2</ele>
        <time>2024-08-12T09:12:24Z</time>
      </trkpt>
      <trkpt lat="44.76372" lon="6.34704">
        <ele>2342.2</ele>
        <time>2024-08-12T09:12:25Z</time>
      </trkpt>
      <trkpt lat="44.76372" lon="6.34704">
        <ele>2342.2</ele>
        <time>2024-08-12T09:12:26Z</time>
      </trkpt>
      <trkpt lat="44.76374" lon="6.34702">
        <ele>2342</ele>
        <time>2024-08-12T09:12:27Z</time>
      </trkpt>
      <trkpt lat="44.76374" lon="6.34702">
        <ele>2341.8</ele>
        <time>2024-08-12T09:12:28Z</time>
      </trkpt>
      <trkpt lat="44.76374" lon="6.34702">
        <ele>2341.6</ele>
        <time>2024-08-12T09:12:29Z</time>
      </trkpt>
      <trkpt lat="44.76374" lon="6.34702">
        <ele>2341.6</ele>
        <time>2024-08-12T09:12:30Z</time>
      </trkpt>
      <trkpt lat="44.76376" lon="6.347">
        <ele>2341.6</ele>
        <time>2024-08-12T09:12:31Z</time>
      </trkpt>
      <trkpt lat="44.76376" lon="6.347">
        <ele>2341.6</ele>
        <time>2024-08-12T09:12:32Z</time>
      </trkpt>
      <trkpt lat="44.76376" lon="6.347">
        <ele>2341.4</ele>
        <time>2024-08-12T09:12:33Z</time>
      </trkpt>
      <trkpt lat="44.76374" lon="6.34699">
        <ele>2341</ele>
        <time>2024-08-12T09:12:34Z</time>
      </trkpt>
      <trkpt lat="44.76374" lon="6.34699">
        <ele>2340.6</ele>
        <time>2024-08-12T09:12:35Z</time>
      </trkpt>
      <trkpt lat="44.76372" lon="6.347">
        <ele>2340.4</ele>
        <time>2024-08-12T09:12:36Z</time>
      </trkpt>
      <trkpt lat="44.76372" lon="6.347">
        <ele>2340.4</ele>
        <time>2024-08-12T09:12:37Z</time>
      </trkpt>
      <trkpt lat="44.7637" lon="6.34701">
        <ele>2340.2</ele>
        <time>2024-08-12T09:12:38Z</time>
      </trkpt>
      <trkpt lat="44.7637" lon="6.34701">
        <ele>2340.2</ele>
        <time>2024-08-12T09:12:39Z</time>
      </trkpt>
      <trkpt lat="44.76368" lon="6.34701">
        <ele>2339.8</ele>
        <time>2024-08-12T09:12:40Z</time>
      </trkpt>
      <trkpt lat="44.76368" lon="6.34701">
        <ele>2339.8</ele>
        <time>2024-08-12T09:12:41Z</time>
      </trkpt>
      <trkpt lat="44.76366" lon="6.34702">
        <ele>2339.4</ele>
        <time>2024-08-12T09:12:42Z</time>
      </trkpt>
      <trkpt lat="44.76366" lon="6.34702">
        <ele>2339.2</ele>
        <time>2024-08-12T09:12:43Z</time>
      </trkpt>
      <trkpt lat="44.76366" lon="6.34702">
        <ele>2338.8</ele>
        <time>2024-08-12T09:12:44Z</time>
      </trkpt>
      <trkpt lat="44.76364" lon="6.34705">
        <ele>2338.4</ele>
        <time>2024-08-12T09:12:45Z</time>
      </trkpt>
      <trkpt lat="44.76364" lon="6.34705">
        <ele>2338.4</ele>
        <time>2024-08-12T09:12:46Z</time>
      </trkpt>
      <trkpt lat="44.76363" lon="6.34707">
        <ele>2337.8</ele>
        <time>2024-08-12T09:12:47Z</time>
      </trkpt>
      <trkpt lat="44.76363" lon="6.34707">
        <ele>2337.6</ele>
        <time>2024-08-12T09:12:48Z</time>
      </trkpt>
      <trkpt lat="44.76363" lon="6.34707">
        <ele>2337.4</ele>
        <time>2024-08-12T09:12:49Z</time>
      </trkpt>
      <trkpt lat="44.76362" lon="6.34704">
        <ele>2337.2</ele>
        <time>2024-08-12T09:12:50Z</time>
      </trkpt>
      <trkpt lat="44.76362" lon="6.34704">
        <ele>2337</ele>
        <time>2024-08-12T09:12:51Z</time>
      </trkpt>
      <trkpt lat="44.76362" lon="6.34701">
        <ele>2336.8</ele>
        <time>2024-08-12T09:12:52Z</time>
      </trkpt>
      <trkpt lat="44.76362" lon="6.34701">
        <ele>2336.6</ele>
        <time>2024-08-12T09:12:53Z</time>
      </trkpt>
      <trkpt lat="44.76363" lon="6.34698">
        <ele>2336.2</ele>
        <time>2024-08-12T09:12:54Z</time>
      </trkpt>
      <trkpt lat="44.76363" lon="6.34698">
        <ele>2336</ele>
        <time>2024-08-12T09:12:55Z</time>
      </trkpt>
      <trkpt lat="44.76364" lon="6.34695">
        <ele>2336</ele>
        <time>2024-08-12T09:12:56Z</time>
      </trkpt>
      <trkpt lat="44.76364" lon="6.34695">
        <ele>2335.8</ele>
        <time>2024-08-12T09:12:57Z</time>
      </trkpt>
      <trkpt lat="44.76365" lon="6.34692">
        <ele>2335.6</ele>
        <time>2024-08-12T09:12:58Z</time>
      </trkpt>
      <trkpt lat="44.76365" lon="6.34692">
        <ele>2335.4</ele>
        <time>2024-08-12T09:12:59Z</time>
      </trkpt>
      <trkpt lat="44.76365" lon="6.34692">
        <ele>2335.2</ele>
        <time>2024-08-12T09:13:00Z</time>
      </trkpt>
      <trkpt lat="44.76365" lon="6.34689">
        <ele>2335.2</ele>
        <time>2024-08-12T09:13:01Z</time>
      </trkpt>
      <trkpt lat="44.76365" lon="6.34689">
        <ele>2334.6</ele>
        <time>2024-08-12T09:13:02Z</time>
      </trkpt>
      <trkpt lat="44.76365" lon="6.34689">
        <ele>2334.6</ele>
        <time>2024-08-12T09:13:03Z</time>
      </trkpt>
      <trkpt lat="44.76365" lon="6.34686">
        <ele>2334.6</ele>
        <time>2024-08-12T09:13:04Z</time>
      </trkpt>
      <trkpt lat="44.76365" lon="6.34686">
        <ele>2334.2</ele>
        <time>2024-08-12T09:13:05Z</time>
      </trkpt>
      <trkpt lat="44.76366" lon="6.34683">
        <ele>2333.8</ele>
        <time>2024-08-12T09:13:06Z</time>
      </trkpt>
      <trkpt lat="44.76366" lon="6.34683">
        <ele>2333.6</ele>
        <time>2024-08-12T09:13:07Z</time>
      </trkpt>
      <trkpt lat="44.76366" lon="6.34683">
        <ele>2333.6</ele>
        <time>2024-08-12T09:13:08Z</time>
      </trkpt>
      <trkpt lat="44.76367" lon="6.3468">
        <ele>2333.2</ele>
        <time>2024-08-12T09:13:09Z</time>
      </trkpt>
      <trkpt lat="44.76367" lon="6.3468">
        <ele>2333</ele>
        <time>2024-08-12T09:13:10Z</time>
      </trkpt>
      <trkpt lat="44.76367" lon="6.3468">
        <ele>2332.8</ele>
        <time>2024-08-12T09:13:11Z</time>
      </trkpt>
      <trkpt lat="44.76368" lon="6.34679">
        <ele>2332.6</ele>
        <time>2024-08-12T09:13:12Z</time>
      </trkpt>
      <trkpt lat="44.76368" lon="6.34679">
        <ele>2332.6</ele>
        <time>2024-08-12T09:13:13Z</time>
      </trkpt>
      <trkpt lat="44.76368" lon="6.34679">
        <ele>2332.6</ele>
        <time>2024-08-12T09:13:14Z</time>
      </trkpt>
      <trkpt lat="44.76368" lon="6.34679">
        <ele>2332.6</ele>
        <time>2024-08-12T09:13:15Z</time>
      </trkpt>
      <trkpt lat="44.76368" lon="6.34679">
        <ele>2332.2</ele>
        <time>2024-08-12T09:13:16Z</time>
      </trkpt>
      <trkpt lat="44.76367" lon="6.34677">
        <ele>2331.4</ele>
        <time>2024-08-12T09:13:17Z</time>
      </trkpt>
      <trkpt lat="44.76367" lon="6.34677">
        <ele>2331.4</ele>
        <time>2024-08-12T09:13:18Z</time>
      </trkpt>
      <trkpt lat="44.76367" lon="6.34677">
        <ele>2331.4</ele>
        <time>2024-08-12T09:13:19Z</time>
      </trkpt>
      <trkpt lat="44.76365" lon="6.34679">
        <ele>2331.2</ele>
        <time>2024-08-12T09:13:20Z</time>
      </trkpt>
      <trkpt lat="44.76365" lon="6.34679">
        <ele>2330.6</ele>
        <time>2024-08-12T09:13:21Z</time>
      </trkpt>
      <trkpt lat="44.76365" lon="6.34679">
        <ele>2330.4</ele>
        <time>2024-08-12T09:13:22Z</time>
      </trkpt>
      <trkpt lat="44.76365" lon="6.34679">
        <ele>2330</ele>
        <time>2024-08-12T09:13:23Z</time>
      </trkpt>
      <trkpt lat="44.76365" lon="6.34679">
        <ele>2329.8</ele>
        <time>2024-08-12T09:13:24Z</time>
      </trkpt>
      <trkpt lat="44.76362" lon="6.3468">
        <ele>2329.6</ele>
        <time>2024-08-12T09:13:25Z</time>
      </trkpt>
      <trkpt lat="44.76362" lon="6.3468">
        <ele>2329.4</ele>
        <time>2024-08-12T09:13:26Z</time>
      </trkpt>
      <trkpt lat="44.76362" lon="6.3468">
        <ele>2329.2</ele>
        <time>2024-08-12T09:13:27Z</time>
      </trkpt>
      <trkpt lat="44.76361" lon="6.34678">
        <ele>2328.8</ele>
        <time>2024-08-12T09:13:28Z</time>
      </trkpt>
      <trkpt lat="44.76361" lon="6.34678">
        <ele>2328.8</ele>
        <time>2024-08-12T09:13:29Z</time>
      </trkpt>
      <trkpt lat="44.76362" lon="6.34675">
        <ele>2328.6</ele>
        <time>2024-08-12T09:13:30Z</time>
      </trkpt>
      <trkpt lat="44.76362" lon="6.34675">
        <ele>2328.6</ele>
        <time>2024-08-12T09:13:31Z</time>
      </trkpt>
      <trkpt lat="44.76363" lon="6.34672">
        <ele>2328.2</ele>
        <time>2024-08-12T09:13:32Z</time>
      </trkpt>
      <trkpt lat="44.76363" lon="6.34672">
        <ele>2328</ele>
        <time>2024-08-12T09:13:33Z</time>
      </trkpt>
      <trkpt lat="44.76365" lon="6.34671">
        <ele>2327.8</ele>
        <time>2024-08-12T09:13:34Z</time>
      </trkpt>
      <trkpt lat="44.76365" lon="6.34671">
        <ele>2327.8</ele>
        <time>2024-08-12T09:13:35Z</time>
      </trkpt>
      <trkpt lat="44.76366" lon="6.34669">
        <ele>2327.6</ele>
        <time>2024-08-12T09:13:36Z</time>
      </trkpt>
      <trkpt lat="44.76366" lon="6.34669">
        <ele>2327.4</ele>
        <time>2024-08-12T09:13:37Z</time>
      </trkpt>
      <trkpt lat="44.76366" lon="6.34669">
        <ele>2327.2</ele>
        <time>2024-08-12T09:13:38Z</time>
      </trkpt>
      <trkpt lat="44.76366" lon="6.34669">
        <ele>2327</ele>
        <time>2024-08-12T09:13:39Z</time>
      </trkpt>
      <trkpt lat="44.76366" lon="6.34669">
        <ele>2326.6</ele>
        <time>2024-08-12T09:13:40Z</time>
      </trkpt>
      <trkpt lat="44.76365" lon="6.34667">
        <ele>2326.6</ele>
        <time>2024-08-12T09:13:41Z</time>
      </trkpt>
      <trkpt lat="44.76365" lon="6.34667">
        <ele>2326.6</ele>
        <time>2024-08-12T09:13:42Z</time>
      </trkpt>
      <trkpt lat="44.76362" lon="6.34668">
        <ele>2326.2</ele>
        <time>2024-08-12T09:13:43Z</time>
      </trkpt>
      <trkpt lat="44.76362" lon="6.34668">
        <ele>2326</ele>
        <time>2024-08-12T09:13:44Z</time>
      </trkpt>
      <trkpt lat="44.7636" lon="6.3467">
        <ele>2325.8</ele>
        <time>2024-08-12T09:13:45Z</time>
      </trkpt>
      <trkpt lat="44.7636" lon="6.3467">
        <ele>2325.6</ele>
        <time>2024-08-12T09:13:46Z</time>
      </trkpt>
      <trkpt lat="44.76358" lon="6.34672">
        <ele>2325.6</ele>
        <time>2024-08-12T09:13:47Z</time>
      </trkpt>
      <trkpt lat="44.76358" lon="6.34672">
        <ele>2325.4</ele>
        <time>2024-08-12T09:13:48Z</time>
      </trkpt>
      <trkpt lat="44.76357" lon="6.34674">
        <ele>2325.2</ele>
        <time>2024-08-12T09:13:49Z</time>
      </trkpt>
      <trkpt lat="44.76357" lon="6.34674">
        <ele>2325.2</ele>
        <time>2024-08-12T09:13:50Z</time>
      </trkpt>
      <trkpt lat="44.76355" lon="6.34676">
        <ele>2325.2</ele>
        <time>2024-08-12T09:13:51Z</time>
      </trkpt>
      <trkpt lat="44.76355" lon="6.34676">
        <ele>2325.2</ele>
        <time>2024-08-12T09:13:52Z</time>
      </trkpt>
      <trkpt lat="44.76355" lon="6.34676">
        <ele>2325</ele>
        <time>2024-08-12T09:13:53Z</time>
      </trkpt>
      <trkpt lat="44.76352" lon="6.34678">
        <ele>2324.8</ele>
        <time>2024-08-12T09:13:54Z</time>
      </trkpt>
      <trkpt lat="44.76352" lon="6.34678">
        <ele>2324.4</ele>
        <time>2024-08-12T09:13:55Z</time>
      </trkpt>
      <trkpt lat="44.76349" lon="6.34679">
        <ele>2324</ele>
        <time>2024-08-12T09:13:56Z</time>
      </trkpt>
      <trkpt lat="44.76349" lon="6.34679">
        <ele>2324</ele>
        <time>2024-08-12T09:13:57Z</time>
      </trkpt>
      <trkpt lat="44.76347" lon="6.3468">
        <ele>2323.8</ele>
        <time>2024-08-12T09:13:58Z</time>
      </trkpt>
      <trkpt lat="44.76347" lon="6.3468">
        <ele>2323.6</ele>
        <time>2024-08-12T09:13:59Z</time>
      </trkpt>
      <trkpt lat="44.76347" lon="6.3468">
        <ele>2323.4</ele>
        <time>2024-08-12T09:14:00Z</time>
      </trkpt>
      <trkpt lat="44.76346" lon="6.34683">
        <ele>2323.2</ele>
        <time>2024-08-12T09:14:01Z</time>
      </trkpt>
      <trkpt lat="44.76346" lon="6.34683">
        <ele>2323.2</ele>
        <time>2024-08-12T09:14:02Z</time>
      </trkpt>
      <trkpt lat="44.76344" lon="6.34685">
        <ele>2323.2</ele>
        <time>2024-08-12T09:14:03Z</time>
      </trkpt>
      <trkpt lat="44.76344" lon="6.34685">
        <ele>2323</ele>
        <time>2024-08-12T09:14:04Z</time>
      </trkpt>
      <trkpt lat="44.76344" lon="6.34685">
        <ele>2322.6</ele>
        <time>2024-08-12T09:14:05Z</time>
      </trkpt>
      <trkpt lat="44.76343" lon="6.34688">
        <ele>2322.6</ele>
        <time>2024-08-12T09:14:06Z</time>
      </trkpt>
      <trkpt lat="44.76343" lon="6.34688">
        <ele>2322.6</ele>
        <time>2024-08-12T09:14:07Z</time>
      </trkpt>
      <trkpt lat="44.76341" lon="6.3469">
        <ele>2322</ele>
        <time>2024-08-12T09:14:08Z</time>
      </trkpt>
      <trkpt lat="44.76341" lon="6.3469">
        <ele>2321.6</ele>
        <time>2024-08-12T09:14:09Z</time>
      </trkpt>
      <trkpt lat="44.76341" lon="6.34693">
        <ele>2321.2</ele>
        <time>2024-08-12T09:14:10Z</time>
      </trkpt>
      <trkpt lat="44.76341" lon="6.34693">
        <ele>2321.2</ele>
        <time>2024-08-12T09:14:11Z</time>
      </trkpt>
      <trkpt lat="44.7634" lon="6.34696">
        <ele>2321.2</ele>
        <time>2024-08-12T09:14:12Z</time>
      </trkpt>
      <trkpt lat="44.7634" lon="6.34696">
        <ele>2321</ele>
        <time>2024-08-12T09:14:13Z</time>
      </trkpt>
      <trkpt lat="44.76339" lon="6.34699">
        <ele>2320.6</ele>
        <time>2024-08-12T09:14:14Z</time>
      </trkpt>
      <trkpt lat="44.76339" lon="6.34699">
        <ele>2320.4</ele>
        <time>2024-08-12T09:14:15Z</time>
      </trkpt>
      <trkpt lat="44.76339" lon="6.34699">
        <ele>2320.2</ele>
        <time>2024-08-12T09:14:16Z</time>
      </trkpt>
      <trkpt lat="44.76338" lon="6.34702">
        <ele>2320</ele>
        <time>2024-08-12T09:14:17Z</time>
      </trkpt>
      <trkpt lat="44.76338" lon="6.34702">
        <ele>2319.8</ele>
        <time>2024-08-12T09:14:18Z</time>
      </trkpt>
      <trkpt lat="44.76338" lon="6.34702">
        <ele>2319.4</ele>
        <time>2024-08-12T09:14:19Z</time>
      </trkpt>
      <trkpt lat="44.76338" lon="6.34702">
        <ele>2319.2</ele>
        <time>2024-08-12T09:14:20Z</time>
      </trkpt>
      <trkpt lat="44.76339" lon="6.34706">
        <ele>2319</ele>
        <time>2024-08-12T09:14:21Z</time>
      </trkpt>
      <trkpt lat="44.76339" lon="6.34706">
        <ele>2318.8</ele>
        <time>2024-08-12T09:14:22Z</time>
      </trkpt>
      <trkpt lat="44.76339" lon="6.34706">
        <ele>2318.6</ele>
        <time>2024-08-12T09:14:23Z</time>
      </trkpt>
      <trkpt lat="44.76339" lon="6.34709">
        <ele>2318.4</ele>
        <time>2024-08-12T09:14:24Z</time>
      </trkpt>
      <trkpt lat="44.76339" lon="6.34709">
        <ele>2318.2</ele>
        <time>2024-08-12T09:14:25Z</time>
      </trkpt>
      <trkpt lat="44.76339" lon="6.34709">
        <ele>2317.8</ele>
        <time>2024-08-12T09:14:26Z</time>
      </trkpt>
      <trkpt lat="44.76337" lon="6.34711">
        <ele>2317.6</ele>
        <time>2024-08-12T09:14:27Z</time>
      </trkpt>
      <trkpt lat="44.76337" lon="6.34711">
        <ele>2317.6</ele>
        <time>2024-08-12T09:14:28Z</time>
      </trkpt>
      <trkpt lat="44.76335" lon="6.34712">
        <ele>2317.4</ele>
        <time>2024-08-12T09:14:29Z</time>
      </trkpt>
      <trkpt lat="44.76335" lon="6.34712">
        <ele>2317</ele>
        <time>2024-08-12T09:14:30Z</time>
      </trkpt>
      <trkpt lat="44.76335" lon="6.34712">
        <ele>2316.8</ele>
        <time>2024-08-12T09:14:31Z</time>
      </trkpt>
      <trkpt lat="44.76333" lon="6.34712">
        <ele>2316.6</ele>
        <time>2024-08-12T09:14:32Z</time>
      </trkpt>
      <trkpt lat="44.76333" lon="6.34712">
        <ele>2316.6</ele>
        <time>2024-08-12T09:14:33Z</time>
      </trkpt>
      <trkpt lat="44.76333" lon="6.34712">
        <ele>2316.2</ele>
        <time>2024-08-12T09:14:34Z</time>
      </trkpt>
      <trkpt lat="44.76331" lon="6.34711">
        <ele>2316</ele>
        <time>2024-08-12T09:14:35Z</time>
      </trkpt>
      <trkpt lat="44.76331" lon="6.34711">
        <ele>2315.8</ele>
        <time>2024-08-12T09:14:36Z</time>
      </trkpt>
      <trkpt lat="44.76328" lon="6.34712">
        <ele>2315.6</ele>
        <time>2024-08-12T09:14:37Z</time>
      </trkpt>
      <trkpt lat="44.76328" lon="6.34712">
        <ele>2315.4</ele>
        <time>2024-08-12T09:14:38Z</time>
      </trkpt>
      <trkpt lat="44.76328" lon="6.34712">
        <ele>2315.4</ele>
        <time>2024-08-12T09:14:39Z</time>
      </trkpt>
      <trkpt lat="44.76326" lon="6.3471">
        <ele>2315.2</ele>
        <time>2024-08-12T09:14:40Z</time>
      </trkpt>
      <trkpt lat="44.76326" lon="6.3471">
        <ele>2315.2</ele>
        <time>2024-08-12T09:14:41Z</time>
      </trkpt>
      <trkpt lat="44.76326" lon="6.3471">
        <ele>2314.8</ele>
        <time>2024-08-12T09:14:42Z</time>
      </trkpt>
      <trkpt lat="44.76326" lon="6.3471">
        <ele>2314.4</ele>
        <time>2024-08-12T09:14:43Z</time>
      </trkpt>
      <trkpt lat="44.76326" lon="6.3471">
        <ele>2314.2</ele>
        <time>2024-08-12T09:14:44Z</time>
      </trkpt>
      <trkpt lat="44.76325" lon="6.34709">
        <ele>2314</ele>
        <time>2024-08-12T09:14:45Z</time>
      </trkpt>
      <trkpt lat="44.76325" lon="6.34709">
        <ele>2313.8</ele>
        <time>2024-08-12T09:14:46Z</time>
      </trkpt>
      <trkpt lat="44.76325" lon="6.34709">
        <ele>2313.6</ele>
        <time>2024-08-12T09:14:47Z</time>
      </trkpt>
      <trkpt lat="44.76325" lon="6.34709">
        <ele>2313.2</ele>
        <time>2024-08-12T09:14:48Z</time>
      </trkpt>
      <trkpt lat="44.76323" lon="6.34706">
        <ele>2313.2</ele>
        <time>2024-08-12T09:14:49Z</time>
      </trkpt>
      <trkpt lat="44.76323" lon="6.34706">
        <ele>2313</ele>
        <time>2024-08-12T09:14:50Z</time>
      </trkpt>
      <trkpt lat="44.76323" lon="6.34706">
        <ele>2312.6</ele>
        <time>2024-08-12T09:14:51Z</time>
      </trkpt>
      <trkpt lat="44.76323" lon="6.34706">
        <ele>2312.6</ele>
        <time>2024-08-12T09:14:52Z</time>
      </trkpt>
      <trkpt lat="44.76323" lon="6.34703">
        <ele>2312.4</ele>
        <time>2024-08-12T09:14:53Z</time>
      </trkpt>
      <trkpt lat="44.76323" lon="6.34703">
        <ele>2311.8</ele>
        <time>2024-08-12T09:14:54Z</time>
      </trkpt>
      <trkpt lat="44.76323" lon="6.34703">
        <ele>2311.4</ele>
        <time>2024-08-12T09:14:55Z</time>
      </trkpt>
      <trkpt lat="44.76323" lon="6.34703">
        <ele>2311.2</ele>
        <time>2024-08-12T09:14:56Z</time>
      </trkpt>
      <trkpt lat="44.76323" lon="6.34703">
        <ele>2311.2</ele>
        <time>2024-08-12T09:14:57Z</time>
      </trkpt>
      <trkpt lat="44.76323" lon="6.34703">
        <ele>2311</ele>
        <time>2024-08-12T09:14:58Z</time>
      </trkpt>
      <trkpt lat="44.76321" lon="6.34705">
        <ele>2310.8</ele>
        <time>2024-08-12T09:14:59Z</time>
      </trkpt>
      <trkpt lat="44.76321" lon="6.34705">
        <ele>2310.4</ele>
        <time>2024-08-12T09:15:00Z</time>
      </trkpt>
      <trkpt lat="44.76321" lon="6.34705">
        <ele>2310.2</ele>
        <time>2024-08-12T09:15:01Z</time>
      </trkpt>
      <trkpt lat="44.76321" lon="6.34705">
        <ele>2309.8</ele>
        <time>2024-08-12T09:15:02Z</time>
      </trkpt>
      <trkpt lat="44.76321" lon="6.34705">
        <ele>2309.8</ele>
        <time>2024-08-12T09:15:03Z</time>
      </trkpt>
      <trkpt lat="44.76321" lon="6.34705">
        <ele>2309.4</ele>
        <time>2024-08-12T09:15:04Z</time>
      </trkpt>
      <trkpt lat="44.76321" lon="6.34705">
        <ele>2309</ele>
        <time>2024-08-12T09:15:05Z</time>
      </trkpt>
      <trkpt lat="44.76321" lon="6.34705">
        <ele>2308.8</ele>
        <time>2024-08-12T09:15:06Z</time>
      </trkpt>
      <trkpt lat="44.76321" lon="6.34705">
        <ele>2308.6</ele>
        <time>2024-08-12T09:15:07Z</time>
      </trkpt>
      <trkpt lat="44.7632" lon="6.34703">
        <ele>2308.6</ele>
        <time>2024-08-12T09:15:08Z</time>
      </trkpt>
      <trkpt lat="44.7632" lon="6.34703">
        <ele>2308.2</ele>
        <time>2024-08-12T09:15:09Z</time>
      </trkpt>
      <trkpt lat="44.7632" lon="6.34699">
        <ele>2308</ele>
        <time>2024-08-12T09:15:10Z</time>
      </trkpt>
      <trkpt lat="44.7632" lon="6.34699">
        <ele>2308</ele>
        <time>2024-08-12T09:15:11Z</time>
      </trkpt>
      <trkpt lat="44.76321" lon="6.34697">
        <ele>2307.8</ele>
        <time>2024-08-12T09:15:12Z</time>
      </trkpt>
      <trkpt lat="44.76321" lon="6.34697">
        <ele>2307.8</ele>
        <time>2024-08-12T09:15:13Z</time>
      </trkpt>
      <trkpt lat="44.76321" lon="6.34697">
        <ele>2307.8</ele>
        <time>2024-08-12T09:15:14Z</time>
      </trkpt>
      <trkpt lat="44.76321" lon="6.34697">
        <ele>2307.8</ele>
        <time>2024-08-12T09:15:15Z</time>
      </trkpt>
      <trkpt lat="44.76322" lon="6.34695">
        <ele>2307.6</ele>
        <time>2024-08-12T09:15:16Z</time>
      </trkpt>
      <trkpt lat="44.76322" lon="6.34695">
        <ele>2306.8</ele>
        <time>2024-08-12T09:15:17Z</time>
      </trkpt>
      <trkpt lat="44.76322" lon="6.34695">
        <ele>2306.4</ele>
        <time>2024-08-12T09:15:18Z</time>
      </trkpt>
      <trkpt lat="44.76321" lon="6.34693">
        <ele>2306.2</ele>
        <time>2024-08-12T09:15:19Z</time>
      </trkpt>
      <trkpt lat="44.76321" lon="6.34693">
        <ele>2306</ele>
        <time>2024-08-12T09:15:20Z</time>
      </trkpt>
      <trkpt lat="44.76321" lon="6.34693">
        <ele>2305.8</ele>
        <time>2024-08-12T09:15:21Z</time>
      </trkpt>
      <trkpt lat="44.76321" lon="6.34693">
        <ele>2305.8</ele>
        <time>2024-08-12T09:15:22Z</time>
      </trkpt>
      <trkpt lat="44.76321" lon="6.34693">
        <ele>2305.6</ele>
        <time>2024-08-12T09:15:23Z</time>
      </trkpt>
      <trkpt lat="44.76321" lon="6.34693">
        <ele>2305.6</ele>
        <time>2024-08-12T09:15:24Z</time>
      </trkpt>
      <trkpt lat="44.76321" lon="6.34693">
        <ele>2305.2</ele>
        <time>2024-08-12T09:15:25Z</time>
      </trkpt>
      <trkpt lat="44.76321" lon="6.34693">
        <ele>2305.2</ele>
        <time>2024-08-12T09:15:26Z</time>
      </trkpt>
      <trkpt lat="44.76321" lon="6.34693">
        <ele>2304.8</ele>
        <time>2024-08-12T09:15:27Z</time>
      </trkpt>
      <trkpt lat="44.76321" lon="6.34693">
        <ele>2304.8</ele>
        <time>2024-08-12T09:15:28Z</time>
      </trkpt>
      <trkpt lat="44.76321" lon="6.34693">
        <ele>2304.4</ele>
        <time>2024-08-12T09:15:29Z</time>
      </trkpt>
      <trkpt lat="44.76321" lon="6.34693">
        <ele>2304.2</ele>
        <time>2024-08-12T09:15:30Z</time>
      </trkpt>
      <trkpt lat="44.76318" lon="6.34693">
        <ele>2304</ele>
        <time>2024-08-12T09:15:31Z</time>
      </trkpt>
      <trkpt lat="44.76318" lon="6.34693">
        <ele>2303.6</ele>
        <time>2024-08-12T09:15:32Z</time>
      </trkpt>
      <trkpt lat="44.76318" lon="6.34693">
        <ele>2303.6</ele>
        <time>2024-08-12T09:15:33Z</time>
      </trkpt>
      <trkpt lat="44.76317" lon="6.34691">
        <ele>2303.6</ele>
        <time>2024-08-12T09:15:34Z</time>
      </trkpt>
      <trkpt lat="44.76317" lon="6.34691">
        <ele>2303.6</ele>
        <time>2024-08-12T09:15:35Z</time>
      </trkpt>
      <trkpt lat="44.76317" lon="6.34691">
        <ele>2303.6</ele>
        <time>2024-08-12T09:15:36Z</time>
      </trkpt>
      <trkpt lat="44.76317" lon="6.34691">
        <ele>2304</ele>
        <time>2024-08-12T09:15:37Z</time>
      </trkpt>
      <trkpt lat="44.76317" lon="6.34691">
        <ele>2304</ele>
        <time>2024-08-12T09:15:38Z</time>
      </trkpt>
      <trkpt lat="44.76317" lon="6.34688">
        <ele>2303.8</ele>
        <time>2024-08-12T09:15:39Z</time>
      </trkpt>
      <trkpt lat="44.76317" lon="6.34688">
        <ele>2303.6</ele>
        <time>2024-08-12T09:15:40Z</time>
      </trkpt>
      <trkpt lat="44.76317" lon="6.34688">
        <ele>2303.6</ele>
        <time>2024-08-12T09:15:41Z</time>
      </trkpt>
      <trkpt lat="44.76317" lon="6.34688">
        <ele>2303.4</ele>
        <time>2024-08-12T09:15:42Z</time>
      </trkpt>
      <trkpt lat="44.76317" lon="6.34688">
        <ele>2303.2</ele>
        <time>2024-08-12T09:15:43Z</time>
      </trkpt>
      <trkpt lat="44.76317" lon="6.34688">
        <ele>2303.2</ele>
        <time>2024-08-12T09:15:44Z</time>
      </trkpt>
      <trkpt lat="44.76317" lon="6.34688">
        <ele>2302.8</ele>
        <time>2024-08-12T09:15:45Z</time>
      </trkpt>
      <trkpt lat="44.76317" lon="6.34688">
        <ele>2302.8</ele>
        <time>2024-08-12T09:15:46Z</time>
      </trkpt>
      <trkpt lat="44.76317" lon="6.34688">
        <ele>2302.6</ele>
        <time>2024-08-12T09:15:47Z</time>
      </trkpt>
      <trkpt lat="44.76317" lon="6.34688">
        <ele>2302.2</ele>
        <time>2024-08-12T09:15:48Z</time>
      </trkpt>
      <trkpt lat="44.76317" lon="6.34688">
        <ele>2302.2</ele>
        <time>2024-08-12T09:15:49Z</time>
      </trkpt>
      <trkpt lat="44.76317" lon="6.34688">
        <ele>2302</ele>
        <time>2024-08-12T09:15:50Z</time>
      </trkpt>
      <trkpt lat="44.76317" lon="6.34688">
        <ele>2301.8</ele>
        <time>2024-08-12T09:15:51Z</time>
      </trkpt>
      <trkpt lat="44.76317" lon="6.34688">
        <ele>2301.6</ele>
        <time>2024-08-12T09:15:52Z</time>
      </trkpt>
      <trkpt lat="44.76317" lon="6.34688">
        <ele>2301.4</ele>
        <time>2024-08-12T09:15:53Z</time>
      </trkpt>
      <trkpt lat="44.76317" lon="6.34688">
        <ele>2300.8</ele>
        <time>2024-08-12T09:15:54Z</time>
      </trkpt>
      <trkpt lat="44.76317" lon="6.34688">
        <ele>2300.8</ele>
        <time>2024-08-12T09:15:55Z</time>
      </trkpt>
      <trkpt lat="44.76314" lon="6.34687">
        <ele>2300.6</ele>
        <time>2024-08-12T09:15:56Z</time>
      </trkpt>
      <trkpt lat="44.76314" lon="6.34687">
        <ele>2300.4</ele>
        <time>2024-08-12T09:15:57Z</time>
      </trkpt>
      <trkpt lat="44.76312" lon="6.34688">
        <ele>2300.2</ele>
        <time>2024-08-12T09:15:58Z</time>
      </trkpt>
      <trkpt lat="44.76312" lon="6.34688">
        <ele>2299.8</ele>
        <time>2024-08-12T09:15:59Z</time>
      </trkpt>
      <trkpt lat="44.76312" lon="6.34688">
        <ele>2299.8</ele>
        <time>2024-08-12T09:16:00Z</time>
      </trkpt>
      <trkpt lat="44.7631" lon="6.34689">
        <ele>2299.2</ele>
        <time>2024-08-12T09:16:01Z</time>
      </trkpt>
      <trkpt lat="44.7631" lon="6.34689">
        <ele>2298.6</ele>
        <time>2024-08-12T09:16:02Z</time>
      </trkpt>
      <trkpt lat="44.7631" lon="6.34689">
        <ele>2298.6</ele>
        <time>2024-08-12T09:16:03Z</time>
      </trkpt>
      <trkpt lat="44.76309" lon="6.34692">
        <ele>2298.4</ele>
        <time>2024-08-12T09:16:04Z</time>
      </trkpt>
      <trkpt lat="44.76309" lon="6.34692">
        <ele>2298.2</ele>
        <time>2024-08-12T09:16:05Z</time>
      </trkpt>
      <trkpt lat="44.76309" lon="6.34692">
        <ele>2298.2</ele>
        <time>2024-08-12T09:16:06Z</time>
      </trkpt>
      <trkpt lat="44.76309" lon="6.34692">
        <ele>2298.2</ele>
        <time>2024-08-12T09:16:07Z</time>
      </trkpt>
      <trkpt lat="44.76309" lon="6.34694">
        <ele>2297.8</ele>
        <time>2024-08-12T09:16:08Z</time>
      </trkpt>
      <trkpt lat="44.76309" lon="6.34694">
        <ele>2297.6</ele>
        <time>2024-08-12T09:16:09Z</time>
      </trkpt>
      <trkpt lat="44.76309" lon="6.34694">
        <ele>2297.4</ele>
        <time>2024-08-12T09:16:10Z</time>
      </trkpt>
      <trkpt lat="44.76307" lon="6.34697">
        <ele>2297.2</ele>
        <time>2024-08-12T09:16:11Z</time>
      </trkpt>
      <trkpt lat="44.76307" lon="6.34697">
        <ele>2297</ele>
        <time>2024-08-12T09:16:12Z</time>
      </trkpt>
      <trkpt lat="44.76307" lon="6.34697">
        <ele>2296.8</ele>
        <time>2024-08-12T09:16:13Z</time>
      </trkpt>
      <trkpt lat="44.76306" lon="6.347">
        <ele>2296.2</ele>
        <time>2024-08-12T09:16:14Z</time>
      </trkpt>
      <trkpt lat="44.76306" lon="6.347">
        <ele>2295.8</ele>
        <time>2024-08-12T09:16:15Z</time>
      </trkpt>
      <trkpt lat="44.76306" lon="6.347">
        <ele>2295.2</ele>
        <time>2024-08-12T09:16:16Z</time>
      </trkpt>
      <trkpt lat="44.76305" lon="6.34702">
        <ele>2294.8</ele>
        <time>2024-08-12T09:16:17Z</time>
      </trkpt>
      <trkpt lat="44.76305" lon="6.34702">
        <ele>2294.4</ele>
        <time>2024-08-12T09:16:18Z</time>
      </trkpt>
      <trkpt lat="44.76305" lon="6.34702">
        <ele>2294.2</ele>
        <time>2024-08-12T09:16:19Z</time>
      </trkpt>
      <trkpt lat="44.76303" lon="6.34704">
        <ele>2294</ele>
        <time>2024-08-12T09:16:20Z</time>
      </trkpt>
      <trkpt lat="44.76303" lon="6.34704">
        <ele>2293.6</ele>
        <time>2024-08-12T09:16:21Z</time>
      </trkpt>
      <trkpt lat="44.76302" lon="6.34706">
        <ele>2293.2</ele>
        <time>2024-08-12T09:16:22Z</time>
      </trkpt>
      <trkpt lat="44.76302" lon="6.34706">
        <ele>2292.6</ele>
        <time>2024-08-12T09:16:23Z</time>
      </trkpt>
      <trkpt lat="44.76301" lon="6.34708">
        <ele>2292.4</ele>
        <time>2024-08-12T09:16:24Z</time>
      </trkpt>
      <trkpt lat="44.76301" lon="6.34708">
        <ele>2292</ele>
        <time>2024-08-12T09:16:25Z</time>
      </trkpt>
      <trkpt lat="44.76301" lon="6.34708">
        <ele>2291.8</ele>
        <time>2024-08-12T09:16:26Z</time>
      </trkpt>
      <trkpt lat="44.763" lon="6.34711">
        <ele>2291.4</ele>
        <time>2024-08-12T09:16:27Z</time>
      </trkpt>
      <trkpt lat="44.763" lon="6.34711">
        <ele>2291</ele>
        <time>2024-08-12T09:16:28Z</time>
      </trkpt>
      <trkpt lat="44.763" lon="6.34711">
        <ele>2290.8</ele>
        <time>2024-08-12T09:16:29Z</time>
      </trkpt>
      <trkpt lat="44.763" lon="6.34711">
        <ele>2290.6</ele>
        <time>2024-08-12T09:16:30Z</time>
      </trkpt>
      <trkpt lat="44.763" lon="6.34711">
        <ele>2290.4</ele>
        <time>2024-08-12T09:16:31Z</time>
      </trkpt>
      <trkpt lat="44.763" lon="6.34711">
        <ele>2290.2</ele>
        <time>2024-08-12T09:16:32Z</time>
      </trkpt>
      <trkpt lat="44.763" lon="6.34711">
        <ele>2290.2</ele>
        <time>2024-08-12T09:16:33Z</time>
      </trkpt>
      <trkpt lat="44.763" lon="6.34711">
        <ele>2290.4</ele>
        <time>2024-08-12T09:16:34Z</time>
      </trkpt>
      <trkpt lat="44.763" lon="6.34711">
        <ele>2290.2</ele>
        <time>2024-08-12T09:16:35Z</time>
      </trkpt>
      <trkpt lat="44.763" lon="6.34711">
        <ele>2290.2</ele>
        <time>2024-08-12T09:16:36Z</time>
      </trkpt>
      <trkpt lat="44.763" lon="6.34711">
        <ele>2290</ele>
        <time>2024-08-12T09:16:37Z</time>
      </trkpt>
      <trkpt lat="44.763" lon="6.34711">
        <ele>2289.8</ele>
        <time>2024-08-12T09:16:38Z</time>
      </trkpt>
      <trkpt lat="44.763" lon="6.34711">
        <ele>2289.8</ele>
        <time>2024-08-12T09:16:39Z</time>
      </trkpt>
      <trkpt lat="44.763" lon="6.34711">
        <ele>2289.4</ele>
        <time>2024-08-12T09:16:40Z</time>
      </trkpt>
      <trkpt lat="44.763" lon="6.34711">
        <ele>2289</ele>
        <time>2024-08-12T09:16:41Z</time>
      </trkpt>
      <trkpt lat="44.763" lon="6.34711">
        <ele>2289</ele>
        <time>2024-08-12T09:16:42Z</time>
      </trkpt>
      <trkpt lat="44.763" lon="6.34711">
        <ele>2289.2</ele>
        <time>2024-08-12T09:16:43Z</time>
      </trkpt>
      <trkpt lat="44.763" lon="6.34711">
        <ele>2289.4</ele>
        <time>2024-08-12T09:16:44Z</time>
      </trkpt>
      <trkpt lat="44.763" lon="6.34711">
        <ele>2289.4</ele>
        <time>2024-08-12T09:16:45Z</time>
      </trkpt>
      <trkpt lat="44.763" lon="6.34711">
        <ele>2289.4</ele>
        <time>2024-08-12T09:16:46Z</time>
      </trkpt>
      <trkpt lat="44.763" lon="6.34711">
        <ele>2289.4</ele>
        <time>2024-08-12T09:16:47Z</time>
      </trkpt>
      <trkpt lat="44.763" lon="6.34711">
        <ele>2289.4</ele>
        <time>2024-08-12T09:16:48Z</time>
      </trkpt>
      <trkpt lat="44.763" lon="6.34711">
        <ele>2289.6</ele>
        <time>2024-08-12T09:16:49Z</time>
      </trkpt>
      <trkpt lat="44.763" lon="6.34711">
        <ele>2289.6</ele>
        <time>2024-08-12T09:16:50Z</time>
      </trkpt>
      <trkpt lat="44.763" lon="6.34711">
        <ele>2289.6</ele>
        <time>2024-08-12T09:16:51Z</time>
      </trkpt>
      <trkpt lat="44.763" lon="6.34711">
        <ele>2289.6</ele>
        <time>2024-08-12T09:16:52Z</time>
      </trkpt>
      <trkpt lat="44.763" lon="6.34711">
        <ele>2289.6</ele>
        <time>2024-08-12T09:16:53Z</time>
      </trkpt>
      <trkpt lat="44.763" lon="6.34711">
        <ele>2289.8</ele>
        <time>2024-08-12T09:16:54Z</time>
      </trkpt>
      <trkpt lat="44.763" lon="6.34711">
        <ele>2289.8</ele>
        <time>2024-08-12T09:16:55Z</time>
      </trkpt>
      <trkpt lat="44.763" lon="6.34711">
        <ele>2289.4</ele>
        <time>2024-08-12T09:16:56Z</time>
      </trkpt>
      <trkpt lat="44.763" lon="6.34711">
        <ele>2289.4</ele>
        <time>2024-08-12T09:16:57Z</time>
      </trkpt>
      <trkpt lat="44.763" lon="6.34711">
        <ele>2289.4</ele>
        <time>2024-08-12T09:16:58Z</time>
      </trkpt>
      <trkpt lat="44.763" lon="6.34711">
        <ele>2289.4</ele>
        <time>2024-08-12T09:16:59Z</time>
      </trkpt>
      <trkpt lat="44.763" lon="6.34711">
        <ele>2289.6</ele>
        <time>2024-08-12T09:17:00Z</time>
      </trkpt>
      <trkpt lat="44.763" lon="6.34711">
        <ele>2289.6</ele>
        <time>2024-08-12T09:17:01Z</time>
      </trkpt>
      <trkpt lat="44.763" lon="6.34711">
        <ele>2289.6</ele>
        <time>2024-08-12T09:17:02Z</time>
      </trkpt>
      <trkpt lat="44.763" lon="6.34711">
        <ele>2289.6</ele>
        <time>2024-08-12T09:17:03Z</time>
      </trkpt>
      <trkpt lat="44.763" lon="6.34711">
        <ele>2289.6</ele>
        <time>2024-08-12T09:17:04Z</time>
      </trkpt>
      <trkpt lat="44.763" lon="6.34711">
        <ele>2289.6</ele>
        <time>2024-08-12T09:17:05Z</time>
      </trkpt>
      <trkpt lat="44.763" lon="6.34711">
        <ele>2289.4</ele>
        <time>2024-08-12T09:17:06Z</time>
      </trkpt>
      <trkpt lat="44.763" lon="6.34711">
        <ele>2289.4</ele>
        <time>2024-08-12T09:17:07Z</time>
      </trkpt>
      <trkpt lat="44.763" lon="6.34711">
        <ele>2289.4</ele>
        <time>2024-08-12T09:17:08Z</time>
      </trkpt>
      <trkpt lat="44.763" lon="6.34711">
        <ele>2289.4</ele>
        <time>2024-08-12T09:17:09Z</time>
      </trkpt>
      <trkpt lat="44.763" lon="6.34711">
        <ele>2289.4</ele>
        <time>2024-08-12T09:17:10Z</time>
      </trkpt>
      <trkpt lat="44.763" lon="6.34711">
        <ele>2289.4</ele>
        <time>2024-08-12T09:17:11Z</time>
      </trkpt>
      <trkpt lat="44.763" lon="6.34711">
        <ele>2289.4</ele>
        <time>2024-08-12T09:17:12Z</time>
      </trkpt>
      <trkpt lat="44.763" lon="6.34711">
        <ele>2289.6</ele>
        <time>2024-08-12T09:17:13Z</time>
      </trkpt>
      <trkpt lat="44.763" lon="6.34711">
        <ele>2289.6</ele>
        <time>2024-08-12T09:17:14Z</time>
      </trkpt>
      <trkpt lat="44.763" lon="6.34711">
        <ele>2289.4</ele>
        <time>2024-08-12T09:17:15Z</time>
      </trkpt>
      <trkpt lat="44.763" lon="6.34711">
        <ele>2289.4</ele>
        <time>2024-08-12T09:17:16Z</time>
      </trkpt>
      <trkpt lat="44.763" lon="6.34711">
        <ele>2289.4</ele>
        <time>2024-08-12T09:17:17Z</time>
      </trkpt>
      <trkpt lat="44.763" lon="6.34711">
        <ele>2289.2</ele>
        <time>2024-08-12T09:17:18Z</time>
      </trkpt>
      <trkpt lat="44.763" lon="6.34711">
        <ele>2289</ele>
        <time>2024-08-12T09:17:19Z</time>
      </trkpt>
      <trkpt lat="44.763" lon="6.34711">
        <ele>2289</ele>
        <time>2024-08-12T09:17:20Z</time>
      </trkpt>
      <trkpt lat="44.763" lon="6.34711">
        <ele>2289</ele>
        <time>2024-08-12T09:17:21Z</time>
      </trkpt>
      <trkpt lat="44.763" lon="6.34711">
        <ele>2289</ele>
        <time>2024-08-12T09:17:22Z</time>
      </trkpt>
      <trkpt lat="44.763" lon="6.34711">
        <ele>2288.4</ele>
        <time>2024-08-12T09:17:23Z</time>
      </trkpt>
      <trkpt lat="44.763" lon="6.34711">
        <ele>2288.4</ele>
        <time>2024-08-12T09:17:24Z</time>
      </trkpt>
      <trkpt lat="44.763" lon="6.34711">
        <ele>2288.4</ele>
        <time>2024-08-12T09:17:25Z</time>
      </trkpt>
      <trkpt lat="44.763" lon="6.34711">
        <ele>2288.4</ele>
        <time>2024-08-12T09:17:26Z</time>
      </trkpt>
      <trkpt lat="44.763" lon="6.34711">
        <ele>2288.4</ele>
        <time>2024-08-12T09:17:27Z</time>
      </trkpt>
      <trkpt lat="44.763" lon="6.34711">
        <ele>2288.4</ele>
        <time>2024-08-12T09:17:28Z</time>
      </trkpt>
      <trkpt lat="44.763" lon="6.34711">
        <ele>2288.4</ele>
        <time>2024-08-12T09:17:29Z</time>
      </trkpt>
      <trkpt lat="44.763" lon="6.34711">
        <ele>2288.4</ele>
        <time>2024-08-12T09:17:30Z</time>
      </trkpt>
      <trkpt lat="44.763" lon="6.34711">
        <ele>2288.4</ele>
        <time>2024-08-12T09:17:31Z</time>
      </trkpt>
      <trkpt lat="44.763" lon="6.34711">
        <ele>2288.4</ele>
        <time>2024-08-12T09:17:32Z</time>
      </trkpt>
      <trkpt lat="44.763" lon="6.34711">
        <ele>2288.4</ele>
        <time>2024-08-12T09:17:33Z</time>
      </trkpt>
      <trkpt lat="44.763" lon="6.34711">
        <ele>2288.4</ele>
        <time>2024-08-12T09:17:34Z</time>
      </trkpt>
      <trkpt lat="44.763" lon="6.34711">
        <ele>2288.4</ele>
        <time>2024-08-12T09:17:35Z</time>
      </trkpt>
      <trkpt lat="44.763" lon="6.34711">
        <ele>2288.6</ele>
        <time>2024-08-12T09:17:36Z</time>
      </trkpt>
      <trkpt lat="44.763" lon="6.34711">
        <ele>2288.6</ele>
        <time>2024-08-12T09:17:37Z</time>
      </trkpt>
      <trkpt lat="44.763" lon="6.34711">
        <ele>2288.6</ele>
        <time>2024-08-12T09:17:38Z</time>
      </trkpt>
      <trkpt lat="44.763" lon="6.34711">
        <ele>2288.8</ele>
        <time>2024-08-12T09:17:39Z</time>
      </trkpt>
      <trkpt lat="44.763" lon="6.34711">
        <ele>2288.8</ele>
        <time>2024-08-12T09:17:40Z</time>
      </trkpt>
      <trkpt lat="44.763" lon="6.34711">
        <ele>2288.8</ele>
        <time>2024-08-12T09:17:41Z</time>
      </trkpt>
      <trkpt lat="44.763" lon="6.34711">
        <ele>2288.8</ele>
        <time>2024-08-12T09:17:42Z</time>
      </trkpt>
      <trkpt lat="44.763" lon="6.34711">
        <ele>2288.8</ele>
        <time>2024-08-12T09:17:43Z</time>
      </trkpt>
      <trkpt lat="44.763" lon="6.34711">
        <ele>2288.6</ele>
        <time>2024-08-12T09:17:44Z</time>
      </trkpt>
      <trkpt lat="44.763" lon="6.34711">
        <ele>2288.4</ele>
        <time>2024-08-12T09:17:45Z</time>
      </trkpt>
      <trkpt lat="44.763" lon="6.34711">
        <ele>2288.4</ele>
        <time>2024-08-12T09:17:46Z</time>
      </trkpt>
      <trkpt lat="44.763" lon="6.34711">
        <ele>2287.8</ele>
        <time>2024-08-12T09:17:47Z</time>
      </trkpt>
      <trkpt lat="44.763" lon="6.34711">
        <ele>2287.6</ele>
        <time>2024-08-12T09:17:48Z</time>
      </trkpt>
      <trkpt lat="44.763" lon="6.34711">
        <ele>2287</ele>
        <time>2024-08-12T09:17:49Z</time>
      </trkpt>
      <trkpt lat="44.763" lon="6.34711">
        <ele>2286.4</ele>
        <time>2024-08-12T09:17:50Z</time>
      </trkpt>
      <trkpt lat="44.763" lon="6.34711">
        <ele>2286.4</ele>
        <time>2024-08-12T09:17:51Z</time>
      </trkpt>
      <trkpt lat="44.763" lon="6.34711">
        <ele>2286.4</ele>
        <time>2024-08-12T09:17:52Z</time>
      </trkpt>
      <trkpt lat="44.763" lon="6.34711">
        <ele>2286</ele>
        <time>2024-08-12T09:17:53Z</time>
      </trkpt>
      <trkpt lat="44.76297" lon="6.34712">
        <ele>2285.6</ele>
        <time>2024-08-12T09:17:54Z</time>
      </trkpt>
      <trkpt lat="44.76297" lon="6.34712">
        <ele>2285.4</ele>
        <time>2024-08-12T09:17:55Z</time>
      </trkpt>
      <trkpt lat="44.76295" lon="6.34713">
        <ele>2285.4</ele>
        <time>2024-08-12T09:17:56Z</time>
      </trkpt>
      <trkpt lat="44.76295" lon="6.34713">
        <ele>2285.4</ele>
        <time>2024-08-12T09:17:57Z</time>
      </trkpt>
      <trkpt lat="44.76293" lon="6.34712">
        <ele>2285</ele>
        <time>2024-08-12T09:17:58Z</time>
      </trkpt>
      <trkpt lat="44.76293" lon="6.34712">
        <ele>2284.8</ele>
        <time>2024-08-12T09:17:59Z</time>
      </trkpt>
      <trkpt lat="44.76292" lon="6.34709">
        <ele>2284.8</ele>
        <time>2024-08-12T09:18:00Z</time>
      </trkpt>
      <trkpt lat="44.76292" lon="6.34709">
        <ele>2284.8</ele>
        <time>2024-08-12T09:18:01Z</time>
      </trkpt>
      <trkpt lat="44.76291" lon="6.34706">
        <ele>2284</ele>
        <time>2024-08-12T09:18:02Z</time>
      </trkpt>
      <trkpt lat="44.76291" lon="6.34706">
        <ele>2284</ele>
        <time>2024-08-12T09:18:03Z</time>
      </trkpt>
      <trkpt lat="44.76291" lon="6.34704">
        <ele>2283.6</ele>
        <time>2024-08-12T09:18:04Z</time>
      </trkpt>
      <trkpt lat="44.76291" lon="6.34704">
        <ele>2283.4</ele>
        <time>2024-08-12T09:18:05Z</time>
      </trkpt>
      <trkpt lat="44.76291" lon="6.34704">
        <ele>2283</ele>
        <time>2024-08-12T09:18:06Z</time>
      </trkpt>
      <trkpt lat="44.76291" lon="6.34704">
        <ele>2282.8</ele>
        <time>2024-08-12T09:18:07Z</time>
      </trkpt>
      <trkpt lat="44.76291" lon="6.34704">
        <ele>2282.6</ele>
        <time>2024-08-12T09:18:08Z</time>
      </trkpt>
      <trkpt lat="44.76289" lon="6.34706">
        <ele>2282</ele>
        <time>2024-08-12T09:18:09Z</time>
      </trkpt>
      <trkpt lat="44.76289" lon="6.34706">
        <ele>2281.8</ele>
        <time>2024-08-12T09:18:10Z</time>
      </trkpt>
      <trkpt lat="44.76289" lon="6.34706">
        <ele>2281.8</ele>
        <time>2024-08-12T09:18:11Z</time>
      </trkpt>
      <trkpt lat="44.76289" lon="6.34706">
        <ele>2281.6</ele>
        <time>2024-08-12T09:18:12Z</time>
      </trkpt>
      <trkpt lat="44.76289" lon="6.34709">
        <ele>2281.2</ele>
        <time>2024-08-12T09:18:13Z</time>
      </trkpt>
      <trkpt lat="44.76289" lon="6.34709">
        <ele>2281</ele>
        <time>2024-08-12T09:18:14Z</time>
      </trkpt>
      <trkpt lat="44.76289" lon="6.34709">
        <ele>2281</ele>
        <time>2024-08-12T09:18:15Z</time>
      </trkpt>
      <trkpt lat="44.76289" lon="6.34709">
        <ele>2281</ele>
        <time>2024-08-12T09:18:16Z</time>
      </trkpt>
      <trkpt lat="44.76289" lon="6.34709">
        <ele>2281</ele>
        <time>2024-08-12T09:18:17Z</time>
      </trkpt>
      <trkpt lat="44.76289" lon="6.34709">
        <ele>2281</ele>
        <time>2024-08-12T09:18:18Z</time>
      </trkpt>
      <trkpt lat="44.76289" lon="6.34709">
        <ele>2280.8</ele>
        <time>2024-08-12T09:18:19Z</time>
      </trkpt>
      <trkpt lat="44.76288" lon="6.34713">
        <ele>2280.8</ele>
        <time>2024-08-12T09:18:20Z</time>
      </trkpt>
      <trkpt lat="44.76288" lon="6.34713">
        <ele>2280.8</ele>
        <time>2024-08-12T09:18:21Z</time>
      </trkpt>
      <trkpt lat="44.76288" lon="6.34713">
        <ele>2280.8</ele>
        <time>2024-08-12T09:18:22Z</time>
      </trkpt>
      <trkpt lat="44.76286" lon="6.34716">
        <ele>2280.4</ele>
        <time>2024-08-12T09:18:23Z</time>
      </trkpt>
      <trkpt lat="44.76286" lon="6.34716">
        <ele>2279.8</ele>
        <time>2024-08-12T09:18:24Z</time>
      </trkpt>
      <trkpt lat="44.76285" lon="6.34716">
        <ele>2279.6</ele>
        <time>2024-08-12T09:18:25Z</time>
      </trkpt>
      <trkpt lat="44.76285" lon="6.34716">
        <ele>2279.2</ele>
        <time>2024-08-12T09:18:26Z</time>
      </trkpt>
      <trkpt lat="44.76285" lon="6.34716">
        <ele>2279</ele>
        <time>2024-08-12T09:18:27Z</time>
      </trkpt>
      <trkpt lat="44.76282" lon="6.34716">
        <ele>2278.8</ele>
        <time>2024-08-12T09:18:28Z</time>
      </trkpt>
      <trkpt lat="44.76282" lon="6.34716">
        <ele>2278.8</ele>
        <time>2024-08-12T09:18:29Z</time>
      </trkpt>
      <trkpt lat="44.76282" lon="6.34716">
        <ele>2278.8</ele>
        <time>2024-08-12T09:18:30Z</time>
      </trkpt>
      <trkpt lat="44.7628" lon="6.34714">
        <ele>2278.8</ele>
        <time>2024-08-12T09:18:31Z</time>
      </trkpt>
      <trkpt lat="44.7628" lon="6.34714">
        <ele>2278.8</ele>
        <time>2024-08-12T09:18:32Z</time>
      </trkpt>
      <trkpt lat="44.7628" lon="6.34714">
        <ele>2279</ele>
        <time>2024-08-12T09:18:33Z</time>
      </trkpt>
      <trkpt lat="44.76277" lon="6.34715">
        <ele>2279</ele>
        <time>2024-08-12T09:18:34Z</time>
      </trkpt>
      <trkpt lat="44.76277" lon="6.34715">
        <ele>2279</ele>
        <time>2024-08-12T09:18:35Z</time>
      </trkpt>
      <trkpt lat="44.76276" lon="6.34714">
        <ele>2278.8</ele>
        <time>2024-08-12T09:18:36Z</time>
      </trkpt>
      <trkpt lat="44.76276" lon="6.34714">
        <ele>2278.8</ele>
        <time>2024-08-12T09:18:37Z</time>
      </trkpt>
      <trkpt lat="44.76274" lon="6.34713">
        <ele>2278.6</ele>
        <time>2024-08-12T09:18:38Z</time>
      </trkpt>
      <trkpt lat="44.76274" lon="6.34713">
        <ele>2278.4</ele>
        <time>2024-08-12T09:18:39Z</time>
      </trkpt>
      <trkpt lat="44.76271" lon="6.34713">
        <ele>2278.4</ele>
        <time>2024-08-12T09:18:40Z</time>
      </trkpt>
      <trkpt lat="44.76271" lon="6.34713">
        <ele>2278.4</ele>
        <time>2024-08-12T09:18:41Z</time>
      </trkpt>
      <trkpt lat="44.76269" lon="6.34712">
        <ele>2278.4</ele>
        <time>2024-08-12T09:18:42Z</time>
      </trkpt>
      <trkpt lat="44.76269" lon="6.34712">
        <ele>2278.6</ele>
        <time>2024-08-12T09:18:43Z</time>
      </trkpt>
      <trkpt lat="44.76267" lon="6.3471">
        <ele>2278.6</ele>
        <time>2024-08-12T09:18:44Z</time>
      </trkpt>
      <trkpt lat="44.76267" lon="6.3471">
        <ele>2278.6</ele>
        <time>2024-08-12T09:18:45Z</time>
      </trkpt>
      <trkpt lat="44.76265" lon="6.34709">
        <ele>2278.4</ele>
        <time>2024-08-12T09:18:46Z</time>
      </trkpt>
      <trkpt lat="44.76265" lon="6.34709">
        <ele>2278.4</ele>
        <time>2024-08-12T09:18:47Z</time>
      </trkpt>
      <trkpt lat="44.76263" lon="6.34708">
        <ele>2278.2</ele>
        <time>2024-08-12T09:18:48Z</time>
      </trkpt>
      <trkpt lat="44.76263" lon="6.34708">
        <ele>2278.2</ele>
        <time>2024-08-12T09:18:49Z</time>
      </trkpt>
      <trkpt lat="44.76261" lon="6.34707">
        <ele>2277.8</ele>
        <time>2024-08-12T09:18:50Z</time>
      </trkpt>
      <trkpt lat="44.76261" lon="6.34707">
        <ele>2277.8</ele>
        <time>2024-08-12T09:18:51Z</time>
      </trkpt>
      <trkpt lat="44.76259" lon="6.34707">
        <ele>2277.8</ele>
        <time>2024-08-12T09:18:52Z</time>
      </trkpt>
      <trkpt lat="44.76259" lon="6.34707">
        <ele>2277.4</ele>
        <time>2024-08-12T09:18:53Z</time>
      </trkpt>
      <trkpt lat="44.76259" lon="6.34707">
        <ele>2277.4</ele>
        <time>2024-08-12T09:18:54Z</time>
      </trkpt>
      <trkpt lat="44.76256" lon="6.34707">
        <ele>2277.2</ele>
        <time>2024-08-12T09:18:55Z</time>
      </trkpt>
      <trkpt lat="44.76256" lon="6.34707">
        <ele>2276.8</ele>
        <time>2024-08-12T09:18:56Z</time>
      </trkpt>
      <trkpt lat="44.76256" lon="6.34707">
        <ele>2276.6</ele>
        <time>2024-08-12T09:18:57Z</time>
      </trkpt>
      <trkpt lat="44.76254" lon="6.34707">
        <ele>2276.4</ele>
        <time>2024-08-12T09:18:58Z</time>
      </trkpt>
      <trkpt lat="44.76254" lon="6.34707">
        <ele>2276.4</ele>
        <time>2024-08-12T09:18:59Z</time>
      </trkpt>
      <trkpt lat="44.76252" lon="6.34708">
        <ele>2276.2</ele>
        <time>2024-08-12T09:19:00Z</time>
      </trkpt>
      <trkpt lat="44.76252" lon="6.34708">
        <ele>2276</ele>
        <time>2024-08-12T09:19:01Z</time>
      </trkpt>
      <trkpt lat="44.76252" lon="6.34708">
        <ele>2275.2</ele>
        <time>2024-08-12T09:19:02Z</time>
      </trkpt>
      <trkpt lat="44.76249" lon="6.34708">
        <ele>2275.2</ele>
        <time>2024-08-12T09:19:03Z</time>
      </trkpt>
      <trkpt lat="44.76249" lon="6.34708">
        <ele>2274.6</ele>
        <time>2024-08-12T09:19:04Z</time>
      </trkpt>
      <trkpt lat="44.76247" lon="6.34708">
        <ele>2274.2</ele>
        <time>2024-08-12T09:19:05Z</time>
      </trkpt>
      <trkpt lat="44.76247" lon="6.34708">
        <ele>2274</ele>
        <time>2024-08-12T09:19:06Z</time>
      </trkpt>
      <trkpt lat="44.76245" lon="6.34709">
        <ele>2273.6</ele>
        <time>2024-08-12T09:19:07Z</time>
      </trkpt>
      <trkpt lat="44.76245" lon="6.34709">
        <ele>2273.6</ele>
        <time>2024-08-12T09:19:08Z</time>
      </trkpt>
      <trkpt lat="44.76244" lon="6.3471">
        <ele>2273.6</ele>
        <time>2024-08-12T09:19:09Z</time>
      </trkpt>
      <trkpt lat="44.76244" lon="6.3471">
        <ele>2273.6</ele>
        <time>2024-08-12T09:19:10Z</time>
      </trkpt>
      <trkpt lat="44.76242" lon="6.34712">
        <ele>2273.4</ele>
        <time>2024-08-12T09:19:11Z</time>
      </trkpt>
      <trkpt lat="44.76242" lon="6.34712">
        <ele>2273</ele>
        <time>2024-08-12T09:19:12Z</time>
      </trkpt>
      <trkpt lat="44.76242" lon="6.34712">
        <ele>2273</ele>
        <time>2024-08-12T09:19:13Z</time>
      </trkpt>
      <trkpt lat="44.7624" lon="6.34714">
        <ele>2272.8</ele>
        <time>2024-08-12T09:19:14Z</time>
      </trkpt>
      <trkpt lat="44.7624" lon="6.34714">
        <ele>2272.4</ele>
        <time>2024-08-12T09:19:15Z</time>
      </trkpt>
      <trkpt lat="44.7624" lon="6.34714">
        <ele>2272</ele>
        <time>2024-08-12T09:19:16Z</time>
      </trkpt>
      <trkpt lat="44.7624" lon="6.34714">
        <ele>2271.6</ele>
        <time>2024-08-12T09:19:17Z</time>
      </trkpt>
      <trkpt lat="44.76238" lon="6.34715">
        <ele>2271.6</ele>
        <time>2024-08-12T09:19:18Z</time>
      </trkpt>
      <trkpt lat="44.76238" lon="6.34715">
        <ele>2271.6</ele>
        <time>2024-08-12T09:19:19Z</time>
      </trkpt>
      <trkpt lat="44.76238" lon="6.34715">
        <ele>2271.4</ele>
        <time>2024-08-12T09:19:20Z</time>
      </trkpt>
      <trkpt lat="44.76238" lon="6.34715">
        <ele>2271.4</ele>
        <time>2024-08-12T09:19:21Z</time>
      </trkpt>
      <trkpt lat="44.76238" lon="6.34715">
        <ele>2271.6</ele>
        <time>2024-08-12T09:19:22Z</time>
      </trkpt>
      <trkpt lat="44.76238" lon="6.34715">
        <ele>2271.6</ele>
        <time>2024-08-12T09:19:23Z</time>
      </trkpt>
      <trkpt lat="44.76236" lon="6.34716">
        <ele>2271.6</ele>
        <time>2024-08-12T09:19:24Z</time>
      </trkpt>
      <trkpt lat="44.76236" lon="6.34716">
        <ele>2271.2</ele>
        <time>2024-08-12T09:19:25Z</time>
      </trkpt>
      <trkpt lat="44.76236" lon="6.34716">
        <ele>2270.8</ele>
        <time>2024-08-12T09:19:26Z</time>
      </trkpt>
      <trkpt lat="44.76234" lon="6.34716">
        <ele>2270.8</ele>
        <time>2024-08-12T09:19:27Z</time>
      </trkpt>
      <trkpt lat="44.76234" lon="6.34716">
        <ele>2270.8</ele>
        <time>2024-08-12T09:19:28Z</time>
      </trkpt>
      <trkpt lat="44.76234" lon="6.34716">
        <ele>2270.8</ele>
        <time>2024-08-12T09:19:29Z</time>
      </trkpt>
      <trkpt lat="44.76232" lon="6.34714">
        <ele>2270.8</ele>
        <time>2024-08-12T09:19:30Z</time>
      </trkpt>
      <trkpt lat="44.76232" lon="6.34714">
        <ele>2270.8</ele>
        <time>2024-08-12T09:19:31Z</time>
      </trkpt>
      <trkpt lat="44.76232" lon="6.34714">
        <ele>2270.8</ele>
        <time>2024-08-12T09:19:32Z</time>
      </trkpt>
      <trkpt lat="44.7623" lon="6.34712">
        <ele>2270.8</ele>
        <time>2024-08-12T09:19:33Z</time>
      </trkpt>
      <trkpt lat="44.7623" lon="6.34712">
        <ele>2270.8</ele>
        <time>2024-08-12T09:19:34Z</time>
      </trkpt>
      <trkpt lat="44.76229" lon="6.3471">
        <ele>2270.8</ele>
        <time>2024-08-12T09:19:35Z</time>
      </trkpt>
      <trkpt lat="44.76229" lon="6.3471">
        <ele>2270.8</ele>
        <time>2024-08-12T09:19:36Z</time>
      </trkpt>
      <trkpt lat="44.76229" lon="6.3471">
        <ele>2270.8</ele>
        <time>2024-08-12T09:19:37Z</time>
      </trkpt>
      <trkpt lat="44.76226" lon="6.34708">
        <ele>2270.8</ele>
        <time>2024-08-12T09:19:38Z</time>
      </trkpt>
      <trkpt lat="44.76226" lon="6.34708">
        <ele>2270.6</ele>
        <time>2024-08-12T09:19:39Z</time>
      </trkpt>
      <trkpt lat="44.76226" lon="6.34708">
        <ele>2270.4</ele>
        <time>2024-08-12T09:19:40Z</time>
      </trkpt>
      <trkpt lat="44.76224" lon="6.34706">
        <ele>2270.4</ele>
        <time>2024-08-12T09:19:41Z</time>
      </trkpt>
      <trkpt lat="44.76224" lon="6.34706">
        <ele>2270.4</ele>
        <time>2024-08-12T09:19:42Z</time>
      </trkpt>
      <trkpt lat="44.76223" lon="6.34704">
        <ele>2270.4</ele>
        <time>2024-08-12T09:19:43Z</time>
      </trkpt>
      <trkpt lat="44.76223" lon="6.34704">
        <ele>2270.2</ele>
        <time>2024-08-12T09:19:44Z</time>
      </trkpt>
      <trkpt lat="44.76221" lon="6.34701">
        <ele>2269.8</ele>
        <time>2024-08-12T09:19:45Z</time>
      </trkpt>
      <trkpt lat="44.76221" lon="6.34701">
        <ele>2269.6</ele>
        <time>2024-08-12T09:19:46Z</time>
      </trkpt>
      <trkpt lat="44.7622" lon="6.34698">
        <ele>2269.4</ele>
        <time>2024-08-12T09:19:47Z</time>
      </trkpt>
      <trkpt lat="44.7622" lon="6.34698">
        <ele>2269.2</ele>
        <time>2024-08-12T09:19:48Z</time>
      </trkpt>
      <trkpt lat="44.76219" lon="6.34695">
        <ele>2268.8</ele>
        <time>2024-08-12T09:19:49Z</time>
      </trkpt>
      <trkpt lat="44.76219" lon="6.34695">
        <ele>2268.4</ele>
        <time>2024-08-12T09:19:50Z</time>
      </trkpt>
      <trkpt lat="44.76217" lon="6.34691">
        <ele>2268.4</ele>
        <time>2024-08-12T09:19:51Z</time>
      </trkpt>
      <trkpt lat="44.76217" lon="6.34691">
        <ele>2268.4</ele>
        <time>2024-08-12T09:19:52Z</time>
      </trkpt>
      <trkpt lat="44.76217" lon="6.34688">
        <ele>2268.6</ele>
        <time>2024-08-12T09:19:53Z</time>
      </trkpt>
      <trkpt lat="44.76217" lon="6.34688">
        <ele>2268.4</ele>
        <time>2024-08-12T09:19:54Z</time>
      </trkpt>
      <trkpt lat="44.76215" lon="6.34685">
        <ele>2268.2</ele>
        <time>2024-08-12T09:19:55Z</time>
      </trkpt>
      <trkpt lat="44.76215" lon="6.34685">
        <ele>2268.2</ele>
        <time>2024-08-12T09:19:56Z</time>
      </trkpt>
      <trkpt lat="44.76215" lon="6.34685">
        <ele>2268.4</ele>
        <time>2024-08-12T09:19:57Z</time>
      </trkpt>
      <trkpt lat="44.76215" lon="6.34682">
        <ele>2268.4</ele>
        <time>2024-08-12T09:19:58Z</time>
      </trkpt>
      <trkpt lat="44.76215" lon="6.34682">
        <ele>2268.4</ele>
        <time>2024-08-12T09:19:59Z</time>
      </trkpt>
      <trkpt lat="44.76215" lon="6.34682">
        <ele>2268.2</ele>
        <time>2024-08-12T09:20:00Z</time>
      </trkpt>
      <trkpt lat="44.76214" lon="6.34679">
        <ele>2268.2</ele>
        <time>2024-08-12T09:20:01Z</time>
      </trkpt>
      <trkpt lat="44.76214" lon="6.34679">
        <ele>2267.8</ele>
        <time>2024-08-12T09:20:02Z</time>
      </trkpt>
      <trkpt lat="44.76214" lon="6.34679">
        <ele>2267.8</ele>
        <time>2024-08-12T09:20:03Z</time>
      </trkpt>
      <trkpt lat="44.76212" lon="6.34677">
        <ele>2267.8</ele>
        <time>2024-08-12T09:20:04Z</time>
      </trkpt>
      <trkpt lat="44.76212" lon="6.34677">
        <ele>2267.8</ele>
        <time>2024-08-12T09:20:05Z</time>
      </trkpt>
      <trkpt lat="44.76212" lon="6.34677">
        <ele>2267.6</ele>
        <time>2024-08-12T09:20:06Z</time>
      </trkpt>
      <trkpt lat="44.76212" lon="6.34677">
        <ele>2267.4</ele>
        <time>2024-08-12T09:20:07Z</time>
      </trkpt>
      <trkpt lat="44.76212" lon="6.34677">
        <ele>2267</ele>
        <time>2024-08-12T09:20:08Z</time>
      </trkpt>
      <trkpt lat="44.76211" lon="6.34675">
        <ele>2266.8</ele>
        <time>2024-08-12T09:20:09Z</time>
      </trkpt>
      <trkpt lat="44.76211" lon="6.34675">
        <ele>2266.6</ele>
        <time>2024-08-12T09:20:10Z</time>
      </trkpt>
      <trkpt lat="44.76211" lon="6.34675">
        <ele>2266.6</ele>
        <time>2024-08-12T09:20:11Z</time>
      </trkpt>
      <trkpt lat="44.76209" lon="6.34675">
        <ele>2266.4</ele>
        <time>2024-08-12T09:20:12Z</time>
      </trkpt>
      <trkpt lat="44.76209" lon="6.34675">
        <ele>2265.8</ele>
        <time>2024-08-12T09:20:13Z</time>
      </trkpt>
      <trkpt lat="44.76209" lon="6.34675">
        <ele>2265.8</ele>
        <time>2024-08-12T09:20:14Z</time>
      </trkpt>
      <trkpt lat="44.76206" lon="6.34674">
        <ele>2265.6</ele>
        <time>2024-08-12T09:20:15Z</time>
      </trkpt>
      <trkpt lat="44.76206" lon="6.34674">
        <ele>2265.4</ele>
        <time>2024-08-12T09:20:16Z</time>
      </trkpt>
      <trkpt lat="44.76206" lon="6.34674">
        <ele>2265.2</ele>
        <time>2024-08-12T09:20:17Z</time>
      </trkpt>
      <trkpt lat="44.76206" lon="6.34674">
        <ele>2264.6</ele>
        <time>2024-08-12T09:20:18Z</time>
      </trkpt>
      <trkpt lat="44.76205" lon="6.34672">
        <ele>2264.4</ele>
        <time>2024-08-12T09:20:19Z</time>
      </trkpt>
      <trkpt lat="44.76205" lon="6.34672">
        <ele>2264.2</ele>
        <time>2024-08-12T09:20:20Z</time>
      </trkpt>
      <trkpt lat="44.76205" lon="6.34672">
        <ele>2264</ele>
        <time>2024-08-12T09:20:21Z</time>
      </trkpt>
      <trkpt lat="44.76203" lon="6.34671">
        <ele>2263.8</ele>
        <time>2024-08-12T09:20:22Z</time>
      </trkpt>
      <trkpt lat="44.76203" lon="6.34671">
        <ele>2263.4</ele>
        <time>2024-08-12T09:20:23Z</time>
      </trkpt>
      <trkpt lat="44.76203" lon="6.34671">
        <ele>2263.4</ele>
        <time>2024-08-12T09:20:24Z</time>
      </trkpt>
      <trkpt lat="44.76203" lon="6.34671">
        <ele>2263</ele>
        <time>2024-08-12T09:20:25Z</time>
      </trkpt>
      <trkpt lat="44.76202" lon="6.34669">
        <ele>2262.8</ele>
        <time>2024-08-12T09:20:26Z</time>
      </trkpt>
      <trkpt lat="44.76202" lon="6.34669">
        <ele>2262.6</ele>
        <time>2024-08-12T09:20:27Z</time>
      </trkpt>
      <trkpt lat="44.762" lon="6.34668">
        <ele>2262.2</ele>
        <time>2024-08-12T09:20:28Z</time>
      </trkpt>
      <trkpt lat="44.762" lon="6.34668">
        <ele>2262</ele>
        <time>2024-08-12T09:20:29Z</time>
      </trkpt>
      <trkpt lat="44.76198" lon="6.34669">
        <ele>2262</ele>
        <time>2024-08-12T09:20:30Z</time>
      </trkpt>
      <trkpt lat="44.76198" lon="6.34669">
        <ele>2261.6</ele>
        <time>2024-08-12T09:20:31Z</time>
      </trkpt>
      <trkpt lat="44.76196" lon="6.34669">
        <ele>2261.2</ele>
        <time>2024-08-12T09:20:32Z</time>
      </trkpt>
      <trkpt lat="44.76196" lon="6.34669">
        <ele>2261.2</ele>
        <time>2024-08-12T09:20:33Z</time>
      </trkpt>
      <trkpt lat="44.76196" lon="6.34669">
        <ele>2261.2</ele>
        <time>2024-08-12T09:20:34Z</time>
      </trkpt>
      <trkpt lat="44.76194" lon="6.34667">
        <ele>2261.2</ele>
        <time>2024-08-12T09:20:35Z</time>
      </trkpt>
      <trkpt lat="44.76194" lon="6.34667">
        <ele>2261</ele>
        <time>2024-08-12T09:20:36Z</time>
      </trkpt>
      <trkpt lat="44.76194" lon="6.34667">
        <ele>2261</ele>
        <time>2024-08-12T09:20:37Z</time>
      </trkpt>
      <trkpt lat="44.76194" lon="6.34667">
        <ele>2260.8</ele>
        <time>2024-08-12T09:20:38Z</time>
      </trkpt>
      <trkpt lat="44.76194" lon="6.34667">
        <ele>2260.2</ele>
        <time>2024-08-12T09:20:39Z</time>
      </trkpt>
      <trkpt lat="44.76192" lon="6.34666">
        <ele>2260</ele>
        <time>2024-08-12T09:20:40Z</time>
      </trkpt>
      <trkpt lat="44.76192" lon="6.34666">
        <ele>2259.6</ele>
        <time>2024-08-12T09:20:41Z</time>
      </trkpt>
      <trkpt lat="44.76192" lon="6.34666">
        <ele>2259.2</ele>
        <time>2024-08-12T09:20:42Z</time>
      </trkpt>
      <trkpt lat="44.7619" lon="6.34666">
        <ele>2258.8</ele>
        <time>2024-08-12T09:20:43Z</time>
      </trkpt>
      <trkpt lat="44.7619" lon="6.34666">
        <ele>2258</ele>
        <time>2024-08-12T09:20:44Z</time>
      </trkpt>
      <trkpt lat="44.7619" lon="6.34666">
        <ele>2257.8</ele>
        <time>2024-08-12T09:20:45Z</time>
      </trkpt>
      <trkpt lat="44.76188" lon="6.34666">
        <ele>2257.4</ele>
        <time>2024-08-12T09:20:46Z</time>
      </trkpt>
      <trkpt lat="44.76188" lon="6.34666">
        <ele>2257.4</ele>
        <time>2024-08-12T09:20:47Z</time>
      </trkpt>
      <trkpt lat="44.76186" lon="6.34666">
        <ele>2257.2</ele>
        <time>2024-08-12T09:20:48Z</time>
      </trkpt>
      <trkpt lat="44.76186" lon="6.34666">
        <ele>2257</ele>
        <time>2024-08-12T09:20:49Z</time>
      </trkpt>
      <trkpt lat="44.76186" lon="6.34666">
        <ele>2256.8</ele>
        <time>2024-08-12T09:20:50Z</time>
      </trkpt>
      <trkpt lat="44.76184" lon="6.34666">
        <ele>2256.6</ele>
        <time>2024-08-12T09:20:51Z</time>
      </trkpt>
      <trkpt lat="44.76184" lon="6.34666">
        <ele>2256.4</ele>
        <time>2024-08-12T09:20:52Z</time>
      </trkpt>
      <trkpt lat="44.76181" lon="6.34667">
        <ele>2256.2</ele>
        <time>2024-08-12T09:20:53Z</time>
      </trkpt>
      <trkpt lat="44.76181" lon="6.34667">
        <ele>2256.2</ele>
        <time>2024-08-12T09:20:54Z</time>
      </trkpt>
      <trkpt lat="44.7618" lon="6.34667">
        <ele>2256.2</ele>
        <time>2024-08-12T09:20:55Z</time>
      </trkpt>
      <trkpt lat="44.7618" lon="6.34667">
        <ele>2256</ele>
        <time>2024-08-12T09:20:56Z</time>
      </trkpt>
      <trkpt lat="44.76178" lon="6.34666">
        <ele>2255.8</ele>
        <time>2024-08-12T09:20:57Z</time>
      </trkpt>
      <trkpt lat="44.76178" lon="6.34666">
        <ele>2255.8</ele>
        <time>2024-08-12T09:20:58Z</time>
      </trkpt>
      <trkpt lat="44.76178" lon="6.34666">
        <ele>2255.8</ele>
        <time>2024-08-12T09:20:59Z</time>
      </trkpt>
      <trkpt lat="44.76175" lon="6.34667">
        <ele>2255.8</ele>
        <time>2024-08-12T09:21:00Z</time>
      </trkpt>
      <trkpt lat="44.76175" lon="6.34667">
        <ele>2256.2</ele>
        <time>2024-08-12T09:21:01Z</time>
      </trkpt>
      <trkpt lat="44.76173" lon="6.34668">
        <ele>2256.2</ele>
        <time>2024-08-12T09:21:02Z</time>
      </trkpt>
      <trkpt lat="44.76173" lon="6.34668">
        <ele>2256</ele>
        <time>2024-08-12T09:21:03Z</time>
      </trkpt>
      <trkpt lat="44.76172" lon="6.3467">
        <ele>2255.8</ele>
        <time>2024-08-12T09:21:04Z</time>
      </trkpt>
      <trkpt lat="44.76172" lon="6.3467">
        <ele>2255.6</ele>
        <time>2024-08-12T09:21:05Z</time>
      </trkpt>
      <trkpt lat="44.76172" lon="6.3467">
        <ele>2255.6</ele>
        <time>2024-08-12T09:21:06Z</time>
      </trkpt>
      <trkpt lat="44.76172" lon="6.3467">
        <ele>2255.6</ele>
        <time>2024-08-12T09:21:07Z</time>
      </trkpt>
      <trkpt lat="44.76172" lon="6.3467">
        <ele>2255.8</ele>
        <time>2024-08-12T09:21:08Z</time>
      </trkpt>
      <trkpt lat="44.7617" lon="6.34672">
        <ele>2256</ele>
        <time>2024-08-12T09:21:09Z</time>
      </trkpt>
      <trkpt lat="44.7617" lon="6.34672">
        <ele>2256.2</ele>
        <time>2024-08-12T09:21:10Z</time>
      </trkpt>
      <trkpt lat="44.76168" lon="6.34673">
        <ele>2256.2</ele>
        <time>2024-08-12T09:21:11Z</time>
      </trkpt>
      <trkpt lat="44.76168" lon="6.34673">
        <ele>2256</ele>
        <time>2024-08-12T09:21:12Z</time>
      </trkpt>
      <trkpt lat="44.76166" lon="6.34673">
        <ele>2255.8</ele>
        <time>2024-08-12T09:21:13Z</time>
      </trkpt>
      <trkpt lat="44.76166" lon="6.34673">
        <ele>2255.6</ele>
        <time>2024-08-12T09:21:14Z</time>
      </trkpt>
      <trkpt lat="44.76166" lon="6.34673">
        <ele>2255.6</ele>
        <time>2024-08-12T09:21:15Z</time>
      </trkpt>
      <trkpt lat="44.76165" lon="6.34673">
        <ele>2255.6</ele>
        <time>2024-08-12T09:21:16Z</time>
      </trkpt>
      <trkpt lat="44.76165" lon="6.34673">
        <ele>2255.6</ele>
        <time>2024-08-12T09:21:17Z</time>
      </trkpt>
      <trkpt lat="44.76165" lon="6.34673">
        <ele>2255.8</ele>
        <time>2024-08-12T09:21:18Z</time>
      </trkpt>
      <trkpt lat="44.76165" lon="6.34673">
        <ele>2255.8</ele>
        <time>2024-08-12T09:21:19Z</time>
      </trkpt>
      <trkpt lat="44.76163" lon="6.34671">
        <ele>2255.8</ele>
        <time>2024-08-12T09:21:20Z</time>
      </trkpt>
      <trkpt lat="44.76163" lon="6.34671">
        <ele>2255.6</ele>
        <time>2024-08-12T09:21:21Z</time>
      </trkpt>
      <trkpt lat="44.76163" lon="6.34671">
        <ele>2255.6</ele>
        <time>2024-08-12T09:21:22Z</time>
      </trkpt>
      <trkpt lat="44.76163" lon="6.34671">
        <ele>2255.2</ele>
        <time>2024-08-12T09:21:23Z</time>
      </trkpt>
      <trkpt lat="44.76162" lon="6.34668">
        <ele>2255.2</ele>
        <time>2024-08-12T09:21:24Z</time>
      </trkpt>
      <trkpt lat="44.76162" lon="6.34668">
        <ele>2255.4</ele>
        <time>2024-08-12T09:21:25Z</time>
      </trkpt>
      <trkpt lat="44.76162" lon="6.34668">
        <ele>2255.4</ele>
        <time>2024-08-12T09:21:26Z</time>
      </trkpt>
      <trkpt lat="44.7616" lon="6.34667">
        <ele>2255.2</ele>
        <time>2024-08-12T09:21:27Z</time>
      </trkpt>
      <trkpt lat="44.7616" lon="6.34667">
        <ele>2255</ele>
        <time>2024-08-12T09:21:28Z</time>
      </trkpt>
      <trkpt lat="44.7616" lon="6.34667">
        <ele>2254.6</ele>
        <time>2024-08-12T09:21:29Z</time>
      </trkpt>
      <trkpt lat="44.7616" lon="6.34667">
        <ele>2254.6</ele>
        <time>2024-08-12T09:21:30Z</time>
      </trkpt>
      <trkpt lat="44.76159" lon="6.34664">
        <ele>2254.4</ele>
        <time>2024-08-12T09:21:31Z</time>
      </trkpt>
      <trkpt lat="44.76159" lon="6.34664">
        <ele>2254.4</ele>
        <time>2024-08-12T09:21:32Z</time>
      </trkpt>
      <trkpt lat="44.76158" lon="6.34662">
        <ele>2254.4</ele>
        <time>2024-08-12T09:21:33Z</time>
      </trkpt>
      <trkpt lat="44.76158" lon="6.34662">
        <ele>2254.2</ele>
        <time>2024-08-12T09:21:34Z</time>
      </trkpt>
      <trkpt lat="44.76158" lon="6.34659">
        <ele>2254</ele>
        <time>2024-08-12T09:21:35Z</time>
      </trkpt>
      <trkpt lat="44.76158" lon="6.34659">
        <ele>2254</ele>
        <time>2024-08-12T09:21:36Z</time>
      </trkpt>
      <trkpt lat="44.76158" lon="6.34659">
        <ele>2253.8</ele>
        <time>2024-08-12T09:21:37Z</time>
      </trkpt>
      <trkpt lat="44.76157" lon="6.34656">
        <ele>2253.4</ele>
        <time>2024-08-12T09:21:38Z</time>
      </trkpt>
      <trkpt lat="44.76157" lon="6.34656">
        <ele>2253.2</ele>
        <time>2024-08-12T09:21:39Z</time>
      </trkpt>
      <trkpt lat="44.76157" lon="6.34653">
        <ele>2252.8</ele>
        <time>2024-08-12T09:21:40Z</time>
      </trkpt>
      <trkpt lat="44.76157" lon="6.34653">
        <ele>2252.6</ele>
        <time>2024-08-12T09:21:41Z</time>
      </trkpt>
      <trkpt lat="44.76157" lon="6.34653">
        <ele>2252.4</ele>
        <time>2024-08-12T09:21:42Z</time>
      </trkpt>
      <trkpt lat="44.76158" lon="6.34652">
        <ele>2252.2</ele>
        <time>2024-08-12T09:21:43Z</time>
      </trkpt>
      <trkpt lat="44.76158" lon="6.34652">
        <ele>2252</ele>
        <time>2024-08-12T09:21:44Z</time>
      </trkpt>
      <trkpt lat="44.76158" lon="6.34652">
        <ele>2251.8</ele>
        <time>2024-08-12T09:21:45Z</time>
      </trkpt>
      <trkpt lat="44.76158" lon="6.34649">
        <ele>2251.8</ele>
        <time>2024-08-12T09:21:46Z</time>
      </trkpt>
      <trkpt lat="44.76158" lon="6.34649">
        <ele>2251.8</ele>
        <time>2024-08-12T09:21:47Z</time>
      </trkpt>
      <trkpt lat="44.76158" lon="6.34649">
        <ele>2251.4</ele>
        <time>2024-08-12T09:21:48Z</time>
      </trkpt>
      <trkpt lat="44.76158" lon="6.34646">
        <ele>2251.2</ele>
        <time>2024-08-12T09:21:49Z</time>
      </trkpt>
      <trkpt lat="44.76158" lon="6.34646">
        <ele>2251.2</ele>
        <time>2024-08-12T09:21:50Z</time>
      </trkpt>
      <trkpt lat="44.76158" lon="6.34646">
        <ele>2251</ele>
        <time>2024-08-12T09:21:51Z</time>
      </trkpt>
      <trkpt lat="44.76158" lon="6.34642">
        <ele>2250.6</ele>
        <time>2024-08-12T09:21:52Z</time>
      </trkpt>
      <trkpt lat="44.76158" lon="6.34642">
        <ele>2250.6</ele>
        <time>2024-08-12T09:21:53Z</time>
      </trkpt>
      <trkpt lat="44.76158" lon="6.34639">
        <ele>2250.4</ele>
        <time>2024-08-12T09:21:54Z</time>
      </trkpt>
      <trkpt lat="44.76158" lon="6.34639">
        <ele>2250.2</ele>
        <time>2024-08-12T09:21:55Z</time>
      </trkpt>
      <trkpt lat="44.76157" lon="6.34637">
        <ele>2249.8</ele>
        <time>2024-08-12T09:21:56Z</time>
      </trkpt>
      <trkpt lat="44.76157" lon="6.34637">
        <ele>2249.4</ele>
        <time>2024-08-12T09:21:57Z</time>
      </trkpt>
      <trkpt lat="44.76156" lon="6.34634">
        <ele>2249.2</ele>
        <time>2024-08-12T09:21:58Z</time>
      </trkpt>
      <trkpt lat="44.76156" lon="6.34634">
        <ele>2249</ele>
        <time>2024-08-12T09:21:59Z</time>
      </trkpt>
      <trkpt lat="44.76154" lon="6.34633">
        <ele>2248.8</ele>
        <time>2024-08-12T09:22:00Z</time>
      </trkpt>
      <trkpt lat="44.76154" lon="6.34633">
        <ele>2248.4</ele>
        <time>2024-08-12T09:22:01Z</time>
      </trkpt>
      <trkpt lat="44.76152" lon="6.34631">
        <ele>2248</ele>
        <time>2024-08-12T09:22:02Z</time>
      </trkpt>
      <trkpt lat="44.76152" lon="6.34631">
        <ele>2248</ele>
        <time>2024-08-12T09:22:03Z</time>
      </trkpt>
      <trkpt lat="44.76152" lon="6.34631">
        <ele>2248</ele>
        <time>2024-08-12T09:22:04Z</time>
      </trkpt>
      <trkpt lat="44.7615" lon="6.34629">
        <ele>2247.8</ele>
        <time>2024-08-12T09:22:05Z</time>
      </trkpt>
      <trkpt lat="44.7615" lon="6.34629">
        <ele>2247.4</ele>
        <time>2024-08-12T09:22:06Z</time>
      </trkpt>
      <trkpt lat="44.76149" lon="6.34628">
        <ele>2247.2</ele>
        <time>2024-08-12T09:22:07Z</time>
      </trkpt>
      <trkpt lat="44.76149" lon="6.34628">
        <ele>2247.2</ele>
        <time>2024-08-12T09:22:08Z</time>
      </trkpt>
      <trkpt lat="44.76149" lon="6.34628">
        <ele>2246.6</ele>
        <time>2024-08-12T09:22:09Z</time>
      </trkpt>
      <trkpt lat="44.76146" lon="6.34626">
        <ele>2246.4</ele>
        <time>2024-08-12T09:22:10Z</time>
      </trkpt>
      <trkpt lat="44.76146" lon="6.34626">
        <ele>2246.2</ele>
        <time>2024-08-12T09:22:11Z</time>
      </trkpt>
      <trkpt lat="44.76146" lon="6.34626">
        <ele>2246</ele>
        <time>2024-08-12T09:22:12Z</time>
      </trkpt>
      <trkpt lat="44.76144" lon="6.34627">
        <ele>2245.8</ele>
        <time>2024-08-12T09:22:13Z</time>
      </trkpt>
      <trkpt lat="44.76144" lon="6.34627">
        <ele>2245.6</ele>
        <time>2024-08-12T09:22:14Z</time>
      </trkpt>
      <trkpt lat="44.76144" lon="6.34627">
        <ele>2245.2</ele>
        <time>2024-08-12T09:22:15Z</time>
      </trkpt>
      <trkpt lat="44.76142" lon="6.34625">
        <ele>2245</ele>
        <time>2024-08-12T09:22:16Z</time>
      </trkpt>
      <trkpt lat="44.76142" lon="6.34625">
        <ele>2244.6</ele>
        <time>2024-08-12T09:22:17Z</time>
      </trkpt>
      <trkpt lat="44.76142" lon="6.34625">
        <ele>2244.6</ele>
        <time>2024-08-12T09:22:18Z</time>
      </trkpt>
      <trkpt lat="44.76142" lon="6.34625">
        <ele>2244.6</ele>
        <time>2024-08-12T09:22:19Z</time>
      </trkpt>
      <trkpt lat="44.76142" lon="6.34625">
        <ele>2244.6</ele>
        <time>2024-08-12T09:22:20Z</time>
      </trkpt>
      <trkpt lat="44.76142" lon="6.34625">
        <ele>2244.6</ele>
        <time>2024-08-12T09:22:21Z</time>
      </trkpt>
      <trkpt lat="44.76142" lon="6.34625">
        <ele>2244.6</ele>
        <time>2024-08-12T09:22:22Z</time>
      </trkpt>
      <trkpt lat="44.76142" lon="6.34625">
        <ele>2244.6</ele>
        <time>2024-08-12T09:22:23Z</time>
      </trkpt>
      <trkpt lat="44.76142" lon="6.34625">
        <ele>2244.6</ele>
        <time>2024-08-12T09:22:24Z</time>
      </trkpt>
      <trkpt lat="44.76142" lon="6.34625">
        <ele>2244.4</ele>
        <time>2024-08-12T09:22:25Z</time>
      </trkpt>
      <trkpt lat="44.76142" lon="6.34625">
        <ele>2244</ele>
        <time>2024-08-12T09:22:26Z</time>
      </trkpt>
      <trkpt lat="44.76144" lon="6.34622">
        <ele>2243.8</ele>
        <time>2024-08-12T09:22:27Z</time>
      </trkpt>
      <trkpt lat="44.76144" lon="6.34622">
        <ele>2243.6</ele>
        <time>2024-08-12T09:22:28Z</time>
      </trkpt>
      <trkpt lat="44.76146" lon="6.34619">
        <ele>2243.4</ele>
        <time>2024-08-12T09:22:29Z</time>
      </trkpt>
      <trkpt lat="44.76148" lon="6.34618">
        <ele>2243.2</ele>
        <time>2024-08-12T09:22:30Z</time>
      </trkpt>
      <trkpt lat="44.76148" lon="6.34618">
        <ele>2243</ele>
        <time>2024-08-12T09:22:31Z</time>
      </trkpt>
      <trkpt lat="44.7615" lon="6.34616">
        <ele>2242.6</ele>
        <time>2024-08-12T09:22:32Z</time>
      </trkpt>
      <trkpt lat="44.7615" lon="6.34616">
        <ele>2242.6</ele>
        <time>2024-08-12T09:22:33Z</time>
      </trkpt>
      <trkpt lat="44.76152" lon="6.34615">
        <ele>2242.4</ele>
        <time>2024-08-12T09:22:34Z</time>
      </trkpt>
      <trkpt lat="44.76152" lon="6.34615">
        <ele>2242.2</ele>
        <time>2024-08-12T09:22:35Z</time>
      </trkpt>
      <trkpt lat="44.76154" lon="6.34614">
        <ele>2242</ele>
        <time>2024-08-12T09:22:36Z</time>
      </trkpt>
      <trkpt lat="44.76154" lon="6.34614">
        <ele>2241.6</ele>
        <time>2024-08-12T09:22:37Z</time>
      </trkpt>
      <trkpt lat="44.76154" lon="6.34614">
        <ele>2241.4</ele>
        <time>2024-08-12T09:22:38Z</time>
      </trkpt>
      <trkpt lat="44.76156" lon="6.34611">
        <ele>2241.2</ele>
        <time>2024-08-12T09:22:39Z</time>
      </trkpt>
      <trkpt lat="44.76156" lon="6.34611">
        <ele>2241</ele>
        <time>2024-08-12T09:22:40Z</time>
      </trkpt>
      <trkpt lat="44.76158" lon="6.3461">
        <ele>2241</ele>
        <time>2024-08-12T09:22:41Z</time>
      </trkpt>
      <trkpt lat="44.76158" lon="6.3461">
        <ele>2240.8</ele>
        <time>2024-08-12T09:22:42Z</time>
      </trkpt>
      <trkpt lat="44.7616" lon="6.3461">
        <ele>2240.4</ele>
        <time>2024-08-12T09:22:43Z</time>
      </trkpt>
      <trkpt lat="44.7616" lon="6.3461">
        <ele>2240.2</ele>
        <time>2024-08-12T09:22:44Z</time>
      </trkpt>
      <trkpt lat="44.76162" lon="6.34611">
        <ele>2240.2</ele>
        <time>2024-08-12T09:22:45Z</time>
      </trkpt>
      <trkpt lat="44.76162" lon="6.34611">
        <ele>2240</ele>
        <time>2024-08-12T09:22:46Z</time>
      </trkpt>
      <trkpt lat="44.76165" lon="6.3461">
        <ele>2240</ele>
        <time>2024-08-12T09:22:47Z</time>
      </trkpt>
      <trkpt lat="44.76165" lon="6.3461">
        <ele>2239.8</ele>
        <time>2024-08-12T09:22:48Z</time>
      </trkpt>
      <trkpt lat="44.76165" lon="6.3461">
        <ele>2239.6</ele>
        <time>2024-08-12T09:22:49Z</time>
      </trkpt>
      <trkpt lat="44.76168" lon="6.3461">
        <ele>2239.2</ele>
        <time>2024-08-12T09:22:50Z</time>
      </trkpt>
      <trkpt lat="44.76168" lon="6.3461">
        <ele>2239.2</ele>
        <time>2024-08-12T09:22:51Z</time>
      </trkpt>
      <trkpt lat="44.7617" lon="6.3461">
        <ele>2239.2</ele>
        <time>2024-08-12T09:22:52Z</time>
      </trkpt>
      <trkpt lat="44.7617" lon="6.3461">
        <ele>2239</ele>
        <time>2024-08-12T09:22:53Z</time>
      </trkpt>
      <trkpt lat="44.76172" lon="6.3461">
        <ele>2239</ele>
        <time>2024-08-12T09:22:54Z</time>
      </trkpt>
      <trkpt lat="44.76172" lon="6.3461">
        <ele>2238.6</ele>
        <time>2024-08-12T09:22:55Z</time>
      </trkpt>
      <trkpt lat="44.76172" lon="6.3461">
        <ele>2238.6</ele>
        <time>2024-08-12T09:22:56Z</time>
      </trkpt>
      <trkpt lat="44.76171" lon="6.34607">
        <ele>2238.6</ele>
        <time>2024-08-12T09:22:57Z</time>
      </trkpt>
      <trkpt lat="44.76171" lon="6.34607">
        <ele>2238</ele>
        <time>2024-08-12T09:22:58Z</time>
      </trkpt>
      <trkpt lat="44.76169" lon="6.34605">
        <ele>2238</ele>
        <time>2024-08-12T09:22:59Z</time>
      </trkpt>
      <trkpt lat="44.76169" lon="6.34605">
        <ele>2238</ele>
        <time>2024-08-12T09:23:00Z</time>
      </trkpt>
      <trkpt lat="44.76168" lon="6.34603">
        <ele>2237.6</ele>
        <time>2024-08-12T09:23:01Z</time>
      </trkpt>
      <trkpt lat="44.76168" lon="6.34603">
        <ele>2237.8</ele>
        <time>2024-08-12T09:23:02Z</time>
      </trkpt>
      <trkpt lat="44.76166" lon="6.34601">
        <ele>2237.8</ele>
        <time>2024-08-12T09:23:03Z</time>
      </trkpt>
      <trkpt lat="44.76166" lon="6.34601">
        <ele>2237.4</ele>
        <time>2024-08-12T09:23:04Z</time>
      </trkpt>
      <trkpt lat="44.76164" lon="6.346">
        <ele>2237</ele>
        <time>2024-08-12T09:23:05Z</time>
      </trkpt>
      <trkpt lat="44.76164" lon="6.346">
        <ele>2236.8</ele>
        <time>2024-08-12T09:23:06Z</time>
      </trkpt>
      <trkpt lat="44.76164" lon="6.346">
        <ele>2236.8</ele>
        <time>2024-08-12T09:23:07Z</time>
      </trkpt>
      <trkpt lat="44.76161" lon="6.34598">
        <ele>2236.6</ele>
        <time>2024-08-12T09:23:08Z</time>
      </trkpt>
      <trkpt lat="44.76161" lon="6.34598">
        <ele>2236.4</ele>
        <time>2024-08-12T09:23:09Z</time>
      </trkpt>
      <trkpt lat="44.76158" lon="6.34597">
        <ele>2236.2</ele>
        <time>2024-08-12T09:23:10Z</time>
      </trkpt>
      <trkpt lat="44.76158" lon="6.34597">
        <ele>2236.2</ele>
        <time>2024-08-12T09:23:11Z</time>
      </trkpt>
      <trkpt lat="44.76157" lon="6.34596">
        <ele>2236</ele>
        <time>2024-08-12T09:23:12Z</time>
      </trkpt>
      <trkpt lat="44.76157" lon="6.34596">
        <ele>2235.8</ele>
        <time>2024-08-12T09:23:13Z</time>
      </trkpt>
      <trkpt lat="44.76157" lon="6.34596">
        <ele>2235.4</ele>
        <time>2024-08-12T09:23:14Z</time>
      </trkpt>
      <trkpt lat="44.76155" lon="6.34595">
        <ele>2235.2</ele>
        <time>2024-08-12T09:23:15Z</time>
      </trkpt>
      <trkpt lat="44.76155" lon="6.34595">
        <ele>2235.2</ele>
        <time>2024-08-12T09:23:16Z</time>
      </trkpt>
      <trkpt lat="44.76155" lon="6.34595">
        <ele>2235</ele>
        <time>2024-08-12T09:23:17Z</time>
      </trkpt>
      <trkpt lat="44.76153" lon="6.34593">
        <ele>2234.8</ele>
        <time>2024-08-12T09:23:18Z</time>
      </trkpt>
      <trkpt lat="44.76153" lon="6.34593">
        <ele>2234.8</ele>
        <time>2024-08-12T09:23:19Z</time>
      </trkpt>
      <trkpt lat="44.7615" lon="6.34591">
        <ele>2234.6</ele>
        <time>2024-08-12T09:23:20Z</time>
      </trkpt>
      <trkpt lat="44.7615" lon="6.34591">
        <ele>2234.4</ele>
        <time>2024-08-12T09:23:21Z</time>
      </trkpt>
      <trkpt lat="44.76148" lon="6.3459">
        <ele>2234.2</ele>
        <time>2024-08-12T09:23:22Z</time>
      </trkpt>
      <trkpt lat="44.76148" lon="6.3459">
        <ele>2234.4</ele>
        <time>2024-08-12T09:23:23Z</time>
      </trkpt>
      <trkpt lat="44.76146" lon="6.34589">
        <ele>2234.4</ele>
        <time>2024-08-12T09:23:24Z</time>
      </trkpt>
      <trkpt lat="44.76146" lon="6.34589">
        <ele>2234.4</ele>
        <time>2024-08-12T09:23:25Z</time>
      </trkpt>
      <trkpt lat="44.76146" lon="6.34589">
        <ele>2234</ele>
        <time>2024-08-12T09:23:26Z</time>
      </trkpt>
      <trkpt lat="44.76144" lon="6.34589">
        <ele>2233.4</ele>
        <time>2024-08-12T09:23:27Z</time>
      </trkpt>
      <trkpt lat="44.76144" lon="6.34589">
        <ele>2233.2</ele>
        <time>2024-08-12T09:23:28Z</time>
      </trkpt>
      <trkpt lat="44.76144" lon="6.34589">
        <ele>2233.2</ele>
        <time>2024-08-12T09:23:29Z</time>
      </trkpt>
      <trkpt lat="44.76142" lon="6.34588">
        <ele>2233</ele>
        <time>2024-08-12T09:23:30Z</time>
      </trkpt>
      <trkpt lat="44.76142" lon="6.34588">
        <ele>2232.6</ele>
        <time>2024-08-12T09:23:31Z</time>
      </trkpt>
      <trkpt lat="44.7614" lon="6.34587">
        <ele>2232.2</ele>
        <time>2024-08-12T09:23:32Z</time>
      </trkpt>
      <trkpt lat="44.7614" lon="6.34587">
        <ele>2231.8</ele>
        <time>2024-08-12T09:23:33Z</time>
      </trkpt>
      <trkpt lat="44.76138" lon="6.34586">
        <ele>2231.6</ele>
        <time>2024-08-12T09:23:34Z</time>
      </trkpt>
      <trkpt lat="44.76138" lon="6.34586">
        <ele>2231.6</ele>
        <time>2024-08-12T09:23:35Z</time>
      </trkpt>
      <trkpt lat="44.76137" lon="6.34584">
        <ele>2231.4</ele>
        <time>2024-08-12T09:23:36Z</time>
      </trkpt>
      <trkpt lat="44.76137" lon="6.34584">
        <ele>2231</ele>
        <time>2024-08-12T09:23:37Z</time>
      </trkpt>
      <trkpt lat="44.76137" lon="6.34584">
        <ele>2230.6</ele>
        <time>2024-08-12T09:23:38Z</time>
      </trkpt>
      <trkpt lat="44.7614" lon="6.34582">
        <ele>2230.4</ele>
        <time>2024-08-12T09:23:39Z</time>
      </trkpt>
      <trkpt lat="44.7614" lon="6.34582">
        <ele>2230.2</ele>
        <time>2024-08-12T09:23:40Z</time>
      </trkpt>
      <trkpt lat="44.76142" lon="6.34581">
        <ele>2230</ele>
        <time>2024-08-12T09:23:41Z</time>
      </trkpt>
      <trkpt lat="44.76142" lon="6.34581">
        <ele>2229.6</ele>
        <time>2024-08-12T09:23:42Z</time>
      </trkpt>
      <trkpt lat="44.76144" lon="6.3458">
        <ele>2229.4</ele>
        <time>2024-08-12T09:23:43Z</time>
      </trkpt>
      <trkpt lat="44.76144" lon="6.3458">
        <ele>2229</ele>
        <time>2024-08-12T09:23:44Z</time>
      </trkpt>
      <trkpt lat="44.76146" lon="6.34579">
        <ele>2229</ele>
        <time>2024-08-12T09:23:45Z</time>
      </trkpt>
      <trkpt lat="44.76146" lon="6.34579">
        <ele>2229</ele>
        <time>2024-08-12T09:23:46Z</time>
      </trkpt>
      <trkpt lat="44.76148" lon="6.34577">
        <ele>2228.8</ele>
        <time>2024-08-12T09:23:47Z</time>
      </trkpt>
      <trkpt lat="44.76148" lon="6.34577">
        <ele>2228.8</ele>
        <time>2024-08-12T09:23:48Z</time>
      </trkpt>
      <trkpt lat="44.7615" lon="6.34576">
        <ele>2228.6</ele>
        <time>2024-08-12T09:23:49Z</time>
      </trkpt>
      <trkpt lat="44.7615" lon="6.34576">
        <ele>2228.6</ele>
        <time>2024-08-12T09:23:50Z</time>
      </trkpt>
      <trkpt lat="44.76151" lon="6.34574">
        <ele>2228.4</ele>
        <time>2024-08-12T09:23:51Z</time>
      </trkpt>
      <trkpt lat="44.76151" lon="6.34574">
        <ele>2228.2</ele>
        <time>2024-08-12T09:23:52Z</time>
      </trkpt>
      <trkpt lat="44.76153" lon="6.34574">
        <ele>2228.2</ele>
        <time>2024-08-12T09:23:53Z</time>
      </trkpt>
      <trkpt lat="44.76153" lon="6.34574">
        <ele>2227.8</ele>
        <time>2024-08-12T09:23:54Z</time>
      </trkpt>
      <trkpt lat="44.76155" lon="6.34574">
        <ele>2227.8</ele>
        <time>2024-08-12T09:23:55Z</time>
      </trkpt>
      <trkpt lat="44.76155" lon="6.34574">
        <ele>2227.4</ele>
        <time>2024-08-12T09:23:56Z</time>
      </trkpt>
      <trkpt lat="44.76155" lon="6.34574">
        <ele>2227.2</ele>
        <time>2024-08-12T09:23:57Z</time>
      </trkpt>
      <trkpt lat="44.76157" lon="6.34573">
        <ele>2227</ele>
        <time>2024-08-12T09:23:58Z</time>
      </trkpt>
      <trkpt lat="44.76157" lon="6.34573">
        <ele>2227</ele>
        <time>2024-08-12T09:23:59Z</time>
      </trkpt>
      <trkpt lat="44.76157" lon="6.34573">
        <ele>2227</ele>
        <time>2024-08-12T09:24:00Z</time>
      </trkpt>
      <trkpt lat="44.7616" lon="6.34571">
        <ele>2226.6</ele>
        <time>2024-08-12T09:24:01Z</time>
      </trkpt>
      <trkpt lat="44.7616" lon="6.34571">
        <ele>2226.2</ele>
        <time>2024-08-12T09:24:02Z</time>
      </trkpt>
      <trkpt lat="44.7616" lon="6.34571">
        <ele>2226.2</ele>
        <time>2024-08-12T09:24:03Z</time>
      </trkpt>
      <trkpt lat="44.76162" lon="6.3457">
        <ele>2226.2</ele>
        <time>2024-08-12T09:24:04Z</time>
      </trkpt>
      <trkpt lat="44.76162" lon="6.3457">
        <ele>2226</ele>
        <time>2024-08-12T09:24:05Z</time>
      </trkpt>
      <trkpt lat="44.76165" lon="6.3457">
        <ele>2226</ele>
        <time>2024-08-12T09:24:06Z</time>
      </trkpt>
      <trkpt lat="44.76165" lon="6.3457">
        <ele>2226</ele>
        <time>2024-08-12T09:24:07Z</time>
      </trkpt>
      <trkpt lat="44.76167" lon="6.3457">
        <ele>2225.8</ele>
        <time>2024-08-12T09:24:08Z</time>
      </trkpt>
      <trkpt lat="44.76167" lon="6.3457">
        <ele>2225.6</ele>
        <time>2024-08-12T09:24:09Z</time>
      </trkpt>
      <trkpt lat="44.76169" lon="6.3457">
        <ele>2225.6</ele>
        <time>2024-08-12T09:24:10Z</time>
      </trkpt>
      <trkpt lat="44.76169" lon="6.3457">
        <ele>2225.6</ele>
        <time>2024-08-12T09:24:11Z</time>
      </trkpt>
      <trkpt lat="44.76171" lon="6.34569">
        <ele>2225.6</ele>
        <time>2024-08-12T09:24:12Z</time>
      </trkpt>
      <trkpt lat="44.76171" lon="6.34569">
        <ele>2225.6</ele>
        <time>2024-08-12T09:24:13Z</time>
      </trkpt>
      <trkpt lat="44.76173" lon="6.34567">
        <ele>2225.4</ele>
        <time>2024-08-12T09:24:14Z</time>
      </trkpt>
      <trkpt lat="44.76173" lon="6.34567">
        <ele>2225.4</ele>
        <time>2024-08-12T09:24:15Z</time>
      </trkpt>
      <trkpt lat="44.76175" lon="6.34565">
        <ele>2225.2</ele>
        <time>2024-08-12T09:24:16Z</time>
      </trkpt>
      <trkpt lat="44.76175" lon="6.34565">
        <ele>2225.2</ele>
        <time>2024-08-12T09:24:17Z</time>
      </trkpt>
      <trkpt lat="44.76175" lon="6.34565">
        <ele>2225.2</ele>
        <time>2024-08-12T09:24:18Z</time>
      </trkpt>
      <trkpt lat="44.76178" lon="6.34564">
        <ele>2225</ele>
        <time>2024-08-12T09:24:19Z</time>
      </trkpt>
      <trkpt lat="44.76178" lon="6.34564">
        <ele>2225</ele>
        <time>2024-08-12T09:24:20Z</time>
      </trkpt>
      <trkpt lat="44.7618" lon="6.34563">
        <ele>2224.6</ele>
        <time>2024-08-12T09:24:21Z</time>
      </trkpt>
      <trkpt lat="44.7618" lon="6.34563">
        <ele>2224.6</ele>
        <time>2024-08-12T09:24:22Z</time>
      </trkpt>
      <trkpt lat="44.76182" lon="6.34563">
        <ele>2224.4</ele>
        <time>2024-08-12T09:24:23Z</time>
      </trkpt>
      <trkpt lat="44.76182" lon="6.34563">
        <ele>2223.8</ele>
        <time>2024-08-12T09:24:24Z</time>
      </trkpt>
      <trkpt lat="44.76182" lon="6.34563">
        <ele>2223.8</ele>
        <time>2024-08-12T09:24:25Z</time>
      </trkpt>
      <trkpt lat="44.76184" lon="6.34561">
        <ele>2223.6</ele>
        <time>2024-08-12T09:24:26Z</time>
      </trkpt>
      <trkpt lat="44.76184" lon="6.34561">
        <ele>2223.4</ele>
        <time>2024-08-12T09:24:27Z</time>
      </trkpt>
      <trkpt lat="44.76184" lon="6.34561">
        <ele>2223.2</ele>
        <time>2024-08-12T09:24:28Z</time>
      </trkpt>
      <trkpt lat="44.76187" lon="6.34559">
        <ele>2223</ele>
        <time>2024-08-12T09:24:29Z</time>
      </trkpt>
      <trkpt lat="44.76187" lon="6.34559">
        <ele>2223</ele>
        <time>2024-08-12T09:24:30Z</time>
      </trkpt>
      <trkpt lat="44.76187" lon="6.34559">
        <ele>2222.8</ele>
        <time>2024-08-12T09:24:31Z</time>
      </trkpt>
      <trkpt lat="44.76189" lon="6.34559">
        <ele>2222.4</ele>
        <time>2024-08-12T09:24:32Z</time>
      </trkpt>
      <trkpt lat="44.76189" lon="6.34559">
        <ele>2222</ele>
        <time>2024-08-12T09:24:33Z</time>
      </trkpt>
      <trkpt lat="44.76189" lon="6.34559">
        <ele>2221.8</ele>
        <time>2024-08-12T09:24:34Z</time>
      </trkpt>
      <trkpt lat="44.76191" lon="6.34558">
        <ele>2221.6</ele>
        <time>2024-08-12T09:24:35Z</time>
      </trkpt>
      <trkpt lat="44.76191" lon="6.34558">
        <ele>2221.4</ele>
        <time>2024-08-12T09:24:36Z</time>
      </trkpt>
      <trkpt lat="44.76191" lon="6.34558">
        <ele>2221.4</ele>
        <time>2024-08-12T09:24:37Z</time>
      </trkpt>
      <trkpt lat="44.7619" lon="6.34555">
        <ele>2221</ele>
        <time>2024-08-12T09:24:38Z</time>
      </trkpt>
      <trkpt lat="44.7619" lon="6.34555">
        <ele>2221</ele>
        <time>2024-08-12T09:24:39Z</time>
      </trkpt>
      <trkpt lat="44.76188" lon="6.34553">
        <ele>2220.8</ele>
        <time>2024-08-12T09:24:40Z</time>
      </trkpt>
      <trkpt lat="44.76188" lon="6.34553">
        <ele>2220.4</ele>
        <time>2024-08-12T09:24:41Z</time>
      </trkpt>
      <trkpt lat="44.76188" lon="6.34553">
        <ele>2220</ele>
        <time>2024-08-12T09:24:42Z</time>
      </trkpt>
      <trkpt lat="44.76186" lon="6.34551">
        <ele>2219.8</ele>
        <time>2024-08-12T09:24:43Z</time>
      </trkpt>
      <trkpt lat="44.76186" lon="6.34551">
        <ele>2219.4</ele>
        <time>2024-08-12T09:24:44Z</time>
      </trkpt>
      <trkpt lat="44.76184" lon="6.34549">
        <ele>2219.2</ele>
        <time>2024-08-12T09:24:45Z</time>
      </trkpt>
      <trkpt lat="44.76184" lon="6.34549">
        <ele>2219</ele>
        <time>2024-08-12T09:24:46Z</time>
      </trkpt>
      <trkpt lat="44.76182" lon="6.34548">
        <ele>2219</ele>
        <time>2024-08-12T09:24:47Z</time>
      </trkpt>
      <trkpt lat="44.76182" lon="6.34548">
        <ele>2218.8</ele>
        <time>2024-08-12T09:24:48Z</time>
      </trkpt>
      <trkpt lat="44.7618" lon="6.34547">
        <ele>2218.6</ele>
        <time>2024-08-12T09:24:49Z</time>
      </trkpt>
      <trkpt lat="44.7618" lon="6.34547">
        <ele>2218.4</ele>
        <time>2024-08-12T09:24:50Z</time>
      </trkpt>
      <trkpt lat="44.76178" lon="6.34545">
        <ele>2218.2</ele>
        <time>2024-08-12T09:24:51Z</time>
      </trkpt>
      <trkpt lat="44.76178" lon="6.34545">
        <ele>2217.8</ele>
        <time>2024-08-12T09:24:52Z</time>
      </trkpt>
      <trkpt lat="44.76175" lon="6.34543">
        <ele>2217.4</ele>
        <time>2024-08-12T09:24:53Z</time>
      </trkpt>
      <trkpt lat="44.76175" lon="6.34543">
        <ele>2217.4</ele>
        <time>2024-08-12T09:24:54Z</time>
      </trkpt>
      <trkpt lat="44.76173" lon="6.34542">
        <ele>2217.2</ele>
        <time>2024-08-12T09:24:55Z</time>
      </trkpt>
      <trkpt lat="44.76173" lon="6.34542">
        <ele>2217</ele>
        <time>2024-08-12T09:24:56Z</time>
      </trkpt>
      <trkpt lat="44.76171" lon="6.34541">
        <ele>2216.8</ele>
        <time>2024-08-12T09:24:57Z</time>
      </trkpt>
      <trkpt lat="44.76171" lon="6.34541">
        <ele>2216.6</ele>
        <time>2024-08-12T09:24:58Z</time>
      </trkpt>
      <trkpt lat="44.76168" lon="6.3454">
        <ele>2216.2</ele>
        <time>2024-08-12T09:24:59Z</time>
      </trkpt>
      <trkpt lat="44.76168" lon="6.3454">
        <ele>2216</ele>
        <time>2024-08-12T09:25:00Z</time>
      </trkpt>
      <trkpt lat="44.76166" lon="6.34538">
        <ele>2215.8</ele>
        <time>2024-08-12T09:25:01Z</time>
      </trkpt>
      <trkpt lat="44.76166" lon="6.34538">
        <ele>2215.6</ele>
        <time>2024-08-12T09:25:02Z</time>
      </trkpt>
      <trkpt lat="44.76166" lon="6.34538">
        <ele>2215.6</ele>
        <time>2024-08-12T09:25:03Z</time>
      </trkpt>
      <trkpt lat="44.76164" lon="6.34537">
        <ele>2215.4</ele>
        <time>2024-08-12T09:25:04Z</time>
      </trkpt>
      <trkpt lat="44.76164" lon="6.34537">
        <ele>2215.2</ele>
        <time>2024-08-12T09:25:05Z</time>
      </trkpt>
      <trkpt lat="44.76162" lon="6.34536">
        <ele>2215</ele>
        <time>2024-08-12T09:25:06Z</time>
      </trkpt>
      <trkpt lat="44.76162" lon="6.34536">
        <ele>2214.6</ele>
        <time>2024-08-12T09:25:07Z</time>
      </trkpt>
      <trkpt lat="44.7616" lon="6.34535">
        <ele>2214.6</ele>
        <time>2024-08-12T09:25:08Z</time>
      </trkpt>
      <trkpt lat="44.7616" lon="6.34535">
        <ele>2214.4</ele>
        <time>2024-08-12T09:25:09Z</time>
      </trkpt>
      <trkpt lat="44.76157" lon="6.34534">
        <ele>2214.4</ele>
        <time>2024-08-12T09:25:10Z</time>
      </trkpt>
      <trkpt lat="44.76157" lon="6.34534">
        <ele>2214.4</ele>
        <time>2024-08-12T09:25:11Z</time>
      </trkpt>
      <trkpt lat="44.76157" lon="6.34534">
        <ele>2214</ele>
        <time>2024-08-12T09:25:12Z</time>
      </trkpt>
      <trkpt lat="44.76154" lon="6.34533">
        <ele>2213.4</ele>
        <time>2024-08-12T09:25:13Z</time>
      </trkpt>
      <trkpt lat="44.76154" lon="6.34533">
        <ele>2213.4</ele>
        <time>2024-08-12T09:25:14Z</time>
      </trkpt>
      <trkpt lat="44.76152" lon="6.34533">
        <ele>2213.4</ele>
        <time>2024-08-12T09:25:15Z</time>
      </trkpt>
      <trkpt lat="44.76152" lon="6.34533">
        <ele>2213.2</ele>
        <time>2024-08-12T09:25:16Z</time>
      </trkpt>
      <trkpt lat="44.7615" lon="6.34532">
        <ele>2212.8</ele>
        <time>2024-08-12T09:25:17Z</time>
      </trkpt>
      <trkpt lat="44.7615" lon="6.34532">
        <ele>2212.8</ele>
        <time>2024-08-12T09:25:18Z</time>
      </trkpt>
      <trkpt lat="44.76148" lon="6.34532">
        <ele>2212.8</ele>
        <time>2024-08-12T09:25:19Z</time>
      </trkpt>
      <trkpt lat="44.76148" lon="6.34532">
        <ele>2212.6</ele>
        <time>2024-08-12T09:25:20Z</time>
      </trkpt>
      <trkpt lat="44.76146" lon="6.34531">
        <ele>2212.4</ele>
        <time>2024-08-12T09:25:21Z</time>
      </trkpt>
      <trkpt lat="44.76146" lon="6.34531">
        <ele>2212</ele>
        <time>2024-08-12T09:25:22Z</time>
      </trkpt>
      <trkpt lat="44.76143" lon="6.34531">
        <ele>2211.8</ele>
        <time>2024-08-12T09:25:23Z</time>
      </trkpt>
      <trkpt lat="44.76143" lon="6.34531">
        <ele>2211.6</ele>
        <time>2024-08-12T09:25:24Z</time>
      </trkpt>
      <trkpt lat="44.76143" lon="6.34531">
        <ele>2211.4</ele>
        <time>2024-08-12T09:25:25Z</time>
      </trkpt>
      <trkpt lat="44.76141" lon="6.34529">
        <ele>2211.2</ele>
        <time>2024-08-12T09:25:26Z</time>
      </trkpt>
      <trkpt lat="44.76141" lon="6.34529">
        <ele>2211</ele>
        <time>2024-08-12T09:25:27Z</time>
      </trkpt>
      <trkpt lat="44.76139" lon="6.34528">
        <ele>2210.8</ele>
        <time>2024-08-12T09:25:28Z</time>
      </trkpt>
      <trkpt lat="44.76139" lon="6.34528">
        <ele>2210.2</ele>
        <time>2024-08-12T09:25:29Z</time>
      </trkpt>
      <trkpt lat="44.76137" lon="6.34527">
        <ele>2210</ele>
        <time>2024-08-12T09:25:30Z</time>
      </trkpt>
      <trkpt lat="44.76137" lon="6.34527">
        <ele>2210</ele>
        <time>2024-08-12T09:25:31Z</time>
      </trkpt>
      <trkpt lat="44.76135" lon="6.34527">
        <ele>2209.6</ele>
        <time>2024-08-12T09:25:32Z</time>
      </trkpt>
      <trkpt lat="44.76135" lon="6.34527">
        <ele>2209.4</ele>
        <time>2024-08-12T09:25:33Z</time>
      </trkpt>
      <trkpt lat="44.76133" lon="6.34526">
        <ele>2209.4</ele>
        <time>2024-08-12T09:25:34Z</time>
      </trkpt>
      <trkpt lat="44.76133" lon="6.34526">
        <ele>2209.4</ele>
        <time>2024-08-12T09:25:35Z</time>
      </trkpt>
      <trkpt lat="44.76133" lon="6.34526">
        <ele>2209.2</ele>
        <time>2024-08-12T09:25:36Z</time>
      </trkpt>
      <trkpt lat="44.76133" lon="6.34526">
        <ele>2208.6</ele>
        <time>2024-08-12T09:25:37Z</time>
      </trkpt>
      <trkpt lat="44.76132" lon="6.34525">
        <ele>2208.4</ele>
        <time>2024-08-12T09:25:38Z</time>
      </trkpt>
      <trkpt lat="44.76132" lon="6.34525">
        <ele>2208.4</ele>
        <time>2024-08-12T09:25:39Z</time>
      </trkpt>
      <trkpt lat="44.76131" lon="6.34523">
        <ele>2208.2</ele>
        <time>2024-08-12T09:25:40Z</time>
      </trkpt>
      <trkpt lat="44.76131" lon="6.34523">
        <ele>2208</ele>
        <time>2024-08-12T09:25:41Z</time>
      </trkpt>
      <trkpt lat="44.76132" lon="6.3452">
        <ele>2207.4</ele>
        <time>2024-08-12T09:25:42Z</time>
      </trkpt>
      <trkpt lat="44.76132" lon="6.3452">
        <ele>2207.2</ele>
        <time>2024-08-12T09:25:43Z</time>
      </trkpt>
      <trkpt lat="44.76134" lon="6.34519">
        <ele>2207.2</ele>
        <time>2024-08-12T09:25:44Z</time>
      </trkpt>
      <trkpt lat="44.76134" lon="6.34519">
        <ele>2207</ele>
        <time>2024-08-12T09:25:45Z</time>
      </trkpt>
      <trkpt lat="44.76137" lon="6.34517">
        <ele>2207</ele>
        <time>2024-08-12T09:25:46Z</time>
      </trkpt>
      <trkpt lat="44.76137" lon="6.34517">
        <ele>2206.8</ele>
        <time>2024-08-12T09:25:47Z</time>
      </trkpt>
      <trkpt lat="44.76139" lon="6.34516">
        <ele>2206.4</ele>
        <time>2024-08-12T09:25:48Z</time>
      </trkpt>
      <trkpt lat="44.76139" lon="6.34516">
        <ele>2206.4</ele>
        <time>2024-08-12T09:25:49Z</time>
      </trkpt>
      <trkpt lat="44.76139" lon="6.34516">
        <ele>2206.4</ele>
        <time>2024-08-12T09:25:50Z</time>
      </trkpt>
      <trkpt lat="44.76141" lon="6.34513">
        <ele>2206.2</ele>
        <time>2024-08-12T09:25:51Z</time>
      </trkpt>
      <trkpt lat="44.76141" lon="6.34513">
        <ele>2205.8</ele>
        <time>2024-08-12T09:25:52Z</time>
      </trkpt>
      <trkpt lat="44.76143" lon="6.34513">
        <ele>2205.6</ele>
        <time>2024-08-12T09:25:53Z</time>
      </trkpt>
      <trkpt lat="44.76143" lon="6.34513">
        <ele>2205.4</ele>
        <time>2024-08-12T09:25:54Z</time>
      </trkpt>
      <trkpt lat="44.76144" lon="6.34511">
        <ele>2205</ele>
        <time>2024-08-12T09:25:55Z</time>
      </trkpt>
      <trkpt lat="44.76144" lon="6.34511">
        <ele>2205</ele>
        <time>2024-08-12T09:25:56Z</time>
      </trkpt>
      <trkpt lat="44.76146" lon="6.34509">
        <ele>2204.8</ele>
        <time>2024-08-12T09:25:57Z</time>
      </trkpt>
      <trkpt lat="44.76146" lon="6.34509">
        <ele>2204.4</ele>
        <time>2024-08-12T09:25:58Z</time>
      </trkpt>
      <trkpt lat="44.76148" lon="6.34508">
        <ele>2204.4</ele>
        <time>2024-08-12T09:25:59Z</time>
      </trkpt>
      <trkpt lat="44.76148" lon="6.34508">
        <ele>2204.2</ele>
        <time>2024-08-12T09:26:00Z</time>
      </trkpt>
      <trkpt lat="44.7615" lon="6.34506">
        <ele>2204</ele>
        <time>2024-08-12T09:26:01Z</time>
      </trkpt>
      <trkpt lat="44.7615" lon="6.34506">
        <ele>2204</ele>
        <time>2024-08-12T09:26:02Z</time>
      </trkpt>
      <trkpt lat="44.76151" lon="6.34505">
        <ele>2204</ele>
        <time>2024-08-12T09:26:03Z</time>
      </trkpt>
      <trkpt lat="44.76151" lon="6.34505">
        <ele>2203.8</ele>
        <time>2024-08-12T09:26:04Z</time>
      </trkpt>
      <trkpt lat="44.76153" lon="6.34504">
        <ele>2203.4</ele>
        <time>2024-08-12T09:26:05Z</time>
      </trkpt>
      <trkpt lat="44.76153" lon="6.34504">
        <ele>2203.2</ele>
        <time>2024-08-12T09:26:06Z</time>
      </trkpt>
      <trkpt lat="44.76153" lon="6.34504">
        <ele>2202.8</ele>
        <time>2024-08-12T09:26:07Z</time>
      </trkpt>
      <trkpt lat="44.76155" lon="6.34501">
        <ele>2202.4</ele>
        <time>2024-08-12T09:26:08Z</time>
      </trkpt>
      <trkpt lat="44.76155" lon="6.34501">
        <ele>2202</ele>
        <time>2024-08-12T09:26:09Z</time>
      </trkpt>
      <trkpt lat="44.76155" lon="6.34501">
        <ele>2202</ele>
        <time>2024-08-12T09:26:10Z</time>
      </trkpt>
      <trkpt lat="44.76157" lon="6.34499">
        <ele>2202</ele>
        <time>2024-08-12T09:26:11Z</time>
      </trkpt>
      <trkpt lat="44.76157" lon="6.34499">
        <ele>2201.8</ele>
        <time>2024-08-12T09:26:12Z</time>
      </trkpt>
      <trkpt lat="44.76157" lon="6.34499">
        <ele>2201.6</ele>
        <time>2024-08-12T09:26:13Z</time>
      </trkpt>
      <trkpt lat="44.76159" lon="6.34498">
        <ele>2201.2</ele>
        <time>2024-08-12T09:26:14Z</time>
      </trkpt>
      <trkpt lat="44.76159" lon="6.34498">
        <ele>2201</ele>
        <time>2024-08-12T09:26:15Z</time>
      </trkpt>
      <trkpt lat="44.76161" lon="6.34496">
        <ele>2201</ele>
        <time>2024-08-12T09:26:16Z</time>
      </trkpt>
      <trkpt lat="44.76161" lon="6.34496">
        <ele>2201.2</ele>
        <time>2024-08-12T09:26:17Z</time>
      </trkpt>
      <trkpt lat="44.76161" lon="6.34496">
        <ele>2201.2</ele>
        <time>2024-08-12T09:26:18Z</time>
      </trkpt>
      <trkpt lat="44.76164" lon="6.34495">
        <ele>2200.6</ele>
        <time>2024-08-12T09:26:19Z</time>
      </trkpt>
      <trkpt lat="44.76164" lon="6.34495">
        <ele>2200.2</ele>
        <time>2024-08-12T09:26:20Z</time>
      </trkpt>
      <trkpt lat="44.76165" lon="6.34494">
        <ele>2200.2</ele>
        <time>2024-08-12T09:26:21Z</time>
      </trkpt>
      <trkpt lat="44.76165" lon="6.34494">
        <ele>2200</ele>
        <time>2024-08-12T09:26:22Z</time>
      </trkpt>
      <trkpt lat="44.76165" lon="6.34494">
        <ele>2199.6</ele>
        <time>2024-08-12T09:26:23Z</time>
      </trkpt>
      <trkpt lat="44.76167" lon="6.34492">
        <ele>2199.4</ele>
        <time>2024-08-12T09:26:24Z</time>
      </trkpt>
      <trkpt lat="44.76167" lon="6.34492">
        <ele>2199</ele>
        <time>2024-08-12T09:26:25Z</time>
      </trkpt>
      <trkpt lat="44.76169" lon="6.34491">
        <ele>2199</ele>
        <time>2024-08-12T09:26:26Z</time>
      </trkpt>
      <trkpt lat="44.76169" lon="6.34491">
        <ele>2198.6</ele>
        <time>2024-08-12T09:26:27Z</time>
      </trkpt>
      <trkpt lat="44.76171" lon="6.34489">
        <ele>2198.6</ele>
        <time>2024-08-12T09:26:28Z</time>
      </trkpt>
      <trkpt lat="44.76171" lon="6.34489">
        <ele>2198.4</ele>
        <time>2024-08-12T09:26:29Z</time>
      </trkpt>
      <trkpt lat="44.76173" lon="6.34487">
        <ele>2198.2</ele>
        <time>2024-08-12T09:26:30Z</time>
      </trkpt>
      <trkpt lat="44.76173" lon="6.34487">
        <ele>2198.2</ele>
        <time>2024-08-12T09:26:31Z</time>
      </trkpt>
      <trkpt lat="44.76175" lon="6.34485">
        <ele>2198</ele>
        <time>2024-08-12T09:26:32Z</time>
      </trkpt>
      <trkpt lat="44.76175" lon="6.34485">
        <ele>2198</ele>
        <time>2024-08-12T09:26:33Z</time>
      </trkpt>
      <trkpt lat="44.76177" lon="6.34484">
        <ele>2198</ele>
        <time>2024-08-12T09:26:34Z</time>
      </trkpt>
      <trkpt lat="44.76177" lon="6.34484">
        <ele>2197.6</ele>
        <time>2024-08-12T09:26:35Z</time>
      </trkpt>
      <trkpt lat="44.7618" lon="6.34484">
        <ele>2197.6</ele>
        <time>2024-08-12T09:26:36Z</time>
      </trkpt>
      <trkpt lat="44.7618" lon="6.34484">
        <ele>2197.4</ele>
        <time>2024-08-12T09:26:37Z</time>
      </trkpt>
      <trkpt lat="44.7618" lon="6.34484">
        <ele>2197</ele>
        <time>2024-08-12T09:26:38Z</time>
      </trkpt>
      <trkpt lat="44.76182" lon="6.34483">
        <ele>2196.6</ele>
        <time>2024-08-12T09:26:39Z</time>
      </trkpt>
      <trkpt lat="44.76182" lon="6.34483">
        <ele>2196.4</ele>
        <time>2024-08-12T09:26:40Z</time>
      </trkpt>
      <trkpt lat="44.76184" lon="6.34482">
        <ele>2196.2</ele>
        <time>2024-08-12T09:26:41Z</time>
      </trkpt>
      <trkpt lat="44.76184" lon="6.34482">
        <ele>2196.2</ele>
        <time>2024-08-12T09:26:42Z</time>
      </trkpt>
      <trkpt lat="44.76186" lon="6.34481">
        <ele>2196.2</ele>
        <time>2024-08-12T09:26:43Z</time>
      </trkpt>
      <trkpt lat="44.76186" lon="6.34481">
        <ele>2196</ele>
        <time>2024-08-12T09:26:44Z</time>
      </trkpt>
      <trkpt lat="44.76188" lon="6.3448">
        <ele>2195.8</ele>
        <time>2024-08-12T09:26:45Z</time>
      </trkpt>
      <trkpt lat="44.76188" lon="6.3448">
        <ele>2195.6</ele>
        <time>2024-08-12T09:26:46Z</time>
      </trkpt>
      <trkpt lat="44.76191" lon="6.34479">
        <ele>2195.4</ele>
        <time>2024-08-12T09:26:47Z</time>
      </trkpt>
      <trkpt lat="44.76191" lon="6.34479">
        <ele>2195.2</ele>
        <time>2024-08-12T09:26:48Z</time>
      </trkpt>
      <trkpt lat="44.76193" lon="6.34479">
        <ele>2195.2</ele>
        <time>2024-08-12T09:26:49Z</time>
      </trkpt>
      <trkpt lat="44.76193" lon="6.34479">
        <ele>2195</ele>
        <time>2024-08-12T09:26:50Z</time>
      </trkpt>
      <trkpt lat="44.76195" lon="6.34479">
        <ele>2194.8</ele>
        <time>2024-08-12T09:26:51Z</time>
      </trkpt>
      <trkpt lat="44.76195" lon="6.34479">
        <ele>2194.8</ele>
        <time>2024-08-12T09:26:52Z</time>
      </trkpt>
      <trkpt lat="44.76197" lon="6.34479">
        <ele>2194.4</ele>
        <time>2024-08-12T09:26:53Z</time>
      </trkpt>
      <trkpt lat="44.76197" lon="6.34479">
        <ele>2194.2</ele>
        <time>2024-08-12T09:26:54Z</time>
      </trkpt>
      <trkpt lat="44.762" lon="6.34479">
        <ele>2194</ele>
        <time>2024-08-12T09:26:55Z</time>
      </trkpt>
      <trkpt lat="44.762" lon="6.34479">
        <ele>2193.6</ele>
        <time>2024-08-12T09:26:56Z</time>
      </trkpt>
      <trkpt lat="44.76202" lon="6.34478">
        <ele>2193.6</ele>
        <time>2024-08-12T09:26:57Z</time>
      </trkpt>
      <trkpt lat="44.76202" lon="6.34478">
        <ele>2193.4</ele>
        <time>2024-08-12T09:26:58Z</time>
      </trkpt>
      <trkpt lat="44.76204" lon="6.34477">
        <ele>2193.4</ele>
        <time>2024-08-12T09:26:59Z</time>
      </trkpt>
      <trkpt lat="44.76204" lon="6.34477">
        <ele>2193.2</ele>
        <time>2024-08-12T09:27:00Z</time>
      </trkpt>
      <trkpt lat="44.76206" lon="6.34476">
        <ele>2192.8</ele>
        <time>2024-08-12T09:27:01Z</time>
      </trkpt>
      <trkpt lat="44.76206" lon="6.34476">
        <ele>2192</ele>
        <time>2024-08-12T09:27:02Z</time>
      </trkpt>
      <trkpt lat="44.76208" lon="6.34475">
        <ele>2192</ele>
        <time>2024-08-12T09:27:03Z</time>
      </trkpt>
      <trkpt lat="44.76208" lon="6.34475">
        <ele>2191.8</ele>
        <time>2024-08-12T09:27:04Z</time>
      </trkpt>
      <trkpt lat="44.7621" lon="6.34474">
        <ele>2191.4</ele>
        <time>2024-08-12T09:27:05Z</time>
      </trkpt>
      <trkpt lat="44.7621" lon="6.34474">
        <ele>2191.2</ele>
        <time>2024-08-12T09:27:06Z</time>
      </trkpt>
      <trkpt lat="44.7621" lon="6.34474">
        <ele>2191.2</ele>
        <time>2024-08-12T09:27:07Z</time>
      </trkpt>
      <trkpt lat="44.76212" lon="6.34473">
        <ele>2191.2</ele>
        <time>2024-08-12T09:27:08Z</time>
      </trkpt>
      <trkpt lat="44.76212" lon="6.34473">
        <ele>2191</ele>
        <time>2024-08-12T09:27:09Z</time>
      </trkpt>
      <trkpt lat="44.76212" lon="6.34473">
        <ele>2190.6</ele>
        <time>2024-08-12T09:27:10Z</time>
      </trkpt>
      <trkpt lat="44.76212" lon="6.34473">
        <ele>2190.6</ele>
        <time>2024-08-12T09:27:11Z</time>
      </trkpt>
      <trkpt lat="44.76213" lon="6.34471">
        <ele>2190.4</ele>
        <time>2024-08-12T09:27:12Z</time>
      </trkpt>
      <trkpt lat="44.76213" lon="6.34471">
        <ele>2190</ele>
        <time>2024-08-12T09:27:13Z</time>
      </trkpt>
      <trkpt lat="44.76213" lon="6.34471">
        <ele>2190</ele>
        <time>2024-08-12T09:27:14Z</time>
      </trkpt>
      <trkpt lat="44.76212" lon="6.34468">
        <ele>2190</ele>
        <time>2024-08-12T09:27:15Z</time>
      </trkpt>
      <trkpt lat="44.76212" lon="6.34468">
        <ele>2190</ele>
        <time>2024-08-12T09:27:16Z</time>
      </trkpt>
      <trkpt lat="44.76212" lon="6.34468">
        <ele>2189.8</ele>
        <time>2024-08-12T09:27:17Z</time>
      </trkpt>
      <trkpt lat="44.7621" lon="6.34465">
        <ele>2189.8</ele>
        <time>2024-08-12T09:27:18Z</time>
      </trkpt>
      <trkpt lat="44.7621" lon="6.34465">
        <ele>2189.4</ele>
        <time>2024-08-12T09:27:19Z</time>
      </trkpt>
      <trkpt lat="44.7621" lon="6.34465">
        <ele>2189.2</ele>
        <time>2024-08-12T09:27:20Z</time>
      </trkpt>
      <trkpt lat="44.76209" lon="6.34462">
        <ele>2189</ele>
        <time>2024-08-12T09:27:21Z</time>
      </trkpt>
      <trkpt lat="44.76209" lon="6.34462">
        <ele>2188.8</ele>
        <time>2024-08-12T09:27:22Z</time>
      </trkpt>
      <trkpt lat="44.76207" lon="6.3446">
        <ele>2188.6</ele>
        <time>2024-08-12T09:27:23Z</time>
      </trkpt>
      <trkpt lat="44.76207" lon="6.3446">
        <ele>2188.6</ele>
        <time>2024-08-12T09:27:24Z</time>
      </trkpt>
      <trkpt lat="44.76205" lon="6.34458">
        <ele>2188.6</ele>
        <time>2024-08-12T09:27:25Z</time>
      </trkpt>
      <trkpt lat="44.76205" lon="6.34458">
        <ele>2188.2</ele>
        <time>2024-08-12T09:27:26Z</time>
      </trkpt>
      <trkpt lat="44.76204" lon="6.34456">
        <ele>2187.8</ele>
        <time>2024-08-12T09:27:27Z</time>
      </trkpt>
      <trkpt lat="44.76204" lon="6.34456">
        <ele>2187.4</ele>
        <time>2024-08-12T09:27:28Z</time>
      </trkpt>
      <trkpt lat="44.76204" lon="6.34456">
        <ele>2187</ele>
        <time>2024-08-12T09:27:29Z</time>
      </trkpt>
      <trkpt lat="44.76202" lon="6.34453">
        <ele>2186.8</ele>
        <time>2024-08-12T09:27:30Z</time>
      </trkpt>
      <trkpt lat="44.76202" lon="6.34453">
        <ele>2186.4</ele>
        <time>2024-08-12T09:27:31Z</time>
      </trkpt>
      <trkpt lat="44.76202" lon="6.34453">
        <ele>2186.2</ele>
        <time>2024-08-12T09:27:32Z</time>
      </trkpt>
      <trkpt lat="44.76201" lon="6.34451">
        <ele>2185.8</ele>
        <time>2024-08-12T09:27:33Z</time>
      </trkpt>
      <trkpt lat="44.76201" lon="6.34451">
        <ele>2185.4</ele>
        <time>2024-08-12T09:27:34Z</time>
      </trkpt>
      <trkpt lat="44.76201" lon="6.34451">
        <ele>2185.4</ele>
        <time>2024-08-12T09:27:35Z</time>
      </trkpt>
      <trkpt lat="44.76199" lon="6.34448">
        <ele>2185</ele>
        <time>2024-08-12T09:27:36Z</time>
      </trkpt>
      <trkpt lat="44.76199" lon="6.34448">
        <ele>2185</ele>
        <time>2024-08-12T09:27:37Z</time>
      </trkpt>
      <trkpt lat="44.76198" lon="6.34446">
        <ele>2184.8</ele>
        <time>2024-08-12T09:27:38Z</time>
      </trkpt>
      <trkpt lat="44.76198" lon="6.34446">
        <ele>2184.6</ele>
        <time>2024-08-12T09:27:39Z</time>
      </trkpt>
      <trkpt lat="44.76197" lon="6.34443">
        <ele>2184.2</ele>
        <time>2024-08-12T09:27:40Z</time>
      </trkpt>
      <trkpt lat="44.76197" lon="6.34443">
        <ele>2184</ele>
        <time>2024-08-12T09:27:41Z</time>
      </trkpt>
      <trkpt lat="44.76196" lon="6.34441">
        <ele>2183.6</ele>
        <time>2024-08-12T09:27:42Z</time>
      </trkpt>
      <trkpt lat="44.76196" lon="6.34441">
        <ele>2183.4</ele>
        <time>2024-08-12T09:27:43Z</time>
      </trkpt>
      <trkpt lat="44.76194" lon="6.34439">
        <ele>2183</ele>
        <time>2024-08-12T09:27:44Z</time>
      </trkpt>
      <trkpt lat="44.76194" lon="6.34439">
        <ele>2182.8</ele>
        <time>2024-08-12T09:27:45Z</time>
      </trkpt>
      <trkpt lat="44.76192" lon="6.34437">
        <ele>2182.6</ele>
        <time>2024-08-12T09:27:46Z</time>
      </trkpt>
      <trkpt lat="44.76192" lon="6.34437">
        <ele>2182.2</ele>
        <time>2024-08-12T09:27:47Z</time>
      </trkpt>
      <trkpt lat="44.76192" lon="6.34437">
        <ele>2181.8</ele>
        <time>2024-08-12T09:27:48Z</time>
      </trkpt>
      <trkpt lat="44.76191" lon="6.34435">
        <ele>2181.4</ele>
        <time>2024-08-12T09:27:49Z</time>
      </trkpt>
      <trkpt lat="44.76191" lon="6.34435">
        <ele>2181.4</ele>
        <time>2024-08-12T09:27:50Z</time>
      </trkpt>
      <trkpt lat="44.7619" lon="6.34432">
        <ele>2181.2</ele>
        <time>2024-08-12T09:27:51Z</time>
      </trkpt>
      <trkpt lat="44.7619" lon="6.34432">
        <ele>2180.8</ele>
        <time>2024-08-12T09:27:52Z</time>
      </trkpt>
      <trkpt lat="44.76189" lon="6.34429">
        <ele>2180.4</ele>
        <time>2024-08-12T09:27:53Z</time>
      </trkpt>
      <trkpt lat="44.76189" lon="6.34429">
        <ele>2179.8</ele>
        <time>2024-08-12T09:27:54Z</time>
      </trkpt>
      <trkpt lat="44.76188" lon="6.34427">
        <ele>2179.6</ele>
        <time>2024-08-12T09:27:55Z</time>
      </trkpt>
      <trkpt lat="44.76188" lon="6.34427">
        <ele>2179.2</ele>
        <time>2024-08-12T09:27:56Z</time>
      </trkpt>
      <trkpt lat="44.76188" lon="6.34427">
        <ele>2179</ele>
        <time>2024-08-12T09:27:57Z</time>
      </trkpt>
      <trkpt lat="44.76186" lon="6.34424">
        <ele>2178.8</ele>
        <time>2024-08-12T09:27:58Z</time>
      </trkpt>
      <trkpt lat="44.76186" lon="6.34424">
        <ele>2178.6</ele>
        <time>2024-08-12T09:27:59Z</time>
      </trkpt>
      <trkpt lat="44.76184" lon="6.34422">
        <ele>2177.8</ele>
        <time>2024-08-12T09:28:00Z</time>
      </trkpt>
      <trkpt lat="44.76184" lon="6.34422">
        <ele>2177.8</ele>
        <time>2024-08-12T09:28:01Z</time>
      </trkpt>
      <trkpt lat="44.76182" lon="6.3442">
        <ele>2178</ele>
        <time>2024-08-12T09:28:02Z</time>
      </trkpt>
      <trkpt lat="44.76182" lon="6.3442">
        <ele>2178</ele>
        <time>2024-08-12T09:28:03Z</time>
      </trkpt>
      <trkpt lat="44.7618" lon="6.34418">
        <ele>2177.6</ele>
        <time>2024-08-12T09:28:04Z</time>
      </trkpt>
      <trkpt lat="44.7618" lon="6.34418">
        <ele>2177.6</ele>
        <time>2024-08-12T09:28:05Z</time>
      </trkpt>
      <trkpt lat="44.76179" lon="6.34416">
        <ele>2177.4</ele>
        <time>2024-08-12T09:28:06Z</time>
      </trkpt>
      <trkpt lat="44.76179" lon="6.34416">
        <ele>2177.2</ele>
        <time>2024-08-12T09:28:07Z</time>
      </trkpt>
      <trkpt lat="44.76178" lon="6.34414">
        <ele>2177</ele>
        <time>2024-08-12T09:28:08Z</time>
      </trkpt>
      <trkpt lat="44.76178" lon="6.34414">
        <ele>2177</ele>
        <time>2024-08-12T09:28:09Z</time>
      </trkpt>
      <trkpt lat="44.76178" lon="6.34414">
        <ele>2177</ele>
        <time>2024-08-12T09:28:10Z</time>
      </trkpt>
      <trkpt lat="44.76175" lon="6.34413">
        <ele>2176.8</ele>
        <time>2024-08-12T09:28:11Z</time>
      </trkpt>
      <trkpt lat="44.76175" lon="6.34413">
        <ele>2176.2</ele>
        <time>2024-08-12T09:28:12Z</time>
      </trkpt>
      <trkpt lat="44.76175" lon="6.34413">
        <ele>2176</ele>
        <time>2024-08-12T09:28:13Z</time>
      </trkpt>
      <trkpt lat="44.76173" lon="6.34413">
        <ele>2175.8</ele>
        <time>2024-08-12T09:28:14Z</time>
      </trkpt>
      <trkpt lat="44.76173" lon="6.34413">
        <ele>2175.6</ele>
        <time>2024-08-12T09:28:15Z</time>
      </trkpt>
      <trkpt lat="44.76171" lon="6.34412">
        <ele>2175.4</ele>
        <time>2024-08-12T09:28:16Z</time>
      </trkpt>
      <trkpt lat="44.76171" lon="6.34412">
        <ele>2175.2</ele>
        <time>2024-08-12T09:28:17Z</time>
      </trkpt>
      <trkpt lat="44.76169" lon="6.34411">
        <ele>2175</ele>
        <time>2024-08-12T09:28:18Z</time>
      </trkpt>
      <trkpt lat="44.76169" lon="6.34411">
        <ele>2174.8</ele>
        <time>2024-08-12T09:28:19Z</time>
      </trkpt>
      <trkpt lat="44.76168" lon="6.34409">
        <ele>2174.4</ele>
        <time>2024-08-12T09:28:20Z</time>
      </trkpt>
      <trkpt lat="44.76168" lon="6.34409">
        <ele>2174.2</ele>
        <time>2024-08-12T09:28:21Z</time>
      </trkpt>
      <trkpt lat="44.76166" lon="6.34408">
        <ele>2174</ele>
        <time>2024-08-12T09:28:22Z</time>
      </trkpt>
      <trkpt lat="44.76166" lon="6.34408">
        <ele>2173.8</ele>
        <time>2024-08-12T09:28:23Z</time>
      </trkpt>
      <trkpt lat="44.76164" lon="6.34408">
        <ele>2173.4</ele>
        <time>2024-08-12T09:28:24Z</time>
      </trkpt>
      <trkpt lat="44.76164" lon="6.34408">
        <ele>2173</ele>
        <time>2024-08-12T09:28:25Z</time>
      </trkpt>
      <trkpt lat="44.76164" lon="6.34408">
        <ele>2173</ele>
        <time>2024-08-12T09:28:26Z</time>
      </trkpt>
      <trkpt lat="44.76161" lon="6.34407">
        <ele>2172.8</ele>
        <time>2024-08-12T09:28:27Z</time>
      </trkpt>
      <trkpt lat="44.76161" lon="6.34407">
        <ele>2172.4</ele>
        <time>2024-08-12T09:28:28Z</time>
      </trkpt>
      <trkpt lat="44.76159" lon="6.34406">
        <ele>2172.4</ele>
        <time>2024-08-12T09:28:29Z</time>
      </trkpt>
      <trkpt lat="44.76159" lon="6.34406">
        <ele>2172.2</ele>
        <time>2024-08-12T09:28:30Z</time>
      </trkpt>
      <trkpt lat="44.76157" lon="6.34404">
        <ele>2171.8</ele>
        <time>2024-08-12T09:28:31Z</time>
      </trkpt>
      <trkpt lat="44.76157" lon="6.34404">
        <ele>2171.8</ele>
        <time>2024-08-12T09:28:32Z</time>
      </trkpt>
      <trkpt lat="44.76154" lon="6.34404">
        <ele>2171.6</ele>
        <time>2024-08-12T09:28:33Z</time>
      </trkpt>
      <trkpt lat="44.76154" lon="6.34404">
        <ele>2171.2</ele>
        <time>2024-08-12T09:28:34Z</time>
      </trkpt>
      <trkpt lat="44.76154" lon="6.34404">
        <ele>2171.2</ele>
        <time>2024-08-12T09:28:35Z</time>
      </trkpt>
      <trkpt lat="44.76152" lon="6.34404">
        <ele>2170.6</ele>
        <time>2024-08-12T09:28:36Z</time>
      </trkpt>
      <trkpt lat="44.76152" lon="6.34404">
        <ele>2170</ele>
        <time>2024-08-12T09:28:37Z</time>
      </trkpt>
      <trkpt lat="44.76152" lon="6.34404">
        <ele>2169.8</ele>
        <time>2024-08-12T09:28:38Z</time>
      </trkpt>
      <trkpt lat="44.7615" lon="6.34402">
        <ele>2169.6</ele>
        <time>2024-08-12T09:28:39Z</time>
      </trkpt>
      <trkpt lat="44.7615" lon="6.34402">
        <ele>2169.4</ele>
        <time>2024-08-12T09:28:40Z</time>
      </trkpt>
      <trkpt lat="44.76148" lon="6.34401">
        <ele>2169.2</ele>
        <time>2024-08-12T09:28:41Z</time>
      </trkpt>
      <trkpt lat="44.76148" lon="6.34401">
        <ele>2169</ele>
        <time>2024-08-12T09:28:42Z</time>
      </trkpt>
      <trkpt lat="44.76146" lon="6.34401">
        <ele>2168.6</ele>
        <time>2024-08-12T09:28:43Z</time>
      </trkpt>
      <trkpt lat="44.76146" lon="6.34401">
        <ele>2168.2</ele>
        <time>2024-08-12T09:28:44Z</time>
      </trkpt>
      <trkpt lat="44.76146" lon="6.34401">
        <ele>2168</ele>
        <time>2024-08-12T09:28:45Z</time>
      </trkpt>
      <trkpt lat="44.76146" lon="6.34401">
        <ele>2167.8</ele>
        <time>2024-08-12T09:28:46Z</time>
      </trkpt>
      <trkpt lat="44.76146" lon="6.34401">
        <ele>2167.6</ele>
        <time>2024-08-12T09:28:47Z</time>
      </trkpt>
      <trkpt lat="44.76146" lon="6.34401">
        <ele>2167.6</ele>
        <time>2024-08-12T09:28:48Z</time>
      </trkpt>
      <trkpt lat="44.76146" lon="6.34401">
        <ele>2167.6</ele>
        <time>2024-08-12T09:28:49Z</time>
      </trkpt>
      <trkpt lat="44.76146" lon="6.34401">
        <ele>2167.6</ele>
        <time>2024-08-12T09:28:50Z</time>
      </trkpt>
      <trkpt lat="44.76146" lon="6.34401">
        <ele>2167.4</ele>
        <time>2024-08-12T09:28:51Z</time>
      </trkpt>
      <trkpt lat="44.76146" lon="6.34401">
        <ele>2167.2</ele>
        <time>2024-08-12T09:28:52Z</time>
      </trkpt>
      <trkpt lat="44.76146" lon="6.34401">
        <ele>2167.2</ele>
        <time>2024-08-12T09:28:53Z</time>
      </trkpt>
      <trkpt lat="44.76146" lon="6.34401">
        <ele>2167.2</ele>
        <time>2024-08-12T09:28:54Z</time>
      </trkpt>
      <trkpt lat="44.76144" lon="6.34399">
        <ele>2167.2</ele>
        <time>2024-08-12T09:28:55Z</time>
      </trkpt>
      <trkpt lat="44.76144" lon="6.34399">
        <ele>2167</ele>
        <time>2024-08-12T09:28:56Z</time>
      </trkpt>
      <trkpt lat="44.76141" lon="6.34398">
        <ele>2167</ele>
        <time>2024-08-12T09:28:57Z</time>
      </trkpt>
      <trkpt lat="44.76141" lon="6.34398">
        <ele>2166.8</ele>
        <time>2024-08-12T09:28:58Z</time>
      </trkpt>
      <trkpt lat="44.76141" lon="6.34398">
        <ele>2166.4</ele>
        <time>2024-08-12T09:28:59Z</time>
      </trkpt>
      <trkpt lat="44.76141" lon="6.34398">
        <ele>2166.2</ele>
        <time>2024-08-12T09:29:00Z</time>
      </trkpt>
      <trkpt lat="44.76141" lon="6.34398">
        <ele>2166.2</ele>
        <time>2024-08-12T09:29:01Z</time>
      </trkpt>
      <trkpt lat="44.76141" lon="6.34398">
        <ele>2166</ele>
        <time>2024-08-12T09:29:02Z</time>
      </trkpt>
      <trkpt lat="44.76141" lon="6.34398">
        <ele>2166</ele>
        <time>2024-08-12T09:29:03Z</time>
      </trkpt>
      <trkpt lat="44.76141" lon="6.34398">
        <ele>2165.8</ele>
        <time>2024-08-12T09:29:04Z</time>
      </trkpt>
      <trkpt lat="44.76141" lon="6.34398">
        <ele>2165.6</ele>
        <time>2024-08-12T09:29:05Z</time>
      </trkpt>
      <trkpt lat="44.76141" lon="6.34398">
        <ele>2165.4</ele>
        <time>2024-08-12T09:29:06Z</time>
      </trkpt>
      <trkpt lat="44.76141" lon="6.34398">
        <ele>2165.2</ele>
        <time>2024-08-12T09:29:07Z</time>
      </trkpt>
      <trkpt lat="44.76141" lon="6.34398">
        <ele>2165.2</ele>
        <time>2024-08-12T09:29:08Z</time>
      </trkpt>
      <trkpt lat="44.76141" lon="6.34398">
        <ele>2165.4</ele>
        <time>2024-08-12T09:29:09Z</time>
      </trkpt>
      <trkpt lat="44.76141" lon="6.34398">
        <ele>2165.8</ele>
        <time>2024-08-12T09:29:10Z</time>
      </trkpt>
      <trkpt lat="44.76141" lon="6.34398">
        <ele>2165.8</ele>
        <time>2024-08-12T09:29:11Z</time>
      </trkpt>
      <trkpt lat="44.76141" lon="6.34398">
        <ele>2165</ele>
        <time>2024-08-12T09:29:12Z</time>
      </trkpt>
      <trkpt lat="44.76141" lon="6.34398">
        <ele>2165</ele>
        <time>2024-08-12T09:29:13Z</time>
      </trkpt>
      <trkpt lat="44.76141" lon="6.34398">
        <ele>2165</ele>
        <time>2024-08-12T09:29:14Z</time>
      </trkpt>
      <trkpt lat="44.76141" lon="6.34398">
        <ele>2165</ele>
        <time>2024-08-12T09:29:15Z</time>
      </trkpt>
      <trkpt lat="44.76141" lon="6.34398">
        <ele>2165</ele>
        <time>2024-08-12T09:29:16Z</time>
      </trkpt>
      <trkpt lat="44.76141" lon="6.34398">
        <ele>2165</ele>
        <time>2024-08-12T09:29:17Z</time>
      </trkpt>
      <trkpt lat="44.76141" lon="6.34398">
        <ele>2165</ele>
        <time>2024-08-12T09:29:18Z</time>
      </trkpt>
      <trkpt lat="44.76141" lon="6.34398">
        <ele>2165</ele>
        <time>2024-08-12T09:29:19Z</time>
      </trkpt>
      <trkpt lat="44.76141" lon="6.34398">
        <ele>2165</ele>
        <time>2024-08-12T09:29:20Z</time>
      </trkpt>
      <trkpt lat="44.76141" lon="6.34398">
        <ele>2165</ele>
        <time>2024-08-12T09:29:21Z</time>
      </trkpt>
      <trkpt lat="44.76141" lon="6.34398">
        <ele>2165</ele>
        <time>2024-08-12T09:29:22Z</time>
      </trkpt>
      <trkpt lat="44.76141" lon="6.34398">
        <ele>2165</ele>
        <time>2024-08-12T09:29:23Z</time>
      </trkpt>
      <trkpt lat="44.76141" lon="6.34398">
        <ele>2164.8</ele>
        <time>2024-08-12T09:29:24Z</time>
      </trkpt>
      <trkpt lat="44.76141" lon="6.34398">
        <ele>2164.8</ele>
        <time>2024-08-12T09:29:25Z</time>
      </trkpt>
      <trkpt lat="44.76141" lon="6.34398">
        <ele>2164.6</ele>
        <time>2024-08-12T09:29:26Z</time>
      </trkpt>
      <trkpt lat="44.76141" lon="6.34398">
        <ele>2164.6</ele>
        <time>2024-08-12T09:29:27Z</time>
      </trkpt>
      <trkpt lat="44.76141" lon="6.34398">
        <ele>2164.2</ele>
        <time>2024-08-12T09:29:28Z</time>
      </trkpt>
      <trkpt lat="44.76141" lon="6.34398">
        <ele>2164.2</ele>
        <time>2024-08-12T09:29:29Z</time>
      </trkpt>
      <trkpt lat="44.76141" lon="6.34398">
        <ele>2164.2</ele>
        <time>2024-08-12T09:29:30Z</time>
      </trkpt>
      <trkpt lat="44.76141" lon="6.34398">
        <ele>2164.4</ele>
        <time>2024-08-12T09:29:31Z</time>
      </trkpt>
      <trkpt lat="44.76141" lon="6.34398">
        <ele>2164.4</ele>
        <time>2024-08-12T09:29:32Z</time>
      </trkpt>
      <trkpt lat="44.76141" lon="6.34398">
        <ele>2164.4</ele>
        <time>2024-08-12T09:29:33Z</time>
      </trkpt>
      <trkpt lat="44.76141" lon="6.34398">
        <ele>2164.2</ele>
        <time>2024-08-12T09:29:34Z</time>
      </trkpt>
      <trkpt lat="44.76141" lon="6.34398">
        <ele>2164.2</ele>
        <time>2024-08-12T09:29:35Z</time>
      </trkpt>
      <trkpt lat="44.76141" lon="6.34398">
        <ele>2164.2</ele>
        <time>2024-08-12T09:29:36Z</time>
      </trkpt>
      <trkpt lat="44.76141" lon="6.34398">
        <ele>2164.2</ele>
        <time>2024-08-12T09:29:37Z</time>
      </trkpt>
      <trkpt lat="44.76141" lon="6.34398">
        <ele>2164.2</ele>
        <time>2024-08-12T09:29:38Z</time>
      </trkpt>
      <trkpt lat="44.76141" lon="6.34398">
        <ele>2164.2</ele>
        <time>2024-08-12T09:29:39Z</time>
      </trkpt>
      <trkpt lat="44.76141" lon="6.34398">
        <ele>2164.2</ele>
        <time>2024-08-12T09:29:40Z</time>
      </trkpt>
      <trkpt lat="44.76141" lon="6.34398">
        <ele>2164.2</ele>
        <time>2024-08-12T09:29:41Z</time>
      </trkpt>
      <trkpt lat="44.76141" lon="6.34398">
        <ele>2164</ele>
        <time>2024-08-12T09:29:42Z</time>
      </trkpt>
      <trkpt lat="44.76141" lon="6.34398">
        <ele>2164</ele>
        <time>2024-08-12T09:29:43Z</time>
      </trkpt>
      <trkpt lat="44.76141" lon="6.34398">
        <ele>2164</ele>
        <time>2024-08-12T09:29:44Z</time>
      </trkpt>
      <trkpt lat="44.76141" lon="6.34398">
        <ele>2164.2</ele>
        <time>2024-08-12T09:29:45Z</time>
      </trkpt>
      <trkpt lat="44.76141" lon="6.34398">
        <ele>2164.2</ele>
        <time>2024-08-12T09:29:46Z</time>
      </trkpt>
      <trkpt lat="44.76141" lon="6.34398">
        <ele>2164.2</ele>
        <time>2024-08-12T09:29:47Z</time>
      </trkpt>
      <trkpt lat="44.76141" lon="6.34398">
        <ele>2164.4</ele>
        <time>2024-08-12T09:29:48Z</time>
      </trkpt>
      <trkpt lat="44.76141" lon="6.34398">
        <ele>2164.4</ele>
        <time>2024-08-12T09:29:49Z</time>
      </trkpt>
      <trkpt lat="44.76141" lon="6.34398">
        <ele>2164.4</ele>
        <time>2024-08-12T09:29:50Z</time>
      </trkpt>
      <trkpt lat="44.76141" lon="6.34398">
        <ele>2164.4</ele>
        <time>2024-08-12T09:29:51Z</time>
      </trkpt>
      <trkpt lat="44.76141" lon="6.34398">
        <ele>2164.2</ele>
        <time>2024-08-12T09:29:52Z</time>
      </trkpt>
      <trkpt lat="44.76141" lon="6.34398">
        <ele>2164.2</ele>
        <time>2024-08-12T09:29:53Z</time>
      </trkpt>
      <trkpt lat="44.76141" lon="6.34398">
        <ele>2164</ele>
        <time>2024-08-12T09:29:54Z</time>
      </trkpt>
      <trkpt lat="44.76141" lon="6.34398">
        <ele>2164</ele>
        <time>2024-08-12T09:29:55Z</time>
      </trkpt>
      <trkpt lat="44.76141" lon="6.34398">
        <ele>2163.8</ele>
        <time>2024-08-12T09:29:56Z</time>
      </trkpt>
      <trkpt lat="44.76141" lon="6.34398">
        <ele>2164</ele>
        <time>2024-08-12T09:29:57Z</time>
      </trkpt>
      <trkpt lat="44.76141" lon="6.34398">
        <ele>2164</ele>
        <time>2024-08-12T09:29:58Z</time>
      </trkpt>
      <trkpt lat="44.76141" lon="6.34398">
        <ele>2164.2</ele>
        <time>2024-08-12T09:29:59Z</time>
      </trkpt>
      <trkpt lat="44.76141" lon="6.34398">
        <ele>2164.2</ele>
        <time>2024-08-12T09:30:00Z</time>
      </trkpt>
      <trkpt lat="44.76141" lon="6.34398">
        <ele>2163.6</ele>
        <time>2024-08-12T09:30:01Z</time>
      </trkpt>
      <trkpt lat="44.76141" lon="6.34398">
        <ele>2163.4</ele>
        <time>2024-08-12T09:30:02Z</time>
      </trkpt>
      <trkpt lat="44.76141" lon="6.34398">
        <ele>2163.4</ele>
        <time>2024-08-12T09:30:03Z</time>
      </trkpt>
      <trkpt lat="44.76141" lon="6.34398">
        <ele>2163.6</ele>
        <time>2024-08-12T09:30:04Z</time>
      </trkpt>
      <trkpt lat="44.76141" lon="6.34398">
        <ele>2163.8</ele>
        <time>2024-08-12T09:30:05Z</time>
      </trkpt>
      <trkpt lat="44.76141" lon="6.34398">
        <ele>2163.8</ele>
        <time>2024-08-12T09:30:06Z</time>
      </trkpt>
      <trkpt lat="44.76141" lon="6.34398">
        <ele>2163.8</ele>
        <time>2024-08-12T09:30:07Z</time>
      </trkpt>
      <trkpt lat="44.76141" lon="6.34398">
        <ele>2163.8</ele>
        <time>2024-08-12T09:30:08Z</time>
      </trkpt>
      <trkpt lat="44.76141" lon="6.34398">
        <ele>2164</ele>
        <time>2024-08-12T09:30:09Z</time>
      </trkpt>
      <trkpt lat="44.76141" lon="6.34398">
        <ele>2164</ele>
        <time>2024-08-12T09:30:10Z</time>
      </trkpt>
      <trkpt lat="44.76141" lon="6.34398">
        <ele>2164</ele>
        <time>2024-08-12T09:30:11Z</time>
      </trkpt>
      <trkpt lat="44.76141" lon="6.34398">
        <ele>2164</ele>
        <time>2024-08-12T09:30:12Z</time>
      </trkpt>
      <trkpt lat="44.76141" lon="6.34398">
        <ele>2163.8</ele>
        <time>2024-08-12T09:30:13Z</time>
      </trkpt>
      <trkpt lat="44.76141" lon="6.34398">
        <ele>2163.8</ele>
        <time>2024-08-12T09:30:14Z</time>
      </trkpt>
      <trkpt lat="44.76141" lon="6.34398">
        <ele>2164</ele>
        <time>2024-08-12T09:30:15Z</time>
      </trkpt>
      <trkpt lat="44.76141" lon="6.34398">
        <ele>2164</ele>
        <time>2024-08-12T09:30:16Z</time>
      </trkpt>
      <trkpt lat="44.76141" lon="6.34398">
        <ele>2163.8</ele>
        <time>2024-08-12T09:30:17Z</time>
      </trkpt>
      <trkpt lat="44.76141" lon="6.34398">
        <ele>2163.8</ele>
        <time>2024-08-12T09:30:18Z</time>
      </trkpt>
      <trkpt lat="44.76141" lon="6.34398">
        <ele>2164</ele>
        <time>2024-08-12T09:30:19Z</time>
      </trkpt>
      <trkpt lat="44.76141" lon="6.34398">
        <ele>2164</ele>
        <time>2024-08-12T09:30:20Z</time>
      </trkpt>
      <trkpt lat="44.76141" lon="6.34398">
        <ele>2163.8</ele>
        <time>2024-08-12T09:30:21Z</time>
      </trkpt>
      <trkpt lat="44.76141" lon="6.34398">
        <ele>2163.8</ele>
        <time>2024-08-12T09:30:22Z</time>
      </trkpt>
      <trkpt lat="44.76141" lon="6.34398">
        <ele>2164</ele>
        <time>2024-08-12T09:30:23Z</time>
      </trkpt>
      <trkpt lat="44.76141" lon="6.34398">
        <ele>2164</ele>
        <time>2024-08-12T09:30:24Z</time>
      </trkpt>
      <trkpt lat="44.76141" lon="6.34398">
        <ele>2163.8</ele>
        <time>2024-08-12T09:30:25Z</time>
      </trkpt>
      <trkpt lat="44.76141" lon="6.34398">
        <ele>2163.8</ele>
        <time>2024-08-12T09:30:26Z</time>
      </trkpt>
      <trkpt lat="44.76141" lon="6.34398">
        <ele>2164</ele>
        <time>2024-08-12T09:30:27Z</time>
      </trkpt>
      <trkpt lat="44.76141" lon="6.34398">
        <ele>2163.8</ele>
        <time>2024-08-12T09:30:28Z</time>
      </trkpt>
      <trkpt lat="44.76141" lon="6.34398">
        <ele>2163.8</ele>
        <time>2024-08-12T09:30:29Z</time>
      </trkpt>
      <trkpt lat="44.76141" lon="6.34398">
        <ele>2163.8</ele>
        <time>2024-08-12T09:30:30Z</time>
      </trkpt>
      <trkpt lat="44.76141" lon="6.34398">
        <ele>2163.8</ele>
        <time>2024-08-12T09:30:31Z</time>
      </trkpt>
      <trkpt lat="44.76141" lon="6.34398">
        <ele>2163.8</ele>
        <time>2024-08-12T09:30:32Z</time>
      </trkpt>
      <trkpt lat="44.76141" lon="6.34398">
        <ele>2163.8</ele>
        <time>2024-08-12T09:30:33Z</time>
      </trkpt>
      <trkpt lat="44.76141" lon="6.34398">
        <ele>2163.8</ele>
        <time>2024-08-12T09:30:34Z</time>
      </trkpt>
      <trkpt lat="44.76141" lon="6.34398">
        <ele>2164</ele>
        <time>2024-08-12T09:30:35Z</time>
      </trkpt>
      <trkpt lat="44.76141" lon="6.34398">
        <ele>2164.2</ele>
        <time>2024-08-12T09:30:36Z</time>
      </trkpt>
      <trkpt lat="44.76141" lon="6.34398">
        <ele>2164.2</ele>
        <time>2024-08-12T09:30:37Z</time>
      </trkpt>
      <trkpt lat="44.76141" lon="6.34398">
        <ele>2164</ele>
        <time>2024-08-12T09:30:38Z</time>
      </trkpt>
      <trkpt lat="44.76141" lon="6.34398">
        <ele>2164</ele>
        <time>2024-08-12T09:30:39Z</time>
      </trkpt>
      <trkpt lat="44.76141" lon="6.34398">
        <ele>2164</ele>
        <time>2024-08-12T09:30:40Z</time>
      </trkpt>
      <trkpt lat="44.76141" lon="6.34398">
        <ele>2164</ele>
        <time>2024-08-12T09:30:41Z</time>
      </trkpt>
      <trkpt lat="44.76141" lon="6.34398">
        <ele>2163.8</ele>
        <time>2024-08-12T09:30:42Z</time>
      </trkpt>
      <trkpt lat="44.76141" lon="6.34398">
        <ele>2163.8</ele>
        <time>2024-08-12T09:30:43Z</time>
      </trkpt>
      <trkpt lat="44.76141" lon="6.34398">
        <ele>2164</ele>
        <time>2024-08-12T09:30:44Z</time>
      </trkpt>
      <trkpt lat="44.76141" lon="6.34398">
        <ele>2164.2</ele>
        <time>2024-08-12T09:30:45Z</time>
      </trkpt>
      <trkpt lat="44.76141" lon="6.34398">
        <ele>2164.2</ele>
        <time>2024-08-12T09:30:46Z</time>
      </trkpt>
      <trkpt lat="44.76141" lon="6.34398">
        <ele>2164.2</ele>
        <time>2024-08-12T09:30:47Z</time>
      </trkpt>
      <trkpt lat="44.76141" lon="6.34398">
        <ele>2164</ele>
        <time>2024-08-12T09:30:48Z</time>
      </trkpt>
      <trkpt lat="44.76141" lon="6.34398">
        <ele>2164</ele>
        <time>2024-08-12T09:30:49Z</time>
      </trkpt>
      <trkpt lat="44.76141" lon="6.34398">
        <ele>2164</ele>
        <time>2024-08-12T09:30:50Z</time>
      </trkpt>
      <trkpt lat="44.76141" lon="6.34398">
        <ele>2164.2</ele>
        <time>2024-08-12T09:30:51Z</time>
      </trkpt>
      <trkpt lat="44.76141" lon="6.34398">
        <ele>2164.2</ele>
        <time>2024-08-12T09:30:52Z</time>
      </trkpt>
      <trkpt lat="44.76141" lon="6.34398">
        <ele>2164</ele>
        <time>2024-08-12T09:30:53Z</time>
      </trkpt>
      <trkpt lat="44.76141" lon="6.34398">
        <ele>2163.8</ele>
        <time>2024-08-12T09:30:54Z</time>
      </trkpt>
      <trkpt lat="44.76141" lon="6.34398">
        <ele>2163.8</ele>
        <time>2024-08-12T09:30:55Z</time>
      </trkpt>
      <trkpt lat="44.76141" lon="6.34398">
        <ele>2163.8</ele>
        <time>2024-08-12T09:30:56Z</time>
      </trkpt>
      <trkpt lat="44.76141" lon="6.34398">
        <ele>2164</ele>
        <time>2024-08-12T09:30:57Z</time>
      </trkpt>
      <trkpt lat="44.76141" lon="6.34398">
        <ele>2164</ele>
        <time>2024-08-12T09:30:58Z</time>
      </trkpt>
      <trkpt lat="44.76141" lon="6.34398">
        <ele>2163.6</ele>
        <time>2024-08-12T09:30:59Z</time>
      </trkpt>
      <trkpt lat="44.76141" lon="6.34398">
        <ele>2163.6</ele>
        <time>2024-08-12T09:31:00Z</time>
      </trkpt>
      <trkpt lat="44.76141" lon="6.34398">
        <ele>2163.6</ele>
        <time>2024-08-12T09:31:01Z</time>
      </trkpt>
      <trkpt lat="44.76141" lon="6.34398">
        <ele>2163.6</ele>
        <time>2024-08-12T09:31:02Z</time>
      </trkpt>
      <trkpt lat="44.76141" lon="6.34398">
        <ele>2163.6</ele>
        <time>2024-08-12T09:31:03Z</time>
      </trkpt>
      <trkpt lat="44.76141" lon="6.34398">
        <ele>2163.6</ele>
        <time>2024-08-12T09:31:04Z</time>
      </trkpt>
      <trkpt lat="44.76141" lon="6.34398">
        <ele>2163.6</ele>
        <time>2024-08-12T09:31:05Z</time>
      </trkpt>
      <trkpt lat="44.76141" lon="6.34398">
        <ele>2163.6</ele>
        <time>2024-08-12T09:31:06Z</time>
      </trkpt>
      <trkpt lat="44.76141" lon="6.34398">
        <ele>2163.6</ele>
        <time>2024-08-12T09:31:07Z</time>
      </trkpt>
      <trkpt lat="44.76141" lon="6.34398">
        <ele>2163.6</ele>
        <time>2024-08-12T09:31:08Z</time>
      </trkpt>
      <trkpt lat="44.76141" lon="6.34398">
        <ele>2163.6</ele>
        <time>2024-08-12T09:31:09Z</time>
      </trkpt>
      <trkpt lat="44.76141" lon="6.34398">
        <ele>2163.6</ele>
        <time>2024-08-12T09:31:10Z</time>
      </trkpt>
      <trkpt lat="44.76141" lon="6.34398">
        <ele>2163.6</ele>
        <time>2024-08-12T09:31:11Z</time>
      </trkpt>
      <trkpt lat="44.76141" lon="6.34398">
        <ele>2163.6</ele>
        <time>2024-08-12T09:31:12Z</time>
      </trkpt>
      <trkpt lat="44.76141" lon="6.34398">
        <ele>2163.6</ele>
        <time>2024-08-12T09:31:13Z</time>
      </trkpt>
      <trkpt lat="44.76141" lon="6.34398">
        <ele>2163.6</ele>
        <time>2024-08-12T09:31:14Z</time>
      </trkpt>
      <trkpt lat="44.76141" lon="6.34398">
        <ele>2164</ele>
        <time>2024-08-12T09:31:15Z</time>
      </trkpt>
      <trkpt lat="44.76141" lon="6.34398">
        <ele>2164</ele>
        <time>2024-08-12T09:31:16Z</time>
      </trkpt>
      <trkpt lat="44.76141" lon="6.34398">
        <ele>2164</ele>
        <time>2024-08-12T09:31:17Z</time>
      </trkpt>
      <trkpt lat="44.76141" lon="6.34398">
        <ele>2164</ele>
        <time>2024-08-12T09:31:18Z</time>
      </trkpt>
      <trkpt lat="44.76141" lon="6.34398">
        <ele>2164</ele>
        <time>2024-08-12T09:31:19Z</time>
      </trkpt>
      <trkpt lat="44.76141" lon="6.34398">
        <ele>2164.2</ele>
        <time>2024-08-12T09:31:20Z</time>
      </trkpt>
      <trkpt lat="44.76141" lon="6.34398">
        <ele>2164.2</ele>
        <time>2024-08-12T09:31:21Z</time>
      </trkpt>
      <trkpt lat="44.76141" lon="6.34398">
        <ele>2164.2</ele>
        <time>2024-08-12T09:31:22Z</time>
      </trkpt>
      <trkpt lat="44.76141" lon="6.34398">
        <ele>2164.2</ele>
        <time>2024-08-12T09:31:23Z</time>
      </trkpt>
      <trkpt lat="44.76141" lon="6.34398">
        <ele>2164.2</ele>
        <time>2024-08-12T09:31:24Z</time>
      </trkpt>
      <trkpt lat="44.76141" lon="6.34398">
        <ele>2164</ele>
        <time>2024-08-12T09:31:25Z</time>
      </trkpt>
      <trkpt lat="44.76141" lon="6.34398">
        <ele>2163.8</ele>
        <time>2024-08-12T09:31:26Z</time>
      </trkpt>
      <trkpt lat="44.76141" lon="6.34398">
        <ele>2163.8</ele>
        <time>2024-08-12T09:31:27Z</time>
      </trkpt>
      <trkpt lat="44.76141" lon="6.34398">
        <ele>2163.8</ele>
        <time>2024-08-12T09:31:28Z</time>
      </trkpt>
      <trkpt lat="44.76141" lon="6.34398">
        <ele>2163.8</ele>
        <time>2024-08-12T09:31:29Z</time>
      </trkpt>
      <trkpt lat="44.76141" lon="6.34398">
        <ele>2164</ele>
        <time>2024-08-12T09:31:30Z</time>
      </trkpt>
      <trkpt lat="44.76141" lon="6.34398">
        <ele>2164</ele>
        <time>2024-08-12T09:31:31Z</time>
      </trkpt>
      <trkpt lat="44.76141" lon="6.34398">
        <ele>2164.2</ele>
        <time>2024-08-12T09:31:32Z</time>
      </trkpt>
      <trkpt lat="44.76141" lon="6.34398">
        <ele>2164.2</ele>
        <time>2024-08-12T09:31:33Z</time>
      </trkpt>
      <trkpt lat="44.76141" lon="6.34398">
        <ele>2163.8</ele>
        <time>2024-08-12T09:31:34Z</time>
      </trkpt>
      <trkpt lat="44.76141" lon="6.34398">
        <ele>2163.8</ele>
        <time>2024-08-12T09:31:35Z</time>
      </trkpt>
      <trkpt lat="44.76141" lon="6.34398">
        <ele>2164</ele>
        <time>2024-08-12T09:31:36Z</time>
      </trkpt>
      <trkpt lat="44.76141" lon="6.34398">
        <ele>2164.2</ele>
        <time>2024-08-12T09:31:37Z</time>
      </trkpt>
      <trkpt lat="44.76141" lon="6.34398">
        <ele>2164.2</ele>
        <time>2024-08-12T09:31:38Z</time>
      </trkpt>
      <trkpt lat="44.76141" lon="6.34398">
        <ele>2164.2</ele>
        <time>2024-08-12T09:31:39Z</time>
      </trkpt>
      <trkpt lat="44.76141" lon="6.34398">
        <ele>2164</ele>
        <time>2024-08-12T09:31:40Z</time>
      </trkpt>
      <trkpt lat="44.76141" lon="6.34398">
        <ele>2163.8</ele>
        <time>2024-08-12T09:31:41Z</time>
      </trkpt>
      <trkpt lat="44.76141" lon="6.34398">
        <ele>2163.8</ele>
        <time>2024-08-12T09:31:42Z</time>
      </trkpt>
      <trkpt lat="44.76141" lon="6.34398">
        <ele>2163.8</ele>
        <time>2024-08-12T09:31:43Z</time>
      </trkpt>
      <trkpt lat="44.76141" lon="6.34398">
        <ele>2164.4</ele>
        <time>2024-08-12T09:31:44Z</time>
      </trkpt>
      <trkpt lat="44.76141" lon="6.34398">
        <ele>2164.4</ele>
        <time>2024-08-12T09:31:45Z</time>
      </trkpt>
      <trkpt lat="44.76141" lon="6.34398">
        <ele>2164.4</ele>
        <time>2024-08-12T09:31:46Z</time>
      </trkpt>
      <trkpt lat="44.76141" lon="6.34398">
        <ele>2164.6</ele>
        <time>2024-08-12T09:31:47Z</time>
      </trkpt>
      <trkpt lat="44.76141" lon="6.34398">
        <ele>2164.6</ele>
        <time>2024-08-12T09:31:48Z</time>
      </trkpt>
      <trkpt lat="44.76141" lon="6.34398">
        <ele>2164.6</ele>
        <time>2024-08-12T09:31:49Z</time>
      </trkpt>
      <trkpt lat="44.76141" lon="6.34398">
        <ele>2164.4</ele>
        <time>2024-08-12T09:31:50Z</time>
      </trkpt>
      <trkpt lat="44.76141" lon="6.34398">
        <ele>2164.4</ele>
        <time>2024-08-12T09:31:51Z</time>
      </trkpt>
      <trkpt lat="44.76141" lon="6.34398">
        <ele>2164.4</ele>
        <time>2024-08-12T09:31:52Z</time>
      </trkpt>
      <trkpt lat="44.76141" lon="6.34398">
        <ele>2164.4</ele>
        <time>2024-08-12T09:31:53Z</time>
      </trkpt>
      <trkpt lat="44.76141" lon="6.34398">
        <ele>2164.2</ele>
        <time>2024-08-12T09:31:54Z</time>
      </trkpt>
      <trkpt lat="44.76141" lon="6.34398">
        <ele>2164.2</ele>
        <time>2024-08-12T09:31:55Z</time>
      </trkpt>
      <trkpt lat="44.76141" lon="6.34398">
        <ele>2164.6</ele>
        <time>2024-08-12T09:31:56Z</time>
      </trkpt>
      <trkpt lat="44.76141" lon="6.34398">
        <ele>2164.6</ele>
        <time>2024-08-12T09:31:57Z</time>
      </trkpt>
      <trkpt lat="44.76141" lon="6.34398">
        <ele>2164.6</ele>
        <time>2024-08-12T09:31:58Z</time>
      </trkpt>
      <trkpt lat="44.76141" lon="6.34398">
        <ele>2164.8</ele>
        <time>2024-08-12T09:31:59Z</time>
      </trkpt>
      <trkpt lat="44.76141" lon="6.34398">
        <ele>2164.8</ele>
        <time>2024-08-12T09:32:00Z</time>
      </trkpt>
      <trkpt lat="44.76141" lon="6.34398">
        <ele>2165</ele>
        <time>2024-08-12T09:32:01Z</time>
      </trkpt>
      <trkpt lat="44.76141" lon="6.34398">
        <ele>2165</ele>
        <time>2024-08-12T09:32:02Z</time>
      </trkpt>
      <trkpt lat="44.76141" lon="6.34398">
        <ele>2165</ele>
        <time>2024-08-12T09:32:03Z</time>
      </trkpt>
      <trkpt lat="44.76141" lon="6.34398">
        <ele>2165</ele>
        <time>2024-08-12T09:32:04Z</time>
      </trkpt>
      <trkpt lat="44.76141" lon="6.34398">
        <ele>2165</ele>
        <time>2024-08-12T09:32:05Z</time>
      </trkpt>
      <trkpt lat="44.76141" lon="6.34398">
        <ele>2165</ele>
        <time>2024-08-12T09:32:06Z</time>
      </trkpt>
      <trkpt lat="44.76141" lon="6.34398">
        <ele>2165</ele>
        <time>2024-08-12T09:32:07Z</time>
      </trkpt>
      <trkpt lat="44.76141" lon="6.34398">
        <ele>2165.2</ele>
        <time>2024-08-12T09:32:08Z</time>
      </trkpt>
      <trkpt lat="44.76141" lon="6.34398">
        <ele>2165.2</ele>
        <time>2024-08-12T09:32:09Z</time>
      </trkpt>
      <trkpt lat="44.76141" lon="6.34398">
        <ele>2164.8</ele>
        <time>2024-08-12T09:32:10Z</time>
      </trkpt>
      <trkpt lat="44.76141" lon="6.34398">
        <ele>2164.8</ele>
        <time>2024-08-12T09:32:11Z</time>
      </trkpt>
      <trkpt lat="44.76141" lon="6.34398">
        <ele>2164.8</ele>
        <time>2024-08-12T09:32:12Z</time>
      </trkpt>
      <trkpt lat="44.76141" lon="6.34398">
        <ele>2164.6</ele>
        <time>2024-08-12T09:32:13Z</time>
      </trkpt>
      <trkpt lat="44.76141" lon="6.34398">
        <ele>2164.6</ele>
        <time>2024-08-12T09:32:14Z</time>
      </trkpt>
      <trkpt lat="44.76141" lon="6.34398">
        <ele>2164.6</ele>
        <time>2024-08-12T09:32:15Z</time>
      </trkpt>
      <trkpt lat="44.76141" lon="6.34398">
        <ele>2164.6</ele>
        <time>2024-08-12T09:32:16Z</time>
      </trkpt>
      <trkpt lat="44.76141" lon="6.34398">
        <ele>2164.6</ele>
        <time>2024-08-12T09:32:17Z</time>
      </trkpt>
      <trkpt lat="44.76141" lon="6.34398">
        <ele>2164.4</ele>
        <time>2024-08-12T09:32:18Z</time>
      </trkpt>
      <trkpt lat="44.76141" lon="6.34398">
        <ele>2164.4</ele>
        <time>2024-08-12T09:32:19Z</time>
      </trkpt>
      <trkpt lat="44.76141" lon="6.34398">
        <ele>2164.2</ele>
        <time>2024-08-12T09:32:20Z</time>
      </trkpt>
      <trkpt lat="44.76141" lon="6.34398">
        <ele>2164.2</ele>
        <time>2024-08-12T09:32:21Z</time>
      </trkpt>
      <trkpt lat="44.76141" lon="6.34398">
        <ele>2164.2</ele>
        <time>2024-08-12T09:32:22Z</time>
      </trkpt>
      <trkpt lat="44.76141" lon="6.34398">
        <ele>2164.2</ele>
        <time>2024-08-12T09:32:23Z</time>
      </trkpt>
      <trkpt lat="44.76141" lon="6.34398">
        <ele>2164</ele>
        <time>2024-08-12T09:32:24Z</time>
      </trkpt>
      <trkpt lat="44.76141" lon="6.34398">
        <ele>2164</ele>
        <time>2024-08-12T09:32:25Z</time>
      </trkpt>
      <trkpt lat="44.76141" lon="6.34398">
        <ele>2163.8</ele>
        <time>2024-08-12T09:32:26Z</time>
      </trkpt>
      <trkpt lat="44.76141" lon="6.34398">
        <ele>2163.8</ele>
        <time>2024-08-12T09:32:27Z</time>
      </trkpt>
      <trkpt lat="44.76141" lon="6.34398">
        <ele>2163.8</ele>
        <time>2024-08-12T09:32:28Z</time>
      </trkpt>
      <trkpt lat="44.76141" lon="6.34398">
        <ele>2163.4</ele>
        <time>2024-08-12T09:32:29Z</time>
      </trkpt>
      <trkpt lat="44.76141" lon="6.34398">
        <ele>2163.4</ele>
        <time>2024-08-12T09:32:30Z</time>
      </trkpt>
      <trkpt lat="44.76141" lon="6.34398">
        <ele>2163.4</ele>
        <time>2024-08-12T09:32:31Z</time>
      </trkpt>
      <trkpt lat="44.76141" lon="6.34398">
        <ele>2163.4</ele>
        <time>2024-08-12T09:32:32Z</time>
      </trkpt>
      <trkpt lat="44.76141" lon="6.34398">
        <ele>2163.4</ele>
        <time>2024-08-12T09:32:33Z</time>
      </trkpt>
      <trkpt lat="44.76141" lon="6.34398">
        <ele>2163.6</ele>
        <time>2024-08-12T09:32:34Z</time>
      </trkpt>
      <trkpt lat="44.76141" lon="6.34398">
        <ele>2163.6</ele>
        <time>2024-08-12T09:32:35Z</time>
      </trkpt>
      <trkpt lat="44.76141" lon="6.34398">
        <ele>2163.6</ele>
        <time>2024-08-12T09:32:36Z</time>
      </trkpt>
      <trkpt lat="44.76141" lon="6.34398">
        <ele>2163.6</ele>
        <time>2024-08-12T09:32:37Z</time>
      </trkpt>
      <trkpt lat="44.76141" lon="6.34398">
        <ele>2163.6</ele>
        <time>2024-08-12T09:32:38Z</time>
      </trkpt>
      <trkpt lat="44.76141" lon="6.34398">
        <ele>2163.6</ele>
        <time>2024-08-12T09:32:39Z</time>
      </trkpt>
      <trkpt lat="44.76141" lon="6.34398">
        <ele>2163.8</ele>
        <time>2024-08-12T09:32:40Z</time>
      </trkpt>
      <trkpt lat="44.76141" lon="6.34398">
        <ele>2163.8</ele>
        <time>2024-08-12T09:32:41Z</time>
      </trkpt>
      <trkpt lat="44.76141" lon="6.34398">
        <ele>2163.8</ele>
        <time>2024-08-12T09:32:42Z</time>
      </trkpt>
      <trkpt lat="44.76141" lon="6.34398">
        <ele>2163.8</ele>
        <time>2024-08-12T09:32:43Z</time>
      </trkpt>
      <trkpt lat="44.76141" lon="6.34398">
        <ele>2163.8</ele>
        <time>2024-08-12T09:32:44Z</time>
      </trkpt>
      <trkpt lat="44.76141" lon="6.34398">
        <ele>2163.8</ele>
        <time>2024-08-12T09:32:45Z</time>
      </trkpt>
      <trkpt lat="44.76141" lon="6.34398">
        <ele>2163.8</ele>
        <time>2024-08-12T09:32:46Z</time>
      </trkpt>
      <trkpt lat="44.76141" lon="6.34398">
        <ele>2163.8</ele>
        <time>2024-08-12T09:32:47Z</time>
      </trkpt>
      <trkpt lat="44.76141" lon="6.34398">
        <ele>2163.8</ele>
        <time>2024-08-12T09:32:48Z</time>
      </trkpt>
      <trkpt lat="44.76141" lon="6.34398">
        <ele>2163.8</ele>
        <time>2024-08-12T09:32:49Z</time>
      </trkpt>
      <trkpt lat="44.76141" lon="6.34398">
        <ele>2163.6</ele>
        <time>2024-08-12T09:32:50Z</time>
      </trkpt>
      <trkpt lat="44.76141" lon="6.34398">
        <ele>2163.4</ele>
        <time>2024-08-12T09:32:51Z</time>
      </trkpt>
      <trkpt lat="44.76141" lon="6.34398">
        <ele>2163.2</ele>
        <time>2024-08-12T09:32:52Z</time>
      </trkpt>
      <trkpt lat="44.76141" lon="6.34398">
        <ele>2163.2</ele>
        <time>2024-08-12T09:32:53Z</time>
      </trkpt>
      <trkpt lat="44.76141" lon="6.34398">
        <ele>2163.2</ele>
        <time>2024-08-12T09:32:54Z</time>
      </trkpt>
      <trkpt lat="44.76141" lon="6.34398">
        <ele>2163.2</ele>
        <time>2024-08-12T09:32:55Z</time>
      </trkpt>
      <trkpt lat="44.76141" lon="6.34398">
        <ele>2163.2</ele>
        <time>2024-08-12T09:32:56Z</time>
      </trkpt>
      <trkpt lat="44.76141" lon="6.34398">
        <ele>2163.4</ele>
        <time>2024-08-12T09:32:57Z</time>
      </trkpt>
      <trkpt lat="44.76141" lon="6.34398">
        <ele>2163.6</ele>
        <time>2024-08-12T09:32:58Z</time>
      </trkpt>
      <trkpt lat="44.76141" lon="6.34398">
        <ele>2163.6</ele>
        <time>2024-08-12T09:32:59Z</time>
      </trkpt>
      <trkpt lat="44.76141" lon="6.34398">
        <ele>2163.6</ele>
        <time>2024-08-12T09:33:00Z</time>
      </trkpt>
      <trkpt lat="44.76141" lon="6.34398">
        <ele>2163.6</ele>
        <time>2024-08-12T09:33:01Z</time>
      </trkpt>
      <trkpt lat="44.76141" lon="6.34398">
        <ele>2163.6</ele>
        <time>2024-08-12T09:33:02Z</time>
      </trkpt>
      <trkpt lat="44.76141" lon="6.34398">
        <ele>2163.4</ele>
        <time>2024-08-12T09:33:03Z</time>
      </trkpt>
      <trkpt lat="44.76141" lon="6.34398">
        <ele>2163.2</ele>
        <time>2024-08-12T09:33:04Z</time>
      </trkpt>
      <trkpt lat="44.76141" lon="6.34398">
        <ele>2163.2</ele>
        <time>2024-08-12T09:33:05Z</time>
      </trkpt>
      <trkpt lat="44.76141" lon="6.34398">
        <ele>2163.2</ele>
        <time>2024-08-12T09:33:06Z</time>
      </trkpt>
      <trkpt lat="44.76141" lon="6.34398">
        <ele>2163</ele>
        <time>2024-08-12T09:33:07Z</time>
      </trkpt>
      <trkpt lat="44.76141" lon="6.34398">
        <ele>2163</ele>
        <time>2024-08-12T09:33:08Z</time>
      </trkpt>
      <trkpt lat="44.76141" lon="6.34398">
        <ele>2163</ele>
        <time>2024-08-12T09:33:09Z</time>
      </trkpt>
      <trkpt lat="44.76141" lon="6.34398">
        <ele>2163.2</ele>
        <time>2024-08-12T09:33:10Z</time>
      </trkpt>
      <trkpt lat="44.76141" lon="6.34398">
        <ele>2163.4</ele>
        <time>2024-08-12T09:33:11Z</time>
      </trkpt>
      <trkpt lat="44.76141" lon="6.34398">
        <ele>2163.4</ele>
        <time>2024-08-12T09:33:12Z</time>
      </trkpt>
      <trkpt lat="44.76141" lon="6.34398">
        <ele>2163.2</ele>
        <time>2024-08-12T09:33:13Z</time>
      </trkpt>
      <trkpt lat="44.76141" lon="6.34398">
        <ele>2163</ele>
        <time>2024-08-12T09:33:14Z</time>
      </trkpt>
      <trkpt lat="44.76141" lon="6.34398">
        <ele>2163</ele>
        <time>2024-08-12T09:33:15Z</time>
      </trkpt>
      <trkpt lat="44.76141" lon="6.34398">
        <ele>2163</ele>
        <time>2024-08-12T09:33:16Z</time>
      </trkpt>
      <trkpt lat="44.76141" lon="6.34398">
        <ele>2163</ele>
        <time>2024-08-12T09:33:17Z</time>
      </trkpt>
      <trkpt lat="44.76141" lon="6.34398">
        <ele>2163</ele>
        <time>2024-08-12T09:33:18Z</time>
      </trkpt>
      <trkpt lat="44.76141" lon="6.34398">
        <ele>2163.2</ele>
        <time>2024-08-12T09:33:19Z</time>
      </trkpt>
      <trkpt lat="44.76141" lon="6.34398">
        <ele>2163.2</ele>
        <time>2024-08-12T09:33:20Z</time>
      </trkpt>
      <trkpt lat="44.76141" lon="6.34398">
        <ele>2163.2</ele>
        <time>2024-08-12T09:33:21Z</time>
      </trkpt>
      <trkpt lat="44.76141" lon="6.34398">
        <ele>2163.2</ele>
        <time>2024-08-12T09:33:22Z</time>
      </trkpt>
      <trkpt lat="44.76141" lon="6.34398">
        <ele>2163.4</ele>
        <time>2024-08-12T09:33:23Z</time>
      </trkpt>
      <trkpt lat="44.76141" lon="6.34398">
        <ele>2163.4</ele>
        <time>2024-08-12T09:33:24Z</time>
      </trkpt>
      <trkpt lat="44.76141" lon="6.34398">
        <ele>2163.4</ele>
        <time>2024-08-12T09:33:25Z</time>
      </trkpt>
      <trkpt lat="44.76141" lon="6.34398">
        <ele>2163.6</ele>
        <time>2024-08-12T09:33:26Z</time>
      </trkpt>
      <trkpt lat="44.76141" lon="6.34398">
        <ele>2163.6</ele>
        <time>2024-08-12T09:33:27Z</time>
      </trkpt>
      <trkpt lat="44.76141" lon="6.34398">
        <ele>2163.6</ele>
        <time>2024-08-12T09:33:28Z</time>
      </trkpt>
      <trkpt lat="44.76141" lon="6.34398">
        <ele>2163.6</ele>
        <time>2024-08-12T09:33:29Z</time>
      </trkpt>
      <trkpt lat="44.76141" lon="6.34398">
        <ele>2163.4</ele>
        <time>2024-08-12T09:33:30Z</time>
      </trkpt>
      <trkpt lat="44.76141" lon="6.34398">
        <ele>2163.4</ele>
        <time>2024-08-12T09:33:31Z</time>
      </trkpt>
      <trkpt lat="44.76141" lon="6.34398">
        <ele>2163.6</ele>
        <time>2024-08-12T09:33:32Z</time>
      </trkpt>
      <trkpt lat="44.76141" lon="6.34398">
        <ele>2163.6</ele>
        <time>2024-08-12T09:33:33Z</time>
      </trkpt>
      <trkpt lat="44.76141" lon="6.34398">
        <ele>2163.6</ele>
        <time>2024-08-12T09:33:34Z</time>
      </trkpt>
      <trkpt lat="44.76141" lon="6.34398">
        <ele>2163.8</ele>
        <time>2024-08-12T09:33:35Z</time>
      </trkpt>
      <trkpt lat="44.76141" lon="6.34398">
        <ele>2163.8</ele>
        <time>2024-08-12T09:33:36Z</time>
      </trkpt>
      <trkpt lat="44.76141" lon="6.34398">
        <ele>2163.8</ele>
        <time>2024-08-12T09:33:37Z</time>
      </trkpt>
      <trkpt lat="44.76141" lon="6.34398">
        <ele>2163.8</ele>
        <time>2024-08-12T09:33:38Z</time>
      </trkpt>
      <trkpt lat="44.76141" lon="6.34398">
        <ele>2164</ele>
        <time>2024-08-12T09:33:39Z</time>
      </trkpt>
      <trkpt lat="44.76141" lon="6.34398">
        <ele>2164</ele>
        <time>2024-08-12T09:33:40Z</time>
      </trkpt>
      <trkpt lat="44.76141" lon="6.34398">
        <ele>2164</ele>
        <time>2024-08-12T09:33:41Z</time>
      </trkpt>
      <trkpt lat="44.76141" lon="6.34398">
        <ele>2164</ele>
        <time>2024-08-12T09:33:42Z</time>
      </trkpt>
      <trkpt lat="44.76141" lon="6.34398">
        <ele>2163.8</ele>
        <time>2024-08-12T09:33:43Z</time>
      </trkpt>
      <trkpt lat="44.76141" lon="6.34398">
        <ele>2163.4</ele>
        <time>2024-08-12T09:33:44Z</time>
      </trkpt>
      <trkpt lat="44.76141" lon="6.34398">
        <ele>2163.4</ele>
        <time>2024-08-12T09:33:45Z</time>
      </trkpt>
      <trkpt lat="44.76141" lon="6.34398">
        <ele>2163.2</ele>
        <time>2024-08-12T09:33:46Z</time>
      </trkpt>
      <trkpt lat="44.76141" lon="6.34398">
        <ele>2163.2</ele>
        <time>2024-08-12T09:33:47Z</time>
      </trkpt>
      <trkpt lat="44.76141" lon="6.34398">
        <ele>2163.2</ele>
        <time>2024-08-12T09:33:48Z</time>
      </trkpt>
      <trkpt lat="44.76141" lon="6.34398">
        <ele>2163.6</ele>
        <time>2024-08-12T09:33:49Z</time>
      </trkpt>
      <trkpt lat="44.76141" lon="6.34398">
        <ele>2163.6</ele>
        <time>2024-08-12T09:33:50Z</time>
      </trkpt>
      <trkpt lat="44.76141" lon="6.34398">
        <ele>2163.6</ele>
        <time>2024-08-12T09:33:51Z</time>
      </trkpt>
      <trkpt lat="44.76141" lon="6.34398">
        <ele>2163.8</ele>
        <time>2024-08-12T09:33:52Z</time>
      </trkpt>
      <trkpt lat="44.76141" lon="6.34398">
        <ele>2163.8</ele>
        <time>2024-08-12T09:33:53Z</time>
      </trkpt>
      <trkpt lat="44.76141" lon="6.34398">
        <ele>2163.6</ele>
        <time>2024-08-12T09:33:54Z</time>
      </trkpt>
      <trkpt lat="44.76141" lon="6.34398">
        <ele>2163.6</ele>
        <time>2024-08-12T09:33:55Z</time>
      </trkpt>
      <trkpt lat="44.76141" lon="6.34398">
        <ele>2164</ele>
        <time>2024-08-12T09:33:56Z</time>
      </trkpt>
      <trkpt lat="44.76141" lon="6.34398">
        <ele>2164</ele>
        <time>2024-08-12T09:33:57Z</time>
      </trkpt>
      <trkpt lat="44.76141" lon="6.34398">
        <ele>2164.2</ele>
        <time>2024-08-12T09:33:58Z</time>
      </trkpt>
      <trkpt lat="44.76141" lon="6.34398">
        <ele>2164.2</ele>
        <time>2024-08-12T09:33:59Z</time>
      </trkpt>
      <trkpt lat="44.76141" lon="6.34398">
        <ele>2164.4</ele>
        <time>2024-08-12T09:34:00Z</time>
      </trkpt>
      <trkpt lat="44.76141" lon="6.34398">
        <ele>2164.4</ele>
        <time>2024-08-12T09:34:01Z</time>
      </trkpt>
      <trkpt lat="44.76141" lon="6.34398">
        <ele>2164.2</ele>
        <time>2024-08-12T09:34:02Z</time>
      </trkpt>
      <trkpt lat="44.76141" lon="6.34398">
        <ele>2164</ele>
        <time>2024-08-12T09:34:03Z</time>
      </trkpt>
      <trkpt lat="44.76141" lon="6.34398">
        <ele>2164</ele>
        <time>2024-08-12T09:34:04Z</time>
      </trkpt>
      <trkpt lat="44.76141" lon="6.34398">
        <ele>2164</ele>
        <time>2024-08-12T09:34:05Z</time>
      </trkpt>
      <trkpt lat="44.76141" lon="6.34398">
        <ele>2164</ele>
        <time>2024-08-12T09:34:06Z</time>
      </trkpt>
      <trkpt lat="44.76141" lon="6.34398">
        <ele>2164.2</ele>
        <time>2024-08-12T09:34:07Z</time>
      </trkpt>
      <trkpt lat="44.76141" lon="6.34398">
        <ele>2164.2</ele>
        <time>2024-08-12T09:34:08Z</time>
      </trkpt>
      <trkpt lat="44.76141" lon="6.34398">
        <ele>2164.2</ele>
        <time>2024-08-12T09:34:09Z</time>
      </trkpt>
      <trkpt lat="44.76141" lon="6.34398">
        <ele>2164</ele>
        <time>2024-08-12T09:34:10Z</time>
      </trkpt>
      <trkpt lat="44.76141" lon="6.34398">
        <ele>2163.8</ele>
        <time>2024-08-12T09:34:11Z</time>
      </trkpt>
      <trkpt lat="44.76141" lon="6.34398">
        <ele>2163.8</ele>
        <time>2024-08-12T09:34:12Z</time>
      </trkpt>
      <trkpt lat="44.76141" lon="6.34398">
        <ele>2163.8</ele>
        <time>2024-08-12T09:34:13Z</time>
      </trkpt>
      <trkpt lat="44.76141" lon="6.34398">
        <ele>2163.8</ele>
        <time>2024-08-12T09:34:14Z</time>
      </trkpt>
      <trkpt lat="44.76141" lon="6.34398">
        <ele>2163.8</ele>
        <time>2024-08-12T09:34:15Z</time>
      </trkpt>
      <trkpt lat="44.76142" lon="6.34396">
        <ele>2163.2</ele>
        <time>2024-08-12T09:34:16Z</time>
      </trkpt>
      <trkpt lat="44.76142" lon="6.34396">
        <ele>2163</ele>
        <time>2024-08-12T09:34:17Z</time>
      </trkpt>
      <trkpt lat="44.76145" lon="6.34393">
        <ele>2162.8</ele>
        <time>2024-08-12T09:34:18Z</time>
      </trkpt>
      <trkpt lat="44.76146" lon="6.34392">
        <ele>2162.6</ele>
        <time>2024-08-12T09:34:19Z</time>
      </trkpt>
      <trkpt lat="44.76146" lon="6.34392">
        <ele>2162.2</ele>
        <time>2024-08-12T09:34:20Z</time>
      </trkpt>
      <trkpt lat="44.76149" lon="6.3439">
        <ele>2162.2</ele>
        <time>2024-08-12T09:34:21Z</time>
      </trkpt>
      <trkpt lat="44.76149" lon="6.3439">
        <ele>2162</ele>
        <time>2024-08-12T09:34:22Z</time>
      </trkpt>
      <trkpt lat="44.76152" lon="6.34388">
        <ele>2162</ele>
        <time>2024-08-12T09:34:23Z</time>
      </trkpt>
      <trkpt lat="44.76152" lon="6.34388">
        <ele>2161.8</ele>
        <time>2024-08-12T09:34:24Z</time>
      </trkpt>
      <trkpt lat="44.76154" lon="6.34387">
        <ele>2161.4</ele>
        <time>2024-08-12T09:34:25Z</time>
      </trkpt>
      <trkpt lat="44.76154" lon="6.34387">
        <ele>2161.4</ele>
        <time>2024-08-12T09:34:26Z</time>
      </trkpt>
      <trkpt lat="44.76156" lon="6.34385">
        <ele>2161</ele>
        <time>2024-08-12T09:34:27Z</time>
      </trkpt>
      <trkpt lat="44.76156" lon="6.34385">
        <ele>2161</ele>
        <time>2024-08-12T09:34:28Z</time>
      </trkpt>
      <trkpt lat="44.76158" lon="6.34384">
        <ele>2161</ele>
        <time>2024-08-12T09:34:29Z</time>
      </trkpt>
      <trkpt lat="44.76158" lon="6.34384">
        <ele>2161</ele>
        <time>2024-08-12T09:34:30Z</time>
      </trkpt>
      <trkpt lat="44.76158" lon="6.34384">
        <ele>2160.8</ele>
        <time>2024-08-12T09:34:31Z</time>
      </trkpt>
      <trkpt lat="44.76158" lon="6.34384">
        <ele>2160.8</ele>
        <time>2024-08-12T09:34:32Z</time>
      </trkpt>
      <trkpt lat="44.7616" lon="6.34383">
        <ele>2160.8</ele>
        <time>2024-08-12T09:34:33Z</time>
      </trkpt>
      <trkpt lat="44.7616" lon="6.34383">
        <ele>2160.6</ele>
        <time>2024-08-12T09:34:34Z</time>
      </trkpt>
      <trkpt lat="44.7616" lon="6.34383">
        <ele>2160.6</ele>
        <time>2024-08-12T09:34:35Z</time>
      </trkpt>
      <trkpt lat="44.76158" lon="6.3438">
        <ele>2160.6</ele>
        <time>2024-08-12T09:34:36Z</time>
      </trkpt>
      <trkpt lat="44.76158" lon="6.3438">
        <ele>2160.4</ele>
        <time>2024-08-12T09:34:37Z</time>
      </trkpt>
      <trkpt lat="44.76158" lon="6.3438">
        <ele>2160.2</ele>
        <time>2024-08-12T09:34:38Z</time>
      </trkpt>
      <trkpt lat="44.76156" lon="6.34379">
        <ele>2160.2</ele>
        <time>2024-08-12T09:34:39Z</time>
      </trkpt>
      <trkpt lat="44.76156" lon="6.34379">
        <ele>2160.2</ele>
        <time>2024-08-12T09:34:40Z</time>
      </trkpt>
      <trkpt lat="44.76156" lon="6.34379">
        <ele>2160</ele>
        <time>2024-08-12T09:34:41Z</time>
      </trkpt>
      <trkpt lat="44.76154" lon="6.34377">
        <ele>2159.8</ele>
        <time>2024-08-12T09:34:42Z</time>
      </trkpt>
      <trkpt lat="44.76154" lon="6.34377">
        <ele>2159.2</ele>
        <time>2024-08-12T09:34:43Z</time>
      </trkpt>
      <trkpt lat="44.76154" lon="6.34377">
        <ele>2159</ele>
        <time>2024-08-12T09:34:44Z</time>
      </trkpt>
      <trkpt lat="44.76152" lon="6.34376">
        <ele>2159</ele>
        <time>2024-08-12T09:34:45Z</time>
      </trkpt>
      <trkpt lat="44.76152" lon="6.34376">
        <ele>2159</ele>
        <time>2024-08-12T09:34:46Z</time>
      </trkpt>
      <trkpt lat="44.76152" lon="6.34376">
        <ele>2158.8</ele>
        <time>2024-08-12T09:34:47Z</time>
      </trkpt>
      <trkpt lat="44.7615" lon="6.34374">
        <ele>2158.8</ele>
        <time>2024-08-12T09:34:48Z</time>
      </trkpt>
      <trkpt lat="44.7615" lon="6.34374">
        <ele>2158.4</ele>
        <time>2024-08-12T09:34:49Z</time>
      </trkpt>
      <trkpt lat="44.76148" lon="6.34374">
        <ele>2158.4</ele>
        <time>2024-08-12T09:34:50Z</time>
      </trkpt>
      <trkpt lat="44.76148" lon="6.34374">
        <ele>2158.4</ele>
        <time>2024-08-12T09:34:51Z</time>
      </trkpt>
      <trkpt lat="44.76146" lon="6.34373">
        <ele>2158.4</ele>
        <time>2024-08-12T09:34:52Z</time>
      </trkpt>
      <trkpt lat="44.76146" lon="6.34373">
        <ele>2158</ele>
        <time>2024-08-12T09:34:53Z</time>
      </trkpt>
      <trkpt lat="44.76146" lon="6.34373">
        <ele>2157.6</ele>
        <time>2024-08-12T09:34:54Z</time>
      </trkpt>
      <trkpt lat="44.76144" lon="6.34371">
        <ele>2157.6</ele>
        <time>2024-08-12T09:34:55Z</time>
      </trkpt>
      <trkpt lat="44.76144" lon="6.34371">
        <ele>2157.4</ele>
        <time>2024-08-12T09:34:56Z</time>
      </trkpt>
      <trkpt lat="44.76144" lon="6.34371">
        <ele>2157</ele>
        <time>2024-08-12T09:34:57Z</time>
      </trkpt>
      <trkpt lat="44.76142" lon="6.34369">
        <ele>2156.8</ele>
        <time>2024-08-12T09:34:58Z</time>
      </trkpt>
      <trkpt lat="44.76142" lon="6.34369">
        <ele>2156.4</ele>
        <time>2024-08-12T09:34:59Z</time>
      </trkpt>
      <trkpt lat="44.76142" lon="6.34369">
        <ele>2156.2</ele>
        <time>2024-08-12T09:35:00Z</time>
      </trkpt>
      <trkpt lat="44.7614" lon="6.34367">
        <ele>2156</ele>
        <time>2024-08-12T09:35:01Z</time>
      </trkpt>
      <trkpt lat="44.7614" lon="6.34367">
        <ele>2155.6</ele>
        <time>2024-08-12T09:35:02Z</time>
      </trkpt>
      <trkpt lat="44.7614" lon="6.34367">
        <ele>2155.6</ele>
        <time>2024-08-12T09:35:03Z</time>
      </trkpt>
      <trkpt lat="44.76138" lon="6.34364">
        <ele>2155.4</ele>
        <time>2024-08-12T09:35:04Z</time>
      </trkpt>
      <trkpt lat="44.76138" lon="6.34364">
        <ele>2155.4</ele>
        <time>2024-08-12T09:35:05Z</time>
      </trkpt>
      <trkpt lat="44.76137" lon="6.34363">
        <ele>2154.8</ele>
        <time>2024-08-12T09:35:06Z</time>
      </trkpt>
      <trkpt lat="44.76137" lon="6.34363">
        <ele>2154.8</ele>
        <time>2024-08-12T09:35:07Z</time>
      </trkpt>
      <trkpt lat="44.76137" lon="6.34363">
        <ele>2154.4</ele>
        <time>2024-08-12T09:35:08Z</time>
      </trkpt>
      <trkpt lat="44.76135" lon="6.3436">
        <ele>2154.2</ele>
        <time>2024-08-12T09:35:09Z</time>
      </trkpt>
      <trkpt lat="44.76135" lon="6.3436">
        <ele>2154</ele>
        <time>2024-08-12T09:35:10Z</time>
      </trkpt>
      <trkpt lat="44.76134" lon="6.34358">
        <ele>2153.6</ele>
        <time>2024-08-12T09:35:11Z</time>
      </trkpt>
      <trkpt lat="44.76134" lon="6.34358">
        <ele>2153.4</ele>
        <time>2024-08-12T09:35:12Z</time>
      </trkpt>
      <trkpt lat="44.76134" lon="6.34358">
        <ele>2153</ele>
        <time>2024-08-12T09:35:13Z</time>
      </trkpt>
      <trkpt lat="44.76132" lon="6.34355">
        <ele>2152.4</ele>
        <time>2024-08-12T09:35:14Z</time>
      </trkpt>
      <trkpt lat="44.76132" lon="6.34355">
        <ele>2152.4</ele>
        <time>2024-08-12T09:35:15Z</time>
      </trkpt>
      <trkpt lat="44.76131" lon="6.34353">
        <ele>2152.2</ele>
        <time>2024-08-12T09:35:16Z</time>
      </trkpt>
      <trkpt lat="44.76131" lon="6.34353">
        <ele>2151.8</ele>
        <time>2024-08-12T09:35:17Z</time>
      </trkpt>
      <trkpt lat="44.76131" lon="6.34353">
        <ele>2151.6</ele>
        <time>2024-08-12T09:35:18Z</time>
      </trkpt>
      <trkpt lat="44.76129" lon="6.3435">
        <ele>2151.4</ele>
        <time>2024-08-12T09:35:19Z</time>
      </trkpt>
      <trkpt lat="44.76129" lon="6.3435">
        <ele>2151.2</ele>
        <time>2024-08-12T09:35:20Z</time>
      </trkpt>
      <trkpt lat="44.76129" lon="6.3435">
        <ele>2151</ele>
        <time>2024-08-12T09:35:21Z</time>
      </trkpt>
      <trkpt lat="44.76127" lon="6.34348">
        <ele>2150.6</ele>
        <time>2024-08-12T09:35:22Z</time>
      </trkpt>
      <trkpt lat="44.76127" lon="6.34348">
        <ele>2150.6</ele>
        <time>2024-08-12T09:35:23Z</time>
      </trkpt>
      <trkpt lat="44.76126" lon="6.34346">
        <ele>2150.6</ele>
        <time>2024-08-12T09:35:24Z</time>
      </trkpt>
      <trkpt lat="44.76126" lon="6.34346">
        <ele>2150.4</ele>
        <time>2024-08-12T09:35:25Z</time>
      </trkpt>
      <trkpt lat="44.76124" lon="6.34345">
        <ele>2150</ele>
        <time>2024-08-12T09:35:26Z</time>
      </trkpt>
      <trkpt lat="44.76124" lon="6.34345">
        <ele>2149.6</ele>
        <time>2024-08-12T09:35:27Z</time>
      </trkpt>
      <trkpt lat="44.76122" lon="6.34344">
        <ele>2149.6</ele>
        <time>2024-08-12T09:35:28Z</time>
      </trkpt>
      <trkpt lat="44.76122" lon="6.34344">
        <ele>2149.4</ele>
        <time>2024-08-12T09:35:29Z</time>
      </trkpt>
      <trkpt lat="44.76122" lon="6.34344">
        <ele>2149.2</ele>
        <time>2024-08-12T09:35:30Z</time>
      </trkpt>
      <trkpt lat="44.7612" lon="6.34343">
        <ele>2149.2</ele>
        <time>2024-08-12T09:35:31Z</time>
      </trkpt>
      <trkpt lat="44.7612" lon="6.34343">
        <ele>2148.6</ele>
        <time>2024-08-12T09:35:32Z</time>
      </trkpt>
      <trkpt lat="44.7612" lon="6.34343">
        <ele>2148.4</ele>
        <time>2024-08-12T09:35:33Z</time>
      </trkpt>
      <trkpt lat="44.76117" lon="6.34342">
        <ele>2148.2</ele>
        <time>2024-08-12T09:35:34Z</time>
      </trkpt>
      <trkpt lat="44.76117" lon="6.34342">
        <ele>2147.8</ele>
        <time>2024-08-12T09:35:35Z</time>
      </trkpt>
      <trkpt lat="44.76115" lon="6.34341">
        <ele>2147.6</ele>
        <time>2024-08-12T09:35:36Z</time>
      </trkpt>
      <trkpt lat="44.76115" lon="6.34341">
        <ele>2147.6</ele>
        <time>2024-08-12T09:35:37Z</time>
      </trkpt>
      <trkpt lat="44.76115" lon="6.34341">
        <ele>2147.4</ele>
        <time>2024-08-12T09:35:38Z</time>
      </trkpt>
      <trkpt lat="44.76115" lon="6.34341">
        <ele>2147.2</ele>
        <time>2024-08-12T09:35:39Z</time>
      </trkpt>
      <trkpt lat="44.76113" lon="6.34339">
        <ele>2147</ele>
        <time>2024-08-12T09:35:40Z</time>
      </trkpt>
      <trkpt lat="44.76113" lon="6.34339">
        <ele>2146.8</ele>
        <time>2024-08-12T09:35:41Z</time>
      </trkpt>
      <trkpt lat="44.76113" lon="6.34339">
        <ele>2146.8</ele>
        <time>2024-08-12T09:35:42Z</time>
      </trkpt>
      <trkpt lat="44.7611" lon="6.34337">
        <ele>2146.4</ele>
        <time>2024-08-12T09:35:43Z</time>
      </trkpt>
      <trkpt lat="44.7611" lon="6.34337">
        <ele>2146</ele>
        <time>2024-08-12T09:35:44Z</time>
      </trkpt>
      <trkpt lat="44.76109" lon="6.34335">
        <ele>2146</ele>
        <time>2024-08-12T09:35:45Z</time>
      </trkpt>
      <trkpt lat="44.76109" lon="6.34335">
        <ele>2145.8</ele>
        <time>2024-08-12T09:35:46Z</time>
      </trkpt>
      <trkpt lat="44.76108" lon="6.34333">
        <ele>2145.4</ele>
        <time>2024-08-12T09:35:47Z</time>
      </trkpt>
      <trkpt lat="44.76108" lon="6.34333">
        <ele>2145.2</ele>
        <time>2024-08-12T09:35:48Z</time>
      </trkpt>
      <trkpt lat="44.76108" lon="6.34333">
        <ele>2145</ele>
        <time>2024-08-12T09:35:49Z</time>
      </trkpt>
      <trkpt lat="44.76106" lon="6.3433">
        <ele>2144.6</ele>
        <time>2024-08-12T09:35:50Z</time>
      </trkpt>
      <trkpt lat="44.76106" lon="6.3433">
        <ele>2144.2</ele>
        <time>2024-08-12T09:35:51Z</time>
      </trkpt>
      <trkpt lat="44.76106" lon="6.3433">
        <ele>2144</ele>
        <time>2024-08-12T09:35:52Z</time>
      </trkpt>
      <trkpt lat="44.76104" lon="6.34327">
        <ele>2143.8</ele>
        <time>2024-08-12T09:35:53Z</time>
      </trkpt>
      <trkpt lat="44.76104" lon="6.34327">
        <ele>2143.6</ele>
        <time>2024-08-12T09:35:54Z</time>
      </trkpt>
      <trkpt lat="44.76104" lon="6.34327">
        <ele>2143.4</ele>
        <time>2024-08-12T09:35:55Z</time>
      </trkpt>
      <trkpt lat="44.76103" lon="6.34324">
        <ele>2143.2</ele>
        <time>2024-08-12T09:35:56Z</time>
      </trkpt>
      <trkpt lat="44.76103" lon="6.34324">
        <ele>2143.2</ele>
        <time>2024-08-12T09:35:57Z</time>
      </trkpt>
      <trkpt lat="44.76103" lon="6.34324">
        <ele>2143.2</ele>
        <time>2024-08-12T09:35:58Z</time>
      </trkpt>
      <trkpt lat="44.76102" lon="6.34322">
        <ele>2143</ele>
        <time>2024-08-12T09:35:59Z</time>
      </trkpt>
      <trkpt lat="44.76102" lon="6.34322">
        <ele>2142.8</ele>
        <time>2024-08-12T09:36:00Z</time>
      </trkpt>
      <trkpt lat="44.76102" lon="6.34322">
        <ele>2142.6</ele>
        <time>2024-08-12T09:36:01Z</time>
      </trkpt>
      <trkpt lat="44.76101" lon="6.34319">
        <ele>2142.2</ele>
        <time>2024-08-12T09:36:02Z</time>
      </trkpt>
      <trkpt lat="44.76101" lon="6.34319">
        <ele>2142.2</ele>
        <time>2024-08-12T09:36:03Z</time>
      </trkpt>
      <trkpt lat="44.76101" lon="6.34319">
        <ele>2141.8</ele>
        <time>2024-08-12T09:36:04Z</time>
      </trkpt>
      <trkpt lat="44.761" lon="6.34316">
        <ele>2141.6</ele>
        <time>2024-08-12T09:36:05Z</time>
      </trkpt>
      <trkpt lat="44.761" lon="6.34316">
        <ele>2141.6</ele>
        <time>2024-08-12T09:36:06Z</time>
      </trkpt>
      <trkpt lat="44.761" lon="6.34314">
        <ele>2141.4</ele>
        <time>2024-08-12T09:36:07Z</time>
      </trkpt>
      <trkpt lat="44.761" lon="6.34314">
        <ele>2141.2</ele>
        <time>2024-08-12T09:36:08Z</time>
      </trkpt>
      <trkpt lat="44.761" lon="6.3431">
        <ele>2140.8</ele>
        <time>2024-08-12T09:36:09Z</time>
      </trkpt>
      <trkpt lat="44.761" lon="6.3431">
        <ele>2140.6</ele>
        <time>2024-08-12T09:36:10Z</time>
      </trkpt>
      <trkpt lat="44.76101" lon="6.34307">
        <ele>2140.4</ele>
        <time>2024-08-12T09:36:11Z</time>
      </trkpt>
      <trkpt lat="44.76101" lon="6.34307">
        <ele>2140.2</ele>
        <time>2024-08-12T09:36:12Z</time>
      </trkpt>
      <trkpt lat="44.76103" lon="6.34304">
        <ele>2139.8</ele>
        <time>2024-08-12T09:36:13Z</time>
      </trkpt>
      <trkpt lat="44.76103" lon="6.34304">
        <ele>2139.4</ele>
        <time>2024-08-12T09:36:14Z</time>
      </trkpt>
      <trkpt lat="44.76104" lon="6.34302">
        <ele>2139.2</ele>
        <time>2024-08-12T09:36:15Z</time>
      </trkpt>
      <trkpt lat="44.76104" lon="6.34302">
        <ele>2139.2</ele>
        <time>2024-08-12T09:36:16Z</time>
      </trkpt>
      <trkpt lat="44.76106" lon="6.343">
        <ele>2139</ele>
        <time>2024-08-12T09:36:17Z</time>
      </trkpt>
      <trkpt lat="44.76106" lon="6.343">
        <ele>2139</ele>
        <time>2024-08-12T09:36:18Z</time>
      </trkpt>
      <trkpt lat="44.76108" lon="6.34299">
        <ele>2139</ele>
        <time>2024-08-12T09:36:19Z</time>
      </trkpt>
      <trkpt lat="44.76108" lon="6.34299">
        <ele>2139</ele>
        <time>2024-08-12T09:36:20Z</time>
      </trkpt>
      <trkpt lat="44.76108" lon="6.34299">
        <ele>2138.8</ele>
        <time>2024-08-12T09:36:21Z</time>
      </trkpt>
      <trkpt lat="44.7611" lon="6.34298">
        <ele>2138.8</ele>
        <time>2024-08-12T09:36:22Z</time>
      </trkpt>
      <trkpt lat="44.7611" lon="6.34298">
        <ele>2138.8</ele>
        <time>2024-08-12T09:36:23Z</time>
      </trkpt>
      <trkpt lat="44.7611" lon="6.34298">
        <ele>2138.6</ele>
        <time>2024-08-12T09:36:24Z</time>
      </trkpt>
      <trkpt lat="44.76111" lon="6.34294">
        <ele>2138.6</ele>
        <time>2024-08-12T09:36:25Z</time>
      </trkpt>
      <trkpt lat="44.76111" lon="6.34294">
        <ele>2138.4</ele>
        <time>2024-08-12T09:36:26Z</time>
      </trkpt>
      <trkpt lat="44.76111" lon="6.34292">
        <ele>2138.4</ele>
        <time>2024-08-12T09:36:27Z</time>
      </trkpt>
      <trkpt lat="44.76111" lon="6.34292">
        <ele>2138.2</ele>
        <time>2024-08-12T09:36:28Z</time>
      </trkpt>
      <trkpt lat="44.76111" lon="6.34292">
        <ele>2138.2</ele>
        <time>2024-08-12T09:36:29Z</time>
      </trkpt>
      <trkpt lat="44.76108" lon="6.3429">
        <ele>2138.2</ele>
        <time>2024-08-12T09:36:30Z</time>
      </trkpt>
      <trkpt lat="44.76108" lon="6.3429">
        <ele>2138</ele>
        <time>2024-08-12T09:36:31Z</time>
      </trkpt>
      <trkpt lat="44.76105" lon="6.34289">
        <ele>2137.6</ele>
        <time>2024-08-12T09:36:32Z</time>
      </trkpt>
      <trkpt lat="44.76105" lon="6.34289">
        <ele>2137.6</ele>
        <time>2024-08-12T09:36:33Z</time>
      </trkpt>
      <trkpt lat="44.76103" lon="6.34289">
        <ele>2137.4</ele>
        <time>2024-08-12T09:36:34Z</time>
      </trkpt>
      <trkpt lat="44.76103" lon="6.34289">
        <ele>2137.4</ele>
        <time>2024-08-12T09:36:35Z</time>
      </trkpt>
      <trkpt lat="44.76101" lon="6.3429">
        <ele>2137.2</ele>
        <time>2024-08-12T09:36:36Z</time>
      </trkpt>
      <trkpt lat="44.76101" lon="6.3429">
        <ele>2137</ele>
        <time>2024-08-12T09:36:37Z</time>
      </trkpt>
      <trkpt lat="44.76098" lon="6.3429">
        <ele>2136.8</ele>
        <time>2024-08-12T09:36:38Z</time>
      </trkpt>
      <trkpt lat="44.76098" lon="6.3429">
        <ele>2136.8</ele>
        <time>2024-08-12T09:36:39Z</time>
      </trkpt>
      <trkpt lat="44.76096" lon="6.34291">
        <ele>2136.4</ele>
        <time>2024-08-12T09:36:40Z</time>
      </trkpt>
      <trkpt lat="44.76096" lon="6.34291">
        <ele>2136.4</ele>
        <time>2024-08-12T09:36:41Z</time>
      </trkpt>
      <trkpt lat="44.76093" lon="6.34292">
        <ele>2136.4</ele>
        <time>2024-08-12T09:36:42Z</time>
      </trkpt>
      <trkpt lat="44.76093" lon="6.34292">
        <ele>2136</ele>
        <time>2024-08-12T09:36:43Z</time>
      </trkpt>
      <trkpt lat="44.76091" lon="6.34294">
        <ele>2135.8</ele>
        <time>2024-08-12T09:36:44Z</time>
      </trkpt>
      <trkpt lat="44.76091" lon="6.34294">
        <ele>2135.8</ele>
        <time>2024-08-12T09:36:45Z</time>
      </trkpt>
      <trkpt lat="44.76089" lon="6.34295">
        <ele>2135.6</ele>
        <time>2024-08-12T09:36:46Z</time>
      </trkpt>
      <trkpt lat="44.76089" lon="6.34295">
        <ele>2135.4</ele>
        <time>2024-08-12T09:36:47Z</time>
      </trkpt>
      <trkpt lat="44.76087" lon="6.34297">
        <ele>2135.2</ele>
        <time>2024-08-12T09:36:48Z</time>
      </trkpt>
      <trkpt lat="44.76087" lon="6.34297">
        <ele>2135.2</ele>
        <time>2024-08-12T09:36:49Z</time>
      </trkpt>
      <trkpt lat="44.76085" lon="6.34297">
        <ele>2135</ele>
        <time>2024-08-12T09:36:50Z</time>
      </trkpt>
      <trkpt lat="44.76085" lon="6.34297">
        <ele>2134.6</ele>
        <time>2024-08-12T09:36:51Z</time>
      </trkpt>
      <trkpt lat="44.76082" lon="6.34298">
        <ele>2134.6</ele>
        <time>2024-08-12T09:36:52Z</time>
      </trkpt>
      <trkpt lat="44.76082" lon="6.34298">
        <ele>2134.4</ele>
        <time>2024-08-12T09:36:53Z</time>
      </trkpt>
      <trkpt lat="44.76082" lon="6.34298">
        <ele>2134.2</ele>
        <time>2024-08-12T09:36:54Z</time>
      </trkpt>
      <trkpt lat="44.7608" lon="6.34298">
        <ele>2134</ele>
        <time>2024-08-12T09:36:55Z</time>
      </trkpt>
      <trkpt lat="44.7608" lon="6.34298">
        <ele>2133.8</ele>
        <time>2024-08-12T09:36:56Z</time>
      </trkpt>
      <trkpt lat="44.76078" lon="6.34298">
        <ele>2133.4</ele>
        <time>2024-08-12T09:36:57Z</time>
      </trkpt>
      <trkpt lat="44.76078" lon="6.34298">
        <ele>2133</ele>
        <time>2024-08-12T09:36:58Z</time>
      </trkpt>
      <trkpt lat="44.76076" lon="6.34298">
        <ele>2132.8</ele>
        <time>2024-08-12T09:36:59Z</time>
      </trkpt>
      <trkpt lat="44.76076" lon="6.34298">
        <ele>2132.6</ele>
        <time>2024-08-12T09:37:00Z</time>
      </trkpt>
      <trkpt lat="44.76074" lon="6.34298">
        <ele>2132.2</ele>
        <time>2024-08-12T09:37:01Z</time>
      </trkpt>
      <trkpt lat="44.76074" lon="6.34298">
        <ele>2132</ele>
        <time>2024-08-12T09:37:02Z</time>
      </trkpt>
      <trkpt lat="44.76071" lon="6.34298">
        <ele>2132</ele>
        <time>2024-08-12T09:37:03Z</time>
      </trkpt>
      <trkpt lat="44.76071" lon="6.34298">
        <ele>2131.6</ele>
        <time>2024-08-12T09:37:04Z</time>
      </trkpt>
      <trkpt lat="44.76071" lon="6.34298">
        <ele>2131.6</ele>
        <time>2024-08-12T09:37:05Z</time>
      </trkpt>
      <trkpt lat="44.76069" lon="6.34298">
        <ele>2131.4</ele>
        <time>2024-08-12T09:37:06Z</time>
      </trkpt>
      <trkpt lat="44.76069" lon="6.34298">
        <ele>2131.2</ele>
        <time>2024-08-12T09:37:07Z</time>
      </trkpt>
      <trkpt lat="44.76067" lon="6.34298">
        <ele>2131</ele>
        <time>2024-08-12T09:37:08Z</time>
      </trkpt>
      <trkpt lat="44.76067" lon="6.34298">
        <ele>2130.6</ele>
        <time>2024-08-12T09:37:09Z</time>
      </trkpt>
      <trkpt lat="44.76067" lon="6.34298">
        <ele>2130.2</ele>
        <time>2024-08-12T09:37:10Z</time>
      </trkpt>
      <trkpt lat="44.76064" lon="6.34298">
        <ele>2130</ele>
        <time>2024-08-12T09:37:11Z</time>
      </trkpt>
      <trkpt lat="44.76064" lon="6.34298">
        <ele>2129.8</ele>
        <time>2024-08-12T09:37:12Z</time>
      </trkpt>
      <trkpt lat="44.76062" lon="6.34299">
        <ele>2129.8</ele>
        <time>2024-08-12T09:37:13Z</time>
      </trkpt>
      <trkpt lat="44.76062" lon="6.34299">
        <ele>2129.6</ele>
        <time>2024-08-12T09:37:14Z</time>
      </trkpt>
      <trkpt lat="44.76061" lon="6.34299">
        <ele>2129</ele>
        <time>2024-08-12T09:37:15Z</time>
      </trkpt>
      <trkpt lat="44.76061" lon="6.34299">
        <ele>2128.8</ele>
        <time>2024-08-12T09:37:16Z</time>
      </trkpt>
      <trkpt lat="44.76058" lon="6.34301">
        <ele>2128.6</ele>
        <time>2024-08-12T09:37:17Z</time>
      </trkpt>
      <trkpt lat="44.76058" lon="6.34301">
        <ele>2128.2</ele>
        <time>2024-08-12T09:37:18Z</time>
      </trkpt>
      <trkpt lat="44.76056" lon="6.34302">
        <ele>2128</ele>
        <time>2024-08-12T09:37:19Z</time>
      </trkpt>
      <trkpt lat="44.76056" lon="6.34302">
        <ele>2128</ele>
        <time>2024-08-12T09:37:20Z</time>
      </trkpt>
      <trkpt lat="44.76054" lon="6.34303">
        <ele>2128</ele>
        <time>2024-08-12T09:37:21Z</time>
      </trkpt>
      <trkpt lat="44.76054" lon="6.34303">
        <ele>2128</ele>
        <time>2024-08-12T09:37:22Z</time>
      </trkpt>
      <trkpt lat="44.76052" lon="6.34302">
        <ele>2128</ele>
        <time>2024-08-12T09:37:23Z</time>
      </trkpt>
      <trkpt lat="44.76052" lon="6.34302">
        <ele>2127.8</ele>
        <time>2024-08-12T09:37:24Z</time>
      </trkpt>
      <trkpt lat="44.7605" lon="6.34302">
        <ele>2127.6</ele>
        <time>2024-08-12T09:37:25Z</time>
      </trkpt>
      <trkpt lat="44.7605" lon="6.34302">
        <ele>2127.6</ele>
        <time>2024-08-12T09:37:26Z</time>
      </trkpt>
      <trkpt lat="44.76048" lon="6.34301">
        <ele>2127.6</ele>
        <time>2024-08-12T09:37:27Z</time>
      </trkpt>
      <trkpt lat="44.76048" lon="6.34301">
        <ele>2127.6</ele>
        <time>2024-08-12T09:37:28Z</time>
      </trkpt>
      <trkpt lat="44.76048" lon="6.34301">
        <ele>2127.4</ele>
        <time>2024-08-12T09:37:29Z</time>
      </trkpt>
      <trkpt lat="44.76048" lon="6.34301">
        <ele>2127.2</ele>
        <time>2024-08-12T09:37:30Z</time>
      </trkpt>
      <trkpt lat="44.76048" lon="6.34301">
        <ele>2127</ele>
        <time>2024-08-12T09:37:31Z</time>
      </trkpt>
      <trkpt lat="44.76048" lon="6.34301">
        <ele>2127</ele>
        <time>2024-08-12T09:37:32Z</time>
      </trkpt>
      <trkpt lat="44.76048" lon="6.34301">
        <ele>2126.8</ele>
        <time>2024-08-12T09:37:33Z</time>
      </trkpt>
      <trkpt lat="44.76047" lon="6.34303">
        <ele>2126.6</ele>
        <time>2024-08-12T09:37:34Z</time>
      </trkpt>
      <trkpt lat="44.76047" lon="6.34303">
        <ele>2126.2</ele>
        <time>2024-08-12T09:37:35Z</time>
      </trkpt>
      <trkpt lat="44.76045" lon="6.34304">
        <ele>2125.8</ele>
        <time>2024-08-12T09:37:36Z</time>
      </trkpt>
      <trkpt lat="44.76045" lon="6.34304">
        <ele>2125.6</ele>
        <time>2024-08-12T09:37:37Z</time>
      </trkpt>
      <trkpt lat="44.76045" lon="6.34304">
        <ele>2125.4</ele>
        <time>2024-08-12T09:37:38Z</time>
      </trkpt>
      <trkpt lat="44.76043" lon="6.34302">
        <ele>2125.4</ele>
        <time>2024-08-12T09:37:39Z</time>
      </trkpt>
      <trkpt lat="44.76043" lon="6.34302">
        <ele>2125.4</ele>
        <time>2024-08-12T09:37:40Z</time>
      </trkpt>
      <trkpt lat="44.76041" lon="6.343">
        <ele>2125</ele>
        <time>2024-08-12T09:37:41Z</time>
      </trkpt>
      <trkpt lat="44.76041" lon="6.343">
        <ele>2124.8</ele>
        <time>2024-08-12T09:37:42Z</time>
      </trkpt>
      <trkpt lat="44.7604" lon="6.34298">
        <ele>2124.4</ele>
        <time>2024-08-12T09:37:43Z</time>
      </trkpt>
      <trkpt lat="44.7604" lon="6.34298">
        <ele>2124.4</ele>
        <time>2024-08-12T09:37:44Z</time>
      </trkpt>
      <trkpt lat="44.76039" lon="6.34296">
        <ele>2124.4</ele>
        <time>2024-08-12T09:37:45Z</time>
      </trkpt>
      <trkpt lat="44.76039" lon="6.34296">
        <ele>2124.4</ele>
        <time>2024-08-12T09:37:46Z</time>
      </trkpt>
      <trkpt lat="44.76039" lon="6.34296">
        <ele>2124.2</ele>
        <time>2024-08-12T09:37:47Z</time>
      </trkpt>
      <trkpt lat="44.76038" lon="6.34294">
        <ele>2124.2</ele>
        <time>2024-08-12T09:37:48Z</time>
      </trkpt>
      <trkpt lat="44.76038" lon="6.34294">
        <ele>2124.2</ele>
        <time>2024-08-12T09:37:49Z</time>
      </trkpt>
      <trkpt lat="44.76038" lon="6.34294">
        <ele>2124</ele>
        <time>2024-08-12T09:37:50Z</time>
      </trkpt>
      <trkpt lat="44.76037" lon="6.34292">
        <ele>2123.8</ele>
        <time>2024-08-12T09:37:51Z</time>
      </trkpt>
      <trkpt lat="44.76037" lon="6.34292">
        <ele>2123.4</ele>
        <time>2024-08-12T09:37:52Z</time>
      </trkpt>
      <trkpt lat="44.76037" lon="6.34292">
        <ele>2123</ele>
        <time>2024-08-12T09:37:53Z</time>
      </trkpt>
      <trkpt lat="44.76034" lon="6.3429">
        <ele>2123</ele>
        <time>2024-08-12T09:37:54Z</time>
      </trkpt>
      <trkpt lat="44.76034" lon="6.3429">
        <ele>2123</ele>
        <time>2024-08-12T09:37:55Z</time>
      </trkpt>
      <trkpt lat="44.76034" lon="6.3429">
        <ele>2123</ele>
        <time>2024-08-12T09:37:56Z</time>
      </trkpt>
      <trkpt lat="44.76032" lon="6.34287">
        <ele>2122.8</ele>
        <time>2024-08-12T09:37:57Z</time>
      </trkpt>
      <trkpt lat="44.76032" lon="6.34287">
        <ele>2122.8</ele>
        <time>2024-08-12T09:37:58Z</time>
      </trkpt>
      <trkpt lat="44.76031" lon="6.34285">
        <ele>2122.6</ele>
        <time>2024-08-12T09:37:59Z</time>
      </trkpt>
      <trkpt lat="44.76031" lon="6.34285">
        <ele>2122.4</ele>
        <time>2024-08-12T09:38:00Z</time>
      </trkpt>
      <trkpt lat="44.76029" lon="6.34284">
        <ele>2122.2</ele>
        <time>2024-08-12T09:38:01Z</time>
      </trkpt>
      <trkpt lat="44.76029" lon="6.34284">
        <ele>2122</ele>
        <time>2024-08-12T09:38:02Z</time>
      </trkpt>
      <trkpt lat="44.76027" lon="6.34284">
        <ele>2122</ele>
        <time>2024-08-12T09:38:03Z</time>
      </trkpt>
      <trkpt lat="44.76027" lon="6.34284">
        <ele>2122</ele>
        <time>2024-08-12T09:38:04Z</time>
      </trkpt>
      <trkpt lat="44.76024" lon="6.34284">
        <ele>2121.8</ele>
        <time>2024-08-12T09:38:05Z</time>
      </trkpt>
      <trkpt lat="44.76024" lon="6.34284">
        <ele>2121.6</ele>
        <time>2024-08-12T09:38:06Z</time>
      </trkpt>
      <trkpt lat="44.76021" lon="6.34284">
        <ele>2121.4</ele>
        <time>2024-08-12T09:38:07Z</time>
      </trkpt>
      <trkpt lat="44.76021" lon="6.34284">
        <ele>2121.2</ele>
        <time>2024-08-12T09:38:08Z</time>
      </trkpt>
      <trkpt lat="44.7602" lon="6.34283">
        <ele>2121.2</ele>
        <time>2024-08-12T09:38:09Z</time>
      </trkpt>
      <trkpt lat="44.7602" lon="6.34283">
        <ele>2121</ele>
        <time>2024-08-12T09:38:10Z</time>
      </trkpt>
      <trkpt lat="44.76018" lon="6.34282">
        <ele>2121</ele>
        <time>2024-08-12T09:38:11Z</time>
      </trkpt>
      <trkpt lat="44.76018" lon="6.34282">
        <ele>2120.8</ele>
        <time>2024-08-12T09:38:12Z</time>
      </trkpt>
      <trkpt lat="44.76016" lon="6.34281">
        <ele>2120.6</ele>
        <time>2024-08-12T09:38:13Z</time>
      </trkpt>
      <trkpt lat="44.76016" lon="6.34281">
        <ele>2120.4</ele>
        <time>2024-08-12T09:38:14Z</time>
      </trkpt>
      <trkpt lat="44.76014" lon="6.34279">
        <ele>2120.4</ele>
        <time>2024-08-12T09:38:15Z</time>
      </trkpt>
      <trkpt lat="44.76014" lon="6.34279">
        <ele>2120</ele>
        <time>2024-08-12T09:38:16Z</time>
      </trkpt>
      <trkpt lat="44.76012" lon="6.34278">
        <ele>2120</ele>
        <time>2024-08-12T09:38:17Z</time>
      </trkpt>
      <trkpt lat="44.76012" lon="6.34278">
        <ele>2119.6</ele>
        <time>2024-08-12T09:38:18Z</time>
      </trkpt>
      <trkpt lat="44.7601" lon="6.34277">
        <ele>2119.4</ele>
        <time>2024-08-12T09:38:19Z</time>
      </trkpt>
      <trkpt lat="44.7601" lon="6.34277">
        <ele>2119</ele>
        <time>2024-08-12T09:38:20Z</time>
      </trkpt>
      <trkpt lat="44.7601" lon="6.34277">
        <ele>2119</ele>
        <time>2024-08-12T09:38:21Z</time>
      </trkpt>
      <trkpt lat="44.76011" lon="6.34273">
        <ele>2118.8</ele>
        <time>2024-08-12T09:38:22Z</time>
      </trkpt>
      <trkpt lat="44.76011" lon="6.34273">
        <ele>2118.8</ele>
        <time>2024-08-12T09:38:23Z</time>
      </trkpt>
      <trkpt lat="44.76012" lon="6.34271">
        <ele>2118.8</ele>
        <time>2024-08-12T09:38:24Z</time>
      </trkpt>
      <trkpt lat="44.76012" lon="6.34271">
        <ele>2118.8</ele>
        <time>2024-08-12T09:38:25Z</time>
      </trkpt>
      <trkpt lat="44.76012" lon="6.34271">
        <ele>2118.8</ele>
        <time>2024-08-12T09:38:26Z</time>
      </trkpt>
      <trkpt lat="44.76013" lon="6.34269">
        <ele>2118.4</ele>
        <time>2024-08-12T09:38:27Z</time>
      </trkpt>
      <trkpt lat="44.76013" lon="6.34269">
        <ele>2117.8</ele>
        <time>2024-08-12T09:38:28Z</time>
      </trkpt>
      <trkpt lat="44.76014" lon="6.34267">
        <ele>2117.4</ele>
        <time>2024-08-12T09:38:29Z</time>
      </trkpt>
      <trkpt lat="44.76014" lon="6.34267">
        <ele>2117.4</ele>
        <time>2024-08-12T09:38:30Z</time>
      </trkpt>
      <trkpt lat="44.76015" lon="6.34265">
        <ele>2117.2</ele>
        <time>2024-08-12T09:38:31Z</time>
      </trkpt>
      <trkpt lat="44.76015" lon="6.34265">
        <ele>2116.6</ele>
        <time>2024-08-12T09:38:32Z</time>
      </trkpt>
      <trkpt lat="44.76017" lon="6.34263">
        <ele>2116.4</ele>
        <time>2024-08-12T09:38:33Z</time>
      </trkpt>
      <trkpt lat="44.76017" lon="6.34263">
        <ele>2116.2</ele>
        <time>2024-08-12T09:38:34Z</time>
      </trkpt>
      <trkpt lat="44.76017" lon="6.34263">
        <ele>2116</ele>
        <time>2024-08-12T09:38:35Z</time>
      </trkpt>
      <trkpt lat="44.76018" lon="6.3426">
        <ele>2115.6</ele>
        <time>2024-08-12T09:38:36Z</time>
      </trkpt>
      <trkpt lat="44.76018" lon="6.3426">
        <ele>2115.4</ele>
        <time>2024-08-12T09:38:37Z</time>
      </trkpt>
      <trkpt lat="44.76019" lon="6.34258">
        <ele>2115.2</ele>
        <time>2024-08-12T09:38:38Z</time>
      </trkpt>
      <trkpt lat="44.76019" lon="6.34258">
        <ele>2115</ele>
        <time>2024-08-12T09:38:39Z</time>
      </trkpt>
      <trkpt lat="44.76019" lon="6.34258">
        <ele>2114.8</ele>
        <time>2024-08-12T09:38:40Z</time>
      </trkpt>
      <trkpt lat="44.76021" lon="6.34256">
        <ele>2114.6</ele>
        <time>2024-08-12T09:38:41Z</time>
      </trkpt>
      <trkpt lat="44.76021" lon="6.34256">
        <ele>2114.4</ele>
        <time>2024-08-12T09:38:42Z</time>
      </trkpt>
      <trkpt lat="44.76022" lon="6.34254">
        <ele>2114.2</ele>
        <time>2024-08-12T09:38:43Z</time>
      </trkpt>
      <trkpt lat="44.76022" lon="6.34254">
        <ele>2114.2</ele>
        <time>2024-08-12T09:38:44Z</time>
      </trkpt>
      <trkpt lat="44.76022" lon="6.34254">
        <ele>2114</ele>
        <time>2024-08-12T09:38:45Z</time>
      </trkpt>
      <trkpt lat="44.76023" lon="6.34251">
        <ele>2113.8</ele>
        <time>2024-08-12T09:38:46Z</time>
      </trkpt>
      <trkpt lat="44.76023" lon="6.34251">
        <ele>2113.4</ele>
        <time>2024-08-12T09:38:47Z</time>
      </trkpt>
      <trkpt lat="44.76024" lon="6.34249">
        <ele>2113.4</ele>
        <time>2024-08-12T09:38:48Z</time>
      </trkpt>
      <trkpt lat="44.76024" lon="6.34249">
        <ele>2113.4</ele>
        <time>2024-08-12T09:38:49Z</time>
      </trkpt>
      <trkpt lat="44.76024" lon="6.34249">
        <ele>2113.2</ele>
        <time>2024-08-12T09:38:50Z</time>
      </trkpt>
      <trkpt lat="44.76026" lon="6.34246">
        <ele>2113.2</ele>
        <time>2024-08-12T09:38:51Z</time>
      </trkpt>
      <trkpt lat="44.76026" lon="6.34246">
        <ele>2112.4</ele>
        <time>2024-08-12T09:38:52Z</time>
      </trkpt>
      <trkpt lat="44.76026" lon="6.34246">
        <ele>2112.4</ele>
        <time>2024-08-12T09:38:53Z</time>
      </trkpt>
      <trkpt lat="44.76028" lon="6.34244">
        <ele>2112.4</ele>
        <time>2024-08-12T09:38:54Z</time>
      </trkpt>
      <trkpt lat="44.76028" lon="6.34244">
        <ele>2112.2</ele>
        <time>2024-08-12T09:38:55Z</time>
      </trkpt>
      <trkpt lat="44.76028" lon="6.34244">
        <ele>2111.8</ele>
        <time>2024-08-12T09:38:56Z</time>
      </trkpt>
      <trkpt lat="44.76028" lon="6.34244">
        <ele>2111.8</ele>
        <time>2024-08-12T09:38:57Z</time>
      </trkpt>
      <trkpt lat="44.76028" lon="6.34244">
        <ele>2111.6</ele>
        <time>2024-08-12T09:38:58Z</time>
      </trkpt>
      <trkpt lat="44.76028" lon="6.34244">
        <ele>2111.4</ele>
        <time>2024-08-12T09:38:59Z</time>
      </trkpt>
      <trkpt lat="44.76028" lon="6.34244">
        <ele>2111.2</ele>
        <time>2024-08-12T09:39:00Z</time>
      </trkpt>
      <trkpt lat="44.76028" lon="6.34244">
        <ele>2111.2</ele>
        <time>2024-08-12T09:39:01Z</time>
      </trkpt>
      <trkpt lat="44.76028" lon="6.34244">
        <ele>2111.4</ele>
        <time>2024-08-12T09:39:02Z</time>
      </trkpt>
      <trkpt lat="44.76028" lon="6.34244">
        <ele>2111.4</ele>
        <time>2024-08-12T09:39:03Z</time>
      </trkpt>
      <trkpt lat="44.76028" lon="6.34244">
        <ele>2111.4</ele>
        <time>2024-08-12T09:39:04Z</time>
      </trkpt>
      <trkpt lat="44.76028" lon="6.34244">
        <ele>2111.4</ele>
        <time>2024-08-12T09:39:05Z</time>
      </trkpt>
      <trkpt lat="44.76028" lon="6.34244">
        <ele>2111.4</ele>
        <time>2024-08-12T09:39:06Z</time>
      </trkpt>
      <trkpt lat="44.76028" lon="6.34244">
        <ele>2111.4</ele>
        <time>2024-08-12T09:39:07Z</time>
      </trkpt>
      <trkpt lat="44.76028" lon="6.34244">
        <ele>2111.4</ele>
        <time>2024-08-12T09:39:08Z</time>
      </trkpt>
      <trkpt lat="44.76029" lon="6.34241">
        <ele>2111.4</ele>
        <time>2024-08-12T09:39:09Z</time>
      </trkpt>
      <trkpt lat="44.76029" lon="6.34241">
        <ele>2111.2</ele>
        <time>2024-08-12T09:39:10Z</time>
      </trkpt>
      <trkpt lat="44.7603" lon="6.34239">
        <ele>2111.2</ele>
        <time>2024-08-12T09:39:11Z</time>
      </trkpt>
      <trkpt lat="44.7603" lon="6.34239">
        <ele>2111</ele>
        <time>2024-08-12T09:39:12Z</time>
      </trkpt>
      <trkpt lat="44.76032" lon="6.34236">
        <ele>2110.6</ele>
        <time>2024-08-12T09:39:13Z</time>
      </trkpt>
      <trkpt lat="44.76032" lon="6.34236">
        <ele>2110.4</ele>
        <time>2024-08-12T09:39:14Z</time>
      </trkpt>
      <trkpt lat="44.76032" lon="6.34233">
        <ele>2110.2</ele>
        <time>2024-08-12T09:39:15Z</time>
      </trkpt>
      <trkpt lat="44.76032" lon="6.34233">
        <ele>2110</ele>
        <time>2024-08-12T09:39:16Z</time>
      </trkpt>
      <trkpt lat="44.76033" lon="6.3423">
        <ele>2109.8</ele>
        <time>2024-08-12T09:39:17Z</time>
      </trkpt>
      <trkpt lat="44.76033" lon="6.3423">
        <ele>2109.8</ele>
        <time>2024-08-12T09:39:18Z</time>
      </trkpt>
      <trkpt lat="44.76033" lon="6.3423">
        <ele>2109.8</ele>
        <time>2024-08-12T09:39:19Z</time>
      </trkpt>
      <trkpt lat="44.76033" lon="6.34227">
        <ele>2109.6</ele>
        <time>2024-08-12T09:39:20Z</time>
      </trkpt>
      <trkpt lat="44.76033" lon="6.34227">
        <ele>2109.6</ele>
        <time>2024-08-12T09:39:21Z</time>
      </trkpt>
      <trkpt lat="44.76033" lon="6.34224">
        <ele>2109.4</ele>
        <time>2024-08-12T09:39:22Z</time>
      </trkpt>
      <trkpt lat="44.76033" lon="6.34224">
        <ele>2109.2</ele>
        <time>2024-08-12T09:39:23Z</time>
      </trkpt>
      <trkpt lat="44.76034" lon="6.34221">
        <ele>2108.8</ele>
        <time>2024-08-12T09:39:24Z</time>
      </trkpt>
      <trkpt lat="44.76034" lon="6.34221">
        <ele>2108.6</ele>
        <time>2024-08-12T09:39:25Z</time>
      </trkpt>
      <trkpt lat="44.76033" lon="6.34218">
        <ele>2108.6</ele>
        <time>2024-08-12T09:39:26Z</time>
      </trkpt>
      <trkpt lat="44.76033" lon="6.34218">
        <ele>2108.4</ele>
        <time>2024-08-12T09:39:27Z</time>
      </trkpt>
      <trkpt lat="44.76033" lon="6.34218">
        <ele>2108.4</ele>
        <time>2024-08-12T09:39:28Z</time>
      </trkpt>
      <trkpt lat="44.76033" lon="6.34215">
        <ele>2108</ele>
        <time>2024-08-12T09:39:29Z</time>
      </trkpt>
      <trkpt lat="44.76033" lon="6.34215">
        <ele>2107.8</ele>
        <time>2024-08-12T09:39:30Z</time>
      </trkpt>
      <trkpt lat="44.76033" lon="6.34212">
        <ele>2107.8</ele>
        <time>2024-08-12T09:39:31Z</time>
      </trkpt>
      <trkpt lat="44.76033" lon="6.34212">
        <ele>2107.6</ele>
        <time>2024-08-12T09:39:32Z</time>
      </trkpt>
      <trkpt lat="44.76034" lon="6.3421">
        <ele>2107.6</ele>
        <time>2024-08-12T09:39:33Z</time>
      </trkpt>
      <trkpt lat="44.76034" lon="6.3421">
        <ele>2107.4</ele>
        <time>2024-08-12T09:39:34Z</time>
      </trkpt>
      <trkpt lat="44.76036" lon="6.34208">
        <ele>2107.2</ele>
        <time>2024-08-12T09:39:35Z</time>
      </trkpt>
      <trkpt lat="44.76036" lon="6.34208">
        <ele>2107</ele>
        <time>2024-08-12T09:39:36Z</time>
      </trkpt>
      <trkpt lat="44.76039" lon="6.34208">
        <ele>2106.8</ele>
        <time>2024-08-12T09:39:37Z</time>
      </trkpt>
      <trkpt lat="44.76039" lon="6.34208">
        <ele>2106.8</ele>
        <time>2024-08-12T09:39:38Z</time>
      </trkpt>
      <trkpt lat="44.76041" lon="6.34208">
        <ele>2106.6</ele>
        <time>2024-08-12T09:39:39Z</time>
      </trkpt>
      <trkpt lat="44.76041" lon="6.34208">
        <ele>2106.2</ele>
        <time>2024-08-12T09:39:40Z</time>
      </trkpt>
      <trkpt lat="44.76043" lon="6.34206">
        <ele>2106</ele>
        <time>2024-08-12T09:39:41Z</time>
      </trkpt>
      <trkpt lat="44.76043" lon="6.34206">
        <ele>2106</ele>
        <time>2024-08-12T09:39:42Z</time>
      </trkpt>
      <trkpt lat="44.76044" lon="6.34204">
        <ele>2105.8</ele>
        <time>2024-08-12T09:39:43Z</time>
      </trkpt>
      <trkpt lat="44.76046" lon="6.34203">
        <ele>2105.8</ele>
        <time>2024-08-12T09:39:44Z</time>
      </trkpt>
      <trkpt lat="44.76046" lon="6.34203">
        <ele>2105.8</ele>
        <time>2024-08-12T09:39:45Z</time>
      </trkpt>
      <trkpt lat="44.76048" lon="6.34201">
        <ele>2105.4</ele>
        <time>2024-08-12T09:39:46Z</time>
      </trkpt>
      <trkpt lat="44.76048" lon="6.34201">
        <ele>2105.4</ele>
        <time>2024-08-12T09:39:47Z</time>
      </trkpt>
      <trkpt lat="44.76048" lon="6.34201">
        <ele>2105.4</ele>
        <time>2024-08-12T09:39:48Z</time>
      </trkpt>
      <trkpt lat="44.7605" lon="6.34201">
        <ele>2105.4</ele>
        <time>2024-08-12T09:39:49Z</time>
      </trkpt>
      <trkpt lat="44.7605" lon="6.34201">
        <ele>2105.2</ele>
        <time>2024-08-12T09:39:50Z</time>
      </trkpt>
      <trkpt lat="44.76052" lon="6.34201">
        <ele>2105</ele>
        <time>2024-08-12T09:39:51Z</time>
      </trkpt>
      <trkpt lat="44.76052" lon="6.34201">
        <ele>2104.6</ele>
        <time>2024-08-12T09:39:52Z</time>
      </trkpt>
      <trkpt lat="44.76054" lon="6.342">
        <ele>2104.4</ele>
        <time>2024-08-12T09:39:53Z</time>
      </trkpt>
      <trkpt lat="44.76054" lon="6.342">
        <ele>2104.4</ele>
        <time>2024-08-12T09:39:54Z</time>
      </trkpt>
      <trkpt lat="44.76054" lon="6.342">
        <ele>2104.4</ele>
        <time>2024-08-12T09:39:55Z</time>
      </trkpt>
      <trkpt lat="44.76056" lon="6.34199">
        <ele>2104.4</ele>
        <time>2024-08-12T09:39:56Z</time>
      </trkpt>
      <trkpt lat="44.76056" lon="6.34199">
        <ele>2104.4</ele>
        <time>2024-08-12T09:39:57Z</time>
      </trkpt>
      <trkpt lat="44.76056" lon="6.34199">
        <ele>2104.4</ele>
        <time>2024-08-12T09:39:58Z</time>
      </trkpt>
      <trkpt lat="44.76058" lon="6.34198">
        <ele>2104</ele>
        <time>2024-08-12T09:39:59Z</time>
      </trkpt>
      <trkpt lat="44.76058" lon="6.34198">
        <ele>2103.8</ele>
        <time>2024-08-12T09:40:00Z</time>
      </trkpt>
      <trkpt lat="44.76061" lon="6.34197">
        <ele>2103.6</ele>
        <time>2024-08-12T09:40:01Z</time>
      </trkpt>
      <trkpt lat="44.76061" lon="6.34197">
        <ele>2103.4</ele>
        <time>2024-08-12T09:40:02Z</time>
      </trkpt>
      <trkpt lat="44.76061" lon="6.34197">
        <ele>2103.4</ele>
        <time>2024-08-12T09:40:03Z</time>
      </trkpt>
      <trkpt lat="44.76063" lon="6.34196">
        <ele>2103.4</ele>
        <time>2024-08-12T09:40:04Z</time>
      </trkpt>
      <trkpt lat="44.76063" lon="6.34196">
        <ele>2103.4</ele>
        <time>2024-08-12T09:40:05Z</time>
      </trkpt>
      <trkpt lat="44.76063" lon="6.34196">
        <ele>2103.2</ele>
        <time>2024-08-12T09:40:06Z</time>
      </trkpt>
      <trkpt lat="44.76065" lon="6.34196">
        <ele>2103</ele>
        <time>2024-08-12T09:40:07Z</time>
      </trkpt>
      <trkpt lat="44.76065" lon="6.34196">
        <ele>2102.6</ele>
        <time>2024-08-12T09:40:08Z</time>
      </trkpt>
      <trkpt lat="44.76065" lon="6.34196">
        <ele>2102.4</ele>
        <time>2024-08-12T09:40:09Z</time>
      </trkpt>
      <trkpt lat="44.76067" lon="6.34194">
        <ele>2102</ele>
        <time>2024-08-12T09:40:10Z</time>
      </trkpt>
      <trkpt lat="44.76067" lon="6.34194">
        <ele>2101.8</ele>
        <time>2024-08-12T09:40:11Z</time>
      </trkpt>
      <trkpt lat="44.76068" lon="6.34192">
        <ele>2101.4</ele>
        <time>2024-08-12T09:40:12Z</time>
      </trkpt>
      <trkpt lat="44.76068" lon="6.34192">
        <ele>2101.4</ele>
        <time>2024-08-12T09:40:13Z</time>
      </trkpt>
      <trkpt lat="44.76068" lon="6.34192">
        <ele>2101.2</ele>
        <time>2024-08-12T09:40:14Z</time>
      </trkpt>
      <trkpt lat="44.7607" lon="6.34189">
        <ele>2101</ele>
        <time>2024-08-12T09:40:15Z</time>
      </trkpt>
      <trkpt lat="44.7607" lon="6.34189">
        <ele>2100.6</ele>
        <time>2024-08-12T09:40:16Z</time>
      </trkpt>
      <trkpt lat="44.7607" lon="6.34189">
        <ele>2100.6</ele>
        <time>2024-08-12T09:40:17Z</time>
      </trkpt>
      <trkpt lat="44.76072" lon="6.34187">
        <ele>2100.4</ele>
        <time>2024-08-12T09:40:18Z</time>
      </trkpt>
      <trkpt lat="44.76072" lon="6.34187">
        <ele>2100.2</ele>
        <time>2024-08-12T09:40:19Z</time>
      </trkpt>
      <trkpt lat="44.76072" lon="6.34187">
        <ele>2100.2</ele>
        <time>2024-08-12T09:40:20Z</time>
      </trkpt>
      <trkpt lat="44.76074" lon="6.34184">
        <ele>2100.2</ele>
        <time>2024-08-12T09:40:21Z</time>
      </trkpt>
      <trkpt lat="44.76074" lon="6.34184">
        <ele>2100</ele>
        <time>2024-08-12T09:40:22Z</time>
      </trkpt>
      <trkpt lat="44.76076" lon="6.34182">
        <ele>2099.8</ele>
        <time>2024-08-12T09:40:23Z</time>
      </trkpt>
      <trkpt lat="44.76076" lon="6.34182">
        <ele>2099.6</ele>
        <time>2024-08-12T09:40:24Z</time>
      </trkpt>
      <trkpt lat="44.76077" lon="6.34179">
        <ele>2099.4</ele>
        <time>2024-08-12T09:40:25Z</time>
      </trkpt>
      <trkpt lat="44.76077" lon="6.34179">
        <ele>2099</ele>
        <time>2024-08-12T09:40:26Z</time>
      </trkpt>
      <trkpt lat="44.76078" lon="6.34176">
        <ele>2098.6</ele>
        <time>2024-08-12T09:40:27Z</time>
      </trkpt>
      <trkpt lat="44.76078" lon="6.34176">
        <ele>2098.4</ele>
        <time>2024-08-12T09:40:28Z</time>
      </trkpt>
      <trkpt lat="44.76079" lon="6.34174">
        <ele>2098.2</ele>
        <time>2024-08-12T09:40:29Z</time>
      </trkpt>
      <trkpt lat="44.76079" lon="6.34174">
        <ele>2097.6</ele>
        <time>2024-08-12T09:40:30Z</time>
      </trkpt>
      <trkpt lat="44.76081" lon="6.34171">
        <ele>2097.4</ele>
        <time>2024-08-12T09:40:31Z</time>
      </trkpt>
      <trkpt lat="44.76081" lon="6.34171">
        <ele>2097.2</ele>
        <time>2024-08-12T09:40:32Z</time>
      </trkpt>
      <trkpt lat="44.76082" lon="6.34168">
        <ele>2097</ele>
        <time>2024-08-12T09:40:33Z</time>
      </trkpt>
      <trkpt lat="44.76082" lon="6.34168">
        <ele>2096.8</ele>
        <time>2024-08-12T09:40:34Z</time>
      </trkpt>
      <trkpt lat="44.76084" lon="6.34166">
        <ele>2096.6</ele>
        <time>2024-08-12T09:40:35Z</time>
      </trkpt>
      <trkpt lat="44.76084" lon="6.34166">
        <ele>2096.4</ele>
        <time>2024-08-12T09:40:36Z</time>
      </trkpt>
      <trkpt lat="44.76085" lon="6.34164">
        <ele>2096.2</ele>
        <time>2024-08-12T09:40:37Z</time>
      </trkpt>
      <trkpt lat="44.76085" lon="6.34164">
        <ele>2096</ele>
        <time>2024-08-12T09:40:38Z</time>
      </trkpt>
      <trkpt lat="44.76087" lon="6.34161">
        <ele>2095.8</ele>
        <time>2024-08-12T09:40:39Z</time>
      </trkpt>
      <trkpt lat="44.76087" lon="6.34161">
        <ele>2095.6</ele>
        <time>2024-08-12T09:40:40Z</time>
      </trkpt>
      <trkpt lat="44.76088" lon="6.34159">
        <ele>2095.4</ele>
        <time>2024-08-12T09:40:41Z</time>
      </trkpt>
      <trkpt lat="44.76088" lon="6.34159">
        <ele>2095.2</ele>
        <time>2024-08-12T09:40:42Z</time>
      </trkpt>
      <trkpt lat="44.7609" lon="6.34157">
        <ele>2094.8</ele>
        <time>2024-08-12T09:40:43Z</time>
      </trkpt>
      <trkpt lat="44.7609" lon="6.34157">
        <ele>2094.6</ele>
        <time>2024-08-12T09:40:44Z</time>
      </trkpt>
      <trkpt lat="44.76092" lon="6.34155">
        <ele>2094.6</ele>
        <time>2024-08-12T09:40:45Z</time>
      </trkpt>
      <trkpt lat="44.76092" lon="6.34155">
        <ele>2094.6</ele>
        <time>2024-08-12T09:40:46Z</time>
      </trkpt>
      <trkpt lat="44.76094" lon="6.34152">
        <ele>2094.6</ele>
        <time>2024-08-12T09:40:47Z</time>
      </trkpt>
      <trkpt lat="44.76094" lon="6.34152">
        <ele>2094.4</ele>
        <time>2024-08-12T09:40:48Z</time>
      </trkpt>
      <trkpt lat="44.76096" lon="6.3415">
        <ele>2094.2</ele>
        <time>2024-08-12T09:40:49Z</time>
      </trkpt>
      <trkpt lat="44.76096" lon="6.3415">
        <ele>2093.8</ele>
        <time>2024-08-12T09:40:50Z</time>
      </trkpt>
      <trkpt lat="44.76098" lon="6.34148">
        <ele>2093.2</ele>
        <time>2024-08-12T09:40:51Z</time>
      </trkpt>
      <trkpt lat="44.76098" lon="6.34148">
        <ele>2093</ele>
        <time>2024-08-12T09:40:52Z</time>
      </trkpt>
      <trkpt lat="44.76101" lon="6.34146">
        <ele>2092.6</ele>
        <time>2024-08-12T09:40:53Z</time>
      </trkpt>
      <trkpt lat="44.76101" lon="6.34146">
        <ele>2092.4</ele>
        <time>2024-08-12T09:40:54Z</time>
      </trkpt>
      <trkpt lat="44.76103" lon="6.34144">
        <ele>2092.2</ele>
        <time>2024-08-12T09:40:55Z</time>
      </trkpt>
      <trkpt lat="44.76103" lon="6.34144">
        <ele>2092</ele>
        <time>2024-08-12T09:40:56Z</time>
      </trkpt>
      <trkpt lat="44.76105" lon="6.34142">
        <ele>2091.4</ele>
        <time>2024-08-12T09:40:57Z</time>
      </trkpt>
      <trkpt lat="44.76105" lon="6.34142">
        <ele>2091.4</ele>
        <time>2024-08-12T09:40:58Z</time>
      </trkpt>
      <trkpt lat="44.76108" lon="6.3414">
        <ele>2091.2</ele>
        <time>2024-08-12T09:40:59Z</time>
      </trkpt>
      <trkpt lat="44.76108" lon="6.3414">
        <ele>2090.8</ele>
        <time>2024-08-12T09:41:00Z</time>
      </trkpt>
      <trkpt lat="44.76109" lon="6.34139">
        <ele>2090.6</ele>
        <time>2024-08-12T09:41:01Z</time>
      </trkpt>
      <trkpt lat="44.76109" lon="6.34139">
        <ele>2090.2</ele>
        <time>2024-08-12T09:41:02Z</time>
      </trkpt>
      <trkpt lat="44.76111" lon="6.34137">
        <ele>2090.2</ele>
        <time>2024-08-12T09:41:03Z</time>
      </trkpt>
      <trkpt lat="44.76111" lon="6.34137">
        <ele>2090.2</ele>
        <time>2024-08-12T09:41:04Z</time>
      </trkpt>
      <trkpt lat="44.76114" lon="6.34135">
        <ele>2090.2</ele>
        <time>2024-08-12T09:41:05Z</time>
      </trkpt>
      <trkpt lat="44.76114" lon="6.34135">
        <ele>2089.8</ele>
        <time>2024-08-12T09:41:06Z</time>
      </trkpt>
      <trkpt lat="44.76116" lon="6.34133">
        <ele>2089.8</ele>
        <time>2024-08-12T09:41:07Z</time>
      </trkpt>
      <trkpt lat="44.76116" lon="6.34133">
        <ele>2089.8</ele>
        <time>2024-08-12T09:41:08Z</time>
      </trkpt>
      <trkpt lat="44.76117" lon="6.34131">
        <ele>2089.6</ele>
        <time>2024-08-12T09:41:09Z</time>
      </trkpt>
      <trkpt lat="44.76117" lon="6.34131">
        <ele>2089.6</ele>
        <time>2024-08-12T09:41:10Z</time>
      </trkpt>
      <trkpt lat="44.76119" lon="6.34128">
        <ele>2089.4</ele>
        <time>2024-08-12T09:41:11Z</time>
      </trkpt>
      <trkpt lat="44.76119" lon="6.34128">
        <ele>2089</ele>
        <time>2024-08-12T09:41:12Z</time>
      </trkpt>
      <trkpt lat="44.76121" lon="6.34125">
        <ele>2088.8</ele>
        <time>2024-08-12T09:41:13Z</time>
      </trkpt>
      <trkpt lat="44.76121" lon="6.34125">
        <ele>2088.8</ele>
        <time>2024-08-12T09:41:14Z</time>
      </trkpt>
      <trkpt lat="44.76123" lon="6.34123">
        <ele>2088.8</ele>
        <time>2024-08-12T09:41:15Z</time>
      </trkpt>
      <trkpt lat="44.76123" lon="6.34123">
        <ele>2088.4</ele>
        <time>2024-08-12T09:41:16Z</time>
      </trkpt>
      <trkpt lat="44.76125" lon="6.3412">
        <ele>2088.4</ele>
        <time>2024-08-12T09:41:17Z</time>
      </trkpt>
      <trkpt lat="44.76125" lon="6.3412">
        <ele>2088.4</ele>
        <time>2024-08-12T09:41:18Z</time>
      </trkpt>
      <trkpt lat="44.76127" lon="6.34118">
        <ele>2088.6</ele>
        <time>2024-08-12T09:41:19Z</time>
      </trkpt>
      <trkpt lat="44.76127" lon="6.34118">
        <ele>2088.4</ele>
        <time>2024-08-12T09:41:20Z</time>
      </trkpt>
      <trkpt lat="44.7613" lon="6.34117">
        <ele>2088.4</ele>
        <time>2024-08-12T09:41:21Z</time>
      </trkpt>
      <trkpt lat="44.7613" lon="6.34117">
        <ele>2088.2</ele>
        <time>2024-08-12T09:41:22Z</time>
      </trkpt>
      <trkpt lat="44.76132" lon="6.34115">
        <ele>2088</ele>
        <time>2024-08-12T09:41:23Z</time>
      </trkpt>
      <trkpt lat="44.76132" lon="6.34115">
        <ele>2088</ele>
        <time>2024-08-12T09:41:24Z</time>
      </trkpt>
      <trkpt lat="44.76134" lon="6.34113">
        <ele>2088</ele>
        <time>2024-08-12T09:41:25Z</time>
      </trkpt>
      <trkpt lat="44.76134" lon="6.34113">
        <ele>2087.8</ele>
        <time>2024-08-12T09:41:26Z</time>
      </trkpt>
      <trkpt lat="44.76138" lon="6.34112">
        <ele>2088</ele>
        <time>2024-08-12T09:41:27Z</time>
      </trkpt>
      <trkpt lat="44.76138" lon="6.34112">
        <ele>2088</ele>
        <time>2024-08-12T09:41:28Z</time>
      </trkpt>
      <trkpt lat="44.7614" lon="6.34111">
        <ele>2088</ele>
        <time>2024-08-12T09:41:29Z</time>
      </trkpt>
      <trkpt lat="44.7614" lon="6.34111">
        <ele>2088</ele>
        <time>2024-08-12T09:41:30Z</time>
      </trkpt>
      <trkpt lat="44.76142" lon="6.34108">
        <ele>2088</ele>
        <time>2024-08-12T09:41:31Z</time>
      </trkpt>
      <trkpt lat="44.76142" lon="6.34108">
        <ele>2087.8</ele>
        <time>2024-08-12T09:41:32Z</time>
      </trkpt>
      <trkpt lat="44.76144" lon="6.34105">
        <ele>2087.8</ele>
        <time>2024-08-12T09:41:33Z</time>
      </trkpt>
      <trkpt lat="44.76144" lon="6.34105">
        <ele>2087.6</ele>
        <time>2024-08-12T09:41:34Z</time>
      </trkpt>
      <trkpt lat="44.76145" lon="6.34101">
        <ele>2087.2</ele>
        <time>2024-08-12T09:41:35Z</time>
      </trkpt>
      <trkpt lat="44.76145" lon="6.34101">
        <ele>2087.2</ele>
        <time>2024-08-12T09:41:36Z</time>
      </trkpt>
      <trkpt lat="44.76147" lon="6.34098">
        <ele>2087.4</ele>
        <time>2024-08-12T09:41:37Z</time>
      </trkpt>
      <trkpt lat="44.76147" lon="6.34098">
        <ele>2087.4</ele>
        <time>2024-08-12T09:41:38Z</time>
      </trkpt>
      <trkpt lat="44.76149" lon="6.34096">
        <ele>2087.2</ele>
        <time>2024-08-12T09:41:39Z</time>
      </trkpt>
      <trkpt lat="44.76149" lon="6.34096">
        <ele>2087</ele>
        <time>2024-08-12T09:41:40Z</time>
      </trkpt>
      <trkpt lat="44.76152" lon="6.34094">
        <ele>2087</ele>
        <time>2024-08-12T09:41:41Z</time>
      </trkpt>
      <trkpt lat="44.76152" lon="6.34094">
        <ele>2087.2</ele>
        <time>2024-08-12T09:41:42Z</time>
      </trkpt>
      <trkpt lat="44.76154" lon="6.34091">
        <ele>2087.2</ele>
        <time>2024-08-12T09:41:43Z</time>
      </trkpt>
      <trkpt lat="44.76154" lon="6.34091">
        <ele>2087.2</ele>
        <time>2024-08-12T09:41:44Z</time>
      </trkpt>
      <trkpt lat="44.76157" lon="6.3409">
        <ele>2087.2</ele>
        <time>2024-08-12T09:41:45Z</time>
      </trkpt>
      <trkpt lat="44.76157" lon="6.3409">
        <ele>2087</ele>
        <time>2024-08-12T09:41:46Z</time>
      </trkpt>
      <trkpt lat="44.76159" lon="6.34088">
        <ele>2087</ele>
        <time>2024-08-12T09:41:47Z</time>
      </trkpt>
      <trkpt lat="44.76159" lon="6.34088">
        <ele>2087.2</ele>
        <time>2024-08-12T09:41:48Z</time>
      </trkpt>
      <trkpt lat="44.76161" lon="6.34086">
        <ele>2087</ele>
        <time>2024-08-12T09:41:49Z</time>
      </trkpt>
      <trkpt lat="44.76161" lon="6.34086">
        <ele>2086.8</ele>
        <time>2024-08-12T09:41:50Z</time>
      </trkpt>
      <trkpt lat="44.76164" lon="6.34085">
        <ele>2086.8</ele>
        <time>2024-08-12T09:41:51Z</time>
      </trkpt>
      <trkpt lat="44.76164" lon="6.34085">
        <ele>2086.4</ele>
        <time>2024-08-12T09:41:52Z</time>
      </trkpt>
      <trkpt lat="44.76166" lon="6.34083">
        <ele>2086.4</ele>
        <time>2024-08-12T09:41:53Z</time>
      </trkpt>
      <trkpt lat="44.76166" lon="6.34083">
        <ele>2086.2</ele>
        <time>2024-08-12T09:41:54Z</time>
      </trkpt>
      <trkpt lat="44.76168" lon="6.34082">
        <ele>2085.8</ele>
        <time>2024-08-12T09:41:55Z</time>
      </trkpt>
      <trkpt lat="44.76168" lon="6.34082">
        <ele>2085.8</ele>
        <time>2024-08-12T09:41:56Z</time>
      </trkpt>
      <trkpt lat="44.76171" lon="6.3408">
        <ele>2085.4</ele>
        <time>2024-08-12T09:41:57Z</time>
      </trkpt>
      <trkpt lat="44.76171" lon="6.3408">
        <ele>2085.2</ele>
        <time>2024-08-12T09:41:58Z</time>
      </trkpt>
      <trkpt lat="44.76173" lon="6.34078">
        <ele>2085</ele>
        <time>2024-08-12T09:41:59Z</time>
      </trkpt>
      <trkpt lat="44.76173" lon="6.34078">
        <ele>2085</ele>
        <time>2024-08-12T09:42:00Z</time>
      </trkpt>
      <trkpt lat="44.76176" lon="6.34077">
        <ele>2084.6</ele>
        <time>2024-08-12T09:42:01Z</time>
      </trkpt>
      <trkpt lat="44.76176" lon="6.34077">
        <ele>2084.4</ele>
        <time>2024-08-12T09:42:02Z</time>
      </trkpt>
      <trkpt lat="44.76178" lon="6.34075">
        <ele>2084.4</ele>
        <time>2024-08-12T09:42:03Z</time>
      </trkpt>
      <trkpt lat="44.76178" lon="6.34075">
        <ele>2084.4</ele>
        <time>2024-08-12T09:42:04Z</time>
      </trkpt>
      <trkpt lat="44.76181" lon="6.34073">
        <ele>2084.4</ele>
        <time>2024-08-12T09:42:05Z</time>
      </trkpt>
      <trkpt lat="44.76181" lon="6.34073">
        <ele>2084.4</ele>
        <time>2024-08-12T09:42:06Z</time>
      </trkpt>
      <trkpt lat="44.76183" lon="6.34072">
        <ele>2084</ele>
        <time>2024-08-12T09:42:07Z</time>
      </trkpt>
      <trkpt lat="44.76183" lon="6.34072">
        <ele>2084</ele>
        <time>2024-08-12T09:42:08Z</time>
      </trkpt>
      <trkpt lat="44.76186" lon="6.34072">
        <ele>2084</ele>
        <time>2024-08-12T09:42:09Z</time>
      </trkpt>
      <trkpt lat="44.76186" lon="6.34072">
        <ele>2084</ele>
        <time>2024-08-12T09:42:10Z</time>
      </trkpt>
      <trkpt lat="44.76188" lon="6.34071">
        <ele>2083.6</ele>
        <time>2024-08-12T09:42:11Z</time>
      </trkpt>
      <trkpt lat="44.76188" lon="6.34071">
        <ele>2083.4</ele>
        <time>2024-08-12T09:42:12Z</time>
      </trkpt>
      <trkpt lat="44.76191" lon="6.34071">
        <ele>2083.4</ele>
        <time>2024-08-12T09:42:13Z</time>
      </trkpt>
      <trkpt lat="44.76191" lon="6.34071">
        <ele>2083.4</ele>
        <time>2024-08-12T09:42:14Z</time>
      </trkpt>
      <trkpt lat="44.76193" lon="6.3407">
        <ele>2083.4</ele>
        <time>2024-08-12T09:42:15Z</time>
      </trkpt>
      <trkpt lat="44.76193" lon="6.3407">
        <ele>2083.4</ele>
        <time>2024-08-12T09:42:16Z</time>
      </trkpt>
      <trkpt lat="44.76194" lon="6.34067">
        <ele>2083.2</ele>
        <time>2024-08-12T09:42:17Z</time>
      </trkpt>
      <trkpt lat="44.76194" lon="6.34067">
        <ele>2083.2</ele>
        <time>2024-08-12T09:42:18Z</time>
      </trkpt>
      <trkpt lat="44.76196" lon="6.34064">
        <ele>2083</ele>
        <time>2024-08-12T09:42:19Z</time>
      </trkpt>
      <trkpt lat="44.76196" lon="6.34064">
        <ele>2083</ele>
        <time>2024-08-12T09:42:20Z</time>
      </trkpt>
      <trkpt lat="44.76197" lon="6.3406">
        <ele>2083</ele>
        <time>2024-08-12T09:42:21Z</time>
      </trkpt>
      <trkpt lat="44.76197" lon="6.3406">
        <ele>2082.8</ele>
        <time>2024-08-12T09:42:22Z</time>
      </trkpt>
      <trkpt lat="44.76197" lon="6.34058">
        <ele>2082.4</ele>
        <time>2024-08-12T09:42:23Z</time>
      </trkpt>
      <trkpt lat="44.76197" lon="6.34058">
        <ele>2082</ele>
        <time>2024-08-12T09:42:24Z</time>
      </trkpt>
      <trkpt lat="44.76198" lon="6.34055">
        <ele>2082</ele>
        <time>2024-08-12T09:42:25Z</time>
      </trkpt>
      <trkpt lat="44.76198" lon="6.34055">
        <ele>2081.8</ele>
        <time>2024-08-12T09:42:26Z</time>
      </trkpt>
      <trkpt lat="44.76197" lon="6.34052">
        <ele>2081.6</ele>
        <time>2024-08-12T09:42:27Z</time>
      </trkpt>
      <trkpt lat="44.76197" lon="6.34052">
        <ele>2081.4</ele>
        <time>2024-08-12T09:42:28Z</time>
      </trkpt>
      <trkpt lat="44.76197" lon="6.34048">
        <ele>2081.2</ele>
        <time>2024-08-12T09:42:29Z</time>
      </trkpt>
      <trkpt lat="44.76197" lon="6.34048">
        <ele>2081</ele>
        <time>2024-08-12T09:42:30Z</time>
      </trkpt>
      <trkpt lat="44.76197" lon="6.34045">
        <ele>2081</ele>
        <time>2024-08-12T09:42:31Z</time>
      </trkpt>
      <trkpt lat="44.76197" lon="6.34045">
        <ele>2080.8</ele>
        <time>2024-08-12T09:42:32Z</time>
      </trkpt>
      <trkpt lat="44.76197" lon="6.34042">
        <ele>2080.4</ele>
        <time>2024-08-12T09:42:33Z</time>
      </trkpt>
      <trkpt lat="44.76197" lon="6.34042">
        <ele>2080.4</ele>
        <time>2024-08-12T09:42:34Z</time>
      </trkpt>
      <trkpt lat="44.76197" lon="6.34038">
        <ele>2080</ele>
        <time>2024-08-12T09:42:35Z</time>
      </trkpt>
      <trkpt lat="44.76197" lon="6.34038">
        <ele>2079.4</ele>
        <time>2024-08-12T09:42:36Z</time>
      </trkpt>
      <trkpt lat="44.76197" lon="6.34038">
        <ele>2079.2</ele>
        <time>2024-08-12T09:42:37Z</time>
      </trkpt>
      <trkpt lat="44.76198" lon="6.34035">
        <ele>2079.2</ele>
        <time>2024-08-12T09:42:38Z</time>
      </trkpt>
      <trkpt lat="44.76198" lon="6.34035">
        <ele>2079</ele>
        <time>2024-08-12T09:42:39Z</time>
      </trkpt>
      <trkpt lat="44.76198" lon="6.34035">
        <ele>2078.8</ele>
        <time>2024-08-12T09:42:40Z</time>
      </trkpt>
      <trkpt lat="44.76199" lon="6.34032">
        <ele>2078.4</ele>
        <time>2024-08-12T09:42:41Z</time>
      </trkpt>
      <trkpt lat="44.76199" lon="6.34032">
        <ele>2078.2</ele>
        <time>2024-08-12T09:42:42Z</time>
      </trkpt>
      <trkpt lat="44.76199" lon="6.34032">
        <ele>2078.2</ele>
        <time>2024-08-12T09:42:43Z</time>
      </trkpt>
      <trkpt lat="44.76199" lon="6.34032">
        <ele>2078</ele>
        <time>2024-08-12T09:42:44Z</time>
      </trkpt>
      <trkpt lat="44.76199" lon="6.34032">
        <ele>2077.8</ele>
        <time>2024-08-12T09:42:45Z</time>
      </trkpt>
      <trkpt lat="44.76199" lon="6.34032">
        <ele>2077.8</ele>
        <time>2024-08-12T09:42:46Z</time>
      </trkpt>
      <trkpt lat="44.76199" lon="6.34032">
        <ele>2077.8</ele>
        <time>2024-08-12T09:42:47Z</time>
      </trkpt>
      <trkpt lat="44.76199" lon="6.34032">
        <ele>2077.8</ele>
        <time>2024-08-12T09:42:48Z</time>
      </trkpt>
      <trkpt lat="44.76199" lon="6.34032">
        <ele>2077.8</ele>
        <time>2024-08-12T09:42:49Z</time>
      </trkpt>
      <trkpt lat="44.76199" lon="6.34032">
        <ele>2077.8</ele>
        <time>2024-08-12T09:42:50Z</time>
      </trkpt>
      <trkpt lat="44.76199" lon="6.34032">
        <ele>2077.8</ele>
        <time>2024-08-12T09:42:51Z</time>
      </trkpt>
      <trkpt lat="44.76199" lon="6.34032">
        <ele>2078</ele>
        <time>2024-08-12T09:42:52Z</time>
      </trkpt>
      <trkpt lat="44.762" lon="6.34029">
        <ele>2078</ele>
        <time>2024-08-12T09:42:53Z</time>
      </trkpt>
      <trkpt lat="44.762" lon="6.34029">
        <ele>2077.8</ele>
        <time>2024-08-12T09:42:54Z</time>
      </trkpt>
      <trkpt lat="44.76201" lon="6.34027">
        <ele>2077.6</ele>
        <time>2024-08-12T09:42:55Z</time>
      </trkpt>
      <trkpt lat="44.76201" lon="6.34027">
        <ele>2077.2</ele>
        <time>2024-08-12T09:42:56Z</time>
      </trkpt>
      <trkpt lat="44.76204" lon="6.34026">
        <ele>2076.8</ele>
        <time>2024-08-12T09:42:57Z</time>
      </trkpt>
      <trkpt lat="44.76204" lon="6.34026">
        <ele>2076.6</ele>
        <time>2024-08-12T09:42:58Z</time>
      </trkpt>
      <trkpt lat="44.76206" lon="6.34025">
        <ele>2076.4</ele>
        <time>2024-08-12T09:42:59Z</time>
      </trkpt>
      <trkpt lat="44.76206" lon="6.34025">
        <ele>2076.2</ele>
        <time>2024-08-12T09:43:00Z</time>
      </trkpt>
      <trkpt lat="44.76206" lon="6.34025">
        <ele>2076.2</ele>
        <time>2024-08-12T09:43:01Z</time>
      </trkpt>
      <trkpt lat="44.76206" lon="6.34025">
        <ele>2075.8</ele>
        <time>2024-08-12T09:43:02Z</time>
      </trkpt>
      <trkpt lat="44.76206" lon="6.34025">
        <ele>2075.8</ele>
        <time>2024-08-12T09:43:03Z</time>
      </trkpt>
      <trkpt lat="44.76206" lon="6.34025">
        <ele>2075.8</ele>
        <time>2024-08-12T09:43:04Z</time>
      </trkpt>
      <trkpt lat="44.76206" lon="6.34025">
        <ele>2075.6</ele>
        <time>2024-08-12T09:43:05Z</time>
      </trkpt>
      <trkpt lat="44.76206" lon="6.34025">
        <ele>2075.6</ele>
        <time>2024-08-12T09:43:06Z</time>
      </trkpt>
      <trkpt lat="44.76206" lon="6.34025">
        <ele>2075.4</ele>
        <time>2024-08-12T09:43:07Z</time>
      </trkpt>
      <trkpt lat="44.76206" lon="6.34025">
        <ele>2075.4</ele>
        <time>2024-08-12T09:43:08Z</time>
      </trkpt>
      <trkpt lat="44.76206" lon="6.34025">
        <ele>2075.4</ele>
        <time>2024-08-12T09:43:09Z</time>
      </trkpt>
      <trkpt lat="44.76206" lon="6.34025">
        <ele>2075.4</ele>
        <time>2024-08-12T09:43:10Z</time>
      </trkpt>
      <trkpt lat="44.76206" lon="6.34025">
        <ele>2075.4</ele>
        <time>2024-08-12T09:43:11Z</time>
      </trkpt>
      <trkpt lat="44.76206" lon="6.34025">
        <ele>2075.4</ele>
        <time>2024-08-12T09:43:12Z</time>
      </trkpt>
      <trkpt lat="44.76206" lon="6.34025">
        <ele>2075.6</ele>
        <time>2024-08-12T09:43:13Z</time>
      </trkpt>
      <trkpt lat="44.76206" lon="6.34025">
        <ele>2075.6</ele>
        <time>2024-08-12T09:43:14Z</time>
      </trkpt>
      <trkpt lat="44.76206" lon="6.34025">
        <ele>2075.6</ele>
        <time>2024-08-12T09:43:15Z</time>
      </trkpt>
      <trkpt lat="44.76206" lon="6.34025">
        <ele>2075.6</ele>
        <time>2024-08-12T09:43:16Z</time>
      </trkpt>
      <trkpt lat="44.76206" lon="6.34025">
        <ele>2075.6</ele>
        <time>2024-08-12T09:43:17Z</time>
      </trkpt>
      <trkpt lat="44.76206" lon="6.34025">
        <ele>2075.4</ele>
        <time>2024-08-12T09:43:18Z</time>
      </trkpt>
      <trkpt lat="44.76206" lon="6.34025">
        <ele>2075.4</ele>
        <time>2024-08-12T09:43:19Z</time>
      </trkpt>
      <trkpt lat="44.76206" lon="6.34025">
        <ele>2075.4</ele>
        <time>2024-08-12T09:43:20Z</time>
      </trkpt>
      <trkpt lat="44.76206" lon="6.34025">
        <ele>2075.6</ele>
        <time>2024-08-12T09:43:21Z</time>
      </trkpt>
      <trkpt lat="44.76206" lon="6.34025">
        <ele>2075.6</ele>
        <time>2024-08-12T09:43:22Z</time>
      </trkpt>
      <trkpt lat="44.76206" lon="6.34025">
        <ele>2075.6</ele>
        <time>2024-08-12T09:43:23Z</time>
      </trkpt>
      <trkpt lat="44.76206" lon="6.34025">
        <ele>2075.4</ele>
        <time>2024-08-12T09:43:24Z</time>
      </trkpt>
      <trkpt lat="44.76206" lon="6.34025">
        <ele>2075.4</ele>
        <time>2024-08-12T09:43:25Z</time>
      </trkpt>
      <trkpt lat="44.76206" lon="6.34025">
        <ele>2075.4</ele>
        <time>2024-08-12T09:43:26Z</time>
      </trkpt>
      <trkpt lat="44.76206" lon="6.34025">
        <ele>2075.6</ele>
        <time>2024-08-12T09:43:27Z</time>
      </trkpt>
      <trkpt lat="44.76206" lon="6.34025">
        <ele>2075.6</ele>
        <time>2024-08-12T09:43:28Z</time>
      </trkpt>
      <trkpt lat="44.76206" lon="6.34025">
        <ele>2075.6</ele>
        <time>2024-08-12T09:43:29Z</time>
      </trkpt>
      <trkpt lat="44.76206" lon="6.34025">
        <ele>2075.4</ele>
        <time>2024-08-12T09:43:30Z</time>
      </trkpt>
      <trkpt lat="44.76206" lon="6.34025">
        <ele>2075.4</ele>
        <time>2024-08-12T09:43:31Z</time>
      </trkpt>
      <trkpt lat="44.76206" lon="6.34025">
        <ele>2075.4</ele>
        <time>2024-08-12T09:43:32Z</time>
      </trkpt>
      <trkpt lat="44.76206" lon="6.34025">
        <ele>2075.6</ele>
        <time>2024-08-12T09:43:33Z</time>
      </trkpt>
      <trkpt lat="44.76206" lon="6.34025">
        <ele>2075.6</ele>
        <time>2024-08-12T09:43:34Z</time>
      </trkpt>
      <trkpt lat="44.76206" lon="6.34025">
        <ele>2075.6</ele>
        <time>2024-08-12T09:43:35Z</time>
      </trkpt>
      <trkpt lat="44.76206" lon="6.34025">
        <ele>2075.4</ele>
        <time>2024-08-12T09:43:36Z</time>
      </trkpt>
      <trkpt lat="44.76209" lon="6.34026">
        <ele>2075.4</ele>
        <time>2024-08-12T09:43:37Z</time>
      </trkpt>
      <trkpt lat="44.76209" lon="6.34026">
        <ele>2075.2</ele>
        <time>2024-08-12T09:43:38Z</time>
      </trkpt>
      <trkpt lat="44.76212" lon="6.34026">
        <ele>2075</ele>
        <time>2024-08-12T09:43:39Z</time>
      </trkpt>
      <trkpt lat="44.76214" lon="6.34026">
        <ele>2074.8</ele>
        <time>2024-08-12T09:43:40Z</time>
      </trkpt>
      <trkpt lat="44.76214" lon="6.34026">
        <ele>2074.6</ele>
        <time>2024-08-12T09:43:41Z</time>
      </trkpt>
      <trkpt lat="44.76217" lon="6.34026">
        <ele>2074.4</ele>
        <time>2024-08-12T09:43:42Z</time>
      </trkpt>
      <trkpt lat="44.76217" lon="6.34026">
        <ele>2073.8</ele>
        <time>2024-08-12T09:43:43Z</time>
      </trkpt>
      <trkpt lat="44.76219" lon="6.34027">
        <ele>2073.6</ele>
        <time>2024-08-12T09:43:44Z</time>
      </trkpt>
      <trkpt lat="44.76219" lon="6.34027">
        <ele>2073.4</ele>
        <time>2024-08-12T09:43:45Z</time>
      </trkpt>
      <trkpt lat="44.76222" lon="6.34028">
        <ele>2073.2</ele>
        <time>2024-08-12T09:43:46Z</time>
      </trkpt>
      <trkpt lat="44.76222" lon="6.34028">
        <ele>2073</ele>
        <time>2024-08-12T09:43:47Z</time>
      </trkpt>
      <trkpt lat="44.76225" lon="6.34029">
        <ele>2072.6</ele>
        <time>2024-08-12T09:43:48Z</time>
      </trkpt>
      <trkpt lat="44.76225" lon="6.34029">
        <ele>2072.4</ele>
        <time>2024-08-12T09:43:49Z</time>
      </trkpt>
      <trkpt lat="44.76227" lon="6.34029">
        <ele>2072.4</ele>
        <time>2024-08-12T09:43:50Z</time>
      </trkpt>
      <trkpt lat="44.76227" lon="6.34029">
        <ele>2072</ele>
        <time>2024-08-12T09:43:51Z</time>
      </trkpt>
      <trkpt lat="44.76229" lon="6.34028">
        <ele>2072</ele>
        <time>2024-08-12T09:43:52Z</time>
      </trkpt>
      <trkpt lat="44.76229" lon="6.34028">
        <ele>2071.8</ele>
        <time>2024-08-12T09:43:53Z</time>
      </trkpt>
      <trkpt lat="44.76231" lon="6.34028">
        <ele>2071.8</ele>
        <time>2024-08-12T09:43:54Z</time>
      </trkpt>
      <trkpt lat="44.76231" lon="6.34028">
        <ele>2071.6</ele>
        <time>2024-08-12T09:43:55Z</time>
      </trkpt>
      <trkpt lat="44.76231" lon="6.34028">
        <ele>2071.6</ele>
        <time>2024-08-12T09:43:56Z</time>
      </trkpt>
      <trkpt lat="44.76233" lon="6.34026">
        <ele>2071.4</ele>
        <time>2024-08-12T09:43:57Z</time>
      </trkpt>
      <trkpt lat="44.76233" lon="6.34026">
        <ele>2071.2</ele>
        <time>2024-08-12T09:43:58Z</time>
      </trkpt>
      <trkpt lat="44.76235" lon="6.34025">
        <ele>2071</ele>
        <time>2024-08-12T09:43:59Z</time>
      </trkpt>
      <trkpt lat="44.76235" lon="6.34025">
        <ele>2071</ele>
        <time>2024-08-12T09:44:00Z</time>
      </trkpt>
      <trkpt lat="44.76236" lon="6.34023">
        <ele>2071</ele>
        <time>2024-08-12T09:44:01Z</time>
      </trkpt>
      <trkpt lat="44.76236" lon="6.34023">
        <ele>2070.2</ele>
        <time>2024-08-12T09:44:02Z</time>
      </trkpt>
      <trkpt lat="44.76237" lon="6.34021">
        <ele>2070.2</ele>
        <time>2024-08-12T09:44:03Z</time>
      </trkpt>
      <trkpt lat="44.76237" lon="6.34021">
        <ele>2070.2</ele>
        <time>2024-08-12T09:44:04Z</time>
      </trkpt>
      <trkpt lat="44.76239" lon="6.3402">
        <ele>2070</ele>
        <time>2024-08-12T09:44:05Z</time>
      </trkpt>
      <trkpt lat="44.76239" lon="6.3402">
        <ele>2069.6</ele>
        <time>2024-08-12T09:44:06Z</time>
      </trkpt>
      <trkpt lat="44.76242" lon="6.34019">
        <ele>2069.4</ele>
        <time>2024-08-12T09:44:07Z</time>
      </trkpt>
      <trkpt lat="44.76242" lon="6.34019">
        <ele>2069</ele>
        <time>2024-08-12T09:44:08Z</time>
      </trkpt>
      <trkpt lat="44.76242" lon="6.34019">
        <ele>2068.8</ele>
        <time>2024-08-12T09:44:09Z</time>
      </trkpt>
      <trkpt lat="44.76244" lon="6.34017">
        <ele>2068.8</ele>
        <time>2024-08-12T09:44:10Z</time>
      </trkpt>
      <trkpt lat="44.76244" lon="6.34017">
        <ele>2068.4</ele>
        <time>2024-08-12T09:44:11Z</time>
      </trkpt>
      <trkpt lat="44.76244" lon="6.34017">
        <ele>2068.4</ele>
        <time>2024-08-12T09:44:12Z</time>
      </trkpt>
      <trkpt lat="44.76245" lon="6.34014">
        <ele>2068.2</ele>
        <time>2024-08-12T09:44:13Z</time>
      </trkpt>
      <trkpt lat="44.76245" lon="6.34014">
        <ele>2068</ele>
        <time>2024-08-12T09:44:14Z</time>
      </trkpt>
      <trkpt lat="44.76246" lon="6.34012">
        <ele>2068</ele>
        <time>2024-08-12T09:44:15Z</time>
      </trkpt>
      <trkpt lat="44.76246" lon="6.34012">
        <ele>2067.6</ele>
        <time>2024-08-12T09:44:16Z</time>
      </trkpt>
      <trkpt lat="44.76248" lon="6.34011">
        <ele>2067.4</ele>
        <time>2024-08-12T09:44:17Z</time>
      </trkpt>
      <trkpt lat="44.76248" lon="6.34011">
        <ele>2066.8</ele>
        <time>2024-08-12T09:44:18Z</time>
      </trkpt>
      <trkpt lat="44.76248" lon="6.34011">
        <ele>2066.4</ele>
        <time>2024-08-12T09:44:19Z</time>
      </trkpt>
      <trkpt lat="44.7625" lon="6.34009">
        <ele>2066.4</ele>
        <time>2024-08-12T09:44:20Z</time>
      </trkpt>
      <trkpt lat="44.7625" lon="6.34009">
        <ele>2066</ele>
        <time>2024-08-12T09:44:21Z</time>
      </trkpt>
      <trkpt lat="44.76252" lon="6.34008">
        <ele>2065.8</ele>
        <time>2024-08-12T09:44:22Z</time>
      </trkpt>
      <trkpt lat="44.76252" lon="6.34008">
        <ele>2065.6</ele>
        <time>2024-08-12T09:44:23Z</time>
      </trkpt>
      <trkpt lat="44.76254" lon="6.34008">
        <ele>2065.2</ele>
        <time>2024-08-12T09:44:24Z</time>
      </trkpt>
      <trkpt lat="44.76254" lon="6.34008">
        <ele>2065</ele>
        <time>2024-08-12T09:44:25Z</time>
      </trkpt>
      <trkpt lat="44.76254" lon="6.34008">
        <ele>2065</ele>
        <time>2024-08-12T09:44:26Z</time>
      </trkpt>
      <trkpt lat="44.76256" lon="6.34006">
        <ele>2065</ele>
        <time>2024-08-12T09:44:27Z</time>
      </trkpt>
      <trkpt lat="44.76256" lon="6.34006">
        <ele>2064.8</ele>
        <time>2024-08-12T09:44:28Z</time>
      </trkpt>
      <trkpt lat="44.76258" lon="6.34005">
        <ele>2064.4</ele>
        <time>2024-08-12T09:44:29Z</time>
      </trkpt>
      <trkpt lat="44.76258" lon="6.34005">
        <ele>2064</ele>
        <time>2024-08-12T09:44:30Z</time>
      </trkpt>
      <trkpt lat="44.76261" lon="6.34005">
        <ele>2064</ele>
        <time>2024-08-12T09:44:31Z</time>
      </trkpt>
      <trkpt lat="44.76261" lon="6.34005">
        <ele>2063.8</ele>
        <time>2024-08-12T09:44:32Z</time>
      </trkpt>
      <trkpt lat="44.76261" lon="6.34005">
        <ele>2063.8</ele>
        <time>2024-08-12T09:44:33Z</time>
      </trkpt>
      <trkpt lat="44.76263" lon="6.34008">
        <ele>2063.6</ele>
        <time>2024-08-12T09:44:34Z</time>
      </trkpt>
      <trkpt lat="44.76263" lon="6.34008">
        <ele>2063.6</ele>
        <time>2024-08-12T09:44:35Z</time>
      </trkpt>
      <trkpt lat="44.76263" lon="6.34008">
        <ele>2063.6</ele>
        <time>2024-08-12T09:44:36Z</time>
      </trkpt>
      <trkpt lat="44.76265" lon="6.34011">
        <ele>2063.6</ele>
        <time>2024-08-12T09:44:37Z</time>
      </trkpt>
      <trkpt lat="44.76265" lon="6.34011">
        <ele>2063.4</ele>
        <time>2024-08-12T09:44:38Z</time>
      </trkpt>
      <trkpt lat="44.76265" lon="6.34011">
        <ele>2063</ele>
        <time>2024-08-12T09:44:39Z</time>
      </trkpt>
      <trkpt lat="44.76266" lon="6.34014">
        <ele>2063</ele>
        <time>2024-08-12T09:44:40Z</time>
      </trkpt>
      <trkpt lat="44.76266" lon="6.34014">
        <ele>2062.8</ele>
        <time>2024-08-12T09:44:41Z</time>
      </trkpt>
      <trkpt lat="44.76267" lon="6.34016">
        <ele>2062.6</ele>
        <time>2024-08-12T09:44:42Z</time>
      </trkpt>
      <trkpt lat="44.76267" lon="6.34016">
        <ele>2062.6</ele>
        <time>2024-08-12T09:44:43Z</time>
      </trkpt>
      <trkpt lat="44.76267" lon="6.34016">
        <ele>2062.4</ele>
        <time>2024-08-12T09:44:44Z</time>
      </trkpt>
      <trkpt lat="44.76269" lon="6.34017">
        <ele>2062.2</ele>
        <time>2024-08-12T09:44:45Z</time>
      </trkpt>
      <trkpt lat="44.76269" lon="6.34017">
        <ele>2062</ele>
        <time>2024-08-12T09:44:46Z</time>
      </trkpt>
      <trkpt lat="44.76271" lon="6.34017">
        <ele>2061.8</ele>
        <time>2024-08-12T09:44:47Z</time>
      </trkpt>
      <trkpt lat="44.76271" lon="6.34017">
        <ele>2061.6</ele>
        <time>2024-08-12T09:44:48Z</time>
      </trkpt>
      <trkpt lat="44.76273" lon="6.34016">
        <ele>2061.2</ele>
        <time>2024-08-12T09:44:49Z</time>
      </trkpt>
      <trkpt lat="44.76273" lon="6.34016">
        <ele>2061</ele>
        <time>2024-08-12T09:44:50Z</time>
      </trkpt>
      <trkpt lat="44.76273" lon="6.34016">
        <ele>2060.6</ele>
        <time>2024-08-12T09:44:51Z</time>
      </trkpt>
      <trkpt lat="44.76276" lon="6.34015">
        <ele>2060.4</ele>
        <time>2024-08-12T09:44:52Z</time>
      </trkpt>
      <trkpt lat="44.76276" lon="6.34015">
        <ele>2060.4</ele>
        <time>2024-08-12T09:44:53Z</time>
      </trkpt>
      <trkpt lat="44.76276" lon="6.34015">
        <ele>2060.4</ele>
        <time>2024-08-12T09:44:54Z</time>
      </trkpt>
      <trkpt lat="44.76278" lon="6.34013">
        <ele>2060</ele>
        <time>2024-08-12T09:44:55Z</time>
      </trkpt>
      <trkpt lat="44.76278" lon="6.34013">
        <ele>2060</ele>
        <time>2024-08-12T09:44:56Z</time>
      </trkpt>
      <trkpt lat="44.76278" lon="6.34013">
        <ele>2059.8</ele>
        <time>2024-08-12T09:44:57Z</time>
      </trkpt>
      <trkpt lat="44.7628" lon="6.3401">
        <ele>2059.6</ele>
        <time>2024-08-12T09:44:58Z</time>
      </trkpt>
      <trkpt lat="44.7628" lon="6.3401">
        <ele>2059.4</ele>
        <time>2024-08-12T09:44:59Z</time>
      </trkpt>
      <trkpt lat="44.76282" lon="6.34008">
        <ele>2059</ele>
        <time>2024-08-12T09:45:00Z</time>
      </trkpt>
      <trkpt lat="44.76282" lon="6.34008">
        <ele>2059</ele>
        <time>2024-08-12T09:45:01Z</time>
      </trkpt>
      <trkpt lat="44.76282" lon="6.34008">
        <ele>2058.8</ele>
        <time>2024-08-12T09:45:02Z</time>
      </trkpt>
      <trkpt lat="44.76284" lon="6.3401">
        <ele>2058.8</ele>
        <time>2024-08-12T09:45:03Z</time>
      </trkpt>
      <trkpt lat="44.76284" lon="6.3401">
        <ele>2058.8</ele>
        <time>2024-08-12T09:45:04Z</time>
      </trkpt>
      <trkpt lat="44.76284" lon="6.3401">
        <ele>2058.4</ele>
        <time>2024-08-12T09:45:05Z</time>
      </trkpt>
      <trkpt lat="44.76285" lon="6.34013">
        <ele>2058.2</ele>
        <time>2024-08-12T09:45:06Z</time>
      </trkpt>
      <trkpt lat="44.76285" lon="6.34013">
        <ele>2058.2</ele>
        <time>2024-08-12T09:45:07Z</time>
      </trkpt>
      <trkpt lat="44.76285" lon="6.34013">
        <ele>2058.2</ele>
        <time>2024-08-12T09:45:08Z</time>
      </trkpt>
      <trkpt lat="44.76285" lon="6.34017">
        <ele>2058.2</ele>
        <time>2024-08-12T09:45:09Z</time>
      </trkpt>
      <trkpt lat="44.76285" lon="6.34017">
        <ele>2057.8</ele>
        <time>2024-08-12T09:45:10Z</time>
      </trkpt>
      <trkpt lat="44.76286" lon="6.34019">
        <ele>2057.6</ele>
        <time>2024-08-12T09:45:11Z</time>
      </trkpt>
      <trkpt lat="44.76286" lon="6.34019">
        <ele>2057.4</ele>
        <time>2024-08-12T09:45:12Z</time>
      </trkpt>
      <trkpt lat="44.76286" lon="6.34019">
        <ele>2057.2</ele>
        <time>2024-08-12T09:45:13Z</time>
      </trkpt>
      <trkpt lat="44.76289" lon="6.3402">
        <ele>2057</ele>
        <time>2024-08-12T09:45:14Z</time>
      </trkpt>
      <trkpt lat="44.76289" lon="6.3402">
        <ele>2056.8</ele>
        <time>2024-08-12T09:45:15Z</time>
      </trkpt>
      <trkpt lat="44.76289" lon="6.3402">
        <ele>2056.6</ele>
        <time>2024-08-12T09:45:16Z</time>
      </trkpt>
      <trkpt lat="44.76291" lon="6.3402">
        <ele>2056.4</ele>
        <time>2024-08-12T09:45:17Z</time>
      </trkpt>
      <trkpt lat="44.76291" lon="6.3402">
        <ele>2056.4</ele>
        <time>2024-08-12T09:45:18Z</time>
      </trkpt>
      <trkpt lat="44.76291" lon="6.3402">
        <ele>2056.4</ele>
        <time>2024-08-12T09:45:19Z</time>
      </trkpt>
      <trkpt lat="44.76293" lon="6.34019">
        <ele>2056.2</ele>
        <time>2024-08-12T09:45:20Z</time>
      </trkpt>
      <trkpt lat="44.76293" lon="6.34019">
        <ele>2055.8</ele>
        <time>2024-08-12T09:45:21Z</time>
      </trkpt>
      <trkpt lat="44.76295" lon="6.34019">
        <ele>2055.6</ele>
        <time>2024-08-12T09:45:22Z</time>
      </trkpt>
      <trkpt lat="44.76295" lon="6.34019">
        <ele>2055.4</ele>
        <time>2024-08-12T09:45:23Z</time>
      </trkpt>
      <trkpt lat="44.76297" lon="6.34019">
        <ele>2055.4</ele>
        <time>2024-08-12T09:45:24Z</time>
      </trkpt>
      <trkpt lat="44.76297" lon="6.34019">
        <ele>2055.2</ele>
        <time>2024-08-12T09:45:25Z</time>
      </trkpt>
      <trkpt lat="44.76297" lon="6.34019">
        <ele>2055</ele>
        <time>2024-08-12T09:45:26Z</time>
      </trkpt>
      <trkpt lat="44.763" lon="6.34019">
        <ele>2054.4</ele>
        <time>2024-08-12T09:45:27Z</time>
      </trkpt>
      <trkpt lat="44.763" lon="6.34019">
        <ele>2054</ele>
        <time>2024-08-12T09:45:28Z</time>
      </trkpt>
      <trkpt lat="44.76302" lon="6.34019">
        <ele>2053.8</ele>
        <time>2024-08-12T09:45:29Z</time>
      </trkpt>
      <trkpt lat="44.76302" lon="6.34019">
        <ele>2053.8</ele>
        <time>2024-08-12T09:45:30Z</time>
      </trkpt>
      <trkpt lat="44.76302" lon="6.34019">
        <ele>2053.6</ele>
        <time>2024-08-12T09:45:31Z</time>
      </trkpt>
      <trkpt lat="44.76304" lon="6.34019">
        <ele>2053.6</ele>
        <time>2024-08-12T09:45:32Z</time>
      </trkpt>
      <trkpt lat="44.76304" lon="6.34019">
        <ele>2053.4</ele>
        <time>2024-08-12T09:45:33Z</time>
      </trkpt>
      <trkpt lat="44.76304" lon="6.34019">
        <ele>2053.2</ele>
        <time>2024-08-12T09:45:34Z</time>
      </trkpt>
      <trkpt lat="44.76306" lon="6.3402">
        <ele>2053</ele>
        <time>2024-08-12T09:45:35Z</time>
      </trkpt>
      <trkpt lat="44.76306" lon="6.3402">
        <ele>2052.6</ele>
        <time>2024-08-12T09:45:36Z</time>
      </trkpt>
      <trkpt lat="44.76306" lon="6.3402">
        <ele>2052.2</ele>
        <time>2024-08-12T09:45:37Z</time>
      </trkpt>
      <trkpt lat="44.76309" lon="6.34019">
        <ele>2052.2</ele>
        <time>2024-08-12T09:45:38Z</time>
      </trkpt>
      <trkpt lat="44.76309" lon="6.34019">
        <ele>2052</ele>
        <time>2024-08-12T09:45:39Z</time>
      </trkpt>
      <trkpt lat="44.7631" lon="6.34019">
        <ele>2051.8</ele>
        <time>2024-08-12T09:45:40Z</time>
      </trkpt>
      <trkpt lat="44.7631" lon="6.34019">
        <ele>2051.6</ele>
        <time>2024-08-12T09:45:41Z</time>
      </trkpt>
      <trkpt lat="44.76313" lon="6.34019">
        <ele>2051.6</ele>
        <time>2024-08-12T09:45:42Z</time>
      </trkpt>
      <trkpt lat="44.76313" lon="6.34019">
        <ele>2051.4</ele>
        <time>2024-08-12T09:45:43Z</time>
      </trkpt>
      <trkpt lat="44.76315" lon="6.34018">
        <ele>2051.4</ele>
        <time>2024-08-12T09:45:44Z</time>
      </trkpt>
      <trkpt lat="44.76315" lon="6.34018">
        <ele>2051.4</ele>
        <time>2024-08-12T09:45:45Z</time>
      </trkpt>
      <trkpt lat="44.76317" lon="6.34017">
        <ele>2051.2</ele>
        <time>2024-08-12T09:45:46Z</time>
      </trkpt>
      <trkpt lat="44.76317" lon="6.34017">
        <ele>2051.2</ele>
        <time>2024-08-12T09:45:47Z</time>
      </trkpt>
      <trkpt lat="44.76319" lon="6.34016">
        <ele>2051.2</ele>
        <time>2024-08-12T09:45:48Z</time>
      </trkpt>
      <trkpt lat="44.76319" lon="6.34016">
        <ele>2051.2</ele>
        <time>2024-08-12T09:45:49Z</time>
      </trkpt>
      <trkpt lat="44.76319" lon="6.34016">
        <ele>2051</ele>
        <time>2024-08-12T09:45:50Z</time>
      </trkpt>
      <trkpt lat="44.76322" lon="6.34016">
        <ele>2051</ele>
        <time>2024-08-12T09:45:51Z</time>
      </trkpt>
      <trkpt lat="44.76322" lon="6.34016">
        <ele>2051</ele>
        <time>2024-08-12T09:45:52Z</time>
      </trkpt>
      <trkpt lat="44.76322" lon="6.34016">
        <ele>2051</ele>
        <time>2024-08-12T09:45:53Z</time>
      </trkpt>
      <trkpt lat="44.76322" lon="6.34016">
        <ele>2050.6</ele>
        <time>2024-08-12T09:45:54Z</time>
      </trkpt>
      <trkpt lat="44.76322" lon="6.34016">
        <ele>2050.4</ele>
        <time>2024-08-12T09:45:55Z</time>
      </trkpt>
      <trkpt lat="44.76322" lon="6.34016">
        <ele>2050</ele>
        <time>2024-08-12T09:45:56Z</time>
      </trkpt>
      <trkpt lat="44.76321" lon="6.34013">
        <ele>2049.8</ele>
        <time>2024-08-12T09:45:57Z</time>
      </trkpt>
      <trkpt lat="44.76321" lon="6.34013">
        <ele>2049.2</ele>
        <time>2024-08-12T09:45:58Z</time>
      </trkpt>
      <trkpt lat="44.76321" lon="6.34013">
        <ele>2049</ele>
        <time>2024-08-12T09:45:59Z</time>
      </trkpt>
      <trkpt lat="44.76319" lon="6.34011">
        <ele>2048.8</ele>
        <time>2024-08-12T09:46:00Z</time>
      </trkpt>
      <trkpt lat="44.76319" lon="6.34011">
        <ele>2048.4</ele>
        <time>2024-08-12T09:46:01Z</time>
      </trkpt>
      <trkpt lat="44.76319" lon="6.34011">
        <ele>2048.2</ele>
        <time>2024-08-12T09:46:02Z</time>
      </trkpt>
      <trkpt lat="44.76317" lon="6.34009">
        <ele>2048.2</ele>
        <time>2024-08-12T09:46:03Z</time>
      </trkpt>
      <trkpt lat="44.76317" lon="6.34009">
        <ele>2048.6</ele>
        <time>2024-08-12T09:46:04Z</time>
      </trkpt>
      <trkpt lat="44.76317" lon="6.34009">
        <ele>2048.6</ele>
        <time>2024-08-12T09:46:05Z</time>
      </trkpt>
      <trkpt lat="44.76317" lon="6.34009">
        <ele>2048.2</ele>
        <time>2024-08-12T09:46:06Z</time>
      </trkpt>
      <trkpt lat="44.76317" lon="6.34009">
        <ele>2047.8</ele>
        <time>2024-08-12T09:46:07Z</time>
      </trkpt>
      <trkpt lat="44.76315" lon="6.34008">
        <ele>2047.6</ele>
        <time>2024-08-12T09:46:08Z</time>
      </trkpt>
      <trkpt lat="44.76315" lon="6.34008">
        <ele>2047.6</ele>
        <time>2024-08-12T09:46:09Z</time>
      </trkpt>
      <trkpt lat="44.76313" lon="6.34005">
        <ele>2047.4</ele>
        <time>2024-08-12T09:46:10Z</time>
      </trkpt>
      <trkpt lat="44.76313" lon="6.34005">
        <ele>2046.8</ele>
        <time>2024-08-12T09:46:11Z</time>
      </trkpt>
      <trkpt lat="44.76311" lon="6.34002">
        <ele>2046.8</ele>
        <time>2024-08-12T09:46:12Z</time>
      </trkpt>
      <trkpt lat="44.76311" lon="6.34002">
        <ele>2046.8</ele>
        <time>2024-08-12T09:46:13Z</time>
      </trkpt>
      <trkpt lat="44.76309" lon="6.34">
        <ele>2046.6</ele>
        <time>2024-08-12T09:46:14Z</time>
      </trkpt>
      <trkpt lat="44.76309" lon="6.34">
        <ele>2046.4</ele>
        <time>2024-08-12T09:46:15Z</time>
      </trkpt>
      <trkpt lat="44.76309" lon="6.34">
        <ele>2046.4</ele>
        <time>2024-08-12T09:46:16Z</time>
      </trkpt>
      <trkpt lat="44.76309" lon="6.33997">
        <ele>2046.2</ele>
        <time>2024-08-12T09:46:17Z</time>
      </trkpt>
      <trkpt lat="44.76309" lon="6.33997">
        <ele>2046.2</ele>
        <time>2024-08-12T09:46:18Z</time>
      </trkpt>
      <trkpt lat="44.76307" lon="6.33995">
        <ele>2045.8</ele>
        <time>2024-08-12T09:46:19Z</time>
      </trkpt>
      <trkpt lat="44.76307" lon="6.33995">
        <ele>2045.6</ele>
        <time>2024-08-12T09:46:20Z</time>
      </trkpt>
      <trkpt lat="44.76306" lon="6.33993">
        <ele>2045.4</ele>
        <time>2024-08-12T09:46:21Z</time>
      </trkpt>
      <trkpt lat="44.76306" lon="6.33993">
        <ele>2044.6</ele>
        <time>2024-08-12T09:46:22Z</time>
      </trkpt>
      <trkpt lat="44.76305" lon="6.3399">
        <ele>2044.6</ele>
        <time>2024-08-12T09:46:23Z</time>
      </trkpt>
      <trkpt lat="44.76305" lon="6.3399">
        <ele>2044.4</ele>
        <time>2024-08-12T09:46:24Z</time>
      </trkpt>
      <trkpt lat="44.76304" lon="6.33988">
        <ele>2044.2</ele>
        <time>2024-08-12T09:46:25Z</time>
      </trkpt>
      <trkpt lat="44.76304" lon="6.33988">
        <ele>2044</ele>
        <time>2024-08-12T09:46:26Z</time>
      </trkpt>
      <trkpt lat="44.76303" lon="6.33985">
        <ele>2043.8</ele>
        <time>2024-08-12T09:46:27Z</time>
      </trkpt>
      <trkpt lat="44.76303" lon="6.33985">
        <ele>2043.4</ele>
        <time>2024-08-12T09:46:28Z</time>
      </trkpt>
      <trkpt lat="44.76303" lon="6.33985">
        <ele>2043.2</ele>
        <time>2024-08-12T09:46:29Z</time>
      </trkpt>
      <trkpt lat="44.76303" lon="6.33981">
        <ele>2043</ele>
        <time>2024-08-12T09:46:30Z</time>
      </trkpt>
      <trkpt lat="44.76303" lon="6.33981">
        <ele>2042.6</ele>
        <time>2024-08-12T09:46:31Z</time>
      </trkpt>
      <trkpt lat="44.76306" lon="6.33979">
        <ele>2042.6</ele>
        <time>2024-08-12T09:46:32Z</time>
      </trkpt>
      <trkpt lat="44.76306" lon="6.33979">
        <ele>2042.4</ele>
        <time>2024-08-12T09:46:33Z</time>
      </trkpt>
      <trkpt lat="44.76306" lon="6.33979">
        <ele>2042</ele>
        <time>2024-08-12T09:46:34Z</time>
      </trkpt>
      <trkpt lat="44.76308" lon="6.33978">
        <ele>2041.4</ele>
        <time>2024-08-12T09:46:35Z</time>
      </trkpt>
      <trkpt lat="44.76308" lon="6.33978">
        <ele>2041.2</ele>
        <time>2024-08-12T09:46:36Z</time>
      </trkpt>
      <trkpt lat="44.7631" lon="6.33978">
        <ele>2040.8</ele>
        <time>2024-08-12T09:46:37Z</time>
      </trkpt>
      <trkpt lat="44.7631" lon="6.33978">
        <ele>2040.6</ele>
        <time>2024-08-12T09:46:38Z</time>
      </trkpt>
      <trkpt lat="44.76312" lon="6.33978">
        <ele>2040.6</ele>
        <time>2024-08-12T09:46:39Z</time>
      </trkpt>
      <trkpt lat="44.76312" lon="6.33978">
        <ele>2040.2</ele>
        <time>2024-08-12T09:46:40Z</time>
      </trkpt>
      <trkpt lat="44.76314" lon="6.33978">
        <ele>2040</ele>
        <time>2024-08-12T09:46:41Z</time>
      </trkpt>
      <trkpt lat="44.76314" lon="6.33978">
        <ele>2039.8</ele>
        <time>2024-08-12T09:46:42Z</time>
      </trkpt>
      <trkpt lat="44.76317" lon="6.33977">
        <ele>2039.4</ele>
        <time>2024-08-12T09:46:43Z</time>
      </trkpt>
      <trkpt lat="44.76317" lon="6.33977">
        <ele>2039.2</ele>
        <time>2024-08-12T09:46:44Z</time>
      </trkpt>
      <trkpt lat="44.76319" lon="6.33976">
        <ele>2039</ele>
        <time>2024-08-12T09:46:45Z</time>
      </trkpt>
      <trkpt lat="44.76319" lon="6.33976">
        <ele>2039</ele>
        <time>2024-08-12T09:46:46Z</time>
      </trkpt>
      <trkpt lat="44.76321" lon="6.33974">
        <ele>2038.6</ele>
        <time>2024-08-12T09:46:47Z</time>
      </trkpt>
      <trkpt lat="44.76321" lon="6.33974">
        <ele>2038.6</ele>
        <time>2024-08-12T09:46:48Z</time>
      </trkpt>
      <trkpt lat="44.76322" lon="6.33971">
        <ele>2038.6</ele>
        <time>2024-08-12T09:46:49Z</time>
      </trkpt>
      <trkpt lat="44.76322" lon="6.33971">
        <ele>2038.8</ele>
        <time>2024-08-12T09:46:50Z</time>
      </trkpt>
      <trkpt lat="44.76323" lon="6.33968">
        <ele>2038.8</ele>
        <time>2024-08-12T09:46:51Z</time>
      </trkpt>
      <trkpt lat="44.76323" lon="6.33968">
        <ele>2038.6</ele>
        <time>2024-08-12T09:46:52Z</time>
      </trkpt>
      <trkpt lat="44.76324" lon="6.33965">
        <ele>2038.6</ele>
        <time>2024-08-12T09:46:53Z</time>
      </trkpt>
      <trkpt lat="44.76324" lon="6.33965">
        <ele>2038.4</ele>
        <time>2024-08-12T09:46:54Z</time>
      </trkpt>
      <trkpt lat="44.76324" lon="6.33965">
        <ele>2038.4</ele>
        <time>2024-08-12T09:46:55Z</time>
      </trkpt>
      <trkpt lat="44.76325" lon="6.33961">
        <ele>2038</ele>
        <time>2024-08-12T09:46:56Z</time>
      </trkpt>
      <trkpt lat="44.76325" lon="6.33961">
        <ele>2037.8</ele>
        <time>2024-08-12T09:46:57Z</time>
      </trkpt>
      <trkpt lat="44.76326" lon="6.33959">
        <ele>2037.4</ele>
        <time>2024-08-12T09:46:58Z</time>
      </trkpt>
      <trkpt lat="44.76326" lon="6.33959">
        <ele>2037.4</ele>
        <time>2024-08-12T09:46:59Z</time>
      </trkpt>
      <trkpt lat="44.76327" lon="6.33956">
        <ele>2037.2</ele>
        <time>2024-08-12T09:47:00Z</time>
      </trkpt>
      <trkpt lat="44.76327" lon="6.33956">
        <ele>2037.2</ele>
        <time>2024-08-12T09:47:01Z</time>
      </trkpt>
      <trkpt lat="44.76331" lon="6.33954">
        <ele>2037.2</ele>
        <time>2024-08-12T09:47:02Z</time>
      </trkpt>
      <trkpt lat="44.76331" lon="6.33954">
        <ele>2037.2</ele>
        <time>2024-08-12T09:47:03Z</time>
      </trkpt>
      <trkpt lat="44.76333" lon="6.33954">
        <ele>2036.8</ele>
        <time>2024-08-12T09:47:04Z</time>
      </trkpt>
      <trkpt lat="44.76333" lon="6.33954">
        <ele>2036.6</ele>
        <time>2024-08-12T09:47:05Z</time>
      </trkpt>
      <trkpt lat="44.76335" lon="6.33954">
        <ele>2036.6</ele>
        <time>2024-08-12T09:47:06Z</time>
      </trkpt>
      <trkpt lat="44.76335" lon="6.33954">
        <ele>2036.2</ele>
        <time>2024-08-12T09:47:07Z</time>
      </trkpt>
      <trkpt lat="44.76337" lon="6.33953">
        <ele>2036.2</ele>
        <time>2024-08-12T09:47:08Z</time>
      </trkpt>
      <trkpt lat="44.76337" lon="6.33953">
        <ele>2036</ele>
        <time>2024-08-12T09:47:09Z</time>
      </trkpt>
      <trkpt lat="44.76337" lon="6.33953">
        <ele>2036</ele>
        <time>2024-08-12T09:47:10Z</time>
      </trkpt>
      <trkpt lat="44.76337" lon="6.33953">
        <ele>2036</ele>
        <time>2024-08-12T09:47:11Z</time>
      </trkpt>
      <trkpt lat="44.76335" lon="6.33951">
        <ele>2035.8</ele>
        <time>2024-08-12T09:47:12Z</time>
      </trkpt>
      <trkpt lat="44.76335" lon="6.33951">
        <ele>2035.4</ele>
        <time>2024-08-12T09:47:13Z</time>
      </trkpt>
      <trkpt lat="44.76334" lon="6.33949">
        <ele>2035.2</ele>
        <time>2024-08-12T09:47:14Z</time>
      </trkpt>
      <trkpt lat="44.76334" lon="6.33949">
        <ele>2035.2</ele>
        <time>2024-08-12T09:47:15Z</time>
      </trkpt>
      <trkpt lat="44.76333" lon="6.33947">
        <ele>2035.2</ele>
        <time>2024-08-12T09:47:16Z</time>
      </trkpt>
      <trkpt lat="44.76333" lon="6.33947">
        <ele>2035</ele>
        <time>2024-08-12T09:47:17Z</time>
      </trkpt>
      <trkpt lat="44.7633" lon="6.33946">
        <ele>2034.6</ele>
        <time>2024-08-12T09:47:18Z</time>
      </trkpt>
      <trkpt lat="44.7633" lon="6.33946">
        <ele>2034.2</ele>
        <time>2024-08-12T09:47:19Z</time>
      </trkpt>
      <trkpt lat="44.7633" lon="6.33946">
        <ele>2034</ele>
        <time>2024-08-12T09:47:20Z</time>
      </trkpt>
      <trkpt lat="44.7633" lon="6.33946">
        <ele>2034</ele>
        <time>2024-08-12T09:47:21Z</time>
      </trkpt>
      <trkpt lat="44.76328" lon="6.33944">
        <ele>2033.8</ele>
        <time>2024-08-12T09:47:22Z</time>
      </trkpt>
      <trkpt lat="44.76328" lon="6.33944">
        <ele>2033.6</ele>
        <time>2024-08-12T09:47:23Z</time>
      </trkpt>
      <trkpt lat="44.76328" lon="6.33944">
        <ele>2033.2</ele>
        <time>2024-08-12T09:47:24Z</time>
      </trkpt>
      <trkpt lat="44.76326" lon="6.33941">
        <ele>2033</ele>
        <time>2024-08-12T09:47:25Z</time>
      </trkpt>
      <trkpt lat="44.76326" lon="6.33941">
        <ele>2032.8</ele>
        <time>2024-08-12T09:47:26Z</time>
      </trkpt>
      <trkpt lat="44.76325" lon="6.33939">
        <ele>2032.6</ele>
        <time>2024-08-12T09:47:27Z</time>
      </trkpt>
      <trkpt lat="44.76325" lon="6.33939">
        <ele>2032.4</ele>
        <time>2024-08-12T09:47:28Z</time>
      </trkpt>
      <trkpt lat="44.76324" lon="6.33937">
        <ele>2032</ele>
        <time>2024-08-12T09:47:29Z</time>
      </trkpt>
      <trkpt lat="44.76324" lon="6.33937">
        <ele>2031.6</ele>
        <time>2024-08-12T09:47:30Z</time>
      </trkpt>
      <trkpt lat="44.76324" lon="6.33937">
        <ele>2031.4</ele>
        <time>2024-08-12T09:47:31Z</time>
      </trkpt>
      <trkpt lat="44.76322" lon="6.33934">
        <ele>2031.2</ele>
        <time>2024-08-12T09:47:32Z</time>
      </trkpt>
      <trkpt lat="44.76322" lon="6.33934">
        <ele>2030.8</ele>
        <time>2024-08-12T09:47:33Z</time>
      </trkpt>
      <trkpt lat="44.76322" lon="6.33934">
        <ele>2030.8</ele>
        <time>2024-08-12T09:47:34Z</time>
      </trkpt>
      <trkpt lat="44.76321" lon="6.33931">
        <ele>2030.8</ele>
        <time>2024-08-12T09:47:35Z</time>
      </trkpt>
      <trkpt lat="44.76321" lon="6.33931">
        <ele>2030.6</ele>
        <time>2024-08-12T09:47:36Z</time>
      </trkpt>
      <trkpt lat="44.76321" lon="6.33931">
        <ele>2030.6</ele>
        <time>2024-08-12T09:47:37Z</time>
      </trkpt>
      <trkpt lat="44.76321" lon="6.33928">
        <ele>2030.4</ele>
        <time>2024-08-12T09:47:38Z</time>
      </trkpt>
      <trkpt lat="44.76321" lon="6.33928">
        <ele>2029.8</ele>
        <time>2024-08-12T09:47:39Z</time>
      </trkpt>
      <trkpt lat="44.76321" lon="6.33928">
        <ele>2029.4</ele>
        <time>2024-08-12T09:47:40Z</time>
      </trkpt>
      <trkpt lat="44.7632" lon="6.33925">
        <ele>2029.4</ele>
        <time>2024-08-12T09:47:41Z</time>
      </trkpt>
      <trkpt lat="44.7632" lon="6.33925">
        <ele>2029</ele>
        <time>2024-08-12T09:47:42Z</time>
      </trkpt>
      <trkpt lat="44.7632" lon="6.33925">
        <ele>2028.8</ele>
        <time>2024-08-12T09:47:43Z</time>
      </trkpt>
      <trkpt lat="44.7632" lon="6.33922">
        <ele>2028.8</ele>
        <time>2024-08-12T09:47:44Z</time>
      </trkpt>
      <trkpt lat="44.7632" lon="6.33922">
        <ele>2028.2</ele>
        <time>2024-08-12T09:47:45Z</time>
      </trkpt>
      <trkpt lat="44.76319" lon="6.33921">
        <ele>2028.2</ele>
        <time>2024-08-12T09:47:46Z</time>
      </trkpt>
      <trkpt lat="44.76319" lon="6.33921">
        <ele>2027.8</ele>
        <time>2024-08-12T09:47:47Z</time>
      </trkpt>
      <trkpt lat="44.76317" lon="6.33918">
        <ele>2027.6</ele>
        <time>2024-08-12T09:47:48Z</time>
      </trkpt>
      <trkpt lat="44.76317" lon="6.33918">
        <ele>2027.6</ele>
        <time>2024-08-12T09:47:49Z</time>
      </trkpt>
      <trkpt lat="44.76317" lon="6.33918">
        <ele>2027.2</ele>
        <time>2024-08-12T09:47:50Z</time>
      </trkpt>
      <trkpt lat="44.76317" lon="6.33916">
        <ele>2027.2</ele>
        <time>2024-08-12T09:47:51Z</time>
      </trkpt>
      <trkpt lat="44.76317" lon="6.33916">
        <ele>2026.8</ele>
        <time>2024-08-12T09:47:52Z</time>
      </trkpt>
      <trkpt lat="44.76316" lon="6.33913">
        <ele>2026.4</ele>
        <time>2024-08-12T09:47:53Z</time>
      </trkpt>
      <trkpt lat="44.76316" lon="6.33913">
        <ele>2026.2</ele>
        <time>2024-08-12T09:47:54Z</time>
      </trkpt>
      <trkpt lat="44.76318" lon="6.3391">
        <ele>2025.8</ele>
        <time>2024-08-12T09:47:55Z</time>
      </trkpt>
      <trkpt lat="44.76318" lon="6.3391">
        <ele>2025.6</ele>
        <time>2024-08-12T09:47:56Z</time>
      </trkpt>
      <trkpt lat="44.7632" lon="6.3391">
        <ele>2025.2</ele>
        <time>2024-08-12T09:47:57Z</time>
      </trkpt>
      <trkpt lat="44.7632" lon="6.3391">
        <ele>2024.8</ele>
        <time>2024-08-12T09:47:58Z</time>
      </trkpt>
      <trkpt lat="44.76322" lon="6.33909">
        <ele>2024.8</ele>
        <time>2024-08-12T09:47:59Z</time>
      </trkpt>
      <trkpt lat="44.76322" lon="6.33909">
        <ele>2024.6</ele>
        <time>2024-08-12T09:48:00Z</time>
      </trkpt>
      <trkpt lat="44.76324" lon="6.33909">
        <ele>2024.4</ele>
        <time>2024-08-12T09:48:01Z</time>
      </trkpt>
      <trkpt lat="44.76324" lon="6.33909">
        <ele>2023.6</ele>
        <time>2024-08-12T09:48:02Z</time>
      </trkpt>
      <trkpt lat="44.76326" lon="6.33908">
        <ele>2023.6</ele>
        <time>2024-08-12T09:48:03Z</time>
      </trkpt>
      <trkpt lat="44.76326" lon="6.33908">
        <ele>2023.4</ele>
        <time>2024-08-12T09:48:04Z</time>
      </trkpt>
      <trkpt lat="44.76328" lon="6.33907">
        <ele>2023.2</ele>
        <time>2024-08-12T09:48:05Z</time>
      </trkpt>
      <trkpt lat="44.76328" lon="6.33907">
        <ele>2022.8</ele>
        <time>2024-08-12T09:48:06Z</time>
      </trkpt>
      <trkpt lat="44.7633" lon="6.33904">
        <ele>2022.4</ele>
        <time>2024-08-12T09:48:07Z</time>
      </trkpt>
      <trkpt lat="44.7633" lon="6.33904">
        <ele>2022.2</ele>
        <time>2024-08-12T09:48:08Z</time>
      </trkpt>
      <trkpt lat="44.76331" lon="6.33902">
        <ele>2022</ele>
        <time>2024-08-12T09:48:09Z</time>
      </trkpt>
      <trkpt lat="44.76331" lon="6.33902">
        <ele>2022</ele>
        <time>2024-08-12T09:48:10Z</time>
      </trkpt>
      <trkpt lat="44.76333" lon="6.339">
        <ele>2021.6</ele>
        <time>2024-08-12T09:48:11Z</time>
      </trkpt>
      <trkpt lat="44.76333" lon="6.339">
        <ele>2021.6</ele>
        <time>2024-08-12T09:48:12Z</time>
      </trkpt>
      <trkpt lat="44.76335" lon="6.33898">
        <ele>2021.4</ele>
        <time>2024-08-12T09:48:13Z</time>
      </trkpt>
      <trkpt lat="44.76335" lon="6.33898">
        <ele>2021.6</ele>
        <time>2024-08-12T09:48:14Z</time>
      </trkpt>
      <trkpt lat="44.76337" lon="6.33896">
        <ele>2021.4</ele>
        <time>2024-08-12T09:48:15Z</time>
      </trkpt>
      <trkpt lat="44.76337" lon="6.33896">
        <ele>2021.4</ele>
        <time>2024-08-12T09:48:16Z</time>
      </trkpt>
      <trkpt lat="44.76338" lon="6.33894">
        <ele>2021.2</ele>
        <time>2024-08-12T09:48:17Z</time>
      </trkpt>
      <trkpt lat="44.76338" lon="6.33894">
        <ele>2021.2</ele>
        <time>2024-08-12T09:48:18Z</time>
      </trkpt>
      <trkpt lat="44.76338" lon="6.33894">
        <ele>2021</ele>
        <time>2024-08-12T09:48:19Z</time>
      </trkpt>
      <trkpt lat="44.76337" lon="6.33891">
        <ele>2021</ele>
        <time>2024-08-12T09:48:20Z</time>
      </trkpt>
      <trkpt lat="44.76337" lon="6.33891">
        <ele>2020.8</ele>
        <time>2024-08-12T09:48:21Z</time>
      </trkpt>
      <trkpt lat="44.76337" lon="6.33891">
        <ele>2020.8</ele>
        <time>2024-08-12T09:48:22Z</time>
      </trkpt>
      <trkpt lat="44.76335" lon="6.33889">
        <ele>2020.6</ele>
        <time>2024-08-12T09:48:23Z</time>
      </trkpt>
      <trkpt lat="44.76335" lon="6.33889">
        <ele>2020.4</ele>
        <time>2024-08-12T09:48:24Z</time>
      </trkpt>
      <trkpt lat="44.76333" lon="6.33888">
        <ele>2020.2</ele>
        <time>2024-08-12T09:48:25Z</time>
      </trkpt>
      <trkpt lat="44.76333" lon="6.33888">
        <ele>2020</ele>
        <time>2024-08-12T09:48:26Z</time>
      </trkpt>
      <trkpt lat="44.7633" lon="6.33887">
        <ele>2019.8</ele>
        <time>2024-08-12T09:48:27Z</time>
      </trkpt>
      <trkpt lat="44.7633" lon="6.33887">
        <ele>2019.6</ele>
        <time>2024-08-12T09:48:28Z</time>
      </trkpt>
      <trkpt lat="44.76328" lon="6.33886">
        <ele>2019.6</ele>
        <time>2024-08-12T09:48:29Z</time>
      </trkpt>
      <trkpt lat="44.76328" lon="6.33886">
        <ele>2019.6</ele>
        <time>2024-08-12T09:48:30Z</time>
      </trkpt>
      <trkpt lat="44.76326" lon="6.33884">
        <ele>2019.2</ele>
        <time>2024-08-12T09:48:31Z</time>
      </trkpt>
      <trkpt lat="44.76326" lon="6.33884">
        <ele>2018.8</ele>
        <time>2024-08-12T09:48:32Z</time>
      </trkpt>
      <trkpt lat="44.76326" lon="6.33884">
        <ele>2018.6</ele>
        <time>2024-08-12T09:48:33Z</time>
      </trkpt>
      <trkpt lat="44.76324" lon="6.33882">
        <ele>2018.4</ele>
        <time>2024-08-12T09:48:34Z</time>
      </trkpt>
      <trkpt lat="44.76324" lon="6.33882">
        <ele>2018.2</ele>
        <time>2024-08-12T09:48:35Z</time>
      </trkpt>
      <trkpt lat="44.76323" lon="6.3388">
        <ele>2018</ele>
        <time>2024-08-12T09:48:36Z</time>
      </trkpt>
      <trkpt lat="44.76323" lon="6.3388">
        <ele>2017.6</ele>
        <time>2024-08-12T09:48:37Z</time>
      </trkpt>
      <trkpt lat="44.76323" lon="6.3388">
        <ele>2017.4</ele>
        <time>2024-08-12T09:48:38Z</time>
      </trkpt>
      <trkpt lat="44.76324" lon="6.33876">
        <ele>2017.4</ele>
        <time>2024-08-12T09:48:39Z</time>
      </trkpt>
      <trkpt lat="44.76324" lon="6.33876">
        <ele>2016.6</ele>
        <time>2024-08-12T09:48:40Z</time>
      </trkpt>
      <trkpt lat="44.76324" lon="6.33876">
        <ele>2016.4</ele>
        <time>2024-08-12T09:48:41Z</time>
      </trkpt>
      <trkpt lat="44.76325" lon="6.33873">
        <ele>2016.4</ele>
        <time>2024-08-12T09:48:42Z</time>
      </trkpt>
      <trkpt lat="44.76325" lon="6.33873">
        <ele>2016.2</ele>
        <time>2024-08-12T09:48:43Z</time>
      </trkpt>
      <trkpt lat="44.76325" lon="6.33873">
        <ele>2016</ele>
        <time>2024-08-12T09:48:44Z</time>
      </trkpt>
      <trkpt lat="44.76325" lon="6.33869">
        <ele>2015.8</ele>
        <time>2024-08-12T09:48:45Z</time>
      </trkpt>
      <trkpt lat="44.76325" lon="6.33869">
        <ele>2015.6</ele>
        <time>2024-08-12T09:48:46Z</time>
      </trkpt>
      <trkpt lat="44.76325" lon="6.33866">
        <ele>2015.4</ele>
        <time>2024-08-12T09:48:47Z</time>
      </trkpt>
      <trkpt lat="44.76325" lon="6.33866">
        <ele>2015.2</ele>
        <time>2024-08-12T09:48:48Z</time>
      </trkpt>
      <trkpt lat="44.76325" lon="6.33866">
        <ele>2015</ele>
        <time>2024-08-12T09:48:49Z</time>
      </trkpt>
      <trkpt lat="44.76327" lon="6.33864">
        <ele>2015</ele>
        <time>2024-08-12T09:48:50Z</time>
      </trkpt>
      <trkpt lat="44.76327" lon="6.33864">
        <ele>2014.8</ele>
        <time>2024-08-12T09:48:51Z</time>
      </trkpt>
      <trkpt lat="44.76329" lon="6.33862">
        <ele>2014.8</ele>
        <time>2024-08-12T09:48:52Z</time>
      </trkpt>
      <trkpt lat="44.76329" lon="6.33862">
        <ele>2014.6</ele>
        <time>2024-08-12T09:48:53Z</time>
      </trkpt>
      <trkpt lat="44.76331" lon="6.3386">
        <ele>2014</ele>
        <time>2024-08-12T09:48:54Z</time>
      </trkpt>
      <trkpt lat="44.76331" lon="6.3386">
        <ele>2013.8</ele>
        <time>2024-08-12T09:48:55Z</time>
      </trkpt>
      <trkpt lat="44.76332" lon="6.33858">
        <ele>2013.8</ele>
        <time>2024-08-12T09:48:56Z</time>
      </trkpt>
      <trkpt lat="44.76332" lon="6.33858">
        <ele>2013.6</ele>
        <time>2024-08-12T09:48:57Z</time>
      </trkpt>
      <trkpt lat="44.76334" lon="6.33857">
        <ele>2013.2</ele>
        <time>2024-08-12T09:48:58Z</time>
      </trkpt>
      <trkpt lat="44.76334" lon="6.33857">
        <ele>2012.8</ele>
        <time>2024-08-12T09:48:59Z</time>
      </trkpt>
      <trkpt lat="44.76334" lon="6.33857">
        <ele>2012.8</ele>
        <time>2024-08-12T09:49:00Z</time>
      </trkpt>
      <trkpt lat="44.76335" lon="6.33855">
        <ele>2012.6</ele>
        <time>2024-08-12T09:49:01Z</time>
      </trkpt>
      <trkpt lat="44.76335" lon="6.33855">
        <ele>2012.4</ele>
        <time>2024-08-12T09:49:02Z</time>
      </trkpt>
      <trkpt lat="44.76335" lon="6.33855">
        <ele>2012.2</ele>
        <time>2024-08-12T09:49:03Z</time>
      </trkpt>
      <trkpt lat="44.76337" lon="6.33853">
        <ele>2012</ele>
        <time>2024-08-12T09:49:04Z</time>
      </trkpt>
      <trkpt lat="44.76337" lon="6.33853">
        <ele>2011.8</ele>
        <time>2024-08-12T09:49:05Z</time>
      </trkpt>
      <trkpt lat="44.7634" lon="6.33852">
        <ele>2011.4</ele>
        <time>2024-08-12T09:49:06Z</time>
      </trkpt>
      <trkpt lat="44.7634" lon="6.33852">
        <ele>2011.2</ele>
        <time>2024-08-12T09:49:07Z</time>
      </trkpt>
      <trkpt lat="44.7634" lon="6.33852">
        <ele>2011.2</ele>
        <time>2024-08-12T09:49:08Z</time>
      </trkpt>
      <trkpt lat="44.76341" lon="6.33849">
        <ele>2010.8</ele>
        <time>2024-08-12T09:49:09Z</time>
      </trkpt>
      <trkpt lat="44.76341" lon="6.33849">
        <ele>2010.8</ele>
        <time>2024-08-12T09:49:10Z</time>
      </trkpt>
      <trkpt lat="44.76342" lon="6.33846">
        <ele>2010.6</ele>
        <time>2024-08-12T09:49:11Z</time>
      </trkpt>
      <trkpt lat="44.76342" lon="6.33846">
        <ele>2010.6</ele>
        <time>2024-08-12T09:49:12Z</time>
      </trkpt>
      <trkpt lat="44.76342" lon="6.33846">
        <ele>2010.4</ele>
        <time>2024-08-12T09:49:13Z</time>
      </trkpt>
      <trkpt lat="44.76342" lon="6.33843">
        <ele>2010.4</ele>
        <time>2024-08-12T09:49:14Z</time>
      </trkpt>
      <trkpt lat="44.76342" lon="6.33843">
        <ele>2010.2</ele>
        <time>2024-08-12T09:49:15Z</time>
      </trkpt>
      <trkpt lat="44.76342" lon="6.33843">
        <ele>2010</ele>
        <time>2024-08-12T09:49:16Z</time>
      </trkpt>
      <trkpt lat="44.76344" lon="6.3384">
        <ele>2009.6</ele>
        <time>2024-08-12T09:49:17Z</time>
      </trkpt>
      <trkpt lat="44.76344" lon="6.3384">
        <ele>2009.6</ele>
        <time>2024-08-12T09:49:18Z</time>
      </trkpt>
      <trkpt lat="44.76344" lon="6.3384">
        <ele>2009.4</ele>
        <time>2024-08-12T09:49:19Z</time>
      </trkpt>
      <trkpt lat="44.76343" lon="6.33837">
        <ele>2009.4</ele>
        <time>2024-08-12T09:49:20Z</time>
      </trkpt>
      <trkpt lat="44.76343" lon="6.33837">
        <ele>2009.2</ele>
        <time>2024-08-12T09:49:21Z</time>
      </trkpt>
      <trkpt lat="44.76343" lon="6.33837">
        <ele>2009</ele>
        <time>2024-08-12T09:49:22Z</time>
      </trkpt>
      <trkpt lat="44.76342" lon="6.33835">
        <ele>2009</ele>
        <time>2024-08-12T09:49:23Z</time>
      </trkpt>
      <trkpt lat="44.76342" lon="6.33835">
        <ele>2008.6</ele>
        <time>2024-08-12T09:49:24Z</time>
      </trkpt>
      <trkpt lat="44.76341" lon="6.33832">
        <ele>2008.6</ele>
        <time>2024-08-12T09:49:25Z</time>
      </trkpt>
      <trkpt lat="44.76341" lon="6.33832">
        <ele>2008.4</ele>
        <time>2024-08-12T09:49:26Z</time>
      </trkpt>
      <trkpt lat="44.76341" lon="6.33832">
        <ele>2008</ele>
        <time>2024-08-12T09:49:27Z</time>
      </trkpt>
      <trkpt lat="44.76341" lon="6.3383">
        <ele>2007.8</ele>
        <time>2024-08-12T09:49:28Z</time>
      </trkpt>
      <trkpt lat="44.76341" lon="6.3383">
        <ele>2007.6</ele>
        <time>2024-08-12T09:49:29Z</time>
      </trkpt>
      <trkpt lat="44.76341" lon="6.3383">
        <ele>2007.4</ele>
        <time>2024-08-12T09:49:30Z</time>
      </trkpt>
      <trkpt lat="44.76341" lon="6.3383">
        <ele>2007.4</ele>
        <time>2024-08-12T09:49:31Z</time>
      </trkpt>
      <trkpt lat="44.76341" lon="6.3383">
        <ele>2007.4</ele>
        <time>2024-08-12T09:49:32Z</time>
      </trkpt>
      <trkpt lat="44.76341" lon="6.3383">
        <ele>2007.4</ele>
        <time>2024-08-12T09:49:33Z</time>
      </trkpt>
      <trkpt lat="44.76341" lon="6.3383">
        <ele>2007.4</ele>
        <time>2024-08-12T09:49:34Z</time>
      </trkpt>
      <trkpt lat="44.76341" lon="6.3383">
        <ele>2007.6</ele>
        <time>2024-08-12T09:49:35Z</time>
      </trkpt>
      <trkpt lat="44.76341" lon="6.3383">
        <ele>2007.8</ele>
        <time>2024-08-12T09:49:36Z</time>
      </trkpt>
      <trkpt lat="44.76341" lon="6.3383">
        <ele>2007.8</ele>
        <time>2024-08-12T09:49:37Z</time>
      </trkpt>
      <trkpt lat="44.76341" lon="6.3383">
        <ele>2007.4</ele>
        <time>2024-08-12T09:49:38Z</time>
      </trkpt>
      <trkpt lat="44.76341" lon="6.3383">
        <ele>2007.2</ele>
        <time>2024-08-12T09:49:39Z</time>
      </trkpt>
      <trkpt lat="44.76341" lon="6.3383">
        <ele>2007.2</ele>
        <time>2024-08-12T09:49:40Z</time>
      </trkpt>
      <trkpt lat="44.76343" lon="6.33828">
        <ele>2007.2</ele>
        <time>2024-08-12T09:49:41Z</time>
      </trkpt>
      <trkpt lat="44.76343" lon="6.33828">
        <ele>2006.8</ele>
        <time>2024-08-12T09:49:42Z</time>
      </trkpt>
      <trkpt lat="44.76346" lon="6.33827">
        <ele>2006.8</ele>
        <time>2024-08-12T09:49:43Z</time>
      </trkpt>
      <trkpt lat="44.76346" lon="6.33827">
        <ele>2006.8</ele>
        <time>2024-08-12T09:49:44Z</time>
      </trkpt>
      <trkpt lat="44.76348" lon="6.33825">
        <ele>2006.6</ele>
        <time>2024-08-12T09:49:45Z</time>
      </trkpt>
      <trkpt lat="44.76348" lon="6.33825">
        <ele>2006.4</ele>
        <time>2024-08-12T09:49:46Z</time>
      </trkpt>
      <trkpt lat="44.7635" lon="6.33823">
        <ele>2006</ele>
        <time>2024-08-12T09:49:47Z</time>
      </trkpt>
      <trkpt lat="44.7635" lon="6.33823">
        <ele>2005.8</ele>
        <time>2024-08-12T09:49:48Z</time>
      </trkpt>
      <trkpt lat="44.76353" lon="6.33823">
        <ele>2005.8</ele>
        <time>2024-08-12T09:49:49Z</time>
      </trkpt>
      <trkpt lat="44.76353" lon="6.33823">
        <ele>2005.6</ele>
        <time>2024-08-12T09:49:50Z</time>
      </trkpt>
      <trkpt lat="44.76353" lon="6.33823">
        <ele>2005</ele>
        <time>2024-08-12T09:49:51Z</time>
      </trkpt>
      <trkpt lat="44.76353" lon="6.33823">
        <ele>2004.8</ele>
        <time>2024-08-12T09:49:52Z</time>
      </trkpt>
      <trkpt lat="44.76352" lon="6.3382">
        <ele>2004.2</ele>
        <time>2024-08-12T09:49:53Z</time>
      </trkpt>
      <trkpt lat="44.76352" lon="6.3382">
        <ele>2004.2</ele>
        <time>2024-08-12T09:49:54Z</time>
      </trkpt>
      <trkpt lat="44.76352" lon="6.3382">
        <ele>2004.2</ele>
        <time>2024-08-12T09:49:55Z</time>
      </trkpt>
      <trkpt lat="44.7635" lon="6.33819">
        <ele>2003.8</ele>
        <time>2024-08-12T09:49:56Z</time>
      </trkpt>
      <trkpt lat="44.7635" lon="6.33819">
        <ele>2003.6</ele>
        <time>2024-08-12T09:49:57Z</time>
      </trkpt>
      <trkpt lat="44.76349" lon="6.33817">
        <ele>2003.6</ele>
        <time>2024-08-12T09:49:58Z</time>
      </trkpt>
      <trkpt lat="44.76349" lon="6.33817">
        <ele>2003.6</ele>
        <time>2024-08-12T09:49:59Z</time>
      </trkpt>
      <trkpt lat="44.76349" lon="6.33817">
        <ele>2003.2</ele>
        <time>2024-08-12T09:50:00Z</time>
      </trkpt>
      <trkpt lat="44.76347" lon="6.33816">
        <ele>2003.2</ele>
        <time>2024-08-12T09:50:01Z</time>
      </trkpt>
      <trkpt lat="44.76347" lon="6.33816">
        <ele>2002.4</ele>
        <time>2024-08-12T09:50:02Z</time>
      </trkpt>
      <trkpt lat="44.76347" lon="6.33816">
        <ele>2002.4</ele>
        <time>2024-08-12T09:50:03Z</time>
      </trkpt>
      <trkpt lat="44.76346" lon="6.33813">
        <ele>2002.4</ele>
        <time>2024-08-12T09:50:04Z</time>
      </trkpt>
      <trkpt lat="44.76346" lon="6.33813">
        <ele>2002.4</ele>
        <time>2024-08-12T09:50:05Z</time>
      </trkpt>
      <trkpt lat="44.76346" lon="6.33813">
        <ele>2002</ele>
        <time>2024-08-12T09:50:06Z</time>
      </trkpt>
      <trkpt lat="44.76345" lon="6.3381">
        <ele>2002</ele>
        <time>2024-08-12T09:50:07Z</time>
      </trkpt>
      <trkpt lat="44.76345" lon="6.3381">
        <ele>2001.8</ele>
        <time>2024-08-12T09:50:08Z</time>
      </trkpt>
      <trkpt lat="44.76345" lon="6.3381">
        <ele>2001.4</ele>
        <time>2024-08-12T09:50:09Z</time>
      </trkpt>
      <trkpt lat="44.76346" lon="6.33807">
        <ele>2001.4</ele>
        <time>2024-08-12T09:50:10Z</time>
      </trkpt>
      <trkpt lat="44.76346" lon="6.33807">
        <ele>2001.4</ele>
        <time>2024-08-12T09:50:11Z</time>
      </trkpt>
      <trkpt lat="44.76346" lon="6.33807">
        <ele>2001</ele>
        <time>2024-08-12T09:50:12Z</time>
      </trkpt>
      <trkpt lat="44.76347" lon="6.33805">
        <ele>2001</ele>
        <time>2024-08-12T09:50:13Z</time>
      </trkpt>
      <trkpt lat="44.76347" lon="6.33805">
        <ele>2000.8</ele>
        <time>2024-08-12T09:50:14Z</time>
      </trkpt>
      <trkpt lat="44.76349" lon="6.33804">
        <ele>2000.2</ele>
        <time>2024-08-12T09:50:15Z</time>
      </trkpt>
      <trkpt lat="44.76349" lon="6.33804">
        <ele>2000.2</ele>
        <time>2024-08-12T09:50:16Z</time>
      </trkpt>
      <trkpt lat="44.76351" lon="6.33803">
        <ele>2000</ele>
        <time>2024-08-12T09:50:17Z</time>
      </trkpt>
      <trkpt lat="44.76351" lon="6.33803">
        <ele>1999.8</ele>
        <time>2024-08-12T09:50:18Z</time>
      </trkpt>
      <trkpt lat="44.76353" lon="6.33802">
        <ele>1999.2</ele>
        <time>2024-08-12T09:50:19Z</time>
      </trkpt>
      <trkpt lat="44.76353" lon="6.33802">
        <ele>1998.8</ele>
        <time>2024-08-12T09:50:20Z</time>
      </trkpt>
      <trkpt lat="44.76353" lon="6.33802">
        <ele>1998.8</ele>
        <time>2024-08-12T09:50:21Z</time>
      </trkpt>
      <trkpt lat="44.76354" lon="6.338">
        <ele>1998.4</ele>
        <time>2024-08-12T09:50:22Z</time>
      </trkpt>
      <trkpt lat="44.76354" lon="6.338">
        <ele>1998.4</ele>
        <time>2024-08-12T09:50:23Z</time>
      </trkpt>
      <trkpt lat="44.76353" lon="6.33798">
        <ele>1998.4</ele>
        <time>2024-08-12T09:50:24Z</time>
      </trkpt>
      <trkpt lat="44.76353" lon="6.33798">
        <ele>1998.4</ele>
        <time>2024-08-12T09:50:25Z</time>
      </trkpt>
      <trkpt lat="44.76351" lon="6.33796">
        <ele>1998</ele>
        <time>2024-08-12T09:50:26Z</time>
      </trkpt>
      <trkpt lat="44.76351" lon="6.33796">
        <ele>1997.4</ele>
        <time>2024-08-12T09:50:27Z</time>
      </trkpt>
      <trkpt lat="44.7635" lon="6.33794">
        <ele>1997.4</ele>
        <time>2024-08-12T09:50:28Z</time>
      </trkpt>
      <trkpt lat="44.7635" lon="6.33794">
        <ele>1997.6</ele>
        <time>2024-08-12T09:50:29Z</time>
      </trkpt>
      <trkpt lat="44.76349" lon="6.33791">
        <ele>1997.6</ele>
        <time>2024-08-12T09:50:30Z</time>
      </trkpt>
      <trkpt lat="44.76349" lon="6.33791">
        <ele>1997.2</ele>
        <time>2024-08-12T09:50:31Z</time>
      </trkpt>
      <trkpt lat="44.76349" lon="6.33788">
        <ele>1997</ele>
        <time>2024-08-12T09:50:32Z</time>
      </trkpt>
      <trkpt lat="44.76349" lon="6.33788">
        <ele>1996.8</ele>
        <time>2024-08-12T09:50:33Z</time>
      </trkpt>
      <trkpt lat="44.76352" lon="6.33787">
        <ele>1996.2</ele>
        <time>2024-08-12T09:50:34Z</time>
      </trkpt>
      <trkpt lat="44.76352" lon="6.33787">
        <ele>1995.8</ele>
        <time>2024-08-12T09:50:35Z</time>
      </trkpt>
      <trkpt lat="44.76354" lon="6.33786">
        <ele>1995.4</ele>
        <time>2024-08-12T09:50:36Z</time>
      </trkpt>
      <trkpt lat="44.76354" lon="6.33786">
        <ele>1995.2</ele>
        <time>2024-08-12T09:50:37Z</time>
      </trkpt>
      <trkpt lat="44.76354" lon="6.33786">
        <ele>1995</ele>
        <time>2024-08-12T09:50:38Z</time>
      </trkpt>
      <trkpt lat="44.76354" lon="6.33786">
        <ele>1995</ele>
        <time>2024-08-12T09:50:39Z</time>
      </trkpt>
      <trkpt lat="44.76354" lon="6.33786">
        <ele>1995.2</ele>
        <time>2024-08-12T09:50:40Z</time>
      </trkpt>
      <trkpt lat="44.76354" lon="6.33786">
        <ele>1995.2</ele>
        <time>2024-08-12T09:50:41Z</time>
      </trkpt>
      <trkpt lat="44.76356" lon="6.33785">
        <ele>1995.2</ele>
        <time>2024-08-12T09:50:42Z</time>
      </trkpt>
      <trkpt lat="44.76356" lon="6.33785">
        <ele>1994.8</ele>
        <time>2024-08-12T09:50:43Z</time>
      </trkpt>
      <trkpt lat="44.76356" lon="6.33785">
        <ele>1994.6</ele>
        <time>2024-08-12T09:50:44Z</time>
      </trkpt>
      <trkpt lat="44.76357" lon="6.33781">
        <ele>1994.2</ele>
        <time>2024-08-12T09:50:45Z</time>
      </trkpt>
      <trkpt lat="44.76357" lon="6.33781">
        <ele>1993.8</ele>
        <time>2024-08-12T09:50:46Z</time>
      </trkpt>
      <trkpt lat="44.76357" lon="6.33781">
        <ele>1993.8</ele>
        <time>2024-08-12T09:50:47Z</time>
      </trkpt>
      <trkpt lat="44.76355" lon="6.33777">
        <ele>1993.6</ele>
        <time>2024-08-12T09:50:48Z</time>
      </trkpt>
      <trkpt lat="44.76355" lon="6.33777">
        <ele>1993.4</ele>
        <time>2024-08-12T09:50:49Z</time>
      </trkpt>
      <trkpt lat="44.76353" lon="6.33775">
        <ele>1993.2</ele>
        <time>2024-08-12T09:50:50Z</time>
      </trkpt>
      <trkpt lat="44.76353" lon="6.33775">
        <ele>1993</ele>
        <time>2024-08-12T09:50:51Z</time>
      </trkpt>
      <trkpt lat="44.76352" lon="6.33772">
        <ele>1992.8</ele>
        <time>2024-08-12T09:50:52Z</time>
      </trkpt>
      <trkpt lat="44.76352" lon="6.33772">
        <ele>1992.6</ele>
        <time>2024-08-12T09:50:53Z</time>
      </trkpt>
      <trkpt lat="44.7635" lon="6.3377">
        <ele>1992.4</ele>
        <time>2024-08-12T09:50:54Z</time>
      </trkpt>
      <trkpt lat="44.7635" lon="6.3377">
        <ele>1992</ele>
        <time>2024-08-12T09:50:55Z</time>
      </trkpt>
      <trkpt lat="44.7635" lon="6.3377">
        <ele>1991.8</ele>
        <time>2024-08-12T09:50:56Z</time>
      </trkpt>
      <trkpt lat="44.76349" lon="6.33767">
        <ele>1991.6</ele>
        <time>2024-08-12T09:50:57Z</time>
      </trkpt>
      <trkpt lat="44.76349" lon="6.33767">
        <ele>1991.6</ele>
        <time>2024-08-12T09:50:58Z</time>
      </trkpt>
      <trkpt lat="44.76349" lon="6.33767">
        <ele>1991.6</ele>
        <time>2024-08-12T09:50:59Z</time>
      </trkpt>
      <trkpt lat="44.76349" lon="6.33764">
        <ele>1991</ele>
        <time>2024-08-12T09:51:00Z</time>
      </trkpt>
      <trkpt lat="44.76349" lon="6.33764">
        <ele>1990.6</ele>
        <time>2024-08-12T09:51:01Z</time>
      </trkpt>
      <trkpt lat="44.76348" lon="6.33761">
        <ele>1990.4</ele>
        <time>2024-08-12T09:51:02Z</time>
      </trkpt>
      <trkpt lat="44.76348" lon="6.33761">
        <ele>1990.2</ele>
        <time>2024-08-12T09:51:03Z</time>
      </trkpt>
      <trkpt lat="44.76348" lon="6.33758">
        <ele>1990</ele>
        <time>2024-08-12T09:51:04Z</time>
      </trkpt>
      <trkpt lat="44.76348" lon="6.33758">
        <ele>1989.8</ele>
        <time>2024-08-12T09:51:05Z</time>
      </trkpt>
      <trkpt lat="44.76348" lon="6.33755">
        <ele>1989.4</ele>
        <time>2024-08-12T09:51:06Z</time>
      </trkpt>
      <trkpt lat="44.76348" lon="6.33755">
        <ele>1989.4</ele>
        <time>2024-08-12T09:51:07Z</time>
      </trkpt>
      <trkpt lat="44.76349" lon="6.33752">
        <ele>1989.4</ele>
        <time>2024-08-12T09:51:08Z</time>
      </trkpt>
      <trkpt lat="44.76349" lon="6.33752">
        <ele>1989.2</ele>
        <time>2024-08-12T09:51:09Z</time>
      </trkpt>
      <trkpt lat="44.76351" lon="6.33751">
        <ele>1989</ele>
        <time>2024-08-12T09:51:10Z</time>
      </trkpt>
      <trkpt lat="44.76351" lon="6.33751">
        <ele>1988.8</ele>
        <time>2024-08-12T09:51:11Z</time>
      </trkpt>
      <trkpt lat="44.76353" lon="6.33749">
        <ele>1988.6</ele>
        <time>2024-08-12T09:51:12Z</time>
      </trkpt>
      <trkpt lat="44.76353" lon="6.33749">
        <ele>1988.4</ele>
        <time>2024-08-12T09:51:13Z</time>
      </trkpt>
      <trkpt lat="44.76353" lon="6.33749">
        <ele>1988.2</ele>
        <time>2024-08-12T09:51:14Z</time>
      </trkpt>
      <trkpt lat="44.76354" lon="6.33746">
        <ele>1988</ele>
        <time>2024-08-12T09:51:15Z</time>
      </trkpt>
      <trkpt lat="44.76354" lon="6.33746">
        <ele>1987.8</ele>
        <time>2024-08-12T09:51:16Z</time>
      </trkpt>
      <trkpt lat="44.76354" lon="6.33744">
        <ele>1987.4</ele>
        <time>2024-08-12T09:51:17Z</time>
      </trkpt>
      <trkpt lat="44.76354" lon="6.33744">
        <ele>1987.4</ele>
        <time>2024-08-12T09:51:18Z</time>
      </trkpt>
      <trkpt lat="44.76354" lon="6.33744">
        <ele>1987.4</ele>
        <time>2024-08-12T09:51:19Z</time>
      </trkpt>
      <trkpt lat="44.76354" lon="6.3374">
        <ele>1987</ele>
        <time>2024-08-12T09:51:20Z</time>
      </trkpt>
      <trkpt lat="44.76354" lon="6.3374">
        <ele>1986.6</ele>
        <time>2024-08-12T09:51:21Z</time>
      </trkpt>
      <trkpt lat="44.76354" lon="6.3374">
        <ele>1986.6</ele>
        <time>2024-08-12T09:51:22Z</time>
      </trkpt>
      <trkpt lat="44.76353" lon="6.33737">
        <ele>1986.6</ele>
        <time>2024-08-12T09:51:23Z</time>
      </trkpt>
      <trkpt lat="44.76353" lon="6.33737">
        <ele>1986.6</ele>
        <time>2024-08-12T09:51:24Z</time>
      </trkpt>
      <trkpt lat="44.76353" lon="6.33737">
        <ele>1986.2</ele>
        <time>2024-08-12T09:51:25Z</time>
      </trkpt>
      <trkpt lat="44.76354" lon="6.33735">
        <ele>1985.6</ele>
        <time>2024-08-12T09:51:26Z</time>
      </trkpt>
      <trkpt lat="44.76354" lon="6.33735">
        <ele>1985.4</ele>
        <time>2024-08-12T09:51:27Z</time>
      </trkpt>
      <trkpt lat="44.76354" lon="6.33735">
        <ele>1985</ele>
        <time>2024-08-12T09:51:28Z</time>
      </trkpt>
      <trkpt lat="44.76356" lon="6.33732">
        <ele>1984.8</ele>
        <time>2024-08-12T09:51:29Z</time>
      </trkpt>
      <trkpt lat="44.76356" lon="6.33732">
        <ele>1984.6</ele>
        <time>2024-08-12T09:51:30Z</time>
      </trkpt>
      <trkpt lat="44.76357" lon="6.33731">
        <ele>1984.6</ele>
        <time>2024-08-12T09:51:31Z</time>
      </trkpt>
      <trkpt lat="44.76357" lon="6.33731">
        <ele>1984</ele>
        <time>2024-08-12T09:51:32Z</time>
      </trkpt>
      <trkpt lat="44.76357" lon="6.33731">
        <ele>1984</ele>
        <time>2024-08-12T09:51:33Z</time>
      </trkpt>
      <trkpt lat="44.76359" lon="6.33729">
        <ele>1984</ele>
        <time>2024-08-12T09:51:34Z</time>
      </trkpt>
      <trkpt lat="44.76359" lon="6.33729">
        <ele>1983.8</ele>
        <time>2024-08-12T09:51:35Z</time>
      </trkpt>
      <trkpt lat="44.76359" lon="6.33729">
        <ele>1983.4</ele>
        <time>2024-08-12T09:51:36Z</time>
      </trkpt>
      <trkpt lat="44.7636" lon="6.33726">
        <ele>1983.2</ele>
        <time>2024-08-12T09:51:37Z</time>
      </trkpt>
      <trkpt lat="44.7636" lon="6.33726">
        <ele>1983.2</ele>
        <time>2024-08-12T09:51:38Z</time>
      </trkpt>
      <trkpt lat="44.7636" lon="6.33726">
        <ele>1983</ele>
        <time>2024-08-12T09:51:39Z</time>
      </trkpt>
      <trkpt lat="44.76359" lon="6.33722">
        <ele>1983</ele>
        <time>2024-08-12T09:51:40Z</time>
      </trkpt>
      <trkpt lat="44.76359" lon="6.33722">
        <ele>1982.6</ele>
        <time>2024-08-12T09:51:41Z</time>
      </trkpt>
      <trkpt lat="44.76359" lon="6.33722">
        <ele>1982.4</ele>
        <time>2024-08-12T09:51:42Z</time>
      </trkpt>
      <trkpt lat="44.76358" lon="6.33719">
        <ele>1982.2</ele>
        <time>2024-08-12T09:51:43Z</time>
      </trkpt>
      <trkpt lat="44.76358" lon="6.33719">
        <ele>1981.8</ele>
        <time>2024-08-12T09:51:44Z</time>
      </trkpt>
      <trkpt lat="44.76358" lon="6.33719">
        <ele>1981.8</ele>
        <time>2024-08-12T09:51:45Z</time>
      </trkpt>
      <trkpt lat="44.76356" lon="6.33718">
        <ele>1981.4</ele>
        <time>2024-08-12T09:51:46Z</time>
      </trkpt>
      <trkpt lat="44.76356" lon="6.33718">
        <ele>1981.4</ele>
        <time>2024-08-12T09:51:47Z</time>
      </trkpt>
      <trkpt lat="44.76354" lon="6.33719">
        <ele>1981.4</ele>
        <time>2024-08-12T09:51:48Z</time>
      </trkpt>
      <trkpt lat="44.76354" lon="6.33719">
        <ele>1981</ele>
        <time>2024-08-12T09:51:49Z</time>
      </trkpt>
      <trkpt lat="44.76352" lon="6.33721">
        <ele>1980.8</ele>
        <time>2024-08-12T09:51:50Z</time>
      </trkpt>
      <trkpt lat="44.76352" lon="6.33721">
        <ele>1980.8</ele>
        <time>2024-08-12T09:51:51Z</time>
      </trkpt>
      <trkpt lat="44.7635" lon="6.33723">
        <ele>1980.8</ele>
        <time>2024-08-12T09:51:52Z</time>
      </trkpt>
      <trkpt lat="44.7635" lon="6.33723">
        <ele>1980.6</ele>
        <time>2024-08-12T09:51:53Z</time>
      </trkpt>
      <trkpt lat="44.76347" lon="6.33724">
        <ele>1980.6</ele>
        <time>2024-08-12T09:51:54Z</time>
      </trkpt>
      <trkpt lat="44.76347" lon="6.33724">
        <ele>1980.6</ele>
        <time>2024-08-12T09:51:55Z</time>
      </trkpt>
      <trkpt lat="44.76347" lon="6.33724">
        <ele>1980.6</ele>
        <time>2024-08-12T09:51:56Z</time>
      </trkpt>
      <trkpt lat="44.76344" lon="6.33722">
        <ele>1980.6</ele>
        <time>2024-08-12T09:51:57Z</time>
      </trkpt>
      <trkpt lat="44.76344" lon="6.33722">
        <ele>1980.6</ele>
        <time>2024-08-12T09:51:58Z</time>
      </trkpt>
      <trkpt lat="44.76342" lon="6.33721">
        <ele>1980.4</ele>
        <time>2024-08-12T09:51:59Z</time>
      </trkpt>
      <trkpt lat="44.76342" lon="6.33721">
        <ele>1980.4</ele>
        <time>2024-08-12T09:52:00Z</time>
      </trkpt>
      <trkpt lat="44.7634" lon="6.3372">
        <ele>1980.2</ele>
        <time>2024-08-12T09:52:01Z</time>
      </trkpt>
      <trkpt lat="44.7634" lon="6.3372">
        <ele>1980.2</ele>
        <time>2024-08-12T09:52:02Z</time>
      </trkpt>
      <trkpt lat="44.76338" lon="6.33719">
        <ele>1980.2</ele>
        <time>2024-08-12T09:52:03Z</time>
      </trkpt>
      <trkpt lat="44.76338" lon="6.33719">
        <ele>1980</ele>
        <time>2024-08-12T09:52:04Z</time>
      </trkpt>
      <trkpt lat="44.76336" lon="6.33718">
        <ele>1979.8</ele>
        <time>2024-08-12T09:52:05Z</time>
      </trkpt>
      <trkpt lat="44.76336" lon="6.33718">
        <ele>1979.8</ele>
        <time>2024-08-12T09:52:06Z</time>
      </trkpt>
      <trkpt lat="44.76334" lon="6.33718">
        <ele>1979.6</ele>
        <time>2024-08-12T09:52:07Z</time>
      </trkpt>
      <trkpt lat="44.76334" lon="6.33718">
        <ele>1979.6</ele>
        <time>2024-08-12T09:52:08Z</time>
      </trkpt>
      <trkpt lat="44.76331" lon="6.33718">
        <ele>1979.4</ele>
        <time>2024-08-12T09:52:09Z</time>
      </trkpt>
      <trkpt lat="44.76331" lon="6.33718">
        <ele>1979</ele>
        <time>2024-08-12T09:52:10Z</time>
      </trkpt>
      <trkpt lat="44.76329" lon="6.33719">
        <ele>1978.8</ele>
        <time>2024-08-12T09:52:11Z</time>
      </trkpt>
      <trkpt lat="44.76329" lon="6.33719">
        <ele>1978.8</ele>
        <time>2024-08-12T09:52:12Z</time>
      </trkpt>
      <trkpt lat="44.76326" lon="6.3372">
        <ele>1978.8</ele>
        <time>2024-08-12T09:52:13Z</time>
      </trkpt>
      <trkpt lat="44.76326" lon="6.3372">
        <ele>1978.8</ele>
        <time>2024-08-12T09:52:14Z</time>
      </trkpt>
      <trkpt lat="44.76323" lon="6.3372">
        <ele>1978.6</ele>
        <time>2024-08-12T09:52:15Z</time>
      </trkpt>
      <trkpt lat="44.76323" lon="6.3372">
        <ele>1978.6</ele>
        <time>2024-08-12T09:52:16Z</time>
      </trkpt>
      <trkpt lat="44.76321" lon="6.33721">
        <ele>1978.6</ele>
        <time>2024-08-12T09:52:17Z</time>
      </trkpt>
      <trkpt lat="44.76321" lon="6.33721">
        <ele>1978.6</ele>
        <time>2024-08-12T09:52:18Z</time>
      </trkpt>
      <trkpt lat="44.76319" lon="6.33722">
        <ele>1978.6</ele>
        <time>2024-08-12T09:52:19Z</time>
      </trkpt>
      <trkpt lat="44.76319" lon="6.33722">
        <ele>1978.6</ele>
        <time>2024-08-12T09:52:20Z</time>
      </trkpt>
      <trkpt lat="44.76319" lon="6.33722">
        <ele>1978.6</ele>
        <time>2024-08-12T09:52:21Z</time>
      </trkpt>
      <trkpt lat="44.76319" lon="6.33722">
        <ele>1978.6</ele>
        <time>2024-08-12T09:52:22Z</time>
      </trkpt>
      <trkpt lat="44.76317" lon="6.33724">
        <ele>1978.6</ele>
        <time>2024-08-12T09:52:23Z</time>
      </trkpt>
      <trkpt lat="44.76317" lon="6.33724">
        <ele>1978.4</ele>
        <time>2024-08-12T09:52:24Z</time>
      </trkpt>
      <trkpt lat="44.76317" lon="6.33724">
        <ele>1978.4</ele>
        <time>2024-08-12T09:52:25Z</time>
      </trkpt>
      <trkpt lat="44.76317" lon="6.33724">
        <ele>1978.2</ele>
        <time>2024-08-12T09:52:26Z</time>
      </trkpt>
      <trkpt lat="44.76315" lon="6.33724">
        <ele>1977.6</ele>
        <time>2024-08-12T09:52:27Z</time>
      </trkpt>
      <trkpt lat="44.76315" lon="6.33724">
        <ele>1977.6</ele>
        <time>2024-08-12T09:52:28Z</time>
      </trkpt>
      <trkpt lat="44.76315" lon="6.33724">
        <ele>1977.4</ele>
        <time>2024-08-12T09:52:29Z</time>
      </trkpt>
      <trkpt lat="44.76315" lon="6.33724">
        <ele>1977</ele>
        <time>2024-08-12T09:52:30Z</time>
      </trkpt>
      <trkpt lat="44.76315" lon="6.33724">
        <ele>1977</ele>
        <time>2024-08-12T09:52:31Z</time>
      </trkpt>
      <trkpt lat="44.76315" lon="6.33724">
        <ele>1977</ele>
        <time>2024-08-12T09:52:32Z</time>
      </trkpt>
      <trkpt lat="44.76313" lon="6.33721">
        <ele>1976.6</ele>
        <time>2024-08-12T09:52:33Z</time>
      </trkpt>
      <trkpt lat="44.76313" lon="6.33721">
        <ele>1976.6</ele>
        <time>2024-08-12T09:52:34Z</time>
      </trkpt>
      <trkpt lat="44.76312" lon="6.33719">
        <ele>1976.6</ele>
        <time>2024-08-12T09:52:35Z</time>
      </trkpt>
      <trkpt lat="44.76312" lon="6.33719">
        <ele>1976.6</ele>
        <time>2024-08-12T09:52:36Z</time>
      </trkpt>
      <trkpt lat="44.76312" lon="6.33719">
        <ele>1976.6</ele>
        <time>2024-08-12T09:52:37Z</time>
      </trkpt>
      <trkpt lat="44.76312" lon="6.33719">
        <ele>1976.6</ele>
        <time>2024-08-12T09:52:38Z</time>
      </trkpt>
      <trkpt lat="44.76312" lon="6.33719">
        <ele>1976.6</ele>
        <time>2024-08-12T09:52:39Z</time>
      </trkpt>
      <trkpt lat="44.76312" lon="6.33719">
        <ele>1976.6</ele>
        <time>2024-08-12T09:52:40Z</time>
      </trkpt>
      <trkpt lat="44.76311" lon="6.33717">
        <ele>1976.2</ele>
        <time>2024-08-12T09:52:41Z</time>
      </trkpt>
      <trkpt lat="44.76311" lon="6.33717">
        <ele>1976.2</ele>
        <time>2024-08-12T09:52:42Z</time>
      </trkpt>
      <trkpt lat="44.76313" lon="6.33712">
        <ele>1976.2</ele>
        <time>2024-08-12T09:52:43Z</time>
      </trkpt>
      <trkpt lat="44.76314" lon="6.33709">
        <ele>1976.2</ele>
        <time>2024-08-12T09:52:44Z</time>
      </trkpt>
      <trkpt lat="44.76315" lon="6.33706">
        <ele>1976.2</ele>
        <time>2024-08-12T09:52:45Z</time>
      </trkpt>
      <trkpt lat="44.76316" lon="6.33703">
        <ele>1976</ele>
        <time>2024-08-12T09:52:46Z</time>
      </trkpt>
      <trkpt lat="44.76316" lon="6.33703">
        <ele>1976</ele>
        <time>2024-08-12T09:52:47Z</time>
      </trkpt>
      <trkpt lat="44.76318" lon="6.33699">
        <ele>1976.2</ele>
        <time>2024-08-12T09:52:48Z</time>
      </trkpt>
      <trkpt lat="44.76318" lon="6.33699">
        <ele>1976.2</ele>
        <time>2024-08-12T09:52:49Z</time>
      </trkpt>
      <trkpt lat="44.76319" lon="6.33696">
        <ele>1976</ele>
        <time>2024-08-12T09:52:50Z</time>
      </trkpt>
      <trkpt lat="44.76319" lon="6.33696">
        <ele>1975.8</ele>
        <time>2024-08-12T09:52:51Z</time>
      </trkpt>
      <trkpt lat="44.7632" lon="6.33694">
        <ele>1975.8</ele>
        <time>2024-08-12T09:52:52Z</time>
      </trkpt>
      <trkpt lat="44.7632" lon="6.33694">
        <ele>1975.8</ele>
        <time>2024-08-12T09:52:53Z</time>
      </trkpt>
      <trkpt lat="44.76322" lon="6.33692">
        <ele>1975.2</ele>
        <time>2024-08-12T09:52:54Z</time>
      </trkpt>
      <trkpt lat="44.76322" lon="6.33692">
        <ele>1975</ele>
        <time>2024-08-12T09:52:55Z</time>
      </trkpt>
      <trkpt lat="44.76322" lon="6.33692">
        <ele>1975</ele>
        <time>2024-08-12T09:52:56Z</time>
      </trkpt>
      <trkpt lat="44.76324" lon="6.33689">
        <ele>1974.8</ele>
        <time>2024-08-12T09:52:57Z</time>
      </trkpt>
      <trkpt lat="44.76324" lon="6.33689">
        <ele>1974.8</ele>
        <time>2024-08-12T09:52:58Z</time>
      </trkpt>
      <trkpt lat="44.76326" lon="6.33687">
        <ele>1974.8</ele>
        <time>2024-08-12T09:52:59Z</time>
      </trkpt>
      <trkpt lat="44.76326" lon="6.33687">
        <ele>1974.6</ele>
        <time>2024-08-12T09:53:00Z</time>
      </trkpt>
      <trkpt lat="44.76327" lon="6.33685">
        <ele>1974.2</ele>
        <time>2024-08-12T09:53:01Z</time>
      </trkpt>
      <trkpt lat="44.76327" lon="6.33685">
        <ele>1973.6</ele>
        <time>2024-08-12T09:53:02Z</time>
      </trkpt>
      <trkpt lat="44.76329" lon="6.33683">
        <ele>1973.6</ele>
        <time>2024-08-12T09:53:03Z</time>
      </trkpt>
      <trkpt lat="44.76329" lon="6.33683">
        <ele>1973.4</ele>
        <time>2024-08-12T09:53:04Z</time>
      </trkpt>
      <trkpt lat="44.7633" lon="6.3368">
        <ele>1973.4</ele>
        <time>2024-08-12T09:53:05Z</time>
      </trkpt>
      <trkpt lat="44.7633" lon="6.3368">
        <ele>1973.6</ele>
        <time>2024-08-12T09:53:06Z</time>
      </trkpt>
      <trkpt lat="44.76331" lon="6.33676">
        <ele>1973.6</ele>
        <time>2024-08-12T09:53:07Z</time>
      </trkpt>
      <trkpt lat="44.76331" lon="6.33676">
        <ele>1973.6</ele>
        <time>2024-08-12T09:53:08Z</time>
      </trkpt>
      <trkpt lat="44.76333" lon="6.33674">
        <ele>1973.4</ele>
        <time>2024-08-12T09:53:09Z</time>
      </trkpt>
      <trkpt lat="44.76333" lon="6.33674">
        <ele>1973.4</ele>
        <time>2024-08-12T09:53:10Z</time>
      </trkpt>
      <trkpt lat="44.76335" lon="6.33671">
        <ele>1973.4</ele>
        <time>2024-08-12T09:53:11Z</time>
      </trkpt>
      <trkpt lat="44.76335" lon="6.33671">
        <ele>1973.4</ele>
        <time>2024-08-12T09:53:12Z</time>
      </trkpt>
      <trkpt lat="44.76337" lon="6.33669">
        <ele>1973.4</ele>
        <time>2024-08-12T09:53:13Z</time>
      </trkpt>
      <trkpt lat="44.76337" lon="6.33669">
        <ele>1973.6</ele>
        <time>2024-08-12T09:53:14Z</time>
      </trkpt>
      <trkpt lat="44.76339" lon="6.33667">
        <ele>1973.6</ele>
        <time>2024-08-12T09:53:15Z</time>
      </trkpt>
      <trkpt lat="44.76339" lon="6.33667">
        <ele>1973.6</ele>
        <time>2024-08-12T09:53:16Z</time>
      </trkpt>
      <trkpt lat="44.76339" lon="6.33665">
        <ele>1973.2</ele>
        <time>2024-08-12T09:53:17Z</time>
      </trkpt>
      <trkpt lat="44.76339" lon="6.33665">
        <ele>1973.2</ele>
        <time>2024-08-12T09:53:18Z</time>
      </trkpt>
      <trkpt lat="44.76339" lon="6.33661">
        <ele>1973.2</ele>
        <time>2024-08-12T09:53:19Z</time>
      </trkpt>
      <trkpt lat="44.76339" lon="6.33661">
        <ele>1973.2</ele>
        <time>2024-08-12T09:53:20Z</time>
      </trkpt>
      <trkpt lat="44.76339" lon="6.33658">
        <ele>1973</ele>
        <time>2024-08-12T09:53:21Z</time>
      </trkpt>
      <trkpt lat="44.76339" lon="6.33658">
        <ele>1973</ele>
        <time>2024-08-12T09:53:22Z</time>
      </trkpt>
      <trkpt lat="44.76339" lon="6.33654">
        <ele>1973</ele>
        <time>2024-08-12T09:53:23Z</time>
      </trkpt>
      <trkpt lat="44.76339" lon="6.33654">
        <ele>1972.8</ele>
        <time>2024-08-12T09:53:24Z</time>
      </trkpt>
      <trkpt lat="44.76339" lon="6.33651">
        <ele>1972.6</ele>
        <time>2024-08-12T09:53:25Z</time>
      </trkpt>
      <trkpt lat="44.76339" lon="6.33651">
        <ele>1972.6</ele>
        <time>2024-08-12T09:53:26Z</time>
      </trkpt>
      <trkpt lat="44.7634" lon="6.33647">
        <ele>1972.6</ele>
        <time>2024-08-12T09:53:27Z</time>
      </trkpt>
      <trkpt lat="44.7634" lon="6.33647">
        <ele>1972.6</ele>
        <time>2024-08-12T09:53:28Z</time>
      </trkpt>
      <trkpt lat="44.76341" lon="6.33644">
        <ele>1972.4</ele>
        <time>2024-08-12T09:53:29Z</time>
      </trkpt>
      <trkpt lat="44.76341" lon="6.33644">
        <ele>1972.2</ele>
        <time>2024-08-12T09:53:30Z</time>
      </trkpt>
      <trkpt lat="44.76342" lon="6.33641">
        <ele>1972.2</ele>
        <time>2024-08-12T09:53:31Z</time>
      </trkpt>
      <trkpt lat="44.76342" lon="6.33641">
        <ele>1972</ele>
        <time>2024-08-12T09:53:32Z</time>
      </trkpt>
      <trkpt lat="44.76343" lon="6.33638">
        <ele>1972</ele>
        <time>2024-08-12T09:53:33Z</time>
      </trkpt>
      <trkpt lat="44.76343" lon="6.33638">
        <ele>1972</ele>
        <time>2024-08-12T09:53:34Z</time>
      </trkpt>
      <trkpt lat="44.76344" lon="6.33635">
        <ele>1972</ele>
        <time>2024-08-12T09:53:35Z</time>
      </trkpt>
      <trkpt lat="44.76344" lon="6.33635">
        <ele>1972.2</ele>
        <time>2024-08-12T09:53:36Z</time>
      </trkpt>
      <trkpt lat="44.76346" lon="6.33632">
        <ele>1972</ele>
        <time>2024-08-12T09:53:37Z</time>
      </trkpt>
      <trkpt lat="44.76346" lon="6.33632">
        <ele>1972</ele>
        <time>2024-08-12T09:53:38Z</time>
      </trkpt>
      <trkpt lat="44.76347" lon="6.33629">
        <ele>1971.6</ele>
        <time>2024-08-12T09:53:39Z</time>
      </trkpt>
      <trkpt lat="44.76347" lon="6.33629">
        <ele>1971.6</ele>
        <time>2024-08-12T09:53:40Z</time>
      </trkpt>
      <trkpt lat="44.76348" lon="6.33626">
        <ele>1971.6</ele>
        <time>2024-08-12T09:53:41Z</time>
      </trkpt>
      <trkpt lat="44.76348" lon="6.33626">
        <ele>1971.6</ele>
        <time>2024-08-12T09:53:42Z</time>
      </trkpt>
      <trkpt lat="44.7635" lon="6.33623">
        <ele>1971.8</ele>
        <time>2024-08-12T09:53:43Z</time>
      </trkpt>
      <trkpt lat="44.7635" lon="6.33623">
        <ele>1972</ele>
        <time>2024-08-12T09:53:44Z</time>
      </trkpt>
      <trkpt lat="44.76352" lon="6.33621">
        <ele>1972.2</ele>
        <time>2024-08-12T09:53:45Z</time>
      </trkpt>
      <trkpt lat="44.76352" lon="6.33621">
        <ele>1972.2</ele>
        <time>2024-08-12T09:53:46Z</time>
      </trkpt>
      <trkpt lat="44.76354" lon="6.33619">
        <ele>1972.2</ele>
        <time>2024-08-12T09:53:47Z</time>
      </trkpt>
      <trkpt lat="44.76354" lon="6.33619">
        <ele>1971.6</ele>
        <time>2024-08-12T09:53:48Z</time>
      </trkpt>
      <trkpt lat="44.76357" lon="6.33617">
        <ele>1971.4</ele>
        <time>2024-08-12T09:53:49Z</time>
      </trkpt>
      <trkpt lat="44.76357" lon="6.33617">
        <ele>1971.2</ele>
        <time>2024-08-12T09:53:50Z</time>
      </trkpt>
      <trkpt lat="44.76359" lon="6.33616">
        <ele>1971.2</ele>
        <time>2024-08-12T09:53:51Z</time>
      </trkpt>
      <trkpt lat="44.76359" lon="6.33616">
        <ele>1971.2</ele>
        <time>2024-08-12T09:53:52Z</time>
      </trkpt>
      <trkpt lat="44.76362" lon="6.33615">
        <ele>1971</ele>
        <time>2024-08-12T09:53:53Z</time>
      </trkpt>
      <trkpt lat="44.76362" lon="6.33615">
        <ele>1971</ele>
        <time>2024-08-12T09:53:54Z</time>
      </trkpt>
      <trkpt lat="44.76365" lon="6.33614">
        <ele>1971</ele>
        <time>2024-08-12T09:53:55Z</time>
      </trkpt>
      <trkpt lat="44.76365" lon="6.33614">
        <ele>1970.8</ele>
        <time>2024-08-12T09:53:56Z</time>
      </trkpt>
      <trkpt lat="44.76366" lon="6.33613">
        <ele>1970.8</ele>
        <time>2024-08-12T09:53:57Z</time>
      </trkpt>
      <trkpt lat="44.76366" lon="6.33613">
        <ele>1970.8</ele>
        <time>2024-08-12T09:53:58Z</time>
      </trkpt>
      <trkpt lat="44.76369" lon="6.33611">
        <ele>1970.8</ele>
        <time>2024-08-12T09:53:59Z</time>
      </trkpt>
      <trkpt lat="44.76369" lon="6.33611">
        <ele>1970.8</ele>
        <time>2024-08-12T09:54:00Z</time>
      </trkpt>
      <trkpt lat="44.76371" lon="6.3361">
        <ele>1970.6</ele>
        <time>2024-08-12T09:54:01Z</time>
      </trkpt>
      <trkpt lat="44.76371" lon="6.3361">
        <ele>1970.4</ele>
        <time>2024-08-12T09:54:02Z</time>
      </trkpt>
      <trkpt lat="44.76373" lon="6.3361">
        <ele>1970.4</ele>
        <time>2024-08-12T09:54:03Z</time>
      </trkpt>
      <trkpt lat="44.76373" lon="6.3361">
        <ele>1970.4</ele>
        <time>2024-08-12T09:54:04Z</time>
      </trkpt>
      <trkpt lat="44.76375" lon="6.33608">
        <ele>1970.4</ele>
        <time>2024-08-12T09:54:05Z</time>
      </trkpt>
      <trkpt lat="44.76375" lon="6.33608">
        <ele>1970.4</ele>
        <time>2024-08-12T09:54:06Z</time>
      </trkpt>
      <trkpt lat="44.76377" lon="6.33605">
        <ele>1970</ele>
        <time>2024-08-12T09:54:07Z</time>
      </trkpt>
      <trkpt lat="44.76377" lon="6.33605">
        <ele>1970</ele>
        <time>2024-08-12T09:54:08Z</time>
      </trkpt>
      <trkpt lat="44.76379" lon="6.33603">
        <ele>1969.8</ele>
        <time>2024-08-12T09:54:09Z</time>
      </trkpt>
      <trkpt lat="44.76379" lon="6.33603">
        <ele>1969.6</ele>
        <time>2024-08-12T09:54:10Z</time>
      </trkpt>
      <trkpt lat="44.76381" lon="6.33601">
        <ele>1969.4</ele>
        <time>2024-08-12T09:54:11Z</time>
      </trkpt>
      <trkpt lat="44.76381" lon="6.33601">
        <ele>1969.4</ele>
        <time>2024-08-12T09:54:12Z</time>
      </trkpt>
      <trkpt lat="44.76381" lon="6.33601">
        <ele>1969.4</ele>
        <time>2024-08-12T09:54:13Z</time>
      </trkpt>
      <trkpt lat="44.76382" lon="6.33598">
        <ele>1969.4</ele>
        <time>2024-08-12T09:54:14Z</time>
      </trkpt>
      <trkpt lat="44.76382" lon="6.33598">
        <ele>1969.2</ele>
        <time>2024-08-12T09:54:15Z</time>
      </trkpt>
      <trkpt lat="44.76383" lon="6.33595">
        <ele>1969</ele>
        <time>2024-08-12T09:54:16Z</time>
      </trkpt>
      <trkpt lat="44.76383" lon="6.33595">
        <ele>1968.8</ele>
        <time>2024-08-12T09:54:17Z</time>
      </trkpt>
      <trkpt lat="44.76383" lon="6.33595">
        <ele>1968.4</ele>
        <time>2024-08-12T09:54:18Z</time>
      </trkpt>
      <trkpt lat="44.76386" lon="6.33593">
        <ele>1968.2</ele>
        <time>2024-08-12T09:54:19Z</time>
      </trkpt>
      <trkpt lat="44.76386" lon="6.33593">
        <ele>1968.2</ele>
        <time>2024-08-12T09:54:20Z</time>
      </trkpt>
      <trkpt lat="44.76386" lon="6.33593">
        <ele>1968</ele>
        <time>2024-08-12T09:54:21Z</time>
      </trkpt>
      <trkpt lat="44.76388" lon="6.3359">
        <ele>1968</ele>
        <time>2024-08-12T09:54:22Z</time>
      </trkpt>
      <trkpt lat="44.76388" lon="6.3359">
        <ele>1967.6</ele>
        <time>2024-08-12T09:54:23Z</time>
      </trkpt>
      <trkpt lat="44.76388" lon="6.3359">
        <ele>1967.4</ele>
        <time>2024-08-12T09:54:24Z</time>
      </trkpt>
      <trkpt lat="44.76389" lon="6.33589">
        <ele>1967</ele>
        <time>2024-08-12T09:54:25Z</time>
      </trkpt>
      <trkpt lat="44.76389" lon="6.33589">
        <ele>1966.8</ele>
        <time>2024-08-12T09:54:26Z</time>
      </trkpt>
      <trkpt lat="44.76391" lon="6.33588">
        <ele>1966.8</ele>
        <time>2024-08-12T09:54:27Z</time>
      </trkpt>
      <trkpt lat="44.76391" lon="6.33588">
        <ele>1966.8</ele>
        <time>2024-08-12T09:54:28Z</time>
      </trkpt>
      <trkpt lat="44.76391" lon="6.33588">
        <ele>1966.6</ele>
        <time>2024-08-12T09:54:29Z</time>
      </trkpt>
      <trkpt lat="44.76393" lon="6.33587">
        <ele>1966.2</ele>
        <time>2024-08-12T09:54:30Z</time>
      </trkpt>
      <trkpt lat="44.76393" lon="6.33587">
        <ele>1966</ele>
        <time>2024-08-12T09:54:31Z</time>
      </trkpt>
      <trkpt lat="44.76393" lon="6.33587">
        <ele>1966</ele>
        <time>2024-08-12T09:54:32Z</time>
      </trkpt>
      <trkpt lat="44.76396" lon="6.33586">
        <ele>1966</ele>
        <time>2024-08-12T09:54:33Z</time>
      </trkpt>
      <trkpt lat="44.76396" lon="6.33586">
        <ele>1966</ele>
        <time>2024-08-12T09:54:34Z</time>
      </trkpt>
      <trkpt lat="44.76396" lon="6.33586">
        <ele>1965.8</ele>
        <time>2024-08-12T09:54:35Z</time>
      </trkpt>
      <trkpt lat="44.76397" lon="6.33584">
        <ele>1965.6</ele>
        <time>2024-08-12T09:54:36Z</time>
      </trkpt>
      <trkpt lat="44.76397" lon="6.33584">
        <ele>1965.4</ele>
        <time>2024-08-12T09:54:37Z</time>
      </trkpt>
      <trkpt lat="44.76397" lon="6.33584">
        <ele>1965.4</ele>
        <time>2024-08-12T09:54:38Z</time>
      </trkpt>
      <trkpt lat="44.76399" lon="6.33582">
        <ele>1965.2</ele>
        <time>2024-08-12T09:54:39Z</time>
      </trkpt>
      <trkpt lat="44.76399" lon="6.33582">
        <ele>1964.8</ele>
        <time>2024-08-12T09:54:40Z</time>
      </trkpt>
      <trkpt lat="44.76399" lon="6.33582">
        <ele>1964.8</ele>
        <time>2024-08-12T09:54:41Z</time>
      </trkpt>
      <trkpt lat="44.764" lon="6.33579">
        <ele>1964.6</ele>
        <time>2024-08-12T09:54:42Z</time>
      </trkpt>
      <trkpt lat="44.764" lon="6.33579">
        <ele>1964.6</ele>
        <time>2024-08-12T09:54:43Z</time>
      </trkpt>
      <trkpt lat="44.764" lon="6.33579">
        <ele>1964.6</ele>
        <time>2024-08-12T09:54:44Z</time>
      </trkpt>
      <trkpt lat="44.76401" lon="6.33576">
        <ele>1964.4</ele>
        <time>2024-08-12T09:54:45Z</time>
      </trkpt>
      <trkpt lat="44.76401" lon="6.33576">
        <ele>1964</ele>
        <time>2024-08-12T09:54:46Z</time>
      </trkpt>
      <trkpt lat="44.76401" lon="6.33576">
        <ele>1963.8</ele>
        <time>2024-08-12T09:54:47Z</time>
      </trkpt>
      <trkpt lat="44.764" lon="6.33572">
        <ele>1963.8</ele>
        <time>2024-08-12T09:54:48Z</time>
      </trkpt>
      <trkpt lat="44.764" lon="6.33572">
        <ele>1963.6</ele>
        <time>2024-08-12T09:54:49Z</time>
      </trkpt>
      <trkpt lat="44.76399" lon="6.3357">
        <ele>1963.4</ele>
        <time>2024-08-12T09:54:50Z</time>
      </trkpt>
      <trkpt lat="44.76399" lon="6.3357">
        <ele>1963</ele>
        <time>2024-08-12T09:54:51Z</time>
      </trkpt>
      <trkpt lat="44.76398" lon="6.33567">
        <ele>1963</ele>
        <time>2024-08-12T09:54:52Z</time>
      </trkpt>
      <trkpt lat="44.76398" lon="6.33567">
        <ele>1962.8</ele>
        <time>2024-08-12T09:54:53Z</time>
      </trkpt>
      <trkpt lat="44.76397" lon="6.33565">
        <ele>1962.8</ele>
        <time>2024-08-12T09:54:54Z</time>
      </trkpt>
      <trkpt lat="44.76397" lon="6.33565">
        <ele>1962.4</ele>
        <time>2024-08-12T09:54:55Z</time>
      </trkpt>
      <trkpt lat="44.76397" lon="6.33565">
        <ele>1962.4</ele>
        <time>2024-08-12T09:54:56Z</time>
      </trkpt>
      <trkpt lat="44.76397" lon="6.33565">
        <ele>1962.4</ele>
        <time>2024-08-12T09:54:57Z</time>
      </trkpt>
      <trkpt lat="44.76399" lon="6.33562">
        <ele>1962.2</ele>
        <time>2024-08-12T09:54:58Z</time>
      </trkpt>
      <trkpt lat="44.76399" lon="6.33562">
        <ele>1962</ele>
        <time>2024-08-12T09:54:59Z</time>
      </trkpt>
      <trkpt lat="44.76399" lon="6.33562">
        <ele>1961.8</ele>
        <time>2024-08-12T09:55:00Z</time>
      </trkpt>
      <trkpt lat="44.76399" lon="6.33562">
        <ele>1961.4</ele>
        <time>2024-08-12T09:55:01Z</time>
      </trkpt>
      <trkpt lat="44.76399" lon="6.33562">
        <ele>1961.4</ele>
        <time>2024-08-12T09:55:02Z</time>
      </trkpt>
      <trkpt lat="44.76399" lon="6.33562">
        <ele>1961.4</ele>
        <time>2024-08-12T09:55:03Z</time>
      </trkpt>
      <trkpt lat="44.76399" lon="6.33562">
        <ele>1961.4</ele>
        <time>2024-08-12T09:55:04Z</time>
      </trkpt>
      <trkpt lat="44.76399" lon="6.33562">
        <ele>1961.2</ele>
        <time>2024-08-12T09:55:05Z</time>
      </trkpt>
      <trkpt lat="44.76401" lon="6.3356">
        <ele>1961.2</ele>
        <time>2024-08-12T09:55:06Z</time>
      </trkpt>
      <trkpt lat="44.76401" lon="6.3356">
        <ele>1961.2</ele>
        <time>2024-08-12T09:55:07Z</time>
      </trkpt>
      <trkpt lat="44.76401" lon="6.3356">
        <ele>1961</ele>
        <time>2024-08-12T09:55:08Z</time>
      </trkpt>
      <trkpt lat="44.76401" lon="6.3356">
        <ele>1960.6</ele>
        <time>2024-08-12T09:55:09Z</time>
      </trkpt>
      <trkpt lat="44.76404" lon="6.3356">
        <ele>1960.2</ele>
        <time>2024-08-12T09:55:10Z</time>
      </trkpt>
      <trkpt lat="44.76404" lon="6.3356">
        <ele>1960</ele>
        <time>2024-08-12T09:55:11Z</time>
      </trkpt>
      <trkpt lat="44.76405" lon="6.33559">
        <ele>1960</ele>
        <time>2024-08-12T09:55:12Z</time>
      </trkpt>
      <trkpt lat="44.76405" lon="6.33559">
        <ele>1959.8</ele>
        <time>2024-08-12T09:55:13Z</time>
      </trkpt>
      <trkpt lat="44.76407" lon="6.33556">
        <ele>1959.6</ele>
        <time>2024-08-12T09:55:14Z</time>
      </trkpt>
      <trkpt lat="44.76407" lon="6.33556">
        <ele>1959.2</ele>
        <time>2024-08-12T09:55:15Z</time>
      </trkpt>
      <trkpt lat="44.76408" lon="6.33553">
        <ele>1959</ele>
        <time>2024-08-12T09:55:16Z</time>
      </trkpt>
      <trkpt lat="44.76408" lon="6.33553">
        <ele>1959</ele>
        <time>2024-08-12T09:55:17Z</time>
      </trkpt>
      <trkpt lat="44.76408" lon="6.33549">
        <ele>1958.8</ele>
        <time>2024-08-12T09:55:18Z</time>
      </trkpt>
      <trkpt lat="44.76408" lon="6.33549">
        <ele>1958.8</ele>
        <time>2024-08-12T09:55:19Z</time>
      </trkpt>
      <trkpt lat="44.76407" lon="6.33546">
        <ele>1958.6</ele>
        <time>2024-08-12T09:55:20Z</time>
      </trkpt>
      <trkpt lat="44.76407" lon="6.33546">
        <ele>1958.4</ele>
        <time>2024-08-12T09:55:21Z</time>
      </trkpt>
      <trkpt lat="44.76406" lon="6.33542">
        <ele>1958.4</ele>
        <time>2024-08-12T09:55:22Z</time>
      </trkpt>
      <trkpt lat="44.76406" lon="6.33542">
        <ele>1958.4</ele>
        <time>2024-08-12T09:55:23Z</time>
      </trkpt>
      <trkpt lat="44.76405" lon="6.33538">
        <ele>1958.2</ele>
        <time>2024-08-12T09:55:24Z</time>
      </trkpt>
      <trkpt lat="44.76405" lon="6.33538">
        <ele>1958</ele>
        <time>2024-08-12T09:55:25Z</time>
      </trkpt>
      <trkpt lat="44.76405" lon="6.33534">
        <ele>1958</ele>
        <time>2024-08-12T09:55:26Z</time>
      </trkpt>
      <trkpt lat="44.76405" lon="6.33534">
        <ele>1958</ele>
        <time>2024-08-12T09:55:27Z</time>
      </trkpt>
      <trkpt lat="44.76405" lon="6.33531">
        <ele>1958</ele>
        <time>2024-08-12T09:55:28Z</time>
      </trkpt>
      <trkpt lat="44.76405" lon="6.33531">
        <ele>1957.6</ele>
        <time>2024-08-12T09:55:29Z</time>
      </trkpt>
      <trkpt lat="44.76404" lon="6.33527">
        <ele>1957.4</ele>
        <time>2024-08-12T09:55:30Z</time>
      </trkpt>
      <trkpt lat="44.76404" lon="6.33527">
        <ele>1957.4</ele>
        <time>2024-08-12T09:55:31Z</time>
      </trkpt>
      <trkpt lat="44.76403" lon="6.33524">
        <ele>1957.6</ele>
        <time>2024-08-12T09:55:32Z</time>
      </trkpt>
      <trkpt lat="44.76403" lon="6.33524">
        <ele>1957.4</ele>
        <time>2024-08-12T09:55:33Z</time>
      </trkpt>
      <trkpt lat="44.76402" lon="6.33521">
        <ele>1957</ele>
        <time>2024-08-12T09:55:34Z</time>
      </trkpt>
      <trkpt lat="44.76402" lon="6.33521">
        <ele>1957</ele>
        <time>2024-08-12T09:55:35Z</time>
      </trkpt>
      <trkpt lat="44.76402" lon="6.33521">
        <ele>1957</ele>
        <time>2024-08-12T09:55:36Z</time>
      </trkpt>
      <trkpt lat="44.76404" lon="6.33519">
        <ele>1956.8</ele>
        <time>2024-08-12T09:55:37Z</time>
      </trkpt>
      <trkpt lat="44.76404" lon="6.33519">
        <ele>1956.6</ele>
        <time>2024-08-12T09:55:38Z</time>
      </trkpt>
      <trkpt lat="44.76404" lon="6.33519">
        <ele>1956.4</ele>
        <time>2024-08-12T09:55:39Z</time>
      </trkpt>
      <trkpt lat="44.76404" lon="6.33516">
        <ele>1956</ele>
        <time>2024-08-12T09:55:40Z</time>
      </trkpt>
      <trkpt lat="44.76404" lon="6.33516">
        <ele>1955.8</ele>
        <time>2024-08-12T09:55:41Z</time>
      </trkpt>
      <trkpt lat="44.76404" lon="6.33516">
        <ele>1955.8</ele>
        <time>2024-08-12T09:55:42Z</time>
      </trkpt>
      <trkpt lat="44.76404" lon="6.33512">
        <ele>1955.8</ele>
        <time>2024-08-12T09:55:43Z</time>
      </trkpt>
      <trkpt lat="44.76404" lon="6.33512">
        <ele>1955.6</ele>
        <time>2024-08-12T09:55:44Z</time>
      </trkpt>
      <trkpt lat="44.76404" lon="6.33512">
        <ele>1955.6</ele>
        <time>2024-08-12T09:55:45Z</time>
      </trkpt>
      <trkpt lat="44.76404" lon="6.33509">
        <ele>1955.2</ele>
        <time>2024-08-12T09:55:46Z</time>
      </trkpt>
      <trkpt lat="44.76404" lon="6.33509">
        <ele>1955</ele>
        <time>2024-08-12T09:55:47Z</time>
      </trkpt>
      <trkpt lat="44.76404" lon="6.33506">
        <ele>1954.8</ele>
        <time>2024-08-12T09:55:48Z</time>
      </trkpt>
      <trkpt lat="44.76404" lon="6.33506">
        <ele>1954.6</ele>
        <time>2024-08-12T09:55:49Z</time>
      </trkpt>
      <trkpt lat="44.76405" lon="6.33503">
        <ele>1954.6</ele>
        <time>2024-08-12T09:55:50Z</time>
      </trkpt>
      <trkpt lat="44.76405" lon="6.33503">
        <ele>1954.4</ele>
        <time>2024-08-12T09:55:51Z</time>
      </trkpt>
      <trkpt lat="44.76405" lon="6.33501">
        <ele>1954.4</ele>
        <time>2024-08-12T09:55:52Z</time>
      </trkpt>
      <trkpt lat="44.76405" lon="6.33501">
        <ele>1954.2</ele>
        <time>2024-08-12T09:55:53Z</time>
      </trkpt>
      <trkpt lat="44.76405" lon="6.33501">
        <ele>1954.2</ele>
        <time>2024-08-12T09:55:54Z</time>
      </trkpt>
      <trkpt lat="44.76405" lon="6.33498">
        <ele>1954</ele>
        <time>2024-08-12T09:55:55Z</time>
      </trkpt>
      <trkpt lat="44.76405" lon="6.33498">
        <ele>1953.8</ele>
        <time>2024-08-12T09:55:56Z</time>
      </trkpt>
      <trkpt lat="44.76407" lon="6.33495">
        <ele>1953.4</ele>
        <time>2024-08-12T09:55:57Z</time>
      </trkpt>
      <trkpt lat="44.76407" lon="6.33495">
        <ele>1953.2</ele>
        <time>2024-08-12T09:55:58Z</time>
      </trkpt>
      <trkpt lat="44.76408" lon="6.33493">
        <ele>1953</ele>
        <time>2024-08-12T09:55:59Z</time>
      </trkpt>
      <trkpt lat="44.76408" lon="6.33493">
        <ele>1952.8</ele>
        <time>2024-08-12T09:56:00Z</time>
      </trkpt>
      <trkpt lat="44.76409" lon="6.33491">
        <ele>1952.4</ele>
        <time>2024-08-12T09:56:01Z</time>
      </trkpt>
      <trkpt lat="44.76409" lon="6.33491">
        <ele>1952</ele>
        <time>2024-08-12T09:56:02Z</time>
      </trkpt>
      <trkpt lat="44.76409" lon="6.33491">
        <ele>1952</ele>
        <time>2024-08-12T09:56:03Z</time>
      </trkpt>
      <trkpt lat="44.76411" lon="6.33488">
        <ele>1951.6</ele>
        <time>2024-08-12T09:56:04Z</time>
      </trkpt>
      <trkpt lat="44.76411" lon="6.33488">
        <ele>1951.2</ele>
        <time>2024-08-12T09:56:05Z</time>
      </trkpt>
      <trkpt lat="44.76412" lon="6.33486">
        <ele>1951</ele>
        <time>2024-08-12T09:56:06Z</time>
      </trkpt>
      <trkpt lat="44.76412" lon="6.33486">
        <ele>1950.6</ele>
        <time>2024-08-12T09:56:07Z</time>
      </trkpt>
      <trkpt lat="44.76412" lon="6.33486">
        <ele>1950.2</ele>
        <time>2024-08-12T09:56:08Z</time>
      </trkpt>
      <trkpt lat="44.76413" lon="6.33483">
        <ele>1950</ele>
        <time>2024-08-12T09:56:09Z</time>
      </trkpt>
      <trkpt lat="44.76413" lon="6.33483">
        <ele>1949.8</ele>
        <time>2024-08-12T09:56:10Z</time>
      </trkpt>
      <trkpt lat="44.76413" lon="6.33483">
        <ele>1949.6</ele>
        <time>2024-08-12T09:56:11Z</time>
      </trkpt>
      <trkpt lat="44.76414" lon="6.33479">
        <ele>1949.4</ele>
        <time>2024-08-12T09:56:12Z</time>
      </trkpt>
      <trkpt lat="44.76414" lon="6.33479">
        <ele>1949</ele>
        <time>2024-08-12T09:56:13Z</time>
      </trkpt>
      <trkpt lat="44.76415" lon="6.33477">
        <ele>1948.8</ele>
        <time>2024-08-12T09:56:14Z</time>
      </trkpt>
      <trkpt lat="44.76415" lon="6.33477">
        <ele>1948.6</ele>
        <time>2024-08-12T09:56:15Z</time>
      </trkpt>
      <trkpt lat="44.76416" lon="6.33474">
        <ele>1948.4</ele>
        <time>2024-08-12T09:56:16Z</time>
      </trkpt>
      <trkpt lat="44.76416" lon="6.33474">
        <ele>1948.4</ele>
        <time>2024-08-12T09:56:17Z</time>
      </trkpt>
      <trkpt lat="44.76417" lon="6.33472">
        <ele>1948</ele>
        <time>2024-08-12T09:56:18Z</time>
      </trkpt>
      <trkpt lat="44.76417" lon="6.33472">
        <ele>1947.8</ele>
        <time>2024-08-12T09:56:19Z</time>
      </trkpt>
      <trkpt lat="44.76418" lon="6.33469">
        <ele>1947.8</ele>
        <time>2024-08-12T09:56:20Z</time>
      </trkpt>
      <trkpt lat="44.76418" lon="6.33469">
        <ele>1947.8</ele>
        <time>2024-08-12T09:56:21Z</time>
      </trkpt>
      <trkpt lat="44.76418" lon="6.33466">
        <ele>1947.8</ele>
        <time>2024-08-12T09:56:22Z</time>
      </trkpt>
      <trkpt lat="44.76418" lon="6.33466">
        <ele>1947.6</ele>
        <time>2024-08-12T09:56:23Z</time>
      </trkpt>
      <trkpt lat="44.76418" lon="6.33466">
        <ele>1947.6</ele>
        <time>2024-08-12T09:56:24Z</time>
      </trkpt>
      <trkpt lat="44.76419" lon="6.33463">
        <ele>1947.4</ele>
        <time>2024-08-12T09:56:25Z</time>
      </trkpt>
      <trkpt lat="44.76419" lon="6.33463">
        <ele>1947.2</ele>
        <time>2024-08-12T09:56:26Z</time>
      </trkpt>
      <trkpt lat="44.76419" lon="6.33463">
        <ele>1947.2</ele>
        <time>2024-08-12T09:56:27Z</time>
      </trkpt>
      <trkpt lat="44.76421" lon="6.3346">
        <ele>1947.2</ele>
        <time>2024-08-12T09:56:28Z</time>
      </trkpt>
      <trkpt lat="44.76421" lon="6.3346">
        <ele>1946.8</ele>
        <time>2024-08-12T09:56:29Z</time>
      </trkpt>
      <trkpt lat="44.76421" lon="6.3346">
        <ele>1946.4</ele>
        <time>2024-08-12T09:56:30Z</time>
      </trkpt>
      <trkpt lat="44.76422" lon="6.33457">
        <ele>1946.2</ele>
        <time>2024-08-12T09:56:31Z</time>
      </trkpt>
      <trkpt lat="44.76422" lon="6.33457">
        <ele>1946.2</ele>
        <time>2024-08-12T09:56:32Z</time>
      </trkpt>
      <trkpt lat="44.76422" lon="6.33457">
        <ele>1946</ele>
        <time>2024-08-12T09:56:33Z</time>
      </trkpt>
      <trkpt lat="44.76422" lon="6.33457">
        <ele>1945.8</ele>
        <time>2024-08-12T09:56:34Z</time>
      </trkpt>
      <trkpt lat="44.76424" lon="6.33455">
        <ele>1945.6</ele>
        <time>2024-08-12T09:56:35Z</time>
      </trkpt>
      <trkpt lat="44.76424" lon="6.33455">
        <ele>1945.4</ele>
        <time>2024-08-12T09:56:36Z</time>
      </trkpt>
      <trkpt lat="44.76424" lon="6.33455">
        <ele>1945</ele>
        <time>2024-08-12T09:56:37Z</time>
      </trkpt>
      <trkpt lat="44.76426" lon="6.33453">
        <ele>1944.8</ele>
        <time>2024-08-12T09:56:38Z</time>
      </trkpt>
      <trkpt lat="44.76426" lon="6.33453">
        <ele>1944.6</ele>
        <time>2024-08-12T09:56:39Z</time>
      </trkpt>
      <trkpt lat="44.76426" lon="6.3345">
        <ele>1944.6</ele>
        <time>2024-08-12T09:56:40Z</time>
      </trkpt>
      <trkpt lat="44.76426" lon="6.3345">
        <ele>1944.2</ele>
        <time>2024-08-12T09:56:41Z</time>
      </trkpt>
      <trkpt lat="44.76426" lon="6.3345">
        <ele>1944</ele>
        <time>2024-08-12T09:56:42Z</time>
      </trkpt>
      <trkpt lat="44.76428" lon="6.33447">
        <ele>1944</ele>
        <time>2024-08-12T09:56:43Z</time>
      </trkpt>
      <trkpt lat="44.76428" lon="6.33447">
        <ele>1943.8</ele>
        <time>2024-08-12T09:56:44Z</time>
      </trkpt>
      <trkpt lat="44.76428" lon="6.33447">
        <ele>1943.6</ele>
        <time>2024-08-12T09:56:45Z</time>
      </trkpt>
      <trkpt lat="44.76429" lon="6.33445">
        <ele>1943.4</ele>
        <time>2024-08-12T09:56:46Z</time>
      </trkpt>
      <trkpt lat="44.76429" lon="6.33445">
        <ele>1943.2</ele>
        <time>2024-08-12T09:56:47Z</time>
      </trkpt>
      <trkpt lat="44.7643" lon="6.33443">
        <ele>1943.2</ele>
        <time>2024-08-12T09:56:48Z</time>
      </trkpt>
      <trkpt lat="44.7643" lon="6.33443">
        <ele>1942.8</ele>
        <time>2024-08-12T09:56:49Z</time>
      </trkpt>
      <trkpt lat="44.7643" lon="6.33443">
        <ele>1942.6</ele>
        <time>2024-08-12T09:56:50Z</time>
      </trkpt>
      <trkpt lat="44.76431" lon="6.3344">
        <ele>1942.4</ele>
        <time>2024-08-12T09:56:51Z</time>
      </trkpt>
      <trkpt lat="44.76431" lon="6.3344">
        <ele>1942</ele>
        <time>2024-08-12T09:56:52Z</time>
      </trkpt>
      <trkpt lat="44.76431" lon="6.3344">
        <ele>1941.8</ele>
        <time>2024-08-12T09:56:53Z</time>
      </trkpt>
      <trkpt lat="44.76431" lon="6.3344">
        <ele>1941.6</ele>
        <time>2024-08-12T09:56:54Z</time>
      </trkpt>
      <trkpt lat="44.76431" lon="6.33436">
        <ele>1941.6</ele>
        <time>2024-08-12T09:56:55Z</time>
      </trkpt>
      <trkpt lat="44.76431" lon="6.33436">
        <ele>1941.6</ele>
        <time>2024-08-12T09:56:56Z</time>
      </trkpt>
      <trkpt lat="44.76431" lon="6.33434">
        <ele>1941.6</ele>
        <time>2024-08-12T09:56:57Z</time>
      </trkpt>
      <trkpt lat="44.76431" lon="6.33434">
        <ele>1941.4</ele>
        <time>2024-08-12T09:56:58Z</time>
      </trkpt>
      <trkpt lat="44.76431" lon="6.3343">
        <ele>1941</ele>
        <time>2024-08-12T09:56:59Z</time>
      </trkpt>
      <trkpt lat="44.76431" lon="6.3343">
        <ele>1940.8</ele>
        <time>2024-08-12T09:57:00Z</time>
      </trkpt>
      <trkpt lat="44.76431" lon="6.33428">
        <ele>1940.6</ele>
        <time>2024-08-12T09:57:01Z</time>
      </trkpt>
      <trkpt lat="44.76431" lon="6.33428">
        <ele>1940.2</ele>
        <time>2024-08-12T09:57:02Z</time>
      </trkpt>
      <trkpt lat="44.76431" lon="6.33428">
        <ele>1940.2</ele>
        <time>2024-08-12T09:57:03Z</time>
      </trkpt>
      <trkpt lat="44.76433" lon="6.33427">
        <ele>1940</ele>
        <time>2024-08-12T09:57:04Z</time>
      </trkpt>
      <trkpt lat="44.76433" lon="6.33427">
        <ele>1939.8</ele>
        <time>2024-08-12T09:57:05Z</time>
      </trkpt>
      <trkpt lat="44.76433" lon="6.33427">
        <ele>1939.4</ele>
        <time>2024-08-12T09:57:06Z</time>
      </trkpt>
      <trkpt lat="44.76433" lon="6.33427">
        <ele>1939.2</ele>
        <time>2024-08-12T09:57:07Z</time>
      </trkpt>
      <trkpt lat="44.76436" lon="6.33428">
        <ele>1938.8</ele>
        <time>2024-08-12T09:57:08Z</time>
      </trkpt>
      <trkpt lat="44.76436" lon="6.33428">
        <ele>1938.8</ele>
        <time>2024-08-12T09:57:09Z</time>
      </trkpt>
      <trkpt lat="44.76436" lon="6.33428">
        <ele>1938.6</ele>
        <time>2024-08-12T09:57:10Z</time>
      </trkpt>
      <trkpt lat="44.76438" lon="6.33429">
        <ele>1938.4</ele>
        <time>2024-08-12T09:57:11Z</time>
      </trkpt>
      <trkpt lat="44.76438" lon="6.33429">
        <ele>1937.8</ele>
        <time>2024-08-12T09:57:12Z</time>
      </trkpt>
      <trkpt lat="44.7644" lon="6.33429">
        <ele>1937.8</ele>
        <time>2024-08-12T09:57:13Z</time>
      </trkpt>
      <trkpt lat="44.7644" lon="6.33429">
        <ele>1937.6</ele>
        <time>2024-08-12T09:57:14Z</time>
      </trkpt>
      <trkpt lat="44.76442" lon="6.3343">
        <ele>1937.2</ele>
        <time>2024-08-12T09:57:15Z</time>
      </trkpt>
      <trkpt lat="44.76442" lon="6.3343">
        <ele>1937</ele>
        <time>2024-08-12T09:57:16Z</time>
      </trkpt>
      <trkpt lat="44.76444" lon="6.33431">
        <ele>1937</ele>
        <time>2024-08-12T09:57:17Z</time>
      </trkpt>
      <trkpt lat="44.76444" lon="6.33431">
        <ele>1936.6</ele>
        <time>2024-08-12T09:57:18Z</time>
      </trkpt>
      <trkpt lat="44.76446" lon="6.33431">
        <ele>1936.6</ele>
        <time>2024-08-12T09:57:19Z</time>
      </trkpt>
      <trkpt lat="44.76446" lon="6.33431">
        <ele>1936.4</ele>
        <time>2024-08-12T09:57:20Z</time>
      </trkpt>
      <trkpt lat="44.76448" lon="6.33433">
        <ele>1936.2</ele>
        <time>2024-08-12T09:57:21Z</time>
      </trkpt>
      <trkpt lat="44.76448" lon="6.33433">
        <ele>1936</ele>
        <time>2024-08-12T09:57:22Z</time>
      </trkpt>
      <trkpt lat="44.7645" lon="6.33435">
        <ele>1935.8</ele>
        <time>2024-08-12T09:57:23Z</time>
      </trkpt>
      <trkpt lat="44.7645" lon="6.33435">
        <ele>1935.4</ele>
        <time>2024-08-12T09:57:24Z</time>
      </trkpt>
      <trkpt lat="44.7645" lon="6.33435">
        <ele>1935.4</ele>
        <time>2024-08-12T09:57:25Z</time>
      </trkpt>
      <trkpt lat="44.76452" lon="6.33436">
        <ele>1935.2</ele>
        <time>2024-08-12T09:57:26Z</time>
      </trkpt>
      <trkpt lat="44.76452" lon="6.33436">
        <ele>1934.8</ele>
        <time>2024-08-12T09:57:27Z</time>
      </trkpt>
      <trkpt lat="44.76452" lon="6.33436">
        <ele>1934.6</ele>
        <time>2024-08-12T09:57:28Z</time>
      </trkpt>
      <trkpt lat="44.76452" lon="6.33433">
        <ele>1934.4</ele>
        <time>2024-08-12T09:57:29Z</time>
      </trkpt>
      <trkpt lat="44.76452" lon="6.33433">
        <ele>1934</ele>
        <time>2024-08-12T09:57:30Z</time>
      </trkpt>
      <trkpt lat="44.76452" lon="6.33433">
        <ele>1933.8</ele>
        <time>2024-08-12T09:57:31Z</time>
      </trkpt>
      <trkpt lat="44.7645" lon="6.33429">
        <ele>1933.6</ele>
        <time>2024-08-12T09:57:32Z</time>
      </trkpt>
      <trkpt lat="44.7645" lon="6.33429">
        <ele>1933.6</ele>
        <time>2024-08-12T09:57:33Z</time>
      </trkpt>
      <trkpt lat="44.76449" lon="6.33427">
        <ele>1933</ele>
        <time>2024-08-12T09:57:34Z</time>
      </trkpt>
      <trkpt lat="44.76449" lon="6.33427">
        <ele>1932.8</ele>
        <time>2024-08-12T09:57:35Z</time>
      </trkpt>
      <trkpt lat="44.76447" lon="6.33424">
        <ele>1932.6</ele>
        <time>2024-08-12T09:57:36Z</time>
      </trkpt>
      <trkpt lat="44.76447" lon="6.33424">
        <ele>1932.4</ele>
        <time>2024-08-12T09:57:37Z</time>
      </trkpt>
      <trkpt lat="44.76445" lon="6.33422">
        <ele>1932.2</ele>
        <time>2024-08-12T09:57:38Z</time>
      </trkpt>
      <trkpt lat="44.76445" lon="6.33422">
        <ele>1932</ele>
        <time>2024-08-12T09:57:39Z</time>
      </trkpt>
      <trkpt lat="44.76442" lon="6.33422">
        <ele>1931.8</ele>
        <time>2024-08-12T09:57:40Z</time>
      </trkpt>
      <trkpt lat="44.76442" lon="6.33422">
        <ele>1931.8</ele>
        <time>2024-08-12T09:57:41Z</time>
      </trkpt>
      <trkpt lat="44.76442" lon="6.33422">
        <ele>1931.6</ele>
        <time>2024-08-12T09:57:42Z</time>
      </trkpt>
      <trkpt lat="44.7644" lon="6.3342">
        <ele>1931.6</ele>
        <time>2024-08-12T09:57:43Z</time>
      </trkpt>
      <trkpt lat="44.7644" lon="6.3342">
        <ele>1931.4</ele>
        <time>2024-08-12T09:57:44Z</time>
      </trkpt>
      <trkpt lat="44.7644" lon="6.3342">
        <ele>1931.2</ele>
        <time>2024-08-12T09:57:45Z</time>
      </trkpt>
      <trkpt lat="44.7644" lon="6.33417">
        <ele>1931</ele>
        <time>2024-08-12T09:57:46Z</time>
      </trkpt>
      <trkpt lat="44.7644" lon="6.33417">
        <ele>1930.8</ele>
        <time>2024-08-12T09:57:47Z</time>
      </trkpt>
      <trkpt lat="44.7644" lon="6.33414">
        <ele>1930.6</ele>
        <time>2024-08-12T09:57:48Z</time>
      </trkpt>
      <trkpt lat="44.7644" lon="6.33414">
        <ele>1930.4</ele>
        <time>2024-08-12T09:57:49Z</time>
      </trkpt>
      <trkpt lat="44.7644" lon="6.33411">
        <ele>1930.2</ele>
        <time>2024-08-12T09:57:50Z</time>
      </trkpt>
      <trkpt lat="44.7644" lon="6.33411">
        <ele>1929.8</ele>
        <time>2024-08-12T09:57:51Z</time>
      </trkpt>
      <trkpt lat="44.7644" lon="6.33408">
        <ele>1929.6</ele>
        <time>2024-08-12T09:57:52Z</time>
      </trkpt>
      <trkpt lat="44.7644" lon="6.33408">
        <ele>1929.4</ele>
        <time>2024-08-12T09:57:53Z</time>
      </trkpt>
      <trkpt lat="44.7644" lon="6.33405">
        <ele>1929.2</ele>
        <time>2024-08-12T09:57:54Z</time>
      </trkpt>
      <trkpt lat="44.7644" lon="6.33405">
        <ele>1929</ele>
        <time>2024-08-12T09:57:55Z</time>
      </trkpt>
      <trkpt lat="44.76441" lon="6.33402">
        <ele>1929</ele>
        <time>2024-08-12T09:57:56Z</time>
      </trkpt>
      <trkpt lat="44.76441" lon="6.33402">
        <ele>1928.6</ele>
        <time>2024-08-12T09:57:57Z</time>
      </trkpt>
      <trkpt lat="44.76441" lon="6.33402">
        <ele>1928.4</ele>
        <time>2024-08-12T09:57:58Z</time>
      </trkpt>
      <trkpt lat="44.76442" lon="6.33399">
        <ele>1928.2</ele>
        <time>2024-08-12T09:57:59Z</time>
      </trkpt>
      <trkpt lat="44.76442" lon="6.33399">
        <ele>1928.2</ele>
        <time>2024-08-12T09:58:00Z</time>
      </trkpt>
      <trkpt lat="44.76442" lon="6.33399">
        <ele>1928.4</ele>
        <time>2024-08-12T09:58:01Z</time>
      </trkpt>
      <trkpt lat="44.76442" lon="6.33399">
        <ele>1928.4</ele>
        <time>2024-08-12T09:58:02Z</time>
      </trkpt>
      <trkpt lat="44.76442" lon="6.33399">
        <ele>1928.4</ele>
        <time>2024-08-12T09:58:03Z</time>
      </trkpt>
      <trkpt lat="44.76442" lon="6.33399">
        <ele>1928.4</ele>
        <time>2024-08-12T09:58:04Z</time>
      </trkpt>
      <trkpt lat="44.76442" lon="6.33399">
        <ele>1928.6</ele>
        <time>2024-08-12T09:58:05Z</time>
      </trkpt>
      <trkpt lat="44.76442" lon="6.33399">
        <ele>1928.8</ele>
        <time>2024-08-12T09:58:06Z</time>
      </trkpt>
      <trkpt lat="44.76442" lon="6.33399">
        <ele>1928.8</ele>
        <time>2024-08-12T09:58:07Z</time>
      </trkpt>
      <trkpt lat="44.76442" lon="6.33399">
        <ele>1928.8</ele>
        <time>2024-08-12T09:58:08Z</time>
      </trkpt>
      <trkpt lat="44.76442" lon="6.33399">
        <ele>1928.6</ele>
        <time>2024-08-12T09:58:09Z</time>
      </trkpt>
      <trkpt lat="44.76442" lon="6.33399">
        <ele>1928.6</ele>
        <time>2024-08-12T09:58:10Z</time>
      </trkpt>
      <trkpt lat="44.76442" lon="6.33396">
        <ele>1928.2</ele>
        <time>2024-08-12T09:58:11Z</time>
      </trkpt>
      <trkpt lat="44.76442" lon="6.33396">
        <ele>1927.6</ele>
        <time>2024-08-12T09:58:12Z</time>
      </trkpt>
      <trkpt lat="44.76442" lon="6.33396">
        <ele>1927.4</ele>
        <time>2024-08-12T09:58:13Z</time>
      </trkpt>
      <trkpt lat="44.76442" lon="6.33396">
        <ele>1927.4</ele>
        <time>2024-08-12T09:58:14Z</time>
      </trkpt>
      <trkpt lat="44.76442" lon="6.33393">
        <ele>1927.2</ele>
        <time>2024-08-12T09:58:15Z</time>
      </trkpt>
      <trkpt lat="44.76442" lon="6.33393">
        <ele>1926.6</ele>
        <time>2024-08-12T09:58:16Z</time>
      </trkpt>
      <trkpt lat="44.76442" lon="6.33385">
        <ele>1926.2</ele>
        <time>2024-08-12T09:58:17Z</time>
      </trkpt>
      <trkpt lat="44.76442" lon="6.33384">
        <ele>1925.8</ele>
        <time>2024-08-12T09:58:18Z</time>
      </trkpt>
      <trkpt lat="44.76442" lon="6.33381">
        <ele>1925.8</ele>
        <time>2024-08-12T09:58:19Z</time>
      </trkpt>
      <trkpt lat="44.76441" lon="6.33378">
        <ele>1925.4</ele>
        <time>2024-08-12T09:58:20Z</time>
      </trkpt>
      <trkpt lat="44.76441" lon="6.33378">
        <ele>1925</ele>
        <time>2024-08-12T09:58:21Z</time>
      </trkpt>
      <trkpt lat="44.76442" lon="6.33375">
        <ele>1925</ele>
        <time>2024-08-12T09:58:22Z</time>
      </trkpt>
      <trkpt lat="44.76442" lon="6.33375">
        <ele>1924.8</ele>
        <time>2024-08-12T09:58:23Z</time>
      </trkpt>
      <trkpt lat="44.76442" lon="6.33375">
        <ele>1924.6</ele>
        <time>2024-08-12T09:58:24Z</time>
      </trkpt>
      <trkpt lat="44.76442" lon="6.33375">
        <ele>1924.6</ele>
        <time>2024-08-12T09:58:25Z</time>
      </trkpt>
      <trkpt lat="44.76445" lon="6.33376">
        <ele>1924.4</ele>
        <time>2024-08-12T09:58:26Z</time>
      </trkpt>
      <trkpt lat="44.76445" lon="6.33376">
        <ele>1924.2</ele>
        <time>2024-08-12T09:58:27Z</time>
      </trkpt>
      <trkpt lat="44.76446" lon="6.33378">
        <ele>1923.8</ele>
        <time>2024-08-12T09:58:28Z</time>
      </trkpt>
      <trkpt lat="44.76446" lon="6.33378">
        <ele>1923.6</ele>
        <time>2024-08-12T09:58:29Z</time>
      </trkpt>
      <trkpt lat="44.76448" lon="6.3338">
        <ele>1923.6</ele>
        <time>2024-08-12T09:58:30Z</time>
      </trkpt>
      <trkpt lat="44.76448" lon="6.3338">
        <ele>1923.2</ele>
        <time>2024-08-12T09:58:31Z</time>
      </trkpt>
      <trkpt lat="44.76449" lon="6.33381">
        <ele>1923</ele>
        <time>2024-08-12T09:58:32Z</time>
      </trkpt>
      <trkpt lat="44.76449" lon="6.33381">
        <ele>1922.6</ele>
        <time>2024-08-12T09:58:33Z</time>
      </trkpt>
      <trkpt lat="44.7645" lon="6.33384">
        <ele>1922.2</ele>
        <time>2024-08-12T09:58:34Z</time>
      </trkpt>
      <trkpt lat="44.7645" lon="6.33384">
        <ele>1922</ele>
        <time>2024-08-12T09:58:35Z</time>
      </trkpt>
      <trkpt lat="44.7645" lon="6.33384">
        <ele>1922</ele>
        <time>2024-08-12T09:58:36Z</time>
      </trkpt>
      <trkpt lat="44.76452" lon="6.33386">
        <ele>1921.8</ele>
        <time>2024-08-12T09:58:37Z</time>
      </trkpt>
      <trkpt lat="44.76452" lon="6.33386">
        <ele>1921.4</ele>
        <time>2024-08-12T09:58:38Z</time>
      </trkpt>
      <trkpt lat="44.76453" lon="6.33387">
        <ele>1921.2</ele>
        <time>2024-08-12T09:58:39Z</time>
      </trkpt>
      <trkpt lat="44.76453" lon="6.33387">
        <ele>1921</ele>
        <time>2024-08-12T09:58:40Z</time>
      </trkpt>
      <trkpt lat="44.76455" lon="6.33389">
        <ele>1921</ele>
        <time>2024-08-12T09:58:41Z</time>
      </trkpt>
      <trkpt lat="44.76455" lon="6.33389">
        <ele>1920.2</ele>
        <time>2024-08-12T09:58:42Z</time>
      </trkpt>
      <trkpt lat="44.76455" lon="6.33389">
        <ele>1920</ele>
        <time>2024-08-12T09:58:43Z</time>
      </trkpt>
      <trkpt lat="44.76455" lon="6.33389">
        <ele>1920</ele>
        <time>2024-08-12T09:58:44Z</time>
      </trkpt>
      <trkpt lat="44.76455" lon="6.33389">
        <ele>1920</ele>
        <time>2024-08-12T09:58:45Z</time>
      </trkpt>
      <trkpt lat="44.76455" lon="6.33389">
        <ele>1920</ele>
        <time>2024-08-12T09:58:46Z</time>
      </trkpt>
      <trkpt lat="44.76455" lon="6.33389">
        <ele>1919.8</ele>
        <time>2024-08-12T09:58:47Z</time>
      </trkpt>
      <trkpt lat="44.76455" lon="6.33387">
        <ele>1919.6</ele>
        <time>2024-08-12T09:58:48Z</time>
      </trkpt>
      <trkpt lat="44.76455" lon="6.33387">
        <ele>1919.6</ele>
        <time>2024-08-12T09:58:49Z</time>
      </trkpt>
      <trkpt lat="44.76454" lon="6.33384">
        <ele>1919.2</ele>
        <time>2024-08-12T09:58:50Z</time>
      </trkpt>
      <trkpt lat="44.76454" lon="6.33384">
        <ele>1919</ele>
        <time>2024-08-12T09:58:51Z</time>
      </trkpt>
      <trkpt lat="44.76454" lon="6.33384">
        <ele>1919</ele>
        <time>2024-08-12T09:58:52Z</time>
      </trkpt>
      <trkpt lat="44.76454" lon="6.33381">
        <ele>1918.8</ele>
        <time>2024-08-12T09:58:53Z</time>
      </trkpt>
      <trkpt lat="44.76454" lon="6.33381">
        <ele>1918.4</ele>
        <time>2024-08-12T09:58:54Z</time>
      </trkpt>
      <trkpt lat="44.76454" lon="6.33381">
        <ele>1918.2</ele>
        <time>2024-08-12T09:58:55Z</time>
      </trkpt>
      <trkpt lat="44.76452" lon="6.33378">
        <ele>1918</ele>
        <time>2024-08-12T09:58:56Z</time>
      </trkpt>
      <trkpt lat="44.76452" lon="6.33378">
        <ele>1918</ele>
        <time>2024-08-12T09:58:57Z</time>
      </trkpt>
      <trkpt lat="44.7645" lon="6.33374">
        <ele>1918</ele>
        <time>2024-08-12T09:58:58Z</time>
      </trkpt>
      <trkpt lat="44.7645" lon="6.33374">
        <ele>1917.8</ele>
        <time>2024-08-12T09:58:59Z</time>
      </trkpt>
      <trkpt lat="44.76448" lon="6.3337">
        <ele>1917.2</ele>
        <time>2024-08-12T09:59:00Z</time>
      </trkpt>
      <trkpt lat="44.76448" lon="6.3337">
        <ele>1917.2</ele>
        <time>2024-08-12T09:59:01Z</time>
      </trkpt>
      <trkpt lat="44.76447" lon="6.33367">
        <ele>1917.2</ele>
        <time>2024-08-12T09:59:02Z</time>
      </trkpt>
      <trkpt lat="44.76447" lon="6.33367">
        <ele>1917.2</ele>
        <time>2024-08-12T09:59:03Z</time>
      </trkpt>
      <trkpt lat="44.76447" lon="6.33367">
        <ele>1917.2</ele>
        <time>2024-08-12T09:59:04Z</time>
      </trkpt>
      <trkpt lat="44.76448" lon="6.33364">
        <ele>1917</ele>
        <time>2024-08-12T09:59:05Z</time>
      </trkpt>
      <trkpt lat="44.76448" lon="6.33364">
        <ele>1917</ele>
        <time>2024-08-12T09:59:06Z</time>
      </trkpt>
      <trkpt lat="44.7645" lon="6.33364">
        <ele>1916.6</ele>
        <time>2024-08-12T09:59:07Z</time>
      </trkpt>
      <trkpt lat="44.7645" lon="6.33364">
        <ele>1916.2</ele>
        <time>2024-08-12T09:59:08Z</time>
      </trkpt>
      <trkpt lat="44.76453" lon="6.33365">
        <ele>1916</ele>
        <time>2024-08-12T09:59:09Z</time>
      </trkpt>
      <trkpt lat="44.76453" lon="6.33365">
        <ele>1916</ele>
        <time>2024-08-12T09:59:10Z</time>
      </trkpt>
      <trkpt lat="44.76454" lon="6.33367">
        <ele>1915.8</ele>
        <time>2024-08-12T09:59:11Z</time>
      </trkpt>
      <trkpt lat="44.76454" lon="6.33367">
        <ele>1915.8</ele>
        <time>2024-08-12T09:59:12Z</time>
      </trkpt>
      <trkpt lat="44.76454" lon="6.33367">
        <ele>1915.8</ele>
        <time>2024-08-12T09:59:13Z</time>
      </trkpt>
      <trkpt lat="44.76457" lon="6.33368">
        <ele>1915.6</ele>
        <time>2024-08-12T09:59:14Z</time>
      </trkpt>
      <trkpt lat="44.76457" lon="6.33368">
        <ele>1915.4</ele>
        <time>2024-08-12T09:59:15Z</time>
      </trkpt>
      <trkpt lat="44.76458" lon="6.33371">
        <ele>1915.2</ele>
        <time>2024-08-12T09:59:16Z</time>
      </trkpt>
      <trkpt lat="44.76458" lon="6.33371">
        <ele>1915</ele>
        <time>2024-08-12T09:59:17Z</time>
      </trkpt>
      <trkpt lat="44.7646" lon="6.33373">
        <ele>1915</ele>
        <time>2024-08-12T09:59:18Z</time>
      </trkpt>
      <trkpt lat="44.7646" lon="6.33373">
        <ele>1915</ele>
        <time>2024-08-12T09:59:19Z</time>
      </trkpt>
      <trkpt lat="44.7646" lon="6.33373">
        <ele>1914.8</ele>
        <time>2024-08-12T09:59:20Z</time>
      </trkpt>
      <trkpt lat="44.76461" lon="6.33375">
        <ele>1914.6</ele>
        <time>2024-08-12T09:59:21Z</time>
      </trkpt>
      <trkpt lat="44.76461" lon="6.33375">
        <ele>1914.6</ele>
        <time>2024-08-12T09:59:22Z</time>
      </trkpt>
      <trkpt lat="44.76461" lon="6.33375">
        <ele>1914.4</ele>
        <time>2024-08-12T09:59:23Z</time>
      </trkpt>
      <trkpt lat="44.76463" lon="6.33376">
        <ele>1914.2</ele>
        <time>2024-08-12T09:59:24Z</time>
      </trkpt>
      <trkpt lat="44.76463" lon="6.33376">
        <ele>1913.8</ele>
        <time>2024-08-12T09:59:25Z</time>
      </trkpt>
      <trkpt lat="44.76463" lon="6.33376">
        <ele>1913.8</ele>
        <time>2024-08-12T09:59:26Z</time>
      </trkpt>
      <trkpt lat="44.76465" lon="6.33378">
        <ele>1913.6</ele>
        <time>2024-08-12T09:59:27Z</time>
      </trkpt>
      <trkpt lat="44.76465" lon="6.33378">
        <ele>1913.4</ele>
        <time>2024-08-12T09:59:28Z</time>
      </trkpt>
      <trkpt lat="44.76465" lon="6.33378">
        <ele>1913.2</ele>
        <time>2024-08-12T09:59:29Z</time>
      </trkpt>
      <trkpt lat="44.76465" lon="6.33378">
        <ele>1913</ele>
        <time>2024-08-12T09:59:30Z</time>
      </trkpt>
      <trkpt lat="44.76465" lon="6.33378">
        <ele>1913</ele>
        <time>2024-08-12T09:59:31Z</time>
      </trkpt>
      <trkpt lat="44.76465" lon="6.33378">
        <ele>1912.8</ele>
        <time>2024-08-12T09:59:32Z</time>
      </trkpt>
      <trkpt lat="44.76465" lon="6.33378">
        <ele>1912.8</ele>
        <time>2024-08-12T09:59:33Z</time>
      </trkpt>
      <trkpt lat="44.76465" lon="6.33378">
        <ele>1912.8</ele>
        <time>2024-08-12T09:59:34Z</time>
      </trkpt>
      <trkpt lat="44.76465" lon="6.33378">
        <ele>1912.8</ele>
        <time>2024-08-12T09:59:35Z</time>
      </trkpt>
      <trkpt lat="44.76465" lon="6.33378">
        <ele>1912.8</ele>
        <time>2024-08-12T09:59:36Z</time>
      </trkpt>
      <trkpt lat="44.76465" lon="6.33378">
        <ele>1912.8</ele>
        <time>2024-08-12T09:59:37Z</time>
      </trkpt>
      <trkpt lat="44.76465" lon="6.33378">
        <ele>1912.8</ele>
        <time>2024-08-12T09:59:38Z</time>
      </trkpt>
      <trkpt lat="44.76465" lon="6.33378">
        <ele>1912.8</ele>
        <time>2024-08-12T09:59:39Z</time>
      </trkpt>
      <trkpt lat="44.76465" lon="6.33378">
        <ele>1912.8</ele>
        <time>2024-08-12T09:59:40Z</time>
      </trkpt>
      <trkpt lat="44.76465" lon="6.33378">
        <ele>1912.8</ele>
        <time>2024-08-12T09:59:41Z</time>
      </trkpt>
      <trkpt lat="44.76465" lon="6.33378">
        <ele>1912.8</ele>
        <time>2024-08-12T09:59:42Z</time>
      </trkpt>
      <trkpt lat="44.76464" lon="6.33375">
        <ele>1912.8</ele>
        <time>2024-08-12T09:59:43Z</time>
      </trkpt>
      <trkpt lat="44.76464" lon="6.33375">
        <ele>1912.6</ele>
        <time>2024-08-12T09:59:44Z</time>
      </trkpt>
      <trkpt lat="44.76463" lon="6.33371">
        <ele>1912.4</ele>
        <time>2024-08-12T09:59:45Z</time>
      </trkpt>
      <trkpt lat="44.76463" lon="6.33371">
        <ele>1912.4</ele>
        <time>2024-08-12T09:59:46Z</time>
      </trkpt>
      <trkpt lat="44.76461" lon="6.33368">
        <ele>1912.2</ele>
        <time>2024-08-12T09:59:47Z</time>
      </trkpt>
      <trkpt lat="44.76461" lon="6.33368">
        <ele>1912</ele>
        <time>2024-08-12T09:59:48Z</time>
      </trkpt>
      <trkpt lat="44.7646" lon="6.33365">
        <ele>1912</ele>
        <time>2024-08-12T09:59:49Z</time>
      </trkpt>
      <trkpt lat="44.7646" lon="6.33365">
        <ele>1911.8</ele>
        <time>2024-08-12T09:59:50Z</time>
      </trkpt>
      <trkpt lat="44.76458" lon="6.33363">
        <ele>1911.8</ele>
        <time>2024-08-12T09:59:51Z</time>
      </trkpt>
      <trkpt lat="44.76457" lon="6.33361">
        <ele>1911.8</ele>
        <time>2024-08-12T09:59:52Z</time>
      </trkpt>
      <trkpt lat="44.76457" lon="6.3336">
        <ele>1911.6</ele>
        <time>2024-08-12T09:59:53Z</time>
      </trkpt>
      <trkpt lat="44.76456" lon="6.33359">
        <ele>1911.4</ele>
        <time>2024-08-12T09:59:54Z</time>
      </trkpt>
      <trkpt lat="44.76456" lon="6.33358">
        <ele>1911.2</ele>
        <time>2024-08-12T09:59:55Z</time>
      </trkpt>
      <trkpt lat="44.76454" lon="6.33354">
        <ele>1911.2</ele>
        <time>2024-08-12T09:59:56Z</time>
      </trkpt>
      <trkpt lat="44.76454" lon="6.33354">
        <ele>1911</ele>
        <time>2024-08-12T09:59:57Z</time>
      </trkpt>
      <trkpt lat="44.76454" lon="6.33354">
        <ele>1911</ele>
        <time>2024-08-12T09:59:58Z</time>
      </trkpt>
      <trkpt lat="44.76453" lon="6.33351">
        <ele>1910.8</ele>
        <time>2024-08-12T09:59:59Z</time>
      </trkpt>
      <trkpt lat="44.76453" lon="6.33351">
        <ele>1910.4</ele>
        <time>2024-08-12T10:00:01Z</time>
      </trkpt>
      <trkpt lat="44.76452" lon="6.33348">
        <ele>1910.4</ele>
        <time>2024-08-12T10:00:02Z</time>
      </trkpt>
      <trkpt lat="44.76452" lon="6.33348">
        <ele>1910.2</ele>
        <time>2024-08-12T10:00:03Z</time>
      </trkpt>
      <trkpt lat="44.76452" lon="6.33346">
        <ele>1910</ele>
        <time>2024-08-12T10:00:04Z</time>
      </trkpt>
      <trkpt lat="44.76452" lon="6.33346">
        <ele>1909.8</ele>
        <time>2024-08-12T10:00:05Z</time>
      </trkpt>
      <trkpt lat="44.76453" lon="6.33343">
        <ele>1909.4</ele>
        <time>2024-08-12T10:00:06Z</time>
      </trkpt>
      <trkpt lat="44.76453" lon="6.33343">
        <ele>1908.8</ele>
        <time>2024-08-12T10:00:07Z</time>
      </trkpt>
      <trkpt lat="44.76455" lon="6.33342">
        <ele>1908.6</ele>
        <time>2024-08-12T10:00:08Z</time>
      </trkpt>
      <trkpt lat="44.76455" lon="6.33342">
        <ele>1908.4</ele>
        <time>2024-08-12T10:00:09Z</time>
      </trkpt>
      <trkpt lat="44.76455" lon="6.33342">
        <ele>1908</ele>
        <time>2024-08-12T10:00:10Z</time>
      </trkpt>
      <trkpt lat="44.76458" lon="6.33344">
        <ele>1907.8</ele>
        <time>2024-08-12T10:00:11Z</time>
      </trkpt>
      <trkpt lat="44.76458" lon="6.33344">
        <ele>1907.6</ele>
        <time>2024-08-12T10:00:12Z</time>
      </trkpt>
      <trkpt lat="44.7646" lon="6.33346">
        <ele>1907.4</ele>
        <time>2024-08-12T10:00:13Z</time>
      </trkpt>
      <trkpt lat="44.7646" lon="6.33346">
        <ele>1907.2</ele>
        <time>2024-08-12T10:00:14Z</time>
      </trkpt>
      <trkpt lat="44.76461" lon="6.33349">
        <ele>1907</ele>
        <time>2024-08-12T10:00:15Z</time>
      </trkpt>
      <trkpt lat="44.76461" lon="6.33349">
        <ele>1906.6</ele>
        <time>2024-08-12T10:00:16Z</time>
      </trkpt>
      <trkpt lat="44.76463" lon="6.33352">
        <ele>1906.4</ele>
        <time>2024-08-12T10:00:17Z</time>
      </trkpt>
      <trkpt lat="44.76463" lon="6.33352">
        <ele>1906.2</ele>
        <time>2024-08-12T10:00:18Z</time>
      </trkpt>
      <trkpt lat="44.76465" lon="6.33355">
        <ele>1906</ele>
        <time>2024-08-12T10:00:19Z</time>
      </trkpt>
      <trkpt lat="44.76465" lon="6.33355">
        <ele>1905.8</ele>
        <time>2024-08-12T10:00:20Z</time>
      </trkpt>
      <trkpt lat="44.76466" lon="6.33357">
        <ele>1905.8</ele>
        <time>2024-08-12T10:00:21Z</time>
      </trkpt>
      <trkpt lat="44.76466" lon="6.33357">
        <ele>1905.4</ele>
        <time>2024-08-12T10:00:22Z</time>
      </trkpt>
      <trkpt lat="44.76469" lon="6.33358">
        <ele>1905.4</ele>
        <time>2024-08-12T10:00:23Z</time>
      </trkpt>
      <trkpt lat="44.76469" lon="6.33358">
        <ele>1905.4</ele>
        <time>2024-08-12T10:00:24Z</time>
      </trkpt>
      <trkpt lat="44.76471" lon="6.33359">
        <ele>1905</ele>
        <time>2024-08-12T10:00:25Z</time>
      </trkpt>
      <trkpt lat="44.76471" lon="6.33359">
        <ele>1904.8</ele>
        <time>2024-08-12T10:00:26Z</time>
      </trkpt>
      <trkpt lat="44.76472" lon="6.33362">
        <ele>1904.4</ele>
        <time>2024-08-12T10:00:27Z</time>
      </trkpt>
      <trkpt lat="44.76472" lon="6.33362">
        <ele>1904</ele>
        <time>2024-08-12T10:00:28Z</time>
      </trkpt>
      <trkpt lat="44.76472" lon="6.33362">
        <ele>1904</ele>
        <time>2024-08-12T10:00:29Z</time>
      </trkpt>
      <trkpt lat="44.76474" lon="6.33364">
        <ele>1904</ele>
        <time>2024-08-12T10:00:30Z</time>
      </trkpt>
      <trkpt lat="44.76474" lon="6.33364">
        <ele>1904</ele>
        <time>2024-08-12T10:00:31Z</time>
      </trkpt>
      <trkpt lat="44.76474" lon="6.33364">
        <ele>1903.8</ele>
        <time>2024-08-12T10:00:32Z</time>
      </trkpt>
      <trkpt lat="44.76474" lon="6.33364">
        <ele>1903.6</ele>
        <time>2024-08-12T10:00:33Z</time>
      </trkpt>
      <trkpt lat="44.76474" lon="6.33364">
        <ele>1903.2</ele>
        <time>2024-08-12T10:00:34Z</time>
      </trkpt>
      <trkpt lat="44.76474" lon="6.33364">
        <ele>1903.2</ele>
        <time>2024-08-12T10:00:35Z</time>
      </trkpt>
      <trkpt lat="44.76474" lon="6.33364">
        <ele>1903</ele>
        <time>2024-08-12T10:00:36Z</time>
      </trkpt>
      <trkpt lat="44.76474" lon="6.3336">
        <ele>1902.8</ele>
        <time>2024-08-12T10:00:37Z</time>
      </trkpt>
      <trkpt lat="44.76474" lon="6.3336">
        <ele>1902.6</ele>
        <time>2024-08-12T10:00:38Z</time>
      </trkpt>
      <trkpt lat="44.76474" lon="6.3336">
        <ele>1902.6</ele>
        <time>2024-08-12T10:00:39Z</time>
      </trkpt>
      <trkpt lat="44.76473" lon="6.33357">
        <ele>1902.2</ele>
        <time>2024-08-12T10:00:40Z</time>
      </trkpt>
      <trkpt lat="44.76473" lon="6.33357">
        <ele>1901.8</ele>
        <time>2024-08-12T10:00:41Z</time>
      </trkpt>
      <trkpt lat="44.76472" lon="6.33354">
        <ele>1901.6</ele>
        <time>2024-08-12T10:00:42Z</time>
      </trkpt>
      <trkpt lat="44.76472" lon="6.33354">
        <ele>1901.4</ele>
        <time>2024-08-12T10:00:43Z</time>
      </trkpt>
      <trkpt lat="44.76471" lon="6.33351">
        <ele>1901.2</ele>
        <time>2024-08-12T10:00:44Z</time>
      </trkpt>
      <trkpt lat="44.76471" lon="6.33351">
        <ele>1901.2</ele>
        <time>2024-08-12T10:00:45Z</time>
      </trkpt>
      <trkpt lat="44.76469" lon="6.33349">
        <ele>1901</ele>
        <time>2024-08-12T10:00:46Z</time>
      </trkpt>
      <trkpt lat="44.76469" lon="6.33349">
        <ele>1900.6</ele>
        <time>2024-08-12T10:00:47Z</time>
      </trkpt>
      <trkpt lat="44.76468" lon="6.33346">
        <ele>1900.6</ele>
        <time>2024-08-12T10:00:48Z</time>
      </trkpt>
      <trkpt lat="44.76468" lon="6.33346">
        <ele>1900.2</ele>
        <time>2024-08-12T10:00:49Z</time>
      </trkpt>
      <trkpt lat="44.76468" lon="6.33344">
        <ele>1900</ele>
        <time>2024-08-12T10:00:50Z</time>
      </trkpt>
      <trkpt lat="44.76468" lon="6.33344">
        <ele>1899.8</ele>
        <time>2024-08-12T10:00:51Z</time>
      </trkpt>
      <trkpt lat="44.76469" lon="6.33342">
        <ele>1899.4</ele>
        <time>2024-08-12T10:00:52Z</time>
      </trkpt>
      <trkpt lat="44.76469" lon="6.33342">
        <ele>1899.2</ele>
        <time>2024-08-12T10:00:53Z</time>
      </trkpt>
      <trkpt lat="44.76471" lon="6.33343">
        <ele>1899</ele>
        <time>2024-08-12T10:00:54Z</time>
      </trkpt>
      <trkpt lat="44.76471" lon="6.33343">
        <ele>1899</ele>
        <time>2024-08-12T10:00:55Z</time>
      </trkpt>
      <trkpt lat="44.76471" lon="6.33343">
        <ele>1899.2</ele>
        <time>2024-08-12T10:00:56Z</time>
      </trkpt>
      <trkpt lat="44.76473" lon="6.33345">
        <ele>1899.2</ele>
        <time>2024-08-12T10:00:57Z</time>
      </trkpt>
      <trkpt lat="44.76473" lon="6.33345">
        <ele>1898.6</ele>
        <time>2024-08-12T10:00:58Z</time>
      </trkpt>
      <trkpt lat="44.76475" lon="6.33346">
        <ele>1898.4</ele>
        <time>2024-08-12T10:00:59Z</time>
      </trkpt>
      <trkpt lat="44.76475" lon="6.33346">
        <ele>1898.2</ele>
        <time>2024-08-12T10:01:00Z</time>
      </trkpt>
      <trkpt lat="44.76477" lon="6.33348">
        <ele>1898</ele>
        <time>2024-08-12T10:01:01Z</time>
      </trkpt>
      <trkpt lat="44.76477" lon="6.33348">
        <ele>1897.4</ele>
        <time>2024-08-12T10:01:02Z</time>
      </trkpt>
      <trkpt lat="44.76477" lon="6.33348">
        <ele>1897.4</ele>
        <time>2024-08-12T10:01:03Z</time>
      </trkpt>
      <trkpt lat="44.76479" lon="6.3335">
        <ele>1897.4</ele>
        <time>2024-08-12T10:01:04Z</time>
      </trkpt>
      <trkpt lat="44.76479" lon="6.3335">
        <ele>1897.4</ele>
        <time>2024-08-12T10:01:05Z</time>
      </trkpt>
      <trkpt lat="44.76481" lon="6.33352">
        <ele>1897.2</ele>
        <time>2024-08-12T10:01:06Z</time>
      </trkpt>
      <trkpt lat="44.76481" lon="6.33352">
        <ele>1897.2</ele>
        <time>2024-08-12T10:01:07Z</time>
      </trkpt>
      <trkpt lat="44.76483" lon="6.33352">
        <ele>1897</ele>
        <time>2024-08-12T10:01:08Z</time>
      </trkpt>
      <trkpt lat="44.76483" lon="6.33352">
        <ele>1897</ele>
        <time>2024-08-12T10:01:09Z</time>
      </trkpt>
      <trkpt lat="44.76483" lon="6.33352">
        <ele>1896.8</ele>
        <time>2024-08-12T10:01:10Z</time>
      </trkpt>
      <trkpt lat="44.76483" lon="6.33352">
        <ele>1896.6</ele>
        <time>2024-08-12T10:01:11Z</time>
      </trkpt>
      <trkpt lat="44.76483" lon="6.33352">
        <ele>1896.4</ele>
        <time>2024-08-12T10:01:12Z</time>
      </trkpt>
      <trkpt lat="44.76483" lon="6.33349">
        <ele>1896.2</ele>
        <time>2024-08-12T10:01:13Z</time>
      </trkpt>
      <trkpt lat="44.76483" lon="6.33349">
        <ele>1895.8</ele>
        <time>2024-08-12T10:01:14Z</time>
      </trkpt>
      <trkpt lat="44.76483" lon="6.33349">
        <ele>1895.8</ele>
        <time>2024-08-12T10:01:15Z</time>
      </trkpt>
      <trkpt lat="44.76481" lon="6.33347">
        <ele>1895.8</ele>
        <time>2024-08-12T10:01:16Z</time>
      </trkpt>
      <trkpt lat="44.76481" lon="6.33347">
        <ele>1895.6</ele>
        <time>2024-08-12T10:01:17Z</time>
      </trkpt>
      <trkpt lat="44.7648" lon="6.33345">
        <ele>1895.2</ele>
        <time>2024-08-12T10:01:18Z</time>
      </trkpt>
      <trkpt lat="44.7648" lon="6.33345">
        <ele>1895.2</ele>
        <time>2024-08-12T10:01:19Z</time>
      </trkpt>
      <trkpt lat="44.76478" lon="6.33343">
        <ele>1894.8</ele>
        <time>2024-08-12T10:01:20Z</time>
      </trkpt>
      <trkpt lat="44.76478" lon="6.33343">
        <ele>1894.8</ele>
        <time>2024-08-12T10:01:21Z</time>
      </trkpt>
      <trkpt lat="44.76477" lon="6.3334">
        <ele>1894.6</ele>
        <time>2024-08-12T10:01:22Z</time>
      </trkpt>
      <trkpt lat="44.76477" lon="6.3334">
        <ele>1894.6</ele>
        <time>2024-08-12T10:01:23Z</time>
      </trkpt>
      <trkpt lat="44.76476" lon="6.33337">
        <ele>1894.4</ele>
        <time>2024-08-12T10:01:24Z</time>
      </trkpt>
      <trkpt lat="44.76476" lon="6.33337">
        <ele>1894.2</ele>
        <time>2024-08-12T10:01:25Z</time>
      </trkpt>
      <trkpt lat="44.76475" lon="6.33334">
        <ele>1894</ele>
        <time>2024-08-12T10:01:26Z</time>
      </trkpt>
      <trkpt lat="44.76475" lon="6.33334">
        <ele>1894</ele>
        <time>2024-08-12T10:01:27Z</time>
      </trkpt>
      <trkpt lat="44.76474" lon="6.33331">
        <ele>1894</ele>
        <time>2024-08-12T10:01:28Z</time>
      </trkpt>
      <trkpt lat="44.76474" lon="6.33331">
        <ele>1893.8</ele>
        <time>2024-08-12T10:01:29Z</time>
      </trkpt>
      <trkpt lat="44.76471" lon="6.33328">
        <ele>1893.6</ele>
        <time>2024-08-12T10:01:30Z</time>
      </trkpt>
      <trkpt lat="44.76471" lon="6.33328">
        <ele>1893.6</ele>
        <time>2024-08-12T10:01:31Z</time>
      </trkpt>
      <trkpt lat="44.76469" lon="6.33326">
        <ele>1893.4</ele>
        <time>2024-08-12T10:01:32Z</time>
      </trkpt>
      <trkpt lat="44.76469" lon="6.33326">
        <ele>1893.2</ele>
        <time>2024-08-12T10:01:33Z</time>
      </trkpt>
      <trkpt lat="44.76467" lon="6.33324">
        <ele>1893</ele>
        <time>2024-08-12T10:01:34Z</time>
      </trkpt>
      <trkpt lat="44.76467" lon="6.33324">
        <ele>1893</ele>
        <time>2024-08-12T10:01:35Z</time>
      </trkpt>
      <trkpt lat="44.76466" lon="6.33322">
        <ele>1892.8</ele>
        <time>2024-08-12T10:01:36Z</time>
      </trkpt>
      <trkpt lat="44.76466" lon="6.33322">
        <ele>1892.4</ele>
        <time>2024-08-12T10:01:37Z</time>
      </trkpt>
      <trkpt lat="44.76466" lon="6.33322">
        <ele>1892.2</ele>
        <time>2024-08-12T10:01:38Z</time>
      </trkpt>
      <trkpt lat="44.76465" lon="6.33319">
        <ele>1892</ele>
        <time>2024-08-12T10:01:39Z</time>
      </trkpt>
      <trkpt lat="44.76465" lon="6.33319">
        <ele>1892</ele>
        <time>2024-08-12T10:01:40Z</time>
      </trkpt>
      <trkpt lat="44.76465" lon="6.33319">
        <ele>1891.6</ele>
        <time>2024-08-12T10:01:41Z</time>
      </trkpt>
      <trkpt lat="44.76465" lon="6.33319">
        <ele>1891.6</ele>
        <time>2024-08-12T10:01:42Z</time>
      </trkpt>
      <trkpt lat="44.76466" lon="6.33317">
        <ele>1891.6</ele>
        <time>2024-08-12T10:01:43Z</time>
      </trkpt>
      <trkpt lat="44.76466" lon="6.33317">
        <ele>1891.4</ele>
        <time>2024-08-12T10:01:44Z</time>
      </trkpt>
      <trkpt lat="44.76469" lon="6.33317">
        <ele>1891.2</ele>
        <time>2024-08-12T10:01:45Z</time>
      </trkpt>
      <trkpt lat="44.76469" lon="6.33317">
        <ele>1891</ele>
        <time>2024-08-12T10:01:46Z</time>
      </trkpt>
      <trkpt lat="44.76469" lon="6.33317">
        <ele>1890.8</ele>
        <time>2024-08-12T10:01:47Z</time>
      </trkpt>
      <trkpt lat="44.76471" lon="6.3332">
        <ele>1890.8</ele>
        <time>2024-08-12T10:01:48Z</time>
      </trkpt>
      <trkpt lat="44.76471" lon="6.3332">
        <ele>1890.6</ele>
        <time>2024-08-12T10:01:49Z</time>
      </trkpt>
      <trkpt lat="44.76474" lon="6.33321">
        <ele>1890.6</ele>
        <time>2024-08-12T10:01:50Z</time>
      </trkpt>
      <trkpt lat="44.76474" lon="6.33321">
        <ele>1890.2</ele>
        <time>2024-08-12T10:01:51Z</time>
      </trkpt>
      <trkpt lat="44.76476" lon="6.33322">
        <ele>1889.8</ele>
        <time>2024-08-12T10:01:52Z</time>
      </trkpt>
      <trkpt lat="44.76476" lon="6.33322">
        <ele>1889.8</ele>
        <time>2024-08-12T10:01:53Z</time>
      </trkpt>
      <trkpt lat="44.76479" lon="6.33323">
        <ele>1890</ele>
        <time>2024-08-12T10:01:54Z</time>
      </trkpt>
      <trkpt lat="44.76479" lon="6.33323">
        <ele>1890</ele>
        <time>2024-08-12T10:01:55Z</time>
      </trkpt>
      <trkpt lat="44.76481" lon="6.33324">
        <ele>1889.8</ele>
        <time>2024-08-12T10:01:56Z</time>
      </trkpt>
      <trkpt lat="44.76481" lon="6.33324">
        <ele>1889.4</ele>
        <time>2024-08-12T10:01:57Z</time>
      </trkpt>
      <trkpt lat="44.76481" lon="6.33324">
        <ele>1889.2</ele>
        <time>2024-08-12T10:01:58Z</time>
      </trkpt>
      <trkpt lat="44.76483" lon="6.33326">
        <ele>1889</ele>
        <time>2024-08-12T10:01:59Z</time>
      </trkpt>
      <trkpt lat="44.76483" lon="6.33326">
        <ele>1888.6</ele>
        <time>2024-08-12T10:02:00Z</time>
      </trkpt>
      <trkpt lat="44.76483" lon="6.33326">
        <ele>1888.2</ele>
        <time>2024-08-12T10:02:01Z</time>
      </trkpt>
      <trkpt lat="44.76485" lon="6.33328">
        <ele>1887.6</ele>
        <time>2024-08-12T10:02:02Z</time>
      </trkpt>
      <trkpt lat="44.76485" lon="6.33328">
        <ele>1887.6</ele>
        <time>2024-08-12T10:02:03Z</time>
      </trkpt>
      <trkpt lat="44.76485" lon="6.33328">
        <ele>1887.6</ele>
        <time>2024-08-12T10:02:04Z</time>
      </trkpt>
      <trkpt lat="44.76487" lon="6.33331">
        <ele>1887.6</ele>
        <time>2024-08-12T10:02:05Z</time>
      </trkpt>
      <trkpt lat="44.76487" lon="6.33331">
        <ele>1887.4</ele>
        <time>2024-08-12T10:02:06Z</time>
      </trkpt>
      <trkpt lat="44.76489" lon="6.33333">
        <ele>1887</ele>
        <time>2024-08-12T10:02:07Z</time>
      </trkpt>
      <trkpt lat="44.76489" lon="6.33333">
        <ele>1886.8</ele>
        <time>2024-08-12T10:02:08Z</time>
      </trkpt>
      <trkpt lat="44.76491" lon="6.33335">
        <ele>1886.8</ele>
        <time>2024-08-12T10:02:09Z</time>
      </trkpt>
      <trkpt lat="44.76491" lon="6.33335">
        <ele>1886.8</ele>
        <time>2024-08-12T10:02:10Z</time>
      </trkpt>
      <trkpt lat="44.76493" lon="6.33337">
        <ele>1886.8</ele>
        <time>2024-08-12T10:02:11Z</time>
      </trkpt>
      <trkpt lat="44.76493" lon="6.33337">
        <ele>1886.8</ele>
        <time>2024-08-12T10:02:12Z</time>
      </trkpt>
      <trkpt lat="44.76493" lon="6.33337">
        <ele>1886.6</ele>
        <time>2024-08-12T10:02:13Z</time>
      </trkpt>
      <trkpt lat="44.76496" lon="6.33338">
        <ele>1886.4</ele>
        <time>2024-08-12T10:02:14Z</time>
      </trkpt>
      <trkpt lat="44.76496" lon="6.33338">
        <ele>1886.2</ele>
        <time>2024-08-12T10:02:15Z</time>
      </trkpt>
      <trkpt lat="44.76496" lon="6.33338">
        <ele>1886.2</ele>
        <time>2024-08-12T10:02:16Z</time>
      </trkpt>
      <trkpt lat="44.76498" lon="6.33339">
        <ele>1885.8</ele>
        <time>2024-08-12T10:02:17Z</time>
      </trkpt>
      <trkpt lat="44.76498" lon="6.33339">
        <ele>1885.8</ele>
        <time>2024-08-12T10:02:18Z</time>
      </trkpt>
      <trkpt lat="44.76498" lon="6.33339">
        <ele>1885.4</ele>
        <time>2024-08-12T10:02:19Z</time>
      </trkpt>
      <trkpt lat="44.76498" lon="6.33339">
        <ele>1885.4</ele>
        <time>2024-08-12T10:02:20Z</time>
      </trkpt>
      <trkpt lat="44.76496" lon="6.33338">
        <ele>1885.2</ele>
        <time>2024-08-12T10:02:21Z</time>
      </trkpt>
      <trkpt lat="44.76496" lon="6.33338">
        <ele>1885.2</ele>
        <time>2024-08-12T10:02:22Z</time>
      </trkpt>
      <trkpt lat="44.76496" lon="6.33338">
        <ele>1885.2</ele>
        <time>2024-08-12T10:02:23Z</time>
      </trkpt>
      <trkpt lat="44.76495" lon="6.33335">
        <ele>1885</ele>
        <time>2024-08-12T10:02:24Z</time>
      </trkpt>
      <trkpt lat="44.76495" lon="6.33335">
        <ele>1884.8</ele>
        <time>2024-08-12T10:02:25Z</time>
      </trkpt>
      <trkpt lat="44.76495" lon="6.33335">
        <ele>1884.6</ele>
        <time>2024-08-12T10:02:26Z</time>
      </trkpt>
      <trkpt lat="44.76493" lon="6.33333">
        <ele>1884.4</ele>
        <time>2024-08-12T10:02:27Z</time>
      </trkpt>
      <trkpt lat="44.76493" lon="6.33333">
        <ele>1884.2</ele>
        <time>2024-08-12T10:02:28Z</time>
      </trkpt>
      <trkpt lat="44.76493" lon="6.33333">
        <ele>1883.8</ele>
        <time>2024-08-12T10:02:29Z</time>
      </trkpt>
      <trkpt lat="44.76493" lon="6.33333">
        <ele>1883.8</ele>
        <time>2024-08-12T10:02:30Z</time>
      </trkpt>
      <trkpt lat="44.76493" lon="6.33333">
        <ele>1883.4</ele>
        <time>2024-08-12T10:02:31Z</time>
      </trkpt>
      <trkpt lat="44.76492" lon="6.33331">
        <ele>1883</ele>
        <time>2024-08-12T10:02:32Z</time>
      </trkpt>
      <trkpt lat="44.76492" lon="6.33331">
        <ele>1883</ele>
        <time>2024-08-12T10:02:33Z</time>
      </trkpt>
      <trkpt lat="44.7649" lon="6.33328">
        <ele>1882.8</ele>
        <time>2024-08-12T10:02:34Z</time>
      </trkpt>
      <trkpt lat="44.7649" lon="6.33328">
        <ele>1882.2</ele>
        <time>2024-08-12T10:02:35Z</time>
      </trkpt>
      <trkpt lat="44.76488" lon="6.33325">
        <ele>1882.2</ele>
        <time>2024-08-12T10:02:36Z</time>
      </trkpt>
      <trkpt lat="44.76488" lon="6.33325">
        <ele>1882</ele>
        <time>2024-08-12T10:02:37Z</time>
      </trkpt>
      <trkpt lat="44.76491" lon="6.33324">
        <ele>1881.8</ele>
        <time>2024-08-12T10:02:38Z</time>
      </trkpt>
      <trkpt lat="44.76491" lon="6.33324">
        <ele>1881.8</ele>
        <time>2024-08-12T10:02:39Z</time>
      </trkpt>
      <trkpt lat="44.76493" lon="6.33325">
        <ele>1881.4</ele>
        <time>2024-08-12T10:02:40Z</time>
      </trkpt>
      <trkpt lat="44.76493" lon="6.33325">
        <ele>1881.2</ele>
        <time>2024-08-12T10:02:41Z</time>
      </trkpt>
      <trkpt lat="44.76496" lon="6.33326">
        <ele>1881</ele>
        <time>2024-08-12T10:02:42Z</time>
      </trkpt>
      <trkpt lat="44.76496" lon="6.33326">
        <ele>1880.8</ele>
        <time>2024-08-12T10:02:43Z</time>
      </trkpt>
      <trkpt lat="44.76498" lon="6.33328">
        <ele>1880.8</ele>
        <time>2024-08-12T10:02:44Z</time>
      </trkpt>
      <trkpt lat="44.76498" lon="6.33328">
        <ele>1880.6</ele>
        <time>2024-08-12T10:02:45Z</time>
      </trkpt>
      <trkpt lat="44.76501" lon="6.33329">
        <ele>1880.4</ele>
        <time>2024-08-12T10:02:46Z</time>
      </trkpt>
      <trkpt lat="44.76501" lon="6.33329">
        <ele>1880.4</ele>
        <time>2024-08-12T10:02:47Z</time>
      </trkpt>
      <trkpt lat="44.76501" lon="6.33329">
        <ele>1880.4</ele>
        <time>2024-08-12T10:02:48Z</time>
      </trkpt>
      <trkpt lat="44.76503" lon="6.33331">
        <ele>1880.4</ele>
        <time>2024-08-12T10:02:49Z</time>
      </trkpt>
      <trkpt lat="44.76503" lon="6.33331">
        <ele>1880.4</ele>
        <time>2024-08-12T10:02:50Z</time>
      </trkpt>
      <trkpt lat="44.76503" lon="6.33331">
        <ele>1880.4</ele>
        <time>2024-08-12T10:02:51Z</time>
      </trkpt>
      <trkpt lat="44.76503" lon="6.33331">
        <ele>1880.2</ele>
        <time>2024-08-12T10:02:52Z</time>
      </trkpt>
      <trkpt lat="44.76503" lon="6.33331">
        <ele>1880</ele>
        <time>2024-08-12T10:02:53Z</time>
      </trkpt>
      <trkpt lat="44.76501" lon="6.33328">
        <ele>1879.6</ele>
        <time>2024-08-12T10:02:54Z</time>
      </trkpt>
      <trkpt lat="44.76501" lon="6.33328">
        <ele>1879.4</ele>
        <time>2024-08-12T10:02:55Z</time>
      </trkpt>
      <trkpt lat="44.76499" lon="6.33325">
        <ele>1879.2</ele>
        <time>2024-08-12T10:02:56Z</time>
      </trkpt>
      <trkpt lat="44.76499" lon="6.33325">
        <ele>1879</ele>
        <time>2024-08-12T10:02:57Z</time>
      </trkpt>
      <trkpt lat="44.76497" lon="6.33323">
        <ele>1879</ele>
        <time>2024-08-12T10:02:58Z</time>
      </trkpt>
      <trkpt lat="44.76497" lon="6.33323">
        <ele>1879</ele>
        <time>2024-08-12T10:02:59Z</time>
      </trkpt>
      <trkpt lat="44.76495" lon="6.3332">
        <ele>1879</ele>
        <time>2024-08-12T10:03:00Z</time>
      </trkpt>
      <trkpt lat="44.76495" lon="6.3332">
        <ele>1879</ele>
        <time>2024-08-12T10:03:01Z</time>
      </trkpt>
      <trkpt lat="44.76493" lon="6.33318">
        <ele>1878.8</ele>
        <time>2024-08-12T10:03:02Z</time>
      </trkpt>
      <trkpt lat="44.76493" lon="6.33318">
        <ele>1878.8</ele>
        <time>2024-08-12T10:03:03Z</time>
      </trkpt>
      <trkpt lat="44.76491" lon="6.33316">
        <ele>1878.4</ele>
        <time>2024-08-12T10:03:04Z</time>
      </trkpt>
      <trkpt lat="44.76491" lon="6.33316">
        <ele>1878.2</ele>
        <time>2024-08-12T10:03:05Z</time>
      </trkpt>
      <trkpt lat="44.7649" lon="6.33314">
        <ele>1878</ele>
        <time>2024-08-12T10:03:06Z</time>
      </trkpt>
      <trkpt lat="44.7649" lon="6.33314">
        <ele>1877.8</ele>
        <time>2024-08-12T10:03:07Z</time>
      </trkpt>
      <trkpt lat="44.7649" lon="6.33314">
        <ele>1877.4</ele>
        <time>2024-08-12T10:03:08Z</time>
      </trkpt>
      <trkpt lat="44.7649" lon="6.33314">
        <ele>1877.4</ele>
        <time>2024-08-12T10:03:09Z</time>
      </trkpt>
      <trkpt lat="44.76489" lon="6.33312">
        <ele>1877.4</ele>
        <time>2024-08-12T10:03:10Z</time>
      </trkpt>
      <trkpt lat="44.76489" lon="6.33312">
        <ele>1877</ele>
        <time>2024-08-12T10:03:11Z</time>
      </trkpt>
      <trkpt lat="44.76489" lon="6.33312">
        <ele>1876.6</ele>
        <time>2024-08-12T10:03:12Z</time>
      </trkpt>
      <trkpt lat="44.76491" lon="6.33312">
        <ele>1876.2</ele>
        <time>2024-08-12T10:03:13Z</time>
      </trkpt>
      <trkpt lat="44.76491" lon="6.33312">
        <ele>1876.2</ele>
        <time>2024-08-12T10:03:14Z</time>
      </trkpt>
      <trkpt lat="44.76493" lon="6.33312">
        <ele>1876</ele>
        <time>2024-08-12T10:03:15Z</time>
      </trkpt>
      <trkpt lat="44.76493" lon="6.33312">
        <ele>1876</ele>
        <time>2024-08-12T10:03:16Z</time>
      </trkpt>
      <trkpt lat="44.76496" lon="6.33312">
        <ele>1875.6</ele>
        <time>2024-08-12T10:03:17Z</time>
      </trkpt>
      <trkpt lat="44.76496" lon="6.33312">
        <ele>1875.4</ele>
        <time>2024-08-12T10:03:18Z</time>
      </trkpt>
      <trkpt lat="44.76498" lon="6.33313">
        <ele>1875.2</ele>
        <time>2024-08-12T10:03:19Z</time>
      </trkpt>
      <trkpt lat="44.76498" lon="6.33313">
        <ele>1875</ele>
        <time>2024-08-12T10:03:20Z</time>
      </trkpt>
      <trkpt lat="44.76498" lon="6.33313">
        <ele>1875</ele>
        <time>2024-08-12T10:03:21Z</time>
      </trkpt>
      <trkpt lat="44.76498" lon="6.33313">
        <ele>1875</ele>
        <time>2024-08-12T10:03:22Z</time>
      </trkpt>
      <trkpt lat="44.76498" lon="6.33313">
        <ele>1874.4</ele>
        <time>2024-08-12T10:03:23Z</time>
      </trkpt>
      <trkpt lat="44.765" lon="6.33313">
        <ele>1874.2</ele>
        <time>2024-08-12T10:03:24Z</time>
      </trkpt>
      <trkpt lat="44.765" lon="6.33313">
        <ele>1873.6</ele>
        <time>2024-08-12T10:03:25Z</time>
      </trkpt>
      <trkpt lat="44.765" lon="6.33313">
        <ele>1873.4</ele>
        <time>2024-08-12T10:03:26Z</time>
      </trkpt>
      <trkpt lat="44.765" lon="6.33313">
        <ele>1873.2</ele>
        <time>2024-08-12T10:03:27Z</time>
      </trkpt>
      <trkpt lat="44.76499" lon="6.33309">
        <ele>1873</ele>
        <time>2024-08-12T10:03:28Z</time>
      </trkpt>
      <trkpt lat="44.76499" lon="6.33309">
        <ele>1872.8</ele>
        <time>2024-08-12T10:03:29Z</time>
      </trkpt>
      <trkpt lat="44.76497" lon="6.33306">
        <ele>1872.8</ele>
        <time>2024-08-12T10:03:30Z</time>
      </trkpt>
      <trkpt lat="44.76497" lon="6.33306">
        <ele>1872.6</ele>
        <time>2024-08-12T10:03:31Z</time>
      </trkpt>
      <trkpt lat="44.76495" lon="6.33303">
        <ele>1872.2</ele>
        <time>2024-08-12T10:03:32Z</time>
      </trkpt>
      <trkpt lat="44.76495" lon="6.33303">
        <ele>1871.8</ele>
        <time>2024-08-12T10:03:33Z</time>
      </trkpt>
      <trkpt lat="44.76493" lon="6.33302">
        <ele>1871.4</ele>
        <time>2024-08-12T10:03:34Z</time>
      </trkpt>
      <trkpt lat="44.76493" lon="6.33302">
        <ele>1871</ele>
        <time>2024-08-12T10:03:35Z</time>
      </trkpt>
      <trkpt lat="44.76492" lon="6.333">
        <ele>1870.8</ele>
        <time>2024-08-12T10:03:36Z</time>
      </trkpt>
      <trkpt lat="44.7649" lon="6.33298">
        <ele>1870.6</ele>
        <time>2024-08-12T10:03:37Z</time>
      </trkpt>
      <trkpt lat="44.7649" lon="6.33298">
        <ele>1870.6</ele>
        <time>2024-08-12T10:03:38Z</time>
      </trkpt>
      <trkpt lat="44.76489" lon="6.33296">
        <ele>1870.2</ele>
        <time>2024-08-12T10:03:39Z</time>
      </trkpt>
      <trkpt lat="44.76489" lon="6.33296">
        <ele>1869.8</ele>
        <time>2024-08-12T10:03:40Z</time>
      </trkpt>
      <trkpt lat="44.76486" lon="6.33293">
        <ele>1869.8</ele>
        <time>2024-08-12T10:03:41Z</time>
      </trkpt>
      <trkpt lat="44.76486" lon="6.33293">
        <ele>1869.6</ele>
        <time>2024-08-12T10:03:42Z</time>
      </trkpt>
      <trkpt lat="44.76484" lon="6.33291">
        <ele>1869.6</ele>
        <time>2024-08-12T10:03:43Z</time>
      </trkpt>
      <trkpt lat="44.76484" lon="6.33291">
        <ele>1869.6</ele>
        <time>2024-08-12T10:03:44Z</time>
      </trkpt>
      <trkpt lat="44.76482" lon="6.33288">
        <ele>1869.2</ele>
        <time>2024-08-12T10:03:45Z</time>
      </trkpt>
      <trkpt lat="44.76482" lon="6.33288">
        <ele>1869.2</ele>
        <time>2024-08-12T10:03:46Z</time>
      </trkpt>
      <trkpt lat="44.76481" lon="6.33286">
        <ele>1868.8</ele>
        <time>2024-08-12T10:03:47Z</time>
      </trkpt>
      <trkpt lat="44.76481" lon="6.33286">
        <ele>1868.8</ele>
        <time>2024-08-12T10:03:48Z</time>
      </trkpt>
      <trkpt lat="44.76479" lon="6.33284">
        <ele>1868.4</ele>
        <time>2024-08-12T10:03:49Z</time>
      </trkpt>
      <trkpt lat="44.76479" lon="6.33284">
        <ele>1868.4</ele>
        <time>2024-08-12T10:03:50Z</time>
      </trkpt>
      <trkpt lat="44.76478" lon="6.33282">
        <ele>1868.2</ele>
        <time>2024-08-12T10:03:51Z</time>
      </trkpt>
      <trkpt lat="44.76478" lon="6.33282">
        <ele>1868</ele>
        <time>2024-08-12T10:03:52Z</time>
      </trkpt>
      <trkpt lat="44.76476" lon="6.3328">
        <ele>1868</ele>
        <time>2024-08-12T10:03:53Z</time>
      </trkpt>
      <trkpt lat="44.76476" lon="6.3328">
        <ele>1867.8</ele>
        <time>2024-08-12T10:03:54Z</time>
      </trkpt>
      <trkpt lat="44.76474" lon="6.33278">
        <ele>1867.8</ele>
        <time>2024-08-12T10:03:55Z</time>
      </trkpt>
      <trkpt lat="44.76474" lon="6.33278">
        <ele>1867.4</ele>
        <time>2024-08-12T10:03:56Z</time>
      </trkpt>
      <trkpt lat="44.76474" lon="6.33278">
        <ele>1867.2</ele>
        <time>2024-08-12T10:03:57Z</time>
      </trkpt>
      <trkpt lat="44.76472" lon="6.33276">
        <ele>1867.2</ele>
        <time>2024-08-12T10:03:58Z</time>
      </trkpt>
      <trkpt lat="44.76472" lon="6.33276">
        <ele>1867.2</ele>
        <time>2024-08-12T10:03:59Z</time>
      </trkpt>
      <trkpt lat="44.76472" lon="6.33276">
        <ele>1867.2</ele>
        <time>2024-08-12T10:04:00Z</time>
      </trkpt>
      <trkpt lat="44.76472" lon="6.33273">
        <ele>1867</ele>
        <time>2024-08-12T10:04:01Z</time>
      </trkpt>
      <trkpt lat="44.76472" lon="6.33273">
        <ele>1866.6</ele>
        <time>2024-08-12T10:04:02Z</time>
      </trkpt>
      <trkpt lat="44.76473" lon="6.33271">
        <ele>1866.6</ele>
        <time>2024-08-12T10:04:03Z</time>
      </trkpt>
      <trkpt lat="44.76473" lon="6.33271">
        <ele>1866.2</ele>
        <time>2024-08-12T10:04:04Z</time>
      </trkpt>
      <trkpt lat="44.76476" lon="6.33272">
        <ele>1866.2</ele>
        <time>2024-08-12T10:04:05Z</time>
      </trkpt>
      <trkpt lat="44.76476" lon="6.33272">
        <ele>1866.2</ele>
        <time>2024-08-12T10:04:06Z</time>
      </trkpt>
      <trkpt lat="44.76478" lon="6.33274">
        <ele>1865.8</ele>
        <time>2024-08-12T10:04:07Z</time>
      </trkpt>
      <trkpt lat="44.76478" lon="6.33274">
        <ele>1865.8</ele>
        <time>2024-08-12T10:04:08Z</time>
      </trkpt>
      <trkpt lat="44.7648" lon="6.33276">
        <ele>1865.6</ele>
        <time>2024-08-12T10:04:09Z</time>
      </trkpt>
      <trkpt lat="44.7648" lon="6.33276">
        <ele>1865.4</ele>
        <time>2024-08-12T10:04:10Z</time>
      </trkpt>
      <trkpt lat="44.76482" lon="6.33277">
        <ele>1865.2</ele>
        <time>2024-08-12T10:04:11Z</time>
      </trkpt>
      <trkpt lat="44.76482" lon="6.33277">
        <ele>1864.8</ele>
        <time>2024-08-12T10:04:12Z</time>
      </trkpt>
      <trkpt lat="44.76484" lon="6.33277">
        <ele>1864.6</ele>
        <time>2024-08-12T10:04:13Z</time>
      </trkpt>
      <trkpt lat="44.76484" lon="6.33277">
        <ele>1864.2</ele>
        <time>2024-08-12T10:04:14Z</time>
      </trkpt>
      <trkpt lat="44.76486" lon="6.33278">
        <ele>1864</ele>
        <time>2024-08-12T10:04:15Z</time>
      </trkpt>
      <trkpt lat="44.76486" lon="6.33278">
        <ele>1863.6</ele>
        <time>2024-08-12T10:04:16Z</time>
      </trkpt>
      <trkpt lat="44.76488" lon="6.33278">
        <ele>1863.4</ele>
        <time>2024-08-12T10:04:17Z</time>
      </trkpt>
      <trkpt lat="44.76488" lon="6.33278">
        <ele>1863.2</ele>
        <time>2024-08-12T10:04:18Z</time>
      </trkpt>
      <trkpt lat="44.7649" lon="6.33278">
        <ele>1863.2</ele>
        <time>2024-08-12T10:04:19Z</time>
      </trkpt>
      <trkpt lat="44.7649" lon="6.33278">
        <ele>1863</ele>
        <time>2024-08-12T10:04:20Z</time>
      </trkpt>
      <trkpt lat="44.7649" lon="6.33278">
        <ele>1862.6</ele>
        <time>2024-08-12T10:04:21Z</time>
      </trkpt>
      <trkpt lat="44.7649" lon="6.33278">
        <ele>1862.6</ele>
        <time>2024-08-12T10:04:22Z</time>
      </trkpt>
      <trkpt lat="44.7649" lon="6.33278">
        <ele>1862.4</ele>
        <time>2024-08-12T10:04:23Z</time>
      </trkpt>
      <trkpt lat="44.7649" lon="6.33278">
        <ele>1862.2</ele>
        <time>2024-08-12T10:04:24Z</time>
      </trkpt>
      <trkpt lat="44.7649" lon="6.33278">
        <ele>1862.2</ele>
        <time>2024-08-12T10:04:25Z</time>
      </trkpt>
      <trkpt lat="44.7649" lon="6.33278">
        <ele>1862.4</ele>
        <time>2024-08-12T10:04:26Z</time>
      </trkpt>
      <trkpt lat="44.7649" lon="6.33278">
        <ele>1862.4</ele>
        <time>2024-08-12T10:04:27Z</time>
      </trkpt>
      <trkpt lat="44.7649" lon="6.33278">
        <ele>1862.4</ele>
        <time>2024-08-12T10:04:28Z</time>
      </trkpt>
      <trkpt lat="44.7649" lon="6.33278">
        <ele>1862.4</ele>
        <time>2024-08-12T10:04:29Z</time>
      </trkpt>
      <trkpt lat="44.7649" lon="6.33278">
        <ele>1862.4</ele>
        <time>2024-08-12T10:04:30Z</time>
      </trkpt>
      <trkpt lat="44.7649" lon="6.33278">
        <ele>1862.4</ele>
        <time>2024-08-12T10:04:31Z</time>
      </trkpt>
      <trkpt lat="44.7649" lon="6.33278">
        <ele>1862.2</ele>
        <time>2024-08-12T10:04:32Z</time>
      </trkpt>
      <trkpt lat="44.7649" lon="6.33278">
        <ele>1862.2</ele>
        <time>2024-08-12T10:04:33Z</time>
      </trkpt>
      <trkpt lat="44.7649" lon="6.33278">
        <ele>1862.2</ele>
        <time>2024-08-12T10:04:34Z</time>
      </trkpt>
      <trkpt lat="44.7649" lon="6.33278">
        <ele>1862.2</ele>
        <time>2024-08-12T10:04:35Z</time>
      </trkpt>
      <trkpt lat="44.7649" lon="6.33278">
        <ele>1862.2</ele>
        <time>2024-08-12T10:04:36Z</time>
      </trkpt>
      <trkpt lat="44.7649" lon="6.33278">
        <ele>1862.2</ele>
        <time>2024-08-12T10:04:37Z</time>
      </trkpt>
      <trkpt lat="44.7649" lon="6.33278">
        <ele>1861.8</ele>
        <time>2024-08-12T10:04:38Z</time>
      </trkpt>
      <trkpt lat="44.7649" lon="6.33275">
        <ele>1861.8</ele>
        <time>2024-08-12T10:04:39Z</time>
      </trkpt>
      <trkpt lat="44.7649" lon="6.33275">
        <ele>1861.8</ele>
        <time>2024-08-12T10:04:40Z</time>
      </trkpt>
      <trkpt lat="44.76488" lon="6.33272">
        <ele>1861.6</ele>
        <time>2024-08-12T10:04:41Z</time>
      </trkpt>
      <trkpt lat="44.76488" lon="6.33272">
        <ele>1861.4</ele>
        <time>2024-08-12T10:04:42Z</time>
      </trkpt>
      <trkpt lat="44.76486" lon="6.33269">
        <ele>1861</ele>
        <time>2024-08-12T10:04:43Z</time>
      </trkpt>
      <trkpt lat="44.76486" lon="6.33269">
        <ele>1861</ele>
        <time>2024-08-12T10:04:44Z</time>
      </trkpt>
      <trkpt lat="44.76484" lon="6.33268">
        <ele>1860.8</ele>
        <time>2024-08-12T10:04:45Z</time>
      </trkpt>
      <trkpt lat="44.76484" lon="6.33268">
        <ele>1860.4</ele>
        <time>2024-08-12T10:04:46Z</time>
      </trkpt>
      <trkpt lat="44.76483" lon="6.33266">
        <ele>1860.4</ele>
        <time>2024-08-12T10:04:47Z</time>
      </trkpt>
      <trkpt lat="44.76483" lon="6.33266">
        <ele>1860.2</ele>
        <time>2024-08-12T10:04:48Z</time>
      </trkpt>
      <trkpt lat="44.76482" lon="6.33264">
        <ele>1860</ele>
        <time>2024-08-12T10:04:49Z</time>
      </trkpt>
      <trkpt lat="44.76482" lon="6.33264">
        <ele>1859.6</ele>
        <time>2024-08-12T10:04:50Z</time>
      </trkpt>
      <trkpt lat="44.76482" lon="6.33264">
        <ele>1859.2</ele>
        <time>2024-08-12T10:04:51Z</time>
      </trkpt>
      <trkpt lat="44.7648" lon="6.33261">
        <ele>1858.8</ele>
        <time>2024-08-12T10:04:52Z</time>
      </trkpt>
      <trkpt lat="44.7648" lon="6.33261">
        <ele>1858.6</ele>
        <time>2024-08-12T10:04:53Z</time>
      </trkpt>
      <trkpt lat="44.76479" lon="6.33259">
        <ele>1858.4</ele>
        <time>2024-08-12T10:04:54Z</time>
      </trkpt>
      <trkpt lat="44.76479" lon="6.33259">
        <ele>1858</ele>
        <time>2024-08-12T10:04:55Z</time>
      </trkpt>
      <trkpt lat="44.76477" lon="6.33256">
        <ele>1858</ele>
        <time>2024-08-12T10:04:56Z</time>
      </trkpt>
      <trkpt lat="44.76477" lon="6.33256">
        <ele>1857.8</ele>
        <time>2024-08-12T10:04:57Z</time>
      </trkpt>
      <trkpt lat="44.76476" lon="6.33254">
        <ele>1857.4</ele>
        <time>2024-08-12T10:04:58Z</time>
      </trkpt>
      <trkpt lat="44.76476" lon="6.33254">
        <ele>1857.4</ele>
        <time>2024-08-12T10:04:59Z</time>
      </trkpt>
      <trkpt lat="44.76476" lon="6.33254">
        <ele>1857.2</ele>
        <time>2024-08-12T10:05:00Z</time>
      </trkpt>
      <trkpt lat="44.76476" lon="6.3325">
        <ele>1856.6</ele>
        <time>2024-08-12T10:05:01Z</time>
      </trkpt>
      <trkpt lat="44.76476" lon="6.3325">
        <ele>1856</ele>
        <time>2024-08-12T10:05:02Z</time>
      </trkpt>
      <trkpt lat="44.76474" lon="6.33248">
        <ele>1856</ele>
        <time>2024-08-12T10:05:03Z</time>
      </trkpt>
      <trkpt lat="44.76474" lon="6.33248">
        <ele>1855.8</ele>
        <time>2024-08-12T10:05:04Z</time>
      </trkpt>
      <trkpt lat="44.76474" lon="6.33248">
        <ele>1855.2</ele>
        <time>2024-08-12T10:05:05Z</time>
      </trkpt>
      <trkpt lat="44.76473" lon="6.33245">
        <ele>1855</ele>
        <time>2024-08-12T10:05:06Z</time>
      </trkpt>
      <trkpt lat="44.76473" lon="6.33245">
        <ele>1854.8</ele>
        <time>2024-08-12T10:05:07Z</time>
      </trkpt>
      <trkpt lat="44.76471" lon="6.33242">
        <ele>1854.8</ele>
        <time>2024-08-12T10:05:08Z</time>
      </trkpt>
      <trkpt lat="44.76471" lon="6.33242">
        <ele>1854.6</ele>
        <time>2024-08-12T10:05:09Z</time>
      </trkpt>
      <trkpt lat="44.7647" lon="6.33239">
        <ele>1854.2</ele>
        <time>2024-08-12T10:05:10Z</time>
      </trkpt>
      <trkpt lat="44.7647" lon="6.33239">
        <ele>1854</ele>
        <time>2024-08-12T10:05:11Z</time>
      </trkpt>
      <trkpt lat="44.76469" lon="6.33236">
        <ele>1853.6</ele>
        <time>2024-08-12T10:05:12Z</time>
      </trkpt>
      <trkpt lat="44.76468" lon="6.33234">
        <ele>1853.2</ele>
        <time>2024-08-12T10:05:13Z</time>
      </trkpt>
      <trkpt lat="44.76468" lon="6.33234">
        <ele>1853.2</ele>
        <time>2024-08-12T10:05:14Z</time>
      </trkpt>
      <trkpt lat="44.76466" lon="6.33231">
        <ele>1853.4</ele>
        <time>2024-08-12T10:05:15Z</time>
      </trkpt>
      <trkpt lat="44.76466" lon="6.33231">
        <ele>1853.4</ele>
        <time>2024-08-12T10:05:16Z</time>
      </trkpt>
      <trkpt lat="44.76464" lon="6.33229">
        <ele>1853.4</ele>
        <time>2024-08-12T10:05:17Z</time>
      </trkpt>
      <trkpt lat="44.76464" lon="6.33229">
        <ele>1853.4</ele>
        <time>2024-08-12T10:05:18Z</time>
      </trkpt>
      <trkpt lat="44.76463" lon="6.33226">
        <ele>1853.4</ele>
        <time>2024-08-12T10:05:19Z</time>
      </trkpt>
      <trkpt lat="44.76463" lon="6.33226">
        <ele>1853</ele>
        <time>2024-08-12T10:05:20Z</time>
      </trkpt>
      <trkpt lat="44.76462" lon="6.33223">
        <ele>1852.6</ele>
        <time>2024-08-12T10:05:21Z</time>
      </trkpt>
      <trkpt lat="44.76462" lon="6.33223">
        <ele>1852.6</ele>
        <time>2024-08-12T10:05:22Z</time>
      </trkpt>
      <trkpt lat="44.76461" lon="6.33221">
        <ele>1852.2</ele>
        <time>2024-08-12T10:05:23Z</time>
      </trkpt>
      <trkpt lat="44.76461" lon="6.33221">
        <ele>1851.8</ele>
        <time>2024-08-12T10:05:24Z</time>
      </trkpt>
      <trkpt lat="44.76461" lon="6.33221">
        <ele>1851.8</ele>
        <time>2024-08-12T10:05:25Z</time>
      </trkpt>
      <trkpt lat="44.7646" lon="6.33218">
        <ele>1851.8</ele>
        <time>2024-08-12T10:05:26Z</time>
      </trkpt>
      <trkpt lat="44.7646" lon="6.33218">
        <ele>1851.4</ele>
        <time>2024-08-12T10:05:27Z</time>
      </trkpt>
      <trkpt lat="44.7646" lon="6.33215">
        <ele>1851.4</ele>
        <time>2024-08-12T10:05:28Z</time>
      </trkpt>
      <trkpt lat="44.7646" lon="6.33215">
        <ele>1851.2</ele>
        <time>2024-08-12T10:05:29Z</time>
      </trkpt>
      <trkpt lat="44.76459" lon="6.33212">
        <ele>1851</ele>
        <time>2024-08-12T10:05:30Z</time>
      </trkpt>
      <trkpt lat="44.76459" lon="6.33212">
        <ele>1851</ele>
        <time>2024-08-12T10:05:31Z</time>
      </trkpt>
      <trkpt lat="44.76458" lon="6.33209">
        <ele>1850.8</ele>
        <time>2024-08-12T10:05:32Z</time>
      </trkpt>
      <trkpt lat="44.76458" lon="6.33209">
        <ele>1850.6</ele>
        <time>2024-08-12T10:05:33Z</time>
      </trkpt>
      <trkpt lat="44.76457" lon="6.33206">
        <ele>1850.4</ele>
        <time>2024-08-12T10:05:34Z</time>
      </trkpt>
      <trkpt lat="44.76457" lon="6.33206">
        <ele>1850.2</ele>
        <time>2024-08-12T10:05:35Z</time>
      </trkpt>
      <trkpt lat="44.76456" lon="6.33203">
        <ele>1850.2</ele>
        <time>2024-08-12T10:05:36Z</time>
      </trkpt>
      <trkpt lat="44.76456" lon="6.33203">
        <ele>1849.8</ele>
        <time>2024-08-12T10:05:37Z</time>
      </trkpt>
      <trkpt lat="44.76456" lon="6.332">
        <ele>1849.8</ele>
        <time>2024-08-12T10:05:38Z</time>
      </trkpt>
      <trkpt lat="44.76456" lon="6.332">
        <ele>1849.6</ele>
        <time>2024-08-12T10:05:39Z</time>
      </trkpt>
      <trkpt lat="44.76456" lon="6.332">
        <ele>1849.4</ele>
        <time>2024-08-12T10:05:40Z</time>
      </trkpt>
      <trkpt lat="44.76456" lon="6.33196">
        <ele>1849.4</ele>
        <time>2024-08-12T10:05:41Z</time>
      </trkpt>
      <trkpt lat="44.76456" lon="6.33196">
        <ele>1849</ele>
        <time>2024-08-12T10:05:42Z</time>
      </trkpt>
      <trkpt lat="44.76457" lon="6.33193">
        <ele>1848.8</ele>
        <time>2024-08-12T10:05:43Z</time>
      </trkpt>
      <trkpt lat="44.76457" lon="6.33193">
        <ele>1848.8</ele>
        <time>2024-08-12T10:05:44Z</time>
      </trkpt>
      <trkpt lat="44.76456" lon="6.33189">
        <ele>1848.6</ele>
        <time>2024-08-12T10:05:45Z</time>
      </trkpt>
      <trkpt lat="44.76456" lon="6.33189">
        <ele>1848.6</ele>
        <time>2024-08-12T10:05:46Z</time>
      </trkpt>
      <trkpt lat="44.76456" lon="6.33186">
        <ele>1848.2</ele>
        <time>2024-08-12T10:05:47Z</time>
      </trkpt>
      <trkpt lat="44.76456" lon="6.33186">
        <ele>1848</ele>
        <time>2024-08-12T10:05:48Z</time>
      </trkpt>
      <trkpt lat="44.76456" lon="6.33183">
        <ele>1847.8</ele>
        <time>2024-08-12T10:05:49Z</time>
      </trkpt>
      <trkpt lat="44.76456" lon="6.33183">
        <ele>1847.6</ele>
        <time>2024-08-12T10:05:50Z</time>
      </trkpt>
      <trkpt lat="44.76454" lon="6.33182">
        <ele>1847.4</ele>
        <time>2024-08-12T10:05:51Z</time>
      </trkpt>
      <trkpt lat="44.76454" lon="6.33182">
        <ele>1847.2</ele>
        <time>2024-08-12T10:05:52Z</time>
      </trkpt>
      <trkpt lat="44.76454" lon="6.33182">
        <ele>1847.2</ele>
        <time>2024-08-12T10:05:53Z</time>
      </trkpt>
      <trkpt lat="44.76453" lon="6.33178">
        <ele>1847.2</ele>
        <time>2024-08-12T10:05:54Z</time>
      </trkpt>
      <trkpt lat="44.76453" lon="6.33178">
        <ele>1846.6</ele>
        <time>2024-08-12T10:05:55Z</time>
      </trkpt>
      <trkpt lat="44.76453" lon="6.33176">
        <ele>1846.6</ele>
        <time>2024-08-12T10:05:56Z</time>
      </trkpt>
      <trkpt lat="44.76453" lon="6.33176">
        <ele>1846.4</ele>
        <time>2024-08-12T10:05:57Z</time>
      </trkpt>
      <trkpt lat="44.76453" lon="6.33176">
        <ele>1846</ele>
        <time>2024-08-12T10:05:58Z</time>
      </trkpt>
      <trkpt lat="44.76453" lon="6.33172">
        <ele>1845.8</ele>
        <time>2024-08-12T10:05:59Z</time>
      </trkpt>
      <trkpt lat="44.76453" lon="6.33172">
        <ele>1845.6</ele>
        <time>2024-08-12T10:06:00Z</time>
      </trkpt>
      <trkpt lat="44.76454" lon="6.33169">
        <ele>1845.6</ele>
        <time>2024-08-12T10:06:01Z</time>
      </trkpt>
      <trkpt lat="44.76454" lon="6.33169">
        <ele>1845</ele>
        <time>2024-08-12T10:06:02Z</time>
      </trkpt>
      <trkpt lat="44.76455" lon="6.33166">
        <ele>1845</ele>
        <time>2024-08-12T10:06:03Z</time>
      </trkpt>
      <trkpt lat="44.76455" lon="6.33166">
        <ele>1844.6</ele>
        <time>2024-08-12T10:06:04Z</time>
      </trkpt>
      <trkpt lat="44.76455" lon="6.33163">
        <ele>1844.6</ele>
        <time>2024-08-12T10:06:05Z</time>
      </trkpt>
      <trkpt lat="44.76455" lon="6.33163">
        <ele>1844.4</ele>
        <time>2024-08-12T10:06:06Z</time>
      </trkpt>
      <trkpt lat="44.76455" lon="6.3316">
        <ele>1844.2</ele>
        <time>2024-08-12T10:06:07Z</time>
      </trkpt>
      <trkpt lat="44.76455" lon="6.3316">
        <ele>1843.8</ele>
        <time>2024-08-12T10:06:08Z</time>
      </trkpt>
      <trkpt lat="44.76455" lon="6.33156">
        <ele>1843.8</ele>
        <time>2024-08-12T10:06:09Z</time>
      </trkpt>
      <trkpt lat="44.76455" lon="6.33156">
        <ele>1843.6</ele>
        <time>2024-08-12T10:06:10Z</time>
      </trkpt>
      <trkpt lat="44.76454" lon="6.33154">
        <ele>1843.8</ele>
        <time>2024-08-12T10:06:11Z</time>
      </trkpt>
      <trkpt lat="44.76454" lon="6.33154">
        <ele>1843.8</ele>
        <time>2024-08-12T10:06:12Z</time>
      </trkpt>
      <trkpt lat="44.76453" lon="6.33152">
        <ele>1843.8</ele>
        <time>2024-08-12T10:06:13Z</time>
      </trkpt>
      <trkpt lat="44.76453" lon="6.33152">
        <ele>1843.4</ele>
        <time>2024-08-12T10:06:14Z</time>
      </trkpt>
      <trkpt lat="44.76452" lon="6.33149">
        <ele>1843.2</ele>
        <time>2024-08-12T10:06:15Z</time>
      </trkpt>
      <trkpt lat="44.76452" lon="6.33149">
        <ele>1843.2</ele>
        <time>2024-08-12T10:06:16Z</time>
      </trkpt>
      <trkpt lat="44.76452" lon="6.33149">
        <ele>1843.2</ele>
        <time>2024-08-12T10:06:17Z</time>
      </trkpt>
      <trkpt lat="44.7645" lon="6.33146">
        <ele>1843</ele>
        <time>2024-08-12T10:06:18Z</time>
      </trkpt>
      <trkpt lat="44.7645" lon="6.33146">
        <ele>1842.6</ele>
        <time>2024-08-12T10:06:19Z</time>
      </trkpt>
      <trkpt lat="44.76451" lon="6.33143">
        <ele>1842.2</ele>
        <time>2024-08-12T10:06:20Z</time>
      </trkpt>
      <trkpt lat="44.76451" lon="6.33143">
        <ele>1842</ele>
        <time>2024-08-12T10:06:21Z</time>
      </trkpt>
      <trkpt lat="44.76451" lon="6.33143">
        <ele>1841.8</ele>
        <time>2024-08-12T10:06:22Z</time>
      </trkpt>
      <trkpt lat="44.76451" lon="6.33139">
        <ele>1841.4</ele>
        <time>2024-08-12T10:06:23Z</time>
      </trkpt>
      <trkpt lat="44.76451" lon="6.33139">
        <ele>1841.2</ele>
        <time>2024-08-12T10:06:24Z</time>
      </trkpt>
      <trkpt lat="44.7645" lon="6.33137">
        <ele>1840.8</ele>
        <time>2024-08-12T10:06:25Z</time>
      </trkpt>
      <trkpt lat="44.7645" lon="6.33137">
        <ele>1840.6</ele>
        <time>2024-08-12T10:06:26Z</time>
      </trkpt>
      <trkpt lat="44.7645" lon="6.33134">
        <ele>1840.6</ele>
        <time>2024-08-12T10:06:27Z</time>
      </trkpt>
      <trkpt lat="44.7645" lon="6.33134">
        <ele>1840.4</ele>
        <time>2024-08-12T10:06:28Z</time>
      </trkpt>
      <trkpt lat="44.7645" lon="6.33131">
        <ele>1840</ele>
        <time>2024-08-12T10:06:29Z</time>
      </trkpt>
      <trkpt lat="44.7645" lon="6.33131">
        <ele>1839.8</ele>
        <time>2024-08-12T10:06:30Z</time>
      </trkpt>
      <trkpt lat="44.7645" lon="6.33131">
        <ele>1839.6</ele>
        <time>2024-08-12T10:06:31Z</time>
      </trkpt>
      <trkpt lat="44.76449" lon="6.33127">
        <ele>1839.6</ele>
        <time>2024-08-12T10:06:32Z</time>
      </trkpt>
      <trkpt lat="44.76449" lon="6.33127">
        <ele>1839.4</ele>
        <time>2024-08-12T10:06:33Z</time>
      </trkpt>
      <trkpt lat="44.76448" lon="6.33124">
        <ele>1839.4</ele>
        <time>2024-08-12T10:06:34Z</time>
      </trkpt>
      <trkpt lat="44.76448" lon="6.33124">
        <ele>1839</ele>
        <time>2024-08-12T10:06:35Z</time>
      </trkpt>
      <trkpt lat="44.76448" lon="6.33121">
        <ele>1839</ele>
        <time>2024-08-12T10:06:36Z</time>
      </trkpt>
      <trkpt lat="44.76448" lon="6.33121">
        <ele>1839.2</ele>
        <time>2024-08-12T10:06:37Z</time>
      </trkpt>
      <trkpt lat="44.76448" lon="6.33117">
        <ele>1839.2</ele>
        <time>2024-08-12T10:06:38Z</time>
      </trkpt>
      <trkpt lat="44.76448" lon="6.33117">
        <ele>1839</ele>
        <time>2024-08-12T10:06:39Z</time>
      </trkpt>
      <trkpt lat="44.76446" lon="6.33115">
        <ele>1839</ele>
        <time>2024-08-12T10:06:40Z</time>
      </trkpt>
      <trkpt lat="44.76446" lon="6.33115">
        <ele>1838.8</ele>
        <time>2024-08-12T10:06:41Z</time>
      </trkpt>
      <trkpt lat="44.76446" lon="6.33115">
        <ele>1838.8</ele>
        <time>2024-08-12T10:06:42Z</time>
      </trkpt>
      <trkpt lat="44.76445" lon="6.33112">
        <ele>1838.8</ele>
        <time>2024-08-12T10:06:43Z</time>
      </trkpt>
      <trkpt lat="44.76445" lon="6.33112">
        <ele>1838.8</ele>
        <time>2024-08-12T10:06:44Z</time>
      </trkpt>
      <trkpt lat="44.76444" lon="6.33109">
        <ele>1838.8</ele>
        <time>2024-08-12T10:06:45Z</time>
      </trkpt>
      <trkpt lat="44.76444" lon="6.33109">
        <ele>1838.6</ele>
        <time>2024-08-12T10:06:46Z</time>
      </trkpt>
      <trkpt lat="44.76444" lon="6.33105">
        <ele>1838.2</ele>
        <time>2024-08-12T10:06:47Z</time>
      </trkpt>
      <trkpt lat="44.76444" lon="6.33105">
        <ele>1838</ele>
        <time>2024-08-12T10:06:48Z</time>
      </trkpt>
      <trkpt lat="44.76444" lon="6.33102">
        <ele>1838</ele>
        <time>2024-08-12T10:06:49Z</time>
      </trkpt>
      <trkpt lat="44.76444" lon="6.33102">
        <ele>1837.8</ele>
        <time>2024-08-12T10:06:50Z</time>
      </trkpt>
      <trkpt lat="44.76443" lon="6.33099">
        <ele>1837.8</ele>
        <time>2024-08-12T10:06:51Z</time>
      </trkpt>
      <trkpt lat="44.76443" lon="6.33099">
        <ele>1837.8</ele>
        <time>2024-08-12T10:06:52Z</time>
      </trkpt>
      <trkpt lat="44.76444" lon="6.33095">
        <ele>1837.6</ele>
        <time>2024-08-12T10:06:53Z</time>
      </trkpt>
      <trkpt lat="44.76444" lon="6.33095">
        <ele>1837.4</ele>
        <time>2024-08-12T10:06:54Z</time>
      </trkpt>
      <trkpt lat="44.76444" lon="6.33091">
        <ele>1837.2</ele>
        <time>2024-08-12T10:06:55Z</time>
      </trkpt>
      <trkpt lat="44.76444" lon="6.33091">
        <ele>1837</ele>
        <time>2024-08-12T10:06:56Z</time>
      </trkpt>
      <trkpt lat="44.76444" lon="6.33088">
        <ele>1836.8</ele>
        <time>2024-08-12T10:06:57Z</time>
      </trkpt>
      <trkpt lat="44.76444" lon="6.33088">
        <ele>1836.6</ele>
        <time>2024-08-12T10:06:58Z</time>
      </trkpt>
      <trkpt lat="44.76445" lon="6.33085">
        <ele>1836.6</ele>
        <time>2024-08-12T10:06:59Z</time>
      </trkpt>
      <trkpt lat="44.76445" lon="6.33085">
        <ele>1836.4</ele>
        <time>2024-08-12T10:07:00Z</time>
      </trkpt>
      <trkpt lat="44.76446" lon="6.33083">
        <ele>1836.2</ele>
        <time>2024-08-12T10:07:01Z</time>
      </trkpt>
      <trkpt lat="44.76446" lon="6.33083">
        <ele>1835.8</ele>
        <time>2024-08-12T10:07:02Z</time>
      </trkpt>
      <trkpt lat="44.76448" lon="6.33081">
        <ele>1835.8</ele>
        <time>2024-08-12T10:07:03Z</time>
      </trkpt>
      <trkpt lat="44.76448" lon="6.33081">
        <ele>1835.6</ele>
        <time>2024-08-12T10:07:04Z</time>
      </trkpt>
      <trkpt lat="44.76448" lon="6.33078">
        <ele>1835.4</ele>
        <time>2024-08-12T10:07:05Z</time>
      </trkpt>
      <trkpt lat="44.76448" lon="6.33078">
        <ele>1835.2</ele>
        <time>2024-08-12T10:07:06Z</time>
      </trkpt>
      <trkpt lat="44.76449" lon="6.33074">
        <ele>1834.8</ele>
        <time>2024-08-12T10:07:07Z</time>
      </trkpt>
      <trkpt lat="44.76449" lon="6.33074">
        <ele>1834.6</ele>
        <time>2024-08-12T10:07:08Z</time>
      </trkpt>
      <trkpt lat="44.76449" lon="6.33071">
        <ele>1834.4</ele>
        <time>2024-08-12T10:07:09Z</time>
      </trkpt>
      <trkpt lat="44.76449" lon="6.33071">
        <ele>1834.4</ele>
        <time>2024-08-12T10:07:10Z</time>
      </trkpt>
      <trkpt lat="44.76448" lon="6.33068">
        <ele>1833.8</ele>
        <time>2024-08-12T10:07:11Z</time>
      </trkpt>
      <trkpt lat="44.76448" lon="6.33068">
        <ele>1833.8</ele>
        <time>2024-08-12T10:07:12Z</time>
      </trkpt>
      <trkpt lat="44.76448" lon="6.33064">
        <ele>1833.6</ele>
        <time>2024-08-12T10:07:13Z</time>
      </trkpt>
      <trkpt lat="44.76448" lon="6.33064">
        <ele>1833.2</ele>
        <time>2024-08-12T10:07:14Z</time>
      </trkpt>
      <trkpt lat="44.76446" lon="6.33061">
        <ele>1833.2</ele>
        <time>2024-08-12T10:07:15Z</time>
      </trkpt>
      <trkpt lat="44.76446" lon="6.33061">
        <ele>1833</ele>
        <time>2024-08-12T10:07:16Z</time>
      </trkpt>
      <trkpt lat="44.76445" lon="6.33059">
        <ele>1832.8</ele>
        <time>2024-08-12T10:07:17Z</time>
      </trkpt>
      <trkpt lat="44.76445" lon="6.33059">
        <ele>1832.4</ele>
        <time>2024-08-12T10:07:18Z</time>
      </trkpt>
      <trkpt lat="44.76443" lon="6.33057">
        <ele>1832.4</ele>
        <time>2024-08-12T10:07:19Z</time>
      </trkpt>
      <trkpt lat="44.76443" lon="6.33057">
        <ele>1832.2</ele>
        <time>2024-08-12T10:07:20Z</time>
      </trkpt>
      <trkpt lat="44.76442" lon="6.33054">
        <ele>1832</ele>
        <time>2024-08-12T10:07:21Z</time>
      </trkpt>
      <trkpt lat="44.76442" lon="6.33054">
        <ele>1831.8</ele>
        <time>2024-08-12T10:07:22Z</time>
      </trkpt>
      <trkpt lat="44.7644" lon="6.33051">
        <ele>1831.8</ele>
        <time>2024-08-12T10:07:23Z</time>
      </trkpt>
      <trkpt lat="44.7644" lon="6.33051">
        <ele>1831.8</ele>
        <time>2024-08-12T10:07:24Z</time>
      </trkpt>
      <trkpt lat="44.7644" lon="6.33048">
        <ele>1831.6</ele>
        <time>2024-08-12T10:07:25Z</time>
      </trkpt>
      <trkpt lat="44.7644" lon="6.33048">
        <ele>1831.4</ele>
        <time>2024-08-12T10:07:26Z</time>
      </trkpt>
      <trkpt lat="44.76438" lon="6.33045">
        <ele>1831</ele>
        <time>2024-08-12T10:07:27Z</time>
      </trkpt>
      <trkpt lat="44.76438" lon="6.33045">
        <ele>1831</ele>
        <time>2024-08-12T10:07:28Z</time>
      </trkpt>
      <trkpt lat="44.76437" lon="6.33041">
        <ele>1830.8</ele>
        <time>2024-08-12T10:07:29Z</time>
      </trkpt>
      <trkpt lat="44.76437" lon="6.33041">
        <ele>1830.8</ele>
        <time>2024-08-12T10:07:30Z</time>
      </trkpt>
      <trkpt lat="44.76437" lon="6.33039">
        <ele>1830.4</ele>
        <time>2024-08-12T10:07:31Z</time>
      </trkpt>
      <trkpt lat="44.76437" lon="6.33039">
        <ele>1830.2</ele>
        <time>2024-08-12T10:07:32Z</time>
      </trkpt>
      <trkpt lat="44.76436" lon="6.33036">
        <ele>1830.2</ele>
        <time>2024-08-12T10:07:33Z</time>
      </trkpt>
      <trkpt lat="44.76436" lon="6.33036">
        <ele>1830.2</ele>
        <time>2024-08-12T10:07:34Z</time>
      </trkpt>
      <trkpt lat="44.76435" lon="6.33034">
        <ele>1830.2</ele>
        <time>2024-08-12T10:07:35Z</time>
      </trkpt>
      <trkpt lat="44.76435" lon="6.33034">
        <ele>1830</ele>
        <time>2024-08-12T10:07:36Z</time>
      </trkpt>
      <trkpt lat="44.76433" lon="6.33031">
        <ele>1829.8</ele>
        <time>2024-08-12T10:07:37Z</time>
      </trkpt>
      <trkpt lat="44.76433" lon="6.33031">
        <ele>1829.6</ele>
        <time>2024-08-12T10:07:38Z</time>
      </trkpt>
      <trkpt lat="44.76432" lon="6.33028">
        <ele>1829.4</ele>
        <time>2024-08-12T10:07:39Z</time>
      </trkpt>
      <trkpt lat="44.76432" lon="6.33028">
        <ele>1829.2</ele>
        <time>2024-08-12T10:07:40Z</time>
      </trkpt>
      <trkpt lat="44.7643" lon="6.33025">
        <ele>1828.8</ele>
        <time>2024-08-12T10:07:41Z</time>
      </trkpt>
      <trkpt lat="44.7643" lon="6.33025">
        <ele>1828.8</ele>
        <time>2024-08-12T10:07:42Z</time>
      </trkpt>
      <trkpt lat="44.7643" lon="6.33021">
        <ele>1828.8</ele>
        <time>2024-08-12T10:07:43Z</time>
      </trkpt>
      <trkpt lat="44.7643" lon="6.33021">
        <ele>1828.6</ele>
        <time>2024-08-12T10:07:44Z</time>
      </trkpt>
      <trkpt lat="44.7643" lon="6.33018">
        <ele>1828.4</ele>
        <time>2024-08-12T10:07:45Z</time>
      </trkpt>
      <trkpt lat="44.7643" lon="6.33018">
        <ele>1828.2</ele>
        <time>2024-08-12T10:07:46Z</time>
      </trkpt>
      <trkpt lat="44.7643" lon="6.33015">
        <ele>1828.2</ele>
        <time>2024-08-12T10:07:47Z</time>
      </trkpt>
      <trkpt lat="44.7643" lon="6.33015">
        <ele>1828</ele>
        <time>2024-08-12T10:07:48Z</time>
      </trkpt>
      <trkpt lat="44.76431" lon="6.33012">
        <ele>1827.6</ele>
        <time>2024-08-12T10:07:49Z</time>
      </trkpt>
      <trkpt lat="44.76431" lon="6.33012">
        <ele>1827.4</ele>
        <time>2024-08-12T10:07:50Z</time>
      </trkpt>
      <trkpt lat="44.76432" lon="6.33009">
        <ele>1827.4</ele>
        <time>2024-08-12T10:07:51Z</time>
      </trkpt>
      <trkpt lat="44.76432" lon="6.33009">
        <ele>1827.4</ele>
        <time>2024-08-12T10:07:52Z</time>
      </trkpt>
      <trkpt lat="44.76432" lon="6.33005">
        <ele>1827</ele>
        <time>2024-08-12T10:07:53Z</time>
      </trkpt>
      <trkpt lat="44.76432" lon="6.33005">
        <ele>1827</ele>
        <time>2024-08-12T10:07:54Z</time>
      </trkpt>
      <trkpt lat="44.76432" lon="6.33002">
        <ele>1826.4</ele>
        <time>2024-08-12T10:07:55Z</time>
      </trkpt>
      <trkpt lat="44.76432" lon="6.33002">
        <ele>1826.4</ele>
        <time>2024-08-12T10:07:56Z</time>
      </trkpt>
      <trkpt lat="44.76432" lon="6.32999">
        <ele>1826.4</ele>
        <time>2024-08-12T10:07:57Z</time>
      </trkpt>
      <trkpt lat="44.76432" lon="6.32999">
        <ele>1826.2</ele>
        <time>2024-08-12T10:07:58Z</time>
      </trkpt>
      <trkpt lat="44.76431" lon="6.32996">
        <ele>1826</ele>
        <time>2024-08-12T10:07:59Z</time>
      </trkpt>
      <trkpt lat="44.76431" lon="6.32996">
        <ele>1826</ele>
        <time>2024-08-12T10:08:00Z</time>
      </trkpt>
      <trkpt lat="44.7643" lon="6.32993">
        <ele>1826</ele>
        <time>2024-08-12T10:08:01Z</time>
      </trkpt>
      <trkpt lat="44.7643" lon="6.32993">
        <ele>1825.8</ele>
        <time>2024-08-12T10:08:02Z</time>
      </trkpt>
      <trkpt lat="44.7643" lon="6.32989">
        <ele>1825.8</ele>
        <time>2024-08-12T10:08:03Z</time>
      </trkpt>
      <trkpt lat="44.7643" lon="6.32989">
        <ele>1825.8</ele>
        <time>2024-08-12T10:08:04Z</time>
      </trkpt>
      <trkpt lat="44.7643" lon="6.32986">
        <ele>1826</ele>
        <time>2024-08-12T10:08:05Z</time>
      </trkpt>
      <trkpt lat="44.7643" lon="6.32986">
        <ele>1826.2</ele>
        <time>2024-08-12T10:08:06Z</time>
      </trkpt>
      <trkpt lat="44.7643" lon="6.32982">
        <ele>1826.2</ele>
        <time>2024-08-12T10:08:07Z</time>
      </trkpt>
      <trkpt lat="44.7643" lon="6.32982">
        <ele>1826.4</ele>
        <time>2024-08-12T10:08:08Z</time>
      </trkpt>
      <trkpt lat="44.7643" lon="6.32979">
        <ele>1826.4</ele>
        <time>2024-08-12T10:08:09Z</time>
      </trkpt>
      <trkpt lat="44.7643" lon="6.32979">
        <ele>1826.6</ele>
        <time>2024-08-12T10:08:10Z</time>
      </trkpt>
      <trkpt lat="44.76431" lon="6.32975">
        <ele>1826.6</ele>
        <time>2024-08-12T10:08:11Z</time>
      </trkpt>
      <trkpt lat="44.76431" lon="6.32975">
        <ele>1826.4</ele>
        <time>2024-08-12T10:08:12Z</time>
      </trkpt>
      <trkpt lat="44.76432" lon="6.32972">
        <ele>1826.4</ele>
        <time>2024-08-12T10:08:13Z</time>
      </trkpt>
      <trkpt lat="44.76432" lon="6.32972">
        <ele>1826.4</ele>
        <time>2024-08-12T10:08:14Z</time>
      </trkpt>
      <trkpt lat="44.76433" lon="6.32969">
        <ele>1826.2</ele>
        <time>2024-08-12T10:08:15Z</time>
      </trkpt>
      <trkpt lat="44.76433" lon="6.32969">
        <ele>1826</ele>
        <time>2024-08-12T10:08:16Z</time>
      </trkpt>
      <trkpt lat="44.76433" lon="6.32965">
        <ele>1825.8</ele>
        <time>2024-08-12T10:08:17Z</time>
      </trkpt>
      <trkpt lat="44.76433" lon="6.32965">
        <ele>1825.4</ele>
        <time>2024-08-12T10:08:18Z</time>
      </trkpt>
      <trkpt lat="44.76433" lon="6.32962">
        <ele>1825.4</ele>
        <time>2024-08-12T10:08:19Z</time>
      </trkpt>
      <trkpt lat="44.76433" lon="6.32962">
        <ele>1825.4</ele>
        <time>2024-08-12T10:08:20Z</time>
      </trkpt>
      <trkpt lat="44.76433" lon="6.32959">
        <ele>1825.2</ele>
        <time>2024-08-12T10:08:21Z</time>
      </trkpt>
      <trkpt lat="44.76433" lon="6.32959">
        <ele>1825</ele>
        <time>2024-08-12T10:08:22Z</time>
      </trkpt>
      <trkpt lat="44.76432" lon="6.32956">
        <ele>1825</ele>
        <time>2024-08-12T10:08:23Z</time>
      </trkpt>
      <trkpt lat="44.76432" lon="6.32956">
        <ele>1825</ele>
        <time>2024-08-12T10:08:24Z</time>
      </trkpt>
      <trkpt lat="44.76432" lon="6.32953">
        <ele>1824.8</ele>
        <time>2024-08-12T10:08:25Z</time>
      </trkpt>
      <trkpt lat="44.76432" lon="6.32953">
        <ele>1824.6</ele>
        <time>2024-08-12T10:08:26Z</time>
      </trkpt>
      <trkpt lat="44.76431" lon="6.3295">
        <ele>1824.4</ele>
        <time>2024-08-12T10:08:27Z</time>
      </trkpt>
      <trkpt lat="44.76431" lon="6.3295">
        <ele>1824.4</ele>
        <time>2024-08-12T10:08:28Z</time>
      </trkpt>
      <trkpt lat="44.7643" lon="6.32948">
        <ele>1824.4</ele>
        <time>2024-08-12T10:08:29Z</time>
      </trkpt>
      <trkpt lat="44.7643" lon="6.32948">
        <ele>1824.2</ele>
        <time>2024-08-12T10:08:30Z</time>
      </trkpt>
      <trkpt lat="44.7643" lon="6.32945">
        <ele>1824</ele>
        <time>2024-08-12T10:08:31Z</time>
      </trkpt>
      <trkpt lat="44.7643" lon="6.32945">
        <ele>1823.6</ele>
        <time>2024-08-12T10:08:32Z</time>
      </trkpt>
      <trkpt lat="44.7643" lon="6.32942">
        <ele>1823.6</ele>
        <time>2024-08-12T10:08:33Z</time>
      </trkpt>
      <trkpt lat="44.7643" lon="6.32942">
        <ele>1823.4</ele>
        <time>2024-08-12T10:08:34Z</time>
      </trkpt>
      <trkpt lat="44.7643" lon="6.32939">
        <ele>1823.2</ele>
        <time>2024-08-12T10:08:35Z</time>
      </trkpt>
      <trkpt lat="44.7643" lon="6.32939">
        <ele>1822.8</ele>
        <time>2024-08-12T10:08:36Z</time>
      </trkpt>
      <trkpt lat="44.7643" lon="6.32939">
        <ele>1822.6</ele>
        <time>2024-08-12T10:08:37Z</time>
      </trkpt>
      <trkpt lat="44.7643" lon="6.32937">
        <ele>1822.2</ele>
        <time>2024-08-12T10:08:38Z</time>
      </trkpt>
      <trkpt lat="44.7643" lon="6.32937">
        <ele>1821.8</ele>
        <time>2024-08-12T10:08:39Z</time>
      </trkpt>
      <trkpt lat="44.76431" lon="6.32934">
        <ele>1821.4</ele>
        <time>2024-08-12T10:08:40Z</time>
      </trkpt>
      <trkpt lat="44.76431" lon="6.32934">
        <ele>1821.4</ele>
        <time>2024-08-12T10:08:41Z</time>
      </trkpt>
      <trkpt lat="44.76432" lon="6.32931">
        <ele>1821.4</ele>
        <time>2024-08-12T10:08:42Z</time>
      </trkpt>
      <trkpt lat="44.76432" lon="6.32931">
        <ele>1821.2</ele>
        <time>2024-08-12T10:08:43Z</time>
      </trkpt>
      <trkpt lat="44.76432" lon="6.32928">
        <ele>1820.8</ele>
        <time>2024-08-12T10:08:44Z</time>
      </trkpt>
      <trkpt lat="44.76432" lon="6.32928">
        <ele>1820.8</ele>
        <time>2024-08-12T10:08:45Z</time>
      </trkpt>
      <trkpt lat="44.76432" lon="6.32925">
        <ele>1820.6</ele>
        <time>2024-08-12T10:08:46Z</time>
      </trkpt>
      <trkpt lat="44.76432" lon="6.32925">
        <ele>1820.4</ele>
        <time>2024-08-12T10:08:47Z</time>
      </trkpt>
      <trkpt lat="44.76431" lon="6.32921">
        <ele>1820.2</ele>
        <time>2024-08-12T10:08:48Z</time>
      </trkpt>
      <trkpt lat="44.76431" lon="6.32921">
        <ele>1820.2</ele>
        <time>2024-08-12T10:08:49Z</time>
      </trkpt>
      <trkpt lat="44.7643" lon="6.32918">
        <ele>1820</ele>
        <time>2024-08-12T10:08:50Z</time>
      </trkpt>
      <trkpt lat="44.7643" lon="6.32918">
        <ele>1819.8</ele>
        <time>2024-08-12T10:08:51Z</time>
      </trkpt>
      <trkpt lat="44.76431" lon="6.32916">
        <ele>1819.6</ele>
        <time>2024-08-12T10:08:52Z</time>
      </trkpt>
      <trkpt lat="44.76431" lon="6.32916">
        <ele>1819.2</ele>
        <time>2024-08-12T10:08:53Z</time>
      </trkpt>
      <trkpt lat="44.76432" lon="6.32912">
        <ele>1818.8</ele>
        <time>2024-08-12T10:08:54Z</time>
      </trkpt>
      <trkpt lat="44.76432" lon="6.32912">
        <ele>1818.6</ele>
        <time>2024-08-12T10:08:55Z</time>
      </trkpt>
      <trkpt lat="44.76432" lon="6.32909">
        <ele>1818.4</ele>
        <time>2024-08-12T10:08:56Z</time>
      </trkpt>
      <trkpt lat="44.76432" lon="6.32909">
        <ele>1818.2</ele>
        <time>2024-08-12T10:08:57Z</time>
      </trkpt>
      <trkpt lat="44.76433" lon="6.32906">
        <ele>1818.2</ele>
        <time>2024-08-12T10:08:58Z</time>
      </trkpt>
      <trkpt lat="44.76433" lon="6.32906">
        <ele>1817.6</ele>
        <time>2024-08-12T10:08:59Z</time>
      </trkpt>
      <trkpt lat="44.76434" lon="6.32902">
        <ele>1817.2</ele>
        <time>2024-08-12T10:09:00Z</time>
      </trkpt>
      <trkpt lat="44.76434" lon="6.32902">
        <ele>1816.8</ele>
        <time>2024-08-12T10:09:01Z</time>
      </trkpt>
      <trkpt lat="44.76434" lon="6.32898">
        <ele>1816.6</ele>
        <time>2024-08-12T10:09:02Z</time>
      </trkpt>
      <trkpt lat="44.76434" lon="6.32898">
        <ele>1816.6</ele>
        <time>2024-08-12T10:09:03Z</time>
      </trkpt>
      <trkpt lat="44.76436" lon="6.32895">
        <ele>1816.6</ele>
        <time>2024-08-12T10:09:04Z</time>
      </trkpt>
      <trkpt lat="44.76436" lon="6.32895">
        <ele>1816.6</ele>
        <time>2024-08-12T10:09:05Z</time>
      </trkpt>
      <trkpt lat="44.76438" lon="6.32896">
        <ele>1816.2</ele>
        <time>2024-08-12T10:09:06Z</time>
      </trkpt>
      <trkpt lat="44.76438" lon="6.32896">
        <ele>1816.2</ele>
        <time>2024-08-12T10:09:07Z</time>
      </trkpt>
      <trkpt lat="44.76438" lon="6.32896">
        <ele>1816</ele>
        <time>2024-08-12T10:09:08Z</time>
      </trkpt>
      <trkpt lat="44.7644" lon="6.32895">
        <ele>1816</ele>
        <time>2024-08-12T10:09:09Z</time>
      </trkpt>
      <trkpt lat="44.7644" lon="6.32895">
        <ele>1815.8</ele>
        <time>2024-08-12T10:09:10Z</time>
      </trkpt>
      <trkpt lat="44.76442" lon="6.32893">
        <ele>1815.8</ele>
        <time>2024-08-12T10:09:11Z</time>
      </trkpt>
      <trkpt lat="44.76442" lon="6.32893">
        <ele>1816</ele>
        <time>2024-08-12T10:09:12Z</time>
      </trkpt>
      <trkpt lat="44.76443" lon="6.3289">
        <ele>1816</ele>
        <time>2024-08-12T10:09:13Z</time>
      </trkpt>
      <trkpt lat="44.76443" lon="6.3289">
        <ele>1816</ele>
        <time>2024-08-12T10:09:14Z</time>
      </trkpt>
      <trkpt lat="44.76445" lon="6.32887">
        <ele>1816</ele>
        <time>2024-08-12T10:09:15Z</time>
      </trkpt>
      <trkpt lat="44.76445" lon="6.32887">
        <ele>1815.8</ele>
        <time>2024-08-12T10:09:16Z</time>
      </trkpt>
      <trkpt lat="44.76447" lon="6.32885">
        <ele>1815.4</ele>
        <time>2024-08-12T10:09:17Z</time>
      </trkpt>
      <trkpt lat="44.76447" lon="6.32885">
        <ele>1815.2</ele>
        <time>2024-08-12T10:09:18Z</time>
      </trkpt>
      <trkpt lat="44.76449" lon="6.32882">
        <ele>1815</ele>
        <time>2024-08-12T10:09:19Z</time>
      </trkpt>
      <trkpt lat="44.76449" lon="6.32882">
        <ele>1815</ele>
        <time>2024-08-12T10:09:20Z</time>
      </trkpt>
      <trkpt lat="44.76452" lon="6.32882">
        <ele>1814.8</ele>
        <time>2024-08-12T10:09:21Z</time>
      </trkpt>
      <trkpt lat="44.76452" lon="6.32882">
        <ele>1814.8</ele>
        <time>2024-08-12T10:09:22Z</time>
      </trkpt>
      <trkpt lat="44.76454" lon="6.32882">
        <ele>1815</ele>
        <time>2024-08-12T10:09:23Z</time>
      </trkpt>
      <trkpt lat="44.76454" lon="6.32882">
        <ele>1815</ele>
        <time>2024-08-12T10:09:24Z</time>
      </trkpt>
      <trkpt lat="44.76457" lon="6.32882">
        <ele>1814.8</ele>
        <time>2024-08-12T10:09:25Z</time>
      </trkpt>
      <trkpt lat="44.76457" lon="6.32882">
        <ele>1814.6</ele>
        <time>2024-08-12T10:09:26Z</time>
      </trkpt>
      <trkpt lat="44.76459" lon="6.32882">
        <ele>1814.4</ele>
        <time>2024-08-12T10:09:27Z</time>
      </trkpt>
      <trkpt lat="44.76459" lon="6.32882">
        <ele>1814.4</ele>
        <time>2024-08-12T10:09:28Z</time>
      </trkpt>
      <trkpt lat="44.76459" lon="6.32882">
        <ele>1814.4</ele>
        <time>2024-08-12T10:09:29Z</time>
      </trkpt>
      <trkpt lat="44.76461" lon="6.3288">
        <ele>1814.4</ele>
        <time>2024-08-12T10:09:30Z</time>
      </trkpt>
      <trkpt lat="44.76461" lon="6.3288">
        <ele>1814.4</ele>
        <time>2024-08-12T10:09:31Z</time>
      </trkpt>
      <trkpt lat="44.76463" lon="6.32878">
        <ele>1814.4</ele>
        <time>2024-08-12T10:09:32Z</time>
      </trkpt>
      <trkpt lat="44.76463" lon="6.32878">
        <ele>1814.4</ele>
        <time>2024-08-12T10:09:33Z</time>
      </trkpt>
      <trkpt lat="44.76466" lon="6.32876">
        <ele>1814.2</ele>
        <time>2024-08-12T10:09:34Z</time>
      </trkpt>
      <trkpt lat="44.76466" lon="6.32876">
        <ele>1814</ele>
        <time>2024-08-12T10:09:35Z</time>
      </trkpt>
      <trkpt lat="44.76467" lon="6.32874">
        <ele>1814</ele>
        <time>2024-08-12T10:09:36Z</time>
      </trkpt>
      <trkpt lat="44.76467" lon="6.32874">
        <ele>1814</ele>
        <time>2024-08-12T10:09:37Z</time>
      </trkpt>
      <trkpt lat="44.76469" lon="6.32872">
        <ele>1814</ele>
        <time>2024-08-12T10:09:38Z</time>
      </trkpt>
      <trkpt lat="44.76469" lon="6.32872">
        <ele>1814</ele>
        <time>2024-08-12T10:09:39Z</time>
      </trkpt>
      <trkpt lat="44.76472" lon="6.32872">
        <ele>1814</ele>
        <time>2024-08-12T10:09:40Z</time>
      </trkpt>
      <trkpt lat="44.76472" lon="6.32872">
        <ele>1814.2</ele>
        <time>2024-08-12T10:09:41Z</time>
      </trkpt>
      <trkpt lat="44.76474" lon="6.32871">
        <ele>1814.4</ele>
        <time>2024-08-12T10:09:42Z</time>
      </trkpt>
      <trkpt lat="44.76474" lon="6.32871">
        <ele>1814.8</ele>
        <time>2024-08-12T10:09:43Z</time>
      </trkpt>
      <trkpt lat="44.76476" lon="6.32872">
        <ele>1814.8</ele>
        <time>2024-08-12T10:09:44Z</time>
      </trkpt>
      <trkpt lat="44.76476" lon="6.32872">
        <ele>1814.8</ele>
        <time>2024-08-12T10:09:45Z</time>
      </trkpt>
      <trkpt lat="44.76477" lon="6.32874">
        <ele>1814.6</ele>
        <time>2024-08-12T10:09:46Z</time>
      </trkpt>
      <trkpt lat="44.76477" lon="6.32874">
        <ele>1814.6</ele>
        <time>2024-08-12T10:09:47Z</time>
      </trkpt>
      <trkpt lat="44.76477" lon="6.32874">
        <ele>1814.4</ele>
        <time>2024-08-12T10:09:48Z</time>
      </trkpt>
      <trkpt lat="44.76477" lon="6.32874">
        <ele>1814.2</ele>
        <time>2024-08-12T10:09:49Z</time>
      </trkpt>
      <trkpt lat="44.76477" lon="6.32874">
        <ele>1814.2</ele>
        <time>2024-08-12T10:09:50Z</time>
      </trkpt>
      <trkpt lat="44.76477" lon="6.32874">
        <ele>1814.6</ele>
        <time>2024-08-12T10:09:51Z</time>
      </trkpt>
      <trkpt lat="44.76477" lon="6.32874">
        <ele>1814.6</ele>
        <time>2024-08-12T10:09:52Z</time>
      </trkpt>
      <trkpt lat="44.76477" lon="6.32874">
        <ele>1814.8</ele>
        <time>2024-08-12T10:09:53Z</time>
      </trkpt>
      <trkpt lat="44.76477" lon="6.32874">
        <ele>1814.8</ele>
        <time>2024-08-12T10:09:54Z</time>
      </trkpt>
      <trkpt lat="44.76477" lon="6.32874">
        <ele>1814.8</ele>
        <time>2024-08-12T10:09:55Z</time>
      </trkpt>
      <trkpt lat="44.76479" lon="6.32875">
        <ele>1814.8</ele>
        <time>2024-08-12T10:09:56Z</time>
      </trkpt>
      <trkpt lat="44.76479" lon="6.32875">
        <ele>1814.8</ele>
        <time>2024-08-12T10:09:57Z</time>
      </trkpt>
      <trkpt lat="44.76482" lon="6.32876">
        <ele>1814.2</ele>
        <time>2024-08-12T10:09:58Z</time>
      </trkpt>
      <trkpt lat="44.76482" lon="6.32876">
        <ele>1813.6</ele>
        <time>2024-08-12T10:09:59Z</time>
      </trkpt>
      <trkpt lat="44.76484" lon="6.32878">
        <ele>1813.6</ele>
        <time>2024-08-12T10:10:00Z</time>
      </trkpt>
      <trkpt lat="44.76484" lon="6.32878">
        <ele>1813.4</ele>
        <time>2024-08-12T10:10:01Z</time>
      </trkpt>
      <trkpt lat="44.76486" lon="6.3288">
        <ele>1813.4</ele>
        <time>2024-08-12T10:10:02Z</time>
      </trkpt>
      <trkpt lat="44.76486" lon="6.3288">
        <ele>1813.4</ele>
        <time>2024-08-12T10:10:03Z</time>
      </trkpt>
      <trkpt lat="44.76488" lon="6.3288">
        <ele>1813.4</ele>
        <time>2024-08-12T10:10:04Z</time>
      </trkpt>
      <trkpt lat="44.76488" lon="6.3288">
        <ele>1813.4</ele>
        <time>2024-08-12T10:10:05Z</time>
      </trkpt>
      <trkpt lat="44.7649" lon="6.32879">
        <ele>1813.4</ele>
        <time>2024-08-12T10:10:06Z</time>
      </trkpt>
      <trkpt lat="44.7649" lon="6.32879">
        <ele>1813.4</ele>
        <time>2024-08-12T10:10:07Z</time>
      </trkpt>
      <trkpt lat="44.7649" lon="6.32879">
        <ele>1813.2</ele>
        <time>2024-08-12T10:10:08Z</time>
      </trkpt>
      <trkpt lat="44.76493" lon="6.32878">
        <ele>1813.2</ele>
        <time>2024-08-12T10:10:09Z</time>
      </trkpt>
      <trkpt lat="44.76493" lon="6.32878">
        <ele>1813.4</ele>
        <time>2024-08-12T10:10:10Z</time>
      </trkpt>
      <trkpt lat="44.76495" lon="6.32878">
        <ele>1813.6</ele>
        <time>2024-08-12T10:10:11Z</time>
      </trkpt>
      <trkpt lat="44.76495" lon="6.32878">
        <ele>1813.8</ele>
        <time>2024-08-12T10:10:12Z</time>
      </trkpt>
      <trkpt lat="44.76497" lon="6.32877">
        <ele>1814</ele>
        <time>2024-08-12T10:10:13Z</time>
      </trkpt>
      <trkpt lat="44.76497" lon="6.32877">
        <ele>1814</ele>
        <time>2024-08-12T10:10:14Z</time>
      </trkpt>
      <trkpt lat="44.76497" lon="6.32877">
        <ele>1814</ele>
        <time>2024-08-12T10:10:15Z</time>
      </trkpt>
      <trkpt lat="44.76499" lon="6.32877">
        <ele>1814</ele>
        <time>2024-08-12T10:10:16Z</time>
      </trkpt>
      <trkpt lat="44.76499" lon="6.32877">
        <ele>1814.2</ele>
        <time>2024-08-12T10:10:17Z</time>
      </trkpt>
      <trkpt lat="44.76499" lon="6.32877">
        <ele>1814.2</ele>
        <time>2024-08-12T10:10:18Z</time>
      </trkpt>
      <trkpt lat="44.76501" lon="6.32874">
        <ele>1814.2</ele>
        <time>2024-08-12T10:10:19Z</time>
      </trkpt>
      <trkpt lat="44.76501" lon="6.32874">
        <ele>1814.2</ele>
        <time>2024-08-12T10:10:20Z</time>
      </trkpt>
      <trkpt lat="44.76501" lon="6.32874">
        <ele>1814</ele>
        <time>2024-08-12T10:10:21Z</time>
      </trkpt>
      <trkpt lat="44.76501" lon="6.32874">
        <ele>1813.8</ele>
        <time>2024-08-12T10:10:22Z</time>
      </trkpt>
      <trkpt lat="44.76501" lon="6.32874">
        <ele>1813.8</ele>
        <time>2024-08-12T10:10:23Z</time>
      </trkpt>
      <trkpt lat="44.76501" lon="6.32874">
        <ele>1813.8</ele>
        <time>2024-08-12T10:10:24Z</time>
      </trkpt>
      <trkpt lat="44.76501" lon="6.32874">
        <ele>1813.6</ele>
        <time>2024-08-12T10:10:25Z</time>
      </trkpt>
      <trkpt lat="44.76503" lon="6.32875">
        <ele>1813.6</ele>
        <time>2024-08-12T10:10:26Z</time>
      </trkpt>
      <trkpt lat="44.76503" lon="6.32875">
        <ele>1813.6</ele>
        <time>2024-08-12T10:10:27Z</time>
      </trkpt>
      <trkpt lat="44.76503" lon="6.32875">
        <ele>1813.6</ele>
        <time>2024-08-12T10:10:28Z</time>
      </trkpt>
      <trkpt lat="44.76503" lon="6.32875">
        <ele>1813.8</ele>
        <time>2024-08-12T10:10:29Z</time>
      </trkpt>
      <trkpt lat="44.76503" lon="6.32875">
        <ele>1813.8</ele>
        <time>2024-08-12T10:10:30Z</time>
      </trkpt>
      <trkpt lat="44.76503" lon="6.32875">
        <ele>1813.8</ele>
        <time>2024-08-12T10:10:31Z</time>
      </trkpt>
      <trkpt lat="44.76503" lon="6.32875">
        <ele>1813.8</ele>
        <time>2024-08-12T10:10:32Z</time>
      </trkpt>
      <trkpt lat="44.76503" lon="6.32875">
        <ele>1813.8</ele>
        <time>2024-08-12T10:10:33Z</time>
      </trkpt>
      <trkpt lat="44.76503" lon="6.32875">
        <ele>1813.8</ele>
        <time>2024-08-12T10:10:34Z</time>
      </trkpt>
      <trkpt lat="44.76503" lon="6.32875">
        <ele>1813.4</ele>
        <time>2024-08-12T10:10:35Z</time>
      </trkpt>
      <trkpt lat="44.76503" lon="6.32875">
        <ele>1813.4</ele>
        <time>2024-08-12T10:10:36Z</time>
      </trkpt>
      <trkpt lat="44.76503" lon="6.32875">
        <ele>1813.2</ele>
        <time>2024-08-12T10:10:37Z</time>
      </trkpt>
      <trkpt lat="44.76503" lon="6.32875">
        <ele>1813.4</ele>
        <time>2024-08-12T10:10:38Z</time>
      </trkpt>
      <trkpt lat="44.76503" lon="6.32875">
        <ele>1813.4</ele>
        <time>2024-08-12T10:10:39Z</time>
      </trkpt>
      <trkpt lat="44.76503" lon="6.32875">
        <ele>1813.6</ele>
        <time>2024-08-12T10:10:40Z</time>
      </trkpt>
      <trkpt lat="44.76503" lon="6.32875">
        <ele>1813.6</ele>
        <time>2024-08-12T10:10:41Z</time>
      </trkpt>
      <trkpt lat="44.76503" lon="6.32875">
        <ele>1813.4</ele>
        <time>2024-08-12T10:10:42Z</time>
      </trkpt>
      <trkpt lat="44.76503" lon="6.32875">
        <ele>1813.2</ele>
        <time>2024-08-12T10:10:43Z</time>
      </trkpt>
      <trkpt lat="44.76503" lon="6.32875">
        <ele>1813</ele>
        <time>2024-08-12T10:10:44Z</time>
      </trkpt>
      <trkpt lat="44.76503" lon="6.32875">
        <ele>1812.8</ele>
        <time>2024-08-12T10:10:45Z</time>
      </trkpt>
      <trkpt lat="44.76503" lon="6.32875">
        <ele>1812.8</ele>
        <time>2024-08-12T10:10:46Z</time>
      </trkpt>
      <trkpt lat="44.76503" lon="6.32875">
        <ele>1812.8</ele>
        <time>2024-08-12T10:10:47Z</time>
      </trkpt>
      <trkpt lat="44.76503" lon="6.32875">
        <ele>1813</ele>
        <time>2024-08-12T10:10:48Z</time>
      </trkpt>
      <trkpt lat="44.76503" lon="6.32875">
        <ele>1813</ele>
        <time>2024-08-12T10:10:49Z</time>
      </trkpt>
      <trkpt lat="44.76503" lon="6.32875">
        <ele>1813</ele>
        <time>2024-08-12T10:10:50Z</time>
      </trkpt>
      <trkpt lat="44.76503" lon="6.32875">
        <ele>1813</ele>
        <time>2024-08-12T10:10:51Z</time>
      </trkpt>
      <trkpt lat="44.76503" lon="6.32875">
        <ele>1813</ele>
        <time>2024-08-12T10:10:52Z</time>
      </trkpt>
      <trkpt lat="44.76503" lon="6.32875">
        <ele>1813</ele>
        <time>2024-08-12T10:10:53Z</time>
      </trkpt>
      <trkpt lat="44.76503" lon="6.32875">
        <ele>1813</ele>
        <time>2024-08-12T10:10:54Z</time>
      </trkpt>
      <trkpt lat="44.76503" lon="6.32875">
        <ele>1813.2</ele>
        <time>2024-08-12T10:10:55Z</time>
      </trkpt>
      <trkpt lat="44.76503" lon="6.32875">
        <ele>1813</ele>
        <time>2024-08-12T10:10:56Z</time>
      </trkpt>
      <trkpt lat="44.76503" lon="6.32875">
        <ele>1813.2</ele>
        <time>2024-08-12T10:10:57Z</time>
      </trkpt>
      <trkpt lat="44.76503" lon="6.32875">
        <ele>1813.2</ele>
        <time>2024-08-12T10:10:58Z</time>
      </trkpt>
      <trkpt lat="44.76503" lon="6.32875">
        <ele>1813</ele>
        <time>2024-08-12T10:10:59Z</time>
      </trkpt>
      <trkpt lat="44.76503" lon="6.32875">
        <ele>1813</ele>
        <time>2024-08-12T10:11:00Z</time>
      </trkpt>
      <trkpt lat="44.76503" lon="6.32875">
        <ele>1813</ele>
        <time>2024-08-12T10:11:01Z</time>
      </trkpt>
      <trkpt lat="44.76503" lon="6.32875">
        <ele>1813.2</ele>
        <time>2024-08-12T10:11:02Z</time>
      </trkpt>
      <trkpt lat="44.76503" lon="6.32875">
        <ele>1813.2</ele>
        <time>2024-08-12T10:11:03Z</time>
      </trkpt>
      <trkpt lat="44.76503" lon="6.32875">
        <ele>1813</ele>
        <time>2024-08-12T10:11:04Z</time>
      </trkpt>
      <trkpt lat="44.76503" lon="6.32875">
        <ele>1813</ele>
        <time>2024-08-12T10:11:05Z</time>
      </trkpt>
      <trkpt lat="44.76503" lon="6.32875">
        <ele>1813</ele>
        <time>2024-08-12T10:11:06Z</time>
      </trkpt>
      <trkpt lat="44.76503" lon="6.32875">
        <ele>1813</ele>
        <time>2024-08-12T10:11:07Z</time>
      </trkpt>
      <trkpt lat="44.76503" lon="6.32875">
        <ele>1813</ele>
        <time>2024-08-12T10:11:08Z</time>
      </trkpt>
      <trkpt lat="44.76503" lon="6.32875">
        <ele>1812.8</ele>
        <time>2024-08-12T10:11:09Z</time>
      </trkpt>
      <trkpt lat="44.76503" lon="6.32875">
        <ele>1812.8</ele>
        <time>2024-08-12T10:11:10Z</time>
      </trkpt>
      <trkpt lat="44.76503" lon="6.32875">
        <ele>1812.8</ele>
        <time>2024-08-12T10:11:11Z</time>
      </trkpt>
      <trkpt lat="44.76503" lon="6.32875">
        <ele>1812.6</ele>
        <time>2024-08-12T10:11:12Z</time>
      </trkpt>
      <trkpt lat="44.76503" lon="6.32875">
        <ele>1812.6</ele>
        <time>2024-08-12T10:11:13Z</time>
      </trkpt>
      <trkpt lat="44.76503" lon="6.32875">
        <ele>1812.6</ele>
        <time>2024-08-12T10:11:14Z</time>
      </trkpt>
      <trkpt lat="44.76503" lon="6.32875">
        <ele>1812.6</ele>
        <time>2024-08-12T10:11:15Z</time>
      </trkpt>
      <trkpt lat="44.76503" lon="6.32875">
        <ele>1812.6</ele>
        <time>2024-08-12T10:11:16Z</time>
      </trkpt>
      <trkpt lat="44.76503" lon="6.32875">
        <ele>1812.6</ele>
        <time>2024-08-12T10:11:17Z</time>
      </trkpt>
      <trkpt lat="44.76503" lon="6.32875">
        <ele>1812.2</ele>
        <time>2024-08-12T10:11:18Z</time>
      </trkpt>
      <trkpt lat="44.76503" lon="6.32875">
        <ele>1812.2</ele>
        <time>2024-08-12T10:11:19Z</time>
      </trkpt>
      <trkpt lat="44.76503" lon="6.32875">
        <ele>1812.2</ele>
        <time>2024-08-12T10:11:20Z</time>
      </trkpt>
      <trkpt lat="44.76503" lon="6.32875">
        <ele>1812.2</ele>
        <time>2024-08-12T10:11:21Z</time>
      </trkpt>
      <trkpt lat="44.76503" lon="6.32875">
        <ele>1811.8</ele>
        <time>2024-08-12T10:11:22Z</time>
      </trkpt>
      <trkpt lat="44.76503" lon="6.32875">
        <ele>1811.8</ele>
        <time>2024-08-12T10:11:23Z</time>
      </trkpt>
      <trkpt lat="44.76503" lon="6.32875">
        <ele>1811.8</ele>
        <time>2024-08-12T10:11:24Z</time>
      </trkpt>
      <trkpt lat="44.76503" lon="6.32875">
        <ele>1811.8</ele>
        <time>2024-08-12T10:11:25Z</time>
      </trkpt>
      <trkpt lat="44.76503" lon="6.32875">
        <ele>1811.8</ele>
        <time>2024-08-12T10:11:26Z</time>
      </trkpt>
      <trkpt lat="44.76503" lon="6.32875">
        <ele>1811.8</ele>
        <time>2024-08-12T10:11:27Z</time>
      </trkpt>
      <trkpt lat="44.76503" lon="6.32875">
        <ele>1811.8</ele>
        <time>2024-08-12T10:11:28Z</time>
      </trkpt>
      <trkpt lat="44.76503" lon="6.32875">
        <ele>1811.8</ele>
        <time>2024-08-12T10:11:29Z</time>
      </trkpt>
      <trkpt lat="44.76503" lon="6.32875">
        <ele>1811.4</ele>
        <time>2024-08-12T10:11:30Z</time>
      </trkpt>
      <trkpt lat="44.76503" lon="6.32875">
        <ele>1811.2</ele>
        <time>2024-08-12T10:11:31Z</time>
      </trkpt>
      <trkpt lat="44.76503" lon="6.32875">
        <ele>1811.2</ele>
        <time>2024-08-12T10:11:32Z</time>
      </trkpt>
      <trkpt lat="44.76503" lon="6.32875">
        <ele>1811.4</ele>
        <time>2024-08-12T10:11:33Z</time>
      </trkpt>
      <trkpt lat="44.76503" lon="6.32875">
        <ele>1811.4</ele>
        <time>2024-08-12T10:11:34Z</time>
      </trkpt>
      <trkpt lat="44.76503" lon="6.32875">
        <ele>1811.6</ele>
        <time>2024-08-12T10:11:35Z</time>
      </trkpt>
      <trkpt lat="44.76503" lon="6.32875">
        <ele>1811.6</ele>
        <time>2024-08-12T10:11:36Z</time>
      </trkpt>
      <trkpt lat="44.76503" lon="6.32875">
        <ele>1811.6</ele>
        <time>2024-08-12T10:11:37Z</time>
      </trkpt>
      <trkpt lat="44.76503" lon="6.32875">
        <ele>1811.6</ele>
        <time>2024-08-12T10:11:38Z</time>
      </trkpt>
      <trkpt lat="44.76503" lon="6.32875">
        <ele>1811.6</ele>
        <time>2024-08-12T10:11:39Z</time>
      </trkpt>
      <trkpt lat="44.76503" lon="6.32875">
        <ele>1811.8</ele>
        <time>2024-08-12T10:11:40Z</time>
      </trkpt>
      <trkpt lat="44.76503" lon="6.32875">
        <ele>1811.8</ele>
        <time>2024-08-12T10:11:41Z</time>
      </trkpt>
      <trkpt lat="44.76503" lon="6.32875">
        <ele>1811.8</ele>
        <time>2024-08-12T10:11:42Z</time>
      </trkpt>
      <trkpt lat="44.76503" lon="6.32875">
        <ele>1811.8</ele>
        <time>2024-08-12T10:11:43Z</time>
      </trkpt>
      <trkpt lat="44.76503" lon="6.32875">
        <ele>1811.8</ele>
        <time>2024-08-12T10:11:44Z</time>
      </trkpt>
      <trkpt lat="44.76503" lon="6.32875">
        <ele>1811.4</ele>
        <time>2024-08-12T10:11:45Z</time>
      </trkpt>
      <trkpt lat="44.76503" lon="6.32875">
        <ele>1811.4</ele>
        <time>2024-08-12T10:11:46Z</time>
      </trkpt>
      <trkpt lat="44.76503" lon="6.32875">
        <ele>1811.4</ele>
        <time>2024-08-12T10:11:47Z</time>
      </trkpt>
      <trkpt lat="44.76503" lon="6.32875">
        <ele>1811.4</ele>
        <time>2024-08-12T10:11:48Z</time>
      </trkpt>
      <trkpt lat="44.76503" lon="6.32875">
        <ele>1811.2</ele>
        <time>2024-08-12T10:11:49Z</time>
      </trkpt>
      <trkpt lat="44.76503" lon="6.32875">
        <ele>1811.2</ele>
        <time>2024-08-12T10:11:50Z</time>
      </trkpt>
      <trkpt lat="44.76503" lon="6.32875">
        <ele>1811.2</ele>
        <time>2024-08-12T10:11:51Z</time>
      </trkpt>
      <trkpt lat="44.76503" lon="6.32875">
        <ele>1811.4</ele>
        <time>2024-08-12T10:11:52Z</time>
      </trkpt>
      <trkpt lat="44.76503" lon="6.32875">
        <ele>1811.4</ele>
        <time>2024-08-12T10:11:53Z</time>
      </trkpt>
      <trkpt lat="44.76503" lon="6.32875">
        <ele>1811.4</ele>
        <time>2024-08-12T10:11:54Z</time>
      </trkpt>
      <trkpt lat="44.76503" lon="6.32875">
        <ele>1811.2</ele>
        <time>2024-08-12T10:11:55Z</time>
      </trkpt>
      <trkpt lat="44.76503" lon="6.32875">
        <ele>1811.2</ele>
        <time>2024-08-12T10:11:56Z</time>
      </trkpt>
      <trkpt lat="44.76503" lon="6.32875">
        <ele>1811.2</ele>
        <time>2024-08-12T10:11:57Z</time>
      </trkpt>
      <trkpt lat="44.76503" lon="6.32875">
        <ele>1811</ele>
        <time>2024-08-12T10:11:58Z</time>
      </trkpt>
      <trkpt lat="44.76503" lon="6.32875">
        <ele>1811</ele>
        <time>2024-08-12T10:11:59Z</time>
      </trkpt>
      <trkpt lat="44.76503" lon="6.32875">
        <ele>1811</ele>
        <time>2024-08-12T10:12:00Z</time>
      </trkpt>
      <trkpt lat="44.76503" lon="6.32875">
        <ele>1810.8</ele>
        <time>2024-08-12T10:12:01Z</time>
      </trkpt>
      <trkpt lat="44.76503" lon="6.32875">
        <ele>1810.8</ele>
        <time>2024-08-12T10:12:02Z</time>
      </trkpt>
      <trkpt lat="44.76503" lon="6.32875">
        <ele>1810.8</ele>
        <time>2024-08-12T10:12:03Z</time>
      </trkpt>
      <trkpt lat="44.76503" lon="6.32875">
        <ele>1810.8</ele>
        <time>2024-08-12T10:12:04Z</time>
      </trkpt>
      <trkpt lat="44.76503" lon="6.32875">
        <ele>1810.6</ele>
        <time>2024-08-12T10:12:05Z</time>
      </trkpt>
      <trkpt lat="44.76503" lon="6.32875">
        <ele>1810.6</ele>
        <time>2024-08-12T10:12:06Z</time>
      </trkpt>
      <trkpt lat="44.76503" lon="6.32875">
        <ele>1810.6</ele>
        <time>2024-08-12T10:12:07Z</time>
      </trkpt>
      <trkpt lat="44.76503" lon="6.32875">
        <ele>1810.6</ele>
        <time>2024-08-12T10:12:08Z</time>
      </trkpt>
      <trkpt lat="44.76503" lon="6.32875">
        <ele>1810.4</ele>
        <time>2024-08-12T10:12:09Z</time>
      </trkpt>
      <trkpt lat="44.76503" lon="6.32875">
        <ele>1810.6</ele>
        <time>2024-08-12T10:12:10Z</time>
      </trkpt>
      <trkpt lat="44.76503" lon="6.32875">
        <ele>1810.6</ele>
        <time>2024-08-12T10:12:11Z</time>
      </trkpt>
      <trkpt lat="44.76503" lon="6.32875">
        <ele>1810.6</ele>
        <time>2024-08-12T10:12:12Z</time>
      </trkpt>
      <trkpt lat="44.76503" lon="6.32875">
        <ele>1810.6</ele>
        <time>2024-08-12T10:12:13Z</time>
      </trkpt>
      <trkpt lat="44.76503" lon="6.32875">
        <ele>1810.6</ele>
        <time>2024-08-12T10:12:14Z</time>
      </trkpt>
      <trkpt lat="44.76503" lon="6.32875">
        <ele>1810.6</ele>
        <time>2024-08-12T10:12:15Z</time>
      </trkpt>
      <trkpt lat="44.76503" lon="6.32875">
        <ele>1810.6</ele>
        <time>2024-08-12T10:12:16Z</time>
      </trkpt>
      <trkpt lat="44.76503" lon="6.32875">
        <ele>1810.8</ele>
        <time>2024-08-12T10:12:17Z</time>
      </trkpt>
      <trkpt lat="44.76503" lon="6.32875">
        <ele>1810.8</ele>
        <time>2024-08-12T10:12:18Z</time>
      </trkpt>
      <trkpt lat="44.76503" lon="6.32875">
        <ele>1810.6</ele>
        <time>2024-08-12T10:12:19Z</time>
      </trkpt>
      <trkpt lat="44.76503" lon="6.32875">
        <ele>1810.4</ele>
        <time>2024-08-12T10:12:20Z</time>
      </trkpt>
      <trkpt lat="44.76503" lon="6.32875">
        <ele>1810.4</ele>
        <time>2024-08-12T10:12:21Z</time>
      </trkpt>
      <trkpt lat="44.76503" lon="6.32875">
        <ele>1810.4</ele>
        <time>2024-08-12T10:12:22Z</time>
      </trkpt>
      <trkpt lat="44.76503" lon="6.32875">
        <ele>1810.6</ele>
        <time>2024-08-12T10:12:23Z</time>
      </trkpt>
      <trkpt lat="44.76503" lon="6.32875">
        <ele>1811</ele>
        <time>2024-08-12T10:12:24Z</time>
      </trkpt>
      <trkpt lat="44.76503" lon="6.32875">
        <ele>1811</ele>
        <time>2024-08-12T10:12:25Z</time>
      </trkpt>
      <trkpt lat="44.76503" lon="6.32875">
        <ele>1811</ele>
        <time>2024-08-12T10:12:26Z</time>
      </trkpt>
      <trkpt lat="44.76503" lon="6.32875">
        <ele>1811</ele>
        <time>2024-08-12T10:12:27Z</time>
      </trkpt>
      <trkpt lat="44.76503" lon="6.32875">
        <ele>1812</ele>
        <time>2024-08-12T10:12:28Z</time>
      </trkpt>
      <trkpt lat="44.76503" lon="6.32875">
        <ele>1812</ele>
        <time>2024-08-12T10:12:29Z</time>
      </trkpt>
      <trkpt lat="44.76503" lon="6.32875">
        <ele>1812</ele>
        <time>2024-08-12T10:12:30Z</time>
      </trkpt>
      <trkpt lat="44.76503" lon="6.32875">
        <ele>1811.4</ele>
        <time>2024-08-12T10:12:31Z</time>
      </trkpt>
      <trkpt lat="44.76503" lon="6.32875">
        <ele>1810.6</ele>
        <time>2024-08-12T10:12:32Z</time>
      </trkpt>
      <trkpt lat="44.76503" lon="6.32875">
        <ele>1810.4</ele>
        <time>2024-08-12T10:12:33Z</time>
      </trkpt>
      <trkpt lat="44.76503" lon="6.32875">
        <ele>1810.4</ele>
        <time>2024-08-12T10:12:34Z</time>
      </trkpt>
      <trkpt lat="44.76503" lon="6.32875">
        <ele>1810.4</ele>
        <time>2024-08-12T10:12:35Z</time>
      </trkpt>
      <trkpt lat="44.76503" lon="6.32875">
        <ele>1810.4</ele>
        <time>2024-08-12T10:12:36Z</time>
      </trkpt>
      <trkpt lat="44.76503" lon="6.32875">
        <ele>1810.4</ele>
        <time>2024-08-12T10:12:37Z</time>
      </trkpt>
      <trkpt lat="44.76503" lon="6.32875">
        <ele>1810.4</ele>
        <time>2024-08-12T10:12:38Z</time>
      </trkpt>
      <trkpt lat="44.76503" lon="6.32875">
        <ele>1810.4</ele>
        <time>2024-08-12T10:12:39Z</time>
      </trkpt>
      <trkpt lat="44.76503" lon="6.32875">
        <ele>1810.6</ele>
        <time>2024-08-12T10:12:40Z</time>
      </trkpt>
      <trkpt lat="44.76503" lon="6.32875">
        <ele>1810.8</ele>
        <time>2024-08-12T10:12:41Z</time>
      </trkpt>
      <trkpt lat="44.76503" lon="6.32875">
        <ele>1811</ele>
        <time>2024-08-12T10:12:42Z</time>
      </trkpt>
      <trkpt lat="44.76503" lon="6.32875">
        <ele>1811.2</ele>
        <time>2024-08-12T10:12:43Z</time>
      </trkpt>
      <trkpt lat="44.76503" lon="6.32875">
        <ele>1811.2</ele>
        <time>2024-08-12T10:12:44Z</time>
      </trkpt>
      <trkpt lat="44.76503" lon="6.32875">
        <ele>1811.4</ele>
        <time>2024-08-12T10:12:45Z</time>
      </trkpt>
      <trkpt lat="44.76503" lon="6.32875">
        <ele>1811.4</ele>
        <time>2024-08-12T10:12:46Z</time>
      </trkpt>
      <trkpt lat="44.76503" lon="6.32875">
        <ele>1811.4</ele>
        <time>2024-08-12T10:12:47Z</time>
      </trkpt>
      <trkpt lat="44.76501" lon="6.32874">
        <ele>1811.4</ele>
        <time>2024-08-12T10:12:48Z</time>
      </trkpt>
      <trkpt lat="44.76501" lon="6.32874">
        <ele>1811.6</ele>
        <time>2024-08-12T10:12:49Z</time>
      </trkpt>
      <trkpt lat="44.76501" lon="6.32874">
        <ele>1811.6</ele>
        <time>2024-08-12T10:12:50Z</time>
      </trkpt>
      <trkpt lat="44.76501" lon="6.32874">
        <ele>1811.6</ele>
        <time>2024-08-12T10:12:51Z</time>
      </trkpt>
      <trkpt lat="44.76501" lon="6.32874">
        <ele>1811.6</ele>
        <time>2024-08-12T10:12:52Z</time>
      </trkpt>
      <trkpt lat="44.76501" lon="6.32874">
        <ele>1811.6</ele>
        <time>2024-08-12T10:12:53Z</time>
      </trkpt>
      <trkpt lat="44.76501" lon="6.32874">
        <ele>1811.6</ele>
        <time>2024-08-12T10:12:54Z</time>
      </trkpt>
      <trkpt lat="44.76501" lon="6.32874">
        <ele>1811.4</ele>
        <time>2024-08-12T10:12:55Z</time>
      </trkpt>
      <trkpt lat="44.76501" lon="6.32874">
        <ele>1811.4</ele>
        <time>2024-08-12T10:12:56Z</time>
      </trkpt>
      <trkpt lat="44.76502" lon="6.32871">
        <ele>1811.4</ele>
        <time>2024-08-12T10:12:57Z</time>
      </trkpt>
      <trkpt lat="44.76504" lon="6.3287">
        <ele>1811.4</ele>
        <time>2024-08-12T10:12:58Z</time>
      </trkpt>
      <trkpt lat="44.76505" lon="6.32868">
        <ele>1811.4</ele>
        <time>2024-08-12T10:12:59Z</time>
      </trkpt>
      <trkpt lat="44.76505" lon="6.32868">
        <ele>1811.4</ele>
        <time>2024-08-12T10:13:00Z</time>
      </trkpt>
      <trkpt lat="44.76508" lon="6.32865">
        <ele>1811.4</ele>
        <time>2024-08-12T10:13:01Z</time>
      </trkpt>
      <trkpt lat="44.76508" lon="6.32865">
        <ele>1811.2</ele>
        <time>2024-08-12T10:13:02Z</time>
      </trkpt>
      <trkpt lat="44.76509" lon="6.32862">
        <ele>1811.2</ele>
        <time>2024-08-12T10:13:03Z</time>
      </trkpt>
      <trkpt lat="44.76509" lon="6.32862">
        <ele>1811.4</ele>
        <time>2024-08-12T10:13:04Z</time>
      </trkpt>
      <trkpt lat="44.76511" lon="6.32858">
        <ele>1811.6</ele>
        <time>2024-08-12T10:13:05Z</time>
      </trkpt>
      <trkpt lat="44.76511" lon="6.32858">
        <ele>1811.8</ele>
        <time>2024-08-12T10:13:06Z</time>
      </trkpt>
      <trkpt lat="44.76512" lon="6.32856">
        <ele>1811.8</ele>
        <time>2024-08-12T10:13:07Z</time>
      </trkpt>
      <trkpt lat="44.76512" lon="6.32856">
        <ele>1811.8</ele>
        <time>2024-08-12T10:13:08Z</time>
      </trkpt>
      <trkpt lat="44.76513" lon="6.32852">
        <ele>1812</ele>
        <time>2024-08-12T10:13:09Z</time>
      </trkpt>
      <trkpt lat="44.76513" lon="6.32852">
        <ele>1812.2</ele>
        <time>2024-08-12T10:13:10Z</time>
      </trkpt>
      <trkpt lat="44.76515" lon="6.32849">
        <ele>1812.2</ele>
        <time>2024-08-12T10:13:11Z</time>
      </trkpt>
      <trkpt lat="44.76515" lon="6.32849">
        <ele>1812.2</ele>
        <time>2024-08-12T10:13:12Z</time>
      </trkpt>
      <trkpt lat="44.76517" lon="6.32846">
        <ele>1812</ele>
        <time>2024-08-12T10:13:13Z</time>
      </trkpt>
      <trkpt lat="44.76517" lon="6.32846">
        <ele>1812</ele>
        <time>2024-08-12T10:13:14Z</time>
      </trkpt>
      <trkpt lat="44.76518" lon="6.32843">
        <ele>1812</ele>
        <time>2024-08-12T10:13:15Z</time>
      </trkpt>
      <trkpt lat="44.76518" lon="6.32843">
        <ele>1812.2</ele>
        <time>2024-08-12T10:13:16Z</time>
      </trkpt>
      <trkpt lat="44.76519" lon="6.32839">
        <ele>1812</ele>
        <time>2024-08-12T10:13:17Z</time>
      </trkpt>
      <trkpt lat="44.76519" lon="6.32839">
        <ele>1812</ele>
        <time>2024-08-12T10:13:18Z</time>
      </trkpt>
      <trkpt lat="44.7652" lon="6.32835">
        <ele>1811.8</ele>
        <time>2024-08-12T10:13:19Z</time>
      </trkpt>
      <trkpt lat="44.7652" lon="6.32835">
        <ele>1811.8</ele>
        <time>2024-08-12T10:13:20Z</time>
      </trkpt>
      <trkpt lat="44.76521" lon="6.32833">
        <ele>1812.6</ele>
        <time>2024-08-12T10:13:21Z</time>
      </trkpt>
      <trkpt lat="44.76521" lon="6.32833">
        <ele>1812.8</ele>
        <time>2024-08-12T10:13:22Z</time>
      </trkpt>
      <trkpt lat="44.76522" lon="6.32829">
        <ele>1812.8</ele>
        <time>2024-08-12T10:13:23Z</time>
      </trkpt>
      <trkpt lat="44.76522" lon="6.32829">
        <ele>1812.8</ele>
        <time>2024-08-12T10:13:24Z</time>
      </trkpt>
      <trkpt lat="44.76523" lon="6.32826">
        <ele>1813</ele>
        <time>2024-08-12T10:13:25Z</time>
      </trkpt>
      <trkpt lat="44.76523" lon="6.32826">
        <ele>1813.2</ele>
        <time>2024-08-12T10:13:26Z</time>
      </trkpt>
      <trkpt lat="44.76523" lon="6.32823">
        <ele>1813.4</ele>
        <time>2024-08-12T10:13:27Z</time>
      </trkpt>
      <trkpt lat="44.76523" lon="6.32823">
        <ele>1813.4</ele>
        <time>2024-08-12T10:13:28Z</time>
      </trkpt>
      <trkpt lat="44.76523" lon="6.32819">
        <ele>1813.4</ele>
        <time>2024-08-12T10:13:29Z</time>
      </trkpt>
      <trkpt lat="44.76523" lon="6.32819">
        <ele>1813.6</ele>
        <time>2024-08-12T10:13:30Z</time>
      </trkpt>
      <trkpt lat="44.76523" lon="6.32814">
        <ele>1813.6</ele>
        <time>2024-08-12T10:13:31Z</time>
      </trkpt>
      <trkpt lat="44.76523" lon="6.32814">
        <ele>1813.4</ele>
        <time>2024-08-12T10:13:32Z</time>
      </trkpt>
      <trkpt lat="44.76523" lon="6.3281">
        <ele>1813.4</ele>
        <time>2024-08-12T10:13:33Z</time>
      </trkpt>
      <trkpt lat="44.76523" lon="6.3281">
        <ele>1813.4</ele>
        <time>2024-08-12T10:13:34Z</time>
      </trkpt>
      <trkpt lat="44.76522" lon="6.32805">
        <ele>1813.4</ele>
        <time>2024-08-12T10:13:35Z</time>
      </trkpt>
      <trkpt lat="44.76522" lon="6.32805">
        <ele>1813</ele>
        <time>2024-08-12T10:13:36Z</time>
      </trkpt>
      <trkpt lat="44.76521" lon="6.32801">
        <ele>1813</ele>
        <time>2024-08-12T10:13:37Z</time>
      </trkpt>
      <trkpt lat="44.76521" lon="6.32801">
        <ele>1813.2</ele>
        <time>2024-08-12T10:13:38Z</time>
      </trkpt>
      <trkpt lat="44.76521" lon="6.32797">
        <ele>1813.6</ele>
        <time>2024-08-12T10:13:39Z</time>
      </trkpt>
      <trkpt lat="44.76521" lon="6.32797">
        <ele>1813.6</ele>
        <time>2024-08-12T10:13:40Z</time>
      </trkpt>
      <trkpt lat="44.76521" lon="6.32794">
        <ele>1813.6</ele>
        <time>2024-08-12T10:13:41Z</time>
      </trkpt>
      <trkpt lat="44.76521" lon="6.32794">
        <ele>1813.8</ele>
        <time>2024-08-12T10:13:42Z</time>
      </trkpt>
      <trkpt lat="44.76521" lon="6.3279">
        <ele>1814</ele>
        <time>2024-08-12T10:13:43Z</time>
      </trkpt>
      <trkpt lat="44.76521" lon="6.3279">
        <ele>1814</ele>
        <time>2024-08-12T10:13:44Z</time>
      </trkpt>
      <trkpt lat="44.76521" lon="6.32787">
        <ele>1814.2</ele>
        <time>2024-08-12T10:13:45Z</time>
      </trkpt>
      <trkpt lat="44.76521" lon="6.32787">
        <ele>1814.4</ele>
        <time>2024-08-12T10:13:46Z</time>
      </trkpt>
      <trkpt lat="44.76521" lon="6.32784">
        <ele>1814.4</ele>
        <time>2024-08-12T10:13:47Z</time>
      </trkpt>
      <trkpt lat="44.76521" lon="6.32784">
        <ele>1814.4</ele>
        <time>2024-08-12T10:13:48Z</time>
      </trkpt>
      <trkpt lat="44.76521" lon="6.32781">
        <ele>1814.4</ele>
        <time>2024-08-12T10:13:49Z</time>
      </trkpt>
      <trkpt lat="44.76521" lon="6.32781">
        <ele>1814.8</ele>
        <time>2024-08-12T10:13:50Z</time>
      </trkpt>
      <trkpt lat="44.76522" lon="6.32778">
        <ele>1815</ele>
        <time>2024-08-12T10:13:51Z</time>
      </trkpt>
      <trkpt lat="44.76522" lon="6.32778">
        <ele>1815.2</ele>
        <time>2024-08-12T10:13:52Z</time>
      </trkpt>
      <trkpt lat="44.76522" lon="6.32778">
        <ele>1815.2</ele>
        <time>2024-08-12T10:13:53Z</time>
      </trkpt>
      <trkpt lat="44.76522" lon="6.32778">
        <ele>1815.2</ele>
        <time>2024-08-12T10:13:54Z</time>
      </trkpt>
      <trkpt lat="44.76522" lon="6.32778">
        <ele>1815.2</ele>
        <time>2024-08-12T10:13:55Z</time>
      </trkpt>
      <trkpt lat="44.76522" lon="6.32778">
        <ele>1815.4</ele>
        <time>2024-08-12T10:13:56Z</time>
      </trkpt>
      <trkpt lat="44.76522" lon="6.32778">
        <ele>1815.4</ele>
        <time>2024-08-12T10:13:57Z</time>
      </trkpt>
      <trkpt lat="44.76522" lon="6.32778">
        <ele>1815.4</ele>
        <time>2024-08-12T10:13:58Z</time>
      </trkpt>
      <trkpt lat="44.76522" lon="6.32775">
        <ele>1815.4</ele>
        <time>2024-08-12T10:13:59Z</time>
      </trkpt>
      <trkpt lat="44.76522" lon="6.32775">
        <ele>1815.4</ele>
        <time>2024-08-12T10:14:00Z</time>
      </trkpt>
      <trkpt lat="44.76522" lon="6.32775">
        <ele>1815.4</ele>
        <time>2024-08-12T10:14:01Z</time>
      </trkpt>
      <trkpt lat="44.76522" lon="6.32771">
        <ele>1815.6</ele>
        <time>2024-08-12T10:14:02Z</time>
      </trkpt>
      <trkpt lat="44.76522" lon="6.32771">
        <ele>1815.6</ele>
        <time>2024-08-12T10:14:03Z</time>
      </trkpt>
      <trkpt lat="44.76522" lon="6.32768">
        <ele>1815.6</ele>
        <time>2024-08-12T10:14:04Z</time>
      </trkpt>
      <trkpt lat="44.76522" lon="6.32768">
        <ele>1815.4</ele>
        <time>2024-08-12T10:14:05Z</time>
      </trkpt>
      <trkpt lat="44.76523" lon="6.32766">
        <ele>1815.4</ele>
        <time>2024-08-12T10:14:06Z</time>
      </trkpt>
      <trkpt lat="44.76523" lon="6.32766">
        <ele>1815.4</ele>
        <time>2024-08-12T10:14:07Z</time>
      </trkpt>
      <trkpt lat="44.76523" lon="6.32766">
        <ele>1815.4</ele>
        <time>2024-08-12T10:14:08Z</time>
      </trkpt>
      <trkpt lat="44.76525" lon="6.32764">
        <ele>1815.4</ele>
        <time>2024-08-12T10:14:09Z</time>
      </trkpt>
      <trkpt lat="44.76525" lon="6.32764">
        <ele>1815.4</ele>
        <time>2024-08-12T10:14:10Z</time>
      </trkpt>
      <trkpt lat="44.76525" lon="6.32764">
        <ele>1815.6</ele>
        <time>2024-08-12T10:14:11Z</time>
      </trkpt>
      <trkpt lat="44.76525" lon="6.32764">
        <ele>1815.8</ele>
        <time>2024-08-12T10:14:12Z</time>
      </trkpt>
      <trkpt lat="44.76525" lon="6.32764">
        <ele>1815.8</ele>
        <time>2024-08-12T10:14:13Z</time>
      </trkpt>
      <trkpt lat="44.76525" lon="6.32764">
        <ele>1815.8</ele>
        <time>2024-08-12T10:14:14Z</time>
      </trkpt>
      <trkpt lat="44.76526" lon="6.32764">
        <ele>1815.6</ele>
        <time>2024-08-12T10:14:15Z</time>
      </trkpt>
      <trkpt lat="44.76526" lon="6.32764">
        <ele>1815.6</ele>
        <time>2024-08-12T10:14:16Z</time>
      </trkpt>
      <trkpt lat="44.76526" lon="6.32764">
        <ele>1815.8</ele>
        <time>2024-08-12T10:14:17Z</time>
      </trkpt>
      <trkpt lat="44.76526" lon="6.32764">
        <ele>1815.8</ele>
        <time>2024-08-12T10:14:18Z</time>
      </trkpt>
      <trkpt lat="44.76526" lon="6.32764">
        <ele>1815.8</ele>
        <time>2024-08-12T10:14:19Z</time>
      </trkpt>
      <trkpt lat="44.76526" lon="6.32764">
        <ele>1815.6</ele>
        <time>2024-08-12T10:14:20Z</time>
      </trkpt>
      <trkpt lat="44.76526" lon="6.32764">
        <ele>1815.6</ele>
        <time>2024-08-12T10:14:21Z</time>
      </trkpt>
      <trkpt lat="44.76526" lon="6.32764">
        <ele>1815.6</ele>
        <time>2024-08-12T10:14:22Z</time>
      </trkpt>
      <trkpt lat="44.76526" lon="6.32764">
        <ele>1815.6</ele>
        <time>2024-08-12T10:14:23Z</time>
      </trkpt>
      <trkpt lat="44.76526" lon="6.32764">
        <ele>1815.6</ele>
        <time>2024-08-12T10:14:24Z</time>
      </trkpt>
      <trkpt lat="44.76526" lon="6.32764">
        <ele>1815.6</ele>
        <time>2024-08-12T10:14:25Z</time>
      </trkpt>
      <trkpt lat="44.76526" lon="6.32764">
        <ele>1815.6</ele>
        <time>2024-08-12T10:14:26Z</time>
      </trkpt>
      <trkpt lat="44.76526" lon="6.32764">
        <ele>1816</ele>
        <time>2024-08-12T10:14:27Z</time>
      </trkpt>
      <trkpt lat="44.76526" lon="6.32764">
        <ele>1816</ele>
        <time>2024-08-12T10:14:28Z</time>
      </trkpt>
      <trkpt lat="44.76526" lon="6.32764">
        <ele>1815.8</ele>
        <time>2024-08-12T10:14:29Z</time>
      </trkpt>
      <trkpt lat="44.76526" lon="6.32764">
        <ele>1815.8</ele>
        <time>2024-08-12T10:14:30Z</time>
      </trkpt>
      <trkpt lat="44.76526" lon="6.32764">
        <ele>1815.8</ele>
        <time>2024-08-12T10:14:31Z</time>
      </trkpt>
      <trkpt lat="44.76526" lon="6.32764">
        <ele>1815.8</ele>
        <time>2024-08-12T10:14:32Z</time>
      </trkpt>
      <trkpt lat="44.76526" lon="6.32764">
        <ele>1815.8</ele>
        <time>2024-08-12T10:14:33Z</time>
      </trkpt>
      <trkpt lat="44.76526" lon="6.32764">
        <ele>1815.6</ele>
        <time>2024-08-12T10:14:34Z</time>
      </trkpt>
      <trkpt lat="44.76526" lon="6.32764">
        <ele>1815.6</ele>
        <time>2024-08-12T10:14:35Z</time>
      </trkpt>
      <trkpt lat="44.76526" lon="6.32764">
        <ele>1815.6</ele>
        <time>2024-08-12T10:14:36Z</time>
      </trkpt>
      <trkpt lat="44.76526" lon="6.32764">
        <ele>1815.6</ele>
        <time>2024-08-12T10:14:37Z</time>
      </trkpt>
      <trkpt lat="44.76526" lon="6.32764">
        <ele>1815.6</ele>
        <time>2024-08-12T10:14:38Z</time>
      </trkpt>
      <trkpt lat="44.76526" lon="6.32764">
        <ele>1815.6</ele>
        <time>2024-08-12T10:14:39Z</time>
      </trkpt>
      <trkpt lat="44.76526" lon="6.32764">
        <ele>1815.6</ele>
        <time>2024-08-12T10:14:40Z</time>
      </trkpt>
      <trkpt lat="44.76526" lon="6.32764">
        <ele>1815.8</ele>
        <time>2024-08-12T10:14:41Z</time>
      </trkpt>
      <trkpt lat="44.76526" lon="6.32764">
        <ele>1815.8</ele>
        <time>2024-08-12T10:14:42Z</time>
      </trkpt>
      <trkpt lat="44.76526" lon="6.32764">
        <ele>1815.8</ele>
        <time>2024-08-12T10:14:43Z</time>
      </trkpt>
      <trkpt lat="44.76526" lon="6.32764">
        <ele>1815.8</ele>
        <time>2024-08-12T10:14:44Z</time>
      </trkpt>
      <trkpt lat="44.76526" lon="6.32764">
        <ele>1815.6</ele>
        <time>2024-08-12T10:14:45Z</time>
      </trkpt>
      <trkpt lat="44.76526" lon="6.32764">
        <ele>1815.6</ele>
        <time>2024-08-12T10:14:46Z</time>
      </trkpt>
      <trkpt lat="44.76526" lon="6.32764">
        <ele>1815.4</ele>
        <time>2024-08-12T10:14:47Z</time>
      </trkpt>
      <trkpt lat="44.76526" lon="6.32764">
        <ele>1815.4</ele>
        <time>2024-08-12T10:14:48Z</time>
      </trkpt>
      <trkpt lat="44.76526" lon="6.32764">
        <ele>1815.4</ele>
        <time>2024-08-12T10:14:49Z</time>
      </trkpt>
      <trkpt lat="44.76526" lon="6.32764">
        <ele>1815.4</ele>
        <time>2024-08-12T10:14:50Z</time>
      </trkpt>
      <trkpt lat="44.76526" lon="6.32764">
        <ele>1815.4</ele>
        <time>2024-08-12T10:14:51Z</time>
      </trkpt>
      <trkpt lat="44.76526" lon="6.32764">
        <ele>1815.4</ele>
        <time>2024-08-12T10:14:52Z</time>
      </trkpt>
      <trkpt lat="44.76526" lon="6.32764">
        <ele>1815.2</ele>
        <time>2024-08-12T10:14:53Z</time>
      </trkpt>
      <trkpt lat="44.76526" lon="6.32764">
        <ele>1815.2</ele>
        <time>2024-08-12T10:14:54Z</time>
      </trkpt>
      <trkpt lat="44.76526" lon="6.32764">
        <ele>1815.2</ele>
        <time>2024-08-12T10:14:55Z</time>
      </trkpt>
      <trkpt lat="44.76526" lon="6.32764">
        <ele>1814.8</ele>
        <time>2024-08-12T10:14:56Z</time>
      </trkpt>
      <trkpt lat="44.76526" lon="6.32764">
        <ele>1814.8</ele>
        <time>2024-08-12T10:14:57Z</time>
      </trkpt>
      <trkpt lat="44.76526" lon="6.32764">
        <ele>1814.8</ele>
        <time>2024-08-12T10:14:58Z</time>
      </trkpt>
      <trkpt lat="44.76526" lon="6.32764">
        <ele>1815</ele>
        <time>2024-08-12T10:14:59Z</time>
      </trkpt>
      <trkpt lat="44.76526" lon="6.32764">
        <ele>1815</ele>
        <time>2024-08-12T10:15:00Z</time>
      </trkpt>
      <trkpt lat="44.76526" lon="6.32764">
        <ele>1814.8</ele>
        <time>2024-08-12T10:15:01Z</time>
      </trkpt>
      <trkpt lat="44.76526" lon="6.32764">
        <ele>1814.8</ele>
        <time>2024-08-12T10:15:02Z</time>
      </trkpt>
      <trkpt lat="44.76526" lon="6.32764">
        <ele>1814.8</ele>
        <time>2024-08-12T10:15:03Z</time>
      </trkpt>
      <trkpt lat="44.76526" lon="6.32764">
        <ele>1814.8</ele>
        <time>2024-08-12T10:15:04Z</time>
      </trkpt>
      <trkpt lat="44.76526" lon="6.32764">
        <ele>1814.8</ele>
        <time>2024-08-12T10:15:05Z</time>
      </trkpt>
      <trkpt lat="44.76526" lon="6.32764">
        <ele>1815</ele>
        <time>2024-08-12T10:15:06Z</time>
      </trkpt>
      <trkpt lat="44.76526" lon="6.32764">
        <ele>1815</ele>
        <time>2024-08-12T10:15:07Z</time>
      </trkpt>
      <trkpt lat="44.76526" lon="6.32764">
        <ele>1814.8</ele>
        <time>2024-08-12T10:15:08Z</time>
      </trkpt>
      <trkpt lat="44.76526" lon="6.32764">
        <ele>1814.8</ele>
        <time>2024-08-12T10:15:09Z</time>
      </trkpt>
      <trkpt lat="44.76526" lon="6.32764">
        <ele>1814.8</ele>
        <time>2024-08-12T10:15:10Z</time>
      </trkpt>
      <trkpt lat="44.76526" lon="6.32764">
        <ele>1814.8</ele>
        <time>2024-08-12T10:15:11Z</time>
      </trkpt>
      <trkpt lat="44.76526" lon="6.32764">
        <ele>1814.8</ele>
        <time>2024-08-12T10:15:12Z</time>
      </trkpt>
      <trkpt lat="44.76526" lon="6.32764">
        <ele>1815</ele>
        <time>2024-08-12T10:15:13Z</time>
      </trkpt>
      <trkpt lat="44.76525" lon="6.32762">
        <ele>1815.4</ele>
        <time>2024-08-12T10:15:14Z</time>
      </trkpt>
      <trkpt lat="44.76525" lon="6.32762">
        <ele>1815.4</ele>
        <time>2024-08-12T10:15:15Z</time>
      </trkpt>
      <trkpt lat="44.76525" lon="6.32762">
        <ele>1815.2</ele>
        <time>2024-08-12T10:15:16Z</time>
      </trkpt>
      <trkpt lat="44.76525" lon="6.32762">
        <ele>1815.2</ele>
        <time>2024-08-12T10:15:17Z</time>
      </trkpt>
      <trkpt lat="44.76525" lon="6.32762">
        <ele>1815.2</ele>
        <time>2024-08-12T10:15:18Z</time>
      </trkpt>
      <trkpt lat="44.76523" lon="6.32762">
        <ele>1815.6</ele>
        <time>2024-08-12T10:15:19Z</time>
      </trkpt>
      <trkpt lat="44.76523" lon="6.32762">
        <ele>1815.6</ele>
        <time>2024-08-12T10:15:20Z</time>
      </trkpt>
      <trkpt lat="44.76523" lon="6.32762">
        <ele>1815.2</ele>
        <time>2024-08-12T10:15:21Z</time>
      </trkpt>
      <trkpt lat="44.76523" lon="6.32762">
        <ele>1815.2</ele>
        <time>2024-08-12T10:15:22Z</time>
      </trkpt>
      <trkpt lat="44.76523" lon="6.32762">
        <ele>1815</ele>
        <time>2024-08-12T10:15:23Z</time>
      </trkpt>
      <trkpt lat="44.76523" lon="6.32762">
        <ele>1814.8</ele>
        <time>2024-08-12T10:15:24Z</time>
      </trkpt>
      <trkpt lat="44.76523" lon="6.32762">
        <ele>1814.8</ele>
        <time>2024-08-12T10:15:25Z</time>
      </trkpt>
      <trkpt lat="44.76523" lon="6.32762">
        <ele>1814.4</ele>
        <time>2024-08-12T10:15:26Z</time>
      </trkpt>
      <trkpt lat="44.76523" lon="6.32762">
        <ele>1814.4</ele>
        <time>2024-08-12T10:15:27Z</time>
      </trkpt>
      <trkpt lat="44.76523" lon="6.32762">
        <ele>1814.4</ele>
        <time>2024-08-12T10:15:28Z</time>
      </trkpt>
      <trkpt lat="44.76523" lon="6.32762">
        <ele>1814.4</ele>
        <time>2024-08-12T10:15:29Z</time>
      </trkpt>
      <trkpt lat="44.76523" lon="6.32762">
        <ele>1814.4</ele>
        <time>2024-08-12T10:15:30Z</time>
      </trkpt>
      <trkpt lat="44.76523" lon="6.32762">
        <ele>1814.4</ele>
        <time>2024-08-12T10:15:31Z</time>
      </trkpt>
      <trkpt lat="44.76523" lon="6.32762">
        <ele>1814.4</ele>
        <time>2024-08-12T10:15:32Z</time>
      </trkpt>
      <trkpt lat="44.76523" lon="6.32762">
        <ele>1814.6</ele>
        <time>2024-08-12T10:15:33Z</time>
      </trkpt>
      <trkpt lat="44.76523" lon="6.32762">
        <ele>1814.4</ele>
        <time>2024-08-12T10:15:34Z</time>
      </trkpt>
      <trkpt lat="44.76523" lon="6.32762">
        <ele>1814.4</ele>
        <time>2024-08-12T10:15:35Z</time>
      </trkpt>
      <trkpt lat="44.76523" lon="6.32762">
        <ele>1814.4</ele>
        <time>2024-08-12T10:15:36Z</time>
      </trkpt>
      <trkpt lat="44.76523" lon="6.32762">
        <ele>1814.4</ele>
        <time>2024-08-12T10:15:37Z</time>
      </trkpt>
      <trkpt lat="44.76523" lon="6.32762">
        <ele>1814.4</ele>
        <time>2024-08-12T10:15:38Z</time>
      </trkpt>
      <trkpt lat="44.76523" lon="6.32762">
        <ele>1814.4</ele>
        <time>2024-08-12T10:15:39Z</time>
      </trkpt>
      <trkpt lat="44.76523" lon="6.32762">
        <ele>1814.4</ele>
        <time>2024-08-12T10:15:40Z</time>
      </trkpt>
      <trkpt lat="44.76523" lon="6.32762">
        <ele>1814.6</ele>
        <time>2024-08-12T10:15:41Z</time>
      </trkpt>
      <trkpt lat="44.76523" lon="6.32762">
        <ele>1814.6</ele>
        <time>2024-08-12T10:15:42Z</time>
      </trkpt>
      <trkpt lat="44.76523" lon="6.32762">
        <ele>1814.6</ele>
        <time>2024-08-12T10:15:43Z</time>
      </trkpt>
      <trkpt lat="44.76523" lon="6.32762">
        <ele>1814.6</ele>
        <time>2024-08-12T10:15:44Z</time>
      </trkpt>
      <trkpt lat="44.76523" lon="6.32762">
        <ele>1814.8</ele>
        <time>2024-08-12T10:15:45Z</time>
      </trkpt>
      <trkpt lat="44.76523" lon="6.32762">
        <ele>1815</ele>
        <time>2024-08-12T10:15:46Z</time>
      </trkpt>
      <trkpt lat="44.76523" lon="6.32762">
        <ele>1815</ele>
        <time>2024-08-12T10:15:47Z</time>
      </trkpt>
      <trkpt lat="44.76523" lon="6.32762">
        <ele>1815.4</ele>
        <time>2024-08-12T10:15:48Z</time>
      </trkpt>
      <trkpt lat="44.76523" lon="6.32762">
        <ele>1815.8</ele>
        <time>2024-08-12T10:15:49Z</time>
      </trkpt>
      <trkpt lat="44.76523" lon="6.32762">
        <ele>1816.4</ele>
        <time>2024-08-12T10:15:50Z</time>
      </trkpt>
      <trkpt lat="44.76525" lon="6.32759">
        <ele>1816.8</ele>
        <time>2024-08-12T10:15:51Z</time>
      </trkpt>
      <trkpt lat="44.76525" lon="6.32759">
        <ele>1817.4</ele>
        <time>2024-08-12T10:15:52Z</time>
      </trkpt>
      <trkpt lat="44.76527" lon="6.32757">
        <ele>1817.4</ele>
        <time>2024-08-12T10:15:53Z</time>
      </trkpt>
      <trkpt lat="44.76529" lon="6.32756">
        <ele>1817.6</ele>
        <time>2024-08-12T10:15:54Z</time>
      </trkpt>
      <trkpt lat="44.76531" lon="6.32754">
        <ele>1817.8</ele>
        <time>2024-08-12T10:15:55Z</time>
      </trkpt>
      <trkpt lat="44.76533" lon="6.32753">
        <ele>1818.2</ele>
        <time>2024-08-12T10:15:56Z</time>
      </trkpt>
      <trkpt lat="44.76533" lon="6.32753">
        <ele>1818.2</ele>
        <time>2024-08-12T10:15:57Z</time>
      </trkpt>
      <trkpt lat="44.76533" lon="6.32753">
        <ele>1818.4</ele>
        <time>2024-08-12T10:15:58Z</time>
      </trkpt>
      <trkpt lat="44.76533" lon="6.32753">
        <ele>1818.2</ele>
        <time>2024-08-12T10:15:59Z</time>
      </trkpt>
      <trkpt lat="44.76533" lon="6.32753">
        <ele>1818</ele>
        <time>2024-08-12T10:16:00Z</time>
      </trkpt>
      <trkpt lat="44.76533" lon="6.32753">
        <ele>1818</ele>
        <time>2024-08-12T10:16:01Z</time>
      </trkpt>
      <trkpt lat="44.76533" lon="6.32753">
        <ele>1818.4</ele>
        <time>2024-08-12T10:16:02Z</time>
      </trkpt>
      <trkpt lat="44.76533" lon="6.32753">
        <ele>1818.4</ele>
        <time>2024-08-12T10:16:03Z</time>
      </trkpt>
      <trkpt lat="44.76533" lon="6.32753">
        <ele>1818.4</ele>
        <time>2024-08-12T10:16:04Z</time>
      </trkpt>
      <trkpt lat="44.76533" lon="6.32753">
        <ele>1818.6</ele>
        <time>2024-08-12T10:16:05Z</time>
      </trkpt>
      <trkpt lat="44.76533" lon="6.32753">
        <ele>1818.6</ele>
        <time>2024-08-12T10:16:06Z</time>
      </trkpt>
      <trkpt lat="44.76533" lon="6.32753">
        <ele>1818.6</ele>
        <time>2024-08-12T10:16:07Z</time>
      </trkpt>
      <trkpt lat="44.76533" lon="6.32753">
        <ele>1818.6</ele>
        <time>2024-08-12T10:16:08Z</time>
      </trkpt>
      <trkpt lat="44.76533" lon="6.32753">
        <ele>1818.8</ele>
        <time>2024-08-12T10:16:09Z</time>
      </trkpt>
      <trkpt lat="44.76533" lon="6.32753">
        <ele>1818.8</ele>
        <time>2024-08-12T10:16:10Z</time>
      </trkpt>
      <trkpt lat="44.76533" lon="6.32753">
        <ele>1818.6</ele>
        <time>2024-08-12T10:16:11Z</time>
      </trkpt>
      <trkpt lat="44.76533" lon="6.32753">
        <ele>1818.6</ele>
        <time>2024-08-12T10:16:12Z</time>
      </trkpt>
      <trkpt lat="44.76533" lon="6.32753">
        <ele>1818.8</ele>
        <time>2024-08-12T10:16:13Z</time>
      </trkpt>
      <trkpt lat="44.76533" lon="6.32753">
        <ele>1818.8</ele>
        <time>2024-08-12T10:16:14Z</time>
      </trkpt>
      <trkpt lat="44.76533" lon="6.32753">
        <ele>1818.6</ele>
        <time>2024-08-12T10:16:15Z</time>
      </trkpt>
      <trkpt lat="44.76533" lon="6.32753">
        <ele>1818.6</ele>
        <time>2024-08-12T10:16:16Z</time>
      </trkpt>
      <trkpt lat="44.76533" lon="6.32753">
        <ele>1818.4</ele>
        <time>2024-08-12T10:16:17Z</time>
      </trkpt>
      <trkpt lat="44.76533" lon="6.32753">
        <ele>1818.6</ele>
        <time>2024-08-12T10:16:18Z</time>
      </trkpt>
      <trkpt lat="44.76533" lon="6.32753">
        <ele>1818.6</ele>
        <time>2024-08-12T10:16:19Z</time>
      </trkpt>
      <trkpt lat="44.76533" lon="6.32753">
        <ele>1818.8</ele>
        <time>2024-08-12T10:16:20Z</time>
      </trkpt>
      <trkpt lat="44.76533" lon="6.32753">
        <ele>1818.8</ele>
        <time>2024-08-12T10:16:21Z</time>
      </trkpt>
      <trkpt lat="44.76533" lon="6.32753">
        <ele>1818.8</ele>
        <time>2024-08-12T10:16:22Z</time>
      </trkpt>
      <trkpt lat="44.76533" lon="6.32753">
        <ele>1818.8</ele>
        <time>2024-08-12T10:16:23Z</time>
      </trkpt>
      <trkpt lat="44.76533" lon="6.32753">
        <ele>1818.8</ele>
        <time>2024-08-12T10:16:24Z</time>
      </trkpt>
      <trkpt lat="44.76533" lon="6.32753">
        <ele>1819</ele>
        <time>2024-08-12T10:16:25Z</time>
      </trkpt>
      <trkpt lat="44.76533" lon="6.32753">
        <ele>1819</ele>
        <time>2024-08-12T10:16:26Z</time>
      </trkpt>
      <trkpt lat="44.76533" lon="6.32753">
        <ele>1819</ele>
        <time>2024-08-12T10:16:27Z</time>
      </trkpt>
      <trkpt lat="44.76533" lon="6.32753">
        <ele>1819</ele>
        <time>2024-08-12T10:16:28Z</time>
      </trkpt>
      <trkpt lat="44.76533" lon="6.32753">
        <ele>1819</ele>
        <time>2024-08-12T10:16:29Z</time>
      </trkpt>
      <trkpt lat="44.76533" lon="6.32753">
        <ele>1819</ele>
        <time>2024-08-12T10:16:30Z</time>
      </trkpt>
      <trkpt lat="44.76533" lon="6.32753">
        <ele>1819</ele>
        <time>2024-08-12T10:16:31Z</time>
      </trkpt>
      <trkpt lat="44.76533" lon="6.32753">
        <ele>1819</ele>
        <time>2024-08-12T10:16:32Z</time>
      </trkpt>
      <trkpt lat="44.76533" lon="6.32753">
        <ele>1819.2</ele>
        <time>2024-08-12T10:16:33Z</time>
      </trkpt>
      <trkpt lat="44.76533" lon="6.32753">
        <ele>1819.2</ele>
        <time>2024-08-12T10:16:34Z</time>
      </trkpt>
      <trkpt lat="44.76533" lon="6.32753">
        <ele>1819</ele>
        <time>2024-08-12T10:16:35Z</time>
      </trkpt>
      <trkpt lat="44.76533" lon="6.32753">
        <ele>1818.8</ele>
        <time>2024-08-12T10:16:36Z</time>
      </trkpt>
      <trkpt lat="44.76533" lon="6.32753">
        <ele>1818.8</ele>
        <time>2024-08-12T10:16:37Z</time>
      </trkpt>
      <trkpt lat="44.76533" lon="6.32753">
        <ele>1818.8</ele>
        <time>2024-08-12T10:16:38Z</time>
      </trkpt>
      <trkpt lat="44.76533" lon="6.32753">
        <ele>1819.2</ele>
        <time>2024-08-12T10:16:39Z</time>
      </trkpt>
      <trkpt lat="44.76533" lon="6.32753">
        <ele>1819.2</ele>
        <time>2024-08-12T10:16:40Z</time>
      </trkpt>
      <trkpt lat="44.76533" lon="6.32753">
        <ele>1818.8</ele>
        <time>2024-08-12T10:16:41Z</time>
      </trkpt>
      <trkpt lat="44.76533" lon="6.32753">
        <ele>1818.8</ele>
        <time>2024-08-12T10:16:42Z</time>
      </trkpt>
      <trkpt lat="44.76533" lon="6.32753">
        <ele>1818.8</ele>
        <time>2024-08-12T10:16:43Z</time>
      </trkpt>
      <trkpt lat="44.76533" lon="6.32753">
        <ele>1818.8</ele>
        <time>2024-08-12T10:16:44Z</time>
      </trkpt>
      <trkpt lat="44.76533" lon="6.32753">
        <ele>1819</ele>
        <time>2024-08-12T10:16:45Z</time>
      </trkpt>
      <trkpt lat="44.76533" lon="6.32753">
        <ele>1819</ele>
        <time>2024-08-12T10:16:46Z</time>
      </trkpt>
      <trkpt lat="44.76533" lon="6.32753">
        <ele>1819</ele>
        <time>2024-08-12T10:16:47Z</time>
      </trkpt>
      <trkpt lat="44.76533" lon="6.32753">
        <ele>1819</ele>
        <time>2024-08-12T10:16:48Z</time>
      </trkpt>
      <trkpt lat="44.76533" lon="6.32753">
        <ele>1819</ele>
        <time>2024-08-12T10:16:49Z</time>
      </trkpt>
      <trkpt lat="44.76533" lon="6.32753">
        <ele>1819</ele>
        <time>2024-08-12T10:16:50Z</time>
      </trkpt>
      <trkpt lat="44.76533" lon="6.32753">
        <ele>1818.8</ele>
        <time>2024-08-12T10:16:51Z</time>
      </trkpt>
      <trkpt lat="44.76533" lon="6.32753">
        <ele>1818.8</ele>
        <time>2024-08-12T10:16:52Z</time>
      </trkpt>
      <trkpt lat="44.76533" lon="6.32753">
        <ele>1818.8</ele>
        <time>2024-08-12T10:16:53Z</time>
      </trkpt>
      <trkpt lat="44.76533" lon="6.32753">
        <ele>1818.8</ele>
        <time>2024-08-12T10:16:54Z</time>
      </trkpt>
      <trkpt lat="44.76533" lon="6.32753">
        <ele>1818.8</ele>
        <time>2024-08-12T10:16:55Z</time>
      </trkpt>
      <trkpt lat="44.76533" lon="6.32753">
        <ele>1818.8</ele>
        <time>2024-08-12T10:16:56Z</time>
      </trkpt>
      <trkpt lat="44.76533" lon="6.32753">
        <ele>1818.8</ele>
        <time>2024-08-12T10:16:57Z</time>
      </trkpt>
      <trkpt lat="44.76533" lon="6.32753">
        <ele>1819.2</ele>
        <time>2024-08-12T10:16:58Z</time>
      </trkpt>
      <trkpt lat="44.76533" lon="6.32753">
        <ele>1819.4</ele>
        <time>2024-08-12T10:16:59Z</time>
      </trkpt>
      <trkpt lat="44.76533" lon="6.32753">
        <ele>1819.4</ele>
        <time>2024-08-12T10:17:00Z</time>
      </trkpt>
      <trkpt lat="44.76533" lon="6.32753">
        <ele>1819.4</ele>
        <time>2024-08-12T10:17:01Z</time>
      </trkpt>
      <trkpt lat="44.76533" lon="6.32753">
        <ele>1819.4</ele>
        <time>2024-08-12T10:17:02Z</time>
      </trkpt>
      <trkpt lat="44.76533" lon="6.32753">
        <ele>1819.4</ele>
        <time>2024-08-12T10:17:03Z</time>
      </trkpt>
      <trkpt lat="44.76533" lon="6.32753">
        <ele>1819.4</ele>
        <time>2024-08-12T10:17:04Z</time>
      </trkpt>
      <trkpt lat="44.76533" lon="6.32753">
        <ele>1819.4</ele>
        <time>2024-08-12T10:17:05Z</time>
      </trkpt>
      <trkpt lat="44.76533" lon="6.32753">
        <ele>1819.2</ele>
        <time>2024-08-12T10:17:06Z</time>
      </trkpt>
      <trkpt lat="44.76533" lon="6.32753">
        <ele>1819.4</ele>
        <time>2024-08-12T10:17:07Z</time>
      </trkpt>
      <trkpt lat="44.76533" lon="6.32753">
        <ele>1819.4</ele>
        <time>2024-08-12T10:17:08Z</time>
      </trkpt>
      <trkpt lat="44.76533" lon="6.32753">
        <ele>1819.4</ele>
        <time>2024-08-12T10:17:09Z</time>
      </trkpt>
      <trkpt lat="44.76533" lon="6.32753">
        <ele>1819.4</ele>
        <time>2024-08-12T10:17:10Z</time>
      </trkpt>
      <trkpt lat="44.76533" lon="6.32753">
        <ele>1819.2</ele>
        <time>2024-08-12T10:17:11Z</time>
      </trkpt>
      <trkpt lat="44.76533" lon="6.32753">
        <ele>1819.4</ele>
        <time>2024-08-12T10:17:12Z</time>
      </trkpt>
      <trkpt lat="44.76533" lon="6.32753">
        <ele>1819.4</ele>
        <time>2024-08-12T10:17:13Z</time>
      </trkpt>
      <trkpt lat="44.76533" lon="6.32753">
        <ele>1819.4</ele>
        <time>2024-08-12T10:17:14Z</time>
      </trkpt>
      <trkpt lat="44.76533" lon="6.32753">
        <ele>1819.4</ele>
        <time>2024-08-12T10:17:15Z</time>
      </trkpt>
      <trkpt lat="44.76533" lon="6.32753">
        <ele>1819.4</ele>
        <time>2024-08-12T10:17:16Z</time>
      </trkpt>
      <trkpt lat="44.76533" lon="6.32753">
        <ele>1819.4</ele>
        <time>2024-08-12T10:17:17Z</time>
      </trkpt>
      <trkpt lat="44.76533" lon="6.32753">
        <ele>1819.2</ele>
        <time>2024-08-12T10:17:18Z</time>
      </trkpt>
      <trkpt lat="44.76533" lon="6.32753">
        <ele>1819.2</ele>
        <time>2024-08-12T10:17:19Z</time>
      </trkpt>
      <trkpt lat="44.76533" lon="6.32753">
        <ele>1819.4</ele>
        <time>2024-08-12T10:17:20Z</time>
      </trkpt>
      <trkpt lat="44.76533" lon="6.32753">
        <ele>1819.4</ele>
        <time>2024-08-12T10:17:21Z</time>
      </trkpt>
      <trkpt lat="44.76533" lon="6.32753">
        <ele>1819.4</ele>
        <time>2024-08-12T10:17:22Z</time>
      </trkpt>
      <trkpt lat="44.76533" lon="6.32753">
        <ele>1819.6</ele>
        <time>2024-08-12T10:17:23Z</time>
      </trkpt>
      <trkpt lat="44.76533" lon="6.32753">
        <ele>1819.6</ele>
        <time>2024-08-12T10:17:24Z</time>
      </trkpt>
      <trkpt lat="44.76533" lon="6.32753">
        <ele>1819.6</ele>
        <time>2024-08-12T10:17:25Z</time>
      </trkpt>
      <trkpt lat="44.76533" lon="6.32753">
        <ele>1819.6</ele>
        <time>2024-08-12T10:17:26Z</time>
      </trkpt>
      <trkpt lat="44.76533" lon="6.32753">
        <ele>1819.6</ele>
        <time>2024-08-12T10:17:27Z</time>
      </trkpt>
      <trkpt lat="44.76533" lon="6.32753">
        <ele>1819.6</ele>
        <time>2024-08-12T10:17:28Z</time>
      </trkpt>
      <trkpt lat="44.76533" lon="6.32753">
        <ele>1819.6</ele>
        <time>2024-08-12T10:17:29Z</time>
      </trkpt>
      <trkpt lat="44.76533" lon="6.32753">
        <ele>1819.6</ele>
        <time>2024-08-12T10:17:30Z</time>
      </trkpt>
      <trkpt lat="44.76533" lon="6.32753">
        <ele>1819.6</ele>
        <time>2024-08-12T10:17:31Z</time>
      </trkpt>
      <trkpt lat="44.76533" lon="6.32753">
        <ele>1819.4</ele>
        <time>2024-08-12T10:17:32Z</time>
      </trkpt>
      <trkpt lat="44.76533" lon="6.32753">
        <ele>1819.4</ele>
        <time>2024-08-12T10:17:33Z</time>
      </trkpt>
      <trkpt lat="44.76533" lon="6.32753">
        <ele>1819.2</ele>
        <time>2024-08-12T10:17:34Z</time>
      </trkpt>
      <trkpt lat="44.76533" lon="6.32753">
        <ele>1819.2</ele>
        <time>2024-08-12T10:17:35Z</time>
      </trkpt>
      <trkpt lat="44.76533" lon="6.32753">
        <ele>1819.4</ele>
        <time>2024-08-12T10:17:36Z</time>
      </trkpt>
      <trkpt lat="44.76533" lon="6.32753">
        <ele>1819.4</ele>
        <time>2024-08-12T10:17:37Z</time>
      </trkpt>
      <trkpt lat="44.76533" lon="6.32753">
        <ele>1819.4</ele>
        <time>2024-08-12T10:17:38Z</time>
      </trkpt>
      <trkpt lat="44.76533" lon="6.32753">
        <ele>1819.6</ele>
        <time>2024-08-12T10:17:39Z</time>
      </trkpt>
      <trkpt lat="44.76533" lon="6.32753">
        <ele>1819.8</ele>
        <time>2024-08-12T10:17:40Z</time>
      </trkpt>
      <trkpt lat="44.76533" lon="6.32753">
        <ele>1819.8</ele>
        <time>2024-08-12T10:17:41Z</time>
      </trkpt>
      <trkpt lat="44.76533" lon="6.32753">
        <ele>1819.6</ele>
        <time>2024-08-12T10:17:42Z</time>
      </trkpt>
      <trkpt lat="44.76533" lon="6.32753">
        <ele>1819.6</ele>
        <time>2024-08-12T10:17:43Z</time>
      </trkpt>
      <trkpt lat="44.76533" lon="6.32753">
        <ele>1819.6</ele>
        <time>2024-08-12T10:17:44Z</time>
      </trkpt>
      <trkpt lat="44.76533" lon="6.32753">
        <ele>1819.6</ele>
        <time>2024-08-12T10:17:45Z</time>
      </trkpt>
      <trkpt lat="44.76533" lon="6.32753">
        <ele>1819.8</ele>
        <time>2024-08-12T10:17:46Z</time>
      </trkpt>
      <trkpt lat="44.76533" lon="6.32753">
        <ele>1819.8</ele>
        <time>2024-08-12T10:17:47Z</time>
      </trkpt>
      <trkpt lat="44.76533" lon="6.32753">
        <ele>1819.8</ele>
        <time>2024-08-12T10:17:48Z</time>
      </trkpt>
      <trkpt lat="44.76533" lon="6.32753">
        <ele>1819.8</ele>
        <time>2024-08-12T10:17:49Z</time>
      </trkpt>
      <trkpt lat="44.76533" lon="6.32753">
        <ele>1819.8</ele>
        <time>2024-08-12T10:17:50Z</time>
      </trkpt>
      <trkpt lat="44.76533" lon="6.32753">
        <ele>1820</ele>
        <time>2024-08-12T10:17:51Z</time>
      </trkpt>
      <trkpt lat="44.76533" lon="6.32753">
        <ele>1820</ele>
        <time>2024-08-12T10:17:52Z</time>
      </trkpt>
      <trkpt lat="44.76533" lon="6.32753">
        <ele>1819.8</ele>
        <time>2024-08-12T10:17:53Z</time>
      </trkpt>
      <trkpt lat="44.76533" lon="6.32753">
        <ele>1819.8</ele>
        <time>2024-08-12T10:17:54Z</time>
      </trkpt>
      <trkpt lat="44.76533" lon="6.32753">
        <ele>1819.8</ele>
        <time>2024-08-12T10:17:55Z</time>
      </trkpt>
      <trkpt lat="44.76533" lon="6.32753">
        <ele>1819.8</ele>
        <time>2024-08-12T10:17:56Z</time>
      </trkpt>
      <trkpt lat="44.76533" lon="6.32753">
        <ele>1819.8</ele>
        <time>2024-08-12T10:17:57Z</time>
      </trkpt>
      <trkpt lat="44.76533" lon="6.32753">
        <ele>1819.8</ele>
        <time>2024-08-12T10:17:58Z</time>
      </trkpt>
      <trkpt lat="44.76533" lon="6.32753">
        <ele>1819.6</ele>
        <time>2024-08-12T10:17:59Z</time>
      </trkpt>
      <trkpt lat="44.76533" lon="6.32753">
        <ele>1819.6</ele>
        <time>2024-08-12T10:18:00Z</time>
      </trkpt>
      <trkpt lat="44.76533" lon="6.32753">
        <ele>1819.6</ele>
        <time>2024-08-12T10:18:01Z</time>
      </trkpt>
      <trkpt lat="44.76533" lon="6.32753">
        <ele>1819.4</ele>
        <time>2024-08-12T10:18:02Z</time>
      </trkpt>
      <trkpt lat="44.76533" lon="6.32753">
        <ele>1819.4</ele>
        <time>2024-08-12T10:18:03Z</time>
      </trkpt>
      <trkpt lat="44.76533" lon="6.32753">
        <ele>1819.4</ele>
        <time>2024-08-12T10:18:04Z</time>
      </trkpt>
      <trkpt lat="44.76533" lon="6.32753">
        <ele>1819.6</ele>
        <time>2024-08-12T10:18:05Z</time>
      </trkpt>
      <trkpt lat="44.76533" lon="6.32753">
        <ele>1819.6</ele>
        <time>2024-08-12T10:18:06Z</time>
      </trkpt>
      <trkpt lat="44.76533" lon="6.32753">
        <ele>1819.6</ele>
        <time>2024-08-12T10:18:07Z</time>
      </trkpt>
      <trkpt lat="44.76533" lon="6.32753">
        <ele>1819.6</ele>
        <time>2024-08-12T10:18:08Z</time>
      </trkpt>
      <trkpt lat="44.76533" lon="6.32753">
        <ele>1819.6</ele>
        <time>2024-08-12T10:18:09Z</time>
      </trkpt>
      <trkpt lat="44.76533" lon="6.32753">
        <ele>1819.6</ele>
        <time>2024-08-12T10:18:10Z</time>
      </trkpt>
      <trkpt lat="44.76533" lon="6.32753">
        <ele>1819.6</ele>
        <time>2024-08-12T10:18:11Z</time>
      </trkpt>
      <trkpt lat="44.76533" lon="6.32753">
        <ele>1819.6</ele>
        <time>2024-08-12T10:18:12Z</time>
      </trkpt>
      <trkpt lat="44.76533" lon="6.32753">
        <ele>1819.6</ele>
        <time>2024-08-12T10:18:13Z</time>
      </trkpt>
      <trkpt lat="44.76533" lon="6.32753">
        <ele>1819.8</ele>
        <time>2024-08-12T10:18:14Z</time>
      </trkpt>
      <trkpt lat="44.76533" lon="6.32753">
        <ele>1819.8</ele>
        <time>2024-08-12T10:18:15Z</time>
      </trkpt>
      <trkpt lat="44.76533" lon="6.32753">
        <ele>1820.2</ele>
        <time>2024-08-12T10:18:16Z</time>
      </trkpt>
      <trkpt lat="44.76533" lon="6.32753">
        <ele>1820.2</ele>
        <time>2024-08-12T10:18:17Z</time>
      </trkpt>
      <trkpt lat="44.76533" lon="6.32753">
        <ele>1820.2</ele>
        <time>2024-08-12T10:18:18Z</time>
      </trkpt>
      <trkpt lat="44.76533" lon="6.32753">
        <ele>1820.2</ele>
        <time>2024-08-12T10:18:19Z</time>
      </trkpt>
      <trkpt lat="44.76533" lon="6.32753">
        <ele>1820.2</ele>
        <time>2024-08-12T10:18:20Z</time>
      </trkpt>
      <trkpt lat="44.76533" lon="6.32753">
        <ele>1820.2</ele>
        <time>2024-08-12T10:18:21Z</time>
      </trkpt>
      <trkpt lat="44.76533" lon="6.32753">
        <ele>1820.2</ele>
        <time>2024-08-12T10:18:22Z</time>
      </trkpt>
      <trkpt lat="44.76533" lon="6.32753">
        <ele>1820.2</ele>
        <time>2024-08-12T10:18:23Z</time>
      </trkpt>
      <trkpt lat="44.76533" lon="6.32753">
        <ele>1820</ele>
        <time>2024-08-12T10:18:24Z</time>
      </trkpt>
      <trkpt lat="44.76533" lon="6.32753">
        <ele>1819.8</ele>
        <time>2024-08-12T10:18:25Z</time>
      </trkpt>
      <trkpt lat="44.76533" lon="6.32753">
        <ele>1819.8</ele>
        <time>2024-08-12T10:18:26Z</time>
      </trkpt>
      <trkpt lat="44.76533" lon="6.32753">
        <ele>1819.8</ele>
        <time>2024-08-12T10:18:27Z</time>
      </trkpt>
      <trkpt lat="44.76533" lon="6.32753">
        <ele>1819.8</ele>
        <time>2024-08-12T10:18:28Z</time>
      </trkpt>
      <trkpt lat="44.76533" lon="6.32753">
        <ele>1819.8</ele>
        <time>2024-08-12T10:18:29Z</time>
      </trkpt>
      <trkpt lat="44.76533" lon="6.32753">
        <ele>1819.8</ele>
        <time>2024-08-12T10:18:30Z</time>
      </trkpt>
      <trkpt lat="44.76533" lon="6.32753">
        <ele>1819.8</ele>
        <time>2024-08-12T10:18:31Z</time>
      </trkpt>
      <trkpt lat="44.76533" lon="6.32753">
        <ele>1820</ele>
        <time>2024-08-12T10:18:32Z</time>
      </trkpt>
      <trkpt lat="44.76533" lon="6.32753">
        <ele>1820</ele>
        <time>2024-08-12T10:18:33Z</time>
      </trkpt>
      <trkpt lat="44.76533" lon="6.32753">
        <ele>1820</ele>
        <time>2024-08-12T10:18:34Z</time>
      </trkpt>
      <trkpt lat="44.76533" lon="6.32753">
        <ele>1820</ele>
        <time>2024-08-12T10:18:35Z</time>
      </trkpt>
      <trkpt lat="44.76533" lon="6.32753">
        <ele>1820</ele>
        <time>2024-08-12T10:18:36Z</time>
      </trkpt>
      <trkpt lat="44.76533" lon="6.32753">
        <ele>1820.2</ele>
        <time>2024-08-12T10:18:37Z</time>
      </trkpt>
      <trkpt lat="44.76533" lon="6.32753">
        <ele>1820.4</ele>
        <time>2024-08-12T10:18:38Z</time>
      </trkpt>
      <trkpt lat="44.76533" lon="6.32753">
        <ele>1820.4</ele>
        <time>2024-08-12T10:18:39Z</time>
      </trkpt>
      <trkpt lat="44.76533" lon="6.32753">
        <ele>1820.2</ele>
        <time>2024-08-12T10:18:40Z</time>
      </trkpt>
      <trkpt lat="44.76533" lon="6.32753">
        <ele>1820.2</ele>
        <time>2024-08-12T10:18:41Z</time>
      </trkpt>
      <trkpt lat="44.76533" lon="6.32753">
        <ele>1820.2</ele>
        <time>2024-08-12T10:18:42Z</time>
      </trkpt>
      <trkpt lat="44.76533" lon="6.32753">
        <ele>1820.2</ele>
        <time>2024-08-12T10:18:43Z</time>
      </trkpt>
      <trkpt lat="44.76533" lon="6.32753">
        <ele>1820.2</ele>
        <time>2024-08-12T10:18:44Z</time>
      </trkpt>
      <trkpt lat="44.76533" lon="6.32753">
        <ele>1820.2</ele>
        <time>2024-08-12T10:18:45Z</time>
      </trkpt>
      <trkpt lat="44.76533" lon="6.32753">
        <ele>1820.2</ele>
        <time>2024-08-12T10:18:46Z</time>
      </trkpt>
      <trkpt lat="44.76533" lon="6.32753">
        <ele>1820.2</ele>
        <time>2024-08-12T10:18:47Z</time>
      </trkpt>
      <trkpt lat="44.76533" lon="6.32753">
        <ele>1820.2</ele>
        <time>2024-08-12T10:18:48Z</time>
      </trkpt>
      <trkpt lat="44.76533" lon="6.32753">
        <ele>1820.2</ele>
        <time>2024-08-12T10:18:49Z</time>
      </trkpt>
      <trkpt lat="44.76533" lon="6.32753">
        <ele>1820.2</ele>
        <time>2024-08-12T10:18:50Z</time>
      </trkpt>
      <trkpt lat="44.76533" lon="6.32753">
        <ele>1820</ele>
        <time>2024-08-12T10:18:51Z</time>
      </trkpt>
      <trkpt lat="44.76533" lon="6.32753">
        <ele>1820</ele>
        <time>2024-08-12T10:18:52Z</time>
      </trkpt>
      <trkpt lat="44.76533" lon="6.32753">
        <ele>1820.2</ele>
        <time>2024-08-12T10:18:53Z</time>
      </trkpt>
      <trkpt lat="44.76533" lon="6.32753">
        <ele>1820.2</ele>
        <time>2024-08-12T10:18:54Z</time>
      </trkpt>
      <trkpt lat="44.76533" lon="6.32753">
        <ele>1820.4</ele>
        <time>2024-08-12T10:18:55Z</time>
      </trkpt>
      <trkpt lat="44.76533" lon="6.32753">
        <ele>1820.8</ele>
        <time>2024-08-12T10:18:56Z</time>
      </trkpt>
      <trkpt lat="44.76533" lon="6.32753">
        <ele>1820.8</ele>
        <time>2024-08-12T10:18:57Z</time>
      </trkpt>
      <trkpt lat="44.76533" lon="6.32753">
        <ele>1820.8</ele>
        <time>2024-08-12T10:18:58Z</time>
      </trkpt>
      <trkpt lat="44.76533" lon="6.32753">
        <ele>1820.6</ele>
        <time>2024-08-12T10:18:59Z</time>
      </trkpt>
      <trkpt lat="44.76533" lon="6.32753">
        <ele>1820.4</ele>
        <time>2024-08-12T10:19:00Z</time>
      </trkpt>
      <trkpt lat="44.76533" lon="6.32753">
        <ele>1820.4</ele>
        <time>2024-08-12T10:19:01Z</time>
      </trkpt>
      <trkpt lat="44.76533" lon="6.32753">
        <ele>1820.4</ele>
        <time>2024-08-12T10:19:02Z</time>
      </trkpt>
      <trkpt lat="44.76533" lon="6.32753">
        <ele>1820.4</ele>
        <time>2024-08-12T10:19:03Z</time>
      </trkpt>
      <trkpt lat="44.76533" lon="6.32753">
        <ele>1820.4</ele>
        <time>2024-08-12T10:19:04Z</time>
      </trkpt>
      <trkpt lat="44.76533" lon="6.32753">
        <ele>1820.4</ele>
        <time>2024-08-12T10:19:05Z</time>
      </trkpt>
      <trkpt lat="44.76533" lon="6.32753">
        <ele>1820.4</ele>
        <time>2024-08-12T10:19:06Z</time>
      </trkpt>
      <trkpt lat="44.76533" lon="6.32753">
        <ele>1820.4</ele>
        <time>2024-08-12T10:19:07Z</time>
      </trkpt>
      <trkpt lat="44.76533" lon="6.32753">
        <ele>1820.4</ele>
        <time>2024-08-12T10:19:08Z</time>
      </trkpt>
      <trkpt lat="44.76533" lon="6.32753">
        <ele>1820.4</ele>
        <time>2024-08-12T10:19:09Z</time>
      </trkpt>
      <trkpt lat="44.76533" lon="6.32753">
        <ele>1820.6</ele>
        <time>2024-08-12T10:19:10Z</time>
      </trkpt>
      <trkpt lat="44.76533" lon="6.32753">
        <ele>1820.8</ele>
        <time>2024-08-12T10:19:11Z</time>
      </trkpt>
      <trkpt lat="44.76533" lon="6.32753">
        <ele>1820.8</ele>
        <time>2024-08-12T10:19:12Z</time>
      </trkpt>
      <trkpt lat="44.76533" lon="6.32753">
        <ele>1821.2</ele>
        <time>2024-08-12T10:19:13Z</time>
      </trkpt>
      <trkpt lat="44.76533" lon="6.32753">
        <ele>1821.2</ele>
        <time>2024-08-12T10:19:14Z</time>
      </trkpt>
      <trkpt lat="44.76533" lon="6.32753">
        <ele>1821</ele>
        <time>2024-08-12T10:19:15Z</time>
      </trkpt>
      <trkpt lat="44.76533" lon="6.32753">
        <ele>1820.8</ele>
        <time>2024-08-12T10:19:16Z</time>
      </trkpt>
      <trkpt lat="44.76533" lon="6.32753">
        <ele>1820.8</ele>
        <time>2024-08-12T10:19:17Z</time>
      </trkpt>
      <trkpt lat="44.76533" lon="6.32753">
        <ele>1820.6</ele>
        <time>2024-08-12T10:19:18Z</time>
      </trkpt>
      <trkpt lat="44.76533" lon="6.32753">
        <ele>1820.6</ele>
        <time>2024-08-12T10:19:19Z</time>
      </trkpt>
      <trkpt lat="44.76533" lon="6.32753">
        <ele>1820.4</ele>
        <time>2024-08-12T10:19:20Z</time>
      </trkpt>
      <trkpt lat="44.76533" lon="6.32753">
        <ele>1820.4</ele>
        <time>2024-08-12T10:19:21Z</time>
      </trkpt>
      <trkpt lat="44.76533" lon="6.32753">
        <ele>1820.4</ele>
        <time>2024-08-12T10:19:22Z</time>
      </trkpt>
      <trkpt lat="44.76533" lon="6.32753">
        <ele>1820.6</ele>
        <time>2024-08-12T10:19:23Z</time>
      </trkpt>
      <trkpt lat="44.76533" lon="6.32753">
        <ele>1820.6</ele>
        <time>2024-08-12T10:19:24Z</time>
      </trkpt>
      <trkpt lat="44.76533" lon="6.32753">
        <ele>1820.4</ele>
        <time>2024-08-12T10:19:25Z</time>
      </trkpt>
      <trkpt lat="44.76533" lon="6.32753">
        <ele>1820.4</ele>
        <time>2024-08-12T10:19:26Z</time>
      </trkpt>
      <trkpt lat="44.76533" lon="6.32753">
        <ele>1820.4</ele>
        <time>2024-08-12T10:19:27Z</time>
      </trkpt>
      <trkpt lat="44.76533" lon="6.32753">
        <ele>1820.4</ele>
        <time>2024-08-12T10:19:28Z</time>
      </trkpt>
      <trkpt lat="44.76533" lon="6.32753">
        <ele>1820.2</ele>
        <time>2024-08-12T10:19:29Z</time>
      </trkpt>
      <trkpt lat="44.76533" lon="6.32753">
        <ele>1820.2</ele>
        <time>2024-08-12T10:19:30Z</time>
      </trkpt>
      <trkpt lat="44.76533" lon="6.32753">
        <ele>1820.2</ele>
        <time>2024-08-12T10:19:31Z</time>
      </trkpt>
      <trkpt lat="44.76533" lon="6.32753">
        <ele>1820.2</ele>
        <time>2024-08-12T10:19:32Z</time>
      </trkpt>
      <trkpt lat="44.76533" lon="6.32753">
        <ele>1820.2</ele>
        <time>2024-08-12T10:19:33Z</time>
      </trkpt>
      <trkpt lat="44.76533" lon="6.32753">
        <ele>1820.2</ele>
        <time>2024-08-12T10:19:34Z</time>
      </trkpt>
      <trkpt lat="44.76533" lon="6.32753">
        <ele>1820.2</ele>
        <time>2024-08-12T10:19:35Z</time>
      </trkpt>
      <trkpt lat="44.76533" lon="6.32753">
        <ele>1820</ele>
        <time>2024-08-12T10:19:36Z</time>
      </trkpt>
      <trkpt lat="44.76533" lon="6.32753">
        <ele>1820.2</ele>
        <time>2024-08-12T10:19:37Z</time>
      </trkpt>
      <trkpt lat="44.76533" lon="6.32753">
        <ele>1820.2</ele>
        <time>2024-08-12T10:19:38Z</time>
      </trkpt>
      <trkpt lat="44.76533" lon="6.32753">
        <ele>1820.2</ele>
        <time>2024-08-12T10:19:39Z</time>
      </trkpt>
      <trkpt lat="44.76533" lon="6.32753">
        <ele>1820.2</ele>
        <time>2024-08-12T10:19:40Z</time>
      </trkpt>
      <trkpt lat="44.76533" lon="6.32753">
        <ele>1820.2</ele>
        <time>2024-08-12T10:19:41Z</time>
      </trkpt>
      <trkpt lat="44.76533" lon="6.32753">
        <ele>1820.2</ele>
        <time>2024-08-12T10:19:42Z</time>
      </trkpt>
      <trkpt lat="44.76533" lon="6.32753">
        <ele>1820.2</ele>
        <time>2024-08-12T10:19:43Z</time>
      </trkpt>
      <trkpt lat="44.76533" lon="6.32753">
        <ele>1820.2</ele>
        <time>2024-08-12T10:19:44Z</time>
      </trkpt>
      <trkpt lat="44.76533" lon="6.32753">
        <ele>1820.2</ele>
        <time>2024-08-12T10:19:45Z</time>
      </trkpt>
      <trkpt lat="44.76533" lon="6.32753">
        <ele>1820.2</ele>
        <time>2024-08-12T10:19:46Z</time>
      </trkpt>
      <trkpt lat="44.76533" lon="6.32753">
        <ele>1820</ele>
        <time>2024-08-12T10:19:47Z</time>
      </trkpt>
      <trkpt lat="44.76533" lon="6.32753">
        <ele>1820</ele>
        <time>2024-08-12T10:19:48Z</time>
      </trkpt>
      <trkpt lat="44.76533" lon="6.32753">
        <ele>1819.2</ele>
        <time>2024-08-12T10:19:49Z</time>
      </trkpt>
      <trkpt lat="44.76533" lon="6.32753">
        <ele>1818.8</ele>
        <time>2024-08-12T10:19:50Z</time>
      </trkpt>
      <trkpt lat="44.76533" lon="6.32753">
        <ele>1818.8</ele>
        <time>2024-08-12T10:19:51Z</time>
      </trkpt>
      <trkpt lat="44.76533" lon="6.32753">
        <ele>1818.6</ele>
        <time>2024-08-12T10:19:52Z</time>
      </trkpt>
      <trkpt lat="44.76533" lon="6.32753">
        <ele>1818.4</ele>
        <time>2024-08-12T10:19:53Z</time>
      </trkpt>
      <trkpt lat="44.76533" lon="6.32753">
        <ele>1817.8</ele>
        <time>2024-08-12T10:19:54Z</time>
      </trkpt>
      <trkpt lat="44.76533" lon="6.32753">
        <ele>1817.2</ele>
        <time>2024-08-12T10:19:55Z</time>
      </trkpt>
      <trkpt lat="44.76533" lon="6.32753">
        <ele>1816.8</ele>
        <time>2024-08-12T10:19:56Z</time>
      </trkpt>
      <trkpt lat="44.76533" lon="6.32753">
        <ele>1816.8</ele>
        <time>2024-08-12T10:19:57Z</time>
      </trkpt>
      <trkpt lat="44.76533" lon="6.32753">
        <ele>1817.2</ele>
        <time>2024-08-12T10:19:58Z</time>
      </trkpt>
      <trkpt lat="44.76533" lon="6.32753">
        <ele>1817.2</ele>
        <time>2024-08-12T10:19:59Z</time>
      </trkpt>
      <trkpt lat="44.76531" lon="6.32759">
        <ele>1817.2</ele>
        <time>2024-08-12T10:20:00Z</time>
      </trkpt>
      <trkpt lat="44.76531" lon="6.32759">
        <ele>1817.6</ele>
        <time>2024-08-12T10:20:01Z</time>
      </trkpt>
      <trkpt lat="44.76531" lon="6.32759">
        <ele>1818.2</ele>
        <time>2024-08-12T10:20:02Z</time>
      </trkpt>
      <trkpt lat="44.76533" lon="6.32758">
        <ele>1818.4</ele>
        <time>2024-08-12T10:20:03Z</time>
      </trkpt>
      <trkpt lat="44.76533" lon="6.32758">
        <ele>1818.8</ele>
        <time>2024-08-12T10:20:04Z</time>
      </trkpt>
      <trkpt lat="44.76533" lon="6.32758">
        <ele>1818.8</ele>
        <time>2024-08-12T10:20:05Z</time>
      </trkpt>
      <trkpt lat="44.76533" lon="6.32758">
        <ele>1818.8</ele>
        <time>2024-08-12T10:20:06Z</time>
      </trkpt>
      <trkpt lat="44.76533" lon="6.32758">
        <ele>1819</ele>
        <time>2024-08-12T10:20:07Z</time>
      </trkpt>
      <trkpt lat="44.76533" lon="6.32758">
        <ele>1819.6</ele>
        <time>2024-08-12T10:20:08Z</time>
      </trkpt>
      <trkpt lat="44.76533" lon="6.32758">
        <ele>1820.2</ele>
        <time>2024-08-12T10:20:09Z</time>
      </trkpt>
      <trkpt lat="44.76533" lon="6.32758">
        <ele>1820.2</ele>
        <time>2024-08-12T10:20:10Z</time>
      </trkpt>
      <trkpt lat="44.76533" lon="6.32758">
        <ele>1819.6</ele>
        <time>2024-08-12T10:20:11Z</time>
      </trkpt>
      <trkpt lat="44.76533" lon="6.32758">
        <ele>1819.6</ele>
        <time>2024-08-12T10:20:12Z</time>
      </trkpt>
      <trkpt lat="44.76533" lon="6.32758">
        <ele>1819.6</ele>
        <time>2024-08-12T10:20:13Z</time>
      </trkpt>
      <trkpt lat="44.76533" lon="6.32758">
        <ele>1819.8</ele>
        <time>2024-08-12T10:20:14Z</time>
      </trkpt>
      <trkpt lat="44.76533" lon="6.32758">
        <ele>1820.2</ele>
        <time>2024-08-12T10:20:15Z</time>
      </trkpt>
      <trkpt lat="44.76533" lon="6.32758">
        <ele>1820.2</ele>
        <time>2024-08-12T10:20:16Z</time>
      </trkpt>
      <trkpt lat="44.76533" lon="6.32758">
        <ele>1820.2</ele>
        <time>2024-08-12T10:20:17Z</time>
      </trkpt>
      <trkpt lat="44.76533" lon="6.32758">
        <ele>1820.2</ele>
        <time>2024-08-12T10:20:18Z</time>
      </trkpt>
      <trkpt lat="44.76533" lon="6.32758">
        <ele>1820.2</ele>
        <time>2024-08-12T10:20:19Z</time>
      </trkpt>
      <trkpt lat="44.76533" lon="6.32758">
        <ele>1820.2</ele>
        <time>2024-08-12T10:20:20Z</time>
      </trkpt>
      <trkpt lat="44.76533" lon="6.32758">
        <ele>1820.2</ele>
        <time>2024-08-12T10:20:21Z</time>
      </trkpt>
      <trkpt lat="44.76533" lon="6.32758">
        <ele>1820.2</ele>
        <time>2024-08-12T10:20:22Z</time>
      </trkpt>
      <trkpt lat="44.76533" lon="6.32758">
        <ele>1820.2</ele>
        <time>2024-08-12T10:20:23Z</time>
      </trkpt>
      <trkpt lat="44.76533" lon="6.32758">
        <ele>1820.4</ele>
        <time>2024-08-12T10:20:24Z</time>
      </trkpt>
      <trkpt lat="44.76533" lon="6.32758">
        <ele>1820.4</ele>
        <time>2024-08-12T10:20:25Z</time>
      </trkpt>
      <trkpt lat="44.76533" lon="6.32758">
        <ele>1820.2</ele>
        <time>2024-08-12T10:20:26Z</time>
      </trkpt>
      <trkpt lat="44.76533" lon="6.32758">
        <ele>1820</ele>
        <time>2024-08-12T10:20:27Z</time>
      </trkpt>
      <trkpt lat="44.76533" lon="6.32758">
        <ele>1820</ele>
        <time>2024-08-12T10:20:28Z</time>
      </trkpt>
      <trkpt lat="44.76533" lon="6.32758">
        <ele>1820</ele>
        <time>2024-08-12T10:20:29Z</time>
      </trkpt>
      <trkpt lat="44.76533" lon="6.32758">
        <ele>1820.2</ele>
        <time>2024-08-12T10:20:30Z</time>
      </trkpt>
      <trkpt lat="44.76533" lon="6.32758">
        <ele>1820.2</ele>
        <time>2024-08-12T10:20:31Z</time>
      </trkpt>
      <trkpt lat="44.76533" lon="6.32758">
        <ele>1820.2</ele>
        <time>2024-08-12T10:20:32Z</time>
      </trkpt>
      <trkpt lat="44.76533" lon="6.32758">
        <ele>1820.2</ele>
        <time>2024-08-12T10:20:33Z</time>
      </trkpt>
      <trkpt lat="44.76533" lon="6.32758">
        <ele>1820</ele>
        <time>2024-08-12T10:20:34Z</time>
      </trkpt>
      <trkpt lat="44.76533" lon="6.32758">
        <ele>1820</ele>
        <time>2024-08-12T10:20:35Z</time>
      </trkpt>
      <trkpt lat="44.76533" lon="6.32758">
        <ele>1820</ele>
        <time>2024-08-12T10:20:36Z</time>
      </trkpt>
      <trkpt lat="44.76533" lon="6.32758">
        <ele>1820</ele>
        <time>2024-08-12T10:20:37Z</time>
      </trkpt>
      <trkpt lat="44.76533" lon="6.32758">
        <ele>1820.2</ele>
        <time>2024-08-12T10:20:38Z</time>
      </trkpt>
      <trkpt lat="44.76533" lon="6.32758">
        <ele>1820.2</ele>
        <time>2024-08-12T10:20:39Z</time>
      </trkpt>
      <trkpt lat="44.76533" lon="6.32758">
        <ele>1820.2</ele>
        <time>2024-08-12T10:20:40Z</time>
      </trkpt>
      <trkpt lat="44.76533" lon="6.32758">
        <ele>1820.2</ele>
        <time>2024-08-12T10:20:41Z</time>
      </trkpt>
      <trkpt lat="44.76533" lon="6.32758">
        <ele>1820.2</ele>
        <time>2024-08-12T10:20:42Z</time>
      </trkpt>
      <trkpt lat="44.76533" lon="6.32758">
        <ele>1820.2</ele>
        <time>2024-08-12T10:20:43Z</time>
      </trkpt>
      <trkpt lat="44.76533" lon="6.32758">
        <ele>1820.2</ele>
        <time>2024-08-12T10:20:44Z</time>
      </trkpt>
      <trkpt lat="44.76533" lon="6.32758">
        <ele>1820.2</ele>
        <time>2024-08-12T10:20:45Z</time>
      </trkpt>
      <trkpt lat="44.76533" lon="6.32758">
        <ele>1820.2</ele>
        <time>2024-08-12T10:20:46Z</time>
      </trkpt>
      <trkpt lat="44.76533" lon="6.32758">
        <ele>1820.4</ele>
        <time>2024-08-12T10:20:47Z</time>
      </trkpt>
      <trkpt lat="44.76533" lon="6.32758">
        <ele>1820.4</ele>
        <time>2024-08-12T10:20:48Z</time>
      </trkpt>
      <trkpt lat="44.76533" lon="6.32758">
        <ele>1820.4</ele>
        <time>2024-08-12T10:20:49Z</time>
      </trkpt>
      <trkpt lat="44.76533" lon="6.32758">
        <ele>1820.2</ele>
        <time>2024-08-12T10:20:50Z</time>
      </trkpt>
      <trkpt lat="44.76533" lon="6.32758">
        <ele>1820</ele>
        <time>2024-08-12T10:20:51Z</time>
      </trkpt>
      <trkpt lat="44.76533" lon="6.32758">
        <ele>1820</ele>
        <time>2024-08-12T10:20:52Z</time>
      </trkpt>
      <trkpt lat="44.76533" lon="6.32758">
        <ele>1820.4</ele>
        <time>2024-08-12T10:20:53Z</time>
      </trkpt>
      <trkpt lat="44.76533" lon="6.32758">
        <ele>1820.8</ele>
        <time>2024-08-12T10:20:54Z</time>
      </trkpt>
      <trkpt lat="44.76533" lon="6.32758">
        <ele>1820.8</ele>
        <time>2024-08-12T10:20:55Z</time>
      </trkpt>
      <trkpt lat="44.76533" lon="6.32758">
        <ele>1820.6</ele>
        <time>2024-08-12T10:20:56Z</time>
      </trkpt>
      <trkpt lat="44.76533" lon="6.32758">
        <ele>1820.4</ele>
        <time>2024-08-12T10:20:57Z</time>
      </trkpt>
      <trkpt lat="44.76533" lon="6.32758">
        <ele>1820.4</ele>
        <time>2024-08-12T10:20:58Z</time>
      </trkpt>
      <trkpt lat="44.76533" lon="6.32758">
        <ele>1820.4</ele>
        <time>2024-08-12T10:20:59Z</time>
      </trkpt>
      <trkpt lat="44.76533" lon="6.32758">
        <ele>1820.4</ele>
        <time>2024-08-12T10:21:00Z</time>
      </trkpt>
      <trkpt lat="44.76533" lon="6.32758">
        <ele>1820.6</ele>
        <time>2024-08-12T10:21:01Z</time>
      </trkpt>
      <trkpt lat="44.76533" lon="6.32758">
        <ele>1820.4</ele>
        <time>2024-08-12T10:21:02Z</time>
      </trkpt>
      <trkpt lat="44.76533" lon="6.32758">
        <ele>1820.4</ele>
        <time>2024-08-12T10:21:03Z</time>
      </trkpt>
      <trkpt lat="44.76533" lon="6.32758">
        <ele>1820.4</ele>
        <time>2024-08-12T10:21:04Z</time>
      </trkpt>
      <trkpt lat="44.76533" lon="6.32758">
        <ele>1820.4</ele>
        <time>2024-08-12T10:21:05Z</time>
      </trkpt>
      <trkpt lat="44.76533" lon="6.32758">
        <ele>1820.4</ele>
        <time>2024-08-12T10:21:06Z</time>
      </trkpt>
      <trkpt lat="44.76533" lon="6.32758">
        <ele>1820.6</ele>
        <time>2024-08-12T10:21:07Z</time>
      </trkpt>
      <trkpt lat="44.76533" lon="6.32758">
        <ele>1820.6</ele>
        <time>2024-08-12T10:21:08Z</time>
      </trkpt>
      <trkpt lat="44.76533" lon="6.32758">
        <ele>1820.6</ele>
        <time>2024-08-12T10:21:09Z</time>
      </trkpt>
      <trkpt lat="44.76533" lon="6.32758">
        <ele>1820.6</ele>
        <time>2024-08-12T10:21:10Z</time>
      </trkpt>
      <trkpt lat="44.76533" lon="6.32758">
        <ele>1820.8</ele>
        <time>2024-08-12T10:21:11Z</time>
      </trkpt>
      <trkpt lat="44.76533" lon="6.32758">
        <ele>1820.8</ele>
        <time>2024-08-12T10:21:12Z</time>
      </trkpt>
      <trkpt lat="44.76533" lon="6.32758">
        <ele>1820.8</ele>
        <time>2024-08-12T10:21:13Z</time>
      </trkpt>
      <trkpt lat="44.76533" lon="6.32758">
        <ele>1820.8</ele>
        <time>2024-08-12T10:21:14Z</time>
      </trkpt>
      <trkpt lat="44.76533" lon="6.32758">
        <ele>1820.8</ele>
        <time>2024-08-12T10:21:15Z</time>
      </trkpt>
      <trkpt lat="44.76533" lon="6.32758">
        <ele>1820.8</ele>
        <time>2024-08-12T10:21:16Z</time>
      </trkpt>
      <trkpt lat="44.76533" lon="6.32758">
        <ele>1820.6</ele>
        <time>2024-08-12T10:21:17Z</time>
      </trkpt>
      <trkpt lat="44.76533" lon="6.32758">
        <ele>1820.4</ele>
        <time>2024-08-12T10:21:18Z</time>
      </trkpt>
      <trkpt lat="44.76533" lon="6.32758">
        <ele>1820.4</ele>
        <time>2024-08-12T10:21:19Z</time>
      </trkpt>
      <trkpt lat="44.76533" lon="6.32758">
        <ele>1820.4</ele>
        <time>2024-08-12T10:21:20Z</time>
      </trkpt>
      <trkpt lat="44.76533" lon="6.32758">
        <ele>1820.4</ele>
        <time>2024-08-12T10:21:21Z</time>
      </trkpt>
      <trkpt lat="44.76533" lon="6.32758">
        <ele>1820.2</ele>
        <time>2024-08-12T10:21:22Z</time>
      </trkpt>
      <trkpt lat="44.76533" lon="6.32758">
        <ele>1820.2</ele>
        <time>2024-08-12T10:21:23Z</time>
      </trkpt>
      <trkpt lat="44.76533" lon="6.32758">
        <ele>1820.2</ele>
        <time>2024-08-12T10:21:24Z</time>
      </trkpt>
      <trkpt lat="44.76533" lon="6.32758">
        <ele>1820.2</ele>
        <time>2024-08-12T10:21:25Z</time>
      </trkpt>
      <trkpt lat="44.76533" lon="6.32758">
        <ele>1820.2</ele>
        <time>2024-08-12T10:21:26Z</time>
      </trkpt>
      <trkpt lat="44.76533" lon="6.32758">
        <ele>1820.2</ele>
        <time>2024-08-12T10:21:27Z</time>
      </trkpt>
      <trkpt lat="44.76533" lon="6.32758">
        <ele>1820.4</ele>
        <time>2024-08-12T10:21:28Z</time>
      </trkpt>
      <trkpt lat="44.76533" lon="6.32758">
        <ele>1820.4</ele>
        <time>2024-08-12T10:21:29Z</time>
      </trkpt>
      <trkpt lat="44.76533" lon="6.32758">
        <ele>1820.2</ele>
        <time>2024-08-12T10:21:30Z</time>
      </trkpt>
      <trkpt lat="44.76533" lon="6.32758">
        <ele>1820.2</ele>
        <time>2024-08-12T10:21:31Z</time>
      </trkpt>
      <trkpt lat="44.76533" lon="6.32758">
        <ele>1820.2</ele>
        <time>2024-08-12T10:21:32Z</time>
      </trkpt>
      <trkpt lat="44.76533" lon="6.32758">
        <ele>1820.2</ele>
        <time>2024-08-12T10:21:33Z</time>
      </trkpt>
      <trkpt lat="44.76533" lon="6.32758">
        <ele>1820.2</ele>
        <time>2024-08-12T10:21:34Z</time>
      </trkpt>
      <trkpt lat="44.76533" lon="6.32758">
        <ele>1820</ele>
        <time>2024-08-12T10:21:35Z</time>
      </trkpt>
      <trkpt lat="44.76533" lon="6.32758">
        <ele>1820</ele>
        <time>2024-08-12T10:21:36Z</time>
      </trkpt>
      <trkpt lat="44.76533" lon="6.32758">
        <ele>1820.2</ele>
        <time>2024-08-12T10:21:37Z</time>
      </trkpt>
      <trkpt lat="44.76533" lon="6.32758">
        <ele>1820.2</ele>
        <time>2024-08-12T10:21:38Z</time>
      </trkpt>
      <trkpt lat="44.76533" lon="6.32758">
        <ele>1820</ele>
        <time>2024-08-12T10:21:39Z</time>
      </trkpt>
      <trkpt lat="44.76533" lon="6.32758">
        <ele>1820</ele>
        <time>2024-08-12T10:21:40Z</time>
      </trkpt>
      <trkpt lat="44.76533" lon="6.32758">
        <ele>1820</ele>
        <time>2024-08-12T10:21:41Z</time>
      </trkpt>
      <trkpt lat="44.76533" lon="6.32758">
        <ele>1820</ele>
        <time>2024-08-12T10:21:42Z</time>
      </trkpt>
      <trkpt lat="44.76533" lon="6.32758">
        <ele>1820</ele>
        <time>2024-08-12T10:21:43Z</time>
      </trkpt>
      <trkpt lat="44.76533" lon="6.32758">
        <ele>1820.2</ele>
        <time>2024-08-12T10:21:44Z</time>
      </trkpt>
      <trkpt lat="44.76533" lon="6.32758">
        <ele>1820.2</ele>
        <time>2024-08-12T10:21:45Z</time>
      </trkpt>
      <trkpt lat="44.76533" lon="6.32758">
        <ele>1820</ele>
        <time>2024-08-12T10:21:46Z</time>
      </trkpt>
      <trkpt lat="44.76533" lon="6.32758">
        <ele>1819.8</ele>
        <time>2024-08-12T10:21:47Z</time>
      </trkpt>
      <trkpt lat="44.76533" lon="6.32758">
        <ele>1819.8</ele>
        <time>2024-08-12T10:21:48Z</time>
      </trkpt>
      <trkpt lat="44.76533" lon="6.32758">
        <ele>1819.8</ele>
        <time>2024-08-12T10:21:50Z</time>
      </trkpt>
      <trkpt lat="44.76533" lon="6.32758">
        <ele>1819.8</ele>
        <time>2024-08-12T10:21:51Z</time>
      </trkpt>
      <trkpt lat="44.76533" lon="6.32758">
        <ele>1819.8</ele>
        <time>2024-08-12T10:21:52Z</time>
      </trkpt>
      <trkpt lat="44.76533" lon="6.32758">
        <ele>1819.8</ele>
        <time>2024-08-12T10:21:53Z</time>
      </trkpt>
      <trkpt lat="44.76533" lon="6.32758">
        <ele>1819.8</ele>
        <time>2024-08-12T10:21:54Z</time>
      </trkpt>
      <trkpt lat="44.76533" lon="6.32758">
        <ele>1819.8</ele>
        <time>2024-08-12T10:21:55Z</time>
      </trkpt>
      <trkpt lat="44.76533" lon="6.32758">
        <ele>1819.8</ele>
        <time>2024-08-12T10:21:56Z</time>
      </trkpt>
      <trkpt lat="44.76533" lon="6.32758">
        <ele>1820</ele>
        <time>2024-08-12T10:21:57Z</time>
      </trkpt>
      <trkpt lat="44.76533" lon="6.32758">
        <ele>1820</ele>
        <time>2024-08-12T10:21:58Z</time>
      </trkpt>
      <trkpt lat="44.76533" lon="6.32758">
        <ele>1820</ele>
        <time>2024-08-12T10:21:59Z</time>
      </trkpt>
      <trkpt lat="44.76533" lon="6.32758">
        <ele>1820.2</ele>
        <time>2024-08-12T10:22:00Z</time>
      </trkpt>
      <trkpt lat="44.76533" lon="6.32758">
        <ele>1820.2</ele>
        <time>2024-08-12T10:22:01Z</time>
      </trkpt>
      <trkpt lat="44.76533" lon="6.32758">
        <ele>1820.2</ele>
        <time>2024-08-12T10:22:02Z</time>
      </trkpt>
      <trkpt lat="44.76533" lon="6.32758">
        <ele>1820.2</ele>
        <time>2024-08-12T10:22:03Z</time>
      </trkpt>
      <trkpt lat="44.76533" lon="6.32758">
        <ele>1820.2</ele>
        <time>2024-08-12T10:22:04Z</time>
      </trkpt>
      <trkpt lat="44.76533" lon="6.32758">
        <ele>1820.2</ele>
        <time>2024-08-12T10:22:05Z</time>
      </trkpt>
      <trkpt lat="44.76533" lon="6.32758">
        <ele>1820.2</ele>
        <time>2024-08-12T10:22:06Z</time>
      </trkpt>
      <trkpt lat="44.76533" lon="6.32758">
        <ele>1820.2</ele>
        <time>2024-08-12T10:22:07Z</time>
      </trkpt>
      <trkpt lat="44.76533" lon="6.32758">
        <ele>1820.2</ele>
        <time>2024-08-12T10:22:08Z</time>
      </trkpt>
      <trkpt lat="44.76533" lon="6.32758">
        <ele>1820.2</ele>
        <time>2024-08-12T10:22:09Z</time>
      </trkpt>
      <trkpt lat="44.76533" lon="6.32758">
        <ele>1820.2</ele>
        <time>2024-08-12T10:22:10Z</time>
      </trkpt>
      <trkpt lat="44.76533" lon="6.32758">
        <ele>1820.2</ele>
        <time>2024-08-12T10:22:11Z</time>
      </trkpt>
      <trkpt lat="44.76533" lon="6.32758">
        <ele>1820.2</ele>
        <time>2024-08-12T10:22:12Z</time>
      </trkpt>
      <trkpt lat="44.76533" lon="6.32758">
        <ele>1820.2</ele>
        <time>2024-08-12T10:22:13Z</time>
      </trkpt>
      <trkpt lat="44.76533" lon="6.32758">
        <ele>1820.2</ele>
        <time>2024-08-12T10:22:14Z</time>
      </trkpt>
      <trkpt lat="44.76533" lon="6.32758">
        <ele>1820.4</ele>
        <time>2024-08-12T10:22:15Z</time>
      </trkpt>
      <trkpt lat="44.76533" lon="6.32758">
        <ele>1820.4</ele>
        <time>2024-08-12T10:22:16Z</time>
      </trkpt>
      <trkpt lat="44.76533" lon="6.32758">
        <ele>1820.4</ele>
        <time>2024-08-12T10:22:17Z</time>
      </trkpt>
      <trkpt lat="44.76533" lon="6.32758">
        <ele>1820.4</ele>
        <time>2024-08-12T10:22:18Z</time>
      </trkpt>
      <trkpt lat="44.76533" lon="6.32758">
        <ele>1820.4</ele>
        <time>2024-08-12T10:22:19Z</time>
      </trkpt>
      <trkpt lat="44.76533" lon="6.32758">
        <ele>1820.4</ele>
        <time>2024-08-12T10:22:20Z</time>
      </trkpt>
      <trkpt lat="44.76533" lon="6.32758">
        <ele>1820.6</ele>
        <time>2024-08-12T10:22:21Z</time>
      </trkpt>
      <trkpt lat="44.76533" lon="6.32758">
        <ele>1820.6</ele>
        <time>2024-08-12T10:22:22Z</time>
      </trkpt>
      <trkpt lat="44.76533" lon="6.32758">
        <ele>1820.6</ele>
        <time>2024-08-12T10:22:23Z</time>
      </trkpt>
      <trkpt lat="44.76533" lon="6.32758">
        <ele>1820.6</ele>
        <time>2024-08-12T10:22:24Z</time>
      </trkpt>
      <trkpt lat="44.76533" lon="6.32758">
        <ele>1820.6</ele>
        <time>2024-08-12T10:22:25Z</time>
      </trkpt>
      <trkpt lat="44.76533" lon="6.32758">
        <ele>1820.6</ele>
        <time>2024-08-12T10:22:26Z</time>
      </trkpt>
      <trkpt lat="44.76533" lon="6.32758">
        <ele>1820.6</ele>
        <time>2024-08-12T10:22:27Z</time>
      </trkpt>
      <trkpt lat="44.76533" lon="6.32758">
        <ele>1820.6</ele>
        <time>2024-08-12T10:22:28Z</time>
      </trkpt>
      <trkpt lat="44.76533" lon="6.32758">
        <ele>1820.6</ele>
        <time>2024-08-12T10:22:29Z</time>
      </trkpt>
      <trkpt lat="44.76533" lon="6.32758">
        <ele>1820.6</ele>
        <time>2024-08-12T10:22:30Z</time>
      </trkpt>
      <trkpt lat="44.76533" lon="6.32758">
        <ele>1820.6</ele>
        <time>2024-08-12T10:22:31Z</time>
      </trkpt>
      <trkpt lat="44.76533" lon="6.32758">
        <ele>1820.6</ele>
        <time>2024-08-12T10:22:32Z</time>
      </trkpt>
      <trkpt lat="44.76533" lon="6.32758">
        <ele>1820.6</ele>
        <time>2024-08-12T10:22:33Z</time>
      </trkpt>
      <trkpt lat="44.76533" lon="6.32758">
        <ele>1820.6</ele>
        <time>2024-08-12T10:22:34Z</time>
      </trkpt>
      <trkpt lat="44.76533" lon="6.32758">
        <ele>1820.8</ele>
        <time>2024-08-12T10:22:35Z</time>
      </trkpt>
      <trkpt lat="44.76533" lon="6.32758">
        <ele>1820.8</ele>
        <time>2024-08-12T10:22:36Z</time>
      </trkpt>
      <trkpt lat="44.76533" lon="6.32758">
        <ele>1820.8</ele>
        <time>2024-08-12T10:22:37Z</time>
      </trkpt>
      <trkpt lat="44.76533" lon="6.32758">
        <ele>1820.8</ele>
        <time>2024-08-12T10:22:38Z</time>
      </trkpt>
      <trkpt lat="44.76533" lon="6.32758">
        <ele>1820.6</ele>
        <time>2024-08-12T10:22:39Z</time>
      </trkpt>
      <trkpt lat="44.76533" lon="6.32758">
        <ele>1820.6</ele>
        <time>2024-08-12T10:22:40Z</time>
      </trkpt>
      <trkpt lat="44.76533" lon="6.32758">
        <ele>1820.6</ele>
        <time>2024-08-12T10:22:41Z</time>
      </trkpt>
      <trkpt lat="44.76533" lon="6.32758">
        <ele>1820.6</ele>
        <time>2024-08-12T10:22:42Z</time>
      </trkpt>
      <trkpt lat="44.76533" lon="6.32758">
        <ele>1820.6</ele>
        <time>2024-08-12T10:22:43Z</time>
      </trkpt>
      <trkpt lat="44.76533" lon="6.32758">
        <ele>1820.6</ele>
        <time>2024-08-12T10:22:44Z</time>
      </trkpt>
      <trkpt lat="44.76533" lon="6.32758">
        <ele>1820.4</ele>
        <time>2024-08-12T10:22:45Z</time>
      </trkpt>
      <trkpt lat="44.76533" lon="6.32758">
        <ele>1820</ele>
        <time>2024-08-12T10:22:46Z</time>
      </trkpt>
      <trkpt lat="44.76533" lon="6.32758">
        <ele>1820</ele>
        <time>2024-08-12T10:22:47Z</time>
      </trkpt>
      <trkpt lat="44.76533" lon="6.32758">
        <ele>1820.2</ele>
        <time>2024-08-12T10:22:48Z</time>
      </trkpt>
      <trkpt lat="44.76533" lon="6.32758">
        <ele>1820.2</ele>
        <time>2024-08-12T10:22:49Z</time>
      </trkpt>
      <trkpt lat="44.76533" lon="6.32758">
        <ele>1820.2</ele>
        <time>2024-08-12T10:22:50Z</time>
      </trkpt>
      <trkpt lat="44.76533" lon="6.32758">
        <ele>1820.2</ele>
        <time>2024-08-12T10:22:51Z</time>
      </trkpt>
      <trkpt lat="44.76533" lon="6.32758">
        <ele>1820.2</ele>
        <time>2024-08-12T10:22:52Z</time>
      </trkpt>
      <trkpt lat="44.76533" lon="6.32758">
        <ele>1820.2</ele>
        <time>2024-08-12T10:22:53Z</time>
      </trkpt>
      <trkpt lat="44.76533" lon="6.32758">
        <ele>1820.2</ele>
        <time>2024-08-12T10:22:54Z</time>
      </trkpt>
      <trkpt lat="44.76533" lon="6.32758">
        <ele>1820.2</ele>
        <time>2024-08-12T10:22:55Z</time>
      </trkpt>
      <trkpt lat="44.76533" lon="6.32758">
        <ele>1820</ele>
        <time>2024-08-12T10:22:56Z</time>
      </trkpt>
      <trkpt lat="44.76533" lon="6.32758">
        <ele>1820</ele>
        <time>2024-08-12T10:22:57Z</time>
      </trkpt>
      <trkpt lat="44.76533" lon="6.32758">
        <ele>1820</ele>
        <time>2024-08-12T10:22:58Z</time>
      </trkpt>
      <trkpt lat="44.76533" lon="6.32758">
        <ele>1820</ele>
        <time>2024-08-12T10:22:59Z</time>
      </trkpt>
      <trkpt lat="44.76533" lon="6.32758">
        <ele>1820</ele>
        <time>2024-08-12T10:23:00Z</time>
      </trkpt>
      <trkpt lat="44.76533" lon="6.32758">
        <ele>1820</ele>
        <time>2024-08-12T10:23:01Z</time>
      </trkpt>
      <trkpt lat="44.76533" lon="6.32758">
        <ele>1820</ele>
        <time>2024-08-12T10:23:02Z</time>
      </trkpt>
      <trkpt lat="44.76533" lon="6.32758">
        <ele>1820</ele>
        <time>2024-08-12T10:23:03Z</time>
      </trkpt>
      <trkpt lat="44.76533" lon="6.32758">
        <ele>1820</ele>
        <time>2024-08-12T10:23:04Z</time>
      </trkpt>
      <trkpt lat="44.76533" lon="6.32758">
        <ele>1820.2</ele>
        <time>2024-08-12T10:23:05Z</time>
      </trkpt>
      <trkpt lat="44.76533" lon="6.32758">
        <ele>1820.2</ele>
        <time>2024-08-12T10:23:06Z</time>
      </trkpt>
      <trkpt lat="44.76533" lon="6.32758">
        <ele>1819.8</ele>
        <time>2024-08-12T10:23:07Z</time>
      </trkpt>
      <trkpt lat="44.76533" lon="6.32758">
        <ele>1819.8</ele>
        <time>2024-08-12T10:23:08Z</time>
      </trkpt>
      <trkpt lat="44.76533" lon="6.32758">
        <ele>1820</ele>
        <time>2024-08-12T10:23:09Z</time>
      </trkpt>
      <trkpt lat="44.76533" lon="6.32758">
        <ele>1820</ele>
        <time>2024-08-12T10:23:10Z</time>
      </trkpt>
      <trkpt lat="44.76533" lon="6.32758">
        <ele>1820</ele>
        <time>2024-08-12T10:23:11Z</time>
      </trkpt>
      <trkpt lat="44.76533" lon="6.32758">
        <ele>1820</ele>
        <time>2024-08-12T10:23:12Z</time>
      </trkpt>
      <trkpt lat="44.76533" lon="6.32758">
        <ele>1820</ele>
        <time>2024-08-12T10:23:13Z</time>
      </trkpt>
      <trkpt lat="44.76533" lon="6.32758">
        <ele>1820.2</ele>
        <time>2024-08-12T10:23:14Z</time>
      </trkpt>
      <trkpt lat="44.76533" lon="6.32758">
        <ele>1820.2</ele>
        <time>2024-08-12T10:23:15Z</time>
      </trkpt>
      <trkpt lat="44.76533" lon="6.32758">
        <ele>1820.2</ele>
        <time>2024-08-12T10:23:16Z</time>
      </trkpt>
      <trkpt lat="44.76533" lon="6.32758">
        <ele>1820</ele>
        <time>2024-08-12T10:23:17Z</time>
      </trkpt>
      <trkpt lat="44.76533" lon="6.32758">
        <ele>1820</ele>
        <time>2024-08-12T10:23:18Z</time>
      </trkpt>
      <trkpt lat="44.76533" lon="6.32758">
        <ele>1820</ele>
        <time>2024-08-12T10:23:19Z</time>
      </trkpt>
      <trkpt lat="44.76533" lon="6.32758">
        <ele>1820</ele>
        <time>2024-08-12T10:23:20Z</time>
      </trkpt>
      <trkpt lat="44.76533" lon="6.32758">
        <ele>1820</ele>
        <time>2024-08-12T10:23:21Z</time>
      </trkpt>
      <trkpt lat="44.76533" lon="6.32758">
        <ele>1820</ele>
        <time>2024-08-12T10:23:22Z</time>
      </trkpt>
      <trkpt lat="44.76533" lon="6.32758">
        <ele>1820</ele>
        <time>2024-08-12T10:23:23Z</time>
      </trkpt>
      <trkpt lat="44.76533" lon="6.32758">
        <ele>1820</ele>
        <time>2024-08-12T10:23:24Z</time>
      </trkpt>
      <trkpt lat="44.76533" lon="6.32758">
        <ele>1820</ele>
        <time>2024-08-12T10:23:25Z</time>
      </trkpt>
      <trkpt lat="44.76533" lon="6.32758">
        <ele>1820.2</ele>
        <time>2024-08-12T10:23:26Z</time>
      </trkpt>
      <trkpt lat="44.76533" lon="6.32758">
        <ele>1820</ele>
        <time>2024-08-12T10:23:27Z</time>
      </trkpt>
      <trkpt lat="44.76533" lon="6.32758">
        <ele>1820</ele>
        <time>2024-08-12T10:23:28Z</time>
      </trkpt>
      <trkpt lat="44.76533" lon="6.32758">
        <ele>1819.6</ele>
        <time>2024-08-12T10:23:29Z</time>
      </trkpt>
      <trkpt lat="44.76533" lon="6.32758">
        <ele>1819.6</ele>
        <time>2024-08-12T10:23:30Z</time>
      </trkpt>
      <trkpt lat="44.76533" lon="6.32758">
        <ele>1819.8</ele>
        <time>2024-08-12T10:23:31Z</time>
      </trkpt>
      <trkpt lat="44.76533" lon="6.32758">
        <ele>1820</ele>
        <time>2024-08-12T10:23:32Z</time>
      </trkpt>
      <trkpt lat="44.76533" lon="6.32758">
        <ele>1820</ele>
        <time>2024-08-12T10:23:33Z</time>
      </trkpt>
      <trkpt lat="44.76533" lon="6.32758">
        <ele>1820</ele>
        <time>2024-08-12T10:23:34Z</time>
      </trkpt>
      <trkpt lat="44.76533" lon="6.32758">
        <ele>1820</ele>
        <time>2024-08-12T10:23:35Z</time>
      </trkpt>
      <trkpt lat="44.76533" lon="6.32758">
        <ele>1820</ele>
        <time>2024-08-12T10:23:36Z</time>
      </trkpt>
      <trkpt lat="44.76533" lon="6.32758">
        <ele>1819.8</ele>
        <time>2024-08-12T10:23:37Z</time>
      </trkpt>
      <trkpt lat="44.76533" lon="6.32758">
        <ele>1819.8</ele>
        <time>2024-08-12T10:23:38Z</time>
      </trkpt>
      <trkpt lat="44.76533" lon="6.32758">
        <ele>1819.8</ele>
        <time>2024-08-12T10:23:39Z</time>
      </trkpt>
      <trkpt lat="44.76533" lon="6.32758">
        <ele>1819.6</ele>
        <time>2024-08-12T10:23:40Z</time>
      </trkpt>
      <trkpt lat="44.76533" lon="6.32758">
        <ele>1819.6</ele>
        <time>2024-08-12T10:23:41Z</time>
      </trkpt>
      <trkpt lat="44.76533" lon="6.32758">
        <ele>1819.8</ele>
        <time>2024-08-12T10:23:42Z</time>
      </trkpt>
      <trkpt lat="44.76533" lon="6.32758">
        <ele>1819.8</ele>
        <time>2024-08-12T10:23:43Z</time>
      </trkpt>
      <trkpt lat="44.76533" lon="6.32758">
        <ele>1819.8</ele>
        <time>2024-08-12T10:23:44Z</time>
      </trkpt>
      <trkpt lat="44.76533" lon="6.32758">
        <ele>1820</ele>
        <time>2024-08-12T10:23:45Z</time>
      </trkpt>
      <trkpt lat="44.76533" lon="6.32758">
        <ele>1820</ele>
        <time>2024-08-12T10:23:46Z</time>
      </trkpt>
      <trkpt lat="44.76533" lon="6.32758">
        <ele>1820.2</ele>
        <time>2024-08-12T10:23:47Z</time>
      </trkpt>
      <trkpt lat="44.76533" lon="6.32758">
        <ele>1820.4</ele>
        <time>2024-08-12T10:23:48Z</time>
      </trkpt>
      <trkpt lat="44.76533" lon="6.32758">
        <ele>1820.4</ele>
        <time>2024-08-12T10:23:49Z</time>
      </trkpt>
      <trkpt lat="44.76533" lon="6.32758">
        <ele>1820.4</ele>
        <time>2024-08-12T10:23:50Z</time>
      </trkpt>
      <trkpt lat="44.76533" lon="6.32758">
        <ele>1820</ele>
        <time>2024-08-12T10:23:51Z</time>
      </trkpt>
      <trkpt lat="44.76533" lon="6.32758">
        <ele>1820</ele>
        <time>2024-08-12T10:23:52Z</time>
      </trkpt>
      <trkpt lat="44.76533" lon="6.32758">
        <ele>1820</ele>
        <time>2024-08-12T10:23:53Z</time>
      </trkpt>
      <trkpt lat="44.76533" lon="6.32758">
        <ele>1820.2</ele>
        <time>2024-08-12T10:23:54Z</time>
      </trkpt>
      <trkpt lat="44.76533" lon="6.32758">
        <ele>1820.2</ele>
        <time>2024-08-12T10:23:55Z</time>
      </trkpt>
      <trkpt lat="44.76533" lon="6.32758">
        <ele>1820.2</ele>
        <time>2024-08-12T10:23:56Z</time>
      </trkpt>
      <trkpt lat="44.76533" lon="6.32758">
        <ele>1820</ele>
        <time>2024-08-12T10:23:57Z</time>
      </trkpt>
      <trkpt lat="44.76533" lon="6.32758">
        <ele>1820</ele>
        <time>2024-08-12T10:23:58Z</time>
      </trkpt>
      <trkpt lat="44.76533" lon="6.32758">
        <ele>1820</ele>
        <time>2024-08-12T10:23:59Z</time>
      </trkpt>
      <trkpt lat="44.76533" lon="6.32758">
        <ele>1820</ele>
        <time>2024-08-12T10:24:00Z</time>
      </trkpt>
      <trkpt lat="44.76533" lon="6.32758">
        <ele>1820</ele>
        <time>2024-08-12T10:24:01Z</time>
      </trkpt>
      <trkpt lat="44.76533" lon="6.32758">
        <ele>1819.8</ele>
        <time>2024-08-12T10:24:02Z</time>
      </trkpt>
      <trkpt lat="44.76533" lon="6.32758">
        <ele>1819.8</ele>
        <time>2024-08-12T10:24:03Z</time>
      </trkpt>
      <trkpt lat="44.76533" lon="6.32758">
        <ele>1820</ele>
        <time>2024-08-12T10:24:04Z</time>
      </trkpt>
      <trkpt lat="44.76533" lon="6.32758">
        <ele>1820.2</ele>
        <time>2024-08-12T10:24:05Z</time>
      </trkpt>
      <trkpt lat="44.76533" lon="6.32758">
        <ele>1820.2</ele>
        <time>2024-08-12T10:24:06Z</time>
      </trkpt>
      <trkpt lat="44.76533" lon="6.32758">
        <ele>1820.4</ele>
        <time>2024-08-12T10:24:07Z</time>
      </trkpt>
      <trkpt lat="44.76533" lon="6.32758">
        <ele>1820.4</ele>
        <time>2024-08-12T10:24:08Z</time>
      </trkpt>
      <trkpt lat="44.76533" lon="6.32758">
        <ele>1820.4</ele>
        <time>2024-08-12T10:24:09Z</time>
      </trkpt>
      <trkpt lat="44.76533" lon="6.32758">
        <ele>1820.4</ele>
        <time>2024-08-12T10:24:10Z</time>
      </trkpt>
      <trkpt lat="44.76533" lon="6.32758">
        <ele>1820.2</ele>
        <time>2024-08-12T10:24:11Z</time>
      </trkpt>
      <trkpt lat="44.76533" lon="6.32758">
        <ele>1820</ele>
        <time>2024-08-12T10:24:12Z</time>
      </trkpt>
      <trkpt lat="44.76533" lon="6.32758">
        <ele>1820</ele>
        <time>2024-08-12T10:24:13Z</time>
      </trkpt>
      <trkpt lat="44.76533" lon="6.32758">
        <ele>1820</ele>
        <time>2024-08-12T10:24:14Z</time>
      </trkpt>
      <trkpt lat="44.76533" lon="6.32758">
        <ele>1820</ele>
        <time>2024-08-12T10:24:15Z</time>
      </trkpt>
      <trkpt lat="44.76533" lon="6.32758">
        <ele>1820</ele>
        <time>2024-08-12T10:24:16Z</time>
      </trkpt>
      <trkpt lat="44.76533" lon="6.32758">
        <ele>1820</ele>
        <time>2024-08-12T10:24:17Z</time>
      </trkpt>
      <trkpt lat="44.76533" lon="6.32758">
        <ele>1820</ele>
        <time>2024-08-12T10:24:18Z</time>
      </trkpt>
      <trkpt lat="44.76533" lon="6.32758">
        <ele>1820</ele>
        <time>2024-08-12T10:24:19Z</time>
      </trkpt>
      <trkpt lat="44.76533" lon="6.32758">
        <ele>1820</ele>
        <time>2024-08-12T10:24:20Z</time>
      </trkpt>
      <trkpt lat="44.76533" lon="6.32758">
        <ele>1820</ele>
        <time>2024-08-12T10:24:21Z</time>
      </trkpt>
      <trkpt lat="44.76533" lon="6.32758">
        <ele>1820</ele>
        <time>2024-08-12T10:24:22Z</time>
      </trkpt>
      <trkpt lat="44.76533" lon="6.32758">
        <ele>1820</ele>
        <time>2024-08-12T10:24:23Z</time>
      </trkpt>
      <trkpt lat="44.76533" lon="6.32758">
        <ele>1820</ele>
        <time>2024-08-12T10:24:24Z</time>
      </trkpt>
      <trkpt lat="44.76533" lon="6.32758">
        <ele>1820</ele>
        <time>2024-08-12T10:24:25Z</time>
      </trkpt>
      <trkpt lat="44.76533" lon="6.32758">
        <ele>1820.2</ele>
        <time>2024-08-12T10:24:26Z</time>
      </trkpt>
      <trkpt lat="44.76533" lon="6.32758">
        <ele>1820.2</ele>
        <time>2024-08-12T10:24:27Z</time>
      </trkpt>
      <trkpt lat="44.76533" lon="6.32758">
        <ele>1820</ele>
        <time>2024-08-12T10:24:28Z</time>
      </trkpt>
      <trkpt lat="44.76533" lon="6.32758">
        <ele>1820</ele>
        <time>2024-08-12T10:24:29Z</time>
      </trkpt>
      <trkpt lat="44.76533" lon="6.32758">
        <ele>1820</ele>
        <time>2024-08-12T10:24:30Z</time>
      </trkpt>
      <trkpt lat="44.76533" lon="6.32758">
        <ele>1820</ele>
        <time>2024-08-12T10:24:31Z</time>
      </trkpt>
      <trkpt lat="44.76533" lon="6.32758">
        <ele>1820</ele>
        <time>2024-08-12T10:24:32Z</time>
      </trkpt>
      <trkpt lat="44.76533" lon="6.32758">
        <ele>1819.8</ele>
        <time>2024-08-12T10:24:33Z</time>
      </trkpt>
      <trkpt lat="44.76533" lon="6.32758">
        <ele>1819.6</ele>
        <time>2024-08-12T10:24:34Z</time>
      </trkpt>
      <trkpt lat="44.76533" lon="6.32758">
        <ele>1819.6</ele>
        <time>2024-08-12T10:24:35Z</time>
      </trkpt>
      <trkpt lat="44.76533" lon="6.32758">
        <ele>1819.8</ele>
        <time>2024-08-12T10:24:36Z</time>
      </trkpt>
      <trkpt lat="44.76533" lon="6.32758">
        <ele>1819.8</ele>
        <time>2024-08-12T10:24:37Z</time>
      </trkpt>
      <trkpt lat="44.76533" lon="6.32758">
        <ele>1819.8</ele>
        <time>2024-08-12T10:24:38Z</time>
      </trkpt>
      <trkpt lat="44.76533" lon="6.32758">
        <ele>1820.2</ele>
        <time>2024-08-12T10:24:39Z</time>
      </trkpt>
      <trkpt lat="44.76533" lon="6.32758">
        <ele>1820.2</ele>
        <time>2024-08-12T10:24:40Z</time>
      </trkpt>
      <trkpt lat="44.76533" lon="6.32758">
        <ele>1820.4</ele>
        <time>2024-08-12T10:24:41Z</time>
      </trkpt>
      <trkpt lat="44.76533" lon="6.32758">
        <ele>1820.4</ele>
        <time>2024-08-12T10:24:42Z</time>
      </trkpt>
      <trkpt lat="44.76533" lon="6.32758">
        <ele>1820.6</ele>
        <time>2024-08-12T10:24:43Z</time>
      </trkpt>
      <trkpt lat="44.76533" lon="6.32758">
        <ele>1820.4</ele>
        <time>2024-08-12T10:24:44Z</time>
      </trkpt>
      <trkpt lat="44.76533" lon="6.32758">
        <ele>1820.4</ele>
        <time>2024-08-12T10:24:45Z</time>
      </trkpt>
      <trkpt lat="44.76533" lon="6.32758">
        <ele>1820.4</ele>
        <time>2024-08-12T10:24:46Z</time>
      </trkpt>
      <trkpt lat="44.76533" lon="6.32758">
        <ele>1820.6</ele>
        <time>2024-08-12T10:24:47Z</time>
      </trkpt>
      <trkpt lat="44.76533" lon="6.32758">
        <ele>1820.6</ele>
        <time>2024-08-12T10:24:48Z</time>
      </trkpt>
      <trkpt lat="44.76533" lon="6.32758">
        <ele>1820.4</ele>
        <time>2024-08-12T10:24:49Z</time>
      </trkpt>
      <trkpt lat="44.76533" lon="6.32758">
        <ele>1820.4</ele>
        <time>2024-08-12T10:24:50Z</time>
      </trkpt>
      <trkpt lat="44.76533" lon="6.32758">
        <ele>1820.4</ele>
        <time>2024-08-12T10:24:51Z</time>
      </trkpt>
      <trkpt lat="44.76533" lon="6.32758">
        <ele>1820.2</ele>
        <time>2024-08-12T10:24:52Z</time>
      </trkpt>
      <trkpt lat="44.76533" lon="6.32758">
        <ele>1820.2</ele>
        <time>2024-08-12T10:24:53Z</time>
      </trkpt>
      <trkpt lat="44.76533" lon="6.32758">
        <ele>1820.2</ele>
        <time>2024-08-12T10:24:54Z</time>
      </trkpt>
      <trkpt lat="44.76533" lon="6.32758">
        <ele>1820.4</ele>
        <time>2024-08-12T10:24:55Z</time>
      </trkpt>
      <trkpt lat="44.76533" lon="6.32758">
        <ele>1820.4</ele>
        <time>2024-08-12T10:24:56Z</time>
      </trkpt>
      <trkpt lat="44.76533" lon="6.32758">
        <ele>1820.4</ele>
        <time>2024-08-12T10:24:57Z</time>
      </trkpt>
      <trkpt lat="44.76533" lon="6.32758">
        <ele>1820.2</ele>
        <time>2024-08-12T10:24:58Z</time>
      </trkpt>
      <trkpt lat="44.76533" lon="6.32758">
        <ele>1820.2</ele>
        <time>2024-08-12T10:24:59Z</time>
      </trkpt>
      <trkpt lat="44.76533" lon="6.32758">
        <ele>1820.2</ele>
        <time>2024-08-12T10:25:00Z</time>
      </trkpt>
      <trkpt lat="44.76533" lon="6.32758">
        <ele>1820</ele>
        <time>2024-08-12T10:25:01Z</time>
      </trkpt>
      <trkpt lat="44.76533" lon="6.32758">
        <ele>1820</ele>
        <time>2024-08-12T10:25:02Z</time>
      </trkpt>
      <trkpt lat="44.76533" lon="6.32758">
        <ele>1820</ele>
        <time>2024-08-12T10:25:03Z</time>
      </trkpt>
      <trkpt lat="44.76533" lon="6.32758">
        <ele>1820</ele>
        <time>2024-08-12T10:25:04Z</time>
      </trkpt>
      <trkpt lat="44.76533" lon="6.32758">
        <ele>1820</ele>
        <time>2024-08-12T10:25:05Z</time>
      </trkpt>
      <trkpt lat="44.76533" lon="6.32758">
        <ele>1820</ele>
        <time>2024-08-12T10:25:06Z</time>
      </trkpt>
      <trkpt lat="44.76533" lon="6.32758">
        <ele>1820</ele>
        <time>2024-08-12T10:25:07Z</time>
      </trkpt>
      <trkpt lat="44.76533" lon="6.32758">
        <ele>1820</ele>
        <time>2024-08-12T10:25:08Z</time>
      </trkpt>
      <trkpt lat="44.76533" lon="6.32758">
        <ele>1820</ele>
        <time>2024-08-12T10:25:09Z</time>
      </trkpt>
      <trkpt lat="44.76533" lon="6.32758">
        <ele>1820.2</ele>
        <time>2024-08-12T10:25:10Z</time>
      </trkpt>
      <trkpt lat="44.76533" lon="6.32758">
        <ele>1820.4</ele>
        <time>2024-08-12T10:25:11Z</time>
      </trkpt>
      <trkpt lat="44.76533" lon="6.32758">
        <ele>1820.4</ele>
        <time>2024-08-12T10:25:12Z</time>
      </trkpt>
      <trkpt lat="44.76533" lon="6.32758">
        <ele>1820.4</ele>
        <time>2024-08-12T10:25:13Z</time>
      </trkpt>
      <trkpt lat="44.76533" lon="6.32758">
        <ele>1820.8</ele>
        <time>2024-08-12T10:25:14Z</time>
      </trkpt>
      <trkpt lat="44.76533" lon="6.32758">
        <ele>1820.8</ele>
        <time>2024-08-12T10:25:15Z</time>
      </trkpt>
      <trkpt lat="44.76533" lon="6.32758">
        <ele>1820.6</ele>
        <time>2024-08-12T10:25:16Z</time>
      </trkpt>
      <trkpt lat="44.76533" lon="6.32758">
        <ele>1820.6</ele>
        <time>2024-08-12T10:25:17Z</time>
      </trkpt>
      <trkpt lat="44.76533" lon="6.32758">
        <ele>1820.6</ele>
        <time>2024-08-12T10:25:18Z</time>
      </trkpt>
      <trkpt lat="44.76533" lon="6.32758">
        <ele>1820.8</ele>
        <time>2024-08-12T10:25:19Z</time>
      </trkpt>
      <trkpt lat="44.76533" lon="6.32758">
        <ele>1820.8</ele>
        <time>2024-08-12T10:25:20Z</time>
      </trkpt>
      <trkpt lat="44.76533" lon="6.32758">
        <ele>1820.8</ele>
        <time>2024-08-12T10:25:21Z</time>
      </trkpt>
      <trkpt lat="44.76533" lon="6.32758">
        <ele>1820.8</ele>
        <time>2024-08-12T10:25:22Z</time>
      </trkpt>
      <trkpt lat="44.76533" lon="6.32758">
        <ele>1820.6</ele>
        <time>2024-08-12T10:25:23Z</time>
      </trkpt>
      <trkpt lat="44.76533" lon="6.32758">
        <ele>1820.2</ele>
        <time>2024-08-12T10:25:24Z</time>
      </trkpt>
      <trkpt lat="44.76533" lon="6.32758">
        <ele>1820.2</ele>
        <time>2024-08-12T10:25:25Z</time>
      </trkpt>
      <trkpt lat="44.76533" lon="6.32758">
        <ele>1820.4</ele>
        <time>2024-08-12T10:25:26Z</time>
      </trkpt>
      <trkpt lat="44.76533" lon="6.32758">
        <ele>1820.4</ele>
        <time>2024-08-12T10:25:27Z</time>
      </trkpt>
      <trkpt lat="44.76533" lon="6.32758">
        <ele>1820.4</ele>
        <time>2024-08-12T10:25:28Z</time>
      </trkpt>
      <trkpt lat="44.76533" lon="6.32758">
        <ele>1820.4</ele>
        <time>2024-08-12T10:25:29Z</time>
      </trkpt>
      <trkpt lat="44.76533" lon="6.32758">
        <ele>1820.4</ele>
        <time>2024-08-12T10:25:30Z</time>
      </trkpt>
      <trkpt lat="44.76533" lon="6.32758">
        <ele>1820.4</ele>
        <time>2024-08-12T10:25:31Z</time>
      </trkpt>
      <trkpt lat="44.76533" lon="6.32758">
        <ele>1820.4</ele>
        <time>2024-08-12T10:25:32Z</time>
      </trkpt>
      <trkpt lat="44.76533" lon="6.32758">
        <ele>1820.4</ele>
        <time>2024-08-12T10:25:33Z</time>
      </trkpt>
      <trkpt lat="44.76533" lon="6.32758">
        <ele>1820.4</ele>
        <time>2024-08-12T10:25:34Z</time>
      </trkpt>
      <trkpt lat="44.76533" lon="6.32758">
        <ele>1820.4</ele>
        <time>2024-08-12T10:25:35Z</time>
      </trkpt>
      <trkpt lat="44.76533" lon="6.32758">
        <ele>1820.4</ele>
        <time>2024-08-12T10:25:36Z</time>
      </trkpt>
      <trkpt lat="44.76533" lon="6.32758">
        <ele>1820.4</ele>
        <time>2024-08-12T10:25:37Z</time>
      </trkpt>
      <trkpt lat="44.76533" lon="6.32758">
        <ele>1820.6</ele>
        <time>2024-08-12T10:25:38Z</time>
      </trkpt>
      <trkpt lat="44.76533" lon="6.32758">
        <ele>1820.6</ele>
        <time>2024-08-12T10:25:39Z</time>
      </trkpt>
      <trkpt lat="44.76533" lon="6.32758">
        <ele>1820.4</ele>
        <time>2024-08-12T10:25:40Z</time>
      </trkpt>
      <trkpt lat="44.76533" lon="6.32758">
        <ele>1820.2</ele>
        <time>2024-08-12T10:25:41Z</time>
      </trkpt>
      <trkpt lat="44.76533" lon="6.32758">
        <ele>1820.2</ele>
        <time>2024-08-12T10:25:42Z</time>
      </trkpt>
      <trkpt lat="44.76533" lon="6.32758">
        <ele>1820.2</ele>
        <time>2024-08-12T10:25:43Z</time>
      </trkpt>
      <trkpt lat="44.76533" lon="6.32758">
        <ele>1820.2</ele>
        <time>2024-08-12T10:25:44Z</time>
      </trkpt>
      <trkpt lat="44.76533" lon="6.32758">
        <ele>1820.2</ele>
        <time>2024-08-12T10:25:45Z</time>
      </trkpt>
      <trkpt lat="44.76533" lon="6.32758">
        <ele>1820.2</ele>
        <time>2024-08-12T10:25:46Z</time>
      </trkpt>
      <trkpt lat="44.76533" lon="6.32758">
        <ele>1820.4</ele>
        <time>2024-08-12T10:25:47Z</time>
      </trkpt>
      <trkpt lat="44.76533" lon="6.32758">
        <ele>1820.6</ele>
        <time>2024-08-12T10:25:48Z</time>
      </trkpt>
      <trkpt lat="44.76533" lon="6.32758">
        <ele>1820.6</ele>
        <time>2024-08-12T10:25:49Z</time>
      </trkpt>
      <trkpt lat="44.76533" lon="6.32758">
        <ele>1820.6</ele>
        <time>2024-08-12T10:25:50Z</time>
      </trkpt>
      <trkpt lat="44.76533" lon="6.32758">
        <ele>1820.6</ele>
        <time>2024-08-12T10:25:51Z</time>
      </trkpt>
      <trkpt lat="44.76533" lon="6.32758">
        <ele>1820.8</ele>
        <time>2024-08-12T10:25:52Z</time>
      </trkpt>
      <trkpt lat="44.76533" lon="6.32758">
        <ele>1820.8</ele>
        <time>2024-08-12T10:25:53Z</time>
      </trkpt>
      <trkpt lat="44.76533" lon="6.32758">
        <ele>1820.8</ele>
        <time>2024-08-12T10:25:54Z</time>
      </trkpt>
      <trkpt lat="44.76533" lon="6.32758">
        <ele>1820.8</ele>
        <time>2024-08-12T10:25:55Z</time>
      </trkpt>
      <trkpt lat="44.76533" lon="6.32758">
        <ele>1820.8</ele>
        <time>2024-08-12T10:25:56Z</time>
      </trkpt>
      <trkpt lat="44.76533" lon="6.32758">
        <ele>1820.6</ele>
        <time>2024-08-12T10:25:57Z</time>
      </trkpt>
      <trkpt lat="44.76533" lon="6.32758">
        <ele>1820.4</ele>
        <time>2024-08-12T10:25:58Z</time>
      </trkpt>
      <trkpt lat="44.76533" lon="6.32758">
        <ele>1820.4</ele>
        <time>2024-08-12T10:25:59Z</time>
      </trkpt>
      <trkpt lat="44.76533" lon="6.32758">
        <ele>1820.2</ele>
        <time>2024-08-12T10:26:00Z</time>
      </trkpt>
      <trkpt lat="44.76533" lon="6.32758">
        <ele>1820.2</ele>
        <time>2024-08-12T10:26:01Z</time>
      </trkpt>
      <trkpt lat="44.76533" lon="6.32758">
        <ele>1820.4</ele>
        <time>2024-08-12T10:26:02Z</time>
      </trkpt>
      <trkpt lat="44.76533" lon="6.32758">
        <ele>1820.4</ele>
        <time>2024-08-12T10:26:03Z</time>
      </trkpt>
      <trkpt lat="44.76533" lon="6.32758">
        <ele>1820.4</ele>
        <time>2024-08-12T10:26:04Z</time>
      </trkpt>
      <trkpt lat="44.76533" lon="6.32758">
        <ele>1820.4</ele>
        <time>2024-08-12T10:26:05Z</time>
      </trkpt>
      <trkpt lat="44.76533" lon="6.32758">
        <ele>1820.6</ele>
        <time>2024-08-12T10:26:06Z</time>
      </trkpt>
      <trkpt lat="44.76533" lon="6.32758">
        <ele>1820.6</ele>
        <time>2024-08-12T10:26:07Z</time>
      </trkpt>
      <trkpt lat="44.76533" lon="6.32758">
        <ele>1820.6</ele>
        <time>2024-08-12T10:26:08Z</time>
      </trkpt>
      <trkpt lat="44.76533" lon="6.32758">
        <ele>1820.6</ele>
        <time>2024-08-12T10:26:09Z</time>
      </trkpt>
      <trkpt lat="44.76533" lon="6.32758">
        <ele>1820.6</ele>
        <time>2024-08-12T10:26:10Z</time>
      </trkpt>
      <trkpt lat="44.76533" lon="6.32758">
        <ele>1820.6</ele>
        <time>2024-08-12T10:26:11Z</time>
      </trkpt>
      <trkpt lat="44.76533" lon="6.32758">
        <ele>1820.6</ele>
        <time>2024-08-12T10:26:12Z</time>
      </trkpt>
      <trkpt lat="44.76533" lon="6.32758">
        <ele>1820.6</ele>
        <time>2024-08-12T10:26:13Z</time>
      </trkpt>
      <trkpt lat="44.76533" lon="6.32758">
        <ele>1820.6</ele>
        <time>2024-08-12T10:26:14Z</time>
      </trkpt>
      <trkpt lat="44.76533" lon="6.32758">
        <ele>1820.6</ele>
        <time>2024-08-12T10:26:15Z</time>
      </trkpt>
      <trkpt lat="44.76533" lon="6.32758">
        <ele>1820.6</ele>
        <time>2024-08-12T10:26:16Z</time>
      </trkpt>
      <trkpt lat="44.76533" lon="6.32758">
        <ele>1820.6</ele>
        <time>2024-08-12T10:26:17Z</time>
      </trkpt>
      <trkpt lat="44.76533" lon="6.32758">
        <ele>1820.6</ele>
        <time>2024-08-12T10:26:18Z</time>
      </trkpt>
      <trkpt lat="44.76533" lon="6.32758">
        <ele>1820.6</ele>
        <time>2024-08-12T10:26:19Z</time>
      </trkpt>
      <trkpt lat="44.76533" lon="6.32758">
        <ele>1820.6</ele>
        <time>2024-08-12T10:26:20Z</time>
      </trkpt>
      <trkpt lat="44.76533" lon="6.32758">
        <ele>1820.6</ele>
        <time>2024-08-12T10:26:21Z</time>
      </trkpt>
      <trkpt lat="44.76533" lon="6.32758">
        <ele>1820.4</ele>
        <time>2024-08-12T10:26:22Z</time>
      </trkpt>
      <trkpt lat="44.76533" lon="6.32758">
        <ele>1820.4</ele>
        <time>2024-08-12T10:26:23Z</time>
      </trkpt>
      <trkpt lat="44.76533" lon="6.32758">
        <ele>1820.4</ele>
        <time>2024-08-12T10:26:24Z</time>
      </trkpt>
      <trkpt lat="44.76533" lon="6.32758">
        <ele>1820.4</ele>
        <time>2024-08-12T10:26:25Z</time>
      </trkpt>
      <trkpt lat="44.76533" lon="6.32758">
        <ele>1820.4</ele>
        <time>2024-08-12T10:26:26Z</time>
      </trkpt>
      <trkpt lat="44.76533" lon="6.32758">
        <ele>1820.4</ele>
        <time>2024-08-12T10:26:27Z</time>
      </trkpt>
      <trkpt lat="44.76533" lon="6.32758">
        <ele>1820.6</ele>
        <time>2024-08-12T10:26:28Z</time>
      </trkpt>
      <trkpt lat="44.76533" lon="6.32758">
        <ele>1820.6</ele>
        <time>2024-08-12T10:26:29Z</time>
      </trkpt>
      <trkpt lat="44.76533" lon="6.32758">
        <ele>1820.8</ele>
        <time>2024-08-12T10:26:30Z</time>
      </trkpt>
      <trkpt lat="44.76533" lon="6.32758">
        <ele>1820.6</ele>
        <time>2024-08-12T10:26:31Z</time>
      </trkpt>
      <trkpt lat="44.76533" lon="6.32758">
        <ele>1820.6</ele>
        <time>2024-08-12T10:26:32Z</time>
      </trkpt>
      <trkpt lat="44.76533" lon="6.32758">
        <ele>1820.4</ele>
        <time>2024-08-12T10:26:33Z</time>
      </trkpt>
      <trkpt lat="44.76533" lon="6.32758">
        <ele>1820.4</ele>
        <time>2024-08-12T10:26:34Z</time>
      </trkpt>
      <trkpt lat="44.76533" lon="6.32758">
        <ele>1820.2</ele>
        <time>2024-08-12T10:26:35Z</time>
      </trkpt>
      <trkpt lat="44.76533" lon="6.32758">
        <ele>1820.2</ele>
        <time>2024-08-12T10:26:36Z</time>
      </trkpt>
      <trkpt lat="44.76533" lon="6.32758">
        <ele>1820.2</ele>
        <time>2024-08-12T10:26:37Z</time>
      </trkpt>
      <trkpt lat="44.76533" lon="6.32758">
        <ele>1820.2</ele>
        <time>2024-08-12T10:26:38Z</time>
      </trkpt>
      <trkpt lat="44.76533" lon="6.32758">
        <ele>1820.4</ele>
        <time>2024-08-12T10:26:39Z</time>
      </trkpt>
      <trkpt lat="44.76533" lon="6.32758">
        <ele>1820.2</ele>
        <time>2024-08-12T10:26:40Z</time>
      </trkpt>
      <trkpt lat="44.76533" lon="6.32758">
        <ele>1820.4</ele>
        <time>2024-08-12T10:26:41Z</time>
      </trkpt>
      <trkpt lat="44.76533" lon="6.32758">
        <ele>1820.4</ele>
        <time>2024-08-12T10:26:42Z</time>
      </trkpt>
      <trkpt lat="44.76533" lon="6.32758">
        <ele>1820.4</ele>
        <time>2024-08-12T10:26:43Z</time>
      </trkpt>
      <trkpt lat="44.76533" lon="6.32758">
        <ele>1820.4</ele>
        <time>2024-08-12T10:26:44Z</time>
      </trkpt>
      <trkpt lat="44.76533" lon="6.32758">
        <ele>1820.2</ele>
        <time>2024-08-12T10:26:45Z</time>
      </trkpt>
      <trkpt lat="44.76533" lon="6.32758">
        <ele>1820.2</ele>
        <time>2024-08-12T10:26:46Z</time>
      </trkpt>
      <trkpt lat="44.76533" lon="6.32758">
        <ele>1820.2</ele>
        <time>2024-08-12T10:26:47Z</time>
      </trkpt>
      <trkpt lat="44.76533" lon="6.32758">
        <ele>1820.2</ele>
        <time>2024-08-12T10:26:48Z</time>
      </trkpt>
      <trkpt lat="44.76533" lon="6.32758">
        <ele>1820.2</ele>
        <time>2024-08-12T10:26:49Z</time>
      </trkpt>
      <trkpt lat="44.76533" lon="6.32758">
        <ele>1820.2</ele>
        <time>2024-08-12T10:26:50Z</time>
      </trkpt>
      <trkpt lat="44.76533" lon="6.32758">
        <ele>1820.2</ele>
        <time>2024-08-12T10:26:51Z</time>
      </trkpt>
      <trkpt lat="44.76533" lon="6.32758">
        <ele>1820.2</ele>
        <time>2024-08-12T10:26:52Z</time>
      </trkpt>
      <trkpt lat="44.76533" lon="6.32758">
        <ele>1820.2</ele>
        <time>2024-08-12T10:26:53Z</time>
      </trkpt>
      <trkpt lat="44.76533" lon="6.32758">
        <ele>1820.2</ele>
        <time>2024-08-12T10:26:54Z</time>
      </trkpt>
      <trkpt lat="44.76533" lon="6.32758">
        <ele>1820.2</ele>
        <time>2024-08-12T10:26:55Z</time>
      </trkpt>
      <trkpt lat="44.76533" lon="6.32758">
        <ele>1820.4</ele>
        <time>2024-08-12T10:26:56Z</time>
      </trkpt>
      <trkpt lat="44.76533" lon="6.32758">
        <ele>1820.4</ele>
        <time>2024-08-12T10:26:57Z</time>
      </trkpt>
      <trkpt lat="44.76533" lon="6.32758">
        <ele>1820.4</ele>
        <time>2024-08-12T10:26:58Z</time>
      </trkpt>
      <trkpt lat="44.76533" lon="6.32758">
        <ele>1820.4</ele>
        <time>2024-08-12T10:26:59Z</time>
      </trkpt>
      <trkpt lat="44.76533" lon="6.32758">
        <ele>1820.4</ele>
        <time>2024-08-12T10:27:00Z</time>
      </trkpt>
      <trkpt lat="44.76533" lon="6.32758">
        <ele>1820.4</ele>
        <time>2024-08-12T10:27:01Z</time>
      </trkpt>
      <trkpt lat="44.76533" lon="6.32758">
        <ele>1820.2</ele>
        <time>2024-08-12T10:27:02Z</time>
      </trkpt>
      <trkpt lat="44.76533" lon="6.32758">
        <ele>1820.2</ele>
        <time>2024-08-12T10:27:03Z</time>
      </trkpt>
      <trkpt lat="44.76533" lon="6.32758">
        <ele>1820</ele>
        <time>2024-08-12T10:27:04Z</time>
      </trkpt>
      <trkpt lat="44.76533" lon="6.32758">
        <ele>1820</ele>
        <time>2024-08-12T10:27:05Z</time>
      </trkpt>
      <trkpt lat="44.76533" lon="6.32758">
        <ele>1820</ele>
        <time>2024-08-12T10:27:06Z</time>
      </trkpt>
      <trkpt lat="44.76533" lon="6.32758">
        <ele>1820</ele>
        <time>2024-08-12T10:27:07Z</time>
      </trkpt>
      <trkpt lat="44.76533" lon="6.32758">
        <ele>1820</ele>
        <time>2024-08-12T10:27:08Z</time>
      </trkpt>
      <trkpt lat="44.76533" lon="6.32758">
        <ele>1820.2</ele>
        <time>2024-08-12T10:27:09Z</time>
      </trkpt>
      <trkpt lat="44.76533" lon="6.32758">
        <ele>1820.4</ele>
        <time>2024-08-12T10:27:10Z</time>
      </trkpt>
      <trkpt lat="44.76533" lon="6.32758">
        <ele>1820.4</ele>
        <time>2024-08-12T10:27:11Z</time>
      </trkpt>
      <trkpt lat="44.76533" lon="6.32758">
        <ele>1820.4</ele>
        <time>2024-08-12T10:27:12Z</time>
      </trkpt>
      <trkpt lat="44.76533" lon="6.32758">
        <ele>1820.4</ele>
        <time>2024-08-12T10:27:13Z</time>
      </trkpt>
      <trkpt lat="44.76533" lon="6.32758">
        <ele>1820.2</ele>
        <time>2024-08-12T10:27:14Z</time>
      </trkpt>
      <trkpt lat="44.76533" lon="6.32758">
        <ele>1820.2</ele>
        <time>2024-08-12T10:27:15Z</time>
      </trkpt>
      <trkpt lat="44.76533" lon="6.32758">
        <ele>1820.2</ele>
        <time>2024-08-12T10:27:16Z</time>
      </trkpt>
      <trkpt lat="44.76533" lon="6.32758">
        <ele>1820</ele>
        <time>2024-08-12T10:27:17Z</time>
      </trkpt>
      <trkpt lat="44.76533" lon="6.32758">
        <ele>1820</ele>
        <time>2024-08-12T10:27:18Z</time>
      </trkpt>
      <trkpt lat="44.76533" lon="6.32758">
        <ele>1820</ele>
        <time>2024-08-12T10:27:19Z</time>
      </trkpt>
      <trkpt lat="44.76533" lon="6.32758">
        <ele>1820</ele>
        <time>2024-08-12T10:27:20Z</time>
      </trkpt>
      <trkpt lat="44.76533" lon="6.32758">
        <ele>1820</ele>
        <time>2024-08-12T10:27:21Z</time>
      </trkpt>
      <trkpt lat="44.76533" lon="6.32758">
        <ele>1820</ele>
        <time>2024-08-12T10:27:22Z</time>
      </trkpt>
      <trkpt lat="44.76533" lon="6.32758">
        <ele>1820.4</ele>
        <time>2024-08-12T10:27:23Z</time>
      </trkpt>
      <trkpt lat="44.76533" lon="6.32758">
        <ele>1820.4</ele>
        <time>2024-08-12T10:27:24Z</time>
      </trkpt>
      <trkpt lat="44.76533" lon="6.32758">
        <ele>1820.4</ele>
        <time>2024-08-12T10:27:25Z</time>
      </trkpt>
      <trkpt lat="44.76533" lon="6.32758">
        <ele>1820.6</ele>
        <time>2024-08-12T10:27:26Z</time>
      </trkpt>
      <trkpt lat="44.76533" lon="6.32758">
        <ele>1820.8</ele>
        <time>2024-08-12T10:27:27Z</time>
      </trkpt>
      <trkpt lat="44.76533" lon="6.32758">
        <ele>1820.8</ele>
        <time>2024-08-12T10:27:28Z</time>
      </trkpt>
      <trkpt lat="44.76533" lon="6.32758">
        <ele>1820.6</ele>
        <time>2024-08-12T10:27:29Z</time>
      </trkpt>
      <trkpt lat="44.76533" lon="6.32758">
        <ele>1820.6</ele>
        <time>2024-08-12T10:27:30Z</time>
      </trkpt>
      <trkpt lat="44.76533" lon="6.32758">
        <ele>1820.4</ele>
        <time>2024-08-12T10:27:31Z</time>
      </trkpt>
      <trkpt lat="44.76533" lon="6.32758">
        <ele>1820.4</ele>
        <time>2024-08-12T10:27:32Z</time>
      </trkpt>
      <trkpt lat="44.76533" lon="6.32758">
        <ele>1820</ele>
        <time>2024-08-12T10:27:33Z</time>
      </trkpt>
      <trkpt lat="44.76533" lon="6.32758">
        <ele>1820</ele>
        <time>2024-08-12T10:27:34Z</time>
      </trkpt>
      <trkpt lat="44.76533" lon="6.32758">
        <ele>1820</ele>
        <time>2024-08-12T10:27:35Z</time>
      </trkpt>
      <trkpt lat="44.76533" lon="6.32758">
        <ele>1820.2</ele>
        <time>2024-08-12T10:27:36Z</time>
      </trkpt>
      <trkpt lat="44.76533" lon="6.32758">
        <ele>1820.4</ele>
        <time>2024-08-12T10:27:37Z</time>
      </trkpt>
      <trkpt lat="44.76533" lon="6.32758">
        <ele>1820.4</ele>
        <time>2024-08-12T10:27:38Z</time>
      </trkpt>
      <trkpt lat="44.76533" lon="6.32758">
        <ele>1820.4</ele>
        <time>2024-08-12T10:27:39Z</time>
      </trkpt>
      <trkpt lat="44.76533" lon="6.32758">
        <ele>1820.4</ele>
        <time>2024-08-12T10:27:40Z</time>
      </trkpt>
      <trkpt lat="44.76533" lon="6.32758">
        <ele>1820.2</ele>
        <time>2024-08-12T10:27:41Z</time>
      </trkpt>
      <trkpt lat="44.76533" lon="6.32758">
        <ele>1820.2</ele>
        <time>2024-08-12T10:27:42Z</time>
      </trkpt>
      <trkpt lat="44.76533" lon="6.32758">
        <ele>1820.2</ele>
        <time>2024-08-12T10:27:43Z</time>
      </trkpt>
      <trkpt lat="44.76533" lon="6.32758">
        <ele>1820.4</ele>
        <time>2024-08-12T10:27:44Z</time>
      </trkpt>
      <trkpt lat="44.76533" lon="6.32758">
        <ele>1820.4</ele>
        <time>2024-08-12T10:27:45Z</time>
      </trkpt>
      <trkpt lat="44.76533" lon="6.32758">
        <ele>1820.4</ele>
        <time>2024-08-12T10:27:46Z</time>
      </trkpt>
      <trkpt lat="44.76533" lon="6.32758">
        <ele>1820.6</ele>
        <time>2024-08-12T10:27:47Z</time>
      </trkpt>
      <trkpt lat="44.76533" lon="6.32758">
        <ele>1820.6</ele>
        <time>2024-08-12T10:27:48Z</time>
      </trkpt>
      <trkpt lat="44.76533" lon="6.32758">
        <ele>1820.8</ele>
        <time>2024-08-12T10:27:49Z</time>
      </trkpt>
      <trkpt lat="44.76533" lon="6.32758">
        <ele>1821</ele>
        <time>2024-08-12T10:27:50Z</time>
      </trkpt>
      <trkpt lat="44.76533" lon="6.32758">
        <ele>1821</ele>
        <time>2024-08-12T10:27:51Z</time>
      </trkpt>
      <trkpt lat="44.76533" lon="6.32758">
        <ele>1821</ele>
        <time>2024-08-12T10:27:52Z</time>
      </trkpt>
      <trkpt lat="44.76533" lon="6.32758">
        <ele>1821</ele>
        <time>2024-08-12T10:27:53Z</time>
      </trkpt>
      <trkpt lat="44.76533" lon="6.32758">
        <ele>1821</ele>
        <time>2024-08-12T10:27:54Z</time>
      </trkpt>
      <trkpt lat="44.76533" lon="6.32758">
        <ele>1820.8</ele>
        <time>2024-08-12T10:27:55Z</time>
      </trkpt>
      <trkpt lat="44.76533" lon="6.32758">
        <ele>1820.8</ele>
        <time>2024-08-12T10:27:56Z</time>
      </trkpt>
      <trkpt lat="44.76533" lon="6.32758">
        <ele>1820.8</ele>
        <time>2024-08-12T10:27:57Z</time>
      </trkpt>
      <trkpt lat="44.76533" lon="6.32758">
        <ele>1821</ele>
        <time>2024-08-12T10:27:58Z</time>
      </trkpt>
      <trkpt lat="44.76533" lon="6.32758">
        <ele>1821</ele>
        <time>2024-08-12T10:27:59Z</time>
      </trkpt>
      <trkpt lat="44.76533" lon="6.32758">
        <ele>1821</ele>
        <time>2024-08-12T10:28:00Z</time>
      </trkpt>
      <trkpt lat="44.76533" lon="6.32758">
        <ele>1821</ele>
        <time>2024-08-12T10:28:01Z</time>
      </trkpt>
      <trkpt lat="44.76533" lon="6.32758">
        <ele>1820.8</ele>
        <time>2024-08-12T10:28:02Z</time>
      </trkpt>
      <trkpt lat="44.76533" lon="6.32758">
        <ele>1820.8</ele>
        <time>2024-08-12T10:28:03Z</time>
      </trkpt>
      <trkpt lat="44.76533" lon="6.32758">
        <ele>1820.8</ele>
        <time>2024-08-12T10:28:04Z</time>
      </trkpt>
      <trkpt lat="44.76533" lon="6.32758">
        <ele>1820.8</ele>
        <time>2024-08-12T10:28:05Z</time>
      </trkpt>
      <trkpt lat="44.76533" lon="6.32758">
        <ele>1820.8</ele>
        <time>2024-08-12T10:28:06Z</time>
      </trkpt>
      <trkpt lat="44.76533" lon="6.32758">
        <ele>1820.6</ele>
        <time>2024-08-12T10:28:07Z</time>
      </trkpt>
      <trkpt lat="44.76533" lon="6.32758">
        <ele>1820.4</ele>
        <time>2024-08-12T10:28:08Z</time>
      </trkpt>
      <trkpt lat="44.76533" lon="6.32758">
        <ele>1820.4</ele>
        <time>2024-08-12T10:28:09Z</time>
      </trkpt>
      <trkpt lat="44.76533" lon="6.32758">
        <ele>1820.4</ele>
        <time>2024-08-12T10:28:10Z</time>
      </trkpt>
      <trkpt lat="44.76533" lon="6.32758">
        <ele>1820.8</ele>
        <time>2024-08-12T10:28:11Z</time>
      </trkpt>
      <trkpt lat="44.76533" lon="6.32758">
        <ele>1820.8</ele>
        <time>2024-08-12T10:28:12Z</time>
      </trkpt>
      <trkpt lat="44.76533" lon="6.32758">
        <ele>1820.8</ele>
        <time>2024-08-12T10:28:13Z</time>
      </trkpt>
      <trkpt lat="44.76533" lon="6.32758">
        <ele>1820.8</ele>
        <time>2024-08-12T10:28:14Z</time>
      </trkpt>
      <trkpt lat="44.76533" lon="6.32758">
        <ele>1820.6</ele>
        <time>2024-08-12T10:28:15Z</time>
      </trkpt>
      <trkpt lat="44.76533" lon="6.32758">
        <ele>1820.6</ele>
        <time>2024-08-12T10:28:16Z</time>
      </trkpt>
      <trkpt lat="44.76533" lon="6.32758">
        <ele>1820.6</ele>
        <time>2024-08-12T10:28:17Z</time>
      </trkpt>
      <trkpt lat="44.76533" lon="6.32758">
        <ele>1820.6</ele>
        <time>2024-08-12T10:28:18Z</time>
      </trkpt>
      <trkpt lat="44.76533" lon="6.32758">
        <ele>1820.6</ele>
        <time>2024-08-12T10:28:19Z</time>
      </trkpt>
      <trkpt lat="44.76533" lon="6.32758">
        <ele>1820.6</ele>
        <time>2024-08-12T10:28:20Z</time>
      </trkpt>
      <trkpt lat="44.76533" lon="6.32758">
        <ele>1820.6</ele>
        <time>2024-08-12T10:28:21Z</time>
      </trkpt>
      <trkpt lat="44.76533" lon="6.32758">
        <ele>1820.4</ele>
        <time>2024-08-12T10:28:22Z</time>
      </trkpt>
      <trkpt lat="44.76533" lon="6.32758">
        <ele>1820.4</ele>
        <time>2024-08-12T10:28:23Z</time>
      </trkpt>
      <trkpt lat="44.76533" lon="6.32758">
        <ele>1820.4</ele>
        <time>2024-08-12T10:28:24Z</time>
      </trkpt>
      <trkpt lat="44.76533" lon="6.32758">
        <ele>1820.6</ele>
        <time>2024-08-12T10:28:25Z</time>
      </trkpt>
      <trkpt lat="44.76533" lon="6.32758">
        <ele>1820.6</ele>
        <time>2024-08-12T10:28:26Z</time>
      </trkpt>
      <trkpt lat="44.76533" lon="6.32758">
        <ele>1820.6</ele>
        <time>2024-08-12T10:28:27Z</time>
      </trkpt>
      <trkpt lat="44.76533" lon="6.32758">
        <ele>1820.6</ele>
        <time>2024-08-12T10:28:28Z</time>
      </trkpt>
      <trkpt lat="44.76533" lon="6.32758">
        <ele>1820.8</ele>
        <time>2024-08-12T10:28:29Z</time>
      </trkpt>
      <trkpt lat="44.76533" lon="6.32758">
        <ele>1820.8</ele>
        <time>2024-08-12T10:28:30Z</time>
      </trkpt>
      <trkpt lat="44.76533" lon="6.32758">
        <ele>1820.8</ele>
        <time>2024-08-12T10:28:31Z</time>
      </trkpt>
      <trkpt lat="44.76533" lon="6.32758">
        <ele>1820.8</ele>
        <time>2024-08-12T10:28:32Z</time>
      </trkpt>
      <trkpt lat="44.76533" lon="6.32758">
        <ele>1820.8</ele>
        <time>2024-08-12T10:28:33Z</time>
      </trkpt>
      <trkpt lat="44.76533" lon="6.32758">
        <ele>1820.8</ele>
        <time>2024-08-12T10:28:34Z</time>
      </trkpt>
      <trkpt lat="44.76533" lon="6.32758">
        <ele>1820.6</ele>
        <time>2024-08-12T10:28:35Z</time>
      </trkpt>
      <trkpt lat="44.76533" lon="6.32758">
        <ele>1820.6</ele>
        <time>2024-08-12T10:28:36Z</time>
      </trkpt>
      <trkpt lat="44.76533" lon="6.32758">
        <ele>1820.6</ele>
        <time>2024-08-12T10:28:37Z</time>
      </trkpt>
      <trkpt lat="44.76533" lon="6.32758">
        <ele>1820.6</ele>
        <time>2024-08-12T10:28:38Z</time>
      </trkpt>
      <trkpt lat="44.76533" lon="6.32758">
        <ele>1820.4</ele>
        <time>2024-08-12T10:28:39Z</time>
      </trkpt>
      <trkpt lat="44.76533" lon="6.32758">
        <ele>1820.4</ele>
        <time>2024-08-12T10:28:40Z</time>
      </trkpt>
      <trkpt lat="44.76533" lon="6.32758">
        <ele>1820.4</ele>
        <time>2024-08-12T10:28:41Z</time>
      </trkpt>
      <trkpt lat="44.76533" lon="6.32758">
        <ele>1820.6</ele>
        <time>2024-08-12T10:28:42Z</time>
      </trkpt>
      <trkpt lat="44.76533" lon="6.32758">
        <ele>1820.6</ele>
        <time>2024-08-12T10:28:43Z</time>
      </trkpt>
      <trkpt lat="44.76533" lon="6.32758">
        <ele>1820.8</ele>
        <time>2024-08-12T10:28:44Z</time>
      </trkpt>
      <trkpt lat="44.76533" lon="6.32758">
        <ele>1820.8</ele>
        <time>2024-08-12T10:28:45Z</time>
      </trkpt>
      <trkpt lat="44.76533" lon="6.32758">
        <ele>1820.8</ele>
        <time>2024-08-12T10:28:46Z</time>
      </trkpt>
      <trkpt lat="44.76533" lon="6.32758">
        <ele>1820.6</ele>
        <time>2024-08-12T10:28:47Z</time>
      </trkpt>
      <trkpt lat="44.76533" lon="6.32758">
        <ele>1820.4</ele>
        <time>2024-08-12T10:28:48Z</time>
      </trkpt>
      <trkpt lat="44.76533" lon="6.32758">
        <ele>1820.4</ele>
        <time>2024-08-12T10:28:49Z</time>
      </trkpt>
      <trkpt lat="44.76533" lon="6.32758">
        <ele>1820.4</ele>
        <time>2024-08-12T10:28:50Z</time>
      </trkpt>
      <trkpt lat="44.76533" lon="6.32758">
        <ele>1820.4</ele>
        <time>2024-08-12T10:28:51Z</time>
      </trkpt>
      <trkpt lat="44.76533" lon="6.32758">
        <ele>1820.4</ele>
        <time>2024-08-12T10:28:52Z</time>
      </trkpt>
      <trkpt lat="44.76533" lon="6.32758">
        <ele>1820.4</ele>
        <time>2024-08-12T10:28:53Z</time>
      </trkpt>
      <trkpt lat="44.76533" lon="6.32758">
        <ele>1820.2</ele>
        <time>2024-08-12T10:28:54Z</time>
      </trkpt>
      <trkpt lat="44.76533" lon="6.32758">
        <ele>1820.2</ele>
        <time>2024-08-12T10:28:55Z</time>
      </trkpt>
      <trkpt lat="44.76533" lon="6.32758">
        <ele>1820.2</ele>
        <time>2024-08-12T10:28:56Z</time>
      </trkpt>
      <trkpt lat="44.76533" lon="6.32758">
        <ele>1820.2</ele>
        <time>2024-08-12T10:28:57Z</time>
      </trkpt>
      <trkpt lat="44.76533" lon="6.32758">
        <ele>1820.2</ele>
        <time>2024-08-12T10:28:58Z</time>
      </trkpt>
      <trkpt lat="44.76533" lon="6.32758">
        <ele>1820</ele>
        <time>2024-08-12T10:28:59Z</time>
      </trkpt>
      <trkpt lat="44.76533" lon="6.32758">
        <ele>1820</ele>
        <time>2024-08-12T10:29:00Z</time>
      </trkpt>
      <trkpt lat="44.76533" lon="6.32758">
        <ele>1820</ele>
        <time>2024-08-12T10:29:01Z</time>
      </trkpt>
      <trkpt lat="44.76533" lon="6.32758">
        <ele>1820.4</ele>
        <time>2024-08-12T10:29:02Z</time>
      </trkpt>
      <trkpt lat="44.76533" lon="6.32758">
        <ele>1820.4</ele>
        <time>2024-08-12T10:29:03Z</time>
      </trkpt>
      <trkpt lat="44.76533" lon="6.32758">
        <ele>1820.2</ele>
        <time>2024-08-12T10:29:04Z</time>
      </trkpt>
      <trkpt lat="44.76533" lon="6.32758">
        <ele>1820.2</ele>
        <time>2024-08-12T10:29:05Z</time>
      </trkpt>
      <trkpt lat="44.76533" lon="6.32758">
        <ele>1820.2</ele>
        <time>2024-08-12T10:29:06Z</time>
      </trkpt>
      <trkpt lat="44.76533" lon="6.32758">
        <ele>1820.2</ele>
        <time>2024-08-12T10:29:07Z</time>
      </trkpt>
      <trkpt lat="44.76533" lon="6.32758">
        <ele>1820</ele>
        <time>2024-08-12T10:29:08Z</time>
      </trkpt>
      <trkpt lat="44.76533" lon="6.32758">
        <ele>1820</ele>
        <time>2024-08-12T10:29:09Z</time>
      </trkpt>
      <trkpt lat="44.76533" lon="6.32758">
        <ele>1820</ele>
        <time>2024-08-12T10:29:10Z</time>
      </trkpt>
      <trkpt lat="44.76533" lon="6.32758">
        <ele>1820</ele>
        <time>2024-08-12T10:29:11Z</time>
      </trkpt>
      <trkpt lat="44.76533" lon="6.32758">
        <ele>1819.8</ele>
        <time>2024-08-12T10:29:12Z</time>
      </trkpt>
      <trkpt lat="44.76533" lon="6.32758">
        <ele>1819.8</ele>
        <time>2024-08-12T10:29:13Z</time>
      </trkpt>
      <trkpt lat="44.76533" lon="6.32758">
        <ele>1819.8</ele>
        <time>2024-08-12T10:29:14Z</time>
      </trkpt>
      <trkpt lat="44.76533" lon="6.32758">
        <ele>1819.8</ele>
        <time>2024-08-12T10:29:15Z</time>
      </trkpt>
      <trkpt lat="44.76533" lon="6.32758">
        <ele>1820</ele>
        <time>2024-08-12T10:29:16Z</time>
      </trkpt>
      <trkpt lat="44.76533" lon="6.32758">
        <ele>1820</ele>
        <time>2024-08-12T10:29:17Z</time>
      </trkpt>
      <trkpt lat="44.76533" lon="6.32758">
        <ele>1819.8</ele>
        <time>2024-08-12T10:29:18Z</time>
      </trkpt>
      <trkpt lat="44.76533" lon="6.32758">
        <ele>1819.6</ele>
        <time>2024-08-12T10:29:19Z</time>
      </trkpt>
      <trkpt lat="44.76533" lon="6.32758">
        <ele>1819.6</ele>
        <time>2024-08-12T10:29:20Z</time>
      </trkpt>
      <trkpt lat="44.76533" lon="6.32758">
        <ele>1819.6</ele>
        <time>2024-08-12T10:29:21Z</time>
      </trkpt>
      <trkpt lat="44.76533" lon="6.32758">
        <ele>1819.6</ele>
        <time>2024-08-12T10:29:22Z</time>
      </trkpt>
      <trkpt lat="44.76533" lon="6.32758">
        <ele>1820</ele>
        <time>2024-08-12T10:29:23Z</time>
      </trkpt>
      <trkpt lat="44.76533" lon="6.32758">
        <ele>1820</ele>
        <time>2024-08-12T10:29:24Z</time>
      </trkpt>
      <trkpt lat="44.76533" lon="6.32758">
        <ele>1820</ele>
        <time>2024-08-12T10:29:25Z</time>
      </trkpt>
      <trkpt lat="44.76533" lon="6.32758">
        <ele>1820</ele>
        <time>2024-08-12T10:29:26Z</time>
      </trkpt>
      <trkpt lat="44.76533" lon="6.32758">
        <ele>1820</ele>
        <time>2024-08-12T10:29:27Z</time>
      </trkpt>
      <trkpt lat="44.76533" lon="6.32758">
        <ele>1820</ele>
        <time>2024-08-12T10:29:28Z</time>
      </trkpt>
      <trkpt lat="44.76533" lon="6.32758">
        <ele>1820</ele>
        <time>2024-08-12T10:29:29Z</time>
      </trkpt>
      <trkpt lat="44.76533" lon="6.32758">
        <ele>1820</ele>
        <time>2024-08-12T10:29:30Z</time>
      </trkpt>
      <trkpt lat="44.76533" lon="6.32758">
        <ele>1820</ele>
        <time>2024-08-12T10:29:31Z</time>
      </trkpt>
      <trkpt lat="44.76533" lon="6.32758">
        <ele>1820</ele>
        <time>2024-08-12T10:29:32Z</time>
      </trkpt>
      <trkpt lat="44.76533" lon="6.32758">
        <ele>1820</ele>
        <time>2024-08-12T10:29:33Z</time>
      </trkpt>
      <trkpt lat="44.76533" lon="6.32758">
        <ele>1820</ele>
        <time>2024-08-12T10:29:34Z</time>
      </trkpt>
      <trkpt lat="44.76533" lon="6.32758">
        <ele>1820</ele>
        <time>2024-08-12T10:29:35Z</time>
      </trkpt>
      <trkpt lat="44.76533" lon="6.32758">
        <ele>1820.2</ele>
        <time>2024-08-12T10:29:36Z</time>
      </trkpt>
      <trkpt lat="44.76533" lon="6.32758">
        <ele>1820</ele>
        <time>2024-08-12T10:29:37Z</time>
      </trkpt>
      <trkpt lat="44.76533" lon="6.32758">
        <ele>1820.2</ele>
        <time>2024-08-12T10:29:38Z</time>
      </trkpt>
      <trkpt lat="44.76533" lon="6.32758">
        <ele>1820</ele>
        <time>2024-08-12T10:29:39Z</time>
      </trkpt>
      <trkpt lat="44.76533" lon="6.32758">
        <ele>1820</ele>
        <time>2024-08-12T10:29:40Z</time>
      </trkpt>
      <trkpt lat="44.76533" lon="6.32758">
        <ele>1820</ele>
        <time>2024-08-12T10:29:41Z</time>
      </trkpt>
      <trkpt lat="44.76533" lon="6.32758">
        <ele>1820</ele>
        <time>2024-08-12T10:29:42Z</time>
      </trkpt>
      <trkpt lat="44.76533" lon="6.32758">
        <ele>1819.8</ele>
        <time>2024-08-12T10:29:43Z</time>
      </trkpt>
      <trkpt lat="44.76533" lon="6.32758">
        <ele>1819.8</ele>
        <time>2024-08-12T10:29:44Z</time>
      </trkpt>
      <trkpt lat="44.76533" lon="6.32758">
        <ele>1820</ele>
        <time>2024-08-12T10:29:45Z</time>
      </trkpt>
      <trkpt lat="44.76533" lon="6.32758">
        <ele>1820</ele>
        <time>2024-08-12T10:29:46Z</time>
      </trkpt>
      <trkpt lat="44.76533" lon="6.32758">
        <ele>1820</ele>
        <time>2024-08-12T10:29:47Z</time>
      </trkpt>
      <trkpt lat="44.76533" lon="6.32758">
        <ele>1819.8</ele>
        <time>2024-08-12T10:29:48Z</time>
      </trkpt>
      <trkpt lat="44.76533" lon="6.32758">
        <ele>1819.8</ele>
        <time>2024-08-12T10:29:49Z</time>
      </trkpt>
      <trkpt lat="44.76533" lon="6.32758">
        <ele>1819.8</ele>
        <time>2024-08-12T10:29:50Z</time>
      </trkpt>
      <trkpt lat="44.76533" lon="6.32758">
        <ele>1820</ele>
        <time>2024-08-12T10:29:51Z</time>
      </trkpt>
      <trkpt lat="44.76533" lon="6.32758">
        <ele>1820</ele>
        <time>2024-08-12T10:29:52Z</time>
      </trkpt>
      <trkpt lat="44.76533" lon="6.32758">
        <ele>1820.2</ele>
        <time>2024-08-12T10:29:53Z</time>
      </trkpt>
      <trkpt lat="44.76533" lon="6.32758">
        <ele>1820.2</ele>
        <time>2024-08-12T10:29:54Z</time>
      </trkpt>
      <trkpt lat="44.76533" lon="6.32758">
        <ele>1820</ele>
        <time>2024-08-12T10:29:55Z</time>
      </trkpt>
      <trkpt lat="44.76533" lon="6.32758">
        <ele>1820</ele>
        <time>2024-08-12T10:29:56Z</time>
      </trkpt>
      <trkpt lat="44.76533" lon="6.32758">
        <ele>1820</ele>
        <time>2024-08-12T10:29:57Z</time>
      </trkpt>
      <trkpt lat="44.76533" lon="6.32758">
        <ele>1820.2</ele>
        <time>2024-08-12T10:29:58Z</time>
      </trkpt>
      <trkpt lat="44.76533" lon="6.32758">
        <ele>1820.2</ele>
        <time>2024-08-12T10:29:59Z</time>
      </trkpt>
      <trkpt lat="44.76533" lon="6.32758">
        <ele>1820.2</ele>
        <time>2024-08-12T10:30:00Z</time>
      </trkpt>
      <trkpt lat="44.76533" lon="6.32758">
        <ele>1820</ele>
        <time>2024-08-12T10:30:01Z</time>
      </trkpt>
      <trkpt lat="44.76533" lon="6.32758">
        <ele>1820.2</ele>
        <time>2024-08-12T10:30:02Z</time>
      </trkpt>
      <trkpt lat="44.76533" lon="6.32758">
        <ele>1820.2</ele>
        <time>2024-08-12T10:30:03Z</time>
      </trkpt>
      <trkpt lat="44.76533" lon="6.32758">
        <ele>1820</ele>
        <time>2024-08-12T10:30:04Z</time>
      </trkpt>
      <trkpt lat="44.76533" lon="6.32758">
        <ele>1820</ele>
        <time>2024-08-12T10:30:05Z</time>
      </trkpt>
      <trkpt lat="44.76533" lon="6.32758">
        <ele>1820.2</ele>
        <time>2024-08-12T10:30:06Z</time>
      </trkpt>
      <trkpt lat="44.76533" lon="6.32758">
        <ele>1820.2</ele>
        <time>2024-08-12T10:30:07Z</time>
      </trkpt>
      <trkpt lat="44.76533" lon="6.32758">
        <ele>1820.2</ele>
        <time>2024-08-12T10:30:08Z</time>
      </trkpt>
      <trkpt lat="44.76533" lon="6.32758">
        <ele>1820.2</ele>
        <time>2024-08-12T10:30:09Z</time>
      </trkpt>
      <trkpt lat="44.76533" lon="6.32758">
        <ele>1820.2</ele>
        <time>2024-08-12T10:30:10Z</time>
      </trkpt>
      <trkpt lat="44.76533" lon="6.32758">
        <ele>1819.6</ele>
        <time>2024-08-12T10:30:11Z</time>
      </trkpt>
      <trkpt lat="44.76533" lon="6.32758">
        <ele>1819.6</ele>
        <time>2024-08-12T10:30:12Z</time>
      </trkpt>
      <trkpt lat="44.76533" lon="6.32758">
        <ele>1819.8</ele>
        <time>2024-08-12T10:30:13Z</time>
      </trkpt>
      <trkpt lat="44.76533" lon="6.32758">
        <ele>1820</ele>
        <time>2024-08-12T10:30:14Z</time>
      </trkpt>
      <trkpt lat="44.76533" lon="6.32758">
        <ele>1820</ele>
        <time>2024-08-12T10:30:15Z</time>
      </trkpt>
      <trkpt lat="44.76533" lon="6.32758">
        <ele>1820</ele>
        <time>2024-08-12T10:30:16Z</time>
      </trkpt>
      <trkpt lat="44.76533" lon="6.32758">
        <ele>1820</ele>
        <time>2024-08-12T10:30:17Z</time>
      </trkpt>
      <trkpt lat="44.76533" lon="6.32758">
        <ele>1820</ele>
        <time>2024-08-12T10:30:18Z</time>
      </trkpt>
      <trkpt lat="44.76533" lon="6.32758">
        <ele>1820</ele>
        <time>2024-08-12T10:30:19Z</time>
      </trkpt>
      <trkpt lat="44.76533" lon="6.32758">
        <ele>1820.2</ele>
        <time>2024-08-12T10:30:20Z</time>
      </trkpt>
      <trkpt lat="44.76533" lon="6.32758">
        <ele>1820.2</ele>
        <time>2024-08-12T10:30:21Z</time>
      </trkpt>
      <trkpt lat="44.76533" lon="6.32758">
        <ele>1820</ele>
        <time>2024-08-12T10:30:22Z</time>
      </trkpt>
      <trkpt lat="44.76533" lon="6.32758">
        <ele>1819.8</ele>
        <time>2024-08-12T10:30:23Z</time>
      </trkpt>
      <trkpt lat="44.76533" lon="6.32758">
        <ele>1819.8</ele>
        <time>2024-08-12T10:30:24Z</time>
      </trkpt>
      <trkpt lat="44.76533" lon="6.32758">
        <ele>1819.8</ele>
        <time>2024-08-12T10:30:25Z</time>
      </trkpt>
      <trkpt lat="44.76533" lon="6.32758">
        <ele>1819.8</ele>
        <time>2024-08-12T10:30:26Z</time>
      </trkpt>
      <trkpt lat="44.76533" lon="6.32758">
        <ele>1819.8</ele>
        <time>2024-08-12T10:30:27Z</time>
      </trkpt>
      <trkpt lat="44.76533" lon="6.32758">
        <ele>1819.8</ele>
        <time>2024-08-12T10:30:28Z</time>
      </trkpt>
      <trkpt lat="44.76533" lon="6.32758">
        <ele>1819.8</ele>
        <time>2024-08-12T10:30:29Z</time>
      </trkpt>
      <trkpt lat="44.76533" lon="6.32758">
        <ele>1820</ele>
        <time>2024-08-12T10:30:30Z</time>
      </trkpt>
      <trkpt lat="44.76533" lon="6.32758">
        <ele>1820</ele>
        <time>2024-08-12T10:30:31Z</time>
      </trkpt>
      <trkpt lat="44.76533" lon="6.32758">
        <ele>1820</ele>
        <time>2024-08-12T10:30:32Z</time>
      </trkpt>
      <trkpt lat="44.76533" lon="6.32758">
        <ele>1820</ele>
        <time>2024-08-12T10:30:33Z</time>
      </trkpt>
      <trkpt lat="44.76533" lon="6.32758">
        <ele>1820</ele>
        <time>2024-08-12T10:30:34Z</time>
      </trkpt>
      <trkpt lat="44.76533" lon="6.32758">
        <ele>1820</ele>
        <time>2024-08-12T10:30:35Z</time>
      </trkpt>
      <trkpt lat="44.76533" lon="6.32758">
        <ele>1820.2</ele>
        <time>2024-08-12T10:30:36Z</time>
      </trkpt>
      <trkpt lat="44.76533" lon="6.32758">
        <ele>1820.4</ele>
        <time>2024-08-12T10:30:37Z</time>
      </trkpt>
      <trkpt lat="44.76533" lon="6.32758">
        <ele>1820.4</ele>
        <time>2024-08-12T10:30:38Z</time>
      </trkpt>
      <trkpt lat="44.76533" lon="6.32758">
        <ele>1820.4</ele>
        <time>2024-08-12T10:30:39Z</time>
      </trkpt>
      <trkpt lat="44.76533" lon="6.32758">
        <ele>1820.4</ele>
        <time>2024-08-12T10:30:40Z</time>
      </trkpt>
      <trkpt lat="44.76533" lon="6.32758">
        <ele>1820.2</ele>
        <time>2024-08-12T10:30:41Z</time>
      </trkpt>
      <trkpt lat="44.76533" lon="6.32758">
        <ele>1820.2</ele>
        <time>2024-08-12T10:30:42Z</time>
      </trkpt>
      <trkpt lat="44.76533" lon="6.32758">
        <ele>1820</ele>
        <time>2024-08-12T10:30:43Z</time>
      </trkpt>
      <trkpt lat="44.76533" lon="6.32758">
        <ele>1820</ele>
        <time>2024-08-12T10:30:44Z</time>
      </trkpt>
      <trkpt lat="44.76533" lon="6.32758">
        <ele>1820.2</ele>
        <time>2024-08-12T10:30:45Z</time>
      </trkpt>
      <trkpt lat="44.76533" lon="6.32758">
        <ele>1820.2</ele>
        <time>2024-08-12T10:30:46Z</time>
      </trkpt>
      <trkpt lat="44.76533" lon="6.32758">
        <ele>1820.2</ele>
        <time>2024-08-12T10:30:47Z</time>
      </trkpt>
      <trkpt lat="44.76533" lon="6.32758">
        <ele>1820.4</ele>
        <time>2024-08-12T10:30:48Z</time>
      </trkpt>
      <trkpt lat="44.76533" lon="6.32758">
        <ele>1820.4</ele>
        <time>2024-08-12T10:30:49Z</time>
      </trkpt>
      <trkpt lat="44.76533" lon="6.32758">
        <ele>1820.4</ele>
        <time>2024-08-12T10:30:50Z</time>
      </trkpt>
      <trkpt lat="44.76533" lon="6.32758">
        <ele>1820.2</ele>
        <time>2024-08-12T10:30:51Z</time>
      </trkpt>
      <trkpt lat="44.76533" lon="6.32758">
        <ele>1820.2</ele>
        <time>2024-08-12T10:30:52Z</time>
      </trkpt>
      <trkpt lat="44.76533" lon="6.32758">
        <ele>1820.2</ele>
        <time>2024-08-12T10:30:53Z</time>
      </trkpt>
      <trkpt lat="44.76533" lon="6.32758">
        <ele>1820.6</ele>
        <time>2024-08-12T10:30:54Z</time>
      </trkpt>
      <trkpt lat="44.76533" lon="6.32758">
        <ele>1820.6</ele>
        <time>2024-08-12T10:30:55Z</time>
      </trkpt>
      <trkpt lat="44.76533" lon="6.32758">
        <ele>1820.4</ele>
        <time>2024-08-12T10:30:56Z</time>
      </trkpt>
      <trkpt lat="44.76533" lon="6.32758">
        <ele>1820.4</ele>
        <time>2024-08-12T10:30:57Z</time>
      </trkpt>
      <trkpt lat="44.76533" lon="6.32758">
        <ele>1820.4</ele>
        <time>2024-08-12T10:30:58Z</time>
      </trkpt>
      <trkpt lat="44.76533" lon="6.32758">
        <ele>1820.4</ele>
        <time>2024-08-12T10:30:59Z</time>
      </trkpt>
      <trkpt lat="44.76533" lon="6.32758">
        <ele>1820.4</ele>
        <time>2024-08-12T10:31:00Z</time>
      </trkpt>
      <trkpt lat="44.76533" lon="6.32758">
        <ele>1820.4</ele>
        <time>2024-08-12T10:31:01Z</time>
      </trkpt>
      <trkpt lat="44.76533" lon="6.32758">
        <ele>1820.4</ele>
        <time>2024-08-12T10:31:02Z</time>
      </trkpt>
      <trkpt lat="44.76533" lon="6.32758">
        <ele>1820.4</ele>
        <time>2024-08-12T10:31:03Z</time>
      </trkpt>
      <trkpt lat="44.76533" lon="6.32758">
        <ele>1820.4</ele>
        <time>2024-08-12T10:31:04Z</time>
      </trkpt>
      <trkpt lat="44.76533" lon="6.32758">
        <ele>1820.4</ele>
        <time>2024-08-12T10:31:05Z</time>
      </trkpt>
      <trkpt lat="44.76533" lon="6.32758">
        <ele>1820.4</ele>
        <time>2024-08-12T10:31:06Z</time>
      </trkpt>
      <trkpt lat="44.76533" lon="6.32758">
        <ele>1820.4</ele>
        <time>2024-08-12T10:31:07Z</time>
      </trkpt>
      <trkpt lat="44.76533" lon="6.32758">
        <ele>1820.4</ele>
        <time>2024-08-12T10:31:08Z</time>
      </trkpt>
      <trkpt lat="44.76533" lon="6.32758">
        <ele>1820.4</ele>
        <time>2024-08-12T10:31:09Z</time>
      </trkpt>
      <trkpt lat="44.76533" lon="6.32758">
        <ele>1820.4</ele>
        <time>2024-08-12T10:31:10Z</time>
      </trkpt>
      <trkpt lat="44.76533" lon="6.32758">
        <ele>1820.4</ele>
        <time>2024-08-12T10:31:11Z</time>
      </trkpt>
      <trkpt lat="44.76533" lon="6.32758">
        <ele>1820.4</ele>
        <time>2024-08-12T10:31:12Z</time>
      </trkpt>
      <trkpt lat="44.76533" lon="6.32758">
        <ele>1821</ele>
        <time>2024-08-12T10:31:13Z</time>
      </trkpt>
      <trkpt lat="44.76533" lon="6.32758">
        <ele>1821.2</ele>
        <time>2024-08-12T10:31:14Z</time>
      </trkpt>
      <trkpt lat="44.76533" lon="6.32758">
        <ele>1821.2</ele>
        <time>2024-08-12T10:31:15Z</time>
      </trkpt>
      <trkpt lat="44.76533" lon="6.32758">
        <ele>1821.2</ele>
        <time>2024-08-12T10:31:16Z</time>
      </trkpt>
      <trkpt lat="44.76533" lon="6.32758">
        <ele>1821</ele>
        <time>2024-08-12T10:31:17Z</time>
      </trkpt>
      <trkpt lat="44.76533" lon="6.32758">
        <ele>1821</ele>
        <time>2024-08-12T10:31:18Z</time>
      </trkpt>
      <trkpt lat="44.76533" lon="6.32758">
        <ele>1820.6</ele>
        <time>2024-08-12T10:31:19Z</time>
      </trkpt>
      <trkpt lat="44.76533" lon="6.32758">
        <ele>1820.2</ele>
        <time>2024-08-12T10:31:20Z</time>
      </trkpt>
      <trkpt lat="44.76533" lon="6.32758">
        <ele>1820.2</ele>
        <time>2024-08-12T10:31:21Z</time>
      </trkpt>
      <trkpt lat="44.76533" lon="6.32758">
        <ele>1820.2</ele>
        <time>2024-08-12T10:31:22Z</time>
      </trkpt>
      <trkpt lat="44.76533" lon="6.32758">
        <ele>1820.2</ele>
        <time>2024-08-12T10:31:23Z</time>
      </trkpt>
      <trkpt lat="44.76533" lon="6.32758">
        <ele>1820</ele>
        <time>2024-08-12T10:31:24Z</time>
      </trkpt>
      <trkpt lat="44.76533" lon="6.32758">
        <ele>1820</ele>
        <time>2024-08-12T10:31:25Z</time>
      </trkpt>
      <trkpt lat="44.76533" lon="6.32758">
        <ele>1820</ele>
        <time>2024-08-12T10:31:26Z</time>
      </trkpt>
      <trkpt lat="44.76533" lon="6.32758">
        <ele>1820</ele>
        <time>2024-08-12T10:31:27Z</time>
      </trkpt>
      <trkpt lat="44.76533" lon="6.32758">
        <ele>1820</ele>
        <time>2024-08-12T10:31:28Z</time>
      </trkpt>
      <trkpt lat="44.76533" lon="6.32758">
        <ele>1820</ele>
        <time>2024-08-12T10:31:29Z</time>
      </trkpt>
      <trkpt lat="44.76533" lon="6.32758">
        <ele>1820</ele>
        <time>2024-08-12T10:31:30Z</time>
      </trkpt>
      <trkpt lat="44.76533" lon="6.32758">
        <ele>1820</ele>
        <time>2024-08-12T10:31:31Z</time>
      </trkpt>
      <trkpt lat="44.76533" lon="6.32758">
        <ele>1820</ele>
        <time>2024-08-12T10:31:32Z</time>
      </trkpt>
      <trkpt lat="44.76533" lon="6.32758">
        <ele>1820</ele>
        <time>2024-08-12T10:31:33Z</time>
      </trkpt>
      <trkpt lat="44.76533" lon="6.32758">
        <ele>1820</ele>
        <time>2024-08-12T10:31:34Z</time>
      </trkpt>
      <trkpt lat="44.76533" lon="6.32758">
        <ele>1820.2</ele>
        <time>2024-08-12T10:31:35Z</time>
      </trkpt>
      <trkpt lat="44.76533" lon="6.32758">
        <ele>1820.2</ele>
        <time>2024-08-12T10:31:36Z</time>
      </trkpt>
      <trkpt lat="44.76533" lon="6.32758">
        <ele>1820.2</ele>
        <time>2024-08-12T10:31:37Z</time>
      </trkpt>
      <trkpt lat="44.76533" lon="6.32758">
        <ele>1820.2</ele>
        <time>2024-08-12T10:31:38Z</time>
      </trkpt>
      <trkpt lat="44.76533" lon="6.32758">
        <ele>1820.2</ele>
        <time>2024-08-12T10:31:39Z</time>
      </trkpt>
      <trkpt lat="44.76533" lon="6.32758">
        <ele>1820.2</ele>
        <time>2024-08-12T10:31:40Z</time>
      </trkpt>
      <trkpt lat="44.76533" lon="6.32758">
        <ele>1820.4</ele>
        <time>2024-08-12T10:31:41Z</time>
      </trkpt>
      <trkpt lat="44.76533" lon="6.32758">
        <ele>1820.4</ele>
        <time>2024-08-12T10:31:42Z</time>
      </trkpt>
      <trkpt lat="44.76533" lon="6.32758">
        <ele>1820.4</ele>
        <time>2024-08-12T10:31:43Z</time>
      </trkpt>
      <trkpt lat="44.76533" lon="6.32758">
        <ele>1820.4</ele>
        <time>2024-08-12T10:31:44Z</time>
      </trkpt>
      <trkpt lat="44.76533" lon="6.32758">
        <ele>1820.4</ele>
        <time>2024-08-12T10:31:45Z</time>
      </trkpt>
      <trkpt lat="44.76533" lon="6.32758">
        <ele>1820.4</ele>
        <time>2024-08-12T10:31:46Z</time>
      </trkpt>
      <trkpt lat="44.76533" lon="6.32758">
        <ele>1820.4</ele>
        <time>2024-08-12T10:31:47Z</time>
      </trkpt>
      <trkpt lat="44.76533" lon="6.32758">
        <ele>1820.2</ele>
        <time>2024-08-12T10:31:48Z</time>
      </trkpt>
      <trkpt lat="44.76533" lon="6.32758">
        <ele>1820.2</ele>
        <time>2024-08-12T10:31:49Z</time>
      </trkpt>
      <trkpt lat="44.76533" lon="6.32758">
        <ele>1820.4</ele>
        <time>2024-08-12T10:31:50Z</time>
      </trkpt>
      <trkpt lat="44.76533" lon="6.32758">
        <ele>1820.4</ele>
        <time>2024-08-12T10:31:51Z</time>
      </trkpt>
      <trkpt lat="44.76533" lon="6.32758">
        <ele>1820.4</ele>
        <time>2024-08-12T10:31:52Z</time>
      </trkpt>
      <trkpt lat="44.76533" lon="6.32758">
        <ele>1820.6</ele>
        <time>2024-08-12T10:31:53Z</time>
      </trkpt>
      <trkpt lat="44.76533" lon="6.32758">
        <ele>1820.6</ele>
        <time>2024-08-12T10:31:54Z</time>
      </trkpt>
      <trkpt lat="44.76533" lon="6.32758">
        <ele>1820.6</ele>
        <time>2024-08-12T10:31:55Z</time>
      </trkpt>
      <trkpt lat="44.76533" lon="6.32758">
        <ele>1820.6</ele>
        <time>2024-08-12T10:31:56Z</time>
      </trkpt>
      <trkpt lat="44.76533" lon="6.32758">
        <ele>1820.6</ele>
        <time>2024-08-12T10:31:57Z</time>
      </trkpt>
      <trkpt lat="44.76533" lon="6.32758">
        <ele>1820.6</ele>
        <time>2024-08-12T10:31:58Z</time>
      </trkpt>
      <trkpt lat="44.76533" lon="6.32758">
        <ele>1820.6</ele>
        <time>2024-08-12T10:31:59Z</time>
      </trkpt>
      <trkpt lat="44.76533" lon="6.32758">
        <ele>1820.6</ele>
        <time>2024-08-12T10:32:00Z</time>
      </trkpt>
      <trkpt lat="44.76533" lon="6.32758">
        <ele>1820.6</ele>
        <time>2024-08-12T10:32:01Z</time>
      </trkpt>
      <trkpt lat="44.76533" lon="6.32758">
        <ele>1820</ele>
        <time>2024-08-12T10:32:02Z</time>
      </trkpt>
      <trkpt lat="44.76533" lon="6.32758">
        <ele>1820</ele>
        <time>2024-08-12T10:32:03Z</time>
      </trkpt>
      <trkpt lat="44.76533" lon="6.32758">
        <ele>1820.2</ele>
        <time>2024-08-12T10:32:04Z</time>
      </trkpt>
      <trkpt lat="44.76533" lon="6.32758">
        <ele>1820.2</ele>
        <time>2024-08-12T10:32:05Z</time>
      </trkpt>
      <trkpt lat="44.76533" lon="6.32758">
        <ele>1820.2</ele>
        <time>2024-08-12T10:32:06Z</time>
      </trkpt>
      <trkpt lat="44.76533" lon="6.32758">
        <ele>1820.2</ele>
        <time>2024-08-12T10:32:07Z</time>
      </trkpt>
      <trkpt lat="44.76533" lon="6.32758">
        <ele>1820.2</ele>
        <time>2024-08-12T10:32:08Z</time>
      </trkpt>
      <trkpt lat="44.76533" lon="6.32758">
        <ele>1820.2</ele>
        <time>2024-08-12T10:32:09Z</time>
      </trkpt>
      <trkpt lat="44.76533" lon="6.32758">
        <ele>1820.4</ele>
        <time>2024-08-12T10:32:10Z</time>
      </trkpt>
      <trkpt lat="44.76533" lon="6.32758">
        <ele>1820.4</ele>
        <time>2024-08-12T10:32:11Z</time>
      </trkpt>
      <trkpt lat="44.76533" lon="6.32758">
        <ele>1820.6</ele>
        <time>2024-08-12T10:32:12Z</time>
      </trkpt>
      <trkpt lat="44.76533" lon="6.32758">
        <ele>1820.6</ele>
        <time>2024-08-12T10:32:13Z</time>
      </trkpt>
      <trkpt lat="44.76533" lon="6.32758">
        <ele>1820.6</ele>
        <time>2024-08-12T10:32:14Z</time>
      </trkpt>
      <trkpt lat="44.76533" lon="6.32758">
        <ele>1820.6</ele>
        <time>2024-08-12T10:32:15Z</time>
      </trkpt>
      <trkpt lat="44.76533" lon="6.32758">
        <ele>1820.6</ele>
        <time>2024-08-12T10:32:16Z</time>
      </trkpt>
      <trkpt lat="44.76533" lon="6.32758">
        <ele>1820.4</ele>
        <time>2024-08-12T10:32:17Z</time>
      </trkpt>
      <trkpt lat="44.76533" lon="6.32758">
        <ele>1820.4</ele>
        <time>2024-08-12T10:32:18Z</time>
      </trkpt>
      <trkpt lat="44.76533" lon="6.32758">
        <ele>1820.4</ele>
        <time>2024-08-12T10:32:19Z</time>
      </trkpt>
      <trkpt lat="44.76533" lon="6.32758">
        <ele>1820.6</ele>
        <time>2024-08-12T10:32:20Z</time>
      </trkpt>
      <trkpt lat="44.76533" lon="6.32758">
        <ele>1820.6</ele>
        <time>2024-08-12T10:32:21Z</time>
      </trkpt>
      <trkpt lat="44.76533" lon="6.32758">
        <ele>1820.6</ele>
        <time>2024-08-12T10:32:22Z</time>
      </trkpt>
      <trkpt lat="44.76533" lon="6.32758">
        <ele>1820.6</ele>
        <time>2024-08-12T10:32:23Z</time>
      </trkpt>
      <trkpt lat="44.76533" lon="6.32758">
        <ele>1820.4</ele>
        <time>2024-08-12T10:32:24Z</time>
      </trkpt>
      <trkpt lat="44.76533" lon="6.32758">
        <ele>1820.4</ele>
        <time>2024-08-12T10:32:25Z</time>
      </trkpt>
      <trkpt lat="44.76533" lon="6.32758">
        <ele>1820.6</ele>
        <time>2024-08-12T10:32:26Z</time>
      </trkpt>
      <trkpt lat="44.76533" lon="6.32758">
        <ele>1820.6</ele>
        <time>2024-08-12T10:32:27Z</time>
      </trkpt>
      <trkpt lat="44.76533" lon="6.32758">
        <ele>1820.8</ele>
        <time>2024-08-12T10:32:28Z</time>
      </trkpt>
      <trkpt lat="44.76533" lon="6.32758">
        <ele>1820.8</ele>
        <time>2024-08-12T10:32:29Z</time>
      </trkpt>
      <trkpt lat="44.76533" lon="6.32758">
        <ele>1820.6</ele>
        <time>2024-08-12T10:32:30Z</time>
      </trkpt>
      <trkpt lat="44.76533" lon="6.32758">
        <ele>1820.6</ele>
        <time>2024-08-12T10:32:31Z</time>
      </trkpt>
      <trkpt lat="44.76533" lon="6.32758">
        <ele>1820.8</ele>
        <time>2024-08-12T10:32:32Z</time>
      </trkpt>
      <trkpt lat="44.76533" lon="6.32758">
        <ele>1820.8</ele>
        <time>2024-08-12T10:32:33Z</time>
      </trkpt>
      <trkpt lat="44.76533" lon="6.32758">
        <ele>1820.8</ele>
        <time>2024-08-12T10:32:34Z</time>
      </trkpt>
      <trkpt lat="44.76533" lon="6.32758">
        <ele>1820.8</ele>
        <time>2024-08-12T10:32:35Z</time>
      </trkpt>
      <trkpt lat="44.76533" lon="6.32758">
        <ele>1820.6</ele>
        <time>2024-08-12T10:32:36Z</time>
      </trkpt>
      <trkpt lat="44.76533" lon="6.32758">
        <ele>1820.8</ele>
        <time>2024-08-12T10:32:37Z</time>
      </trkpt>
      <trkpt lat="44.76533" lon="6.32758">
        <ele>1820.8</ele>
        <time>2024-08-12T10:32:38Z</time>
      </trkpt>
      <trkpt lat="44.76533" lon="6.32758">
        <ele>1820.8</ele>
        <time>2024-08-12T10:32:39Z</time>
      </trkpt>
      <trkpt lat="44.76533" lon="6.32758">
        <ele>1820.6</ele>
        <time>2024-08-12T10:32:40Z</time>
      </trkpt>
      <trkpt lat="44.76533" lon="6.32758">
        <ele>1820.6</ele>
        <time>2024-08-12T10:32:41Z</time>
      </trkpt>
      <trkpt lat="44.76533" lon="6.32758">
        <ele>1820.8</ele>
        <time>2024-08-12T10:32:42Z</time>
      </trkpt>
      <trkpt lat="44.76533" lon="6.32758">
        <ele>1820.8</ele>
        <time>2024-08-12T10:32:43Z</time>
      </trkpt>
      <trkpt lat="44.76533" lon="6.32758">
        <ele>1820.8</ele>
        <time>2024-08-12T10:32:44Z</time>
      </trkpt>
      <trkpt lat="44.76533" lon="6.32758">
        <ele>1821</ele>
        <time>2024-08-12T10:32:45Z</time>
      </trkpt>
      <trkpt lat="44.76533" lon="6.32758">
        <ele>1820.8</ele>
        <time>2024-08-12T10:32:46Z</time>
      </trkpt>
      <trkpt lat="44.76533" lon="6.32758">
        <ele>1820.8</ele>
        <time>2024-08-12T10:32:47Z</time>
      </trkpt>
      <trkpt lat="44.76533" lon="6.32758">
        <ele>1820.8</ele>
        <time>2024-08-12T10:32:48Z</time>
      </trkpt>
      <trkpt lat="44.76533" lon="6.32758">
        <ele>1821.2</ele>
        <time>2024-08-12T10:32:49Z</time>
      </trkpt>
      <trkpt lat="44.76533" lon="6.32758">
        <ele>1821.2</ele>
        <time>2024-08-12T10:32:50Z</time>
      </trkpt>
      <trkpt lat="44.76533" lon="6.32758">
        <ele>1821.2</ele>
        <time>2024-08-12T10:32:51Z</time>
      </trkpt>
      <trkpt lat="44.76533" lon="6.32758">
        <ele>1821.2</ele>
        <time>2024-08-12T10:32:52Z</time>
      </trkpt>
      <trkpt lat="44.76533" lon="6.32758">
        <ele>1821.2</ele>
        <time>2024-08-12T10:32:53Z</time>
      </trkpt>
      <trkpt lat="44.76533" lon="6.32758">
        <ele>1821.2</ele>
        <time>2024-08-12T10:32:54Z</time>
      </trkpt>
      <trkpt lat="44.76533" lon="6.32758">
        <ele>1821</ele>
        <time>2024-08-12T10:32:55Z</time>
      </trkpt>
      <trkpt lat="44.76533" lon="6.32758">
        <ele>1821</ele>
        <time>2024-08-12T10:32:56Z</time>
      </trkpt>
      <trkpt lat="44.76533" lon="6.32758">
        <ele>1821</ele>
        <time>2024-08-12T10:32:57Z</time>
      </trkpt>
      <trkpt lat="44.76533" lon="6.32758">
        <ele>1821</ele>
        <time>2024-08-12T10:32:58Z</time>
      </trkpt>
      <trkpt lat="44.76533" lon="6.32758">
        <ele>1821</ele>
        <time>2024-08-12T10:32:59Z</time>
      </trkpt>
      <trkpt lat="44.76533" lon="6.32758">
        <ele>1821</ele>
        <time>2024-08-12T10:33:00Z</time>
      </trkpt>
      <trkpt lat="44.76533" lon="6.32758">
        <ele>1821</ele>
        <time>2024-08-12T10:33:01Z</time>
      </trkpt>
      <trkpt lat="44.76533" lon="6.32758">
        <ele>1821</ele>
        <time>2024-08-12T10:33:02Z</time>
      </trkpt>
      <trkpt lat="44.76533" lon="6.32758">
        <ele>1821</ele>
        <time>2024-08-12T10:33:03Z</time>
      </trkpt>
      <trkpt lat="44.76533" lon="6.32758">
        <ele>1820.8</ele>
        <time>2024-08-12T10:33:04Z</time>
      </trkpt>
      <trkpt lat="44.76533" lon="6.32758">
        <ele>1820.8</ele>
        <time>2024-08-12T10:33:05Z</time>
      </trkpt>
      <trkpt lat="44.76533" lon="6.32758">
        <ele>1820.8</ele>
        <time>2024-08-12T10:33:06Z</time>
      </trkpt>
      <trkpt lat="44.76533" lon="6.32758">
        <ele>1820.8</ele>
        <time>2024-08-12T10:33:07Z</time>
      </trkpt>
      <trkpt lat="44.76533" lon="6.32758">
        <ele>1820.8</ele>
        <time>2024-08-12T10:33:08Z</time>
      </trkpt>
      <trkpt lat="44.76533" lon="6.32758">
        <ele>1820.8</ele>
        <time>2024-08-12T10:33:09Z</time>
      </trkpt>
      <trkpt lat="44.76533" lon="6.32758">
        <ele>1821</ele>
        <time>2024-08-12T10:33:10Z</time>
      </trkpt>
      <trkpt lat="44.76533" lon="6.32758">
        <ele>1821.2</ele>
        <time>2024-08-12T10:33:11Z</time>
      </trkpt>
      <trkpt lat="44.76533" lon="6.32758">
        <ele>1821.2</ele>
        <time>2024-08-12T10:33:12Z</time>
      </trkpt>
      <trkpt lat="44.76533" lon="6.32758">
        <ele>1821.4</ele>
        <time>2024-08-12T10:33:13Z</time>
      </trkpt>
      <trkpt lat="44.76533" lon="6.32758">
        <ele>1821.4</ele>
        <time>2024-08-12T10:33:14Z</time>
      </trkpt>
      <trkpt lat="44.76533" lon="6.32758">
        <ele>1821</ele>
        <time>2024-08-12T10:33:15Z</time>
      </trkpt>
      <trkpt lat="44.76533" lon="6.32758">
        <ele>1821</ele>
        <time>2024-08-12T10:33:16Z</time>
      </trkpt>
      <trkpt lat="44.76533" lon="6.32758">
        <ele>1821</ele>
        <time>2024-08-12T10:33:17Z</time>
      </trkpt>
      <trkpt lat="44.76533" lon="6.32758">
        <ele>1821</ele>
        <time>2024-08-12T10:33:18Z</time>
      </trkpt>
      <trkpt lat="44.76533" lon="6.32758">
        <ele>1821</ele>
        <time>2024-08-12T10:33:19Z</time>
      </trkpt>
      <trkpt lat="44.76533" lon="6.32758">
        <ele>1821</ele>
        <time>2024-08-12T10:33:20Z</time>
      </trkpt>
      <trkpt lat="44.76533" lon="6.32758">
        <ele>1821.2</ele>
        <time>2024-08-12T10:33:21Z</time>
      </trkpt>
      <trkpt lat="44.76533" lon="6.32758">
        <ele>1821.8</ele>
        <time>2024-08-12T10:33:22Z</time>
      </trkpt>
      <trkpt lat="44.76533" lon="6.32758">
        <ele>1821.8</ele>
        <time>2024-08-12T10:33:23Z</time>
      </trkpt>
      <trkpt lat="44.76533" lon="6.32758">
        <ele>1821.6</ele>
        <time>2024-08-12T10:33:24Z</time>
      </trkpt>
      <trkpt lat="44.76533" lon="6.32758">
        <ele>1821.6</ele>
        <time>2024-08-12T10:33:25Z</time>
      </trkpt>
      <trkpt lat="44.76533" lon="6.32758">
        <ele>1821.4</ele>
        <time>2024-08-12T10:33:26Z</time>
      </trkpt>
      <trkpt lat="44.76533" lon="6.32758">
        <ele>1821.4</ele>
        <time>2024-08-12T10:33:27Z</time>
      </trkpt>
      <trkpt lat="44.76533" lon="6.32758">
        <ele>1821.4</ele>
        <time>2024-08-12T10:33:28Z</time>
      </trkpt>
      <trkpt lat="44.76533" lon="6.32758">
        <ele>1821.4</ele>
        <time>2024-08-12T10:33:29Z</time>
      </trkpt>
      <trkpt lat="44.76533" lon="6.32758">
        <ele>1821.4</ele>
        <time>2024-08-12T10:33:30Z</time>
      </trkpt>
      <trkpt lat="44.76533" lon="6.32758">
        <ele>1821.4</ele>
        <time>2024-08-12T10:33:31Z</time>
      </trkpt>
      <trkpt lat="44.76533" lon="6.32758">
        <ele>1821.4</ele>
        <time>2024-08-12T10:33:32Z</time>
      </trkpt>
      <trkpt lat="44.76533" lon="6.32758">
        <ele>1821.6</ele>
        <time>2024-08-12T10:33:33Z</time>
      </trkpt>
      <trkpt lat="44.76533" lon="6.32758">
        <ele>1821.6</ele>
        <time>2024-08-12T10:33:34Z</time>
      </trkpt>
      <trkpt lat="44.76533" lon="6.32758">
        <ele>1821.6</ele>
        <time>2024-08-12T10:33:35Z</time>
      </trkpt>
      <trkpt lat="44.76533" lon="6.32758">
        <ele>1821.6</ele>
        <time>2024-08-12T10:33:36Z</time>
      </trkpt>
      <trkpt lat="44.76533" lon="6.32758">
        <ele>1821.6</ele>
        <time>2024-08-12T10:33:37Z</time>
      </trkpt>
      <trkpt lat="44.76533" lon="6.32758">
        <ele>1821.6</ele>
        <time>2024-08-12T10:33:38Z</time>
      </trkpt>
      <trkpt lat="44.76533" lon="6.32758">
        <ele>1821.6</ele>
        <time>2024-08-12T10:33:39Z</time>
      </trkpt>
      <trkpt lat="44.76533" lon="6.32758">
        <ele>1821.6</ele>
        <time>2024-08-12T10:33:40Z</time>
      </trkpt>
      <trkpt lat="44.76533" lon="6.32758">
        <ele>1821.6</ele>
        <time>2024-08-12T10:33:41Z</time>
      </trkpt>
      <trkpt lat="44.76533" lon="6.32758">
        <ele>1821.6</ele>
        <time>2024-08-12T10:33:42Z</time>
      </trkpt>
      <trkpt lat="44.76533" lon="6.32758">
        <ele>1821.6</ele>
        <time>2024-08-12T10:33:43Z</time>
      </trkpt>
      <trkpt lat="44.76533" lon="6.32758">
        <ele>1821.6</ele>
        <time>2024-08-12T10:33:44Z</time>
      </trkpt>
      <trkpt lat="44.76533" lon="6.32758">
        <ele>1821.6</ele>
        <time>2024-08-12T10:33:45Z</time>
      </trkpt>
      <trkpt lat="44.76533" lon="6.32758">
        <ele>1821.4</ele>
        <time>2024-08-12T10:33:46Z</time>
      </trkpt>
      <trkpt lat="44.76533" lon="6.32758">
        <ele>1821.4</ele>
        <time>2024-08-12T10:33:47Z</time>
      </trkpt>
      <trkpt lat="44.76533" lon="6.32758">
        <ele>1821.4</ele>
        <time>2024-08-12T10:33:48Z</time>
      </trkpt>
      <trkpt lat="44.76533" lon="6.32758">
        <ele>1821.4</ele>
        <time>2024-08-12T10:33:49Z</time>
      </trkpt>
      <trkpt lat="44.76533" lon="6.32758">
        <ele>1821.4</ele>
        <time>2024-08-12T10:33:50Z</time>
      </trkpt>
      <trkpt lat="44.76533" lon="6.32758">
        <ele>1821.2</ele>
        <time>2024-08-12T10:33:51Z</time>
      </trkpt>
      <trkpt lat="44.76533" lon="6.32758">
        <ele>1821.2</ele>
        <time>2024-08-12T10:33:52Z</time>
      </trkpt>
      <trkpt lat="44.76533" lon="6.32758">
        <ele>1821.4</ele>
        <time>2024-08-12T10:33:53Z</time>
      </trkpt>
      <trkpt lat="44.76533" lon="6.32758">
        <ele>1821.4</ele>
        <time>2024-08-12T10:33:54Z</time>
      </trkpt>
      <trkpt lat="44.76533" lon="6.32758">
        <ele>1821.4</ele>
        <time>2024-08-12T10:33:55Z</time>
      </trkpt>
      <trkpt lat="44.76533" lon="6.32758">
        <ele>1821.4</ele>
        <time>2024-08-12T10:33:56Z</time>
      </trkpt>
      <trkpt lat="44.76533" lon="6.32758">
        <ele>1821.2</ele>
        <time>2024-08-12T10:33:57Z</time>
      </trkpt>
      <trkpt lat="44.76533" lon="6.32758">
        <ele>1821.2</ele>
        <time>2024-08-12T10:33:58Z</time>
      </trkpt>
      <trkpt lat="44.76533" lon="6.32758">
        <ele>1821.4</ele>
        <time>2024-08-12T10:33:59Z</time>
      </trkpt>
      <trkpt lat="44.76533" lon="6.32758">
        <ele>1821.4</ele>
        <time>2024-08-12T10:34:00Z</time>
      </trkpt>
      <trkpt lat="44.76533" lon="6.32758">
        <ele>1821.4</ele>
        <time>2024-08-12T10:34:01Z</time>
      </trkpt>
      <trkpt lat="44.76533" lon="6.32758">
        <ele>1821.2</ele>
        <time>2024-08-12T10:34:02Z</time>
      </trkpt>
      <trkpt lat="44.76533" lon="6.32758">
        <ele>1821.2</ele>
        <time>2024-08-12T10:34:03Z</time>
      </trkpt>
      <trkpt lat="44.76533" lon="6.32758">
        <ele>1821</ele>
        <time>2024-08-12T10:34:04Z</time>
      </trkpt>
      <trkpt lat="44.76533" lon="6.32758">
        <ele>1821</ele>
        <time>2024-08-12T10:34:05Z</time>
      </trkpt>
      <trkpt lat="44.76533" lon="6.32758">
        <ele>1820.8</ele>
        <time>2024-08-12T10:34:06Z</time>
      </trkpt>
      <trkpt lat="44.76533" lon="6.32758">
        <ele>1820.8</ele>
        <time>2024-08-12T10:34:07Z</time>
      </trkpt>
      <trkpt lat="44.76533" lon="6.32758">
        <ele>1820.6</ele>
        <time>2024-08-12T10:34:08Z</time>
      </trkpt>
      <trkpt lat="44.76533" lon="6.32758">
        <ele>1820.8</ele>
        <time>2024-08-12T10:34:09Z</time>
      </trkpt>
      <trkpt lat="44.76533" lon="6.32758">
        <ele>1820.8</ele>
        <time>2024-08-12T10:34:10Z</time>
      </trkpt>
      <trkpt lat="44.76533" lon="6.32758">
        <ele>1820.8</ele>
        <time>2024-08-12T10:34:11Z</time>
      </trkpt>
      <trkpt lat="44.76533" lon="6.32758">
        <ele>1820.6</ele>
        <time>2024-08-12T10:34:12Z</time>
      </trkpt>
      <trkpt lat="44.76533" lon="6.32758">
        <ele>1820.6</ele>
        <time>2024-08-12T10:34:13Z</time>
      </trkpt>
      <trkpt lat="44.76533" lon="6.32758">
        <ele>1820.8</ele>
        <time>2024-08-12T10:34:14Z</time>
      </trkpt>
      <trkpt lat="44.76533" lon="6.32758">
        <ele>1820.8</ele>
        <time>2024-08-12T10:34:15Z</time>
      </trkpt>
      <trkpt lat="44.76533" lon="6.32758">
        <ele>1821</ele>
        <time>2024-08-12T10:34:16Z</time>
      </trkpt>
      <trkpt lat="44.76533" lon="6.32758">
        <ele>1821</ele>
        <time>2024-08-12T10:34:17Z</time>
      </trkpt>
      <trkpt lat="44.76533" lon="6.32758">
        <ele>1820.8</ele>
        <time>2024-08-12T10:34:18Z</time>
      </trkpt>
      <trkpt lat="44.76533" lon="6.32758">
        <ele>1820.8</ele>
        <time>2024-08-12T10:34:19Z</time>
      </trkpt>
      <trkpt lat="44.76533" lon="6.32758">
        <ele>1820.8</ele>
        <time>2024-08-12T10:34:20Z</time>
      </trkpt>
      <trkpt lat="44.76533" lon="6.32758">
        <ele>1820.8</ele>
        <time>2024-08-12T10:34:21Z</time>
      </trkpt>
      <trkpt lat="44.76533" lon="6.32758">
        <ele>1821</ele>
        <time>2024-08-12T10:34:22Z</time>
      </trkpt>
      <trkpt lat="44.76533" lon="6.32758">
        <ele>1821.2</ele>
        <time>2024-08-12T10:34:23Z</time>
      </trkpt>
      <trkpt lat="44.76533" lon="6.32758">
        <ele>1821.4</ele>
        <time>2024-08-12T10:34:24Z</time>
      </trkpt>
      <trkpt lat="44.76533" lon="6.32758">
        <ele>1821.4</ele>
        <time>2024-08-12T10:34:25Z</time>
      </trkpt>
      <trkpt lat="44.76533" lon="6.32758">
        <ele>1821.4</ele>
        <time>2024-08-12T10:34:26Z</time>
      </trkpt>
      <trkpt lat="44.76533" lon="6.32758">
        <ele>1821.4</ele>
        <time>2024-08-12T10:34:27Z</time>
      </trkpt>
      <trkpt lat="44.76533" lon="6.32758">
        <ele>1821.4</ele>
        <time>2024-08-12T10:34:28Z</time>
      </trkpt>
      <trkpt lat="44.76533" lon="6.32758">
        <ele>1821.4</ele>
        <time>2024-08-12T10:34:29Z</time>
      </trkpt>
      <trkpt lat="44.76533" lon="6.32758">
        <ele>1821.4</ele>
        <time>2024-08-12T10:34:30Z</time>
      </trkpt>
      <trkpt lat="44.76533" lon="6.32758">
        <ele>1821.4</ele>
        <time>2024-08-12T10:34:31Z</time>
      </trkpt>
      <trkpt lat="44.76533" lon="6.32758">
        <ele>1821.2</ele>
        <time>2024-08-12T10:34:32Z</time>
      </trkpt>
      <trkpt lat="44.76533" lon="6.32758">
        <ele>1821.2</ele>
        <time>2024-08-12T10:34:33Z</time>
      </trkpt>
      <trkpt lat="44.76533" lon="6.32758">
        <ele>1821</ele>
        <time>2024-08-12T10:34:34Z</time>
      </trkpt>
      <trkpt lat="44.76533" lon="6.32758">
        <ele>1820.8</ele>
        <time>2024-08-12T10:34:35Z</time>
      </trkpt>
      <trkpt lat="44.76533" lon="6.32758">
        <ele>1820.8</ele>
        <time>2024-08-12T10:34:36Z</time>
      </trkpt>
      <trkpt lat="44.76533" lon="6.32758">
        <ele>1820.6</ele>
        <time>2024-08-12T10:34:37Z</time>
      </trkpt>
      <trkpt lat="44.76533" lon="6.32758">
        <ele>1820.6</ele>
        <time>2024-08-12T10:34:38Z</time>
      </trkpt>
      <trkpt lat="44.76533" lon="6.32758">
        <ele>1820.8</ele>
        <time>2024-08-12T10:34:39Z</time>
      </trkpt>
      <trkpt lat="44.76533" lon="6.32758">
        <ele>1820.8</ele>
        <time>2024-08-12T10:34:40Z</time>
      </trkpt>
      <trkpt lat="44.76533" lon="6.32758">
        <ele>1820.8</ele>
        <time>2024-08-12T10:34:41Z</time>
      </trkpt>
      <trkpt lat="44.76533" lon="6.32758">
        <ele>1820.8</ele>
        <time>2024-08-12T10:34:42Z</time>
      </trkpt>
      <trkpt lat="44.76533" lon="6.32758">
        <ele>1820.8</ele>
        <time>2024-08-12T10:34:43Z</time>
      </trkpt>
      <trkpt lat="44.76533" lon="6.32758">
        <ele>1820.8</ele>
        <time>2024-08-12T10:34:44Z</time>
      </trkpt>
      <trkpt lat="44.76533" lon="6.32758">
        <ele>1820.8</ele>
        <time>2024-08-12T10:34:45Z</time>
      </trkpt>
      <trkpt lat="44.76533" lon="6.32758">
        <ele>1820.6</ele>
        <time>2024-08-12T10:34:46Z</time>
      </trkpt>
      <trkpt lat="44.76533" lon="6.32758">
        <ele>1820.6</ele>
        <time>2024-08-12T10:34:47Z</time>
      </trkpt>
      <trkpt lat="44.76533" lon="6.32758">
        <ele>1820.8</ele>
        <time>2024-08-12T10:34:48Z</time>
      </trkpt>
      <trkpt lat="44.76533" lon="6.32758">
        <ele>1820.8</ele>
        <time>2024-08-12T10:34:49Z</time>
      </trkpt>
      <trkpt lat="44.76533" lon="6.32758">
        <ele>1820.8</ele>
        <time>2024-08-12T10:34:50Z</time>
      </trkpt>
      <trkpt lat="44.76533" lon="6.32758">
        <ele>1821</ele>
        <time>2024-08-12T10:34:51Z</time>
      </trkpt>
      <trkpt lat="44.76533" lon="6.32758">
        <ele>1821</ele>
        <time>2024-08-12T10:34:52Z</time>
      </trkpt>
      <trkpt lat="44.76533" lon="6.32758">
        <ele>1821</ele>
        <time>2024-08-12T10:34:53Z</time>
      </trkpt>
      <trkpt lat="44.76533" lon="6.32758">
        <ele>1821</ele>
        <time>2024-08-12T10:34:54Z</time>
      </trkpt>
      <trkpt lat="44.76533" lon="6.32758">
        <ele>1821</ele>
        <time>2024-08-12T10:34:55Z</time>
      </trkpt>
      <trkpt lat="44.76533" lon="6.32758">
        <ele>1821</ele>
        <time>2024-08-12T10:34:56Z</time>
      </trkpt>
      <trkpt lat="44.76533" lon="6.32758">
        <ele>1821</ele>
        <time>2024-08-12T10:34:57Z</time>
      </trkpt>
      <trkpt lat="44.76533" lon="6.32758">
        <ele>1821</ele>
        <time>2024-08-12T10:34:58Z</time>
      </trkpt>
      <trkpt lat="44.76533" lon="6.32758">
        <ele>1821</ele>
        <time>2024-08-12T10:34:59Z</time>
      </trkpt>
      <trkpt lat="44.76533" lon="6.32758">
        <ele>1821</ele>
        <time>2024-08-12T10:35:00Z</time>
      </trkpt>
      <trkpt lat="44.76533" lon="6.32758">
        <ele>1820.8</ele>
        <time>2024-08-12T10:35:01Z</time>
      </trkpt>
      <trkpt lat="44.76533" lon="6.32758">
        <ele>1820.6</ele>
        <time>2024-08-12T10:35:02Z</time>
      </trkpt>
      <trkpt lat="44.76533" lon="6.32758">
        <ele>1820.6</ele>
        <time>2024-08-12T10:35:03Z</time>
      </trkpt>
      <trkpt lat="44.76533" lon="6.32758">
        <ele>1820.6</ele>
        <time>2024-08-12T10:35:04Z</time>
      </trkpt>
      <trkpt lat="44.76533" lon="6.32758">
        <ele>1820.8</ele>
        <time>2024-08-12T10:35:05Z</time>
      </trkpt>
      <trkpt lat="44.76533" lon="6.32758">
        <ele>1820.8</ele>
        <time>2024-08-12T10:35:06Z</time>
      </trkpt>
      <trkpt lat="44.76533" lon="6.32758">
        <ele>1820.6</ele>
        <time>2024-08-12T10:35:07Z</time>
      </trkpt>
      <trkpt lat="44.76533" lon="6.32758">
        <ele>1820.6</ele>
        <time>2024-08-12T10:35:08Z</time>
      </trkpt>
      <trkpt lat="44.76533" lon="6.32758">
        <ele>1820.6</ele>
        <time>2024-08-12T10:35:09Z</time>
      </trkpt>
      <trkpt lat="44.76533" lon="6.32758">
        <ele>1820.8</ele>
        <time>2024-08-12T10:35:10Z</time>
      </trkpt>
      <trkpt lat="44.76533" lon="6.32758">
        <ele>1821.4</ele>
        <time>2024-08-12T10:35:11Z</time>
      </trkpt>
      <trkpt lat="44.76533" lon="6.32758">
        <ele>1821.4</ele>
        <time>2024-08-12T10:35:12Z</time>
      </trkpt>
      <trkpt lat="44.76533" lon="6.32758">
        <ele>1821.4</ele>
        <time>2024-08-12T10:35:13Z</time>
      </trkpt>
      <trkpt lat="44.76533" lon="6.32758">
        <ele>1821.2</ele>
        <time>2024-08-12T10:35:14Z</time>
      </trkpt>
      <trkpt lat="44.76533" lon="6.32758">
        <ele>1821.2</ele>
        <time>2024-08-12T10:35:15Z</time>
      </trkpt>
      <trkpt lat="44.76533" lon="6.32758">
        <ele>1821.2</ele>
        <time>2024-08-12T10:35:16Z</time>
      </trkpt>
      <trkpt lat="44.76533" lon="6.32758">
        <ele>1821</ele>
        <time>2024-08-12T10:35:17Z</time>
      </trkpt>
      <trkpt lat="44.76533" lon="6.32758">
        <ele>1821.2</ele>
        <time>2024-08-12T10:35:18Z</time>
      </trkpt>
      <trkpt lat="44.76533" lon="6.32758">
        <ele>1821.2</ele>
        <time>2024-08-12T10:35:19Z</time>
      </trkpt>
      <trkpt lat="44.76533" lon="6.32758">
        <ele>1821.2</ele>
        <time>2024-08-12T10:35:20Z</time>
      </trkpt>
      <trkpt lat="44.76533" lon="6.32758">
        <ele>1821.2</ele>
        <time>2024-08-12T10:35:21Z</time>
      </trkpt>
      <trkpt lat="44.76533" lon="6.32758">
        <ele>1821.2</ele>
        <time>2024-08-12T10:35:22Z</time>
      </trkpt>
      <trkpt lat="44.76533" lon="6.32758">
        <ele>1821.2</ele>
        <time>2024-08-12T10:35:23Z</time>
      </trkpt>
      <trkpt lat="44.76533" lon="6.32758">
        <ele>1821.2</ele>
        <time>2024-08-12T10:35:24Z</time>
      </trkpt>
      <trkpt lat="44.76533" lon="6.32758">
        <ele>1821.2</ele>
        <time>2024-08-12T10:35:25Z</time>
      </trkpt>
      <trkpt lat="44.76533" lon="6.32758">
        <ele>1821.2</ele>
        <time>2024-08-12T10:35:26Z</time>
      </trkpt>
      <trkpt lat="44.76533" lon="6.32758">
        <ele>1821.2</ele>
        <time>2024-08-12T10:35:27Z</time>
      </trkpt>
      <trkpt lat="44.76533" lon="6.32758">
        <ele>1821.2</ele>
        <time>2024-08-12T10:35:28Z</time>
      </trkpt>
      <trkpt lat="44.76533" lon="6.32758">
        <ele>1821.2</ele>
        <time>2024-08-12T10:35:29Z</time>
      </trkpt>
      <trkpt lat="44.76533" lon="6.32758">
        <ele>1821.2</ele>
        <time>2024-08-12T10:35:30Z</time>
      </trkpt>
      <trkpt lat="44.76533" lon="6.32758">
        <ele>1821.2</ele>
        <time>2024-08-12T10:35:31Z</time>
      </trkpt>
      <trkpt lat="44.76533" lon="6.32758">
        <ele>1821.2</ele>
        <time>2024-08-12T10:35:32Z</time>
      </trkpt>
      <trkpt lat="44.76533" lon="6.32758">
        <ele>1821.4</ele>
        <time>2024-08-12T10:35:33Z</time>
      </trkpt>
      <trkpt lat="44.76533" lon="6.32758">
        <ele>1821.4</ele>
        <time>2024-08-12T10:35:34Z</time>
      </trkpt>
      <trkpt lat="44.76533" lon="6.32758">
        <ele>1821.4</ele>
        <time>2024-08-12T10:35:35Z</time>
      </trkpt>
      <trkpt lat="44.76533" lon="6.32758">
        <ele>1821</ele>
        <time>2024-08-12T10:35:36Z</time>
      </trkpt>
      <trkpt lat="44.76533" lon="6.32758">
        <ele>1821</ele>
        <time>2024-08-12T10:35:37Z</time>
      </trkpt>
      <trkpt lat="44.76533" lon="6.32758">
        <ele>1821</ele>
        <time>2024-08-12T10:35:38Z</time>
      </trkpt>
      <trkpt lat="44.76533" lon="6.32758">
        <ele>1821</ele>
        <time>2024-08-12T10:35:39Z</time>
      </trkpt>
      <trkpt lat="44.76533" lon="6.32758">
        <ele>1821</ele>
        <time>2024-08-12T10:35:40Z</time>
      </trkpt>
      <trkpt lat="44.76533" lon="6.32758">
        <ele>1821</ele>
        <time>2024-08-12T10:35:41Z</time>
      </trkpt>
      <trkpt lat="44.76533" lon="6.32758">
        <ele>1821</ele>
        <time>2024-08-12T10:35:42Z</time>
      </trkpt>
      <trkpt lat="44.76533" lon="6.32758">
        <ele>1821.2</ele>
        <time>2024-08-12T10:35:43Z</time>
      </trkpt>
      <trkpt lat="44.76533" lon="6.32758">
        <ele>1821.4</ele>
        <time>2024-08-12T10:35:44Z</time>
      </trkpt>
      <trkpt lat="44.76533" lon="6.32758">
        <ele>1821.6</ele>
        <time>2024-08-12T10:35:45Z</time>
      </trkpt>
      <trkpt lat="44.76533" lon="6.32758">
        <ele>1821.6</ele>
        <time>2024-08-12T10:35:46Z</time>
      </trkpt>
      <trkpt lat="44.76533" lon="6.32758">
        <ele>1821.4</ele>
        <time>2024-08-12T10:35:47Z</time>
      </trkpt>
      <trkpt lat="44.76533" lon="6.32758">
        <ele>1821.4</ele>
        <time>2024-08-12T10:35:48Z</time>
      </trkpt>
      <trkpt lat="44.76533" lon="6.32758">
        <ele>1821.4</ele>
        <time>2024-08-12T10:35:49Z</time>
      </trkpt>
      <trkpt lat="44.76533" lon="6.32758">
        <ele>1821.4</ele>
        <time>2024-08-12T10:35:50Z</time>
      </trkpt>
      <trkpt lat="44.76533" lon="6.32758">
        <ele>1821.4</ele>
        <time>2024-08-12T10:35:51Z</time>
      </trkpt>
      <trkpt lat="44.76533" lon="6.32758">
        <ele>1821.4</ele>
        <time>2024-08-12T10:35:52Z</time>
      </trkpt>
      <trkpt lat="44.76533" lon="6.32758">
        <ele>1821.4</ele>
        <time>2024-08-12T10:35:53Z</time>
      </trkpt>
      <trkpt lat="44.76533" lon="6.32758">
        <ele>1821.4</ele>
        <time>2024-08-12T10:35:54Z</time>
      </trkpt>
      <trkpt lat="44.76533" lon="6.32758">
        <ele>1821.4</ele>
        <time>2024-08-12T10:35:55Z</time>
      </trkpt>
      <trkpt lat="44.76533" lon="6.32758">
        <ele>1821.4</ele>
        <time>2024-08-12T10:35:56Z</time>
      </trkpt>
      <trkpt lat="44.76533" lon="6.32758">
        <ele>1821.2</ele>
        <time>2024-08-12T10:35:57Z</time>
      </trkpt>
      <trkpt lat="44.76533" lon="6.32758">
        <ele>1821.2</ele>
        <time>2024-08-12T10:35:58Z</time>
      </trkpt>
      <trkpt lat="44.76533" lon="6.32758">
        <ele>1821.2</ele>
        <time>2024-08-12T10:35:59Z</time>
      </trkpt>
      <trkpt lat="44.76533" lon="6.32758">
        <ele>1821.2</ele>
        <time>2024-08-12T10:36:00Z</time>
      </trkpt>
      <trkpt lat="44.76533" lon="6.32758">
        <ele>1821.2</ele>
        <time>2024-08-12T10:36:01Z</time>
      </trkpt>
      <trkpt lat="44.76533" lon="6.32758">
        <ele>1821.2</ele>
        <time>2024-08-12T10:36:02Z</time>
      </trkpt>
      <trkpt lat="44.76533" lon="6.32758">
        <ele>1821.2</ele>
        <time>2024-08-12T10:36:03Z</time>
      </trkpt>
      <trkpt lat="44.76533" lon="6.32758">
        <ele>1821</ele>
        <time>2024-08-12T10:36:04Z</time>
      </trkpt>
      <trkpt lat="44.76533" lon="6.32758">
        <ele>1821</ele>
        <time>2024-08-12T10:36:05Z</time>
      </trkpt>
      <trkpt lat="44.76533" lon="6.32758">
        <ele>1821.2</ele>
        <time>2024-08-12T10:36:06Z</time>
      </trkpt>
      <trkpt lat="44.76533" lon="6.32758">
        <ele>1821.2</ele>
        <time>2024-08-12T10:36:07Z</time>
      </trkpt>
      <trkpt lat="44.76533" lon="6.32758">
        <ele>1821.6</ele>
        <time>2024-08-12T10:36:08Z</time>
      </trkpt>
      <trkpt lat="44.76533" lon="6.32758">
        <ele>1821.6</ele>
        <time>2024-08-12T10:36:09Z</time>
      </trkpt>
      <trkpt lat="44.76533" lon="6.32758">
        <ele>1821.4</ele>
        <time>2024-08-12T10:36:10Z</time>
      </trkpt>
      <trkpt lat="44.76533" lon="6.32758">
        <ele>1821.4</ele>
        <time>2024-08-12T10:36:11Z</time>
      </trkpt>
      <trkpt lat="44.76533" lon="6.32758">
        <ele>1821.6</ele>
        <time>2024-08-12T10:36:12Z</time>
      </trkpt>
      <trkpt lat="44.76533" lon="6.32758">
        <ele>1821.6</ele>
        <time>2024-08-12T10:36:13Z</time>
      </trkpt>
      <trkpt lat="44.76533" lon="6.32758">
        <ele>1821.6</ele>
        <time>2024-08-12T10:36:14Z</time>
      </trkpt>
      <trkpt lat="44.76533" lon="6.32758">
        <ele>1821.8</ele>
        <time>2024-08-12T10:36:15Z</time>
      </trkpt>
      <trkpt lat="44.76533" lon="6.32758">
        <ele>1821.8</ele>
        <time>2024-08-12T10:36:16Z</time>
      </trkpt>
      <trkpt lat="44.76533" lon="6.32758">
        <ele>1821.8</ele>
        <time>2024-08-12T10:36:17Z</time>
      </trkpt>
      <trkpt lat="44.76533" lon="6.32758">
        <ele>1821.8</ele>
        <time>2024-08-12T10:36:18Z</time>
      </trkpt>
      <trkpt lat="44.76533" lon="6.32758">
        <ele>1821.8</ele>
        <time>2024-08-12T10:36:19Z</time>
      </trkpt>
      <trkpt lat="44.76533" lon="6.32758">
        <ele>1821.8</ele>
        <time>2024-08-12T10:36:20Z</time>
      </trkpt>
      <trkpt lat="44.76533" lon="6.32758">
        <ele>1821.8</ele>
        <time>2024-08-12T10:36:21Z</time>
      </trkpt>
      <trkpt lat="44.76533" lon="6.32758">
        <ele>1821.6</ele>
        <time>2024-08-12T10:36:22Z</time>
      </trkpt>
      <trkpt lat="44.76533" lon="6.32758">
        <ele>1821.6</ele>
        <time>2024-08-12T10:36:23Z</time>
      </trkpt>
      <trkpt lat="44.76533" lon="6.32758">
        <ele>1821.4</ele>
        <time>2024-08-12T10:36:24Z</time>
      </trkpt>
      <trkpt lat="44.76533" lon="6.32758">
        <ele>1821.4</ele>
        <time>2024-08-12T10:36:25Z</time>
      </trkpt>
      <trkpt lat="44.76533" lon="6.32758">
        <ele>1821.4</ele>
        <time>2024-08-12T10:36:26Z</time>
      </trkpt>
      <trkpt lat="44.76533" lon="6.32758">
        <ele>1821.2</ele>
        <time>2024-08-12T10:36:27Z</time>
      </trkpt>
      <trkpt lat="44.76533" lon="6.32758">
        <ele>1821.2</ele>
        <time>2024-08-12T10:36:28Z</time>
      </trkpt>
      <trkpt lat="44.76533" lon="6.32758">
        <ele>1821.2</ele>
        <time>2024-08-12T10:36:29Z</time>
      </trkpt>
      <trkpt lat="44.76533" lon="6.32758">
        <ele>1821.2</ele>
        <time>2024-08-12T10:36:30Z</time>
      </trkpt>
      <trkpt lat="44.76533" lon="6.32758">
        <ele>1821.4</ele>
        <time>2024-08-12T10:36:31Z</time>
      </trkpt>
      <trkpt lat="44.76533" lon="6.32758">
        <ele>1821.4</ele>
        <time>2024-08-12T10:36:32Z</time>
      </trkpt>
      <trkpt lat="44.76533" lon="6.32758">
        <ele>1821.6</ele>
        <time>2024-08-12T10:36:33Z</time>
      </trkpt>
      <trkpt lat="44.76533" lon="6.32758">
        <ele>1821.6</ele>
        <time>2024-08-12T10:36:34Z</time>
      </trkpt>
      <trkpt lat="44.76533" lon="6.32758">
        <ele>1821.6</ele>
        <time>2024-08-12T10:36:35Z</time>
      </trkpt>
      <trkpt lat="44.76533" lon="6.32758">
        <ele>1821.6</ele>
        <time>2024-08-12T10:36:36Z</time>
      </trkpt>
      <trkpt lat="44.76533" lon="6.32758">
        <ele>1821.8</ele>
        <time>2024-08-12T10:36:37Z</time>
      </trkpt>
      <trkpt lat="44.76533" lon="6.32758">
        <ele>1821.8</ele>
        <time>2024-08-12T10:36:38Z</time>
      </trkpt>
      <trkpt lat="44.76533" lon="6.32758">
        <ele>1821.8</ele>
        <time>2024-08-12T10:36:39Z</time>
      </trkpt>
      <trkpt lat="44.76533" lon="6.32758">
        <ele>1821.8</ele>
        <time>2024-08-12T10:36:40Z</time>
      </trkpt>
      <trkpt lat="44.76533" lon="6.32758">
        <ele>1822</ele>
        <time>2024-08-12T10:36:41Z</time>
      </trkpt>
      <trkpt lat="44.76533" lon="6.32758">
        <ele>1822.2</ele>
        <time>2024-08-12T10:36:42Z</time>
      </trkpt>
      <trkpt lat="44.76533" lon="6.32758">
        <ele>1822.2</ele>
        <time>2024-08-12T10:36:43Z</time>
      </trkpt>
      <trkpt lat="44.76533" lon="6.32758">
        <ele>1822.2</ele>
        <time>2024-08-12T10:36:44Z</time>
      </trkpt>
      <trkpt lat="44.76533" lon="6.32758">
        <ele>1822.2</ele>
        <time>2024-08-12T10:36:45Z</time>
      </trkpt>
      <trkpt lat="44.76533" lon="6.32758">
        <ele>1822.2</ele>
        <time>2024-08-12T10:36:46Z</time>
      </trkpt>
      <trkpt lat="44.76533" lon="6.32758">
        <ele>1822.2</ele>
        <time>2024-08-12T10:36:47Z</time>
      </trkpt>
      <trkpt lat="44.76533" lon="6.32758">
        <ele>1822.2</ele>
        <time>2024-08-12T10:36:48Z</time>
      </trkpt>
      <trkpt lat="44.76533" lon="6.32758">
        <ele>1822.2</ele>
        <time>2024-08-12T10:36:49Z</time>
      </trkpt>
      <trkpt lat="44.76533" lon="6.32758">
        <ele>1822.2</ele>
        <time>2024-08-12T10:36:50Z</time>
      </trkpt>
      <trkpt lat="44.76533" lon="6.32758">
        <ele>1822.2</ele>
        <time>2024-08-12T10:36:51Z</time>
      </trkpt>
      <trkpt lat="44.76533" lon="6.32758">
        <ele>1822.4</ele>
        <time>2024-08-12T10:36:52Z</time>
      </trkpt>
      <trkpt lat="44.76533" lon="6.32758">
        <ele>1822.4</ele>
        <time>2024-08-12T10:36:53Z</time>
      </trkpt>
      <trkpt lat="44.76533" lon="6.32758">
        <ele>1822.4</ele>
        <time>2024-08-12T10:36:54Z</time>
      </trkpt>
      <trkpt lat="44.76533" lon="6.32758">
        <ele>1822.4</ele>
        <time>2024-08-12T10:36:55Z</time>
      </trkpt>
      <trkpt lat="44.76533" lon="6.32758">
        <ele>1822.4</ele>
        <time>2024-08-12T10:36:56Z</time>
      </trkpt>
      <trkpt lat="44.76533" lon="6.32758">
        <ele>1822.6</ele>
        <time>2024-08-12T10:36:57Z</time>
      </trkpt>
      <trkpt lat="44.76533" lon="6.32758">
        <ele>1822.8</ele>
        <time>2024-08-12T10:36:58Z</time>
      </trkpt>
      <trkpt lat="44.76533" lon="6.32758">
        <ele>1822.8</ele>
        <time>2024-08-12T10:36:59Z</time>
      </trkpt>
      <trkpt lat="44.76533" lon="6.32758">
        <ele>1822.8</ele>
        <time>2024-08-12T10:37:00Z</time>
      </trkpt>
      <trkpt lat="44.76533" lon="6.32758">
        <ele>1822.8</ele>
        <time>2024-08-12T10:37:01Z</time>
      </trkpt>
      <trkpt lat="44.76533" lon="6.32758">
        <ele>1823.2</ele>
        <time>2024-08-12T10:37:02Z</time>
      </trkpt>
      <trkpt lat="44.76533" lon="6.32758">
        <ele>1823.2</ele>
        <time>2024-08-12T10:37:03Z</time>
      </trkpt>
      <trkpt lat="44.76533" lon="6.32758">
        <ele>1823.2</ele>
        <time>2024-08-12T10:37:04Z</time>
      </trkpt>
      <trkpt lat="44.76533" lon="6.32758">
        <ele>1823.2</ele>
        <time>2024-08-12T10:37:05Z</time>
      </trkpt>
      <trkpt lat="44.76533" lon="6.32758">
        <ele>1823.2</ele>
        <time>2024-08-12T10:37:06Z</time>
      </trkpt>
      <trkpt lat="44.76533" lon="6.32758">
        <ele>1823</ele>
        <time>2024-08-12T10:37:07Z</time>
      </trkpt>
      <trkpt lat="44.76533" lon="6.32758">
        <ele>1823</ele>
        <time>2024-08-12T10:37:08Z</time>
      </trkpt>
      <trkpt lat="44.76533" lon="6.32758">
        <ele>1823.2</ele>
        <time>2024-08-12T10:37:09Z</time>
      </trkpt>
      <trkpt lat="44.76533" lon="6.32758">
        <ele>1823.4</ele>
        <time>2024-08-12T10:37:10Z</time>
      </trkpt>
      <trkpt lat="44.76533" lon="6.32758">
        <ele>1823.4</ele>
        <time>2024-08-12T10:37:11Z</time>
      </trkpt>
      <trkpt lat="44.76533" lon="6.32758">
        <ele>1823.2</ele>
        <time>2024-08-12T10:37:12Z</time>
      </trkpt>
      <trkpt lat="44.76533" lon="6.32758">
        <ele>1823.2</ele>
        <time>2024-08-12T10:37:13Z</time>
      </trkpt>
      <trkpt lat="44.76533" lon="6.32758">
        <ele>1823.2</ele>
        <time>2024-08-12T10:37:14Z</time>
      </trkpt>
      <trkpt lat="44.76533" lon="6.32758">
        <ele>1823.4</ele>
        <time>2024-08-12T10:37:15Z</time>
      </trkpt>
      <trkpt lat="44.76533" lon="6.32758">
        <ele>1823.6</ele>
        <time>2024-08-12T10:37:16Z</time>
      </trkpt>
      <trkpt lat="44.76533" lon="6.32758">
        <ele>1823.6</ele>
        <time>2024-08-12T10:37:17Z</time>
      </trkpt>
      <trkpt lat="44.76533" lon="6.32758">
        <ele>1823.4</ele>
        <time>2024-08-12T10:37:18Z</time>
      </trkpt>
      <trkpt lat="44.76533" lon="6.32758">
        <ele>1823.4</ele>
        <time>2024-08-12T10:37:19Z</time>
      </trkpt>
      <trkpt lat="44.76533" lon="6.32758">
        <ele>1823.4</ele>
        <time>2024-08-12T10:37:20Z</time>
      </trkpt>
      <trkpt lat="44.76533" lon="6.32758">
        <ele>1823.4</ele>
        <time>2024-08-12T10:37:21Z</time>
      </trkpt>
      <trkpt lat="44.76533" lon="6.32758">
        <ele>1823.6</ele>
        <time>2024-08-12T10:37:22Z</time>
      </trkpt>
      <trkpt lat="44.76533" lon="6.32758">
        <ele>1823.6</ele>
        <time>2024-08-12T10:37:23Z</time>
      </trkpt>
      <trkpt lat="44.76533" lon="6.32758">
        <ele>1823.6</ele>
        <time>2024-08-12T10:37:24Z</time>
      </trkpt>
      <trkpt lat="44.76533" lon="6.32758">
        <ele>1823.6</ele>
        <time>2024-08-12T10:37:25Z</time>
      </trkpt>
      <trkpt lat="44.76533" lon="6.32758">
        <ele>1823.6</ele>
        <time>2024-08-12T10:37:26Z</time>
      </trkpt>
      <trkpt lat="44.76533" lon="6.32758">
        <ele>1823.6</ele>
        <time>2024-08-12T10:37:27Z</time>
      </trkpt>
      <trkpt lat="44.76533" lon="6.32758">
        <ele>1823.6</ele>
        <time>2024-08-12T10:37:28Z</time>
      </trkpt>
      <trkpt lat="44.76533" lon="6.32758">
        <ele>1824</ele>
        <time>2024-08-12T10:37:29Z</time>
      </trkpt>
      <trkpt lat="44.76533" lon="6.32758">
        <ele>1824</ele>
        <time>2024-08-12T10:37:30Z</time>
      </trkpt>
      <trkpt lat="44.76533" lon="6.32758">
        <ele>1824</ele>
        <time>2024-08-12T10:37:31Z</time>
      </trkpt>
      <trkpt lat="44.76533" lon="6.32758">
        <ele>1824</ele>
        <time>2024-08-12T10:37:32Z</time>
      </trkpt>
      <trkpt lat="44.76533" lon="6.32758">
        <ele>1823.8</ele>
        <time>2024-08-12T10:37:33Z</time>
      </trkpt>
      <trkpt lat="44.76533" lon="6.32758">
        <ele>1823.6</ele>
        <time>2024-08-12T10:37:34Z</time>
      </trkpt>
      <trkpt lat="44.76533" lon="6.32758">
        <ele>1823.4</ele>
        <time>2024-08-12T10:37:35Z</time>
      </trkpt>
      <trkpt lat="44.76533" lon="6.32758">
        <ele>1823.4</ele>
        <time>2024-08-12T10:37:36Z</time>
      </trkpt>
      <trkpt lat="44.76533" lon="6.32758">
        <ele>1823.4</ele>
        <time>2024-08-12T10:37:37Z</time>
      </trkpt>
      <trkpt lat="44.76533" lon="6.32758">
        <ele>1823.4</ele>
        <time>2024-08-12T10:37:38Z</time>
      </trkpt>
      <trkpt lat="44.76533" lon="6.32758">
        <ele>1823.2</ele>
        <time>2024-08-12T10:37:39Z</time>
      </trkpt>
      <trkpt lat="44.76533" lon="6.32758">
        <ele>1823</ele>
        <time>2024-08-12T10:37:40Z</time>
      </trkpt>
      <trkpt lat="44.76533" lon="6.32758">
        <ele>1823</ele>
        <time>2024-08-12T10:37:41Z</time>
      </trkpt>
      <trkpt lat="44.76533" lon="6.32758">
        <ele>1822.6</ele>
        <time>2024-08-12T10:37:42Z</time>
      </trkpt>
      <trkpt lat="44.76533" lon="6.32758">
        <ele>1822.6</ele>
        <time>2024-08-12T10:37:43Z</time>
      </trkpt>
      <trkpt lat="44.76533" lon="6.32758">
        <ele>1822.6</ele>
        <time>2024-08-12T10:37:44Z</time>
      </trkpt>
      <trkpt lat="44.76533" lon="6.32758">
        <ele>1822.6</ele>
        <time>2024-08-12T10:37:45Z</time>
      </trkpt>
      <trkpt lat="44.76533" lon="6.32758">
        <ele>1822.4</ele>
        <time>2024-08-12T10:37:46Z</time>
      </trkpt>
      <trkpt lat="44.76533" lon="6.32758">
        <ele>1822</ele>
        <time>2024-08-12T10:37:47Z</time>
      </trkpt>
      <trkpt lat="44.76533" lon="6.32758">
        <ele>1821.8</ele>
        <time>2024-08-12T10:37:48Z</time>
      </trkpt>
      <trkpt lat="44.76533" lon="6.32758">
        <ele>1821.8</ele>
        <time>2024-08-12T10:37:49Z</time>
      </trkpt>
      <trkpt lat="44.76533" lon="6.32758">
        <ele>1821.8</ele>
        <time>2024-08-12T10:37:50Z</time>
      </trkpt>
      <trkpt lat="44.76533" lon="6.32758">
        <ele>1821.8</ele>
        <time>2024-08-12T10:37:51Z</time>
      </trkpt>
      <trkpt lat="44.76533" lon="6.32758">
        <ele>1821.8</ele>
        <time>2024-08-12T10:37:52Z</time>
      </trkpt>
      <trkpt lat="44.76533" lon="6.32758">
        <ele>1821.2</ele>
        <time>2024-08-12T10:37:53Z</time>
      </trkpt>
      <trkpt lat="44.76533" lon="6.32758">
        <ele>1821.2</ele>
        <time>2024-08-12T10:37:54Z</time>
      </trkpt>
      <trkpt lat="44.76533" lon="6.32758">
        <ele>1821.4</ele>
        <time>2024-08-12T10:37:55Z</time>
      </trkpt>
      <trkpt lat="44.76533" lon="6.32758">
        <ele>1821.4</ele>
        <time>2024-08-12T10:37:56Z</time>
      </trkpt>
      <trkpt lat="44.76533" lon="6.32758">
        <ele>1821.2</ele>
        <time>2024-08-12T10:37:57Z</time>
      </trkpt>
      <trkpt lat="44.76533" lon="6.32758">
        <ele>1821.2</ele>
        <time>2024-08-12T10:37:58Z</time>
      </trkpt>
      <trkpt lat="44.76533" lon="6.32758">
        <ele>1821.4</ele>
        <time>2024-08-12T10:37:59Z</time>
      </trkpt>
      <trkpt lat="44.76533" lon="6.32758">
        <ele>1821.4</ele>
        <time>2024-08-12T10:38:00Z</time>
      </trkpt>
      <trkpt lat="44.76533" lon="6.32758">
        <ele>1821.2</ele>
        <time>2024-08-12T10:38:01Z</time>
      </trkpt>
      <trkpt lat="44.76533" lon="6.32758">
        <ele>1820.8</ele>
        <time>2024-08-12T10:38:02Z</time>
      </trkpt>
      <trkpt lat="44.76533" lon="6.32758">
        <ele>1820.8</ele>
        <time>2024-08-12T10:38:03Z</time>
      </trkpt>
      <trkpt lat="44.76533" lon="6.32758">
        <ele>1820.8</ele>
        <time>2024-08-12T10:38:04Z</time>
      </trkpt>
      <trkpt lat="44.76533" lon="6.32758">
        <ele>1820.8</ele>
        <time>2024-08-12T10:38:05Z</time>
      </trkpt>
      <trkpt lat="44.76533" lon="6.32758">
        <ele>1820.6</ele>
        <time>2024-08-12T10:38:06Z</time>
      </trkpt>
      <trkpt lat="44.76533" lon="6.32758">
        <ele>1820.6</ele>
        <time>2024-08-12T10:38:07Z</time>
      </trkpt>
      <trkpt lat="44.76533" lon="6.32758">
        <ele>1820.6</ele>
        <time>2024-08-12T10:38:08Z</time>
      </trkpt>
      <trkpt lat="44.76533" lon="6.32758">
        <ele>1820.8</ele>
        <time>2024-08-12T10:38:09Z</time>
      </trkpt>
      <trkpt lat="44.76533" lon="6.32758">
        <ele>1820.8</ele>
        <time>2024-08-12T10:38:10Z</time>
      </trkpt>
      <trkpt lat="44.76533" lon="6.32758">
        <ele>1820.8</ele>
        <time>2024-08-12T10:38:11Z</time>
      </trkpt>
      <trkpt lat="44.76533" lon="6.32758">
        <ele>1820.8</ele>
        <time>2024-08-12T10:38:12Z</time>
      </trkpt>
      <trkpt lat="44.76533" lon="6.32758">
        <ele>1820.6</ele>
        <time>2024-08-12T10:38:13Z</time>
      </trkpt>
      <trkpt lat="44.76533" lon="6.32758">
        <ele>1820.6</ele>
        <time>2024-08-12T10:38:14Z</time>
      </trkpt>
      <trkpt lat="44.76533" lon="6.32758">
        <ele>1820.6</ele>
        <time>2024-08-12T10:38:15Z</time>
      </trkpt>
      <trkpt lat="44.76533" lon="6.32758">
        <ele>1820.6</ele>
        <time>2024-08-12T10:38:16Z</time>
      </trkpt>
      <trkpt lat="44.76533" lon="6.32758">
        <ele>1820.6</ele>
        <time>2024-08-12T10:38:17Z</time>
      </trkpt>
      <trkpt lat="44.76533" lon="6.32758">
        <ele>1820.4</ele>
        <time>2024-08-12T10:38:18Z</time>
      </trkpt>
      <trkpt lat="44.76533" lon="6.32758">
        <ele>1820.4</ele>
        <time>2024-08-12T10:38:19Z</time>
      </trkpt>
      <trkpt lat="44.76533" lon="6.32758">
        <ele>1820.4</ele>
        <time>2024-08-12T10:38:20Z</time>
      </trkpt>
      <trkpt lat="44.76533" lon="6.32758">
        <ele>1820.4</ele>
        <time>2024-08-12T10:38:21Z</time>
      </trkpt>
      <trkpt lat="44.76533" lon="6.32758">
        <ele>1820.4</ele>
        <time>2024-08-12T10:38:22Z</time>
      </trkpt>
      <trkpt lat="44.76533" lon="6.32758">
        <ele>1820.4</ele>
        <time>2024-08-12T10:38:23Z</time>
      </trkpt>
      <trkpt lat="44.76533" lon="6.32758">
        <ele>1820.4</ele>
        <time>2024-08-12T10:38:24Z</time>
      </trkpt>
      <trkpt lat="44.76533" lon="6.32758">
        <ele>1820.4</ele>
        <time>2024-08-12T10:38:25Z</time>
      </trkpt>
      <trkpt lat="44.76533" lon="6.32758">
        <ele>1820.6</ele>
        <time>2024-08-12T10:38:26Z</time>
      </trkpt>
      <trkpt lat="44.76533" lon="6.32758">
        <ele>1820.6</ele>
        <time>2024-08-12T10:38:27Z</time>
      </trkpt>
      <trkpt lat="44.76533" lon="6.32758">
        <ele>1820.6</ele>
        <time>2024-08-12T10:38:28Z</time>
      </trkpt>
      <trkpt lat="44.76533" lon="6.32758">
        <ele>1820.6</ele>
        <time>2024-08-12T10:38:29Z</time>
      </trkpt>
      <trkpt lat="44.76533" lon="6.32758">
        <ele>1820.4</ele>
        <time>2024-08-12T10:38:30Z</time>
      </trkpt>
      <trkpt lat="44.76533" lon="6.32758">
        <ele>1820.4</ele>
        <time>2024-08-12T10:38:31Z</time>
      </trkpt>
      <trkpt lat="44.76533" lon="6.32758">
        <ele>1820.8</ele>
        <time>2024-08-12T10:38:32Z</time>
      </trkpt>
      <trkpt lat="44.76533" lon="6.32758">
        <ele>1820.8</ele>
        <time>2024-08-12T10:38:33Z</time>
      </trkpt>
      <trkpt lat="44.76533" lon="6.32758">
        <ele>1820.4</ele>
        <time>2024-08-12T10:38:34Z</time>
      </trkpt>
      <trkpt lat="44.76533" lon="6.32758">
        <ele>1820.4</ele>
        <time>2024-08-12T10:38:35Z</time>
      </trkpt>
      <trkpt lat="44.76533" lon="6.32758">
        <ele>1820.4</ele>
        <time>2024-08-12T10:38:36Z</time>
      </trkpt>
      <trkpt lat="44.76533" lon="6.32758">
        <ele>1820.6</ele>
        <time>2024-08-12T10:38:37Z</time>
      </trkpt>
      <trkpt lat="44.76533" lon="6.32758">
        <ele>1820.6</ele>
        <time>2024-08-12T10:38:38Z</time>
      </trkpt>
      <trkpt lat="44.76533" lon="6.32758">
        <ele>1820.6</ele>
        <time>2024-08-12T10:38:39Z</time>
      </trkpt>
      <trkpt lat="44.76533" lon="6.32758">
        <ele>1820.4</ele>
        <time>2024-08-12T10:38:40Z</time>
      </trkpt>
      <trkpt lat="44.76533" lon="6.32758">
        <ele>1820.4</ele>
        <time>2024-08-12T10:38:41Z</time>
      </trkpt>
      <trkpt lat="44.76533" lon="6.32758">
        <ele>1820.4</ele>
        <time>2024-08-12T10:38:42Z</time>
      </trkpt>
      <trkpt lat="44.76533" lon="6.32758">
        <ele>1820.4</ele>
        <time>2024-08-12T10:38:43Z</time>
      </trkpt>
      <trkpt lat="44.76533" lon="6.32758">
        <ele>1820.4</ele>
        <time>2024-08-12T10:38:44Z</time>
      </trkpt>
      <trkpt lat="44.76533" lon="6.32758">
        <ele>1820.4</ele>
        <time>2024-08-12T10:38:45Z</time>
      </trkpt>
      <trkpt lat="44.76533" lon="6.32758">
        <ele>1820.2</ele>
        <time>2024-08-12T10:38:46Z</time>
      </trkpt>
      <trkpt lat="44.76533" lon="6.32758">
        <ele>1820.2</ele>
        <time>2024-08-12T10:38:47Z</time>
      </trkpt>
      <trkpt lat="44.76533" lon="6.32758">
        <ele>1820.2</ele>
        <time>2024-08-12T10:38:48Z</time>
      </trkpt>
      <trkpt lat="44.76533" lon="6.32758">
        <ele>1820.4</ele>
        <time>2024-08-12T10:38:49Z</time>
      </trkpt>
      <trkpt lat="44.76533" lon="6.32758">
        <ele>1820.4</ele>
        <time>2024-08-12T10:38:50Z</time>
      </trkpt>
      <trkpt lat="44.76533" lon="6.32758">
        <ele>1820.4</ele>
        <time>2024-08-12T10:38:51Z</time>
      </trkpt>
      <trkpt lat="44.76533" lon="6.32758">
        <ele>1820.4</ele>
        <time>2024-08-12T10:38:52Z</time>
      </trkpt>
      <trkpt lat="44.76533" lon="6.32758">
        <ele>1820.4</ele>
        <time>2024-08-12T10:38:53Z</time>
      </trkpt>
      <trkpt lat="44.76533" lon="6.32758">
        <ele>1820.4</ele>
        <time>2024-08-12T10:38:54Z</time>
      </trkpt>
      <trkpt lat="44.76533" lon="6.32758">
        <ele>1820.2</ele>
        <time>2024-08-12T10:38:55Z</time>
      </trkpt>
      <trkpt lat="44.76533" lon="6.32758">
        <ele>1820.2</ele>
        <time>2024-08-12T10:38:56Z</time>
      </trkpt>
      <trkpt lat="44.76533" lon="6.32758">
        <ele>1820.2</ele>
        <time>2024-08-12T10:38:57Z</time>
      </trkpt>
      <trkpt lat="44.76533" lon="6.32758">
        <ele>1820.2</ele>
        <time>2024-08-12T10:38:58Z</time>
      </trkpt>
      <trkpt lat="44.76533" lon="6.32758">
        <ele>1820</ele>
        <time>2024-08-12T10:38:59Z</time>
      </trkpt>
      <trkpt lat="44.76533" lon="6.32758">
        <ele>1820</ele>
        <time>2024-08-12T10:39:00Z</time>
      </trkpt>
      <trkpt lat="44.76533" lon="6.32758">
        <ele>1820</ele>
        <time>2024-08-12T10:39:01Z</time>
      </trkpt>
      <trkpt lat="44.76533" lon="6.32758">
        <ele>1820</ele>
        <time>2024-08-12T10:39:02Z</time>
      </trkpt>
      <trkpt lat="44.76533" lon="6.32758">
        <ele>1820</ele>
        <time>2024-08-12T10:39:03Z</time>
      </trkpt>
      <trkpt lat="44.76533" lon="6.32758">
        <ele>1820</ele>
        <time>2024-08-12T10:39:04Z</time>
      </trkpt>
      <trkpt lat="44.76533" lon="6.32758">
        <ele>1820</ele>
        <time>2024-08-12T10:39:05Z</time>
      </trkpt>
      <trkpt lat="44.76533" lon="6.32758">
        <ele>1820</ele>
        <time>2024-08-12T10:39:06Z</time>
      </trkpt>
      <trkpt lat="44.76533" lon="6.32758">
        <ele>1820</ele>
        <time>2024-08-12T10:39:07Z</time>
      </trkpt>
      <trkpt lat="44.76533" lon="6.32758">
        <ele>1820</ele>
        <time>2024-08-12T10:39:08Z</time>
      </trkpt>
      <trkpt lat="44.76533" lon="6.32758">
        <ele>1820</ele>
        <time>2024-08-12T10:39:09Z</time>
      </trkpt>
      <trkpt lat="44.76533" lon="6.32758">
        <ele>1820.2</ele>
        <time>2024-08-12T10:39:10Z</time>
      </trkpt>
      <trkpt lat="44.76533" lon="6.32758">
        <ele>1820.2</ele>
        <time>2024-08-12T10:39:11Z</time>
      </trkpt>
      <trkpt lat="44.76533" lon="6.32758">
        <ele>1820.2</ele>
        <time>2024-08-12T10:39:12Z</time>
      </trkpt>
      <trkpt lat="44.76533" lon="6.32758">
        <ele>1820.4</ele>
        <time>2024-08-12T10:39:13Z</time>
      </trkpt>
      <trkpt lat="44.76533" lon="6.32758">
        <ele>1820.4</ele>
        <time>2024-08-12T10:39:14Z</time>
      </trkpt>
      <trkpt lat="44.76533" lon="6.32758">
        <ele>1820.6</ele>
        <time>2024-08-12T10:39:15Z</time>
      </trkpt>
      <trkpt lat="44.76533" lon="6.32758">
        <ele>1820.6</ele>
        <time>2024-08-12T10:39:16Z</time>
      </trkpt>
      <trkpt lat="44.76533" lon="6.32758">
        <ele>1820.6</ele>
        <time>2024-08-12T10:39:17Z</time>
      </trkpt>
      <trkpt lat="44.76533" lon="6.32758">
        <ele>1820.6</ele>
        <time>2024-08-12T10:39:18Z</time>
      </trkpt>
      <trkpt lat="44.76533" lon="6.32758">
        <ele>1820.6</ele>
        <time>2024-08-12T10:39:19Z</time>
      </trkpt>
      <trkpt lat="44.76533" lon="6.32758">
        <ele>1820.6</ele>
        <time>2024-08-12T10:39:20Z</time>
      </trkpt>
      <trkpt lat="44.76533" lon="6.32758">
        <ele>1820.4</ele>
        <time>2024-08-12T10:39:21Z</time>
      </trkpt>
      <trkpt lat="44.76533" lon="6.32758">
        <ele>1820.6</ele>
        <time>2024-08-12T10:39:22Z</time>
      </trkpt>
      <trkpt lat="44.76533" lon="6.32758">
        <ele>1820.6</ele>
        <time>2024-08-12T10:39:23Z</time>
      </trkpt>
      <trkpt lat="44.76533" lon="6.32758">
        <ele>1820.6</ele>
        <time>2024-08-12T10:39:24Z</time>
      </trkpt>
      <trkpt lat="44.76533" lon="6.32758">
        <ele>1820.6</ele>
        <time>2024-08-12T10:39:25Z</time>
      </trkpt>
      <trkpt lat="44.76533" lon="6.32758">
        <ele>1820.6</ele>
        <time>2024-08-12T10:39:26Z</time>
      </trkpt>
      <trkpt lat="44.76533" lon="6.32758">
        <ele>1820.6</ele>
        <time>2024-08-12T10:39:27Z</time>
      </trkpt>
      <trkpt lat="44.76533" lon="6.32758">
        <ele>1820.6</ele>
        <time>2024-08-12T10:39:28Z</time>
      </trkpt>
      <trkpt lat="44.76533" lon="6.32758">
        <ele>1820.6</ele>
        <time>2024-08-12T10:39:29Z</time>
      </trkpt>
      <trkpt lat="44.76533" lon="6.32758">
        <ele>1820.6</ele>
        <time>2024-08-12T10:39:30Z</time>
      </trkpt>
      <trkpt lat="44.76533" lon="6.32758">
        <ele>1820.6</ele>
        <time>2024-08-12T10:39:31Z</time>
      </trkpt>
      <trkpt lat="44.76533" lon="6.32758">
        <ele>1820.6</ele>
        <time>2024-08-12T10:39:32Z</time>
      </trkpt>
      <trkpt lat="44.76533" lon="6.32758">
        <ele>1820.2</ele>
        <time>2024-08-12T10:39:33Z</time>
      </trkpt>
      <trkpt lat="44.76533" lon="6.32758">
        <ele>1820.2</ele>
        <time>2024-08-12T10:39:34Z</time>
      </trkpt>
      <trkpt lat="44.76533" lon="6.32758">
        <ele>1820</ele>
        <time>2024-08-12T10:39:35Z</time>
      </trkpt>
      <trkpt lat="44.76533" lon="6.32758">
        <ele>1820</ele>
        <time>2024-08-12T10:39:36Z</time>
      </trkpt>
      <trkpt lat="44.76533" lon="6.32758">
        <ele>1820.4</ele>
        <time>2024-08-12T10:39:37Z</time>
      </trkpt>
      <trkpt lat="44.76533" lon="6.32758">
        <ele>1820.4</ele>
        <time>2024-08-12T10:39:38Z</time>
      </trkpt>
      <trkpt lat="44.76533" lon="6.32758">
        <ele>1820.2</ele>
        <time>2024-08-12T10:39:39Z</time>
      </trkpt>
      <trkpt lat="44.76533" lon="6.32758">
        <ele>1820</ele>
        <time>2024-08-12T10:39:40Z</time>
      </trkpt>
      <trkpt lat="44.76533" lon="6.32758">
        <ele>1820</ele>
        <time>2024-08-12T10:39:41Z</time>
      </trkpt>
      <trkpt lat="44.76533" lon="6.32758">
        <ele>1820</ele>
        <time>2024-08-12T10:39:42Z</time>
      </trkpt>
      <trkpt lat="44.76533" lon="6.32758">
        <ele>1820.2</ele>
        <time>2024-08-12T10:39:43Z</time>
      </trkpt>
      <trkpt lat="44.76533" lon="6.32758">
        <ele>1820.2</ele>
        <time>2024-08-12T10:39:44Z</time>
      </trkpt>
      <trkpt lat="44.76533" lon="6.32758">
        <ele>1820.2</ele>
        <time>2024-08-12T10:39:45Z</time>
      </trkpt>
      <trkpt lat="44.76533" lon="6.32758">
        <ele>1820.2</ele>
        <time>2024-08-12T10:39:46Z</time>
      </trkpt>
      <trkpt lat="44.76533" lon="6.32758">
        <ele>1820.2</ele>
        <time>2024-08-12T10:39:47Z</time>
      </trkpt>
      <trkpt lat="44.76533" lon="6.32758">
        <ele>1820.2</ele>
        <time>2024-08-12T10:39:48Z</time>
      </trkpt>
      <trkpt lat="44.76533" lon="6.32758">
        <ele>1820.2</ele>
        <time>2024-08-12T10:39:49Z</time>
      </trkpt>
      <trkpt lat="44.76533" lon="6.32758">
        <ele>1820.2</ele>
        <time>2024-08-12T10:39:50Z</time>
      </trkpt>
      <trkpt lat="44.76533" lon="6.32758">
        <ele>1820.2</ele>
        <time>2024-08-12T10:39:51Z</time>
      </trkpt>
      <trkpt lat="44.76533" lon="6.32758">
        <ele>1820</ele>
        <time>2024-08-12T10:39:52Z</time>
      </trkpt>
      <trkpt lat="44.76533" lon="6.32758">
        <ele>1820</ele>
        <time>2024-08-12T10:39:53Z</time>
      </trkpt>
      <trkpt lat="44.76533" lon="6.32758">
        <ele>1820</ele>
        <time>2024-08-12T10:39:54Z</time>
      </trkpt>
      <trkpt lat="44.76533" lon="6.32758">
        <ele>1820</ele>
        <time>2024-08-12T10:39:55Z</time>
      </trkpt>
      <trkpt lat="44.76533" lon="6.32758">
        <ele>1820</ele>
        <time>2024-08-12T10:39:56Z</time>
      </trkpt>
      <trkpt lat="44.76533" lon="6.32758">
        <ele>1820.2</ele>
        <time>2024-08-12T10:39:57Z</time>
      </trkpt>
      <trkpt lat="44.76533" lon="6.32758">
        <ele>1820.2</ele>
        <time>2024-08-12T10:39:58Z</time>
      </trkpt>
      <trkpt lat="44.76533" lon="6.32758">
        <ele>1820.2</ele>
        <time>2024-08-12T10:39:59Z</time>
      </trkpt>
      <trkpt lat="44.76533" lon="6.32758">
        <ele>1820.4</ele>
        <time>2024-08-12T10:40:00Z</time>
      </trkpt>
      <trkpt lat="44.76533" lon="6.32758">
        <ele>1820.4</ele>
        <time>2024-08-12T10:40:01Z</time>
      </trkpt>
      <trkpt lat="44.76533" lon="6.32758">
        <ele>1820</ele>
        <time>2024-08-12T10:40:02Z</time>
      </trkpt>
      <trkpt lat="44.76533" lon="6.32758">
        <ele>1820.2</ele>
        <time>2024-08-12T10:40:03Z</time>
      </trkpt>
      <trkpt lat="44.76533" lon="6.32758">
        <ele>1820.2</ele>
        <time>2024-08-12T10:40:04Z</time>
      </trkpt>
      <trkpt lat="44.76533" lon="6.32758">
        <ele>1820.2</ele>
        <time>2024-08-12T10:40:05Z</time>
      </trkpt>
      <trkpt lat="44.76533" lon="6.32758">
        <ele>1820.2</ele>
        <time>2024-08-12T10:40:06Z</time>
      </trkpt>
      <trkpt lat="44.76533" lon="6.32758">
        <ele>1820</ele>
        <time>2024-08-12T10:40:07Z</time>
      </trkpt>
      <trkpt lat="44.76533" lon="6.32758">
        <ele>1820</ele>
        <time>2024-08-12T10:40:08Z</time>
      </trkpt>
      <trkpt lat="44.76533" lon="6.32758">
        <ele>1819.8</ele>
        <time>2024-08-12T10:40:09Z</time>
      </trkpt>
      <trkpt lat="44.76533" lon="6.32758">
        <ele>1819.8</ele>
        <time>2024-08-12T10:40:10Z</time>
      </trkpt>
      <trkpt lat="44.76533" lon="6.32758">
        <ele>1819.8</ele>
        <time>2024-08-12T10:40:11Z</time>
      </trkpt>
      <trkpt lat="44.76533" lon="6.32758">
        <ele>1820</ele>
        <time>2024-08-12T10:40:12Z</time>
      </trkpt>
      <trkpt lat="44.76533" lon="6.32758">
        <ele>1820</ele>
        <time>2024-08-12T10:40:13Z</time>
      </trkpt>
      <trkpt lat="44.76533" lon="6.32758">
        <ele>1820.2</ele>
        <time>2024-08-12T10:40:14Z</time>
      </trkpt>
      <trkpt lat="44.76533" lon="6.32758">
        <ele>1820.2</ele>
        <time>2024-08-12T10:40:15Z</time>
      </trkpt>
      <trkpt lat="44.76533" lon="6.32758">
        <ele>1820.2</ele>
        <time>2024-08-12T10:40:16Z</time>
      </trkpt>
      <trkpt lat="44.76533" lon="6.32758">
        <ele>1820.2</ele>
        <time>2024-08-12T10:40:17Z</time>
      </trkpt>
      <trkpt lat="44.76533" lon="6.32758">
        <ele>1820.2</ele>
        <time>2024-08-12T10:40:18Z</time>
      </trkpt>
      <trkpt lat="44.76533" lon="6.32758">
        <ele>1820.2</ele>
        <time>2024-08-12T10:40:19Z</time>
      </trkpt>
      <trkpt lat="44.76533" lon="6.32758">
        <ele>1820</ele>
        <time>2024-08-12T10:40:20Z</time>
      </trkpt>
      <trkpt lat="44.76533" lon="6.32758">
        <ele>1820</ele>
        <time>2024-08-12T10:40:21Z</time>
      </trkpt>
      <trkpt lat="44.76533" lon="6.32758">
        <ele>1820</ele>
        <time>2024-08-12T10:40:22Z</time>
      </trkpt>
      <trkpt lat="44.76533" lon="6.32758">
        <ele>1820.2</ele>
        <time>2024-08-12T10:40:23Z</time>
      </trkpt>
      <trkpt lat="44.76533" lon="6.32758">
        <ele>1820.2</ele>
        <time>2024-08-12T10:40:24Z</time>
      </trkpt>
      <trkpt lat="44.76533" lon="6.32758">
        <ele>1820</ele>
        <time>2024-08-12T10:40:25Z</time>
      </trkpt>
      <trkpt lat="44.76533" lon="6.32758">
        <ele>1820</ele>
        <time>2024-08-12T10:40:26Z</time>
      </trkpt>
      <trkpt lat="44.76533" lon="6.32758">
        <ele>1820.2</ele>
        <time>2024-08-12T10:40:27Z</time>
      </trkpt>
      <trkpt lat="44.76533" lon="6.32758">
        <ele>1820.2</ele>
        <time>2024-08-12T10:40:28Z</time>
      </trkpt>
      <trkpt lat="44.76533" lon="6.32758">
        <ele>1820.2</ele>
        <time>2024-08-12T10:40:29Z</time>
      </trkpt>
      <trkpt lat="44.76533" lon="6.32758">
        <ele>1820.2</ele>
        <time>2024-08-12T10:40:30Z</time>
      </trkpt>
      <trkpt lat="44.76533" lon="6.32758">
        <ele>1820.2</ele>
        <time>2024-08-12T10:40:31Z</time>
      </trkpt>
      <trkpt lat="44.76533" lon="6.32758">
        <ele>1820.2</ele>
        <time>2024-08-12T10:40:32Z</time>
      </trkpt>
      <trkpt lat="44.76533" lon="6.32758">
        <ele>1820.2</ele>
        <time>2024-08-12T10:40:33Z</time>
      </trkpt>
      <trkpt lat="44.76533" lon="6.32758">
        <ele>1820.2</ele>
        <time>2024-08-12T10:40:34Z</time>
      </trkpt>
      <trkpt lat="44.76533" lon="6.32758">
        <ele>1820.4</ele>
        <time>2024-08-12T10:40:35Z</time>
      </trkpt>
      <trkpt lat="44.76533" lon="6.32758">
        <ele>1820.4</ele>
        <time>2024-08-12T10:40:36Z</time>
      </trkpt>
      <trkpt lat="44.76533" lon="6.32758">
        <ele>1820.4</ele>
        <time>2024-08-12T10:40:37Z</time>
      </trkpt>
      <trkpt lat="44.76533" lon="6.32758">
        <ele>1820.4</ele>
        <time>2024-08-12T10:40:38Z</time>
      </trkpt>
      <trkpt lat="44.76533" lon="6.32758">
        <ele>1820.4</ele>
        <time>2024-08-12T10:40:39Z</time>
      </trkpt>
      <trkpt lat="44.76533" lon="6.32758">
        <ele>1820.4</ele>
        <time>2024-08-12T10:40:40Z</time>
      </trkpt>
      <trkpt lat="44.76533" lon="6.32758">
        <ele>1820.4</ele>
        <time>2024-08-12T10:40:41Z</time>
      </trkpt>
      <trkpt lat="44.76533" lon="6.32758">
        <ele>1820.6</ele>
        <time>2024-08-12T10:40:42Z</time>
      </trkpt>
      <trkpt lat="44.76533" lon="6.32758">
        <ele>1820.6</ele>
        <time>2024-08-12T10:40:43Z</time>
      </trkpt>
      <trkpt lat="44.76533" lon="6.32758">
        <ele>1820.6</ele>
        <time>2024-08-12T10:40:44Z</time>
      </trkpt>
      <trkpt lat="44.76533" lon="6.32758">
        <ele>1820.6</ele>
        <time>2024-08-12T10:40:45Z</time>
      </trkpt>
      <trkpt lat="44.76533" lon="6.32758">
        <ele>1820.6</ele>
        <time>2024-08-12T10:40:46Z</time>
      </trkpt>
      <trkpt lat="44.76533" lon="6.32758">
        <ele>1820.6</ele>
        <time>2024-08-12T10:40:47Z</time>
      </trkpt>
      <trkpt lat="44.76533" lon="6.32758">
        <ele>1820.6</ele>
        <time>2024-08-12T10:40:48Z</time>
      </trkpt>
      <trkpt lat="44.76533" lon="6.32758">
        <ele>1820.2</ele>
        <time>2024-08-12T10:40:49Z</time>
      </trkpt>
      <trkpt lat="44.76533" lon="6.32758">
        <ele>1820.2</ele>
        <time>2024-08-12T10:40:50Z</time>
      </trkpt>
      <trkpt lat="44.76533" lon="6.32758">
        <ele>1820.4</ele>
        <time>2024-08-12T10:40:51Z</time>
      </trkpt>
      <trkpt lat="44.76533" lon="6.32758">
        <ele>1820.6</ele>
        <time>2024-08-12T10:40:52Z</time>
      </trkpt>
      <trkpt lat="44.76533" lon="6.32758">
        <ele>1820.6</ele>
        <time>2024-08-12T10:40:53Z</time>
      </trkpt>
      <trkpt lat="44.76533" lon="6.32758">
        <ele>1820.6</ele>
        <time>2024-08-12T10:40:54Z</time>
      </trkpt>
      <trkpt lat="44.76533" lon="6.32758">
        <ele>1820.6</ele>
        <time>2024-08-12T10:40:55Z</time>
      </trkpt>
      <trkpt lat="44.76533" lon="6.32758">
        <ele>1820.6</ele>
        <time>2024-08-12T10:40:56Z</time>
      </trkpt>
      <trkpt lat="44.76533" lon="6.32758">
        <ele>1820.6</ele>
        <time>2024-08-12T10:40:57Z</time>
      </trkpt>
      <trkpt lat="44.76533" lon="6.32758">
        <ele>1820.6</ele>
        <time>2024-08-12T10:40:58Z</time>
      </trkpt>
      <trkpt lat="44.76533" lon="6.32758">
        <ele>1820.6</ele>
        <time>2024-08-12T10:40:59Z</time>
      </trkpt>
      <trkpt lat="44.76533" lon="6.32758">
        <ele>1820.6</ele>
        <time>2024-08-12T10:41:00Z</time>
      </trkpt>
      <trkpt lat="44.76533" lon="6.32758">
        <ele>1820.6</ele>
        <time>2024-08-12T10:41:01Z</time>
      </trkpt>
      <trkpt lat="44.76533" lon="6.32758">
        <ele>1820.6</ele>
        <time>2024-08-12T10:41:02Z</time>
      </trkpt>
      <trkpt lat="44.76533" lon="6.32758">
        <ele>1820.6</ele>
        <time>2024-08-12T10:41:03Z</time>
      </trkpt>
      <trkpt lat="44.76533" lon="6.32758">
        <ele>1820.6</ele>
        <time>2024-08-12T10:41:04Z</time>
      </trkpt>
      <trkpt lat="44.76533" lon="6.32758">
        <ele>1820.8</ele>
        <time>2024-08-12T10:41:05Z</time>
      </trkpt>
      <trkpt lat="44.76533" lon="6.32758">
        <ele>1820.8</ele>
        <time>2024-08-12T10:41:06Z</time>
      </trkpt>
      <trkpt lat="44.76533" lon="6.32758">
        <ele>1820.8</ele>
        <time>2024-08-12T10:41:07Z</time>
      </trkpt>
      <trkpt lat="44.76533" lon="6.32758">
        <ele>1820.6</ele>
        <time>2024-08-12T10:41:08Z</time>
      </trkpt>
      <trkpt lat="44.76533" lon="6.32758">
        <ele>1820.6</ele>
        <time>2024-08-12T10:41:09Z</time>
      </trkpt>
      <trkpt lat="44.76533" lon="6.32758">
        <ele>1820.6</ele>
        <time>2024-08-12T10:41:10Z</time>
      </trkpt>
      <trkpt lat="44.76533" lon="6.32758">
        <ele>1820.6</ele>
        <time>2024-08-12T10:41:11Z</time>
      </trkpt>
      <trkpt lat="44.76533" lon="6.32758">
        <ele>1820.6</ele>
        <time>2024-08-12T10:41:12Z</time>
      </trkpt>
      <trkpt lat="44.76533" lon="6.32758">
        <ele>1820.6</ele>
        <time>2024-08-12T10:41:13Z</time>
      </trkpt>
      <trkpt lat="44.76533" lon="6.32758">
        <ele>1820.6</ele>
        <time>2024-08-12T10:41:14Z</time>
      </trkpt>
      <trkpt lat="44.76533" lon="6.32758">
        <ele>1820.6</ele>
        <time>2024-08-12T10:41:15Z</time>
      </trkpt>
      <trkpt lat="44.76533" lon="6.32758">
        <ele>1820.6</ele>
        <time>2024-08-12T10:41:16Z</time>
      </trkpt>
      <trkpt lat="44.76533" lon="6.32758">
        <ele>1820.6</ele>
        <time>2024-08-12T10:41:17Z</time>
      </trkpt>
      <trkpt lat="44.76533" lon="6.32758">
        <ele>1820.6</ele>
        <time>2024-08-12T10:41:18Z</time>
      </trkpt>
      <trkpt lat="44.76533" lon="6.32758">
        <ele>1820.4</ele>
        <time>2024-08-12T10:41:19Z</time>
      </trkpt>
      <trkpt lat="44.76533" lon="6.32758">
        <ele>1820.4</ele>
        <time>2024-08-12T10:41:20Z</time>
      </trkpt>
      <trkpt lat="44.76533" lon="6.32758">
        <ele>1820.2</ele>
        <time>2024-08-12T10:41:21Z</time>
      </trkpt>
      <trkpt lat="44.76533" lon="6.32758">
        <ele>1820.2</ele>
        <time>2024-08-12T10:41:22Z</time>
      </trkpt>
      <trkpt lat="44.76533" lon="6.32758">
        <ele>1820.4</ele>
        <time>2024-08-12T10:41:23Z</time>
      </trkpt>
      <trkpt lat="44.76533" lon="6.32758">
        <ele>1820.8</ele>
        <time>2024-08-12T10:41:24Z</time>
      </trkpt>
      <trkpt lat="44.76533" lon="6.32758">
        <ele>1820.8</ele>
        <time>2024-08-12T10:41:25Z</time>
      </trkpt>
      <trkpt lat="44.76533" lon="6.32758">
        <ele>1820.8</ele>
        <time>2024-08-12T10:41:26Z</time>
      </trkpt>
      <trkpt lat="44.76533" lon="6.32758">
        <ele>1821</ele>
        <time>2024-08-12T10:41:27Z</time>
      </trkpt>
      <trkpt lat="44.76533" lon="6.32758">
        <ele>1821</ele>
        <time>2024-08-12T10:41:28Z</time>
      </trkpt>
      <trkpt lat="44.76533" lon="6.32758">
        <ele>1821</ele>
        <time>2024-08-12T10:41:29Z</time>
      </trkpt>
      <trkpt lat="44.76533" lon="6.32758">
        <ele>1821</ele>
        <time>2024-08-12T10:41:30Z</time>
      </trkpt>
      <trkpt lat="44.76533" lon="6.32758">
        <ele>1820.8</ele>
        <time>2024-08-12T10:41:31Z</time>
      </trkpt>
      <trkpt lat="44.76533" lon="6.32758">
        <ele>1820.6</ele>
        <time>2024-08-12T10:41:32Z</time>
      </trkpt>
      <trkpt lat="44.76533" lon="6.32758">
        <ele>1820.6</ele>
        <time>2024-08-12T10:41:33Z</time>
      </trkpt>
      <trkpt lat="44.76533" lon="6.32758">
        <ele>1820.6</ele>
        <time>2024-08-12T10:41:34Z</time>
      </trkpt>
      <trkpt lat="44.76533" lon="6.32758">
        <ele>1820.8</ele>
        <time>2024-08-12T10:41:35Z</time>
      </trkpt>
      <trkpt lat="44.76533" lon="6.32758">
        <ele>1820.8</ele>
        <time>2024-08-12T10:41:36Z</time>
      </trkpt>
      <trkpt lat="44.76533" lon="6.32758">
        <ele>1820.8</ele>
        <time>2024-08-12T10:41:37Z</time>
      </trkpt>
      <trkpt lat="44.76533" lon="6.32758">
        <ele>1820.6</ele>
        <time>2024-08-12T10:41:38Z</time>
      </trkpt>
      <trkpt lat="44.76533" lon="6.32758">
        <ele>1820.6</ele>
        <time>2024-08-12T10:41:39Z</time>
      </trkpt>
      <trkpt lat="44.76533" lon="6.32758">
        <ele>1820.8</ele>
        <time>2024-08-12T10:41:40Z</time>
      </trkpt>
      <trkpt lat="44.76533" lon="6.32758">
        <ele>1820.8</ele>
        <time>2024-08-12T10:41:41Z</time>
      </trkpt>
      <trkpt lat="44.76533" lon="6.32758">
        <ele>1820.8</ele>
        <time>2024-08-12T10:41:42Z</time>
      </trkpt>
      <trkpt lat="44.76533" lon="6.32758">
        <ele>1820.6</ele>
        <time>2024-08-12T10:41:43Z</time>
      </trkpt>
      <trkpt lat="44.76533" lon="6.32758">
        <ele>1820.6</ele>
        <time>2024-08-12T10:41:44Z</time>
      </trkpt>
      <trkpt lat="44.76533" lon="6.32758">
        <ele>1820.6</ele>
        <time>2024-08-12T10:41:45Z</time>
      </trkpt>
      <trkpt lat="44.76533" lon="6.32758">
        <ele>1820.8</ele>
        <time>2024-08-12T10:41:46Z</time>
      </trkpt>
      <trkpt lat="44.76533" lon="6.32758">
        <ele>1820.8</ele>
        <time>2024-08-12T10:41:47Z</time>
      </trkpt>
      <trkpt lat="44.76533" lon="6.32758">
        <ele>1820.8</ele>
        <time>2024-08-12T10:41:48Z</time>
      </trkpt>
      <trkpt lat="44.76533" lon="6.32758">
        <ele>1820.8</ele>
        <time>2024-08-12T10:41:49Z</time>
      </trkpt>
      <trkpt lat="44.76533" lon="6.32758">
        <ele>1820.8</ele>
        <time>2024-08-12T10:41:50Z</time>
      </trkpt>
      <trkpt lat="44.76533" lon="6.32758">
        <ele>1820.8</ele>
        <time>2024-08-12T10:41:51Z</time>
      </trkpt>
      <trkpt lat="44.76533" lon="6.32758">
        <ele>1820.8</ele>
        <time>2024-08-12T10:41:52Z</time>
      </trkpt>
      <trkpt lat="44.76533" lon="6.32758">
        <ele>1821</ele>
        <time>2024-08-12T10:41:53Z</time>
      </trkpt>
      <trkpt lat="44.76533" lon="6.32758">
        <ele>1821</ele>
        <time>2024-08-12T10:41:54Z</time>
      </trkpt>
      <trkpt lat="44.76533" lon="6.32758">
        <ele>1821</ele>
        <time>2024-08-12T10:41:55Z</time>
      </trkpt>
      <trkpt lat="44.76533" lon="6.32758">
        <ele>1820.8</ele>
        <time>2024-08-12T10:41:56Z</time>
      </trkpt>
      <trkpt lat="44.76533" lon="6.32758">
        <ele>1820.8</ele>
        <time>2024-08-12T10:41:57Z</time>
      </trkpt>
      <trkpt lat="44.76533" lon="6.32758">
        <ele>1821</ele>
        <time>2024-08-12T10:41:58Z</time>
      </trkpt>
      <trkpt lat="44.76533" lon="6.32758">
        <ele>1821</ele>
        <time>2024-08-12T10:41:59Z</time>
      </trkpt>
      <trkpt lat="44.76533" lon="6.32758">
        <ele>1821</ele>
        <time>2024-08-12T10:42:00Z</time>
      </trkpt>
      <trkpt lat="44.76533" lon="6.32758">
        <ele>1821</ele>
        <time>2024-08-12T10:42:01Z</time>
      </trkpt>
      <trkpt lat="44.76533" lon="6.32758">
        <ele>1821</ele>
        <time>2024-08-12T10:42:02Z</time>
      </trkpt>
      <trkpt lat="44.76533" lon="6.32758">
        <ele>1821</ele>
        <time>2024-08-12T10:42:03Z</time>
      </trkpt>
      <trkpt lat="44.76533" lon="6.32758">
        <ele>1821.2</ele>
        <time>2024-08-12T10:42:04Z</time>
      </trkpt>
      <trkpt lat="44.76533" lon="6.32758">
        <ele>1821.4</ele>
        <time>2024-08-12T10:42:05Z</time>
      </trkpt>
      <trkpt lat="44.76533" lon="6.32758">
        <ele>1821.4</ele>
        <time>2024-08-12T10:42:06Z</time>
      </trkpt>
      <trkpt lat="44.76533" lon="6.32758">
        <ele>1821.4</ele>
        <time>2024-08-12T10:42:07Z</time>
      </trkpt>
      <trkpt lat="44.76533" lon="6.32758">
        <ele>1821.4</ele>
        <time>2024-08-12T10:42:08Z</time>
      </trkpt>
      <trkpt lat="44.76533" lon="6.32758">
        <ele>1821.4</ele>
        <time>2024-08-12T10:42:09Z</time>
      </trkpt>
      <trkpt lat="44.76533" lon="6.32758">
        <ele>1821.4</ele>
        <time>2024-08-12T10:42:10Z</time>
      </trkpt>
      <trkpt lat="44.76533" lon="6.32758">
        <ele>1821.4</ele>
        <time>2024-08-12T10:42:11Z</time>
      </trkpt>
      <trkpt lat="44.76533" lon="6.32758">
        <ele>1821.4</ele>
        <time>2024-08-12T10:42:12Z</time>
      </trkpt>
      <trkpt lat="44.76533" lon="6.32758">
        <ele>1821.4</ele>
        <time>2024-08-12T10:42:13Z</time>
      </trkpt>
      <trkpt lat="44.76533" lon="6.32758">
        <ele>1821.4</ele>
        <time>2024-08-12T10:42:14Z</time>
      </trkpt>
      <trkpt lat="44.76533" lon="6.32758">
        <ele>1821.6</ele>
        <time>2024-08-12T10:42:15Z</time>
      </trkpt>
      <trkpt lat="44.76533" lon="6.32758">
        <ele>1821.6</ele>
        <time>2024-08-12T10:42:16Z</time>
      </trkpt>
      <trkpt lat="44.76533" lon="6.32758">
        <ele>1821.4</ele>
        <time>2024-08-12T10:42:17Z</time>
      </trkpt>
      <trkpt lat="44.76533" lon="6.32758">
        <ele>1821.4</ele>
        <time>2024-08-12T10:42:18Z</time>
      </trkpt>
      <trkpt lat="44.76533" lon="6.32758">
        <ele>1821.6</ele>
        <time>2024-08-12T10:42:19Z</time>
      </trkpt>
      <trkpt lat="44.76533" lon="6.32758">
        <ele>1821.6</ele>
        <time>2024-08-12T10:42:20Z</time>
      </trkpt>
      <trkpt lat="44.76533" lon="6.32758">
        <ele>1821.4</ele>
        <time>2024-08-12T10:42:21Z</time>
      </trkpt>
      <trkpt lat="44.76533" lon="6.32758">
        <ele>1821.4</ele>
        <time>2024-08-12T10:42:22Z</time>
      </trkpt>
      <trkpt lat="44.76533" lon="6.32758">
        <ele>1821.4</ele>
        <time>2024-08-12T10:42:23Z</time>
      </trkpt>
      <trkpt lat="44.76533" lon="6.32758">
        <ele>1821.4</ele>
        <time>2024-08-12T10:42:24Z</time>
      </trkpt>
      <trkpt lat="44.76533" lon="6.32758">
        <ele>1821.2</ele>
        <time>2024-08-12T10:42:25Z</time>
      </trkpt>
      <trkpt lat="44.76533" lon="6.32758">
        <ele>1821.2</ele>
        <time>2024-08-12T10:42:26Z</time>
      </trkpt>
      <trkpt lat="44.76533" lon="6.32758">
        <ele>1821.4</ele>
        <time>2024-08-12T10:42:27Z</time>
      </trkpt>
      <trkpt lat="44.76533" lon="6.32758">
        <ele>1821.4</ele>
        <time>2024-08-12T10:42:28Z</time>
      </trkpt>
      <trkpt lat="44.76533" lon="6.32758">
        <ele>1821.2</ele>
        <time>2024-08-12T10:42:29Z</time>
      </trkpt>
      <trkpt lat="44.76533" lon="6.32758">
        <ele>1820.8</ele>
        <time>2024-08-12T10:42:30Z</time>
      </trkpt>
      <trkpt lat="44.76533" lon="6.32758">
        <ele>1820.8</ele>
        <time>2024-08-12T10:42:31Z</time>
      </trkpt>
      <trkpt lat="44.76533" lon="6.32758">
        <ele>1821</ele>
        <time>2024-08-12T10:42:32Z</time>
      </trkpt>
      <trkpt lat="44.76533" lon="6.32758">
        <ele>1821.2</ele>
        <time>2024-08-12T10:42:33Z</time>
      </trkpt>
      <trkpt lat="44.76533" lon="6.32758">
        <ele>1821.2</ele>
        <time>2024-08-12T10:42:34Z</time>
      </trkpt>
      <trkpt lat="44.76533" lon="6.32758">
        <ele>1821</ele>
        <time>2024-08-12T10:42:35Z</time>
      </trkpt>
      <trkpt lat="44.76533" lon="6.32758">
        <ele>1821</ele>
        <time>2024-08-12T10:42:36Z</time>
      </trkpt>
      <trkpt lat="44.76533" lon="6.32758">
        <ele>1821</ele>
        <time>2024-08-12T10:42:37Z</time>
      </trkpt>
      <trkpt lat="44.76533" lon="6.32758">
        <ele>1821.2</ele>
        <time>2024-08-12T10:42:38Z</time>
      </trkpt>
      <trkpt lat="44.76533" lon="6.32758">
        <ele>1821.2</ele>
        <time>2024-08-12T10:42:39Z</time>
      </trkpt>
      <trkpt lat="44.76533" lon="6.32758">
        <ele>1821.2</ele>
        <time>2024-08-12T10:42:40Z</time>
      </trkpt>
      <trkpt lat="44.76533" lon="6.32758">
        <ele>1821.2</ele>
        <time>2024-08-12T10:42:41Z</time>
      </trkpt>
      <trkpt lat="44.76533" lon="6.32758">
        <ele>1821.2</ele>
        <time>2024-08-12T10:42:42Z</time>
      </trkpt>
      <trkpt lat="44.76533" lon="6.32758">
        <ele>1821.2</ele>
        <time>2024-08-12T10:42:43Z</time>
      </trkpt>
      <trkpt lat="44.76533" lon="6.32758">
        <ele>1821.2</ele>
        <time>2024-08-12T10:42:44Z</time>
      </trkpt>
      <trkpt lat="44.76533" lon="6.32758">
        <ele>1821.2</ele>
        <time>2024-08-12T10:42:45Z</time>
      </trkpt>
      <trkpt lat="44.76533" lon="6.32758">
        <ele>1821.2</ele>
        <time>2024-08-12T10:42:46Z</time>
      </trkpt>
      <trkpt lat="44.76533" lon="6.32758">
        <ele>1821.2</ele>
        <time>2024-08-12T10:42:47Z</time>
      </trkpt>
      <trkpt lat="44.76533" lon="6.32758">
        <ele>1821</ele>
        <time>2024-08-12T10:42:48Z</time>
      </trkpt>
      <trkpt lat="44.76533" lon="6.32758">
        <ele>1821</ele>
        <time>2024-08-12T10:42:49Z</time>
      </trkpt>
      <trkpt lat="44.76533" lon="6.32758">
        <ele>1821.2</ele>
        <time>2024-08-12T10:42:50Z</time>
      </trkpt>
      <trkpt lat="44.76533" lon="6.32758">
        <ele>1821.2</ele>
        <time>2024-08-12T10:42:51Z</time>
      </trkpt>
      <trkpt lat="44.76533" lon="6.32758">
        <ele>1821.2</ele>
        <time>2024-08-12T10:42:52Z</time>
      </trkpt>
      <trkpt lat="44.76533" lon="6.32758">
        <ele>1821.2</ele>
        <time>2024-08-12T10:42:53Z</time>
      </trkpt>
      <trkpt lat="44.76533" lon="6.32758">
        <ele>1821.2</ele>
        <time>2024-08-12T10:42:54Z</time>
      </trkpt>
      <trkpt lat="44.76533" lon="6.32758">
        <ele>1821.2</ele>
        <time>2024-08-12T10:42:55Z</time>
      </trkpt>
      <trkpt lat="44.76533" lon="6.32758">
        <ele>1821.2</ele>
        <time>2024-08-12T10:42:56Z</time>
      </trkpt>
      <trkpt lat="44.76533" lon="6.32758">
        <ele>1821.2</ele>
        <time>2024-08-12T10:42:57Z</time>
      </trkpt>
      <trkpt lat="44.76533" lon="6.32758">
        <ele>1821.2</ele>
        <time>2024-08-12T10:42:58Z</time>
      </trkpt>
      <trkpt lat="44.76533" lon="6.32758">
        <ele>1821.2</ele>
        <time>2024-08-12T10:42:59Z</time>
      </trkpt>
      <trkpt lat="44.76533" lon="6.32758">
        <ele>1821.2</ele>
        <time>2024-08-12T10:43:00Z</time>
      </trkpt>
      <trkpt lat="44.76533" lon="6.32758">
        <ele>1821.2</ele>
        <time>2024-08-12T10:43:01Z</time>
      </trkpt>
      <trkpt lat="44.76533" lon="6.32758">
        <ele>1821.2</ele>
        <time>2024-08-12T10:43:02Z</time>
      </trkpt>
      <trkpt lat="44.76533" lon="6.32758">
        <ele>1821.2</ele>
        <time>2024-08-12T10:43:03Z</time>
      </trkpt>
      <trkpt lat="44.76533" lon="6.32758">
        <ele>1821.2</ele>
        <time>2024-08-12T10:43:04Z</time>
      </trkpt>
      <trkpt lat="44.76533" lon="6.32758">
        <ele>1821.2</ele>
        <time>2024-08-12T10:43:05Z</time>
      </trkpt>
      <trkpt lat="44.76533" lon="6.32758">
        <ele>1821.2</ele>
        <time>2024-08-12T10:43:06Z</time>
      </trkpt>
      <trkpt lat="44.76533" lon="6.32758">
        <ele>1821</ele>
        <time>2024-08-12T10:43:07Z</time>
      </trkpt>
      <trkpt lat="44.76533" lon="6.32758">
        <ele>1821</ele>
        <time>2024-08-12T10:43:08Z</time>
      </trkpt>
      <trkpt lat="44.76533" lon="6.32758">
        <ele>1821</ele>
        <time>2024-08-12T10:43:09Z</time>
      </trkpt>
      <trkpt lat="44.76533" lon="6.32758">
        <ele>1821</ele>
        <time>2024-08-12T10:43:10Z</time>
      </trkpt>
      <trkpt lat="44.76533" lon="6.32758">
        <ele>1821</ele>
        <time>2024-08-12T10:43:11Z</time>
      </trkpt>
      <trkpt lat="44.76533" lon="6.32758">
        <ele>1821</ele>
        <time>2024-08-12T10:43:12Z</time>
      </trkpt>
      <trkpt lat="44.76533" lon="6.32758">
        <ele>1821.2</ele>
        <time>2024-08-12T10:43:13Z</time>
      </trkpt>
      <trkpt lat="44.76533" lon="6.32758">
        <ele>1821.2</ele>
        <time>2024-08-12T10:43:14Z</time>
      </trkpt>
      <trkpt lat="44.76533" lon="6.32758">
        <ele>1821.2</ele>
        <time>2024-08-12T10:43:15Z</time>
      </trkpt>
      <trkpt lat="44.76533" lon="6.32758">
        <ele>1821.2</ele>
        <time>2024-08-12T10:43:16Z</time>
      </trkpt>
      <trkpt lat="44.76533" lon="6.32758">
        <ele>1821.2</ele>
        <time>2024-08-12T10:43:17Z</time>
      </trkpt>
      <trkpt lat="44.76533" lon="6.32758">
        <ele>1821.2</ele>
        <time>2024-08-12T10:43:18Z</time>
      </trkpt>
      <trkpt lat="44.76533" lon="6.32758">
        <ele>1821</ele>
        <time>2024-08-12T10:43:19Z</time>
      </trkpt>
      <trkpt lat="44.76533" lon="6.32758">
        <ele>1821</ele>
        <time>2024-08-12T10:43:20Z</time>
      </trkpt>
      <trkpt lat="44.76533" lon="6.32758">
        <ele>1820.8</ele>
        <time>2024-08-12T10:43:21Z</time>
      </trkpt>
      <trkpt lat="44.76533" lon="6.32758">
        <ele>1820.8</ele>
        <time>2024-08-12T10:43:22Z</time>
      </trkpt>
      <trkpt lat="44.76533" lon="6.32758">
        <ele>1820.8</ele>
        <time>2024-08-12T10:43:23Z</time>
      </trkpt>
      <trkpt lat="44.76533" lon="6.32758">
        <ele>1820.8</ele>
        <time>2024-08-12T10:43:24Z</time>
      </trkpt>
      <trkpt lat="44.76533" lon="6.32758">
        <ele>1820.8</ele>
        <time>2024-08-12T10:43:25Z</time>
      </trkpt>
      <trkpt lat="44.76533" lon="6.32758">
        <ele>1820.8</ele>
        <time>2024-08-12T10:43:26Z</time>
      </trkpt>
      <trkpt lat="44.76533" lon="6.32758">
        <ele>1820.8</ele>
        <time>2024-08-12T10:43:27Z</time>
      </trkpt>
      <trkpt lat="44.76533" lon="6.32758">
        <ele>1821</ele>
        <time>2024-08-12T10:43:28Z</time>
      </trkpt>
      <trkpt lat="44.76533" lon="6.32758">
        <ele>1821</ele>
        <time>2024-08-12T10:43:29Z</time>
      </trkpt>
      <trkpt lat="44.76533" lon="6.32758">
        <ele>1820.8</ele>
        <time>2024-08-12T10:43:30Z</time>
      </trkpt>
      <trkpt lat="44.76533" lon="6.32758">
        <ele>1820.8</ele>
        <time>2024-08-12T10:43:31Z</time>
      </trkpt>
      <trkpt lat="44.76533" lon="6.32758">
        <ele>1821</ele>
        <time>2024-08-12T10:43:32Z</time>
      </trkpt>
      <trkpt lat="44.76533" lon="6.32758">
        <ele>1821</ele>
        <time>2024-08-12T10:43:33Z</time>
      </trkpt>
      <trkpt lat="44.76533" lon="6.32758">
        <ele>1820.8</ele>
        <time>2024-08-12T10:43:34Z</time>
      </trkpt>
      <trkpt lat="44.76533" lon="6.32758">
        <ele>1820.8</ele>
        <time>2024-08-12T10:43:35Z</time>
      </trkpt>
      <trkpt lat="44.76533" lon="6.32758">
        <ele>1820.8</ele>
        <time>2024-08-12T10:43:36Z</time>
      </trkpt>
      <trkpt lat="44.76533" lon="6.32758">
        <ele>1820.8</ele>
        <time>2024-08-12T10:43:37Z</time>
      </trkpt>
      <trkpt lat="44.76533" lon="6.32758">
        <ele>1820.8</ele>
        <time>2024-08-12T10:43:38Z</time>
      </trkpt>
      <trkpt lat="44.76533" lon="6.32758">
        <ele>1820.8</ele>
        <time>2024-08-12T10:43:39Z</time>
      </trkpt>
      <trkpt lat="44.76533" lon="6.32758">
        <ele>1820.8</ele>
        <time>2024-08-12T10:43:40Z</time>
      </trkpt>
      <trkpt lat="44.76533" lon="6.32758">
        <ele>1820.8</ele>
        <time>2024-08-12T10:43:41Z</time>
      </trkpt>
      <trkpt lat="44.76533" lon="6.32758">
        <ele>1820.8</ele>
        <time>2024-08-12T10:43:42Z</time>
      </trkpt>
      <trkpt lat="44.76533" lon="6.32758">
        <ele>1820.8</ele>
        <time>2024-08-12T10:43:43Z</time>
      </trkpt>
      <trkpt lat="44.76533" lon="6.32758">
        <ele>1820.8</ele>
        <time>2024-08-12T10:43:44Z</time>
      </trkpt>
      <trkpt lat="44.76533" lon="6.32758">
        <ele>1820.8</ele>
        <time>2024-08-12T10:43:45Z</time>
      </trkpt>
      <trkpt lat="44.76533" lon="6.32758">
        <ele>1821</ele>
        <time>2024-08-12T10:43:46Z</time>
      </trkpt>
      <trkpt lat="44.76533" lon="6.32758">
        <ele>1821</ele>
        <time>2024-08-12T10:43:47Z</time>
      </trkpt>
      <trkpt lat="44.76533" lon="6.32758">
        <ele>1820.8</ele>
        <time>2024-08-12T10:43:48Z</time>
      </trkpt>
      <trkpt lat="44.76533" lon="6.32758">
        <ele>1820.8</ele>
        <time>2024-08-12T10:43:49Z</time>
      </trkpt>
      <trkpt lat="44.76533" lon="6.32758">
        <ele>1820.8</ele>
        <time>2024-08-12T10:43:50Z</time>
      </trkpt>
      <trkpt lat="44.76533" lon="6.32758">
        <ele>1820.8</ele>
        <time>2024-08-12T10:43:51Z</time>
      </trkpt>
      <trkpt lat="44.76533" lon="6.32758">
        <ele>1821</ele>
        <time>2024-08-12T10:43:52Z</time>
      </trkpt>
      <trkpt lat="44.76533" lon="6.32758">
        <ele>1821</ele>
        <time>2024-08-12T10:43:53Z</time>
      </trkpt>
      <trkpt lat="44.76533" lon="6.32758">
        <ele>1821.2</ele>
        <time>2024-08-12T10:43:54Z</time>
      </trkpt>
      <trkpt lat="44.76533" lon="6.32758">
        <ele>1821.2</ele>
        <time>2024-08-12T10:43:55Z</time>
      </trkpt>
      <trkpt lat="44.76533" lon="6.32758">
        <ele>1821</ele>
        <time>2024-08-12T10:43:56Z</time>
      </trkpt>
      <trkpt lat="44.76533" lon="6.32758">
        <ele>1821</ele>
        <time>2024-08-12T10:43:57Z</time>
      </trkpt>
      <trkpt lat="44.76533" lon="6.32758">
        <ele>1821</ele>
        <time>2024-08-12T10:43:58Z</time>
      </trkpt>
      <trkpt lat="44.76533" lon="6.32758">
        <ele>1821</ele>
        <time>2024-08-12T10:43:59Z</time>
      </trkpt>
      <trkpt lat="44.76533" lon="6.32758">
        <ele>1821</ele>
        <time>2024-08-12T10:44:00Z</time>
      </trkpt>
      <trkpt lat="44.76533" lon="6.32758">
        <ele>1821</ele>
        <time>2024-08-12T10:44:01Z</time>
      </trkpt>
      <trkpt lat="44.76533" lon="6.32758">
        <ele>1821</ele>
        <time>2024-08-12T10:44:02Z</time>
      </trkpt>
      <trkpt lat="44.76533" lon="6.32758">
        <ele>1821</ele>
        <time>2024-08-12T10:44:03Z</time>
      </trkpt>
      <trkpt lat="44.76533" lon="6.32758">
        <ele>1821</ele>
        <time>2024-08-12T10:44:04Z</time>
      </trkpt>
      <trkpt lat="44.76533" lon="6.32758">
        <ele>1821</ele>
        <time>2024-08-12T10:44:05Z</time>
      </trkpt>
      <trkpt lat="44.76533" lon="6.32758">
        <ele>1821</ele>
        <time>2024-08-12T10:44:06Z</time>
      </trkpt>
      <trkpt lat="44.76533" lon="6.32758">
        <ele>1820.8</ele>
        <time>2024-08-12T10:44:07Z</time>
      </trkpt>
      <trkpt lat="44.76533" lon="6.32758">
        <ele>1820.8</ele>
        <time>2024-08-12T10:44:08Z</time>
      </trkpt>
      <trkpt lat="44.76533" lon="6.32758">
        <ele>1820.8</ele>
        <time>2024-08-12T10:44:09Z</time>
      </trkpt>
      <trkpt lat="44.76533" lon="6.32758">
        <ele>1820.8</ele>
        <time>2024-08-12T10:44:10Z</time>
      </trkpt>
      <trkpt lat="44.76533" lon="6.32758">
        <ele>1820.8</ele>
        <time>2024-08-12T10:44:11Z</time>
      </trkpt>
      <trkpt lat="44.76533" lon="6.32758">
        <ele>1821</ele>
        <time>2024-08-12T10:44:12Z</time>
      </trkpt>
      <trkpt lat="44.76533" lon="6.32758">
        <ele>1821.2</ele>
        <time>2024-08-12T10:44:13Z</time>
      </trkpt>
      <trkpt lat="44.76533" lon="6.32758">
        <ele>1821.2</ele>
        <time>2024-08-12T10:44:14Z</time>
      </trkpt>
      <trkpt lat="44.76533" lon="6.32758">
        <ele>1821.2</ele>
        <time>2024-08-12T10:44:15Z</time>
      </trkpt>
      <trkpt lat="44.76533" lon="6.32758">
        <ele>1821.2</ele>
        <time>2024-08-12T10:44:16Z</time>
      </trkpt>
      <trkpt lat="44.76533" lon="6.32758">
        <ele>1821.2</ele>
        <time>2024-08-12T10:44:17Z</time>
      </trkpt>
      <trkpt lat="44.76533" lon="6.32758">
        <ele>1821</ele>
        <time>2024-08-12T10:44:18Z</time>
      </trkpt>
      <trkpt lat="44.76533" lon="6.32758">
        <ele>1821</ele>
        <time>2024-08-12T10:44:19Z</time>
      </trkpt>
      <trkpt lat="44.76533" lon="6.32758">
        <ele>1821</ele>
        <time>2024-08-12T10:44:20Z</time>
      </trkpt>
      <trkpt lat="44.76533" lon="6.32758">
        <ele>1821.2</ele>
        <time>2024-08-12T10:44:21Z</time>
      </trkpt>
      <trkpt lat="44.76533" lon="6.32758">
        <ele>1821.2</ele>
        <time>2024-08-12T10:44:22Z</time>
      </trkpt>
      <trkpt lat="44.76533" lon="6.32758">
        <ele>1821.2</ele>
        <time>2024-08-12T10:44:23Z</time>
      </trkpt>
      <trkpt lat="44.76533" lon="6.32758">
        <ele>1821.2</ele>
        <time>2024-08-12T10:44:24Z</time>
      </trkpt>
      <trkpt lat="44.76533" lon="6.32758">
        <ele>1821.2</ele>
        <time>2024-08-12T10:44:25Z</time>
      </trkpt>
      <trkpt lat="44.76533" lon="6.32758">
        <ele>1821.2</ele>
        <time>2024-08-12T10:44:26Z</time>
      </trkpt>
      <trkpt lat="44.76533" lon="6.32758">
        <ele>1821.2</ele>
        <time>2024-08-12T10:44:27Z</time>
      </trkpt>
      <trkpt lat="44.76533" lon="6.32758">
        <ele>1821.2</ele>
        <time>2024-08-12T10:44:28Z</time>
      </trkpt>
      <trkpt lat="44.76533" lon="6.32758">
        <ele>1821.2</ele>
        <time>2024-08-12T10:44:29Z</time>
      </trkpt>
      <trkpt lat="44.76533" lon="6.32758">
        <ele>1821.2</ele>
        <time>2024-08-12T10:44:30Z</time>
      </trkpt>
      <trkpt lat="44.76533" lon="6.32758">
        <ele>1821.4</ele>
        <time>2024-08-12T10:44:31Z</time>
      </trkpt>
      <trkpt lat="44.76533" lon="6.32758">
        <ele>1821.4</ele>
        <time>2024-08-12T10:44:32Z</time>
      </trkpt>
      <trkpt lat="44.76533" lon="6.32758">
        <ele>1821.4</ele>
        <time>2024-08-12T10:44:33Z</time>
      </trkpt>
      <trkpt lat="44.76533" lon="6.32758">
        <ele>1821.2</ele>
        <time>2024-08-12T10:44:34Z</time>
      </trkpt>
      <trkpt lat="44.76533" lon="6.32758">
        <ele>1821.2</ele>
        <time>2024-08-12T10:44:35Z</time>
      </trkpt>
      <trkpt lat="44.76533" lon="6.32758">
        <ele>1821.2</ele>
        <time>2024-08-12T10:44:36Z</time>
      </trkpt>
      <trkpt lat="44.76533" lon="6.32758">
        <ele>1821.2</ele>
        <time>2024-08-12T10:44:37Z</time>
      </trkpt>
      <trkpt lat="44.76533" lon="6.32758">
        <ele>1821.2</ele>
        <time>2024-08-12T10:44:38Z</time>
      </trkpt>
      <trkpt lat="44.76533" lon="6.32758">
        <ele>1821.2</ele>
        <time>2024-08-12T10:44:39Z</time>
      </trkpt>
      <trkpt lat="44.76533" lon="6.32758">
        <ele>1821.2</ele>
        <time>2024-08-12T10:44:40Z</time>
      </trkpt>
      <trkpt lat="44.76533" lon="6.32758">
        <ele>1821.2</ele>
        <time>2024-08-12T10:44:41Z</time>
      </trkpt>
      <trkpt lat="44.76533" lon="6.32758">
        <ele>1821.4</ele>
        <time>2024-08-12T10:44:42Z</time>
      </trkpt>
      <trkpt lat="44.76533" lon="6.32758">
        <ele>1821.4</ele>
        <time>2024-08-12T10:44:43Z</time>
      </trkpt>
      <trkpt lat="44.76533" lon="6.32758">
        <ele>1821.4</ele>
        <time>2024-08-12T10:44:44Z</time>
      </trkpt>
      <trkpt lat="44.76533" lon="6.32758">
        <ele>1821.2</ele>
        <time>2024-08-12T10:44:45Z</time>
      </trkpt>
      <trkpt lat="44.76533" lon="6.32758">
        <ele>1821.2</ele>
        <time>2024-08-12T10:44:46Z</time>
      </trkpt>
      <trkpt lat="44.76533" lon="6.32758">
        <ele>1821.2</ele>
        <time>2024-08-12T10:44:47Z</time>
      </trkpt>
      <trkpt lat="44.76533" lon="6.32758">
        <ele>1821.2</ele>
        <time>2024-08-12T10:44:48Z</time>
      </trkpt>
      <trkpt lat="44.76533" lon="6.32758">
        <ele>1821.4</ele>
        <time>2024-08-12T10:44:49Z</time>
      </trkpt>
      <trkpt lat="44.76533" lon="6.32758">
        <ele>1821.4</ele>
        <time>2024-08-12T10:44:50Z</time>
      </trkpt>
      <trkpt lat="44.76533" lon="6.32758">
        <ele>1821.4</ele>
        <time>2024-08-12T10:44:51Z</time>
      </trkpt>
      <trkpt lat="44.76533" lon="6.32758">
        <ele>1821.4</ele>
        <time>2024-08-12T10:44:52Z</time>
      </trkpt>
      <trkpt lat="44.76533" lon="6.32758">
        <ele>1821.4</ele>
        <time>2024-08-12T10:44:53Z</time>
      </trkpt>
      <trkpt lat="44.76533" lon="6.32758">
        <ele>1821.4</ele>
        <time>2024-08-12T10:44:54Z</time>
      </trkpt>
      <trkpt lat="44.76533" lon="6.32758">
        <ele>1821.4</ele>
        <time>2024-08-12T10:44:55Z</time>
      </trkpt>
      <trkpt lat="44.76533" lon="6.32758">
        <ele>1821.4</ele>
        <time>2024-08-12T10:44:56Z</time>
      </trkpt>
      <trkpt lat="44.76533" lon="6.32758">
        <ele>1821.2</ele>
        <time>2024-08-12T10:44:57Z</time>
      </trkpt>
      <trkpt lat="44.76533" lon="6.32758">
        <ele>1821.2</ele>
        <time>2024-08-12T10:44:58Z</time>
      </trkpt>
      <trkpt lat="44.76533" lon="6.32758">
        <ele>1821.2</ele>
        <time>2024-08-12T10:44:59Z</time>
      </trkpt>
      <trkpt lat="44.76533" lon="6.32758">
        <ele>1821.2</ele>
        <time>2024-08-12T10:45:00Z</time>
      </trkpt>
      <trkpt lat="44.76533" lon="6.32758">
        <ele>1821.2</ele>
        <time>2024-08-12T10:45:01Z</time>
      </trkpt>
      <trkpt lat="44.76533" lon="6.32758">
        <ele>1821.4</ele>
        <time>2024-08-12T10:45:02Z</time>
      </trkpt>
      <trkpt lat="44.76533" lon="6.32758">
        <ele>1821.4</ele>
        <time>2024-08-12T10:45:03Z</time>
      </trkpt>
      <trkpt lat="44.76533" lon="6.32758">
        <ele>1821.4</ele>
        <time>2024-08-12T10:45:04Z</time>
      </trkpt>
      <trkpt lat="44.76533" lon="6.32758">
        <ele>1821.4</ele>
        <time>2024-08-12T10:45:05Z</time>
      </trkpt>
      <trkpt lat="44.76533" lon="6.32758">
        <ele>1821.2</ele>
        <time>2024-08-12T10:45:06Z</time>
      </trkpt>
      <trkpt lat="44.76533" lon="6.32758">
        <ele>1821.2</ele>
        <time>2024-08-12T10:45:07Z</time>
      </trkpt>
      <trkpt lat="44.76533" lon="6.32758">
        <ele>1821.2</ele>
        <time>2024-08-12T10:45:08Z</time>
      </trkpt>
      <trkpt lat="44.76533" lon="6.32758">
        <ele>1821.2</ele>
        <time>2024-08-12T10:45:09Z</time>
      </trkpt>
      <trkpt lat="44.76533" lon="6.32758">
        <ele>1821.2</ele>
        <time>2024-08-12T10:45:10Z</time>
      </trkpt>
      <trkpt lat="44.76533" lon="6.32758">
        <ele>1821.2</ele>
        <time>2024-08-12T10:45:11Z</time>
      </trkpt>
      <trkpt lat="44.76533" lon="6.32758">
        <ele>1821.4</ele>
        <time>2024-08-12T10:45:12Z</time>
      </trkpt>
      <trkpt lat="44.76533" lon="6.32758">
        <ele>1821.4</ele>
        <time>2024-08-12T10:45:13Z</time>
      </trkpt>
      <trkpt lat="44.76533" lon="6.32758">
        <ele>1821.4</ele>
        <time>2024-08-12T10:45:14Z</time>
      </trkpt>
      <trkpt lat="44.76533" lon="6.32758">
        <ele>1821.4</ele>
        <time>2024-08-12T10:45:15Z</time>
      </trkpt>
      <trkpt lat="44.76533" lon="6.32758">
        <ele>1821.6</ele>
        <time>2024-08-12T10:45:16Z</time>
      </trkpt>
      <trkpt lat="44.76533" lon="6.32758">
        <ele>1821.6</ele>
        <time>2024-08-12T10:45:17Z</time>
      </trkpt>
      <trkpt lat="44.76533" lon="6.32758">
        <ele>1821.6</ele>
        <time>2024-08-12T10:45:18Z</time>
      </trkpt>
      <trkpt lat="44.76533" lon="6.32758">
        <ele>1821.4</ele>
        <time>2024-08-12T10:45:19Z</time>
      </trkpt>
      <trkpt lat="44.76533" lon="6.32758">
        <ele>1821.4</ele>
        <time>2024-08-12T10:45:20Z</time>
      </trkpt>
      <trkpt lat="44.76533" lon="6.32758">
        <ele>1821.4</ele>
        <time>2024-08-12T10:45:21Z</time>
      </trkpt>
      <trkpt lat="44.76533" lon="6.32758">
        <ele>1821.4</ele>
        <time>2024-08-12T10:45:22Z</time>
      </trkpt>
      <trkpt lat="44.76533" lon="6.32758">
        <ele>1821.2</ele>
        <time>2024-08-12T10:45:23Z</time>
      </trkpt>
      <trkpt lat="44.76533" lon="6.32758">
        <ele>1821.2</ele>
        <time>2024-08-12T10:45:24Z</time>
      </trkpt>
      <trkpt lat="44.76533" lon="6.32758">
        <ele>1821.2</ele>
        <time>2024-08-12T10:45:25Z</time>
      </trkpt>
      <trkpt lat="44.76533" lon="6.32758">
        <ele>1821.2</ele>
        <time>2024-08-12T10:45:26Z</time>
      </trkpt>
      <trkpt lat="44.76533" lon="6.32758">
        <ele>1821.2</ele>
        <time>2024-08-12T10:45:27Z</time>
      </trkpt>
      <trkpt lat="44.76533" lon="6.32758">
        <ele>1821.2</ele>
        <time>2024-08-12T10:45:28Z</time>
      </trkpt>
      <trkpt lat="44.76533" lon="6.32758">
        <ele>1821.2</ele>
        <time>2024-08-12T10:45:29Z</time>
      </trkpt>
      <trkpt lat="44.76533" lon="6.32758">
        <ele>1821.4</ele>
        <time>2024-08-12T10:45:30Z</time>
      </trkpt>
      <trkpt lat="44.76533" lon="6.32758">
        <ele>1821.4</ele>
        <time>2024-08-12T10:45:31Z</time>
      </trkpt>
      <trkpt lat="44.76533" lon="6.32758">
        <ele>1821.4</ele>
        <time>2024-08-12T10:45:32Z</time>
      </trkpt>
      <trkpt lat="44.76533" lon="6.32758">
        <ele>1821.4</ele>
        <time>2024-08-12T10:45:33Z</time>
      </trkpt>
      <trkpt lat="44.76533" lon="6.32758">
        <ele>1821.4</ele>
        <time>2024-08-12T10:45:34Z</time>
      </trkpt>
      <trkpt lat="44.76533" lon="6.32758">
        <ele>1821.4</ele>
        <time>2024-08-12T10:45:35Z</time>
      </trkpt>
      <trkpt lat="44.76533" lon="6.32758">
        <ele>1821.4</ele>
        <time>2024-08-12T10:45:36Z</time>
      </trkpt>
      <trkpt lat="44.76533" lon="6.32758">
        <ele>1821.4</ele>
        <time>2024-08-12T10:45:37Z</time>
      </trkpt>
      <trkpt lat="44.76533" lon="6.32758">
        <ele>1821.4</ele>
        <time>2024-08-12T10:45:38Z</time>
      </trkpt>
      <trkpt lat="44.76533" lon="6.32758">
        <ele>1821.2</ele>
        <time>2024-08-12T10:45:39Z</time>
      </trkpt>
      <trkpt lat="44.76533" lon="6.32758">
        <ele>1821.2</ele>
        <time>2024-08-12T10:45:40Z</time>
      </trkpt>
      <trkpt lat="44.76533" lon="6.32758">
        <ele>1821.2</ele>
        <time>2024-08-12T10:45:41Z</time>
      </trkpt>
      <trkpt lat="44.76533" lon="6.32758">
        <ele>1821.2</ele>
        <time>2024-08-12T10:45:42Z</time>
      </trkpt>
      <trkpt lat="44.76533" lon="6.32758">
        <ele>1821.2</ele>
        <time>2024-08-12T10:45:43Z</time>
      </trkpt>
      <trkpt lat="44.76533" lon="6.32758">
        <ele>1821.2</ele>
        <time>2024-08-12T10:45:44Z</time>
      </trkpt>
      <trkpt lat="44.76533" lon="6.32758">
        <ele>1821.2</ele>
        <time>2024-08-12T10:45:45Z</time>
      </trkpt>
      <trkpt lat="44.76533" lon="6.32758">
        <ele>1821.2</ele>
        <time>2024-08-12T10:45:46Z</time>
      </trkpt>
      <trkpt lat="44.76533" lon="6.32758">
        <ele>1821.4</ele>
        <time>2024-08-12T10:45:47Z</time>
      </trkpt>
      <trkpt lat="44.76533" lon="6.32758">
        <ele>1821.4</ele>
        <time>2024-08-12T10:45:48Z</time>
      </trkpt>
      <trkpt lat="44.76533" lon="6.32758">
        <ele>1821.2</ele>
        <time>2024-08-12T10:45:49Z</time>
      </trkpt>
      <trkpt lat="44.76533" lon="6.32758">
        <ele>1821</ele>
        <time>2024-08-12T10:45:50Z</time>
      </trkpt>
      <trkpt lat="44.76533" lon="6.32758">
        <ele>1821</ele>
        <time>2024-08-12T10:45:51Z</time>
      </trkpt>
      <trkpt lat="44.76533" lon="6.32758">
        <ele>1821.2</ele>
        <time>2024-08-12T10:45:52Z</time>
      </trkpt>
      <trkpt lat="44.76533" lon="6.32758">
        <ele>1821.4</ele>
        <time>2024-08-12T10:45:53Z</time>
      </trkpt>
      <trkpt lat="44.76533" lon="6.32758">
        <ele>1821.4</ele>
        <time>2024-08-12T10:45:54Z</time>
      </trkpt>
      <trkpt lat="44.76533" lon="6.32758">
        <ele>1821.2</ele>
        <time>2024-08-12T10:45:55Z</time>
      </trkpt>
      <trkpt lat="44.76533" lon="6.32758">
        <ele>1821.2</ele>
        <time>2024-08-12T10:45:56Z</time>
      </trkpt>
      <trkpt lat="44.76533" lon="6.32758">
        <ele>1821.2</ele>
        <time>2024-08-12T10:45:57Z</time>
      </trkpt>
      <trkpt lat="44.76533" lon="6.32758">
        <ele>1821.2</ele>
        <time>2024-08-12T10:45:58Z</time>
      </trkpt>
      <trkpt lat="44.76533" lon="6.32758">
        <ele>1821</ele>
        <time>2024-08-12T10:45:59Z</time>
      </trkpt>
      <trkpt lat="44.76533" lon="6.32758">
        <ele>1821</ele>
        <time>2024-08-12T10:46:00Z</time>
      </trkpt>
      <trkpt lat="44.76533" lon="6.32758">
        <ele>1821</ele>
        <time>2024-08-12T10:46:01Z</time>
      </trkpt>
      <trkpt lat="44.76533" lon="6.32758">
        <ele>1821</ele>
        <time>2024-08-12T10:46:02Z</time>
      </trkpt>
      <trkpt lat="44.76533" lon="6.32758">
        <ele>1821</ele>
        <time>2024-08-12T10:46:03Z</time>
      </trkpt>
      <trkpt lat="44.76533" lon="6.32758">
        <ele>1820.8</ele>
        <time>2024-08-12T10:46:04Z</time>
      </trkpt>
      <trkpt lat="44.76533" lon="6.32758">
        <ele>1820.8</ele>
        <time>2024-08-12T10:46:05Z</time>
      </trkpt>
      <trkpt lat="44.76533" lon="6.32758">
        <ele>1821</ele>
        <time>2024-08-12T10:46:06Z</time>
      </trkpt>
      <trkpt lat="44.76533" lon="6.32758">
        <ele>1821</ele>
        <time>2024-08-12T10:46:07Z</time>
      </trkpt>
      <trkpt lat="44.76533" lon="6.32758">
        <ele>1821</ele>
        <time>2024-08-12T10:46:08Z</time>
      </trkpt>
      <trkpt lat="44.76533" lon="6.32758">
        <ele>1820.8</ele>
        <time>2024-08-12T10:46:09Z</time>
      </trkpt>
      <trkpt lat="44.76533" lon="6.32758">
        <ele>1820.8</ele>
        <time>2024-08-12T10:46:10Z</time>
      </trkpt>
      <trkpt lat="44.76533" lon="6.32758">
        <ele>1820.8</ele>
        <time>2024-08-12T10:46:11Z</time>
      </trkpt>
      <trkpt lat="44.76533" lon="6.32758">
        <ele>1820.8</ele>
        <time>2024-08-12T10:46:12Z</time>
      </trkpt>
      <trkpt lat="44.76533" lon="6.32758">
        <ele>1820.8</ele>
        <time>2024-08-12T10:46:13Z</time>
      </trkpt>
      <trkpt lat="44.76533" lon="6.32758">
        <ele>1820.8</ele>
        <time>2024-08-12T10:46:14Z</time>
      </trkpt>
      <trkpt lat="44.76533" lon="6.32758">
        <ele>1821</ele>
        <time>2024-08-12T10:46:15Z</time>
      </trkpt>
      <trkpt lat="44.76533" lon="6.32758">
        <ele>1821.2</ele>
        <time>2024-08-12T10:46:16Z</time>
      </trkpt>
      <trkpt lat="44.76533" lon="6.32758">
        <ele>1821.2</ele>
        <time>2024-08-12T10:46:17Z</time>
      </trkpt>
      <trkpt lat="44.76533" lon="6.32758">
        <ele>1821.2</ele>
        <time>2024-08-12T10:46:18Z</time>
      </trkpt>
      <trkpt lat="44.76533" lon="6.32758">
        <ele>1821.4</ele>
        <time>2024-08-12T10:46:19Z</time>
      </trkpt>
      <trkpt lat="44.76533" lon="6.32758">
        <ele>1821.4</ele>
        <time>2024-08-12T10:46:20Z</time>
      </trkpt>
      <trkpt lat="44.76533" lon="6.32758">
        <ele>1821.4</ele>
        <time>2024-08-12T10:46:21Z</time>
      </trkpt>
      <trkpt lat="44.76533" lon="6.32758">
        <ele>1821.8</ele>
        <time>2024-08-12T10:46:22Z</time>
      </trkpt>
      <trkpt lat="44.76533" lon="6.32758">
        <ele>1822.2</ele>
        <time>2024-08-12T10:46:23Z</time>
      </trkpt>
      <trkpt lat="44.76533" lon="6.32758">
        <ele>1822.2</ele>
        <time>2024-08-12T10:46:24Z</time>
      </trkpt>
      <trkpt lat="44.76533" lon="6.32758">
        <ele>1821.8</ele>
        <time>2024-08-12T10:46:25Z</time>
      </trkpt>
      <trkpt lat="44.76533" lon="6.32758">
        <ele>1820.8</ele>
        <time>2024-08-12T10:46:26Z</time>
      </trkpt>
      <trkpt lat="44.76533" lon="6.32758">
        <ele>1820.8</ele>
        <time>2024-08-12T10:46:27Z</time>
      </trkpt>
      <trkpt lat="44.76533" lon="6.32758">
        <ele>1820.8</ele>
        <time>2024-08-12T10:46:28Z</time>
      </trkpt>
      <trkpt lat="44.76533" lon="6.32758">
        <ele>1820.8</ele>
        <time>2024-08-12T10:46:29Z</time>
      </trkpt>
      <trkpt lat="44.76533" lon="6.32758">
        <ele>1820.8</ele>
        <time>2024-08-12T10:46:30Z</time>
      </trkpt>
      <trkpt lat="44.76533" lon="6.32758">
        <ele>1821</ele>
        <time>2024-08-12T10:46:31Z</time>
      </trkpt>
      <trkpt lat="44.76533" lon="6.32758">
        <ele>1821</ele>
        <time>2024-08-12T10:46:32Z</time>
      </trkpt>
      <trkpt lat="44.76533" lon="6.32758">
        <ele>1820.8</ele>
        <time>2024-08-12T10:46:33Z</time>
      </trkpt>
      <trkpt lat="44.76533" lon="6.32758">
        <ele>1820.8</ele>
        <time>2024-08-12T10:46:34Z</time>
      </trkpt>
      <trkpt lat="44.76533" lon="6.32758">
        <ele>1820.8</ele>
        <time>2024-08-12T10:46:35Z</time>
      </trkpt>
      <trkpt lat="44.76533" lon="6.32758">
        <ele>1821</ele>
        <time>2024-08-12T10:46:36Z</time>
      </trkpt>
      <trkpt lat="44.76533" lon="6.32758">
        <ele>1821.2</ele>
        <time>2024-08-12T10:46:37Z</time>
      </trkpt>
      <trkpt lat="44.76533" lon="6.32758">
        <ele>1821.4</ele>
        <time>2024-08-12T10:46:38Z</time>
      </trkpt>
      <trkpt lat="44.76533" lon="6.32758">
        <ele>1821.4</ele>
        <time>2024-08-12T10:46:39Z</time>
      </trkpt>
      <trkpt lat="44.76533" lon="6.32758">
        <ele>1821.4</ele>
        <time>2024-08-12T10:46:40Z</time>
      </trkpt>
      <trkpt lat="44.76533" lon="6.32758">
        <ele>1821.4</ele>
        <time>2024-08-12T10:46:41Z</time>
      </trkpt>
      <trkpt lat="44.76533" lon="6.32758">
        <ele>1821.4</ele>
        <time>2024-08-12T10:46:42Z</time>
      </trkpt>
      <trkpt lat="44.76533" lon="6.32758">
        <ele>1821.4</ele>
        <time>2024-08-12T10:46:43Z</time>
      </trkpt>
      <trkpt lat="44.76533" lon="6.32758">
        <ele>1821.4</ele>
        <time>2024-08-12T10:46:44Z</time>
      </trkpt>
      <trkpt lat="44.76533" lon="6.32758">
        <ele>1821.4</ele>
        <time>2024-08-12T10:46:45Z</time>
      </trkpt>
      <trkpt lat="44.76533" lon="6.32758">
        <ele>1821.6</ele>
        <time>2024-08-12T10:46:46Z</time>
      </trkpt>
      <trkpt lat="44.76533" lon="6.32758">
        <ele>1821.6</ele>
        <time>2024-08-12T10:46:47Z</time>
      </trkpt>
      <trkpt lat="44.76533" lon="6.32758">
        <ele>1821.6</ele>
        <time>2024-08-12T10:46:48Z</time>
      </trkpt>
      <trkpt lat="44.76533" lon="6.32758">
        <ele>1821.6</ele>
        <time>2024-08-12T10:46:49Z</time>
      </trkpt>
      <trkpt lat="44.76533" lon="6.32758">
        <ele>1821.6</ele>
        <time>2024-08-12T10:46:50Z</time>
      </trkpt>
      <trkpt lat="44.76533" lon="6.32758">
        <ele>1822</ele>
        <time>2024-08-12T10:46:51Z</time>
      </trkpt>
      <trkpt lat="44.76533" lon="6.32758">
        <ele>1822</ele>
        <time>2024-08-12T10:46:52Z</time>
      </trkpt>
      <trkpt lat="44.76533" lon="6.32758">
        <ele>1821.8</ele>
        <time>2024-08-12T10:46:53Z</time>
      </trkpt>
      <trkpt lat="44.76533" lon="6.32758">
        <ele>1821.6</ele>
        <time>2024-08-12T10:46:54Z</time>
      </trkpt>
      <trkpt lat="44.76533" lon="6.32758">
        <ele>1821.6</ele>
        <time>2024-08-12T10:46:55Z</time>
      </trkpt>
      <trkpt lat="44.76533" lon="6.32758">
        <ele>1821.8</ele>
        <time>2024-08-12T10:46:56Z</time>
      </trkpt>
      <trkpt lat="44.76533" lon="6.32758">
        <ele>1821.8</ele>
        <time>2024-08-12T10:46:57Z</time>
      </trkpt>
      <trkpt lat="44.76533" lon="6.32758">
        <ele>1821.8</ele>
        <time>2024-08-12T10:46:58Z</time>
      </trkpt>
      <trkpt lat="44.76533" lon="6.32758">
        <ele>1821.8</ele>
        <time>2024-08-12T10:46:59Z</time>
      </trkpt>
      <trkpt lat="44.76533" lon="6.32758">
        <ele>1822</ele>
        <time>2024-08-12T10:47:00Z</time>
      </trkpt>
      <trkpt lat="44.76533" lon="6.32758">
        <ele>1822</ele>
        <time>2024-08-12T10:47:01Z</time>
      </trkpt>
      <trkpt lat="44.76533" lon="6.32758">
        <ele>1822</ele>
        <time>2024-08-12T10:47:02Z</time>
      </trkpt>
      <trkpt lat="44.76533" lon="6.32758">
        <ele>1822</ele>
        <time>2024-08-12T10:47:03Z</time>
      </trkpt>
      <trkpt lat="44.76533" lon="6.32758">
        <ele>1822</ele>
        <time>2024-08-12T10:47:04Z</time>
      </trkpt>
      <trkpt lat="44.76533" lon="6.32758">
        <ele>1822</ele>
        <time>2024-08-12T10:47:05Z</time>
      </trkpt>
      <trkpt lat="44.76533" lon="6.32758">
        <ele>1822</ele>
        <time>2024-08-12T10:47:06Z</time>
      </trkpt>
      <trkpt lat="44.76533" lon="6.32758">
        <ele>1821.8</ele>
        <time>2024-08-12T10:47:07Z</time>
      </trkpt>
      <trkpt lat="44.76533" lon="6.32758">
        <ele>1821.8</ele>
        <time>2024-08-12T10:47:08Z</time>
      </trkpt>
      <trkpt lat="44.76533" lon="6.32758">
        <ele>1821.8</ele>
        <time>2024-08-12T10:47:09Z</time>
      </trkpt>
      <trkpt lat="44.76533" lon="6.32758">
        <ele>1821.8</ele>
        <time>2024-08-12T10:47:10Z</time>
      </trkpt>
      <trkpt lat="44.76533" lon="6.32758">
        <ele>1821.8</ele>
        <time>2024-08-12T10:47:11Z</time>
      </trkpt>
      <trkpt lat="44.76533" lon="6.32758">
        <ele>1821.8</ele>
        <time>2024-08-12T10:47:12Z</time>
      </trkpt>
      <trkpt lat="44.76533" lon="6.32758">
        <ele>1821.8</ele>
        <time>2024-08-12T10:47:13Z</time>
      </trkpt>
      <trkpt lat="44.76533" lon="6.32758">
        <ele>1822</ele>
        <time>2024-08-12T10:47:14Z</time>
      </trkpt>
      <trkpt lat="44.76533" lon="6.32758">
        <ele>1822</ele>
        <time>2024-08-12T10:47:15Z</time>
      </trkpt>
      <trkpt lat="44.76533" lon="6.32758">
        <ele>1821.8</ele>
        <time>2024-08-12T10:47:16Z</time>
      </trkpt>
      <trkpt lat="44.76533" lon="6.32758">
        <ele>1821.8</ele>
        <time>2024-08-12T10:47:17Z</time>
      </trkpt>
      <trkpt lat="44.76533" lon="6.32758">
        <ele>1821.8</ele>
        <time>2024-08-12T10:47:18Z</time>
      </trkpt>
      <trkpt lat="44.76533" lon="6.32758">
        <ele>1821.4</ele>
        <time>2024-08-12T10:47:19Z</time>
      </trkpt>
      <trkpt lat="44.76533" lon="6.32758">
        <ele>1821</ele>
        <time>2024-08-12T10:47:20Z</time>
      </trkpt>
      <trkpt lat="44.76533" lon="6.32758">
        <ele>1820.6</ele>
        <time>2024-08-12T10:47:21Z</time>
      </trkpt>
      <trkpt lat="44.76533" lon="6.32758">
        <ele>1820</ele>
        <time>2024-08-12T10:47:22Z</time>
      </trkpt>
      <trkpt lat="44.76533" lon="6.32758">
        <ele>1819.6</ele>
        <time>2024-08-12T10:47:23Z</time>
      </trkpt>
      <trkpt lat="44.76533" lon="6.32758">
        <ele>1819.2</ele>
        <time>2024-08-12T10:47:24Z</time>
      </trkpt>
      <trkpt lat="44.76533" lon="6.32758">
        <ele>1819.2</ele>
        <time>2024-08-12T10:47:25Z</time>
      </trkpt>
      <trkpt lat="44.76533" lon="6.32758">
        <ele>1819.4</ele>
        <time>2024-08-12T10:47:26Z</time>
      </trkpt>
      <trkpt lat="44.76533" lon="6.32758">
        <ele>1819.4</ele>
        <time>2024-08-12T10:47:27Z</time>
      </trkpt>
      <trkpt lat="44.76533" lon="6.32758">
        <ele>1819.4</ele>
        <time>2024-08-12T10:47:28Z</time>
      </trkpt>
      <trkpt lat="44.76533" lon="6.32758">
        <ele>1819</ele>
        <time>2024-08-12T10:47:29Z</time>
      </trkpt>
      <trkpt lat="44.76533" lon="6.32758">
        <ele>1819</ele>
        <time>2024-08-12T10:47:30Z</time>
      </trkpt>
      <trkpt lat="44.76501" lon="6.32752">
        <ele>1818.8</ele>
        <time>2024-08-12T10:47:31Z</time>
      </trkpt>
      <trkpt lat="44.76506" lon="6.32758">
        <ele>1818.8</ele>
        <time>2024-08-12T10:47:32Z</time>
      </trkpt>
      <trkpt lat="44.76517" lon="6.32771">
        <ele>1819</ele>
        <time>2024-08-12T10:47:33Z</time>
      </trkpt>
      <trkpt lat="44.76517" lon="6.32776">
        <ele>1819</ele>
        <time>2024-08-12T10:47:34Z</time>
      </trkpt>
      <trkpt lat="44.76517" lon="6.32776">
        <ele>1819</ele>
        <time>2024-08-12T10:47:35Z</time>
      </trkpt>
      <trkpt lat="44.7652" lon="6.32778">
        <ele>1818.8</ele>
        <time>2024-08-12T10:47:36Z</time>
      </trkpt>
      <trkpt lat="44.76522" lon="6.32777">
        <ele>1818.8</ele>
        <time>2024-08-12T10:47:37Z</time>
      </trkpt>
      <trkpt lat="44.76522" lon="6.32777">
        <ele>1818.8</ele>
        <time>2024-08-12T10:47:38Z</time>
      </trkpt>
      <trkpt lat="44.76525" lon="6.32778">
        <ele>1818.8</ele>
        <time>2024-08-12T10:47:39Z</time>
      </trkpt>
      <trkpt lat="44.76525" lon="6.32778">
        <ele>1818.8</ele>
        <time>2024-08-12T10:47:40Z</time>
      </trkpt>
      <trkpt lat="44.76527" lon="6.32778">
        <ele>1819</ele>
        <time>2024-08-12T10:47:41Z</time>
      </trkpt>
      <trkpt lat="44.76527" lon="6.32778">
        <ele>1819.4</ele>
        <time>2024-08-12T10:47:42Z</time>
      </trkpt>
      <trkpt lat="44.76527" lon="6.32778">
        <ele>1819.8</ele>
        <time>2024-08-12T10:47:43Z</time>
      </trkpt>
      <trkpt lat="44.76529" lon="6.32779">
        <ele>1820.2</ele>
        <time>2024-08-12T10:47:44Z</time>
      </trkpt>
      <trkpt lat="44.76529" lon="6.32779">
        <ele>1820.6</ele>
        <time>2024-08-12T10:47:45Z</time>
      </trkpt>
      <trkpt lat="44.76531" lon="6.32781">
        <ele>1820.6</ele>
        <time>2024-08-12T10:47:46Z</time>
      </trkpt>
      <trkpt lat="44.76531" lon="6.32781">
        <ele>1820.6</ele>
        <time>2024-08-12T10:47:47Z</time>
      </trkpt>
      <trkpt lat="44.76533" lon="6.32782">
        <ele>1820.4</ele>
        <time>2024-08-12T10:47:48Z</time>
      </trkpt>
      <trkpt lat="44.76533" lon="6.32782">
        <ele>1820.4</ele>
        <time>2024-08-12T10:47:49Z</time>
      </trkpt>
      <trkpt lat="44.76535" lon="6.32784">
        <ele>1820.6</ele>
        <time>2024-08-12T10:47:50Z</time>
      </trkpt>
      <trkpt lat="44.76535" lon="6.32784">
        <ele>1820.8</ele>
        <time>2024-08-12T10:47:51Z</time>
      </trkpt>
      <trkpt lat="44.76537" lon="6.32785">
        <ele>1820.8</ele>
        <time>2024-08-12T10:47:52Z</time>
      </trkpt>
      <trkpt lat="44.76537" lon="6.32785">
        <ele>1820.8</ele>
        <time>2024-08-12T10:47:53Z</time>
      </trkpt>
      <trkpt lat="44.76539" lon="6.32786">
        <ele>1820.6</ele>
        <time>2024-08-12T10:47:54Z</time>
      </trkpt>
      <trkpt lat="44.76539" lon="6.32786">
        <ele>1820.6</ele>
        <time>2024-08-12T10:47:55Z</time>
      </trkpt>
      <trkpt lat="44.76539" lon="6.32786">
        <ele>1820.6</ele>
        <time>2024-08-12T10:47:56Z</time>
      </trkpt>
      <trkpt lat="44.76539" lon="6.32786">
        <ele>1820.6</ele>
        <time>2024-08-12T10:47:57Z</time>
      </trkpt>
      <trkpt lat="44.76539" lon="6.32786">
        <ele>1820.6</ele>
        <time>2024-08-12T10:47:58Z</time>
      </trkpt>
      <trkpt lat="44.76541" lon="6.32785">
        <ele>1820.8</ele>
        <time>2024-08-12T10:47:59Z</time>
      </trkpt>
      <trkpt lat="44.76541" lon="6.32785">
        <ele>1820.8</ele>
        <time>2024-08-12T10:48:00Z</time>
      </trkpt>
      <trkpt lat="44.76541" lon="6.32785">
        <ele>1820.8</ele>
        <time>2024-08-12T10:48:01Z</time>
      </trkpt>
      <trkpt lat="44.76542" lon="6.32788">
        <ele>1820.8</ele>
        <time>2024-08-12T10:48:02Z</time>
      </trkpt>
      <trkpt lat="44.76542" lon="6.32788">
        <ele>1820.8</ele>
        <time>2024-08-12T10:48:03Z</time>
      </trkpt>
      <trkpt lat="44.76542" lon="6.32788">
        <ele>1820.8</ele>
        <time>2024-08-12T10:48:04Z</time>
      </trkpt>
      <trkpt lat="44.76542" lon="6.32788">
        <ele>1820.8</ele>
        <time>2024-08-12T10:48:05Z</time>
      </trkpt>
      <trkpt lat="44.76542" lon="6.32788">
        <ele>1821</ele>
        <time>2024-08-12T10:48:06Z</time>
      </trkpt>
      <trkpt lat="44.76542" lon="6.32788">
        <ele>1821</ele>
        <time>2024-08-12T10:48:07Z</time>
      </trkpt>
      <trkpt lat="44.76542" lon="6.32788">
        <ele>1821</ele>
        <time>2024-08-12T10:48:08Z</time>
      </trkpt>
      <trkpt lat="44.76542" lon="6.32788">
        <ele>1821</ele>
        <time>2024-08-12T10:48:09Z</time>
      </trkpt>
      <trkpt lat="44.76542" lon="6.32788">
        <ele>1820.8</ele>
        <time>2024-08-12T10:48:10Z</time>
      </trkpt>
      <trkpt lat="44.76542" lon="6.32788">
        <ele>1820.8</ele>
        <time>2024-08-12T10:48:11Z</time>
      </trkpt>
      <trkpt lat="44.76542" lon="6.32788">
        <ele>1820.8</ele>
        <time>2024-08-12T10:48:12Z</time>
      </trkpt>
      <trkpt lat="44.76542" lon="6.32788">
        <ele>1820.8</ele>
        <time>2024-08-12T10:48:13Z</time>
      </trkpt>
      <trkpt lat="44.76542" lon="6.32788">
        <ele>1820.8</ele>
        <time>2024-08-12T10:48:14Z</time>
      </trkpt>
      <trkpt lat="44.76542" lon="6.32788">
        <ele>1820.8</ele>
        <time>2024-08-12T10:48:15Z</time>
      </trkpt>
      <trkpt lat="44.76545" lon="6.32788">
        <ele>1820.8</ele>
        <time>2024-08-12T10:48:16Z</time>
      </trkpt>
      <trkpt lat="44.76545" lon="6.32788">
        <ele>1821.2</ele>
        <time>2024-08-12T10:48:17Z</time>
      </trkpt>
      <trkpt lat="44.76548" lon="6.32789">
        <ele>1821.2</ele>
        <time>2024-08-12T10:48:18Z</time>
      </trkpt>
      <trkpt lat="44.76548" lon="6.32789">
        <ele>1821.2</ele>
        <time>2024-08-12T10:48:19Z</time>
      </trkpt>
      <trkpt lat="44.76551" lon="6.3279">
        <ele>1821.2</ele>
        <time>2024-08-12T10:48:20Z</time>
      </trkpt>
      <trkpt lat="44.76551" lon="6.3279">
        <ele>1821.2</ele>
        <time>2024-08-12T10:48:21Z</time>
      </trkpt>
      <trkpt lat="44.76554" lon="6.32792">
        <ele>1821.2</ele>
        <time>2024-08-12T10:48:22Z</time>
      </trkpt>
      <trkpt lat="44.76554" lon="6.32792">
        <ele>1821.2</ele>
        <time>2024-08-12T10:48:23Z</time>
      </trkpt>
      <trkpt lat="44.76557" lon="6.32793">
        <ele>1821.2</ele>
        <time>2024-08-12T10:48:24Z</time>
      </trkpt>
      <trkpt lat="44.76558" lon="6.32794">
        <ele>1821.4</ele>
        <time>2024-08-12T10:48:25Z</time>
      </trkpt>
      <trkpt lat="44.76558" lon="6.32794">
        <ele>1821.6</ele>
        <time>2024-08-12T10:48:26Z</time>
      </trkpt>
      <trkpt lat="44.76561" lon="6.32795">
        <ele>1821.6</ele>
        <time>2024-08-12T10:48:27Z</time>
      </trkpt>
      <trkpt lat="44.76563" lon="6.32796">
        <ele>1821.8</ele>
        <time>2024-08-12T10:48:28Z</time>
      </trkpt>
      <trkpt lat="44.76563" lon="6.32796">
        <ele>1822</ele>
        <time>2024-08-12T10:48:29Z</time>
      </trkpt>
      <trkpt lat="44.76566" lon="6.32797">
        <ele>1822.4</ele>
        <time>2024-08-12T10:48:30Z</time>
      </trkpt>
      <trkpt lat="44.76566" lon="6.32797">
        <ele>1822.4</ele>
        <time>2024-08-12T10:48:31Z</time>
      </trkpt>
      <trkpt lat="44.76569" lon="6.32798">
        <ele>1822.4</ele>
        <time>2024-08-12T10:48:32Z</time>
      </trkpt>
      <trkpt lat="44.76569" lon="6.32798">
        <ele>1822.4</ele>
        <time>2024-08-12T10:48:33Z</time>
      </trkpt>
      <trkpt lat="44.76571" lon="6.32799">
        <ele>1822.6</ele>
        <time>2024-08-12T10:48:34Z</time>
      </trkpt>
      <trkpt lat="44.76571" lon="6.32799">
        <ele>1822.6</ele>
        <time>2024-08-12T10:48:35Z</time>
      </trkpt>
      <trkpt lat="44.76573" lon="6.328">
        <ele>1822.6</ele>
        <time>2024-08-12T10:48:36Z</time>
      </trkpt>
      <trkpt lat="44.76573" lon="6.328">
        <ele>1822.6</ele>
        <time>2024-08-12T10:48:37Z</time>
      </trkpt>
      <trkpt lat="44.76575" lon="6.32801">
        <ele>1822.6</ele>
        <time>2024-08-12T10:48:38Z</time>
      </trkpt>
      <trkpt lat="44.76575" lon="6.32801">
        <ele>1822.8</ele>
        <time>2024-08-12T10:48:39Z</time>
      </trkpt>
      <trkpt lat="44.76578" lon="6.32802">
        <ele>1823</ele>
        <time>2024-08-12T10:48:40Z</time>
      </trkpt>
      <trkpt lat="44.76578" lon="6.32802">
        <ele>1823</ele>
        <time>2024-08-12T10:48:41Z</time>
      </trkpt>
      <trkpt lat="44.7658" lon="6.32803">
        <ele>1823.2</ele>
        <time>2024-08-12T10:48:42Z</time>
      </trkpt>
      <trkpt lat="44.7658" lon="6.32803">
        <ele>1823.2</ele>
        <time>2024-08-12T10:48:43Z</time>
      </trkpt>
      <trkpt lat="44.76583" lon="6.32803">
        <ele>1823.2</ele>
        <time>2024-08-12T10:48:44Z</time>
      </trkpt>
      <trkpt lat="44.76583" lon="6.32803">
        <ele>1823.2</ele>
        <time>2024-08-12T10:48:45Z</time>
      </trkpt>
      <trkpt lat="44.76585" lon="6.32803">
        <ele>1823.2</ele>
        <time>2024-08-12T10:48:46Z</time>
      </trkpt>
      <trkpt lat="44.76585" lon="6.32803">
        <ele>1823.2</ele>
        <time>2024-08-12T10:48:47Z</time>
      </trkpt>
      <trkpt lat="44.76585" lon="6.32803">
        <ele>1823.6</ele>
        <time>2024-08-12T10:48:48Z</time>
      </trkpt>
      <trkpt lat="44.76587" lon="6.32803">
        <ele>1823.8</ele>
        <time>2024-08-12T10:48:49Z</time>
      </trkpt>
      <trkpt lat="44.76587" lon="6.32803">
        <ele>1824</ele>
        <time>2024-08-12T10:48:50Z</time>
      </trkpt>
      <trkpt lat="44.7659" lon="6.32805">
        <ele>1824.4</ele>
        <time>2024-08-12T10:48:51Z</time>
      </trkpt>
      <trkpt lat="44.7659" lon="6.32805">
        <ele>1824.6</ele>
        <time>2024-08-12T10:48:52Z</time>
      </trkpt>
      <trkpt lat="44.76593" lon="6.32806">
        <ele>1824.8</ele>
        <time>2024-08-12T10:48:53Z</time>
      </trkpt>
      <trkpt lat="44.76593" lon="6.32806">
        <ele>1824.8</ele>
        <time>2024-08-12T10:48:54Z</time>
      </trkpt>
      <trkpt lat="44.76595" lon="6.32807">
        <ele>1824.8</ele>
        <time>2024-08-12T10:48:55Z</time>
      </trkpt>
      <trkpt lat="44.76595" lon="6.32807">
        <ele>1824.8</ele>
        <time>2024-08-12T10:48:56Z</time>
      </trkpt>
      <trkpt lat="44.76597" lon="6.32808">
        <ele>1825</ele>
        <time>2024-08-12T10:48:57Z</time>
      </trkpt>
      <trkpt lat="44.76597" lon="6.32808">
        <ele>1825.2</ele>
        <time>2024-08-12T10:48:58Z</time>
      </trkpt>
      <trkpt lat="44.76597" lon="6.32808">
        <ele>1825.2</ele>
        <time>2024-08-12T10:48:59Z</time>
      </trkpt>
      <trkpt lat="44.76599" lon="6.32809">
        <ele>1825.4</ele>
        <time>2024-08-12T10:49:00Z</time>
      </trkpt>
      <trkpt lat="44.76599" lon="6.32809">
        <ele>1825.4</ele>
        <time>2024-08-12T10:49:01Z</time>
      </trkpt>
      <trkpt lat="44.76602" lon="6.3281">
        <ele>1825.8</ele>
        <time>2024-08-12T10:49:02Z</time>
      </trkpt>
      <trkpt lat="44.76602" lon="6.3281">
        <ele>1825.8</ele>
        <time>2024-08-12T10:49:03Z</time>
      </trkpt>
      <trkpt lat="44.76602" lon="6.3281">
        <ele>1826</ele>
        <time>2024-08-12T10:49:04Z</time>
      </trkpt>
      <trkpt lat="44.76605" lon="6.32811">
        <ele>1826</ele>
        <time>2024-08-12T10:49:05Z</time>
      </trkpt>
      <trkpt lat="44.76605" lon="6.32811">
        <ele>1826.2</ele>
        <time>2024-08-12T10:49:06Z</time>
      </trkpt>
      <trkpt lat="44.76607" lon="6.32812">
        <ele>1826.2</ele>
        <time>2024-08-12T10:49:07Z</time>
      </trkpt>
      <trkpt lat="44.76607" lon="6.32812">
        <ele>1826.4</ele>
        <time>2024-08-12T10:49:08Z</time>
      </trkpt>
      <trkpt lat="44.76609" lon="6.32812">
        <ele>1826.4</ele>
        <time>2024-08-12T10:49:09Z</time>
      </trkpt>
      <trkpt lat="44.76609" lon="6.32812">
        <ele>1826.4</ele>
        <time>2024-08-12T10:49:10Z</time>
      </trkpt>
      <trkpt lat="44.76612" lon="6.32812">
        <ele>1826.6</ele>
        <time>2024-08-12T10:49:11Z</time>
      </trkpt>
      <trkpt lat="44.76612" lon="6.32812">
        <ele>1826.6</ele>
        <time>2024-08-12T10:49:12Z</time>
      </trkpt>
      <trkpt lat="44.76614" lon="6.32811">
        <ele>1826.4</ele>
        <time>2024-08-12T10:49:13Z</time>
      </trkpt>
      <trkpt lat="44.76614" lon="6.32811">
        <ele>1826.4</ele>
        <time>2024-08-12T10:49:14Z</time>
      </trkpt>
      <trkpt lat="44.76617" lon="6.32811">
        <ele>1826.4</ele>
        <time>2024-08-12T10:49:15Z</time>
      </trkpt>
      <trkpt lat="44.76617" lon="6.32811">
        <ele>1826.6</ele>
        <time>2024-08-12T10:49:16Z</time>
      </trkpt>
      <trkpt lat="44.76619" lon="6.32812">
        <ele>1826.8</ele>
        <time>2024-08-12T10:49:17Z</time>
      </trkpt>
      <trkpt lat="44.76619" lon="6.32812">
        <ele>1826.8</ele>
        <time>2024-08-12T10:49:18Z</time>
      </trkpt>
      <trkpt lat="44.76621" lon="6.32812">
        <ele>1826.8</ele>
        <time>2024-08-12T10:49:19Z</time>
      </trkpt>
      <trkpt lat="44.76621" lon="6.32812">
        <ele>1826.8</ele>
        <time>2024-08-12T10:49:20Z</time>
      </trkpt>
      <trkpt lat="44.76623" lon="6.32813">
        <ele>1827</ele>
        <time>2024-08-12T10:49:21Z</time>
      </trkpt>
      <trkpt lat="44.76623" lon="6.32813">
        <ele>1827.2</ele>
        <time>2024-08-12T10:49:22Z</time>
      </trkpt>
      <trkpt lat="44.76626" lon="6.32813">
        <ele>1827.2</ele>
        <time>2024-08-12T10:49:23Z</time>
      </trkpt>
      <trkpt lat="44.76626" lon="6.32813">
        <ele>1827</ele>
        <time>2024-08-12T10:49:24Z</time>
      </trkpt>
      <trkpt lat="44.76628" lon="6.32814">
        <ele>1827</ele>
        <time>2024-08-12T10:49:25Z</time>
      </trkpt>
      <trkpt lat="44.76628" lon="6.32814">
        <ele>1827.2</ele>
        <time>2024-08-12T10:49:26Z</time>
      </trkpt>
      <trkpt lat="44.7663" lon="6.32815">
        <ele>1827.2</ele>
        <time>2024-08-12T10:49:27Z</time>
      </trkpt>
      <trkpt lat="44.7663" lon="6.32815">
        <ele>1827.2</ele>
        <time>2024-08-12T10:49:28Z</time>
      </trkpt>
      <trkpt lat="44.76632" lon="6.32816">
        <ele>1827.4</ele>
        <time>2024-08-12T10:49:29Z</time>
      </trkpt>
      <trkpt lat="44.76632" lon="6.32816">
        <ele>1827.4</ele>
        <time>2024-08-12T10:49:30Z</time>
      </trkpt>
      <trkpt lat="44.76634" lon="6.32818">
        <ele>1827.6</ele>
        <time>2024-08-12T10:49:31Z</time>
      </trkpt>
      <trkpt lat="44.76634" lon="6.32818">
        <ele>1828</ele>
        <time>2024-08-12T10:49:32Z</time>
      </trkpt>
      <trkpt lat="44.76634" lon="6.32818">
        <ele>1828</ele>
        <time>2024-08-12T10:49:33Z</time>
      </trkpt>
      <trkpt lat="44.76636" lon="6.32818">
        <ele>1828</ele>
        <time>2024-08-12T10:49:34Z</time>
      </trkpt>
      <trkpt lat="44.76636" lon="6.32818">
        <ele>1828</ele>
        <time>2024-08-12T10:49:35Z</time>
      </trkpt>
      <trkpt lat="44.76638" lon="6.32818">
        <ele>1828</ele>
        <time>2024-08-12T10:49:36Z</time>
      </trkpt>
      <trkpt lat="44.76638" lon="6.32818">
        <ele>1828.2</ele>
        <time>2024-08-12T10:49:37Z</time>
      </trkpt>
      <trkpt lat="44.7664" lon="6.32818">
        <ele>1828.4</ele>
        <time>2024-08-12T10:49:38Z</time>
      </trkpt>
      <trkpt lat="44.7664" lon="6.32818">
        <ele>1828.4</ele>
        <time>2024-08-12T10:49:39Z</time>
      </trkpt>
      <trkpt lat="44.76643" lon="6.32818">
        <ele>1828.4</ele>
        <time>2024-08-12T10:49:40Z</time>
      </trkpt>
      <trkpt lat="44.76643" lon="6.32818">
        <ele>1828.4</ele>
        <time>2024-08-12T10:49:41Z</time>
      </trkpt>
      <trkpt lat="44.76645" lon="6.32817">
        <ele>1828.6</ele>
        <time>2024-08-12T10:49:42Z</time>
      </trkpt>
      <trkpt lat="44.76645" lon="6.32817">
        <ele>1828.6</ele>
        <time>2024-08-12T10:49:43Z</time>
      </trkpt>
      <trkpt lat="44.76647" lon="6.32818">
        <ele>1828.6</ele>
        <time>2024-08-12T10:49:44Z</time>
      </trkpt>
      <trkpt lat="44.76647" lon="6.32818">
        <ele>1829</ele>
        <time>2024-08-12T10:49:45Z</time>
      </trkpt>
      <trkpt lat="44.76647" lon="6.32818">
        <ele>1829.2</ele>
        <time>2024-08-12T10:49:46Z</time>
      </trkpt>
      <trkpt lat="44.76647" lon="6.32818">
        <ele>1829.6</ele>
        <time>2024-08-12T10:49:47Z</time>
      </trkpt>
      <trkpt lat="44.76647" lon="6.32818">
        <ele>1829.6</ele>
        <time>2024-08-12T10:49:48Z</time>
      </trkpt>
      <trkpt lat="44.76647" lon="6.32818">
        <ele>1829.6</ele>
        <time>2024-08-12T10:49:49Z</time>
      </trkpt>
      <trkpt lat="44.76647" lon="6.32818">
        <ele>1829.8</ele>
        <time>2024-08-12T10:49:50Z</time>
      </trkpt>
      <trkpt lat="44.76647" lon="6.32818">
        <ele>1829.8</ele>
        <time>2024-08-12T10:49:51Z</time>
      </trkpt>
      <trkpt lat="44.76647" lon="6.32818">
        <ele>1830</ele>
        <time>2024-08-12T10:49:52Z</time>
      </trkpt>
      <trkpt lat="44.76647" lon="6.32818">
        <ele>1830</ele>
        <time>2024-08-12T10:49:53Z</time>
      </trkpt>
      <trkpt lat="44.76647" lon="6.32818">
        <ele>1830.2</ele>
        <time>2024-08-12T10:49:54Z</time>
      </trkpt>
      <trkpt lat="44.76647" lon="6.32818">
        <ele>1830.4</ele>
        <time>2024-08-12T10:49:55Z</time>
      </trkpt>
      <trkpt lat="44.76647" lon="6.32818">
        <ele>1830.4</ele>
        <time>2024-08-12T10:49:56Z</time>
      </trkpt>
      <trkpt lat="44.76647" lon="6.32818">
        <ele>1830.4</ele>
        <time>2024-08-12T10:49:57Z</time>
      </trkpt>
      <trkpt lat="44.76647" lon="6.32818">
        <ele>1830.4</ele>
        <time>2024-08-12T10:49:58Z</time>
      </trkpt>
      <trkpt lat="44.76647" lon="6.32818">
        <ele>1830.6</ele>
        <time>2024-08-12T10:49:59Z</time>
      </trkpt>
      <trkpt lat="44.76647" lon="6.32818">
        <ele>1830.6</ele>
        <time>2024-08-12T10:50:00Z</time>
      </trkpt>
      <trkpt lat="44.7665" lon="6.3282">
        <ele>1830.6</ele>
        <time>2024-08-12T10:50:01Z</time>
      </trkpt>
      <trkpt lat="44.7665" lon="6.3282">
        <ele>1830.6</ele>
        <time>2024-08-12T10:50:02Z</time>
      </trkpt>
      <trkpt lat="44.76652" lon="6.32821">
        <ele>1830.6</ele>
        <time>2024-08-12T10:50:03Z</time>
      </trkpt>
      <trkpt lat="44.76652" lon="6.32821">
        <ele>1831</ele>
        <time>2024-08-12T10:50:04Z</time>
      </trkpt>
      <trkpt lat="44.76652" lon="6.32821">
        <ele>1831</ele>
        <time>2024-08-12T10:50:05Z</time>
      </trkpt>
      <trkpt lat="44.76652" lon="6.32821">
        <ele>1831</ele>
        <time>2024-08-12T10:50:06Z</time>
      </trkpt>
      <trkpt lat="44.76652" lon="6.32821">
        <ele>1830.8</ele>
        <time>2024-08-12T10:50:07Z</time>
      </trkpt>
      <trkpt lat="44.76655" lon="6.32823">
        <ele>1830.8</ele>
        <time>2024-08-12T10:50:08Z</time>
      </trkpt>
      <trkpt lat="44.76655" lon="6.32823">
        <ele>1830.8</ele>
        <time>2024-08-12T10:50:09Z</time>
      </trkpt>
      <trkpt lat="44.76657" lon="6.32825">
        <ele>1830.8</ele>
        <time>2024-08-12T10:50:10Z</time>
      </trkpt>
      <trkpt lat="44.76657" lon="6.32825">
        <ele>1830.8</ele>
        <time>2024-08-12T10:50:11Z</time>
      </trkpt>
      <trkpt lat="44.76659" lon="6.32827">
        <ele>1830.8</ele>
        <time>2024-08-12T10:50:12Z</time>
      </trkpt>
      <trkpt lat="44.76659" lon="6.32827">
        <ele>1831.2</ele>
        <time>2024-08-12T10:50:13Z</time>
      </trkpt>
      <trkpt lat="44.76661" lon="6.32828">
        <ele>1831.2</ele>
        <time>2024-08-12T10:50:14Z</time>
      </trkpt>
      <trkpt lat="44.76661" lon="6.32828">
        <ele>1831.4</ele>
        <time>2024-08-12T10:50:15Z</time>
      </trkpt>
      <trkpt lat="44.76663" lon="6.32829">
        <ele>1831.8</ele>
        <time>2024-08-12T10:50:16Z</time>
      </trkpt>
      <trkpt lat="44.76663" lon="6.32829">
        <ele>1831.8</ele>
        <time>2024-08-12T10:50:17Z</time>
      </trkpt>
      <trkpt lat="44.76664" lon="6.32831">
        <ele>1832.2</ele>
        <time>2024-08-12T10:50:18Z</time>
      </trkpt>
      <trkpt lat="44.76664" lon="6.32831">
        <ele>1832.2</ele>
        <time>2024-08-12T10:50:19Z</time>
      </trkpt>
      <trkpt lat="44.76666" lon="6.32832">
        <ele>1832.2</ele>
        <time>2024-08-12T10:50:20Z</time>
      </trkpt>
      <trkpt lat="44.76666" lon="6.32832">
        <ele>1832.2</ele>
        <time>2024-08-12T10:50:21Z</time>
      </trkpt>
      <trkpt lat="44.76668" lon="6.32833">
        <ele>1832.6</ele>
        <time>2024-08-12T10:50:22Z</time>
      </trkpt>
      <trkpt lat="44.76668" lon="6.32833">
        <ele>1832.6</ele>
        <time>2024-08-12T10:50:23Z</time>
      </trkpt>
      <trkpt lat="44.7667" lon="6.32834">
        <ele>1832.6</ele>
        <time>2024-08-12T10:50:24Z</time>
      </trkpt>
      <trkpt lat="44.7667" lon="6.32834">
        <ele>1832.6</ele>
        <time>2024-08-12T10:50:25Z</time>
      </trkpt>
      <trkpt lat="44.76672" lon="6.32836">
        <ele>1832.8</ele>
        <time>2024-08-12T10:50:26Z</time>
      </trkpt>
      <trkpt lat="44.76672" lon="6.32836">
        <ele>1832.8</ele>
        <time>2024-08-12T10:50:27Z</time>
      </trkpt>
      <trkpt lat="44.76674" lon="6.32837">
        <ele>1832.8</ele>
        <time>2024-08-12T10:50:28Z</time>
      </trkpt>
      <trkpt lat="44.76674" lon="6.32837">
        <ele>1833.2</ele>
        <time>2024-08-12T10:50:29Z</time>
      </trkpt>
      <trkpt lat="44.76676" lon="6.32839">
        <ele>1833.4</ele>
        <time>2024-08-12T10:50:30Z</time>
      </trkpt>
      <trkpt lat="44.76676" lon="6.32839">
        <ele>1833.4</ele>
        <time>2024-08-12T10:50:31Z</time>
      </trkpt>
      <trkpt lat="44.76676" lon="6.32839">
        <ele>1833.4</ele>
        <time>2024-08-12T10:50:32Z</time>
      </trkpt>
      <trkpt lat="44.76678" lon="6.32841">
        <ele>1833.4</ele>
        <time>2024-08-12T10:50:33Z</time>
      </trkpt>
      <trkpt lat="44.76678" lon="6.32841">
        <ele>1833.6</ele>
        <time>2024-08-12T10:50:34Z</time>
      </trkpt>
      <trkpt lat="44.7668" lon="6.32842">
        <ele>1833.8</ele>
        <time>2024-08-12T10:50:35Z</time>
      </trkpt>
      <trkpt lat="44.7668" lon="6.32842">
        <ele>1834</ele>
        <time>2024-08-12T10:50:36Z</time>
      </trkpt>
      <trkpt lat="44.76682" lon="6.32844">
        <ele>1834</ele>
        <time>2024-08-12T10:50:37Z</time>
      </trkpt>
      <trkpt lat="44.76682" lon="6.32844">
        <ele>1834.2</ele>
        <time>2024-08-12T10:50:38Z</time>
      </trkpt>
      <trkpt lat="44.76683" lon="6.32845">
        <ele>1834.4</ele>
        <time>2024-08-12T10:50:39Z</time>
      </trkpt>
      <trkpt lat="44.76683" lon="6.32845">
        <ele>1834.6</ele>
        <time>2024-08-12T10:50:40Z</time>
      </trkpt>
      <trkpt lat="44.76683" lon="6.32845">
        <ele>1834.6</ele>
        <time>2024-08-12T10:50:41Z</time>
      </trkpt>
      <trkpt lat="44.76686" lon="6.32847">
        <ele>1834.6</ele>
        <time>2024-08-12T10:50:42Z</time>
      </trkpt>
      <trkpt lat="44.76686" lon="6.32847">
        <ele>1835</ele>
        <time>2024-08-12T10:50:43Z</time>
      </trkpt>
      <trkpt lat="44.76688" lon="6.32847">
        <ele>1835.2</ele>
        <time>2024-08-12T10:50:44Z</time>
      </trkpt>
      <trkpt lat="44.76688" lon="6.32847">
        <ele>1835.2</ele>
        <time>2024-08-12T10:50:45Z</time>
      </trkpt>
      <trkpt lat="44.76688" lon="6.32847">
        <ele>1835.4</ele>
        <time>2024-08-12T10:50:46Z</time>
      </trkpt>
      <trkpt lat="44.7669" lon="6.32849">
        <ele>1835.6</ele>
        <time>2024-08-12T10:50:47Z</time>
      </trkpt>
      <trkpt lat="44.7669" lon="6.32849">
        <ele>1836</ele>
        <time>2024-08-12T10:50:48Z</time>
      </trkpt>
      <trkpt lat="44.76692" lon="6.32852">
        <ele>1836.2</ele>
        <time>2024-08-12T10:50:49Z</time>
      </trkpt>
      <trkpt lat="44.76692" lon="6.32852">
        <ele>1836.2</ele>
        <time>2024-08-12T10:50:50Z</time>
      </trkpt>
      <trkpt lat="44.76693" lon="6.32854">
        <ele>1836.6</ele>
        <time>2024-08-12T10:50:51Z</time>
      </trkpt>
      <trkpt lat="44.76693" lon="6.32854">
        <ele>1836.6</ele>
        <time>2024-08-12T10:50:52Z</time>
      </trkpt>
      <trkpt lat="44.76695" lon="6.32857">
        <ele>1836.4</ele>
        <time>2024-08-12T10:50:53Z</time>
      </trkpt>
      <trkpt lat="44.76695" lon="6.32857">
        <ele>1836.4</ele>
        <time>2024-08-12T10:50:54Z</time>
      </trkpt>
      <trkpt lat="44.76695" lon="6.32857">
        <ele>1836.8</ele>
        <time>2024-08-12T10:50:55Z</time>
      </trkpt>
      <trkpt lat="44.76697" lon="6.32859">
        <ele>1837</ele>
        <time>2024-08-12T10:50:56Z</time>
      </trkpt>
      <trkpt lat="44.76697" lon="6.32859">
        <ele>1837.2</ele>
        <time>2024-08-12T10:50:57Z</time>
      </trkpt>
      <trkpt lat="44.76699" lon="6.32861">
        <ele>1837.2</ele>
        <time>2024-08-12T10:50:58Z</time>
      </trkpt>
      <trkpt lat="44.76699" lon="6.32861">
        <ele>1837.2</ele>
        <time>2024-08-12T10:50:59Z</time>
      </trkpt>
      <trkpt lat="44.76699" lon="6.32861">
        <ele>1837.4</ele>
        <time>2024-08-12T10:51:00Z</time>
      </trkpt>
      <trkpt lat="44.76702" lon="6.32862">
        <ele>1837.4</ele>
        <time>2024-08-12T10:51:01Z</time>
      </trkpt>
      <trkpt lat="44.76702" lon="6.32862">
        <ele>1837.8</ele>
        <time>2024-08-12T10:51:02Z</time>
      </trkpt>
      <trkpt lat="44.76704" lon="6.32863">
        <ele>1837.8</ele>
        <time>2024-08-12T10:51:03Z</time>
      </trkpt>
      <trkpt lat="44.76704" lon="6.32863">
        <ele>1838</ele>
        <time>2024-08-12T10:51:04Z</time>
      </trkpt>
      <trkpt lat="44.76706" lon="6.32864">
        <ele>1838.2</ele>
        <time>2024-08-12T10:51:05Z</time>
      </trkpt>
      <trkpt lat="44.76706" lon="6.32864">
        <ele>1838.4</ele>
        <time>2024-08-12T10:51:06Z</time>
      </trkpt>
      <trkpt lat="44.76708" lon="6.32865">
        <ele>1838.6</ele>
        <time>2024-08-12T10:51:07Z</time>
      </trkpt>
      <trkpt lat="44.76708" lon="6.32865">
        <ele>1838.6</ele>
        <time>2024-08-12T10:51:08Z</time>
      </trkpt>
      <trkpt lat="44.7671" lon="6.32866">
        <ele>1838.6</ele>
        <time>2024-08-12T10:51:09Z</time>
      </trkpt>
      <trkpt lat="44.7671" lon="6.32866">
        <ele>1838.6</ele>
        <time>2024-08-12T10:51:10Z</time>
      </trkpt>
      <trkpt lat="44.7671" lon="6.32866">
        <ele>1838.8</ele>
        <time>2024-08-12T10:51:11Z</time>
      </trkpt>
      <trkpt lat="44.76712" lon="6.32867">
        <ele>1839</ele>
        <time>2024-08-12T10:51:12Z</time>
      </trkpt>
      <trkpt lat="44.76712" lon="6.32867">
        <ele>1839</ele>
        <time>2024-08-12T10:51:13Z</time>
      </trkpt>
      <trkpt lat="44.76714" lon="6.32868">
        <ele>1839.6</ele>
        <time>2024-08-12T10:51:14Z</time>
      </trkpt>
      <trkpt lat="44.76714" lon="6.32868">
        <ele>1839.8</ele>
        <time>2024-08-12T10:51:15Z</time>
      </trkpt>
      <trkpt lat="44.76716" lon="6.32869">
        <ele>1839.8</ele>
        <time>2024-08-12T10:51:16Z</time>
      </trkpt>
      <trkpt lat="44.76716" lon="6.32869">
        <ele>1839.8</ele>
        <time>2024-08-12T10:51:17Z</time>
      </trkpt>
      <trkpt lat="44.76718" lon="6.3287">
        <ele>1840.2</ele>
        <time>2024-08-12T10:51:18Z</time>
      </trkpt>
      <trkpt lat="44.76718" lon="6.3287">
        <ele>1840.2</ele>
        <time>2024-08-12T10:51:19Z</time>
      </trkpt>
      <trkpt lat="44.76718" lon="6.3287">
        <ele>1840.4</ele>
        <time>2024-08-12T10:51:20Z</time>
      </trkpt>
      <trkpt lat="44.76721" lon="6.32872">
        <ele>1840.8</ele>
        <time>2024-08-12T10:51:21Z</time>
      </trkpt>
      <trkpt lat="44.76721" lon="6.32872">
        <ele>1841</ele>
        <time>2024-08-12T10:51:22Z</time>
      </trkpt>
      <trkpt lat="44.76721" lon="6.32872">
        <ele>1841.2</ele>
        <time>2024-08-12T10:51:23Z</time>
      </trkpt>
      <trkpt lat="44.76724" lon="6.32873">
        <ele>1841.2</ele>
        <time>2024-08-12T10:51:24Z</time>
      </trkpt>
      <trkpt lat="44.76724" lon="6.32873">
        <ele>1841.2</ele>
        <time>2024-08-12T10:51:25Z</time>
      </trkpt>
      <trkpt lat="44.76725" lon="6.32875">
        <ele>1841.4</ele>
        <time>2024-08-12T10:51:26Z</time>
      </trkpt>
      <trkpt lat="44.76725" lon="6.32875">
        <ele>1841.4</ele>
        <time>2024-08-12T10:51:27Z</time>
      </trkpt>
      <trkpt lat="44.76725" lon="6.32875">
        <ele>1841.2</ele>
        <time>2024-08-12T10:51:28Z</time>
      </trkpt>
      <trkpt lat="44.76727" lon="6.32876">
        <ele>1841.2</ele>
        <time>2024-08-12T10:51:29Z</time>
      </trkpt>
      <trkpt lat="44.76727" lon="6.32876">
        <ele>1841.4</ele>
        <time>2024-08-12T10:51:30Z</time>
      </trkpt>
      <trkpt lat="44.76729" lon="6.32878">
        <ele>1841.4</ele>
        <time>2024-08-12T10:51:31Z</time>
      </trkpt>
      <trkpt lat="44.76729" lon="6.32878">
        <ele>1841.6</ele>
        <time>2024-08-12T10:51:32Z</time>
      </trkpt>
      <trkpt lat="44.76731" lon="6.32879">
        <ele>1841.6</ele>
        <time>2024-08-12T10:51:33Z</time>
      </trkpt>
      <trkpt lat="44.76731" lon="6.32879">
        <ele>1841.6</ele>
        <time>2024-08-12T10:51:34Z</time>
      </trkpt>
      <trkpt lat="44.76731" lon="6.32879">
        <ele>1841.8</ele>
        <time>2024-08-12T10:51:35Z</time>
      </trkpt>
      <trkpt lat="44.76733" lon="6.32881">
        <ele>1842</ele>
        <time>2024-08-12T10:51:36Z</time>
      </trkpt>
      <trkpt lat="44.76733" lon="6.32881">
        <ele>1842.2</ele>
        <time>2024-08-12T10:51:37Z</time>
      </trkpt>
      <trkpt lat="44.76735" lon="6.32883">
        <ele>1842.4</ele>
        <time>2024-08-12T10:51:38Z</time>
      </trkpt>
      <trkpt lat="44.76735" lon="6.32883">
        <ele>1842.4</ele>
        <time>2024-08-12T10:51:39Z</time>
      </trkpt>
      <trkpt lat="44.76736" lon="6.32884">
        <ele>1842.4</ele>
        <time>2024-08-12T10:51:40Z</time>
      </trkpt>
      <trkpt lat="44.76736" lon="6.32884">
        <ele>1842.4</ele>
        <time>2024-08-12T10:51:41Z</time>
      </trkpt>
      <trkpt lat="44.76738" lon="6.32886">
        <ele>1842.8</ele>
        <time>2024-08-12T10:51:42Z</time>
      </trkpt>
      <trkpt lat="44.76738" lon="6.32886">
        <ele>1843</ele>
        <time>2024-08-12T10:51:43Z</time>
      </trkpt>
      <trkpt lat="44.76738" lon="6.32886">
        <ele>1843</ele>
        <time>2024-08-12T10:51:44Z</time>
      </trkpt>
      <trkpt lat="44.7674" lon="6.32888">
        <ele>1843</ele>
        <time>2024-08-12T10:51:45Z</time>
      </trkpt>
      <trkpt lat="44.7674" lon="6.32888">
        <ele>1843.2</ele>
        <time>2024-08-12T10:51:46Z</time>
      </trkpt>
      <trkpt lat="44.76742" lon="6.32888">
        <ele>1843.4</ele>
        <time>2024-08-12T10:51:47Z</time>
      </trkpt>
      <trkpt lat="44.76742" lon="6.32888">
        <ele>1843.4</ele>
        <time>2024-08-12T10:51:48Z</time>
      </trkpt>
      <trkpt lat="44.76744" lon="6.32889">
        <ele>1843.6</ele>
        <time>2024-08-12T10:51:49Z</time>
      </trkpt>
      <trkpt lat="44.76744" lon="6.32889">
        <ele>1843.6</ele>
        <time>2024-08-12T10:51:50Z</time>
      </trkpt>
      <trkpt lat="44.76746" lon="6.32891">
        <ele>1843.6</ele>
        <time>2024-08-12T10:51:51Z</time>
      </trkpt>
      <trkpt lat="44.76746" lon="6.32891">
        <ele>1843.8</ele>
        <time>2024-08-12T10:51:52Z</time>
      </trkpt>
      <trkpt lat="44.76747" lon="6.32893">
        <ele>1843.8</ele>
        <time>2024-08-12T10:51:53Z</time>
      </trkpt>
      <trkpt lat="44.76747" lon="6.32893">
        <ele>1844</ele>
        <time>2024-08-12T10:51:54Z</time>
      </trkpt>
      <trkpt lat="44.76747" lon="6.32893">
        <ele>1844.4</ele>
        <time>2024-08-12T10:51:55Z</time>
      </trkpt>
      <trkpt lat="44.76749" lon="6.32895">
        <ele>1844.4</ele>
        <time>2024-08-12T10:51:56Z</time>
      </trkpt>
      <trkpt lat="44.76749" lon="6.32895">
        <ele>1844.6</ele>
        <time>2024-08-12T10:51:57Z</time>
      </trkpt>
      <trkpt lat="44.76751" lon="6.32896">
        <ele>1844.4</ele>
        <time>2024-08-12T10:51:58Z</time>
      </trkpt>
      <trkpt lat="44.76751" lon="6.32896">
        <ele>1844.6</ele>
        <time>2024-08-12T10:51:59Z</time>
      </trkpt>
      <trkpt lat="44.76752" lon="6.32898">
        <ele>1844.6</ele>
        <time>2024-08-12T10:52:00Z</time>
      </trkpt>
      <trkpt lat="44.76752" lon="6.32898">
        <ele>1844.8</ele>
        <time>2024-08-12T10:52:01Z</time>
      </trkpt>
      <trkpt lat="44.76754" lon="6.329">
        <ele>1845.2</ele>
        <time>2024-08-12T10:52:02Z</time>
      </trkpt>
      <trkpt lat="44.76754" lon="6.329">
        <ele>1845.2</ele>
        <time>2024-08-12T10:52:03Z</time>
      </trkpt>
      <trkpt lat="44.76754" lon="6.329">
        <ele>1845.4</ele>
        <time>2024-08-12T10:52:04Z</time>
      </trkpt>
      <trkpt lat="44.76756" lon="6.32902">
        <ele>1845.8</ele>
        <time>2024-08-12T10:52:05Z</time>
      </trkpt>
      <trkpt lat="44.76756" lon="6.32902">
        <ele>1845.6</ele>
        <time>2024-08-12T10:52:06Z</time>
      </trkpt>
      <trkpt lat="44.76758" lon="6.32903">
        <ele>1845.6</ele>
        <time>2024-08-12T10:52:07Z</time>
      </trkpt>
      <trkpt lat="44.76758" lon="6.32903">
        <ele>1846</ele>
        <time>2024-08-12T10:52:08Z</time>
      </trkpt>
      <trkpt lat="44.76759" lon="6.32905">
        <ele>1846.2</ele>
        <time>2024-08-12T10:52:09Z</time>
      </trkpt>
      <trkpt lat="44.76759" lon="6.32905">
        <ele>1846.2</ele>
        <time>2024-08-12T10:52:10Z</time>
      </trkpt>
      <trkpt lat="44.76759" lon="6.32905">
        <ele>1846.4</ele>
        <time>2024-08-12T10:52:11Z</time>
      </trkpt>
      <trkpt lat="44.76762" lon="6.32906">
        <ele>1846.6</ele>
        <time>2024-08-12T10:52:12Z</time>
      </trkpt>
      <trkpt lat="44.76762" lon="6.32906">
        <ele>1846.8</ele>
        <time>2024-08-12T10:52:13Z</time>
      </trkpt>
      <trkpt lat="44.76762" lon="6.32906">
        <ele>1846.8</ele>
        <time>2024-08-12T10:52:14Z</time>
      </trkpt>
      <trkpt lat="44.76764" lon="6.32908">
        <ele>1847</ele>
        <time>2024-08-12T10:52:15Z</time>
      </trkpt>
      <trkpt lat="44.76764" lon="6.32908">
        <ele>1847.2</ele>
        <time>2024-08-12T10:52:16Z</time>
      </trkpt>
      <trkpt lat="44.76766" lon="6.3291">
        <ele>1847.8</ele>
        <time>2024-08-12T10:52:17Z</time>
      </trkpt>
      <trkpt lat="44.76766" lon="6.3291">
        <ele>1847.8</ele>
        <time>2024-08-12T10:52:18Z</time>
      </trkpt>
      <trkpt lat="44.76767" lon="6.32912">
        <ele>1847.8</ele>
        <time>2024-08-12T10:52:19Z</time>
      </trkpt>
      <trkpt lat="44.76767" lon="6.32912">
        <ele>1847.8</ele>
        <time>2024-08-12T10:52:20Z</time>
      </trkpt>
      <trkpt lat="44.76769" lon="6.32913">
        <ele>1848</ele>
        <time>2024-08-12T10:52:21Z</time>
      </trkpt>
      <trkpt lat="44.76769" lon="6.32913">
        <ele>1848.2</ele>
        <time>2024-08-12T10:52:22Z</time>
      </trkpt>
      <trkpt lat="44.76771" lon="6.32915">
        <ele>1848.4</ele>
        <time>2024-08-12T10:52:23Z</time>
      </trkpt>
      <trkpt lat="44.76771" lon="6.32915">
        <ele>1848.4</ele>
        <time>2024-08-12T10:52:24Z</time>
      </trkpt>
      <trkpt lat="44.76772" lon="6.32917">
        <ele>1848.4</ele>
        <time>2024-08-12T10:52:25Z</time>
      </trkpt>
      <trkpt lat="44.76772" lon="6.32917">
        <ele>1848.6</ele>
        <time>2024-08-12T10:52:26Z</time>
      </trkpt>
      <trkpt lat="44.76774" lon="6.32918">
        <ele>1848.8</ele>
        <time>2024-08-12T10:52:27Z</time>
      </trkpt>
      <trkpt lat="44.76774" lon="6.32918">
        <ele>1849.2</ele>
        <time>2024-08-12T10:52:28Z</time>
      </trkpt>
      <trkpt lat="44.76775" lon="6.3292">
        <ele>1849.4</ele>
        <time>2024-08-12T10:52:29Z</time>
      </trkpt>
      <trkpt lat="44.76775" lon="6.3292">
        <ele>1849.6</ele>
        <time>2024-08-12T10:52:30Z</time>
      </trkpt>
      <trkpt lat="44.76778" lon="6.32921">
        <ele>1850</ele>
        <time>2024-08-12T10:52:31Z</time>
      </trkpt>
      <trkpt lat="44.76778" lon="6.32921">
        <ele>1850</ele>
        <time>2024-08-12T10:52:32Z</time>
      </trkpt>
      <trkpt lat="44.76779" lon="6.32923">
        <ele>1850.4</ele>
        <time>2024-08-12T10:52:33Z</time>
      </trkpt>
      <trkpt lat="44.76779" lon="6.32923">
        <ele>1850.6</ele>
        <time>2024-08-12T10:52:34Z</time>
      </trkpt>
      <trkpt lat="44.76779" lon="6.32923">
        <ele>1850.6</ele>
        <time>2024-08-12T10:52:35Z</time>
      </trkpt>
      <trkpt lat="44.76781" lon="6.32926">
        <ele>1850.4</ele>
        <time>2024-08-12T10:52:36Z</time>
      </trkpt>
      <trkpt lat="44.76781" lon="6.32926">
        <ele>1850.4</ele>
        <time>2024-08-12T10:52:37Z</time>
      </trkpt>
      <trkpt lat="44.76781" lon="6.32926">
        <ele>1850.6</ele>
        <time>2024-08-12T10:52:38Z</time>
      </trkpt>
      <trkpt lat="44.76784" lon="6.32927">
        <ele>1851</ele>
        <time>2024-08-12T10:52:39Z</time>
      </trkpt>
      <trkpt lat="44.76784" lon="6.32927">
        <ele>1851</ele>
        <time>2024-08-12T10:52:40Z</time>
      </trkpt>
      <trkpt lat="44.76785" lon="6.32929">
        <ele>1851</ele>
        <time>2024-08-12T10:52:41Z</time>
      </trkpt>
      <trkpt lat="44.76785" lon="6.32929">
        <ele>1851</ele>
        <time>2024-08-12T10:52:42Z</time>
      </trkpt>
      <trkpt lat="44.76785" lon="6.32929">
        <ele>1851</ele>
        <time>2024-08-12T10:52:43Z</time>
      </trkpt>
      <trkpt lat="44.76785" lon="6.32929">
        <ele>1851</ele>
        <time>2024-08-12T10:52:44Z</time>
      </trkpt>
      <trkpt lat="44.76787" lon="6.32928">
        <ele>1851.2</ele>
        <time>2024-08-12T10:52:45Z</time>
      </trkpt>
      <trkpt lat="44.76787" lon="6.32928">
        <ele>1851.4</ele>
        <time>2024-08-12T10:52:46Z</time>
      </trkpt>
      <trkpt lat="44.76789" lon="6.32929">
        <ele>1851.4</ele>
        <time>2024-08-12T10:52:47Z</time>
      </trkpt>
      <trkpt lat="44.76789" lon="6.32929">
        <ele>1851.4</ele>
        <time>2024-08-12T10:52:48Z</time>
      </trkpt>
      <trkpt lat="44.76789" lon="6.32929">
        <ele>1851.4</ele>
        <time>2024-08-12T10:52:49Z</time>
      </trkpt>
      <trkpt lat="44.7679" lon="6.32932">
        <ele>1851.8</ele>
        <time>2024-08-12T10:52:50Z</time>
      </trkpt>
      <trkpt lat="44.7679" lon="6.32932">
        <ele>1851.8</ele>
        <time>2024-08-12T10:52:51Z</time>
      </trkpt>
      <trkpt lat="44.76791" lon="6.32935">
        <ele>1851.8</ele>
        <time>2024-08-12T10:52:52Z</time>
      </trkpt>
      <trkpt lat="44.76791" lon="6.32935">
        <ele>1851.8</ele>
        <time>2024-08-12T10:52:53Z</time>
      </trkpt>
      <trkpt lat="44.76791" lon="6.32937">
        <ele>1851.8</ele>
        <time>2024-08-12T10:52:54Z</time>
      </trkpt>
      <trkpt lat="44.76791" lon="6.32937">
        <ele>1852</ele>
        <time>2024-08-12T10:52:55Z</time>
      </trkpt>
      <trkpt lat="44.76793" lon="6.3294">
        <ele>1852</ele>
        <time>2024-08-12T10:52:56Z</time>
      </trkpt>
      <trkpt lat="44.76793" lon="6.3294">
        <ele>1852</ele>
        <time>2024-08-12T10:52:57Z</time>
      </trkpt>
      <trkpt lat="44.76793" lon="6.3294">
        <ele>1852.2</ele>
        <time>2024-08-12T10:52:58Z</time>
      </trkpt>
      <trkpt lat="44.76794" lon="6.32943">
        <ele>1852.4</ele>
        <time>2024-08-12T10:52:59Z</time>
      </trkpt>
      <trkpt lat="44.76794" lon="6.32943">
        <ele>1852.4</ele>
        <time>2024-08-12T10:53:00Z</time>
      </trkpt>
      <trkpt lat="44.76794" lon="6.32943">
        <ele>1852.6</ele>
        <time>2024-08-12T10:53:01Z</time>
      </trkpt>
      <trkpt lat="44.76794" lon="6.32943">
        <ele>1852.6</ele>
        <time>2024-08-12T10:53:02Z</time>
      </trkpt>
      <trkpt lat="44.76793" lon="6.32946">
        <ele>1852.6</ele>
        <time>2024-08-12T10:53:03Z</time>
      </trkpt>
      <trkpt lat="44.76793" lon="6.32946">
        <ele>1852.4</ele>
        <time>2024-08-12T10:53:04Z</time>
      </trkpt>
      <trkpt lat="44.76793" lon="6.32946">
        <ele>1852.4</ele>
        <time>2024-08-12T10:53:05Z</time>
      </trkpt>
      <trkpt lat="44.76793" lon="6.32946">
        <ele>1852</ele>
        <time>2024-08-12T10:53:06Z</time>
      </trkpt>
      <trkpt lat="44.76793" lon="6.32946">
        <ele>1852</ele>
        <time>2024-08-12T10:53:07Z</time>
      </trkpt>
      <trkpt lat="44.76793" lon="6.32949">
        <ele>1851.8</ele>
        <time>2024-08-12T10:53:08Z</time>
      </trkpt>
      <trkpt lat="44.76793" lon="6.32949">
        <ele>1851.8</ele>
        <time>2024-08-12T10:53:09Z</time>
      </trkpt>
      <trkpt lat="44.76793" lon="6.32949">
        <ele>1851.6</ele>
        <time>2024-08-12T10:53:10Z</time>
      </trkpt>
      <trkpt lat="44.76793" lon="6.32949">
        <ele>1851.6</ele>
        <time>2024-08-12T10:53:11Z</time>
      </trkpt>
      <trkpt lat="44.76793" lon="6.32949">
        <ele>1851.6</ele>
        <time>2024-08-12T10:53:12Z</time>
      </trkpt>
      <trkpt lat="44.76791" lon="6.32949">
        <ele>1851.4</ele>
        <time>2024-08-12T10:53:13Z</time>
      </trkpt>
      <trkpt lat="44.76791" lon="6.32949">
        <ele>1851.4</ele>
        <time>2024-08-12T10:53:14Z</time>
      </trkpt>
      <trkpt lat="44.76791" lon="6.32949">
        <ele>1851.4</ele>
        <time>2024-08-12T10:53:15Z</time>
      </trkpt>
      <trkpt lat="44.76791" lon="6.32949">
        <ele>1851.2</ele>
        <time>2024-08-12T10:53:16Z</time>
      </trkpt>
      <trkpt lat="44.76791" lon="6.32949">
        <ele>1851.2</ele>
        <time>2024-08-12T10:53:17Z</time>
      </trkpt>
      <trkpt lat="44.76791" lon="6.32949">
        <ele>1851</ele>
        <time>2024-08-12T10:53:18Z</time>
      </trkpt>
      <trkpt lat="44.76791" lon="6.32949">
        <ele>1851</ele>
        <time>2024-08-12T10:53:19Z</time>
      </trkpt>
      <trkpt lat="44.76791" lon="6.32949">
        <ele>1851</ele>
        <time>2024-08-12T10:53:20Z</time>
      </trkpt>
      <trkpt lat="44.76791" lon="6.32949">
        <ele>1851.2</ele>
        <time>2024-08-12T10:53:21Z</time>
      </trkpt>
      <trkpt lat="44.76791" lon="6.32949">
        <ele>1851.2</ele>
        <time>2024-08-12T10:53:22Z</time>
      </trkpt>
      <trkpt lat="44.76791" lon="6.32949">
        <ele>1851.2</ele>
        <time>2024-08-12T10:53:23Z</time>
      </trkpt>
      <trkpt lat="44.76791" lon="6.32949">
        <ele>1851</ele>
        <time>2024-08-12T10:53:24Z</time>
      </trkpt>
      <trkpt lat="44.76791" lon="6.32949">
        <ele>1850.8</ele>
        <time>2024-08-12T10:53:25Z</time>
      </trkpt>
      <trkpt lat="44.76791" lon="6.32949">
        <ele>1850.8</ele>
        <time>2024-08-12T10:53:26Z</time>
      </trkpt>
      <trkpt lat="44.76791" lon="6.32949">
        <ele>1850.8</ele>
        <time>2024-08-12T10:53:27Z</time>
      </trkpt>
      <trkpt lat="44.76791" lon="6.32949">
        <ele>1850.8</ele>
        <time>2024-08-12T10:53:28Z</time>
      </trkpt>
      <trkpt lat="44.76791" lon="6.32949">
        <ele>1850.8</ele>
        <time>2024-08-12T10:53:29Z</time>
      </trkpt>
      <trkpt lat="44.76791" lon="6.32949">
        <ele>1850.8</ele>
        <time>2024-08-12T10:53:30Z</time>
      </trkpt>
      <trkpt lat="44.76791" lon="6.32949">
        <ele>1850.8</ele>
        <time>2024-08-12T10:53:31Z</time>
      </trkpt>
      <trkpt lat="44.76791" lon="6.32949">
        <ele>1850.8</ele>
        <time>2024-08-12T10:53:32Z</time>
      </trkpt>
      <trkpt lat="44.76791" lon="6.32949">
        <ele>1850.8</ele>
        <time>2024-08-12T10:53:33Z</time>
      </trkpt>
      <trkpt lat="44.76791" lon="6.32949">
        <ele>1850.4</ele>
        <time>2024-08-12T10:53:34Z</time>
      </trkpt>
      <trkpt lat="44.76791" lon="6.32949">
        <ele>1850</ele>
        <time>2024-08-12T10:53:35Z</time>
      </trkpt>
      <trkpt lat="44.76791" lon="6.32949">
        <ele>1850</ele>
        <time>2024-08-12T10:53:36Z</time>
      </trkpt>
      <trkpt lat="44.76791" lon="6.32949">
        <ele>1850</ele>
        <time>2024-08-12T10:53:37Z</time>
      </trkpt>
      <trkpt lat="44.76791" lon="6.32949">
        <ele>1850.2</ele>
        <time>2024-08-12T10:53:38Z</time>
      </trkpt>
      <trkpt lat="44.76791" lon="6.32949">
        <ele>1850.2</ele>
        <time>2024-08-12T10:53:39Z</time>
      </trkpt>
      <trkpt lat="44.76791" lon="6.32949">
        <ele>1850.2</ele>
        <time>2024-08-12T10:53:40Z</time>
      </trkpt>
      <trkpt lat="44.76791" lon="6.32949">
        <ele>1850.4</ele>
        <time>2024-08-12T10:53:41Z</time>
      </trkpt>
      <trkpt lat="44.76791" lon="6.32949">
        <ele>1850.4</ele>
        <time>2024-08-12T10:53:42Z</time>
      </trkpt>
      <trkpt lat="44.76791" lon="6.32949">
        <ele>1850.4</ele>
        <time>2024-08-12T10:53:43Z</time>
      </trkpt>
      <trkpt lat="44.76791" lon="6.32949">
        <ele>1850.4</ele>
        <time>2024-08-12T10:53:44Z</time>
      </trkpt>
      <trkpt lat="44.76791" lon="6.32949">
        <ele>1850.4</ele>
        <time>2024-08-12T10:53:45Z</time>
      </trkpt>
      <trkpt lat="44.76791" lon="6.32949">
        <ele>1850.4</ele>
        <time>2024-08-12T10:53:46Z</time>
      </trkpt>
      <trkpt lat="44.76791" lon="6.32949">
        <ele>1850.4</ele>
        <time>2024-08-12T10:53:47Z</time>
      </trkpt>
      <trkpt lat="44.76791" lon="6.32949">
        <ele>1850.8</ele>
        <time>2024-08-12T10:53:48Z</time>
      </trkpt>
      <trkpt lat="44.76791" lon="6.32949">
        <ele>1850.8</ele>
        <time>2024-08-12T10:53:49Z</time>
      </trkpt>
      <trkpt lat="44.76791" lon="6.32949">
        <ele>1850.8</ele>
        <time>2024-08-12T10:53:50Z</time>
      </trkpt>
      <trkpt lat="44.76791" lon="6.32949">
        <ele>1850.8</ele>
        <time>2024-08-12T10:53:51Z</time>
      </trkpt>
      <trkpt lat="44.76791" lon="6.32949">
        <ele>1850.8</ele>
        <time>2024-08-12T10:53:52Z</time>
      </trkpt>
      <trkpt lat="44.76791" lon="6.32949">
        <ele>1850.6</ele>
        <time>2024-08-12T10:53:53Z</time>
      </trkpt>
      <trkpt lat="44.76791" lon="6.32949">
        <ele>1850.4</ele>
        <time>2024-08-12T10:53:54Z</time>
      </trkpt>
      <trkpt lat="44.76791" lon="6.32949">
        <ele>1850.4</ele>
        <time>2024-08-12T10:53:55Z</time>
      </trkpt>
      <trkpt lat="44.76791" lon="6.32949">
        <ele>1850.6</ele>
        <time>2024-08-12T10:53:56Z</time>
      </trkpt>
      <trkpt lat="44.76791" lon="6.32949">
        <ele>1850.6</ele>
        <time>2024-08-12T10:53:57Z</time>
      </trkpt>
      <trkpt lat="44.76791" lon="6.32949">
        <ele>1850.6</ele>
        <time>2024-08-12T10:53:58Z</time>
      </trkpt>
      <trkpt lat="44.76791" lon="6.32949">
        <ele>1850.4</ele>
        <time>2024-08-12T10:53:59Z</time>
      </trkpt>
      <trkpt lat="44.76791" lon="6.32949">
        <ele>1850.4</ele>
        <time>2024-08-12T10:54:00Z</time>
      </trkpt>
      <trkpt lat="44.76791" lon="6.32949">
        <ele>1850.4</ele>
        <time>2024-08-12T10:54:01Z</time>
      </trkpt>
      <trkpt lat="44.76791" lon="6.32949">
        <ele>1850.6</ele>
        <time>2024-08-12T10:54:02Z</time>
      </trkpt>
      <trkpt lat="44.76791" lon="6.32949">
        <ele>1850.6</ele>
        <time>2024-08-12T10:54:03Z</time>
      </trkpt>
      <trkpt lat="44.76791" lon="6.32949">
        <ele>1850.6</ele>
        <time>2024-08-12T10:54:04Z</time>
      </trkpt>
      <trkpt lat="44.76791" lon="6.32949">
        <ele>1850.6</ele>
        <time>2024-08-12T10:54:05Z</time>
      </trkpt>
      <trkpt lat="44.76791" lon="6.32949">
        <ele>1850.6</ele>
        <time>2024-08-12T10:54:06Z</time>
      </trkpt>
      <trkpt lat="44.76791" lon="6.32949">
        <ele>1850.8</ele>
        <time>2024-08-12T10:54:07Z</time>
      </trkpt>
      <trkpt lat="44.76791" lon="6.32949">
        <ele>1850.6</ele>
        <time>2024-08-12T10:54:08Z</time>
      </trkpt>
      <trkpt lat="44.76791" lon="6.32949">
        <ele>1850.6</ele>
        <time>2024-08-12T10:54:09Z</time>
      </trkpt>
      <trkpt lat="44.76791" lon="6.32949">
        <ele>1850.6</ele>
        <time>2024-08-12T10:54:10Z</time>
      </trkpt>
      <trkpt lat="44.76791" lon="6.32949">
        <ele>1850.6</ele>
        <time>2024-08-12T10:54:11Z</time>
      </trkpt>
      <trkpt lat="44.76791" lon="6.32949">
        <ele>1850.6</ele>
        <time>2024-08-12T10:54:12Z</time>
      </trkpt>
      <trkpt lat="44.76791" lon="6.32949">
        <ele>1850.8</ele>
        <time>2024-08-12T10:54:13Z</time>
      </trkpt>
      <trkpt lat="44.76791" lon="6.32949">
        <ele>1850.8</ele>
        <time>2024-08-12T10:54:14Z</time>
      </trkpt>
      <trkpt lat="44.76791" lon="6.32949">
        <ele>1850.6</ele>
        <time>2024-08-12T10:54:15Z</time>
      </trkpt>
      <trkpt lat="44.76791" lon="6.32949">
        <ele>1850.6</ele>
        <time>2024-08-12T10:54:16Z</time>
      </trkpt>
      <trkpt lat="44.76791" lon="6.32949">
        <ele>1850.6</ele>
        <time>2024-08-12T10:54:17Z</time>
      </trkpt>
      <trkpt lat="44.76791" lon="6.32949">
        <ele>1850.6</ele>
        <time>2024-08-12T10:54:18Z</time>
      </trkpt>
      <trkpt lat="44.76791" lon="6.32949">
        <ele>1850.6</ele>
        <time>2024-08-12T10:54:19Z</time>
      </trkpt>
      <trkpt lat="44.76791" lon="6.32949">
        <ele>1850.6</ele>
        <time>2024-08-12T10:54:20Z</time>
      </trkpt>
      <trkpt lat="44.76791" lon="6.32949">
        <ele>1850.6</ele>
        <time>2024-08-12T10:54:21Z</time>
      </trkpt>
      <trkpt lat="44.76791" lon="6.32949">
        <ele>1850.8</ele>
        <time>2024-08-12T10:54:22Z</time>
      </trkpt>
      <trkpt lat="44.76791" lon="6.32949">
        <ele>1850.8</ele>
        <time>2024-08-12T10:54:23Z</time>
      </trkpt>
      <trkpt lat="44.76791" lon="6.32949">
        <ele>1850.6</ele>
        <time>2024-08-12T10:54:24Z</time>
      </trkpt>
      <trkpt lat="44.76791" lon="6.32949">
        <ele>1850.4</ele>
        <time>2024-08-12T10:54:25Z</time>
      </trkpt>
      <trkpt lat="44.76791" lon="6.32949">
        <ele>1850.4</ele>
        <time>2024-08-12T10:54:26Z</time>
      </trkpt>
      <trkpt lat="44.76791" lon="6.32949">
        <ele>1850.4</ele>
        <time>2024-08-12T10:54:27Z</time>
      </trkpt>
      <trkpt lat="44.76791" lon="6.32949">
        <ele>1850.2</ele>
        <time>2024-08-12T10:54:28Z</time>
      </trkpt>
      <trkpt lat="44.76791" lon="6.32949">
        <ele>1850.2</ele>
        <time>2024-08-12T10:54:29Z</time>
      </trkpt>
      <trkpt lat="44.76791" lon="6.32949">
        <ele>1850.2</ele>
        <time>2024-08-12T10:54:30Z</time>
      </trkpt>
      <trkpt lat="44.76791" lon="6.32949">
        <ele>1850.4</ele>
        <time>2024-08-12T10:54:31Z</time>
      </trkpt>
      <trkpt lat="44.76791" lon="6.32949">
        <ele>1850.6</ele>
        <time>2024-08-12T10:54:32Z</time>
      </trkpt>
      <trkpt lat="44.76791" lon="6.32949">
        <ele>1850.6</ele>
        <time>2024-08-12T10:54:33Z</time>
      </trkpt>
      <trkpt lat="44.76791" lon="6.32949">
        <ele>1850.6</ele>
        <time>2024-08-12T10:54:34Z</time>
      </trkpt>
      <trkpt lat="44.76791" lon="6.32949">
        <ele>1850.4</ele>
        <time>2024-08-12T10:54:35Z</time>
      </trkpt>
      <trkpt lat="44.76791" lon="6.32949">
        <ele>1850.4</ele>
        <time>2024-08-12T10:54:36Z</time>
      </trkpt>
      <trkpt lat="44.76791" lon="6.32949">
        <ele>1850.6</ele>
        <time>2024-08-12T10:54:37Z</time>
      </trkpt>
      <trkpt lat="44.76791" lon="6.32949">
        <ele>1850.6</ele>
        <time>2024-08-12T10:54:38Z</time>
      </trkpt>
      <trkpt lat="44.76791" lon="6.32949">
        <ele>1850.4</ele>
        <time>2024-08-12T10:54:39Z</time>
      </trkpt>
      <trkpt lat="44.76791" lon="6.32949">
        <ele>1850.4</ele>
        <time>2024-08-12T10:54:40Z</time>
      </trkpt>
      <trkpt lat="44.76791" lon="6.32949">
        <ele>1850.4</ele>
        <time>2024-08-12T10:54:41Z</time>
      </trkpt>
      <trkpt lat="44.76791" lon="6.32949">
        <ele>1850.4</ele>
        <time>2024-08-12T10:54:42Z</time>
      </trkpt>
      <trkpt lat="44.76791" lon="6.32949">
        <ele>1850.6</ele>
        <time>2024-08-12T10:54:43Z</time>
      </trkpt>
      <trkpt lat="44.76791" lon="6.32949">
        <ele>1850.6</ele>
        <time>2024-08-12T10:54:44Z</time>
      </trkpt>
      <trkpt lat="44.76791" lon="6.32949">
        <ele>1850.6</ele>
        <time>2024-08-12T10:54:45Z</time>
      </trkpt>
      <trkpt lat="44.76791" lon="6.32949">
        <ele>1850.8</ele>
        <time>2024-08-12T10:54:46Z</time>
      </trkpt>
      <trkpt lat="44.76791" lon="6.32949">
        <ele>1850.8</ele>
        <time>2024-08-12T10:54:47Z</time>
      </trkpt>
      <trkpt lat="44.76791" lon="6.32949">
        <ele>1850.8</ele>
        <time>2024-08-12T10:54:48Z</time>
      </trkpt>
      <trkpt lat="44.76791" lon="6.32949">
        <ele>1850.8</ele>
        <time>2024-08-12T10:54:49Z</time>
      </trkpt>
      <trkpt lat="44.76791" lon="6.32949">
        <ele>1850.8</ele>
        <time>2024-08-12T10:54:50Z</time>
      </trkpt>
      <trkpt lat="44.76791" lon="6.32949">
        <ele>1850.8</ele>
        <time>2024-08-12T10:54:51Z</time>
      </trkpt>
      <trkpt lat="44.76791" lon="6.32949">
        <ele>1851</ele>
        <time>2024-08-12T10:54:52Z</time>
      </trkpt>
      <trkpt lat="44.76791" lon="6.32949">
        <ele>1851</ele>
        <time>2024-08-12T10:54:53Z</time>
      </trkpt>
      <trkpt lat="44.76791" lon="6.32949">
        <ele>1850.8</ele>
        <time>2024-08-12T10:54:54Z</time>
      </trkpt>
      <trkpt lat="44.76791" lon="6.32949">
        <ele>1850.8</ele>
        <time>2024-08-12T10:54:55Z</time>
      </trkpt>
      <trkpt lat="44.76791" lon="6.32949">
        <ele>1851</ele>
        <time>2024-08-12T10:54:56Z</time>
      </trkpt>
      <trkpt lat="44.76791" lon="6.32949">
        <ele>1851</ele>
        <time>2024-08-12T10:54:57Z</time>
      </trkpt>
      <trkpt lat="44.76791" lon="6.32949">
        <ele>1851</ele>
        <time>2024-08-12T10:54:58Z</time>
      </trkpt>
      <trkpt lat="44.76791" lon="6.32949">
        <ele>1851</ele>
        <time>2024-08-12T10:54:59Z</time>
      </trkpt>
      <trkpt lat="44.76791" lon="6.32949">
        <ele>1851</ele>
        <time>2024-08-12T10:55:00Z</time>
      </trkpt>
      <trkpt lat="44.76791" lon="6.32949">
        <ele>1851</ele>
        <time>2024-08-12T10:55:01Z</time>
      </trkpt>
      <trkpt lat="44.76791" lon="6.32949">
        <ele>1851.2</ele>
        <time>2024-08-12T10:55:02Z</time>
      </trkpt>
      <trkpt lat="44.76791" lon="6.32949">
        <ele>1851.2</ele>
        <time>2024-08-12T10:55:03Z</time>
      </trkpt>
      <trkpt lat="44.76791" lon="6.32949">
        <ele>1851.2</ele>
        <time>2024-08-12T10:55:04Z</time>
      </trkpt>
      <trkpt lat="44.76791" lon="6.32949">
        <ele>1851.2</ele>
        <time>2024-08-12T10:55:05Z</time>
      </trkpt>
      <trkpt lat="44.76791" lon="6.32949">
        <ele>1851.2</ele>
        <time>2024-08-12T10:55:06Z</time>
      </trkpt>
      <trkpt lat="44.76791" lon="6.32949">
        <ele>1851</ele>
        <time>2024-08-12T10:55:07Z</time>
      </trkpt>
      <trkpt lat="44.76791" lon="6.32949">
        <ele>1850.8</ele>
        <time>2024-08-12T10:55:08Z</time>
      </trkpt>
      <trkpt lat="44.76791" lon="6.32949">
        <ele>1850.6</ele>
        <time>2024-08-12T10:55:09Z</time>
      </trkpt>
      <trkpt lat="44.76791" lon="6.32949">
        <ele>1850.8</ele>
        <time>2024-08-12T10:55:10Z</time>
      </trkpt>
      <trkpt lat="44.76791" lon="6.32949">
        <ele>1850.8</ele>
        <time>2024-08-12T10:55:11Z</time>
      </trkpt>
      <trkpt lat="44.76791" lon="6.32949">
        <ele>1851</ele>
        <time>2024-08-12T10:55:12Z</time>
      </trkpt>
      <trkpt lat="44.76791" lon="6.32949">
        <ele>1851</ele>
        <time>2024-08-12T10:55:13Z</time>
      </trkpt>
      <trkpt lat="44.76791" lon="6.32949">
        <ele>1851</ele>
        <time>2024-08-12T10:55:14Z</time>
      </trkpt>
      <trkpt lat="44.76791" lon="6.32949">
        <ele>1851.2</ele>
        <time>2024-08-12T10:55:15Z</time>
      </trkpt>
      <trkpt lat="44.76791" lon="6.32949">
        <ele>1851.6</ele>
        <time>2024-08-12T10:55:16Z</time>
      </trkpt>
      <trkpt lat="44.76791" lon="6.32949">
        <ele>1852</ele>
        <time>2024-08-12T10:55:17Z</time>
      </trkpt>
      <trkpt lat="44.76791" lon="6.32949">
        <ele>1852</ele>
        <time>2024-08-12T10:55:18Z</time>
      </trkpt>
      <trkpt lat="44.76791" lon="6.32949">
        <ele>1852</ele>
        <time>2024-08-12T10:55:19Z</time>
      </trkpt>
      <trkpt lat="44.76791" lon="6.32949">
        <ele>1852</ele>
        <time>2024-08-12T10:55:20Z</time>
      </trkpt>
      <trkpt lat="44.76791" lon="6.32949">
        <ele>1851.8</ele>
        <time>2024-08-12T10:55:21Z</time>
      </trkpt>
      <trkpt lat="44.76791" lon="6.32949">
        <ele>1851.8</ele>
        <time>2024-08-12T10:55:22Z</time>
      </trkpt>
      <trkpt lat="44.76791" lon="6.32949">
        <ele>1851.8</ele>
        <time>2024-08-12T10:55:23Z</time>
      </trkpt>
      <trkpt lat="44.76791" lon="6.32949">
        <ele>1851.8</ele>
        <time>2024-08-12T10:55:24Z</time>
      </trkpt>
      <trkpt lat="44.76791" lon="6.32949">
        <ele>1852</ele>
        <time>2024-08-12T10:55:25Z</time>
      </trkpt>
      <trkpt lat="44.76791" lon="6.32949">
        <ele>1852</ele>
        <time>2024-08-12T10:55:26Z</time>
      </trkpt>
      <trkpt lat="44.76791" lon="6.32949">
        <ele>1851.8</ele>
        <time>2024-08-12T10:55:27Z</time>
      </trkpt>
      <trkpt lat="44.76791" lon="6.32949">
        <ele>1851.8</ele>
        <time>2024-08-12T10:55:28Z</time>
      </trkpt>
      <trkpt lat="44.76791" lon="6.32949">
        <ele>1851.6</ele>
        <time>2024-08-12T10:55:29Z</time>
      </trkpt>
      <trkpt lat="44.76791" lon="6.32949">
        <ele>1851.6</ele>
        <time>2024-08-12T10:55:30Z</time>
      </trkpt>
      <trkpt lat="44.76791" lon="6.32949">
        <ele>1851.6</ele>
        <time>2024-08-12T10:55:31Z</time>
      </trkpt>
      <trkpt lat="44.76791" lon="6.32949">
        <ele>1852</ele>
        <time>2024-08-12T10:55:32Z</time>
      </trkpt>
      <trkpt lat="44.76791" lon="6.32949">
        <ele>1852.4</ele>
        <time>2024-08-12T10:55:33Z</time>
      </trkpt>
      <trkpt lat="44.76791" lon="6.32949">
        <ele>1852.4</ele>
        <time>2024-08-12T10:55:34Z</time>
      </trkpt>
      <trkpt lat="44.76791" lon="6.32949">
        <ele>1852.4</ele>
        <time>2024-08-12T10:55:35Z</time>
      </trkpt>
      <trkpt lat="44.76791" lon="6.32949">
        <ele>1852.4</ele>
        <time>2024-08-12T10:55:36Z</time>
      </trkpt>
      <trkpt lat="44.76791" lon="6.32949">
        <ele>1852.4</ele>
        <time>2024-08-12T10:55:37Z</time>
      </trkpt>
      <trkpt lat="44.76791" lon="6.32949">
        <ele>1852.4</ele>
        <time>2024-08-12T10:55:38Z</time>
      </trkpt>
      <trkpt lat="44.76791" lon="6.32949">
        <ele>1852.4</ele>
        <time>2024-08-12T10:55:39Z</time>
      </trkpt>
      <trkpt lat="44.76791" lon="6.32949">
        <ele>1852</ele>
        <time>2024-08-12T10:55:40Z</time>
      </trkpt>
      <trkpt lat="44.76791" lon="6.32949">
        <ele>1852</ele>
        <time>2024-08-12T10:55:41Z</time>
      </trkpt>
      <trkpt lat="44.76791" lon="6.32949">
        <ele>1852</ele>
        <time>2024-08-12T10:55:42Z</time>
      </trkpt>
      <trkpt lat="44.76791" lon="6.32949">
        <ele>1852.2</ele>
        <time>2024-08-12T10:55:43Z</time>
      </trkpt>
      <trkpt lat="44.76791" lon="6.32949">
        <ele>1852.2</ele>
        <time>2024-08-12T10:55:44Z</time>
      </trkpt>
      <trkpt lat="44.76791" lon="6.32949">
        <ele>1852.2</ele>
        <time>2024-08-12T10:55:45Z</time>
      </trkpt>
      <trkpt lat="44.76791" lon="6.32949">
        <ele>1852</ele>
        <time>2024-08-12T10:55:46Z</time>
      </trkpt>
      <trkpt lat="44.76791" lon="6.32949">
        <ele>1852</ele>
        <time>2024-08-12T10:55:47Z</time>
      </trkpt>
      <trkpt lat="44.76791" lon="6.32949">
        <ele>1851.8</ele>
        <time>2024-08-12T10:55:48Z</time>
      </trkpt>
      <trkpt lat="44.76791" lon="6.32949">
        <ele>1851.8</ele>
        <time>2024-08-12T10:55:49Z</time>
      </trkpt>
      <trkpt lat="44.76791" lon="6.32949">
        <ele>1851.6</ele>
        <time>2024-08-12T10:55:50Z</time>
      </trkpt>
      <trkpt lat="44.76791" lon="6.32949">
        <ele>1851.4</ele>
        <time>2024-08-12T10:55:51Z</time>
      </trkpt>
      <trkpt lat="44.76791" lon="6.32949">
        <ele>1851.4</ele>
        <time>2024-08-12T10:55:52Z</time>
      </trkpt>
      <trkpt lat="44.76791" lon="6.32949">
        <ele>1852</ele>
        <time>2024-08-12T10:55:53Z</time>
      </trkpt>
      <trkpt lat="44.76791" lon="6.32949">
        <ele>1852</ele>
        <time>2024-08-12T10:55:54Z</time>
      </trkpt>
      <trkpt lat="44.76791" lon="6.32949">
        <ele>1852</ele>
        <time>2024-08-12T10:55:55Z</time>
      </trkpt>
      <trkpt lat="44.76791" lon="6.32949">
        <ele>1852</ele>
        <time>2024-08-12T10:55:56Z</time>
      </trkpt>
      <trkpt lat="44.76793" lon="6.32947">
        <ele>1852.4</ele>
        <time>2024-08-12T10:55:57Z</time>
      </trkpt>
      <trkpt lat="44.76793" lon="6.32947">
        <ele>1852.4</ele>
        <time>2024-08-12T10:55:58Z</time>
      </trkpt>
      <trkpt lat="44.76793" lon="6.32947">
        <ele>1852.4</ele>
        <time>2024-08-12T10:55:59Z</time>
      </trkpt>
      <trkpt lat="44.76794" lon="6.32944">
        <ele>1852.2</ele>
        <time>2024-08-12T10:56:00Z</time>
      </trkpt>
      <trkpt lat="44.76794" lon="6.32944">
        <ele>1852.2</ele>
        <time>2024-08-12T10:56:01Z</time>
      </trkpt>
      <trkpt lat="44.76794" lon="6.32944">
        <ele>1852.8</ele>
        <time>2024-08-12T10:56:02Z</time>
      </trkpt>
      <trkpt lat="44.76794" lon="6.32944">
        <ele>1852.8</ele>
        <time>2024-08-12T10:56:03Z</time>
      </trkpt>
      <trkpt lat="44.76796" lon="6.32943">
        <ele>1853</ele>
        <time>2024-08-12T10:56:04Z</time>
      </trkpt>
      <trkpt lat="44.76796" lon="6.32943">
        <ele>1853.4</ele>
        <time>2024-08-12T10:56:05Z</time>
      </trkpt>
      <trkpt lat="44.76796" lon="6.32943">
        <ele>1853.6</ele>
        <time>2024-08-12T10:56:06Z</time>
      </trkpt>
      <trkpt lat="44.76796" lon="6.3294">
        <ele>1853.8</ele>
        <time>2024-08-12T10:56:07Z</time>
      </trkpt>
      <trkpt lat="44.76796" lon="6.3294">
        <ele>1853.8</ele>
        <time>2024-08-12T10:56:08Z</time>
      </trkpt>
      <trkpt lat="44.76797" lon="6.32938">
        <ele>1854</ele>
        <time>2024-08-12T10:56:09Z</time>
      </trkpt>
      <trkpt lat="44.76797" lon="6.32938">
        <ele>1854</ele>
        <time>2024-08-12T10:56:10Z</time>
      </trkpt>
      <trkpt lat="44.76797" lon="6.32938">
        <ele>1853.8</ele>
        <time>2024-08-12T10:56:11Z</time>
      </trkpt>
      <trkpt lat="44.76799" lon="6.32936">
        <ele>1854</ele>
        <time>2024-08-12T10:56:12Z</time>
      </trkpt>
      <trkpt lat="44.76799" lon="6.32936">
        <ele>1854</ele>
        <time>2024-08-12T10:56:13Z</time>
      </trkpt>
      <trkpt lat="44.76799" lon="6.32936">
        <ele>1854.2</ele>
        <time>2024-08-12T10:56:14Z</time>
      </trkpt>
      <trkpt lat="44.76799" lon="6.32936">
        <ele>1854.4</ele>
        <time>2024-08-12T10:56:15Z</time>
      </trkpt>
      <trkpt lat="44.76801" lon="6.32936">
        <ele>1854.6</ele>
        <time>2024-08-12T10:56:16Z</time>
      </trkpt>
      <trkpt lat="44.76801" lon="6.32936">
        <ele>1854.6</ele>
        <time>2024-08-12T10:56:17Z</time>
      </trkpt>
      <trkpt lat="44.76802" lon="6.32938">
        <ele>1854.8</ele>
        <time>2024-08-12T10:56:18Z</time>
      </trkpt>
      <trkpt lat="44.76802" lon="6.32938">
        <ele>1854.8</ele>
        <time>2024-08-12T10:56:19Z</time>
      </trkpt>
      <trkpt lat="44.76803" lon="6.32941">
        <ele>1854.6</ele>
        <time>2024-08-12T10:56:20Z</time>
      </trkpt>
      <trkpt lat="44.76803" lon="6.32941">
        <ele>1854.6</ele>
        <time>2024-08-12T10:56:21Z</time>
      </trkpt>
      <trkpt lat="44.76803" lon="6.32941">
        <ele>1854.4</ele>
        <time>2024-08-12T10:56:22Z</time>
      </trkpt>
      <trkpt lat="44.76805" lon="6.32942">
        <ele>1854.4</ele>
        <time>2024-08-12T10:56:23Z</time>
      </trkpt>
      <trkpt lat="44.76805" lon="6.32942">
        <ele>1854.6</ele>
        <time>2024-08-12T10:56:24Z</time>
      </trkpt>
      <trkpt lat="44.76805" lon="6.32942">
        <ele>1854.8</ele>
        <time>2024-08-12T10:56:25Z</time>
      </trkpt>
      <trkpt lat="44.76807" lon="6.32943">
        <ele>1855</ele>
        <time>2024-08-12T10:56:26Z</time>
      </trkpt>
      <trkpt lat="44.76807" lon="6.32943">
        <ele>1855.2</ele>
        <time>2024-08-12T10:56:27Z</time>
      </trkpt>
      <trkpt lat="44.76809" lon="6.32943">
        <ele>1855.2</ele>
        <time>2024-08-12T10:56:28Z</time>
      </trkpt>
      <trkpt lat="44.76809" lon="6.32943">
        <ele>1855.2</ele>
        <time>2024-08-12T10:56:29Z</time>
      </trkpt>
      <trkpt lat="44.76811" lon="6.32944">
        <ele>1855.2</ele>
        <time>2024-08-12T10:56:30Z</time>
      </trkpt>
      <trkpt lat="44.76811" lon="6.32944">
        <ele>1855.2</ele>
        <time>2024-08-12T10:56:31Z</time>
      </trkpt>
      <trkpt lat="44.76813" lon="6.32946">
        <ele>1855.2</ele>
        <time>2024-08-12T10:56:32Z</time>
      </trkpt>
      <trkpt lat="44.76813" lon="6.32946">
        <ele>1855.4</ele>
        <time>2024-08-12T10:56:33Z</time>
      </trkpt>
      <trkpt lat="44.76814" lon="6.32946">
        <ele>1855.6</ele>
        <time>2024-08-12T10:56:34Z</time>
      </trkpt>
      <trkpt lat="44.76814" lon="6.32946">
        <ele>1855.6</ele>
        <time>2024-08-12T10:56:35Z</time>
      </trkpt>
      <trkpt lat="44.76816" lon="6.32948">
        <ele>1855.6</ele>
        <time>2024-08-12T10:56:36Z</time>
      </trkpt>
      <trkpt lat="44.76816" lon="6.32948">
        <ele>1855.8</ele>
        <time>2024-08-12T10:56:37Z</time>
      </trkpt>
      <trkpt lat="44.76816" lon="6.32948">
        <ele>1855.8</ele>
        <time>2024-08-12T10:56:38Z</time>
      </trkpt>
      <trkpt lat="44.76819" lon="6.3295">
        <ele>1856.2</ele>
        <time>2024-08-12T10:56:39Z</time>
      </trkpt>
      <trkpt lat="44.76819" lon="6.3295">
        <ele>1856.2</ele>
        <time>2024-08-12T10:56:40Z</time>
      </trkpt>
      <trkpt lat="44.76819" lon="6.3295">
        <ele>1856.4</ele>
        <time>2024-08-12T10:56:41Z</time>
      </trkpt>
      <trkpt lat="44.76821" lon="6.32952">
        <ele>1856.4</ele>
        <time>2024-08-12T10:56:42Z</time>
      </trkpt>
      <trkpt lat="44.76821" lon="6.32952">
        <ele>1856.6</ele>
        <time>2024-08-12T10:56:43Z</time>
      </trkpt>
      <trkpt lat="44.76823" lon="6.32952">
        <ele>1856.8</ele>
        <time>2024-08-12T10:56:44Z</time>
      </trkpt>
      <trkpt lat="44.76823" lon="6.32952">
        <ele>1856.8</ele>
        <time>2024-08-12T10:56:45Z</time>
      </trkpt>
      <trkpt lat="44.76825" lon="6.32952">
        <ele>1856.8</ele>
        <time>2024-08-12T10:56:46Z</time>
      </trkpt>
      <trkpt lat="44.76825" lon="6.32952">
        <ele>1856.8</ele>
        <time>2024-08-12T10:56:47Z</time>
      </trkpt>
      <trkpt lat="44.76827" lon="6.32952">
        <ele>1857</ele>
        <time>2024-08-12T10:56:48Z</time>
      </trkpt>
      <trkpt lat="44.76827" lon="6.32952">
        <ele>1857.2</ele>
        <time>2024-08-12T10:56:49Z</time>
      </trkpt>
      <trkpt lat="44.76829" lon="6.32953">
        <ele>1857.6</ele>
        <time>2024-08-12T10:56:50Z</time>
      </trkpt>
      <trkpt lat="44.76829" lon="6.32953">
        <ele>1857.6</ele>
        <time>2024-08-12T10:56:51Z</time>
      </trkpt>
      <trkpt lat="44.7683" lon="6.32955">
        <ele>1857.6</ele>
        <time>2024-08-12T10:56:52Z</time>
      </trkpt>
      <trkpt lat="44.7683" lon="6.32955">
        <ele>1857.8</ele>
        <time>2024-08-12T10:56:53Z</time>
      </trkpt>
      <trkpt lat="44.76832" lon="6.32957">
        <ele>1858</ele>
        <time>2024-08-12T10:56:54Z</time>
      </trkpt>
      <trkpt lat="44.76832" lon="6.32957">
        <ele>1858</ele>
        <time>2024-08-12T10:56:55Z</time>
      </trkpt>
      <trkpt lat="44.76832" lon="6.32957">
        <ele>1858</ele>
        <time>2024-08-12T10:56:56Z</time>
      </trkpt>
      <trkpt lat="44.76834" lon="6.32959">
        <ele>1858</ele>
        <time>2024-08-12T10:56:57Z</time>
      </trkpt>
      <trkpt lat="44.76834" lon="6.32959">
        <ele>1858.2</ele>
        <time>2024-08-12T10:56:58Z</time>
      </trkpt>
      <trkpt lat="44.76836" lon="6.32959">
        <ele>1858.2</ele>
        <time>2024-08-12T10:56:59Z</time>
      </trkpt>
      <trkpt lat="44.76836" lon="6.32959">
        <ele>1858.2</ele>
        <time>2024-08-12T10:57:00Z</time>
      </trkpt>
      <trkpt lat="44.76836" lon="6.32959">
        <ele>1858.4</ele>
        <time>2024-08-12T10:57:01Z</time>
      </trkpt>
      <trkpt lat="44.76838" lon="6.32961">
        <ele>1858.6</ele>
        <time>2024-08-12T10:57:02Z</time>
      </trkpt>
      <trkpt lat="44.76838" lon="6.32961">
        <ele>1858.6</ele>
        <time>2024-08-12T10:57:03Z</time>
      </trkpt>
      <trkpt lat="44.76838" lon="6.32961">
        <ele>1858.8</ele>
        <time>2024-08-12T10:57:04Z</time>
      </trkpt>
      <trkpt lat="44.76841" lon="6.32961">
        <ele>1859</ele>
        <time>2024-08-12T10:57:05Z</time>
      </trkpt>
      <trkpt lat="44.76841" lon="6.32961">
        <ele>1859.2</ele>
        <time>2024-08-12T10:57:06Z</time>
      </trkpt>
      <trkpt lat="44.76843" lon="6.32961">
        <ele>1859.4</ele>
        <time>2024-08-12T10:57:07Z</time>
      </trkpt>
      <trkpt lat="44.76843" lon="6.32961">
        <ele>1859.4</ele>
        <time>2024-08-12T10:57:08Z</time>
      </trkpt>
      <trkpt lat="44.76845" lon="6.32962">
        <ele>1859.8</ele>
        <time>2024-08-12T10:57:09Z</time>
      </trkpt>
      <trkpt lat="44.76845" lon="6.32962">
        <ele>1859.8</ele>
        <time>2024-08-12T10:57:10Z</time>
      </trkpt>
      <trkpt lat="44.76845" lon="6.32962">
        <ele>1860</ele>
        <time>2024-08-12T10:57:11Z</time>
      </trkpt>
      <trkpt lat="44.76847" lon="6.32962">
        <ele>1860.4</ele>
        <time>2024-08-12T10:57:12Z</time>
      </trkpt>
      <trkpt lat="44.76847" lon="6.32962">
        <ele>1860.4</ele>
        <time>2024-08-12T10:57:13Z</time>
      </trkpt>
      <trkpt lat="44.76847" lon="6.32962">
        <ele>1860.4</ele>
        <time>2024-08-12T10:57:14Z</time>
      </trkpt>
      <trkpt lat="44.76849" lon="6.32962">
        <ele>1860.4</ele>
        <time>2024-08-12T10:57:15Z</time>
      </trkpt>
      <trkpt lat="44.76849" lon="6.32962">
        <ele>1860.6</ele>
        <time>2024-08-12T10:57:16Z</time>
      </trkpt>
      <trkpt lat="44.76849" lon="6.32962">
        <ele>1860.6</ele>
        <time>2024-08-12T10:57:17Z</time>
      </trkpt>
      <trkpt lat="44.76849" lon="6.32962">
        <ele>1860.8</ele>
        <time>2024-08-12T10:57:18Z</time>
      </trkpt>
      <trkpt lat="44.76852" lon="6.32961">
        <ele>1861</ele>
        <time>2024-08-12T10:57:19Z</time>
      </trkpt>
      <trkpt lat="44.76852" lon="6.32961">
        <ele>1861.2</ele>
        <time>2024-08-12T10:57:20Z</time>
      </trkpt>
      <trkpt lat="44.76852" lon="6.32961">
        <ele>1861.4</ele>
        <time>2024-08-12T10:57:21Z</time>
      </trkpt>
      <trkpt lat="44.76853" lon="6.3296">
        <ele>1861.6</ele>
        <time>2024-08-12T10:57:22Z</time>
      </trkpt>
      <trkpt lat="44.76853" lon="6.3296">
        <ele>1861.8</ele>
        <time>2024-08-12T10:57:23Z</time>
      </trkpt>
      <trkpt lat="44.76853" lon="6.3296">
        <ele>1861.8</ele>
        <time>2024-08-12T10:57:24Z</time>
      </trkpt>
      <trkpt lat="44.76855" lon="6.32959">
        <ele>1862</ele>
        <time>2024-08-12T10:57:25Z</time>
      </trkpt>
      <trkpt lat="44.76855" lon="6.32959">
        <ele>1862.2</ele>
        <time>2024-08-12T10:57:26Z</time>
      </trkpt>
      <trkpt lat="44.76855" lon="6.32959">
        <ele>1862.2</ele>
        <time>2024-08-12T10:57:27Z</time>
      </trkpt>
      <trkpt lat="44.76855" lon="6.32959">
        <ele>1862.8</ele>
        <time>2024-08-12T10:57:28Z</time>
      </trkpt>
      <trkpt lat="44.76857" lon="6.32959">
        <ele>1862.8</ele>
        <time>2024-08-12T10:57:29Z</time>
      </trkpt>
      <trkpt lat="44.76857" lon="6.32959">
        <ele>1862.8</ele>
        <time>2024-08-12T10:57:30Z</time>
      </trkpt>
      <trkpt lat="44.76857" lon="6.32959">
        <ele>1863.2</ele>
        <time>2024-08-12T10:57:31Z</time>
      </trkpt>
      <trkpt lat="44.76857" lon="6.32959">
        <ele>1863.8</ele>
        <time>2024-08-12T10:57:32Z</time>
      </trkpt>
      <trkpt lat="44.7686" lon="6.32957">
        <ele>1863.8</ele>
        <time>2024-08-12T10:57:33Z</time>
      </trkpt>
      <trkpt lat="44.7686" lon="6.32957">
        <ele>1864</ele>
        <time>2024-08-12T10:57:34Z</time>
      </trkpt>
      <trkpt lat="44.76862" lon="6.32957">
        <ele>1864</ele>
        <time>2024-08-12T10:57:35Z</time>
      </trkpt>
      <trkpt lat="44.76862" lon="6.32957">
        <ele>1864</ele>
        <time>2024-08-12T10:57:36Z</time>
      </trkpt>
      <trkpt lat="44.76862" lon="6.32957">
        <ele>1864</ele>
        <time>2024-08-12T10:57:37Z</time>
      </trkpt>
      <trkpt lat="44.76864" lon="6.32956">
        <ele>1864.2</ele>
        <time>2024-08-12T10:57:38Z</time>
      </trkpt>
      <trkpt lat="44.76864" lon="6.32956">
        <ele>1864.2</ele>
        <time>2024-08-12T10:57:39Z</time>
      </trkpt>
      <trkpt lat="44.76864" lon="6.32956">
        <ele>1864.4</ele>
        <time>2024-08-12T10:57:40Z</time>
      </trkpt>
      <trkpt lat="44.76867" lon="6.32956">
        <ele>1864.4</ele>
        <time>2024-08-12T10:57:41Z</time>
      </trkpt>
      <trkpt lat="44.76867" lon="6.32956">
        <ele>1864.6</ele>
        <time>2024-08-12T10:57:42Z</time>
      </trkpt>
      <trkpt lat="44.76867" lon="6.32956">
        <ele>1864.8</ele>
        <time>2024-08-12T10:57:43Z</time>
      </trkpt>
      <trkpt lat="44.76869" lon="6.32955">
        <ele>1865</ele>
        <time>2024-08-12T10:57:44Z</time>
      </trkpt>
      <trkpt lat="44.76869" lon="6.32955">
        <ele>1865</ele>
        <time>2024-08-12T10:57:45Z</time>
      </trkpt>
      <trkpt lat="44.76871" lon="6.32956">
        <ele>1865.2</ele>
        <time>2024-08-12T10:57:46Z</time>
      </trkpt>
      <trkpt lat="44.76871" lon="6.32956">
        <ele>1865.2</ele>
        <time>2024-08-12T10:57:47Z</time>
      </trkpt>
      <trkpt lat="44.76871" lon="6.32956">
        <ele>1865.2</ele>
        <time>2024-08-12T10:57:48Z</time>
      </trkpt>
      <trkpt lat="44.76873" lon="6.32956">
        <ele>1865.4</ele>
        <time>2024-08-12T10:57:49Z</time>
      </trkpt>
      <trkpt lat="44.76873" lon="6.32956">
        <ele>1865.4</ele>
        <time>2024-08-12T10:57:50Z</time>
      </trkpt>
      <trkpt lat="44.76875" lon="6.32956">
        <ele>1865.6</ele>
        <time>2024-08-12T10:57:51Z</time>
      </trkpt>
      <trkpt lat="44.76875" lon="6.32956">
        <ele>1865.8</ele>
        <time>2024-08-12T10:57:52Z</time>
      </trkpt>
      <trkpt lat="44.76877" lon="6.32955">
        <ele>1865.8</ele>
        <time>2024-08-12T10:57:53Z</time>
      </trkpt>
      <trkpt lat="44.76877" lon="6.32955">
        <ele>1866</ele>
        <time>2024-08-12T10:57:54Z</time>
      </trkpt>
      <trkpt lat="44.76877" lon="6.32955">
        <ele>1866</ele>
        <time>2024-08-12T10:57:55Z</time>
      </trkpt>
      <trkpt lat="44.76879" lon="6.32955">
        <ele>1866</ele>
        <time>2024-08-12T10:57:56Z</time>
      </trkpt>
      <trkpt lat="44.76879" lon="6.32955">
        <ele>1866.2</ele>
        <time>2024-08-12T10:57:57Z</time>
      </trkpt>
      <trkpt lat="44.76881" lon="6.32954">
        <ele>1866.4</ele>
        <time>2024-08-12T10:57:58Z</time>
      </trkpt>
      <trkpt lat="44.76881" lon="6.32954">
        <ele>1866.6</ele>
        <time>2024-08-12T10:57:59Z</time>
      </trkpt>
      <trkpt lat="44.76881" lon="6.32954">
        <ele>1866.8</ele>
        <time>2024-08-12T10:58:00Z</time>
      </trkpt>
      <trkpt lat="44.76881" lon="6.32954">
        <ele>1867</ele>
        <time>2024-08-12T10:58:01Z</time>
      </trkpt>
      <trkpt lat="44.76884" lon="6.32952">
        <ele>1867.2</ele>
        <time>2024-08-12T10:58:02Z</time>
      </trkpt>
      <trkpt lat="44.76884" lon="6.32952">
        <ele>1867.2</ele>
        <time>2024-08-12T10:58:03Z</time>
      </trkpt>
      <trkpt lat="44.76884" lon="6.32952">
        <ele>1867.8</ele>
        <time>2024-08-12T10:58:04Z</time>
      </trkpt>
      <trkpt lat="44.76886" lon="6.32952">
        <ele>1867.8</ele>
        <time>2024-08-12T10:58:05Z</time>
      </trkpt>
      <trkpt lat="44.76886" lon="6.32952">
        <ele>1868.2</ele>
        <time>2024-08-12T10:58:06Z</time>
      </trkpt>
      <trkpt lat="44.76886" lon="6.32952">
        <ele>1868.2</ele>
        <time>2024-08-12T10:58:07Z</time>
      </trkpt>
      <trkpt lat="44.76887" lon="6.3295">
        <ele>1868.4</ele>
        <time>2024-08-12T10:58:08Z</time>
      </trkpt>
      <trkpt lat="44.76887" lon="6.3295">
        <ele>1868.6</ele>
        <time>2024-08-12T10:58:09Z</time>
      </trkpt>
      <trkpt lat="44.76887" lon="6.3295">
        <ele>1868.8</ele>
        <time>2024-08-12T10:58:10Z</time>
      </trkpt>
      <trkpt lat="44.7689" lon="6.32949">
        <ele>1869</ele>
        <time>2024-08-12T10:58:11Z</time>
      </trkpt>
      <trkpt lat="44.7689" lon="6.32949">
        <ele>1869.2</ele>
        <time>2024-08-12T10:58:12Z</time>
      </trkpt>
      <trkpt lat="44.7689" lon="6.32949">
        <ele>1869.4</ele>
        <time>2024-08-12T10:58:13Z</time>
      </trkpt>
      <trkpt lat="44.76892" lon="6.32948">
        <ele>1869.4</ele>
        <time>2024-08-12T10:58:14Z</time>
      </trkpt>
      <trkpt lat="44.76892" lon="6.32948">
        <ele>1869.8</ele>
        <time>2024-08-12T10:58:15Z</time>
      </trkpt>
      <trkpt lat="44.76894" lon="6.32948">
        <ele>1869.8</ele>
        <time>2024-08-12T10:58:16Z</time>
      </trkpt>
      <trkpt lat="44.76894" lon="6.32948">
        <ele>1870</ele>
        <time>2024-08-12T10:58:17Z</time>
      </trkpt>
      <trkpt lat="44.76894" lon="6.32948">
        <ele>1870</ele>
        <time>2024-08-12T10:58:18Z</time>
      </trkpt>
      <trkpt lat="44.76894" lon="6.32948">
        <ele>1870.2</ele>
        <time>2024-08-12T10:58:19Z</time>
      </trkpt>
      <trkpt lat="44.76896" lon="6.32948">
        <ele>1870.4</ele>
        <time>2024-08-12T10:58:20Z</time>
      </trkpt>
      <trkpt lat="44.76896" lon="6.32948">
        <ele>1870.8</ele>
        <time>2024-08-12T10:58:21Z</time>
      </trkpt>
      <trkpt lat="44.76896" lon="6.32948">
        <ele>1871</ele>
        <time>2024-08-12T10:58:22Z</time>
      </trkpt>
      <trkpt lat="44.76898" lon="6.32947">
        <ele>1871.2</ele>
        <time>2024-08-12T10:58:23Z</time>
      </trkpt>
      <trkpt lat="44.76898" lon="6.32947">
        <ele>1871.4</ele>
        <time>2024-08-12T10:58:24Z</time>
      </trkpt>
      <trkpt lat="44.76898" lon="6.32947">
        <ele>1871.4</ele>
        <time>2024-08-12T10:58:25Z</time>
      </trkpt>
      <trkpt lat="44.769" lon="6.32946">
        <ele>1871.6</ele>
        <time>2024-08-12T10:58:26Z</time>
      </trkpt>
      <trkpt lat="44.769" lon="6.32946">
        <ele>1871.8</ele>
        <time>2024-08-12T10:58:27Z</time>
      </trkpt>
      <trkpt lat="44.769" lon="6.32946">
        <ele>1872.2</ele>
        <time>2024-08-12T10:58:28Z</time>
      </trkpt>
      <trkpt lat="44.769" lon="6.32946">
        <ele>1872.2</ele>
        <time>2024-08-12T10:58:29Z</time>
      </trkpt>
      <trkpt lat="44.76902" lon="6.32946">
        <ele>1872.2</ele>
        <time>2024-08-12T10:58:30Z</time>
      </trkpt>
      <trkpt lat="44.76902" lon="6.32946">
        <ele>1872.2</ele>
        <time>2024-08-12T10:58:31Z</time>
      </trkpt>
      <trkpt lat="44.76902" lon="6.32946">
        <ele>1872.4</ele>
        <time>2024-08-12T10:58:32Z</time>
      </trkpt>
      <trkpt lat="44.76902" lon="6.32946">
        <ele>1872.4</ele>
        <time>2024-08-12T10:58:33Z</time>
      </trkpt>
      <trkpt lat="44.76902" lon="6.32946">
        <ele>1872.6</ele>
        <time>2024-08-12T10:58:34Z</time>
      </trkpt>
      <trkpt lat="44.76904" lon="6.32944">
        <ele>1872.6</ele>
        <time>2024-08-12T10:58:35Z</time>
      </trkpt>
      <trkpt lat="44.76904" lon="6.32944">
        <ele>1873</ele>
        <time>2024-08-12T10:58:36Z</time>
      </trkpt>
      <trkpt lat="44.76904" lon="6.32944">
        <ele>1873</ele>
        <time>2024-08-12T10:58:37Z</time>
      </trkpt>
      <trkpt lat="44.76906" lon="6.32942">
        <ele>1873.4</ele>
        <time>2024-08-12T10:58:38Z</time>
      </trkpt>
      <trkpt lat="44.76906" lon="6.32942">
        <ele>1873.6</ele>
        <time>2024-08-12T10:58:39Z</time>
      </trkpt>
      <trkpt lat="44.76906" lon="6.32942">
        <ele>1873.8</ele>
        <time>2024-08-12T10:58:40Z</time>
      </trkpt>
      <trkpt lat="44.76906" lon="6.32942">
        <ele>1874</ele>
        <time>2024-08-12T10:58:41Z</time>
      </trkpt>
      <trkpt lat="44.76908" lon="6.32941">
        <ele>1874.6</ele>
        <time>2024-08-12T10:58:42Z</time>
      </trkpt>
      <trkpt lat="44.76908" lon="6.32941">
        <ele>1874.6</ele>
        <time>2024-08-12T10:58:43Z</time>
      </trkpt>
      <trkpt lat="44.76908" lon="6.32941">
        <ele>1874.8</ele>
        <time>2024-08-12T10:58:44Z</time>
      </trkpt>
      <trkpt lat="44.76908" lon="6.32941">
        <ele>1874.8</ele>
        <time>2024-08-12T10:58:45Z</time>
      </trkpt>
      <trkpt lat="44.7691" lon="6.3294">
        <ele>1874.8</ele>
        <time>2024-08-12T10:58:46Z</time>
      </trkpt>
      <trkpt lat="44.7691" lon="6.3294">
        <ele>1874.8</ele>
        <time>2024-08-12T10:58:47Z</time>
      </trkpt>
      <trkpt lat="44.7691" lon="6.3294">
        <ele>1875.4</ele>
        <time>2024-08-12T10:58:48Z</time>
      </trkpt>
      <trkpt lat="44.7691" lon="6.3294">
        <ele>1875.6</ele>
        <time>2024-08-12T10:58:49Z</time>
      </trkpt>
      <trkpt lat="44.76912" lon="6.32939">
        <ele>1875.8</ele>
        <time>2024-08-12T10:58:50Z</time>
      </trkpt>
      <trkpt lat="44.76912" lon="6.32939">
        <ele>1875.8</ele>
        <time>2024-08-12T10:58:51Z</time>
      </trkpt>
      <trkpt lat="44.76912" lon="6.32939">
        <ele>1875.8</ele>
        <time>2024-08-12T10:58:52Z</time>
      </trkpt>
      <trkpt lat="44.76914" lon="6.32938">
        <ele>1876.2</ele>
        <time>2024-08-12T10:58:53Z</time>
      </trkpt>
      <trkpt lat="44.76914" lon="6.32938">
        <ele>1876.6</ele>
        <time>2024-08-12T10:58:54Z</time>
      </trkpt>
      <trkpt lat="44.76914" lon="6.32938">
        <ele>1876.8</ele>
        <time>2024-08-12T10:58:55Z</time>
      </trkpt>
      <trkpt lat="44.76917" lon="6.32938">
        <ele>1876.8</ele>
        <time>2024-08-12T10:58:56Z</time>
      </trkpt>
      <trkpt lat="44.76917" lon="6.32938">
        <ele>1877</ele>
        <time>2024-08-12T10:58:57Z</time>
      </trkpt>
      <trkpt lat="44.76917" lon="6.32938">
        <ele>1877.4</ele>
        <time>2024-08-12T10:58:58Z</time>
      </trkpt>
      <trkpt lat="44.76917" lon="6.32938">
        <ele>1877.4</ele>
        <time>2024-08-12T10:58:59Z</time>
      </trkpt>
      <trkpt lat="44.76918" lon="6.32936">
        <ele>1877.4</ele>
        <time>2024-08-12T10:59:00Z</time>
      </trkpt>
      <trkpt lat="44.76918" lon="6.32936">
        <ele>1877.4</ele>
        <time>2024-08-12T10:59:01Z</time>
      </trkpt>
      <trkpt lat="44.76918" lon="6.32936">
        <ele>1878</ele>
        <time>2024-08-12T10:59:02Z</time>
      </trkpt>
      <trkpt lat="44.7692" lon="6.32935">
        <ele>1878</ele>
        <time>2024-08-12T10:59:03Z</time>
      </trkpt>
      <trkpt lat="44.7692" lon="6.32935">
        <ele>1878.2</ele>
        <time>2024-08-12T10:59:04Z</time>
      </trkpt>
      <trkpt lat="44.7692" lon="6.32935">
        <ele>1878.6</ele>
        <time>2024-08-12T10:59:05Z</time>
      </trkpt>
      <trkpt lat="44.7692" lon="6.32935">
        <ele>1879</ele>
        <time>2024-08-12T10:59:06Z</time>
      </trkpt>
      <trkpt lat="44.76922" lon="6.32934">
        <ele>1879.2</ele>
        <time>2024-08-12T10:59:07Z</time>
      </trkpt>
      <trkpt lat="44.76922" lon="6.32934">
        <ele>1879.2</ele>
        <time>2024-08-12T10:59:08Z</time>
      </trkpt>
      <trkpt lat="44.76922" lon="6.32934">
        <ele>1879.2</ele>
        <time>2024-08-12T10:59:09Z</time>
      </trkpt>
      <trkpt lat="44.76922" lon="6.32934">
        <ele>1879.6</ele>
        <time>2024-08-12T10:59:10Z</time>
      </trkpt>
      <trkpt lat="44.76924" lon="6.32932">
        <ele>1879.6</ele>
        <time>2024-08-12T10:59:11Z</time>
      </trkpt>
      <trkpt lat="44.76924" lon="6.32932">
        <ele>1879.8</ele>
        <time>2024-08-12T10:59:12Z</time>
      </trkpt>
      <trkpt lat="44.76924" lon="6.32932">
        <ele>1880</ele>
        <time>2024-08-12T10:59:13Z</time>
      </trkpt>
      <trkpt lat="44.76926" lon="6.32932">
        <ele>1880.2</ele>
        <time>2024-08-12T10:59:14Z</time>
      </trkpt>
      <trkpt lat="44.76926" lon="6.32932">
        <ele>1880.2</ele>
        <time>2024-08-12T10:59:15Z</time>
      </trkpt>
      <trkpt lat="44.76926" lon="6.32932">
        <ele>1880.6</ele>
        <time>2024-08-12T10:59:16Z</time>
      </trkpt>
      <trkpt lat="44.76926" lon="6.32932">
        <ele>1880.8</ele>
        <time>2024-08-12T10:59:17Z</time>
      </trkpt>
      <trkpt lat="44.76926" lon="6.32932">
        <ele>1881</ele>
        <time>2024-08-12T10:59:18Z</time>
      </trkpt>
      <trkpt lat="44.76928" lon="6.32929">
        <ele>1881.2</ele>
        <time>2024-08-12T10:59:19Z</time>
      </trkpt>
      <trkpt lat="44.76928" lon="6.32929">
        <ele>1881.2</ele>
        <time>2024-08-12T10:59:20Z</time>
      </trkpt>
      <trkpt lat="44.76928" lon="6.32929">
        <ele>1881.2</ele>
        <time>2024-08-12T10:59:21Z</time>
      </trkpt>
      <trkpt lat="44.7693" lon="6.32928">
        <ele>1881.4</ele>
        <time>2024-08-12T10:59:22Z</time>
      </trkpt>
      <trkpt lat="44.7693" lon="6.32928">
        <ele>1881.8</ele>
        <time>2024-08-12T10:59:23Z</time>
      </trkpt>
      <trkpt lat="44.7693" lon="6.32928">
        <ele>1882</ele>
        <time>2024-08-12T10:59:24Z</time>
      </trkpt>
      <trkpt lat="44.76932" lon="6.32927">
        <ele>1882</ele>
        <time>2024-08-12T10:59:25Z</time>
      </trkpt>
      <trkpt lat="44.76932" lon="6.32927">
        <ele>1882</ele>
        <time>2024-08-12T10:59:26Z</time>
      </trkpt>
      <trkpt lat="44.76932" lon="6.32927">
        <ele>1882.2</ele>
        <time>2024-08-12T10:59:27Z</time>
      </trkpt>
      <trkpt lat="44.76933" lon="6.32926">
        <ele>1882.2</ele>
        <time>2024-08-12T10:59:28Z</time>
      </trkpt>
      <trkpt lat="44.76933" lon="6.32926">
        <ele>1882.4</ele>
        <time>2024-08-12T10:59:29Z</time>
      </trkpt>
      <trkpt lat="44.76933" lon="6.32926">
        <ele>1882.8</ele>
        <time>2024-08-12T10:59:30Z</time>
      </trkpt>
      <trkpt lat="44.76933" lon="6.32926">
        <ele>1883.2</ele>
        <time>2024-08-12T10:59:31Z</time>
      </trkpt>
      <trkpt lat="44.76935" lon="6.32924">
        <ele>1883.2</ele>
        <time>2024-08-12T10:59:32Z</time>
      </trkpt>
      <trkpt lat="44.76935" lon="6.32924">
        <ele>1883</ele>
        <time>2024-08-12T10:59:33Z</time>
      </trkpt>
      <trkpt lat="44.76935" lon="6.32924">
        <ele>1883</ele>
        <time>2024-08-12T10:59:34Z</time>
      </trkpt>
      <trkpt lat="44.76935" lon="6.32924">
        <ele>1883.2</ele>
        <time>2024-08-12T10:59:35Z</time>
      </trkpt>
      <trkpt lat="44.76938" lon="6.32924">
        <ele>1883.4</ele>
        <time>2024-08-12T10:59:36Z</time>
      </trkpt>
      <trkpt lat="44.76938" lon="6.32924">
        <ele>1883.8</ele>
        <time>2024-08-12T10:59:37Z</time>
      </trkpt>
      <trkpt lat="44.76938" lon="6.32924">
        <ele>1883.8</ele>
        <time>2024-08-12T10:59:38Z</time>
      </trkpt>
      <trkpt lat="44.76938" lon="6.32924">
        <ele>1884.2</ele>
        <time>2024-08-12T10:59:39Z</time>
      </trkpt>
      <trkpt lat="44.7694" lon="6.32922">
        <ele>1884.6</ele>
        <time>2024-08-12T10:59:40Z</time>
      </trkpt>
      <trkpt lat="44.7694" lon="6.32922">
        <ele>1884.6</ele>
        <time>2024-08-12T10:59:41Z</time>
      </trkpt>
      <trkpt lat="44.7694" lon="6.32922">
        <ele>1884.6</ele>
        <time>2024-08-12T10:59:42Z</time>
      </trkpt>
      <trkpt lat="44.76942" lon="6.3292">
        <ele>1884.8</ele>
        <time>2024-08-12T10:59:43Z</time>
      </trkpt>
      <trkpt lat="44.76942" lon="6.3292">
        <ele>1885</ele>
        <time>2024-08-12T10:59:44Z</time>
      </trkpt>
      <trkpt lat="44.76942" lon="6.3292">
        <ele>1885</ele>
        <time>2024-08-12T10:59:45Z</time>
      </trkpt>
      <trkpt lat="44.76942" lon="6.3292">
        <ele>1885.4</ele>
        <time>2024-08-12T10:59:46Z</time>
      </trkpt>
      <trkpt lat="44.76944" lon="6.32919">
        <ele>1885.8</ele>
        <time>2024-08-12T10:59:47Z</time>
      </trkpt>
      <trkpt lat="44.76944" lon="6.32919">
        <ele>1885.8</ele>
        <time>2024-08-12T10:59:48Z</time>
      </trkpt>
      <trkpt lat="44.76944" lon="6.32919">
        <ele>1885.8</ele>
        <time>2024-08-12T10:59:49Z</time>
      </trkpt>
      <trkpt lat="44.76946" lon="6.32919">
        <ele>1886.2</ele>
        <time>2024-08-12T10:59:50Z</time>
      </trkpt>
      <trkpt lat="44.76946" lon="6.32919">
        <ele>1886.2</ele>
        <time>2024-08-12T10:59:51Z</time>
      </trkpt>
      <trkpt lat="44.76946" lon="6.32919">
        <ele>1886.2</ele>
        <time>2024-08-12T10:59:52Z</time>
      </trkpt>
      <trkpt lat="44.76948" lon="6.32917">
        <ele>1886.6</ele>
        <time>2024-08-12T10:59:53Z</time>
      </trkpt>
      <trkpt lat="44.76948" lon="6.32917">
        <ele>1886.6</ele>
        <time>2024-08-12T10:59:54Z</time>
      </trkpt>
      <trkpt lat="44.76948" lon="6.32917">
        <ele>1886.6</ele>
        <time>2024-08-12T10:59:55Z</time>
      </trkpt>
      <trkpt lat="44.7695" lon="6.32916">
        <ele>1886.8</ele>
        <time>2024-08-12T10:59:56Z</time>
      </trkpt>
      <trkpt lat="44.7695" lon="6.32916">
        <ele>1886.8</ele>
        <time>2024-08-12T10:59:57Z</time>
      </trkpt>
      <trkpt lat="44.7695" lon="6.32916">
        <ele>1886.6</ele>
        <time>2024-08-12T10:59:58Z</time>
      </trkpt>
      <trkpt lat="44.76952" lon="6.32915">
        <ele>1886.6</ele>
        <time>2024-08-12T10:59:59Z</time>
      </trkpt>
      <trkpt lat="44.76952" lon="6.32915">
        <ele>1887</ele>
        <time>2024-08-12T11:00:00Z</time>
      </trkpt>
      <trkpt lat="44.76954" lon="6.32914">
        <ele>1887.2</ele>
        <time>2024-08-12T11:00:01Z</time>
      </trkpt>
      <trkpt lat="44.76954" lon="6.32914">
        <ele>1887.6</ele>
        <time>2024-08-12T11:00:02Z</time>
      </trkpt>
      <trkpt lat="44.76956" lon="6.32913">
        <ele>1887.6</ele>
        <time>2024-08-12T11:00:03Z</time>
      </trkpt>
      <trkpt lat="44.76956" lon="6.32913">
        <ele>1887.8</ele>
        <time>2024-08-12T11:00:04Z</time>
      </trkpt>
      <trkpt lat="44.76956" lon="6.32913">
        <ele>1887.6</ele>
        <time>2024-08-12T11:00:05Z</time>
      </trkpt>
      <trkpt lat="44.76958" lon="6.32912">
        <ele>1887.8</ele>
        <time>2024-08-12T11:00:06Z</time>
      </trkpt>
      <trkpt lat="44.76958" lon="6.32912">
        <ele>1888</ele>
        <time>2024-08-12T11:00:07Z</time>
      </trkpt>
      <trkpt lat="44.76958" lon="6.32912">
        <ele>1888</ele>
        <time>2024-08-12T11:00:08Z</time>
      </trkpt>
      <trkpt lat="44.7696" lon="6.3291">
        <ele>1888</ele>
        <time>2024-08-12T11:00:09Z</time>
      </trkpt>
      <trkpt lat="44.7696" lon="6.3291">
        <ele>1888</ele>
        <time>2024-08-12T11:00:10Z</time>
      </trkpt>
      <trkpt lat="44.7696" lon="6.3291">
        <ele>1888.4</ele>
        <time>2024-08-12T11:00:11Z</time>
      </trkpt>
      <trkpt lat="44.7696" lon="6.3291">
        <ele>1888.6</ele>
        <time>2024-08-12T11:00:12Z</time>
      </trkpt>
      <trkpt lat="44.76961" lon="6.32908">
        <ele>1889</ele>
        <time>2024-08-12T11:00:13Z</time>
      </trkpt>
      <trkpt lat="44.76961" lon="6.32908">
        <ele>1889</ele>
        <time>2024-08-12T11:00:14Z</time>
      </trkpt>
      <trkpt lat="44.76961" lon="6.32908">
        <ele>1889</ele>
        <time>2024-08-12T11:00:15Z</time>
      </trkpt>
      <trkpt lat="44.76961" lon="6.32908">
        <ele>1889</ele>
        <time>2024-08-12T11:00:16Z</time>
      </trkpt>
      <trkpt lat="44.76961" lon="6.32908">
        <ele>1889</ele>
        <time>2024-08-12T11:00:17Z</time>
      </trkpt>
      <trkpt lat="44.76961" lon="6.32908">
        <ele>1889.6</ele>
        <time>2024-08-12T11:00:18Z</time>
      </trkpt>
      <trkpt lat="44.76961" lon="6.32908">
        <ele>1890</ele>
        <time>2024-08-12T11:00:19Z</time>
      </trkpt>
      <trkpt lat="44.76963" lon="6.32907">
        <ele>1890</ele>
        <time>2024-08-12T11:00:20Z</time>
      </trkpt>
      <trkpt lat="44.76963" lon="6.32907">
        <ele>1890</ele>
        <time>2024-08-12T11:00:21Z</time>
      </trkpt>
      <trkpt lat="44.76963" lon="6.32907">
        <ele>1890.2</ele>
        <time>2024-08-12T11:00:22Z</time>
      </trkpt>
      <trkpt lat="44.76963" lon="6.32907">
        <ele>1890.2</ele>
        <time>2024-08-12T11:00:23Z</time>
      </trkpt>
      <trkpt lat="44.76963" lon="6.32907">
        <ele>1890.4</ele>
        <time>2024-08-12T11:00:24Z</time>
      </trkpt>
      <trkpt lat="44.76963" lon="6.32907">
        <ele>1890.6</ele>
        <time>2024-08-12T11:00:25Z</time>
      </trkpt>
      <trkpt lat="44.76966" lon="6.32906">
        <ele>1890.8</ele>
        <time>2024-08-12T11:00:26Z</time>
      </trkpt>
      <trkpt lat="44.76966" lon="6.32906">
        <ele>1890.8</ele>
        <time>2024-08-12T11:00:27Z</time>
      </trkpt>
      <trkpt lat="44.76966" lon="6.32906">
        <ele>1891</ele>
        <time>2024-08-12T11:00:28Z</time>
      </trkpt>
      <trkpt lat="44.76968" lon="6.32905">
        <ele>1891</ele>
        <time>2024-08-12T11:00:29Z</time>
      </trkpt>
      <trkpt lat="44.76968" lon="6.32905">
        <ele>1891.2</ele>
        <time>2024-08-12T11:00:30Z</time>
      </trkpt>
      <trkpt lat="44.7697" lon="6.32903">
        <ele>1891.4</ele>
        <time>2024-08-12T11:00:31Z</time>
      </trkpt>
      <trkpt lat="44.7697" lon="6.32903">
        <ele>1891.4</ele>
        <time>2024-08-12T11:00:32Z</time>
      </trkpt>
      <trkpt lat="44.76972" lon="6.32902">
        <ele>1891.6</ele>
        <time>2024-08-12T11:00:33Z</time>
      </trkpt>
      <trkpt lat="44.76972" lon="6.32902">
        <ele>1891.6</ele>
        <time>2024-08-12T11:00:34Z</time>
      </trkpt>
      <trkpt lat="44.76972" lon="6.32902">
        <ele>1891.6</ele>
        <time>2024-08-12T11:00:35Z</time>
      </trkpt>
      <trkpt lat="44.76974" lon="6.32902">
        <ele>1891.6</ele>
        <time>2024-08-12T11:00:36Z</time>
      </trkpt>
      <trkpt lat="44.76974" lon="6.32902">
        <ele>1891.8</ele>
        <time>2024-08-12T11:00:37Z</time>
      </trkpt>
      <trkpt lat="44.76974" lon="6.32902">
        <ele>1892.2</ele>
        <time>2024-08-12T11:00:38Z</time>
      </trkpt>
      <trkpt lat="44.76976" lon="6.32902">
        <ele>1892.2</ele>
        <time>2024-08-12T11:00:39Z</time>
      </trkpt>
      <trkpt lat="44.76976" lon="6.32902">
        <ele>1892.4</ele>
        <time>2024-08-12T11:00:40Z</time>
      </trkpt>
      <trkpt lat="44.76976" lon="6.32902">
        <ele>1892.6</ele>
        <time>2024-08-12T11:00:41Z</time>
      </trkpt>
      <trkpt lat="44.76978" lon="6.32902">
        <ele>1892.6</ele>
        <time>2024-08-12T11:00:42Z</time>
      </trkpt>
      <trkpt lat="44.76978" lon="6.32902">
        <ele>1892.8</ele>
        <time>2024-08-12T11:00:43Z</time>
      </trkpt>
      <trkpt lat="44.76978" lon="6.32902">
        <ele>1892.8</ele>
        <time>2024-08-12T11:00:44Z</time>
      </trkpt>
      <trkpt lat="44.76978" lon="6.32902">
        <ele>1893.4</ele>
        <time>2024-08-12T11:00:45Z</time>
      </trkpt>
      <trkpt lat="44.76978" lon="6.32902">
        <ele>1893.4</ele>
        <time>2024-08-12T11:00:46Z</time>
      </trkpt>
      <trkpt lat="44.76981" lon="6.32904">
        <ele>1893.6</ele>
        <time>2024-08-12T11:00:47Z</time>
      </trkpt>
      <trkpt lat="44.76981" lon="6.32904">
        <ele>1893.6</ele>
        <time>2024-08-12T11:00:48Z</time>
      </trkpt>
      <trkpt lat="44.76981" lon="6.32904">
        <ele>1893.6</ele>
        <time>2024-08-12T11:00:49Z</time>
      </trkpt>
      <trkpt lat="44.76982" lon="6.32905">
        <ele>1893.8</ele>
        <time>2024-08-12T11:00:50Z</time>
      </trkpt>
      <trkpt lat="44.76982" lon="6.32905">
        <ele>1893.8</ele>
        <time>2024-08-12T11:00:51Z</time>
      </trkpt>
      <trkpt lat="44.76982" lon="6.32905">
        <ele>1893.8</ele>
        <time>2024-08-12T11:00:52Z</time>
      </trkpt>
      <trkpt lat="44.76982" lon="6.32905">
        <ele>1893.8</ele>
        <time>2024-08-12T11:00:53Z</time>
      </trkpt>
      <trkpt lat="44.76985" lon="6.32907">
        <ele>1893.8</ele>
        <time>2024-08-12T11:00:54Z</time>
      </trkpt>
      <trkpt lat="44.76985" lon="6.32907">
        <ele>1893.8</ele>
        <time>2024-08-12T11:00:55Z</time>
      </trkpt>
      <trkpt lat="44.76985" lon="6.32907">
        <ele>1893.8</ele>
        <time>2024-08-12T11:00:56Z</time>
      </trkpt>
      <trkpt lat="44.76987" lon="6.32908">
        <ele>1894.2</ele>
        <time>2024-08-12T11:00:57Z</time>
      </trkpt>
      <trkpt lat="44.76987" lon="6.32908">
        <ele>1894.4</ele>
        <time>2024-08-12T11:00:58Z</time>
      </trkpt>
      <trkpt lat="44.76987" lon="6.32908">
        <ele>1894.6</ele>
        <time>2024-08-12T11:00:59Z</time>
      </trkpt>
      <trkpt lat="44.76989" lon="6.3291">
        <ele>1895</ele>
        <time>2024-08-12T11:01:00Z</time>
      </trkpt>
      <trkpt lat="44.76989" lon="6.3291">
        <ele>1895</ele>
        <time>2024-08-12T11:01:01Z</time>
      </trkpt>
      <trkpt lat="44.76989" lon="6.3291">
        <ele>1895</ele>
        <time>2024-08-12T11:01:02Z</time>
      </trkpt>
      <trkpt lat="44.76991" lon="6.32911">
        <ele>1895</ele>
        <time>2024-08-12T11:01:03Z</time>
      </trkpt>
      <trkpt lat="44.76991" lon="6.32911">
        <ele>1895.2</ele>
        <time>2024-08-12T11:01:04Z</time>
      </trkpt>
      <trkpt lat="44.76991" lon="6.32911">
        <ele>1895.2</ele>
        <time>2024-08-12T11:01:05Z</time>
      </trkpt>
      <trkpt lat="44.76991" lon="6.32911">
        <ele>1895.2</ele>
        <time>2024-08-12T11:01:06Z</time>
      </trkpt>
      <trkpt lat="44.76991" lon="6.32911">
        <ele>1895.2</ele>
        <time>2024-08-12T11:01:07Z</time>
      </trkpt>
      <trkpt lat="44.76993" lon="6.32912">
        <ele>1895.4</ele>
        <time>2024-08-12T11:01:08Z</time>
      </trkpt>
      <trkpt lat="44.76993" lon="6.32912">
        <ele>1895.6</ele>
        <time>2024-08-12T11:01:09Z</time>
      </trkpt>
      <trkpt lat="44.76993" lon="6.32912">
        <ele>1895.8</ele>
        <time>2024-08-12T11:01:10Z</time>
      </trkpt>
      <trkpt lat="44.76993" lon="6.32912">
        <ele>1896.2</ele>
        <time>2024-08-12T11:01:11Z</time>
      </trkpt>
      <trkpt lat="44.76993" lon="6.32912">
        <ele>1896.4</ele>
        <time>2024-08-12T11:01:12Z</time>
      </trkpt>
      <trkpt lat="44.76996" lon="6.32913">
        <ele>1896.6</ele>
        <time>2024-08-12T11:01:13Z</time>
      </trkpt>
      <trkpt lat="44.76996" lon="6.32913">
        <ele>1896.8</ele>
        <time>2024-08-12T11:01:14Z</time>
      </trkpt>
      <trkpt lat="44.76996" lon="6.32913">
        <ele>1897</ele>
        <time>2024-08-12T11:01:15Z</time>
      </trkpt>
      <trkpt lat="44.76997" lon="6.32913">
        <ele>1897.2</ele>
        <time>2024-08-12T11:01:16Z</time>
      </trkpt>
      <trkpt lat="44.76997" lon="6.32913">
        <ele>1897.2</ele>
        <time>2024-08-12T11:01:17Z</time>
      </trkpt>
      <trkpt lat="44.76997" lon="6.32913">
        <ele>1897.6</ele>
        <time>2024-08-12T11:01:18Z</time>
      </trkpt>
      <trkpt lat="44.76997" lon="6.32913">
        <ele>1897.8</ele>
        <time>2024-08-12T11:01:19Z</time>
      </trkpt>
      <trkpt lat="44.76997" lon="6.32913">
        <ele>1897.8</ele>
        <time>2024-08-12T11:01:20Z</time>
      </trkpt>
      <trkpt lat="44.76997" lon="6.32913">
        <ele>1898</ele>
        <time>2024-08-12T11:01:21Z</time>
      </trkpt>
      <trkpt lat="44.76997" lon="6.32913">
        <ele>1898.2</ele>
        <time>2024-08-12T11:01:22Z</time>
      </trkpt>
      <trkpt lat="44.76997" lon="6.32913">
        <ele>1898.2</ele>
        <time>2024-08-12T11:01:23Z</time>
      </trkpt>
      <trkpt lat="44.76997" lon="6.32913">
        <ele>1898</ele>
        <time>2024-08-12T11:01:24Z</time>
      </trkpt>
      <trkpt lat="44.76997" lon="6.32913">
        <ele>1898</ele>
        <time>2024-08-12T11:01:25Z</time>
      </trkpt>
      <trkpt lat="44.76997" lon="6.32913">
        <ele>1898</ele>
        <time>2024-08-12T11:01:26Z</time>
      </trkpt>
      <trkpt lat="44.76997" lon="6.32913">
        <ele>1898</ele>
        <time>2024-08-12T11:01:27Z</time>
      </trkpt>
      <trkpt lat="44.76997" lon="6.32913">
        <ele>1898</ele>
        <time>2024-08-12T11:01:28Z</time>
      </trkpt>
      <trkpt lat="44.76997" lon="6.32913">
        <ele>1898.2</ele>
        <time>2024-08-12T11:01:29Z</time>
      </trkpt>
      <trkpt lat="44.76997" lon="6.32913">
        <ele>1898.6</ele>
        <time>2024-08-12T11:01:30Z</time>
      </trkpt>
      <trkpt lat="44.76997" lon="6.32913">
        <ele>1899</ele>
        <time>2024-08-12T11:01:31Z</time>
      </trkpt>
      <trkpt lat="44.76997" lon="6.32913">
        <ele>1899</ele>
        <time>2024-08-12T11:01:32Z</time>
      </trkpt>
      <trkpt lat="44.76997" lon="6.32913">
        <ele>1899.2</ele>
        <time>2024-08-12T11:01:33Z</time>
      </trkpt>
      <trkpt lat="44.76997" lon="6.32913">
        <ele>1899.2</ele>
        <time>2024-08-12T11:01:34Z</time>
      </trkpt>
      <trkpt lat="44.76997" lon="6.32913">
        <ele>1899.2</ele>
        <time>2024-08-12T11:01:35Z</time>
      </trkpt>
      <trkpt lat="44.76997" lon="6.32913">
        <ele>1899.8</ele>
        <time>2024-08-12T11:01:36Z</time>
      </trkpt>
      <trkpt lat="44.76997" lon="6.32913">
        <ele>1899.8</ele>
        <time>2024-08-12T11:01:37Z</time>
      </trkpt>
      <trkpt lat="44.76997" lon="6.32913">
        <ele>1900.2</ele>
        <time>2024-08-12T11:01:38Z</time>
      </trkpt>
      <trkpt lat="44.76997" lon="6.32913">
        <ele>1900.2</ele>
        <time>2024-08-12T11:01:39Z</time>
      </trkpt>
      <trkpt lat="44.77" lon="6.32914">
        <ele>1900.2</ele>
        <time>2024-08-12T11:01:40Z</time>
      </trkpt>
      <trkpt lat="44.77002" lon="6.32914">
        <ele>1900.2</ele>
        <time>2024-08-12T11:01:41Z</time>
      </trkpt>
      <trkpt lat="44.77002" lon="6.32914">
        <ele>1899.8</ele>
        <time>2024-08-12T11:01:42Z</time>
      </trkpt>
      <trkpt lat="44.77005" lon="6.32915">
        <ele>1899.8</ele>
        <time>2024-08-12T11:01:43Z</time>
      </trkpt>
      <trkpt lat="44.77005" lon="6.32915">
        <ele>1900</ele>
        <time>2024-08-12T11:01:44Z</time>
      </trkpt>
      <trkpt lat="44.77006" lon="6.32915">
        <ele>1900</ele>
        <time>2024-08-12T11:01:45Z</time>
      </trkpt>
      <trkpt lat="44.77006" lon="6.32915">
        <ele>1900.2</ele>
        <time>2024-08-12T11:01:46Z</time>
      </trkpt>
      <trkpt lat="44.77006" lon="6.32915">
        <ele>1900.6</ele>
        <time>2024-08-12T11:01:47Z</time>
      </trkpt>
      <trkpt lat="44.77009" lon="6.32914">
        <ele>1900.8</ele>
        <time>2024-08-12T11:01:48Z</time>
      </trkpt>
      <trkpt lat="44.77009" lon="6.32914">
        <ele>1900.8</ele>
        <time>2024-08-12T11:01:49Z</time>
      </trkpt>
      <trkpt lat="44.77009" lon="6.32914">
        <ele>1900.8</ele>
        <time>2024-08-12T11:01:50Z</time>
      </trkpt>
      <trkpt lat="44.77009" lon="6.32914">
        <ele>1901</ele>
        <time>2024-08-12T11:01:51Z</time>
      </trkpt>
      <trkpt lat="44.77009" lon="6.32914">
        <ele>1901.2</ele>
        <time>2024-08-12T11:01:52Z</time>
      </trkpt>
      <trkpt lat="44.77009" lon="6.32914">
        <ele>1901.4</ele>
        <time>2024-08-12T11:01:53Z</time>
      </trkpt>
      <trkpt lat="44.77011" lon="6.32915">
        <ele>1901.4</ele>
        <time>2024-08-12T11:01:54Z</time>
      </trkpt>
      <trkpt lat="44.77011" lon="6.32915">
        <ele>1901.4</ele>
        <time>2024-08-12T11:01:55Z</time>
      </trkpt>
      <trkpt lat="44.77011" lon="6.32915">
        <ele>1901.8</ele>
        <time>2024-08-12T11:01:56Z</time>
      </trkpt>
      <trkpt lat="44.77011" lon="6.32915">
        <ele>1901.8</ele>
        <time>2024-08-12T11:01:57Z</time>
      </trkpt>
      <trkpt lat="44.77011" lon="6.32915">
        <ele>1902</ele>
        <time>2024-08-12T11:01:58Z</time>
      </trkpt>
      <trkpt lat="44.77011" lon="6.32915">
        <ele>1902</ele>
        <time>2024-08-12T11:01:59Z</time>
      </trkpt>
      <trkpt lat="44.77011" lon="6.32915">
        <ele>1902.2</ele>
        <time>2024-08-12T11:02:00Z</time>
      </trkpt>
      <trkpt lat="44.77013" lon="6.32915">
        <ele>1902.2</ele>
        <time>2024-08-12T11:02:01Z</time>
      </trkpt>
      <trkpt lat="44.77013" lon="6.32915">
        <ele>1902.6</ele>
        <time>2024-08-12T11:02:02Z</time>
      </trkpt>
      <trkpt lat="44.77016" lon="6.32916">
        <ele>1902.6</ele>
        <time>2024-08-12T11:02:03Z</time>
      </trkpt>
      <trkpt lat="44.77016" lon="6.32916">
        <ele>1902.6</ele>
        <time>2024-08-12T11:02:04Z</time>
      </trkpt>
      <trkpt lat="44.77018" lon="6.32916">
        <ele>1902.6</ele>
        <time>2024-08-12T11:02:05Z</time>
      </trkpt>
      <trkpt lat="44.77018" lon="6.32916">
        <ele>1902.6</ele>
        <time>2024-08-12T11:02:06Z</time>
      </trkpt>
      <trkpt lat="44.77018" lon="6.32916">
        <ele>1902.8</ele>
        <time>2024-08-12T11:02:07Z</time>
      </trkpt>
      <trkpt lat="44.7702" lon="6.32915">
        <ele>1903</ele>
        <time>2024-08-12T11:02:08Z</time>
      </trkpt>
      <trkpt lat="44.7702" lon="6.32915">
        <ele>1903.4</ele>
        <time>2024-08-12T11:02:09Z</time>
      </trkpt>
      <trkpt lat="44.7702" lon="6.32915">
        <ele>1903.8</ele>
        <time>2024-08-12T11:02:10Z</time>
      </trkpt>
      <trkpt lat="44.77022" lon="6.32915">
        <ele>1903.8</ele>
        <time>2024-08-12T11:02:11Z</time>
      </trkpt>
      <trkpt lat="44.77022" lon="6.32915">
        <ele>1904</ele>
        <time>2024-08-12T11:02:12Z</time>
      </trkpt>
      <trkpt lat="44.77022" lon="6.32915">
        <ele>1904</ele>
        <time>2024-08-12T11:02:13Z</time>
      </trkpt>
      <trkpt lat="44.77022" lon="6.32915">
        <ele>1904</ele>
        <time>2024-08-12T11:02:14Z</time>
      </trkpt>
      <trkpt lat="44.77024" lon="6.32915">
        <ele>1904</ele>
        <time>2024-08-12T11:02:15Z</time>
      </trkpt>
      <trkpt lat="44.77024" lon="6.32915">
        <ele>1904.4</ele>
        <time>2024-08-12T11:02:16Z</time>
      </trkpt>
      <trkpt lat="44.77024" lon="6.32915">
        <ele>1904.6</ele>
        <time>2024-08-12T11:02:17Z</time>
      </trkpt>
      <trkpt lat="44.77026" lon="6.32916">
        <ele>1904.8</ele>
        <time>2024-08-12T11:02:18Z</time>
      </trkpt>
      <trkpt lat="44.77026" lon="6.32916">
        <ele>1905</ele>
        <time>2024-08-12T11:02:19Z</time>
      </trkpt>
      <trkpt lat="44.77028" lon="6.32915">
        <ele>1905</ele>
        <time>2024-08-12T11:02:20Z</time>
      </trkpt>
      <trkpt lat="44.77028" lon="6.32915">
        <ele>1905.2</ele>
        <time>2024-08-12T11:02:21Z</time>
      </trkpt>
      <trkpt lat="44.77028" lon="6.32915">
        <ele>1905.4</ele>
        <time>2024-08-12T11:02:22Z</time>
      </trkpt>
      <trkpt lat="44.7703" lon="6.32915">
        <ele>1905.4</ele>
        <time>2024-08-12T11:02:23Z</time>
      </trkpt>
      <trkpt lat="44.7703" lon="6.32915">
        <ele>1905.6</ele>
        <time>2024-08-12T11:02:24Z</time>
      </trkpt>
      <trkpt lat="44.7703" lon="6.32915">
        <ele>1905.8</ele>
        <time>2024-08-12T11:02:25Z</time>
      </trkpt>
      <trkpt lat="44.77032" lon="6.32914">
        <ele>1905.8</ele>
        <time>2024-08-12T11:02:26Z</time>
      </trkpt>
      <trkpt lat="44.77032" lon="6.32914">
        <ele>1906</ele>
        <time>2024-08-12T11:02:27Z</time>
      </trkpt>
      <trkpt lat="44.77034" lon="6.32913">
        <ele>1906.2</ele>
        <time>2024-08-12T11:02:28Z</time>
      </trkpt>
      <trkpt lat="44.77034" lon="6.32913">
        <ele>1906.4</ele>
        <time>2024-08-12T11:02:29Z</time>
      </trkpt>
      <trkpt lat="44.77034" lon="6.32913">
        <ele>1906.4</ele>
        <time>2024-08-12T11:02:30Z</time>
      </trkpt>
      <trkpt lat="44.77036" lon="6.32912">
        <ele>1906.4</ele>
        <time>2024-08-12T11:02:31Z</time>
      </trkpt>
      <trkpt lat="44.77036" lon="6.32912">
        <ele>1906.4</ele>
        <time>2024-08-12T11:02:32Z</time>
      </trkpt>
      <trkpt lat="44.77037" lon="6.32912">
        <ele>1907.2</ele>
        <time>2024-08-12T11:02:33Z</time>
      </trkpt>
      <trkpt lat="44.77037" lon="6.32912">
        <ele>1907.2</ele>
        <time>2024-08-12T11:02:34Z</time>
      </trkpt>
      <trkpt lat="44.77039" lon="6.32912">
        <ele>1907.6</ele>
        <time>2024-08-12T11:02:35Z</time>
      </trkpt>
      <trkpt lat="44.77039" lon="6.32912">
        <ele>1907.6</ele>
        <time>2024-08-12T11:02:36Z</time>
      </trkpt>
      <trkpt lat="44.77039" lon="6.32912">
        <ele>1907.4</ele>
        <time>2024-08-12T11:02:37Z</time>
      </trkpt>
      <trkpt lat="44.77039" lon="6.32912">
        <ele>1907.4</ele>
        <time>2024-08-12T11:02:38Z</time>
      </trkpt>
      <trkpt lat="44.77041" lon="6.32911">
        <ele>1907.6</ele>
        <time>2024-08-12T11:02:39Z</time>
      </trkpt>
      <trkpt lat="44.77041" lon="6.32911">
        <ele>1907.8</ele>
        <time>2024-08-12T11:02:40Z</time>
      </trkpt>
      <trkpt lat="44.77041" lon="6.32911">
        <ele>1908</ele>
        <time>2024-08-12T11:02:41Z</time>
      </trkpt>
      <trkpt lat="44.77043" lon="6.32911">
        <ele>1908.2</ele>
        <time>2024-08-12T11:02:42Z</time>
      </trkpt>
      <trkpt lat="44.77043" lon="6.32911">
        <ele>1908.2</ele>
        <time>2024-08-12T11:02:43Z</time>
      </trkpt>
      <trkpt lat="44.77045" lon="6.3291">
        <ele>1908.2</ele>
        <time>2024-08-12T11:02:44Z</time>
      </trkpt>
      <trkpt lat="44.77045" lon="6.3291">
        <ele>1908</ele>
        <time>2024-08-12T11:02:45Z</time>
      </trkpt>
      <trkpt lat="44.77045" lon="6.3291">
        <ele>1907.8</ele>
        <time>2024-08-12T11:02:46Z</time>
      </trkpt>
      <trkpt lat="44.77047" lon="6.3291">
        <ele>1907.8</ele>
        <time>2024-08-12T11:02:47Z</time>
      </trkpt>
      <trkpt lat="44.77047" lon="6.3291">
        <ele>1907.8</ele>
        <time>2024-08-12T11:02:48Z</time>
      </trkpt>
      <trkpt lat="44.77049" lon="6.32908">
        <ele>1908</ele>
        <time>2024-08-12T11:02:49Z</time>
      </trkpt>
      <trkpt lat="44.77049" lon="6.32908">
        <ele>1908.4</ele>
        <time>2024-08-12T11:02:50Z</time>
      </trkpt>
      <trkpt lat="44.77049" lon="6.32908">
        <ele>1908.4</ele>
        <time>2024-08-12T11:02:51Z</time>
      </trkpt>
      <trkpt lat="44.77051" lon="6.32908">
        <ele>1908.4</ele>
        <time>2024-08-12T11:02:52Z</time>
      </trkpt>
      <trkpt lat="44.77051" lon="6.32908">
        <ele>1908.6</ele>
        <time>2024-08-12T11:02:53Z</time>
      </trkpt>
      <trkpt lat="44.77051" lon="6.32908">
        <ele>1908.6</ele>
        <time>2024-08-12T11:02:54Z</time>
      </trkpt>
      <trkpt lat="44.77054" lon="6.32909">
        <ele>1908.6</ele>
        <time>2024-08-12T11:02:55Z</time>
      </trkpt>
      <trkpt lat="44.77054" lon="6.32909">
        <ele>1908.4</ele>
        <time>2024-08-12T11:02:56Z</time>
      </trkpt>
      <trkpt lat="44.77056" lon="6.3291">
        <ele>1908.4</ele>
        <time>2024-08-12T11:02:57Z</time>
      </trkpt>
      <trkpt lat="44.77056" lon="6.3291">
        <ele>1908.4</ele>
        <time>2024-08-12T11:02:58Z</time>
      </trkpt>
      <trkpt lat="44.77056" lon="6.3291">
        <ele>1908.4</ele>
        <time>2024-08-12T11:02:59Z</time>
      </trkpt>
      <trkpt lat="44.77059" lon="6.32911">
        <ele>1908.6</ele>
        <time>2024-08-12T11:03:00Z</time>
      </trkpt>
      <trkpt lat="44.77059" lon="6.32911">
        <ele>1908.6</ele>
        <time>2024-08-12T11:03:01Z</time>
      </trkpt>
      <trkpt lat="44.77059" lon="6.32911">
        <ele>1908.8</ele>
        <time>2024-08-12T11:03:02Z</time>
      </trkpt>
      <trkpt lat="44.77061" lon="6.32911">
        <ele>1908.8</ele>
        <time>2024-08-12T11:03:03Z</time>
      </trkpt>
      <trkpt lat="44.77061" lon="6.32911">
        <ele>1908.8</ele>
        <time>2024-08-12T11:03:04Z</time>
      </trkpt>
      <trkpt lat="44.77061" lon="6.32911">
        <ele>1909.2</ele>
        <time>2024-08-12T11:03:05Z</time>
      </trkpt>
      <trkpt lat="44.77063" lon="6.32912">
        <ele>1909.2</ele>
        <time>2024-08-12T11:03:06Z</time>
      </trkpt>
      <trkpt lat="44.77063" lon="6.32912">
        <ele>1909.4</ele>
        <time>2024-08-12T11:03:07Z</time>
      </trkpt>
      <trkpt lat="44.77063" lon="6.32912">
        <ele>1909.6</ele>
        <time>2024-08-12T11:03:08Z</time>
      </trkpt>
      <trkpt lat="44.77065" lon="6.32914">
        <ele>1909.8</ele>
        <time>2024-08-12T11:03:09Z</time>
      </trkpt>
      <trkpt lat="44.77065" lon="6.32914">
        <ele>1910.2</ele>
        <time>2024-08-12T11:03:10Z</time>
      </trkpt>
      <trkpt lat="44.77067" lon="6.32915">
        <ele>1910.2</ele>
        <time>2024-08-12T11:03:11Z</time>
      </trkpt>
      <trkpt lat="44.77067" lon="6.32915">
        <ele>1910.2</ele>
        <time>2024-08-12T11:03:12Z</time>
      </trkpt>
      <trkpt lat="44.77067" lon="6.32915">
        <ele>1910.2</ele>
        <time>2024-08-12T11:03:13Z</time>
      </trkpt>
      <trkpt lat="44.77069" lon="6.32915">
        <ele>1910.2</ele>
        <time>2024-08-12T11:03:14Z</time>
      </trkpt>
      <trkpt lat="44.77069" lon="6.32915">
        <ele>1910.4</ele>
        <time>2024-08-12T11:03:15Z</time>
      </trkpt>
      <trkpt lat="44.77071" lon="6.32915">
        <ele>1910.6</ele>
        <time>2024-08-12T11:03:16Z</time>
      </trkpt>
      <trkpt lat="44.77071" lon="6.32915">
        <ele>1910.6</ele>
        <time>2024-08-12T11:03:17Z</time>
      </trkpt>
      <trkpt lat="44.77071" lon="6.32915">
        <ele>1910.8</ele>
        <time>2024-08-12T11:03:18Z</time>
      </trkpt>
      <trkpt lat="44.77073" lon="6.32915">
        <ele>1911.4</ele>
        <time>2024-08-12T11:03:19Z</time>
      </trkpt>
      <trkpt lat="44.77073" lon="6.32915">
        <ele>1911.6</ele>
        <time>2024-08-12T11:03:20Z</time>
      </trkpt>
      <trkpt lat="44.77073" lon="6.32915">
        <ele>1911.6</ele>
        <time>2024-08-12T11:03:21Z</time>
      </trkpt>
      <trkpt lat="44.77075" lon="6.32915">
        <ele>1911.6</ele>
        <time>2024-08-12T11:03:22Z</time>
      </trkpt>
      <trkpt lat="44.77075" lon="6.32915">
        <ele>1911.6</ele>
        <time>2024-08-12T11:03:23Z</time>
      </trkpt>
      <trkpt lat="44.77077" lon="6.32915">
        <ele>1912</ele>
        <time>2024-08-12T11:03:24Z</time>
      </trkpt>
      <trkpt lat="44.77077" lon="6.32915">
        <ele>1912.2</ele>
        <time>2024-08-12T11:03:25Z</time>
      </trkpt>
      <trkpt lat="44.77077" lon="6.32915">
        <ele>1912.4</ele>
        <time>2024-08-12T11:03:26Z</time>
      </trkpt>
      <trkpt lat="44.77079" lon="6.32916">
        <ele>1912.6</ele>
        <time>2024-08-12T11:03:27Z</time>
      </trkpt>
      <trkpt lat="44.77079" lon="6.32916">
        <ele>1912.6</ele>
        <time>2024-08-12T11:03:28Z</time>
      </trkpt>
      <trkpt lat="44.77079" lon="6.32916">
        <ele>1912.8</ele>
        <time>2024-08-12T11:03:29Z</time>
      </trkpt>
      <trkpt lat="44.77081" lon="6.32917">
        <ele>1913</ele>
        <time>2024-08-12T11:03:30Z</time>
      </trkpt>
      <trkpt lat="44.77081" lon="6.32917">
        <ele>1913.2</ele>
        <time>2024-08-12T11:03:31Z</time>
      </trkpt>
      <trkpt lat="44.77081" lon="6.32917">
        <ele>1913.4</ele>
        <time>2024-08-12T11:03:32Z</time>
      </trkpt>
      <trkpt lat="44.77081" lon="6.32917">
        <ele>1913.8</ele>
        <time>2024-08-12T11:03:33Z</time>
      </trkpt>
      <trkpt lat="44.77083" lon="6.32918">
        <ele>1913.8</ele>
        <time>2024-08-12T11:03:34Z</time>
      </trkpt>
      <trkpt lat="44.77083" lon="6.32918">
        <ele>1914</ele>
        <time>2024-08-12T11:03:35Z</time>
      </trkpt>
      <trkpt lat="44.77085" lon="6.32917">
        <ele>1914.2</ele>
        <time>2024-08-12T11:03:36Z</time>
      </trkpt>
      <trkpt lat="44.77085" lon="6.32917">
        <ele>1914.2</ele>
        <time>2024-08-12T11:03:37Z</time>
      </trkpt>
      <trkpt lat="44.77085" lon="6.32917">
        <ele>1914.2</ele>
        <time>2024-08-12T11:03:38Z</time>
      </trkpt>
      <trkpt lat="44.77087" lon="6.32917">
        <ele>1914.2</ele>
        <time>2024-08-12T11:03:39Z</time>
      </trkpt>
      <trkpt lat="44.77087" lon="6.32917">
        <ele>1914.4</ele>
        <time>2024-08-12T11:03:40Z</time>
      </trkpt>
      <trkpt lat="44.77087" lon="6.32917">
        <ele>1914.8</ele>
        <time>2024-08-12T11:03:41Z</time>
      </trkpt>
      <trkpt lat="44.77089" lon="6.32917">
        <ele>1914.8</ele>
        <time>2024-08-12T11:03:42Z</time>
      </trkpt>
      <trkpt lat="44.77089" lon="6.32917">
        <ele>1914.8</ele>
        <time>2024-08-12T11:03:43Z</time>
      </trkpt>
      <trkpt lat="44.77089" lon="6.32917">
        <ele>1915</ele>
        <time>2024-08-12T11:03:44Z</time>
      </trkpt>
      <trkpt lat="44.77091" lon="6.32918">
        <ele>1915.2</ele>
        <time>2024-08-12T11:03:45Z</time>
      </trkpt>
      <trkpt lat="44.77091" lon="6.32918">
        <ele>1915.2</ele>
        <time>2024-08-12T11:03:46Z</time>
      </trkpt>
      <trkpt lat="44.77091" lon="6.32918">
        <ele>1915.2</ele>
        <time>2024-08-12T11:03:47Z</time>
      </trkpt>
      <trkpt lat="44.77093" lon="6.32918">
        <ele>1915.4</ele>
        <time>2024-08-12T11:03:48Z</time>
      </trkpt>
      <trkpt lat="44.77093" lon="6.32918">
        <ele>1915.6</ele>
        <time>2024-08-12T11:03:49Z</time>
      </trkpt>
      <trkpt lat="44.77093" lon="6.32918">
        <ele>1915.8</ele>
        <time>2024-08-12T11:03:50Z</time>
      </trkpt>
      <trkpt lat="44.77095" lon="6.32918">
        <ele>1916</ele>
        <time>2024-08-12T11:03:51Z</time>
      </trkpt>
      <trkpt lat="44.77095" lon="6.32918">
        <ele>1916.2</ele>
        <time>2024-08-12T11:03:52Z</time>
      </trkpt>
      <trkpt lat="44.77095" lon="6.32918">
        <ele>1916.2</ele>
        <time>2024-08-12T11:03:53Z</time>
      </trkpt>
      <trkpt lat="44.77098" lon="6.32919">
        <ele>1916.4</ele>
        <time>2024-08-12T11:03:54Z</time>
      </trkpt>
      <trkpt lat="44.77098" lon="6.32919">
        <ele>1916.6</ele>
        <time>2024-08-12T11:03:55Z</time>
      </trkpt>
      <trkpt lat="44.77098" lon="6.32919">
        <ele>1916.6</ele>
        <time>2024-08-12T11:03:56Z</time>
      </trkpt>
      <trkpt lat="44.771" lon="6.32918">
        <ele>1916.8</ele>
        <time>2024-08-12T11:03:57Z</time>
      </trkpt>
      <trkpt lat="44.771" lon="6.32918">
        <ele>1916.8</ele>
        <time>2024-08-12T11:03:58Z</time>
      </trkpt>
      <trkpt lat="44.771" lon="6.32918">
        <ele>1917.2</ele>
        <time>2024-08-12T11:03:59Z</time>
      </trkpt>
      <trkpt lat="44.771" lon="6.32918">
        <ele>1917.2</ele>
        <time>2024-08-12T11:04:00Z</time>
      </trkpt>
      <trkpt lat="44.77102" lon="6.32919">
        <ele>1917.6</ele>
        <time>2024-08-12T11:04:01Z</time>
      </trkpt>
      <trkpt lat="44.77102" lon="6.32919">
        <ele>1918</ele>
        <time>2024-08-12T11:04:02Z</time>
      </trkpt>
      <trkpt lat="44.77102" lon="6.32919">
        <ele>1918</ele>
        <time>2024-08-12T11:04:03Z</time>
      </trkpt>
      <trkpt lat="44.77104" lon="6.32919">
        <ele>1918</ele>
        <time>2024-08-12T11:04:04Z</time>
      </trkpt>
      <trkpt lat="44.77104" lon="6.32919">
        <ele>1918.2</ele>
        <time>2024-08-12T11:04:05Z</time>
      </trkpt>
      <trkpt lat="44.77104" lon="6.32919">
        <ele>1918.2</ele>
        <time>2024-08-12T11:04:06Z</time>
      </trkpt>
      <trkpt lat="44.77106" lon="6.3292">
        <ele>1918.4</ele>
        <time>2024-08-12T11:04:07Z</time>
      </trkpt>
      <trkpt lat="44.77106" lon="6.3292">
        <ele>1918.6</ele>
        <time>2024-08-12T11:04:08Z</time>
      </trkpt>
      <trkpt lat="44.77108" lon="6.3292">
        <ele>1918.8</ele>
        <time>2024-08-12T11:04:09Z</time>
      </trkpt>
      <trkpt lat="44.77108" lon="6.3292">
        <ele>1919</ele>
        <time>2024-08-12T11:04:10Z</time>
      </trkpt>
      <trkpt lat="44.77108" lon="6.3292">
        <ele>1919.2</ele>
        <time>2024-08-12T11:04:11Z</time>
      </trkpt>
      <trkpt lat="44.77111" lon="6.3292">
        <ele>1919.2</ele>
        <time>2024-08-12T11:04:12Z</time>
      </trkpt>
      <trkpt lat="44.77111" lon="6.3292">
        <ele>1919.4</ele>
        <time>2024-08-12T11:04:13Z</time>
      </trkpt>
      <trkpt lat="44.77111" lon="6.3292">
        <ele>1919.4</ele>
        <time>2024-08-12T11:04:14Z</time>
      </trkpt>
      <trkpt lat="44.77113" lon="6.32919">
        <ele>1919.4</ele>
        <time>2024-08-12T11:04:15Z</time>
      </trkpt>
      <trkpt lat="44.77113" lon="6.32919">
        <ele>1919.4</ele>
        <time>2024-08-12T11:04:16Z</time>
      </trkpt>
      <trkpt lat="44.77113" lon="6.32919">
        <ele>1919.4</ele>
        <time>2024-08-12T11:04:17Z</time>
      </trkpt>
      <trkpt lat="44.77115" lon="6.32918">
        <ele>1919.8</ele>
        <time>2024-08-12T11:04:18Z</time>
      </trkpt>
      <trkpt lat="44.77115" lon="6.32918">
        <ele>1920</ele>
        <time>2024-08-12T11:04:19Z</time>
      </trkpt>
      <trkpt lat="44.77117" lon="6.32917">
        <ele>1920</ele>
        <time>2024-08-12T11:04:20Z</time>
      </trkpt>
      <trkpt lat="44.77117" lon="6.32917">
        <ele>1920.2</ele>
        <time>2024-08-12T11:04:21Z</time>
      </trkpt>
      <trkpt lat="44.77119" lon="6.32916">
        <ele>1920.4</ele>
        <time>2024-08-12T11:04:22Z</time>
      </trkpt>
      <trkpt lat="44.77119" lon="6.32916">
        <ele>1920.4</ele>
        <time>2024-08-12T11:04:23Z</time>
      </trkpt>
      <trkpt lat="44.7712" lon="6.32915">
        <ele>1920.4</ele>
        <time>2024-08-12T11:04:24Z</time>
      </trkpt>
      <trkpt lat="44.7712" lon="6.32915">
        <ele>1920.4</ele>
        <time>2024-08-12T11:04:25Z</time>
      </trkpt>
      <trkpt lat="44.77122" lon="6.32913">
        <ele>1920.4</ele>
        <time>2024-08-12T11:04:26Z</time>
      </trkpt>
      <trkpt lat="44.77122" lon="6.32913">
        <ele>1920.8</ele>
        <time>2024-08-12T11:04:27Z</time>
      </trkpt>
      <trkpt lat="44.77122" lon="6.32913">
        <ele>1921</ele>
        <time>2024-08-12T11:04:28Z</time>
      </trkpt>
      <trkpt lat="44.77125" lon="6.32912">
        <ele>1921.2</ele>
        <time>2024-08-12T11:04:29Z</time>
      </trkpt>
      <trkpt lat="44.77125" lon="6.32912">
        <ele>1921.2</ele>
        <time>2024-08-12T11:04:30Z</time>
      </trkpt>
      <trkpt lat="44.77126" lon="6.3291">
        <ele>1921.4</ele>
        <time>2024-08-12T11:04:31Z</time>
      </trkpt>
      <trkpt lat="44.77126" lon="6.3291">
        <ele>1921.8</ele>
        <time>2024-08-12T11:04:32Z</time>
      </trkpt>
      <trkpt lat="44.77126" lon="6.3291">
        <ele>1921.8</ele>
        <time>2024-08-12T11:04:33Z</time>
      </trkpt>
      <trkpt lat="44.77129" lon="6.32911">
        <ele>1921.8</ele>
        <time>2024-08-12T11:04:34Z</time>
      </trkpt>
      <trkpt lat="44.77129" lon="6.32911">
        <ele>1921.8</ele>
        <time>2024-08-12T11:04:35Z</time>
      </trkpt>
      <trkpt lat="44.77129" lon="6.32911">
        <ele>1921.8</ele>
        <time>2024-08-12T11:04:36Z</time>
      </trkpt>
      <trkpt lat="44.77131" lon="6.32909">
        <ele>1921.6</ele>
        <time>2024-08-12T11:04:37Z</time>
      </trkpt>
      <trkpt lat="44.77131" lon="6.32909">
        <ele>1921.4</ele>
        <time>2024-08-12T11:04:38Z</time>
      </trkpt>
      <trkpt lat="44.77133" lon="6.32909">
        <ele>1921.4</ele>
        <time>2024-08-12T11:04:39Z</time>
      </trkpt>
      <trkpt lat="44.77133" lon="6.32909">
        <ele>1921.6</ele>
        <time>2024-08-12T11:04:40Z</time>
      </trkpt>
      <trkpt lat="44.77135" lon="6.32908">
        <ele>1921.6</ele>
        <time>2024-08-12T11:04:41Z</time>
      </trkpt>
      <trkpt lat="44.77135" lon="6.32908">
        <ele>1921.6</ele>
        <time>2024-08-12T11:04:42Z</time>
      </trkpt>
      <trkpt lat="44.77138" lon="6.32907">
        <ele>1921.4</ele>
        <time>2024-08-12T11:04:43Z</time>
      </trkpt>
      <trkpt lat="44.77138" lon="6.32907">
        <ele>1921.4</ele>
        <time>2024-08-12T11:04:44Z</time>
      </trkpt>
      <trkpt lat="44.7714" lon="6.32906">
        <ele>1921.6</ele>
        <time>2024-08-12T11:04:45Z</time>
      </trkpt>
      <trkpt lat="44.7714" lon="6.32906">
        <ele>1921.8</ele>
        <time>2024-08-12T11:04:46Z</time>
      </trkpt>
      <trkpt lat="44.77142" lon="6.32905">
        <ele>1921.8</ele>
        <time>2024-08-12T11:04:47Z</time>
      </trkpt>
      <trkpt lat="44.77142" lon="6.32905">
        <ele>1922</ele>
        <time>2024-08-12T11:04:48Z</time>
      </trkpt>
      <trkpt lat="44.77145" lon="6.32905">
        <ele>1922</ele>
        <time>2024-08-12T11:04:49Z</time>
      </trkpt>
      <trkpt lat="44.77145" lon="6.32905">
        <ele>1922</ele>
        <time>2024-08-12T11:04:50Z</time>
      </trkpt>
      <trkpt lat="44.77147" lon="6.32904">
        <ele>1922</ele>
        <time>2024-08-12T11:04:51Z</time>
      </trkpt>
      <trkpt lat="44.77147" lon="6.32904">
        <ele>1921.8</ele>
        <time>2024-08-12T11:04:52Z</time>
      </trkpt>
      <trkpt lat="44.77149" lon="6.32903">
        <ele>1921.8</ele>
        <time>2024-08-12T11:04:53Z</time>
      </trkpt>
      <trkpt lat="44.77149" lon="6.32903">
        <ele>1921.6</ele>
        <time>2024-08-12T11:04:54Z</time>
      </trkpt>
      <trkpt lat="44.7715" lon="6.32902">
        <ele>1921.6</ele>
        <time>2024-08-12T11:04:55Z</time>
      </trkpt>
      <trkpt lat="44.7715" lon="6.32902">
        <ele>1921.6</ele>
        <time>2024-08-12T11:04:56Z</time>
      </trkpt>
      <trkpt lat="44.7715" lon="6.32902">
        <ele>1921.6</ele>
        <time>2024-08-12T11:04:57Z</time>
      </trkpt>
      <trkpt lat="44.77153" lon="6.329">
        <ele>1921.4</ele>
        <time>2024-08-12T11:04:58Z</time>
      </trkpt>
      <trkpt lat="44.77153" lon="6.329">
        <ele>1921.2</ele>
        <time>2024-08-12T11:04:59Z</time>
      </trkpt>
      <trkpt lat="44.77153" lon="6.329">
        <ele>1921.2</ele>
        <time>2024-08-12T11:05:00Z</time>
      </trkpt>
      <trkpt lat="44.77155" lon="6.32898">
        <ele>1921.2</ele>
        <time>2024-08-12T11:05:01Z</time>
      </trkpt>
      <trkpt lat="44.77155" lon="6.32898">
        <ele>1921.2</ele>
        <time>2024-08-12T11:05:02Z</time>
      </trkpt>
      <trkpt lat="44.77157" lon="6.32896">
        <ele>1921.2</ele>
        <time>2024-08-12T11:05:03Z</time>
      </trkpt>
      <trkpt lat="44.77157" lon="6.32896">
        <ele>1920.8</ele>
        <time>2024-08-12T11:05:04Z</time>
      </trkpt>
      <trkpt lat="44.77158" lon="6.32894">
        <ele>1920.6</ele>
        <time>2024-08-12T11:05:05Z</time>
      </trkpt>
      <trkpt lat="44.77158" lon="6.32894">
        <ele>1920.6</ele>
        <time>2024-08-12T11:05:06Z</time>
      </trkpt>
      <trkpt lat="44.7716" lon="6.32894">
        <ele>1920.4</ele>
        <time>2024-08-12T11:05:07Z</time>
      </trkpt>
      <trkpt lat="44.7716" lon="6.32894">
        <ele>1920.4</ele>
        <time>2024-08-12T11:05:08Z</time>
      </trkpt>
      <trkpt lat="44.77162" lon="6.32892">
        <ele>1919.8</ele>
        <time>2024-08-12T11:05:09Z</time>
      </trkpt>
      <trkpt lat="44.77162" lon="6.32892">
        <ele>1919.4</ele>
        <time>2024-08-12T11:05:10Z</time>
      </trkpt>
      <trkpt lat="44.77162" lon="6.32892">
        <ele>1919.4</ele>
        <time>2024-08-12T11:05:11Z</time>
      </trkpt>
      <trkpt lat="44.77165" lon="6.3289">
        <ele>1919.2</ele>
        <time>2024-08-12T11:05:12Z</time>
      </trkpt>
      <trkpt lat="44.77165" lon="6.3289">
        <ele>1919</ele>
        <time>2024-08-12T11:05:13Z</time>
      </trkpt>
      <trkpt lat="44.77166" lon="6.3289">
        <ele>1919</ele>
        <time>2024-08-12T11:05:14Z</time>
      </trkpt>
      <trkpt lat="44.77166" lon="6.3289">
        <ele>1918.8</ele>
        <time>2024-08-12T11:05:15Z</time>
      </trkpt>
      <trkpt lat="44.77166" lon="6.3289">
        <ele>1918.8</ele>
        <time>2024-08-12T11:05:16Z</time>
      </trkpt>
      <trkpt lat="44.77169" lon="6.3289">
        <ele>1918.8</ele>
        <time>2024-08-12T11:05:17Z</time>
      </trkpt>
      <trkpt lat="44.77169" lon="6.3289">
        <ele>1918.8</ele>
        <time>2024-08-12T11:05:18Z</time>
      </trkpt>
      <trkpt lat="44.77169" lon="6.3289">
        <ele>1918.8</ele>
        <time>2024-08-12T11:05:19Z</time>
      </trkpt>
      <trkpt lat="44.77171" lon="6.3289">
        <ele>1918.6</ele>
        <time>2024-08-12T11:05:20Z</time>
      </trkpt>
      <trkpt lat="44.77171" lon="6.3289">
        <ele>1918.6</ele>
        <time>2024-08-12T11:05:21Z</time>
      </trkpt>
      <trkpt lat="44.77173" lon="6.3289">
        <ele>1918.6</ele>
        <time>2024-08-12T11:05:22Z</time>
      </trkpt>
      <trkpt lat="44.77173" lon="6.3289">
        <ele>1918.4</ele>
        <time>2024-08-12T11:05:23Z</time>
      </trkpt>
      <trkpt lat="44.77173" lon="6.3289">
        <ele>1918.4</ele>
        <time>2024-08-12T11:05:24Z</time>
      </trkpt>
      <trkpt lat="44.77173" lon="6.3289">
        <ele>1918.8</ele>
        <time>2024-08-12T11:05:25Z</time>
      </trkpt>
      <trkpt lat="44.77175" lon="6.32888">
        <ele>1918.8</ele>
        <time>2024-08-12T11:05:26Z</time>
      </trkpt>
      <trkpt lat="44.77175" lon="6.32888">
        <ele>1918.8</ele>
        <time>2024-08-12T11:05:27Z</time>
      </trkpt>
      <trkpt lat="44.77175" lon="6.32888">
        <ele>1918.8</ele>
        <time>2024-08-12T11:05:28Z</time>
      </trkpt>
      <trkpt lat="44.77177" lon="6.32887">
        <ele>1918.6</ele>
        <time>2024-08-12T11:05:29Z</time>
      </trkpt>
      <trkpt lat="44.77177" lon="6.32887">
        <ele>1918.8</ele>
        <time>2024-08-12T11:05:30Z</time>
      </trkpt>
      <trkpt lat="44.77177" lon="6.32887">
        <ele>1918.8</ele>
        <time>2024-08-12T11:05:31Z</time>
      </trkpt>
      <trkpt lat="44.77179" lon="6.32888">
        <ele>1919</ele>
        <time>2024-08-12T11:05:32Z</time>
      </trkpt>
      <trkpt lat="44.77179" lon="6.32888">
        <ele>1919</ele>
        <time>2024-08-12T11:05:33Z</time>
      </trkpt>
      <trkpt lat="44.77179" lon="6.32888">
        <ele>1919</ele>
        <time>2024-08-12T11:05:34Z</time>
      </trkpt>
      <trkpt lat="44.77182" lon="6.32889">
        <ele>1919</ele>
        <time>2024-08-12T11:05:35Z</time>
      </trkpt>
      <trkpt lat="44.77182" lon="6.32889">
        <ele>1919.2</ele>
        <time>2024-08-12T11:05:36Z</time>
      </trkpt>
      <trkpt lat="44.77182" lon="6.32889">
        <ele>1919.4</ele>
        <time>2024-08-12T11:05:37Z</time>
      </trkpt>
      <trkpt lat="44.77184" lon="6.32887">
        <ele>1919.4</ele>
        <time>2024-08-12T11:05:38Z</time>
      </trkpt>
      <trkpt lat="44.77184" lon="6.32887">
        <ele>1919.6</ele>
        <time>2024-08-12T11:05:39Z</time>
      </trkpt>
      <trkpt lat="44.77184" lon="6.32887">
        <ele>1919.8</ele>
        <time>2024-08-12T11:05:40Z</time>
      </trkpt>
      <trkpt lat="44.77186" lon="6.32886">
        <ele>1919.8</ele>
        <time>2024-08-12T11:05:41Z</time>
      </trkpt>
      <trkpt lat="44.77186" lon="6.32886">
        <ele>1920.2</ele>
        <time>2024-08-12T11:05:42Z</time>
      </trkpt>
      <trkpt lat="44.77186" lon="6.32886">
        <ele>1920.2</ele>
        <time>2024-08-12T11:05:43Z</time>
      </trkpt>
      <trkpt lat="44.77186" lon="6.32886">
        <ele>1920.2</ele>
        <time>2024-08-12T11:05:44Z</time>
      </trkpt>
      <trkpt lat="44.77188" lon="6.32886">
        <ele>1920.6</ele>
        <time>2024-08-12T11:05:45Z</time>
      </trkpt>
      <trkpt lat="44.77188" lon="6.32886">
        <ele>1920.6</ele>
        <time>2024-08-12T11:05:46Z</time>
      </trkpt>
      <trkpt lat="44.7719" lon="6.32886">
        <ele>1921</ele>
        <time>2024-08-12T11:05:47Z</time>
      </trkpt>
      <trkpt lat="44.7719" lon="6.32886">
        <ele>1920.8</ele>
        <time>2024-08-12T11:05:48Z</time>
      </trkpt>
      <trkpt lat="44.7719" lon="6.32886">
        <ele>1920.8</ele>
        <time>2024-08-12T11:05:49Z</time>
      </trkpt>
      <trkpt lat="44.77192" lon="6.32884">
        <ele>1920.8</ele>
        <time>2024-08-12T11:05:50Z</time>
      </trkpt>
      <trkpt lat="44.77192" lon="6.32884">
        <ele>1920.8</ele>
        <time>2024-08-12T11:05:51Z</time>
      </trkpt>
      <trkpt lat="44.77192" lon="6.32884">
        <ele>1920.8</ele>
        <time>2024-08-12T11:05:52Z</time>
      </trkpt>
      <trkpt lat="44.77194" lon="6.32884">
        <ele>1921.2</ele>
        <time>2024-08-12T11:05:53Z</time>
      </trkpt>
      <trkpt lat="44.77194" lon="6.32884">
        <ele>1921.4</ele>
        <time>2024-08-12T11:05:54Z</time>
      </trkpt>
      <trkpt lat="44.77196" lon="6.32885">
        <ele>1921.4</ele>
        <time>2024-08-12T11:05:55Z</time>
      </trkpt>
      <trkpt lat="44.77196" lon="6.32885">
        <ele>1921.4</ele>
        <time>2024-08-12T11:05:56Z</time>
      </trkpt>
      <trkpt lat="44.77199" lon="6.32886">
        <ele>1921.4</ele>
        <time>2024-08-12T11:05:57Z</time>
      </trkpt>
      <trkpt lat="44.77199" lon="6.32886">
        <ele>1921.2</ele>
        <time>2024-08-12T11:05:58Z</time>
      </trkpt>
      <trkpt lat="44.772" lon="6.32888">
        <ele>1921</ele>
        <time>2024-08-12T11:05:59Z</time>
      </trkpt>
      <trkpt lat="44.772" lon="6.32888">
        <ele>1920.8</ele>
        <time>2024-08-12T11:06:00Z</time>
      </trkpt>
      <trkpt lat="44.772" lon="6.32888">
        <ele>1920.8</ele>
        <time>2024-08-12T11:06:01Z</time>
      </trkpt>
      <trkpt lat="44.77203" lon="6.32886">
        <ele>1921</ele>
        <time>2024-08-12T11:06:02Z</time>
      </trkpt>
      <trkpt lat="44.77203" lon="6.32886">
        <ele>1921</ele>
        <time>2024-08-12T11:06:03Z</time>
      </trkpt>
      <trkpt lat="44.77203" lon="6.32886">
        <ele>1921.2</ele>
        <time>2024-08-12T11:06:04Z</time>
      </trkpt>
      <trkpt lat="44.77205" lon="6.32884">
        <ele>1921.2</ele>
        <time>2024-08-12T11:06:05Z</time>
      </trkpt>
      <trkpt lat="44.77205" lon="6.32884">
        <ele>1921.4</ele>
        <time>2024-08-12T11:06:06Z</time>
      </trkpt>
      <trkpt lat="44.77205" lon="6.32884">
        <ele>1921.6</ele>
        <time>2024-08-12T11:06:07Z</time>
      </trkpt>
      <trkpt lat="44.77206" lon="6.32883">
        <ele>1921.6</ele>
        <time>2024-08-12T11:06:08Z</time>
      </trkpt>
      <trkpt lat="44.77206" lon="6.32883">
        <ele>1922</ele>
        <time>2024-08-12T11:06:09Z</time>
      </trkpt>
      <trkpt lat="44.77208" lon="6.32881">
        <ele>1922.2</ele>
        <time>2024-08-12T11:06:10Z</time>
      </trkpt>
      <trkpt lat="44.77208" lon="6.32881">
        <ele>1922.4</ele>
        <time>2024-08-12T11:06:11Z</time>
      </trkpt>
      <trkpt lat="44.77208" lon="6.32881">
        <ele>1922.6</ele>
        <time>2024-08-12T11:06:12Z</time>
      </trkpt>
      <trkpt lat="44.77211" lon="6.3288">
        <ele>1922.6</ele>
        <time>2024-08-12T11:06:13Z</time>
      </trkpt>
      <trkpt lat="44.77211" lon="6.3288">
        <ele>1922.6</ele>
        <time>2024-08-12T11:06:14Z</time>
      </trkpt>
      <trkpt lat="44.77211" lon="6.3288">
        <ele>1922.8</ele>
        <time>2024-08-12T11:06:15Z</time>
      </trkpt>
      <trkpt lat="44.77212" lon="6.32878">
        <ele>1923.2</ele>
        <time>2024-08-12T11:06:16Z</time>
      </trkpt>
      <trkpt lat="44.77212" lon="6.32878">
        <ele>1923.2</ele>
        <time>2024-08-12T11:06:17Z</time>
      </trkpt>
      <trkpt lat="44.77212" lon="6.32878">
        <ele>1923.4</ele>
        <time>2024-08-12T11:06:18Z</time>
      </trkpt>
      <trkpt lat="44.77214" lon="6.32877">
        <ele>1923.6</ele>
        <time>2024-08-12T11:06:19Z</time>
      </trkpt>
      <trkpt lat="44.77214" lon="6.32877">
        <ele>1923.6</ele>
        <time>2024-08-12T11:06:20Z</time>
      </trkpt>
      <trkpt lat="44.77214" lon="6.32877">
        <ele>1923.8</ele>
        <time>2024-08-12T11:06:21Z</time>
      </trkpt>
      <trkpt lat="44.77216" lon="6.32875">
        <ele>1924</ele>
        <time>2024-08-12T11:06:22Z</time>
      </trkpt>
      <trkpt lat="44.77216" lon="6.32875">
        <ele>1924.4</ele>
        <time>2024-08-12T11:06:23Z</time>
      </trkpt>
      <trkpt lat="44.77216" lon="6.32875">
        <ele>1924.6</ele>
        <time>2024-08-12T11:06:24Z</time>
      </trkpt>
      <trkpt lat="44.77218" lon="6.32874">
        <ele>1924.6</ele>
        <time>2024-08-12T11:06:25Z</time>
      </trkpt>
      <trkpt lat="44.77218" lon="6.32874">
        <ele>1924.6</ele>
        <time>2024-08-12T11:06:26Z</time>
      </trkpt>
      <trkpt lat="44.77218" lon="6.32874">
        <ele>1924.6</ele>
        <time>2024-08-12T11:06:27Z</time>
      </trkpt>
      <trkpt lat="44.7722" lon="6.32872">
        <ele>1924.6</ele>
        <time>2024-08-12T11:06:28Z</time>
      </trkpt>
      <trkpt lat="44.7722" lon="6.32872">
        <ele>1924.8</ele>
        <time>2024-08-12T11:06:29Z</time>
      </trkpt>
      <trkpt lat="44.7722" lon="6.32872">
        <ele>1924.8</ele>
        <time>2024-08-12T11:06:30Z</time>
      </trkpt>
      <trkpt lat="44.77222" lon="6.32869">
        <ele>1925</ele>
        <time>2024-08-12T11:06:31Z</time>
      </trkpt>
      <trkpt lat="44.77222" lon="6.32869">
        <ele>1925.2</ele>
        <time>2024-08-12T11:06:32Z</time>
      </trkpt>
      <trkpt lat="44.77223" lon="6.32868">
        <ele>1925.4</ele>
        <time>2024-08-12T11:06:33Z</time>
      </trkpt>
      <trkpt lat="44.77223" lon="6.32868">
        <ele>1925.4</ele>
        <time>2024-08-12T11:06:34Z</time>
      </trkpt>
      <trkpt lat="44.77223" lon="6.32868">
        <ele>1925.4</ele>
        <time>2024-08-12T11:06:35Z</time>
      </trkpt>
      <trkpt lat="44.77225" lon="6.32866">
        <ele>1925.6</ele>
        <time>2024-08-12T11:06:36Z</time>
      </trkpt>
      <trkpt lat="44.77225" lon="6.32866">
        <ele>1925.6</ele>
        <time>2024-08-12T11:06:37Z</time>
      </trkpt>
      <trkpt lat="44.77225" lon="6.32866">
        <ele>1925.6</ele>
        <time>2024-08-12T11:06:38Z</time>
      </trkpt>
      <trkpt lat="44.77227" lon="6.32865">
        <ele>1926</ele>
        <time>2024-08-12T11:06:39Z</time>
      </trkpt>
      <trkpt lat="44.77227" lon="6.32865">
        <ele>1926.4</ele>
        <time>2024-08-12T11:06:40Z</time>
      </trkpt>
      <trkpt lat="44.77227" lon="6.32865">
        <ele>1926.4</ele>
        <time>2024-08-12T11:06:41Z</time>
      </trkpt>
      <trkpt lat="44.77229" lon="6.32863">
        <ele>1926.4</ele>
        <time>2024-08-12T11:06:42Z</time>
      </trkpt>
      <trkpt lat="44.77229" lon="6.32863">
        <ele>1926.6</ele>
        <time>2024-08-12T11:06:43Z</time>
      </trkpt>
      <trkpt lat="44.77229" lon="6.32863">
        <ele>1926.6</ele>
        <time>2024-08-12T11:06:44Z</time>
      </trkpt>
      <trkpt lat="44.77231" lon="6.32861">
        <ele>1926.6</ele>
        <time>2024-08-12T11:06:45Z</time>
      </trkpt>
      <trkpt lat="44.77231" lon="6.32861">
        <ele>1926.8</ele>
        <time>2024-08-12T11:06:46Z</time>
      </trkpt>
      <trkpt lat="44.77231" lon="6.32861">
        <ele>1927</ele>
        <time>2024-08-12T11:06:47Z</time>
      </trkpt>
      <trkpt lat="44.77231" lon="6.32861">
        <ele>1927.2</ele>
        <time>2024-08-12T11:06:48Z</time>
      </trkpt>
      <trkpt lat="44.77234" lon="6.32859">
        <ele>1927.4</ele>
        <time>2024-08-12T11:06:49Z</time>
      </trkpt>
      <trkpt lat="44.77234" lon="6.32859">
        <ele>1927.4</ele>
        <time>2024-08-12T11:06:50Z</time>
      </trkpt>
      <trkpt lat="44.77234" lon="6.32859">
        <ele>1927.6</ele>
        <time>2024-08-12T11:06:51Z</time>
      </trkpt>
      <trkpt lat="44.77234" lon="6.32859">
        <ele>1927.4</ele>
        <time>2024-08-12T11:06:52Z</time>
      </trkpt>
      <trkpt lat="44.77236" lon="6.32857">
        <ele>1927.8</ele>
        <time>2024-08-12T11:06:53Z</time>
      </trkpt>
      <trkpt lat="44.77236" lon="6.32857">
        <ele>1927.8</ele>
        <time>2024-08-12T11:06:54Z</time>
      </trkpt>
      <trkpt lat="44.77236" lon="6.32857">
        <ele>1928</ele>
        <time>2024-08-12T11:06:55Z</time>
      </trkpt>
      <trkpt lat="44.77238" lon="6.32856">
        <ele>1928.2</ele>
        <time>2024-08-12T11:06:56Z</time>
      </trkpt>
      <trkpt lat="44.77238" lon="6.32856">
        <ele>1928.4</ele>
        <time>2024-08-12T11:06:57Z</time>
      </trkpt>
      <trkpt lat="44.77238" lon="6.32856">
        <ele>1928.8</ele>
        <time>2024-08-12T11:06:58Z</time>
      </trkpt>
      <trkpt lat="44.77241" lon="6.32855">
        <ele>1929.2</ele>
        <time>2024-08-12T11:06:59Z</time>
      </trkpt>
      <trkpt lat="44.77241" lon="6.32855">
        <ele>1929.8</ele>
        <time>2024-08-12T11:07:00Z</time>
      </trkpt>
      <trkpt lat="44.77243" lon="6.32854">
        <ele>1929.8</ele>
        <time>2024-08-12T11:07:01Z</time>
      </trkpt>
      <trkpt lat="44.77243" lon="6.32854">
        <ele>1930</ele>
        <time>2024-08-12T11:07:02Z</time>
      </trkpt>
      <trkpt lat="44.77245" lon="6.32854">
        <ele>1930</ele>
        <time>2024-08-12T11:07:03Z</time>
      </trkpt>
      <trkpt lat="44.77245" lon="6.32854">
        <ele>1930.4</ele>
        <time>2024-08-12T11:07:04Z</time>
      </trkpt>
      <trkpt lat="44.77245" lon="6.32854">
        <ele>1930.8</ele>
        <time>2024-08-12T11:07:05Z</time>
      </trkpt>
      <trkpt lat="44.77247" lon="6.32852">
        <ele>1930.8</ele>
        <time>2024-08-12T11:07:06Z</time>
      </trkpt>
      <trkpt lat="44.77247" lon="6.32852">
        <ele>1931</ele>
        <time>2024-08-12T11:07:07Z</time>
      </trkpt>
      <trkpt lat="44.77247" lon="6.32852">
        <ele>1931.4</ele>
        <time>2024-08-12T11:07:08Z</time>
      </trkpt>
      <trkpt lat="44.77249" lon="6.32851">
        <ele>1931.6</ele>
        <time>2024-08-12T11:07:09Z</time>
      </trkpt>
      <trkpt lat="44.77249" lon="6.32851">
        <ele>1931.6</ele>
        <time>2024-08-12T11:07:10Z</time>
      </trkpt>
      <trkpt lat="44.77249" lon="6.32851">
        <ele>1931.8</ele>
        <time>2024-08-12T11:07:11Z</time>
      </trkpt>
      <trkpt lat="44.77251" lon="6.32848">
        <ele>1932</ele>
        <time>2024-08-12T11:07:12Z</time>
      </trkpt>
      <trkpt lat="44.77251" lon="6.32848">
        <ele>1932.2</ele>
        <time>2024-08-12T11:07:13Z</time>
      </trkpt>
      <trkpt lat="44.77251" lon="6.32848">
        <ele>1932.4</ele>
        <time>2024-08-12T11:07:14Z</time>
      </trkpt>
      <trkpt lat="44.77253" lon="6.32846">
        <ele>1932.6</ele>
        <time>2024-08-12T11:07:15Z</time>
      </trkpt>
      <trkpt lat="44.77253" lon="6.32846">
        <ele>1933</ele>
        <time>2024-08-12T11:07:16Z</time>
      </trkpt>
      <trkpt lat="44.77253" lon="6.32846">
        <ele>1933.2</ele>
        <time>2024-08-12T11:07:17Z</time>
      </trkpt>
      <trkpt lat="44.77253" lon="6.32846">
        <ele>1933.2</ele>
        <time>2024-08-12T11:07:18Z</time>
      </trkpt>
      <trkpt lat="44.77256" lon="6.32846">
        <ele>1933.2</ele>
        <time>2024-08-12T11:07:19Z</time>
      </trkpt>
      <trkpt lat="44.77256" lon="6.32846">
        <ele>1933.6</ele>
        <time>2024-08-12T11:07:20Z</time>
      </trkpt>
      <trkpt lat="44.77258" lon="6.32846">
        <ele>1933.6</ele>
        <time>2024-08-12T11:07:21Z</time>
      </trkpt>
      <trkpt lat="44.77258" lon="6.32846">
        <ele>1934</ele>
        <time>2024-08-12T11:07:22Z</time>
      </trkpt>
      <trkpt lat="44.77258" lon="6.32846">
        <ele>1934.2</ele>
        <time>2024-08-12T11:07:23Z</time>
      </trkpt>
      <trkpt lat="44.7726" lon="6.32846">
        <ele>1934.2</ele>
        <time>2024-08-12T11:07:24Z</time>
      </trkpt>
      <trkpt lat="44.7726" lon="6.32846">
        <ele>1934.2</ele>
        <time>2024-08-12T11:07:25Z</time>
      </trkpt>
      <trkpt lat="44.7726" lon="6.32846">
        <ele>1934.2</ele>
        <time>2024-08-12T11:07:26Z</time>
      </trkpt>
      <trkpt lat="44.77262" lon="6.32845">
        <ele>1934.6</ele>
        <time>2024-08-12T11:07:27Z</time>
      </trkpt>
      <trkpt lat="44.77262" lon="6.32845">
        <ele>1934.8</ele>
        <time>2024-08-12T11:07:28Z</time>
      </trkpt>
      <trkpt lat="44.77262" lon="6.32845">
        <ele>1935</ele>
        <time>2024-08-12T11:07:29Z</time>
      </trkpt>
      <trkpt lat="44.77262" lon="6.32845">
        <ele>1935.2</ele>
        <time>2024-08-12T11:07:30Z</time>
      </trkpt>
      <trkpt lat="44.77264" lon="6.32845">
        <ele>1935.4</ele>
        <time>2024-08-12T11:07:31Z</time>
      </trkpt>
      <trkpt lat="44.77264" lon="6.32845">
        <ele>1935.2</ele>
        <time>2024-08-12T11:07:32Z</time>
      </trkpt>
      <trkpt lat="44.77264" lon="6.32845">
        <ele>1935.4</ele>
        <time>2024-08-12T11:07:33Z</time>
      </trkpt>
      <trkpt lat="44.77264" lon="6.32845">
        <ele>1935.4</ele>
        <time>2024-08-12T11:07:34Z</time>
      </trkpt>
      <trkpt lat="44.77267" lon="6.32844">
        <ele>1935.6</ele>
        <time>2024-08-12T11:07:35Z</time>
      </trkpt>
      <trkpt lat="44.77267" lon="6.32844">
        <ele>1935.6</ele>
        <time>2024-08-12T11:07:36Z</time>
      </trkpt>
      <trkpt lat="44.77267" lon="6.32844">
        <ele>1935.6</ele>
        <time>2024-08-12T11:07:37Z</time>
      </trkpt>
      <trkpt lat="44.77268" lon="6.32843">
        <ele>1936</ele>
        <time>2024-08-12T11:07:38Z</time>
      </trkpt>
      <trkpt lat="44.77268" lon="6.32843">
        <ele>1936.4</ele>
        <time>2024-08-12T11:07:39Z</time>
      </trkpt>
      <trkpt lat="44.77268" lon="6.32843">
        <ele>1936.4</ele>
        <time>2024-08-12T11:07:40Z</time>
      </trkpt>
      <trkpt lat="44.7727" lon="6.32842">
        <ele>1936.4</ele>
        <time>2024-08-12T11:07:41Z</time>
      </trkpt>
      <trkpt lat="44.7727" lon="6.32842">
        <ele>1936.4</ele>
        <time>2024-08-12T11:07:42Z</time>
      </trkpt>
      <trkpt lat="44.77272" lon="6.3284">
        <ele>1936.6</ele>
        <time>2024-08-12T11:07:43Z</time>
      </trkpt>
      <trkpt lat="44.77272" lon="6.3284">
        <ele>1936.6</ele>
        <time>2024-08-12T11:07:44Z</time>
      </trkpt>
      <trkpt lat="44.77272" lon="6.3284">
        <ele>1936.8</ele>
        <time>2024-08-12T11:07:45Z</time>
      </trkpt>
      <trkpt lat="44.77274" lon="6.32839">
        <ele>1937</ele>
        <time>2024-08-12T11:07:46Z</time>
      </trkpt>
      <trkpt lat="44.77274" lon="6.32839">
        <ele>1937.2</ele>
        <time>2024-08-12T11:07:47Z</time>
      </trkpt>
      <trkpt lat="44.77274" lon="6.32839">
        <ele>1937.2</ele>
        <time>2024-08-12T11:07:48Z</time>
      </trkpt>
      <trkpt lat="44.77276" lon="6.32839">
        <ele>1937.4</ele>
        <time>2024-08-12T11:07:49Z</time>
      </trkpt>
      <trkpt lat="44.77276" lon="6.32839">
        <ele>1937.6</ele>
        <time>2024-08-12T11:07:50Z</time>
      </trkpt>
      <trkpt lat="44.77278" lon="6.32838">
        <ele>1937.6</ele>
        <time>2024-08-12T11:07:51Z</time>
      </trkpt>
      <trkpt lat="44.77278" lon="6.32838">
        <ele>1937.6</ele>
        <time>2024-08-12T11:07:52Z</time>
      </trkpt>
      <trkpt lat="44.77279" lon="6.32836">
        <ele>1937.6</ele>
        <time>2024-08-12T11:07:53Z</time>
      </trkpt>
      <trkpt lat="44.77279" lon="6.32836">
        <ele>1937.8</ele>
        <time>2024-08-12T11:07:54Z</time>
      </trkpt>
      <trkpt lat="44.77279" lon="6.32836">
        <ele>1938</ele>
        <time>2024-08-12T11:07:55Z</time>
      </trkpt>
      <trkpt lat="44.7728" lon="6.32834">
        <ele>1938</ele>
        <time>2024-08-12T11:07:56Z</time>
      </trkpt>
      <trkpt lat="44.7728" lon="6.32834">
        <ele>1938.2</ele>
        <time>2024-08-12T11:07:57Z</time>
      </trkpt>
      <trkpt lat="44.7728" lon="6.32834">
        <ele>1938.6</ele>
        <time>2024-08-12T11:07:58Z</time>
      </trkpt>
      <trkpt lat="44.77282" lon="6.32832">
        <ele>1939</ele>
        <time>2024-08-12T11:07:59Z</time>
      </trkpt>
      <trkpt lat="44.77282" lon="6.32832">
        <ele>1939.2</ele>
        <time>2024-08-12T11:08:00Z</time>
      </trkpt>
      <trkpt lat="44.77282" lon="6.32832">
        <ele>1939.4</ele>
        <time>2024-08-12T11:08:01Z</time>
      </trkpt>
      <trkpt lat="44.77284" lon="6.32831">
        <ele>1939.4</ele>
        <time>2024-08-12T11:08:02Z</time>
      </trkpt>
      <trkpt lat="44.77284" lon="6.32831">
        <ele>1939.4</ele>
        <time>2024-08-12T11:08:03Z</time>
      </trkpt>
      <trkpt lat="44.77284" lon="6.32831">
        <ele>1939.8</ele>
        <time>2024-08-12T11:08:04Z</time>
      </trkpt>
      <trkpt lat="44.77286" lon="6.3283">
        <ele>1940</ele>
        <time>2024-08-12T11:08:05Z</time>
      </trkpt>
      <trkpt lat="44.77286" lon="6.3283">
        <ele>1940.2</ele>
        <time>2024-08-12T11:08:06Z</time>
      </trkpt>
      <trkpt lat="44.77286" lon="6.3283">
        <ele>1940.2</ele>
        <time>2024-08-12T11:08:07Z</time>
      </trkpt>
      <trkpt lat="44.77289" lon="6.32828">
        <ele>1940.2</ele>
        <time>2024-08-12T11:08:08Z</time>
      </trkpt>
      <trkpt lat="44.77289" lon="6.32828">
        <ele>1940.2</ele>
        <time>2024-08-12T11:08:09Z</time>
      </trkpt>
      <trkpt lat="44.77289" lon="6.32828">
        <ele>1940.2</ele>
        <time>2024-08-12T11:08:10Z</time>
      </trkpt>
      <trkpt lat="44.77291" lon="6.32827">
        <ele>1940.4</ele>
        <time>2024-08-12T11:08:11Z</time>
      </trkpt>
      <trkpt lat="44.77291" lon="6.32827">
        <ele>1940.6</ele>
        <time>2024-08-12T11:08:12Z</time>
      </trkpt>
      <trkpt lat="44.77291" lon="6.32827">
        <ele>1940.6</ele>
        <time>2024-08-12T11:08:13Z</time>
      </trkpt>
      <trkpt lat="44.77291" lon="6.32827">
        <ele>1941</ele>
        <time>2024-08-12T11:08:14Z</time>
      </trkpt>
      <trkpt lat="44.77291" lon="6.32827">
        <ele>1941</ele>
        <time>2024-08-12T11:08:15Z</time>
      </trkpt>
      <trkpt lat="44.77293" lon="6.32826">
        <ele>1941.2</ele>
        <time>2024-08-12T11:08:16Z</time>
      </trkpt>
      <trkpt lat="44.77293" lon="6.32826">
        <ele>1941.2</ele>
        <time>2024-08-12T11:08:17Z</time>
      </trkpt>
      <trkpt lat="44.77293" lon="6.32826">
        <ele>1941.4</ele>
        <time>2024-08-12T11:08:18Z</time>
      </trkpt>
      <trkpt lat="44.77293" lon="6.32826">
        <ele>1941.4</ele>
        <time>2024-08-12T11:08:19Z</time>
      </trkpt>
      <trkpt lat="44.77293" lon="6.32826">
        <ele>1941.4</ele>
        <time>2024-08-12T11:08:20Z</time>
      </trkpt>
      <trkpt lat="44.77295" lon="6.32826">
        <ele>1941.6</ele>
        <time>2024-08-12T11:08:21Z</time>
      </trkpt>
      <trkpt lat="44.77295" lon="6.32826">
        <ele>1941.8</ele>
        <time>2024-08-12T11:08:22Z</time>
      </trkpt>
      <trkpt lat="44.77297" lon="6.32826">
        <ele>1942</ele>
        <time>2024-08-12T11:08:23Z</time>
      </trkpt>
      <trkpt lat="44.77297" lon="6.32826">
        <ele>1942.2</ele>
        <time>2024-08-12T11:08:24Z</time>
      </trkpt>
      <trkpt lat="44.77297" lon="6.32826">
        <ele>1942.6</ele>
        <time>2024-08-12T11:08:25Z</time>
      </trkpt>
      <trkpt lat="44.773" lon="6.32825">
        <ele>1942.6</ele>
        <time>2024-08-12T11:08:26Z</time>
      </trkpt>
      <trkpt lat="44.773" lon="6.32825">
        <ele>1942.6</ele>
        <time>2024-08-12T11:08:27Z</time>
      </trkpt>
      <trkpt lat="44.773" lon="6.32825">
        <ele>1942.8</ele>
        <time>2024-08-12T11:08:28Z</time>
      </trkpt>
      <trkpt lat="44.77301" lon="6.32824">
        <ele>1942.8</ele>
        <time>2024-08-12T11:08:29Z</time>
      </trkpt>
      <trkpt lat="44.77301" lon="6.32824">
        <ele>1942.8</ele>
        <time>2024-08-12T11:08:30Z</time>
      </trkpt>
      <trkpt lat="44.77303" lon="6.32823">
        <ele>1943</ele>
        <time>2024-08-12T11:08:31Z</time>
      </trkpt>
      <trkpt lat="44.77303" lon="6.32823">
        <ele>1943.2</ele>
        <time>2024-08-12T11:08:32Z</time>
      </trkpt>
      <trkpt lat="44.77303" lon="6.32823">
        <ele>1943.4</ele>
        <time>2024-08-12T11:08:33Z</time>
      </trkpt>
      <trkpt lat="44.77306" lon="6.32822">
        <ele>1943.4</ele>
        <time>2024-08-12T11:08:34Z</time>
      </trkpt>
      <trkpt lat="44.77306" lon="6.32822">
        <ele>1943.6</ele>
        <time>2024-08-12T11:08:35Z</time>
      </trkpt>
      <trkpt lat="44.77306" lon="6.32822">
        <ele>1943.8</ele>
        <time>2024-08-12T11:08:36Z</time>
      </trkpt>
      <trkpt lat="44.77306" lon="6.32822">
        <ele>1943.8</ele>
        <time>2024-08-12T11:08:37Z</time>
      </trkpt>
      <trkpt lat="44.77308" lon="6.32822">
        <ele>1944</ele>
        <time>2024-08-12T11:08:38Z</time>
      </trkpt>
      <trkpt lat="44.77308" lon="6.32822">
        <ele>1944.2</ele>
        <time>2024-08-12T11:08:39Z</time>
      </trkpt>
      <trkpt lat="44.77308" lon="6.32822">
        <ele>1944.2</ele>
        <time>2024-08-12T11:08:40Z</time>
      </trkpt>
      <trkpt lat="44.7731" lon="6.3282">
        <ele>1944.4</ele>
        <time>2024-08-12T11:08:41Z</time>
      </trkpt>
      <trkpt lat="44.7731" lon="6.3282">
        <ele>1944.6</ele>
        <time>2024-08-12T11:08:42Z</time>
      </trkpt>
      <trkpt lat="44.7731" lon="6.3282">
        <ele>1944.6</ele>
        <time>2024-08-12T11:08:43Z</time>
      </trkpt>
      <trkpt lat="44.77312" lon="6.32819">
        <ele>1944.8</ele>
        <time>2024-08-12T11:08:44Z</time>
      </trkpt>
      <trkpt lat="44.77312" lon="6.32819">
        <ele>1945</ele>
        <time>2024-08-12T11:08:45Z</time>
      </trkpt>
      <trkpt lat="44.77312" lon="6.32819">
        <ele>1945</ele>
        <time>2024-08-12T11:08:46Z</time>
      </trkpt>
      <trkpt lat="44.77314" lon="6.32817">
        <ele>1945.4</ele>
        <time>2024-08-12T11:08:47Z</time>
      </trkpt>
      <trkpt lat="44.77314" lon="6.32817">
        <ele>1945.6</ele>
        <time>2024-08-12T11:08:48Z</time>
      </trkpt>
      <trkpt lat="44.77314" lon="6.32817">
        <ele>1945.6</ele>
        <time>2024-08-12T11:08:49Z</time>
      </trkpt>
      <trkpt lat="44.77315" lon="6.32816">
        <ele>1945.8</ele>
        <time>2024-08-12T11:08:50Z</time>
      </trkpt>
      <trkpt lat="44.77315" lon="6.32816">
        <ele>1945.8</ele>
        <time>2024-08-12T11:08:51Z</time>
      </trkpt>
      <trkpt lat="44.77315" lon="6.32816">
        <ele>1946</ele>
        <time>2024-08-12T11:08:52Z</time>
      </trkpt>
      <trkpt lat="44.77316" lon="6.32814">
        <ele>1946</ele>
        <time>2024-08-12T11:08:53Z</time>
      </trkpt>
      <trkpt lat="44.77316" lon="6.32814">
        <ele>1946</ele>
        <time>2024-08-12T11:08:54Z</time>
      </trkpt>
      <trkpt lat="44.77316" lon="6.32814">
        <ele>1946.4</ele>
        <time>2024-08-12T11:08:55Z</time>
      </trkpt>
      <trkpt lat="44.77318" lon="6.32812">
        <ele>1946.6</ele>
        <time>2024-08-12T11:08:56Z</time>
      </trkpt>
      <trkpt lat="44.77318" lon="6.32812">
        <ele>1946.6</ele>
        <time>2024-08-12T11:08:57Z</time>
      </trkpt>
      <trkpt lat="44.77318" lon="6.32812">
        <ele>1947</ele>
        <time>2024-08-12T11:08:58Z</time>
      </trkpt>
      <trkpt lat="44.77321" lon="6.32811">
        <ele>1947</ele>
        <time>2024-08-12T11:08:59Z</time>
      </trkpt>
      <trkpt lat="44.77321" lon="6.32811">
        <ele>1947.2</ele>
        <time>2024-08-12T11:09:00Z</time>
      </trkpt>
      <trkpt lat="44.77323" lon="6.32812">
        <ele>1947.2</ele>
        <time>2024-08-12T11:09:01Z</time>
      </trkpt>
      <trkpt lat="44.77323" lon="6.32812">
        <ele>1947.4</ele>
        <time>2024-08-12T11:09:02Z</time>
      </trkpt>
      <trkpt lat="44.77323" lon="6.32812">
        <ele>1947.4</ele>
        <time>2024-08-12T11:09:03Z</time>
      </trkpt>
      <trkpt lat="44.77323" lon="6.32812">
        <ele>1947.4</ele>
        <time>2024-08-12T11:09:04Z</time>
      </trkpt>
      <trkpt lat="44.77325" lon="6.32811">
        <ele>1947.2</ele>
        <time>2024-08-12T11:09:05Z</time>
      </trkpt>
      <trkpt lat="44.77325" lon="6.32811">
        <ele>1947.2</ele>
        <time>2024-08-12T11:09:06Z</time>
      </trkpt>
      <trkpt lat="44.77325" lon="6.32811">
        <ele>1947.6</ele>
        <time>2024-08-12T11:09:07Z</time>
      </trkpt>
      <trkpt lat="44.77327" lon="6.32811">
        <ele>1948.2</ele>
        <time>2024-08-12T11:09:08Z</time>
      </trkpt>
      <trkpt lat="44.77327" lon="6.32811">
        <ele>1948.2</ele>
        <time>2024-08-12T11:09:09Z</time>
      </trkpt>
      <trkpt lat="44.77327" lon="6.32811">
        <ele>1948.6</ele>
        <time>2024-08-12T11:09:10Z</time>
      </trkpt>
      <trkpt lat="44.7733" lon="6.3281">
        <ele>1949</ele>
        <time>2024-08-12T11:09:11Z</time>
      </trkpt>
      <trkpt lat="44.7733" lon="6.3281">
        <ele>1949.2</ele>
        <time>2024-08-12T11:09:12Z</time>
      </trkpt>
      <trkpt lat="44.7733" lon="6.3281">
        <ele>1949.4</ele>
        <time>2024-08-12T11:09:13Z</time>
      </trkpt>
      <trkpt lat="44.77332" lon="6.32809">
        <ele>1949.6</ele>
        <time>2024-08-12T11:09:14Z</time>
      </trkpt>
      <trkpt lat="44.77332" lon="6.32809">
        <ele>1949.8</ele>
        <time>2024-08-12T11:09:15Z</time>
      </trkpt>
      <trkpt lat="44.77332" lon="6.32809">
        <ele>1950.2</ele>
        <time>2024-08-12T11:09:16Z</time>
      </trkpt>
      <trkpt lat="44.77334" lon="6.32809">
        <ele>1950.2</ele>
        <time>2024-08-12T11:09:17Z</time>
      </trkpt>
      <trkpt lat="44.77334" lon="6.32809">
        <ele>1950.6</ele>
        <time>2024-08-12T11:09:18Z</time>
      </trkpt>
      <trkpt lat="44.77334" lon="6.32809">
        <ele>1950.8</ele>
        <time>2024-08-12T11:09:19Z</time>
      </trkpt>
      <trkpt lat="44.77336" lon="6.32809">
        <ele>1951</ele>
        <time>2024-08-12T11:09:20Z</time>
      </trkpt>
      <trkpt lat="44.77336" lon="6.32809">
        <ele>1951.2</ele>
        <time>2024-08-12T11:09:21Z</time>
      </trkpt>
      <trkpt lat="44.77336" lon="6.32809">
        <ele>1951.2</ele>
        <time>2024-08-12T11:09:22Z</time>
      </trkpt>
      <trkpt lat="44.77338" lon="6.32809">
        <ele>1951.2</ele>
        <time>2024-08-12T11:09:23Z</time>
      </trkpt>
      <trkpt lat="44.77338" lon="6.32809">
        <ele>1951.4</ele>
        <time>2024-08-12T11:09:24Z</time>
      </trkpt>
      <trkpt lat="44.77338" lon="6.32809">
        <ele>1951.6</ele>
        <time>2024-08-12T11:09:25Z</time>
      </trkpt>
      <trkpt lat="44.7734" lon="6.3281">
        <ele>1951.6</ele>
        <time>2024-08-12T11:09:26Z</time>
      </trkpt>
      <trkpt lat="44.7734" lon="6.3281">
        <ele>1951.8</ele>
        <time>2024-08-12T11:09:27Z</time>
      </trkpt>
      <trkpt lat="44.7734" lon="6.3281">
        <ele>1951.8</ele>
        <time>2024-08-12T11:09:28Z</time>
      </trkpt>
      <trkpt lat="44.7734" lon="6.3281">
        <ele>1952</ele>
        <time>2024-08-12T11:09:29Z</time>
      </trkpt>
      <trkpt lat="44.77342" lon="6.32809">
        <ele>1952</ele>
        <time>2024-08-12T11:09:30Z</time>
      </trkpt>
      <trkpt lat="44.77342" lon="6.32809">
        <ele>1952.4</ele>
        <time>2024-08-12T11:09:31Z</time>
      </trkpt>
      <trkpt lat="44.77342" lon="6.32809">
        <ele>1952.8</ele>
        <time>2024-08-12T11:09:32Z</time>
      </trkpt>
      <trkpt lat="44.77342" lon="6.32809">
        <ele>1952.8</ele>
        <time>2024-08-12T11:09:33Z</time>
      </trkpt>
      <trkpt lat="44.77343" lon="6.32807">
        <ele>1952.8</ele>
        <time>2024-08-12T11:09:34Z</time>
      </trkpt>
      <trkpt lat="44.77343" lon="6.32807">
        <ele>1953.2</ele>
        <time>2024-08-12T11:09:35Z</time>
      </trkpt>
      <trkpt lat="44.77343" lon="6.32807">
        <ele>1953.4</ele>
        <time>2024-08-12T11:09:36Z</time>
      </trkpt>
      <trkpt lat="44.77345" lon="6.32805">
        <ele>1953.6</ele>
        <time>2024-08-12T11:09:37Z</time>
      </trkpt>
      <trkpt lat="44.77345" lon="6.32805">
        <ele>1954</ele>
        <time>2024-08-12T11:09:38Z</time>
      </trkpt>
      <trkpt lat="44.77345" lon="6.32805">
        <ele>1954.4</ele>
        <time>2024-08-12T11:09:39Z</time>
      </trkpt>
      <trkpt lat="44.77347" lon="6.32804">
        <ele>1954.4</ele>
        <time>2024-08-12T11:09:40Z</time>
      </trkpt>
      <trkpt lat="44.77347" lon="6.32804">
        <ele>1954.4</ele>
        <time>2024-08-12T11:09:41Z</time>
      </trkpt>
      <trkpt lat="44.77347" lon="6.32804">
        <ele>1954.8</ele>
        <time>2024-08-12T11:09:42Z</time>
      </trkpt>
      <trkpt lat="44.77347" lon="6.32804">
        <ele>1954.8</ele>
        <time>2024-08-12T11:09:43Z</time>
      </trkpt>
      <trkpt lat="44.77349" lon="6.32802">
        <ele>1954.8</ele>
        <time>2024-08-12T11:09:44Z</time>
      </trkpt>
      <trkpt lat="44.77349" lon="6.32802">
        <ele>1955</ele>
        <time>2024-08-12T11:09:45Z</time>
      </trkpt>
      <trkpt lat="44.77349" lon="6.32802">
        <ele>1955.2</ele>
        <time>2024-08-12T11:09:46Z</time>
      </trkpt>
      <trkpt lat="44.77351" lon="6.32801">
        <ele>1955.4</ele>
        <time>2024-08-12T11:09:47Z</time>
      </trkpt>
      <trkpt lat="44.77351" lon="6.32801">
        <ele>1955.4</ele>
        <time>2024-08-12T11:09:48Z</time>
      </trkpt>
      <trkpt lat="44.77351" lon="6.32801">
        <ele>1955.4</ele>
        <time>2024-08-12T11:09:49Z</time>
      </trkpt>
      <trkpt lat="44.77351" lon="6.32801">
        <ele>1955.4</ele>
        <time>2024-08-12T11:09:50Z</time>
      </trkpt>
      <trkpt lat="44.77353" lon="6.32801">
        <ele>1955.4</ele>
        <time>2024-08-12T11:09:51Z</time>
      </trkpt>
      <trkpt lat="44.77353" lon="6.32801">
        <ele>1955.6</ele>
        <time>2024-08-12T11:09:52Z</time>
      </trkpt>
      <trkpt lat="44.77353" lon="6.32801">
        <ele>1956</ele>
        <time>2024-08-12T11:09:53Z</time>
      </trkpt>
      <trkpt lat="44.77355" lon="6.32799">
        <ele>1956</ele>
        <time>2024-08-12T11:09:54Z</time>
      </trkpt>
      <trkpt lat="44.77355" lon="6.32799">
        <ele>1956.2</ele>
        <time>2024-08-12T11:09:55Z</time>
      </trkpt>
      <trkpt lat="44.77355" lon="6.32799">
        <ele>1956.4</ele>
        <time>2024-08-12T11:09:56Z</time>
      </trkpt>
      <trkpt lat="44.77356" lon="6.32797">
        <ele>1956.8</ele>
        <time>2024-08-12T11:09:57Z</time>
      </trkpt>
      <trkpt lat="44.77356" lon="6.32797">
        <ele>1957.2</ele>
        <time>2024-08-12T11:09:58Z</time>
      </trkpt>
      <trkpt lat="44.77356" lon="6.32797">
        <ele>1957.2</ele>
        <time>2024-08-12T11:09:59Z</time>
      </trkpt>
      <trkpt lat="44.77358" lon="6.32797">
        <ele>1957.4</ele>
        <time>2024-08-12T11:10:00Z</time>
      </trkpt>
      <trkpt lat="44.77358" lon="6.32797">
        <ele>1957.8</ele>
        <time>2024-08-12T11:10:01Z</time>
      </trkpt>
      <trkpt lat="44.77358" lon="6.32797">
        <ele>1958</ele>
        <time>2024-08-12T11:10:02Z</time>
      </trkpt>
      <trkpt lat="44.77359" lon="6.32795">
        <ele>1958</ele>
        <time>2024-08-12T11:10:03Z</time>
      </trkpt>
      <trkpt lat="44.77359" lon="6.32795">
        <ele>1958.2</ele>
        <time>2024-08-12T11:10:04Z</time>
      </trkpt>
      <trkpt lat="44.77361" lon="6.32794">
        <ele>1958.2</ele>
        <time>2024-08-12T11:10:05Z</time>
      </trkpt>
      <trkpt lat="44.77361" lon="6.32794">
        <ele>1958.6</ele>
        <time>2024-08-12T11:10:06Z</time>
      </trkpt>
      <trkpt lat="44.77361" lon="6.32794">
        <ele>1958.8</ele>
        <time>2024-08-12T11:10:07Z</time>
      </trkpt>
      <trkpt lat="44.77363" lon="6.32792">
        <ele>1959</ele>
        <time>2024-08-12T11:10:08Z</time>
      </trkpt>
      <trkpt lat="44.77363" lon="6.32792">
        <ele>1959.2</ele>
        <time>2024-08-12T11:10:09Z</time>
      </trkpt>
      <trkpt lat="44.77365" lon="6.32792">
        <ele>1959.4</ele>
        <time>2024-08-12T11:10:10Z</time>
      </trkpt>
      <trkpt lat="44.77365" lon="6.32792">
        <ele>1959.6</ele>
        <time>2024-08-12T11:10:11Z</time>
      </trkpt>
      <trkpt lat="44.77365" lon="6.32792">
        <ele>1960</ele>
        <time>2024-08-12T11:10:12Z</time>
      </trkpt>
      <trkpt lat="44.77365" lon="6.32792">
        <ele>1960</ele>
        <time>2024-08-12T11:10:13Z</time>
      </trkpt>
      <trkpt lat="44.77366" lon="6.32789">
        <ele>1960.2</ele>
        <time>2024-08-12T11:10:14Z</time>
      </trkpt>
      <trkpt lat="44.77366" lon="6.32789">
        <ele>1960.4</ele>
        <time>2024-08-12T11:10:15Z</time>
      </trkpt>
      <trkpt lat="44.77366" lon="6.32789">
        <ele>1960.4</ele>
        <time>2024-08-12T11:10:16Z</time>
      </trkpt>
      <trkpt lat="44.77366" lon="6.32789">
        <ele>1960.6</ele>
        <time>2024-08-12T11:10:17Z</time>
      </trkpt>
      <trkpt lat="44.77366" lon="6.32789">
        <ele>1960.8</ele>
        <time>2024-08-12T11:10:18Z</time>
      </trkpt>
      <trkpt lat="44.77368" lon="6.32789">
        <ele>1960.8</ele>
        <time>2024-08-12T11:10:19Z</time>
      </trkpt>
      <trkpt lat="44.77368" lon="6.32789">
        <ele>1961</ele>
        <time>2024-08-12T11:10:20Z</time>
      </trkpt>
      <trkpt lat="44.77368" lon="6.32789">
        <ele>1961.2</ele>
        <time>2024-08-12T11:10:21Z</time>
      </trkpt>
      <trkpt lat="44.77368" lon="6.32789">
        <ele>1961.4</ele>
        <time>2024-08-12T11:10:22Z</time>
      </trkpt>
      <trkpt lat="44.77371" lon="6.32788">
        <ele>1961.4</ele>
        <time>2024-08-12T11:10:23Z</time>
      </trkpt>
      <trkpt lat="44.77371" lon="6.32788">
        <ele>1961.4</ele>
        <time>2024-08-12T11:10:24Z</time>
      </trkpt>
      <trkpt lat="44.77371" lon="6.32788">
        <ele>1961.6</ele>
        <time>2024-08-12T11:10:25Z</time>
      </trkpt>
      <trkpt lat="44.77371" lon="6.32788">
        <ele>1961.8</ele>
        <time>2024-08-12T11:10:26Z</time>
      </trkpt>
      <trkpt lat="44.77372" lon="6.32786">
        <ele>1961.8</ele>
        <time>2024-08-12T11:10:27Z</time>
      </trkpt>
      <trkpt lat="44.77372" lon="6.32786">
        <ele>1961.8</ele>
        <time>2024-08-12T11:10:28Z</time>
      </trkpt>
      <trkpt lat="44.77372" lon="6.32786">
        <ele>1961.8</ele>
        <time>2024-08-12T11:10:29Z</time>
      </trkpt>
      <trkpt lat="44.77372" lon="6.32783">
        <ele>1962</ele>
        <time>2024-08-12T11:10:30Z</time>
      </trkpt>
      <trkpt lat="44.77372" lon="6.32783">
        <ele>1962.2</ele>
        <time>2024-08-12T11:10:31Z</time>
      </trkpt>
      <trkpt lat="44.77371" lon="6.3278">
        <ele>1962.2</ele>
        <time>2024-08-12T11:10:32Z</time>
      </trkpt>
      <trkpt lat="44.77371" lon="6.3278">
        <ele>1962.2</ele>
        <time>2024-08-12T11:10:33Z</time>
      </trkpt>
      <trkpt lat="44.7737" lon="6.32778">
        <ele>1962</ele>
        <time>2024-08-12T11:10:34Z</time>
      </trkpt>
      <trkpt lat="44.7737" lon="6.32778">
        <ele>1962</ele>
        <time>2024-08-12T11:10:35Z</time>
      </trkpt>
      <trkpt lat="44.77368" lon="6.32775">
        <ele>1962</ele>
        <time>2024-08-12T11:10:36Z</time>
      </trkpt>
      <trkpt lat="44.77368" lon="6.32775">
        <ele>1962</ele>
        <time>2024-08-12T11:10:37Z</time>
      </trkpt>
      <trkpt lat="44.77367" lon="6.32773">
        <ele>1962</ele>
        <time>2024-08-12T11:10:38Z</time>
      </trkpt>
      <trkpt lat="44.77367" lon="6.32773">
        <ele>1962</ele>
        <time>2024-08-12T11:10:39Z</time>
      </trkpt>
      <trkpt lat="44.77367" lon="6.32773">
        <ele>1962</ele>
        <time>2024-08-12T11:10:40Z</time>
      </trkpt>
      <trkpt lat="44.77367" lon="6.3277">
        <ele>1962</ele>
        <time>2024-08-12T11:10:41Z</time>
      </trkpt>
      <trkpt lat="44.77367" lon="6.3277">
        <ele>1962.4</ele>
        <time>2024-08-12T11:10:42Z</time>
      </trkpt>
      <trkpt lat="44.77367" lon="6.3277">
        <ele>1962.6</ele>
        <time>2024-08-12T11:10:43Z</time>
      </trkpt>
      <trkpt lat="44.77366" lon="6.32766">
        <ele>1962.6</ele>
        <time>2024-08-12T11:10:44Z</time>
      </trkpt>
      <trkpt lat="44.77366" lon="6.32766">
        <ele>1963</ele>
        <time>2024-08-12T11:10:45Z</time>
      </trkpt>
      <trkpt lat="44.77366" lon="6.32766">
        <ele>1963</ele>
        <time>2024-08-12T11:10:46Z</time>
      </trkpt>
      <trkpt lat="44.77366" lon="6.32764">
        <ele>1963.2</ele>
        <time>2024-08-12T11:10:47Z</time>
      </trkpt>
      <trkpt lat="44.77366" lon="6.32764">
        <ele>1963.6</ele>
        <time>2024-08-12T11:10:48Z</time>
      </trkpt>
      <trkpt lat="44.77366" lon="6.32764">
        <ele>1963.6</ele>
        <time>2024-08-12T11:10:49Z</time>
      </trkpt>
      <trkpt lat="44.77366" lon="6.3276">
        <ele>1963.6</ele>
        <time>2024-08-12T11:10:50Z</time>
      </trkpt>
      <trkpt lat="44.77366" lon="6.3276">
        <ele>1963.8</ele>
        <time>2024-08-12T11:10:51Z</time>
      </trkpt>
      <trkpt lat="44.77366" lon="6.3276">
        <ele>1964.2</ele>
        <time>2024-08-12T11:10:52Z</time>
      </trkpt>
      <trkpt lat="44.77366" lon="6.3276">
        <ele>1964</ele>
        <time>2024-08-12T11:10:53Z</time>
      </trkpt>
      <trkpt lat="44.77366" lon="6.3276">
        <ele>1964.2</ele>
        <time>2024-08-12T11:10:54Z</time>
      </trkpt>
      <trkpt lat="44.77366" lon="6.3276">
        <ele>1964.8</ele>
        <time>2024-08-12T11:10:55Z</time>
      </trkpt>
      <trkpt lat="44.77366" lon="6.32758">
        <ele>1965.2</ele>
        <time>2024-08-12T11:10:56Z</time>
      </trkpt>
      <trkpt lat="44.77366" lon="6.32758">
        <ele>1965.4</ele>
        <time>2024-08-12T11:10:57Z</time>
      </trkpt>
      <trkpt lat="44.77366" lon="6.32758">
        <ele>1966</ele>
        <time>2024-08-12T11:10:58Z</time>
      </trkpt>
      <trkpt lat="44.77366" lon="6.32758">
        <ele>1966</ele>
        <time>2024-08-12T11:10:59Z</time>
      </trkpt>
      <trkpt lat="44.77367" lon="6.32754">
        <ele>1966.6</ele>
        <time>2024-08-12T11:11:00Z</time>
      </trkpt>
      <trkpt lat="44.77367" lon="6.32754">
        <ele>1966.6</ele>
        <time>2024-08-12T11:11:01Z</time>
      </trkpt>
      <trkpt lat="44.77367" lon="6.32754">
        <ele>1967</ele>
        <time>2024-08-12T11:11:02Z</time>
      </trkpt>
      <trkpt lat="44.77369" lon="6.32754">
        <ele>1967.2</ele>
        <time>2024-08-12T11:11:03Z</time>
      </trkpt>
      <trkpt lat="44.77369" lon="6.32754">
        <ele>1967.2</ele>
        <time>2024-08-12T11:11:04Z</time>
      </trkpt>
      <trkpt lat="44.77369" lon="6.32754">
        <ele>1967.6</ele>
        <time>2024-08-12T11:11:05Z</time>
      </trkpt>
      <trkpt lat="44.77371" lon="6.32754">
        <ele>1967.6</ele>
        <time>2024-08-12T11:11:06Z</time>
      </trkpt>
      <trkpt lat="44.77371" lon="6.32754">
        <ele>1967.2</ele>
        <time>2024-08-12T11:11:07Z</time>
      </trkpt>
      <trkpt lat="44.77371" lon="6.32754">
        <ele>1967.2</ele>
        <time>2024-08-12T11:11:08Z</time>
      </trkpt>
      <trkpt lat="44.77371" lon="6.32754">
        <ele>1967.2</ele>
        <time>2024-08-12T11:11:09Z</time>
      </trkpt>
      <trkpt lat="44.77371" lon="6.32754">
        <ele>1967.2</ele>
        <time>2024-08-12T11:11:10Z</time>
      </trkpt>
      <trkpt lat="44.77373" lon="6.32755">
        <ele>1967.4</ele>
        <time>2024-08-12T11:11:11Z</time>
      </trkpt>
      <trkpt lat="44.77373" lon="6.32755">
        <ele>1967.6</ele>
        <time>2024-08-12T11:11:12Z</time>
      </trkpt>
      <trkpt lat="44.77373" lon="6.32755">
        <ele>1967.8</ele>
        <time>2024-08-12T11:11:13Z</time>
      </trkpt>
      <trkpt lat="44.77375" lon="6.32757">
        <ele>1968</ele>
        <time>2024-08-12T11:11:14Z</time>
      </trkpt>
      <trkpt lat="44.77375" lon="6.32757">
        <ele>1968</ele>
        <time>2024-08-12T11:11:15Z</time>
      </trkpt>
      <trkpt lat="44.77375" lon="6.32757">
        <ele>1968.2</ele>
        <time>2024-08-12T11:11:16Z</time>
      </trkpt>
      <trkpt lat="44.77377" lon="6.32758">
        <ele>1968.2</ele>
        <time>2024-08-12T11:11:17Z</time>
      </trkpt>
      <trkpt lat="44.77377" lon="6.32758">
        <ele>1968.4</ele>
        <time>2024-08-12T11:11:18Z</time>
      </trkpt>
      <trkpt lat="44.77379" lon="6.32758">
        <ele>1968.6</ele>
        <time>2024-08-12T11:11:19Z</time>
      </trkpt>
      <trkpt lat="44.77379" lon="6.32758">
        <ele>1968.6</ele>
        <time>2024-08-12T11:11:20Z</time>
      </trkpt>
      <trkpt lat="44.77382" lon="6.32758">
        <ele>1968.8</ele>
        <time>2024-08-12T11:11:21Z</time>
      </trkpt>
      <trkpt lat="44.77382" lon="6.32758">
        <ele>1968.8</ele>
        <time>2024-08-12T11:11:22Z</time>
      </trkpt>
      <trkpt lat="44.77384" lon="6.32759">
        <ele>1969</ele>
        <time>2024-08-12T11:11:23Z</time>
      </trkpt>
      <trkpt lat="44.77384" lon="6.32759">
        <ele>1969.2</ele>
        <time>2024-08-12T11:11:24Z</time>
      </trkpt>
      <trkpt lat="44.77384" lon="6.32759">
        <ele>1969.4</ele>
        <time>2024-08-12T11:11:25Z</time>
      </trkpt>
      <trkpt lat="44.77384" lon="6.32759">
        <ele>1969.4</ele>
        <time>2024-08-12T11:11:26Z</time>
      </trkpt>
      <trkpt lat="44.77387" lon="6.32758">
        <ele>1969.4</ele>
        <time>2024-08-12T11:11:27Z</time>
      </trkpt>
      <trkpt lat="44.77387" lon="6.32758">
        <ele>1969.4</ele>
        <time>2024-08-12T11:11:28Z</time>
      </trkpt>
      <trkpt lat="44.77387" lon="6.32758">
        <ele>1969</ele>
        <time>2024-08-12T11:11:29Z</time>
      </trkpt>
      <trkpt lat="44.77389" lon="6.32756">
        <ele>1968.8</ele>
        <time>2024-08-12T11:11:30Z</time>
      </trkpt>
      <trkpt lat="44.77389" lon="6.32756">
        <ele>1968.6</ele>
        <time>2024-08-12T11:11:31Z</time>
      </trkpt>
      <trkpt lat="44.77389" lon="6.32756">
        <ele>1968.4</ele>
        <time>2024-08-12T11:11:32Z</time>
      </trkpt>
      <trkpt lat="44.77389" lon="6.32756">
        <ele>1967.8</ele>
        <time>2024-08-12T11:11:33Z</time>
      </trkpt>
      <trkpt lat="44.77391" lon="6.32756">
        <ele>1967.6</ele>
        <time>2024-08-12T11:11:34Z</time>
      </trkpt>
      <trkpt lat="44.77391" lon="6.32756">
        <ele>1967.6</ele>
        <time>2024-08-12T11:11:35Z</time>
      </trkpt>
      <trkpt lat="44.77391" lon="6.32756">
        <ele>1967.2</ele>
        <time>2024-08-12T11:11:36Z</time>
      </trkpt>
      <trkpt lat="44.77393" lon="6.32755">
        <ele>1967</ele>
        <time>2024-08-12T11:11:37Z</time>
      </trkpt>
      <trkpt lat="44.77393" lon="6.32755">
        <ele>1967</ele>
        <time>2024-08-12T11:11:38Z</time>
      </trkpt>
      <trkpt lat="44.77393" lon="6.32755">
        <ele>1967</ele>
        <time>2024-08-12T11:11:39Z</time>
      </trkpt>
      <trkpt lat="44.77396" lon="6.32756">
        <ele>1966.8</ele>
        <time>2024-08-12T11:11:40Z</time>
      </trkpt>
      <trkpt lat="44.77396" lon="6.32756">
        <ele>1966.8</ele>
        <time>2024-08-12T11:11:41Z</time>
      </trkpt>
      <trkpt lat="44.77397" lon="6.32757">
        <ele>1966.8</ele>
        <time>2024-08-12T11:11:42Z</time>
      </trkpt>
      <trkpt lat="44.77397" lon="6.32757">
        <ele>1966.8</ele>
        <time>2024-08-12T11:11:43Z</time>
      </trkpt>
      <trkpt lat="44.77397" lon="6.32757">
        <ele>1966.8</ele>
        <time>2024-08-12T11:11:44Z</time>
      </trkpt>
      <trkpt lat="44.774" lon="6.32758">
        <ele>1966.8</ele>
        <time>2024-08-12T11:11:45Z</time>
      </trkpt>
      <trkpt lat="44.774" lon="6.32758">
        <ele>1967</ele>
        <time>2024-08-12T11:11:46Z</time>
      </trkpt>
      <trkpt lat="44.774" lon="6.32758">
        <ele>1967.2</ele>
        <time>2024-08-12T11:11:47Z</time>
      </trkpt>
      <trkpt lat="44.77402" lon="6.32759">
        <ele>1967.2</ele>
        <time>2024-08-12T11:11:48Z</time>
      </trkpt>
      <trkpt lat="44.77402" lon="6.32759">
        <ele>1967.2</ele>
        <time>2024-08-12T11:11:49Z</time>
      </trkpt>
      <trkpt lat="44.77402" lon="6.32759">
        <ele>1967.2</ele>
        <time>2024-08-12T11:11:50Z</time>
      </trkpt>
      <trkpt lat="44.77405" lon="6.32757">
        <ele>1967.4</ele>
        <time>2024-08-12T11:11:51Z</time>
      </trkpt>
      <trkpt lat="44.77405" lon="6.32757">
        <ele>1967.6</ele>
        <time>2024-08-12T11:11:52Z</time>
      </trkpt>
      <trkpt lat="44.77405" lon="6.32757">
        <ele>1968</ele>
        <time>2024-08-12T11:11:53Z</time>
      </trkpt>
      <trkpt lat="44.77406" lon="6.32755">
        <ele>1968.2</ele>
        <time>2024-08-12T11:11:54Z</time>
      </trkpt>
      <trkpt lat="44.77406" lon="6.32755">
        <ele>1968.4</ele>
        <time>2024-08-12T11:11:55Z</time>
      </trkpt>
      <trkpt lat="44.77406" lon="6.32755">
        <ele>1968.4</ele>
        <time>2024-08-12T11:11:56Z</time>
      </trkpt>
      <trkpt lat="44.77408" lon="6.32753">
        <ele>1968.4</ele>
        <time>2024-08-12T11:11:57Z</time>
      </trkpt>
      <trkpt lat="44.77408" lon="6.32753">
        <ele>1968.6</ele>
        <time>2024-08-12T11:11:58Z</time>
      </trkpt>
      <trkpt lat="44.77408" lon="6.32753">
        <ele>1968.8</ele>
        <time>2024-08-12T11:11:59Z</time>
      </trkpt>
      <trkpt lat="44.7741" lon="6.32752">
        <ele>1969</ele>
        <time>2024-08-12T11:12:00Z</time>
      </trkpt>
      <trkpt lat="44.7741" lon="6.32752">
        <ele>1969.2</ele>
        <time>2024-08-12T11:12:01Z</time>
      </trkpt>
      <trkpt lat="44.7741" lon="6.32752">
        <ele>1969.2</ele>
        <time>2024-08-12T11:12:02Z</time>
      </trkpt>
      <trkpt lat="44.77412" lon="6.32751">
        <ele>1969.2</ele>
        <time>2024-08-12T11:12:03Z</time>
      </trkpt>
      <trkpt lat="44.77412" lon="6.32751">
        <ele>1969.4</ele>
        <time>2024-08-12T11:12:04Z</time>
      </trkpt>
      <trkpt lat="44.77412" lon="6.32751">
        <ele>1969.6</ele>
        <time>2024-08-12T11:12:05Z</time>
      </trkpt>
      <trkpt lat="44.77414" lon="6.3275">
        <ele>1970</ele>
        <time>2024-08-12T11:12:06Z</time>
      </trkpt>
      <trkpt lat="44.77414" lon="6.3275">
        <ele>1970.4</ele>
        <time>2024-08-12T11:12:07Z</time>
      </trkpt>
      <trkpt lat="44.77414" lon="6.3275">
        <ele>1970.6</ele>
        <time>2024-08-12T11:12:08Z</time>
      </trkpt>
      <trkpt lat="44.77416" lon="6.32748">
        <ele>1970.6</ele>
        <time>2024-08-12T11:12:09Z</time>
      </trkpt>
      <trkpt lat="44.77416" lon="6.32748">
        <ele>1970.8</ele>
        <time>2024-08-12T11:12:10Z</time>
      </trkpt>
      <trkpt lat="44.77416" lon="6.32748">
        <ele>1970.8</ele>
        <time>2024-08-12T11:12:11Z</time>
      </trkpt>
      <trkpt lat="44.77417" lon="6.32745">
        <ele>1971</ele>
        <time>2024-08-12T11:12:12Z</time>
      </trkpt>
      <trkpt lat="44.77417" lon="6.32745">
        <ele>1971</ele>
        <time>2024-08-12T11:12:13Z</time>
      </trkpt>
      <trkpt lat="44.77417" lon="6.32745">
        <ele>1971.2</ele>
        <time>2024-08-12T11:12:14Z</time>
      </trkpt>
      <trkpt lat="44.77417" lon="6.32745">
        <ele>1971.4</ele>
        <time>2024-08-12T11:12:15Z</time>
      </trkpt>
      <trkpt lat="44.77417" lon="6.32745">
        <ele>1971.6</ele>
        <time>2024-08-12T11:12:16Z</time>
      </trkpt>
      <trkpt lat="44.77417" lon="6.32745">
        <ele>1971.6</ele>
        <time>2024-08-12T11:12:17Z</time>
      </trkpt>
      <trkpt lat="44.77417" lon="6.32745">
        <ele>1971.8</ele>
        <time>2024-08-12T11:12:18Z</time>
      </trkpt>
      <trkpt lat="44.77417" lon="6.32745">
        <ele>1971.8</ele>
        <time>2024-08-12T11:12:19Z</time>
      </trkpt>
      <trkpt lat="44.77417" lon="6.32745">
        <ele>1972</ele>
        <time>2024-08-12T11:12:20Z</time>
      </trkpt>
      <trkpt lat="44.77417" lon="6.32745">
        <ele>1972.2</ele>
        <time>2024-08-12T11:12:21Z</time>
      </trkpt>
      <trkpt lat="44.77417" lon="6.32745">
        <ele>1972.4</ele>
        <time>2024-08-12T11:12:22Z</time>
      </trkpt>
      <trkpt lat="44.77417" lon="6.32745">
        <ele>1972.4</ele>
        <time>2024-08-12T11:12:23Z</time>
      </trkpt>
      <trkpt lat="44.77417" lon="6.32745">
        <ele>1972.4</ele>
        <time>2024-08-12T11:12:24Z</time>
      </trkpt>
      <trkpt lat="44.77417" lon="6.32745">
        <ele>1972.2</ele>
        <time>2024-08-12T11:12:25Z</time>
      </trkpt>
      <trkpt lat="44.77417" lon="6.32745">
        <ele>1972</ele>
        <time>2024-08-12T11:12:26Z</time>
      </trkpt>
      <trkpt lat="44.77417" lon="6.32745">
        <ele>1972</ele>
        <time>2024-08-12T11:12:27Z</time>
      </trkpt>
      <trkpt lat="44.77417" lon="6.32745">
        <ele>1971.6</ele>
        <time>2024-08-12T11:12:28Z</time>
      </trkpt>
      <trkpt lat="44.77417" lon="6.32745">
        <ele>1971.6</ele>
        <time>2024-08-12T11:12:29Z</time>
      </trkpt>
      <trkpt lat="44.7742" lon="6.32743">
        <ele>1971.8</ele>
        <time>2024-08-12T11:12:30Z</time>
      </trkpt>
      <trkpt lat="44.7742" lon="6.32743">
        <ele>1971.8</ele>
        <time>2024-08-12T11:12:31Z</time>
      </trkpt>
      <trkpt lat="44.77422" lon="6.32742">
        <ele>1971.8</ele>
        <time>2024-08-12T11:12:32Z</time>
      </trkpt>
      <trkpt lat="44.77422" lon="6.32742">
        <ele>1971.8</ele>
        <time>2024-08-12T11:12:33Z</time>
      </trkpt>
      <trkpt lat="44.77424" lon="6.32741">
        <ele>1972</ele>
        <time>2024-08-12T11:12:34Z</time>
      </trkpt>
      <trkpt lat="44.77424" lon="6.32741">
        <ele>1972</ele>
        <time>2024-08-12T11:12:35Z</time>
      </trkpt>
      <trkpt lat="44.77427" lon="6.32741">
        <ele>1972.6</ele>
        <time>2024-08-12T11:12:36Z</time>
      </trkpt>
      <trkpt lat="44.77427" lon="6.32741">
        <ele>1972.6</ele>
        <time>2024-08-12T11:12:37Z</time>
      </trkpt>
      <trkpt lat="44.77427" lon="6.32741">
        <ele>1972.8</ele>
        <time>2024-08-12T11:12:38Z</time>
      </trkpt>
      <trkpt lat="44.77429" lon="6.3274">
        <ele>1973</ele>
        <time>2024-08-12T11:12:39Z</time>
      </trkpt>
      <trkpt lat="44.77429" lon="6.3274">
        <ele>1973</ele>
        <time>2024-08-12T11:12:40Z</time>
      </trkpt>
      <trkpt lat="44.7743" lon="6.32738">
        <ele>1973.4</ele>
        <time>2024-08-12T11:12:41Z</time>
      </trkpt>
      <trkpt lat="44.7743" lon="6.32738">
        <ele>1973.4</ele>
        <time>2024-08-12T11:12:42Z</time>
      </trkpt>
      <trkpt lat="44.7743" lon="6.32738">
        <ele>1973.4</ele>
        <time>2024-08-12T11:12:43Z</time>
      </trkpt>
      <trkpt lat="44.77432" lon="6.32738">
        <ele>1973.8</ele>
        <time>2024-08-12T11:12:44Z</time>
      </trkpt>
      <trkpt lat="44.77432" lon="6.32738">
        <ele>1973.8</ele>
        <time>2024-08-12T11:12:45Z</time>
      </trkpt>
      <trkpt lat="44.77432" lon="6.32738">
        <ele>1973.8</ele>
        <time>2024-08-12T11:12:46Z</time>
      </trkpt>
      <trkpt lat="44.77434" lon="6.32739">
        <ele>1974</ele>
        <time>2024-08-12T11:12:47Z</time>
      </trkpt>
      <trkpt lat="44.77434" lon="6.32739">
        <ele>1974.2</ele>
        <time>2024-08-12T11:12:48Z</time>
      </trkpt>
      <trkpt lat="44.77434" lon="6.32739">
        <ele>1974.4</ele>
        <time>2024-08-12T11:12:49Z</time>
      </trkpt>
      <trkpt lat="44.77436" lon="6.32738">
        <ele>1974.4</ele>
        <time>2024-08-12T11:12:50Z</time>
      </trkpt>
      <trkpt lat="44.77436" lon="6.32738">
        <ele>1974.2</ele>
        <time>2024-08-12T11:12:51Z</time>
      </trkpt>
      <trkpt lat="44.77436" lon="6.32738">
        <ele>1974.2</ele>
        <time>2024-08-12T11:12:52Z</time>
      </trkpt>
      <trkpt lat="44.77436" lon="6.32735">
        <ele>1974.6</ele>
        <time>2024-08-12T11:12:53Z</time>
      </trkpt>
      <trkpt lat="44.77436" lon="6.32735">
        <ele>1974.6</ele>
        <time>2024-08-12T11:12:54Z</time>
      </trkpt>
      <trkpt lat="44.77436" lon="6.32735">
        <ele>1975</ele>
        <time>2024-08-12T11:12:55Z</time>
      </trkpt>
      <trkpt lat="44.77435" lon="6.32731">
        <ele>1975.4</ele>
        <time>2024-08-12T11:12:56Z</time>
      </trkpt>
      <trkpt lat="44.77435" lon="6.32731">
        <ele>1975.4</ele>
        <time>2024-08-12T11:12:57Z</time>
      </trkpt>
      <trkpt lat="44.77435" lon="6.32729">
        <ele>1975.4</ele>
        <time>2024-08-12T11:12:58Z</time>
      </trkpt>
      <trkpt lat="44.77435" lon="6.32729">
        <ele>1975.4</ele>
        <time>2024-08-12T11:12:59Z</time>
      </trkpt>
      <trkpt lat="44.77435" lon="6.32726">
        <ele>1975.4</ele>
        <time>2024-08-12T11:13:00Z</time>
      </trkpt>
      <trkpt lat="44.77435" lon="6.32726">
        <ele>1975.6</ele>
        <time>2024-08-12T11:13:01Z</time>
      </trkpt>
      <trkpt lat="44.77435" lon="6.32723">
        <ele>1976.2</ele>
        <time>2024-08-12T11:13:02Z</time>
      </trkpt>
      <trkpt lat="44.77435" lon="6.32723">
        <ele>1976.2</ele>
        <time>2024-08-12T11:13:03Z</time>
      </trkpt>
      <trkpt lat="44.77437" lon="6.32721">
        <ele>1976.4</ele>
        <time>2024-08-12T11:13:04Z</time>
      </trkpt>
      <trkpt lat="44.77437" lon="6.32721">
        <ele>1976.4</ele>
        <time>2024-08-12T11:13:05Z</time>
      </trkpt>
      <trkpt lat="44.77438" lon="6.3272">
        <ele>1976.6</ele>
        <time>2024-08-12T11:13:06Z</time>
      </trkpt>
      <trkpt lat="44.77438" lon="6.3272">
        <ele>1976.8</ele>
        <time>2024-08-12T11:13:07Z</time>
      </trkpt>
      <trkpt lat="44.77438" lon="6.3272">
        <ele>1977</ele>
        <time>2024-08-12T11:13:08Z</time>
      </trkpt>
      <trkpt lat="44.7744" lon="6.32721">
        <ele>1977.2</ele>
        <time>2024-08-12T11:13:09Z</time>
      </trkpt>
      <trkpt lat="44.7744" lon="6.32721">
        <ele>1977.6</ele>
        <time>2024-08-12T11:13:10Z</time>
      </trkpt>
      <trkpt lat="44.7744" lon="6.32721">
        <ele>1977.6</ele>
        <time>2024-08-12T11:13:11Z</time>
      </trkpt>
      <trkpt lat="44.77442" lon="6.32722">
        <ele>1977.8</ele>
        <time>2024-08-12T11:13:12Z</time>
      </trkpt>
      <trkpt lat="44.77442" lon="6.32722">
        <ele>1977.8</ele>
        <time>2024-08-12T11:13:13Z</time>
      </trkpt>
      <trkpt lat="44.77442" lon="6.32722">
        <ele>1977.8</ele>
        <time>2024-08-12T11:13:14Z</time>
      </trkpt>
      <trkpt lat="44.77445" lon="6.32723">
        <ele>1977.8</ele>
        <time>2024-08-12T11:13:15Z</time>
      </trkpt>
      <trkpt lat="44.77445" lon="6.32723">
        <ele>1978.2</ele>
        <time>2024-08-12T11:13:16Z</time>
      </trkpt>
      <trkpt lat="44.77446" lon="6.32725">
        <ele>1978.6</ele>
        <time>2024-08-12T11:13:17Z</time>
      </trkpt>
      <trkpt lat="44.77446" lon="6.32725">
        <ele>1978.8</ele>
        <time>2024-08-12T11:13:18Z</time>
      </trkpt>
      <trkpt lat="44.77446" lon="6.32725">
        <ele>1978.8</ele>
        <time>2024-08-12T11:13:19Z</time>
      </trkpt>
      <trkpt lat="44.77448" lon="6.32727">
        <ele>1978.8</ele>
        <time>2024-08-12T11:13:20Z</time>
      </trkpt>
      <trkpt lat="44.77448" lon="6.32727">
        <ele>1979</ele>
        <time>2024-08-12T11:13:21Z</time>
      </trkpt>
      <trkpt lat="44.7745" lon="6.32729">
        <ele>1979</ele>
        <time>2024-08-12T11:13:22Z</time>
      </trkpt>
      <trkpt lat="44.7745" lon="6.32729">
        <ele>1979</ele>
        <time>2024-08-12T11:13:23Z</time>
      </trkpt>
      <trkpt lat="44.77452" lon="6.3273">
        <ele>1979</ele>
        <time>2024-08-12T11:13:24Z</time>
      </trkpt>
      <trkpt lat="44.77452" lon="6.3273">
        <ele>1979.2</ele>
        <time>2024-08-12T11:13:25Z</time>
      </trkpt>
      <trkpt lat="44.77452" lon="6.3273">
        <ele>1979.2</ele>
        <time>2024-08-12T11:13:26Z</time>
      </trkpt>
      <trkpt lat="44.77454" lon="6.32731">
        <ele>1979.2</ele>
        <time>2024-08-12T11:13:27Z</time>
      </trkpt>
      <trkpt lat="44.77454" lon="6.32731">
        <ele>1979.4</ele>
        <time>2024-08-12T11:13:28Z</time>
      </trkpt>
      <trkpt lat="44.77454" lon="6.32731">
        <ele>1979.6</ele>
        <time>2024-08-12T11:13:29Z</time>
      </trkpt>
      <trkpt lat="44.77456" lon="6.32729">
        <ele>1980</ele>
        <time>2024-08-12T11:13:30Z</time>
      </trkpt>
      <trkpt lat="44.77456" lon="6.32729">
        <ele>1980.2</ele>
        <time>2024-08-12T11:13:31Z</time>
      </trkpt>
      <trkpt lat="44.77456" lon="6.32729">
        <ele>1980.2</ele>
        <time>2024-08-12T11:13:32Z</time>
      </trkpt>
      <trkpt lat="44.77456" lon="6.32725">
        <ele>1980.6</ele>
        <time>2024-08-12T11:13:33Z</time>
      </trkpt>
      <trkpt lat="44.77456" lon="6.32725">
        <ele>1980.6</ele>
        <time>2024-08-12T11:13:34Z</time>
      </trkpt>
      <trkpt lat="44.77456" lon="6.32725">
        <ele>1980.6</ele>
        <time>2024-08-12T11:13:35Z</time>
      </trkpt>
      <trkpt lat="44.77456" lon="6.32725">
        <ele>1980.8</ele>
        <time>2024-08-12T11:13:36Z</time>
      </trkpt>
      <trkpt lat="44.77458" lon="6.32725">
        <ele>1980.8</ele>
        <time>2024-08-12T11:13:37Z</time>
      </trkpt>
      <trkpt lat="44.77458" lon="6.32725">
        <ele>1981</ele>
        <time>2024-08-12T11:13:38Z</time>
      </trkpt>
      <trkpt lat="44.77458" lon="6.32725">
        <ele>1981</ele>
        <time>2024-08-12T11:13:39Z</time>
      </trkpt>
      <trkpt lat="44.77461" lon="6.32726">
        <ele>1981</ele>
        <time>2024-08-12T11:13:40Z</time>
      </trkpt>
      <trkpt lat="44.77461" lon="6.32726">
        <ele>1981.4</ele>
        <time>2024-08-12T11:13:41Z</time>
      </trkpt>
      <trkpt lat="44.77463" lon="6.32727">
        <ele>1981.4</ele>
        <time>2024-08-12T11:13:42Z</time>
      </trkpt>
      <trkpt lat="44.77463" lon="6.32727">
        <ele>1981.6</ele>
        <time>2024-08-12T11:13:43Z</time>
      </trkpt>
      <trkpt lat="44.77465" lon="6.32728">
        <ele>1981.6</ele>
        <time>2024-08-12T11:13:44Z</time>
      </trkpt>
      <trkpt lat="44.77465" lon="6.32728">
        <ele>1981.8</ele>
        <time>2024-08-12T11:13:45Z</time>
      </trkpt>
      <trkpt lat="44.77467" lon="6.32729">
        <ele>1981.8</ele>
        <time>2024-08-12T11:13:46Z</time>
      </trkpt>
      <trkpt lat="44.77467" lon="6.32729">
        <ele>1982</ele>
        <time>2024-08-12T11:13:47Z</time>
      </trkpt>
      <trkpt lat="44.77469" lon="6.3273">
        <ele>1982.2</ele>
        <time>2024-08-12T11:13:48Z</time>
      </trkpt>
      <trkpt lat="44.77469" lon="6.3273">
        <ele>1982.2</ele>
        <time>2024-08-12T11:13:49Z</time>
      </trkpt>
      <trkpt lat="44.7747" lon="6.3273">
        <ele>1982.4</ele>
        <time>2024-08-12T11:13:50Z</time>
      </trkpt>
      <trkpt lat="44.7747" lon="6.3273">
        <ele>1982.8</ele>
        <time>2024-08-12T11:13:51Z</time>
      </trkpt>
      <trkpt lat="44.77472" lon="6.32731">
        <ele>1983.4</ele>
        <time>2024-08-12T11:13:52Z</time>
      </trkpt>
      <trkpt lat="44.77472" lon="6.32731">
        <ele>1983.6</ele>
        <time>2024-08-12T11:13:53Z</time>
      </trkpt>
      <trkpt lat="44.77474" lon="6.32733">
        <ele>1983.6</ele>
        <time>2024-08-12T11:13:54Z</time>
      </trkpt>
      <trkpt lat="44.77474" lon="6.32733">
        <ele>1983.6</ele>
        <time>2024-08-12T11:13:55Z</time>
      </trkpt>
      <trkpt lat="44.77474" lon="6.32733">
        <ele>1983.6</ele>
        <time>2024-08-12T11:13:56Z</time>
      </trkpt>
      <trkpt lat="44.77476" lon="6.32735">
        <ele>1983.8</ele>
        <time>2024-08-12T11:13:57Z</time>
      </trkpt>
      <trkpt lat="44.77476" lon="6.32735">
        <ele>1983.8</ele>
        <time>2024-08-12T11:13:58Z</time>
      </trkpt>
      <trkpt lat="44.77478" lon="6.32737">
        <ele>1983.6</ele>
        <time>2024-08-12T11:13:59Z</time>
      </trkpt>
      <trkpt lat="44.77478" lon="6.32737">
        <ele>1983.6</ele>
        <time>2024-08-12T11:14:00Z</time>
      </trkpt>
      <trkpt lat="44.77478" lon="6.32737">
        <ele>1983.6</ele>
        <time>2024-08-12T11:14:01Z</time>
      </trkpt>
      <trkpt lat="44.77479" lon="6.32741">
        <ele>1984.6</ele>
        <time>2024-08-12T11:14:02Z</time>
      </trkpt>
      <trkpt lat="44.77479" lon="6.32741">
        <ele>1984.6</ele>
        <time>2024-08-12T11:14:03Z</time>
      </trkpt>
      <trkpt lat="44.77479" lon="6.32741">
        <ele>1984.6</ele>
        <time>2024-08-12T11:14:04Z</time>
      </trkpt>
      <trkpt lat="44.7748" lon="6.32742">
        <ele>1985</ele>
        <time>2024-08-12T11:14:05Z</time>
      </trkpt>
      <trkpt lat="44.7748" lon="6.32742">
        <ele>1985.4</ele>
        <time>2024-08-12T11:14:06Z</time>
      </trkpt>
      <trkpt lat="44.7748" lon="6.32742">
        <ele>1985.4</ele>
        <time>2024-08-12T11:14:07Z</time>
      </trkpt>
      <trkpt lat="44.7748" lon="6.32742">
        <ele>1985.8</ele>
        <time>2024-08-12T11:14:08Z</time>
      </trkpt>
      <trkpt lat="44.77482" lon="6.32743">
        <ele>1985.8</ele>
        <time>2024-08-12T11:14:09Z</time>
      </trkpt>
      <trkpt lat="44.77482" lon="6.32743">
        <ele>1985.8</ele>
        <time>2024-08-12T11:14:10Z</time>
      </trkpt>
      <trkpt lat="44.77482" lon="6.32743">
        <ele>1985.8</ele>
        <time>2024-08-12T11:14:11Z</time>
      </trkpt>
      <trkpt lat="44.77484" lon="6.32745">
        <ele>1986.2</ele>
        <time>2024-08-12T11:14:12Z</time>
      </trkpt>
      <trkpt lat="44.77484" lon="6.32745">
        <ele>1986.2</ele>
        <time>2024-08-12T11:14:13Z</time>
      </trkpt>
      <trkpt lat="44.77484" lon="6.32745">
        <ele>1986.2</ele>
        <time>2024-08-12T11:14:14Z</time>
      </trkpt>
      <trkpt lat="44.77485" lon="6.32748">
        <ele>1986.8</ele>
        <time>2024-08-12T11:14:15Z</time>
      </trkpt>
      <trkpt lat="44.77485" lon="6.32748">
        <ele>1986.8</ele>
        <time>2024-08-12T11:14:16Z</time>
      </trkpt>
      <trkpt lat="44.77485" lon="6.32748">
        <ele>1986.8</ele>
        <time>2024-08-12T11:14:17Z</time>
      </trkpt>
      <trkpt lat="44.77487" lon="6.32749">
        <ele>1986.8</ele>
        <time>2024-08-12T11:14:18Z</time>
      </trkpt>
      <trkpt lat="44.77487" lon="6.32749">
        <ele>1987</ele>
        <time>2024-08-12T11:14:19Z</time>
      </trkpt>
      <trkpt lat="44.77489" lon="6.32749">
        <ele>1987.2</ele>
        <time>2024-08-12T11:14:20Z</time>
      </trkpt>
      <trkpt lat="44.77489" lon="6.32749">
        <ele>1987.2</ele>
        <time>2024-08-12T11:14:21Z</time>
      </trkpt>
      <trkpt lat="44.77489" lon="6.32749">
        <ele>1987.2</ele>
        <time>2024-08-12T11:14:22Z</time>
      </trkpt>
      <trkpt lat="44.77491" lon="6.32751">
        <ele>1987.2</ele>
        <time>2024-08-12T11:14:23Z</time>
      </trkpt>
      <trkpt lat="44.77491" lon="6.32751">
        <ele>1987.2</ele>
        <time>2024-08-12T11:14:24Z</time>
      </trkpt>
      <trkpt lat="44.77491" lon="6.32751">
        <ele>1987.4</ele>
        <time>2024-08-12T11:14:25Z</time>
      </trkpt>
      <trkpt lat="44.77492" lon="6.32753">
        <ele>1987.8</ele>
        <time>2024-08-12T11:14:26Z</time>
      </trkpt>
      <trkpt lat="44.77492" lon="6.32753">
        <ele>1987.8</ele>
        <time>2024-08-12T11:14:27Z</time>
      </trkpt>
      <trkpt lat="44.77492" lon="6.32753">
        <ele>1988</ele>
        <time>2024-08-12T11:14:28Z</time>
      </trkpt>
      <trkpt lat="44.77494" lon="6.32755">
        <ele>1988.2</ele>
        <time>2024-08-12T11:14:29Z</time>
      </trkpt>
      <trkpt lat="44.77494" lon="6.32755">
        <ele>1988.2</ele>
        <time>2024-08-12T11:14:30Z</time>
      </trkpt>
      <trkpt lat="44.77496" lon="6.32757">
        <ele>1988.2</ele>
        <time>2024-08-12T11:14:31Z</time>
      </trkpt>
      <trkpt lat="44.77496" lon="6.32757">
        <ele>1988.4</ele>
        <time>2024-08-12T11:14:32Z</time>
      </trkpt>
      <trkpt lat="44.77496" lon="6.32757">
        <ele>1988.6</ele>
        <time>2024-08-12T11:14:33Z</time>
      </trkpt>
      <trkpt lat="44.77497" lon="6.32759">
        <ele>1988.6</ele>
        <time>2024-08-12T11:14:34Z</time>
      </trkpt>
      <trkpt lat="44.77497" lon="6.32759">
        <ele>1988.8</ele>
        <time>2024-08-12T11:14:35Z</time>
      </trkpt>
      <trkpt lat="44.77497" lon="6.32759">
        <ele>1988.8</ele>
        <time>2024-08-12T11:14:36Z</time>
      </trkpt>
      <trkpt lat="44.77499" lon="6.32761">
        <ele>1988.8</ele>
        <time>2024-08-12T11:14:37Z</time>
      </trkpt>
      <trkpt lat="44.77499" lon="6.32761">
        <ele>1989</ele>
        <time>2024-08-12T11:14:38Z</time>
      </trkpt>
      <trkpt lat="44.77499" lon="6.32761">
        <ele>1989</ele>
        <time>2024-08-12T11:14:39Z</time>
      </trkpt>
      <trkpt lat="44.77501" lon="6.32762">
        <ele>1989.2</ele>
        <time>2024-08-12T11:14:40Z</time>
      </trkpt>
      <trkpt lat="44.77501" lon="6.32762">
        <ele>1989.2</ele>
        <time>2024-08-12T11:14:41Z</time>
      </trkpt>
      <trkpt lat="44.77501" lon="6.32762">
        <ele>1989.2</ele>
        <time>2024-08-12T11:14:42Z</time>
      </trkpt>
      <trkpt lat="44.77503" lon="6.32763">
        <ele>1989.4</ele>
        <time>2024-08-12T11:14:43Z</time>
      </trkpt>
      <trkpt lat="44.77503" lon="6.32763">
        <ele>1989.8</ele>
        <time>2024-08-12T11:14:44Z</time>
      </trkpt>
      <trkpt lat="44.77503" lon="6.32763">
        <ele>1989.8</ele>
        <time>2024-08-12T11:14:45Z</time>
      </trkpt>
      <trkpt lat="44.77506" lon="6.32765">
        <ele>1989.8</ele>
        <time>2024-08-12T11:14:46Z</time>
      </trkpt>
      <trkpt lat="44.77506" lon="6.32765">
        <ele>1990</ele>
        <time>2024-08-12T11:14:47Z</time>
      </trkpt>
      <trkpt lat="44.77506" lon="6.32765">
        <ele>1990.2</ele>
        <time>2024-08-12T11:14:48Z</time>
      </trkpt>
      <trkpt lat="44.77507" lon="6.32767">
        <ele>1990.4</ele>
        <time>2024-08-12T11:14:49Z</time>
      </trkpt>
      <trkpt lat="44.77507" lon="6.32767">
        <ele>1990.8</ele>
        <time>2024-08-12T11:14:50Z</time>
      </trkpt>
      <trkpt lat="44.77509" lon="6.32768">
        <ele>1991</ele>
        <time>2024-08-12T11:14:51Z</time>
      </trkpt>
      <trkpt lat="44.77509" lon="6.32768">
        <ele>1991.2</ele>
        <time>2024-08-12T11:14:52Z</time>
      </trkpt>
      <trkpt lat="44.7751" lon="6.32769">
        <ele>1991.4</ele>
        <time>2024-08-12T11:14:53Z</time>
      </trkpt>
      <trkpt lat="44.7751" lon="6.32769">
        <ele>1991.4</ele>
        <time>2024-08-12T11:14:54Z</time>
      </trkpt>
      <trkpt lat="44.7751" lon="6.32769">
        <ele>1991.6</ele>
        <time>2024-08-12T11:14:55Z</time>
      </trkpt>
      <trkpt lat="44.77512" lon="6.32771">
        <ele>1991.8</ele>
        <time>2024-08-12T11:14:56Z</time>
      </trkpt>
      <trkpt lat="44.77512" lon="6.32771">
        <ele>1991.8</ele>
        <time>2024-08-12T11:14:57Z</time>
      </trkpt>
      <trkpt lat="44.77514" lon="6.32772">
        <ele>1992.2</ele>
        <time>2024-08-12T11:14:58Z</time>
      </trkpt>
      <trkpt lat="44.77514" lon="6.32772">
        <ele>1992.2</ele>
        <time>2024-08-12T11:14:59Z</time>
      </trkpt>
      <trkpt lat="44.77516" lon="6.32773">
        <ele>1992.4</ele>
        <time>2024-08-12T11:15:00Z</time>
      </trkpt>
      <trkpt lat="44.77516" lon="6.32773">
        <ele>1992.4</ele>
        <time>2024-08-12T11:15:01Z</time>
      </trkpt>
      <trkpt lat="44.77516" lon="6.32773">
        <ele>1992.8</ele>
        <time>2024-08-12T11:15:02Z</time>
      </trkpt>
      <trkpt lat="44.77517" lon="6.32775">
        <ele>1992.8</ele>
        <time>2024-08-12T11:15:03Z</time>
      </trkpt>
      <trkpt lat="44.77517" lon="6.32775">
        <ele>1993</ele>
        <time>2024-08-12T11:15:04Z</time>
      </trkpt>
      <trkpt lat="44.77517" lon="6.32775">
        <ele>1993.2</ele>
        <time>2024-08-12T11:15:05Z</time>
      </trkpt>
      <trkpt lat="44.7752" lon="6.32776">
        <ele>1993.2</ele>
        <time>2024-08-12T11:15:06Z</time>
      </trkpt>
      <trkpt lat="44.7752" lon="6.32776">
        <ele>1993.4</ele>
        <time>2024-08-12T11:15:07Z</time>
      </trkpt>
      <trkpt lat="44.77522" lon="6.32777">
        <ele>1993.4</ele>
        <time>2024-08-12T11:15:08Z</time>
      </trkpt>
      <trkpt lat="44.77522" lon="6.32777">
        <ele>1993.4</ele>
        <time>2024-08-12T11:15:09Z</time>
      </trkpt>
      <trkpt lat="44.77522" lon="6.32777">
        <ele>1993.4</ele>
        <time>2024-08-12T11:15:10Z</time>
      </trkpt>
      <trkpt lat="44.77523" lon="6.32779">
        <ele>1993.8</ele>
        <time>2024-08-12T11:15:11Z</time>
      </trkpt>
      <trkpt lat="44.77523" lon="6.32779">
        <ele>1994</ele>
        <time>2024-08-12T11:15:12Z</time>
      </trkpt>
      <trkpt lat="44.77523" lon="6.32779">
        <ele>1994</ele>
        <time>2024-08-12T11:15:13Z</time>
      </trkpt>
      <trkpt lat="44.77525" lon="6.32781">
        <ele>1994</ele>
        <time>2024-08-12T11:15:14Z</time>
      </trkpt>
      <trkpt lat="44.77525" lon="6.32781">
        <ele>1994.2</ele>
        <time>2024-08-12T11:15:15Z</time>
      </trkpt>
      <trkpt lat="44.77525" lon="6.32781">
        <ele>1994.2</ele>
        <time>2024-08-12T11:15:16Z</time>
      </trkpt>
      <trkpt lat="44.77528" lon="6.32782">
        <ele>1994.2</ele>
        <time>2024-08-12T11:15:17Z</time>
      </trkpt>
      <trkpt lat="44.77528" lon="6.32782">
        <ele>1994.6</ele>
        <time>2024-08-12T11:15:18Z</time>
      </trkpt>
      <trkpt lat="44.77528" lon="6.32782">
        <ele>1994.6</ele>
        <time>2024-08-12T11:15:19Z</time>
      </trkpt>
      <trkpt lat="44.7753" lon="6.32785">
        <ele>1994.8</ele>
        <time>2024-08-12T11:15:20Z</time>
      </trkpt>
      <trkpt lat="44.7753" lon="6.32785">
        <ele>1995.2</ele>
        <time>2024-08-12T11:15:21Z</time>
      </trkpt>
      <trkpt lat="44.7753" lon="6.32785">
        <ele>1995.4</ele>
        <time>2024-08-12T11:15:22Z</time>
      </trkpt>
      <trkpt lat="44.77532" lon="6.32788">
        <ele>1995.4</ele>
        <time>2024-08-12T11:15:23Z</time>
      </trkpt>
      <trkpt lat="44.77532" lon="6.32788">
        <ele>1995.4</ele>
        <time>2024-08-12T11:15:24Z</time>
      </trkpt>
      <trkpt lat="44.77532" lon="6.32788">
        <ele>1995.4</ele>
        <time>2024-08-12T11:15:25Z</time>
      </trkpt>
      <trkpt lat="44.77533" lon="6.3279">
        <ele>1995.4</ele>
        <time>2024-08-12T11:15:26Z</time>
      </trkpt>
      <trkpt lat="44.77533" lon="6.3279">
        <ele>1995.6</ele>
        <time>2024-08-12T11:15:27Z</time>
      </trkpt>
      <trkpt lat="44.77533" lon="6.3279">
        <ele>1995.6</ele>
        <time>2024-08-12T11:15:28Z</time>
      </trkpt>
      <trkpt lat="44.77535" lon="6.32793">
        <ele>1995.8</ele>
        <time>2024-08-12T11:15:29Z</time>
      </trkpt>
      <trkpt lat="44.77535" lon="6.32793">
        <ele>1996</ele>
        <time>2024-08-12T11:15:30Z</time>
      </trkpt>
      <trkpt lat="44.77535" lon="6.32793">
        <ele>1996</ele>
        <time>2024-08-12T11:15:31Z</time>
      </trkpt>
      <trkpt lat="44.77537" lon="6.32794">
        <ele>1996.4</ele>
        <time>2024-08-12T11:15:32Z</time>
      </trkpt>
      <trkpt lat="44.77537" lon="6.32794">
        <ele>1996.6</ele>
        <time>2024-08-12T11:15:33Z</time>
      </trkpt>
      <trkpt lat="44.77539" lon="6.32795">
        <ele>1996.6</ele>
        <time>2024-08-12T11:15:34Z</time>
      </trkpt>
      <trkpt lat="44.77539" lon="6.32795">
        <ele>1996.8</ele>
        <time>2024-08-12T11:15:35Z</time>
      </trkpt>
      <trkpt lat="44.77539" lon="6.32795">
        <ele>1997</ele>
        <time>2024-08-12T11:15:36Z</time>
      </trkpt>
      <trkpt lat="44.77541" lon="6.32797">
        <ele>1997.4</ele>
        <time>2024-08-12T11:15:37Z</time>
      </trkpt>
      <trkpt lat="44.77541" lon="6.32797">
        <ele>1997.4</ele>
        <time>2024-08-12T11:15:38Z</time>
      </trkpt>
      <trkpt lat="44.77541" lon="6.32797">
        <ele>1997.6</ele>
        <time>2024-08-12T11:15:39Z</time>
      </trkpt>
      <trkpt lat="44.77543" lon="6.328">
        <ele>1998</ele>
        <time>2024-08-12T11:15:40Z</time>
      </trkpt>
      <trkpt lat="44.77543" lon="6.328">
        <ele>1998.2</ele>
        <time>2024-08-12T11:15:41Z</time>
      </trkpt>
      <trkpt lat="44.77543" lon="6.328">
        <ele>1998.4</ele>
        <time>2024-08-12T11:15:42Z</time>
      </trkpt>
      <trkpt lat="44.77545" lon="6.32802">
        <ele>1998.8</ele>
        <time>2024-08-12T11:15:43Z</time>
      </trkpt>
      <trkpt lat="44.77545" lon="6.32802">
        <ele>1999.2</ele>
        <time>2024-08-12T11:15:44Z</time>
      </trkpt>
      <trkpt lat="44.77545" lon="6.32802">
        <ele>1999.2</ele>
        <time>2024-08-12T11:15:45Z</time>
      </trkpt>
      <trkpt lat="44.77548" lon="6.32804">
        <ele>1999.2</ele>
        <time>2024-08-12T11:15:46Z</time>
      </trkpt>
      <trkpt lat="44.77548" lon="6.32804">
        <ele>1999.4</ele>
        <time>2024-08-12T11:15:47Z</time>
      </trkpt>
      <trkpt lat="44.77549" lon="6.32806">
        <ele>1999.4</ele>
        <time>2024-08-12T11:15:48Z</time>
      </trkpt>
      <trkpt lat="44.77549" lon="6.32806">
        <ele>1999.8</ele>
        <time>2024-08-12T11:15:49Z</time>
      </trkpt>
      <trkpt lat="44.77549" lon="6.32806">
        <ele>2000</ele>
        <time>2024-08-12T11:15:50Z</time>
      </trkpt>
      <trkpt lat="44.77551" lon="6.32808">
        <ele>2000</ele>
        <time>2024-08-12T11:15:51Z</time>
      </trkpt>
      <trkpt lat="44.77551" lon="6.32808">
        <ele>2000.2</ele>
        <time>2024-08-12T11:15:52Z</time>
      </trkpt>
      <trkpt lat="44.77552" lon="6.3281">
        <ele>2000.2</ele>
        <time>2024-08-12T11:15:53Z</time>
      </trkpt>
      <trkpt lat="44.77552" lon="6.3281">
        <ele>2000.4</ele>
        <time>2024-08-12T11:15:54Z</time>
      </trkpt>
      <trkpt lat="44.77552" lon="6.3281">
        <ele>2000.6</ele>
        <time>2024-08-12T11:15:55Z</time>
      </trkpt>
      <trkpt lat="44.77554" lon="6.32813">
        <ele>2000.8</ele>
        <time>2024-08-12T11:15:56Z</time>
      </trkpt>
      <trkpt lat="44.77554" lon="6.32813">
        <ele>2001</ele>
        <time>2024-08-12T11:15:57Z</time>
      </trkpt>
      <trkpt lat="44.77554" lon="6.32813">
        <ele>2001</ele>
        <time>2024-08-12T11:15:58Z</time>
      </trkpt>
      <trkpt lat="44.77554" lon="6.32813">
        <ele>2001.6</ele>
        <time>2024-08-12T11:15:59Z</time>
      </trkpt>
      <trkpt lat="44.77556" lon="6.32813">
        <ele>2001.6</ele>
        <time>2024-08-12T11:16:00Z</time>
      </trkpt>
      <trkpt lat="44.77556" lon="6.32813">
        <ele>2001.8</ele>
        <time>2024-08-12T11:16:01Z</time>
      </trkpt>
      <trkpt lat="44.77556" lon="6.32813">
        <ele>2002.4</ele>
        <time>2024-08-12T11:16:02Z</time>
      </trkpt>
      <trkpt lat="44.77557" lon="6.3281">
        <ele>2002.4</ele>
        <time>2024-08-12T11:16:03Z</time>
      </trkpt>
      <trkpt lat="44.77557" lon="6.3281">
        <ele>2002.6</ele>
        <time>2024-08-12T11:16:04Z</time>
      </trkpt>
      <trkpt lat="44.77557" lon="6.3281">
        <ele>2003.2</ele>
        <time>2024-08-12T11:16:05Z</time>
      </trkpt>
      <trkpt lat="44.77558" lon="6.32807">
        <ele>2003.2</ele>
        <time>2024-08-12T11:16:06Z</time>
      </trkpt>
      <trkpt lat="44.77558" lon="6.32807">
        <ele>2003.4</ele>
        <time>2024-08-12T11:16:07Z</time>
      </trkpt>
      <trkpt lat="44.77558" lon="6.32807">
        <ele>2003.4</ele>
        <time>2024-08-12T11:16:08Z</time>
      </trkpt>
      <trkpt lat="44.77559" lon="6.32805">
        <ele>2003.8</ele>
        <time>2024-08-12T11:16:09Z</time>
      </trkpt>
      <trkpt lat="44.77559" lon="6.32805">
        <ele>2003.8</ele>
        <time>2024-08-12T11:16:10Z</time>
      </trkpt>
      <trkpt lat="44.77559" lon="6.32805">
        <ele>2004</ele>
        <time>2024-08-12T11:16:11Z</time>
      </trkpt>
      <trkpt lat="44.7756" lon="6.32802">
        <ele>2004</ele>
        <time>2024-08-12T11:16:12Z</time>
      </trkpt>
      <trkpt lat="44.7756" lon="6.32802">
        <ele>2004.2</ele>
        <time>2024-08-12T11:16:13Z</time>
      </trkpt>
      <trkpt lat="44.7756" lon="6.32802">
        <ele>2004.4</ele>
        <time>2024-08-12T11:16:14Z</time>
      </trkpt>
      <trkpt lat="44.7756" lon="6.32798">
        <ele>2004.4</ele>
        <time>2024-08-12T11:16:15Z</time>
      </trkpt>
      <trkpt lat="44.7756" lon="6.32798">
        <ele>2004.8</ele>
        <time>2024-08-12T11:16:16Z</time>
      </trkpt>
      <trkpt lat="44.7756" lon="6.32798">
        <ele>2004.8</ele>
        <time>2024-08-12T11:16:17Z</time>
      </trkpt>
      <trkpt lat="44.77561" lon="6.32796">
        <ele>2005</ele>
        <time>2024-08-12T11:16:18Z</time>
      </trkpt>
      <trkpt lat="44.77561" lon="6.32796">
        <ele>2005</ele>
        <time>2024-08-12T11:16:19Z</time>
      </trkpt>
      <trkpt lat="44.77561" lon="6.32796">
        <ele>2005.2</ele>
        <time>2024-08-12T11:16:20Z</time>
      </trkpt>
      <trkpt lat="44.77562" lon="6.32793">
        <ele>2005.4</ele>
        <time>2024-08-12T11:16:21Z</time>
      </trkpt>
      <trkpt lat="44.77562" lon="6.32793">
        <ele>2005.6</ele>
        <time>2024-08-12T11:16:22Z</time>
      </trkpt>
      <trkpt lat="44.77562" lon="6.32793">
        <ele>2005.8</ele>
        <time>2024-08-12T11:16:23Z</time>
      </trkpt>
      <trkpt lat="44.77562" lon="6.32789">
        <ele>2006</ele>
        <time>2024-08-12T11:16:24Z</time>
      </trkpt>
      <trkpt lat="44.77562" lon="6.32789">
        <ele>2006.2</ele>
        <time>2024-08-12T11:16:25Z</time>
      </trkpt>
      <trkpt lat="44.77562" lon="6.32789">
        <ele>2006.6</ele>
        <time>2024-08-12T11:16:26Z</time>
      </trkpt>
      <trkpt lat="44.77562" lon="6.32786">
        <ele>2006.8</ele>
        <time>2024-08-12T11:16:27Z</time>
      </trkpt>
      <trkpt lat="44.77562" lon="6.32786">
        <ele>2006.8</ele>
        <time>2024-08-12T11:16:28Z</time>
      </trkpt>
      <trkpt lat="44.77562" lon="6.32784">
        <ele>2007</ele>
        <time>2024-08-12T11:16:29Z</time>
      </trkpt>
      <trkpt lat="44.77562" lon="6.32784">
        <ele>2007</ele>
        <time>2024-08-12T11:16:30Z</time>
      </trkpt>
      <trkpt lat="44.77562" lon="6.32781">
        <ele>2007.2</ele>
        <time>2024-08-12T11:16:31Z</time>
      </trkpt>
      <trkpt lat="44.77562" lon="6.32781">
        <ele>2007.2</ele>
        <time>2024-08-12T11:16:32Z</time>
      </trkpt>
      <trkpt lat="44.77564" lon="6.32778">
        <ele>2007.2</ele>
        <time>2024-08-12T11:16:33Z</time>
      </trkpt>
      <trkpt lat="44.77564" lon="6.32778">
        <ele>2007.2</ele>
        <time>2024-08-12T11:16:34Z</time>
      </trkpt>
      <trkpt lat="44.77564" lon="6.32775">
        <ele>2007.4</ele>
        <time>2024-08-12T11:16:35Z</time>
      </trkpt>
      <trkpt lat="44.77564" lon="6.32775">
        <ele>2007.4</ele>
        <time>2024-08-12T11:16:36Z</time>
      </trkpt>
      <trkpt lat="44.77564" lon="6.32773">
        <ele>2007.6</ele>
        <time>2024-08-12T11:16:37Z</time>
      </trkpt>
      <trkpt lat="44.77564" lon="6.32773">
        <ele>2007.6</ele>
        <time>2024-08-12T11:16:38Z</time>
      </trkpt>
      <trkpt lat="44.77565" lon="6.32771">
        <ele>2007.6</ele>
        <time>2024-08-12T11:16:39Z</time>
      </trkpt>
      <trkpt lat="44.77565" lon="6.32771">
        <ele>2007.6</ele>
        <time>2024-08-12T11:16:40Z</time>
      </trkpt>
      <trkpt lat="44.77565" lon="6.32771">
        <ele>2007.6</ele>
        <time>2024-08-12T11:16:41Z</time>
      </trkpt>
      <trkpt lat="44.77566" lon="6.32768">
        <ele>2008</ele>
        <time>2024-08-12T11:16:42Z</time>
      </trkpt>
      <trkpt lat="44.77566" lon="6.32768">
        <ele>2008</ele>
        <time>2024-08-12T11:16:43Z</time>
      </trkpt>
      <trkpt lat="44.77568" lon="6.32766">
        <ele>2008.2</ele>
        <time>2024-08-12T11:16:44Z</time>
      </trkpt>
      <trkpt lat="44.77568" lon="6.32766">
        <ele>2008.4</ele>
        <time>2024-08-12T11:16:45Z</time>
      </trkpt>
      <trkpt lat="44.77568" lon="6.32766">
        <ele>2008.8</ele>
        <time>2024-08-12T11:16:46Z</time>
      </trkpt>
      <trkpt lat="44.77568" lon="6.32763">
        <ele>2008.8</ele>
        <time>2024-08-12T11:16:47Z</time>
      </trkpt>
      <trkpt lat="44.77568" lon="6.32763">
        <ele>2008.8</ele>
        <time>2024-08-12T11:16:48Z</time>
      </trkpt>
      <trkpt lat="44.77569" lon="6.32761">
        <ele>2009.2</ele>
        <time>2024-08-12T11:16:49Z</time>
      </trkpt>
      <trkpt lat="44.77569" lon="6.32761">
        <ele>2009.2</ele>
        <time>2024-08-12T11:16:50Z</time>
      </trkpt>
      <trkpt lat="44.77569" lon="6.32761">
        <ele>2009.2</ele>
        <time>2024-08-12T11:16:51Z</time>
      </trkpt>
      <trkpt lat="44.7757" lon="6.32757">
        <ele>2009</ele>
        <time>2024-08-12T11:16:52Z</time>
      </trkpt>
      <trkpt lat="44.7757" lon="6.32757">
        <ele>2009</ele>
        <time>2024-08-12T11:16:53Z</time>
      </trkpt>
      <trkpt lat="44.77571" lon="6.32755">
        <ele>2009.4</ele>
        <time>2024-08-12T11:16:54Z</time>
      </trkpt>
      <trkpt lat="44.77571" lon="6.32755">
        <ele>2009.6</ele>
        <time>2024-08-12T11:16:55Z</time>
      </trkpt>
      <trkpt lat="44.77572" lon="6.32752">
        <ele>2009.6</ele>
        <time>2024-08-12T11:16:56Z</time>
      </trkpt>
      <trkpt lat="44.77572" lon="6.32752">
        <ele>2009.6</ele>
        <time>2024-08-12T11:16:57Z</time>
      </trkpt>
      <trkpt lat="44.77572" lon="6.32752">
        <ele>2009.6</ele>
        <time>2024-08-12T11:16:58Z</time>
      </trkpt>
      <trkpt lat="44.77572" lon="6.32749">
        <ele>2009.6</ele>
        <time>2024-08-12T11:16:59Z</time>
      </trkpt>
      <trkpt lat="44.77572" lon="6.32749">
        <ele>2009.8</ele>
        <time>2024-08-12T11:17:00Z</time>
      </trkpt>
      <trkpt lat="44.77572" lon="6.32749">
        <ele>2010</ele>
        <time>2024-08-12T11:17:01Z</time>
      </trkpt>
      <trkpt lat="44.77572" lon="6.32749">
        <ele>2010.2</ele>
        <time>2024-08-12T11:17:02Z</time>
      </trkpt>
      <trkpt lat="44.77573" lon="6.32746">
        <ele>2010.2</ele>
        <time>2024-08-12T11:17:03Z</time>
      </trkpt>
      <trkpt lat="44.77573" lon="6.32746">
        <ele>2010.4</ele>
        <time>2024-08-12T11:17:04Z</time>
      </trkpt>
      <trkpt lat="44.77573" lon="6.32746">
        <ele>2010.6</ele>
        <time>2024-08-12T11:17:05Z</time>
      </trkpt>
      <trkpt lat="44.77573" lon="6.32746">
        <ele>2011</ele>
        <time>2024-08-12T11:17:06Z</time>
      </trkpt>
      <trkpt lat="44.77575" lon="6.32745">
        <ele>2011.2</ele>
        <time>2024-08-12T11:17:07Z</time>
      </trkpt>
      <trkpt lat="44.77575" lon="6.32745">
        <ele>2011.6</ele>
        <time>2024-08-12T11:17:08Z</time>
      </trkpt>
      <trkpt lat="44.77575" lon="6.32745">
        <ele>2012</ele>
        <time>2024-08-12T11:17:09Z</time>
      </trkpt>
      <trkpt lat="44.77575" lon="6.32745">
        <ele>2012</ele>
        <time>2024-08-12T11:17:10Z</time>
      </trkpt>
      <trkpt lat="44.77575" lon="6.32742">
        <ele>2011.8</ele>
        <time>2024-08-12T11:17:11Z</time>
      </trkpt>
      <trkpt lat="44.77575" lon="6.32742">
        <ele>2011.8</ele>
        <time>2024-08-12T11:17:12Z</time>
      </trkpt>
      <trkpt lat="44.77575" lon="6.32742">
        <ele>2012.4</ele>
        <time>2024-08-12T11:17:13Z</time>
      </trkpt>
      <trkpt lat="44.77576" lon="6.32739">
        <ele>2013</ele>
        <time>2024-08-12T11:17:14Z</time>
      </trkpt>
      <trkpt lat="44.77576" lon="6.32739">
        <ele>2013</ele>
        <time>2024-08-12T11:17:15Z</time>
      </trkpt>
      <trkpt lat="44.77576" lon="6.32739">
        <ele>2013.4</ele>
        <time>2024-08-12T11:17:16Z</time>
      </trkpt>
      <trkpt lat="44.77577" lon="6.32736">
        <ele>2013.4</ele>
        <time>2024-08-12T11:17:17Z</time>
      </trkpt>
      <trkpt lat="44.77577" lon="6.32736">
        <ele>2013</ele>
        <time>2024-08-12T11:17:18Z</time>
      </trkpt>
      <trkpt lat="44.77577" lon="6.32733">
        <ele>2013</ele>
        <time>2024-08-12T11:17:19Z</time>
      </trkpt>
      <trkpt lat="44.77577" lon="6.32733">
        <ele>2013.2</ele>
        <time>2024-08-12T11:17:20Z</time>
      </trkpt>
      <trkpt lat="44.77577" lon="6.32731">
        <ele>2013.2</ele>
        <time>2024-08-12T11:17:21Z</time>
      </trkpt>
      <trkpt lat="44.77577" lon="6.32731">
        <ele>2013.4</ele>
        <time>2024-08-12T11:17:22Z</time>
      </trkpt>
      <trkpt lat="44.77577" lon="6.32728">
        <ele>2013.6</ele>
        <time>2024-08-12T11:17:23Z</time>
      </trkpt>
      <trkpt lat="44.77577" lon="6.32728">
        <ele>2013.6</ele>
        <time>2024-08-12T11:17:24Z</time>
      </trkpt>
      <trkpt lat="44.77577" lon="6.32728">
        <ele>2014.2</ele>
        <time>2024-08-12T11:17:25Z</time>
      </trkpt>
      <trkpt lat="44.77578" lon="6.32724">
        <ele>2014.2</ele>
        <time>2024-08-12T11:17:26Z</time>
      </trkpt>
      <trkpt lat="44.77578" lon="6.32724">
        <ele>2014.4</ele>
        <time>2024-08-12T11:17:27Z</time>
      </trkpt>
      <trkpt lat="44.77578" lon="6.32724">
        <ele>2014.6</ele>
        <time>2024-08-12T11:17:28Z</time>
      </trkpt>
      <trkpt lat="44.77579" lon="6.32721">
        <ele>2014.8</ele>
        <time>2024-08-12T11:17:29Z</time>
      </trkpt>
      <trkpt lat="44.77579" lon="6.32721">
        <ele>2014.8</ele>
        <time>2024-08-12T11:17:30Z</time>
      </trkpt>
      <trkpt lat="44.7758" lon="6.32718">
        <ele>2014.8</ele>
        <time>2024-08-12T11:17:31Z</time>
      </trkpt>
      <trkpt lat="44.7758" lon="6.32718">
        <ele>2014.8</ele>
        <time>2024-08-12T11:17:32Z</time>
      </trkpt>
      <trkpt lat="44.7758" lon="6.32715">
        <ele>2015</ele>
        <time>2024-08-12T11:17:33Z</time>
      </trkpt>
      <trkpt lat="44.7758" lon="6.32715">
        <ele>2015.2</ele>
        <time>2024-08-12T11:17:34Z</time>
      </trkpt>
      <trkpt lat="44.7758" lon="6.32715">
        <ele>2015.2</ele>
        <time>2024-08-12T11:17:35Z</time>
      </trkpt>
      <trkpt lat="44.7758" lon="6.32712">
        <ele>2015.2</ele>
        <time>2024-08-12T11:17:36Z</time>
      </trkpt>
      <trkpt lat="44.7758" lon="6.32712">
        <ele>2015.6</ele>
        <time>2024-08-12T11:17:37Z</time>
      </trkpt>
      <trkpt lat="44.7758" lon="6.32712">
        <ele>2015.6</ele>
        <time>2024-08-12T11:17:38Z</time>
      </trkpt>
      <trkpt lat="44.7758" lon="6.32712">
        <ele>2015.6</ele>
        <time>2024-08-12T11:17:39Z</time>
      </trkpt>
      <trkpt lat="44.7758" lon="6.32709">
        <ele>2016</ele>
        <time>2024-08-12T11:17:40Z</time>
      </trkpt>
      <trkpt lat="44.7758" lon="6.32709">
        <ele>2016.6</ele>
        <time>2024-08-12T11:17:41Z</time>
      </trkpt>
      <trkpt lat="44.7758" lon="6.32709">
        <ele>2017</ele>
        <time>2024-08-12T11:17:42Z</time>
      </trkpt>
      <trkpt lat="44.7758" lon="6.32706">
        <ele>2017.4</ele>
        <time>2024-08-12T11:17:43Z</time>
      </trkpt>
      <trkpt lat="44.7758" lon="6.32706">
        <ele>2017.4</ele>
        <time>2024-08-12T11:17:44Z</time>
      </trkpt>
      <trkpt lat="44.7758" lon="6.32706">
        <ele>2017.4</ele>
        <time>2024-08-12T11:17:45Z</time>
      </trkpt>
      <trkpt lat="44.7758" lon="6.32706">
        <ele>2017.6</ele>
        <time>2024-08-12T11:17:46Z</time>
      </trkpt>
      <trkpt lat="44.7758" lon="6.32706">
        <ele>2017.6</ele>
        <time>2024-08-12T11:17:47Z</time>
      </trkpt>
      <trkpt lat="44.7758" lon="6.32706">
        <ele>2017.6</ele>
        <time>2024-08-12T11:17:48Z</time>
      </trkpt>
      <trkpt lat="44.7758" lon="6.32706">
        <ele>2017.4</ele>
        <time>2024-08-12T11:17:49Z</time>
      </trkpt>
      <trkpt lat="44.7758" lon="6.32706">
        <ele>2017.4</ele>
        <time>2024-08-12T11:17:50Z</time>
      </trkpt>
      <trkpt lat="44.7758" lon="6.32706">
        <ele>2017.4</ele>
        <time>2024-08-12T11:17:51Z</time>
      </trkpt>
      <trkpt lat="44.7758" lon="6.32706">
        <ele>2017.6</ele>
        <time>2024-08-12T11:17:52Z</time>
      </trkpt>
      <trkpt lat="44.7758" lon="6.32706">
        <ele>2017.6</ele>
        <time>2024-08-12T11:17:53Z</time>
      </trkpt>
      <trkpt lat="44.7758" lon="6.32706">
        <ele>2017.8</ele>
        <time>2024-08-12T11:17:54Z</time>
      </trkpt>
      <trkpt lat="44.7758" lon="6.32706">
        <ele>2017.8</ele>
        <time>2024-08-12T11:17:55Z</time>
      </trkpt>
      <trkpt lat="44.7758" lon="6.32706">
        <ele>2017.6</ele>
        <time>2024-08-12T11:17:56Z</time>
      </trkpt>
      <trkpt lat="44.7758" lon="6.32706">
        <ele>2017.2</ele>
        <time>2024-08-12T11:17:57Z</time>
      </trkpt>
      <trkpt lat="44.7758" lon="6.32706">
        <ele>2017</ele>
        <time>2024-08-12T11:17:58Z</time>
      </trkpt>
      <trkpt lat="44.7758" lon="6.32703">
        <ele>2016.6</ele>
        <time>2024-08-12T11:17:59Z</time>
      </trkpt>
      <trkpt lat="44.7758" lon="6.32703">
        <ele>2016.4</ele>
        <time>2024-08-12T11:18:00Z</time>
      </trkpt>
      <trkpt lat="44.7758" lon="6.32703">
        <ele>2016.4</ele>
        <time>2024-08-12T11:18:01Z</time>
      </trkpt>
      <trkpt lat="44.7758" lon="6.32703">
        <ele>2016.4</ele>
        <time>2024-08-12T11:18:02Z</time>
      </trkpt>
      <trkpt lat="44.7758" lon="6.32703">
        <ele>2016.4</ele>
        <time>2024-08-12T11:18:03Z</time>
      </trkpt>
      <trkpt lat="44.7758" lon="6.32703">
        <ele>2016.4</ele>
        <time>2024-08-12T11:18:04Z</time>
      </trkpt>
      <trkpt lat="44.7758" lon="6.32703">
        <ele>2016.4</ele>
        <time>2024-08-12T11:18:05Z</time>
      </trkpt>
      <trkpt lat="44.7758" lon="6.32703">
        <ele>2016.4</ele>
        <time>2024-08-12T11:18:06Z</time>
      </trkpt>
      <trkpt lat="44.7758" lon="6.32703">
        <ele>2016.4</ele>
        <time>2024-08-12T11:18:07Z</time>
      </trkpt>
      <trkpt lat="44.7758" lon="6.32703">
        <ele>2016.4</ele>
        <time>2024-08-12T11:18:08Z</time>
      </trkpt>
      <trkpt lat="44.7758" lon="6.32703">
        <ele>2016.4</ele>
        <time>2024-08-12T11:18:09Z</time>
      </trkpt>
      <trkpt lat="44.7758" lon="6.32703">
        <ele>2016.4</ele>
        <time>2024-08-12T11:18:10Z</time>
      </trkpt>
      <trkpt lat="44.7758" lon="6.32703">
        <ele>2016.4</ele>
        <time>2024-08-12T11:18:11Z</time>
      </trkpt>
      <trkpt lat="44.7758" lon="6.32703">
        <ele>2016.4</ele>
        <time>2024-08-12T11:18:12Z</time>
      </trkpt>
      <trkpt lat="44.7758" lon="6.32703">
        <ele>2016.6</ele>
        <time>2024-08-12T11:18:13Z</time>
      </trkpt>
      <trkpt lat="44.77581" lon="6.32704">
        <ele>2016.8</ele>
        <time>2024-08-12T11:18:14Z</time>
      </trkpt>
      <trkpt lat="44.77581" lon="6.32704">
        <ele>2017.4</ele>
        <time>2024-08-12T11:18:15Z</time>
      </trkpt>
      <trkpt lat="44.77582" lon="6.32707">
        <ele>2017.6</ele>
        <time>2024-08-12T11:18:16Z</time>
      </trkpt>
      <trkpt lat="44.77582" lon="6.32707">
        <ele>2017.6</ele>
        <time>2024-08-12T11:18:17Z</time>
      </trkpt>
      <trkpt lat="44.77582" lon="6.32707">
        <ele>2017.6</ele>
        <time>2024-08-12T11:18:18Z</time>
      </trkpt>
      <trkpt lat="44.77582" lon="6.32707">
        <ele>2017.6</ele>
        <time>2024-08-12T11:18:19Z</time>
      </trkpt>
      <trkpt lat="44.77582" lon="6.32707">
        <ele>2017.8</ele>
        <time>2024-08-12T11:18:20Z</time>
      </trkpt>
      <trkpt lat="44.77582" lon="6.32707">
        <ele>2018</ele>
        <time>2024-08-12T11:18:21Z</time>
      </trkpt>
      <trkpt lat="44.77582" lon="6.32707">
        <ele>2018.4</ele>
        <time>2024-08-12T11:18:22Z</time>
      </trkpt>
      <trkpt lat="44.77582" lon="6.32707">
        <ele>2018.4</ele>
        <time>2024-08-12T11:18:23Z</time>
      </trkpt>
      <trkpt lat="44.77582" lon="6.32707">
        <ele>2018.2</ele>
        <time>2024-08-12T11:18:24Z</time>
      </trkpt>
      <trkpt lat="44.77582" lon="6.32707">
        <ele>2018.2</ele>
        <time>2024-08-12T11:18:25Z</time>
      </trkpt>
      <trkpt lat="44.77582" lon="6.32707">
        <ele>2018</ele>
        <time>2024-08-12T11:18:26Z</time>
      </trkpt>
      <trkpt lat="44.77582" lon="6.32707">
        <ele>2017.8</ele>
        <time>2024-08-12T11:18:27Z</time>
      </trkpt>
      <trkpt lat="44.77582" lon="6.32707">
        <ele>2017.6</ele>
        <time>2024-08-12T11:18:28Z</time>
      </trkpt>
      <trkpt lat="44.77582" lon="6.32707">
        <ele>2017.6</ele>
        <time>2024-08-12T11:18:29Z</time>
      </trkpt>
      <trkpt lat="44.77582" lon="6.32707">
        <ele>2017.8</ele>
        <time>2024-08-12T11:18:30Z</time>
      </trkpt>
      <trkpt lat="44.77582" lon="6.32707">
        <ele>2018</ele>
        <time>2024-08-12T11:18:31Z</time>
      </trkpt>
      <trkpt lat="44.77582" lon="6.32707">
        <ele>2018.2</ele>
        <time>2024-08-12T11:18:32Z</time>
      </trkpt>
      <trkpt lat="44.77582" lon="6.32707">
        <ele>2018.2</ele>
        <time>2024-08-12T11:18:33Z</time>
      </trkpt>
      <trkpt lat="44.77582" lon="6.32707">
        <ele>2018.2</ele>
        <time>2024-08-12T11:18:34Z</time>
      </trkpt>
      <trkpt lat="44.77582" lon="6.32707">
        <ele>2018.2</ele>
        <time>2024-08-12T11:18:35Z</time>
      </trkpt>
      <trkpt lat="44.77582" lon="6.32707">
        <ele>2018.2</ele>
        <time>2024-08-12T11:18:36Z</time>
      </trkpt>
      <trkpt lat="44.77582" lon="6.32707">
        <ele>2018.2</ele>
        <time>2024-08-12T11:18:37Z</time>
      </trkpt>
      <trkpt lat="44.77582" lon="6.32707">
        <ele>2018</ele>
        <time>2024-08-12T11:18:38Z</time>
      </trkpt>
      <trkpt lat="44.77582" lon="6.32707">
        <ele>2018</ele>
        <time>2024-08-12T11:18:39Z</time>
      </trkpt>
      <trkpt lat="44.77582" lon="6.32707">
        <ele>2018</ele>
        <time>2024-08-12T11:18:40Z</time>
      </trkpt>
      <trkpt lat="44.77582" lon="6.32707">
        <ele>2018</ele>
        <time>2024-08-12T11:18:41Z</time>
      </trkpt>
      <trkpt lat="44.77582" lon="6.32707">
        <ele>2018</ele>
        <time>2024-08-12T11:18:42Z</time>
      </trkpt>
      <trkpt lat="44.77582" lon="6.32707">
        <ele>2018</ele>
        <time>2024-08-12T11:18:43Z</time>
      </trkpt>
      <trkpt lat="44.77582" lon="6.32707">
        <ele>2018</ele>
        <time>2024-08-12T11:18:44Z</time>
      </trkpt>
      <trkpt lat="44.77582" lon="6.32707">
        <ele>2018</ele>
        <time>2024-08-12T11:18:45Z</time>
      </trkpt>
      <trkpt lat="44.77582" lon="6.32707">
        <ele>2018.2</ele>
        <time>2024-08-12T11:18:46Z</time>
      </trkpt>
      <trkpt lat="44.77582" lon="6.32707">
        <ele>2018.2</ele>
        <time>2024-08-12T11:18:47Z</time>
      </trkpt>
      <trkpt lat="44.77582" lon="6.32707">
        <ele>2018.2</ele>
        <time>2024-08-12T11:18:48Z</time>
      </trkpt>
      <trkpt lat="44.77582" lon="6.32707">
        <ele>2018.2</ele>
        <time>2024-08-12T11:18:49Z</time>
      </trkpt>
      <trkpt lat="44.77582" lon="6.32707">
        <ele>2018.2</ele>
        <time>2024-08-12T11:18:50Z</time>
      </trkpt>
      <trkpt lat="44.77582" lon="6.32707">
        <ele>2018.2</ele>
        <time>2024-08-12T11:18:51Z</time>
      </trkpt>
      <trkpt lat="44.77582" lon="6.32707">
        <ele>2018</ele>
        <time>2024-08-12T11:18:52Z</time>
      </trkpt>
      <trkpt lat="44.77582" lon="6.32707">
        <ele>2018.2</ele>
        <time>2024-08-12T11:18:53Z</time>
      </trkpt>
      <trkpt lat="44.77582" lon="6.32707">
        <ele>2018.2</ele>
        <time>2024-08-12T11:18:54Z</time>
      </trkpt>
      <trkpt lat="44.77582" lon="6.32707">
        <ele>2018.2</ele>
        <time>2024-08-12T11:18:55Z</time>
      </trkpt>
      <trkpt lat="44.77582" lon="6.32707">
        <ele>2018.2</ele>
        <time>2024-08-12T11:18:56Z</time>
      </trkpt>
      <trkpt lat="44.77582" lon="6.32707">
        <ele>2018.4</ele>
        <time>2024-08-12T11:18:57Z</time>
      </trkpt>
      <trkpt lat="44.77585" lon="6.32709">
        <ele>2019</ele>
        <time>2024-08-12T11:18:58Z</time>
      </trkpt>
      <trkpt lat="44.77585" lon="6.32709">
        <ele>2019</ele>
        <time>2024-08-12T11:18:59Z</time>
      </trkpt>
      <trkpt lat="44.77588" lon="6.3271">
        <ele>2019.2</ele>
        <time>2024-08-12T11:19:00Z</time>
      </trkpt>
      <trkpt lat="44.77588" lon="6.3271">
        <ele>2019.2</ele>
        <time>2024-08-12T11:19:01Z</time>
      </trkpt>
      <trkpt lat="44.77589" lon="6.32712">
        <ele>2019.6</ele>
        <time>2024-08-12T11:19:02Z</time>
      </trkpt>
      <trkpt lat="44.77589" lon="6.32712">
        <ele>2019.6</ele>
        <time>2024-08-12T11:19:03Z</time>
      </trkpt>
      <trkpt lat="44.77591" lon="6.32714">
        <ele>2019.4</ele>
        <time>2024-08-12T11:19:04Z</time>
      </trkpt>
      <trkpt lat="44.77591" lon="6.32714">
        <ele>2019.4</ele>
        <time>2024-08-12T11:19:05Z</time>
      </trkpt>
      <trkpt lat="44.77591" lon="6.32714">
        <ele>2019.4</ele>
        <time>2024-08-12T11:19:06Z</time>
      </trkpt>
      <trkpt lat="44.77592" lon="6.32717">
        <ele>2019.6</ele>
        <time>2024-08-12T11:19:07Z</time>
      </trkpt>
      <trkpt lat="44.77592" lon="6.32717">
        <ele>2019.8</ele>
        <time>2024-08-12T11:19:08Z</time>
      </trkpt>
      <trkpt lat="44.77592" lon="6.32717">
        <ele>2020</ele>
        <time>2024-08-12T11:19:09Z</time>
      </trkpt>
      <trkpt lat="44.77592" lon="6.32717">
        <ele>2020.4</ele>
        <time>2024-08-12T11:19:10Z</time>
      </trkpt>
      <trkpt lat="44.77595" lon="6.32718">
        <ele>2020.4</ele>
        <time>2024-08-12T11:19:11Z</time>
      </trkpt>
      <trkpt lat="44.77595" lon="6.32718">
        <ele>2020.4</ele>
        <time>2024-08-12T11:19:12Z</time>
      </trkpt>
      <trkpt lat="44.77595" lon="6.32718">
        <ele>2020.6</ele>
        <time>2024-08-12T11:19:13Z</time>
      </trkpt>
      <trkpt lat="44.77597" lon="6.32718">
        <ele>2021.2</ele>
        <time>2024-08-12T11:19:14Z</time>
      </trkpt>
      <trkpt lat="44.77597" lon="6.32718">
        <ele>2021.2</ele>
        <time>2024-08-12T11:19:15Z</time>
      </trkpt>
      <trkpt lat="44.77599" lon="6.32719">
        <ele>2021.4</ele>
        <time>2024-08-12T11:19:16Z</time>
      </trkpt>
      <trkpt lat="44.77599" lon="6.32719">
        <ele>2021.6</ele>
        <time>2024-08-12T11:19:17Z</time>
      </trkpt>
      <trkpt lat="44.77601" lon="6.32721">
        <ele>2021.8</ele>
        <time>2024-08-12T11:19:18Z</time>
      </trkpt>
      <trkpt lat="44.77601" lon="6.32721">
        <ele>2022</ele>
        <time>2024-08-12T11:19:19Z</time>
      </trkpt>
      <trkpt lat="44.77601" lon="6.32721">
        <ele>2022</ele>
        <time>2024-08-12T11:19:20Z</time>
      </trkpt>
      <trkpt lat="44.77603" lon="6.32724">
        <ele>2022</ele>
        <time>2024-08-12T11:19:21Z</time>
      </trkpt>
      <trkpt lat="44.77603" lon="6.32724">
        <ele>2022</ele>
        <time>2024-08-12T11:19:22Z</time>
      </trkpt>
      <trkpt lat="44.77605" lon="6.32725">
        <ele>2022</ele>
        <time>2024-08-12T11:19:23Z</time>
      </trkpt>
      <trkpt lat="44.77605" lon="6.32725">
        <ele>2022.4</ele>
        <time>2024-08-12T11:19:24Z</time>
      </trkpt>
      <trkpt lat="44.77606" lon="6.32727">
        <ele>2022.6</ele>
        <time>2024-08-12T11:19:25Z</time>
      </trkpt>
      <trkpt lat="44.77606" lon="6.32727">
        <ele>2022.8</ele>
        <time>2024-08-12T11:19:26Z</time>
      </trkpt>
      <trkpt lat="44.77606" lon="6.32727">
        <ele>2022.8</ele>
        <time>2024-08-12T11:19:27Z</time>
      </trkpt>
      <trkpt lat="44.77608" lon="6.32729">
        <ele>2023</ele>
        <time>2024-08-12T11:19:28Z</time>
      </trkpt>
      <trkpt lat="44.77608" lon="6.32729">
        <ele>2023</ele>
        <time>2024-08-12T11:19:29Z</time>
      </trkpt>
      <trkpt lat="44.7761" lon="6.32731">
        <ele>2023.2</ele>
        <time>2024-08-12T11:19:30Z</time>
      </trkpt>
      <trkpt lat="44.7761" lon="6.32731">
        <ele>2023.2</ele>
        <time>2024-08-12T11:19:31Z</time>
      </trkpt>
      <trkpt lat="44.77611" lon="6.32732">
        <ele>2023.4</ele>
        <time>2024-08-12T11:19:32Z</time>
      </trkpt>
      <trkpt lat="44.77611" lon="6.32732">
        <ele>2023.8</ele>
        <time>2024-08-12T11:19:33Z</time>
      </trkpt>
      <trkpt lat="44.77613" lon="6.32733">
        <ele>2023.8</ele>
        <time>2024-08-12T11:19:34Z</time>
      </trkpt>
      <trkpt lat="44.77613" lon="6.32733">
        <ele>2024</ele>
        <time>2024-08-12T11:19:35Z</time>
      </trkpt>
      <trkpt lat="44.77613" lon="6.32733">
        <ele>2024.2</ele>
        <time>2024-08-12T11:19:36Z</time>
      </trkpt>
      <trkpt lat="44.77615" lon="6.32736">
        <ele>2024.4</ele>
        <time>2024-08-12T11:19:37Z</time>
      </trkpt>
      <trkpt lat="44.77615" lon="6.32736">
        <ele>2024.4</ele>
        <time>2024-08-12T11:19:38Z</time>
      </trkpt>
      <trkpt lat="44.77616" lon="6.32738">
        <ele>2024.4</ele>
        <time>2024-08-12T11:19:39Z</time>
      </trkpt>
      <trkpt lat="44.77616" lon="6.32738">
        <ele>2024.4</ele>
        <time>2024-08-12T11:19:40Z</time>
      </trkpt>
      <trkpt lat="44.77616" lon="6.32738">
        <ele>2024.4</ele>
        <time>2024-08-12T11:19:41Z</time>
      </trkpt>
      <trkpt lat="44.77617" lon="6.32741">
        <ele>2024.6</ele>
        <time>2024-08-12T11:19:42Z</time>
      </trkpt>
      <trkpt lat="44.77617" lon="6.32741">
        <ele>2024.6</ele>
        <time>2024-08-12T11:19:43Z</time>
      </trkpt>
      <trkpt lat="44.77617" lon="6.32741">
        <ele>2024.6</ele>
        <time>2024-08-12T11:19:44Z</time>
      </trkpt>
      <trkpt lat="44.77619" lon="6.32743">
        <ele>2025</ele>
        <time>2024-08-12T11:19:45Z</time>
      </trkpt>
      <trkpt lat="44.77619" lon="6.32743">
        <ele>2025</ele>
        <time>2024-08-12T11:19:46Z</time>
      </trkpt>
      <trkpt lat="44.77619" lon="6.32743">
        <ele>2025.4</ele>
        <time>2024-08-12T11:19:47Z</time>
      </trkpt>
      <trkpt lat="44.7762" lon="6.32744">
        <ele>2026</ele>
        <time>2024-08-12T11:19:48Z</time>
      </trkpt>
      <trkpt lat="44.7762" lon="6.32744">
        <ele>2026</ele>
        <time>2024-08-12T11:19:49Z</time>
      </trkpt>
      <trkpt lat="44.77622" lon="6.32746">
        <ele>2026.2</ele>
        <time>2024-08-12T11:19:50Z</time>
      </trkpt>
      <trkpt lat="44.77622" lon="6.32746">
        <ele>2026.4</ele>
        <time>2024-08-12T11:19:51Z</time>
      </trkpt>
      <trkpt lat="44.77622" lon="6.32746">
        <ele>2026.4</ele>
        <time>2024-08-12T11:19:52Z</time>
      </trkpt>
      <trkpt lat="44.77624" lon="6.32746">
        <ele>2026.4</ele>
        <time>2024-08-12T11:19:53Z</time>
      </trkpt>
      <trkpt lat="44.77624" lon="6.32746">
        <ele>2027.2</ele>
        <time>2024-08-12T11:19:54Z</time>
      </trkpt>
      <trkpt lat="44.77624" lon="6.32746">
        <ele>2027.4</ele>
        <time>2024-08-12T11:19:55Z</time>
      </trkpt>
      <trkpt lat="44.77624" lon="6.32746">
        <ele>2027.4</ele>
        <time>2024-08-12T11:19:56Z</time>
      </trkpt>
      <trkpt lat="44.77625" lon="6.32744">
        <ele>2027.4</ele>
        <time>2024-08-12T11:19:57Z</time>
      </trkpt>
      <trkpt lat="44.77625" lon="6.32744">
        <ele>2027.4</ele>
        <time>2024-08-12T11:19:58Z</time>
      </trkpt>
      <trkpt lat="44.77625" lon="6.32744">
        <ele>2028</ele>
        <time>2024-08-12T11:19:59Z</time>
      </trkpt>
      <trkpt lat="44.77626" lon="6.3274">
        <ele>2028</ele>
        <time>2024-08-12T11:20:00Z</time>
      </trkpt>
      <trkpt lat="44.77626" lon="6.3274">
        <ele>2028.2</ele>
        <time>2024-08-12T11:20:01Z</time>
      </trkpt>
      <trkpt lat="44.77626" lon="6.3274">
        <ele>2028.6</ele>
        <time>2024-08-12T11:20:02Z</time>
      </trkpt>
      <trkpt lat="44.77626" lon="6.3274">
        <ele>2028.6</ele>
        <time>2024-08-12T11:20:03Z</time>
      </trkpt>
      <trkpt lat="44.77626" lon="6.3274">
        <ele>2028.6</ele>
        <time>2024-08-12T11:20:04Z</time>
      </trkpt>
      <trkpt lat="44.77626" lon="6.3274">
        <ele>2028.6</ele>
        <time>2024-08-12T11:20:05Z</time>
      </trkpt>
      <trkpt lat="44.77626" lon="6.3274">
        <ele>2028.6</ele>
        <time>2024-08-12T11:20:06Z</time>
      </trkpt>
      <trkpt lat="44.77626" lon="6.3274">
        <ele>2028.6</ele>
        <time>2024-08-12T11:20:07Z</time>
      </trkpt>
      <trkpt lat="44.77626" lon="6.3274">
        <ele>2028.6</ele>
        <time>2024-08-12T11:20:08Z</time>
      </trkpt>
      <trkpt lat="44.77626" lon="6.3274">
        <ele>2028.8</ele>
        <time>2024-08-12T11:20:09Z</time>
      </trkpt>
      <trkpt lat="44.77626" lon="6.3274">
        <ele>2029</ele>
        <time>2024-08-12T11:20:10Z</time>
      </trkpt>
      <trkpt lat="44.77626" lon="6.3274">
        <ele>2029.2</ele>
        <time>2024-08-12T11:20:11Z</time>
      </trkpt>
      <trkpt lat="44.77626" lon="6.3274">
        <ele>2029.2</ele>
        <time>2024-08-12T11:20:12Z</time>
      </trkpt>
      <trkpt lat="44.77626" lon="6.3274">
        <ele>2029.2</ele>
        <time>2024-08-12T11:20:13Z</time>
      </trkpt>
      <trkpt lat="44.77626" lon="6.3274">
        <ele>2029</ele>
        <time>2024-08-12T11:20:14Z</time>
      </trkpt>
      <trkpt lat="44.77626" lon="6.3274">
        <ele>2028.8</ele>
        <time>2024-08-12T11:20:15Z</time>
      </trkpt>
      <trkpt lat="44.77627" lon="6.32737">
        <ele>2028.8</ele>
        <time>2024-08-12T11:20:16Z</time>
      </trkpt>
      <trkpt lat="44.77627" lon="6.32737">
        <ele>2028.6</ele>
        <time>2024-08-12T11:20:17Z</time>
      </trkpt>
      <trkpt lat="44.77628" lon="6.32734">
        <ele>2028.6</ele>
        <time>2024-08-12T11:20:18Z</time>
      </trkpt>
      <trkpt lat="44.77628" lon="6.32734">
        <ele>2028.6</ele>
        <time>2024-08-12T11:20:19Z</time>
      </trkpt>
      <trkpt lat="44.77629" lon="6.32731">
        <ele>2029.2</ele>
        <time>2024-08-12T11:20:20Z</time>
      </trkpt>
      <trkpt lat="44.77629" lon="6.32731">
        <ele>2029.4</ele>
        <time>2024-08-12T11:20:21Z</time>
      </trkpt>
      <trkpt lat="44.77629" lon="6.32728">
        <ele>2029.6</ele>
        <time>2024-08-12T11:20:22Z</time>
      </trkpt>
      <trkpt lat="44.77629" lon="6.32728">
        <ele>2030</ele>
        <time>2024-08-12T11:20:23Z</time>
      </trkpt>
      <trkpt lat="44.77629" lon="6.32725">
        <ele>2030</ele>
        <time>2024-08-12T11:20:24Z</time>
      </trkpt>
      <trkpt lat="44.77629" lon="6.32725">
        <ele>2030</ele>
        <time>2024-08-12T11:20:25Z</time>
      </trkpt>
      <trkpt lat="44.77629" lon="6.32725">
        <ele>2030</ele>
        <time>2024-08-12T11:20:26Z</time>
      </trkpt>
      <trkpt lat="44.7763" lon="6.32722">
        <ele>2030.4</ele>
        <time>2024-08-12T11:20:27Z</time>
      </trkpt>
      <trkpt lat="44.7763" lon="6.32722">
        <ele>2030.4</ele>
        <time>2024-08-12T11:20:28Z</time>
      </trkpt>
      <trkpt lat="44.77629" lon="6.32719">
        <ele>2030.4</ele>
        <time>2024-08-12T11:20:29Z</time>
      </trkpt>
      <trkpt lat="44.77629" lon="6.32719">
        <ele>2030.4</ele>
        <time>2024-08-12T11:20:30Z</time>
      </trkpt>
      <trkpt lat="44.77629" lon="6.32719">
        <ele>2030.6</ele>
        <time>2024-08-12T11:20:31Z</time>
      </trkpt>
      <trkpt lat="44.77629" lon="6.32716">
        <ele>2030.8</ele>
        <time>2024-08-12T11:20:32Z</time>
      </trkpt>
      <trkpt lat="44.77629" lon="6.32716">
        <ele>2031</ele>
        <time>2024-08-12T11:20:33Z</time>
      </trkpt>
      <trkpt lat="44.77629" lon="6.32716">
        <ele>2031</ele>
        <time>2024-08-12T11:20:34Z</time>
      </trkpt>
      <trkpt lat="44.77629" lon="6.32713">
        <ele>2031</ele>
        <time>2024-08-12T11:20:35Z</time>
      </trkpt>
      <trkpt lat="44.77629" lon="6.32713">
        <ele>2031.2</ele>
        <time>2024-08-12T11:20:36Z</time>
      </trkpt>
      <trkpt lat="44.77629" lon="6.32713">
        <ele>2031.8</ele>
        <time>2024-08-12T11:20:37Z</time>
      </trkpt>
      <trkpt lat="44.77629" lon="6.32711">
        <ele>2032.2</ele>
        <time>2024-08-12T11:20:38Z</time>
      </trkpt>
      <trkpt lat="44.77629" lon="6.32711">
        <ele>2032.2</ele>
        <time>2024-08-12T11:20:39Z</time>
      </trkpt>
      <trkpt lat="44.77629" lon="6.32708">
        <ele>2032.4</ele>
        <time>2024-08-12T11:20:40Z</time>
      </trkpt>
      <trkpt lat="44.77629" lon="6.32708">
        <ele>2032.6</ele>
        <time>2024-08-12T11:20:41Z</time>
      </trkpt>
      <trkpt lat="44.77629" lon="6.32708">
        <ele>2033</ele>
        <time>2024-08-12T11:20:42Z</time>
      </trkpt>
      <trkpt lat="44.77629" lon="6.32704">
        <ele>2033</ele>
        <time>2024-08-12T11:20:43Z</time>
      </trkpt>
      <trkpt lat="44.77629" lon="6.32704">
        <ele>2033.4</ele>
        <time>2024-08-12T11:20:44Z</time>
      </trkpt>
      <trkpt lat="44.77629" lon="6.32702">
        <ele>2033.8</ele>
        <time>2024-08-12T11:20:45Z</time>
      </trkpt>
      <trkpt lat="44.77629" lon="6.32702">
        <ele>2034.2</ele>
        <time>2024-08-12T11:20:46Z</time>
      </trkpt>
      <trkpt lat="44.77629" lon="6.32702">
        <ele>2034.2</ele>
        <time>2024-08-12T11:20:47Z</time>
      </trkpt>
      <trkpt lat="44.7763" lon="6.32699">
        <ele>2034.4</ele>
        <time>2024-08-12T11:20:48Z</time>
      </trkpt>
      <trkpt lat="44.7763" lon="6.32699">
        <ele>2034.6</ele>
        <time>2024-08-12T11:20:49Z</time>
      </trkpt>
      <trkpt lat="44.7763" lon="6.32699">
        <ele>2034.6</ele>
        <time>2024-08-12T11:20:50Z</time>
      </trkpt>
      <trkpt lat="44.7763" lon="6.32699">
        <ele>2034.4</ele>
        <time>2024-08-12T11:20:51Z</time>
      </trkpt>
      <trkpt lat="44.7763" lon="6.32695">
        <ele>2034.4</ele>
        <time>2024-08-12T11:20:52Z</time>
      </trkpt>
      <trkpt lat="44.7763" lon="6.32695">
        <ele>2034.6</ele>
        <time>2024-08-12T11:20:53Z</time>
      </trkpt>
      <trkpt lat="44.7763" lon="6.32695">
        <ele>2034.8</ele>
        <time>2024-08-12T11:20:54Z</time>
      </trkpt>
      <trkpt lat="44.7763" lon="6.32695">
        <ele>2035</ele>
        <time>2024-08-12T11:20:55Z</time>
      </trkpt>
      <trkpt lat="44.7763" lon="6.32692">
        <ele>2035.6</ele>
        <time>2024-08-12T11:20:56Z</time>
      </trkpt>
      <trkpt lat="44.7763" lon="6.32692">
        <ele>2035.6</ele>
        <time>2024-08-12T11:20:57Z</time>
      </trkpt>
      <trkpt lat="44.7763" lon="6.32692">
        <ele>2035.6</ele>
        <time>2024-08-12T11:20:58Z</time>
      </trkpt>
      <trkpt lat="44.77631" lon="6.3269">
        <ele>2035.8</ele>
        <time>2024-08-12T11:20:59Z</time>
      </trkpt>
      <trkpt lat="44.77631" lon="6.3269">
        <ele>2035.8</ele>
        <time>2024-08-12T11:21:00Z</time>
      </trkpt>
      <trkpt lat="44.77631" lon="6.3269">
        <ele>2036</ele>
        <time>2024-08-12T11:21:01Z</time>
      </trkpt>
      <trkpt lat="44.77633" lon="6.32692">
        <ele>2036.2</ele>
        <time>2024-08-12T11:21:02Z</time>
      </trkpt>
      <trkpt lat="44.77633" lon="6.32692">
        <ele>2036.4</ele>
        <time>2024-08-12T11:21:03Z</time>
      </trkpt>
      <trkpt lat="44.77635" lon="6.32693">
        <ele>2036.6</ele>
        <time>2024-08-12T11:21:04Z</time>
      </trkpt>
      <trkpt lat="44.77635" lon="6.32693">
        <ele>2036.6</ele>
        <time>2024-08-12T11:21:05Z</time>
      </trkpt>
      <trkpt lat="44.77635" lon="6.32693">
        <ele>2036.8</ele>
        <time>2024-08-12T11:21:06Z</time>
      </trkpt>
      <trkpt lat="44.77637" lon="6.32695">
        <ele>2036.8</ele>
        <time>2024-08-12T11:21:07Z</time>
      </trkpt>
      <trkpt lat="44.77637" lon="6.32695">
        <ele>2036.8</ele>
        <time>2024-08-12T11:21:08Z</time>
      </trkpt>
      <trkpt lat="44.77637" lon="6.32695">
        <ele>2036.8</ele>
        <time>2024-08-12T11:21:09Z</time>
      </trkpt>
      <trkpt lat="44.77639" lon="6.32697">
        <ele>2037</ele>
        <time>2024-08-12T11:21:10Z</time>
      </trkpt>
      <trkpt lat="44.77639" lon="6.32697">
        <ele>2037.2</ele>
        <time>2024-08-12T11:21:11Z</time>
      </trkpt>
      <trkpt lat="44.77641" lon="6.32698">
        <ele>2037.4</ele>
        <time>2024-08-12T11:21:12Z</time>
      </trkpt>
      <trkpt lat="44.77641" lon="6.32698">
        <ele>2037.4</ele>
        <time>2024-08-12T11:21:13Z</time>
      </trkpt>
      <trkpt lat="44.77643" lon="6.327">
        <ele>2037.4</ele>
        <time>2024-08-12T11:21:14Z</time>
      </trkpt>
      <trkpt lat="44.77643" lon="6.327">
        <ele>2037.4</ele>
        <time>2024-08-12T11:21:15Z</time>
      </trkpt>
      <trkpt lat="44.77643" lon="6.327">
        <ele>2038</ele>
        <time>2024-08-12T11:21:16Z</time>
      </trkpt>
      <trkpt lat="44.77645" lon="6.32702">
        <ele>2038</ele>
        <time>2024-08-12T11:21:17Z</time>
      </trkpt>
      <trkpt lat="44.77645" lon="6.32702">
        <ele>2038.2</ele>
        <time>2024-08-12T11:21:18Z</time>
      </trkpt>
      <trkpt lat="44.77645" lon="6.32702">
        <ele>2038.4</ele>
        <time>2024-08-12T11:21:19Z</time>
      </trkpt>
      <trkpt lat="44.77648" lon="6.32703">
        <ele>2038.4</ele>
        <time>2024-08-12T11:21:20Z</time>
      </trkpt>
      <trkpt lat="44.77648" lon="6.32703">
        <ele>2038.8</ele>
        <time>2024-08-12T11:21:21Z</time>
      </trkpt>
      <trkpt lat="44.7765" lon="6.32705">
        <ele>2038.8</ele>
        <time>2024-08-12T11:21:22Z</time>
      </trkpt>
      <trkpt lat="44.7765" lon="6.32705">
        <ele>2039.4</ele>
        <time>2024-08-12T11:21:23Z</time>
      </trkpt>
      <trkpt lat="44.77652" lon="6.32706">
        <ele>2039.4</ele>
        <time>2024-08-12T11:21:24Z</time>
      </trkpt>
      <trkpt lat="44.77652" lon="6.32706">
        <ele>2039.4</ele>
        <time>2024-08-12T11:21:25Z</time>
      </trkpt>
      <trkpt lat="44.77653" lon="6.32707">
        <ele>2039.8</ele>
        <time>2024-08-12T11:21:26Z</time>
      </trkpt>
      <trkpt lat="44.77653" lon="6.32707">
        <ele>2039.8</ele>
        <time>2024-08-12T11:21:27Z</time>
      </trkpt>
      <trkpt lat="44.77655" lon="6.32709">
        <ele>2039.8</ele>
        <time>2024-08-12T11:21:28Z</time>
      </trkpt>
      <trkpt lat="44.77655" lon="6.32709">
        <ele>2039.8</ele>
        <time>2024-08-12T11:21:29Z</time>
      </trkpt>
      <trkpt lat="44.77657" lon="6.32711">
        <ele>2040</ele>
        <time>2024-08-12T11:21:30Z</time>
      </trkpt>
      <trkpt lat="44.77657" lon="6.32711">
        <ele>2040</ele>
        <time>2024-08-12T11:21:31Z</time>
      </trkpt>
      <trkpt lat="44.77658" lon="6.32713">
        <ele>2040</ele>
        <time>2024-08-12T11:21:32Z</time>
      </trkpt>
      <trkpt lat="44.77658" lon="6.32713">
        <ele>2040</ele>
        <time>2024-08-12T11:21:33Z</time>
      </trkpt>
      <trkpt lat="44.77658" lon="6.32713">
        <ele>2040.2</ele>
        <time>2024-08-12T11:21:34Z</time>
      </trkpt>
      <trkpt lat="44.77658" lon="6.32713">
        <ele>2040.6</ele>
        <time>2024-08-12T11:21:35Z</time>
      </trkpt>
      <trkpt lat="44.77658" lon="6.32713">
        <ele>2040.6</ele>
        <time>2024-08-12T11:21:36Z</time>
      </trkpt>
      <trkpt lat="44.7766" lon="6.32714">
        <ele>2040.6</ele>
        <time>2024-08-12T11:21:37Z</time>
      </trkpt>
      <trkpt lat="44.7766" lon="6.32714">
        <ele>2040.6</ele>
        <time>2024-08-12T11:21:38Z</time>
      </trkpt>
      <trkpt lat="44.7766" lon="6.32714">
        <ele>2041.4</ele>
        <time>2024-08-12T11:21:39Z</time>
      </trkpt>
      <trkpt lat="44.77661" lon="6.32712">
        <ele>2041.8</ele>
        <time>2024-08-12T11:21:40Z</time>
      </trkpt>
      <trkpt lat="44.77661" lon="6.32712">
        <ele>2042</ele>
        <time>2024-08-12T11:21:41Z</time>
      </trkpt>
      <trkpt lat="44.77661" lon="6.32712">
        <ele>2042</ele>
        <time>2024-08-12T11:21:42Z</time>
      </trkpt>
      <trkpt lat="44.77661" lon="6.32708">
        <ele>2042.2</ele>
        <time>2024-08-12T11:21:43Z</time>
      </trkpt>
      <trkpt lat="44.77661" lon="6.32708">
        <ele>2042.2</ele>
        <time>2024-08-12T11:21:44Z</time>
      </trkpt>
      <trkpt lat="44.77661" lon="6.32708">
        <ele>2042.4</ele>
        <time>2024-08-12T11:21:45Z</time>
      </trkpt>
      <trkpt lat="44.77662" lon="6.32706">
        <ele>2042.6</ele>
        <time>2024-08-12T11:21:46Z</time>
      </trkpt>
      <trkpt lat="44.77662" lon="6.32706">
        <ele>2042.8</ele>
        <time>2024-08-12T11:21:47Z</time>
      </trkpt>
      <trkpt lat="44.77662" lon="6.32703">
        <ele>2043</ele>
        <time>2024-08-12T11:21:48Z</time>
      </trkpt>
      <trkpt lat="44.77662" lon="6.32703">
        <ele>2043</ele>
        <time>2024-08-12T11:21:49Z</time>
      </trkpt>
      <trkpt lat="44.77662" lon="6.327">
        <ele>2043.2</ele>
        <time>2024-08-12T11:21:50Z</time>
      </trkpt>
      <trkpt lat="44.77662" lon="6.327">
        <ele>2043.2</ele>
        <time>2024-08-12T11:21:51Z</time>
      </trkpt>
      <trkpt lat="44.77662" lon="6.327">
        <ele>2043.4</ele>
        <time>2024-08-12T11:21:52Z</time>
      </trkpt>
      <trkpt lat="44.77663" lon="6.32697">
        <ele>2043.8</ele>
        <time>2024-08-12T11:21:53Z</time>
      </trkpt>
      <trkpt lat="44.77663" lon="6.32697">
        <ele>2043.8</ele>
        <time>2024-08-12T11:21:54Z</time>
      </trkpt>
      <trkpt lat="44.77663" lon="6.32697">
        <ele>2044</ele>
        <time>2024-08-12T11:21:55Z</time>
      </trkpt>
      <trkpt lat="44.77663" lon="6.32693">
        <ele>2044.2</ele>
        <time>2024-08-12T11:21:56Z</time>
      </trkpt>
      <trkpt lat="44.77663" lon="6.32693">
        <ele>2044.4</ele>
        <time>2024-08-12T11:21:57Z</time>
      </trkpt>
      <trkpt lat="44.77663" lon="6.32693">
        <ele>2044.4</ele>
        <time>2024-08-12T11:21:58Z</time>
      </trkpt>
      <trkpt lat="44.77662" lon="6.3269">
        <ele>2044.4</ele>
        <time>2024-08-12T11:21:59Z</time>
      </trkpt>
      <trkpt lat="44.77662" lon="6.3269">
        <ele>2044.8</ele>
        <time>2024-08-12T11:22:00Z</time>
      </trkpt>
      <trkpt lat="44.77662" lon="6.3269">
        <ele>2045.2</ele>
        <time>2024-08-12T11:22:01Z</time>
      </trkpt>
      <trkpt lat="44.77662" lon="6.32686">
        <ele>2045.6</ele>
        <time>2024-08-12T11:22:02Z</time>
      </trkpt>
      <trkpt lat="44.77662" lon="6.32686">
        <ele>2045.6</ele>
        <time>2024-08-12T11:22:03Z</time>
      </trkpt>
      <trkpt lat="44.77662" lon="6.32686">
        <ele>2045.8</ele>
        <time>2024-08-12T11:22:04Z</time>
      </trkpt>
      <trkpt lat="44.77663" lon="6.32683">
        <ele>2046.2</ele>
        <time>2024-08-12T11:22:05Z</time>
      </trkpt>
      <trkpt lat="44.77663" lon="6.32683">
        <ele>2046.4</ele>
        <time>2024-08-12T11:22:06Z</time>
      </trkpt>
      <trkpt lat="44.77663" lon="6.32683">
        <ele>2046.4</ele>
        <time>2024-08-12T11:22:07Z</time>
      </trkpt>
      <trkpt lat="44.77663" lon="6.32683">
        <ele>2046.8</ele>
        <time>2024-08-12T11:22:08Z</time>
      </trkpt>
      <trkpt lat="44.77663" lon="6.32679">
        <ele>2047</ele>
        <time>2024-08-12T11:22:09Z</time>
      </trkpt>
      <trkpt lat="44.77663" lon="6.32679">
        <ele>2047</ele>
        <time>2024-08-12T11:22:10Z</time>
      </trkpt>
      <trkpt lat="44.77663" lon="6.32679">
        <ele>2047</ele>
        <time>2024-08-12T11:22:11Z</time>
      </trkpt>
      <trkpt lat="44.77665" lon="6.32678">
        <ele>2047</ele>
        <time>2024-08-12T11:22:12Z</time>
      </trkpt>
      <trkpt lat="44.77665" lon="6.32678">
        <ele>2047.6</ele>
        <time>2024-08-12T11:22:13Z</time>
      </trkpt>
      <trkpt lat="44.77667" lon="6.3268">
        <ele>2047.6</ele>
        <time>2024-08-12T11:22:14Z</time>
      </trkpt>
      <trkpt lat="44.77667" lon="6.3268">
        <ele>2047.8</ele>
        <time>2024-08-12T11:22:15Z</time>
      </trkpt>
      <trkpt lat="44.77667" lon="6.3268">
        <ele>2047.8</ele>
        <time>2024-08-12T11:22:16Z</time>
      </trkpt>
      <trkpt lat="44.77668" lon="6.32682">
        <ele>2048</ele>
        <time>2024-08-12T11:22:17Z</time>
      </trkpt>
      <trkpt lat="44.77668" lon="6.32682">
        <ele>2048.2</ele>
        <time>2024-08-12T11:22:18Z</time>
      </trkpt>
      <trkpt lat="44.7767" lon="6.32683">
        <ele>2048.2</ele>
        <time>2024-08-12T11:22:19Z</time>
      </trkpt>
      <trkpt lat="44.7767" lon="6.32683">
        <ele>2048.2</ele>
        <time>2024-08-12T11:22:20Z</time>
      </trkpt>
      <trkpt lat="44.77672" lon="6.32685">
        <ele>2048.2</ele>
        <time>2024-08-12T11:22:21Z</time>
      </trkpt>
      <trkpt lat="44.77672" lon="6.32685">
        <ele>2048.4</ele>
        <time>2024-08-12T11:22:22Z</time>
      </trkpt>
      <trkpt lat="44.77674" lon="6.32687">
        <ele>2048.4</ele>
        <time>2024-08-12T11:22:23Z</time>
      </trkpt>
      <trkpt lat="44.77674" lon="6.32687">
        <ele>2048.6</ele>
        <time>2024-08-12T11:22:24Z</time>
      </trkpt>
      <trkpt lat="44.77676" lon="6.32688">
        <ele>2048.8</ele>
        <time>2024-08-12T11:22:25Z</time>
      </trkpt>
      <trkpt lat="44.77676" lon="6.32688">
        <ele>2048.8</ele>
        <time>2024-08-12T11:22:26Z</time>
      </trkpt>
      <trkpt lat="44.77676" lon="6.32688">
        <ele>2049.2</ele>
        <time>2024-08-12T11:22:27Z</time>
      </trkpt>
      <trkpt lat="44.77679" lon="6.3269">
        <ele>2049.2</ele>
        <time>2024-08-12T11:22:28Z</time>
      </trkpt>
      <trkpt lat="44.77679" lon="6.3269">
        <ele>2049.2</ele>
        <time>2024-08-12T11:22:29Z</time>
      </trkpt>
      <trkpt lat="44.7768" lon="6.32692">
        <ele>2049.2</ele>
        <time>2024-08-12T11:22:30Z</time>
      </trkpt>
      <trkpt lat="44.7768" lon="6.32692">
        <ele>2049.8</ele>
        <time>2024-08-12T11:22:31Z</time>
      </trkpt>
      <trkpt lat="44.77682" lon="6.32693">
        <ele>2050</ele>
        <time>2024-08-12T11:22:32Z</time>
      </trkpt>
      <trkpt lat="44.77682" lon="6.32693">
        <ele>2050.4</ele>
        <time>2024-08-12T11:22:33Z</time>
      </trkpt>
      <trkpt lat="44.77683" lon="6.32695">
        <ele>2050.4</ele>
        <time>2024-08-12T11:22:34Z</time>
      </trkpt>
      <trkpt lat="44.77683" lon="6.32695">
        <ele>2050.4</ele>
        <time>2024-08-12T11:22:35Z</time>
      </trkpt>
      <trkpt lat="44.77685" lon="6.32696">
        <ele>2050.6</ele>
        <time>2024-08-12T11:22:36Z</time>
      </trkpt>
      <trkpt lat="44.77685" lon="6.32696">
        <ele>2050.8</ele>
        <time>2024-08-12T11:22:37Z</time>
      </trkpt>
      <trkpt lat="44.77686" lon="6.32698">
        <ele>2050.8</ele>
        <time>2024-08-12T11:22:38Z</time>
      </trkpt>
      <trkpt lat="44.77686" lon="6.32698">
        <ele>2050.8</ele>
        <time>2024-08-12T11:22:39Z</time>
      </trkpt>
      <trkpt lat="44.77686" lon="6.32698">
        <ele>2051.2</ele>
        <time>2024-08-12T11:22:40Z</time>
      </trkpt>
      <trkpt lat="44.77688" lon="6.32699">
        <ele>2051.2</ele>
        <time>2024-08-12T11:22:41Z</time>
      </trkpt>
      <trkpt lat="44.77688" lon="6.32699">
        <ele>2051.4</ele>
        <time>2024-08-12T11:22:42Z</time>
      </trkpt>
      <trkpt lat="44.7769" lon="6.327">
        <ele>2051.6</ele>
        <time>2024-08-12T11:22:43Z</time>
      </trkpt>
      <trkpt lat="44.7769" lon="6.327">
        <ele>2051.8</ele>
        <time>2024-08-12T11:22:44Z</time>
      </trkpt>
      <trkpt lat="44.7769" lon="6.327">
        <ele>2051.8</ele>
        <time>2024-08-12T11:22:45Z</time>
      </trkpt>
      <trkpt lat="44.77693" lon="6.32702">
        <ele>2052</ele>
        <time>2024-08-12T11:22:46Z</time>
      </trkpt>
      <trkpt lat="44.77693" lon="6.32702">
        <ele>2052.2</ele>
        <time>2024-08-12T11:22:47Z</time>
      </trkpt>
      <trkpt lat="44.77694" lon="6.32704">
        <ele>2052.2</ele>
        <time>2024-08-12T11:22:48Z</time>
      </trkpt>
      <trkpt lat="44.77694" lon="6.32704">
        <ele>2052.4</ele>
        <time>2024-08-12T11:22:49Z</time>
      </trkpt>
      <trkpt lat="44.77694" lon="6.32704">
        <ele>2052.4</ele>
        <time>2024-08-12T11:22:50Z</time>
      </trkpt>
      <trkpt lat="44.77695" lon="6.32706">
        <ele>2052.4</ele>
        <time>2024-08-12T11:22:51Z</time>
      </trkpt>
      <trkpt lat="44.77695" lon="6.32706">
        <ele>2052.4</ele>
        <time>2024-08-12T11:22:52Z</time>
      </trkpt>
      <trkpt lat="44.77695" lon="6.32706">
        <ele>2052.8</ele>
        <time>2024-08-12T11:22:53Z</time>
      </trkpt>
      <trkpt lat="44.77695" lon="6.32706">
        <ele>2052.8</ele>
        <time>2024-08-12T11:22:54Z</time>
      </trkpt>
      <trkpt lat="44.77697" lon="6.32708">
        <ele>2053</ele>
        <time>2024-08-12T11:22:55Z</time>
      </trkpt>
      <trkpt lat="44.77697" lon="6.32708">
        <ele>2053.4</ele>
        <time>2024-08-12T11:22:56Z</time>
      </trkpt>
      <trkpt lat="44.77697" lon="6.32708">
        <ele>2053.6</ele>
        <time>2024-08-12T11:22:57Z</time>
      </trkpt>
      <trkpt lat="44.77697" lon="6.32708">
        <ele>2054</ele>
        <time>2024-08-12T11:22:58Z</time>
      </trkpt>
      <trkpt lat="44.77697" lon="6.32708">
        <ele>2054</ele>
        <time>2024-08-12T11:22:59Z</time>
      </trkpt>
      <trkpt lat="44.77698" lon="6.32705">
        <ele>2054</ele>
        <time>2024-08-12T11:23:00Z</time>
      </trkpt>
      <trkpt lat="44.77698" lon="6.32705">
        <ele>2054</ele>
        <time>2024-08-12T11:23:01Z</time>
      </trkpt>
      <trkpt lat="44.77698" lon="6.32705">
        <ele>2054.8</ele>
        <time>2024-08-12T11:23:02Z</time>
      </trkpt>
      <trkpt lat="44.77699" lon="6.32702">
        <ele>2054.8</ele>
        <time>2024-08-12T11:23:03Z</time>
      </trkpt>
      <trkpt lat="44.77699" lon="6.32702">
        <ele>2055.4</ele>
        <time>2024-08-12T11:23:04Z</time>
      </trkpt>
      <trkpt lat="44.77699" lon="6.32702">
        <ele>2055.4</ele>
        <time>2024-08-12T11:23:05Z</time>
      </trkpt>
      <trkpt lat="44.77699" lon="6.32702">
        <ele>2055.6</ele>
        <time>2024-08-12T11:23:06Z</time>
      </trkpt>
      <trkpt lat="44.77699" lon="6.32702">
        <ele>2055.8</ele>
        <time>2024-08-12T11:23:07Z</time>
      </trkpt>
      <trkpt lat="44.77699" lon="6.32702">
        <ele>2056</ele>
        <time>2024-08-12T11:23:08Z</time>
      </trkpt>
      <trkpt lat="44.77699" lon="6.32699">
        <ele>2056.2</ele>
        <time>2024-08-12T11:23:09Z</time>
      </trkpt>
      <trkpt lat="44.77699" lon="6.32699">
        <ele>2056.2</ele>
        <time>2024-08-12T11:23:10Z</time>
      </trkpt>
      <trkpt lat="44.77699" lon="6.32699">
        <ele>2056.4</ele>
        <time>2024-08-12T11:23:11Z</time>
      </trkpt>
      <trkpt lat="44.777" lon="6.32695">
        <ele>2056.6</ele>
        <time>2024-08-12T11:23:12Z</time>
      </trkpt>
      <trkpt lat="44.777" lon="6.32695">
        <ele>2056.6</ele>
        <time>2024-08-12T11:23:13Z</time>
      </trkpt>
      <trkpt lat="44.777" lon="6.32692">
        <ele>2056.6</ele>
        <time>2024-08-12T11:23:14Z</time>
      </trkpt>
      <trkpt lat="44.777" lon="6.32692">
        <ele>2056.6</ele>
        <time>2024-08-12T11:23:15Z</time>
      </trkpt>
      <trkpt lat="44.77701" lon="6.32689">
        <ele>2057</ele>
        <time>2024-08-12T11:23:16Z</time>
      </trkpt>
      <trkpt lat="44.77701" lon="6.32689">
        <ele>2057.2</ele>
        <time>2024-08-12T11:23:17Z</time>
      </trkpt>
      <trkpt lat="44.77701" lon="6.32686">
        <ele>2057.2</ele>
        <time>2024-08-12T11:23:18Z</time>
      </trkpt>
      <trkpt lat="44.77701" lon="6.32686">
        <ele>2057.2</ele>
        <time>2024-08-12T11:23:19Z</time>
      </trkpt>
      <trkpt lat="44.77701" lon="6.32686">
        <ele>2057.2</ele>
        <time>2024-08-12T11:23:20Z</time>
      </trkpt>
      <trkpt lat="44.77701" lon="6.32683">
        <ele>2057.6</ele>
        <time>2024-08-12T11:23:21Z</time>
      </trkpt>
      <trkpt lat="44.77701" lon="6.32683">
        <ele>2057.6</ele>
        <time>2024-08-12T11:23:22Z</time>
      </trkpt>
      <trkpt lat="44.77701" lon="6.32683">
        <ele>2057.8</ele>
        <time>2024-08-12T11:23:23Z</time>
      </trkpt>
      <trkpt lat="44.77701" lon="6.32683">
        <ele>2057.8</ele>
        <time>2024-08-12T11:23:24Z</time>
      </trkpt>
      <trkpt lat="44.77701" lon="6.3268">
        <ele>2057.8</ele>
        <time>2024-08-12T11:23:25Z</time>
      </trkpt>
      <trkpt lat="44.77701" lon="6.3268">
        <ele>2058.4</ele>
        <time>2024-08-12T11:23:26Z</time>
      </trkpt>
      <trkpt lat="44.77701" lon="6.3268">
        <ele>2058.4</ele>
        <time>2024-08-12T11:23:27Z</time>
      </trkpt>
      <trkpt lat="44.77701" lon="6.3268">
        <ele>2058.6</ele>
        <time>2024-08-12T11:23:28Z</time>
      </trkpt>
      <trkpt lat="44.77701" lon="6.3268">
        <ele>2058.8</ele>
        <time>2024-08-12T11:23:29Z</time>
      </trkpt>
      <trkpt lat="44.77701" lon="6.3268">
        <ele>2058.8</ele>
        <time>2024-08-12T11:23:30Z</time>
      </trkpt>
      <trkpt lat="44.77701" lon="6.3268">
        <ele>2058.8</ele>
        <time>2024-08-12T11:23:31Z</time>
      </trkpt>
      <trkpt lat="44.77701" lon="6.3268">
        <ele>2058.8</ele>
        <time>2024-08-12T11:23:32Z</time>
      </trkpt>
      <trkpt lat="44.77701" lon="6.3268">
        <ele>2058.8</ele>
        <time>2024-08-12T11:23:33Z</time>
      </trkpt>
      <trkpt lat="44.77701" lon="6.3268">
        <ele>2058.8</ele>
        <time>2024-08-12T11:23:34Z</time>
      </trkpt>
      <trkpt lat="44.77701" lon="6.3268">
        <ele>2058.6</ele>
        <time>2024-08-12T11:23:35Z</time>
      </trkpt>
      <trkpt lat="44.77701" lon="6.32677">
        <ele>2058.8</ele>
        <time>2024-08-12T11:23:36Z</time>
      </trkpt>
      <trkpt lat="44.77701" lon="6.32677">
        <ele>2058.8</ele>
        <time>2024-08-12T11:23:37Z</time>
      </trkpt>
      <trkpt lat="44.777" lon="6.32673">
        <ele>2059.2</ele>
        <time>2024-08-12T11:23:38Z</time>
      </trkpt>
      <trkpt lat="44.777" lon="6.32673">
        <ele>2059.2</ele>
        <time>2024-08-12T11:23:39Z</time>
      </trkpt>
      <trkpt lat="44.777" lon="6.32669">
        <ele>2059.2</ele>
        <time>2024-08-12T11:23:40Z</time>
      </trkpt>
      <trkpt lat="44.777" lon="6.32669">
        <ele>2059.4</ele>
        <time>2024-08-12T11:23:41Z</time>
      </trkpt>
      <trkpt lat="44.77701" lon="6.32666">
        <ele>2059.4</ele>
        <time>2024-08-12T11:23:42Z</time>
      </trkpt>
      <trkpt lat="44.77701" lon="6.32666">
        <ele>2059.4</ele>
        <time>2024-08-12T11:23:43Z</time>
      </trkpt>
      <trkpt lat="44.77701" lon="6.32666">
        <ele>2059.6</ele>
        <time>2024-08-12T11:23:44Z</time>
      </trkpt>
      <trkpt lat="44.77701" lon="6.32663">
        <ele>2059.8</ele>
        <time>2024-08-12T11:23:45Z</time>
      </trkpt>
      <trkpt lat="44.77701" lon="6.32663">
        <ele>2060.2</ele>
        <time>2024-08-12T11:23:46Z</time>
      </trkpt>
      <trkpt lat="44.77701" lon="6.32663">
        <ele>2060.4</ele>
        <time>2024-08-12T11:23:47Z</time>
      </trkpt>
      <trkpt lat="44.777" lon="6.32659">
        <ele>2060.8</ele>
        <time>2024-08-12T11:23:48Z</time>
      </trkpt>
      <trkpt lat="44.777" lon="6.32659">
        <ele>2060.8</ele>
        <time>2024-08-12T11:23:49Z</time>
      </trkpt>
      <trkpt lat="44.777" lon="6.32659">
        <ele>2061</ele>
        <time>2024-08-12T11:23:50Z</time>
      </trkpt>
      <trkpt lat="44.777" lon="6.32656">
        <ele>2061</ele>
        <time>2024-08-12T11:23:51Z</time>
      </trkpt>
      <trkpt lat="44.777" lon="6.32656">
        <ele>2061</ele>
        <time>2024-08-12T11:23:52Z</time>
      </trkpt>
      <trkpt lat="44.777" lon="6.32656">
        <ele>2061</ele>
        <time>2024-08-12T11:23:53Z</time>
      </trkpt>
      <trkpt lat="44.77701" lon="6.32652">
        <ele>2061.4</ele>
        <time>2024-08-12T11:23:54Z</time>
      </trkpt>
      <trkpt lat="44.77701" lon="6.32652">
        <ele>2061.4</ele>
        <time>2024-08-12T11:23:55Z</time>
      </trkpt>
      <trkpt lat="44.77701" lon="6.32652">
        <ele>2061.6</ele>
        <time>2024-08-12T11:23:56Z</time>
      </trkpt>
      <trkpt lat="44.77702" lon="6.32649">
        <ele>2061.8</ele>
        <time>2024-08-12T11:23:57Z</time>
      </trkpt>
      <trkpt lat="44.77702" lon="6.32649">
        <ele>2062</ele>
        <time>2024-08-12T11:23:58Z</time>
      </trkpt>
      <trkpt lat="44.77702" lon="6.32649">
        <ele>2062</ele>
        <time>2024-08-12T11:23:59Z</time>
      </trkpt>
      <trkpt lat="44.77703" lon="6.32646">
        <ele>2062.2</ele>
        <time>2024-08-12T11:24:00Z</time>
      </trkpt>
      <trkpt lat="44.77703" lon="6.32646">
        <ele>2062.4</ele>
        <time>2024-08-12T11:24:01Z</time>
      </trkpt>
      <trkpt lat="44.77703" lon="6.32646">
        <ele>2063.2</ele>
        <time>2024-08-12T11:24:02Z</time>
      </trkpt>
      <trkpt lat="44.77704" lon="6.32643">
        <ele>2063.2</ele>
        <time>2024-08-12T11:24:03Z</time>
      </trkpt>
      <trkpt lat="44.77704" lon="6.32643">
        <ele>2063.2</ele>
        <time>2024-08-12T11:24:04Z</time>
      </trkpt>
      <trkpt lat="44.77704" lon="6.32643">
        <ele>2063.2</ele>
        <time>2024-08-12T11:24:05Z</time>
      </trkpt>
      <trkpt lat="44.77704" lon="6.32639">
        <ele>2063.2</ele>
        <time>2024-08-12T11:24:06Z</time>
      </trkpt>
      <trkpt lat="44.77704" lon="6.32639">
        <ele>2063.2</ele>
        <time>2024-08-12T11:24:07Z</time>
      </trkpt>
      <trkpt lat="44.77704" lon="6.32639">
        <ele>2063.2</ele>
        <time>2024-08-12T11:24:08Z</time>
      </trkpt>
      <trkpt lat="44.77705" lon="6.32636">
        <ele>2063.4</ele>
        <time>2024-08-12T11:24:09Z</time>
      </trkpt>
      <trkpt lat="44.77705" lon="6.32636">
        <ele>2063.6</ele>
        <time>2024-08-12T11:24:10Z</time>
      </trkpt>
      <trkpt lat="44.77705" lon="6.32633">
        <ele>2063.6</ele>
        <time>2024-08-12T11:24:11Z</time>
      </trkpt>
      <trkpt lat="44.77705" lon="6.32633">
        <ele>2063.6</ele>
        <time>2024-08-12T11:24:12Z</time>
      </trkpt>
      <trkpt lat="44.77705" lon="6.32633">
        <ele>2063.6</ele>
        <time>2024-08-12T11:24:13Z</time>
      </trkpt>
      <trkpt lat="44.77706" lon="6.3263">
        <ele>2063.8</ele>
        <time>2024-08-12T11:24:14Z</time>
      </trkpt>
      <trkpt lat="44.77706" lon="6.3263">
        <ele>2064.4</ele>
        <time>2024-08-12T11:24:15Z</time>
      </trkpt>
      <trkpt lat="44.77706" lon="6.3263">
        <ele>2064.4</ele>
        <time>2024-08-12T11:24:16Z</time>
      </trkpt>
      <trkpt lat="44.77707" lon="6.32626">
        <ele>2064.4</ele>
        <time>2024-08-12T11:24:17Z</time>
      </trkpt>
      <trkpt lat="44.77707" lon="6.32626">
        <ele>2064.8</ele>
        <time>2024-08-12T11:24:18Z</time>
      </trkpt>
      <trkpt lat="44.77708" lon="6.32624">
        <ele>2065.2</ele>
        <time>2024-08-12T11:24:19Z</time>
      </trkpt>
      <trkpt lat="44.77708" lon="6.32624">
        <ele>2065.6</ele>
        <time>2024-08-12T11:24:20Z</time>
      </trkpt>
      <trkpt lat="44.77708" lon="6.32624">
        <ele>2065.6</ele>
        <time>2024-08-12T11:24:21Z</time>
      </trkpt>
      <trkpt lat="44.77709" lon="6.32621">
        <ele>2065.6</ele>
        <time>2024-08-12T11:24:22Z</time>
      </trkpt>
      <trkpt lat="44.77709" lon="6.32621">
        <ele>2065.4</ele>
        <time>2024-08-12T11:24:23Z</time>
      </trkpt>
      <trkpt lat="44.77709" lon="6.32621">
        <ele>2065.4</ele>
        <time>2024-08-12T11:24:24Z</time>
      </trkpt>
      <trkpt lat="44.77711" lon="6.32619">
        <ele>2065.8</ele>
        <time>2024-08-12T11:24:25Z</time>
      </trkpt>
      <trkpt lat="44.77711" lon="6.32619">
        <ele>2065.8</ele>
        <time>2024-08-12T11:24:26Z</time>
      </trkpt>
      <trkpt lat="44.77711" lon="6.32619">
        <ele>2065.8</ele>
        <time>2024-08-12T11:24:27Z</time>
      </trkpt>
      <trkpt lat="44.77711" lon="6.32619">
        <ele>2065.6</ele>
        <time>2024-08-12T11:24:28Z</time>
      </trkpt>
      <trkpt lat="44.77711" lon="6.32619">
        <ele>2065.6</ele>
        <time>2024-08-12T11:24:29Z</time>
      </trkpt>
      <trkpt lat="44.77712" lon="6.32616">
        <ele>2065.8</ele>
        <time>2024-08-12T11:24:30Z</time>
      </trkpt>
      <trkpt lat="44.77712" lon="6.32616">
        <ele>2066</ele>
        <time>2024-08-12T11:24:31Z</time>
      </trkpt>
      <trkpt lat="44.77712" lon="6.32616">
        <ele>2066.2</ele>
        <time>2024-08-12T11:24:32Z</time>
      </trkpt>
      <trkpt lat="44.77712" lon="6.32616">
        <ele>2066.6</ele>
        <time>2024-08-12T11:24:33Z</time>
      </trkpt>
      <trkpt lat="44.77713" lon="6.32613">
        <ele>2066.6</ele>
        <time>2024-08-12T11:24:34Z</time>
      </trkpt>
      <trkpt lat="44.77713" lon="6.32613">
        <ele>2066.2</ele>
        <time>2024-08-12T11:24:35Z</time>
      </trkpt>
      <trkpt lat="44.77713" lon="6.32613">
        <ele>2066.2</ele>
        <time>2024-08-12T11:24:36Z</time>
      </trkpt>
      <trkpt lat="44.77714" lon="6.32611">
        <ele>2066.4</ele>
        <time>2024-08-12T11:24:37Z</time>
      </trkpt>
      <trkpt lat="44.77714" lon="6.32611">
        <ele>2066.4</ele>
        <time>2024-08-12T11:24:38Z</time>
      </trkpt>
      <trkpt lat="44.77714" lon="6.32611">
        <ele>2066.6</ele>
        <time>2024-08-12T11:24:39Z</time>
      </trkpt>
      <trkpt lat="44.77714" lon="6.32611">
        <ele>2067</ele>
        <time>2024-08-12T11:24:40Z</time>
      </trkpt>
      <trkpt lat="44.77714" lon="6.32608">
        <ele>2067.6</ele>
        <time>2024-08-12T11:24:41Z</time>
      </trkpt>
      <trkpt lat="44.77714" lon="6.32608">
        <ele>2067.6</ele>
        <time>2024-08-12T11:24:42Z</time>
      </trkpt>
      <trkpt lat="44.77714" lon="6.32608">
        <ele>2067.6</ele>
        <time>2024-08-12T11:24:43Z</time>
      </trkpt>
      <trkpt lat="44.77714" lon="6.32605">
        <ele>2067.6</ele>
        <time>2024-08-12T11:24:44Z</time>
      </trkpt>
      <trkpt lat="44.77714" lon="6.32605">
        <ele>2067.6</ele>
        <time>2024-08-12T11:24:45Z</time>
      </trkpt>
      <trkpt lat="44.77714" lon="6.32605">
        <ele>2067.8</ele>
        <time>2024-08-12T11:24:46Z</time>
      </trkpt>
      <trkpt lat="44.77713" lon="6.32602">
        <ele>2067.8</ele>
        <time>2024-08-12T11:24:47Z</time>
      </trkpt>
      <trkpt lat="44.77713" lon="6.32602">
        <ele>2068.2</ele>
        <time>2024-08-12T11:24:48Z</time>
      </trkpt>
      <trkpt lat="44.77713" lon="6.32602">
        <ele>2068.4</ele>
        <time>2024-08-12T11:24:49Z</time>
      </trkpt>
      <trkpt lat="44.77711" lon="6.326">
        <ele>2068.4</ele>
        <time>2024-08-12T11:24:50Z</time>
      </trkpt>
      <trkpt lat="44.77711" lon="6.326">
        <ele>2068.4</ele>
        <time>2024-08-12T11:24:51Z</time>
      </trkpt>
      <trkpt lat="44.77711" lon="6.326">
        <ele>2068.6</ele>
        <time>2024-08-12T11:24:52Z</time>
      </trkpt>
      <trkpt lat="44.77709" lon="6.32598">
        <ele>2069</ele>
        <time>2024-08-12T11:24:53Z</time>
      </trkpt>
      <trkpt lat="44.77709" lon="6.32598">
        <ele>2069</ele>
        <time>2024-08-12T11:24:54Z</time>
      </trkpt>
      <trkpt lat="44.77709" lon="6.32598">
        <ele>2069</ele>
        <time>2024-08-12T11:24:55Z</time>
      </trkpt>
      <trkpt lat="44.77708" lon="6.32596">
        <ele>2069.2</ele>
        <time>2024-08-12T11:24:56Z</time>
      </trkpt>
      <trkpt lat="44.77708" lon="6.32596">
        <ele>2069.4</ele>
        <time>2024-08-12T11:24:57Z</time>
      </trkpt>
      <trkpt lat="44.77707" lon="6.32595">
        <ele>2069.4</ele>
        <time>2024-08-12T11:24:58Z</time>
      </trkpt>
      <trkpt lat="44.77707" lon="6.32595">
        <ele>2069.4</ele>
        <time>2024-08-12T11:24:59Z</time>
      </trkpt>
      <trkpt lat="44.77705" lon="6.32594">
        <ele>2069.4</ele>
        <time>2024-08-12T11:25:00Z</time>
      </trkpt>
      <trkpt lat="44.77705" lon="6.32594">
        <ele>2070</ele>
        <time>2024-08-12T11:25:01Z</time>
      </trkpt>
      <trkpt lat="44.77703" lon="6.32592">
        <ele>2070.2</ele>
        <time>2024-08-12T11:25:02Z</time>
      </trkpt>
      <trkpt lat="44.77703" lon="6.32592">
        <ele>2070.2</ele>
        <time>2024-08-12T11:25:03Z</time>
      </trkpt>
      <trkpt lat="44.77703" lon="6.32592">
        <ele>2070.2</ele>
        <time>2024-08-12T11:25:04Z</time>
      </trkpt>
      <trkpt lat="44.77701" lon="6.3259">
        <ele>2070.4</ele>
        <time>2024-08-12T11:25:05Z</time>
      </trkpt>
      <trkpt lat="44.77701" lon="6.3259">
        <ele>2070.6</ele>
        <time>2024-08-12T11:25:06Z</time>
      </trkpt>
      <trkpt lat="44.77699" lon="6.32589">
        <ele>2070.8</ele>
        <time>2024-08-12T11:25:07Z</time>
      </trkpt>
      <trkpt lat="44.77699" lon="6.32589">
        <ele>2071</ele>
        <time>2024-08-12T11:25:08Z</time>
      </trkpt>
      <trkpt lat="44.77699" lon="6.32589">
        <ele>2071</ele>
        <time>2024-08-12T11:25:09Z</time>
      </trkpt>
      <trkpt lat="44.77697" lon="6.32588">
        <ele>2071</ele>
        <time>2024-08-12T11:25:10Z</time>
      </trkpt>
      <trkpt lat="44.77697" lon="6.32588">
        <ele>2071.4</ele>
        <time>2024-08-12T11:25:11Z</time>
      </trkpt>
      <trkpt lat="44.77695" lon="6.32586">
        <ele>2071.6</ele>
        <time>2024-08-12T11:25:12Z</time>
      </trkpt>
      <trkpt lat="44.77695" lon="6.32586">
        <ele>2072</ele>
        <time>2024-08-12T11:25:13Z</time>
      </trkpt>
      <trkpt lat="44.77695" lon="6.32586">
        <ele>2072</ele>
        <time>2024-08-12T11:25:14Z</time>
      </trkpt>
      <trkpt lat="44.77693" lon="6.32584">
        <ele>2072.4</ele>
        <time>2024-08-12T11:25:15Z</time>
      </trkpt>
      <trkpt lat="44.77693" lon="6.32584">
        <ele>2072.4</ele>
        <time>2024-08-12T11:25:16Z</time>
      </trkpt>
      <trkpt lat="44.77692" lon="6.32582">
        <ele>2072.4</ele>
        <time>2024-08-12T11:25:17Z</time>
      </trkpt>
      <trkpt lat="44.77692" lon="6.32582">
        <ele>2072.4</ele>
        <time>2024-08-12T11:25:18Z</time>
      </trkpt>
      <trkpt lat="44.7769" lon="6.3258">
        <ele>2072.4</ele>
        <time>2024-08-12T11:25:19Z</time>
      </trkpt>
      <trkpt lat="44.7769" lon="6.3258">
        <ele>2072.6</ele>
        <time>2024-08-12T11:25:20Z</time>
      </trkpt>
      <trkpt lat="44.77689" lon="6.32578">
        <ele>2072.8</ele>
        <time>2024-08-12T11:25:21Z</time>
      </trkpt>
      <trkpt lat="44.77689" lon="6.32578">
        <ele>2073.2</ele>
        <time>2024-08-12T11:25:22Z</time>
      </trkpt>
      <trkpt lat="44.77689" lon="6.32578">
        <ele>2073.6</ele>
        <time>2024-08-12T11:25:23Z</time>
      </trkpt>
      <trkpt lat="44.77688" lon="6.32575">
        <ele>2073.6</ele>
        <time>2024-08-12T11:25:24Z</time>
      </trkpt>
      <trkpt lat="44.77688" lon="6.32575">
        <ele>2073.8</ele>
        <time>2024-08-12T11:25:25Z</time>
      </trkpt>
      <trkpt lat="44.77688" lon="6.32575">
        <ele>2074</ele>
        <time>2024-08-12T11:25:26Z</time>
      </trkpt>
      <trkpt lat="44.77686" lon="6.32572">
        <ele>2074.2</ele>
        <time>2024-08-12T11:25:27Z</time>
      </trkpt>
      <trkpt lat="44.77686" lon="6.32572">
        <ele>2074.4</ele>
        <time>2024-08-12T11:25:28Z</time>
      </trkpt>
      <trkpt lat="44.77686" lon="6.32572">
        <ele>2074.6</ele>
        <time>2024-08-12T11:25:29Z</time>
      </trkpt>
      <trkpt lat="44.77685" lon="6.32569">
        <ele>2074.8</ele>
        <time>2024-08-12T11:25:30Z</time>
      </trkpt>
      <trkpt lat="44.77685" lon="6.32569">
        <ele>2074.8</ele>
        <time>2024-08-12T11:25:31Z</time>
      </trkpt>
      <trkpt lat="44.77685" lon="6.32569">
        <ele>2074.8</ele>
        <time>2024-08-12T11:25:32Z</time>
      </trkpt>
      <trkpt lat="44.77684" lon="6.32566">
        <ele>2075.2</ele>
        <time>2024-08-12T11:25:33Z</time>
      </trkpt>
      <trkpt lat="44.77684" lon="6.32566">
        <ele>2075.4</ele>
        <time>2024-08-12T11:25:34Z</time>
      </trkpt>
      <trkpt lat="44.77684" lon="6.32566">
        <ele>2075.4</ele>
        <time>2024-08-12T11:25:35Z</time>
      </trkpt>
      <trkpt lat="44.77683" lon="6.32564">
        <ele>2075.4</ele>
        <time>2024-08-12T11:25:36Z</time>
      </trkpt>
      <trkpt lat="44.77683" lon="6.32564">
        <ele>2075.8</ele>
        <time>2024-08-12T11:25:37Z</time>
      </trkpt>
      <trkpt lat="44.77683" lon="6.32561">
        <ele>2075.8</ele>
        <time>2024-08-12T11:25:38Z</time>
      </trkpt>
      <trkpt lat="44.77683" lon="6.32561">
        <ele>2076</ele>
        <time>2024-08-12T11:25:39Z</time>
      </trkpt>
      <trkpt lat="44.77683" lon="6.32561">
        <ele>2076</ele>
        <time>2024-08-12T11:25:40Z</time>
      </trkpt>
      <trkpt lat="44.77685" lon="6.32561">
        <ele>2076.2</ele>
        <time>2024-08-12T11:25:41Z</time>
      </trkpt>
      <trkpt lat="44.77685" lon="6.32561">
        <ele>2076.2</ele>
        <time>2024-08-12T11:25:42Z</time>
      </trkpt>
      <trkpt lat="44.77686" lon="6.32563">
        <ele>2076.4</ele>
        <time>2024-08-12T11:25:43Z</time>
      </trkpt>
      <trkpt lat="44.77686" lon="6.32563">
        <ele>2076.6</ele>
        <time>2024-08-12T11:25:44Z</time>
      </trkpt>
      <trkpt lat="44.77686" lon="6.32563">
        <ele>2076.6</ele>
        <time>2024-08-12T11:25:45Z</time>
      </trkpt>
      <trkpt lat="44.77686" lon="6.32563">
        <ele>2076.6</ele>
        <time>2024-08-12T11:25:46Z</time>
      </trkpt>
      <trkpt lat="44.77688" lon="6.32563">
        <ele>2076.6</ele>
        <time>2024-08-12T11:25:47Z</time>
      </trkpt>
      <trkpt lat="44.77688" lon="6.32563">
        <ele>2077.4</ele>
        <time>2024-08-12T11:25:48Z</time>
      </trkpt>
      <trkpt lat="44.77688" lon="6.32563">
        <ele>2077.4</ele>
        <time>2024-08-12T11:25:49Z</time>
      </trkpt>
      <trkpt lat="44.77688" lon="6.32563">
        <ele>2077.6</ele>
        <time>2024-08-12T11:25:50Z</time>
      </trkpt>
      <trkpt lat="44.77688" lon="6.32563">
        <ele>2077.8</ele>
        <time>2024-08-12T11:25:51Z</time>
      </trkpt>
      <trkpt lat="44.77688" lon="6.32563">
        <ele>2078</ele>
        <time>2024-08-12T11:25:52Z</time>
      </trkpt>
      <trkpt lat="44.77688" lon="6.32563">
        <ele>2078</ele>
        <time>2024-08-12T11:25:53Z</time>
      </trkpt>
      <trkpt lat="44.77688" lon="6.32563">
        <ele>2078.2</ele>
        <time>2024-08-12T11:25:54Z</time>
      </trkpt>
      <trkpt lat="44.77691" lon="6.32565">
        <ele>2078.4</ele>
        <time>2024-08-12T11:25:55Z</time>
      </trkpt>
      <trkpt lat="44.77691" lon="6.32565">
        <ele>2078.4</ele>
        <time>2024-08-12T11:25:56Z</time>
      </trkpt>
      <trkpt lat="44.77693" lon="6.32565">
        <ele>2078.6</ele>
        <time>2024-08-12T11:25:57Z</time>
      </trkpt>
      <trkpt lat="44.77695" lon="6.32565">
        <ele>2079</ele>
        <time>2024-08-12T11:25:58Z</time>
      </trkpt>
      <trkpt lat="44.77695" lon="6.32565">
        <ele>2079</ele>
        <time>2024-08-12T11:25:59Z</time>
      </trkpt>
      <trkpt lat="44.77698" lon="6.32566">
        <ele>2079</ele>
        <time>2024-08-12T11:26:00Z</time>
      </trkpt>
      <trkpt lat="44.77698" lon="6.32566">
        <ele>2079.2</ele>
        <time>2024-08-12T11:26:01Z</time>
      </trkpt>
      <trkpt lat="44.77698" lon="6.32566">
        <ele>2079.4</ele>
        <time>2024-08-12T11:26:02Z</time>
      </trkpt>
      <trkpt lat="44.77701" lon="6.32565">
        <ele>2079.4</ele>
        <time>2024-08-12T11:26:03Z</time>
      </trkpt>
      <trkpt lat="44.77701" lon="6.32565">
        <ele>2079.8</ele>
        <time>2024-08-12T11:26:04Z</time>
      </trkpt>
      <trkpt lat="44.77701" lon="6.32565">
        <ele>2080</ele>
        <time>2024-08-12T11:26:05Z</time>
      </trkpt>
      <trkpt lat="44.77703" lon="6.32564">
        <ele>2080</ele>
        <time>2024-08-12T11:26:06Z</time>
      </trkpt>
      <trkpt lat="44.77703" lon="6.32564">
        <ele>2080.2</ele>
        <time>2024-08-12T11:26:07Z</time>
      </trkpt>
      <trkpt lat="44.77705" lon="6.32564">
        <ele>2080.4</ele>
        <time>2024-08-12T11:26:08Z</time>
      </trkpt>
      <trkpt lat="44.77705" lon="6.32564">
        <ele>2080.4</ele>
        <time>2024-08-12T11:26:09Z</time>
      </trkpt>
      <trkpt lat="44.77705" lon="6.32564">
        <ele>2080.8</ele>
        <time>2024-08-12T11:26:10Z</time>
      </trkpt>
      <trkpt lat="44.77708" lon="6.32563">
        <ele>2081.2</ele>
        <time>2024-08-12T11:26:11Z</time>
      </trkpt>
      <trkpt lat="44.77708" lon="6.32563">
        <ele>2081.4</ele>
        <time>2024-08-12T11:26:12Z</time>
      </trkpt>
      <trkpt lat="44.77708" lon="6.32563">
        <ele>2081.6</ele>
        <time>2024-08-12T11:26:13Z</time>
      </trkpt>
      <trkpt lat="44.7771" lon="6.32562">
        <ele>2081.6</ele>
        <time>2024-08-12T11:26:14Z</time>
      </trkpt>
      <trkpt lat="44.7771" lon="6.32562">
        <ele>2081.6</ele>
        <time>2024-08-12T11:26:15Z</time>
      </trkpt>
      <trkpt lat="44.7771" lon="6.32562">
        <ele>2082</ele>
        <time>2024-08-12T11:26:16Z</time>
      </trkpt>
      <trkpt lat="44.77713" lon="6.32562">
        <ele>2082</ele>
        <time>2024-08-12T11:26:17Z</time>
      </trkpt>
      <trkpt lat="44.77713" lon="6.32562">
        <ele>2082</ele>
        <time>2024-08-12T11:26:18Z</time>
      </trkpt>
      <trkpt lat="44.77713" lon="6.32562">
        <ele>2082</ele>
        <time>2024-08-12T11:26:19Z</time>
      </trkpt>
      <trkpt lat="44.77713" lon="6.32562">
        <ele>2082.2</ele>
        <time>2024-08-12T11:26:20Z</time>
      </trkpt>
      <trkpt lat="44.77713" lon="6.32562">
        <ele>2082.6</ele>
        <time>2024-08-12T11:26:21Z</time>
      </trkpt>
      <trkpt lat="44.77711" lon="6.3256">
        <ele>2082.8</ele>
        <time>2024-08-12T11:26:22Z</time>
      </trkpt>
      <trkpt lat="44.77711" lon="6.3256">
        <ele>2083</ele>
        <time>2024-08-12T11:26:23Z</time>
      </trkpt>
      <trkpt lat="44.77711" lon="6.3256">
        <ele>2083</ele>
        <time>2024-08-12T11:26:24Z</time>
      </trkpt>
      <trkpt lat="44.77711" lon="6.3256">
        <ele>2083</ele>
        <time>2024-08-12T11:26:25Z</time>
      </trkpt>
      <trkpt lat="44.77709" lon="6.32559">
        <ele>2083.4</ele>
        <time>2024-08-12T11:26:26Z</time>
      </trkpt>
      <trkpt lat="44.77709" lon="6.32559">
        <ele>2083.4</ele>
        <time>2024-08-12T11:26:27Z</time>
      </trkpt>
      <trkpt lat="44.77709" lon="6.32559">
        <ele>2083.4</ele>
        <time>2024-08-12T11:26:28Z</time>
      </trkpt>
      <trkpt lat="44.77709" lon="6.32559">
        <ele>2083.8</ele>
        <time>2024-08-12T11:26:29Z</time>
      </trkpt>
      <trkpt lat="44.77709" lon="6.32559">
        <ele>2084.2</ele>
        <time>2024-08-12T11:26:30Z</time>
      </trkpt>
      <trkpt lat="44.77709" lon="6.32559">
        <ele>2084.4</ele>
        <time>2024-08-12T11:26:31Z</time>
      </trkpt>
      <trkpt lat="44.77709" lon="6.32559">
        <ele>2084.4</ele>
        <time>2024-08-12T11:26:32Z</time>
      </trkpt>
      <trkpt lat="44.77709" lon="6.32559">
        <ele>2085.4</ele>
        <time>2024-08-12T11:26:33Z</time>
      </trkpt>
      <trkpt lat="44.77707" lon="6.32557">
        <ele>2085.6</ele>
        <time>2024-08-12T11:26:34Z</time>
      </trkpt>
      <trkpt lat="44.77707" lon="6.32557">
        <ele>2085.6</ele>
        <time>2024-08-12T11:26:35Z</time>
      </trkpt>
      <trkpt lat="44.77705" lon="6.32556">
        <ele>2085.6</ele>
        <time>2024-08-12T11:26:36Z</time>
      </trkpt>
      <trkpt lat="44.77705" lon="6.32556">
        <ele>2085.8</ele>
        <time>2024-08-12T11:26:37Z</time>
      </trkpt>
      <trkpt lat="44.77702" lon="6.32553">
        <ele>2086.2</ele>
        <time>2024-08-12T11:26:38Z</time>
      </trkpt>
      <trkpt lat="44.77702" lon="6.32553">
        <ele>2086.4</ele>
        <time>2024-08-12T11:26:39Z</time>
      </trkpt>
      <trkpt lat="44.777" lon="6.32551">
        <ele>2086.6</ele>
        <time>2024-08-12T11:26:40Z</time>
      </trkpt>
      <trkpt lat="44.777" lon="6.32551">
        <ele>2086.6</ele>
        <time>2024-08-12T11:26:41Z</time>
      </trkpt>
      <trkpt lat="44.77697" lon="6.3255">
        <ele>2086.6</ele>
        <time>2024-08-12T11:26:42Z</time>
      </trkpt>
      <trkpt lat="44.77697" lon="6.3255">
        <ele>2086.8</ele>
        <time>2024-08-12T11:26:43Z</time>
      </trkpt>
      <trkpt lat="44.77695" lon="6.32548">
        <ele>2087.4</ele>
        <time>2024-08-12T11:26:44Z</time>
      </trkpt>
      <trkpt lat="44.77695" lon="6.32548">
        <ele>2087.6</ele>
        <time>2024-08-12T11:26:45Z</time>
      </trkpt>
      <trkpt lat="44.77695" lon="6.32548">
        <ele>2087.6</ele>
        <time>2024-08-12T11:26:46Z</time>
      </trkpt>
      <trkpt lat="44.77693" lon="6.32546">
        <ele>2087.6</ele>
        <time>2024-08-12T11:26:47Z</time>
      </trkpt>
      <trkpt lat="44.77693" lon="6.32546">
        <ele>2088</ele>
        <time>2024-08-12T11:26:48Z</time>
      </trkpt>
      <trkpt lat="44.77692" lon="6.32544">
        <ele>2088</ele>
        <time>2024-08-12T11:26:49Z</time>
      </trkpt>
      <trkpt lat="44.77692" lon="6.32544">
        <ele>2088.2</ele>
        <time>2024-08-12T11:26:50Z</time>
      </trkpt>
      <trkpt lat="44.77691" lon="6.3254">
        <ele>2088.4</ele>
        <time>2024-08-12T11:26:51Z</time>
      </trkpt>
      <trkpt lat="44.77691" lon="6.3254">
        <ele>2088.4</ele>
        <time>2024-08-12T11:26:52Z</time>
      </trkpt>
      <trkpt lat="44.77691" lon="6.32538">
        <ele>2088.4</ele>
        <time>2024-08-12T11:26:53Z</time>
      </trkpt>
      <trkpt lat="44.77691" lon="6.32538">
        <ele>2088.6</ele>
        <time>2024-08-12T11:26:54Z</time>
      </trkpt>
      <trkpt lat="44.7769" lon="6.32535">
        <ele>2088.8</ele>
        <time>2024-08-12T11:26:55Z</time>
      </trkpt>
      <trkpt lat="44.7769" lon="6.32535">
        <ele>2089</ele>
        <time>2024-08-12T11:26:56Z</time>
      </trkpt>
      <trkpt lat="44.77689" lon="6.32532">
        <ele>2089</ele>
        <time>2024-08-12T11:26:57Z</time>
      </trkpt>
      <trkpt lat="44.77689" lon="6.32532">
        <ele>2089</ele>
        <time>2024-08-12T11:26:58Z</time>
      </trkpt>
      <trkpt lat="44.77689" lon="6.3253">
        <ele>2089</ele>
        <time>2024-08-12T11:26:59Z</time>
      </trkpt>
      <trkpt lat="44.77689" lon="6.3253">
        <ele>2089.4</ele>
        <time>2024-08-12T11:27:00Z</time>
      </trkpt>
      <trkpt lat="44.77689" lon="6.32527">
        <ele>2089.4</ele>
        <time>2024-08-12T11:27:01Z</time>
      </trkpt>
      <trkpt lat="44.77689" lon="6.32527">
        <ele>2089.8</ele>
        <time>2024-08-12T11:27:02Z</time>
      </trkpt>
      <trkpt lat="44.77689" lon="6.32523">
        <ele>2089.8</ele>
        <time>2024-08-12T11:27:03Z</time>
      </trkpt>
      <trkpt lat="44.77689" lon="6.32523">
        <ele>2090</ele>
        <time>2024-08-12T11:27:04Z</time>
      </trkpt>
      <trkpt lat="44.77688" lon="6.3252">
        <ele>2090.2</ele>
        <time>2024-08-12T11:27:05Z</time>
      </trkpt>
      <trkpt lat="44.77688" lon="6.3252">
        <ele>2090.4</ele>
        <time>2024-08-12T11:27:06Z</time>
      </trkpt>
      <trkpt lat="44.77688" lon="6.3252">
        <ele>2090.6</ele>
        <time>2024-08-12T11:27:07Z</time>
      </trkpt>
      <trkpt lat="44.77688" lon="6.3252">
        <ele>2090.8</ele>
        <time>2024-08-12T11:27:08Z</time>
      </trkpt>
      <trkpt lat="44.77687" lon="6.32518">
        <ele>2091</ele>
        <time>2024-08-12T11:27:09Z</time>
      </trkpt>
      <trkpt lat="44.77687" lon="6.32518">
        <ele>2091</ele>
        <time>2024-08-12T11:27:10Z</time>
      </trkpt>
      <trkpt lat="44.77687" lon="6.32518">
        <ele>2091.2</ele>
        <time>2024-08-12T11:27:11Z</time>
      </trkpt>
      <trkpt lat="44.77687" lon="6.32518">
        <ele>2091.2</ele>
        <time>2024-08-12T11:27:12Z</time>
      </trkpt>
      <trkpt lat="44.77685" lon="6.32517">
        <ele>2091.2</ele>
        <time>2024-08-12T11:27:13Z</time>
      </trkpt>
      <trkpt lat="44.77685" lon="6.32517">
        <ele>2091.2</ele>
        <time>2024-08-12T11:27:14Z</time>
      </trkpt>
      <trkpt lat="44.77685" lon="6.32517">
        <ele>2091</ele>
        <time>2024-08-12T11:27:15Z</time>
      </trkpt>
      <trkpt lat="44.77683" lon="6.32516">
        <ele>2091</ele>
        <time>2024-08-12T11:27:16Z</time>
      </trkpt>
      <trkpt lat="44.77683" lon="6.32516">
        <ele>2091.2</ele>
        <time>2024-08-12T11:27:17Z</time>
      </trkpt>
      <trkpt lat="44.77683" lon="6.32516">
        <ele>2091.6</ele>
        <time>2024-08-12T11:27:18Z</time>
      </trkpt>
      <trkpt lat="44.77681" lon="6.32515">
        <ele>2091.6</ele>
        <time>2024-08-12T11:27:19Z</time>
      </trkpt>
      <trkpt lat="44.77681" lon="6.32515">
        <ele>2091.6</ele>
        <time>2024-08-12T11:27:20Z</time>
      </trkpt>
      <trkpt lat="44.77681" lon="6.32515">
        <ele>2091.8</ele>
        <time>2024-08-12T11:27:21Z</time>
      </trkpt>
      <trkpt lat="44.7768" lon="6.32513">
        <ele>2091.8</ele>
        <time>2024-08-12T11:27:22Z</time>
      </trkpt>
      <trkpt lat="44.7768" lon="6.32513">
        <ele>2091.8</ele>
        <time>2024-08-12T11:27:23Z</time>
      </trkpt>
      <trkpt lat="44.7768" lon="6.32513">
        <ele>2092</ele>
        <time>2024-08-12T11:27:24Z</time>
      </trkpt>
      <trkpt lat="44.7768" lon="6.32513">
        <ele>2092.4</ele>
        <time>2024-08-12T11:27:25Z</time>
      </trkpt>
      <trkpt lat="44.77677" lon="6.32511">
        <ele>2092.6</ele>
        <time>2024-08-12T11:27:26Z</time>
      </trkpt>
      <trkpt lat="44.77677" lon="6.32511">
        <ele>2092.6</ele>
        <time>2024-08-12T11:27:27Z</time>
      </trkpt>
      <trkpt lat="44.77676" lon="6.32511">
        <ele>2092.6</ele>
        <time>2024-08-12T11:27:28Z</time>
      </trkpt>
      <trkpt lat="44.77676" lon="6.32511">
        <ele>2092.6</ele>
        <time>2024-08-12T11:27:29Z</time>
      </trkpt>
      <trkpt lat="44.77673" lon="6.32511">
        <ele>2092.6</ele>
        <time>2024-08-12T11:27:30Z</time>
      </trkpt>
      <trkpt lat="44.77673" lon="6.32511">
        <ele>2092.6</ele>
        <time>2024-08-12T11:27:31Z</time>
      </trkpt>
      <trkpt lat="44.77671" lon="6.32512">
        <ele>2092.8</ele>
        <time>2024-08-12T11:27:32Z</time>
      </trkpt>
      <trkpt lat="44.77671" lon="6.32512">
        <ele>2093</ele>
        <time>2024-08-12T11:27:33Z</time>
      </trkpt>
      <trkpt lat="44.77669" lon="6.32512">
        <ele>2093</ele>
        <time>2024-08-12T11:27:34Z</time>
      </trkpt>
      <trkpt lat="44.77669" lon="6.32512">
        <ele>2093.2</ele>
        <time>2024-08-12T11:27:35Z</time>
      </trkpt>
      <trkpt lat="44.77667" lon="6.32513">
        <ele>2093.2</ele>
        <time>2024-08-12T11:27:36Z</time>
      </trkpt>
      <trkpt lat="44.77667" lon="6.32513">
        <ele>2093.4</ele>
        <time>2024-08-12T11:27:37Z</time>
      </trkpt>
      <trkpt lat="44.77665" lon="6.32513">
        <ele>2093.6</ele>
        <time>2024-08-12T11:27:38Z</time>
      </trkpt>
      <trkpt lat="44.77665" lon="6.32513">
        <ele>2093.8</ele>
        <time>2024-08-12T11:27:39Z</time>
      </trkpt>
      <trkpt lat="44.77663" lon="6.32515">
        <ele>2093.8</ele>
        <time>2024-08-12T11:27:40Z</time>
      </trkpt>
      <trkpt lat="44.77663" lon="6.32515">
        <ele>2094</ele>
        <time>2024-08-12T11:27:41Z</time>
      </trkpt>
      <trkpt lat="44.77663" lon="6.32515">
        <ele>2094.4</ele>
        <time>2024-08-12T11:27:42Z</time>
      </trkpt>
      <trkpt lat="44.77661" lon="6.32516">
        <ele>2094.4</ele>
        <time>2024-08-12T11:27:43Z</time>
      </trkpt>
      <trkpt lat="44.77661" lon="6.32516">
        <ele>2094.2</ele>
        <time>2024-08-12T11:27:44Z</time>
      </trkpt>
      <trkpt lat="44.77661" lon="6.32516">
        <ele>2094.2</ele>
        <time>2024-08-12T11:27:45Z</time>
      </trkpt>
      <trkpt lat="44.77658" lon="6.32518">
        <ele>2094.4</ele>
        <time>2024-08-12T11:27:46Z</time>
      </trkpt>
      <trkpt lat="44.77658" lon="6.32518">
        <ele>2094.8</ele>
        <time>2024-08-12T11:27:47Z</time>
      </trkpt>
      <trkpt lat="44.77655" lon="6.32519">
        <ele>2094.8</ele>
        <time>2024-08-12T11:27:48Z</time>
      </trkpt>
      <trkpt lat="44.77655" lon="6.32519">
        <ele>2094.8</ele>
        <time>2024-08-12T11:27:49Z</time>
      </trkpt>
      <trkpt lat="44.77655" lon="6.32519">
        <ele>2095</ele>
        <time>2024-08-12T11:27:50Z</time>
      </trkpt>
      <trkpt lat="44.77653" lon="6.3252">
        <ele>2095.4</ele>
        <time>2024-08-12T11:27:51Z</time>
      </trkpt>
      <trkpt lat="44.77653" lon="6.3252">
        <ele>2095.8</ele>
        <time>2024-08-12T11:27:52Z</time>
      </trkpt>
      <trkpt lat="44.77653" lon="6.3252">
        <ele>2096</ele>
        <time>2024-08-12T11:27:53Z</time>
      </trkpt>
      <trkpt lat="44.77651" lon="6.32521">
        <ele>2096.4</ele>
        <time>2024-08-12T11:27:54Z</time>
      </trkpt>
      <trkpt lat="44.77651" lon="6.32521">
        <ele>2097</ele>
        <time>2024-08-12T11:27:55Z</time>
      </trkpt>
      <trkpt lat="44.77651" lon="6.32521">
        <ele>2097</ele>
        <time>2024-08-12T11:27:56Z</time>
      </trkpt>
      <trkpt lat="44.77649" lon="6.32523">
        <ele>2097</ele>
        <time>2024-08-12T11:27:57Z</time>
      </trkpt>
      <trkpt lat="44.77649" lon="6.32523">
        <ele>2097.2</ele>
        <time>2024-08-12T11:27:58Z</time>
      </trkpt>
      <trkpt lat="44.77649" lon="6.32523">
        <ele>2097.2</ele>
        <time>2024-08-12T11:27:59Z</time>
      </trkpt>
      <trkpt lat="44.77647" lon="6.32522">
        <ele>2097.4</ele>
        <time>2024-08-12T11:28:00Z</time>
      </trkpt>
      <trkpt lat="44.77647" lon="6.32522">
        <ele>2097.6</ele>
        <time>2024-08-12T11:28:01Z</time>
      </trkpt>
      <trkpt lat="44.77647" lon="6.32522">
        <ele>2098.6</ele>
        <time>2024-08-12T11:28:02Z</time>
      </trkpt>
      <trkpt lat="44.77645" lon="6.32522">
        <ele>2098.6</ele>
        <time>2024-08-12T11:28:03Z</time>
      </trkpt>
      <trkpt lat="44.77645" lon="6.32522">
        <ele>2098.8</ele>
        <time>2024-08-12T11:28:04Z</time>
      </trkpt>
      <trkpt lat="44.77643" lon="6.32524">
        <ele>2098.8</ele>
        <time>2024-08-12T11:28:05Z</time>
      </trkpt>
      <trkpt lat="44.77643" lon="6.32524">
        <ele>2099.2</ele>
        <time>2024-08-12T11:28:06Z</time>
      </trkpt>
      <trkpt lat="44.77641" lon="6.32525">
        <ele>2099.4</ele>
        <time>2024-08-12T11:28:07Z</time>
      </trkpt>
      <trkpt lat="44.77641" lon="6.32525">
        <ele>2099.8</ele>
        <time>2024-08-12T11:28:08Z</time>
      </trkpt>
      <trkpt lat="44.77639" lon="6.32526">
        <ele>2099.8</ele>
        <time>2024-08-12T11:28:09Z</time>
      </trkpt>
      <trkpt lat="44.77639" lon="6.32526">
        <ele>2099.8</ele>
        <time>2024-08-12T11:28:10Z</time>
      </trkpt>
      <trkpt lat="44.77637" lon="6.32526">
        <ele>2099.8</ele>
        <time>2024-08-12T11:28:11Z</time>
      </trkpt>
      <trkpt lat="44.77637" lon="6.32526">
        <ele>2100</ele>
        <time>2024-08-12T11:28:12Z</time>
      </trkpt>
      <trkpt lat="44.77634" lon="6.32526">
        <ele>2100.4</ele>
        <time>2024-08-12T11:28:13Z</time>
      </trkpt>
      <trkpt lat="44.77634" lon="6.32526">
        <ele>2100.4</ele>
        <time>2024-08-12T11:28:14Z</time>
      </trkpt>
      <trkpt lat="44.77634" lon="6.32526">
        <ele>2100.4</ele>
        <time>2024-08-12T11:28:15Z</time>
      </trkpt>
      <trkpt lat="44.77634" lon="6.32526">
        <ele>2100.4</ele>
        <time>2024-08-12T11:28:16Z</time>
      </trkpt>
      <trkpt lat="44.77634" lon="6.32526">
        <ele>2100.4</ele>
        <time>2024-08-12T11:28:17Z</time>
      </trkpt>
      <trkpt lat="44.77634" lon="6.32526">
        <ele>2100.4</ele>
        <time>2024-08-12T11:28:18Z</time>
      </trkpt>
      <trkpt lat="44.77634" lon="6.32526">
        <ele>2100.4</ele>
        <time>2024-08-12T11:28:19Z</time>
      </trkpt>
      <trkpt lat="44.77634" lon="6.32526">
        <ele>2100.4</ele>
        <time>2024-08-12T11:28:20Z</time>
      </trkpt>
      <trkpt lat="44.77634" lon="6.32526">
        <ele>2100.4</ele>
        <time>2024-08-12T11:28:21Z</time>
      </trkpt>
      <trkpt lat="44.77634" lon="6.32526">
        <ele>2100.4</ele>
        <time>2024-08-12T11:28:22Z</time>
      </trkpt>
      <trkpt lat="44.77634" lon="6.32526">
        <ele>2100.6</ele>
        <time>2024-08-12T11:28:23Z</time>
      </trkpt>
      <trkpt lat="44.77632" lon="6.32526">
        <ele>2101</ele>
        <time>2024-08-12T11:28:24Z</time>
      </trkpt>
      <trkpt lat="44.77632" lon="6.32526">
        <ele>2101</ele>
        <time>2024-08-12T11:28:25Z</time>
      </trkpt>
      <trkpt lat="44.7763" lon="6.32525">
        <ele>2100.8</ele>
        <time>2024-08-12T11:28:26Z</time>
      </trkpt>
      <trkpt lat="44.7763" lon="6.32525">
        <ele>2100.8</ele>
        <time>2024-08-12T11:28:27Z</time>
      </trkpt>
      <trkpt lat="44.77627" lon="6.32525">
        <ele>2100.8</ele>
        <time>2024-08-12T11:28:28Z</time>
      </trkpt>
      <trkpt lat="44.77627" lon="6.32525">
        <ele>2101</ele>
        <time>2024-08-12T11:28:29Z</time>
      </trkpt>
      <trkpt lat="44.77624" lon="6.32524">
        <ele>2101</ele>
        <time>2024-08-12T11:28:30Z</time>
      </trkpt>
      <trkpt lat="44.77624" lon="6.32524">
        <ele>2101.4</ele>
        <time>2024-08-12T11:28:31Z</time>
      </trkpt>
      <trkpt lat="44.77621" lon="6.32524">
        <ele>2101.4</ele>
        <time>2024-08-12T11:28:32Z</time>
      </trkpt>
      <trkpt lat="44.77621" lon="6.32524">
        <ele>2101.6</ele>
        <time>2024-08-12T11:28:33Z</time>
      </trkpt>
      <trkpt lat="44.77619" lon="6.32523">
        <ele>2101.8</ele>
        <time>2024-08-12T11:28:34Z</time>
      </trkpt>
      <trkpt lat="44.77619" lon="6.32523">
        <ele>2101.8</ele>
        <time>2024-08-12T11:28:35Z</time>
      </trkpt>
      <trkpt lat="44.77617" lon="6.32522">
        <ele>2101.6</ele>
        <time>2024-08-12T11:28:36Z</time>
      </trkpt>
      <trkpt lat="44.77617" lon="6.32522">
        <ele>2101.6</ele>
        <time>2024-08-12T11:28:37Z</time>
      </trkpt>
      <trkpt lat="44.77614" lon="6.32521">
        <ele>2101.6</ele>
        <time>2024-08-12T11:28:38Z</time>
      </trkpt>
      <trkpt lat="44.77614" lon="6.32521">
        <ele>2101.8</ele>
        <time>2024-08-12T11:28:39Z</time>
      </trkpt>
      <trkpt lat="44.77612" lon="6.3252">
        <ele>2102.2</ele>
        <time>2024-08-12T11:28:40Z</time>
      </trkpt>
      <trkpt lat="44.77612" lon="6.3252">
        <ele>2102.4</ele>
        <time>2024-08-12T11:28:41Z</time>
      </trkpt>
      <trkpt lat="44.77612" lon="6.3252">
        <ele>2102.4</ele>
        <time>2024-08-12T11:28:42Z</time>
      </trkpt>
      <trkpt lat="44.7761" lon="6.32519">
        <ele>2102.4</ele>
        <time>2024-08-12T11:28:43Z</time>
      </trkpt>
      <trkpt lat="44.7761" lon="6.32519">
        <ele>2102.6</ele>
        <time>2024-08-12T11:28:44Z</time>
      </trkpt>
      <trkpt lat="44.77608" lon="6.32518">
        <ele>2102.6</ele>
        <time>2024-08-12T11:28:45Z</time>
      </trkpt>
      <trkpt lat="44.77608" lon="6.32518">
        <ele>2102.8</ele>
        <time>2024-08-12T11:28:46Z</time>
      </trkpt>
      <trkpt lat="44.77608" lon="6.32518">
        <ele>2102.8</ele>
        <time>2024-08-12T11:28:47Z</time>
      </trkpt>
      <trkpt lat="44.77608" lon="6.32518">
        <ele>2103</ele>
        <time>2024-08-12T11:28:48Z</time>
      </trkpt>
      <trkpt lat="44.77608" lon="6.32518">
        <ele>2103.4</ele>
        <time>2024-08-12T11:28:49Z</time>
      </trkpt>
      <trkpt lat="44.77606" lon="6.32516">
        <ele>2103.4</ele>
        <time>2024-08-12T11:28:50Z</time>
      </trkpt>
      <trkpt lat="44.77606" lon="6.32516">
        <ele>2103.6</ele>
        <time>2024-08-12T11:28:51Z</time>
      </trkpt>
      <trkpt lat="44.77606" lon="6.32516">
        <ele>2104</ele>
        <time>2024-08-12T11:28:52Z</time>
      </trkpt>
      <trkpt lat="44.77606" lon="6.32516">
        <ele>2104.2</ele>
        <time>2024-08-12T11:28:53Z</time>
      </trkpt>
      <trkpt lat="44.77604" lon="6.32515">
        <ele>2104.4</ele>
        <time>2024-08-12T11:28:54Z</time>
      </trkpt>
      <trkpt lat="44.77604" lon="6.32515">
        <ele>2104.6</ele>
        <time>2024-08-12T11:28:55Z</time>
      </trkpt>
      <trkpt lat="44.77604" lon="6.32515">
        <ele>2104.6</ele>
        <time>2024-08-12T11:28:56Z</time>
      </trkpt>
      <trkpt lat="44.77602" lon="6.32514">
        <ele>2104.6</ele>
        <time>2024-08-12T11:28:57Z</time>
      </trkpt>
      <trkpt lat="44.77602" lon="6.32514">
        <ele>2105</ele>
        <time>2024-08-12T11:28:58Z</time>
      </trkpt>
      <trkpt lat="44.77602" lon="6.32514">
        <ele>2105.4</ele>
        <time>2024-08-12T11:28:59Z</time>
      </trkpt>
      <trkpt lat="44.776" lon="6.32515">
        <ele>2105.8</ele>
        <time>2024-08-12T11:29:00Z</time>
      </trkpt>
      <trkpt lat="44.776" lon="6.32515">
        <ele>2106.2</ele>
        <time>2024-08-12T11:29:01Z</time>
      </trkpt>
      <trkpt lat="44.77598" lon="6.32515">
        <ele>2106.4</ele>
        <time>2024-08-12T11:29:02Z</time>
      </trkpt>
      <trkpt lat="44.77598" lon="6.32515">
        <ele>2106.4</ele>
        <time>2024-08-12T11:29:03Z</time>
      </trkpt>
      <trkpt lat="44.77598" lon="6.32515">
        <ele>2106.6</ele>
        <time>2024-08-12T11:29:04Z</time>
      </trkpt>
      <trkpt lat="44.77595" lon="6.32514">
        <ele>2106.8</ele>
        <time>2024-08-12T11:29:05Z</time>
      </trkpt>
      <trkpt lat="44.77595" lon="6.32514">
        <ele>2106.8</ele>
        <time>2024-08-12T11:29:06Z</time>
      </trkpt>
      <trkpt lat="44.77595" lon="6.32514">
        <ele>2107</ele>
        <time>2024-08-12T11:29:07Z</time>
      </trkpt>
      <trkpt lat="44.77593" lon="6.32513">
        <ele>2107.4</ele>
        <time>2024-08-12T11:29:08Z</time>
      </trkpt>
      <trkpt lat="44.77593" lon="6.32513">
        <ele>2107.8</ele>
        <time>2024-08-12T11:29:09Z</time>
      </trkpt>
      <trkpt lat="44.77593" lon="6.32513">
        <ele>2107.8</ele>
        <time>2024-08-12T11:29:10Z</time>
      </trkpt>
      <trkpt lat="44.77591" lon="6.32511">
        <ele>2108</ele>
        <time>2024-08-12T11:29:11Z</time>
      </trkpt>
      <trkpt lat="44.77591" lon="6.32511">
        <ele>2108</ele>
        <time>2024-08-12T11:29:12Z</time>
      </trkpt>
      <trkpt lat="44.77591" lon="6.32511">
        <ele>2108.4</ele>
        <time>2024-08-12T11:29:13Z</time>
      </trkpt>
      <trkpt lat="44.77588" lon="6.3251">
        <ele>2108.4</ele>
        <time>2024-08-12T11:29:14Z</time>
      </trkpt>
      <trkpt lat="44.77588" lon="6.3251">
        <ele>2108.4</ele>
        <time>2024-08-12T11:29:15Z</time>
      </trkpt>
      <trkpt lat="44.77586" lon="6.32509">
        <ele>2108.6</ele>
        <time>2024-08-12T11:29:16Z</time>
      </trkpt>
      <trkpt lat="44.77586" lon="6.32509">
        <ele>2108.8</ele>
        <time>2024-08-12T11:29:17Z</time>
      </trkpt>
      <trkpt lat="44.77584" lon="6.32507">
        <ele>2109.2</ele>
        <time>2024-08-12T11:29:18Z</time>
      </trkpt>
      <trkpt lat="44.77584" lon="6.32507">
        <ele>2109.2</ele>
        <time>2024-08-12T11:29:19Z</time>
      </trkpt>
      <trkpt lat="44.77584" lon="6.32507">
        <ele>2109.4</ele>
        <time>2024-08-12T11:29:20Z</time>
      </trkpt>
      <trkpt lat="44.77582" lon="6.32505">
        <ele>2109.4</ele>
        <time>2024-08-12T11:29:21Z</time>
      </trkpt>
      <trkpt lat="44.77582" lon="6.32505">
        <ele>2109.6</ele>
        <time>2024-08-12T11:29:22Z</time>
      </trkpt>
      <trkpt lat="44.77582" lon="6.32505">
        <ele>2109.8</ele>
        <time>2024-08-12T11:29:23Z</time>
      </trkpt>
      <trkpt lat="44.7758" lon="6.32505">
        <ele>2109.8</ele>
        <time>2024-08-12T11:29:24Z</time>
      </trkpt>
      <trkpt lat="44.7758" lon="6.32505">
        <ele>2110</ele>
        <time>2024-08-12T11:29:25Z</time>
      </trkpt>
      <trkpt lat="44.7758" lon="6.32505">
        <ele>2110.2</ele>
        <time>2024-08-12T11:29:26Z</time>
      </trkpt>
      <trkpt lat="44.77578" lon="6.32504">
        <ele>2110.4</ele>
        <time>2024-08-12T11:29:27Z</time>
      </trkpt>
      <trkpt lat="44.77578" lon="6.32504">
        <ele>2110.8</ele>
        <time>2024-08-12T11:29:28Z</time>
      </trkpt>
      <trkpt lat="44.77578" lon="6.32504">
        <ele>2110.8</ele>
        <time>2024-08-12T11:29:29Z</time>
      </trkpt>
      <trkpt lat="44.77576" lon="6.32503">
        <ele>2111.2</ele>
        <time>2024-08-12T11:29:30Z</time>
      </trkpt>
      <trkpt lat="44.77576" lon="6.32503">
        <ele>2111.4</ele>
        <time>2024-08-12T11:29:31Z</time>
      </trkpt>
      <trkpt lat="44.77576" lon="6.32503">
        <ele>2111.4</ele>
        <time>2024-08-12T11:29:32Z</time>
      </trkpt>
      <trkpt lat="44.77574" lon="6.32502">
        <ele>2111.4</ele>
        <time>2024-08-12T11:29:33Z</time>
      </trkpt>
      <trkpt lat="44.77574" lon="6.32502">
        <ele>2111.4</ele>
        <time>2024-08-12T11:29:34Z</time>
      </trkpt>
      <trkpt lat="44.77574" lon="6.32502">
        <ele>2111.8</ele>
        <time>2024-08-12T11:29:35Z</time>
      </trkpt>
      <trkpt lat="44.77573" lon="6.32499">
        <ele>2111.8</ele>
        <time>2024-08-12T11:29:36Z</time>
      </trkpt>
      <trkpt lat="44.77573" lon="6.32499">
        <ele>2112.2</ele>
        <time>2024-08-12T11:29:37Z</time>
      </trkpt>
      <trkpt lat="44.77573" lon="6.32499">
        <ele>2112.4</ele>
        <time>2024-08-12T11:29:38Z</time>
      </trkpt>
      <trkpt lat="44.77571" lon="6.32497">
        <ele>2112.6</ele>
        <time>2024-08-12T11:29:39Z</time>
      </trkpt>
      <trkpt lat="44.77571" lon="6.32497">
        <ele>2112.8</ele>
        <time>2024-08-12T11:29:40Z</time>
      </trkpt>
      <trkpt lat="44.7757" lon="6.32496">
        <ele>2112.8</ele>
        <time>2024-08-12T11:29:41Z</time>
      </trkpt>
      <trkpt lat="44.7757" lon="6.32496">
        <ele>2112.8</ele>
        <time>2024-08-12T11:29:42Z</time>
      </trkpt>
      <trkpt lat="44.77568" lon="6.32495">
        <ele>2112.8</ele>
        <time>2024-08-12T11:29:43Z</time>
      </trkpt>
      <trkpt lat="44.77568" lon="6.32495">
        <ele>2113</ele>
        <time>2024-08-12T11:29:44Z</time>
      </trkpt>
      <trkpt lat="44.77566" lon="6.32493">
        <ele>2113</ele>
        <time>2024-08-12T11:29:45Z</time>
      </trkpt>
      <trkpt lat="44.77566" lon="6.32493">
        <ele>2112.8</ele>
        <time>2024-08-12T11:29:46Z</time>
      </trkpt>
      <trkpt lat="44.77566" lon="6.32493">
        <ele>2112.8</ele>
        <time>2024-08-12T11:29:47Z</time>
      </trkpt>
      <trkpt lat="44.77564" lon="6.32493">
        <ele>2112.8</ele>
        <time>2024-08-12T11:29:48Z</time>
      </trkpt>
      <trkpt lat="44.77564" lon="6.32493">
        <ele>2113.2</ele>
        <time>2024-08-12T11:29:49Z</time>
      </trkpt>
      <trkpt lat="44.77564" lon="6.32493">
        <ele>2113.6</ele>
        <time>2024-08-12T11:29:50Z</time>
      </trkpt>
      <trkpt lat="44.77561" lon="6.32494">
        <ele>2114</ele>
        <time>2024-08-12T11:29:51Z</time>
      </trkpt>
      <trkpt lat="44.77561" lon="6.32494">
        <ele>2114.2</ele>
        <time>2024-08-12T11:29:52Z</time>
      </trkpt>
      <trkpt lat="44.7756" lon="6.32495">
        <ele>2114.4</ele>
        <time>2024-08-12T11:29:53Z</time>
      </trkpt>
      <trkpt lat="44.7756" lon="6.32495">
        <ele>2114.6</ele>
        <time>2024-08-12T11:29:54Z</time>
      </trkpt>
      <trkpt lat="44.7756" lon="6.32495">
        <ele>2115.2</ele>
        <time>2024-08-12T11:29:55Z</time>
      </trkpt>
      <trkpt lat="44.77558" lon="6.32497">
        <ele>2115.4</ele>
        <time>2024-08-12T11:29:56Z</time>
      </trkpt>
      <trkpt lat="44.77558" lon="6.32497">
        <ele>2115.4</ele>
        <time>2024-08-12T11:29:57Z</time>
      </trkpt>
      <trkpt lat="44.77556" lon="6.32498">
        <ele>2115.6</ele>
        <time>2024-08-12T11:29:58Z</time>
      </trkpt>
      <trkpt lat="44.77556" lon="6.32498">
        <ele>2115.6</ele>
        <time>2024-08-12T11:29:59Z</time>
      </trkpt>
      <trkpt lat="44.77554" lon="6.325">
        <ele>2115.4</ele>
        <time>2024-08-12T11:30:00Z</time>
      </trkpt>
      <trkpt lat="44.77554" lon="6.325">
        <ele>2115.4</ele>
        <time>2024-08-12T11:30:01Z</time>
      </trkpt>
      <trkpt lat="44.77554" lon="6.325">
        <ele>2116</ele>
        <time>2024-08-12T11:30:02Z</time>
      </trkpt>
      <trkpt lat="44.77552" lon="6.32501">
        <ele>2116.2</ele>
        <time>2024-08-12T11:30:03Z</time>
      </trkpt>
      <trkpt lat="44.77552" lon="6.32501">
        <ele>2116.2</ele>
        <time>2024-08-12T11:30:04Z</time>
      </trkpt>
      <trkpt lat="44.7755" lon="6.32501">
        <ele>2116.2</ele>
        <time>2024-08-12T11:30:05Z</time>
      </trkpt>
      <trkpt lat="44.7755" lon="6.32501">
        <ele>2116.2</ele>
        <time>2024-08-12T11:30:06Z</time>
      </trkpt>
      <trkpt lat="44.77548" lon="6.32502">
        <ele>2116</ele>
        <time>2024-08-12T11:30:07Z</time>
      </trkpt>
      <trkpt lat="44.77548" lon="6.32502">
        <ele>2115.6</ele>
        <time>2024-08-12T11:30:08Z</time>
      </trkpt>
      <trkpt lat="44.77546" lon="6.32502">
        <ele>2115.4</ele>
        <time>2024-08-12T11:30:09Z</time>
      </trkpt>
      <trkpt lat="44.77546" lon="6.32502">
        <ele>2115.4</ele>
        <time>2024-08-12T11:30:10Z</time>
      </trkpt>
      <trkpt lat="44.77544" lon="6.32501">
        <ele>2115.4</ele>
        <time>2024-08-12T11:30:11Z</time>
      </trkpt>
      <trkpt lat="44.77544" lon="6.32501">
        <ele>2116.2</ele>
        <time>2024-08-12T11:30:12Z</time>
      </trkpt>
      <trkpt lat="44.77544" lon="6.32501">
        <ele>2116.4</ele>
        <time>2024-08-12T11:30:13Z</time>
      </trkpt>
      <trkpt lat="44.77542" lon="6.325">
        <ele>2116.6</ele>
        <time>2024-08-12T11:30:14Z</time>
      </trkpt>
      <trkpt lat="44.77542" lon="6.325">
        <ele>2117.4</ele>
        <time>2024-08-12T11:30:15Z</time>
      </trkpt>
      <trkpt lat="44.7754" lon="6.32498">
        <ele>2117.4</ele>
        <time>2024-08-12T11:30:16Z</time>
      </trkpt>
      <trkpt lat="44.7754" lon="6.32498">
        <ele>2117.4</ele>
        <time>2024-08-12T11:30:17Z</time>
      </trkpt>
      <trkpt lat="44.7754" lon="6.32498">
        <ele>2117.4</ele>
        <time>2024-08-12T11:30:18Z</time>
      </trkpt>
      <trkpt lat="44.77539" lon="6.32496">
        <ele>2118</ele>
        <time>2024-08-12T11:30:19Z</time>
      </trkpt>
      <trkpt lat="44.77539" lon="6.32496">
        <ele>2118.2</ele>
        <time>2024-08-12T11:30:20Z</time>
      </trkpt>
      <trkpt lat="44.77539" lon="6.32496">
        <ele>2118.2</ele>
        <time>2024-08-12T11:30:21Z</time>
      </trkpt>
      <trkpt lat="44.77539" lon="6.32496">
        <ele>2118.2</ele>
        <time>2024-08-12T11:30:22Z</time>
      </trkpt>
      <trkpt lat="44.77538" lon="6.32494">
        <ele>2118.4</ele>
        <time>2024-08-12T11:30:23Z</time>
      </trkpt>
      <trkpt lat="44.77538" lon="6.32494">
        <ele>2118.8</ele>
        <time>2024-08-12T11:30:24Z</time>
      </trkpt>
      <trkpt lat="44.77538" lon="6.32494">
        <ele>2118.8</ele>
        <time>2024-08-12T11:30:25Z</time>
      </trkpt>
      <trkpt lat="44.77536" lon="6.32493">
        <ele>2119.4</ele>
        <time>2024-08-12T11:30:26Z</time>
      </trkpt>
      <trkpt lat="44.77536" lon="6.32493">
        <ele>2119.8</ele>
        <time>2024-08-12T11:30:27Z</time>
      </trkpt>
      <trkpt lat="44.77534" lon="6.32491">
        <ele>2119.8</ele>
        <time>2024-08-12T11:30:28Z</time>
      </trkpt>
      <trkpt lat="44.77534" lon="6.32491">
        <ele>2119.8</ele>
        <time>2024-08-12T11:30:29Z</time>
      </trkpt>
      <trkpt lat="44.77534" lon="6.32491">
        <ele>2119.6</ele>
        <time>2024-08-12T11:30:30Z</time>
      </trkpt>
      <trkpt lat="44.77532" lon="6.32489">
        <ele>2119.6</ele>
        <time>2024-08-12T11:30:31Z</time>
      </trkpt>
      <trkpt lat="44.77532" lon="6.32489">
        <ele>2119.8</ele>
        <time>2024-08-12T11:30:32Z</time>
      </trkpt>
      <trkpt lat="44.77532" lon="6.32489">
        <ele>2120.2</ele>
        <time>2024-08-12T11:30:33Z</time>
      </trkpt>
      <trkpt lat="44.7753" lon="6.32488">
        <ele>2120.4</ele>
        <time>2024-08-12T11:30:34Z</time>
      </trkpt>
      <trkpt lat="44.7753" lon="6.32488">
        <ele>2120.4</ele>
        <time>2024-08-12T11:30:35Z</time>
      </trkpt>
      <trkpt lat="44.77528" lon="6.32487">
        <ele>2120.8</ele>
        <time>2024-08-12T11:30:36Z</time>
      </trkpt>
      <trkpt lat="44.77528" lon="6.32487">
        <ele>2121.2</ele>
        <time>2024-08-12T11:30:37Z</time>
      </trkpt>
      <trkpt lat="44.77528" lon="6.32487">
        <ele>2121.4</ele>
        <time>2024-08-12T11:30:38Z</time>
      </trkpt>
      <trkpt lat="44.77526" lon="6.32488">
        <ele>2121.4</ele>
        <time>2024-08-12T11:30:39Z</time>
      </trkpt>
      <trkpt lat="44.77526" lon="6.32488">
        <ele>2121.6</ele>
        <time>2024-08-12T11:30:40Z</time>
      </trkpt>
      <trkpt lat="44.77526" lon="6.32488">
        <ele>2121.8</ele>
        <time>2024-08-12T11:30:41Z</time>
      </trkpt>
      <trkpt lat="44.77524" lon="6.32488">
        <ele>2121.8</ele>
        <time>2024-08-12T11:30:42Z</time>
      </trkpt>
      <trkpt lat="44.77524" lon="6.32488">
        <ele>2121.8</ele>
        <time>2024-08-12T11:30:43Z</time>
      </trkpt>
      <trkpt lat="44.77524" lon="6.32488">
        <ele>2122.2</ele>
        <time>2024-08-12T11:30:44Z</time>
      </trkpt>
      <trkpt lat="44.77522" lon="6.32487">
        <ele>2122.4</ele>
        <time>2024-08-12T11:30:45Z</time>
      </trkpt>
      <trkpt lat="44.77522" lon="6.32487">
        <ele>2122.6</ele>
        <time>2024-08-12T11:30:46Z</time>
      </trkpt>
      <trkpt lat="44.77522" lon="6.32487">
        <ele>2122.6</ele>
        <time>2024-08-12T11:30:47Z</time>
      </trkpt>
      <trkpt lat="44.7752" lon="6.32488">
        <ele>2122.6</ele>
        <time>2024-08-12T11:30:48Z</time>
      </trkpt>
      <trkpt lat="44.7752" lon="6.32488">
        <ele>2122.6</ele>
        <time>2024-08-12T11:30:49Z</time>
      </trkpt>
      <trkpt lat="44.7752" lon="6.32488">
        <ele>2123</ele>
        <time>2024-08-12T11:30:50Z</time>
      </trkpt>
      <trkpt lat="44.77517" lon="6.32487">
        <ele>2123.4</ele>
        <time>2024-08-12T11:30:51Z</time>
      </trkpt>
      <trkpt lat="44.77517" lon="6.32487">
        <ele>2123.6</ele>
        <time>2024-08-12T11:30:52Z</time>
      </trkpt>
      <trkpt lat="44.77517" lon="6.32487">
        <ele>2124.2</ele>
        <time>2024-08-12T11:30:53Z</time>
      </trkpt>
      <trkpt lat="44.77515" lon="6.32486">
        <ele>2124.2</ele>
        <time>2024-08-12T11:30:54Z</time>
      </trkpt>
      <trkpt lat="44.77515" lon="6.32486">
        <ele>2124.2</ele>
        <time>2024-08-12T11:30:55Z</time>
      </trkpt>
      <trkpt lat="44.77515" lon="6.32486">
        <ele>2124.2</ele>
        <time>2024-08-12T11:30:56Z</time>
      </trkpt>
      <trkpt lat="44.77513" lon="6.32485">
        <ele>2124.4</ele>
        <time>2024-08-12T11:30:57Z</time>
      </trkpt>
      <trkpt lat="44.77513" lon="6.32485">
        <ele>2125</ele>
        <time>2024-08-12T11:30:58Z</time>
      </trkpt>
      <trkpt lat="44.77513" lon="6.32485">
        <ele>2125</ele>
        <time>2024-08-12T11:30:59Z</time>
      </trkpt>
      <trkpt lat="44.77512" lon="6.32483">
        <ele>2125.2</ele>
        <time>2024-08-12T11:31:00Z</time>
      </trkpt>
      <trkpt lat="44.77512" lon="6.32483">
        <ele>2125.2</ele>
        <time>2024-08-12T11:31:01Z</time>
      </trkpt>
      <trkpt lat="44.77512" lon="6.32483">
        <ele>2125.4</ele>
        <time>2024-08-12T11:31:02Z</time>
      </trkpt>
      <trkpt lat="44.77511" lon="6.3248">
        <ele>2125.8</ele>
        <time>2024-08-12T11:31:03Z</time>
      </trkpt>
      <trkpt lat="44.77511" lon="6.3248">
        <ele>2125.8</ele>
        <time>2024-08-12T11:31:04Z</time>
      </trkpt>
      <trkpt lat="44.77511" lon="6.3248">
        <ele>2125.8</ele>
        <time>2024-08-12T11:31:05Z</time>
      </trkpt>
      <trkpt lat="44.77509" lon="6.32479">
        <ele>2125.8</ele>
        <time>2024-08-12T11:31:06Z</time>
      </trkpt>
      <trkpt lat="44.77509" lon="6.32479">
        <ele>2126.2</ele>
        <time>2024-08-12T11:31:07Z</time>
      </trkpt>
      <trkpt lat="44.77509" lon="6.32479">
        <ele>2126.2</ele>
        <time>2024-08-12T11:31:08Z</time>
      </trkpt>
      <trkpt lat="44.77507" lon="6.32479">
        <ele>2126.4</ele>
        <time>2024-08-12T11:31:09Z</time>
      </trkpt>
      <trkpt lat="44.77507" lon="6.32479">
        <ele>2126.6</ele>
        <time>2024-08-12T11:31:10Z</time>
      </trkpt>
      <trkpt lat="44.77507" lon="6.32479">
        <ele>2126.6</ele>
        <time>2024-08-12T11:31:11Z</time>
      </trkpt>
      <trkpt lat="44.77505" lon="6.32479">
        <ele>2126.6</ele>
        <time>2024-08-12T11:31:12Z</time>
      </trkpt>
      <trkpt lat="44.77505" lon="6.32479">
        <ele>2126.6</ele>
        <time>2024-08-12T11:31:13Z</time>
      </trkpt>
      <trkpt lat="44.77505" lon="6.32479">
        <ele>2127.2</ele>
        <time>2024-08-12T11:31:14Z</time>
      </trkpt>
      <trkpt lat="44.77503" lon="6.32477">
        <ele>2127.6</ele>
        <time>2024-08-12T11:31:15Z</time>
      </trkpt>
      <trkpt lat="44.77503" lon="6.32477">
        <ele>2127.8</ele>
        <time>2024-08-12T11:31:16Z</time>
      </trkpt>
      <trkpt lat="44.77503" lon="6.32477">
        <ele>2128</ele>
        <time>2024-08-12T11:31:17Z</time>
      </trkpt>
      <trkpt lat="44.77503" lon="6.32477">
        <ele>2128.4</ele>
        <time>2024-08-12T11:31:18Z</time>
      </trkpt>
      <trkpt lat="44.77503" lon="6.32477">
        <ele>2128.4</ele>
        <time>2024-08-12T11:31:19Z</time>
      </trkpt>
      <trkpt lat="44.77501" lon="6.32477">
        <ele>2128.4</ele>
        <time>2024-08-12T11:31:20Z</time>
      </trkpt>
      <trkpt lat="44.77501" lon="6.32477">
        <ele>2128.8</ele>
        <time>2024-08-12T11:31:21Z</time>
      </trkpt>
      <trkpt lat="44.77501" lon="6.32477">
        <ele>2129.2</ele>
        <time>2024-08-12T11:31:22Z</time>
      </trkpt>
      <trkpt lat="44.77499" lon="6.32477">
        <ele>2129.2</ele>
        <time>2024-08-12T11:31:23Z</time>
      </trkpt>
      <trkpt lat="44.77499" lon="6.32477">
        <ele>2129.2</ele>
        <time>2024-08-12T11:31:24Z</time>
      </trkpt>
      <trkpt lat="44.77499" lon="6.32477">
        <ele>2129.6</ele>
        <time>2024-08-12T11:31:25Z</time>
      </trkpt>
      <trkpt lat="44.77497" lon="6.32478">
        <ele>2129.8</ele>
        <time>2024-08-12T11:31:26Z</time>
      </trkpt>
      <trkpt lat="44.77497" lon="6.32478">
        <ele>2129.8</ele>
        <time>2024-08-12T11:31:27Z</time>
      </trkpt>
      <trkpt lat="44.77497" lon="6.32478">
        <ele>2130</ele>
        <time>2024-08-12T11:31:28Z</time>
      </trkpt>
      <trkpt lat="44.77494" lon="6.32479">
        <ele>2130</ele>
        <time>2024-08-12T11:31:29Z</time>
      </trkpt>
      <trkpt lat="44.77494" lon="6.32479">
        <ele>2130</ele>
        <time>2024-08-12T11:31:30Z</time>
      </trkpt>
      <trkpt lat="44.77494" lon="6.32479">
        <ele>2129.8</ele>
        <time>2024-08-12T11:31:31Z</time>
      </trkpt>
      <trkpt lat="44.77493" lon="6.3248">
        <ele>2129.8</ele>
        <time>2024-08-12T11:31:32Z</time>
      </trkpt>
      <trkpt lat="44.77493" lon="6.3248">
        <ele>2129.8</ele>
        <time>2024-08-12T11:31:33Z</time>
      </trkpt>
      <trkpt lat="44.77493" lon="6.3248">
        <ele>2130.2</ele>
        <time>2024-08-12T11:31:34Z</time>
      </trkpt>
      <trkpt lat="44.77491" lon="6.3248">
        <ele>2130.2</ele>
        <time>2024-08-12T11:31:35Z</time>
      </trkpt>
      <trkpt lat="44.77491" lon="6.3248">
        <ele>2130.2</ele>
        <time>2024-08-12T11:31:36Z</time>
      </trkpt>
      <trkpt lat="44.77491" lon="6.3248">
        <ele>2130.4</ele>
        <time>2024-08-12T11:31:37Z</time>
      </trkpt>
      <trkpt lat="44.77488" lon="6.3248">
        <ele>2130.8</ele>
        <time>2024-08-12T11:31:38Z</time>
      </trkpt>
      <trkpt lat="44.77488" lon="6.3248">
        <ele>2130.8</ele>
        <time>2024-08-12T11:31:39Z</time>
      </trkpt>
      <trkpt lat="44.77488" lon="6.3248">
        <ele>2130.8</ele>
        <time>2024-08-12T11:31:40Z</time>
      </trkpt>
      <trkpt lat="44.77488" lon="6.3248">
        <ele>2131.8</ele>
        <time>2024-08-12T11:31:41Z</time>
      </trkpt>
      <trkpt lat="44.77487" lon="6.32479">
        <ele>2132.2</ele>
        <time>2024-08-12T11:31:42Z</time>
      </trkpt>
      <trkpt lat="44.77487" lon="6.32479">
        <ele>2132.2</ele>
        <time>2024-08-12T11:31:43Z</time>
      </trkpt>
      <trkpt lat="44.77487" lon="6.32479">
        <ele>2132.4</ele>
        <time>2024-08-12T11:31:44Z</time>
      </trkpt>
      <trkpt lat="44.77487" lon="6.32479">
        <ele>2132.4</ele>
        <time>2024-08-12T11:31:45Z</time>
      </trkpt>
      <trkpt lat="44.77485" lon="6.32478">
        <ele>2132.4</ele>
        <time>2024-08-12T11:31:46Z</time>
      </trkpt>
      <trkpt lat="44.77485" lon="6.32478">
        <ele>2132.4</ele>
        <time>2024-08-12T11:31:47Z</time>
      </trkpt>
      <trkpt lat="44.77483" lon="6.32478">
        <ele>2133</ele>
        <time>2024-08-12T11:31:48Z</time>
      </trkpt>
      <trkpt lat="44.77483" lon="6.32478">
        <ele>2133</ele>
        <time>2024-08-12T11:31:49Z</time>
      </trkpt>
      <trkpt lat="44.77483" lon="6.32478">
        <ele>2133.6</ele>
        <time>2024-08-12T11:31:50Z</time>
      </trkpt>
      <trkpt lat="44.77481" lon="6.32476">
        <ele>2134</ele>
        <time>2024-08-12T11:31:51Z</time>
      </trkpt>
      <trkpt lat="44.77481" lon="6.32476">
        <ele>2134</ele>
        <time>2024-08-12T11:31:52Z</time>
      </trkpt>
      <trkpt lat="44.77481" lon="6.32476">
        <ele>2134.8</ele>
        <time>2024-08-12T11:31:53Z</time>
      </trkpt>
      <trkpt lat="44.77479" lon="6.32475">
        <ele>2134.8</ele>
        <time>2024-08-12T11:31:54Z</time>
      </trkpt>
      <trkpt lat="44.77479" lon="6.32475">
        <ele>2134.8</ele>
        <time>2024-08-12T11:31:55Z</time>
      </trkpt>
      <trkpt lat="44.77479" lon="6.32475">
        <ele>2135</ele>
        <time>2024-08-12T11:31:56Z</time>
      </trkpt>
      <trkpt lat="44.77477" lon="6.32474">
        <ele>2135.2</ele>
        <time>2024-08-12T11:31:57Z</time>
      </trkpt>
      <trkpt lat="44.77477" lon="6.32474">
        <ele>2135.4</ele>
        <time>2024-08-12T11:31:58Z</time>
      </trkpt>
      <trkpt lat="44.77475" lon="6.32473">
        <ele>2135.8</ele>
        <time>2024-08-12T11:31:59Z</time>
      </trkpt>
      <trkpt lat="44.77475" lon="6.32473">
        <ele>2135.8</ele>
        <time>2024-08-12T11:32:00Z</time>
      </trkpt>
      <trkpt lat="44.77475" lon="6.32473">
        <ele>2136</ele>
        <time>2024-08-12T11:32:01Z</time>
      </trkpt>
      <trkpt lat="44.77473" lon="6.32473">
        <ele>2136.6</ele>
        <time>2024-08-12T11:32:02Z</time>
      </trkpt>
      <trkpt lat="44.77473" lon="6.32473">
        <ele>2136.6</ele>
        <time>2024-08-12T11:32:03Z</time>
      </trkpt>
      <trkpt lat="44.77473" lon="6.32473">
        <ele>2136.6</ele>
        <time>2024-08-12T11:32:04Z</time>
      </trkpt>
      <trkpt lat="44.77471" lon="6.32472">
        <ele>2137</ele>
        <time>2024-08-12T11:32:05Z</time>
      </trkpt>
      <trkpt lat="44.77471" lon="6.32472">
        <ele>2137.4</ele>
        <time>2024-08-12T11:32:06Z</time>
      </trkpt>
      <trkpt lat="44.77471" lon="6.32472">
        <ele>2137.4</ele>
        <time>2024-08-12T11:32:07Z</time>
      </trkpt>
      <trkpt lat="44.77469" lon="6.32472">
        <ele>2137.6</ele>
        <time>2024-08-12T11:32:08Z</time>
      </trkpt>
      <trkpt lat="44.77469" lon="6.32472">
        <ele>2137.6</ele>
        <time>2024-08-12T11:32:09Z</time>
      </trkpt>
      <trkpt lat="44.77469" lon="6.32472">
        <ele>2138</ele>
        <time>2024-08-12T11:32:10Z</time>
      </trkpt>
      <trkpt lat="44.77467" lon="6.32472">
        <ele>2138.4</ele>
        <time>2024-08-12T11:32:11Z</time>
      </trkpt>
      <trkpt lat="44.77467" lon="6.32472">
        <ele>2138.8</ele>
        <time>2024-08-12T11:32:12Z</time>
      </trkpt>
      <trkpt lat="44.77467" lon="6.32472">
        <ele>2139</ele>
        <time>2024-08-12T11:32:13Z</time>
      </trkpt>
      <trkpt lat="44.77467" lon="6.32472">
        <ele>2139.2</ele>
        <time>2024-08-12T11:32:14Z</time>
      </trkpt>
      <trkpt lat="44.77465" lon="6.32471">
        <ele>2139.2</ele>
        <time>2024-08-12T11:32:15Z</time>
      </trkpt>
      <trkpt lat="44.77465" lon="6.32471">
        <ele>2139.4</ele>
        <time>2024-08-12T11:32:16Z</time>
      </trkpt>
      <trkpt lat="44.77465" lon="6.32471">
        <ele>2139.6</ele>
        <time>2024-08-12T11:32:17Z</time>
      </trkpt>
      <trkpt lat="44.77465" lon="6.32471">
        <ele>2139.6</ele>
        <time>2024-08-12T11:32:18Z</time>
      </trkpt>
      <trkpt lat="44.77463" lon="6.3247">
        <ele>2140</ele>
        <time>2024-08-12T11:32:19Z</time>
      </trkpt>
      <trkpt lat="44.77463" lon="6.3247">
        <ele>2140</ele>
        <time>2024-08-12T11:32:20Z</time>
      </trkpt>
      <trkpt lat="44.77461" lon="6.3247">
        <ele>2140.2</ele>
        <time>2024-08-12T11:32:21Z</time>
      </trkpt>
      <trkpt lat="44.77461" lon="6.3247">
        <ele>2140.2</ele>
        <time>2024-08-12T11:32:22Z</time>
      </trkpt>
      <trkpt lat="44.77461" lon="6.3247">
        <ele>2140.4</ele>
        <time>2024-08-12T11:32:23Z</time>
      </trkpt>
      <trkpt lat="44.77459" lon="6.32468">
        <ele>2140.4</ele>
        <time>2024-08-12T11:32:24Z</time>
      </trkpt>
      <trkpt lat="44.77459" lon="6.32468">
        <ele>2140.6</ele>
        <time>2024-08-12T11:32:25Z</time>
      </trkpt>
      <trkpt lat="44.77459" lon="6.32468">
        <ele>2141</ele>
        <time>2024-08-12T11:32:26Z</time>
      </trkpt>
      <trkpt lat="44.77457" lon="6.32467">
        <ele>2141</ele>
        <time>2024-08-12T11:32:27Z</time>
      </trkpt>
      <trkpt lat="44.77457" lon="6.32467">
        <ele>2141.2</ele>
        <time>2024-08-12T11:32:28Z</time>
      </trkpt>
      <trkpt lat="44.77457" lon="6.32467">
        <ele>2141.6</ele>
        <time>2024-08-12T11:32:29Z</time>
      </trkpt>
      <trkpt lat="44.77455" lon="6.32465">
        <ele>2141.6</ele>
        <time>2024-08-12T11:32:30Z</time>
      </trkpt>
      <trkpt lat="44.77455" lon="6.32465">
        <ele>2141.8</ele>
        <time>2024-08-12T11:32:31Z</time>
      </trkpt>
      <trkpt lat="44.77455" lon="6.32465">
        <ele>2141.8</ele>
        <time>2024-08-12T11:32:32Z</time>
      </trkpt>
      <trkpt lat="44.77455" lon="6.32465">
        <ele>2142.2</ele>
        <time>2024-08-12T11:32:33Z</time>
      </trkpt>
      <trkpt lat="44.77453" lon="6.32464">
        <ele>2142.6</ele>
        <time>2024-08-12T11:32:34Z</time>
      </trkpt>
      <trkpt lat="44.77453" lon="6.32464">
        <ele>2142.8</ele>
        <time>2024-08-12T11:32:35Z</time>
      </trkpt>
      <trkpt lat="44.77453" lon="6.32464">
        <ele>2142.8</ele>
        <time>2024-08-12T11:32:36Z</time>
      </trkpt>
      <trkpt lat="44.77451" lon="6.32463">
        <ele>2143</ele>
        <time>2024-08-12T11:32:37Z</time>
      </trkpt>
      <trkpt lat="44.77451" lon="6.32463">
        <ele>2143.2</ele>
        <time>2024-08-12T11:32:38Z</time>
      </trkpt>
      <trkpt lat="44.77451" lon="6.32463">
        <ele>2143.8</ele>
        <time>2024-08-12T11:32:39Z</time>
      </trkpt>
      <trkpt lat="44.77449" lon="6.32463">
        <ele>2144</ele>
        <time>2024-08-12T11:32:40Z</time>
      </trkpt>
      <trkpt lat="44.77449" lon="6.32463">
        <ele>2144</ele>
        <time>2024-08-12T11:32:41Z</time>
      </trkpt>
      <trkpt lat="44.77449" lon="6.32463">
        <ele>2144.2</ele>
        <time>2024-08-12T11:32:42Z</time>
      </trkpt>
      <trkpt lat="44.77447" lon="6.32463">
        <ele>2144.4</ele>
        <time>2024-08-12T11:32:43Z</time>
      </trkpt>
      <trkpt lat="44.77447" lon="6.32463">
        <ele>2144.6</ele>
        <time>2024-08-12T11:32:44Z</time>
      </trkpt>
      <trkpt lat="44.77447" lon="6.32463">
        <ele>2144.6</ele>
        <time>2024-08-12T11:32:45Z</time>
      </trkpt>
      <trkpt lat="44.77445" lon="6.32462">
        <ele>2144.6</ele>
        <time>2024-08-12T11:32:46Z</time>
      </trkpt>
      <trkpt lat="44.77445" lon="6.32462">
        <ele>2144.6</ele>
        <time>2024-08-12T11:32:47Z</time>
      </trkpt>
      <trkpt lat="44.77445" lon="6.32462">
        <ele>2145</ele>
        <time>2024-08-12T11:32:48Z</time>
      </trkpt>
      <trkpt lat="44.77445" lon="6.32462">
        <ele>2145.4</ele>
        <time>2024-08-12T11:32:49Z</time>
      </trkpt>
      <trkpt lat="44.77443" lon="6.32461">
        <ele>2145.4</ele>
        <time>2024-08-12T11:32:50Z</time>
      </trkpt>
      <trkpt lat="44.77443" lon="6.32461">
        <ele>2145.6</ele>
        <time>2024-08-12T11:32:51Z</time>
      </trkpt>
      <trkpt lat="44.77443" lon="6.32461">
        <ele>2145.6</ele>
        <time>2024-08-12T11:32:52Z</time>
      </trkpt>
      <trkpt lat="44.77443" lon="6.32461">
        <ele>2145.8</ele>
        <time>2024-08-12T11:32:53Z</time>
      </trkpt>
      <trkpt lat="44.77441" lon="6.3246">
        <ele>2146</ele>
        <time>2024-08-12T11:32:54Z</time>
      </trkpt>
      <trkpt lat="44.77441" lon="6.3246">
        <ele>2146</ele>
        <time>2024-08-12T11:32:55Z</time>
      </trkpt>
      <trkpt lat="44.77441" lon="6.3246">
        <ele>2146.2</ele>
        <time>2024-08-12T11:32:56Z</time>
      </trkpt>
      <trkpt lat="44.77441" lon="6.3246">
        <ele>2146.6</ele>
        <time>2024-08-12T11:32:57Z</time>
      </trkpt>
      <trkpt lat="44.77441" lon="6.3246">
        <ele>2146.8</ele>
        <time>2024-08-12T11:32:58Z</time>
      </trkpt>
      <trkpt lat="44.77441" lon="6.3246">
        <ele>2146.8</ele>
        <time>2024-08-12T11:32:59Z</time>
      </trkpt>
      <trkpt lat="44.77441" lon="6.3246">
        <ele>2147</ele>
        <time>2024-08-12T11:33:00Z</time>
      </trkpt>
      <trkpt lat="44.77441" lon="6.3246">
        <ele>2147</ele>
        <time>2024-08-12T11:33:01Z</time>
      </trkpt>
      <trkpt lat="44.77441" lon="6.3246">
        <ele>2146.8</ele>
        <time>2024-08-12T11:33:02Z</time>
      </trkpt>
      <trkpt lat="44.77441" lon="6.3246">
        <ele>2146.8</ele>
        <time>2024-08-12T11:33:03Z</time>
      </trkpt>
      <trkpt lat="44.77441" lon="6.3246">
        <ele>2146.8</ele>
        <time>2024-08-12T11:33:04Z</time>
      </trkpt>
      <trkpt lat="44.77441" lon="6.3246">
        <ele>2146.4</ele>
        <time>2024-08-12T11:33:05Z</time>
      </trkpt>
      <trkpt lat="44.77441" lon="6.3246">
        <ele>2146.4</ele>
        <time>2024-08-12T11:33:06Z</time>
      </trkpt>
      <trkpt lat="44.77441" lon="6.3246">
        <ele>2146.8</ele>
        <time>2024-08-12T11:33:07Z</time>
      </trkpt>
      <trkpt lat="44.77441" lon="6.3246">
        <ele>2147</ele>
        <time>2024-08-12T11:33:08Z</time>
      </trkpt>
      <trkpt lat="44.77441" lon="6.3246">
        <ele>2147.2</ele>
        <time>2024-08-12T11:33:09Z</time>
      </trkpt>
      <trkpt lat="44.77441" lon="6.3246">
        <ele>2147.6</ele>
        <time>2024-08-12T11:33:10Z</time>
      </trkpt>
      <trkpt lat="44.77441" lon="6.3246">
        <ele>2147.6</ele>
        <time>2024-08-12T11:33:11Z</time>
      </trkpt>
      <trkpt lat="44.77441" lon="6.3246">
        <ele>2147.4</ele>
        <time>2024-08-12T11:33:12Z</time>
      </trkpt>
      <trkpt lat="44.77441" lon="6.3246">
        <ele>2147.4</ele>
        <time>2024-08-12T11:33:13Z</time>
      </trkpt>
      <trkpt lat="44.77441" lon="6.3246">
        <ele>2147.2</ele>
        <time>2024-08-12T11:33:14Z</time>
      </trkpt>
      <trkpt lat="44.77441" lon="6.3246">
        <ele>2147</ele>
        <time>2024-08-12T11:33:15Z</time>
      </trkpt>
      <trkpt lat="44.77441" lon="6.3246">
        <ele>2147</ele>
        <time>2024-08-12T11:33:16Z</time>
      </trkpt>
      <trkpt lat="44.77441" lon="6.3246">
        <ele>2147</ele>
        <time>2024-08-12T11:33:17Z</time>
      </trkpt>
      <trkpt lat="44.77441" lon="6.3246">
        <ele>2147.2</ele>
        <time>2024-08-12T11:33:18Z</time>
      </trkpt>
      <trkpt lat="44.77441" lon="6.3246">
        <ele>2147.2</ele>
        <time>2024-08-12T11:33:19Z</time>
      </trkpt>
      <trkpt lat="44.77441" lon="6.3246">
        <ele>2147.4</ele>
        <time>2024-08-12T11:33:20Z</time>
      </trkpt>
      <trkpt lat="44.77441" lon="6.3246">
        <ele>2147.6</ele>
        <time>2024-08-12T11:33:21Z</time>
      </trkpt>
      <trkpt lat="44.77441" lon="6.3246">
        <ele>2147.6</ele>
        <time>2024-08-12T11:33:22Z</time>
      </trkpt>
      <trkpt lat="44.77441" lon="6.3246">
        <ele>2147.2</ele>
        <time>2024-08-12T11:33:23Z</time>
      </trkpt>
      <trkpt lat="44.77441" lon="6.3246">
        <ele>2147.2</ele>
        <time>2024-08-12T11:33:24Z</time>
      </trkpt>
      <trkpt lat="44.77441" lon="6.3246">
        <ele>2147.2</ele>
        <time>2024-08-12T11:33:25Z</time>
      </trkpt>
      <trkpt lat="44.77441" lon="6.3246">
        <ele>2147.2</ele>
        <time>2024-08-12T11:33:26Z</time>
      </trkpt>
      <trkpt lat="44.77441" lon="6.3246">
        <ele>2147</ele>
        <time>2024-08-12T11:33:27Z</time>
      </trkpt>
      <trkpt lat="44.77441" lon="6.3246">
        <ele>2147</ele>
        <time>2024-08-12T11:33:28Z</time>
      </trkpt>
      <trkpt lat="44.77441" lon="6.3246">
        <ele>2147</ele>
        <time>2024-08-12T11:33:29Z</time>
      </trkpt>
      <trkpt lat="44.77441" lon="6.3246">
        <ele>2147</ele>
        <time>2024-08-12T11:33:30Z</time>
      </trkpt>
      <trkpt lat="44.77441" lon="6.3246">
        <ele>2147</ele>
        <time>2024-08-12T11:33:31Z</time>
      </trkpt>
      <trkpt lat="44.77441" lon="6.3246">
        <ele>2147.2</ele>
        <time>2024-08-12T11:33:32Z</time>
      </trkpt>
      <trkpt lat="44.77441" lon="6.3246">
        <ele>2147.6</ele>
        <time>2024-08-12T11:33:33Z</time>
      </trkpt>
      <trkpt lat="44.77441" lon="6.3246">
        <ele>2147.6</ele>
        <time>2024-08-12T11:33:34Z</time>
      </trkpt>
      <trkpt lat="44.77441" lon="6.3246">
        <ele>2147.6</ele>
        <time>2024-08-12T11:33:35Z</time>
      </trkpt>
      <trkpt lat="44.77441" lon="6.3246">
        <ele>2147.6</ele>
        <time>2024-08-12T11:33:36Z</time>
      </trkpt>
      <trkpt lat="44.77441" lon="6.3246">
        <ele>2147.2</ele>
        <time>2024-08-12T11:33:37Z</time>
      </trkpt>
      <trkpt lat="44.77441" lon="6.3246">
        <ele>2147.2</ele>
        <time>2024-08-12T11:33:38Z</time>
      </trkpt>
      <trkpt lat="44.77441" lon="6.3246">
        <ele>2147.2</ele>
        <time>2024-08-12T11:33:39Z</time>
      </trkpt>
      <trkpt lat="44.77441" lon="6.32457">
        <ele>2147.4</ele>
        <time>2024-08-12T11:33:40Z</time>
      </trkpt>
      <trkpt lat="44.77441" lon="6.32457">
        <ele>2148.2</ele>
        <time>2024-08-12T11:33:41Z</time>
      </trkpt>
      <trkpt lat="44.77443" lon="6.32456">
        <ele>2148.6</ele>
        <time>2024-08-12T11:33:42Z</time>
      </trkpt>
      <trkpt lat="44.77443" lon="6.32456">
        <ele>2149</ele>
        <time>2024-08-12T11:33:43Z</time>
      </trkpt>
      <trkpt lat="44.77443" lon="6.32456">
        <ele>2149</ele>
        <time>2024-08-12T11:33:44Z</time>
      </trkpt>
      <trkpt lat="44.77445" lon="6.32455">
        <ele>2149.2</ele>
        <time>2024-08-12T11:33:45Z</time>
      </trkpt>
      <trkpt lat="44.77445" lon="6.32455">
        <ele>2149.6</ele>
        <time>2024-08-12T11:33:46Z</time>
      </trkpt>
      <trkpt lat="44.77445" lon="6.32455">
        <ele>2149.8</ele>
        <time>2024-08-12T11:33:47Z</time>
      </trkpt>
      <trkpt lat="44.77445" lon="6.32455">
        <ele>2149.8</ele>
        <time>2024-08-12T11:33:48Z</time>
      </trkpt>
      <trkpt lat="44.77447" lon="6.32454">
        <ele>2150.2</ele>
        <time>2024-08-12T11:33:49Z</time>
      </trkpt>
      <trkpt lat="44.77447" lon="6.32454">
        <ele>2150.4</ele>
        <time>2024-08-12T11:33:50Z</time>
      </trkpt>
      <trkpt lat="44.77447" lon="6.32454">
        <ele>2150.4</ele>
        <time>2024-08-12T11:33:51Z</time>
      </trkpt>
      <trkpt lat="44.77447" lon="6.32454">
        <ele>2150.4</ele>
        <time>2024-08-12T11:33:52Z</time>
      </trkpt>
      <trkpt lat="44.77445" lon="6.32452">
        <ele>2150.6</ele>
        <time>2024-08-12T11:33:53Z</time>
      </trkpt>
      <trkpt lat="44.77445" lon="6.32452">
        <ele>2150.6</ele>
        <time>2024-08-12T11:33:54Z</time>
      </trkpt>
      <trkpt lat="44.77443" lon="6.32452">
        <ele>2150.8</ele>
        <time>2024-08-12T11:33:55Z</time>
      </trkpt>
      <trkpt lat="44.77443" lon="6.32452">
        <ele>2151</ele>
        <time>2024-08-12T11:33:56Z</time>
      </trkpt>
      <trkpt lat="44.77441" lon="6.32451">
        <ele>2151.4</ele>
        <time>2024-08-12T11:33:57Z</time>
      </trkpt>
      <trkpt lat="44.77441" lon="6.32451">
        <ele>2151.4</ele>
        <time>2024-08-12T11:33:58Z</time>
      </trkpt>
      <trkpt lat="44.77439" lon="6.3245">
        <ele>2151.6</ele>
        <time>2024-08-12T11:33:59Z</time>
      </trkpt>
      <trkpt lat="44.77439" lon="6.3245">
        <ele>2151.6</ele>
        <time>2024-08-12T11:34:00Z</time>
      </trkpt>
      <trkpt lat="44.77438" lon="6.32447">
        <ele>2152.2</ele>
        <time>2024-08-12T11:34:01Z</time>
      </trkpt>
      <trkpt lat="44.77438" lon="6.32447">
        <ele>2152.8</ele>
        <time>2024-08-12T11:34:02Z</time>
      </trkpt>
      <trkpt lat="44.77438" lon="6.32444">
        <ele>2152.8</ele>
        <time>2024-08-12T11:34:03Z</time>
      </trkpt>
      <trkpt lat="44.77438" lon="6.32444">
        <ele>2152.8</ele>
        <time>2024-08-12T11:34:04Z</time>
      </trkpt>
      <trkpt lat="44.77438" lon="6.32444">
        <ele>2152.6</ele>
        <time>2024-08-12T11:34:05Z</time>
      </trkpt>
      <trkpt lat="44.7744" lon="6.32442">
        <ele>2152.6</ele>
        <time>2024-08-12T11:34:06Z</time>
      </trkpt>
      <trkpt lat="44.7744" lon="6.32442">
        <ele>2152.8</ele>
        <time>2024-08-12T11:34:07Z</time>
      </trkpt>
      <trkpt lat="44.7744" lon="6.32442">
        <ele>2152.8</ele>
        <time>2024-08-12T11:34:08Z</time>
      </trkpt>
      <trkpt lat="44.77442" lon="6.3244">
        <ele>2153.2</ele>
        <time>2024-08-12T11:34:09Z</time>
      </trkpt>
      <trkpt lat="44.77442" lon="6.3244">
        <ele>2153.2</ele>
        <time>2024-08-12T11:34:10Z</time>
      </trkpt>
      <trkpt lat="44.77442" lon="6.3244">
        <ele>2153.4</ele>
        <time>2024-08-12T11:34:11Z</time>
      </trkpt>
      <trkpt lat="44.77444" lon="6.32441">
        <ele>2153.2</ele>
        <time>2024-08-12T11:34:12Z</time>
      </trkpt>
      <trkpt lat="44.77444" lon="6.32441">
        <ele>2153.4</ele>
        <time>2024-08-12T11:34:13Z</time>
      </trkpt>
      <trkpt lat="44.77444" lon="6.32441">
        <ele>2153.8</ele>
        <time>2024-08-12T11:34:14Z</time>
      </trkpt>
      <trkpt lat="44.77446" lon="6.32441">
        <ele>2154.4</ele>
        <time>2024-08-12T11:34:15Z</time>
      </trkpt>
      <trkpt lat="44.77446" lon="6.32441">
        <ele>2154.4</ele>
        <time>2024-08-12T11:34:16Z</time>
      </trkpt>
      <trkpt lat="44.77446" lon="6.32441">
        <ele>2154.4</ele>
        <time>2024-08-12T11:34:17Z</time>
      </trkpt>
      <trkpt lat="44.77446" lon="6.32441">
        <ele>2154.4</ele>
        <time>2024-08-12T11:34:18Z</time>
      </trkpt>
      <trkpt lat="44.77448" lon="6.32439">
        <ele>2154.4</ele>
        <time>2024-08-12T11:34:19Z</time>
      </trkpt>
      <trkpt lat="44.77448" lon="6.32439">
        <ele>2154.4</ele>
        <time>2024-08-12T11:34:20Z</time>
      </trkpt>
      <trkpt lat="44.77448" lon="6.32439">
        <ele>2154.6</ele>
        <time>2024-08-12T11:34:21Z</time>
      </trkpt>
      <trkpt lat="44.77448" lon="6.32439">
        <ele>2154.8</ele>
        <time>2024-08-12T11:34:22Z</time>
      </trkpt>
      <trkpt lat="44.77449" lon="6.32436">
        <ele>2155.2</ele>
        <time>2024-08-12T11:34:23Z</time>
      </trkpt>
      <trkpt lat="44.77449" lon="6.32436">
        <ele>2155.6</ele>
        <time>2024-08-12T11:34:24Z</time>
      </trkpt>
      <trkpt lat="44.77449" lon="6.32436">
        <ele>2155.8</ele>
        <time>2024-08-12T11:34:25Z</time>
      </trkpt>
      <trkpt lat="44.77448" lon="6.32433">
        <ele>2155.8</ele>
        <time>2024-08-12T11:34:26Z</time>
      </trkpt>
      <trkpt lat="44.77448" lon="6.32433">
        <ele>2156.2</ele>
        <time>2024-08-12T11:34:27Z</time>
      </trkpt>
      <trkpt lat="44.77447" lon="6.3243">
        <ele>2156.2</ele>
        <time>2024-08-12T11:34:28Z</time>
      </trkpt>
      <trkpt lat="44.77447" lon="6.3243">
        <ele>2156.2</ele>
        <time>2024-08-12T11:34:29Z</time>
      </trkpt>
      <trkpt lat="44.77447" lon="6.3243">
        <ele>2156.2</ele>
        <time>2024-08-12T11:34:30Z</time>
      </trkpt>
      <trkpt lat="44.77446" lon="6.32427">
        <ele>2156.4</ele>
        <time>2024-08-12T11:34:31Z</time>
      </trkpt>
      <trkpt lat="44.77446" lon="6.32427">
        <ele>2156.6</ele>
        <time>2024-08-12T11:34:32Z</time>
      </trkpt>
      <trkpt lat="44.77446" lon="6.32427">
        <ele>2156.8</ele>
        <time>2024-08-12T11:34:33Z</time>
      </trkpt>
      <trkpt lat="44.77446" lon="6.32427">
        <ele>2157</ele>
        <time>2024-08-12T11:34:34Z</time>
      </trkpt>
      <trkpt lat="44.77444" lon="6.32426">
        <ele>2157</ele>
        <time>2024-08-12T11:34:35Z</time>
      </trkpt>
      <trkpt lat="44.77444" lon="6.32426">
        <ele>2157.4</ele>
        <time>2024-08-12T11:34:36Z</time>
      </trkpt>
      <trkpt lat="44.77444" lon="6.32426">
        <ele>2157.8</ele>
        <time>2024-08-12T11:34:37Z</time>
      </trkpt>
      <trkpt lat="44.77442" lon="6.32424">
        <ele>2158</ele>
        <time>2024-08-12T11:34:38Z</time>
      </trkpt>
      <trkpt lat="44.77442" lon="6.32424">
        <ele>2158.2</ele>
        <time>2024-08-12T11:34:39Z</time>
      </trkpt>
      <trkpt lat="44.77442" lon="6.32424">
        <ele>2158.4</ele>
        <time>2024-08-12T11:34:40Z</time>
      </trkpt>
      <trkpt lat="44.77442" lon="6.32421">
        <ele>2158.6</ele>
        <time>2024-08-12T11:34:41Z</time>
      </trkpt>
      <trkpt lat="44.77442" lon="6.32421">
        <ele>2159</ele>
        <time>2024-08-12T11:34:42Z</time>
      </trkpt>
      <trkpt lat="44.77442" lon="6.32421">
        <ele>2159.2</ele>
        <time>2024-08-12T11:34:43Z</time>
      </trkpt>
      <trkpt lat="44.77442" lon="6.32421">
        <ele>2159.2</ele>
        <time>2024-08-12T11:34:44Z</time>
      </trkpt>
      <trkpt lat="44.77443" lon="6.32418">
        <ele>2158.8</ele>
        <time>2024-08-12T11:34:45Z</time>
      </trkpt>
      <trkpt lat="44.77443" lon="6.32418">
        <ele>2158.8</ele>
        <time>2024-08-12T11:34:46Z</time>
      </trkpt>
      <trkpt lat="44.77443" lon="6.32418">
        <ele>2159</ele>
        <time>2024-08-12T11:34:47Z</time>
      </trkpt>
      <trkpt lat="44.77443" lon="6.32415">
        <ele>2159.6</ele>
        <time>2024-08-12T11:34:48Z</time>
      </trkpt>
      <trkpt lat="44.77443" lon="6.32415">
        <ele>2160</ele>
        <time>2024-08-12T11:34:49Z</time>
      </trkpt>
      <trkpt lat="44.77444" lon="6.32413">
        <ele>2160.2</ele>
        <time>2024-08-12T11:34:50Z</time>
      </trkpt>
      <trkpt lat="44.77444" lon="6.32413">
        <ele>2160.2</ele>
        <time>2024-08-12T11:34:51Z</time>
      </trkpt>
      <trkpt lat="44.77444" lon="6.32413">
        <ele>2160.2</ele>
        <time>2024-08-12T11:34:52Z</time>
      </trkpt>
      <trkpt lat="44.77444" lon="6.3241">
        <ele>2160.4</ele>
        <time>2024-08-12T11:34:53Z</time>
      </trkpt>
      <trkpt lat="44.77444" lon="6.3241">
        <ele>2160.4</ele>
        <time>2024-08-12T11:34:54Z</time>
      </trkpt>
      <trkpt lat="44.77444" lon="6.3241">
        <ele>2160.4</ele>
        <time>2024-08-12T11:34:55Z</time>
      </trkpt>
      <trkpt lat="44.77444" lon="6.32407">
        <ele>2160.4</ele>
        <time>2024-08-12T11:34:56Z</time>
      </trkpt>
      <trkpt lat="44.77444" lon="6.32407">
        <ele>2161</ele>
        <time>2024-08-12T11:34:57Z</time>
      </trkpt>
      <trkpt lat="44.77444" lon="6.32407">
        <ele>2162.2</ele>
        <time>2024-08-12T11:34:58Z</time>
      </trkpt>
      <trkpt lat="44.77444" lon="6.32404">
        <ele>2162.2</ele>
        <time>2024-08-12T11:34:59Z</time>
      </trkpt>
      <trkpt lat="44.77444" lon="6.32404">
        <ele>2162</ele>
        <time>2024-08-12T11:35:00Z</time>
      </trkpt>
      <trkpt lat="44.77444" lon="6.32404">
        <ele>2162</ele>
        <time>2024-08-12T11:35:01Z</time>
      </trkpt>
      <trkpt lat="44.77444" lon="6.32404">
        <ele>2162.2</ele>
        <time>2024-08-12T11:35:02Z</time>
      </trkpt>
      <trkpt lat="44.77444" lon="6.324">
        <ele>2162.2</ele>
        <time>2024-08-12T11:35:03Z</time>
      </trkpt>
      <trkpt lat="44.77444" lon="6.324">
        <ele>2162.4</ele>
        <time>2024-08-12T11:35:04Z</time>
      </trkpt>
      <trkpt lat="44.77444" lon="6.324">
        <ele>2162.4</ele>
        <time>2024-08-12T11:35:05Z</time>
      </trkpt>
      <trkpt lat="44.77444" lon="6.32397">
        <ele>2162.6</ele>
        <time>2024-08-12T11:35:06Z</time>
      </trkpt>
      <trkpt lat="44.77444" lon="6.32397">
        <ele>2162.8</ele>
        <time>2024-08-12T11:35:07Z</time>
      </trkpt>
      <trkpt lat="44.77444" lon="6.32397">
        <ele>2162.8</ele>
        <time>2024-08-12T11:35:08Z</time>
      </trkpt>
      <trkpt lat="44.77444" lon="6.32397">
        <ele>2163</ele>
        <time>2024-08-12T11:35:09Z</time>
      </trkpt>
      <trkpt lat="44.77445" lon="6.32394">
        <ele>2163</ele>
        <time>2024-08-12T11:35:10Z</time>
      </trkpt>
      <trkpt lat="44.77445" lon="6.32394">
        <ele>2163.2</ele>
        <time>2024-08-12T11:35:11Z</time>
      </trkpt>
      <trkpt lat="44.77445" lon="6.32394">
        <ele>2163.2</ele>
        <time>2024-08-12T11:35:12Z</time>
      </trkpt>
      <trkpt lat="44.77446" lon="6.32392">
        <ele>2163.2</ele>
        <time>2024-08-12T11:35:13Z</time>
      </trkpt>
      <trkpt lat="44.77446" lon="6.32392">
        <ele>2163.6</ele>
        <time>2024-08-12T11:35:14Z</time>
      </trkpt>
      <trkpt lat="44.77446" lon="6.32392">
        <ele>2163.6</ele>
        <time>2024-08-12T11:35:15Z</time>
      </trkpt>
      <trkpt lat="44.77447" lon="6.32389">
        <ele>2164</ele>
        <time>2024-08-12T11:35:16Z</time>
      </trkpt>
      <trkpt lat="44.77447" lon="6.32389">
        <ele>2164.6</ele>
        <time>2024-08-12T11:35:17Z</time>
      </trkpt>
      <trkpt lat="44.77447" lon="6.32389">
        <ele>2165</ele>
        <time>2024-08-12T11:35:18Z</time>
      </trkpt>
      <trkpt lat="44.77448" lon="6.32386">
        <ele>2165.4</ele>
        <time>2024-08-12T11:35:19Z</time>
      </trkpt>
      <trkpt lat="44.77448" lon="6.32386">
        <ele>2165.4</ele>
        <time>2024-08-12T11:35:20Z</time>
      </trkpt>
      <trkpt lat="44.77448" lon="6.32386">
        <ele>2165.4</ele>
        <time>2024-08-12T11:35:21Z</time>
      </trkpt>
      <trkpt lat="44.77448" lon="6.32386">
        <ele>2166</ele>
        <time>2024-08-12T11:35:22Z</time>
      </trkpt>
      <trkpt lat="44.77448" lon="6.32386">
        <ele>2166</ele>
        <time>2024-08-12T11:35:23Z</time>
      </trkpt>
      <trkpt lat="44.77448" lon="6.32386">
        <ele>2166</ele>
        <time>2024-08-12T11:35:24Z</time>
      </trkpt>
      <trkpt lat="44.77448" lon="6.32386">
        <ele>2166</ele>
        <time>2024-08-12T11:35:25Z</time>
      </trkpt>
      <trkpt lat="44.77448" lon="6.32386">
        <ele>2166.4</ele>
        <time>2024-08-12T11:35:26Z</time>
      </trkpt>
      <trkpt lat="44.77448" lon="6.32386">
        <ele>2166.4</ele>
        <time>2024-08-12T11:35:27Z</time>
      </trkpt>
      <trkpt lat="44.77448" lon="6.32386">
        <ele>2166.4</ele>
        <time>2024-08-12T11:35:28Z</time>
      </trkpt>
      <trkpt lat="44.77448" lon="6.32386">
        <ele>2166.2</ele>
        <time>2024-08-12T11:35:29Z</time>
      </trkpt>
      <trkpt lat="44.77448" lon="6.32386">
        <ele>2166.2</ele>
        <time>2024-08-12T11:35:30Z</time>
      </trkpt>
      <trkpt lat="44.77448" lon="6.32386">
        <ele>2166.4</ele>
        <time>2024-08-12T11:35:31Z</time>
      </trkpt>
      <trkpt lat="44.77448" lon="6.32386">
        <ele>2166.4</ele>
        <time>2024-08-12T11:35:32Z</time>
      </trkpt>
      <trkpt lat="44.77448" lon="6.32386">
        <ele>2166.4</ele>
        <time>2024-08-12T11:35:33Z</time>
      </trkpt>
      <trkpt lat="44.77448" lon="6.32386">
        <ele>2166.4</ele>
        <time>2024-08-12T11:35:34Z</time>
      </trkpt>
      <trkpt lat="44.77448" lon="6.32386">
        <ele>2166.8</ele>
        <time>2024-08-12T11:35:35Z</time>
      </trkpt>
      <trkpt lat="44.77448" lon="6.32386">
        <ele>2167</ele>
        <time>2024-08-12T11:35:36Z</time>
      </trkpt>
      <trkpt lat="44.77448" lon="6.32386">
        <ele>2167.2</ele>
        <time>2024-08-12T11:35:37Z</time>
      </trkpt>
      <trkpt lat="44.77448" lon="6.32383">
        <ele>2167.6</ele>
        <time>2024-08-12T11:35:38Z</time>
      </trkpt>
      <trkpt lat="44.77448" lon="6.32383">
        <ele>2167.8</ele>
        <time>2024-08-12T11:35:39Z</time>
      </trkpt>
      <trkpt lat="44.77447" lon="6.3238">
        <ele>2168</ele>
        <time>2024-08-12T11:35:40Z</time>
      </trkpt>
      <trkpt lat="44.77447" lon="6.3238">
        <ele>2168.2</ele>
        <time>2024-08-12T11:35:41Z</time>
      </trkpt>
      <trkpt lat="44.77447" lon="6.32376">
        <ele>2168.2</ele>
        <time>2024-08-12T11:35:42Z</time>
      </trkpt>
      <trkpt lat="44.77447" lon="6.32376">
        <ele>2168.6</ele>
        <time>2024-08-12T11:35:43Z</time>
      </trkpt>
      <trkpt lat="44.77447" lon="6.32374">
        <ele>2168.8</ele>
        <time>2024-08-12T11:35:44Z</time>
      </trkpt>
      <trkpt lat="44.77447" lon="6.32374">
        <ele>2169.2</ele>
        <time>2024-08-12T11:35:45Z</time>
      </trkpt>
      <trkpt lat="44.77449" lon="6.32372">
        <ele>2169.4</ele>
        <time>2024-08-12T11:35:46Z</time>
      </trkpt>
      <trkpt lat="44.77449" lon="6.32372">
        <ele>2169.6</ele>
        <time>2024-08-12T11:35:47Z</time>
      </trkpt>
      <trkpt lat="44.77449" lon="6.32372">
        <ele>2169.6</ele>
        <time>2024-08-12T11:35:48Z</time>
      </trkpt>
      <trkpt lat="44.77451" lon="6.3237">
        <ele>2169.6</ele>
        <time>2024-08-12T11:35:49Z</time>
      </trkpt>
      <trkpt lat="44.77451" lon="6.3237">
        <ele>2169.8</ele>
        <time>2024-08-12T11:35:50Z</time>
      </trkpt>
      <trkpt lat="44.77451" lon="6.3237">
        <ele>2169.4</ele>
        <time>2024-08-12T11:35:51Z</time>
      </trkpt>
      <trkpt lat="44.77453" lon="6.32368">
        <ele>2169.4</ele>
        <time>2024-08-12T11:35:52Z</time>
      </trkpt>
      <trkpt lat="44.77453" lon="6.32368">
        <ele>2169.6</ele>
        <time>2024-08-12T11:35:53Z</time>
      </trkpt>
      <trkpt lat="44.77453" lon="6.32368">
        <ele>2170</ele>
        <time>2024-08-12T11:35:54Z</time>
      </trkpt>
      <trkpt lat="44.77453" lon="6.32368">
        <ele>2170.6</ele>
        <time>2024-08-12T11:35:55Z</time>
      </trkpt>
      <trkpt lat="44.77453" lon="6.32368">
        <ele>2170.8</ele>
        <time>2024-08-12T11:35:56Z</time>
      </trkpt>
      <trkpt lat="44.77453" lon="6.32365">
        <ele>2171</ele>
        <time>2024-08-12T11:35:57Z</time>
      </trkpt>
      <trkpt lat="44.77453" lon="6.32365">
        <ele>2171.2</ele>
        <time>2024-08-12T11:35:58Z</time>
      </trkpt>
      <trkpt lat="44.77453" lon="6.32365">
        <ele>2171.6</ele>
        <time>2024-08-12T11:35:59Z</time>
      </trkpt>
      <trkpt lat="44.77451" lon="6.32363">
        <ele>2171.8</ele>
        <time>2024-08-12T11:36:00Z</time>
      </trkpt>
      <trkpt lat="44.77451" lon="6.32363">
        <ele>2172</ele>
        <time>2024-08-12T11:36:01Z</time>
      </trkpt>
      <trkpt lat="44.77451" lon="6.32363">
        <ele>2172.6</ele>
        <time>2024-08-12T11:36:02Z</time>
      </trkpt>
      <trkpt lat="44.7745" lon="6.32361">
        <ele>2172.6</ele>
        <time>2024-08-12T11:36:03Z</time>
      </trkpt>
      <trkpt lat="44.7745" lon="6.32361">
        <ele>2172.6</ele>
        <time>2024-08-12T11:36:04Z</time>
      </trkpt>
      <trkpt lat="44.77449" lon="6.32358">
        <ele>2172.8</ele>
        <time>2024-08-12T11:36:05Z</time>
      </trkpt>
      <trkpt lat="44.77449" lon="6.32358">
        <ele>2173.2</ele>
        <time>2024-08-12T11:36:06Z</time>
      </trkpt>
      <trkpt lat="44.77449" lon="6.32358">
        <ele>2173.4</ele>
        <time>2024-08-12T11:36:07Z</time>
      </trkpt>
      <trkpt lat="44.77447" lon="6.32355">
        <ele>2173.4</ele>
        <time>2024-08-12T11:36:08Z</time>
      </trkpt>
      <trkpt lat="44.77447" lon="6.32355">
        <ele>2173.4</ele>
        <time>2024-08-12T11:36:09Z</time>
      </trkpt>
      <trkpt lat="44.77447" lon="6.32355">
        <ele>2173.4</ele>
        <time>2024-08-12T11:36:10Z</time>
      </trkpt>
      <trkpt lat="44.77446" lon="6.32351">
        <ele>2173.4</ele>
        <time>2024-08-12T11:36:11Z</time>
      </trkpt>
      <trkpt lat="44.77446" lon="6.32351">
        <ele>2173.2</ele>
        <time>2024-08-12T11:36:12Z</time>
      </trkpt>
      <trkpt lat="44.77446" lon="6.32351">
        <ele>2173.2</ele>
        <time>2024-08-12T11:36:13Z</time>
      </trkpt>
      <trkpt lat="44.77446" lon="6.32348">
        <ele>2173.4</ele>
        <time>2024-08-12T11:36:14Z</time>
      </trkpt>
      <trkpt lat="44.77446" lon="6.32348">
        <ele>2173.6</ele>
        <time>2024-08-12T11:36:15Z</time>
      </trkpt>
      <trkpt lat="44.77446" lon="6.32348">
        <ele>2173.8</ele>
        <time>2024-08-12T11:36:16Z</time>
      </trkpt>
      <trkpt lat="44.77445" lon="6.32345">
        <ele>2173.8</ele>
        <time>2024-08-12T11:36:17Z</time>
      </trkpt>
      <trkpt lat="44.77445" lon="6.32345">
        <ele>2174.2</ele>
        <time>2024-08-12T11:36:18Z</time>
      </trkpt>
      <trkpt lat="44.77445" lon="6.32345">
        <ele>2174.2</ele>
        <time>2024-08-12T11:36:19Z</time>
      </trkpt>
      <trkpt lat="44.77445" lon="6.32342">
        <ele>2174.4</ele>
        <time>2024-08-12T11:36:20Z</time>
      </trkpt>
      <trkpt lat="44.77445" lon="6.32342">
        <ele>2174.4</ele>
        <time>2024-08-12T11:36:21Z</time>
      </trkpt>
      <trkpt lat="44.77445" lon="6.32342">
        <ele>2174.6</ele>
        <time>2024-08-12T11:36:22Z</time>
      </trkpt>
      <trkpt lat="44.77443" lon="6.32338">
        <ele>2175</ele>
        <time>2024-08-12T11:36:23Z</time>
      </trkpt>
      <trkpt lat="44.77443" lon="6.32338">
        <ele>2175.4</ele>
        <time>2024-08-12T11:36:24Z</time>
      </trkpt>
      <trkpt lat="44.77443" lon="6.32338">
        <ele>2176.2</ele>
        <time>2024-08-12T11:36:25Z</time>
      </trkpt>
      <trkpt lat="44.77443" lon="6.32335">
        <ele>2176.4</ele>
        <time>2024-08-12T11:36:26Z</time>
      </trkpt>
      <trkpt lat="44.77443" lon="6.32335">
        <ele>2176.4</ele>
        <time>2024-08-12T11:36:27Z</time>
      </trkpt>
      <trkpt lat="44.77443" lon="6.32335">
        <ele>2176.4</ele>
        <time>2024-08-12T11:36:28Z</time>
      </trkpt>
      <trkpt lat="44.77442" lon="6.32332">
        <ele>2176.2</ele>
        <time>2024-08-12T11:36:29Z</time>
      </trkpt>
      <trkpt lat="44.77442" lon="6.32332">
        <ele>2175.8</ele>
        <time>2024-08-12T11:36:30Z</time>
      </trkpt>
      <trkpt lat="44.77442" lon="6.32332">
        <ele>2175.8</ele>
        <time>2024-08-12T11:36:31Z</time>
      </trkpt>
      <trkpt lat="44.77441" lon="6.32329">
        <ele>2176</ele>
        <time>2024-08-12T11:36:32Z</time>
      </trkpt>
      <trkpt lat="44.77441" lon="6.32329">
        <ele>2176</ele>
        <time>2024-08-12T11:36:33Z</time>
      </trkpt>
      <trkpt lat="44.77441" lon="6.32329">
        <ele>2176</ele>
        <time>2024-08-12T11:36:34Z</time>
      </trkpt>
      <trkpt lat="44.7744" lon="6.32326">
        <ele>2176.6</ele>
        <time>2024-08-12T11:36:35Z</time>
      </trkpt>
      <trkpt lat="44.7744" lon="6.32326">
        <ele>2177</ele>
        <time>2024-08-12T11:36:36Z</time>
      </trkpt>
      <trkpt lat="44.7744" lon="6.32326">
        <ele>2177</ele>
        <time>2024-08-12T11:36:37Z</time>
      </trkpt>
      <trkpt lat="44.7744" lon="6.32326">
        <ele>2177.2</ele>
        <time>2024-08-12T11:36:38Z</time>
      </trkpt>
      <trkpt lat="44.77439" lon="6.32322">
        <ele>2177.2</ele>
        <time>2024-08-12T11:36:39Z</time>
      </trkpt>
      <trkpt lat="44.77439" lon="6.32322">
        <ele>2177.2</ele>
        <time>2024-08-12T11:36:40Z</time>
      </trkpt>
      <trkpt lat="44.77439" lon="6.3232">
        <ele>2177.4</ele>
        <time>2024-08-12T11:36:41Z</time>
      </trkpt>
      <trkpt lat="44.77439" lon="6.3232">
        <ele>2177.6</ele>
        <time>2024-08-12T11:36:42Z</time>
      </trkpt>
      <trkpt lat="44.77439" lon="6.3232">
        <ele>2177.6</ele>
        <time>2024-08-12T11:36:43Z</time>
      </trkpt>
      <trkpt lat="44.77437" lon="6.32316">
        <ele>2177.8</ele>
        <time>2024-08-12T11:36:44Z</time>
      </trkpt>
      <trkpt lat="44.77437" lon="6.32316">
        <ele>2177.8</ele>
        <time>2024-08-12T11:36:45Z</time>
      </trkpt>
      <trkpt lat="44.77437" lon="6.32316">
        <ele>2177.8</ele>
        <time>2024-08-12T11:36:46Z</time>
      </trkpt>
      <trkpt lat="44.77436" lon="6.32314">
        <ele>2178</ele>
        <time>2024-08-12T11:36:47Z</time>
      </trkpt>
      <trkpt lat="44.77436" lon="6.32314">
        <ele>2178.6</ele>
        <time>2024-08-12T11:36:48Z</time>
      </trkpt>
      <trkpt lat="44.77435" lon="6.32312">
        <ele>2178.6</ele>
        <time>2024-08-12T11:36:49Z</time>
      </trkpt>
      <trkpt lat="44.77435" lon="6.32312">
        <ele>2178.6</ele>
        <time>2024-08-12T11:36:50Z</time>
      </trkpt>
      <trkpt lat="44.77435" lon="6.32312">
        <ele>2178.6</ele>
        <time>2024-08-12T11:36:51Z</time>
      </trkpt>
      <trkpt lat="44.77433" lon="6.32309">
        <ele>2178.6</ele>
        <time>2024-08-12T11:36:52Z</time>
      </trkpt>
      <trkpt lat="44.77433" lon="6.32309">
        <ele>2178.8</ele>
        <time>2024-08-12T11:36:53Z</time>
      </trkpt>
      <trkpt lat="44.77432" lon="6.32306">
        <ele>2179</ele>
        <time>2024-08-12T11:36:54Z</time>
      </trkpt>
      <trkpt lat="44.77432" lon="6.32306">
        <ele>2179.2</ele>
        <time>2024-08-12T11:36:55Z</time>
      </trkpt>
      <trkpt lat="44.77432" lon="6.32306">
        <ele>2179.2</ele>
        <time>2024-08-12T11:36:56Z</time>
      </trkpt>
      <trkpt lat="44.7743" lon="6.32303">
        <ele>2179.2</ele>
        <time>2024-08-12T11:36:57Z</time>
      </trkpt>
      <trkpt lat="44.7743" lon="6.32303">
        <ele>2179.2</ele>
        <time>2024-08-12T11:36:58Z</time>
      </trkpt>
      <trkpt lat="44.7743" lon="6.32303">
        <ele>2179.6</ele>
        <time>2024-08-12T11:36:59Z</time>
      </trkpt>
      <trkpt lat="44.7743" lon="6.32299">
        <ele>2180</ele>
        <time>2024-08-12T11:37:00Z</time>
      </trkpt>
      <trkpt lat="44.7743" lon="6.32299">
        <ele>2180.2</ele>
        <time>2024-08-12T11:37:01Z</time>
      </trkpt>
      <trkpt lat="44.77429" lon="6.32297">
        <ele>2180.4</ele>
        <time>2024-08-12T11:37:02Z</time>
      </trkpt>
      <trkpt lat="44.77429" lon="6.32297">
        <ele>2180.4</ele>
        <time>2024-08-12T11:37:03Z</time>
      </trkpt>
      <trkpt lat="44.77429" lon="6.32297">
        <ele>2180.4</ele>
        <time>2024-08-12T11:37:04Z</time>
      </trkpt>
      <trkpt lat="44.77429" lon="6.32297">
        <ele>2180.4</ele>
        <time>2024-08-12T11:37:05Z</time>
      </trkpt>
      <trkpt lat="44.77428" lon="6.32294">
        <ele>2180.6</ele>
        <time>2024-08-12T11:37:06Z</time>
      </trkpt>
      <trkpt lat="44.77428" lon="6.32294">
        <ele>2180.6</ele>
        <time>2024-08-12T11:37:07Z</time>
      </trkpt>
      <trkpt lat="44.77428" lon="6.32294">
        <ele>2180.8</ele>
        <time>2024-08-12T11:37:08Z</time>
      </trkpt>
      <trkpt lat="44.77427" lon="6.32291">
        <ele>2181.2</ele>
        <time>2024-08-12T11:37:09Z</time>
      </trkpt>
      <trkpt lat="44.77427" lon="6.32291">
        <ele>2181.4</ele>
        <time>2024-08-12T11:37:10Z</time>
      </trkpt>
      <trkpt lat="44.77427" lon="6.32291">
        <ele>2181.6</ele>
        <time>2024-08-12T11:37:11Z</time>
      </trkpt>
      <trkpt lat="44.77426" lon="6.32288">
        <ele>2181.8</ele>
        <time>2024-08-12T11:37:12Z</time>
      </trkpt>
      <trkpt lat="44.77426" lon="6.32288">
        <ele>2182</ele>
        <time>2024-08-12T11:37:13Z</time>
      </trkpt>
      <trkpt lat="44.77426" lon="6.32288">
        <ele>2182.4</ele>
        <time>2024-08-12T11:37:14Z</time>
      </trkpt>
      <trkpt lat="44.77425" lon="6.32285">
        <ele>2182.6</ele>
        <time>2024-08-12T11:37:15Z</time>
      </trkpt>
      <trkpt lat="44.77425" lon="6.32285">
        <ele>2182.6</ele>
        <time>2024-08-12T11:37:16Z</time>
      </trkpt>
      <trkpt lat="44.77424" lon="6.32283">
        <ele>2182.6</ele>
        <time>2024-08-12T11:37:17Z</time>
      </trkpt>
      <trkpt lat="44.77424" lon="6.32283">
        <ele>2183.2</ele>
        <time>2024-08-12T11:37:18Z</time>
      </trkpt>
      <trkpt lat="44.77424" lon="6.32283">
        <ele>2183.4</ele>
        <time>2024-08-12T11:37:19Z</time>
      </trkpt>
      <trkpt lat="44.77424" lon="6.32283">
        <ele>2183.6</ele>
        <time>2024-08-12T11:37:20Z</time>
      </trkpt>
      <trkpt lat="44.77423" lon="6.3228">
        <ele>2183.8</ele>
        <time>2024-08-12T11:37:21Z</time>
      </trkpt>
      <trkpt lat="44.77423" lon="6.3228">
        <ele>2183.8</ele>
        <time>2024-08-12T11:37:22Z</time>
      </trkpt>
      <trkpt lat="44.77423" lon="6.3228">
        <ele>2183.8</ele>
        <time>2024-08-12T11:37:23Z</time>
      </trkpt>
      <trkpt lat="44.77423" lon="6.3228">
        <ele>2184.2</ele>
        <time>2024-08-12T11:37:24Z</time>
      </trkpt>
      <trkpt lat="44.77422" lon="6.32277">
        <ele>2184.4</ele>
        <time>2024-08-12T11:37:25Z</time>
      </trkpt>
      <trkpt lat="44.77422" lon="6.32277">
        <ele>2185.2</ele>
        <time>2024-08-12T11:37:26Z</time>
      </trkpt>
      <trkpt lat="44.77422" lon="6.32277">
        <ele>2185.6</ele>
        <time>2024-08-12T11:37:27Z</time>
      </trkpt>
      <trkpt lat="44.77422" lon="6.32277">
        <ele>2185.8</ele>
        <time>2024-08-12T11:37:28Z</time>
      </trkpt>
      <trkpt lat="44.77421" lon="6.32275">
        <ele>2186</ele>
        <time>2024-08-12T11:37:29Z</time>
      </trkpt>
      <trkpt lat="44.77421" lon="6.32275">
        <ele>2186</ele>
        <time>2024-08-12T11:37:30Z</time>
      </trkpt>
      <trkpt lat="44.77421" lon="6.32275">
        <ele>2186.4</ele>
        <time>2024-08-12T11:37:31Z</time>
      </trkpt>
      <trkpt lat="44.7742" lon="6.32273">
        <ele>2186.4</ele>
        <time>2024-08-12T11:37:32Z</time>
      </trkpt>
      <trkpt lat="44.7742" lon="6.32273">
        <ele>2186.6</ele>
        <time>2024-08-12T11:37:33Z</time>
      </trkpt>
      <trkpt lat="44.77419" lon="6.32271">
        <ele>2186.4</ele>
        <time>2024-08-12T11:37:34Z</time>
      </trkpt>
      <trkpt lat="44.77419" lon="6.32271">
        <ele>2186.4</ele>
        <time>2024-08-12T11:37:35Z</time>
      </trkpt>
      <trkpt lat="44.77419" lon="6.32271">
        <ele>2186</ele>
        <time>2024-08-12T11:37:36Z</time>
      </trkpt>
      <trkpt lat="44.77417" lon="6.32268">
        <ele>2186</ele>
        <time>2024-08-12T11:37:37Z</time>
      </trkpt>
      <trkpt lat="44.77417" lon="6.32268">
        <ele>2186.2</ele>
        <time>2024-08-12T11:37:38Z</time>
      </trkpt>
      <trkpt lat="44.77417" lon="6.32268">
        <ele>2186.4</ele>
        <time>2024-08-12T11:37:39Z</time>
      </trkpt>
      <trkpt lat="44.77415" lon="6.32266">
        <ele>2186.6</ele>
        <time>2024-08-12T11:37:40Z</time>
      </trkpt>
      <trkpt lat="44.77415" lon="6.32266">
        <ele>2186.8</ele>
        <time>2024-08-12T11:37:41Z</time>
      </trkpt>
      <trkpt lat="44.77415" lon="6.32266">
        <ele>2187.2</ele>
        <time>2024-08-12T11:37:42Z</time>
      </trkpt>
      <trkpt lat="44.77414" lon="6.32262">
        <ele>2187.2</ele>
        <time>2024-08-12T11:37:43Z</time>
      </trkpt>
      <trkpt lat="44.77414" lon="6.32262">
        <ele>2187.4</ele>
        <time>2024-08-12T11:37:44Z</time>
      </trkpt>
      <trkpt lat="44.77414" lon="6.32262">
        <ele>2187.2</ele>
        <time>2024-08-12T11:37:45Z</time>
      </trkpt>
      <trkpt lat="44.77412" lon="6.32261">
        <ele>2187.4</ele>
        <time>2024-08-12T11:37:46Z</time>
      </trkpt>
      <trkpt lat="44.77412" lon="6.32261">
        <ele>2187.4</ele>
        <time>2024-08-12T11:37:47Z</time>
      </trkpt>
      <trkpt lat="44.77412" lon="6.32261">
        <ele>2187.6</ele>
        <time>2024-08-12T11:37:48Z</time>
      </trkpt>
      <trkpt lat="44.77411" lon="6.32258">
        <ele>2187.8</ele>
        <time>2024-08-12T11:37:49Z</time>
      </trkpt>
      <trkpt lat="44.77411" lon="6.32258">
        <ele>2188.2</ele>
        <time>2024-08-12T11:37:50Z</time>
      </trkpt>
      <trkpt lat="44.77411" lon="6.32258">
        <ele>2188.4</ele>
        <time>2024-08-12T11:37:51Z</time>
      </trkpt>
      <trkpt lat="44.7741" lon="6.32256">
        <ele>2188.6</ele>
        <time>2024-08-12T11:37:52Z</time>
      </trkpt>
      <trkpt lat="44.7741" lon="6.32256">
        <ele>2188.6</ele>
        <time>2024-08-12T11:37:53Z</time>
      </trkpt>
      <trkpt lat="44.7741" lon="6.32256">
        <ele>2188.8</ele>
        <time>2024-08-12T11:37:54Z</time>
      </trkpt>
      <trkpt lat="44.7741" lon="6.32256">
        <ele>2189</ele>
        <time>2024-08-12T11:37:55Z</time>
      </trkpt>
      <trkpt lat="44.77409" lon="6.32253">
        <ele>2189</ele>
        <time>2024-08-12T11:37:56Z</time>
      </trkpt>
      <trkpt lat="44.77409" lon="6.32253">
        <ele>2189.2</ele>
        <time>2024-08-12T11:37:57Z</time>
      </trkpt>
      <trkpt lat="44.77409" lon="6.32253">
        <ele>2189.4</ele>
        <time>2024-08-12T11:37:58Z</time>
      </trkpt>
      <trkpt lat="44.77407" lon="6.32251">
        <ele>2189.6</ele>
        <time>2024-08-12T11:37:59Z</time>
      </trkpt>
      <trkpt lat="44.77407" lon="6.32251">
        <ele>2190</ele>
        <time>2024-08-12T11:38:00Z</time>
      </trkpt>
      <trkpt lat="44.77407" lon="6.32251">
        <ele>2190.2</ele>
        <time>2024-08-12T11:38:01Z</time>
      </trkpt>
      <trkpt lat="44.77406" lon="6.32249">
        <ele>2190</ele>
        <time>2024-08-12T11:38:02Z</time>
      </trkpt>
      <trkpt lat="44.77406" lon="6.32249">
        <ele>2190</ele>
        <time>2024-08-12T11:38:03Z</time>
      </trkpt>
      <trkpt lat="44.77406" lon="6.32249">
        <ele>2190.4</ele>
        <time>2024-08-12T11:38:04Z</time>
      </trkpt>
      <trkpt lat="44.77405" lon="6.32247">
        <ele>2190.8</ele>
        <time>2024-08-12T11:38:05Z</time>
      </trkpt>
      <trkpt lat="44.77405" lon="6.32247">
        <ele>2191</ele>
        <time>2024-08-12T11:38:06Z</time>
      </trkpt>
      <trkpt lat="44.77405" lon="6.32247">
        <ele>2191</ele>
        <time>2024-08-12T11:38:07Z</time>
      </trkpt>
      <trkpt lat="44.77405" lon="6.32247">
        <ele>2191.2</ele>
        <time>2024-08-12T11:38:08Z</time>
      </trkpt>
      <trkpt lat="44.77404" lon="6.32244">
        <ele>2191.4</ele>
        <time>2024-08-12T11:38:09Z</time>
      </trkpt>
      <trkpt lat="44.77404" lon="6.32244">
        <ele>2191.4</ele>
        <time>2024-08-12T11:38:10Z</time>
      </trkpt>
      <trkpt lat="44.77404" lon="6.32244">
        <ele>2191.6</ele>
        <time>2024-08-12T11:38:11Z</time>
      </trkpt>
      <trkpt lat="44.77403" lon="6.32242">
        <ele>2191.6</ele>
        <time>2024-08-12T11:38:12Z</time>
      </trkpt>
      <trkpt lat="44.77403" lon="6.32242">
        <ele>2191.8</ele>
        <time>2024-08-12T11:38:13Z</time>
      </trkpt>
      <trkpt lat="44.77403" lon="6.32242">
        <ele>2191.8</ele>
        <time>2024-08-12T11:38:14Z</time>
      </trkpt>
      <trkpt lat="44.77401" lon="6.3224">
        <ele>2191.8</ele>
        <time>2024-08-12T11:38:15Z</time>
      </trkpt>
      <trkpt lat="44.77401" lon="6.3224">
        <ele>2192</ele>
        <time>2024-08-12T11:38:16Z</time>
      </trkpt>
      <trkpt lat="44.77401" lon="6.3224">
        <ele>2192.2</ele>
        <time>2024-08-12T11:38:17Z</time>
      </trkpt>
      <trkpt lat="44.774" lon="6.32238">
        <ele>2192.2</ele>
        <time>2024-08-12T11:38:18Z</time>
      </trkpt>
      <trkpt lat="44.774" lon="6.32238">
        <ele>2192.4</ele>
        <time>2024-08-12T11:38:19Z</time>
      </trkpt>
      <trkpt lat="44.774" lon="6.32238">
        <ele>2192.8</ele>
        <time>2024-08-12T11:38:20Z</time>
      </trkpt>
      <trkpt lat="44.77398" lon="6.32235">
        <ele>2193</ele>
        <time>2024-08-12T11:38:21Z</time>
      </trkpt>
      <trkpt lat="44.77398" lon="6.32235">
        <ele>2193</ele>
        <time>2024-08-12T11:38:22Z</time>
      </trkpt>
      <trkpt lat="44.77398" lon="6.32235">
        <ele>2193</ele>
        <time>2024-08-12T11:38:23Z</time>
      </trkpt>
      <trkpt lat="44.77397" lon="6.32233">
        <ele>2193.2</ele>
        <time>2024-08-12T11:38:24Z</time>
      </trkpt>
      <trkpt lat="44.77397" lon="6.32233">
        <ele>2193.2</ele>
        <time>2024-08-12T11:38:25Z</time>
      </trkpt>
      <trkpt lat="44.77397" lon="6.32233">
        <ele>2193.4</ele>
        <time>2024-08-12T11:38:26Z</time>
      </trkpt>
      <trkpt lat="44.77396" lon="6.3223">
        <ele>2193.8</ele>
        <time>2024-08-12T11:38:27Z</time>
      </trkpt>
      <trkpt lat="44.77396" lon="6.3223">
        <ele>2193.8</ele>
        <time>2024-08-12T11:38:28Z</time>
      </trkpt>
      <trkpt lat="44.77396" lon="6.3223">
        <ele>2193.8</ele>
        <time>2024-08-12T11:38:29Z</time>
      </trkpt>
      <trkpt lat="44.77395" lon="6.32228">
        <ele>2194</ele>
        <time>2024-08-12T11:38:30Z</time>
      </trkpt>
      <trkpt lat="44.77395" lon="6.32228">
        <ele>2194.2</ele>
        <time>2024-08-12T11:38:31Z</time>
      </trkpt>
      <trkpt lat="44.77395" lon="6.32228">
        <ele>2194.6</ele>
        <time>2024-08-12T11:38:32Z</time>
      </trkpt>
      <trkpt lat="44.77395" lon="6.32225">
        <ele>2194.6</ele>
        <time>2024-08-12T11:38:33Z</time>
      </trkpt>
      <trkpt lat="44.77395" lon="6.32225">
        <ele>2194.6</ele>
        <time>2024-08-12T11:38:34Z</time>
      </trkpt>
      <trkpt lat="44.77393" lon="6.32223">
        <ele>2194.8</ele>
        <time>2024-08-12T11:38:35Z</time>
      </trkpt>
      <trkpt lat="44.77393" lon="6.32223">
        <ele>2195</ele>
        <time>2024-08-12T11:38:36Z</time>
      </trkpt>
      <trkpt lat="44.77393" lon="6.32223">
        <ele>2195.4</ele>
        <time>2024-08-12T11:38:37Z</time>
      </trkpt>
      <trkpt lat="44.77392" lon="6.32221">
        <ele>2195.4</ele>
        <time>2024-08-12T11:38:38Z</time>
      </trkpt>
      <trkpt lat="44.77392" lon="6.32221">
        <ele>2195.4</ele>
        <time>2024-08-12T11:38:39Z</time>
      </trkpt>
      <trkpt lat="44.77392" lon="6.32221">
        <ele>2194.6</ele>
        <time>2024-08-12T11:38:40Z</time>
      </trkpt>
      <trkpt lat="44.77392" lon="6.32221">
        <ele>2194.6</ele>
        <time>2024-08-12T11:38:41Z</time>
      </trkpt>
      <trkpt lat="44.77392" lon="6.32221">
        <ele>2194.4</ele>
        <time>2024-08-12T11:38:42Z</time>
      </trkpt>
      <trkpt lat="44.77392" lon="6.32221">
        <ele>2194.4</ele>
        <time>2024-08-12T11:38:43Z</time>
      </trkpt>
      <trkpt lat="44.7739" lon="6.3222">
        <ele>2194.4</ele>
        <time>2024-08-12T11:38:44Z</time>
      </trkpt>
      <trkpt lat="44.7739" lon="6.3222">
        <ele>2194.4</ele>
        <time>2024-08-12T11:38:45Z</time>
      </trkpt>
      <trkpt lat="44.77388" lon="6.32218">
        <ele>2194.8</ele>
        <time>2024-08-12T11:38:46Z</time>
      </trkpt>
      <trkpt lat="44.77388" lon="6.32218">
        <ele>2195.4</ele>
        <time>2024-08-12T11:38:47Z</time>
      </trkpt>
      <trkpt lat="44.77385" lon="6.32216">
        <ele>2195.6</ele>
        <time>2024-08-12T11:38:48Z</time>
      </trkpt>
      <trkpt lat="44.77385" lon="6.32216">
        <ele>2195.6</ele>
        <time>2024-08-12T11:38:49Z</time>
      </trkpt>
      <trkpt lat="44.77385" lon="6.32216">
        <ele>2195.6</ele>
        <time>2024-08-12T11:38:50Z</time>
      </trkpt>
      <trkpt lat="44.77383" lon="6.32215">
        <ele>2195.8</ele>
        <time>2024-08-12T11:38:51Z</time>
      </trkpt>
      <trkpt lat="44.77383" lon="6.32215">
        <ele>2196.2</ele>
        <time>2024-08-12T11:38:52Z</time>
      </trkpt>
      <trkpt lat="44.77383" lon="6.32215">
        <ele>2196.4</ele>
        <time>2024-08-12T11:38:53Z</time>
      </trkpt>
      <trkpt lat="44.77383" lon="6.32215">
        <ele>2196.6</ele>
        <time>2024-08-12T11:38:54Z</time>
      </trkpt>
      <trkpt lat="44.77381" lon="6.32214">
        <ele>2197</ele>
        <time>2024-08-12T11:38:55Z</time>
      </trkpt>
      <trkpt lat="44.77381" lon="6.32214">
        <ele>2197.2</ele>
        <time>2024-08-12T11:38:56Z</time>
      </trkpt>
      <trkpt lat="44.77381" lon="6.32214">
        <ele>2197.2</ele>
        <time>2024-08-12T11:38:57Z</time>
      </trkpt>
      <trkpt lat="44.77379" lon="6.32212">
        <ele>2197.4</ele>
        <time>2024-08-12T11:38:58Z</time>
      </trkpt>
      <trkpt lat="44.77379" lon="6.32212">
        <ele>2197.4</ele>
        <time>2024-08-12T11:38:59Z</time>
      </trkpt>
      <trkpt lat="44.77377" lon="6.32211">
        <ele>2197.6</ele>
        <time>2024-08-12T11:39:00Z</time>
      </trkpt>
      <trkpt lat="44.77377" lon="6.32211">
        <ele>2197.6</ele>
        <time>2024-08-12T11:39:01Z</time>
      </trkpt>
      <trkpt lat="44.77377" lon="6.32211">
        <ele>2197.6</ele>
        <time>2024-08-12T11:39:02Z</time>
      </trkpt>
      <trkpt lat="44.77374" lon="6.32211">
        <ele>2197.6</ele>
        <time>2024-08-12T11:39:03Z</time>
      </trkpt>
      <trkpt lat="44.77374" lon="6.32211">
        <ele>2197.6</ele>
        <time>2024-08-12T11:39:04Z</time>
      </trkpt>
      <trkpt lat="44.77372" lon="6.3221">
        <ele>2197.6</ele>
        <time>2024-08-12T11:39:05Z</time>
      </trkpt>
      <trkpt lat="44.77372" lon="6.3221">
        <ele>2197.6</ele>
        <time>2024-08-12T11:39:06Z</time>
      </trkpt>
      <trkpt lat="44.77372" lon="6.3221">
        <ele>2197.8</ele>
        <time>2024-08-12T11:39:07Z</time>
      </trkpt>
      <trkpt lat="44.7737" lon="6.32208">
        <ele>2198.2</ele>
        <time>2024-08-12T11:39:08Z</time>
      </trkpt>
      <trkpt lat="44.7737" lon="6.32208">
        <ele>2198.4</ele>
        <time>2024-08-12T11:39:09Z</time>
      </trkpt>
      <trkpt lat="44.7737" lon="6.32208">
        <ele>2198.6</ele>
        <time>2024-08-12T11:39:10Z</time>
      </trkpt>
      <trkpt lat="44.77368" lon="6.32205">
        <ele>2199</ele>
        <time>2024-08-12T11:39:11Z</time>
      </trkpt>
      <trkpt lat="44.77368" lon="6.32205">
        <ele>2199.2</ele>
        <time>2024-08-12T11:39:12Z</time>
      </trkpt>
      <trkpt lat="44.77368" lon="6.32205">
        <ele>2199.2</ele>
        <time>2024-08-12T11:39:13Z</time>
      </trkpt>
      <trkpt lat="44.77366" lon="6.32202">
        <ele>2199.6</ele>
        <time>2024-08-12T11:39:14Z</time>
      </trkpt>
      <trkpt lat="44.77366" lon="6.32202">
        <ele>2199.6</ele>
        <time>2024-08-12T11:39:15Z</time>
      </trkpt>
      <trkpt lat="44.77365" lon="6.322">
        <ele>2199.6</ele>
        <time>2024-08-12T11:39:16Z</time>
      </trkpt>
      <trkpt lat="44.77365" lon="6.322">
        <ele>2199.6</ele>
        <time>2024-08-12T11:39:17Z</time>
      </trkpt>
      <trkpt lat="44.77365" lon="6.322">
        <ele>2200</ele>
        <time>2024-08-12T11:39:18Z</time>
      </trkpt>
      <trkpt lat="44.77365" lon="6.32197">
        <ele>2200.2</ele>
        <time>2024-08-12T11:39:19Z</time>
      </trkpt>
      <trkpt lat="44.77365" lon="6.32197">
        <ele>2200.2</ele>
        <time>2024-08-12T11:39:20Z</time>
      </trkpt>
      <trkpt lat="44.77364" lon="6.32194">
        <ele>2200.2</ele>
        <time>2024-08-12T11:39:21Z</time>
      </trkpt>
      <trkpt lat="44.77364" lon="6.32194">
        <ele>2200.4</ele>
        <time>2024-08-12T11:39:22Z</time>
      </trkpt>
      <trkpt lat="44.77364" lon="6.32194">
        <ele>2200.6</ele>
        <time>2024-08-12T11:39:23Z</time>
      </trkpt>
      <trkpt lat="44.77363" lon="6.32191">
        <ele>2200.8</ele>
        <time>2024-08-12T11:39:24Z</time>
      </trkpt>
      <trkpt lat="44.77363" lon="6.32191">
        <ele>2201</ele>
        <time>2024-08-12T11:39:25Z</time>
      </trkpt>
      <trkpt lat="44.77363" lon="6.32191">
        <ele>2201.2</ele>
        <time>2024-08-12T11:39:26Z</time>
      </trkpt>
      <trkpt lat="44.77363" lon="6.32187">
        <ele>2201.2</ele>
        <time>2024-08-12T11:39:27Z</time>
      </trkpt>
      <trkpt lat="44.77363" lon="6.32187">
        <ele>2201.4</ele>
        <time>2024-08-12T11:39:28Z</time>
      </trkpt>
      <trkpt lat="44.77363" lon="6.32187">
        <ele>2201.4</ele>
        <time>2024-08-12T11:39:29Z</time>
      </trkpt>
      <trkpt lat="44.77363" lon="6.32184">
        <ele>2201.6</ele>
        <time>2024-08-12T11:39:30Z</time>
      </trkpt>
      <trkpt lat="44.77363" lon="6.32184">
        <ele>2201.6</ele>
        <time>2024-08-12T11:39:31Z</time>
      </trkpt>
      <trkpt lat="44.77364" lon="6.32182">
        <ele>2201.6</ele>
        <time>2024-08-12T11:39:32Z</time>
      </trkpt>
      <trkpt lat="44.77364" lon="6.32182">
        <ele>2201.8</ele>
        <time>2024-08-12T11:39:33Z</time>
      </trkpt>
      <trkpt lat="44.77364" lon="6.32182">
        <ele>2202</ele>
        <time>2024-08-12T11:39:34Z</time>
      </trkpt>
      <trkpt lat="44.77364" lon="6.32182">
        <ele>2202.2</ele>
        <time>2024-08-12T11:39:35Z</time>
      </trkpt>
      <trkpt lat="44.77363" lon="6.32179">
        <ele>2202.2</ele>
        <time>2024-08-12T11:39:36Z</time>
      </trkpt>
      <trkpt lat="44.77363" lon="6.32179">
        <ele>2202.4</ele>
        <time>2024-08-12T11:39:37Z</time>
      </trkpt>
      <trkpt lat="44.77363" lon="6.32179">
        <ele>2202.6</ele>
        <time>2024-08-12T11:39:38Z</time>
      </trkpt>
      <trkpt lat="44.77363" lon="6.32176">
        <ele>2202.8</ele>
        <time>2024-08-12T11:39:39Z</time>
      </trkpt>
      <trkpt lat="44.77363" lon="6.32176">
        <ele>2203.2</ele>
        <time>2024-08-12T11:39:40Z</time>
      </trkpt>
      <trkpt lat="44.77363" lon="6.32176">
        <ele>2203.4</ele>
        <time>2024-08-12T11:39:41Z</time>
      </trkpt>
      <trkpt lat="44.77364" lon="6.32173">
        <ele>2203.8</ele>
        <time>2024-08-12T11:39:42Z</time>
      </trkpt>
      <trkpt lat="44.77364" lon="6.32173">
        <ele>2204</ele>
        <time>2024-08-12T11:39:43Z</time>
      </trkpt>
      <trkpt lat="44.77364" lon="6.32173">
        <ele>2204</ele>
        <time>2024-08-12T11:39:44Z</time>
      </trkpt>
      <trkpt lat="44.77366" lon="6.32174">
        <ele>2204.2</ele>
        <time>2024-08-12T11:39:45Z</time>
      </trkpt>
      <trkpt lat="44.77366" lon="6.32174">
        <ele>2204.2</ele>
        <time>2024-08-12T11:39:46Z</time>
      </trkpt>
      <trkpt lat="44.77366" lon="6.32174">
        <ele>2204.8</ele>
        <time>2024-08-12T11:39:47Z</time>
      </trkpt>
      <trkpt lat="44.77368" lon="6.32176">
        <ele>2204.8</ele>
        <time>2024-08-12T11:39:48Z</time>
      </trkpt>
      <trkpt lat="44.77368" lon="6.32176">
        <ele>2205.2</ele>
        <time>2024-08-12T11:39:49Z</time>
      </trkpt>
      <trkpt lat="44.77368" lon="6.32176">
        <ele>2205.8</ele>
        <time>2024-08-12T11:39:50Z</time>
      </trkpt>
      <trkpt lat="44.77371" lon="6.32179">
        <ele>2205.8</ele>
        <time>2024-08-12T11:39:51Z</time>
      </trkpt>
      <trkpt lat="44.77371" lon="6.32179">
        <ele>2205.8</ele>
        <time>2024-08-12T11:39:52Z</time>
      </trkpt>
      <trkpt lat="44.77371" lon="6.32179">
        <ele>2206</ele>
        <time>2024-08-12T11:39:53Z</time>
      </trkpt>
      <trkpt lat="44.77373" lon="6.32179">
        <ele>2206.4</ele>
        <time>2024-08-12T11:39:54Z</time>
      </trkpt>
      <trkpt lat="44.77373" lon="6.32179">
        <ele>2206.4</ele>
        <time>2024-08-12T11:39:55Z</time>
      </trkpt>
      <trkpt lat="44.77375" lon="6.32179">
        <ele>2206.4</ele>
        <time>2024-08-12T11:39:56Z</time>
      </trkpt>
      <trkpt lat="44.77375" lon="6.32179">
        <ele>2206.4</ele>
        <time>2024-08-12T11:39:57Z</time>
      </trkpt>
      <trkpt lat="44.77375" lon="6.32179">
        <ele>2206.4</ele>
        <time>2024-08-12T11:39:58Z</time>
      </trkpt>
      <trkpt lat="44.77377" lon="6.3218">
        <ele>2206.8</ele>
        <time>2024-08-12T11:39:59Z</time>
      </trkpt>
      <trkpt lat="44.77377" lon="6.3218">
        <ele>2206.8</ele>
        <time>2024-08-12T11:40:00Z</time>
      </trkpt>
      <trkpt lat="44.77377" lon="6.3218">
        <ele>2207.2</ele>
        <time>2024-08-12T11:40:01Z</time>
      </trkpt>
      <trkpt lat="44.7738" lon="6.3218">
        <ele>2207.8</ele>
        <time>2024-08-12T11:40:02Z</time>
      </trkpt>
      <trkpt lat="44.7738" lon="6.3218">
        <ele>2207.8</ele>
        <time>2024-08-12T11:40:03Z</time>
      </trkpt>
      <trkpt lat="44.77382" lon="6.32181">
        <ele>2208</ele>
        <time>2024-08-12T11:40:04Z</time>
      </trkpt>
      <trkpt lat="44.77382" lon="6.32181">
        <ele>2208</ele>
        <time>2024-08-12T11:40:05Z</time>
      </trkpt>
      <trkpt lat="44.77382" lon="6.32181">
        <ele>2208.2</ele>
        <time>2024-08-12T11:40:06Z</time>
      </trkpt>
      <trkpt lat="44.77384" lon="6.32181">
        <ele>2208.6</ele>
        <time>2024-08-12T11:40:07Z</time>
      </trkpt>
      <trkpt lat="44.77384" lon="6.32181">
        <ele>2208.8</ele>
        <time>2024-08-12T11:40:08Z</time>
      </trkpt>
      <trkpt lat="44.77386" lon="6.32181">
        <ele>2209.2</ele>
        <time>2024-08-12T11:40:09Z</time>
      </trkpt>
      <trkpt lat="44.77386" lon="6.32181">
        <ele>2209.2</ele>
        <time>2024-08-12T11:40:10Z</time>
      </trkpt>
      <trkpt lat="44.77386" lon="6.32181">
        <ele>2209.2</ele>
        <time>2024-08-12T11:40:11Z</time>
      </trkpt>
      <trkpt lat="44.77389" lon="6.32181">
        <ele>2209.2</ele>
        <time>2024-08-12T11:40:12Z</time>
      </trkpt>
      <trkpt lat="44.77389" lon="6.32181">
        <ele>2209.2</ele>
        <time>2024-08-12T11:40:13Z</time>
      </trkpt>
      <trkpt lat="44.77389" lon="6.32181">
        <ele>2209.2</ele>
        <time>2024-08-12T11:40:14Z</time>
      </trkpt>
      <trkpt lat="44.77391" lon="6.32181">
        <ele>2209.2</ele>
        <time>2024-08-12T11:40:15Z</time>
      </trkpt>
      <trkpt lat="44.77391" lon="6.32181">
        <ele>2209.2</ele>
        <time>2024-08-12T11:40:16Z</time>
      </trkpt>
      <trkpt lat="44.77391" lon="6.32181">
        <ele>2209.2</ele>
        <time>2024-08-12T11:40:17Z</time>
      </trkpt>
      <trkpt lat="44.77393" lon="6.3218">
        <ele>2209.2</ele>
        <time>2024-08-12T11:40:18Z</time>
      </trkpt>
      <trkpt lat="44.77393" lon="6.3218">
        <ele>2209.4</ele>
        <time>2024-08-12T11:40:19Z</time>
      </trkpt>
      <trkpt lat="44.77395" lon="6.3218">
        <ele>2209.4</ele>
        <time>2024-08-12T11:40:20Z</time>
      </trkpt>
      <trkpt lat="44.77395" lon="6.3218">
        <ele>2209.6</ele>
        <time>2024-08-12T11:40:21Z</time>
      </trkpt>
      <trkpt lat="44.77397" lon="6.3218">
        <ele>2210</ele>
        <time>2024-08-12T11:40:22Z</time>
      </trkpt>
      <trkpt lat="44.77397" lon="6.3218">
        <ele>2210.2</ele>
        <time>2024-08-12T11:40:23Z</time>
      </trkpt>
      <trkpt lat="44.77399" lon="6.3218">
        <ele>2210.2</ele>
        <time>2024-08-12T11:40:24Z</time>
      </trkpt>
      <trkpt lat="44.77399" lon="6.3218">
        <ele>2210.2</ele>
        <time>2024-08-12T11:40:25Z</time>
      </trkpt>
      <trkpt lat="44.77401" lon="6.3218">
        <ele>2210.2</ele>
        <time>2024-08-12T11:40:26Z</time>
      </trkpt>
      <trkpt lat="44.77401" lon="6.3218">
        <ele>2210.2</ele>
        <time>2024-08-12T11:40:27Z</time>
      </trkpt>
      <trkpt lat="44.77401" lon="6.3218">
        <ele>2210.2</ele>
        <time>2024-08-12T11:40:28Z</time>
      </trkpt>
      <trkpt lat="44.77403" lon="6.32181">
        <ele>2210.6</ele>
        <time>2024-08-12T11:40:29Z</time>
      </trkpt>
      <trkpt lat="44.77403" lon="6.32181">
        <ele>2211</ele>
        <time>2024-08-12T11:40:30Z</time>
      </trkpt>
      <trkpt lat="44.77405" lon="6.32181">
        <ele>2211</ele>
        <time>2024-08-12T11:40:31Z</time>
      </trkpt>
      <trkpt lat="44.77405" lon="6.32181">
        <ele>2211.2</ele>
        <time>2024-08-12T11:40:32Z</time>
      </trkpt>
      <trkpt lat="44.77405" lon="6.32181">
        <ele>2211.2</ele>
        <time>2024-08-12T11:40:33Z</time>
      </trkpt>
      <trkpt lat="44.77407" lon="6.32181">
        <ele>2211.8</ele>
        <time>2024-08-12T11:40:34Z</time>
      </trkpt>
      <trkpt lat="44.77407" lon="6.32181">
        <ele>2212</ele>
        <time>2024-08-12T11:40:35Z</time>
      </trkpt>
      <trkpt lat="44.77407" lon="6.32181">
        <ele>2212</ele>
        <time>2024-08-12T11:40:36Z</time>
      </trkpt>
      <trkpt lat="44.77409" lon="6.32181">
        <ele>2212.4</ele>
        <time>2024-08-12T11:40:37Z</time>
      </trkpt>
      <trkpt lat="44.77409" lon="6.32181">
        <ele>2212.4</ele>
        <time>2024-08-12T11:40:38Z</time>
      </trkpt>
      <trkpt lat="44.77409" lon="6.32181">
        <ele>2212.6</ele>
        <time>2024-08-12T11:40:39Z</time>
      </trkpt>
      <trkpt lat="44.77411" lon="6.32183">
        <ele>2212.8</ele>
        <time>2024-08-12T11:40:40Z</time>
      </trkpt>
      <trkpt lat="44.77411" lon="6.32183">
        <ele>2212.8</ele>
        <time>2024-08-12T11:40:41Z</time>
      </trkpt>
      <trkpt lat="44.77411" lon="6.32183">
        <ele>2213.2</ele>
        <time>2024-08-12T11:40:42Z</time>
      </trkpt>
      <trkpt lat="44.77413" lon="6.32183">
        <ele>2213.8</ele>
        <time>2024-08-12T11:40:43Z</time>
      </trkpt>
      <trkpt lat="44.77413" lon="6.32183">
        <ele>2214.4</ele>
        <time>2024-08-12T11:40:44Z</time>
      </trkpt>
      <trkpt lat="44.77413" lon="6.32183">
        <ele>2214.6</ele>
        <time>2024-08-12T11:40:45Z</time>
      </trkpt>
      <trkpt lat="44.77413" lon="6.32183">
        <ele>2214.6</ele>
        <time>2024-08-12T11:40:46Z</time>
      </trkpt>
      <trkpt lat="44.77413" lon="6.32183">
        <ele>2214.6</ele>
        <time>2024-08-12T11:40:47Z</time>
      </trkpt>
      <trkpt lat="44.77413" lon="6.32183">
        <ele>2214.6</ele>
        <time>2024-08-12T11:40:48Z</time>
      </trkpt>
      <trkpt lat="44.77413" lon="6.3218">
        <ele>2214.6</ele>
        <time>2024-08-12T11:40:49Z</time>
      </trkpt>
      <trkpt lat="44.77413" lon="6.3218">
        <ele>2214.6</ele>
        <time>2024-08-12T11:40:50Z</time>
      </trkpt>
      <trkpt lat="44.77413" lon="6.3218">
        <ele>2214.8</ele>
        <time>2024-08-12T11:40:51Z</time>
      </trkpt>
      <trkpt lat="44.77411" lon="6.32178">
        <ele>2215.6</ele>
        <time>2024-08-12T11:40:52Z</time>
      </trkpt>
      <trkpt lat="44.77411" lon="6.32178">
        <ele>2216.4</ele>
        <time>2024-08-12T11:40:53Z</time>
      </trkpt>
      <trkpt lat="44.77409" lon="6.32177">
        <ele>2216.4</ele>
        <time>2024-08-12T11:40:54Z</time>
      </trkpt>
      <trkpt lat="44.77409" lon="6.32177">
        <ele>2216.2</ele>
        <time>2024-08-12T11:40:55Z</time>
      </trkpt>
      <trkpt lat="44.77408" lon="6.32175">
        <ele>2216.2</ele>
        <time>2024-08-12T11:40:56Z</time>
      </trkpt>
      <trkpt lat="44.77408" lon="6.32175">
        <ele>2216.4</ele>
        <time>2024-08-12T11:40:57Z</time>
      </trkpt>
      <trkpt lat="44.77408" lon="6.32175">
        <ele>2216.8</ele>
        <time>2024-08-12T11:40:58Z</time>
      </trkpt>
      <trkpt lat="44.77408" lon="6.32175">
        <ele>2217</ele>
        <time>2024-08-12T11:40:59Z</time>
      </trkpt>
      <trkpt lat="44.77407" lon="6.32173">
        <ele>2216.8</ele>
        <time>2024-08-12T11:41:00Z</time>
      </trkpt>
      <trkpt lat="44.77407" lon="6.32173">
        <ele>2216.8</ele>
        <time>2024-08-12T11:41:01Z</time>
      </trkpt>
      <trkpt lat="44.77407" lon="6.32173">
        <ele>2217.2</ele>
        <time>2024-08-12T11:41:02Z</time>
      </trkpt>
      <trkpt lat="44.77405" lon="6.32171">
        <ele>2217.2</ele>
        <time>2024-08-12T11:41:03Z</time>
      </trkpt>
      <trkpt lat="44.77405" lon="6.32171">
        <ele>2217.2</ele>
        <time>2024-08-12T11:41:04Z</time>
      </trkpt>
      <trkpt lat="44.77403" lon="6.32169">
        <ele>2217.4</ele>
        <time>2024-08-12T11:41:05Z</time>
      </trkpt>
      <trkpt lat="44.77403" lon="6.32169">
        <ele>2217.4</ele>
        <time>2024-08-12T11:41:06Z</time>
      </trkpt>
      <trkpt lat="44.77402" lon="6.32167">
        <ele>2217.6</ele>
        <time>2024-08-12T11:41:07Z</time>
      </trkpt>
      <trkpt lat="44.77402" lon="6.32167">
        <ele>2217.8</ele>
        <time>2024-08-12T11:41:08Z</time>
      </trkpt>
      <trkpt lat="44.77402" lon="6.32167">
        <ele>2218</ele>
        <time>2024-08-12T11:41:09Z</time>
      </trkpt>
      <trkpt lat="44.774" lon="6.32165">
        <ele>2218</ele>
        <time>2024-08-12T11:41:10Z</time>
      </trkpt>
      <trkpt lat="44.774" lon="6.32165">
        <ele>2218.6</ele>
        <time>2024-08-12T11:41:11Z</time>
      </trkpt>
      <trkpt lat="44.774" lon="6.32165">
        <ele>2218.6</ele>
        <time>2024-08-12T11:41:12Z</time>
      </trkpt>
      <trkpt lat="44.77399" lon="6.32163">
        <ele>2218.6</ele>
        <time>2024-08-12T11:41:13Z</time>
      </trkpt>
      <trkpt lat="44.77399" lon="6.32163">
        <ele>2218.8</ele>
        <time>2024-08-12T11:41:14Z</time>
      </trkpt>
      <trkpt lat="44.77399" lon="6.32163">
        <ele>2219</ele>
        <time>2024-08-12T11:41:15Z</time>
      </trkpt>
      <trkpt lat="44.77397" lon="6.32162">
        <ele>2219</ele>
        <time>2024-08-12T11:41:16Z</time>
      </trkpt>
      <trkpt lat="44.77397" lon="6.32162">
        <ele>2219.8</ele>
        <time>2024-08-12T11:41:17Z</time>
      </trkpt>
      <trkpt lat="44.77397" lon="6.32162">
        <ele>2220.2</ele>
        <time>2024-08-12T11:41:18Z</time>
      </trkpt>
      <trkpt lat="44.77395" lon="6.3216">
        <ele>2220.2</ele>
        <time>2024-08-12T11:41:19Z</time>
      </trkpt>
      <trkpt lat="44.77395" lon="6.3216">
        <ele>2220.2</ele>
        <time>2024-08-12T11:41:20Z</time>
      </trkpt>
      <trkpt lat="44.77395" lon="6.3216">
        <ele>2220.6</ele>
        <time>2024-08-12T11:41:21Z</time>
      </trkpt>
      <trkpt lat="44.77393" lon="6.32157">
        <ele>2220.6</ele>
        <time>2024-08-12T11:41:22Z</time>
      </trkpt>
      <trkpt lat="44.77393" lon="6.32157">
        <ele>2220.8</ele>
        <time>2024-08-12T11:41:23Z</time>
      </trkpt>
      <trkpt lat="44.77393" lon="6.32157">
        <ele>2220.8</ele>
        <time>2024-08-12T11:41:24Z</time>
      </trkpt>
      <trkpt lat="44.77392" lon="6.32155">
        <ele>2221</ele>
        <time>2024-08-12T11:41:25Z</time>
      </trkpt>
      <trkpt lat="44.77392" lon="6.32155">
        <ele>2221.4</ele>
        <time>2024-08-12T11:41:26Z</time>
      </trkpt>
      <trkpt lat="44.77392" lon="6.32155">
        <ele>2221.6</ele>
        <time>2024-08-12T11:41:27Z</time>
      </trkpt>
      <trkpt lat="44.7739" lon="6.32153">
        <ele>2221.6</ele>
        <time>2024-08-12T11:41:28Z</time>
      </trkpt>
      <trkpt lat="44.7739" lon="6.32153">
        <ele>2221.6</ele>
        <time>2024-08-12T11:41:29Z</time>
      </trkpt>
      <trkpt lat="44.7739" lon="6.32153">
        <ele>2221.6</ele>
        <time>2024-08-12T11:41:30Z</time>
      </trkpt>
      <trkpt lat="44.77388" lon="6.3215">
        <ele>2221.6</ele>
        <time>2024-08-12T11:41:31Z</time>
      </trkpt>
      <trkpt lat="44.77388" lon="6.3215">
        <ele>2221.6</ele>
        <time>2024-08-12T11:41:32Z</time>
      </trkpt>
      <trkpt lat="44.77388" lon="6.3215">
        <ele>2222.2</ele>
        <time>2024-08-12T11:41:33Z</time>
      </trkpt>
      <trkpt lat="44.77387" lon="6.32148">
        <ele>2222.8</ele>
        <time>2024-08-12T11:41:34Z</time>
      </trkpt>
      <trkpt lat="44.77387" lon="6.32148">
        <ele>2222.8</ele>
        <time>2024-08-12T11:41:35Z</time>
      </trkpt>
      <trkpt lat="44.77387" lon="6.32148">
        <ele>2223</ele>
        <time>2024-08-12T11:41:36Z</time>
      </trkpt>
      <trkpt lat="44.77385" lon="6.32146">
        <ele>2223.4</ele>
        <time>2024-08-12T11:41:37Z</time>
      </trkpt>
      <trkpt lat="44.77385" lon="6.32146">
        <ele>2223.4</ele>
        <time>2024-08-12T11:41:38Z</time>
      </trkpt>
      <trkpt lat="44.77385" lon="6.32146">
        <ele>2223.8</ele>
        <time>2024-08-12T11:41:39Z</time>
      </trkpt>
      <trkpt lat="44.77383" lon="6.32143">
        <ele>2224</ele>
        <time>2024-08-12T11:41:40Z</time>
      </trkpt>
      <trkpt lat="44.77383" lon="6.32143">
        <ele>2224.2</ele>
        <time>2024-08-12T11:41:41Z</time>
      </trkpt>
      <trkpt lat="44.77383" lon="6.32143">
        <ele>2224.6</ele>
        <time>2024-08-12T11:41:42Z</time>
      </trkpt>
      <trkpt lat="44.77381" lon="6.32141">
        <ele>2224.6</ele>
        <time>2024-08-12T11:41:43Z</time>
      </trkpt>
      <trkpt lat="44.77381" lon="6.32141">
        <ele>2224.6</ele>
        <time>2024-08-12T11:41:44Z</time>
      </trkpt>
      <trkpt lat="44.77381" lon="6.32141">
        <ele>2224.8</ele>
        <time>2024-08-12T11:41:45Z</time>
      </trkpt>
      <trkpt lat="44.7738" lon="6.32138">
        <ele>2224.8</ele>
        <time>2024-08-12T11:41:46Z</time>
      </trkpt>
      <trkpt lat="44.7738" lon="6.32138">
        <ele>2224.8</ele>
        <time>2024-08-12T11:41:47Z</time>
      </trkpt>
      <trkpt lat="44.7738" lon="6.32138">
        <ele>2225.4</ele>
        <time>2024-08-12T11:41:48Z</time>
      </trkpt>
      <trkpt lat="44.77379" lon="6.32136">
        <ele>2225.4</ele>
        <time>2024-08-12T11:41:49Z</time>
      </trkpt>
      <trkpt lat="44.77379" lon="6.32136">
        <ele>2225.4</ele>
        <time>2024-08-12T11:41:50Z</time>
      </trkpt>
      <trkpt lat="44.77379" lon="6.32136">
        <ele>2225.8</ele>
        <time>2024-08-12T11:41:51Z</time>
      </trkpt>
      <trkpt lat="44.77377" lon="6.32133">
        <ele>2225.8</ele>
        <time>2024-08-12T11:41:52Z</time>
      </trkpt>
      <trkpt lat="44.77377" lon="6.32133">
        <ele>2226.4</ele>
        <time>2024-08-12T11:41:53Z</time>
      </trkpt>
      <trkpt lat="44.77377" lon="6.32133">
        <ele>2226.4</ele>
        <time>2024-08-12T11:41:54Z</time>
      </trkpt>
      <trkpt lat="44.77376" lon="6.3213">
        <ele>2226.4</ele>
        <time>2024-08-12T11:41:55Z</time>
      </trkpt>
      <trkpt lat="44.77376" lon="6.3213">
        <ele>2226.4</ele>
        <time>2024-08-12T11:41:56Z</time>
      </trkpt>
      <trkpt lat="44.77375" lon="6.32128">
        <ele>2226.6</ele>
        <time>2024-08-12T11:41:57Z</time>
      </trkpt>
      <trkpt lat="44.77375" lon="6.32128">
        <ele>2226.6</ele>
        <time>2024-08-12T11:41:58Z</time>
      </trkpt>
      <trkpt lat="44.77375" lon="6.32128">
        <ele>2226.8</ele>
        <time>2024-08-12T11:41:59Z</time>
      </trkpt>
      <trkpt lat="44.77373" lon="6.32125">
        <ele>2227.6</ele>
        <time>2024-08-12T11:42:00Z</time>
      </trkpt>
      <trkpt lat="44.77373" lon="6.32125">
        <ele>2227.6</ele>
        <time>2024-08-12T11:42:01Z</time>
      </trkpt>
      <trkpt lat="44.77373" lon="6.32125">
        <ele>2227.4</ele>
        <time>2024-08-12T11:42:02Z</time>
      </trkpt>
      <trkpt lat="44.77373" lon="6.32122">
        <ele>2227.4</ele>
        <time>2024-08-12T11:42:03Z</time>
      </trkpt>
      <trkpt lat="44.77373" lon="6.32122">
        <ele>2227.2</ele>
        <time>2024-08-12T11:42:04Z</time>
      </trkpt>
      <trkpt lat="44.77373" lon="6.32122">
        <ele>2227.2</ele>
        <time>2024-08-12T11:42:05Z</time>
      </trkpt>
      <trkpt lat="44.77375" lon="6.32122">
        <ele>2227.2</ele>
        <time>2024-08-12T11:42:06Z</time>
      </trkpt>
      <trkpt lat="44.77375" lon="6.32122">
        <ele>2227.4</ele>
        <time>2024-08-12T11:42:07Z</time>
      </trkpt>
      <trkpt lat="44.77375" lon="6.32122">
        <ele>2227.4</ele>
        <time>2024-08-12T11:42:08Z</time>
      </trkpt>
      <trkpt lat="44.77377" lon="6.32123">
        <ele>2227.6</ele>
        <time>2024-08-12T11:42:09Z</time>
      </trkpt>
      <trkpt lat="44.77377" lon="6.32123">
        <ele>2227.8</ele>
        <time>2024-08-12T11:42:10Z</time>
      </trkpt>
      <trkpt lat="44.77377" lon="6.32123">
        <ele>2228</ele>
        <time>2024-08-12T11:42:11Z</time>
      </trkpt>
      <trkpt lat="44.77377" lon="6.32123">
        <ele>2228</ele>
        <time>2024-08-12T11:42:12Z</time>
      </trkpt>
      <trkpt lat="44.77379" lon="6.32124">
        <ele>2228.4</ele>
        <time>2024-08-12T11:42:13Z</time>
      </trkpt>
      <trkpt lat="44.77379" lon="6.32124">
        <ele>2228.8</ele>
        <time>2024-08-12T11:42:14Z</time>
      </trkpt>
      <trkpt lat="44.77379" lon="6.32124">
        <ele>2229</ele>
        <time>2024-08-12T11:42:15Z</time>
      </trkpt>
      <trkpt lat="44.77379" lon="6.32124">
        <ele>2229.2</ele>
        <time>2024-08-12T11:42:16Z</time>
      </trkpt>
      <trkpt lat="44.77381" lon="6.32125">
        <ele>2229.2</ele>
        <time>2024-08-12T11:42:17Z</time>
      </trkpt>
      <trkpt lat="44.77381" lon="6.32125">
        <ele>2229.6</ele>
        <time>2024-08-12T11:42:18Z</time>
      </trkpt>
      <trkpt lat="44.77383" lon="6.32126">
        <ele>2229.6</ele>
        <time>2024-08-12T11:42:19Z</time>
      </trkpt>
      <trkpt lat="44.77383" lon="6.32126">
        <ele>2230.2</ele>
        <time>2024-08-12T11:42:20Z</time>
      </trkpt>
      <trkpt lat="44.77386" lon="6.32127">
        <ele>2230.2</ele>
        <time>2024-08-12T11:42:21Z</time>
      </trkpt>
      <trkpt lat="44.77386" lon="6.32127">
        <ele>2230.2</ele>
        <time>2024-08-12T11:42:22Z</time>
      </trkpt>
      <trkpt lat="44.77389" lon="6.32127">
        <ele>2230.4</ele>
        <time>2024-08-12T11:42:23Z</time>
      </trkpt>
      <trkpt lat="44.77389" lon="6.32127">
        <ele>2230.4</ele>
        <time>2024-08-12T11:42:24Z</time>
      </trkpt>
      <trkpt lat="44.7739" lon="6.32128">
        <ele>2230.6</ele>
        <time>2024-08-12T11:42:25Z</time>
      </trkpt>
      <trkpt lat="44.7739" lon="6.32128">
        <ele>2231</ele>
        <time>2024-08-12T11:42:26Z</time>
      </trkpt>
      <trkpt lat="44.7739" lon="6.32128">
        <ele>2231</ele>
        <time>2024-08-12T11:42:27Z</time>
      </trkpt>
      <trkpt lat="44.77393" lon="6.32129">
        <ele>2231</ele>
        <time>2024-08-12T11:42:28Z</time>
      </trkpt>
      <trkpt lat="44.77393" lon="6.32129">
        <ele>2231</ele>
        <time>2024-08-12T11:42:29Z</time>
      </trkpt>
      <trkpt lat="44.77395" lon="6.32129">
        <ele>2231.2</ele>
        <time>2024-08-12T11:42:30Z</time>
      </trkpt>
      <trkpt lat="44.77395" lon="6.32129">
        <ele>2231.4</ele>
        <time>2024-08-12T11:42:31Z</time>
      </trkpt>
      <trkpt lat="44.77395" lon="6.32129">
        <ele>2231.6</ele>
        <time>2024-08-12T11:42:32Z</time>
      </trkpt>
      <trkpt lat="44.77397" lon="6.3213">
        <ele>2231.8</ele>
        <time>2024-08-12T11:42:33Z</time>
      </trkpt>
      <trkpt lat="44.77397" lon="6.3213">
        <ele>2231.8</ele>
        <time>2024-08-12T11:42:34Z</time>
      </trkpt>
      <trkpt lat="44.77399" lon="6.32131">
        <ele>2232</ele>
        <time>2024-08-12T11:42:35Z</time>
      </trkpt>
      <trkpt lat="44.77399" lon="6.32131">
        <ele>2232</ele>
        <time>2024-08-12T11:42:36Z</time>
      </trkpt>
      <trkpt lat="44.77399" lon="6.32131">
        <ele>2232.4</ele>
        <time>2024-08-12T11:42:37Z</time>
      </trkpt>
      <trkpt lat="44.77401" lon="6.32132">
        <ele>2232.6</ele>
        <time>2024-08-12T11:42:38Z</time>
      </trkpt>
      <trkpt lat="44.77401" lon="6.32132">
        <ele>2232.6</ele>
        <time>2024-08-12T11:42:39Z</time>
      </trkpt>
      <trkpt lat="44.77401" lon="6.32132">
        <ele>2232.6</ele>
        <time>2024-08-12T11:42:40Z</time>
      </trkpt>
      <trkpt lat="44.77404" lon="6.32133">
        <ele>2232.8</ele>
        <time>2024-08-12T11:42:41Z</time>
      </trkpt>
      <trkpt lat="44.77404" lon="6.32133">
        <ele>2233.2</ele>
        <time>2024-08-12T11:42:42Z</time>
      </trkpt>
      <trkpt lat="44.77404" lon="6.32133">
        <ele>2233.2</ele>
        <time>2024-08-12T11:42:43Z</time>
      </trkpt>
      <trkpt lat="44.77405" lon="6.32135">
        <ele>2233.6</ele>
        <time>2024-08-12T11:42:44Z</time>
      </trkpt>
      <trkpt lat="44.77405" lon="6.32135">
        <ele>2233.6</ele>
        <time>2024-08-12T11:42:45Z</time>
      </trkpt>
      <trkpt lat="44.77407" lon="6.32136">
        <ele>2233.6</ele>
        <time>2024-08-12T11:42:46Z</time>
      </trkpt>
      <trkpt lat="44.77407" lon="6.32136">
        <ele>2233.6</ele>
        <time>2024-08-12T11:42:47Z</time>
      </trkpt>
      <trkpt lat="44.77409" lon="6.32137">
        <ele>2234</ele>
        <time>2024-08-12T11:42:48Z</time>
      </trkpt>
      <trkpt lat="44.77409" lon="6.32137">
        <ele>2234.6</ele>
        <time>2024-08-12T11:42:49Z</time>
      </trkpt>
      <trkpt lat="44.77409" lon="6.32137">
        <ele>2234.6</ele>
        <time>2024-08-12T11:42:50Z</time>
      </trkpt>
      <trkpt lat="44.77411" lon="6.32138">
        <ele>2234.8</ele>
        <time>2024-08-12T11:42:51Z</time>
      </trkpt>
      <trkpt lat="44.77411" lon="6.32138">
        <ele>2234.8</ele>
        <time>2024-08-12T11:42:52Z</time>
      </trkpt>
      <trkpt lat="44.77411" lon="6.32138">
        <ele>2234.8</ele>
        <time>2024-08-12T11:42:53Z</time>
      </trkpt>
      <trkpt lat="44.77413" lon="6.32139">
        <ele>2234.8</ele>
        <time>2024-08-12T11:42:54Z</time>
      </trkpt>
      <trkpt lat="44.77413" lon="6.32139">
        <ele>2235</ele>
        <time>2024-08-12T11:42:55Z</time>
      </trkpt>
      <trkpt lat="44.77415" lon="6.32139">
        <ele>2235</ele>
        <time>2024-08-12T11:42:56Z</time>
      </trkpt>
      <trkpt lat="44.77415" lon="6.32139">
        <ele>2235.2</ele>
        <time>2024-08-12T11:42:57Z</time>
      </trkpt>
      <trkpt lat="44.77415" lon="6.32139">
        <ele>2235.4</ele>
        <time>2024-08-12T11:42:58Z</time>
      </trkpt>
      <trkpt lat="44.77418" lon="6.32139">
        <ele>2235.4</ele>
        <time>2024-08-12T11:42:59Z</time>
      </trkpt>
      <trkpt lat="44.77418" lon="6.32139">
        <ele>2235.8</ele>
        <time>2024-08-12T11:43:00Z</time>
      </trkpt>
      <trkpt lat="44.77418" lon="6.32139">
        <ele>2236.2</ele>
        <time>2024-08-12T11:43:01Z</time>
      </trkpt>
      <trkpt lat="44.77421" lon="6.32139">
        <ele>2236.6</ele>
        <time>2024-08-12T11:43:02Z</time>
      </trkpt>
      <trkpt lat="44.77421" lon="6.32139">
        <ele>2236.6</ele>
        <time>2024-08-12T11:43:03Z</time>
      </trkpt>
      <trkpt lat="44.77422" lon="6.3214">
        <ele>2237.2</ele>
        <time>2024-08-12T11:43:04Z</time>
      </trkpt>
      <trkpt lat="44.77422" lon="6.3214">
        <ele>2237.2</ele>
        <time>2024-08-12T11:43:05Z</time>
      </trkpt>
      <trkpt lat="44.77425" lon="6.3214">
        <ele>2237.4</ele>
        <time>2024-08-12T11:43:06Z</time>
      </trkpt>
      <trkpt lat="44.77425" lon="6.3214">
        <ele>2237.8</ele>
        <time>2024-08-12T11:43:07Z</time>
      </trkpt>
      <trkpt lat="44.77427" lon="6.3214">
        <ele>2237.8</ele>
        <time>2024-08-12T11:43:08Z</time>
      </trkpt>
      <trkpt lat="44.77427" lon="6.3214">
        <ele>2237.6</ele>
        <time>2024-08-12T11:43:09Z</time>
      </trkpt>
      <trkpt lat="44.77429" lon="6.3214">
        <ele>2237.6</ele>
        <time>2024-08-12T11:43:10Z</time>
      </trkpt>
      <trkpt lat="44.77429" lon="6.3214">
        <ele>2237.8</ele>
        <time>2024-08-12T11:43:11Z</time>
      </trkpt>
      <trkpt lat="44.77431" lon="6.3214">
        <ele>2238.2</ele>
        <time>2024-08-12T11:43:12Z</time>
      </trkpt>
      <trkpt lat="44.77431" lon="6.3214">
        <ele>2238.4</ele>
        <time>2024-08-12T11:43:13Z</time>
      </trkpt>
      <trkpt lat="44.77431" lon="6.3214">
        <ele>2238.8</ele>
        <time>2024-08-12T11:43:14Z</time>
      </trkpt>
      <trkpt lat="44.77433" lon="6.3214">
        <ele>2238.8</ele>
        <time>2024-08-12T11:43:15Z</time>
      </trkpt>
      <trkpt lat="44.77433" lon="6.3214">
        <ele>2238.8</ele>
        <time>2024-08-12T11:43:16Z</time>
      </trkpt>
      <trkpt lat="44.77435" lon="6.3214">
        <ele>2238.8</ele>
        <time>2024-08-12T11:43:17Z</time>
      </trkpt>
      <trkpt lat="44.77435" lon="6.3214">
        <ele>2239</ele>
        <time>2024-08-12T11:43:18Z</time>
      </trkpt>
      <trkpt lat="44.77437" lon="6.3214">
        <ele>2239.2</ele>
        <time>2024-08-12T11:43:19Z</time>
      </trkpt>
      <trkpt lat="44.77437" lon="6.3214">
        <ele>2239.2</ele>
        <time>2024-08-12T11:43:20Z</time>
      </trkpt>
      <trkpt lat="44.77437" lon="6.3214">
        <ele>2239.4</ele>
        <time>2024-08-12T11:43:21Z</time>
      </trkpt>
      <trkpt lat="44.7744" lon="6.3214">
        <ele>2239.4</ele>
        <time>2024-08-12T11:43:22Z</time>
      </trkpt>
      <trkpt lat="44.7744" lon="6.3214">
        <ele>2239.4</ele>
        <time>2024-08-12T11:43:23Z</time>
      </trkpt>
      <trkpt lat="44.7744" lon="6.3214">
        <ele>2239.8</ele>
        <time>2024-08-12T11:43:24Z</time>
      </trkpt>
      <trkpt lat="44.77442" lon="6.3214">
        <ele>2240.2</ele>
        <time>2024-08-12T11:43:25Z</time>
      </trkpt>
      <trkpt lat="44.77442" lon="6.3214">
        <ele>2240.4</ele>
        <time>2024-08-12T11:43:26Z</time>
      </trkpt>
      <trkpt lat="44.77442" lon="6.3214">
        <ele>2240.6</ele>
        <time>2024-08-12T11:43:27Z</time>
      </trkpt>
      <trkpt lat="44.77445" lon="6.3214">
        <ele>2240.6</ele>
        <time>2024-08-12T11:43:28Z</time>
      </trkpt>
      <trkpt lat="44.77445" lon="6.3214">
        <ele>2240.6</ele>
        <time>2024-08-12T11:43:29Z</time>
      </trkpt>
      <trkpt lat="44.77447" lon="6.32141">
        <ele>2241</ele>
        <time>2024-08-12T11:43:30Z</time>
      </trkpt>
      <trkpt lat="44.77447" lon="6.32141">
        <ele>2241.2</ele>
        <time>2024-08-12T11:43:31Z</time>
      </trkpt>
      <trkpt lat="44.77447" lon="6.32141">
        <ele>2241.6</ele>
        <time>2024-08-12T11:43:32Z</time>
      </trkpt>
      <trkpt lat="44.77449" lon="6.32141">
        <ele>2241.6</ele>
        <time>2024-08-12T11:43:33Z</time>
      </trkpt>
      <trkpt lat="44.77449" lon="6.32141">
        <ele>2241.8</ele>
        <time>2024-08-12T11:43:34Z</time>
      </trkpt>
      <trkpt lat="44.77449" lon="6.32141">
        <ele>2242</ele>
        <time>2024-08-12T11:43:35Z</time>
      </trkpt>
      <trkpt lat="44.77449" lon="6.32141">
        <ele>2242</ele>
        <time>2024-08-12T11:43:36Z</time>
      </trkpt>
      <trkpt lat="44.77452" lon="6.32141">
        <ele>2242.2</ele>
        <time>2024-08-12T11:43:37Z</time>
      </trkpt>
      <trkpt lat="44.77452" lon="6.32141">
        <ele>2242.2</ele>
        <time>2024-08-12T11:43:38Z</time>
      </trkpt>
      <trkpt lat="44.77452" lon="6.32141">
        <ele>2242.4</ele>
        <time>2024-08-12T11:43:39Z</time>
      </trkpt>
      <trkpt lat="44.77454" lon="6.32141">
        <ele>2242.6</ele>
        <time>2024-08-12T11:43:40Z</time>
      </trkpt>
      <trkpt lat="44.77454" lon="6.32141">
        <ele>2242.8</ele>
        <time>2024-08-12T11:43:41Z</time>
      </trkpt>
      <trkpt lat="44.77456" lon="6.32141">
        <ele>2243.2</ele>
        <time>2024-08-12T11:43:42Z</time>
      </trkpt>
      <trkpt lat="44.77456" lon="6.32141">
        <ele>2243.2</ele>
        <time>2024-08-12T11:43:43Z</time>
      </trkpt>
      <trkpt lat="44.77456" lon="6.32141">
        <ele>2243.2</ele>
        <time>2024-08-12T11:43:44Z</time>
      </trkpt>
      <trkpt lat="44.77458" lon="6.32141">
        <ele>2243.4</ele>
        <time>2024-08-12T11:43:45Z</time>
      </trkpt>
      <trkpt lat="44.77458" lon="6.32141">
        <ele>2243.4</ele>
        <time>2024-08-12T11:43:46Z</time>
      </trkpt>
      <trkpt lat="44.77458" lon="6.32141">
        <ele>2243.6</ele>
        <time>2024-08-12T11:43:47Z</time>
      </trkpt>
      <trkpt lat="44.77461" lon="6.32141">
        <ele>2243.8</ele>
        <time>2024-08-12T11:43:48Z</time>
      </trkpt>
      <trkpt lat="44.77461" lon="6.32141">
        <ele>2243.8</ele>
        <time>2024-08-12T11:43:49Z</time>
      </trkpt>
      <trkpt lat="44.77461" lon="6.32141">
        <ele>2244</ele>
        <time>2024-08-12T11:43:50Z</time>
      </trkpt>
      <trkpt lat="44.77463" lon="6.32141">
        <ele>2244.4</ele>
        <time>2024-08-12T11:43:51Z</time>
      </trkpt>
      <trkpt lat="44.77463" lon="6.32141">
        <ele>2244.8</ele>
        <time>2024-08-12T11:43:52Z</time>
      </trkpt>
      <trkpt lat="44.77463" lon="6.32141">
        <ele>2244.8</ele>
        <time>2024-08-12T11:43:53Z</time>
      </trkpt>
      <trkpt lat="44.77465" lon="6.32141">
        <ele>2244.8</ele>
        <time>2024-08-12T11:43:54Z</time>
      </trkpt>
      <trkpt lat="44.77465" lon="6.32141">
        <ele>2244.8</ele>
        <time>2024-08-12T11:43:55Z</time>
      </trkpt>
      <trkpt lat="44.77467" lon="6.32141">
        <ele>2245</ele>
        <time>2024-08-12T11:43:56Z</time>
      </trkpt>
      <trkpt lat="44.77467" lon="6.32141">
        <ele>2245.2</ele>
        <time>2024-08-12T11:43:57Z</time>
      </trkpt>
      <trkpt lat="44.77469" lon="6.32141">
        <ele>2245.2</ele>
        <time>2024-08-12T11:43:58Z</time>
      </trkpt>
      <trkpt lat="44.77469" lon="6.32141">
        <ele>2245.2</ele>
        <time>2024-08-12T11:43:59Z</time>
      </trkpt>
      <trkpt lat="44.77469" lon="6.32141">
        <ele>2245.8</ele>
        <time>2024-08-12T11:44:00Z</time>
      </trkpt>
      <trkpt lat="44.77472" lon="6.32142">
        <ele>2246.2</ele>
        <time>2024-08-12T11:44:01Z</time>
      </trkpt>
      <trkpt lat="44.77472" lon="6.32142">
        <ele>2246.2</ele>
        <time>2024-08-12T11:44:02Z</time>
      </trkpt>
      <trkpt lat="44.77472" lon="6.32142">
        <ele>2246.2</ele>
        <time>2024-08-12T11:44:03Z</time>
      </trkpt>
      <trkpt lat="44.77474" lon="6.32143">
        <ele>2246.6</ele>
        <time>2024-08-12T11:44:04Z</time>
      </trkpt>
      <trkpt lat="44.77474" lon="6.32143">
        <ele>2246.8</ele>
        <time>2024-08-12T11:44:05Z</time>
      </trkpt>
      <trkpt lat="44.77476" lon="6.32143">
        <ele>2247.2</ele>
        <time>2024-08-12T11:44:06Z</time>
      </trkpt>
      <trkpt lat="44.77476" lon="6.32143">
        <ele>2247.2</ele>
        <time>2024-08-12T11:44:07Z</time>
      </trkpt>
      <trkpt lat="44.77476" lon="6.32143">
        <ele>2247.4</ele>
        <time>2024-08-12T11:44:08Z</time>
      </trkpt>
      <trkpt lat="44.77476" lon="6.32143">
        <ele>2247.4</ele>
        <time>2024-08-12T11:44:09Z</time>
      </trkpt>
      <trkpt lat="44.77476" lon="6.32143">
        <ele>2247.4</ele>
        <time>2024-08-12T11:44:10Z</time>
      </trkpt>
      <trkpt lat="44.77476" lon="6.32143">
        <ele>2247.8</ele>
        <time>2024-08-12T11:44:11Z</time>
      </trkpt>
      <trkpt lat="44.77476" lon="6.32143">
        <ele>2248</ele>
        <time>2024-08-12T11:44:12Z</time>
      </trkpt>
      <trkpt lat="44.77476" lon="6.32143">
        <ele>2248</ele>
        <time>2024-08-12T11:44:13Z</time>
      </trkpt>
      <trkpt lat="44.77476" lon="6.32143">
        <ele>2248</ele>
        <time>2024-08-12T11:44:14Z</time>
      </trkpt>
      <trkpt lat="44.77476" lon="6.32143">
        <ele>2248</ele>
        <time>2024-08-12T11:44:15Z</time>
      </trkpt>
      <trkpt lat="44.77476" lon="6.32143">
        <ele>2248</ele>
        <time>2024-08-12T11:44:16Z</time>
      </trkpt>
      <trkpt lat="44.77476" lon="6.32143">
        <ele>2248.2</ele>
        <time>2024-08-12T11:44:17Z</time>
      </trkpt>
      <trkpt lat="44.77476" lon="6.32143">
        <ele>2248.2</ele>
        <time>2024-08-12T11:44:18Z</time>
      </trkpt>
      <trkpt lat="44.77476" lon="6.32143">
        <ele>2248.2</ele>
        <time>2024-08-12T11:44:19Z</time>
      </trkpt>
      <trkpt lat="44.77476" lon="6.32143">
        <ele>2248.4</ele>
        <time>2024-08-12T11:44:20Z</time>
      </trkpt>
      <trkpt lat="44.77476" lon="6.32143">
        <ele>2248.8</ele>
        <time>2024-08-12T11:44:21Z</time>
      </trkpt>
      <trkpt lat="44.77476" lon="6.32143">
        <ele>2248.8</ele>
        <time>2024-08-12T11:44:22Z</time>
      </trkpt>
      <trkpt lat="44.77476" lon="6.32143">
        <ele>2248.8</ele>
        <time>2024-08-12T11:44:23Z</time>
      </trkpt>
      <trkpt lat="44.77476" lon="6.32143">
        <ele>2248.6</ele>
        <time>2024-08-12T11:44:24Z</time>
      </trkpt>
      <trkpt lat="44.77476" lon="6.32143">
        <ele>2248.4</ele>
        <time>2024-08-12T11:44:25Z</time>
      </trkpt>
      <trkpt lat="44.77476" lon="6.32143">
        <ele>2248.2</ele>
        <time>2024-08-12T11:44:26Z</time>
      </trkpt>
      <trkpt lat="44.77476" lon="6.32143">
        <ele>2248.2</ele>
        <time>2024-08-12T11:44:27Z</time>
      </trkpt>
      <trkpt lat="44.77478" lon="6.32143">
        <ele>2248</ele>
        <time>2024-08-12T11:44:28Z</time>
      </trkpt>
      <trkpt lat="44.77478" lon="6.32143">
        <ele>2248.2</ele>
        <time>2024-08-12T11:44:29Z</time>
      </trkpt>
      <trkpt lat="44.77481" lon="6.32143">
        <ele>2248.4</ele>
        <time>2024-08-12T11:44:30Z</time>
      </trkpt>
      <trkpt lat="44.77481" lon="6.32143">
        <ele>2249.2</ele>
        <time>2024-08-12T11:44:31Z</time>
      </trkpt>
      <trkpt lat="44.77483" lon="6.32144">
        <ele>2249.2</ele>
        <time>2024-08-12T11:44:32Z</time>
      </trkpt>
      <trkpt lat="44.77483" lon="6.32144">
        <ele>2249.6</ele>
        <time>2024-08-12T11:44:33Z</time>
      </trkpt>
      <trkpt lat="44.77485" lon="6.32146">
        <ele>2249.8</ele>
        <time>2024-08-12T11:44:34Z</time>
      </trkpt>
      <trkpt lat="44.77485" lon="6.32146">
        <ele>2250</ele>
        <time>2024-08-12T11:44:35Z</time>
      </trkpt>
      <trkpt lat="44.77485" lon="6.32146">
        <ele>2250.2</ele>
        <time>2024-08-12T11:44:36Z</time>
      </trkpt>
      <trkpt lat="44.77488" lon="6.32147">
        <ele>2250.4</ele>
        <time>2024-08-12T11:44:37Z</time>
      </trkpt>
      <trkpt lat="44.77488" lon="6.32147">
        <ele>2250.4</ele>
        <time>2024-08-12T11:44:38Z</time>
      </trkpt>
      <trkpt lat="44.7749" lon="6.32147">
        <ele>2250.6</ele>
        <time>2024-08-12T11:44:39Z</time>
      </trkpt>
      <trkpt lat="44.7749" lon="6.32147">
        <ele>2250.8</ele>
        <time>2024-08-12T11:44:40Z</time>
      </trkpt>
      <trkpt lat="44.7749" lon="6.32147">
        <ele>2251.2</ele>
        <time>2024-08-12T11:44:41Z</time>
      </trkpt>
      <trkpt lat="44.77492" lon="6.32148">
        <ele>2251.4</ele>
        <time>2024-08-12T11:44:42Z</time>
      </trkpt>
      <trkpt lat="44.77492" lon="6.32148">
        <ele>2251.6</ele>
        <time>2024-08-12T11:44:43Z</time>
      </trkpt>
      <trkpt lat="44.77492" lon="6.32148">
        <ele>2251.6</ele>
        <time>2024-08-12T11:44:44Z</time>
      </trkpt>
      <trkpt lat="44.77494" lon="6.32149">
        <ele>2251.8</ele>
        <time>2024-08-12T11:44:45Z</time>
      </trkpt>
      <trkpt lat="44.77494" lon="6.32149">
        <ele>2251.8</ele>
        <time>2024-08-12T11:44:46Z</time>
      </trkpt>
      <trkpt lat="44.77496" lon="6.3215">
        <ele>2251.8</ele>
        <time>2024-08-12T11:44:47Z</time>
      </trkpt>
      <trkpt lat="44.77496" lon="6.3215">
        <ele>2252</ele>
        <time>2024-08-12T11:44:48Z</time>
      </trkpt>
      <trkpt lat="44.77496" lon="6.3215">
        <ele>2252.4</ele>
        <time>2024-08-12T11:44:49Z</time>
      </trkpt>
      <trkpt lat="44.77499" lon="6.32151">
        <ele>2252.4</ele>
        <time>2024-08-12T11:44:50Z</time>
      </trkpt>
      <trkpt lat="44.77499" lon="6.32151">
        <ele>2252.6</ele>
        <time>2024-08-12T11:44:51Z</time>
      </trkpt>
      <trkpt lat="44.77499" lon="6.32151">
        <ele>2253</ele>
        <time>2024-08-12T11:44:52Z</time>
      </trkpt>
      <trkpt lat="44.77501" lon="6.32152">
        <ele>2253</ele>
        <time>2024-08-12T11:44:53Z</time>
      </trkpt>
      <trkpt lat="44.77501" lon="6.32152">
        <ele>2253.2</ele>
        <time>2024-08-12T11:44:54Z</time>
      </trkpt>
      <trkpt lat="44.77501" lon="6.32152">
        <ele>2253.4</ele>
        <time>2024-08-12T11:44:55Z</time>
      </trkpt>
      <trkpt lat="44.77502" lon="6.32153">
        <ele>2253.6</ele>
        <time>2024-08-12T11:44:56Z</time>
      </trkpt>
      <trkpt lat="44.77502" lon="6.32153">
        <ele>2254</ele>
        <time>2024-08-12T11:44:57Z</time>
      </trkpt>
      <trkpt lat="44.77502" lon="6.32153">
        <ele>2254.2</ele>
        <time>2024-08-12T11:44:58Z</time>
      </trkpt>
      <trkpt lat="44.77504" lon="6.32154">
        <ele>2254.2</ele>
        <time>2024-08-12T11:44:59Z</time>
      </trkpt>
      <trkpt lat="44.77504" lon="6.32154">
        <ele>2254.4</ele>
        <time>2024-08-12T11:45:00Z</time>
      </trkpt>
      <trkpt lat="44.77504" lon="6.32154">
        <ele>2254.4</ele>
        <time>2024-08-12T11:45:01Z</time>
      </trkpt>
      <trkpt lat="44.77506" lon="6.32154">
        <ele>2254.6</ele>
        <time>2024-08-12T11:45:02Z</time>
      </trkpt>
      <trkpt lat="44.77506" lon="6.32154">
        <ele>2254.6</ele>
        <time>2024-08-12T11:45:03Z</time>
      </trkpt>
      <trkpt lat="44.77506" lon="6.32154">
        <ele>2254.8</ele>
        <time>2024-08-12T11:45:04Z</time>
      </trkpt>
      <trkpt lat="44.77508" lon="6.32156">
        <ele>2254.8</ele>
        <time>2024-08-12T11:45:05Z</time>
      </trkpt>
      <trkpt lat="44.77508" lon="6.32156">
        <ele>2255</ele>
        <time>2024-08-12T11:45:06Z</time>
      </trkpt>
      <trkpt lat="44.7751" lon="6.32158">
        <ele>2255</ele>
        <time>2024-08-12T11:45:07Z</time>
      </trkpt>
      <trkpt lat="44.7751" lon="6.32158">
        <ele>2255.4</ele>
        <time>2024-08-12T11:45:08Z</time>
      </trkpt>
      <trkpt lat="44.77511" lon="6.32159">
        <ele>2255.4</ele>
        <time>2024-08-12T11:45:09Z</time>
      </trkpt>
      <trkpt lat="44.77511" lon="6.32159">
        <ele>2255.4</ele>
        <time>2024-08-12T11:45:10Z</time>
      </trkpt>
      <trkpt lat="44.77511" lon="6.32159">
        <ele>2255.6</ele>
        <time>2024-08-12T11:45:11Z</time>
      </trkpt>
      <trkpt lat="44.77514" lon="6.3216">
        <ele>2255.6</ele>
        <time>2024-08-12T11:45:12Z</time>
      </trkpt>
      <trkpt lat="44.77514" lon="6.3216">
        <ele>2255.8</ele>
        <time>2024-08-12T11:45:13Z</time>
      </trkpt>
      <trkpt lat="44.77514" lon="6.3216">
        <ele>2256</ele>
        <time>2024-08-12T11:45:14Z</time>
      </trkpt>
      <trkpt lat="44.77516" lon="6.32161">
        <ele>2256</ele>
        <time>2024-08-12T11:45:15Z</time>
      </trkpt>
      <trkpt lat="44.77516" lon="6.32161">
        <ele>2256.2</ele>
        <time>2024-08-12T11:45:16Z</time>
      </trkpt>
      <trkpt lat="44.77516" lon="6.32161">
        <ele>2256.4</ele>
        <time>2024-08-12T11:45:17Z</time>
      </trkpt>
      <trkpt lat="44.77517" lon="6.32162">
        <ele>2256.8</ele>
        <time>2024-08-12T11:45:18Z</time>
      </trkpt>
      <trkpt lat="44.77517" lon="6.32162">
        <ele>2256.8</ele>
        <time>2024-08-12T11:45:19Z</time>
      </trkpt>
      <trkpt lat="44.77517" lon="6.32162">
        <ele>2257.4</ele>
        <time>2024-08-12T11:45:20Z</time>
      </trkpt>
      <trkpt lat="44.77519" lon="6.32163">
        <ele>2257.4</ele>
        <time>2024-08-12T11:45:21Z</time>
      </trkpt>
      <trkpt lat="44.77519" lon="6.32163">
        <ele>2257.6</ele>
        <time>2024-08-12T11:45:22Z</time>
      </trkpt>
      <trkpt lat="44.77521" lon="6.32164">
        <ele>2257.6</ele>
        <time>2024-08-12T11:45:23Z</time>
      </trkpt>
      <trkpt lat="44.77521" lon="6.32164">
        <ele>2257.8</ele>
        <time>2024-08-12T11:45:24Z</time>
      </trkpt>
      <trkpt lat="44.77521" lon="6.32164">
        <ele>2258.2</ele>
        <time>2024-08-12T11:45:25Z</time>
      </trkpt>
      <trkpt lat="44.77523" lon="6.32164">
        <ele>2258.4</ele>
        <time>2024-08-12T11:45:26Z</time>
      </trkpt>
      <trkpt lat="44.77523" lon="6.32164">
        <ele>2258.8</ele>
        <time>2024-08-12T11:45:27Z</time>
      </trkpt>
      <trkpt lat="44.77523" lon="6.32164">
        <ele>2258.8</ele>
        <time>2024-08-12T11:45:28Z</time>
      </trkpt>
      <trkpt lat="44.77526" lon="6.32164">
        <ele>2259</ele>
        <time>2024-08-12T11:45:29Z</time>
      </trkpt>
      <trkpt lat="44.77526" lon="6.32164">
        <ele>2259.4</ele>
        <time>2024-08-12T11:45:30Z</time>
      </trkpt>
      <trkpt lat="44.77526" lon="6.32164">
        <ele>2259.8</ele>
        <time>2024-08-12T11:45:31Z</time>
      </trkpt>
      <trkpt lat="44.77528" lon="6.32165">
        <ele>2259.8</ele>
        <time>2024-08-12T11:45:32Z</time>
      </trkpt>
      <trkpt lat="44.77528" lon="6.32165">
        <ele>2260</ele>
        <time>2024-08-12T11:45:33Z</time>
      </trkpt>
      <trkpt lat="44.77528" lon="6.32165">
        <ele>2260.2</ele>
        <time>2024-08-12T11:45:34Z</time>
      </trkpt>
      <trkpt lat="44.77531" lon="6.32165">
        <ele>2260.2</ele>
        <time>2024-08-12T11:45:35Z</time>
      </trkpt>
      <trkpt lat="44.77531" lon="6.32165">
        <ele>2260.2</ele>
        <time>2024-08-12T11:45:36Z</time>
      </trkpt>
      <trkpt lat="44.77531" lon="6.32165">
        <ele>2260.2</ele>
        <time>2024-08-12T11:45:37Z</time>
      </trkpt>
      <trkpt lat="44.77531" lon="6.32165">
        <ele>2260.4</ele>
        <time>2024-08-12T11:45:38Z</time>
      </trkpt>
      <trkpt lat="44.77531" lon="6.32165">
        <ele>2260.8</ele>
        <time>2024-08-12T11:45:39Z</time>
      </trkpt>
      <trkpt lat="44.77531" lon="6.32165">
        <ele>2261</ele>
        <time>2024-08-12T11:45:40Z</time>
      </trkpt>
      <trkpt lat="44.77531" lon="6.32165">
        <ele>2261.6</ele>
        <time>2024-08-12T11:45:41Z</time>
      </trkpt>
      <trkpt lat="44.77531" lon="6.32165">
        <ele>2262</ele>
        <time>2024-08-12T11:45:42Z</time>
      </trkpt>
      <trkpt lat="44.77531" lon="6.32165">
        <ele>2262</ele>
        <time>2024-08-12T11:45:43Z</time>
      </trkpt>
      <trkpt lat="44.77531" lon="6.32165">
        <ele>2261.6</ele>
        <time>2024-08-12T11:45:44Z</time>
      </trkpt>
      <trkpt lat="44.77531" lon="6.32165">
        <ele>2261.6</ele>
        <time>2024-08-12T11:45:45Z</time>
      </trkpt>
      <trkpt lat="44.77531" lon="6.32165">
        <ele>2261.8</ele>
        <time>2024-08-12T11:45:46Z</time>
      </trkpt>
      <trkpt lat="44.77531" lon="6.32165">
        <ele>2261.8</ele>
        <time>2024-08-12T11:45:47Z</time>
      </trkpt>
      <trkpt lat="44.77531" lon="6.32165">
        <ele>2261.8</ele>
        <time>2024-08-12T11:45:48Z</time>
      </trkpt>
      <trkpt lat="44.77531" lon="6.32165">
        <ele>2262</ele>
        <time>2024-08-12T11:45:49Z</time>
      </trkpt>
      <trkpt lat="44.77531" lon="6.32165">
        <ele>2262.2</ele>
        <time>2024-08-12T11:45:50Z</time>
      </trkpt>
      <trkpt lat="44.77531" lon="6.32165">
        <ele>2262.2</ele>
        <time>2024-08-12T11:45:51Z</time>
      </trkpt>
      <trkpt lat="44.77531" lon="6.32165">
        <ele>2261.8</ele>
        <time>2024-08-12T11:45:52Z</time>
      </trkpt>
      <trkpt lat="44.77531" lon="6.32165">
        <ele>2261.8</ele>
        <time>2024-08-12T11:45:53Z</time>
      </trkpt>
      <trkpt lat="44.77531" lon="6.32165">
        <ele>2261.6</ele>
        <time>2024-08-12T11:45:54Z</time>
      </trkpt>
      <trkpt lat="44.77531" lon="6.32165">
        <ele>2261.6</ele>
        <time>2024-08-12T11:45:55Z</time>
      </trkpt>
      <trkpt lat="44.77531" lon="6.32165">
        <ele>2261.4</ele>
        <time>2024-08-12T11:45:56Z</time>
      </trkpt>
      <trkpt lat="44.77531" lon="6.32165">
        <ele>2261.2</ele>
        <time>2024-08-12T11:45:57Z</time>
      </trkpt>
      <trkpt lat="44.77531" lon="6.32165">
        <ele>2261</ele>
        <time>2024-08-12T11:45:58Z</time>
      </trkpt>
      <trkpt lat="44.77528" lon="6.32163">
        <ele>2260.8</ele>
        <time>2024-08-12T11:45:59Z</time>
      </trkpt>
      <trkpt lat="44.77528" lon="6.32163">
        <ele>2260.8</ele>
        <time>2024-08-12T11:46:00Z</time>
      </trkpt>
      <trkpt lat="44.77525" lon="6.32161">
        <ele>2261.2</ele>
        <time>2024-08-12T11:46:01Z</time>
      </trkpt>
      <trkpt lat="44.77525" lon="6.32161">
        <ele>2261</ele>
        <time>2024-08-12T11:46:02Z</time>
      </trkpt>
      <trkpt lat="44.77522" lon="6.32159">
        <ele>2261</ele>
        <time>2024-08-12T11:46:03Z</time>
      </trkpt>
      <trkpt lat="44.77522" lon="6.32159">
        <ele>2261.2</ele>
        <time>2024-08-12T11:46:04Z</time>
      </trkpt>
      <trkpt lat="44.7752" lon="6.32157">
        <ele>2261.6</ele>
        <time>2024-08-12T11:46:05Z</time>
      </trkpt>
      <trkpt lat="44.7752" lon="6.32157">
        <ele>2261.6</ele>
        <time>2024-08-12T11:46:06Z</time>
      </trkpt>
      <trkpt lat="44.77518" lon="6.32155">
        <ele>2261.8</ele>
        <time>2024-08-12T11:46:07Z</time>
      </trkpt>
      <trkpt lat="44.77518" lon="6.32155">
        <ele>2261.8</ele>
        <time>2024-08-12T11:46:08Z</time>
      </trkpt>
      <trkpt lat="44.77516" lon="6.32153">
        <ele>2262.4</ele>
        <time>2024-08-12T11:46:09Z</time>
      </trkpt>
      <trkpt lat="44.77516" lon="6.32153">
        <ele>2262.4</ele>
        <time>2024-08-12T11:46:10Z</time>
      </trkpt>
      <trkpt lat="44.77514" lon="6.32151">
        <ele>2262.4</ele>
        <time>2024-08-12T11:46:11Z</time>
      </trkpt>
      <trkpt lat="44.77514" lon="6.32151">
        <ele>2262.4</ele>
        <time>2024-08-12T11:46:12Z</time>
      </trkpt>
      <trkpt lat="44.77512" lon="6.32149">
        <ele>2262.4</ele>
        <time>2024-08-12T11:46:13Z</time>
      </trkpt>
      <trkpt lat="44.77512" lon="6.32149">
        <ele>2262.6</ele>
        <time>2024-08-12T11:46:14Z</time>
      </trkpt>
      <trkpt lat="44.77511" lon="6.32147">
        <ele>2263.2</ele>
        <time>2024-08-12T11:46:15Z</time>
      </trkpt>
      <trkpt lat="44.77511" lon="6.32147">
        <ele>2263.2</ele>
        <time>2024-08-12T11:46:16Z</time>
      </trkpt>
      <trkpt lat="44.7751" lon="6.32145">
        <ele>2263.2</ele>
        <time>2024-08-12T11:46:17Z</time>
      </trkpt>
      <trkpt lat="44.7751" lon="6.32145">
        <ele>2263.6</ele>
        <time>2024-08-12T11:46:18Z</time>
      </trkpt>
      <trkpt lat="44.77509" lon="6.32143">
        <ele>2263.6</ele>
        <time>2024-08-12T11:46:19Z</time>
      </trkpt>
      <trkpt lat="44.77509" lon="6.32143">
        <ele>2263.6</ele>
        <time>2024-08-12T11:46:20Z</time>
      </trkpt>
      <trkpt lat="44.77508" lon="6.3214">
        <ele>2263.6</ele>
        <time>2024-08-12T11:46:21Z</time>
      </trkpt>
      <trkpt lat="44.77508" lon="6.3214">
        <ele>2263.8</ele>
        <time>2024-08-12T11:46:22Z</time>
      </trkpt>
      <trkpt lat="44.77507" lon="6.32138">
        <ele>2264</ele>
        <time>2024-08-12T11:46:23Z</time>
      </trkpt>
      <trkpt lat="44.77507" lon="6.32138">
        <ele>2264.4</ele>
        <time>2024-08-12T11:46:24Z</time>
      </trkpt>
      <trkpt lat="44.77507" lon="6.32138">
        <ele>2264.4</ele>
        <time>2024-08-12T11:46:25Z</time>
      </trkpt>
      <trkpt lat="44.77505" lon="6.32135">
        <ele>2264.6</ele>
        <time>2024-08-12T11:46:26Z</time>
      </trkpt>
      <trkpt lat="44.77505" lon="6.32135">
        <ele>2264.6</ele>
        <time>2024-08-12T11:46:27Z</time>
      </trkpt>
      <trkpt lat="44.77505" lon="6.32135">
        <ele>2264.6</ele>
        <time>2024-08-12T11:46:28Z</time>
      </trkpt>
      <trkpt lat="44.77503" lon="6.32133">
        <ele>2264.6</ele>
        <time>2024-08-12T11:46:29Z</time>
      </trkpt>
      <trkpt lat="44.77503" lon="6.32133">
        <ele>2265</ele>
        <time>2024-08-12T11:46:30Z</time>
      </trkpt>
      <trkpt lat="44.77503" lon="6.32133">
        <ele>2265.2</ele>
        <time>2024-08-12T11:46:31Z</time>
      </trkpt>
      <trkpt lat="44.77501" lon="6.3213">
        <ele>2265.2</ele>
        <time>2024-08-12T11:46:32Z</time>
      </trkpt>
      <trkpt lat="44.77501" lon="6.3213">
        <ele>2265.2</ele>
        <time>2024-08-12T11:46:33Z</time>
      </trkpt>
      <trkpt lat="44.77501" lon="6.3213">
        <ele>2265.4</ele>
        <time>2024-08-12T11:46:34Z</time>
      </trkpt>
      <trkpt lat="44.77499" lon="6.32127">
        <ele>2265.6</ele>
        <time>2024-08-12T11:46:35Z</time>
      </trkpt>
      <trkpt lat="44.77499" lon="6.32127">
        <ele>2265.6</ele>
        <time>2024-08-12T11:46:36Z</time>
      </trkpt>
      <trkpt lat="44.77499" lon="6.32127">
        <ele>2266</ele>
        <time>2024-08-12T11:46:37Z</time>
      </trkpt>
      <trkpt lat="44.77498" lon="6.32125">
        <ele>2266.2</ele>
        <time>2024-08-12T11:46:38Z</time>
      </trkpt>
      <trkpt lat="44.77498" lon="6.32125">
        <ele>2266.6</ele>
        <time>2024-08-12T11:46:39Z</time>
      </trkpt>
      <trkpt lat="44.77496" lon="6.32123">
        <ele>2266.6</ele>
        <time>2024-08-12T11:46:40Z</time>
      </trkpt>
      <trkpt lat="44.77496" lon="6.32123">
        <ele>2266.6</ele>
        <time>2024-08-12T11:46:41Z</time>
      </trkpt>
      <trkpt lat="44.77495" lon="6.32121">
        <ele>2266.6</ele>
        <time>2024-08-12T11:46:42Z</time>
      </trkpt>
      <trkpt lat="44.77495" lon="6.32121">
        <ele>2266.6</ele>
        <time>2024-08-12T11:46:43Z</time>
      </trkpt>
      <trkpt lat="44.77493" lon="6.3212">
        <ele>2266.8</ele>
        <time>2024-08-12T11:46:44Z</time>
      </trkpt>
      <trkpt lat="44.77493" lon="6.3212">
        <ele>2266.8</ele>
        <time>2024-08-12T11:46:45Z</time>
      </trkpt>
      <trkpt lat="44.77493" lon="6.32117">
        <ele>2267.2</ele>
        <time>2024-08-12T11:46:46Z</time>
      </trkpt>
      <trkpt lat="44.77493" lon="6.32117">
        <ele>2267.4</ele>
        <time>2024-08-12T11:46:47Z</time>
      </trkpt>
      <trkpt lat="44.77493" lon="6.32117">
        <ele>2267.4</ele>
        <time>2024-08-12T11:46:48Z</time>
      </trkpt>
      <trkpt lat="44.77491" lon="6.32114">
        <ele>2267.6</ele>
        <time>2024-08-12T11:46:49Z</time>
      </trkpt>
      <trkpt lat="44.77491" lon="6.32114">
        <ele>2268</ele>
        <time>2024-08-12T11:46:50Z</time>
      </trkpt>
      <trkpt lat="44.7749" lon="6.32112">
        <ele>2268</ele>
        <time>2024-08-12T11:46:51Z</time>
      </trkpt>
      <trkpt lat="44.7749" lon="6.32112">
        <ele>2268</ele>
        <time>2024-08-12T11:46:52Z</time>
      </trkpt>
      <trkpt lat="44.7749" lon="6.32112">
        <ele>2268.2</ele>
        <time>2024-08-12T11:46:53Z</time>
      </trkpt>
      <trkpt lat="44.7749" lon="6.32109">
        <ele>2268.2</ele>
        <time>2024-08-12T11:46:54Z</time>
      </trkpt>
      <trkpt lat="44.7749" lon="6.32109">
        <ele>2268.6</ele>
        <time>2024-08-12T11:46:55Z</time>
      </trkpt>
      <trkpt lat="44.77492" lon="6.32109">
        <ele>2268.8</ele>
        <time>2024-08-12T11:46:56Z</time>
      </trkpt>
      <trkpt lat="44.77492" lon="6.32109">
        <ele>2269.2</ele>
        <time>2024-08-12T11:46:57Z</time>
      </trkpt>
      <trkpt lat="44.77493" lon="6.32111">
        <ele>2269.2</ele>
        <time>2024-08-12T11:46:58Z</time>
      </trkpt>
      <trkpt lat="44.77493" lon="6.32111">
        <ele>2269.2</ele>
        <time>2024-08-12T11:46:59Z</time>
      </trkpt>
      <trkpt lat="44.77493" lon="6.32111">
        <ele>2269.4</ele>
        <time>2024-08-12T11:47:00Z</time>
      </trkpt>
      <trkpt lat="44.77496" lon="6.32112">
        <ele>2269.8</ele>
        <time>2024-08-12T11:47:01Z</time>
      </trkpt>
      <trkpt lat="44.77496" lon="6.32112">
        <ele>2270</ele>
        <time>2024-08-12T11:47:02Z</time>
      </trkpt>
      <trkpt lat="44.77496" lon="6.32112">
        <ele>2270</ele>
        <time>2024-08-12T11:47:03Z</time>
      </trkpt>
      <trkpt lat="44.77496" lon="6.32112">
        <ele>2270.2</ele>
        <time>2024-08-12T11:47:04Z</time>
      </trkpt>
      <trkpt lat="44.77496" lon="6.32112">
        <ele>2270.6</ele>
        <time>2024-08-12T11:47:05Z</time>
      </trkpt>
      <trkpt lat="44.77498" lon="6.32112">
        <ele>2270.6</ele>
        <time>2024-08-12T11:47:06Z</time>
      </trkpt>
      <trkpt lat="44.77498" lon="6.32112">
        <ele>2270.8</ele>
        <time>2024-08-12T11:47:07Z</time>
      </trkpt>
      <trkpt lat="44.775" lon="6.32113">
        <ele>2271.2</ele>
        <time>2024-08-12T11:47:08Z</time>
      </trkpt>
      <trkpt lat="44.775" lon="6.32113">
        <ele>2271.4</ele>
        <time>2024-08-12T11:47:09Z</time>
      </trkpt>
      <trkpt lat="44.77502" lon="6.32115">
        <ele>2271.6</ele>
        <time>2024-08-12T11:47:10Z</time>
      </trkpt>
      <trkpt lat="44.77502" lon="6.32115">
        <ele>2271.6</ele>
        <time>2024-08-12T11:47:11Z</time>
      </trkpt>
      <trkpt lat="44.77504" lon="6.32116">
        <ele>2271.8</ele>
        <time>2024-08-12T11:47:12Z</time>
      </trkpt>
      <trkpt lat="44.77504" lon="6.32116">
        <ele>2271.8</ele>
        <time>2024-08-12T11:47:13Z</time>
      </trkpt>
      <trkpt lat="44.77507" lon="6.32117">
        <ele>2271.8</ele>
        <time>2024-08-12T11:47:14Z</time>
      </trkpt>
      <trkpt lat="44.77507" lon="6.32117">
        <ele>2271.8</ele>
        <time>2024-08-12T11:47:15Z</time>
      </trkpt>
      <trkpt lat="44.77507" lon="6.32117">
        <ele>2272</ele>
        <time>2024-08-12T11:47:16Z</time>
      </trkpt>
      <trkpt lat="44.77509" lon="6.32119">
        <ele>2272.2</ele>
        <time>2024-08-12T11:47:17Z</time>
      </trkpt>
      <trkpt lat="44.77509" lon="6.32119">
        <ele>2272.4</ele>
        <time>2024-08-12T11:47:18Z</time>
      </trkpt>
      <trkpt lat="44.77509" lon="6.32119">
        <ele>2272.4</ele>
        <time>2024-08-12T11:47:19Z</time>
      </trkpt>
      <trkpt lat="44.77511" lon="6.3212">
        <ele>2272.8</ele>
        <time>2024-08-12T11:47:20Z</time>
      </trkpt>
      <trkpt lat="44.77511" lon="6.3212">
        <ele>2273</ele>
        <time>2024-08-12T11:47:21Z</time>
      </trkpt>
      <trkpt lat="44.77511" lon="6.3212">
        <ele>2273</ele>
        <time>2024-08-12T11:47:22Z</time>
      </trkpt>
      <trkpt lat="44.77514" lon="6.3212">
        <ele>2273.4</ele>
        <time>2024-08-12T11:47:23Z</time>
      </trkpt>
      <trkpt lat="44.77514" lon="6.3212">
        <ele>2273.6</ele>
        <time>2024-08-12T11:47:24Z</time>
      </trkpt>
      <trkpt lat="44.77514" lon="6.3212">
        <ele>2273.8</ele>
        <time>2024-08-12T11:47:25Z</time>
      </trkpt>
      <trkpt lat="44.77514" lon="6.3212">
        <ele>2274</ele>
        <time>2024-08-12T11:47:26Z</time>
      </trkpt>
      <trkpt lat="44.77516" lon="6.32122">
        <ele>2274.4</ele>
        <time>2024-08-12T11:47:27Z</time>
      </trkpt>
      <trkpt lat="44.77516" lon="6.32122">
        <ele>2274.4</ele>
        <time>2024-08-12T11:47:28Z</time>
      </trkpt>
      <trkpt lat="44.77517" lon="6.32123">
        <ele>2274.8</ele>
        <time>2024-08-12T11:47:29Z</time>
      </trkpt>
      <trkpt lat="44.77517" lon="6.32123">
        <ele>2274.8</ele>
        <time>2024-08-12T11:47:30Z</time>
      </trkpt>
      <trkpt lat="44.77517" lon="6.32123">
        <ele>2274.8</ele>
        <time>2024-08-12T11:47:31Z</time>
      </trkpt>
      <trkpt lat="44.7752" lon="6.32124">
        <ele>2275.2</ele>
        <time>2024-08-12T11:47:32Z</time>
      </trkpt>
      <trkpt lat="44.7752" lon="6.32124">
        <ele>2275.2</ele>
        <time>2024-08-12T11:47:33Z</time>
      </trkpt>
      <trkpt lat="44.7752" lon="6.32124">
        <ele>2275.4</ele>
        <time>2024-08-12T11:47:34Z</time>
      </trkpt>
      <trkpt lat="44.77522" lon="6.32125">
        <ele>2275.8</ele>
        <time>2024-08-12T11:47:35Z</time>
      </trkpt>
      <trkpt lat="44.77522" lon="6.32125">
        <ele>2275.8</ele>
        <time>2024-08-12T11:47:36Z</time>
      </trkpt>
      <trkpt lat="44.77524" lon="6.32126">
        <ele>2275.8</ele>
        <time>2024-08-12T11:47:37Z</time>
      </trkpt>
      <trkpt lat="44.77524" lon="6.32126">
        <ele>2276.2</ele>
        <time>2024-08-12T11:47:38Z</time>
      </trkpt>
      <trkpt lat="44.77524" lon="6.32126">
        <ele>2276.2</ele>
        <time>2024-08-12T11:47:39Z</time>
      </trkpt>
      <trkpt lat="44.77526" lon="6.32127">
        <ele>2276.2</ele>
        <time>2024-08-12T11:47:40Z</time>
      </trkpt>
      <trkpt lat="44.77526" lon="6.32127">
        <ele>2276.6</ele>
        <time>2024-08-12T11:47:41Z</time>
      </trkpt>
      <trkpt lat="44.77526" lon="6.32127">
        <ele>2276.6</ele>
        <time>2024-08-12T11:47:42Z</time>
      </trkpt>
      <trkpt lat="44.77528" lon="6.32127">
        <ele>2276.8</ele>
        <time>2024-08-12T11:47:43Z</time>
      </trkpt>
      <trkpt lat="44.77528" lon="6.32127">
        <ele>2276.8</ele>
        <time>2024-08-12T11:47:44Z</time>
      </trkpt>
      <trkpt lat="44.77528" lon="6.32127">
        <ele>2277.4</ele>
        <time>2024-08-12T11:47:45Z</time>
      </trkpt>
      <trkpt lat="44.77528" lon="6.32127">
        <ele>2277.6</ele>
        <time>2024-08-12T11:47:46Z</time>
      </trkpt>
      <trkpt lat="44.77528" lon="6.32127">
        <ele>2277.6</ele>
        <time>2024-08-12T11:47:47Z</time>
      </trkpt>
      <trkpt lat="44.77526" lon="6.32126">
        <ele>2278</ele>
        <time>2024-08-12T11:47:48Z</time>
      </trkpt>
      <trkpt lat="44.77526" lon="6.32126">
        <ele>2278</ele>
        <time>2024-08-12T11:47:49Z</time>
      </trkpt>
      <trkpt lat="44.77526" lon="6.32126">
        <ele>2278</ele>
        <time>2024-08-12T11:47:50Z</time>
      </trkpt>
      <trkpt lat="44.77526" lon="6.32126">
        <ele>2278.2</ele>
        <time>2024-08-12T11:47:51Z</time>
      </trkpt>
      <trkpt lat="44.77526" lon="6.32126">
        <ele>2278.2</ele>
        <time>2024-08-12T11:47:52Z</time>
      </trkpt>
      <trkpt lat="44.77526" lon="6.32126">
        <ele>2278.2</ele>
        <time>2024-08-12T11:47:53Z</time>
      </trkpt>
      <trkpt lat="44.77526" lon="6.32126">
        <ele>2278</ele>
        <time>2024-08-12T11:47:54Z</time>
      </trkpt>
      <trkpt lat="44.77526" lon="6.32126">
        <ele>2277.8</ele>
        <time>2024-08-12T11:47:55Z</time>
      </trkpt>
      <trkpt lat="44.77526" lon="6.32126">
        <ele>2277.8</ele>
        <time>2024-08-12T11:47:56Z</time>
      </trkpt>
      <trkpt lat="44.77526" lon="6.32126">
        <ele>2277.8</ele>
        <time>2024-08-12T11:47:57Z</time>
      </trkpt>
      <trkpt lat="44.77526" lon="6.32126">
        <ele>2278</ele>
        <time>2024-08-12T11:47:58Z</time>
      </trkpt>
      <trkpt lat="44.77526" lon="6.32126">
        <ele>2278</ele>
        <time>2024-08-12T11:47:59Z</time>
      </trkpt>
      <trkpt lat="44.77526" lon="6.32126">
        <ele>2278</ele>
        <time>2024-08-12T11:48:00Z</time>
      </trkpt>
      <trkpt lat="44.77526" lon="6.32126">
        <ele>2278.2</ele>
        <time>2024-08-12T11:48:01Z</time>
      </trkpt>
      <trkpt lat="44.77525" lon="6.32123">
        <ele>2279.2</ele>
        <time>2024-08-12T11:48:02Z</time>
      </trkpt>
      <trkpt lat="44.77525" lon="6.32123">
        <ele>2279.2</ele>
        <time>2024-08-12T11:48:03Z</time>
      </trkpt>
      <trkpt lat="44.77523" lon="6.3212">
        <ele>2279.4</ele>
        <time>2024-08-12T11:48:04Z</time>
      </trkpt>
      <trkpt lat="44.77523" lon="6.3212">
        <ele>2280</ele>
        <time>2024-08-12T11:48:05Z</time>
      </trkpt>
      <trkpt lat="44.77521" lon="6.32118">
        <ele>2280.2</ele>
        <time>2024-08-12T11:48:06Z</time>
      </trkpt>
      <trkpt lat="44.77521" lon="6.32118">
        <ele>2280.2</ele>
        <time>2024-08-12T11:48:07Z</time>
      </trkpt>
      <trkpt lat="44.77519" lon="6.32116">
        <ele>2280.4</ele>
        <time>2024-08-12T11:48:08Z</time>
      </trkpt>
      <trkpt lat="44.77519" lon="6.32116">
        <ele>2280.6</ele>
        <time>2024-08-12T11:48:09Z</time>
      </trkpt>
      <trkpt lat="44.77518" lon="6.32114">
        <ele>2280.6</ele>
        <time>2024-08-12T11:48:10Z</time>
      </trkpt>
      <trkpt lat="44.77518" lon="6.32114">
        <ele>2280.8</ele>
        <time>2024-08-12T11:48:11Z</time>
      </trkpt>
      <trkpt lat="44.77516" lon="6.32112">
        <ele>2281</ele>
        <time>2024-08-12T11:48:12Z</time>
      </trkpt>
      <trkpt lat="44.77516" lon="6.32112">
        <ele>2281.4</ele>
        <time>2024-08-12T11:48:13Z</time>
      </trkpt>
      <trkpt lat="44.77515" lon="6.3211">
        <ele>2281.6</ele>
        <time>2024-08-12T11:48:14Z</time>
      </trkpt>
      <trkpt lat="44.77515" lon="6.3211">
        <ele>2281.8</ele>
        <time>2024-08-12T11:48:15Z</time>
      </trkpt>
      <trkpt lat="44.77514" lon="6.32107">
        <ele>2281.8</ele>
        <time>2024-08-12T11:48:16Z</time>
      </trkpt>
      <trkpt lat="44.77514" lon="6.32107">
        <ele>2282.2</ele>
        <time>2024-08-12T11:48:17Z</time>
      </trkpt>
      <trkpt lat="44.77513" lon="6.32105">
        <ele>2282.4</ele>
        <time>2024-08-12T11:48:18Z</time>
      </trkpt>
      <trkpt lat="44.77513" lon="6.32105">
        <ele>2282.2</ele>
        <time>2024-08-12T11:48:19Z</time>
      </trkpt>
      <trkpt lat="44.77512" lon="6.32103">
        <ele>2282</ele>
        <time>2024-08-12T11:48:20Z</time>
      </trkpt>
      <trkpt lat="44.77512" lon="6.32103">
        <ele>2282</ele>
        <time>2024-08-12T11:48:21Z</time>
      </trkpt>
      <trkpt lat="44.77511" lon="6.321">
        <ele>2282</ele>
        <time>2024-08-12T11:48:22Z</time>
      </trkpt>
      <trkpt lat="44.77511" lon="6.321">
        <ele>2282</ele>
        <time>2024-08-12T11:48:23Z</time>
      </trkpt>
      <trkpt lat="44.7751" lon="6.32098">
        <ele>2282</ele>
        <time>2024-08-12T11:48:24Z</time>
      </trkpt>
      <trkpt lat="44.7751" lon="6.32098">
        <ele>2282.2</ele>
        <time>2024-08-12T11:48:25Z</time>
      </trkpt>
      <trkpt lat="44.7751" lon="6.32098">
        <ele>2282.6</ele>
        <time>2024-08-12T11:48:26Z</time>
      </trkpt>
      <trkpt lat="44.77509" lon="6.32095">
        <ele>2282.6</ele>
        <time>2024-08-12T11:48:27Z</time>
      </trkpt>
      <trkpt lat="44.77509" lon="6.32095">
        <ele>2282.8</ele>
        <time>2024-08-12T11:48:28Z</time>
      </trkpt>
      <trkpt lat="44.77508" lon="6.32093">
        <ele>2283</ele>
        <time>2024-08-12T11:48:29Z</time>
      </trkpt>
      <trkpt lat="44.77508" lon="6.32093">
        <ele>2283.2</ele>
        <time>2024-08-12T11:48:30Z</time>
      </trkpt>
      <trkpt lat="44.77508" lon="6.32093">
        <ele>2283.2</ele>
        <time>2024-08-12T11:48:31Z</time>
      </trkpt>
      <trkpt lat="44.77508" lon="6.3209">
        <ele>2283.4</ele>
        <time>2024-08-12T11:48:32Z</time>
      </trkpt>
      <trkpt lat="44.77508" lon="6.3209">
        <ele>2283.6</ele>
        <time>2024-08-12T11:48:33Z</time>
      </trkpt>
      <trkpt lat="44.77508" lon="6.3209">
        <ele>2284</ele>
        <time>2024-08-12T11:48:34Z</time>
      </trkpt>
      <trkpt lat="44.7751" lon="6.32092">
        <ele>2284.2</ele>
        <time>2024-08-12T11:48:35Z</time>
      </trkpt>
      <trkpt lat="44.7751" lon="6.32092">
        <ele>2284.2</ele>
        <time>2024-08-12T11:48:36Z</time>
      </trkpt>
      <trkpt lat="44.7751" lon="6.32092">
        <ele>2284</ele>
        <time>2024-08-12T11:48:37Z</time>
      </trkpt>
      <trkpt lat="44.77512" lon="6.32093">
        <ele>2284</ele>
        <time>2024-08-12T11:48:38Z</time>
      </trkpt>
      <trkpt lat="44.77512" lon="6.32093">
        <ele>2284.2</ele>
        <time>2024-08-12T11:48:39Z</time>
      </trkpt>
      <trkpt lat="44.77512" lon="6.32093">
        <ele>2284.2</ele>
        <time>2024-08-12T11:48:40Z</time>
      </trkpt>
      <trkpt lat="44.77512" lon="6.32093">
        <ele>2284.4</ele>
        <time>2024-08-12T11:48:41Z</time>
      </trkpt>
      <trkpt lat="44.77514" lon="6.32095">
        <ele>2284.8</ele>
        <time>2024-08-12T11:48:42Z</time>
      </trkpt>
      <trkpt lat="44.77514" lon="6.32095">
        <ele>2285.4</ele>
        <time>2024-08-12T11:48:43Z</time>
      </trkpt>
      <trkpt lat="44.77516" lon="6.32095">
        <ele>2285.4</ele>
        <time>2024-08-12T11:48:44Z</time>
      </trkpt>
      <trkpt lat="44.77516" lon="6.32095">
        <ele>2285.6</ele>
        <time>2024-08-12T11:48:45Z</time>
      </trkpt>
      <trkpt lat="44.77516" lon="6.32095">
        <ele>2285.6</ele>
        <time>2024-08-12T11:48:46Z</time>
      </trkpt>
      <trkpt lat="44.77516" lon="6.32095">
        <ele>2286</ele>
        <time>2024-08-12T11:48:47Z</time>
      </trkpt>
      <trkpt lat="44.77518" lon="6.32096">
        <ele>2286</ele>
        <time>2024-08-12T11:48:48Z</time>
      </trkpt>
      <trkpt lat="44.77518" lon="6.32096">
        <ele>2286.2</ele>
        <time>2024-08-12T11:48:49Z</time>
      </trkpt>
      <trkpt lat="44.7752" lon="6.32097">
        <ele>2286.8</ele>
        <time>2024-08-12T11:48:50Z</time>
      </trkpt>
      <trkpt lat="44.7752" lon="6.32097">
        <ele>2286.8</ele>
        <time>2024-08-12T11:48:51Z</time>
      </trkpt>
      <trkpt lat="44.77523" lon="6.32098">
        <ele>2287</ele>
        <time>2024-08-12T11:48:52Z</time>
      </trkpt>
      <trkpt lat="44.77523" lon="6.32098">
        <ele>2287</ele>
        <time>2024-08-12T11:48:53Z</time>
      </trkpt>
      <trkpt lat="44.77523" lon="6.32098">
        <ele>2287.2</ele>
        <time>2024-08-12T11:48:54Z</time>
      </trkpt>
      <trkpt lat="44.77523" lon="6.32098">
        <ele>2287.6</ele>
        <time>2024-08-12T11:48:55Z</time>
      </trkpt>
      <trkpt lat="44.77523" lon="6.32098">
        <ele>2287.8</ele>
        <time>2024-08-12T11:48:56Z</time>
      </trkpt>
      <trkpt lat="44.77523" lon="6.32098">
        <ele>2288.4</ele>
        <time>2024-08-12T11:48:57Z</time>
      </trkpt>
      <trkpt lat="44.77522" lon="6.32095">
        <ele>2288.4</ele>
        <time>2024-08-12T11:48:58Z</time>
      </trkpt>
      <trkpt lat="44.77522" lon="6.32095">
        <ele>2288.6</ele>
        <time>2024-08-12T11:48:59Z</time>
      </trkpt>
      <trkpt lat="44.77522" lon="6.32095">
        <ele>2289</ele>
        <time>2024-08-12T11:49:00Z</time>
      </trkpt>
      <trkpt lat="44.7752" lon="6.32092">
        <ele>2289</ele>
        <time>2024-08-12T11:49:01Z</time>
      </trkpt>
      <trkpt lat="44.7752" lon="6.32092">
        <ele>2289</ele>
        <time>2024-08-12T11:49:02Z</time>
      </trkpt>
      <trkpt lat="44.7752" lon="6.32092">
        <ele>2289</ele>
        <time>2024-08-12T11:49:03Z</time>
      </trkpt>
      <trkpt lat="44.7752" lon="6.32092">
        <ele>2289.2</ele>
        <time>2024-08-12T11:49:04Z</time>
      </trkpt>
      <trkpt lat="44.7752" lon="6.32092">
        <ele>2289.4</ele>
        <time>2024-08-12T11:49:05Z</time>
      </trkpt>
      <trkpt lat="44.77519" lon="6.3209">
        <ele>2289.6</ele>
        <time>2024-08-12T11:49:06Z</time>
      </trkpt>
      <trkpt lat="44.77519" lon="6.3209">
        <ele>2289.8</ele>
        <time>2024-08-12T11:49:07Z</time>
      </trkpt>
      <trkpt lat="44.77517" lon="6.32086">
        <ele>2289.8</ele>
        <time>2024-08-12T11:49:08Z</time>
      </trkpt>
      <trkpt lat="44.77517" lon="6.32086">
        <ele>2290.2</ele>
        <time>2024-08-12T11:49:09Z</time>
      </trkpt>
      <trkpt lat="44.77516" lon="6.32083">
        <ele>2290.4</ele>
        <time>2024-08-12T11:49:10Z</time>
      </trkpt>
      <trkpt lat="44.77516" lon="6.32083">
        <ele>2290.6</ele>
        <time>2024-08-12T11:49:11Z</time>
      </trkpt>
      <trkpt lat="44.77514" lon="6.3208">
        <ele>2290.6</ele>
        <time>2024-08-12T11:49:12Z</time>
      </trkpt>
      <trkpt lat="44.77514" lon="6.3208">
        <ele>2290.8</ele>
        <time>2024-08-12T11:49:13Z</time>
      </trkpt>
      <trkpt lat="44.77513" lon="6.32078">
        <ele>2290.8</ele>
        <time>2024-08-12T11:49:14Z</time>
      </trkpt>
      <trkpt lat="44.77513" lon="6.32078">
        <ele>2290.8</ele>
        <time>2024-08-12T11:49:15Z</time>
      </trkpt>
      <trkpt lat="44.77512" lon="6.32075">
        <ele>2290.8</ele>
        <time>2024-08-12T11:49:16Z</time>
      </trkpt>
      <trkpt lat="44.77512" lon="6.32075">
        <ele>2290.8</ele>
        <time>2024-08-12T11:49:17Z</time>
      </trkpt>
      <trkpt lat="44.77512" lon="6.32075">
        <ele>2291</ele>
        <time>2024-08-12T11:49:18Z</time>
      </trkpt>
      <trkpt lat="44.77512" lon="6.32072">
        <ele>2291</ele>
        <time>2024-08-12T11:49:19Z</time>
      </trkpt>
      <trkpt lat="44.77512" lon="6.32072">
        <ele>2291.4</ele>
        <time>2024-08-12T11:49:20Z</time>
      </trkpt>
      <trkpt lat="44.77512" lon="6.32072">
        <ele>2291.6</ele>
        <time>2024-08-12T11:49:21Z</time>
      </trkpt>
      <trkpt lat="44.77511" lon="6.3207">
        <ele>2292</ele>
        <time>2024-08-12T11:49:22Z</time>
      </trkpt>
      <trkpt lat="44.77511" lon="6.3207">
        <ele>2292.4</ele>
        <time>2024-08-12T11:49:23Z</time>
      </trkpt>
      <trkpt lat="44.77511" lon="6.3207">
        <ele>2292.6</ele>
        <time>2024-08-12T11:49:24Z</time>
      </trkpt>
      <trkpt lat="44.7751" lon="6.32068">
        <ele>2292.8</ele>
        <time>2024-08-12T11:49:25Z</time>
      </trkpt>
      <trkpt lat="44.7751" lon="6.32068">
        <ele>2293.2</ele>
        <time>2024-08-12T11:49:26Z</time>
      </trkpt>
      <trkpt lat="44.7751" lon="6.32068">
        <ele>2293.6</ele>
        <time>2024-08-12T11:49:27Z</time>
      </trkpt>
      <trkpt lat="44.77508" lon="6.32066">
        <ele>2294</ele>
        <time>2024-08-12T11:49:28Z</time>
      </trkpt>
      <trkpt lat="44.77508" lon="6.32066">
        <ele>2294.8</ele>
        <time>2024-08-12T11:49:29Z</time>
      </trkpt>
      <trkpt lat="44.77508" lon="6.32066">
        <ele>2295.2</ele>
        <time>2024-08-12T11:49:30Z</time>
      </trkpt>
      <trkpt lat="44.77507" lon="6.32063">
        <ele>2295.4</ele>
        <time>2024-08-12T11:49:31Z</time>
      </trkpt>
      <trkpt lat="44.77507" lon="6.32063">
        <ele>2295.6</ele>
        <time>2024-08-12T11:49:32Z</time>
      </trkpt>
      <trkpt lat="44.77507" lon="6.32063">
        <ele>2295.8</ele>
        <time>2024-08-12T11:49:33Z</time>
      </trkpt>
      <trkpt lat="44.77507" lon="6.32063">
        <ele>2296.2</ele>
        <time>2024-08-12T11:49:34Z</time>
      </trkpt>
      <trkpt lat="44.77505" lon="6.3206">
        <ele>2296.6</ele>
        <time>2024-08-12T11:49:35Z</time>
      </trkpt>
      <trkpt lat="44.77505" lon="6.3206">
        <ele>2296.8</ele>
        <time>2024-08-12T11:49:36Z</time>
      </trkpt>
      <trkpt lat="44.77505" lon="6.32058">
        <ele>2297</ele>
        <time>2024-08-12T11:49:37Z</time>
      </trkpt>
      <trkpt lat="44.77505" lon="6.32058">
        <ele>2297.4</ele>
        <time>2024-08-12T11:49:38Z</time>
      </trkpt>
      <trkpt lat="44.77505" lon="6.32058">
        <ele>2297.8</ele>
        <time>2024-08-12T11:49:39Z</time>
      </trkpt>
      <trkpt lat="44.77505" lon="6.32058">
        <ele>2298</ele>
        <time>2024-08-12T11:49:40Z</time>
      </trkpt>
      <trkpt lat="44.77504" lon="6.32055">
        <ele>2298.4</ele>
        <time>2024-08-12T11:49:41Z</time>
      </trkpt>
      <trkpt lat="44.77504" lon="6.32055">
        <ele>2298.6</ele>
        <time>2024-08-12T11:49:42Z</time>
      </trkpt>
      <trkpt lat="44.77504" lon="6.32055">
        <ele>2299</ele>
        <time>2024-08-12T11:49:43Z</time>
      </trkpt>
      <trkpt lat="44.77504" lon="6.32055">
        <ele>2299</ele>
        <time>2024-08-12T11:49:44Z</time>
      </trkpt>
      <trkpt lat="44.77503" lon="6.32052">
        <ele>2299.2</ele>
        <time>2024-08-12T11:49:45Z</time>
      </trkpt>
      <trkpt lat="44.77503" lon="6.32052">
        <ele>2299.4</ele>
        <time>2024-08-12T11:49:46Z</time>
      </trkpt>
      <trkpt lat="44.77503" lon="6.32052">
        <ele>2299.6</ele>
        <time>2024-08-12T11:49:47Z</time>
      </trkpt>
      <trkpt lat="44.77502" lon="6.32049">
        <ele>2299.8</ele>
        <time>2024-08-12T11:49:48Z</time>
      </trkpt>
      <trkpt lat="44.77502" lon="6.32049">
        <ele>2300.2</ele>
        <time>2024-08-12T11:49:49Z</time>
      </trkpt>
      <trkpt lat="44.77501" lon="6.32047">
        <ele>2300.4</ele>
        <time>2024-08-12T11:49:50Z</time>
      </trkpt>
      <trkpt lat="44.77501" lon="6.32047">
        <ele>2300.6</ele>
        <time>2024-08-12T11:49:51Z</time>
      </trkpt>
      <trkpt lat="44.77499" lon="6.32046">
        <ele>2300.6</ele>
        <time>2024-08-12T11:49:52Z</time>
      </trkpt>
      <trkpt lat="44.77499" lon="6.32046">
        <ele>2300.8</ele>
        <time>2024-08-12T11:49:53Z</time>
      </trkpt>
      <trkpt lat="44.77499" lon="6.32046">
        <ele>2301</ele>
        <time>2024-08-12T11:49:54Z</time>
      </trkpt>
      <trkpt lat="44.77497" lon="6.32043">
        <ele>2301</ele>
        <time>2024-08-12T11:49:55Z</time>
      </trkpt>
      <trkpt lat="44.77497" lon="6.32043">
        <ele>2301.4</ele>
        <time>2024-08-12T11:49:56Z</time>
      </trkpt>
      <trkpt lat="44.77497" lon="6.32043">
        <ele>2301.4</ele>
        <time>2024-08-12T11:49:57Z</time>
      </trkpt>
      <trkpt lat="44.77495" lon="6.32041">
        <ele>2301.6</ele>
        <time>2024-08-12T11:49:58Z</time>
      </trkpt>
      <trkpt lat="44.77495" lon="6.32041">
        <ele>2302</ele>
        <time>2024-08-12T11:49:59Z</time>
      </trkpt>
      <trkpt lat="44.77495" lon="6.32041">
        <ele>2302</ele>
        <time>2024-08-12T11:50:00Z</time>
      </trkpt>
      <trkpt lat="44.77493" lon="6.32039">
        <ele>2302.2</ele>
        <time>2024-08-12T11:50:01Z</time>
      </trkpt>
      <trkpt lat="44.77493" lon="6.32039">
        <ele>2302.2</ele>
        <time>2024-08-12T11:50:02Z</time>
      </trkpt>
      <trkpt lat="44.77493" lon="6.32039">
        <ele>2302.2</ele>
        <time>2024-08-12T11:50:03Z</time>
      </trkpt>
      <trkpt lat="44.77492" lon="6.32036">
        <ele>2302.2</ele>
        <time>2024-08-12T11:50:04Z</time>
      </trkpt>
      <trkpt lat="44.77492" lon="6.32036">
        <ele>2302.4</ele>
        <time>2024-08-12T11:50:05Z</time>
      </trkpt>
      <trkpt lat="44.77492" lon="6.32036">
        <ele>2302.4</ele>
        <time>2024-08-12T11:50:06Z</time>
      </trkpt>
      <trkpt lat="44.7749" lon="6.32033">
        <ele>2302.6</ele>
        <time>2024-08-12T11:50:07Z</time>
      </trkpt>
      <trkpt lat="44.7749" lon="6.32033">
        <ele>2303</ele>
        <time>2024-08-12T11:50:08Z</time>
      </trkpt>
      <trkpt lat="44.7749" lon="6.32033">
        <ele>2303.2</ele>
        <time>2024-08-12T11:50:09Z</time>
      </trkpt>
      <trkpt lat="44.77488" lon="6.32032">
        <ele>2303.4</ele>
        <time>2024-08-12T11:50:10Z</time>
      </trkpt>
      <trkpt lat="44.77488" lon="6.32032">
        <ele>2303.4</ele>
        <time>2024-08-12T11:50:11Z</time>
      </trkpt>
      <trkpt lat="44.77488" lon="6.32032">
        <ele>2303.2</ele>
        <time>2024-08-12T11:50:12Z</time>
      </trkpt>
      <trkpt lat="44.77486" lon="6.32029">
        <ele>2303.4</ele>
        <time>2024-08-12T11:50:13Z</time>
      </trkpt>
      <trkpt lat="44.77486" lon="6.32029">
        <ele>2303.4</ele>
        <time>2024-08-12T11:50:14Z</time>
      </trkpt>
      <trkpt lat="44.77485" lon="6.32027">
        <ele>2303.6</ele>
        <time>2024-08-12T11:50:15Z</time>
      </trkpt>
      <trkpt lat="44.77485" lon="6.32027">
        <ele>2303.8</ele>
        <time>2024-08-12T11:50:16Z</time>
      </trkpt>
      <trkpt lat="44.77485" lon="6.32027">
        <ele>2304</ele>
        <time>2024-08-12T11:50:17Z</time>
      </trkpt>
      <trkpt lat="44.77483" lon="6.32025">
        <ele>2304</ele>
        <time>2024-08-12T11:50:18Z</time>
      </trkpt>
      <trkpt lat="44.77483" lon="6.32025">
        <ele>2304.2</ele>
        <time>2024-08-12T11:50:19Z</time>
      </trkpt>
      <trkpt lat="44.77483" lon="6.32025">
        <ele>2304.2</ele>
        <time>2024-08-12T11:50:20Z</time>
      </trkpt>
      <trkpt lat="44.77481" lon="6.32023">
        <ele>2304.4</ele>
        <time>2024-08-12T11:50:21Z</time>
      </trkpt>
      <trkpt lat="44.77481" lon="6.32023">
        <ele>2304.6</ele>
        <time>2024-08-12T11:50:22Z</time>
      </trkpt>
      <trkpt lat="44.7748" lon="6.32021">
        <ele>2305</ele>
        <time>2024-08-12T11:50:23Z</time>
      </trkpt>
      <trkpt lat="44.7748" lon="6.32021">
        <ele>2305</ele>
        <time>2024-08-12T11:50:24Z</time>
      </trkpt>
      <trkpt lat="44.7748" lon="6.32021">
        <ele>2305</ele>
        <time>2024-08-12T11:50:25Z</time>
      </trkpt>
      <trkpt lat="44.77478" lon="6.3202">
        <ele>2305.4</ele>
        <time>2024-08-12T11:50:26Z</time>
      </trkpt>
      <trkpt lat="44.77478" lon="6.3202">
        <ele>2305.4</ele>
        <time>2024-08-12T11:50:27Z</time>
      </trkpt>
      <trkpt lat="44.77478" lon="6.3202">
        <ele>2305.4</ele>
        <time>2024-08-12T11:50:28Z</time>
      </trkpt>
      <trkpt lat="44.77478" lon="6.3202">
        <ele>2305.4</ele>
        <time>2024-08-12T11:50:29Z</time>
      </trkpt>
      <trkpt lat="44.77476" lon="6.32018">
        <ele>2305.6</ele>
        <time>2024-08-12T11:50:30Z</time>
      </trkpt>
      <trkpt lat="44.77476" lon="6.32018">
        <ele>2305.6</ele>
        <time>2024-08-12T11:50:31Z</time>
      </trkpt>
      <trkpt lat="44.77474" lon="6.32016">
        <ele>2305.8</ele>
        <time>2024-08-12T11:50:32Z</time>
      </trkpt>
      <trkpt lat="44.77474" lon="6.32016">
        <ele>2305.8</ele>
        <time>2024-08-12T11:50:33Z</time>
      </trkpt>
      <trkpt lat="44.77474" lon="6.32016">
        <ele>2306</ele>
        <time>2024-08-12T11:50:34Z</time>
      </trkpt>
      <trkpt lat="44.77473" lon="6.32014">
        <ele>2306.2</ele>
        <time>2024-08-12T11:50:35Z</time>
      </trkpt>
      <trkpt lat="44.77473" lon="6.32014">
        <ele>2306.2</ele>
        <time>2024-08-12T11:50:36Z</time>
      </trkpt>
      <trkpt lat="44.77473" lon="6.32014">
        <ele>2306.4</ele>
        <time>2024-08-12T11:50:37Z</time>
      </trkpt>
      <trkpt lat="44.77471" lon="6.32012">
        <ele>2306.4</ele>
        <time>2024-08-12T11:50:38Z</time>
      </trkpt>
      <trkpt lat="44.77471" lon="6.32012">
        <ele>2306.4</ele>
        <time>2024-08-12T11:50:39Z</time>
      </trkpt>
      <trkpt lat="44.77471" lon="6.32012">
        <ele>2306.6</ele>
        <time>2024-08-12T11:50:40Z</time>
      </trkpt>
      <trkpt lat="44.77471" lon="6.32012">
        <ele>2306.6</ele>
        <time>2024-08-12T11:50:41Z</time>
      </trkpt>
      <trkpt lat="44.77469" lon="6.3201">
        <ele>2306.8</ele>
        <time>2024-08-12T11:50:42Z</time>
      </trkpt>
      <trkpt lat="44.77469" lon="6.3201">
        <ele>2306.8</ele>
        <time>2024-08-12T11:50:43Z</time>
      </trkpt>
      <trkpt lat="44.77469" lon="6.3201">
        <ele>2307</ele>
        <time>2024-08-12T11:50:44Z</time>
      </trkpt>
      <trkpt lat="44.77468" lon="6.32007">
        <ele>2307</ele>
        <time>2024-08-12T11:50:45Z</time>
      </trkpt>
      <trkpt lat="44.77468" lon="6.32007">
        <ele>2307.4</ele>
        <time>2024-08-12T11:50:46Z</time>
      </trkpt>
      <trkpt lat="44.77467" lon="6.32005">
        <ele>2307.4</ele>
        <time>2024-08-12T11:50:47Z</time>
      </trkpt>
      <trkpt lat="44.77467" lon="6.32005">
        <ele>2307.4</ele>
        <time>2024-08-12T11:50:48Z</time>
      </trkpt>
      <trkpt lat="44.77467" lon="6.32005">
        <ele>2307.6</ele>
        <time>2024-08-12T11:50:49Z</time>
      </trkpt>
      <trkpt lat="44.77465" lon="6.32002">
        <ele>2307.4</ele>
        <time>2024-08-12T11:50:50Z</time>
      </trkpt>
      <trkpt lat="44.77465" lon="6.32002">
        <ele>2307.6</ele>
        <time>2024-08-12T11:50:51Z</time>
      </trkpt>
      <trkpt lat="44.77465" lon="6.32002">
        <ele>2308.2</ele>
        <time>2024-08-12T11:50:52Z</time>
      </trkpt>
      <trkpt lat="44.77465" lon="6.32002">
        <ele>2308.2</ele>
        <time>2024-08-12T11:50:53Z</time>
      </trkpt>
      <trkpt lat="44.77464" lon="6.32">
        <ele>2308.4</ele>
        <time>2024-08-12T11:50:54Z</time>
      </trkpt>
      <trkpt lat="44.77464" lon="6.32">
        <ele>2308.6</ele>
        <time>2024-08-12T11:50:55Z</time>
      </trkpt>
      <trkpt lat="44.77464" lon="6.32">
        <ele>2308.6</ele>
        <time>2024-08-12T11:50:56Z</time>
      </trkpt>
      <trkpt lat="44.77462" lon="6.31998">
        <ele>2308.8</ele>
        <time>2024-08-12T11:50:57Z</time>
      </trkpt>
      <trkpt lat="44.77462" lon="6.31998">
        <ele>2309</ele>
        <time>2024-08-12T11:50:58Z</time>
      </trkpt>
      <trkpt lat="44.77462" lon="6.31998">
        <ele>2309.2</ele>
        <time>2024-08-12T11:50:59Z</time>
      </trkpt>
      <trkpt lat="44.77462" lon="6.31998">
        <ele>2309.2</ele>
        <time>2024-08-12T11:51:00Z</time>
      </trkpt>
      <trkpt lat="44.77461" lon="6.31995">
        <ele>2309.4</ele>
        <time>2024-08-12T11:51:01Z</time>
      </trkpt>
      <trkpt lat="44.77461" lon="6.31995">
        <ele>2309.6</ele>
        <time>2024-08-12T11:51:02Z</time>
      </trkpt>
      <trkpt lat="44.77461" lon="6.31995">
        <ele>2309.6</ele>
        <time>2024-08-12T11:51:03Z</time>
      </trkpt>
      <trkpt lat="44.77461" lon="6.31992">
        <ele>2310</ele>
        <time>2024-08-12T11:51:04Z</time>
      </trkpt>
      <trkpt lat="44.77461" lon="6.31992">
        <ele>2310.4</ele>
        <time>2024-08-12T11:51:05Z</time>
      </trkpt>
      <trkpt lat="44.77461" lon="6.31992">
        <ele>2310.4</ele>
        <time>2024-08-12T11:51:06Z</time>
      </trkpt>
      <trkpt lat="44.77459" lon="6.31989">
        <ele>2310.4</ele>
        <time>2024-08-12T11:51:07Z</time>
      </trkpt>
      <trkpt lat="44.77459" lon="6.31989">
        <ele>2310.6</ele>
        <time>2024-08-12T11:51:08Z</time>
      </trkpt>
      <trkpt lat="44.77459" lon="6.31989">
        <ele>2310.8</ele>
        <time>2024-08-12T11:51:09Z</time>
      </trkpt>
      <trkpt lat="44.77459" lon="6.31989">
        <ele>2311</ele>
        <time>2024-08-12T11:51:10Z</time>
      </trkpt>
      <trkpt lat="44.77459" lon="6.31987">
        <ele>2311.2</ele>
        <time>2024-08-12T11:51:11Z</time>
      </trkpt>
      <trkpt lat="44.77459" lon="6.31987">
        <ele>2311.2</ele>
        <time>2024-08-12T11:51:12Z</time>
      </trkpt>
      <trkpt lat="44.77459" lon="6.31987">
        <ele>2311.4</ele>
        <time>2024-08-12T11:51:13Z</time>
      </trkpt>
      <trkpt lat="44.77459" lon="6.31987">
        <ele>2311.6</ele>
        <time>2024-08-12T11:51:14Z</time>
      </trkpt>
      <trkpt lat="44.77459" lon="6.31987">
        <ele>2312</ele>
        <time>2024-08-12T11:51:15Z</time>
      </trkpt>
      <trkpt lat="44.77459" lon="6.31987">
        <ele>2312.2</ele>
        <time>2024-08-12T11:51:16Z</time>
      </trkpt>
      <trkpt lat="44.77459" lon="6.31987">
        <ele>2312.2</ele>
        <time>2024-08-12T11:51:17Z</time>
      </trkpt>
      <trkpt lat="44.77459" lon="6.31987">
        <ele>2312</ele>
        <time>2024-08-12T11:51:18Z</time>
      </trkpt>
      <trkpt lat="44.77459" lon="6.31987">
        <ele>2311.8</ele>
        <time>2024-08-12T11:51:19Z</time>
      </trkpt>
      <trkpt lat="44.77459" lon="6.31987">
        <ele>2311.8</ele>
        <time>2024-08-12T11:51:20Z</time>
      </trkpt>
      <trkpt lat="44.77459" lon="6.31987">
        <ele>2311.8</ele>
        <time>2024-08-12T11:51:21Z</time>
      </trkpt>
      <trkpt lat="44.77459" lon="6.31987">
        <ele>2311.6</ele>
        <time>2024-08-12T11:51:22Z</time>
      </trkpt>
      <trkpt lat="44.77459" lon="6.31987">
        <ele>2311.6</ele>
        <time>2024-08-12T11:51:23Z</time>
      </trkpt>
      <trkpt lat="44.77459" lon="6.31987">
        <ele>2311.8</ele>
        <time>2024-08-12T11:51:24Z</time>
      </trkpt>
      <trkpt lat="44.77459" lon="6.31987">
        <ele>2311.8</ele>
        <time>2024-08-12T11:51:25Z</time>
      </trkpt>
      <trkpt lat="44.77459" lon="6.31987">
        <ele>2311.6</ele>
        <time>2024-08-12T11:51:26Z</time>
      </trkpt>
      <trkpt lat="44.77459" lon="6.31987">
        <ele>2311.6</ele>
        <time>2024-08-12T11:51:27Z</time>
      </trkpt>
      <trkpt lat="44.77459" lon="6.31987">
        <ele>2311.8</ele>
        <time>2024-08-12T11:51:28Z</time>
      </trkpt>
      <trkpt lat="44.77459" lon="6.31987">
        <ele>2311.8</ele>
        <time>2024-08-12T11:51:29Z</time>
      </trkpt>
      <trkpt lat="44.77459" lon="6.31987">
        <ele>2311.8</ele>
        <time>2024-08-12T11:51:30Z</time>
      </trkpt>
      <trkpt lat="44.77459" lon="6.31987">
        <ele>2311.8</ele>
        <time>2024-08-12T11:51:31Z</time>
      </trkpt>
      <trkpt lat="44.77459" lon="6.31987">
        <ele>2311.8</ele>
        <time>2024-08-12T11:51:32Z</time>
      </trkpt>
      <trkpt lat="44.77459" lon="6.31987">
        <ele>2311.8</ele>
        <time>2024-08-12T11:51:33Z</time>
      </trkpt>
      <trkpt lat="44.77459" lon="6.31987">
        <ele>2311.8</ele>
        <time>2024-08-12T11:51:34Z</time>
      </trkpt>
      <trkpt lat="44.77459" lon="6.31987">
        <ele>2311.8</ele>
        <time>2024-08-12T11:51:35Z</time>
      </trkpt>
      <trkpt lat="44.77459" lon="6.31987">
        <ele>2311.8</ele>
        <time>2024-08-12T11:51:36Z</time>
      </trkpt>
      <trkpt lat="44.77459" lon="6.31987">
        <ele>2311.8</ele>
        <time>2024-08-12T11:51:37Z</time>
      </trkpt>
      <trkpt lat="44.77459" lon="6.31987">
        <ele>2311.8</ele>
        <time>2024-08-12T11:51:38Z</time>
      </trkpt>
      <trkpt lat="44.77459" lon="6.31987">
        <ele>2311.6</ele>
        <time>2024-08-12T11:51:39Z</time>
      </trkpt>
      <trkpt lat="44.77459" lon="6.31987">
        <ele>2311.6</ele>
        <time>2024-08-12T11:51:40Z</time>
      </trkpt>
      <trkpt lat="44.77459" lon="6.31987">
        <ele>2311.6</ele>
        <time>2024-08-12T11:51:41Z</time>
      </trkpt>
      <trkpt lat="44.77458" lon="6.31984">
        <ele>2311.8</ele>
        <time>2024-08-12T11:51:42Z</time>
      </trkpt>
      <trkpt lat="44.77458" lon="6.31984">
        <ele>2312</ele>
        <time>2024-08-12T11:51:43Z</time>
      </trkpt>
      <trkpt lat="44.77457" lon="6.31981">
        <ele>2312</ele>
        <time>2024-08-12T11:51:44Z</time>
      </trkpt>
      <trkpt lat="44.77457" lon="6.31981">
        <ele>2312.2</ele>
        <time>2024-08-12T11:51:45Z</time>
      </trkpt>
      <trkpt lat="44.77456" lon="6.31978">
        <ele>2312.4</ele>
        <time>2024-08-12T11:51:46Z</time>
      </trkpt>
      <trkpt lat="44.77456" lon="6.31978">
        <ele>2312.4</ele>
        <time>2024-08-12T11:51:47Z</time>
      </trkpt>
      <trkpt lat="44.77454" lon="6.31975">
        <ele>2312.6</ele>
        <time>2024-08-12T11:51:48Z</time>
      </trkpt>
      <trkpt lat="44.77454" lon="6.31975">
        <ele>2312.8</ele>
        <time>2024-08-12T11:51:49Z</time>
      </trkpt>
      <trkpt lat="44.77454" lon="6.31972">
        <ele>2313</ele>
        <time>2024-08-12T11:51:50Z</time>
      </trkpt>
      <trkpt lat="44.77454" lon="6.31972">
        <ele>2313.2</ele>
        <time>2024-08-12T11:51:51Z</time>
      </trkpt>
      <trkpt lat="44.77454" lon="6.31972">
        <ele>2313.2</ele>
        <time>2024-08-12T11:51:52Z</time>
      </trkpt>
      <trkpt lat="44.77453" lon="6.3197">
        <ele>2312.8</ele>
        <time>2024-08-12T11:51:53Z</time>
      </trkpt>
      <trkpt lat="44.77453" lon="6.3197">
        <ele>2312.4</ele>
        <time>2024-08-12T11:51:54Z</time>
      </trkpt>
      <trkpt lat="44.77453" lon="6.3197">
        <ele>2312.4</ele>
        <time>2024-08-12T11:51:55Z</time>
      </trkpt>
      <trkpt lat="44.77454" lon="6.31968">
        <ele>2312.4</ele>
        <time>2024-08-12T11:51:56Z</time>
      </trkpt>
      <trkpt lat="44.77454" lon="6.31968">
        <ele>2312.4</ele>
        <time>2024-08-12T11:51:57Z</time>
      </trkpt>
      <trkpt lat="44.77456" lon="6.3197">
        <ele>2312.8</ele>
        <time>2024-08-12T11:51:58Z</time>
      </trkpt>
      <trkpt lat="44.77456" lon="6.3197">
        <ele>2312.8</ele>
        <time>2024-08-12T11:51:59Z</time>
      </trkpt>
      <trkpt lat="44.77456" lon="6.3197">
        <ele>2312.4</ele>
        <time>2024-08-12T11:52:00Z</time>
      </trkpt>
      <trkpt lat="44.77458" lon="6.31971">
        <ele>2312.4</ele>
        <time>2024-08-12T11:52:01Z</time>
      </trkpt>
      <trkpt lat="44.77458" lon="6.31971">
        <ele>2312.8</ele>
        <time>2024-08-12T11:52:02Z</time>
      </trkpt>
      <trkpt lat="44.77458" lon="6.31971">
        <ele>2312.8</ele>
        <time>2024-08-12T11:52:03Z</time>
      </trkpt>
      <trkpt lat="44.77458" lon="6.31971">
        <ele>2313</ele>
        <time>2024-08-12T11:52:04Z</time>
      </trkpt>
      <trkpt lat="44.7746" lon="6.31974">
        <ele>2313</ele>
        <time>2024-08-12T11:52:05Z</time>
      </trkpt>
      <trkpt lat="44.7746" lon="6.31974">
        <ele>2313</ele>
        <time>2024-08-12T11:52:06Z</time>
      </trkpt>
      <trkpt lat="44.7746" lon="6.31974">
        <ele>2313</ele>
        <time>2024-08-12T11:52:07Z</time>
      </trkpt>
      <trkpt lat="44.77462" lon="6.31976">
        <ele>2313</ele>
        <time>2024-08-12T11:52:08Z</time>
      </trkpt>
      <trkpt lat="44.77462" lon="6.31976">
        <ele>2312.4</ele>
        <time>2024-08-12T11:52:09Z</time>
      </trkpt>
      <trkpt lat="44.77465" lon="6.31977">
        <ele>2312.2</ele>
        <time>2024-08-12T11:52:10Z</time>
      </trkpt>
      <trkpt lat="44.77465" lon="6.31977">
        <ele>2312.2</ele>
        <time>2024-08-12T11:52:11Z</time>
      </trkpt>
      <trkpt lat="44.77467" lon="6.31978">
        <ele>2312.2</ele>
        <time>2024-08-12T11:52:12Z</time>
      </trkpt>
      <trkpt lat="44.77467" lon="6.31978">
        <ele>2313</ele>
        <time>2024-08-12T11:52:13Z</time>
      </trkpt>
      <trkpt lat="44.77469" lon="6.31978">
        <ele>2313.2</ele>
        <time>2024-08-12T11:52:14Z</time>
      </trkpt>
      <trkpt lat="44.77469" lon="6.31978">
        <ele>2313.2</ele>
        <time>2024-08-12T11:52:15Z</time>
      </trkpt>
      <trkpt lat="44.77471" lon="6.31979">
        <ele>2313.2</ele>
        <time>2024-08-12T11:52:16Z</time>
      </trkpt>
      <trkpt lat="44.77471" lon="6.31979">
        <ele>2313.4</ele>
        <time>2024-08-12T11:52:17Z</time>
      </trkpt>
      <trkpt lat="44.77471" lon="6.31979">
        <ele>2313.6</ele>
        <time>2024-08-12T11:52:18Z</time>
      </trkpt>
      <trkpt lat="44.77471" lon="6.31979">
        <ele>2313.6</ele>
        <time>2024-08-12T11:52:19Z</time>
      </trkpt>
      <trkpt lat="44.77473" lon="6.31977">
        <ele>2314</ele>
        <time>2024-08-12T11:52:20Z</time>
      </trkpt>
      <trkpt lat="44.77473" lon="6.31977">
        <ele>2314.4</ele>
        <time>2024-08-12T11:52:21Z</time>
      </trkpt>
      <trkpt lat="44.77473" lon="6.31977">
        <ele>2314.4</ele>
        <time>2024-08-12T11:52:22Z</time>
      </trkpt>
      <trkpt lat="44.77474" lon="6.31975">
        <ele>2314.4</ele>
        <time>2024-08-12T11:52:23Z</time>
      </trkpt>
      <trkpt lat="44.77474" lon="6.31975">
        <ele>2314.6</ele>
        <time>2024-08-12T11:52:24Z</time>
      </trkpt>
      <trkpt lat="44.77474" lon="6.31975">
        <ele>2314.6</ele>
        <time>2024-08-12T11:52:25Z</time>
      </trkpt>
      <trkpt lat="44.77474" lon="6.31975">
        <ele>2314.8</ele>
        <time>2024-08-12T11:52:26Z</time>
      </trkpt>
      <trkpt lat="44.77476" lon="6.31972">
        <ele>2315</ele>
        <time>2024-08-12T11:52:27Z</time>
      </trkpt>
      <trkpt lat="44.77476" lon="6.31972">
        <ele>2315</ele>
        <time>2024-08-12T11:52:28Z</time>
      </trkpt>
      <trkpt lat="44.77476" lon="6.31972">
        <ele>2315</ele>
        <time>2024-08-12T11:52:29Z</time>
      </trkpt>
      <trkpt lat="44.77476" lon="6.31972">
        <ele>2315.2</ele>
        <time>2024-08-12T11:52:30Z</time>
      </trkpt>
      <trkpt lat="44.77474" lon="6.3197">
        <ele>2315.4</ele>
        <time>2024-08-12T11:52:31Z</time>
      </trkpt>
      <trkpt lat="44.77474" lon="6.3197">
        <ele>2315.6</ele>
        <time>2024-08-12T11:52:32Z</time>
      </trkpt>
      <trkpt lat="44.77474" lon="6.3197">
        <ele>2315.8</ele>
        <time>2024-08-12T11:52:33Z</time>
      </trkpt>
      <trkpt lat="44.77473" lon="6.31968">
        <ele>2316.2</ele>
        <time>2024-08-12T11:52:34Z</time>
      </trkpt>
      <trkpt lat="44.77473" lon="6.31968">
        <ele>2316.2</ele>
        <time>2024-08-12T11:52:35Z</time>
      </trkpt>
      <trkpt lat="44.77473" lon="6.31968">
        <ele>2316.6</ele>
        <time>2024-08-12T11:52:36Z</time>
      </trkpt>
      <trkpt lat="44.77473" lon="6.31968">
        <ele>2316.6</ele>
        <time>2024-08-12T11:52:37Z</time>
      </trkpt>
      <trkpt lat="44.77471" lon="6.31967">
        <ele>2316.8</ele>
        <time>2024-08-12T11:52:38Z</time>
      </trkpt>
      <trkpt lat="44.77471" lon="6.31967">
        <ele>2316.8</ele>
        <time>2024-08-12T11:52:39Z</time>
      </trkpt>
      <trkpt lat="44.77471" lon="6.31967">
        <ele>2316.8</ele>
        <time>2024-08-12T11:52:40Z</time>
      </trkpt>
      <trkpt lat="44.7747" lon="6.31964">
        <ele>2317.2</ele>
        <time>2024-08-12T11:52:41Z</time>
      </trkpt>
      <trkpt lat="44.7747" lon="6.31964">
        <ele>2317.2</ele>
        <time>2024-08-12T11:52:42Z</time>
      </trkpt>
      <trkpt lat="44.77469" lon="6.31962">
        <ele>2317.2</ele>
        <time>2024-08-12T11:52:43Z</time>
      </trkpt>
      <trkpt lat="44.77469" lon="6.31962">
        <ele>2317.2</ele>
        <time>2024-08-12T11:52:44Z</time>
      </trkpt>
      <trkpt lat="44.77467" lon="6.3196">
        <ele>2317.8</ele>
        <time>2024-08-12T11:52:45Z</time>
      </trkpt>
      <trkpt lat="44.77467" lon="6.3196">
        <ele>2318.2</ele>
        <time>2024-08-12T11:52:46Z</time>
      </trkpt>
      <trkpt lat="44.77467" lon="6.3196">
        <ele>2318.2</ele>
        <time>2024-08-12T11:52:47Z</time>
      </trkpt>
      <trkpt lat="44.77465" lon="6.31957">
        <ele>2318</ele>
        <time>2024-08-12T11:52:48Z</time>
      </trkpt>
      <trkpt lat="44.77465" lon="6.31957">
        <ele>2318</ele>
        <time>2024-08-12T11:52:49Z</time>
      </trkpt>
      <trkpt lat="44.77465" lon="6.31957">
        <ele>2318</ele>
        <time>2024-08-12T11:52:50Z</time>
      </trkpt>
      <trkpt lat="44.77464" lon="6.31954">
        <ele>2318.2</ele>
        <time>2024-08-12T11:52:51Z</time>
      </trkpt>
      <trkpt lat="44.77464" lon="6.31954">
        <ele>2318.4</ele>
        <time>2024-08-12T11:52:52Z</time>
      </trkpt>
      <trkpt lat="44.77464" lon="6.31954">
        <ele>2318.4</ele>
        <time>2024-08-12T11:52:53Z</time>
      </trkpt>
      <trkpt lat="44.77463" lon="6.31951">
        <ele>2318.4</ele>
        <time>2024-08-12T11:52:54Z</time>
      </trkpt>
      <trkpt lat="44.77463" lon="6.31951">
        <ele>2318.6</ele>
        <time>2024-08-12T11:52:55Z</time>
      </trkpt>
      <trkpt lat="44.77462" lon="6.31949">
        <ele>2318.6</ele>
        <time>2024-08-12T11:52:56Z</time>
      </trkpt>
      <trkpt lat="44.77462" lon="6.31949">
        <ele>2318.8</ele>
        <time>2024-08-12T11:52:57Z</time>
      </trkpt>
      <trkpt lat="44.77461" lon="6.31946">
        <ele>2318.8</ele>
        <time>2024-08-12T11:52:58Z</time>
      </trkpt>
      <trkpt lat="44.77461" lon="6.31946">
        <ele>2319.2</ele>
        <time>2024-08-12T11:52:59Z</time>
      </trkpt>
      <trkpt lat="44.77461" lon="6.31946">
        <ele>2319.2</ele>
        <time>2024-08-12T11:53:00Z</time>
      </trkpt>
      <trkpt lat="44.77461" lon="6.31943">
        <ele>2319.4</ele>
        <time>2024-08-12T11:53:01Z</time>
      </trkpt>
      <trkpt lat="44.77461" lon="6.31943">
        <ele>2319.6</ele>
        <time>2024-08-12T11:53:02Z</time>
      </trkpt>
      <trkpt lat="44.77461" lon="6.3194">
        <ele>2319.6</ele>
        <time>2024-08-12T11:53:03Z</time>
      </trkpt>
      <trkpt lat="44.77461" lon="6.3194">
        <ele>2319.6</ele>
        <time>2024-08-12T11:53:04Z</time>
      </trkpt>
      <trkpt lat="44.77461" lon="6.3194">
        <ele>2319.6</ele>
        <time>2024-08-12T11:53:05Z</time>
      </trkpt>
      <trkpt lat="44.77461" lon="6.3194">
        <ele>2319.8</ele>
        <time>2024-08-12T11:53:06Z</time>
      </trkpt>
      <trkpt lat="44.7746" lon="6.31938">
        <ele>2320</ele>
        <time>2024-08-12T11:53:07Z</time>
      </trkpt>
      <trkpt lat="44.7746" lon="6.31938">
        <ele>2320</ele>
        <time>2024-08-12T11:53:08Z</time>
      </trkpt>
      <trkpt lat="44.7746" lon="6.31938">
        <ele>2320</ele>
        <time>2024-08-12T11:53:09Z</time>
      </trkpt>
      <trkpt lat="44.77459" lon="6.31935">
        <ele>2320.4</ele>
        <time>2024-08-12T11:53:10Z</time>
      </trkpt>
      <trkpt lat="44.77459" lon="6.31935">
        <ele>2320.4</ele>
        <time>2024-08-12T11:53:11Z</time>
      </trkpt>
      <trkpt lat="44.77459" lon="6.31935">
        <ele>2320.8</ele>
        <time>2024-08-12T11:53:12Z</time>
      </trkpt>
      <trkpt lat="44.77458" lon="6.31933">
        <ele>2321.2</ele>
        <time>2024-08-12T11:53:13Z</time>
      </trkpt>
      <trkpt lat="44.77458" lon="6.31933">
        <ele>2321.2</ele>
        <time>2024-08-12T11:53:14Z</time>
      </trkpt>
      <trkpt lat="44.77458" lon="6.31933">
        <ele>2321.2</ele>
        <time>2024-08-12T11:53:15Z</time>
      </trkpt>
      <trkpt lat="44.77456" lon="6.31932">
        <ele>2321.4</ele>
        <time>2024-08-12T11:53:16Z</time>
      </trkpt>
      <trkpt lat="44.77456" lon="6.31932">
        <ele>2321.4</ele>
        <time>2024-08-12T11:53:17Z</time>
      </trkpt>
      <trkpt lat="44.77456" lon="6.31932">
        <ele>2321.2</ele>
        <time>2024-08-12T11:53:18Z</time>
      </trkpt>
      <trkpt lat="44.77454" lon="6.3193">
        <ele>2321.2</ele>
        <time>2024-08-12T11:53:19Z</time>
      </trkpt>
      <trkpt lat="44.77454" lon="6.3193">
        <ele>2321.2</ele>
        <time>2024-08-12T11:53:20Z</time>
      </trkpt>
      <trkpt lat="44.77452" lon="6.31929">
        <ele>2321.2</ele>
        <time>2024-08-12T11:53:21Z</time>
      </trkpt>
      <trkpt lat="44.77452" lon="6.31929">
        <ele>2321.2</ele>
        <time>2024-08-12T11:53:22Z</time>
      </trkpt>
      <trkpt lat="44.77452" lon="6.31929">
        <ele>2321.4</ele>
        <time>2024-08-12T11:53:23Z</time>
      </trkpt>
      <trkpt lat="44.7745" lon="6.31927">
        <ele>2321.6</ele>
        <time>2024-08-12T11:53:24Z</time>
      </trkpt>
      <trkpt lat="44.7745" lon="6.31927">
        <ele>2321.6</ele>
        <time>2024-08-12T11:53:25Z</time>
      </trkpt>
      <trkpt lat="44.77449" lon="6.31925">
        <ele>2322</ele>
        <time>2024-08-12T11:53:26Z</time>
      </trkpt>
      <trkpt lat="44.77449" lon="6.31925">
        <ele>2322.2</ele>
        <time>2024-08-12T11:53:27Z</time>
      </trkpt>
      <trkpt lat="44.77449" lon="6.31925">
        <ele>2322.8</ele>
        <time>2024-08-12T11:53:28Z</time>
      </trkpt>
      <trkpt lat="44.77448" lon="6.31922">
        <ele>2323</ele>
        <time>2024-08-12T11:53:29Z</time>
      </trkpt>
      <trkpt lat="44.77448" lon="6.31922">
        <ele>2323</ele>
        <time>2024-08-12T11:53:30Z</time>
      </trkpt>
      <trkpt lat="44.77448" lon="6.31922">
        <ele>2323.2</ele>
        <time>2024-08-12T11:53:31Z</time>
      </trkpt>
      <trkpt lat="44.77447" lon="6.31919">
        <ele>2323.4</ele>
        <time>2024-08-12T11:53:32Z</time>
      </trkpt>
      <trkpt lat="44.77447" lon="6.31919">
        <ele>2323.8</ele>
        <time>2024-08-12T11:53:33Z</time>
      </trkpt>
      <trkpt lat="44.77447" lon="6.31919">
        <ele>2323.8</ele>
        <time>2024-08-12T11:53:34Z</time>
      </trkpt>
      <trkpt lat="44.77448" lon="6.31917">
        <ele>2323.8</ele>
        <time>2024-08-12T11:53:35Z</time>
      </trkpt>
      <trkpt lat="44.77448" lon="6.31917">
        <ele>2324</ele>
        <time>2024-08-12T11:53:36Z</time>
      </trkpt>
      <trkpt lat="44.77448" lon="6.31917">
        <ele>2324</ele>
        <time>2024-08-12T11:53:37Z</time>
      </trkpt>
      <trkpt lat="44.77448" lon="6.31917">
        <ele>2324</ele>
        <time>2024-08-12T11:53:38Z</time>
      </trkpt>
      <trkpt lat="44.77447" lon="6.31914">
        <ele>2324.4</ele>
        <time>2024-08-12T11:53:39Z</time>
      </trkpt>
      <trkpt lat="44.77447" lon="6.31914">
        <ele>2324.6</ele>
        <time>2024-08-12T11:53:40Z</time>
      </trkpt>
      <trkpt lat="44.77447" lon="6.31914">
        <ele>2324.8</ele>
        <time>2024-08-12T11:53:41Z</time>
      </trkpt>
      <trkpt lat="44.77445" lon="6.31911">
        <ele>2325</ele>
        <time>2024-08-12T11:53:42Z</time>
      </trkpt>
      <trkpt lat="44.77445" lon="6.31911">
        <ele>2325.4</ele>
        <time>2024-08-12T11:53:43Z</time>
      </trkpt>
      <trkpt lat="44.77445" lon="6.31911">
        <ele>2325.4</ele>
        <time>2024-08-12T11:53:44Z</time>
      </trkpt>
      <trkpt lat="44.77444" lon="6.31909">
        <ele>2325.4</ele>
        <time>2024-08-12T11:53:45Z</time>
      </trkpt>
      <trkpt lat="44.77444" lon="6.31909">
        <ele>2325.8</ele>
        <time>2024-08-12T11:53:46Z</time>
      </trkpt>
      <trkpt lat="44.77444" lon="6.31909">
        <ele>2325.8</ele>
        <time>2024-08-12T11:53:47Z</time>
      </trkpt>
      <trkpt lat="44.77442" lon="6.31907">
        <ele>2325.8</ele>
        <time>2024-08-12T11:53:48Z</time>
      </trkpt>
      <trkpt lat="44.77442" lon="6.31907">
        <ele>2325.8</ele>
        <time>2024-08-12T11:53:49Z</time>
      </trkpt>
      <trkpt lat="44.77442" lon="6.31907">
        <ele>2326</ele>
        <time>2024-08-12T11:53:50Z</time>
      </trkpt>
      <trkpt lat="44.77439" lon="6.31905">
        <ele>2326</ele>
        <time>2024-08-12T11:53:51Z</time>
      </trkpt>
      <trkpt lat="44.77439" lon="6.31905">
        <ele>2326.2</ele>
        <time>2024-08-12T11:53:52Z</time>
      </trkpt>
      <trkpt lat="44.77438" lon="6.31903">
        <ele>2326.6</ele>
        <time>2024-08-12T11:53:53Z</time>
      </trkpt>
      <trkpt lat="44.77438" lon="6.31903">
        <ele>2326.6</ele>
        <time>2024-08-12T11:53:54Z</time>
      </trkpt>
      <trkpt lat="44.77438" lon="6.31903">
        <ele>2326.8</ele>
        <time>2024-08-12T11:53:55Z</time>
      </trkpt>
      <trkpt lat="44.77437" lon="6.319">
        <ele>2327</ele>
        <time>2024-08-12T11:53:56Z</time>
      </trkpt>
      <trkpt lat="44.77437" lon="6.319">
        <ele>2327.2</ele>
        <time>2024-08-12T11:53:57Z</time>
      </trkpt>
      <trkpt lat="44.77437" lon="6.319">
        <ele>2327.2</ele>
        <time>2024-08-12T11:53:58Z</time>
      </trkpt>
      <trkpt lat="44.77437" lon="6.319">
        <ele>2327.6</ele>
        <time>2024-08-12T11:53:59Z</time>
      </trkpt>
      <trkpt lat="44.77437" lon="6.31897">
        <ele>2327.6</ele>
        <time>2024-08-12T11:54:00Z</time>
      </trkpt>
      <trkpt lat="44.77437" lon="6.31897">
        <ele>2328</ele>
        <time>2024-08-12T11:54:01Z</time>
      </trkpt>
      <trkpt lat="44.77437" lon="6.31897">
        <ele>2328.4</ele>
        <time>2024-08-12T11:54:02Z</time>
      </trkpt>
      <trkpt lat="44.77436" lon="6.31895">
        <ele>2328.4</ele>
        <time>2024-08-12T11:54:03Z</time>
      </trkpt>
      <trkpt lat="44.77436" lon="6.31895">
        <ele>2328.4</ele>
        <time>2024-08-12T11:54:04Z</time>
      </trkpt>
      <trkpt lat="44.77436" lon="6.31895">
        <ele>2328.6</ele>
        <time>2024-08-12T11:54:05Z</time>
      </trkpt>
      <trkpt lat="44.77434" lon="6.31894">
        <ele>2328.6</ele>
        <time>2024-08-12T11:54:06Z</time>
      </trkpt>
      <trkpt lat="44.77434" lon="6.31894">
        <ele>2328.6</ele>
        <time>2024-08-12T11:54:07Z</time>
      </trkpt>
      <trkpt lat="44.77434" lon="6.31894">
        <ele>2329.2</ele>
        <time>2024-08-12T11:54:08Z</time>
      </trkpt>
      <trkpt lat="44.77431" lon="6.31893">
        <ele>2329.4</ele>
        <time>2024-08-12T11:54:09Z</time>
      </trkpt>
      <trkpt lat="44.77431" lon="6.31893">
        <ele>2329.4</ele>
        <time>2024-08-12T11:54:10Z</time>
      </trkpt>
      <trkpt lat="44.77429" lon="6.31894">
        <ele>2329.8</ele>
        <time>2024-08-12T11:54:11Z</time>
      </trkpt>
      <trkpt lat="44.77429" lon="6.31894">
        <ele>2330</ele>
        <time>2024-08-12T11:54:12Z</time>
      </trkpt>
      <trkpt lat="44.77429" lon="6.31894">
        <ele>2330.4</ele>
        <time>2024-08-12T11:54:13Z</time>
      </trkpt>
      <trkpt lat="44.77428" lon="6.31896">
        <ele>2330.6</ele>
        <time>2024-08-12T11:54:14Z</time>
      </trkpt>
      <trkpt lat="44.77428" lon="6.31896">
        <ele>2330.8</ele>
        <time>2024-08-12T11:54:15Z</time>
      </trkpt>
      <trkpt lat="44.77428" lon="6.31896">
        <ele>2331</ele>
        <time>2024-08-12T11:54:16Z</time>
      </trkpt>
      <trkpt lat="44.77425" lon="6.31896">
        <ele>2331</ele>
        <time>2024-08-12T11:54:17Z</time>
      </trkpt>
      <trkpt lat="44.77425" lon="6.31896">
        <ele>2331</ele>
        <time>2024-08-12T11:54:18Z</time>
      </trkpt>
      <trkpt lat="44.77425" lon="6.31896">
        <ele>2331.2</ele>
        <time>2024-08-12T11:54:19Z</time>
      </trkpt>
      <trkpt lat="44.77423" lon="6.31897">
        <ele>2331.6</ele>
        <time>2024-08-12T11:54:20Z</time>
      </trkpt>
      <trkpt lat="44.77423" lon="6.31897">
        <ele>2331.8</ele>
        <time>2024-08-12T11:54:21Z</time>
      </trkpt>
      <trkpt lat="44.77421" lon="6.31897">
        <ele>2331.8</ele>
        <time>2024-08-12T11:54:22Z</time>
      </trkpt>
      <trkpt lat="44.77421" lon="6.31897">
        <ele>2332</ele>
        <time>2024-08-12T11:54:23Z</time>
      </trkpt>
      <trkpt lat="44.77421" lon="6.31897">
        <ele>2332</ele>
        <time>2024-08-12T11:54:24Z</time>
      </trkpt>
      <trkpt lat="44.77419" lon="6.31898">
        <ele>2332.2</ele>
        <time>2024-08-12T11:54:25Z</time>
      </trkpt>
      <trkpt lat="44.77419" lon="6.31898">
        <ele>2332.2</ele>
        <time>2024-08-12T11:54:26Z</time>
      </trkpt>
      <trkpt lat="44.77419" lon="6.31898">
        <ele>2332.2</ele>
        <time>2024-08-12T11:54:27Z</time>
      </trkpt>
      <trkpt lat="44.77416" lon="6.319">
        <ele>2332.8</ele>
        <time>2024-08-12T11:54:28Z</time>
      </trkpt>
      <trkpt lat="44.77416" lon="6.319">
        <ele>2332.8</ele>
        <time>2024-08-12T11:54:29Z</time>
      </trkpt>
      <trkpt lat="44.77414" lon="6.319">
        <ele>2332.8</ele>
        <time>2024-08-12T11:54:30Z</time>
      </trkpt>
      <trkpt lat="44.77414" lon="6.319">
        <ele>2333</ele>
        <time>2024-08-12T11:54:31Z</time>
      </trkpt>
      <trkpt lat="44.77414" lon="6.319">
        <ele>2333</ele>
        <time>2024-08-12T11:54:32Z</time>
      </trkpt>
      <trkpt lat="44.77412" lon="6.319">
        <ele>2333.2</ele>
        <time>2024-08-12T11:54:33Z</time>
      </trkpt>
      <trkpt lat="44.77412" lon="6.319">
        <ele>2333.6</ele>
        <time>2024-08-12T11:54:34Z</time>
      </trkpt>
      <trkpt lat="44.77412" lon="6.319">
        <ele>2333.6</ele>
        <time>2024-08-12T11:54:35Z</time>
      </trkpt>
      <trkpt lat="44.7741" lon="6.31902">
        <ele>2333.6</ele>
        <time>2024-08-12T11:54:36Z</time>
      </trkpt>
      <trkpt lat="44.7741" lon="6.31902">
        <ele>2334</ele>
        <time>2024-08-12T11:54:37Z</time>
      </trkpt>
      <trkpt lat="44.77408" lon="6.31903">
        <ele>2334</ele>
        <time>2024-08-12T11:54:38Z</time>
      </trkpt>
      <trkpt lat="44.77408" lon="6.31903">
        <ele>2334.2</ele>
        <time>2024-08-12T11:54:39Z</time>
      </trkpt>
      <trkpt lat="44.77406" lon="6.31904">
        <ele>2334.2</ele>
        <time>2024-08-12T11:54:40Z</time>
      </trkpt>
      <trkpt lat="44.77406" lon="6.31904">
        <ele>2334.4</ele>
        <time>2024-08-12T11:54:41Z</time>
      </trkpt>
      <trkpt lat="44.77406" lon="6.31904">
        <ele>2334.4</ele>
        <time>2024-08-12T11:54:42Z</time>
      </trkpt>
      <trkpt lat="44.77404" lon="6.31904">
        <ele>2335</ele>
        <time>2024-08-12T11:54:43Z</time>
      </trkpt>
      <trkpt lat="44.77404" lon="6.31904">
        <ele>2335</ele>
        <time>2024-08-12T11:54:44Z</time>
      </trkpt>
      <trkpt lat="44.77402" lon="6.31905">
        <ele>2335.2</ele>
        <time>2024-08-12T11:54:45Z</time>
      </trkpt>
      <trkpt lat="44.77402" lon="6.31905">
        <ele>2335.2</ele>
        <time>2024-08-12T11:54:46Z</time>
      </trkpt>
      <trkpt lat="44.77402" lon="6.31905">
        <ele>2335.4</ele>
        <time>2024-08-12T11:54:47Z</time>
      </trkpt>
      <trkpt lat="44.77399" lon="6.31905">
        <ele>2335.6</ele>
        <time>2024-08-12T11:54:48Z</time>
      </trkpt>
      <trkpt lat="44.77399" lon="6.31905">
        <ele>2335.6</ele>
        <time>2024-08-12T11:54:49Z</time>
      </trkpt>
      <trkpt lat="44.77399" lon="6.31905">
        <ele>2335.4</ele>
        <time>2024-08-12T11:54:50Z</time>
      </trkpt>
      <trkpt lat="44.77399" lon="6.31905">
        <ele>2335.4</ele>
        <time>2024-08-12T11:54:51Z</time>
      </trkpt>
      <trkpt lat="44.77399" lon="6.31905">
        <ele>2335.4</ele>
        <time>2024-08-12T11:54:52Z</time>
      </trkpt>
      <trkpt lat="44.77399" lon="6.31905">
        <ele>2335.4</ele>
        <time>2024-08-12T11:54:53Z</time>
      </trkpt>
      <trkpt lat="44.77399" lon="6.31905">
        <ele>2335.4</ele>
        <time>2024-08-12T11:54:54Z</time>
      </trkpt>
      <trkpt lat="44.77399" lon="6.31905">
        <ele>2335.4</ele>
        <time>2024-08-12T11:54:55Z</time>
      </trkpt>
      <trkpt lat="44.77399" lon="6.31905">
        <ele>2335.4</ele>
        <time>2024-08-12T11:54:56Z</time>
      </trkpt>
      <trkpt lat="44.77399" lon="6.31905">
        <ele>2335.6</ele>
        <time>2024-08-12T11:54:57Z</time>
      </trkpt>
      <trkpt lat="44.77399" lon="6.31905">
        <ele>2336</ele>
        <time>2024-08-12T11:54:58Z</time>
      </trkpt>
      <trkpt lat="44.77399" lon="6.31905">
        <ele>2336</ele>
        <time>2024-08-12T11:54:59Z</time>
      </trkpt>
      <trkpt lat="44.77399" lon="6.31905">
        <ele>2335.6</ele>
        <time>2024-08-12T11:55:00Z</time>
      </trkpt>
      <trkpt lat="44.77399" lon="6.31905">
        <ele>2335.6</ele>
        <time>2024-08-12T11:55:01Z</time>
      </trkpt>
      <trkpt lat="44.77399" lon="6.31905">
        <ele>2335.4</ele>
        <time>2024-08-12T11:55:02Z</time>
      </trkpt>
      <trkpt lat="44.77399" lon="6.31905">
        <ele>2335.4</ele>
        <time>2024-08-12T11:55:03Z</time>
      </trkpt>
      <trkpt lat="44.77399" lon="6.31905">
        <ele>2335.6</ele>
        <time>2024-08-12T11:55:04Z</time>
      </trkpt>
      <trkpt lat="44.77399" lon="6.31905">
        <ele>2335.6</ele>
        <time>2024-08-12T11:55:05Z</time>
      </trkpt>
      <trkpt lat="44.77399" lon="6.31905">
        <ele>2335.4</ele>
        <time>2024-08-12T11:55:06Z</time>
      </trkpt>
      <trkpt lat="44.77399" lon="6.31905">
        <ele>2335.4</ele>
        <time>2024-08-12T11:55:07Z</time>
      </trkpt>
      <trkpt lat="44.77399" lon="6.31905">
        <ele>2335.2</ele>
        <time>2024-08-12T11:55:08Z</time>
      </trkpt>
      <trkpt lat="44.77399" lon="6.31905">
        <ele>2335.2</ele>
        <time>2024-08-12T11:55:09Z</time>
      </trkpt>
      <trkpt lat="44.77399" lon="6.31905">
        <ele>2335.4</ele>
        <time>2024-08-12T11:55:10Z</time>
      </trkpt>
      <trkpt lat="44.77399" lon="6.31905">
        <ele>2335.4</ele>
        <time>2024-08-12T11:55:11Z</time>
      </trkpt>
      <trkpt lat="44.77397" lon="6.31905">
        <ele>2335.4</ele>
        <time>2024-08-12T11:55:12Z</time>
      </trkpt>
      <trkpt lat="44.77397" lon="6.31905">
        <ele>2335.4</ele>
        <time>2024-08-12T11:55:13Z</time>
      </trkpt>
      <trkpt lat="44.77395" lon="6.31905">
        <ele>2335.8</ele>
        <time>2024-08-12T11:55:14Z</time>
      </trkpt>
      <trkpt lat="44.77395" lon="6.31905">
        <ele>2335.8</ele>
        <time>2024-08-12T11:55:15Z</time>
      </trkpt>
      <trkpt lat="44.77391" lon="6.31904">
        <ele>2336.2</ele>
        <time>2024-08-12T11:55:16Z</time>
      </trkpt>
      <trkpt lat="44.77391" lon="6.31904">
        <ele>2337</ele>
        <time>2024-08-12T11:55:17Z</time>
      </trkpt>
      <trkpt lat="44.77389" lon="6.31903">
        <ele>2337</ele>
        <time>2024-08-12T11:55:18Z</time>
      </trkpt>
      <trkpt lat="44.77389" lon="6.31903">
        <ele>2337.2</ele>
        <time>2024-08-12T11:55:19Z</time>
      </trkpt>
      <trkpt lat="44.77387" lon="6.31902">
        <ele>2337.4</ele>
        <time>2024-08-12T11:55:20Z</time>
      </trkpt>
      <trkpt lat="44.77387" lon="6.31902">
        <ele>2337.6</ele>
        <time>2024-08-12T11:55:21Z</time>
      </trkpt>
      <trkpt lat="44.77385" lon="6.31902">
        <ele>2337.8</ele>
        <time>2024-08-12T11:55:22Z</time>
      </trkpt>
      <trkpt lat="44.77385" lon="6.31902">
        <ele>2337.8</ele>
        <time>2024-08-12T11:55:23Z</time>
      </trkpt>
      <trkpt lat="44.77383" lon="6.31902">
        <ele>2338.4</ele>
        <time>2024-08-12T11:55:24Z</time>
      </trkpt>
      <trkpt lat="44.77383" lon="6.31902">
        <ele>2338.6</ele>
        <time>2024-08-12T11:55:25Z</time>
      </trkpt>
      <trkpt lat="44.77381" lon="6.31902">
        <ele>2338.6</ele>
        <time>2024-08-12T11:55:26Z</time>
      </trkpt>
      <trkpt lat="44.77381" lon="6.31902">
        <ele>2339.2</ele>
        <time>2024-08-12T11:55:27Z</time>
      </trkpt>
      <trkpt lat="44.77379" lon="6.31903">
        <ele>2339.4</ele>
        <time>2024-08-12T11:55:28Z</time>
      </trkpt>
      <trkpt lat="44.77379" lon="6.31903">
        <ele>2339.6</ele>
        <time>2024-08-12T11:55:29Z</time>
      </trkpt>
      <trkpt lat="44.77379" lon="6.31903">
        <ele>2339.6</ele>
        <time>2024-08-12T11:55:30Z</time>
      </trkpt>
      <trkpt lat="44.77377" lon="6.31903">
        <ele>2340</ele>
        <time>2024-08-12T11:55:31Z</time>
      </trkpt>
      <trkpt lat="44.77377" lon="6.31903">
        <ele>2340.2</ele>
        <time>2024-08-12T11:55:32Z</time>
      </trkpt>
      <trkpt lat="44.77375" lon="6.31903">
        <ele>2340.6</ele>
        <time>2024-08-12T11:55:33Z</time>
      </trkpt>
      <trkpt lat="44.77375" lon="6.31903">
        <ele>2340.8</ele>
        <time>2024-08-12T11:55:34Z</time>
      </trkpt>
      <trkpt lat="44.77375" lon="6.31903">
        <ele>2341</ele>
        <time>2024-08-12T11:55:35Z</time>
      </trkpt>
      <trkpt lat="44.77372" lon="6.31903">
        <ele>2341</ele>
        <time>2024-08-12T11:55:36Z</time>
      </trkpt>
      <trkpt lat="44.77372" lon="6.31903">
        <ele>2341.8</ele>
        <time>2024-08-12T11:55:37Z</time>
      </trkpt>
      <trkpt lat="44.77372" lon="6.31903">
        <ele>2341.8</ele>
        <time>2024-08-12T11:55:38Z</time>
      </trkpt>
      <trkpt lat="44.7737" lon="6.31904">
        <ele>2341.8</ele>
        <time>2024-08-12T11:55:39Z</time>
      </trkpt>
      <trkpt lat="44.7737" lon="6.31904">
        <ele>2342.4</ele>
        <time>2024-08-12T11:55:40Z</time>
      </trkpt>
      <trkpt lat="44.7737" lon="6.31904">
        <ele>2342.4</ele>
        <time>2024-08-12T11:55:41Z</time>
      </trkpt>
      <trkpt lat="44.77368" lon="6.31903">
        <ele>2342.4</ele>
        <time>2024-08-12T11:55:42Z</time>
      </trkpt>
      <trkpt lat="44.77368" lon="6.31903">
        <ele>2342.6</ele>
        <time>2024-08-12T11:55:43Z</time>
      </trkpt>
      <trkpt lat="44.77368" lon="6.31903">
        <ele>2342.4</ele>
        <time>2024-08-12T11:55:44Z</time>
      </trkpt>
      <trkpt lat="44.77365" lon="6.31903">
        <ele>2342.6</ele>
        <time>2024-08-12T11:55:45Z</time>
      </trkpt>
      <trkpt lat="44.77365" lon="6.31903">
        <ele>2342.8</ele>
        <time>2024-08-12T11:55:46Z</time>
      </trkpt>
      <trkpt lat="44.77365" lon="6.31903">
        <ele>2342.8</ele>
        <time>2024-08-12T11:55:47Z</time>
      </trkpt>
      <trkpt lat="44.77363" lon="6.31903">
        <ele>2343.2</ele>
        <time>2024-08-12T11:55:48Z</time>
      </trkpt>
      <trkpt lat="44.77363" lon="6.31903">
        <ele>2343.8</ele>
        <time>2024-08-12T11:55:49Z</time>
      </trkpt>
      <trkpt lat="44.77363" lon="6.31903">
        <ele>2343.8</ele>
        <time>2024-08-12T11:55:50Z</time>
      </trkpt>
      <trkpt lat="44.77361" lon="6.31903">
        <ele>2344</ele>
        <time>2024-08-12T11:55:51Z</time>
      </trkpt>
      <trkpt lat="44.77361" lon="6.31903">
        <ele>2344.2</ele>
        <time>2024-08-12T11:55:52Z</time>
      </trkpt>
      <trkpt lat="44.77361" lon="6.31903">
        <ele>2344.4</ele>
        <time>2024-08-12T11:55:53Z</time>
      </trkpt>
      <trkpt lat="44.7736" lon="6.319">
        <ele>2344.8</ele>
        <time>2024-08-12T11:55:54Z</time>
      </trkpt>
      <trkpt lat="44.7736" lon="6.319">
        <ele>2344.8</ele>
        <time>2024-08-12T11:55:55Z</time>
      </trkpt>
      <trkpt lat="44.7736" lon="6.319">
        <ele>2345.2</ele>
        <time>2024-08-12T11:55:56Z</time>
      </trkpt>
      <trkpt lat="44.7736" lon="6.31897">
        <ele>2345.2</ele>
        <time>2024-08-12T11:55:57Z</time>
      </trkpt>
      <trkpt lat="44.7736" lon="6.31897">
        <ele>2345.2</ele>
        <time>2024-08-12T11:55:58Z</time>
      </trkpt>
      <trkpt lat="44.7736" lon="6.31897">
        <ele>2345.2</ele>
        <time>2024-08-12T11:55:59Z</time>
      </trkpt>
      <trkpt lat="44.7736" lon="6.31894">
        <ele>2345.2</ele>
        <time>2024-08-12T11:56:00Z</time>
      </trkpt>
      <trkpt lat="44.7736" lon="6.31894">
        <ele>2345.4</ele>
        <time>2024-08-12T11:56:01Z</time>
      </trkpt>
      <trkpt lat="44.7736" lon="6.31894">
        <ele>2345.6</ele>
        <time>2024-08-12T11:56:02Z</time>
      </trkpt>
      <trkpt lat="44.77361" lon="6.31892">
        <ele>2345.6</ele>
        <time>2024-08-12T11:56:03Z</time>
      </trkpt>
      <trkpt lat="44.77361" lon="6.31892">
        <ele>2346.2</ele>
        <time>2024-08-12T11:56:04Z</time>
      </trkpt>
      <trkpt lat="44.77361" lon="6.31889">
        <ele>2346.4</ele>
        <time>2024-08-12T11:56:05Z</time>
      </trkpt>
      <trkpt lat="44.77361" lon="6.31889">
        <ele>2346.4</ele>
        <time>2024-08-12T11:56:06Z</time>
      </trkpt>
      <trkpt lat="44.77361" lon="6.31889">
        <ele>2346.6</ele>
        <time>2024-08-12T11:56:07Z</time>
      </trkpt>
      <trkpt lat="44.77362" lon="6.31886">
        <ele>2347.4</ele>
        <time>2024-08-12T11:56:08Z</time>
      </trkpt>
      <trkpt lat="44.77362" lon="6.31886">
        <ele>2347.6</ele>
        <time>2024-08-12T11:56:09Z</time>
      </trkpt>
      <trkpt lat="44.77362" lon="6.31886">
        <ele>2347.8</ele>
        <time>2024-08-12T11:56:10Z</time>
      </trkpt>
      <trkpt lat="44.77363" lon="6.31884">
        <ele>2348</ele>
        <time>2024-08-12T11:56:11Z</time>
      </trkpt>
      <trkpt lat="44.77363" lon="6.31884">
        <ele>2348.4</ele>
        <time>2024-08-12T11:56:12Z</time>
      </trkpt>
      <trkpt lat="44.77363" lon="6.31884">
        <ele>2348.6</ele>
        <time>2024-08-12T11:56:13Z</time>
      </trkpt>
      <trkpt lat="44.77363" lon="6.31884">
        <ele>2348.8</ele>
        <time>2024-08-12T11:56:14Z</time>
      </trkpt>
      <trkpt lat="44.77363" lon="6.3188">
        <ele>2349</ele>
        <time>2024-08-12T11:56:15Z</time>
      </trkpt>
      <trkpt lat="44.77363" lon="6.3188">
        <ele>2349</ele>
        <time>2024-08-12T11:56:16Z</time>
      </trkpt>
      <trkpt lat="44.77363" lon="6.3188">
        <ele>2349.4</ele>
        <time>2024-08-12T11:56:17Z</time>
      </trkpt>
      <trkpt lat="44.77363" lon="6.31877">
        <ele>2349.8</ele>
        <time>2024-08-12T11:56:18Z</time>
      </trkpt>
      <trkpt lat="44.77363" lon="6.31877">
        <ele>2349.8</ele>
        <time>2024-08-12T11:56:19Z</time>
      </trkpt>
      <trkpt lat="44.77363" lon="6.31877">
        <ele>2349.6</ele>
        <time>2024-08-12T11:56:20Z</time>
      </trkpt>
      <trkpt lat="44.77363" lon="6.31875">
        <ele>2349.6</ele>
        <time>2024-08-12T11:56:21Z</time>
      </trkpt>
      <trkpt lat="44.77363" lon="6.31875">
        <ele>2349.6</ele>
        <time>2024-08-12T11:56:22Z</time>
      </trkpt>
      <trkpt lat="44.77363" lon="6.31875">
        <ele>2349.6</ele>
        <time>2024-08-12T11:56:23Z</time>
      </trkpt>
      <trkpt lat="44.77363" lon="6.31872">
        <ele>2349.8</ele>
        <time>2024-08-12T11:56:24Z</time>
      </trkpt>
      <trkpt lat="44.77363" lon="6.31872">
        <ele>2349.8</ele>
        <time>2024-08-12T11:56:25Z</time>
      </trkpt>
      <trkpt lat="44.77363" lon="6.31872">
        <ele>2350</ele>
        <time>2024-08-12T11:56:26Z</time>
      </trkpt>
      <trkpt lat="44.77363" lon="6.31868">
        <ele>2350.8</ele>
        <time>2024-08-12T11:56:27Z</time>
      </trkpt>
      <trkpt lat="44.77363" lon="6.31868">
        <ele>2351</ele>
        <time>2024-08-12T11:56:28Z</time>
      </trkpt>
      <trkpt lat="44.77363" lon="6.31866">
        <ele>2351</ele>
        <time>2024-08-12T11:56:29Z</time>
      </trkpt>
      <trkpt lat="44.77363" lon="6.31866">
        <ele>2351</ele>
        <time>2024-08-12T11:56:30Z</time>
      </trkpt>
      <trkpt lat="44.77363" lon="6.31866">
        <ele>2351</ele>
        <time>2024-08-12T11:56:31Z</time>
      </trkpt>
      <trkpt lat="44.77363" lon="6.31862">
        <ele>2351.2</ele>
        <time>2024-08-12T11:56:32Z</time>
      </trkpt>
      <trkpt lat="44.77363" lon="6.31862">
        <ele>2351.4</ele>
        <time>2024-08-12T11:56:33Z</time>
      </trkpt>
      <trkpt lat="44.77364" lon="6.3186">
        <ele>2351.4</ele>
        <time>2024-08-12T11:56:34Z</time>
      </trkpt>
      <trkpt lat="44.77364" lon="6.3186">
        <ele>2351.2</ele>
        <time>2024-08-12T11:56:35Z</time>
      </trkpt>
      <trkpt lat="44.77365" lon="6.31858">
        <ele>2351.2</ele>
        <time>2024-08-12T11:56:36Z</time>
      </trkpt>
      <trkpt lat="44.77365" lon="6.31858">
        <ele>2351.6</ele>
        <time>2024-08-12T11:56:37Z</time>
      </trkpt>
      <trkpt lat="44.77365" lon="6.31858">
        <ele>2351.6</ele>
        <time>2024-08-12T11:56:38Z</time>
      </trkpt>
      <trkpt lat="44.77366" lon="6.31855">
        <ele>2352</ele>
        <time>2024-08-12T11:56:39Z</time>
      </trkpt>
      <trkpt lat="44.77366" lon="6.31855">
        <ele>2352.2</ele>
        <time>2024-08-12T11:56:40Z</time>
      </trkpt>
      <trkpt lat="44.77366" lon="6.31855">
        <ele>2352.6</ele>
        <time>2024-08-12T11:56:41Z</time>
      </trkpt>
      <trkpt lat="44.77367" lon="6.31852">
        <ele>2352.8</ele>
        <time>2024-08-12T11:56:42Z</time>
      </trkpt>
      <trkpt lat="44.77367" lon="6.31852">
        <ele>2352.8</ele>
        <time>2024-08-12T11:56:43Z</time>
      </trkpt>
      <trkpt lat="44.77367" lon="6.31852">
        <ele>2352.8</ele>
        <time>2024-08-12T11:56:44Z</time>
      </trkpt>
      <trkpt lat="44.77367" lon="6.31852">
        <ele>2353</ele>
        <time>2024-08-12T11:56:45Z</time>
      </trkpt>
      <trkpt lat="44.77366" lon="6.31849">
        <ele>2353.2</ele>
        <time>2024-08-12T11:56:46Z</time>
      </trkpt>
      <trkpt lat="44.77366" lon="6.31849">
        <ele>2353.4</ele>
        <time>2024-08-12T11:56:47Z</time>
      </trkpt>
      <trkpt lat="44.77366" lon="6.31846">
        <ele>2353.4</ele>
        <time>2024-08-12T11:56:48Z</time>
      </trkpt>
      <trkpt lat="44.77366" lon="6.31846">
        <ele>2353.8</ele>
        <time>2024-08-12T11:56:49Z</time>
      </trkpt>
      <trkpt lat="44.77366" lon="6.31846">
        <ele>2354.2</ele>
        <time>2024-08-12T11:56:50Z</time>
      </trkpt>
      <trkpt lat="44.77366" lon="6.31844">
        <ele>2354.6</ele>
        <time>2024-08-12T11:56:51Z</time>
      </trkpt>
      <trkpt lat="44.77366" lon="6.31844">
        <ele>2355</ele>
        <time>2024-08-12T11:56:52Z</time>
      </trkpt>
      <trkpt lat="44.77365" lon="6.31841">
        <ele>2355.2</ele>
        <time>2024-08-12T11:56:53Z</time>
      </trkpt>
      <trkpt lat="44.77365" lon="6.31841">
        <ele>2355.4</ele>
        <time>2024-08-12T11:56:54Z</time>
      </trkpt>
      <trkpt lat="44.77365" lon="6.31841">
        <ele>2355.6</ele>
        <time>2024-08-12T11:56:55Z</time>
      </trkpt>
      <trkpt lat="44.77365" lon="6.31838">
        <ele>2355.8</ele>
        <time>2024-08-12T11:56:56Z</time>
      </trkpt>
      <trkpt lat="44.77365" lon="6.31838">
        <ele>2356</ele>
        <time>2024-08-12T11:56:57Z</time>
      </trkpt>
      <trkpt lat="44.77365" lon="6.31835">
        <ele>2356</ele>
        <time>2024-08-12T11:56:58Z</time>
      </trkpt>
      <trkpt lat="44.77365" lon="6.31835">
        <ele>2356.2</ele>
        <time>2024-08-12T11:56:59Z</time>
      </trkpt>
      <trkpt lat="44.77365" lon="6.31835">
        <ele>2356.4</ele>
        <time>2024-08-12T11:57:00Z</time>
      </trkpt>
      <trkpt lat="44.77365" lon="6.31831">
        <ele>2356.4</ele>
        <time>2024-08-12T11:57:01Z</time>
      </trkpt>
      <trkpt lat="44.77365" lon="6.31831">
        <ele>2357.2</ele>
        <time>2024-08-12T11:57:02Z</time>
      </trkpt>
      <trkpt lat="44.77365" lon="6.31831">
        <ele>2357.2</ele>
        <time>2024-08-12T11:57:03Z</time>
      </trkpt>
      <trkpt lat="44.77365" lon="6.31829">
        <ele>2357.6</ele>
        <time>2024-08-12T11:57:04Z</time>
      </trkpt>
      <trkpt lat="44.77365" lon="6.31829">
        <ele>2357.8</ele>
        <time>2024-08-12T11:57:05Z</time>
      </trkpt>
      <trkpt lat="44.77365" lon="6.31829">
        <ele>2358</ele>
        <time>2024-08-12T11:57:06Z</time>
      </trkpt>
      <trkpt lat="44.77366" lon="6.31826">
        <ele>2358.2</ele>
        <time>2024-08-12T11:57:07Z</time>
      </trkpt>
      <trkpt lat="44.77366" lon="6.31826">
        <ele>2358.6</ele>
        <time>2024-08-12T11:57:08Z</time>
      </trkpt>
      <trkpt lat="44.77366" lon="6.31826">
        <ele>2358.8</ele>
        <time>2024-08-12T11:57:09Z</time>
      </trkpt>
      <trkpt lat="44.77366" lon="6.31823">
        <ele>2359</ele>
        <time>2024-08-12T11:57:10Z</time>
      </trkpt>
      <trkpt lat="44.77366" lon="6.31823">
        <ele>2359.4</ele>
        <time>2024-08-12T11:57:11Z</time>
      </trkpt>
      <trkpt lat="44.77366" lon="6.31823">
        <ele>2359.8</ele>
        <time>2024-08-12T11:57:12Z</time>
      </trkpt>
      <trkpt lat="44.77367" lon="6.31819">
        <ele>2360</ele>
        <time>2024-08-12T11:57:13Z</time>
      </trkpt>
      <trkpt lat="44.77367" lon="6.31819">
        <ele>2360.4</ele>
        <time>2024-08-12T11:57:14Z</time>
      </trkpt>
      <trkpt lat="44.77367" lon="6.31819">
        <ele>2360.8</ele>
        <time>2024-08-12T11:57:15Z</time>
      </trkpt>
      <trkpt lat="44.77367" lon="6.31816">
        <ele>2361.2</ele>
        <time>2024-08-12T11:57:16Z</time>
      </trkpt>
      <trkpt lat="44.77367" lon="6.31816">
        <ele>2361.2</ele>
        <time>2024-08-12T11:57:17Z</time>
      </trkpt>
      <trkpt lat="44.77367" lon="6.31816">
        <ele>2361.2</ele>
        <time>2024-08-12T11:57:18Z</time>
      </trkpt>
      <trkpt lat="44.77368" lon="6.31813">
        <ele>2361.2</ele>
        <time>2024-08-12T11:57:19Z</time>
      </trkpt>
      <trkpt lat="44.77368" lon="6.31813">
        <ele>2361</ele>
        <time>2024-08-12T11:57:20Z</time>
      </trkpt>
      <trkpt lat="44.77368" lon="6.3181">
        <ele>2361</ele>
        <time>2024-08-12T11:57:21Z</time>
      </trkpt>
      <trkpt lat="44.77368" lon="6.3181">
        <ele>2361</ele>
        <time>2024-08-12T11:57:22Z</time>
      </trkpt>
      <trkpt lat="44.77369" lon="6.31807">
        <ele>2360.8</ele>
        <time>2024-08-12T11:57:23Z</time>
      </trkpt>
      <trkpt lat="44.77369" lon="6.31807">
        <ele>2360.6</ele>
        <time>2024-08-12T11:57:24Z</time>
      </trkpt>
      <trkpt lat="44.77369" lon="6.31804">
        <ele>2360.6</ele>
        <time>2024-08-12T11:57:25Z</time>
      </trkpt>
      <trkpt lat="44.77369" lon="6.31804">
        <ele>2360.4</ele>
        <time>2024-08-12T11:57:26Z</time>
      </trkpt>
      <trkpt lat="44.7737" lon="6.31801">
        <ele>2360.4</ele>
        <time>2024-08-12T11:57:27Z</time>
      </trkpt>
      <trkpt lat="44.7737" lon="6.31801">
        <ele>2360.4</ele>
        <time>2024-08-12T11:57:28Z</time>
      </trkpt>
      <trkpt lat="44.7737" lon="6.31801">
        <ele>2360.2</ele>
        <time>2024-08-12T11:57:29Z</time>
      </trkpt>
      <trkpt lat="44.7737" lon="6.31797">
        <ele>2360.2</ele>
        <time>2024-08-12T11:57:30Z</time>
      </trkpt>
      <trkpt lat="44.7737" lon="6.31797">
        <ele>2360.2</ele>
        <time>2024-08-12T11:57:31Z</time>
      </trkpt>
      <trkpt lat="44.7737" lon="6.31794">
        <ele>2360.2</ele>
        <time>2024-08-12T11:57:32Z</time>
      </trkpt>
      <trkpt lat="44.7737" lon="6.31794">
        <ele>2360.6</ele>
        <time>2024-08-12T11:57:33Z</time>
      </trkpt>
      <trkpt lat="44.7737" lon="6.31794">
        <ele>2360.6</ele>
        <time>2024-08-12T11:57:34Z</time>
      </trkpt>
      <trkpt lat="44.7737" lon="6.3179">
        <ele>2360.6</ele>
        <time>2024-08-12T11:57:35Z</time>
      </trkpt>
      <trkpt lat="44.7737" lon="6.3179">
        <ele>2361</ele>
        <time>2024-08-12T11:57:36Z</time>
      </trkpt>
      <trkpt lat="44.7737" lon="6.31787">
        <ele>2361.2</ele>
        <time>2024-08-12T11:57:37Z</time>
      </trkpt>
      <trkpt lat="44.7737" lon="6.31787">
        <ele>2361.4</ele>
        <time>2024-08-12T11:57:38Z</time>
      </trkpt>
      <trkpt lat="44.7737" lon="6.31787">
        <ele>2361.4</ele>
        <time>2024-08-12T11:57:39Z</time>
      </trkpt>
      <trkpt lat="44.7737" lon="6.31784">
        <ele>2361.4</ele>
        <time>2024-08-12T11:57:40Z</time>
      </trkpt>
      <trkpt lat="44.7737" lon="6.31784">
        <ele>2361.8</ele>
        <time>2024-08-12T11:57:41Z</time>
      </trkpt>
      <trkpt lat="44.77371" lon="6.31781">
        <ele>2362.2</ele>
        <time>2024-08-12T11:57:42Z</time>
      </trkpt>
      <trkpt lat="44.77371" lon="6.31781">
        <ele>2362.4</ele>
        <time>2024-08-12T11:57:43Z</time>
      </trkpt>
      <trkpt lat="44.77371" lon="6.31781">
        <ele>2362.6</ele>
        <time>2024-08-12T11:57:44Z</time>
      </trkpt>
      <trkpt lat="44.77371" lon="6.31778">
        <ele>2363</ele>
        <time>2024-08-12T11:57:45Z</time>
      </trkpt>
      <trkpt lat="44.77371" lon="6.31778">
        <ele>2363.2</ele>
        <time>2024-08-12T11:57:46Z</time>
      </trkpt>
      <trkpt lat="44.77371" lon="6.31778">
        <ele>2363.4</ele>
        <time>2024-08-12T11:57:47Z</time>
      </trkpt>
      <trkpt lat="44.77371" lon="6.31774">
        <ele>2363.4</ele>
        <time>2024-08-12T11:57:48Z</time>
      </trkpt>
      <trkpt lat="44.77371" lon="6.31774">
        <ele>2363.4</ele>
        <time>2024-08-12T11:57:49Z</time>
      </trkpt>
      <trkpt lat="44.77371" lon="6.31774">
        <ele>2363.6</ele>
        <time>2024-08-12T11:57:50Z</time>
      </trkpt>
      <trkpt lat="44.77371" lon="6.31771">
        <ele>2364.2</ele>
        <time>2024-08-12T11:57:51Z</time>
      </trkpt>
      <trkpt lat="44.77371" lon="6.31771">
        <ele>2364.4</ele>
        <time>2024-08-12T11:57:52Z</time>
      </trkpt>
      <trkpt lat="44.77371" lon="6.31771">
        <ele>2364.4</ele>
        <time>2024-08-12T11:57:53Z</time>
      </trkpt>
      <trkpt lat="44.77371" lon="6.31767">
        <ele>2364.6</ele>
        <time>2024-08-12T11:57:54Z</time>
      </trkpt>
      <trkpt lat="44.77371" lon="6.31767">
        <ele>2364.6</ele>
        <time>2024-08-12T11:57:55Z</time>
      </trkpt>
      <trkpt lat="44.77371" lon="6.31767">
        <ele>2364.8</ele>
        <time>2024-08-12T11:57:56Z</time>
      </trkpt>
      <trkpt lat="44.77371" lon="6.31764">
        <ele>2364.8</ele>
        <time>2024-08-12T11:57:57Z</time>
      </trkpt>
      <trkpt lat="44.77371" lon="6.31764">
        <ele>2365</ele>
        <time>2024-08-12T11:57:58Z</time>
      </trkpt>
      <trkpt lat="44.77371" lon="6.31764">
        <ele>2365.2</ele>
        <time>2024-08-12T11:57:59Z</time>
      </trkpt>
      <trkpt lat="44.77371" lon="6.31761">
        <ele>2365.2</ele>
        <time>2024-08-12T11:58:00Z</time>
      </trkpt>
      <trkpt lat="44.77371" lon="6.31761">
        <ele>2365.4</ele>
        <time>2024-08-12T11:58:01Z</time>
      </trkpt>
      <trkpt lat="44.77371" lon="6.31761">
        <ele>2365.6</ele>
        <time>2024-08-12T11:58:02Z</time>
      </trkpt>
      <trkpt lat="44.77369" lon="6.31759">
        <ele>2365.6</ele>
        <time>2024-08-12T11:58:03Z</time>
      </trkpt>
      <trkpt lat="44.77369" lon="6.31759">
        <ele>2366</ele>
        <time>2024-08-12T11:58:04Z</time>
      </trkpt>
      <trkpt lat="44.77369" lon="6.31759">
        <ele>2366</ele>
        <time>2024-08-12T11:58:05Z</time>
      </trkpt>
      <trkpt lat="44.77368" lon="6.31756">
        <ele>2366.2</ele>
        <time>2024-08-12T11:58:06Z</time>
      </trkpt>
      <trkpt lat="44.77368" lon="6.31756">
        <ele>2366.4</ele>
        <time>2024-08-12T11:58:07Z</time>
      </trkpt>
      <trkpt lat="44.77368" lon="6.31756">
        <ele>2366.6</ele>
        <time>2024-08-12T11:58:08Z</time>
      </trkpt>
      <trkpt lat="44.77368" lon="6.31756">
        <ele>2366.8</ele>
        <time>2024-08-12T11:58:09Z</time>
      </trkpt>
      <trkpt lat="44.77367" lon="6.31753">
        <ele>2367</ele>
        <time>2024-08-12T11:58:10Z</time>
      </trkpt>
      <trkpt lat="44.77367" lon="6.31753">
        <ele>2367.2</ele>
        <time>2024-08-12T11:58:11Z</time>
      </trkpt>
      <trkpt lat="44.77367" lon="6.31753">
        <ele>2367.4</ele>
        <time>2024-08-12T11:58:12Z</time>
      </trkpt>
      <trkpt lat="44.77365" lon="6.3175">
        <ele>2367.4</ele>
        <time>2024-08-12T11:58:13Z</time>
      </trkpt>
      <trkpt lat="44.77365" lon="6.3175">
        <ele>2367.8</ele>
        <time>2024-08-12T11:58:14Z</time>
      </trkpt>
      <trkpt lat="44.77365" lon="6.3175">
        <ele>2368</ele>
        <time>2024-08-12T11:58:15Z</time>
      </trkpt>
      <trkpt lat="44.77365" lon="6.31747">
        <ele>2368</ele>
        <time>2024-08-12T11:58:16Z</time>
      </trkpt>
      <trkpt lat="44.77365" lon="6.31747">
        <ele>2368.2</ele>
        <time>2024-08-12T11:58:17Z</time>
      </trkpt>
      <trkpt lat="44.77365" lon="6.31747">
        <ele>2368.4</ele>
        <time>2024-08-12T11:58:18Z</time>
      </trkpt>
      <trkpt lat="44.77365" lon="6.31744">
        <ele>2368.8</ele>
        <time>2024-08-12T11:58:19Z</time>
      </trkpt>
      <trkpt lat="44.77365" lon="6.31744">
        <ele>2369.2</ele>
        <time>2024-08-12T11:58:20Z</time>
      </trkpt>
      <trkpt lat="44.77365" lon="6.31744">
        <ele>2369.4</ele>
        <time>2024-08-12T11:58:21Z</time>
      </trkpt>
      <trkpt lat="44.77365" lon="6.3174">
        <ele>2369.6</ele>
        <time>2024-08-12T11:58:22Z</time>
      </trkpt>
      <trkpt lat="44.77365" lon="6.3174">
        <ele>2369.6</ele>
        <time>2024-08-12T11:58:23Z</time>
      </trkpt>
      <trkpt lat="44.77365" lon="6.3174">
        <ele>2369.6</ele>
        <time>2024-08-12T11:58:24Z</time>
      </trkpt>
      <trkpt lat="44.77365" lon="6.31738">
        <ele>2369.8</ele>
        <time>2024-08-12T11:58:25Z</time>
      </trkpt>
      <trkpt lat="44.77365" lon="6.31738">
        <ele>2370.2</ele>
        <time>2024-08-12T11:58:26Z</time>
      </trkpt>
      <trkpt lat="44.77365" lon="6.31738">
        <ele>2370.2</ele>
        <time>2024-08-12T11:58:27Z</time>
      </trkpt>
      <trkpt lat="44.77365" lon="6.31734">
        <ele>2370.4</ele>
        <time>2024-08-12T11:58:28Z</time>
      </trkpt>
      <trkpt lat="44.77365" lon="6.31734">
        <ele>2370.8</ele>
        <time>2024-08-12T11:58:29Z</time>
      </trkpt>
      <trkpt lat="44.77365" lon="6.31734">
        <ele>2370.8</ele>
        <time>2024-08-12T11:58:30Z</time>
      </trkpt>
      <trkpt lat="44.77365" lon="6.31734">
        <ele>2371</ele>
        <time>2024-08-12T11:58:31Z</time>
      </trkpt>
      <trkpt lat="44.77366" lon="6.31732">
        <ele>2371.6</ele>
        <time>2024-08-12T11:58:32Z</time>
      </trkpt>
      <trkpt lat="44.77366" lon="6.31732">
        <ele>2371.6</ele>
        <time>2024-08-12T11:58:33Z</time>
      </trkpt>
      <trkpt lat="44.77366" lon="6.31732">
        <ele>2371.6</ele>
        <time>2024-08-12T11:58:34Z</time>
      </trkpt>
      <trkpt lat="44.77369" lon="6.31732">
        <ele>2371.6</ele>
        <time>2024-08-12T11:58:35Z</time>
      </trkpt>
      <trkpt lat="44.77369" lon="6.31732">
        <ele>2371.6</ele>
        <time>2024-08-12T11:58:36Z</time>
      </trkpt>
      <trkpt lat="44.77369" lon="6.31732">
        <ele>2371.6</ele>
        <time>2024-08-12T11:58:37Z</time>
      </trkpt>
      <trkpt lat="44.77371" lon="6.31733">
        <ele>2371.6</ele>
        <time>2024-08-12T11:58:38Z</time>
      </trkpt>
      <trkpt lat="44.77371" lon="6.31733">
        <ele>2372</ele>
        <time>2024-08-12T11:58:39Z</time>
      </trkpt>
      <trkpt lat="44.77371" lon="6.31733">
        <ele>2372</ele>
        <time>2024-08-12T11:58:40Z</time>
      </trkpt>
      <trkpt lat="44.77373" lon="6.31733">
        <ele>2372.2</ele>
        <time>2024-08-12T11:58:41Z</time>
      </trkpt>
      <trkpt lat="44.77373" lon="6.31733">
        <ele>2372.2</ele>
        <time>2024-08-12T11:58:42Z</time>
      </trkpt>
      <trkpt lat="44.77373" lon="6.31733">
        <ele>2372.2</ele>
        <time>2024-08-12T11:58:43Z</time>
      </trkpt>
      <trkpt lat="44.77376" lon="6.31732">
        <ele>2372.4</ele>
        <time>2024-08-12T11:58:44Z</time>
      </trkpt>
      <trkpt lat="44.77376" lon="6.31732">
        <ele>2372.6</ele>
        <time>2024-08-12T11:58:45Z</time>
      </trkpt>
      <trkpt lat="44.77376" lon="6.31732">
        <ele>2372.8</ele>
        <time>2024-08-12T11:58:46Z</time>
      </trkpt>
      <trkpt lat="44.77376" lon="6.31732">
        <ele>2373</ele>
        <time>2024-08-12T11:58:47Z</time>
      </trkpt>
      <trkpt lat="44.77376" lon="6.3173">
        <ele>2373</ele>
        <time>2024-08-12T11:58:48Z</time>
      </trkpt>
      <trkpt lat="44.77376" lon="6.3173">
        <ele>2373.6</ele>
        <time>2024-08-12T11:58:49Z</time>
      </trkpt>
      <trkpt lat="44.77376" lon="6.3173">
        <ele>2374.4</ele>
        <time>2024-08-12T11:58:50Z</time>
      </trkpt>
      <trkpt lat="44.77376" lon="6.3173">
        <ele>2374.4</ele>
        <time>2024-08-12T11:58:51Z</time>
      </trkpt>
      <trkpt lat="44.77376" lon="6.31727">
        <ele>2374.4</ele>
        <time>2024-08-12T11:58:52Z</time>
      </trkpt>
      <trkpt lat="44.77376" lon="6.31727">
        <ele>2375.2</ele>
        <time>2024-08-12T11:58:53Z</time>
      </trkpt>
      <trkpt lat="44.77375" lon="6.31724">
        <ele>2375.4</ele>
        <time>2024-08-12T11:58:54Z</time>
      </trkpt>
      <trkpt lat="44.77375" lon="6.31724">
        <ele>2375.4</ele>
        <time>2024-08-12T11:58:55Z</time>
      </trkpt>
      <trkpt lat="44.77375" lon="6.31724">
        <ele>2375.4</ele>
        <time>2024-08-12T11:58:56Z</time>
      </trkpt>
      <trkpt lat="44.77374" lon="6.31722">
        <ele>2375.6</ele>
        <time>2024-08-12T11:58:57Z</time>
      </trkpt>
      <trkpt lat="44.77374" lon="6.31722">
        <ele>2375.8</ele>
        <time>2024-08-12T11:58:58Z</time>
      </trkpt>
      <trkpt lat="44.77374" lon="6.31722">
        <ele>2375.8</ele>
        <time>2024-08-12T11:58:59Z</time>
      </trkpt>
      <trkpt lat="44.77374" lon="6.31722">
        <ele>2376.2</ele>
        <time>2024-08-12T11:59:00Z</time>
      </trkpt>
      <trkpt lat="44.77374" lon="6.31722">
        <ele>2376.2</ele>
        <time>2024-08-12T11:59:01Z</time>
      </trkpt>
      <trkpt lat="44.77374" lon="6.31722">
        <ele>2376.4</ele>
        <time>2024-08-12T11:59:02Z</time>
      </trkpt>
      <trkpt lat="44.77374" lon="6.31722">
        <ele>2376.4</ele>
        <time>2024-08-12T11:59:03Z</time>
      </trkpt>
      <trkpt lat="44.77374" lon="6.31722">
        <ele>2376.4</ele>
        <time>2024-08-12T11:59:04Z</time>
      </trkpt>
      <trkpt lat="44.77374" lon="6.31722">
        <ele>2375.8</ele>
        <time>2024-08-12T11:59:05Z</time>
      </trkpt>
      <trkpt lat="44.77374" lon="6.31722">
        <ele>2375.6</ele>
        <time>2024-08-12T11:59:06Z</time>
      </trkpt>
      <trkpt lat="44.77374" lon="6.31722">
        <ele>2375.6</ele>
        <time>2024-08-12T11:59:07Z</time>
      </trkpt>
      <trkpt lat="44.77374" lon="6.31722">
        <ele>2375.4</ele>
        <time>2024-08-12T11:59:08Z</time>
      </trkpt>
      <trkpt lat="44.77374" lon="6.31722">
        <ele>2375.4</ele>
        <time>2024-08-12T11:59:09Z</time>
      </trkpt>
      <trkpt lat="44.77374" lon="6.31722">
        <ele>2375.4</ele>
        <time>2024-08-12T11:59:10Z</time>
      </trkpt>
      <trkpt lat="44.77374" lon="6.31722">
        <ele>2375.4</ele>
        <time>2024-08-12T11:59:11Z</time>
      </trkpt>
      <trkpt lat="44.77374" lon="6.31722">
        <ele>2375.4</ele>
        <time>2024-08-12T11:59:12Z</time>
      </trkpt>
      <trkpt lat="44.77374" lon="6.31722">
        <ele>2375.4</ele>
        <time>2024-08-12T11:59:13Z</time>
      </trkpt>
      <trkpt lat="44.77374" lon="6.31722">
        <ele>2375.4</ele>
        <time>2024-08-12T11:59:14Z</time>
      </trkpt>
      <trkpt lat="44.77372" lon="6.31719">
        <ele>2375.4</ele>
        <time>2024-08-12T11:59:15Z</time>
      </trkpt>
      <trkpt lat="44.77372" lon="6.31719">
        <ele>2375.4</ele>
        <time>2024-08-12T11:59:16Z</time>
      </trkpt>
      <trkpt lat="44.77372" lon="6.31717">
        <ele>2376</ele>
        <time>2024-08-12T11:59:17Z</time>
      </trkpt>
      <trkpt lat="44.77372" lon="6.31717">
        <ele>2376.4</ele>
        <time>2024-08-12T11:59:18Z</time>
      </trkpt>
      <trkpt lat="44.77371" lon="6.31714">
        <ele>2376.6</ele>
        <time>2024-08-12T11:59:19Z</time>
      </trkpt>
      <trkpt lat="44.77371" lon="6.31714">
        <ele>2376.6</ele>
        <time>2024-08-12T11:59:20Z</time>
      </trkpt>
      <trkpt lat="44.7737" lon="6.31712">
        <ele>2376.8</ele>
        <time>2024-08-12T11:59:21Z</time>
      </trkpt>
      <trkpt lat="44.7737" lon="6.31712">
        <ele>2377</ele>
        <time>2024-08-12T11:59:22Z</time>
      </trkpt>
      <trkpt lat="44.77369" lon="6.31709">
        <ele>2377.2</ele>
        <time>2024-08-12T11:59:23Z</time>
      </trkpt>
      <trkpt lat="44.77369" lon="6.31709">
        <ele>2377.6</ele>
        <time>2024-08-12T11:59:24Z</time>
      </trkpt>
      <trkpt lat="44.77369" lon="6.31709">
        <ele>2377.6</ele>
        <time>2024-08-12T11:59:25Z</time>
      </trkpt>
      <trkpt lat="44.77369" lon="6.31705">
        <ele>2377.6</ele>
        <time>2024-08-12T11:59:26Z</time>
      </trkpt>
      <trkpt lat="44.77369" lon="6.31705">
        <ele>2377.6</ele>
        <time>2024-08-12T11:59:27Z</time>
      </trkpt>
      <trkpt lat="44.77369" lon="6.31705">
        <ele>2378</ele>
        <time>2024-08-12T11:59:28Z</time>
      </trkpt>
      <trkpt lat="44.7737" lon="6.31702">
        <ele>2378.4</ele>
        <time>2024-08-12T11:59:29Z</time>
      </trkpt>
      <trkpt lat="44.7737" lon="6.31702">
        <ele>2378.4</ele>
        <time>2024-08-12T11:59:30Z</time>
      </trkpt>
      <trkpt lat="44.7737" lon="6.31702">
        <ele>2378.4</ele>
        <time>2024-08-12T11:59:31Z</time>
      </trkpt>
      <trkpt lat="44.77371" lon="6.317">
        <ele>2378.6</ele>
        <time>2024-08-12T11:59:32Z</time>
      </trkpt>
      <trkpt lat="44.77371" lon="6.317">
        <ele>2378.6</ele>
        <time>2024-08-12T11:59:33Z</time>
      </trkpt>
      <trkpt lat="44.77371" lon="6.317">
        <ele>2378.8</ele>
        <time>2024-08-12T11:59:34Z</time>
      </trkpt>
      <trkpt lat="44.77371" lon="6.317">
        <ele>2378.8</ele>
        <time>2024-08-12T11:59:35Z</time>
      </trkpt>
      <trkpt lat="44.77371" lon="6.31697">
        <ele>2378.8</ele>
        <time>2024-08-12T11:59:36Z</time>
      </trkpt>
      <trkpt lat="44.77371" lon="6.31697">
        <ele>2378.8</ele>
        <time>2024-08-12T11:59:37Z</time>
      </trkpt>
      <trkpt lat="44.77371" lon="6.31697">
        <ele>2379</ele>
        <time>2024-08-12T11:59:38Z</time>
      </trkpt>
      <trkpt lat="44.7737" lon="6.31694">
        <ele>2379</ele>
        <time>2024-08-12T11:59:39Z</time>
      </trkpt>
      <trkpt lat="44.7737" lon="6.31694">
        <ele>2379.4</ele>
        <time>2024-08-12T11:59:40Z</time>
      </trkpt>
      <trkpt lat="44.7737" lon="6.31694">
        <ele>2379.6</ele>
        <time>2024-08-12T11:59:41Z</time>
      </trkpt>
      <trkpt lat="44.77369" lon="6.31691">
        <ele>2379.8</ele>
        <time>2024-08-12T11:59:42Z</time>
      </trkpt>
      <trkpt lat="44.77369" lon="6.31691">
        <ele>2380.2</ele>
        <time>2024-08-12T11:59:43Z</time>
      </trkpt>
      <trkpt lat="44.77369" lon="6.31691">
        <ele>2380.4</ele>
        <time>2024-08-12T11:59:44Z</time>
      </trkpt>
      <trkpt lat="44.77369" lon="6.31689">
        <ele>2380.4</ele>
        <time>2024-08-12T11:59:45Z</time>
      </trkpt>
      <trkpt lat="44.77369" lon="6.31689">
        <ele>2380.8</ele>
        <time>2024-08-12T11:59:46Z</time>
      </trkpt>
      <trkpt lat="44.77369" lon="6.31689">
        <ele>2380.8</ele>
        <time>2024-08-12T11:59:47Z</time>
      </trkpt>
      <trkpt lat="44.77368" lon="6.31686">
        <ele>2380.8</ele>
        <time>2024-08-12T11:59:48Z</time>
      </trkpt>
      <trkpt lat="44.77368" lon="6.31686">
        <ele>2381.4</ele>
        <time>2024-08-12T11:59:49Z</time>
      </trkpt>
      <trkpt lat="44.77368" lon="6.31686">
        <ele>2381.4</ele>
        <time>2024-08-12T11:59:50Z</time>
      </trkpt>
      <trkpt lat="44.77367" lon="6.31684">
        <ele>2381.6</ele>
        <time>2024-08-12T11:59:51Z</time>
      </trkpt>
      <trkpt lat="44.77367" lon="6.31684">
        <ele>2381.8</ele>
        <time>2024-08-12T11:59:52Z</time>
      </trkpt>
      <trkpt lat="44.77367" lon="6.31684">
        <ele>2382</ele>
        <time>2024-08-12T11:59:53Z</time>
      </trkpt>
      <trkpt lat="44.77367" lon="6.31681">
        <ele>2382.2</ele>
        <time>2024-08-12T11:59:54Z</time>
      </trkpt>
      <trkpt lat="44.77367" lon="6.31681">
        <ele>2382.2</ele>
        <time>2024-08-12T11:59:55Z</time>
      </trkpt>
      <trkpt lat="44.77367" lon="6.31681">
        <ele>2382.6</ele>
        <time>2024-08-12T11:59:56Z</time>
      </trkpt>
      <trkpt lat="44.77367" lon="6.31681">
        <ele>2383</ele>
        <time>2024-08-12T11:59:57Z</time>
      </trkpt>
      <trkpt lat="44.77368" lon="6.31678">
        <ele>2383</ele>
        <time>2024-08-12T11:59:58Z</time>
      </trkpt>
      <trkpt lat="44.77368" lon="6.31678">
        <ele>2383</ele>
        <time>2024-08-12T11:59:59Z</time>
      </trkpt>
      <trkpt lat="44.77368" lon="6.31678">
        <ele>2383.6</ele>
        <time>2024-08-12T12:00:00Z</time>
      </trkpt>
      <trkpt lat="44.77368" lon="6.31678">
        <ele>2383.6</ele>
        <time>2024-08-12T12:00:01Z</time>
      </trkpt>
      <trkpt lat="44.77368" lon="6.31678">
        <ele>2384.2</ele>
        <time>2024-08-12T12:00:02Z</time>
      </trkpt>
      <trkpt lat="44.7737" lon="6.31677">
        <ele>2384.2</ele>
        <time>2024-08-12T12:00:03Z</time>
      </trkpt>
      <trkpt lat="44.7737" lon="6.31677">
        <ele>2384.2</ele>
        <time>2024-08-12T12:00:04Z</time>
      </trkpt>
      <trkpt lat="44.77371" lon="6.31675">
        <ele>2384.2</ele>
        <time>2024-08-12T12:00:05Z</time>
      </trkpt>
      <trkpt lat="44.77371" lon="6.31675">
        <ele>2384.2</ele>
        <time>2024-08-12T12:00:06Z</time>
      </trkpt>
      <trkpt lat="44.77371" lon="6.31675">
        <ele>2384.4</ele>
        <time>2024-08-12T12:00:07Z</time>
      </trkpt>
      <trkpt lat="44.77371" lon="6.31675">
        <ele>2384.6</ele>
        <time>2024-08-12T12:00:08Z</time>
      </trkpt>
      <trkpt lat="44.77372" lon="6.31673">
        <ele>2384.6</ele>
        <time>2024-08-12T12:00:09Z</time>
      </trkpt>
      <trkpt lat="44.77372" lon="6.31673">
        <ele>2385.4</ele>
        <time>2024-08-12T12:00:10Z</time>
      </trkpt>
      <trkpt lat="44.77372" lon="6.31673">
        <ele>2385.8</ele>
        <time>2024-08-12T12:00:11Z</time>
      </trkpt>
      <trkpt lat="44.77372" lon="6.31673">
        <ele>2386</ele>
        <time>2024-08-12T12:00:12Z</time>
      </trkpt>
      <trkpt lat="44.77373" lon="6.3167">
        <ele>2386</ele>
        <time>2024-08-12T12:00:13Z</time>
      </trkpt>
      <trkpt lat="44.77373" lon="6.3167">
        <ele>2386</ele>
        <time>2024-08-12T12:00:14Z</time>
      </trkpt>
      <trkpt lat="44.77373" lon="6.3167">
        <ele>2386.2</ele>
        <time>2024-08-12T12:00:15Z</time>
      </trkpt>
      <trkpt lat="44.77373" lon="6.3167">
        <ele>2386.4</ele>
        <time>2024-08-12T12:00:16Z</time>
      </trkpt>
      <trkpt lat="44.77373" lon="6.3167">
        <ele>2386.6</ele>
        <time>2024-08-12T12:00:17Z</time>
      </trkpt>
      <trkpt lat="44.77373" lon="6.3167">
        <ele>2386.8</ele>
        <time>2024-08-12T12:00:18Z</time>
      </trkpt>
      <trkpt lat="44.77373" lon="6.3167">
        <ele>2386.8</ele>
        <time>2024-08-12T12:00:19Z</time>
      </trkpt>
      <trkpt lat="44.77373" lon="6.3167">
        <ele>2387</ele>
        <time>2024-08-12T12:00:20Z</time>
      </trkpt>
      <trkpt lat="44.77373" lon="6.3167">
        <ele>2387</ele>
        <time>2024-08-12T12:00:21Z</time>
      </trkpt>
      <trkpt lat="44.77373" lon="6.3167">
        <ele>2386.6</ele>
        <time>2024-08-12T12:00:22Z</time>
      </trkpt>
      <trkpt lat="44.77373" lon="6.3167">
        <ele>2386.6</ele>
        <time>2024-08-12T12:00:23Z</time>
      </trkpt>
      <trkpt lat="44.77373" lon="6.3167">
        <ele>2386.6</ele>
        <time>2024-08-12T12:00:24Z</time>
      </trkpt>
      <trkpt lat="44.77373" lon="6.3167">
        <ele>2386.4</ele>
        <time>2024-08-12T12:00:25Z</time>
      </trkpt>
      <trkpt lat="44.77373" lon="6.3167">
        <ele>2386.2</ele>
        <time>2024-08-12T12:00:26Z</time>
      </trkpt>
      <trkpt lat="44.77373" lon="6.3167">
        <ele>2386.2</ele>
        <time>2024-08-12T12:00:27Z</time>
      </trkpt>
      <trkpt lat="44.77373" lon="6.3167">
        <ele>2386.6</ele>
        <time>2024-08-12T12:00:28Z</time>
      </trkpt>
      <trkpt lat="44.77373" lon="6.3167">
        <ele>2386.8</ele>
        <time>2024-08-12T12:00:29Z</time>
      </trkpt>
      <trkpt lat="44.77373" lon="6.3167">
        <ele>2387</ele>
        <time>2024-08-12T12:00:30Z</time>
      </trkpt>
      <trkpt lat="44.77373" lon="6.3167">
        <ele>2387</ele>
        <time>2024-08-12T12:00:31Z</time>
      </trkpt>
      <trkpt lat="44.77373" lon="6.3167">
        <ele>2387</ele>
        <time>2024-08-12T12:00:32Z</time>
      </trkpt>
      <trkpt lat="44.77373" lon="6.3167">
        <ele>2387</ele>
        <time>2024-08-12T12:00:33Z</time>
      </trkpt>
      <trkpt lat="44.77373" lon="6.3167">
        <ele>2387.2</ele>
        <time>2024-08-12T12:00:34Z</time>
      </trkpt>
      <trkpt lat="44.77373" lon="6.3167">
        <ele>2388</ele>
        <time>2024-08-12T12:00:35Z</time>
      </trkpt>
      <trkpt lat="44.77373" lon="6.3167">
        <ele>2388.4</ele>
        <time>2024-08-12T12:00:36Z</time>
      </trkpt>
      <trkpt lat="44.77373" lon="6.3167">
        <ele>2388.8</ele>
        <time>2024-08-12T12:00:37Z</time>
      </trkpt>
      <trkpt lat="44.77373" lon="6.3167">
        <ele>2389</ele>
        <time>2024-08-12T12:00:38Z</time>
      </trkpt>
      <trkpt lat="44.77375" lon="6.31669">
        <ele>2389.6</ele>
        <time>2024-08-12T12:00:39Z</time>
      </trkpt>
      <trkpt lat="44.77375" lon="6.31669">
        <ele>2390</ele>
        <time>2024-08-12T12:00:40Z</time>
      </trkpt>
      <trkpt lat="44.77377" lon="6.31667">
        <ele>2390.4</ele>
        <time>2024-08-12T12:00:41Z</time>
      </trkpt>
      <trkpt lat="44.77377" lon="6.31667">
        <ele>2390.8</ele>
        <time>2024-08-12T12:00:42Z</time>
      </trkpt>
      <trkpt lat="44.77378" lon="6.31663">
        <ele>2391</ele>
        <time>2024-08-12T12:00:43Z</time>
      </trkpt>
      <trkpt lat="44.77378" lon="6.31663">
        <ele>2391.2</ele>
        <time>2024-08-12T12:00:44Z</time>
      </trkpt>
      <trkpt lat="44.77379" lon="6.3166">
        <ele>2391.4</ele>
        <time>2024-08-12T12:00:45Z</time>
      </trkpt>
      <trkpt lat="44.77379" lon="6.3166">
        <ele>2391.8</ele>
        <time>2024-08-12T12:00:46Z</time>
      </trkpt>
      <trkpt lat="44.77379" lon="6.31658">
        <ele>2392.2</ele>
        <time>2024-08-12T12:00:47Z</time>
      </trkpt>
      <trkpt lat="44.77379" lon="6.31658">
        <ele>2392.4</ele>
        <time>2024-08-12T12:00:48Z</time>
      </trkpt>
      <trkpt lat="44.77379" lon="6.31658">
        <ele>2392.4</ele>
        <time>2024-08-12T12:00:49Z</time>
      </trkpt>
      <trkpt lat="44.77381" lon="6.31655">
        <ele>2392.6</ele>
        <time>2024-08-12T12:00:50Z</time>
      </trkpt>
      <trkpt lat="44.77381" lon="6.31655">
        <ele>2392.8</ele>
        <time>2024-08-12T12:00:51Z</time>
      </trkpt>
      <trkpt lat="44.77382" lon="6.31653">
        <ele>2393.2</ele>
        <time>2024-08-12T12:00:52Z</time>
      </trkpt>
      <trkpt lat="44.77382" lon="6.31653">
        <ele>2393.4</ele>
        <time>2024-08-12T12:00:53Z</time>
      </trkpt>
      <trkpt lat="44.77382" lon="6.31653">
        <ele>2393.6</ele>
        <time>2024-08-12T12:00:54Z</time>
      </trkpt>
      <trkpt lat="44.77384" lon="6.31651">
        <ele>2393.6</ele>
        <time>2024-08-12T12:00:55Z</time>
      </trkpt>
      <trkpt lat="44.77384" lon="6.31651">
        <ele>2393.8</ele>
        <time>2024-08-12T12:00:56Z</time>
      </trkpt>
      <trkpt lat="44.77384" lon="6.31651">
        <ele>2394</ele>
        <time>2024-08-12T12:00:57Z</time>
      </trkpt>
      <trkpt lat="44.77386" lon="6.31648">
        <ele>2394.4</ele>
        <time>2024-08-12T12:00:58Z</time>
      </trkpt>
      <trkpt lat="44.77386" lon="6.31648">
        <ele>2394.4</ele>
        <time>2024-08-12T12:00:59Z</time>
      </trkpt>
      <trkpt lat="44.77386" lon="6.31648">
        <ele>2394.6</ele>
        <time>2024-08-12T12:01:00Z</time>
      </trkpt>
      <trkpt lat="44.77386" lon="6.31645">
        <ele>2394.6</ele>
        <time>2024-08-12T12:01:01Z</time>
      </trkpt>
      <trkpt lat="44.77386" lon="6.31645">
        <ele>2395</ele>
        <time>2024-08-12T12:01:02Z</time>
      </trkpt>
      <trkpt lat="44.77386" lon="6.31645">
        <ele>2395</ele>
        <time>2024-08-12T12:01:03Z</time>
      </trkpt>
      <trkpt lat="44.77386" lon="6.31642">
        <ele>2395.2</ele>
        <time>2024-08-12T12:01:04Z</time>
      </trkpt>
      <trkpt lat="44.77386" lon="6.31642">
        <ele>2395.4</ele>
        <time>2024-08-12T12:01:05Z</time>
      </trkpt>
      <trkpt lat="44.77386" lon="6.31639">
        <ele>2395.6</ele>
        <time>2024-08-12T12:01:06Z</time>
      </trkpt>
      <trkpt lat="44.77386" lon="6.31639">
        <ele>2395.6</ele>
        <time>2024-08-12T12:01:07Z</time>
      </trkpt>
      <trkpt lat="44.77386" lon="6.31639">
        <ele>2395.4</ele>
        <time>2024-08-12T12:01:08Z</time>
      </trkpt>
      <trkpt lat="44.77385" lon="6.31635">
        <ele>2395.4</ele>
        <time>2024-08-12T12:01:09Z</time>
      </trkpt>
      <trkpt lat="44.77385" lon="6.31635">
        <ele>2395.6</ele>
        <time>2024-08-12T12:01:10Z</time>
      </trkpt>
      <trkpt lat="44.77385" lon="6.31635">
        <ele>2395.8</ele>
        <time>2024-08-12T12:01:11Z</time>
      </trkpt>
      <trkpt lat="44.77386" lon="6.31632">
        <ele>2396</ele>
        <time>2024-08-12T12:01:12Z</time>
      </trkpt>
      <trkpt lat="44.77386" lon="6.31632">
        <ele>2396.2</ele>
        <time>2024-08-12T12:01:13Z</time>
      </trkpt>
      <trkpt lat="44.77386" lon="6.31632">
        <ele>2396.6</ele>
        <time>2024-08-12T12:01:14Z</time>
      </trkpt>
      <trkpt lat="44.77387" lon="6.31629">
        <ele>2396.8</ele>
        <time>2024-08-12T12:01:15Z</time>
      </trkpt>
      <trkpt lat="44.77387" lon="6.31629">
        <ele>2396.8</ele>
        <time>2024-08-12T12:01:16Z</time>
      </trkpt>
      <trkpt lat="44.77387" lon="6.31629">
        <ele>2396.8</ele>
        <time>2024-08-12T12:01:17Z</time>
      </trkpt>
      <trkpt lat="44.77387" lon="6.31626">
        <ele>2397.4</ele>
        <time>2024-08-12T12:01:18Z</time>
      </trkpt>
      <trkpt lat="44.77387" lon="6.31626">
        <ele>2397.4</ele>
        <time>2024-08-12T12:01:19Z</time>
      </trkpt>
      <trkpt lat="44.77387" lon="6.31626">
        <ele>2397.4</ele>
        <time>2024-08-12T12:01:20Z</time>
      </trkpt>
      <trkpt lat="44.77388" lon="6.31623">
        <ele>2397.6</ele>
        <time>2024-08-12T12:01:21Z</time>
      </trkpt>
      <trkpt lat="44.77388" lon="6.31623">
        <ele>2397.8</ele>
        <time>2024-08-12T12:01:22Z</time>
      </trkpt>
      <trkpt lat="44.77388" lon="6.31623">
        <ele>2398</ele>
        <time>2024-08-12T12:01:23Z</time>
      </trkpt>
      <trkpt lat="44.77389" lon="6.31621">
        <ele>2398.2</ele>
        <time>2024-08-12T12:01:24Z</time>
      </trkpt>
      <trkpt lat="44.77389" lon="6.31621">
        <ele>2398.4</ele>
        <time>2024-08-12T12:01:25Z</time>
      </trkpt>
      <trkpt lat="44.77389" lon="6.31621">
        <ele>2398.4</ele>
        <time>2024-08-12T12:01:26Z</time>
      </trkpt>
      <trkpt lat="44.77389" lon="6.31618">
        <ele>2398.6</ele>
        <time>2024-08-12T12:01:27Z</time>
      </trkpt>
      <trkpt lat="44.77389" lon="6.31618">
        <ele>2398.8</ele>
        <time>2024-08-12T12:01:28Z</time>
      </trkpt>
      <trkpt lat="44.77391" lon="6.31616">
        <ele>2399</ele>
        <time>2024-08-12T12:01:29Z</time>
      </trkpt>
      <trkpt lat="44.77391" lon="6.31616">
        <ele>2399.2</ele>
        <time>2024-08-12T12:01:30Z</time>
      </trkpt>
      <trkpt lat="44.77391" lon="6.31616">
        <ele>2399.4</ele>
        <time>2024-08-12T12:01:31Z</time>
      </trkpt>
      <trkpt lat="44.77392" lon="6.31614">
        <ele>2399.6</ele>
        <time>2024-08-12T12:01:32Z</time>
      </trkpt>
      <trkpt lat="44.77392" lon="6.31614">
        <ele>2399.6</ele>
        <time>2024-08-12T12:01:33Z</time>
      </trkpt>
      <trkpt lat="44.77392" lon="6.31614">
        <ele>2399.8</ele>
        <time>2024-08-12T12:01:34Z</time>
      </trkpt>
      <trkpt lat="44.77393" lon="6.3161">
        <ele>2399.8</ele>
        <time>2024-08-12T12:01:35Z</time>
      </trkpt>
      <trkpt lat="44.77393" lon="6.3161">
        <ele>2400.2</ele>
        <time>2024-08-12T12:01:36Z</time>
      </trkpt>
      <trkpt lat="44.77393" lon="6.31607">
        <ele>2400.4</ele>
        <time>2024-08-12T12:01:37Z</time>
      </trkpt>
      <trkpt lat="44.77393" lon="6.31607">
        <ele>2400.4</ele>
        <time>2024-08-12T12:01:38Z</time>
      </trkpt>
      <trkpt lat="44.77393" lon="6.31605">
        <ele>2400.6</ele>
        <time>2024-08-12T12:01:39Z</time>
      </trkpt>
      <trkpt lat="44.77393" lon="6.31605">
        <ele>2400.8</ele>
        <time>2024-08-12T12:01:40Z</time>
      </trkpt>
      <trkpt lat="44.77393" lon="6.31605">
        <ele>2400.8</ele>
        <time>2024-08-12T12:01:41Z</time>
      </trkpt>
      <trkpt lat="44.77394" lon="6.31602">
        <ele>2401</ele>
        <time>2024-08-12T12:01:42Z</time>
      </trkpt>
      <trkpt lat="44.77394" lon="6.31602">
        <ele>2401</ele>
        <time>2024-08-12T12:01:43Z</time>
      </trkpt>
      <trkpt lat="44.77394" lon="6.31602">
        <ele>2401</ele>
        <time>2024-08-12T12:01:44Z</time>
      </trkpt>
      <trkpt lat="44.77393" lon="6.31599">
        <ele>2401.2</ele>
        <time>2024-08-12T12:01:45Z</time>
      </trkpt>
      <trkpt lat="44.77393" lon="6.31599">
        <ele>2401.6</ele>
        <time>2024-08-12T12:01:46Z</time>
      </trkpt>
      <trkpt lat="44.77393" lon="6.31599">
        <ele>2401.8</ele>
        <time>2024-08-12T12:01:47Z</time>
      </trkpt>
      <trkpt lat="44.77393" lon="6.31599">
        <ele>2402</ele>
        <time>2024-08-12T12:01:48Z</time>
      </trkpt>
      <trkpt lat="44.77394" lon="6.31596">
        <ele>2402</ele>
        <time>2024-08-12T12:01:49Z</time>
      </trkpt>
      <trkpt lat="44.77394" lon="6.31596">
        <ele>2402.2</ele>
        <time>2024-08-12T12:01:50Z</time>
      </trkpt>
      <trkpt lat="44.77394" lon="6.31596">
        <ele>2402.4</ele>
        <time>2024-08-12T12:01:51Z</time>
      </trkpt>
      <trkpt lat="44.77396" lon="6.31594">
        <ele>2402.6</ele>
        <time>2024-08-12T12:01:52Z</time>
      </trkpt>
      <trkpt lat="44.77396" lon="6.31594">
        <ele>2402.6</ele>
        <time>2024-08-12T12:01:53Z</time>
      </trkpt>
      <trkpt lat="44.77396" lon="6.31594">
        <ele>2403</ele>
        <time>2024-08-12T12:01:54Z</time>
      </trkpt>
      <trkpt lat="44.77396" lon="6.31594">
        <ele>2403.2</ele>
        <time>2024-08-12T12:01:55Z</time>
      </trkpt>
      <trkpt lat="44.77396" lon="6.31591">
        <ele>2403.4</ele>
        <time>2024-08-12T12:01:56Z</time>
      </trkpt>
      <trkpt lat="44.77396" lon="6.31591">
        <ele>2403.6</ele>
        <time>2024-08-12T12:01:57Z</time>
      </trkpt>
      <trkpt lat="44.77396" lon="6.31591">
        <ele>2403.6</ele>
        <time>2024-08-12T12:01:58Z</time>
      </trkpt>
      <trkpt lat="44.77395" lon="6.31589">
        <ele>2404</ele>
        <time>2024-08-12T12:01:59Z</time>
      </trkpt>
      <trkpt lat="44.77395" lon="6.31589">
        <ele>2404</ele>
        <time>2024-08-12T12:02:00Z</time>
      </trkpt>
      <trkpt lat="44.77395" lon="6.31589">
        <ele>2404</ele>
        <time>2024-08-12T12:02:01Z</time>
      </trkpt>
      <trkpt lat="44.77395" lon="6.31589">
        <ele>2404</ele>
        <time>2024-08-12T12:02:02Z</time>
      </trkpt>
      <trkpt lat="44.77394" lon="6.31586">
        <ele>2404</ele>
        <time>2024-08-12T12:02:03Z</time>
      </trkpt>
      <trkpt lat="44.77394" lon="6.31586">
        <ele>2404.2</ele>
        <time>2024-08-12T12:02:04Z</time>
      </trkpt>
      <trkpt lat="44.77394" lon="6.31586">
        <ele>2404.2</ele>
        <time>2024-08-12T12:02:05Z</time>
      </trkpt>
      <trkpt lat="44.77395" lon="6.31584">
        <ele>2404.2</ele>
        <time>2024-08-12T12:02:06Z</time>
      </trkpt>
      <trkpt lat="44.77395" lon="6.31584">
        <ele>2404.6</ele>
        <time>2024-08-12T12:02:07Z</time>
      </trkpt>
      <trkpt lat="44.77395" lon="6.31584">
        <ele>2404.8</ele>
        <time>2024-08-12T12:02:08Z</time>
      </trkpt>
      <trkpt lat="44.77395" lon="6.31584">
        <ele>2405.2</ele>
        <time>2024-08-12T12:02:09Z</time>
      </trkpt>
      <trkpt lat="44.77396" lon="6.31582">
        <ele>2405.4</ele>
        <time>2024-08-12T12:02:10Z</time>
      </trkpt>
      <trkpt lat="44.77396" lon="6.31582">
        <ele>2405.4</ele>
        <time>2024-08-12T12:02:11Z</time>
      </trkpt>
      <trkpt lat="44.77396" lon="6.31582">
        <ele>2405.6</ele>
        <time>2024-08-12T12:02:12Z</time>
      </trkpt>
      <trkpt lat="44.77395" lon="6.31579">
        <ele>2405.8</ele>
        <time>2024-08-12T12:02:13Z</time>
      </trkpt>
      <trkpt lat="44.77395" lon="6.31579">
        <ele>2406</ele>
        <time>2024-08-12T12:02:14Z</time>
      </trkpt>
      <trkpt lat="44.77395" lon="6.31579">
        <ele>2406</ele>
        <time>2024-08-12T12:02:15Z</time>
      </trkpt>
      <trkpt lat="44.77395" lon="6.31579">
        <ele>2406.2</ele>
        <time>2024-08-12T12:02:16Z</time>
      </trkpt>
      <trkpt lat="44.77395" lon="6.31576">
        <ele>2406.4</ele>
        <time>2024-08-12T12:02:17Z</time>
      </trkpt>
      <trkpt lat="44.77395" lon="6.31576">
        <ele>2406.8</ele>
        <time>2024-08-12T12:02:18Z</time>
      </trkpt>
      <trkpt lat="44.77395" lon="6.31576">
        <ele>2406.8</ele>
        <time>2024-08-12T12:02:19Z</time>
      </trkpt>
      <trkpt lat="44.77395" lon="6.31573">
        <ele>2407</ele>
        <time>2024-08-12T12:02:20Z</time>
      </trkpt>
      <trkpt lat="44.77395" lon="6.31573">
        <ele>2407</ele>
        <time>2024-08-12T12:02:21Z</time>
      </trkpt>
      <trkpt lat="44.77395" lon="6.31573">
        <ele>2407</ele>
        <time>2024-08-12T12:02:22Z</time>
      </trkpt>
      <trkpt lat="44.77395" lon="6.31571">
        <ele>2407.4</ele>
        <time>2024-08-12T12:02:23Z</time>
      </trkpt>
      <trkpt lat="44.77395" lon="6.31571">
        <ele>2407.6</ele>
        <time>2024-08-12T12:02:24Z</time>
      </trkpt>
      <trkpt lat="44.77395" lon="6.31571">
        <ele>2407.6</ele>
        <time>2024-08-12T12:02:25Z</time>
      </trkpt>
      <trkpt lat="44.77395" lon="6.31568">
        <ele>2407.6</ele>
        <time>2024-08-12T12:02:26Z</time>
      </trkpt>
      <trkpt lat="44.77395" lon="6.31568">
        <ele>2407.8</ele>
        <time>2024-08-12T12:02:27Z</time>
      </trkpt>
      <trkpt lat="44.77395" lon="6.31568">
        <ele>2407.8</ele>
        <time>2024-08-12T12:02:28Z</time>
      </trkpt>
      <trkpt lat="44.77395" lon="6.31564">
        <ele>2408.2</ele>
        <time>2024-08-12T12:02:29Z</time>
      </trkpt>
      <trkpt lat="44.77395" lon="6.31564">
        <ele>2408.4</ele>
        <time>2024-08-12T12:02:30Z</time>
      </trkpt>
      <trkpt lat="44.77395" lon="6.31564">
        <ele>2408.6</ele>
        <time>2024-08-12T12:02:31Z</time>
      </trkpt>
      <trkpt lat="44.77395" lon="6.31564">
        <ele>2408.8</ele>
        <time>2024-08-12T12:02:32Z</time>
      </trkpt>
      <trkpt lat="44.77395" lon="6.31561">
        <ele>2408.8</ele>
        <time>2024-08-12T12:02:33Z</time>
      </trkpt>
      <trkpt lat="44.77395" lon="6.31561">
        <ele>2409</ele>
        <time>2024-08-12T12:02:34Z</time>
      </trkpt>
      <trkpt lat="44.77395" lon="6.31561">
        <ele>2409</ele>
        <time>2024-08-12T12:02:35Z</time>
      </trkpt>
      <trkpt lat="44.77395" lon="6.31559">
        <ele>2409</ele>
        <time>2024-08-12T12:02:36Z</time>
      </trkpt>
      <trkpt lat="44.77395" lon="6.31559">
        <ele>2409.2</ele>
        <time>2024-08-12T12:02:37Z</time>
      </trkpt>
      <trkpt lat="44.77395" lon="6.31559">
        <ele>2409.2</ele>
        <time>2024-08-12T12:02:38Z</time>
      </trkpt>
      <trkpt lat="44.77395" lon="6.31559">
        <ele>2409.2</ele>
        <time>2024-08-12T12:02:39Z</time>
      </trkpt>
      <trkpt lat="44.77395" lon="6.31559">
        <ele>2409.4</ele>
        <time>2024-08-12T12:02:40Z</time>
      </trkpt>
      <trkpt lat="44.77395" lon="6.31559">
        <ele>2409.4</ele>
        <time>2024-08-12T12:02:41Z</time>
      </trkpt>
      <trkpt lat="44.77395" lon="6.31559">
        <ele>2409.4</ele>
        <time>2024-08-12T12:02:42Z</time>
      </trkpt>
      <trkpt lat="44.77395" lon="6.31559">
        <ele>2409.4</ele>
        <time>2024-08-12T12:02:43Z</time>
      </trkpt>
      <trkpt lat="44.77395" lon="6.31559">
        <ele>2409.4</ele>
        <time>2024-08-12T12:02:44Z</time>
      </trkpt>
      <trkpt lat="44.77395" lon="6.31559">
        <ele>2409.6</ele>
        <time>2024-08-12T12:02:45Z</time>
      </trkpt>
      <trkpt lat="44.77395" lon="6.31559">
        <ele>2410</ele>
        <time>2024-08-12T12:02:46Z</time>
      </trkpt>
      <trkpt lat="44.77395" lon="6.31559">
        <ele>2410</ele>
        <time>2024-08-12T12:02:47Z</time>
      </trkpt>
      <trkpt lat="44.77395" lon="6.31559">
        <ele>2410</ele>
        <time>2024-08-12T12:02:48Z</time>
      </trkpt>
      <trkpt lat="44.77395" lon="6.31559">
        <ele>2410.2</ele>
        <time>2024-08-12T12:02:49Z</time>
      </trkpt>
      <trkpt lat="44.77395" lon="6.31556">
        <ele>2410.2</ele>
        <time>2024-08-12T12:02:50Z</time>
      </trkpt>
      <trkpt lat="44.77395" lon="6.31556">
        <ele>2410.2</ele>
        <time>2024-08-12T12:02:51Z</time>
      </trkpt>
      <trkpt lat="44.77395" lon="6.31553">
        <ele>2410.2</ele>
        <time>2024-08-12T12:02:52Z</time>
      </trkpt>
      <trkpt lat="44.77395" lon="6.31553">
        <ele>2410.2</ele>
        <time>2024-08-12T12:02:53Z</time>
      </trkpt>
      <trkpt lat="44.77395" lon="6.31549">
        <ele>2410.4</ele>
        <time>2024-08-12T12:02:54Z</time>
      </trkpt>
      <trkpt lat="44.77395" lon="6.31549">
        <ele>2410.6</ele>
        <time>2024-08-12T12:02:55Z</time>
      </trkpt>
      <trkpt lat="44.77395" lon="6.31546">
        <ele>2410.8</ele>
        <time>2024-08-12T12:02:56Z</time>
      </trkpt>
      <trkpt lat="44.77395" lon="6.31546">
        <ele>2411</ele>
        <time>2024-08-12T12:02:57Z</time>
      </trkpt>
      <trkpt lat="44.77395" lon="6.31546">
        <ele>2411</ele>
        <time>2024-08-12T12:02:58Z</time>
      </trkpt>
      <trkpt lat="44.77396" lon="6.31543">
        <ele>2411</ele>
        <time>2024-08-12T12:02:59Z</time>
      </trkpt>
      <trkpt lat="44.77396" lon="6.31543">
        <ele>2411.6</ele>
        <time>2024-08-12T12:03:00Z</time>
      </trkpt>
      <trkpt lat="44.77396" lon="6.31543">
        <ele>2411.8</ele>
        <time>2024-08-12T12:03:01Z</time>
      </trkpt>
      <trkpt lat="44.77396" lon="6.3154">
        <ele>2412</ele>
        <time>2024-08-12T12:03:02Z</time>
      </trkpt>
      <trkpt lat="44.77396" lon="6.3154">
        <ele>2412</ele>
        <time>2024-08-12T12:03:03Z</time>
      </trkpt>
      <trkpt lat="44.77396" lon="6.3154">
        <ele>2412.2</ele>
        <time>2024-08-12T12:03:04Z</time>
      </trkpt>
      <trkpt lat="44.77396" lon="6.3154">
        <ele>2412.2</ele>
        <time>2024-08-12T12:03:05Z</time>
      </trkpt>
      <trkpt lat="44.77396" lon="6.3154">
        <ele>2412.4</ele>
        <time>2024-08-12T12:03:06Z</time>
      </trkpt>
      <trkpt lat="44.77397" lon="6.31537">
        <ele>2412.8</ele>
        <time>2024-08-12T12:03:07Z</time>
      </trkpt>
      <trkpt lat="44.77397" lon="6.31537">
        <ele>2413</ele>
        <time>2024-08-12T12:03:08Z</time>
      </trkpt>
      <trkpt lat="44.77397" lon="6.31537">
        <ele>2413</ele>
        <time>2024-08-12T12:03:09Z</time>
      </trkpt>
      <trkpt lat="44.77396" lon="6.31534">
        <ele>2413.2</ele>
        <time>2024-08-12T12:03:10Z</time>
      </trkpt>
      <trkpt lat="44.77396" lon="6.31534">
        <ele>2413.2</ele>
        <time>2024-08-12T12:03:11Z</time>
      </trkpt>
      <trkpt lat="44.77396" lon="6.31534">
        <ele>2413.2</ele>
        <time>2024-08-12T12:03:12Z</time>
      </trkpt>
      <trkpt lat="44.77396" lon="6.31531">
        <ele>2413.8</ele>
        <time>2024-08-12T12:03:13Z</time>
      </trkpt>
      <trkpt lat="44.77396" lon="6.31531">
        <ele>2414.2</ele>
        <time>2024-08-12T12:03:14Z</time>
      </trkpt>
      <trkpt lat="44.77396" lon="6.31531">
        <ele>2414.2</ele>
        <time>2024-08-12T12:03:15Z</time>
      </trkpt>
      <trkpt lat="44.77396" lon="6.31528">
        <ele>2414.4</ele>
        <time>2024-08-12T12:03:16Z</time>
      </trkpt>
      <trkpt lat="44.77396" lon="6.31528">
        <ele>2414.6</ele>
        <time>2024-08-12T12:03:17Z</time>
      </trkpt>
      <trkpt lat="44.77396" lon="6.31528">
        <ele>2414.8</ele>
        <time>2024-08-12T12:03:18Z</time>
      </trkpt>
      <trkpt lat="44.77396" lon="6.31526">
        <ele>2415.2</ele>
        <time>2024-08-12T12:03:19Z</time>
      </trkpt>
      <trkpt lat="44.77396" lon="6.31526">
        <ele>2415.2</ele>
        <time>2024-08-12T12:03:20Z</time>
      </trkpt>
      <trkpt lat="44.77396" lon="6.31526">
        <ele>2415.4</ele>
        <time>2024-08-12T12:03:21Z</time>
      </trkpt>
      <trkpt lat="44.77395" lon="6.31523">
        <ele>2415.4</ele>
        <time>2024-08-12T12:03:22Z</time>
      </trkpt>
      <trkpt lat="44.77395" lon="6.31523">
        <ele>2415.4</ele>
        <time>2024-08-12T12:03:23Z</time>
      </trkpt>
      <trkpt lat="44.77395" lon="6.31523">
        <ele>2415.6</ele>
        <time>2024-08-12T12:03:24Z</time>
      </trkpt>
      <trkpt lat="44.77395" lon="6.3152">
        <ele>2415.6</ele>
        <time>2024-08-12T12:03:25Z</time>
      </trkpt>
      <trkpt lat="44.77395" lon="6.3152">
        <ele>2415.8</ele>
        <time>2024-08-12T12:03:26Z</time>
      </trkpt>
      <trkpt lat="44.77395" lon="6.3152">
        <ele>2416</ele>
        <time>2024-08-12T12:03:27Z</time>
      </trkpt>
      <trkpt lat="44.77393" lon="6.31518">
        <ele>2416.2</ele>
        <time>2024-08-12T12:03:28Z</time>
      </trkpt>
      <trkpt lat="44.77393" lon="6.31518">
        <ele>2416.2</ele>
        <time>2024-08-12T12:03:29Z</time>
      </trkpt>
      <trkpt lat="44.77393" lon="6.31518">
        <ele>2416.4</ele>
        <time>2024-08-12T12:03:30Z</time>
      </trkpt>
      <trkpt lat="44.77393" lon="6.31515">
        <ele>2416.8</ele>
        <time>2024-08-12T12:03:31Z</time>
      </trkpt>
      <trkpt lat="44.77393" lon="6.31515">
        <ele>2417</ele>
        <time>2024-08-12T12:03:32Z</time>
      </trkpt>
      <trkpt lat="44.77393" lon="6.31515">
        <ele>2417.2</ele>
        <time>2024-08-12T12:03:33Z</time>
      </trkpt>
      <trkpt lat="44.77393" lon="6.31512">
        <ele>2417.4</ele>
        <time>2024-08-12T12:03:34Z</time>
      </trkpt>
      <trkpt lat="44.77393" lon="6.31512">
        <ele>2417.6</ele>
        <time>2024-08-12T12:03:35Z</time>
      </trkpt>
      <trkpt lat="44.77393" lon="6.31512">
        <ele>2417.6</ele>
        <time>2024-08-12T12:03:36Z</time>
      </trkpt>
      <trkpt lat="44.77395" lon="6.31512">
        <ele>2417.6</ele>
        <time>2024-08-12T12:03:37Z</time>
      </trkpt>
      <trkpt lat="44.77395" lon="6.31512">
        <ele>2418.2</ele>
        <time>2024-08-12T12:03:38Z</time>
      </trkpt>
      <trkpt lat="44.77395" lon="6.31512">
        <ele>2418.4</ele>
        <time>2024-08-12T12:03:39Z</time>
      </trkpt>
      <trkpt lat="44.77397" lon="6.31514">
        <ele>2418.4</ele>
        <time>2024-08-12T12:03:40Z</time>
      </trkpt>
      <trkpt lat="44.77397" lon="6.31514">
        <ele>2418.6</ele>
        <time>2024-08-12T12:03:41Z</time>
      </trkpt>
      <trkpt lat="44.77397" lon="6.31514">
        <ele>2418.8</ele>
        <time>2024-08-12T12:03:42Z</time>
      </trkpt>
      <trkpt lat="44.77399" lon="6.31516">
        <ele>2418.8</ele>
        <time>2024-08-12T12:03:43Z</time>
      </trkpt>
      <trkpt lat="44.77399" lon="6.31516">
        <ele>2419</ele>
        <time>2024-08-12T12:03:44Z</time>
      </trkpt>
      <trkpt lat="44.77399" lon="6.31516">
        <ele>2419</ele>
        <time>2024-08-12T12:03:45Z</time>
      </trkpt>
      <trkpt lat="44.77399" lon="6.31516">
        <ele>2419.6</ele>
        <time>2024-08-12T12:03:46Z</time>
      </trkpt>
      <trkpt lat="44.774" lon="6.31519">
        <ele>2419.8</ele>
        <time>2024-08-12T12:03:47Z</time>
      </trkpt>
      <trkpt lat="44.774" lon="6.31519">
        <ele>2420</ele>
        <time>2024-08-12T12:03:48Z</time>
      </trkpt>
      <trkpt lat="44.774" lon="6.31519">
        <ele>2420</ele>
        <time>2024-08-12T12:03:49Z</time>
      </trkpt>
      <trkpt lat="44.77402" lon="6.3152">
        <ele>2420</ele>
        <time>2024-08-12T12:03:50Z</time>
      </trkpt>
      <trkpt lat="44.77402" lon="6.3152">
        <ele>2420.2</ele>
        <time>2024-08-12T12:03:51Z</time>
      </trkpt>
      <trkpt lat="44.77404" lon="6.31522">
        <ele>2420.2</ele>
        <time>2024-08-12T12:03:52Z</time>
      </trkpt>
      <trkpt lat="44.77404" lon="6.31522">
        <ele>2420.2</ele>
        <time>2024-08-12T12:03:53Z</time>
      </trkpt>
      <trkpt lat="44.77404" lon="6.31522">
        <ele>2420.2</ele>
        <time>2024-08-12T12:03:54Z</time>
      </trkpt>
      <trkpt lat="44.77404" lon="6.31522">
        <ele>2420.2</ele>
        <time>2024-08-12T12:03:55Z</time>
      </trkpt>
      <trkpt lat="44.77404" lon="6.31522">
        <ele>2420.4</ele>
        <time>2024-08-12T12:03:56Z</time>
      </trkpt>
      <trkpt lat="44.77404" lon="6.31522">
        <ele>2420.4</ele>
        <time>2024-08-12T12:03:57Z</time>
      </trkpt>
      <trkpt lat="44.77404" lon="6.31522">
        <ele>2420.4</ele>
        <time>2024-08-12T12:03:58Z</time>
      </trkpt>
      <trkpt lat="44.77405" lon="6.31519">
        <ele>2420.2</ele>
        <time>2024-08-12T12:03:59Z</time>
      </trkpt>
      <trkpt lat="44.77405" lon="6.31519">
        <ele>2420.2</ele>
        <time>2024-08-12T12:04:00Z</time>
      </trkpt>
      <trkpt lat="44.77405" lon="6.31519">
        <ele>2420</ele>
        <time>2024-08-12T12:04:01Z</time>
      </trkpt>
      <trkpt lat="44.77405" lon="6.31519">
        <ele>2420</ele>
        <time>2024-08-12T12:04:02Z</time>
      </trkpt>
      <trkpt lat="44.77405" lon="6.31519">
        <ele>2420</ele>
        <time>2024-08-12T12:04:03Z</time>
      </trkpt>
      <trkpt lat="44.77405" lon="6.31519">
        <ele>2420</ele>
        <time>2024-08-12T12:04:04Z</time>
      </trkpt>
      <trkpt lat="44.77405" lon="6.31519">
        <ele>2420.2</ele>
        <time>2024-08-12T12:04:05Z</time>
      </trkpt>
      <trkpt lat="44.77405" lon="6.31519">
        <ele>2420.4</ele>
        <time>2024-08-12T12:04:06Z</time>
      </trkpt>
      <trkpt lat="44.77405" lon="6.31519">
        <ele>2420.4</ele>
        <time>2024-08-12T12:04:07Z</time>
      </trkpt>
      <trkpt lat="44.77405" lon="6.31519">
        <ele>2420.4</ele>
        <time>2024-08-12T12:04:08Z</time>
      </trkpt>
      <trkpt lat="44.77405" lon="6.31519">
        <ele>2420.6</ele>
        <time>2024-08-12T12:04:09Z</time>
      </trkpt>
      <trkpt lat="44.77404" lon="6.31516">
        <ele>2420.8</ele>
        <time>2024-08-12T12:04:10Z</time>
      </trkpt>
      <trkpt lat="44.77404" lon="6.31516">
        <ele>2420.8</ele>
        <time>2024-08-12T12:04:11Z</time>
      </trkpt>
      <trkpt lat="44.77403" lon="6.31512">
        <ele>2420.8</ele>
        <time>2024-08-12T12:04:12Z</time>
      </trkpt>
      <trkpt lat="44.77403" lon="6.31512">
        <ele>2421</ele>
        <time>2024-08-12T12:04:13Z</time>
      </trkpt>
      <trkpt lat="44.77403" lon="6.31508">
        <ele>2421.2</ele>
        <time>2024-08-12T12:04:14Z</time>
      </trkpt>
      <trkpt lat="44.77403" lon="6.31508">
        <ele>2421.4</ele>
        <time>2024-08-12T12:04:15Z</time>
      </trkpt>
      <trkpt lat="44.77402" lon="6.31505">
        <ele>2421.4</ele>
        <time>2024-08-12T12:04:16Z</time>
      </trkpt>
      <trkpt lat="44.77402" lon="6.31505">
        <ele>2422.2</ele>
        <time>2024-08-12T12:04:17Z</time>
      </trkpt>
      <trkpt lat="44.77402" lon="6.31505">
        <ele>2422.8</ele>
        <time>2024-08-12T12:04:18Z</time>
      </trkpt>
      <trkpt lat="44.77402" lon="6.31502">
        <ele>2422.8</ele>
        <time>2024-08-12T12:04:19Z</time>
      </trkpt>
      <trkpt lat="44.77402" lon="6.31502">
        <ele>2423.2</ele>
        <time>2024-08-12T12:04:20Z</time>
      </trkpt>
      <trkpt lat="44.77402" lon="6.31502">
        <ele>2423.6</ele>
        <time>2024-08-12T12:04:21Z</time>
      </trkpt>
      <trkpt lat="44.77402" lon="6.31502">
        <ele>2424.2</ele>
        <time>2024-08-12T12:04:22Z</time>
      </trkpt>
      <trkpt lat="44.77403" lon="6.31499">
        <ele>2424.4</ele>
        <time>2024-08-12T12:04:23Z</time>
      </trkpt>
      <trkpt lat="44.77403" lon="6.31499">
        <ele>2424.6</ele>
        <time>2024-08-12T12:04:24Z</time>
      </trkpt>
      <trkpt lat="44.77403" lon="6.31499">
        <ele>2424.8</ele>
        <time>2024-08-12T12:04:25Z</time>
      </trkpt>
      <trkpt lat="44.77403" lon="6.31499">
        <ele>2425</ele>
        <time>2024-08-12T12:04:26Z</time>
      </trkpt>
      <trkpt lat="44.77403" lon="6.31499">
        <ele>2425.2</ele>
        <time>2024-08-12T12:04:27Z</time>
      </trkpt>
      <trkpt lat="44.77402" lon="6.31496">
        <ele>2425.6</ele>
        <time>2024-08-12T12:04:28Z</time>
      </trkpt>
      <trkpt lat="44.77402" lon="6.31496">
        <ele>2426</ele>
        <time>2024-08-12T12:04:29Z</time>
      </trkpt>
      <trkpt lat="44.77402" lon="6.31496">
        <ele>2426</ele>
        <time>2024-08-12T12:04:30Z</time>
      </trkpt>
      <trkpt lat="44.77402" lon="6.31496">
        <ele>2426.2</ele>
        <time>2024-08-12T12:04:31Z</time>
      </trkpt>
      <trkpt lat="44.77402" lon="6.31496">
        <ele>2426.4</ele>
        <time>2024-08-12T12:04:32Z</time>
      </trkpt>
      <trkpt lat="44.77402" lon="6.31496">
        <ele>2426.4</ele>
        <time>2024-08-12T12:04:33Z</time>
      </trkpt>
      <trkpt lat="44.77402" lon="6.31496">
        <ele>2426.4</ele>
        <time>2024-08-12T12:04:34Z</time>
      </trkpt>
      <trkpt lat="44.77402" lon="6.31496">
        <ele>2426.8</ele>
        <time>2024-08-12T12:04:35Z</time>
      </trkpt>
      <trkpt lat="44.77402" lon="6.31496">
        <ele>2426.8</ele>
        <time>2024-08-12T12:04:36Z</time>
      </trkpt>
      <trkpt lat="44.77402" lon="6.31496">
        <ele>2426.8</ele>
        <time>2024-08-12T12:04:37Z</time>
      </trkpt>
      <trkpt lat="44.77402" lon="6.31496">
        <ele>2426.6</ele>
        <time>2024-08-12T12:04:38Z</time>
      </trkpt>
      <trkpt lat="44.77402" lon="6.31496">
        <ele>2426.2</ele>
        <time>2024-08-12T12:04:39Z</time>
      </trkpt>
      <trkpt lat="44.77401" lon="6.31493">
        <ele>2426.2</ele>
        <time>2024-08-12T12:04:40Z</time>
      </trkpt>
      <trkpt lat="44.77401" lon="6.31493">
        <ele>2426.4</ele>
        <time>2024-08-12T12:04:41Z</time>
      </trkpt>
      <trkpt lat="44.77401" lon="6.31493">
        <ele>2426.4</ele>
        <time>2024-08-12T12:04:42Z</time>
      </trkpt>
      <trkpt lat="44.77401" lon="6.31493">
        <ele>2426.4</ele>
        <time>2024-08-12T12:04:43Z</time>
      </trkpt>
      <trkpt lat="44.77401" lon="6.31493">
        <ele>2426.4</ele>
        <time>2024-08-12T12:04:44Z</time>
      </trkpt>
      <trkpt lat="44.77404" lon="6.31492">
        <ele>2426.6</ele>
        <time>2024-08-12T12:04:45Z</time>
      </trkpt>
      <trkpt lat="44.77404" lon="6.31492">
        <ele>2426.8</ele>
        <time>2024-08-12T12:04:46Z</time>
      </trkpt>
      <trkpt lat="44.77405" lon="6.31494">
        <ele>2426.8</ele>
        <time>2024-08-12T12:04:47Z</time>
      </trkpt>
      <trkpt lat="44.77405" lon="6.31494">
        <ele>2426.8</ele>
        <time>2024-08-12T12:04:48Z</time>
      </trkpt>
      <trkpt lat="44.77406" lon="6.31497">
        <ele>2426.8</ele>
        <time>2024-08-12T12:04:49Z</time>
      </trkpt>
      <trkpt lat="44.77406" lon="6.31497">
        <ele>2426.6</ele>
        <time>2024-08-12T12:04:50Z</time>
      </trkpt>
      <trkpt lat="44.77406" lon="6.31497">
        <ele>2426.6</ele>
        <time>2024-08-12T12:04:51Z</time>
      </trkpt>
      <trkpt lat="44.77406" lon="6.31497">
        <ele>2426.8</ele>
        <time>2024-08-12T12:04:52Z</time>
      </trkpt>
      <trkpt lat="44.77406" lon="6.31497">
        <ele>2426.8</ele>
        <time>2024-08-12T12:04:53Z</time>
      </trkpt>
      <trkpt lat="44.77406" lon="6.31497">
        <ele>2426.8</ele>
        <time>2024-08-12T12:04:54Z</time>
      </trkpt>
      <trkpt lat="44.77406" lon="6.31497">
        <ele>2426.8</ele>
        <time>2024-08-12T12:04:55Z</time>
      </trkpt>
      <trkpt lat="44.77406" lon="6.31497">
        <ele>2426.2</ele>
        <time>2024-08-12T12:04:56Z</time>
      </trkpt>
      <trkpt lat="44.77406" lon="6.31497">
        <ele>2426</ele>
        <time>2024-08-12T12:04:57Z</time>
      </trkpt>
      <trkpt lat="44.77408" lon="6.31497">
        <ele>2426</ele>
        <time>2024-08-12T12:04:58Z</time>
      </trkpt>
      <trkpt lat="44.77408" lon="6.31497">
        <ele>2426.2</ele>
        <time>2024-08-12T12:04:59Z</time>
      </trkpt>
      <trkpt lat="44.77408" lon="6.31497">
        <ele>2426.4</ele>
        <time>2024-08-12T12:05:00Z</time>
      </trkpt>
      <trkpt lat="44.77408" lon="6.31497">
        <ele>2426.6</ele>
        <time>2024-08-12T12:05:01Z</time>
      </trkpt>
      <trkpt lat="44.77408" lon="6.31493">
        <ele>2427</ele>
        <time>2024-08-12T12:05:02Z</time>
      </trkpt>
      <trkpt lat="44.77408" lon="6.31493">
        <ele>2427</ele>
        <time>2024-08-12T12:05:03Z</time>
      </trkpt>
      <trkpt lat="44.77408" lon="6.31493">
        <ele>2427</ele>
        <time>2024-08-12T12:05:04Z</time>
      </trkpt>
      <trkpt lat="44.77408" lon="6.31493">
        <ele>2427.2</ele>
        <time>2024-08-12T12:05:05Z</time>
      </trkpt>
      <trkpt lat="44.77408" lon="6.31493">
        <ele>2427.4</ele>
        <time>2024-08-12T12:05:06Z</time>
      </trkpt>
      <trkpt lat="44.77408" lon="6.31493">
        <ele>2427.6</ele>
        <time>2024-08-12T12:05:07Z</time>
      </trkpt>
      <trkpt lat="44.77408" lon="6.31493">
        <ele>2427.6</ele>
        <time>2024-08-12T12:05:08Z</time>
      </trkpt>
      <trkpt lat="44.77408" lon="6.31493">
        <ele>2427.6</ele>
        <time>2024-08-12T12:05:09Z</time>
      </trkpt>
      <trkpt lat="44.77407" lon="6.31491">
        <ele>2427.8</ele>
        <time>2024-08-12T12:05:10Z</time>
      </trkpt>
      <trkpt lat="44.77407" lon="6.31491">
        <ele>2428</ele>
        <time>2024-08-12T12:05:11Z</time>
      </trkpt>
      <trkpt lat="44.77406" lon="6.31487">
        <ele>2428.2</ele>
        <time>2024-08-12T12:05:12Z</time>
      </trkpt>
      <trkpt lat="44.77406" lon="6.31487">
        <ele>2428.2</ele>
        <time>2024-08-12T12:05:13Z</time>
      </trkpt>
      <trkpt lat="44.77405" lon="6.31483">
        <ele>2429.2</ele>
        <time>2024-08-12T12:05:14Z</time>
      </trkpt>
      <trkpt lat="44.77405" lon="6.31483">
        <ele>2429.2</ele>
        <time>2024-08-12T12:05:15Z</time>
      </trkpt>
      <trkpt lat="44.77404" lon="6.31479">
        <ele>2429.4</ele>
        <time>2024-08-12T12:05:16Z</time>
      </trkpt>
      <trkpt lat="44.77404" lon="6.31479">
        <ele>2429.4</ele>
        <time>2024-08-12T12:05:17Z</time>
      </trkpt>
      <trkpt lat="44.77403" lon="6.31476">
        <ele>2429.6</ele>
        <time>2024-08-12T12:05:18Z</time>
      </trkpt>
      <trkpt lat="44.77403" lon="6.31476">
        <ele>2429.6</ele>
        <time>2024-08-12T12:05:19Z</time>
      </trkpt>
      <trkpt lat="44.77403" lon="6.31474">
        <ele>2430</ele>
        <time>2024-08-12T12:05:20Z</time>
      </trkpt>
      <trkpt lat="44.77403" lon="6.31474">
        <ele>2430</ele>
        <time>2024-08-12T12:05:21Z</time>
      </trkpt>
      <trkpt lat="44.77403" lon="6.31474">
        <ele>2430</ele>
        <time>2024-08-12T12:05:22Z</time>
      </trkpt>
      <trkpt lat="44.77403" lon="6.31471">
        <ele>2430</ele>
        <time>2024-08-12T12:05:23Z</time>
      </trkpt>
      <trkpt lat="44.77403" lon="6.31471">
        <ele>2430</ele>
        <time>2024-08-12T12:05:24Z</time>
      </trkpt>
      <trkpt lat="44.77403" lon="6.31471">
        <ele>2430.2</ele>
        <time>2024-08-12T12:05:25Z</time>
      </trkpt>
      <trkpt lat="44.77404" lon="6.31468">
        <ele>2430.2</ele>
        <time>2024-08-12T12:05:26Z</time>
      </trkpt>
      <trkpt lat="44.77404" lon="6.31468">
        <ele>2430.2</ele>
        <time>2024-08-12T12:05:27Z</time>
      </trkpt>
      <trkpt lat="44.77404" lon="6.31468">
        <ele>2430.2</ele>
        <time>2024-08-12T12:05:28Z</time>
      </trkpt>
      <trkpt lat="44.77404" lon="6.31465">
        <ele>2430.6</ele>
        <time>2024-08-12T12:05:29Z</time>
      </trkpt>
      <trkpt lat="44.77404" lon="6.31465">
        <ele>2431</ele>
        <time>2024-08-12T12:05:30Z</time>
      </trkpt>
      <trkpt lat="44.77404" lon="6.31465">
        <ele>2431</ele>
        <time>2024-08-12T12:05:31Z</time>
      </trkpt>
      <trkpt lat="44.77405" lon="6.31462">
        <ele>2431.2</ele>
        <time>2024-08-12T12:05:32Z</time>
      </trkpt>
      <trkpt lat="44.77405" lon="6.31462">
        <ele>2431.4</ele>
        <time>2024-08-12T12:05:33Z</time>
      </trkpt>
      <trkpt lat="44.77405" lon="6.31462">
        <ele>2431.4</ele>
        <time>2024-08-12T12:05:34Z</time>
      </trkpt>
      <trkpt lat="44.77405" lon="6.31462">
        <ele>2431.4</ele>
        <time>2024-08-12T12:05:35Z</time>
      </trkpt>
      <trkpt lat="44.77405" lon="6.31462">
        <ele>2431.4</ele>
        <time>2024-08-12T12:05:36Z</time>
      </trkpt>
      <trkpt lat="44.77405" lon="6.31459">
        <ele>2431.6</ele>
        <time>2024-08-12T12:05:37Z</time>
      </trkpt>
      <trkpt lat="44.77405" lon="6.31459">
        <ele>2431.6</ele>
        <time>2024-08-12T12:05:38Z</time>
      </trkpt>
      <trkpt lat="44.77405" lon="6.31459">
        <ele>2431.6</ele>
        <time>2024-08-12T12:05:39Z</time>
      </trkpt>
      <trkpt lat="44.77406" lon="6.31457">
        <ele>2431.6</ele>
        <time>2024-08-12T12:05:40Z</time>
      </trkpt>
      <trkpt lat="44.77406" lon="6.31457">
        <ele>2431.6</ele>
        <time>2024-08-12T12:05:41Z</time>
      </trkpt>
      <trkpt lat="44.77406" lon="6.31457">
        <ele>2431.6</ele>
        <time>2024-08-12T12:05:42Z</time>
      </trkpt>
      <trkpt lat="44.77406" lon="6.31453">
        <ele>2432</ele>
        <time>2024-08-12T12:05:43Z</time>
      </trkpt>
      <trkpt lat="44.77406" lon="6.31453">
        <ele>2432</ele>
        <time>2024-08-12T12:05:44Z</time>
      </trkpt>
      <trkpt lat="44.77406" lon="6.31453">
        <ele>2432</ele>
        <time>2024-08-12T12:05:45Z</time>
      </trkpt>
      <trkpt lat="44.77407" lon="6.3145">
        <ele>2432.2</ele>
        <time>2024-08-12T12:05:46Z</time>
      </trkpt>
      <trkpt lat="44.77407" lon="6.3145">
        <ele>2432.4</ele>
        <time>2024-08-12T12:05:47Z</time>
      </trkpt>
      <trkpt lat="44.77407" lon="6.3145">
        <ele>2432.8</ele>
        <time>2024-08-12T12:05:48Z</time>
      </trkpt>
      <trkpt lat="44.77407" lon="6.3145">
        <ele>2433.6</ele>
        <time>2024-08-12T12:05:49Z</time>
      </trkpt>
      <trkpt lat="44.77407" lon="6.31447">
        <ele>2433.8</ele>
        <time>2024-08-12T12:05:50Z</time>
      </trkpt>
      <trkpt lat="44.77407" lon="6.31447">
        <ele>2434</ele>
        <time>2024-08-12T12:05:51Z</time>
      </trkpt>
      <trkpt lat="44.77407" lon="6.31447">
        <ele>2434.2</ele>
        <time>2024-08-12T12:05:52Z</time>
      </trkpt>
      <trkpt lat="44.77407" lon="6.31447">
        <ele>2434.4</ele>
        <time>2024-08-12T12:05:53Z</time>
      </trkpt>
      <trkpt lat="44.77406" lon="6.31445">
        <ele>2435.2</ele>
        <time>2024-08-12T12:05:54Z</time>
      </trkpt>
      <trkpt lat="44.77406" lon="6.31445">
        <ele>2435.2</ele>
        <time>2024-08-12T12:05:55Z</time>
      </trkpt>
      <trkpt lat="44.77406" lon="6.31445">
        <ele>2435</ele>
        <time>2024-08-12T12:05:56Z</time>
      </trkpt>
      <trkpt lat="44.77405" lon="6.31442">
        <ele>2435</ele>
        <time>2024-08-12T12:05:57Z</time>
      </trkpt>
      <trkpt lat="44.77405" lon="6.31442">
        <ele>2435</ele>
        <time>2024-08-12T12:05:58Z</time>
      </trkpt>
      <trkpt lat="44.77404" lon="6.3144">
        <ele>2434.8</ele>
        <time>2024-08-12T12:05:59Z</time>
      </trkpt>
      <trkpt lat="44.77404" lon="6.3144">
        <ele>2434.8</ele>
        <time>2024-08-12T12:06:00Z</time>
      </trkpt>
      <trkpt lat="44.77404" lon="6.3144">
        <ele>2434.8</ele>
        <time>2024-08-12T12:06:01Z</time>
      </trkpt>
      <trkpt lat="44.77403" lon="6.31437">
        <ele>2435.4</ele>
        <time>2024-08-12T12:06:02Z</time>
      </trkpt>
      <trkpt lat="44.77403" lon="6.31437">
        <ele>2435.4</ele>
        <time>2024-08-12T12:06:03Z</time>
      </trkpt>
      <trkpt lat="44.77403" lon="6.31437">
        <ele>2435.6</ele>
        <time>2024-08-12T12:06:04Z</time>
      </trkpt>
      <trkpt lat="44.77402" lon="6.31435">
        <ele>2435.8</ele>
        <time>2024-08-12T12:06:05Z</time>
      </trkpt>
      <trkpt lat="44.77402" lon="6.31435">
        <ele>2436</ele>
        <time>2024-08-12T12:06:06Z</time>
      </trkpt>
      <trkpt lat="44.77402" lon="6.31435">
        <ele>2436.2</ele>
        <time>2024-08-12T12:06:07Z</time>
      </trkpt>
      <trkpt lat="44.774" lon="6.31432">
        <ele>2436.4</ele>
        <time>2024-08-12T12:06:08Z</time>
      </trkpt>
      <trkpt lat="44.774" lon="6.31432">
        <ele>2436.4</ele>
        <time>2024-08-12T12:06:09Z</time>
      </trkpt>
      <trkpt lat="44.774" lon="6.31432">
        <ele>2436.6</ele>
        <time>2024-08-12T12:06:10Z</time>
      </trkpt>
      <trkpt lat="44.774" lon="6.3143">
        <ele>2436.8</ele>
        <time>2024-08-12T12:06:11Z</time>
      </trkpt>
      <trkpt lat="44.774" lon="6.3143">
        <ele>2437.2</ele>
        <time>2024-08-12T12:06:12Z</time>
      </trkpt>
      <trkpt lat="44.774" lon="6.3143">
        <ele>2437.4</ele>
        <time>2024-08-12T12:06:13Z</time>
      </trkpt>
      <trkpt lat="44.774" lon="6.3143">
        <ele>2437.6</ele>
        <time>2024-08-12T12:06:14Z</time>
      </trkpt>
      <trkpt lat="44.774" lon="6.31427">
        <ele>2437.8</ele>
        <time>2024-08-12T12:06:15Z</time>
      </trkpt>
      <trkpt lat="44.774" lon="6.31427">
        <ele>2437.8</ele>
        <time>2024-08-12T12:06:16Z</time>
      </trkpt>
      <trkpt lat="44.774" lon="6.31427">
        <ele>2437.8</ele>
        <time>2024-08-12T12:06:17Z</time>
      </trkpt>
      <trkpt lat="44.77399" lon="6.31424">
        <ele>2438</ele>
        <time>2024-08-12T12:06:18Z</time>
      </trkpt>
      <trkpt lat="44.77399" lon="6.31424">
        <ele>2438.2</ele>
        <time>2024-08-12T12:06:19Z</time>
      </trkpt>
      <trkpt lat="44.77399" lon="6.31424">
        <ele>2438.6</ele>
        <time>2024-08-12T12:06:20Z</time>
      </trkpt>
      <trkpt lat="44.77399" lon="6.31421">
        <ele>2439</ele>
        <time>2024-08-12T12:06:21Z</time>
      </trkpt>
      <trkpt lat="44.77399" lon="6.31421">
        <ele>2439.2</ele>
        <time>2024-08-12T12:06:22Z</time>
      </trkpt>
      <trkpt lat="44.77399" lon="6.31421">
        <ele>2439.2</ele>
        <time>2024-08-12T12:06:23Z</time>
      </trkpt>
      <trkpt lat="44.77399" lon="6.31419">
        <ele>2439.2</ele>
        <time>2024-08-12T12:06:24Z</time>
      </trkpt>
      <trkpt lat="44.77399" lon="6.31419">
        <ele>2439.6</ele>
        <time>2024-08-12T12:06:25Z</time>
      </trkpt>
      <trkpt lat="44.77399" lon="6.31419">
        <ele>2439.6</ele>
        <time>2024-08-12T12:06:26Z</time>
      </trkpt>
      <trkpt lat="44.77399" lon="6.31416">
        <ele>2439.8</ele>
        <time>2024-08-12T12:06:27Z</time>
      </trkpt>
      <trkpt lat="44.77399" lon="6.31416">
        <ele>2440.2</ele>
        <time>2024-08-12T12:06:28Z</time>
      </trkpt>
      <trkpt lat="44.77399" lon="6.31416">
        <ele>2440.4</ele>
        <time>2024-08-12T12:06:29Z</time>
      </trkpt>
      <trkpt lat="44.77399" lon="6.31413">
        <ele>2440.4</ele>
        <time>2024-08-12T12:06:30Z</time>
      </trkpt>
      <trkpt lat="44.77399" lon="6.31413">
        <ele>2440.4</ele>
        <time>2024-08-12T12:06:31Z</time>
      </trkpt>
      <trkpt lat="44.77399" lon="6.31413">
        <ele>2440.6</ele>
        <time>2024-08-12T12:06:32Z</time>
      </trkpt>
      <trkpt lat="44.77399" lon="6.31413">
        <ele>2440.6</ele>
        <time>2024-08-12T12:06:33Z</time>
      </trkpt>
      <trkpt lat="44.77399" lon="6.31413">
        <ele>2440.8</ele>
        <time>2024-08-12T12:06:34Z</time>
      </trkpt>
      <trkpt lat="44.77399" lon="6.31413">
        <ele>2440.8</ele>
        <time>2024-08-12T12:06:35Z</time>
      </trkpt>
      <trkpt lat="44.77399" lon="6.31413">
        <ele>2441</ele>
        <time>2024-08-12T12:06:36Z</time>
      </trkpt>
      <trkpt lat="44.77399" lon="6.31413">
        <ele>2441</ele>
        <time>2024-08-12T12:06:37Z</time>
      </trkpt>
      <trkpt lat="44.77399" lon="6.31413">
        <ele>2441</ele>
        <time>2024-08-12T12:06:38Z</time>
      </trkpt>
      <trkpt lat="44.77399" lon="6.31413">
        <ele>2440.8</ele>
        <time>2024-08-12T12:06:39Z</time>
      </trkpt>
      <trkpt lat="44.77399" lon="6.31413">
        <ele>2440.4</ele>
        <time>2024-08-12T12:06:40Z</time>
      </trkpt>
      <trkpt lat="44.77399" lon="6.31413">
        <ele>2440.2</ele>
        <time>2024-08-12T12:06:41Z</time>
      </trkpt>
      <trkpt lat="44.77399" lon="6.31413">
        <ele>2440.2</ele>
        <time>2024-08-12T12:06:42Z</time>
      </trkpt>
      <trkpt lat="44.77399" lon="6.31413">
        <ele>2440.6</ele>
        <time>2024-08-12T12:06:43Z</time>
      </trkpt>
      <trkpt lat="44.77399" lon="6.31413">
        <ele>2440.6</ele>
        <time>2024-08-12T12:06:44Z</time>
      </trkpt>
      <trkpt lat="44.77399" lon="6.31413">
        <ele>2440.8</ele>
        <time>2024-08-12T12:06:45Z</time>
      </trkpt>
      <trkpt lat="44.77399" lon="6.31413">
        <ele>2440.8</ele>
        <time>2024-08-12T12:06:46Z</time>
      </trkpt>
      <trkpt lat="44.77399" lon="6.31413">
        <ele>2440.8</ele>
        <time>2024-08-12T12:06:47Z</time>
      </trkpt>
      <trkpt lat="44.77399" lon="6.31413">
        <ele>2440.6</ele>
        <time>2024-08-12T12:06:48Z</time>
      </trkpt>
      <trkpt lat="44.77399" lon="6.31413">
        <ele>2440.6</ele>
        <time>2024-08-12T12:06:49Z</time>
      </trkpt>
      <trkpt lat="44.77399" lon="6.31413">
        <ele>2440.6</ele>
        <time>2024-08-12T12:06:50Z</time>
      </trkpt>
      <trkpt lat="44.77399" lon="6.31413">
        <ele>2440.6</ele>
        <time>2024-08-12T12:06:51Z</time>
      </trkpt>
      <trkpt lat="44.77399" lon="6.31413">
        <ele>2440.8</ele>
        <time>2024-08-12T12:06:52Z</time>
      </trkpt>
      <trkpt lat="44.77399" lon="6.31413">
        <ele>2440.8</ele>
        <time>2024-08-12T12:06:53Z</time>
      </trkpt>
      <trkpt lat="44.77399" lon="6.31413">
        <ele>2440.8</ele>
        <time>2024-08-12T12:06:54Z</time>
      </trkpt>
      <trkpt lat="44.77399" lon="6.31413">
        <ele>2440.8</ele>
        <time>2024-08-12T12:06:55Z</time>
      </trkpt>
      <trkpt lat="44.77399" lon="6.31413">
        <ele>2440.8</ele>
        <time>2024-08-12T12:06:56Z</time>
      </trkpt>
      <trkpt lat="44.77399" lon="6.31413">
        <ele>2440.8</ele>
        <time>2024-08-12T12:06:57Z</time>
      </trkpt>
      <trkpt lat="44.77399" lon="6.31413">
        <ele>2441.6</ele>
        <time>2024-08-12T12:06:58Z</time>
      </trkpt>
      <trkpt lat="44.77399" lon="6.31413">
        <ele>2441.6</ele>
        <time>2024-08-12T12:06:59Z</time>
      </trkpt>
      <trkpt lat="44.77399" lon="6.31413">
        <ele>2441.6</ele>
        <time>2024-08-12T12:07:00Z</time>
      </trkpt>
      <trkpt lat="44.77399" lon="6.31413">
        <ele>2441.4</ele>
        <time>2024-08-12T12:07:01Z</time>
      </trkpt>
      <trkpt lat="44.77399" lon="6.31413">
        <ele>2441.6</ele>
        <time>2024-08-12T12:07:02Z</time>
      </trkpt>
      <trkpt lat="44.77399" lon="6.31413">
        <ele>2441.6</ele>
        <time>2024-08-12T12:07:03Z</time>
      </trkpt>
      <trkpt lat="44.77398" lon="6.3141">
        <ele>2441.4</ele>
        <time>2024-08-12T12:07:04Z</time>
      </trkpt>
      <trkpt lat="44.77398" lon="6.3141">
        <ele>2441.4</ele>
        <time>2024-08-12T12:07:05Z</time>
      </trkpt>
      <trkpt lat="44.77397" lon="6.31406">
        <ele>2441.4</ele>
        <time>2024-08-12T12:07:06Z</time>
      </trkpt>
      <trkpt lat="44.77397" lon="6.31406">
        <ele>2441.4</ele>
        <time>2024-08-12T12:07:07Z</time>
      </trkpt>
      <trkpt lat="44.77396" lon="6.31402">
        <ele>2441.2</ele>
        <time>2024-08-12T12:07:08Z</time>
      </trkpt>
      <trkpt lat="44.77396" lon="6.31402">
        <ele>2441.2</ele>
        <time>2024-08-12T12:07:09Z</time>
      </trkpt>
      <trkpt lat="44.77396" lon="6.314">
        <ele>2441.2</ele>
        <time>2024-08-12T12:07:10Z</time>
      </trkpt>
      <trkpt lat="44.77396" lon="6.314">
        <ele>2441.2</ele>
        <time>2024-08-12T12:07:11Z</time>
      </trkpt>
      <trkpt lat="44.77396" lon="6.314">
        <ele>2441.6</ele>
        <time>2024-08-12T12:07:12Z</time>
      </trkpt>
      <trkpt lat="44.77395" lon="6.31397">
        <ele>2441.8</ele>
        <time>2024-08-12T12:07:13Z</time>
      </trkpt>
      <trkpt lat="44.77395" lon="6.31397">
        <ele>2442</ele>
        <time>2024-08-12T12:07:14Z</time>
      </trkpt>
      <trkpt lat="44.77395" lon="6.31397">
        <ele>2442.4</ele>
        <time>2024-08-12T12:07:15Z</time>
      </trkpt>
      <trkpt lat="44.77394" lon="6.31394">
        <ele>2442.6</ele>
        <time>2024-08-12T12:07:16Z</time>
      </trkpt>
      <trkpt lat="44.77394" lon="6.31394">
        <ele>2442.8</ele>
        <time>2024-08-12T12:07:17Z</time>
      </trkpt>
      <trkpt lat="44.77394" lon="6.31394">
        <ele>2443.4</ele>
        <time>2024-08-12T12:07:18Z</time>
      </trkpt>
      <trkpt lat="44.77394" lon="6.3139">
        <ele>2443.4</ele>
        <time>2024-08-12T12:07:19Z</time>
      </trkpt>
      <trkpt lat="44.77394" lon="6.3139">
        <ele>2443.8</ele>
        <time>2024-08-12T12:07:20Z</time>
      </trkpt>
      <trkpt lat="44.77394" lon="6.3139">
        <ele>2443.8</ele>
        <time>2024-08-12T12:07:21Z</time>
      </trkpt>
      <trkpt lat="44.77393" lon="6.31387">
        <ele>2443.8</ele>
        <time>2024-08-12T12:07:22Z</time>
      </trkpt>
      <trkpt lat="44.77393" lon="6.31387">
        <ele>2443.8</ele>
        <time>2024-08-12T12:07:23Z</time>
      </trkpt>
      <trkpt lat="44.77393" lon="6.31384">
        <ele>2443.8</ele>
        <time>2024-08-12T12:07:24Z</time>
      </trkpt>
      <trkpt lat="44.77393" lon="6.31384">
        <ele>2444</ele>
        <time>2024-08-12T12:07:25Z</time>
      </trkpt>
      <trkpt lat="44.77393" lon="6.31384">
        <ele>2444.2</ele>
        <time>2024-08-12T12:07:26Z</time>
      </trkpt>
      <trkpt lat="44.77391" lon="6.31381">
        <ele>2444.4</ele>
        <time>2024-08-12T12:07:27Z</time>
      </trkpt>
      <trkpt lat="44.77391" lon="6.31381">
        <ele>2444.4</ele>
        <time>2024-08-12T12:07:28Z</time>
      </trkpt>
      <trkpt lat="44.77391" lon="6.31381">
        <ele>2444.4</ele>
        <time>2024-08-12T12:07:29Z</time>
      </trkpt>
      <trkpt lat="44.7739" lon="6.31378">
        <ele>2444.4</ele>
        <time>2024-08-12T12:07:30Z</time>
      </trkpt>
      <trkpt lat="44.7739" lon="6.31378">
        <ele>2444.6</ele>
        <time>2024-08-12T12:07:31Z</time>
      </trkpt>
      <trkpt lat="44.7739" lon="6.31375">
        <ele>2444.6</ele>
        <time>2024-08-12T12:07:32Z</time>
      </trkpt>
      <trkpt lat="44.7739" lon="6.31375">
        <ele>2444.6</ele>
        <time>2024-08-12T12:07:33Z</time>
      </trkpt>
      <trkpt lat="44.7739" lon="6.31375">
        <ele>2444.6</ele>
        <time>2024-08-12T12:07:34Z</time>
      </trkpt>
      <trkpt lat="44.77389" lon="6.31372">
        <ele>2445.4</ele>
        <time>2024-08-12T12:07:35Z</time>
      </trkpt>
      <trkpt lat="44.77389" lon="6.31372">
        <ele>2445.4</ele>
        <time>2024-08-12T12:07:36Z</time>
      </trkpt>
      <trkpt lat="44.77389" lon="6.31372">
        <ele>2445.8</ele>
        <time>2024-08-12T12:07:37Z</time>
      </trkpt>
      <trkpt lat="44.77389" lon="6.31369">
        <ele>2446.2</ele>
        <time>2024-08-12T12:07:38Z</time>
      </trkpt>
      <trkpt lat="44.77389" lon="6.31369">
        <ele>2446.2</ele>
        <time>2024-08-12T12:07:39Z</time>
      </trkpt>
      <trkpt lat="44.77388" lon="6.31366">
        <ele>2446.2</ele>
        <time>2024-08-12T12:07:40Z</time>
      </trkpt>
      <trkpt lat="44.77388" lon="6.31366">
        <ele>2446.2</ele>
        <time>2024-08-12T12:07:41Z</time>
      </trkpt>
      <trkpt lat="44.77387" lon="6.31364">
        <ele>2446.8</ele>
        <time>2024-08-12T12:07:42Z</time>
      </trkpt>
      <trkpt lat="44.77387" lon="6.31364">
        <ele>2447</ele>
        <time>2024-08-12T12:07:43Z</time>
      </trkpt>
      <trkpt lat="44.77387" lon="6.31364">
        <ele>2447.2</ele>
        <time>2024-08-12T12:07:44Z</time>
      </trkpt>
      <trkpt lat="44.77386" lon="6.31361">
        <ele>2447.2</ele>
        <time>2024-08-12T12:07:45Z</time>
      </trkpt>
      <trkpt lat="44.77386" lon="6.31361">
        <ele>2447.4</ele>
        <time>2024-08-12T12:07:46Z</time>
      </trkpt>
      <trkpt lat="44.77386" lon="6.31361">
        <ele>2447.6</ele>
        <time>2024-08-12T12:07:47Z</time>
      </trkpt>
      <trkpt lat="44.77385" lon="6.31358">
        <ele>2447.8</ele>
        <time>2024-08-12T12:07:48Z</time>
      </trkpt>
      <trkpt lat="44.77385" lon="6.31358">
        <ele>2448</ele>
        <time>2024-08-12T12:07:49Z</time>
      </trkpt>
      <trkpt lat="44.77385" lon="6.31358">
        <ele>2448.4</ele>
        <time>2024-08-12T12:07:50Z</time>
      </trkpt>
      <trkpt lat="44.77384" lon="6.31354">
        <ele>2448.4</ele>
        <time>2024-08-12T12:07:51Z</time>
      </trkpt>
      <trkpt lat="44.77384" lon="6.31354">
        <ele>2448.4</ele>
        <time>2024-08-12T12:07:52Z</time>
      </trkpt>
      <trkpt lat="44.77384" lon="6.31354">
        <ele>2448.4</ele>
        <time>2024-08-12T12:07:53Z</time>
      </trkpt>
      <trkpt lat="44.77383" lon="6.31351">
        <ele>2448.6</ele>
        <time>2024-08-12T12:07:54Z</time>
      </trkpt>
      <trkpt lat="44.77383" lon="6.31351">
        <ele>2448.8</ele>
        <time>2024-08-12T12:07:55Z</time>
      </trkpt>
      <trkpt lat="44.77383" lon="6.31351">
        <ele>2449</ele>
        <time>2024-08-12T12:07:56Z</time>
      </trkpt>
      <trkpt lat="44.77381" lon="6.31348">
        <ele>2449</ele>
        <time>2024-08-12T12:07:57Z</time>
      </trkpt>
      <trkpt lat="44.77381" lon="6.31348">
        <ele>2449.6</ele>
        <time>2024-08-12T12:07:58Z</time>
      </trkpt>
      <trkpt lat="44.77381" lon="6.31348">
        <ele>2449.8</ele>
        <time>2024-08-12T12:07:59Z</time>
      </trkpt>
      <trkpt lat="44.7738" lon="6.31345">
        <ele>2449.8</ele>
        <time>2024-08-12T12:08:00Z</time>
      </trkpt>
      <trkpt lat="44.7738" lon="6.31345">
        <ele>2450</ele>
        <time>2024-08-12T12:08:01Z</time>
      </trkpt>
      <trkpt lat="44.7738" lon="6.31345">
        <ele>2450.2</ele>
        <time>2024-08-12T12:08:02Z</time>
      </trkpt>
      <trkpt lat="44.77379" lon="6.31342">
        <ele>2450.2</ele>
        <time>2024-08-12T12:08:03Z</time>
      </trkpt>
      <trkpt lat="44.77379" lon="6.31342">
        <ele>2450.4</ele>
        <time>2024-08-12T12:08:04Z</time>
      </trkpt>
      <trkpt lat="44.77379" lon="6.31342">
        <ele>2450.8</ele>
        <time>2024-08-12T12:08:05Z</time>
      </trkpt>
      <trkpt lat="44.77378" lon="6.31339">
        <ele>2450.8</ele>
        <time>2024-08-12T12:08:06Z</time>
      </trkpt>
      <trkpt lat="44.77378" lon="6.31339">
        <ele>2451.4</ele>
        <time>2024-08-12T12:08:07Z</time>
      </trkpt>
      <trkpt lat="44.77378" lon="6.31339">
        <ele>2451.6</ele>
        <time>2024-08-12T12:08:08Z</time>
      </trkpt>
      <trkpt lat="44.77377" lon="6.31336">
        <ele>2451.8</ele>
        <time>2024-08-12T12:08:09Z</time>
      </trkpt>
      <trkpt lat="44.77377" lon="6.31336">
        <ele>2452.2</ele>
        <time>2024-08-12T12:08:10Z</time>
      </trkpt>
      <trkpt lat="44.77377" lon="6.31336">
        <ele>2452.2</ele>
        <time>2024-08-12T12:08:11Z</time>
      </trkpt>
      <trkpt lat="44.77377" lon="6.31334">
        <ele>2452.6</ele>
        <time>2024-08-12T12:08:12Z</time>
      </trkpt>
      <trkpt lat="44.77377" lon="6.31334">
        <ele>2453</ele>
        <time>2024-08-12T12:08:13Z</time>
      </trkpt>
      <trkpt lat="44.77377" lon="6.31334">
        <ele>2453.2</ele>
        <time>2024-08-12T12:08:14Z</time>
      </trkpt>
      <trkpt lat="44.77377" lon="6.31331">
        <ele>2453.2</ele>
        <time>2024-08-12T12:08:15Z</time>
      </trkpt>
      <trkpt lat="44.77377" lon="6.31331">
        <ele>2453.4</ele>
        <time>2024-08-12T12:08:16Z</time>
      </trkpt>
      <trkpt lat="44.77377" lon="6.31331">
        <ele>2453.6</ele>
        <time>2024-08-12T12:08:17Z</time>
      </trkpt>
      <trkpt lat="44.77377" lon="6.31327">
        <ele>2453.6</ele>
        <time>2024-08-12T12:08:18Z</time>
      </trkpt>
      <trkpt lat="44.77377" lon="6.31327">
        <ele>2453.8</ele>
        <time>2024-08-12T12:08:19Z</time>
      </trkpt>
      <trkpt lat="44.77377" lon="6.31327">
        <ele>2453.8</ele>
        <time>2024-08-12T12:08:20Z</time>
      </trkpt>
      <trkpt lat="44.77377" lon="6.31325">
        <ele>2454</ele>
        <time>2024-08-12T12:08:21Z</time>
      </trkpt>
      <trkpt lat="44.77377" lon="6.31325">
        <ele>2454.4</ele>
        <time>2024-08-12T12:08:22Z</time>
      </trkpt>
      <trkpt lat="44.77377" lon="6.31325">
        <ele>2454.4</ele>
        <time>2024-08-12T12:08:23Z</time>
      </trkpt>
      <trkpt lat="44.77376" lon="6.31321">
        <ele>2454.8</ele>
        <time>2024-08-12T12:08:24Z</time>
      </trkpt>
      <trkpt lat="44.77376" lon="6.31321">
        <ele>2455.2</ele>
        <time>2024-08-12T12:08:25Z</time>
      </trkpt>
      <trkpt lat="44.77376" lon="6.31321">
        <ele>2455.2</ele>
        <time>2024-08-12T12:08:26Z</time>
      </trkpt>
      <trkpt lat="44.77375" lon="6.31318">
        <ele>2455.4</ele>
        <time>2024-08-12T12:08:27Z</time>
      </trkpt>
      <trkpt lat="44.77375" lon="6.31318">
        <ele>2455.6</ele>
        <time>2024-08-12T12:08:28Z</time>
      </trkpt>
      <trkpt lat="44.77375" lon="6.31318">
        <ele>2455.8</ele>
        <time>2024-08-12T12:08:29Z</time>
      </trkpt>
      <trkpt lat="44.77374" lon="6.31315">
        <ele>2456</ele>
        <time>2024-08-12T12:08:30Z</time>
      </trkpt>
      <trkpt lat="44.77374" lon="6.31315">
        <ele>2456</ele>
        <time>2024-08-12T12:08:31Z</time>
      </trkpt>
      <trkpt lat="44.77374" lon="6.31315">
        <ele>2456.4</ele>
        <time>2024-08-12T12:08:32Z</time>
      </trkpt>
      <trkpt lat="44.77374" lon="6.31315">
        <ele>2456.6</ele>
        <time>2024-08-12T12:08:33Z</time>
      </trkpt>
      <trkpt lat="44.77374" lon="6.31315">
        <ele>2456.6</ele>
        <time>2024-08-12T12:08:34Z</time>
      </trkpt>
      <trkpt lat="44.77374" lon="6.31315">
        <ele>2456.6</ele>
        <time>2024-08-12T12:08:35Z</time>
      </trkpt>
      <trkpt lat="44.77374" lon="6.31315">
        <ele>2456.4</ele>
        <time>2024-08-12T12:08:36Z</time>
      </trkpt>
      <trkpt lat="44.77374" lon="6.31315">
        <ele>2456.4</ele>
        <time>2024-08-12T12:08:37Z</time>
      </trkpt>
      <trkpt lat="44.77374" lon="6.31315">
        <ele>2456.4</ele>
        <time>2024-08-12T12:08:38Z</time>
      </trkpt>
      <trkpt lat="44.77374" lon="6.31315">
        <ele>2456.6</ele>
        <time>2024-08-12T12:08:39Z</time>
      </trkpt>
      <trkpt lat="44.77374" lon="6.31315">
        <ele>2456.6</ele>
        <time>2024-08-12T12:08:40Z</time>
      </trkpt>
      <trkpt lat="44.77374" lon="6.31312">
        <ele>2456.8</ele>
        <time>2024-08-12T12:08:41Z</time>
      </trkpt>
      <trkpt lat="44.77374" lon="6.31312">
        <ele>2456.8</ele>
        <time>2024-08-12T12:08:42Z</time>
      </trkpt>
      <trkpt lat="44.77373" lon="6.31309">
        <ele>2456.8</ele>
        <time>2024-08-12T12:08:43Z</time>
      </trkpt>
      <trkpt lat="44.77373" lon="6.31309">
        <ele>2456.8</ele>
        <time>2024-08-12T12:08:44Z</time>
      </trkpt>
      <trkpt lat="44.77373" lon="6.31307">
        <ele>2457</ele>
        <time>2024-08-12T12:08:45Z</time>
      </trkpt>
      <trkpt lat="44.77373" lon="6.31307">
        <ele>2457.6</ele>
        <time>2024-08-12T12:08:46Z</time>
      </trkpt>
      <trkpt lat="44.77373" lon="6.31304">
        <ele>2457.6</ele>
        <time>2024-08-12T12:08:47Z</time>
      </trkpt>
      <trkpt lat="44.77373" lon="6.31304">
        <ele>2457.8</ele>
        <time>2024-08-12T12:08:48Z</time>
      </trkpt>
      <trkpt lat="44.77373" lon="6.31304">
        <ele>2458</ele>
        <time>2024-08-12T12:08:49Z</time>
      </trkpt>
      <trkpt lat="44.77373" lon="6.31301">
        <ele>2458.2</ele>
        <time>2024-08-12T12:08:50Z</time>
      </trkpt>
      <trkpt lat="44.77373" lon="6.31301">
        <ele>2458.2</ele>
        <time>2024-08-12T12:08:51Z</time>
      </trkpt>
      <trkpt lat="44.77373" lon="6.31301">
        <ele>2458.2</ele>
        <time>2024-08-12T12:08:52Z</time>
      </trkpt>
      <trkpt lat="44.77372" lon="6.31299">
        <ele>2458.2</ele>
        <time>2024-08-12T12:08:53Z</time>
      </trkpt>
      <trkpt lat="44.77372" lon="6.31299">
        <ele>2458.2</ele>
        <time>2024-08-12T12:08:54Z</time>
      </trkpt>
      <trkpt lat="44.77372" lon="6.31299">
        <ele>2458.4</ele>
        <time>2024-08-12T12:08:55Z</time>
      </trkpt>
      <trkpt lat="44.77371" lon="6.31297">
        <ele>2458.6</ele>
        <time>2024-08-12T12:08:56Z</time>
      </trkpt>
      <trkpt lat="44.77371" lon="6.31297">
        <ele>2459.2</ele>
        <time>2024-08-12T12:08:57Z</time>
      </trkpt>
      <trkpt lat="44.77371" lon="6.31297">
        <ele>2459.6</ele>
        <time>2024-08-12T12:08:58Z</time>
      </trkpt>
      <trkpt lat="44.77369" lon="6.31294">
        <ele>2459.6</ele>
        <time>2024-08-12T12:08:59Z</time>
      </trkpt>
      <trkpt lat="44.77369" lon="6.31294">
        <ele>2459.6</ele>
        <time>2024-08-12T12:09:00Z</time>
      </trkpt>
      <trkpt lat="44.77369" lon="6.31294">
        <ele>2459.8</ele>
        <time>2024-08-12T12:09:01Z</time>
      </trkpt>
      <trkpt lat="44.77369" lon="6.31294">
        <ele>2460.2</ele>
        <time>2024-08-12T12:09:02Z</time>
      </trkpt>
      <trkpt lat="44.77369" lon="6.31294">
        <ele>2460.2</ele>
        <time>2024-08-12T12:09:03Z</time>
      </trkpt>
      <trkpt lat="44.77367" lon="6.31295">
        <ele>2460.4</ele>
        <time>2024-08-12T12:09:04Z</time>
      </trkpt>
      <trkpt lat="44.77367" lon="6.31295">
        <ele>2460.4</ele>
        <time>2024-08-12T12:09:05Z</time>
      </trkpt>
      <trkpt lat="44.77367" lon="6.31295">
        <ele>2460</ele>
        <time>2024-08-12T12:09:06Z</time>
      </trkpt>
      <trkpt lat="44.77365" lon="6.31294">
        <ele>2459.4</ele>
        <time>2024-08-12T12:09:07Z</time>
      </trkpt>
      <trkpt lat="44.77365" lon="6.31294">
        <ele>2459.4</ele>
        <time>2024-08-12T12:09:08Z</time>
      </trkpt>
      <trkpt lat="44.77365" lon="6.31294">
        <ele>2459.4</ele>
        <time>2024-08-12T12:09:09Z</time>
      </trkpt>
      <trkpt lat="44.77363" lon="6.31292">
        <ele>2460</ele>
        <time>2024-08-12T12:09:10Z</time>
      </trkpt>
      <trkpt lat="44.77363" lon="6.31292">
        <ele>2460.4</ele>
        <time>2024-08-12T12:09:11Z</time>
      </trkpt>
      <trkpt lat="44.77363" lon="6.31292">
        <ele>2461</ele>
        <time>2024-08-12T12:09:12Z</time>
      </trkpt>
      <trkpt lat="44.77362" lon="6.3129">
        <ele>2461.2</ele>
        <time>2024-08-12T12:09:13Z</time>
      </trkpt>
      <trkpt lat="44.77362" lon="6.3129">
        <ele>2461.2</ele>
        <time>2024-08-12T12:09:14Z</time>
      </trkpt>
      <trkpt lat="44.77362" lon="6.3129">
        <ele>2461.4</ele>
        <time>2024-08-12T12:09:15Z</time>
      </trkpt>
      <trkpt lat="44.7736" lon="6.31291">
        <ele>2461.4</ele>
        <time>2024-08-12T12:09:16Z</time>
      </trkpt>
      <trkpt lat="44.7736" lon="6.31291">
        <ele>2461.4</ele>
        <time>2024-08-12T12:09:17Z</time>
      </trkpt>
      <trkpt lat="44.77359" lon="6.31293">
        <ele>2461.4</ele>
        <time>2024-08-12T12:09:18Z</time>
      </trkpt>
      <trkpt lat="44.77359" lon="6.31293">
        <ele>2461.4</ele>
        <time>2024-08-12T12:09:19Z</time>
      </trkpt>
      <trkpt lat="44.77359" lon="6.31293">
        <ele>2461.4</ele>
        <time>2024-08-12T12:09:20Z</time>
      </trkpt>
      <trkpt lat="44.77357" lon="6.31295">
        <ele>2461.8</ele>
        <time>2024-08-12T12:09:21Z</time>
      </trkpt>
      <trkpt lat="44.77357" lon="6.31295">
        <ele>2461.8</ele>
        <time>2024-08-12T12:09:22Z</time>
      </trkpt>
      <trkpt lat="44.77357" lon="6.31295">
        <ele>2461.8</ele>
        <time>2024-08-12T12:09:23Z</time>
      </trkpt>
      <trkpt lat="44.77357" lon="6.31298">
        <ele>2461.8</ele>
        <time>2024-08-12T12:09:24Z</time>
      </trkpt>
      <trkpt lat="44.77357" lon="6.31298">
        <ele>2461.8</ele>
        <time>2024-08-12T12:09:25Z</time>
      </trkpt>
      <trkpt lat="44.77355" lon="6.313">
        <ele>2462</ele>
        <time>2024-08-12T12:09:26Z</time>
      </trkpt>
      <trkpt lat="44.77355" lon="6.313">
        <ele>2462.2</ele>
        <time>2024-08-12T12:09:27Z</time>
      </trkpt>
      <trkpt lat="44.77355" lon="6.313">
        <ele>2462.6</ele>
        <time>2024-08-12T12:09:28Z</time>
      </trkpt>
      <trkpt lat="44.77353" lon="6.31301">
        <ele>2463.4</ele>
        <time>2024-08-12T12:09:29Z</time>
      </trkpt>
      <trkpt lat="44.77353" lon="6.31301">
        <ele>2463.4</ele>
        <time>2024-08-12T12:09:30Z</time>
      </trkpt>
      <trkpt lat="44.77353" lon="6.31301">
        <ele>2463.4</ele>
        <time>2024-08-12T12:09:31Z</time>
      </trkpt>
      <trkpt lat="44.77353" lon="6.31301">
        <ele>2463.8</ele>
        <time>2024-08-12T12:09:32Z</time>
      </trkpt>
      <trkpt lat="44.77352" lon="6.31298">
        <ele>2464.4</ele>
        <time>2024-08-12T12:09:33Z</time>
      </trkpt>
      <trkpt lat="44.77352" lon="6.31298">
        <ele>2464.8</ele>
        <time>2024-08-12T12:09:34Z</time>
      </trkpt>
      <trkpt lat="44.77352" lon="6.31298">
        <ele>2465.2</ele>
        <time>2024-08-12T12:09:35Z</time>
      </trkpt>
      <trkpt lat="44.77352" lon="6.31298">
        <ele>2465.2</ele>
        <time>2024-08-12T12:09:36Z</time>
      </trkpt>
      <trkpt lat="44.77353" lon="6.31295">
        <ele>2465.4</ele>
        <time>2024-08-12T12:09:37Z</time>
      </trkpt>
      <trkpt lat="44.77353" lon="6.31295">
        <ele>2465.4</ele>
        <time>2024-08-12T12:09:38Z</time>
      </trkpt>
      <trkpt lat="44.77353" lon="6.31295">
        <ele>2465.6</ele>
        <time>2024-08-12T12:09:39Z</time>
      </trkpt>
      <trkpt lat="44.77353" lon="6.31291">
        <ele>2465.8</ele>
        <time>2024-08-12T12:09:40Z</time>
      </trkpt>
      <trkpt lat="44.77353" lon="6.31291">
        <ele>2466.2</ele>
        <time>2024-08-12T12:09:41Z</time>
      </trkpt>
      <trkpt lat="44.77354" lon="6.31289">
        <ele>2466.4</ele>
        <time>2024-08-12T12:09:42Z</time>
      </trkpt>
      <trkpt lat="44.77354" lon="6.31289">
        <ele>2466.6</ele>
        <time>2024-08-12T12:09:43Z</time>
      </trkpt>
      <trkpt lat="44.77354" lon="6.31289">
        <ele>2466.8</ele>
        <time>2024-08-12T12:09:44Z</time>
      </trkpt>
      <trkpt lat="44.77354" lon="6.31286">
        <ele>2467</ele>
        <time>2024-08-12T12:09:45Z</time>
      </trkpt>
      <trkpt lat="44.77354" lon="6.31286">
        <ele>2467.4</ele>
        <time>2024-08-12T12:09:46Z</time>
      </trkpt>
      <trkpt lat="44.77354" lon="6.31286">
        <ele>2467.4</ele>
        <time>2024-08-12T12:09:47Z</time>
      </trkpt>
      <trkpt lat="44.77355" lon="6.31283">
        <ele>2468</ele>
        <time>2024-08-12T12:09:48Z</time>
      </trkpt>
      <trkpt lat="44.77355" lon="6.31283">
        <ele>2468.4</ele>
        <time>2024-08-12T12:09:49Z</time>
      </trkpt>
      <trkpt lat="44.77355" lon="6.3128">
        <ele>2468.4</ele>
        <time>2024-08-12T12:09:50Z</time>
      </trkpt>
      <trkpt lat="44.77355" lon="6.3128">
        <ele>2468.6</ele>
        <time>2024-08-12T12:09:51Z</time>
      </trkpt>
      <trkpt lat="44.77355" lon="6.31276">
        <ele>2468.6</ele>
        <time>2024-08-12T12:09:52Z</time>
      </trkpt>
      <trkpt lat="44.77355" lon="6.31276">
        <ele>2468.8</ele>
        <time>2024-08-12T12:09:53Z</time>
      </trkpt>
      <trkpt lat="44.77355" lon="6.31274">
        <ele>2468.8</ele>
        <time>2024-08-12T12:09:54Z</time>
      </trkpt>
      <trkpt lat="44.77355" lon="6.31274">
        <ele>2469</ele>
        <time>2024-08-12T12:09:55Z</time>
      </trkpt>
      <trkpt lat="44.77355" lon="6.31274">
        <ele>2469.4</ele>
        <time>2024-08-12T12:09:56Z</time>
      </trkpt>
      <trkpt lat="44.77354" lon="6.31271">
        <ele>2469.8</ele>
        <time>2024-08-12T12:09:57Z</time>
      </trkpt>
      <trkpt lat="44.77354" lon="6.31271">
        <ele>2470</ele>
        <time>2024-08-12T12:09:58Z</time>
      </trkpt>
      <trkpt lat="44.77354" lon="6.31271">
        <ele>2470.2</ele>
        <time>2024-08-12T12:09:59Z</time>
      </trkpt>
      <trkpt lat="44.77354" lon="6.31271">
        <ele>2470.2</ele>
        <time>2024-08-12T12:10:00Z</time>
      </trkpt>
      <trkpt lat="44.77354" lon="6.31271">
        <ele>2470.2</ele>
        <time>2024-08-12T12:10:01Z</time>
      </trkpt>
      <trkpt lat="44.77354" lon="6.31271">
        <ele>2470.6</ele>
        <time>2024-08-12T12:10:02Z</time>
      </trkpt>
      <trkpt lat="44.77352" lon="6.3127">
        <ele>2470.8</ele>
        <time>2024-08-12T12:10:03Z</time>
      </trkpt>
      <trkpt lat="44.77352" lon="6.3127">
        <ele>2471.2</ele>
        <time>2024-08-12T12:10:04Z</time>
      </trkpt>
      <trkpt lat="44.77352" lon="6.3127">
        <ele>2471.2</ele>
        <time>2024-08-12T12:10:05Z</time>
      </trkpt>
      <trkpt lat="44.77352" lon="6.3127">
        <ele>2471.2</ele>
        <time>2024-08-12T12:10:06Z</time>
      </trkpt>
      <trkpt lat="44.77351" lon="6.31272">
        <ele>2471.6</ele>
        <time>2024-08-12T12:10:07Z</time>
      </trkpt>
      <trkpt lat="44.77351" lon="6.31272">
        <ele>2471.6</ele>
        <time>2024-08-12T12:10:08Z</time>
      </trkpt>
      <trkpt lat="44.77351" lon="6.31272">
        <ele>2471.6</ele>
        <time>2024-08-12T12:10:09Z</time>
      </trkpt>
      <trkpt lat="44.77351" lon="6.31272">
        <ele>2471.6</ele>
        <time>2024-08-12T12:10:10Z</time>
      </trkpt>
      <trkpt lat="44.77351" lon="6.31272">
        <ele>2472</ele>
        <time>2024-08-12T12:10:11Z</time>
      </trkpt>
      <trkpt lat="44.77351" lon="6.31272">
        <ele>2472.2</ele>
        <time>2024-08-12T12:10:12Z</time>
      </trkpt>
      <trkpt lat="44.77349" lon="6.31275">
        <ele>2472.2</ele>
        <time>2024-08-12T12:10:13Z</time>
      </trkpt>
      <trkpt lat="44.77349" lon="6.31275">
        <ele>2472.6</ele>
        <time>2024-08-12T12:10:14Z</time>
      </trkpt>
      <trkpt lat="44.77349" lon="6.31275">
        <ele>2473</ele>
        <time>2024-08-12T12:10:15Z</time>
      </trkpt>
      <trkpt lat="44.77347" lon="6.31278">
        <ele>2473.2</ele>
        <time>2024-08-12T12:10:16Z</time>
      </trkpt>
      <trkpt lat="44.77347" lon="6.31278">
        <ele>2473.2</ele>
        <time>2024-08-12T12:10:17Z</time>
      </trkpt>
      <trkpt lat="44.77346" lon="6.3128">
        <ele>2473.6</ele>
        <time>2024-08-12T12:10:18Z</time>
      </trkpt>
      <trkpt lat="44.77346" lon="6.3128">
        <ele>2473.6</ele>
        <time>2024-08-12T12:10:19Z</time>
      </trkpt>
      <trkpt lat="44.77344" lon="6.31282">
        <ele>2473.8</ele>
        <time>2024-08-12T12:10:20Z</time>
      </trkpt>
      <trkpt lat="44.77344" lon="6.31282">
        <ele>2474</ele>
        <time>2024-08-12T12:10:21Z</time>
      </trkpt>
      <trkpt lat="44.77344" lon="6.31282">
        <ele>2474.2</ele>
        <time>2024-08-12T12:10:22Z</time>
      </trkpt>
      <trkpt lat="44.77342" lon="6.31284">
        <ele>2474.4</ele>
        <time>2024-08-12T12:10:23Z</time>
      </trkpt>
      <trkpt lat="44.77342" lon="6.31284">
        <ele>2474.6</ele>
        <time>2024-08-12T12:10:24Z</time>
      </trkpt>
      <trkpt lat="44.7734" lon="6.31286">
        <ele>2474.6</ele>
        <time>2024-08-12T12:10:25Z</time>
      </trkpt>
      <trkpt lat="44.7734" lon="6.31286">
        <ele>2474.6</ele>
        <time>2024-08-12T12:10:26Z</time>
      </trkpt>
      <trkpt lat="44.7734" lon="6.31286">
        <ele>2474.8</ele>
        <time>2024-08-12T12:10:27Z</time>
      </trkpt>
      <trkpt lat="44.77338" lon="6.31288">
        <ele>2475</ele>
        <time>2024-08-12T12:10:28Z</time>
      </trkpt>
      <trkpt lat="44.77338" lon="6.31288">
        <ele>2475.2</ele>
        <time>2024-08-12T12:10:29Z</time>
      </trkpt>
      <trkpt lat="44.77338" lon="6.31288">
        <ele>2475.2</ele>
        <time>2024-08-12T12:10:30Z</time>
      </trkpt>
      <trkpt lat="44.77336" lon="6.31289">
        <ele>2475.2</ele>
        <time>2024-08-12T12:10:31Z</time>
      </trkpt>
      <trkpt lat="44.77336" lon="6.31289">
        <ele>2475.6</ele>
        <time>2024-08-12T12:10:32Z</time>
      </trkpt>
      <trkpt lat="44.77336" lon="6.31289">
        <ele>2476</ele>
        <time>2024-08-12T12:10:33Z</time>
      </trkpt>
      <trkpt lat="44.77334" lon="6.31291">
        <ele>2476.2</ele>
        <time>2024-08-12T12:10:34Z</time>
      </trkpt>
      <trkpt lat="44.77334" lon="6.31291">
        <ele>2476.2</ele>
        <time>2024-08-12T12:10:35Z</time>
      </trkpt>
      <trkpt lat="44.77334" lon="6.31291">
        <ele>2476.2</ele>
        <time>2024-08-12T12:10:36Z</time>
      </trkpt>
      <trkpt lat="44.77333" lon="6.31294">
        <ele>2476.4</ele>
        <time>2024-08-12T12:10:37Z</time>
      </trkpt>
      <trkpt lat="44.77333" lon="6.31294">
        <ele>2476.4</ele>
        <time>2024-08-12T12:10:38Z</time>
      </trkpt>
      <trkpt lat="44.77333" lon="6.31294">
        <ele>2476.4</ele>
        <time>2024-08-12T12:10:39Z</time>
      </trkpt>
      <trkpt lat="44.77331" lon="6.31296">
        <ele>2476.6</ele>
        <time>2024-08-12T12:10:40Z</time>
      </trkpt>
      <trkpt lat="44.77331" lon="6.31296">
        <ele>2476.8</ele>
        <time>2024-08-12T12:10:41Z</time>
      </trkpt>
      <trkpt lat="44.77331" lon="6.31296">
        <ele>2476.8</ele>
        <time>2024-08-12T12:10:42Z</time>
      </trkpt>
      <trkpt lat="44.77329" lon="6.31298">
        <ele>2477</ele>
        <time>2024-08-12T12:10:43Z</time>
      </trkpt>
      <trkpt lat="44.77329" lon="6.31298">
        <ele>2477.2</ele>
        <time>2024-08-12T12:10:44Z</time>
      </trkpt>
      <trkpt lat="44.77328" lon="6.313">
        <ele>2477.6</ele>
        <time>2024-08-12T12:10:45Z</time>
      </trkpt>
      <trkpt lat="44.77328" lon="6.313">
        <ele>2477.8</ele>
        <time>2024-08-12T12:10:46Z</time>
      </trkpt>
      <trkpt lat="44.77326" lon="6.31301">
        <ele>2478.2</ele>
        <time>2024-08-12T12:10:47Z</time>
      </trkpt>
      <trkpt lat="44.77326" lon="6.31301">
        <ele>2478.4</ele>
        <time>2024-08-12T12:10:48Z</time>
      </trkpt>
      <trkpt lat="44.77326" lon="6.31301">
        <ele>2478.6</ele>
        <time>2024-08-12T12:10:49Z</time>
      </trkpt>
      <trkpt lat="44.77324" lon="6.31303">
        <ele>2478.8</ele>
        <time>2024-08-12T12:10:50Z</time>
      </trkpt>
      <trkpt lat="44.77324" lon="6.31303">
        <ele>2478.8</ele>
        <time>2024-08-12T12:10:51Z</time>
      </trkpt>
      <trkpt lat="44.77322" lon="6.31303">
        <ele>2479</ele>
        <time>2024-08-12T12:10:52Z</time>
      </trkpt>
      <trkpt lat="44.77322" lon="6.31303">
        <ele>2479.4</ele>
        <time>2024-08-12T12:10:53Z</time>
      </trkpt>
      <trkpt lat="44.77322" lon="6.31303">
        <ele>2480</ele>
        <time>2024-08-12T12:10:54Z</time>
      </trkpt>
      <trkpt lat="44.77321" lon="6.31305">
        <ele>2480</ele>
        <time>2024-08-12T12:10:55Z</time>
      </trkpt>
      <trkpt lat="44.77321" lon="6.31305">
        <ele>2480</ele>
        <time>2024-08-12T12:10:56Z</time>
      </trkpt>
      <trkpt lat="44.77321" lon="6.31305">
        <ele>2480.2</ele>
        <time>2024-08-12T12:10:57Z</time>
      </trkpt>
      <trkpt lat="44.77321" lon="6.31305">
        <ele>2480.4</ele>
        <time>2024-08-12T12:10:58Z</time>
      </trkpt>
      <trkpt lat="44.77321" lon="6.31305">
        <ele>2480.4</ele>
        <time>2024-08-12T12:10:59Z</time>
      </trkpt>
      <trkpt lat="44.77321" lon="6.31305">
        <ele>2480.6</ele>
        <time>2024-08-12T12:11:00Z</time>
      </trkpt>
      <trkpt lat="44.77321" lon="6.31305">
        <ele>2480.6</ele>
        <time>2024-08-12T12:11:01Z</time>
      </trkpt>
      <trkpt lat="44.77321" lon="6.31305">
        <ele>2481.2</ele>
        <time>2024-08-12T12:11:02Z</time>
      </trkpt>
      <trkpt lat="44.77321" lon="6.31305">
        <ele>2481.2</ele>
        <time>2024-08-12T12:11:03Z</time>
      </trkpt>
      <trkpt lat="44.77321" lon="6.31305">
        <ele>2481.2</ele>
        <time>2024-08-12T12:11:04Z</time>
      </trkpt>
      <trkpt lat="44.77319" lon="6.31303">
        <ele>2481</ele>
        <time>2024-08-12T12:11:05Z</time>
      </trkpt>
      <trkpt lat="44.77319" lon="6.31303">
        <ele>2481</ele>
        <time>2024-08-12T12:11:06Z</time>
      </trkpt>
      <trkpt lat="44.77319" lon="6.31303">
        <ele>2481</ele>
        <time>2024-08-12T12:11:07Z</time>
      </trkpt>
      <trkpt lat="44.77319" lon="6.31303">
        <ele>2481.6</ele>
        <time>2024-08-12T12:11:08Z</time>
      </trkpt>
      <trkpt lat="44.77319" lon="6.31303">
        <ele>2481.6</ele>
        <time>2024-08-12T12:11:09Z</time>
      </trkpt>
      <trkpt lat="44.77319" lon="6.31303">
        <ele>2481.6</ele>
        <time>2024-08-12T12:11:10Z</time>
      </trkpt>
      <trkpt lat="44.77319" lon="6.31303">
        <ele>2482</ele>
        <time>2024-08-12T12:11:11Z</time>
      </trkpt>
      <trkpt lat="44.77319" lon="6.31303">
        <ele>2482.4</ele>
        <time>2024-08-12T12:11:12Z</time>
      </trkpt>
      <trkpt lat="44.77319" lon="6.313">
        <ele>2482.6</ele>
        <time>2024-08-12T12:11:13Z</time>
      </trkpt>
      <trkpt lat="44.77319" lon="6.313">
        <ele>2483</ele>
        <time>2024-08-12T12:11:14Z</time>
      </trkpt>
      <trkpt lat="44.77319" lon="6.31297">
        <ele>2483</ele>
        <time>2024-08-12T12:11:15Z</time>
      </trkpt>
      <trkpt lat="44.77319" lon="6.31297">
        <ele>2483.4</ele>
        <time>2024-08-12T12:11:16Z</time>
      </trkpt>
      <trkpt lat="44.77319" lon="6.31292">
        <ele>2483.4</ele>
        <time>2024-08-12T12:11:17Z</time>
      </trkpt>
      <trkpt lat="44.77319" lon="6.31292">
        <ele>2483.4</ele>
        <time>2024-08-12T12:11:18Z</time>
      </trkpt>
      <trkpt lat="44.77319" lon="6.31288">
        <ele>2483.8</ele>
        <time>2024-08-12T12:11:19Z</time>
      </trkpt>
      <trkpt lat="44.77319" lon="6.31288">
        <ele>2484</ele>
        <time>2024-08-12T12:11:20Z</time>
      </trkpt>
      <trkpt lat="44.77319" lon="6.31286">
        <ele>2484</ele>
        <time>2024-08-12T12:11:21Z</time>
      </trkpt>
      <trkpt lat="44.77319" lon="6.31286">
        <ele>2484.6</ele>
        <time>2024-08-12T12:11:22Z</time>
      </trkpt>
      <trkpt lat="44.77319" lon="6.31286">
        <ele>2484.6</ele>
        <time>2024-08-12T12:11:23Z</time>
      </trkpt>
      <trkpt lat="44.77319" lon="6.31282">
        <ele>2484.8</ele>
        <time>2024-08-12T12:11:24Z</time>
      </trkpt>
      <trkpt lat="44.77319" lon="6.31282">
        <ele>2485</ele>
        <time>2024-08-12T12:11:25Z</time>
      </trkpt>
      <trkpt lat="44.77319" lon="6.31282">
        <ele>2485.2</ele>
        <time>2024-08-12T12:11:26Z</time>
      </trkpt>
      <trkpt lat="44.77319" lon="6.31279">
        <ele>2485.2</ele>
        <time>2024-08-12T12:11:27Z</time>
      </trkpt>
      <trkpt lat="44.77319" lon="6.31279">
        <ele>2485.4</ele>
        <time>2024-08-12T12:11:28Z</time>
      </trkpt>
      <trkpt lat="44.77319" lon="6.31279">
        <ele>2485.6</ele>
        <time>2024-08-12T12:11:29Z</time>
      </trkpt>
      <trkpt lat="44.7732" lon="6.31276">
        <ele>2485.8</ele>
        <time>2024-08-12T12:11:30Z</time>
      </trkpt>
      <trkpt lat="44.7732" lon="6.31276">
        <ele>2486</ele>
        <time>2024-08-12T12:11:31Z</time>
      </trkpt>
      <trkpt lat="44.7732" lon="6.31276">
        <ele>2486</ele>
        <time>2024-08-12T12:11:32Z</time>
      </trkpt>
      <trkpt lat="44.77319" lon="6.31272">
        <ele>2486</ele>
        <time>2024-08-12T12:11:33Z</time>
      </trkpt>
      <trkpt lat="44.77319" lon="6.31272">
        <ele>2486</ele>
        <time>2024-08-12T12:11:34Z</time>
      </trkpt>
      <trkpt lat="44.77319" lon="6.31272">
        <ele>2486.6</ele>
        <time>2024-08-12T12:11:35Z</time>
      </trkpt>
      <trkpt lat="44.77319" lon="6.31269">
        <ele>2486.8</ele>
        <time>2024-08-12T12:11:36Z</time>
      </trkpt>
      <trkpt lat="44.77319" lon="6.31269">
        <ele>2487</ele>
        <time>2024-08-12T12:11:37Z</time>
      </trkpt>
      <trkpt lat="44.77319" lon="6.31269">
        <ele>2487.2</ele>
        <time>2024-08-12T12:11:38Z</time>
      </trkpt>
      <trkpt lat="44.77319" lon="6.31266">
        <ele>2487.4</ele>
        <time>2024-08-12T12:11:39Z</time>
      </trkpt>
      <trkpt lat="44.77319" lon="6.31266">
        <ele>2487.6</ele>
        <time>2024-08-12T12:11:40Z</time>
      </trkpt>
      <trkpt lat="44.77319" lon="6.31266">
        <ele>2487.6</ele>
        <time>2024-08-12T12:11:41Z</time>
      </trkpt>
      <trkpt lat="44.77319" lon="6.31263">
        <ele>2487.6</ele>
        <time>2024-08-12T12:11:42Z</time>
      </trkpt>
      <trkpt lat="44.77319" lon="6.31263">
        <ele>2487.8</ele>
        <time>2024-08-12T12:11:43Z</time>
      </trkpt>
      <trkpt lat="44.77319" lon="6.31263">
        <ele>2488</ele>
        <time>2024-08-12T12:11:44Z</time>
      </trkpt>
      <trkpt lat="44.77319" lon="6.3126">
        <ele>2488</ele>
        <time>2024-08-12T12:11:45Z</time>
      </trkpt>
      <trkpt lat="44.77319" lon="6.3126">
        <ele>2488.4</ele>
        <time>2024-08-12T12:11:46Z</time>
      </trkpt>
      <trkpt lat="44.77319" lon="6.3126">
        <ele>2488.6</ele>
        <time>2024-08-12T12:11:47Z</time>
      </trkpt>
      <trkpt lat="44.77321" lon="6.31257">
        <ele>2488.6</ele>
        <time>2024-08-12T12:11:48Z</time>
      </trkpt>
      <trkpt lat="44.77321" lon="6.31257">
        <ele>2488.8</ele>
        <time>2024-08-12T12:11:49Z</time>
      </trkpt>
      <trkpt lat="44.77321" lon="6.31257">
        <ele>2489</ele>
        <time>2024-08-12T12:11:50Z</time>
      </trkpt>
      <trkpt lat="44.77321" lon="6.31254">
        <ele>2489.2</ele>
        <time>2024-08-12T12:11:51Z</time>
      </trkpt>
      <trkpt lat="44.77321" lon="6.31254">
        <ele>2489.4</ele>
        <time>2024-08-12T12:11:52Z</time>
      </trkpt>
      <trkpt lat="44.77321" lon="6.31254">
        <ele>2489.4</ele>
        <time>2024-08-12T12:11:53Z</time>
      </trkpt>
      <trkpt lat="44.77321" lon="6.31251">
        <ele>2489.6</ele>
        <time>2024-08-12T12:11:54Z</time>
      </trkpt>
      <trkpt lat="44.77321" lon="6.31251">
        <ele>2490</ele>
        <time>2024-08-12T12:11:55Z</time>
      </trkpt>
      <trkpt lat="44.77321" lon="6.31251">
        <ele>2490.2</ele>
        <time>2024-08-12T12:11:56Z</time>
      </trkpt>
      <trkpt lat="44.77321" lon="6.31247">
        <ele>2490.6</ele>
        <time>2024-08-12T12:11:57Z</time>
      </trkpt>
      <trkpt lat="44.77321" lon="6.31247">
        <ele>2490.6</ele>
        <time>2024-08-12T12:11:58Z</time>
      </trkpt>
      <trkpt lat="44.77321" lon="6.31247">
        <ele>2490.8</ele>
        <time>2024-08-12T12:11:59Z</time>
      </trkpt>
      <trkpt lat="44.77322" lon="6.31244">
        <ele>2490.8</ele>
        <time>2024-08-12T12:12:00Z</time>
      </trkpt>
      <trkpt lat="44.77322" lon="6.31244">
        <ele>2491</ele>
        <time>2024-08-12T12:12:01Z</time>
      </trkpt>
      <trkpt lat="44.77322" lon="6.31244">
        <ele>2491.4</ele>
        <time>2024-08-12T12:12:02Z</time>
      </trkpt>
      <trkpt lat="44.77322" lon="6.31241">
        <ele>2491.4</ele>
        <time>2024-08-12T12:12:03Z</time>
      </trkpt>
      <trkpt lat="44.77322" lon="6.31241">
        <ele>2491.4</ele>
        <time>2024-08-12T12:12:04Z</time>
      </trkpt>
      <trkpt lat="44.77322" lon="6.31241">
        <ele>2491.4</ele>
        <time>2024-08-12T12:12:05Z</time>
      </trkpt>
      <trkpt lat="44.77322" lon="6.31238">
        <ele>2491.6</ele>
        <time>2024-08-12T12:12:06Z</time>
      </trkpt>
      <trkpt lat="44.77322" lon="6.31238">
        <ele>2491.6</ele>
        <time>2024-08-12T12:12:07Z</time>
      </trkpt>
      <trkpt lat="44.77322" lon="6.31238">
        <ele>2492</ele>
        <time>2024-08-12T12:12:08Z</time>
      </trkpt>
      <trkpt lat="44.77322" lon="6.31235">
        <ele>2492</ele>
        <time>2024-08-12T12:12:09Z</time>
      </trkpt>
      <trkpt lat="44.77322" lon="6.31235">
        <ele>2492.2</ele>
        <time>2024-08-12T12:12:10Z</time>
      </trkpt>
      <trkpt lat="44.77322" lon="6.31235">
        <ele>2492.6</ele>
        <time>2024-08-12T12:12:11Z</time>
      </trkpt>
      <trkpt lat="44.77322" lon="6.31232">
        <ele>2492.8</ele>
        <time>2024-08-12T12:12:12Z</time>
      </trkpt>
      <trkpt lat="44.77322" lon="6.31232">
        <ele>2493</ele>
        <time>2024-08-12T12:12:13Z</time>
      </trkpt>
      <trkpt lat="44.77322" lon="6.31232">
        <ele>2493.2</ele>
        <time>2024-08-12T12:12:14Z</time>
      </trkpt>
      <trkpt lat="44.77323" lon="6.31229">
        <ele>2493.2</ele>
        <time>2024-08-12T12:12:15Z</time>
      </trkpt>
      <trkpt lat="44.77323" lon="6.31229">
        <ele>2493.2</ele>
        <time>2024-08-12T12:12:16Z</time>
      </trkpt>
      <trkpt lat="44.77323" lon="6.31229">
        <ele>2493.4</ele>
        <time>2024-08-12T12:12:17Z</time>
      </trkpt>
      <trkpt lat="44.77323" lon="6.31227">
        <ele>2493.4</ele>
        <time>2024-08-12T12:12:18Z</time>
      </trkpt>
      <trkpt lat="44.77323" lon="6.31227">
        <ele>2493.4</ele>
        <time>2024-08-12T12:12:19Z</time>
      </trkpt>
      <trkpt lat="44.77323" lon="6.31227">
        <ele>2494</ele>
        <time>2024-08-12T12:12:20Z</time>
      </trkpt>
      <trkpt lat="44.77324" lon="6.31224">
        <ele>2494</ele>
        <time>2024-08-12T12:12:21Z</time>
      </trkpt>
      <trkpt lat="44.77324" lon="6.31224">
        <ele>2494</ele>
        <time>2024-08-12T12:12:22Z</time>
      </trkpt>
      <trkpt lat="44.77324" lon="6.31224">
        <ele>2494.4</ele>
        <time>2024-08-12T12:12:23Z</time>
      </trkpt>
      <trkpt lat="44.77324" lon="6.31224">
        <ele>2494.4</ele>
        <time>2024-08-12T12:12:24Z</time>
      </trkpt>
      <trkpt lat="44.77325" lon="6.31221">
        <ele>2494.6</ele>
        <time>2024-08-12T12:12:25Z</time>
      </trkpt>
      <trkpt lat="44.77325" lon="6.31221">
        <ele>2495</ele>
        <time>2024-08-12T12:12:26Z</time>
      </trkpt>
      <trkpt lat="44.77325" lon="6.31221">
        <ele>2495.2</ele>
        <time>2024-08-12T12:12:27Z</time>
      </trkpt>
      <trkpt lat="44.77325" lon="6.31221">
        <ele>2495.2</ele>
        <time>2024-08-12T12:12:28Z</time>
      </trkpt>
      <trkpt lat="44.77325" lon="6.31221">
        <ele>2495.2</ele>
        <time>2024-08-12T12:12:29Z</time>
      </trkpt>
      <trkpt lat="44.77325" lon="6.31221">
        <ele>2495.2</ele>
        <time>2024-08-12T12:12:30Z</time>
      </trkpt>
      <trkpt lat="44.77325" lon="6.31221">
        <ele>2495.2</ele>
        <time>2024-08-12T12:12:31Z</time>
      </trkpt>
      <trkpt lat="44.77325" lon="6.31221">
        <ele>2495.4</ele>
        <time>2024-08-12T12:12:32Z</time>
      </trkpt>
      <trkpt lat="44.77325" lon="6.31221">
        <ele>2495.6</ele>
        <time>2024-08-12T12:12:33Z</time>
      </trkpt>
      <trkpt lat="44.77325" lon="6.31221">
        <ele>2495.6</ele>
        <time>2024-08-12T12:12:34Z</time>
      </trkpt>
      <trkpt lat="44.77325" lon="6.31221">
        <ele>2495.4</ele>
        <time>2024-08-12T12:12:35Z</time>
      </trkpt>
      <trkpt lat="44.77325" lon="6.31221">
        <ele>2495.4</ele>
        <time>2024-08-12T12:12:36Z</time>
      </trkpt>
      <trkpt lat="44.77325" lon="6.31221">
        <ele>2495.4</ele>
        <time>2024-08-12T12:12:37Z</time>
      </trkpt>
      <trkpt lat="44.77325" lon="6.31221">
        <ele>2495.4</ele>
        <time>2024-08-12T12:12:38Z</time>
      </trkpt>
      <trkpt lat="44.77325" lon="6.31221">
        <ele>2495.4</ele>
        <time>2024-08-12T12:12:39Z</time>
      </trkpt>
      <trkpt lat="44.77325" lon="6.31221">
        <ele>2495.4</ele>
        <time>2024-08-12T12:12:40Z</time>
      </trkpt>
      <trkpt lat="44.77325" lon="6.31221">
        <ele>2495.4</ele>
        <time>2024-08-12T12:12:41Z</time>
      </trkpt>
      <trkpt lat="44.77325" lon="6.31221">
        <ele>2495.4</ele>
        <time>2024-08-12T12:12:42Z</time>
      </trkpt>
      <trkpt lat="44.77324" lon="6.31223">
        <ele>2495.4</ele>
        <time>2024-08-12T12:12:43Z</time>
      </trkpt>
      <trkpt lat="44.77324" lon="6.31223">
        <ele>2495.4</ele>
        <time>2024-08-12T12:12:44Z</time>
      </trkpt>
      <trkpt lat="44.77322" lon="6.31225">
        <ele>2495.6</ele>
        <time>2024-08-12T12:12:45Z</time>
      </trkpt>
      <trkpt lat="44.77322" lon="6.31225">
        <ele>2495.8</ele>
        <time>2024-08-12T12:12:46Z</time>
      </trkpt>
      <trkpt lat="44.77322" lon="6.31225">
        <ele>2496.2</ele>
        <time>2024-08-12T12:12:47Z</time>
      </trkpt>
      <trkpt lat="44.7732" lon="6.31228">
        <ele>2496.4</ele>
        <time>2024-08-12T12:12:48Z</time>
      </trkpt>
      <trkpt lat="44.7732" lon="6.31228">
        <ele>2496.4</ele>
        <time>2024-08-12T12:12:49Z</time>
      </trkpt>
      <trkpt lat="44.7732" lon="6.31228">
        <ele>2496.6</ele>
        <time>2024-08-12T12:12:50Z</time>
      </trkpt>
      <trkpt lat="44.77319" lon="6.3123">
        <ele>2496.6</ele>
        <time>2024-08-12T12:12:51Z</time>
      </trkpt>
      <trkpt lat="44.77319" lon="6.3123">
        <ele>2496.6</ele>
        <time>2024-08-12T12:12:52Z</time>
      </trkpt>
      <trkpt lat="44.77317" lon="6.31232">
        <ele>2497.2</ele>
        <time>2024-08-12T12:12:53Z</time>
      </trkpt>
      <trkpt lat="44.77317" lon="6.31232">
        <ele>2497.8</ele>
        <time>2024-08-12T12:12:54Z</time>
      </trkpt>
      <trkpt lat="44.77316" lon="6.31234">
        <ele>2497.8</ele>
        <time>2024-08-12T12:12:55Z</time>
      </trkpt>
      <trkpt lat="44.77316" lon="6.31234">
        <ele>2498</ele>
        <time>2024-08-12T12:12:56Z</time>
      </trkpt>
      <trkpt lat="44.77315" lon="6.31236">
        <ele>2498</ele>
        <time>2024-08-12T12:12:57Z</time>
      </trkpt>
      <trkpt lat="44.77315" lon="6.31236">
        <ele>2498.2</ele>
        <time>2024-08-12T12:12:58Z</time>
      </trkpt>
      <trkpt lat="44.77313" lon="6.31239">
        <ele>2498.4</ele>
        <time>2024-08-12T12:12:59Z</time>
      </trkpt>
      <trkpt lat="44.77313" lon="6.31239">
        <ele>2498.6</ele>
        <time>2024-08-12T12:13:00Z</time>
      </trkpt>
      <trkpt lat="44.77313" lon="6.31239">
        <ele>2498.6</ele>
        <time>2024-08-12T12:13:01Z</time>
      </trkpt>
      <trkpt lat="44.77311" lon="6.31241">
        <ele>2498.8</ele>
        <time>2024-08-12T12:13:02Z</time>
      </trkpt>
      <trkpt lat="44.77311" lon="6.31241">
        <ele>2499</ele>
        <time>2024-08-12T12:13:03Z</time>
      </trkpt>
      <trkpt lat="44.77311" lon="6.31241">
        <ele>2499.2</ele>
        <time>2024-08-12T12:13:04Z</time>
      </trkpt>
      <trkpt lat="44.77309" lon="6.31243">
        <ele>2499.4</ele>
        <time>2024-08-12T12:13:05Z</time>
      </trkpt>
      <trkpt lat="44.77309" lon="6.31243">
        <ele>2499.4</ele>
        <time>2024-08-12T12:13:06Z</time>
      </trkpt>
      <trkpt lat="44.77308" lon="6.31245">
        <ele>2499.6</ele>
        <time>2024-08-12T12:13:07Z</time>
      </trkpt>
      <trkpt lat="44.77308" lon="6.31245">
        <ele>2499.8</ele>
        <time>2024-08-12T12:13:08Z</time>
      </trkpt>
      <trkpt lat="44.77308" lon="6.31245">
        <ele>2499.8</ele>
        <time>2024-08-12T12:13:09Z</time>
      </trkpt>
      <trkpt lat="44.77307" lon="6.31248">
        <ele>2500.2</ele>
        <time>2024-08-12T12:13:10Z</time>
      </trkpt>
      <trkpt lat="44.77307" lon="6.31248">
        <ele>2500.2</ele>
        <time>2024-08-12T12:13:11Z</time>
      </trkpt>
      <trkpt lat="44.77307" lon="6.31248">
        <ele>2500.4</ele>
        <time>2024-08-12T12:13:12Z</time>
      </trkpt>
      <trkpt lat="44.77306" lon="6.3125">
        <ele>2500.4</ele>
        <time>2024-08-12T12:13:13Z</time>
      </trkpt>
      <trkpt lat="44.77306" lon="6.3125">
        <ele>2500.6</ele>
        <time>2024-08-12T12:13:14Z</time>
      </trkpt>
      <trkpt lat="44.77305" lon="6.31253">
        <ele>2500.6</ele>
        <time>2024-08-12T12:13:15Z</time>
      </trkpt>
      <trkpt lat="44.77305" lon="6.31253">
        <ele>2500.6</ele>
        <time>2024-08-12T12:13:16Z</time>
      </trkpt>
      <trkpt lat="44.77305" lon="6.31253">
        <ele>2500.6</ele>
        <time>2024-08-12T12:13:17Z</time>
      </trkpt>
      <trkpt lat="44.77303" lon="6.31255">
        <ele>2500.6</ele>
        <time>2024-08-12T12:13:18Z</time>
      </trkpt>
      <trkpt lat="44.77303" lon="6.31255">
        <ele>2500.8</ele>
        <time>2024-08-12T12:13:19Z</time>
      </trkpt>
      <trkpt lat="44.77303" lon="6.31255">
        <ele>2500.8</ele>
        <time>2024-08-12T12:13:20Z</time>
      </trkpt>
      <trkpt lat="44.77303" lon="6.31255">
        <ele>2501.2</ele>
        <time>2024-08-12T12:13:21Z</time>
      </trkpt>
      <trkpt lat="44.77301" lon="6.31254">
        <ele>2501.4</ele>
        <time>2024-08-12T12:13:22Z</time>
      </trkpt>
      <trkpt lat="44.77301" lon="6.31254">
        <ele>2501.4</ele>
        <time>2024-08-12T12:13:23Z</time>
      </trkpt>
      <trkpt lat="44.77301" lon="6.31252">
        <ele>2501.6</ele>
        <time>2024-08-12T12:13:24Z</time>
      </trkpt>
      <trkpt lat="44.77301" lon="6.31252">
        <ele>2501.8</ele>
        <time>2024-08-12T12:13:25Z</time>
      </trkpt>
      <trkpt lat="44.77301" lon="6.31252">
        <ele>2502</ele>
        <time>2024-08-12T12:13:26Z</time>
      </trkpt>
      <trkpt lat="44.77301" lon="6.31248">
        <ele>2502</ele>
        <time>2024-08-12T12:13:27Z</time>
      </trkpt>
      <trkpt lat="44.77301" lon="6.31248">
        <ele>2502.2</ele>
        <time>2024-08-12T12:13:28Z</time>
      </trkpt>
      <trkpt lat="44.77301" lon="6.31245">
        <ele>2502.6</ele>
        <time>2024-08-12T12:13:29Z</time>
      </trkpt>
      <trkpt lat="44.77301" lon="6.31245">
        <ele>2502.6</ele>
        <time>2024-08-12T12:13:30Z</time>
      </trkpt>
      <trkpt lat="44.77301" lon="6.31242">
        <ele>2502.6</ele>
        <time>2024-08-12T12:13:31Z</time>
      </trkpt>
      <trkpt lat="44.77301" lon="6.31242">
        <ele>2502.6</ele>
        <time>2024-08-12T12:13:32Z</time>
      </trkpt>
      <trkpt lat="44.77302" lon="6.3124">
        <ele>2502.8</ele>
        <time>2024-08-12T12:13:33Z</time>
      </trkpt>
      <trkpt lat="44.77302" lon="6.3124">
        <ele>2502.8</ele>
        <time>2024-08-12T12:13:34Z</time>
      </trkpt>
      <trkpt lat="44.77302" lon="6.3124">
        <ele>2503</ele>
        <time>2024-08-12T12:13:35Z</time>
      </trkpt>
      <trkpt lat="44.77303" lon="6.31237">
        <ele>2503.6</ele>
        <time>2024-08-12T12:13:36Z</time>
      </trkpt>
      <trkpt lat="44.77303" lon="6.31237">
        <ele>2503.8</ele>
        <time>2024-08-12T12:13:37Z</time>
      </trkpt>
      <trkpt lat="44.77303" lon="6.31237">
        <ele>2504.2</ele>
        <time>2024-08-12T12:13:38Z</time>
      </trkpt>
      <trkpt lat="44.77304" lon="6.31234">
        <ele>2504.2</ele>
        <time>2024-08-12T12:13:39Z</time>
      </trkpt>
      <trkpt lat="44.77304" lon="6.31234">
        <ele>2504.2</ele>
        <time>2024-08-12T12:13:40Z</time>
      </trkpt>
      <trkpt lat="44.77304" lon="6.31231">
        <ele>2504.4</ele>
        <time>2024-08-12T12:13:41Z</time>
      </trkpt>
      <trkpt lat="44.77304" lon="6.31231">
        <ele>2504.6</ele>
        <time>2024-08-12T12:13:42Z</time>
      </trkpt>
      <trkpt lat="44.77304" lon="6.31228">
        <ele>2504.6</ele>
        <time>2024-08-12T12:13:43Z</time>
      </trkpt>
      <trkpt lat="44.77304" lon="6.31228">
        <ele>2504.6</ele>
        <time>2024-08-12T12:13:44Z</time>
      </trkpt>
      <trkpt lat="44.77304" lon="6.31228">
        <ele>2504.8</ele>
        <time>2024-08-12T12:13:45Z</time>
      </trkpt>
      <trkpt lat="44.77304" lon="6.31225">
        <ele>2505.2</ele>
        <time>2024-08-12T12:13:46Z</time>
      </trkpt>
      <trkpt lat="44.77304" lon="6.31225">
        <ele>2505.4</ele>
        <time>2024-08-12T12:13:47Z</time>
      </trkpt>
      <trkpt lat="44.77304" lon="6.31225">
        <ele>2505.6</ele>
        <time>2024-08-12T12:13:48Z</time>
      </trkpt>
      <trkpt lat="44.77306" lon="6.31223">
        <ele>2505.6</ele>
        <time>2024-08-12T12:13:49Z</time>
      </trkpt>
      <trkpt lat="44.77306" lon="6.31223">
        <ele>2505.6</ele>
        <time>2024-08-12T12:13:50Z</time>
      </trkpt>
      <trkpt lat="44.77306" lon="6.31223">
        <ele>2506</ele>
        <time>2024-08-12T12:13:51Z</time>
      </trkpt>
      <trkpt lat="44.77306" lon="6.31223">
        <ele>2506</ele>
        <time>2024-08-12T12:13:52Z</time>
      </trkpt>
      <trkpt lat="44.77306" lon="6.3122">
        <ele>2506</ele>
        <time>2024-08-12T12:13:53Z</time>
      </trkpt>
      <trkpt lat="44.77306" lon="6.3122">
        <ele>2506.8</ele>
        <time>2024-08-12T12:13:54Z</time>
      </trkpt>
      <trkpt lat="44.77306" lon="6.3122">
        <ele>2507.2</ele>
        <time>2024-08-12T12:13:55Z</time>
      </trkpt>
      <trkpt lat="44.77306" lon="6.3122">
        <ele>2507.2</ele>
        <time>2024-08-12T12:13:56Z</time>
      </trkpt>
      <trkpt lat="44.77306" lon="6.31217">
        <ele>2507.4</ele>
        <time>2024-08-12T12:13:57Z</time>
      </trkpt>
      <trkpt lat="44.77306" lon="6.31217">
        <ele>2507.8</ele>
        <time>2024-08-12T12:13:58Z</time>
      </trkpt>
      <trkpt lat="44.77306" lon="6.31217">
        <ele>2507.8</ele>
        <time>2024-08-12T12:13:59Z</time>
      </trkpt>
      <trkpt lat="44.77307" lon="6.31214">
        <ele>2507.8</ele>
        <time>2024-08-12T12:14:00Z</time>
      </trkpt>
      <trkpt lat="44.77307" lon="6.31214">
        <ele>2508</ele>
        <time>2024-08-12T12:14:01Z</time>
      </trkpt>
      <trkpt lat="44.77307" lon="6.31214">
        <ele>2508</ele>
        <time>2024-08-12T12:14:02Z</time>
      </trkpt>
      <trkpt lat="44.77308" lon="6.31211">
        <ele>2508</ele>
        <time>2024-08-12T12:14:03Z</time>
      </trkpt>
      <trkpt lat="44.77308" lon="6.31211">
        <ele>2508.2</ele>
        <time>2024-08-12T12:14:04Z</time>
      </trkpt>
      <trkpt lat="44.77309" lon="6.31209">
        <ele>2508.2</ele>
        <time>2024-08-12T12:14:05Z</time>
      </trkpt>
      <trkpt lat="44.77309" lon="6.31209">
        <ele>2508.6</ele>
        <time>2024-08-12T12:14:06Z</time>
      </trkpt>
      <trkpt lat="44.77311" lon="6.31207">
        <ele>2508.6</ele>
        <time>2024-08-12T12:14:07Z</time>
      </trkpt>
      <trkpt lat="44.77311" lon="6.31207">
        <ele>2508.6</ele>
        <time>2024-08-12T12:14:08Z</time>
      </trkpt>
      <trkpt lat="44.77312" lon="6.31204">
        <ele>2508.6</ele>
        <time>2024-08-12T12:14:09Z</time>
      </trkpt>
      <trkpt lat="44.77312" lon="6.31204">
        <ele>2508.8</ele>
        <time>2024-08-12T12:14:10Z</time>
      </trkpt>
      <trkpt lat="44.77313" lon="6.31203">
        <ele>2509</ele>
        <time>2024-08-12T12:14:11Z</time>
      </trkpt>
      <trkpt lat="44.77313" lon="6.31203">
        <ele>2509</ele>
        <time>2024-08-12T12:14:12Z</time>
      </trkpt>
      <trkpt lat="44.77313" lon="6.31203">
        <ele>2509.4</ele>
        <time>2024-08-12T12:14:13Z</time>
      </trkpt>
      <trkpt lat="44.77314" lon="6.31199">
        <ele>2509.6</ele>
        <time>2024-08-12T12:14:14Z</time>
      </trkpt>
      <trkpt lat="44.77314" lon="6.31199">
        <ele>2509.6</ele>
        <time>2024-08-12T12:14:15Z</time>
      </trkpt>
      <trkpt lat="44.77314" lon="6.31199">
        <ele>2510</ele>
        <time>2024-08-12T12:14:16Z</time>
      </trkpt>
      <trkpt lat="44.77314" lon="6.31196">
        <ele>2510.2</ele>
        <time>2024-08-12T12:14:17Z</time>
      </trkpt>
      <trkpt lat="44.77314" lon="6.31196">
        <ele>2510.6</ele>
        <time>2024-08-12T12:14:18Z</time>
      </trkpt>
      <trkpt lat="44.77314" lon="6.31196">
        <ele>2510.8</ele>
        <time>2024-08-12T12:14:19Z</time>
      </trkpt>
      <trkpt lat="44.77314" lon="6.31193">
        <ele>2510.8</ele>
        <time>2024-08-12T12:14:20Z</time>
      </trkpt>
      <trkpt lat="44.77314" lon="6.31193">
        <ele>2511.2</ele>
        <time>2024-08-12T12:14:21Z</time>
      </trkpt>
      <trkpt lat="44.77315" lon="6.3119">
        <ele>2511.2</ele>
        <time>2024-08-12T12:14:22Z</time>
      </trkpt>
      <trkpt lat="44.77315" lon="6.3119">
        <ele>2511.2</ele>
        <time>2024-08-12T12:14:23Z</time>
      </trkpt>
      <trkpt lat="44.77315" lon="6.3119">
        <ele>2511.4</ele>
        <time>2024-08-12T12:14:24Z</time>
      </trkpt>
      <trkpt lat="44.77316" lon="6.31188">
        <ele>2511.4</ele>
        <time>2024-08-12T12:14:25Z</time>
      </trkpt>
      <trkpt lat="44.77316" lon="6.31188">
        <ele>2511.8</ele>
        <time>2024-08-12T12:14:26Z</time>
      </trkpt>
      <trkpt lat="44.77316" lon="6.31188">
        <ele>2511.8</ele>
        <time>2024-08-12T12:14:27Z</time>
      </trkpt>
      <trkpt lat="44.77316" lon="6.31188">
        <ele>2512.4</ele>
        <time>2024-08-12T12:14:28Z</time>
      </trkpt>
      <trkpt lat="44.77316" lon="6.31188">
        <ele>2512.4</ele>
        <time>2024-08-12T12:14:29Z</time>
      </trkpt>
      <trkpt lat="44.77316" lon="6.31188">
        <ele>2512.6</ele>
        <time>2024-08-12T12:14:30Z</time>
      </trkpt>
      <trkpt lat="44.77316" lon="6.31188">
        <ele>2512.6</ele>
        <time>2024-08-12T12:14:31Z</time>
      </trkpt>
      <trkpt lat="44.77316" lon="6.31188">
        <ele>2512.8</ele>
        <time>2024-08-12T12:14:32Z</time>
      </trkpt>
      <trkpt lat="44.77316" lon="6.31188">
        <ele>2513</ele>
        <time>2024-08-12T12:14:33Z</time>
      </trkpt>
      <trkpt lat="44.77314" lon="6.3119">
        <ele>2513.2</ele>
        <time>2024-08-12T12:14:34Z</time>
      </trkpt>
      <trkpt lat="44.77314" lon="6.3119">
        <ele>2513.4</ele>
        <time>2024-08-12T12:14:35Z</time>
      </trkpt>
      <trkpt lat="44.77314" lon="6.3119">
        <ele>2513.6</ele>
        <time>2024-08-12T12:14:36Z</time>
      </trkpt>
      <trkpt lat="44.77314" lon="6.3119">
        <ele>2513.6</ele>
        <time>2024-08-12T12:14:37Z</time>
      </trkpt>
      <trkpt lat="44.77314" lon="6.3119">
        <ele>2513.8</ele>
        <time>2024-08-12T12:14:38Z</time>
      </trkpt>
      <trkpt lat="44.77314" lon="6.3119">
        <ele>2513.8</ele>
        <time>2024-08-12T12:14:39Z</time>
      </trkpt>
      <trkpt lat="44.77312" lon="6.31191">
        <ele>2514</ele>
        <time>2024-08-12T12:14:40Z</time>
      </trkpt>
      <trkpt lat="44.77312" lon="6.31191">
        <ele>2514</ele>
        <time>2024-08-12T12:14:41Z</time>
      </trkpt>
      <trkpt lat="44.77311" lon="6.31194">
        <ele>2514</ele>
        <time>2024-08-12T12:14:42Z</time>
      </trkpt>
      <trkpt lat="44.77309" lon="6.31195">
        <ele>2514.2</ele>
        <time>2024-08-12T12:14:43Z</time>
      </trkpt>
      <trkpt lat="44.77308" lon="6.31196">
        <ele>2514.2</ele>
        <time>2024-08-12T12:14:44Z</time>
      </trkpt>
      <trkpt lat="44.77307" lon="6.31196">
        <ele>2514.8</ele>
        <time>2024-08-12T12:14:45Z</time>
      </trkpt>
      <trkpt lat="44.77306" lon="6.31197">
        <ele>2515</ele>
        <time>2024-08-12T12:14:46Z</time>
      </trkpt>
      <trkpt lat="44.77306" lon="6.31197">
        <ele>2515</ele>
        <time>2024-08-12T12:14:47Z</time>
      </trkpt>
      <trkpt lat="44.77306" lon="6.31197">
        <ele>2515.4</ele>
        <time>2024-08-12T12:14:48Z</time>
      </trkpt>
      <trkpt lat="44.77305" lon="6.31194">
        <ele>2515.8</ele>
        <time>2024-08-12T12:14:49Z</time>
      </trkpt>
      <trkpt lat="44.77305" lon="6.31194">
        <ele>2515.8</ele>
        <time>2024-08-12T12:14:50Z</time>
      </trkpt>
      <trkpt lat="44.77305" lon="6.31194">
        <ele>2516</ele>
        <time>2024-08-12T12:14:51Z</time>
      </trkpt>
      <trkpt lat="44.77306" lon="6.31191">
        <ele>2516</ele>
        <time>2024-08-12T12:14:52Z</time>
      </trkpt>
      <trkpt lat="44.77306" lon="6.31191">
        <ele>2516.4</ele>
        <time>2024-08-12T12:14:53Z</time>
      </trkpt>
      <trkpt lat="44.77306" lon="6.31188">
        <ele>2516.4</ele>
        <time>2024-08-12T12:14:54Z</time>
      </trkpt>
      <trkpt lat="44.77306" lon="6.31188">
        <ele>2516.6</ele>
        <time>2024-08-12T12:14:55Z</time>
      </trkpt>
      <trkpt lat="44.77307" lon="6.31186">
        <ele>2516.6</ele>
        <time>2024-08-12T12:14:56Z</time>
      </trkpt>
      <trkpt lat="44.77307" lon="6.31186">
        <ele>2517</ele>
        <time>2024-08-12T12:14:57Z</time>
      </trkpt>
      <trkpt lat="44.77307" lon="6.31186">
        <ele>2517.4</ele>
        <time>2024-08-12T12:14:58Z</time>
      </trkpt>
      <trkpt lat="44.77307" lon="6.31186">
        <ele>2517.6</ele>
        <time>2024-08-12T12:14:59Z</time>
      </trkpt>
      <trkpt lat="44.77307" lon="6.31186">
        <ele>2517.8</ele>
        <time>2024-08-12T12:15:00Z</time>
      </trkpt>
      <trkpt lat="44.77307" lon="6.31182">
        <ele>2518.2</ele>
        <time>2024-08-12T12:15:01Z</time>
      </trkpt>
      <trkpt lat="44.77307" lon="6.31182">
        <ele>2518.6</ele>
        <time>2024-08-12T12:15:02Z</time>
      </trkpt>
      <trkpt lat="44.77306" lon="6.31179">
        <ele>2518.6</ele>
        <time>2024-08-12T12:15:03Z</time>
      </trkpt>
      <trkpt lat="44.77306" lon="6.31179">
        <ele>2518.6</ele>
        <time>2024-08-12T12:15:04Z</time>
      </trkpt>
      <trkpt lat="44.77306" lon="6.31176">
        <ele>2518.8</ele>
        <time>2024-08-12T12:15:05Z</time>
      </trkpt>
      <trkpt lat="44.77306" lon="6.31176">
        <ele>2518.8</ele>
        <time>2024-08-12T12:15:06Z</time>
      </trkpt>
      <trkpt lat="44.77306" lon="6.31176">
        <ele>2518.8</ele>
        <time>2024-08-12T12:15:07Z</time>
      </trkpt>
      <trkpt lat="44.77304" lon="6.31174">
        <ele>2519</ele>
        <time>2024-08-12T12:15:08Z</time>
      </trkpt>
      <trkpt lat="44.77304" lon="6.31174">
        <ele>2519.2</ele>
        <time>2024-08-12T12:15:09Z</time>
      </trkpt>
      <trkpt lat="44.77304" lon="6.31174">
        <ele>2519.2</ele>
        <time>2024-08-12T12:15:10Z</time>
      </trkpt>
      <trkpt lat="44.77303" lon="6.31171">
        <ele>2519.4</ele>
        <time>2024-08-12T12:15:11Z</time>
      </trkpt>
      <trkpt lat="44.77303" lon="6.31171">
        <ele>2519.4</ele>
        <time>2024-08-12T12:15:12Z</time>
      </trkpt>
      <trkpt lat="44.77303" lon="6.31171">
        <ele>2519.4</ele>
        <time>2024-08-12T12:15:13Z</time>
      </trkpt>
      <trkpt lat="44.77302" lon="6.31167">
        <ele>2519.8</ele>
        <time>2024-08-12T12:15:14Z</time>
      </trkpt>
      <trkpt lat="44.77302" lon="6.31167">
        <ele>2519.8</ele>
        <time>2024-08-12T12:15:15Z</time>
      </trkpt>
      <trkpt lat="44.77302" lon="6.31167">
        <ele>2520</ele>
        <time>2024-08-12T12:15:16Z</time>
      </trkpt>
      <trkpt lat="44.77302" lon="6.31167">
        <ele>2520</ele>
        <time>2024-08-12T12:15:17Z</time>
      </trkpt>
      <trkpt lat="44.77301" lon="6.31165">
        <ele>2520.2</ele>
        <time>2024-08-12T12:15:18Z</time>
      </trkpt>
      <trkpt lat="44.77301" lon="6.31165">
        <ele>2520.2</ele>
        <time>2024-08-12T12:15:19Z</time>
      </trkpt>
      <trkpt lat="44.77301" lon="6.31165">
        <ele>2520.2</ele>
        <time>2024-08-12T12:15:20Z</time>
      </trkpt>
      <trkpt lat="44.773" lon="6.31163">
        <ele>2520.6</ele>
        <time>2024-08-12T12:15:21Z</time>
      </trkpt>
      <trkpt lat="44.773" lon="6.31163">
        <ele>2520.8</ele>
        <time>2024-08-12T12:15:22Z</time>
      </trkpt>
      <trkpt lat="44.773" lon="6.31163">
        <ele>2521</ele>
        <time>2024-08-12T12:15:23Z</time>
      </trkpt>
      <trkpt lat="44.77298" lon="6.3116">
        <ele>2521.4</ele>
        <time>2024-08-12T12:15:24Z</time>
      </trkpt>
      <trkpt lat="44.77298" lon="6.3116">
        <ele>2521.6</ele>
        <time>2024-08-12T12:15:25Z</time>
      </trkpt>
      <trkpt lat="44.77298" lon="6.3116">
        <ele>2521.8</ele>
        <time>2024-08-12T12:15:26Z</time>
      </trkpt>
      <trkpt lat="44.77298" lon="6.31158">
        <ele>2522</ele>
        <time>2024-08-12T12:15:27Z</time>
      </trkpt>
      <trkpt lat="44.77298" lon="6.31158">
        <ele>2522.2</ele>
        <time>2024-08-12T12:15:28Z</time>
      </trkpt>
      <trkpt lat="44.77298" lon="6.31158">
        <ele>2522.2</ele>
        <time>2024-08-12T12:15:29Z</time>
      </trkpt>
      <trkpt lat="44.77298" lon="6.31158">
        <ele>2522.4</ele>
        <time>2024-08-12T12:15:30Z</time>
      </trkpt>
      <trkpt lat="44.77298" lon="6.31158">
        <ele>2522.4</ele>
        <time>2024-08-12T12:15:31Z</time>
      </trkpt>
      <trkpt lat="44.77297" lon="6.31155">
        <ele>2522.6</ele>
        <time>2024-08-12T12:15:32Z</time>
      </trkpt>
      <trkpt lat="44.77297" lon="6.31155">
        <ele>2523</ele>
        <time>2024-08-12T12:15:33Z</time>
      </trkpt>
      <trkpt lat="44.77297" lon="6.31155">
        <ele>2523</ele>
        <time>2024-08-12T12:15:34Z</time>
      </trkpt>
      <trkpt lat="44.77297" lon="6.31155">
        <ele>2523.2</ele>
        <time>2024-08-12T12:15:35Z</time>
      </trkpt>
      <trkpt lat="44.77297" lon="6.31155">
        <ele>2523.4</ele>
        <time>2024-08-12T12:15:36Z</time>
      </trkpt>
      <trkpt lat="44.77297" lon="6.31155">
        <ele>2523.4</ele>
        <time>2024-08-12T12:15:37Z</time>
      </trkpt>
      <trkpt lat="44.77297" lon="6.31155">
        <ele>2523.4</ele>
        <time>2024-08-12T12:15:38Z</time>
      </trkpt>
      <trkpt lat="44.77297" lon="6.31155">
        <ele>2523.4</ele>
        <time>2024-08-12T12:15:39Z</time>
      </trkpt>
      <trkpt lat="44.77297" lon="6.31155">
        <ele>2523.4</ele>
        <time>2024-08-12T12:15:40Z</time>
      </trkpt>
      <trkpt lat="44.77297" lon="6.31155">
        <ele>2523.4</ele>
        <time>2024-08-12T12:15:41Z</time>
      </trkpt>
      <trkpt lat="44.77297" lon="6.31155">
        <ele>2523.2</ele>
        <time>2024-08-12T12:15:42Z</time>
      </trkpt>
      <trkpt lat="44.77297" lon="6.31155">
        <ele>2523.2</ele>
        <time>2024-08-12T12:15:43Z</time>
      </trkpt>
      <trkpt lat="44.77297" lon="6.31155">
        <ele>2523.6</ele>
        <time>2024-08-12T12:15:44Z</time>
      </trkpt>
      <trkpt lat="44.77297" lon="6.31155">
        <ele>2524</ele>
        <time>2024-08-12T12:15:45Z</time>
      </trkpt>
      <trkpt lat="44.77297" lon="6.31155">
        <ele>2524.2</ele>
        <time>2024-08-12T12:15:46Z</time>
      </trkpt>
      <trkpt lat="44.77296" lon="6.31153">
        <ele>2524.2</ele>
        <time>2024-08-12T12:15:47Z</time>
      </trkpt>
      <trkpt lat="44.77296" lon="6.31153">
        <ele>2524.4</ele>
        <time>2024-08-12T12:15:48Z</time>
      </trkpt>
      <trkpt lat="44.77296" lon="6.31153">
        <ele>2524.8</ele>
        <time>2024-08-12T12:15:49Z</time>
      </trkpt>
      <trkpt lat="44.77294" lon="6.31151">
        <ele>2525</ele>
        <time>2024-08-12T12:15:50Z</time>
      </trkpt>
      <trkpt lat="44.77294" lon="6.31151">
        <ele>2525.4</ele>
        <time>2024-08-12T12:15:51Z</time>
      </trkpt>
      <trkpt lat="44.77294" lon="6.31151">
        <ele>2525.4</ele>
        <time>2024-08-12T12:15:52Z</time>
      </trkpt>
      <trkpt lat="44.77294" lon="6.31151">
        <ele>2525.6</ele>
        <time>2024-08-12T12:15:53Z</time>
      </trkpt>
      <trkpt lat="44.77293" lon="6.3115">
        <ele>2525.6</ele>
        <time>2024-08-12T12:15:54Z</time>
      </trkpt>
      <trkpt lat="44.77293" lon="6.3115">
        <ele>2526</ele>
        <time>2024-08-12T12:15:55Z</time>
      </trkpt>
      <trkpt lat="44.77293" lon="6.3115">
        <ele>2526.2</ele>
        <time>2024-08-12T12:15:56Z</time>
      </trkpt>
      <trkpt lat="44.77293" lon="6.3115">
        <ele>2526.4</ele>
        <time>2024-08-12T12:15:57Z</time>
      </trkpt>
      <trkpt lat="44.77293" lon="6.3115">
        <ele>2526.4</ele>
        <time>2024-08-12T12:15:58Z</time>
      </trkpt>
      <trkpt lat="44.77293" lon="6.3115">
        <ele>2526.6</ele>
        <time>2024-08-12T12:15:59Z</time>
      </trkpt>
      <trkpt lat="44.77293" lon="6.3115">
        <ele>2526.8</ele>
        <time>2024-08-12T12:16:00Z</time>
      </trkpt>
      <trkpt lat="44.77293" lon="6.3115">
        <ele>2526.8</ele>
        <time>2024-08-12T12:16:01Z</time>
      </trkpt>
      <trkpt lat="44.77293" lon="6.3115">
        <ele>2526.8</ele>
        <time>2024-08-12T12:16:02Z</time>
      </trkpt>
      <trkpt lat="44.77293" lon="6.3115">
        <ele>2526.8</ele>
        <time>2024-08-12T12:16:03Z</time>
      </trkpt>
      <trkpt lat="44.77293" lon="6.3115">
        <ele>2527</ele>
        <time>2024-08-12T12:16:04Z</time>
      </trkpt>
      <trkpt lat="44.77293" lon="6.3115">
        <ele>2527.4</ele>
        <time>2024-08-12T12:16:05Z</time>
      </trkpt>
      <trkpt lat="44.77293" lon="6.3115">
        <ele>2527.8</ele>
        <time>2024-08-12T12:16:06Z</time>
      </trkpt>
      <trkpt lat="44.77293" lon="6.3115">
        <ele>2528.2</ele>
        <time>2024-08-12T12:16:07Z</time>
      </trkpt>
      <trkpt lat="44.77293" lon="6.3115">
        <ele>2528.8</ele>
        <time>2024-08-12T12:16:08Z</time>
      </trkpt>
      <trkpt lat="44.77293" lon="6.3115">
        <ele>2529.2</ele>
        <time>2024-08-12T12:16:09Z</time>
      </trkpt>
      <trkpt lat="44.77293" lon="6.3115">
        <ele>2529.2</ele>
        <time>2024-08-12T12:16:10Z</time>
      </trkpt>
      <trkpt lat="44.77293" lon="6.3115">
        <ele>2529.4</ele>
        <time>2024-08-12T12:16:11Z</time>
      </trkpt>
      <trkpt lat="44.77293" lon="6.3115">
        <ele>2529.4</ele>
        <time>2024-08-12T12:16:12Z</time>
      </trkpt>
      <trkpt lat="44.77293" lon="6.3115">
        <ele>2529.6</ele>
        <time>2024-08-12T12:16:13Z</time>
      </trkpt>
      <trkpt lat="44.77293" lon="6.3115">
        <ele>2530</ele>
        <time>2024-08-12T12:16:14Z</time>
      </trkpt>
      <trkpt lat="44.77293" lon="6.3115">
        <ele>2530.2</ele>
        <time>2024-08-12T12:16:15Z</time>
      </trkpt>
      <trkpt lat="44.77293" lon="6.3115">
        <ele>2530.4</ele>
        <time>2024-08-12T12:16:16Z</time>
      </trkpt>
      <trkpt lat="44.77293" lon="6.3115">
        <ele>2530.8</ele>
        <time>2024-08-12T12:16:17Z</time>
      </trkpt>
      <trkpt lat="44.77293" lon="6.3115">
        <ele>2531.2</ele>
        <time>2024-08-12T12:16:18Z</time>
      </trkpt>
      <trkpt lat="44.77293" lon="6.3115">
        <ele>2531.4</ele>
        <time>2024-08-12T12:16:19Z</time>
      </trkpt>
      <trkpt lat="44.77293" lon="6.3115">
        <ele>2531.8</ele>
        <time>2024-08-12T12:16:20Z</time>
      </trkpt>
      <trkpt lat="44.77293" lon="6.3115">
        <ele>2532</ele>
        <time>2024-08-12T12:16:21Z</time>
      </trkpt>
      <trkpt lat="44.77293" lon="6.3115">
        <ele>2532</ele>
        <time>2024-08-12T12:16:22Z</time>
      </trkpt>
      <trkpt lat="44.77293" lon="6.3115">
        <ele>2532.2</ele>
        <time>2024-08-12T12:16:23Z</time>
      </trkpt>
      <trkpt lat="44.77292" lon="6.31146">
        <ele>2532.2</ele>
        <time>2024-08-12T12:16:24Z</time>
      </trkpt>
      <trkpt lat="44.77292" lon="6.31146">
        <ele>2532.2</ele>
        <time>2024-08-12T12:16:25Z</time>
      </trkpt>
      <trkpt lat="44.77292" lon="6.31141">
        <ele>2532.2</ele>
        <time>2024-08-12T12:16:26Z</time>
      </trkpt>
      <trkpt lat="44.77293" lon="6.31138">
        <ele>2532</ele>
        <time>2024-08-12T12:16:27Z</time>
      </trkpt>
      <trkpt lat="44.77293" lon="6.31138">
        <ele>2532</ele>
        <time>2024-08-12T12:16:28Z</time>
      </trkpt>
      <trkpt lat="44.77294" lon="6.31134">
        <ele>2532</ele>
        <time>2024-08-12T12:16:29Z</time>
      </trkpt>
      <trkpt lat="44.77294" lon="6.31134">
        <ele>2531.4</ele>
        <time>2024-08-12T12:16:30Z</time>
      </trkpt>
      <trkpt lat="44.77295" lon="6.31131">
        <ele>2531.2</ele>
        <time>2024-08-12T12:16:31Z</time>
      </trkpt>
      <trkpt lat="44.77295" lon="6.31131">
        <ele>2531</ele>
        <time>2024-08-12T12:16:32Z</time>
      </trkpt>
      <trkpt lat="44.77295" lon="6.31131">
        <ele>2531</ele>
        <time>2024-08-12T12:16:33Z</time>
      </trkpt>
      <trkpt lat="44.77296" lon="6.31128">
        <ele>2531</ele>
        <time>2024-08-12T12:16:34Z</time>
      </trkpt>
      <trkpt lat="44.77296" lon="6.31128">
        <ele>2530.6</ele>
        <time>2024-08-12T12:16:35Z</time>
      </trkpt>
      <trkpt lat="44.77296" lon="6.31128">
        <ele>2530.6</ele>
        <time>2024-08-12T12:16:36Z</time>
      </trkpt>
      <trkpt lat="44.77296" lon="6.31128">
        <ele>2530.6</ele>
        <time>2024-08-12T12:16:37Z</time>
      </trkpt>
      <trkpt lat="44.77297" lon="6.31125">
        <ele>2530.4</ele>
        <time>2024-08-12T12:16:38Z</time>
      </trkpt>
      <trkpt lat="44.77297" lon="6.31125">
        <ele>2530.2</ele>
        <time>2024-08-12T12:16:39Z</time>
      </trkpt>
      <trkpt lat="44.77298" lon="6.31122">
        <ele>2529.8</ele>
        <time>2024-08-12T12:16:40Z</time>
      </trkpt>
      <trkpt lat="44.77298" lon="6.31122">
        <ele>2529.6</ele>
        <time>2024-08-12T12:16:41Z</time>
      </trkpt>
      <trkpt lat="44.77298" lon="6.31119">
        <ele>2529.6</ele>
        <time>2024-08-12T12:16:42Z</time>
      </trkpt>
      <trkpt lat="44.77298" lon="6.31119">
        <ele>2529.6</ele>
        <time>2024-08-12T12:16:43Z</time>
      </trkpt>
      <trkpt lat="44.77299" lon="6.31116">
        <ele>2529.6</ele>
        <time>2024-08-12T12:16:44Z</time>
      </trkpt>
      <trkpt lat="44.77299" lon="6.31116">
        <ele>2529.6</ele>
        <time>2024-08-12T12:16:45Z</time>
      </trkpt>
      <trkpt lat="44.773" lon="6.31113">
        <ele>2529.6</ele>
        <time>2024-08-12T12:16:46Z</time>
      </trkpt>
      <trkpt lat="44.773" lon="6.31113">
        <ele>2529.6</ele>
        <time>2024-08-12T12:16:47Z</time>
      </trkpt>
      <trkpt lat="44.77299" lon="6.31111">
        <ele>2529.6</ele>
        <time>2024-08-12T12:16:48Z</time>
      </trkpt>
      <trkpt lat="44.77299" lon="6.31111">
        <ele>2529.6</ele>
        <time>2024-08-12T12:16:49Z</time>
      </trkpt>
      <trkpt lat="44.77298" lon="6.31108">
        <ele>2529.6</ele>
        <time>2024-08-12T12:16:50Z</time>
      </trkpt>
      <trkpt lat="44.77298" lon="6.31108">
        <ele>2530</ele>
        <time>2024-08-12T12:16:51Z</time>
      </trkpt>
      <trkpt lat="44.77298" lon="6.31108">
        <ele>2530</ele>
        <time>2024-08-12T12:16:52Z</time>
      </trkpt>
      <trkpt lat="44.77298" lon="6.31105">
        <ele>2530.2</ele>
        <time>2024-08-12T12:16:53Z</time>
      </trkpt>
      <trkpt lat="44.77298" lon="6.31105">
        <ele>2530.2</ele>
        <time>2024-08-12T12:16:54Z</time>
      </trkpt>
      <trkpt lat="44.77298" lon="6.31105">
        <ele>2530.2</ele>
        <time>2024-08-12T12:16:55Z</time>
      </trkpt>
      <trkpt lat="44.77298" lon="6.31102">
        <ele>2530.4</ele>
        <time>2024-08-12T12:16:56Z</time>
      </trkpt>
      <trkpt lat="44.77298" lon="6.31102">
        <ele>2530.6</ele>
        <time>2024-08-12T12:16:57Z</time>
      </trkpt>
      <trkpt lat="44.77298" lon="6.31102">
        <ele>2531</ele>
        <time>2024-08-12T12:16:58Z</time>
      </trkpt>
      <trkpt lat="44.77299" lon="6.31098">
        <ele>2531.4</ele>
        <time>2024-08-12T12:16:59Z</time>
      </trkpt>
      <trkpt lat="44.77299" lon="6.31098">
        <ele>2531.6</ele>
        <time>2024-08-12T12:17:00Z</time>
      </trkpt>
      <trkpt lat="44.77299" lon="6.31098">
        <ele>2531.8</ele>
        <time>2024-08-12T12:17:01Z</time>
      </trkpt>
      <trkpt lat="44.77299" lon="6.31098">
        <ele>2532.2</ele>
        <time>2024-08-12T12:17:02Z</time>
      </trkpt>
      <trkpt lat="44.77298" lon="6.31095">
        <ele>2532.2</ele>
        <time>2024-08-12T12:17:03Z</time>
      </trkpt>
      <trkpt lat="44.77298" lon="6.31095">
        <ele>2532.6</ele>
        <time>2024-08-12T12:17:04Z</time>
      </trkpt>
      <trkpt lat="44.77298" lon="6.31095">
        <ele>2532.8</ele>
        <time>2024-08-12T12:17:05Z</time>
      </trkpt>
      <trkpt lat="44.77299" lon="6.31092">
        <ele>2533</ele>
        <time>2024-08-12T12:17:06Z</time>
      </trkpt>
      <trkpt lat="44.77299" lon="6.31092">
        <ele>2533.4</ele>
        <time>2024-08-12T12:17:07Z</time>
      </trkpt>
      <trkpt lat="44.77299" lon="6.31092">
        <ele>2533.8</ele>
        <time>2024-08-12T12:17:08Z</time>
      </trkpt>
      <trkpt lat="44.773" lon="6.31089">
        <ele>2534.4</ele>
        <time>2024-08-12T12:17:09Z</time>
      </trkpt>
      <trkpt lat="44.773" lon="6.31089">
        <ele>2534.4</ele>
        <time>2024-08-12T12:17:10Z</time>
      </trkpt>
      <trkpt lat="44.773" lon="6.31089">
        <ele>2534.8</ele>
        <time>2024-08-12T12:17:11Z</time>
      </trkpt>
      <trkpt lat="44.773" lon="6.31087">
        <ele>2535.2</ele>
        <time>2024-08-12T12:17:12Z</time>
      </trkpt>
      <trkpt lat="44.773" lon="6.31087">
        <ele>2535.2</ele>
        <time>2024-08-12T12:17:13Z</time>
      </trkpt>
      <trkpt lat="44.773" lon="6.31087">
        <ele>2535.4</ele>
        <time>2024-08-12T12:17:14Z</time>
      </trkpt>
      <trkpt lat="44.773" lon="6.31083">
        <ele>2535.6</ele>
        <time>2024-08-12T12:17:15Z</time>
      </trkpt>
      <trkpt lat="44.773" lon="6.31083">
        <ele>2536</ele>
        <time>2024-08-12T12:17:16Z</time>
      </trkpt>
      <trkpt lat="44.773" lon="6.31083">
        <ele>2536</ele>
        <time>2024-08-12T12:17:17Z</time>
      </trkpt>
      <trkpt lat="44.773" lon="6.31083">
        <ele>2536.4</ele>
        <time>2024-08-12T12:17:18Z</time>
      </trkpt>
      <trkpt lat="44.773" lon="6.3108">
        <ele>2536.6</ele>
        <time>2024-08-12T12:17:19Z</time>
      </trkpt>
      <trkpt lat="44.773" lon="6.3108">
        <ele>2537</ele>
        <time>2024-08-12T12:17:20Z</time>
      </trkpt>
      <trkpt lat="44.773" lon="6.3108">
        <ele>2537</ele>
        <time>2024-08-12T12:17:21Z</time>
      </trkpt>
      <trkpt lat="44.773" lon="6.3108">
        <ele>2537</ele>
        <time>2024-08-12T12:17:22Z</time>
      </trkpt>
      <trkpt lat="44.77299" lon="6.31076">
        <ele>2537.6</ele>
        <time>2024-08-12T12:17:23Z</time>
      </trkpt>
      <trkpt lat="44.77299" lon="6.31076">
        <ele>2537.8</ele>
        <time>2024-08-12T12:17:24Z</time>
      </trkpt>
      <trkpt lat="44.77298" lon="6.31074">
        <ele>2537.8</ele>
        <time>2024-08-12T12:17:25Z</time>
      </trkpt>
      <trkpt lat="44.77298" lon="6.31074">
        <ele>2538</ele>
        <time>2024-08-12T12:17:26Z</time>
      </trkpt>
      <trkpt lat="44.77298" lon="6.31074">
        <ele>2538.2</ele>
        <time>2024-08-12T12:17:27Z</time>
      </trkpt>
      <trkpt lat="44.77298" lon="6.31071">
        <ele>2538.2</ele>
        <time>2024-08-12T12:17:28Z</time>
      </trkpt>
      <trkpt lat="44.77298" lon="6.31071">
        <ele>2538</ele>
        <time>2024-08-12T12:17:29Z</time>
      </trkpt>
      <trkpt lat="44.77298" lon="6.31071">
        <ele>2538</ele>
        <time>2024-08-12T12:17:30Z</time>
      </trkpt>
      <trkpt lat="44.77298" lon="6.31068">
        <ele>2538</ele>
        <time>2024-08-12T12:17:31Z</time>
      </trkpt>
      <trkpt lat="44.77298" lon="6.31068">
        <ele>2538</ele>
        <time>2024-08-12T12:17:32Z</time>
      </trkpt>
      <trkpt lat="44.77298" lon="6.31068">
        <ele>2537.8</ele>
        <time>2024-08-12T12:17:33Z</time>
      </trkpt>
      <trkpt lat="44.77298" lon="6.31068">
        <ele>2537.4</ele>
        <time>2024-08-12T12:17:34Z</time>
      </trkpt>
      <trkpt lat="44.77298" lon="6.31068">
        <ele>2536.8</ele>
        <time>2024-08-12T12:17:35Z</time>
      </trkpt>
      <trkpt lat="44.77298" lon="6.31068">
        <ele>2536.8</ele>
        <time>2024-08-12T12:17:36Z</time>
      </trkpt>
      <trkpt lat="44.77298" lon="6.31068">
        <ele>2536.8</ele>
        <time>2024-08-12T12:17:37Z</time>
      </trkpt>
      <trkpt lat="44.77298" lon="6.31068">
        <ele>2536.8</ele>
        <time>2024-08-12T12:17:38Z</time>
      </trkpt>
      <trkpt lat="44.77298" lon="6.31068">
        <ele>2536.6</ele>
        <time>2024-08-12T12:17:39Z</time>
      </trkpt>
      <trkpt lat="44.77298" lon="6.31068">
        <ele>2536.6</ele>
        <time>2024-08-12T12:17:40Z</time>
      </trkpt>
      <trkpt lat="44.77298" lon="6.31068">
        <ele>2536.8</ele>
        <time>2024-08-12T12:17:41Z</time>
      </trkpt>
      <trkpt lat="44.77298" lon="6.31068">
        <ele>2536.8</ele>
        <time>2024-08-12T12:17:42Z</time>
      </trkpt>
      <trkpt lat="44.77298" lon="6.31068">
        <ele>2536.6</ele>
        <time>2024-08-12T12:17:43Z</time>
      </trkpt>
      <trkpt lat="44.77298" lon="6.31068">
        <ele>2536.2</ele>
        <time>2024-08-12T12:17:44Z</time>
      </trkpt>
      <trkpt lat="44.77298" lon="6.31068">
        <ele>2536.2</ele>
        <time>2024-08-12T12:17:45Z</time>
      </trkpt>
      <trkpt lat="44.77298" lon="6.31068">
        <ele>2536.2</ele>
        <time>2024-08-12T12:17:46Z</time>
      </trkpt>
      <trkpt lat="44.77298" lon="6.31068">
        <ele>2536.2</ele>
        <time>2024-08-12T12:17:47Z</time>
      </trkpt>
      <trkpt lat="44.77298" lon="6.31068">
        <ele>2536.4</ele>
        <time>2024-08-12T12:17:48Z</time>
      </trkpt>
      <trkpt lat="44.77298" lon="6.31068">
        <ele>2536.4</ele>
        <time>2024-08-12T12:17:49Z</time>
      </trkpt>
      <trkpt lat="44.77298" lon="6.31068">
        <ele>2536.8</ele>
        <time>2024-08-12T12:17:50Z</time>
      </trkpt>
      <trkpt lat="44.77298" lon="6.31068">
        <ele>2537</ele>
        <time>2024-08-12T12:17:51Z</time>
      </trkpt>
      <trkpt lat="44.77298" lon="6.31068">
        <ele>2537</ele>
        <time>2024-08-12T12:17:52Z</time>
      </trkpt>
      <trkpt lat="44.77298" lon="6.31065">
        <ele>2537</ele>
        <time>2024-08-12T12:17:53Z</time>
      </trkpt>
      <trkpt lat="44.77298" lon="6.31065">
        <ele>2537</ele>
        <time>2024-08-12T12:17:54Z</time>
      </trkpt>
      <trkpt lat="44.77298" lon="6.31062">
        <ele>2536.8</ele>
        <time>2024-08-12T12:17:55Z</time>
      </trkpt>
      <trkpt lat="44.77298" lon="6.31062">
        <ele>2536.8</ele>
        <time>2024-08-12T12:17:56Z</time>
      </trkpt>
      <trkpt lat="44.77298" lon="6.31058">
        <ele>2536.6</ele>
        <time>2024-08-12T12:17:57Z</time>
      </trkpt>
      <trkpt lat="44.77298" lon="6.31058">
        <ele>2536.4</ele>
        <time>2024-08-12T12:17:58Z</time>
      </trkpt>
      <trkpt lat="44.77298" lon="6.31054">
        <ele>2536.2</ele>
        <time>2024-08-12T12:17:59Z</time>
      </trkpt>
      <trkpt lat="44.77298" lon="6.31054">
        <ele>2536</ele>
        <time>2024-08-12T12:18:00Z</time>
      </trkpt>
      <trkpt lat="44.77299" lon="6.31051">
        <ele>2536</ele>
        <time>2024-08-12T12:18:01Z</time>
      </trkpt>
      <trkpt lat="44.77299" lon="6.31051">
        <ele>2535.4</ele>
        <time>2024-08-12T12:18:02Z</time>
      </trkpt>
      <trkpt lat="44.77299" lon="6.31051">
        <ele>2535.4</ele>
        <time>2024-08-12T12:18:03Z</time>
      </trkpt>
      <trkpt lat="44.77299" lon="6.31048">
        <ele>2535.8</ele>
        <time>2024-08-12T12:18:04Z</time>
      </trkpt>
      <trkpt lat="44.77299" lon="6.31048">
        <ele>2535.8</ele>
        <time>2024-08-12T12:18:05Z</time>
      </trkpt>
      <trkpt lat="44.773" lon="6.31045">
        <ele>2535.8</ele>
        <time>2024-08-12T12:18:06Z</time>
      </trkpt>
      <trkpt lat="44.773" lon="6.31045">
        <ele>2536</ele>
        <time>2024-08-12T12:18:07Z</time>
      </trkpt>
      <trkpt lat="44.773" lon="6.31045">
        <ele>2536</ele>
        <time>2024-08-12T12:18:08Z</time>
      </trkpt>
      <trkpt lat="44.773" lon="6.31042">
        <ele>2536.4</ele>
        <time>2024-08-12T12:18:09Z</time>
      </trkpt>
      <trkpt lat="44.773" lon="6.31042">
        <ele>2536.8</ele>
        <time>2024-08-12T12:18:10Z</time>
      </trkpt>
      <trkpt lat="44.773" lon="6.31039">
        <ele>2536.8</ele>
        <time>2024-08-12T12:18:11Z</time>
      </trkpt>
      <trkpt lat="44.773" lon="6.31039">
        <ele>2536.8</ele>
        <time>2024-08-12T12:18:12Z</time>
      </trkpt>
      <trkpt lat="44.773" lon="6.31035">
        <ele>2536.8</ele>
        <time>2024-08-12T12:18:13Z</time>
      </trkpt>
      <trkpt lat="44.773" lon="6.31035">
        <ele>2536.8</ele>
        <time>2024-08-12T12:18:14Z</time>
      </trkpt>
      <trkpt lat="44.773" lon="6.31032">
        <ele>2536.6</ele>
        <time>2024-08-12T12:18:15Z</time>
      </trkpt>
      <trkpt lat="44.773" lon="6.31032">
        <ele>2536.6</ele>
        <time>2024-08-12T12:18:16Z</time>
      </trkpt>
      <trkpt lat="44.773" lon="6.31032">
        <ele>2536.6</ele>
        <time>2024-08-12T12:18:17Z</time>
      </trkpt>
      <trkpt lat="44.773" lon="6.31032">
        <ele>2536.8</ele>
        <time>2024-08-12T12:18:18Z</time>
      </trkpt>
      <trkpt lat="44.773" lon="6.31029">
        <ele>2537</ele>
        <time>2024-08-12T12:18:19Z</time>
      </trkpt>
      <trkpt lat="44.773" lon="6.31029">
        <ele>2537</ele>
        <time>2024-08-12T12:18:20Z</time>
      </trkpt>
      <trkpt lat="44.773" lon="6.31029">
        <ele>2537.4</ele>
        <time>2024-08-12T12:18:21Z</time>
      </trkpt>
      <trkpt lat="44.77301" lon="6.31026">
        <ele>2537.8</ele>
        <time>2024-08-12T12:18:22Z</time>
      </trkpt>
      <trkpt lat="44.77301" lon="6.31026">
        <ele>2538</ele>
        <time>2024-08-12T12:18:23Z</time>
      </trkpt>
      <trkpt lat="44.77301" lon="6.31026">
        <ele>2538.4</ele>
        <time>2024-08-12T12:18:24Z</time>
      </trkpt>
      <trkpt lat="44.77301" lon="6.31026">
        <ele>2538.4</ele>
        <time>2024-08-12T12:18:25Z</time>
      </trkpt>
      <trkpt lat="44.77301" lon="6.31023">
        <ele>2538.6</ele>
        <time>2024-08-12T12:18:26Z</time>
      </trkpt>
      <trkpt lat="44.77301" lon="6.31023">
        <ele>2539</ele>
        <time>2024-08-12T12:18:27Z</time>
      </trkpt>
      <trkpt lat="44.77301" lon="6.31023">
        <ele>2539</ele>
        <time>2024-08-12T12:18:28Z</time>
      </trkpt>
      <trkpt lat="44.77301" lon="6.3102">
        <ele>2539.2</ele>
        <time>2024-08-12T12:18:29Z</time>
      </trkpt>
      <trkpt lat="44.77301" lon="6.3102">
        <ele>2539.4</ele>
        <time>2024-08-12T12:18:30Z</time>
      </trkpt>
      <trkpt lat="44.77301" lon="6.3102">
        <ele>2539.6</ele>
        <time>2024-08-12T12:18:31Z</time>
      </trkpt>
      <trkpt lat="44.77301" lon="6.31017">
        <ele>2539.6</ele>
        <time>2024-08-12T12:18:32Z</time>
      </trkpt>
      <trkpt lat="44.77301" lon="6.31017">
        <ele>2539.8</ele>
        <time>2024-08-12T12:18:33Z</time>
      </trkpt>
      <trkpt lat="44.77301" lon="6.31017">
        <ele>2540.2</ele>
        <time>2024-08-12T12:18:34Z</time>
      </trkpt>
      <trkpt lat="44.77301" lon="6.31017">
        <ele>2540.4</ele>
        <time>2024-08-12T12:18:35Z</time>
      </trkpt>
      <trkpt lat="44.77303" lon="6.31014">
        <ele>2540.6</ele>
        <time>2024-08-12T12:18:36Z</time>
      </trkpt>
      <trkpt lat="44.77303" lon="6.31014">
        <ele>2541</ele>
        <time>2024-08-12T12:18:37Z</time>
      </trkpt>
      <trkpt lat="44.77303" lon="6.31014">
        <ele>2541.2</ele>
        <time>2024-08-12T12:18:38Z</time>
      </trkpt>
      <trkpt lat="44.77303" lon="6.31014">
        <ele>2541.4</ele>
        <time>2024-08-12T12:18:39Z</time>
      </trkpt>
      <trkpt lat="44.77302" lon="6.31011">
        <ele>2541.4</ele>
        <time>2024-08-12T12:18:40Z</time>
      </trkpt>
      <trkpt lat="44.77302" lon="6.31011">
        <ele>2541.4</ele>
        <time>2024-08-12T12:18:41Z</time>
      </trkpt>
      <trkpt lat="44.77302" lon="6.31011">
        <ele>2541.6</ele>
        <time>2024-08-12T12:18:42Z</time>
      </trkpt>
      <trkpt lat="44.77302" lon="6.31011">
        <ele>2541.8</ele>
        <time>2024-08-12T12:18:43Z</time>
      </trkpt>
      <trkpt lat="44.77302" lon="6.31011">
        <ele>2542</ele>
        <time>2024-08-12T12:18:44Z</time>
      </trkpt>
      <trkpt lat="44.77302" lon="6.31008">
        <ele>2542.4</ele>
        <time>2024-08-12T12:18:45Z</time>
      </trkpt>
      <trkpt lat="44.77302" lon="6.31008">
        <ele>2542.6</ele>
        <time>2024-08-12T12:18:46Z</time>
      </trkpt>
      <trkpt lat="44.77302" lon="6.31008">
        <ele>2543.2</ele>
        <time>2024-08-12T12:18:47Z</time>
      </trkpt>
      <trkpt lat="44.77303" lon="6.31006">
        <ele>2543.6</ele>
        <time>2024-08-12T12:18:48Z</time>
      </trkpt>
      <trkpt lat="44.77303" lon="6.31006">
        <ele>2543.8</ele>
        <time>2024-08-12T12:18:49Z</time>
      </trkpt>
      <trkpt lat="44.77303" lon="6.31006">
        <ele>2543.8</ele>
        <time>2024-08-12T12:18:50Z</time>
      </trkpt>
      <trkpt lat="44.77303" lon="6.31006">
        <ele>2544</ele>
        <time>2024-08-12T12:18:51Z</time>
      </trkpt>
      <trkpt lat="44.77303" lon="6.31003">
        <ele>2544.2</ele>
        <time>2024-08-12T12:18:52Z</time>
      </trkpt>
      <trkpt lat="44.77303" lon="6.31003">
        <ele>2544.2</ele>
        <time>2024-08-12T12:18:53Z</time>
      </trkpt>
      <trkpt lat="44.77303" lon="6.31003">
        <ele>2544.2</ele>
        <time>2024-08-12T12:18:54Z</time>
      </trkpt>
      <trkpt lat="44.77303" lon="6.31003">
        <ele>2544.2</ele>
        <time>2024-08-12T12:18:55Z</time>
      </trkpt>
      <trkpt lat="44.77303" lon="6.31003">
        <ele>2545</ele>
        <time>2024-08-12T12:18:56Z</time>
      </trkpt>
      <trkpt lat="44.77303" lon="6.31">
        <ele>2545.4</ele>
        <time>2024-08-12T12:18:57Z</time>
      </trkpt>
      <trkpt lat="44.77303" lon="6.31">
        <ele>2545.6</ele>
        <time>2024-08-12T12:18:58Z</time>
      </trkpt>
      <trkpt lat="44.77303" lon="6.31">
        <ele>2545.6</ele>
        <time>2024-08-12T12:18:59Z</time>
      </trkpt>
      <trkpt lat="44.77303" lon="6.31">
        <ele>2545.6</ele>
        <time>2024-08-12T12:19:00Z</time>
      </trkpt>
      <trkpt lat="44.77304" lon="6.30998">
        <ele>2545.8</ele>
        <time>2024-08-12T12:19:01Z</time>
      </trkpt>
      <trkpt lat="44.77304" lon="6.30998">
        <ele>2546</ele>
        <time>2024-08-12T12:19:02Z</time>
      </trkpt>
      <trkpt lat="44.77304" lon="6.30998">
        <ele>2546.2</ele>
        <time>2024-08-12T12:19:03Z</time>
      </trkpt>
      <trkpt lat="44.77304" lon="6.30998">
        <ele>2546.4</ele>
        <time>2024-08-12T12:19:04Z</time>
      </trkpt>
      <trkpt lat="44.77304" lon="6.30998">
        <ele>2546.4</ele>
        <time>2024-08-12T12:19:05Z</time>
      </trkpt>
      <trkpt lat="44.77306" lon="6.30996">
        <ele>2546.6</ele>
        <time>2024-08-12T12:19:06Z</time>
      </trkpt>
      <trkpt lat="44.77306" lon="6.30996">
        <ele>2546.8</ele>
        <time>2024-08-12T12:19:07Z</time>
      </trkpt>
      <trkpt lat="44.77306" lon="6.30996">
        <ele>2547.2</ele>
        <time>2024-08-12T12:19:08Z</time>
      </trkpt>
      <trkpt lat="44.77306" lon="6.30996">
        <ele>2547.2</ele>
        <time>2024-08-12T12:19:09Z</time>
      </trkpt>
      <trkpt lat="44.77306" lon="6.30996">
        <ele>2547.4</ele>
        <time>2024-08-12T12:19:10Z</time>
      </trkpt>
      <trkpt lat="44.77307" lon="6.30993">
        <ele>2547.6</ele>
        <time>2024-08-12T12:19:11Z</time>
      </trkpt>
      <trkpt lat="44.77307" lon="6.30993">
        <ele>2548</ele>
        <time>2024-08-12T12:19:12Z</time>
      </trkpt>
      <trkpt lat="44.77307" lon="6.30993">
        <ele>2548.2</ele>
        <time>2024-08-12T12:19:13Z</time>
      </trkpt>
      <trkpt lat="44.77308" lon="6.3099">
        <ele>2548.2</ele>
        <time>2024-08-12T12:19:14Z</time>
      </trkpt>
      <trkpt lat="44.77308" lon="6.3099">
        <ele>2548.2</ele>
        <time>2024-08-12T12:19:15Z</time>
      </trkpt>
      <trkpt lat="44.77308" lon="6.3099">
        <ele>2548.4</ele>
        <time>2024-08-12T12:19:16Z</time>
      </trkpt>
      <trkpt lat="44.77307" lon="6.30987">
        <ele>2549</ele>
        <time>2024-08-12T12:19:17Z</time>
      </trkpt>
      <trkpt lat="44.77307" lon="6.30987">
        <ele>2549.2</ele>
        <time>2024-08-12T12:19:18Z</time>
      </trkpt>
      <trkpt lat="44.77307" lon="6.30987">
        <ele>2549.2</ele>
        <time>2024-08-12T12:19:19Z</time>
      </trkpt>
      <trkpt lat="44.77307" lon="6.30987">
        <ele>2549.2</ele>
        <time>2024-08-12T12:19:20Z</time>
      </trkpt>
      <trkpt lat="44.77306" lon="6.30984">
        <ele>2549.4</ele>
        <time>2024-08-12T12:19:21Z</time>
      </trkpt>
      <trkpt lat="44.77306" lon="6.30984">
        <ele>2549.4</ele>
        <time>2024-08-12T12:19:22Z</time>
      </trkpt>
      <trkpt lat="44.77306" lon="6.30984">
        <ele>2549.6</ele>
        <time>2024-08-12T12:19:23Z</time>
      </trkpt>
      <trkpt lat="44.77306" lon="6.30981">
        <ele>2550</ele>
        <time>2024-08-12T12:19:24Z</time>
      </trkpt>
      <trkpt lat="44.77306" lon="6.30981">
        <ele>2550</ele>
        <time>2024-08-12T12:19:25Z</time>
      </trkpt>
      <trkpt lat="44.77306" lon="6.30981">
        <ele>2550</ele>
        <time>2024-08-12T12:19:26Z</time>
      </trkpt>
      <trkpt lat="44.77305" lon="6.30977">
        <ele>2550</ele>
        <time>2024-08-12T12:19:27Z</time>
      </trkpt>
      <trkpt lat="44.77305" lon="6.30977">
        <ele>2550.4</ele>
        <time>2024-08-12T12:19:28Z</time>
      </trkpt>
      <trkpt lat="44.77304" lon="6.30975">
        <ele>2550.6</ele>
        <time>2024-08-12T12:19:29Z</time>
      </trkpt>
      <trkpt lat="44.77304" lon="6.30975">
        <ele>2550.8</ele>
        <time>2024-08-12T12:19:30Z</time>
      </trkpt>
      <trkpt lat="44.77304" lon="6.30975">
        <ele>2550.8</ele>
        <time>2024-08-12T12:19:31Z</time>
      </trkpt>
      <trkpt lat="44.77304" lon="6.30972">
        <ele>2551</ele>
        <time>2024-08-12T12:19:32Z</time>
      </trkpt>
      <trkpt lat="44.77304" lon="6.30972">
        <ele>2551.2</ele>
        <time>2024-08-12T12:19:33Z</time>
      </trkpt>
      <trkpt lat="44.77304" lon="6.30972">
        <ele>2551.2</ele>
        <time>2024-08-12T12:19:34Z</time>
      </trkpt>
      <trkpt lat="44.77304" lon="6.30972">
        <ele>2551.4</ele>
        <time>2024-08-12T12:19:35Z</time>
      </trkpt>
      <trkpt lat="44.77304" lon="6.30969">
        <ele>2551.4</ele>
        <time>2024-08-12T12:19:36Z</time>
      </trkpt>
      <trkpt lat="44.77304" lon="6.30969">
        <ele>2551.4</ele>
        <time>2024-08-12T12:19:37Z</time>
      </trkpt>
      <trkpt lat="44.77304" lon="6.30969">
        <ele>2551.6</ele>
        <time>2024-08-12T12:19:38Z</time>
      </trkpt>
      <trkpt lat="44.77304" lon="6.30969">
        <ele>2551.8</ele>
        <time>2024-08-12T12:19:39Z</time>
      </trkpt>
      <trkpt lat="44.77303" lon="6.30966">
        <ele>2552</ele>
        <time>2024-08-12T12:19:40Z</time>
      </trkpt>
      <trkpt lat="44.77303" lon="6.30966">
        <ele>2552.6</ele>
        <time>2024-08-12T12:19:41Z</time>
      </trkpt>
      <trkpt lat="44.77303" lon="6.30966">
        <ele>2552.8</ele>
        <time>2024-08-12T12:19:42Z</time>
      </trkpt>
      <trkpt lat="44.77303" lon="6.30966">
        <ele>2553</ele>
        <time>2024-08-12T12:19:43Z</time>
      </trkpt>
      <trkpt lat="44.77303" lon="6.30966">
        <ele>2553</ele>
        <time>2024-08-12T12:19:44Z</time>
      </trkpt>
      <trkpt lat="44.77303" lon="6.30963">
        <ele>2553.2</ele>
        <time>2024-08-12T12:19:45Z</time>
      </trkpt>
      <trkpt lat="44.77303" lon="6.30963">
        <ele>2553.2</ele>
        <time>2024-08-12T12:19:46Z</time>
      </trkpt>
      <trkpt lat="44.77303" lon="6.30963">
        <ele>2553.6</ele>
        <time>2024-08-12T12:19:47Z</time>
      </trkpt>
      <trkpt lat="44.77302" lon="6.3096">
        <ele>2553.6</ele>
        <time>2024-08-12T12:19:48Z</time>
      </trkpt>
      <trkpt lat="44.77302" lon="6.3096">
        <ele>2553.6</ele>
        <time>2024-08-12T12:19:49Z</time>
      </trkpt>
      <trkpt lat="44.77302" lon="6.3096">
        <ele>2553.6</ele>
        <time>2024-08-12T12:19:50Z</time>
      </trkpt>
      <trkpt lat="44.77302" lon="6.3096">
        <ele>2553.8</ele>
        <time>2024-08-12T12:19:51Z</time>
      </trkpt>
      <trkpt lat="44.77303" lon="6.30958">
        <ele>2554</ele>
        <time>2024-08-12T12:19:52Z</time>
      </trkpt>
      <trkpt lat="44.77303" lon="6.30958">
        <ele>2554</ele>
        <time>2024-08-12T12:19:53Z</time>
      </trkpt>
      <trkpt lat="44.77303" lon="6.30958">
        <ele>2554.2</ele>
        <time>2024-08-12T12:19:54Z</time>
      </trkpt>
      <trkpt lat="44.77303" lon="6.30958">
        <ele>2554.4</ele>
        <time>2024-08-12T12:19:55Z</time>
      </trkpt>
      <trkpt lat="44.77302" lon="6.30955">
        <ele>2554.4</ele>
        <time>2024-08-12T12:19:56Z</time>
      </trkpt>
      <trkpt lat="44.77302" lon="6.30955">
        <ele>2555</ele>
        <time>2024-08-12T12:19:57Z</time>
      </trkpt>
      <trkpt lat="44.77302" lon="6.30955">
        <ele>2555</ele>
        <time>2024-08-12T12:19:58Z</time>
      </trkpt>
      <trkpt lat="44.77303" lon="6.30952">
        <ele>2555</ele>
        <time>2024-08-12T12:19:59Z</time>
      </trkpt>
      <trkpt lat="44.77303" lon="6.30952">
        <ele>2555</ele>
        <time>2024-08-12T12:20:00Z</time>
      </trkpt>
      <trkpt lat="44.77303" lon="6.30952">
        <ele>2555.2</ele>
        <time>2024-08-12T12:20:01Z</time>
      </trkpt>
      <trkpt lat="44.77303" lon="6.30952">
        <ele>2555.8</ele>
        <time>2024-08-12T12:20:02Z</time>
      </trkpt>
      <trkpt lat="44.77303" lon="6.30949">
        <ele>2555.8</ele>
        <time>2024-08-12T12:20:03Z</time>
      </trkpt>
      <trkpt lat="44.77303" lon="6.30949">
        <ele>2556</ele>
        <time>2024-08-12T12:20:04Z</time>
      </trkpt>
      <trkpt lat="44.77303" lon="6.30949">
        <ele>2556</ele>
        <time>2024-08-12T12:20:05Z</time>
      </trkpt>
      <trkpt lat="44.77302" lon="6.30947">
        <ele>2556.2</ele>
        <time>2024-08-12T12:20:06Z</time>
      </trkpt>
      <trkpt lat="44.77302" lon="6.30947">
        <ele>2556.4</ele>
        <time>2024-08-12T12:20:07Z</time>
      </trkpt>
      <trkpt lat="44.77302" lon="6.30947">
        <ele>2556.6</ele>
        <time>2024-08-12T12:20:08Z</time>
      </trkpt>
      <trkpt lat="44.77302" lon="6.30947">
        <ele>2556.6</ele>
        <time>2024-08-12T12:20:09Z</time>
      </trkpt>
      <trkpt lat="44.77303" lon="6.30944">
        <ele>2556.8</ele>
        <time>2024-08-12T12:20:10Z</time>
      </trkpt>
      <trkpt lat="44.77303" lon="6.30944">
        <ele>2557.4</ele>
        <time>2024-08-12T12:20:11Z</time>
      </trkpt>
      <trkpt lat="44.77303" lon="6.30944">
        <ele>2557.4</ele>
        <time>2024-08-12T12:20:12Z</time>
      </trkpt>
      <trkpt lat="44.77303" lon="6.30944">
        <ele>2557.4</ele>
        <time>2024-08-12T12:20:13Z</time>
      </trkpt>
      <trkpt lat="44.77303" lon="6.30941">
        <ele>2557.4</ele>
        <time>2024-08-12T12:20:14Z</time>
      </trkpt>
      <trkpt lat="44.77303" lon="6.30941">
        <ele>2557.8</ele>
        <time>2024-08-12T12:20:15Z</time>
      </trkpt>
      <trkpt lat="44.77303" lon="6.30941">
        <ele>2558.2</ele>
        <time>2024-08-12T12:20:16Z</time>
      </trkpt>
      <trkpt lat="44.77303" lon="6.30941">
        <ele>2558.2</ele>
        <time>2024-08-12T12:20:17Z</time>
      </trkpt>
      <trkpt lat="44.77303" lon="6.30941">
        <ele>2558.2</ele>
        <time>2024-08-12T12:20:18Z</time>
      </trkpt>
      <trkpt lat="44.77303" lon="6.30941">
        <ele>2558.4</ele>
        <time>2024-08-12T12:20:19Z</time>
      </trkpt>
      <trkpt lat="44.77303" lon="6.30941">
        <ele>2558.6</ele>
        <time>2024-08-12T12:20:20Z</time>
      </trkpt>
      <trkpt lat="44.77303" lon="6.30941">
        <ele>2558.6</ele>
        <time>2024-08-12T12:20:21Z</time>
      </trkpt>
      <trkpt lat="44.77303" lon="6.30941">
        <ele>2558.8</ele>
        <time>2024-08-12T12:20:22Z</time>
      </trkpt>
      <trkpt lat="44.77303" lon="6.30941">
        <ele>2559</ele>
        <time>2024-08-12T12:20:23Z</time>
      </trkpt>
      <trkpt lat="44.77303" lon="6.30941">
        <ele>2559.4</ele>
        <time>2024-08-12T12:20:24Z</time>
      </trkpt>
      <trkpt lat="44.77303" lon="6.30941">
        <ele>2559.8</ele>
        <time>2024-08-12T12:20:25Z</time>
      </trkpt>
      <trkpt lat="44.77303" lon="6.30941">
        <ele>2559.8</ele>
        <time>2024-08-12T12:20:26Z</time>
      </trkpt>
      <trkpt lat="44.77303" lon="6.30941">
        <ele>2559.8</ele>
        <time>2024-08-12T12:20:27Z</time>
      </trkpt>
      <trkpt lat="44.77303" lon="6.30941">
        <ele>2559.8</ele>
        <time>2024-08-12T12:20:28Z</time>
      </trkpt>
      <trkpt lat="44.77303" lon="6.30941">
        <ele>2560</ele>
        <time>2024-08-12T12:20:29Z</time>
      </trkpt>
      <trkpt lat="44.77303" lon="6.30941">
        <ele>2560.4</ele>
        <time>2024-08-12T12:20:30Z</time>
      </trkpt>
      <trkpt lat="44.77303" lon="6.30941">
        <ele>2560.4</ele>
        <time>2024-08-12T12:20:31Z</time>
      </trkpt>
      <trkpt lat="44.77303" lon="6.30941">
        <ele>2560.4</ele>
        <time>2024-08-12T12:20:32Z</time>
      </trkpt>
      <trkpt lat="44.77303" lon="6.30941">
        <ele>2560.2</ele>
        <time>2024-08-12T12:20:33Z</time>
      </trkpt>
      <trkpt lat="44.77303" lon="6.30941">
        <ele>2560.2</ele>
        <time>2024-08-12T12:20:34Z</time>
      </trkpt>
      <trkpt lat="44.77303" lon="6.30941">
        <ele>2560</ele>
        <time>2024-08-12T12:20:35Z</time>
      </trkpt>
      <trkpt lat="44.77303" lon="6.30941">
        <ele>2560</ele>
        <time>2024-08-12T12:20:36Z</time>
      </trkpt>
      <trkpt lat="44.77303" lon="6.30941">
        <ele>2560</ele>
        <time>2024-08-12T12:20:37Z</time>
      </trkpt>
      <trkpt lat="44.77303" lon="6.30941">
        <ele>2560</ele>
        <time>2024-08-12T12:20:38Z</time>
      </trkpt>
      <trkpt lat="44.77303" lon="6.30941">
        <ele>2560</ele>
        <time>2024-08-12T12:20:39Z</time>
      </trkpt>
      <trkpt lat="44.77303" lon="6.30941">
        <ele>2560</ele>
        <time>2024-08-12T12:20:40Z</time>
      </trkpt>
      <trkpt lat="44.77303" lon="6.30941">
        <ele>2560</ele>
        <time>2024-08-12T12:20:41Z</time>
      </trkpt>
      <trkpt lat="44.77303" lon="6.30941">
        <ele>2560</ele>
        <time>2024-08-12T12:20:42Z</time>
      </trkpt>
      <trkpt lat="44.77303" lon="6.30941">
        <ele>2560</ele>
        <time>2024-08-12T12:20:43Z</time>
      </trkpt>
      <trkpt lat="44.77303" lon="6.30941">
        <ele>2560.6</ele>
        <time>2024-08-12T12:20:44Z</time>
      </trkpt>
      <trkpt lat="44.77303" lon="6.30941">
        <ele>2560.8</ele>
        <time>2024-08-12T12:20:45Z</time>
      </trkpt>
      <trkpt lat="44.77303" lon="6.30938">
        <ele>2560.8</ele>
        <time>2024-08-12T12:20:46Z</time>
      </trkpt>
      <trkpt lat="44.77303" lon="6.30938">
        <ele>2560.8</ele>
        <time>2024-08-12T12:20:47Z</time>
      </trkpt>
      <trkpt lat="44.77301" lon="6.30936">
        <ele>2561</ele>
        <time>2024-08-12T12:20:48Z</time>
      </trkpt>
      <trkpt lat="44.77301" lon="6.30936">
        <ele>2561.2</ele>
        <time>2024-08-12T12:20:49Z</time>
      </trkpt>
      <trkpt lat="44.773" lon="6.30932">
        <ele>2561.4</ele>
        <time>2024-08-12T12:20:50Z</time>
      </trkpt>
      <trkpt lat="44.773" lon="6.30932">
        <ele>2561.8</ele>
        <time>2024-08-12T12:20:51Z</time>
      </trkpt>
      <trkpt lat="44.77298" lon="6.3093">
        <ele>2562</ele>
        <time>2024-08-12T12:20:52Z</time>
      </trkpt>
      <trkpt lat="44.77298" lon="6.3093">
        <ele>2562.2</ele>
        <time>2024-08-12T12:20:53Z</time>
      </trkpt>
      <trkpt lat="44.77298" lon="6.3093">
        <ele>2562.6</ele>
        <time>2024-08-12T12:20:54Z</time>
      </trkpt>
      <trkpt lat="44.77298" lon="6.30927">
        <ele>2563.4</ele>
        <time>2024-08-12T12:20:55Z</time>
      </trkpt>
      <trkpt lat="44.77298" lon="6.30927">
        <ele>2563.4</ele>
        <time>2024-08-12T12:20:56Z</time>
      </trkpt>
      <trkpt lat="44.77298" lon="6.30927">
        <ele>2563.2</ele>
        <time>2024-08-12T12:20:57Z</time>
      </trkpt>
      <trkpt lat="44.77298" lon="6.30927">
        <ele>2563.2</ele>
        <time>2024-08-12T12:20:58Z</time>
      </trkpt>
      <trkpt lat="44.77298" lon="6.30927">
        <ele>2563.6</ele>
        <time>2024-08-12T12:20:59Z</time>
      </trkpt>
      <trkpt lat="44.77298" lon="6.30925">
        <ele>2563.6</ele>
        <time>2024-08-12T12:21:00Z</time>
      </trkpt>
      <trkpt lat="44.77298" lon="6.30925">
        <ele>2563.6</ele>
        <time>2024-08-12T12:21:01Z</time>
      </trkpt>
      <trkpt lat="44.77298" lon="6.30925">
        <ele>2563.8</ele>
        <time>2024-08-12T12:21:02Z</time>
      </trkpt>
      <trkpt lat="44.77298" lon="6.30922">
        <ele>2563.8</ele>
        <time>2024-08-12T12:21:03Z</time>
      </trkpt>
      <trkpt lat="44.77298" lon="6.30922">
        <ele>2564</ele>
        <time>2024-08-12T12:21:04Z</time>
      </trkpt>
      <trkpt lat="44.77298" lon="6.30922">
        <ele>2564</ele>
        <time>2024-08-12T12:21:05Z</time>
      </trkpt>
      <trkpt lat="44.77298" lon="6.30919">
        <ele>2564</ele>
        <time>2024-08-12T12:21:06Z</time>
      </trkpt>
      <trkpt lat="44.77298" lon="6.30919">
        <ele>2563.8</ele>
        <time>2024-08-12T12:21:07Z</time>
      </trkpt>
      <trkpt lat="44.77298" lon="6.30919">
        <ele>2563.8</ele>
        <time>2024-08-12T12:21:08Z</time>
      </trkpt>
      <trkpt lat="44.77298" lon="6.30919">
        <ele>2563.8</ele>
        <time>2024-08-12T12:21:09Z</time>
      </trkpt>
      <trkpt lat="44.77299" lon="6.30916">
        <ele>2564</ele>
        <time>2024-08-12T12:21:10Z</time>
      </trkpt>
      <trkpt lat="44.77299" lon="6.30916">
        <ele>2564.2</ele>
        <time>2024-08-12T12:21:11Z</time>
      </trkpt>
      <trkpt lat="44.77299" lon="6.30916">
        <ele>2564.2</ele>
        <time>2024-08-12T12:21:12Z</time>
      </trkpt>
      <trkpt lat="44.77299" lon="6.30916">
        <ele>2564.4</ele>
        <time>2024-08-12T12:21:13Z</time>
      </trkpt>
      <trkpt lat="44.773" lon="6.30913">
        <ele>2564.8</ele>
        <time>2024-08-12T12:21:14Z</time>
      </trkpt>
      <trkpt lat="44.773" lon="6.30913">
        <ele>2565.2</ele>
        <time>2024-08-12T12:21:15Z</time>
      </trkpt>
      <trkpt lat="44.773" lon="6.30913">
        <ele>2565.4</ele>
        <time>2024-08-12T12:21:16Z</time>
      </trkpt>
      <trkpt lat="44.77299" lon="6.30911">
        <ele>2565.4</ele>
        <time>2024-08-12T12:21:17Z</time>
      </trkpt>
      <trkpt lat="44.77299" lon="6.30911">
        <ele>2566</ele>
        <time>2024-08-12T12:21:18Z</time>
      </trkpt>
      <trkpt lat="44.77299" lon="6.30911">
        <ele>2566.2</ele>
        <time>2024-08-12T12:21:19Z</time>
      </trkpt>
      <trkpt lat="44.77299" lon="6.30911">
        <ele>2566.6</ele>
        <time>2024-08-12T12:21:20Z</time>
      </trkpt>
      <trkpt lat="44.77299" lon="6.30911">
        <ele>2566.8</ele>
        <time>2024-08-12T12:21:21Z</time>
      </trkpt>
      <trkpt lat="44.77299" lon="6.30911">
        <ele>2566.8</ele>
        <time>2024-08-12T12:21:22Z</time>
      </trkpt>
      <trkpt lat="44.77299" lon="6.30911">
        <ele>2567</ele>
        <time>2024-08-12T12:21:23Z</time>
      </trkpt>
      <trkpt lat="44.77299" lon="6.30911">
        <ele>2566.8</ele>
        <time>2024-08-12T12:21:24Z</time>
      </trkpt>
      <trkpt lat="44.77299" lon="6.30911">
        <ele>2566.8</ele>
        <time>2024-08-12T12:21:25Z</time>
      </trkpt>
      <trkpt lat="44.77299" lon="6.30911">
        <ele>2566.8</ele>
        <time>2024-08-12T12:21:26Z</time>
      </trkpt>
      <trkpt lat="44.77299" lon="6.30911">
        <ele>2566.8</ele>
        <time>2024-08-12T12:21:27Z</time>
      </trkpt>
      <trkpt lat="44.77299" lon="6.30911">
        <ele>2567.2</ele>
        <time>2024-08-12T12:21:28Z</time>
      </trkpt>
      <trkpt lat="44.77299" lon="6.30911">
        <ele>2567.4</ele>
        <time>2024-08-12T12:21:29Z</time>
      </trkpt>
      <trkpt lat="44.77299" lon="6.30911">
        <ele>2568.2</ele>
        <time>2024-08-12T12:21:30Z</time>
      </trkpt>
      <trkpt lat="44.77299" lon="6.30907">
        <ele>2568.6</ele>
        <time>2024-08-12T12:21:31Z</time>
      </trkpt>
      <trkpt lat="44.77299" lon="6.30907">
        <ele>2569</ele>
        <time>2024-08-12T12:21:32Z</time>
      </trkpt>
      <trkpt lat="44.77299" lon="6.30907">
        <ele>2569.4</ele>
        <time>2024-08-12T12:21:33Z</time>
      </trkpt>
      <trkpt lat="44.77298" lon="6.30904">
        <ele>2570</ele>
        <time>2024-08-12T12:21:34Z</time>
      </trkpt>
      <trkpt lat="44.77298" lon="6.30904">
        <ele>2570.2</ele>
        <time>2024-08-12T12:21:35Z</time>
      </trkpt>
      <trkpt lat="44.77298" lon="6.30904">
        <ele>2570.6</ele>
        <time>2024-08-12T12:21:36Z</time>
      </trkpt>
      <trkpt lat="44.77299" lon="6.309">
        <ele>2570.8</ele>
        <time>2024-08-12T12:21:37Z</time>
      </trkpt>
      <trkpt lat="44.77299" lon="6.309">
        <ele>2571.2</ele>
        <time>2024-08-12T12:21:38Z</time>
      </trkpt>
      <trkpt lat="44.77299" lon="6.309">
        <ele>2571.4</ele>
        <time>2024-08-12T12:21:39Z</time>
      </trkpt>
      <trkpt lat="44.77299" lon="6.309">
        <ele>2571.8</ele>
        <time>2024-08-12T12:21:40Z</time>
      </trkpt>
      <trkpt lat="44.773" lon="6.30897">
        <ele>2572</ele>
        <time>2024-08-12T12:21:41Z</time>
      </trkpt>
      <trkpt lat="44.773" lon="6.30897">
        <ele>2572.2</ele>
        <time>2024-08-12T12:21:42Z</time>
      </trkpt>
      <trkpt lat="44.773" lon="6.30897">
        <ele>2572.8</ele>
        <time>2024-08-12T12:21:43Z</time>
      </trkpt>
      <trkpt lat="44.773" lon="6.30895">
        <ele>2573</ele>
        <time>2024-08-12T12:21:44Z</time>
      </trkpt>
      <trkpt lat="44.773" lon="6.30895">
        <ele>2573</ele>
        <time>2024-08-12T12:21:45Z</time>
      </trkpt>
      <trkpt lat="44.773" lon="6.30895">
        <ele>2573.2</ele>
        <time>2024-08-12T12:21:46Z</time>
      </trkpt>
      <trkpt lat="44.773" lon="6.30895">
        <ele>2573.6</ele>
        <time>2024-08-12T12:21:47Z</time>
      </trkpt>
      <trkpt lat="44.77302" lon="6.30892">
        <ele>2573.6</ele>
        <time>2024-08-12T12:21:48Z</time>
      </trkpt>
      <trkpt lat="44.77302" lon="6.30892">
        <ele>2573.6</ele>
        <time>2024-08-12T12:21:49Z</time>
      </trkpt>
      <trkpt lat="44.77302" lon="6.30892">
        <ele>2573.2</ele>
        <time>2024-08-12T12:21:50Z</time>
      </trkpt>
      <trkpt lat="44.77302" lon="6.30892">
        <ele>2572.2</ele>
        <time>2024-08-12T12:21:51Z</time>
      </trkpt>
      <trkpt lat="44.77302" lon="6.30892">
        <ele>2572</ele>
        <time>2024-08-12T12:21:52Z</time>
      </trkpt>
      <trkpt lat="44.77303" lon="6.30889">
        <ele>2571.8</ele>
        <time>2024-08-12T12:21:53Z</time>
      </trkpt>
      <trkpt lat="44.77303" lon="6.30889">
        <ele>2572</ele>
        <time>2024-08-12T12:21:54Z</time>
      </trkpt>
      <trkpt lat="44.77303" lon="6.30889">
        <ele>2572</ele>
        <time>2024-08-12T12:21:55Z</time>
      </trkpt>
      <trkpt lat="44.77304" lon="6.30886">
        <ele>2572</ele>
        <time>2024-08-12T12:21:56Z</time>
      </trkpt>
      <trkpt lat="44.77304" lon="6.30886">
        <ele>2572</ele>
        <time>2024-08-12T12:21:57Z</time>
      </trkpt>
      <trkpt lat="44.77304" lon="6.30886">
        <ele>2572</ele>
        <time>2024-08-12T12:21:58Z</time>
      </trkpt>
      <trkpt lat="44.77305" lon="6.30884">
        <ele>2572.2</ele>
        <time>2024-08-12T12:21:59Z</time>
      </trkpt>
      <trkpt lat="44.77305" lon="6.30884">
        <ele>2572.4</ele>
        <time>2024-08-12T12:22:00Z</time>
      </trkpt>
      <trkpt lat="44.77305" lon="6.30884">
        <ele>2572.6</ele>
        <time>2024-08-12T12:22:01Z</time>
      </trkpt>
      <trkpt lat="44.77305" lon="6.30881">
        <ele>2572.8</ele>
        <time>2024-08-12T12:22:02Z</time>
      </trkpt>
      <trkpt lat="44.77305" lon="6.30881">
        <ele>2572.8</ele>
        <time>2024-08-12T12:22:03Z</time>
      </trkpt>
      <trkpt lat="44.77305" lon="6.30881">
        <ele>2572.8</ele>
        <time>2024-08-12T12:22:04Z</time>
      </trkpt>
      <trkpt lat="44.77304" lon="6.30878">
        <ele>2572.8</ele>
        <time>2024-08-12T12:22:05Z</time>
      </trkpt>
      <trkpt lat="44.77304" lon="6.30878">
        <ele>2572.8</ele>
        <time>2024-08-12T12:22:06Z</time>
      </trkpt>
      <trkpt lat="44.77304" lon="6.30875">
        <ele>2573.6</ele>
        <time>2024-08-12T12:22:07Z</time>
      </trkpt>
      <trkpt lat="44.77304" lon="6.30875">
        <ele>2573.6</ele>
        <time>2024-08-12T12:22:08Z</time>
      </trkpt>
      <trkpt lat="44.77304" lon="6.30872">
        <ele>2573.6</ele>
        <time>2024-08-12T12:22:09Z</time>
      </trkpt>
      <trkpt lat="44.77304" lon="6.30872">
        <ele>2573.6</ele>
        <time>2024-08-12T12:22:10Z</time>
      </trkpt>
      <trkpt lat="44.77304" lon="6.30872">
        <ele>2574.2</ele>
        <time>2024-08-12T12:22:11Z</time>
      </trkpt>
      <trkpt lat="44.77305" lon="6.30869">
        <ele>2574.6</ele>
        <time>2024-08-12T12:22:12Z</time>
      </trkpt>
      <trkpt lat="44.77305" lon="6.30869">
        <ele>2574.6</ele>
        <time>2024-08-12T12:22:13Z</time>
      </trkpt>
      <trkpt lat="44.77305" lon="6.30869">
        <ele>2574.8</ele>
        <time>2024-08-12T12:22:14Z</time>
      </trkpt>
      <trkpt lat="44.77306" lon="6.30866">
        <ele>2575.2</ele>
        <time>2024-08-12T12:22:15Z</time>
      </trkpt>
      <trkpt lat="44.77306" lon="6.30866">
        <ele>2575.2</ele>
        <time>2024-08-12T12:22:16Z</time>
      </trkpt>
      <trkpt lat="44.77308" lon="6.30864">
        <ele>2575.4</ele>
        <time>2024-08-12T12:22:17Z</time>
      </trkpt>
      <trkpt lat="44.77308" lon="6.30864">
        <ele>2575.6</ele>
        <time>2024-08-12T12:22:18Z</time>
      </trkpt>
      <trkpt lat="44.77308" lon="6.30864">
        <ele>2575.6</ele>
        <time>2024-08-12T12:22:19Z</time>
      </trkpt>
      <trkpt lat="44.77309" lon="6.30862">
        <ele>2575.4</ele>
        <time>2024-08-12T12:22:20Z</time>
      </trkpt>
      <trkpt lat="44.77309" lon="6.30862">
        <ele>2575</ele>
        <time>2024-08-12T12:22:21Z</time>
      </trkpt>
      <trkpt lat="44.77309" lon="6.30862">
        <ele>2575</ele>
        <time>2024-08-12T12:22:22Z</time>
      </trkpt>
      <trkpt lat="44.77311" lon="6.30859">
        <ele>2575</ele>
        <time>2024-08-12T12:22:23Z</time>
      </trkpt>
      <trkpt lat="44.77311" lon="6.30859">
        <ele>2575.2</ele>
        <time>2024-08-12T12:22:24Z</time>
      </trkpt>
      <trkpt lat="44.77311" lon="6.30859">
        <ele>2575.2</ele>
        <time>2024-08-12T12:22:25Z</time>
      </trkpt>
      <trkpt lat="44.77311" lon="6.30859">
        <ele>2575.2</ele>
        <time>2024-08-12T12:22:26Z</time>
      </trkpt>
      <trkpt lat="44.77312" lon="6.30856">
        <ele>2575.6</ele>
        <time>2024-08-12T12:22:27Z</time>
      </trkpt>
      <trkpt lat="44.77312" lon="6.30856">
        <ele>2575.8</ele>
        <time>2024-08-12T12:22:28Z</time>
      </trkpt>
      <trkpt lat="44.77312" lon="6.30856">
        <ele>2576</ele>
        <time>2024-08-12T12:22:29Z</time>
      </trkpt>
      <trkpt lat="44.77312" lon="6.30853">
        <ele>2576.2</ele>
        <time>2024-08-12T12:22:30Z</time>
      </trkpt>
      <trkpt lat="44.77312" lon="6.30853">
        <ele>2576.6</ele>
        <time>2024-08-12T12:22:31Z</time>
      </trkpt>
      <trkpt lat="44.77312" lon="6.30853">
        <ele>2577</ele>
        <time>2024-08-12T12:22:32Z</time>
      </trkpt>
      <trkpt lat="44.77314" lon="6.3085">
        <ele>2577</ele>
        <time>2024-08-12T12:22:33Z</time>
      </trkpt>
      <trkpt lat="44.77314" lon="6.3085">
        <ele>2577</ele>
        <time>2024-08-12T12:22:34Z</time>
      </trkpt>
      <trkpt lat="44.77314" lon="6.3085">
        <ele>2577.4</ele>
        <time>2024-08-12T12:22:35Z</time>
      </trkpt>
      <trkpt lat="44.77314" lon="6.30847">
        <ele>2577.4</ele>
        <time>2024-08-12T12:22:36Z</time>
      </trkpt>
      <trkpt lat="44.77314" lon="6.30847">
        <ele>2577.8</ele>
        <time>2024-08-12T12:22:37Z</time>
      </trkpt>
      <trkpt lat="44.77314" lon="6.30847">
        <ele>2578</ele>
        <time>2024-08-12T12:22:38Z</time>
      </trkpt>
      <trkpt lat="44.77314" lon="6.30847">
        <ele>2578.4</ele>
        <time>2024-08-12T12:22:39Z</time>
      </trkpt>
      <trkpt lat="44.77315" lon="6.30844">
        <ele>2578.6</ele>
        <time>2024-08-12T12:22:40Z</time>
      </trkpt>
      <trkpt lat="44.77315" lon="6.30844">
        <ele>2578.8</ele>
        <time>2024-08-12T12:22:41Z</time>
      </trkpt>
      <trkpt lat="44.77315" lon="6.30844">
        <ele>2579.2</ele>
        <time>2024-08-12T12:22:42Z</time>
      </trkpt>
      <trkpt lat="44.77315" lon="6.30841">
        <ele>2579.4</ele>
        <time>2024-08-12T12:22:43Z</time>
      </trkpt>
      <trkpt lat="44.77315" lon="6.30841">
        <ele>2579.4</ele>
        <time>2024-08-12T12:22:44Z</time>
      </trkpt>
      <trkpt lat="44.77315" lon="6.30841">
        <ele>2579.4</ele>
        <time>2024-08-12T12:22:45Z</time>
      </trkpt>
      <trkpt lat="44.77314" lon="6.30838">
        <ele>2580</ele>
        <time>2024-08-12T12:22:46Z</time>
      </trkpt>
      <trkpt lat="44.77314" lon="6.30838">
        <ele>2580.2</ele>
        <time>2024-08-12T12:22:47Z</time>
      </trkpt>
      <trkpt lat="44.77314" lon="6.30838">
        <ele>2580.2</ele>
        <time>2024-08-12T12:22:48Z</time>
      </trkpt>
      <trkpt lat="44.77314" lon="6.30835">
        <ele>2580.4</ele>
        <time>2024-08-12T12:22:49Z</time>
      </trkpt>
      <trkpt lat="44.77314" lon="6.30835">
        <ele>2580.6</ele>
        <time>2024-08-12T12:22:50Z</time>
      </trkpt>
      <trkpt lat="44.77314" lon="6.30835">
        <ele>2580.8</ele>
        <time>2024-08-12T12:22:51Z</time>
      </trkpt>
      <trkpt lat="44.77314" lon="6.30832">
        <ele>2581</ele>
        <time>2024-08-12T12:22:52Z</time>
      </trkpt>
      <trkpt lat="44.77314" lon="6.30832">
        <ele>2581</ele>
        <time>2024-08-12T12:22:53Z</time>
      </trkpt>
      <trkpt lat="44.77314" lon="6.30832">
        <ele>2581.2</ele>
        <time>2024-08-12T12:22:54Z</time>
      </trkpt>
      <trkpt lat="44.77314" lon="6.30832">
        <ele>2581.8</ele>
        <time>2024-08-12T12:22:55Z</time>
      </trkpt>
      <trkpt lat="44.77313" lon="6.30829">
        <ele>2582.8</ele>
        <time>2024-08-12T12:22:56Z</time>
      </trkpt>
      <trkpt lat="44.77313" lon="6.30829">
        <ele>2582.8</ele>
        <time>2024-08-12T12:22:57Z</time>
      </trkpt>
      <trkpt lat="44.77313" lon="6.30829">
        <ele>2583</ele>
        <time>2024-08-12T12:22:58Z</time>
      </trkpt>
      <trkpt lat="44.77313" lon="6.30826">
        <ele>2583.2</ele>
        <time>2024-08-12T12:22:59Z</time>
      </trkpt>
      <trkpt lat="44.77313" lon="6.30826">
        <ele>2583.2</ele>
        <time>2024-08-12T12:23:00Z</time>
      </trkpt>
      <trkpt lat="44.77313" lon="6.30826">
        <ele>2583.2</ele>
        <time>2024-08-12T12:23:01Z</time>
      </trkpt>
      <trkpt lat="44.77313" lon="6.30826">
        <ele>2583.2</ele>
        <time>2024-08-12T12:23:02Z</time>
      </trkpt>
      <trkpt lat="44.77315" lon="6.30824">
        <ele>2583.2</ele>
        <time>2024-08-12T12:23:03Z</time>
      </trkpt>
      <trkpt lat="44.77315" lon="6.30824">
        <ele>2583.6</ele>
        <time>2024-08-12T12:23:04Z</time>
      </trkpt>
      <trkpt lat="44.77315" lon="6.30824">
        <ele>2584.2</ele>
        <time>2024-08-12T12:23:05Z</time>
      </trkpt>
      <trkpt lat="44.77315" lon="6.30824">
        <ele>2584.2</ele>
        <time>2024-08-12T12:23:06Z</time>
      </trkpt>
      <trkpt lat="44.77316" lon="6.30821">
        <ele>2584</ele>
        <time>2024-08-12T12:23:07Z</time>
      </trkpt>
      <trkpt lat="44.77316" lon="6.30821">
        <ele>2584</ele>
        <time>2024-08-12T12:23:08Z</time>
      </trkpt>
      <trkpt lat="44.77316" lon="6.30821">
        <ele>2584.4</ele>
        <time>2024-08-12T12:23:09Z</time>
      </trkpt>
      <trkpt lat="44.77317" lon="6.30819">
        <ele>2584.6</ele>
        <time>2024-08-12T12:23:10Z</time>
      </trkpt>
      <trkpt lat="44.77317" lon="6.30819">
        <ele>2584.8</ele>
        <time>2024-08-12T12:23:11Z</time>
      </trkpt>
      <trkpt lat="44.77317" lon="6.30819">
        <ele>2584.8</ele>
        <time>2024-08-12T12:23:12Z</time>
      </trkpt>
      <trkpt lat="44.77319" lon="6.30816">
        <ele>2584.8</ele>
        <time>2024-08-12T12:23:13Z</time>
      </trkpt>
      <trkpt lat="44.77319" lon="6.30816">
        <ele>2584.8</ele>
        <time>2024-08-12T12:23:14Z</time>
      </trkpt>
      <trkpt lat="44.77319" lon="6.30816">
        <ele>2584.8</ele>
        <time>2024-08-12T12:23:15Z</time>
      </trkpt>
      <trkpt lat="44.77319" lon="6.30812">
        <ele>2584.8</ele>
        <time>2024-08-12T12:23:16Z</time>
      </trkpt>
      <trkpt lat="44.77319" lon="6.30812">
        <ele>2584.8</ele>
        <time>2024-08-12T12:23:17Z</time>
      </trkpt>
      <trkpt lat="44.77321" lon="6.3081">
        <ele>2584.8</ele>
        <time>2024-08-12T12:23:18Z</time>
      </trkpt>
      <trkpt lat="44.77321" lon="6.3081">
        <ele>2584.8</ele>
        <time>2024-08-12T12:23:19Z</time>
      </trkpt>
      <trkpt lat="44.77321" lon="6.3081">
        <ele>2585.2</ele>
        <time>2024-08-12T12:23:20Z</time>
      </trkpt>
      <trkpt lat="44.77321" lon="6.30807">
        <ele>2585.4</ele>
        <time>2024-08-12T12:23:21Z</time>
      </trkpt>
      <trkpt lat="44.77321" lon="6.30807">
        <ele>2585.8</ele>
        <time>2024-08-12T12:23:22Z</time>
      </trkpt>
      <trkpt lat="44.77321" lon="6.30807">
        <ele>2585.8</ele>
        <time>2024-08-12T12:23:23Z</time>
      </trkpt>
      <trkpt lat="44.77323" lon="6.30804">
        <ele>2585.8</ele>
        <time>2024-08-12T12:23:24Z</time>
      </trkpt>
      <trkpt lat="44.77323" lon="6.30804">
        <ele>2586.2</ele>
        <time>2024-08-12T12:23:25Z</time>
      </trkpt>
      <trkpt lat="44.77323" lon="6.30804">
        <ele>2586.2</ele>
        <time>2024-08-12T12:23:26Z</time>
      </trkpt>
      <trkpt lat="44.77323" lon="6.30801">
        <ele>2586</ele>
        <time>2024-08-12T12:23:27Z</time>
      </trkpt>
      <trkpt lat="44.77323" lon="6.30801">
        <ele>2586</ele>
        <time>2024-08-12T12:23:28Z</time>
      </trkpt>
      <trkpt lat="44.77323" lon="6.30801">
        <ele>2586.2</ele>
        <time>2024-08-12T12:23:29Z</time>
      </trkpt>
      <trkpt lat="44.77325" lon="6.30798">
        <ele>2586.2</ele>
        <time>2024-08-12T12:23:30Z</time>
      </trkpt>
      <trkpt lat="44.77325" lon="6.30798">
        <ele>2586.4</ele>
        <time>2024-08-12T12:23:31Z</time>
      </trkpt>
      <trkpt lat="44.77325" lon="6.30798">
        <ele>2586.6</ele>
        <time>2024-08-12T12:23:32Z</time>
      </trkpt>
      <trkpt lat="44.77326" lon="6.30795">
        <ele>2587</ele>
        <time>2024-08-12T12:23:33Z</time>
      </trkpt>
      <trkpt lat="44.77326" lon="6.30795">
        <ele>2587.2</ele>
        <time>2024-08-12T12:23:34Z</time>
      </trkpt>
      <trkpt lat="44.77326" lon="6.30795">
        <ele>2587.2</ele>
        <time>2024-08-12T12:23:35Z</time>
      </trkpt>
      <trkpt lat="44.77326" lon="6.30791">
        <ele>2587.2</ele>
        <time>2024-08-12T12:23:36Z</time>
      </trkpt>
      <trkpt lat="44.77326" lon="6.30791">
        <ele>2587.2</ele>
        <time>2024-08-12T12:23:37Z</time>
      </trkpt>
      <trkpt lat="44.77326" lon="6.30791">
        <ele>2587.4</ele>
        <time>2024-08-12T12:23:38Z</time>
      </trkpt>
      <trkpt lat="44.77327" lon="6.30787">
        <ele>2587.4</ele>
        <time>2024-08-12T12:23:39Z</time>
      </trkpt>
      <trkpt lat="44.77327" lon="6.30787">
        <ele>2587.4</ele>
        <time>2024-08-12T12:23:40Z</time>
      </trkpt>
      <trkpt lat="44.77327" lon="6.30787">
        <ele>2587.2</ele>
        <time>2024-08-12T12:23:41Z</time>
      </trkpt>
      <trkpt lat="44.77328" lon="6.30784">
        <ele>2587.2</ele>
        <time>2024-08-12T12:23:42Z</time>
      </trkpt>
      <trkpt lat="44.77328" lon="6.30784">
        <ele>2587.8</ele>
        <time>2024-08-12T12:23:43Z</time>
      </trkpt>
      <trkpt lat="44.77328" lon="6.30784">
        <ele>2588</ele>
        <time>2024-08-12T12:23:44Z</time>
      </trkpt>
      <trkpt lat="44.77329" lon="6.30781">
        <ele>2588</ele>
        <time>2024-08-12T12:23:45Z</time>
      </trkpt>
      <trkpt lat="44.77329" lon="6.30781">
        <ele>2588</ele>
        <time>2024-08-12T12:23:46Z</time>
      </trkpt>
      <trkpt lat="44.77329" lon="6.30779">
        <ele>2588.2</ele>
        <time>2024-08-12T12:23:47Z</time>
      </trkpt>
      <trkpt lat="44.77329" lon="6.30779">
        <ele>2588.4</ele>
        <time>2024-08-12T12:23:48Z</time>
      </trkpt>
      <trkpt lat="44.77329" lon="6.30779">
        <ele>2588.8</ele>
        <time>2024-08-12T12:23:49Z</time>
      </trkpt>
      <trkpt lat="44.7733" lon="6.30776">
        <ele>2588.8</ele>
        <time>2024-08-12T12:23:50Z</time>
      </trkpt>
      <trkpt lat="44.7733" lon="6.30776">
        <ele>2589</ele>
        <time>2024-08-12T12:23:51Z</time>
      </trkpt>
      <trkpt lat="44.7733" lon="6.30776">
        <ele>2589.2</ele>
        <time>2024-08-12T12:23:52Z</time>
      </trkpt>
      <trkpt lat="44.77331" lon="6.30773">
        <ele>2589.2</ele>
        <time>2024-08-12T12:23:53Z</time>
      </trkpt>
      <trkpt lat="44.77331" lon="6.30773">
        <ele>2589.4</ele>
        <time>2024-08-12T12:23:54Z</time>
      </trkpt>
      <trkpt lat="44.77331" lon="6.30773">
        <ele>2589.4</ele>
        <time>2024-08-12T12:23:55Z</time>
      </trkpt>
      <trkpt lat="44.77331" lon="6.30773">
        <ele>2589.6</ele>
        <time>2024-08-12T12:23:56Z</time>
      </trkpt>
      <trkpt lat="44.77331" lon="6.3077">
        <ele>2589.8</ele>
        <time>2024-08-12T12:23:57Z</time>
      </trkpt>
      <trkpt lat="44.77331" lon="6.3077">
        <ele>2590.2</ele>
        <time>2024-08-12T12:23:58Z</time>
      </trkpt>
      <trkpt lat="44.77331" lon="6.3077">
        <ele>2590.6</ele>
        <time>2024-08-12T12:23:59Z</time>
      </trkpt>
      <trkpt lat="44.77331" lon="6.3077">
        <ele>2590.8</ele>
        <time>2024-08-12T12:24:00Z</time>
      </trkpt>
      <trkpt lat="44.77331" lon="6.30767">
        <ele>2591</ele>
        <time>2024-08-12T12:24:01Z</time>
      </trkpt>
      <trkpt lat="44.77331" lon="6.30767">
        <ele>2591.4</ele>
        <time>2024-08-12T12:24:02Z</time>
      </trkpt>
      <trkpt lat="44.77331" lon="6.30767">
        <ele>2591.4</ele>
        <time>2024-08-12T12:24:03Z</time>
      </trkpt>
      <trkpt lat="44.77331" lon="6.30767">
        <ele>2591.6</ele>
        <time>2024-08-12T12:24:04Z</time>
      </trkpt>
      <trkpt lat="44.77331" lon="6.30764">
        <ele>2591.6</ele>
        <time>2024-08-12T12:24:05Z</time>
      </trkpt>
      <trkpt lat="44.77331" lon="6.30764">
        <ele>2591.6</ele>
        <time>2024-08-12T12:24:06Z</time>
      </trkpt>
      <trkpt lat="44.77331" lon="6.30764">
        <ele>2591.8</ele>
        <time>2024-08-12T12:24:07Z</time>
      </trkpt>
      <trkpt lat="44.77331" lon="6.30764">
        <ele>2592</ele>
        <time>2024-08-12T12:24:08Z</time>
      </trkpt>
      <trkpt lat="44.7733" lon="6.30761">
        <ele>2592.2</ele>
        <time>2024-08-12T12:24:09Z</time>
      </trkpt>
      <trkpt lat="44.7733" lon="6.30761">
        <ele>2592.6</ele>
        <time>2024-08-12T12:24:10Z</time>
      </trkpt>
      <trkpt lat="44.7733" lon="6.30761">
        <ele>2592.6</ele>
        <time>2024-08-12T12:24:11Z</time>
      </trkpt>
      <trkpt lat="44.7733" lon="6.30761">
        <ele>2592.6</ele>
        <time>2024-08-12T12:24:12Z</time>
      </trkpt>
      <trkpt lat="44.7733" lon="6.30758">
        <ele>2592.6</ele>
        <time>2024-08-12T12:24:13Z</time>
      </trkpt>
      <trkpt lat="44.7733" lon="6.30758">
        <ele>2592.8</ele>
        <time>2024-08-12T12:24:14Z</time>
      </trkpt>
      <trkpt lat="44.7733" lon="6.30758">
        <ele>2593.2</ele>
        <time>2024-08-12T12:24:15Z</time>
      </trkpt>
      <trkpt lat="44.7733" lon="6.30758">
        <ele>2593.2</ele>
        <time>2024-08-12T12:24:16Z</time>
      </trkpt>
      <trkpt lat="44.7733" lon="6.30758">
        <ele>2593.4</ele>
        <time>2024-08-12T12:24:17Z</time>
      </trkpt>
      <trkpt lat="44.7733" lon="6.30758">
        <ele>2593.6</ele>
        <time>2024-08-12T12:24:18Z</time>
      </trkpt>
      <trkpt lat="44.7733" lon="6.30758">
        <ele>2594</ele>
        <time>2024-08-12T12:24:19Z</time>
      </trkpt>
      <trkpt lat="44.7733" lon="6.30758">
        <ele>2594</ele>
        <time>2024-08-12T12:24:20Z</time>
      </trkpt>
      <trkpt lat="44.7733" lon="6.30758">
        <ele>2593.8</ele>
        <time>2024-08-12T12:24:21Z</time>
      </trkpt>
      <trkpt lat="44.7733" lon="6.30758">
        <ele>2593.8</ele>
        <time>2024-08-12T12:24:22Z</time>
      </trkpt>
      <trkpt lat="44.7733" lon="6.30758">
        <ele>2593.8</ele>
        <time>2024-08-12T12:24:23Z</time>
      </trkpt>
      <trkpt lat="44.7733" lon="6.30758">
        <ele>2593.8</ele>
        <time>2024-08-12T12:24:24Z</time>
      </trkpt>
      <trkpt lat="44.7733" lon="6.30758">
        <ele>2593.6</ele>
        <time>2024-08-12T12:24:25Z</time>
      </trkpt>
      <trkpt lat="44.7733" lon="6.30758">
        <ele>2593.4</ele>
        <time>2024-08-12T12:24:26Z</time>
      </trkpt>
      <trkpt lat="44.7733" lon="6.30758">
        <ele>2593.2</ele>
        <time>2024-08-12T12:24:27Z</time>
      </trkpt>
      <trkpt lat="44.7733" lon="6.30758">
        <ele>2593</ele>
        <time>2024-08-12T12:24:28Z</time>
      </trkpt>
      <trkpt lat="44.7733" lon="6.30758">
        <ele>2593</ele>
        <time>2024-08-12T12:24:29Z</time>
      </trkpt>
      <trkpt lat="44.7733" lon="6.30758">
        <ele>2593</ele>
        <time>2024-08-12T12:24:30Z</time>
      </trkpt>
      <trkpt lat="44.7733" lon="6.30758">
        <ele>2593</ele>
        <time>2024-08-12T12:24:31Z</time>
      </trkpt>
      <trkpt lat="44.7733" lon="6.30758">
        <ele>2593.2</ele>
        <time>2024-08-12T12:24:32Z</time>
      </trkpt>
      <trkpt lat="44.7733" lon="6.30758">
        <ele>2593.4</ele>
        <time>2024-08-12T12:24:33Z</time>
      </trkpt>
      <trkpt lat="44.7733" lon="6.30758">
        <ele>2593.6</ele>
        <time>2024-08-12T12:24:34Z</time>
      </trkpt>
      <trkpt lat="44.7733" lon="6.30758">
        <ele>2593.8</ele>
        <time>2024-08-12T12:24:35Z</time>
      </trkpt>
      <trkpt lat="44.7733" lon="6.30758">
        <ele>2594</ele>
        <time>2024-08-12T12:24:36Z</time>
      </trkpt>
      <trkpt lat="44.7733" lon="6.30758">
        <ele>2594</ele>
        <time>2024-08-12T12:24:37Z</time>
      </trkpt>
      <trkpt lat="44.7733" lon="6.30758">
        <ele>2594.4</ele>
        <time>2024-08-12T12:24:38Z</time>
      </trkpt>
      <trkpt lat="44.7733" lon="6.30755">
        <ele>2595</ele>
        <time>2024-08-12T12:24:39Z</time>
      </trkpt>
      <trkpt lat="44.7733" lon="6.30755">
        <ele>2595.2</ele>
        <time>2024-08-12T12:24:40Z</time>
      </trkpt>
      <trkpt lat="44.7733" lon="6.30752">
        <ele>2595.2</ele>
        <time>2024-08-12T12:24:41Z</time>
      </trkpt>
      <trkpt lat="44.7733" lon="6.30752">
        <ele>2595.4</ele>
        <time>2024-08-12T12:24:42Z</time>
      </trkpt>
      <trkpt lat="44.7733" lon="6.30752">
        <ele>2596</ele>
        <time>2024-08-12T12:24:43Z</time>
      </trkpt>
      <trkpt lat="44.7733" lon="6.30752">
        <ele>2596.4</ele>
        <time>2024-08-12T12:24:44Z</time>
      </trkpt>
      <trkpt lat="44.7733" lon="6.30752">
        <ele>2596.4</ele>
        <time>2024-08-12T12:24:45Z</time>
      </trkpt>
      <trkpt lat="44.7733" lon="6.30752">
        <ele>2596.2</ele>
        <time>2024-08-12T12:24:46Z</time>
      </trkpt>
      <trkpt lat="44.7733" lon="6.30752">
        <ele>2595.6</ele>
        <time>2024-08-12T12:24:47Z</time>
      </trkpt>
      <trkpt lat="44.7733" lon="6.30752">
        <ele>2595.6</ele>
        <time>2024-08-12T12:24:48Z</time>
      </trkpt>
      <trkpt lat="44.7733" lon="6.30752">
        <ele>2595.8</ele>
        <time>2024-08-12T12:24:49Z</time>
      </trkpt>
      <trkpt lat="44.7733" lon="6.30752">
        <ele>2595.8</ele>
        <time>2024-08-12T12:24:50Z</time>
      </trkpt>
      <trkpt lat="44.7733" lon="6.30752">
        <ele>2595.8</ele>
        <time>2024-08-12T12:24:51Z</time>
      </trkpt>
      <trkpt lat="44.7733" lon="6.30752">
        <ele>2596</ele>
        <time>2024-08-12T12:24:52Z</time>
      </trkpt>
      <trkpt lat="44.7733" lon="6.30752">
        <ele>2596</ele>
        <time>2024-08-12T12:24:53Z</time>
      </trkpt>
      <trkpt lat="44.7733" lon="6.30752">
        <ele>2596.4</ele>
        <time>2024-08-12T12:24:54Z</time>
      </trkpt>
      <trkpt lat="44.7733" lon="6.30752">
        <ele>2596.4</ele>
        <time>2024-08-12T12:24:55Z</time>
      </trkpt>
      <trkpt lat="44.7733" lon="6.30752">
        <ele>2596.2</ele>
        <time>2024-08-12T12:24:56Z</time>
      </trkpt>
      <trkpt lat="44.7733" lon="6.30752">
        <ele>2596.2</ele>
        <time>2024-08-12T12:24:57Z</time>
      </trkpt>
      <trkpt lat="44.7733" lon="6.30752">
        <ele>2596.6</ele>
        <time>2024-08-12T12:24:58Z</time>
      </trkpt>
      <trkpt lat="44.7733" lon="6.30752">
        <ele>2596.8</ele>
        <time>2024-08-12T12:24:59Z</time>
      </trkpt>
      <trkpt lat="44.7733" lon="6.30752">
        <ele>2597</ele>
        <time>2024-08-12T12:25:00Z</time>
      </trkpt>
      <trkpt lat="44.7733" lon="6.30752">
        <ele>2597.2</ele>
        <time>2024-08-12T12:25:01Z</time>
      </trkpt>
      <trkpt lat="44.7733" lon="6.30752">
        <ele>2597.6</ele>
        <time>2024-08-12T12:25:02Z</time>
      </trkpt>
      <trkpt lat="44.77328" lon="6.30753">
        <ele>2597.6</ele>
        <time>2024-08-12T12:25:03Z</time>
      </trkpt>
      <trkpt lat="44.77328" lon="6.30753">
        <ele>2597.6</ele>
        <time>2024-08-12T12:25:04Z</time>
      </trkpt>
      <trkpt lat="44.77325" lon="6.30754">
        <ele>2597.6</ele>
        <time>2024-08-12T12:25:05Z</time>
      </trkpt>
      <trkpt lat="44.77325" lon="6.30754">
        <ele>2597.8</ele>
        <time>2024-08-12T12:25:06Z</time>
      </trkpt>
      <trkpt lat="44.77325" lon="6.30754">
        <ele>2598.4</ele>
        <time>2024-08-12T12:25:07Z</time>
      </trkpt>
      <trkpt lat="44.77325" lon="6.30754">
        <ele>2598.4</ele>
        <time>2024-08-12T12:25:08Z</time>
      </trkpt>
      <trkpt lat="44.77324" lon="6.30753">
        <ele>2598.4</ele>
        <time>2024-08-12T12:25:09Z</time>
      </trkpt>
      <trkpt lat="44.77324" lon="6.30753">
        <ele>2598.4</ele>
        <time>2024-08-12T12:25:10Z</time>
      </trkpt>
      <trkpt lat="44.77324" lon="6.30753">
        <ele>2598.8</ele>
        <time>2024-08-12T12:25:11Z</time>
      </trkpt>
      <trkpt lat="44.77324" lon="6.30753">
        <ele>2598.8</ele>
        <time>2024-08-12T12:25:12Z</time>
      </trkpt>
      <trkpt lat="44.77324" lon="6.30753">
        <ele>2599</ele>
        <time>2024-08-12T12:25:13Z</time>
      </trkpt>
      <trkpt lat="44.77324" lon="6.30753">
        <ele>2599</ele>
        <time>2024-08-12T12:25:14Z</time>
      </trkpt>
      <trkpt lat="44.77324" lon="6.30753">
        <ele>2599.2</ele>
        <time>2024-08-12T12:25:15Z</time>
      </trkpt>
      <trkpt lat="44.77324" lon="6.30753">
        <ele>2599.6</ele>
        <time>2024-08-12T12:25:16Z</time>
      </trkpt>
      <trkpt lat="44.77324" lon="6.30753">
        <ele>2599.8</ele>
        <time>2024-08-12T12:25:17Z</time>
      </trkpt>
      <trkpt lat="44.77324" lon="6.30753">
        <ele>2600.2</ele>
        <time>2024-08-12T12:25:18Z</time>
      </trkpt>
      <trkpt lat="44.77324" lon="6.30753">
        <ele>2600.2</ele>
        <time>2024-08-12T12:25:19Z</time>
      </trkpt>
      <trkpt lat="44.77324" lon="6.30753">
        <ele>2600.2</ele>
        <time>2024-08-12T12:25:20Z</time>
      </trkpt>
      <trkpt lat="44.77324" lon="6.30753">
        <ele>2600.2</ele>
        <time>2024-08-12T12:25:21Z</time>
      </trkpt>
      <trkpt lat="44.77323" lon="6.3075">
        <ele>2601</ele>
        <time>2024-08-12T12:25:22Z</time>
      </trkpt>
      <trkpt lat="44.77323" lon="6.3075">
        <ele>2601</ele>
        <time>2024-08-12T12:25:23Z</time>
      </trkpt>
      <trkpt lat="44.77323" lon="6.3075">
        <ele>2601</ele>
        <time>2024-08-12T12:25:24Z</time>
      </trkpt>
      <trkpt lat="44.77323" lon="6.3075">
        <ele>2601.2</ele>
        <time>2024-08-12T12:25:25Z</time>
      </trkpt>
      <trkpt lat="44.77323" lon="6.3075">
        <ele>2601.4</ele>
        <time>2024-08-12T12:25:26Z</time>
      </trkpt>
      <trkpt lat="44.77322" lon="6.30746">
        <ele>2601.4</ele>
        <time>2024-08-12T12:25:27Z</time>
      </trkpt>
      <trkpt lat="44.77322" lon="6.30746">
        <ele>2601.8</ele>
        <time>2024-08-12T12:25:28Z</time>
      </trkpt>
      <trkpt lat="44.77322" lon="6.30742">
        <ele>2602</ele>
        <time>2024-08-12T12:25:29Z</time>
      </trkpt>
      <trkpt lat="44.77322" lon="6.30742">
        <ele>2602.2</ele>
        <time>2024-08-12T12:25:30Z</time>
      </trkpt>
      <trkpt lat="44.77323" lon="6.30739">
        <ele>2602.4</ele>
        <time>2024-08-12T12:25:31Z</time>
      </trkpt>
      <trkpt lat="44.77323" lon="6.30739">
        <ele>2602.6</ele>
        <time>2024-08-12T12:25:32Z</time>
      </trkpt>
      <trkpt lat="44.77323" lon="6.30739">
        <ele>2602.6</ele>
        <time>2024-08-12T12:25:33Z</time>
      </trkpt>
      <trkpt lat="44.77322" lon="6.30736">
        <ele>2602.6</ele>
        <time>2024-08-12T12:25:34Z</time>
      </trkpt>
      <trkpt lat="44.77322" lon="6.30736">
        <ele>2602.6</ele>
        <time>2024-08-12T12:25:35Z</time>
      </trkpt>
      <trkpt lat="44.77322" lon="6.30736">
        <ele>2603</ele>
        <time>2024-08-12T12:25:36Z</time>
      </trkpt>
      <trkpt lat="44.77323" lon="6.30734">
        <ele>2603</ele>
        <time>2024-08-12T12:25:37Z</time>
      </trkpt>
      <trkpt lat="44.77323" lon="6.30734">
        <ele>2603.2</ele>
        <time>2024-08-12T12:25:38Z</time>
      </trkpt>
      <trkpt lat="44.77323" lon="6.30734">
        <ele>2603.2</ele>
        <time>2024-08-12T12:25:39Z</time>
      </trkpt>
      <trkpt lat="44.77324" lon="6.30731">
        <ele>2603.6</ele>
        <time>2024-08-12T12:25:40Z</time>
      </trkpt>
      <trkpt lat="44.77324" lon="6.30731">
        <ele>2603.8</ele>
        <time>2024-08-12T12:25:41Z</time>
      </trkpt>
      <trkpt lat="44.77324" lon="6.30731">
        <ele>2604.2</ele>
        <time>2024-08-12T12:25:42Z</time>
      </trkpt>
      <trkpt lat="44.77325" lon="6.30728">
        <ele>2604.4</ele>
        <time>2024-08-12T12:25:43Z</time>
      </trkpt>
      <trkpt lat="44.77325" lon="6.30728">
        <ele>2604.4</ele>
        <time>2024-08-12T12:25:44Z</time>
      </trkpt>
      <trkpt lat="44.77325" lon="6.30728">
        <ele>2604.4</ele>
        <time>2024-08-12T12:25:45Z</time>
      </trkpt>
      <trkpt lat="44.77326" lon="6.30725">
        <ele>2604.2</ele>
        <time>2024-08-12T12:25:46Z</time>
      </trkpt>
      <trkpt lat="44.77326" lon="6.30725">
        <ele>2604.2</ele>
        <time>2024-08-12T12:25:47Z</time>
      </trkpt>
      <trkpt lat="44.77326" lon="6.30725">
        <ele>2604.4</ele>
        <time>2024-08-12T12:25:48Z</time>
      </trkpt>
      <trkpt lat="44.77326" lon="6.30723">
        <ele>2604.6</ele>
        <time>2024-08-12T12:25:49Z</time>
      </trkpt>
      <trkpt lat="44.77326" lon="6.30723">
        <ele>2605</ele>
        <time>2024-08-12T12:25:50Z</time>
      </trkpt>
      <trkpt lat="44.77326" lon="6.30723">
        <ele>2605.2</ele>
        <time>2024-08-12T12:25:51Z</time>
      </trkpt>
      <trkpt lat="44.77326" lon="6.30723">
        <ele>2605.6</ele>
        <time>2024-08-12T12:25:52Z</time>
      </trkpt>
      <trkpt lat="44.77326" lon="6.30723">
        <ele>2605.6</ele>
        <time>2024-08-12T12:25:53Z</time>
      </trkpt>
      <trkpt lat="44.77325" lon="6.30719">
        <ele>2606</ele>
        <time>2024-08-12T12:25:54Z</time>
      </trkpt>
      <trkpt lat="44.77325" lon="6.30719">
        <ele>2606.2</ele>
        <time>2024-08-12T12:25:55Z</time>
      </trkpt>
      <trkpt lat="44.77325" lon="6.30719">
        <ele>2606.2</ele>
        <time>2024-08-12T12:25:56Z</time>
      </trkpt>
      <trkpt lat="44.77325" lon="6.30719">
        <ele>2606.4</ele>
        <time>2024-08-12T12:25:57Z</time>
      </trkpt>
      <trkpt lat="44.77325" lon="6.30719">
        <ele>2606.8</ele>
        <time>2024-08-12T12:25:58Z</time>
      </trkpt>
      <trkpt lat="44.77325" lon="6.30716">
        <ele>2606.8</ele>
        <time>2024-08-12T12:25:59Z</time>
      </trkpt>
      <trkpt lat="44.77325" lon="6.30716">
        <ele>2607</ele>
        <time>2024-08-12T12:26:00Z</time>
      </trkpt>
      <trkpt lat="44.77325" lon="6.30716">
        <ele>2607</ele>
        <time>2024-08-12T12:26:01Z</time>
      </trkpt>
      <trkpt lat="44.77326" lon="6.30713">
        <ele>2606.8</ele>
        <time>2024-08-12T12:26:02Z</time>
      </trkpt>
      <trkpt lat="44.77326" lon="6.30713">
        <ele>2606.8</ele>
        <time>2024-08-12T12:26:03Z</time>
      </trkpt>
      <trkpt lat="44.77326" lon="6.30713">
        <ele>2607</ele>
        <time>2024-08-12T12:26:04Z</time>
      </trkpt>
      <trkpt lat="44.77326" lon="6.30713">
        <ele>2607</ele>
        <time>2024-08-12T12:26:05Z</time>
      </trkpt>
      <trkpt lat="44.77326" lon="6.30711">
        <ele>2607</ele>
        <time>2024-08-12T12:26:06Z</time>
      </trkpt>
      <trkpt lat="44.77326" lon="6.30711">
        <ele>2607.2</ele>
        <time>2024-08-12T12:26:07Z</time>
      </trkpt>
      <trkpt lat="44.77326" lon="6.30711">
        <ele>2607.2</ele>
        <time>2024-08-12T12:26:08Z</time>
      </trkpt>
      <trkpt lat="44.77326" lon="6.30711">
        <ele>2607.4</ele>
        <time>2024-08-12T12:26:09Z</time>
      </trkpt>
      <trkpt lat="44.77326" lon="6.30711">
        <ele>2607.4</ele>
        <time>2024-08-12T12:26:10Z</time>
      </trkpt>
      <trkpt lat="44.77326" lon="6.30711">
        <ele>2608.2</ele>
        <time>2024-08-12T12:26:11Z</time>
      </trkpt>
      <trkpt lat="44.77326" lon="6.30711">
        <ele>2608.4</ele>
        <time>2024-08-12T12:26:12Z</time>
      </trkpt>
      <trkpt lat="44.77326" lon="6.30711">
        <ele>2608.6</ele>
        <time>2024-08-12T12:26:13Z</time>
      </trkpt>
      <trkpt lat="44.77326" lon="6.30711">
        <ele>2608.6</ele>
        <time>2024-08-12T12:26:14Z</time>
      </trkpt>
      <trkpt lat="44.77326" lon="6.30711">
        <ele>2609</ele>
        <time>2024-08-12T12:26:15Z</time>
      </trkpt>
      <trkpt lat="44.77326" lon="6.30711">
        <ele>2609.2</ele>
        <time>2024-08-12T12:26:16Z</time>
      </trkpt>
      <trkpt lat="44.77326" lon="6.30711">
        <ele>2609.4</ele>
        <time>2024-08-12T12:26:17Z</time>
      </trkpt>
      <trkpt lat="44.77326" lon="6.30711">
        <ele>2610</ele>
        <time>2024-08-12T12:26:18Z</time>
      </trkpt>
      <trkpt lat="44.77326" lon="6.30711">
        <ele>2610</ele>
        <time>2024-08-12T12:26:19Z</time>
      </trkpt>
      <trkpt lat="44.77326" lon="6.30711">
        <ele>2610.2</ele>
        <time>2024-08-12T12:26:20Z</time>
      </trkpt>
      <trkpt lat="44.77326" lon="6.30711">
        <ele>2610.8</ele>
        <time>2024-08-12T12:26:21Z</time>
      </trkpt>
      <trkpt lat="44.77326" lon="6.30711">
        <ele>2610.8</ele>
        <time>2024-08-12T12:26:22Z</time>
      </trkpt>
      <trkpt lat="44.77326" lon="6.30711">
        <ele>2610.8</ele>
        <time>2024-08-12T12:26:23Z</time>
      </trkpt>
      <trkpt lat="44.77326" lon="6.30711">
        <ele>2611.2</ele>
        <time>2024-08-12T12:26:24Z</time>
      </trkpt>
      <trkpt lat="44.77324" lon="6.3071">
        <ele>2611.4</ele>
        <time>2024-08-12T12:26:25Z</time>
      </trkpt>
      <trkpt lat="44.77324" lon="6.3071">
        <ele>2611.8</ele>
        <time>2024-08-12T12:26:26Z</time>
      </trkpt>
      <trkpt lat="44.77322" lon="6.30708">
        <ele>2612.2</ele>
        <time>2024-08-12T12:26:27Z</time>
      </trkpt>
      <trkpt lat="44.77322" lon="6.30708">
        <ele>2612.4</ele>
        <time>2024-08-12T12:26:28Z</time>
      </trkpt>
      <trkpt lat="44.77322" lon="6.30708">
        <ele>2612.8</ele>
        <time>2024-08-12T12:26:29Z</time>
      </trkpt>
      <trkpt lat="44.77321" lon="6.30705">
        <ele>2613</ele>
        <time>2024-08-12T12:26:30Z</time>
      </trkpt>
      <trkpt lat="44.77321" lon="6.30705">
        <ele>2613.2</ele>
        <time>2024-08-12T12:26:31Z</time>
      </trkpt>
      <trkpt lat="44.77321" lon="6.30705">
        <ele>2613.2</ele>
        <time>2024-08-12T12:26:32Z</time>
      </trkpt>
      <trkpt lat="44.77321" lon="6.30705">
        <ele>2613.2</ele>
        <time>2024-08-12T12:26:33Z</time>
      </trkpt>
      <trkpt lat="44.77321" lon="6.30705">
        <ele>2613.6</ele>
        <time>2024-08-12T12:26:34Z</time>
      </trkpt>
      <trkpt lat="44.77321" lon="6.30702">
        <ele>2613.8</ele>
        <time>2024-08-12T12:26:35Z</time>
      </trkpt>
      <trkpt lat="44.77321" lon="6.30702">
        <ele>2613.8</ele>
        <time>2024-08-12T12:26:36Z</time>
      </trkpt>
      <trkpt lat="44.77321" lon="6.30702">
        <ele>2613.8</ele>
        <time>2024-08-12T12:26:37Z</time>
      </trkpt>
      <trkpt lat="44.77321" lon="6.30702">
        <ele>2614.2</ele>
        <time>2024-08-12T12:26:38Z</time>
      </trkpt>
      <trkpt lat="44.77321" lon="6.307">
        <ele>2614.4</ele>
        <time>2024-08-12T12:26:39Z</time>
      </trkpt>
      <trkpt lat="44.77321" lon="6.307">
        <ele>2614.6</ele>
        <time>2024-08-12T12:26:40Z</time>
      </trkpt>
      <trkpt lat="44.77321" lon="6.307">
        <ele>2615</ele>
        <time>2024-08-12T12:26:41Z</time>
      </trkpt>
      <trkpt lat="44.77321" lon="6.307">
        <ele>2615.6</ele>
        <time>2024-08-12T12:26:42Z</time>
      </trkpt>
      <trkpt lat="44.77321" lon="6.307">
        <ele>2615.8</ele>
        <time>2024-08-12T12:26:43Z</time>
      </trkpt>
      <trkpt lat="44.77321" lon="6.30696">
        <ele>2616.2</ele>
        <time>2024-08-12T12:26:44Z</time>
      </trkpt>
      <trkpt lat="44.77321" lon="6.30696">
        <ele>2616.8</ele>
        <time>2024-08-12T12:26:45Z</time>
      </trkpt>
      <trkpt lat="44.77321" lon="6.30696">
        <ele>2617</ele>
        <time>2024-08-12T12:26:46Z</time>
      </trkpt>
      <trkpt lat="44.77321" lon="6.30696">
        <ele>2617.4</ele>
        <time>2024-08-12T12:26:47Z</time>
      </trkpt>
      <trkpt lat="44.7732" lon="6.30694">
        <ele>2617.4</ele>
        <time>2024-08-12T12:26:48Z</time>
      </trkpt>
      <trkpt lat="44.7732" lon="6.30694">
        <ele>2617.6</ele>
        <time>2024-08-12T12:26:49Z</time>
      </trkpt>
      <trkpt lat="44.7732" lon="6.30694">
        <ele>2617.6</ele>
        <time>2024-08-12T12:26:50Z</time>
      </trkpt>
      <trkpt lat="44.7732" lon="6.30694">
        <ele>2617.4</ele>
        <time>2024-08-12T12:26:51Z</time>
      </trkpt>
      <trkpt lat="44.7732" lon="6.30694">
        <ele>2617.4</ele>
        <time>2024-08-12T12:26:52Z</time>
      </trkpt>
      <trkpt lat="44.7732" lon="6.30694">
        <ele>2617.4</ele>
        <time>2024-08-12T12:26:53Z</time>
      </trkpt>
      <trkpt lat="44.7732" lon="6.30691">
        <ele>2617.6</ele>
        <time>2024-08-12T12:26:54Z</time>
      </trkpt>
      <trkpt lat="44.7732" lon="6.30691">
        <ele>2618.2</ele>
        <time>2024-08-12T12:26:55Z</time>
      </trkpt>
      <trkpt lat="44.7732" lon="6.30691">
        <ele>2618.4</ele>
        <time>2024-08-12T12:26:56Z</time>
      </trkpt>
      <trkpt lat="44.7732" lon="6.30691">
        <ele>2618.6</ele>
        <time>2024-08-12T12:26:57Z</time>
      </trkpt>
      <trkpt lat="44.7732" lon="6.30691">
        <ele>2618.8</ele>
        <time>2024-08-12T12:26:58Z</time>
      </trkpt>
      <trkpt lat="44.7732" lon="6.30691">
        <ele>2618.8</ele>
        <time>2024-08-12T12:26:59Z</time>
      </trkpt>
      <trkpt lat="44.7732" lon="6.30691">
        <ele>2619</ele>
        <time>2024-08-12T12:27:00Z</time>
      </trkpt>
      <trkpt lat="44.7732" lon="6.30691">
        <ele>2619</ele>
        <time>2024-08-12T12:27:01Z</time>
      </trkpt>
      <trkpt lat="44.7732" lon="6.30691">
        <ele>2619.4</ele>
        <time>2024-08-12T12:27:02Z</time>
      </trkpt>
      <trkpt lat="44.7732" lon="6.30691">
        <ele>2619.4</ele>
        <time>2024-08-12T12:27:03Z</time>
      </trkpt>
      <trkpt lat="44.7732" lon="6.30691">
        <ele>2619.8</ele>
        <time>2024-08-12T12:27:04Z</time>
      </trkpt>
      <trkpt lat="44.77321" lon="6.30688">
        <ele>2620</ele>
        <time>2024-08-12T12:27:05Z</time>
      </trkpt>
      <trkpt lat="44.77321" lon="6.30688">
        <ele>2620.2</ele>
        <time>2024-08-12T12:27:06Z</time>
      </trkpt>
      <trkpt lat="44.77322" lon="6.30684">
        <ele>2620.2</ele>
        <time>2024-08-12T12:27:07Z</time>
      </trkpt>
      <trkpt lat="44.77322" lon="6.30684">
        <ele>2620.4</ele>
        <time>2024-08-12T12:27:08Z</time>
      </trkpt>
      <trkpt lat="44.77323" lon="6.30682">
        <ele>2620.6</ele>
        <time>2024-08-12T12:27:09Z</time>
      </trkpt>
      <trkpt lat="44.77323" lon="6.30682">
        <ele>2620.6</ele>
        <time>2024-08-12T12:27:10Z</time>
      </trkpt>
      <trkpt lat="44.77323" lon="6.30682">
        <ele>2620.8</ele>
        <time>2024-08-12T12:27:11Z</time>
      </trkpt>
      <trkpt lat="44.77323" lon="6.30682">
        <ele>2620.8</ele>
        <time>2024-08-12T12:27:12Z</time>
      </trkpt>
      <trkpt lat="44.77323" lon="6.30682">
        <ele>2620.8</ele>
        <time>2024-08-12T12:27:13Z</time>
      </trkpt>
      <trkpt lat="44.77323" lon="6.30682">
        <ele>2620.6</ele>
        <time>2024-08-12T12:27:14Z</time>
      </trkpt>
      <trkpt lat="44.77323" lon="6.30682">
        <ele>2620.2</ele>
        <time>2024-08-12T12:27:15Z</time>
      </trkpt>
      <trkpt lat="44.77323" lon="6.30682">
        <ele>2620.2</ele>
        <time>2024-08-12T12:27:16Z</time>
      </trkpt>
      <trkpt lat="44.77323" lon="6.30682">
        <ele>2620</ele>
        <time>2024-08-12T12:27:17Z</time>
      </trkpt>
      <trkpt lat="44.77323" lon="6.30682">
        <ele>2620</ele>
        <time>2024-08-12T12:27:18Z</time>
      </trkpt>
      <trkpt lat="44.77323" lon="6.30682">
        <ele>2620</ele>
        <time>2024-08-12T12:27:19Z</time>
      </trkpt>
      <trkpt lat="44.77323" lon="6.30682">
        <ele>2620</ele>
        <time>2024-08-12T12:27:20Z</time>
      </trkpt>
      <trkpt lat="44.77323" lon="6.30682">
        <ele>2620</ele>
        <time>2024-08-12T12:27:21Z</time>
      </trkpt>
      <trkpt lat="44.77323" lon="6.30682">
        <ele>2620</ele>
        <time>2024-08-12T12:27:22Z</time>
      </trkpt>
      <trkpt lat="44.77323" lon="6.30682">
        <ele>2620</ele>
        <time>2024-08-12T12:27:23Z</time>
      </trkpt>
      <trkpt lat="44.77323" lon="6.30682">
        <ele>2620</ele>
        <time>2024-08-12T12:27:24Z</time>
      </trkpt>
      <trkpt lat="44.77323" lon="6.30682">
        <ele>2620</ele>
        <time>2024-08-12T12:27:25Z</time>
      </trkpt>
      <trkpt lat="44.77323" lon="6.30682">
        <ele>2620</ele>
        <time>2024-08-12T12:27:26Z</time>
      </trkpt>
      <trkpt lat="44.77323" lon="6.30682">
        <ele>2620</ele>
        <time>2024-08-12T12:27:27Z</time>
      </trkpt>
      <trkpt lat="44.77323" lon="6.30682">
        <ele>2620</ele>
        <time>2024-08-12T12:27:28Z</time>
      </trkpt>
      <trkpt lat="44.77323" lon="6.30682">
        <ele>2620</ele>
        <time>2024-08-12T12:27:29Z</time>
      </trkpt>
      <trkpt lat="44.77323" lon="6.30682">
        <ele>2619.8</ele>
        <time>2024-08-12T12:27:30Z</time>
      </trkpt>
      <trkpt lat="44.77323" lon="6.30682">
        <ele>2619.8</ele>
        <time>2024-08-12T12:27:31Z</time>
      </trkpt>
      <trkpt lat="44.77323" lon="6.30682">
        <ele>2619.8</ele>
        <time>2024-08-12T12:27:32Z</time>
      </trkpt>
      <trkpt lat="44.77323" lon="6.30682">
        <ele>2619.8</ele>
        <time>2024-08-12T12:27:33Z</time>
      </trkpt>
      <trkpt lat="44.77323" lon="6.30682">
        <ele>2619.4</ele>
        <time>2024-08-12T12:27:34Z</time>
      </trkpt>
      <trkpt lat="44.77323" lon="6.30682">
        <ele>2619.4</ele>
        <time>2024-08-12T12:27:35Z</time>
      </trkpt>
      <trkpt lat="44.77323" lon="6.30682">
        <ele>2619.8</ele>
        <time>2024-08-12T12:27:36Z</time>
      </trkpt>
      <trkpt lat="44.77323" lon="6.30682">
        <ele>2619.8</ele>
        <time>2024-08-12T12:27:37Z</time>
      </trkpt>
      <trkpt lat="44.77323" lon="6.30682">
        <ele>2619.8</ele>
        <time>2024-08-12T12:27:38Z</time>
      </trkpt>
      <trkpt lat="44.77323" lon="6.30682">
        <ele>2619.8</ele>
        <time>2024-08-12T12:27:39Z</time>
      </trkpt>
      <trkpt lat="44.77323" lon="6.30682">
        <ele>2619.6</ele>
        <time>2024-08-12T12:27:40Z</time>
      </trkpt>
      <trkpt lat="44.77323" lon="6.30682">
        <ele>2619.6</ele>
        <time>2024-08-12T12:27:41Z</time>
      </trkpt>
      <trkpt lat="44.77323" lon="6.30682">
        <ele>2619.6</ele>
        <time>2024-08-12T12:27:42Z</time>
      </trkpt>
      <trkpt lat="44.77323" lon="6.30682">
        <ele>2619.6</ele>
        <time>2024-08-12T12:27:43Z</time>
      </trkpt>
      <trkpt lat="44.77323" lon="6.30682">
        <ele>2619.6</ele>
        <time>2024-08-12T12:27:44Z</time>
      </trkpt>
      <trkpt lat="44.77323" lon="6.30682">
        <ele>2619.6</ele>
        <time>2024-08-12T12:27:45Z</time>
      </trkpt>
      <trkpt lat="44.77323" lon="6.30682">
        <ele>2619.6</ele>
        <time>2024-08-12T12:27:46Z</time>
      </trkpt>
      <trkpt lat="44.77323" lon="6.30682">
        <ele>2619.6</ele>
        <time>2024-08-12T12:27:47Z</time>
      </trkpt>
      <trkpt lat="44.77323" lon="6.30682">
        <ele>2619.6</ele>
        <time>2024-08-12T12:27:48Z</time>
      </trkpt>
      <trkpt lat="44.77323" lon="6.30682">
        <ele>2619.8</ele>
        <time>2024-08-12T12:27:49Z</time>
      </trkpt>
      <trkpt lat="44.77323" lon="6.30682">
        <ele>2619.8</ele>
        <time>2024-08-12T12:27:50Z</time>
      </trkpt>
      <trkpt lat="44.77323" lon="6.30682">
        <ele>2619.4</ele>
        <time>2024-08-12T12:27:51Z</time>
      </trkpt>
      <trkpt lat="44.77323" lon="6.30682">
        <ele>2619.4</ele>
        <time>2024-08-12T12:27:52Z</time>
      </trkpt>
      <trkpt lat="44.77323" lon="6.30682">
        <ele>2619.4</ele>
        <time>2024-08-12T12:27:53Z</time>
      </trkpt>
      <trkpt lat="44.77323" lon="6.30682">
        <ele>2619.4</ele>
        <time>2024-08-12T12:27:54Z</time>
      </trkpt>
      <trkpt lat="44.77323" lon="6.30682">
        <ele>2619.2</ele>
        <time>2024-08-12T12:27:55Z</time>
      </trkpt>
      <trkpt lat="44.77323" lon="6.30682">
        <ele>2619.2</ele>
        <time>2024-08-12T12:27:56Z</time>
      </trkpt>
      <trkpt lat="44.77323" lon="6.30682">
        <ele>2619.2</ele>
        <time>2024-08-12T12:27:57Z</time>
      </trkpt>
      <trkpt lat="44.77323" lon="6.30682">
        <ele>2619.6</ele>
        <time>2024-08-12T12:27:58Z</time>
      </trkpt>
      <trkpt lat="44.77323" lon="6.30682">
        <ele>2620</ele>
        <time>2024-08-12T12:27:59Z</time>
      </trkpt>
      <trkpt lat="44.77323" lon="6.30682">
        <ele>2620.2</ele>
        <time>2024-08-12T12:28:00Z</time>
      </trkpt>
      <trkpt lat="44.77323" lon="6.30682">
        <ele>2620.2</ele>
        <time>2024-08-12T12:28:01Z</time>
      </trkpt>
      <trkpt lat="44.77323" lon="6.30682">
        <ele>2620.4</ele>
        <time>2024-08-12T12:28:02Z</time>
      </trkpt>
      <trkpt lat="44.77323" lon="6.30682">
        <ele>2620.4</ele>
        <time>2024-08-12T12:28:03Z</time>
      </trkpt>
      <trkpt lat="44.77323" lon="6.30682">
        <ele>2620.8</ele>
        <time>2024-08-12T12:28:04Z</time>
      </trkpt>
      <trkpt lat="44.77323" lon="6.30682">
        <ele>2621.4</ele>
        <time>2024-08-12T12:28:05Z</time>
      </trkpt>
      <trkpt lat="44.77323" lon="6.30682">
        <ele>2621.4</ele>
        <time>2024-08-12T12:28:06Z</time>
      </trkpt>
      <trkpt lat="44.77323" lon="6.30682">
        <ele>2621.4</ele>
        <time>2024-08-12T12:28:07Z</time>
      </trkpt>
      <trkpt lat="44.77323" lon="6.30682">
        <ele>2621.4</ele>
        <time>2024-08-12T12:28:08Z</time>
      </trkpt>
      <trkpt lat="44.77323" lon="6.30682">
        <ele>2621.8</ele>
        <time>2024-08-12T12:28:09Z</time>
      </trkpt>
      <trkpt lat="44.77323" lon="6.30682">
        <ele>2622.4</ele>
        <time>2024-08-12T12:28:10Z</time>
      </trkpt>
      <trkpt lat="44.77323" lon="6.30682">
        <ele>2622.8</ele>
        <time>2024-08-12T12:28:11Z</time>
      </trkpt>
      <trkpt lat="44.77322" lon="6.30679">
        <ele>2623</ele>
        <time>2024-08-12T12:28:12Z</time>
      </trkpt>
      <trkpt lat="44.77322" lon="6.30679">
        <ele>2623</ele>
        <time>2024-08-12T12:28:13Z</time>
      </trkpt>
      <trkpt lat="44.77322" lon="6.30675">
        <ele>2623.2</ele>
        <time>2024-08-12T12:28:14Z</time>
      </trkpt>
      <trkpt lat="44.77322" lon="6.30675">
        <ele>2623.8</ele>
        <time>2024-08-12T12:28:15Z</time>
      </trkpt>
      <trkpt lat="44.77322" lon="6.30672">
        <ele>2624</ele>
        <time>2024-08-12T12:28:16Z</time>
      </trkpt>
      <trkpt lat="44.77322" lon="6.30672">
        <ele>2624</ele>
        <time>2024-08-12T12:28:17Z</time>
      </trkpt>
      <trkpt lat="44.77324" lon="6.30669">
        <ele>2624.2</ele>
        <time>2024-08-12T12:28:18Z</time>
      </trkpt>
      <trkpt lat="44.77324" lon="6.30669">
        <ele>2624.4</ele>
        <time>2024-08-12T12:28:19Z</time>
      </trkpt>
      <trkpt lat="44.77325" lon="6.30667">
        <ele>2624.4</ele>
        <time>2024-08-12T12:28:20Z</time>
      </trkpt>
      <trkpt lat="44.77325" lon="6.30667">
        <ele>2624.8</ele>
        <time>2024-08-12T12:28:21Z</time>
      </trkpt>
      <trkpt lat="44.77325" lon="6.30667">
        <ele>2624.6</ele>
        <time>2024-08-12T12:28:22Z</time>
      </trkpt>
      <trkpt lat="44.77326" lon="6.30664">
        <ele>2624.8</ele>
        <time>2024-08-12T12:28:23Z</time>
      </trkpt>
      <trkpt lat="44.77326" lon="6.30664">
        <ele>2624.8</ele>
        <time>2024-08-12T12:28:24Z</time>
      </trkpt>
      <trkpt lat="44.77327" lon="6.30662">
        <ele>2625</ele>
        <time>2024-08-12T12:28:25Z</time>
      </trkpt>
      <trkpt lat="44.77327" lon="6.30662">
        <ele>2625</ele>
        <time>2024-08-12T12:28:26Z</time>
      </trkpt>
      <trkpt lat="44.77327" lon="6.30662">
        <ele>2625</ele>
        <time>2024-08-12T12:28:27Z</time>
      </trkpt>
      <trkpt lat="44.77327" lon="6.30662">
        <ele>2625.4</ele>
        <time>2024-08-12T12:28:28Z</time>
      </trkpt>
      <trkpt lat="44.77327" lon="6.30659">
        <ele>2625.8</ele>
        <time>2024-08-12T12:28:29Z</time>
      </trkpt>
      <trkpt lat="44.77327" lon="6.30659">
        <ele>2625.8</ele>
        <time>2024-08-12T12:28:30Z</time>
      </trkpt>
      <trkpt lat="44.77327" lon="6.30659">
        <ele>2626</ele>
        <time>2024-08-12T12:28:31Z</time>
      </trkpt>
      <trkpt lat="44.77327" lon="6.30659">
        <ele>2626.2</ele>
        <time>2024-08-12T12:28:32Z</time>
      </trkpt>
      <trkpt lat="44.77327" lon="6.30656">
        <ele>2626.2</ele>
        <time>2024-08-12T12:28:33Z</time>
      </trkpt>
      <trkpt lat="44.77327" lon="6.30656">
        <ele>2626.8</ele>
        <time>2024-08-12T12:28:34Z</time>
      </trkpt>
      <trkpt lat="44.77327" lon="6.30656">
        <ele>2627</ele>
        <time>2024-08-12T12:28:35Z</time>
      </trkpt>
      <trkpt lat="44.77327" lon="6.30656">
        <ele>2627.4</ele>
        <time>2024-08-12T12:28:36Z</time>
      </trkpt>
      <trkpt lat="44.77327" lon="6.30656">
        <ele>2627.8</ele>
        <time>2024-08-12T12:28:37Z</time>
      </trkpt>
      <trkpt lat="44.77327" lon="6.30656">
        <ele>2627.8</ele>
        <time>2024-08-12T12:28:38Z</time>
      </trkpt>
      <trkpt lat="44.77327" lon="6.30656">
        <ele>2628</ele>
        <time>2024-08-12T12:28:39Z</time>
      </trkpt>
      <trkpt lat="44.77327" lon="6.30656">
        <ele>2628.4</ele>
        <time>2024-08-12T12:28:40Z</time>
      </trkpt>
      <trkpt lat="44.77327" lon="6.30656">
        <ele>2628.8</ele>
        <time>2024-08-12T12:28:41Z</time>
      </trkpt>
      <trkpt lat="44.77326" lon="6.30654">
        <ele>2629</ele>
        <time>2024-08-12T12:28:42Z</time>
      </trkpt>
      <trkpt lat="44.77326" lon="6.30654">
        <ele>2629.2</ele>
        <time>2024-08-12T12:28:43Z</time>
      </trkpt>
      <trkpt lat="44.77326" lon="6.30654">
        <ele>2629.4</ele>
        <time>2024-08-12T12:28:44Z</time>
      </trkpt>
      <trkpt lat="44.77326" lon="6.30654">
        <ele>2629.6</ele>
        <time>2024-08-12T12:28:45Z</time>
      </trkpt>
      <trkpt lat="44.77326" lon="6.30654">
        <ele>2629.6</ele>
        <time>2024-08-12T12:28:46Z</time>
      </trkpt>
      <trkpt lat="44.77326" lon="6.30654">
        <ele>2629.8</ele>
        <time>2024-08-12T12:28:47Z</time>
      </trkpt>
      <trkpt lat="44.77326" lon="6.30654">
        <ele>2630</ele>
        <time>2024-08-12T12:28:48Z</time>
      </trkpt>
      <trkpt lat="44.77326" lon="6.30654">
        <ele>2630.4</ele>
        <time>2024-08-12T12:28:49Z</time>
      </trkpt>
      <trkpt lat="44.77326" lon="6.30654">
        <ele>2630.4</ele>
        <time>2024-08-12T12:28:50Z</time>
      </trkpt>
      <trkpt lat="44.77326" lon="6.30654">
        <ele>2631</ele>
        <time>2024-08-12T12:28:51Z</time>
      </trkpt>
      <trkpt lat="44.77326" lon="6.30654">
        <ele>2631</ele>
        <time>2024-08-12T12:28:52Z</time>
      </trkpt>
      <trkpt lat="44.77326" lon="6.30654">
        <ele>2631.4</ele>
        <time>2024-08-12T12:28:53Z</time>
      </trkpt>
      <trkpt lat="44.77326" lon="6.30654">
        <ele>2631.4</ele>
        <time>2024-08-12T12:28:54Z</time>
      </trkpt>
      <trkpt lat="44.77324" lon="6.30655">
        <ele>2631.4</ele>
        <time>2024-08-12T12:28:55Z</time>
      </trkpt>
      <trkpt lat="44.77324" lon="6.30655">
        <ele>2631.8</ele>
        <time>2024-08-12T12:28:56Z</time>
      </trkpt>
      <trkpt lat="44.77321" lon="6.30654">
        <ele>2632</ele>
        <time>2024-08-12T12:28:57Z</time>
      </trkpt>
      <trkpt lat="44.77321" lon="6.30654">
        <ele>2632</ele>
        <time>2024-08-12T12:28:58Z</time>
      </trkpt>
      <trkpt lat="44.7732" lon="6.30653">
        <ele>2632.2</ele>
        <time>2024-08-12T12:28:59Z</time>
      </trkpt>
      <trkpt lat="44.7732" lon="6.30653">
        <ele>2632.4</ele>
        <time>2024-08-12T12:29:00Z</time>
      </trkpt>
      <trkpt lat="44.7732" lon="6.30653">
        <ele>2632.4</ele>
        <time>2024-08-12T12:29:01Z</time>
      </trkpt>
      <trkpt lat="44.77319" lon="6.30649">
        <ele>2633.4</ele>
        <time>2024-08-12T12:29:02Z</time>
      </trkpt>
      <trkpt lat="44.77319" lon="6.30649">
        <ele>2633.4</ele>
        <time>2024-08-12T12:29:03Z</time>
      </trkpt>
      <trkpt lat="44.77319" lon="6.30649">
        <ele>2633.2</ele>
        <time>2024-08-12T12:29:04Z</time>
      </trkpt>
      <trkpt lat="44.77319" lon="6.30649">
        <ele>2633.2</ele>
        <time>2024-08-12T12:29:05Z</time>
      </trkpt>
      <trkpt lat="44.77319" lon="6.30649">
        <ele>2633.4</ele>
        <time>2024-08-12T12:29:06Z</time>
      </trkpt>
      <trkpt lat="44.77319" lon="6.30646">
        <ele>2633.6</ele>
        <time>2024-08-12T12:29:07Z</time>
      </trkpt>
      <trkpt lat="44.77319" lon="6.30646">
        <ele>2633.8</ele>
        <time>2024-08-12T12:29:08Z</time>
      </trkpt>
      <trkpt lat="44.77319" lon="6.30646">
        <ele>2633.8</ele>
        <time>2024-08-12T12:29:09Z</time>
      </trkpt>
      <trkpt lat="44.7732" lon="6.30644">
        <ele>2633.8</ele>
        <time>2024-08-12T12:29:10Z</time>
      </trkpt>
      <trkpt lat="44.7732" lon="6.30644">
        <ele>2634.2</ele>
        <time>2024-08-12T12:29:11Z</time>
      </trkpt>
      <trkpt lat="44.7732" lon="6.30644">
        <ele>2634.2</ele>
        <time>2024-08-12T12:29:12Z</time>
      </trkpt>
      <trkpt lat="44.77321" lon="6.30641">
        <ele>2634.2</ele>
        <time>2024-08-12T12:29:13Z</time>
      </trkpt>
      <trkpt lat="44.77321" lon="6.30641">
        <ele>2634.6</ele>
        <time>2024-08-12T12:29:14Z</time>
      </trkpt>
      <trkpt lat="44.77321" lon="6.30641">
        <ele>2634.8</ele>
        <time>2024-08-12T12:29:15Z</time>
      </trkpt>
      <trkpt lat="44.77321" lon="6.30638">
        <ele>2635</ele>
        <time>2024-08-12T12:29:16Z</time>
      </trkpt>
      <trkpt lat="44.77321" lon="6.30638">
        <ele>2635</ele>
        <time>2024-08-12T12:29:17Z</time>
      </trkpt>
      <trkpt lat="44.77321" lon="6.30638">
        <ele>2635.4</ele>
        <time>2024-08-12T12:29:18Z</time>
      </trkpt>
      <trkpt lat="44.77322" lon="6.30635">
        <ele>2635.6</ele>
        <time>2024-08-12T12:29:19Z</time>
      </trkpt>
      <trkpt lat="44.77322" lon="6.30635">
        <ele>2636</ele>
        <time>2024-08-12T12:29:20Z</time>
      </trkpt>
      <trkpt lat="44.77322" lon="6.30635">
        <ele>2636</ele>
        <time>2024-08-12T12:29:21Z</time>
      </trkpt>
      <trkpt lat="44.77322" lon="6.30635">
        <ele>2636</ele>
        <time>2024-08-12T12:29:22Z</time>
      </trkpt>
      <trkpt lat="44.77322" lon="6.30632">
        <ele>2636.4</ele>
        <time>2024-08-12T12:29:23Z</time>
      </trkpt>
      <trkpt lat="44.77322" lon="6.30632">
        <ele>2636.4</ele>
        <time>2024-08-12T12:29:24Z</time>
      </trkpt>
      <trkpt lat="44.77322" lon="6.30632">
        <ele>2636.6</ele>
        <time>2024-08-12T12:29:25Z</time>
      </trkpt>
      <trkpt lat="44.77324" lon="6.3063">
        <ele>2636.8</ele>
        <time>2024-08-12T12:29:26Z</time>
      </trkpt>
      <trkpt lat="44.77324" lon="6.3063">
        <ele>2636.8</ele>
        <time>2024-08-12T12:29:27Z</time>
      </trkpt>
      <trkpt lat="44.77324" lon="6.3063">
        <ele>2636.8</ele>
        <time>2024-08-12T12:29:28Z</time>
      </trkpt>
      <trkpt lat="44.77324" lon="6.3063">
        <ele>2637</ele>
        <time>2024-08-12T12:29:29Z</time>
      </trkpt>
      <trkpt lat="44.77325" lon="6.30627">
        <ele>2637.2</ele>
        <time>2024-08-12T12:29:30Z</time>
      </trkpt>
      <trkpt lat="44.77325" lon="6.30627">
        <ele>2637.6</ele>
        <time>2024-08-12T12:29:31Z</time>
      </trkpt>
      <trkpt lat="44.77325" lon="6.30627">
        <ele>2637.8</ele>
        <time>2024-08-12T12:29:32Z</time>
      </trkpt>
      <trkpt lat="44.77325" lon="6.30627">
        <ele>2637.8</ele>
        <time>2024-08-12T12:29:33Z</time>
      </trkpt>
      <trkpt lat="44.77325" lon="6.30627">
        <ele>2637.8</ele>
        <time>2024-08-12T12:29:34Z</time>
      </trkpt>
      <trkpt lat="44.77324" lon="6.30625">
        <ele>2638</ele>
        <time>2024-08-12T12:29:35Z</time>
      </trkpt>
      <trkpt lat="44.77324" lon="6.30625">
        <ele>2638.4</ele>
        <time>2024-08-12T12:29:36Z</time>
      </trkpt>
      <trkpt lat="44.77324" lon="6.30625">
        <ele>2638.6</ele>
        <time>2024-08-12T12:29:37Z</time>
      </trkpt>
      <trkpt lat="44.77324" lon="6.30625">
        <ele>2638.8</ele>
        <time>2024-08-12T12:29:38Z</time>
      </trkpt>
      <trkpt lat="44.77324" lon="6.30625">
        <ele>2639.2</ele>
        <time>2024-08-12T12:29:39Z</time>
      </trkpt>
      <trkpt lat="44.77324" lon="6.30625">
        <ele>2639.2</ele>
        <time>2024-08-12T12:29:40Z</time>
      </trkpt>
      <trkpt lat="44.77324" lon="6.30625">
        <ele>2639.2</ele>
        <time>2024-08-12T12:29:41Z</time>
      </trkpt>
      <trkpt lat="44.77324" lon="6.30625">
        <ele>2639.6</ele>
        <time>2024-08-12T12:29:42Z</time>
      </trkpt>
      <trkpt lat="44.77324" lon="6.30625">
        <ele>2640.2</ele>
        <time>2024-08-12T12:29:43Z</time>
      </trkpt>
      <trkpt lat="44.77324" lon="6.30625">
        <ele>2640.4</ele>
        <time>2024-08-12T12:29:44Z</time>
      </trkpt>
      <trkpt lat="44.77324" lon="6.30625">
        <ele>2640.6</ele>
        <time>2024-08-12T12:29:45Z</time>
      </trkpt>
      <trkpt lat="44.77324" lon="6.30625">
        <ele>2640.8</ele>
        <time>2024-08-12T12:29:46Z</time>
      </trkpt>
      <trkpt lat="44.77324" lon="6.30625">
        <ele>2640.8</ele>
        <time>2024-08-12T12:29:47Z</time>
      </trkpt>
      <trkpt lat="44.77324" lon="6.30625">
        <ele>2640.8</ele>
        <time>2024-08-12T12:29:48Z</time>
      </trkpt>
      <trkpt lat="44.77324" lon="6.30625">
        <ele>2641.2</ele>
        <time>2024-08-12T12:29:49Z</time>
      </trkpt>
      <trkpt lat="44.77324" lon="6.30625">
        <ele>2641.6</ele>
        <time>2024-08-12T12:29:50Z</time>
      </trkpt>
      <trkpt lat="44.77324" lon="6.30625">
        <ele>2642</ele>
        <time>2024-08-12T12:29:51Z</time>
      </trkpt>
      <trkpt lat="44.77324" lon="6.30625">
        <ele>2642</ele>
        <time>2024-08-12T12:29:52Z</time>
      </trkpt>
      <trkpt lat="44.77324" lon="6.30625">
        <ele>2642</ele>
        <time>2024-08-12T12:29:53Z</time>
      </trkpt>
      <trkpt lat="44.77324" lon="6.30625">
        <ele>2642.4</ele>
        <time>2024-08-12T12:29:54Z</time>
      </trkpt>
      <trkpt lat="44.77324" lon="6.30625">
        <ele>2642.4</ele>
        <time>2024-08-12T12:29:55Z</time>
      </trkpt>
      <trkpt lat="44.77324" lon="6.30625">
        <ele>2642.6</ele>
        <time>2024-08-12T12:29:56Z</time>
      </trkpt>
      <trkpt lat="44.77324" lon="6.30625">
        <ele>2642.8</ele>
        <time>2024-08-12T12:29:57Z</time>
      </trkpt>
      <trkpt lat="44.77324" lon="6.30625">
        <ele>2643.2</ele>
        <time>2024-08-12T12:29:58Z</time>
      </trkpt>
      <trkpt lat="44.77324" lon="6.30625">
        <ele>2643.4</ele>
        <time>2024-08-12T12:29:59Z</time>
      </trkpt>
      <trkpt lat="44.77324" lon="6.30625">
        <ele>2643.6</ele>
        <time>2024-08-12T12:30:00Z</time>
      </trkpt>
      <trkpt lat="44.77322" lon="6.30623">
        <ele>2643.6</ele>
        <time>2024-08-12T12:30:01Z</time>
      </trkpt>
      <trkpt lat="44.77322" lon="6.30623">
        <ele>2644.2</ele>
        <time>2024-08-12T12:30:02Z</time>
      </trkpt>
      <trkpt lat="44.77319" lon="6.30621">
        <ele>2644.2</ele>
        <time>2024-08-12T12:30:03Z</time>
      </trkpt>
      <trkpt lat="44.77319" lon="6.30621">
        <ele>2644.2</ele>
        <time>2024-08-12T12:30:04Z</time>
      </trkpt>
      <trkpt lat="44.77318" lon="6.30618">
        <ele>2644.6</ele>
        <time>2024-08-12T12:30:05Z</time>
      </trkpt>
      <trkpt lat="44.77318" lon="6.30618">
        <ele>2644.6</ele>
        <time>2024-08-12T12:30:06Z</time>
      </trkpt>
      <trkpt lat="44.77318" lon="6.30615">
        <ele>2644.4</ele>
        <time>2024-08-12T12:30:07Z</time>
      </trkpt>
      <trkpt lat="44.77318" lon="6.30615">
        <ele>2644.4</ele>
        <time>2024-08-12T12:30:08Z</time>
      </trkpt>
      <trkpt lat="44.77318" lon="6.30615">
        <ele>2644.8</ele>
        <time>2024-08-12T12:30:09Z</time>
      </trkpt>
      <trkpt lat="44.77318" lon="6.30615">
        <ele>2645</ele>
        <time>2024-08-12T12:30:10Z</time>
      </trkpt>
      <trkpt lat="44.77318" lon="6.30615">
        <ele>2645.4</ele>
        <time>2024-08-12T12:30:11Z</time>
      </trkpt>
      <trkpt lat="44.77318" lon="6.30615">
        <ele>2645.4</ele>
        <time>2024-08-12T12:30:12Z</time>
      </trkpt>
      <trkpt lat="44.77318" lon="6.30615">
        <ele>2645.6</ele>
        <time>2024-08-12T12:30:13Z</time>
      </trkpt>
      <trkpt lat="44.77316" lon="6.30615">
        <ele>2645.6</ele>
        <time>2024-08-12T12:30:14Z</time>
      </trkpt>
      <trkpt lat="44.77316" lon="6.30615">
        <ele>2646</ele>
        <time>2024-08-12T12:30:15Z</time>
      </trkpt>
      <trkpt lat="44.77314" lon="6.30615">
        <ele>2646.2</ele>
        <time>2024-08-12T12:30:16Z</time>
      </trkpt>
      <trkpt lat="44.77314" lon="6.30615">
        <ele>2646.4</ele>
        <time>2024-08-12T12:30:17Z</time>
      </trkpt>
      <trkpt lat="44.77314" lon="6.30615">
        <ele>2646.4</ele>
        <time>2024-08-12T12:30:18Z</time>
      </trkpt>
      <trkpt lat="44.77312" lon="6.30617">
        <ele>2646.8</ele>
        <time>2024-08-12T12:30:19Z</time>
      </trkpt>
      <trkpt lat="44.77312" lon="6.30617">
        <ele>2647.2</ele>
        <time>2024-08-12T12:30:20Z</time>
      </trkpt>
      <trkpt lat="44.7731" lon="6.30618">
        <ele>2647.4</ele>
        <time>2024-08-12T12:30:21Z</time>
      </trkpt>
      <trkpt lat="44.7731" lon="6.30618">
        <ele>2648.2</ele>
        <time>2024-08-12T12:30:22Z</time>
      </trkpt>
      <trkpt lat="44.77308" lon="6.30619">
        <ele>2648.6</ele>
        <time>2024-08-12T12:30:23Z</time>
      </trkpt>
      <trkpt lat="44.77308" lon="6.30619">
        <ele>2648.6</ele>
        <time>2024-08-12T12:30:24Z</time>
      </trkpt>
      <trkpt lat="44.77308" lon="6.30619">
        <ele>2649</ele>
        <time>2024-08-12T12:30:25Z</time>
      </trkpt>
      <trkpt lat="44.77305" lon="6.30621">
        <ele>2649.2</ele>
        <time>2024-08-12T12:30:26Z</time>
      </trkpt>
      <trkpt lat="44.77305" lon="6.30621">
        <ele>2649.2</ele>
        <time>2024-08-12T12:30:27Z</time>
      </trkpt>
      <trkpt lat="44.77303" lon="6.30622">
        <ele>2649.2</ele>
        <time>2024-08-12T12:30:28Z</time>
      </trkpt>
      <trkpt lat="44.77303" lon="6.30622">
        <ele>2649.2</ele>
        <time>2024-08-12T12:30:29Z</time>
      </trkpt>
      <trkpt lat="44.77301" lon="6.30624">
        <ele>2649.4</ele>
        <time>2024-08-12T12:30:30Z</time>
      </trkpt>
      <trkpt lat="44.77301" lon="6.30624">
        <ele>2649.6</ele>
        <time>2024-08-12T12:30:31Z</time>
      </trkpt>
      <trkpt lat="44.773" lon="6.30625">
        <ele>2650</ele>
        <time>2024-08-12T12:30:32Z</time>
      </trkpt>
      <trkpt lat="44.773" lon="6.30625">
        <ele>2650</ele>
        <time>2024-08-12T12:30:33Z</time>
      </trkpt>
      <trkpt lat="44.77298" lon="6.30626">
        <ele>2650.4</ele>
        <time>2024-08-12T12:30:34Z</time>
      </trkpt>
      <trkpt lat="44.77298" lon="6.30626">
        <ele>2650.6</ele>
        <time>2024-08-12T12:30:35Z</time>
      </trkpt>
      <trkpt lat="44.77298" lon="6.30626">
        <ele>2650.8</ele>
        <time>2024-08-12T12:30:36Z</time>
      </trkpt>
      <trkpt lat="44.77296" lon="6.30627">
        <ele>2650.8</ele>
        <time>2024-08-12T12:30:37Z</time>
      </trkpt>
      <trkpt lat="44.77296" lon="6.30627">
        <ele>2651</ele>
        <time>2024-08-12T12:30:38Z</time>
      </trkpt>
      <trkpt lat="44.77296" lon="6.30624">
        <ele>2651</ele>
        <time>2024-08-12T12:30:39Z</time>
      </trkpt>
      <trkpt lat="44.77296" lon="6.30624">
        <ele>2651</ele>
        <time>2024-08-12T12:30:40Z</time>
      </trkpt>
      <trkpt lat="44.77296" lon="6.30624">
        <ele>2651.2</ele>
        <time>2024-08-12T12:30:41Z</time>
      </trkpt>
      <trkpt lat="44.77297" lon="6.3062">
        <ele>2651.8</ele>
        <time>2024-08-12T12:30:42Z</time>
      </trkpt>
      <trkpt lat="44.77297" lon="6.3062">
        <ele>2652.2</ele>
        <time>2024-08-12T12:30:43Z</time>
      </trkpt>
      <trkpt lat="44.77297" lon="6.3062">
        <ele>2652.6</ele>
        <time>2024-08-12T12:30:44Z</time>
      </trkpt>
      <trkpt lat="44.77298" lon="6.30617">
        <ele>2652.8</ele>
        <time>2024-08-12T12:30:45Z</time>
      </trkpt>
      <trkpt lat="44.77298" lon="6.30617">
        <ele>2653</ele>
        <time>2024-08-12T12:30:46Z</time>
      </trkpt>
      <trkpt lat="44.773" lon="6.30615">
        <ele>2653</ele>
        <time>2024-08-12T12:30:47Z</time>
      </trkpt>
      <trkpt lat="44.773" lon="6.30615">
        <ele>2653.2</ele>
        <time>2024-08-12T12:30:48Z</time>
      </trkpt>
      <trkpt lat="44.77301" lon="6.30613">
        <ele>2653.6</ele>
        <time>2024-08-12T12:30:49Z</time>
      </trkpt>
      <trkpt lat="44.77301" lon="6.30613">
        <ele>2653.6</ele>
        <time>2024-08-12T12:30:50Z</time>
      </trkpt>
      <trkpt lat="44.77302" lon="6.30611">
        <ele>2653.8</ele>
        <time>2024-08-12T12:30:51Z</time>
      </trkpt>
      <trkpt lat="44.77302" lon="6.30611">
        <ele>2653.8</ele>
        <time>2024-08-12T12:30:52Z</time>
      </trkpt>
      <trkpt lat="44.77302" lon="6.30611">
        <ele>2653.8</ele>
        <time>2024-08-12T12:30:53Z</time>
      </trkpt>
      <trkpt lat="44.77304" lon="6.30609">
        <ele>2653.8</ele>
        <time>2024-08-12T12:30:54Z</time>
      </trkpt>
      <trkpt lat="44.77304" lon="6.30609">
        <ele>2654</ele>
        <time>2024-08-12T12:30:55Z</time>
      </trkpt>
      <trkpt lat="44.77304" lon="6.30609">
        <ele>2654</ele>
        <time>2024-08-12T12:30:56Z</time>
      </trkpt>
      <trkpt lat="44.77304" lon="6.30609">
        <ele>2654</ele>
        <time>2024-08-12T12:30:57Z</time>
      </trkpt>
      <trkpt lat="44.77306" lon="6.30606">
        <ele>2654</ele>
        <time>2024-08-12T12:30:58Z</time>
      </trkpt>
      <trkpt lat="44.77306" lon="6.30606">
        <ele>2653.8</ele>
        <time>2024-08-12T12:30:59Z</time>
      </trkpt>
      <trkpt lat="44.77307" lon="6.30605">
        <ele>2653.8</ele>
        <time>2024-08-12T12:31:00Z</time>
      </trkpt>
      <trkpt lat="44.77307" lon="6.30605">
        <ele>2654.2</ele>
        <time>2024-08-12T12:31:01Z</time>
      </trkpt>
      <trkpt lat="44.77307" lon="6.30605">
        <ele>2654.8</ele>
        <time>2024-08-12T12:31:02Z</time>
      </trkpt>
      <trkpt lat="44.77307" lon="6.30605">
        <ele>2655</ele>
        <time>2024-08-12T12:31:03Z</time>
      </trkpt>
      <trkpt lat="44.77309" lon="6.30602">
        <ele>2655.2</ele>
        <time>2024-08-12T12:31:04Z</time>
      </trkpt>
      <trkpt lat="44.77309" lon="6.30602">
        <ele>2655.6</ele>
        <time>2024-08-12T12:31:05Z</time>
      </trkpt>
      <trkpt lat="44.77311" lon="6.306">
        <ele>2656</ele>
        <time>2024-08-12T12:31:06Z</time>
      </trkpt>
      <trkpt lat="44.77311" lon="6.306">
        <ele>2656</ele>
        <time>2024-08-12T12:31:07Z</time>
      </trkpt>
      <trkpt lat="44.77312" lon="6.30597">
        <ele>2656</ele>
        <time>2024-08-12T12:31:08Z</time>
      </trkpt>
      <trkpt lat="44.77312" lon="6.30597">
        <ele>2656.4</ele>
        <time>2024-08-12T12:31:09Z</time>
      </trkpt>
      <trkpt lat="44.77314" lon="6.30596">
        <ele>2656.6</ele>
        <time>2024-08-12T12:31:10Z</time>
      </trkpt>
      <trkpt lat="44.77314" lon="6.30596">
        <ele>2656.8</ele>
        <time>2024-08-12T12:31:11Z</time>
      </trkpt>
      <trkpt lat="44.77314" lon="6.30596">
        <ele>2656.8</ele>
        <time>2024-08-12T12:31:12Z</time>
      </trkpt>
      <trkpt lat="44.77316" lon="6.30593">
        <ele>2657.4</ele>
        <time>2024-08-12T12:31:13Z</time>
      </trkpt>
      <trkpt lat="44.77316" lon="6.30593">
        <ele>2657.6</ele>
        <time>2024-08-12T12:31:14Z</time>
      </trkpt>
      <trkpt lat="44.77317" lon="6.30591">
        <ele>2657.6</ele>
        <time>2024-08-12T12:31:15Z</time>
      </trkpt>
      <trkpt lat="44.77317" lon="6.30591">
        <ele>2657.8</ele>
        <time>2024-08-12T12:31:16Z</time>
      </trkpt>
      <trkpt lat="44.77317" lon="6.30591">
        <ele>2658</ele>
        <time>2024-08-12T12:31:17Z</time>
      </trkpt>
      <trkpt lat="44.77318" lon="6.30588">
        <ele>2658.4</ele>
        <time>2024-08-12T12:31:18Z</time>
      </trkpt>
      <trkpt lat="44.77318" lon="6.30588">
        <ele>2658.6</ele>
        <time>2024-08-12T12:31:19Z</time>
      </trkpt>
      <trkpt lat="44.77319" lon="6.30586">
        <ele>2658.6</ele>
        <time>2024-08-12T12:31:20Z</time>
      </trkpt>
      <trkpt lat="44.77319" lon="6.30586">
        <ele>2659</ele>
        <time>2024-08-12T12:31:21Z</time>
      </trkpt>
      <trkpt lat="44.77319" lon="6.30586">
        <ele>2659.2</ele>
        <time>2024-08-12T12:31:22Z</time>
      </trkpt>
      <trkpt lat="44.77319" lon="6.30583">
        <ele>2659.8</ele>
        <time>2024-08-12T12:31:23Z</time>
      </trkpt>
      <trkpt lat="44.77319" lon="6.30583">
        <ele>2660</ele>
        <time>2024-08-12T12:31:24Z</time>
      </trkpt>
      <trkpt lat="44.77319" lon="6.30583">
        <ele>2660.2</ele>
        <time>2024-08-12T12:31:25Z</time>
      </trkpt>
      <trkpt lat="44.7732" lon="6.3058">
        <ele>2660.4</ele>
        <time>2024-08-12T12:31:26Z</time>
      </trkpt>
      <trkpt lat="44.7732" lon="6.3058">
        <ele>2660.8</ele>
        <time>2024-08-12T12:31:27Z</time>
      </trkpt>
      <trkpt lat="44.77321" lon="6.30578">
        <ele>2661.2</ele>
        <time>2024-08-12T12:31:28Z</time>
      </trkpt>
      <trkpt lat="44.77321" lon="6.30578">
        <ele>2661.4</ele>
        <time>2024-08-12T12:31:29Z</time>
      </trkpt>
      <trkpt lat="44.77321" lon="6.30578">
        <ele>2661.4</ele>
        <time>2024-08-12T12:31:30Z</time>
      </trkpt>
      <trkpt lat="44.77322" lon="6.30575">
        <ele>2661.4</ele>
        <time>2024-08-12T12:31:31Z</time>
      </trkpt>
      <trkpt lat="44.77322" lon="6.30575">
        <ele>2661.8</ele>
        <time>2024-08-12T12:31:32Z</time>
      </trkpt>
      <trkpt lat="44.77322" lon="6.30575">
        <ele>2662</ele>
        <time>2024-08-12T12:31:33Z</time>
      </trkpt>
      <trkpt lat="44.77323" lon="6.30573">
        <ele>2662.4</ele>
        <time>2024-08-12T12:31:34Z</time>
      </trkpt>
      <trkpt lat="44.77323" lon="6.30573">
        <ele>2662.6</ele>
        <time>2024-08-12T12:31:35Z</time>
      </trkpt>
      <trkpt lat="44.77323" lon="6.30573">
        <ele>2662.8</ele>
        <time>2024-08-12T12:31:36Z</time>
      </trkpt>
      <trkpt lat="44.77324" lon="6.3057">
        <ele>2662.8</ele>
        <time>2024-08-12T12:31:37Z</time>
      </trkpt>
      <trkpt lat="44.77324" lon="6.3057">
        <ele>2663</ele>
        <time>2024-08-12T12:31:38Z</time>
      </trkpt>
      <trkpt lat="44.77325" lon="6.30568">
        <ele>2663.4</ele>
        <time>2024-08-12T12:31:39Z</time>
      </trkpt>
      <trkpt lat="44.77325" lon="6.30568">
        <ele>2663.8</ele>
        <time>2024-08-12T12:31:40Z</time>
      </trkpt>
      <trkpt lat="44.77325" lon="6.30568">
        <ele>2663.8</ele>
        <time>2024-08-12T12:31:41Z</time>
      </trkpt>
      <trkpt lat="44.77327" lon="6.30565">
        <ele>2663.8</ele>
        <time>2024-08-12T12:31:42Z</time>
      </trkpt>
      <trkpt lat="44.77327" lon="6.30565">
        <ele>2664</ele>
        <time>2024-08-12T12:31:43Z</time>
      </trkpt>
      <trkpt lat="44.77328" lon="6.30563">
        <ele>2664</ele>
        <time>2024-08-12T12:31:44Z</time>
      </trkpt>
      <trkpt lat="44.77328" lon="6.30563">
        <ele>2664</ele>
        <time>2024-08-12T12:31:45Z</time>
      </trkpt>
      <trkpt lat="44.77329" lon="6.30561">
        <ele>2664.2</ele>
        <time>2024-08-12T12:31:46Z</time>
      </trkpt>
      <trkpt lat="44.77329" lon="6.30561">
        <ele>2664.2</ele>
        <time>2024-08-12T12:31:47Z</time>
      </trkpt>
      <trkpt lat="44.77329" lon="6.30561">
        <ele>2664.4</ele>
        <time>2024-08-12T12:31:48Z</time>
      </trkpt>
      <trkpt lat="44.77331" lon="6.30559">
        <ele>2664.6</ele>
        <time>2024-08-12T12:31:49Z</time>
      </trkpt>
      <trkpt lat="44.77331" lon="6.30559">
        <ele>2664.8</ele>
        <time>2024-08-12T12:31:50Z</time>
      </trkpt>
      <trkpt lat="44.77331" lon="6.30559">
        <ele>2664.8</ele>
        <time>2024-08-12T12:31:51Z</time>
      </trkpt>
      <trkpt lat="44.77332" lon="6.30556">
        <ele>2665</ele>
        <time>2024-08-12T12:31:52Z</time>
      </trkpt>
      <trkpt lat="44.77332" lon="6.30556">
        <ele>2665.2</ele>
        <time>2024-08-12T12:31:53Z</time>
      </trkpt>
      <trkpt lat="44.77333" lon="6.30555">
        <ele>2665.2</ele>
        <time>2024-08-12T12:31:54Z</time>
      </trkpt>
      <trkpt lat="44.77333" lon="6.30555">
        <ele>2665.8</ele>
        <time>2024-08-12T12:31:55Z</time>
      </trkpt>
      <trkpt lat="44.77333" lon="6.30555">
        <ele>2666.2</ele>
        <time>2024-08-12T12:31:56Z</time>
      </trkpt>
      <trkpt lat="44.77335" lon="6.30552">
        <ele>2666.4</ele>
        <time>2024-08-12T12:31:57Z</time>
      </trkpt>
      <trkpt lat="44.77335" lon="6.30552">
        <ele>2666.4</ele>
        <time>2024-08-12T12:31:58Z</time>
      </trkpt>
      <trkpt lat="44.77335" lon="6.30552">
        <ele>2666.6</ele>
        <time>2024-08-12T12:31:59Z</time>
      </trkpt>
      <trkpt lat="44.77337" lon="6.3055">
        <ele>2667</ele>
        <time>2024-08-12T12:32:00Z</time>
      </trkpt>
      <trkpt lat="44.77337" lon="6.3055">
        <ele>2667.2</ele>
        <time>2024-08-12T12:32:01Z</time>
      </trkpt>
      <trkpt lat="44.77337" lon="6.3055">
        <ele>2667.6</ele>
        <time>2024-08-12T12:32:02Z</time>
      </trkpt>
      <trkpt lat="44.77338" lon="6.30547">
        <ele>2667.6</ele>
        <time>2024-08-12T12:32:03Z</time>
      </trkpt>
      <trkpt lat="44.77338" lon="6.30547">
        <ele>2668.2</ele>
        <time>2024-08-12T12:32:04Z</time>
      </trkpt>
      <trkpt lat="44.77339" lon="6.30545">
        <ele>2668.4</ele>
        <time>2024-08-12T12:32:05Z</time>
      </trkpt>
      <trkpt lat="44.77339" lon="6.30545">
        <ele>2668.4</ele>
        <time>2024-08-12T12:32:06Z</time>
      </trkpt>
      <trkpt lat="44.77339" lon="6.30545">
        <ele>2668.4</ele>
        <time>2024-08-12T12:32:07Z</time>
      </trkpt>
      <trkpt lat="44.77341" lon="6.30542">
        <ele>2668.6</ele>
        <time>2024-08-12T12:32:08Z</time>
      </trkpt>
      <trkpt lat="44.77341" lon="6.30542">
        <ele>2668.6</ele>
        <time>2024-08-12T12:32:09Z</time>
      </trkpt>
      <trkpt lat="44.77343" lon="6.30541">
        <ele>2668.8</ele>
        <time>2024-08-12T12:32:10Z</time>
      </trkpt>
      <trkpt lat="44.77343" lon="6.30541">
        <ele>2669</ele>
        <time>2024-08-12T12:32:11Z</time>
      </trkpt>
      <trkpt lat="44.77343" lon="6.30541">
        <ele>2669</ele>
        <time>2024-08-12T12:32:12Z</time>
      </trkpt>
      <trkpt lat="44.77345" lon="6.30539">
        <ele>2669</ele>
        <time>2024-08-12T12:32:13Z</time>
      </trkpt>
      <trkpt lat="44.77345" lon="6.30539">
        <ele>2669.4</ele>
        <time>2024-08-12T12:32:14Z</time>
      </trkpt>
      <trkpt lat="44.77345" lon="6.30539">
        <ele>2669.6</ele>
        <time>2024-08-12T12:32:15Z</time>
      </trkpt>
      <trkpt lat="44.77347" lon="6.30538">
        <ele>2669.8</ele>
        <time>2024-08-12T12:32:16Z</time>
      </trkpt>
      <trkpt lat="44.77347" lon="6.30538">
        <ele>2670.2</ele>
        <time>2024-08-12T12:32:17Z</time>
      </trkpt>
      <trkpt lat="44.77347" lon="6.30538">
        <ele>2670.2</ele>
        <time>2024-08-12T12:32:18Z</time>
      </trkpt>
      <trkpt lat="44.77349" lon="6.30537">
        <ele>2670.2</ele>
        <time>2024-08-12T12:32:19Z</time>
      </trkpt>
      <trkpt lat="44.77349" lon="6.30537">
        <ele>2670.4</ele>
        <time>2024-08-12T12:32:20Z</time>
      </trkpt>
      <trkpt lat="44.77349" lon="6.30537">
        <ele>2670.8</ele>
        <time>2024-08-12T12:32:21Z</time>
      </trkpt>
      <trkpt lat="44.77349" lon="6.30537">
        <ele>2670.8</ele>
        <time>2024-08-12T12:32:22Z</time>
      </trkpt>
      <trkpt lat="44.77352" lon="6.30535">
        <ele>2671</ele>
        <time>2024-08-12T12:32:23Z</time>
      </trkpt>
      <trkpt lat="44.77352" lon="6.30535">
        <ele>2671.2</ele>
        <time>2024-08-12T12:32:24Z</time>
      </trkpt>
      <trkpt lat="44.77354" lon="6.30535">
        <ele>2671.6</ele>
        <time>2024-08-12T12:32:25Z</time>
      </trkpt>
      <trkpt lat="44.77354" lon="6.30535">
        <ele>2671.8</ele>
        <time>2024-08-12T12:32:26Z</time>
      </trkpt>
      <trkpt lat="44.77356" lon="6.30534">
        <ele>2672</ele>
        <time>2024-08-12T12:32:27Z</time>
      </trkpt>
      <trkpt lat="44.77356" lon="6.30534">
        <ele>2672</ele>
        <time>2024-08-12T12:32:28Z</time>
      </trkpt>
      <trkpt lat="44.77356" lon="6.30534">
        <ele>2672.2</ele>
        <time>2024-08-12T12:32:29Z</time>
      </trkpt>
      <trkpt lat="44.77358" lon="6.30534">
        <ele>2672.2</ele>
        <time>2024-08-12T12:32:30Z</time>
      </trkpt>
      <trkpt lat="44.77358" lon="6.30534">
        <ele>2672.2</ele>
        <time>2024-08-12T12:32:31Z</time>
      </trkpt>
      <trkpt lat="44.77358" lon="6.30534">
        <ele>2672.2</ele>
        <time>2024-08-12T12:32:32Z</time>
      </trkpt>
      <trkpt lat="44.77358" lon="6.30534">
        <ele>2672.2</ele>
        <time>2024-08-12T12:32:33Z</time>
      </trkpt>
      <trkpt lat="44.77358" lon="6.30534">
        <ele>2672.2</ele>
        <time>2024-08-12T12:32:34Z</time>
      </trkpt>
      <trkpt lat="44.77358" lon="6.30534">
        <ele>2672</ele>
        <time>2024-08-12T12:32:35Z</time>
      </trkpt>
      <trkpt lat="44.77358" lon="6.30534">
        <ele>2671.8</ele>
        <time>2024-08-12T12:32:36Z</time>
      </trkpt>
      <trkpt lat="44.77358" lon="6.30534">
        <ele>2671.6</ele>
        <time>2024-08-12T12:32:37Z</time>
      </trkpt>
      <trkpt lat="44.77358" lon="6.30534">
        <ele>2671.6</ele>
        <time>2024-08-12T12:32:38Z</time>
      </trkpt>
      <trkpt lat="44.77358" lon="6.30534">
        <ele>2671.2</ele>
        <time>2024-08-12T12:32:39Z</time>
      </trkpt>
      <trkpt lat="44.77358" lon="6.30534">
        <ele>2671.2</ele>
        <time>2024-08-12T12:32:40Z</time>
      </trkpt>
      <trkpt lat="44.77358" lon="6.30534">
        <ele>2671.8</ele>
        <time>2024-08-12T12:32:41Z</time>
      </trkpt>
      <trkpt lat="44.77358" lon="6.30534">
        <ele>2671.8</ele>
        <time>2024-08-12T12:32:42Z</time>
      </trkpt>
      <trkpt lat="44.77358" lon="6.30534">
        <ele>2671.6</ele>
        <time>2024-08-12T12:32:43Z</time>
      </trkpt>
      <trkpt lat="44.77358" lon="6.30534">
        <ele>2671.2</ele>
        <time>2024-08-12T12:32:44Z</time>
      </trkpt>
      <trkpt lat="44.77358" lon="6.30534">
        <ele>2671</ele>
        <time>2024-08-12T12:32:45Z</time>
      </trkpt>
      <trkpt lat="44.77358" lon="6.30534">
        <ele>2671</ele>
        <time>2024-08-12T12:32:46Z</time>
      </trkpt>
      <trkpt lat="44.77358" lon="6.30534">
        <ele>2671</ele>
        <time>2024-08-12T12:32:47Z</time>
      </trkpt>
      <trkpt lat="44.77358" lon="6.30534">
        <ele>2670.6</ele>
        <time>2024-08-12T12:32:48Z</time>
      </trkpt>
      <trkpt lat="44.77358" lon="6.30534">
        <ele>2670.2</ele>
        <time>2024-08-12T12:32:49Z</time>
      </trkpt>
      <trkpt lat="44.77358" lon="6.30534">
        <ele>2670</ele>
        <time>2024-08-12T12:32:50Z</time>
      </trkpt>
      <trkpt lat="44.77358" lon="6.30534">
        <ele>2669.6</ele>
        <time>2024-08-12T12:32:51Z</time>
      </trkpt>
      <trkpt lat="44.77358" lon="6.30534">
        <ele>2669.6</ele>
        <time>2024-08-12T12:32:52Z</time>
      </trkpt>
      <trkpt lat="44.77358" lon="6.30534">
        <ele>2669.6</ele>
        <time>2024-08-12T12:32:53Z</time>
      </trkpt>
      <trkpt lat="44.77358" lon="6.30534">
        <ele>2670</ele>
        <time>2024-08-12T12:32:54Z</time>
      </trkpt>
      <trkpt lat="44.77358" lon="6.30534">
        <ele>2670.2</ele>
        <time>2024-08-12T12:32:55Z</time>
      </trkpt>
      <trkpt lat="44.77358" lon="6.30534">
        <ele>2670.2</ele>
        <time>2024-08-12T12:32:56Z</time>
      </trkpt>
      <trkpt lat="44.77358" lon="6.30534">
        <ele>2670.4</ele>
        <time>2024-08-12T12:32:57Z</time>
      </trkpt>
      <trkpt lat="44.77358" lon="6.30534">
        <ele>2670.4</ele>
        <time>2024-08-12T12:32:58Z</time>
      </trkpt>
      <trkpt lat="44.77358" lon="6.30534">
        <ele>2670.4</ele>
        <time>2024-08-12T12:32:59Z</time>
      </trkpt>
      <trkpt lat="44.77358" lon="6.30534">
        <ele>2670.4</ele>
        <time>2024-08-12T12:33:00Z</time>
      </trkpt>
      <trkpt lat="44.77358" lon="6.30534">
        <ele>2670.4</ele>
        <time>2024-08-12T12:33:01Z</time>
      </trkpt>
      <trkpt lat="44.77358" lon="6.30534">
        <ele>2670.4</ele>
        <time>2024-08-12T12:33:02Z</time>
      </trkpt>
      <trkpt lat="44.77358" lon="6.30534">
        <ele>2670.4</ele>
        <time>2024-08-12T12:33:03Z</time>
      </trkpt>
      <trkpt lat="44.77358" lon="6.30534">
        <ele>2670.4</ele>
        <time>2024-08-12T12:33:04Z</time>
      </trkpt>
      <trkpt lat="44.77358" lon="6.30534">
        <ele>2670.4</ele>
        <time>2024-08-12T12:33:05Z</time>
      </trkpt>
      <trkpt lat="44.77358" lon="6.30534">
        <ele>2670</ele>
        <time>2024-08-12T12:33:06Z</time>
      </trkpt>
      <trkpt lat="44.77358" lon="6.30534">
        <ele>2670</ele>
        <time>2024-08-12T12:33:07Z</time>
      </trkpt>
      <trkpt lat="44.77358" lon="6.30534">
        <ele>2670</ele>
        <time>2024-08-12T12:33:08Z</time>
      </trkpt>
      <trkpt lat="44.77358" lon="6.30534">
        <ele>2670.2</ele>
        <time>2024-08-12T12:33:09Z</time>
      </trkpt>
      <trkpt lat="44.77358" lon="6.30534">
        <ele>2670.4</ele>
        <time>2024-08-12T12:33:10Z</time>
      </trkpt>
      <trkpt lat="44.77358" lon="6.30534">
        <ele>2670.4</ele>
        <time>2024-08-12T12:33:11Z</time>
      </trkpt>
      <trkpt lat="44.77358" lon="6.30534">
        <ele>2670.4</ele>
        <time>2024-08-12T12:33:12Z</time>
      </trkpt>
      <trkpt lat="44.77358" lon="6.30534">
        <ele>2670.2</ele>
        <time>2024-08-12T12:33:13Z</time>
      </trkpt>
      <trkpt lat="44.77358" lon="6.30534">
        <ele>2670.2</ele>
        <time>2024-08-12T12:33:14Z</time>
      </trkpt>
      <trkpt lat="44.77358" lon="6.30534">
        <ele>2670</ele>
        <time>2024-08-12T12:33:15Z</time>
      </trkpt>
      <trkpt lat="44.77358" lon="6.30534">
        <ele>2670</ele>
        <time>2024-08-12T12:33:16Z</time>
      </trkpt>
      <trkpt lat="44.77358" lon="6.30534">
        <ele>2670</ele>
        <time>2024-08-12T12:33:17Z</time>
      </trkpt>
      <trkpt lat="44.77358" lon="6.30534">
        <ele>2670.2</ele>
        <time>2024-08-12T12:33:18Z</time>
      </trkpt>
      <trkpt lat="44.77358" lon="6.30534">
        <ele>2670.6</ele>
        <time>2024-08-12T12:33:19Z</time>
      </trkpt>
      <trkpt lat="44.77358" lon="6.30534">
        <ele>2671</ele>
        <time>2024-08-12T12:33:20Z</time>
      </trkpt>
      <trkpt lat="44.77358" lon="6.30534">
        <ele>2671</ele>
        <time>2024-08-12T12:33:21Z</time>
      </trkpt>
      <trkpt lat="44.77358" lon="6.30534">
        <ele>2670.6</ele>
        <time>2024-08-12T12:33:22Z</time>
      </trkpt>
      <trkpt lat="44.77358" lon="6.30534">
        <ele>2670.2</ele>
        <time>2024-08-12T12:33:23Z</time>
      </trkpt>
      <trkpt lat="44.77358" lon="6.30534">
        <ele>2670.2</ele>
        <time>2024-08-12T12:33:24Z</time>
      </trkpt>
      <trkpt lat="44.77358" lon="6.30534">
        <ele>2670.2</ele>
        <time>2024-08-12T12:33:25Z</time>
      </trkpt>
      <trkpt lat="44.77358" lon="6.30534">
        <ele>2670</ele>
        <time>2024-08-12T12:33:26Z</time>
      </trkpt>
      <trkpt lat="44.77358" lon="6.30534">
        <ele>2670</ele>
        <time>2024-08-12T12:33:27Z</time>
      </trkpt>
      <trkpt lat="44.77358" lon="6.30534">
        <ele>2670</ele>
        <time>2024-08-12T12:33:28Z</time>
      </trkpt>
      <trkpt lat="44.77358" lon="6.30534">
        <ele>2670.4</ele>
        <time>2024-08-12T12:33:29Z</time>
      </trkpt>
      <trkpt lat="44.77358" lon="6.30534">
        <ele>2670.4</ele>
        <time>2024-08-12T12:33:30Z</time>
      </trkpt>
      <trkpt lat="44.77358" lon="6.30534">
        <ele>2670</ele>
        <time>2024-08-12T12:33:31Z</time>
      </trkpt>
      <trkpt lat="44.77358" lon="6.30534">
        <ele>2670</ele>
        <time>2024-08-12T12:33:32Z</time>
      </trkpt>
      <trkpt lat="44.77358" lon="6.30534">
        <ele>2670</ele>
        <time>2024-08-12T12:33:33Z</time>
      </trkpt>
      <trkpt lat="44.77358" lon="6.30534">
        <ele>2670</ele>
        <time>2024-08-12T12:33:34Z</time>
      </trkpt>
      <trkpt lat="44.77358" lon="6.30534">
        <ele>2670</ele>
        <time>2024-08-12T12:33:35Z</time>
      </trkpt>
      <trkpt lat="44.77358" lon="6.30534">
        <ele>2670</ele>
        <time>2024-08-12T12:33:36Z</time>
      </trkpt>
      <trkpt lat="44.77358" lon="6.30534">
        <ele>2670</ele>
        <time>2024-08-12T12:33:37Z</time>
      </trkpt>
      <trkpt lat="44.77358" lon="6.30534">
        <ele>2670</ele>
        <time>2024-08-12T12:33:38Z</time>
      </trkpt>
      <trkpt lat="44.77358" lon="6.30534">
        <ele>2670</ele>
        <time>2024-08-12T12:33:39Z</time>
      </trkpt>
      <trkpt lat="44.77358" lon="6.30534">
        <ele>2670.4</ele>
        <time>2024-08-12T12:33:40Z</time>
      </trkpt>
      <trkpt lat="44.77358" lon="6.30534">
        <ele>2670.4</ele>
        <time>2024-08-12T12:33:41Z</time>
      </trkpt>
      <trkpt lat="44.77358" lon="6.30534">
        <ele>2670.2</ele>
        <time>2024-08-12T12:33:42Z</time>
      </trkpt>
      <trkpt lat="44.77358" lon="6.30534">
        <ele>2670.2</ele>
        <time>2024-08-12T12:33:43Z</time>
      </trkpt>
      <trkpt lat="44.77358" lon="6.30534">
        <ele>2670.2</ele>
        <time>2024-08-12T12:33:44Z</time>
      </trkpt>
      <trkpt lat="44.77358" lon="6.30534">
        <ele>2670.4</ele>
        <time>2024-08-12T12:33:45Z</time>
      </trkpt>
      <trkpt lat="44.77358" lon="6.30534">
        <ele>2670.4</ele>
        <time>2024-08-12T12:33:46Z</time>
      </trkpt>
      <trkpt lat="44.77358" lon="6.30534">
        <ele>2670.4</ele>
        <time>2024-08-12T12:33:47Z</time>
      </trkpt>
      <trkpt lat="44.77358" lon="6.30534">
        <ele>2670.6</ele>
        <time>2024-08-12T12:33:48Z</time>
      </trkpt>
      <trkpt lat="44.77358" lon="6.30534">
        <ele>2670.6</ele>
        <time>2024-08-12T12:33:49Z</time>
      </trkpt>
      <trkpt lat="44.77358" lon="6.30534">
        <ele>2670.6</ele>
        <time>2024-08-12T12:33:50Z</time>
      </trkpt>
      <trkpt lat="44.77358" lon="6.30534">
        <ele>2670.6</ele>
        <time>2024-08-12T12:33:51Z</time>
      </trkpt>
      <trkpt lat="44.77358" lon="6.30534">
        <ele>2670.6</ele>
        <time>2024-08-12T12:33:52Z</time>
      </trkpt>
      <trkpt lat="44.77358" lon="6.30534">
        <ele>2671</ele>
        <time>2024-08-12T12:33:53Z</time>
      </trkpt>
      <trkpt lat="44.77358" lon="6.30534">
        <ele>2671.4</ele>
        <time>2024-08-12T12:33:54Z</time>
      </trkpt>
      <trkpt lat="44.77358" lon="6.30534">
        <ele>2671.4</ele>
        <time>2024-08-12T12:33:55Z</time>
      </trkpt>
      <trkpt lat="44.77358" lon="6.30534">
        <ele>2671.8</ele>
        <time>2024-08-12T12:33:56Z</time>
      </trkpt>
      <trkpt lat="44.77358" lon="6.30534">
        <ele>2671.8</ele>
        <time>2024-08-12T12:33:57Z</time>
      </trkpt>
      <trkpt lat="44.77358" lon="6.30534">
        <ele>2671.8</ele>
        <time>2024-08-12T12:33:58Z</time>
      </trkpt>
      <trkpt lat="44.77358" lon="6.30534">
        <ele>2671</ele>
        <time>2024-08-12T12:33:59Z</time>
      </trkpt>
      <trkpt lat="44.77358" lon="6.30534">
        <ele>2671</ele>
        <time>2024-08-12T12:34:00Z</time>
      </trkpt>
      <trkpt lat="44.77358" lon="6.30534">
        <ele>2671</ele>
        <time>2024-08-12T12:34:01Z</time>
      </trkpt>
      <trkpt lat="44.77358" lon="6.30534">
        <ele>2670.8</ele>
        <time>2024-08-12T12:34:02Z</time>
      </trkpt>
      <trkpt lat="44.77358" lon="6.30534">
        <ele>2670.8</ele>
        <time>2024-08-12T12:34:03Z</time>
      </trkpt>
      <trkpt lat="44.77358" lon="6.30534">
        <ele>2670.8</ele>
        <time>2024-08-12T12:34:04Z</time>
      </trkpt>
      <trkpt lat="44.77358" lon="6.30534">
        <ele>2670.8</ele>
        <time>2024-08-12T12:34:05Z</time>
      </trkpt>
      <trkpt lat="44.77358" lon="6.30534">
        <ele>2671.2</ele>
        <time>2024-08-12T12:34:06Z</time>
      </trkpt>
      <trkpt lat="44.77358" lon="6.30534">
        <ele>2671.8</ele>
        <time>2024-08-12T12:34:07Z</time>
      </trkpt>
      <trkpt lat="44.77358" lon="6.30534">
        <ele>2671.8</ele>
        <time>2024-08-12T12:34:08Z</time>
      </trkpt>
      <trkpt lat="44.77358" lon="6.30534">
        <ele>2671.4</ele>
        <time>2024-08-12T12:34:09Z</time>
      </trkpt>
      <trkpt lat="44.77358" lon="6.30534">
        <ele>2671</ele>
        <time>2024-08-12T12:34:10Z</time>
      </trkpt>
      <trkpt lat="44.77358" lon="6.30534">
        <ele>2671.2</ele>
        <time>2024-08-12T12:34:11Z</time>
      </trkpt>
      <trkpt lat="44.77358" lon="6.30534">
        <ele>2670.6</ele>
        <time>2024-08-12T12:34:12Z</time>
      </trkpt>
      <trkpt lat="44.77358" lon="6.30534">
        <ele>2670.4</ele>
        <time>2024-08-12T12:34:13Z</time>
      </trkpt>
      <trkpt lat="44.77358" lon="6.30534">
        <ele>2670</ele>
        <time>2024-08-12T12:34:14Z</time>
      </trkpt>
      <trkpt lat="44.77358" lon="6.30534">
        <ele>2670</ele>
        <time>2024-08-12T12:34:15Z</time>
      </trkpt>
      <trkpt lat="44.77358" lon="6.30534">
        <ele>2670.8</ele>
        <time>2024-08-12T12:34:16Z</time>
      </trkpt>
      <trkpt lat="44.77358" lon="6.30534">
        <ele>2670.8</ele>
        <time>2024-08-12T12:34:17Z</time>
      </trkpt>
      <trkpt lat="44.77358" lon="6.30534">
        <ele>2671</ele>
        <time>2024-08-12T12:34:18Z</time>
      </trkpt>
      <trkpt lat="44.77358" lon="6.30534">
        <ele>2671.4</ele>
        <time>2024-08-12T12:34:19Z</time>
      </trkpt>
      <trkpt lat="44.7736" lon="6.30532">
        <ele>2671.6</ele>
        <time>2024-08-12T12:34:20Z</time>
      </trkpt>
      <trkpt lat="44.77361" lon="6.3053">
        <ele>2671.6</ele>
        <time>2024-08-12T12:34:21Z</time>
      </trkpt>
      <trkpt lat="44.77363" lon="6.30528">
        <ele>2671.6</ele>
        <time>2024-08-12T12:34:22Z</time>
      </trkpt>
      <trkpt lat="44.77365" lon="6.30526">
        <ele>2671.6</ele>
        <time>2024-08-12T12:34:23Z</time>
      </trkpt>
      <trkpt lat="44.77365" lon="6.30526">
        <ele>2671.2</ele>
        <time>2024-08-12T12:34:24Z</time>
      </trkpt>
      <trkpt lat="44.77367" lon="6.30523">
        <ele>2670.2</ele>
        <time>2024-08-12T12:34:25Z</time>
      </trkpt>
      <trkpt lat="44.77367" lon="6.30523">
        <ele>2669.8</ele>
        <time>2024-08-12T12:34:26Z</time>
      </trkpt>
      <trkpt lat="44.77369" lon="6.3052">
        <ele>2669.4</ele>
        <time>2024-08-12T12:34:27Z</time>
      </trkpt>
      <trkpt lat="44.77369" lon="6.3052">
        <ele>2669</ele>
        <time>2024-08-12T12:34:28Z</time>
      </trkpt>
      <trkpt lat="44.77371" lon="6.30518">
        <ele>2668.4</ele>
        <time>2024-08-12T12:34:29Z</time>
      </trkpt>
      <trkpt lat="44.77371" lon="6.30518">
        <ele>2667.8</ele>
        <time>2024-08-12T12:34:30Z</time>
      </trkpt>
      <trkpt lat="44.77373" lon="6.30516">
        <ele>2667.6</ele>
        <time>2024-08-12T12:34:31Z</time>
      </trkpt>
      <trkpt lat="44.77373" lon="6.30516">
        <ele>2667.6</ele>
        <time>2024-08-12T12:34:32Z</time>
      </trkpt>
      <trkpt lat="44.77375" lon="6.30514">
        <ele>2667</ele>
        <time>2024-08-12T12:34:33Z</time>
      </trkpt>
      <trkpt lat="44.77375" lon="6.30514">
        <ele>2666.8</ele>
        <time>2024-08-12T12:34:34Z</time>
      </trkpt>
      <trkpt lat="44.77377" lon="6.30513">
        <ele>2666.4</ele>
        <time>2024-08-12T12:34:35Z</time>
      </trkpt>
      <trkpt lat="44.77377" lon="6.30513">
        <ele>2666.2</ele>
        <time>2024-08-12T12:34:36Z</time>
      </trkpt>
      <trkpt lat="44.7738" lon="6.30512">
        <ele>2666.2</ele>
        <time>2024-08-12T12:34:37Z</time>
      </trkpt>
      <trkpt lat="44.7738" lon="6.30512">
        <ele>2666.4</ele>
        <time>2024-08-12T12:34:38Z</time>
      </trkpt>
      <trkpt lat="44.77382" lon="6.30511">
        <ele>2665.4</ele>
        <time>2024-08-12T12:34:39Z</time>
      </trkpt>
      <trkpt lat="44.77382" lon="6.30511">
        <ele>2664.6</ele>
        <time>2024-08-12T12:34:40Z</time>
      </trkpt>
      <trkpt lat="44.77384" lon="6.3051">
        <ele>2664.6</ele>
        <time>2024-08-12T12:34:41Z</time>
      </trkpt>
      <trkpt lat="44.77384" lon="6.3051">
        <ele>2664.4</ele>
        <time>2024-08-12T12:34:42Z</time>
      </trkpt>
      <trkpt lat="44.77387" lon="6.30509">
        <ele>2664.4</ele>
        <time>2024-08-12T12:34:43Z</time>
      </trkpt>
      <trkpt lat="44.77387" lon="6.30509">
        <ele>2664.2</ele>
        <time>2024-08-12T12:34:44Z</time>
      </trkpt>
      <trkpt lat="44.77387" lon="6.30509">
        <ele>2664</ele>
        <time>2024-08-12T12:34:45Z</time>
      </trkpt>
      <trkpt lat="44.77387" lon="6.30509">
        <ele>2663.6</ele>
        <time>2024-08-12T12:34:46Z</time>
      </trkpt>
      <trkpt lat="44.77387" lon="6.30509">
        <ele>2663.6</ele>
        <time>2024-08-12T12:34:47Z</time>
      </trkpt>
      <trkpt lat="44.77387" lon="6.30509">
        <ele>2664.8</ele>
        <time>2024-08-12T12:34:48Z</time>
      </trkpt>
      <trkpt lat="44.77387" lon="6.30509">
        <ele>2664.8</ele>
        <time>2024-08-12T12:34:49Z</time>
      </trkpt>
      <trkpt lat="44.77385" lon="6.30507">
        <ele>2664.2</ele>
        <time>2024-08-12T12:34:50Z</time>
      </trkpt>
      <trkpt lat="44.77385" lon="6.30507">
        <ele>2664.2</ele>
        <time>2024-08-12T12:34:51Z</time>
      </trkpt>
      <trkpt lat="44.77385" lon="6.30507">
        <ele>2664.2</ele>
        <time>2024-08-12T12:34:52Z</time>
      </trkpt>
      <trkpt lat="44.77383" lon="6.30506">
        <ele>2663.8</ele>
        <time>2024-08-12T12:34:53Z</time>
      </trkpt>
      <trkpt lat="44.77383" lon="6.30506">
        <ele>2663.4</ele>
        <time>2024-08-12T12:34:54Z</time>
      </trkpt>
      <trkpt lat="44.77381" lon="6.30505">
        <ele>2663.2</ele>
        <time>2024-08-12T12:34:55Z</time>
      </trkpt>
      <trkpt lat="44.77381" lon="6.30505">
        <ele>2663</ele>
        <time>2024-08-12T12:34:56Z</time>
      </trkpt>
      <trkpt lat="44.77379" lon="6.30504">
        <ele>2662.8</ele>
        <time>2024-08-12T12:34:57Z</time>
      </trkpt>
      <trkpt lat="44.77379" lon="6.30504">
        <ele>2662.6</ele>
        <time>2024-08-12T12:34:58Z</time>
      </trkpt>
      <trkpt lat="44.77379" lon="6.30504">
        <ele>2662.2</ele>
        <time>2024-08-12T12:34:59Z</time>
      </trkpt>
      <trkpt lat="44.77376" lon="6.30504">
        <ele>2662.2</ele>
        <time>2024-08-12T12:35:00Z</time>
      </trkpt>
      <trkpt lat="44.77376" lon="6.30504">
        <ele>2662</ele>
        <time>2024-08-12T12:35:01Z</time>
      </trkpt>
      <trkpt lat="44.77376" lon="6.30504">
        <ele>2661.4</ele>
        <time>2024-08-12T12:35:02Z</time>
      </trkpt>
      <trkpt lat="44.77376" lon="6.30504">
        <ele>2661.4</ele>
        <time>2024-08-12T12:35:03Z</time>
      </trkpt>
      <trkpt lat="44.77376" lon="6.30504">
        <ele>2661.4</ele>
        <time>2024-08-12T12:35:04Z</time>
      </trkpt>
      <trkpt lat="44.77374" lon="6.30503">
        <ele>2661.4</ele>
        <time>2024-08-12T12:35:05Z</time>
      </trkpt>
      <trkpt lat="44.77374" lon="6.30503">
        <ele>2661.6</ele>
        <time>2024-08-12T12:35:06Z</time>
      </trkpt>
      <trkpt lat="44.77374" lon="6.30503">
        <ele>2661.6</ele>
        <time>2024-08-12T12:35:07Z</time>
      </trkpt>
      <trkpt lat="44.77374" lon="6.30503">
        <ele>2661.6</ele>
        <time>2024-08-12T12:35:08Z</time>
      </trkpt>
      <trkpt lat="44.77375" lon="6.305">
        <ele>2661.6</ele>
        <time>2024-08-12T12:35:09Z</time>
      </trkpt>
      <trkpt lat="44.77375" lon="6.305">
        <ele>2661.2</ele>
        <time>2024-08-12T12:35:10Z</time>
      </trkpt>
      <trkpt lat="44.77375" lon="6.305">
        <ele>2661.2</ele>
        <time>2024-08-12T12:35:11Z</time>
      </trkpt>
      <trkpt lat="44.77377" lon="6.30499">
        <ele>2660.8</ele>
        <time>2024-08-12T12:35:12Z</time>
      </trkpt>
      <trkpt lat="44.77377" lon="6.30499">
        <ele>2660.4</ele>
        <time>2024-08-12T12:35:13Z</time>
      </trkpt>
      <trkpt lat="44.77377" lon="6.30499">
        <ele>2660</ele>
        <time>2024-08-12T12:35:14Z</time>
      </trkpt>
      <trkpt lat="44.7738" lon="6.30497">
        <ele>2659.8</ele>
        <time>2024-08-12T12:35:15Z</time>
      </trkpt>
      <trkpt lat="44.7738" lon="6.30497">
        <ele>2660.4</ele>
        <time>2024-08-12T12:35:16Z</time>
      </trkpt>
      <trkpt lat="44.77381" lon="6.30495">
        <ele>2660.4</ele>
        <time>2024-08-12T12:35:17Z</time>
      </trkpt>
      <trkpt lat="44.77381" lon="6.30495">
        <ele>2659.2</ele>
        <time>2024-08-12T12:35:18Z</time>
      </trkpt>
      <trkpt lat="44.77381" lon="6.30495">
        <ele>2658.8</ele>
        <time>2024-08-12T12:35:19Z</time>
      </trkpt>
      <trkpt lat="44.77385" lon="6.30494">
        <ele>2658.4</ele>
        <time>2024-08-12T12:35:20Z</time>
      </trkpt>
      <trkpt lat="44.77385" lon="6.30494">
        <ele>2658</ele>
        <time>2024-08-12T12:35:21Z</time>
      </trkpt>
      <trkpt lat="44.77387" lon="6.30493">
        <ele>2657.4</ele>
        <time>2024-08-12T12:35:22Z</time>
      </trkpt>
      <trkpt lat="44.77387" lon="6.30493">
        <ele>2657.4</ele>
        <time>2024-08-12T12:35:23Z</time>
      </trkpt>
      <trkpt lat="44.77389" lon="6.30493">
        <ele>2657</ele>
        <time>2024-08-12T12:35:24Z</time>
      </trkpt>
      <trkpt lat="44.77389" lon="6.30493">
        <ele>2657</ele>
        <time>2024-08-12T12:35:25Z</time>
      </trkpt>
      <trkpt lat="44.7739" lon="6.30492">
        <ele>2656.4</ele>
        <time>2024-08-12T12:35:26Z</time>
      </trkpt>
      <trkpt lat="44.7739" lon="6.30492">
        <ele>2656.2</ele>
        <time>2024-08-12T12:35:27Z</time>
      </trkpt>
      <trkpt lat="44.7739" lon="6.30492">
        <ele>2655.8</ele>
        <time>2024-08-12T12:35:28Z</time>
      </trkpt>
      <trkpt lat="44.77393" lon="6.30491">
        <ele>2655</ele>
        <time>2024-08-12T12:35:29Z</time>
      </trkpt>
      <trkpt lat="44.77393" lon="6.30491">
        <ele>2654.8</ele>
        <time>2024-08-12T12:35:30Z</time>
      </trkpt>
      <trkpt lat="44.77395" lon="6.30491">
        <ele>2654.6</ele>
        <time>2024-08-12T12:35:31Z</time>
      </trkpt>
      <trkpt lat="44.77395" lon="6.30491">
        <ele>2654.4</ele>
        <time>2024-08-12T12:35:32Z</time>
      </trkpt>
      <trkpt lat="44.77397" lon="6.30492">
        <ele>2654.2</ele>
        <time>2024-08-12T12:35:33Z</time>
      </trkpt>
      <trkpt lat="44.77397" lon="6.30492">
        <ele>2653.8</ele>
        <time>2024-08-12T12:35:34Z</time>
      </trkpt>
      <trkpt lat="44.77397" lon="6.30492">
        <ele>2653.6</ele>
        <time>2024-08-12T12:35:35Z</time>
      </trkpt>
      <trkpt lat="44.77397" lon="6.30492">
        <ele>2653.4</ele>
        <time>2024-08-12T12:35:36Z</time>
      </trkpt>
      <trkpt lat="44.77397" lon="6.30492">
        <ele>2653.2</ele>
        <time>2024-08-12T12:35:37Z</time>
      </trkpt>
      <trkpt lat="44.77397" lon="6.30492">
        <ele>2653.2</ele>
        <time>2024-08-12T12:35:38Z</time>
      </trkpt>
      <trkpt lat="44.77397" lon="6.30492">
        <ele>2653.4</ele>
        <time>2024-08-12T12:35:39Z</time>
      </trkpt>
      <trkpt lat="44.77397" lon="6.30489">
        <ele>2653.2</ele>
        <time>2024-08-12T12:35:40Z</time>
      </trkpt>
      <trkpt lat="44.77397" lon="6.30489">
        <ele>2653</ele>
        <time>2024-08-12T12:35:41Z</time>
      </trkpt>
      <trkpt lat="44.77397" lon="6.30489">
        <ele>2652.8</ele>
        <time>2024-08-12T12:35:42Z</time>
      </trkpt>
      <trkpt lat="44.77395" lon="6.30489">
        <ele>2652.6</ele>
        <time>2024-08-12T12:35:43Z</time>
      </trkpt>
      <trkpt lat="44.77395" lon="6.30489">
        <ele>2652.6</ele>
        <time>2024-08-12T12:35:44Z</time>
      </trkpt>
      <trkpt lat="44.77395" lon="6.30489">
        <ele>2652.6</ele>
        <time>2024-08-12T12:35:45Z</time>
      </trkpt>
      <trkpt lat="44.77392" lon="6.30488">
        <ele>2652.6</ele>
        <time>2024-08-12T12:35:46Z</time>
      </trkpt>
      <trkpt lat="44.77392" lon="6.30488">
        <ele>2652.8</ele>
        <time>2024-08-12T12:35:47Z</time>
      </trkpt>
      <trkpt lat="44.77392" lon="6.30488">
        <ele>2652.6</ele>
        <time>2024-08-12T12:35:48Z</time>
      </trkpt>
      <trkpt lat="44.7739" lon="6.30486">
        <ele>2652.4</ele>
        <time>2024-08-12T12:35:49Z</time>
      </trkpt>
      <trkpt lat="44.7739" lon="6.30486">
        <ele>2652.4</ele>
        <time>2024-08-12T12:35:50Z</time>
      </trkpt>
      <trkpt lat="44.7739" lon="6.30486">
        <ele>2652.2</ele>
        <time>2024-08-12T12:35:51Z</time>
      </trkpt>
      <trkpt lat="44.77389" lon="6.30484">
        <ele>2651.8</ele>
        <time>2024-08-12T12:35:52Z</time>
      </trkpt>
      <trkpt lat="44.77389" lon="6.30484">
        <ele>2651.6</ele>
        <time>2024-08-12T12:35:53Z</time>
      </trkpt>
      <trkpt lat="44.77387" lon="6.30482">
        <ele>2651.6</ele>
        <time>2024-08-12T12:35:54Z</time>
      </trkpt>
      <trkpt lat="44.77387" lon="6.30482">
        <ele>2650.8</ele>
        <time>2024-08-12T12:35:55Z</time>
      </trkpt>
      <trkpt lat="44.77387" lon="6.30482">
        <ele>2650.6</ele>
        <time>2024-08-12T12:35:56Z</time>
      </trkpt>
      <trkpt lat="44.77388" lon="6.3048">
        <ele>2650.6</ele>
        <time>2024-08-12T12:35:57Z</time>
      </trkpt>
      <trkpt lat="44.77388" lon="6.3048">
        <ele>2650.2</ele>
        <time>2024-08-12T12:35:58Z</time>
      </trkpt>
      <trkpt lat="44.77388" lon="6.3048">
        <ele>2649.8</ele>
        <time>2024-08-12T12:35:59Z</time>
      </trkpt>
      <trkpt lat="44.77391" lon="6.30479">
        <ele>2648.8</ele>
        <time>2024-08-12T12:36:00Z</time>
      </trkpt>
      <trkpt lat="44.77391" lon="6.30479">
        <ele>2648.4</ele>
        <time>2024-08-12T12:36:01Z</time>
      </trkpt>
      <trkpt lat="44.77393" lon="6.30478">
        <ele>2647.8</ele>
        <time>2024-08-12T12:36:02Z</time>
      </trkpt>
      <trkpt lat="44.77393" lon="6.30478">
        <ele>2647.8</ele>
        <time>2024-08-12T12:36:03Z</time>
      </trkpt>
      <trkpt lat="44.77393" lon="6.30478">
        <ele>2647.6</ele>
        <time>2024-08-12T12:36:04Z</time>
      </trkpt>
      <trkpt lat="44.77395" lon="6.30478">
        <ele>2647.4</ele>
        <time>2024-08-12T12:36:05Z</time>
      </trkpt>
      <trkpt lat="44.77395" lon="6.30478">
        <ele>2647</ele>
        <time>2024-08-12T12:36:06Z</time>
      </trkpt>
      <trkpt lat="44.77395" lon="6.30478">
        <ele>2647</ele>
        <time>2024-08-12T12:36:07Z</time>
      </trkpt>
      <trkpt lat="44.77393" lon="6.30476">
        <ele>2648.2</ele>
        <time>2024-08-12T12:36:08Z</time>
      </trkpt>
      <trkpt lat="44.77393" lon="6.30476">
        <ele>2649.2</ele>
        <time>2024-08-12T12:36:09Z</time>
      </trkpt>
      <trkpt lat="44.77393" lon="6.30476">
        <ele>2649.8</ele>
        <time>2024-08-12T12:36:10Z</time>
      </trkpt>
      <trkpt lat="44.77391" lon="6.30473">
        <ele>2649.8</ele>
        <time>2024-08-12T12:36:11Z</time>
      </trkpt>
      <trkpt lat="44.77391" lon="6.30473">
        <ele>2648.8</ele>
        <time>2024-08-12T12:36:12Z</time>
      </trkpt>
      <trkpt lat="44.7739" lon="6.30471">
        <ele>2648.8</ele>
        <time>2024-08-12T12:36:13Z</time>
      </trkpt>
      <trkpt lat="44.7739" lon="6.30471">
        <ele>2649.2</ele>
        <time>2024-08-12T12:36:14Z</time>
      </trkpt>
      <trkpt lat="44.7739" lon="6.30471">
        <ele>2649.2</ele>
        <time>2024-08-12T12:36:15Z</time>
      </trkpt>
      <trkpt lat="44.77388" lon="6.30469">
        <ele>2649</ele>
        <time>2024-08-12T12:36:16Z</time>
      </trkpt>
      <trkpt lat="44.77388" lon="6.30469">
        <ele>2648.8</ele>
        <time>2024-08-12T12:36:17Z</time>
      </trkpt>
      <trkpt lat="44.77388" lon="6.30469">
        <ele>2648.2</ele>
        <time>2024-08-12T12:36:18Z</time>
      </trkpt>
      <trkpt lat="44.77389" lon="6.30466">
        <ele>2647.4</ele>
        <time>2024-08-12T12:36:19Z</time>
      </trkpt>
      <trkpt lat="44.77389" lon="6.30466">
        <ele>2646</ele>
        <time>2024-08-12T12:36:20Z</time>
      </trkpt>
      <trkpt lat="44.77389" lon="6.30466">
        <ele>2643.8</ele>
        <time>2024-08-12T12:36:21Z</time>
      </trkpt>
      <trkpt lat="44.77391" lon="6.30465">
        <ele>2641.8</ele>
        <time>2024-08-12T12:36:22Z</time>
      </trkpt>
      <trkpt lat="44.77391" lon="6.30465">
        <ele>2641.6</ele>
        <time>2024-08-12T12:36:23Z</time>
      </trkpt>
      <trkpt lat="44.77393" lon="6.30464">
        <ele>2641.2</ele>
        <time>2024-08-12T12:36:24Z</time>
      </trkpt>
      <trkpt lat="44.77393" lon="6.30464">
        <ele>2641</ele>
        <time>2024-08-12T12:36:25Z</time>
      </trkpt>
      <trkpt lat="44.77393" lon="6.30464">
        <ele>2640.2</ele>
        <time>2024-08-12T12:36:26Z</time>
      </trkpt>
      <trkpt lat="44.77396" lon="6.30463">
        <ele>2640</ele>
        <time>2024-08-12T12:36:27Z</time>
      </trkpt>
      <trkpt lat="44.77396" lon="6.30463">
        <ele>2639.8</ele>
        <time>2024-08-12T12:36:28Z</time>
      </trkpt>
      <trkpt lat="44.77396" lon="6.30463">
        <ele>2639.2</ele>
        <time>2024-08-12T12:36:29Z</time>
      </trkpt>
      <trkpt lat="44.77399" lon="6.30463">
        <ele>2639.2</ele>
        <time>2024-08-12T12:36:30Z</time>
      </trkpt>
      <trkpt lat="44.77399" lon="6.30463">
        <ele>2639.2</ele>
        <time>2024-08-12T12:36:31Z</time>
      </trkpt>
      <trkpt lat="44.77401" lon="6.30463">
        <ele>2639.2</ele>
        <time>2024-08-12T12:36:32Z</time>
      </trkpt>
      <trkpt lat="44.77401" lon="6.30463">
        <ele>2639</ele>
        <time>2024-08-12T12:36:33Z</time>
      </trkpt>
      <trkpt lat="44.77401" lon="6.30463">
        <ele>2639</ele>
        <time>2024-08-12T12:36:34Z</time>
      </trkpt>
      <trkpt lat="44.77403" lon="6.30463">
        <ele>2639</ele>
        <time>2024-08-12T12:36:35Z</time>
      </trkpt>
      <trkpt lat="44.77403" lon="6.30463">
        <ele>2638.8</ele>
        <time>2024-08-12T12:36:36Z</time>
      </trkpt>
      <trkpt lat="44.77403" lon="6.30463">
        <ele>2638.6</ele>
        <time>2024-08-12T12:36:37Z</time>
      </trkpt>
      <trkpt lat="44.77405" lon="6.30463">
        <ele>2638.6</ele>
        <time>2024-08-12T12:36:38Z</time>
      </trkpt>
      <trkpt lat="44.77405" lon="6.30463">
        <ele>2638.2</ele>
        <time>2024-08-12T12:36:39Z</time>
      </trkpt>
      <trkpt lat="44.77405" lon="6.30463">
        <ele>2637.8</ele>
        <time>2024-08-12T12:36:40Z</time>
      </trkpt>
      <trkpt lat="44.77405" lon="6.30463">
        <ele>2637.8</ele>
        <time>2024-08-12T12:36:41Z</time>
      </trkpt>
      <trkpt lat="44.77404" lon="6.3046">
        <ele>2637.8</ele>
        <time>2024-08-12T12:36:42Z</time>
      </trkpt>
      <trkpt lat="44.77404" lon="6.3046">
        <ele>2637.4</ele>
        <time>2024-08-12T12:36:43Z</time>
      </trkpt>
      <trkpt lat="44.77403" lon="6.30458">
        <ele>2637</ele>
        <time>2024-08-12T12:36:44Z</time>
      </trkpt>
      <trkpt lat="44.77403" lon="6.30458">
        <ele>2637</ele>
        <time>2024-08-12T12:36:45Z</time>
      </trkpt>
      <trkpt lat="44.77403" lon="6.30458">
        <ele>2637.4</ele>
        <time>2024-08-12T12:36:46Z</time>
      </trkpt>
      <trkpt lat="44.77402" lon="6.30455">
        <ele>2637.8</ele>
        <time>2024-08-12T12:36:47Z</time>
      </trkpt>
      <trkpt lat="44.77402" lon="6.30455">
        <ele>2637.8</ele>
        <time>2024-08-12T12:36:48Z</time>
      </trkpt>
      <trkpt lat="44.77402" lon="6.30455">
        <ele>2637.4</ele>
        <time>2024-08-12T12:36:49Z</time>
      </trkpt>
      <trkpt lat="44.77401" lon="6.30452">
        <ele>2636.8</ele>
        <time>2024-08-12T12:36:50Z</time>
      </trkpt>
      <trkpt lat="44.77401" lon="6.30452">
        <ele>2636.4</ele>
        <time>2024-08-12T12:36:51Z</time>
      </trkpt>
      <trkpt lat="44.77399" lon="6.30451">
        <ele>2636.2</ele>
        <time>2024-08-12T12:36:52Z</time>
      </trkpt>
      <trkpt lat="44.77399" lon="6.30451">
        <ele>2635.4</ele>
        <time>2024-08-12T12:36:53Z</time>
      </trkpt>
      <trkpt lat="44.77399" lon="6.30451">
        <ele>2634.2</ele>
        <time>2024-08-12T12:36:54Z</time>
      </trkpt>
      <trkpt lat="44.77399" lon="6.30451">
        <ele>2633.8</ele>
        <time>2024-08-12T12:36:55Z</time>
      </trkpt>
      <trkpt lat="44.77401" lon="6.30449">
        <ele>2633</ele>
        <time>2024-08-12T12:36:56Z</time>
      </trkpt>
      <trkpt lat="44.77401" lon="6.30449">
        <ele>2632.4</ele>
        <time>2024-08-12T12:36:57Z</time>
      </trkpt>
      <trkpt lat="44.77401" lon="6.30449">
        <ele>2632.2</ele>
        <time>2024-08-12T12:36:58Z</time>
      </trkpt>
      <trkpt lat="44.77404" lon="6.30449">
        <ele>2631.6</ele>
        <time>2024-08-12T12:36:59Z</time>
      </trkpt>
      <trkpt lat="44.77404" lon="6.30449">
        <ele>2631.2</ele>
        <time>2024-08-12T12:37:00Z</time>
      </trkpt>
      <trkpt lat="44.77406" lon="6.30449">
        <ele>2631</ele>
        <time>2024-08-12T12:37:01Z</time>
      </trkpt>
      <trkpt lat="44.77406" lon="6.30449">
        <ele>2630.4</ele>
        <time>2024-08-12T12:37:02Z</time>
      </trkpt>
      <trkpt lat="44.77406" lon="6.30449">
        <ele>2630.4</ele>
        <time>2024-08-12T12:37:03Z</time>
      </trkpt>
      <trkpt lat="44.77409" lon="6.3045">
        <ele>2629.4</ele>
        <time>2024-08-12T12:37:04Z</time>
      </trkpt>
      <trkpt lat="44.77409" lon="6.3045">
        <ele>2628.8</ele>
        <time>2024-08-12T12:37:05Z</time>
      </trkpt>
      <trkpt lat="44.77411" lon="6.3045">
        <ele>2628.8</ele>
        <time>2024-08-12T12:37:06Z</time>
      </trkpt>
      <trkpt lat="44.77411" lon="6.3045">
        <ele>2628.4</ele>
        <time>2024-08-12T12:37:07Z</time>
      </trkpt>
      <trkpt lat="44.77411" lon="6.3045">
        <ele>2627.6</ele>
        <time>2024-08-12T12:37:08Z</time>
      </trkpt>
      <trkpt lat="44.77413" lon="6.3045">
        <ele>2627.6</ele>
        <time>2024-08-12T12:37:09Z</time>
      </trkpt>
      <trkpt lat="44.77413" lon="6.3045">
        <ele>2627.4</ele>
        <time>2024-08-12T12:37:10Z</time>
      </trkpt>
      <trkpt lat="44.77413" lon="6.3045">
        <ele>2626.4</ele>
        <time>2024-08-12T12:37:11Z</time>
      </trkpt>
      <trkpt lat="44.77415" lon="6.30449">
        <ele>2625.6</ele>
        <time>2024-08-12T12:37:12Z</time>
      </trkpt>
      <trkpt lat="44.77415" lon="6.30449">
        <ele>2625.4</ele>
        <time>2024-08-12T12:37:13Z</time>
      </trkpt>
      <trkpt lat="44.77415" lon="6.30449">
        <ele>2625.4</ele>
        <time>2024-08-12T12:37:14Z</time>
      </trkpt>
      <trkpt lat="44.77415" lon="6.30449">
        <ele>2625.4</ele>
        <time>2024-08-12T12:37:15Z</time>
      </trkpt>
      <trkpt lat="44.77415" lon="6.30449">
        <ele>2625.4</ele>
        <time>2024-08-12T12:37:16Z</time>
      </trkpt>
      <trkpt lat="44.77417" lon="6.30448">
        <ele>2625.2</ele>
        <time>2024-08-12T12:37:17Z</time>
      </trkpt>
      <trkpt lat="44.77417" lon="6.30448">
        <ele>2625.2</ele>
        <time>2024-08-12T12:37:18Z</time>
      </trkpt>
      <trkpt lat="44.77417" lon="6.30448">
        <ele>2625.4</ele>
        <time>2024-08-12T12:37:19Z</time>
      </trkpt>
      <trkpt lat="44.77415" lon="6.30445">
        <ele>2625.4</ele>
        <time>2024-08-12T12:37:20Z</time>
      </trkpt>
      <trkpt lat="44.77415" lon="6.30445">
        <ele>2625.4</ele>
        <time>2024-08-12T12:37:21Z</time>
      </trkpt>
      <trkpt lat="44.77415" lon="6.30445">
        <ele>2625.2</ele>
        <time>2024-08-12T12:37:22Z</time>
      </trkpt>
      <trkpt lat="44.77415" lon="6.30442">
        <ele>2625.2</ele>
        <time>2024-08-12T12:37:23Z</time>
      </trkpt>
      <trkpt lat="44.77415" lon="6.30442">
        <ele>2625.2</ele>
        <time>2024-08-12T12:37:24Z</time>
      </trkpt>
      <trkpt lat="44.77415" lon="6.30442">
        <ele>2625.2</ele>
        <time>2024-08-12T12:37:25Z</time>
      </trkpt>
      <trkpt lat="44.77413" lon="6.30439">
        <ele>2625</ele>
        <time>2024-08-12T12:37:26Z</time>
      </trkpt>
      <trkpt lat="44.77413" lon="6.30439">
        <ele>2625</ele>
        <time>2024-08-12T12:37:27Z</time>
      </trkpt>
      <trkpt lat="44.77413" lon="6.30439">
        <ele>2624.6</ele>
        <time>2024-08-12T12:37:28Z</time>
      </trkpt>
      <trkpt lat="44.77413" lon="6.30439">
        <ele>2624.2</ele>
        <time>2024-08-12T12:37:29Z</time>
      </trkpt>
      <trkpt lat="44.77413" lon="6.30436">
        <ele>2623.6</ele>
        <time>2024-08-12T12:37:30Z</time>
      </trkpt>
      <trkpt lat="44.77413" lon="6.30436">
        <ele>2623.6</ele>
        <time>2024-08-12T12:37:31Z</time>
      </trkpt>
      <trkpt lat="44.77413" lon="6.30436">
        <ele>2623.6</ele>
        <time>2024-08-12T12:37:32Z</time>
      </trkpt>
      <trkpt lat="44.77413" lon="6.30436">
        <ele>2623.6</ele>
        <time>2024-08-12T12:37:33Z</time>
      </trkpt>
      <trkpt lat="44.77413" lon="6.30436">
        <ele>2623.4</ele>
        <time>2024-08-12T12:37:34Z</time>
      </trkpt>
      <trkpt lat="44.77414" lon="6.30434">
        <ele>2622.8</ele>
        <time>2024-08-12T12:37:35Z</time>
      </trkpt>
      <trkpt lat="44.77414" lon="6.30434">
        <ele>2620.2</ele>
        <time>2024-08-12T12:37:36Z</time>
      </trkpt>
      <trkpt lat="44.77414" lon="6.30434">
        <ele>2619.6</ele>
        <time>2024-08-12T12:37:37Z</time>
      </trkpt>
      <trkpt lat="44.77416" lon="6.30434">
        <ele>2619.2</ele>
        <time>2024-08-12T12:37:38Z</time>
      </trkpt>
      <trkpt lat="44.77416" lon="6.30434">
        <ele>2619.2</ele>
        <time>2024-08-12T12:37:39Z</time>
      </trkpt>
      <trkpt lat="44.77418" lon="6.30435">
        <ele>2619</ele>
        <time>2024-08-12T12:37:40Z</time>
      </trkpt>
      <trkpt lat="44.77418" lon="6.30435">
        <ele>2618.6</ele>
        <time>2024-08-12T12:37:41Z</time>
      </trkpt>
      <trkpt lat="44.77418" lon="6.30435">
        <ele>2617.8</ele>
        <time>2024-08-12T12:37:42Z</time>
      </trkpt>
      <trkpt lat="44.77421" lon="6.30435">
        <ele>2617.2</ele>
        <time>2024-08-12T12:37:43Z</time>
      </trkpt>
      <trkpt lat="44.77421" lon="6.30435">
        <ele>2617</ele>
        <time>2024-08-12T12:37:44Z</time>
      </trkpt>
      <trkpt lat="44.77421" lon="6.30435">
        <ele>2617</ele>
        <time>2024-08-12T12:37:45Z</time>
      </trkpt>
      <trkpt lat="44.77421" lon="6.30435">
        <ele>2617</ele>
        <time>2024-08-12T12:37:46Z</time>
      </trkpt>
      <trkpt lat="44.77421" lon="6.30435">
        <ele>2616.8</ele>
        <time>2024-08-12T12:37:47Z</time>
      </trkpt>
      <trkpt lat="44.77423" lon="6.30435">
        <ele>2616.2</ele>
        <time>2024-08-12T12:37:48Z</time>
      </trkpt>
      <trkpt lat="44.77423" lon="6.30435">
        <ele>2616.2</ele>
        <time>2024-08-12T12:37:49Z</time>
      </trkpt>
      <trkpt lat="44.77425" lon="6.30435">
        <ele>2616.2</ele>
        <time>2024-08-12T12:37:50Z</time>
      </trkpt>
      <trkpt lat="44.77425" lon="6.30435">
        <ele>2616.2</ele>
        <time>2024-08-12T12:37:51Z</time>
      </trkpt>
      <trkpt lat="44.77427" lon="6.30435">
        <ele>2615.8</ele>
        <time>2024-08-12T12:37:52Z</time>
      </trkpt>
      <trkpt lat="44.77427" lon="6.30435">
        <ele>2615.2</ele>
        <time>2024-08-12T12:37:53Z</time>
      </trkpt>
      <trkpt lat="44.77429" lon="6.30435">
        <ele>2615.2</ele>
        <time>2024-08-12T12:37:54Z</time>
      </trkpt>
      <trkpt lat="44.77429" lon="6.30435">
        <ele>2615</ele>
        <time>2024-08-12T12:37:55Z</time>
      </trkpt>
      <trkpt lat="44.77431" lon="6.30435">
        <ele>2614.8</ele>
        <time>2024-08-12T12:37:56Z</time>
      </trkpt>
      <trkpt lat="44.77431" lon="6.30435">
        <ele>2614.6</ele>
        <time>2024-08-12T12:37:57Z</time>
      </trkpt>
      <trkpt lat="44.77433" lon="6.30434">
        <ele>2614.6</ele>
        <time>2024-08-12T12:37:58Z</time>
      </trkpt>
      <trkpt lat="44.77433" lon="6.30434">
        <ele>2614.6</ele>
        <time>2024-08-12T12:37:59Z</time>
      </trkpt>
      <trkpt lat="44.77435" lon="6.30434">
        <ele>2614.4</ele>
        <time>2024-08-12T12:38:00Z</time>
      </trkpt>
      <trkpt lat="44.77435" lon="6.30434">
        <ele>2613.2</ele>
        <time>2024-08-12T12:38:01Z</time>
      </trkpt>
      <trkpt lat="44.77435" lon="6.30434">
        <ele>2613</ele>
        <time>2024-08-12T12:38:02Z</time>
      </trkpt>
      <trkpt lat="44.77437" lon="6.30434">
        <ele>2613</ele>
        <time>2024-08-12T12:38:03Z</time>
      </trkpt>
      <trkpt lat="44.77437" lon="6.30434">
        <ele>2613</ele>
        <time>2024-08-12T12:38:04Z</time>
      </trkpt>
      <trkpt lat="44.77437" lon="6.30434">
        <ele>2612.6</ele>
        <time>2024-08-12T12:38:05Z</time>
      </trkpt>
      <trkpt lat="44.77439" lon="6.30434">
        <ele>2612</ele>
        <time>2024-08-12T12:38:06Z</time>
      </trkpt>
      <trkpt lat="44.77439" lon="6.30434">
        <ele>2611.8</ele>
        <time>2024-08-12T12:38:07Z</time>
      </trkpt>
      <trkpt lat="44.77439" lon="6.30434">
        <ele>2611.6</ele>
        <time>2024-08-12T12:38:08Z</time>
      </trkpt>
      <trkpt lat="44.77439" lon="6.30434">
        <ele>2610.6</ele>
        <time>2024-08-12T12:38:09Z</time>
      </trkpt>
      <trkpt lat="44.77441" lon="6.30435">
        <ele>2610.6</ele>
        <time>2024-08-12T12:38:10Z</time>
      </trkpt>
      <trkpt lat="44.77441" lon="6.30435">
        <ele>2611</ele>
        <time>2024-08-12T12:38:11Z</time>
      </trkpt>
      <trkpt lat="44.77441" lon="6.30435">
        <ele>2612.6</ele>
        <time>2024-08-12T12:38:12Z</time>
      </trkpt>
      <trkpt lat="44.77439" lon="6.30432">
        <ele>2612.6</ele>
        <time>2024-08-12T12:38:13Z</time>
      </trkpt>
      <trkpt lat="44.77439" lon="6.30432">
        <ele>2612.6</ele>
        <time>2024-08-12T12:38:14Z</time>
      </trkpt>
      <trkpt lat="44.77439" lon="6.30429">
        <ele>2611.4</ele>
        <time>2024-08-12T12:38:15Z</time>
      </trkpt>
      <trkpt lat="44.77439" lon="6.30429">
        <ele>2611.4</ele>
        <time>2024-08-12T12:38:16Z</time>
      </trkpt>
      <trkpt lat="44.77438" lon="6.30427">
        <ele>2611.4</ele>
        <time>2024-08-12T12:38:17Z</time>
      </trkpt>
      <trkpt lat="44.77438" lon="6.30427">
        <ele>2611.4</ele>
        <time>2024-08-12T12:38:18Z</time>
      </trkpt>
      <trkpt lat="44.77438" lon="6.30427">
        <ele>2611.4</ele>
        <time>2024-08-12T12:38:19Z</time>
      </trkpt>
      <trkpt lat="44.77437" lon="6.30425">
        <ele>2610.8</ele>
        <time>2024-08-12T12:38:20Z</time>
      </trkpt>
      <trkpt lat="44.77437" lon="6.30425">
        <ele>2610</ele>
        <time>2024-08-12T12:38:21Z</time>
      </trkpt>
      <trkpt lat="44.77437" lon="6.30425">
        <ele>2609.2</ele>
        <time>2024-08-12T12:38:22Z</time>
      </trkpt>
      <trkpt lat="44.77436" lon="6.30423">
        <ele>2608.8</ele>
        <time>2024-08-12T12:38:23Z</time>
      </trkpt>
      <trkpt lat="44.77436" lon="6.30423">
        <ele>2608.6</ele>
        <time>2024-08-12T12:38:24Z</time>
      </trkpt>
      <trkpt lat="44.77436" lon="6.30423">
        <ele>2608.4</ele>
        <time>2024-08-12T12:38:25Z</time>
      </trkpt>
      <trkpt lat="44.77434" lon="6.30421">
        <ele>2608.4</ele>
        <time>2024-08-12T12:38:26Z</time>
      </trkpt>
      <trkpt lat="44.77434" lon="6.30421">
        <ele>2608.2</ele>
        <time>2024-08-12T12:38:27Z</time>
      </trkpt>
      <trkpt lat="44.77433" lon="6.30418">
        <ele>2607.4</ele>
        <time>2024-08-12T12:38:28Z</time>
      </trkpt>
      <trkpt lat="44.77433" lon="6.30418">
        <ele>2607.2</ele>
        <time>2024-08-12T12:38:29Z</time>
      </trkpt>
      <trkpt lat="44.77431" lon="6.30416">
        <ele>2607.2</ele>
        <time>2024-08-12T12:38:30Z</time>
      </trkpt>
      <trkpt lat="44.77431" lon="6.30416">
        <ele>2607.2</ele>
        <time>2024-08-12T12:38:31Z</time>
      </trkpt>
      <trkpt lat="44.7743" lon="6.30413">
        <ele>2607.2</ele>
        <time>2024-08-12T12:38:32Z</time>
      </trkpt>
      <trkpt lat="44.7743" lon="6.30413">
        <ele>2607.4</ele>
        <time>2024-08-12T12:38:33Z</time>
      </trkpt>
      <trkpt lat="44.77429" lon="6.30411">
        <ele>2607.4</ele>
        <time>2024-08-12T12:38:34Z</time>
      </trkpt>
      <trkpt lat="44.77429" lon="6.30411">
        <ele>2607.6</ele>
        <time>2024-08-12T12:38:35Z</time>
      </trkpt>
      <trkpt lat="44.77429" lon="6.30411">
        <ele>2607.6</ele>
        <time>2024-08-12T12:38:36Z</time>
      </trkpt>
      <trkpt lat="44.77426" lon="6.3041">
        <ele>2607</ele>
        <time>2024-08-12T12:38:37Z</time>
      </trkpt>
      <trkpt lat="44.77426" lon="6.3041">
        <ele>2606.8</ele>
        <time>2024-08-12T12:38:38Z</time>
      </trkpt>
      <trkpt lat="44.77423" lon="6.30408">
        <ele>2606.8</ele>
        <time>2024-08-12T12:38:39Z</time>
      </trkpt>
      <trkpt lat="44.77423" lon="6.30408">
        <ele>2606.4</ele>
        <time>2024-08-12T12:38:40Z</time>
      </trkpt>
      <trkpt lat="44.77423" lon="6.30405">
        <ele>2606.4</ele>
        <time>2024-08-12T12:38:41Z</time>
      </trkpt>
      <trkpt lat="44.77423" lon="6.30405">
        <ele>2606.4</ele>
        <time>2024-08-12T12:38:42Z</time>
      </trkpt>
      <trkpt lat="44.77424" lon="6.30403">
        <ele>2607.6</ele>
        <time>2024-08-12T12:38:43Z</time>
      </trkpt>
      <trkpt lat="44.77424" lon="6.30403">
        <ele>2607.6</ele>
        <time>2024-08-12T12:38:44Z</time>
      </trkpt>
      <trkpt lat="44.77425" lon="6.304">
        <ele>2606</ele>
        <time>2024-08-12T12:38:45Z</time>
      </trkpt>
      <trkpt lat="44.77425" lon="6.304">
        <ele>2605.8</ele>
        <time>2024-08-12T12:38:46Z</time>
      </trkpt>
      <trkpt lat="44.77425" lon="6.30397">
        <ele>2605.6</ele>
        <time>2024-08-12T12:38:47Z</time>
      </trkpt>
      <trkpt lat="44.77425" lon="6.30397">
        <ele>2604.8</ele>
        <time>2024-08-12T12:38:48Z</time>
      </trkpt>
      <trkpt lat="44.77427" lon="6.30394">
        <ele>2604</ele>
        <time>2024-08-12T12:38:49Z</time>
      </trkpt>
      <trkpt lat="44.77427" lon="6.30394">
        <ele>2603.6</ele>
        <time>2024-08-12T12:38:50Z</time>
      </trkpt>
      <trkpt lat="44.77427" lon="6.3039">
        <ele>2603.6</ele>
        <time>2024-08-12T12:38:51Z</time>
      </trkpt>
      <trkpt lat="44.77427" lon="6.3039">
        <ele>2603.6</ele>
        <time>2024-08-12T12:38:52Z</time>
      </trkpt>
      <trkpt lat="44.77427" lon="6.30386">
        <ele>2603.6</ele>
        <time>2024-08-12T12:38:53Z</time>
      </trkpt>
      <trkpt lat="44.77427" lon="6.30386">
        <ele>2602.8</ele>
        <time>2024-08-12T12:38:54Z</time>
      </trkpt>
      <trkpt lat="44.77427" lon="6.30382">
        <ele>2602.6</ele>
        <time>2024-08-12T12:38:55Z</time>
      </trkpt>
      <trkpt lat="44.77427" lon="6.30382">
        <ele>2602.4</ele>
        <time>2024-08-12T12:38:56Z</time>
      </trkpt>
      <trkpt lat="44.77428" lon="6.30379">
        <ele>2601.8</ele>
        <time>2024-08-12T12:38:57Z</time>
      </trkpt>
      <trkpt lat="44.77428" lon="6.30379">
        <ele>2601.6</ele>
        <time>2024-08-12T12:38:58Z</time>
      </trkpt>
      <trkpt lat="44.77428" lon="6.30376">
        <ele>2601.6</ele>
        <time>2024-08-12T12:38:59Z</time>
      </trkpt>
      <trkpt lat="44.77428" lon="6.30376">
        <ele>2601.6</ele>
        <time>2024-08-12T12:39:00Z</time>
      </trkpt>
      <trkpt lat="44.77428" lon="6.30376">
        <ele>2601</ele>
        <time>2024-08-12T12:39:01Z</time>
      </trkpt>
      <trkpt lat="44.77429" lon="6.30373">
        <ele>2600.2</ele>
        <time>2024-08-12T12:39:02Z</time>
      </trkpt>
      <trkpt lat="44.77429" lon="6.30373">
        <ele>2600.2</ele>
        <time>2024-08-12T12:39:03Z</time>
      </trkpt>
      <trkpt lat="44.77429" lon="6.30373">
        <ele>2598.8</ele>
        <time>2024-08-12T12:39:04Z</time>
      </trkpt>
      <trkpt lat="44.77429" lon="6.30373">
        <ele>2598.6</ele>
        <time>2024-08-12T12:39:05Z</time>
      </trkpt>
      <trkpt lat="44.77429" lon="6.30373">
        <ele>2598.6</ele>
        <time>2024-08-12T12:39:06Z</time>
      </trkpt>
      <trkpt lat="44.77429" lon="6.30373">
        <ele>2598.8</ele>
        <time>2024-08-12T12:39:07Z</time>
      </trkpt>
      <trkpt lat="44.77429" lon="6.30369">
        <ele>2598.8</ele>
        <time>2024-08-12T12:39:08Z</time>
      </trkpt>
      <trkpt lat="44.77429" lon="6.30369">
        <ele>2598.6</ele>
        <time>2024-08-12T12:39:09Z</time>
      </trkpt>
      <trkpt lat="44.77429" lon="6.30367">
        <ele>2598.6</ele>
        <time>2024-08-12T12:39:10Z</time>
      </trkpt>
      <trkpt lat="44.77429" lon="6.30367">
        <ele>2598.6</ele>
        <time>2024-08-12T12:39:11Z</time>
      </trkpt>
      <trkpt lat="44.77431" lon="6.30368">
        <ele>2598.4</ele>
        <time>2024-08-12T12:39:12Z</time>
      </trkpt>
      <trkpt lat="44.77431" lon="6.30368">
        <ele>2597.8</ele>
        <time>2024-08-12T12:39:13Z</time>
      </trkpt>
      <trkpt lat="44.77433" lon="6.30371">
        <ele>2597</ele>
        <time>2024-08-12T12:39:14Z</time>
      </trkpt>
      <trkpt lat="44.77433" lon="6.30371">
        <ele>2596</ele>
        <time>2024-08-12T12:39:15Z</time>
      </trkpt>
      <trkpt lat="44.77434" lon="6.30374">
        <ele>2595.2</ele>
        <time>2024-08-12T12:39:16Z</time>
      </trkpt>
      <trkpt lat="44.77434" lon="6.30374">
        <ele>2594.8</ele>
        <time>2024-08-12T12:39:17Z</time>
      </trkpt>
      <trkpt lat="44.77435" lon="6.30377">
        <ele>2594.8</ele>
        <time>2024-08-12T12:39:18Z</time>
      </trkpt>
      <trkpt lat="44.77435" lon="6.30377">
        <ele>2594.4</ele>
        <time>2024-08-12T12:39:19Z</time>
      </trkpt>
      <trkpt lat="44.77437" lon="6.30379">
        <ele>2594.2</ele>
        <time>2024-08-12T12:39:20Z</time>
      </trkpt>
      <trkpt lat="44.77437" lon="6.30379">
        <ele>2594.2</ele>
        <time>2024-08-12T12:39:21Z</time>
      </trkpt>
      <trkpt lat="44.77438" lon="6.30382">
        <ele>2594.2</ele>
        <time>2024-08-12T12:39:22Z</time>
      </trkpt>
      <trkpt lat="44.77438" lon="6.30382">
        <ele>2594.2</ele>
        <time>2024-08-12T12:39:23Z</time>
      </trkpt>
      <trkpt lat="44.77441" lon="6.30384">
        <ele>2593</ele>
        <time>2024-08-12T12:39:24Z</time>
      </trkpt>
      <trkpt lat="44.77441" lon="6.30384">
        <ele>2592.8</ele>
        <time>2024-08-12T12:39:25Z</time>
      </trkpt>
      <trkpt lat="44.77443" lon="6.30386">
        <ele>2592.4</ele>
        <time>2024-08-12T12:39:26Z</time>
      </trkpt>
      <trkpt lat="44.77443" lon="6.30386">
        <ele>2592</ele>
        <time>2024-08-12T12:39:27Z</time>
      </trkpt>
      <trkpt lat="44.77443" lon="6.30386">
        <ele>2592</ele>
        <time>2024-08-12T12:39:28Z</time>
      </trkpt>
      <trkpt lat="44.77444" lon="6.30383">
        <ele>2592</ele>
        <time>2024-08-12T12:39:29Z</time>
      </trkpt>
      <trkpt lat="44.77444" lon="6.30383">
        <ele>2592.6</ele>
        <time>2024-08-12T12:39:30Z</time>
      </trkpt>
      <trkpt lat="44.77444" lon="6.3038">
        <ele>2592.6</ele>
        <time>2024-08-12T12:39:31Z</time>
      </trkpt>
      <trkpt lat="44.77444" lon="6.3038">
        <ele>2592.4</ele>
        <time>2024-08-12T12:39:32Z</time>
      </trkpt>
      <trkpt lat="44.77444" lon="6.30376">
        <ele>2592.2</ele>
        <time>2024-08-12T12:39:33Z</time>
      </trkpt>
      <trkpt lat="44.77444" lon="6.30376">
        <ele>2591.6</ele>
        <time>2024-08-12T12:39:34Z</time>
      </trkpt>
      <trkpt lat="44.77445" lon="6.30373">
        <ele>2591</ele>
        <time>2024-08-12T12:39:35Z</time>
      </trkpt>
      <trkpt lat="44.77445" lon="6.30373">
        <ele>2590.8</ele>
        <time>2024-08-12T12:39:36Z</time>
      </trkpt>
      <trkpt lat="44.77444" lon="6.3037">
        <ele>2590.6</ele>
        <time>2024-08-12T12:39:37Z</time>
      </trkpt>
      <trkpt lat="44.77444" lon="6.3037">
        <ele>2590.6</ele>
        <time>2024-08-12T12:39:38Z</time>
      </trkpt>
      <trkpt lat="44.77445" lon="6.30366">
        <ele>2590.6</ele>
        <time>2024-08-12T12:39:39Z</time>
      </trkpt>
      <trkpt lat="44.77445" lon="6.30366">
        <ele>2590.2</ele>
        <time>2024-08-12T12:39:40Z</time>
      </trkpt>
      <trkpt lat="44.77444" lon="6.30364">
        <ele>2590</ele>
        <time>2024-08-12T12:39:41Z</time>
      </trkpt>
      <trkpt lat="44.77444" lon="6.30364">
        <ele>2590</ele>
        <time>2024-08-12T12:39:42Z</time>
      </trkpt>
      <trkpt lat="44.77444" lon="6.30364">
        <ele>2589.8</ele>
        <time>2024-08-12T12:39:43Z</time>
      </trkpt>
      <trkpt lat="44.77444" lon="6.3036">
        <ele>2589.6</ele>
        <time>2024-08-12T12:39:44Z</time>
      </trkpt>
      <trkpt lat="44.77444" lon="6.3036">
        <ele>2589.6</ele>
        <time>2024-08-12T12:39:45Z</time>
      </trkpt>
      <trkpt lat="44.77443" lon="6.30356">
        <ele>2589.2</ele>
        <time>2024-08-12T12:39:46Z</time>
      </trkpt>
      <trkpt lat="44.77443" lon="6.30356">
        <ele>2588.8</ele>
        <time>2024-08-12T12:39:47Z</time>
      </trkpt>
      <trkpt lat="44.77444" lon="6.30353">
        <ele>2588.4</ele>
        <time>2024-08-12T12:39:48Z</time>
      </trkpt>
      <trkpt lat="44.77444" lon="6.30353">
        <ele>2588.2</ele>
        <time>2024-08-12T12:39:49Z</time>
      </trkpt>
      <trkpt lat="44.77444" lon="6.30351">
        <ele>2588.2</ele>
        <time>2024-08-12T12:39:50Z</time>
      </trkpt>
      <trkpt lat="44.77444" lon="6.30351">
        <ele>2588.2</ele>
        <time>2024-08-12T12:39:51Z</time>
      </trkpt>
      <trkpt lat="44.77444" lon="6.30348">
        <ele>2587.8</ele>
        <time>2024-08-12T12:39:52Z</time>
      </trkpt>
      <trkpt lat="44.77444" lon="6.30348">
        <ele>2587</ele>
        <time>2024-08-12T12:39:53Z</time>
      </trkpt>
      <trkpt lat="44.77443" lon="6.30345">
        <ele>2586.6</ele>
        <time>2024-08-12T12:39:54Z</time>
      </trkpt>
      <trkpt lat="44.77443" lon="6.30345">
        <ele>2586.2</ele>
        <time>2024-08-12T12:39:55Z</time>
      </trkpt>
      <trkpt lat="44.77443" lon="6.30345">
        <ele>2586</ele>
        <time>2024-08-12T12:39:56Z</time>
      </trkpt>
      <trkpt lat="44.77443" lon="6.30342">
        <ele>2586</ele>
        <time>2024-08-12T12:39:57Z</time>
      </trkpt>
      <trkpt lat="44.77443" lon="6.30342">
        <ele>2585.6</ele>
        <time>2024-08-12T12:39:58Z</time>
      </trkpt>
      <trkpt lat="44.77443" lon="6.30342">
        <ele>2585.6</ele>
        <time>2024-08-12T12:39:59Z</time>
      </trkpt>
      <trkpt lat="44.77443" lon="6.30342">
        <ele>2585.2</ele>
        <time>2024-08-12T12:40:00Z</time>
      </trkpt>
      <trkpt lat="44.77445" lon="6.30344">
        <ele>2584.8</ele>
        <time>2024-08-12T12:40:01Z</time>
      </trkpt>
      <trkpt lat="44.77445" lon="6.30344">
        <ele>2584.4</ele>
        <time>2024-08-12T12:40:02Z</time>
      </trkpt>
      <trkpt lat="44.77447" lon="6.30345">
        <ele>2584.2</ele>
        <time>2024-08-12T12:40:03Z</time>
      </trkpt>
      <trkpt lat="44.77447" lon="6.30345">
        <ele>2584</ele>
        <time>2024-08-12T12:40:04Z</time>
      </trkpt>
      <trkpt lat="44.77447" lon="6.30345">
        <ele>2583.4</ele>
        <time>2024-08-12T12:40:05Z</time>
      </trkpt>
      <trkpt lat="44.77449" lon="6.30347">
        <ele>2582.8</ele>
        <time>2024-08-12T12:40:06Z</time>
      </trkpt>
      <trkpt lat="44.77449" lon="6.30347">
        <ele>2582.4</ele>
        <time>2024-08-12T12:40:07Z</time>
      </trkpt>
      <trkpt lat="44.77451" lon="6.30347">
        <ele>2582.2</ele>
        <time>2024-08-12T12:40:08Z</time>
      </trkpt>
      <trkpt lat="44.77451" lon="6.30347">
        <ele>2582</ele>
        <time>2024-08-12T12:40:09Z</time>
      </trkpt>
      <trkpt lat="44.77453" lon="6.30347">
        <ele>2581.8</ele>
        <time>2024-08-12T12:40:10Z</time>
      </trkpt>
      <trkpt lat="44.77453" lon="6.30347">
        <ele>2581.6</ele>
        <time>2024-08-12T12:40:11Z</time>
      </trkpt>
      <trkpt lat="44.77455" lon="6.30348">
        <ele>2581.6</ele>
        <time>2024-08-12T12:40:12Z</time>
      </trkpt>
      <trkpt lat="44.77455" lon="6.30348">
        <ele>2581.2</ele>
        <time>2024-08-12T12:40:13Z</time>
      </trkpt>
      <trkpt lat="44.77457" lon="6.30349">
        <ele>2581.2</ele>
        <time>2024-08-12T12:40:14Z</time>
      </trkpt>
      <trkpt lat="44.77457" lon="6.30349">
        <ele>2581</ele>
        <time>2024-08-12T12:40:15Z</time>
      </trkpt>
      <trkpt lat="44.77459" lon="6.30349">
        <ele>2580.8</ele>
        <time>2024-08-12T12:40:16Z</time>
      </trkpt>
      <trkpt lat="44.77459" lon="6.30349">
        <ele>2580.6</ele>
        <time>2024-08-12T12:40:17Z</time>
      </trkpt>
      <trkpt lat="44.77461" lon="6.30349">
        <ele>2580.6</ele>
        <time>2024-08-12T12:40:18Z</time>
      </trkpt>
      <trkpt lat="44.77461" lon="6.30349">
        <ele>2580.4</ele>
        <time>2024-08-12T12:40:19Z</time>
      </trkpt>
      <trkpt lat="44.77464" lon="6.30349">
        <ele>2580.2</ele>
        <time>2024-08-12T12:40:20Z</time>
      </trkpt>
      <trkpt lat="44.77464" lon="6.30349">
        <ele>2579.8</ele>
        <time>2024-08-12T12:40:21Z</time>
      </trkpt>
      <trkpt lat="44.77466" lon="6.30349">
        <ele>2579.6</ele>
        <time>2024-08-12T12:40:22Z</time>
      </trkpt>
      <trkpt lat="44.77466" lon="6.30349">
        <ele>2579.4</ele>
        <time>2024-08-12T12:40:23Z</time>
      </trkpt>
      <trkpt lat="44.77468" lon="6.3035">
        <ele>2579.2</ele>
        <time>2024-08-12T12:40:24Z</time>
      </trkpt>
      <trkpt lat="44.77468" lon="6.3035">
        <ele>2579</ele>
        <time>2024-08-12T12:40:25Z</time>
      </trkpt>
      <trkpt lat="44.7747" lon="6.3035">
        <ele>2579</ele>
        <time>2024-08-12T12:40:26Z</time>
      </trkpt>
      <trkpt lat="44.7747" lon="6.3035">
        <ele>2579</ele>
        <time>2024-08-12T12:40:27Z</time>
      </trkpt>
      <trkpt lat="44.77473" lon="6.3035">
        <ele>2578.8</ele>
        <time>2024-08-12T12:40:28Z</time>
      </trkpt>
      <trkpt lat="44.77473" lon="6.3035">
        <ele>2578.8</ele>
        <time>2024-08-12T12:40:29Z</time>
      </trkpt>
      <trkpt lat="44.77475" lon="6.30349">
        <ele>2578.4</ele>
        <time>2024-08-12T12:40:30Z</time>
      </trkpt>
      <trkpt lat="44.77475" lon="6.30349">
        <ele>2578.4</ele>
        <time>2024-08-12T12:40:31Z</time>
      </trkpt>
      <trkpt lat="44.77477" lon="6.30346">
        <ele>2578.4</ele>
        <time>2024-08-12T12:40:32Z</time>
      </trkpt>
      <trkpt lat="44.77477" lon="6.30346">
        <ele>2578.2</ele>
        <time>2024-08-12T12:40:33Z</time>
      </trkpt>
      <trkpt lat="44.77478" lon="6.30344">
        <ele>2578</ele>
        <time>2024-08-12T12:40:34Z</time>
      </trkpt>
      <trkpt lat="44.77478" lon="6.30344">
        <ele>2577.6</ele>
        <time>2024-08-12T12:40:35Z</time>
      </trkpt>
      <trkpt lat="44.77478" lon="6.30341">
        <ele>2576.8</ele>
        <time>2024-08-12T12:40:36Z</time>
      </trkpt>
      <trkpt lat="44.77478" lon="6.30341">
        <ele>2576.8</ele>
        <time>2024-08-12T12:40:37Z</time>
      </trkpt>
      <trkpt lat="44.77479" lon="6.30338">
        <ele>2576.8</ele>
        <time>2024-08-12T12:40:38Z</time>
      </trkpt>
      <trkpt lat="44.77479" lon="6.30338">
        <ele>2576.6</ele>
        <time>2024-08-12T12:40:39Z</time>
      </trkpt>
      <trkpt lat="44.7748" lon="6.30335">
        <ele>2576.2</ele>
        <time>2024-08-12T12:40:40Z</time>
      </trkpt>
      <trkpt lat="44.7748" lon="6.30335">
        <ele>2575.8</ele>
        <time>2024-08-12T12:40:41Z</time>
      </trkpt>
      <trkpt lat="44.77482" lon="6.30332">
        <ele>2575.6</ele>
        <time>2024-08-12T12:40:42Z</time>
      </trkpt>
      <trkpt lat="44.77482" lon="6.30332">
        <ele>2575.4</ele>
        <time>2024-08-12T12:40:43Z</time>
      </trkpt>
      <trkpt lat="44.77483" lon="6.30329">
        <ele>2575.2</ele>
        <time>2024-08-12T12:40:44Z</time>
      </trkpt>
      <trkpt lat="44.77483" lon="6.30329">
        <ele>2574.8</ele>
        <time>2024-08-12T12:40:45Z</time>
      </trkpt>
      <trkpt lat="44.77485" lon="6.30327">
        <ele>2574.6</ele>
        <time>2024-08-12T12:40:46Z</time>
      </trkpt>
      <trkpt lat="44.77485" lon="6.30327">
        <ele>2574.6</ele>
        <time>2024-08-12T12:40:47Z</time>
      </trkpt>
      <trkpt lat="44.77486" lon="6.30324">
        <ele>2574</ele>
        <time>2024-08-12T12:40:48Z</time>
      </trkpt>
      <trkpt lat="44.77486" lon="6.30324">
        <ele>2573.8</ele>
        <time>2024-08-12T12:40:49Z</time>
      </trkpt>
      <trkpt lat="44.77487" lon="6.30322">
        <ele>2573.4</ele>
        <time>2024-08-12T12:40:50Z</time>
      </trkpt>
      <trkpt lat="44.77487" lon="6.30322">
        <ele>2573</ele>
        <time>2024-08-12T12:40:51Z</time>
      </trkpt>
      <trkpt lat="44.77489" lon="6.30321">
        <ele>2573</ele>
        <time>2024-08-12T12:40:52Z</time>
      </trkpt>
      <trkpt lat="44.77489" lon="6.30321">
        <ele>2573</ele>
        <time>2024-08-12T12:40:53Z</time>
      </trkpt>
      <trkpt lat="44.77491" lon="6.30319">
        <ele>2573</ele>
        <time>2024-08-12T12:40:54Z</time>
      </trkpt>
      <trkpt lat="44.77491" lon="6.30319">
        <ele>2572.8</ele>
        <time>2024-08-12T12:40:55Z</time>
      </trkpt>
      <trkpt lat="44.77491" lon="6.30316">
        <ele>2572.4</ele>
        <time>2024-08-12T12:40:56Z</time>
      </trkpt>
      <trkpt lat="44.77491" lon="6.30316">
        <ele>2572.4</ele>
        <time>2024-08-12T12:40:57Z</time>
      </trkpt>
      <trkpt lat="44.77491" lon="6.30313">
        <ele>2572.4</ele>
        <time>2024-08-12T12:40:58Z</time>
      </trkpt>
      <trkpt lat="44.77491" lon="6.30313">
        <ele>2572.4</ele>
        <time>2024-08-12T12:40:59Z</time>
      </trkpt>
      <trkpt lat="44.7749" lon="6.3031">
        <ele>2572.2</ele>
        <time>2024-08-12T12:41:00Z</time>
      </trkpt>
      <trkpt lat="44.7749" lon="6.3031">
        <ele>2572</ele>
        <time>2024-08-12T12:41:01Z</time>
      </trkpt>
      <trkpt lat="44.77489" lon="6.30306">
        <ele>2571.2</ele>
        <time>2024-08-12T12:41:02Z</time>
      </trkpt>
      <trkpt lat="44.77489" lon="6.30306">
        <ele>2571.2</ele>
        <time>2024-08-12T12:41:03Z</time>
      </trkpt>
      <trkpt lat="44.77489" lon="6.30302">
        <ele>2571</ele>
        <time>2024-08-12T12:41:04Z</time>
      </trkpt>
      <trkpt lat="44.77489" lon="6.30302">
        <ele>2570.6</ele>
        <time>2024-08-12T12:41:05Z</time>
      </trkpt>
      <trkpt lat="44.77488" lon="6.30299">
        <ele>2569.8</ele>
        <time>2024-08-12T12:41:06Z</time>
      </trkpt>
      <trkpt lat="44.77488" lon="6.30299">
        <ele>2569.6</ele>
        <time>2024-08-12T12:41:07Z</time>
      </trkpt>
      <trkpt lat="44.77488" lon="6.30296">
        <ele>2569.2</ele>
        <time>2024-08-12T12:41:08Z</time>
      </trkpt>
      <trkpt lat="44.77488" lon="6.30296">
        <ele>2568.8</ele>
        <time>2024-08-12T12:41:09Z</time>
      </trkpt>
      <trkpt lat="44.77488" lon="6.30293">
        <ele>2568.4</ele>
        <time>2024-08-12T12:41:10Z</time>
      </trkpt>
      <trkpt lat="44.77488" lon="6.30293">
        <ele>2568.2</ele>
        <time>2024-08-12T12:41:11Z</time>
      </trkpt>
      <trkpt lat="44.77489" lon="6.3029">
        <ele>2568</ele>
        <time>2024-08-12T12:41:12Z</time>
      </trkpt>
      <trkpt lat="44.77489" lon="6.3029">
        <ele>2567.6</ele>
        <time>2024-08-12T12:41:13Z</time>
      </trkpt>
      <trkpt lat="44.7749" lon="6.30287">
        <ele>2567.2</ele>
        <time>2024-08-12T12:41:14Z</time>
      </trkpt>
      <trkpt lat="44.7749" lon="6.30287">
        <ele>2566.8</ele>
        <time>2024-08-12T12:41:15Z</time>
      </trkpt>
      <trkpt lat="44.77492" lon="6.30284">
        <ele>2566.4</ele>
        <time>2024-08-12T12:41:16Z</time>
      </trkpt>
      <trkpt lat="44.77492" lon="6.30284">
        <ele>2566.4</ele>
        <time>2024-08-12T12:41:17Z</time>
      </trkpt>
      <trkpt lat="44.77494" lon="6.30282">
        <ele>2566.6</ele>
        <time>2024-08-12T12:41:18Z</time>
      </trkpt>
      <trkpt lat="44.77494" lon="6.30282">
        <ele>2566.6</ele>
        <time>2024-08-12T12:41:19Z</time>
      </trkpt>
      <trkpt lat="44.77496" lon="6.3028">
        <ele>2566.4</ele>
        <time>2024-08-12T12:41:20Z</time>
      </trkpt>
      <trkpt lat="44.77496" lon="6.3028">
        <ele>2565.2</ele>
        <time>2024-08-12T12:41:21Z</time>
      </trkpt>
      <trkpt lat="44.77499" lon="6.30279">
        <ele>2565</ele>
        <time>2024-08-12T12:41:22Z</time>
      </trkpt>
      <trkpt lat="44.77499" lon="6.30279">
        <ele>2564.8</ele>
        <time>2024-08-12T12:41:23Z</time>
      </trkpt>
      <trkpt lat="44.77501" lon="6.30278">
        <ele>2564.8</ele>
        <time>2024-08-12T12:41:24Z</time>
      </trkpt>
      <trkpt lat="44.77501" lon="6.30278">
        <ele>2564.6</ele>
        <time>2024-08-12T12:41:25Z</time>
      </trkpt>
      <trkpt lat="44.77503" lon="6.30278">
        <ele>2564.4</ele>
        <time>2024-08-12T12:41:26Z</time>
      </trkpt>
      <trkpt lat="44.77503" lon="6.30278">
        <ele>2564.4</ele>
        <time>2024-08-12T12:41:27Z</time>
      </trkpt>
      <trkpt lat="44.77503" lon="6.30278">
        <ele>2563.8</ele>
        <time>2024-08-12T12:41:28Z</time>
      </trkpt>
      <trkpt lat="44.77502" lon="6.30275">
        <ele>2563</ele>
        <time>2024-08-12T12:41:29Z</time>
      </trkpt>
      <trkpt lat="44.77502" lon="6.30275">
        <ele>2562.8</ele>
        <time>2024-08-12T12:41:30Z</time>
      </trkpt>
      <trkpt lat="44.77501" lon="6.30272">
        <ele>2562.6</ele>
        <time>2024-08-12T12:41:31Z</time>
      </trkpt>
      <trkpt lat="44.77501" lon="6.30272">
        <ele>2562</ele>
        <time>2024-08-12T12:41:32Z</time>
      </trkpt>
      <trkpt lat="44.775" lon="6.3027">
        <ele>2561.4</ele>
        <time>2024-08-12T12:41:33Z</time>
      </trkpt>
      <trkpt lat="44.775" lon="6.3027">
        <ele>2561.2</ele>
        <time>2024-08-12T12:41:34Z</time>
      </trkpt>
      <trkpt lat="44.77499" lon="6.30267">
        <ele>2561</ele>
        <time>2024-08-12T12:41:35Z</time>
      </trkpt>
      <trkpt lat="44.77499" lon="6.30267">
        <ele>2560.8</ele>
        <time>2024-08-12T12:41:36Z</time>
      </trkpt>
      <trkpt lat="44.775" lon="6.30265">
        <ele>2559.8</ele>
        <time>2024-08-12T12:41:37Z</time>
      </trkpt>
      <trkpt lat="44.775" lon="6.30265">
        <ele>2559.6</ele>
        <time>2024-08-12T12:41:38Z</time>
      </trkpt>
      <trkpt lat="44.77502" lon="6.30265">
        <ele>2559.6</ele>
        <time>2024-08-12T12:41:39Z</time>
      </trkpt>
      <trkpt lat="44.77502" lon="6.30265">
        <ele>2559.8</ele>
        <time>2024-08-12T12:41:40Z</time>
      </trkpt>
      <trkpt lat="44.77502" lon="6.30265">
        <ele>2559.8</ele>
        <time>2024-08-12T12:41:41Z</time>
      </trkpt>
      <trkpt lat="44.77502" lon="6.30265">
        <ele>2559.6</ele>
        <time>2024-08-12T12:41:42Z</time>
      </trkpt>
      <trkpt lat="44.77502" lon="6.30265">
        <ele>2559.2</ele>
        <time>2024-08-12T12:41:43Z</time>
      </trkpt>
      <trkpt lat="44.77502" lon="6.30265">
        <ele>2558.8</ele>
        <time>2024-08-12T12:41:44Z</time>
      </trkpt>
      <trkpt lat="44.77502" lon="6.30265">
        <ele>2558.6</ele>
        <time>2024-08-12T12:41:45Z</time>
      </trkpt>
      <trkpt lat="44.77502" lon="6.30265">
        <ele>2558.4</ele>
        <time>2024-08-12T12:41:46Z</time>
      </trkpt>
      <trkpt lat="44.77502" lon="6.30265">
        <ele>2558.2</ele>
        <time>2024-08-12T12:41:47Z</time>
      </trkpt>
      <trkpt lat="44.77502" lon="6.30265">
        <ele>2558.2</ele>
        <time>2024-08-12T12:41:48Z</time>
      </trkpt>
      <trkpt lat="44.77502" lon="6.30265">
        <ele>2558.4</ele>
        <time>2024-08-12T12:41:49Z</time>
      </trkpt>
      <trkpt lat="44.77502" lon="6.30265">
        <ele>2558.4</ele>
        <time>2024-08-12T12:41:50Z</time>
      </trkpt>
      <trkpt lat="44.77502" lon="6.30265">
        <ele>2558.2</ele>
        <time>2024-08-12T12:41:51Z</time>
      </trkpt>
      <trkpt lat="44.77502" lon="6.30265">
        <ele>2558.2</ele>
        <time>2024-08-12T12:41:52Z</time>
      </trkpt>
      <trkpt lat="44.77502" lon="6.30265">
        <ele>2558.2</ele>
        <time>2024-08-12T12:41:53Z</time>
      </trkpt>
      <trkpt lat="44.77502" lon="6.30265">
        <ele>2558</ele>
        <time>2024-08-12T12:41:54Z</time>
      </trkpt>
      <trkpt lat="44.77502" lon="6.30265">
        <ele>2558</ele>
        <time>2024-08-12T12:41:55Z</time>
      </trkpt>
      <trkpt lat="44.77502" lon="6.30265">
        <ele>2558</ele>
        <time>2024-08-12T12:41:56Z</time>
      </trkpt>
      <trkpt lat="44.77502" lon="6.30265">
        <ele>2558</ele>
        <time>2024-08-12T12:41:57Z</time>
      </trkpt>
      <trkpt lat="44.77502" lon="6.30263">
        <ele>2558.2</ele>
        <time>2024-08-12T12:41:58Z</time>
      </trkpt>
      <trkpt lat="44.77502" lon="6.30263">
        <ele>2558</ele>
        <time>2024-08-12T12:41:59Z</time>
      </trkpt>
      <trkpt lat="44.77502" lon="6.30263">
        <ele>2558</ele>
        <time>2024-08-12T12:42:00Z</time>
      </trkpt>
      <trkpt lat="44.77502" lon="6.30259">
        <ele>2557.8</ele>
        <time>2024-08-12T12:42:01Z</time>
      </trkpt>
      <trkpt lat="44.77502" lon="6.30259">
        <ele>2557.2</ele>
        <time>2024-08-12T12:42:02Z</time>
      </trkpt>
      <trkpt lat="44.77501" lon="6.30254">
        <ele>2557.2</ele>
        <time>2024-08-12T12:42:03Z</time>
      </trkpt>
      <trkpt lat="44.77501" lon="6.30254">
        <ele>2556.8</ele>
        <time>2024-08-12T12:42:04Z</time>
      </trkpt>
      <trkpt lat="44.77501" lon="6.3025">
        <ele>2556.2</ele>
        <time>2024-08-12T12:42:05Z</time>
      </trkpt>
      <trkpt lat="44.77501" lon="6.3025">
        <ele>2555.6</ele>
        <time>2024-08-12T12:42:06Z</time>
      </trkpt>
      <trkpt lat="44.77502" lon="6.30247">
        <ele>2555.2</ele>
        <time>2024-08-12T12:42:07Z</time>
      </trkpt>
      <trkpt lat="44.77502" lon="6.30247">
        <ele>2555</ele>
        <time>2024-08-12T12:42:08Z</time>
      </trkpt>
      <trkpt lat="44.77504" lon="6.30247">
        <ele>2554.8</ele>
        <time>2024-08-12T12:42:09Z</time>
      </trkpt>
      <trkpt lat="44.77504" lon="6.30247">
        <ele>2554.8</ele>
        <time>2024-08-12T12:42:10Z</time>
      </trkpt>
      <trkpt lat="44.77504" lon="6.30247">
        <ele>2554.8</ele>
        <time>2024-08-12T12:42:11Z</time>
      </trkpt>
      <trkpt lat="44.77504" lon="6.30247">
        <ele>2554.8</ele>
        <time>2024-08-12T12:42:12Z</time>
      </trkpt>
      <trkpt lat="44.77504" lon="6.30243">
        <ele>2554.2</ele>
        <time>2024-08-12T12:42:13Z</time>
      </trkpt>
      <trkpt lat="44.77504" lon="6.30243">
        <ele>2553.6</ele>
        <time>2024-08-12T12:42:14Z</time>
      </trkpt>
      <trkpt lat="44.77504" lon="6.3024">
        <ele>2553.6</ele>
        <time>2024-08-12T12:42:15Z</time>
      </trkpt>
      <trkpt lat="44.77504" lon="6.3024">
        <ele>2553</ele>
        <time>2024-08-12T12:42:16Z</time>
      </trkpt>
      <trkpt lat="44.77505" lon="6.30237">
        <ele>2552.6</ele>
        <time>2024-08-12T12:42:17Z</time>
      </trkpt>
      <trkpt lat="44.77505" lon="6.30237">
        <ele>2552.6</ele>
        <time>2024-08-12T12:42:18Z</time>
      </trkpt>
      <trkpt lat="44.77507" lon="6.30234">
        <ele>2552</ele>
        <time>2024-08-12T12:42:19Z</time>
      </trkpt>
      <trkpt lat="44.77507" lon="6.30234">
        <ele>2551.8</ele>
        <time>2024-08-12T12:42:20Z</time>
      </trkpt>
      <trkpt lat="44.77508" lon="6.30236">
        <ele>2551.8</ele>
        <time>2024-08-12T12:42:21Z</time>
      </trkpt>
      <trkpt lat="44.77508" lon="6.30236">
        <ele>2551.8</ele>
        <time>2024-08-12T12:42:22Z</time>
      </trkpt>
      <trkpt lat="44.77509" lon="6.30239">
        <ele>2551.8</ele>
        <time>2024-08-12T12:42:23Z</time>
      </trkpt>
      <trkpt lat="44.77509" lon="6.30239">
        <ele>2551.6</ele>
        <time>2024-08-12T12:42:24Z</time>
      </trkpt>
      <trkpt lat="44.7751" lon="6.30242">
        <ele>2551.2</ele>
        <time>2024-08-12T12:42:25Z</time>
      </trkpt>
      <trkpt lat="44.7751" lon="6.30242">
        <ele>2551</ele>
        <time>2024-08-12T12:42:26Z</time>
      </trkpt>
      <trkpt lat="44.77512" lon="6.30244">
        <ele>2550.8</ele>
        <time>2024-08-12T12:42:27Z</time>
      </trkpt>
      <trkpt lat="44.77512" lon="6.30244">
        <ele>2550.2</ele>
        <time>2024-08-12T12:42:28Z</time>
      </trkpt>
      <trkpt lat="44.77514" lon="6.30247">
        <ele>2549.8</ele>
        <time>2024-08-12T12:42:29Z</time>
      </trkpt>
      <trkpt lat="44.77514" lon="6.30247">
        <ele>2549.4</ele>
        <time>2024-08-12T12:42:30Z</time>
      </trkpt>
      <trkpt lat="44.77517" lon="6.30249">
        <ele>2549.2</ele>
        <time>2024-08-12T12:42:31Z</time>
      </trkpt>
      <trkpt lat="44.77517" lon="6.30249">
        <ele>2549</ele>
        <time>2024-08-12T12:42:32Z</time>
      </trkpt>
      <trkpt lat="44.7752" lon="6.30251">
        <ele>2548.6</ele>
        <time>2024-08-12T12:42:33Z</time>
      </trkpt>
      <trkpt lat="44.7752" lon="6.30251">
        <ele>2548.2</ele>
        <time>2024-08-12T12:42:34Z</time>
      </trkpt>
      <trkpt lat="44.77522" lon="6.30252">
        <ele>2547.8</ele>
        <time>2024-08-12T12:42:35Z</time>
      </trkpt>
      <trkpt lat="44.77522" lon="6.30252">
        <ele>2547.4</ele>
        <time>2024-08-12T12:42:36Z</time>
      </trkpt>
      <trkpt lat="44.77525" lon="6.30254">
        <ele>2547.4</ele>
        <time>2024-08-12T12:42:37Z</time>
      </trkpt>
      <trkpt lat="44.77525" lon="6.30254">
        <ele>2547</ele>
        <time>2024-08-12T12:42:38Z</time>
      </trkpt>
      <trkpt lat="44.77528" lon="6.30254">
        <ele>2546.4</ele>
        <time>2024-08-12T12:42:39Z</time>
      </trkpt>
      <trkpt lat="44.77528" lon="6.30254">
        <ele>2546</ele>
        <time>2024-08-12T12:42:40Z</time>
      </trkpt>
      <trkpt lat="44.7753" lon="6.30255">
        <ele>2545.6</ele>
        <time>2024-08-12T12:42:41Z</time>
      </trkpt>
      <trkpt lat="44.7753" lon="6.30255">
        <ele>2545.6</ele>
        <time>2024-08-12T12:42:42Z</time>
      </trkpt>
      <trkpt lat="44.77532" lon="6.30254">
        <ele>2545.2</ele>
        <time>2024-08-12T12:42:43Z</time>
      </trkpt>
      <trkpt lat="44.77532" lon="6.30254">
        <ele>2544.8</ele>
        <time>2024-08-12T12:42:44Z</time>
      </trkpt>
      <trkpt lat="44.77534" lon="6.30252">
        <ele>2544.8</ele>
        <time>2024-08-12T12:42:45Z</time>
      </trkpt>
      <trkpt lat="44.77534" lon="6.30252">
        <ele>2544.6</ele>
        <time>2024-08-12T12:42:46Z</time>
      </trkpt>
      <trkpt lat="44.77537" lon="6.3025">
        <ele>2544.2</ele>
        <time>2024-08-12T12:42:47Z</time>
      </trkpt>
      <trkpt lat="44.77537" lon="6.3025">
        <ele>2543.6</ele>
        <time>2024-08-12T12:42:48Z</time>
      </trkpt>
      <trkpt lat="44.77537" lon="6.3025">
        <ele>2543.2</ele>
        <time>2024-08-12T12:42:49Z</time>
      </trkpt>
      <trkpt lat="44.77537" lon="6.3025">
        <ele>2543.2</ele>
        <time>2024-08-12T12:42:50Z</time>
      </trkpt>
      <trkpt lat="44.77536" lon="6.30248">
        <ele>2543.2</ele>
        <time>2024-08-12T12:42:51Z</time>
      </trkpt>
      <trkpt lat="44.77536" lon="6.30248">
        <ele>2543.6</ele>
        <time>2024-08-12T12:42:52Z</time>
      </trkpt>
      <trkpt lat="44.77534" lon="6.30246">
        <ele>2543.6</ele>
        <time>2024-08-12T12:42:53Z</time>
      </trkpt>
      <trkpt lat="44.77534" lon="6.30246">
        <ele>2543.2</ele>
        <time>2024-08-12T12:42:54Z</time>
      </trkpt>
      <trkpt lat="44.77533" lon="6.30243">
        <ele>2543.2</ele>
        <time>2024-08-12T12:42:55Z</time>
      </trkpt>
      <trkpt lat="44.77533" lon="6.30243">
        <ele>2543.2</ele>
        <time>2024-08-12T12:42:56Z</time>
      </trkpt>
      <trkpt lat="44.77532" lon="6.30239">
        <ele>2543.2</ele>
        <time>2024-08-12T12:42:57Z</time>
      </trkpt>
      <trkpt lat="44.77532" lon="6.30239">
        <ele>2543</ele>
        <time>2024-08-12T12:42:58Z</time>
      </trkpt>
      <trkpt lat="44.77532" lon="6.30239">
        <ele>2542.8</ele>
        <time>2024-08-12T12:42:59Z</time>
      </trkpt>
      <trkpt lat="44.77532" lon="6.30236">
        <ele>2542.6</ele>
        <time>2024-08-12T12:43:00Z</time>
      </trkpt>
      <trkpt lat="44.77532" lon="6.30236">
        <ele>2542.6</ele>
        <time>2024-08-12T12:43:01Z</time>
      </trkpt>
      <trkpt lat="44.7753" lon="6.30233">
        <ele>2542</ele>
        <time>2024-08-12T12:43:02Z</time>
      </trkpt>
      <trkpt lat="44.7753" lon="6.30233">
        <ele>2542</ele>
        <time>2024-08-12T12:43:03Z</time>
      </trkpt>
      <trkpt lat="44.7753" lon="6.30233">
        <ele>2541.4</ele>
        <time>2024-08-12T12:43:04Z</time>
      </trkpt>
      <trkpt lat="44.77529" lon="6.30229">
        <ele>2541</ele>
        <time>2024-08-12T12:43:05Z</time>
      </trkpt>
      <trkpt lat="44.77529" lon="6.30229">
        <ele>2540.8</ele>
        <time>2024-08-12T12:43:06Z</time>
      </trkpt>
      <trkpt lat="44.77529" lon="6.30226">
        <ele>2540.4</ele>
        <time>2024-08-12T12:43:07Z</time>
      </trkpt>
      <trkpt lat="44.77529" lon="6.30226">
        <ele>2540</ele>
        <time>2024-08-12T12:43:08Z</time>
      </trkpt>
      <trkpt lat="44.77529" lon="6.30226">
        <ele>2540</ele>
        <time>2024-08-12T12:43:09Z</time>
      </trkpt>
      <trkpt lat="44.7753" lon="6.30223">
        <ele>2539.8</ele>
        <time>2024-08-12T12:43:10Z</time>
      </trkpt>
      <trkpt lat="44.7753" lon="6.30223">
        <ele>2539.8</ele>
        <time>2024-08-12T12:43:11Z</time>
      </trkpt>
      <trkpt lat="44.7753" lon="6.30223">
        <ele>2539.4</ele>
        <time>2024-08-12T12:43:12Z</time>
      </trkpt>
      <trkpt lat="44.77532" lon="6.30224">
        <ele>2539</ele>
        <time>2024-08-12T12:43:13Z</time>
      </trkpt>
      <trkpt lat="44.77532" lon="6.30224">
        <ele>2538</ele>
        <time>2024-08-12T12:43:14Z</time>
      </trkpt>
      <trkpt lat="44.77534" lon="6.30225">
        <ele>2537.4</ele>
        <time>2024-08-12T12:43:15Z</time>
      </trkpt>
      <trkpt lat="44.77534" lon="6.30225">
        <ele>2537</ele>
        <time>2024-08-12T12:43:16Z</time>
      </trkpt>
      <trkpt lat="44.77536" lon="6.30227">
        <ele>2536.6</ele>
        <time>2024-08-12T12:43:17Z</time>
      </trkpt>
      <trkpt lat="44.77536" lon="6.30227">
        <ele>2536.4</ele>
        <time>2024-08-12T12:43:18Z</time>
      </trkpt>
      <trkpt lat="44.77538" lon="6.30229">
        <ele>2535.8</ele>
        <time>2024-08-12T12:43:19Z</time>
      </trkpt>
      <trkpt lat="44.77538" lon="6.30229">
        <ele>2535.8</ele>
        <time>2024-08-12T12:43:20Z</time>
      </trkpt>
      <trkpt lat="44.7754" lon="6.3023">
        <ele>2535.8</ele>
        <time>2024-08-12T12:43:21Z</time>
      </trkpt>
      <trkpt lat="44.7754" lon="6.3023">
        <ele>2535.8</ele>
        <time>2024-08-12T12:43:22Z</time>
      </trkpt>
      <trkpt lat="44.7754" lon="6.3023">
        <ele>2535.8</ele>
        <time>2024-08-12T12:43:23Z</time>
      </trkpt>
      <trkpt lat="44.77541" lon="6.30232">
        <ele>2536</ele>
        <time>2024-08-12T12:43:24Z</time>
      </trkpt>
      <trkpt lat="44.77541" lon="6.30232">
        <ele>2536</ele>
        <time>2024-08-12T12:43:25Z</time>
      </trkpt>
      <trkpt lat="44.77541" lon="6.30232">
        <ele>2536</ele>
        <time>2024-08-12T12:43:26Z</time>
      </trkpt>
      <trkpt lat="44.77543" lon="6.3023">
        <ele>2535.8</ele>
        <time>2024-08-12T12:43:27Z</time>
      </trkpt>
      <trkpt lat="44.77543" lon="6.3023">
        <ele>2535.6</ele>
        <time>2024-08-12T12:43:28Z</time>
      </trkpt>
      <trkpt lat="44.77543" lon="6.3023">
        <ele>2535.4</ele>
        <time>2024-08-12T12:43:29Z</time>
      </trkpt>
      <trkpt lat="44.77544" lon="6.30228">
        <ele>2535.4</ele>
        <time>2024-08-12T12:43:30Z</time>
      </trkpt>
      <trkpt lat="44.77544" lon="6.30228">
        <ele>2535.4</ele>
        <time>2024-08-12T12:43:31Z</time>
      </trkpt>
      <trkpt lat="44.77545" lon="6.30225">
        <ele>2535.4</ele>
        <time>2024-08-12T12:43:32Z</time>
      </trkpt>
      <trkpt lat="44.77545" lon="6.30225">
        <ele>2535.2</ele>
        <time>2024-08-12T12:43:33Z</time>
      </trkpt>
      <trkpt lat="44.77547" lon="6.30222">
        <ele>2534.8</ele>
        <time>2024-08-12T12:43:34Z</time>
      </trkpt>
      <trkpt lat="44.77547" lon="6.30222">
        <ele>2534.4</ele>
        <time>2024-08-12T12:43:35Z</time>
      </trkpt>
      <trkpt lat="44.77548" lon="6.3022">
        <ele>2534.4</ele>
        <time>2024-08-12T12:43:36Z</time>
      </trkpt>
      <trkpt lat="44.77548" lon="6.3022">
        <ele>2533.8</ele>
        <time>2024-08-12T12:43:37Z</time>
      </trkpt>
      <trkpt lat="44.7755" lon="6.30219">
        <ele>2533.2</ele>
        <time>2024-08-12T12:43:38Z</time>
      </trkpt>
      <trkpt lat="44.7755" lon="6.30219">
        <ele>2532.8</ele>
        <time>2024-08-12T12:43:39Z</time>
      </trkpt>
      <trkpt lat="44.77551" lon="6.30217">
        <ele>2532.8</ele>
        <time>2024-08-12T12:43:40Z</time>
      </trkpt>
      <trkpt lat="44.77551" lon="6.30217">
        <ele>2532.8</ele>
        <time>2024-08-12T12:43:41Z</time>
      </trkpt>
      <trkpt lat="44.77552" lon="6.30214">
        <ele>2532.4</ele>
        <time>2024-08-12T12:43:42Z</time>
      </trkpt>
      <trkpt lat="44.77552" lon="6.30214">
        <ele>2532.4</ele>
        <time>2024-08-12T12:43:43Z</time>
      </trkpt>
      <trkpt lat="44.77554" lon="6.30212">
        <ele>2532.2</ele>
        <time>2024-08-12T12:43:44Z</time>
      </trkpt>
      <trkpt lat="44.77554" lon="6.30212">
        <ele>2531.8</ele>
        <time>2024-08-12T12:43:45Z</time>
      </trkpt>
      <trkpt lat="44.77554" lon="6.30209">
        <ele>2531.4</ele>
        <time>2024-08-12T12:43:46Z</time>
      </trkpt>
      <trkpt lat="44.77554" lon="6.30209">
        <ele>2531.2</ele>
        <time>2024-08-12T12:43:47Z</time>
      </trkpt>
      <trkpt lat="44.77555" lon="6.30206">
        <ele>2531.2</ele>
        <time>2024-08-12T12:43:48Z</time>
      </trkpt>
      <trkpt lat="44.77555" lon="6.30206">
        <ele>2530.6</ele>
        <time>2024-08-12T12:43:49Z</time>
      </trkpt>
      <trkpt lat="44.77555" lon="6.30206">
        <ele>2530.4</ele>
        <time>2024-08-12T12:43:50Z</time>
      </trkpt>
      <trkpt lat="44.77556" lon="6.30203">
        <ele>2530</ele>
        <time>2024-08-12T12:43:51Z</time>
      </trkpt>
      <trkpt lat="44.77556" lon="6.30203">
        <ele>2530</ele>
        <time>2024-08-12T12:43:52Z</time>
      </trkpt>
      <trkpt lat="44.77557" lon="6.302">
        <ele>2529.6</ele>
        <time>2024-08-12T12:43:53Z</time>
      </trkpt>
      <trkpt lat="44.77557" lon="6.302">
        <ele>2529.4</ele>
        <time>2024-08-12T12:43:54Z</time>
      </trkpt>
      <trkpt lat="44.77558" lon="6.30197">
        <ele>2529</ele>
        <time>2024-08-12T12:43:55Z</time>
      </trkpt>
      <trkpt lat="44.77558" lon="6.30197">
        <ele>2528.4</ele>
        <time>2024-08-12T12:43:56Z</time>
      </trkpt>
      <trkpt lat="44.77558" lon="6.30197">
        <ele>2528.4</ele>
        <time>2024-08-12T12:43:57Z</time>
      </trkpt>
      <trkpt lat="44.77559" lon="6.30193">
        <ele>2528.4</ele>
        <time>2024-08-12T12:43:58Z</time>
      </trkpt>
      <trkpt lat="44.77559" lon="6.30193">
        <ele>2528.4</ele>
        <time>2024-08-12T12:43:59Z</time>
      </trkpt>
      <trkpt lat="44.7756" lon="6.30191">
        <ele>2528.4</ele>
        <time>2024-08-12T12:44:00Z</time>
      </trkpt>
      <trkpt lat="44.7756" lon="6.30191">
        <ele>2528.4</ele>
        <time>2024-08-12T12:44:01Z</time>
      </trkpt>
      <trkpt lat="44.7756" lon="6.30187">
        <ele>2527.4</ele>
        <time>2024-08-12T12:44:02Z</time>
      </trkpt>
      <trkpt lat="44.7756" lon="6.30187">
        <ele>2527.4</ele>
        <time>2024-08-12T12:44:03Z</time>
      </trkpt>
      <trkpt lat="44.7756" lon="6.30184">
        <ele>2527.2</ele>
        <time>2024-08-12T12:44:04Z</time>
      </trkpt>
      <trkpt lat="44.7756" lon="6.30184">
        <ele>2527</ele>
        <time>2024-08-12T12:44:05Z</time>
      </trkpt>
      <trkpt lat="44.77561" lon="6.30181">
        <ele>2527</ele>
        <time>2024-08-12T12:44:06Z</time>
      </trkpt>
      <trkpt lat="44.77561" lon="6.30181">
        <ele>2526.4</ele>
        <time>2024-08-12T12:44:07Z</time>
      </trkpt>
      <trkpt lat="44.77561" lon="6.30181">
        <ele>2526</ele>
        <time>2024-08-12T12:44:08Z</time>
      </trkpt>
      <trkpt lat="44.77562" lon="6.30177">
        <ele>2525.8</ele>
        <time>2024-08-12T12:44:09Z</time>
      </trkpt>
      <trkpt lat="44.77562" lon="6.30177">
        <ele>2525.8</ele>
        <time>2024-08-12T12:44:10Z</time>
      </trkpt>
      <trkpt lat="44.77562" lon="6.30177">
        <ele>2525.8</ele>
        <time>2024-08-12T12:44:11Z</time>
      </trkpt>
      <trkpt lat="44.77562" lon="6.30174">
        <ele>2525.2</ele>
        <time>2024-08-12T12:44:12Z</time>
      </trkpt>
      <trkpt lat="44.77562" lon="6.30174">
        <ele>2525</ele>
        <time>2024-08-12T12:44:13Z</time>
      </trkpt>
      <trkpt lat="44.77563" lon="6.30171">
        <ele>2524.6</ele>
        <time>2024-08-12T12:44:14Z</time>
      </trkpt>
      <trkpt lat="44.77563" lon="6.30171">
        <ele>2524.6</ele>
        <time>2024-08-12T12:44:15Z</time>
      </trkpt>
      <trkpt lat="44.77563" lon="6.30171">
        <ele>2524.4</ele>
        <time>2024-08-12T12:44:16Z</time>
      </trkpt>
      <trkpt lat="44.77563" lon="6.30167">
        <ele>2524.4</ele>
        <time>2024-08-12T12:44:17Z</time>
      </trkpt>
      <trkpt lat="44.77563" lon="6.30167">
        <ele>2524.2</ele>
        <time>2024-08-12T12:44:18Z</time>
      </trkpt>
      <trkpt lat="44.77563" lon="6.30165">
        <ele>2524</ele>
        <time>2024-08-12T12:44:19Z</time>
      </trkpt>
      <trkpt lat="44.77563" lon="6.30165">
        <ele>2523</ele>
        <time>2024-08-12T12:44:20Z</time>
      </trkpt>
      <trkpt lat="44.77563" lon="6.30165">
        <ele>2522.8</ele>
        <time>2024-08-12T12:44:21Z</time>
      </trkpt>
      <trkpt lat="44.77562" lon="6.30161">
        <ele>2522.6</ele>
        <time>2024-08-12T12:44:22Z</time>
      </trkpt>
      <trkpt lat="44.77562" lon="6.30161">
        <ele>2522.4</ele>
        <time>2024-08-12T12:44:23Z</time>
      </trkpt>
      <trkpt lat="44.77563" lon="6.30158">
        <ele>2522.2</ele>
        <time>2024-08-12T12:44:24Z</time>
      </trkpt>
      <trkpt lat="44.77563" lon="6.30158">
        <ele>2521.8</ele>
        <time>2024-08-12T12:44:25Z</time>
      </trkpt>
      <trkpt lat="44.77564" lon="6.30156">
        <ele>2521.8</ele>
        <time>2024-08-12T12:44:26Z</time>
      </trkpt>
      <trkpt lat="44.77564" lon="6.30156">
        <ele>2521.8</ele>
        <time>2024-08-12T12:44:27Z</time>
      </trkpt>
      <trkpt lat="44.77565" lon="6.30153">
        <ele>2521.6</ele>
        <time>2024-08-12T12:44:28Z</time>
      </trkpt>
      <trkpt lat="44.77565" lon="6.30153">
        <ele>2521.6</ele>
        <time>2024-08-12T12:44:29Z</time>
      </trkpt>
      <trkpt lat="44.77565" lon="6.30153">
        <ele>2521.6</ele>
        <time>2024-08-12T12:44:30Z</time>
      </trkpt>
      <trkpt lat="44.77565" lon="6.30149">
        <ele>2521.4</ele>
        <time>2024-08-12T12:44:31Z</time>
      </trkpt>
      <trkpt lat="44.77565" lon="6.30149">
        <ele>2521.2</ele>
        <time>2024-08-12T12:44:32Z</time>
      </trkpt>
      <trkpt lat="44.77566" lon="6.30146">
        <ele>2521</ele>
        <time>2024-08-12T12:44:33Z</time>
      </trkpt>
      <trkpt lat="44.77566" lon="6.30146">
        <ele>2521</ele>
        <time>2024-08-12T12:44:34Z</time>
      </trkpt>
      <trkpt lat="44.77566" lon="6.30146">
        <ele>2520.4</ele>
        <time>2024-08-12T12:44:35Z</time>
      </trkpt>
      <trkpt lat="44.77567" lon="6.30143">
        <ele>2520.4</ele>
        <time>2024-08-12T12:44:36Z</time>
      </trkpt>
      <trkpt lat="44.77567" lon="6.30143">
        <ele>2520.4</ele>
        <time>2024-08-12T12:44:37Z</time>
      </trkpt>
      <trkpt lat="44.77568" lon="6.3014">
        <ele>2520</ele>
        <time>2024-08-12T12:44:38Z</time>
      </trkpt>
      <trkpt lat="44.77568" lon="6.3014">
        <ele>2519.2</ele>
        <time>2024-08-12T12:44:39Z</time>
      </trkpt>
      <trkpt lat="44.77569" lon="6.30138">
        <ele>2519</ele>
        <time>2024-08-12T12:44:40Z</time>
      </trkpt>
      <trkpt lat="44.77569" lon="6.30138">
        <ele>2518.6</ele>
        <time>2024-08-12T12:44:41Z</time>
      </trkpt>
      <trkpt lat="44.77569" lon="6.30135">
        <ele>2517.6</ele>
        <time>2024-08-12T12:44:42Z</time>
      </trkpt>
      <trkpt lat="44.77569" lon="6.30135">
        <ele>2517.4</ele>
        <time>2024-08-12T12:44:43Z</time>
      </trkpt>
      <trkpt lat="44.7757" lon="6.30131">
        <ele>2517.4</ele>
        <time>2024-08-12T12:44:44Z</time>
      </trkpt>
      <trkpt lat="44.7757" lon="6.30131">
        <ele>2517.2</ele>
        <time>2024-08-12T12:44:45Z</time>
      </trkpt>
      <trkpt lat="44.77572" lon="6.30129">
        <ele>2517</ele>
        <time>2024-08-12T12:44:46Z</time>
      </trkpt>
      <trkpt lat="44.77572" lon="6.30129">
        <ele>2517</ele>
        <time>2024-08-12T12:44:47Z</time>
      </trkpt>
      <trkpt lat="44.77572" lon="6.30129">
        <ele>2517</ele>
        <time>2024-08-12T12:44:48Z</time>
      </trkpt>
      <trkpt lat="44.77572" lon="6.30126">
        <ele>2516.6</ele>
        <time>2024-08-12T12:44:49Z</time>
      </trkpt>
      <trkpt lat="44.77572" lon="6.30126">
        <ele>2516.2</ele>
        <time>2024-08-12T12:44:50Z</time>
      </trkpt>
      <trkpt lat="44.77572" lon="6.30122">
        <ele>2516</ele>
        <time>2024-08-12T12:44:51Z</time>
      </trkpt>
      <trkpt lat="44.77572" lon="6.30122">
        <ele>2516</ele>
        <time>2024-08-12T12:44:52Z</time>
      </trkpt>
      <trkpt lat="44.77571" lon="6.30119">
        <ele>2515.8</ele>
        <time>2024-08-12T12:44:53Z</time>
      </trkpt>
      <trkpt lat="44.77571" lon="6.30119">
        <ele>2515.8</ele>
        <time>2024-08-12T12:44:54Z</time>
      </trkpt>
      <trkpt lat="44.77572" lon="6.30115">
        <ele>2515.8</ele>
        <time>2024-08-12T12:44:55Z</time>
      </trkpt>
      <trkpt lat="44.77572" lon="6.30115">
        <ele>2515.6</ele>
        <time>2024-08-12T12:44:56Z</time>
      </trkpt>
      <trkpt lat="44.77572" lon="6.30112">
        <ele>2515.4</ele>
        <time>2024-08-12T12:44:57Z</time>
      </trkpt>
      <trkpt lat="44.77572" lon="6.30112">
        <ele>2515.2</ele>
        <time>2024-08-12T12:44:58Z</time>
      </trkpt>
      <trkpt lat="44.77573" lon="6.3011">
        <ele>2514.8</ele>
        <time>2024-08-12T12:44:59Z</time>
      </trkpt>
      <trkpt lat="44.77573" lon="6.3011">
        <ele>2514.4</ele>
        <time>2024-08-12T12:45:00Z</time>
      </trkpt>
      <trkpt lat="44.77574" lon="6.30107">
        <ele>2514.4</ele>
        <time>2024-08-12T12:45:01Z</time>
      </trkpt>
      <trkpt lat="44.77574" lon="6.30107">
        <ele>2514.6</ele>
        <time>2024-08-12T12:45:02Z</time>
      </trkpt>
      <trkpt lat="44.77574" lon="6.30104">
        <ele>2514.6</ele>
        <time>2024-08-12T12:45:03Z</time>
      </trkpt>
      <trkpt lat="44.77574" lon="6.30104">
        <ele>2514.4</ele>
        <time>2024-08-12T12:45:04Z</time>
      </trkpt>
      <trkpt lat="44.77576" lon="6.30102">
        <ele>2513.8</ele>
        <time>2024-08-12T12:45:05Z</time>
      </trkpt>
      <trkpt lat="44.77576" lon="6.30102">
        <ele>2513.6</ele>
        <time>2024-08-12T12:45:06Z</time>
      </trkpt>
      <trkpt lat="44.77577" lon="6.301">
        <ele>2513.6</ele>
        <time>2024-08-12T12:45:07Z</time>
      </trkpt>
      <trkpt lat="44.77577" lon="6.301">
        <ele>2513.4</ele>
        <time>2024-08-12T12:45:08Z</time>
      </trkpt>
      <trkpt lat="44.77577" lon="6.301">
        <ele>2513</ele>
        <time>2024-08-12T12:45:09Z</time>
      </trkpt>
      <trkpt lat="44.77578" lon="6.30097">
        <ele>2512.4</ele>
        <time>2024-08-12T12:45:10Z</time>
      </trkpt>
      <trkpt lat="44.77578" lon="6.30097">
        <ele>2512</ele>
        <time>2024-08-12T12:45:11Z</time>
      </trkpt>
      <trkpt lat="44.7758" lon="6.30095">
        <ele>2511.6</ele>
        <time>2024-08-12T12:45:12Z</time>
      </trkpt>
      <trkpt lat="44.7758" lon="6.30095">
        <ele>2511.2</ele>
        <time>2024-08-12T12:45:13Z</time>
      </trkpt>
      <trkpt lat="44.77581" lon="6.30093">
        <ele>2511</ele>
        <time>2024-08-12T12:45:14Z</time>
      </trkpt>
      <trkpt lat="44.77581" lon="6.30093">
        <ele>2510.8</ele>
        <time>2024-08-12T12:45:15Z</time>
      </trkpt>
      <trkpt lat="44.77582" lon="6.3009">
        <ele>2510.6</ele>
        <time>2024-08-12T12:45:16Z</time>
      </trkpt>
      <trkpt lat="44.77582" lon="6.3009">
        <ele>2510.4</ele>
        <time>2024-08-12T12:45:17Z</time>
      </trkpt>
      <trkpt lat="44.77582" lon="6.30087">
        <ele>2510.2</ele>
        <time>2024-08-12T12:45:18Z</time>
      </trkpt>
      <trkpt lat="44.77582" lon="6.30087">
        <ele>2509.8</ele>
        <time>2024-08-12T12:45:19Z</time>
      </trkpt>
      <trkpt lat="44.77583" lon="6.30084">
        <ele>2509.2</ele>
        <time>2024-08-12T12:45:20Z</time>
      </trkpt>
      <trkpt lat="44.77583" lon="6.30084">
        <ele>2509</ele>
        <time>2024-08-12T12:45:21Z</time>
      </trkpt>
      <trkpt lat="44.77584" lon="6.3008">
        <ele>2508.6</ele>
        <time>2024-08-12T12:45:22Z</time>
      </trkpt>
      <trkpt lat="44.77584" lon="6.3008">
        <ele>2508.4</ele>
        <time>2024-08-12T12:45:23Z</time>
      </trkpt>
      <trkpt lat="44.77583" lon="6.30076">
        <ele>2508</ele>
        <time>2024-08-12T12:45:24Z</time>
      </trkpt>
      <trkpt lat="44.77583" lon="6.30076">
        <ele>2508</ele>
        <time>2024-08-12T12:45:25Z</time>
      </trkpt>
      <trkpt lat="44.77584" lon="6.30072">
        <ele>2507.8</ele>
        <time>2024-08-12T12:45:26Z</time>
      </trkpt>
      <trkpt lat="44.77584" lon="6.30072">
        <ele>2507.6</ele>
        <time>2024-08-12T12:45:27Z</time>
      </trkpt>
      <trkpt lat="44.77584" lon="6.30069">
        <ele>2507.4</ele>
        <time>2024-08-12T12:45:28Z</time>
      </trkpt>
      <trkpt lat="44.77584" lon="6.30069">
        <ele>2507.2</ele>
        <time>2024-08-12T12:45:29Z</time>
      </trkpt>
      <trkpt lat="44.77584" lon="6.30066">
        <ele>2507</ele>
        <time>2024-08-12T12:45:30Z</time>
      </trkpt>
      <trkpt lat="44.77584" lon="6.30066">
        <ele>2506.6</ele>
        <time>2024-08-12T12:45:31Z</time>
      </trkpt>
      <trkpt lat="44.77583" lon="6.30063">
        <ele>2506.2</ele>
        <time>2024-08-12T12:45:32Z</time>
      </trkpt>
      <trkpt lat="44.77583" lon="6.30063">
        <ele>2506</ele>
        <time>2024-08-12T12:45:33Z</time>
      </trkpt>
      <trkpt lat="44.77583" lon="6.3006">
        <ele>2506</ele>
        <time>2024-08-12T12:45:34Z</time>
      </trkpt>
      <trkpt lat="44.77583" lon="6.3006">
        <ele>2506</ele>
        <time>2024-08-12T12:45:35Z</time>
      </trkpt>
      <trkpt lat="44.77584" lon="6.30056">
        <ele>2506</ele>
        <time>2024-08-12T12:45:36Z</time>
      </trkpt>
      <trkpt lat="44.77584" lon="6.30056">
        <ele>2505.8</ele>
        <time>2024-08-12T12:45:37Z</time>
      </trkpt>
      <trkpt lat="44.77584" lon="6.30052">
        <ele>2505.8</ele>
        <time>2024-08-12T12:45:38Z</time>
      </trkpt>
      <trkpt lat="44.77584" lon="6.30052">
        <ele>2505.6</ele>
        <time>2024-08-12T12:45:39Z</time>
      </trkpt>
      <trkpt lat="44.77585" lon="6.30049">
        <ele>2505.6</ele>
        <time>2024-08-12T12:45:40Z</time>
      </trkpt>
      <trkpt lat="44.77585" lon="6.30049">
        <ele>2505.4</ele>
        <time>2024-08-12T12:45:41Z</time>
      </trkpt>
      <trkpt lat="44.77585" lon="6.30049">
        <ele>2505</ele>
        <time>2024-08-12T12:45:42Z</time>
      </trkpt>
      <trkpt lat="44.77584" lon="6.30045">
        <ele>2505</ele>
        <time>2024-08-12T12:45:43Z</time>
      </trkpt>
      <trkpt lat="44.77584" lon="6.30045">
        <ele>2504.8</ele>
        <time>2024-08-12T12:45:44Z</time>
      </trkpt>
      <trkpt lat="44.77586" lon="6.30043">
        <ele>2504.4</ele>
        <time>2024-08-12T12:45:45Z</time>
      </trkpt>
      <trkpt lat="44.77586" lon="6.30043">
        <ele>2504.2</ele>
        <time>2024-08-12T12:45:46Z</time>
      </trkpt>
      <trkpt lat="44.77586" lon="6.3004">
        <ele>2504</ele>
        <time>2024-08-12T12:45:47Z</time>
      </trkpt>
      <trkpt lat="44.77586" lon="6.3004">
        <ele>2504</ele>
        <time>2024-08-12T12:45:48Z</time>
      </trkpt>
      <trkpt lat="44.77585" lon="6.30037">
        <ele>2503.8</ele>
        <time>2024-08-12T12:45:49Z</time>
      </trkpt>
      <trkpt lat="44.77585" lon="6.30037">
        <ele>2503.4</ele>
        <time>2024-08-12T12:45:50Z</time>
      </trkpt>
      <trkpt lat="44.77586" lon="6.30033">
        <ele>2503.4</ele>
        <time>2024-08-12T12:45:51Z</time>
      </trkpt>
      <trkpt lat="44.77586" lon="6.30033">
        <ele>2503.2</ele>
        <time>2024-08-12T12:45:52Z</time>
      </trkpt>
      <trkpt lat="44.77586" lon="6.3003">
        <ele>2503</ele>
        <time>2024-08-12T12:45:53Z</time>
      </trkpt>
      <trkpt lat="44.77586" lon="6.3003">
        <ele>2502.8</ele>
        <time>2024-08-12T12:45:54Z</time>
      </trkpt>
      <trkpt lat="44.77586" lon="6.30027">
        <ele>2502.8</ele>
        <time>2024-08-12T12:45:55Z</time>
      </trkpt>
      <trkpt lat="44.77586" lon="6.30027">
        <ele>2502.4</ele>
        <time>2024-08-12T12:45:56Z</time>
      </trkpt>
      <trkpt lat="44.77586" lon="6.30024">
        <ele>2502.4</ele>
        <time>2024-08-12T12:45:57Z</time>
      </trkpt>
      <trkpt lat="44.77586" lon="6.30024">
        <ele>2501.8</ele>
        <time>2024-08-12T12:45:58Z</time>
      </trkpt>
      <trkpt lat="44.77586" lon="6.30021">
        <ele>2501.4</ele>
        <time>2024-08-12T12:45:59Z</time>
      </trkpt>
      <trkpt lat="44.77586" lon="6.30021">
        <ele>2501.2</ele>
        <time>2024-08-12T12:46:00Z</time>
      </trkpt>
      <trkpt lat="44.77586" lon="6.30017">
        <ele>2501.2</ele>
        <time>2024-08-12T12:46:01Z</time>
      </trkpt>
      <trkpt lat="44.77586" lon="6.30017">
        <ele>2500.8</ele>
        <time>2024-08-12T12:46:02Z</time>
      </trkpt>
      <trkpt lat="44.77585" lon="6.30013">
        <ele>2500.8</ele>
        <time>2024-08-12T12:46:03Z</time>
      </trkpt>
      <trkpt lat="44.77585" lon="6.30013">
        <ele>2500.6</ele>
        <time>2024-08-12T12:46:04Z</time>
      </trkpt>
      <trkpt lat="44.77585" lon="6.3001">
        <ele>2500.6</ele>
        <time>2024-08-12T12:46:05Z</time>
      </trkpt>
      <trkpt lat="44.77585" lon="6.3001">
        <ele>2500.6</ele>
        <time>2024-08-12T12:46:06Z</time>
      </trkpt>
      <trkpt lat="44.77586" lon="6.30006">
        <ele>2500.4</ele>
        <time>2024-08-12T12:46:07Z</time>
      </trkpt>
      <trkpt lat="44.77586" lon="6.30006">
        <ele>2500.2</ele>
        <time>2024-08-12T12:46:08Z</time>
      </trkpt>
      <trkpt lat="44.77587" lon="6.30002">
        <ele>2500</ele>
        <time>2024-08-12T12:46:09Z</time>
      </trkpt>
      <trkpt lat="44.77587" lon="6.30002">
        <ele>2499.6</ele>
        <time>2024-08-12T12:46:10Z</time>
      </trkpt>
      <trkpt lat="44.77589" lon="6.29999">
        <ele>2499.6</ele>
        <time>2024-08-12T12:46:11Z</time>
      </trkpt>
      <trkpt lat="44.77589" lon="6.29999">
        <ele>2499.6</ele>
        <time>2024-08-12T12:46:12Z</time>
      </trkpt>
      <trkpt lat="44.77592" lon="6.29997">
        <ele>2499.6</ele>
        <time>2024-08-12T12:46:13Z</time>
      </trkpt>
      <trkpt lat="44.77592" lon="6.29997">
        <ele>2499.4</ele>
        <time>2024-08-12T12:46:14Z</time>
      </trkpt>
      <trkpt lat="44.77594" lon="6.29995">
        <ele>2499.2</ele>
        <time>2024-08-12T12:46:15Z</time>
      </trkpt>
      <trkpt lat="44.77594" lon="6.29995">
        <ele>2498.8</ele>
        <time>2024-08-12T12:46:16Z</time>
      </trkpt>
      <trkpt lat="44.77596" lon="6.29992">
        <ele>2498.6</ele>
        <time>2024-08-12T12:46:17Z</time>
      </trkpt>
      <trkpt lat="44.77596" lon="6.29992">
        <ele>2498.6</ele>
        <time>2024-08-12T12:46:18Z</time>
      </trkpt>
      <trkpt lat="44.77597" lon="6.29989">
        <ele>2498.4</ele>
        <time>2024-08-12T12:46:19Z</time>
      </trkpt>
      <trkpt lat="44.77597" lon="6.29989">
        <ele>2498.4</ele>
        <time>2024-08-12T12:46:20Z</time>
      </trkpt>
      <trkpt lat="44.77599" lon="6.29986">
        <ele>2498.2</ele>
        <time>2024-08-12T12:46:21Z</time>
      </trkpt>
      <trkpt lat="44.77599" lon="6.29986">
        <ele>2498.2</ele>
        <time>2024-08-12T12:46:22Z</time>
      </trkpt>
      <trkpt lat="44.77602" lon="6.29984">
        <ele>2498.2</ele>
        <time>2024-08-12T12:46:23Z</time>
      </trkpt>
      <trkpt lat="44.77602" lon="6.29984">
        <ele>2498</ele>
        <time>2024-08-12T12:46:24Z</time>
      </trkpt>
      <trkpt lat="44.77603" lon="6.29981">
        <ele>2498</ele>
        <time>2024-08-12T12:46:25Z</time>
      </trkpt>
      <trkpt lat="44.77603" lon="6.29981">
        <ele>2498</ele>
        <time>2024-08-12T12:46:26Z</time>
      </trkpt>
      <trkpt lat="44.77605" lon="6.29978">
        <ele>2498</ele>
        <time>2024-08-12T12:46:27Z</time>
      </trkpt>
      <trkpt lat="44.77605" lon="6.29978">
        <ele>2497.8</ele>
        <time>2024-08-12T12:46:28Z</time>
      </trkpt>
      <trkpt lat="44.77606" lon="6.29975">
        <ele>2497.2</ele>
        <time>2024-08-12T12:46:29Z</time>
      </trkpt>
      <trkpt lat="44.77606" lon="6.29975">
        <ele>2497</ele>
        <time>2024-08-12T12:46:30Z</time>
      </trkpt>
      <trkpt lat="44.77608" lon="6.29972">
        <ele>2497</ele>
        <time>2024-08-12T12:46:31Z</time>
      </trkpt>
      <trkpt lat="44.77608" lon="6.29972">
        <ele>2497</ele>
        <time>2024-08-12T12:46:32Z</time>
      </trkpt>
      <trkpt lat="44.7761" lon="6.29969">
        <ele>2496.6</ele>
        <time>2024-08-12T12:46:33Z</time>
      </trkpt>
      <trkpt lat="44.7761" lon="6.29969">
        <ele>2496.4</ele>
        <time>2024-08-12T12:46:34Z</time>
      </trkpt>
      <trkpt lat="44.77612" lon="6.29966">
        <ele>2496.4</ele>
        <time>2024-08-12T12:46:35Z</time>
      </trkpt>
      <trkpt lat="44.77612" lon="6.29966">
        <ele>2496.6</ele>
        <time>2024-08-12T12:46:36Z</time>
      </trkpt>
      <trkpt lat="44.77613" lon="6.29964">
        <ele>2496.8</ele>
        <time>2024-08-12T12:46:37Z</time>
      </trkpt>
      <trkpt lat="44.77613" lon="6.29964">
        <ele>2496.8</ele>
        <time>2024-08-12T12:46:38Z</time>
      </trkpt>
      <trkpt lat="44.77615" lon="6.29962">
        <ele>2496.6</ele>
        <time>2024-08-12T12:46:39Z</time>
      </trkpt>
      <trkpt lat="44.77615" lon="6.29962">
        <ele>2496.6</ele>
        <time>2024-08-12T12:46:40Z</time>
      </trkpt>
      <trkpt lat="44.77617" lon="6.2996">
        <ele>2497.2</ele>
        <time>2024-08-12T12:46:41Z</time>
      </trkpt>
      <trkpt lat="44.77617" lon="6.2996">
        <ele>2497.6</ele>
        <time>2024-08-12T12:46:42Z</time>
      </trkpt>
      <trkpt lat="44.77619" lon="6.29958">
        <ele>2497.6</ele>
        <time>2024-08-12T12:46:43Z</time>
      </trkpt>
      <trkpt lat="44.77619" lon="6.29958">
        <ele>2497.2</ele>
        <time>2024-08-12T12:46:44Z</time>
      </trkpt>
      <trkpt lat="44.77621" lon="6.29955">
        <ele>2497.2</ele>
        <time>2024-08-12T12:46:45Z</time>
      </trkpt>
      <trkpt lat="44.77621" lon="6.29955">
        <ele>2497</ele>
        <time>2024-08-12T12:46:46Z</time>
      </trkpt>
      <trkpt lat="44.77622" lon="6.29952">
        <ele>2496.8</ele>
        <time>2024-08-12T12:46:47Z</time>
      </trkpt>
      <trkpt lat="44.77622" lon="6.29952">
        <ele>2496.6</ele>
        <time>2024-08-12T12:46:48Z</time>
      </trkpt>
      <trkpt lat="44.77623" lon="6.29949">
        <ele>2496.6</ele>
        <time>2024-08-12T12:46:49Z</time>
      </trkpt>
      <trkpt lat="44.77623" lon="6.29949">
        <ele>2496.4</ele>
        <time>2024-08-12T12:46:50Z</time>
      </trkpt>
      <trkpt lat="44.77625" lon="6.29945">
        <ele>2496.2</ele>
        <time>2024-08-12T12:46:51Z</time>
      </trkpt>
      <trkpt lat="44.77625" lon="6.29945">
        <ele>2496.2</ele>
        <time>2024-08-12T12:46:52Z</time>
      </trkpt>
      <trkpt lat="44.77626" lon="6.29941">
        <ele>2496.2</ele>
        <time>2024-08-12T12:46:53Z</time>
      </trkpt>
      <trkpt lat="44.77626" lon="6.29941">
        <ele>2496.2</ele>
        <time>2024-08-12T12:46:54Z</time>
      </trkpt>
      <trkpt lat="44.77627" lon="6.29938">
        <ele>2496</ele>
        <time>2024-08-12T12:46:55Z</time>
      </trkpt>
      <trkpt lat="44.77627" lon="6.29938">
        <ele>2496</ele>
        <time>2024-08-12T12:46:56Z</time>
      </trkpt>
      <trkpt lat="44.77628" lon="6.29935">
        <ele>2496</ele>
        <time>2024-08-12T12:46:57Z</time>
      </trkpt>
      <trkpt lat="44.77628" lon="6.29935">
        <ele>2496</ele>
        <time>2024-08-12T12:46:58Z</time>
      </trkpt>
      <trkpt lat="44.77629" lon="6.29932">
        <ele>2496</ele>
        <time>2024-08-12T12:46:59Z</time>
      </trkpt>
      <trkpt lat="44.77629" lon="6.29932">
        <ele>2496.2</ele>
        <time>2024-08-12T12:47:00Z</time>
      </trkpt>
      <trkpt lat="44.7763" lon="6.29929">
        <ele>2496.4</ele>
        <time>2024-08-12T12:47:01Z</time>
      </trkpt>
      <trkpt lat="44.7763" lon="6.29929">
        <ele>2496.2</ele>
        <time>2024-08-12T12:47:02Z</time>
      </trkpt>
      <trkpt lat="44.77631" lon="6.29926">
        <ele>2496.2</ele>
        <time>2024-08-12T12:47:03Z</time>
      </trkpt>
      <trkpt lat="44.77631" lon="6.29926">
        <ele>2496.4</ele>
        <time>2024-08-12T12:47:04Z</time>
      </trkpt>
      <trkpt lat="44.77632" lon="6.29923">
        <ele>2496.6</ele>
        <time>2024-08-12T12:47:05Z</time>
      </trkpt>
      <trkpt lat="44.77632" lon="6.29923">
        <ele>2496.6</ele>
        <time>2024-08-12T12:47:06Z</time>
      </trkpt>
      <trkpt lat="44.77634" lon="6.29919">
        <ele>2496.4</ele>
        <time>2024-08-12T12:47:07Z</time>
      </trkpt>
      <trkpt lat="44.77634" lon="6.29919">
        <ele>2496.4</ele>
        <time>2024-08-12T12:47:08Z</time>
      </trkpt>
      <trkpt lat="44.77635" lon="6.29917">
        <ele>2496.4</ele>
        <time>2024-08-12T12:47:09Z</time>
      </trkpt>
      <trkpt lat="44.77635" lon="6.29917">
        <ele>2496.2</ele>
        <time>2024-08-12T12:47:10Z</time>
      </trkpt>
      <trkpt lat="44.77635" lon="6.29914">
        <ele>2496.2</ele>
        <time>2024-08-12T12:47:11Z</time>
      </trkpt>
      <trkpt lat="44.77635" lon="6.29914">
        <ele>2496.8</ele>
        <time>2024-08-12T12:47:12Z</time>
      </trkpt>
      <trkpt lat="44.77636" lon="6.29911">
        <ele>2496.8</ele>
        <time>2024-08-12T12:47:13Z</time>
      </trkpt>
      <trkpt lat="44.77636" lon="6.29911">
        <ele>2496.6</ele>
        <time>2024-08-12T12:47:14Z</time>
      </trkpt>
      <trkpt lat="44.77637" lon="6.29908">
        <ele>2496.4</ele>
        <time>2024-08-12T12:47:15Z</time>
      </trkpt>
      <trkpt lat="44.77637" lon="6.29908">
        <ele>2496.4</ele>
        <time>2024-08-12T12:47:16Z</time>
      </trkpt>
      <trkpt lat="44.77638" lon="6.29905">
        <ele>2496.4</ele>
        <time>2024-08-12T12:47:17Z</time>
      </trkpt>
      <trkpt lat="44.77638" lon="6.29905">
        <ele>2496</ele>
        <time>2024-08-12T12:47:18Z</time>
      </trkpt>
      <trkpt lat="44.77639" lon="6.29901">
        <ele>2495.8</ele>
        <time>2024-08-12T12:47:19Z</time>
      </trkpt>
      <trkpt lat="44.77639" lon="6.29901">
        <ele>2495.6</ele>
        <time>2024-08-12T12:47:20Z</time>
      </trkpt>
      <trkpt lat="44.77641" lon="6.29897">
        <ele>2495.6</ele>
        <time>2024-08-12T12:47:21Z</time>
      </trkpt>
      <trkpt lat="44.77641" lon="6.29897">
        <ele>2495.4</ele>
        <time>2024-08-12T12:47:22Z</time>
      </trkpt>
      <trkpt lat="44.77642" lon="6.29893">
        <ele>2495.2</ele>
        <time>2024-08-12T12:47:23Z</time>
      </trkpt>
      <trkpt lat="44.77642" lon="6.29893">
        <ele>2495</ele>
        <time>2024-08-12T12:47:24Z</time>
      </trkpt>
      <trkpt lat="44.77643" lon="6.2989">
        <ele>2495</ele>
        <time>2024-08-12T12:47:25Z</time>
      </trkpt>
      <trkpt lat="44.77643" lon="6.2989">
        <ele>2494.8</ele>
        <time>2024-08-12T12:47:26Z</time>
      </trkpt>
      <trkpt lat="44.77645" lon="6.29886">
        <ele>2494.8</ele>
        <time>2024-08-12T12:47:27Z</time>
      </trkpt>
      <trkpt lat="44.77645" lon="6.29886">
        <ele>2494.8</ele>
        <time>2024-08-12T12:47:28Z</time>
      </trkpt>
      <trkpt lat="44.77645" lon="6.29883">
        <ele>2494.6</ele>
        <time>2024-08-12T12:47:29Z</time>
      </trkpt>
      <trkpt lat="44.77645" lon="6.29883">
        <ele>2494.4</ele>
        <time>2024-08-12T12:47:30Z</time>
      </trkpt>
      <trkpt lat="44.77647" lon="6.29879">
        <ele>2494.2</ele>
        <time>2024-08-12T12:47:31Z</time>
      </trkpt>
      <trkpt lat="44.77647" lon="6.29879">
        <ele>2494.2</ele>
        <time>2024-08-12T12:47:32Z</time>
      </trkpt>
      <trkpt lat="44.77648" lon="6.29876">
        <ele>2494.2</ele>
        <time>2024-08-12T12:47:33Z</time>
      </trkpt>
      <trkpt lat="44.77648" lon="6.29876">
        <ele>2493.6</ele>
        <time>2024-08-12T12:47:34Z</time>
      </trkpt>
      <trkpt lat="44.77649" lon="6.29872">
        <ele>2493.6</ele>
        <time>2024-08-12T12:47:35Z</time>
      </trkpt>
      <trkpt lat="44.77649" lon="6.29872">
        <ele>2493.6</ele>
        <time>2024-08-12T12:47:36Z</time>
      </trkpt>
      <trkpt lat="44.7765" lon="6.29869">
        <ele>2493.6</ele>
        <time>2024-08-12T12:47:37Z</time>
      </trkpt>
      <trkpt lat="44.7765" lon="6.29869">
        <ele>2493.6</ele>
        <time>2024-08-12T12:47:38Z</time>
      </trkpt>
      <trkpt lat="44.7765" lon="6.29866">
        <ele>2493.4</ele>
        <time>2024-08-12T12:47:39Z</time>
      </trkpt>
      <trkpt lat="44.7765" lon="6.29866">
        <ele>2493.4</ele>
        <time>2024-08-12T12:47:40Z</time>
      </trkpt>
      <trkpt lat="44.7765" lon="6.29862">
        <ele>2493.4</ele>
        <time>2024-08-12T12:47:41Z</time>
      </trkpt>
      <trkpt lat="44.7765" lon="6.29862">
        <ele>2493.2</ele>
        <time>2024-08-12T12:47:42Z</time>
      </trkpt>
      <trkpt lat="44.7765" lon="6.29858">
        <ele>2493.2</ele>
        <time>2024-08-12T12:47:43Z</time>
      </trkpt>
      <trkpt lat="44.7765" lon="6.29858">
        <ele>2493.6</ele>
        <time>2024-08-12T12:47:44Z</time>
      </trkpt>
      <trkpt lat="44.77651" lon="6.29855">
        <ele>2493.6</ele>
        <time>2024-08-12T12:47:45Z</time>
      </trkpt>
      <trkpt lat="44.77651" lon="6.29855">
        <ele>2493.6</ele>
        <time>2024-08-12T12:47:46Z</time>
      </trkpt>
      <trkpt lat="44.77652" lon="6.29851">
        <ele>2493.8</ele>
        <time>2024-08-12T12:47:47Z</time>
      </trkpt>
      <trkpt lat="44.77652" lon="6.29851">
        <ele>2494</ele>
        <time>2024-08-12T12:47:48Z</time>
      </trkpt>
      <trkpt lat="44.77653" lon="6.29847">
        <ele>2494</ele>
        <time>2024-08-12T12:47:49Z</time>
      </trkpt>
      <trkpt lat="44.77653" lon="6.29847">
        <ele>2493.8</ele>
        <time>2024-08-12T12:47:50Z</time>
      </trkpt>
      <trkpt lat="44.77654" lon="6.29843">
        <ele>2493.4</ele>
        <time>2024-08-12T12:47:51Z</time>
      </trkpt>
      <trkpt lat="44.77654" lon="6.29843">
        <ele>2493.4</ele>
        <time>2024-08-12T12:47:52Z</time>
      </trkpt>
      <trkpt lat="44.77655" lon="6.29839">
        <ele>2493.4</ele>
        <time>2024-08-12T12:47:53Z</time>
      </trkpt>
      <trkpt lat="44.77655" lon="6.29839">
        <ele>2493.4</ele>
        <time>2024-08-12T12:47:54Z</time>
      </trkpt>
      <trkpt lat="44.77656" lon="6.29835">
        <ele>2493.6</ele>
        <time>2024-08-12T12:47:55Z</time>
      </trkpt>
      <trkpt lat="44.77656" lon="6.29835">
        <ele>2493.6</ele>
        <time>2024-08-12T12:47:56Z</time>
      </trkpt>
      <trkpt lat="44.77656" lon="6.29831">
        <ele>2493.6</ele>
        <time>2024-08-12T12:47:57Z</time>
      </trkpt>
      <trkpt lat="44.77656" lon="6.29831">
        <ele>2493.4</ele>
        <time>2024-08-12T12:47:58Z</time>
      </trkpt>
      <trkpt lat="44.77657" lon="6.29827">
        <ele>2493.2</ele>
        <time>2024-08-12T12:47:59Z</time>
      </trkpt>
      <trkpt lat="44.77657" lon="6.29827">
        <ele>2493.2</ele>
        <time>2024-08-12T12:48:00Z</time>
      </trkpt>
      <trkpt lat="44.77659" lon="6.29824">
        <ele>2493.4</ele>
        <time>2024-08-12T12:48:01Z</time>
      </trkpt>
      <trkpt lat="44.77659" lon="6.29824">
        <ele>2493.6</ele>
        <time>2024-08-12T12:48:02Z</time>
      </trkpt>
      <trkpt lat="44.77659" lon="6.2982">
        <ele>2493.6</ele>
        <time>2024-08-12T12:48:03Z</time>
      </trkpt>
      <trkpt lat="44.77659" lon="6.2982">
        <ele>2493.2</ele>
        <time>2024-08-12T12:48:04Z</time>
      </trkpt>
      <trkpt lat="44.7766" lon="6.29817">
        <ele>2493</ele>
        <time>2024-08-12T12:48:05Z</time>
      </trkpt>
      <trkpt lat="44.7766" lon="6.29817">
        <ele>2493</ele>
        <time>2024-08-12T12:48:06Z</time>
      </trkpt>
      <trkpt lat="44.7766" lon="6.29813">
        <ele>2493</ele>
        <time>2024-08-12T12:48:07Z</time>
      </trkpt>
      <trkpt lat="44.7766" lon="6.29813">
        <ele>2493</ele>
        <time>2024-08-12T12:48:08Z</time>
      </trkpt>
      <trkpt lat="44.7766" lon="6.29809">
        <ele>2492.6</ele>
        <time>2024-08-12T12:48:09Z</time>
      </trkpt>
      <trkpt lat="44.7766" lon="6.29809">
        <ele>2492.6</ele>
        <time>2024-08-12T12:48:10Z</time>
      </trkpt>
      <trkpt lat="44.77661" lon="6.29805">
        <ele>2492.4</ele>
        <time>2024-08-12T12:48:11Z</time>
      </trkpt>
      <trkpt lat="44.77661" lon="6.29805">
        <ele>2492.2</ele>
        <time>2024-08-12T12:48:12Z</time>
      </trkpt>
      <trkpt lat="44.77661" lon="6.29802">
        <ele>2492.2</ele>
        <time>2024-08-12T12:48:13Z</time>
      </trkpt>
      <trkpt lat="44.77661" lon="6.29802">
        <ele>2492.2</ele>
        <time>2024-08-12T12:48:14Z</time>
      </trkpt>
      <trkpt lat="44.77661" lon="6.29798">
        <ele>2492</ele>
        <time>2024-08-12T12:48:15Z</time>
      </trkpt>
      <trkpt lat="44.77661" lon="6.29798">
        <ele>2491.8</ele>
        <time>2024-08-12T12:48:16Z</time>
      </trkpt>
      <trkpt lat="44.77661" lon="6.29795">
        <ele>2492</ele>
        <time>2024-08-12T12:48:17Z</time>
      </trkpt>
      <trkpt lat="44.77661" lon="6.29795">
        <ele>2492.2</ele>
        <time>2024-08-12T12:48:18Z</time>
      </trkpt>
      <trkpt lat="44.77663" lon="6.29791">
        <ele>2492.2</ele>
        <time>2024-08-12T12:48:19Z</time>
      </trkpt>
      <trkpt lat="44.77663" lon="6.29791">
        <ele>2492.2</ele>
        <time>2024-08-12T12:48:20Z</time>
      </trkpt>
      <trkpt lat="44.77663" lon="6.29788">
        <ele>2492.2</ele>
        <time>2024-08-12T12:48:21Z</time>
      </trkpt>
      <trkpt lat="44.77663" lon="6.29788">
        <ele>2492.2</ele>
        <time>2024-08-12T12:48:22Z</time>
      </trkpt>
      <trkpt lat="44.77665" lon="6.29785">
        <ele>2492.2</ele>
        <time>2024-08-12T12:48:23Z</time>
      </trkpt>
      <trkpt lat="44.77665" lon="6.29785">
        <ele>2492.6</ele>
        <time>2024-08-12T12:48:24Z</time>
      </trkpt>
      <trkpt lat="44.77666" lon="6.29782">
        <ele>2492.6</ele>
        <time>2024-08-12T12:48:25Z</time>
      </trkpt>
      <trkpt lat="44.77666" lon="6.29782">
        <ele>2492.6</ele>
        <time>2024-08-12T12:48:26Z</time>
      </trkpt>
      <trkpt lat="44.77667" lon="6.29778">
        <ele>2492.6</ele>
        <time>2024-08-12T12:48:27Z</time>
      </trkpt>
      <trkpt lat="44.77667" lon="6.29778">
        <ele>2492.6</ele>
        <time>2024-08-12T12:48:28Z</time>
      </trkpt>
      <trkpt lat="44.77667" lon="6.29775">
        <ele>2492.8</ele>
        <time>2024-08-12T12:48:29Z</time>
      </trkpt>
      <trkpt lat="44.77667" lon="6.29775">
        <ele>2492.8</ele>
        <time>2024-08-12T12:48:30Z</time>
      </trkpt>
      <trkpt lat="44.77668" lon="6.29771">
        <ele>2492.6</ele>
        <time>2024-08-12T12:48:31Z</time>
      </trkpt>
      <trkpt lat="44.77668" lon="6.29771">
        <ele>2492.4</ele>
        <time>2024-08-12T12:48:32Z</time>
      </trkpt>
      <trkpt lat="44.77669" lon="6.29768">
        <ele>2492.4</ele>
        <time>2024-08-12T12:48:33Z</time>
      </trkpt>
      <trkpt lat="44.77669" lon="6.29768">
        <ele>2492.4</ele>
        <time>2024-08-12T12:48:34Z</time>
      </trkpt>
      <trkpt lat="44.77669" lon="6.29765">
        <ele>2492.6</ele>
        <time>2024-08-12T12:48:35Z</time>
      </trkpt>
      <trkpt lat="44.77669" lon="6.29765">
        <ele>2492.6</ele>
        <time>2024-08-12T12:48:36Z</time>
      </trkpt>
      <trkpt lat="44.77671" lon="6.29762">
        <ele>2492.6</ele>
        <time>2024-08-12T12:48:37Z</time>
      </trkpt>
      <trkpt lat="44.77671" lon="6.29762">
        <ele>2492.6</ele>
        <time>2024-08-12T12:48:38Z</time>
      </trkpt>
      <trkpt lat="44.77672" lon="6.29758">
        <ele>2492.6</ele>
        <time>2024-08-12T12:48:39Z</time>
      </trkpt>
      <trkpt lat="44.77672" lon="6.29758">
        <ele>2492.4</ele>
        <time>2024-08-12T12:48:40Z</time>
      </trkpt>
      <trkpt lat="44.77673" lon="6.29755">
        <ele>2492.4</ele>
        <time>2024-08-12T12:48:41Z</time>
      </trkpt>
      <trkpt lat="44.77673" lon="6.29755">
        <ele>2492.4</ele>
        <time>2024-08-12T12:48:42Z</time>
      </trkpt>
      <trkpt lat="44.77674" lon="6.29752">
        <ele>2492.4</ele>
        <time>2024-08-12T12:48:43Z</time>
      </trkpt>
      <trkpt lat="44.77674" lon="6.29752">
        <ele>2492.4</ele>
        <time>2024-08-12T12:48:44Z</time>
      </trkpt>
      <trkpt lat="44.77675" lon="6.29748">
        <ele>2492.4</ele>
        <time>2024-08-12T12:48:45Z</time>
      </trkpt>
      <trkpt lat="44.77675" lon="6.29748">
        <ele>2492.4</ele>
        <time>2024-08-12T12:48:46Z</time>
      </trkpt>
      <trkpt lat="44.77676" lon="6.29745">
        <ele>2492.6</ele>
        <time>2024-08-12T12:48:47Z</time>
      </trkpt>
      <trkpt lat="44.77676" lon="6.29745">
        <ele>2492.4</ele>
        <time>2024-08-12T12:48:48Z</time>
      </trkpt>
      <trkpt lat="44.77677" lon="6.29741">
        <ele>2492.4</ele>
        <time>2024-08-12T12:48:49Z</time>
      </trkpt>
      <trkpt lat="44.77677" lon="6.29741">
        <ele>2492.2</ele>
        <time>2024-08-12T12:48:50Z</time>
      </trkpt>
      <trkpt lat="44.77678" lon="6.29738">
        <ele>2492.2</ele>
        <time>2024-08-12T12:48:51Z</time>
      </trkpt>
      <trkpt lat="44.77678" lon="6.29738">
        <ele>2492.2</ele>
        <time>2024-08-12T12:48:52Z</time>
      </trkpt>
      <trkpt lat="44.77679" lon="6.29735">
        <ele>2492.6</ele>
        <time>2024-08-12T12:48:53Z</time>
      </trkpt>
      <trkpt lat="44.77679" lon="6.29735">
        <ele>2492.6</ele>
        <time>2024-08-12T12:48:54Z</time>
      </trkpt>
      <trkpt lat="44.77679" lon="6.29732">
        <ele>2492.8</ele>
        <time>2024-08-12T12:48:55Z</time>
      </trkpt>
      <trkpt lat="44.77679" lon="6.29732">
        <ele>2492.8</ele>
        <time>2024-08-12T12:48:56Z</time>
      </trkpt>
      <trkpt lat="44.7768" lon="6.29728">
        <ele>2493</ele>
        <time>2024-08-12T12:48:57Z</time>
      </trkpt>
      <trkpt lat="44.7768" lon="6.29728">
        <ele>2493.2</ele>
        <time>2024-08-12T12:48:58Z</time>
      </trkpt>
      <trkpt lat="44.7768" lon="6.29725">
        <ele>2493.2</ele>
        <time>2024-08-12T12:48:59Z</time>
      </trkpt>
      <trkpt lat="44.7768" lon="6.29725">
        <ele>2493.2</ele>
        <time>2024-08-12T12:49:00Z</time>
      </trkpt>
      <trkpt lat="44.77681" lon="6.29722">
        <ele>2493.4</ele>
        <time>2024-08-12T12:49:01Z</time>
      </trkpt>
      <trkpt lat="44.77681" lon="6.29722">
        <ele>2493.6</ele>
        <time>2024-08-12T12:49:02Z</time>
      </trkpt>
      <trkpt lat="44.77681" lon="6.29719">
        <ele>2493.6</ele>
        <time>2024-08-12T12:49:03Z</time>
      </trkpt>
      <trkpt lat="44.77681" lon="6.29719">
        <ele>2493.6</ele>
        <time>2024-08-12T12:49:04Z</time>
      </trkpt>
      <trkpt lat="44.77681" lon="6.29715">
        <ele>2493.6</ele>
        <time>2024-08-12T12:49:05Z</time>
      </trkpt>
      <trkpt lat="44.77681" lon="6.29715">
        <ele>2493.8</ele>
        <time>2024-08-12T12:49:06Z</time>
      </trkpt>
      <trkpt lat="44.77682" lon="6.29712">
        <ele>2493.8</ele>
        <time>2024-08-12T12:49:07Z</time>
      </trkpt>
      <trkpt lat="44.77682" lon="6.29712">
        <ele>2493.8</ele>
        <time>2024-08-12T12:49:08Z</time>
      </trkpt>
      <trkpt lat="44.77683" lon="6.29709">
        <ele>2494</ele>
        <time>2024-08-12T12:49:09Z</time>
      </trkpt>
      <trkpt lat="44.77683" lon="6.29709">
        <ele>2494</ele>
        <time>2024-08-12T12:49:10Z</time>
      </trkpt>
      <trkpt lat="44.77684" lon="6.29705">
        <ele>2494</ele>
        <time>2024-08-12T12:49:11Z</time>
      </trkpt>
      <trkpt lat="44.77684" lon="6.29705">
        <ele>2493.8</ele>
        <time>2024-08-12T12:49:12Z</time>
      </trkpt>
      <trkpt lat="44.77685" lon="6.29702">
        <ele>2493.6</ele>
        <time>2024-08-12T12:49:13Z</time>
      </trkpt>
      <trkpt lat="44.77685" lon="6.29702">
        <ele>2493.8</ele>
        <time>2024-08-12T12:49:14Z</time>
      </trkpt>
      <trkpt lat="44.77685" lon="6.29698">
        <ele>2493.8</ele>
        <time>2024-08-12T12:49:15Z</time>
      </trkpt>
      <trkpt lat="44.77685" lon="6.29698">
        <ele>2493.8</ele>
        <time>2024-08-12T12:49:16Z</time>
      </trkpt>
      <trkpt lat="44.77686" lon="6.29695">
        <ele>2493.6</ele>
        <time>2024-08-12T12:49:17Z</time>
      </trkpt>
      <trkpt lat="44.77686" lon="6.29695">
        <ele>2493.6</ele>
        <time>2024-08-12T12:49:18Z</time>
      </trkpt>
      <trkpt lat="44.77687" lon="6.29692">
        <ele>2493.6</ele>
        <time>2024-08-12T12:49:19Z</time>
      </trkpt>
      <trkpt lat="44.77687" lon="6.29692">
        <ele>2493.4</ele>
        <time>2024-08-12T12:49:20Z</time>
      </trkpt>
      <trkpt lat="44.77687" lon="6.29689">
        <ele>2493.4</ele>
        <time>2024-08-12T12:49:21Z</time>
      </trkpt>
      <trkpt lat="44.77687" lon="6.29689">
        <ele>2493.4</ele>
        <time>2024-08-12T12:49:22Z</time>
      </trkpt>
      <trkpt lat="44.77687" lon="6.29689">
        <ele>2493.4</ele>
        <time>2024-08-12T12:49:23Z</time>
      </trkpt>
      <trkpt lat="44.77688" lon="6.29685">
        <ele>2493.6</ele>
        <time>2024-08-12T12:49:24Z</time>
      </trkpt>
      <trkpt lat="44.77688" lon="6.29685">
        <ele>2493.6</ele>
        <time>2024-08-12T12:49:25Z</time>
      </trkpt>
      <trkpt lat="44.77688" lon="6.29681">
        <ele>2493.6</ele>
        <time>2024-08-12T12:49:26Z</time>
      </trkpt>
      <trkpt lat="44.77688" lon="6.29681">
        <ele>2492.8</ele>
        <time>2024-08-12T12:49:27Z</time>
      </trkpt>
      <trkpt lat="44.77689" lon="6.29677">
        <ele>2492.8</ele>
        <time>2024-08-12T12:49:28Z</time>
      </trkpt>
      <trkpt lat="44.77689" lon="6.29677">
        <ele>2492.8</ele>
        <time>2024-08-12T12:49:29Z</time>
      </trkpt>
      <trkpt lat="44.77691" lon="6.29674">
        <ele>2492.8</ele>
        <time>2024-08-12T12:49:30Z</time>
      </trkpt>
      <trkpt lat="44.77691" lon="6.29674">
        <ele>2492.8</ele>
        <time>2024-08-12T12:49:31Z</time>
      </trkpt>
      <trkpt lat="44.77691" lon="6.29674">
        <ele>2492.8</ele>
        <time>2024-08-12T12:49:32Z</time>
      </trkpt>
      <trkpt lat="44.77691" lon="6.29671">
        <ele>2492.8</ele>
        <time>2024-08-12T12:49:33Z</time>
      </trkpt>
      <trkpt lat="44.77691" lon="6.29671">
        <ele>2492.8</ele>
        <time>2024-08-12T12:49:34Z</time>
      </trkpt>
      <trkpt lat="44.77691" lon="6.29668">
        <ele>2492.6</ele>
        <time>2024-08-12T12:49:35Z</time>
      </trkpt>
      <trkpt lat="44.77691" lon="6.29668">
        <ele>2492.6</ele>
        <time>2024-08-12T12:49:36Z</time>
      </trkpt>
      <trkpt lat="44.77691" lon="6.29665">
        <ele>2492.8</ele>
        <time>2024-08-12T12:49:37Z</time>
      </trkpt>
      <trkpt lat="44.77691" lon="6.29665">
        <ele>2492.8</ele>
        <time>2024-08-12T12:49:38Z</time>
      </trkpt>
      <trkpt lat="44.77691" lon="6.29665">
        <ele>2493</ele>
        <time>2024-08-12T12:49:39Z</time>
      </trkpt>
      <trkpt lat="44.77691" lon="6.29665">
        <ele>2493</ele>
        <time>2024-08-12T12:49:40Z</time>
      </trkpt>
      <trkpt lat="44.77691" lon="6.29665">
        <ele>2493</ele>
        <time>2024-08-12T12:49:41Z</time>
      </trkpt>
      <trkpt lat="44.77691" lon="6.29665">
        <ele>2493.4</ele>
        <time>2024-08-12T12:49:42Z</time>
      </trkpt>
      <trkpt lat="44.77691" lon="6.29665">
        <ele>2493.6</ele>
        <time>2024-08-12T12:49:43Z</time>
      </trkpt>
      <trkpt lat="44.77691" lon="6.29665">
        <ele>2493.8</ele>
        <time>2024-08-12T12:49:44Z</time>
      </trkpt>
      <trkpt lat="44.77691" lon="6.29665">
        <ele>2493.8</ele>
        <time>2024-08-12T12:49:45Z</time>
      </trkpt>
      <trkpt lat="44.77691" lon="6.29665">
        <ele>2493.8</ele>
        <time>2024-08-12T12:49:46Z</time>
      </trkpt>
      <trkpt lat="44.77691" lon="6.29665">
        <ele>2493.8</ele>
        <time>2024-08-12T12:49:47Z</time>
      </trkpt>
      <trkpt lat="44.77691" lon="6.29665">
        <ele>2493.4</ele>
        <time>2024-08-12T12:49:48Z</time>
      </trkpt>
      <trkpt lat="44.77691" lon="6.29665">
        <ele>2493</ele>
        <time>2024-08-12T12:49:49Z</time>
      </trkpt>
      <trkpt lat="44.77691" lon="6.29665">
        <ele>2493</ele>
        <time>2024-08-12T12:49:50Z</time>
      </trkpt>
      <trkpt lat="44.77692" lon="6.29662">
        <ele>2493.4</ele>
        <time>2024-08-12T12:49:51Z</time>
      </trkpt>
      <trkpt lat="44.77692" lon="6.29662">
        <ele>2493.4</ele>
        <time>2024-08-12T12:49:52Z</time>
      </trkpt>
      <trkpt lat="44.77692" lon="6.29659">
        <ele>2493.6</ele>
        <time>2024-08-12T12:49:53Z</time>
      </trkpt>
      <trkpt lat="44.77692" lon="6.29659">
        <ele>2494</ele>
        <time>2024-08-12T12:49:54Z</time>
      </trkpt>
      <trkpt lat="44.77693" lon="6.29655">
        <ele>2494.6</ele>
        <time>2024-08-12T12:49:55Z</time>
      </trkpt>
      <trkpt lat="44.77693" lon="6.29655">
        <ele>2495.4</ele>
        <time>2024-08-12T12:49:56Z</time>
      </trkpt>
      <trkpt lat="44.77694" lon="6.29652">
        <ele>2496</ele>
        <time>2024-08-12T12:49:57Z</time>
      </trkpt>
      <trkpt lat="44.77694" lon="6.29652">
        <ele>2496.6</ele>
        <time>2024-08-12T12:49:58Z</time>
      </trkpt>
      <trkpt lat="44.77695" lon="6.2965">
        <ele>2497.2</ele>
        <time>2024-08-12T12:49:59Z</time>
      </trkpt>
      <trkpt lat="44.77695" lon="6.2965">
        <ele>2497.4</ele>
        <time>2024-08-12T12:50:00Z</time>
      </trkpt>
      <trkpt lat="44.77696" lon="6.29647">
        <ele>2497.6</ele>
        <time>2024-08-12T12:50:01Z</time>
      </trkpt>
      <trkpt lat="44.77696" lon="6.29647">
        <ele>2497.8</ele>
        <time>2024-08-12T12:50:02Z</time>
      </trkpt>
      <trkpt lat="44.77697" lon="6.29643">
        <ele>2498</ele>
        <time>2024-08-12T12:50:03Z</time>
      </trkpt>
      <trkpt lat="44.77697" lon="6.29643">
        <ele>2498</ele>
        <time>2024-08-12T12:50:04Z</time>
      </trkpt>
      <trkpt lat="44.77698" lon="6.2964">
        <ele>2497.8</ele>
        <time>2024-08-12T12:50:05Z</time>
      </trkpt>
      <trkpt lat="44.77698" lon="6.2964">
        <ele>2497.8</ele>
        <time>2024-08-12T12:50:06Z</time>
      </trkpt>
      <trkpt lat="44.77697" lon="6.29637">
        <ele>2497.8</ele>
        <time>2024-08-12T12:50:07Z</time>
      </trkpt>
      <trkpt lat="44.77697" lon="6.29637">
        <ele>2497.8</ele>
        <time>2024-08-12T12:50:08Z</time>
      </trkpt>
      <trkpt lat="44.77697" lon="6.29633">
        <ele>2497.8</ele>
        <time>2024-08-12T12:50:09Z</time>
      </trkpt>
      <trkpt lat="44.77697" lon="6.29633">
        <ele>2497.8</ele>
        <time>2024-08-12T12:50:10Z</time>
      </trkpt>
      <trkpt lat="44.77697" lon="6.2963">
        <ele>2497.8</ele>
        <time>2024-08-12T12:50:11Z</time>
      </trkpt>
      <trkpt lat="44.77697" lon="6.2963">
        <ele>2497.8</ele>
        <time>2024-08-12T12:50:12Z</time>
      </trkpt>
      <trkpt lat="44.77697" lon="6.29626">
        <ele>2497.8</ele>
        <time>2024-08-12T12:50:13Z</time>
      </trkpt>
      <trkpt lat="44.77697" lon="6.29626">
        <ele>2497.8</ele>
        <time>2024-08-12T12:50:14Z</time>
      </trkpt>
      <trkpt lat="44.77697" lon="6.29623">
        <ele>2498.2</ele>
        <time>2024-08-12T12:50:15Z</time>
      </trkpt>
      <trkpt lat="44.77697" lon="6.29623">
        <ele>2498.2</ele>
        <time>2024-08-12T12:50:16Z</time>
      </trkpt>
      <trkpt lat="44.77696" lon="6.2962">
        <ele>2498.2</ele>
        <time>2024-08-12T12:50:17Z</time>
      </trkpt>
      <trkpt lat="44.77696" lon="6.2962">
        <ele>2498.6</ele>
        <time>2024-08-12T12:50:18Z</time>
      </trkpt>
      <trkpt lat="44.77696" lon="6.29617">
        <ele>2498.6</ele>
        <time>2024-08-12T12:50:19Z</time>
      </trkpt>
      <trkpt lat="44.77696" lon="6.29617">
        <ele>2498.6</ele>
        <time>2024-08-12T12:50:20Z</time>
      </trkpt>
      <trkpt lat="44.77696" lon="6.29614">
        <ele>2498.8</ele>
        <time>2024-08-12T12:50:21Z</time>
      </trkpt>
      <trkpt lat="44.77696" lon="6.29614">
        <ele>2498.8</ele>
        <time>2024-08-12T12:50:22Z</time>
      </trkpt>
      <trkpt lat="44.77697" lon="6.29611">
        <ele>2499</ele>
        <time>2024-08-12T12:50:23Z</time>
      </trkpt>
      <trkpt lat="44.77697" lon="6.29611">
        <ele>2499.2</ele>
        <time>2024-08-12T12:50:24Z</time>
      </trkpt>
      <trkpt lat="44.77698" lon="6.29608">
        <ele>2499.2</ele>
        <time>2024-08-12T12:50:25Z</time>
      </trkpt>
      <trkpt lat="44.77698" lon="6.29608">
        <ele>2499.6</ele>
        <time>2024-08-12T12:50:26Z</time>
      </trkpt>
      <trkpt lat="44.777" lon="6.29606">
        <ele>2499.8</ele>
        <time>2024-08-12T12:50:27Z</time>
      </trkpt>
      <trkpt lat="44.777" lon="6.29606">
        <ele>2499.8</ele>
        <time>2024-08-12T12:50:28Z</time>
      </trkpt>
      <trkpt lat="44.777" lon="6.29606">
        <ele>2499.8</ele>
        <time>2024-08-12T12:50:29Z</time>
      </trkpt>
      <trkpt lat="44.777" lon="6.29602">
        <ele>2499.8</ele>
        <time>2024-08-12T12:50:30Z</time>
      </trkpt>
      <trkpt lat="44.777" lon="6.29602">
        <ele>2499.8</ele>
        <time>2024-08-12T12:50:31Z</time>
      </trkpt>
      <trkpt lat="44.777" lon="6.296">
        <ele>2499.6</ele>
        <time>2024-08-12T12:50:32Z</time>
      </trkpt>
      <trkpt lat="44.777" lon="6.296">
        <ele>2499.6</ele>
        <time>2024-08-12T12:50:33Z</time>
      </trkpt>
      <trkpt lat="44.77701" lon="6.29596">
        <ele>2499.8</ele>
        <time>2024-08-12T12:50:34Z</time>
      </trkpt>
      <trkpt lat="44.77701" lon="6.29596">
        <ele>2500</ele>
        <time>2024-08-12T12:50:35Z</time>
      </trkpt>
      <trkpt lat="44.77701" lon="6.29592">
        <ele>2500.2</ele>
        <time>2024-08-12T12:50:36Z</time>
      </trkpt>
      <trkpt lat="44.77701" lon="6.29592">
        <ele>2500.2</ele>
        <time>2024-08-12T12:50:37Z</time>
      </trkpt>
      <trkpt lat="44.77701" lon="6.29589">
        <ele>2500.2</ele>
        <time>2024-08-12T12:50:38Z</time>
      </trkpt>
      <trkpt lat="44.77701" lon="6.29589">
        <ele>2499.8</ele>
        <time>2024-08-12T12:50:39Z</time>
      </trkpt>
      <trkpt lat="44.77703" lon="6.29586">
        <ele>2499.8</ele>
        <time>2024-08-12T12:50:40Z</time>
      </trkpt>
      <trkpt lat="44.77703" lon="6.29586">
        <ele>2499.6</ele>
        <time>2024-08-12T12:50:41Z</time>
      </trkpt>
      <trkpt lat="44.77703" lon="6.29583">
        <ele>2499.6</ele>
        <time>2024-08-12T12:50:42Z</time>
      </trkpt>
      <trkpt lat="44.77703" lon="6.29583">
        <ele>2499.6</ele>
        <time>2024-08-12T12:50:43Z</time>
      </trkpt>
      <trkpt lat="44.77703" lon="6.29583">
        <ele>2499.8</ele>
        <time>2024-08-12T12:50:44Z</time>
      </trkpt>
      <trkpt lat="44.77703" lon="6.2958">
        <ele>2499.6</ele>
        <time>2024-08-12T12:50:45Z</time>
      </trkpt>
      <trkpt lat="44.77703" lon="6.2958">
        <ele>2499.6</ele>
        <time>2024-08-12T12:50:46Z</time>
      </trkpt>
      <trkpt lat="44.77704" lon="6.29577">
        <ele>2499.6</ele>
        <time>2024-08-12T12:50:47Z</time>
      </trkpt>
      <trkpt lat="44.77704" lon="6.29577">
        <ele>2499.8</ele>
        <time>2024-08-12T12:50:48Z</time>
      </trkpt>
      <trkpt lat="44.77705" lon="6.29574">
        <ele>2500</ele>
        <time>2024-08-12T12:50:49Z</time>
      </trkpt>
      <trkpt lat="44.77705" lon="6.29574">
        <ele>2500</ele>
        <time>2024-08-12T12:50:50Z</time>
      </trkpt>
      <trkpt lat="44.77706" lon="6.29571">
        <ele>2500</ele>
        <time>2024-08-12T12:50:51Z</time>
      </trkpt>
      <trkpt lat="44.77706" lon="6.29571">
        <ele>2499.8</ele>
        <time>2024-08-12T12:50:52Z</time>
      </trkpt>
      <trkpt lat="44.77706" lon="6.29568">
        <ele>2499.8</ele>
        <time>2024-08-12T12:50:53Z</time>
      </trkpt>
      <trkpt lat="44.77706" lon="6.29568">
        <ele>2499.8</ele>
        <time>2024-08-12T12:50:54Z</time>
      </trkpt>
      <trkpt lat="44.77707" lon="6.29564">
        <ele>2500.4</ele>
        <time>2024-08-12T12:50:55Z</time>
      </trkpt>
      <trkpt lat="44.77707" lon="6.29564">
        <ele>2500.4</ele>
        <time>2024-08-12T12:50:56Z</time>
      </trkpt>
      <trkpt lat="44.77707" lon="6.29561">
        <ele>2500.2</ele>
        <time>2024-08-12T12:50:57Z</time>
      </trkpt>
      <trkpt lat="44.77707" lon="6.29561">
        <ele>2500</ele>
        <time>2024-08-12T12:50:58Z</time>
      </trkpt>
      <trkpt lat="44.77709" lon="6.29557">
        <ele>2500</ele>
        <time>2024-08-12T12:50:59Z</time>
      </trkpt>
      <trkpt lat="44.77709" lon="6.29557">
        <ele>2499.8</ele>
        <time>2024-08-12T12:51:00Z</time>
      </trkpt>
      <trkpt lat="44.77709" lon="6.29553">
        <ele>2499.6</ele>
        <time>2024-08-12T12:51:01Z</time>
      </trkpt>
      <trkpt lat="44.77709" lon="6.29553">
        <ele>2499.4</ele>
        <time>2024-08-12T12:51:02Z</time>
      </trkpt>
      <trkpt lat="44.7771" lon="6.2955">
        <ele>2499.2</ele>
        <time>2024-08-12T12:51:03Z</time>
      </trkpt>
      <trkpt lat="44.7771" lon="6.2955">
        <ele>2499.2</ele>
        <time>2024-08-12T12:51:04Z</time>
      </trkpt>
      <trkpt lat="44.77711" lon="6.29547">
        <ele>2499.6</ele>
        <time>2024-08-12T12:51:05Z</time>
      </trkpt>
      <trkpt lat="44.77711" lon="6.29547">
        <ele>2499.8</ele>
        <time>2024-08-12T12:51:06Z</time>
      </trkpt>
      <trkpt lat="44.77713" lon="6.29545">
        <ele>2500.2</ele>
        <time>2024-08-12T12:51:07Z</time>
      </trkpt>
      <trkpt lat="44.77713" lon="6.29545">
        <ele>2501</ele>
        <time>2024-08-12T12:51:08Z</time>
      </trkpt>
      <trkpt lat="44.77714" lon="6.29542">
        <ele>2501</ele>
        <time>2024-08-12T12:51:09Z</time>
      </trkpt>
      <trkpt lat="44.77714" lon="6.29542">
        <ele>2500.4</ele>
        <time>2024-08-12T12:51:10Z</time>
      </trkpt>
      <trkpt lat="44.77715" lon="6.29539">
        <ele>2498.2</ele>
        <time>2024-08-12T12:51:11Z</time>
      </trkpt>
      <trkpt lat="44.77715" lon="6.29539">
        <ele>2498</ele>
        <time>2024-08-12T12:51:12Z</time>
      </trkpt>
      <trkpt lat="44.77716" lon="6.29536">
        <ele>2498</ele>
        <time>2024-08-12T12:51:13Z</time>
      </trkpt>
      <trkpt lat="44.77716" lon="6.29536">
        <ele>2498.2</ele>
        <time>2024-08-12T12:51:14Z</time>
      </trkpt>
      <trkpt lat="44.77717" lon="6.29533">
        <ele>2499.2</ele>
        <time>2024-08-12T12:51:15Z</time>
      </trkpt>
      <trkpt lat="44.77717" lon="6.29533">
        <ele>2499.2</ele>
        <time>2024-08-12T12:51:16Z</time>
      </trkpt>
      <trkpt lat="44.77717" lon="6.29531">
        <ele>2499.2</ele>
        <time>2024-08-12T12:51:17Z</time>
      </trkpt>
      <trkpt lat="44.77717" lon="6.29531">
        <ele>2499.2</ele>
        <time>2024-08-12T12:51:18Z</time>
      </trkpt>
      <trkpt lat="44.77717" lon="6.29528">
        <ele>2498.2</ele>
        <time>2024-08-12T12:51:19Z</time>
      </trkpt>
      <trkpt lat="44.77717" lon="6.29528">
        <ele>2497</ele>
        <time>2024-08-12T12:51:20Z</time>
      </trkpt>
      <trkpt lat="44.77717" lon="6.29524">
        <ele>2497</ele>
        <time>2024-08-12T12:51:21Z</time>
      </trkpt>
      <trkpt lat="44.77717" lon="6.29524">
        <ele>2497.6</ele>
        <time>2024-08-12T12:51:22Z</time>
      </trkpt>
      <trkpt lat="44.77717" lon="6.29524">
        <ele>2498.4</ele>
        <time>2024-08-12T12:51:23Z</time>
      </trkpt>
      <trkpt lat="44.77717" lon="6.2952">
        <ele>2498.8</ele>
        <time>2024-08-12T12:51:24Z</time>
      </trkpt>
      <trkpt lat="44.77717" lon="6.2952">
        <ele>2499.4</ele>
        <time>2024-08-12T12:51:25Z</time>
      </trkpt>
      <trkpt lat="44.77716" lon="6.29518">
        <ele>2499.4</ele>
        <time>2024-08-12T12:51:26Z</time>
      </trkpt>
      <trkpt lat="44.77716" lon="6.29518">
        <ele>2499</ele>
        <time>2024-08-12T12:51:27Z</time>
      </trkpt>
      <trkpt lat="44.77716" lon="6.29518">
        <ele>2499</ele>
        <time>2024-08-12T12:51:28Z</time>
      </trkpt>
      <trkpt lat="44.77716" lon="6.29515">
        <ele>2499</ele>
        <time>2024-08-12T12:51:29Z</time>
      </trkpt>
      <trkpt lat="44.77716" lon="6.29515">
        <ele>2499</ele>
        <time>2024-08-12T12:51:30Z</time>
      </trkpt>
      <trkpt lat="44.77716" lon="6.29515">
        <ele>2499.2</ele>
        <time>2024-08-12T12:51:31Z</time>
      </trkpt>
      <trkpt lat="44.77715" lon="6.29513">
        <ele>2499.4</ele>
        <time>2024-08-12T12:51:32Z</time>
      </trkpt>
      <trkpt lat="44.77715" lon="6.29513">
        <ele>2499.6</ele>
        <time>2024-08-12T12:51:33Z</time>
      </trkpt>
      <trkpt lat="44.77715" lon="6.29513">
        <ele>2499.8</ele>
        <time>2024-08-12T12:51:34Z</time>
      </trkpt>
      <trkpt lat="44.77715" lon="6.2951">
        <ele>2499.8</ele>
        <time>2024-08-12T12:51:35Z</time>
      </trkpt>
      <trkpt lat="44.77715" lon="6.2951">
        <ele>2500.2</ele>
        <time>2024-08-12T12:51:36Z</time>
      </trkpt>
      <trkpt lat="44.77715" lon="6.2951">
        <ele>2500.8</ele>
        <time>2024-08-12T12:51:37Z</time>
      </trkpt>
      <trkpt lat="44.77715" lon="6.29507">
        <ele>2500.8</ele>
        <time>2024-08-12T12:51:38Z</time>
      </trkpt>
      <trkpt lat="44.77715" lon="6.29507">
        <ele>2501.2</ele>
        <time>2024-08-12T12:51:39Z</time>
      </trkpt>
      <trkpt lat="44.77715" lon="6.29507">
        <ele>2501.6</ele>
        <time>2024-08-12T12:51:40Z</time>
      </trkpt>
      <trkpt lat="44.77715" lon="6.29504">
        <ele>2501.8</ele>
        <time>2024-08-12T12:51:41Z</time>
      </trkpt>
      <trkpt lat="44.77715" lon="6.29504">
        <ele>2502</ele>
        <time>2024-08-12T12:51:42Z</time>
      </trkpt>
      <trkpt lat="44.77715" lon="6.29504">
        <ele>2502.6</ele>
        <time>2024-08-12T12:51:43Z</time>
      </trkpt>
      <trkpt lat="44.77714" lon="6.29501">
        <ele>2502.8</ele>
        <time>2024-08-12T12:51:44Z</time>
      </trkpt>
      <trkpt lat="44.77714" lon="6.29501">
        <ele>2503.2</ele>
        <time>2024-08-12T12:51:45Z</time>
      </trkpt>
      <trkpt lat="44.77715" lon="6.29498">
        <ele>2504</ele>
        <time>2024-08-12T12:51:46Z</time>
      </trkpt>
      <trkpt lat="44.77715" lon="6.29498">
        <ele>2504.4</ele>
        <time>2024-08-12T12:51:47Z</time>
      </trkpt>
      <trkpt lat="44.77716" lon="6.29495">
        <ele>2504.4</ele>
        <time>2024-08-12T12:51:48Z</time>
      </trkpt>
      <trkpt lat="44.77716" lon="6.29495">
        <ele>2504.4</ele>
        <time>2024-08-12T12:51:49Z</time>
      </trkpt>
      <trkpt lat="44.77716" lon="6.29492">
        <ele>2504.4</ele>
        <time>2024-08-12T12:51:50Z</time>
      </trkpt>
      <trkpt lat="44.77716" lon="6.29492">
        <ele>2504.8</ele>
        <time>2024-08-12T12:51:51Z</time>
      </trkpt>
      <trkpt lat="44.77716" lon="6.2949">
        <ele>2505</ele>
        <time>2024-08-12T12:51:52Z</time>
      </trkpt>
      <trkpt lat="44.77716" lon="6.2949">
        <ele>2505.2</ele>
        <time>2024-08-12T12:51:53Z</time>
      </trkpt>
      <trkpt lat="44.77716" lon="6.2949">
        <ele>2505.2</ele>
        <time>2024-08-12T12:51:54Z</time>
      </trkpt>
      <trkpt lat="44.77716" lon="6.29486">
        <ele>2505.4</ele>
        <time>2024-08-12T12:51:55Z</time>
      </trkpt>
      <trkpt lat="44.77716" lon="6.29486">
        <ele>2506</ele>
        <time>2024-08-12T12:51:56Z</time>
      </trkpt>
      <trkpt lat="44.77716" lon="6.29486">
        <ele>2506.2</ele>
        <time>2024-08-12T12:51:57Z</time>
      </trkpt>
      <trkpt lat="44.77715" lon="6.29483">
        <ele>2506.4</ele>
        <time>2024-08-12T12:51:58Z</time>
      </trkpt>
      <trkpt lat="44.77715" lon="6.29483">
        <ele>2506.4</ele>
        <time>2024-08-12T12:51:59Z</time>
      </trkpt>
      <trkpt lat="44.77715" lon="6.29483">
        <ele>2506.8</ele>
        <time>2024-08-12T12:52:00Z</time>
      </trkpt>
      <trkpt lat="44.77715" lon="6.29479">
        <ele>2507.2</ele>
        <time>2024-08-12T12:52:01Z</time>
      </trkpt>
      <trkpt lat="44.77715" lon="6.29479">
        <ele>2507.6</ele>
        <time>2024-08-12T12:52:02Z</time>
      </trkpt>
      <trkpt lat="44.77715" lon="6.29476">
        <ele>2507.6</ele>
        <time>2024-08-12T12:52:03Z</time>
      </trkpt>
      <trkpt lat="44.77715" lon="6.29476">
        <ele>2507.6</ele>
        <time>2024-08-12T12:52:04Z</time>
      </trkpt>
      <trkpt lat="44.77714" lon="6.29474">
        <ele>2507.8</ele>
        <time>2024-08-12T12:52:05Z</time>
      </trkpt>
      <trkpt lat="44.77714" lon="6.29474">
        <ele>2508.2</ele>
        <time>2024-08-12T12:52:06Z</time>
      </trkpt>
      <trkpt lat="44.77714" lon="6.29474">
        <ele>2508.6</ele>
        <time>2024-08-12T12:52:07Z</time>
      </trkpt>
      <trkpt lat="44.77714" lon="6.29469">
        <ele>2509</ele>
        <time>2024-08-12T12:52:08Z</time>
      </trkpt>
      <trkpt lat="44.77714" lon="6.29469">
        <ele>2509</ele>
        <time>2024-08-12T12:52:09Z</time>
      </trkpt>
      <trkpt lat="44.77714" lon="6.29467">
        <ele>2509</ele>
        <time>2024-08-12T12:52:10Z</time>
      </trkpt>
      <trkpt lat="44.77714" lon="6.29467">
        <ele>2509</ele>
        <time>2024-08-12T12:52:11Z</time>
      </trkpt>
      <trkpt lat="44.77714" lon="6.29464">
        <ele>2508.8</ele>
        <time>2024-08-12T12:52:12Z</time>
      </trkpt>
      <trkpt lat="44.77714" lon="6.29464">
        <ele>2508.8</ele>
        <time>2024-08-12T12:52:13Z</time>
      </trkpt>
      <trkpt lat="44.77715" lon="6.2946">
        <ele>2509</ele>
        <time>2024-08-12T12:52:14Z</time>
      </trkpt>
      <trkpt lat="44.77715" lon="6.2946">
        <ele>2509</ele>
        <time>2024-08-12T12:52:15Z</time>
      </trkpt>
      <trkpt lat="44.77715" lon="6.29458">
        <ele>2509.2</ele>
        <time>2024-08-12T12:52:16Z</time>
      </trkpt>
      <trkpt lat="44.77715" lon="6.29458">
        <ele>2509</ele>
        <time>2024-08-12T12:52:17Z</time>
      </trkpt>
      <trkpt lat="44.77716" lon="6.29455">
        <ele>2508.8</ele>
        <time>2024-08-12T12:52:18Z</time>
      </trkpt>
      <trkpt lat="44.77716" lon="6.29455">
        <ele>2508.8</ele>
        <time>2024-08-12T12:52:19Z</time>
      </trkpt>
      <trkpt lat="44.77716" lon="6.29455">
        <ele>2509.2</ele>
        <time>2024-08-12T12:52:20Z</time>
      </trkpt>
      <trkpt lat="44.77716" lon="6.29451">
        <ele>2509.4</ele>
        <time>2024-08-12T12:52:21Z</time>
      </trkpt>
      <trkpt lat="44.77716" lon="6.29451">
        <ele>2509.4</ele>
        <time>2024-08-12T12:52:22Z</time>
      </trkpt>
      <trkpt lat="44.77716" lon="6.29451">
        <ele>2509.2</ele>
        <time>2024-08-12T12:52:23Z</time>
      </trkpt>
      <trkpt lat="44.77715" lon="6.29449">
        <ele>2508.8</ele>
        <time>2024-08-12T12:52:24Z</time>
      </trkpt>
      <trkpt lat="44.77715" lon="6.29449">
        <ele>2508.8</ele>
        <time>2024-08-12T12:52:25Z</time>
      </trkpt>
      <trkpt lat="44.77714" lon="6.29446">
        <ele>2509.6</ele>
        <time>2024-08-12T12:52:26Z</time>
      </trkpt>
      <trkpt lat="44.77714" lon="6.29446">
        <ele>2509.6</ele>
        <time>2024-08-12T12:52:27Z</time>
      </trkpt>
      <trkpt lat="44.77714" lon="6.29443">
        <ele>2509.6</ele>
        <time>2024-08-12T12:52:28Z</time>
      </trkpt>
      <trkpt lat="44.77714" lon="6.29443">
        <ele>2509.6</ele>
        <time>2024-08-12T12:52:29Z</time>
      </trkpt>
      <trkpt lat="44.77715" lon="6.29439">
        <ele>2509.8</ele>
        <time>2024-08-12T12:52:30Z</time>
      </trkpt>
      <trkpt lat="44.77715" lon="6.29439">
        <ele>2510.2</ele>
        <time>2024-08-12T12:52:31Z</time>
      </trkpt>
      <trkpt lat="44.77715" lon="6.29435">
        <ele>2510.4</ele>
        <time>2024-08-12T12:52:32Z</time>
      </trkpt>
      <trkpt lat="44.77715" lon="6.29435">
        <ele>2510.4</ele>
        <time>2024-08-12T12:52:33Z</time>
      </trkpt>
      <trkpt lat="44.77715" lon="6.29432">
        <ele>2510.6</ele>
        <time>2024-08-12T12:52:34Z</time>
      </trkpt>
      <trkpt lat="44.77715" lon="6.29432">
        <ele>2510.6</ele>
        <time>2024-08-12T12:52:35Z</time>
      </trkpt>
      <trkpt lat="44.77715" lon="6.29429">
        <ele>2510.4</ele>
        <time>2024-08-12T12:52:36Z</time>
      </trkpt>
      <trkpt lat="44.77715" lon="6.29429">
        <ele>2510.4</ele>
        <time>2024-08-12T12:52:37Z</time>
      </trkpt>
      <trkpt lat="44.77715" lon="6.29426">
        <ele>2510.4</ele>
        <time>2024-08-12T12:52:38Z</time>
      </trkpt>
      <trkpt lat="44.77715" lon="6.29426">
        <ele>2510.6</ele>
        <time>2024-08-12T12:52:39Z</time>
      </trkpt>
      <trkpt lat="44.77715" lon="6.29423">
        <ele>2510.6</ele>
        <time>2024-08-12T12:52:40Z</time>
      </trkpt>
      <trkpt lat="44.77715" lon="6.29423">
        <ele>2510.4</ele>
        <time>2024-08-12T12:52:41Z</time>
      </trkpt>
      <trkpt lat="44.77714" lon="6.2942">
        <ele>2509.8</ele>
        <time>2024-08-12T12:52:42Z</time>
      </trkpt>
      <trkpt lat="44.77714" lon="6.2942">
        <ele>2508.8</ele>
        <time>2024-08-12T12:52:43Z</time>
      </trkpt>
      <trkpt lat="44.77714" lon="6.29417">
        <ele>2508.6</ele>
        <time>2024-08-12T12:52:44Z</time>
      </trkpt>
      <trkpt lat="44.77714" lon="6.29417">
        <ele>2508.6</ele>
        <time>2024-08-12T12:52:45Z</time>
      </trkpt>
      <trkpt lat="44.77714" lon="6.29413">
        <ele>2508.8</ele>
        <time>2024-08-12T12:52:46Z</time>
      </trkpt>
      <trkpt lat="44.77714" lon="6.29413">
        <ele>2509.2</ele>
        <time>2024-08-12T12:52:47Z</time>
      </trkpt>
      <trkpt lat="44.77713" lon="6.2941">
        <ele>2509.2</ele>
        <time>2024-08-12T12:52:48Z</time>
      </trkpt>
      <trkpt lat="44.77713" lon="6.2941">
        <ele>2509.4</ele>
        <time>2024-08-12T12:52:49Z</time>
      </trkpt>
      <trkpt lat="44.77714" lon="6.29407">
        <ele>2509.4</ele>
        <time>2024-08-12T12:52:50Z</time>
      </trkpt>
      <trkpt lat="44.77714" lon="6.29407">
        <ele>2509.4</ele>
        <time>2024-08-12T12:52:51Z</time>
      </trkpt>
      <trkpt lat="44.77713" lon="6.29403">
        <ele>2509.4</ele>
        <time>2024-08-12T12:52:52Z</time>
      </trkpt>
      <trkpt lat="44.77713" lon="6.29403">
        <ele>2508.8</ele>
        <time>2024-08-12T12:52:53Z</time>
      </trkpt>
      <trkpt lat="44.77713" lon="6.29399">
        <ele>2508.8</ele>
        <time>2024-08-12T12:52:54Z</time>
      </trkpt>
      <trkpt lat="44.77713" lon="6.29399">
        <ele>2508.8</ele>
        <time>2024-08-12T12:52:55Z</time>
      </trkpt>
      <trkpt lat="44.77713" lon="6.29395">
        <ele>2508.4</ele>
        <time>2024-08-12T12:52:56Z</time>
      </trkpt>
      <trkpt lat="44.77713" lon="6.29395">
        <ele>2508.4</ele>
        <time>2024-08-12T12:52:57Z</time>
      </trkpt>
      <trkpt lat="44.77713" lon="6.29392">
        <ele>2509.2</ele>
        <time>2024-08-12T12:52:58Z</time>
      </trkpt>
      <trkpt lat="44.77713" lon="6.29392">
        <ele>2509.6</ele>
        <time>2024-08-12T12:52:59Z</time>
      </trkpt>
      <trkpt lat="44.77713" lon="6.29388">
        <ele>2509.8</ele>
        <time>2024-08-12T12:53:00Z</time>
      </trkpt>
      <trkpt lat="44.77713" lon="6.29388">
        <ele>2509.8</ele>
        <time>2024-08-12T12:53:01Z</time>
      </trkpt>
      <trkpt lat="44.77713" lon="6.29384">
        <ele>2509.8</ele>
        <time>2024-08-12T12:53:02Z</time>
      </trkpt>
      <trkpt lat="44.77713" lon="6.29384">
        <ele>2509.8</ele>
        <time>2024-08-12T12:53:03Z</time>
      </trkpt>
      <trkpt lat="44.77713" lon="6.29381">
        <ele>2509.8</ele>
        <time>2024-08-12T12:53:04Z</time>
      </trkpt>
      <trkpt lat="44.77713" lon="6.29381">
        <ele>2509.8</ele>
        <time>2024-08-12T12:53:05Z</time>
      </trkpt>
      <trkpt lat="44.77713" lon="6.29378">
        <ele>2509.8</ele>
        <time>2024-08-12T12:53:06Z</time>
      </trkpt>
      <trkpt lat="44.77713" lon="6.29378">
        <ele>2510</ele>
        <time>2024-08-12T12:53:07Z</time>
      </trkpt>
      <trkpt lat="44.77713" lon="6.29375">
        <ele>2510</ele>
        <time>2024-08-12T12:53:08Z</time>
      </trkpt>
      <trkpt lat="44.77713" lon="6.29375">
        <ele>2510</ele>
        <time>2024-08-12T12:53:09Z</time>
      </trkpt>
      <trkpt lat="44.77713" lon="6.29372">
        <ele>2510.2</ele>
        <time>2024-08-12T12:53:10Z</time>
      </trkpt>
      <trkpt lat="44.77713" lon="6.29372">
        <ele>2510.4</ele>
        <time>2024-08-12T12:53:11Z</time>
      </trkpt>
      <trkpt lat="44.77713" lon="6.29372">
        <ele>2510.8</ele>
        <time>2024-08-12T12:53:12Z</time>
      </trkpt>
      <trkpt lat="44.77713" lon="6.29369">
        <ele>2510.8</ele>
        <time>2024-08-12T12:53:13Z</time>
      </trkpt>
      <trkpt lat="44.77713" lon="6.29369">
        <ele>2510.8</ele>
        <time>2024-08-12T12:53:14Z</time>
      </trkpt>
      <trkpt lat="44.77713" lon="6.29369">
        <ele>2511.2</ele>
        <time>2024-08-12T12:53:15Z</time>
      </trkpt>
      <trkpt lat="44.77713" lon="6.29366">
        <ele>2511.4</ele>
        <time>2024-08-12T12:53:16Z</time>
      </trkpt>
      <trkpt lat="44.77713" lon="6.29366">
        <ele>2511.6</ele>
        <time>2024-08-12T12:53:17Z</time>
      </trkpt>
      <trkpt lat="44.77713" lon="6.29366">
        <ele>2511.6</ele>
        <time>2024-08-12T12:53:18Z</time>
      </trkpt>
      <trkpt lat="44.77713" lon="6.29363">
        <ele>2511.8</ele>
        <time>2024-08-12T12:53:19Z</time>
      </trkpt>
      <trkpt lat="44.77713" lon="6.29363">
        <ele>2512</ele>
        <time>2024-08-12T12:53:20Z</time>
      </trkpt>
      <trkpt lat="44.77713" lon="6.29363">
        <ele>2512.2</ele>
        <time>2024-08-12T12:53:21Z</time>
      </trkpt>
      <trkpt lat="44.77714" lon="6.2936">
        <ele>2512.8</ele>
        <time>2024-08-12T12:53:22Z</time>
      </trkpt>
      <trkpt lat="44.77714" lon="6.2936">
        <ele>2512.8</ele>
        <time>2024-08-12T12:53:23Z</time>
      </trkpt>
      <trkpt lat="44.77714" lon="6.2936">
        <ele>2513</ele>
        <time>2024-08-12T12:53:24Z</time>
      </trkpt>
      <trkpt lat="44.77714" lon="6.29357">
        <ele>2513.2</ele>
        <time>2024-08-12T12:53:25Z</time>
      </trkpt>
      <trkpt lat="44.77714" lon="6.29357">
        <ele>2513.2</ele>
        <time>2024-08-12T12:53:26Z</time>
      </trkpt>
      <trkpt lat="44.77714" lon="6.29354">
        <ele>2513.4</ele>
        <time>2024-08-12T12:53:27Z</time>
      </trkpt>
      <trkpt lat="44.77714" lon="6.29354">
        <ele>2513.6</ele>
        <time>2024-08-12T12:53:28Z</time>
      </trkpt>
      <trkpt lat="44.77714" lon="6.29354">
        <ele>2513.8</ele>
        <time>2024-08-12T12:53:29Z</time>
      </trkpt>
      <trkpt lat="44.77714" lon="6.2935">
        <ele>2514</ele>
        <time>2024-08-12T12:53:30Z</time>
      </trkpt>
      <trkpt lat="44.77714" lon="6.2935">
        <ele>2514</ele>
        <time>2024-08-12T12:53:31Z</time>
      </trkpt>
      <trkpt lat="44.77714" lon="6.29348">
        <ele>2514.2</ele>
        <time>2024-08-12T12:53:32Z</time>
      </trkpt>
      <trkpt lat="44.77714" lon="6.29348">
        <ele>2514.4</ele>
        <time>2024-08-12T12:53:33Z</time>
      </trkpt>
      <trkpt lat="44.77714" lon="6.29345">
        <ele>2515</ele>
        <time>2024-08-12T12:53:34Z</time>
      </trkpt>
      <trkpt lat="44.77714" lon="6.29345">
        <ele>2515</ele>
        <time>2024-08-12T12:53:35Z</time>
      </trkpt>
      <trkpt lat="44.77714" lon="6.29342">
        <ele>2515.2</ele>
        <time>2024-08-12T12:53:36Z</time>
      </trkpt>
      <trkpt lat="44.77714" lon="6.29342">
        <ele>2515</ele>
        <time>2024-08-12T12:53:37Z</time>
      </trkpt>
      <trkpt lat="44.77714" lon="6.29342">
        <ele>2515.4</ele>
        <time>2024-08-12T12:53:38Z</time>
      </trkpt>
      <trkpt lat="44.77714" lon="6.29338">
        <ele>2515.6</ele>
        <time>2024-08-12T12:53:39Z</time>
      </trkpt>
      <trkpt lat="44.77714" lon="6.29338">
        <ele>2515.8</ele>
        <time>2024-08-12T12:53:40Z</time>
      </trkpt>
      <trkpt lat="44.77714" lon="6.29338">
        <ele>2515.8</ele>
        <time>2024-08-12T12:53:41Z</time>
      </trkpt>
      <trkpt lat="44.77714" lon="6.29335">
        <ele>2516</ele>
        <time>2024-08-12T12:53:42Z</time>
      </trkpt>
      <trkpt lat="44.77714" lon="6.29335">
        <ele>2516.2</ele>
        <time>2024-08-12T12:53:43Z</time>
      </trkpt>
      <trkpt lat="44.77714" lon="6.29335">
        <ele>2516.6</ele>
        <time>2024-08-12T12:53:44Z</time>
      </trkpt>
      <trkpt lat="44.77714" lon="6.29332">
        <ele>2516.6</ele>
        <time>2024-08-12T12:53:45Z</time>
      </trkpt>
      <trkpt lat="44.77714" lon="6.29332">
        <ele>2516.6</ele>
        <time>2024-08-12T12:53:46Z</time>
      </trkpt>
      <trkpt lat="44.77714" lon="6.29332">
        <ele>2516.8</ele>
        <time>2024-08-12T12:53:47Z</time>
      </trkpt>
      <trkpt lat="44.77714" lon="6.29329">
        <ele>2517</ele>
        <time>2024-08-12T12:53:48Z</time>
      </trkpt>
      <trkpt lat="44.77714" lon="6.29329">
        <ele>2517.2</ele>
        <time>2024-08-12T12:53:49Z</time>
      </trkpt>
      <trkpt lat="44.77714" lon="6.29329">
        <ele>2517.2</ele>
        <time>2024-08-12T12:53:50Z</time>
      </trkpt>
      <trkpt lat="44.77715" lon="6.29326">
        <ele>2517.4</ele>
        <time>2024-08-12T12:53:51Z</time>
      </trkpt>
      <trkpt lat="44.77715" lon="6.29326">
        <ele>2517.6</ele>
        <time>2024-08-12T12:53:52Z</time>
      </trkpt>
      <trkpt lat="44.77715" lon="6.29326">
        <ele>2517.8</ele>
        <time>2024-08-12T12:53:53Z</time>
      </trkpt>
      <trkpt lat="44.77715" lon="6.29326">
        <ele>2518</ele>
        <time>2024-08-12T12:53:54Z</time>
      </trkpt>
      <trkpt lat="44.77714" lon="6.29323">
        <ele>2518</ele>
        <time>2024-08-12T12:53:55Z</time>
      </trkpt>
      <trkpt lat="44.77714" lon="6.29323">
        <ele>2518</ele>
        <time>2024-08-12T12:53:56Z</time>
      </trkpt>
      <trkpt lat="44.77714" lon="6.29323">
        <ele>2518</ele>
        <time>2024-08-12T12:53:57Z</time>
      </trkpt>
      <trkpt lat="44.77712" lon="6.2932">
        <ele>2518.2</ele>
        <time>2024-08-12T12:53:58Z</time>
      </trkpt>
      <trkpt lat="44.77712" lon="6.2932">
        <ele>2518.4</ele>
        <time>2024-08-12T12:53:59Z</time>
      </trkpt>
      <trkpt lat="44.77712" lon="6.2932">
        <ele>2518.2</ele>
        <time>2024-08-12T12:54:00Z</time>
      </trkpt>
      <trkpt lat="44.77711" lon="6.29317">
        <ele>2518.2</ele>
        <time>2024-08-12T12:54:01Z</time>
      </trkpt>
      <trkpt lat="44.77711" lon="6.29317">
        <ele>2518.8</ele>
        <time>2024-08-12T12:54:02Z</time>
      </trkpt>
      <trkpt lat="44.77711" lon="6.29317">
        <ele>2518.8</ele>
        <time>2024-08-12T12:54:03Z</time>
      </trkpt>
      <trkpt lat="44.77711" lon="6.29314">
        <ele>2519</ele>
        <time>2024-08-12T12:54:04Z</time>
      </trkpt>
      <trkpt lat="44.77711" lon="6.29314">
        <ele>2519.2</ele>
        <time>2024-08-12T12:54:05Z</time>
      </trkpt>
      <trkpt lat="44.77711" lon="6.29314">
        <ele>2519.2</ele>
        <time>2024-08-12T12:54:06Z</time>
      </trkpt>
      <trkpt lat="44.7771" lon="6.29311">
        <ele>2519.6</ele>
        <time>2024-08-12T12:54:07Z</time>
      </trkpt>
      <trkpt lat="44.7771" lon="6.29311">
        <ele>2520</ele>
        <time>2024-08-12T12:54:08Z</time>
      </trkpt>
      <trkpt lat="44.7771" lon="6.29311">
        <ele>2520.2</ele>
        <time>2024-08-12T12:54:09Z</time>
      </trkpt>
      <trkpt lat="44.77709" lon="6.29309">
        <ele>2520.2</ele>
        <time>2024-08-12T12:54:10Z</time>
      </trkpt>
      <trkpt lat="44.77709" lon="6.29309">
        <ele>2520.4</ele>
        <time>2024-08-12T12:54:11Z</time>
      </trkpt>
      <trkpt lat="44.77709" lon="6.29309">
        <ele>2520.6</ele>
        <time>2024-08-12T12:54:12Z</time>
      </trkpt>
      <trkpt lat="44.77709" lon="6.29307">
        <ele>2520.6</ele>
        <time>2024-08-12T12:54:13Z</time>
      </trkpt>
      <trkpt lat="44.77709" lon="6.29307">
        <ele>2520.6</ele>
        <time>2024-08-12T12:54:14Z</time>
      </trkpt>
      <trkpt lat="44.77709" lon="6.29307">
        <ele>2520.8</ele>
        <time>2024-08-12T12:54:15Z</time>
      </trkpt>
      <trkpt lat="44.77709" lon="6.29304">
        <ele>2521.2</ele>
        <time>2024-08-12T12:54:16Z</time>
      </trkpt>
      <trkpt lat="44.77709" lon="6.29304">
        <ele>2521.2</ele>
        <time>2024-08-12T12:54:17Z</time>
      </trkpt>
      <trkpt lat="44.77709" lon="6.29304">
        <ele>2521.2</ele>
        <time>2024-08-12T12:54:18Z</time>
      </trkpt>
      <trkpt lat="44.7771" lon="6.29301">
        <ele>2521.4</ele>
        <time>2024-08-12T12:54:19Z</time>
      </trkpt>
      <trkpt lat="44.7771" lon="6.29301">
        <ele>2521.4</ele>
        <time>2024-08-12T12:54:20Z</time>
      </trkpt>
      <trkpt lat="44.7771" lon="6.29301">
        <ele>2521.6</ele>
        <time>2024-08-12T12:54:21Z</time>
      </trkpt>
      <trkpt lat="44.7771" lon="6.29301">
        <ele>2522</ele>
        <time>2024-08-12T12:54:22Z</time>
      </trkpt>
      <trkpt lat="44.7771" lon="6.29301">
        <ele>2522</ele>
        <time>2024-08-12T12:54:23Z</time>
      </trkpt>
      <trkpt lat="44.7771" lon="6.29301">
        <ele>2522.2</ele>
        <time>2024-08-12T12:54:24Z</time>
      </trkpt>
      <trkpt lat="44.77712" lon="6.29301">
        <ele>2522.2</ele>
        <time>2024-08-12T12:54:25Z</time>
      </trkpt>
      <trkpt lat="44.77712" lon="6.29301">
        <ele>2522.2</ele>
        <time>2024-08-12T12:54:26Z</time>
      </trkpt>
      <trkpt lat="44.77712" lon="6.29301">
        <ele>2522.4</ele>
        <time>2024-08-12T12:54:27Z</time>
      </trkpt>
      <trkpt lat="44.77714" lon="6.29299">
        <ele>2522.4</ele>
        <time>2024-08-12T12:54:28Z</time>
      </trkpt>
      <trkpt lat="44.77714" lon="6.29299">
        <ele>2522.6</ele>
        <time>2024-08-12T12:54:29Z</time>
      </trkpt>
      <trkpt lat="44.77714" lon="6.29299">
        <ele>2522.8</ele>
        <time>2024-08-12T12:54:30Z</time>
      </trkpt>
      <trkpt lat="44.77714" lon="6.29299">
        <ele>2523</ele>
        <time>2024-08-12T12:54:31Z</time>
      </trkpt>
      <trkpt lat="44.77714" lon="6.29299">
        <ele>2523.2</ele>
        <time>2024-08-12T12:54:32Z</time>
      </trkpt>
      <trkpt lat="44.77716" lon="6.29297">
        <ele>2523.6</ele>
        <time>2024-08-12T12:54:33Z</time>
      </trkpt>
      <trkpt lat="44.77716" lon="6.29297">
        <ele>2523.6</ele>
        <time>2024-08-12T12:54:34Z</time>
      </trkpt>
      <trkpt lat="44.77716" lon="6.29294">
        <ele>2523.6</ele>
        <time>2024-08-12T12:54:35Z</time>
      </trkpt>
      <trkpt lat="44.77716" lon="6.29294">
        <ele>2523.8</ele>
        <time>2024-08-12T12:54:36Z</time>
      </trkpt>
      <trkpt lat="44.77715" lon="6.29291">
        <ele>2524</ele>
        <time>2024-08-12T12:54:37Z</time>
      </trkpt>
      <trkpt lat="44.77715" lon="6.29291">
        <ele>2524</ele>
        <time>2024-08-12T12:54:38Z</time>
      </trkpt>
      <trkpt lat="44.77715" lon="6.29291">
        <ele>2524.2</ele>
        <time>2024-08-12T12:54:39Z</time>
      </trkpt>
      <trkpt lat="44.77716" lon="6.29288">
        <ele>2524.2</ele>
        <time>2024-08-12T12:54:40Z</time>
      </trkpt>
      <trkpt lat="44.77716" lon="6.29288">
        <ele>2524.4</ele>
        <time>2024-08-12T12:54:41Z</time>
      </trkpt>
      <trkpt lat="44.77716" lon="6.29288">
        <ele>2524.4</ele>
        <time>2024-08-12T12:54:42Z</time>
      </trkpt>
      <trkpt lat="44.77717" lon="6.29285">
        <ele>2524.8</ele>
        <time>2024-08-12T12:54:43Z</time>
      </trkpt>
      <trkpt lat="44.77717" lon="6.29285">
        <ele>2524.8</ele>
        <time>2024-08-12T12:54:44Z</time>
      </trkpt>
      <trkpt lat="44.77717" lon="6.29285">
        <ele>2525</ele>
        <time>2024-08-12T12:54:45Z</time>
      </trkpt>
      <trkpt lat="44.77716" lon="6.29282">
        <ele>2525</ele>
        <time>2024-08-12T12:54:46Z</time>
      </trkpt>
      <trkpt lat="44.77716" lon="6.29282">
        <ele>2525.4</ele>
        <time>2024-08-12T12:54:47Z</time>
      </trkpt>
      <trkpt lat="44.77716" lon="6.29282">
        <ele>2525.4</ele>
        <time>2024-08-12T12:54:48Z</time>
      </trkpt>
      <trkpt lat="44.77716" lon="6.29278">
        <ele>2525.4</ele>
        <time>2024-08-12T12:54:49Z</time>
      </trkpt>
      <trkpt lat="44.77716" lon="6.29278">
        <ele>2525.8</ele>
        <time>2024-08-12T12:54:50Z</time>
      </trkpt>
      <trkpt lat="44.77716" lon="6.29278">
        <ele>2525.8</ele>
        <time>2024-08-12T12:54:51Z</time>
      </trkpt>
      <trkpt lat="44.77717" lon="6.29276">
        <ele>2525.8</ele>
        <time>2024-08-12T12:54:52Z</time>
      </trkpt>
      <trkpt lat="44.77717" lon="6.29276">
        <ele>2526</ele>
        <time>2024-08-12T12:54:53Z</time>
      </trkpt>
      <trkpt lat="44.77717" lon="6.29276">
        <ele>2526.2</ele>
        <time>2024-08-12T12:54:54Z</time>
      </trkpt>
      <trkpt lat="44.77717" lon="6.29276">
        <ele>2526</ele>
        <time>2024-08-12T12:54:55Z</time>
      </trkpt>
      <trkpt lat="44.77718" lon="6.29274">
        <ele>2526.2</ele>
        <time>2024-08-12T12:54:56Z</time>
      </trkpt>
      <trkpt lat="44.77718" lon="6.29274">
        <ele>2526.4</ele>
        <time>2024-08-12T12:54:57Z</time>
      </trkpt>
      <trkpt lat="44.77718" lon="6.29274">
        <ele>2526.6</ele>
        <time>2024-08-12T12:54:58Z</time>
      </trkpt>
      <trkpt lat="44.7772" lon="6.29272">
        <ele>2526.8</ele>
        <time>2024-08-12T12:54:59Z</time>
      </trkpt>
      <trkpt lat="44.7772" lon="6.29272">
        <ele>2527</ele>
        <time>2024-08-12T12:55:00Z</time>
      </trkpt>
      <trkpt lat="44.7772" lon="6.29272">
        <ele>2527.2</ele>
        <time>2024-08-12T12:55:01Z</time>
      </trkpt>
      <trkpt lat="44.7772" lon="6.29272">
        <ele>2527.8</ele>
        <time>2024-08-12T12:55:02Z</time>
      </trkpt>
      <trkpt lat="44.77721" lon="6.29268">
        <ele>2527.8</ele>
        <time>2024-08-12T12:55:03Z</time>
      </trkpt>
      <trkpt lat="44.77721" lon="6.29268">
        <ele>2527.8</ele>
        <time>2024-08-12T12:55:04Z</time>
      </trkpt>
      <trkpt lat="44.77721" lon="6.29268">
        <ele>2528</ele>
        <time>2024-08-12T12:55:05Z</time>
      </trkpt>
      <trkpt lat="44.77723" lon="6.29267">
        <ele>2528</ele>
        <time>2024-08-12T12:55:06Z</time>
      </trkpt>
      <trkpt lat="44.77723" lon="6.29267">
        <ele>2528.4</ele>
        <time>2024-08-12T12:55:07Z</time>
      </trkpt>
      <trkpt lat="44.77723" lon="6.29267">
        <ele>2528.6</ele>
        <time>2024-08-12T12:55:08Z</time>
      </trkpt>
      <trkpt lat="44.77723" lon="6.29267">
        <ele>2528.6</ele>
        <time>2024-08-12T12:55:09Z</time>
      </trkpt>
      <trkpt lat="44.77724" lon="6.29264">
        <ele>2528.8</ele>
        <time>2024-08-12T12:55:10Z</time>
      </trkpt>
      <trkpt lat="44.77724" lon="6.29264">
        <ele>2528.8</ele>
        <time>2024-08-12T12:55:11Z</time>
      </trkpt>
      <trkpt lat="44.77724" lon="6.29264">
        <ele>2528.8</ele>
        <time>2024-08-12T12:55:12Z</time>
      </trkpt>
      <trkpt lat="44.77724" lon="6.29264">
        <ele>2529</ele>
        <time>2024-08-12T12:55:13Z</time>
      </trkpt>
      <trkpt lat="44.77724" lon="6.29264">
        <ele>2529</ele>
        <time>2024-08-12T12:55:14Z</time>
      </trkpt>
      <trkpt lat="44.77724" lon="6.29264">
        <ele>2529</ele>
        <time>2024-08-12T12:55:15Z</time>
      </trkpt>
      <trkpt lat="44.77724" lon="6.29264">
        <ele>2529.2</ele>
        <time>2024-08-12T12:55:16Z</time>
      </trkpt>
      <trkpt lat="44.77724" lon="6.29264">
        <ele>2529.4</ele>
        <time>2024-08-12T12:55:17Z</time>
      </trkpt>
      <trkpt lat="44.77724" lon="6.29264">
        <ele>2529.4</ele>
        <time>2024-08-12T12:55:18Z</time>
      </trkpt>
      <trkpt lat="44.77724" lon="6.29264">
        <ele>2529.2</ele>
        <time>2024-08-12T12:55:19Z</time>
      </trkpt>
      <trkpt lat="44.77724" lon="6.29264">
        <ele>2529.2</ele>
        <time>2024-08-12T12:55:20Z</time>
      </trkpt>
      <trkpt lat="44.77724" lon="6.29264">
        <ele>2529</ele>
        <time>2024-08-12T12:55:21Z</time>
      </trkpt>
      <trkpt lat="44.77724" lon="6.29264">
        <ele>2529</ele>
        <time>2024-08-12T12:55:22Z</time>
      </trkpt>
      <trkpt lat="44.77724" lon="6.29264">
        <ele>2529</ele>
        <time>2024-08-12T12:55:23Z</time>
      </trkpt>
      <trkpt lat="44.77724" lon="6.29264">
        <ele>2529.2</ele>
        <time>2024-08-12T12:55:24Z</time>
      </trkpt>
      <trkpt lat="44.77724" lon="6.29264">
        <ele>2529.2</ele>
        <time>2024-08-12T12:55:25Z</time>
      </trkpt>
      <trkpt lat="44.77724" lon="6.29264">
        <ele>2529.2</ele>
        <time>2024-08-12T12:55:26Z</time>
      </trkpt>
      <trkpt lat="44.77724" lon="6.29264">
        <ele>2529.2</ele>
        <time>2024-08-12T12:55:27Z</time>
      </trkpt>
      <trkpt lat="44.77724" lon="6.29264">
        <ele>2529.2</ele>
        <time>2024-08-12T12:55:28Z</time>
      </trkpt>
      <trkpt lat="44.77724" lon="6.29264">
        <ele>2529.2</ele>
        <time>2024-08-12T12:55:29Z</time>
      </trkpt>
      <trkpt lat="44.77724" lon="6.29264">
        <ele>2529.2</ele>
        <time>2024-08-12T12:55:30Z</time>
      </trkpt>
      <trkpt lat="44.77724" lon="6.29264">
        <ele>2529.2</ele>
        <time>2024-08-12T12:55:31Z</time>
      </trkpt>
      <trkpt lat="44.77724" lon="6.29264">
        <ele>2529.2</ele>
        <time>2024-08-12T12:55:32Z</time>
      </trkpt>
      <trkpt lat="44.77724" lon="6.29264">
        <ele>2529.2</ele>
        <time>2024-08-12T12:55:33Z</time>
      </trkpt>
      <trkpt lat="44.77724" lon="6.29264">
        <ele>2529.2</ele>
        <time>2024-08-12T12:55:34Z</time>
      </trkpt>
      <trkpt lat="44.77724" lon="6.29264">
        <ele>2529.2</ele>
        <time>2024-08-12T12:55:35Z</time>
      </trkpt>
      <trkpt lat="44.77724" lon="6.29264">
        <ele>2529.2</ele>
        <time>2024-08-12T12:55:36Z</time>
      </trkpt>
      <trkpt lat="44.77724" lon="6.29264">
        <ele>2529</ele>
        <time>2024-08-12T12:55:37Z</time>
      </trkpt>
      <trkpt lat="44.77724" lon="6.29264">
        <ele>2529</ele>
        <time>2024-08-12T12:55:38Z</time>
      </trkpt>
      <trkpt lat="44.77724" lon="6.29264">
        <ele>2529</ele>
        <time>2024-08-12T12:55:39Z</time>
      </trkpt>
      <trkpt lat="44.77724" lon="6.29264">
        <ele>2528.8</ele>
        <time>2024-08-12T12:55:40Z</time>
      </trkpt>
      <trkpt lat="44.77725" lon="6.29261">
        <ele>2528.8</ele>
        <time>2024-08-12T12:55:41Z</time>
      </trkpt>
      <trkpt lat="44.77725" lon="6.29261">
        <ele>2529.2</ele>
        <time>2024-08-12T12:55:42Z</time>
      </trkpt>
      <trkpt lat="44.77725" lon="6.29261">
        <ele>2529.2</ele>
        <time>2024-08-12T12:55:43Z</time>
      </trkpt>
      <trkpt lat="44.77725" lon="6.29258">
        <ele>2529.2</ele>
        <time>2024-08-12T12:55:44Z</time>
      </trkpt>
      <trkpt lat="44.77725" lon="6.29258">
        <ele>2529.4</ele>
        <time>2024-08-12T12:55:45Z</time>
      </trkpt>
      <trkpt lat="44.77726" lon="6.29255">
        <ele>2529.4</ele>
        <time>2024-08-12T12:55:46Z</time>
      </trkpt>
      <trkpt lat="44.77726" lon="6.29255">
        <ele>2529.4</ele>
        <time>2024-08-12T12:55:47Z</time>
      </trkpt>
      <trkpt lat="44.77726" lon="6.29252">
        <ele>2529.6</ele>
        <time>2024-08-12T12:55:48Z</time>
      </trkpt>
      <trkpt lat="44.77726" lon="6.29252">
        <ele>2529.8</ele>
        <time>2024-08-12T12:55:49Z</time>
      </trkpt>
      <trkpt lat="44.77725" lon="6.29249">
        <ele>2530</ele>
        <time>2024-08-12T12:55:50Z</time>
      </trkpt>
      <trkpt lat="44.77725" lon="6.29249">
        <ele>2530</ele>
        <time>2024-08-12T12:55:51Z</time>
      </trkpt>
      <trkpt lat="44.77725" lon="6.29249">
        <ele>2530.2</ele>
        <time>2024-08-12T12:55:52Z</time>
      </trkpt>
      <trkpt lat="44.77726" lon="6.29246">
        <ele>2530.4</ele>
        <time>2024-08-12T12:55:53Z</time>
      </trkpt>
      <trkpt lat="44.77726" lon="6.29246">
        <ele>2530.8</ele>
        <time>2024-08-12T12:55:54Z</time>
      </trkpt>
      <trkpt lat="44.77726" lon="6.29246">
        <ele>2530.8</ele>
        <time>2024-08-12T12:55:55Z</time>
      </trkpt>
      <trkpt lat="44.77726" lon="6.29243">
        <ele>2530.8</ele>
        <time>2024-08-12T12:55:56Z</time>
      </trkpt>
      <trkpt lat="44.77726" lon="6.29243">
        <ele>2530.8</ele>
        <time>2024-08-12T12:55:57Z</time>
      </trkpt>
      <trkpt lat="44.77725" lon="6.2924">
        <ele>2530.8</ele>
        <time>2024-08-12T12:55:58Z</time>
      </trkpt>
      <trkpt lat="44.77725" lon="6.2924">
        <ele>2531.2</ele>
        <time>2024-08-12T12:55:59Z</time>
      </trkpt>
      <trkpt lat="44.77725" lon="6.2924">
        <ele>2531.8</ele>
        <time>2024-08-12T12:56:00Z</time>
      </trkpt>
      <trkpt lat="44.77724" lon="6.29238">
        <ele>2531.8</ele>
        <time>2024-08-12T12:56:01Z</time>
      </trkpt>
      <trkpt lat="44.77724" lon="6.29238">
        <ele>2531.8</ele>
        <time>2024-08-12T12:56:02Z</time>
      </trkpt>
      <trkpt lat="44.77724" lon="6.29238">
        <ele>2531.8</ele>
        <time>2024-08-12T12:56:03Z</time>
      </trkpt>
      <trkpt lat="44.77724" lon="6.29238">
        <ele>2532</ele>
        <time>2024-08-12T12:56:04Z</time>
      </trkpt>
      <trkpt lat="44.77724" lon="6.29234">
        <ele>2532</ele>
        <time>2024-08-12T12:56:05Z</time>
      </trkpt>
      <trkpt lat="44.77724" lon="6.29234">
        <ele>2532.2</ele>
        <time>2024-08-12T12:56:06Z</time>
      </trkpt>
      <trkpt lat="44.77724" lon="6.29234">
        <ele>2532.4</ele>
        <time>2024-08-12T12:56:07Z</time>
      </trkpt>
      <trkpt lat="44.77724" lon="6.29234">
        <ele>2532.4</ele>
        <time>2024-08-12T12:56:08Z</time>
      </trkpt>
      <trkpt lat="44.77725" lon="6.29232">
        <ele>2532.6</ele>
        <time>2024-08-12T12:56:09Z</time>
      </trkpt>
      <trkpt lat="44.77725" lon="6.29232">
        <ele>2532.6</ele>
        <time>2024-08-12T12:56:10Z</time>
      </trkpt>
      <trkpt lat="44.77725" lon="6.29232">
        <ele>2532.8</ele>
        <time>2024-08-12T12:56:11Z</time>
      </trkpt>
      <trkpt lat="44.77723" lon="6.29229">
        <ele>2533</ele>
        <time>2024-08-12T12:56:12Z</time>
      </trkpt>
      <trkpt lat="44.77723" lon="6.29229">
        <ele>2533.2</ele>
        <time>2024-08-12T12:56:13Z</time>
      </trkpt>
      <trkpt lat="44.77723" lon="6.29229">
        <ele>2533.4</ele>
        <time>2024-08-12T12:56:14Z</time>
      </trkpt>
      <trkpt lat="44.77723" lon="6.29226">
        <ele>2533.4</ele>
        <time>2024-08-12T12:56:15Z</time>
      </trkpt>
      <trkpt lat="44.77723" lon="6.29226">
        <ele>2533.6</ele>
        <time>2024-08-12T12:56:16Z</time>
      </trkpt>
      <trkpt lat="44.77724" lon="6.29224">
        <ele>2533.8</ele>
        <time>2024-08-12T12:56:17Z</time>
      </trkpt>
      <trkpt lat="44.77724" lon="6.29224">
        <ele>2533.8</ele>
        <time>2024-08-12T12:56:18Z</time>
      </trkpt>
      <trkpt lat="44.77724" lon="6.29224">
        <ele>2534</ele>
        <time>2024-08-12T12:56:19Z</time>
      </trkpt>
      <trkpt lat="44.77724" lon="6.29221">
        <ele>2534.2</ele>
        <time>2024-08-12T12:56:20Z</time>
      </trkpt>
      <trkpt lat="44.77724" lon="6.29221">
        <ele>2534.2</ele>
        <time>2024-08-12T12:56:21Z</time>
      </trkpt>
      <trkpt lat="44.77724" lon="6.29221">
        <ele>2534.2</ele>
        <time>2024-08-12T12:56:22Z</time>
      </trkpt>
      <trkpt lat="44.77723" lon="6.29218">
        <ele>2534.6</ele>
        <time>2024-08-12T12:56:23Z</time>
      </trkpt>
      <trkpt lat="44.77723" lon="6.29218">
        <ele>2534.8</ele>
        <time>2024-08-12T12:56:24Z</time>
      </trkpt>
      <trkpt lat="44.77723" lon="6.29218">
        <ele>2534.8</ele>
        <time>2024-08-12T12:56:25Z</time>
      </trkpt>
      <trkpt lat="44.77723" lon="6.29216">
        <ele>2534.8</ele>
        <time>2024-08-12T12:56:26Z</time>
      </trkpt>
      <trkpt lat="44.77723" lon="6.29216">
        <ele>2535.2</ele>
        <time>2024-08-12T12:56:27Z</time>
      </trkpt>
      <trkpt lat="44.77723" lon="6.29216">
        <ele>2535.2</ele>
        <time>2024-08-12T12:56:28Z</time>
      </trkpt>
      <trkpt lat="44.77723" lon="6.29216">
        <ele>2535.4</ele>
        <time>2024-08-12T12:56:29Z</time>
      </trkpt>
      <trkpt lat="44.77723" lon="6.29213">
        <ele>2535.6</ele>
        <time>2024-08-12T12:56:30Z</time>
      </trkpt>
      <trkpt lat="44.77723" lon="6.29213">
        <ele>2535.8</ele>
        <time>2024-08-12T12:56:31Z</time>
      </trkpt>
      <trkpt lat="44.77723" lon="6.29213">
        <ele>2535.8</ele>
        <time>2024-08-12T12:56:32Z</time>
      </trkpt>
      <trkpt lat="44.77723" lon="6.29213">
        <ele>2535.8</ele>
        <time>2024-08-12T12:56:33Z</time>
      </trkpt>
      <trkpt lat="44.77722" lon="6.29211">
        <ele>2536</ele>
        <time>2024-08-12T12:56:34Z</time>
      </trkpt>
      <trkpt lat="44.77722" lon="6.29211">
        <ele>2536.2</ele>
        <time>2024-08-12T12:56:35Z</time>
      </trkpt>
      <trkpt lat="44.77722" lon="6.29211">
        <ele>2536.4</ele>
        <time>2024-08-12T12:56:36Z</time>
      </trkpt>
      <trkpt lat="44.77721" lon="6.29209">
        <ele>2536.6</ele>
        <time>2024-08-12T12:56:37Z</time>
      </trkpt>
      <trkpt lat="44.77721" lon="6.29209">
        <ele>2536.6</ele>
        <time>2024-08-12T12:56:38Z</time>
      </trkpt>
      <trkpt lat="44.77721" lon="6.29209">
        <ele>2536.8</ele>
        <time>2024-08-12T12:56:39Z</time>
      </trkpt>
      <trkpt lat="44.77721" lon="6.29209">
        <ele>2537.2</ele>
        <time>2024-08-12T12:56:40Z</time>
      </trkpt>
      <trkpt lat="44.77719" lon="6.29207">
        <ele>2537.4</ele>
        <time>2024-08-12T12:56:41Z</time>
      </trkpt>
      <trkpt lat="44.77719" lon="6.29207">
        <ele>2538</ele>
        <time>2024-08-12T12:56:42Z</time>
      </trkpt>
      <trkpt lat="44.77719" lon="6.29207">
        <ele>2538</ele>
        <time>2024-08-12T12:56:43Z</time>
      </trkpt>
      <trkpt lat="44.77717" lon="6.29205">
        <ele>2538.2</ele>
        <time>2024-08-12T12:56:44Z</time>
      </trkpt>
      <trkpt lat="44.77717" lon="6.29205">
        <ele>2538.4</ele>
        <time>2024-08-12T12:56:45Z</time>
      </trkpt>
      <trkpt lat="44.77717" lon="6.29205">
        <ele>2538.4</ele>
        <time>2024-08-12T12:56:46Z</time>
      </trkpt>
      <trkpt lat="44.77717" lon="6.29205">
        <ele>2538.4</ele>
        <time>2024-08-12T12:56:47Z</time>
      </trkpt>
      <trkpt lat="44.77718" lon="6.29203">
        <ele>2538.6</ele>
        <time>2024-08-12T12:56:48Z</time>
      </trkpt>
      <trkpt lat="44.77718" lon="6.29203">
        <ele>2538.8</ele>
        <time>2024-08-12T12:56:49Z</time>
      </trkpt>
      <trkpt lat="44.77718" lon="6.29203">
        <ele>2539</ele>
        <time>2024-08-12T12:56:50Z</time>
      </trkpt>
      <trkpt lat="44.77721" lon="6.29202">
        <ele>2539</ele>
        <time>2024-08-12T12:56:51Z</time>
      </trkpt>
      <trkpt lat="44.77721" lon="6.29202">
        <ele>2539</ele>
        <time>2024-08-12T12:56:52Z</time>
      </trkpt>
      <trkpt lat="44.77721" lon="6.29202">
        <ele>2539</ele>
        <time>2024-08-12T12:56:53Z</time>
      </trkpt>
      <trkpt lat="44.77723" lon="6.29202">
        <ele>2539.2</ele>
        <time>2024-08-12T12:56:54Z</time>
      </trkpt>
      <trkpt lat="44.77723" lon="6.29202">
        <ele>2539.2</ele>
        <time>2024-08-12T12:56:55Z</time>
      </trkpt>
      <trkpt lat="44.77723" lon="6.29202">
        <ele>2539.2</ele>
        <time>2024-08-12T12:56:56Z</time>
      </trkpt>
      <trkpt lat="44.77723" lon="6.29202">
        <ele>2539.4</ele>
        <time>2024-08-12T12:56:57Z</time>
      </trkpt>
      <trkpt lat="44.77723" lon="6.29202">
        <ele>2539.4</ele>
        <time>2024-08-12T12:56:58Z</time>
      </trkpt>
      <trkpt lat="44.77723" lon="6.29202">
        <ele>2539.6</ele>
        <time>2024-08-12T12:56:59Z</time>
      </trkpt>
      <trkpt lat="44.77723" lon="6.29202">
        <ele>2539.6</ele>
        <time>2024-08-12T12:57:00Z</time>
      </trkpt>
      <trkpt lat="44.77723" lon="6.29202">
        <ele>2540</ele>
        <time>2024-08-12T12:57:01Z</time>
      </trkpt>
      <trkpt lat="44.77725" lon="6.29202">
        <ele>2540.4</ele>
        <time>2024-08-12T12:57:02Z</time>
      </trkpt>
      <trkpt lat="44.77725" lon="6.29202">
        <ele>2540.6</ele>
        <time>2024-08-12T12:57:03Z</time>
      </trkpt>
      <trkpt lat="44.77727" lon="6.29203">
        <ele>2540.8</ele>
        <time>2024-08-12T12:57:04Z</time>
      </trkpt>
      <trkpt lat="44.77727" lon="6.29203">
        <ele>2540.8</ele>
        <time>2024-08-12T12:57:05Z</time>
      </trkpt>
      <trkpt lat="44.7773" lon="6.29204">
        <ele>2540.8</ele>
        <time>2024-08-12T12:57:06Z</time>
      </trkpt>
      <trkpt lat="44.7773" lon="6.29204">
        <ele>2541</ele>
        <time>2024-08-12T12:57:07Z</time>
      </trkpt>
      <trkpt lat="44.7773" lon="6.29204">
        <ele>2541.2</ele>
        <time>2024-08-12T12:57:08Z</time>
      </trkpt>
      <trkpt lat="44.7773" lon="6.29204">
        <ele>2541.6</ele>
        <time>2024-08-12T12:57:09Z</time>
      </trkpt>
      <trkpt lat="44.77732" lon="6.29205">
        <ele>2541.6</ele>
        <time>2024-08-12T12:57:10Z</time>
      </trkpt>
      <trkpt lat="44.77732" lon="6.29205">
        <ele>2541.8</ele>
        <time>2024-08-12T12:57:11Z</time>
      </trkpt>
      <trkpt lat="44.77732" lon="6.29205">
        <ele>2542</ele>
        <time>2024-08-12T12:57:12Z</time>
      </trkpt>
      <trkpt lat="44.77732" lon="6.29205">
        <ele>2542</ele>
        <time>2024-08-12T12:57:13Z</time>
      </trkpt>
      <trkpt lat="44.77732" lon="6.29205">
        <ele>2541.6</ele>
        <time>2024-08-12T12:57:14Z</time>
      </trkpt>
      <trkpt lat="44.77731" lon="6.29202">
        <ele>2541.6</ele>
        <time>2024-08-12T12:57:15Z</time>
      </trkpt>
      <trkpt lat="44.77731" lon="6.29202">
        <ele>2542.2</ele>
        <time>2024-08-12T12:57:16Z</time>
      </trkpt>
      <trkpt lat="44.77731" lon="6.29202">
        <ele>2542.2</ele>
        <time>2024-08-12T12:57:17Z</time>
      </trkpt>
      <trkpt lat="44.77729" lon="6.29199">
        <ele>2542.6</ele>
        <time>2024-08-12T12:57:18Z</time>
      </trkpt>
      <trkpt lat="44.77729" lon="6.29199">
        <ele>2542.6</ele>
        <time>2024-08-12T12:57:19Z</time>
      </trkpt>
      <trkpt lat="44.77729" lon="6.29199">
        <ele>2542.8</ele>
        <time>2024-08-12T12:57:20Z</time>
      </trkpt>
      <trkpt lat="44.77728" lon="6.29196">
        <ele>2542.8</ele>
        <time>2024-08-12T12:57:21Z</time>
      </trkpt>
      <trkpt lat="44.77728" lon="6.29196">
        <ele>2542.8</ele>
        <time>2024-08-12T12:57:22Z</time>
      </trkpt>
      <trkpt lat="44.77728" lon="6.29196">
        <ele>2542.8</ele>
        <time>2024-08-12T12:57:23Z</time>
      </trkpt>
      <trkpt lat="44.77726" lon="6.29194">
        <ele>2542.8</ele>
        <time>2024-08-12T12:57:24Z</time>
      </trkpt>
      <trkpt lat="44.77726" lon="6.29194">
        <ele>2543.2</ele>
        <time>2024-08-12T12:57:25Z</time>
      </trkpt>
      <trkpt lat="44.77726" lon="6.29194">
        <ele>2543.6</ele>
        <time>2024-08-12T12:57:26Z</time>
      </trkpt>
      <trkpt lat="44.77725" lon="6.2919">
        <ele>2543.6</ele>
        <time>2024-08-12T12:57:27Z</time>
      </trkpt>
      <trkpt lat="44.77725" lon="6.2919">
        <ele>2543.8</ele>
        <time>2024-08-12T12:57:28Z</time>
      </trkpt>
      <trkpt lat="44.77725" lon="6.2919">
        <ele>2543.8</ele>
        <time>2024-08-12T12:57:29Z</time>
      </trkpt>
      <trkpt lat="44.77724" lon="6.29188">
        <ele>2544</ele>
        <time>2024-08-12T12:57:30Z</time>
      </trkpt>
      <trkpt lat="44.77724" lon="6.29188">
        <ele>2544</ele>
        <time>2024-08-12T12:57:31Z</time>
      </trkpt>
      <trkpt lat="44.77724" lon="6.29188">
        <ele>2544.2</ele>
        <time>2024-08-12T12:57:32Z</time>
      </trkpt>
      <trkpt lat="44.77723" lon="6.29185">
        <ele>2544.6</ele>
        <time>2024-08-12T12:57:33Z</time>
      </trkpt>
      <trkpt lat="44.77723" lon="6.29185">
        <ele>2544.6</ele>
        <time>2024-08-12T12:57:34Z</time>
      </trkpt>
      <trkpt lat="44.77721" lon="6.29183">
        <ele>2544.6</ele>
        <time>2024-08-12T12:57:35Z</time>
      </trkpt>
      <trkpt lat="44.77721" lon="6.29183">
        <ele>2544.8</ele>
        <time>2024-08-12T12:57:36Z</time>
      </trkpt>
      <trkpt lat="44.77721" lon="6.29183">
        <ele>2545.2</ele>
        <time>2024-08-12T12:57:37Z</time>
      </trkpt>
      <trkpt lat="44.77719" lon="6.29182">
        <ele>2545.4</ele>
        <time>2024-08-12T12:57:38Z</time>
      </trkpt>
      <trkpt lat="44.77719" lon="6.29182">
        <ele>2545.4</ele>
        <time>2024-08-12T12:57:39Z</time>
      </trkpt>
      <trkpt lat="44.77717" lon="6.29181">
        <ele>2545.6</ele>
        <time>2024-08-12T12:57:40Z</time>
      </trkpt>
      <trkpt lat="44.77717" lon="6.29181">
        <ele>2545.8</ele>
        <time>2024-08-12T12:57:41Z</time>
      </trkpt>
      <trkpt lat="44.77717" lon="6.29181">
        <ele>2545.8</ele>
        <time>2024-08-12T12:57:42Z</time>
      </trkpt>
      <trkpt lat="44.77715" lon="6.2918">
        <ele>2545.8</ele>
        <time>2024-08-12T12:57:43Z</time>
      </trkpt>
      <trkpt lat="44.77715" lon="6.2918">
        <ele>2546.2</ele>
        <time>2024-08-12T12:57:44Z</time>
      </trkpt>
      <trkpt lat="44.77715" lon="6.2918">
        <ele>2546.6</ele>
        <time>2024-08-12T12:57:45Z</time>
      </trkpt>
      <trkpt lat="44.77712" lon="6.29179">
        <ele>2547.2</ele>
        <time>2024-08-12T12:57:46Z</time>
      </trkpt>
      <trkpt lat="44.77712" lon="6.29179">
        <ele>2547.4</ele>
        <time>2024-08-12T12:57:47Z</time>
      </trkpt>
      <trkpt lat="44.77712" lon="6.29179">
        <ele>2547.6</ele>
        <time>2024-08-12T12:57:48Z</time>
      </trkpt>
      <trkpt lat="44.77712" lon="6.29179">
        <ele>2547.8</ele>
        <time>2024-08-12T12:57:49Z</time>
      </trkpt>
      <trkpt lat="44.77712" lon="6.29179">
        <ele>2547.8</ele>
        <time>2024-08-12T12:57:50Z</time>
      </trkpt>
      <trkpt lat="44.77713" lon="6.29176">
        <ele>2547.8</ele>
        <time>2024-08-12T12:57:51Z</time>
      </trkpt>
      <trkpt lat="44.77713" lon="6.29176">
        <ele>2548</ele>
        <time>2024-08-12T12:57:52Z</time>
      </trkpt>
      <trkpt lat="44.77715" lon="6.29174">
        <ele>2548.4</ele>
        <time>2024-08-12T12:57:53Z</time>
      </trkpt>
      <trkpt lat="44.77715" lon="6.29174">
        <ele>2548.8</ele>
        <time>2024-08-12T12:57:54Z</time>
      </trkpt>
      <trkpt lat="44.77717" lon="6.29172">
        <ele>2549</ele>
        <time>2024-08-12T12:57:55Z</time>
      </trkpt>
      <trkpt lat="44.77717" lon="6.29172">
        <ele>2549.2</ele>
        <time>2024-08-12T12:57:56Z</time>
      </trkpt>
      <trkpt lat="44.77717" lon="6.29172">
        <ele>2549.2</ele>
        <time>2024-08-12T12:57:57Z</time>
      </trkpt>
      <trkpt lat="44.77718" lon="6.29169">
        <ele>2549.2</ele>
        <time>2024-08-12T12:57:58Z</time>
      </trkpt>
      <trkpt lat="44.77718" lon="6.29169">
        <ele>2549.4</ele>
        <time>2024-08-12T12:57:59Z</time>
      </trkpt>
      <trkpt lat="44.77718" lon="6.29169">
        <ele>2549.8</ele>
        <time>2024-08-12T12:58:00Z</time>
      </trkpt>
      <trkpt lat="44.77718" lon="6.29169">
        <ele>2550</ele>
        <time>2024-08-12T12:58:01Z</time>
      </trkpt>
      <trkpt lat="44.77721" lon="6.29166">
        <ele>2550.4</ele>
        <time>2024-08-12T12:58:02Z</time>
      </trkpt>
      <trkpt lat="44.77721" lon="6.29166">
        <ele>2550.4</ele>
        <time>2024-08-12T12:58:03Z</time>
      </trkpt>
      <trkpt lat="44.77721" lon="6.29166">
        <ele>2550.6</ele>
        <time>2024-08-12T12:58:04Z</time>
      </trkpt>
      <trkpt lat="44.77721" lon="6.29166">
        <ele>2550.6</ele>
        <time>2024-08-12T12:58:05Z</time>
      </trkpt>
      <trkpt lat="44.77723" lon="6.29165">
        <ele>2550.8</ele>
        <time>2024-08-12T12:58:06Z</time>
      </trkpt>
      <trkpt lat="44.77723" lon="6.29165">
        <ele>2551</ele>
        <time>2024-08-12T12:58:07Z</time>
      </trkpt>
      <trkpt lat="44.77723" lon="6.29165">
        <ele>2551.2</ele>
        <time>2024-08-12T12:58:08Z</time>
      </trkpt>
      <trkpt lat="44.77725" lon="6.29165">
        <ele>2551.4</ele>
        <time>2024-08-12T12:58:09Z</time>
      </trkpt>
      <trkpt lat="44.77725" lon="6.29165">
        <ele>2551.6</ele>
        <time>2024-08-12T12:58:10Z</time>
      </trkpt>
      <trkpt lat="44.77727" lon="6.29166">
        <ele>2551.8</ele>
        <time>2024-08-12T12:58:11Z</time>
      </trkpt>
      <trkpt lat="44.77727" lon="6.29166">
        <ele>2552</ele>
        <time>2024-08-12T12:58:12Z</time>
      </trkpt>
      <trkpt lat="44.77729" lon="6.29166">
        <ele>2552.4</ele>
        <time>2024-08-12T12:58:13Z</time>
      </trkpt>
      <trkpt lat="44.77729" lon="6.29166">
        <ele>2552.4</ele>
        <time>2024-08-12T12:58:14Z</time>
      </trkpt>
      <trkpt lat="44.77729" lon="6.29166">
        <ele>2552.6</ele>
        <time>2024-08-12T12:58:15Z</time>
      </trkpt>
      <trkpt lat="44.77729" lon="6.29166">
        <ele>2552.6</ele>
        <time>2024-08-12T12:58:16Z</time>
      </trkpt>
      <trkpt lat="44.77731" lon="6.29167">
        <ele>2552.6</ele>
        <time>2024-08-12T12:58:17Z</time>
      </trkpt>
      <trkpt lat="44.77731" lon="6.29167">
        <ele>2552.6</ele>
        <time>2024-08-12T12:58:18Z</time>
      </trkpt>
      <trkpt lat="44.77731" lon="6.29167">
        <ele>2552.8</ele>
        <time>2024-08-12T12:58:19Z</time>
      </trkpt>
      <trkpt lat="44.77733" lon="6.29168">
        <ele>2552.8</ele>
        <time>2024-08-12T12:58:20Z</time>
      </trkpt>
      <trkpt lat="44.77733" lon="6.29168">
        <ele>2552.8</ele>
        <time>2024-08-12T12:58:21Z</time>
      </trkpt>
      <trkpt lat="44.77735" lon="6.29168">
        <ele>2553.2</ele>
        <time>2024-08-12T12:58:22Z</time>
      </trkpt>
      <trkpt lat="44.77735" lon="6.29168">
        <ele>2553.2</ele>
        <time>2024-08-12T12:58:23Z</time>
      </trkpt>
      <trkpt lat="44.77737" lon="6.29169">
        <ele>2553.2</ele>
        <time>2024-08-12T12:58:24Z</time>
      </trkpt>
      <trkpt lat="44.77737" lon="6.29169">
        <ele>2553.8</ele>
        <time>2024-08-12T12:58:25Z</time>
      </trkpt>
      <trkpt lat="44.77739" lon="6.29172">
        <ele>2553.8</ele>
        <time>2024-08-12T12:58:26Z</time>
      </trkpt>
      <trkpt lat="44.77739" lon="6.29172">
        <ele>2553.8</ele>
        <time>2024-08-12T12:58:27Z</time>
      </trkpt>
      <trkpt lat="44.77741" lon="6.29174">
        <ele>2554</ele>
        <time>2024-08-12T12:58:28Z</time>
      </trkpt>
      <trkpt lat="44.77741" lon="6.29174">
        <ele>2554.4</ele>
        <time>2024-08-12T12:58:29Z</time>
      </trkpt>
      <trkpt lat="44.77741" lon="6.29174">
        <ele>2554.8</ele>
        <time>2024-08-12T12:58:30Z</time>
      </trkpt>
      <trkpt lat="44.77742" lon="6.29176">
        <ele>2554.8</ele>
        <time>2024-08-12T12:58:31Z</time>
      </trkpt>
      <trkpt lat="44.77742" lon="6.29176">
        <ele>2555.2</ele>
        <time>2024-08-12T12:58:32Z</time>
      </trkpt>
      <trkpt lat="44.77744" lon="6.29178">
        <ele>2555.4</ele>
        <time>2024-08-12T12:58:33Z</time>
      </trkpt>
      <trkpt lat="44.77744" lon="6.29178">
        <ele>2555.6</ele>
        <time>2024-08-12T12:58:34Z</time>
      </trkpt>
      <trkpt lat="44.77744" lon="6.29178">
        <ele>2555.8</ele>
        <time>2024-08-12T12:58:35Z</time>
      </trkpt>
      <trkpt lat="44.77746" lon="6.2918">
        <ele>2556</ele>
        <time>2024-08-12T12:58:36Z</time>
      </trkpt>
      <trkpt lat="44.77746" lon="6.2918">
        <ele>2556</ele>
        <time>2024-08-12T12:58:37Z</time>
      </trkpt>
      <trkpt lat="44.77747" lon="6.29182">
        <ele>2556.2</ele>
        <time>2024-08-12T12:58:38Z</time>
      </trkpt>
      <trkpt lat="44.77747" lon="6.29182">
        <ele>2556.2</ele>
        <time>2024-08-12T12:58:39Z</time>
      </trkpt>
      <trkpt lat="44.77747" lon="6.29182">
        <ele>2556.4</ele>
        <time>2024-08-12T12:58:40Z</time>
      </trkpt>
      <trkpt lat="44.77749" lon="6.29184">
        <ele>2556.4</ele>
        <time>2024-08-12T12:58:41Z</time>
      </trkpt>
      <trkpt lat="44.77749" lon="6.29184">
        <ele>2556.8</ele>
        <time>2024-08-12T12:58:42Z</time>
      </trkpt>
      <trkpt lat="44.77751" lon="6.29185">
        <ele>2557</ele>
        <time>2024-08-12T12:58:43Z</time>
      </trkpt>
      <trkpt lat="44.77751" lon="6.29185">
        <ele>2557.2</ele>
        <time>2024-08-12T12:58:44Z</time>
      </trkpt>
      <trkpt lat="44.77751" lon="6.29185">
        <ele>2557.4</ele>
        <time>2024-08-12T12:58:45Z</time>
      </trkpt>
      <trkpt lat="44.77753" lon="6.29186">
        <ele>2557.6</ele>
        <time>2024-08-12T12:58:46Z</time>
      </trkpt>
      <trkpt lat="44.77753" lon="6.29186">
        <ele>2557.6</ele>
        <time>2024-08-12T12:58:47Z</time>
      </trkpt>
      <trkpt lat="44.77753" lon="6.29186">
        <ele>2558.2</ele>
        <time>2024-08-12T12:58:48Z</time>
      </trkpt>
      <trkpt lat="44.77753" lon="6.29186">
        <ele>2558.4</ele>
        <time>2024-08-12T12:58:49Z</time>
      </trkpt>
      <trkpt lat="44.77753" lon="6.29186">
        <ele>2558.4</ele>
        <time>2024-08-12T12:58:50Z</time>
      </trkpt>
      <trkpt lat="44.77754" lon="6.29184">
        <ele>2558.6</ele>
        <time>2024-08-12T12:58:51Z</time>
      </trkpt>
      <trkpt lat="44.77754" lon="6.29184">
        <ele>2558.8</ele>
        <time>2024-08-12T12:58:52Z</time>
      </trkpt>
      <trkpt lat="44.77754" lon="6.29184">
        <ele>2558.8</ele>
        <time>2024-08-12T12:58:53Z</time>
      </trkpt>
      <trkpt lat="44.77753" lon="6.29182">
        <ele>2558.8</ele>
        <time>2024-08-12T12:58:54Z</time>
      </trkpt>
      <trkpt lat="44.77753" lon="6.29182">
        <ele>2559.2</ele>
        <time>2024-08-12T12:58:55Z</time>
      </trkpt>
      <trkpt lat="44.77753" lon="6.29182">
        <ele>2559.4</ele>
        <time>2024-08-12T12:58:56Z</time>
      </trkpt>
      <trkpt lat="44.77752" lon="6.29178">
        <ele>2559.4</ele>
        <time>2024-08-12T12:58:57Z</time>
      </trkpt>
      <trkpt lat="44.77752" lon="6.29178">
        <ele>2559.8</ele>
        <time>2024-08-12T12:58:58Z</time>
      </trkpt>
      <trkpt lat="44.77752" lon="6.29178">
        <ele>2560</ele>
        <time>2024-08-12T12:58:59Z</time>
      </trkpt>
      <trkpt lat="44.77752" lon="6.29178">
        <ele>2560</ele>
        <time>2024-08-12T12:59:00Z</time>
      </trkpt>
      <trkpt lat="44.77752" lon="6.29178">
        <ele>2560</ele>
        <time>2024-08-12T12:59:01Z</time>
      </trkpt>
      <trkpt lat="44.77752" lon="6.29175">
        <ele>2560.2</ele>
        <time>2024-08-12T12:59:02Z</time>
      </trkpt>
      <trkpt lat="44.77752" lon="6.29175">
        <ele>2560.2</ele>
        <time>2024-08-12T12:59:03Z</time>
      </trkpt>
      <trkpt lat="44.77752" lon="6.29175">
        <ele>2560.4</ele>
        <time>2024-08-12T12:59:04Z</time>
      </trkpt>
      <trkpt lat="44.77751" lon="6.29173">
        <ele>2560.4</ele>
        <time>2024-08-12T12:59:05Z</time>
      </trkpt>
      <trkpt lat="44.77751" lon="6.29173">
        <ele>2560.4</ele>
        <time>2024-08-12T12:59:06Z</time>
      </trkpt>
      <trkpt lat="44.7775" lon="6.2917">
        <ele>2560.6</ele>
        <time>2024-08-12T12:59:07Z</time>
      </trkpt>
      <trkpt lat="44.7775" lon="6.2917">
        <ele>2561.2</ele>
        <time>2024-08-12T12:59:08Z</time>
      </trkpt>
      <trkpt lat="44.77749" lon="6.29167">
        <ele>2561.4</ele>
        <time>2024-08-12T12:59:09Z</time>
      </trkpt>
      <trkpt lat="44.77749" lon="6.29167">
        <ele>2561.6</ele>
        <time>2024-08-12T12:59:10Z</time>
      </trkpt>
      <trkpt lat="44.77749" lon="6.29167">
        <ele>2561.6</ele>
        <time>2024-08-12T12:59:11Z</time>
      </trkpt>
      <trkpt lat="44.77749" lon="6.29164">
        <ele>2562</ele>
        <time>2024-08-12T12:59:12Z</time>
      </trkpt>
      <trkpt lat="44.77749" lon="6.29164">
        <ele>2562</ele>
        <time>2024-08-12T12:59:13Z</time>
      </trkpt>
      <trkpt lat="44.77749" lon="6.29164">
        <ele>2562.4</ele>
        <time>2024-08-12T12:59:14Z</time>
      </trkpt>
      <trkpt lat="44.77748" lon="6.29161">
        <ele>2562.4</ele>
        <time>2024-08-12T12:59:15Z</time>
      </trkpt>
      <trkpt lat="44.77748" lon="6.29161">
        <ele>2562.6</ele>
        <time>2024-08-12T12:59:16Z</time>
      </trkpt>
      <trkpt lat="44.77748" lon="6.29161">
        <ele>2562.6</ele>
        <time>2024-08-12T12:59:17Z</time>
      </trkpt>
      <trkpt lat="44.77747" lon="6.29158">
        <ele>2562.8</ele>
        <time>2024-08-12T12:59:18Z</time>
      </trkpt>
      <trkpt lat="44.77747" lon="6.29158">
        <ele>2563</ele>
        <time>2024-08-12T12:59:19Z</time>
      </trkpt>
      <trkpt lat="44.77747" lon="6.29158">
        <ele>2563.2</ele>
        <time>2024-08-12T12:59:20Z</time>
      </trkpt>
      <trkpt lat="44.77746" lon="6.29155">
        <ele>2563.6</ele>
        <time>2024-08-12T12:59:21Z</time>
      </trkpt>
      <trkpt lat="44.77746" lon="6.29155">
        <ele>2563.8</ele>
        <time>2024-08-12T12:59:22Z</time>
      </trkpt>
      <trkpt lat="44.77746" lon="6.29155">
        <ele>2563.8</ele>
        <time>2024-08-12T12:59:23Z</time>
      </trkpt>
      <trkpt lat="44.77745" lon="6.29152">
        <ele>2564</ele>
        <time>2024-08-12T12:59:24Z</time>
      </trkpt>
      <trkpt lat="44.77745" lon="6.29152">
        <ele>2564.2</ele>
        <time>2024-08-12T12:59:25Z</time>
      </trkpt>
      <trkpt lat="44.77745" lon="6.29152">
        <ele>2564.4</ele>
        <time>2024-08-12T12:59:26Z</time>
      </trkpt>
      <trkpt lat="44.77745" lon="6.29149">
        <ele>2564.6</ele>
        <time>2024-08-12T12:59:27Z</time>
      </trkpt>
      <trkpt lat="44.77745" lon="6.29149">
        <ele>2564.6</ele>
        <time>2024-08-12T12:59:28Z</time>
      </trkpt>
      <trkpt lat="44.77745" lon="6.29149">
        <ele>2564.8</ele>
        <time>2024-08-12T12:59:29Z</time>
      </trkpt>
      <trkpt lat="44.77744" lon="6.29145">
        <ele>2565</ele>
        <time>2024-08-12T12:59:30Z</time>
      </trkpt>
      <trkpt lat="44.77744" lon="6.29145">
        <ele>2565.2</ele>
        <time>2024-08-12T12:59:31Z</time>
      </trkpt>
      <trkpt lat="44.77744" lon="6.29145">
        <ele>2565.2</ele>
        <time>2024-08-12T12:59:32Z</time>
      </trkpt>
      <trkpt lat="44.77743" lon="6.29143">
        <ele>2565.4</ele>
        <time>2024-08-12T12:59:33Z</time>
      </trkpt>
      <trkpt lat="44.77743" lon="6.29143">
        <ele>2565.8</ele>
        <time>2024-08-12T12:59:34Z</time>
      </trkpt>
      <trkpt lat="44.77743" lon="6.29143">
        <ele>2565.6</ele>
        <time>2024-08-12T12:59:35Z</time>
      </trkpt>
      <trkpt lat="44.77743" lon="6.29143">
        <ele>2565.6</ele>
        <time>2024-08-12T12:59:36Z</time>
      </trkpt>
      <trkpt lat="44.77743" lon="6.29139">
        <ele>2565.8</ele>
        <time>2024-08-12T12:59:37Z</time>
      </trkpt>
      <trkpt lat="44.77743" lon="6.29139">
        <ele>2565.8</ele>
        <time>2024-08-12T12:59:38Z</time>
      </trkpt>
      <trkpt lat="44.77743" lon="6.29139">
        <ele>2565.8</ele>
        <time>2024-08-12T12:59:39Z</time>
      </trkpt>
      <trkpt lat="44.77742" lon="6.29136">
        <ele>2565.8</ele>
        <time>2024-08-12T12:59:40Z</time>
      </trkpt>
      <trkpt lat="44.77742" lon="6.29136">
        <ele>2565.8</ele>
        <time>2024-08-12T12:59:41Z</time>
      </trkpt>
      <trkpt lat="44.77741" lon="6.29134">
        <ele>2566</ele>
        <time>2024-08-12T12:59:42Z</time>
      </trkpt>
      <trkpt lat="44.77741" lon="6.29134">
        <ele>2566.6</ele>
        <time>2024-08-12T12:59:43Z</time>
      </trkpt>
      <trkpt lat="44.77741" lon="6.29134">
        <ele>2567</ele>
        <time>2024-08-12T12:59:44Z</time>
      </trkpt>
      <trkpt lat="44.7774" lon="6.29131">
        <ele>2567.4</ele>
        <time>2024-08-12T12:59:45Z</time>
      </trkpt>
      <trkpt lat="44.7774" lon="6.29131">
        <ele>2567.4</ele>
        <time>2024-08-12T12:59:46Z</time>
      </trkpt>
      <trkpt lat="44.7774" lon="6.29131">
        <ele>2567.4</ele>
        <time>2024-08-12T12:59:47Z</time>
      </trkpt>
      <trkpt lat="44.77739" lon="6.29127">
        <ele>2567.4</ele>
        <time>2024-08-12T12:59:48Z</time>
      </trkpt>
      <trkpt lat="44.77739" lon="6.29127">
        <ele>2567.4</ele>
        <time>2024-08-12T12:59:49Z</time>
      </trkpt>
      <trkpt lat="44.77739" lon="6.29127">
        <ele>2567.8</ele>
        <time>2024-08-12T12:59:50Z</time>
      </trkpt>
      <trkpt lat="44.77739" lon="6.29124">
        <ele>2567.8</ele>
        <time>2024-08-12T12:59:51Z</time>
      </trkpt>
      <trkpt lat="44.77739" lon="6.29124">
        <ele>2568</ele>
        <time>2024-08-12T12:59:52Z</time>
      </trkpt>
      <trkpt lat="44.77738" lon="6.29121">
        <ele>2568</ele>
        <time>2024-08-12T12:59:53Z</time>
      </trkpt>
      <trkpt lat="44.77738" lon="6.29121">
        <ele>2568</ele>
        <time>2024-08-12T12:59:54Z</time>
      </trkpt>
      <trkpt lat="44.77738" lon="6.29121">
        <ele>2568</ele>
        <time>2024-08-12T12:59:55Z</time>
      </trkpt>
      <trkpt lat="44.77737" lon="6.29118">
        <ele>2568</ele>
        <time>2024-08-12T12:59:56Z</time>
      </trkpt>
      <trkpt lat="44.77737" lon="6.29118">
        <ele>2568.2</ele>
        <time>2024-08-12T12:59:57Z</time>
      </trkpt>
      <trkpt lat="44.77737" lon="6.29118">
        <ele>2568.4</ele>
        <time>2024-08-12T12:59:58Z</time>
      </trkpt>
      <trkpt lat="44.77736" lon="6.29115">
        <ele>2568.6</ele>
        <time>2024-08-12T12:59:59Z</time>
      </trkpt>
      <trkpt lat="44.77736" lon="6.29115">
        <ele>2568.6</ele>
        <time>2024-08-12T13:00:00Z</time>
      </trkpt>
      <trkpt lat="44.77736" lon="6.29115">
        <ele>2568.6</ele>
        <time>2024-08-12T13:00:01Z</time>
      </trkpt>
      <trkpt lat="44.77735" lon="6.29112">
        <ele>2569</ele>
        <time>2024-08-12T13:00:02Z</time>
      </trkpt>
      <trkpt lat="44.77735" lon="6.29112">
        <ele>2569</ele>
        <time>2024-08-12T13:00:03Z</time>
      </trkpt>
      <trkpt lat="44.77735" lon="6.29112">
        <ele>2569</ele>
        <time>2024-08-12T13:00:04Z</time>
      </trkpt>
      <trkpt lat="44.77733" lon="6.2911">
        <ele>2569.4</ele>
        <time>2024-08-12T13:00:05Z</time>
      </trkpt>
      <trkpt lat="44.77733" lon="6.2911">
        <ele>2569.6</ele>
        <time>2024-08-12T13:00:06Z</time>
      </trkpt>
      <trkpt lat="44.77733" lon="6.2911">
        <ele>2569.6</ele>
        <time>2024-08-12T13:00:07Z</time>
      </trkpt>
      <trkpt lat="44.77731" lon="6.29108">
        <ele>2569.6</ele>
        <time>2024-08-12T13:00:08Z</time>
      </trkpt>
      <trkpt lat="44.77731" lon="6.29108">
        <ele>2569.6</ele>
        <time>2024-08-12T13:00:09Z</time>
      </trkpt>
      <trkpt lat="44.77731" lon="6.29108">
        <ele>2569.8</ele>
        <time>2024-08-12T13:00:10Z</time>
      </trkpt>
      <trkpt lat="44.77729" lon="6.29107">
        <ele>2569.8</ele>
        <time>2024-08-12T13:00:11Z</time>
      </trkpt>
      <trkpt lat="44.77729" lon="6.29107">
        <ele>2570</ele>
        <time>2024-08-12T13:00:12Z</time>
      </trkpt>
      <trkpt lat="44.77729" lon="6.29107">
        <ele>2570.2</ele>
        <time>2024-08-12T13:00:13Z</time>
      </trkpt>
      <trkpt lat="44.77727" lon="6.29106">
        <ele>2570.6</ele>
        <time>2024-08-12T13:00:14Z</time>
      </trkpt>
      <trkpt lat="44.77727" lon="6.29106">
        <ele>2570.6</ele>
        <time>2024-08-12T13:00:15Z</time>
      </trkpt>
      <trkpt lat="44.77727" lon="6.29106">
        <ele>2570.6</ele>
        <time>2024-08-12T13:00:16Z</time>
      </trkpt>
      <trkpt lat="44.77725" lon="6.29106">
        <ele>2570.6</ele>
        <time>2024-08-12T13:00:17Z</time>
      </trkpt>
      <trkpt lat="44.77725" lon="6.29106">
        <ele>2570.8</ele>
        <time>2024-08-12T13:00:18Z</time>
      </trkpt>
      <trkpt lat="44.77725" lon="6.29106">
        <ele>2571</ele>
        <time>2024-08-12T13:00:19Z</time>
      </trkpt>
      <trkpt lat="44.77725" lon="6.29106">
        <ele>2571.2</ele>
        <time>2024-08-12T13:00:20Z</time>
      </trkpt>
      <trkpt lat="44.77725" lon="6.29103">
        <ele>2571.4</ele>
        <time>2024-08-12T13:00:21Z</time>
      </trkpt>
      <trkpt lat="44.77725" lon="6.29103">
        <ele>2571.4</ele>
        <time>2024-08-12T13:00:22Z</time>
      </trkpt>
      <trkpt lat="44.77727" lon="6.29102">
        <ele>2571.4</ele>
        <time>2024-08-12T13:00:23Z</time>
      </trkpt>
      <trkpt lat="44.77727" lon="6.29102">
        <ele>2572</ele>
        <time>2024-08-12T13:00:24Z</time>
      </trkpt>
      <trkpt lat="44.77729" lon="6.29102">
        <ele>2572.2</ele>
        <time>2024-08-12T13:00:25Z</time>
      </trkpt>
      <trkpt lat="44.77729" lon="6.29102">
        <ele>2572.4</ele>
        <time>2024-08-12T13:00:26Z</time>
      </trkpt>
      <trkpt lat="44.77729" lon="6.29102">
        <ele>2572.4</ele>
        <time>2024-08-12T13:00:27Z</time>
      </trkpt>
      <trkpt lat="44.77729" lon="6.29102">
        <ele>2572.4</ele>
        <time>2024-08-12T13:00:28Z</time>
      </trkpt>
      <trkpt lat="44.77729" lon="6.29102">
        <ele>2572.4</ele>
        <time>2024-08-12T13:00:29Z</time>
      </trkpt>
      <trkpt lat="44.77729" lon="6.29102">
        <ele>2572.4</ele>
        <time>2024-08-12T13:00:30Z</time>
      </trkpt>
      <trkpt lat="44.77729" lon="6.29102">
        <ele>2572.6</ele>
        <time>2024-08-12T13:00:31Z</time>
      </trkpt>
      <trkpt lat="44.77729" lon="6.29102">
        <ele>2573</ele>
        <time>2024-08-12T13:00:32Z</time>
      </trkpt>
      <trkpt lat="44.77729" lon="6.29102">
        <ele>2573.4</ele>
        <time>2024-08-12T13:00:33Z</time>
      </trkpt>
      <trkpt lat="44.77731" lon="6.29101">
        <ele>2573.4</ele>
        <time>2024-08-12T13:00:34Z</time>
      </trkpt>
      <trkpt lat="44.77731" lon="6.29101">
        <ele>2573.8</ele>
        <time>2024-08-12T13:00:35Z</time>
      </trkpt>
      <trkpt lat="44.77731" lon="6.29101">
        <ele>2574.4</ele>
        <time>2024-08-12T13:00:36Z</time>
      </trkpt>
      <trkpt lat="44.77734" lon="6.29099">
        <ele>2574.4</ele>
        <time>2024-08-12T13:00:37Z</time>
      </trkpt>
      <trkpt lat="44.77734" lon="6.29099">
        <ele>2575</ele>
        <time>2024-08-12T13:00:38Z</time>
      </trkpt>
      <trkpt lat="44.77736" lon="6.29098">
        <ele>2575.4</ele>
        <time>2024-08-12T13:00:39Z</time>
      </trkpt>
      <trkpt lat="44.77736" lon="6.29098">
        <ele>2575.6</ele>
        <time>2024-08-12T13:00:40Z</time>
      </trkpt>
      <trkpt lat="44.77738" lon="6.29098">
        <ele>2576</ele>
        <time>2024-08-12T13:00:41Z</time>
      </trkpt>
      <trkpt lat="44.77738" lon="6.29098">
        <ele>2576</ele>
        <time>2024-08-12T13:00:42Z</time>
      </trkpt>
      <trkpt lat="44.77741" lon="6.29098">
        <ele>2576</ele>
        <time>2024-08-12T13:00:43Z</time>
      </trkpt>
      <trkpt lat="44.77741" lon="6.29098">
        <ele>2576.2</ele>
        <time>2024-08-12T13:00:44Z</time>
      </trkpt>
      <trkpt lat="44.77743" lon="6.29099">
        <ele>2576.2</ele>
        <time>2024-08-12T13:00:45Z</time>
      </trkpt>
      <trkpt lat="44.77743" lon="6.29099">
        <ele>2576.4</ele>
        <time>2024-08-12T13:00:46Z</time>
      </trkpt>
      <trkpt lat="44.77743" lon="6.29099">
        <ele>2576.4</ele>
        <time>2024-08-12T13:00:47Z</time>
      </trkpt>
      <trkpt lat="44.77746" lon="6.29101">
        <ele>2576.6</ele>
        <time>2024-08-12T13:00:48Z</time>
      </trkpt>
      <trkpt lat="44.77746" lon="6.29101">
        <ele>2576.6</ele>
        <time>2024-08-12T13:00:49Z</time>
      </trkpt>
      <trkpt lat="44.77746" lon="6.29101">
        <ele>2576.8</ele>
        <time>2024-08-12T13:00:50Z</time>
      </trkpt>
      <trkpt lat="44.77748" lon="6.29103">
        <ele>2576.8</ele>
        <time>2024-08-12T13:00:51Z</time>
      </trkpt>
      <trkpt lat="44.77748" lon="6.29103">
        <ele>2577</ele>
        <time>2024-08-12T13:00:52Z</time>
      </trkpt>
      <trkpt lat="44.77748" lon="6.29103">
        <ele>2577.2</ele>
        <time>2024-08-12T13:00:53Z</time>
      </trkpt>
      <trkpt lat="44.7775" lon="6.29105">
        <ele>2577.4</ele>
        <time>2024-08-12T13:00:54Z</time>
      </trkpt>
      <trkpt lat="44.7775" lon="6.29105">
        <ele>2577.6</ele>
        <time>2024-08-12T13:00:55Z</time>
      </trkpt>
      <trkpt lat="44.7775" lon="6.29105">
        <ele>2578.2</ele>
        <time>2024-08-12T13:00:56Z</time>
      </trkpt>
      <trkpt lat="44.77751" lon="6.29108">
        <ele>2578.2</ele>
        <time>2024-08-12T13:00:57Z</time>
      </trkpt>
      <trkpt lat="44.77751" lon="6.29108">
        <ele>2578.2</ele>
        <time>2024-08-12T13:00:58Z</time>
      </trkpt>
      <trkpt lat="44.77751" lon="6.29108">
        <ele>2578.2</ele>
        <time>2024-08-12T13:00:59Z</time>
      </trkpt>
      <trkpt lat="44.77752" lon="6.29111">
        <ele>2578.2</ele>
        <time>2024-08-12T13:01:00Z</time>
      </trkpt>
      <trkpt lat="44.77752" lon="6.29111">
        <ele>2578.4</ele>
        <time>2024-08-12T13:01:01Z</time>
      </trkpt>
      <trkpt lat="44.77752" lon="6.29111">
        <ele>2579</ele>
        <time>2024-08-12T13:01:02Z</time>
      </trkpt>
      <trkpt lat="44.77753" lon="6.29114">
        <ele>2579</ele>
        <time>2024-08-12T13:01:03Z</time>
      </trkpt>
      <trkpt lat="44.77753" lon="6.29114">
        <ele>2579.2</ele>
        <time>2024-08-12T13:01:04Z</time>
      </trkpt>
      <trkpt lat="44.77753" lon="6.29114">
        <ele>2579.4</ele>
        <time>2024-08-12T13:01:05Z</time>
      </trkpt>
      <trkpt lat="44.77754" lon="6.29116">
        <ele>2579.4</ele>
        <time>2024-08-12T13:01:06Z</time>
      </trkpt>
      <trkpt lat="44.77754" lon="6.29116">
        <ele>2579.6</ele>
        <time>2024-08-12T13:01:07Z</time>
      </trkpt>
      <trkpt lat="44.77754" lon="6.29116">
        <ele>2579.8</ele>
        <time>2024-08-12T13:01:08Z</time>
      </trkpt>
      <trkpt lat="44.77756" lon="6.29118">
        <ele>2580</ele>
        <time>2024-08-12T13:01:09Z</time>
      </trkpt>
      <trkpt lat="44.77756" lon="6.29118">
        <ele>2580.4</ele>
        <time>2024-08-12T13:01:10Z</time>
      </trkpt>
      <trkpt lat="44.77758" lon="6.2912">
        <ele>2581</ele>
        <time>2024-08-12T13:01:11Z</time>
      </trkpt>
      <trkpt lat="44.77758" lon="6.2912">
        <ele>2581</ele>
        <time>2024-08-12T13:01:12Z</time>
      </trkpt>
      <trkpt lat="44.77758" lon="6.2912">
        <ele>2581.2</ele>
        <time>2024-08-12T13:01:13Z</time>
      </trkpt>
      <trkpt lat="44.7776" lon="6.29121">
        <ele>2581.6</ele>
        <time>2024-08-12T13:01:14Z</time>
      </trkpt>
      <trkpt lat="44.7776" lon="6.29121">
        <ele>2582</ele>
        <time>2024-08-12T13:01:15Z</time>
      </trkpt>
      <trkpt lat="44.7776" lon="6.29121">
        <ele>2582.2</ele>
        <time>2024-08-12T13:01:16Z</time>
      </trkpt>
      <trkpt lat="44.7776" lon="6.29118">
        <ele>2582.6</ele>
        <time>2024-08-12T13:01:17Z</time>
      </trkpt>
      <trkpt lat="44.7776" lon="6.29118">
        <ele>2582.8</ele>
        <time>2024-08-12T13:01:18Z</time>
      </trkpt>
      <trkpt lat="44.7776" lon="6.29118">
        <ele>2582.8</ele>
        <time>2024-08-12T13:01:19Z</time>
      </trkpt>
      <trkpt lat="44.7776" lon="6.29115">
        <ele>2582.8</ele>
        <time>2024-08-12T13:01:20Z</time>
      </trkpt>
      <trkpt lat="44.7776" lon="6.29115">
        <ele>2582.8</ele>
        <time>2024-08-12T13:01:21Z</time>
      </trkpt>
      <trkpt lat="44.7776" lon="6.29115">
        <ele>2583</ele>
        <time>2024-08-12T13:01:22Z</time>
      </trkpt>
      <trkpt lat="44.77761" lon="6.29112">
        <ele>2583.2</ele>
        <time>2024-08-12T13:01:23Z</time>
      </trkpt>
      <trkpt lat="44.77761" lon="6.29112">
        <ele>2583.2</ele>
        <time>2024-08-12T13:01:24Z</time>
      </trkpt>
      <trkpt lat="44.77761" lon="6.29112">
        <ele>2583.2</ele>
        <time>2024-08-12T13:01:25Z</time>
      </trkpt>
      <trkpt lat="44.7776" lon="6.29108">
        <ele>2583.2</ele>
        <time>2024-08-12T13:01:26Z</time>
      </trkpt>
      <trkpt lat="44.7776" lon="6.29108">
        <ele>2583.4</ele>
        <time>2024-08-12T13:01:27Z</time>
      </trkpt>
      <trkpt lat="44.7776" lon="6.29108">
        <ele>2583.8</ele>
        <time>2024-08-12T13:01:28Z</time>
      </trkpt>
      <trkpt lat="44.7776" lon="6.29105">
        <ele>2584.2</ele>
        <time>2024-08-12T13:01:29Z</time>
      </trkpt>
      <trkpt lat="44.7776" lon="6.29105">
        <ele>2584.2</ele>
        <time>2024-08-12T13:01:30Z</time>
      </trkpt>
      <trkpt lat="44.7776" lon="6.29102">
        <ele>2584.2</ele>
        <time>2024-08-12T13:01:31Z</time>
      </trkpt>
      <trkpt lat="44.7776" lon="6.29102">
        <ele>2584.2</ele>
        <time>2024-08-12T13:01:32Z</time>
      </trkpt>
      <trkpt lat="44.7776" lon="6.29099">
        <ele>2584.4</ele>
        <time>2024-08-12T13:01:33Z</time>
      </trkpt>
      <trkpt lat="44.7776" lon="6.29099">
        <ele>2584.4</ele>
        <time>2024-08-12T13:01:34Z</time>
      </trkpt>
      <trkpt lat="44.7776" lon="6.29099">
        <ele>2584.6</ele>
        <time>2024-08-12T13:01:35Z</time>
      </trkpt>
      <trkpt lat="44.7776" lon="6.29095">
        <ele>2584.8</ele>
        <time>2024-08-12T13:01:36Z</time>
      </trkpt>
      <trkpt lat="44.7776" lon="6.29095">
        <ele>2584.8</ele>
        <time>2024-08-12T13:01:37Z</time>
      </trkpt>
      <trkpt lat="44.7776" lon="6.29095">
        <ele>2585</ele>
        <time>2024-08-12T13:01:38Z</time>
      </trkpt>
      <trkpt lat="44.7776" lon="6.29092">
        <ele>2585.4</ele>
        <time>2024-08-12T13:01:39Z</time>
      </trkpt>
      <trkpt lat="44.7776" lon="6.29092">
        <ele>2585.6</ele>
        <time>2024-08-12T13:01:40Z</time>
      </trkpt>
      <trkpt lat="44.7776" lon="6.29092">
        <ele>2586.2</ele>
        <time>2024-08-12T13:01:41Z</time>
      </trkpt>
      <trkpt lat="44.77759" lon="6.29089">
        <ele>2586.6</ele>
        <time>2024-08-12T13:01:42Z</time>
      </trkpt>
      <trkpt lat="44.77759" lon="6.29089">
        <ele>2587.2</ele>
        <time>2024-08-12T13:01:43Z</time>
      </trkpt>
      <trkpt lat="44.77759" lon="6.29089">
        <ele>2587.2</ele>
        <time>2024-08-12T13:01:44Z</time>
      </trkpt>
      <trkpt lat="44.77758" lon="6.29086">
        <ele>2587.2</ele>
        <time>2024-08-12T13:01:45Z</time>
      </trkpt>
      <trkpt lat="44.77758" lon="6.29086">
        <ele>2587.2</ele>
        <time>2024-08-12T13:01:46Z</time>
      </trkpt>
      <trkpt lat="44.77758" lon="6.29083">
        <ele>2587</ele>
        <time>2024-08-12T13:01:47Z</time>
      </trkpt>
      <trkpt lat="44.77758" lon="6.29083">
        <ele>2587</ele>
        <time>2024-08-12T13:01:48Z</time>
      </trkpt>
      <trkpt lat="44.77757" lon="6.29081">
        <ele>2587.2</ele>
        <time>2024-08-12T13:01:49Z</time>
      </trkpt>
      <trkpt lat="44.77757" lon="6.29081">
        <ele>2587.4</ele>
        <time>2024-08-12T13:01:50Z</time>
      </trkpt>
      <trkpt lat="44.77757" lon="6.29078">
        <ele>2587.4</ele>
        <time>2024-08-12T13:01:51Z</time>
      </trkpt>
      <trkpt lat="44.77757" lon="6.29078">
        <ele>2587.6</ele>
        <time>2024-08-12T13:01:52Z</time>
      </trkpt>
      <trkpt lat="44.77757" lon="6.29078">
        <ele>2587.6</ele>
        <time>2024-08-12T13:01:53Z</time>
      </trkpt>
      <trkpt lat="44.77755" lon="6.29075">
        <ele>2587.8</ele>
        <time>2024-08-12T13:01:54Z</time>
      </trkpt>
      <trkpt lat="44.77755" lon="6.29075">
        <ele>2587.8</ele>
        <time>2024-08-12T13:01:55Z</time>
      </trkpt>
      <trkpt lat="44.77755" lon="6.29075">
        <ele>2588</ele>
        <time>2024-08-12T13:01:56Z</time>
      </trkpt>
      <trkpt lat="44.77754" lon="6.29072">
        <ele>2588.2</ele>
        <time>2024-08-12T13:01:57Z</time>
      </trkpt>
      <trkpt lat="44.77754" lon="6.29072">
        <ele>2588.4</ele>
        <time>2024-08-12T13:01:58Z</time>
      </trkpt>
      <trkpt lat="44.77754" lon="6.29072">
        <ele>2588.6</ele>
        <time>2024-08-12T13:01:59Z</time>
      </trkpt>
      <trkpt lat="44.77753" lon="6.2907">
        <ele>2589.4</ele>
        <time>2024-08-12T13:02:00Z</time>
      </trkpt>
      <trkpt lat="44.77753" lon="6.2907">
        <ele>2589.4</ele>
        <time>2024-08-12T13:02:01Z</time>
      </trkpt>
      <trkpt lat="44.77753" lon="6.2907">
        <ele>2589.4</ele>
        <time>2024-08-12T13:02:02Z</time>
      </trkpt>
      <trkpt lat="44.77751" lon="6.29069">
        <ele>2589.4</ele>
        <time>2024-08-12T13:02:03Z</time>
      </trkpt>
      <trkpt lat="44.77751" lon="6.29069">
        <ele>2589.8</ele>
        <time>2024-08-12T13:02:04Z</time>
      </trkpt>
      <trkpt lat="44.77751" lon="6.29069">
        <ele>2590</ele>
        <time>2024-08-12T13:02:05Z</time>
      </trkpt>
      <trkpt lat="44.77751" lon="6.29069">
        <ele>2590</ele>
        <time>2024-08-12T13:02:06Z</time>
      </trkpt>
      <trkpt lat="44.77749" lon="6.29067">
        <ele>2590.2</ele>
        <time>2024-08-12T13:02:07Z</time>
      </trkpt>
      <trkpt lat="44.77749" lon="6.29067">
        <ele>2590.6</ele>
        <time>2024-08-12T13:02:08Z</time>
      </trkpt>
      <trkpt lat="44.77749" lon="6.29067">
        <ele>2590.6</ele>
        <time>2024-08-12T13:02:09Z</time>
      </trkpt>
      <trkpt lat="44.77749" lon="6.29067">
        <ele>2590.6</ele>
        <time>2024-08-12T13:02:10Z</time>
      </trkpt>
      <trkpt lat="44.77747" lon="6.29066">
        <ele>2590.8</ele>
        <time>2024-08-12T13:02:11Z</time>
      </trkpt>
      <trkpt lat="44.77747" lon="6.29066">
        <ele>2590.8</ele>
        <time>2024-08-12T13:02:12Z</time>
      </trkpt>
      <trkpt lat="44.77747" lon="6.29066">
        <ele>2591</ele>
        <time>2024-08-12T13:02:13Z</time>
      </trkpt>
      <trkpt lat="44.77747" lon="6.29066">
        <ele>2591.2</ele>
        <time>2024-08-12T13:02:14Z</time>
      </trkpt>
      <trkpt lat="44.77747" lon="6.29066">
        <ele>2591.2</ele>
        <time>2024-08-12T13:02:15Z</time>
      </trkpt>
      <trkpt lat="44.77747" lon="6.29066">
        <ele>2591.4</ele>
        <time>2024-08-12T13:02:16Z</time>
      </trkpt>
      <trkpt lat="44.77747" lon="6.29066">
        <ele>2591.4</ele>
        <time>2024-08-12T13:02:17Z</time>
      </trkpt>
      <trkpt lat="44.77747" lon="6.29066">
        <ele>2591.4</ele>
        <time>2024-08-12T13:02:18Z</time>
      </trkpt>
      <trkpt lat="44.77747" lon="6.29066">
        <ele>2591.2</ele>
        <time>2024-08-12T13:02:19Z</time>
      </trkpt>
      <trkpt lat="44.77747" lon="6.29066">
        <ele>2591.2</ele>
        <time>2024-08-12T13:02:20Z</time>
      </trkpt>
      <trkpt lat="44.77747" lon="6.29066">
        <ele>2591.2</ele>
        <time>2024-08-12T13:02:21Z</time>
      </trkpt>
      <trkpt lat="44.77747" lon="6.29066">
        <ele>2591.4</ele>
        <time>2024-08-12T13:02:22Z</time>
      </trkpt>
      <trkpt lat="44.77747" lon="6.29066">
        <ele>2591.4</ele>
        <time>2024-08-12T13:02:23Z</time>
      </trkpt>
      <trkpt lat="44.77747" lon="6.29066">
        <ele>2591.4</ele>
        <time>2024-08-12T13:02:24Z</time>
      </trkpt>
      <trkpt lat="44.77747" lon="6.29066">
        <ele>2591.4</ele>
        <time>2024-08-12T13:02:25Z</time>
      </trkpt>
      <trkpt lat="44.77747" lon="6.29066">
        <ele>2591.8</ele>
        <time>2024-08-12T13:02:26Z</time>
      </trkpt>
      <trkpt lat="44.77747" lon="6.29066">
        <ele>2592</ele>
        <time>2024-08-12T13:02:27Z</time>
      </trkpt>
      <trkpt lat="44.77747" lon="6.29066">
        <ele>2592.4</ele>
        <time>2024-08-12T13:02:28Z</time>
      </trkpt>
      <trkpt lat="44.77747" lon="6.29066">
        <ele>2592.4</ele>
        <time>2024-08-12T13:02:29Z</time>
      </trkpt>
      <trkpt lat="44.77747" lon="6.29066">
        <ele>2592</ele>
        <time>2024-08-12T13:02:30Z</time>
      </trkpt>
      <trkpt lat="44.77747" lon="6.29066">
        <ele>2592</ele>
        <time>2024-08-12T13:02:31Z</time>
      </trkpt>
      <trkpt lat="44.77747" lon="6.29066">
        <ele>2592.6</ele>
        <time>2024-08-12T13:02:32Z</time>
      </trkpt>
      <trkpt lat="44.77747" lon="6.29066">
        <ele>2592.6</ele>
        <time>2024-08-12T13:02:33Z</time>
      </trkpt>
      <trkpt lat="44.77747" lon="6.29066">
        <ele>2592.6</ele>
        <time>2024-08-12T13:02:34Z</time>
      </trkpt>
      <trkpt lat="44.77747" lon="6.29066">
        <ele>2593</ele>
        <time>2024-08-12T13:02:35Z</time>
      </trkpt>
      <trkpt lat="44.77747" lon="6.29066">
        <ele>2593</ele>
        <time>2024-08-12T13:02:36Z</time>
      </trkpt>
      <trkpt lat="44.77747" lon="6.29066">
        <ele>2593.2</ele>
        <time>2024-08-12T13:02:37Z</time>
      </trkpt>
      <trkpt lat="44.77747" lon="6.29066">
        <ele>2593.4</ele>
        <time>2024-08-12T13:02:38Z</time>
      </trkpt>
      <trkpt lat="44.77747" lon="6.29066">
        <ele>2593.6</ele>
        <time>2024-08-12T13:02:39Z</time>
      </trkpt>
      <trkpt lat="44.77745" lon="6.29064">
        <ele>2594.2</ele>
        <time>2024-08-12T13:02:40Z</time>
      </trkpt>
      <trkpt lat="44.77743" lon="6.29063">
        <ele>2594.4</ele>
        <time>2024-08-12T13:02:41Z</time>
      </trkpt>
      <trkpt lat="44.77741" lon="6.29061">
        <ele>2594.8</ele>
        <time>2024-08-12T13:02:42Z</time>
      </trkpt>
      <trkpt lat="44.77739" lon="6.2906">
        <ele>2594.8</ele>
        <time>2024-08-12T13:02:43Z</time>
      </trkpt>
      <trkpt lat="44.77739" lon="6.2906">
        <ele>2595.2</ele>
        <time>2024-08-12T13:02:44Z</time>
      </trkpt>
      <trkpt lat="44.77736" lon="6.29059">
        <ele>2595.6</ele>
        <time>2024-08-12T13:02:45Z</time>
      </trkpt>
      <trkpt lat="44.77736" lon="6.29059">
        <ele>2595.6</ele>
        <time>2024-08-12T13:02:46Z</time>
      </trkpt>
      <trkpt lat="44.77734" lon="6.29058">
        <ele>2595.6</ele>
        <time>2024-08-12T13:02:47Z</time>
      </trkpt>
      <trkpt lat="44.77734" lon="6.29058">
        <ele>2595.8</ele>
        <time>2024-08-12T13:02:48Z</time>
      </trkpt>
      <trkpt lat="44.77734" lon="6.29058">
        <ele>2596</ele>
        <time>2024-08-12T13:02:49Z</time>
      </trkpt>
      <trkpt lat="44.77732" lon="6.29057">
        <ele>2596</ele>
        <time>2024-08-12T13:02:50Z</time>
      </trkpt>
      <trkpt lat="44.77732" lon="6.29057">
        <ele>2596</ele>
        <time>2024-08-12T13:02:51Z</time>
      </trkpt>
      <trkpt lat="44.7773" lon="6.29056">
        <ele>2596.2</ele>
        <time>2024-08-12T13:02:52Z</time>
      </trkpt>
      <trkpt lat="44.7773" lon="6.29056">
        <ele>2596.4</ele>
        <time>2024-08-12T13:02:53Z</time>
      </trkpt>
      <trkpt lat="44.77729" lon="6.29054">
        <ele>2596.4</ele>
        <time>2024-08-12T13:02:54Z</time>
      </trkpt>
      <trkpt lat="44.77729" lon="6.29054">
        <ele>2596.8</ele>
        <time>2024-08-12T13:02:55Z</time>
      </trkpt>
      <trkpt lat="44.77727" lon="6.29052">
        <ele>2597</ele>
        <time>2024-08-12T13:02:56Z</time>
      </trkpt>
      <trkpt lat="44.77727" lon="6.29052">
        <ele>2597.2</ele>
        <time>2024-08-12T13:02:57Z</time>
      </trkpt>
      <trkpt lat="44.77727" lon="6.29052">
        <ele>2597.2</ele>
        <time>2024-08-12T13:02:58Z</time>
      </trkpt>
      <trkpt lat="44.77727" lon="6.2905">
        <ele>2597.4</ele>
        <time>2024-08-12T13:02:59Z</time>
      </trkpt>
      <trkpt lat="44.77727" lon="6.2905">
        <ele>2597.6</ele>
        <time>2024-08-12T13:03:00Z</time>
      </trkpt>
      <trkpt lat="44.77727" lon="6.2905">
        <ele>2597.6</ele>
        <time>2024-08-12T13:03:01Z</time>
      </trkpt>
      <trkpt lat="44.77727" lon="6.2905">
        <ele>2597.6</ele>
        <time>2024-08-12T13:03:02Z</time>
      </trkpt>
      <trkpt lat="44.77727" lon="6.2905">
        <ele>2597.6</ele>
        <time>2024-08-12T13:03:03Z</time>
      </trkpt>
      <trkpt lat="44.77727" lon="6.2905">
        <ele>2597.6</ele>
        <time>2024-08-12T13:03:04Z</time>
      </trkpt>
      <trkpt lat="44.77727" lon="6.2905">
        <ele>2597.2</ele>
        <time>2024-08-12T13:03:05Z</time>
      </trkpt>
      <trkpt lat="44.77727" lon="6.2905">
        <ele>2597.2</ele>
        <time>2024-08-12T13:03:06Z</time>
      </trkpt>
      <trkpt lat="44.77727" lon="6.2905">
        <ele>2597.6</ele>
        <time>2024-08-12T13:03:07Z</time>
      </trkpt>
      <trkpt lat="44.77727" lon="6.2905">
        <ele>2597.6</ele>
        <time>2024-08-12T13:03:08Z</time>
      </trkpt>
      <trkpt lat="44.77727" lon="6.2905">
        <ele>2597.8</ele>
        <time>2024-08-12T13:03:09Z</time>
      </trkpt>
      <trkpt lat="44.77727" lon="6.2905">
        <ele>2597.8</ele>
        <time>2024-08-12T13:03:10Z</time>
      </trkpt>
      <trkpt lat="44.77727" lon="6.2905">
        <ele>2598</ele>
        <time>2024-08-12T13:03:11Z</time>
      </trkpt>
      <trkpt lat="44.77727" lon="6.2905">
        <ele>2598</ele>
        <time>2024-08-12T13:03:12Z</time>
      </trkpt>
      <trkpt lat="44.77727" lon="6.2905">
        <ele>2598</ele>
        <time>2024-08-12T13:03:13Z</time>
      </trkpt>
      <trkpt lat="44.77727" lon="6.2905">
        <ele>2597.8</ele>
        <time>2024-08-12T13:03:14Z</time>
      </trkpt>
      <trkpt lat="44.77727" lon="6.2905">
        <ele>2597.6</ele>
        <time>2024-08-12T13:03:15Z</time>
      </trkpt>
      <trkpt lat="44.77727" lon="6.2905">
        <ele>2597.4</ele>
        <time>2024-08-12T13:03:16Z</time>
      </trkpt>
      <trkpt lat="44.77727" lon="6.2905">
        <ele>2597.4</ele>
        <time>2024-08-12T13:03:17Z</time>
      </trkpt>
      <trkpt lat="44.77727" lon="6.2905">
        <ele>2597.2</ele>
        <time>2024-08-12T13:03:18Z</time>
      </trkpt>
      <trkpt lat="44.77727" lon="6.2905">
        <ele>2597.2</ele>
        <time>2024-08-12T13:03:19Z</time>
      </trkpt>
      <trkpt lat="44.77727" lon="6.2905">
        <ele>2597.6</ele>
        <time>2024-08-12T13:03:20Z</time>
      </trkpt>
      <trkpt lat="44.77727" lon="6.2905">
        <ele>2597.6</ele>
        <time>2024-08-12T13:03:21Z</time>
      </trkpt>
      <trkpt lat="44.77727" lon="6.2905">
        <ele>2597.8</ele>
        <time>2024-08-12T13:03:22Z</time>
      </trkpt>
      <trkpt lat="44.77727" lon="6.2905">
        <ele>2598</ele>
        <time>2024-08-12T13:03:23Z</time>
      </trkpt>
      <trkpt lat="44.77727" lon="6.2905">
        <ele>2598.2</ele>
        <time>2024-08-12T13:03:24Z</time>
      </trkpt>
      <trkpt lat="44.77727" lon="6.2905">
        <ele>2598.2</ele>
        <time>2024-08-12T13:03:25Z</time>
      </trkpt>
      <trkpt lat="44.77727" lon="6.2905">
        <ele>2598.4</ele>
        <time>2024-08-12T13:03:26Z</time>
      </trkpt>
      <trkpt lat="44.77727" lon="6.2905">
        <ele>2598.4</ele>
        <time>2024-08-12T13:03:27Z</time>
      </trkpt>
      <trkpt lat="44.77727" lon="6.2905">
        <ele>2598.2</ele>
        <time>2024-08-12T13:03:28Z</time>
      </trkpt>
      <trkpt lat="44.77727" lon="6.2905">
        <ele>2598.2</ele>
        <time>2024-08-12T13:03:29Z</time>
      </trkpt>
      <trkpt lat="44.77727" lon="6.2905">
        <ele>2598.2</ele>
        <time>2024-08-12T13:03:30Z</time>
      </trkpt>
      <trkpt lat="44.77727" lon="6.2905">
        <ele>2598.2</ele>
        <time>2024-08-12T13:03:31Z</time>
      </trkpt>
      <trkpt lat="44.77727" lon="6.2905">
        <ele>2598.2</ele>
        <time>2024-08-12T13:03:32Z</time>
      </trkpt>
      <trkpt lat="44.77727" lon="6.2905">
        <ele>2597.8</ele>
        <time>2024-08-12T13:03:33Z</time>
      </trkpt>
      <trkpt lat="44.77727" lon="6.2905">
        <ele>2597.6</ele>
        <time>2024-08-12T13:03:34Z</time>
      </trkpt>
      <trkpt lat="44.77728" lon="6.29046">
        <ele>2597.2</ele>
        <time>2024-08-12T13:03:35Z</time>
      </trkpt>
      <trkpt lat="44.77728" lon="6.29046">
        <ele>2596.4</ele>
        <time>2024-08-12T13:03:36Z</time>
      </trkpt>
      <trkpt lat="44.7773" lon="6.29043">
        <ele>2595.8</ele>
        <time>2024-08-12T13:03:37Z</time>
      </trkpt>
      <trkpt lat="44.7773" lon="6.29043">
        <ele>2595.6</ele>
        <time>2024-08-12T13:03:38Z</time>
      </trkpt>
      <trkpt lat="44.7773" lon="6.29043">
        <ele>2595.6</ele>
        <time>2024-08-12T13:03:39Z</time>
      </trkpt>
      <trkpt lat="44.77732" lon="6.2904">
        <ele>2595.2</ele>
        <time>2024-08-12T13:03:40Z</time>
      </trkpt>
      <trkpt lat="44.77732" lon="6.2904">
        <ele>2594.6</ele>
        <time>2024-08-12T13:03:41Z</time>
      </trkpt>
      <trkpt lat="44.77732" lon="6.29037">
        <ele>2594.6</ele>
        <time>2024-08-12T13:03:42Z</time>
      </trkpt>
      <trkpt lat="44.77732" lon="6.29037">
        <ele>2594.6</ele>
        <time>2024-08-12T13:03:43Z</time>
      </trkpt>
      <trkpt lat="44.77731" lon="6.29034">
        <ele>2594.6</ele>
        <time>2024-08-12T13:03:44Z</time>
      </trkpt>
      <trkpt lat="44.77731" lon="6.29034">
        <ele>2594.4</ele>
        <time>2024-08-12T13:03:45Z</time>
      </trkpt>
      <trkpt lat="44.77731" lon="6.2903">
        <ele>2594.2</ele>
        <time>2024-08-12T13:03:46Z</time>
      </trkpt>
      <trkpt lat="44.77731" lon="6.2903">
        <ele>2594</ele>
        <time>2024-08-12T13:03:47Z</time>
      </trkpt>
      <trkpt lat="44.77733" lon="6.29027">
        <ele>2593.6</ele>
        <time>2024-08-12T13:03:48Z</time>
      </trkpt>
      <trkpt lat="44.77733" lon="6.29027">
        <ele>2593</ele>
        <time>2024-08-12T13:03:49Z</time>
      </trkpt>
      <trkpt lat="44.77733" lon="6.29025">
        <ele>2592.6</ele>
        <time>2024-08-12T13:03:50Z</time>
      </trkpt>
      <trkpt lat="44.77733" lon="6.29025">
        <ele>2592.4</ele>
        <time>2024-08-12T13:03:51Z</time>
      </trkpt>
      <trkpt lat="44.77733" lon="6.29022">
        <ele>2592.2</ele>
        <time>2024-08-12T13:03:52Z</time>
      </trkpt>
      <trkpt lat="44.77733" lon="6.29022">
        <ele>2591.6</ele>
        <time>2024-08-12T13:03:53Z</time>
      </trkpt>
      <trkpt lat="44.77733" lon="6.29018">
        <ele>2591.4</ele>
        <time>2024-08-12T13:03:54Z</time>
      </trkpt>
      <trkpt lat="44.77733" lon="6.29018">
        <ele>2591.2</ele>
        <time>2024-08-12T13:03:55Z</time>
      </trkpt>
      <trkpt lat="44.77733" lon="6.29016">
        <ele>2591.2</ele>
        <time>2024-08-12T13:03:56Z</time>
      </trkpt>
      <trkpt lat="44.77733" lon="6.29016">
        <ele>2590.8</ele>
        <time>2024-08-12T13:03:57Z</time>
      </trkpt>
      <trkpt lat="44.77733" lon="6.29016">
        <ele>2590.4</ele>
        <time>2024-08-12T13:03:58Z</time>
      </trkpt>
      <trkpt lat="44.77735" lon="6.29018">
        <ele>2589.8</ele>
        <time>2024-08-12T13:03:59Z</time>
      </trkpt>
      <trkpt lat="44.77735" lon="6.29018">
        <ele>2589.2</ele>
        <time>2024-08-12T13:04:00Z</time>
      </trkpt>
      <trkpt lat="44.77736" lon="6.2902">
        <ele>2588.8</ele>
        <time>2024-08-12T13:04:01Z</time>
      </trkpt>
      <trkpt lat="44.77736" lon="6.2902">
        <ele>2588.4</ele>
        <time>2024-08-12T13:04:02Z</time>
      </trkpt>
      <trkpt lat="44.77738" lon="6.29023">
        <ele>2588.4</ele>
        <time>2024-08-12T13:04:03Z</time>
      </trkpt>
      <trkpt lat="44.77738" lon="6.29023">
        <ele>2588.4</ele>
        <time>2024-08-12T13:04:04Z</time>
      </trkpt>
      <trkpt lat="44.7774" lon="6.29025">
        <ele>2588.4</ele>
        <time>2024-08-12T13:04:05Z</time>
      </trkpt>
      <trkpt lat="44.7774" lon="6.29025">
        <ele>2587.6</ele>
        <time>2024-08-12T13:04:06Z</time>
      </trkpt>
      <trkpt lat="44.77742" lon="6.29027">
        <ele>2586.8</ele>
        <time>2024-08-12T13:04:07Z</time>
      </trkpt>
      <trkpt lat="44.77742" lon="6.29027">
        <ele>2586.6</ele>
        <time>2024-08-12T13:04:08Z</time>
      </trkpt>
      <trkpt lat="44.77744" lon="6.29029">
        <ele>2586.4</ele>
        <time>2024-08-12T13:04:09Z</time>
      </trkpt>
      <trkpt lat="44.77744" lon="6.29029">
        <ele>2585.6</ele>
        <time>2024-08-12T13:04:10Z</time>
      </trkpt>
      <trkpt lat="44.77746" lon="6.2903">
        <ele>2585.6</ele>
        <time>2024-08-12T13:04:11Z</time>
      </trkpt>
      <trkpt lat="44.77746" lon="6.2903">
        <ele>2585.6</ele>
        <time>2024-08-12T13:04:12Z</time>
      </trkpt>
      <trkpt lat="44.77748" lon="6.29032">
        <ele>2585.6</ele>
        <time>2024-08-12T13:04:13Z</time>
      </trkpt>
      <trkpt lat="44.77748" lon="6.29032">
        <ele>2585.6</ele>
        <time>2024-08-12T13:04:14Z</time>
      </trkpt>
      <trkpt lat="44.7775" lon="6.29033">
        <ele>2585.4</ele>
        <time>2024-08-12T13:04:15Z</time>
      </trkpt>
      <trkpt lat="44.7775" lon="6.29033">
        <ele>2585.2</ele>
        <time>2024-08-12T13:04:16Z</time>
      </trkpt>
      <trkpt lat="44.77753" lon="6.29034">
        <ele>2585</ele>
        <time>2024-08-12T13:04:17Z</time>
      </trkpt>
      <trkpt lat="44.77753" lon="6.29034">
        <ele>2584.8</ele>
        <time>2024-08-12T13:04:18Z</time>
      </trkpt>
      <trkpt lat="44.77753" lon="6.29034">
        <ele>2584.8</ele>
        <time>2024-08-12T13:04:19Z</time>
      </trkpt>
      <trkpt lat="44.77755" lon="6.29036">
        <ele>2584.8</ele>
        <time>2024-08-12T13:04:20Z</time>
      </trkpt>
      <trkpt lat="44.77755" lon="6.29036">
        <ele>2584.8</ele>
        <time>2024-08-12T13:04:21Z</time>
      </trkpt>
      <trkpt lat="44.77758" lon="6.29037">
        <ele>2584.8</ele>
        <time>2024-08-12T13:04:22Z</time>
      </trkpt>
      <trkpt lat="44.77758" lon="6.29037">
        <ele>2584.8</ele>
        <time>2024-08-12T13:04:23Z</time>
      </trkpt>
      <trkpt lat="44.7776" lon="6.29038">
        <ele>2584.6</ele>
        <time>2024-08-12T13:04:24Z</time>
      </trkpt>
      <trkpt lat="44.7776" lon="6.29038">
        <ele>2584.6</ele>
        <time>2024-08-12T13:04:25Z</time>
      </trkpt>
      <trkpt lat="44.77762" lon="6.29037">
        <ele>2584.6</ele>
        <time>2024-08-12T13:04:26Z</time>
      </trkpt>
      <trkpt lat="44.77762" lon="6.29037">
        <ele>2584.6</ele>
        <time>2024-08-12T13:04:27Z</time>
      </trkpt>
      <trkpt lat="44.77764" lon="6.29036">
        <ele>2584.6</ele>
        <time>2024-08-12T13:04:28Z</time>
      </trkpt>
      <trkpt lat="44.77764" lon="6.29036">
        <ele>2584.2</ele>
        <time>2024-08-12T13:04:29Z</time>
      </trkpt>
      <trkpt lat="44.77764" lon="6.29036">
        <ele>2583.8</ele>
        <time>2024-08-12T13:04:30Z</time>
      </trkpt>
      <trkpt lat="44.77766" lon="6.29035">
        <ele>2583.8</ele>
        <time>2024-08-12T13:04:31Z</time>
      </trkpt>
      <trkpt lat="44.77766" lon="6.29035">
        <ele>2583.8</ele>
        <time>2024-08-12T13:04:32Z</time>
      </trkpt>
      <trkpt lat="44.77766" lon="6.29035">
        <ele>2583.4</ele>
        <time>2024-08-12T13:04:33Z</time>
      </trkpt>
      <trkpt lat="44.77768" lon="6.29031">
        <ele>2583</ele>
        <time>2024-08-12T13:04:34Z</time>
      </trkpt>
      <trkpt lat="44.77768" lon="6.29031">
        <ele>2583</ele>
        <time>2024-08-12T13:04:35Z</time>
      </trkpt>
      <trkpt lat="44.77768" lon="6.29031">
        <ele>2582.8</ele>
        <time>2024-08-12T13:04:36Z</time>
      </trkpt>
      <trkpt lat="44.7777" lon="6.29029">
        <ele>2582.4</ele>
        <time>2024-08-12T13:04:37Z</time>
      </trkpt>
      <trkpt lat="44.7777" lon="6.29029">
        <ele>2582</ele>
        <time>2024-08-12T13:04:38Z</time>
      </trkpt>
      <trkpt lat="44.7777" lon="6.29029">
        <ele>2582</ele>
        <time>2024-08-12T13:04:39Z</time>
      </trkpt>
      <trkpt lat="44.77771" lon="6.29027">
        <ele>2581.8</ele>
        <time>2024-08-12T13:04:40Z</time>
      </trkpt>
      <trkpt lat="44.77771" lon="6.29027">
        <ele>2581.8</ele>
        <time>2024-08-12T13:04:41Z</time>
      </trkpt>
      <trkpt lat="44.77773" lon="6.29025">
        <ele>2581.6</ele>
        <time>2024-08-12T13:04:42Z</time>
      </trkpt>
      <trkpt lat="44.77773" lon="6.29025">
        <ele>2581.2</ele>
        <time>2024-08-12T13:04:43Z</time>
      </trkpt>
      <trkpt lat="44.77774" lon="6.29023">
        <ele>2581</ele>
        <time>2024-08-12T13:04:44Z</time>
      </trkpt>
      <trkpt lat="44.77774" lon="6.29023">
        <ele>2581</ele>
        <time>2024-08-12T13:04:45Z</time>
      </trkpt>
      <trkpt lat="44.77776" lon="6.29022">
        <ele>2580.8</ele>
        <time>2024-08-12T13:04:46Z</time>
      </trkpt>
      <trkpt lat="44.77776" lon="6.29022">
        <ele>2580.6</ele>
        <time>2024-08-12T13:04:47Z</time>
      </trkpt>
      <trkpt lat="44.77776" lon="6.29022">
        <ele>2580.2</ele>
        <time>2024-08-12T13:04:48Z</time>
      </trkpt>
      <trkpt lat="44.77778" lon="6.29019">
        <ele>2580</ele>
        <time>2024-08-12T13:04:49Z</time>
      </trkpt>
      <trkpt lat="44.77778" lon="6.29019">
        <ele>2579.6</ele>
        <time>2024-08-12T13:04:50Z</time>
      </trkpt>
      <trkpt lat="44.77778" lon="6.29019">
        <ele>2579.2</ele>
        <time>2024-08-12T13:04:51Z</time>
      </trkpt>
      <trkpt lat="44.7778" lon="6.29016">
        <ele>2579.2</ele>
        <time>2024-08-12T13:04:52Z</time>
      </trkpt>
      <trkpt lat="44.7778" lon="6.29016">
        <ele>2578.6</ele>
        <time>2024-08-12T13:04:53Z</time>
      </trkpt>
      <trkpt lat="44.77781" lon="6.29014">
        <ele>2578.4</ele>
        <time>2024-08-12T13:04:54Z</time>
      </trkpt>
      <trkpt lat="44.77781" lon="6.29014">
        <ele>2578.2</ele>
        <time>2024-08-12T13:04:55Z</time>
      </trkpt>
      <trkpt lat="44.77782" lon="6.29012">
        <ele>2578.2</ele>
        <time>2024-08-12T13:04:56Z</time>
      </trkpt>
      <trkpt lat="44.77782" lon="6.29012">
        <ele>2578</ele>
        <time>2024-08-12T13:04:57Z</time>
      </trkpt>
      <trkpt lat="44.77784" lon="6.29009">
        <ele>2577.6</ele>
        <time>2024-08-12T13:04:58Z</time>
      </trkpt>
      <trkpt lat="44.77784" lon="6.29009">
        <ele>2577.4</ele>
        <time>2024-08-12T13:04:59Z</time>
      </trkpt>
      <trkpt lat="44.77784" lon="6.29006">
        <ele>2577.4</ele>
        <time>2024-08-12T13:05:00Z</time>
      </trkpt>
      <trkpt lat="44.77784" lon="6.29006">
        <ele>2577.4</ele>
        <time>2024-08-12T13:05:01Z</time>
      </trkpt>
      <trkpt lat="44.77786" lon="6.29004">
        <ele>2577.2</ele>
        <time>2024-08-12T13:05:02Z</time>
      </trkpt>
      <trkpt lat="44.77786" lon="6.29004">
        <ele>2576</ele>
        <time>2024-08-12T13:05:03Z</time>
      </trkpt>
      <trkpt lat="44.77788" lon="6.29001">
        <ele>2575.8</ele>
        <time>2024-08-12T13:05:04Z</time>
      </trkpt>
      <trkpt lat="44.77788" lon="6.29001">
        <ele>2575.8</ele>
        <time>2024-08-12T13:05:05Z</time>
      </trkpt>
      <trkpt lat="44.77789" lon="6.28998">
        <ele>2576.4</ele>
        <time>2024-08-12T13:05:06Z</time>
      </trkpt>
      <trkpt lat="44.77789" lon="6.28998">
        <ele>2576.4</ele>
        <time>2024-08-12T13:05:07Z</time>
      </trkpt>
      <trkpt lat="44.7779" lon="6.28995">
        <ele>2575.8</ele>
        <time>2024-08-12T13:05:08Z</time>
      </trkpt>
      <trkpt lat="44.7779" lon="6.28995">
        <ele>2575.2</ele>
        <time>2024-08-12T13:05:09Z</time>
      </trkpt>
      <trkpt lat="44.77792" lon="6.28993">
        <ele>2575.2</ele>
        <time>2024-08-12T13:05:10Z</time>
      </trkpt>
      <trkpt lat="44.77792" lon="6.28993">
        <ele>2573.8</ele>
        <time>2024-08-12T13:05:11Z</time>
      </trkpt>
      <trkpt lat="44.77794" lon="6.28992">
        <ele>2572.6</ele>
        <time>2024-08-12T13:05:12Z</time>
      </trkpt>
      <trkpt lat="44.77794" lon="6.28992">
        <ele>2572.6</ele>
        <time>2024-08-12T13:05:13Z</time>
      </trkpt>
      <trkpt lat="44.77797" lon="6.28992">
        <ele>2572.4</ele>
        <time>2024-08-12T13:05:14Z</time>
      </trkpt>
      <trkpt lat="44.77797" lon="6.28992">
        <ele>2572.4</ele>
        <time>2024-08-12T13:05:15Z</time>
      </trkpt>
      <trkpt lat="44.77799" lon="6.28992">
        <ele>2572.6</ele>
        <time>2024-08-12T13:05:16Z</time>
      </trkpt>
      <trkpt lat="44.77799" lon="6.28992">
        <ele>2572.6</ele>
        <time>2024-08-12T13:05:17Z</time>
      </trkpt>
      <trkpt lat="44.77802" lon="6.28991">
        <ele>2572.6</ele>
        <time>2024-08-12T13:05:18Z</time>
      </trkpt>
      <trkpt lat="44.77802" lon="6.28991">
        <ele>2572.8</ele>
        <time>2024-08-12T13:05:19Z</time>
      </trkpt>
      <trkpt lat="44.77804" lon="6.2899">
        <ele>2572.8</ele>
        <time>2024-08-12T13:05:20Z</time>
      </trkpt>
      <trkpt lat="44.77804" lon="6.2899">
        <ele>2571.2</ele>
        <time>2024-08-12T13:05:21Z</time>
      </trkpt>
      <trkpt lat="44.77805" lon="6.28988">
        <ele>2570.6</ele>
        <time>2024-08-12T13:05:22Z</time>
      </trkpt>
      <trkpt lat="44.77805" lon="6.28988">
        <ele>2570.6</ele>
        <time>2024-08-12T13:05:23Z</time>
      </trkpt>
      <trkpt lat="44.77807" lon="6.28987">
        <ele>2570.4</ele>
        <time>2024-08-12T13:05:24Z</time>
      </trkpt>
      <trkpt lat="44.77807" lon="6.28987">
        <ele>2570.4</ele>
        <time>2024-08-12T13:05:25Z</time>
      </trkpt>
      <trkpt lat="44.7781" lon="6.28986">
        <ele>2570.4</ele>
        <time>2024-08-12T13:05:26Z</time>
      </trkpt>
      <trkpt lat="44.7781" lon="6.28986">
        <ele>2570.4</ele>
        <time>2024-08-12T13:05:27Z</time>
      </trkpt>
      <trkpt lat="44.77812" lon="6.28986">
        <ele>2570.8</ele>
        <time>2024-08-12T13:05:28Z</time>
      </trkpt>
      <trkpt lat="44.77812" lon="6.28986">
        <ele>2570.8</ele>
        <time>2024-08-12T13:05:29Z</time>
      </trkpt>
      <trkpt lat="44.77812" lon="6.28986">
        <ele>2570</ele>
        <time>2024-08-12T13:05:30Z</time>
      </trkpt>
      <trkpt lat="44.77814" lon="6.28985">
        <ele>2569.6</ele>
        <time>2024-08-12T13:05:31Z</time>
      </trkpt>
      <trkpt lat="44.77814" lon="6.28985">
        <ele>2569.6</ele>
        <time>2024-08-12T13:05:32Z</time>
      </trkpt>
      <trkpt lat="44.77817" lon="6.28984">
        <ele>2569.4</ele>
        <time>2024-08-12T13:05:33Z</time>
      </trkpt>
      <trkpt lat="44.77817" lon="6.28984">
        <ele>2568.4</ele>
        <time>2024-08-12T13:05:34Z</time>
      </trkpt>
      <trkpt lat="44.77817" lon="6.28984">
        <ele>2568.2</ele>
        <time>2024-08-12T13:05:35Z</time>
      </trkpt>
      <trkpt lat="44.7782" lon="6.28982">
        <ele>2568</ele>
        <time>2024-08-12T13:05:36Z</time>
      </trkpt>
      <trkpt lat="44.7782" lon="6.28982">
        <ele>2567.8</ele>
        <time>2024-08-12T13:05:37Z</time>
      </trkpt>
      <trkpt lat="44.77821" lon="6.2898">
        <ele>2567.6</ele>
        <time>2024-08-12T13:05:38Z</time>
      </trkpt>
      <trkpt lat="44.77821" lon="6.2898">
        <ele>2567.4</ele>
        <time>2024-08-12T13:05:39Z</time>
      </trkpt>
      <trkpt lat="44.77823" lon="6.28979">
        <ele>2567.4</ele>
        <time>2024-08-12T13:05:40Z</time>
      </trkpt>
      <trkpt lat="44.77823" lon="6.28979">
        <ele>2567.4</ele>
        <time>2024-08-12T13:05:41Z</time>
      </trkpt>
      <trkpt lat="44.77823" lon="6.28979">
        <ele>2567.4</ele>
        <time>2024-08-12T13:05:42Z</time>
      </trkpt>
      <trkpt lat="44.77826" lon="6.28977">
        <ele>2567.6</ele>
        <time>2024-08-12T13:05:43Z</time>
      </trkpt>
      <trkpt lat="44.77826" lon="6.28977">
        <ele>2567.6</ele>
        <time>2024-08-12T13:05:44Z</time>
      </trkpt>
      <trkpt lat="44.77828" lon="6.28976">
        <ele>2566.6</ele>
        <time>2024-08-12T13:05:45Z</time>
      </trkpt>
      <trkpt lat="44.77828" lon="6.28976">
        <ele>2566.6</ele>
        <time>2024-08-12T13:05:46Z</time>
      </trkpt>
      <trkpt lat="44.7783" lon="6.28974">
        <ele>2566.6</ele>
        <time>2024-08-12T13:05:47Z</time>
      </trkpt>
      <trkpt lat="44.7783" lon="6.28974">
        <ele>2566.6</ele>
        <time>2024-08-12T13:05:48Z</time>
      </trkpt>
      <trkpt lat="44.77832" lon="6.28973">
        <ele>2566.6</ele>
        <time>2024-08-12T13:05:49Z</time>
      </trkpt>
      <trkpt lat="44.77832" lon="6.28973">
        <ele>2566.6</ele>
        <time>2024-08-12T13:05:50Z</time>
      </trkpt>
      <trkpt lat="44.77834" lon="6.2897">
        <ele>2566.6</ele>
        <time>2024-08-12T13:05:51Z</time>
      </trkpt>
      <trkpt lat="44.77834" lon="6.2897">
        <ele>2566.6</ele>
        <time>2024-08-12T13:05:52Z</time>
      </trkpt>
      <trkpt lat="44.77837" lon="6.2897">
        <ele>2566.2</ele>
        <time>2024-08-12T13:05:53Z</time>
      </trkpt>
      <trkpt lat="44.77837" lon="6.2897">
        <ele>2566</ele>
        <time>2024-08-12T13:05:54Z</time>
      </trkpt>
      <trkpt lat="44.77838" lon="6.28969">
        <ele>2565.2</ele>
        <time>2024-08-12T13:05:55Z</time>
      </trkpt>
      <trkpt lat="44.77838" lon="6.28969">
        <ele>2565.2</ele>
        <time>2024-08-12T13:05:56Z</time>
      </trkpt>
      <trkpt lat="44.7784" lon="6.28967">
        <ele>2565.6</ele>
        <time>2024-08-12T13:05:57Z</time>
      </trkpt>
      <trkpt lat="44.7784" lon="6.28967">
        <ele>2565.6</ele>
        <time>2024-08-12T13:05:58Z</time>
      </trkpt>
      <trkpt lat="44.77842" lon="6.28965">
        <ele>2565.8</ele>
        <time>2024-08-12T13:05:59Z</time>
      </trkpt>
      <trkpt lat="44.77842" lon="6.28965">
        <ele>2565.8</ele>
        <time>2024-08-12T13:06:00Z</time>
      </trkpt>
      <trkpt lat="44.77845" lon="6.28964">
        <ele>2565.6</ele>
        <time>2024-08-12T13:06:01Z</time>
      </trkpt>
      <trkpt lat="44.77845" lon="6.28964">
        <ele>2564.2</ele>
        <time>2024-08-12T13:06:02Z</time>
      </trkpt>
      <trkpt lat="44.77847" lon="6.28964">
        <ele>2564.2</ele>
        <time>2024-08-12T13:06:03Z</time>
      </trkpt>
      <trkpt lat="44.77847" lon="6.28964">
        <ele>2563.8</ele>
        <time>2024-08-12T13:06:04Z</time>
      </trkpt>
      <trkpt lat="44.7785" lon="6.28963">
        <ele>2563.6</ele>
        <time>2024-08-12T13:06:05Z</time>
      </trkpt>
      <trkpt lat="44.7785" lon="6.28963">
        <ele>2563.6</ele>
        <time>2024-08-12T13:06:06Z</time>
      </trkpt>
      <trkpt lat="44.77852" lon="6.28962">
        <ele>2563.4</ele>
        <time>2024-08-12T13:06:07Z</time>
      </trkpt>
      <trkpt lat="44.77852" lon="6.28962">
        <ele>2563.4</ele>
        <time>2024-08-12T13:06:08Z</time>
      </trkpt>
      <trkpt lat="44.77853" lon="6.28961">
        <ele>2563.4</ele>
        <time>2024-08-12T13:06:09Z</time>
      </trkpt>
      <trkpt lat="44.77853" lon="6.28961">
        <ele>2563.2</ele>
        <time>2024-08-12T13:06:10Z</time>
      </trkpt>
      <trkpt lat="44.77855" lon="6.28959">
        <ele>2562.6</ele>
        <time>2024-08-12T13:06:11Z</time>
      </trkpt>
      <trkpt lat="44.77855" lon="6.28959">
        <ele>2562.6</ele>
        <time>2024-08-12T13:06:12Z</time>
      </trkpt>
      <trkpt lat="44.77857" lon="6.28958">
        <ele>2562.4</ele>
        <time>2024-08-12T13:06:13Z</time>
      </trkpt>
      <trkpt lat="44.77857" lon="6.28958">
        <ele>2562</ele>
        <time>2024-08-12T13:06:14Z</time>
      </trkpt>
      <trkpt lat="44.7786" lon="6.28957">
        <ele>2560.8</ele>
        <time>2024-08-12T13:06:15Z</time>
      </trkpt>
      <trkpt lat="44.7786" lon="6.28957">
        <ele>2560.2</ele>
        <time>2024-08-12T13:06:16Z</time>
      </trkpt>
      <trkpt lat="44.77862" lon="6.28956">
        <ele>2559.8</ele>
        <time>2024-08-12T13:06:17Z</time>
      </trkpt>
      <trkpt lat="44.77862" lon="6.28956">
        <ele>2559.8</ele>
        <time>2024-08-12T13:06:18Z</time>
      </trkpt>
      <trkpt lat="44.77862" lon="6.28956">
        <ele>2559.6</ele>
        <time>2024-08-12T13:06:19Z</time>
      </trkpt>
      <trkpt lat="44.77865" lon="6.28956">
        <ele>2559.6</ele>
        <time>2024-08-12T13:06:20Z</time>
      </trkpt>
      <trkpt lat="44.77865" lon="6.28956">
        <ele>2559.6</ele>
        <time>2024-08-12T13:06:21Z</time>
      </trkpt>
      <trkpt lat="44.77867" lon="6.28956">
        <ele>2559.4</ele>
        <time>2024-08-12T13:06:22Z</time>
      </trkpt>
      <trkpt lat="44.77867" lon="6.28956">
        <ele>2559.2</ele>
        <time>2024-08-12T13:06:23Z</time>
      </trkpt>
      <trkpt lat="44.77869" lon="6.28956">
        <ele>2559</ele>
        <time>2024-08-12T13:06:24Z</time>
      </trkpt>
      <trkpt lat="44.77869" lon="6.28956">
        <ele>2559</ele>
        <time>2024-08-12T13:06:25Z</time>
      </trkpt>
      <trkpt lat="44.77872" lon="6.28958">
        <ele>2558.8</ele>
        <time>2024-08-12T13:06:26Z</time>
      </trkpt>
      <trkpt lat="44.77872" lon="6.28958">
        <ele>2558.4</ele>
        <time>2024-08-12T13:06:27Z</time>
      </trkpt>
      <trkpt lat="44.77874" lon="6.28959">
        <ele>2558.2</ele>
        <time>2024-08-12T13:06:28Z</time>
      </trkpt>
      <trkpt lat="44.77874" lon="6.28959">
        <ele>2558.2</ele>
        <time>2024-08-12T13:06:29Z</time>
      </trkpt>
      <trkpt lat="44.77876" lon="6.28959">
        <ele>2558</ele>
        <time>2024-08-12T13:06:30Z</time>
      </trkpt>
      <trkpt lat="44.77876" lon="6.28959">
        <ele>2557.8</ele>
        <time>2024-08-12T13:06:31Z</time>
      </trkpt>
      <trkpt lat="44.77878" lon="6.28959">
        <ele>2557.6</ele>
        <time>2024-08-12T13:06:32Z</time>
      </trkpt>
      <trkpt lat="44.77878" lon="6.28959">
        <ele>2557.2</ele>
        <time>2024-08-12T13:06:33Z</time>
      </trkpt>
      <trkpt lat="44.7788" lon="6.2896">
        <ele>2557</ele>
        <time>2024-08-12T13:06:34Z</time>
      </trkpt>
      <trkpt lat="44.7788" lon="6.2896">
        <ele>2557</ele>
        <time>2024-08-12T13:06:35Z</time>
      </trkpt>
      <trkpt lat="44.77882" lon="6.2896">
        <ele>2556.6</ele>
        <time>2024-08-12T13:06:36Z</time>
      </trkpt>
      <trkpt lat="44.77882" lon="6.2896">
        <ele>2556.4</ele>
        <time>2024-08-12T13:06:37Z</time>
      </trkpt>
      <trkpt lat="44.77885" lon="6.2896">
        <ele>2556.2</ele>
        <time>2024-08-12T13:06:38Z</time>
      </trkpt>
      <trkpt lat="44.77885" lon="6.2896">
        <ele>2556.2</ele>
        <time>2024-08-12T13:06:39Z</time>
      </trkpt>
      <trkpt lat="44.77887" lon="6.28959">
        <ele>2555.8</ele>
        <time>2024-08-12T13:06:40Z</time>
      </trkpt>
      <trkpt lat="44.77887" lon="6.28959">
        <ele>2555.6</ele>
        <time>2024-08-12T13:06:41Z</time>
      </trkpt>
      <trkpt lat="44.77889" lon="6.28956">
        <ele>2554.8</ele>
        <time>2024-08-12T13:06:42Z</time>
      </trkpt>
      <trkpt lat="44.77889" lon="6.28956">
        <ele>2555</ele>
        <time>2024-08-12T13:06:43Z</time>
      </trkpt>
      <trkpt lat="44.77891" lon="6.28954">
        <ele>2554.8</ele>
        <time>2024-08-12T13:06:44Z</time>
      </trkpt>
      <trkpt lat="44.77891" lon="6.28954">
        <ele>2554.6</ele>
        <time>2024-08-12T13:06:45Z</time>
      </trkpt>
      <trkpt lat="44.77892" lon="6.28952">
        <ele>2554.6</ele>
        <time>2024-08-12T13:06:46Z</time>
      </trkpt>
      <trkpt lat="44.77892" lon="6.28952">
        <ele>2554.4</ele>
        <time>2024-08-12T13:06:47Z</time>
      </trkpt>
      <trkpt lat="44.77894" lon="6.2895">
        <ele>2554.4</ele>
        <time>2024-08-12T13:06:48Z</time>
      </trkpt>
      <trkpt lat="44.77894" lon="6.2895">
        <ele>2554</ele>
        <time>2024-08-12T13:06:49Z</time>
      </trkpt>
      <trkpt lat="44.77895" lon="6.28947">
        <ele>2553.6</ele>
        <time>2024-08-12T13:06:50Z</time>
      </trkpt>
      <trkpt lat="44.77895" lon="6.28947">
        <ele>2553.6</ele>
        <time>2024-08-12T13:06:51Z</time>
      </trkpt>
      <trkpt lat="44.77897" lon="6.28945">
        <ele>2553.6</ele>
        <time>2024-08-12T13:06:52Z</time>
      </trkpt>
      <trkpt lat="44.77897" lon="6.28945">
        <ele>2553.6</ele>
        <time>2024-08-12T13:06:53Z</time>
      </trkpt>
      <trkpt lat="44.77897" lon="6.28945">
        <ele>2553.4</ele>
        <time>2024-08-12T13:06:54Z</time>
      </trkpt>
      <trkpt lat="44.77899" lon="6.28942">
        <ele>2553</ele>
        <time>2024-08-12T13:06:55Z</time>
      </trkpt>
      <trkpt lat="44.77899" lon="6.28942">
        <ele>2552.8</ele>
        <time>2024-08-12T13:06:56Z</time>
      </trkpt>
      <trkpt lat="44.779" lon="6.28941">
        <ele>2552.8</ele>
        <time>2024-08-12T13:06:57Z</time>
      </trkpt>
      <trkpt lat="44.779" lon="6.28941">
        <ele>2552.4</ele>
        <time>2024-08-12T13:06:58Z</time>
      </trkpt>
      <trkpt lat="44.77902" lon="6.28939">
        <ele>2552</ele>
        <time>2024-08-12T13:06:59Z</time>
      </trkpt>
      <trkpt lat="44.77902" lon="6.28939">
        <ele>2551.8</ele>
        <time>2024-08-12T13:07:00Z</time>
      </trkpt>
      <trkpt lat="44.77903" lon="6.28937">
        <ele>2551.8</ele>
        <time>2024-08-12T13:07:01Z</time>
      </trkpt>
      <trkpt lat="44.77903" lon="6.28937">
        <ele>2551.4</ele>
        <time>2024-08-12T13:07:02Z</time>
      </trkpt>
      <trkpt lat="44.77906" lon="6.28935">
        <ele>2551.4</ele>
        <time>2024-08-12T13:07:03Z</time>
      </trkpt>
      <trkpt lat="44.77906" lon="6.28935">
        <ele>2551.2</ele>
        <time>2024-08-12T13:07:04Z</time>
      </trkpt>
      <trkpt lat="44.77907" lon="6.28933">
        <ele>2551</ele>
        <time>2024-08-12T13:07:05Z</time>
      </trkpt>
      <trkpt lat="44.77907" lon="6.28933">
        <ele>2550.2</ele>
        <time>2024-08-12T13:07:06Z</time>
      </trkpt>
      <trkpt lat="44.77909" lon="6.28931">
        <ele>2550.4</ele>
        <time>2024-08-12T13:07:07Z</time>
      </trkpt>
      <trkpt lat="44.77909" lon="6.28931">
        <ele>2550.4</ele>
        <time>2024-08-12T13:07:08Z</time>
      </trkpt>
      <trkpt lat="44.77911" lon="6.28929">
        <ele>2550</ele>
        <time>2024-08-12T13:07:09Z</time>
      </trkpt>
      <trkpt lat="44.77911" lon="6.28929">
        <ele>2549.4</ele>
        <time>2024-08-12T13:07:10Z</time>
      </trkpt>
      <trkpt lat="44.77914" lon="6.28928">
        <ele>2549.6</ele>
        <time>2024-08-12T13:07:11Z</time>
      </trkpt>
      <trkpt lat="44.77914" lon="6.28928">
        <ele>2549.6</ele>
        <time>2024-08-12T13:07:12Z</time>
      </trkpt>
      <trkpt lat="44.77916" lon="6.28926">
        <ele>2549.2</ele>
        <time>2024-08-12T13:07:13Z</time>
      </trkpt>
      <trkpt lat="44.77916" lon="6.28926">
        <ele>2548.6</ele>
        <time>2024-08-12T13:07:14Z</time>
      </trkpt>
      <trkpt lat="44.77917" lon="6.28924">
        <ele>2548.4</ele>
        <time>2024-08-12T13:07:15Z</time>
      </trkpt>
      <trkpt lat="44.77917" lon="6.28924">
        <ele>2548.2</ele>
        <time>2024-08-12T13:07:16Z</time>
      </trkpt>
      <trkpt lat="44.77919" lon="6.28922">
        <ele>2548</ele>
        <time>2024-08-12T13:07:17Z</time>
      </trkpt>
      <trkpt lat="44.77919" lon="6.28922">
        <ele>2547.6</ele>
        <time>2024-08-12T13:07:18Z</time>
      </trkpt>
      <trkpt lat="44.7792" lon="6.28919">
        <ele>2547.4</ele>
        <time>2024-08-12T13:07:19Z</time>
      </trkpt>
      <trkpt lat="44.7792" lon="6.28919">
        <ele>2547</ele>
        <time>2024-08-12T13:07:20Z</time>
      </trkpt>
      <trkpt lat="44.77922" lon="6.28918">
        <ele>2546.6</ele>
        <time>2024-08-12T13:07:21Z</time>
      </trkpt>
      <trkpt lat="44.77922" lon="6.28918">
        <ele>2546.6</ele>
        <time>2024-08-12T13:07:22Z</time>
      </trkpt>
      <trkpt lat="44.77924" lon="6.28916">
        <ele>2546.4</ele>
        <time>2024-08-12T13:07:23Z</time>
      </trkpt>
      <trkpt lat="44.77924" lon="6.28916">
        <ele>2545.8</ele>
        <time>2024-08-12T13:07:24Z</time>
      </trkpt>
      <trkpt lat="44.77926" lon="6.28914">
        <ele>2545.4</ele>
        <time>2024-08-12T13:07:25Z</time>
      </trkpt>
      <trkpt lat="44.77926" lon="6.28914">
        <ele>2545.2</ele>
        <time>2024-08-12T13:07:26Z</time>
      </trkpt>
      <trkpt lat="44.77929" lon="6.28913">
        <ele>2545.2</ele>
        <time>2024-08-12T13:07:27Z</time>
      </trkpt>
      <trkpt lat="44.77929" lon="6.28913">
        <ele>2545</ele>
        <time>2024-08-12T13:07:28Z</time>
      </trkpt>
      <trkpt lat="44.77932" lon="6.28912">
        <ele>2544.6</ele>
        <time>2024-08-12T13:07:29Z</time>
      </trkpt>
      <trkpt lat="44.77932" lon="6.28912">
        <ele>2544.2</ele>
        <time>2024-08-12T13:07:30Z</time>
      </trkpt>
      <trkpt lat="44.77934" lon="6.28912">
        <ele>2544</ele>
        <time>2024-08-12T13:07:31Z</time>
      </trkpt>
      <trkpt lat="44.77934" lon="6.28912">
        <ele>2543.8</ele>
        <time>2024-08-12T13:07:32Z</time>
      </trkpt>
      <trkpt lat="44.77934" lon="6.28912">
        <ele>2543.8</ele>
        <time>2024-08-12T13:07:33Z</time>
      </trkpt>
      <trkpt lat="44.77937" lon="6.28909">
        <ele>2543.8</ele>
        <time>2024-08-12T13:07:34Z</time>
      </trkpt>
      <trkpt lat="44.77937" lon="6.28909">
        <ele>2543.6</ele>
        <time>2024-08-12T13:07:35Z</time>
      </trkpt>
      <trkpt lat="44.7794" lon="6.28908">
        <ele>2543.2</ele>
        <time>2024-08-12T13:07:36Z</time>
      </trkpt>
      <trkpt lat="44.7794" lon="6.28908">
        <ele>2543</ele>
        <time>2024-08-12T13:07:37Z</time>
      </trkpt>
      <trkpt lat="44.77941" lon="6.28909">
        <ele>2542.6</ele>
        <time>2024-08-12T13:07:38Z</time>
      </trkpt>
      <trkpt lat="44.77941" lon="6.28909">
        <ele>2542.6</ele>
        <time>2024-08-12T13:07:39Z</time>
      </trkpt>
      <trkpt lat="44.77941" lon="6.28909">
        <ele>2542.8</ele>
        <time>2024-08-12T13:07:40Z</time>
      </trkpt>
      <trkpt lat="44.77943" lon="6.28907">
        <ele>2542.8</ele>
        <time>2024-08-12T13:07:41Z</time>
      </trkpt>
      <trkpt lat="44.77943" lon="6.28907">
        <ele>2542.8</ele>
        <time>2024-08-12T13:07:42Z</time>
      </trkpt>
      <trkpt lat="44.77944" lon="6.28904">
        <ele>2542.8</ele>
        <time>2024-08-12T13:07:43Z</time>
      </trkpt>
      <trkpt lat="44.77944" lon="6.28904">
        <ele>2542.4</ele>
        <time>2024-08-12T13:07:44Z</time>
      </trkpt>
      <trkpt lat="44.77946" lon="6.28903">
        <ele>2541.8</ele>
        <time>2024-08-12T13:07:45Z</time>
      </trkpt>
      <trkpt lat="44.77946" lon="6.28903">
        <ele>2541.8</ele>
        <time>2024-08-12T13:07:46Z</time>
      </trkpt>
      <trkpt lat="44.77946" lon="6.28903">
        <ele>2541.4</ele>
        <time>2024-08-12T13:07:47Z</time>
      </trkpt>
      <trkpt lat="44.77949" lon="6.28902">
        <ele>2541</ele>
        <time>2024-08-12T13:07:48Z</time>
      </trkpt>
      <trkpt lat="44.77949" lon="6.28902">
        <ele>2540.8</ele>
        <time>2024-08-12T13:07:49Z</time>
      </trkpt>
      <trkpt lat="44.77951" lon="6.28901">
        <ele>2540.6</ele>
        <time>2024-08-12T13:07:50Z</time>
      </trkpt>
      <trkpt lat="44.77951" lon="6.28901">
        <ele>2540.2</ele>
        <time>2024-08-12T13:07:51Z</time>
      </trkpt>
      <trkpt lat="44.77951" lon="6.28901">
        <ele>2540</ele>
        <time>2024-08-12T13:07:52Z</time>
      </trkpt>
      <trkpt lat="44.77953" lon="6.28899">
        <ele>2539.8</ele>
        <time>2024-08-12T13:07:53Z</time>
      </trkpt>
      <trkpt lat="44.77953" lon="6.28899">
        <ele>2539</ele>
        <time>2024-08-12T13:07:54Z</time>
      </trkpt>
      <trkpt lat="44.77955" lon="6.28897">
        <ele>2539</ele>
        <time>2024-08-12T13:07:55Z</time>
      </trkpt>
      <trkpt lat="44.77955" lon="6.28897">
        <ele>2539</ele>
        <time>2024-08-12T13:07:56Z</time>
      </trkpt>
      <trkpt lat="44.77957" lon="6.28895">
        <ele>2538.8</ele>
        <time>2024-08-12T13:07:57Z</time>
      </trkpt>
      <trkpt lat="44.77957" lon="6.28895">
        <ele>2538.6</ele>
        <time>2024-08-12T13:07:58Z</time>
      </trkpt>
      <trkpt lat="44.77958" lon="6.28893">
        <ele>2538.4</ele>
        <time>2024-08-12T13:07:59Z</time>
      </trkpt>
      <trkpt lat="44.77958" lon="6.28893">
        <ele>2538</ele>
        <time>2024-08-12T13:08:00Z</time>
      </trkpt>
      <trkpt lat="44.7796" lon="6.28891">
        <ele>2538</ele>
        <time>2024-08-12T13:08:01Z</time>
      </trkpt>
      <trkpt lat="44.7796" lon="6.28891">
        <ele>2537.6</ele>
        <time>2024-08-12T13:08:02Z</time>
      </trkpt>
      <trkpt lat="44.77962" lon="6.28889">
        <ele>2537.6</ele>
        <time>2024-08-12T13:08:03Z</time>
      </trkpt>
      <trkpt lat="44.77962" lon="6.28889">
        <ele>2537.4</ele>
        <time>2024-08-12T13:08:04Z</time>
      </trkpt>
      <trkpt lat="44.77962" lon="6.28889">
        <ele>2537.4</ele>
        <time>2024-08-12T13:08:05Z</time>
      </trkpt>
      <trkpt lat="44.77963" lon="6.28886">
        <ele>2537.2</ele>
        <time>2024-08-12T13:08:06Z</time>
      </trkpt>
      <trkpt lat="44.77963" lon="6.28886">
        <ele>2536.8</ele>
        <time>2024-08-12T13:08:07Z</time>
      </trkpt>
      <trkpt lat="44.77963" lon="6.28886">
        <ele>2536.6</ele>
        <time>2024-08-12T13:08:08Z</time>
      </trkpt>
      <trkpt lat="44.77965" lon="6.28885">
        <ele>2536.4</ele>
        <time>2024-08-12T13:08:09Z</time>
      </trkpt>
      <trkpt lat="44.77965" lon="6.28885">
        <ele>2536.2</ele>
        <time>2024-08-12T13:08:10Z</time>
      </trkpt>
      <trkpt lat="44.77965" lon="6.28885">
        <ele>2536.2</ele>
        <time>2024-08-12T13:08:11Z</time>
      </trkpt>
      <trkpt lat="44.77967" lon="6.28885">
        <ele>2535.8</ele>
        <time>2024-08-12T13:08:12Z</time>
      </trkpt>
      <trkpt lat="44.77967" lon="6.28885">
        <ele>2535.4</ele>
        <time>2024-08-12T13:08:13Z</time>
      </trkpt>
      <trkpt lat="44.77967" lon="6.28885">
        <ele>2535.2</ele>
        <time>2024-08-12T13:08:14Z</time>
      </trkpt>
      <trkpt lat="44.77967" lon="6.28885">
        <ele>2535.2</ele>
        <time>2024-08-12T13:08:15Z</time>
      </trkpt>
      <trkpt lat="44.77967" lon="6.28885">
        <ele>2534.8</ele>
        <time>2024-08-12T13:08:16Z</time>
      </trkpt>
      <trkpt lat="44.77967" lon="6.28885">
        <ele>2534.6</ele>
        <time>2024-08-12T13:08:17Z</time>
      </trkpt>
      <trkpt lat="44.77969" lon="6.28887">
        <ele>2534.4</ele>
        <time>2024-08-12T13:08:18Z</time>
      </trkpt>
      <trkpt lat="44.77969" lon="6.28887">
        <ele>2534.2</ele>
        <time>2024-08-12T13:08:19Z</time>
      </trkpt>
      <trkpt lat="44.77969" lon="6.28887">
        <ele>2534</ele>
        <time>2024-08-12T13:08:20Z</time>
      </trkpt>
      <trkpt lat="44.77969" lon="6.28887">
        <ele>2534</ele>
        <time>2024-08-12T13:08:21Z</time>
      </trkpt>
      <trkpt lat="44.77971" lon="6.28887">
        <ele>2534.4</ele>
        <time>2024-08-12T13:08:22Z</time>
      </trkpt>
      <trkpt lat="44.77971" lon="6.28887">
        <ele>2535.2</ele>
        <time>2024-08-12T13:08:23Z</time>
      </trkpt>
      <trkpt lat="44.77971" lon="6.28887">
        <ele>2535.4</ele>
        <time>2024-08-12T13:08:24Z</time>
      </trkpt>
      <trkpt lat="44.77973" lon="6.28885">
        <ele>2535.4</ele>
        <time>2024-08-12T13:08:25Z</time>
      </trkpt>
      <trkpt lat="44.77973" lon="6.28885">
        <ele>2535.4</ele>
        <time>2024-08-12T13:08:26Z</time>
      </trkpt>
      <trkpt lat="44.77973" lon="6.28885">
        <ele>2535.4</ele>
        <time>2024-08-12T13:08:27Z</time>
      </trkpt>
      <trkpt lat="44.77975" lon="6.28883">
        <ele>2535.2</ele>
        <time>2024-08-12T13:08:28Z</time>
      </trkpt>
      <trkpt lat="44.77975" lon="6.28883">
        <ele>2535.2</ele>
        <time>2024-08-12T13:08:29Z</time>
      </trkpt>
      <trkpt lat="44.77977" lon="6.28883">
        <ele>2535.2</ele>
        <time>2024-08-12T13:08:30Z</time>
      </trkpt>
      <trkpt lat="44.77977" lon="6.28883">
        <ele>2534.4</ele>
        <time>2024-08-12T13:08:31Z</time>
      </trkpt>
      <trkpt lat="44.77977" lon="6.28883">
        <ele>2534</ele>
        <time>2024-08-12T13:08:32Z</time>
      </trkpt>
      <trkpt lat="44.77979" lon="6.28882">
        <ele>2533.8</ele>
        <time>2024-08-12T13:08:33Z</time>
      </trkpt>
      <trkpt lat="44.77979" lon="6.28882">
        <ele>2533.8</ele>
        <time>2024-08-12T13:08:34Z</time>
      </trkpt>
      <trkpt lat="44.77981" lon="6.2888">
        <ele>2533.6</ele>
        <time>2024-08-12T13:08:35Z</time>
      </trkpt>
      <trkpt lat="44.77981" lon="6.2888">
        <ele>2533.6</ele>
        <time>2024-08-12T13:08:36Z</time>
      </trkpt>
      <trkpt lat="44.77981" lon="6.2888">
        <ele>2533.2</ele>
        <time>2024-08-12T13:08:37Z</time>
      </trkpt>
      <trkpt lat="44.77984" lon="6.28879">
        <ele>2532.6</ele>
        <time>2024-08-12T13:08:38Z</time>
      </trkpt>
      <trkpt lat="44.77984" lon="6.28879">
        <ele>2532.6</ele>
        <time>2024-08-12T13:08:39Z</time>
      </trkpt>
      <trkpt lat="44.77986" lon="6.2888">
        <ele>2532.4</ele>
        <time>2024-08-12T13:08:40Z</time>
      </trkpt>
      <trkpt lat="44.77986" lon="6.2888">
        <ele>2532.4</ele>
        <time>2024-08-12T13:08:41Z</time>
      </trkpt>
      <trkpt lat="44.77986" lon="6.2888">
        <ele>2532.2</ele>
        <time>2024-08-12T13:08:42Z</time>
      </trkpt>
      <trkpt lat="44.77989" lon="6.28879">
        <ele>2532</ele>
        <time>2024-08-12T13:08:43Z</time>
      </trkpt>
      <trkpt lat="44.77989" lon="6.28879">
        <ele>2532</ele>
        <time>2024-08-12T13:08:44Z</time>
      </trkpt>
      <trkpt lat="44.7799" lon="6.28878">
        <ele>2531.8</ele>
        <time>2024-08-12T13:08:45Z</time>
      </trkpt>
      <trkpt lat="44.7799" lon="6.28878">
        <ele>2531.8</ele>
        <time>2024-08-12T13:08:46Z</time>
      </trkpt>
      <trkpt lat="44.7799" lon="6.28878">
        <ele>2531.6</ele>
        <time>2024-08-12T13:08:47Z</time>
      </trkpt>
      <trkpt lat="44.77991" lon="6.28876">
        <ele>2531.2</ele>
        <time>2024-08-12T13:08:48Z</time>
      </trkpt>
      <trkpt lat="44.77991" lon="6.28876">
        <ele>2531</ele>
        <time>2024-08-12T13:08:49Z</time>
      </trkpt>
      <trkpt lat="44.77994" lon="6.28876">
        <ele>2530.6</ele>
        <time>2024-08-12T13:08:50Z</time>
      </trkpt>
      <trkpt lat="44.77994" lon="6.28876">
        <ele>2530.4</ele>
        <time>2024-08-12T13:08:51Z</time>
      </trkpt>
      <trkpt lat="44.77996" lon="6.28877">
        <ele>2530.2</ele>
        <time>2024-08-12T13:08:52Z</time>
      </trkpt>
      <trkpt lat="44.77996" lon="6.28877">
        <ele>2530</ele>
        <time>2024-08-12T13:08:53Z</time>
      </trkpt>
      <trkpt lat="44.77996" lon="6.28877">
        <ele>2530</ele>
        <time>2024-08-12T13:08:54Z</time>
      </trkpt>
      <trkpt lat="44.77999" lon="6.28877">
        <ele>2529.8</ele>
        <time>2024-08-12T13:08:55Z</time>
      </trkpt>
      <trkpt lat="44.77999" lon="6.28877">
        <ele>2529.8</ele>
        <time>2024-08-12T13:08:56Z</time>
      </trkpt>
      <trkpt lat="44.78001" lon="6.28878">
        <ele>2529.4</ele>
        <time>2024-08-12T13:08:57Z</time>
      </trkpt>
      <trkpt lat="44.78001" lon="6.28878">
        <ele>2529.2</ele>
        <time>2024-08-12T13:08:58Z</time>
      </trkpt>
      <trkpt lat="44.78003" lon="6.28879">
        <ele>2529.2</ele>
        <time>2024-08-12T13:08:59Z</time>
      </trkpt>
      <trkpt lat="44.78003" lon="6.28879">
        <ele>2529.2</ele>
        <time>2024-08-12T13:09:00Z</time>
      </trkpt>
      <trkpt lat="44.78005" lon="6.28879">
        <ele>2529.2</ele>
        <time>2024-08-12T13:09:01Z</time>
      </trkpt>
      <trkpt lat="44.78005" lon="6.28879">
        <ele>2529</ele>
        <time>2024-08-12T13:09:02Z</time>
      </trkpt>
      <trkpt lat="44.78005" lon="6.28879">
        <ele>2529</ele>
        <time>2024-08-12T13:09:03Z</time>
      </trkpt>
      <trkpt lat="44.78007" lon="6.28879">
        <ele>2528.8</ele>
        <time>2024-08-12T13:09:04Z</time>
      </trkpt>
      <trkpt lat="44.78007" lon="6.28879">
        <ele>2528.8</ele>
        <time>2024-08-12T13:09:05Z</time>
      </trkpt>
      <trkpt lat="44.78007" lon="6.28879">
        <ele>2528.4</ele>
        <time>2024-08-12T13:09:06Z</time>
      </trkpt>
      <trkpt lat="44.78009" lon="6.28878">
        <ele>2528.2</ele>
        <time>2024-08-12T13:09:07Z</time>
      </trkpt>
      <trkpt lat="44.78009" lon="6.28878">
        <ele>2528.2</ele>
        <time>2024-08-12T13:09:08Z</time>
      </trkpt>
      <trkpt lat="44.78011" lon="6.28878">
        <ele>2528</ele>
        <time>2024-08-12T13:09:09Z</time>
      </trkpt>
      <trkpt lat="44.78011" lon="6.28878">
        <ele>2527.8</ele>
        <time>2024-08-12T13:09:10Z</time>
      </trkpt>
      <trkpt lat="44.78013" lon="6.28877">
        <ele>2527.6</ele>
        <time>2024-08-12T13:09:11Z</time>
      </trkpt>
      <trkpt lat="44.78013" lon="6.28877">
        <ele>2527.4</ele>
        <time>2024-08-12T13:09:12Z</time>
      </trkpt>
      <trkpt lat="44.78013" lon="6.28877">
        <ele>2527</ele>
        <time>2024-08-12T13:09:13Z</time>
      </trkpt>
      <trkpt lat="44.78015" lon="6.28877">
        <ele>2527</ele>
        <time>2024-08-12T13:09:14Z</time>
      </trkpt>
      <trkpt lat="44.78015" lon="6.28877">
        <ele>2526.8</ele>
        <time>2024-08-12T13:09:15Z</time>
      </trkpt>
      <trkpt lat="44.78017" lon="6.28876">
        <ele>2526.6</ele>
        <time>2024-08-12T13:09:16Z</time>
      </trkpt>
      <trkpt lat="44.78017" lon="6.28876">
        <ele>2526.4</ele>
        <time>2024-08-12T13:09:17Z</time>
      </trkpt>
      <trkpt lat="44.78019" lon="6.28875">
        <ele>2526</ele>
        <time>2024-08-12T13:09:18Z</time>
      </trkpt>
      <trkpt lat="44.78019" lon="6.28875">
        <ele>2526</ele>
        <time>2024-08-12T13:09:19Z</time>
      </trkpt>
      <trkpt lat="44.78021" lon="6.28875">
        <ele>2525.8</ele>
        <time>2024-08-12T13:09:20Z</time>
      </trkpt>
      <trkpt lat="44.78021" lon="6.28875">
        <ele>2525.2</ele>
        <time>2024-08-12T13:09:21Z</time>
      </trkpt>
      <trkpt lat="44.78023" lon="6.28875">
        <ele>2525.2</ele>
        <time>2024-08-12T13:09:22Z</time>
      </trkpt>
      <trkpt lat="44.78023" lon="6.28875">
        <ele>2525</ele>
        <time>2024-08-12T13:09:23Z</time>
      </trkpt>
      <trkpt lat="44.78025" lon="6.28874">
        <ele>2525</ele>
        <time>2024-08-12T13:09:24Z</time>
      </trkpt>
      <trkpt lat="44.78025" lon="6.28874">
        <ele>2524.6</ele>
        <time>2024-08-12T13:09:25Z</time>
      </trkpt>
      <trkpt lat="44.78027" lon="6.28874">
        <ele>2524.6</ele>
        <time>2024-08-12T13:09:26Z</time>
      </trkpt>
      <trkpt lat="44.78027" lon="6.28874">
        <ele>2524.2</ele>
        <time>2024-08-12T13:09:27Z</time>
      </trkpt>
      <trkpt lat="44.78029" lon="6.28873">
        <ele>2523.8</ele>
        <time>2024-08-12T13:09:28Z</time>
      </trkpt>
      <trkpt lat="44.78029" lon="6.28873">
        <ele>2523.8</ele>
        <time>2024-08-12T13:09:29Z</time>
      </trkpt>
      <trkpt lat="44.78032" lon="6.28873">
        <ele>2523.6</ele>
        <time>2024-08-12T13:09:30Z</time>
      </trkpt>
      <trkpt lat="44.78032" lon="6.28873">
        <ele>2523</ele>
        <time>2024-08-12T13:09:31Z</time>
      </trkpt>
      <trkpt lat="44.78033" lon="6.28875">
        <ele>2522.6</ele>
        <time>2024-08-12T13:09:32Z</time>
      </trkpt>
      <trkpt lat="44.78033" lon="6.28875">
        <ele>2522.6</ele>
        <time>2024-08-12T13:09:33Z</time>
      </trkpt>
      <trkpt lat="44.78033" lon="6.28875">
        <ele>2522.6</ele>
        <time>2024-08-12T13:09:34Z</time>
      </trkpt>
      <trkpt lat="44.78035" lon="6.28874">
        <ele>2522.6</ele>
        <time>2024-08-12T13:09:35Z</time>
      </trkpt>
      <trkpt lat="44.78035" lon="6.28874">
        <ele>2522.4</ele>
        <time>2024-08-12T13:09:36Z</time>
      </trkpt>
      <trkpt lat="44.78038" lon="6.28874">
        <ele>2522.4</ele>
        <time>2024-08-12T13:09:37Z</time>
      </trkpt>
      <trkpt lat="44.78038" lon="6.28874">
        <ele>2522.2</ele>
        <time>2024-08-12T13:09:38Z</time>
      </trkpt>
      <trkpt lat="44.7804" lon="6.28874">
        <ele>2522</ele>
        <time>2024-08-12T13:09:39Z</time>
      </trkpt>
      <trkpt lat="44.7804" lon="6.28874">
        <ele>2521.6</ele>
        <time>2024-08-12T13:09:40Z</time>
      </trkpt>
      <trkpt lat="44.78042" lon="6.28874">
        <ele>2521.2</ele>
        <time>2024-08-12T13:09:41Z</time>
      </trkpt>
      <trkpt lat="44.78042" lon="6.28874">
        <ele>2521</ele>
        <time>2024-08-12T13:09:42Z</time>
      </trkpt>
      <trkpt lat="44.78042" lon="6.28874">
        <ele>2520.8</ele>
        <time>2024-08-12T13:09:43Z</time>
      </trkpt>
      <trkpt lat="44.78045" lon="6.28873">
        <ele>2520.6</ele>
        <time>2024-08-12T13:09:44Z</time>
      </trkpt>
      <trkpt lat="44.78045" lon="6.28873">
        <ele>2520.2</ele>
        <time>2024-08-12T13:09:45Z</time>
      </trkpt>
      <trkpt lat="44.78047" lon="6.28872">
        <ele>2520.2</ele>
        <time>2024-08-12T13:09:46Z</time>
      </trkpt>
      <trkpt lat="44.78047" lon="6.28872">
        <ele>2520</ele>
        <time>2024-08-12T13:09:47Z</time>
      </trkpt>
      <trkpt lat="44.78049" lon="6.28871">
        <ele>2519.8</ele>
        <time>2024-08-12T13:09:48Z</time>
      </trkpt>
      <trkpt lat="44.78049" lon="6.28871">
        <ele>2519.8</ele>
        <time>2024-08-12T13:09:49Z</time>
      </trkpt>
      <trkpt lat="44.78052" lon="6.28871">
        <ele>2519.2</ele>
        <time>2024-08-12T13:09:50Z</time>
      </trkpt>
      <trkpt lat="44.78052" lon="6.28871">
        <ele>2518.8</ele>
        <time>2024-08-12T13:09:51Z</time>
      </trkpt>
      <trkpt lat="44.78054" lon="6.28872">
        <ele>2518.6</ele>
        <time>2024-08-12T13:09:52Z</time>
      </trkpt>
      <trkpt lat="44.78054" lon="6.28872">
        <ele>2518.6</ele>
        <time>2024-08-12T13:09:53Z</time>
      </trkpt>
      <trkpt lat="44.78056" lon="6.28873">
        <ele>2518.2</ele>
        <time>2024-08-12T13:09:54Z</time>
      </trkpt>
      <trkpt lat="44.78056" lon="6.28873">
        <ele>2518.2</ele>
        <time>2024-08-12T13:09:55Z</time>
      </trkpt>
      <trkpt lat="44.78059" lon="6.28873">
        <ele>2518</ele>
        <time>2024-08-12T13:09:56Z</time>
      </trkpt>
      <trkpt lat="44.78059" lon="6.28873">
        <ele>2518</ele>
        <time>2024-08-12T13:09:57Z</time>
      </trkpt>
      <trkpt lat="44.78061" lon="6.28874">
        <ele>2517.8</ele>
        <time>2024-08-12T13:09:58Z</time>
      </trkpt>
      <trkpt lat="44.78061" lon="6.28874">
        <ele>2517.4</ele>
        <time>2024-08-12T13:09:59Z</time>
      </trkpt>
      <trkpt lat="44.78061" lon="6.28874">
        <ele>2517.4</ele>
        <time>2024-08-12T13:10:01Z</time>
      </trkpt>
      <trkpt lat="44.78063" lon="6.28875">
        <ele>2517.4</ele>
        <time>2024-08-12T13:10:02Z</time>
      </trkpt>
      <trkpt lat="44.78063" lon="6.28875">
        <ele>2516.4</ele>
        <time>2024-08-12T13:10:03Z</time>
      </trkpt>
      <trkpt lat="44.78063" lon="6.28875">
        <ele>2516.4</ele>
        <time>2024-08-12T13:10:04Z</time>
      </trkpt>
      <trkpt lat="44.78063" lon="6.28875">
        <ele>2516.4</ele>
        <time>2024-08-12T13:10:05Z</time>
      </trkpt>
      <trkpt lat="44.78063" lon="6.28875">
        <ele>2516.4</ele>
        <time>2024-08-12T13:10:06Z</time>
      </trkpt>
      <trkpt lat="44.78063" lon="6.28875">
        <ele>2516.6</ele>
        <time>2024-08-12T13:10:07Z</time>
      </trkpt>
      <trkpt lat="44.78063" lon="6.28875">
        <ele>2516.6</ele>
        <time>2024-08-12T13:10:08Z</time>
      </trkpt>
      <trkpt lat="44.78063" lon="6.28875">
        <ele>2516.4</ele>
        <time>2024-08-12T13:10:09Z</time>
      </trkpt>
      <trkpt lat="44.78065" lon="6.28874">
        <ele>2516.4</ele>
        <time>2024-08-12T13:10:10Z</time>
      </trkpt>
      <trkpt lat="44.78065" lon="6.28874">
        <ele>2516.2</ele>
        <time>2024-08-12T13:10:11Z</time>
      </trkpt>
      <trkpt lat="44.78067" lon="6.28875">
        <ele>2516</ele>
        <time>2024-08-12T13:10:12Z</time>
      </trkpt>
      <trkpt lat="44.78067" lon="6.28875">
        <ele>2515.4</ele>
        <time>2024-08-12T13:10:13Z</time>
      </trkpt>
      <trkpt lat="44.78067" lon="6.28875">
        <ele>2515</ele>
        <time>2024-08-12T13:10:14Z</time>
      </trkpt>
      <trkpt lat="44.78067" lon="6.28875">
        <ele>2514.8</ele>
        <time>2024-08-12T13:10:15Z</time>
      </trkpt>
      <trkpt lat="44.78067" lon="6.28875">
        <ele>2514.6</ele>
        <time>2024-08-12T13:10:16Z</time>
      </trkpt>
      <trkpt lat="44.78069" lon="6.28874">
        <ele>2514.6</ele>
        <time>2024-08-12T13:10:17Z</time>
      </trkpt>
      <trkpt lat="44.78069" lon="6.28874">
        <ele>2515.4</ele>
        <time>2024-08-12T13:10:18Z</time>
      </trkpt>
      <trkpt lat="44.78071" lon="6.28873">
        <ele>2515.4</ele>
        <time>2024-08-12T13:10:19Z</time>
      </trkpt>
      <trkpt lat="44.78071" lon="6.28873">
        <ele>2514.8</ele>
        <time>2024-08-12T13:10:20Z</time>
      </trkpt>
      <trkpt lat="44.78074" lon="6.28873">
        <ele>2514.4</ele>
        <time>2024-08-12T13:10:21Z</time>
      </trkpt>
      <trkpt lat="44.78074" lon="6.28873">
        <ele>2514.2</ele>
        <time>2024-08-12T13:10:22Z</time>
      </trkpt>
      <trkpt lat="44.78076" lon="6.28872">
        <ele>2514</ele>
        <time>2024-08-12T13:10:23Z</time>
      </trkpt>
      <trkpt lat="44.78076" lon="6.28872">
        <ele>2513.8</ele>
        <time>2024-08-12T13:10:24Z</time>
      </trkpt>
      <trkpt lat="44.78078" lon="6.2887">
        <ele>2513.6</ele>
        <time>2024-08-12T13:10:25Z</time>
      </trkpt>
      <trkpt lat="44.78078" lon="6.2887">
        <ele>2513.4</ele>
        <time>2024-08-12T13:10:26Z</time>
      </trkpt>
      <trkpt lat="44.7808" lon="6.28869">
        <ele>2513</ele>
        <time>2024-08-12T13:10:27Z</time>
      </trkpt>
      <trkpt lat="44.7808" lon="6.28869">
        <ele>2512.8</ele>
        <time>2024-08-12T13:10:28Z</time>
      </trkpt>
      <trkpt lat="44.78082" lon="6.28868">
        <ele>2512.4</ele>
        <time>2024-08-12T13:10:29Z</time>
      </trkpt>
      <trkpt lat="44.78082" lon="6.28868">
        <ele>2512.2</ele>
        <time>2024-08-12T13:10:30Z</time>
      </trkpt>
      <trkpt lat="44.78084" lon="6.28867">
        <ele>2511.8</ele>
        <time>2024-08-12T13:10:31Z</time>
      </trkpt>
      <trkpt lat="44.78084" lon="6.28867">
        <ele>2511.6</ele>
        <time>2024-08-12T13:10:32Z</time>
      </trkpt>
      <trkpt lat="44.78086" lon="6.28867">
        <ele>2510.8</ele>
        <time>2024-08-12T13:10:33Z</time>
      </trkpt>
      <trkpt lat="44.78086" lon="6.28867">
        <ele>2510.6</ele>
        <time>2024-08-12T13:10:34Z</time>
      </trkpt>
      <trkpt lat="44.78088" lon="6.28867">
        <ele>2510.4</ele>
        <time>2024-08-12T13:10:35Z</time>
      </trkpt>
      <trkpt lat="44.78088" lon="6.28867">
        <ele>2510.2</ele>
        <time>2024-08-12T13:10:36Z</time>
      </trkpt>
      <trkpt lat="44.7809" lon="6.28868">
        <ele>2510</ele>
        <time>2024-08-12T13:10:37Z</time>
      </trkpt>
      <trkpt lat="44.7809" lon="6.28868">
        <ele>2509.8</ele>
        <time>2024-08-12T13:10:38Z</time>
      </trkpt>
      <trkpt lat="44.78092" lon="6.28869">
        <ele>2509.6</ele>
        <time>2024-08-12T13:10:39Z</time>
      </trkpt>
      <trkpt lat="44.78092" lon="6.28869">
        <ele>2509.2</ele>
        <time>2024-08-12T13:10:40Z</time>
      </trkpt>
      <trkpt lat="44.78094" lon="6.28869">
        <ele>2509.2</ele>
        <time>2024-08-12T13:10:41Z</time>
      </trkpt>
      <trkpt lat="44.78094" lon="6.28869">
        <ele>2509.2</ele>
        <time>2024-08-12T13:10:42Z</time>
      </trkpt>
      <trkpt lat="44.78094" lon="6.28869">
        <ele>2509.2</ele>
        <time>2024-08-12T13:10:43Z</time>
      </trkpt>
      <trkpt lat="44.78096" lon="6.28868">
        <ele>2509</ele>
        <time>2024-08-12T13:10:44Z</time>
      </trkpt>
      <trkpt lat="44.78096" lon="6.28868">
        <ele>2509</ele>
        <time>2024-08-12T13:10:45Z</time>
      </trkpt>
      <trkpt lat="44.78096" lon="6.28868">
        <ele>2508.8</ele>
        <time>2024-08-12T13:10:46Z</time>
      </trkpt>
      <trkpt lat="44.78098" lon="6.28868">
        <ele>2508.8</ele>
        <time>2024-08-12T13:10:47Z</time>
      </trkpt>
      <trkpt lat="44.78098" lon="6.28868">
        <ele>2508.4</ele>
        <time>2024-08-12T13:10:48Z</time>
      </trkpt>
      <trkpt lat="44.78098" lon="6.28868">
        <ele>2508.4</ele>
        <time>2024-08-12T13:10:49Z</time>
      </trkpt>
      <trkpt lat="44.78101" lon="6.28868">
        <ele>2508</ele>
        <time>2024-08-12T13:10:50Z</time>
      </trkpt>
      <trkpt lat="44.78101" lon="6.28868">
        <ele>2507.6</ele>
        <time>2024-08-12T13:10:51Z</time>
      </trkpt>
      <trkpt lat="44.78102" lon="6.28869">
        <ele>2507.6</ele>
        <time>2024-08-12T13:10:52Z</time>
      </trkpt>
      <trkpt lat="44.78102" lon="6.28869">
        <ele>2507.6</ele>
        <time>2024-08-12T13:10:53Z</time>
      </trkpt>
      <trkpt lat="44.78104" lon="6.28869">
        <ele>2507.2</ele>
        <time>2024-08-12T13:10:54Z</time>
      </trkpt>
      <trkpt lat="44.78104" lon="6.28869">
        <ele>2506.8</ele>
        <time>2024-08-12T13:10:55Z</time>
      </trkpt>
      <trkpt lat="44.78104" lon="6.28869">
        <ele>2506.4</ele>
        <time>2024-08-12T13:10:56Z</time>
      </trkpt>
      <trkpt lat="44.78107" lon="6.28869">
        <ele>2506.2</ele>
        <time>2024-08-12T13:10:57Z</time>
      </trkpt>
      <trkpt lat="44.78107" lon="6.28869">
        <ele>2506</ele>
        <time>2024-08-12T13:10:58Z</time>
      </trkpt>
      <trkpt lat="44.78109" lon="6.28868">
        <ele>2505.6</ele>
        <time>2024-08-12T13:10:59Z</time>
      </trkpt>
      <trkpt lat="44.78109" lon="6.28868">
        <ele>2505</ele>
        <time>2024-08-12T13:11:00Z</time>
      </trkpt>
      <trkpt lat="44.7811" lon="6.28869">
        <ele>2504.8</ele>
        <time>2024-08-12T13:11:01Z</time>
      </trkpt>
      <trkpt lat="44.7811" lon="6.28869">
        <ele>2504.4</ele>
        <time>2024-08-12T13:11:02Z</time>
      </trkpt>
      <trkpt lat="44.78113" lon="6.28869">
        <ele>2504.4</ele>
        <time>2024-08-12T13:11:03Z</time>
      </trkpt>
      <trkpt lat="44.78113" lon="6.28869">
        <ele>2504.4</ele>
        <time>2024-08-12T13:11:04Z</time>
      </trkpt>
      <trkpt lat="44.78113" lon="6.28869">
        <ele>2504</ele>
        <time>2024-08-12T13:11:05Z</time>
      </trkpt>
      <trkpt lat="44.78116" lon="6.2887">
        <ele>2503.6</ele>
        <time>2024-08-12T13:11:06Z</time>
      </trkpt>
      <trkpt lat="44.78116" lon="6.2887">
        <ele>2503.6</ele>
        <time>2024-08-12T13:11:07Z</time>
      </trkpt>
      <trkpt lat="44.78117" lon="6.2887">
        <ele>2503.2</ele>
        <time>2024-08-12T13:11:08Z</time>
      </trkpt>
      <trkpt lat="44.78117" lon="6.2887">
        <ele>2503</ele>
        <time>2024-08-12T13:11:09Z</time>
      </trkpt>
      <trkpt lat="44.78119" lon="6.2887">
        <ele>2502.6</ele>
        <time>2024-08-12T13:11:10Z</time>
      </trkpt>
      <trkpt lat="44.78119" lon="6.2887">
        <ele>2502.4</ele>
        <time>2024-08-12T13:11:11Z</time>
      </trkpt>
      <trkpt lat="44.78121" lon="6.28871">
        <ele>2502.2</ele>
        <time>2024-08-12T13:11:12Z</time>
      </trkpt>
      <trkpt lat="44.78121" lon="6.28871">
        <ele>2502</ele>
        <time>2024-08-12T13:11:13Z</time>
      </trkpt>
      <trkpt lat="44.78123" lon="6.28871">
        <ele>2501.8</ele>
        <time>2024-08-12T13:11:14Z</time>
      </trkpt>
      <trkpt lat="44.78123" lon="6.28871">
        <ele>2501.6</ele>
        <time>2024-08-12T13:11:15Z</time>
      </trkpt>
      <trkpt lat="44.78125" lon="6.2887">
        <ele>2501.4</ele>
        <time>2024-08-12T13:11:16Z</time>
      </trkpt>
      <trkpt lat="44.78125" lon="6.2887">
        <ele>2500.8</ele>
        <time>2024-08-12T13:11:17Z</time>
      </trkpt>
      <trkpt lat="44.78125" lon="6.2887">
        <ele>2500.6</ele>
        <time>2024-08-12T13:11:18Z</time>
      </trkpt>
      <trkpt lat="44.78125" lon="6.2887">
        <ele>2500.4</ele>
        <time>2024-08-12T13:11:19Z</time>
      </trkpt>
      <trkpt lat="44.78125" lon="6.2887">
        <ele>2500.2</ele>
        <time>2024-08-12T13:11:20Z</time>
      </trkpt>
      <trkpt lat="44.78124" lon="6.28867">
        <ele>2499.8</ele>
        <time>2024-08-12T13:11:21Z</time>
      </trkpt>
      <trkpt lat="44.78124" lon="6.28867">
        <ele>2499.2</ele>
        <time>2024-08-12T13:11:22Z</time>
      </trkpt>
      <trkpt lat="44.78122" lon="6.28865">
        <ele>2499.2</ele>
        <time>2024-08-12T13:11:23Z</time>
      </trkpt>
      <trkpt lat="44.78122" lon="6.28865">
        <ele>2499</ele>
        <time>2024-08-12T13:11:24Z</time>
      </trkpt>
      <trkpt lat="44.7812" lon="6.28863">
        <ele>2498.8</ele>
        <time>2024-08-12T13:11:25Z</time>
      </trkpt>
      <trkpt lat="44.7812" lon="6.28863">
        <ele>2498.6</ele>
        <time>2024-08-12T13:11:26Z</time>
      </trkpt>
      <trkpt lat="44.78119" lon="6.28861">
        <ele>2498.2</ele>
        <time>2024-08-12T13:11:27Z</time>
      </trkpt>
      <trkpt lat="44.78119" lon="6.28861">
        <ele>2498.2</ele>
        <time>2024-08-12T13:11:28Z</time>
      </trkpt>
      <trkpt lat="44.78117" lon="6.28859">
        <ele>2498.2</ele>
        <time>2024-08-12T13:11:29Z</time>
      </trkpt>
      <trkpt lat="44.78117" lon="6.28859">
        <ele>2497.8</ele>
        <time>2024-08-12T13:11:30Z</time>
      </trkpt>
      <trkpt lat="44.78117" lon="6.28859">
        <ele>2497.6</ele>
        <time>2024-08-12T13:11:31Z</time>
      </trkpt>
      <trkpt lat="44.78115" lon="6.28857">
        <ele>2497.2</ele>
        <time>2024-08-12T13:11:32Z</time>
      </trkpt>
      <trkpt lat="44.78115" lon="6.28857">
        <ele>2497</ele>
        <time>2024-08-12T13:11:33Z</time>
      </trkpt>
      <trkpt lat="44.78113" lon="6.28855">
        <ele>2496.8</ele>
        <time>2024-08-12T13:11:34Z</time>
      </trkpt>
      <trkpt lat="44.78113" lon="6.28855">
        <ele>2496.6</ele>
        <time>2024-08-12T13:11:35Z</time>
      </trkpt>
      <trkpt lat="44.78113" lon="6.28855">
        <ele>2496.6</ele>
        <time>2024-08-12T13:11:36Z</time>
      </trkpt>
      <trkpt lat="44.78112" lon="6.28853">
        <ele>2496.4</ele>
        <time>2024-08-12T13:11:37Z</time>
      </trkpt>
      <trkpt lat="44.78112" lon="6.28853">
        <ele>2496.2</ele>
        <time>2024-08-12T13:11:38Z</time>
      </trkpt>
      <trkpt lat="44.78112" lon="6.28853">
        <ele>2495.8</ele>
        <time>2024-08-12T13:11:39Z</time>
      </trkpt>
      <trkpt lat="44.78111" lon="6.28849">
        <ele>2495.4</ele>
        <time>2024-08-12T13:11:40Z</time>
      </trkpt>
      <trkpt lat="44.78111" lon="6.28849">
        <ele>2495</ele>
        <time>2024-08-12T13:11:41Z</time>
      </trkpt>
      <trkpt lat="44.7811" lon="6.28847">
        <ele>2495</ele>
        <time>2024-08-12T13:11:42Z</time>
      </trkpt>
      <trkpt lat="44.7811" lon="6.28847">
        <ele>2495</ele>
        <time>2024-08-12T13:11:43Z</time>
      </trkpt>
      <trkpt lat="44.78108" lon="6.28846">
        <ele>2495</ele>
        <time>2024-08-12T13:11:44Z</time>
      </trkpt>
      <trkpt lat="44.78108" lon="6.28846">
        <ele>2494.8</ele>
        <time>2024-08-12T13:11:45Z</time>
      </trkpt>
      <trkpt lat="44.78108" lon="6.28846">
        <ele>2494.4</ele>
        <time>2024-08-12T13:11:46Z</time>
      </trkpt>
      <trkpt lat="44.78108" lon="6.28844">
        <ele>2494.2</ele>
        <time>2024-08-12T13:11:47Z</time>
      </trkpt>
      <trkpt lat="44.78108" lon="6.28844">
        <ele>2493.4</ele>
        <time>2024-08-12T13:11:48Z</time>
      </trkpt>
      <trkpt lat="44.78108" lon="6.28844">
        <ele>2492.8</ele>
        <time>2024-08-12T13:11:49Z</time>
      </trkpt>
      <trkpt lat="44.78108" lon="6.28844">
        <ele>2492.8</ele>
        <time>2024-08-12T13:11:50Z</time>
      </trkpt>
      <trkpt lat="44.7811" lon="6.28844">
        <ele>2492.8</ele>
        <time>2024-08-12T13:11:51Z</time>
      </trkpt>
      <trkpt lat="44.7811" lon="6.28844">
        <ele>2492.8</ele>
        <time>2024-08-12T13:11:52Z</time>
      </trkpt>
      <trkpt lat="44.78112" lon="6.28843">
        <ele>2492.6</ele>
        <time>2024-08-12T13:11:53Z</time>
      </trkpt>
      <trkpt lat="44.78112" lon="6.28843">
        <ele>2492.4</ele>
        <time>2024-08-12T13:11:54Z</time>
      </trkpt>
      <trkpt lat="44.78115" lon="6.28843">
        <ele>2492.2</ele>
        <time>2024-08-12T13:11:55Z</time>
      </trkpt>
      <trkpt lat="44.78115" lon="6.28843">
        <ele>2492</ele>
        <time>2024-08-12T13:11:56Z</time>
      </trkpt>
      <trkpt lat="44.78117" lon="6.28843">
        <ele>2491.8</ele>
        <time>2024-08-12T13:11:57Z</time>
      </trkpt>
      <trkpt lat="44.78117" lon="6.28843">
        <ele>2491.6</ele>
        <time>2024-08-12T13:11:58Z</time>
      </trkpt>
      <trkpt lat="44.78119" lon="6.28843">
        <ele>2491.4</ele>
        <time>2024-08-12T13:11:59Z</time>
      </trkpt>
      <trkpt lat="44.78119" lon="6.28843">
        <ele>2491.4</ele>
        <time>2024-08-12T13:12:00Z</time>
      </trkpt>
      <trkpt lat="44.78121" lon="6.28843">
        <ele>2491</ele>
        <time>2024-08-12T13:12:01Z</time>
      </trkpt>
      <trkpt lat="44.78121" lon="6.28843">
        <ele>2490.8</ele>
        <time>2024-08-12T13:12:02Z</time>
      </trkpt>
      <trkpt lat="44.78121" lon="6.28843">
        <ele>2490.8</ele>
        <time>2024-08-12T13:12:03Z</time>
      </trkpt>
      <trkpt lat="44.78124" lon="6.28843">
        <ele>2490.6</ele>
        <time>2024-08-12T13:12:04Z</time>
      </trkpt>
      <trkpt lat="44.78124" lon="6.28843">
        <ele>2490.4</ele>
        <time>2024-08-12T13:12:05Z</time>
      </trkpt>
      <trkpt lat="44.78124" lon="6.28843">
        <ele>2490.2</ele>
        <time>2024-08-12T13:12:06Z</time>
      </trkpt>
      <trkpt lat="44.78126" lon="6.28843">
        <ele>2490</ele>
        <time>2024-08-12T13:12:07Z</time>
      </trkpt>
      <trkpt lat="44.78126" lon="6.28843">
        <ele>2490</ele>
        <time>2024-08-12T13:12:08Z</time>
      </trkpt>
      <trkpt lat="44.78126" lon="6.28843">
        <ele>2490</ele>
        <time>2024-08-12T13:12:09Z</time>
      </trkpt>
      <trkpt lat="44.78128" lon="6.28844">
        <ele>2489.4</ele>
        <time>2024-08-12T13:12:10Z</time>
      </trkpt>
      <trkpt lat="44.78128" lon="6.28844">
        <ele>2489.4</ele>
        <time>2024-08-12T13:12:11Z</time>
      </trkpt>
      <trkpt lat="44.7813" lon="6.28843">
        <ele>2489</ele>
        <time>2024-08-12T13:12:12Z</time>
      </trkpt>
      <trkpt lat="44.7813" lon="6.28843">
        <ele>2488.8</ele>
        <time>2024-08-12T13:12:13Z</time>
      </trkpt>
      <trkpt lat="44.78132" lon="6.28844">
        <ele>2488.2</ele>
        <time>2024-08-12T13:12:14Z</time>
      </trkpt>
      <trkpt lat="44.78132" lon="6.28844">
        <ele>2487.8</ele>
        <time>2024-08-12T13:12:15Z</time>
      </trkpt>
      <trkpt lat="44.78134" lon="6.28844">
        <ele>2487.6</ele>
        <time>2024-08-12T13:12:16Z</time>
      </trkpt>
      <trkpt lat="44.78134" lon="6.28844">
        <ele>2487.4</ele>
        <time>2024-08-12T13:12:17Z</time>
      </trkpt>
      <trkpt lat="44.78136" lon="6.28844">
        <ele>2487.4</ele>
        <time>2024-08-12T13:12:18Z</time>
      </trkpt>
      <trkpt lat="44.78136" lon="6.28844">
        <ele>2487.4</ele>
        <time>2024-08-12T13:12:19Z</time>
      </trkpt>
      <trkpt lat="44.78136" lon="6.28844">
        <ele>2487.4</ele>
        <time>2024-08-12T13:12:20Z</time>
      </trkpt>
      <trkpt lat="44.78138" lon="6.28844">
        <ele>2487.2</ele>
        <time>2024-08-12T13:12:21Z</time>
      </trkpt>
      <trkpt lat="44.78138" lon="6.28844">
        <ele>2487</ele>
        <time>2024-08-12T13:12:22Z</time>
      </trkpt>
      <trkpt lat="44.78141" lon="6.28844">
        <ele>2486.8</ele>
        <time>2024-08-12T13:12:23Z</time>
      </trkpt>
      <trkpt lat="44.78141" lon="6.28844">
        <ele>2486.6</ele>
        <time>2024-08-12T13:12:24Z</time>
      </trkpt>
      <trkpt lat="44.78143" lon="6.28843">
        <ele>2486</ele>
        <time>2024-08-12T13:12:25Z</time>
      </trkpt>
      <trkpt lat="44.78143" lon="6.28843">
        <ele>2485</ele>
        <time>2024-08-12T13:12:26Z</time>
      </trkpt>
      <trkpt lat="44.78146" lon="6.28844">
        <ele>2484.8</ele>
        <time>2024-08-12T13:12:27Z</time>
      </trkpt>
      <trkpt lat="44.78146" lon="6.28844">
        <ele>2484.6</ele>
        <time>2024-08-12T13:12:28Z</time>
      </trkpt>
      <trkpt lat="44.78148" lon="6.28844">
        <ele>2484.6</ele>
        <time>2024-08-12T13:12:29Z</time>
      </trkpt>
      <trkpt lat="44.78148" lon="6.28844">
        <ele>2484.6</ele>
        <time>2024-08-12T13:12:30Z</time>
      </trkpt>
      <trkpt lat="44.78148" lon="6.28844">
        <ele>2484.6</ele>
        <time>2024-08-12T13:12:31Z</time>
      </trkpt>
      <trkpt lat="44.78151" lon="6.28844">
        <ele>2485.2</ele>
        <time>2024-08-12T13:12:32Z</time>
      </trkpt>
      <trkpt lat="44.78151" lon="6.28844">
        <ele>2485.2</ele>
        <time>2024-08-12T13:12:33Z</time>
      </trkpt>
      <trkpt lat="44.78153" lon="6.28843">
        <ele>2484.4</ele>
        <time>2024-08-12T13:12:34Z</time>
      </trkpt>
      <trkpt lat="44.78153" lon="6.28843">
        <ele>2484</ele>
        <time>2024-08-12T13:12:35Z</time>
      </trkpt>
      <trkpt lat="44.78155" lon="6.28843">
        <ele>2483.8</ele>
        <time>2024-08-12T13:12:36Z</time>
      </trkpt>
      <trkpt lat="44.78155" lon="6.28843">
        <ele>2483.2</ele>
        <time>2024-08-12T13:12:37Z</time>
      </trkpt>
      <trkpt lat="44.78157" lon="6.28843">
        <ele>2483</ele>
        <time>2024-08-12T13:12:38Z</time>
      </trkpt>
      <trkpt lat="44.78157" lon="6.28843">
        <ele>2482.6</ele>
        <time>2024-08-12T13:12:39Z</time>
      </trkpt>
      <trkpt lat="44.78159" lon="6.28843">
        <ele>2482.2</ele>
        <time>2024-08-12T13:12:40Z</time>
      </trkpt>
      <trkpt lat="44.78159" lon="6.28843">
        <ele>2482.2</ele>
        <time>2024-08-12T13:12:41Z</time>
      </trkpt>
      <trkpt lat="44.78159" lon="6.28843">
        <ele>2482</ele>
        <time>2024-08-12T13:12:42Z</time>
      </trkpt>
      <trkpt lat="44.78162" lon="6.28841">
        <ele>2481.8</ele>
        <time>2024-08-12T13:12:43Z</time>
      </trkpt>
      <trkpt lat="44.78162" lon="6.28841">
        <ele>2481.6</ele>
        <time>2024-08-12T13:12:44Z</time>
      </trkpt>
      <trkpt lat="44.78164" lon="6.2884">
        <ele>2480.8</ele>
        <time>2024-08-12T13:12:45Z</time>
      </trkpt>
      <trkpt lat="44.78164" lon="6.2884">
        <ele>2480.6</ele>
        <time>2024-08-12T13:12:46Z</time>
      </trkpt>
      <trkpt lat="44.78166" lon="6.28839">
        <ele>2480.6</ele>
        <time>2024-08-12T13:12:47Z</time>
      </trkpt>
      <trkpt lat="44.78166" lon="6.28839">
        <ele>2480.6</ele>
        <time>2024-08-12T13:12:48Z</time>
      </trkpt>
      <trkpt lat="44.78168" lon="6.28839">
        <ele>2480.4</ele>
        <time>2024-08-12T13:12:49Z</time>
      </trkpt>
      <trkpt lat="44.78168" lon="6.28839">
        <ele>2480.2</ele>
        <time>2024-08-12T13:12:50Z</time>
      </trkpt>
      <trkpt lat="44.7817" lon="6.28838">
        <ele>2480.2</ele>
        <time>2024-08-12T13:12:51Z</time>
      </trkpt>
      <trkpt lat="44.7817" lon="6.28838">
        <ele>2479.6</ele>
        <time>2024-08-12T13:12:52Z</time>
      </trkpt>
      <trkpt lat="44.7817" lon="6.28838">
        <ele>2479</ele>
        <time>2024-08-12T13:12:53Z</time>
      </trkpt>
      <trkpt lat="44.78171" lon="6.28834">
        <ele>2478.8</ele>
        <time>2024-08-12T13:12:54Z</time>
      </trkpt>
      <trkpt lat="44.78171" lon="6.28834">
        <ele>2478.8</ele>
        <time>2024-08-12T13:12:55Z</time>
      </trkpt>
      <trkpt lat="44.78172" lon="6.28832">
        <ele>2478.8</ele>
        <time>2024-08-12T13:12:56Z</time>
      </trkpt>
      <trkpt lat="44.78172" lon="6.28832">
        <ele>2478.6</ele>
        <time>2024-08-12T13:12:57Z</time>
      </trkpt>
      <trkpt lat="44.78174" lon="6.28834">
        <ele>2478.2</ele>
        <time>2024-08-12T13:12:58Z</time>
      </trkpt>
      <trkpt lat="44.78174" lon="6.28834">
        <ele>2478.2</ele>
        <time>2024-08-12T13:12:59Z</time>
      </trkpt>
      <trkpt lat="44.78174" lon="6.28834">
        <ele>2478</ele>
        <time>2024-08-12T13:13:00Z</time>
      </trkpt>
      <trkpt lat="44.78175" lon="6.28836">
        <ele>2478</ele>
        <time>2024-08-12T13:13:01Z</time>
      </trkpt>
      <trkpt lat="44.78175" lon="6.28836">
        <ele>2477.4</ele>
        <time>2024-08-12T13:13:02Z</time>
      </trkpt>
      <trkpt lat="44.78175" lon="6.28836">
        <ele>2477.4</ele>
        <time>2024-08-12T13:13:03Z</time>
      </trkpt>
      <trkpt lat="44.78177" lon="6.28833">
        <ele>2477.4</ele>
        <time>2024-08-12T13:13:04Z</time>
      </trkpt>
      <trkpt lat="44.78177" lon="6.28833">
        <ele>2477</ele>
        <time>2024-08-12T13:13:05Z</time>
      </trkpt>
      <trkpt lat="44.78178" lon="6.28831">
        <ele>2476</ele>
        <time>2024-08-12T13:13:06Z</time>
      </trkpt>
      <trkpt lat="44.78178" lon="6.28831">
        <ele>2476</ele>
        <time>2024-08-12T13:13:07Z</time>
      </trkpt>
      <trkpt lat="44.7818" lon="6.28829">
        <ele>2476</ele>
        <time>2024-08-12T13:13:08Z</time>
      </trkpt>
      <trkpt lat="44.7818" lon="6.28829">
        <ele>2476.2</ele>
        <time>2024-08-12T13:13:09Z</time>
      </trkpt>
      <trkpt lat="44.78181" lon="6.28827">
        <ele>2476.4</ele>
        <time>2024-08-12T13:13:10Z</time>
      </trkpt>
      <trkpt lat="44.78181" lon="6.28827">
        <ele>2476.6</ele>
        <time>2024-08-12T13:13:11Z</time>
      </trkpt>
      <trkpt lat="44.78181" lon="6.28824">
        <ele>2476.6</ele>
        <time>2024-08-12T13:13:12Z</time>
      </trkpt>
      <trkpt lat="44.78181" lon="6.28824">
        <ele>2476.6</ele>
        <time>2024-08-12T13:13:13Z</time>
      </trkpt>
      <trkpt lat="44.78182" lon="6.28821">
        <ele>2476.4</ele>
        <time>2024-08-12T13:13:14Z</time>
      </trkpt>
      <trkpt lat="44.78182" lon="6.28821">
        <ele>2476.2</ele>
        <time>2024-08-12T13:13:15Z</time>
      </trkpt>
      <trkpt lat="44.78183" lon="6.28819">
        <ele>2476.2</ele>
        <time>2024-08-12T13:13:16Z</time>
      </trkpt>
      <trkpt lat="44.78183" lon="6.28819">
        <ele>2476</ele>
        <time>2024-08-12T13:13:17Z</time>
      </trkpt>
      <trkpt lat="44.78185" lon="6.28816">
        <ele>2475.8</ele>
        <time>2024-08-12T13:13:18Z</time>
      </trkpt>
      <trkpt lat="44.78185" lon="6.28816">
        <ele>2475.2</ele>
        <time>2024-08-12T13:13:19Z</time>
      </trkpt>
      <trkpt lat="44.78187" lon="6.28815">
        <ele>2475</ele>
        <time>2024-08-12T13:13:20Z</time>
      </trkpt>
      <trkpt lat="44.78187" lon="6.28815">
        <ele>2474.8</ele>
        <time>2024-08-12T13:13:21Z</time>
      </trkpt>
      <trkpt lat="44.7819" lon="6.28814">
        <ele>2474.6</ele>
        <time>2024-08-12T13:13:22Z</time>
      </trkpt>
      <trkpt lat="44.7819" lon="6.28814">
        <ele>2474.4</ele>
        <time>2024-08-12T13:13:23Z</time>
      </trkpt>
      <trkpt lat="44.78193" lon="6.28814">
        <ele>2474.2</ele>
        <time>2024-08-12T13:13:24Z</time>
      </trkpt>
      <trkpt lat="44.78193" lon="6.28814">
        <ele>2474.2</ele>
        <time>2024-08-12T13:13:25Z</time>
      </trkpt>
      <trkpt lat="44.78195" lon="6.28813">
        <ele>2474.2</ele>
        <time>2024-08-12T13:13:26Z</time>
      </trkpt>
      <trkpt lat="44.78195" lon="6.28813">
        <ele>2474</ele>
        <time>2024-08-12T13:13:27Z</time>
      </trkpt>
      <trkpt lat="44.78197" lon="6.28812">
        <ele>2474</ele>
        <time>2024-08-12T13:13:28Z</time>
      </trkpt>
      <trkpt lat="44.78197" lon="6.28812">
        <ele>2473.8</ele>
        <time>2024-08-12T13:13:29Z</time>
      </trkpt>
      <trkpt lat="44.78199" lon="6.28812">
        <ele>2473.6</ele>
        <time>2024-08-12T13:13:30Z</time>
      </trkpt>
      <trkpt lat="44.78199" lon="6.28812">
        <ele>2473.4</ele>
        <time>2024-08-12T13:13:31Z</time>
      </trkpt>
      <trkpt lat="44.78201" lon="6.28811">
        <ele>2473.4</ele>
        <time>2024-08-12T13:13:32Z</time>
      </trkpt>
      <trkpt lat="44.78201" lon="6.28811">
        <ele>2473</ele>
        <time>2024-08-12T13:13:33Z</time>
      </trkpt>
      <trkpt lat="44.78203" lon="6.28812">
        <ele>2472.8</ele>
        <time>2024-08-12T13:13:34Z</time>
      </trkpt>
      <trkpt lat="44.78203" lon="6.28812">
        <ele>2472.8</ele>
        <time>2024-08-12T13:13:35Z</time>
      </trkpt>
      <trkpt lat="44.78205" lon="6.28813">
        <ele>2472.8</ele>
        <time>2024-08-12T13:13:36Z</time>
      </trkpt>
      <trkpt lat="44.78205" lon="6.28813">
        <ele>2472.6</ele>
        <time>2024-08-12T13:13:37Z</time>
      </trkpt>
      <trkpt lat="44.78208" lon="6.28814">
        <ele>2472.2</ele>
        <time>2024-08-12T13:13:38Z</time>
      </trkpt>
      <trkpt lat="44.78208" lon="6.28814">
        <ele>2472.2</ele>
        <time>2024-08-12T13:13:39Z</time>
      </trkpt>
      <trkpt lat="44.7821" lon="6.28812">
        <ele>2472</ele>
        <time>2024-08-12T13:13:40Z</time>
      </trkpt>
      <trkpt lat="44.7821" lon="6.28812">
        <ele>2471.8</ele>
        <time>2024-08-12T13:13:41Z</time>
      </trkpt>
      <trkpt lat="44.78211" lon="6.2881">
        <ele>2471.6</ele>
        <time>2024-08-12T13:13:42Z</time>
      </trkpt>
      <trkpt lat="44.78211" lon="6.2881">
        <ele>2471.4</ele>
        <time>2024-08-12T13:13:43Z</time>
      </trkpt>
      <trkpt lat="44.78211" lon="6.2881">
        <ele>2471.4</ele>
        <time>2024-08-12T13:13:44Z</time>
      </trkpt>
      <trkpt lat="44.78213" lon="6.28808">
        <ele>2471.4</ele>
        <time>2024-08-12T13:13:45Z</time>
      </trkpt>
      <trkpt lat="44.78213" lon="6.28808">
        <ele>2471.4</ele>
        <time>2024-08-12T13:13:46Z</time>
      </trkpt>
      <trkpt lat="44.78213" lon="6.28808">
        <ele>2471.2</ele>
        <time>2024-08-12T13:13:47Z</time>
      </trkpt>
      <trkpt lat="44.78214" lon="6.28805">
        <ele>2471</ele>
        <time>2024-08-12T13:13:48Z</time>
      </trkpt>
      <trkpt lat="44.78214" lon="6.28805">
        <ele>2471</ele>
        <time>2024-08-12T13:13:49Z</time>
      </trkpt>
      <trkpt lat="44.78214" lon="6.28803">
        <ele>2470.8</ele>
        <time>2024-08-12T13:13:50Z</time>
      </trkpt>
      <trkpt lat="44.78214" lon="6.28803">
        <ele>2470.6</ele>
        <time>2024-08-12T13:13:51Z</time>
      </trkpt>
      <trkpt lat="44.78214" lon="6.28803">
        <ele>2470.2</ele>
        <time>2024-08-12T13:13:52Z</time>
      </trkpt>
      <trkpt lat="44.78214" lon="6.28803">
        <ele>2470.2</ele>
        <time>2024-08-12T13:13:53Z</time>
      </trkpt>
      <trkpt lat="44.78214" lon="6.28803">
        <ele>2471.2</ele>
        <time>2024-08-12T13:13:54Z</time>
      </trkpt>
      <trkpt lat="44.78214" lon="6.28803">
        <ele>2471.2</ele>
        <time>2024-08-12T13:13:55Z</time>
      </trkpt>
      <trkpt lat="44.78214" lon="6.28803">
        <ele>2471.2</ele>
        <time>2024-08-12T13:13:56Z</time>
      </trkpt>
      <trkpt lat="44.78214" lon="6.28803">
        <ele>2471.2</ele>
        <time>2024-08-12T13:13:57Z</time>
      </trkpt>
      <trkpt lat="44.78215" lon="6.288">
        <ele>2471</ele>
        <time>2024-08-12T13:13:58Z</time>
      </trkpt>
      <trkpt lat="44.78215" lon="6.288">
        <ele>2470.6</ele>
        <time>2024-08-12T13:13:59Z</time>
      </trkpt>
      <trkpt lat="44.78215" lon="6.28797">
        <ele>2469.8</ele>
        <time>2024-08-12T13:14:00Z</time>
      </trkpt>
      <trkpt lat="44.78215" lon="6.28797">
        <ele>2469.8</ele>
        <time>2024-08-12T13:14:01Z</time>
      </trkpt>
      <trkpt lat="44.78215" lon="6.28794">
        <ele>2470</ele>
        <time>2024-08-12T13:14:02Z</time>
      </trkpt>
      <trkpt lat="44.78215" lon="6.28794">
        <ele>2470</ele>
        <time>2024-08-12T13:14:03Z</time>
      </trkpt>
      <trkpt lat="44.78215" lon="6.28791">
        <ele>2470</ele>
        <time>2024-08-12T13:14:04Z</time>
      </trkpt>
      <trkpt lat="44.78215" lon="6.28791">
        <ele>2469.6</ele>
        <time>2024-08-12T13:14:05Z</time>
      </trkpt>
      <trkpt lat="44.78215" lon="6.28788">
        <ele>2469</ele>
        <time>2024-08-12T13:14:06Z</time>
      </trkpt>
      <trkpt lat="44.78215" lon="6.28788">
        <ele>2468.4</ele>
        <time>2024-08-12T13:14:07Z</time>
      </trkpt>
      <trkpt lat="44.78215" lon="6.28784">
        <ele>2468</ele>
        <time>2024-08-12T13:14:08Z</time>
      </trkpt>
      <trkpt lat="44.78215" lon="6.28784">
        <ele>2467.6</ele>
        <time>2024-08-12T13:14:09Z</time>
      </trkpt>
      <trkpt lat="44.78215" lon="6.2878">
        <ele>2467.4</ele>
        <time>2024-08-12T13:14:10Z</time>
      </trkpt>
      <trkpt lat="44.78215" lon="6.2878">
        <ele>2467</ele>
        <time>2024-08-12T13:14:11Z</time>
      </trkpt>
      <trkpt lat="44.78216" lon="6.28777">
        <ele>2466.8</ele>
        <time>2024-08-12T13:14:12Z</time>
      </trkpt>
      <trkpt lat="44.78216" lon="6.28777">
        <ele>2466.4</ele>
        <time>2024-08-12T13:14:13Z</time>
      </trkpt>
      <trkpt lat="44.78215" lon="6.28773">
        <ele>2466.4</ele>
        <time>2024-08-12T13:14:14Z</time>
      </trkpt>
      <trkpt lat="44.78215" lon="6.28773">
        <ele>2466.4</ele>
        <time>2024-08-12T13:14:15Z</time>
      </trkpt>
      <trkpt lat="44.78216" lon="6.28769">
        <ele>2466</ele>
        <time>2024-08-12T13:14:16Z</time>
      </trkpt>
      <trkpt lat="44.78216" lon="6.28769">
        <ele>2466</ele>
        <time>2024-08-12T13:14:17Z</time>
      </trkpt>
      <trkpt lat="44.78217" lon="6.28766">
        <ele>2465.6</ele>
        <time>2024-08-12T13:14:18Z</time>
      </trkpt>
      <trkpt lat="44.78217" lon="6.28766">
        <ele>2465.6</ele>
        <time>2024-08-12T13:14:19Z</time>
      </trkpt>
      <trkpt lat="44.78218" lon="6.28763">
        <ele>2465.6</ele>
        <time>2024-08-12T13:14:20Z</time>
      </trkpt>
      <trkpt lat="44.78218" lon="6.28763">
        <ele>2465.6</ele>
        <time>2024-08-12T13:14:21Z</time>
      </trkpt>
      <trkpt lat="44.7822" lon="6.2876">
        <ele>2465.6</ele>
        <time>2024-08-12T13:14:22Z</time>
      </trkpt>
      <trkpt lat="44.7822" lon="6.2876">
        <ele>2465.4</ele>
        <time>2024-08-12T13:14:23Z</time>
      </trkpt>
      <trkpt lat="44.78221" lon="6.28757">
        <ele>2465.4</ele>
        <time>2024-08-12T13:14:24Z</time>
      </trkpt>
      <trkpt lat="44.78221" lon="6.28757">
        <ele>2465.4</ele>
        <time>2024-08-12T13:14:25Z</time>
      </trkpt>
      <trkpt lat="44.78222" lon="6.28755">
        <ele>2465.4</ele>
        <time>2024-08-12T13:14:26Z</time>
      </trkpt>
      <trkpt lat="44.78222" lon="6.28755">
        <ele>2465.2</ele>
        <time>2024-08-12T13:14:27Z</time>
      </trkpt>
      <trkpt lat="44.78224" lon="6.28753">
        <ele>2465.2</ele>
        <time>2024-08-12T13:14:28Z</time>
      </trkpt>
      <trkpt lat="44.78224" lon="6.28753">
        <ele>2465</ele>
        <time>2024-08-12T13:14:29Z</time>
      </trkpt>
      <trkpt lat="44.78224" lon="6.28749">
        <ele>2465.2</ele>
        <time>2024-08-12T13:14:30Z</time>
      </trkpt>
      <trkpt lat="44.78224" lon="6.28749">
        <ele>2465.2</ele>
        <time>2024-08-12T13:14:31Z</time>
      </trkpt>
      <trkpt lat="44.78225" lon="6.28745">
        <ele>2465.2</ele>
        <time>2024-08-12T13:14:32Z</time>
      </trkpt>
      <trkpt lat="44.78225" lon="6.28745">
        <ele>2465.2</ele>
        <time>2024-08-12T13:14:33Z</time>
      </trkpt>
      <trkpt lat="44.78226" lon="6.28742">
        <ele>2465.2</ele>
        <time>2024-08-12T13:14:34Z</time>
      </trkpt>
      <trkpt lat="44.78226" lon="6.28742">
        <ele>2465.2</ele>
        <time>2024-08-12T13:14:35Z</time>
      </trkpt>
      <trkpt lat="44.78227" lon="6.28739">
        <ele>2465</ele>
        <time>2024-08-12T13:14:36Z</time>
      </trkpt>
      <trkpt lat="44.78227" lon="6.28739">
        <ele>2465</ele>
        <time>2024-08-12T13:14:37Z</time>
      </trkpt>
      <trkpt lat="44.78229" lon="6.28736">
        <ele>2465</ele>
        <time>2024-08-12T13:14:38Z</time>
      </trkpt>
      <trkpt lat="44.78229" lon="6.28736">
        <ele>2465.2</ele>
        <time>2024-08-12T13:14:39Z</time>
      </trkpt>
      <trkpt lat="44.78231" lon="6.28734">
        <ele>2465.2</ele>
        <time>2024-08-12T13:14:40Z</time>
      </trkpt>
      <trkpt lat="44.78231" lon="6.28734">
        <ele>2465.2</ele>
        <time>2024-08-12T13:14:41Z</time>
      </trkpt>
      <trkpt lat="44.78233" lon="6.28733">
        <ele>2465.2</ele>
        <time>2024-08-12T13:14:42Z</time>
      </trkpt>
      <trkpt lat="44.78233" lon="6.28733">
        <ele>2465.4</ele>
        <time>2024-08-12T13:14:43Z</time>
      </trkpt>
      <trkpt lat="44.78235" lon="6.28731">
        <ele>2465.4</ele>
        <time>2024-08-12T13:14:44Z</time>
      </trkpt>
      <trkpt lat="44.78235" lon="6.28731">
        <ele>2464.8</ele>
        <time>2024-08-12T13:14:45Z</time>
      </trkpt>
      <trkpt lat="44.78235" lon="6.28731">
        <ele>2464.8</ele>
        <time>2024-08-12T13:14:46Z</time>
      </trkpt>
      <trkpt lat="44.78236" lon="6.28727">
        <ele>2464.8</ele>
        <time>2024-08-12T13:14:47Z</time>
      </trkpt>
      <trkpt lat="44.78236" lon="6.28727">
        <ele>2465</ele>
        <time>2024-08-12T13:14:48Z</time>
      </trkpt>
      <trkpt lat="44.78237" lon="6.28725">
        <ele>2465.2</ele>
        <time>2024-08-12T13:14:49Z</time>
      </trkpt>
      <trkpt lat="44.78237" lon="6.28725">
        <ele>2465.2</ele>
        <time>2024-08-12T13:14:50Z</time>
      </trkpt>
      <trkpt lat="44.78238" lon="6.28723">
        <ele>2465.2</ele>
        <time>2024-08-12T13:14:51Z</time>
      </trkpt>
      <trkpt lat="44.78238" lon="6.28723">
        <ele>2465.2</ele>
        <time>2024-08-12T13:14:52Z</time>
      </trkpt>
      <trkpt lat="44.78239" lon="6.2872">
        <ele>2465.2</ele>
        <time>2024-08-12T13:14:53Z</time>
      </trkpt>
      <trkpt lat="44.78239" lon="6.2872">
        <ele>2465.4</ele>
        <time>2024-08-12T13:14:54Z</time>
      </trkpt>
      <trkpt lat="44.78241" lon="6.28718">
        <ele>2465.4</ele>
        <time>2024-08-12T13:14:55Z</time>
      </trkpt>
      <trkpt lat="44.78241" lon="6.28718">
        <ele>2465.2</ele>
        <time>2024-08-12T13:14:56Z</time>
      </trkpt>
      <trkpt lat="44.78241" lon="6.28715">
        <ele>2465.2</ele>
        <time>2024-08-12T13:14:57Z</time>
      </trkpt>
      <trkpt lat="44.78241" lon="6.28715">
        <ele>2465.2</ele>
        <time>2024-08-12T13:14:58Z</time>
      </trkpt>
      <trkpt lat="44.78243" lon="6.28713">
        <ele>2465.2</ele>
        <time>2024-08-12T13:14:59Z</time>
      </trkpt>
      <trkpt lat="44.78243" lon="6.28713">
        <ele>2465</ele>
        <time>2024-08-12T13:15:00Z</time>
      </trkpt>
      <trkpt lat="44.78245" lon="6.2871">
        <ele>2464.4</ele>
        <time>2024-08-12T13:15:01Z</time>
      </trkpt>
      <trkpt lat="44.78245" lon="6.2871">
        <ele>2464</ele>
        <time>2024-08-12T13:15:02Z</time>
      </trkpt>
      <trkpt lat="44.78245" lon="6.28707">
        <ele>2464</ele>
        <time>2024-08-12T13:15:03Z</time>
      </trkpt>
      <trkpt lat="44.78245" lon="6.28707">
        <ele>2464</ele>
        <time>2024-08-12T13:15:04Z</time>
      </trkpt>
      <trkpt lat="44.78246" lon="6.28705">
        <ele>2463.8</ele>
        <time>2024-08-12T13:15:05Z</time>
      </trkpt>
      <trkpt lat="44.78246" lon="6.28705">
        <ele>2463.8</ele>
        <time>2024-08-12T13:15:06Z</time>
      </trkpt>
      <trkpt lat="44.78247" lon="6.28702">
        <ele>2463.6</ele>
        <time>2024-08-12T13:15:07Z</time>
      </trkpt>
      <trkpt lat="44.78247" lon="6.28702">
        <ele>2463.4</ele>
        <time>2024-08-12T13:15:08Z</time>
      </trkpt>
      <trkpt lat="44.78248" lon="6.28699">
        <ele>2462.6</ele>
        <time>2024-08-12T13:15:09Z</time>
      </trkpt>
      <trkpt lat="44.78248" lon="6.28699">
        <ele>2462.2</ele>
        <time>2024-08-12T13:15:10Z</time>
      </trkpt>
      <trkpt lat="44.78249" lon="6.28697">
        <ele>2462.2</ele>
        <time>2024-08-12T13:15:11Z</time>
      </trkpt>
      <trkpt lat="44.78249" lon="6.28697">
        <ele>2462</ele>
        <time>2024-08-12T13:15:12Z</time>
      </trkpt>
      <trkpt lat="44.78251" lon="6.28694">
        <ele>2462</ele>
        <time>2024-08-12T13:15:13Z</time>
      </trkpt>
      <trkpt lat="44.78251" lon="6.28694">
        <ele>2461.4</ele>
        <time>2024-08-12T13:15:14Z</time>
      </trkpt>
      <trkpt lat="44.78252" lon="6.28692">
        <ele>2461.2</ele>
        <time>2024-08-12T13:15:15Z</time>
      </trkpt>
      <trkpt lat="44.78252" lon="6.28692">
        <ele>2461</ele>
        <time>2024-08-12T13:15:16Z</time>
      </trkpt>
      <trkpt lat="44.78253" lon="6.28689">
        <ele>2460.4</ele>
        <time>2024-08-12T13:15:17Z</time>
      </trkpt>
      <trkpt lat="44.78253" lon="6.28689">
        <ele>2460.2</ele>
        <time>2024-08-12T13:15:18Z</time>
      </trkpt>
      <trkpt lat="44.78256" lon="6.28686">
        <ele>2460</ele>
        <time>2024-08-12T13:15:19Z</time>
      </trkpt>
      <trkpt lat="44.78256" lon="6.28686">
        <ele>2459.6</ele>
        <time>2024-08-12T13:15:20Z</time>
      </trkpt>
      <trkpt lat="44.78259" lon="6.28684">
        <ele>2459.4</ele>
        <time>2024-08-12T13:15:21Z</time>
      </trkpt>
      <trkpt lat="44.78259" lon="6.28684">
        <ele>2459.4</ele>
        <time>2024-08-12T13:15:22Z</time>
      </trkpt>
      <trkpt lat="44.78261" lon="6.28683">
        <ele>2459.4</ele>
        <time>2024-08-12T13:15:23Z</time>
      </trkpt>
      <trkpt lat="44.78261" lon="6.28683">
        <ele>2459.4</ele>
        <time>2024-08-12T13:15:24Z</time>
      </trkpt>
      <trkpt lat="44.78263" lon="6.28682">
        <ele>2459.2</ele>
        <time>2024-08-12T13:15:25Z</time>
      </trkpt>
      <trkpt lat="44.78263" lon="6.28682">
        <ele>2459.2</ele>
        <time>2024-08-12T13:15:26Z</time>
      </trkpt>
      <trkpt lat="44.78265" lon="6.2868">
        <ele>2459.2</ele>
        <time>2024-08-12T13:15:27Z</time>
      </trkpt>
      <trkpt lat="44.78265" lon="6.2868">
        <ele>2458.8</ele>
        <time>2024-08-12T13:15:28Z</time>
      </trkpt>
      <trkpt lat="44.78269" lon="6.2868">
        <ele>2458.6</ele>
        <time>2024-08-12T13:15:29Z</time>
      </trkpt>
      <trkpt lat="44.78269" lon="6.2868">
        <ele>2458.4</ele>
        <time>2024-08-12T13:15:30Z</time>
      </trkpt>
      <trkpt lat="44.78271" lon="6.28679">
        <ele>2458.2</ele>
        <time>2024-08-12T13:15:31Z</time>
      </trkpt>
      <trkpt lat="44.78271" lon="6.28679">
        <ele>2457.8</ele>
        <time>2024-08-12T13:15:32Z</time>
      </trkpt>
      <trkpt lat="44.78273" lon="6.28678">
        <ele>2457.6</ele>
        <time>2024-08-12T13:15:33Z</time>
      </trkpt>
      <trkpt lat="44.78273" lon="6.28678">
        <ele>2457.4</ele>
        <time>2024-08-12T13:15:34Z</time>
      </trkpt>
      <trkpt lat="44.78276" lon="6.2868">
        <ele>2457.2</ele>
        <time>2024-08-12T13:15:35Z</time>
      </trkpt>
      <trkpt lat="44.78276" lon="6.2868">
        <ele>2457.2</ele>
        <time>2024-08-12T13:15:36Z</time>
      </trkpt>
      <trkpt lat="44.78278" lon="6.28681">
        <ele>2456.8</ele>
        <time>2024-08-12T13:15:37Z</time>
      </trkpt>
      <trkpt lat="44.78278" lon="6.28681">
        <ele>2456.4</ele>
        <time>2024-08-12T13:15:38Z</time>
      </trkpt>
      <trkpt lat="44.78281" lon="6.28682">
        <ele>2455.8</ele>
        <time>2024-08-12T13:15:39Z</time>
      </trkpt>
      <trkpt lat="44.78281" lon="6.28682">
        <ele>2455.4</ele>
        <time>2024-08-12T13:15:40Z</time>
      </trkpt>
      <trkpt lat="44.78283" lon="6.28683">
        <ele>2455.2</ele>
        <time>2024-08-12T13:15:41Z</time>
      </trkpt>
      <trkpt lat="44.78283" lon="6.28683">
        <ele>2454.8</ele>
        <time>2024-08-12T13:15:42Z</time>
      </trkpt>
      <trkpt lat="44.78285" lon="6.28684">
        <ele>2454.8</ele>
        <time>2024-08-12T13:15:43Z</time>
      </trkpt>
      <trkpt lat="44.78285" lon="6.28684">
        <ele>2454.8</ele>
        <time>2024-08-12T13:15:44Z</time>
      </trkpt>
      <trkpt lat="44.78287" lon="6.28684">
        <ele>2454.4</ele>
        <time>2024-08-12T13:15:45Z</time>
      </trkpt>
      <trkpt lat="44.78287" lon="6.28684">
        <ele>2454</ele>
        <time>2024-08-12T13:15:46Z</time>
      </trkpt>
      <trkpt lat="44.7829" lon="6.28683">
        <ele>2453.6</ele>
        <time>2024-08-12T13:15:47Z</time>
      </trkpt>
      <trkpt lat="44.7829" lon="6.28683">
        <ele>2453.4</ele>
        <time>2024-08-12T13:15:48Z</time>
      </trkpt>
      <trkpt lat="44.78293" lon="6.28682">
        <ele>2453.4</ele>
        <time>2024-08-12T13:15:49Z</time>
      </trkpt>
      <trkpt lat="44.78293" lon="6.28682">
        <ele>2453</ele>
        <time>2024-08-12T13:15:50Z</time>
      </trkpt>
      <trkpt lat="44.78295" lon="6.28682">
        <ele>2453</ele>
        <time>2024-08-12T13:15:51Z</time>
      </trkpt>
      <trkpt lat="44.78295" lon="6.28682">
        <ele>2452.8</ele>
        <time>2024-08-12T13:15:52Z</time>
      </trkpt>
      <trkpt lat="44.78298" lon="6.28684">
        <ele>2452.8</ele>
        <time>2024-08-12T13:15:53Z</time>
      </trkpt>
      <trkpt lat="44.78298" lon="6.28684">
        <ele>2452.8</ele>
        <time>2024-08-12T13:15:54Z</time>
      </trkpt>
      <trkpt lat="44.783" lon="6.28686">
        <ele>2452.8</ele>
        <time>2024-08-12T13:15:55Z</time>
      </trkpt>
      <trkpt lat="44.783" lon="6.28686">
        <ele>2452.4</ele>
        <time>2024-08-12T13:15:56Z</time>
      </trkpt>
      <trkpt lat="44.78302" lon="6.28687">
        <ele>2452.4</ele>
        <time>2024-08-12T13:15:57Z</time>
      </trkpt>
      <trkpt lat="44.78302" lon="6.28687">
        <ele>2452.2</ele>
        <time>2024-08-12T13:15:58Z</time>
      </trkpt>
      <trkpt lat="44.78304" lon="6.28688">
        <ele>2452.2</ele>
        <time>2024-08-12T13:15:59Z</time>
      </trkpt>
      <trkpt lat="44.78304" lon="6.28688">
        <ele>2452</ele>
        <time>2024-08-12T13:16:00Z</time>
      </trkpt>
      <trkpt lat="44.78306" lon="6.28689">
        <ele>2451.8</ele>
        <time>2024-08-12T13:16:01Z</time>
      </trkpt>
      <trkpt lat="44.78306" lon="6.28689">
        <ele>2451.2</ele>
        <time>2024-08-12T13:16:02Z</time>
      </trkpt>
      <trkpt lat="44.78306" lon="6.28689">
        <ele>2451.2</ele>
        <time>2024-08-12T13:16:03Z</time>
      </trkpt>
      <trkpt lat="44.78309" lon="6.2869">
        <ele>2451</ele>
        <time>2024-08-12T13:16:04Z</time>
      </trkpt>
      <trkpt lat="44.78309" lon="6.2869">
        <ele>2450.4</ele>
        <time>2024-08-12T13:16:05Z</time>
      </trkpt>
      <trkpt lat="44.78309" lon="6.2869">
        <ele>2450.4</ele>
        <time>2024-08-12T13:16:06Z</time>
      </trkpt>
      <trkpt lat="44.78311" lon="6.28689">
        <ele>2450</ele>
        <time>2024-08-12T13:16:07Z</time>
      </trkpt>
      <trkpt lat="44.78311" lon="6.28689">
        <ele>2449.4</ele>
        <time>2024-08-12T13:16:08Z</time>
      </trkpt>
      <trkpt lat="44.78311" lon="6.28689">
        <ele>2449</ele>
        <time>2024-08-12T13:16:09Z</time>
      </trkpt>
      <trkpt lat="44.78312" lon="6.28686">
        <ele>2449</ele>
        <time>2024-08-12T13:16:10Z</time>
      </trkpt>
      <trkpt lat="44.78312" lon="6.28686">
        <ele>2448.8</ele>
        <time>2024-08-12T13:16:11Z</time>
      </trkpt>
      <trkpt lat="44.78312" lon="6.28686">
        <ele>2448.6</ele>
        <time>2024-08-12T13:16:12Z</time>
      </trkpt>
      <trkpt lat="44.78314" lon="6.28683">
        <ele>2448.2</ele>
        <time>2024-08-12T13:16:13Z</time>
      </trkpt>
      <trkpt lat="44.78314" lon="6.28683">
        <ele>2448</ele>
        <time>2024-08-12T13:16:14Z</time>
      </trkpt>
      <trkpt lat="44.78315" lon="6.28681">
        <ele>2448</ele>
        <time>2024-08-12T13:16:15Z</time>
      </trkpt>
      <trkpt lat="44.78315" lon="6.28681">
        <ele>2448</ele>
        <time>2024-08-12T13:16:16Z</time>
      </trkpt>
      <trkpt lat="44.78317" lon="6.28678">
        <ele>2448</ele>
        <time>2024-08-12T13:16:17Z</time>
      </trkpt>
      <trkpt lat="44.78317" lon="6.28678">
        <ele>2447.2</ele>
        <time>2024-08-12T13:16:18Z</time>
      </trkpt>
      <trkpt lat="44.78317" lon="6.28674">
        <ele>2447</ele>
        <time>2024-08-12T13:16:19Z</time>
      </trkpt>
      <trkpt lat="44.78317" lon="6.28674">
        <ele>2446.8</ele>
        <time>2024-08-12T13:16:20Z</time>
      </trkpt>
      <trkpt lat="44.78318" lon="6.28671">
        <ele>2446.8</ele>
        <time>2024-08-12T13:16:21Z</time>
      </trkpt>
      <trkpt lat="44.78318" lon="6.28671">
        <ele>2446.6</ele>
        <time>2024-08-12T13:16:22Z</time>
      </trkpt>
      <trkpt lat="44.78319" lon="6.28668">
        <ele>2446.6</ele>
        <time>2024-08-12T13:16:23Z</time>
      </trkpt>
      <trkpt lat="44.78319" lon="6.28668">
        <ele>2446.8</ele>
        <time>2024-08-12T13:16:24Z</time>
      </trkpt>
      <trkpt lat="44.78319" lon="6.28664">
        <ele>2446.8</ele>
        <time>2024-08-12T13:16:25Z</time>
      </trkpt>
      <trkpt lat="44.78319" lon="6.28664">
        <ele>2446.8</ele>
        <time>2024-08-12T13:16:26Z</time>
      </trkpt>
      <trkpt lat="44.7832" lon="6.2866">
        <ele>2447.6</ele>
        <time>2024-08-12T13:16:27Z</time>
      </trkpt>
      <trkpt lat="44.7832" lon="6.2866">
        <ele>2448.8</ele>
        <time>2024-08-12T13:16:28Z</time>
      </trkpt>
      <trkpt lat="44.7832" lon="6.28656">
        <ele>2449.2</ele>
        <time>2024-08-12T13:16:29Z</time>
      </trkpt>
      <trkpt lat="44.7832" lon="6.28656">
        <ele>2449.2</ele>
        <time>2024-08-12T13:16:30Z</time>
      </trkpt>
      <trkpt lat="44.7832" lon="6.28654">
        <ele>2449</ele>
        <time>2024-08-12T13:16:31Z</time>
      </trkpt>
      <trkpt lat="44.7832" lon="6.28654">
        <ele>2449</ele>
        <time>2024-08-12T13:16:32Z</time>
      </trkpt>
      <trkpt lat="44.78321" lon="6.2865">
        <ele>2449</ele>
        <time>2024-08-12T13:16:33Z</time>
      </trkpt>
      <trkpt lat="44.78321" lon="6.2865">
        <ele>2448.6</ele>
        <time>2024-08-12T13:16:34Z</time>
      </trkpt>
      <trkpt lat="44.78323" lon="6.28648">
        <ele>2448.4</ele>
        <time>2024-08-12T13:16:35Z</time>
      </trkpt>
      <trkpt lat="44.78323" lon="6.28648">
        <ele>2448.2</ele>
        <time>2024-08-12T13:16:36Z</time>
      </trkpt>
      <trkpt lat="44.78323" lon="6.28648">
        <ele>2448.2</ele>
        <time>2024-08-12T13:16:37Z</time>
      </trkpt>
      <trkpt lat="44.78325" lon="6.28647">
        <ele>2447.8</ele>
        <time>2024-08-12T13:16:38Z</time>
      </trkpt>
      <trkpt lat="44.78325" lon="6.28647">
        <ele>2447.8</ele>
        <time>2024-08-12T13:16:39Z</time>
      </trkpt>
      <trkpt lat="44.78327" lon="6.28648">
        <ele>2447.6</ele>
        <time>2024-08-12T13:16:40Z</time>
      </trkpt>
      <trkpt lat="44.78327" lon="6.28648">
        <ele>2447.4</ele>
        <time>2024-08-12T13:16:41Z</time>
      </trkpt>
      <trkpt lat="44.7833" lon="6.28649">
        <ele>2447.4</ele>
        <time>2024-08-12T13:16:42Z</time>
      </trkpt>
      <trkpt lat="44.7833" lon="6.28649">
        <ele>2447.4</ele>
        <time>2024-08-12T13:16:43Z</time>
      </trkpt>
      <trkpt lat="44.78332" lon="6.2865">
        <ele>2447.2</ele>
        <time>2024-08-12T13:16:44Z</time>
      </trkpt>
      <trkpt lat="44.78332" lon="6.2865">
        <ele>2447.2</ele>
        <time>2024-08-12T13:16:45Z</time>
      </trkpt>
      <trkpt lat="44.78334" lon="6.28648">
        <ele>2446.6</ele>
        <time>2024-08-12T13:16:46Z</time>
      </trkpt>
      <trkpt lat="44.78334" lon="6.28648">
        <ele>2446.2</ele>
        <time>2024-08-12T13:16:47Z</time>
      </trkpt>
      <trkpt lat="44.78336" lon="6.28648">
        <ele>2446</ele>
        <time>2024-08-12T13:16:48Z</time>
      </trkpt>
      <trkpt lat="44.78336" lon="6.28648">
        <ele>2446</ele>
        <time>2024-08-12T13:16:49Z</time>
      </trkpt>
      <trkpt lat="44.78336" lon="6.28648">
        <ele>2446.2</ele>
        <time>2024-08-12T13:16:50Z</time>
      </trkpt>
      <trkpt lat="44.78336" lon="6.28648">
        <ele>2446.4</ele>
        <time>2024-08-12T13:16:51Z</time>
      </trkpt>
      <trkpt lat="44.78336" lon="6.28648">
        <ele>2447</ele>
        <time>2024-08-12T13:16:52Z</time>
      </trkpt>
      <trkpt lat="44.78335" lon="6.28645">
        <ele>2447.4</ele>
        <time>2024-08-12T13:16:53Z</time>
      </trkpt>
      <trkpt lat="44.78335" lon="6.28645">
        <ele>2447.4</ele>
        <time>2024-08-12T13:16:54Z</time>
      </trkpt>
      <trkpt lat="44.78334" lon="6.28642">
        <ele>2447.6</ele>
        <time>2024-08-12T13:16:55Z</time>
      </trkpt>
      <trkpt lat="44.78334" lon="6.28642">
        <ele>2447.6</ele>
        <time>2024-08-12T13:16:56Z</time>
      </trkpt>
      <trkpt lat="44.78333" lon="6.28638">
        <ele>2447.6</ele>
        <time>2024-08-12T13:16:57Z</time>
      </trkpt>
      <trkpt lat="44.78333" lon="6.28638">
        <ele>2447.2</ele>
        <time>2024-08-12T13:16:58Z</time>
      </trkpt>
      <trkpt lat="44.78332" lon="6.28634">
        <ele>2446.4</ele>
        <time>2024-08-12T13:16:59Z</time>
      </trkpt>
      <trkpt lat="44.78332" lon="6.28634">
        <ele>2446.2</ele>
        <time>2024-08-12T13:17:00Z</time>
      </trkpt>
      <trkpt lat="44.78332" lon="6.2863">
        <ele>2446.2</ele>
        <time>2024-08-12T13:17:01Z</time>
      </trkpt>
      <trkpt lat="44.78332" lon="6.2863">
        <ele>2446.2</ele>
        <time>2024-08-12T13:17:02Z</time>
      </trkpt>
      <trkpt lat="44.78332" lon="6.28626">
        <ele>2446.2</ele>
        <time>2024-08-12T13:17:03Z</time>
      </trkpt>
      <trkpt lat="44.78332" lon="6.28626">
        <ele>2446.2</ele>
        <time>2024-08-12T13:17:04Z</time>
      </trkpt>
      <trkpt lat="44.78334" lon="6.28622">
        <ele>2446.2</ele>
        <time>2024-08-12T13:17:05Z</time>
      </trkpt>
      <trkpt lat="44.78334" lon="6.28622">
        <ele>2445.2</ele>
        <time>2024-08-12T13:17:06Z</time>
      </trkpt>
      <trkpt lat="44.78335" lon="6.28619">
        <ele>2445</ele>
        <time>2024-08-12T13:17:07Z</time>
      </trkpt>
      <trkpt lat="44.78335" lon="6.28619">
        <ele>2444.8</ele>
        <time>2024-08-12T13:17:08Z</time>
      </trkpt>
      <trkpt lat="44.78335" lon="6.28616">
        <ele>2444.6</ele>
        <time>2024-08-12T13:17:09Z</time>
      </trkpt>
      <trkpt lat="44.78335" lon="6.28616">
        <ele>2444.2</ele>
        <time>2024-08-12T13:17:10Z</time>
      </trkpt>
      <trkpt lat="44.78335" lon="6.28612">
        <ele>2443.6</ele>
        <time>2024-08-12T13:17:11Z</time>
      </trkpt>
      <trkpt lat="44.78335" lon="6.28612">
        <ele>2443.6</ele>
        <time>2024-08-12T13:17:12Z</time>
      </trkpt>
      <trkpt lat="44.78334" lon="6.28609">
        <ele>2443.4</ele>
        <time>2024-08-12T13:17:13Z</time>
      </trkpt>
      <trkpt lat="44.78334" lon="6.28609">
        <ele>2443.4</ele>
        <time>2024-08-12T13:17:14Z</time>
      </trkpt>
      <trkpt lat="44.78334" lon="6.28605">
        <ele>2443</ele>
        <time>2024-08-12T13:17:15Z</time>
      </trkpt>
      <trkpt lat="44.78334" lon="6.28605">
        <ele>2443</ele>
        <time>2024-08-12T13:17:16Z</time>
      </trkpt>
      <trkpt lat="44.78334" lon="6.28601">
        <ele>2442.4</ele>
        <time>2024-08-12T13:17:17Z</time>
      </trkpt>
      <trkpt lat="44.78334" lon="6.28601">
        <ele>2442.2</ele>
        <time>2024-08-12T13:17:18Z</time>
      </trkpt>
      <trkpt lat="44.78334" lon="6.28598">
        <ele>2442.2</ele>
        <time>2024-08-12T13:17:19Z</time>
      </trkpt>
      <trkpt lat="44.78334" lon="6.28598">
        <ele>2442</ele>
        <time>2024-08-12T13:17:20Z</time>
      </trkpt>
      <trkpt lat="44.78334" lon="6.28598">
        <ele>2441.8</ele>
        <time>2024-08-12T13:17:21Z</time>
      </trkpt>
      <trkpt lat="44.78334" lon="6.28598">
        <ele>2441.8</ele>
        <time>2024-08-12T13:17:22Z</time>
      </trkpt>
      <trkpt lat="44.78336" lon="6.28597">
        <ele>2442</ele>
        <time>2024-08-12T13:17:23Z</time>
      </trkpt>
      <trkpt lat="44.78336" lon="6.28597">
        <ele>2442</ele>
        <time>2024-08-12T13:17:24Z</time>
      </trkpt>
      <trkpt lat="44.78336" lon="6.28597">
        <ele>2442</ele>
        <time>2024-08-12T13:17:25Z</time>
      </trkpt>
      <trkpt lat="44.78336" lon="6.28597">
        <ele>2442.2</ele>
        <time>2024-08-12T13:17:26Z</time>
      </trkpt>
      <trkpt lat="44.78336" lon="6.28597">
        <ele>2442.2</ele>
        <time>2024-08-12T13:17:27Z</time>
      </trkpt>
      <trkpt lat="44.78336" lon="6.28597">
        <ele>2442</ele>
        <time>2024-08-12T13:17:28Z</time>
      </trkpt>
      <trkpt lat="44.78336" lon="6.28597">
        <ele>2442</ele>
        <time>2024-08-12T13:17:29Z</time>
      </trkpt>
      <trkpt lat="44.78336" lon="6.28597">
        <ele>2442</ele>
        <time>2024-08-12T13:17:30Z</time>
      </trkpt>
      <trkpt lat="44.78336" lon="6.28597">
        <ele>2442</ele>
        <time>2024-08-12T13:17:31Z</time>
      </trkpt>
      <trkpt lat="44.78336" lon="6.28597">
        <ele>2442.2</ele>
        <time>2024-08-12T13:17:32Z</time>
      </trkpt>
      <trkpt lat="44.78336" lon="6.28597">
        <ele>2442.2</ele>
        <time>2024-08-12T13:17:33Z</time>
      </trkpt>
      <trkpt lat="44.78336" lon="6.28597">
        <ele>2442</ele>
        <time>2024-08-12T13:17:34Z</time>
      </trkpt>
      <trkpt lat="44.78336" lon="6.28597">
        <ele>2442</ele>
        <time>2024-08-12T13:17:35Z</time>
      </trkpt>
      <trkpt lat="44.78336" lon="6.28597">
        <ele>2442</ele>
        <time>2024-08-12T13:17:36Z</time>
      </trkpt>
      <trkpt lat="44.78336" lon="6.28597">
        <ele>2441.8</ele>
        <time>2024-08-12T13:17:37Z</time>
      </trkpt>
      <trkpt lat="44.78336" lon="6.28597">
        <ele>2441.6</ele>
        <time>2024-08-12T13:17:38Z</time>
      </trkpt>
      <trkpt lat="44.78336" lon="6.28597">
        <ele>2441.4</ele>
        <time>2024-08-12T13:17:39Z</time>
      </trkpt>
      <trkpt lat="44.78338" lon="6.28594">
        <ele>2441</ele>
        <time>2024-08-12T13:17:40Z</time>
      </trkpt>
      <trkpt lat="44.7834" lon="6.28593">
        <ele>2440.8</ele>
        <time>2024-08-12T13:17:41Z</time>
      </trkpt>
      <trkpt lat="44.78341" lon="6.28591">
        <ele>2440.6</ele>
        <time>2024-08-12T13:17:42Z</time>
      </trkpt>
      <trkpt lat="44.78341" lon="6.28591">
        <ele>2440.2</ele>
        <time>2024-08-12T13:17:43Z</time>
      </trkpt>
      <trkpt lat="44.78345" lon="6.28589">
        <ele>2440</ele>
        <time>2024-08-12T13:17:44Z</time>
      </trkpt>
      <trkpt lat="44.78345" lon="6.28589">
        <ele>2440</ele>
        <time>2024-08-12T13:17:45Z</time>
      </trkpt>
      <trkpt lat="44.78348" lon="6.28589">
        <ele>2439.8</ele>
        <time>2024-08-12T13:17:46Z</time>
      </trkpt>
      <trkpt lat="44.78348" lon="6.28589">
        <ele>2439.8</ele>
        <time>2024-08-12T13:17:47Z</time>
      </trkpt>
      <trkpt lat="44.7835" lon="6.2859">
        <ele>2439.8</ele>
        <time>2024-08-12T13:17:48Z</time>
      </trkpt>
      <trkpt lat="44.7835" lon="6.2859">
        <ele>2439.6</ele>
        <time>2024-08-12T13:17:49Z</time>
      </trkpt>
      <trkpt lat="44.78352" lon="6.28588">
        <ele>2439.6</ele>
        <time>2024-08-12T13:17:50Z</time>
      </trkpt>
      <trkpt lat="44.78352" lon="6.28588">
        <ele>2439.2</ele>
        <time>2024-08-12T13:17:51Z</time>
      </trkpt>
      <trkpt lat="44.78353" lon="6.28584">
        <ele>2439</ele>
        <time>2024-08-12T13:17:52Z</time>
      </trkpt>
      <trkpt lat="44.78354" lon="6.28582">
        <ele>2438.4</ele>
        <time>2024-08-12T13:17:53Z</time>
      </trkpt>
      <trkpt lat="44.78354" lon="6.28582">
        <ele>2438.2</ele>
        <time>2024-08-12T13:17:54Z</time>
      </trkpt>
      <trkpt lat="44.78355" lon="6.28578">
        <ele>2438</ele>
        <time>2024-08-12T13:17:55Z</time>
      </trkpt>
      <trkpt lat="44.78355" lon="6.28578">
        <ele>2437.8</ele>
        <time>2024-08-12T13:17:56Z</time>
      </trkpt>
      <trkpt lat="44.78357" lon="6.28576">
        <ele>2437.8</ele>
        <time>2024-08-12T13:17:57Z</time>
      </trkpt>
      <trkpt lat="44.78357" lon="6.28576">
        <ele>2437.8</ele>
        <time>2024-08-12T13:17:58Z</time>
      </trkpt>
      <trkpt lat="44.78359" lon="6.28576">
        <ele>2437.8</ele>
        <time>2024-08-12T13:17:59Z</time>
      </trkpt>
      <trkpt lat="44.78359" lon="6.28576">
        <ele>2437.8</ele>
        <time>2024-08-12T13:18:00Z</time>
      </trkpt>
      <trkpt lat="44.78362" lon="6.28577">
        <ele>2437.6</ele>
        <time>2024-08-12T13:18:01Z</time>
      </trkpt>
      <trkpt lat="44.78362" lon="6.28577">
        <ele>2437.4</ele>
        <time>2024-08-12T13:18:02Z</time>
      </trkpt>
      <trkpt lat="44.78364" lon="6.28579">
        <ele>2437.4</ele>
        <time>2024-08-12T13:18:03Z</time>
      </trkpt>
      <trkpt lat="44.78364" lon="6.28579">
        <ele>2437</ele>
        <time>2024-08-12T13:18:04Z</time>
      </trkpt>
      <trkpt lat="44.78366" lon="6.28577">
        <ele>2436.8</ele>
        <time>2024-08-12T13:18:05Z</time>
      </trkpt>
      <trkpt lat="44.78366" lon="6.28577">
        <ele>2436.6</ele>
        <time>2024-08-12T13:18:06Z</time>
      </trkpt>
      <trkpt lat="44.78367" lon="6.28574">
        <ele>2435.8</ele>
        <time>2024-08-12T13:18:07Z</time>
      </trkpt>
      <trkpt lat="44.78367" lon="6.28574">
        <ele>2435.8</ele>
        <time>2024-08-12T13:18:08Z</time>
      </trkpt>
      <trkpt lat="44.78369" lon="6.28571">
        <ele>2435.6</ele>
        <time>2024-08-12T13:18:09Z</time>
      </trkpt>
      <trkpt lat="44.78369" lon="6.28571">
        <ele>2435.4</ele>
        <time>2024-08-12T13:18:10Z</time>
      </trkpt>
      <trkpt lat="44.7837" lon="6.28568">
        <ele>2435</ele>
        <time>2024-08-12T13:18:11Z</time>
      </trkpt>
      <trkpt lat="44.7837" lon="6.28568">
        <ele>2434.6</ele>
        <time>2024-08-12T13:18:12Z</time>
      </trkpt>
      <trkpt lat="44.78371" lon="6.28565">
        <ele>2434.2</ele>
        <time>2024-08-12T13:18:13Z</time>
      </trkpt>
      <trkpt lat="44.78371" lon="6.28565">
        <ele>2434</ele>
        <time>2024-08-12T13:18:14Z</time>
      </trkpt>
      <trkpt lat="44.78371" lon="6.28565">
        <ele>2433.8</ele>
        <time>2024-08-12T13:18:15Z</time>
      </trkpt>
      <trkpt lat="44.78374" lon="6.28563">
        <ele>2433.6</ele>
        <time>2024-08-12T13:18:16Z</time>
      </trkpt>
      <trkpt lat="44.78374" lon="6.28563">
        <ele>2433</ele>
        <time>2024-08-12T13:18:17Z</time>
      </trkpt>
      <trkpt lat="44.78375" lon="6.28565">
        <ele>2432.8</ele>
        <time>2024-08-12T13:18:18Z</time>
      </trkpt>
      <trkpt lat="44.78375" lon="6.28565">
        <ele>2432.8</ele>
        <time>2024-08-12T13:18:19Z</time>
      </trkpt>
      <trkpt lat="44.78375" lon="6.28565">
        <ele>2432.4</ele>
        <time>2024-08-12T13:18:20Z</time>
      </trkpt>
      <trkpt lat="44.78376" lon="6.28567">
        <ele>2432.2</ele>
        <time>2024-08-12T13:18:21Z</time>
      </trkpt>
      <trkpt lat="44.78376" lon="6.28567">
        <ele>2431.8</ele>
        <time>2024-08-12T13:18:22Z</time>
      </trkpt>
      <trkpt lat="44.78376" lon="6.28567">
        <ele>2431.2</ele>
        <time>2024-08-12T13:18:23Z</time>
      </trkpt>
      <trkpt lat="44.78379" lon="6.28567">
        <ele>2431.2</ele>
        <time>2024-08-12T13:18:24Z</time>
      </trkpt>
      <trkpt lat="44.78379" lon="6.28567">
        <ele>2431.2</ele>
        <time>2024-08-12T13:18:25Z</time>
      </trkpt>
      <trkpt lat="44.78379" lon="6.28567">
        <ele>2431.4</ele>
        <time>2024-08-12T13:18:26Z</time>
      </trkpt>
      <trkpt lat="44.78379" lon="6.28567">
        <ele>2431.4</ele>
        <time>2024-08-12T13:18:27Z</time>
      </trkpt>
      <trkpt lat="44.78381" lon="6.28567">
        <ele>2431.4</ele>
        <time>2024-08-12T13:18:28Z</time>
      </trkpt>
      <trkpt lat="44.78381" lon="6.28567">
        <ele>2432</ele>
        <time>2024-08-12T13:18:29Z</time>
      </trkpt>
      <trkpt lat="44.78381" lon="6.28567">
        <ele>2432.4</ele>
        <time>2024-08-12T13:18:30Z</time>
      </trkpt>
      <trkpt lat="44.78383" lon="6.28569">
        <ele>2432.6</ele>
        <time>2024-08-12T13:18:31Z</time>
      </trkpt>
      <trkpt lat="44.78383" lon="6.28569">
        <ele>2433</ele>
        <time>2024-08-12T13:18:32Z</time>
      </trkpt>
      <trkpt lat="44.78383" lon="6.28569">
        <ele>2433.2</ele>
        <time>2024-08-12T13:18:33Z</time>
      </trkpt>
      <trkpt lat="44.78385" lon="6.28566">
        <ele>2433.6</ele>
        <time>2024-08-12T13:18:34Z</time>
      </trkpt>
      <trkpt lat="44.78385" lon="6.28566">
        <ele>2433.6</ele>
        <time>2024-08-12T13:18:35Z</time>
      </trkpt>
      <trkpt lat="44.78385" lon="6.28566">
        <ele>2433.2</ele>
        <time>2024-08-12T13:18:36Z</time>
      </trkpt>
      <trkpt lat="44.78386" lon="6.28563">
        <ele>2433.2</ele>
        <time>2024-08-12T13:18:37Z</time>
      </trkpt>
      <trkpt lat="44.78386" lon="6.28563">
        <ele>2433.2</ele>
        <time>2024-08-12T13:18:38Z</time>
      </trkpt>
      <trkpt lat="44.78386" lon="6.2856">
        <ele>2433.2</ele>
        <time>2024-08-12T13:18:39Z</time>
      </trkpt>
      <trkpt lat="44.78386" lon="6.2856">
        <ele>2433.4</ele>
        <time>2024-08-12T13:18:40Z</time>
      </trkpt>
      <trkpt lat="44.78386" lon="6.28557">
        <ele>2433.4</ele>
        <time>2024-08-12T13:18:41Z</time>
      </trkpt>
      <trkpt lat="44.78386" lon="6.28557">
        <ele>2433.4</ele>
        <time>2024-08-12T13:18:42Z</time>
      </trkpt>
      <trkpt lat="44.78386" lon="6.28557">
        <ele>2433</ele>
        <time>2024-08-12T13:18:43Z</time>
      </trkpt>
      <trkpt lat="44.78386" lon="6.28554">
        <ele>2432.6</ele>
        <time>2024-08-12T13:18:44Z</time>
      </trkpt>
      <trkpt lat="44.78386" lon="6.28554">
        <ele>2432.6</ele>
        <time>2024-08-12T13:18:45Z</time>
      </trkpt>
      <trkpt lat="44.78386" lon="6.2855">
        <ele>2432.4</ele>
        <time>2024-08-12T13:18:46Z</time>
      </trkpt>
      <trkpt lat="44.78386" lon="6.2855">
        <ele>2432</ele>
        <time>2024-08-12T13:18:47Z</time>
      </trkpt>
      <trkpt lat="44.78386" lon="6.28546">
        <ele>2431.4</ele>
        <time>2024-08-12T13:18:48Z</time>
      </trkpt>
      <trkpt lat="44.78386" lon="6.28546">
        <ele>2431.4</ele>
        <time>2024-08-12T13:18:49Z</time>
      </trkpt>
      <trkpt lat="44.78386" lon="6.28543">
        <ele>2431.6</ele>
        <time>2024-08-12T13:18:50Z</time>
      </trkpt>
      <trkpt lat="44.78386" lon="6.28543">
        <ele>2431.8</ele>
        <time>2024-08-12T13:18:51Z</time>
      </trkpt>
      <trkpt lat="44.78386" lon="6.2854">
        <ele>2432</ele>
        <time>2024-08-12T13:18:52Z</time>
      </trkpt>
      <trkpt lat="44.78386" lon="6.2854">
        <ele>2432</ele>
        <time>2024-08-12T13:18:53Z</time>
      </trkpt>
      <trkpt lat="44.78388" lon="6.28536">
        <ele>2432.2</ele>
        <time>2024-08-12T13:18:54Z</time>
      </trkpt>
      <trkpt lat="44.78388" lon="6.28536">
        <ele>2432.4</ele>
        <time>2024-08-12T13:18:55Z</time>
      </trkpt>
      <trkpt lat="44.78389" lon="6.28533">
        <ele>2432.4</ele>
        <time>2024-08-12T13:18:56Z</time>
      </trkpt>
      <trkpt lat="44.78389" lon="6.28533">
        <ele>2432.4</ele>
        <time>2024-08-12T13:18:57Z</time>
      </trkpt>
      <trkpt lat="44.7839" lon="6.28531">
        <ele>2432.4</ele>
        <time>2024-08-12T13:18:58Z</time>
      </trkpt>
      <trkpt lat="44.7839" lon="6.28531">
        <ele>2432.4</ele>
        <time>2024-08-12T13:18:59Z</time>
      </trkpt>
      <trkpt lat="44.78392" lon="6.28529">
        <ele>2432.4</ele>
        <time>2024-08-12T13:19:00Z</time>
      </trkpt>
      <trkpt lat="44.78392" lon="6.28529">
        <ele>2432.6</ele>
        <time>2024-08-12T13:19:01Z</time>
      </trkpt>
      <trkpt lat="44.78394" lon="6.28526">
        <ele>2432.6</ele>
        <time>2024-08-12T13:19:02Z</time>
      </trkpt>
      <trkpt lat="44.78394" lon="6.28526">
        <ele>2432.2</ele>
        <time>2024-08-12T13:19:03Z</time>
      </trkpt>
      <trkpt lat="44.78397" lon="6.28524">
        <ele>2431.8</ele>
        <time>2024-08-12T13:19:04Z</time>
      </trkpt>
      <trkpt lat="44.78397" lon="6.28524">
        <ele>2431.4</ele>
        <time>2024-08-12T13:19:05Z</time>
      </trkpt>
      <trkpt lat="44.784" lon="6.28523">
        <ele>2431.2</ele>
        <time>2024-08-12T13:19:06Z</time>
      </trkpt>
      <trkpt lat="44.784" lon="6.28523">
        <ele>2431.2</ele>
        <time>2024-08-12T13:19:07Z</time>
      </trkpt>
      <trkpt lat="44.78402" lon="6.28522">
        <ele>2431.2</ele>
        <time>2024-08-12T13:19:08Z</time>
      </trkpt>
      <trkpt lat="44.78402" lon="6.28522">
        <ele>2431</ele>
        <time>2024-08-12T13:19:09Z</time>
      </trkpt>
      <trkpt lat="44.78405" lon="6.28523">
        <ele>2430.8</ele>
        <time>2024-08-12T13:19:10Z</time>
      </trkpt>
      <trkpt lat="44.78405" lon="6.28523">
        <ele>2430.8</ele>
        <time>2024-08-12T13:19:11Z</time>
      </trkpt>
      <trkpt lat="44.78407" lon="6.28525">
        <ele>2430.8</ele>
        <time>2024-08-12T13:19:12Z</time>
      </trkpt>
      <trkpt lat="44.78407" lon="6.28525">
        <ele>2431</ele>
        <time>2024-08-12T13:19:13Z</time>
      </trkpt>
      <trkpt lat="44.7841" lon="6.28526">
        <ele>2431</ele>
        <time>2024-08-12T13:19:14Z</time>
      </trkpt>
      <trkpt lat="44.7841" lon="6.28526">
        <ele>2430.8</ele>
        <time>2024-08-12T13:19:15Z</time>
      </trkpt>
      <trkpt lat="44.78412" lon="6.28524">
        <ele>2430.8</ele>
        <time>2024-08-12T13:19:16Z</time>
      </trkpt>
      <trkpt lat="44.78412" lon="6.28524">
        <ele>2430.6</ele>
        <time>2024-08-12T13:19:17Z</time>
      </trkpt>
      <trkpt lat="44.78413" lon="6.28521">
        <ele>2430.6</ele>
        <time>2024-08-12T13:19:18Z</time>
      </trkpt>
      <trkpt lat="44.78413" lon="6.28521">
        <ele>2430.6</ele>
        <time>2024-08-12T13:19:19Z</time>
      </trkpt>
      <trkpt lat="44.78416" lon="6.28519">
        <ele>2430.4</ele>
        <time>2024-08-12T13:19:20Z</time>
      </trkpt>
      <trkpt lat="44.78416" lon="6.28519">
        <ele>2430</ele>
        <time>2024-08-12T13:19:21Z</time>
      </trkpt>
      <trkpt lat="44.78418" lon="6.28521">
        <ele>2429.8</ele>
        <time>2024-08-12T13:19:22Z</time>
      </trkpt>
      <trkpt lat="44.78418" lon="6.28521">
        <ele>2429.8</ele>
        <time>2024-08-12T13:19:23Z</time>
      </trkpt>
      <trkpt lat="44.7842" lon="6.28523">
        <ele>2429.8</ele>
        <time>2024-08-12T13:19:24Z</time>
      </trkpt>
      <trkpt lat="44.7842" lon="6.28523">
        <ele>2429.8</ele>
        <time>2024-08-12T13:19:25Z</time>
      </trkpt>
      <trkpt lat="44.78422" lon="6.28523">
        <ele>2429.8</ele>
        <time>2024-08-12T13:19:26Z</time>
      </trkpt>
      <trkpt lat="44.78422" lon="6.28523">
        <ele>2430</ele>
        <time>2024-08-12T13:19:27Z</time>
      </trkpt>
      <trkpt lat="44.78425" lon="6.28523">
        <ele>2430</ele>
        <time>2024-08-12T13:19:28Z</time>
      </trkpt>
      <trkpt lat="44.78425" lon="6.28523">
        <ele>2430</ele>
        <time>2024-08-12T13:19:29Z</time>
      </trkpt>
      <trkpt lat="44.78428" lon="6.28523">
        <ele>2430</ele>
        <time>2024-08-12T13:19:30Z</time>
      </trkpt>
      <trkpt lat="44.78428" lon="6.28523">
        <ele>2430</ele>
        <time>2024-08-12T13:19:31Z</time>
      </trkpt>
      <trkpt lat="44.78431" lon="6.28524">
        <ele>2430.2</ele>
        <time>2024-08-12T13:19:32Z</time>
      </trkpt>
      <trkpt lat="44.78431" lon="6.28524">
        <ele>2430.2</ele>
        <time>2024-08-12T13:19:33Z</time>
      </trkpt>
      <trkpt lat="44.78434" lon="6.28525">
        <ele>2430.2</ele>
        <time>2024-08-12T13:19:34Z</time>
      </trkpt>
      <trkpt lat="44.78434" lon="6.28525">
        <ele>2430</ele>
        <time>2024-08-12T13:19:35Z</time>
      </trkpt>
      <trkpt lat="44.78436" lon="6.28526">
        <ele>2430</ele>
        <time>2024-08-12T13:19:36Z</time>
      </trkpt>
      <trkpt lat="44.78436" lon="6.28526">
        <ele>2430</ele>
        <time>2024-08-12T13:19:37Z</time>
      </trkpt>
      <trkpt lat="44.78439" lon="6.28526">
        <ele>2429.8</ele>
        <time>2024-08-12T13:19:38Z</time>
      </trkpt>
      <trkpt lat="44.78439" lon="6.28526">
        <ele>2429.8</ele>
        <time>2024-08-12T13:19:39Z</time>
      </trkpt>
      <trkpt lat="44.78442" lon="6.28528">
        <ele>2429.8</ele>
        <time>2024-08-12T13:19:40Z</time>
      </trkpt>
      <trkpt lat="44.78442" lon="6.28528">
        <ele>2430</ele>
        <time>2024-08-12T13:19:41Z</time>
      </trkpt>
      <trkpt lat="44.78444" lon="6.28529">
        <ele>2430.2</ele>
        <time>2024-08-12T13:19:42Z</time>
      </trkpt>
      <trkpt lat="44.78444" lon="6.28529">
        <ele>2430.4</ele>
        <time>2024-08-12T13:19:43Z</time>
      </trkpt>
      <trkpt lat="44.78444" lon="6.28529">
        <ele>2430.4</ele>
        <time>2024-08-12T13:19:44Z</time>
      </trkpt>
      <trkpt lat="44.78446" lon="6.28531">
        <ele>2430.2</ele>
        <time>2024-08-12T13:19:45Z</time>
      </trkpt>
      <trkpt lat="44.78446" lon="6.28531">
        <ele>2430.2</ele>
        <time>2024-08-12T13:19:46Z</time>
      </trkpt>
      <trkpt lat="44.78448" lon="6.2853">
        <ele>2430.2</ele>
        <time>2024-08-12T13:19:47Z</time>
      </trkpt>
      <trkpt lat="44.78448" lon="6.2853">
        <ele>2430</ele>
        <time>2024-08-12T13:19:48Z</time>
      </trkpt>
      <trkpt lat="44.78449" lon="6.28528">
        <ele>2429.4</ele>
        <time>2024-08-12T13:19:49Z</time>
      </trkpt>
      <trkpt lat="44.78449" lon="6.28528">
        <ele>2429.2</ele>
        <time>2024-08-12T13:19:50Z</time>
      </trkpt>
      <trkpt lat="44.78449" lon="6.28525">
        <ele>2428.4</ele>
        <time>2024-08-12T13:19:51Z</time>
      </trkpt>
      <trkpt lat="44.78449" lon="6.28525">
        <ele>2428.4</ele>
        <time>2024-08-12T13:19:52Z</time>
      </trkpt>
      <trkpt lat="44.78449" lon="6.28525">
        <ele>2428.2</ele>
        <time>2024-08-12T13:19:53Z</time>
      </trkpt>
      <trkpt lat="44.7845" lon="6.28522">
        <ele>2428</ele>
        <time>2024-08-12T13:19:54Z</time>
      </trkpt>
      <trkpt lat="44.7845" lon="6.28522">
        <ele>2428</ele>
        <time>2024-08-12T13:19:55Z</time>
      </trkpt>
      <trkpt lat="44.7845" lon="6.28519">
        <ele>2428.2</ele>
        <time>2024-08-12T13:19:56Z</time>
      </trkpt>
      <trkpt lat="44.7845" lon="6.28519">
        <ele>2428.4</ele>
        <time>2024-08-12T13:19:57Z</time>
      </trkpt>
      <trkpt lat="44.7845" lon="6.28515">
        <ele>2429</ele>
        <time>2024-08-12T13:19:58Z</time>
      </trkpt>
      <trkpt lat="44.7845" lon="6.28515">
        <ele>2429.4</ele>
        <time>2024-08-12T13:19:59Z</time>
      </trkpt>
      <trkpt lat="44.78452" lon="6.28512">
        <ele>2429.4</ele>
        <time>2024-08-12T13:20:00Z</time>
      </trkpt>
      <trkpt lat="44.78452" lon="6.28512">
        <ele>2429.6</ele>
        <time>2024-08-12T13:20:01Z</time>
      </trkpt>
      <trkpt lat="44.78454" lon="6.28512">
        <ele>2429.6</ele>
        <time>2024-08-12T13:20:02Z</time>
      </trkpt>
      <trkpt lat="44.78454" lon="6.28512">
        <ele>2429.4</ele>
        <time>2024-08-12T13:20:03Z</time>
      </trkpt>
      <trkpt lat="44.78457" lon="6.28511">
        <ele>2429.4</ele>
        <time>2024-08-12T13:20:04Z</time>
      </trkpt>
      <trkpt lat="44.78457" lon="6.28511">
        <ele>2429.4</ele>
        <time>2024-08-12T13:20:05Z</time>
      </trkpt>
      <trkpt lat="44.78459" lon="6.28511">
        <ele>2429.4</ele>
        <time>2024-08-12T13:20:06Z</time>
      </trkpt>
      <trkpt lat="44.78459" lon="6.28511">
        <ele>2429.4</ele>
        <time>2024-08-12T13:20:07Z</time>
      </trkpt>
      <trkpt lat="44.78461" lon="6.28509">
        <ele>2429.2</ele>
        <time>2024-08-12T13:20:08Z</time>
      </trkpt>
      <trkpt lat="44.78461" lon="6.28509">
        <ele>2428.8</ele>
        <time>2024-08-12T13:20:09Z</time>
      </trkpt>
      <trkpt lat="44.78461" lon="6.28509">
        <ele>2428.4</ele>
        <time>2024-08-12T13:20:10Z</time>
      </trkpt>
      <trkpt lat="44.78462" lon="6.28506">
        <ele>2428.2</ele>
        <time>2024-08-12T13:20:11Z</time>
      </trkpt>
      <trkpt lat="44.78462" lon="6.28506">
        <ele>2427.8</ele>
        <time>2024-08-12T13:20:12Z</time>
      </trkpt>
      <trkpt lat="44.78462" lon="6.28506">
        <ele>2427.2</ele>
        <time>2024-08-12T13:20:13Z</time>
      </trkpt>
      <trkpt lat="44.7846" lon="6.28504">
        <ele>2426.8</ele>
        <time>2024-08-12T13:20:14Z</time>
      </trkpt>
      <trkpt lat="44.7846" lon="6.28504">
        <ele>2426.8</ele>
        <time>2024-08-12T13:20:15Z</time>
      </trkpt>
      <trkpt lat="44.7846" lon="6.28504">
        <ele>2426.8</ele>
        <time>2024-08-12T13:20:16Z</time>
      </trkpt>
      <trkpt lat="44.7846" lon="6.28504">
        <ele>2426.6</ele>
        <time>2024-08-12T13:20:17Z</time>
      </trkpt>
      <trkpt lat="44.7846" lon="6.28504">
        <ele>2426.2</ele>
        <time>2024-08-12T13:20:18Z</time>
      </trkpt>
      <trkpt lat="44.78459" lon="6.28502">
        <ele>2425.8</ele>
        <time>2024-08-12T13:20:19Z</time>
      </trkpt>
      <trkpt lat="44.78459" lon="6.28502">
        <ele>2425.6</ele>
        <time>2024-08-12T13:20:20Z</time>
      </trkpt>
      <trkpt lat="44.78459" lon="6.28502">
        <ele>2425.2</ele>
        <time>2024-08-12T13:20:21Z</time>
      </trkpt>
      <trkpt lat="44.7846" lon="6.28499">
        <ele>2425</ele>
        <time>2024-08-12T13:20:22Z</time>
      </trkpt>
      <trkpt lat="44.7846" lon="6.28499">
        <ele>2424.8</ele>
        <time>2024-08-12T13:20:23Z</time>
      </trkpt>
      <trkpt lat="44.78461" lon="6.28497">
        <ele>2424.6</ele>
        <time>2024-08-12T13:20:24Z</time>
      </trkpt>
      <trkpt lat="44.78461" lon="6.28497">
        <ele>2424.6</ele>
        <time>2024-08-12T13:20:25Z</time>
      </trkpt>
      <trkpt lat="44.78461" lon="6.28497">
        <ele>2424.6</ele>
        <time>2024-08-12T13:20:26Z</time>
      </trkpt>
      <trkpt lat="44.78461" lon="6.28497">
        <ele>2424.8</ele>
        <time>2024-08-12T13:20:27Z</time>
      </trkpt>
      <trkpt lat="44.78463" lon="6.28496">
        <ele>2425.2</ele>
        <time>2024-08-12T13:20:28Z</time>
      </trkpt>
      <trkpt lat="44.78463" lon="6.28496">
        <ele>2425.4</ele>
        <time>2024-08-12T13:20:29Z</time>
      </trkpt>
      <trkpt lat="44.78463" lon="6.28496">
        <ele>2425.8</ele>
        <time>2024-08-12T13:20:30Z</time>
      </trkpt>
      <trkpt lat="44.78463" lon="6.28496">
        <ele>2426</ele>
        <time>2024-08-12T13:20:31Z</time>
      </trkpt>
      <trkpt lat="44.78463" lon="6.28496">
        <ele>2426.2</ele>
        <time>2024-08-12T13:20:32Z</time>
      </trkpt>
      <trkpt lat="44.78463" lon="6.28493">
        <ele>2426.6</ele>
        <time>2024-08-12T13:20:33Z</time>
      </trkpt>
      <trkpt lat="44.78463" lon="6.28493">
        <ele>2426.8</ele>
        <time>2024-08-12T13:20:34Z</time>
      </trkpt>
      <trkpt lat="44.78462" lon="6.28491">
        <ele>2427</ele>
        <time>2024-08-12T13:20:35Z</time>
      </trkpt>
      <trkpt lat="44.78462" lon="6.28491">
        <ele>2427</ele>
        <time>2024-08-12T13:20:36Z</time>
      </trkpt>
      <trkpt lat="44.78461" lon="6.28488">
        <ele>2427</ele>
        <time>2024-08-12T13:20:37Z</time>
      </trkpt>
      <trkpt lat="44.78461" lon="6.28488">
        <ele>2427.2</ele>
        <time>2024-08-12T13:20:38Z</time>
      </trkpt>
      <trkpt lat="44.7846" lon="6.28485">
        <ele>2427.2</ele>
        <time>2024-08-12T13:20:39Z</time>
      </trkpt>
      <trkpt lat="44.7846" lon="6.28485">
        <ele>2427.4</ele>
        <time>2024-08-12T13:20:40Z</time>
      </trkpt>
      <trkpt lat="44.78459" lon="6.28482">
        <ele>2427.4</ele>
        <time>2024-08-12T13:20:41Z</time>
      </trkpt>
      <trkpt lat="44.78459" lon="6.28482">
        <ele>2427.4</ele>
        <time>2024-08-12T13:20:42Z</time>
      </trkpt>
      <trkpt lat="44.78459" lon="6.28479">
        <ele>2427.4</ele>
        <time>2024-08-12T13:20:43Z</time>
      </trkpt>
      <trkpt lat="44.78459" lon="6.28479">
        <ele>2427.4</ele>
        <time>2024-08-12T13:20:44Z</time>
      </trkpt>
      <trkpt lat="44.78459" lon="6.28475">
        <ele>2427.6</ele>
        <time>2024-08-12T13:20:45Z</time>
      </trkpt>
      <trkpt lat="44.78459" lon="6.28475">
        <ele>2427.6</ele>
        <time>2024-08-12T13:20:46Z</time>
      </trkpt>
      <trkpt lat="44.78458" lon="6.28473">
        <ele>2428</ele>
        <time>2024-08-12T13:20:47Z</time>
      </trkpt>
      <trkpt lat="44.78458" lon="6.28473">
        <ele>2428.2</ele>
        <time>2024-08-12T13:20:48Z</time>
      </trkpt>
      <trkpt lat="44.78458" lon="6.28473">
        <ele>2428.2</ele>
        <time>2024-08-12T13:20:49Z</time>
      </trkpt>
      <trkpt lat="44.78458" lon="6.2847">
        <ele>2428.4</ele>
        <time>2024-08-12T13:20:50Z</time>
      </trkpt>
      <trkpt lat="44.78458" lon="6.2847">
        <ele>2428.6</ele>
        <time>2024-08-12T13:20:51Z</time>
      </trkpt>
      <trkpt lat="44.78458" lon="6.2847">
        <ele>2428.8</ele>
        <time>2024-08-12T13:20:52Z</time>
      </trkpt>
      <trkpt lat="44.78458" lon="6.2847">
        <ele>2429.2</ele>
        <time>2024-08-12T13:20:53Z</time>
      </trkpt>
      <trkpt lat="44.78458" lon="6.28466">
        <ele>2429.4</ele>
        <time>2024-08-12T13:20:54Z</time>
      </trkpt>
      <trkpt lat="44.78458" lon="6.28466">
        <ele>2429.8</ele>
        <time>2024-08-12T13:20:55Z</time>
      </trkpt>
      <trkpt lat="44.78457" lon="6.28464">
        <ele>2430</ele>
        <time>2024-08-12T13:20:56Z</time>
      </trkpt>
      <trkpt lat="44.78457" lon="6.28464">
        <ele>2430</ele>
        <time>2024-08-12T13:20:57Z</time>
      </trkpt>
      <trkpt lat="44.78457" lon="6.28461">
        <ele>2430</ele>
        <time>2024-08-12T13:20:58Z</time>
      </trkpt>
      <trkpt lat="44.78457" lon="6.28461">
        <ele>2430</ele>
        <time>2024-08-12T13:20:59Z</time>
      </trkpt>
      <trkpt lat="44.78457" lon="6.28457">
        <ele>2430.2</ele>
        <time>2024-08-12T13:21:00Z</time>
      </trkpt>
      <trkpt lat="44.78457" lon="6.28457">
        <ele>2430.2</ele>
        <time>2024-08-12T13:21:01Z</time>
      </trkpt>
      <trkpt lat="44.78458" lon="6.28454">
        <ele>2430.2</ele>
        <time>2024-08-12T13:21:02Z</time>
      </trkpt>
      <trkpt lat="44.78458" lon="6.28454">
        <ele>2430</ele>
        <time>2024-08-12T13:21:03Z</time>
      </trkpt>
      <trkpt lat="44.78458" lon="6.2845">
        <ele>2430</ele>
        <time>2024-08-12T13:21:04Z</time>
      </trkpt>
      <trkpt lat="44.78458" lon="6.2845">
        <ele>2430.2</ele>
        <time>2024-08-12T13:21:05Z</time>
      </trkpt>
      <trkpt lat="44.78458" lon="6.28446">
        <ele>2430.4</ele>
        <time>2024-08-12T13:21:06Z</time>
      </trkpt>
      <trkpt lat="44.78458" lon="6.28446">
        <ele>2430.6</ele>
        <time>2024-08-12T13:21:07Z</time>
      </trkpt>
      <trkpt lat="44.78459" lon="6.28442">
        <ele>2430.6</ele>
        <time>2024-08-12T13:21:08Z</time>
      </trkpt>
      <trkpt lat="44.78459" lon="6.28442">
        <ele>2430.2</ele>
        <time>2024-08-12T13:21:09Z</time>
      </trkpt>
      <trkpt lat="44.7846" lon="6.28438">
        <ele>2430.2</ele>
        <time>2024-08-12T13:21:10Z</time>
      </trkpt>
      <trkpt lat="44.7846" lon="6.28438">
        <ele>2430.2</ele>
        <time>2024-08-12T13:21:11Z</time>
      </trkpt>
      <trkpt lat="44.7846" lon="6.28435">
        <ele>2430.4</ele>
        <time>2024-08-12T13:21:12Z</time>
      </trkpt>
      <trkpt lat="44.7846" lon="6.28435">
        <ele>2430.4</ele>
        <time>2024-08-12T13:21:13Z</time>
      </trkpt>
      <trkpt lat="44.78459" lon="6.28431">
        <ele>2430.2</ele>
        <time>2024-08-12T13:21:14Z</time>
      </trkpt>
      <trkpt lat="44.78459" lon="6.28431">
        <ele>2430.2</ele>
        <time>2024-08-12T13:21:15Z</time>
      </trkpt>
      <trkpt lat="44.7846" lon="6.28427">
        <ele>2430.2</ele>
        <time>2024-08-12T13:21:16Z</time>
      </trkpt>
      <trkpt lat="44.7846" lon="6.28427">
        <ele>2430.2</ele>
        <time>2024-08-12T13:21:17Z</time>
      </trkpt>
      <trkpt lat="44.78461" lon="6.28423">
        <ele>2430.4</ele>
        <time>2024-08-12T13:21:18Z</time>
      </trkpt>
      <trkpt lat="44.78461" lon="6.28423">
        <ele>2430.4</ele>
        <time>2024-08-12T13:21:19Z</time>
      </trkpt>
      <trkpt lat="44.78461" lon="6.28419">
        <ele>2430.4</ele>
        <time>2024-08-12T13:21:20Z</time>
      </trkpt>
      <trkpt lat="44.78461" lon="6.28419">
        <ele>2430.2</ele>
        <time>2024-08-12T13:21:21Z</time>
      </trkpt>
      <trkpt lat="44.78461" lon="6.28415">
        <ele>2430</ele>
        <time>2024-08-12T13:21:22Z</time>
      </trkpt>
      <trkpt lat="44.78461" lon="6.28415">
        <ele>2429.8</ele>
        <time>2024-08-12T13:21:23Z</time>
      </trkpt>
      <trkpt lat="44.78462" lon="6.28411">
        <ele>2429.8</ele>
        <time>2024-08-12T13:21:24Z</time>
      </trkpt>
      <trkpt lat="44.78462" lon="6.28411">
        <ele>2429.8</ele>
        <time>2024-08-12T13:21:25Z</time>
      </trkpt>
      <trkpt lat="44.78463" lon="6.28408">
        <ele>2430</ele>
        <time>2024-08-12T13:21:26Z</time>
      </trkpt>
      <trkpt lat="44.78463" lon="6.28408">
        <ele>2430.2</ele>
        <time>2024-08-12T13:21:27Z</time>
      </trkpt>
      <trkpt lat="44.78464" lon="6.28404">
        <ele>2430.2</ele>
        <time>2024-08-12T13:21:28Z</time>
      </trkpt>
      <trkpt lat="44.78464" lon="6.28404">
        <ele>2430.4</ele>
        <time>2024-08-12T13:21:29Z</time>
      </trkpt>
      <trkpt lat="44.78466" lon="6.28401">
        <ele>2430.4</ele>
        <time>2024-08-12T13:21:30Z</time>
      </trkpt>
      <trkpt lat="44.78466" lon="6.28401">
        <ele>2430.4</ele>
        <time>2024-08-12T13:21:31Z</time>
      </trkpt>
      <trkpt lat="44.78467" lon="6.28398">
        <ele>2430.2</ele>
        <time>2024-08-12T13:21:32Z</time>
      </trkpt>
      <trkpt lat="44.78467" lon="6.28398">
        <ele>2430.2</ele>
        <time>2024-08-12T13:21:33Z</time>
      </trkpt>
      <trkpt lat="44.78469" lon="6.28395">
        <ele>2430.2</ele>
        <time>2024-08-12T13:21:34Z</time>
      </trkpt>
      <trkpt lat="44.78469" lon="6.28395">
        <ele>2430.2</ele>
        <time>2024-08-12T13:21:35Z</time>
      </trkpt>
      <trkpt lat="44.78471" lon="6.28391">
        <ele>2430.2</ele>
        <time>2024-08-12T13:21:36Z</time>
      </trkpt>
      <trkpt lat="44.78471" lon="6.28391">
        <ele>2430.2</ele>
        <time>2024-08-12T13:21:37Z</time>
      </trkpt>
      <trkpt lat="44.78472" lon="6.28388">
        <ele>2430.6</ele>
        <time>2024-08-12T13:21:38Z</time>
      </trkpt>
      <trkpt lat="44.78472" lon="6.28388">
        <ele>2430.6</ele>
        <time>2024-08-12T13:21:39Z</time>
      </trkpt>
      <trkpt lat="44.78474" lon="6.28384">
        <ele>2430.2</ele>
        <time>2024-08-12T13:21:40Z</time>
      </trkpt>
      <trkpt lat="44.78475" lon="6.28382">
        <ele>2430</ele>
        <time>2024-08-12T13:21:41Z</time>
      </trkpt>
      <trkpt lat="44.78475" lon="6.28382">
        <ele>2430.4</ele>
        <time>2024-08-12T13:21:42Z</time>
      </trkpt>
      <trkpt lat="44.78477" lon="6.28379">
        <ele>2430.2</ele>
        <time>2024-08-12T13:21:43Z</time>
      </trkpt>
      <trkpt lat="44.78477" lon="6.28379">
        <ele>2430.2</ele>
        <time>2024-08-12T13:21:44Z</time>
      </trkpt>
      <trkpt lat="44.78479" lon="6.28379">
        <ele>2430.4</ele>
        <time>2024-08-12T13:21:45Z</time>
      </trkpt>
      <trkpt lat="44.78479" lon="6.28379">
        <ele>2430.4</ele>
        <time>2024-08-12T13:21:46Z</time>
      </trkpt>
      <trkpt lat="44.78482" lon="6.2838">
        <ele>2430.4</ele>
        <time>2024-08-12T13:21:47Z</time>
      </trkpt>
      <trkpt lat="44.78482" lon="6.2838">
        <ele>2430.4</ele>
        <time>2024-08-12T13:21:48Z</time>
      </trkpt>
      <trkpt lat="44.78483" lon="6.28377">
        <ele>2430.2</ele>
        <time>2024-08-12T13:21:49Z</time>
      </trkpt>
      <trkpt lat="44.78483" lon="6.28377">
        <ele>2430.2</ele>
        <time>2024-08-12T13:21:50Z</time>
      </trkpt>
      <trkpt lat="44.78483" lon="6.28377">
        <ele>2430</ele>
        <time>2024-08-12T13:21:51Z</time>
      </trkpt>
      <trkpt lat="44.78483" lon="6.28373">
        <ele>2430</ele>
        <time>2024-08-12T13:21:52Z</time>
      </trkpt>
      <trkpt lat="44.78483" lon="6.28373">
        <ele>2430</ele>
        <time>2024-08-12T13:21:53Z</time>
      </trkpt>
      <trkpt lat="44.78485" lon="6.28371">
        <ele>2429.6</ele>
        <time>2024-08-12T13:21:54Z</time>
      </trkpt>
      <trkpt lat="44.78485" lon="6.28371">
        <ele>2429.6</ele>
        <time>2024-08-12T13:21:55Z</time>
      </trkpt>
      <trkpt lat="44.78487" lon="6.28369">
        <ele>2429.8</ele>
        <time>2024-08-12T13:21:56Z</time>
      </trkpt>
      <trkpt lat="44.78487" lon="6.28369">
        <ele>2429.8</ele>
        <time>2024-08-12T13:21:57Z</time>
      </trkpt>
      <trkpt lat="44.78489" lon="6.28366">
        <ele>2429.8</ele>
        <time>2024-08-12T13:21:58Z</time>
      </trkpt>
      <trkpt lat="44.78489" lon="6.28366">
        <ele>2429.8</ele>
        <time>2024-08-12T13:21:59Z</time>
      </trkpt>
      <trkpt lat="44.78492" lon="6.28363">
        <ele>2429.8</ele>
        <time>2024-08-12T13:22:00Z</time>
      </trkpt>
      <trkpt lat="44.78492" lon="6.28363">
        <ele>2430</ele>
        <time>2024-08-12T13:22:01Z</time>
      </trkpt>
      <trkpt lat="44.78494" lon="6.28361">
        <ele>2430.2</ele>
        <time>2024-08-12T13:22:02Z</time>
      </trkpt>
      <trkpt lat="44.78495" lon="6.28359">
        <ele>2430.2</ele>
        <time>2024-08-12T13:22:03Z</time>
      </trkpt>
      <trkpt lat="44.78495" lon="6.28359">
        <ele>2430.2</ele>
        <time>2024-08-12T13:22:04Z</time>
      </trkpt>
      <trkpt lat="44.78497" lon="6.28357">
        <ele>2430.2</ele>
        <time>2024-08-12T13:22:05Z</time>
      </trkpt>
      <trkpt lat="44.78497" lon="6.28357">
        <ele>2430.2</ele>
        <time>2024-08-12T13:22:06Z</time>
      </trkpt>
      <trkpt lat="44.78499" lon="6.28355">
        <ele>2430.4</ele>
        <time>2024-08-12T13:22:07Z</time>
      </trkpt>
      <trkpt lat="44.78499" lon="6.28355">
        <ele>2430.6</ele>
        <time>2024-08-12T13:22:08Z</time>
      </trkpt>
      <trkpt lat="44.78501" lon="6.28352">
        <ele>2430.6</ele>
        <time>2024-08-12T13:22:09Z</time>
      </trkpt>
      <trkpt lat="44.78501" lon="6.28352">
        <ele>2430.6</ele>
        <time>2024-08-12T13:22:10Z</time>
      </trkpt>
      <trkpt lat="44.78503" lon="6.2835">
        <ele>2430.6</ele>
        <time>2024-08-12T13:22:11Z</time>
      </trkpt>
      <trkpt lat="44.78503" lon="6.2835">
        <ele>2430</ele>
        <time>2024-08-12T13:22:12Z</time>
      </trkpt>
      <trkpt lat="44.78503" lon="6.2835">
        <ele>2430</ele>
        <time>2024-08-12T13:22:13Z</time>
      </trkpt>
      <trkpt lat="44.78505" lon="6.28349">
        <ele>2429.6</ele>
        <time>2024-08-12T13:22:14Z</time>
      </trkpt>
      <trkpt lat="44.78505" lon="6.28349">
        <ele>2429.2</ele>
        <time>2024-08-12T13:22:15Z</time>
      </trkpt>
      <trkpt lat="44.78507" lon="6.28347">
        <ele>2429.2</ele>
        <time>2024-08-12T13:22:16Z</time>
      </trkpt>
      <trkpt lat="44.78507" lon="6.28347">
        <ele>2429</ele>
        <time>2024-08-12T13:22:17Z</time>
      </trkpt>
      <trkpt lat="44.78509" lon="6.28346">
        <ele>2429</ele>
        <time>2024-08-12T13:22:18Z</time>
      </trkpt>
      <trkpt lat="44.78509" lon="6.28346">
        <ele>2428.8</ele>
        <time>2024-08-12T13:22:19Z</time>
      </trkpt>
      <trkpt lat="44.78509" lon="6.28346">
        <ele>2428.8</ele>
        <time>2024-08-12T13:22:20Z</time>
      </trkpt>
      <trkpt lat="44.78511" lon="6.28344">
        <ele>2428.2</ele>
        <time>2024-08-12T13:22:21Z</time>
      </trkpt>
      <trkpt lat="44.78511" lon="6.28344">
        <ele>2427.8</ele>
        <time>2024-08-12T13:22:22Z</time>
      </trkpt>
      <trkpt lat="44.78513" lon="6.28343">
        <ele>2427.4</ele>
        <time>2024-08-12T13:22:23Z</time>
      </trkpt>
      <trkpt lat="44.78513" lon="6.28343">
        <ele>2426.8</ele>
        <time>2024-08-12T13:22:24Z</time>
      </trkpt>
      <trkpt lat="44.78515" lon="6.28342">
        <ele>2426.4</ele>
        <time>2024-08-12T13:22:25Z</time>
      </trkpt>
      <trkpt lat="44.78515" lon="6.28342">
        <ele>2425.8</ele>
        <time>2024-08-12T13:22:26Z</time>
      </trkpt>
      <trkpt lat="44.78517" lon="6.28342">
        <ele>2425.4</ele>
        <time>2024-08-12T13:22:27Z</time>
      </trkpt>
      <trkpt lat="44.78517" lon="6.28342">
        <ele>2425</ele>
        <time>2024-08-12T13:22:28Z</time>
      </trkpt>
      <trkpt lat="44.78519" lon="6.28341">
        <ele>2425</ele>
        <time>2024-08-12T13:22:29Z</time>
      </trkpt>
      <trkpt lat="44.78519" lon="6.28341">
        <ele>2425.2</ele>
        <time>2024-08-12T13:22:30Z</time>
      </trkpt>
      <trkpt lat="44.78521" lon="6.2834">
        <ele>2425.4</ele>
        <time>2024-08-12T13:22:31Z</time>
      </trkpt>
      <trkpt lat="44.78521" lon="6.2834">
        <ele>2425.6</ele>
        <time>2024-08-12T13:22:32Z</time>
      </trkpt>
      <trkpt lat="44.78523" lon="6.28338">
        <ele>2425.6</ele>
        <time>2024-08-12T13:22:33Z</time>
      </trkpt>
      <trkpt lat="44.78523" lon="6.28338">
        <ele>2425.2</ele>
        <time>2024-08-12T13:22:34Z</time>
      </trkpt>
      <trkpt lat="44.78523" lon="6.28335">
        <ele>2425.2</ele>
        <time>2024-08-12T13:22:35Z</time>
      </trkpt>
      <trkpt lat="44.78523" lon="6.28335">
        <ele>2424.4</ele>
        <time>2024-08-12T13:22:36Z</time>
      </trkpt>
      <trkpt lat="44.78523" lon="6.28332">
        <ele>2423.6</ele>
        <time>2024-08-12T13:22:37Z</time>
      </trkpt>
      <trkpt lat="44.78523" lon="6.28332">
        <ele>2423.4</ele>
        <time>2024-08-12T13:22:38Z</time>
      </trkpt>
      <trkpt lat="44.78523" lon="6.28332">
        <ele>2423.4</ele>
        <time>2024-08-12T13:22:39Z</time>
      </trkpt>
      <trkpt lat="44.78523" lon="6.28329">
        <ele>2423.4</ele>
        <time>2024-08-12T13:22:40Z</time>
      </trkpt>
      <trkpt lat="44.78523" lon="6.28329">
        <ele>2424.4</ele>
        <time>2024-08-12T13:22:41Z</time>
      </trkpt>
      <trkpt lat="44.78523" lon="6.28329">
        <ele>2424.6</ele>
        <time>2024-08-12T13:22:42Z</time>
      </trkpt>
      <trkpt lat="44.78521" lon="6.28326">
        <ele>2424.8</ele>
        <time>2024-08-12T13:22:43Z</time>
      </trkpt>
      <trkpt lat="44.78521" lon="6.28326">
        <ele>2424.8</ele>
        <time>2024-08-12T13:22:44Z</time>
      </trkpt>
      <trkpt lat="44.78521" lon="6.28326">
        <ele>2425</ele>
        <time>2024-08-12T13:22:45Z</time>
      </trkpt>
      <trkpt lat="44.78521" lon="6.28323">
        <ele>2425.6</ele>
        <time>2024-08-12T13:22:46Z</time>
      </trkpt>
      <trkpt lat="44.78521" lon="6.28323">
        <ele>2426</ele>
        <time>2024-08-12T13:22:47Z</time>
      </trkpt>
      <trkpt lat="44.7852" lon="6.28321">
        <ele>2426</ele>
        <time>2024-08-12T13:22:48Z</time>
      </trkpt>
      <trkpt lat="44.7852" lon="6.28321">
        <ele>2426.6</ele>
        <time>2024-08-12T13:22:49Z</time>
      </trkpt>
      <trkpt lat="44.7852" lon="6.28321">
        <ele>2426.8</ele>
        <time>2024-08-12T13:22:50Z</time>
      </trkpt>
      <trkpt lat="44.78519" lon="6.28317">
        <ele>2427</ele>
        <time>2024-08-12T13:22:51Z</time>
      </trkpt>
      <trkpt lat="44.78519" lon="6.28317">
        <ele>2427.2</ele>
        <time>2024-08-12T13:22:52Z</time>
      </trkpt>
      <trkpt lat="44.78518" lon="6.28314">
        <ele>2427.6</ele>
        <time>2024-08-12T13:22:53Z</time>
      </trkpt>
      <trkpt lat="44.78518" lon="6.28314">
        <ele>2427.8</ele>
        <time>2024-08-12T13:22:54Z</time>
      </trkpt>
      <trkpt lat="44.78518" lon="6.28314">
        <ele>2428.4</ele>
        <time>2024-08-12T13:22:55Z</time>
      </trkpt>
      <trkpt lat="44.78518" lon="6.28314">
        <ele>2428.6</ele>
        <time>2024-08-12T13:22:56Z</time>
      </trkpt>
      <trkpt lat="44.78517" lon="6.28312">
        <ele>2428.8</ele>
        <time>2024-08-12T13:22:57Z</time>
      </trkpt>
      <trkpt lat="44.78517" lon="6.28312">
        <ele>2428.8</ele>
        <time>2024-08-12T13:22:58Z</time>
      </trkpt>
      <trkpt lat="44.78517" lon="6.28312">
        <ele>2428.6</ele>
        <time>2024-08-12T13:22:59Z</time>
      </trkpt>
      <trkpt lat="44.78515" lon="6.2831">
        <ele>2428</ele>
        <time>2024-08-12T13:23:00Z</time>
      </trkpt>
      <trkpt lat="44.78515" lon="6.2831">
        <ele>2428</ele>
        <time>2024-08-12T13:23:01Z</time>
      </trkpt>
      <trkpt lat="44.78515" lon="6.28308">
        <ele>2428</ele>
        <time>2024-08-12T13:23:02Z</time>
      </trkpt>
      <trkpt lat="44.78515" lon="6.28308">
        <ele>2428</ele>
        <time>2024-08-12T13:23:03Z</time>
      </trkpt>
      <trkpt lat="44.78515" lon="6.28305">
        <ele>2428.2</ele>
        <time>2024-08-12T13:23:04Z</time>
      </trkpt>
      <trkpt lat="44.78515" lon="6.28305">
        <ele>2428.8</ele>
        <time>2024-08-12T13:23:05Z</time>
      </trkpt>
      <trkpt lat="44.78515" lon="6.28305">
        <ele>2428.8</ele>
        <time>2024-08-12T13:23:06Z</time>
      </trkpt>
      <trkpt lat="44.78515" lon="6.28301">
        <ele>2430</ele>
        <time>2024-08-12T13:23:07Z</time>
      </trkpt>
      <trkpt lat="44.78515" lon="6.28301">
        <ele>2430</ele>
        <time>2024-08-12T13:23:08Z</time>
      </trkpt>
      <trkpt lat="44.78516" lon="6.28299">
        <ele>2430</ele>
        <time>2024-08-12T13:23:09Z</time>
      </trkpt>
      <trkpt lat="44.78516" lon="6.28299">
        <ele>2430</ele>
        <time>2024-08-12T13:23:10Z</time>
      </trkpt>
      <trkpt lat="44.78516" lon="6.28299">
        <ele>2430.2</ele>
        <time>2024-08-12T13:23:11Z</time>
      </trkpt>
      <trkpt lat="44.78517" lon="6.28297">
        <ele>2430.2</ele>
        <time>2024-08-12T13:23:12Z</time>
      </trkpt>
      <trkpt lat="44.78517" lon="6.28297">
        <ele>2430.4</ele>
        <time>2024-08-12T13:23:13Z</time>
      </trkpt>
      <trkpt lat="44.78517" lon="6.28297">
        <ele>2430.8</ele>
        <time>2024-08-12T13:23:14Z</time>
      </trkpt>
      <trkpt lat="44.78519" lon="6.28295">
        <ele>2431.2</ele>
        <time>2024-08-12T13:23:15Z</time>
      </trkpt>
      <trkpt lat="44.78519" lon="6.28295">
        <ele>2431.2</ele>
        <time>2024-08-12T13:23:16Z</time>
      </trkpt>
      <trkpt lat="44.78519" lon="6.28295">
        <ele>2431.8</ele>
        <time>2024-08-12T13:23:17Z</time>
      </trkpt>
      <trkpt lat="44.7852" lon="6.28292">
        <ele>2432</ele>
        <time>2024-08-12T13:23:18Z</time>
      </trkpt>
      <trkpt lat="44.7852" lon="6.28292">
        <ele>2432</ele>
        <time>2024-08-12T13:23:19Z</time>
      </trkpt>
      <trkpt lat="44.7852" lon="6.28292">
        <ele>2432</ele>
        <time>2024-08-12T13:23:20Z</time>
      </trkpt>
      <trkpt lat="44.7852" lon="6.28292">
        <ele>2432.4</ele>
        <time>2024-08-12T13:23:21Z</time>
      </trkpt>
      <trkpt lat="44.78523" lon="6.2829">
        <ele>2432.8</ele>
        <time>2024-08-12T13:23:22Z</time>
      </trkpt>
      <trkpt lat="44.78523" lon="6.2829">
        <ele>2432.8</ele>
        <time>2024-08-12T13:23:23Z</time>
      </trkpt>
      <trkpt lat="44.78523" lon="6.2829">
        <ele>2433</ele>
        <time>2024-08-12T13:23:24Z</time>
      </trkpt>
      <trkpt lat="44.78524" lon="6.28289">
        <ele>2433.2</ele>
        <time>2024-08-12T13:23:25Z</time>
      </trkpt>
      <trkpt lat="44.78524" lon="6.28289">
        <ele>2433.2</ele>
        <time>2024-08-12T13:23:26Z</time>
      </trkpt>
      <trkpt lat="44.78524" lon="6.28289">
        <ele>2433.2</ele>
        <time>2024-08-12T13:23:27Z</time>
      </trkpt>
      <trkpt lat="44.78526" lon="6.28287">
        <ele>2433.6</ele>
        <time>2024-08-12T13:23:28Z</time>
      </trkpt>
      <trkpt lat="44.78526" lon="6.28287">
        <ele>2434</ele>
        <time>2024-08-12T13:23:29Z</time>
      </trkpt>
      <trkpt lat="44.78526" lon="6.28287">
        <ele>2434.2</ele>
        <time>2024-08-12T13:23:30Z</time>
      </trkpt>
      <trkpt lat="44.78529" lon="6.28286">
        <ele>2434.2</ele>
        <time>2024-08-12T13:23:31Z</time>
      </trkpt>
      <trkpt lat="44.78529" lon="6.28286">
        <ele>2434.4</ele>
        <time>2024-08-12T13:23:32Z</time>
      </trkpt>
      <trkpt lat="44.78529" lon="6.28286">
        <ele>2434.4</ele>
        <time>2024-08-12T13:23:33Z</time>
      </trkpt>
      <trkpt lat="44.78531" lon="6.28283">
        <ele>2434.6</ele>
        <time>2024-08-12T13:23:34Z</time>
      </trkpt>
      <trkpt lat="44.78531" lon="6.28283">
        <ele>2434.6</ele>
        <time>2024-08-12T13:23:35Z</time>
      </trkpt>
      <trkpt lat="44.78531" lon="6.28283">
        <ele>2434.8</ele>
        <time>2024-08-12T13:23:36Z</time>
      </trkpt>
      <trkpt lat="44.78533" lon="6.28283">
        <ele>2434.8</ele>
        <time>2024-08-12T13:23:37Z</time>
      </trkpt>
      <trkpt lat="44.78533" lon="6.28283">
        <ele>2435</ele>
        <time>2024-08-12T13:23:38Z</time>
      </trkpt>
      <trkpt lat="44.78533" lon="6.28287">
        <ele>2435</ele>
        <time>2024-08-12T13:23:39Z</time>
      </trkpt>
      <trkpt lat="44.78533" lon="6.28287">
        <ele>2435.2</ele>
        <time>2024-08-12T13:23:40Z</time>
      </trkpt>
      <trkpt lat="44.78533" lon="6.28289">
        <ele>2435.6</ele>
        <time>2024-08-12T13:23:41Z</time>
      </trkpt>
      <trkpt lat="44.78533" lon="6.28289">
        <ele>2435.8</ele>
        <time>2024-08-12T13:23:42Z</time>
      </trkpt>
      <trkpt lat="44.78533" lon="6.28289">
        <ele>2436</ele>
        <time>2024-08-12T13:23:43Z</time>
      </trkpt>
      <trkpt lat="44.78533" lon="6.28292">
        <ele>2436.2</ele>
        <time>2024-08-12T13:23:44Z</time>
      </trkpt>
      <trkpt lat="44.78533" lon="6.28292">
        <ele>2436.2</ele>
        <time>2024-08-12T13:23:45Z</time>
      </trkpt>
      <trkpt lat="44.78533" lon="6.28292">
        <ele>2436.4</ele>
        <time>2024-08-12T13:23:46Z</time>
      </trkpt>
      <trkpt lat="44.78533" lon="6.28295">
        <ele>2436.6</ele>
        <time>2024-08-12T13:23:47Z</time>
      </trkpt>
      <trkpt lat="44.78533" lon="6.28295">
        <ele>2437</ele>
        <time>2024-08-12T13:23:48Z</time>
      </trkpt>
      <trkpt lat="44.78533" lon="6.28295">
        <ele>2437.2</ele>
        <time>2024-08-12T13:23:49Z</time>
      </trkpt>
      <trkpt lat="44.78533" lon="6.28295">
        <ele>2437.4</ele>
        <time>2024-08-12T13:23:50Z</time>
      </trkpt>
      <trkpt lat="44.78533" lon="6.28295">
        <ele>2437.6</ele>
        <time>2024-08-12T13:23:51Z</time>
      </trkpt>
      <trkpt lat="44.78533" lon="6.28299">
        <ele>2438</ele>
        <time>2024-08-12T13:23:52Z</time>
      </trkpt>
      <trkpt lat="44.78533" lon="6.28299">
        <ele>2438.4</ele>
        <time>2024-08-12T13:23:53Z</time>
      </trkpt>
      <trkpt lat="44.78533" lon="6.28302">
        <ele>2438.4</ele>
        <time>2024-08-12T13:23:54Z</time>
      </trkpt>
      <trkpt lat="44.78533" lon="6.28302">
        <ele>2438.4</ele>
        <time>2024-08-12T13:23:55Z</time>
      </trkpt>
      <trkpt lat="44.78533" lon="6.28306">
        <ele>2438.4</ele>
        <time>2024-08-12T13:23:56Z</time>
      </trkpt>
      <trkpt lat="44.78533" lon="6.28306">
        <ele>2438.6</ele>
        <time>2024-08-12T13:23:57Z</time>
      </trkpt>
      <trkpt lat="44.78534" lon="6.28308">
        <ele>2438.8</ele>
        <time>2024-08-12T13:23:58Z</time>
      </trkpt>
      <trkpt lat="44.78534" lon="6.28308">
        <ele>2439</ele>
        <time>2024-08-12T13:23:59Z</time>
      </trkpt>
      <trkpt lat="44.78534" lon="6.28308">
        <ele>2439</ele>
        <time>2024-08-12T13:24:00Z</time>
      </trkpt>
      <trkpt lat="44.78534" lon="6.28308">
        <ele>2439.2</ele>
        <time>2024-08-12T13:24:01Z</time>
      </trkpt>
      <trkpt lat="44.78536" lon="6.28307">
        <ele>2439.4</ele>
        <time>2024-08-12T13:24:02Z</time>
      </trkpt>
      <trkpt lat="44.78536" lon="6.28307">
        <ele>2439.4</ele>
        <time>2024-08-12T13:24:03Z</time>
      </trkpt>
      <trkpt lat="44.78536" lon="6.28307">
        <ele>2439.6</ele>
        <time>2024-08-12T13:24:04Z</time>
      </trkpt>
      <trkpt lat="44.78537" lon="6.28303">
        <ele>2440</ele>
        <time>2024-08-12T13:24:05Z</time>
      </trkpt>
      <trkpt lat="44.78537" lon="6.28303">
        <ele>2440.2</ele>
        <time>2024-08-12T13:24:06Z</time>
      </trkpt>
      <trkpt lat="44.78537" lon="6.28303">
        <ele>2440.2</ele>
        <time>2024-08-12T13:24:07Z</time>
      </trkpt>
      <trkpt lat="44.78537" lon="6.28303">
        <ele>2440.2</ele>
        <time>2024-08-12T13:24:08Z</time>
      </trkpt>
      <trkpt lat="44.78537" lon="6.28303">
        <ele>2440</ele>
        <time>2024-08-12T13:24:09Z</time>
      </trkpt>
      <trkpt lat="44.78537" lon="6.28303">
        <ele>2440</ele>
        <time>2024-08-12T13:24:10Z</time>
      </trkpt>
      <trkpt lat="44.78538" lon="6.28301">
        <ele>2440</ele>
        <time>2024-08-12T13:24:11Z</time>
      </trkpt>
      <trkpt lat="44.78538" lon="6.28301">
        <ele>2440.4</ele>
        <time>2024-08-12T13:24:12Z</time>
      </trkpt>
      <trkpt lat="44.78538" lon="6.28301">
        <ele>2440.6</ele>
        <time>2024-08-12T13:24:13Z</time>
      </trkpt>
      <trkpt lat="44.78538" lon="6.28301">
        <ele>2440.8</ele>
        <time>2024-08-12T13:24:14Z</time>
      </trkpt>
      <trkpt lat="44.78539" lon="6.28298">
        <ele>2440.8</ele>
        <time>2024-08-12T13:24:15Z</time>
      </trkpt>
      <trkpt lat="44.78539" lon="6.28298">
        <ele>2441</ele>
        <time>2024-08-12T13:24:16Z</time>
      </trkpt>
      <trkpt lat="44.78541" lon="6.28295">
        <ele>2441.2</ele>
        <time>2024-08-12T13:24:17Z</time>
      </trkpt>
      <trkpt lat="44.78541" lon="6.28295">
        <ele>2441.6</ele>
        <time>2024-08-12T13:24:18Z</time>
      </trkpt>
      <trkpt lat="44.78543" lon="6.28292">
        <ele>2441.6</ele>
        <time>2024-08-12T13:24:19Z</time>
      </trkpt>
      <trkpt lat="44.78543" lon="6.28292">
        <ele>2442</ele>
        <time>2024-08-12T13:24:20Z</time>
      </trkpt>
      <trkpt lat="44.78545" lon="6.28289">
        <ele>2442.4</ele>
        <time>2024-08-12T13:24:21Z</time>
      </trkpt>
      <trkpt lat="44.78545" lon="6.28289">
        <ele>2442.4</ele>
        <time>2024-08-12T13:24:22Z</time>
      </trkpt>
      <trkpt lat="44.78545" lon="6.28289">
        <ele>2442.6</ele>
        <time>2024-08-12T13:24:23Z</time>
      </trkpt>
      <trkpt lat="44.78547" lon="6.28288">
        <ele>2442.8</ele>
        <time>2024-08-12T13:24:24Z</time>
      </trkpt>
      <trkpt lat="44.78547" lon="6.28288">
        <ele>2443</ele>
        <time>2024-08-12T13:24:25Z</time>
      </trkpt>
      <trkpt lat="44.78547" lon="6.28288">
        <ele>2443.4</ele>
        <time>2024-08-12T13:24:26Z</time>
      </trkpt>
      <trkpt lat="44.78549" lon="6.28287">
        <ele>2443.6</ele>
        <time>2024-08-12T13:24:27Z</time>
      </trkpt>
      <trkpt lat="44.78549" lon="6.28287">
        <ele>2444</ele>
        <time>2024-08-12T13:24:28Z</time>
      </trkpt>
      <trkpt lat="44.78549" lon="6.28287">
        <ele>2444.2</ele>
        <time>2024-08-12T13:24:29Z</time>
      </trkpt>
      <trkpt lat="44.7855" lon="6.2829">
        <ele>2444.4</ele>
        <time>2024-08-12T13:24:30Z</time>
      </trkpt>
      <trkpt lat="44.7855" lon="6.2829">
        <ele>2444.4</ele>
        <time>2024-08-12T13:24:31Z</time>
      </trkpt>
      <trkpt lat="44.78549" lon="6.28292">
        <ele>2444.4</ele>
        <time>2024-08-12T13:24:32Z</time>
      </trkpt>
      <trkpt lat="44.78549" lon="6.28292">
        <ele>2444.6</ele>
        <time>2024-08-12T13:24:33Z</time>
      </trkpt>
      <trkpt lat="44.78549" lon="6.28292">
        <ele>2444.6</ele>
        <time>2024-08-12T13:24:34Z</time>
      </trkpt>
      <trkpt lat="44.78548" lon="6.28295">
        <ele>2444.6</ele>
        <time>2024-08-12T13:24:35Z</time>
      </trkpt>
      <trkpt lat="44.78548" lon="6.28295">
        <ele>2444.8</ele>
        <time>2024-08-12T13:24:36Z</time>
      </trkpt>
      <trkpt lat="44.78548" lon="6.28295">
        <ele>2444.8</ele>
        <time>2024-08-12T13:24:37Z</time>
      </trkpt>
      <trkpt lat="44.78548" lon="6.28295">
        <ele>2444.8</ele>
        <time>2024-08-12T13:24:38Z</time>
      </trkpt>
      <trkpt lat="44.78548" lon="6.28295">
        <ele>2445.2</ele>
        <time>2024-08-12T13:24:39Z</time>
      </trkpt>
      <trkpt lat="44.78547" lon="6.28299">
        <ele>2445.6</ele>
        <time>2024-08-12T13:24:40Z</time>
      </trkpt>
      <trkpt lat="44.78547" lon="6.28299">
        <ele>2445.8</ele>
        <time>2024-08-12T13:24:41Z</time>
      </trkpt>
      <trkpt lat="44.78547" lon="6.28299">
        <ele>2446.4</ele>
        <time>2024-08-12T13:24:42Z</time>
      </trkpt>
      <trkpt lat="44.78548" lon="6.28302">
        <ele>2446.8</ele>
        <time>2024-08-12T13:24:43Z</time>
      </trkpt>
      <trkpt lat="44.78548" lon="6.28302">
        <ele>2447.2</ele>
        <time>2024-08-12T13:24:44Z</time>
      </trkpt>
      <trkpt lat="44.78549" lon="6.28305">
        <ele>2447.6</ele>
        <time>2024-08-12T13:24:45Z</time>
      </trkpt>
      <trkpt lat="44.78549" lon="6.28305">
        <ele>2447.8</ele>
        <time>2024-08-12T13:24:46Z</time>
      </trkpt>
      <trkpt lat="44.78549" lon="6.28307">
        <ele>2448.2</ele>
        <time>2024-08-12T13:24:47Z</time>
      </trkpt>
      <trkpt lat="44.78549" lon="6.28307">
        <ele>2448.6</ele>
        <time>2024-08-12T13:24:48Z</time>
      </trkpt>
      <trkpt lat="44.78549" lon="6.28307">
        <ele>2448.8</ele>
        <time>2024-08-12T13:24:49Z</time>
      </trkpt>
      <trkpt lat="44.78549" lon="6.2831">
        <ele>2448.8</ele>
        <time>2024-08-12T13:24:50Z</time>
      </trkpt>
      <trkpt lat="44.78549" lon="6.2831">
        <ele>2449.2</ele>
        <time>2024-08-12T13:24:51Z</time>
      </trkpt>
      <trkpt lat="44.78549" lon="6.2831">
        <ele>2449.6</ele>
        <time>2024-08-12T13:24:52Z</time>
      </trkpt>
      <trkpt lat="44.78549" lon="6.2831">
        <ele>2449.6</ele>
        <time>2024-08-12T13:24:53Z</time>
      </trkpt>
      <trkpt lat="44.78549" lon="6.2831">
        <ele>2449.8</ele>
        <time>2024-08-12T13:24:54Z</time>
      </trkpt>
      <trkpt lat="44.78549" lon="6.2831">
        <ele>2449.6</ele>
        <time>2024-08-12T13:24:55Z</time>
      </trkpt>
      <trkpt lat="44.78549" lon="6.2831">
        <ele>2449.8</ele>
        <time>2024-08-12T13:24:56Z</time>
      </trkpt>
      <trkpt lat="44.78549" lon="6.28313">
        <ele>2449.8</ele>
        <time>2024-08-12T13:24:57Z</time>
      </trkpt>
      <trkpt lat="44.78549" lon="6.28313">
        <ele>2450</ele>
        <time>2024-08-12T13:24:58Z</time>
      </trkpt>
      <trkpt lat="44.7855" lon="6.28316">
        <ele>2450</ele>
        <time>2024-08-12T13:24:59Z</time>
      </trkpt>
      <trkpt lat="44.7855" lon="6.28316">
        <ele>2450.4</ele>
        <time>2024-08-12T13:25:00Z</time>
      </trkpt>
      <trkpt lat="44.78551" lon="6.28319">
        <ele>2450.6</ele>
        <time>2024-08-12T13:25:01Z</time>
      </trkpt>
      <trkpt lat="44.78551" lon="6.28319">
        <ele>2451</ele>
        <time>2024-08-12T13:25:02Z</time>
      </trkpt>
      <trkpt lat="44.78552" lon="6.28321">
        <ele>2451</ele>
        <time>2024-08-12T13:25:03Z</time>
      </trkpt>
      <trkpt lat="44.78552" lon="6.28321">
        <ele>2451.2</ele>
        <time>2024-08-12T13:25:04Z</time>
      </trkpt>
      <trkpt lat="44.78552" lon="6.28321">
        <ele>2451.4</ele>
        <time>2024-08-12T13:25:05Z</time>
      </trkpt>
      <trkpt lat="44.78554" lon="6.28324">
        <ele>2451.6</ele>
        <time>2024-08-12T13:25:06Z</time>
      </trkpt>
      <trkpt lat="44.78554" lon="6.28324">
        <ele>2451.8</ele>
        <time>2024-08-12T13:25:07Z</time>
      </trkpt>
      <trkpt lat="44.78555" lon="6.28326">
        <ele>2452</ele>
        <time>2024-08-12T13:25:08Z</time>
      </trkpt>
      <trkpt lat="44.78555" lon="6.28326">
        <ele>2452.2</ele>
        <time>2024-08-12T13:25:09Z</time>
      </trkpt>
      <trkpt lat="44.78556" lon="6.28329">
        <ele>2452.2</ele>
        <time>2024-08-12T13:25:10Z</time>
      </trkpt>
      <trkpt lat="44.78556" lon="6.28329">
        <ele>2452.4</ele>
        <time>2024-08-12T13:25:11Z</time>
      </trkpt>
      <trkpt lat="44.78556" lon="6.28329">
        <ele>2452.6</ele>
        <time>2024-08-12T13:25:12Z</time>
      </trkpt>
      <trkpt lat="44.78556" lon="6.28331">
        <ele>2452.8</ele>
        <time>2024-08-12T13:25:13Z</time>
      </trkpt>
      <trkpt lat="44.78556" lon="6.28331">
        <ele>2453</ele>
        <time>2024-08-12T13:25:14Z</time>
      </trkpt>
      <trkpt lat="44.78556" lon="6.28331">
        <ele>2453.4</ele>
        <time>2024-08-12T13:25:15Z</time>
      </trkpt>
      <trkpt lat="44.78556" lon="6.28331">
        <ele>2453.8</ele>
        <time>2024-08-12T13:25:16Z</time>
      </trkpt>
      <trkpt lat="44.78558" lon="6.28331">
        <ele>2454</ele>
        <time>2024-08-12T13:25:17Z</time>
      </trkpt>
      <trkpt lat="44.78558" lon="6.28331">
        <ele>2454.2</ele>
        <time>2024-08-12T13:25:18Z</time>
      </trkpt>
      <trkpt lat="44.78558" lon="6.28331">
        <ele>2454.2</ele>
        <time>2024-08-12T13:25:19Z</time>
      </trkpt>
      <trkpt lat="44.78559" lon="6.28327">
        <ele>2454.4</ele>
        <time>2024-08-12T13:25:20Z</time>
      </trkpt>
      <trkpt lat="44.78559" lon="6.28327">
        <ele>2454.4</ele>
        <time>2024-08-12T13:25:21Z</time>
      </trkpt>
      <trkpt lat="44.78559" lon="6.28327">
        <ele>2454.2</ele>
        <time>2024-08-12T13:25:22Z</time>
      </trkpt>
      <trkpt lat="44.78559" lon="6.28323">
        <ele>2454</ele>
        <time>2024-08-12T13:25:23Z</time>
      </trkpt>
      <trkpt lat="44.78559" lon="6.28323">
        <ele>2454</ele>
        <time>2024-08-12T13:25:24Z</time>
      </trkpt>
      <trkpt lat="44.78559" lon="6.28323">
        <ele>2454.2</ele>
        <time>2024-08-12T13:25:25Z</time>
      </trkpt>
      <trkpt lat="44.78559" lon="6.28323">
        <ele>2454.2</ele>
        <time>2024-08-12T13:25:26Z</time>
      </trkpt>
      <trkpt lat="44.78559" lon="6.28323">
        <ele>2454.6</ele>
        <time>2024-08-12T13:25:27Z</time>
      </trkpt>
      <trkpt lat="44.78559" lon="6.28321">
        <ele>2454.8</ele>
        <time>2024-08-12T13:25:28Z</time>
      </trkpt>
      <trkpt lat="44.78559" lon="6.28321">
        <ele>2455.2</ele>
        <time>2024-08-12T13:25:29Z</time>
      </trkpt>
      <trkpt lat="44.78559" lon="6.28318">
        <ele>2455.2</ele>
        <time>2024-08-12T13:25:30Z</time>
      </trkpt>
      <trkpt lat="44.78559" lon="6.28318">
        <ele>2455.2</ele>
        <time>2024-08-12T13:25:31Z</time>
      </trkpt>
      <trkpt lat="44.7856" lon="6.28315">
        <ele>2455.4</ele>
        <time>2024-08-12T13:25:32Z</time>
      </trkpt>
      <trkpt lat="44.7856" lon="6.28315">
        <ele>2455.4</ele>
        <time>2024-08-12T13:25:33Z</time>
      </trkpt>
      <trkpt lat="44.7856" lon="6.28315">
        <ele>2455.8</ele>
        <time>2024-08-12T13:25:34Z</time>
      </trkpt>
      <trkpt lat="44.7856" lon="6.28311">
        <ele>2455.8</ele>
        <time>2024-08-12T13:25:35Z</time>
      </trkpt>
      <trkpt lat="44.7856" lon="6.28311">
        <ele>2456.2</ele>
        <time>2024-08-12T13:25:36Z</time>
      </trkpt>
      <trkpt lat="44.78561" lon="6.28309">
        <ele>2456.4</ele>
        <time>2024-08-12T13:25:37Z</time>
      </trkpt>
      <trkpt lat="44.78561" lon="6.28309">
        <ele>2456.4</ele>
        <time>2024-08-12T13:25:38Z</time>
      </trkpt>
      <trkpt lat="44.78562" lon="6.28307">
        <ele>2456.4</ele>
        <time>2024-08-12T13:25:39Z</time>
      </trkpt>
      <trkpt lat="44.78562" lon="6.28307">
        <ele>2456.6</ele>
        <time>2024-08-12T13:25:40Z</time>
      </trkpt>
      <trkpt lat="44.78562" lon="6.28307">
        <ele>2456.6</ele>
        <time>2024-08-12T13:25:41Z</time>
      </trkpt>
      <trkpt lat="44.78563" lon="6.28304">
        <ele>2456.8</ele>
        <time>2024-08-12T13:25:42Z</time>
      </trkpt>
      <trkpt lat="44.78563" lon="6.28304">
        <ele>2457</ele>
        <time>2024-08-12T13:25:43Z</time>
      </trkpt>
      <trkpt lat="44.78565" lon="6.28301">
        <ele>2457</ele>
        <time>2024-08-12T13:25:44Z</time>
      </trkpt>
      <trkpt lat="44.78565" lon="6.28301">
        <ele>2457.2</ele>
        <time>2024-08-12T13:25:45Z</time>
      </trkpt>
      <trkpt lat="44.78566" lon="6.28299">
        <ele>2457.4</ele>
        <time>2024-08-12T13:25:46Z</time>
      </trkpt>
      <trkpt lat="44.78566" lon="6.28299">
        <ele>2457.4</ele>
        <time>2024-08-12T13:25:47Z</time>
      </trkpt>
      <trkpt lat="44.78566" lon="6.28299">
        <ele>2457.4</ele>
        <time>2024-08-12T13:25:48Z</time>
      </trkpt>
      <trkpt lat="44.78569" lon="6.28297">
        <ele>2457.2</ele>
        <time>2024-08-12T13:25:49Z</time>
      </trkpt>
      <trkpt lat="44.78569" lon="6.28297">
        <ele>2457.2</ele>
        <time>2024-08-12T13:25:50Z</time>
      </trkpt>
      <trkpt lat="44.78569" lon="6.28297">
        <ele>2457.2</ele>
        <time>2024-08-12T13:25:51Z</time>
      </trkpt>
      <trkpt lat="44.78571" lon="6.28296">
        <ele>2457.4</ele>
        <time>2024-08-12T13:25:52Z</time>
      </trkpt>
      <trkpt lat="44.78571" lon="6.28296">
        <ele>2457.4</ele>
        <time>2024-08-12T13:25:53Z</time>
      </trkpt>
      <trkpt lat="44.78571" lon="6.28296">
        <ele>2457.6</ele>
        <time>2024-08-12T13:25:54Z</time>
      </trkpt>
      <trkpt lat="44.78571" lon="6.28296">
        <ele>2458</ele>
        <time>2024-08-12T13:25:55Z</time>
      </trkpt>
      <trkpt lat="44.78573" lon="6.28296">
        <ele>2458.4</ele>
        <time>2024-08-12T13:25:56Z</time>
      </trkpt>
      <trkpt lat="44.78573" lon="6.28296">
        <ele>2458.6</ele>
        <time>2024-08-12T13:25:57Z</time>
      </trkpt>
      <trkpt lat="44.78573" lon="6.28296">
        <ele>2458.8</ele>
        <time>2024-08-12T13:25:58Z</time>
      </trkpt>
      <trkpt lat="44.78573" lon="6.28296">
        <ele>2459</ele>
        <time>2024-08-12T13:25:59Z</time>
      </trkpt>
      <trkpt lat="44.78573" lon="6.28296">
        <ele>2459.4</ele>
        <time>2024-08-12T13:26:00Z</time>
      </trkpt>
      <trkpt lat="44.78573" lon="6.28296">
        <ele>2459.4</ele>
        <time>2024-08-12T13:26:01Z</time>
      </trkpt>
      <trkpt lat="44.78573" lon="6.28296">
        <ele>2459.8</ele>
        <time>2024-08-12T13:26:02Z</time>
      </trkpt>
      <trkpt lat="44.78575" lon="6.28295">
        <ele>2459.8</ele>
        <time>2024-08-12T13:26:03Z</time>
      </trkpt>
      <trkpt lat="44.78575" lon="6.28295">
        <ele>2459.8</ele>
        <time>2024-08-12T13:26:04Z</time>
      </trkpt>
      <trkpt lat="44.78577" lon="6.28293">
        <ele>2460</ele>
        <time>2024-08-12T13:26:05Z</time>
      </trkpt>
      <trkpt lat="44.78577" lon="6.28293">
        <ele>2460.2</ele>
        <time>2024-08-12T13:26:06Z</time>
      </trkpt>
      <trkpt lat="44.78578" lon="6.28291">
        <ele>2460.4</ele>
        <time>2024-08-12T13:26:07Z</time>
      </trkpt>
      <trkpt lat="44.78578" lon="6.28291">
        <ele>2460.4</ele>
        <time>2024-08-12T13:26:08Z</time>
      </trkpt>
      <trkpt lat="44.7858" lon="6.28289">
        <ele>2460.2</ele>
        <time>2024-08-12T13:26:09Z</time>
      </trkpt>
      <trkpt lat="44.7858" lon="6.28289">
        <ele>2460.2</ele>
        <time>2024-08-12T13:26:10Z</time>
      </trkpt>
      <trkpt lat="44.7858" lon="6.28289">
        <ele>2460.6</ele>
        <time>2024-08-12T13:26:11Z</time>
      </trkpt>
      <trkpt lat="44.78582" lon="6.28286">
        <ele>2461</ele>
        <time>2024-08-12T13:26:12Z</time>
      </trkpt>
      <trkpt lat="44.78582" lon="6.28286">
        <ele>2461.2</ele>
        <time>2024-08-12T13:26:13Z</time>
      </trkpt>
      <trkpt lat="44.78582" lon="6.28284">
        <ele>2461.2</ele>
        <time>2024-08-12T13:26:14Z</time>
      </trkpt>
      <trkpt lat="44.78582" lon="6.28284">
        <ele>2461</ele>
        <time>2024-08-12T13:26:15Z</time>
      </trkpt>
      <trkpt lat="44.78584" lon="6.28281">
        <ele>2461</ele>
        <time>2024-08-12T13:26:16Z</time>
      </trkpt>
      <trkpt lat="44.78584" lon="6.28281">
        <ele>2461</ele>
        <time>2024-08-12T13:26:17Z</time>
      </trkpt>
      <trkpt lat="44.78585" lon="6.28279">
        <ele>2461</ele>
        <time>2024-08-12T13:26:18Z</time>
      </trkpt>
      <trkpt lat="44.78585" lon="6.28279">
        <ele>2461.2</ele>
        <time>2024-08-12T13:26:19Z</time>
      </trkpt>
      <trkpt lat="44.78585" lon="6.28279">
        <ele>2461.6</ele>
        <time>2024-08-12T13:26:20Z</time>
      </trkpt>
      <trkpt lat="44.78586" lon="6.28276">
        <ele>2461.4</ele>
        <time>2024-08-12T13:26:21Z</time>
      </trkpt>
      <trkpt lat="44.78586" lon="6.28276">
        <ele>2461.8</ele>
        <time>2024-08-12T13:26:22Z</time>
      </trkpt>
      <trkpt lat="44.78586" lon="6.28276">
        <ele>2461.8</ele>
        <time>2024-08-12T13:26:23Z</time>
      </trkpt>
      <trkpt lat="44.78588" lon="6.28273">
        <ele>2462</ele>
        <time>2024-08-12T13:26:24Z</time>
      </trkpt>
      <trkpt lat="44.78588" lon="6.28273">
        <ele>2462</ele>
        <time>2024-08-12T13:26:25Z</time>
      </trkpt>
      <trkpt lat="44.78588" lon="6.28273">
        <ele>2462.4</ele>
        <time>2024-08-12T13:26:26Z</time>
      </trkpt>
      <trkpt lat="44.7859" lon="6.28271">
        <ele>2462.8</ele>
        <time>2024-08-12T13:26:27Z</time>
      </trkpt>
      <trkpt lat="44.7859" lon="6.28271">
        <ele>2463</ele>
        <time>2024-08-12T13:26:28Z</time>
      </trkpt>
      <trkpt lat="44.78592" lon="6.2827">
        <ele>2463</ele>
        <time>2024-08-12T13:26:29Z</time>
      </trkpt>
      <trkpt lat="44.78592" lon="6.2827">
        <ele>2463.2</ele>
        <time>2024-08-12T13:26:30Z</time>
      </trkpt>
      <trkpt lat="44.78594" lon="6.28269">
        <ele>2463.6</ele>
        <time>2024-08-12T13:26:31Z</time>
      </trkpt>
      <trkpt lat="44.78594" lon="6.28269">
        <ele>2463.8</ele>
        <time>2024-08-12T13:26:32Z</time>
      </trkpt>
      <trkpt lat="44.78596" lon="6.28269">
        <ele>2463.8</ele>
        <time>2024-08-12T13:26:33Z</time>
      </trkpt>
      <trkpt lat="44.78596" lon="6.28269">
        <ele>2464</ele>
        <time>2024-08-12T13:26:34Z</time>
      </trkpt>
      <trkpt lat="44.78598" lon="6.28268">
        <ele>2464.2</ele>
        <time>2024-08-12T13:26:35Z</time>
      </trkpt>
      <trkpt lat="44.78598" lon="6.28268">
        <ele>2464.4</ele>
        <time>2024-08-12T13:26:36Z</time>
      </trkpt>
      <trkpt lat="44.78598" lon="6.28268">
        <ele>2464.4</ele>
        <time>2024-08-12T13:26:37Z</time>
      </trkpt>
      <trkpt lat="44.78598" lon="6.28268">
        <ele>2464.4</ele>
        <time>2024-08-12T13:26:38Z</time>
      </trkpt>
      <trkpt lat="44.786" lon="6.2827">
        <ele>2464.4</ele>
        <time>2024-08-12T13:26:39Z</time>
      </trkpt>
      <trkpt lat="44.786" lon="6.2827">
        <ele>2464.8</ele>
        <time>2024-08-12T13:26:40Z</time>
      </trkpt>
      <trkpt lat="44.786" lon="6.2827">
        <ele>2465.2</ele>
        <time>2024-08-12T13:26:41Z</time>
      </trkpt>
      <trkpt lat="44.78602" lon="6.28271">
        <ele>2465.4</ele>
        <time>2024-08-12T13:26:42Z</time>
      </trkpt>
      <trkpt lat="44.78602" lon="6.28271">
        <ele>2465.4</ele>
        <time>2024-08-12T13:26:43Z</time>
      </trkpt>
      <trkpt lat="44.78602" lon="6.28271">
        <ele>2465.6</ele>
        <time>2024-08-12T13:26:44Z</time>
      </trkpt>
      <trkpt lat="44.78605" lon="6.28272">
        <ele>2465.8</ele>
        <time>2024-08-12T13:26:45Z</time>
      </trkpt>
      <trkpt lat="44.78605" lon="6.28272">
        <ele>2465.8</ele>
        <time>2024-08-12T13:26:46Z</time>
      </trkpt>
      <trkpt lat="44.78606" lon="6.28272">
        <ele>2465.8</ele>
        <time>2024-08-12T13:26:47Z</time>
      </trkpt>
      <trkpt lat="44.78606" lon="6.28272">
        <ele>2465.8</ele>
        <time>2024-08-12T13:26:48Z</time>
      </trkpt>
      <trkpt lat="44.78608" lon="6.28271">
        <ele>2465.8</ele>
        <time>2024-08-12T13:26:49Z</time>
      </trkpt>
      <trkpt lat="44.78608" lon="6.28271">
        <ele>2465.8</ele>
        <time>2024-08-12T13:26:50Z</time>
      </trkpt>
      <trkpt lat="44.7861" lon="6.28271">
        <ele>2465.8</ele>
        <time>2024-08-12T13:26:51Z</time>
      </trkpt>
      <trkpt lat="44.7861" lon="6.28271">
        <ele>2465.8</ele>
        <time>2024-08-12T13:26:52Z</time>
      </trkpt>
      <trkpt lat="44.7861" lon="6.28271">
        <ele>2466</ele>
        <time>2024-08-12T13:26:53Z</time>
      </trkpt>
      <trkpt lat="44.78613" lon="6.28271">
        <ele>2466</ele>
        <time>2024-08-12T13:26:54Z</time>
      </trkpt>
      <trkpt lat="44.78613" lon="6.28271">
        <ele>2466</ele>
        <time>2024-08-12T13:26:55Z</time>
      </trkpt>
      <trkpt lat="44.78613" lon="6.28271">
        <ele>2466.4</ele>
        <time>2024-08-12T13:26:56Z</time>
      </trkpt>
      <trkpt lat="44.78615" lon="6.28271">
        <ele>2466.4</ele>
        <time>2024-08-12T13:26:57Z</time>
      </trkpt>
      <trkpt lat="44.78615" lon="6.28271">
        <ele>2466.4</ele>
        <time>2024-08-12T13:26:58Z</time>
      </trkpt>
      <trkpt lat="44.78615" lon="6.28271">
        <ele>2466.6</ele>
        <time>2024-08-12T13:26:59Z</time>
      </trkpt>
      <trkpt lat="44.78618" lon="6.28271">
        <ele>2466.8</ele>
        <time>2024-08-12T13:27:00Z</time>
      </trkpt>
      <trkpt lat="44.78618" lon="6.28271">
        <ele>2467.4</ele>
        <time>2024-08-12T13:27:01Z</time>
      </trkpt>
      <trkpt lat="44.78618" lon="6.28271">
        <ele>2467.8</ele>
        <time>2024-08-12T13:27:02Z</time>
      </trkpt>
      <trkpt lat="44.7862" lon="6.28269">
        <ele>2467.8</ele>
        <time>2024-08-12T13:27:03Z</time>
      </trkpt>
      <trkpt lat="44.7862" lon="6.28269">
        <ele>2467.8</ele>
        <time>2024-08-12T13:27:04Z</time>
      </trkpt>
      <trkpt lat="44.78622" lon="6.28268">
        <ele>2467.8</ele>
        <time>2024-08-12T13:27:05Z</time>
      </trkpt>
      <trkpt lat="44.78622" lon="6.28268">
        <ele>2467.8</ele>
        <time>2024-08-12T13:27:06Z</time>
      </trkpt>
      <trkpt lat="44.78622" lon="6.28268">
        <ele>2467.8</ele>
        <time>2024-08-12T13:27:07Z</time>
      </trkpt>
      <trkpt lat="44.78624" lon="6.28266">
        <ele>2467.8</ele>
        <time>2024-08-12T13:27:08Z</time>
      </trkpt>
      <trkpt lat="44.78624" lon="6.28266">
        <ele>2468</ele>
        <time>2024-08-12T13:27:09Z</time>
      </trkpt>
      <trkpt lat="44.78624" lon="6.28266">
        <ele>2468</ele>
        <time>2024-08-12T13:27:10Z</time>
      </trkpt>
      <trkpt lat="44.78626" lon="6.28264">
        <ele>2468.2</ele>
        <time>2024-08-12T13:27:11Z</time>
      </trkpt>
      <trkpt lat="44.78626" lon="6.28264">
        <ele>2468.2</ele>
        <time>2024-08-12T13:27:12Z</time>
      </trkpt>
      <trkpt lat="44.78626" lon="6.28264">
        <ele>2468.2</ele>
        <time>2024-08-12T13:27:13Z</time>
      </trkpt>
      <trkpt lat="44.78628" lon="6.28262">
        <ele>2468</ele>
        <time>2024-08-12T13:27:14Z</time>
      </trkpt>
      <trkpt lat="44.78628" lon="6.28262">
        <ele>2467.6</ele>
        <time>2024-08-12T13:27:15Z</time>
      </trkpt>
      <trkpt lat="44.78628" lon="6.28262">
        <ele>2467.6</ele>
        <time>2024-08-12T13:27:16Z</time>
      </trkpt>
      <trkpt lat="44.78628" lon="6.28259">
        <ele>2467.6</ele>
        <time>2024-08-12T13:27:17Z</time>
      </trkpt>
      <trkpt lat="44.78628" lon="6.28259">
        <ele>2467.6</ele>
        <time>2024-08-12T13:27:18Z</time>
      </trkpt>
      <trkpt lat="44.78627" lon="6.28257">
        <ele>2467.2</ele>
        <time>2024-08-12T13:27:19Z</time>
      </trkpt>
      <trkpt lat="44.78627" lon="6.28257">
        <ele>2467</ele>
        <time>2024-08-12T13:27:20Z</time>
      </trkpt>
      <trkpt lat="44.78625" lon="6.28255">
        <ele>2467</ele>
        <time>2024-08-12T13:27:21Z</time>
      </trkpt>
      <trkpt lat="44.78625" lon="6.28255">
        <ele>2466.8</ele>
        <time>2024-08-12T13:27:22Z</time>
      </trkpt>
      <trkpt lat="44.78625" lon="6.28255">
        <ele>2466.8</ele>
        <time>2024-08-12T13:27:23Z</time>
      </trkpt>
      <trkpt lat="44.78622" lon="6.28254">
        <ele>2466.8</ele>
        <time>2024-08-12T13:27:24Z</time>
      </trkpt>
      <trkpt lat="44.78622" lon="6.28254">
        <ele>2466.8</ele>
        <time>2024-08-12T13:27:25Z</time>
      </trkpt>
      <trkpt lat="44.78622" lon="6.28254">
        <ele>2466.8</ele>
        <time>2024-08-12T13:27:26Z</time>
      </trkpt>
      <trkpt lat="44.78621" lon="6.28251">
        <ele>2466.8</ele>
        <time>2024-08-12T13:27:27Z</time>
      </trkpt>
      <trkpt lat="44.78621" lon="6.28251">
        <ele>2466.8</ele>
        <time>2024-08-12T13:27:28Z</time>
      </trkpt>
      <trkpt lat="44.78621" lon="6.28251">
        <ele>2467</ele>
        <time>2024-08-12T13:27:29Z</time>
      </trkpt>
      <trkpt lat="44.78619" lon="6.2825">
        <ele>2467.2</ele>
        <time>2024-08-12T13:27:30Z</time>
      </trkpt>
      <trkpt lat="44.78619" lon="6.2825">
        <ele>2467.2</ele>
        <time>2024-08-12T13:27:31Z</time>
      </trkpt>
      <trkpt lat="44.78619" lon="6.2825">
        <ele>2467.6</ele>
        <time>2024-08-12T13:27:32Z</time>
      </trkpt>
      <trkpt lat="44.78617" lon="6.28248">
        <ele>2467.6</ele>
        <time>2024-08-12T13:27:33Z</time>
      </trkpt>
      <trkpt lat="44.78617" lon="6.28248">
        <ele>2468.6</ele>
        <time>2024-08-12T13:27:34Z</time>
      </trkpt>
      <trkpt lat="44.78617" lon="6.28248">
        <ele>2469.2</ele>
        <time>2024-08-12T13:27:35Z</time>
      </trkpt>
      <trkpt lat="44.78617" lon="6.28248">
        <ele>2469.6</ele>
        <time>2024-08-12T13:27:36Z</time>
      </trkpt>
      <trkpt lat="44.78615" lon="6.28245">
        <ele>2469.8</ele>
        <time>2024-08-12T13:27:37Z</time>
      </trkpt>
      <trkpt lat="44.78615" lon="6.28245">
        <ele>2469.8</ele>
        <time>2024-08-12T13:27:38Z</time>
      </trkpt>
      <trkpt lat="44.78613" lon="6.28243">
        <ele>2469.8</ele>
        <time>2024-08-12T13:27:39Z</time>
      </trkpt>
      <trkpt lat="44.78613" lon="6.28243">
        <ele>2469.8</ele>
        <time>2024-08-12T13:27:40Z</time>
      </trkpt>
      <trkpt lat="44.78611" lon="6.28241">
        <ele>2469.6</ele>
        <time>2024-08-12T13:27:41Z</time>
      </trkpt>
      <trkpt lat="44.78611" lon="6.28241">
        <ele>2469.4</ele>
        <time>2024-08-12T13:27:42Z</time>
      </trkpt>
      <trkpt lat="44.78611" lon="6.28241">
        <ele>2469.4</ele>
        <time>2024-08-12T13:27:43Z</time>
      </trkpt>
      <trkpt lat="44.78611" lon="6.28241">
        <ele>2469.2</ele>
        <time>2024-08-12T13:27:44Z</time>
      </trkpt>
      <trkpt lat="44.7861" lon="6.28238">
        <ele>2469</ele>
        <time>2024-08-12T13:27:45Z</time>
      </trkpt>
      <trkpt lat="44.7861" lon="6.28238">
        <ele>2469</ele>
        <time>2024-08-12T13:27:46Z</time>
      </trkpt>
      <trkpt lat="44.7861" lon="6.28238">
        <ele>2469.2</ele>
        <time>2024-08-12T13:27:47Z</time>
      </trkpt>
      <trkpt lat="44.78611" lon="6.28235">
        <ele>2469.8</ele>
        <time>2024-08-12T13:27:48Z</time>
      </trkpt>
      <trkpt lat="44.78611" lon="6.28235">
        <ele>2471</ele>
        <time>2024-08-12T13:27:49Z</time>
      </trkpt>
      <trkpt lat="44.78611" lon="6.28235">
        <ele>2471.6</ele>
        <time>2024-08-12T13:27:50Z</time>
      </trkpt>
      <trkpt lat="44.78612" lon="6.28233">
        <ele>2472</ele>
        <time>2024-08-12T13:27:51Z</time>
      </trkpt>
      <trkpt lat="44.78612" lon="6.28233">
        <ele>2472.2</ele>
        <time>2024-08-12T13:27:52Z</time>
      </trkpt>
      <trkpt lat="44.78612" lon="6.28233">
        <ele>2473</ele>
        <time>2024-08-12T13:27:53Z</time>
      </trkpt>
      <trkpt lat="44.78613" lon="6.28231">
        <ele>2473.8</ele>
        <time>2024-08-12T13:27:54Z</time>
      </trkpt>
      <trkpt lat="44.78613" lon="6.28231">
        <ele>2474.2</ele>
        <time>2024-08-12T13:27:55Z</time>
      </trkpt>
      <trkpt lat="44.78613" lon="6.28231">
        <ele>2474.8</ele>
        <time>2024-08-12T13:27:56Z</time>
      </trkpt>
      <trkpt lat="44.78614" lon="6.28231">
        <ele>2475</ele>
        <time>2024-08-12T13:27:57Z</time>
      </trkpt>
      <trkpt lat="44.78614" lon="6.28231">
        <ele>2475</ele>
        <time>2024-08-12T13:27:58Z</time>
      </trkpt>
      <trkpt lat="44.78614" lon="6.28231">
        <ele>2474.8</ele>
        <time>2024-08-12T13:27:59Z</time>
      </trkpt>
      <trkpt lat="44.78617" lon="6.28231">
        <ele>2474.6</ele>
        <time>2024-08-12T13:28:00Z</time>
      </trkpt>
      <trkpt lat="44.78617" lon="6.28231">
        <ele>2474.6</ele>
        <time>2024-08-12T13:28:01Z</time>
      </trkpt>
      <trkpt lat="44.78617" lon="6.28231">
        <ele>2475.2</ele>
        <time>2024-08-12T13:28:02Z</time>
      </trkpt>
      <trkpt lat="44.78619" lon="6.28231">
        <ele>2475.2</ele>
        <time>2024-08-12T13:28:03Z</time>
      </trkpt>
      <trkpt lat="44.78619" lon="6.28231">
        <ele>2475.4</ele>
        <time>2024-08-12T13:28:04Z</time>
      </trkpt>
      <trkpt lat="44.78619" lon="6.28231">
        <ele>2475.8</ele>
        <time>2024-08-12T13:28:05Z</time>
      </trkpt>
      <trkpt lat="44.78621" lon="6.28231">
        <ele>2475.8</ele>
        <time>2024-08-12T13:28:06Z</time>
      </trkpt>
      <trkpt lat="44.78621" lon="6.28231">
        <ele>2476</ele>
        <time>2024-08-12T13:28:07Z</time>
      </trkpt>
      <trkpt lat="44.78621" lon="6.28231">
        <ele>2476</ele>
        <time>2024-08-12T13:28:08Z</time>
      </trkpt>
      <trkpt lat="44.78623" lon="6.28231">
        <ele>2476.2</ele>
        <time>2024-08-12T13:28:09Z</time>
      </trkpt>
      <trkpt lat="44.78623" lon="6.28231">
        <ele>2476.4</ele>
        <time>2024-08-12T13:28:10Z</time>
      </trkpt>
      <trkpt lat="44.78623" lon="6.28231">
        <ele>2476.4</ele>
        <time>2024-08-12T13:28:11Z</time>
      </trkpt>
      <trkpt lat="44.78625" lon="6.28229">
        <ele>2476.8</ele>
        <time>2024-08-12T13:28:12Z</time>
      </trkpt>
      <trkpt lat="44.78625" lon="6.28229">
        <ele>2477.2</ele>
        <time>2024-08-12T13:28:13Z</time>
      </trkpt>
      <trkpt lat="44.78626" lon="6.28228">
        <ele>2477.6</ele>
        <time>2024-08-12T13:28:14Z</time>
      </trkpt>
      <trkpt lat="44.78626" lon="6.28228">
        <ele>2477.6</ele>
        <time>2024-08-12T13:28:15Z</time>
      </trkpt>
      <trkpt lat="44.78626" lon="6.28228">
        <ele>2477.8</ele>
        <time>2024-08-12T13:28:16Z</time>
      </trkpt>
      <trkpt lat="44.78628" lon="6.28227">
        <ele>2477.8</ele>
        <time>2024-08-12T13:28:17Z</time>
      </trkpt>
      <trkpt lat="44.78628" lon="6.28227">
        <ele>2477.8</ele>
        <time>2024-08-12T13:28:18Z</time>
      </trkpt>
      <trkpt lat="44.78628" lon="6.28227">
        <ele>2477.8</ele>
        <time>2024-08-12T13:28:19Z</time>
      </trkpt>
      <trkpt lat="44.78628" lon="6.28227">
        <ele>2478</ele>
        <time>2024-08-12T13:28:20Z</time>
      </trkpt>
      <trkpt lat="44.7863" lon="6.28227">
        <ele>2478.2</ele>
        <time>2024-08-12T13:28:21Z</time>
      </trkpt>
      <trkpt lat="44.7863" lon="6.28227">
        <ele>2478.2</ele>
        <time>2024-08-12T13:28:22Z</time>
      </trkpt>
      <trkpt lat="44.7863" lon="6.28227">
        <ele>2478.2</ele>
        <time>2024-08-12T13:28:23Z</time>
      </trkpt>
      <trkpt lat="44.7863" lon="6.28227">
        <ele>2478.2</ele>
        <time>2024-08-12T13:28:24Z</time>
      </trkpt>
      <trkpt lat="44.78632" lon="6.28227">
        <ele>2478.4</ele>
        <time>2024-08-12T13:28:25Z</time>
      </trkpt>
      <trkpt lat="44.78632" lon="6.28227">
        <ele>2478.6</ele>
        <time>2024-08-12T13:28:26Z</time>
      </trkpt>
      <trkpt lat="44.78632" lon="6.28227">
        <ele>2478.8</ele>
        <time>2024-08-12T13:28:27Z</time>
      </trkpt>
      <trkpt lat="44.78634" lon="6.28226">
        <ele>2479</ele>
        <time>2024-08-12T13:28:28Z</time>
      </trkpt>
      <trkpt lat="44.78634" lon="6.28226">
        <ele>2479.2</ele>
        <time>2024-08-12T13:28:29Z</time>
      </trkpt>
      <trkpt lat="44.78634" lon="6.28226">
        <ele>2479.2</ele>
        <time>2024-08-12T13:28:30Z</time>
      </trkpt>
      <trkpt lat="44.78634" lon="6.28226">
        <ele>2479.4</ele>
        <time>2024-08-12T13:28:31Z</time>
      </trkpt>
      <trkpt lat="44.78637" lon="6.28226">
        <ele>2479.6</ele>
        <time>2024-08-12T13:28:32Z</time>
      </trkpt>
      <trkpt lat="44.78637" lon="6.28226">
        <ele>2480</ele>
        <time>2024-08-12T13:28:33Z</time>
      </trkpt>
      <trkpt lat="44.78637" lon="6.28226">
        <ele>2480.2</ele>
        <time>2024-08-12T13:28:34Z</time>
      </trkpt>
      <trkpt lat="44.78637" lon="6.28226">
        <ele>2480.4</ele>
        <time>2024-08-12T13:28:35Z</time>
      </trkpt>
      <trkpt lat="44.78639" lon="6.28226">
        <ele>2480.6</ele>
        <time>2024-08-12T13:28:36Z</time>
      </trkpt>
      <trkpt lat="44.78639" lon="6.28226">
        <ele>2480.6</ele>
        <time>2024-08-12T13:28:37Z</time>
      </trkpt>
      <trkpt lat="44.78639" lon="6.28226">
        <ele>2480.8</ele>
        <time>2024-08-12T13:28:38Z</time>
      </trkpt>
      <trkpt lat="44.78641" lon="6.28225">
        <ele>2481</ele>
        <time>2024-08-12T13:28:39Z</time>
      </trkpt>
      <trkpt lat="44.78641" lon="6.28225">
        <ele>2481.2</ele>
        <time>2024-08-12T13:28:40Z</time>
      </trkpt>
      <trkpt lat="44.78641" lon="6.28225">
        <ele>2481.4</ele>
        <time>2024-08-12T13:28:41Z</time>
      </trkpt>
      <trkpt lat="44.78644" lon="6.28225">
        <ele>2481.8</ele>
        <time>2024-08-12T13:28:42Z</time>
      </trkpt>
      <trkpt lat="44.78644" lon="6.28225">
        <ele>2482</ele>
        <time>2024-08-12T13:28:43Z</time>
      </trkpt>
      <trkpt lat="44.78644" lon="6.28225">
        <ele>2482</ele>
        <time>2024-08-12T13:28:44Z</time>
      </trkpt>
      <trkpt lat="44.78646" lon="6.28224">
        <ele>2482</ele>
        <time>2024-08-12T13:28:45Z</time>
      </trkpt>
      <trkpt lat="44.78646" lon="6.28224">
        <ele>2482.2</ele>
        <time>2024-08-12T13:28:46Z</time>
      </trkpt>
      <trkpt lat="44.78648" lon="6.28224">
        <ele>2482.4</ele>
        <time>2024-08-12T13:28:47Z</time>
      </trkpt>
      <trkpt lat="44.78648" lon="6.28224">
        <ele>2482.4</ele>
        <time>2024-08-12T13:28:48Z</time>
      </trkpt>
      <trkpt lat="44.78648" lon="6.28224">
        <ele>2482.4</ele>
        <time>2024-08-12T13:28:49Z</time>
      </trkpt>
      <trkpt lat="44.78651" lon="6.28223">
        <ele>2482.6</ele>
        <time>2024-08-12T13:28:50Z</time>
      </trkpt>
      <trkpt lat="44.78651" lon="6.28223">
        <ele>2482.8</ele>
        <time>2024-08-12T13:28:51Z</time>
      </trkpt>
      <trkpt lat="44.78651" lon="6.28223">
        <ele>2482.8</ele>
        <time>2024-08-12T13:28:52Z</time>
      </trkpt>
      <trkpt lat="44.78651" lon="6.28223">
        <ele>2483.2</ele>
        <time>2024-08-12T13:28:53Z</time>
      </trkpt>
      <trkpt lat="44.78654" lon="6.28224">
        <ele>2483.2</ele>
        <time>2024-08-12T13:28:54Z</time>
      </trkpt>
      <trkpt lat="44.78654" lon="6.28224">
        <ele>2483.4</ele>
        <time>2024-08-12T13:28:55Z</time>
      </trkpt>
      <trkpt lat="44.78656" lon="6.28224">
        <ele>2483.6</ele>
        <time>2024-08-12T13:28:56Z</time>
      </trkpt>
      <trkpt lat="44.78656" lon="6.28224">
        <ele>2484.2</ele>
        <time>2024-08-12T13:28:57Z</time>
      </trkpt>
      <trkpt lat="44.78656" lon="6.28224">
        <ele>2484.4</ele>
        <time>2024-08-12T13:28:58Z</time>
      </trkpt>
      <trkpt lat="44.78658" lon="6.28224">
        <ele>2484.6</ele>
        <time>2024-08-12T13:28:59Z</time>
      </trkpt>
      <trkpt lat="44.78658" lon="6.28224">
        <ele>2484.6</ele>
        <time>2024-08-12T13:29:00Z</time>
      </trkpt>
      <trkpt lat="44.78659" lon="6.28222">
        <ele>2484.6</ele>
        <time>2024-08-12T13:29:01Z</time>
      </trkpt>
      <trkpt lat="44.78659" lon="6.28222">
        <ele>2484.4</ele>
        <time>2024-08-12T13:29:02Z</time>
      </trkpt>
      <trkpt lat="44.78659" lon="6.28222">
        <ele>2484.4</ele>
        <time>2024-08-12T13:29:03Z</time>
      </trkpt>
      <trkpt lat="44.78659" lon="6.28222">
        <ele>2484.6</ele>
        <time>2024-08-12T13:29:04Z</time>
      </trkpt>
      <trkpt lat="44.78659" lon="6.28219">
        <ele>2484.6</ele>
        <time>2024-08-12T13:29:05Z</time>
      </trkpt>
      <trkpt lat="44.78659" lon="6.28219">
        <ele>2484.8</ele>
        <time>2024-08-12T13:29:06Z</time>
      </trkpt>
      <trkpt lat="44.78659" lon="6.28219">
        <ele>2485</ele>
        <time>2024-08-12T13:29:07Z</time>
      </trkpt>
      <trkpt lat="44.78658" lon="6.28216">
        <ele>2485.2</ele>
        <time>2024-08-12T13:29:08Z</time>
      </trkpt>
      <trkpt lat="44.78658" lon="6.28216">
        <ele>2485.4</ele>
        <time>2024-08-12T13:29:09Z</time>
      </trkpt>
      <trkpt lat="44.78657" lon="6.28214">
        <ele>2485.4</ele>
        <time>2024-08-12T13:29:10Z</time>
      </trkpt>
      <trkpt lat="44.78657" lon="6.28214">
        <ele>2485.4</ele>
        <time>2024-08-12T13:29:11Z</time>
      </trkpt>
      <trkpt lat="44.78656" lon="6.28212">
        <ele>2485.6</ele>
        <time>2024-08-12T13:29:12Z</time>
      </trkpt>
      <trkpt lat="44.78656" lon="6.28212">
        <ele>2485.6</ele>
        <time>2024-08-12T13:29:13Z</time>
      </trkpt>
      <trkpt lat="44.78654" lon="6.2821">
        <ele>2485.6</ele>
        <time>2024-08-12T13:29:14Z</time>
      </trkpt>
      <trkpt lat="44.78654" lon="6.2821">
        <ele>2485.8</ele>
        <time>2024-08-12T13:29:15Z</time>
      </trkpt>
      <trkpt lat="44.78654" lon="6.2821">
        <ele>2486</ele>
        <time>2024-08-12T13:29:16Z</time>
      </trkpt>
      <trkpt lat="44.78653" lon="6.28207">
        <ele>2486.2</ele>
        <time>2024-08-12T13:29:17Z</time>
      </trkpt>
      <trkpt lat="44.78653" lon="6.28207">
        <ele>2486.4</ele>
        <time>2024-08-12T13:29:18Z</time>
      </trkpt>
      <trkpt lat="44.78654" lon="6.28204">
        <ele>2486.6</ele>
        <time>2024-08-12T13:29:19Z</time>
      </trkpt>
      <trkpt lat="44.78654" lon="6.28204">
        <ele>2486.6</ele>
        <time>2024-08-12T13:29:20Z</time>
      </trkpt>
      <trkpt lat="44.78655" lon="6.28202">
        <ele>2486.6</ele>
        <time>2024-08-12T13:29:21Z</time>
      </trkpt>
      <trkpt lat="44.78655" lon="6.28202">
        <ele>2486.4</ele>
        <time>2024-08-12T13:29:22Z</time>
      </trkpt>
      <trkpt lat="44.78657" lon="6.282">
        <ele>2486.4</ele>
        <time>2024-08-12T13:29:23Z</time>
      </trkpt>
      <trkpt lat="44.78657" lon="6.282">
        <ele>2486.4</ele>
        <time>2024-08-12T13:29:24Z</time>
      </trkpt>
      <trkpt lat="44.78659" lon="6.28198">
        <ele>2487</ele>
        <time>2024-08-12T13:29:25Z</time>
      </trkpt>
      <trkpt lat="44.78659" lon="6.28198">
        <ele>2487.4</ele>
        <time>2024-08-12T13:29:26Z</time>
      </trkpt>
      <trkpt lat="44.78661" lon="6.28197">
        <ele>2488</ele>
        <time>2024-08-12T13:29:27Z</time>
      </trkpt>
      <trkpt lat="44.78661" lon="6.28197">
        <ele>2488.2</ele>
        <time>2024-08-12T13:29:28Z</time>
      </trkpt>
      <trkpt lat="44.78661" lon="6.28197">
        <ele>2488.6</ele>
        <time>2024-08-12T13:29:29Z</time>
      </trkpt>
      <trkpt lat="44.78664" lon="6.28195">
        <ele>2488.6</ele>
        <time>2024-08-12T13:29:30Z</time>
      </trkpt>
      <trkpt lat="44.78664" lon="6.28195">
        <ele>2488.6</ele>
        <time>2024-08-12T13:29:31Z</time>
      </trkpt>
      <trkpt lat="44.78664" lon="6.28195">
        <ele>2488.6</ele>
        <time>2024-08-12T13:29:32Z</time>
      </trkpt>
      <trkpt lat="44.78664" lon="6.28192">
        <ele>2488.2</ele>
        <time>2024-08-12T13:29:33Z</time>
      </trkpt>
      <trkpt lat="44.78664" lon="6.28192">
        <ele>2488.2</ele>
        <time>2024-08-12T13:29:34Z</time>
      </trkpt>
      <trkpt lat="44.78666" lon="6.28189">
        <ele>2488.2</ele>
        <time>2024-08-12T13:29:35Z</time>
      </trkpt>
      <trkpt lat="44.78666" lon="6.28189">
        <ele>2488</ele>
        <time>2024-08-12T13:29:36Z</time>
      </trkpt>
      <trkpt lat="44.78666" lon="6.28189">
        <ele>2488</ele>
        <time>2024-08-12T13:29:37Z</time>
      </trkpt>
      <trkpt lat="44.78666" lon="6.28187">
        <ele>2488</ele>
        <time>2024-08-12T13:29:38Z</time>
      </trkpt>
      <trkpt lat="44.78666" lon="6.28187">
        <ele>2488.2</ele>
        <time>2024-08-12T13:29:39Z</time>
      </trkpt>
      <trkpt lat="44.78666" lon="6.28187">
        <ele>2488.2</ele>
        <time>2024-08-12T13:29:40Z</time>
      </trkpt>
      <trkpt lat="44.78666" lon="6.28187">
        <ele>2488.4</ele>
        <time>2024-08-12T13:29:41Z</time>
      </trkpt>
      <trkpt lat="44.78666" lon="6.28187">
        <ele>2488.6</ele>
        <time>2024-08-12T13:29:42Z</time>
      </trkpt>
      <trkpt lat="44.78665" lon="6.28184">
        <ele>2488.8</ele>
        <time>2024-08-12T13:29:43Z</time>
      </trkpt>
      <trkpt lat="44.78665" lon="6.28184">
        <ele>2489.2</ele>
        <time>2024-08-12T13:29:44Z</time>
      </trkpt>
      <trkpt lat="44.78665" lon="6.28184">
        <ele>2489.2</ele>
        <time>2024-08-12T13:29:45Z</time>
      </trkpt>
      <trkpt lat="44.78665" lon="6.28184">
        <ele>2489.4</ele>
        <time>2024-08-12T13:29:46Z</time>
      </trkpt>
      <trkpt lat="44.78665" lon="6.28184">
        <ele>2489.4</ele>
        <time>2024-08-12T13:29:47Z</time>
      </trkpt>
      <trkpt lat="44.78663" lon="6.28182">
        <ele>2490</ele>
        <time>2024-08-12T13:29:48Z</time>
      </trkpt>
      <trkpt lat="44.78663" lon="6.28182">
        <ele>2490</ele>
        <time>2024-08-12T13:29:49Z</time>
      </trkpt>
      <trkpt lat="44.78663" lon="6.28182">
        <ele>2490</ele>
        <time>2024-08-12T13:29:50Z</time>
      </trkpt>
      <trkpt lat="44.78663" lon="6.28182">
        <ele>2490</ele>
        <time>2024-08-12T13:29:51Z</time>
      </trkpt>
      <trkpt lat="44.78661" lon="6.2818">
        <ele>2490.2</ele>
        <time>2024-08-12T13:29:52Z</time>
      </trkpt>
      <trkpt lat="44.78661" lon="6.2818">
        <ele>2490.2</ele>
        <time>2024-08-12T13:29:53Z</time>
      </trkpt>
      <trkpt lat="44.78661" lon="6.2818">
        <ele>2490.6</ele>
        <time>2024-08-12T13:29:54Z</time>
      </trkpt>
      <trkpt lat="44.7866" lon="6.28178">
        <ele>2490.8</ele>
        <time>2024-08-12T13:29:55Z</time>
      </trkpt>
      <trkpt lat="44.7866" lon="6.28178">
        <ele>2490.8</ele>
        <time>2024-08-12T13:29:56Z</time>
      </trkpt>
      <trkpt lat="44.7866" lon="6.28178">
        <ele>2491</ele>
        <time>2024-08-12T13:29:57Z</time>
      </trkpt>
      <trkpt lat="44.7866" lon="6.28178">
        <ele>2491.4</ele>
        <time>2024-08-12T13:29:58Z</time>
      </trkpt>
      <trkpt lat="44.78658" lon="6.28176">
        <ele>2491.8</ele>
        <time>2024-08-12T13:29:59Z</time>
      </trkpt>
      <trkpt lat="44.78658" lon="6.28176">
        <ele>2491.8</ele>
        <time>2024-08-12T13:30:00Z</time>
      </trkpt>
      <trkpt lat="44.78657" lon="6.28174">
        <ele>2492</ele>
        <time>2024-08-12T13:30:01Z</time>
      </trkpt>
      <trkpt lat="44.78657" lon="6.28174">
        <ele>2492</ele>
        <time>2024-08-12T13:30:02Z</time>
      </trkpt>
      <trkpt lat="44.78657" lon="6.28171">
        <ele>2492</ele>
        <time>2024-08-12T13:30:03Z</time>
      </trkpt>
      <trkpt lat="44.78657" lon="6.28171">
        <ele>2492.2</ele>
        <time>2024-08-12T13:30:04Z</time>
      </trkpt>
      <trkpt lat="44.78656" lon="6.28168">
        <ele>2492.8</ele>
        <time>2024-08-12T13:30:05Z</time>
      </trkpt>
      <trkpt lat="44.78656" lon="6.28168">
        <ele>2492.8</ele>
        <time>2024-08-12T13:30:06Z</time>
      </trkpt>
      <trkpt lat="44.78656" lon="6.28166">
        <ele>2491.2</ele>
        <time>2024-08-12T13:30:07Z</time>
      </trkpt>
      <trkpt lat="44.78656" lon="6.28166">
        <ele>2491.2</ele>
        <time>2024-08-12T13:30:08Z</time>
      </trkpt>
      <trkpt lat="44.78656" lon="6.28166">
        <ele>2492.2</ele>
        <time>2024-08-12T13:30:09Z</time>
      </trkpt>
      <trkpt lat="44.78656" lon="6.28162">
        <ele>2493.2</ele>
        <time>2024-08-12T13:30:10Z</time>
      </trkpt>
      <trkpt lat="44.78656" lon="6.28162">
        <ele>2493.4</ele>
        <time>2024-08-12T13:30:11Z</time>
      </trkpt>
      <trkpt lat="44.78657" lon="6.28159">
        <ele>2493.4</ele>
        <time>2024-08-12T13:30:12Z</time>
      </trkpt>
      <trkpt lat="44.78657" lon="6.28159">
        <ele>2493.4</ele>
        <time>2024-08-12T13:30:13Z</time>
      </trkpt>
      <trkpt lat="44.78657" lon="6.28156">
        <ele>2493.6</ele>
        <time>2024-08-12T13:30:14Z</time>
      </trkpt>
      <trkpt lat="44.78657" lon="6.28156">
        <ele>2493.6</ele>
        <time>2024-08-12T13:30:15Z</time>
      </trkpt>
      <trkpt lat="44.78658" lon="6.28153">
        <ele>2494.2</ele>
        <time>2024-08-12T13:30:16Z</time>
      </trkpt>
      <trkpt lat="44.78658" lon="6.28153">
        <ele>2494.4</ele>
        <time>2024-08-12T13:30:17Z</time>
      </trkpt>
      <trkpt lat="44.78658" lon="6.28153">
        <ele>2494.4</ele>
        <time>2024-08-12T13:30:18Z</time>
      </trkpt>
      <trkpt lat="44.78659" lon="6.28151">
        <ele>2494.4</ele>
        <time>2024-08-12T13:30:19Z</time>
      </trkpt>
      <trkpt lat="44.78659" lon="6.28151">
        <ele>2494.4</ele>
        <time>2024-08-12T13:30:20Z</time>
      </trkpt>
      <trkpt lat="44.7866" lon="6.28148">
        <ele>2494.2</ele>
        <time>2024-08-12T13:30:21Z</time>
      </trkpt>
      <trkpt lat="44.7866" lon="6.28148">
        <ele>2494.2</ele>
        <time>2024-08-12T13:30:22Z</time>
      </trkpt>
      <trkpt lat="44.78662" lon="6.28146">
        <ele>2494.2</ele>
        <time>2024-08-12T13:30:23Z</time>
      </trkpt>
      <trkpt lat="44.78662" lon="6.28146">
        <ele>2494.6</ele>
        <time>2024-08-12T13:30:24Z</time>
      </trkpt>
      <trkpt lat="44.78664" lon="6.28145">
        <ele>2494.6</ele>
        <time>2024-08-12T13:30:25Z</time>
      </trkpt>
      <trkpt lat="44.78664" lon="6.28145">
        <ele>2494.8</ele>
        <time>2024-08-12T13:30:26Z</time>
      </trkpt>
      <trkpt lat="44.78666" lon="6.28145">
        <ele>2495.4</ele>
        <time>2024-08-12T13:30:27Z</time>
      </trkpt>
      <trkpt lat="44.78666" lon="6.28145">
        <ele>2495.4</ele>
        <time>2024-08-12T13:30:28Z</time>
      </trkpt>
      <trkpt lat="44.78668" lon="6.28143">
        <ele>2495.2</ele>
        <time>2024-08-12T13:30:29Z</time>
      </trkpt>
      <trkpt lat="44.78668" lon="6.28143">
        <ele>2495.2</ele>
        <time>2024-08-12T13:30:30Z</time>
      </trkpt>
      <trkpt lat="44.78668" lon="6.28143">
        <ele>2495.6</ele>
        <time>2024-08-12T13:30:31Z</time>
      </trkpt>
      <trkpt lat="44.7867" lon="6.28142">
        <ele>2495.6</ele>
        <time>2024-08-12T13:30:32Z</time>
      </trkpt>
      <trkpt lat="44.7867" lon="6.28142">
        <ele>2495.6</ele>
        <time>2024-08-12T13:30:33Z</time>
      </trkpt>
      <trkpt lat="44.78671" lon="6.2814">
        <ele>2495.8</ele>
        <time>2024-08-12T13:30:34Z</time>
      </trkpt>
      <trkpt lat="44.78671" lon="6.2814">
        <ele>2496</ele>
        <time>2024-08-12T13:30:35Z</time>
      </trkpt>
      <trkpt lat="44.78673" lon="6.28137">
        <ele>2496</ele>
        <time>2024-08-12T13:30:36Z</time>
      </trkpt>
      <trkpt lat="44.78673" lon="6.28137">
        <ele>2495.8</ele>
        <time>2024-08-12T13:30:37Z</time>
      </trkpt>
      <trkpt lat="44.78674" lon="6.28136">
        <ele>2495.8</ele>
        <time>2024-08-12T13:30:38Z</time>
      </trkpt>
      <trkpt lat="44.78674" lon="6.28136">
        <ele>2496</ele>
        <time>2024-08-12T13:30:39Z</time>
      </trkpt>
      <trkpt lat="44.78674" lon="6.28136">
        <ele>2496.2</ele>
        <time>2024-08-12T13:30:40Z</time>
      </trkpt>
      <trkpt lat="44.78676" lon="6.28134">
        <ele>2496.2</ele>
        <time>2024-08-12T13:30:41Z</time>
      </trkpt>
      <trkpt lat="44.78676" lon="6.28134">
        <ele>2496.4</ele>
        <time>2024-08-12T13:30:42Z</time>
      </trkpt>
      <trkpt lat="44.78678" lon="6.28133">
        <ele>2496.8</ele>
        <time>2024-08-12T13:30:43Z</time>
      </trkpt>
      <trkpt lat="44.78678" lon="6.28133">
        <ele>2497</ele>
        <time>2024-08-12T13:30:44Z</time>
      </trkpt>
      <trkpt lat="44.78678" lon="6.28133">
        <ele>2497.2</ele>
        <time>2024-08-12T13:30:45Z</time>
      </trkpt>
      <trkpt lat="44.7868" lon="6.28131">
        <ele>2497.2</ele>
        <time>2024-08-12T13:30:46Z</time>
      </trkpt>
      <trkpt lat="44.7868" lon="6.28131">
        <ele>2497.2</ele>
        <time>2024-08-12T13:30:47Z</time>
      </trkpt>
      <trkpt lat="44.7868" lon="6.28131">
        <ele>2497.4</ele>
        <time>2024-08-12T13:30:48Z</time>
      </trkpt>
      <trkpt lat="44.78682" lon="6.28129">
        <ele>2497.6</ele>
        <time>2024-08-12T13:30:49Z</time>
      </trkpt>
      <trkpt lat="44.78682" lon="6.28129">
        <ele>2497.6</ele>
        <time>2024-08-12T13:30:50Z</time>
      </trkpt>
      <trkpt lat="44.78684" lon="6.28128">
        <ele>2498</ele>
        <time>2024-08-12T13:30:51Z</time>
      </trkpt>
      <trkpt lat="44.78684" lon="6.28128">
        <ele>2498</ele>
        <time>2024-08-12T13:30:52Z</time>
      </trkpt>
      <trkpt lat="44.78684" lon="6.28128">
        <ele>2498</ele>
        <time>2024-08-12T13:30:53Z</time>
      </trkpt>
      <trkpt lat="44.78685" lon="6.28126">
        <ele>2498</ele>
        <time>2024-08-12T13:30:54Z</time>
      </trkpt>
      <trkpt lat="44.78685" lon="6.28126">
        <ele>2498.2</ele>
        <time>2024-08-12T13:30:55Z</time>
      </trkpt>
      <trkpt lat="44.78685" lon="6.28126">
        <ele>2498.4</ele>
        <time>2024-08-12T13:30:56Z</time>
      </trkpt>
      <trkpt lat="44.78687" lon="6.28125">
        <ele>2498.6</ele>
        <time>2024-08-12T13:30:57Z</time>
      </trkpt>
      <trkpt lat="44.78687" lon="6.28125">
        <ele>2498.8</ele>
        <time>2024-08-12T13:30:58Z</time>
      </trkpt>
      <trkpt lat="44.78687" lon="6.28125">
        <ele>2499.2</ele>
        <time>2024-08-12T13:30:59Z</time>
      </trkpt>
      <trkpt lat="44.7869" lon="6.28124">
        <ele>2499.4</ele>
        <time>2024-08-12T13:31:00Z</time>
      </trkpt>
      <trkpt lat="44.7869" lon="6.28124">
        <ele>2499.6</ele>
        <time>2024-08-12T13:31:01Z</time>
      </trkpt>
      <trkpt lat="44.78692" lon="6.28124">
        <ele>2499.8</ele>
        <time>2024-08-12T13:31:02Z</time>
      </trkpt>
      <trkpt lat="44.78692" lon="6.28124">
        <ele>2499.8</ele>
        <time>2024-08-12T13:31:03Z</time>
      </trkpt>
      <trkpt lat="44.78694" lon="6.28124">
        <ele>2499.8</ele>
        <time>2024-08-12T13:31:04Z</time>
      </trkpt>
      <trkpt lat="44.78694" lon="6.28124">
        <ele>2499.8</ele>
        <time>2024-08-12T13:31:05Z</time>
      </trkpt>
      <trkpt lat="44.78694" lon="6.28124">
        <ele>2499.8</ele>
        <time>2024-08-12T13:31:06Z</time>
      </trkpt>
      <trkpt lat="44.78694" lon="6.28124">
        <ele>2500.4</ele>
        <time>2024-08-12T13:31:07Z</time>
      </trkpt>
      <trkpt lat="44.78696" lon="6.28124">
        <ele>2500.4</ele>
        <time>2024-08-12T13:31:08Z</time>
      </trkpt>
      <trkpt lat="44.78696" lon="6.28124">
        <ele>2500.4</ele>
        <time>2024-08-12T13:31:09Z</time>
      </trkpt>
      <trkpt lat="44.78696" lon="6.28124">
        <ele>2500.4</ele>
        <time>2024-08-12T13:31:10Z</time>
      </trkpt>
      <trkpt lat="44.78698" lon="6.28123">
        <ele>2500.8</ele>
        <time>2024-08-12T13:31:11Z</time>
      </trkpt>
      <trkpt lat="44.78698" lon="6.28123">
        <ele>2500.8</ele>
        <time>2024-08-12T13:31:12Z</time>
      </trkpt>
      <trkpt lat="44.78701" lon="6.28122">
        <ele>2500.8</ele>
        <time>2024-08-12T13:31:13Z</time>
      </trkpt>
      <trkpt lat="44.78701" lon="6.28122">
        <ele>2501</ele>
        <time>2024-08-12T13:31:14Z</time>
      </trkpt>
      <trkpt lat="44.78702" lon="6.28121">
        <ele>2501.4</ele>
        <time>2024-08-12T13:31:15Z</time>
      </trkpt>
      <trkpt lat="44.78702" lon="6.28121">
        <ele>2501.8</ele>
        <time>2024-08-12T13:31:16Z</time>
      </trkpt>
      <trkpt lat="44.78702" lon="6.28121">
        <ele>2501.8</ele>
        <time>2024-08-12T13:31:17Z</time>
      </trkpt>
      <trkpt lat="44.78704" lon="6.2812">
        <ele>2502.2</ele>
        <time>2024-08-12T13:31:18Z</time>
      </trkpt>
      <trkpt lat="44.78704" lon="6.2812">
        <ele>2502.6</ele>
        <time>2024-08-12T13:31:19Z</time>
      </trkpt>
      <trkpt lat="44.78704" lon="6.2812">
        <ele>2502.6</ele>
        <time>2024-08-12T13:31:20Z</time>
      </trkpt>
      <trkpt lat="44.78706" lon="6.2812">
        <ele>2502.8</ele>
        <time>2024-08-12T13:31:21Z</time>
      </trkpt>
      <trkpt lat="44.78706" lon="6.2812">
        <ele>2503</ele>
        <time>2024-08-12T13:31:22Z</time>
      </trkpt>
      <trkpt lat="44.78706" lon="6.2812">
        <ele>2503</ele>
        <time>2024-08-12T13:31:23Z</time>
      </trkpt>
      <trkpt lat="44.78708" lon="6.28122">
        <ele>2503.6</ele>
        <time>2024-08-12T13:31:24Z</time>
      </trkpt>
      <trkpt lat="44.78708" lon="6.28122">
        <ele>2504</ele>
        <time>2024-08-12T13:31:25Z</time>
      </trkpt>
      <trkpt lat="44.78709" lon="6.28124">
        <ele>2504</ele>
        <time>2024-08-12T13:31:26Z</time>
      </trkpt>
      <trkpt lat="44.78709" lon="6.28124">
        <ele>2504.4</ele>
        <time>2024-08-12T13:31:27Z</time>
      </trkpt>
      <trkpt lat="44.78711" lon="6.28126">
        <ele>2504.4</ele>
        <time>2024-08-12T13:31:28Z</time>
      </trkpt>
      <trkpt lat="44.78711" lon="6.28126">
        <ele>2504.2</ele>
        <time>2024-08-12T13:31:29Z</time>
      </trkpt>
      <trkpt lat="44.78713" lon="6.28127">
        <ele>2504.2</ele>
        <time>2024-08-12T13:31:30Z</time>
      </trkpt>
      <trkpt lat="44.78713" lon="6.28127">
        <ele>2504.6</ele>
        <time>2024-08-12T13:31:31Z</time>
      </trkpt>
      <trkpt lat="44.78715" lon="6.28129">
        <ele>2504.6</ele>
        <time>2024-08-12T13:31:32Z</time>
      </trkpt>
      <trkpt lat="44.78715" lon="6.28129">
        <ele>2504.6</ele>
        <time>2024-08-12T13:31:33Z</time>
      </trkpt>
      <trkpt lat="44.78718" lon="6.2813">
        <ele>2504.4</ele>
        <time>2024-08-12T13:31:34Z</time>
      </trkpt>
      <trkpt lat="44.78718" lon="6.2813">
        <ele>2504.2</ele>
        <time>2024-08-12T13:31:35Z</time>
      </trkpt>
      <trkpt lat="44.7872" lon="6.2813">
        <ele>2504.2</ele>
        <time>2024-08-12T13:31:36Z</time>
      </trkpt>
      <trkpt lat="44.7872" lon="6.2813">
        <ele>2504.2</ele>
        <time>2024-08-12T13:31:37Z</time>
      </trkpt>
      <trkpt lat="44.78722" lon="6.28129">
        <ele>2504.2</ele>
        <time>2024-08-12T13:31:38Z</time>
      </trkpt>
      <trkpt lat="44.78722" lon="6.28129">
        <ele>2504.2</ele>
        <time>2024-08-12T13:31:39Z</time>
      </trkpt>
      <trkpt lat="44.78722" lon="6.28125">
        <ele>2504.2</ele>
        <time>2024-08-12T13:31:40Z</time>
      </trkpt>
      <trkpt lat="44.78722" lon="6.28125">
        <ele>2504.2</ele>
        <time>2024-08-12T13:31:41Z</time>
      </trkpt>
      <trkpt lat="44.78721" lon="6.28122">
        <ele>2504.2</ele>
        <time>2024-08-12T13:31:42Z</time>
      </trkpt>
      <trkpt lat="44.78721" lon="6.28122">
        <ele>2504.2</ele>
        <time>2024-08-12T13:31:43Z</time>
      </trkpt>
      <trkpt lat="44.78721" lon="6.28119">
        <ele>2504</ele>
        <time>2024-08-12T13:31:44Z</time>
      </trkpt>
      <trkpt lat="44.78721" lon="6.28119">
        <ele>2503.8</ele>
        <time>2024-08-12T13:31:45Z</time>
      </trkpt>
      <trkpt lat="44.78722" lon="6.28116">
        <ele>2503.8</ele>
        <time>2024-08-12T13:31:46Z</time>
      </trkpt>
      <trkpt lat="44.78722" lon="6.28116">
        <ele>2503.8</ele>
        <time>2024-08-12T13:31:47Z</time>
      </trkpt>
      <trkpt lat="44.78723" lon="6.28113">
        <ele>2504.4</ele>
        <time>2024-08-12T13:31:48Z</time>
      </trkpt>
      <trkpt lat="44.78723" lon="6.28113">
        <ele>2504.6</ele>
        <time>2024-08-12T13:31:49Z</time>
      </trkpt>
      <trkpt lat="44.78725" lon="6.28111">
        <ele>2505</ele>
        <time>2024-08-12T13:31:50Z</time>
      </trkpt>
      <trkpt lat="44.78725" lon="6.28111">
        <ele>2505.4</ele>
        <time>2024-08-12T13:31:51Z</time>
      </trkpt>
      <trkpt lat="44.78726" lon="6.28109">
        <ele>2505.8</ele>
        <time>2024-08-12T13:31:52Z</time>
      </trkpt>
      <trkpt lat="44.78726" lon="6.28109">
        <ele>2506</ele>
        <time>2024-08-12T13:31:53Z</time>
      </trkpt>
      <trkpt lat="44.78728" lon="6.28107">
        <ele>2506.6</ele>
        <time>2024-08-12T13:31:54Z</time>
      </trkpt>
      <trkpt lat="44.78728" lon="6.28107">
        <ele>2506.8</ele>
        <time>2024-08-12T13:31:55Z</time>
      </trkpt>
      <trkpt lat="44.78728" lon="6.28107">
        <ele>2506.8</ele>
        <time>2024-08-12T13:31:56Z</time>
      </trkpt>
      <trkpt lat="44.7873" lon="6.28106">
        <ele>2506.6</ele>
        <time>2024-08-12T13:31:57Z</time>
      </trkpt>
      <trkpt lat="44.7873" lon="6.28106">
        <ele>2506.6</ele>
        <time>2024-08-12T13:31:58Z</time>
      </trkpt>
      <trkpt lat="44.7873" lon="6.28106">
        <ele>2506.6</ele>
        <time>2024-08-12T13:31:59Z</time>
      </trkpt>
      <trkpt lat="44.78732" lon="6.28103">
        <ele>2506.6</ele>
        <time>2024-08-12T13:32:00Z</time>
      </trkpt>
      <trkpt lat="44.78732" lon="6.28103">
        <ele>2506.8</ele>
        <time>2024-08-12T13:32:01Z</time>
      </trkpt>
      <trkpt lat="44.78732" lon="6.28103">
        <ele>2506.8</ele>
        <time>2024-08-12T13:32:02Z</time>
      </trkpt>
      <trkpt lat="44.78732" lon="6.281">
        <ele>2506.8</ele>
        <time>2024-08-12T13:32:03Z</time>
      </trkpt>
      <trkpt lat="44.78732" lon="6.281">
        <ele>2506.8</ele>
        <time>2024-08-12T13:32:04Z</time>
      </trkpt>
      <trkpt lat="44.78732" lon="6.281">
        <ele>2506.8</ele>
        <time>2024-08-12T13:32:05Z</time>
      </trkpt>
      <trkpt lat="44.78732" lon="6.281">
        <ele>2506.8</ele>
        <time>2024-08-12T13:32:06Z</time>
      </trkpt>
      <trkpt lat="44.78732" lon="6.281">
        <ele>2506.2</ele>
        <time>2024-08-12T13:32:07Z</time>
      </trkpt>
      <trkpt lat="44.78732" lon="6.281">
        <ele>2505.6</ele>
        <time>2024-08-12T13:32:08Z</time>
      </trkpt>
      <trkpt lat="44.78732" lon="6.281">
        <ele>2505.6</ele>
        <time>2024-08-12T13:32:09Z</time>
      </trkpt>
      <trkpt lat="44.78731" lon="6.28098">
        <ele>2506.4</ele>
        <time>2024-08-12T13:32:10Z</time>
      </trkpt>
      <trkpt lat="44.78731" lon="6.28098">
        <ele>2506.4</ele>
        <time>2024-08-12T13:32:11Z</time>
      </trkpt>
      <trkpt lat="44.78731" lon="6.28098">
        <ele>2506.4</ele>
        <time>2024-08-12T13:32:12Z</time>
      </trkpt>
      <trkpt lat="44.7873" lon="6.28096">
        <ele>2506.6</ele>
        <time>2024-08-12T13:32:13Z</time>
      </trkpt>
      <trkpt lat="44.7873" lon="6.28096">
        <ele>2507</ele>
        <time>2024-08-12T13:32:14Z</time>
      </trkpt>
      <trkpt lat="44.7873" lon="6.28096">
        <ele>2507.2</ele>
        <time>2024-08-12T13:32:15Z</time>
      </trkpt>
      <trkpt lat="44.78729" lon="6.28092">
        <ele>2507.4</ele>
        <time>2024-08-12T13:32:16Z</time>
      </trkpt>
      <trkpt lat="44.78729" lon="6.28092">
        <ele>2507.6</ele>
        <time>2024-08-12T13:32:17Z</time>
      </trkpt>
      <trkpt lat="44.78729" lon="6.28092">
        <ele>2507.6</ele>
        <time>2024-08-12T13:32:18Z</time>
      </trkpt>
      <trkpt lat="44.78729" lon="6.28092">
        <ele>2507.8</ele>
        <time>2024-08-12T13:32:19Z</time>
      </trkpt>
      <trkpt lat="44.78729" lon="6.28092">
        <ele>2508</ele>
        <time>2024-08-12T13:32:20Z</time>
      </trkpt>
      <trkpt lat="44.78729" lon="6.28092">
        <ele>2508</ele>
        <time>2024-08-12T13:32:21Z</time>
      </trkpt>
      <trkpt lat="44.78728" lon="6.28089">
        <ele>2508</ele>
        <time>2024-08-12T13:32:22Z</time>
      </trkpt>
      <trkpt lat="44.78728" lon="6.28089">
        <ele>2508.2</ele>
        <time>2024-08-12T13:32:23Z</time>
      </trkpt>
      <trkpt lat="44.78727" lon="6.28087">
        <ele>2508.4</ele>
        <time>2024-08-12T13:32:24Z</time>
      </trkpt>
      <trkpt lat="44.78727" lon="6.28087">
        <ele>2508.6</ele>
        <time>2024-08-12T13:32:25Z</time>
      </trkpt>
      <trkpt lat="44.78726" lon="6.28084">
        <ele>2509.2</ele>
        <time>2024-08-12T13:32:26Z</time>
      </trkpt>
      <trkpt lat="44.78726" lon="6.28084">
        <ele>2509.2</ele>
        <time>2024-08-12T13:32:27Z</time>
      </trkpt>
      <trkpt lat="44.78725" lon="6.2808">
        <ele>2509.2</ele>
        <time>2024-08-12T13:32:28Z</time>
      </trkpt>
      <trkpt lat="44.78725" lon="6.2808">
        <ele>2509.2</ele>
        <time>2024-08-12T13:32:29Z</time>
      </trkpt>
      <trkpt lat="44.78724" lon="6.28078">
        <ele>2509.2</ele>
        <time>2024-08-12T13:32:30Z</time>
      </trkpt>
      <trkpt lat="44.78724" lon="6.28078">
        <ele>2509</ele>
        <time>2024-08-12T13:32:31Z</time>
      </trkpt>
      <trkpt lat="44.78724" lon="6.28078">
        <ele>2509.6</ele>
        <time>2024-08-12T13:32:32Z</time>
      </trkpt>
      <trkpt lat="44.78725" lon="6.28075">
        <ele>2509.6</ele>
        <time>2024-08-12T13:32:33Z</time>
      </trkpt>
      <trkpt lat="44.78725" lon="6.28075">
        <ele>2510.6</ele>
        <time>2024-08-12T13:32:34Z</time>
      </trkpt>
      <trkpt lat="44.78725" lon="6.28075">
        <ele>2511</ele>
        <time>2024-08-12T13:32:35Z</time>
      </trkpt>
      <trkpt lat="44.78725" lon="6.28072">
        <ele>2511</ele>
        <time>2024-08-12T13:32:36Z</time>
      </trkpt>
      <trkpt lat="44.78725" lon="6.28072">
        <ele>2510.8</ele>
        <time>2024-08-12T13:32:37Z</time>
      </trkpt>
      <trkpt lat="44.78725" lon="6.28069">
        <ele>2510.8</ele>
        <time>2024-08-12T13:32:38Z</time>
      </trkpt>
      <trkpt lat="44.78725" lon="6.28069">
        <ele>2511</ele>
        <time>2024-08-12T13:32:39Z</time>
      </trkpt>
      <trkpt lat="44.78725" lon="6.28066">
        <ele>2511.4</ele>
        <time>2024-08-12T13:32:40Z</time>
      </trkpt>
      <trkpt lat="44.78725" lon="6.28066">
        <ele>2511.4</ele>
        <time>2024-08-12T13:32:41Z</time>
      </trkpt>
      <trkpt lat="44.78725" lon="6.28066">
        <ele>2510.6</ele>
        <time>2024-08-12T13:32:42Z</time>
      </trkpt>
      <trkpt lat="44.78726" lon="6.28063">
        <ele>2510.6</ele>
        <time>2024-08-12T13:32:43Z</time>
      </trkpt>
      <trkpt lat="44.78726" lon="6.28063">
        <ele>2511.4</ele>
        <time>2024-08-12T13:32:44Z</time>
      </trkpt>
      <trkpt lat="44.78726" lon="6.28063">
        <ele>2511.6</ele>
        <time>2024-08-12T13:32:45Z</time>
      </trkpt>
      <trkpt lat="44.78726" lon="6.28063">
        <ele>2511.6</ele>
        <time>2024-08-12T13:32:46Z</time>
      </trkpt>
      <trkpt lat="44.78726" lon="6.2806">
        <ele>2511.6</ele>
        <time>2024-08-12T13:32:47Z</time>
      </trkpt>
      <trkpt lat="44.78726" lon="6.2806">
        <ele>2511.8</ele>
        <time>2024-08-12T13:32:48Z</time>
      </trkpt>
      <trkpt lat="44.78726" lon="6.2806">
        <ele>2512</ele>
        <time>2024-08-12T13:32:49Z</time>
      </trkpt>
      <trkpt lat="44.78727" lon="6.28057">
        <ele>2512.2</ele>
        <time>2024-08-12T13:32:50Z</time>
      </trkpt>
      <trkpt lat="44.78727" lon="6.28057">
        <ele>2512.2</ele>
        <time>2024-08-12T13:32:51Z</time>
      </trkpt>
      <trkpt lat="44.78727" lon="6.28057">
        <ele>2512.4</ele>
        <time>2024-08-12T13:32:52Z</time>
      </trkpt>
      <trkpt lat="44.78726" lon="6.28054">
        <ele>2512.8</ele>
        <time>2024-08-12T13:32:53Z</time>
      </trkpt>
      <trkpt lat="44.78726" lon="6.28054">
        <ele>2513.4</ele>
        <time>2024-08-12T13:32:54Z</time>
      </trkpt>
      <trkpt lat="44.78726" lon="6.28054">
        <ele>2513.6</ele>
        <time>2024-08-12T13:32:55Z</time>
      </trkpt>
      <trkpt lat="44.78726" lon="6.28051">
        <ele>2513.6</ele>
        <time>2024-08-12T13:32:56Z</time>
      </trkpt>
      <trkpt lat="44.78726" lon="6.28051">
        <ele>2513.8</ele>
        <time>2024-08-12T13:32:57Z</time>
      </trkpt>
      <trkpt lat="44.78726" lon="6.28051">
        <ele>2514</ele>
        <time>2024-08-12T13:32:58Z</time>
      </trkpt>
      <trkpt lat="44.78726" lon="6.28051">
        <ele>2514.4</ele>
        <time>2024-08-12T13:32:59Z</time>
      </trkpt>
      <trkpt lat="44.78725" lon="6.28048">
        <ele>2514.4</ele>
        <time>2024-08-12T13:33:00Z</time>
      </trkpt>
      <trkpt lat="44.78725" lon="6.28048">
        <ele>2514.8</ele>
        <time>2024-08-12T13:33:01Z</time>
      </trkpt>
      <trkpt lat="44.78725" lon="6.28048">
        <ele>2515.6</ele>
        <time>2024-08-12T13:33:02Z</time>
      </trkpt>
      <trkpt lat="44.78725" lon="6.28048">
        <ele>2515.6</ele>
        <time>2024-08-12T13:33:03Z</time>
      </trkpt>
      <trkpt lat="44.78727" lon="6.28046">
        <ele>2516</ele>
        <time>2024-08-12T13:33:04Z</time>
      </trkpt>
      <trkpt lat="44.78727" lon="6.28046">
        <ele>2516.2</ele>
        <time>2024-08-12T13:33:05Z</time>
      </trkpt>
      <trkpt lat="44.78727" lon="6.28046">
        <ele>2516.4</ele>
        <time>2024-08-12T13:33:06Z</time>
      </trkpt>
      <trkpt lat="44.78729" lon="6.28045">
        <ele>2516.6</ele>
        <time>2024-08-12T13:33:07Z</time>
      </trkpt>
      <trkpt lat="44.78729" lon="6.28045">
        <ele>2516.8</ele>
        <time>2024-08-12T13:33:08Z</time>
      </trkpt>
      <trkpt lat="44.78729" lon="6.28045">
        <ele>2517</ele>
        <time>2024-08-12T13:33:09Z</time>
      </trkpt>
      <trkpt lat="44.78729" lon="6.28045">
        <ele>2517.2</ele>
        <time>2024-08-12T13:33:10Z</time>
      </trkpt>
      <trkpt lat="44.78729" lon="6.28045">
        <ele>2517.4</ele>
        <time>2024-08-12T13:33:11Z</time>
      </trkpt>
      <trkpt lat="44.78729" lon="6.28045">
        <ele>2517.4</ele>
        <time>2024-08-12T13:33:12Z</time>
      </trkpt>
      <trkpt lat="44.78729" lon="6.28045">
        <ele>2517.8</ele>
        <time>2024-08-12T13:33:13Z</time>
      </trkpt>
      <trkpt lat="44.78731" lon="6.28045">
        <ele>2518.6</ele>
        <time>2024-08-12T13:33:14Z</time>
      </trkpt>
      <trkpt lat="44.78731" lon="6.28045">
        <ele>2519.2</ele>
        <time>2024-08-12T13:33:15Z</time>
      </trkpt>
      <trkpt lat="44.78731" lon="6.28048">
        <ele>2519.6</ele>
        <time>2024-08-12T13:33:16Z</time>
      </trkpt>
      <trkpt lat="44.78731" lon="6.28048">
        <ele>2520.2</ele>
        <time>2024-08-12T13:33:17Z</time>
      </trkpt>
      <trkpt lat="44.78732" lon="6.28051">
        <ele>2520.4</ele>
        <time>2024-08-12T13:33:18Z</time>
      </trkpt>
      <trkpt lat="44.78732" lon="6.28051">
        <ele>2520.6</ele>
        <time>2024-08-12T13:33:19Z</time>
      </trkpt>
      <trkpt lat="44.78732" lon="6.28051">
        <ele>2520.6</ele>
        <time>2024-08-12T13:33:20Z</time>
      </trkpt>
      <trkpt lat="44.78732" lon="6.28051">
        <ele>2520.6</ele>
        <time>2024-08-12T13:33:21Z</time>
      </trkpt>
      <trkpt lat="44.78732" lon="6.28051">
        <ele>2520.6</ele>
        <time>2024-08-12T13:33:22Z</time>
      </trkpt>
      <trkpt lat="44.78732" lon="6.28051">
        <ele>2520.6</ele>
        <time>2024-08-12T13:33:23Z</time>
      </trkpt>
      <trkpt lat="44.78732" lon="6.28051">
        <ele>2520.2</ele>
        <time>2024-08-12T13:33:24Z</time>
      </trkpt>
      <trkpt lat="44.78732" lon="6.28051">
        <ele>2519.6</ele>
        <time>2024-08-12T13:33:25Z</time>
      </trkpt>
      <trkpt lat="44.78732" lon="6.28051">
        <ele>2519.6</ele>
        <time>2024-08-12T13:33:26Z</time>
      </trkpt>
      <trkpt lat="44.78732" lon="6.28051">
        <ele>2519.8</ele>
        <time>2024-08-12T13:33:27Z</time>
      </trkpt>
      <trkpt lat="44.78733" lon="6.28052">
        <ele>2520.4</ele>
        <time>2024-08-12T13:33:28Z</time>
      </trkpt>
      <trkpt lat="44.78733" lon="6.28052">
        <ele>2520.8</ele>
        <time>2024-08-12T13:33:29Z</time>
      </trkpt>
      <trkpt lat="44.78735" lon="6.28055">
        <ele>2521</ele>
        <time>2024-08-12T13:33:30Z</time>
      </trkpt>
      <trkpt lat="44.78735" lon="6.28055">
        <ele>2521</ele>
        <time>2024-08-12T13:33:31Z</time>
      </trkpt>
      <trkpt lat="44.78737" lon="6.28058">
        <ele>2521</ele>
        <time>2024-08-12T13:33:32Z</time>
      </trkpt>
      <trkpt lat="44.78737" lon="6.28058">
        <ele>2521</ele>
        <time>2024-08-12T13:33:33Z</time>
      </trkpt>
      <trkpt lat="44.78737" lon="6.28058">
        <ele>2521</ele>
        <time>2024-08-12T13:33:34Z</time>
      </trkpt>
      <trkpt lat="44.78739" lon="6.2806">
        <ele>2521.4</ele>
        <time>2024-08-12T13:33:35Z</time>
      </trkpt>
      <trkpt lat="44.78739" lon="6.2806">
        <ele>2521.6</ele>
        <time>2024-08-12T13:33:36Z</time>
      </trkpt>
      <trkpt lat="44.78739" lon="6.2806">
        <ele>2521.8</ele>
        <time>2024-08-12T13:33:37Z</time>
      </trkpt>
      <trkpt lat="44.78739" lon="6.2806">
        <ele>2522.2</ele>
        <time>2024-08-12T13:33:38Z</time>
      </trkpt>
      <trkpt lat="44.78739" lon="6.2806">
        <ele>2522.2</ele>
        <time>2024-08-12T13:33:39Z</time>
      </trkpt>
      <trkpt lat="44.78741" lon="6.2806">
        <ele>2522.6</ele>
        <time>2024-08-12T13:33:40Z</time>
      </trkpt>
      <trkpt lat="44.78741" lon="6.2806">
        <ele>2522.8</ele>
        <time>2024-08-12T13:33:41Z</time>
      </trkpt>
      <trkpt lat="44.78741" lon="6.2806">
        <ele>2523.2</ele>
        <time>2024-08-12T13:33:42Z</time>
      </trkpt>
      <trkpt lat="44.78741" lon="6.2806">
        <ele>2523.6</ele>
        <time>2024-08-12T13:33:43Z</time>
      </trkpt>
      <trkpt lat="44.78743" lon="6.28062">
        <ele>2523.8</ele>
        <time>2024-08-12T13:33:44Z</time>
      </trkpt>
      <trkpt lat="44.78743" lon="6.28062">
        <ele>2524.2</ele>
        <time>2024-08-12T13:33:45Z</time>
      </trkpt>
      <trkpt lat="44.78744" lon="6.28065">
        <ele>2524.2</ele>
        <time>2024-08-12T13:33:46Z</time>
      </trkpt>
      <trkpt lat="44.78744" lon="6.28065">
        <ele>2524.4</ele>
        <time>2024-08-12T13:33:47Z</time>
      </trkpt>
      <trkpt lat="44.78745" lon="6.28067">
        <ele>2524.4</ele>
        <time>2024-08-12T13:33:48Z</time>
      </trkpt>
      <trkpt lat="44.78745" lon="6.28067">
        <ele>2524.4</ele>
        <time>2024-08-12T13:33:49Z</time>
      </trkpt>
      <trkpt lat="44.78745" lon="6.28067">
        <ele>2524.2</ele>
        <time>2024-08-12T13:33:50Z</time>
      </trkpt>
      <trkpt lat="44.78745" lon="6.28067">
        <ele>2524.2</ele>
        <time>2024-08-12T13:33:51Z</time>
      </trkpt>
      <trkpt lat="44.78745" lon="6.28067">
        <ele>2524.6</ele>
        <time>2024-08-12T13:33:52Z</time>
      </trkpt>
      <trkpt lat="44.78745" lon="6.28067">
        <ele>2524.6</ele>
        <time>2024-08-12T13:33:53Z</time>
      </trkpt>
      <trkpt lat="44.78747" lon="6.28064">
        <ele>2524.8</ele>
        <time>2024-08-12T13:33:54Z</time>
      </trkpt>
      <trkpt lat="44.78747" lon="6.28064">
        <ele>2525</ele>
        <time>2024-08-12T13:33:55Z</time>
      </trkpt>
      <trkpt lat="44.78747" lon="6.28062">
        <ele>2525.6</ele>
        <time>2024-08-12T13:33:56Z</time>
      </trkpt>
      <trkpt lat="44.78747" lon="6.28062">
        <ele>2525.8</ele>
        <time>2024-08-12T13:33:57Z</time>
      </trkpt>
      <trkpt lat="44.78747" lon="6.28059">
        <ele>2526</ele>
        <time>2024-08-12T13:33:58Z</time>
      </trkpt>
      <trkpt lat="44.78747" lon="6.28059">
        <ele>2526.2</ele>
        <time>2024-08-12T13:33:59Z</time>
      </trkpt>
      <trkpt lat="44.78747" lon="6.28059">
        <ele>2526.2</ele>
        <time>2024-08-12T13:34:00Z</time>
      </trkpt>
      <trkpt lat="44.78747" lon="6.28059">
        <ele>2526.2</ele>
        <time>2024-08-12T13:34:01Z</time>
      </trkpt>
      <trkpt lat="44.78747" lon="6.28059">
        <ele>2526</ele>
        <time>2024-08-12T13:34:02Z</time>
      </trkpt>
      <trkpt lat="44.78747" lon="6.28059">
        <ele>2526</ele>
        <time>2024-08-12T13:34:03Z</time>
      </trkpt>
      <trkpt lat="44.78747" lon="6.28059">
        <ele>2526</ele>
        <time>2024-08-12T13:34:04Z</time>
      </trkpt>
      <trkpt lat="44.78747" lon="6.28059">
        <ele>2526</ele>
        <time>2024-08-12T13:34:05Z</time>
      </trkpt>
      <trkpt lat="44.78747" lon="6.28059">
        <ele>2526</ele>
        <time>2024-08-12T13:34:06Z</time>
      </trkpt>
      <trkpt lat="44.78747" lon="6.28059">
        <ele>2525.8</ele>
        <time>2024-08-12T13:34:07Z</time>
      </trkpt>
      <trkpt lat="44.78747" lon="6.28059">
        <ele>2525.8</ele>
        <time>2024-08-12T13:34:08Z</time>
      </trkpt>
      <trkpt lat="44.78747" lon="6.28059">
        <ele>2525.6</ele>
        <time>2024-08-12T13:34:09Z</time>
      </trkpt>
      <trkpt lat="44.78747" lon="6.28059">
        <ele>2525.6</ele>
        <time>2024-08-12T13:34:10Z</time>
      </trkpt>
      <trkpt lat="44.78747" lon="6.28059">
        <ele>2525.8</ele>
        <time>2024-08-12T13:34:11Z</time>
      </trkpt>
      <trkpt lat="44.78747" lon="6.28059">
        <ele>2525.8</ele>
        <time>2024-08-12T13:34:12Z</time>
      </trkpt>
      <trkpt lat="44.78747" lon="6.28059">
        <ele>2526</ele>
        <time>2024-08-12T13:34:13Z</time>
      </trkpt>
      <trkpt lat="44.78747" lon="6.28059">
        <ele>2526.4</ele>
        <time>2024-08-12T13:34:14Z</time>
      </trkpt>
      <trkpt lat="44.78747" lon="6.28059">
        <ele>2526.4</ele>
        <time>2024-08-12T13:34:15Z</time>
      </trkpt>
      <trkpt lat="44.78747" lon="6.28059">
        <ele>2526.4</ele>
        <time>2024-08-12T13:34:16Z</time>
      </trkpt>
      <trkpt lat="44.78747" lon="6.28059">
        <ele>2526.6</ele>
        <time>2024-08-12T13:34:17Z</time>
      </trkpt>
      <trkpt lat="44.78747" lon="6.28059">
        <ele>2526.8</ele>
        <time>2024-08-12T13:34:18Z</time>
      </trkpt>
      <trkpt lat="44.78747" lon="6.28059">
        <ele>2526.8</ele>
        <time>2024-08-12T13:34:19Z</time>
      </trkpt>
      <trkpt lat="44.78747" lon="6.28059">
        <ele>2526.6</ele>
        <time>2024-08-12T13:34:20Z</time>
      </trkpt>
      <trkpt lat="44.78747" lon="6.28059">
        <ele>2526.6</ele>
        <time>2024-08-12T13:34:21Z</time>
      </trkpt>
      <trkpt lat="44.78747" lon="6.28059">
        <ele>2526.4</ele>
        <time>2024-08-12T13:34:22Z</time>
      </trkpt>
      <trkpt lat="44.78747" lon="6.28059">
        <ele>2526.4</ele>
        <time>2024-08-12T13:34:23Z</time>
      </trkpt>
      <trkpt lat="44.78747" lon="6.28059">
        <ele>2526</ele>
        <time>2024-08-12T13:34:24Z</time>
      </trkpt>
      <trkpt lat="44.78747" lon="6.28059">
        <ele>2526</ele>
        <time>2024-08-12T13:34:25Z</time>
      </trkpt>
      <trkpt lat="44.78747" lon="6.28059">
        <ele>2526</ele>
        <time>2024-08-12T13:34:26Z</time>
      </trkpt>
      <trkpt lat="44.78747" lon="6.28059">
        <ele>2526</ele>
        <time>2024-08-12T13:34:27Z</time>
      </trkpt>
      <trkpt lat="44.78747" lon="6.28059">
        <ele>2526.2</ele>
        <time>2024-08-12T13:34:28Z</time>
      </trkpt>
      <trkpt lat="44.78747" lon="6.28059">
        <ele>2526.4</ele>
        <time>2024-08-12T13:34:29Z</time>
      </trkpt>
      <trkpt lat="44.78747" lon="6.28059">
        <ele>2526.4</ele>
        <time>2024-08-12T13:34:30Z</time>
      </trkpt>
      <trkpt lat="44.78747" lon="6.28059">
        <ele>2526.4</ele>
        <time>2024-08-12T13:34:31Z</time>
      </trkpt>
      <trkpt lat="44.78747" lon="6.28059">
        <ele>2526.4</ele>
        <time>2024-08-12T13:34:32Z</time>
      </trkpt>
      <trkpt lat="44.78747" lon="6.28059">
        <ele>2526.4</ele>
        <time>2024-08-12T13:34:33Z</time>
      </trkpt>
      <trkpt lat="44.78747" lon="6.28059">
        <ele>2526.4</ele>
        <time>2024-08-12T13:34:34Z</time>
      </trkpt>
      <trkpt lat="44.78747" lon="6.28059">
        <ele>2526.8</ele>
        <time>2024-08-12T13:34:35Z</time>
      </trkpt>
      <trkpt lat="44.78747" lon="6.28059">
        <ele>2526.8</ele>
        <time>2024-08-12T13:34:36Z</time>
      </trkpt>
      <trkpt lat="44.78747" lon="6.28059">
        <ele>2526.8</ele>
        <time>2024-08-12T13:34:37Z</time>
      </trkpt>
      <trkpt lat="44.78747" lon="6.28059">
        <ele>2526.8</ele>
        <time>2024-08-12T13:34:38Z</time>
      </trkpt>
      <trkpt lat="44.78747" lon="6.28059">
        <ele>2526.2</ele>
        <time>2024-08-12T13:34:39Z</time>
      </trkpt>
      <trkpt lat="44.78747" lon="6.28059">
        <ele>2526.2</ele>
        <time>2024-08-12T13:34:40Z</time>
      </trkpt>
      <trkpt lat="44.78747" lon="6.28059">
        <ele>2526.2</ele>
        <time>2024-08-12T13:34:41Z</time>
      </trkpt>
      <trkpt lat="44.78747" lon="6.28059">
        <ele>2526.2</ele>
        <time>2024-08-12T13:34:42Z</time>
      </trkpt>
      <trkpt lat="44.78747" lon="6.28059">
        <ele>2526</ele>
        <time>2024-08-12T13:34:43Z</time>
      </trkpt>
      <trkpt lat="44.78747" lon="6.28059">
        <ele>2526</ele>
        <time>2024-08-12T13:34:44Z</time>
      </trkpt>
      <trkpt lat="44.78747" lon="6.28059">
        <ele>2526</ele>
        <time>2024-08-12T13:34:45Z</time>
      </trkpt>
      <trkpt lat="44.78747" lon="6.28059">
        <ele>2526</ele>
        <time>2024-08-12T13:34:46Z</time>
      </trkpt>
      <trkpt lat="44.78747" lon="6.28059">
        <ele>2526</ele>
        <time>2024-08-12T13:34:47Z</time>
      </trkpt>
      <trkpt lat="44.78747" lon="6.28059">
        <ele>2526.4</ele>
        <time>2024-08-12T13:34:48Z</time>
      </trkpt>
      <trkpt lat="44.78747" lon="6.28059">
        <ele>2526.4</ele>
        <time>2024-08-12T13:34:49Z</time>
      </trkpt>
      <trkpt lat="44.78747" lon="6.28059">
        <ele>2526.4</ele>
        <time>2024-08-12T13:34:50Z</time>
      </trkpt>
      <trkpt lat="44.78747" lon="6.28059">
        <ele>2526.6</ele>
        <time>2024-08-12T13:34:51Z</time>
      </trkpt>
      <trkpt lat="44.78747" lon="6.28059">
        <ele>2526.6</ele>
        <time>2024-08-12T13:34:52Z</time>
      </trkpt>
      <trkpt lat="44.78747" lon="6.28059">
        <ele>2526.2</ele>
        <time>2024-08-12T13:34:53Z</time>
      </trkpt>
      <trkpt lat="44.78747" lon="6.28059">
        <ele>2526.2</ele>
        <time>2024-08-12T13:34:54Z</time>
      </trkpt>
      <trkpt lat="44.78747" lon="6.28059">
        <ele>2526.2</ele>
        <time>2024-08-12T13:34:55Z</time>
      </trkpt>
      <trkpt lat="44.78747" lon="6.28059">
        <ele>2526.4</ele>
        <time>2024-08-12T13:34:56Z</time>
      </trkpt>
      <trkpt lat="44.78747" lon="6.28059">
        <ele>2526.4</ele>
        <time>2024-08-12T13:34:57Z</time>
      </trkpt>
      <trkpt lat="44.78747" lon="6.28059">
        <ele>2526.6</ele>
        <time>2024-08-12T13:34:58Z</time>
      </trkpt>
      <trkpt lat="44.78747" lon="6.28059">
        <ele>2526.4</ele>
        <time>2024-08-12T13:34:59Z</time>
      </trkpt>
      <trkpt lat="44.78747" lon="6.28059">
        <ele>2526.4</ele>
        <time>2024-08-12T13:35:00Z</time>
      </trkpt>
      <trkpt lat="44.78747" lon="6.28059">
        <ele>2525.8</ele>
        <time>2024-08-12T13:35:01Z</time>
      </trkpt>
      <trkpt lat="44.78747" lon="6.28059">
        <ele>2526.2</ele>
        <time>2024-08-12T13:35:02Z</time>
      </trkpt>
      <trkpt lat="44.78747" lon="6.28059">
        <ele>2526.2</ele>
        <time>2024-08-12T13:35:03Z</time>
      </trkpt>
      <trkpt lat="44.78747" lon="6.28059">
        <ele>2526.2</ele>
        <time>2024-08-12T13:35:04Z</time>
      </trkpt>
      <trkpt lat="44.78747" lon="6.28059">
        <ele>2526.2</ele>
        <time>2024-08-12T13:35:05Z</time>
      </trkpt>
      <trkpt lat="44.78747" lon="6.28059">
        <ele>2526.6</ele>
        <time>2024-08-12T13:35:06Z</time>
      </trkpt>
      <trkpt lat="44.78747" lon="6.28059">
        <ele>2527.2</ele>
        <time>2024-08-12T13:35:07Z</time>
      </trkpt>
      <trkpt lat="44.78747" lon="6.28059">
        <ele>2527.6</ele>
        <time>2024-08-12T13:35:08Z</time>
      </trkpt>
      <trkpt lat="44.78747" lon="6.28059">
        <ele>2527.6</ele>
        <time>2024-08-12T13:35:09Z</time>
      </trkpt>
      <trkpt lat="44.78747" lon="6.28059">
        <ele>2526.8</ele>
        <time>2024-08-12T13:35:10Z</time>
      </trkpt>
      <trkpt lat="44.78747" lon="6.28059">
        <ele>2526.8</ele>
        <time>2024-08-12T13:35:11Z</time>
      </trkpt>
      <trkpt lat="44.78747" lon="6.28056">
        <ele>2526.6</ele>
        <time>2024-08-12T13:35:12Z</time>
      </trkpt>
      <trkpt lat="44.78747" lon="6.28056">
        <ele>2526.2</ele>
        <time>2024-08-12T13:35:13Z</time>
      </trkpt>
      <trkpt lat="44.78746" lon="6.28052">
        <ele>2525.4</ele>
        <time>2024-08-12T13:35:14Z</time>
      </trkpt>
      <trkpt lat="44.78746" lon="6.28052">
        <ele>2525.4</ele>
        <time>2024-08-12T13:35:15Z</time>
      </trkpt>
      <trkpt lat="44.78747" lon="6.28049">
        <ele>2526.2</ele>
        <time>2024-08-12T13:35:16Z</time>
      </trkpt>
      <trkpt lat="44.78747" lon="6.28049">
        <ele>2526.2</ele>
        <time>2024-08-12T13:35:17Z</time>
      </trkpt>
      <trkpt lat="44.78747" lon="6.28046">
        <ele>2526.8</ele>
        <time>2024-08-12T13:35:18Z</time>
      </trkpt>
      <trkpt lat="44.78747" lon="6.28046">
        <ele>2526.8</ele>
        <time>2024-08-12T13:35:19Z</time>
      </trkpt>
      <trkpt lat="44.78747" lon="6.28043">
        <ele>2527.8</ele>
        <time>2024-08-12T13:35:20Z</time>
      </trkpt>
      <trkpt lat="44.78747" lon="6.28043">
        <ele>2528.6</ele>
        <time>2024-08-12T13:35:21Z</time>
      </trkpt>
      <trkpt lat="44.78747" lon="6.28043">
        <ele>2528.8</ele>
        <time>2024-08-12T13:35:22Z</time>
      </trkpt>
      <trkpt lat="44.78749" lon="6.2804">
        <ele>2528.8</ele>
        <time>2024-08-12T13:35:23Z</time>
      </trkpt>
      <trkpt lat="44.78749" lon="6.2804">
        <ele>2528.8</ele>
        <time>2024-08-12T13:35:24Z</time>
      </trkpt>
      <trkpt lat="44.78749" lon="6.28043">
        <ele>2530.2</ele>
        <time>2024-08-12T13:35:25Z</time>
      </trkpt>
      <trkpt lat="44.78749" lon="6.28043">
        <ele>2530.6</ele>
        <time>2024-08-12T13:35:26Z</time>
      </trkpt>
      <trkpt lat="44.7875" lon="6.28046">
        <ele>2531</ele>
        <time>2024-08-12T13:35:27Z</time>
      </trkpt>
      <trkpt lat="44.7875" lon="6.28046">
        <ele>2531.2</ele>
        <time>2024-08-12T13:35:28Z</time>
      </trkpt>
      <trkpt lat="44.78751" lon="6.28048">
        <ele>2531.2</ele>
        <time>2024-08-12T13:35:29Z</time>
      </trkpt>
      <trkpt lat="44.78751" lon="6.28048">
        <ele>2531.2</ele>
        <time>2024-08-12T13:35:30Z</time>
      </trkpt>
      <trkpt lat="44.78751" lon="6.28048">
        <ele>2531.2</ele>
        <time>2024-08-12T13:35:31Z</time>
      </trkpt>
      <trkpt lat="44.78753" lon="6.28049">
        <ele>2531.8</ele>
        <time>2024-08-12T13:35:32Z</time>
      </trkpt>
      <trkpt lat="44.78753" lon="6.28049">
        <ele>2532.2</ele>
        <time>2024-08-12T13:35:33Z</time>
      </trkpt>
      <trkpt lat="44.78753" lon="6.28049">
        <ele>2533</ele>
        <time>2024-08-12T13:35:34Z</time>
      </trkpt>
      <trkpt lat="44.78753" lon="6.28049">
        <ele>2533.6</ele>
        <time>2024-08-12T13:35:35Z</time>
      </trkpt>
      <trkpt lat="44.78755" lon="6.28049">
        <ele>2533.6</ele>
        <time>2024-08-12T13:35:36Z</time>
      </trkpt>
      <trkpt lat="44.78755" lon="6.28049">
        <ele>2533.6</ele>
        <time>2024-08-12T13:35:37Z</time>
      </trkpt>
      <trkpt lat="44.78757" lon="6.28051">
        <ele>2533.8</ele>
        <time>2024-08-12T13:35:38Z</time>
      </trkpt>
      <trkpt lat="44.78757" lon="6.28051">
        <ele>2534</ele>
        <time>2024-08-12T13:35:39Z</time>
      </trkpt>
      <trkpt lat="44.78757" lon="6.28051">
        <ele>2534</ele>
        <time>2024-08-12T13:35:40Z</time>
      </trkpt>
      <trkpt lat="44.78759" lon="6.28054">
        <ele>2534.8</ele>
        <time>2024-08-12T13:35:41Z</time>
      </trkpt>
      <trkpt lat="44.78759" lon="6.28054">
        <ele>2534.8</ele>
        <time>2024-08-12T13:35:42Z</time>
      </trkpt>
      <trkpt lat="44.78759" lon="6.28054">
        <ele>2534.2</ele>
        <time>2024-08-12T13:35:43Z</time>
      </trkpt>
      <trkpt lat="44.78761" lon="6.28057">
        <ele>2533.6</ele>
        <time>2024-08-12T13:35:44Z</time>
      </trkpt>
      <trkpt lat="44.78761" lon="6.28057">
        <ele>2533.6</ele>
        <time>2024-08-12T13:35:45Z</time>
      </trkpt>
      <trkpt lat="44.78761" lon="6.28057">
        <ele>2533.8</ele>
        <time>2024-08-12T13:35:46Z</time>
      </trkpt>
      <trkpt lat="44.78761" lon="6.28057">
        <ele>2533.8</ele>
        <time>2024-08-12T13:35:47Z</time>
      </trkpt>
      <trkpt lat="44.78763" lon="6.28058">
        <ele>2533.8</ele>
        <time>2024-08-12T13:35:48Z</time>
      </trkpt>
      <trkpt lat="44.78763" lon="6.28058">
        <ele>2533.8</ele>
        <time>2024-08-12T13:35:49Z</time>
      </trkpt>
      <trkpt lat="44.78763" lon="6.28058">
        <ele>2533.8</ele>
        <time>2024-08-12T13:35:50Z</time>
      </trkpt>
      <trkpt lat="44.78763" lon="6.28055">
        <ele>2533.8</ele>
        <time>2024-08-12T13:35:51Z</time>
      </trkpt>
      <trkpt lat="44.78763" lon="6.28055">
        <ele>2533.8</ele>
        <time>2024-08-12T13:35:52Z</time>
      </trkpt>
      <trkpt lat="44.78763" lon="6.28055">
        <ele>2534</ele>
        <time>2024-08-12T13:35:53Z</time>
      </trkpt>
      <trkpt lat="44.78763" lon="6.28051">
        <ele>2534.6</ele>
        <time>2024-08-12T13:35:54Z</time>
      </trkpt>
      <trkpt lat="44.78763" lon="6.28051">
        <ele>2535</ele>
        <time>2024-08-12T13:35:55Z</time>
      </trkpt>
      <trkpt lat="44.78762" lon="6.28049">
        <ele>2535</ele>
        <time>2024-08-12T13:35:56Z</time>
      </trkpt>
      <trkpt lat="44.78762" lon="6.28049">
        <ele>2535.4</ele>
        <time>2024-08-12T13:35:57Z</time>
      </trkpt>
      <trkpt lat="44.78762" lon="6.28049">
        <ele>2535.4</ele>
        <time>2024-08-12T13:35:58Z</time>
      </trkpt>
      <trkpt lat="44.78762" lon="6.28045">
        <ele>2535.2</ele>
        <time>2024-08-12T13:35:59Z</time>
      </trkpt>
      <trkpt lat="44.78762" lon="6.28045">
        <ele>2535.2</ele>
        <time>2024-08-12T13:36:00Z</time>
      </trkpt>
      <trkpt lat="44.78763" lon="6.28042">
        <ele>2536</ele>
        <time>2024-08-12T13:36:01Z</time>
      </trkpt>
      <trkpt lat="44.78763" lon="6.28042">
        <ele>2536.2</ele>
        <time>2024-08-12T13:36:02Z</time>
      </trkpt>
      <trkpt lat="44.78763" lon="6.28042">
        <ele>2536.2</ele>
        <time>2024-08-12T13:36:03Z</time>
      </trkpt>
      <trkpt lat="44.78764" lon="6.28039">
        <ele>2536.6</ele>
        <time>2024-08-12T13:36:04Z</time>
      </trkpt>
      <trkpt lat="44.78764" lon="6.28039">
        <ele>2537.4</ele>
        <time>2024-08-12T13:36:05Z</time>
      </trkpt>
      <trkpt lat="44.78765" lon="6.28036">
        <ele>2537.8</ele>
        <time>2024-08-12T13:36:06Z</time>
      </trkpt>
      <trkpt lat="44.78765" lon="6.28036">
        <ele>2538.2</ele>
        <time>2024-08-12T13:36:07Z</time>
      </trkpt>
      <trkpt lat="44.78765" lon="6.28036">
        <ele>2538.4</ele>
        <time>2024-08-12T13:36:08Z</time>
      </trkpt>
      <trkpt lat="44.78766" lon="6.28034">
        <ele>2538.6</ele>
        <time>2024-08-12T13:36:09Z</time>
      </trkpt>
      <trkpt lat="44.78766" lon="6.28034">
        <ele>2538.6</ele>
        <time>2024-08-12T13:36:10Z</time>
      </trkpt>
      <trkpt lat="44.78766" lon="6.28034">
        <ele>2539</ele>
        <time>2024-08-12T13:36:11Z</time>
      </trkpt>
      <trkpt lat="44.78766" lon="6.28034">
        <ele>2539</ele>
        <time>2024-08-12T13:36:12Z</time>
      </trkpt>
      <trkpt lat="44.78768" lon="6.28031">
        <ele>2539</ele>
        <time>2024-08-12T13:36:13Z</time>
      </trkpt>
      <trkpt lat="44.78768" lon="6.28031">
        <ele>2539.4</ele>
        <time>2024-08-12T13:36:14Z</time>
      </trkpt>
      <trkpt lat="44.78768" lon="6.28031">
        <ele>2539.4</ele>
        <time>2024-08-12T13:36:15Z</time>
      </trkpt>
      <trkpt lat="44.78769" lon="6.28028">
        <ele>2539.6</ele>
        <time>2024-08-12T13:36:16Z</time>
      </trkpt>
      <trkpt lat="44.78769" lon="6.28028">
        <ele>2539.8</ele>
        <time>2024-08-12T13:36:17Z</time>
      </trkpt>
      <trkpt lat="44.7877" lon="6.28026">
        <ele>2541</ele>
        <time>2024-08-12T13:36:18Z</time>
      </trkpt>
      <trkpt lat="44.7877" lon="6.28026">
        <ele>2541.2</ele>
        <time>2024-08-12T13:36:19Z</time>
      </trkpt>
      <trkpt lat="44.78771" lon="6.28023">
        <ele>2541.4</ele>
        <time>2024-08-12T13:36:20Z</time>
      </trkpt>
      <trkpt lat="44.78771" lon="6.28023">
        <ele>2541.4</ele>
        <time>2024-08-12T13:36:21Z</time>
      </trkpt>
      <trkpt lat="44.78771" lon="6.28023">
        <ele>2541.6</ele>
        <time>2024-08-12T13:36:22Z</time>
      </trkpt>
      <trkpt lat="44.78771" lon="6.28023">
        <ele>2541.8</ele>
        <time>2024-08-12T13:36:23Z</time>
      </trkpt>
      <trkpt lat="44.78772" lon="6.28026">
        <ele>2541.8</ele>
        <time>2024-08-12T13:36:24Z</time>
      </trkpt>
      <trkpt lat="44.78772" lon="6.28026">
        <ele>2541.8</ele>
        <time>2024-08-12T13:36:25Z</time>
      </trkpt>
      <trkpt lat="44.78772" lon="6.28029">
        <ele>2541.8</ele>
        <time>2024-08-12T13:36:26Z</time>
      </trkpt>
      <trkpt lat="44.78772" lon="6.28029">
        <ele>2542.4</ele>
        <time>2024-08-12T13:36:27Z</time>
      </trkpt>
      <trkpt lat="44.78772" lon="6.28031">
        <ele>2542.4</ele>
        <time>2024-08-12T13:36:28Z</time>
      </trkpt>
      <trkpt lat="44.78772" lon="6.28031">
        <ele>2542.2</ele>
        <time>2024-08-12T13:36:29Z</time>
      </trkpt>
      <trkpt lat="44.78773" lon="6.28034">
        <ele>2542.2</ele>
        <time>2024-08-12T13:36:30Z</time>
      </trkpt>
      <trkpt lat="44.78773" lon="6.28034">
        <ele>2542.2</ele>
        <time>2024-08-12T13:36:31Z</time>
      </trkpt>
      <trkpt lat="44.78773" lon="6.28034">
        <ele>2542.4</ele>
        <time>2024-08-12T13:36:32Z</time>
      </trkpt>
      <trkpt lat="44.78773" lon="6.28034">
        <ele>2542.4</ele>
        <time>2024-08-12T13:36:33Z</time>
      </trkpt>
      <trkpt lat="44.78773" lon="6.28034">
        <ele>2542.4</ele>
        <time>2024-08-12T13:36:34Z</time>
      </trkpt>
      <trkpt lat="44.78773" lon="6.28034">
        <ele>2542.6</ele>
        <time>2024-08-12T13:36:35Z</time>
      </trkpt>
      <trkpt lat="44.78773" lon="6.28034">
        <ele>2542.8</ele>
        <time>2024-08-12T13:36:36Z</time>
      </trkpt>
      <trkpt lat="44.78773" lon="6.28037">
        <ele>2543</ele>
        <time>2024-08-12T13:36:37Z</time>
      </trkpt>
      <trkpt lat="44.78773" lon="6.28037">
        <ele>2543.4</ele>
        <time>2024-08-12T13:36:38Z</time>
      </trkpt>
      <trkpt lat="44.78775" lon="6.28041">
        <ele>2543.6</ele>
        <time>2024-08-12T13:36:39Z</time>
      </trkpt>
      <trkpt lat="44.78775" lon="6.28041">
        <ele>2543.6</ele>
        <time>2024-08-12T13:36:40Z</time>
      </trkpt>
      <trkpt lat="44.78777" lon="6.28046">
        <ele>2543.6</ele>
        <time>2024-08-12T13:36:41Z</time>
      </trkpt>
      <trkpt lat="44.78777" lon="6.28046">
        <ele>2544.2</ele>
        <time>2024-08-12T13:36:42Z</time>
      </trkpt>
      <trkpt lat="44.78779" lon="6.28049">
        <ele>2544.4</ele>
        <time>2024-08-12T13:36:43Z</time>
      </trkpt>
      <trkpt lat="44.78779" lon="6.28049">
        <ele>2544.4</ele>
        <time>2024-08-12T13:36:44Z</time>
      </trkpt>
      <trkpt lat="44.78779" lon="6.28049">
        <ele>2544.4</ele>
        <time>2024-08-12T13:36:45Z</time>
      </trkpt>
      <trkpt lat="44.78779" lon="6.28049">
        <ele>2544.4</ele>
        <time>2024-08-12T13:36:46Z</time>
      </trkpt>
      <trkpt lat="44.78781" lon="6.28049">
        <ele>2544.6</ele>
        <time>2024-08-12T13:36:47Z</time>
      </trkpt>
      <trkpt lat="44.78781" lon="6.28049">
        <ele>2545</ele>
        <time>2024-08-12T13:36:48Z</time>
      </trkpt>
      <trkpt lat="44.78781" lon="6.28049">
        <ele>2545</ele>
        <time>2024-08-12T13:36:49Z</time>
      </trkpt>
      <trkpt lat="44.78781" lon="6.28046">
        <ele>2544.4</ele>
        <time>2024-08-12T13:36:50Z</time>
      </trkpt>
      <trkpt lat="44.78781" lon="6.28046">
        <ele>2544.4</ele>
        <time>2024-08-12T13:36:51Z</time>
      </trkpt>
      <trkpt lat="44.78781" lon="6.28046">
        <ele>2544.8</ele>
        <time>2024-08-12T13:36:52Z</time>
      </trkpt>
      <trkpt lat="44.78781" lon="6.28043">
        <ele>2545.2</ele>
        <time>2024-08-12T13:36:53Z</time>
      </trkpt>
      <trkpt lat="44.78781" lon="6.28043">
        <ele>2545.4</ele>
        <time>2024-08-12T13:36:54Z</time>
      </trkpt>
      <trkpt lat="44.78781" lon="6.28043">
        <ele>2546</ele>
        <time>2024-08-12T13:36:55Z</time>
      </trkpt>
      <trkpt lat="44.78781" lon="6.28043">
        <ele>2546.2</ele>
        <time>2024-08-12T13:36:56Z</time>
      </trkpt>
      <trkpt lat="44.78781" lon="6.28043">
        <ele>2546.6</ele>
        <time>2024-08-12T13:36:57Z</time>
      </trkpt>
      <trkpt lat="44.78781" lon="6.28043">
        <ele>2547.2</ele>
        <time>2024-08-12T13:36:58Z</time>
      </trkpt>
      <trkpt lat="44.78781" lon="6.28043">
        <ele>2547.4</ele>
        <time>2024-08-12T13:36:59Z</time>
      </trkpt>
      <trkpt lat="44.78781" lon="6.28043">
        <ele>2547.6</ele>
        <time>2024-08-12T13:37:00Z</time>
      </trkpt>
      <trkpt lat="44.78781" lon="6.28043">
        <ele>2547.8</ele>
        <time>2024-08-12T13:37:01Z</time>
      </trkpt>
      <trkpt lat="44.78781" lon="6.28043">
        <ele>2548</ele>
        <time>2024-08-12T13:37:02Z</time>
      </trkpt>
      <trkpt lat="44.78781" lon="6.28043">
        <ele>2548.2</ele>
        <time>2024-08-12T13:37:03Z</time>
      </trkpt>
      <trkpt lat="44.78781" lon="6.28043">
        <ele>2548.4</ele>
        <time>2024-08-12T13:37:04Z</time>
      </trkpt>
      <trkpt lat="44.78782" lon="6.2804">
        <ele>2548.6</ele>
        <time>2024-08-12T13:37:05Z</time>
      </trkpt>
      <trkpt lat="44.78782" lon="6.2804">
        <ele>2549</ele>
        <time>2024-08-12T13:37:06Z</time>
      </trkpt>
      <trkpt lat="44.78783" lon="6.28036">
        <ele>2549.2</ele>
        <time>2024-08-12T13:37:07Z</time>
      </trkpt>
      <trkpt lat="44.78784" lon="6.28034">
        <ele>2549.6</ele>
        <time>2024-08-12T13:37:08Z</time>
      </trkpt>
      <trkpt lat="44.78784" lon="6.28034">
        <ele>2549.6</ele>
        <time>2024-08-12T13:37:09Z</time>
      </trkpt>
      <trkpt lat="44.78786" lon="6.2803">
        <ele>2549.6</ele>
        <time>2024-08-12T13:37:10Z</time>
      </trkpt>
      <trkpt lat="44.78786" lon="6.2803">
        <ele>2549.6</ele>
        <time>2024-08-12T13:37:11Z</time>
      </trkpt>
      <trkpt lat="44.78786" lon="6.2803">
        <ele>2549.6</ele>
        <time>2024-08-12T13:37:12Z</time>
      </trkpt>
      <trkpt lat="44.78786" lon="6.2803">
        <ele>2549.8</ele>
        <time>2024-08-12T13:37:13Z</time>
      </trkpt>
      <trkpt lat="44.78787" lon="6.28032">
        <ele>2550.6</ele>
        <time>2024-08-12T13:37:14Z</time>
      </trkpt>
      <trkpt lat="44.78787" lon="6.28032">
        <ele>2550.8</ele>
        <time>2024-08-12T13:37:15Z</time>
      </trkpt>
      <trkpt lat="44.78787" lon="6.28035">
        <ele>2550.8</ele>
        <time>2024-08-12T13:37:16Z</time>
      </trkpt>
      <trkpt lat="44.78787" lon="6.28035">
        <ele>2550.8</ele>
        <time>2024-08-12T13:37:17Z</time>
      </trkpt>
      <trkpt lat="44.78787" lon="6.28038">
        <ele>2550.8</ele>
        <time>2024-08-12T13:37:18Z</time>
      </trkpt>
      <trkpt lat="44.78787" lon="6.28038">
        <ele>2550.8</ele>
        <time>2024-08-12T13:37:19Z</time>
      </trkpt>
      <trkpt lat="44.78787" lon="6.28038">
        <ele>2550.8</ele>
        <time>2024-08-12T13:37:20Z</time>
      </trkpt>
      <trkpt lat="44.78789" lon="6.28042">
        <ele>2550.8</ele>
        <time>2024-08-12T13:37:21Z</time>
      </trkpt>
      <trkpt lat="44.78789" lon="6.28042">
        <ele>2551</ele>
        <time>2024-08-12T13:37:22Z</time>
      </trkpt>
      <trkpt lat="44.78789" lon="6.28042">
        <ele>2551.2</ele>
        <time>2024-08-12T13:37:23Z</time>
      </trkpt>
      <trkpt lat="44.78789" lon="6.28042">
        <ele>2551.2</ele>
        <time>2024-08-12T13:37:24Z</time>
      </trkpt>
      <trkpt lat="44.78789" lon="6.28044">
        <ele>2551.4</ele>
        <time>2024-08-12T13:37:25Z</time>
      </trkpt>
      <trkpt lat="44.78789" lon="6.28044">
        <ele>2551.6</ele>
        <time>2024-08-12T13:37:26Z</time>
      </trkpt>
      <trkpt lat="44.78789" lon="6.28044">
        <ele>2552</ele>
        <time>2024-08-12T13:37:27Z</time>
      </trkpt>
      <trkpt lat="44.78791" lon="6.28046">
        <ele>2552</ele>
        <time>2024-08-12T13:37:28Z</time>
      </trkpt>
      <trkpt lat="44.78791" lon="6.28046">
        <ele>2552.2</ele>
        <time>2024-08-12T13:37:29Z</time>
      </trkpt>
      <trkpt lat="44.78791" lon="6.28046">
        <ele>2552.8</ele>
        <time>2024-08-12T13:37:30Z</time>
      </trkpt>
      <trkpt lat="44.78793" lon="6.28049">
        <ele>2553.2</ele>
        <time>2024-08-12T13:37:31Z</time>
      </trkpt>
      <trkpt lat="44.78793" lon="6.28049">
        <ele>2553.4</ele>
        <time>2024-08-12T13:37:32Z</time>
      </trkpt>
      <trkpt lat="44.78793" lon="6.28049">
        <ele>2553.4</ele>
        <time>2024-08-12T13:37:33Z</time>
      </trkpt>
      <trkpt lat="44.78793" lon="6.28052">
        <ele>2553.6</ele>
        <time>2024-08-12T13:37:34Z</time>
      </trkpt>
      <trkpt lat="44.78793" lon="6.28052">
        <ele>2554</ele>
        <time>2024-08-12T13:37:35Z</time>
      </trkpt>
      <trkpt lat="44.78793" lon="6.28052">
        <ele>2554.4</ele>
        <time>2024-08-12T13:37:36Z</time>
      </trkpt>
      <trkpt lat="44.78793" lon="6.28052">
        <ele>2554.8</ele>
        <time>2024-08-12T13:37:37Z</time>
      </trkpt>
      <trkpt lat="44.78794" lon="6.28055">
        <ele>2554.8</ele>
        <time>2024-08-12T13:37:38Z</time>
      </trkpt>
      <trkpt lat="44.78794" lon="6.28055">
        <ele>2554.8</ele>
        <time>2024-08-12T13:37:39Z</time>
      </trkpt>
      <trkpt lat="44.78795" lon="6.28058">
        <ele>2554.8</ele>
        <time>2024-08-12T13:37:40Z</time>
      </trkpt>
      <trkpt lat="44.78795" lon="6.28058">
        <ele>2555</ele>
        <time>2024-08-12T13:37:41Z</time>
      </trkpt>
      <trkpt lat="44.78795" lon="6.28058">
        <ele>2555.6</ele>
        <time>2024-08-12T13:37:42Z</time>
      </trkpt>
      <trkpt lat="44.78795" lon="6.28058">
        <ele>2555.6</ele>
        <time>2024-08-12T13:37:43Z</time>
      </trkpt>
      <trkpt lat="44.78795" lon="6.28058">
        <ele>2555.6</ele>
        <time>2024-08-12T13:37:44Z</time>
      </trkpt>
      <trkpt lat="44.78796" lon="6.28057">
        <ele>2555.6</ele>
        <time>2024-08-12T13:37:45Z</time>
      </trkpt>
      <trkpt lat="44.78796" lon="6.28057">
        <ele>2556</ele>
        <time>2024-08-12T13:37:46Z</time>
      </trkpt>
      <trkpt lat="44.78796" lon="6.28057">
        <ele>2556</ele>
        <time>2024-08-12T13:37:47Z</time>
      </trkpt>
      <trkpt lat="44.78796" lon="6.28057">
        <ele>2557</ele>
        <time>2024-08-12T13:37:48Z</time>
      </trkpt>
      <trkpt lat="44.78797" lon="6.28054">
        <ele>2557</ele>
        <time>2024-08-12T13:37:49Z</time>
      </trkpt>
      <trkpt lat="44.78797" lon="6.28054">
        <ele>2557</ele>
        <time>2024-08-12T13:37:50Z</time>
      </trkpt>
      <trkpt lat="44.78797" lon="6.28054">
        <ele>2557.4</ele>
        <time>2024-08-12T13:37:51Z</time>
      </trkpt>
      <trkpt lat="44.78797" lon="6.28054">
        <ele>2557.8</ele>
        <time>2024-08-12T13:37:52Z</time>
      </trkpt>
      <trkpt lat="44.78797" lon="6.28054">
        <ele>2557.8</ele>
        <time>2024-08-12T13:37:53Z</time>
      </trkpt>
      <trkpt lat="44.78798" lon="6.28052">
        <ele>2557.8</ele>
        <time>2024-08-12T13:37:54Z</time>
      </trkpt>
      <trkpt lat="44.78798" lon="6.28052">
        <ele>2557.8</ele>
        <time>2024-08-12T13:37:55Z</time>
      </trkpt>
      <trkpt lat="44.78799" lon="6.28049">
        <ele>2557.8</ele>
        <time>2024-08-12T13:37:56Z</time>
      </trkpt>
      <trkpt lat="44.78799" lon="6.28049">
        <ele>2558.2</ele>
        <time>2024-08-12T13:37:57Z</time>
      </trkpt>
      <trkpt lat="44.78799" lon="6.28046">
        <ele>2558.2</ele>
        <time>2024-08-12T13:37:58Z</time>
      </trkpt>
      <trkpt lat="44.78799" lon="6.28046">
        <ele>2558.2</ele>
        <time>2024-08-12T13:37:59Z</time>
      </trkpt>
      <trkpt lat="44.788" lon="6.28042">
        <ele>2558.2</ele>
        <time>2024-08-12T13:38:00Z</time>
      </trkpt>
      <trkpt lat="44.788" lon="6.28042">
        <ele>2558.6</ele>
        <time>2024-08-12T13:38:01Z</time>
      </trkpt>
      <trkpt lat="44.788" lon="6.2804">
        <ele>2558.6</ele>
        <time>2024-08-12T13:38:02Z</time>
      </trkpt>
      <trkpt lat="44.788" lon="6.2804">
        <ele>2558.8</ele>
        <time>2024-08-12T13:38:03Z</time>
      </trkpt>
      <trkpt lat="44.788" lon="6.2804">
        <ele>2559</ele>
        <time>2024-08-12T13:38:04Z</time>
      </trkpt>
      <trkpt lat="44.78802" lon="6.28039">
        <ele>2559.4</ele>
        <time>2024-08-12T13:38:05Z</time>
      </trkpt>
      <trkpt lat="44.78802" lon="6.28039">
        <ele>2559.8</ele>
        <time>2024-08-12T13:38:06Z</time>
      </trkpt>
      <trkpt lat="44.78802" lon="6.28039">
        <ele>2560.4</ele>
        <time>2024-08-12T13:38:07Z</time>
      </trkpt>
      <trkpt lat="44.78803" lon="6.28042">
        <ele>2560.8</ele>
        <time>2024-08-12T13:38:08Z</time>
      </trkpt>
      <trkpt lat="44.78803" lon="6.28042">
        <ele>2561</ele>
        <time>2024-08-12T13:38:09Z</time>
      </trkpt>
      <trkpt lat="44.78804" lon="6.28044">
        <ele>2561</ele>
        <time>2024-08-12T13:38:10Z</time>
      </trkpt>
      <trkpt lat="44.78804" lon="6.28044">
        <ele>2561.4</ele>
        <time>2024-08-12T13:38:11Z</time>
      </trkpt>
      <trkpt lat="44.78805" lon="6.28047">
        <ele>2561.4</ele>
        <time>2024-08-12T13:38:12Z</time>
      </trkpt>
      <trkpt lat="44.78805" lon="6.28047">
        <ele>2561.6</ele>
        <time>2024-08-12T13:38:13Z</time>
      </trkpt>
      <trkpt lat="44.78805" lon="6.2805">
        <ele>2561.6</ele>
        <time>2024-08-12T13:38:14Z</time>
      </trkpt>
      <trkpt lat="44.78805" lon="6.2805">
        <ele>2561.8</ele>
        <time>2024-08-12T13:38:15Z</time>
      </trkpt>
      <trkpt lat="44.78805" lon="6.28053">
        <ele>2561.8</ele>
        <time>2024-08-12T13:38:16Z</time>
      </trkpt>
      <trkpt lat="44.78805" lon="6.28053">
        <ele>2561.8</ele>
        <time>2024-08-12T13:38:17Z</time>
      </trkpt>
      <trkpt lat="44.78805" lon="6.28057">
        <ele>2561.8</ele>
        <time>2024-08-12T13:38:18Z</time>
      </trkpt>
      <trkpt lat="44.78805" lon="6.28057">
        <ele>2562</ele>
        <time>2024-08-12T13:38:19Z</time>
      </trkpt>
      <trkpt lat="44.78805" lon="6.2806">
        <ele>2562</ele>
        <time>2024-08-12T13:38:20Z</time>
      </trkpt>
      <trkpt lat="44.78805" lon="6.2806">
        <ele>2562.2</ele>
        <time>2024-08-12T13:38:21Z</time>
      </trkpt>
      <trkpt lat="44.78805" lon="6.28064">
        <ele>2562.4</ele>
        <time>2024-08-12T13:38:22Z</time>
      </trkpt>
      <trkpt lat="44.78805" lon="6.28064">
        <ele>2562.8</ele>
        <time>2024-08-12T13:38:23Z</time>
      </trkpt>
      <trkpt lat="44.78805" lon="6.28067">
        <ele>2562.8</ele>
        <time>2024-08-12T13:38:24Z</time>
      </trkpt>
      <trkpt lat="44.78805" lon="6.28067">
        <ele>2562.6</ele>
        <time>2024-08-12T13:38:25Z</time>
      </trkpt>
      <trkpt lat="44.78805" lon="6.28067">
        <ele>2562.6</ele>
        <time>2024-08-12T13:38:26Z</time>
      </trkpt>
      <trkpt lat="44.78805" lon="6.28067">
        <ele>2562.6</ele>
        <time>2024-08-12T13:38:27Z</time>
      </trkpt>
      <trkpt lat="44.78807" lon="6.28069">
        <ele>2562.6</ele>
        <time>2024-08-12T13:38:28Z</time>
      </trkpt>
      <trkpt lat="44.78807" lon="6.28069">
        <ele>2562.6</ele>
        <time>2024-08-12T13:38:29Z</time>
      </trkpt>
      <trkpt lat="44.78807" lon="6.28069">
        <ele>2562.8</ele>
        <time>2024-08-12T13:38:30Z</time>
      </trkpt>
      <trkpt lat="44.78807" lon="6.28069">
        <ele>2563</ele>
        <time>2024-08-12T13:38:31Z</time>
      </trkpt>
      <trkpt lat="44.78808" lon="6.28072">
        <ele>2563.2</ele>
        <time>2024-08-12T13:38:32Z</time>
      </trkpt>
      <trkpt lat="44.78808" lon="6.28072">
        <ele>2564</ele>
        <time>2024-08-12T13:38:33Z</time>
      </trkpt>
      <trkpt lat="44.78808" lon="6.28072">
        <ele>2564.4</ele>
        <time>2024-08-12T13:38:34Z</time>
      </trkpt>
      <trkpt lat="44.7881" lon="6.28071">
        <ele>2564.4</ele>
        <time>2024-08-12T13:38:35Z</time>
      </trkpt>
      <trkpt lat="44.7881" lon="6.28071">
        <ele>2564.8</ele>
        <time>2024-08-12T13:38:36Z</time>
      </trkpt>
      <trkpt lat="44.78811" lon="6.28069">
        <ele>2564.8</ele>
        <time>2024-08-12T13:38:37Z</time>
      </trkpt>
      <trkpt lat="44.78811" lon="6.28069">
        <ele>2564.8</ele>
        <time>2024-08-12T13:38:38Z</time>
      </trkpt>
      <trkpt lat="44.78811" lon="6.28069">
        <ele>2564.8</ele>
        <time>2024-08-12T13:38:39Z</time>
      </trkpt>
      <trkpt lat="44.78811" lon="6.28065">
        <ele>2565</ele>
        <time>2024-08-12T13:38:40Z</time>
      </trkpt>
      <trkpt lat="44.78811" lon="6.28065">
        <ele>2565.4</ele>
        <time>2024-08-12T13:38:41Z</time>
      </trkpt>
      <trkpt lat="44.78811" lon="6.28062">
        <ele>2565.4</ele>
        <time>2024-08-12T13:38:42Z</time>
      </trkpt>
      <trkpt lat="44.78811" lon="6.28062">
        <ele>2565.6</ele>
        <time>2024-08-12T13:38:43Z</time>
      </trkpt>
      <trkpt lat="44.78811" lon="6.2806">
        <ele>2566.2</ele>
        <time>2024-08-12T13:38:44Z</time>
      </trkpt>
      <trkpt lat="44.78811" lon="6.2806">
        <ele>2566.6</ele>
        <time>2024-08-12T13:38:45Z</time>
      </trkpt>
      <trkpt lat="44.78812" lon="6.28057">
        <ele>2567</ele>
        <time>2024-08-12T13:38:46Z</time>
      </trkpt>
      <trkpt lat="44.78812" lon="6.28057">
        <ele>2567.2</ele>
        <time>2024-08-12T13:38:47Z</time>
      </trkpt>
      <trkpt lat="44.78812" lon="6.28054">
        <ele>2567.4</ele>
        <time>2024-08-12T13:38:48Z</time>
      </trkpt>
      <trkpt lat="44.78812" lon="6.28054">
        <ele>2567.4</ele>
        <time>2024-08-12T13:38:49Z</time>
      </trkpt>
      <trkpt lat="44.78813" lon="6.28051">
        <ele>2567.4</ele>
        <time>2024-08-12T13:38:50Z</time>
      </trkpt>
      <trkpt lat="44.78813" lon="6.28051">
        <ele>2567.8</ele>
        <time>2024-08-12T13:38:51Z</time>
      </trkpt>
      <trkpt lat="44.78813" lon="6.28048">
        <ele>2567.8</ele>
        <time>2024-08-12T13:38:52Z</time>
      </trkpt>
      <trkpt lat="44.78813" lon="6.28048">
        <ele>2567.8</ele>
        <time>2024-08-12T13:38:53Z</time>
      </trkpt>
      <trkpt lat="44.78814" lon="6.28046">
        <ele>2567.8</ele>
        <time>2024-08-12T13:38:54Z</time>
      </trkpt>
      <trkpt lat="44.78814" lon="6.28046">
        <ele>2568</ele>
        <time>2024-08-12T13:38:55Z</time>
      </trkpt>
      <trkpt lat="44.78814" lon="6.28046">
        <ele>2568.4</ele>
        <time>2024-08-12T13:38:56Z</time>
      </trkpt>
      <trkpt lat="44.78815" lon="6.28042">
        <ele>2568.6</ele>
        <time>2024-08-12T13:38:57Z</time>
      </trkpt>
      <trkpt lat="44.78815" lon="6.28042">
        <ele>2569</ele>
        <time>2024-08-12T13:38:58Z</time>
      </trkpt>
      <trkpt lat="44.78816" lon="6.28039">
        <ele>2569</ele>
        <time>2024-08-12T13:38:59Z</time>
      </trkpt>
      <trkpt lat="44.78816" lon="6.28039">
        <ele>2569</ele>
        <time>2024-08-12T13:39:00Z</time>
      </trkpt>
      <trkpt lat="44.78817" lon="6.28036">
        <ele>2569</ele>
        <time>2024-08-12T13:39:01Z</time>
      </trkpt>
      <trkpt lat="44.78817" lon="6.28036">
        <ele>2569.6</ele>
        <time>2024-08-12T13:39:02Z</time>
      </trkpt>
      <trkpt lat="44.78818" lon="6.28033">
        <ele>2569.6</ele>
        <time>2024-08-12T13:39:03Z</time>
      </trkpt>
      <trkpt lat="44.78818" lon="6.28033">
        <ele>2569.4</ele>
        <time>2024-08-12T13:39:04Z</time>
      </trkpt>
      <trkpt lat="44.78819" lon="6.2803">
        <ele>2569.4</ele>
        <time>2024-08-12T13:39:05Z</time>
      </trkpt>
      <trkpt lat="44.78819" lon="6.2803">
        <ele>2569.4</ele>
        <time>2024-08-12T13:39:06Z</time>
      </trkpt>
      <trkpt lat="44.7882" lon="6.28027">
        <ele>2569</ele>
        <time>2024-08-12T13:39:07Z</time>
      </trkpt>
      <trkpt lat="44.7882" lon="6.28027">
        <ele>2569</ele>
        <time>2024-08-12T13:39:08Z</time>
      </trkpt>
      <trkpt lat="44.7882" lon="6.28024">
        <ele>2569.6</ele>
        <time>2024-08-12T13:39:09Z</time>
      </trkpt>
      <trkpt lat="44.7882" lon="6.28024">
        <ele>2569.8</ele>
        <time>2024-08-12T13:39:10Z</time>
      </trkpt>
      <trkpt lat="44.78821" lon="6.28021">
        <ele>2570</ele>
        <time>2024-08-12T13:39:11Z</time>
      </trkpt>
      <trkpt lat="44.78821" lon="6.28021">
        <ele>2570</ele>
        <time>2024-08-12T13:39:12Z</time>
      </trkpt>
      <trkpt lat="44.78822" lon="6.28019">
        <ele>2570.6</ele>
        <time>2024-08-12T13:39:13Z</time>
      </trkpt>
      <trkpt lat="44.78822" lon="6.28019">
        <ele>2570.6</ele>
        <time>2024-08-12T13:39:14Z</time>
      </trkpt>
      <trkpt lat="44.78822" lon="6.28019">
        <ele>2570.8</ele>
        <time>2024-08-12T13:39:15Z</time>
      </trkpt>
      <trkpt lat="44.78822" lon="6.28019">
        <ele>2571.2</ele>
        <time>2024-08-12T13:39:16Z</time>
      </trkpt>
      <trkpt lat="44.78824" lon="6.2802">
        <ele>2571.2</ele>
        <time>2024-08-12T13:39:17Z</time>
      </trkpt>
      <trkpt lat="44.78824" lon="6.2802">
        <ele>2571.2</ele>
        <time>2024-08-12T13:39:18Z</time>
      </trkpt>
      <trkpt lat="44.78824" lon="6.2802">
        <ele>2571.2</ele>
        <time>2024-08-12T13:39:19Z</time>
      </trkpt>
      <trkpt lat="44.78826" lon="6.28018">
        <ele>2571.4</ele>
        <time>2024-08-12T13:39:20Z</time>
      </trkpt>
      <trkpt lat="44.78826" lon="6.28018">
        <ele>2571.6</ele>
        <time>2024-08-12T13:39:21Z</time>
      </trkpt>
      <trkpt lat="44.78826" lon="6.28018">
        <ele>2572</ele>
        <time>2024-08-12T13:39:22Z</time>
      </trkpt>
      <trkpt lat="44.78828" lon="6.28016">
        <ele>2572</ele>
        <time>2024-08-12T13:39:23Z</time>
      </trkpt>
      <trkpt lat="44.78828" lon="6.28016">
        <ele>2572</ele>
        <time>2024-08-12T13:39:24Z</time>
      </trkpt>
      <trkpt lat="44.78828" lon="6.28016">
        <ele>2572.2</ele>
        <time>2024-08-12T13:39:25Z</time>
      </trkpt>
      <trkpt lat="44.78829" lon="6.28012">
        <ele>2572.2</ele>
        <time>2024-08-12T13:39:26Z</time>
      </trkpt>
      <trkpt lat="44.78829" lon="6.28012">
        <ele>2572.4</ele>
        <time>2024-08-12T13:39:27Z</time>
      </trkpt>
      <trkpt lat="44.78829" lon="6.28012">
        <ele>2573.2</ele>
        <time>2024-08-12T13:39:28Z</time>
      </trkpt>
      <trkpt lat="44.7883" lon="6.28009">
        <ele>2573.6</ele>
        <time>2024-08-12T13:39:29Z</time>
      </trkpt>
      <trkpt lat="44.7883" lon="6.28009">
        <ele>2573.8</ele>
        <time>2024-08-12T13:39:30Z</time>
      </trkpt>
      <trkpt lat="44.7883" lon="6.28009">
        <ele>2573.8</ele>
        <time>2024-08-12T13:39:31Z</time>
      </trkpt>
      <trkpt lat="44.78831" lon="6.28006">
        <ele>2574</ele>
        <time>2024-08-12T13:39:32Z</time>
      </trkpt>
      <trkpt lat="44.78831" lon="6.28006">
        <ele>2574</ele>
        <time>2024-08-12T13:39:33Z</time>
      </trkpt>
      <trkpt lat="44.78831" lon="6.28006">
        <ele>2574.2</ele>
        <time>2024-08-12T13:39:34Z</time>
      </trkpt>
      <trkpt lat="44.78833" lon="6.28004">
        <ele>2574.2</ele>
        <time>2024-08-12T13:39:35Z</time>
      </trkpt>
      <trkpt lat="44.78833" lon="6.28004">
        <ele>2574.4</ele>
        <time>2024-08-12T13:39:36Z</time>
      </trkpt>
      <trkpt lat="44.78833" lon="6.28004">
        <ele>2574.4</ele>
        <time>2024-08-12T13:39:37Z</time>
      </trkpt>
      <trkpt lat="44.78834" lon="6.28001">
        <ele>2574.6</ele>
        <time>2024-08-12T13:39:38Z</time>
      </trkpt>
      <trkpt lat="44.78834" lon="6.28001">
        <ele>2575</ele>
        <time>2024-08-12T13:39:39Z</time>
      </trkpt>
      <trkpt lat="44.78834" lon="6.28001">
        <ele>2575.4</ele>
        <time>2024-08-12T13:39:40Z</time>
      </trkpt>
      <trkpt lat="44.78836" lon="6.27999">
        <ele>2575.4</ele>
        <time>2024-08-12T13:39:41Z</time>
      </trkpt>
      <trkpt lat="44.78836" lon="6.27999">
        <ele>2575.6</ele>
        <time>2024-08-12T13:39:42Z</time>
      </trkpt>
      <trkpt lat="44.78836" lon="6.27999">
        <ele>2575.8</ele>
        <time>2024-08-12T13:39:43Z</time>
      </trkpt>
      <trkpt lat="44.78837" lon="6.27996">
        <ele>2575.8</ele>
        <time>2024-08-12T13:39:44Z</time>
      </trkpt>
      <trkpt lat="44.78837" lon="6.27996">
        <ele>2576</ele>
        <time>2024-08-12T13:39:45Z</time>
      </trkpt>
      <trkpt lat="44.78837" lon="6.27996">
        <ele>2576.2</ele>
        <time>2024-08-12T13:39:46Z</time>
      </trkpt>
      <trkpt lat="44.78838" lon="6.28">
        <ele>2577</ele>
        <time>2024-08-12T13:39:47Z</time>
      </trkpt>
      <trkpt lat="44.78838" lon="6.28">
        <ele>2577.2</ele>
        <time>2024-08-12T13:39:48Z</time>
      </trkpt>
      <trkpt lat="44.78838" lon="6.28003">
        <ele>2577.2</ele>
        <time>2024-08-12T13:39:49Z</time>
      </trkpt>
      <trkpt lat="44.78838" lon="6.28003">
        <ele>2577.4</ele>
        <time>2024-08-12T13:39:50Z</time>
      </trkpt>
      <trkpt lat="44.78838" lon="6.28006">
        <ele>2577.6</ele>
        <time>2024-08-12T13:39:51Z</time>
      </trkpt>
      <trkpt lat="44.78838" lon="6.28006">
        <ele>2577.6</ele>
        <time>2024-08-12T13:39:52Z</time>
      </trkpt>
      <trkpt lat="44.78838" lon="6.28009">
        <ele>2577.6</ele>
        <time>2024-08-12T13:39:53Z</time>
      </trkpt>
      <trkpt lat="44.78838" lon="6.28009">
        <ele>2577.6</ele>
        <time>2024-08-12T13:39:54Z</time>
      </trkpt>
      <trkpt lat="44.78839" lon="6.28012">
        <ele>2577.6</ele>
        <time>2024-08-12T13:39:55Z</time>
      </trkpt>
      <trkpt lat="44.78839" lon="6.28012">
        <ele>2577.6</ele>
        <time>2024-08-12T13:39:56Z</time>
      </trkpt>
      <trkpt lat="44.7884" lon="6.28015">
        <ele>2577.8</ele>
        <time>2024-08-12T13:39:57Z</time>
      </trkpt>
      <trkpt lat="44.7884" lon="6.28015">
        <ele>2578.2</ele>
        <time>2024-08-12T13:39:58Z</time>
      </trkpt>
      <trkpt lat="44.7884" lon="6.28018">
        <ele>2578.2</ele>
        <time>2024-08-12T13:39:59Z</time>
      </trkpt>
      <trkpt lat="44.7884" lon="6.28018">
        <ele>2578.4</ele>
        <time>2024-08-12T13:40:00Z</time>
      </trkpt>
      <trkpt lat="44.7884" lon="6.28018">
        <ele>2578.4</ele>
        <time>2024-08-12T13:40:01Z</time>
      </trkpt>
      <trkpt lat="44.78839" lon="6.28022">
        <ele>2578.8</ele>
        <time>2024-08-12T13:40:02Z</time>
      </trkpt>
      <trkpt lat="44.78839" lon="6.28022">
        <ele>2578.8</ele>
        <time>2024-08-12T13:40:03Z</time>
      </trkpt>
      <trkpt lat="44.78839" lon="6.28025">
        <ele>2579.4</ele>
        <time>2024-08-12T13:40:04Z</time>
      </trkpt>
      <trkpt lat="44.78839" lon="6.28025">
        <ele>2580</ele>
        <time>2024-08-12T13:40:05Z</time>
      </trkpt>
      <trkpt lat="44.78839" lon="6.28028">
        <ele>2580</ele>
        <time>2024-08-12T13:40:06Z</time>
      </trkpt>
      <trkpt lat="44.78839" lon="6.28028">
        <ele>2580.2</ele>
        <time>2024-08-12T13:40:07Z</time>
      </trkpt>
      <trkpt lat="44.78838" lon="6.28031">
        <ele>2580</ele>
        <time>2024-08-12T13:40:08Z</time>
      </trkpt>
      <trkpt lat="44.78838" lon="6.28031">
        <ele>2580</ele>
        <time>2024-08-12T13:40:09Z</time>
      </trkpt>
      <trkpt lat="44.78838" lon="6.28031">
        <ele>2579.6</ele>
        <time>2024-08-12T13:40:10Z</time>
      </trkpt>
      <trkpt lat="44.78838" lon="6.28034">
        <ele>2579.6</ele>
        <time>2024-08-12T13:40:11Z</time>
      </trkpt>
      <trkpt lat="44.78838" lon="6.28034">
        <ele>2579.8</ele>
        <time>2024-08-12T13:40:12Z</time>
      </trkpt>
      <trkpt lat="44.78838" lon="6.28034">
        <ele>2580</ele>
        <time>2024-08-12T13:40:13Z</time>
      </trkpt>
      <trkpt lat="44.78839" lon="6.28037">
        <ele>2580</ele>
        <time>2024-08-12T13:40:14Z</time>
      </trkpt>
      <trkpt lat="44.78839" lon="6.28037">
        <ele>2580.6</ele>
        <time>2024-08-12T13:40:15Z</time>
      </trkpt>
      <trkpt lat="44.78839" lon="6.28037">
        <ele>2580.6</ele>
        <time>2024-08-12T13:40:16Z</time>
      </trkpt>
      <trkpt lat="44.7884" lon="6.2804">
        <ele>2580.8</ele>
        <time>2024-08-12T13:40:17Z</time>
      </trkpt>
      <trkpt lat="44.7884" lon="6.2804">
        <ele>2580.8</ele>
        <time>2024-08-12T13:40:18Z</time>
      </trkpt>
      <trkpt lat="44.7884" lon="6.2804">
        <ele>2581.4</ele>
        <time>2024-08-12T13:40:19Z</time>
      </trkpt>
      <trkpt lat="44.78841" lon="6.28042">
        <ele>2581.8</ele>
        <time>2024-08-12T13:40:20Z</time>
      </trkpt>
      <trkpt lat="44.78841" lon="6.28042">
        <ele>2581.8</ele>
        <time>2024-08-12T13:40:21Z</time>
      </trkpt>
      <trkpt lat="44.78841" lon="6.28042">
        <ele>2582</ele>
        <time>2024-08-12T13:40:22Z</time>
      </trkpt>
      <trkpt lat="44.78842" lon="6.28044">
        <ele>2582.2</ele>
        <time>2024-08-12T13:40:23Z</time>
      </trkpt>
      <trkpt lat="44.78842" lon="6.28044">
        <ele>2582.4</ele>
        <time>2024-08-12T13:40:24Z</time>
      </trkpt>
      <trkpt lat="44.78842" lon="6.28044">
        <ele>2582.6</ele>
        <time>2024-08-12T13:40:25Z</time>
      </trkpt>
      <trkpt lat="44.78844" lon="6.28043">
        <ele>2582.8</ele>
        <time>2024-08-12T13:40:26Z</time>
      </trkpt>
      <trkpt lat="44.78844" lon="6.28043">
        <ele>2583</ele>
        <time>2024-08-12T13:40:27Z</time>
      </trkpt>
      <trkpt lat="44.78844" lon="6.28043">
        <ele>2583.2</ele>
        <time>2024-08-12T13:40:28Z</time>
      </trkpt>
      <trkpt lat="44.78845" lon="6.28039">
        <ele>2583.6</ele>
        <time>2024-08-12T13:40:29Z</time>
      </trkpt>
      <trkpt lat="44.78845" lon="6.28039">
        <ele>2584.2</ele>
        <time>2024-08-12T13:40:30Z</time>
      </trkpt>
      <trkpt lat="44.78845" lon="6.28039">
        <ele>2584.6</ele>
        <time>2024-08-12T13:40:31Z</time>
      </trkpt>
      <trkpt lat="44.78845" lon="6.28035">
        <ele>2584.6</ele>
        <time>2024-08-12T13:40:32Z</time>
      </trkpt>
      <trkpt lat="44.78845" lon="6.28035">
        <ele>2585</ele>
        <time>2024-08-12T13:40:33Z</time>
      </trkpt>
      <trkpt lat="44.78845" lon="6.28035">
        <ele>2585.2</ele>
        <time>2024-08-12T13:40:34Z</time>
      </trkpt>
      <trkpt lat="44.78846" lon="6.28032">
        <ele>2585.6</ele>
        <time>2024-08-12T13:40:35Z</time>
      </trkpt>
      <trkpt lat="44.78846" lon="6.28032">
        <ele>2585.8</ele>
        <time>2024-08-12T13:40:36Z</time>
      </trkpt>
      <trkpt lat="44.78848" lon="6.28031">
        <ele>2585.8</ele>
        <time>2024-08-12T13:40:37Z</time>
      </trkpt>
      <trkpt lat="44.78848" lon="6.28031">
        <ele>2586</ele>
        <time>2024-08-12T13:40:38Z</time>
      </trkpt>
      <trkpt lat="44.78848" lon="6.28031">
        <ele>2586.2</ele>
        <time>2024-08-12T13:40:39Z</time>
      </trkpt>
      <trkpt lat="44.78849" lon="6.28028">
        <ele>2586.6</ele>
        <time>2024-08-12T13:40:40Z</time>
      </trkpt>
      <trkpt lat="44.78849" lon="6.28028">
        <ele>2586.8</ele>
        <time>2024-08-12T13:40:41Z</time>
      </trkpt>
      <trkpt lat="44.78851" lon="6.28025">
        <ele>2586.8</ele>
        <time>2024-08-12T13:40:42Z</time>
      </trkpt>
      <trkpt lat="44.78851" lon="6.28025">
        <ele>2587</ele>
        <time>2024-08-12T13:40:43Z</time>
      </trkpt>
      <trkpt lat="44.78852" lon="6.28023">
        <ele>2587.2</ele>
        <time>2024-08-12T13:40:44Z</time>
      </trkpt>
      <trkpt lat="44.78852" lon="6.28023">
        <ele>2587.6</ele>
        <time>2024-08-12T13:40:45Z</time>
      </trkpt>
      <trkpt lat="44.78854" lon="6.28022">
        <ele>2588</ele>
        <time>2024-08-12T13:40:46Z</time>
      </trkpt>
      <trkpt lat="44.78854" lon="6.28022">
        <ele>2588.2</ele>
        <time>2024-08-12T13:40:47Z</time>
      </trkpt>
      <trkpt lat="44.78854" lon="6.28022">
        <ele>2588.2</ele>
        <time>2024-08-12T13:40:48Z</time>
      </trkpt>
      <trkpt lat="44.78855" lon="6.2802">
        <ele>2588.2</ele>
        <time>2024-08-12T13:40:49Z</time>
      </trkpt>
      <trkpt lat="44.78855" lon="6.2802">
        <ele>2588.2</ele>
        <time>2024-08-12T13:40:50Z</time>
      </trkpt>
      <trkpt lat="44.78857" lon="6.28018">
        <ele>2588.4</ele>
        <time>2024-08-12T13:40:51Z</time>
      </trkpt>
      <trkpt lat="44.78857" lon="6.28018">
        <ele>2588.6</ele>
        <time>2024-08-12T13:40:52Z</time>
      </trkpt>
      <trkpt lat="44.78857" lon="6.28015">
        <ele>2588.6</ele>
        <time>2024-08-12T13:40:53Z</time>
      </trkpt>
      <trkpt lat="44.78857" lon="6.28015">
        <ele>2588.2</ele>
        <time>2024-08-12T13:40:54Z</time>
      </trkpt>
      <trkpt lat="44.78857" lon="6.28012">
        <ele>2588.2</ele>
        <time>2024-08-12T13:40:55Z</time>
      </trkpt>
      <trkpt lat="44.78857" lon="6.28012">
        <ele>2588.6</ele>
        <time>2024-08-12T13:40:56Z</time>
      </trkpt>
      <trkpt lat="44.78858" lon="6.2801">
        <ele>2588.8</ele>
        <time>2024-08-12T13:40:57Z</time>
      </trkpt>
      <trkpt lat="44.78858" lon="6.2801">
        <ele>2589</ele>
        <time>2024-08-12T13:40:58Z</time>
      </trkpt>
      <trkpt lat="44.78858" lon="6.28007">
        <ele>2589</ele>
        <time>2024-08-12T13:40:59Z</time>
      </trkpt>
      <trkpt lat="44.78858" lon="6.28007">
        <ele>2589.4</ele>
        <time>2024-08-12T13:41:00Z</time>
      </trkpt>
      <trkpt lat="44.78859" lon="6.28004">
        <ele>2590.2</ele>
        <time>2024-08-12T13:41:01Z</time>
      </trkpt>
      <trkpt lat="44.78859" lon="6.28004">
        <ele>2590.6</ele>
        <time>2024-08-12T13:41:02Z</time>
      </trkpt>
      <trkpt lat="44.78859" lon="6.28001">
        <ele>2590.6</ele>
        <time>2024-08-12T13:41:03Z</time>
      </trkpt>
      <trkpt lat="44.78859" lon="6.28001">
        <ele>2590.6</ele>
        <time>2024-08-12T13:41:04Z</time>
      </trkpt>
      <trkpt lat="44.78859" lon="6.28001">
        <ele>2591</ele>
        <time>2024-08-12T13:41:05Z</time>
      </trkpt>
      <trkpt lat="44.78861" lon="6.27998">
        <ele>2591.2</ele>
        <time>2024-08-12T13:41:06Z</time>
      </trkpt>
      <trkpt lat="44.78861" lon="6.27998">
        <ele>2591.2</ele>
        <time>2024-08-12T13:41:07Z</time>
      </trkpt>
      <trkpt lat="44.78861" lon="6.27998">
        <ele>2590.6</ele>
        <time>2024-08-12T13:41:08Z</time>
      </trkpt>
      <trkpt lat="44.78863" lon="6.27998">
        <ele>2590.6</ele>
        <time>2024-08-12T13:41:09Z</time>
      </trkpt>
      <trkpt lat="44.78863" lon="6.27998">
        <ele>2590.8</ele>
        <time>2024-08-12T13:41:10Z</time>
      </trkpt>
      <trkpt lat="44.78862" lon="6.28001">
        <ele>2591.8</ele>
        <time>2024-08-12T13:41:11Z</time>
      </trkpt>
      <trkpt lat="44.78862" lon="6.28001">
        <ele>2592.8</ele>
        <time>2024-08-12T13:41:12Z</time>
      </trkpt>
      <trkpt lat="44.78863" lon="6.28004">
        <ele>2593</ele>
        <time>2024-08-12T13:41:13Z</time>
      </trkpt>
      <trkpt lat="44.78863" lon="6.28004">
        <ele>2593.2</ele>
        <time>2024-08-12T13:41:14Z</time>
      </trkpt>
      <trkpt lat="44.78863" lon="6.28007">
        <ele>2593.2</ele>
        <time>2024-08-12T13:41:15Z</time>
      </trkpt>
      <trkpt lat="44.78863" lon="6.28007">
        <ele>2593.4</ele>
        <time>2024-08-12T13:41:16Z</time>
      </trkpt>
      <trkpt lat="44.78863" lon="6.28007">
        <ele>2593.4</ele>
        <time>2024-08-12T13:41:17Z</time>
      </trkpt>
      <trkpt lat="44.78863" lon="6.28007">
        <ele>2593.4</ele>
        <time>2024-08-12T13:41:18Z</time>
      </trkpt>
      <trkpt lat="44.78864" lon="6.2801">
        <ele>2593.6</ele>
        <time>2024-08-12T13:41:19Z</time>
      </trkpt>
      <trkpt lat="44.78864" lon="6.2801">
        <ele>2594</ele>
        <time>2024-08-12T13:41:20Z</time>
      </trkpt>
      <trkpt lat="44.78864" lon="6.2801">
        <ele>2594.6</ele>
        <time>2024-08-12T13:41:21Z</time>
      </trkpt>
      <trkpt lat="44.78865" lon="6.28014">
        <ele>2594.6</ele>
        <time>2024-08-12T13:41:22Z</time>
      </trkpt>
      <trkpt lat="44.78865" lon="6.28014">
        <ele>2594.6</ele>
        <time>2024-08-12T13:41:23Z</time>
      </trkpt>
      <trkpt lat="44.78866" lon="6.28018">
        <ele>2594.4</ele>
        <time>2024-08-12T13:41:24Z</time>
      </trkpt>
      <trkpt lat="44.78866" lon="6.28018">
        <ele>2594.4</ele>
        <time>2024-08-12T13:41:25Z</time>
      </trkpt>
      <trkpt lat="44.78866" lon="6.28022">
        <ele>2594.4</ele>
        <time>2024-08-12T13:41:26Z</time>
      </trkpt>
      <trkpt lat="44.78866" lon="6.28022">
        <ele>2594.6</ele>
        <time>2024-08-12T13:41:27Z</time>
      </trkpt>
      <trkpt lat="44.78867" lon="6.28024">
        <ele>2594.6</ele>
        <time>2024-08-12T13:41:28Z</time>
      </trkpt>
      <trkpt lat="44.78867" lon="6.28024">
        <ele>2594.6</ele>
        <time>2024-08-12T13:41:29Z</time>
      </trkpt>
      <trkpt lat="44.78867" lon="6.28024">
        <ele>2595</ele>
        <time>2024-08-12T13:41:30Z</time>
      </trkpt>
      <trkpt lat="44.78867" lon="6.28027">
        <ele>2595</ele>
        <time>2024-08-12T13:41:31Z</time>
      </trkpt>
      <trkpt lat="44.78867" lon="6.28027">
        <ele>2595</ele>
        <time>2024-08-12T13:41:32Z</time>
      </trkpt>
      <trkpt lat="44.78867" lon="6.28027">
        <ele>2595.4</ele>
        <time>2024-08-12T13:41:33Z</time>
      </trkpt>
      <trkpt lat="44.78867" lon="6.28031">
        <ele>2596</ele>
        <time>2024-08-12T13:41:34Z</time>
      </trkpt>
      <trkpt lat="44.78867" lon="6.28031">
        <ele>2596.6</ele>
        <time>2024-08-12T13:41:35Z</time>
      </trkpt>
      <trkpt lat="44.78867" lon="6.28031">
        <ele>2596.8</ele>
        <time>2024-08-12T13:41:36Z</time>
      </trkpt>
      <trkpt lat="44.78867" lon="6.28034">
        <ele>2596.8</ele>
        <time>2024-08-12T13:41:37Z</time>
      </trkpt>
      <trkpt lat="44.78867" lon="6.28034">
        <ele>2597</ele>
        <time>2024-08-12T13:41:38Z</time>
      </trkpt>
      <trkpt lat="44.78867" lon="6.28034">
        <ele>2597.4</ele>
        <time>2024-08-12T13:41:39Z</time>
      </trkpt>
      <trkpt lat="44.78867" lon="6.28037">
        <ele>2597.4</ele>
        <time>2024-08-12T13:41:40Z</time>
      </trkpt>
      <trkpt lat="44.78867" lon="6.28037">
        <ele>2597.6</ele>
        <time>2024-08-12T13:41:41Z</time>
      </trkpt>
      <trkpt lat="44.78867" lon="6.28037">
        <ele>2598</ele>
        <time>2024-08-12T13:41:42Z</time>
      </trkpt>
      <trkpt lat="44.78867" lon="6.2804">
        <ele>2598.4</ele>
        <time>2024-08-12T13:41:43Z</time>
      </trkpt>
      <trkpt lat="44.78867" lon="6.2804">
        <ele>2598.6</ele>
        <time>2024-08-12T13:41:44Z</time>
      </trkpt>
      <trkpt lat="44.78867" lon="6.2804">
        <ele>2598.8</ele>
        <time>2024-08-12T13:41:45Z</time>
      </trkpt>
      <trkpt lat="44.78867" lon="6.28043">
        <ele>2599</ele>
        <time>2024-08-12T13:41:46Z</time>
      </trkpt>
      <trkpt lat="44.78867" lon="6.28043">
        <ele>2599.4</ele>
        <time>2024-08-12T13:41:47Z</time>
      </trkpt>
      <trkpt lat="44.78867" lon="6.28043">
        <ele>2599.6</ele>
        <time>2024-08-12T13:41:48Z</time>
      </trkpt>
      <trkpt lat="44.78867" lon="6.28046">
        <ele>2599.8</ele>
        <time>2024-08-12T13:41:49Z</time>
      </trkpt>
      <trkpt lat="44.78867" lon="6.28046">
        <ele>2600</ele>
        <time>2024-08-12T13:41:50Z</time>
      </trkpt>
      <trkpt lat="44.78867" lon="6.28046">
        <ele>2600.2</ele>
        <time>2024-08-12T13:41:51Z</time>
      </trkpt>
      <trkpt lat="44.78867" lon="6.28049">
        <ele>2600.2</ele>
        <time>2024-08-12T13:41:52Z</time>
      </trkpt>
      <trkpt lat="44.78867" lon="6.28049">
        <ele>2600.6</ele>
        <time>2024-08-12T13:41:53Z</time>
      </trkpt>
      <trkpt lat="44.78868" lon="6.28052">
        <ele>2600.6</ele>
        <time>2024-08-12T13:41:54Z</time>
      </trkpt>
      <trkpt lat="44.78868" lon="6.28052">
        <ele>2600.8</ele>
        <time>2024-08-12T13:41:55Z</time>
      </trkpt>
      <trkpt lat="44.78868" lon="6.28052">
        <ele>2601</ele>
        <time>2024-08-12T13:41:56Z</time>
      </trkpt>
      <trkpt lat="44.78869" lon="6.28056">
        <ele>2601.2</ele>
        <time>2024-08-12T13:41:57Z</time>
      </trkpt>
      <trkpt lat="44.78869" lon="6.28056">
        <ele>2601.2</ele>
        <time>2024-08-12T13:41:58Z</time>
      </trkpt>
      <trkpt lat="44.78869" lon="6.28058">
        <ele>2601.2</ele>
        <time>2024-08-12T13:41:59Z</time>
      </trkpt>
      <trkpt lat="44.78869" lon="6.28058">
        <ele>2601.8</ele>
        <time>2024-08-12T13:42:00Z</time>
      </trkpt>
      <trkpt lat="44.78869" lon="6.28058">
        <ele>2602</ele>
        <time>2024-08-12T13:42:01Z</time>
      </trkpt>
      <trkpt lat="44.78869" lon="6.28062">
        <ele>2602.4</ele>
        <time>2024-08-12T13:42:02Z</time>
      </trkpt>
      <trkpt lat="44.78869" lon="6.28062">
        <ele>2602.4</ele>
        <time>2024-08-12T13:42:03Z</time>
      </trkpt>
      <trkpt lat="44.78869" lon="6.28062">
        <ele>2602.6</ele>
        <time>2024-08-12T13:42:04Z</time>
      </trkpt>
      <trkpt lat="44.78869" lon="6.28066">
        <ele>2602.8</ele>
        <time>2024-08-12T13:42:05Z</time>
      </trkpt>
      <trkpt lat="44.78869" lon="6.28066">
        <ele>2603</ele>
        <time>2024-08-12T13:42:06Z</time>
      </trkpt>
      <trkpt lat="44.78869" lon="6.28066">
        <ele>2603.2</ele>
        <time>2024-08-12T13:42:07Z</time>
      </trkpt>
      <trkpt lat="44.78869" lon="6.28068">
        <ele>2603.2</ele>
        <time>2024-08-12T13:42:08Z</time>
      </trkpt>
      <trkpt lat="44.78869" lon="6.28068">
        <ele>2603.2</ele>
        <time>2024-08-12T13:42:09Z</time>
      </trkpt>
      <trkpt lat="44.78869" lon="6.28068">
        <ele>2603.4</ele>
        <time>2024-08-12T13:42:10Z</time>
      </trkpt>
      <trkpt lat="44.7887" lon="6.28071">
        <ele>2604</ele>
        <time>2024-08-12T13:42:11Z</time>
      </trkpt>
      <trkpt lat="44.7887" lon="6.28071">
        <ele>2604</ele>
        <time>2024-08-12T13:42:12Z</time>
      </trkpt>
      <trkpt lat="44.7887" lon="6.28071">
        <ele>2604.2</ele>
        <time>2024-08-12T13:42:13Z</time>
      </trkpt>
      <trkpt lat="44.7887" lon="6.28074">
        <ele>2604.6</ele>
        <time>2024-08-12T13:42:14Z</time>
      </trkpt>
      <trkpt lat="44.7887" lon="6.28074">
        <ele>2604.6</ele>
        <time>2024-08-12T13:42:15Z</time>
      </trkpt>
      <trkpt lat="44.7887" lon="6.28077">
        <ele>2604.6</ele>
        <time>2024-08-12T13:42:16Z</time>
      </trkpt>
      <trkpt lat="44.7887" lon="6.28077">
        <ele>2604.6</ele>
        <time>2024-08-12T13:42:17Z</time>
      </trkpt>
      <trkpt lat="44.78871" lon="6.28079">
        <ele>2604.6</ele>
        <time>2024-08-12T13:42:18Z</time>
      </trkpt>
      <trkpt lat="44.78871" lon="6.28079">
        <ele>2604.8</ele>
        <time>2024-08-12T13:42:19Z</time>
      </trkpt>
      <trkpt lat="44.78871" lon="6.28079">
        <ele>2605.6</ele>
        <time>2024-08-12T13:42:20Z</time>
      </trkpt>
      <trkpt lat="44.78871" lon="6.28083">
        <ele>2605.8</ele>
        <time>2024-08-12T13:42:21Z</time>
      </trkpt>
      <trkpt lat="44.78871" lon="6.28083">
        <ele>2605.8</ele>
        <time>2024-08-12T13:42:22Z</time>
      </trkpt>
      <trkpt lat="44.78871" lon="6.28083">
        <ele>2606.2</ele>
        <time>2024-08-12T13:42:23Z</time>
      </trkpt>
      <trkpt lat="44.78872" lon="6.28086">
        <ele>2606.2</ele>
        <time>2024-08-12T13:42:24Z</time>
      </trkpt>
      <trkpt lat="44.78872" lon="6.28086">
        <ele>2606.4</ele>
        <time>2024-08-12T13:42:25Z</time>
      </trkpt>
      <trkpt lat="44.78872" lon="6.28089">
        <ele>2606.6</ele>
        <time>2024-08-12T13:42:26Z</time>
      </trkpt>
      <trkpt lat="44.78872" lon="6.28089">
        <ele>2606.6</ele>
        <time>2024-08-12T13:42:27Z</time>
      </trkpt>
      <trkpt lat="44.78872" lon="6.28089">
        <ele>2607</ele>
        <time>2024-08-12T13:42:28Z</time>
      </trkpt>
      <trkpt lat="44.78873" lon="6.28093">
        <ele>2607</ele>
        <time>2024-08-12T13:42:29Z</time>
      </trkpt>
      <trkpt lat="44.78873" lon="6.28093">
        <ele>2607</ele>
        <time>2024-08-12T13:42:30Z</time>
      </trkpt>
      <trkpt lat="44.78873" lon="6.28093">
        <ele>2607.4</ele>
        <time>2024-08-12T13:42:31Z</time>
      </trkpt>
      <trkpt lat="44.78874" lon="6.28096">
        <ele>2607.6</ele>
        <time>2024-08-12T13:42:32Z</time>
      </trkpt>
      <trkpt lat="44.78874" lon="6.28096">
        <ele>2607.8</ele>
        <time>2024-08-12T13:42:33Z</time>
      </trkpt>
      <trkpt lat="44.78874" lon="6.28096">
        <ele>2608.2</ele>
        <time>2024-08-12T13:42:34Z</time>
      </trkpt>
      <trkpt lat="44.78874" lon="6.28099">
        <ele>2608.4</ele>
        <time>2024-08-12T13:42:35Z</time>
      </trkpt>
      <trkpt lat="44.78874" lon="6.28099">
        <ele>2608.6</ele>
        <time>2024-08-12T13:42:36Z</time>
      </trkpt>
      <trkpt lat="44.78874" lon="6.28099">
        <ele>2608.6</ele>
        <time>2024-08-12T13:42:37Z</time>
      </trkpt>
      <trkpt lat="44.78875" lon="6.28103">
        <ele>2608.8</ele>
        <time>2024-08-12T13:42:38Z</time>
      </trkpt>
      <trkpt lat="44.78875" lon="6.28103">
        <ele>2608.8</ele>
        <time>2024-08-12T13:42:39Z</time>
      </trkpt>
      <trkpt lat="44.78875" lon="6.28103">
        <ele>2609.4</ele>
        <time>2024-08-12T13:42:40Z</time>
      </trkpt>
      <trkpt lat="44.78876" lon="6.28106">
        <ele>2609.4</ele>
        <time>2024-08-12T13:42:41Z</time>
      </trkpt>
      <trkpt lat="44.78876" lon="6.28106">
        <ele>2609.6</ele>
        <time>2024-08-12T13:42:42Z</time>
      </trkpt>
      <trkpt lat="44.78876" lon="6.28106">
        <ele>2609.8</ele>
        <time>2024-08-12T13:42:43Z</time>
      </trkpt>
      <trkpt lat="44.78877" lon="6.28109">
        <ele>2610</ele>
        <time>2024-08-12T13:42:44Z</time>
      </trkpt>
      <trkpt lat="44.78877" lon="6.28109">
        <ele>2610.4</ele>
        <time>2024-08-12T13:42:45Z</time>
      </trkpt>
      <trkpt lat="44.78877" lon="6.28109">
        <ele>2611</ele>
        <time>2024-08-12T13:42:46Z</time>
      </trkpt>
      <trkpt lat="44.78877" lon="6.28112">
        <ele>2611</ele>
        <time>2024-08-12T13:42:47Z</time>
      </trkpt>
      <trkpt lat="44.78877" lon="6.28112">
        <ele>2611.2</ele>
        <time>2024-08-12T13:42:48Z</time>
      </trkpt>
      <trkpt lat="44.78877" lon="6.28112">
        <ele>2611.2</ele>
        <time>2024-08-12T13:42:49Z</time>
      </trkpt>
      <trkpt lat="44.78877" lon="6.28115">
        <ele>2611.2</ele>
        <time>2024-08-12T13:42:50Z</time>
      </trkpt>
      <trkpt lat="44.78877" lon="6.28115">
        <ele>2611.2</ele>
        <time>2024-08-12T13:42:51Z</time>
      </trkpt>
      <trkpt lat="44.78875" lon="6.28117">
        <ele>2611.2</ele>
        <time>2024-08-12T13:42:52Z</time>
      </trkpt>
      <trkpt lat="44.78875" lon="6.28117">
        <ele>2611.2</ele>
        <time>2024-08-12T13:42:53Z</time>
      </trkpt>
      <trkpt lat="44.78875" lon="6.28117">
        <ele>2611.2</ele>
        <time>2024-08-12T13:42:54Z</time>
      </trkpt>
      <trkpt lat="44.78875" lon="6.2812">
        <ele>2611.2</ele>
        <time>2024-08-12T13:42:55Z</time>
      </trkpt>
      <trkpt lat="44.78875" lon="6.2812">
        <ele>2611.4</ele>
        <time>2024-08-12T13:42:56Z</time>
      </trkpt>
      <trkpt lat="44.78875" lon="6.2812">
        <ele>2611.6</ele>
        <time>2024-08-12T13:42:57Z</time>
      </trkpt>
      <trkpt lat="44.78875" lon="6.2812">
        <ele>2611.6</ele>
        <time>2024-08-12T13:42:58Z</time>
      </trkpt>
      <trkpt lat="44.78875" lon="6.2812">
        <ele>2611.8</ele>
        <time>2024-08-12T13:42:59Z</time>
      </trkpt>
      <trkpt lat="44.78875" lon="6.28122">
        <ele>2612.2</ele>
        <time>2024-08-12T13:43:00Z</time>
      </trkpt>
      <trkpt lat="44.78875" lon="6.28122">
        <ele>2612.4</ele>
        <time>2024-08-12T13:43:01Z</time>
      </trkpt>
      <trkpt lat="44.78875" lon="6.28122">
        <ele>2613</ele>
        <time>2024-08-12T13:43:02Z</time>
      </trkpt>
      <trkpt lat="44.78875" lon="6.28126">
        <ele>2613</ele>
        <time>2024-08-12T13:43:03Z</time>
      </trkpt>
      <trkpt lat="44.78875" lon="6.28126">
        <ele>2613.6</ele>
        <time>2024-08-12T13:43:04Z</time>
      </trkpt>
      <trkpt lat="44.78875" lon="6.28126">
        <ele>2613.6</ele>
        <time>2024-08-12T13:43:05Z</time>
      </trkpt>
      <trkpt lat="44.78875" lon="6.28129">
        <ele>2613.8</ele>
        <time>2024-08-12T13:43:06Z</time>
      </trkpt>
      <trkpt lat="44.78875" lon="6.28129">
        <ele>2614</ele>
        <time>2024-08-12T13:43:07Z</time>
      </trkpt>
      <trkpt lat="44.78875" lon="6.28129">
        <ele>2614.2</ele>
        <time>2024-08-12T13:43:08Z</time>
      </trkpt>
      <trkpt lat="44.78876" lon="6.28132">
        <ele>2614.4</ele>
        <time>2024-08-12T13:43:09Z</time>
      </trkpt>
      <trkpt lat="44.78876" lon="6.28132">
        <ele>2614.6</ele>
        <time>2024-08-12T13:43:10Z</time>
      </trkpt>
      <trkpt lat="44.78876" lon="6.28132">
        <ele>2615</ele>
        <time>2024-08-12T13:43:11Z</time>
      </trkpt>
      <trkpt lat="44.78876" lon="6.28135">
        <ele>2615</ele>
        <time>2024-08-12T13:43:12Z</time>
      </trkpt>
      <trkpt lat="44.78876" lon="6.28135">
        <ele>2615.2</ele>
        <time>2024-08-12T13:43:13Z</time>
      </trkpt>
      <trkpt lat="44.78876" lon="6.28135">
        <ele>2615.6</ele>
        <time>2024-08-12T13:43:14Z</time>
      </trkpt>
      <trkpt lat="44.78875" lon="6.28139">
        <ele>2615.8</ele>
        <time>2024-08-12T13:43:15Z</time>
      </trkpt>
      <trkpt lat="44.78875" lon="6.28139">
        <ele>2616.4</ele>
        <time>2024-08-12T13:43:16Z</time>
      </trkpt>
      <trkpt lat="44.78875" lon="6.28142">
        <ele>2616.4</ele>
        <time>2024-08-12T13:43:17Z</time>
      </trkpt>
      <trkpt lat="44.78875" lon="6.28142">
        <ele>2616.4</ele>
        <time>2024-08-12T13:43:18Z</time>
      </trkpt>
      <trkpt lat="44.78875" lon="6.28142">
        <ele>2616.6</ele>
        <time>2024-08-12T13:43:19Z</time>
      </trkpt>
      <trkpt lat="44.78875" lon="6.28146">
        <ele>2616.6</ele>
        <time>2024-08-12T13:43:20Z</time>
      </trkpt>
      <trkpt lat="44.78875" lon="6.28146">
        <ele>2617</ele>
        <time>2024-08-12T13:43:21Z</time>
      </trkpt>
      <trkpt lat="44.78875" lon="6.28146">
        <ele>2617.4</ele>
        <time>2024-08-12T13:43:22Z</time>
      </trkpt>
      <trkpt lat="44.78875" lon="6.28149">
        <ele>2617.6</ele>
        <time>2024-08-12T13:43:23Z</time>
      </trkpt>
      <trkpt lat="44.78875" lon="6.28149">
        <ele>2618</ele>
        <time>2024-08-12T13:43:24Z</time>
      </trkpt>
      <trkpt lat="44.78876" lon="6.28151">
        <ele>2618</ele>
        <time>2024-08-12T13:43:25Z</time>
      </trkpt>
      <trkpt lat="44.78876" lon="6.28151">
        <ele>2618</ele>
        <time>2024-08-12T13:43:26Z</time>
      </trkpt>
      <trkpt lat="44.78876" lon="6.28151">
        <ele>2618.4</ele>
        <time>2024-08-12T13:43:27Z</time>
      </trkpt>
      <trkpt lat="44.78877" lon="6.28154">
        <ele>2618.4</ele>
        <time>2024-08-12T13:43:28Z</time>
      </trkpt>
      <trkpt lat="44.78877" lon="6.28154">
        <ele>2618</ele>
        <time>2024-08-12T13:43:29Z</time>
      </trkpt>
      <trkpt lat="44.78878" lon="6.28157">
        <ele>2617.8</ele>
        <time>2024-08-12T13:43:30Z</time>
      </trkpt>
      <trkpt lat="44.78878" lon="6.28157">
        <ele>2617.8</ele>
        <time>2024-08-12T13:43:31Z</time>
      </trkpt>
      <trkpt lat="44.78878" lon="6.28157">
        <ele>2617.8</ele>
        <time>2024-08-12T13:43:32Z</time>
      </trkpt>
      <trkpt lat="44.78878" lon="6.2816">
        <ele>2618.2</ele>
        <time>2024-08-12T13:43:33Z</time>
      </trkpt>
      <trkpt lat="44.78878" lon="6.2816">
        <ele>2619.8</ele>
        <time>2024-08-12T13:43:34Z</time>
      </trkpt>
      <trkpt lat="44.78878" lon="6.2816">
        <ele>2620.8</ele>
        <time>2024-08-12T13:43:35Z</time>
      </trkpt>
      <trkpt lat="44.78879" lon="6.28164">
        <ele>2620.8</ele>
        <time>2024-08-12T13:43:36Z</time>
      </trkpt>
      <trkpt lat="44.78879" lon="6.28164">
        <ele>2621.4</ele>
        <time>2024-08-12T13:43:37Z</time>
      </trkpt>
      <trkpt lat="44.78879" lon="6.28167">
        <ele>2622.2</ele>
        <time>2024-08-12T13:43:38Z</time>
      </trkpt>
      <trkpt lat="44.78879" lon="6.28167">
        <ele>2622.6</ele>
        <time>2024-08-12T13:43:39Z</time>
      </trkpt>
      <trkpt lat="44.78879" lon="6.2817">
        <ele>2622.8</ele>
        <time>2024-08-12T13:43:40Z</time>
      </trkpt>
      <trkpt lat="44.78879" lon="6.2817">
        <ele>2623</ele>
        <time>2024-08-12T13:43:41Z</time>
      </trkpt>
      <trkpt lat="44.7888" lon="6.28173">
        <ele>2623.2</ele>
        <time>2024-08-12T13:43:42Z</time>
      </trkpt>
      <trkpt lat="44.7888" lon="6.28173">
        <ele>2623.8</ele>
        <time>2024-08-12T13:43:43Z</time>
      </trkpt>
      <trkpt lat="44.7888" lon="6.28173">
        <ele>2624.6</ele>
        <time>2024-08-12T13:43:44Z</time>
      </trkpt>
      <trkpt lat="44.78881" lon="6.28176">
        <ele>2624.6</ele>
        <time>2024-08-12T13:43:45Z</time>
      </trkpt>
      <trkpt lat="44.78881" lon="6.28176">
        <ele>2625.2</ele>
        <time>2024-08-12T13:43:46Z</time>
      </trkpt>
      <trkpt lat="44.78881" lon="6.28176">
        <ele>2625.8</ele>
        <time>2024-08-12T13:43:47Z</time>
      </trkpt>
      <trkpt lat="44.78881" lon="6.28176">
        <ele>2626.4</ele>
        <time>2024-08-12T13:43:48Z</time>
      </trkpt>
      <trkpt lat="44.78881" lon="6.28176">
        <ele>2626.4</ele>
        <time>2024-08-12T13:43:49Z</time>
      </trkpt>
      <trkpt lat="44.78881" lon="6.28176">
        <ele>2626.4</ele>
        <time>2024-08-12T13:43:50Z</time>
      </trkpt>
      <trkpt lat="44.78881" lon="6.28176">
        <ele>2626.6</ele>
        <time>2024-08-12T13:43:51Z</time>
      </trkpt>
      <trkpt lat="44.78881" lon="6.28176">
        <ele>2626.6</ele>
        <time>2024-08-12T13:43:52Z</time>
      </trkpt>
      <trkpt lat="44.78881" lon="6.28176">
        <ele>2626.6</ele>
        <time>2024-08-12T13:43:53Z</time>
      </trkpt>
      <trkpt lat="44.78881" lon="6.28176">
        <ele>2626.6</ele>
        <time>2024-08-12T13:43:54Z</time>
      </trkpt>
      <trkpt lat="44.78881" lon="6.28176">
        <ele>2626.6</ele>
        <time>2024-08-12T13:43:55Z</time>
      </trkpt>
      <trkpt lat="44.78881" lon="6.28176">
        <ele>2626.6</ele>
        <time>2024-08-12T13:43:56Z</time>
      </trkpt>
      <trkpt lat="44.78881" lon="6.28176">
        <ele>2626.2</ele>
        <time>2024-08-12T13:43:57Z</time>
      </trkpt>
      <trkpt lat="44.78881" lon="6.28176">
        <ele>2626.2</ele>
        <time>2024-08-12T13:43:58Z</time>
      </trkpt>
      <trkpt lat="44.78881" lon="6.28176">
        <ele>2626.6</ele>
        <time>2024-08-12T13:43:59Z</time>
      </trkpt>
      <trkpt lat="44.78881" lon="6.28176">
        <ele>2627.2</ele>
        <time>2024-08-12T13:44:00Z</time>
      </trkpt>
      <trkpt lat="44.78881" lon="6.28176">
        <ele>2627.2</ele>
        <time>2024-08-12T13:44:01Z</time>
      </trkpt>
      <trkpt lat="44.78881" lon="6.28176">
        <ele>2627</ele>
        <time>2024-08-12T13:44:02Z</time>
      </trkpt>
      <trkpt lat="44.78881" lon="6.28176">
        <ele>2627</ele>
        <time>2024-08-12T13:44:03Z</time>
      </trkpt>
      <trkpt lat="44.78881" lon="6.28176">
        <ele>2626.6</ele>
        <time>2024-08-12T13:44:04Z</time>
      </trkpt>
      <trkpt lat="44.7888" lon="6.28179">
        <ele>2626.6</ele>
        <time>2024-08-12T13:44:05Z</time>
      </trkpt>
      <trkpt lat="44.7888" lon="6.28179">
        <ele>2627.6</ele>
        <time>2024-08-12T13:44:06Z</time>
      </trkpt>
      <trkpt lat="44.78879" lon="6.28182">
        <ele>2627.6</ele>
        <time>2024-08-12T13:44:07Z</time>
      </trkpt>
      <trkpt lat="44.78879" lon="6.28182">
        <ele>2627.6</ele>
        <time>2024-08-12T13:44:08Z</time>
      </trkpt>
      <trkpt lat="44.78878" lon="6.28184">
        <ele>2627.6</ele>
        <time>2024-08-12T13:44:09Z</time>
      </trkpt>
      <trkpt lat="44.78878" lon="6.28184">
        <ele>2627.6</ele>
        <time>2024-08-12T13:44:10Z</time>
      </trkpt>
      <trkpt lat="44.78878" lon="6.28184">
        <ele>2627</ele>
        <time>2024-08-12T13:44:11Z</time>
      </trkpt>
      <trkpt lat="44.78878" lon="6.28184">
        <ele>2627</ele>
        <time>2024-08-12T13:44:12Z</time>
      </trkpt>
      <trkpt lat="44.78878" lon="6.28184">
        <ele>2626.6</ele>
        <time>2024-08-12T13:44:13Z</time>
      </trkpt>
      <trkpt lat="44.78878" lon="6.28184">
        <ele>2623.4</ele>
        <time>2024-08-12T13:44:14Z</time>
      </trkpt>
      <trkpt lat="44.78878" lon="6.28184">
        <ele>2623.4</ele>
        <time>2024-08-12T13:44:15Z</time>
      </trkpt>
      <trkpt lat="44.78878" lon="6.28184">
        <ele>2623.2</ele>
        <time>2024-08-12T13:44:16Z</time>
      </trkpt>
      <trkpt lat="44.78878" lon="6.28184">
        <ele>2623.2</ele>
        <time>2024-08-12T13:44:17Z</time>
      </trkpt>
      <trkpt lat="44.78878" lon="6.28184">
        <ele>2622.4</ele>
        <time>2024-08-12T13:44:18Z</time>
      </trkpt>
      <trkpt lat="44.78878" lon="6.28184">
        <ele>2622</ele>
        <time>2024-08-12T13:44:19Z</time>
      </trkpt>
      <trkpt lat="44.78878" lon="6.28184">
        <ele>2622</ele>
        <time>2024-08-12T13:44:20Z</time>
      </trkpt>
      <trkpt lat="44.78878" lon="6.28184">
        <ele>2621.6</ele>
        <time>2024-08-12T13:44:21Z</time>
      </trkpt>
      <trkpt lat="44.78878" lon="6.28184">
        <ele>2621.6</ele>
        <time>2024-08-12T13:44:22Z</time>
      </trkpt>
      <trkpt lat="44.78878" lon="6.28184">
        <ele>2623.8</ele>
        <time>2024-08-12T13:44:23Z</time>
      </trkpt>
      <trkpt lat="44.78878" lon="6.28184">
        <ele>2626.4</ele>
        <time>2024-08-12T13:44:24Z</time>
      </trkpt>
      <trkpt lat="44.78878" lon="6.28184">
        <ele>2626.4</ele>
        <time>2024-08-12T13:44:25Z</time>
      </trkpt>
      <trkpt lat="44.78878" lon="6.28184">
        <ele>2626.4</ele>
        <time>2024-08-12T13:44:26Z</time>
      </trkpt>
      <trkpt lat="44.78878" lon="6.28184">
        <ele>2626.4</ele>
        <time>2024-08-12T13:44:27Z</time>
      </trkpt>
      <trkpt lat="44.78878" lon="6.28184">
        <ele>2626.4</ele>
        <time>2024-08-12T13:44:28Z</time>
      </trkpt>
      <trkpt lat="44.78878" lon="6.28184">
        <ele>2626.4</ele>
        <time>2024-08-12T13:44:29Z</time>
      </trkpt>
      <trkpt lat="44.78878" lon="6.28184">
        <ele>2626.4</ele>
        <time>2024-08-12T13:44:30Z</time>
      </trkpt>
      <trkpt lat="44.78878" lon="6.28184">
        <ele>2626.4</ele>
        <time>2024-08-12T13:44:31Z</time>
      </trkpt>
      <trkpt lat="44.78878" lon="6.28184">
        <ele>2626.8</ele>
        <time>2024-08-12T13:44:32Z</time>
      </trkpt>
      <trkpt lat="44.78878" lon="6.28184">
        <ele>2626.8</ele>
        <time>2024-08-12T13:44:33Z</time>
      </trkpt>
      <trkpt lat="44.78878" lon="6.28184">
        <ele>2626.8</ele>
        <time>2024-08-12T13:44:34Z</time>
      </trkpt>
      <trkpt lat="44.78878" lon="6.28184">
        <ele>2626.8</ele>
        <time>2024-08-12T13:44:35Z</time>
      </trkpt>
      <trkpt lat="44.78878" lon="6.28184">
        <ele>2627</ele>
        <time>2024-08-12T13:44:36Z</time>
      </trkpt>
      <trkpt lat="44.78878" lon="6.28184">
        <ele>2627.2</ele>
        <time>2024-08-12T13:44:37Z</time>
      </trkpt>
      <trkpt lat="44.78878" lon="6.28184">
        <ele>2627.2</ele>
        <time>2024-08-12T13:44:38Z</time>
      </trkpt>
      <trkpt lat="44.78878" lon="6.28184">
        <ele>2627.2</ele>
        <time>2024-08-12T13:44:39Z</time>
      </trkpt>
      <trkpt lat="44.78878" lon="6.28184">
        <ele>2627</ele>
        <time>2024-08-12T13:44:40Z</time>
      </trkpt>
      <trkpt lat="44.78878" lon="6.28184">
        <ele>2626.8</ele>
        <time>2024-08-12T13:44:41Z</time>
      </trkpt>
      <trkpt lat="44.78878" lon="6.28184">
        <ele>2626.8</ele>
        <time>2024-08-12T13:44:42Z</time>
      </trkpt>
      <trkpt lat="44.78878" lon="6.28184">
        <ele>2626.8</ele>
        <time>2024-08-12T13:44:43Z</time>
      </trkpt>
      <trkpt lat="44.78878" lon="6.28184">
        <ele>2626.6</ele>
        <time>2024-08-12T13:44:44Z</time>
      </trkpt>
      <trkpt lat="44.78878" lon="6.28184">
        <ele>2625.8</ele>
        <time>2024-08-12T13:44:45Z</time>
      </trkpt>
      <trkpt lat="44.78878" lon="6.28184">
        <ele>2625.4</ele>
        <time>2024-08-12T13:44:46Z</time>
      </trkpt>
      <trkpt lat="44.78878" lon="6.28184">
        <ele>2625.4</ele>
        <time>2024-08-12T13:44:47Z</time>
      </trkpt>
      <trkpt lat="44.78878" lon="6.28184">
        <ele>2626.2</ele>
        <time>2024-08-12T13:44:48Z</time>
      </trkpt>
      <trkpt lat="44.78878" lon="6.28184">
        <ele>2626.8</ele>
        <time>2024-08-12T13:44:49Z</time>
      </trkpt>
      <trkpt lat="44.78878" lon="6.28184">
        <ele>2626.8</ele>
        <time>2024-08-12T13:44:50Z</time>
      </trkpt>
      <trkpt lat="44.78878" lon="6.28184">
        <ele>2626.2</ele>
        <time>2024-08-12T13:44:51Z</time>
      </trkpt>
      <trkpt lat="44.78878" lon="6.28184">
        <ele>2626.2</ele>
        <time>2024-08-12T13:44:52Z</time>
      </trkpt>
      <trkpt lat="44.78878" lon="6.28184">
        <ele>2626.8</ele>
        <time>2024-08-12T13:44:53Z</time>
      </trkpt>
      <trkpt lat="44.78878" lon="6.28184">
        <ele>2627</ele>
        <time>2024-08-12T13:44:54Z</time>
      </trkpt>
      <trkpt lat="44.78878" lon="6.28184">
        <ele>2627.2</ele>
        <time>2024-08-12T13:44:55Z</time>
      </trkpt>
      <trkpt lat="44.78878" lon="6.28184">
        <ele>2627.4</ele>
        <time>2024-08-12T13:44:56Z</time>
      </trkpt>
      <trkpt lat="44.78878" lon="6.28184">
        <ele>2627.4</ele>
        <time>2024-08-12T13:44:57Z</time>
      </trkpt>
      <trkpt lat="44.78878" lon="6.28184">
        <ele>2627.4</ele>
        <time>2024-08-12T13:44:58Z</time>
      </trkpt>
      <trkpt lat="44.78878" lon="6.28184">
        <ele>2627.2</ele>
        <time>2024-08-12T13:44:59Z</time>
      </trkpt>
      <trkpt lat="44.78878" lon="6.28184">
        <ele>2626.8</ele>
        <time>2024-08-12T13:45:00Z</time>
      </trkpt>
      <trkpt lat="44.78878" lon="6.28184">
        <ele>2626.8</ele>
        <time>2024-08-12T13:45:01Z</time>
      </trkpt>
      <trkpt lat="44.78878" lon="6.28184">
        <ele>2628.8</ele>
        <time>2024-08-12T13:45:02Z</time>
      </trkpt>
      <trkpt lat="44.78878" lon="6.28184">
        <ele>2628.8</ele>
        <time>2024-08-12T13:45:03Z</time>
      </trkpt>
      <trkpt lat="44.78878" lon="6.28184">
        <ele>2628.8</ele>
        <time>2024-08-12T13:45:04Z</time>
      </trkpt>
      <trkpt lat="44.78878" lon="6.28184">
        <ele>2628.8</ele>
        <time>2024-08-12T13:45:05Z</time>
      </trkpt>
      <trkpt lat="44.78878" lon="6.28184">
        <ele>2626.6</ele>
        <time>2024-08-12T13:45:06Z</time>
      </trkpt>
      <trkpt lat="44.78878" lon="6.28184">
        <ele>2625.6</ele>
        <time>2024-08-12T13:45:07Z</time>
      </trkpt>
      <trkpt lat="44.78878" lon="6.28184">
        <ele>2624</ele>
        <time>2024-08-12T13:45:08Z</time>
      </trkpt>
      <trkpt lat="44.78878" lon="6.28184">
        <ele>2622.2</ele>
        <time>2024-08-12T13:45:09Z</time>
      </trkpt>
      <trkpt lat="44.78878" lon="6.28184">
        <ele>2622.2</ele>
        <time>2024-08-12T13:45:10Z</time>
      </trkpt>
      <trkpt lat="44.78878" lon="6.28184">
        <ele>2624.8</ele>
        <time>2024-08-12T13:45:11Z</time>
      </trkpt>
      <trkpt lat="44.78878" lon="6.28184">
        <ele>2626.4</ele>
        <time>2024-08-12T13:45:12Z</time>
      </trkpt>
      <trkpt lat="44.78878" lon="6.28184">
        <ele>2626.8</ele>
        <time>2024-08-12T13:45:13Z</time>
      </trkpt>
      <trkpt lat="44.78878" lon="6.28184">
        <ele>2626.8</ele>
        <time>2024-08-12T13:45:14Z</time>
      </trkpt>
      <trkpt lat="44.78878" lon="6.28184">
        <ele>2627.2</ele>
        <time>2024-08-12T13:45:15Z</time>
      </trkpt>
      <trkpt lat="44.78878" lon="6.28184">
        <ele>2627.2</ele>
        <time>2024-08-12T13:45:16Z</time>
      </trkpt>
      <trkpt lat="44.78878" lon="6.28184">
        <ele>2626.8</ele>
        <time>2024-08-12T13:45:17Z</time>
      </trkpt>
      <trkpt lat="44.78878" lon="6.28184">
        <ele>2626.8</ele>
        <time>2024-08-12T13:45:18Z</time>
      </trkpt>
      <trkpt lat="44.78878" lon="6.28184">
        <ele>2626.8</ele>
        <time>2024-08-12T13:45:19Z</time>
      </trkpt>
      <trkpt lat="44.78878" lon="6.28184">
        <ele>2626.8</ele>
        <time>2024-08-12T13:45:20Z</time>
      </trkpt>
      <trkpt lat="44.78878" lon="6.28184">
        <ele>2626.8</ele>
        <time>2024-08-12T13:45:21Z</time>
      </trkpt>
      <trkpt lat="44.78878" lon="6.28184">
        <ele>2626.8</ele>
        <time>2024-08-12T13:45:22Z</time>
      </trkpt>
      <trkpt lat="44.7888" lon="6.28182">
        <ele>2626.8</ele>
        <time>2024-08-12T13:45:23Z</time>
      </trkpt>
      <trkpt lat="44.7888" lon="6.28182">
        <ele>2627</ele>
        <time>2024-08-12T13:45:24Z</time>
      </trkpt>
      <trkpt lat="44.7888" lon="6.28179">
        <ele>2627.2</ele>
        <time>2024-08-12T13:45:25Z</time>
      </trkpt>
      <trkpt lat="44.7888" lon="6.28179">
        <ele>2628</ele>
        <time>2024-08-12T13:45:26Z</time>
      </trkpt>
      <trkpt lat="44.7888" lon="6.28179">
        <ele>2628</ele>
        <time>2024-08-12T13:45:27Z</time>
      </trkpt>
      <trkpt lat="44.7888" lon="6.28179">
        <ele>2627.6</ele>
        <time>2024-08-12T13:45:28Z</time>
      </trkpt>
      <trkpt lat="44.7888" lon="6.28179">
        <ele>2627.2</ele>
        <time>2024-08-12T13:45:29Z</time>
      </trkpt>
      <trkpt lat="44.78882" lon="6.2818">
        <ele>2626.6</ele>
        <time>2024-08-12T13:45:30Z</time>
      </trkpt>
      <trkpt lat="44.78882" lon="6.2818">
        <ele>2625.8</ele>
        <time>2024-08-12T13:45:31Z</time>
      </trkpt>
      <trkpt lat="44.78882" lon="6.2818">
        <ele>2625.2</ele>
        <time>2024-08-12T13:45:32Z</time>
      </trkpt>
      <trkpt lat="44.78882" lon="6.2818">
        <ele>2624.4</ele>
        <time>2024-08-12T13:45:33Z</time>
      </trkpt>
      <trkpt lat="44.78882" lon="6.2818">
        <ele>2624</ele>
        <time>2024-08-12T13:45:34Z</time>
      </trkpt>
      <trkpt lat="44.78884" lon="6.2818">
        <ele>2623.2</ele>
        <time>2024-08-12T13:45:35Z</time>
      </trkpt>
      <trkpt lat="44.78884" lon="6.2818">
        <ele>2622.8</ele>
        <time>2024-08-12T13:45:36Z</time>
      </trkpt>
      <trkpt lat="44.78884" lon="6.2818">
        <ele>2622.2</ele>
        <time>2024-08-12T13:45:37Z</time>
      </trkpt>
      <trkpt lat="44.78884" lon="6.2818">
        <ele>2621.8</ele>
        <time>2024-08-12T13:45:38Z</time>
      </trkpt>
      <trkpt lat="44.78884" lon="6.2818">
        <ele>2621.8</ele>
        <time>2024-08-12T13:45:39Z</time>
      </trkpt>
      <trkpt lat="44.78886" lon="6.28178">
        <ele>2621.8</ele>
        <time>2024-08-12T13:45:40Z</time>
      </trkpt>
      <trkpt lat="44.78886" lon="6.28178">
        <ele>2621.4</ele>
        <time>2024-08-12T13:45:41Z</time>
      </trkpt>
      <trkpt lat="44.7889" lon="6.28177">
        <ele>2621</ele>
        <time>2024-08-12T13:45:42Z</time>
      </trkpt>
      <trkpt lat="44.7889" lon="6.28177">
        <ele>2620.6</ele>
        <time>2024-08-12T13:45:43Z</time>
      </trkpt>
      <trkpt lat="44.78893" lon="6.28176">
        <ele>2620.4</ele>
        <time>2024-08-12T13:45:44Z</time>
      </trkpt>
      <trkpt lat="44.78893" lon="6.28176">
        <ele>2620</ele>
        <time>2024-08-12T13:45:45Z</time>
      </trkpt>
      <trkpt lat="44.78895" lon="6.28176">
        <ele>2620</ele>
        <time>2024-08-12T13:45:46Z</time>
      </trkpt>
      <trkpt lat="44.78895" lon="6.28176">
        <ele>2619.8</ele>
        <time>2024-08-12T13:45:47Z</time>
      </trkpt>
      <trkpt lat="44.78897" lon="6.28177">
        <ele>2619.6</ele>
        <time>2024-08-12T13:45:48Z</time>
      </trkpt>
      <trkpt lat="44.78897" lon="6.28177">
        <ele>2619.4</ele>
        <time>2024-08-12T13:45:49Z</time>
      </trkpt>
      <trkpt lat="44.78899" lon="6.28177">
        <ele>2618.8</ele>
        <time>2024-08-12T13:45:50Z</time>
      </trkpt>
      <trkpt lat="44.78899" lon="6.28177">
        <ele>2618.4</ele>
        <time>2024-08-12T13:45:51Z</time>
      </trkpt>
      <trkpt lat="44.78899" lon="6.28177">
        <ele>2618.2</ele>
        <time>2024-08-12T13:45:52Z</time>
      </trkpt>
      <trkpt lat="44.78902" lon="6.28177">
        <ele>2617.8</ele>
        <time>2024-08-12T13:45:53Z</time>
      </trkpt>
      <trkpt lat="44.78902" lon="6.28177">
        <ele>2617.4</ele>
        <time>2024-08-12T13:45:54Z</time>
      </trkpt>
      <trkpt lat="44.78902" lon="6.28177">
        <ele>2617.2</ele>
        <time>2024-08-12T13:45:55Z</time>
      </trkpt>
      <trkpt lat="44.78904" lon="6.28178">
        <ele>2616.6</ele>
        <time>2024-08-12T13:45:56Z</time>
      </trkpt>
      <trkpt lat="44.78904" lon="6.28178">
        <ele>2616.4</ele>
        <time>2024-08-12T13:45:57Z</time>
      </trkpt>
      <trkpt lat="44.78907" lon="6.28178">
        <ele>2616.2</ele>
        <time>2024-08-12T13:45:58Z</time>
      </trkpt>
      <trkpt lat="44.78907" lon="6.28178">
        <ele>2615.6</ele>
        <time>2024-08-12T13:45:59Z</time>
      </trkpt>
      <trkpt lat="44.78909" lon="6.28178">
        <ele>2615.4</ele>
        <time>2024-08-12T13:46:00Z</time>
      </trkpt>
      <trkpt lat="44.78909" lon="6.28178">
        <ele>2615</ele>
        <time>2024-08-12T13:46:01Z</time>
      </trkpt>
      <trkpt lat="44.78911" lon="6.28178">
        <ele>2614</ele>
        <time>2024-08-12T13:46:02Z</time>
      </trkpt>
      <trkpt lat="44.78911" lon="6.28178">
        <ele>2614</ele>
        <time>2024-08-12T13:46:03Z</time>
      </trkpt>
      <trkpt lat="44.78913" lon="6.28178">
        <ele>2613.4</ele>
        <time>2024-08-12T13:46:04Z</time>
      </trkpt>
      <trkpt lat="44.78913" lon="6.28178">
        <ele>2613</ele>
        <time>2024-08-12T13:46:05Z</time>
      </trkpt>
      <trkpt lat="44.78913" lon="6.28178">
        <ele>2612.6</ele>
        <time>2024-08-12T13:46:06Z</time>
      </trkpt>
      <trkpt lat="44.78915" lon="6.28178">
        <ele>2612.2</ele>
        <time>2024-08-12T13:46:07Z</time>
      </trkpt>
      <trkpt lat="44.78915" lon="6.28178">
        <ele>2612</ele>
        <time>2024-08-12T13:46:08Z</time>
      </trkpt>
      <trkpt lat="44.78915" lon="6.28178">
        <ele>2612</ele>
        <time>2024-08-12T13:46:09Z</time>
      </trkpt>
      <trkpt lat="44.78915" lon="6.28182">
        <ele>2611.2</ele>
        <time>2024-08-12T13:46:10Z</time>
      </trkpt>
      <trkpt lat="44.78915" lon="6.28182">
        <ele>2610.6</ele>
        <time>2024-08-12T13:46:11Z</time>
      </trkpt>
      <trkpt lat="44.78914" lon="6.28184">
        <ele>2610.2</ele>
        <time>2024-08-12T13:46:12Z</time>
      </trkpt>
      <trkpt lat="44.78914" lon="6.28184">
        <ele>2609.2</ele>
        <time>2024-08-12T13:46:13Z</time>
      </trkpt>
      <trkpt lat="44.78914" lon="6.28184">
        <ele>2609</ele>
        <time>2024-08-12T13:46:14Z</time>
      </trkpt>
      <trkpt lat="44.78913" lon="6.28187">
        <ele>2608.6</ele>
        <time>2024-08-12T13:46:15Z</time>
      </trkpt>
      <trkpt lat="44.78913" lon="6.28187">
        <ele>2608.2</ele>
        <time>2024-08-12T13:46:16Z</time>
      </trkpt>
      <trkpt lat="44.78913" lon="6.28187">
        <ele>2607.8</ele>
        <time>2024-08-12T13:46:17Z</time>
      </trkpt>
      <trkpt lat="44.78913" lon="6.28187">
        <ele>2607.8</ele>
        <time>2024-08-12T13:46:18Z</time>
      </trkpt>
      <trkpt lat="44.78913" lon="6.28187">
        <ele>2607.4</ele>
        <time>2024-08-12T13:46:19Z</time>
      </trkpt>
      <trkpt lat="44.78916" lon="6.28187">
        <ele>2607</ele>
        <time>2024-08-12T13:46:20Z</time>
      </trkpt>
      <trkpt lat="44.78916" lon="6.28187">
        <ele>2607</ele>
        <time>2024-08-12T13:46:21Z</time>
      </trkpt>
      <trkpt lat="44.78916" lon="6.28187">
        <ele>2606.6</ele>
        <time>2024-08-12T13:46:22Z</time>
      </trkpt>
      <trkpt lat="44.78917" lon="6.28188">
        <ele>2606.4</ele>
        <time>2024-08-12T13:46:23Z</time>
      </trkpt>
      <trkpt lat="44.78917" lon="6.28188">
        <ele>2606</ele>
        <time>2024-08-12T13:46:24Z</time>
      </trkpt>
      <trkpt lat="44.78917" lon="6.28188">
        <ele>2605.6</ele>
        <time>2024-08-12T13:46:25Z</time>
      </trkpt>
      <trkpt lat="44.7892" lon="6.28189">
        <ele>2605.2</ele>
        <time>2024-08-12T13:46:26Z</time>
      </trkpt>
      <trkpt lat="44.7892" lon="6.28189">
        <ele>2605</ele>
        <time>2024-08-12T13:46:27Z</time>
      </trkpt>
      <trkpt lat="44.78922" lon="6.28189">
        <ele>2604.8</ele>
        <time>2024-08-12T13:46:28Z</time>
      </trkpt>
      <trkpt lat="44.78922" lon="6.28189">
        <ele>2604.2</ele>
        <time>2024-08-12T13:46:29Z</time>
      </trkpt>
      <trkpt lat="44.78922" lon="6.28189">
        <ele>2603.6</ele>
        <time>2024-08-12T13:46:30Z</time>
      </trkpt>
      <trkpt lat="44.78924" lon="6.28189">
        <ele>2603</ele>
        <time>2024-08-12T13:46:31Z</time>
      </trkpt>
      <trkpt lat="44.78924" lon="6.28189">
        <ele>2602.8</ele>
        <time>2024-08-12T13:46:32Z</time>
      </trkpt>
      <trkpt lat="44.78926" lon="6.28188">
        <ele>2602.6</ele>
        <time>2024-08-12T13:46:33Z</time>
      </trkpt>
      <trkpt lat="44.78926" lon="6.28188">
        <ele>2602.2</ele>
        <time>2024-08-12T13:46:34Z</time>
      </trkpt>
      <trkpt lat="44.78926" lon="6.28188">
        <ele>2602</ele>
        <time>2024-08-12T13:46:35Z</time>
      </trkpt>
      <trkpt lat="44.78928" lon="6.28188">
        <ele>2602</ele>
        <time>2024-08-12T13:46:36Z</time>
      </trkpt>
      <trkpt lat="44.78928" lon="6.28188">
        <ele>2601.8</ele>
        <time>2024-08-12T13:46:37Z</time>
      </trkpt>
      <trkpt lat="44.78928" lon="6.28188">
        <ele>2601.6</ele>
        <time>2024-08-12T13:46:38Z</time>
      </trkpt>
      <trkpt lat="44.7893" lon="6.28186">
        <ele>2601.2</ele>
        <time>2024-08-12T13:46:39Z</time>
      </trkpt>
      <trkpt lat="44.7893" lon="6.28186">
        <ele>2600.8</ele>
        <time>2024-08-12T13:46:40Z</time>
      </trkpt>
      <trkpt lat="44.7893" lon="6.28186">
        <ele>2600.6</ele>
        <time>2024-08-12T13:46:41Z</time>
      </trkpt>
      <trkpt lat="44.78933" lon="6.28185">
        <ele>2600.4</ele>
        <time>2024-08-12T13:46:42Z</time>
      </trkpt>
      <trkpt lat="44.78933" lon="6.28185">
        <ele>2600.2</ele>
        <time>2024-08-12T13:46:43Z</time>
      </trkpt>
      <trkpt lat="44.78933" lon="6.28185">
        <ele>2599.8</ele>
        <time>2024-08-12T13:46:44Z</time>
      </trkpt>
      <trkpt lat="44.78934" lon="6.28185">
        <ele>2599.6</ele>
        <time>2024-08-12T13:46:45Z</time>
      </trkpt>
      <trkpt lat="44.78934" lon="6.28185">
        <ele>2599.6</ele>
        <time>2024-08-12T13:46:46Z</time>
      </trkpt>
      <trkpt lat="44.78934" lon="6.28185">
        <ele>2599.2</ele>
        <time>2024-08-12T13:46:47Z</time>
      </trkpt>
      <trkpt lat="44.78937" lon="6.28185">
        <ele>2598.8</ele>
        <time>2024-08-12T13:46:48Z</time>
      </trkpt>
      <trkpt lat="44.78937" lon="6.28185">
        <ele>2598.4</ele>
        <time>2024-08-12T13:46:49Z</time>
      </trkpt>
      <trkpt lat="44.78937" lon="6.28185">
        <ele>2598.2</ele>
        <time>2024-08-12T13:46:50Z</time>
      </trkpt>
      <trkpt lat="44.78939" lon="6.28185">
        <ele>2597.8</ele>
        <time>2024-08-12T13:46:51Z</time>
      </trkpt>
      <trkpt lat="44.78939" lon="6.28185">
        <ele>2597.8</ele>
        <time>2024-08-12T13:46:52Z</time>
      </trkpt>
      <trkpt lat="44.78941" lon="6.28183">
        <ele>2597.6</ele>
        <time>2024-08-12T13:46:53Z</time>
      </trkpt>
      <trkpt lat="44.78941" lon="6.28183">
        <ele>2597.2</ele>
        <time>2024-08-12T13:46:54Z</time>
      </trkpt>
      <trkpt lat="44.78941" lon="6.28183">
        <ele>2597.2</ele>
        <time>2024-08-12T13:46:55Z</time>
      </trkpt>
      <trkpt lat="44.78944" lon="6.28182">
        <ele>2596.8</ele>
        <time>2024-08-12T13:46:56Z</time>
      </trkpt>
      <trkpt lat="44.78944" lon="6.28182">
        <ele>2596.6</ele>
        <time>2024-08-12T13:46:57Z</time>
      </trkpt>
      <trkpt lat="44.78946" lon="6.28181">
        <ele>2596.6</ele>
        <time>2024-08-12T13:46:58Z</time>
      </trkpt>
      <trkpt lat="44.78946" lon="6.28181">
        <ele>2596.6</ele>
        <time>2024-08-12T13:46:59Z</time>
      </trkpt>
      <trkpt lat="44.78948" lon="6.2818">
        <ele>2596.4</ele>
        <time>2024-08-12T13:47:00Z</time>
      </trkpt>
      <trkpt lat="44.78948" lon="6.2818">
        <ele>2596</ele>
        <time>2024-08-12T13:47:01Z</time>
      </trkpt>
      <trkpt lat="44.7895" lon="6.2818">
        <ele>2595.2</ele>
        <time>2024-08-12T13:47:02Z</time>
      </trkpt>
      <trkpt lat="44.7895" lon="6.2818">
        <ele>2595.2</ele>
        <time>2024-08-12T13:47:03Z</time>
      </trkpt>
      <trkpt lat="44.7895" lon="6.2818">
        <ele>2594.8</ele>
        <time>2024-08-12T13:47:04Z</time>
      </trkpt>
      <trkpt lat="44.78953" lon="6.2818">
        <ele>2594.4</ele>
        <time>2024-08-12T13:47:05Z</time>
      </trkpt>
      <trkpt lat="44.78953" lon="6.2818">
        <ele>2594.2</ele>
        <time>2024-08-12T13:47:06Z</time>
      </trkpt>
      <trkpt lat="44.78955" lon="6.28181">
        <ele>2593.8</ele>
        <time>2024-08-12T13:47:07Z</time>
      </trkpt>
      <trkpt lat="44.78955" lon="6.28181">
        <ele>2593.4</ele>
        <time>2024-08-12T13:47:08Z</time>
      </trkpt>
      <trkpt lat="44.78957" lon="6.2818">
        <ele>2593</ele>
        <time>2024-08-12T13:47:09Z</time>
      </trkpt>
      <trkpt lat="44.78957" lon="6.2818">
        <ele>2593</ele>
        <time>2024-08-12T13:47:10Z</time>
      </trkpt>
      <trkpt lat="44.7896" lon="6.2818">
        <ele>2592.8</ele>
        <time>2024-08-12T13:47:11Z</time>
      </trkpt>
      <trkpt lat="44.7896" lon="6.2818">
        <ele>2592.8</ele>
        <time>2024-08-12T13:47:12Z</time>
      </trkpt>
      <trkpt lat="44.78962" lon="6.2818">
        <ele>2592.6</ele>
        <time>2024-08-12T13:47:13Z</time>
      </trkpt>
      <trkpt lat="44.78962" lon="6.2818">
        <ele>2592.2</ele>
        <time>2024-08-12T13:47:14Z</time>
      </trkpt>
      <trkpt lat="44.78964" lon="6.28179">
        <ele>2592</ele>
        <time>2024-08-12T13:47:15Z</time>
      </trkpt>
      <trkpt lat="44.78964" lon="6.28179">
        <ele>2591.6</ele>
        <time>2024-08-12T13:47:16Z</time>
      </trkpt>
      <trkpt lat="44.78966" lon="6.28179">
        <ele>2591.6</ele>
        <time>2024-08-12T13:47:17Z</time>
      </trkpt>
      <trkpt lat="44.78966" lon="6.28179">
        <ele>2591.6</ele>
        <time>2024-08-12T13:47:18Z</time>
      </trkpt>
      <trkpt lat="44.78968" lon="6.2818">
        <ele>2591.6</ele>
        <time>2024-08-12T13:47:19Z</time>
      </trkpt>
      <trkpt lat="44.78968" lon="6.2818">
        <ele>2591.2</ele>
        <time>2024-08-12T13:47:20Z</time>
      </trkpt>
      <trkpt lat="44.78968" lon="6.2818">
        <ele>2591.2</ele>
        <time>2024-08-12T13:47:21Z</time>
      </trkpt>
      <trkpt lat="44.7897" lon="6.2818">
        <ele>2591</ele>
        <time>2024-08-12T13:47:22Z</time>
      </trkpt>
      <trkpt lat="44.7897" lon="6.2818">
        <ele>2591</ele>
        <time>2024-08-12T13:47:23Z</time>
      </trkpt>
      <trkpt lat="44.78972" lon="6.2818">
        <ele>2590.8</ele>
        <time>2024-08-12T13:47:24Z</time>
      </trkpt>
      <trkpt lat="44.78972" lon="6.2818">
        <ele>2590.2</ele>
        <time>2024-08-12T13:47:25Z</time>
      </trkpt>
      <trkpt lat="44.78974" lon="6.28179">
        <ele>2589.8</ele>
        <time>2024-08-12T13:47:26Z</time>
      </trkpt>
      <trkpt lat="44.78974" lon="6.28179">
        <ele>2589.4</ele>
        <time>2024-08-12T13:47:27Z</time>
      </trkpt>
      <trkpt lat="44.78977" lon="6.28179">
        <ele>2589.4</ele>
        <time>2024-08-12T13:47:28Z</time>
      </trkpt>
      <trkpt lat="44.78977" lon="6.28179">
        <ele>2589.2</ele>
        <time>2024-08-12T13:47:29Z</time>
      </trkpt>
      <trkpt lat="44.7898" lon="6.2818">
        <ele>2588.8</ele>
        <time>2024-08-12T13:47:30Z</time>
      </trkpt>
      <trkpt lat="44.7898" lon="6.2818">
        <ele>2588.4</ele>
        <time>2024-08-12T13:47:31Z</time>
      </trkpt>
      <trkpt lat="44.78981" lon="6.2818">
        <ele>2588</ele>
        <time>2024-08-12T13:47:32Z</time>
      </trkpt>
      <trkpt lat="44.78981" lon="6.2818">
        <ele>2588</ele>
        <time>2024-08-12T13:47:33Z</time>
      </trkpt>
      <trkpt lat="44.78984" lon="6.2818">
        <ele>2587.8</ele>
        <time>2024-08-12T13:47:34Z</time>
      </trkpt>
      <trkpt lat="44.78984" lon="6.2818">
        <ele>2587.8</ele>
        <time>2024-08-12T13:47:35Z</time>
      </trkpt>
      <trkpt lat="44.78986" lon="6.28181">
        <ele>2587.6</ele>
        <time>2024-08-12T13:47:36Z</time>
      </trkpt>
      <trkpt lat="44.78986" lon="6.28181">
        <ele>2587.2</ele>
        <time>2024-08-12T13:47:37Z</time>
      </trkpt>
      <trkpt lat="44.78986" lon="6.28181">
        <ele>2587.2</ele>
        <time>2024-08-12T13:47:38Z</time>
      </trkpt>
      <trkpt lat="44.78988" lon="6.28183">
        <ele>2586.8</ele>
        <time>2024-08-12T13:47:39Z</time>
      </trkpt>
      <trkpt lat="44.78988" lon="6.28183">
        <ele>2586.6</ele>
        <time>2024-08-12T13:47:40Z</time>
      </trkpt>
      <trkpt lat="44.7899" lon="6.28185">
        <ele>2586.2</ele>
        <time>2024-08-12T13:47:41Z</time>
      </trkpt>
      <trkpt lat="44.7899" lon="6.28185">
        <ele>2585.6</ele>
        <time>2024-08-12T13:47:42Z</time>
      </trkpt>
      <trkpt lat="44.7899" lon="6.28185">
        <ele>2585.4</ele>
        <time>2024-08-12T13:47:43Z</time>
      </trkpt>
      <trkpt lat="44.78991" lon="6.28187">
        <ele>2585</ele>
        <time>2024-08-12T13:47:44Z</time>
      </trkpt>
      <trkpt lat="44.78991" lon="6.28187">
        <ele>2584.8</ele>
        <time>2024-08-12T13:47:45Z</time>
      </trkpt>
      <trkpt lat="44.78991" lon="6.28187">
        <ele>2584.8</ele>
        <time>2024-08-12T13:47:46Z</time>
      </trkpt>
      <trkpt lat="44.78993" lon="6.28184">
        <ele>2584.8</ele>
        <time>2024-08-12T13:47:47Z</time>
      </trkpt>
      <trkpt lat="44.78993" lon="6.28184">
        <ele>2584.6</ele>
        <time>2024-08-12T13:47:48Z</time>
      </trkpt>
      <trkpt lat="44.78995" lon="6.28182">
        <ele>2584.6</ele>
        <time>2024-08-12T13:47:49Z</time>
      </trkpt>
      <trkpt lat="44.78995" lon="6.28182">
        <ele>2584.4</ele>
        <time>2024-08-12T13:47:50Z</time>
      </trkpt>
      <trkpt lat="44.78997" lon="6.28179">
        <ele>2583.6</ele>
        <time>2024-08-12T13:47:51Z</time>
      </trkpt>
      <trkpt lat="44.78997" lon="6.28179">
        <ele>2583.4</ele>
        <time>2024-08-12T13:47:52Z</time>
      </trkpt>
      <trkpt lat="44.79" lon="6.28179">
        <ele>2583.2</ele>
        <time>2024-08-12T13:47:53Z</time>
      </trkpt>
      <trkpt lat="44.79" lon="6.28179">
        <ele>2583</ele>
        <time>2024-08-12T13:47:54Z</time>
      </trkpt>
      <trkpt lat="44.79003" lon="6.28179">
        <ele>2583</ele>
        <time>2024-08-12T13:47:55Z</time>
      </trkpt>
      <trkpt lat="44.79003" lon="6.28179">
        <ele>2582.8</ele>
        <time>2024-08-12T13:47:56Z</time>
      </trkpt>
      <trkpt lat="44.79005" lon="6.28179">
        <ele>2582.6</ele>
        <time>2024-08-12T13:47:57Z</time>
      </trkpt>
      <trkpt lat="44.79005" lon="6.28179">
        <ele>2582.6</ele>
        <time>2024-08-12T13:47:58Z</time>
      </trkpt>
      <trkpt lat="44.79005" lon="6.28179">
        <ele>2581.6</ele>
        <time>2024-08-12T13:47:59Z</time>
      </trkpt>
      <trkpt lat="44.79007" lon="6.2818">
        <ele>2581.2</ele>
        <time>2024-08-12T13:48:00Z</time>
      </trkpt>
      <trkpt lat="44.79007" lon="6.2818">
        <ele>2581</ele>
        <time>2024-08-12T13:48:01Z</time>
      </trkpt>
      <trkpt lat="44.79009" lon="6.28178">
        <ele>2580</ele>
        <time>2024-08-12T13:48:02Z</time>
      </trkpt>
      <trkpt lat="44.79009" lon="6.28178">
        <ele>2580</ele>
        <time>2024-08-12T13:48:03Z</time>
      </trkpt>
      <trkpt lat="44.79011" lon="6.28177">
        <ele>2580</ele>
        <time>2024-08-12T13:48:04Z</time>
      </trkpt>
      <trkpt lat="44.79011" lon="6.28177">
        <ele>2580</ele>
        <time>2024-08-12T13:48:05Z</time>
      </trkpt>
      <trkpt lat="44.79012" lon="6.28174">
        <ele>2580</ele>
        <time>2024-08-12T13:48:06Z</time>
      </trkpt>
      <trkpt lat="44.79012" lon="6.28174">
        <ele>2580.2</ele>
        <time>2024-08-12T13:48:07Z</time>
      </trkpt>
      <trkpt lat="44.79013" lon="6.28171">
        <ele>2580.8</ele>
        <time>2024-08-12T13:48:08Z</time>
      </trkpt>
      <trkpt lat="44.79013" lon="6.28171">
        <ele>2580.8</ele>
        <time>2024-08-12T13:48:09Z</time>
      </trkpt>
      <trkpt lat="44.79013" lon="6.28171">
        <ele>2580.6</ele>
        <time>2024-08-12T13:48:10Z</time>
      </trkpt>
      <trkpt lat="44.79015" lon="6.28169">
        <ele>2580.4</ele>
        <time>2024-08-12T13:48:11Z</time>
      </trkpt>
      <trkpt lat="44.79015" lon="6.28169">
        <ele>2580.4</ele>
        <time>2024-08-12T13:48:12Z</time>
      </trkpt>
      <trkpt lat="44.79017" lon="6.2817">
        <ele>2580.6</ele>
        <time>2024-08-12T13:48:13Z</time>
      </trkpt>
      <trkpt lat="44.79017" lon="6.2817">
        <ele>2580.6</ele>
        <time>2024-08-12T13:48:14Z</time>
      </trkpt>
      <trkpt lat="44.79019" lon="6.28172">
        <ele>2580.6</ele>
        <time>2024-08-12T13:48:15Z</time>
      </trkpt>
      <trkpt lat="44.79019" lon="6.28172">
        <ele>2580.4</ele>
        <time>2024-08-12T13:48:16Z</time>
      </trkpt>
      <trkpt lat="44.79021" lon="6.28173">
        <ele>2580.2</ele>
        <time>2024-08-12T13:48:17Z</time>
      </trkpt>
      <trkpt lat="44.79021" lon="6.28173">
        <ele>2580.2</ele>
        <time>2024-08-12T13:48:18Z</time>
      </trkpt>
      <trkpt lat="44.79023" lon="6.28174">
        <ele>2580.2</ele>
        <time>2024-08-12T13:48:19Z</time>
      </trkpt>
      <trkpt lat="44.79023" lon="6.28174">
        <ele>2579.4</ele>
        <time>2024-08-12T13:48:20Z</time>
      </trkpt>
      <trkpt lat="44.79025" lon="6.28176">
        <ele>2578.8</ele>
        <time>2024-08-12T13:48:21Z</time>
      </trkpt>
      <trkpt lat="44.79025" lon="6.28176">
        <ele>2578.8</ele>
        <time>2024-08-12T13:48:22Z</time>
      </trkpt>
      <trkpt lat="44.79027" lon="6.28177">
        <ele>2578.8</ele>
        <time>2024-08-12T13:48:23Z</time>
      </trkpt>
      <trkpt lat="44.79027" lon="6.28177">
        <ele>2578</ele>
        <time>2024-08-12T13:48:24Z</time>
      </trkpt>
      <trkpt lat="44.7903" lon="6.28177">
        <ele>2577.4</ele>
        <time>2024-08-12T13:48:25Z</time>
      </trkpt>
      <trkpt lat="44.7903" lon="6.28177">
        <ele>2577</ele>
        <time>2024-08-12T13:48:26Z</time>
      </trkpt>
      <trkpt lat="44.79033" lon="6.28178">
        <ele>2577</ele>
        <time>2024-08-12T13:48:27Z</time>
      </trkpt>
      <trkpt lat="44.79033" lon="6.28178">
        <ele>2576.6</ele>
        <time>2024-08-12T13:48:28Z</time>
      </trkpt>
      <trkpt lat="44.79035" lon="6.28179">
        <ele>2576.4</ele>
        <time>2024-08-12T13:48:29Z</time>
      </trkpt>
      <trkpt lat="44.79035" lon="6.28179">
        <ele>2576.4</ele>
        <time>2024-08-12T13:48:30Z</time>
      </trkpt>
      <trkpt lat="44.79037" lon="6.2818">
        <ele>2576</ele>
        <time>2024-08-12T13:48:31Z</time>
      </trkpt>
      <trkpt lat="44.79037" lon="6.2818">
        <ele>2574.8</ele>
        <time>2024-08-12T13:48:32Z</time>
      </trkpt>
      <trkpt lat="44.79039" lon="6.28181">
        <ele>2574.4</ele>
        <time>2024-08-12T13:48:33Z</time>
      </trkpt>
      <trkpt lat="44.79039" lon="6.28181">
        <ele>2574.2</ele>
        <time>2024-08-12T13:48:34Z</time>
      </trkpt>
      <trkpt lat="44.79039" lon="6.28183">
        <ele>2573.6</ele>
        <time>2024-08-12T13:48:35Z</time>
      </trkpt>
      <trkpt lat="44.79039" lon="6.28183">
        <ele>2573.6</ele>
        <time>2024-08-12T13:48:36Z</time>
      </trkpt>
      <trkpt lat="44.79037" lon="6.28185">
        <ele>2574</ele>
        <time>2024-08-12T13:48:37Z</time>
      </trkpt>
      <trkpt lat="44.79037" lon="6.28185">
        <ele>2576.4</ele>
        <time>2024-08-12T13:48:38Z</time>
      </trkpt>
      <trkpt lat="44.79035" lon="6.28185">
        <ele>2576.4</ele>
        <time>2024-08-12T13:48:39Z</time>
      </trkpt>
      <trkpt lat="44.79035" lon="6.28185">
        <ele>2576.2</ele>
        <time>2024-08-12T13:48:40Z</time>
      </trkpt>
      <trkpt lat="44.79032" lon="6.28186">
        <ele>2575.6</ele>
        <time>2024-08-12T13:48:41Z</time>
      </trkpt>
      <trkpt lat="44.79032" lon="6.28186">
        <ele>2574.8</ele>
        <time>2024-08-12T13:48:42Z</time>
      </trkpt>
      <trkpt lat="44.7903" lon="6.28188">
        <ele>2574</ele>
        <time>2024-08-12T13:48:43Z</time>
      </trkpt>
      <trkpt lat="44.7903" lon="6.28188">
        <ele>2573.6</ele>
        <time>2024-08-12T13:48:44Z</time>
      </trkpt>
      <trkpt lat="44.79028" lon="6.28189">
        <ele>2573.4</ele>
        <time>2024-08-12T13:48:45Z</time>
      </trkpt>
      <trkpt lat="44.79028" lon="6.28189">
        <ele>2573.2</ele>
        <time>2024-08-12T13:48:46Z</time>
      </trkpt>
      <trkpt lat="44.79025" lon="6.2819">
        <ele>2572.8</ele>
        <time>2024-08-12T13:48:47Z</time>
      </trkpt>
      <trkpt lat="44.79025" lon="6.2819">
        <ele>2572.4</ele>
        <time>2024-08-12T13:48:48Z</time>
      </trkpt>
      <trkpt lat="44.79024" lon="6.28192">
        <ele>2572</ele>
        <time>2024-08-12T13:48:49Z</time>
      </trkpt>
      <trkpt lat="44.79024" lon="6.28192">
        <ele>2571.6</ele>
        <time>2024-08-12T13:48:50Z</time>
      </trkpt>
      <trkpt lat="44.79024" lon="6.28195">
        <ele>2571.6</ele>
        <time>2024-08-12T13:48:51Z</time>
      </trkpt>
      <trkpt lat="44.79024" lon="6.28195">
        <ele>2571.8</ele>
        <time>2024-08-12T13:48:52Z</time>
      </trkpt>
      <trkpt lat="44.79023" lon="6.28199">
        <ele>2572</ele>
        <time>2024-08-12T13:48:53Z</time>
      </trkpt>
      <trkpt lat="44.79023" lon="6.28199">
        <ele>2572</ele>
        <time>2024-08-12T13:48:54Z</time>
      </trkpt>
      <trkpt lat="44.79023" lon="6.28202">
        <ele>2571.6</ele>
        <time>2024-08-12T13:48:55Z</time>
      </trkpt>
      <trkpt lat="44.79023" lon="6.28202">
        <ele>2571.6</ele>
        <time>2024-08-12T13:48:56Z</time>
      </trkpt>
      <trkpt lat="44.79023" lon="6.28205">
        <ele>2571.6</ele>
        <time>2024-08-12T13:48:57Z</time>
      </trkpt>
      <trkpt lat="44.79023" lon="6.28205">
        <ele>2571.6</ele>
        <time>2024-08-12T13:48:58Z</time>
      </trkpt>
      <trkpt lat="44.79022" lon="6.28208">
        <ele>2571.4</ele>
        <time>2024-08-12T13:48:59Z</time>
      </trkpt>
      <trkpt lat="44.79022" lon="6.28208">
        <ele>2571.4</ele>
        <time>2024-08-12T13:49:00Z</time>
      </trkpt>
      <trkpt lat="44.79022" lon="6.28208">
        <ele>2571.4</ele>
        <time>2024-08-12T13:49:01Z</time>
      </trkpt>
      <trkpt lat="44.79022" lon="6.28208">
        <ele>2570.8</ele>
        <time>2024-08-12T13:49:02Z</time>
      </trkpt>
      <trkpt lat="44.79022" lon="6.28208">
        <ele>2570.8</ele>
        <time>2024-08-12T13:49:03Z</time>
      </trkpt>
      <trkpt lat="44.79022" lon="6.28208">
        <ele>2569.4</ele>
        <time>2024-08-12T13:49:04Z</time>
      </trkpt>
      <trkpt lat="44.79025" lon="6.28207">
        <ele>2568.2</ele>
        <time>2024-08-12T13:49:05Z</time>
      </trkpt>
      <trkpt lat="44.79025" lon="6.28207">
        <ele>2568</ele>
        <time>2024-08-12T13:49:06Z</time>
      </trkpt>
      <trkpt lat="44.79027" lon="6.28205">
        <ele>2567.2</ele>
        <time>2024-08-12T13:49:07Z</time>
      </trkpt>
      <trkpt lat="44.79027" lon="6.28205">
        <ele>2566.2</ele>
        <time>2024-08-12T13:49:08Z</time>
      </trkpt>
      <trkpt lat="44.79029" lon="6.28203">
        <ele>2566</ele>
        <time>2024-08-12T13:49:09Z</time>
      </trkpt>
      <trkpt lat="44.79029" lon="6.28203">
        <ele>2565.4</ele>
        <time>2024-08-12T13:49:10Z</time>
      </trkpt>
      <trkpt lat="44.79031" lon="6.28203">
        <ele>2565.4</ele>
        <time>2024-08-12T13:49:11Z</time>
      </trkpt>
      <trkpt lat="44.79031" lon="6.28203">
        <ele>2565.4</ele>
        <time>2024-08-12T13:49:12Z</time>
      </trkpt>
      <trkpt lat="44.79031" lon="6.28206">
        <ele>2565.4</ele>
        <time>2024-08-12T13:49:13Z</time>
      </trkpt>
      <trkpt lat="44.79031" lon="6.28206">
        <ele>2566</ele>
        <time>2024-08-12T13:49:14Z</time>
      </trkpt>
      <trkpt lat="44.79031" lon="6.28208">
        <ele>2566.6</ele>
        <time>2024-08-12T13:49:15Z</time>
      </trkpt>
      <trkpt lat="44.79031" lon="6.28208">
        <ele>2566.6</ele>
        <time>2024-08-12T13:49:16Z</time>
      </trkpt>
      <trkpt lat="44.7903" lon="6.28213">
        <ele>2566.4</ele>
        <time>2024-08-12T13:49:17Z</time>
      </trkpt>
      <trkpt lat="44.7903" lon="6.28213">
        <ele>2565.4</ele>
        <time>2024-08-12T13:49:18Z</time>
      </trkpt>
      <trkpt lat="44.79031" lon="6.28216">
        <ele>2565.2</ele>
        <time>2024-08-12T13:49:19Z</time>
      </trkpt>
      <trkpt lat="44.79031" lon="6.28216">
        <ele>2565.2</ele>
        <time>2024-08-12T13:49:20Z</time>
      </trkpt>
      <trkpt lat="44.7903" lon="6.2822">
        <ele>2565.2</ele>
        <time>2024-08-12T13:49:21Z</time>
      </trkpt>
      <trkpt lat="44.7903" lon="6.2822">
        <ele>2565.2</ele>
        <time>2024-08-12T13:49:22Z</time>
      </trkpt>
      <trkpt lat="44.7903" lon="6.28223">
        <ele>2565.6</ele>
        <time>2024-08-12T13:49:23Z</time>
      </trkpt>
      <trkpt lat="44.7903" lon="6.28223">
        <ele>2565.6</ele>
        <time>2024-08-12T13:49:24Z</time>
      </trkpt>
      <trkpt lat="44.7903" lon="6.28227">
        <ele>2565.2</ele>
        <time>2024-08-12T13:49:25Z</time>
      </trkpt>
      <trkpt lat="44.7903" lon="6.28227">
        <ele>2565</ele>
        <time>2024-08-12T13:49:26Z</time>
      </trkpt>
      <trkpt lat="44.7903" lon="6.28227">
        <ele>2564.8</ele>
        <time>2024-08-12T13:49:27Z</time>
      </trkpt>
      <trkpt lat="44.7903" lon="6.28227">
        <ele>2564.6</ele>
        <time>2024-08-12T13:49:28Z</time>
      </trkpt>
      <trkpt lat="44.7903" lon="6.28227">
        <ele>2563.8</ele>
        <time>2024-08-12T13:49:29Z</time>
      </trkpt>
      <trkpt lat="44.79033" lon="6.28226">
        <ele>2562.2</ele>
        <time>2024-08-12T13:49:30Z</time>
      </trkpt>
      <trkpt lat="44.79033" lon="6.28226">
        <ele>2562.2</ele>
        <time>2024-08-12T13:49:31Z</time>
      </trkpt>
      <trkpt lat="44.79035" lon="6.28225">
        <ele>2562.2</ele>
        <time>2024-08-12T13:49:32Z</time>
      </trkpt>
      <trkpt lat="44.79035" lon="6.28225">
        <ele>2562.2</ele>
        <time>2024-08-12T13:49:33Z</time>
      </trkpt>
      <trkpt lat="44.79037" lon="6.28223">
        <ele>2561.8</ele>
        <time>2024-08-12T13:49:34Z</time>
      </trkpt>
      <trkpt lat="44.79037" lon="6.28223">
        <ele>2561.2</ele>
        <time>2024-08-12T13:49:35Z</time>
      </trkpt>
      <trkpt lat="44.79039" lon="6.28221">
        <ele>2561</ele>
        <time>2024-08-12T13:49:36Z</time>
      </trkpt>
      <trkpt lat="44.79039" lon="6.28221">
        <ele>2560.8</ele>
        <time>2024-08-12T13:49:37Z</time>
      </trkpt>
      <trkpt lat="44.79041" lon="6.2822">
        <ele>2560.6</ele>
        <time>2024-08-12T13:49:38Z</time>
      </trkpt>
      <trkpt lat="44.79041" lon="6.2822">
        <ele>2560.6</ele>
        <time>2024-08-12T13:49:39Z</time>
      </trkpt>
      <trkpt lat="44.79042" lon="6.28223">
        <ele>2560.4</ele>
        <time>2024-08-12T13:49:40Z</time>
      </trkpt>
      <trkpt lat="44.79042" lon="6.28223">
        <ele>2559.4</ele>
        <time>2024-08-12T13:49:41Z</time>
      </trkpt>
      <trkpt lat="44.79041" lon="6.28227">
        <ele>2558.8</ele>
        <time>2024-08-12T13:49:42Z</time>
      </trkpt>
      <trkpt lat="44.79041" lon="6.28227">
        <ele>2558.6</ele>
        <time>2024-08-12T13:49:43Z</time>
      </trkpt>
      <trkpt lat="44.79041" lon="6.28231">
        <ele>2558.6</ele>
        <time>2024-08-12T13:49:44Z</time>
      </trkpt>
      <trkpt lat="44.79041" lon="6.28231">
        <ele>2558.4</ele>
        <time>2024-08-12T13:49:45Z</time>
      </trkpt>
      <trkpt lat="44.79041" lon="6.28234">
        <ele>2558.2</ele>
        <time>2024-08-12T13:49:46Z</time>
      </trkpt>
      <trkpt lat="44.79041" lon="6.28234">
        <ele>2558</ele>
        <time>2024-08-12T13:49:47Z</time>
      </trkpt>
      <trkpt lat="44.79041" lon="6.28238">
        <ele>2558</ele>
        <time>2024-08-12T13:49:48Z</time>
      </trkpt>
      <trkpt lat="44.79041" lon="6.28238">
        <ele>2557.6</ele>
        <time>2024-08-12T13:49:49Z</time>
      </trkpt>
      <trkpt lat="44.79041" lon="6.28242">
        <ele>2557.2</ele>
        <time>2024-08-12T13:49:50Z</time>
      </trkpt>
      <trkpt lat="44.79041" lon="6.28242">
        <ele>2557</ele>
        <time>2024-08-12T13:49:51Z</time>
      </trkpt>
      <trkpt lat="44.79042" lon="6.28246">
        <ele>2556.4</ele>
        <time>2024-08-12T13:49:52Z</time>
      </trkpt>
      <trkpt lat="44.79042" lon="6.28246">
        <ele>2556.4</ele>
        <time>2024-08-12T13:49:53Z</time>
      </trkpt>
      <trkpt lat="44.79042" lon="6.28249">
        <ele>2556.4</ele>
        <time>2024-08-12T13:49:54Z</time>
      </trkpt>
      <trkpt lat="44.79042" lon="6.28249">
        <ele>2556.2</ele>
        <time>2024-08-12T13:49:55Z</time>
      </trkpt>
      <trkpt lat="44.79042" lon="6.28252">
        <ele>2555.6</ele>
        <time>2024-08-12T13:49:56Z</time>
      </trkpt>
      <trkpt lat="44.79042" lon="6.28252">
        <ele>2555.6</ele>
        <time>2024-08-12T13:49:57Z</time>
      </trkpt>
      <trkpt lat="44.79041" lon="6.28255">
        <ele>2555.4</ele>
        <time>2024-08-12T13:49:58Z</time>
      </trkpt>
      <trkpt lat="44.79041" lon="6.28255">
        <ele>2555.4</ele>
        <time>2024-08-12T13:49:59Z</time>
      </trkpt>
      <trkpt lat="44.7904" lon="6.28259">
        <ele>2555.4</ele>
        <time>2024-08-12T13:50:00Z</time>
      </trkpt>
      <trkpt lat="44.7904" lon="6.28259">
        <ele>2555</ele>
        <time>2024-08-12T13:50:01Z</time>
      </trkpt>
      <trkpt lat="44.79039" lon="6.28262">
        <ele>2554.8</ele>
        <time>2024-08-12T13:50:02Z</time>
      </trkpt>
      <trkpt lat="44.79039" lon="6.28262">
        <ele>2554.8</ele>
        <time>2024-08-12T13:50:03Z</time>
      </trkpt>
      <trkpt lat="44.79041" lon="6.28263">
        <ele>2554.8</ele>
        <time>2024-08-12T13:50:04Z</time>
      </trkpt>
      <trkpt lat="44.79041" lon="6.28263">
        <ele>2554.6</ele>
        <time>2024-08-12T13:50:05Z</time>
      </trkpt>
      <trkpt lat="44.79041" lon="6.28263">
        <ele>2554</ele>
        <time>2024-08-12T13:50:06Z</time>
      </trkpt>
      <trkpt lat="44.79043" lon="6.28261">
        <ele>2553.6</ele>
        <time>2024-08-12T13:50:07Z</time>
      </trkpt>
      <trkpt lat="44.79043" lon="6.28261">
        <ele>2552.8</ele>
        <time>2024-08-12T13:50:08Z</time>
      </trkpt>
      <trkpt lat="44.79044" lon="6.28258">
        <ele>2552.2</ele>
        <time>2024-08-12T13:50:09Z</time>
      </trkpt>
      <trkpt lat="44.79044" lon="6.28258">
        <ele>2552.2</ele>
        <time>2024-08-12T13:50:10Z</time>
      </trkpt>
      <trkpt lat="44.79045" lon="6.28254">
        <ele>2551.6</ele>
        <time>2024-08-12T13:50:11Z</time>
      </trkpt>
      <trkpt lat="44.79045" lon="6.28254">
        <ele>2551.4</ele>
        <time>2024-08-12T13:50:12Z</time>
      </trkpt>
      <trkpt lat="44.79047" lon="6.2825">
        <ele>2551</ele>
        <time>2024-08-12T13:50:13Z</time>
      </trkpt>
      <trkpt lat="44.79047" lon="6.2825">
        <ele>2551</ele>
        <time>2024-08-12T13:50:14Z</time>
      </trkpt>
      <trkpt lat="44.79049" lon="6.28247">
        <ele>2551.2</ele>
        <time>2024-08-12T13:50:15Z</time>
      </trkpt>
      <trkpt lat="44.79049" lon="6.28247">
        <ele>2551.2</ele>
        <time>2024-08-12T13:50:16Z</time>
      </trkpt>
      <trkpt lat="44.79051" lon="6.28245">
        <ele>2551.2</ele>
        <time>2024-08-12T13:50:17Z</time>
      </trkpt>
      <trkpt lat="44.79051" lon="6.28245">
        <ele>2551</ele>
        <time>2024-08-12T13:50:18Z</time>
      </trkpt>
      <trkpt lat="44.79051" lon="6.28245">
        <ele>2551</ele>
        <time>2024-08-12T13:50:19Z</time>
      </trkpt>
      <trkpt lat="44.79053" lon="6.28247">
        <ele>2551</ele>
        <time>2024-08-12T13:50:20Z</time>
      </trkpt>
      <trkpt lat="44.79053" lon="6.28247">
        <ele>2550.8</ele>
        <time>2024-08-12T13:50:21Z</time>
      </trkpt>
      <trkpt lat="44.79054" lon="6.2825">
        <ele>2550.6</ele>
        <time>2024-08-12T13:50:22Z</time>
      </trkpt>
      <trkpt lat="44.79054" lon="6.2825">
        <ele>2550.2</ele>
        <time>2024-08-12T13:50:23Z</time>
      </trkpt>
      <trkpt lat="44.79055" lon="6.28253">
        <ele>2550</ele>
        <time>2024-08-12T13:50:24Z</time>
      </trkpt>
      <trkpt lat="44.79055" lon="6.28253">
        <ele>2549.4</ele>
        <time>2024-08-12T13:50:25Z</time>
      </trkpt>
      <trkpt lat="44.79055" lon="6.28256">
        <ele>2549</ele>
        <time>2024-08-12T13:50:26Z</time>
      </trkpt>
      <trkpt lat="44.79055" lon="6.28256">
        <ele>2548.4</ele>
        <time>2024-08-12T13:50:27Z</time>
      </trkpt>
      <trkpt lat="44.79055" lon="6.28256">
        <ele>2548.2</ele>
        <time>2024-08-12T13:50:28Z</time>
      </trkpt>
      <trkpt lat="44.79057" lon="6.28256">
        <ele>2548</ele>
        <time>2024-08-12T13:50:29Z</time>
      </trkpt>
      <trkpt lat="44.79057" lon="6.28256">
        <ele>2547.6</ele>
        <time>2024-08-12T13:50:30Z</time>
      </trkpt>
      <trkpt lat="44.79059" lon="6.28256">
        <ele>2547.6</ele>
        <time>2024-08-12T13:50:31Z</time>
      </trkpt>
      <trkpt lat="44.79059" lon="6.28256">
        <ele>2547.8</ele>
        <time>2024-08-12T13:50:32Z</time>
      </trkpt>
      <trkpt lat="44.79059" lon="6.28256">
        <ele>2547.8</ele>
        <time>2024-08-12T13:50:33Z</time>
      </trkpt>
      <trkpt lat="44.79061" lon="6.28254">
        <ele>2547.8</ele>
        <time>2024-08-12T13:50:34Z</time>
      </trkpt>
      <trkpt lat="44.79061" lon="6.28254">
        <ele>2548</ele>
        <time>2024-08-12T13:50:35Z</time>
      </trkpt>
      <trkpt lat="44.79061" lon="6.28254">
        <ele>2548.4</ele>
        <time>2024-08-12T13:50:36Z</time>
      </trkpt>
      <trkpt lat="44.79064" lon="6.28254">
        <ele>2548.4</ele>
        <time>2024-08-12T13:50:37Z</time>
      </trkpt>
      <trkpt lat="44.79064" lon="6.28254">
        <ele>2548.4</ele>
        <time>2024-08-12T13:50:38Z</time>
      </trkpt>
      <trkpt lat="44.79066" lon="6.28252">
        <ele>2547.6</ele>
        <time>2024-08-12T13:50:39Z</time>
      </trkpt>
      <trkpt lat="44.79066" lon="6.28252">
        <ele>2547.2</ele>
        <time>2024-08-12T13:50:40Z</time>
      </trkpt>
      <trkpt lat="44.79069" lon="6.28249">
        <ele>2547.2</ele>
        <time>2024-08-12T13:50:41Z</time>
      </trkpt>
      <trkpt lat="44.79069" lon="6.28249">
        <ele>2547</ele>
        <time>2024-08-12T13:50:42Z</time>
      </trkpt>
      <trkpt lat="44.79071" lon="6.28248">
        <ele>2547</ele>
        <time>2024-08-12T13:50:43Z</time>
      </trkpt>
      <trkpt lat="44.79071" lon="6.28248">
        <ele>2546.4</ele>
        <time>2024-08-12T13:50:44Z</time>
      </trkpt>
      <trkpt lat="44.79073" lon="6.2825">
        <ele>2546.4</ele>
        <time>2024-08-12T13:50:45Z</time>
      </trkpt>
      <trkpt lat="44.79073" lon="6.2825">
        <ele>2546.2</ele>
        <time>2024-08-12T13:50:46Z</time>
      </trkpt>
      <trkpt lat="44.79076" lon="6.28251">
        <ele>2545.6</ele>
        <time>2024-08-12T13:50:47Z</time>
      </trkpt>
      <trkpt lat="44.79076" lon="6.28251">
        <ele>2545.2</ele>
        <time>2024-08-12T13:50:48Z</time>
      </trkpt>
      <trkpt lat="44.79078" lon="6.28252">
        <ele>2545</ele>
        <time>2024-08-12T13:50:49Z</time>
      </trkpt>
      <trkpt lat="44.79078" lon="6.28252">
        <ele>2545</ele>
        <time>2024-08-12T13:50:50Z</time>
      </trkpt>
      <trkpt lat="44.7908" lon="6.28254">
        <ele>2545.8</ele>
        <time>2024-08-12T13:50:51Z</time>
      </trkpt>
      <trkpt lat="44.7908" lon="6.28254">
        <ele>2547</ele>
        <time>2024-08-12T13:50:52Z</time>
      </trkpt>
      <trkpt lat="44.79082" lon="6.28254">
        <ele>2547</ele>
        <time>2024-08-12T13:50:53Z</time>
      </trkpt>
      <trkpt lat="44.79082" lon="6.28254">
        <ele>2547</ele>
        <time>2024-08-12T13:50:54Z</time>
      </trkpt>
      <trkpt lat="44.79084" lon="6.28254">
        <ele>2546.6</ele>
        <time>2024-08-12T13:50:55Z</time>
      </trkpt>
      <trkpt lat="44.79084" lon="6.28254">
        <ele>2544.8</ele>
        <time>2024-08-12T13:50:56Z</time>
      </trkpt>
      <trkpt lat="44.79087" lon="6.28255">
        <ele>2543</ele>
        <time>2024-08-12T13:50:57Z</time>
      </trkpt>
      <trkpt lat="44.79089" lon="6.28256">
        <ele>2543</ele>
        <time>2024-08-12T13:50:58Z</time>
      </trkpt>
      <trkpt lat="44.79089" lon="6.28256">
        <ele>2543</ele>
        <time>2024-08-12T13:50:59Z</time>
      </trkpt>
      <trkpt lat="44.79091" lon="6.28256">
        <ele>2542.6</ele>
        <time>2024-08-12T13:51:00Z</time>
      </trkpt>
      <trkpt lat="44.79091" lon="6.28256">
        <ele>2542.2</ele>
        <time>2024-08-12T13:51:01Z</time>
      </trkpt>
      <trkpt lat="44.79094" lon="6.28257">
        <ele>2541.2</ele>
        <time>2024-08-12T13:51:02Z</time>
      </trkpt>
      <trkpt lat="44.79094" lon="6.28257">
        <ele>2541.2</ele>
        <time>2024-08-12T13:51:03Z</time>
      </trkpt>
      <trkpt lat="44.79097" lon="6.28257">
        <ele>2541.2</ele>
        <time>2024-08-12T13:51:04Z</time>
      </trkpt>
      <trkpt lat="44.79097" lon="6.28257">
        <ele>2541.4</ele>
        <time>2024-08-12T13:51:05Z</time>
      </trkpt>
      <trkpt lat="44.791" lon="6.28257">
        <ele>2541.4</ele>
        <time>2024-08-12T13:51:06Z</time>
      </trkpt>
      <trkpt lat="44.791" lon="6.28257">
        <ele>2540.4</ele>
        <time>2024-08-12T13:51:07Z</time>
      </trkpt>
      <trkpt lat="44.79102" lon="6.28257">
        <ele>2539.8</ele>
        <time>2024-08-12T13:51:08Z</time>
      </trkpt>
      <trkpt lat="44.79102" lon="6.28257">
        <ele>2539.8</ele>
        <time>2024-08-12T13:51:09Z</time>
      </trkpt>
      <trkpt lat="44.79105" lon="6.28256">
        <ele>2540</ele>
        <time>2024-08-12T13:51:10Z</time>
      </trkpt>
      <trkpt lat="44.79105" lon="6.28256">
        <ele>2540.8</ele>
        <time>2024-08-12T13:51:11Z</time>
      </trkpt>
      <trkpt lat="44.79107" lon="6.28257">
        <ele>2540.8</ele>
        <time>2024-08-12T13:51:12Z</time>
      </trkpt>
      <trkpt lat="44.79107" lon="6.28257">
        <ele>2540.4</ele>
        <time>2024-08-12T13:51:13Z</time>
      </trkpt>
      <trkpt lat="44.79109" lon="6.28257">
        <ele>2540.2</ele>
        <time>2024-08-12T13:51:14Z</time>
      </trkpt>
      <trkpt lat="44.79109" lon="6.28257">
        <ele>2539.6</ele>
        <time>2024-08-12T13:51:15Z</time>
      </trkpt>
      <trkpt lat="44.79109" lon="6.28257">
        <ele>2538.8</ele>
        <time>2024-08-12T13:51:16Z</time>
      </trkpt>
      <trkpt lat="44.79111" lon="6.28257">
        <ele>2538.8</ele>
        <time>2024-08-12T13:51:17Z</time>
      </trkpt>
      <trkpt lat="44.79111" lon="6.28257">
        <ele>2538.6</ele>
        <time>2024-08-12T13:51:18Z</time>
      </trkpt>
      <trkpt lat="44.79111" lon="6.28257">
        <ele>2538.8</ele>
        <time>2024-08-12T13:51:19Z</time>
      </trkpt>
      <trkpt lat="44.79113" lon="6.28258">
        <ele>2538.6</ele>
        <time>2024-08-12T13:51:20Z</time>
      </trkpt>
      <trkpt lat="44.79113" lon="6.28258">
        <ele>2538.4</ele>
        <time>2024-08-12T13:51:21Z</time>
      </trkpt>
      <trkpt lat="44.79113" lon="6.28258">
        <ele>2538.4</ele>
        <time>2024-08-12T13:51:22Z</time>
      </trkpt>
      <trkpt lat="44.79114" lon="6.28261">
        <ele>2538.6</ele>
        <time>2024-08-12T13:51:23Z</time>
      </trkpt>
      <trkpt lat="44.79114" lon="6.28261">
        <ele>2538.6</ele>
        <time>2024-08-12T13:51:24Z</time>
      </trkpt>
      <trkpt lat="44.79114" lon="6.28261">
        <ele>2538.2</ele>
        <time>2024-08-12T13:51:25Z</time>
      </trkpt>
      <trkpt lat="44.79114" lon="6.28261">
        <ele>2537.6</ele>
        <time>2024-08-12T13:51:26Z</time>
      </trkpt>
      <trkpt lat="44.79117" lon="6.28262">
        <ele>2537</ele>
        <time>2024-08-12T13:51:27Z</time>
      </trkpt>
      <trkpt lat="44.79117" lon="6.28262">
        <ele>2536.2</ele>
        <time>2024-08-12T13:51:28Z</time>
      </trkpt>
      <trkpt lat="44.79117" lon="6.28262">
        <ele>2535.6</ele>
        <time>2024-08-12T13:51:29Z</time>
      </trkpt>
      <trkpt lat="44.79119" lon="6.28263">
        <ele>2535.6</ele>
        <time>2024-08-12T13:51:30Z</time>
      </trkpt>
      <trkpt lat="44.79119" lon="6.28263">
        <ele>2536.2</ele>
        <time>2024-08-12T13:51:31Z</time>
      </trkpt>
      <trkpt lat="44.79119" lon="6.28263">
        <ele>2536.6</ele>
        <time>2024-08-12T13:51:32Z</time>
      </trkpt>
      <trkpt lat="44.79119" lon="6.28266">
        <ele>2537</ele>
        <time>2024-08-12T13:51:33Z</time>
      </trkpt>
      <trkpt lat="44.79119" lon="6.28266">
        <ele>2537.2</ele>
        <time>2024-08-12T13:51:34Z</time>
      </trkpt>
      <trkpt lat="44.79121" lon="6.28268">
        <ele>2537.6</ele>
        <time>2024-08-12T13:51:35Z</time>
      </trkpt>
      <trkpt lat="44.79121" lon="6.28268">
        <ele>2538.2</ele>
        <time>2024-08-12T13:51:36Z</time>
      </trkpt>
      <trkpt lat="44.79121" lon="6.2827">
        <ele>2538.2</ele>
        <time>2024-08-12T13:51:37Z</time>
      </trkpt>
      <trkpt lat="44.79121" lon="6.2827">
        <ele>2538.2</ele>
        <time>2024-08-12T13:51:38Z</time>
      </trkpt>
      <trkpt lat="44.7912" lon="6.28274">
        <ele>2538.6</ele>
        <time>2024-08-12T13:51:39Z</time>
      </trkpt>
      <trkpt lat="44.7912" lon="6.28274">
        <ele>2538.6</ele>
        <time>2024-08-12T13:51:40Z</time>
      </trkpt>
      <trkpt lat="44.79119" lon="6.28277">
        <ele>2538.4</ele>
        <time>2024-08-12T13:51:41Z</time>
      </trkpt>
      <trkpt lat="44.79119" lon="6.28277">
        <ele>2538</ele>
        <time>2024-08-12T13:51:42Z</time>
      </trkpt>
      <trkpt lat="44.79119" lon="6.28281">
        <ele>2537.6</ele>
        <time>2024-08-12T13:51:43Z</time>
      </trkpt>
      <trkpt lat="44.79119" lon="6.28281">
        <ele>2537.2</ele>
        <time>2024-08-12T13:51:44Z</time>
      </trkpt>
      <trkpt lat="44.7912" lon="6.28285">
        <ele>2537.2</ele>
        <time>2024-08-12T13:51:45Z</time>
      </trkpt>
      <trkpt lat="44.7912" lon="6.28285">
        <ele>2537.4</ele>
        <time>2024-08-12T13:51:46Z</time>
      </trkpt>
      <trkpt lat="44.79119" lon="6.28289">
        <ele>2537.4</ele>
        <time>2024-08-12T13:51:47Z</time>
      </trkpt>
      <trkpt lat="44.79119" lon="6.28289">
        <ele>2537.8</ele>
        <time>2024-08-12T13:51:48Z</time>
      </trkpt>
      <trkpt lat="44.79118" lon="6.28292">
        <ele>2537.6</ele>
        <time>2024-08-12T13:51:49Z</time>
      </trkpt>
      <trkpt lat="44.79118" lon="6.28292">
        <ele>2537.6</ele>
        <time>2024-08-12T13:51:50Z</time>
      </trkpt>
      <trkpt lat="44.79117" lon="6.28295">
        <ele>2537.4</ele>
        <time>2024-08-12T13:51:51Z</time>
      </trkpt>
      <trkpt lat="44.79117" lon="6.28295">
        <ele>2537.2</ele>
        <time>2024-08-12T13:51:52Z</time>
      </trkpt>
      <trkpt lat="44.79116" lon="6.28298">
        <ele>2537</ele>
        <time>2024-08-12T13:51:53Z</time>
      </trkpt>
      <trkpt lat="44.79116" lon="6.28298">
        <ele>2536.6</ele>
        <time>2024-08-12T13:51:54Z</time>
      </trkpt>
      <trkpt lat="44.79115" lon="6.28301">
        <ele>2536.4</ele>
        <time>2024-08-12T13:51:55Z</time>
      </trkpt>
      <trkpt lat="44.79115" lon="6.28301">
        <ele>2536</ele>
        <time>2024-08-12T13:51:56Z</time>
      </trkpt>
      <trkpt lat="44.79113" lon="6.28305">
        <ele>2536</ele>
        <time>2024-08-12T13:51:57Z</time>
      </trkpt>
      <trkpt lat="44.79113" lon="6.28305">
        <ele>2535.8</ele>
        <time>2024-08-12T13:51:58Z</time>
      </trkpt>
      <trkpt lat="44.79113" lon="6.28309">
        <ele>2535.6</ele>
        <time>2024-08-12T13:51:59Z</time>
      </trkpt>
      <trkpt lat="44.79113" lon="6.28309">
        <ele>2535.6</ele>
        <time>2024-08-12T13:52:00Z</time>
      </trkpt>
      <trkpt lat="44.79112" lon="6.28312">
        <ele>2535.8</ele>
        <time>2024-08-12T13:52:01Z</time>
      </trkpt>
      <trkpt lat="44.79112" lon="6.28312">
        <ele>2535.6</ele>
        <time>2024-08-12T13:52:02Z</time>
      </trkpt>
      <trkpt lat="44.79111" lon="6.28316">
        <ele>2535.6</ele>
        <time>2024-08-12T13:52:03Z</time>
      </trkpt>
      <trkpt lat="44.79111" lon="6.28316">
        <ele>2535.4</ele>
        <time>2024-08-12T13:52:04Z</time>
      </trkpt>
      <trkpt lat="44.7911" lon="6.2832">
        <ele>2534.8</ele>
        <time>2024-08-12T13:52:05Z</time>
      </trkpt>
      <trkpt lat="44.79109" lon="6.28323">
        <ele>2534.6</ele>
        <time>2024-08-12T13:52:06Z</time>
      </trkpt>
      <trkpt lat="44.79109" lon="6.28323">
        <ele>2534.4</ele>
        <time>2024-08-12T13:52:07Z</time>
      </trkpt>
      <trkpt lat="44.79109" lon="6.28326">
        <ele>2534</ele>
        <time>2024-08-12T13:52:08Z</time>
      </trkpt>
      <trkpt lat="44.79109" lon="6.28326">
        <ele>2534</ele>
        <time>2024-08-12T13:52:09Z</time>
      </trkpt>
      <trkpt lat="44.79108" lon="6.2833">
        <ele>2534</ele>
        <time>2024-08-12T13:52:10Z</time>
      </trkpt>
      <trkpt lat="44.79108" lon="6.2833">
        <ele>2534.2</ele>
        <time>2024-08-12T13:52:11Z</time>
      </trkpt>
      <trkpt lat="44.79106" lon="6.28334">
        <ele>2534.4</ele>
        <time>2024-08-12T13:52:12Z</time>
      </trkpt>
      <trkpt lat="44.79106" lon="6.28334">
        <ele>2534.4</ele>
        <time>2024-08-12T13:52:13Z</time>
      </trkpt>
      <trkpt lat="44.79105" lon="6.28338">
        <ele>2533.6</ele>
        <time>2024-08-12T13:52:14Z</time>
      </trkpt>
      <trkpt lat="44.79105" lon="6.28338">
        <ele>2532.8</ele>
        <time>2024-08-12T13:52:15Z</time>
      </trkpt>
      <trkpt lat="44.79103" lon="6.28341">
        <ele>2532.6</ele>
        <time>2024-08-12T13:52:16Z</time>
      </trkpt>
      <trkpt lat="44.79103" lon="6.28341">
        <ele>2532.6</ele>
        <time>2024-08-12T13:52:17Z</time>
      </trkpt>
      <trkpt lat="44.79101" lon="6.28345">
        <ele>2532.4</ele>
        <time>2024-08-12T13:52:18Z</time>
      </trkpt>
      <trkpt lat="44.79101" lon="6.28345">
        <ele>2531.8</ele>
        <time>2024-08-12T13:52:19Z</time>
      </trkpt>
      <trkpt lat="44.79101" lon="6.28348">
        <ele>2531.6</ele>
        <time>2024-08-12T13:52:20Z</time>
      </trkpt>
      <trkpt lat="44.79101" lon="6.28348">
        <ele>2531.6</ele>
        <time>2024-08-12T13:52:21Z</time>
      </trkpt>
      <trkpt lat="44.79102" lon="6.28351">
        <ele>2531.8</ele>
        <time>2024-08-12T13:52:22Z</time>
      </trkpt>
      <trkpt lat="44.79102" lon="6.28351">
        <ele>2531.8</ele>
        <time>2024-08-12T13:52:23Z</time>
      </trkpt>
      <trkpt lat="44.79104" lon="6.28355">
        <ele>2531.2</ele>
        <time>2024-08-12T13:52:24Z</time>
      </trkpt>
      <trkpt lat="44.79104" lon="6.28355">
        <ele>2530.6</ele>
        <time>2024-08-12T13:52:25Z</time>
      </trkpt>
      <trkpt lat="44.79105" lon="6.28358">
        <ele>2530.4</ele>
        <time>2024-08-12T13:52:26Z</time>
      </trkpt>
      <trkpt lat="44.79105" lon="6.28358">
        <ele>2530.4</ele>
        <time>2024-08-12T13:52:27Z</time>
      </trkpt>
      <trkpt lat="44.79106" lon="6.28362">
        <ele>2530.4</ele>
        <time>2024-08-12T13:52:28Z</time>
      </trkpt>
      <trkpt lat="44.79106" lon="6.28362">
        <ele>2530.4</ele>
        <time>2024-08-12T13:52:29Z</time>
      </trkpt>
      <trkpt lat="44.79109" lon="6.28364">
        <ele>2530.4</ele>
        <time>2024-08-12T13:52:30Z</time>
      </trkpt>
      <trkpt lat="44.79109" lon="6.28364">
        <ele>2530.4</ele>
        <time>2024-08-12T13:52:31Z</time>
      </trkpt>
      <trkpt lat="44.7911" lon="6.28367">
        <ele>2530.2</ele>
        <time>2024-08-12T13:52:32Z</time>
      </trkpt>
      <trkpt lat="44.7911" lon="6.28367">
        <ele>2530</ele>
        <time>2024-08-12T13:52:33Z</time>
      </trkpt>
      <trkpt lat="44.79112" lon="6.28369">
        <ele>2529.8</ele>
        <time>2024-08-12T13:52:34Z</time>
      </trkpt>
      <trkpt lat="44.79112" lon="6.28369">
        <ele>2529.6</ele>
        <time>2024-08-12T13:52:35Z</time>
      </trkpt>
      <trkpt lat="44.79112" lon="6.28369">
        <ele>2529.6</ele>
        <time>2024-08-12T13:52:36Z</time>
      </trkpt>
      <trkpt lat="44.79114" lon="6.28371">
        <ele>2529.4</ele>
        <time>2024-08-12T13:52:37Z</time>
      </trkpt>
      <trkpt lat="44.79114" lon="6.28371">
        <ele>2529</ele>
        <time>2024-08-12T13:52:38Z</time>
      </trkpt>
      <trkpt lat="44.79116" lon="6.28373">
        <ele>2529</ele>
        <time>2024-08-12T13:52:39Z</time>
      </trkpt>
      <trkpt lat="44.79116" lon="6.28373">
        <ele>2528.6</ele>
        <time>2024-08-12T13:52:40Z</time>
      </trkpt>
      <trkpt lat="44.79118" lon="6.28375">
        <ele>2528.2</ele>
        <time>2024-08-12T13:52:41Z</time>
      </trkpt>
      <trkpt lat="44.79118" lon="6.28375">
        <ele>2528</ele>
        <time>2024-08-12T13:52:42Z</time>
      </trkpt>
      <trkpt lat="44.79119" lon="6.28377">
        <ele>2528</ele>
        <time>2024-08-12T13:52:43Z</time>
      </trkpt>
      <trkpt lat="44.79119" lon="6.28377">
        <ele>2528</ele>
        <time>2024-08-12T13:52:44Z</time>
      </trkpt>
      <trkpt lat="44.79121" lon="6.28379">
        <ele>2528</ele>
        <time>2024-08-12T13:52:45Z</time>
      </trkpt>
      <trkpt lat="44.79121" lon="6.28379">
        <ele>2528</ele>
        <time>2024-08-12T13:52:46Z</time>
      </trkpt>
      <trkpt lat="44.79123" lon="6.28382">
        <ele>2528</ele>
        <time>2024-08-12T13:52:47Z</time>
      </trkpt>
      <trkpt lat="44.79123" lon="6.28382">
        <ele>2528</ele>
        <time>2024-08-12T13:52:48Z</time>
      </trkpt>
      <trkpt lat="44.79124" lon="6.28384">
        <ele>2528</ele>
        <time>2024-08-12T13:52:49Z</time>
      </trkpt>
      <trkpt lat="44.79124" lon="6.28384">
        <ele>2527.6</ele>
        <time>2024-08-12T13:52:50Z</time>
      </trkpt>
      <trkpt lat="44.79124" lon="6.28384">
        <ele>2527.2</ele>
        <time>2024-08-12T13:52:51Z</time>
      </trkpt>
      <trkpt lat="44.79124" lon="6.28384">
        <ele>2527.2</ele>
        <time>2024-08-12T13:52:52Z</time>
      </trkpt>
      <trkpt lat="44.79124" lon="6.28384">
        <ele>2527.2</ele>
        <time>2024-08-12T13:52:53Z</time>
      </trkpt>
      <trkpt lat="44.79124" lon="6.28384">
        <ele>2527.4</ele>
        <time>2024-08-12T13:52:54Z</time>
      </trkpt>
      <trkpt lat="44.79124" lon="6.28384">
        <ele>2527.6</ele>
        <time>2024-08-12T13:52:55Z</time>
      </trkpt>
      <trkpt lat="44.79124" lon="6.28384">
        <ele>2527.6</ele>
        <time>2024-08-12T13:52:56Z</time>
      </trkpt>
      <trkpt lat="44.79124" lon="6.28384">
        <ele>2528</ele>
        <time>2024-08-12T13:52:57Z</time>
      </trkpt>
      <trkpt lat="44.79124" lon="6.28384">
        <ele>2528</ele>
        <time>2024-08-12T13:52:58Z</time>
      </trkpt>
      <trkpt lat="44.79124" lon="6.28384">
        <ele>2527.8</ele>
        <time>2024-08-12T13:52:59Z</time>
      </trkpt>
      <trkpt lat="44.79124" lon="6.28384">
        <ele>2527.6</ele>
        <time>2024-08-12T13:53:00Z</time>
      </trkpt>
      <trkpt lat="44.79124" lon="6.28384">
        <ele>2527.6</ele>
        <time>2024-08-12T13:53:01Z</time>
      </trkpt>
      <trkpt lat="44.79127" lon="6.28386">
        <ele>2527.2</ele>
        <time>2024-08-12T13:53:02Z</time>
      </trkpt>
      <trkpt lat="44.79127" lon="6.28386">
        <ele>2527.2</ele>
        <time>2024-08-12T13:53:03Z</time>
      </trkpt>
      <trkpt lat="44.79129" lon="6.28386">
        <ele>2526.8</ele>
        <time>2024-08-12T13:53:04Z</time>
      </trkpt>
      <trkpt lat="44.79129" lon="6.28386">
        <ele>2526.2</ele>
        <time>2024-08-12T13:53:05Z</time>
      </trkpt>
      <trkpt lat="44.79131" lon="6.28383">
        <ele>2525.2</ele>
        <time>2024-08-12T13:53:06Z</time>
      </trkpt>
      <trkpt lat="44.79131" lon="6.28383">
        <ele>2524.6</ele>
        <time>2024-08-12T13:53:07Z</time>
      </trkpt>
      <trkpt lat="44.79131" lon="6.28379">
        <ele>2524.6</ele>
        <time>2024-08-12T13:53:08Z</time>
      </trkpt>
      <trkpt lat="44.79131" lon="6.28379">
        <ele>2524.6</ele>
        <time>2024-08-12T13:53:09Z</time>
      </trkpt>
      <trkpt lat="44.79134" lon="6.28377">
        <ele>2524.6</ele>
        <time>2024-08-12T13:53:10Z</time>
      </trkpt>
      <trkpt lat="44.79134" lon="6.28377">
        <ele>2524.4</ele>
        <time>2024-08-12T13:53:11Z</time>
      </trkpt>
      <trkpt lat="44.79134" lon="6.28377">
        <ele>2524.2</ele>
        <time>2024-08-12T13:53:12Z</time>
      </trkpt>
      <trkpt lat="44.79137" lon="6.28378">
        <ele>2524</ele>
        <time>2024-08-12T13:53:13Z</time>
      </trkpt>
      <trkpt lat="44.79137" lon="6.28378">
        <ele>2523.8</ele>
        <time>2024-08-12T13:53:14Z</time>
      </trkpt>
      <trkpt lat="44.79139" lon="6.2838">
        <ele>2523.8</ele>
        <time>2024-08-12T13:53:15Z</time>
      </trkpt>
      <trkpt lat="44.79139" lon="6.2838">
        <ele>2523.8</ele>
        <time>2024-08-12T13:53:16Z</time>
      </trkpt>
      <trkpt lat="44.79142" lon="6.28381">
        <ele>2523.6</ele>
        <time>2024-08-12T13:53:17Z</time>
      </trkpt>
      <trkpt lat="44.79142" lon="6.28381">
        <ele>2523.4</ele>
        <time>2024-08-12T13:53:18Z</time>
      </trkpt>
      <trkpt lat="44.79144" lon="6.28383">
        <ele>2523.2</ele>
        <time>2024-08-12T13:53:19Z</time>
      </trkpt>
      <trkpt lat="44.79144" lon="6.28383">
        <ele>2523.2</ele>
        <time>2024-08-12T13:53:20Z</time>
      </trkpt>
      <trkpt lat="44.79147" lon="6.28385">
        <ele>2523.2</ele>
        <time>2024-08-12T13:53:21Z</time>
      </trkpt>
      <trkpt lat="44.79147" lon="6.28385">
        <ele>2523.2</ele>
        <time>2024-08-12T13:53:22Z</time>
      </trkpt>
      <trkpt lat="44.79149" lon="6.28386">
        <ele>2523</ele>
        <time>2024-08-12T13:53:23Z</time>
      </trkpt>
      <trkpt lat="44.79149" lon="6.28386">
        <ele>2523</ele>
        <time>2024-08-12T13:53:24Z</time>
      </trkpt>
      <trkpt lat="44.79152" lon="6.28387">
        <ele>2522.8</ele>
        <time>2024-08-12T13:53:25Z</time>
      </trkpt>
      <trkpt lat="44.79152" lon="6.28387">
        <ele>2522.4</ele>
        <time>2024-08-12T13:53:26Z</time>
      </trkpt>
      <trkpt lat="44.79154" lon="6.28387">
        <ele>2522</ele>
        <time>2024-08-12T13:53:27Z</time>
      </trkpt>
      <trkpt lat="44.79154" lon="6.28387">
        <ele>2521.6</ele>
        <time>2024-08-12T13:53:28Z</time>
      </trkpt>
      <trkpt lat="44.79154" lon="6.28387">
        <ele>2521.6</ele>
        <time>2024-08-12T13:53:29Z</time>
      </trkpt>
      <trkpt lat="44.79157" lon="6.28388">
        <ele>2521.4</ele>
        <time>2024-08-12T13:53:30Z</time>
      </trkpt>
      <trkpt lat="44.79159" lon="6.28388">
        <ele>2521</ele>
        <time>2024-08-12T13:53:31Z</time>
      </trkpt>
      <trkpt lat="44.79159" lon="6.28388">
        <ele>2520.2</ele>
        <time>2024-08-12T13:53:32Z</time>
      </trkpt>
      <trkpt lat="44.79161" lon="6.28389">
        <ele>2520</ele>
        <time>2024-08-12T13:53:33Z</time>
      </trkpt>
      <trkpt lat="44.79161" lon="6.28389">
        <ele>2519.6</ele>
        <time>2024-08-12T13:53:34Z</time>
      </trkpt>
      <trkpt lat="44.79163" lon="6.2839">
        <ele>2519.4</ele>
        <time>2024-08-12T13:53:35Z</time>
      </trkpt>
      <trkpt lat="44.79163" lon="6.2839">
        <ele>2519.2</ele>
        <time>2024-08-12T13:53:36Z</time>
      </trkpt>
      <trkpt lat="44.79165" lon="6.2839">
        <ele>2519</ele>
        <time>2024-08-12T13:53:37Z</time>
      </trkpt>
      <trkpt lat="44.79165" lon="6.2839">
        <ele>2518.6</ele>
        <time>2024-08-12T13:53:38Z</time>
      </trkpt>
      <trkpt lat="44.79166" lon="6.28392">
        <ele>2518</ele>
        <time>2024-08-12T13:53:39Z</time>
      </trkpt>
      <trkpt lat="44.79166" lon="6.28392">
        <ele>2517.6</ele>
        <time>2024-08-12T13:53:40Z</time>
      </trkpt>
      <trkpt lat="44.79166" lon="6.28392">
        <ele>2517</ele>
        <time>2024-08-12T13:53:41Z</time>
      </trkpt>
      <trkpt lat="44.79165" lon="6.28395">
        <ele>2516.8</ele>
        <time>2024-08-12T13:53:42Z</time>
      </trkpt>
      <trkpt lat="44.79163" lon="6.28396">
        <ele>2516.6</ele>
        <time>2024-08-12T13:53:43Z</time>
      </trkpt>
      <trkpt lat="44.79163" lon="6.28396">
        <ele>2516.4</ele>
        <time>2024-08-12T13:53:44Z</time>
      </trkpt>
      <trkpt lat="44.79161" lon="6.28398">
        <ele>2516.2</ele>
        <time>2024-08-12T13:53:45Z</time>
      </trkpt>
      <trkpt lat="44.79161" lon="6.28398">
        <ele>2515.8</ele>
        <time>2024-08-12T13:53:46Z</time>
      </trkpt>
      <trkpt lat="44.79158" lon="6.284">
        <ele>2515.6</ele>
        <time>2024-08-12T13:53:47Z</time>
      </trkpt>
      <trkpt lat="44.79158" lon="6.284">
        <ele>2515.6</ele>
        <time>2024-08-12T13:53:48Z</time>
      </trkpt>
      <trkpt lat="44.79157" lon="6.28404">
        <ele>2515.4</ele>
        <time>2024-08-12T13:53:49Z</time>
      </trkpt>
      <trkpt lat="44.79157" lon="6.28404">
        <ele>2515</ele>
        <time>2024-08-12T13:53:50Z</time>
      </trkpt>
      <trkpt lat="44.79155" lon="6.28406">
        <ele>2514.8</ele>
        <time>2024-08-12T13:53:51Z</time>
      </trkpt>
      <trkpt lat="44.79155" lon="6.28406">
        <ele>2514.4</ele>
        <time>2024-08-12T13:53:52Z</time>
      </trkpt>
      <trkpt lat="44.79152" lon="6.28407">
        <ele>2514.4</ele>
        <time>2024-08-12T13:53:53Z</time>
      </trkpt>
      <trkpt lat="44.79152" lon="6.28407">
        <ele>2514</ele>
        <time>2024-08-12T13:53:54Z</time>
      </trkpt>
      <trkpt lat="44.7915" lon="6.28407">
        <ele>2514</ele>
        <time>2024-08-12T13:53:55Z</time>
      </trkpt>
      <trkpt lat="44.7915" lon="6.28407">
        <ele>2513.8</ele>
        <time>2024-08-12T13:53:56Z</time>
      </trkpt>
      <trkpt lat="44.79149" lon="6.28409">
        <ele>2513.6</ele>
        <time>2024-08-12T13:53:57Z</time>
      </trkpt>
      <trkpt lat="44.79149" lon="6.28409">
        <ele>2513.6</ele>
        <time>2024-08-12T13:53:58Z</time>
      </trkpt>
      <trkpt lat="44.79147" lon="6.28411">
        <ele>2513.4</ele>
        <time>2024-08-12T13:53:59Z</time>
      </trkpt>
      <trkpt lat="44.79147" lon="6.28411">
        <ele>2513.2</ele>
        <time>2024-08-12T13:54:00Z</time>
      </trkpt>
      <trkpt lat="44.79146" lon="6.28414">
        <ele>2512.6</ele>
        <time>2024-08-12T13:54:01Z</time>
      </trkpt>
      <trkpt lat="44.79146" lon="6.28414">
        <ele>2512.4</ele>
        <time>2024-08-12T13:54:02Z</time>
      </trkpt>
      <trkpt lat="44.79146" lon="6.28416">
        <ele>2512.4</ele>
        <time>2024-08-12T13:54:03Z</time>
      </trkpt>
      <trkpt lat="44.79146" lon="6.28416">
        <ele>2511.8</ele>
        <time>2024-08-12T13:54:04Z</time>
      </trkpt>
      <trkpt lat="44.79144" lon="6.28419">
        <ele>2511.6</ele>
        <time>2024-08-12T13:54:05Z</time>
      </trkpt>
      <trkpt lat="44.79144" lon="6.28419">
        <ele>2511.6</ele>
        <time>2024-08-12T13:54:06Z</time>
      </trkpt>
      <trkpt lat="44.79143" lon="6.28421">
        <ele>2511.4</ele>
        <time>2024-08-12T13:54:07Z</time>
      </trkpt>
      <trkpt lat="44.79143" lon="6.28421">
        <ele>2511.4</ele>
        <time>2024-08-12T13:54:08Z</time>
      </trkpt>
      <trkpt lat="44.79143" lon="6.28421">
        <ele>2511.6</ele>
        <time>2024-08-12T13:54:09Z</time>
      </trkpt>
      <trkpt lat="44.79141" lon="6.28425">
        <ele>2511.8</ele>
        <time>2024-08-12T13:54:10Z</time>
      </trkpt>
      <trkpt lat="44.79141" lon="6.28425">
        <ele>2511.8</ele>
        <time>2024-08-12T13:54:11Z</time>
      </trkpt>
      <trkpt lat="44.79139" lon="6.28426">
        <ele>2511.6</ele>
        <time>2024-08-12T13:54:12Z</time>
      </trkpt>
      <trkpt lat="44.79139" lon="6.28426">
        <ele>2511.6</ele>
        <time>2024-08-12T13:54:13Z</time>
      </trkpt>
      <trkpt lat="44.79137" lon="6.28428">
        <ele>2511.4</ele>
        <time>2024-08-12T13:54:14Z</time>
      </trkpt>
      <trkpt lat="44.79137" lon="6.28428">
        <ele>2511</ele>
        <time>2024-08-12T13:54:15Z</time>
      </trkpt>
      <trkpt lat="44.79135" lon="6.28428">
        <ele>2510.8</ele>
        <time>2024-08-12T13:54:16Z</time>
      </trkpt>
      <trkpt lat="44.79135" lon="6.28428">
        <ele>2510.6</ele>
        <time>2024-08-12T13:54:17Z</time>
      </trkpt>
      <trkpt lat="44.79135" lon="6.28428">
        <ele>2510</ele>
        <time>2024-08-12T13:54:18Z</time>
      </trkpt>
      <trkpt lat="44.79133" lon="6.28427">
        <ele>2509.8</ele>
        <time>2024-08-12T13:54:19Z</time>
      </trkpt>
      <trkpt lat="44.79133" lon="6.28427">
        <ele>2509.6</ele>
        <time>2024-08-12T13:54:20Z</time>
      </trkpt>
      <trkpt lat="44.79133" lon="6.28427">
        <ele>2509.6</ele>
        <time>2024-08-12T13:54:21Z</time>
      </trkpt>
      <trkpt lat="44.79133" lon="6.28427">
        <ele>2509.2</ele>
        <time>2024-08-12T13:54:22Z</time>
      </trkpt>
      <trkpt lat="44.79134" lon="6.2843">
        <ele>2509</ele>
        <time>2024-08-12T13:54:23Z</time>
      </trkpt>
      <trkpt lat="44.79134" lon="6.2843">
        <ele>2509</ele>
        <time>2024-08-12T13:54:24Z</time>
      </trkpt>
      <trkpt lat="44.79136" lon="6.28432">
        <ele>2508.4</ele>
        <time>2024-08-12T13:54:25Z</time>
      </trkpt>
      <trkpt lat="44.79136" lon="6.28432">
        <ele>2508.2</ele>
        <time>2024-08-12T13:54:26Z</time>
      </trkpt>
      <trkpt lat="44.79138" lon="6.28433">
        <ele>2508</ele>
        <time>2024-08-12T13:54:27Z</time>
      </trkpt>
      <trkpt lat="44.79138" lon="6.28433">
        <ele>2507.8</ele>
        <time>2024-08-12T13:54:28Z</time>
      </trkpt>
      <trkpt lat="44.7914" lon="6.28435">
        <ele>2507.4</ele>
        <time>2024-08-12T13:54:29Z</time>
      </trkpt>
      <trkpt lat="44.7914" lon="6.28435">
        <ele>2507.2</ele>
        <time>2024-08-12T13:54:30Z</time>
      </trkpt>
      <trkpt lat="44.7914" lon="6.28435">
        <ele>2507.2</ele>
        <time>2024-08-12T13:54:31Z</time>
      </trkpt>
      <trkpt lat="44.79137" lon="6.28436">
        <ele>2507</ele>
        <time>2024-08-12T13:54:32Z</time>
      </trkpt>
      <trkpt lat="44.79137" lon="6.28436">
        <ele>2506.6</ele>
        <time>2024-08-12T13:54:33Z</time>
      </trkpt>
      <trkpt lat="44.79135" lon="6.28436">
        <ele>2506.2</ele>
        <time>2024-08-12T13:54:34Z</time>
      </trkpt>
      <trkpt lat="44.79135" lon="6.28436">
        <ele>2506.2</ele>
        <time>2024-08-12T13:54:35Z</time>
      </trkpt>
      <trkpt lat="44.79133" lon="6.28436">
        <ele>2506</ele>
        <time>2024-08-12T13:54:36Z</time>
      </trkpt>
      <trkpt lat="44.79133" lon="6.28436">
        <ele>2505.8</ele>
        <time>2024-08-12T13:54:37Z</time>
      </trkpt>
      <trkpt lat="44.79133" lon="6.28436">
        <ele>2505.6</ele>
        <time>2024-08-12T13:54:38Z</time>
      </trkpt>
      <trkpt lat="44.79133" lon="6.28436">
        <ele>2505.2</ele>
        <time>2024-08-12T13:54:39Z</time>
      </trkpt>
      <trkpt lat="44.79133" lon="6.28436">
        <ele>2504.8</ele>
        <time>2024-08-12T13:54:40Z</time>
      </trkpt>
      <trkpt lat="44.79133" lon="6.28436">
        <ele>2504.6</ele>
        <time>2024-08-12T13:54:41Z</time>
      </trkpt>
      <trkpt lat="44.79133" lon="6.28436">
        <ele>2504.2</ele>
        <time>2024-08-12T13:54:42Z</time>
      </trkpt>
      <trkpt lat="44.79134" lon="6.2844">
        <ele>2503.8</ele>
        <time>2024-08-12T13:54:43Z</time>
      </trkpt>
      <trkpt lat="44.79136" lon="6.28441">
        <ele>2503.4</ele>
        <time>2024-08-12T13:54:44Z</time>
      </trkpt>
      <trkpt lat="44.79136" lon="6.28441">
        <ele>2503.2</ele>
        <time>2024-08-12T13:54:45Z</time>
      </trkpt>
      <trkpt lat="44.79139" lon="6.28443">
        <ele>2503.2</ele>
        <time>2024-08-12T13:54:46Z</time>
      </trkpt>
      <trkpt lat="44.79139" lon="6.28443">
        <ele>2502.8</ele>
        <time>2024-08-12T13:54:47Z</time>
      </trkpt>
      <trkpt lat="44.79139" lon="6.28443">
        <ele>2502.6</ele>
        <time>2024-08-12T13:54:48Z</time>
      </trkpt>
      <trkpt lat="44.79139" lon="6.28443">
        <ele>2502</ele>
        <time>2024-08-12T13:54:49Z</time>
      </trkpt>
      <trkpt lat="44.79137" lon="6.28445">
        <ele>2502</ele>
        <time>2024-08-12T13:54:50Z</time>
      </trkpt>
      <trkpt lat="44.79137" lon="6.28445">
        <ele>2501.6</ele>
        <time>2024-08-12T13:54:51Z</time>
      </trkpt>
      <trkpt lat="44.79135" lon="6.28446">
        <ele>2501.6</ele>
        <time>2024-08-12T13:54:52Z</time>
      </trkpt>
      <trkpt lat="44.79135" lon="6.28446">
        <ele>2501.4</ele>
        <time>2024-08-12T13:54:53Z</time>
      </trkpt>
      <trkpt lat="44.79134" lon="6.28448">
        <ele>2501.2</ele>
        <time>2024-08-12T13:54:54Z</time>
      </trkpt>
      <trkpt lat="44.79134" lon="6.28448">
        <ele>2501</ele>
        <time>2024-08-12T13:54:55Z</time>
      </trkpt>
      <trkpt lat="44.79131" lon="6.28449">
        <ele>2500.6</ele>
        <time>2024-08-12T13:54:56Z</time>
      </trkpt>
      <trkpt lat="44.79131" lon="6.28449">
        <ele>2500.4</ele>
        <time>2024-08-12T13:54:57Z</time>
      </trkpt>
      <trkpt lat="44.79129" lon="6.28449">
        <ele>2500.2</ele>
        <time>2024-08-12T13:54:58Z</time>
      </trkpt>
      <trkpt lat="44.79129" lon="6.28449">
        <ele>2500.2</ele>
        <time>2024-08-12T13:54:59Z</time>
      </trkpt>
      <trkpt lat="44.79129" lon="6.28449">
        <ele>2500</ele>
        <time>2024-08-12T13:55:00Z</time>
      </trkpt>
      <trkpt lat="44.79127" lon="6.28451">
        <ele>2500</ele>
        <time>2024-08-12T13:55:01Z</time>
      </trkpt>
      <trkpt lat="44.79127" lon="6.28451">
        <ele>2499.4</ele>
        <time>2024-08-12T13:55:02Z</time>
      </trkpt>
      <trkpt lat="44.79127" lon="6.28451">
        <ele>2499.4</ele>
        <time>2024-08-12T13:55:03Z</time>
      </trkpt>
      <trkpt lat="44.79129" lon="6.28452">
        <ele>2499.2</ele>
        <time>2024-08-12T13:55:04Z</time>
      </trkpt>
      <trkpt lat="44.79129" lon="6.28452">
        <ele>2498.6</ele>
        <time>2024-08-12T13:55:05Z</time>
      </trkpt>
      <trkpt lat="44.79131" lon="6.28452">
        <ele>2498.4</ele>
        <time>2024-08-12T13:55:06Z</time>
      </trkpt>
      <trkpt lat="44.79131" lon="6.28452">
        <ele>2498.2</ele>
        <time>2024-08-12T13:55:07Z</time>
      </trkpt>
      <trkpt lat="44.79134" lon="6.28453">
        <ele>2497.8</ele>
        <time>2024-08-12T13:55:08Z</time>
      </trkpt>
      <trkpt lat="44.79134" lon="6.28453">
        <ele>2497.4</ele>
        <time>2024-08-12T13:55:09Z</time>
      </trkpt>
      <trkpt lat="44.79136" lon="6.28455">
        <ele>2497.2</ele>
        <time>2024-08-12T13:55:10Z</time>
      </trkpt>
      <trkpt lat="44.79136" lon="6.28455">
        <ele>2497</ele>
        <time>2024-08-12T13:55:11Z</time>
      </trkpt>
      <trkpt lat="44.79136" lon="6.28455">
        <ele>2497</ele>
        <time>2024-08-12T13:55:12Z</time>
      </trkpt>
      <trkpt lat="44.79138" lon="6.28457">
        <ele>2497</ele>
        <time>2024-08-12T13:55:13Z</time>
      </trkpt>
      <trkpt lat="44.79138" lon="6.28457">
        <ele>2497</ele>
        <time>2024-08-12T13:55:14Z</time>
      </trkpt>
      <trkpt lat="44.79138" lon="6.28457">
        <ele>2496.8</ele>
        <time>2024-08-12T13:55:15Z</time>
      </trkpt>
      <trkpt lat="44.7914" lon="6.28459">
        <ele>2496</ele>
        <time>2024-08-12T13:55:16Z</time>
      </trkpt>
      <trkpt lat="44.7914" lon="6.28459">
        <ele>2495.6</ele>
        <time>2024-08-12T13:55:17Z</time>
      </trkpt>
      <trkpt lat="44.7914" lon="6.28459">
        <ele>2495.6</ele>
        <time>2024-08-12T13:55:18Z</time>
      </trkpt>
      <trkpt lat="44.79138" lon="6.28461">
        <ele>2495.2</ele>
        <time>2024-08-12T13:55:19Z</time>
      </trkpt>
      <trkpt lat="44.79138" lon="6.28461">
        <ele>2495.2</ele>
        <time>2024-08-12T13:55:20Z</time>
      </trkpt>
      <trkpt lat="44.79136" lon="6.28461">
        <ele>2495.6</ele>
        <time>2024-08-12T13:55:21Z</time>
      </trkpt>
      <trkpt lat="44.79136" lon="6.28461">
        <ele>2495.6</ele>
        <time>2024-08-12T13:55:22Z</time>
      </trkpt>
      <trkpt lat="44.79133" lon="6.28462">
        <ele>2495.6</ele>
        <time>2024-08-12T13:55:23Z</time>
      </trkpt>
      <trkpt lat="44.79133" lon="6.28462">
        <ele>2495.4</ele>
        <time>2024-08-12T13:55:24Z</time>
      </trkpt>
      <trkpt lat="44.79131" lon="6.28463">
        <ele>2495.2</ele>
        <time>2024-08-12T13:55:25Z</time>
      </trkpt>
      <trkpt lat="44.79131" lon="6.28463">
        <ele>2495.2</ele>
        <time>2024-08-12T13:55:26Z</time>
      </trkpt>
      <trkpt lat="44.79127" lon="6.28464">
        <ele>2495.2</ele>
        <time>2024-08-12T13:55:27Z</time>
      </trkpt>
      <trkpt lat="44.79127" lon="6.28464">
        <ele>2495.2</ele>
        <time>2024-08-12T13:55:28Z</time>
      </trkpt>
      <trkpt lat="44.79125" lon="6.28465">
        <ele>2494.8</ele>
        <time>2024-08-12T13:55:29Z</time>
      </trkpt>
      <trkpt lat="44.79125" lon="6.28465">
        <ele>2494.4</ele>
        <time>2024-08-12T13:55:30Z</time>
      </trkpt>
      <trkpt lat="44.79123" lon="6.28465">
        <ele>2493.8</ele>
        <time>2024-08-12T13:55:31Z</time>
      </trkpt>
      <trkpt lat="44.79123" lon="6.28465">
        <ele>2493.8</ele>
        <time>2024-08-12T13:55:32Z</time>
      </trkpt>
      <trkpt lat="44.79121" lon="6.28465">
        <ele>2493.2</ele>
        <time>2024-08-12T13:55:33Z</time>
      </trkpt>
      <trkpt lat="44.79121" lon="6.28465">
        <ele>2493</ele>
        <time>2024-08-12T13:55:34Z</time>
      </trkpt>
      <trkpt lat="44.79119" lon="6.28465">
        <ele>2492.6</ele>
        <time>2024-08-12T13:55:35Z</time>
      </trkpt>
      <trkpt lat="44.79119" lon="6.28465">
        <ele>2492</ele>
        <time>2024-08-12T13:55:36Z</time>
      </trkpt>
      <trkpt lat="44.79117" lon="6.28466">
        <ele>2491.6</ele>
        <time>2024-08-12T13:55:37Z</time>
      </trkpt>
      <trkpt lat="44.79117" lon="6.28466">
        <ele>2491</ele>
        <time>2024-08-12T13:55:38Z</time>
      </trkpt>
      <trkpt lat="44.79117" lon="6.28466">
        <ele>2490.6</ele>
        <time>2024-08-12T13:55:39Z</time>
      </trkpt>
      <trkpt lat="44.79118" lon="6.28468">
        <ele>2490.4</ele>
        <time>2024-08-12T13:55:40Z</time>
      </trkpt>
      <trkpt lat="44.79118" lon="6.28468">
        <ele>2490</ele>
        <time>2024-08-12T13:55:41Z</time>
      </trkpt>
      <trkpt lat="44.7912" lon="6.2847">
        <ele>2490</ele>
        <time>2024-08-12T13:55:42Z</time>
      </trkpt>
      <trkpt lat="44.7912" lon="6.2847">
        <ele>2490</ele>
        <time>2024-08-12T13:55:43Z</time>
      </trkpt>
      <trkpt lat="44.79122" lon="6.28472">
        <ele>2489.8</ele>
        <time>2024-08-12T13:55:44Z</time>
      </trkpt>
      <trkpt lat="44.79122" lon="6.28472">
        <ele>2489.2</ele>
        <time>2024-08-12T13:55:45Z</time>
      </trkpt>
      <trkpt lat="44.79125" lon="6.28473">
        <ele>2489.2</ele>
        <time>2024-08-12T13:55:46Z</time>
      </trkpt>
      <trkpt lat="44.79125" lon="6.28473">
        <ele>2488.6</ele>
        <time>2024-08-12T13:55:47Z</time>
      </trkpt>
      <trkpt lat="44.79127" lon="6.28474">
        <ele>2488.2</ele>
        <time>2024-08-12T13:55:48Z</time>
      </trkpt>
      <trkpt lat="44.79127" lon="6.28474">
        <ele>2488</ele>
        <time>2024-08-12T13:55:49Z</time>
      </trkpt>
      <trkpt lat="44.79129" lon="6.28476">
        <ele>2488</ele>
        <time>2024-08-12T13:55:50Z</time>
      </trkpt>
      <trkpt lat="44.79129" lon="6.28476">
        <ele>2487.8</ele>
        <time>2024-08-12T13:55:51Z</time>
      </trkpt>
      <trkpt lat="44.79131" lon="6.28476">
        <ele>2487.2</ele>
        <time>2024-08-12T13:55:52Z</time>
      </trkpt>
      <trkpt lat="44.79131" lon="6.28476">
        <ele>2486.6</ele>
        <time>2024-08-12T13:55:53Z</time>
      </trkpt>
      <trkpt lat="44.79134" lon="6.28477">
        <ele>2486.2</ele>
        <time>2024-08-12T13:55:54Z</time>
      </trkpt>
      <trkpt lat="44.79134" lon="6.28477">
        <ele>2486.2</ele>
        <time>2024-08-12T13:55:55Z</time>
      </trkpt>
      <trkpt lat="44.79137" lon="6.28477">
        <ele>2486.2</ele>
        <time>2024-08-12T13:55:56Z</time>
      </trkpt>
      <trkpt lat="44.79137" lon="6.28477">
        <ele>2486</ele>
        <time>2024-08-12T13:55:57Z</time>
      </trkpt>
      <trkpt lat="44.79139" lon="6.28478">
        <ele>2485.8</ele>
        <time>2024-08-12T13:55:58Z</time>
      </trkpt>
      <trkpt lat="44.79139" lon="6.28478">
        <ele>2485.8</ele>
        <time>2024-08-12T13:55:59Z</time>
      </trkpt>
      <trkpt lat="44.79142" lon="6.28479">
        <ele>2485.2</ele>
        <time>2024-08-12T13:56:00Z</time>
      </trkpt>
      <trkpt lat="44.79142" lon="6.28479">
        <ele>2485.2</ele>
        <time>2024-08-12T13:56:01Z</time>
      </trkpt>
      <trkpt lat="44.79144" lon="6.2848">
        <ele>2484.8</ele>
        <time>2024-08-12T13:56:02Z</time>
      </trkpt>
      <trkpt lat="44.79144" lon="6.2848">
        <ele>2484.8</ele>
        <time>2024-08-12T13:56:03Z</time>
      </trkpt>
      <trkpt lat="44.79146" lon="6.28479">
        <ele>2484.8</ele>
        <time>2024-08-12T13:56:04Z</time>
      </trkpt>
      <trkpt lat="44.79146" lon="6.28479">
        <ele>2484.6</ele>
        <time>2024-08-12T13:56:05Z</time>
      </trkpt>
      <trkpt lat="44.79149" lon="6.28479">
        <ele>2484.4</ele>
        <time>2024-08-12T13:56:06Z</time>
      </trkpt>
      <trkpt lat="44.79149" lon="6.28479">
        <ele>2484.4</ele>
        <time>2024-08-12T13:56:07Z</time>
      </trkpt>
      <trkpt lat="44.79151" lon="6.28479">
        <ele>2484.8</ele>
        <time>2024-08-12T13:56:08Z</time>
      </trkpt>
      <trkpt lat="44.79151" lon="6.28479">
        <ele>2485.2</ele>
        <time>2024-08-12T13:56:09Z</time>
      </trkpt>
      <trkpt lat="44.79152" lon="6.2848">
        <ele>2485.2</ele>
        <time>2024-08-12T13:56:10Z</time>
      </trkpt>
      <trkpt lat="44.79152" lon="6.2848">
        <ele>2485</ele>
        <time>2024-08-12T13:56:11Z</time>
      </trkpt>
      <trkpt lat="44.79154" lon="6.28481">
        <ele>2484.8</ele>
        <time>2024-08-12T13:56:12Z</time>
      </trkpt>
      <trkpt lat="44.79154" lon="6.28481">
        <ele>2483.8</ele>
        <time>2024-08-12T13:56:13Z</time>
      </trkpt>
      <trkpt lat="44.79156" lon="6.28482">
        <ele>2482</ele>
        <time>2024-08-12T13:56:14Z</time>
      </trkpt>
      <trkpt lat="44.79156" lon="6.28482">
        <ele>2482</ele>
        <time>2024-08-12T13:56:15Z</time>
      </trkpt>
      <trkpt lat="44.79158" lon="6.28482">
        <ele>2482</ele>
        <time>2024-08-12T13:56:16Z</time>
      </trkpt>
      <trkpt lat="44.79158" lon="6.28482">
        <ele>2481.4</ele>
        <time>2024-08-12T13:56:17Z</time>
      </trkpt>
      <trkpt lat="44.79158" lon="6.28482">
        <ele>2480.6</ele>
        <time>2024-08-12T13:56:18Z</time>
      </trkpt>
      <trkpt lat="44.7916" lon="6.2848">
        <ele>2480.6</ele>
        <time>2024-08-12T13:56:19Z</time>
      </trkpt>
      <trkpt lat="44.7916" lon="6.2848">
        <ele>2480.6</ele>
        <time>2024-08-12T13:56:20Z</time>
      </trkpt>
      <trkpt lat="44.79162" lon="6.28479">
        <ele>2480.4</ele>
        <time>2024-08-12T13:56:21Z</time>
      </trkpt>
      <trkpt lat="44.79162" lon="6.28479">
        <ele>2480</ele>
        <time>2024-08-12T13:56:22Z</time>
      </trkpt>
      <trkpt lat="44.79164" lon="6.28477">
        <ele>2480</ele>
        <time>2024-08-12T13:56:23Z</time>
      </trkpt>
      <trkpt lat="44.79164" lon="6.28477">
        <ele>2479.8</ele>
        <time>2024-08-12T13:56:24Z</time>
      </trkpt>
      <trkpt lat="44.79166" lon="6.28477">
        <ele>2479.2</ele>
        <time>2024-08-12T13:56:25Z</time>
      </trkpt>
      <trkpt lat="44.79166" lon="6.28477">
        <ele>2479.2</ele>
        <time>2024-08-12T13:56:26Z</time>
      </trkpt>
      <trkpt lat="44.79168" lon="6.28477">
        <ele>2479.8</ele>
        <time>2024-08-12T13:56:27Z</time>
      </trkpt>
      <trkpt lat="44.79168" lon="6.28477">
        <ele>2480.2</ele>
        <time>2024-08-12T13:56:28Z</time>
      </trkpt>
      <trkpt lat="44.79171" lon="6.28478">
        <ele>2480.2</ele>
        <time>2024-08-12T13:56:29Z</time>
      </trkpt>
      <trkpt lat="44.79171" lon="6.28478">
        <ele>2480</ele>
        <time>2024-08-12T13:56:30Z</time>
      </trkpt>
      <trkpt lat="44.79173" lon="6.28481">
        <ele>2479.2</ele>
        <time>2024-08-12T13:56:31Z</time>
      </trkpt>
      <trkpt lat="44.79173" lon="6.28481">
        <ele>2479.2</ele>
        <time>2024-08-12T13:56:32Z</time>
      </trkpt>
      <trkpt lat="44.79174" lon="6.28483">
        <ele>2479.4</ele>
        <time>2024-08-12T13:56:33Z</time>
      </trkpt>
      <trkpt lat="44.79174" lon="6.28483">
        <ele>2479.6</ele>
        <time>2024-08-12T13:56:34Z</time>
      </trkpt>
      <trkpt lat="44.79176" lon="6.28484">
        <ele>2479.6</ele>
        <time>2024-08-12T13:56:35Z</time>
      </trkpt>
      <trkpt lat="44.79176" lon="6.28484">
        <ele>2479.4</ele>
        <time>2024-08-12T13:56:36Z</time>
      </trkpt>
      <trkpt lat="44.79178" lon="6.28485">
        <ele>2479</ele>
        <time>2024-08-12T13:56:37Z</time>
      </trkpt>
      <trkpt lat="44.79178" lon="6.28485">
        <ele>2478.6</ele>
        <time>2024-08-12T13:56:38Z</time>
      </trkpt>
      <trkpt lat="44.79178" lon="6.28485">
        <ele>2478.4</ele>
        <time>2024-08-12T13:56:39Z</time>
      </trkpt>
      <trkpt lat="44.79178" lon="6.28485">
        <ele>2478.2</ele>
        <time>2024-08-12T13:56:40Z</time>
      </trkpt>
      <trkpt lat="44.79177" lon="6.28488">
        <ele>2478</ele>
        <time>2024-08-12T13:56:41Z</time>
      </trkpt>
      <trkpt lat="44.79177" lon="6.28488">
        <ele>2478</ele>
        <time>2024-08-12T13:56:42Z</time>
      </trkpt>
      <trkpt lat="44.79174" lon="6.28489">
        <ele>2478.6</ele>
        <time>2024-08-12T13:56:43Z</time>
      </trkpt>
      <trkpt lat="44.79174" lon="6.28489">
        <ele>2478.6</ele>
        <time>2024-08-12T13:56:44Z</time>
      </trkpt>
      <trkpt lat="44.79172" lon="6.28488">
        <ele>2478.4</ele>
        <time>2024-08-12T13:56:45Z</time>
      </trkpt>
      <trkpt lat="44.79172" lon="6.28488">
        <ele>2478</ele>
        <time>2024-08-12T13:56:46Z</time>
      </trkpt>
      <trkpt lat="44.79169" lon="6.28487">
        <ele>2477.4</ele>
        <time>2024-08-12T13:56:47Z</time>
      </trkpt>
      <trkpt lat="44.79169" lon="6.28487">
        <ele>2476.8</ele>
        <time>2024-08-12T13:56:48Z</time>
      </trkpt>
      <trkpt lat="44.79166" lon="6.28486">
        <ele>2476.8</ele>
        <time>2024-08-12T13:56:49Z</time>
      </trkpt>
      <trkpt lat="44.79166" lon="6.28486">
        <ele>2476.8</ele>
        <time>2024-08-12T13:56:50Z</time>
      </trkpt>
      <trkpt lat="44.79164" lon="6.28488">
        <ele>2476.6</ele>
        <time>2024-08-12T13:56:51Z</time>
      </trkpt>
      <trkpt lat="44.79164" lon="6.28488">
        <ele>2476.4</ele>
        <time>2024-08-12T13:56:52Z</time>
      </trkpt>
      <trkpt lat="44.79163" lon="6.28491">
        <ele>2476.2</ele>
        <time>2024-08-12T13:56:53Z</time>
      </trkpt>
      <trkpt lat="44.79163" lon="6.28491">
        <ele>2475.8</ele>
        <time>2024-08-12T13:56:54Z</time>
      </trkpt>
      <trkpt lat="44.7916" lon="6.28494">
        <ele>2475.8</ele>
        <time>2024-08-12T13:56:55Z</time>
      </trkpt>
      <trkpt lat="44.7916" lon="6.28494">
        <ele>2475.8</ele>
        <time>2024-08-12T13:56:56Z</time>
      </trkpt>
      <trkpt lat="44.79158" lon="6.28495">
        <ele>2475.4</ele>
        <time>2024-08-12T13:56:57Z</time>
      </trkpt>
      <trkpt lat="44.79158" lon="6.28495">
        <ele>2475.2</ele>
        <time>2024-08-12T13:56:58Z</time>
      </trkpt>
      <trkpt lat="44.79156" lon="6.28497">
        <ele>2475.2</ele>
        <time>2024-08-12T13:56:59Z</time>
      </trkpt>
      <trkpt lat="44.79156" lon="6.28497">
        <ele>2475.2</ele>
        <time>2024-08-12T13:57:00Z</time>
      </trkpt>
      <trkpt lat="44.79154" lon="6.28498">
        <ele>2475.2</ele>
        <time>2024-08-12T13:57:01Z</time>
      </trkpt>
      <trkpt lat="44.79154" lon="6.28498">
        <ele>2474.4</ele>
        <time>2024-08-12T13:57:02Z</time>
      </trkpt>
      <trkpt lat="44.79151" lon="6.285">
        <ele>2474.4</ele>
        <time>2024-08-12T13:57:03Z</time>
      </trkpt>
      <trkpt lat="44.79151" lon="6.285">
        <ele>2474.4</ele>
        <time>2024-08-12T13:57:04Z</time>
      </trkpt>
      <trkpt lat="44.79149" lon="6.28502">
        <ele>2474.4</ele>
        <time>2024-08-12T13:57:05Z</time>
      </trkpt>
      <trkpt lat="44.79149" lon="6.28502">
        <ele>2474</ele>
        <time>2024-08-12T13:57:06Z</time>
      </trkpt>
      <trkpt lat="44.79147" lon="6.28505">
        <ele>2474</ele>
        <time>2024-08-12T13:57:07Z</time>
      </trkpt>
      <trkpt lat="44.79147" lon="6.28505">
        <ele>2473.6</ele>
        <time>2024-08-12T13:57:08Z</time>
      </trkpt>
      <trkpt lat="44.79145" lon="6.28506">
        <ele>2473.2</ele>
        <time>2024-08-12T13:57:09Z</time>
      </trkpt>
      <trkpt lat="44.79145" lon="6.28506">
        <ele>2473.2</ele>
        <time>2024-08-12T13:57:10Z</time>
      </trkpt>
      <trkpt lat="44.79142" lon="6.28507">
        <ele>2472.8</ele>
        <time>2024-08-12T13:57:11Z</time>
      </trkpt>
      <trkpt lat="44.79142" lon="6.28507">
        <ele>2472.6</ele>
        <time>2024-08-12T13:57:12Z</time>
      </trkpt>
      <trkpt lat="44.79141" lon="6.28508">
        <ele>2472.4</ele>
        <time>2024-08-12T13:57:13Z</time>
      </trkpt>
      <trkpt lat="44.79141" lon="6.28508">
        <ele>2471.8</ele>
        <time>2024-08-12T13:57:14Z</time>
      </trkpt>
      <trkpt lat="44.79139" lon="6.28511">
        <ele>2471.6</ele>
        <time>2024-08-12T13:57:15Z</time>
      </trkpt>
      <trkpt lat="44.79139" lon="6.28511">
        <ele>2471.6</ele>
        <time>2024-08-12T13:57:16Z</time>
      </trkpt>
      <trkpt lat="44.79137" lon="6.28513">
        <ele>2471.4</ele>
        <time>2024-08-12T13:57:17Z</time>
      </trkpt>
      <trkpt lat="44.79137" lon="6.28513">
        <ele>2471.2</ele>
        <time>2024-08-12T13:57:18Z</time>
      </trkpt>
      <trkpt lat="44.79135" lon="6.28514">
        <ele>2470.8</ele>
        <time>2024-08-12T13:57:19Z</time>
      </trkpt>
      <trkpt lat="44.79135" lon="6.28514">
        <ele>2470.6</ele>
        <time>2024-08-12T13:57:20Z</time>
      </trkpt>
      <trkpt lat="44.79135" lon="6.28514">
        <ele>2470.4</ele>
        <time>2024-08-12T13:57:21Z</time>
      </trkpt>
      <trkpt lat="44.79135" lon="6.28514">
        <ele>2470.2</ele>
        <time>2024-08-12T13:57:22Z</time>
      </trkpt>
      <trkpt lat="44.79135" lon="6.28514">
        <ele>2470</ele>
        <time>2024-08-12T13:57:23Z</time>
      </trkpt>
      <trkpt lat="44.79135" lon="6.28514">
        <ele>2469.8</ele>
        <time>2024-08-12T13:57:24Z</time>
      </trkpt>
      <trkpt lat="44.79134" lon="6.28516">
        <ele>2469.6</ele>
        <time>2024-08-12T13:57:25Z</time>
      </trkpt>
      <trkpt lat="44.79134" lon="6.28516">
        <ele>2469.6</ele>
        <time>2024-08-12T13:57:26Z</time>
      </trkpt>
      <trkpt lat="44.79132" lon="6.28518">
        <ele>2469.6</ele>
        <time>2024-08-12T13:57:27Z</time>
      </trkpt>
      <trkpt lat="44.79132" lon="6.28518">
        <ele>2469.6</ele>
        <time>2024-08-12T13:57:28Z</time>
      </trkpt>
      <trkpt lat="44.7913" lon="6.2852">
        <ele>2469.4</ele>
        <time>2024-08-12T13:57:29Z</time>
      </trkpt>
      <trkpt lat="44.7913" lon="6.2852">
        <ele>2468.8</ele>
        <time>2024-08-12T13:57:30Z</time>
      </trkpt>
      <trkpt lat="44.79127" lon="6.28524">
        <ele>2468.2</ele>
        <time>2024-08-12T13:57:31Z</time>
      </trkpt>
      <trkpt lat="44.79127" lon="6.28524">
        <ele>2468</ele>
        <time>2024-08-12T13:57:32Z</time>
      </trkpt>
      <trkpt lat="44.79125" lon="6.28524">
        <ele>2468</ele>
        <time>2024-08-12T13:57:33Z</time>
      </trkpt>
      <trkpt lat="44.79125" lon="6.28524">
        <ele>2467.4</ele>
        <time>2024-08-12T13:57:34Z</time>
      </trkpt>
      <trkpt lat="44.79122" lon="6.28524">
        <ele>2467.2</ele>
        <time>2024-08-12T13:57:35Z</time>
      </trkpt>
      <trkpt lat="44.79122" lon="6.28524">
        <ele>2466.8</ele>
        <time>2024-08-12T13:57:36Z</time>
      </trkpt>
      <trkpt lat="44.79119" lon="6.28524">
        <ele>2466.6</ele>
        <time>2024-08-12T13:57:37Z</time>
      </trkpt>
      <trkpt lat="44.79119" lon="6.28524">
        <ele>2466.4</ele>
        <time>2024-08-12T13:57:38Z</time>
      </trkpt>
      <trkpt lat="44.79117" lon="6.28524">
        <ele>2466.2</ele>
        <time>2024-08-12T13:57:39Z</time>
      </trkpt>
      <trkpt lat="44.79117" lon="6.28524">
        <ele>2466</ele>
        <time>2024-08-12T13:57:40Z</time>
      </trkpt>
      <trkpt lat="44.79114" lon="6.28524">
        <ele>2466</ele>
        <time>2024-08-12T13:57:41Z</time>
      </trkpt>
      <trkpt lat="44.79114" lon="6.28524">
        <ele>2466</ele>
        <time>2024-08-12T13:57:42Z</time>
      </trkpt>
      <trkpt lat="44.79111" lon="6.28524">
        <ele>2465.8</ele>
        <time>2024-08-12T13:57:43Z</time>
      </trkpt>
      <trkpt lat="44.79111" lon="6.28524">
        <ele>2465.4</ele>
        <time>2024-08-12T13:57:44Z</time>
      </trkpt>
      <trkpt lat="44.79109" lon="6.28523">
        <ele>2465.4</ele>
        <time>2024-08-12T13:57:45Z</time>
      </trkpt>
      <trkpt lat="44.79109" lon="6.28523">
        <ele>2465.2</ele>
        <time>2024-08-12T13:57:46Z</time>
      </trkpt>
      <trkpt lat="44.79107" lon="6.28524">
        <ele>2465</ele>
        <time>2024-08-12T13:57:47Z</time>
      </trkpt>
      <trkpt lat="44.79107" lon="6.28524">
        <ele>2465</ele>
        <time>2024-08-12T13:57:48Z</time>
      </trkpt>
      <trkpt lat="44.79104" lon="6.28523">
        <ele>2464.4</ele>
        <time>2024-08-12T13:57:49Z</time>
      </trkpt>
      <trkpt lat="44.79104" lon="6.28523">
        <ele>2463.8</ele>
        <time>2024-08-12T13:57:50Z</time>
      </trkpt>
      <trkpt lat="44.79104" lon="6.28523">
        <ele>2463.6</ele>
        <time>2024-08-12T13:57:51Z</time>
      </trkpt>
      <trkpt lat="44.79104" lon="6.28523">
        <ele>2463.4</ele>
        <time>2024-08-12T13:57:52Z</time>
      </trkpt>
      <trkpt lat="44.79103" lon="6.28525">
        <ele>2463.4</ele>
        <time>2024-08-12T13:57:53Z</time>
      </trkpt>
      <trkpt lat="44.79103" lon="6.28525">
        <ele>2463</ele>
        <time>2024-08-12T13:57:54Z</time>
      </trkpt>
      <trkpt lat="44.79104" lon="6.28527">
        <ele>2463</ele>
        <time>2024-08-12T13:57:55Z</time>
      </trkpt>
      <trkpt lat="44.79104" lon="6.28527">
        <ele>2462.6</ele>
        <time>2024-08-12T13:57:56Z</time>
      </trkpt>
      <trkpt lat="44.79106" lon="6.28528">
        <ele>2462.4</ele>
        <time>2024-08-12T13:57:57Z</time>
      </trkpt>
      <trkpt lat="44.79106" lon="6.28528">
        <ele>2462.4</ele>
        <time>2024-08-12T13:57:58Z</time>
      </trkpt>
      <trkpt lat="44.79108" lon="6.28529">
        <ele>2462.2</ele>
        <time>2024-08-12T13:57:59Z</time>
      </trkpt>
      <trkpt lat="44.79108" lon="6.28529">
        <ele>2461.8</ele>
        <time>2024-08-12T13:58:00Z</time>
      </trkpt>
      <trkpt lat="44.7911" lon="6.28531">
        <ele>2461.2</ele>
        <time>2024-08-12T13:58:01Z</time>
      </trkpt>
      <trkpt lat="44.7911" lon="6.28531">
        <ele>2460.6</ele>
        <time>2024-08-12T13:58:02Z</time>
      </trkpt>
      <trkpt lat="44.7911" lon="6.28531">
        <ele>2460.6</ele>
        <time>2024-08-12T13:58:03Z</time>
      </trkpt>
      <trkpt lat="44.79112" lon="6.28532">
        <ele>2460.2</ele>
        <time>2024-08-12T13:58:04Z</time>
      </trkpt>
      <trkpt lat="44.79112" lon="6.28532">
        <ele>2460.2</ele>
        <time>2024-08-12T13:58:05Z</time>
      </trkpt>
      <trkpt lat="44.79112" lon="6.28532">
        <ele>2460</ele>
        <time>2024-08-12T13:58:06Z</time>
      </trkpt>
      <trkpt lat="44.79112" lon="6.28532">
        <ele>2460</ele>
        <time>2024-08-12T13:58:07Z</time>
      </trkpt>
      <trkpt lat="44.79114" lon="6.28534">
        <ele>2460.4</ele>
        <time>2024-08-12T13:58:08Z</time>
      </trkpt>
      <trkpt lat="44.79114" lon="6.28534">
        <ele>2460.4</ele>
        <time>2024-08-12T13:58:09Z</time>
      </trkpt>
      <trkpt lat="44.79116" lon="6.28536">
        <ele>2460.2</ele>
        <time>2024-08-12T13:58:10Z</time>
      </trkpt>
      <trkpt lat="44.79116" lon="6.28536">
        <ele>2459.8</ele>
        <time>2024-08-12T13:58:11Z</time>
      </trkpt>
      <trkpt lat="44.79117" lon="6.28537">
        <ele>2459.8</ele>
        <time>2024-08-12T13:58:12Z</time>
      </trkpt>
      <trkpt lat="44.79117" lon="6.28537">
        <ele>2459.6</ele>
        <time>2024-08-12T13:58:13Z</time>
      </trkpt>
      <trkpt lat="44.7912" lon="6.28537">
        <ele>2459.6</ele>
        <time>2024-08-12T13:58:14Z</time>
      </trkpt>
      <trkpt lat="44.7912" lon="6.28537">
        <ele>2459</ele>
        <time>2024-08-12T13:58:15Z</time>
      </trkpt>
      <trkpt lat="44.79123" lon="6.28537">
        <ele>2458.8</ele>
        <time>2024-08-12T13:58:16Z</time>
      </trkpt>
      <trkpt lat="44.79123" lon="6.28537">
        <ele>2458.8</ele>
        <time>2024-08-12T13:58:17Z</time>
      </trkpt>
      <trkpt lat="44.79125" lon="6.28538">
        <ele>2458.8</ele>
        <time>2024-08-12T13:58:18Z</time>
      </trkpt>
      <trkpt lat="44.79125" lon="6.28538">
        <ele>2458.8</ele>
        <time>2024-08-12T13:58:19Z</time>
      </trkpt>
      <trkpt lat="44.79128" lon="6.28539">
        <ele>2458.6</ele>
        <time>2024-08-12T13:58:20Z</time>
      </trkpt>
      <trkpt lat="44.79128" lon="6.28539">
        <ele>2458.2</ele>
        <time>2024-08-12T13:58:21Z</time>
      </trkpt>
      <trkpt lat="44.7913" lon="6.2854">
        <ele>2458</ele>
        <time>2024-08-12T13:58:22Z</time>
      </trkpt>
      <trkpt lat="44.7913" lon="6.2854">
        <ele>2457.6</ele>
        <time>2024-08-12T13:58:23Z</time>
      </trkpt>
      <trkpt lat="44.79133" lon="6.28541">
        <ele>2457.4</ele>
        <time>2024-08-12T13:58:24Z</time>
      </trkpt>
      <trkpt lat="44.79133" lon="6.28541">
        <ele>2457.4</ele>
        <time>2024-08-12T13:58:25Z</time>
      </trkpt>
      <trkpt lat="44.79135" lon="6.2854">
        <ele>2456.8</ele>
        <time>2024-08-12T13:58:26Z</time>
      </trkpt>
      <trkpt lat="44.79135" lon="6.2854">
        <ele>2456.8</ele>
        <time>2024-08-12T13:58:27Z</time>
      </trkpt>
      <trkpt lat="44.79137" lon="6.2854">
        <ele>2456.8</ele>
        <time>2024-08-12T13:58:28Z</time>
      </trkpt>
      <trkpt lat="44.79137" lon="6.2854">
        <ele>2456.4</ele>
        <time>2024-08-12T13:58:29Z</time>
      </trkpt>
      <trkpt lat="44.79139" lon="6.2854">
        <ele>2456.4</ele>
        <time>2024-08-12T13:58:30Z</time>
      </trkpt>
      <trkpt lat="44.79139" lon="6.2854">
        <ele>2456.2</ele>
        <time>2024-08-12T13:58:31Z</time>
      </trkpt>
      <trkpt lat="44.79142" lon="6.2854">
        <ele>2456</ele>
        <time>2024-08-12T13:58:32Z</time>
      </trkpt>
      <trkpt lat="44.79142" lon="6.2854">
        <ele>2455.8</ele>
        <time>2024-08-12T13:58:33Z</time>
      </trkpt>
      <trkpt lat="44.79145" lon="6.28541">
        <ele>2455.4</ele>
        <time>2024-08-12T13:58:34Z</time>
      </trkpt>
      <trkpt lat="44.79145" lon="6.28541">
        <ele>2454.8</ele>
        <time>2024-08-12T13:58:35Z</time>
      </trkpt>
      <trkpt lat="44.79146" lon="6.28543">
        <ele>2454.8</ele>
        <time>2024-08-12T13:58:36Z</time>
      </trkpt>
      <trkpt lat="44.79146" lon="6.28543">
        <ele>2454.4</ele>
        <time>2024-08-12T13:58:37Z</time>
      </trkpt>
      <trkpt lat="44.79147" lon="6.28546">
        <ele>2453.8</ele>
        <time>2024-08-12T13:58:38Z</time>
      </trkpt>
      <trkpt lat="44.79147" lon="6.28546">
        <ele>2453.8</ele>
        <time>2024-08-12T13:58:39Z</time>
      </trkpt>
      <trkpt lat="44.79147" lon="6.28546">
        <ele>2453.8</ele>
        <time>2024-08-12T13:58:40Z</time>
      </trkpt>
      <trkpt lat="44.79147" lon="6.28546">
        <ele>2453.8</ele>
        <time>2024-08-12T13:58:41Z</time>
      </trkpt>
      <trkpt lat="44.79147" lon="6.28546">
        <ele>2453.8</ele>
        <time>2024-08-12T13:58:42Z</time>
      </trkpt>
      <trkpt lat="44.79147" lon="6.28546">
        <ele>2453.8</ele>
        <time>2024-08-12T13:58:43Z</time>
      </trkpt>
      <trkpt lat="44.79147" lon="6.28546">
        <ele>2453.6</ele>
        <time>2024-08-12T13:58:44Z</time>
      </trkpt>
      <trkpt lat="44.79147" lon="6.28546">
        <ele>2453.6</ele>
        <time>2024-08-12T13:58:45Z</time>
      </trkpt>
      <trkpt lat="44.79147" lon="6.28546">
        <ele>2454</ele>
        <time>2024-08-12T13:58:46Z</time>
      </trkpt>
      <trkpt lat="44.79147" lon="6.28549">
        <ele>2454</ele>
        <time>2024-08-12T13:58:47Z</time>
      </trkpt>
      <trkpt lat="44.79147" lon="6.28549">
        <ele>2453.8</ele>
        <time>2024-08-12T13:58:48Z</time>
      </trkpt>
      <trkpt lat="44.79147" lon="6.28552">
        <ele>2453.4</ele>
        <time>2024-08-12T13:58:49Z</time>
      </trkpt>
      <trkpt lat="44.79146" lon="6.28555">
        <ele>2453.4</ele>
        <time>2024-08-12T13:58:50Z</time>
      </trkpt>
      <trkpt lat="44.79146" lon="6.28555">
        <ele>2453.4</ele>
        <time>2024-08-12T13:58:51Z</time>
      </trkpt>
      <trkpt lat="44.79146" lon="6.28555">
        <ele>2453.2</ele>
        <time>2024-08-12T13:58:52Z</time>
      </trkpt>
      <trkpt lat="44.79147" lon="6.28558">
        <ele>2453.2</ele>
        <time>2024-08-12T13:58:53Z</time>
      </trkpt>
      <trkpt lat="44.79147" lon="6.28558">
        <ele>2453.2</ele>
        <time>2024-08-12T13:58:54Z</time>
      </trkpt>
      <trkpt lat="44.79149" lon="6.2856">
        <ele>2452.8</ele>
        <time>2024-08-12T13:58:55Z</time>
      </trkpt>
      <trkpt lat="44.79149" lon="6.2856">
        <ele>2452</ele>
        <time>2024-08-12T13:58:56Z</time>
      </trkpt>
      <trkpt lat="44.79151" lon="6.28562">
        <ele>2451.8</ele>
        <time>2024-08-12T13:58:57Z</time>
      </trkpt>
      <trkpt lat="44.79151" lon="6.28562">
        <ele>2451.6</ele>
        <time>2024-08-12T13:58:58Z</time>
      </trkpt>
      <trkpt lat="44.79153" lon="6.28564">
        <ele>2451.6</ele>
        <time>2024-08-12T13:58:59Z</time>
      </trkpt>
      <trkpt lat="44.79153" lon="6.28564">
        <ele>2451.6</ele>
        <time>2024-08-12T13:59:00Z</time>
      </trkpt>
      <trkpt lat="44.79155" lon="6.28565">
        <ele>2451.4</ele>
        <time>2024-08-12T13:59:01Z</time>
      </trkpt>
      <trkpt lat="44.79155" lon="6.28565">
        <ele>2450.6</ele>
        <time>2024-08-12T13:59:02Z</time>
      </trkpt>
      <trkpt lat="44.79156" lon="6.28567">
        <ele>2450.6</ele>
        <time>2024-08-12T13:59:03Z</time>
      </trkpt>
      <trkpt lat="44.79156" lon="6.28567">
        <ele>2450</ele>
        <time>2024-08-12T13:59:04Z</time>
      </trkpt>
      <trkpt lat="44.79158" lon="6.28568">
        <ele>2449.8</ele>
        <time>2024-08-12T13:59:05Z</time>
      </trkpt>
      <trkpt lat="44.79158" lon="6.28568">
        <ele>2449.6</ele>
        <time>2024-08-12T13:59:06Z</time>
      </trkpt>
      <trkpt lat="44.7916" lon="6.28569">
        <ele>2449.2</ele>
        <time>2024-08-12T13:59:07Z</time>
      </trkpt>
      <trkpt lat="44.7916" lon="6.28569">
        <ele>2448.6</ele>
        <time>2024-08-12T13:59:08Z</time>
      </trkpt>
      <trkpt lat="44.7916" lon="6.28569">
        <ele>2448.4</ele>
        <time>2024-08-12T13:59:09Z</time>
      </trkpt>
      <trkpt lat="44.7916" lon="6.28569">
        <ele>2448</ele>
        <time>2024-08-12T13:59:10Z</time>
      </trkpt>
      <trkpt lat="44.7916" lon="6.28569">
        <ele>2447.4</ele>
        <time>2024-08-12T13:59:11Z</time>
      </trkpt>
      <trkpt lat="44.79162" lon="6.28569">
        <ele>2447.4</ele>
        <time>2024-08-12T13:59:12Z</time>
      </trkpt>
      <trkpt lat="44.79162" lon="6.28569">
        <ele>2447.4</ele>
        <time>2024-08-12T13:59:13Z</time>
      </trkpt>
      <trkpt lat="44.79165" lon="6.28569">
        <ele>2447.4</ele>
        <time>2024-08-12T13:59:14Z</time>
      </trkpt>
      <trkpt lat="44.79165" lon="6.28569">
        <ele>2447.2</ele>
        <time>2024-08-12T13:59:15Z</time>
      </trkpt>
      <trkpt lat="44.79167" lon="6.2857">
        <ele>2446.8</ele>
        <time>2024-08-12T13:59:16Z</time>
      </trkpt>
      <trkpt lat="44.79167" lon="6.2857">
        <ele>2446.8</ele>
        <time>2024-08-12T13:59:17Z</time>
      </trkpt>
      <trkpt lat="44.79167" lon="6.2857">
        <ele>2447</ele>
        <time>2024-08-12T13:59:18Z</time>
      </trkpt>
      <trkpt lat="44.7917" lon="6.28571">
        <ele>2447</ele>
        <time>2024-08-12T13:59:19Z</time>
      </trkpt>
      <trkpt lat="44.7917" lon="6.28571">
        <ele>2446.8</ele>
        <time>2024-08-12T13:59:20Z</time>
      </trkpt>
      <trkpt lat="44.79173" lon="6.28573">
        <ele>2446.8</ele>
        <time>2024-08-12T13:59:21Z</time>
      </trkpt>
      <trkpt lat="44.79173" lon="6.28573">
        <ele>2446.8</ele>
        <time>2024-08-12T13:59:22Z</time>
      </trkpt>
      <trkpt lat="44.79174" lon="6.28577">
        <ele>2446.6</ele>
        <time>2024-08-12T13:59:23Z</time>
      </trkpt>
      <trkpt lat="44.79174" lon="6.28577">
        <ele>2446.6</ele>
        <time>2024-08-12T13:59:24Z</time>
      </trkpt>
      <trkpt lat="44.79174" lon="6.28577">
        <ele>2446.6</ele>
        <time>2024-08-12T13:59:25Z</time>
      </trkpt>
      <trkpt lat="44.79174" lon="6.2858">
        <ele>2446.4</ele>
        <time>2024-08-12T13:59:26Z</time>
      </trkpt>
      <trkpt lat="44.79174" lon="6.2858">
        <ele>2446</ele>
        <time>2024-08-12T13:59:27Z</time>
      </trkpt>
      <trkpt lat="44.79175" lon="6.28584">
        <ele>2446</ele>
        <time>2024-08-12T13:59:28Z</time>
      </trkpt>
      <trkpt lat="44.79175" lon="6.28584">
        <ele>2445.4</ele>
        <time>2024-08-12T13:59:29Z</time>
      </trkpt>
      <trkpt lat="44.79175" lon="6.28584">
        <ele>2445.2</ele>
        <time>2024-08-12T13:59:30Z</time>
      </trkpt>
      <trkpt lat="44.79176" lon="6.28586">
        <ele>2445</ele>
        <time>2024-08-12T13:59:31Z</time>
      </trkpt>
      <trkpt lat="44.79176" lon="6.28586">
        <ele>2445</ele>
        <time>2024-08-12T13:59:32Z</time>
      </trkpt>
      <trkpt lat="44.79176" lon="6.28586">
        <ele>2444.6</ele>
        <time>2024-08-12T13:59:33Z</time>
      </trkpt>
      <trkpt lat="44.79179" lon="6.28586">
        <ele>2444.2</ele>
        <time>2024-08-12T13:59:34Z</time>
      </trkpt>
      <trkpt lat="44.79179" lon="6.28586">
        <ele>2444</ele>
        <time>2024-08-12T13:59:35Z</time>
      </trkpt>
      <trkpt lat="44.79181" lon="6.28588">
        <ele>2443.6</ele>
        <time>2024-08-12T13:59:36Z</time>
      </trkpt>
      <trkpt lat="44.79181" lon="6.28588">
        <ele>2443.2</ele>
        <time>2024-08-12T13:59:37Z</time>
      </trkpt>
      <trkpt lat="44.79182" lon="6.2859">
        <ele>2443</ele>
        <time>2024-08-12T13:59:38Z</time>
      </trkpt>
      <trkpt lat="44.79182" lon="6.2859">
        <ele>2443.4</ele>
        <time>2024-08-12T13:59:39Z</time>
      </trkpt>
      <trkpt lat="44.79183" lon="6.28593">
        <ele>2443.8</ele>
        <time>2024-08-12T13:59:40Z</time>
      </trkpt>
      <trkpt lat="44.79183" lon="6.28593">
        <ele>2444</ele>
        <time>2024-08-12T13:59:41Z</time>
      </trkpt>
      <trkpt lat="44.79183" lon="6.28596">
        <ele>2444</ele>
        <time>2024-08-12T13:59:42Z</time>
      </trkpt>
      <trkpt lat="44.79183" lon="6.28596">
        <ele>2443.8</ele>
        <time>2024-08-12T13:59:43Z</time>
      </trkpt>
      <trkpt lat="44.79184" lon="6.28598">
        <ele>2443.4</ele>
        <time>2024-08-12T13:59:44Z</time>
      </trkpt>
      <trkpt lat="44.79184" lon="6.28598">
        <ele>2443.2</ele>
        <time>2024-08-12T13:59:45Z</time>
      </trkpt>
      <trkpt lat="44.79186" lon="6.286">
        <ele>2443.2</ele>
        <time>2024-08-12T13:59:46Z</time>
      </trkpt>
      <trkpt lat="44.79186" lon="6.286">
        <ele>2442.6</ele>
        <time>2024-08-12T13:59:47Z</time>
      </trkpt>
      <trkpt lat="44.79188" lon="6.28602">
        <ele>2442.4</ele>
        <time>2024-08-12T13:59:48Z</time>
      </trkpt>
      <trkpt lat="44.79188" lon="6.28602">
        <ele>2442.4</ele>
        <time>2024-08-12T13:59:49Z</time>
      </trkpt>
      <trkpt lat="44.7919" lon="6.28602">
        <ele>2442</ele>
        <time>2024-08-12T13:59:50Z</time>
      </trkpt>
      <trkpt lat="44.7919" lon="6.28602">
        <ele>2441.6</ele>
        <time>2024-08-12T13:59:51Z</time>
      </trkpt>
      <trkpt lat="44.79192" lon="6.28602">
        <ele>2441.2</ele>
        <time>2024-08-12T13:59:52Z</time>
      </trkpt>
      <trkpt lat="44.79192" lon="6.28602">
        <ele>2441</ele>
        <time>2024-08-12T13:59:53Z</time>
      </trkpt>
      <trkpt lat="44.79195" lon="6.28602">
        <ele>2440.4</ele>
        <time>2024-08-12T13:59:54Z</time>
      </trkpt>
      <trkpt lat="44.79195" lon="6.28602">
        <ele>2440</ele>
        <time>2024-08-12T13:59:55Z</time>
      </trkpt>
      <trkpt lat="44.79197" lon="6.28604">
        <ele>2440</ele>
        <time>2024-08-12T13:59:56Z</time>
      </trkpt>
      <trkpt lat="44.79197" lon="6.28604">
        <ele>2440</ele>
        <time>2024-08-12T13:59:57Z</time>
      </trkpt>
      <trkpt lat="44.79199" lon="6.28607">
        <ele>2440</ele>
        <time>2024-08-12T13:59:58Z</time>
      </trkpt>
      <trkpt lat="44.79199" lon="6.28607">
        <ele>2440</ele>
        <time>2024-08-12T13:59:59Z</time>
      </trkpt>
      <trkpt lat="44.79198" lon="6.28611">
        <ele>2440</ele>
        <time>2024-08-12T14:00:00Z</time>
      </trkpt>
      <trkpt lat="44.79198" lon="6.28611">
        <ele>2440</ele>
        <time>2024-08-12T14:00:01Z</time>
      </trkpt>
      <trkpt lat="44.79199" lon="6.28614">
        <ele>2439.6</ele>
        <time>2024-08-12T14:00:02Z</time>
      </trkpt>
      <trkpt lat="44.79199" lon="6.28614">
        <ele>2439.6</ele>
        <time>2024-08-12T14:00:03Z</time>
      </trkpt>
      <trkpt lat="44.79201" lon="6.28617">
        <ele>2439.2</ele>
        <time>2024-08-12T14:00:04Z</time>
      </trkpt>
      <trkpt lat="44.79201" lon="6.28617">
        <ele>2439</ele>
        <time>2024-08-12T14:00:05Z</time>
      </trkpt>
      <trkpt lat="44.79203" lon="6.28619">
        <ele>2439</ele>
        <time>2024-08-12T14:00:06Z</time>
      </trkpt>
      <trkpt lat="44.79203" lon="6.28619">
        <ele>2438.8</ele>
        <time>2024-08-12T14:00:07Z</time>
      </trkpt>
      <trkpt lat="44.79205" lon="6.28622">
        <ele>2438.8</ele>
        <time>2024-08-12T14:00:08Z</time>
      </trkpt>
      <trkpt lat="44.79205" lon="6.28622">
        <ele>2438.8</ele>
        <time>2024-08-12T14:00:09Z</time>
      </trkpt>
      <trkpt lat="44.79206" lon="6.28624">
        <ele>2438.6</ele>
        <time>2024-08-12T14:00:10Z</time>
      </trkpt>
      <trkpt lat="44.79206" lon="6.28624">
        <ele>2438.2</ele>
        <time>2024-08-12T14:00:11Z</time>
      </trkpt>
      <trkpt lat="44.79208" lon="6.28626">
        <ele>2438.2</ele>
        <time>2024-08-12T14:00:12Z</time>
      </trkpt>
      <trkpt lat="44.79208" lon="6.28626">
        <ele>2437.6</ele>
        <time>2024-08-12T14:00:13Z</time>
      </trkpt>
      <trkpt lat="44.79211" lon="6.28628">
        <ele>2437.6</ele>
        <time>2024-08-12T14:00:14Z</time>
      </trkpt>
      <trkpt lat="44.79211" lon="6.28628">
        <ele>2437.4</ele>
        <time>2024-08-12T14:00:15Z</time>
      </trkpt>
      <trkpt lat="44.79213" lon="6.2863">
        <ele>2436.6</ele>
        <time>2024-08-12T14:00:16Z</time>
      </trkpt>
      <trkpt lat="44.79213" lon="6.2863">
        <ele>2436.4</ele>
        <time>2024-08-12T14:00:17Z</time>
      </trkpt>
      <trkpt lat="44.79214" lon="6.28631">
        <ele>2436</ele>
        <time>2024-08-12T14:00:18Z</time>
      </trkpt>
      <trkpt lat="44.79214" lon="6.28631">
        <ele>2435.8</ele>
        <time>2024-08-12T14:00:19Z</time>
      </trkpt>
      <trkpt lat="44.79216" lon="6.28634">
        <ele>2435.8</ele>
        <time>2024-08-12T14:00:20Z</time>
      </trkpt>
      <trkpt lat="44.79216" lon="6.28634">
        <ele>2435.2</ele>
        <time>2024-08-12T14:00:21Z</time>
      </trkpt>
      <trkpt lat="44.79217" lon="6.28638">
        <ele>2435.2</ele>
        <time>2024-08-12T14:00:22Z</time>
      </trkpt>
      <trkpt lat="44.79217" lon="6.28638">
        <ele>2435.2</ele>
        <time>2024-08-12T14:00:23Z</time>
      </trkpt>
      <trkpt lat="44.79219" lon="6.2864">
        <ele>2435</ele>
        <time>2024-08-12T14:00:24Z</time>
      </trkpt>
      <trkpt lat="44.79219" lon="6.2864">
        <ele>2435</ele>
        <time>2024-08-12T14:00:25Z</time>
      </trkpt>
      <trkpt lat="44.79221" lon="6.28642">
        <ele>2435</ele>
        <time>2024-08-12T14:00:26Z</time>
      </trkpt>
      <trkpt lat="44.79221" lon="6.28642">
        <ele>2434.6</ele>
        <time>2024-08-12T14:00:27Z</time>
      </trkpt>
      <trkpt lat="44.79222" lon="6.28645">
        <ele>2434.6</ele>
        <time>2024-08-12T14:00:28Z</time>
      </trkpt>
      <trkpt lat="44.79222" lon="6.28645">
        <ele>2434.6</ele>
        <time>2024-08-12T14:00:29Z</time>
      </trkpt>
      <trkpt lat="44.79224" lon="6.28647">
        <ele>2434.6</ele>
        <time>2024-08-12T14:00:30Z</time>
      </trkpt>
      <trkpt lat="44.79224" lon="6.28647">
        <ele>2434.2</ele>
        <time>2024-08-12T14:00:31Z</time>
      </trkpt>
      <trkpt lat="44.79225" lon="6.2865">
        <ele>2434.2</ele>
        <time>2024-08-12T14:00:32Z</time>
      </trkpt>
      <trkpt lat="44.79225" lon="6.2865">
        <ele>2434</ele>
        <time>2024-08-12T14:00:33Z</time>
      </trkpt>
      <trkpt lat="44.79227" lon="6.28653">
        <ele>2433.8</ele>
        <time>2024-08-12T14:00:34Z</time>
      </trkpt>
      <trkpt lat="44.79227" lon="6.28653">
        <ele>2433.8</ele>
        <time>2024-08-12T14:00:35Z</time>
      </trkpt>
      <trkpt lat="44.79228" lon="6.28657">
        <ele>2433.8</ele>
        <time>2024-08-12T14:00:36Z</time>
      </trkpt>
      <trkpt lat="44.79228" lon="6.28657">
        <ele>2432.8</ele>
        <time>2024-08-12T14:00:37Z</time>
      </trkpt>
      <trkpt lat="44.79229" lon="6.28659">
        <ele>2432</ele>
        <time>2024-08-12T14:00:38Z</time>
      </trkpt>
      <trkpt lat="44.79229" lon="6.28659">
        <ele>2431.6</ele>
        <time>2024-08-12T14:00:39Z</time>
      </trkpt>
      <trkpt lat="44.79232" lon="6.28661">
        <ele>2431.2</ele>
        <time>2024-08-12T14:00:40Z</time>
      </trkpt>
      <trkpt lat="44.79232" lon="6.28661">
        <ele>2430.8</ele>
        <time>2024-08-12T14:00:41Z</time>
      </trkpt>
      <trkpt lat="44.79234" lon="6.28662">
        <ele>2430.4</ele>
        <time>2024-08-12T14:00:42Z</time>
      </trkpt>
      <trkpt lat="44.79234" lon="6.28662">
        <ele>2430.4</ele>
        <time>2024-08-12T14:00:43Z</time>
      </trkpt>
      <trkpt lat="44.79236" lon="6.28664">
        <ele>2430.2</ele>
        <time>2024-08-12T14:00:44Z</time>
      </trkpt>
      <trkpt lat="44.79236" lon="6.28664">
        <ele>2430</ele>
        <time>2024-08-12T14:00:45Z</time>
      </trkpt>
      <trkpt lat="44.79238" lon="6.28665">
        <ele>2429</ele>
        <time>2024-08-12T14:00:46Z</time>
      </trkpt>
      <trkpt lat="44.79238" lon="6.28665">
        <ele>2428.8</ele>
        <time>2024-08-12T14:00:47Z</time>
      </trkpt>
      <trkpt lat="44.79241" lon="6.28664">
        <ele>2428.6</ele>
        <time>2024-08-12T14:00:48Z</time>
      </trkpt>
      <trkpt lat="44.79241" lon="6.28664">
        <ele>2427.8</ele>
        <time>2024-08-12T14:00:49Z</time>
      </trkpt>
      <trkpt lat="44.79244" lon="6.28667">
        <ele>2426.8</ele>
        <time>2024-08-12T14:00:50Z</time>
      </trkpt>
      <trkpt lat="44.79244" lon="6.28667">
        <ele>2426.8</ele>
        <time>2024-08-12T14:00:51Z</time>
      </trkpt>
      <trkpt lat="44.79245" lon="6.28668">
        <ele>2427.4</ele>
        <time>2024-08-12T14:00:52Z</time>
      </trkpt>
      <trkpt lat="44.79245" lon="6.28668">
        <ele>2427.4</ele>
        <time>2024-08-12T14:00:53Z</time>
      </trkpt>
      <trkpt lat="44.79247" lon="6.28671">
        <ele>2428</ele>
        <time>2024-08-12T14:00:54Z</time>
      </trkpt>
      <trkpt lat="44.79247" lon="6.28671">
        <ele>2428</ele>
        <time>2024-08-12T14:00:55Z</time>
      </trkpt>
      <trkpt lat="44.79248" lon="6.28675">
        <ele>2427.6</ele>
        <time>2024-08-12T14:00:56Z</time>
      </trkpt>
      <trkpt lat="44.79248" lon="6.28675">
        <ele>2427.6</ele>
        <time>2024-08-12T14:00:57Z</time>
      </trkpt>
      <trkpt lat="44.79248" lon="6.28678">
        <ele>2427.4</ele>
        <time>2024-08-12T14:00:58Z</time>
      </trkpt>
      <trkpt lat="44.79248" lon="6.28678">
        <ele>2427.4</ele>
        <time>2024-08-12T14:00:59Z</time>
      </trkpt>
      <trkpt lat="44.79248" lon="6.28682">
        <ele>2426.6</ele>
        <time>2024-08-12T14:01:00Z</time>
      </trkpt>
      <trkpt lat="44.79248" lon="6.28682">
        <ele>2425.8</ele>
        <time>2024-08-12T14:01:01Z</time>
      </trkpt>
      <trkpt lat="44.79249" lon="6.28686">
        <ele>2425.8</ele>
        <time>2024-08-12T14:01:02Z</time>
      </trkpt>
      <trkpt lat="44.79249" lon="6.28686">
        <ele>2425.8</ele>
        <time>2024-08-12T14:01:03Z</time>
      </trkpt>
      <trkpt lat="44.7925" lon="6.2869">
        <ele>2425.6</ele>
        <time>2024-08-12T14:01:04Z</time>
      </trkpt>
      <trkpt lat="44.7925" lon="6.2869">
        <ele>2425</ele>
        <time>2024-08-12T14:01:05Z</time>
      </trkpt>
      <trkpt lat="44.79251" lon="6.28693">
        <ele>2425</ele>
        <time>2024-08-12T14:01:06Z</time>
      </trkpt>
      <trkpt lat="44.79251" lon="6.28693">
        <ele>2424.8</ele>
        <time>2024-08-12T14:01:07Z</time>
      </trkpt>
      <trkpt lat="44.79253" lon="6.28696">
        <ele>2424.6</ele>
        <time>2024-08-12T14:01:08Z</time>
      </trkpt>
      <trkpt lat="44.79253" lon="6.28696">
        <ele>2424.4</ele>
        <time>2024-08-12T14:01:09Z</time>
      </trkpt>
      <trkpt lat="44.79254" lon="6.28699">
        <ele>2424.2</ele>
        <time>2024-08-12T14:01:10Z</time>
      </trkpt>
      <trkpt lat="44.79254" lon="6.28699">
        <ele>2424</ele>
        <time>2024-08-12T14:01:11Z</time>
      </trkpt>
      <trkpt lat="44.79256" lon="6.28702">
        <ele>2424</ele>
        <time>2024-08-12T14:01:12Z</time>
      </trkpt>
      <trkpt lat="44.79256" lon="6.28702">
        <ele>2424.2</ele>
        <time>2024-08-12T14:01:13Z</time>
      </trkpt>
      <trkpt lat="44.79258" lon="6.28704">
        <ele>2424.2</ele>
        <time>2024-08-12T14:01:14Z</time>
      </trkpt>
      <trkpt lat="44.79258" lon="6.28704">
        <ele>2423.8</ele>
        <time>2024-08-12T14:01:15Z</time>
      </trkpt>
      <trkpt lat="44.7926" lon="6.28706">
        <ele>2423.4</ele>
        <time>2024-08-12T14:01:16Z</time>
      </trkpt>
      <trkpt lat="44.7926" lon="6.28706">
        <ele>2422.8</ele>
        <time>2024-08-12T14:01:17Z</time>
      </trkpt>
      <trkpt lat="44.79262" lon="6.28708">
        <ele>2422.6</ele>
        <time>2024-08-12T14:01:18Z</time>
      </trkpt>
      <trkpt lat="44.79262" lon="6.28708">
        <ele>2422</ele>
        <time>2024-08-12T14:01:19Z</time>
      </trkpt>
      <trkpt lat="44.79264" lon="6.28709">
        <ele>2421.8</ele>
        <time>2024-08-12T14:01:20Z</time>
      </trkpt>
      <trkpt lat="44.79264" lon="6.28709">
        <ele>2421.4</ele>
        <time>2024-08-12T14:01:21Z</time>
      </trkpt>
      <trkpt lat="44.79266" lon="6.28711">
        <ele>2420.8</ele>
        <time>2024-08-12T14:01:22Z</time>
      </trkpt>
      <trkpt lat="44.79266" lon="6.28711">
        <ele>2420.6</ele>
        <time>2024-08-12T14:01:23Z</time>
      </trkpt>
      <trkpt lat="44.79268" lon="6.28712">
        <ele>2420.4</ele>
        <time>2024-08-12T14:01:24Z</time>
      </trkpt>
      <trkpt lat="44.79268" lon="6.28712">
        <ele>2420.2</ele>
        <time>2024-08-12T14:01:25Z</time>
      </trkpt>
      <trkpt lat="44.7927" lon="6.28714">
        <ele>2420</ele>
        <time>2024-08-12T14:01:26Z</time>
      </trkpt>
      <trkpt lat="44.7927" lon="6.28714">
        <ele>2419.8</ele>
        <time>2024-08-12T14:01:27Z</time>
      </trkpt>
      <trkpt lat="44.7927" lon="6.28714">
        <ele>2419.6</ele>
        <time>2024-08-12T14:01:28Z</time>
      </trkpt>
      <trkpt lat="44.79272" lon="6.28716">
        <ele>2419.4</ele>
        <time>2024-08-12T14:01:29Z</time>
      </trkpt>
      <trkpt lat="44.79272" lon="6.28716">
        <ele>2419.2</ele>
        <time>2024-08-12T14:01:30Z</time>
      </trkpt>
      <trkpt lat="44.79275" lon="6.28717">
        <ele>2419</ele>
        <time>2024-08-12T14:01:31Z</time>
      </trkpt>
      <trkpt lat="44.79275" lon="6.28717">
        <ele>2418.8</ele>
        <time>2024-08-12T14:01:32Z</time>
      </trkpt>
      <trkpt lat="44.79277" lon="6.28718">
        <ele>2418.4</ele>
        <time>2024-08-12T14:01:33Z</time>
      </trkpt>
      <trkpt lat="44.79277" lon="6.28718">
        <ele>2418.2</ele>
        <time>2024-08-12T14:01:34Z</time>
      </trkpt>
      <trkpt lat="44.79277" lon="6.28718">
        <ele>2418</ele>
        <time>2024-08-12T14:01:35Z</time>
      </trkpt>
      <trkpt lat="44.79279" lon="6.28719">
        <ele>2418</ele>
        <time>2024-08-12T14:01:36Z</time>
      </trkpt>
      <trkpt lat="44.79279" lon="6.28719">
        <ele>2417.8</ele>
        <time>2024-08-12T14:01:37Z</time>
      </trkpt>
      <trkpt lat="44.79279" lon="6.28719">
        <ele>2417.4</ele>
        <time>2024-08-12T14:01:38Z</time>
      </trkpt>
      <trkpt lat="44.79282" lon="6.2872">
        <ele>2417.4</ele>
        <time>2024-08-12T14:01:39Z</time>
      </trkpt>
      <trkpt lat="44.79282" lon="6.2872">
        <ele>2417.4</ele>
        <time>2024-08-12T14:01:40Z</time>
      </trkpt>
      <trkpt lat="44.79284" lon="6.28722">
        <ele>2416.8</ele>
        <time>2024-08-12T14:01:41Z</time>
      </trkpt>
      <trkpt lat="44.79284" lon="6.28722">
        <ele>2416.4</ele>
        <time>2024-08-12T14:01:42Z</time>
      </trkpt>
      <trkpt lat="44.79286" lon="6.28722">
        <ele>2416.4</ele>
        <time>2024-08-12T14:01:43Z</time>
      </trkpt>
      <trkpt lat="44.79286" lon="6.28722">
        <ele>2416.2</ele>
        <time>2024-08-12T14:01:44Z</time>
      </trkpt>
      <trkpt lat="44.79289" lon="6.28722">
        <ele>2416.2</ele>
        <time>2024-08-12T14:01:45Z</time>
      </trkpt>
      <trkpt lat="44.79289" lon="6.28722">
        <ele>2415.6</ele>
        <time>2024-08-12T14:01:46Z</time>
      </trkpt>
      <trkpt lat="44.79291" lon="6.28723">
        <ele>2415.6</ele>
        <time>2024-08-12T14:01:47Z</time>
      </trkpt>
      <trkpt lat="44.79291" lon="6.28723">
        <ele>2415.2</ele>
        <time>2024-08-12T14:01:48Z</time>
      </trkpt>
      <trkpt lat="44.79291" lon="6.28723">
        <ele>2415</ele>
        <time>2024-08-12T14:01:49Z</time>
      </trkpt>
      <trkpt lat="44.79294" lon="6.28723">
        <ele>2415</ele>
        <time>2024-08-12T14:01:50Z</time>
      </trkpt>
      <trkpt lat="44.79294" lon="6.28723">
        <ele>2415</ele>
        <time>2024-08-12T14:01:51Z</time>
      </trkpt>
      <trkpt lat="44.79297" lon="6.28722">
        <ele>2414.6</ele>
        <time>2024-08-12T14:01:52Z</time>
      </trkpt>
      <trkpt lat="44.79297" lon="6.28722">
        <ele>2414.4</ele>
        <time>2024-08-12T14:01:53Z</time>
      </trkpt>
      <trkpt lat="44.79299" lon="6.28722">
        <ele>2414</ele>
        <time>2024-08-12T14:01:54Z</time>
      </trkpt>
      <trkpt lat="44.79299" lon="6.28722">
        <ele>2414</ele>
        <time>2024-08-12T14:01:55Z</time>
      </trkpt>
      <trkpt lat="44.79302" lon="6.28722">
        <ele>2413.8</ele>
        <time>2024-08-12T14:01:56Z</time>
      </trkpt>
      <trkpt lat="44.79302" lon="6.28722">
        <ele>2413.4</ele>
        <time>2024-08-12T14:01:57Z</time>
      </trkpt>
      <trkpt lat="44.79305" lon="6.28722">
        <ele>2413</ele>
        <time>2024-08-12T14:01:58Z</time>
      </trkpt>
      <trkpt lat="44.79305" lon="6.28722">
        <ele>2413</ele>
        <time>2024-08-12T14:01:59Z</time>
      </trkpt>
      <trkpt lat="44.79307" lon="6.28723">
        <ele>2413.2</ele>
        <time>2024-08-12T14:02:00Z</time>
      </trkpt>
      <trkpt lat="44.79307" lon="6.28723">
        <ele>2413.2</ele>
        <time>2024-08-12T14:02:01Z</time>
      </trkpt>
      <trkpt lat="44.79309" lon="6.28725">
        <ele>2413</ele>
        <time>2024-08-12T14:02:02Z</time>
      </trkpt>
      <trkpt lat="44.79309" lon="6.28725">
        <ele>2413</ele>
        <time>2024-08-12T14:02:03Z</time>
      </trkpt>
      <trkpt lat="44.79311" lon="6.28726">
        <ele>2412.8</ele>
        <time>2024-08-12T14:02:04Z</time>
      </trkpt>
      <trkpt lat="44.79311" lon="6.28726">
        <ele>2412.8</ele>
        <time>2024-08-12T14:02:05Z</time>
      </trkpt>
      <trkpt lat="44.79314" lon="6.28728">
        <ele>2412.4</ele>
        <time>2024-08-12T14:02:06Z</time>
      </trkpt>
      <trkpt lat="44.79314" lon="6.28728">
        <ele>2412</ele>
        <time>2024-08-12T14:02:07Z</time>
      </trkpt>
      <trkpt lat="44.79316" lon="6.28729">
        <ele>2412</ele>
        <time>2024-08-12T14:02:08Z</time>
      </trkpt>
      <trkpt lat="44.79316" lon="6.28729">
        <ele>2412</ele>
        <time>2024-08-12T14:02:09Z</time>
      </trkpt>
      <trkpt lat="44.79318" lon="6.2873">
        <ele>2411.8</ele>
        <time>2024-08-12T14:02:10Z</time>
      </trkpt>
      <trkpt lat="44.79318" lon="6.2873">
        <ele>2411.6</ele>
        <time>2024-08-12T14:02:11Z</time>
      </trkpt>
      <trkpt lat="44.7932" lon="6.28731">
        <ele>2411.6</ele>
        <time>2024-08-12T14:02:12Z</time>
      </trkpt>
      <trkpt lat="44.7932" lon="6.28731">
        <ele>2411.6</ele>
        <time>2024-08-12T14:02:13Z</time>
      </trkpt>
      <trkpt lat="44.79322" lon="6.28731">
        <ele>2411</ele>
        <time>2024-08-12T14:02:14Z</time>
      </trkpt>
      <trkpt lat="44.79322" lon="6.28731">
        <ele>2410.8</ele>
        <time>2024-08-12T14:02:15Z</time>
      </trkpt>
      <trkpt lat="44.79325" lon="6.28731">
        <ele>2410.6</ele>
        <time>2024-08-12T14:02:16Z</time>
      </trkpt>
      <trkpt lat="44.79325" lon="6.28731">
        <ele>2410.2</ele>
        <time>2024-08-12T14:02:17Z</time>
      </trkpt>
      <trkpt lat="44.79327" lon="6.28732">
        <ele>2410</ele>
        <time>2024-08-12T14:02:18Z</time>
      </trkpt>
      <trkpt lat="44.79327" lon="6.28732">
        <ele>2409.8</ele>
        <time>2024-08-12T14:02:19Z</time>
      </trkpt>
      <trkpt lat="44.79327" lon="6.28732">
        <ele>2409.8</ele>
        <time>2024-08-12T14:02:20Z</time>
      </trkpt>
      <trkpt lat="44.79329" lon="6.28733">
        <ele>2409.6</ele>
        <time>2024-08-12T14:02:21Z</time>
      </trkpt>
      <trkpt lat="44.79329" lon="6.28733">
        <ele>2409.6</ele>
        <time>2024-08-12T14:02:22Z</time>
      </trkpt>
      <trkpt lat="44.79332" lon="6.28733">
        <ele>2409.2</ele>
        <time>2024-08-12T14:02:23Z</time>
      </trkpt>
      <trkpt lat="44.79332" lon="6.28733">
        <ele>2409</ele>
        <time>2024-08-12T14:02:24Z</time>
      </trkpt>
      <trkpt lat="44.79332" lon="6.28733">
        <ele>2408.8</ele>
        <time>2024-08-12T14:02:25Z</time>
      </trkpt>
      <trkpt lat="44.79335" lon="6.28734">
        <ele>2408.6</ele>
        <time>2024-08-12T14:02:26Z</time>
      </trkpt>
      <trkpt lat="44.79335" lon="6.28734">
        <ele>2408.2</ele>
        <time>2024-08-12T14:02:27Z</time>
      </trkpt>
      <trkpt lat="44.79337" lon="6.28733">
        <ele>2407.6</ele>
        <time>2024-08-12T14:02:28Z</time>
      </trkpt>
      <trkpt lat="44.79337" lon="6.28733">
        <ele>2407.4</ele>
        <time>2024-08-12T14:02:29Z</time>
      </trkpt>
      <trkpt lat="44.79339" lon="6.28733">
        <ele>2407.4</ele>
        <time>2024-08-12T14:02:30Z</time>
      </trkpt>
      <trkpt lat="44.79339" lon="6.28733">
        <ele>2407</ele>
        <time>2024-08-12T14:02:31Z</time>
      </trkpt>
      <trkpt lat="44.79341" lon="6.28733">
        <ele>2406.8</ele>
        <time>2024-08-12T14:02:32Z</time>
      </trkpt>
      <trkpt lat="44.79341" lon="6.28733">
        <ele>2406.8</ele>
        <time>2024-08-12T14:02:33Z</time>
      </trkpt>
      <trkpt lat="44.79343" lon="6.28733">
        <ele>2406.4</ele>
        <time>2024-08-12T14:02:34Z</time>
      </trkpt>
      <trkpt lat="44.79343" lon="6.28733">
        <ele>2406</ele>
        <time>2024-08-12T14:02:35Z</time>
      </trkpt>
      <trkpt lat="44.79345" lon="6.28732">
        <ele>2406</ele>
        <time>2024-08-12T14:02:36Z</time>
      </trkpt>
      <trkpt lat="44.79345" lon="6.28732">
        <ele>2405.6</ele>
        <time>2024-08-12T14:02:37Z</time>
      </trkpt>
      <trkpt lat="44.79347" lon="6.28732">
        <ele>2405.4</ele>
        <time>2024-08-12T14:02:38Z</time>
      </trkpt>
      <trkpt lat="44.79347" lon="6.28732">
        <ele>2405.2</ele>
        <time>2024-08-12T14:02:39Z</time>
      </trkpt>
      <trkpt lat="44.79349" lon="6.28732">
        <ele>2405</ele>
        <time>2024-08-12T14:02:40Z</time>
      </trkpt>
      <trkpt lat="44.79349" lon="6.28732">
        <ele>2404.8</ele>
        <time>2024-08-12T14:02:41Z</time>
      </trkpt>
      <trkpt lat="44.79351" lon="6.28729">
        <ele>2404.8</ele>
        <time>2024-08-12T14:02:42Z</time>
      </trkpt>
      <trkpt lat="44.79351" lon="6.28729">
        <ele>2404.6</ele>
        <time>2024-08-12T14:02:43Z</time>
      </trkpt>
      <trkpt lat="44.79353" lon="6.28727">
        <ele>2404</ele>
        <time>2024-08-12T14:02:44Z</time>
      </trkpt>
      <trkpt lat="44.79353" lon="6.28727">
        <ele>2403.8</ele>
        <time>2024-08-12T14:02:45Z</time>
      </trkpt>
      <trkpt lat="44.79355" lon="6.28725">
        <ele>2403.6</ele>
        <time>2024-08-12T14:02:46Z</time>
      </trkpt>
      <trkpt lat="44.79355" lon="6.28725">
        <ele>2403.6</ele>
        <time>2024-08-12T14:02:47Z</time>
      </trkpt>
      <trkpt lat="44.79357" lon="6.28723">
        <ele>2403.6</ele>
        <time>2024-08-12T14:02:48Z</time>
      </trkpt>
      <trkpt lat="44.79357" lon="6.28723">
        <ele>2403.2</ele>
        <time>2024-08-12T14:02:49Z</time>
      </trkpt>
      <trkpt lat="44.7936" lon="6.28722">
        <ele>2403</ele>
        <time>2024-08-12T14:02:50Z</time>
      </trkpt>
      <trkpt lat="44.7936" lon="6.28722">
        <ele>2403</ele>
        <time>2024-08-12T14:02:51Z</time>
      </trkpt>
      <trkpt lat="44.79362" lon="6.28721">
        <ele>2403</ele>
        <time>2024-08-12T14:02:52Z</time>
      </trkpt>
      <trkpt lat="44.79362" lon="6.28721">
        <ele>2402.8</ele>
        <time>2024-08-12T14:02:53Z</time>
      </trkpt>
      <trkpt lat="44.79365" lon="6.2872">
        <ele>2402.4</ele>
        <time>2024-08-12T14:02:54Z</time>
      </trkpt>
      <trkpt lat="44.79365" lon="6.2872">
        <ele>2402</ele>
        <time>2024-08-12T14:02:55Z</time>
      </trkpt>
      <trkpt lat="44.79367" lon="6.28721">
        <ele>2401.8</ele>
        <time>2024-08-12T14:02:56Z</time>
      </trkpt>
      <trkpt lat="44.79367" lon="6.28721">
        <ele>2401.8</ele>
        <time>2024-08-12T14:02:57Z</time>
      </trkpt>
      <trkpt lat="44.79369" lon="6.2872">
        <ele>2401.6</ele>
        <time>2024-08-12T14:02:58Z</time>
      </trkpt>
      <trkpt lat="44.79369" lon="6.2872">
        <ele>2401</ele>
        <time>2024-08-12T14:02:59Z</time>
      </trkpt>
      <trkpt lat="44.79371" lon="6.28719">
        <ele>2400.8</ele>
        <time>2024-08-12T14:03:00Z</time>
      </trkpt>
      <trkpt lat="44.79371" lon="6.28719">
        <ele>2400.4</ele>
        <time>2024-08-12T14:03:01Z</time>
      </trkpt>
      <trkpt lat="44.79373" lon="6.28718">
        <ele>2400</ele>
        <time>2024-08-12T14:03:02Z</time>
      </trkpt>
      <trkpt lat="44.79373" lon="6.28718">
        <ele>2400</ele>
        <time>2024-08-12T14:03:03Z</time>
      </trkpt>
      <trkpt lat="44.79374" lon="6.28718">
        <ele>2399.8</ele>
        <time>2024-08-12T14:03:04Z</time>
      </trkpt>
      <trkpt lat="44.79374" lon="6.28718">
        <ele>2399.6</ele>
        <time>2024-08-12T14:03:05Z</time>
      </trkpt>
      <trkpt lat="44.79377" lon="6.28717">
        <ele>2399.2</ele>
        <time>2024-08-12T14:03:06Z</time>
      </trkpt>
      <trkpt lat="44.79377" lon="6.28717">
        <ele>2398.8</ele>
        <time>2024-08-12T14:03:07Z</time>
      </trkpt>
      <trkpt lat="44.79379" lon="6.28716">
        <ele>2398.2</ele>
        <time>2024-08-12T14:03:08Z</time>
      </trkpt>
      <trkpt lat="44.79379" lon="6.28716">
        <ele>2398.2</ele>
        <time>2024-08-12T14:03:09Z</time>
      </trkpt>
      <trkpt lat="44.79381" lon="6.28716">
        <ele>2398</ele>
        <time>2024-08-12T14:03:10Z</time>
      </trkpt>
      <trkpt lat="44.79381" lon="6.28716">
        <ele>2397.4</ele>
        <time>2024-08-12T14:03:11Z</time>
      </trkpt>
      <trkpt lat="44.79383" lon="6.28716">
        <ele>2397</ele>
        <time>2024-08-12T14:03:12Z</time>
      </trkpt>
      <trkpt lat="44.79383" lon="6.28716">
        <ele>2396.8</ele>
        <time>2024-08-12T14:03:13Z</time>
      </trkpt>
      <trkpt lat="44.79385" lon="6.28716">
        <ele>2396.4</ele>
        <time>2024-08-12T14:03:14Z</time>
      </trkpt>
      <trkpt lat="44.79385" lon="6.28716">
        <ele>2396.2</ele>
        <time>2024-08-12T14:03:15Z</time>
      </trkpt>
      <trkpt lat="44.79387" lon="6.28715">
        <ele>2395.6</ele>
        <time>2024-08-12T14:03:16Z</time>
      </trkpt>
      <trkpt lat="44.79387" lon="6.28715">
        <ele>2395.4</ele>
        <time>2024-08-12T14:03:17Z</time>
      </trkpt>
      <trkpt lat="44.79389" lon="6.28714">
        <ele>2395.2</ele>
        <time>2024-08-12T14:03:18Z</time>
      </trkpt>
      <trkpt lat="44.79389" lon="6.28714">
        <ele>2394.6</ele>
        <time>2024-08-12T14:03:19Z</time>
      </trkpt>
      <trkpt lat="44.79391" lon="6.28714">
        <ele>2393.8</ele>
        <time>2024-08-12T14:03:20Z</time>
      </trkpt>
      <trkpt lat="44.79391" lon="6.28714">
        <ele>2393.8</ele>
        <time>2024-08-12T14:03:21Z</time>
      </trkpt>
      <trkpt lat="44.79394" lon="6.28712">
        <ele>2393.4</ele>
        <time>2024-08-12T14:03:22Z</time>
      </trkpt>
      <trkpt lat="44.79394" lon="6.28712">
        <ele>2393.2</ele>
        <time>2024-08-12T14:03:23Z</time>
      </trkpt>
      <trkpt lat="44.79395" lon="6.28709">
        <ele>2392.6</ele>
        <time>2024-08-12T14:03:24Z</time>
      </trkpt>
      <trkpt lat="44.79395" lon="6.28709">
        <ele>2392.4</ele>
        <time>2024-08-12T14:03:25Z</time>
      </trkpt>
      <trkpt lat="44.79397" lon="6.28708">
        <ele>2392.2</ele>
        <time>2024-08-12T14:03:26Z</time>
      </trkpt>
      <trkpt lat="44.79397" lon="6.28708">
        <ele>2392.2</ele>
        <time>2024-08-12T14:03:27Z</time>
      </trkpt>
      <trkpt lat="44.79399" lon="6.28707">
        <ele>2392.2</ele>
        <time>2024-08-12T14:03:28Z</time>
      </trkpt>
      <trkpt lat="44.79399" lon="6.28707">
        <ele>2391.8</ele>
        <time>2024-08-12T14:03:29Z</time>
      </trkpt>
      <trkpt lat="44.79401" lon="6.28705">
        <ele>2391.4</ele>
        <time>2024-08-12T14:03:30Z</time>
      </trkpt>
      <trkpt lat="44.79401" lon="6.28705">
        <ele>2391</ele>
        <time>2024-08-12T14:03:31Z</time>
      </trkpt>
      <trkpt lat="44.79404" lon="6.28704">
        <ele>2390.8</ele>
        <time>2024-08-12T14:03:32Z</time>
      </trkpt>
      <trkpt lat="44.79404" lon="6.28704">
        <ele>2390.4</ele>
        <time>2024-08-12T14:03:33Z</time>
      </trkpt>
      <trkpt lat="44.79406" lon="6.28702">
        <ele>2390.2</ele>
        <time>2024-08-12T14:03:34Z</time>
      </trkpt>
      <trkpt lat="44.79406" lon="6.28702">
        <ele>2390</ele>
        <time>2024-08-12T14:03:35Z</time>
      </trkpt>
      <trkpt lat="44.79409" lon="6.287">
        <ele>2389.8</ele>
        <time>2024-08-12T14:03:36Z</time>
      </trkpt>
      <trkpt lat="44.79409" lon="6.287">
        <ele>2389.6</ele>
        <time>2024-08-12T14:03:37Z</time>
      </trkpt>
      <trkpt lat="44.79411" lon="6.28697">
        <ele>2389.4</ele>
        <time>2024-08-12T14:03:38Z</time>
      </trkpt>
      <trkpt lat="44.79411" lon="6.28697">
        <ele>2389.4</ele>
        <time>2024-08-12T14:03:39Z</time>
      </trkpt>
      <trkpt lat="44.79413" lon="6.28695">
        <ele>2389.4</ele>
        <time>2024-08-12T14:03:40Z</time>
      </trkpt>
      <trkpt lat="44.79413" lon="6.28695">
        <ele>2389.4</ele>
        <time>2024-08-12T14:03:41Z</time>
      </trkpt>
      <trkpt lat="44.79415" lon="6.28693">
        <ele>2389.2</ele>
        <time>2024-08-12T14:03:42Z</time>
      </trkpt>
      <trkpt lat="44.79415" lon="6.28693">
        <ele>2389.2</ele>
        <time>2024-08-12T14:03:43Z</time>
      </trkpt>
      <trkpt lat="44.79418" lon="6.28691">
        <ele>2389</ele>
        <time>2024-08-12T14:03:44Z</time>
      </trkpt>
      <trkpt lat="44.79418" lon="6.28691">
        <ele>2388.6</ele>
        <time>2024-08-12T14:03:45Z</time>
      </trkpt>
      <trkpt lat="44.79418" lon="6.28691">
        <ele>2388.4</ele>
        <time>2024-08-12T14:03:46Z</time>
      </trkpt>
      <trkpt lat="44.79421" lon="6.2869">
        <ele>2388.2</ele>
        <time>2024-08-12T14:03:47Z</time>
      </trkpt>
      <trkpt lat="44.79421" lon="6.2869">
        <ele>2388.2</ele>
        <time>2024-08-12T14:03:48Z</time>
      </trkpt>
      <trkpt lat="44.79422" lon="6.28688">
        <ele>2388</ele>
        <time>2024-08-12T14:03:49Z</time>
      </trkpt>
      <trkpt lat="44.79422" lon="6.28688">
        <ele>2387.8</ele>
        <time>2024-08-12T14:03:50Z</time>
      </trkpt>
      <trkpt lat="44.79425" lon="6.28686">
        <ele>2387.4</ele>
        <time>2024-08-12T14:03:51Z</time>
      </trkpt>
      <trkpt lat="44.79425" lon="6.28686">
        <ele>2387.2</ele>
        <time>2024-08-12T14:03:52Z</time>
      </trkpt>
      <trkpt lat="44.79427" lon="6.28685">
        <ele>2387.2</ele>
        <time>2024-08-12T14:03:53Z</time>
      </trkpt>
      <trkpt lat="44.79427" lon="6.28685">
        <ele>2387.2</ele>
        <time>2024-08-12T14:03:54Z</time>
      </trkpt>
      <trkpt lat="44.79429" lon="6.28684">
        <ele>2387.2</ele>
        <time>2024-08-12T14:03:55Z</time>
      </trkpt>
      <trkpt lat="44.79429" lon="6.28684">
        <ele>2387</ele>
        <time>2024-08-12T14:03:56Z</time>
      </trkpt>
      <trkpt lat="44.79431" lon="6.28682">
        <ele>2386.8</ele>
        <time>2024-08-12T14:03:57Z</time>
      </trkpt>
      <trkpt lat="44.79431" lon="6.28682">
        <ele>2386.4</ele>
        <time>2024-08-12T14:03:58Z</time>
      </trkpt>
      <trkpt lat="44.79433" lon="6.2868">
        <ele>2386.2</ele>
        <time>2024-08-12T14:03:59Z</time>
      </trkpt>
      <trkpt lat="44.79433" lon="6.2868">
        <ele>2386.2</ele>
        <time>2024-08-12T14:04:00Z</time>
      </trkpt>
      <trkpt lat="44.79435" lon="6.28679">
        <ele>2386</ele>
        <time>2024-08-12T14:04:01Z</time>
      </trkpt>
      <trkpt lat="44.79435" lon="6.28679">
        <ele>2385.4</ele>
        <time>2024-08-12T14:04:02Z</time>
      </trkpt>
      <trkpt lat="44.79438" lon="6.28679">
        <ele>2385.4</ele>
        <time>2024-08-12T14:04:03Z</time>
      </trkpt>
      <trkpt lat="44.79438" lon="6.28679">
        <ele>2385.4</ele>
        <time>2024-08-12T14:04:04Z</time>
      </trkpt>
      <trkpt lat="44.7944" lon="6.28678">
        <ele>2385.4</ele>
        <time>2024-08-12T14:04:05Z</time>
      </trkpt>
      <trkpt lat="44.7944" lon="6.28678">
        <ele>2385.2</ele>
        <time>2024-08-12T14:04:06Z</time>
      </trkpt>
      <trkpt lat="44.79442" lon="6.28677">
        <ele>2385</ele>
        <time>2024-08-12T14:04:07Z</time>
      </trkpt>
      <trkpt lat="44.79442" lon="6.28677">
        <ele>2384.8</ele>
        <time>2024-08-12T14:04:08Z</time>
      </trkpt>
      <trkpt lat="44.79445" lon="6.28677">
        <ele>2384.4</ele>
        <time>2024-08-12T14:04:09Z</time>
      </trkpt>
      <trkpt lat="44.79445" lon="6.28677">
        <ele>2384.4</ele>
        <time>2024-08-12T14:04:10Z</time>
      </trkpt>
      <trkpt lat="44.79446" lon="6.28677">
        <ele>2383.6</ele>
        <time>2024-08-12T14:04:11Z</time>
      </trkpt>
      <trkpt lat="44.79446" lon="6.28677">
        <ele>2383.4</ele>
        <time>2024-08-12T14:04:12Z</time>
      </trkpt>
      <trkpt lat="44.79448" lon="6.28676">
        <ele>2383.2</ele>
        <time>2024-08-12T14:04:13Z</time>
      </trkpt>
      <trkpt lat="44.79448" lon="6.28676">
        <ele>2383</ele>
        <time>2024-08-12T14:04:14Z</time>
      </trkpt>
      <trkpt lat="44.7945" lon="6.28674">
        <ele>2382.6</ele>
        <time>2024-08-12T14:04:15Z</time>
      </trkpt>
      <trkpt lat="44.7945" lon="6.28674">
        <ele>2382.2</ele>
        <time>2024-08-12T14:04:16Z</time>
      </trkpt>
      <trkpt lat="44.79451" lon="6.28671">
        <ele>2381.8</ele>
        <time>2024-08-12T14:04:17Z</time>
      </trkpt>
      <trkpt lat="44.79451" lon="6.28671">
        <ele>2381.2</ele>
        <time>2024-08-12T14:04:18Z</time>
      </trkpt>
      <trkpt lat="44.79453" lon="6.28669">
        <ele>2381</ele>
        <time>2024-08-12T14:04:19Z</time>
      </trkpt>
      <trkpt lat="44.79453" lon="6.28669">
        <ele>2380.8</ele>
        <time>2024-08-12T14:04:20Z</time>
      </trkpt>
      <trkpt lat="44.79454" lon="6.28666">
        <ele>2380.4</ele>
        <time>2024-08-12T14:04:21Z</time>
      </trkpt>
      <trkpt lat="44.79454" lon="6.28666">
        <ele>2380</ele>
        <time>2024-08-12T14:04:22Z</time>
      </trkpt>
      <trkpt lat="44.79456" lon="6.28666">
        <ele>2379.8</ele>
        <time>2024-08-12T14:04:23Z</time>
      </trkpt>
      <trkpt lat="44.79456" lon="6.28666">
        <ele>2379.8</ele>
        <time>2024-08-12T14:04:24Z</time>
      </trkpt>
      <trkpt lat="44.79459" lon="6.28665">
        <ele>2380</ele>
        <time>2024-08-12T14:04:25Z</time>
      </trkpt>
      <trkpt lat="44.79459" lon="6.28665">
        <ele>2380</ele>
        <time>2024-08-12T14:04:26Z</time>
      </trkpt>
      <trkpt lat="44.79461" lon="6.28664">
        <ele>2380</ele>
        <time>2024-08-12T14:04:27Z</time>
      </trkpt>
      <trkpt lat="44.79461" lon="6.28664">
        <ele>2380</ele>
        <time>2024-08-12T14:04:28Z</time>
      </trkpt>
      <trkpt lat="44.79461" lon="6.28664">
        <ele>2380</ele>
        <time>2024-08-12T14:04:29Z</time>
      </trkpt>
      <trkpt lat="44.79464" lon="6.28662">
        <ele>2380</ele>
        <time>2024-08-12T14:04:30Z</time>
      </trkpt>
      <trkpt lat="44.79464" lon="6.28662">
        <ele>2380.2</ele>
        <time>2024-08-12T14:04:31Z</time>
      </trkpt>
      <trkpt lat="44.79466" lon="6.28662">
        <ele>2380.2</ele>
        <time>2024-08-12T14:04:32Z</time>
      </trkpt>
      <trkpt lat="44.79466" lon="6.28662">
        <ele>2380.2</ele>
        <time>2024-08-12T14:04:33Z</time>
      </trkpt>
      <trkpt lat="44.79468" lon="6.28662">
        <ele>2380</ele>
        <time>2024-08-12T14:04:34Z</time>
      </trkpt>
      <trkpt lat="44.79468" lon="6.28662">
        <ele>2379.4</ele>
        <time>2024-08-12T14:04:35Z</time>
      </trkpt>
      <trkpt lat="44.7947" lon="6.28662">
        <ele>2379.2</ele>
        <time>2024-08-12T14:04:36Z</time>
      </trkpt>
      <trkpt lat="44.7947" lon="6.28662">
        <ele>2379.2</ele>
        <time>2024-08-12T14:04:37Z</time>
      </trkpt>
      <trkpt lat="44.79472" lon="6.28662">
        <ele>2378.8</ele>
        <time>2024-08-12T14:04:38Z</time>
      </trkpt>
      <trkpt lat="44.79472" lon="6.28662">
        <ele>2378.4</ele>
        <time>2024-08-12T14:04:39Z</time>
      </trkpt>
      <trkpt lat="44.79474" lon="6.28664">
        <ele>2378.2</ele>
        <time>2024-08-12T14:04:40Z</time>
      </trkpt>
      <trkpt lat="44.79474" lon="6.28664">
        <ele>2377.8</ele>
        <time>2024-08-12T14:04:41Z</time>
      </trkpt>
      <trkpt lat="44.79474" lon="6.28667">
        <ele>2377.6</ele>
        <time>2024-08-12T14:04:42Z</time>
      </trkpt>
      <trkpt lat="44.79474" lon="6.28667">
        <ele>2377.6</ele>
        <time>2024-08-12T14:04:43Z</time>
      </trkpt>
      <trkpt lat="44.79473" lon="6.28669">
        <ele>2377.4</ele>
        <time>2024-08-12T14:04:44Z</time>
      </trkpt>
      <trkpt lat="44.79473" lon="6.28669">
        <ele>2377</ele>
        <time>2024-08-12T14:04:45Z</time>
      </trkpt>
      <trkpt lat="44.79471" lon="6.28671">
        <ele>2376.8</ele>
        <time>2024-08-12T14:04:46Z</time>
      </trkpt>
      <trkpt lat="44.79471" lon="6.28671">
        <ele>2376.6</ele>
        <time>2024-08-12T14:04:47Z</time>
      </trkpt>
      <trkpt lat="44.79469" lon="6.28673">
        <ele>2376.4</ele>
        <time>2024-08-12T14:04:48Z</time>
      </trkpt>
      <trkpt lat="44.79469" lon="6.28673">
        <ele>2376.2</ele>
        <time>2024-08-12T14:04:49Z</time>
      </trkpt>
      <trkpt lat="44.79467" lon="6.28675">
        <ele>2376</ele>
        <time>2024-08-12T14:04:50Z</time>
      </trkpt>
      <trkpt lat="44.79467" lon="6.28675">
        <ele>2375.8</ele>
        <time>2024-08-12T14:04:51Z</time>
      </trkpt>
      <trkpt lat="44.79467" lon="6.28675">
        <ele>2375.8</ele>
        <time>2024-08-12T14:04:52Z</time>
      </trkpt>
      <trkpt lat="44.79464" lon="6.28678">
        <ele>2375.8</ele>
        <time>2024-08-12T14:04:53Z</time>
      </trkpt>
      <trkpt lat="44.79464" lon="6.28678">
        <ele>2375.6</ele>
        <time>2024-08-12T14:04:54Z</time>
      </trkpt>
      <trkpt lat="44.79463" lon="6.2868">
        <ele>2375.4</ele>
        <time>2024-08-12T14:04:55Z</time>
      </trkpt>
      <trkpt lat="44.79463" lon="6.2868">
        <ele>2375</ele>
        <time>2024-08-12T14:04:56Z</time>
      </trkpt>
      <trkpt lat="44.79461" lon="6.28682">
        <ele>2375</ele>
        <time>2024-08-12T14:04:57Z</time>
      </trkpt>
      <trkpt lat="44.79461" lon="6.28682">
        <ele>2374.6</ele>
        <time>2024-08-12T14:04:58Z</time>
      </trkpt>
      <trkpt lat="44.7946" lon="6.28684">
        <ele>2374</ele>
        <time>2024-08-12T14:04:59Z</time>
      </trkpt>
      <trkpt lat="44.7946" lon="6.28684">
        <ele>2373.8</ele>
        <time>2024-08-12T14:05:00Z</time>
      </trkpt>
      <trkpt lat="44.79458" lon="6.28686">
        <ele>2373.4</ele>
        <time>2024-08-12T14:05:01Z</time>
      </trkpt>
      <trkpt lat="44.79458" lon="6.28686">
        <ele>2372.4</ele>
        <time>2024-08-12T14:05:02Z</time>
      </trkpt>
      <trkpt lat="44.79458" lon="6.28686">
        <ele>2372.4</ele>
        <time>2024-08-12T14:05:03Z</time>
      </trkpt>
      <trkpt lat="44.79458" lon="6.2869">
        <ele>2372.2</ele>
        <time>2024-08-12T14:05:04Z</time>
      </trkpt>
      <trkpt lat="44.79458" lon="6.2869">
        <ele>2372.2</ele>
        <time>2024-08-12T14:05:05Z</time>
      </trkpt>
      <trkpt lat="44.79457" lon="6.28693">
        <ele>2372</ele>
        <time>2024-08-12T14:05:06Z</time>
      </trkpt>
      <trkpt lat="44.79457" lon="6.28693">
        <ele>2371.6</ele>
        <time>2024-08-12T14:05:07Z</time>
      </trkpt>
      <trkpt lat="44.79456" lon="6.28697">
        <ele>2371.2</ele>
        <time>2024-08-12T14:05:08Z</time>
      </trkpt>
      <trkpt lat="44.79456" lon="6.28697">
        <ele>2371</ele>
        <time>2024-08-12T14:05:09Z</time>
      </trkpt>
      <trkpt lat="44.79455" lon="6.287">
        <ele>2371</ele>
        <time>2024-08-12T14:05:10Z</time>
      </trkpt>
      <trkpt lat="44.79455" lon="6.287">
        <ele>2370.8</ele>
        <time>2024-08-12T14:05:11Z</time>
      </trkpt>
      <trkpt lat="44.79454" lon="6.28703">
        <ele>2370.8</ele>
        <time>2024-08-12T14:05:12Z</time>
      </trkpt>
      <trkpt lat="44.79454" lon="6.28703">
        <ele>2371</ele>
        <time>2024-08-12T14:05:13Z</time>
      </trkpt>
      <trkpt lat="44.79452" lon="6.28704">
        <ele>2371.2</ele>
        <time>2024-08-12T14:05:14Z</time>
      </trkpt>
      <trkpt lat="44.79452" lon="6.28704">
        <ele>2371.2</ele>
        <time>2024-08-12T14:05:15Z</time>
      </trkpt>
      <trkpt lat="44.7945" lon="6.28706">
        <ele>2371.2</ele>
        <time>2024-08-12T14:05:16Z</time>
      </trkpt>
      <trkpt lat="44.7945" lon="6.28706">
        <ele>2371</ele>
        <time>2024-08-12T14:05:17Z</time>
      </trkpt>
      <trkpt lat="44.79448" lon="6.28708">
        <ele>2371</ele>
        <time>2024-08-12T14:05:18Z</time>
      </trkpt>
      <trkpt lat="44.79448" lon="6.28708">
        <ele>2371</ele>
        <time>2024-08-12T14:05:19Z</time>
      </trkpt>
      <trkpt lat="44.79447" lon="6.28711">
        <ele>2370.4</ele>
        <time>2024-08-12T14:05:20Z</time>
      </trkpt>
      <trkpt lat="44.79447" lon="6.28711">
        <ele>2370.2</ele>
        <time>2024-08-12T14:05:21Z</time>
      </trkpt>
      <trkpt lat="44.79445" lon="6.28713">
        <ele>2370.2</ele>
        <time>2024-08-12T14:05:22Z</time>
      </trkpt>
      <trkpt lat="44.79445" lon="6.28713">
        <ele>2370.2</ele>
        <time>2024-08-12T14:05:23Z</time>
      </trkpt>
      <trkpt lat="44.79445" lon="6.28713">
        <ele>2369.8</ele>
        <time>2024-08-12T14:05:24Z</time>
      </trkpt>
      <trkpt lat="44.79444" lon="6.28716">
        <ele>2369.8</ele>
        <time>2024-08-12T14:05:25Z</time>
      </trkpt>
      <trkpt lat="44.79444" lon="6.28716">
        <ele>2369.6</ele>
        <time>2024-08-12T14:05:26Z</time>
      </trkpt>
      <trkpt lat="44.79442" lon="6.28719">
        <ele>2369.6</ele>
        <time>2024-08-12T14:05:27Z</time>
      </trkpt>
      <trkpt lat="44.79442" lon="6.28719">
        <ele>2369.2</ele>
        <time>2024-08-12T14:05:28Z</time>
      </trkpt>
      <trkpt lat="44.7944" lon="6.2872">
        <ele>2369.2</ele>
        <time>2024-08-12T14:05:29Z</time>
      </trkpt>
      <trkpt lat="44.7944" lon="6.2872">
        <ele>2369</ele>
        <time>2024-08-12T14:05:30Z</time>
      </trkpt>
      <trkpt lat="44.79438" lon="6.28722">
        <ele>2369</ele>
        <time>2024-08-12T14:05:31Z</time>
      </trkpt>
      <trkpt lat="44.79438" lon="6.28722">
        <ele>2368.8</ele>
        <time>2024-08-12T14:05:32Z</time>
      </trkpt>
      <trkpt lat="44.79437" lon="6.28725">
        <ele>2368.6</ele>
        <time>2024-08-12T14:05:33Z</time>
      </trkpt>
      <trkpt lat="44.79437" lon="6.28725">
        <ele>2368.4</ele>
        <time>2024-08-12T14:05:34Z</time>
      </trkpt>
      <trkpt lat="44.79435" lon="6.28727">
        <ele>2368.4</ele>
        <time>2024-08-12T14:05:35Z</time>
      </trkpt>
      <trkpt lat="44.79435" lon="6.28727">
        <ele>2368.2</ele>
        <time>2024-08-12T14:05:36Z</time>
      </trkpt>
      <trkpt lat="44.79434" lon="6.2873">
        <ele>2368</ele>
        <time>2024-08-12T14:05:37Z</time>
      </trkpt>
      <trkpt lat="44.79434" lon="6.2873">
        <ele>2367.6</ele>
        <time>2024-08-12T14:05:38Z</time>
      </trkpt>
      <trkpt lat="44.79433" lon="6.28733">
        <ele>2367.4</ele>
        <time>2024-08-12T14:05:39Z</time>
      </trkpt>
      <trkpt lat="44.79433" lon="6.28733">
        <ele>2367.2</ele>
        <time>2024-08-12T14:05:40Z</time>
      </trkpt>
      <trkpt lat="44.7943" lon="6.28736">
        <ele>2367</ele>
        <time>2024-08-12T14:05:41Z</time>
      </trkpt>
      <trkpt lat="44.7943" lon="6.28736">
        <ele>2366.6</ele>
        <time>2024-08-12T14:05:42Z</time>
      </trkpt>
      <trkpt lat="44.79429" lon="6.28738">
        <ele>2366.4</ele>
        <time>2024-08-12T14:05:43Z</time>
      </trkpt>
      <trkpt lat="44.79429" lon="6.28738">
        <ele>2366</ele>
        <time>2024-08-12T14:05:44Z</time>
      </trkpt>
      <trkpt lat="44.79427" lon="6.28741">
        <ele>2365.8</ele>
        <time>2024-08-12T14:05:45Z</time>
      </trkpt>
      <trkpt lat="44.79427" lon="6.28741">
        <ele>2365.6</ele>
        <time>2024-08-12T14:05:46Z</time>
      </trkpt>
      <trkpt lat="44.79427" lon="6.28744">
        <ele>2365.6</ele>
        <time>2024-08-12T14:05:47Z</time>
      </trkpt>
      <trkpt lat="44.79427" lon="6.28744">
        <ele>2365.6</ele>
        <time>2024-08-12T14:05:48Z</time>
      </trkpt>
      <trkpt lat="44.79425" lon="6.28747">
        <ele>2365.2</ele>
        <time>2024-08-12T14:05:49Z</time>
      </trkpt>
      <trkpt lat="44.79425" lon="6.28747">
        <ele>2365</ele>
        <time>2024-08-12T14:05:50Z</time>
      </trkpt>
      <trkpt lat="44.79424" lon="6.28749">
        <ele>2365</ele>
        <time>2024-08-12T14:05:51Z</time>
      </trkpt>
      <trkpt lat="44.79424" lon="6.28749">
        <ele>2364.6</ele>
        <time>2024-08-12T14:05:52Z</time>
      </trkpt>
      <trkpt lat="44.79424" lon="6.28749">
        <ele>2364.4</ele>
        <time>2024-08-12T14:05:53Z</time>
      </trkpt>
      <trkpt lat="44.79424" lon="6.28749">
        <ele>2364.2</ele>
        <time>2024-08-12T14:05:54Z</time>
      </trkpt>
      <trkpt lat="44.79424" lon="6.28749">
        <ele>2364.2</ele>
        <time>2024-08-12T14:05:55Z</time>
      </trkpt>
      <trkpt lat="44.79424" lon="6.28749">
        <ele>2364.2</ele>
        <time>2024-08-12T14:05:56Z</time>
      </trkpt>
      <trkpt lat="44.79427" lon="6.28748">
        <ele>2364.2</ele>
        <time>2024-08-12T14:05:57Z</time>
      </trkpt>
      <trkpt lat="44.79427" lon="6.28748">
        <ele>2364</ele>
        <time>2024-08-12T14:05:58Z</time>
      </trkpt>
      <trkpt lat="44.79429" lon="6.28748">
        <ele>2364</ele>
        <time>2024-08-12T14:05:59Z</time>
      </trkpt>
      <trkpt lat="44.79429" lon="6.28748">
        <ele>2364</ele>
        <time>2024-08-12T14:06:00Z</time>
      </trkpt>
      <trkpt lat="44.79432" lon="6.28746">
        <ele>2364</ele>
        <time>2024-08-12T14:06:01Z</time>
      </trkpt>
      <trkpt lat="44.79432" lon="6.28746">
        <ele>2363.2</ele>
        <time>2024-08-12T14:06:02Z</time>
      </trkpt>
      <trkpt lat="44.79434" lon="6.28745">
        <ele>2363.2</ele>
        <time>2024-08-12T14:06:03Z</time>
      </trkpt>
      <trkpt lat="44.79434" lon="6.28745">
        <ele>2363</ele>
        <time>2024-08-12T14:06:04Z</time>
      </trkpt>
      <trkpt lat="44.79436" lon="6.28744">
        <ele>2362.8</ele>
        <time>2024-08-12T14:06:05Z</time>
      </trkpt>
      <trkpt lat="44.79436" lon="6.28744">
        <ele>2362.6</ele>
        <time>2024-08-12T14:06:06Z</time>
      </trkpt>
      <trkpt lat="44.79438" lon="6.28744">
        <ele>2362.4</ele>
        <time>2024-08-12T14:06:07Z</time>
      </trkpt>
      <trkpt lat="44.79438" lon="6.28744">
        <ele>2362.2</ele>
        <time>2024-08-12T14:06:08Z</time>
      </trkpt>
      <trkpt lat="44.79438" lon="6.28744">
        <ele>2361.8</ele>
        <time>2024-08-12T14:06:09Z</time>
      </trkpt>
      <trkpt lat="44.79438" lon="6.28744">
        <ele>2361.8</ele>
        <time>2024-08-12T14:06:10Z</time>
      </trkpt>
      <trkpt lat="44.7944" lon="6.28744">
        <ele>2361.6</ele>
        <time>2024-08-12T14:06:11Z</time>
      </trkpt>
      <trkpt lat="44.7944" lon="6.28744">
        <ele>2361.6</ele>
        <time>2024-08-12T14:06:12Z</time>
      </trkpt>
      <trkpt lat="44.7944" lon="6.28744">
        <ele>2361.8</ele>
        <time>2024-08-12T14:06:13Z</time>
      </trkpt>
      <trkpt lat="44.7944" lon="6.28744">
        <ele>2362</ele>
        <time>2024-08-12T14:06:14Z</time>
      </trkpt>
      <trkpt lat="44.79443" lon="6.28744">
        <ele>2362</ele>
        <time>2024-08-12T14:06:15Z</time>
      </trkpt>
      <trkpt lat="44.79443" lon="6.28744">
        <ele>2361.8</ele>
        <time>2024-08-12T14:06:16Z</time>
      </trkpt>
      <trkpt lat="44.79446" lon="6.28744">
        <ele>2361.4</ele>
        <time>2024-08-12T14:06:17Z</time>
      </trkpt>
      <trkpt lat="44.79446" lon="6.28744">
        <ele>2361.2</ele>
        <time>2024-08-12T14:06:18Z</time>
      </trkpt>
      <trkpt lat="44.79449" lon="6.28744">
        <ele>2361</ele>
        <time>2024-08-12T14:06:19Z</time>
      </trkpt>
      <trkpt lat="44.79449" lon="6.28744">
        <ele>2360.6</ele>
        <time>2024-08-12T14:06:20Z</time>
      </trkpt>
      <trkpt lat="44.79451" lon="6.28742">
        <ele>2360.2</ele>
        <time>2024-08-12T14:06:21Z</time>
      </trkpt>
      <trkpt lat="44.79451" lon="6.28742">
        <ele>2360.2</ele>
        <time>2024-08-12T14:06:22Z</time>
      </trkpt>
      <trkpt lat="44.79453" lon="6.28741">
        <ele>2360.2</ele>
        <time>2024-08-12T14:06:23Z</time>
      </trkpt>
      <trkpt lat="44.79453" lon="6.28741">
        <ele>2360</ele>
        <time>2024-08-12T14:06:24Z</time>
      </trkpt>
      <trkpt lat="44.79455" lon="6.2874">
        <ele>2359.8</ele>
        <time>2024-08-12T14:06:25Z</time>
      </trkpt>
      <trkpt lat="44.79455" lon="6.2874">
        <ele>2359.6</ele>
        <time>2024-08-12T14:06:26Z</time>
      </trkpt>
      <trkpt lat="44.79458" lon="6.2874">
        <ele>2359</ele>
        <time>2024-08-12T14:06:27Z</time>
      </trkpt>
      <trkpt lat="44.79458" lon="6.2874">
        <ele>2358.6</ele>
        <time>2024-08-12T14:06:28Z</time>
      </trkpt>
      <trkpt lat="44.79461" lon="6.28741">
        <ele>2358.6</ele>
        <time>2024-08-12T14:06:29Z</time>
      </trkpt>
      <trkpt lat="44.79461" lon="6.28741">
        <ele>2358.6</ele>
        <time>2024-08-12T14:06:30Z</time>
      </trkpt>
      <trkpt lat="44.79463" lon="6.28741">
        <ele>2358.6</ele>
        <time>2024-08-12T14:06:31Z</time>
      </trkpt>
      <trkpt lat="44.79463" lon="6.28741">
        <ele>2358.2</ele>
        <time>2024-08-12T14:06:32Z</time>
      </trkpt>
      <trkpt lat="44.79465" lon="6.28741">
        <ele>2358.2</ele>
        <time>2024-08-12T14:06:33Z</time>
      </trkpt>
      <trkpt lat="44.79465" lon="6.28741">
        <ele>2357.8</ele>
        <time>2024-08-12T14:06:34Z</time>
      </trkpt>
      <trkpt lat="44.79468" lon="6.28741">
        <ele>2357.6</ele>
        <time>2024-08-12T14:06:35Z</time>
      </trkpt>
      <trkpt lat="44.79468" lon="6.28741">
        <ele>2357.4</ele>
        <time>2024-08-12T14:06:36Z</time>
      </trkpt>
      <trkpt lat="44.7947" lon="6.2874">
        <ele>2357.2</ele>
        <time>2024-08-12T14:06:37Z</time>
      </trkpt>
      <trkpt lat="44.7947" lon="6.2874">
        <ele>2357</ele>
        <time>2024-08-12T14:06:38Z</time>
      </trkpt>
      <trkpt lat="44.79472" lon="6.28738">
        <ele>2356.8</ele>
        <time>2024-08-12T14:06:39Z</time>
      </trkpt>
      <trkpt lat="44.79472" lon="6.28738">
        <ele>2356.6</ele>
        <time>2024-08-12T14:06:40Z</time>
      </trkpt>
      <trkpt lat="44.79474" lon="6.28737">
        <ele>2356.4</ele>
        <time>2024-08-12T14:06:41Z</time>
      </trkpt>
      <trkpt lat="44.79474" lon="6.28737">
        <ele>2356.2</ele>
        <time>2024-08-12T14:06:42Z</time>
      </trkpt>
      <trkpt lat="44.79476" lon="6.28737">
        <ele>2356</ele>
        <time>2024-08-12T14:06:43Z</time>
      </trkpt>
      <trkpt lat="44.79476" lon="6.28737">
        <ele>2356</ele>
        <time>2024-08-12T14:06:44Z</time>
      </trkpt>
      <trkpt lat="44.79479" lon="6.28735">
        <ele>2356.2</ele>
        <time>2024-08-12T14:06:45Z</time>
      </trkpt>
      <trkpt lat="44.79479" lon="6.28735">
        <ele>2356.2</ele>
        <time>2024-08-12T14:06:46Z</time>
      </trkpt>
      <trkpt lat="44.79481" lon="6.28735">
        <ele>2356.4</ele>
        <time>2024-08-12T14:06:47Z</time>
      </trkpt>
      <trkpt lat="44.79481" lon="6.28735">
        <ele>2356.4</ele>
        <time>2024-08-12T14:06:48Z</time>
      </trkpt>
      <trkpt lat="44.79484" lon="6.28735">
        <ele>2356.4</ele>
        <time>2024-08-12T14:06:49Z</time>
      </trkpt>
      <trkpt lat="44.79484" lon="6.28735">
        <ele>2356</ele>
        <time>2024-08-12T14:06:50Z</time>
      </trkpt>
      <trkpt lat="44.79485" lon="6.28735">
        <ele>2355.8</ele>
        <time>2024-08-12T14:06:51Z</time>
      </trkpt>
      <trkpt lat="44.79485" lon="6.28735">
        <ele>2355.8</ele>
        <time>2024-08-12T14:06:52Z</time>
      </trkpt>
      <trkpt lat="44.79488" lon="6.28735">
        <ele>2355.8</ele>
        <time>2024-08-12T14:06:53Z</time>
      </trkpt>
      <trkpt lat="44.79488" lon="6.28735">
        <ele>2355.4</ele>
        <time>2024-08-12T14:06:54Z</time>
      </trkpt>
      <trkpt lat="44.7949" lon="6.28736">
        <ele>2355.2</ele>
        <time>2024-08-12T14:06:55Z</time>
      </trkpt>
      <trkpt lat="44.7949" lon="6.28736">
        <ele>2355</ele>
        <time>2024-08-12T14:06:56Z</time>
      </trkpt>
      <trkpt lat="44.79492" lon="6.28737">
        <ele>2355</ele>
        <time>2024-08-12T14:06:57Z</time>
      </trkpt>
      <trkpt lat="44.79492" lon="6.28737">
        <ele>2355</ele>
        <time>2024-08-12T14:06:58Z</time>
      </trkpt>
      <trkpt lat="44.79494" lon="6.28738">
        <ele>2354.8</ele>
        <time>2024-08-12T14:06:59Z</time>
      </trkpt>
      <trkpt lat="44.79494" lon="6.28738">
        <ele>2354.6</ele>
        <time>2024-08-12T14:07:00Z</time>
      </trkpt>
      <trkpt lat="44.79497" lon="6.28739">
        <ele>2354.2</ele>
        <time>2024-08-12T14:07:01Z</time>
      </trkpt>
      <trkpt lat="44.79497" lon="6.28739">
        <ele>2353.8</ele>
        <time>2024-08-12T14:07:02Z</time>
      </trkpt>
      <trkpt lat="44.795" lon="6.28739">
        <ele>2353.8</ele>
        <time>2024-08-12T14:07:03Z</time>
      </trkpt>
      <trkpt lat="44.795" lon="6.28739">
        <ele>2353.4</ele>
        <time>2024-08-12T14:07:04Z</time>
      </trkpt>
      <trkpt lat="44.79502" lon="6.28741">
        <ele>2353.4</ele>
        <time>2024-08-12T14:07:05Z</time>
      </trkpt>
      <trkpt lat="44.79502" lon="6.28741">
        <ele>2353.2</ele>
        <time>2024-08-12T14:07:06Z</time>
      </trkpt>
      <trkpt lat="44.79505" lon="6.28741">
        <ele>2352.8</ele>
        <time>2024-08-12T14:07:07Z</time>
      </trkpt>
      <trkpt lat="44.79505" lon="6.28741">
        <ele>2352.4</ele>
        <time>2024-08-12T14:07:08Z</time>
      </trkpt>
      <trkpt lat="44.79507" lon="6.2874">
        <ele>2352.4</ele>
        <time>2024-08-12T14:07:09Z</time>
      </trkpt>
      <trkpt lat="44.79507" lon="6.2874">
        <ele>2352</ele>
        <time>2024-08-12T14:07:10Z</time>
      </trkpt>
      <trkpt lat="44.79507" lon="6.2874">
        <ele>2352</ele>
        <time>2024-08-12T14:07:11Z</time>
      </trkpt>
      <trkpt lat="44.79509" lon="6.2874">
        <ele>2351.8</ele>
        <time>2024-08-12T14:07:12Z</time>
      </trkpt>
      <trkpt lat="44.79509" lon="6.2874">
        <ele>2351.8</ele>
        <time>2024-08-12T14:07:13Z</time>
      </trkpt>
      <trkpt lat="44.7951" lon="6.28737">
        <ele>2351</ele>
        <time>2024-08-12T14:07:14Z</time>
      </trkpt>
      <trkpt lat="44.7951" lon="6.28737">
        <ele>2350.8</ele>
        <time>2024-08-12T14:07:15Z</time>
      </trkpt>
      <trkpt lat="44.79512" lon="6.28735">
        <ele>2350.6</ele>
        <time>2024-08-12T14:07:16Z</time>
      </trkpt>
      <trkpt lat="44.79512" lon="6.28735">
        <ele>2350.6</ele>
        <time>2024-08-12T14:07:17Z</time>
      </trkpt>
      <trkpt lat="44.79514" lon="6.28735">
        <ele>2350.6</ele>
        <time>2024-08-12T14:07:18Z</time>
      </trkpt>
      <trkpt lat="44.79514" lon="6.28735">
        <ele>2350.8</ele>
        <time>2024-08-12T14:07:19Z</time>
      </trkpt>
      <trkpt lat="44.79514" lon="6.28735">
        <ele>2350.8</ele>
        <time>2024-08-12T14:07:20Z</time>
      </trkpt>
      <trkpt lat="44.79515" lon="6.28738">
        <ele>2351</ele>
        <time>2024-08-12T14:07:21Z</time>
      </trkpt>
      <trkpt lat="44.79515" lon="6.28738">
        <ele>2351</ele>
        <time>2024-08-12T14:07:22Z</time>
      </trkpt>
      <trkpt lat="44.79516" lon="6.2874">
        <ele>2350.6</ele>
        <time>2024-08-12T14:07:23Z</time>
      </trkpt>
      <trkpt lat="44.79516" lon="6.2874">
        <ele>2350.2</ele>
        <time>2024-08-12T14:07:24Z</time>
      </trkpt>
      <trkpt lat="44.79517" lon="6.28742">
        <ele>2349.8</ele>
        <time>2024-08-12T14:07:25Z</time>
      </trkpt>
      <trkpt lat="44.79517" lon="6.28742">
        <ele>2349.6</ele>
        <time>2024-08-12T14:07:26Z</time>
      </trkpt>
      <trkpt lat="44.79518" lon="6.28745">
        <ele>2349.2</ele>
        <time>2024-08-12T14:07:27Z</time>
      </trkpt>
      <trkpt lat="44.79518" lon="6.28745">
        <ele>2348.8</ele>
        <time>2024-08-12T14:07:28Z</time>
      </trkpt>
      <trkpt lat="44.7952" lon="6.28749">
        <ele>2348.4</ele>
        <time>2024-08-12T14:07:29Z</time>
      </trkpt>
      <trkpt lat="44.7952" lon="6.28749">
        <ele>2348.4</ele>
        <time>2024-08-12T14:07:30Z</time>
      </trkpt>
      <trkpt lat="44.79521" lon="6.28751">
        <ele>2348</ele>
        <time>2024-08-12T14:07:31Z</time>
      </trkpt>
      <trkpt lat="44.79521" lon="6.28751">
        <ele>2347.8</ele>
        <time>2024-08-12T14:07:32Z</time>
      </trkpt>
      <trkpt lat="44.79523" lon="6.28752">
        <ele>2347.6</ele>
        <time>2024-08-12T14:07:33Z</time>
      </trkpt>
      <trkpt lat="44.79523" lon="6.28752">
        <ele>2347.2</ele>
        <time>2024-08-12T14:07:34Z</time>
      </trkpt>
      <trkpt lat="44.79525" lon="6.28753">
        <ele>2346.8</ele>
        <time>2024-08-12T14:07:35Z</time>
      </trkpt>
      <trkpt lat="44.79525" lon="6.28753">
        <ele>2346.8</ele>
        <time>2024-08-12T14:07:36Z</time>
      </trkpt>
      <trkpt lat="44.79527" lon="6.28753">
        <ele>2346.6</ele>
        <time>2024-08-12T14:07:37Z</time>
      </trkpt>
      <trkpt lat="44.79527" lon="6.28753">
        <ele>2346.2</ele>
        <time>2024-08-12T14:07:38Z</time>
      </trkpt>
      <trkpt lat="44.79529" lon="6.28752">
        <ele>2346.2</ele>
        <time>2024-08-12T14:07:39Z</time>
      </trkpt>
      <trkpt lat="44.79529" lon="6.28752">
        <ele>2346.2</ele>
        <time>2024-08-12T14:07:40Z</time>
      </trkpt>
      <trkpt lat="44.79532" lon="6.28751">
        <ele>2346.2</ele>
        <time>2024-08-12T14:07:41Z</time>
      </trkpt>
      <trkpt lat="44.79532" lon="6.28751">
        <ele>2345.8</ele>
        <time>2024-08-12T14:07:42Z</time>
      </trkpt>
      <trkpt lat="44.79535" lon="6.2875">
        <ele>2345.6</ele>
        <time>2024-08-12T14:07:43Z</time>
      </trkpt>
      <trkpt lat="44.79535" lon="6.2875">
        <ele>2345.6</ele>
        <time>2024-08-12T14:07:44Z</time>
      </trkpt>
      <trkpt lat="44.79537" lon="6.2875">
        <ele>2345.4</ele>
        <time>2024-08-12T14:07:45Z</time>
      </trkpt>
      <trkpt lat="44.79537" lon="6.2875">
        <ele>2345.2</ele>
        <time>2024-08-12T14:07:46Z</time>
      </trkpt>
      <trkpt lat="44.7954" lon="6.2875">
        <ele>2345</ele>
        <time>2024-08-12T14:07:47Z</time>
      </trkpt>
      <trkpt lat="44.7954" lon="6.2875">
        <ele>2344.8</ele>
        <time>2024-08-12T14:07:48Z</time>
      </trkpt>
      <trkpt lat="44.79541" lon="6.2875">
        <ele>2344.6</ele>
        <time>2024-08-12T14:07:49Z</time>
      </trkpt>
      <trkpt lat="44.79541" lon="6.2875">
        <ele>2344.4</ele>
        <time>2024-08-12T14:07:50Z</time>
      </trkpt>
      <trkpt lat="44.79544" lon="6.2875">
        <ele>2344</ele>
        <time>2024-08-12T14:07:51Z</time>
      </trkpt>
      <trkpt lat="44.79544" lon="6.2875">
        <ele>2343.6</ele>
        <time>2024-08-12T14:07:52Z</time>
      </trkpt>
      <trkpt lat="44.79546" lon="6.28751">
        <ele>2343.4</ele>
        <time>2024-08-12T14:07:53Z</time>
      </trkpt>
      <trkpt lat="44.79546" lon="6.28751">
        <ele>2343.4</ele>
        <time>2024-08-12T14:07:54Z</time>
      </trkpt>
      <trkpt lat="44.79549" lon="6.28751">
        <ele>2343.4</ele>
        <time>2024-08-12T14:07:55Z</time>
      </trkpt>
      <trkpt lat="44.79549" lon="6.28751">
        <ele>2343</ele>
        <time>2024-08-12T14:07:56Z</time>
      </trkpt>
      <trkpt lat="44.79551" lon="6.2875">
        <ele>2342.8</ele>
        <time>2024-08-12T14:07:57Z</time>
      </trkpt>
      <trkpt lat="44.79551" lon="6.2875">
        <ele>2342.8</ele>
        <time>2024-08-12T14:07:58Z</time>
      </trkpt>
      <trkpt lat="44.79554" lon="6.28749">
        <ele>2342.4</ele>
        <time>2024-08-12T14:07:59Z</time>
      </trkpt>
      <trkpt lat="44.79554" lon="6.28749">
        <ele>2342.2</ele>
        <time>2024-08-12T14:08:00Z</time>
      </trkpt>
      <trkpt lat="44.79556" lon="6.28748">
        <ele>2342</ele>
        <time>2024-08-12T14:08:01Z</time>
      </trkpt>
      <trkpt lat="44.79556" lon="6.28748">
        <ele>2341.4</ele>
        <time>2024-08-12T14:08:02Z</time>
      </trkpt>
      <trkpt lat="44.79559" lon="6.28747">
        <ele>2341.2</ele>
        <time>2024-08-12T14:08:03Z</time>
      </trkpt>
      <trkpt lat="44.79559" lon="6.28747">
        <ele>2341</ele>
        <time>2024-08-12T14:08:04Z</time>
      </trkpt>
      <trkpt lat="44.79561" lon="6.28748">
        <ele>2340.8</ele>
        <time>2024-08-12T14:08:05Z</time>
      </trkpt>
      <trkpt lat="44.79561" lon="6.28748">
        <ele>2340.4</ele>
        <time>2024-08-12T14:08:06Z</time>
      </trkpt>
      <trkpt lat="44.79561" lon="6.28748">
        <ele>2340.4</ele>
        <time>2024-08-12T14:08:07Z</time>
      </trkpt>
      <trkpt lat="44.79564" lon="6.2875">
        <ele>2340.4</ele>
        <time>2024-08-12T14:08:08Z</time>
      </trkpt>
      <trkpt lat="44.79564" lon="6.2875">
        <ele>2340.4</ele>
        <time>2024-08-12T14:08:09Z</time>
      </trkpt>
      <trkpt lat="44.79566" lon="6.2875">
        <ele>2340.2</ele>
        <time>2024-08-12T14:08:10Z</time>
      </trkpt>
      <trkpt lat="44.79566" lon="6.2875">
        <ele>2339.8</ele>
        <time>2024-08-12T14:08:11Z</time>
      </trkpt>
      <trkpt lat="44.79568" lon="6.28752">
        <ele>2339.8</ele>
        <time>2024-08-12T14:08:12Z</time>
      </trkpt>
      <trkpt lat="44.79568" lon="6.28752">
        <ele>2339.8</ele>
        <time>2024-08-12T14:08:13Z</time>
      </trkpt>
      <trkpt lat="44.79571" lon="6.28752">
        <ele>2339.4</ele>
        <time>2024-08-12T14:08:14Z</time>
      </trkpt>
      <trkpt lat="44.79571" lon="6.28752">
        <ele>2339.4</ele>
        <time>2024-08-12T14:08:15Z</time>
      </trkpt>
      <trkpt lat="44.79573" lon="6.28752">
        <ele>2339.4</ele>
        <time>2024-08-12T14:08:16Z</time>
      </trkpt>
      <trkpt lat="44.79573" lon="6.28752">
        <ele>2339</ele>
        <time>2024-08-12T14:08:17Z</time>
      </trkpt>
      <trkpt lat="44.79576" lon="6.28752">
        <ele>2338.8</ele>
        <time>2024-08-12T14:08:18Z</time>
      </trkpt>
      <trkpt lat="44.79576" lon="6.28752">
        <ele>2338.8</ele>
        <time>2024-08-12T14:08:19Z</time>
      </trkpt>
      <trkpt lat="44.79578" lon="6.28751">
        <ele>2338.8</ele>
        <time>2024-08-12T14:08:20Z</time>
      </trkpt>
      <trkpt lat="44.79578" lon="6.28751">
        <ele>2338.8</ele>
        <time>2024-08-12T14:08:21Z</time>
      </trkpt>
      <trkpt lat="44.79581" lon="6.28751">
        <ele>2338.8</ele>
        <time>2024-08-12T14:08:22Z</time>
      </trkpt>
      <trkpt lat="44.79581" lon="6.28751">
        <ele>2338.6</ele>
        <time>2024-08-12T14:08:23Z</time>
      </trkpt>
      <trkpt lat="44.79583" lon="6.2875">
        <ele>2338.2</ele>
        <time>2024-08-12T14:08:24Z</time>
      </trkpt>
      <trkpt lat="44.79583" lon="6.2875">
        <ele>2338.2</ele>
        <time>2024-08-12T14:08:25Z</time>
      </trkpt>
      <trkpt lat="44.79586" lon="6.2875">
        <ele>2337.8</ele>
        <time>2024-08-12T14:08:26Z</time>
      </trkpt>
      <trkpt lat="44.79586" lon="6.2875">
        <ele>2337.4</ele>
        <time>2024-08-12T14:08:27Z</time>
      </trkpt>
      <trkpt lat="44.79589" lon="6.2875">
        <ele>2337.2</ele>
        <time>2024-08-12T14:08:28Z</time>
      </trkpt>
      <trkpt lat="44.79589" lon="6.2875">
        <ele>2336.8</ele>
        <time>2024-08-12T14:08:29Z</time>
      </trkpt>
      <trkpt lat="44.79591" lon="6.28749">
        <ele>2336.4</ele>
        <time>2024-08-12T14:08:30Z</time>
      </trkpt>
      <trkpt lat="44.79591" lon="6.28749">
        <ele>2335.8</ele>
        <time>2024-08-12T14:08:31Z</time>
      </trkpt>
      <trkpt lat="44.79593" lon="6.28749">
        <ele>2335.6</ele>
        <time>2024-08-12T14:08:32Z</time>
      </trkpt>
      <trkpt lat="44.79593" lon="6.28749">
        <ele>2335.4</ele>
        <time>2024-08-12T14:08:33Z</time>
      </trkpt>
      <trkpt lat="44.79596" lon="6.28749">
        <ele>2335.2</ele>
        <time>2024-08-12T14:08:34Z</time>
      </trkpt>
      <trkpt lat="44.79596" lon="6.28749">
        <ele>2335</ele>
        <time>2024-08-12T14:08:35Z</time>
      </trkpt>
      <trkpt lat="44.79598" lon="6.28748">
        <ele>2334.8</ele>
        <time>2024-08-12T14:08:36Z</time>
      </trkpt>
      <trkpt lat="44.79598" lon="6.28748">
        <ele>2334.8</ele>
        <time>2024-08-12T14:08:37Z</time>
      </trkpt>
      <trkpt lat="44.79601" lon="6.28747">
        <ele>2334.6</ele>
        <time>2024-08-12T14:08:38Z</time>
      </trkpt>
      <trkpt lat="44.79601" lon="6.28747">
        <ele>2334.4</ele>
        <time>2024-08-12T14:08:39Z</time>
      </trkpt>
      <trkpt lat="44.79603" lon="6.28746">
        <ele>2333.8</ele>
        <time>2024-08-12T14:08:40Z</time>
      </trkpt>
      <trkpt lat="44.79603" lon="6.28746">
        <ele>2333.8</ele>
        <time>2024-08-12T14:08:41Z</time>
      </trkpt>
      <trkpt lat="44.79605" lon="6.28744">
        <ele>2333.2</ele>
        <time>2024-08-12T14:08:42Z</time>
      </trkpt>
      <trkpt lat="44.79605" lon="6.28744">
        <ele>2333</ele>
        <time>2024-08-12T14:08:43Z</time>
      </trkpt>
      <trkpt lat="44.79607" lon="6.28744">
        <ele>2333</ele>
        <time>2024-08-12T14:08:44Z</time>
      </trkpt>
      <trkpt lat="44.79607" lon="6.28744">
        <ele>2332.8</ele>
        <time>2024-08-12T14:08:45Z</time>
      </trkpt>
      <trkpt lat="44.7961" lon="6.28744">
        <ele>2332.8</ele>
        <time>2024-08-12T14:08:46Z</time>
      </trkpt>
      <trkpt lat="44.7961" lon="6.28744">
        <ele>2332.6</ele>
        <time>2024-08-12T14:08:47Z</time>
      </trkpt>
      <trkpt lat="44.79612" lon="6.28743">
        <ele>2332.4</ele>
        <time>2024-08-12T14:08:48Z</time>
      </trkpt>
      <trkpt lat="44.79612" lon="6.28743">
        <ele>2332</ele>
        <time>2024-08-12T14:08:49Z</time>
      </trkpt>
      <trkpt lat="44.79613" lon="6.28741">
        <ele>2331.6</ele>
        <time>2024-08-12T14:08:50Z</time>
      </trkpt>
      <trkpt lat="44.79613" lon="6.28741">
        <ele>2331.2</ele>
        <time>2024-08-12T14:08:51Z</time>
      </trkpt>
      <trkpt lat="44.79615" lon="6.28739">
        <ele>2331</ele>
        <time>2024-08-12T14:08:52Z</time>
      </trkpt>
      <trkpt lat="44.79615" lon="6.28739">
        <ele>2330.8</ele>
        <time>2024-08-12T14:08:53Z</time>
      </trkpt>
      <trkpt lat="44.79617" lon="6.28737">
        <ele>2330.6</ele>
        <time>2024-08-12T14:08:54Z</time>
      </trkpt>
      <trkpt lat="44.79617" lon="6.28737">
        <ele>2330.2</ele>
        <time>2024-08-12T14:08:55Z</time>
      </trkpt>
      <trkpt lat="44.79619" lon="6.28735">
        <ele>2330</ele>
        <time>2024-08-12T14:08:56Z</time>
      </trkpt>
      <trkpt lat="44.79619" lon="6.28735">
        <ele>2330</ele>
        <time>2024-08-12T14:08:57Z</time>
      </trkpt>
      <trkpt lat="44.79621" lon="6.28733">
        <ele>2329.8</ele>
        <time>2024-08-12T14:08:58Z</time>
      </trkpt>
      <trkpt lat="44.79621" lon="6.28733">
        <ele>2329.8</ele>
        <time>2024-08-12T14:08:59Z</time>
      </trkpt>
      <trkpt lat="44.79621" lon="6.2873">
        <ele>2329</ele>
        <time>2024-08-12T14:09:00Z</time>
      </trkpt>
      <trkpt lat="44.79621" lon="6.2873">
        <ele>2328.2</ele>
        <time>2024-08-12T14:09:01Z</time>
      </trkpt>
      <trkpt lat="44.79623" lon="6.28728">
        <ele>2328</ele>
        <time>2024-08-12T14:09:02Z</time>
      </trkpt>
      <trkpt lat="44.79623" lon="6.28728">
        <ele>2327.6</ele>
        <time>2024-08-12T14:09:03Z</time>
      </trkpt>
      <trkpt lat="44.79624" lon="6.28726">
        <ele>2327.4</ele>
        <time>2024-08-12T14:09:04Z</time>
      </trkpt>
      <trkpt lat="44.79624" lon="6.28726">
        <ele>2327.2</ele>
        <time>2024-08-12T14:09:05Z</time>
      </trkpt>
      <trkpt lat="44.79624" lon="6.28726">
        <ele>2326.6</ele>
        <time>2024-08-12T14:09:06Z</time>
      </trkpt>
      <trkpt lat="44.79625" lon="6.28728">
        <ele>2326.2</ele>
        <time>2024-08-12T14:09:07Z</time>
      </trkpt>
      <trkpt lat="44.79625" lon="6.28728">
        <ele>2326</ele>
        <time>2024-08-12T14:09:08Z</time>
      </trkpt>
      <trkpt lat="44.79627" lon="6.2873">
        <ele>2326</ele>
        <time>2024-08-12T14:09:09Z</time>
      </trkpt>
      <trkpt lat="44.79627" lon="6.2873">
        <ele>2325.6</ele>
        <time>2024-08-12T14:09:10Z</time>
      </trkpt>
      <trkpt lat="44.79628" lon="6.28733">
        <ele>2325.4</ele>
        <time>2024-08-12T14:09:11Z</time>
      </trkpt>
      <trkpt lat="44.79628" lon="6.28733">
        <ele>2325</ele>
        <time>2024-08-12T14:09:12Z</time>
      </trkpt>
      <trkpt lat="44.79629" lon="6.28735">
        <ele>2324.6</ele>
        <time>2024-08-12T14:09:13Z</time>
      </trkpt>
      <trkpt lat="44.79629" lon="6.28735">
        <ele>2324.2</ele>
        <time>2024-08-12T14:09:14Z</time>
      </trkpt>
      <trkpt lat="44.79631" lon="6.28738">
        <ele>2323.8</ele>
        <time>2024-08-12T14:09:15Z</time>
      </trkpt>
      <trkpt lat="44.79631" lon="6.28738">
        <ele>2323.6</ele>
        <time>2024-08-12T14:09:16Z</time>
      </trkpt>
      <trkpt lat="44.79633" lon="6.28741">
        <ele>2323.4</ele>
        <time>2024-08-12T14:09:17Z</time>
      </trkpt>
      <trkpt lat="44.79633" lon="6.28741">
        <ele>2323.2</ele>
        <time>2024-08-12T14:09:18Z</time>
      </trkpt>
      <trkpt lat="44.79635" lon="6.28743">
        <ele>2322.6</ele>
        <time>2024-08-12T14:09:19Z</time>
      </trkpt>
      <trkpt lat="44.79635" lon="6.28743">
        <ele>2322.2</ele>
        <time>2024-08-12T14:09:20Z</time>
      </trkpt>
      <trkpt lat="44.79637" lon="6.28746">
        <ele>2321.8</ele>
        <time>2024-08-12T14:09:21Z</time>
      </trkpt>
      <trkpt lat="44.79637" lon="6.28746">
        <ele>2321.6</ele>
        <time>2024-08-12T14:09:22Z</time>
      </trkpt>
      <trkpt lat="44.79637" lon="6.28748">
        <ele>2321.4</ele>
        <time>2024-08-12T14:09:23Z</time>
      </trkpt>
      <trkpt lat="44.79637" lon="6.28748">
        <ele>2321.2</ele>
        <time>2024-08-12T14:09:24Z</time>
      </trkpt>
      <trkpt lat="44.79639" lon="6.2875">
        <ele>2320.8</ele>
        <time>2024-08-12T14:09:25Z</time>
      </trkpt>
      <trkpt lat="44.79639" lon="6.2875">
        <ele>2320.6</ele>
        <time>2024-08-12T14:09:26Z</time>
      </trkpt>
      <trkpt lat="44.79641" lon="6.28753">
        <ele>2320.4</ele>
        <time>2024-08-12T14:09:27Z</time>
      </trkpt>
      <trkpt lat="44.79641" lon="6.28753">
        <ele>2320.4</ele>
        <time>2024-08-12T14:09:28Z</time>
      </trkpt>
      <trkpt lat="44.79643" lon="6.28756">
        <ele>2320.2</ele>
        <time>2024-08-12T14:09:29Z</time>
      </trkpt>
      <trkpt lat="44.79643" lon="6.28756">
        <ele>2319.8</ele>
        <time>2024-08-12T14:09:30Z</time>
      </trkpt>
      <trkpt lat="44.79644" lon="6.28759">
        <ele>2319.2</ele>
        <time>2024-08-12T14:09:31Z</time>
      </trkpt>
      <trkpt lat="44.79644" lon="6.28759">
        <ele>2318.8</ele>
        <time>2024-08-12T14:09:32Z</time>
      </trkpt>
      <trkpt lat="44.79644" lon="6.28759">
        <ele>2318.6</ele>
        <time>2024-08-12T14:09:33Z</time>
      </trkpt>
      <trkpt lat="44.79646" lon="6.28762">
        <ele>2318.4</ele>
        <time>2024-08-12T14:09:34Z</time>
      </trkpt>
      <trkpt lat="44.79646" lon="6.28762">
        <ele>2318.2</ele>
        <time>2024-08-12T14:09:35Z</time>
      </trkpt>
      <trkpt lat="44.79648" lon="6.28764">
        <ele>2317.8</ele>
        <time>2024-08-12T14:09:36Z</time>
      </trkpt>
      <trkpt lat="44.79649" lon="6.28766">
        <ele>2317.4</ele>
        <time>2024-08-12T14:09:37Z</time>
      </trkpt>
      <trkpt lat="44.79649" lon="6.28766">
        <ele>2317</ele>
        <time>2024-08-12T14:09:38Z</time>
      </trkpt>
      <trkpt lat="44.79651" lon="6.28768">
        <ele>2316.8</ele>
        <time>2024-08-12T14:09:39Z</time>
      </trkpt>
      <trkpt lat="44.79651" lon="6.28768">
        <ele>2316.6</ele>
        <time>2024-08-12T14:09:40Z</time>
      </trkpt>
      <trkpt lat="44.79653" lon="6.2877">
        <ele>2316.2</ele>
        <time>2024-08-12T14:09:41Z</time>
      </trkpt>
      <trkpt lat="44.79653" lon="6.2877">
        <ele>2315.8</ele>
        <time>2024-08-12T14:09:42Z</time>
      </trkpt>
      <trkpt lat="44.79655" lon="6.28772">
        <ele>2315.8</ele>
        <time>2024-08-12T14:09:43Z</time>
      </trkpt>
      <trkpt lat="44.79655" lon="6.28772">
        <ele>2315.6</ele>
        <time>2024-08-12T14:09:44Z</time>
      </trkpt>
      <trkpt lat="44.79657" lon="6.28774">
        <ele>2315</ele>
        <time>2024-08-12T14:09:45Z</time>
      </trkpt>
      <trkpt lat="44.79657" lon="6.28774">
        <ele>2314.8</ele>
        <time>2024-08-12T14:09:46Z</time>
      </trkpt>
      <trkpt lat="44.79657" lon="6.28774">
        <ele>2314.6</ele>
        <time>2024-08-12T14:09:47Z</time>
      </trkpt>
      <trkpt lat="44.79659" lon="6.28775">
        <ele>2314.2</ele>
        <time>2024-08-12T14:09:48Z</time>
      </trkpt>
      <trkpt lat="44.79659" lon="6.28775">
        <ele>2314.2</ele>
        <time>2024-08-12T14:09:49Z</time>
      </trkpt>
      <trkpt lat="44.79661" lon="6.28775">
        <ele>2314</ele>
        <time>2024-08-12T14:09:50Z</time>
      </trkpt>
      <trkpt lat="44.79661" lon="6.28775">
        <ele>2313.8</ele>
        <time>2024-08-12T14:09:51Z</time>
      </trkpt>
      <trkpt lat="44.79664" lon="6.28777">
        <ele>2313.8</ele>
        <time>2024-08-12T14:09:52Z</time>
      </trkpt>
      <trkpt lat="44.79664" lon="6.28777">
        <ele>2313.8</ele>
        <time>2024-08-12T14:09:53Z</time>
      </trkpt>
      <trkpt lat="44.79667" lon="6.28777">
        <ele>2313.8</ele>
        <time>2024-08-12T14:09:54Z</time>
      </trkpt>
      <trkpt lat="44.79667" lon="6.28777">
        <ele>2313.4</ele>
        <time>2024-08-12T14:09:55Z</time>
      </trkpt>
      <trkpt lat="44.79669" lon="6.28779">
        <ele>2313.2</ele>
        <time>2024-08-12T14:09:56Z</time>
      </trkpt>
      <trkpt lat="44.79669" lon="6.28779">
        <ele>2312.8</ele>
        <time>2024-08-12T14:09:57Z</time>
      </trkpt>
      <trkpt lat="44.79671" lon="6.28782">
        <ele>2312.4</ele>
        <time>2024-08-12T14:09:58Z</time>
      </trkpt>
      <trkpt lat="44.79671" lon="6.28782">
        <ele>2312</ele>
        <time>2024-08-12T14:09:59Z</time>
      </trkpt>
      <trkpt lat="44.79673" lon="6.28784">
        <ele>2311.2</ele>
        <time>2024-08-12T14:10:00Z</time>
      </trkpt>
      <trkpt lat="44.79673" lon="6.28784">
        <ele>2310.6</ele>
        <time>2024-08-12T14:10:01Z</time>
      </trkpt>
      <trkpt lat="44.79675" lon="6.28786">
        <ele>2310.4</ele>
        <time>2024-08-12T14:10:02Z</time>
      </trkpt>
      <trkpt lat="44.79675" lon="6.28786">
        <ele>2310.2</ele>
        <time>2024-08-12T14:10:03Z</time>
      </trkpt>
      <trkpt lat="44.79677" lon="6.28787">
        <ele>2310.2</ele>
        <time>2024-08-12T14:10:04Z</time>
      </trkpt>
      <trkpt lat="44.79677" lon="6.28787">
        <ele>2310</ele>
        <time>2024-08-12T14:10:05Z</time>
      </trkpt>
      <trkpt lat="44.7968" lon="6.28788">
        <ele>2309.6</ele>
        <time>2024-08-12T14:10:06Z</time>
      </trkpt>
      <trkpt lat="44.7968" lon="6.28788">
        <ele>2309.2</ele>
        <time>2024-08-12T14:10:07Z</time>
      </trkpt>
      <trkpt lat="44.79683" lon="6.28791">
        <ele>2308.8</ele>
        <time>2024-08-12T14:10:08Z</time>
      </trkpt>
      <trkpt lat="44.79683" lon="6.28791">
        <ele>2308.4</ele>
        <time>2024-08-12T14:10:09Z</time>
      </trkpt>
      <trkpt lat="44.79685" lon="6.28791">
        <ele>2308</ele>
        <time>2024-08-12T14:10:10Z</time>
      </trkpt>
      <trkpt lat="44.79685" lon="6.28791">
        <ele>2307.4</ele>
        <time>2024-08-12T14:10:11Z</time>
      </trkpt>
      <trkpt lat="44.79687" lon="6.28793">
        <ele>2307.4</ele>
        <time>2024-08-12T14:10:12Z</time>
      </trkpt>
      <trkpt lat="44.79687" lon="6.28793">
        <ele>2307</ele>
        <time>2024-08-12T14:10:13Z</time>
      </trkpt>
      <trkpt lat="44.79689" lon="6.28795">
        <ele>2306.8</ele>
        <time>2024-08-12T14:10:14Z</time>
      </trkpt>
      <trkpt lat="44.79689" lon="6.28795">
        <ele>2306.6</ele>
        <time>2024-08-12T14:10:15Z</time>
      </trkpt>
      <trkpt lat="44.79691" lon="6.28795">
        <ele>2306</ele>
        <time>2024-08-12T14:10:16Z</time>
      </trkpt>
      <trkpt lat="44.79691" lon="6.28795">
        <ele>2306</ele>
        <time>2024-08-12T14:10:17Z</time>
      </trkpt>
      <trkpt lat="44.79694" lon="6.28796">
        <ele>2305.8</ele>
        <time>2024-08-12T14:10:18Z</time>
      </trkpt>
      <trkpt lat="44.79694" lon="6.28796">
        <ele>2305.6</ele>
        <time>2024-08-12T14:10:19Z</time>
      </trkpt>
      <trkpt lat="44.79695" lon="6.28798">
        <ele>2305.6</ele>
        <time>2024-08-12T14:10:20Z</time>
      </trkpt>
      <trkpt lat="44.79695" lon="6.28798">
        <ele>2305.4</ele>
        <time>2024-08-12T14:10:21Z</time>
      </trkpt>
      <trkpt lat="44.79698" lon="6.288">
        <ele>2305</ele>
        <time>2024-08-12T14:10:22Z</time>
      </trkpt>
      <trkpt lat="44.79698" lon="6.288">
        <ele>2304.8</ele>
        <time>2024-08-12T14:10:23Z</time>
      </trkpt>
      <trkpt lat="44.797" lon="6.28802">
        <ele>2304.6</ele>
        <time>2024-08-12T14:10:24Z</time>
      </trkpt>
      <trkpt lat="44.797" lon="6.28802">
        <ele>2304.6</ele>
        <time>2024-08-12T14:10:25Z</time>
      </trkpt>
      <trkpt lat="44.79702" lon="6.28803">
        <ele>2303.8</ele>
        <time>2024-08-12T14:10:26Z</time>
      </trkpt>
      <trkpt lat="44.79702" lon="6.28803">
        <ele>2303.4</ele>
        <time>2024-08-12T14:10:27Z</time>
      </trkpt>
      <trkpt lat="44.79705" lon="6.28805">
        <ele>2302.6</ele>
        <time>2024-08-12T14:10:28Z</time>
      </trkpt>
      <trkpt lat="44.79705" lon="6.28805">
        <ele>2302.2</ele>
        <time>2024-08-12T14:10:29Z</time>
      </trkpt>
      <trkpt lat="44.79707" lon="6.28808">
        <ele>2301.8</ele>
        <time>2024-08-12T14:10:30Z</time>
      </trkpt>
      <trkpt lat="44.79707" lon="6.28808">
        <ele>2301.4</ele>
        <time>2024-08-12T14:10:31Z</time>
      </trkpt>
      <trkpt lat="44.79709" lon="6.2881">
        <ele>2301.4</ele>
        <time>2024-08-12T14:10:32Z</time>
      </trkpt>
      <trkpt lat="44.79709" lon="6.2881">
        <ele>2301.2</ele>
        <time>2024-08-12T14:10:33Z</time>
      </trkpt>
      <trkpt lat="44.79712" lon="6.28812">
        <ele>2301.2</ele>
        <time>2024-08-12T14:10:34Z</time>
      </trkpt>
      <trkpt lat="44.79712" lon="6.28812">
        <ele>2301.2</ele>
        <time>2024-08-12T14:10:35Z</time>
      </trkpt>
      <trkpt lat="44.79714" lon="6.28814">
        <ele>2301.2</ele>
        <time>2024-08-12T14:10:36Z</time>
      </trkpt>
      <trkpt lat="44.79714" lon="6.28814">
        <ele>2301</ele>
        <time>2024-08-12T14:10:37Z</time>
      </trkpt>
      <trkpt lat="44.79717" lon="6.28816">
        <ele>2300.8</ele>
        <time>2024-08-12T14:10:38Z</time>
      </trkpt>
      <trkpt lat="44.79717" lon="6.28816">
        <ele>2300.8</ele>
        <time>2024-08-12T14:10:39Z</time>
      </trkpt>
      <trkpt lat="44.79719" lon="6.28817">
        <ele>2300.8</ele>
        <time>2024-08-12T14:10:40Z</time>
      </trkpt>
      <trkpt lat="44.79719" lon="6.28817">
        <ele>2300.8</ele>
        <time>2024-08-12T14:10:41Z</time>
      </trkpt>
      <trkpt lat="44.79722" lon="6.28818">
        <ele>2300.4</ele>
        <time>2024-08-12T14:10:42Z</time>
      </trkpt>
      <trkpt lat="44.79722" lon="6.28818">
        <ele>2300.4</ele>
        <time>2024-08-12T14:10:43Z</time>
      </trkpt>
      <trkpt lat="44.79725" lon="6.2882">
        <ele>2300</ele>
        <time>2024-08-12T14:10:44Z</time>
      </trkpt>
      <trkpt lat="44.79725" lon="6.2882">
        <ele>2299.6</ele>
        <time>2024-08-12T14:10:45Z</time>
      </trkpt>
      <trkpt lat="44.79727" lon="6.28821">
        <ele>2299.2</ele>
        <time>2024-08-12T14:10:46Z</time>
      </trkpt>
      <trkpt lat="44.79727" lon="6.28821">
        <ele>2299</ele>
        <time>2024-08-12T14:10:47Z</time>
      </trkpt>
      <trkpt lat="44.7973" lon="6.28821">
        <ele>2298.8</ele>
        <time>2024-08-12T14:10:48Z</time>
      </trkpt>
      <trkpt lat="44.7973" lon="6.28821">
        <ele>2298.8</ele>
        <time>2024-08-12T14:10:49Z</time>
      </trkpt>
      <trkpt lat="44.79733" lon="6.28822">
        <ele>2298.6</ele>
        <time>2024-08-12T14:10:50Z</time>
      </trkpt>
      <trkpt lat="44.79733" lon="6.28822">
        <ele>2298.6</ele>
        <time>2024-08-12T14:10:51Z</time>
      </trkpt>
      <trkpt lat="44.79735" lon="6.28823">
        <ele>2298.6</ele>
        <time>2024-08-12T14:10:52Z</time>
      </trkpt>
      <trkpt lat="44.79735" lon="6.28823">
        <ele>2298.6</ele>
        <time>2024-08-12T14:10:53Z</time>
      </trkpt>
      <trkpt lat="44.79738" lon="6.28825">
        <ele>2298.4</ele>
        <time>2024-08-12T14:10:54Z</time>
      </trkpt>
      <trkpt lat="44.79738" lon="6.28825">
        <ele>2298.4</ele>
        <time>2024-08-12T14:10:55Z</time>
      </trkpt>
      <trkpt lat="44.79741" lon="6.28826">
        <ele>2298.4</ele>
        <time>2024-08-12T14:10:56Z</time>
      </trkpt>
      <trkpt lat="44.79741" lon="6.28826">
        <ele>2298.2</ele>
        <time>2024-08-12T14:10:57Z</time>
      </trkpt>
      <trkpt lat="44.79743" lon="6.28827">
        <ele>2298</ele>
        <time>2024-08-12T14:10:58Z</time>
      </trkpt>
      <trkpt lat="44.79743" lon="6.28827">
        <ele>2297.8</ele>
        <time>2024-08-12T14:10:59Z</time>
      </trkpt>
      <trkpt lat="44.79746" lon="6.28828">
        <ele>2297.8</ele>
        <time>2024-08-12T14:11:00Z</time>
      </trkpt>
      <trkpt lat="44.79746" lon="6.28828">
        <ele>2297.8</ele>
        <time>2024-08-12T14:11:01Z</time>
      </trkpt>
      <trkpt lat="44.79749" lon="6.28829">
        <ele>2297.8</ele>
        <time>2024-08-12T14:11:02Z</time>
      </trkpt>
      <trkpt lat="44.79749" lon="6.28829">
        <ele>2297.8</ele>
        <time>2024-08-12T14:11:03Z</time>
      </trkpt>
      <trkpt lat="44.79752" lon="6.28831">
        <ele>2297.8</ele>
        <time>2024-08-12T14:11:04Z</time>
      </trkpt>
      <trkpt lat="44.79752" lon="6.28831">
        <ele>2297.8</ele>
        <time>2024-08-12T14:11:05Z</time>
      </trkpt>
      <trkpt lat="44.79754" lon="6.28833">
        <ele>2297.8</ele>
        <time>2024-08-12T14:11:06Z</time>
      </trkpt>
      <trkpt lat="44.79754" lon="6.28833">
        <ele>2297.8</ele>
        <time>2024-08-12T14:11:07Z</time>
      </trkpt>
      <trkpt lat="44.79757" lon="6.28835">
        <ele>2297.8</ele>
        <time>2024-08-12T14:11:08Z</time>
      </trkpt>
      <trkpt lat="44.79757" lon="6.28835">
        <ele>2297.8</ele>
        <time>2024-08-12T14:11:09Z</time>
      </trkpt>
      <trkpt lat="44.7976" lon="6.28837">
        <ele>2297.8</ele>
        <time>2024-08-12T14:11:10Z</time>
      </trkpt>
      <trkpt lat="44.7976" lon="6.28837">
        <ele>2297.8</ele>
        <time>2024-08-12T14:11:11Z</time>
      </trkpt>
      <trkpt lat="44.79762" lon="6.28838">
        <ele>2298</ele>
        <time>2024-08-12T14:11:12Z</time>
      </trkpt>
      <trkpt lat="44.79762" lon="6.28838">
        <ele>2298</ele>
        <time>2024-08-12T14:11:13Z</time>
      </trkpt>
      <trkpt lat="44.79765" lon="6.28839">
        <ele>2298.2</ele>
        <time>2024-08-12T14:11:14Z</time>
      </trkpt>
      <trkpt lat="44.79765" lon="6.28839">
        <ele>2298.2</ele>
        <time>2024-08-12T14:11:15Z</time>
      </trkpt>
      <trkpt lat="44.79768" lon="6.28841">
        <ele>2298</ele>
        <time>2024-08-12T14:11:16Z</time>
      </trkpt>
      <trkpt lat="44.79768" lon="6.28841">
        <ele>2297.8</ele>
        <time>2024-08-12T14:11:17Z</time>
      </trkpt>
      <trkpt lat="44.7977" lon="6.28843">
        <ele>2297.8</ele>
        <time>2024-08-12T14:11:18Z</time>
      </trkpt>
      <trkpt lat="44.7977" lon="6.28843">
        <ele>2298</ele>
        <time>2024-08-12T14:11:19Z</time>
      </trkpt>
      <trkpt lat="44.79772" lon="6.28845">
        <ele>2298</ele>
        <time>2024-08-12T14:11:20Z</time>
      </trkpt>
      <trkpt lat="44.79772" lon="6.28845">
        <ele>2298</ele>
        <time>2024-08-12T14:11:21Z</time>
      </trkpt>
      <trkpt lat="44.79775" lon="6.28847">
        <ele>2298</ele>
        <time>2024-08-12T14:11:22Z</time>
      </trkpt>
      <trkpt lat="44.79775" lon="6.28847">
        <ele>2298</ele>
        <time>2024-08-12T14:11:23Z</time>
      </trkpt>
      <trkpt lat="44.79778" lon="6.28849">
        <ele>2298</ele>
        <time>2024-08-12T14:11:24Z</time>
      </trkpt>
      <trkpt lat="44.79778" lon="6.28849">
        <ele>2298</ele>
        <time>2024-08-12T14:11:25Z</time>
      </trkpt>
      <trkpt lat="44.7978" lon="6.28851">
        <ele>2298</ele>
        <time>2024-08-12T14:11:26Z</time>
      </trkpt>
      <trkpt lat="44.7978" lon="6.28851">
        <ele>2298</ele>
        <time>2024-08-12T14:11:27Z</time>
      </trkpt>
      <trkpt lat="44.79782" lon="6.28852">
        <ele>2297.6</ele>
        <time>2024-08-12T14:11:28Z</time>
      </trkpt>
      <trkpt lat="44.79782" lon="6.28852">
        <ele>2297.4</ele>
        <time>2024-08-12T14:11:29Z</time>
      </trkpt>
      <trkpt lat="44.79785" lon="6.28854">
        <ele>2297.2</ele>
        <time>2024-08-12T14:11:30Z</time>
      </trkpt>
      <trkpt lat="44.79785" lon="6.28854">
        <ele>2297.2</ele>
        <time>2024-08-12T14:11:31Z</time>
      </trkpt>
      <trkpt lat="44.79788" lon="6.28856">
        <ele>2297.2</ele>
        <time>2024-08-12T14:11:32Z</time>
      </trkpt>
      <trkpt lat="44.79788" lon="6.28856">
        <ele>2297.4</ele>
        <time>2024-08-12T14:11:33Z</time>
      </trkpt>
      <trkpt lat="44.7979" lon="6.28858">
        <ele>2297.4</ele>
        <time>2024-08-12T14:11:34Z</time>
      </trkpt>
      <trkpt lat="44.7979" lon="6.28858">
        <ele>2297.4</ele>
        <time>2024-08-12T14:11:35Z</time>
      </trkpt>
      <trkpt lat="44.79793" lon="6.28859">
        <ele>2297.2</ele>
        <time>2024-08-12T14:11:36Z</time>
      </trkpt>
      <trkpt lat="44.79793" lon="6.28859">
        <ele>2297.2</ele>
        <time>2024-08-12T14:11:37Z</time>
      </trkpt>
      <trkpt lat="44.79795" lon="6.28861">
        <ele>2297.2</ele>
        <time>2024-08-12T14:11:38Z</time>
      </trkpt>
      <trkpt lat="44.79795" lon="6.28861">
        <ele>2297.2</ele>
        <time>2024-08-12T14:11:39Z</time>
      </trkpt>
      <trkpt lat="44.79798" lon="6.28863">
        <ele>2297</ele>
        <time>2024-08-12T14:11:40Z</time>
      </trkpt>
      <trkpt lat="44.79798" lon="6.28863">
        <ele>2297</ele>
        <time>2024-08-12T14:11:41Z</time>
      </trkpt>
      <trkpt lat="44.798" lon="6.28865">
        <ele>2297</ele>
        <time>2024-08-12T14:11:42Z</time>
      </trkpt>
      <trkpt lat="44.798" lon="6.28865">
        <ele>2297</ele>
        <time>2024-08-12T14:11:43Z</time>
      </trkpt>
      <trkpt lat="44.79803" lon="6.28866">
        <ele>2297</ele>
        <time>2024-08-12T14:11:44Z</time>
      </trkpt>
      <trkpt lat="44.79803" lon="6.28866">
        <ele>2297</ele>
        <time>2024-08-12T14:11:45Z</time>
      </trkpt>
      <trkpt lat="44.79805" lon="6.28868">
        <ele>2297</ele>
        <time>2024-08-12T14:11:46Z</time>
      </trkpt>
      <trkpt lat="44.79805" lon="6.28868">
        <ele>2297</ele>
        <time>2024-08-12T14:11:47Z</time>
      </trkpt>
      <trkpt lat="44.79808" lon="6.2887">
        <ele>2297</ele>
        <time>2024-08-12T14:11:48Z</time>
      </trkpt>
      <trkpt lat="44.79808" lon="6.2887">
        <ele>2297</ele>
        <time>2024-08-12T14:11:49Z</time>
      </trkpt>
      <trkpt lat="44.79811" lon="6.28871">
        <ele>2297</ele>
        <time>2024-08-12T14:11:50Z</time>
      </trkpt>
      <trkpt lat="44.79811" lon="6.28871">
        <ele>2297</ele>
        <time>2024-08-12T14:11:51Z</time>
      </trkpt>
      <trkpt lat="44.79813" lon="6.28874">
        <ele>2296.8</ele>
        <time>2024-08-12T14:11:52Z</time>
      </trkpt>
      <trkpt lat="44.79813" lon="6.28874">
        <ele>2296.8</ele>
        <time>2024-08-12T14:11:53Z</time>
      </trkpt>
      <trkpt lat="44.79813" lon="6.28877">
        <ele>2296.8</ele>
        <time>2024-08-12T14:11:54Z</time>
      </trkpt>
      <trkpt lat="44.79813" lon="6.28877">
        <ele>2296.8</ele>
        <time>2024-08-12T14:11:55Z</time>
      </trkpt>
      <trkpt lat="44.79814" lon="6.2888">
        <ele>2296.8</ele>
        <time>2024-08-12T14:11:56Z</time>
      </trkpt>
      <trkpt lat="44.79814" lon="6.2888">
        <ele>2297</ele>
        <time>2024-08-12T14:11:57Z</time>
      </trkpt>
      <trkpt lat="44.79815" lon="6.28882">
        <ele>2297.2</ele>
        <time>2024-08-12T14:11:58Z</time>
      </trkpt>
      <trkpt lat="44.79815" lon="6.28882">
        <ele>2297.4</ele>
        <time>2024-08-12T14:11:59Z</time>
      </trkpt>
      <trkpt lat="44.79816" lon="6.28885">
        <ele>2297.4</ele>
        <time>2024-08-12T14:12:00Z</time>
      </trkpt>
      <trkpt lat="44.79816" lon="6.28885">
        <ele>2297.4</ele>
        <time>2024-08-12T14:12:01Z</time>
      </trkpt>
      <trkpt lat="44.79816" lon="6.28885">
        <ele>2297.6</ele>
        <time>2024-08-12T14:12:02Z</time>
      </trkpt>
      <trkpt lat="44.79818" lon="6.28887">
        <ele>2297.6</ele>
        <time>2024-08-12T14:12:03Z</time>
      </trkpt>
      <trkpt lat="44.79818" lon="6.28887">
        <ele>2297.6</ele>
        <time>2024-08-12T14:12:04Z</time>
      </trkpt>
      <trkpt lat="44.7982" lon="6.28887">
        <ele>2297.4</ele>
        <time>2024-08-12T14:12:05Z</time>
      </trkpt>
      <trkpt lat="44.7982" lon="6.28887">
        <ele>2297.4</ele>
        <time>2024-08-12T14:12:06Z</time>
      </trkpt>
      <trkpt lat="44.79822" lon="6.28888">
        <ele>2297.4</ele>
        <time>2024-08-12T14:12:07Z</time>
      </trkpt>
      <trkpt lat="44.79822" lon="6.28888">
        <ele>2297.4</ele>
        <time>2024-08-12T14:12:08Z</time>
      </trkpt>
      <trkpt lat="44.79822" lon="6.28888">
        <ele>2297.2</ele>
        <time>2024-08-12T14:12:09Z</time>
      </trkpt>
      <trkpt lat="44.79823" lon="6.28891">
        <ele>2296.6</ele>
        <time>2024-08-12T14:12:10Z</time>
      </trkpt>
      <trkpt lat="44.79823" lon="6.28891">
        <ele>2296.2</ele>
        <time>2024-08-12T14:12:11Z</time>
      </trkpt>
      <trkpt lat="44.79823" lon="6.28894">
        <ele>2296</ele>
        <time>2024-08-12T14:12:12Z</time>
      </trkpt>
      <trkpt lat="44.79823" lon="6.28894">
        <ele>2295.8</ele>
        <time>2024-08-12T14:12:13Z</time>
      </trkpt>
      <trkpt lat="44.79823" lon="6.28894">
        <ele>2295.6</ele>
        <time>2024-08-12T14:12:14Z</time>
      </trkpt>
      <trkpt lat="44.79824" lon="6.28898">
        <ele>2295.2</ele>
        <time>2024-08-12T14:12:15Z</time>
      </trkpt>
      <trkpt lat="44.79824" lon="6.28898">
        <ele>2295</ele>
        <time>2024-08-12T14:12:16Z</time>
      </trkpt>
      <trkpt lat="44.79824" lon="6.28898">
        <ele>2294.8</ele>
        <time>2024-08-12T14:12:17Z</time>
      </trkpt>
      <trkpt lat="44.79824" lon="6.28901">
        <ele>2294.8</ele>
        <time>2024-08-12T14:12:18Z</time>
      </trkpt>
      <trkpt lat="44.79824" lon="6.28901">
        <ele>2294.2</ele>
        <time>2024-08-12T14:12:19Z</time>
      </trkpt>
      <trkpt lat="44.79824" lon="6.28901">
        <ele>2294</ele>
        <time>2024-08-12T14:12:20Z</time>
      </trkpt>
      <trkpt lat="44.79826" lon="6.28903">
        <ele>2293.8</ele>
        <time>2024-08-12T14:12:21Z</time>
      </trkpt>
      <trkpt lat="44.79826" lon="6.28903">
        <ele>2293.6</ele>
        <time>2024-08-12T14:12:22Z</time>
      </trkpt>
      <trkpt lat="44.79828" lon="6.28903">
        <ele>2293.4</ele>
        <time>2024-08-12T14:12:23Z</time>
      </trkpt>
      <trkpt lat="44.79828" lon="6.28903">
        <ele>2293.2</ele>
        <time>2024-08-12T14:12:24Z</time>
      </trkpt>
      <trkpt lat="44.79828" lon="6.28903">
        <ele>2293</ele>
        <time>2024-08-12T14:12:25Z</time>
      </trkpt>
      <trkpt lat="44.79829" lon="6.28905">
        <ele>2293</ele>
        <time>2024-08-12T14:12:26Z</time>
      </trkpt>
      <trkpt lat="44.79829" lon="6.28905">
        <ele>2292.8</ele>
        <time>2024-08-12T14:12:27Z</time>
      </trkpt>
      <trkpt lat="44.79831" lon="6.28904">
        <ele>2292.6</ele>
        <time>2024-08-12T14:12:28Z</time>
      </trkpt>
      <trkpt lat="44.79831" lon="6.28904">
        <ele>2292.8</ele>
        <time>2024-08-12T14:12:29Z</time>
      </trkpt>
      <trkpt lat="44.79831" lon="6.28904">
        <ele>2292.8</ele>
        <time>2024-08-12T14:12:30Z</time>
      </trkpt>
      <trkpt lat="44.79831" lon="6.28904">
        <ele>2292.6</ele>
        <time>2024-08-12T14:12:31Z</time>
      </trkpt>
      <trkpt lat="44.79833" lon="6.28905">
        <ele>2292.4</ele>
        <time>2024-08-12T14:12:32Z</time>
      </trkpt>
      <trkpt lat="44.79833" lon="6.28905">
        <ele>2292.4</ele>
        <time>2024-08-12T14:12:33Z</time>
      </trkpt>
      <trkpt lat="44.79833" lon="6.28905">
        <ele>2292</ele>
        <time>2024-08-12T14:12:34Z</time>
      </trkpt>
      <trkpt lat="44.79834" lon="6.28908">
        <ele>2291.8</ele>
        <time>2024-08-12T14:12:35Z</time>
      </trkpt>
      <trkpt lat="44.79834" lon="6.28908">
        <ele>2291.6</ele>
        <time>2024-08-12T14:12:36Z</time>
      </trkpt>
      <trkpt lat="44.79836" lon="6.28909">
        <ele>2291.2</ele>
        <time>2024-08-12T14:12:37Z</time>
      </trkpt>
      <trkpt lat="44.79836" lon="6.28909">
        <ele>2291.2</ele>
        <time>2024-08-12T14:12:38Z</time>
      </trkpt>
      <trkpt lat="44.79837" lon="6.28912">
        <ele>2290.8</ele>
        <time>2024-08-12T14:12:39Z</time>
      </trkpt>
      <trkpt lat="44.79837" lon="6.28912">
        <ele>2290.2</ele>
        <time>2024-08-12T14:12:40Z</time>
      </trkpt>
    </trkseg>
      <trkpt lat="44.79853" lon="6.28939">
        <ele>2270</ele>
        <time>2024-08-13T05:03:28Z</time>
      </trkpt>
      <trkpt lat="44.79853" lon="6.28939">
        <ele>2270</ele>
        <time>2024-08-13T05:03:29Z</time>
      </trkpt>
      <trkpt lat="44.79853" lon="6.28939">
        <ele>2270</ele>
        <time>2024-08-13T05:03:30Z</time>
      </trkpt>
      <trkpt lat="44.79853" lon="6.28939">
        <ele>2270</ele>
        <time>2024-08-13T05:03:31Z</time>
      </trkpt>
      <trkpt lat="44.79853" lon="6.28939">
        <ele>2270</ele>
        <time>2024-08-13T05:03:32Z</time>
      </trkpt>
      <trkpt lat="44.79853" lon="6.28939">
        <ele>2270</ele>
        <time>2024-08-13T05:03:33Z</time>
      </trkpt>
      <trkpt lat="44.79853" lon="6.28939">
        <ele>2270</ele>
        <time>2024-08-13T05:03:34Z</time>
      </trkpt>
      <trkpt lat="44.79853" lon="6.28939">
        <ele>2270</ele>
        <time>2024-08-13T05:03:35Z</time>
      </trkpt>
      <trkpt lat="44.79853" lon="6.28939">
        <ele>2270</ele>
        <time>2024-08-13T05:03:36Z</time>
      </trkpt>
      <trkpt lat="44.79853" lon="6.28939">
        <ele>2270</ele>
        <time>2024-08-13T05:03:37Z</time>
      </trkpt>
      <trkpt lat="44.79853" lon="6.28939">
        <ele>2270</ele>
        <time>2024-08-13T05:03:38Z</time>
      </trkpt>
      <trkpt lat="44.79853" lon="6.28939">
        <ele>2270</ele>
        <time>2024-08-13T05:03:40Z</time>
      </trkpt>
      <trkpt lat="44.79853" lon="6.28939">
        <ele>2270</ele>
        <time>2024-08-13T05:03:41Z</time>
      </trkpt>
      <trkpt lat="44.79853" lon="6.28939">
        <ele>2270</ele>
        <time>2024-08-13T05:03:42Z</time>
      </trkpt>
      <trkpt lat="44.79853" lon="6.28939">
        <ele>2270</ele>
        <time>2024-08-13T05:03:43Z</time>
      </trkpt>
      <trkpt lat="44.79853" lon="6.28939">
        <ele>2270</ele>
        <time>2024-08-13T05:03:44Z</time>
      </trkpt>
      <trkpt lat="44.79853" lon="6.28939">
        <ele>2270</ele>
        <time>2024-08-13T05:03:45Z</time>
      </trkpt>
      <trkpt lat="44.79853" lon="6.28939">
        <ele>2270</ele>
        <time>2024-08-13T05:03:46Z</time>
      </trkpt>
      <trkpt lat="44.79853" lon="6.28939">
        <ele>2269.8</ele>
        <time>2024-08-13T05:03:47Z</time>
      </trkpt>
      <trkpt lat="44.79853" lon="6.28939">
        <ele>2269.8</ele>
        <time>2024-08-13T05:03:48Z</time>
      </trkpt>
      <trkpt lat="44.79852" lon="6.28941">
        <ele>2269.6</ele>
        <time>2024-08-13T05:03:49Z</time>
      </trkpt>
      <trkpt lat="44.79852" lon="6.28941">
        <ele>2269.6</ele>
        <time>2024-08-13T05:03:50Z</time>
      </trkpt>
      <trkpt lat="44.79852" lon="6.28941">
        <ele>2269.4</ele>
        <time>2024-08-13T05:03:51Z</time>
      </trkpt>
      <trkpt lat="44.79852" lon="6.28941">
        <ele>2269.2</ele>
        <time>2024-08-13T05:03:52Z</time>
      </trkpt>
      <trkpt lat="44.7985" lon="6.28943">
        <ele>2269</ele>
        <time>2024-08-13T05:03:53Z</time>
      </trkpt>
      <trkpt lat="44.7985" lon="6.28943">
        <ele>2268.6</ele>
        <time>2024-08-13T05:03:54Z</time>
      </trkpt>
      <trkpt lat="44.7985" lon="6.28943">
        <ele>2268.6</ele>
        <time>2024-08-13T05:03:55Z</time>
      </trkpt>
      <trkpt lat="44.7985" lon="6.28943">
        <ele>2268.2</ele>
        <time>2024-08-13T05:03:56Z</time>
      </trkpt>
      <trkpt lat="44.7985" lon="6.28943">
        <ele>2268.2</ele>
        <time>2024-08-13T05:03:57Z</time>
      </trkpt>
      <trkpt lat="44.7985" lon="6.28942">
        <ele>2268.2</ele>
        <time>2024-08-13T05:03:58Z</time>
      </trkpt>
      <trkpt lat="44.7985" lon="6.28942">
        <ele>2268.2</ele>
        <time>2024-08-13T05:03:59Z</time>
      </trkpt>
      <trkpt lat="44.7985" lon="6.28942">
        <ele>2268.2</ele>
        <time>2024-08-13T05:04:00Z</time>
      </trkpt>
      <trkpt lat="44.7985" lon="6.28942">
        <ele>2268.2</ele>
        <time>2024-08-13T05:04:01Z</time>
      </trkpt>
      <trkpt lat="44.79849" lon="6.28942">
        <ele>2268.2</ele>
        <time>2024-08-13T05:04:02Z</time>
      </trkpt>
      <trkpt lat="44.79849" lon="6.28942">
        <ele>2268.2</ele>
        <time>2024-08-13T05:04:03Z</time>
      </trkpt>
      <trkpt lat="44.79849" lon="6.28942">
        <ele>2268.2</ele>
        <time>2024-08-13T05:04:04Z</time>
      </trkpt>
      <trkpt lat="44.79849" lon="6.28942">
        <ele>2268</ele>
        <time>2024-08-13T05:04:05Z</time>
      </trkpt>
      <trkpt lat="44.79849" lon="6.28942">
        <ele>2268</ele>
        <time>2024-08-13T05:04:06Z</time>
      </trkpt>
      <trkpt lat="44.79849" lon="6.28942">
        <ele>2268</ele>
        <time>2024-08-13T05:04:07Z</time>
      </trkpt>
      <trkpt lat="44.79849" lon="6.28942">
        <ele>2268.2</ele>
        <time>2024-08-13T05:04:08Z</time>
      </trkpt>
      <trkpt lat="44.79849" lon="6.28942">
        <ele>2268.2</ele>
        <time>2024-08-13T05:04:09Z</time>
      </trkpt>
      <trkpt lat="44.79849" lon="6.28942">
        <ele>2268.2</ele>
        <time>2024-08-13T05:04:10Z</time>
      </trkpt>
      <trkpt lat="44.79849" lon="6.28942">
        <ele>2268.2</ele>
        <time>2024-08-13T05:04:11Z</time>
      </trkpt>
      <trkpt lat="44.79849" lon="6.28942">
        <ele>2268.2</ele>
        <time>2024-08-13T05:04:12Z</time>
      </trkpt>
      <trkpt lat="44.79849" lon="6.28942">
        <ele>2268.2</ele>
        <time>2024-08-13T05:04:13Z</time>
      </trkpt>
      <trkpt lat="44.79849" lon="6.28941">
        <ele>2268.2</ele>
        <time>2024-08-13T05:04:14Z</time>
      </trkpt>
      <trkpt lat="44.79849" lon="6.28941">
        <ele>2268</ele>
        <time>2024-08-13T05:04:15Z</time>
      </trkpt>
      <trkpt lat="44.79849" lon="6.28941">
        <ele>2267.8</ele>
        <time>2024-08-13T05:04:16Z</time>
      </trkpt>
      <trkpt lat="44.79849" lon="6.28941">
        <ele>2267.8</ele>
        <time>2024-08-13T05:04:17Z</time>
      </trkpt>
      <trkpt lat="44.79849" lon="6.28941">
        <ele>2267.8</ele>
        <time>2024-08-13T05:04:18Z</time>
      </trkpt>
      <trkpt lat="44.79848" lon="6.28941">
        <ele>2268</ele>
        <time>2024-08-13T05:04:19Z</time>
      </trkpt>
      <trkpt lat="44.79848" lon="6.28941">
        <ele>2268</ele>
        <time>2024-08-13T05:04:20Z</time>
      </trkpt>
      <trkpt lat="44.79848" lon="6.28941">
        <ele>2268</ele>
        <time>2024-08-13T05:04:21Z</time>
      </trkpt>
      <trkpt lat="44.79848" lon="6.28941">
        <ele>2268.2</ele>
        <time>2024-08-13T05:04:22Z</time>
      </trkpt>
      <trkpt lat="44.79848" lon="6.28941">
        <ele>2268.4</ele>
        <time>2024-08-13T05:04:23Z</time>
      </trkpt>
      <trkpt lat="44.79848" lon="6.28941">
        <ele>2268.4</ele>
        <time>2024-08-13T05:04:24Z</time>
      </trkpt>
      <trkpt lat="44.79848" lon="6.28941">
        <ele>2268.4</ele>
        <time>2024-08-13T05:04:25Z</time>
      </trkpt>
      <trkpt lat="44.79848" lon="6.28941">
        <ele>2268.2</ele>
        <time>2024-08-13T05:04:26Z</time>
      </trkpt>
      <trkpt lat="44.79848" lon="6.28941">
        <ele>2268</ele>
        <time>2024-08-13T05:04:27Z</time>
      </trkpt>
      <trkpt lat="44.79848" lon="6.28941">
        <ele>2268</ele>
        <time>2024-08-13T05:04:28Z</time>
      </trkpt>
      <trkpt lat="44.79848" lon="6.28941">
        <ele>2268</ele>
        <time>2024-08-13T05:04:29Z</time>
      </trkpt>
      <trkpt lat="44.79848" lon="6.2894">
        <ele>2268.2</ele>
        <time>2024-08-13T05:04:30Z</time>
      </trkpt>
      <trkpt lat="44.79848" lon="6.2894">
        <ele>2268.2</ele>
        <time>2024-08-13T05:04:31Z</time>
      </trkpt>
      <trkpt lat="44.79848" lon="6.2894">
        <ele>2268.2</ele>
        <time>2024-08-13T05:04:32Z</time>
      </trkpt>
      <trkpt lat="44.79848" lon="6.2894">
        <ele>2268</ele>
        <time>2024-08-13T05:04:33Z</time>
      </trkpt>
      <trkpt lat="44.79848" lon="6.2894">
        <ele>2268</ele>
        <time>2024-08-13T05:04:34Z</time>
      </trkpt>
      <trkpt lat="44.79848" lon="6.2894">
        <ele>2268</ele>
        <time>2024-08-13T05:04:35Z</time>
      </trkpt>
      <trkpt lat="44.79847" lon="6.2894">
        <ele>2268</ele>
        <time>2024-08-13T05:04:36Z</time>
      </trkpt>
      <trkpt lat="44.79847" lon="6.2894">
        <ele>2268</ele>
        <time>2024-08-13T05:04:37Z</time>
      </trkpt>
      <trkpt lat="44.79847" lon="6.2894">
        <ele>2267.6</ele>
        <time>2024-08-13T05:04:38Z</time>
      </trkpt>
      <trkpt lat="44.79847" lon="6.2894">
        <ele>2267.6</ele>
        <time>2024-08-13T05:04:39Z</time>
      </trkpt>
      <trkpt lat="44.79847" lon="6.2894">
        <ele>2267.6</ele>
        <time>2024-08-13T05:04:40Z</time>
      </trkpt>
      <trkpt lat="44.79847" lon="6.2894">
        <ele>2267.8</ele>
        <time>2024-08-13T05:04:41Z</time>
      </trkpt>
      <trkpt lat="44.79847" lon="6.2894">
        <ele>2267.8</ele>
        <time>2024-08-13T05:04:42Z</time>
      </trkpt>
      <trkpt lat="44.79847" lon="6.2894">
        <ele>2268</ele>
        <time>2024-08-13T05:04:43Z</time>
      </trkpt>
      <trkpt lat="44.79847" lon="6.2894">
        <ele>2268</ele>
        <time>2024-08-13T05:04:44Z</time>
      </trkpt>
      <trkpt lat="44.79847" lon="6.2894">
        <ele>2267.8</ele>
        <time>2024-08-13T05:04:45Z</time>
      </trkpt>
      <trkpt lat="44.79847" lon="6.28939">
        <ele>2267.8</ele>
        <time>2024-08-13T05:04:46Z</time>
      </trkpt>
      <trkpt lat="44.79847" lon="6.28939">
        <ele>2267.6</ele>
        <time>2024-08-13T05:04:47Z</time>
      </trkpt>
      <trkpt lat="44.79847" lon="6.28939">
        <ele>2267.6</ele>
        <time>2024-08-13T05:04:48Z</time>
      </trkpt>
      <trkpt lat="44.79847" lon="6.28939">
        <ele>2268</ele>
        <time>2024-08-13T05:04:49Z</time>
      </trkpt>
      <trkpt lat="44.79847" lon="6.28939">
        <ele>2268</ele>
        <time>2024-08-13T05:04:50Z</time>
      </trkpt>
      <trkpt lat="44.79847" lon="6.28939">
        <ele>2268</ele>
        <time>2024-08-13T05:04:51Z</time>
      </trkpt>
      <trkpt lat="44.79847" lon="6.28939">
        <ele>2268</ele>
        <time>2024-08-13T05:04:52Z</time>
      </trkpt>
      <trkpt lat="44.79846" lon="6.28939">
        <ele>2268</ele>
        <time>2024-08-13T05:04:53Z</time>
      </trkpt>
      <trkpt lat="44.79846" lon="6.28939">
        <ele>2267.8</ele>
        <time>2024-08-13T05:04:54Z</time>
      </trkpt>
      <trkpt lat="44.79846" lon="6.28939">
        <ele>2267.6</ele>
        <time>2024-08-13T05:04:55Z</time>
      </trkpt>
      <trkpt lat="44.79846" lon="6.28939">
        <ele>2267.6</ele>
        <time>2024-08-13T05:04:56Z</time>
      </trkpt>
      <trkpt lat="44.79846" lon="6.28939">
        <ele>2267.8</ele>
        <time>2024-08-13T05:04:57Z</time>
      </trkpt>
      <trkpt lat="44.79846" lon="6.28939">
        <ele>2267.8</ele>
        <time>2024-08-13T05:04:58Z</time>
      </trkpt>
      <trkpt lat="44.79846" lon="6.28939">
        <ele>2267.8</ele>
        <time>2024-08-13T05:04:59Z</time>
      </trkpt>
      <trkpt lat="44.79846" lon="6.28939">
        <ele>2267.8</ele>
        <time>2024-08-13T05:05:00Z</time>
      </trkpt>
      <trkpt lat="44.79846" lon="6.28939">
        <ele>2267.8</ele>
        <time>2024-08-13T05:05:01Z</time>
      </trkpt>
      <trkpt lat="44.79846" lon="6.28938">
        <ele>2268</ele>
        <time>2024-08-13T05:05:02Z</time>
      </trkpt>
      <trkpt lat="44.79846" lon="6.28938">
        <ele>2268.2</ele>
        <time>2024-08-13T05:05:03Z</time>
      </trkpt>
      <trkpt lat="44.79846" lon="6.28938">
        <ele>2268.2</ele>
        <time>2024-08-13T05:05:04Z</time>
      </trkpt>
      <trkpt lat="44.79846" lon="6.28938">
        <ele>2268.2</ele>
        <time>2024-08-13T05:05:05Z</time>
      </trkpt>
      <trkpt lat="44.79846" lon="6.28938">
        <ele>2268.2</ele>
        <time>2024-08-13T05:05:06Z</time>
      </trkpt>
      <trkpt lat="44.79846" lon="6.28938">
        <ele>2268.4</ele>
        <time>2024-08-13T05:05:07Z</time>
      </trkpt>
      <trkpt lat="44.79846" lon="6.28938">
        <ele>2268.4</ele>
        <time>2024-08-13T05:05:08Z</time>
      </trkpt>
      <trkpt lat="44.79845" lon="6.28938">
        <ele>2268.2</ele>
        <time>2024-08-13T05:05:09Z</time>
      </trkpt>
      <trkpt lat="44.79845" lon="6.28938">
        <ele>2268</ele>
        <time>2024-08-13T05:05:10Z</time>
      </trkpt>
      <trkpt lat="44.79845" lon="6.28941">
        <ele>2268</ele>
        <time>2024-08-13T05:05:11Z</time>
      </trkpt>
      <trkpt lat="44.79845" lon="6.28941">
        <ele>2268</ele>
        <time>2024-08-13T05:05:12Z</time>
      </trkpt>
      <trkpt lat="44.79846" lon="6.28945">
        <ele>2267.8</ele>
        <time>2024-08-13T05:05:13Z</time>
      </trkpt>
      <trkpt lat="44.79846" lon="6.28945">
        <ele>2267.8</ele>
        <time>2024-08-13T05:05:14Z</time>
      </trkpt>
      <trkpt lat="44.79846" lon="6.28949">
        <ele>2267.6</ele>
        <time>2024-08-13T05:05:15Z</time>
      </trkpt>
      <trkpt lat="44.79846" lon="6.28949">
        <ele>2267.4</ele>
        <time>2024-08-13T05:05:16Z</time>
      </trkpt>
      <trkpt lat="44.79845" lon="6.28952">
        <ele>2267.2</ele>
        <time>2024-08-13T05:05:17Z</time>
      </trkpt>
      <trkpt lat="44.79845" lon="6.28952">
        <ele>2267.2</ele>
        <time>2024-08-13T05:05:18Z</time>
      </trkpt>
      <trkpt lat="44.79845" lon="6.28955">
        <ele>2267.2</ele>
        <time>2024-08-13T05:05:19Z</time>
      </trkpt>
      <trkpt lat="44.79845" lon="6.28955">
        <ele>2267.2</ele>
        <time>2024-08-13T05:05:20Z</time>
      </trkpt>
      <trkpt lat="44.79845" lon="6.28955">
        <ele>2267.2</ele>
        <time>2024-08-13T05:05:21Z</time>
      </trkpt>
      <trkpt lat="44.79845" lon="6.28955">
        <ele>2267</ele>
        <time>2024-08-13T05:05:22Z</time>
      </trkpt>
      <trkpt lat="44.79845" lon="6.28955">
        <ele>2267</ele>
        <time>2024-08-13T05:05:23Z</time>
      </trkpt>
      <trkpt lat="44.79845" lon="6.28955">
        <ele>2267</ele>
        <time>2024-08-13T05:05:24Z</time>
      </trkpt>
      <trkpt lat="44.79845" lon="6.28955">
        <ele>2267.2</ele>
        <time>2024-08-13T05:05:25Z</time>
      </trkpt>
      <trkpt lat="44.79845" lon="6.28955">
        <ele>2267.2</ele>
        <time>2024-08-13T05:05:26Z</time>
      </trkpt>
      <trkpt lat="44.79845" lon="6.28955">
        <ele>2267.4</ele>
        <time>2024-08-13T05:05:27Z</time>
      </trkpt>
      <trkpt lat="44.79845" lon="6.28955">
        <ele>2267.4</ele>
        <time>2024-08-13T05:05:28Z</time>
      </trkpt>
      <trkpt lat="44.79845" lon="6.28955">
        <ele>2267.4</ele>
        <time>2024-08-13T05:05:29Z</time>
      </trkpt>
      <trkpt lat="44.79845" lon="6.28955">
        <ele>2267.4</ele>
        <time>2024-08-13T05:05:30Z</time>
      </trkpt>
      <trkpt lat="44.79845" lon="6.28955">
        <ele>2267.4</ele>
        <time>2024-08-13T05:05:31Z</time>
      </trkpt>
      <trkpt lat="44.79845" lon="6.28955">
        <ele>2267.2</ele>
        <time>2024-08-13T05:05:32Z</time>
      </trkpt>
      <trkpt lat="44.79845" lon="6.28955">
        <ele>2267.2</ele>
        <time>2024-08-13T05:05:33Z</time>
      </trkpt>
      <trkpt lat="44.79845" lon="6.28955">
        <ele>2267.2</ele>
        <time>2024-08-13T05:05:34Z</time>
      </trkpt>
      <trkpt lat="44.79845" lon="6.28955">
        <ele>2267.2</ele>
        <time>2024-08-13T05:05:35Z</time>
      </trkpt>
      <trkpt lat="44.79845" lon="6.28955">
        <ele>2267.2</ele>
        <time>2024-08-13T05:05:36Z</time>
      </trkpt>
      <trkpt lat="44.79845" lon="6.28955">
        <ele>2267.2</ele>
        <time>2024-08-13T05:05:37Z</time>
      </trkpt>
      <trkpt lat="44.79845" lon="6.28955">
        <ele>2267.4</ele>
        <time>2024-08-13T05:05:38Z</time>
      </trkpt>
      <trkpt lat="44.79845" lon="6.28955">
        <ele>2267.6</ele>
        <time>2024-08-13T05:05:39Z</time>
      </trkpt>
      <trkpt lat="44.79845" lon="6.28955">
        <ele>2267.6</ele>
        <time>2024-08-13T05:05:40Z</time>
      </trkpt>
      <trkpt lat="44.79845" lon="6.28955">
        <ele>2267.6</ele>
        <time>2024-08-13T05:05:41Z</time>
      </trkpt>
      <trkpt lat="44.79845" lon="6.28959">
        <ele>2267.6</ele>
        <time>2024-08-13T05:05:42Z</time>
      </trkpt>
      <trkpt lat="44.79845" lon="6.28959">
        <ele>2267.6</ele>
        <time>2024-08-13T05:05:43Z</time>
      </trkpt>
      <trkpt lat="44.79846" lon="6.28963">
        <ele>2267.6</ele>
        <time>2024-08-13T05:05:44Z</time>
      </trkpt>
      <trkpt lat="44.79847" lon="6.28965">
        <ele>2267.6</ele>
        <time>2024-08-13T05:05:45Z</time>
      </trkpt>
      <trkpt lat="44.79847" lon="6.28965">
        <ele>2267.6</ele>
        <time>2024-08-13T05:05:46Z</time>
      </trkpt>
      <trkpt lat="44.79848" lon="6.2897">
        <ele>2267.6</ele>
        <time>2024-08-13T05:05:47Z</time>
      </trkpt>
      <trkpt lat="44.79848" lon="6.2897">
        <ele>2267.8</ele>
        <time>2024-08-13T05:05:48Z</time>
      </trkpt>
      <trkpt lat="44.79847" lon="6.28974">
        <ele>2267.8</ele>
        <time>2024-08-13T05:05:49Z</time>
      </trkpt>
      <trkpt lat="44.79847" lon="6.28974">
        <ele>2268</ele>
        <time>2024-08-13T05:05:50Z</time>
      </trkpt>
      <trkpt lat="44.79847" lon="6.28978">
        <ele>2268</ele>
        <time>2024-08-13T05:05:51Z</time>
      </trkpt>
      <trkpt lat="44.79847" lon="6.28978">
        <ele>2268.2</ele>
        <time>2024-08-13T05:05:52Z</time>
      </trkpt>
      <trkpt lat="44.79848" lon="6.2898">
        <ele>2268.2</ele>
        <time>2024-08-13T05:05:53Z</time>
      </trkpt>
      <trkpt lat="44.79848" lon="6.2898">
        <ele>2268.4</ele>
        <time>2024-08-13T05:05:54Z</time>
      </trkpt>
      <trkpt lat="44.79848" lon="6.2898">
        <ele>2269</ele>
        <time>2024-08-13T05:05:55Z</time>
      </trkpt>
      <trkpt lat="44.79848" lon="6.28983">
        <ele>2269.2</ele>
        <time>2024-08-13T05:05:56Z</time>
      </trkpt>
      <trkpt lat="44.79848" lon="6.28983">
        <ele>2269.2</ele>
        <time>2024-08-13T05:05:57Z</time>
      </trkpt>
      <trkpt lat="44.79848" lon="6.28983">
        <ele>2269.2</ele>
        <time>2024-08-13T05:05:58Z</time>
      </trkpt>
      <trkpt lat="44.79849" lon="6.28987">
        <ele>2269.2</ele>
        <time>2024-08-13T05:05:59Z</time>
      </trkpt>
      <trkpt lat="44.79849" lon="6.28987">
        <ele>2269.4</ele>
        <time>2024-08-13T05:06:00Z</time>
      </trkpt>
      <trkpt lat="44.79849" lon="6.28991">
        <ele>2269.4</ele>
        <time>2024-08-13T05:06:01Z</time>
      </trkpt>
      <trkpt lat="44.79849" lon="6.28991">
        <ele>2269.6</ele>
        <time>2024-08-13T05:06:02Z</time>
      </trkpt>
      <trkpt lat="44.79849" lon="6.28995">
        <ele>2269.6</ele>
        <time>2024-08-13T05:06:03Z</time>
      </trkpt>
      <trkpt lat="44.79849" lon="6.28995">
        <ele>2269.8</ele>
        <time>2024-08-13T05:06:04Z</time>
      </trkpt>
      <trkpt lat="44.79849" lon="6.28995">
        <ele>2269.8</ele>
        <time>2024-08-13T05:06:05Z</time>
      </trkpt>
      <trkpt lat="44.79849" lon="6.28997">
        <ele>2269.8</ele>
        <time>2024-08-13T05:06:06Z</time>
      </trkpt>
      <trkpt lat="44.79849" lon="6.28997">
        <ele>2269.6</ele>
        <time>2024-08-13T05:06:07Z</time>
      </trkpt>
      <trkpt lat="44.79848" lon="6.29">
        <ele>2269.6</ele>
        <time>2024-08-13T05:06:08Z</time>
      </trkpt>
      <trkpt lat="44.79848" lon="6.29">
        <ele>2269.6</ele>
        <time>2024-08-13T05:06:09Z</time>
      </trkpt>
      <trkpt lat="44.79847" lon="6.29004">
        <ele>2269.6</ele>
        <time>2024-08-13T05:06:10Z</time>
      </trkpt>
      <trkpt lat="44.79847" lon="6.29004">
        <ele>2269.6</ele>
        <time>2024-08-13T05:06:11Z</time>
      </trkpt>
      <trkpt lat="44.79847" lon="6.29004">
        <ele>2269.8</ele>
        <time>2024-08-13T05:06:12Z</time>
      </trkpt>
      <trkpt lat="44.79845" lon="6.29006">
        <ele>2269.8</ele>
        <time>2024-08-13T05:06:13Z</time>
      </trkpt>
      <trkpt lat="44.79845" lon="6.29006">
        <ele>2269.8</ele>
        <time>2024-08-13T05:06:14Z</time>
      </trkpt>
      <trkpt lat="44.79845" lon="6.29006">
        <ele>2269.8</ele>
        <time>2024-08-13T05:06:15Z</time>
      </trkpt>
      <trkpt lat="44.79843" lon="6.29008">
        <ele>2269.6</ele>
        <time>2024-08-13T05:06:16Z</time>
      </trkpt>
      <trkpt lat="44.79843" lon="6.29008">
        <ele>2269.2</ele>
        <time>2024-08-13T05:06:17Z</time>
      </trkpt>
      <trkpt lat="44.79843" lon="6.29008">
        <ele>2269</ele>
        <time>2024-08-13T05:06:18Z</time>
      </trkpt>
      <trkpt lat="44.79841" lon="6.2901">
        <ele>2268.8</ele>
        <time>2024-08-13T05:06:19Z</time>
      </trkpt>
      <trkpt lat="44.79841" lon="6.2901">
        <ele>2268.8</ele>
        <time>2024-08-13T05:06:20Z</time>
      </trkpt>
      <trkpt lat="44.7984" lon="6.29012">
        <ele>2268.6</ele>
        <time>2024-08-13T05:06:21Z</time>
      </trkpt>
      <trkpt lat="44.7984" lon="6.29012">
        <ele>2268.4</ele>
        <time>2024-08-13T05:06:22Z</time>
      </trkpt>
      <trkpt lat="44.79838" lon="6.29014">
        <ele>2268.4</ele>
        <time>2024-08-13T05:06:23Z</time>
      </trkpt>
      <trkpt lat="44.79838" lon="6.29014">
        <ele>2268.4</ele>
        <time>2024-08-13T05:06:24Z</time>
      </trkpt>
      <trkpt lat="44.79836" lon="6.29017">
        <ele>2268.4</ele>
        <time>2024-08-13T05:06:25Z</time>
      </trkpt>
      <trkpt lat="44.79836" lon="6.29017">
        <ele>2268.4</ele>
        <time>2024-08-13T05:06:26Z</time>
      </trkpt>
      <trkpt lat="44.79836" lon="6.29017">
        <ele>2268.2</ele>
        <time>2024-08-13T05:06:27Z</time>
      </trkpt>
      <trkpt lat="44.79834" lon="6.29019">
        <ele>2268</ele>
        <time>2024-08-13T05:06:28Z</time>
      </trkpt>
      <trkpt lat="44.79834" lon="6.29019">
        <ele>2267.8</ele>
        <time>2024-08-13T05:06:29Z</time>
      </trkpt>
      <trkpt lat="44.79834" lon="6.29019">
        <ele>2267.6</ele>
        <time>2024-08-13T05:06:30Z</time>
      </trkpt>
      <trkpt lat="44.79832" lon="6.2902">
        <ele>2267.4</ele>
        <time>2024-08-13T05:06:31Z</time>
      </trkpt>
      <trkpt lat="44.79832" lon="6.2902">
        <ele>2267.4</ele>
        <time>2024-08-13T05:06:32Z</time>
      </trkpt>
      <trkpt lat="44.7983" lon="6.29021">
        <ele>2267.4</ele>
        <time>2024-08-13T05:06:33Z</time>
      </trkpt>
      <trkpt lat="44.7983" lon="6.29021">
        <ele>2267.2</ele>
        <time>2024-08-13T05:06:34Z</time>
      </trkpt>
      <trkpt lat="44.7983" lon="6.29021">
        <ele>2267.2</ele>
        <time>2024-08-13T05:06:35Z</time>
      </trkpt>
      <trkpt lat="44.79828" lon="6.29023">
        <ele>2267.2</ele>
        <time>2024-08-13T05:06:36Z</time>
      </trkpt>
      <trkpt lat="44.79828" lon="6.29023">
        <ele>2267.2</ele>
        <time>2024-08-13T05:06:37Z</time>
      </trkpt>
      <trkpt lat="44.79826" lon="6.29027">
        <ele>2267.2</ele>
        <time>2024-08-13T05:06:38Z</time>
      </trkpt>
      <trkpt lat="44.79826" lon="6.29027">
        <ele>2267.2</ele>
        <time>2024-08-13T05:06:39Z</time>
      </trkpt>
      <trkpt lat="44.79826" lon="6.29027">
        <ele>2267.2</ele>
        <time>2024-08-13T05:06:40Z</time>
      </trkpt>
      <trkpt lat="44.79824" lon="6.29029">
        <ele>2267.2</ele>
        <time>2024-08-13T05:06:41Z</time>
      </trkpt>
      <trkpt lat="44.79824" lon="6.29029">
        <ele>2267.2</ele>
        <time>2024-08-13T05:06:42Z</time>
      </trkpt>
      <trkpt lat="44.79824" lon="6.29029">
        <ele>2267.4</ele>
        <time>2024-08-13T05:06:43Z</time>
      </trkpt>
      <trkpt lat="44.79822" lon="6.2903">
        <ele>2267.4</ele>
        <time>2024-08-13T05:06:44Z</time>
      </trkpt>
      <trkpt lat="44.79822" lon="6.2903">
        <ele>2267.4</ele>
        <time>2024-08-13T05:06:45Z</time>
      </trkpt>
      <trkpt lat="44.79822" lon="6.2903">
        <ele>2267.4</ele>
        <time>2024-08-13T05:06:46Z</time>
      </trkpt>
      <trkpt lat="44.7982" lon="6.29032">
        <ele>2267</ele>
        <time>2024-08-13T05:06:47Z</time>
      </trkpt>
      <trkpt lat="44.7982" lon="6.29032">
        <ele>2267</ele>
        <time>2024-08-13T05:06:48Z</time>
      </trkpt>
      <trkpt lat="44.79818" lon="6.29034">
        <ele>2267</ele>
        <time>2024-08-13T05:06:49Z</time>
      </trkpt>
      <trkpt lat="44.79818" lon="6.29034">
        <ele>2267.2</ele>
        <time>2024-08-13T05:06:50Z</time>
      </trkpt>
      <trkpt lat="44.79816" lon="6.29037">
        <ele>2267.2</ele>
        <time>2024-08-13T05:06:51Z</time>
      </trkpt>
      <trkpt lat="44.79816" lon="6.29037">
        <ele>2267.2</ele>
        <time>2024-08-13T05:06:52Z</time>
      </trkpt>
      <trkpt lat="44.79815" lon="6.2904">
        <ele>2267.2</ele>
        <time>2024-08-13T05:06:53Z</time>
      </trkpt>
      <trkpt lat="44.79814" lon="6.29042">
        <ele>2267.2</ele>
        <time>2024-08-13T05:06:54Z</time>
      </trkpt>
      <trkpt lat="44.79814" lon="6.29042">
        <ele>2267.2</ele>
        <time>2024-08-13T05:06:55Z</time>
      </trkpt>
      <trkpt lat="44.79812" lon="6.29045">
        <ele>2267.2</ele>
        <time>2024-08-13T05:06:56Z</time>
      </trkpt>
      <trkpt lat="44.79812" lon="6.29045">
        <ele>2267.2</ele>
        <time>2024-08-13T05:06:57Z</time>
      </trkpt>
      <trkpt lat="44.79812" lon="6.29048">
        <ele>2267.2</ele>
        <time>2024-08-13T05:06:58Z</time>
      </trkpt>
      <trkpt lat="44.79812" lon="6.29048">
        <ele>2267.2</ele>
        <time>2024-08-13T05:06:59Z</time>
      </trkpt>
      <trkpt lat="44.7981" lon="6.29052">
        <ele>2267</ele>
        <time>2024-08-13T05:07:00Z</time>
      </trkpt>
      <trkpt lat="44.7981" lon="6.29052">
        <ele>2267</ele>
        <time>2024-08-13T05:07:01Z</time>
      </trkpt>
      <trkpt lat="44.79808" lon="6.29056">
        <ele>2267</ele>
        <time>2024-08-13T05:07:02Z</time>
      </trkpt>
      <trkpt lat="44.79808" lon="6.29056">
        <ele>2267</ele>
        <time>2024-08-13T05:07:03Z</time>
      </trkpt>
      <trkpt lat="44.79808" lon="6.29059">
        <ele>2267</ele>
        <time>2024-08-13T05:07:04Z</time>
      </trkpt>
      <trkpt lat="44.79808" lon="6.29059">
        <ele>2267</ele>
        <time>2024-08-13T05:07:05Z</time>
      </trkpt>
      <trkpt lat="44.79806" lon="6.29062">
        <ele>2267</ele>
        <time>2024-08-13T05:07:06Z</time>
      </trkpt>
      <trkpt lat="44.79806" lon="6.29062">
        <ele>2267</ele>
        <time>2024-08-13T05:07:07Z</time>
      </trkpt>
      <trkpt lat="44.79805" lon="6.29066">
        <ele>2266.8</ele>
        <time>2024-08-13T05:07:08Z</time>
      </trkpt>
      <trkpt lat="44.79805" lon="6.29066">
        <ele>2266.8</ele>
        <time>2024-08-13T05:07:09Z</time>
      </trkpt>
      <trkpt lat="44.79804" lon="6.29069">
        <ele>2266.8</ele>
        <time>2024-08-13T05:07:10Z</time>
      </trkpt>
      <trkpt lat="44.79804" lon="6.29069">
        <ele>2266.8</ele>
        <time>2024-08-13T05:07:11Z</time>
      </trkpt>
      <trkpt lat="44.79803" lon="6.29073">
        <ele>2266.8</ele>
        <time>2024-08-13T05:07:12Z</time>
      </trkpt>
      <trkpt lat="44.79803" lon="6.29073">
        <ele>2266.8</ele>
        <time>2024-08-13T05:07:13Z</time>
      </trkpt>
      <trkpt lat="44.79803" lon="6.29077">
        <ele>2266.8</ele>
        <time>2024-08-13T05:07:14Z</time>
      </trkpt>
      <trkpt lat="44.79803" lon="6.29077">
        <ele>2266.8</ele>
        <time>2024-08-13T05:07:15Z</time>
      </trkpt>
      <trkpt lat="44.79802" lon="6.2908">
        <ele>2266.8</ele>
        <time>2024-08-13T05:07:16Z</time>
      </trkpt>
      <trkpt lat="44.79802" lon="6.2908">
        <ele>2266.8</ele>
        <time>2024-08-13T05:07:17Z</time>
      </trkpt>
      <trkpt lat="44.79801" lon="6.29084">
        <ele>2266.8</ele>
        <time>2024-08-13T05:07:18Z</time>
      </trkpt>
      <trkpt lat="44.79801" lon="6.29084">
        <ele>2266.8</ele>
        <time>2024-08-13T05:07:19Z</time>
      </trkpt>
      <trkpt lat="44.79801" lon="6.29087">
        <ele>2266.6</ele>
        <time>2024-08-13T05:07:20Z</time>
      </trkpt>
      <trkpt lat="44.79801" lon="6.29087">
        <ele>2266.6</ele>
        <time>2024-08-13T05:07:21Z</time>
      </trkpt>
      <trkpt lat="44.798" lon="6.29091">
        <ele>2266.6</ele>
        <time>2024-08-13T05:07:22Z</time>
      </trkpt>
      <trkpt lat="44.798" lon="6.29091">
        <ele>2266.6</ele>
        <time>2024-08-13T05:07:23Z</time>
      </trkpt>
      <trkpt lat="44.79799" lon="6.29095">
        <ele>2266.6</ele>
        <time>2024-08-13T05:07:24Z</time>
      </trkpt>
      <trkpt lat="44.79799" lon="6.29095">
        <ele>2266.4</ele>
        <time>2024-08-13T05:07:25Z</time>
      </trkpt>
      <trkpt lat="44.79798" lon="6.29099">
        <ele>2266.4</ele>
        <time>2024-08-13T05:07:26Z</time>
      </trkpt>
      <trkpt lat="44.79798" lon="6.29099">
        <ele>2266.4</ele>
        <time>2024-08-13T05:07:27Z</time>
      </trkpt>
      <trkpt lat="44.79797" lon="6.29102">
        <ele>2266.4</ele>
        <time>2024-08-13T05:07:28Z</time>
      </trkpt>
      <trkpt lat="44.79797" lon="6.29102">
        <ele>2266.4</ele>
        <time>2024-08-13T05:07:29Z</time>
      </trkpt>
      <trkpt lat="44.79796" lon="6.29106">
        <ele>2266.2</ele>
        <time>2024-08-13T05:07:30Z</time>
      </trkpt>
      <trkpt lat="44.79796" lon="6.29106">
        <ele>2266.2</ele>
        <time>2024-08-13T05:07:31Z</time>
      </trkpt>
      <trkpt lat="44.79795" lon="6.29111">
        <ele>2266.2</ele>
        <time>2024-08-13T05:07:32Z</time>
      </trkpt>
      <trkpt lat="44.79795" lon="6.29111">
        <ele>2266.2</ele>
        <time>2024-08-13T05:07:33Z</time>
      </trkpt>
      <trkpt lat="44.79795" lon="6.29114">
        <ele>2266</ele>
        <time>2024-08-13T05:07:34Z</time>
      </trkpt>
      <trkpt lat="44.79795" lon="6.29114">
        <ele>2265.6</ele>
        <time>2024-08-13T05:07:35Z</time>
      </trkpt>
      <trkpt lat="44.79795" lon="6.29118">
        <ele>2265.6</ele>
        <time>2024-08-13T05:07:36Z</time>
      </trkpt>
      <trkpt lat="44.79795" lon="6.29118">
        <ele>2265.6</ele>
        <time>2024-08-13T05:07:37Z</time>
      </trkpt>
      <trkpt lat="44.79795" lon="6.29122">
        <ele>2265.6</ele>
        <time>2024-08-13T05:07:38Z</time>
      </trkpt>
      <trkpt lat="44.79795" lon="6.29122">
        <ele>2265.4</ele>
        <time>2024-08-13T05:07:39Z</time>
      </trkpt>
      <trkpt lat="44.79796" lon="6.29125">
        <ele>2265.2</ele>
        <time>2024-08-13T05:07:40Z</time>
      </trkpt>
      <trkpt lat="44.79796" lon="6.29125">
        <ele>2265.2</ele>
        <time>2024-08-13T05:07:41Z</time>
      </trkpt>
      <trkpt lat="44.79796" lon="6.29125">
        <ele>2265.2</ele>
        <time>2024-08-13T05:07:42Z</time>
      </trkpt>
      <trkpt lat="44.79796" lon="6.29125">
        <ele>2265.2</ele>
        <time>2024-08-13T05:07:43Z</time>
      </trkpt>
      <trkpt lat="44.79796" lon="6.29128">
        <ele>2265.2</ele>
        <time>2024-08-13T05:07:44Z</time>
      </trkpt>
      <trkpt lat="44.79796" lon="6.29128">
        <ele>2264.8</ele>
        <time>2024-08-13T05:07:45Z</time>
      </trkpt>
      <trkpt lat="44.79796" lon="6.29128">
        <ele>2264.8</ele>
        <time>2024-08-13T05:07:46Z</time>
      </trkpt>
      <trkpt lat="44.79797" lon="6.29131">
        <ele>2265</ele>
        <time>2024-08-13T05:07:47Z</time>
      </trkpt>
      <trkpt lat="44.79797" lon="6.29131">
        <ele>2265</ele>
        <time>2024-08-13T05:07:48Z</time>
      </trkpt>
      <trkpt lat="44.79797" lon="6.29131">
        <ele>2264.8</ele>
        <time>2024-08-13T05:07:49Z</time>
      </trkpt>
      <trkpt lat="44.79799" lon="6.29134">
        <ele>2264.8</ele>
        <time>2024-08-13T05:07:50Z</time>
      </trkpt>
      <trkpt lat="44.79799" lon="6.29134">
        <ele>2264.8</ele>
        <time>2024-08-13T05:07:51Z</time>
      </trkpt>
      <trkpt lat="44.79798" lon="6.29137">
        <ele>2265</ele>
        <time>2024-08-13T05:07:52Z</time>
      </trkpt>
      <trkpt lat="44.79798" lon="6.29137">
        <ele>2265</ele>
        <time>2024-08-13T05:07:53Z</time>
      </trkpt>
      <trkpt lat="44.79798" lon="6.29141">
        <ele>2264.8</ele>
        <time>2024-08-13T05:07:54Z</time>
      </trkpt>
      <trkpt lat="44.79798" lon="6.29141">
        <ele>2264.8</ele>
        <time>2024-08-13T05:07:55Z</time>
      </trkpt>
      <trkpt lat="44.79799" lon="6.29145">
        <ele>2264.6</ele>
        <time>2024-08-13T05:07:56Z</time>
      </trkpt>
      <trkpt lat="44.79799" lon="6.29145">
        <ele>2264.6</ele>
        <time>2024-08-13T05:07:57Z</time>
      </trkpt>
      <trkpt lat="44.798" lon="6.29148">
        <ele>2264.6</ele>
        <time>2024-08-13T05:07:58Z</time>
      </trkpt>
      <trkpt lat="44.798" lon="6.29148">
        <ele>2264.8</ele>
        <time>2024-08-13T05:07:59Z</time>
      </trkpt>
      <trkpt lat="44.79801" lon="6.29151">
        <ele>2264.4</ele>
        <time>2024-08-13T05:08:00Z</time>
      </trkpt>
      <trkpt lat="44.79801" lon="6.29151">
        <ele>2264.4</ele>
        <time>2024-08-13T05:08:01Z</time>
      </trkpt>
      <trkpt lat="44.79803" lon="6.29153">
        <ele>2264.6</ele>
        <time>2024-08-13T05:08:02Z</time>
      </trkpt>
      <trkpt lat="44.79803" lon="6.29153">
        <ele>2264.6</ele>
        <time>2024-08-13T05:08:03Z</time>
      </trkpt>
      <trkpt lat="44.79804" lon="6.29156">
        <ele>2264.6</ele>
        <time>2024-08-13T05:08:04Z</time>
      </trkpt>
      <trkpt lat="44.79804" lon="6.29156">
        <ele>2264.6</ele>
        <time>2024-08-13T05:08:05Z</time>
      </trkpt>
      <trkpt lat="44.79805" lon="6.29159">
        <ele>2264.4</ele>
        <time>2024-08-13T05:08:06Z</time>
      </trkpt>
      <trkpt lat="44.79805" lon="6.29159">
        <ele>2264.2</ele>
        <time>2024-08-13T05:08:07Z</time>
      </trkpt>
      <trkpt lat="44.79806" lon="6.29162">
        <ele>2264.2</ele>
        <time>2024-08-13T05:08:08Z</time>
      </trkpt>
      <trkpt lat="44.79806" lon="6.29162">
        <ele>2264.2</ele>
        <time>2024-08-13T05:08:09Z</time>
      </trkpt>
      <trkpt lat="44.79808" lon="6.29164">
        <ele>2264.2</ele>
        <time>2024-08-13T05:08:10Z</time>
      </trkpt>
      <trkpt lat="44.79808" lon="6.29164">
        <ele>2264.2</ele>
        <time>2024-08-13T05:08:11Z</time>
      </trkpt>
      <trkpt lat="44.7981" lon="6.29166">
        <ele>2264.2</ele>
        <time>2024-08-13T05:08:12Z</time>
      </trkpt>
      <trkpt lat="44.7981" lon="6.29166">
        <ele>2264.2</ele>
        <time>2024-08-13T05:08:13Z</time>
      </trkpt>
      <trkpt lat="44.79812" lon="6.29168">
        <ele>2264</ele>
        <time>2024-08-13T05:08:14Z</time>
      </trkpt>
      <trkpt lat="44.79812" lon="6.29168">
        <ele>2264</ele>
        <time>2024-08-13T05:08:15Z</time>
      </trkpt>
      <trkpt lat="44.79814" lon="6.29169">
        <ele>2264</ele>
        <time>2024-08-13T05:08:16Z</time>
      </trkpt>
      <trkpt lat="44.79814" lon="6.29169">
        <ele>2264</ele>
        <time>2024-08-13T05:08:17Z</time>
      </trkpt>
      <trkpt lat="44.79816" lon="6.29171">
        <ele>2263.8</ele>
        <time>2024-08-13T05:08:18Z</time>
      </trkpt>
      <trkpt lat="44.79816" lon="6.29171">
        <ele>2263.8</ele>
        <time>2024-08-13T05:08:19Z</time>
      </trkpt>
      <trkpt lat="44.79818" lon="6.29173">
        <ele>2263.6</ele>
        <time>2024-08-13T05:08:20Z</time>
      </trkpt>
      <trkpt lat="44.79818" lon="6.29173">
        <ele>2263.4</ele>
        <time>2024-08-13T05:08:21Z</time>
      </trkpt>
      <trkpt lat="44.7982" lon="6.29176">
        <ele>2263.4</ele>
        <time>2024-08-13T05:08:22Z</time>
      </trkpt>
      <trkpt lat="44.7982" lon="6.29176">
        <ele>2263.4</ele>
        <time>2024-08-13T05:08:23Z</time>
      </trkpt>
      <trkpt lat="44.79822" lon="6.29178">
        <ele>2263.4</ele>
        <time>2024-08-13T05:08:24Z</time>
      </trkpt>
      <trkpt lat="44.79822" lon="6.29178">
        <ele>2263.4</ele>
        <time>2024-08-13T05:08:25Z</time>
      </trkpt>
      <trkpt lat="44.79824" lon="6.2918">
        <ele>2263.4</ele>
        <time>2024-08-13T05:08:26Z</time>
      </trkpt>
      <trkpt lat="44.79824" lon="6.2918">
        <ele>2263.4</ele>
        <time>2024-08-13T05:08:27Z</time>
      </trkpt>
      <trkpt lat="44.79827" lon="6.29182">
        <ele>2263.2</ele>
        <time>2024-08-13T05:08:28Z</time>
      </trkpt>
      <trkpt lat="44.79827" lon="6.29182">
        <ele>2263.2</ele>
        <time>2024-08-13T05:08:29Z</time>
      </trkpt>
      <trkpt lat="44.79829" lon="6.29185">
        <ele>2263</ele>
        <time>2024-08-13T05:08:30Z</time>
      </trkpt>
      <trkpt lat="44.79831" lon="6.29186">
        <ele>2263</ele>
        <time>2024-08-13T05:08:31Z</time>
      </trkpt>
      <trkpt lat="44.79831" lon="6.29186">
        <ele>2263</ele>
        <time>2024-08-13T05:08:32Z</time>
      </trkpt>
      <trkpt lat="44.79832" lon="6.29188">
        <ele>2263</ele>
        <time>2024-08-13T05:08:33Z</time>
      </trkpt>
      <trkpt lat="44.79832" lon="6.29188">
        <ele>2263</ele>
        <time>2024-08-13T05:08:34Z</time>
      </trkpt>
      <trkpt lat="44.79835" lon="6.2919">
        <ele>2262.8</ele>
        <time>2024-08-13T05:08:35Z</time>
      </trkpt>
      <trkpt lat="44.79835" lon="6.2919">
        <ele>2262.6</ele>
        <time>2024-08-13T05:08:36Z</time>
      </trkpt>
      <trkpt lat="44.79837" lon="6.29192">
        <ele>2262.6</ele>
        <time>2024-08-13T05:08:37Z</time>
      </trkpt>
      <trkpt lat="44.79837" lon="6.29192">
        <ele>2262.6</ele>
        <time>2024-08-13T05:08:38Z</time>
      </trkpt>
      <trkpt lat="44.79841" lon="6.29193">
        <ele>2262.4</ele>
        <time>2024-08-13T05:08:39Z</time>
      </trkpt>
      <trkpt lat="44.79841" lon="6.29193">
        <ele>2262.4</ele>
        <time>2024-08-13T05:08:40Z</time>
      </trkpt>
      <trkpt lat="44.79841" lon="6.29193">
        <ele>2262.4</ele>
        <time>2024-08-13T05:08:41Z</time>
      </trkpt>
      <trkpt lat="44.79842" lon="6.29196">
        <ele>2262.2</ele>
        <time>2024-08-13T05:08:42Z</time>
      </trkpt>
      <trkpt lat="44.79842" lon="6.29196">
        <ele>2262</ele>
        <time>2024-08-13T05:08:43Z</time>
      </trkpt>
      <trkpt lat="44.79843" lon="6.29199">
        <ele>2261.8</ele>
        <time>2024-08-13T05:08:44Z</time>
      </trkpt>
      <trkpt lat="44.79843" lon="6.29199">
        <ele>2261.8</ele>
        <time>2024-08-13T05:08:45Z</time>
      </trkpt>
      <trkpt lat="44.79843" lon="6.29203">
        <ele>2261.6</ele>
        <time>2024-08-13T05:08:46Z</time>
      </trkpt>
      <trkpt lat="44.79843" lon="6.29203">
        <ele>2261.4</ele>
        <time>2024-08-13T05:08:47Z</time>
      </trkpt>
      <trkpt lat="44.79843" lon="6.29206">
        <ele>2261.2</ele>
        <time>2024-08-13T05:08:48Z</time>
      </trkpt>
      <trkpt lat="44.79843" lon="6.29206">
        <ele>2261.2</ele>
        <time>2024-08-13T05:08:49Z</time>
      </trkpt>
      <trkpt lat="44.79843" lon="6.29206">
        <ele>2261.4</ele>
        <time>2024-08-13T05:08:50Z</time>
      </trkpt>
      <trkpt lat="44.79844" lon="6.2921">
        <ele>2261.4</ele>
        <time>2024-08-13T05:08:51Z</time>
      </trkpt>
      <trkpt lat="44.79844" lon="6.2921">
        <ele>2261.4</ele>
        <time>2024-08-13T05:08:52Z</time>
      </trkpt>
      <trkpt lat="44.79846" lon="6.29213">
        <ele>2261.4</ele>
        <time>2024-08-13T05:08:53Z</time>
      </trkpt>
      <trkpt lat="44.79846" lon="6.29213">
        <ele>2261.2</ele>
        <time>2024-08-13T05:08:54Z</time>
      </trkpt>
      <trkpt lat="44.79849" lon="6.29215">
        <ele>2261.2</ele>
        <time>2024-08-13T05:08:55Z</time>
      </trkpt>
      <trkpt lat="44.79849" lon="6.29215">
        <ele>2261.2</ele>
        <time>2024-08-13T05:08:56Z</time>
      </trkpt>
      <trkpt lat="44.79852" lon="6.29215">
        <ele>2261.2</ele>
        <time>2024-08-13T05:08:57Z</time>
      </trkpt>
      <trkpt lat="44.79853" lon="6.29216">
        <ele>2260.8</ele>
        <time>2024-08-13T05:08:58Z</time>
      </trkpt>
      <trkpt lat="44.79853" lon="6.29216">
        <ele>2260.8</ele>
        <time>2024-08-13T05:08:59Z</time>
      </trkpt>
      <trkpt lat="44.79856" lon="6.29218">
        <ele>2261.2</ele>
        <time>2024-08-13T05:09:00Z</time>
      </trkpt>
      <trkpt lat="44.79856" lon="6.29218">
        <ele>2261.2</ele>
        <time>2024-08-13T05:09:01Z</time>
      </trkpt>
      <trkpt lat="44.79856" lon="6.29218">
        <ele>2261.2</ele>
        <time>2024-08-13T05:09:02Z</time>
      </trkpt>
      <trkpt lat="44.79856" lon="6.29218">
        <ele>2261.4</ele>
        <time>2024-08-13T05:09:03Z</time>
      </trkpt>
      <trkpt lat="44.79856" lon="6.29218">
        <ele>2261.4</ele>
        <time>2024-08-13T05:09:04Z</time>
      </trkpt>
      <trkpt lat="44.79858" lon="6.29219">
        <ele>2261.4</ele>
        <time>2024-08-13T05:09:05Z</time>
      </trkpt>
      <trkpt lat="44.79858" lon="6.29219">
        <ele>2261.8</ele>
        <time>2024-08-13T05:09:06Z</time>
      </trkpt>
      <trkpt lat="44.7986" lon="6.29219">
        <ele>2262</ele>
        <time>2024-08-13T05:09:07Z</time>
      </trkpt>
      <trkpt lat="44.7986" lon="6.29219">
        <ele>2262.2</ele>
        <time>2024-08-13T05:09:08Z</time>
      </trkpt>
      <trkpt lat="44.79863" lon="6.2922">
        <ele>2262.4</ele>
        <time>2024-08-13T05:09:09Z</time>
      </trkpt>
      <trkpt lat="44.79863" lon="6.2922">
        <ele>2262.4</ele>
        <time>2024-08-13T05:09:10Z</time>
      </trkpt>
      <trkpt lat="44.79865" lon="6.29221">
        <ele>2262.4</ele>
        <time>2024-08-13T05:09:11Z</time>
      </trkpt>
      <trkpt lat="44.79865" lon="6.29221">
        <ele>2262.4</ele>
        <time>2024-08-13T05:09:12Z</time>
      </trkpt>
      <trkpt lat="44.79868" lon="6.29221">
        <ele>2262.6</ele>
        <time>2024-08-13T05:09:13Z</time>
      </trkpt>
      <trkpt lat="44.79868" lon="6.29221">
        <ele>2262.6</ele>
        <time>2024-08-13T05:09:14Z</time>
      </trkpt>
      <trkpt lat="44.7987" lon="6.29222">
        <ele>2262.6</ele>
        <time>2024-08-13T05:09:15Z</time>
      </trkpt>
      <trkpt lat="44.7987" lon="6.29222">
        <ele>2262.6</ele>
        <time>2024-08-13T05:09:16Z</time>
      </trkpt>
      <trkpt lat="44.79873" lon="6.29223">
        <ele>2262.6</ele>
        <time>2024-08-13T05:09:17Z</time>
      </trkpt>
      <trkpt lat="44.79873" lon="6.29223">
        <ele>2262.6</ele>
        <time>2024-08-13T05:09:18Z</time>
      </trkpt>
      <trkpt lat="44.79875" lon="6.29225">
        <ele>2262.2</ele>
        <time>2024-08-13T05:09:19Z</time>
      </trkpt>
      <trkpt lat="44.79875" lon="6.29225">
        <ele>2262</ele>
        <time>2024-08-13T05:09:20Z</time>
      </trkpt>
      <trkpt lat="44.79875" lon="6.29225">
        <ele>2261.8</ele>
        <time>2024-08-13T05:09:21Z</time>
      </trkpt>
      <trkpt lat="44.79877" lon="6.29225">
        <ele>2261.6</ele>
        <time>2024-08-13T05:09:22Z</time>
      </trkpt>
      <trkpt lat="44.79877" lon="6.29225">
        <ele>2261.2</ele>
        <time>2024-08-13T05:09:23Z</time>
      </trkpt>
      <trkpt lat="44.79877" lon="6.29225">
        <ele>2260.8</ele>
        <time>2024-08-13T05:09:24Z</time>
      </trkpt>
      <trkpt lat="44.79879" lon="6.29225">
        <ele>2260.6</ele>
        <time>2024-08-13T05:09:25Z</time>
      </trkpt>
      <trkpt lat="44.79879" lon="6.29225">
        <ele>2260.6</ele>
        <time>2024-08-13T05:09:26Z</time>
      </trkpt>
      <trkpt lat="44.79879" lon="6.29225">
        <ele>2260.6</ele>
        <time>2024-08-13T05:09:27Z</time>
      </trkpt>
      <trkpt lat="44.79881" lon="6.29227">
        <ele>2260.2</ele>
        <time>2024-08-13T05:09:28Z</time>
      </trkpt>
      <trkpt lat="44.79881" lon="6.29227">
        <ele>2259.8</ele>
        <time>2024-08-13T05:09:29Z</time>
      </trkpt>
      <trkpt lat="44.79881" lon="6.29227">
        <ele>2259.4</ele>
        <time>2024-08-13T05:09:30Z</time>
      </trkpt>
      <trkpt lat="44.79883" lon="6.29227">
        <ele>2259</ele>
        <time>2024-08-13T05:09:31Z</time>
      </trkpt>
      <trkpt lat="44.79883" lon="6.29227">
        <ele>2259</ele>
        <time>2024-08-13T05:09:32Z</time>
      </trkpt>
      <trkpt lat="44.79883" lon="6.29227">
        <ele>2258.8</ele>
        <time>2024-08-13T05:09:33Z</time>
      </trkpt>
      <trkpt lat="44.79885" lon="6.29227">
        <ele>2258.6</ele>
        <time>2024-08-13T05:09:34Z</time>
      </trkpt>
      <trkpt lat="44.79885" lon="6.29227">
        <ele>2258.4</ele>
        <time>2024-08-13T05:09:35Z</time>
      </trkpt>
      <trkpt lat="44.79887" lon="6.29226">
        <ele>2258.4</ele>
        <time>2024-08-13T05:09:36Z</time>
      </trkpt>
      <trkpt lat="44.79887" lon="6.29226">
        <ele>2258.2</ele>
        <time>2024-08-13T05:09:37Z</time>
      </trkpt>
      <trkpt lat="44.79889" lon="6.29226">
        <ele>2258</ele>
        <time>2024-08-13T05:09:38Z</time>
      </trkpt>
      <trkpt lat="44.79889" lon="6.29226">
        <ele>2257.6</ele>
        <time>2024-08-13T05:09:39Z</time>
      </trkpt>
      <trkpt lat="44.79891" lon="6.29226">
        <ele>2257.6</ele>
        <time>2024-08-13T05:09:40Z</time>
      </trkpt>
      <trkpt lat="44.79891" lon="6.29226">
        <ele>2257.4</ele>
        <time>2024-08-13T05:09:41Z</time>
      </trkpt>
      <trkpt lat="44.79893" lon="6.29227">
        <ele>2257</ele>
        <time>2024-08-13T05:09:42Z</time>
      </trkpt>
      <trkpt lat="44.79893" lon="6.29227">
        <ele>2257</ele>
        <time>2024-08-13T05:09:43Z</time>
      </trkpt>
      <trkpt lat="44.79895" lon="6.29227">
        <ele>2256.6</ele>
        <time>2024-08-13T05:09:44Z</time>
      </trkpt>
      <trkpt lat="44.79895" lon="6.29227">
        <ele>2256.6</ele>
        <time>2024-08-13T05:09:45Z</time>
      </trkpt>
      <trkpt lat="44.79897" lon="6.29228">
        <ele>2256.4</ele>
        <time>2024-08-13T05:09:46Z</time>
      </trkpt>
      <trkpt lat="44.79897" lon="6.29228">
        <ele>2256.4</ele>
        <time>2024-08-13T05:09:47Z</time>
      </trkpt>
      <trkpt lat="44.799" lon="6.29229">
        <ele>2256.6</ele>
        <time>2024-08-13T05:09:48Z</time>
      </trkpt>
      <trkpt lat="44.799" lon="6.29229">
        <ele>2256.6</ele>
        <time>2024-08-13T05:09:49Z</time>
      </trkpt>
      <trkpt lat="44.79902" lon="6.29229">
        <ele>2256.2</ele>
        <time>2024-08-13T05:09:50Z</time>
      </trkpt>
      <trkpt lat="44.79902" lon="6.29229">
        <ele>2255.4</ele>
        <time>2024-08-13T05:09:51Z</time>
      </trkpt>
      <trkpt lat="44.79905" lon="6.2923">
        <ele>2255.4</ele>
        <time>2024-08-13T05:09:52Z</time>
      </trkpt>
      <trkpt lat="44.79905" lon="6.2923">
        <ele>2255.4</ele>
        <time>2024-08-13T05:09:53Z</time>
      </trkpt>
      <trkpt lat="44.79908" lon="6.29231">
        <ele>2255.4</ele>
        <time>2024-08-13T05:09:54Z</time>
      </trkpt>
      <trkpt lat="44.79908" lon="6.29231">
        <ele>2255.4</ele>
        <time>2024-08-13T05:09:55Z</time>
      </trkpt>
      <trkpt lat="44.7991" lon="6.29231">
        <ele>2255.4</ele>
        <time>2024-08-13T05:09:56Z</time>
      </trkpt>
      <trkpt lat="44.7991" lon="6.29231">
        <ele>2255.4</ele>
        <time>2024-08-13T05:09:57Z</time>
      </trkpt>
      <trkpt lat="44.79912" lon="6.2923">
        <ele>2255.4</ele>
        <time>2024-08-13T05:09:58Z</time>
      </trkpt>
      <trkpt lat="44.79912" lon="6.2923">
        <ele>2255.2</ele>
        <time>2024-08-13T05:09:59Z</time>
      </trkpt>
      <trkpt lat="44.79915" lon="6.29228">
        <ele>2254.8</ele>
        <time>2024-08-13T05:10:00Z</time>
      </trkpt>
      <trkpt lat="44.79915" lon="6.29228">
        <ele>2254.8</ele>
        <time>2024-08-13T05:10:01Z</time>
      </trkpt>
      <trkpt lat="44.79917" lon="6.29227">
        <ele>2254.8</ele>
        <time>2024-08-13T05:10:02Z</time>
      </trkpt>
      <trkpt lat="44.79917" lon="6.29227">
        <ele>2255.2</ele>
        <time>2024-08-13T05:10:03Z</time>
      </trkpt>
      <trkpt lat="44.79917" lon="6.29227">
        <ele>2255.2</ele>
        <time>2024-08-13T05:10:04Z</time>
      </trkpt>
      <trkpt lat="44.79919" lon="6.29226">
        <ele>2255</ele>
        <time>2024-08-13T05:10:05Z</time>
      </trkpt>
      <trkpt lat="44.79919" lon="6.29226">
        <ele>2254.6</ele>
        <time>2024-08-13T05:10:06Z</time>
      </trkpt>
      <trkpt lat="44.79919" lon="6.29226">
        <ele>2254.6</ele>
        <time>2024-08-13T05:10:07Z</time>
      </trkpt>
      <trkpt lat="44.79921" lon="6.29225">
        <ele>2254.6</ele>
        <time>2024-08-13T05:10:08Z</time>
      </trkpt>
      <trkpt lat="44.79921" lon="6.29225">
        <ele>2254.4</ele>
        <time>2024-08-13T05:10:09Z</time>
      </trkpt>
      <trkpt lat="44.79923" lon="6.29225">
        <ele>2254.2</ele>
        <time>2024-08-13T05:10:10Z</time>
      </trkpt>
      <trkpt lat="44.79923" lon="6.29225">
        <ele>2254.2</ele>
        <time>2024-08-13T05:10:11Z</time>
      </trkpt>
      <trkpt lat="44.79926" lon="6.29225">
        <ele>2254</ele>
        <time>2024-08-13T05:10:12Z</time>
      </trkpt>
      <trkpt lat="44.79926" lon="6.29225">
        <ele>2254</ele>
        <time>2024-08-13T05:10:13Z</time>
      </trkpt>
      <trkpt lat="44.79928" lon="6.29225">
        <ele>2254</ele>
        <time>2024-08-13T05:10:14Z</time>
      </trkpt>
      <trkpt lat="44.79928" lon="6.29225">
        <ele>2253.8</ele>
        <time>2024-08-13T05:10:15Z</time>
      </trkpt>
      <trkpt lat="44.79931" lon="6.29225">
        <ele>2253.8</ele>
        <time>2024-08-13T05:10:16Z</time>
      </trkpt>
      <trkpt lat="44.79931" lon="6.29225">
        <ele>2253.4</ele>
        <time>2024-08-13T05:10:17Z</time>
      </trkpt>
      <trkpt lat="44.79933" lon="6.29225">
        <ele>2253.2</ele>
        <time>2024-08-13T05:10:18Z</time>
      </trkpt>
      <trkpt lat="44.79933" lon="6.29225">
        <ele>2253.2</ele>
        <time>2024-08-13T05:10:19Z</time>
      </trkpt>
      <trkpt lat="44.79934" lon="6.29225">
        <ele>2253</ele>
        <time>2024-08-13T05:10:20Z</time>
      </trkpt>
      <trkpt lat="44.79934" lon="6.29225">
        <ele>2252.6</ele>
        <time>2024-08-13T05:10:21Z</time>
      </trkpt>
      <trkpt lat="44.79934" lon="6.29225">
        <ele>2252.4</ele>
        <time>2024-08-13T05:10:22Z</time>
      </trkpt>
      <trkpt lat="44.79937" lon="6.29225">
        <ele>2252.2</ele>
        <time>2024-08-13T05:10:23Z</time>
      </trkpt>
      <trkpt lat="44.79937" lon="6.29225">
        <ele>2252.2</ele>
        <time>2024-08-13T05:10:24Z</time>
      </trkpt>
      <trkpt lat="44.79939" lon="6.29225">
        <ele>2251.8</ele>
        <time>2024-08-13T05:10:25Z</time>
      </trkpt>
      <trkpt lat="44.79939" lon="6.29225">
        <ele>2251.6</ele>
        <time>2024-08-13T05:10:26Z</time>
      </trkpt>
      <trkpt lat="44.79941" lon="6.29224">
        <ele>2251.4</ele>
        <time>2024-08-13T05:10:27Z</time>
      </trkpt>
      <trkpt lat="44.79941" lon="6.29224">
        <ele>2251.4</ele>
        <time>2024-08-13T05:10:28Z</time>
      </trkpt>
      <trkpt lat="44.79943" lon="6.29224">
        <ele>2251.4</ele>
        <time>2024-08-13T05:10:29Z</time>
      </trkpt>
      <trkpt lat="44.79943" lon="6.29224">
        <ele>2250.8</ele>
        <time>2024-08-13T05:10:30Z</time>
      </trkpt>
      <trkpt lat="44.79945" lon="6.29224">
        <ele>2250.6</ele>
        <time>2024-08-13T05:10:31Z</time>
      </trkpt>
      <trkpt lat="44.79945" lon="6.29224">
        <ele>2250.4</ele>
        <time>2024-08-13T05:10:32Z</time>
      </trkpt>
      <trkpt lat="44.79947" lon="6.29223">
        <ele>2250.2</ele>
        <time>2024-08-13T05:10:33Z</time>
      </trkpt>
      <trkpt lat="44.79947" lon="6.29223">
        <ele>2249.8</ele>
        <time>2024-08-13T05:10:34Z</time>
      </trkpt>
      <trkpt lat="44.79949" lon="6.29222">
        <ele>2249.8</ele>
        <time>2024-08-13T05:10:35Z</time>
      </trkpt>
      <trkpt lat="44.79949" lon="6.29222">
        <ele>2249.8</ele>
        <time>2024-08-13T05:10:36Z</time>
      </trkpt>
      <trkpt lat="44.79951" lon="6.29221">
        <ele>2249.8</ele>
        <time>2024-08-13T05:10:37Z</time>
      </trkpt>
      <trkpt lat="44.79951" lon="6.29221">
        <ele>2249.8</ele>
        <time>2024-08-13T05:10:38Z</time>
      </trkpt>
      <trkpt lat="44.79953" lon="6.2922">
        <ele>2249.8</ele>
        <time>2024-08-13T05:10:39Z</time>
      </trkpt>
      <trkpt lat="44.79953" lon="6.2922">
        <ele>2249.8</ele>
        <time>2024-08-13T05:10:40Z</time>
      </trkpt>
      <trkpt lat="44.79956" lon="6.2922">
        <ele>2249.6</ele>
        <time>2024-08-13T05:10:41Z</time>
      </trkpt>
      <trkpt lat="44.79956" lon="6.2922">
        <ele>2249.2</ele>
        <time>2024-08-13T05:10:42Z</time>
      </trkpt>
      <trkpt lat="44.79958" lon="6.29219">
        <ele>2249.2</ele>
        <time>2024-08-13T05:10:43Z</time>
      </trkpt>
      <trkpt lat="44.79958" lon="6.29219">
        <ele>2249</ele>
        <time>2024-08-13T05:10:44Z</time>
      </trkpt>
      <trkpt lat="44.79961" lon="6.29219">
        <ele>2249</ele>
        <time>2024-08-13T05:10:45Z</time>
      </trkpt>
      <trkpt lat="44.79961" lon="6.29219">
        <ele>2249</ele>
        <time>2024-08-13T05:10:46Z</time>
      </trkpt>
      <trkpt lat="44.79963" lon="6.29218">
        <ele>2248.8</ele>
        <time>2024-08-13T05:10:47Z</time>
      </trkpt>
      <trkpt lat="44.79963" lon="6.29218">
        <ele>2248.8</ele>
        <time>2024-08-13T05:10:48Z</time>
      </trkpt>
      <trkpt lat="44.79965" lon="6.29217">
        <ele>2248.6</ele>
        <time>2024-08-13T05:10:49Z</time>
      </trkpt>
      <trkpt lat="44.79965" lon="6.29217">
        <ele>2248.6</ele>
        <time>2024-08-13T05:10:50Z</time>
      </trkpt>
      <trkpt lat="44.79967" lon="6.29216">
        <ele>2248.6</ele>
        <time>2024-08-13T05:10:51Z</time>
      </trkpt>
      <trkpt lat="44.79967" lon="6.29216">
        <ele>2248.6</ele>
        <time>2024-08-13T05:10:52Z</time>
      </trkpt>
      <trkpt lat="44.79969" lon="6.29217">
        <ele>2248.4</ele>
        <time>2024-08-13T05:10:53Z</time>
      </trkpt>
      <trkpt lat="44.79969" lon="6.29217">
        <ele>2248.2</ele>
        <time>2024-08-13T05:10:54Z</time>
      </trkpt>
      <trkpt lat="44.79971" lon="6.29217">
        <ele>2247.8</ele>
        <time>2024-08-13T05:10:55Z</time>
      </trkpt>
      <trkpt lat="44.79971" lon="6.29217">
        <ele>2247.6</ele>
        <time>2024-08-13T05:10:56Z</time>
      </trkpt>
      <trkpt lat="44.79971" lon="6.29217">
        <ele>2247.6</ele>
        <time>2024-08-13T05:10:57Z</time>
      </trkpt>
      <trkpt lat="44.79974" lon="6.29218">
        <ele>2247.4</ele>
        <time>2024-08-13T05:10:58Z</time>
      </trkpt>
      <trkpt lat="44.79974" lon="6.29218">
        <ele>2246.8</ele>
        <time>2024-08-13T05:10:59Z</time>
      </trkpt>
      <trkpt lat="44.79974" lon="6.29218">
        <ele>2246.4</ele>
        <time>2024-08-13T05:11:00Z</time>
      </trkpt>
      <trkpt lat="44.79977" lon="6.29219">
        <ele>2246.4</ele>
        <time>2024-08-13T05:11:01Z</time>
      </trkpt>
      <trkpt lat="44.79977" lon="6.29219">
        <ele>2245.8</ele>
        <time>2024-08-13T05:11:02Z</time>
      </trkpt>
      <trkpt lat="44.79979" lon="6.29219">
        <ele>2245.6</ele>
        <time>2024-08-13T05:11:03Z</time>
      </trkpt>
      <trkpt lat="44.79979" lon="6.29219">
        <ele>2245.4</ele>
        <time>2024-08-13T05:11:04Z</time>
      </trkpt>
      <trkpt lat="44.79979" lon="6.29219">
        <ele>2245</ele>
        <time>2024-08-13T05:11:05Z</time>
      </trkpt>
      <trkpt lat="44.79982" lon="6.2922">
        <ele>2244.8</ele>
        <time>2024-08-13T05:11:06Z</time>
      </trkpt>
      <trkpt lat="44.79982" lon="6.2922">
        <ele>2244.4</ele>
        <time>2024-08-13T05:11:07Z</time>
      </trkpt>
      <trkpt lat="44.79984" lon="6.2922">
        <ele>2244</ele>
        <time>2024-08-13T05:11:08Z</time>
      </trkpt>
      <trkpt lat="44.79984" lon="6.2922">
        <ele>2244</ele>
        <time>2024-08-13T05:11:09Z</time>
      </trkpt>
      <trkpt lat="44.79987" lon="6.2922">
        <ele>2243.4</ele>
        <time>2024-08-13T05:11:10Z</time>
      </trkpt>
      <trkpt lat="44.79987" lon="6.2922">
        <ele>2243.2</ele>
        <time>2024-08-13T05:11:11Z</time>
      </trkpt>
      <trkpt lat="44.79989" lon="6.2922">
        <ele>2243.2</ele>
        <time>2024-08-13T05:11:12Z</time>
      </trkpt>
      <trkpt lat="44.79989" lon="6.2922">
        <ele>2243.2</ele>
        <time>2024-08-13T05:11:13Z</time>
      </trkpt>
      <trkpt lat="44.79991" lon="6.29219">
        <ele>2243</ele>
        <time>2024-08-13T05:11:14Z</time>
      </trkpt>
      <trkpt lat="44.79991" lon="6.29219">
        <ele>2243</ele>
        <time>2024-08-13T05:11:15Z</time>
      </trkpt>
      <trkpt lat="44.79993" lon="6.29218">
        <ele>2243</ele>
        <time>2024-08-13T05:11:16Z</time>
      </trkpt>
      <trkpt lat="44.79993" lon="6.29218">
        <ele>2243</ele>
        <time>2024-08-13T05:11:17Z</time>
      </trkpt>
      <trkpt lat="44.79995" lon="6.29216">
        <ele>2243</ele>
        <time>2024-08-13T05:11:18Z</time>
      </trkpt>
      <trkpt lat="44.79995" lon="6.29216">
        <ele>2242.8</ele>
        <time>2024-08-13T05:11:19Z</time>
      </trkpt>
      <trkpt lat="44.79997" lon="6.29216">
        <ele>2242.8</ele>
        <time>2024-08-13T05:11:20Z</time>
      </trkpt>
      <trkpt lat="44.79997" lon="6.29216">
        <ele>2242.8</ele>
        <time>2024-08-13T05:11:21Z</time>
      </trkpt>
      <trkpt lat="44.79997" lon="6.29216">
        <ele>2242.8</ele>
        <time>2024-08-13T05:11:22Z</time>
      </trkpt>
      <trkpt lat="44.79999" lon="6.29216">
        <ele>2243</ele>
        <time>2024-08-13T05:11:23Z</time>
      </trkpt>
      <trkpt lat="44.79999" lon="6.29216">
        <ele>2243</ele>
        <time>2024-08-13T05:11:24Z</time>
      </trkpt>
      <trkpt lat="44.79999" lon="6.29216">
        <ele>2242.8</ele>
        <time>2024-08-13T05:11:25Z</time>
      </trkpt>
      <trkpt lat="44.80001" lon="6.29217">
        <ele>2242.4</ele>
        <time>2024-08-13T05:11:26Z</time>
      </trkpt>
      <trkpt lat="44.80001" lon="6.29217">
        <ele>2242.4</ele>
        <time>2024-08-13T05:11:27Z</time>
      </trkpt>
      <trkpt lat="44.80001" lon="6.29217">
        <ele>2242.2</ele>
        <time>2024-08-13T05:11:28Z</time>
      </trkpt>
      <trkpt lat="44.80001" lon="6.29217">
        <ele>2242</ele>
        <time>2024-08-13T05:11:29Z</time>
      </trkpt>
      <trkpt lat="44.80003" lon="6.29218">
        <ele>2241.8</ele>
        <time>2024-08-13T05:11:30Z</time>
      </trkpt>
      <trkpt lat="44.80003" lon="6.29218">
        <ele>2241.6</ele>
        <time>2024-08-13T05:11:31Z</time>
      </trkpt>
      <trkpt lat="44.80005" lon="6.29218">
        <ele>2241.2</ele>
        <time>2024-08-13T05:11:32Z</time>
      </trkpt>
      <trkpt lat="44.80005" lon="6.29218">
        <ele>2241.2</ele>
        <time>2024-08-13T05:11:33Z</time>
      </trkpt>
      <trkpt lat="44.80005" lon="6.29218">
        <ele>2241</ele>
        <time>2024-08-13T05:11:34Z</time>
      </trkpt>
      <trkpt lat="44.80006" lon="6.29219">
        <ele>2240.4</ele>
        <time>2024-08-13T05:11:35Z</time>
      </trkpt>
      <trkpt lat="44.80006" lon="6.29219">
        <ele>2240.2</ele>
        <time>2024-08-13T05:11:36Z</time>
      </trkpt>
      <trkpt lat="44.80006" lon="6.29219">
        <ele>2240</ele>
        <time>2024-08-13T05:11:37Z</time>
      </trkpt>
      <trkpt lat="44.80006" lon="6.29219">
        <ele>2239.8</ele>
        <time>2024-08-13T05:11:38Z</time>
      </trkpt>
      <trkpt lat="44.80008" lon="6.2922">
        <ele>2239.6</ele>
        <time>2024-08-13T05:11:39Z</time>
      </trkpt>
      <trkpt lat="44.80008" lon="6.2922">
        <ele>2239.6</ele>
        <time>2024-08-13T05:11:40Z</time>
      </trkpt>
      <trkpt lat="44.80008" lon="6.2922">
        <ele>2239.4</ele>
        <time>2024-08-13T05:11:41Z</time>
      </trkpt>
      <trkpt lat="44.8001" lon="6.2922">
        <ele>2239.2</ele>
        <time>2024-08-13T05:11:42Z</time>
      </trkpt>
      <trkpt lat="44.8001" lon="6.2922">
        <ele>2239</ele>
        <time>2024-08-13T05:11:43Z</time>
      </trkpt>
      <trkpt lat="44.8001" lon="6.2922">
        <ele>2239</ele>
        <time>2024-08-13T05:11:44Z</time>
      </trkpt>
      <trkpt lat="44.80013" lon="6.2922">
        <ele>2238.2</ele>
        <time>2024-08-13T05:11:45Z</time>
      </trkpt>
      <trkpt lat="44.80013" lon="6.2922">
        <ele>2237.8</ele>
        <time>2024-08-13T05:11:46Z</time>
      </trkpt>
      <trkpt lat="44.80014" lon="6.2922">
        <ele>2237.8</ele>
        <time>2024-08-13T05:11:47Z</time>
      </trkpt>
      <trkpt lat="44.80014" lon="6.2922">
        <ele>2237.8</ele>
        <time>2024-08-13T05:11:48Z</time>
      </trkpt>
      <trkpt lat="44.80016" lon="6.29219">
        <ele>2237.2</ele>
        <time>2024-08-13T05:11:49Z</time>
      </trkpt>
      <trkpt lat="44.80016" lon="6.29219">
        <ele>2237.2</ele>
        <time>2024-08-13T05:11:50Z</time>
      </trkpt>
      <trkpt lat="44.80016" lon="6.29219">
        <ele>2237.2</ele>
        <time>2024-08-13T05:11:51Z</time>
      </trkpt>
      <trkpt lat="44.80019" lon="6.29219">
        <ele>2237.2</ele>
        <time>2024-08-13T05:11:52Z</time>
      </trkpt>
      <trkpt lat="44.80019" lon="6.29219">
        <ele>2236.6</ele>
        <time>2024-08-13T05:11:53Z</time>
      </trkpt>
      <trkpt lat="44.80019" lon="6.29219">
        <ele>2236.4</ele>
        <time>2024-08-13T05:11:54Z</time>
      </trkpt>
      <trkpt lat="44.80021" lon="6.29221">
        <ele>2236</ele>
        <time>2024-08-13T05:11:55Z</time>
      </trkpt>
      <trkpt lat="44.80021" lon="6.29221">
        <ele>2235.4</ele>
        <time>2024-08-13T05:11:56Z</time>
      </trkpt>
      <trkpt lat="44.80022" lon="6.29221">
        <ele>2235.2</ele>
        <time>2024-08-13T05:11:57Z</time>
      </trkpt>
      <trkpt lat="44.80022" lon="6.29221">
        <ele>2235.2</ele>
        <time>2024-08-13T05:11:58Z</time>
      </trkpt>
      <trkpt lat="44.80022" lon="6.29221">
        <ele>2235</ele>
        <time>2024-08-13T05:11:59Z</time>
      </trkpt>
      <trkpt lat="44.80025" lon="6.29221">
        <ele>2234.4</ele>
        <time>2024-08-13T05:12:00Z</time>
      </trkpt>
      <trkpt lat="44.80025" lon="6.29221">
        <ele>2234.4</ele>
        <time>2024-08-13T05:12:01Z</time>
      </trkpt>
      <trkpt lat="44.80027" lon="6.29221">
        <ele>2234.4</ele>
        <time>2024-08-13T05:12:02Z</time>
      </trkpt>
      <trkpt lat="44.80027" lon="6.29221">
        <ele>2234</ele>
        <time>2024-08-13T05:12:03Z</time>
      </trkpt>
      <trkpt lat="44.80027" lon="6.29221">
        <ele>2234</ele>
        <time>2024-08-13T05:12:04Z</time>
      </trkpt>
      <trkpt lat="44.80029" lon="6.29222">
        <ele>2233.6</ele>
        <time>2024-08-13T05:12:05Z</time>
      </trkpt>
      <trkpt lat="44.80029" lon="6.29222">
        <ele>2233.2</ele>
        <time>2024-08-13T05:12:06Z</time>
      </trkpt>
      <trkpt lat="44.80029" lon="6.29222">
        <ele>2233</ele>
        <time>2024-08-13T05:12:07Z</time>
      </trkpt>
      <trkpt lat="44.80029" lon="6.29222">
        <ele>2232.8</ele>
        <time>2024-08-13T05:12:08Z</time>
      </trkpt>
      <trkpt lat="44.80032" lon="6.29223">
        <ele>2232.4</ele>
        <time>2024-08-13T05:12:09Z</time>
      </trkpt>
      <trkpt lat="44.80032" lon="6.29223">
        <ele>2232.4</ele>
        <time>2024-08-13T05:12:10Z</time>
      </trkpt>
      <trkpt lat="44.80034" lon="6.29223">
        <ele>2232</ele>
        <time>2024-08-13T05:12:11Z</time>
      </trkpt>
      <trkpt lat="44.80034" lon="6.29223">
        <ele>2232</ele>
        <time>2024-08-13T05:12:12Z</time>
      </trkpt>
      <trkpt lat="44.80036" lon="6.29223">
        <ele>2231.6</ele>
        <time>2024-08-13T05:12:13Z</time>
      </trkpt>
      <trkpt lat="44.80036" lon="6.29223">
        <ele>2231.4</ele>
        <time>2024-08-13T05:12:14Z</time>
      </trkpt>
      <trkpt lat="44.80038" lon="6.29221">
        <ele>2231.2</ele>
        <time>2024-08-13T05:12:15Z</time>
      </trkpt>
      <trkpt lat="44.80038" lon="6.29221">
        <ele>2231</ele>
        <time>2024-08-13T05:12:16Z</time>
      </trkpt>
      <trkpt lat="44.8004" lon="6.29219">
        <ele>2231</ele>
        <time>2024-08-13T05:12:17Z</time>
      </trkpt>
      <trkpt lat="44.8004" lon="6.29219">
        <ele>2230.8</ele>
        <time>2024-08-13T05:12:18Z</time>
      </trkpt>
      <trkpt lat="44.80042" lon="6.29218">
        <ele>2230.6</ele>
        <time>2024-08-13T05:12:19Z</time>
      </trkpt>
      <trkpt lat="44.80042" lon="6.29218">
        <ele>2230.2</ele>
        <time>2024-08-13T05:12:20Z</time>
      </trkpt>
      <trkpt lat="44.80044" lon="6.29217">
        <ele>2230.2</ele>
        <time>2024-08-13T05:12:21Z</time>
      </trkpt>
      <trkpt lat="44.80044" lon="6.29217">
        <ele>2230.2</ele>
        <time>2024-08-13T05:12:22Z</time>
      </trkpt>
      <trkpt lat="44.80047" lon="6.29215">
        <ele>2230.2</ele>
        <time>2024-08-13T05:12:23Z</time>
      </trkpt>
      <trkpt lat="44.80047" lon="6.29215">
        <ele>2230</ele>
        <time>2024-08-13T05:12:24Z</time>
      </trkpt>
      <trkpt lat="44.80048" lon="6.29214">
        <ele>2230</ele>
        <time>2024-08-13T05:12:25Z</time>
      </trkpt>
      <trkpt lat="44.80048" lon="6.29214">
        <ele>2230</ele>
        <time>2024-08-13T05:12:26Z</time>
      </trkpt>
      <trkpt lat="44.80048" lon="6.29214">
        <ele>2230</ele>
        <time>2024-08-13T05:12:27Z</time>
      </trkpt>
      <trkpt lat="44.80051" lon="6.29212">
        <ele>2229.8</ele>
        <time>2024-08-13T05:12:28Z</time>
      </trkpt>
      <trkpt lat="44.80051" lon="6.29212">
        <ele>2229.8</ele>
        <time>2024-08-13T05:12:29Z</time>
      </trkpt>
      <trkpt lat="44.80051" lon="6.29212">
        <ele>2229.6</ele>
        <time>2024-08-13T05:12:30Z</time>
      </trkpt>
      <trkpt lat="44.80054" lon="6.29212">
        <ele>2229.2</ele>
        <time>2024-08-13T05:12:31Z</time>
      </trkpt>
      <trkpt lat="44.80054" lon="6.29212">
        <ele>2229.2</ele>
        <time>2024-08-13T05:12:32Z</time>
      </trkpt>
      <trkpt lat="44.80054" lon="6.29212">
        <ele>2229.2</ele>
        <time>2024-08-13T05:12:33Z</time>
      </trkpt>
      <trkpt lat="44.80056" lon="6.29211">
        <ele>2228.8</ele>
        <time>2024-08-13T05:12:34Z</time>
      </trkpt>
      <trkpt lat="44.80056" lon="6.29211">
        <ele>2228.8</ele>
        <time>2024-08-13T05:12:35Z</time>
      </trkpt>
      <trkpt lat="44.80058" lon="6.29212">
        <ele>2228.4</ele>
        <time>2024-08-13T05:12:36Z</time>
      </trkpt>
      <trkpt lat="44.80058" lon="6.29212">
        <ele>2228.4</ele>
        <time>2024-08-13T05:12:37Z</time>
      </trkpt>
      <trkpt lat="44.80058" lon="6.29212">
        <ele>2228.4</ele>
        <time>2024-08-13T05:12:38Z</time>
      </trkpt>
      <trkpt lat="44.8006" lon="6.29211">
        <ele>2228.2</ele>
        <time>2024-08-13T05:12:39Z</time>
      </trkpt>
      <trkpt lat="44.8006" lon="6.29211">
        <ele>2228</ele>
        <time>2024-08-13T05:12:40Z</time>
      </trkpt>
      <trkpt lat="44.80061" lon="6.29209">
        <ele>2227.8</ele>
        <time>2024-08-13T05:12:41Z</time>
      </trkpt>
      <trkpt lat="44.80061" lon="6.29209">
        <ele>2227.2</ele>
        <time>2024-08-13T05:12:42Z</time>
      </trkpt>
      <trkpt lat="44.80061" lon="6.29209">
        <ele>2227</ele>
        <time>2024-08-13T05:12:43Z</time>
      </trkpt>
      <trkpt lat="44.80063" lon="6.29212">
        <ele>2227</ele>
        <time>2024-08-13T05:12:44Z</time>
      </trkpt>
      <trkpt lat="44.80063" lon="6.29212">
        <ele>2226.8</ele>
        <time>2024-08-13T05:12:45Z</time>
      </trkpt>
      <trkpt lat="44.80063" lon="6.29212">
        <ele>2226.6</ele>
        <time>2024-08-13T05:12:46Z</time>
      </trkpt>
      <trkpt lat="44.80063" lon="6.29212">
        <ele>2226.2</ele>
        <time>2024-08-13T05:12:47Z</time>
      </trkpt>
      <trkpt lat="44.80065" lon="6.29211">
        <ele>2226.2</ele>
        <time>2024-08-13T05:12:48Z</time>
      </trkpt>
      <trkpt lat="44.80065" lon="6.29211">
        <ele>2226</ele>
        <time>2024-08-13T05:12:49Z</time>
      </trkpt>
      <trkpt lat="44.80067" lon="6.29209">
        <ele>2225.8</ele>
        <time>2024-08-13T05:12:50Z</time>
      </trkpt>
      <trkpt lat="44.80067" lon="6.29209">
        <ele>2225.6</ele>
        <time>2024-08-13T05:12:51Z</time>
      </trkpt>
      <trkpt lat="44.80069" lon="6.29207">
        <ele>2225.4</ele>
        <time>2024-08-13T05:12:52Z</time>
      </trkpt>
      <trkpt lat="44.80069" lon="6.29207">
        <ele>2225.4</ele>
        <time>2024-08-13T05:12:53Z</time>
      </trkpt>
      <trkpt lat="44.8007" lon="6.29205">
        <ele>2225.4</ele>
        <time>2024-08-13T05:12:54Z</time>
      </trkpt>
      <trkpt lat="44.8007" lon="6.29205">
        <ele>2225</ele>
        <time>2024-08-13T05:12:55Z</time>
      </trkpt>
      <trkpt lat="44.80072" lon="6.29203">
        <ele>2225</ele>
        <time>2024-08-13T05:12:56Z</time>
      </trkpt>
      <trkpt lat="44.80072" lon="6.29203">
        <ele>2224.8</ele>
        <time>2024-08-13T05:12:57Z</time>
      </trkpt>
      <trkpt lat="44.80072" lon="6.29203">
        <ele>2224.6</ele>
        <time>2024-08-13T05:12:58Z</time>
      </trkpt>
      <trkpt lat="44.80074" lon="6.29201">
        <ele>2224.4</ele>
        <time>2024-08-13T05:12:59Z</time>
      </trkpt>
      <trkpt lat="44.80074" lon="6.29201">
        <ele>2224.2</ele>
        <time>2024-08-13T05:13:00Z</time>
      </trkpt>
      <trkpt lat="44.80076" lon="6.29199">
        <ele>2224</ele>
        <time>2024-08-13T05:13:01Z</time>
      </trkpt>
      <trkpt lat="44.80076" lon="6.29199">
        <ele>2223.8</ele>
        <time>2024-08-13T05:13:02Z</time>
      </trkpt>
      <trkpt lat="44.80076" lon="6.29199">
        <ele>2223.8</ele>
        <time>2024-08-13T05:13:03Z</time>
      </trkpt>
      <trkpt lat="44.80077" lon="6.29201">
        <ele>2223.4</ele>
        <time>2024-08-13T05:13:04Z</time>
      </trkpt>
      <trkpt lat="44.80077" lon="6.29201">
        <ele>2223.2</ele>
        <time>2024-08-13T05:13:05Z</time>
      </trkpt>
      <trkpt lat="44.80076" lon="6.29205">
        <ele>2223.2</ele>
        <time>2024-08-13T05:13:06Z</time>
      </trkpt>
      <trkpt lat="44.80076" lon="6.29205">
        <ele>2222.8</ele>
        <time>2024-08-13T05:13:07Z</time>
      </trkpt>
      <trkpt lat="44.80076" lon="6.29208">
        <ele>2222.4</ele>
        <time>2024-08-13T05:13:08Z</time>
      </trkpt>
      <trkpt lat="44.80076" lon="6.29208">
        <ele>2222.2</ele>
        <time>2024-08-13T05:13:09Z</time>
      </trkpt>
      <trkpt lat="44.80076" lon="6.2921">
        <ele>2222</ele>
        <time>2024-08-13T05:13:10Z</time>
      </trkpt>
      <trkpt lat="44.80076" lon="6.2921">
        <ele>2221.6</ele>
        <time>2024-08-13T05:13:11Z</time>
      </trkpt>
      <trkpt lat="44.80076" lon="6.29213">
        <ele>2221.4</ele>
        <time>2024-08-13T05:13:12Z</time>
      </trkpt>
      <trkpt lat="44.80076" lon="6.29213">
        <ele>2221.2</ele>
        <time>2024-08-13T05:13:13Z</time>
      </trkpt>
      <trkpt lat="44.80077" lon="6.29216">
        <ele>2221</ele>
        <time>2024-08-13T05:13:14Z</time>
      </trkpt>
      <trkpt lat="44.80077" lon="6.29216">
        <ele>2220.6</ele>
        <time>2024-08-13T05:13:15Z</time>
      </trkpt>
      <trkpt lat="44.80076" lon="6.29219">
        <ele>2220.6</ele>
        <time>2024-08-13T05:13:16Z</time>
      </trkpt>
      <trkpt lat="44.80076" lon="6.29219">
        <ele>2220.4</ele>
        <time>2024-08-13T05:13:17Z</time>
      </trkpt>
      <trkpt lat="44.80076" lon="6.29219">
        <ele>2220.2</ele>
        <time>2024-08-13T05:13:18Z</time>
      </trkpt>
      <trkpt lat="44.80076" lon="6.29219">
        <ele>2219.6</ele>
        <time>2024-08-13T05:13:19Z</time>
      </trkpt>
      <trkpt lat="44.80076" lon="6.29219">
        <ele>2219.2</ele>
        <time>2024-08-13T05:13:20Z</time>
      </trkpt>
      <trkpt lat="44.80078" lon="6.29219">
        <ele>2219.2</ele>
        <time>2024-08-13T05:13:21Z</time>
      </trkpt>
      <trkpt lat="44.80078" lon="6.29219">
        <ele>2219</ele>
        <time>2024-08-13T05:13:22Z</time>
      </trkpt>
      <trkpt lat="44.8008" lon="6.29217">
        <ele>2218.6</ele>
        <time>2024-08-13T05:13:23Z</time>
      </trkpt>
      <trkpt lat="44.8008" lon="6.29217">
        <ele>2218.4</ele>
        <time>2024-08-13T05:13:24Z</time>
      </trkpt>
      <trkpt lat="44.80082" lon="6.29214">
        <ele>2218.2</ele>
        <time>2024-08-13T05:13:25Z</time>
      </trkpt>
      <trkpt lat="44.80082" lon="6.29214">
        <ele>2218</ele>
        <time>2024-08-13T05:13:26Z</time>
      </trkpt>
      <trkpt lat="44.80082" lon="6.29214">
        <ele>2218</ele>
        <time>2024-08-13T05:13:27Z</time>
      </trkpt>
      <trkpt lat="44.80083" lon="6.29211">
        <ele>2218</ele>
        <time>2024-08-13T05:13:28Z</time>
      </trkpt>
      <trkpt lat="44.80083" lon="6.29211">
        <ele>2217.8</ele>
        <time>2024-08-13T05:13:29Z</time>
      </trkpt>
      <trkpt lat="44.80083" lon="6.29208">
        <ele>2217.4</ele>
        <time>2024-08-13T05:13:30Z</time>
      </trkpt>
      <trkpt lat="44.80083" lon="6.29208">
        <ele>2217.4</ele>
        <time>2024-08-13T05:13:31Z</time>
      </trkpt>
      <trkpt lat="44.80083" lon="6.29208">
        <ele>2217.2</ele>
        <time>2024-08-13T05:13:32Z</time>
      </trkpt>
      <trkpt lat="44.80085" lon="6.29207">
        <ele>2216.8</ele>
        <time>2024-08-13T05:13:33Z</time>
      </trkpt>
      <trkpt lat="44.80085" lon="6.29207">
        <ele>2216.8</ele>
        <time>2024-08-13T05:13:34Z</time>
      </trkpt>
      <trkpt lat="44.80086" lon="6.29209">
        <ele>2216.6</ele>
        <time>2024-08-13T05:13:35Z</time>
      </trkpt>
      <trkpt lat="44.80086" lon="6.29209">
        <ele>2216.4</ele>
        <time>2024-08-13T05:13:36Z</time>
      </trkpt>
      <trkpt lat="44.80086" lon="6.29209">
        <ele>2216.2</ele>
        <time>2024-08-13T05:13:37Z</time>
      </trkpt>
      <trkpt lat="44.80086" lon="6.29209">
        <ele>2216</ele>
        <time>2024-08-13T05:13:38Z</time>
      </trkpt>
      <trkpt lat="44.80088" lon="6.29209">
        <ele>2216</ele>
        <time>2024-08-13T05:13:39Z</time>
      </trkpt>
      <trkpt lat="44.80088" lon="6.29209">
        <ele>2215.8</ele>
        <time>2024-08-13T05:13:40Z</time>
      </trkpt>
      <trkpt lat="44.8009" lon="6.29206">
        <ele>2215.8</ele>
        <time>2024-08-13T05:13:41Z</time>
      </trkpt>
      <trkpt lat="44.8009" lon="6.29206">
        <ele>2215.6</ele>
        <time>2024-08-13T05:13:42Z</time>
      </trkpt>
      <trkpt lat="44.80091" lon="6.29203">
        <ele>2215.4</ele>
        <time>2024-08-13T05:13:43Z</time>
      </trkpt>
      <trkpt lat="44.80091" lon="6.29203">
        <ele>2215.2</ele>
        <time>2024-08-13T05:13:44Z</time>
      </trkpt>
      <trkpt lat="44.80093" lon="6.29201">
        <ele>2214.8</ele>
        <time>2024-08-13T05:13:45Z</time>
      </trkpt>
      <trkpt lat="44.80093" lon="6.29201">
        <ele>2214.6</ele>
        <time>2024-08-13T05:13:46Z</time>
      </trkpt>
      <trkpt lat="44.80094" lon="6.292">
        <ele>2214.6</ele>
        <time>2024-08-13T05:13:47Z</time>
      </trkpt>
      <trkpt lat="44.80094" lon="6.292">
        <ele>2214.2</ele>
        <time>2024-08-13T05:13:48Z</time>
      </trkpt>
      <trkpt lat="44.80096" lon="6.29197">
        <ele>2213.8</ele>
        <time>2024-08-13T05:13:49Z</time>
      </trkpt>
      <trkpt lat="44.80096" lon="6.29197">
        <ele>2213.6</ele>
        <time>2024-08-13T05:13:50Z</time>
      </trkpt>
      <trkpt lat="44.80097" lon="6.29195">
        <ele>2213.6</ele>
        <time>2024-08-13T05:13:51Z</time>
      </trkpt>
      <trkpt lat="44.80097" lon="6.29195">
        <ele>2213.6</ele>
        <time>2024-08-13T05:13:52Z</time>
      </trkpt>
      <trkpt lat="44.80099" lon="6.29193">
        <ele>2213.2</ele>
        <time>2024-08-13T05:13:53Z</time>
      </trkpt>
      <trkpt lat="44.80099" lon="6.29193">
        <ele>2212.8</ele>
        <time>2024-08-13T05:13:54Z</time>
      </trkpt>
      <trkpt lat="44.80101" lon="6.2919">
        <ele>2212.6</ele>
        <time>2024-08-13T05:13:55Z</time>
      </trkpt>
      <trkpt lat="44.80101" lon="6.2919">
        <ele>2212.6</ele>
        <time>2024-08-13T05:13:56Z</time>
      </trkpt>
      <trkpt lat="44.80102" lon="6.29188">
        <ele>2212.6</ele>
        <time>2024-08-13T05:13:57Z</time>
      </trkpt>
      <trkpt lat="44.80102" lon="6.29188">
        <ele>2212.6</ele>
        <time>2024-08-13T05:13:58Z</time>
      </trkpt>
      <trkpt lat="44.80104" lon="6.29186">
        <ele>2212.4</ele>
        <time>2024-08-13T05:13:59Z</time>
      </trkpt>
      <trkpt lat="44.80104" lon="6.29186">
        <ele>2211.8</ele>
        <time>2024-08-13T05:14:00Z</time>
      </trkpt>
      <trkpt lat="44.80106" lon="6.29183">
        <ele>2211.8</ele>
        <time>2024-08-13T05:14:01Z</time>
      </trkpt>
      <trkpt lat="44.80106" lon="6.29183">
        <ele>2211.6</ele>
        <time>2024-08-13T05:14:02Z</time>
      </trkpt>
      <trkpt lat="44.80107" lon="6.2918">
        <ele>2211.6</ele>
        <time>2024-08-13T05:14:03Z</time>
      </trkpt>
      <trkpt lat="44.80107" lon="6.2918">
        <ele>2211.6</ele>
        <time>2024-08-13T05:14:04Z</time>
      </trkpt>
      <trkpt lat="44.80107" lon="6.29177">
        <ele>2211.2</ele>
        <time>2024-08-13T05:14:05Z</time>
      </trkpt>
      <trkpt lat="44.80107" lon="6.29177">
        <ele>2211</ele>
        <time>2024-08-13T05:14:06Z</time>
      </trkpt>
      <trkpt lat="44.80106" lon="6.29175">
        <ele>2210.6</ele>
        <time>2024-08-13T05:14:07Z</time>
      </trkpt>
      <trkpt lat="44.80106" lon="6.29175">
        <ele>2210.4</ele>
        <time>2024-08-13T05:14:08Z</time>
      </trkpt>
      <trkpt lat="44.80104" lon="6.29173">
        <ele>2210.2</ele>
        <time>2024-08-13T05:14:09Z</time>
      </trkpt>
      <trkpt lat="44.80104" lon="6.29173">
        <ele>2210</ele>
        <time>2024-08-13T05:14:10Z</time>
      </trkpt>
      <trkpt lat="44.80102" lon="6.29172">
        <ele>2210</ele>
        <time>2024-08-13T05:14:11Z</time>
      </trkpt>
      <trkpt lat="44.80102" lon="6.29172">
        <ele>2209.6</ele>
        <time>2024-08-13T05:14:12Z</time>
      </trkpt>
      <trkpt lat="44.801" lon="6.29171">
        <ele>2209.6</ele>
        <time>2024-08-13T05:14:13Z</time>
      </trkpt>
      <trkpt lat="44.801" lon="6.29171">
        <ele>2209.4</ele>
        <time>2024-08-13T05:14:14Z</time>
      </trkpt>
      <trkpt lat="44.80098" lon="6.29169">
        <ele>2209.2</ele>
        <time>2024-08-13T05:14:15Z</time>
      </trkpt>
      <trkpt lat="44.80098" lon="6.29169">
        <ele>2209</ele>
        <time>2024-08-13T05:14:16Z</time>
      </trkpt>
      <trkpt lat="44.80098" lon="6.29169">
        <ele>2208.6</ele>
        <time>2024-08-13T05:14:17Z</time>
      </trkpt>
      <trkpt lat="44.80098" lon="6.29169">
        <ele>2208.4</ele>
        <time>2024-08-13T05:14:18Z</time>
      </trkpt>
      <trkpt lat="44.80098" lon="6.29169">
        <ele>2208.4</ele>
        <time>2024-08-13T05:14:19Z</time>
      </trkpt>
      <trkpt lat="44.80101" lon="6.29168">
        <ele>2208.2</ele>
        <time>2024-08-13T05:14:20Z</time>
      </trkpt>
      <trkpt lat="44.80101" lon="6.29168">
        <ele>2208.2</ele>
        <time>2024-08-13T05:14:21Z</time>
      </trkpt>
      <trkpt lat="44.80103" lon="6.29168">
        <ele>2208</ele>
        <time>2024-08-13T05:14:22Z</time>
      </trkpt>
      <trkpt lat="44.80103" lon="6.29168">
        <ele>2208</ele>
        <time>2024-08-13T05:14:23Z</time>
      </trkpt>
      <trkpt lat="44.80106" lon="6.29168">
        <ele>2207.8</ele>
        <time>2024-08-13T05:14:24Z</time>
      </trkpt>
      <trkpt lat="44.80106" lon="6.29168">
        <ele>2207.4</ele>
        <time>2024-08-13T05:14:25Z</time>
      </trkpt>
      <trkpt lat="44.80108" lon="6.29169">
        <ele>2207.2</ele>
        <time>2024-08-13T05:14:26Z</time>
      </trkpt>
      <trkpt lat="44.80108" lon="6.29169">
        <ele>2207</ele>
        <time>2024-08-13T05:14:27Z</time>
      </trkpt>
      <trkpt lat="44.8011" lon="6.29169">
        <ele>2206.8</ele>
        <time>2024-08-13T05:14:28Z</time>
      </trkpt>
      <trkpt lat="44.8011" lon="6.29169">
        <ele>2206.6</ele>
        <time>2024-08-13T05:14:29Z</time>
      </trkpt>
      <trkpt lat="44.80113" lon="6.2917">
        <ele>2206.6</ele>
        <time>2024-08-13T05:14:30Z</time>
      </trkpt>
      <trkpt lat="44.80113" lon="6.2917">
        <ele>2206.4</ele>
        <time>2024-08-13T05:14:31Z</time>
      </trkpt>
      <trkpt lat="44.80116" lon="6.2917">
        <ele>2206</ele>
        <time>2024-08-13T05:14:32Z</time>
      </trkpt>
      <trkpt lat="44.80116" lon="6.2917">
        <ele>2205.8</ele>
        <time>2024-08-13T05:14:33Z</time>
      </trkpt>
      <trkpt lat="44.80118" lon="6.2917">
        <ele>2205.8</ele>
        <time>2024-08-13T05:14:34Z</time>
      </trkpt>
      <trkpt lat="44.80118" lon="6.2917">
        <ele>2205.6</ele>
        <time>2024-08-13T05:14:35Z</time>
      </trkpt>
      <trkpt lat="44.80119" lon="6.29171">
        <ele>2205.6</ele>
        <time>2024-08-13T05:14:36Z</time>
      </trkpt>
      <trkpt lat="44.80119" lon="6.29171">
        <ele>2205.4</ele>
        <time>2024-08-13T05:14:37Z</time>
      </trkpt>
      <trkpt lat="44.80121" lon="6.29173">
        <ele>2205.2</ele>
        <time>2024-08-13T05:14:38Z</time>
      </trkpt>
      <trkpt lat="44.80121" lon="6.29173">
        <ele>2204.8</ele>
        <time>2024-08-13T05:14:39Z</time>
      </trkpt>
      <trkpt lat="44.80124" lon="6.29174">
        <ele>2204.6</ele>
        <time>2024-08-13T05:14:40Z</time>
      </trkpt>
      <trkpt lat="44.80124" lon="6.29174">
        <ele>2204.4</ele>
        <time>2024-08-13T05:14:41Z</time>
      </trkpt>
      <trkpt lat="44.80125" lon="6.29176">
        <ele>2204.4</ele>
        <time>2024-08-13T05:14:42Z</time>
      </trkpt>
      <trkpt lat="44.80125" lon="6.29176">
        <ele>2204.4</ele>
        <time>2024-08-13T05:14:43Z</time>
      </trkpt>
      <trkpt lat="44.80125" lon="6.29176">
        <ele>2204.2</ele>
        <time>2024-08-13T05:14:44Z</time>
      </trkpt>
      <trkpt lat="44.80125" lon="6.2918">
        <ele>2204</ele>
        <time>2024-08-13T05:14:45Z</time>
      </trkpt>
      <trkpt lat="44.80125" lon="6.2918">
        <ele>2203.8</ele>
        <time>2024-08-13T05:14:46Z</time>
      </trkpt>
      <trkpt lat="44.80125" lon="6.29183">
        <ele>2202.8</ele>
        <time>2024-08-13T05:14:47Z</time>
      </trkpt>
      <trkpt lat="44.80125" lon="6.29183">
        <ele>2202.8</ele>
        <time>2024-08-13T05:14:48Z</time>
      </trkpt>
      <trkpt lat="44.80125" lon="6.29187">
        <ele>2202.6</ele>
        <time>2024-08-13T05:14:49Z</time>
      </trkpt>
      <trkpt lat="44.80125" lon="6.29187">
        <ele>2202.2</ele>
        <time>2024-08-13T05:14:50Z</time>
      </trkpt>
      <trkpt lat="44.80125" lon="6.2919">
        <ele>2202</ele>
        <time>2024-08-13T05:14:51Z</time>
      </trkpt>
      <trkpt lat="44.80125" lon="6.2919">
        <ele>2201.8</ele>
        <time>2024-08-13T05:14:52Z</time>
      </trkpt>
      <trkpt lat="44.80124" lon="6.29194">
        <ele>2201.6</ele>
        <time>2024-08-13T05:14:53Z</time>
      </trkpt>
      <trkpt lat="44.80124" lon="6.29194">
        <ele>2201.4</ele>
        <time>2024-08-13T05:14:54Z</time>
      </trkpt>
      <trkpt lat="44.80124" lon="6.29197">
        <ele>2201.4</ele>
        <time>2024-08-13T05:14:55Z</time>
      </trkpt>
      <trkpt lat="44.80124" lon="6.29197">
        <ele>2201.2</ele>
        <time>2024-08-13T05:14:56Z</time>
      </trkpt>
      <trkpt lat="44.80124" lon="6.292">
        <ele>2201</ele>
        <time>2024-08-13T05:14:57Z</time>
      </trkpt>
      <trkpt lat="44.80124" lon="6.292">
        <ele>2201</ele>
        <time>2024-08-13T05:14:58Z</time>
      </trkpt>
      <trkpt lat="44.80125" lon="6.29203">
        <ele>2200.6</ele>
        <time>2024-08-13T05:14:59Z</time>
      </trkpt>
      <trkpt lat="44.80125" lon="6.29203">
        <ele>2200.2</ele>
        <time>2024-08-13T05:15:00Z</time>
      </trkpt>
      <trkpt lat="44.80126" lon="6.29205">
        <ele>2200.2</ele>
        <time>2024-08-13T05:15:01Z</time>
      </trkpt>
      <trkpt lat="44.80126" lon="6.29205">
        <ele>2200</ele>
        <time>2024-08-13T05:15:02Z</time>
      </trkpt>
      <trkpt lat="44.80127" lon="6.29208">
        <ele>2200</ele>
        <time>2024-08-13T05:15:03Z</time>
      </trkpt>
      <trkpt lat="44.80127" lon="6.29208">
        <ele>2200</ele>
        <time>2024-08-13T05:15:04Z</time>
      </trkpt>
      <trkpt lat="44.80128" lon="6.29211">
        <ele>2199.8</ele>
        <time>2024-08-13T05:15:05Z</time>
      </trkpt>
      <trkpt lat="44.80128" lon="6.29211">
        <ele>2199.4</ele>
        <time>2024-08-13T05:15:06Z</time>
      </trkpt>
      <trkpt lat="44.80128" lon="6.29211">
        <ele>2199.2</ele>
        <time>2024-08-13T05:15:07Z</time>
      </trkpt>
      <trkpt lat="44.80127" lon="6.29214">
        <ele>2199</ele>
        <time>2024-08-13T05:15:08Z</time>
      </trkpt>
      <trkpt lat="44.80127" lon="6.29214">
        <ele>2199</ele>
        <time>2024-08-13T05:15:09Z</time>
      </trkpt>
      <trkpt lat="44.80126" lon="6.29217">
        <ele>2198.4</ele>
        <time>2024-08-13T05:15:10Z</time>
      </trkpt>
      <trkpt lat="44.80126" lon="6.29217">
        <ele>2198.4</ele>
        <time>2024-08-13T05:15:11Z</time>
      </trkpt>
      <trkpt lat="44.80126" lon="6.29217">
        <ele>2198.4</ele>
        <time>2024-08-13T05:15:12Z</time>
      </trkpt>
      <trkpt lat="44.80125" lon="6.2922">
        <ele>2198</ele>
        <time>2024-08-13T05:15:13Z</time>
      </trkpt>
      <trkpt lat="44.80125" lon="6.2922">
        <ele>2197.8</ele>
        <time>2024-08-13T05:15:14Z</time>
      </trkpt>
      <trkpt lat="44.80125" lon="6.2922">
        <ele>2197.2</ele>
        <time>2024-08-13T05:15:15Z</time>
      </trkpt>
      <trkpt lat="44.80125" lon="6.2922">
        <ele>2197.2</ele>
        <time>2024-08-13T05:15:16Z</time>
      </trkpt>
      <trkpt lat="44.80127" lon="6.29219">
        <ele>2197</ele>
        <time>2024-08-13T05:15:17Z</time>
      </trkpt>
      <trkpt lat="44.80127" lon="6.29219">
        <ele>2196.6</ele>
        <time>2024-08-13T05:15:18Z</time>
      </trkpt>
      <trkpt lat="44.80129" lon="6.29218">
        <ele>2196.2</ele>
        <time>2024-08-13T05:15:19Z</time>
      </trkpt>
      <trkpt lat="44.80129" lon="6.29218">
        <ele>2196.2</ele>
        <time>2024-08-13T05:15:20Z</time>
      </trkpt>
      <trkpt lat="44.80131" lon="6.29217">
        <ele>2196</ele>
        <time>2024-08-13T05:15:21Z</time>
      </trkpt>
      <trkpt lat="44.80131" lon="6.29217">
        <ele>2195.8</ele>
        <time>2024-08-13T05:15:22Z</time>
      </trkpt>
      <trkpt lat="44.80133" lon="6.29216">
        <ele>2195.8</ele>
        <time>2024-08-13T05:15:23Z</time>
      </trkpt>
      <trkpt lat="44.80133" lon="6.29216">
        <ele>2195.6</ele>
        <time>2024-08-13T05:15:24Z</time>
      </trkpt>
      <trkpt lat="44.80135" lon="6.29215">
        <ele>2195.4</ele>
        <time>2024-08-13T05:15:25Z</time>
      </trkpt>
      <trkpt lat="44.80135" lon="6.29215">
        <ele>2195.2</ele>
        <time>2024-08-13T05:15:26Z</time>
      </trkpt>
      <trkpt lat="44.80137" lon="6.29214">
        <ele>2194.8</ele>
        <time>2024-08-13T05:15:27Z</time>
      </trkpt>
      <trkpt lat="44.80137" lon="6.29214">
        <ele>2194.6</ele>
        <time>2024-08-13T05:15:28Z</time>
      </trkpt>
      <trkpt lat="44.80139" lon="6.29212">
        <ele>2194.4</ele>
        <time>2024-08-13T05:15:29Z</time>
      </trkpt>
      <trkpt lat="44.80139" lon="6.29212">
        <ele>2194</ele>
        <time>2024-08-13T05:15:30Z</time>
      </trkpt>
      <trkpt lat="44.80141" lon="6.29211">
        <ele>2194</ele>
        <time>2024-08-13T05:15:31Z</time>
      </trkpt>
      <trkpt lat="44.80141" lon="6.29211">
        <ele>2193.8</ele>
        <time>2024-08-13T05:15:32Z</time>
      </trkpt>
      <trkpt lat="44.80144" lon="6.29209">
        <ele>2193.4</ele>
        <time>2024-08-13T05:15:33Z</time>
      </trkpt>
      <trkpt lat="44.80144" lon="6.29209">
        <ele>2193.2</ele>
        <time>2024-08-13T05:15:34Z</time>
      </trkpt>
      <trkpt lat="44.80145" lon="6.29207">
        <ele>2193</ele>
        <time>2024-08-13T05:15:35Z</time>
      </trkpt>
      <trkpt lat="44.80145" lon="6.29207">
        <ele>2192.8</ele>
        <time>2024-08-13T05:15:36Z</time>
      </trkpt>
      <trkpt lat="44.80144" lon="6.29204">
        <ele>2192.4</ele>
        <time>2024-08-13T05:15:37Z</time>
      </trkpt>
      <trkpt lat="44.80144" lon="6.29204">
        <ele>2192.4</ele>
        <time>2024-08-13T05:15:38Z</time>
      </trkpt>
      <trkpt lat="44.80143" lon="6.29201">
        <ele>2192.2</ele>
        <time>2024-08-13T05:15:39Z</time>
      </trkpt>
      <trkpt lat="44.80143" lon="6.29201">
        <ele>2192.2</ele>
        <time>2024-08-13T05:15:40Z</time>
      </trkpt>
      <trkpt lat="44.80141" lon="6.29197">
        <ele>2192.2</ele>
        <time>2024-08-13T05:15:41Z</time>
      </trkpt>
      <trkpt lat="44.80141" lon="6.29197">
        <ele>2191.6</ele>
        <time>2024-08-13T05:15:42Z</time>
      </trkpt>
      <trkpt lat="44.80141" lon="6.29194">
        <ele>2191.6</ele>
        <time>2024-08-13T05:15:43Z</time>
      </trkpt>
      <trkpt lat="44.80141" lon="6.29194">
        <ele>2191.6</ele>
        <time>2024-08-13T05:15:44Z</time>
      </trkpt>
      <trkpt lat="44.80142" lon="6.29192">
        <ele>2191.6</ele>
        <time>2024-08-13T05:15:45Z</time>
      </trkpt>
      <trkpt lat="44.80142" lon="6.29192">
        <ele>2191.4</ele>
        <time>2024-08-13T05:15:46Z</time>
      </trkpt>
      <trkpt lat="44.80142" lon="6.29192">
        <ele>2191.2</ele>
        <time>2024-08-13T05:15:47Z</time>
      </trkpt>
      <trkpt lat="44.80144" lon="6.29193">
        <ele>2191.2</ele>
        <time>2024-08-13T05:15:48Z</time>
      </trkpt>
      <trkpt lat="44.80144" lon="6.29193">
        <ele>2191.2</ele>
        <time>2024-08-13T05:15:49Z</time>
      </trkpt>
      <trkpt lat="44.80144" lon="6.29193">
        <ele>2191.2</ele>
        <time>2024-08-13T05:15:50Z</time>
      </trkpt>
      <trkpt lat="44.80145" lon="6.29196">
        <ele>2190.8</ele>
        <time>2024-08-13T05:15:51Z</time>
      </trkpt>
      <trkpt lat="44.80145" lon="6.29196">
        <ele>2190.6</ele>
        <time>2024-08-13T05:15:52Z</time>
      </trkpt>
      <trkpt lat="44.80147" lon="6.29197">
        <ele>2190.4</ele>
        <time>2024-08-13T05:15:53Z</time>
      </trkpt>
      <trkpt lat="44.80147" lon="6.29197">
        <ele>2190.2</ele>
        <time>2024-08-13T05:15:54Z</time>
      </trkpt>
      <trkpt lat="44.80149" lon="6.29198">
        <ele>2189.8</ele>
        <time>2024-08-13T05:15:55Z</time>
      </trkpt>
      <trkpt lat="44.80149" lon="6.29198">
        <ele>2189.8</ele>
        <time>2024-08-13T05:15:56Z</time>
      </trkpt>
      <trkpt lat="44.80151" lon="6.29199">
        <ele>2189.4</ele>
        <time>2024-08-13T05:15:57Z</time>
      </trkpt>
      <trkpt lat="44.80151" lon="6.29199">
        <ele>2189.2</ele>
        <time>2024-08-13T05:15:58Z</time>
      </trkpt>
      <trkpt lat="44.80153" lon="6.29201">
        <ele>2189.2</ele>
        <time>2024-08-13T05:15:59Z</time>
      </trkpt>
      <trkpt lat="44.80153" lon="6.29201">
        <ele>2189.2</ele>
        <time>2024-08-13T05:16:00Z</time>
      </trkpt>
      <trkpt lat="44.80154" lon="6.29204">
        <ele>2189.2</ele>
        <time>2024-08-13T05:16:01Z</time>
      </trkpt>
      <trkpt lat="44.80154" lon="6.29204">
        <ele>2189</ele>
        <time>2024-08-13T05:16:02Z</time>
      </trkpt>
      <trkpt lat="44.80155" lon="6.29207">
        <ele>2188.8</ele>
        <time>2024-08-13T05:16:03Z</time>
      </trkpt>
      <trkpt lat="44.80155" lon="6.29207">
        <ele>2188.6</ele>
        <time>2024-08-13T05:16:04Z</time>
      </trkpt>
      <trkpt lat="44.80155" lon="6.29207">
        <ele>2188.4</ele>
        <time>2024-08-13T05:16:05Z</time>
      </trkpt>
      <trkpt lat="44.80155" lon="6.29207">
        <ele>2188.2</ele>
        <time>2024-08-13T05:16:06Z</time>
      </trkpt>
      <trkpt lat="44.80155" lon="6.2921">
        <ele>2188</ele>
        <time>2024-08-13T05:16:07Z</time>
      </trkpt>
      <trkpt lat="44.80155" lon="6.2921">
        <ele>2187.4</ele>
        <time>2024-08-13T05:16:08Z</time>
      </trkpt>
      <trkpt lat="44.80155" lon="6.2921">
        <ele>2187.4</ele>
        <time>2024-08-13T05:16:09Z</time>
      </trkpt>
      <trkpt lat="44.80157" lon="6.29207">
        <ele>2187</ele>
        <time>2024-08-13T05:16:10Z</time>
      </trkpt>
      <trkpt lat="44.80157" lon="6.29207">
        <ele>2186.6</ele>
        <time>2024-08-13T05:16:11Z</time>
      </trkpt>
      <trkpt lat="44.80157" lon="6.29203">
        <ele>2186.6</ele>
        <time>2024-08-13T05:16:12Z</time>
      </trkpt>
      <trkpt lat="44.80157" lon="6.29203">
        <ele>2186.6</ele>
        <time>2024-08-13T05:16:13Z</time>
      </trkpt>
      <trkpt lat="44.80159" lon="6.29201">
        <ele>2186.2</ele>
        <time>2024-08-13T05:16:14Z</time>
      </trkpt>
      <trkpt lat="44.80159" lon="6.29201">
        <ele>2186</ele>
        <time>2024-08-13T05:16:15Z</time>
      </trkpt>
      <trkpt lat="44.80159" lon="6.29201">
        <ele>2185.6</ele>
        <time>2024-08-13T05:16:16Z</time>
      </trkpt>
      <trkpt lat="44.80161" lon="6.29198">
        <ele>2185.4</ele>
        <time>2024-08-13T05:16:17Z</time>
      </trkpt>
      <trkpt lat="44.80161" lon="6.29198">
        <ele>2185.4</ele>
        <time>2024-08-13T05:16:18Z</time>
      </trkpt>
      <trkpt lat="44.80162" lon="6.29201">
        <ele>2185.4</ele>
        <time>2024-08-13T05:16:19Z</time>
      </trkpt>
      <trkpt lat="44.80162" lon="6.29201">
        <ele>2185.4</ele>
        <time>2024-08-13T05:16:20Z</time>
      </trkpt>
      <trkpt lat="44.80162" lon="6.29201">
        <ele>2185.4</ele>
        <time>2024-08-13T05:16:21Z</time>
      </trkpt>
      <trkpt lat="44.80161" lon="6.29204">
        <ele>2185.2</ele>
        <time>2024-08-13T05:16:22Z</time>
      </trkpt>
      <trkpt lat="44.80161" lon="6.29204">
        <ele>2185.2</ele>
        <time>2024-08-13T05:16:23Z</time>
      </trkpt>
      <trkpt lat="44.80161" lon="6.29204">
        <ele>2184.8</ele>
        <time>2024-08-13T05:16:24Z</time>
      </trkpt>
      <trkpt lat="44.80161" lon="6.29204">
        <ele>2184.8</ele>
        <time>2024-08-13T05:16:25Z</time>
      </trkpt>
      <trkpt lat="44.80161" lon="6.29204">
        <ele>2184.6</ele>
        <time>2024-08-13T05:16:26Z</time>
      </trkpt>
      <trkpt lat="44.80161" lon="6.29204">
        <ele>2184.4</ele>
        <time>2024-08-13T05:16:27Z</time>
      </trkpt>
      <trkpt lat="44.80161" lon="6.29204">
        <ele>2184</ele>
        <time>2024-08-13T05:16:28Z</time>
      </trkpt>
      <trkpt lat="44.80163" lon="6.29203">
        <ele>2183.8</ele>
        <time>2024-08-13T05:16:29Z</time>
      </trkpt>
      <trkpt lat="44.80163" lon="6.29203">
        <ele>2183.8</ele>
        <time>2024-08-13T05:16:30Z</time>
      </trkpt>
      <trkpt lat="44.80165" lon="6.292">
        <ele>2183.6</ele>
        <time>2024-08-13T05:16:31Z</time>
      </trkpt>
      <trkpt lat="44.80165" lon="6.292">
        <ele>2183.4</ele>
        <time>2024-08-13T05:16:32Z</time>
      </trkpt>
      <trkpt lat="44.80166" lon="6.29198">
        <ele>2183</ele>
        <time>2024-08-13T05:16:33Z</time>
      </trkpt>
      <trkpt lat="44.80166" lon="6.29198">
        <ele>2182.8</ele>
        <time>2024-08-13T05:16:34Z</time>
      </trkpt>
      <trkpt lat="44.80165" lon="6.29195">
        <ele>2182.4</ele>
        <time>2024-08-13T05:16:35Z</time>
      </trkpt>
      <trkpt lat="44.80165" lon="6.29195">
        <ele>2182.2</ele>
        <time>2024-08-13T05:16:36Z</time>
      </trkpt>
      <trkpt lat="44.80165" lon="6.29193">
        <ele>2182.2</ele>
        <time>2024-08-13T05:16:37Z</time>
      </trkpt>
      <trkpt lat="44.80165" lon="6.29193">
        <ele>2182</ele>
        <time>2024-08-13T05:16:38Z</time>
      </trkpt>
      <trkpt lat="44.80163" lon="6.2919">
        <ele>2181.8</ele>
        <time>2024-08-13T05:16:39Z</time>
      </trkpt>
      <trkpt lat="44.80163" lon="6.2919">
        <ele>2181.8</ele>
        <time>2024-08-13T05:16:40Z</time>
      </trkpt>
      <trkpt lat="44.80163" lon="6.29187">
        <ele>2181.6</ele>
        <time>2024-08-13T05:16:41Z</time>
      </trkpt>
      <trkpt lat="44.80163" lon="6.29187">
        <ele>2181.6</ele>
        <time>2024-08-13T05:16:42Z</time>
      </trkpt>
      <trkpt lat="44.80165" lon="6.29187">
        <ele>2181.4</ele>
        <time>2024-08-13T05:16:43Z</time>
      </trkpt>
      <trkpt lat="44.80165" lon="6.29187">
        <ele>2181</ele>
        <time>2024-08-13T05:16:44Z</time>
      </trkpt>
      <trkpt lat="44.80166" lon="6.29189">
        <ele>2181</ele>
        <time>2024-08-13T05:16:45Z</time>
      </trkpt>
      <trkpt lat="44.80166" lon="6.29189">
        <ele>2180.8</ele>
        <time>2024-08-13T05:16:46Z</time>
      </trkpt>
      <trkpt lat="44.80167" lon="6.2919">
        <ele>2180.6</ele>
        <time>2024-08-13T05:16:47Z</time>
      </trkpt>
      <trkpt lat="44.80167" lon="6.2919">
        <ele>2180.4</ele>
        <time>2024-08-13T05:16:48Z</time>
      </trkpt>
      <trkpt lat="44.80167" lon="6.2919">
        <ele>2180.4</ele>
        <time>2024-08-13T05:16:49Z</time>
      </trkpt>
      <trkpt lat="44.80171" lon="6.29191">
        <ele>2180</ele>
        <time>2024-08-13T05:16:50Z</time>
      </trkpt>
      <trkpt lat="44.80171" lon="6.29191">
        <ele>2180</ele>
        <time>2024-08-13T05:16:51Z</time>
      </trkpt>
      <trkpt lat="44.80173" lon="6.29192">
        <ele>2180</ele>
        <time>2024-08-13T05:16:52Z</time>
      </trkpt>
      <trkpt lat="44.80173" lon="6.29192">
        <ele>2179.6</ele>
        <time>2024-08-13T05:16:53Z</time>
      </trkpt>
      <trkpt lat="44.80173" lon="6.29192">
        <ele>2179.6</ele>
        <time>2024-08-13T05:16:54Z</time>
      </trkpt>
      <trkpt lat="44.80175" lon="6.29195">
        <ele>2179.4</ele>
        <time>2024-08-13T05:16:55Z</time>
      </trkpt>
      <trkpt lat="44.80175" lon="6.29195">
        <ele>2179.2</ele>
        <time>2024-08-13T05:16:56Z</time>
      </trkpt>
      <trkpt lat="44.80175" lon="6.29198">
        <ele>2179.2</ele>
        <time>2024-08-13T05:16:57Z</time>
      </trkpt>
      <trkpt lat="44.80175" lon="6.29198">
        <ele>2179</ele>
        <time>2024-08-13T05:16:58Z</time>
      </trkpt>
      <trkpt lat="44.80174" lon="6.29201">
        <ele>2178.8</ele>
        <time>2024-08-13T05:16:59Z</time>
      </trkpt>
      <trkpt lat="44.80174" lon="6.29201">
        <ele>2178.2</ele>
        <time>2024-08-13T05:17:00Z</time>
      </trkpt>
      <trkpt lat="44.80173" lon="6.29205">
        <ele>2178.2</ele>
        <time>2024-08-13T05:17:01Z</time>
      </trkpt>
      <trkpt lat="44.80173" lon="6.29205">
        <ele>2178.2</ele>
        <time>2024-08-13T05:17:02Z</time>
      </trkpt>
      <trkpt lat="44.80173" lon="6.29208">
        <ele>2178</ele>
        <time>2024-08-13T05:17:03Z</time>
      </trkpt>
      <trkpt lat="44.80173" lon="6.29208">
        <ele>2177.6</ele>
        <time>2024-08-13T05:17:04Z</time>
      </trkpt>
      <trkpt lat="44.80173" lon="6.29211">
        <ele>2177.4</ele>
        <time>2024-08-13T05:17:05Z</time>
      </trkpt>
      <trkpt lat="44.80173" lon="6.29211">
        <ele>2177</ele>
        <time>2024-08-13T05:17:06Z</time>
      </trkpt>
      <trkpt lat="44.80173" lon="6.29211">
        <ele>2176.6</ele>
        <time>2024-08-13T05:17:07Z</time>
      </trkpt>
      <trkpt lat="44.80173" lon="6.29211">
        <ele>2176.6</ele>
        <time>2024-08-13T05:17:08Z</time>
      </trkpt>
      <trkpt lat="44.80173" lon="6.29211">
        <ele>2176.4</ele>
        <time>2024-08-13T05:17:09Z</time>
      </trkpt>
      <trkpt lat="44.80174" lon="6.29211">
        <ele>2176.2</ele>
        <time>2024-08-13T05:17:10Z</time>
      </trkpt>
      <trkpt lat="44.80174" lon="6.29211">
        <ele>2175.8</ele>
        <time>2024-08-13T05:17:11Z</time>
      </trkpt>
      <trkpt lat="44.80174" lon="6.29211">
        <ele>2175.8</ele>
        <time>2024-08-13T05:17:12Z</time>
      </trkpt>
      <trkpt lat="44.80176" lon="6.29208">
        <ele>2175.4</ele>
        <time>2024-08-13T05:17:13Z</time>
      </trkpt>
      <trkpt lat="44.80176" lon="6.29208">
        <ele>2175.2</ele>
        <time>2024-08-13T05:17:14Z</time>
      </trkpt>
      <trkpt lat="44.80176" lon="6.29208">
        <ele>2175</ele>
        <time>2024-08-13T05:17:15Z</time>
      </trkpt>
      <trkpt lat="44.80179" lon="6.29206">
        <ele>2174.8</ele>
        <time>2024-08-13T05:17:16Z</time>
      </trkpt>
      <trkpt lat="44.80179" lon="6.29206">
        <ele>2174.6</ele>
        <time>2024-08-13T05:17:17Z</time>
      </trkpt>
      <trkpt lat="44.80181" lon="6.29204">
        <ele>2174.2</ele>
        <time>2024-08-13T05:17:18Z</time>
      </trkpt>
      <trkpt lat="44.80181" lon="6.29204">
        <ele>2174</ele>
        <time>2024-08-13T05:17:19Z</time>
      </trkpt>
      <trkpt lat="44.80181" lon="6.29204">
        <ele>2173.6</ele>
        <time>2024-08-13T05:17:20Z</time>
      </trkpt>
      <trkpt lat="44.80183" lon="6.29202">
        <ele>2173.4</ele>
        <time>2024-08-13T05:17:21Z</time>
      </trkpt>
      <trkpt lat="44.80183" lon="6.29202">
        <ele>2173.2</ele>
        <time>2024-08-13T05:17:22Z</time>
      </trkpt>
      <trkpt lat="44.80184" lon="6.29199">
        <ele>2173.2</ele>
        <time>2024-08-13T05:17:23Z</time>
      </trkpt>
      <trkpt lat="44.80184" lon="6.29199">
        <ele>2173</ele>
        <time>2024-08-13T05:17:24Z</time>
      </trkpt>
      <trkpt lat="44.80185" lon="6.29196">
        <ele>2172.8</ele>
        <time>2024-08-13T05:17:25Z</time>
      </trkpt>
      <trkpt lat="44.80185" lon="6.29196">
        <ele>2172.8</ele>
        <time>2024-08-13T05:17:26Z</time>
      </trkpt>
      <trkpt lat="44.80187" lon="6.29193">
        <ele>2172.4</ele>
        <time>2024-08-13T05:17:27Z</time>
      </trkpt>
      <trkpt lat="44.80187" lon="6.29193">
        <ele>2172.2</ele>
        <time>2024-08-13T05:17:28Z</time>
      </trkpt>
      <trkpt lat="44.80188" lon="6.2919">
        <ele>2172</ele>
        <time>2024-08-13T05:17:29Z</time>
      </trkpt>
      <trkpt lat="44.80188" lon="6.2919">
        <ele>2172</ele>
        <time>2024-08-13T05:17:30Z</time>
      </trkpt>
      <trkpt lat="44.80189" lon="6.29188">
        <ele>2171.8</ele>
        <time>2024-08-13T05:17:31Z</time>
      </trkpt>
      <trkpt lat="44.80189" lon="6.29188">
        <ele>2171.6</ele>
        <time>2024-08-13T05:17:32Z</time>
      </trkpt>
      <trkpt lat="44.80189" lon="6.29188">
        <ele>2171.4</ele>
        <time>2024-08-13T05:17:33Z</time>
      </trkpt>
      <trkpt lat="44.8019" lon="6.29185">
        <ele>2171.2</ele>
        <time>2024-08-13T05:17:34Z</time>
      </trkpt>
      <trkpt lat="44.8019" lon="6.29185">
        <ele>2171</ele>
        <time>2024-08-13T05:17:35Z</time>
      </trkpt>
      <trkpt lat="44.80189" lon="6.29182">
        <ele>2170.8</ele>
        <time>2024-08-13T05:17:36Z</time>
      </trkpt>
      <trkpt lat="44.80189" lon="6.29182">
        <ele>2170.8</ele>
        <time>2024-08-13T05:17:37Z</time>
      </trkpt>
      <trkpt lat="44.80191" lon="6.29182">
        <ele>2170.4</ele>
        <time>2024-08-13T05:17:38Z</time>
      </trkpt>
      <trkpt lat="44.80191" lon="6.29182">
        <ele>2170.4</ele>
        <time>2024-08-13T05:17:39Z</time>
      </trkpt>
      <trkpt lat="44.80193" lon="6.29184">
        <ele>2170</ele>
        <time>2024-08-13T05:17:40Z</time>
      </trkpt>
      <trkpt lat="44.80193" lon="6.29184">
        <ele>2170</ele>
        <time>2024-08-13T05:17:41Z</time>
      </trkpt>
      <trkpt lat="44.80194" lon="6.29187">
        <ele>2169.8</ele>
        <time>2024-08-13T05:17:42Z</time>
      </trkpt>
      <trkpt lat="44.80194" lon="6.29187">
        <ele>2169.4</ele>
        <time>2024-08-13T05:17:43Z</time>
      </trkpt>
      <trkpt lat="44.80194" lon="6.29191">
        <ele>2169.2</ele>
        <time>2024-08-13T05:17:44Z</time>
      </trkpt>
      <trkpt lat="44.80194" lon="6.29191">
        <ele>2169</ele>
        <time>2024-08-13T05:17:45Z</time>
      </trkpt>
      <trkpt lat="44.80194" lon="6.29195">
        <ele>2168.6</ele>
        <time>2024-08-13T05:17:46Z</time>
      </trkpt>
      <trkpt lat="44.80194" lon="6.29195">
        <ele>2168.4</ele>
        <time>2024-08-13T05:17:47Z</time>
      </trkpt>
      <trkpt lat="44.80193" lon="6.29199">
        <ele>2168.4</ele>
        <time>2024-08-13T05:17:48Z</time>
      </trkpt>
      <trkpt lat="44.80193" lon="6.29199">
        <ele>2168.2</ele>
        <time>2024-08-13T05:17:49Z</time>
      </trkpt>
      <trkpt lat="44.80192" lon="6.29203">
        <ele>2167.8</ele>
        <time>2024-08-13T05:17:50Z</time>
      </trkpt>
      <trkpt lat="44.80192" lon="6.29203">
        <ele>2167.6</ele>
        <time>2024-08-13T05:17:51Z</time>
      </trkpt>
      <trkpt lat="44.80191" lon="6.29207">
        <ele>2167.2</ele>
        <time>2024-08-13T05:17:52Z</time>
      </trkpt>
      <trkpt lat="44.80191" lon="6.29207">
        <ele>2166.8</ele>
        <time>2024-08-13T05:17:53Z</time>
      </trkpt>
      <trkpt lat="44.80191" lon="6.2921">
        <ele>2166.8</ele>
        <time>2024-08-13T05:17:54Z</time>
      </trkpt>
      <trkpt lat="44.80191" lon="6.2921">
        <ele>2166.6</ele>
        <time>2024-08-13T05:17:55Z</time>
      </trkpt>
      <trkpt lat="44.80189" lon="6.29214">
        <ele>2166.2</ele>
        <time>2024-08-13T05:17:56Z</time>
      </trkpt>
      <trkpt lat="44.80189" lon="6.29214">
        <ele>2166</ele>
        <time>2024-08-13T05:17:57Z</time>
      </trkpt>
      <trkpt lat="44.80189" lon="6.29218">
        <ele>2165.8</ele>
        <time>2024-08-13T05:17:58Z</time>
      </trkpt>
      <trkpt lat="44.80189" lon="6.29218">
        <ele>2165.8</ele>
        <time>2024-08-13T05:17:59Z</time>
      </trkpt>
      <trkpt lat="44.80188" lon="6.29221">
        <ele>2165.6</ele>
        <time>2024-08-13T05:18:00Z</time>
      </trkpt>
      <trkpt lat="44.80188" lon="6.29221">
        <ele>2165.6</ele>
        <time>2024-08-13T05:18:01Z</time>
      </trkpt>
      <trkpt lat="44.80187" lon="6.29225">
        <ele>2165.4</ele>
        <time>2024-08-13T05:18:02Z</time>
      </trkpt>
      <trkpt lat="44.80187" lon="6.29225">
        <ele>2165.2</ele>
        <time>2024-08-13T05:18:03Z</time>
      </trkpt>
      <trkpt lat="44.80187" lon="6.29229">
        <ele>2165</ele>
        <time>2024-08-13T05:18:04Z</time>
      </trkpt>
      <trkpt lat="44.80187" lon="6.29229">
        <ele>2165</ele>
        <time>2024-08-13T05:18:05Z</time>
      </trkpt>
      <trkpt lat="44.80186" lon="6.29232">
        <ele>2164.8</ele>
        <time>2024-08-13T05:18:06Z</time>
      </trkpt>
      <trkpt lat="44.80186" lon="6.29232">
        <ele>2164.4</ele>
        <time>2024-08-13T05:18:07Z</time>
      </trkpt>
      <trkpt lat="44.80185" lon="6.29234">
        <ele>2164.2</ele>
        <time>2024-08-13T05:18:08Z</time>
      </trkpt>
      <trkpt lat="44.80185" lon="6.29234">
        <ele>2164</ele>
        <time>2024-08-13T05:18:09Z</time>
      </trkpt>
      <trkpt lat="44.80185" lon="6.29234">
        <ele>2164</ele>
        <time>2024-08-13T05:18:10Z</time>
      </trkpt>
      <trkpt lat="44.80185" lon="6.29234">
        <ele>2163.8</ele>
        <time>2024-08-13T05:18:11Z</time>
      </trkpt>
      <trkpt lat="44.80187" lon="6.29234">
        <ele>2163.8</ele>
        <time>2024-08-13T05:18:12Z</time>
      </trkpt>
      <trkpt lat="44.80187" lon="6.29234">
        <ele>2163.2</ele>
        <time>2024-08-13T05:18:13Z</time>
      </trkpt>
      <trkpt lat="44.80189" lon="6.29232">
        <ele>2163.2</ele>
        <time>2024-08-13T05:18:14Z</time>
      </trkpt>
      <trkpt lat="44.80189" lon="6.29232">
        <ele>2163</ele>
        <time>2024-08-13T05:18:15Z</time>
      </trkpt>
      <trkpt lat="44.80191" lon="6.29232">
        <ele>2163</ele>
        <time>2024-08-13T05:18:16Z</time>
      </trkpt>
      <trkpt lat="44.80191" lon="6.29232">
        <ele>2162.8</ele>
        <time>2024-08-13T05:18:17Z</time>
      </trkpt>
      <trkpt lat="44.80191" lon="6.29232">
        <ele>2162.6</ele>
        <time>2024-08-13T05:18:18Z</time>
      </trkpt>
      <trkpt lat="44.80191" lon="6.29232">
        <ele>2162.6</ele>
        <time>2024-08-13T05:18:19Z</time>
      </trkpt>
      <trkpt lat="44.80191" lon="6.29232">
        <ele>2162.4</ele>
        <time>2024-08-13T05:18:20Z</time>
      </trkpt>
      <trkpt lat="44.80193" lon="6.2923">
        <ele>2161.8</ele>
        <time>2024-08-13T05:18:21Z</time>
      </trkpt>
      <trkpt lat="44.80193" lon="6.2923">
        <ele>2161.6</ele>
        <time>2024-08-13T05:18:22Z</time>
      </trkpt>
      <trkpt lat="44.80195" lon="6.29227">
        <ele>2161.6</ele>
        <time>2024-08-13T05:18:23Z</time>
      </trkpt>
      <trkpt lat="44.80195" lon="6.29227">
        <ele>2161.6</ele>
        <time>2024-08-13T05:18:24Z</time>
      </trkpt>
      <trkpt lat="44.80197" lon="6.29224">
        <ele>2161</ele>
        <time>2024-08-13T05:18:25Z</time>
      </trkpt>
      <trkpt lat="44.80197" lon="6.29224">
        <ele>2160.8</ele>
        <time>2024-08-13T05:18:26Z</time>
      </trkpt>
      <trkpt lat="44.80199" lon="6.29221">
        <ele>2160.6</ele>
        <time>2024-08-13T05:18:27Z</time>
      </trkpt>
      <trkpt lat="44.80199" lon="6.29221">
        <ele>2160.4</ele>
        <time>2024-08-13T05:18:28Z</time>
      </trkpt>
      <trkpt lat="44.80201" lon="6.2922">
        <ele>2160.2</ele>
        <time>2024-08-13T05:18:29Z</time>
      </trkpt>
      <trkpt lat="44.80201" lon="6.2922">
        <ele>2160</ele>
        <time>2024-08-13T05:18:30Z</time>
      </trkpt>
      <trkpt lat="44.80201" lon="6.2922">
        <ele>2160.2</ele>
        <time>2024-08-13T05:18:31Z</time>
      </trkpt>
      <trkpt lat="44.80202" lon="6.29217">
        <ele>2160.2</ele>
        <time>2024-08-13T05:18:32Z</time>
      </trkpt>
      <trkpt lat="44.80202" lon="6.29217">
        <ele>2160.2</ele>
        <time>2024-08-13T05:18:33Z</time>
      </trkpt>
      <trkpt lat="44.80203" lon="6.29214">
        <ele>2160</ele>
        <time>2024-08-13T05:18:34Z</time>
      </trkpt>
      <trkpt lat="44.80203" lon="6.29214">
        <ele>2159.6</ele>
        <time>2024-08-13T05:18:35Z</time>
      </trkpt>
      <trkpt lat="44.80204" lon="6.29212">
        <ele>2159.4</ele>
        <time>2024-08-13T05:18:36Z</time>
      </trkpt>
      <trkpt lat="44.80204" lon="6.29212">
        <ele>2159.2</ele>
        <time>2024-08-13T05:18:37Z</time>
      </trkpt>
      <trkpt lat="44.80204" lon="6.29212">
        <ele>2159</ele>
        <time>2024-08-13T05:18:38Z</time>
      </trkpt>
      <trkpt lat="44.80205" lon="6.2921">
        <ele>2159</ele>
        <time>2024-08-13T05:18:39Z</time>
      </trkpt>
      <trkpt lat="44.80205" lon="6.2921">
        <ele>2159</ele>
        <time>2024-08-13T05:18:40Z</time>
      </trkpt>
      <trkpt lat="44.80207" lon="6.29208">
        <ele>2158.8</ele>
        <time>2024-08-13T05:18:41Z</time>
      </trkpt>
      <trkpt lat="44.80207" lon="6.29208">
        <ele>2158</ele>
        <time>2024-08-13T05:18:42Z</time>
      </trkpt>
      <trkpt lat="44.80209" lon="6.29206">
        <ele>2158</ele>
        <time>2024-08-13T05:18:43Z</time>
      </trkpt>
      <trkpt lat="44.80209" lon="6.29206">
        <ele>2157.8</ele>
        <time>2024-08-13T05:18:44Z</time>
      </trkpt>
      <trkpt lat="44.80209" lon="6.29206">
        <ele>2157.4</ele>
        <time>2024-08-13T05:18:45Z</time>
      </trkpt>
      <trkpt lat="44.80211" lon="6.29203">
        <ele>2157.4</ele>
        <time>2024-08-13T05:18:46Z</time>
      </trkpt>
      <trkpt lat="44.80211" lon="6.29203">
        <ele>2157.4</ele>
        <time>2024-08-13T05:18:47Z</time>
      </trkpt>
      <trkpt lat="44.80211" lon="6.29203">
        <ele>2156.8</ele>
        <time>2024-08-13T05:18:48Z</time>
      </trkpt>
      <trkpt lat="44.80213" lon="6.29201">
        <ele>2156.6</ele>
        <time>2024-08-13T05:18:49Z</time>
      </trkpt>
      <trkpt lat="44.80213" lon="6.29201">
        <ele>2156.4</ele>
        <time>2024-08-13T05:18:50Z</time>
      </trkpt>
      <trkpt lat="44.80213" lon="6.29204">
        <ele>2156</ele>
        <time>2024-08-13T05:18:51Z</time>
      </trkpt>
      <trkpt lat="44.80213" lon="6.29204">
        <ele>2155.6</ele>
        <time>2024-08-13T05:18:52Z</time>
      </trkpt>
      <trkpt lat="44.80213" lon="6.29207">
        <ele>2155.6</ele>
        <time>2024-08-13T05:18:53Z</time>
      </trkpt>
      <trkpt lat="44.80213" lon="6.29207">
        <ele>2155.6</ele>
        <time>2024-08-13T05:18:54Z</time>
      </trkpt>
      <trkpt lat="44.80213" lon="6.2921">
        <ele>2155.6</ele>
        <time>2024-08-13T05:18:55Z</time>
      </trkpt>
      <trkpt lat="44.80213" lon="6.2921">
        <ele>2155.2</ele>
        <time>2024-08-13T05:18:56Z</time>
      </trkpt>
      <trkpt lat="44.80213" lon="6.29213">
        <ele>2154.6</ele>
        <time>2024-08-13T05:18:57Z</time>
      </trkpt>
      <trkpt lat="44.80213" lon="6.29213">
        <ele>2154.4</ele>
        <time>2024-08-13T05:18:58Z</time>
      </trkpt>
      <trkpt lat="44.80213" lon="6.29217">
        <ele>2154.2</ele>
        <time>2024-08-13T05:18:59Z</time>
      </trkpt>
      <trkpt lat="44.80213" lon="6.29217">
        <ele>2154.2</ele>
        <time>2024-08-13T05:19:00Z</time>
      </trkpt>
      <trkpt lat="44.80213" lon="6.2922">
        <ele>2154</ele>
        <time>2024-08-13T05:19:01Z</time>
      </trkpt>
      <trkpt lat="44.80213" lon="6.2922">
        <ele>2153.8</ele>
        <time>2024-08-13T05:19:02Z</time>
      </trkpt>
      <trkpt lat="44.80213" lon="6.29223">
        <ele>2153.8</ele>
        <time>2024-08-13T05:19:03Z</time>
      </trkpt>
      <trkpt lat="44.80213" lon="6.29223">
        <ele>2153.6</ele>
        <time>2024-08-13T05:19:04Z</time>
      </trkpt>
      <trkpt lat="44.80213" lon="6.29226">
        <ele>2153.2</ele>
        <time>2024-08-13T05:19:05Z</time>
      </trkpt>
      <trkpt lat="44.80213" lon="6.29226">
        <ele>2153</ele>
        <time>2024-08-13T05:19:06Z</time>
      </trkpt>
      <trkpt lat="44.80213" lon="6.2923">
        <ele>2153</ele>
        <time>2024-08-13T05:19:07Z</time>
      </trkpt>
      <trkpt lat="44.80213" lon="6.2923">
        <ele>2152.8</ele>
        <time>2024-08-13T05:19:08Z</time>
      </trkpt>
      <trkpt lat="44.80213" lon="6.29233">
        <ele>2152.4</ele>
        <time>2024-08-13T05:19:09Z</time>
      </trkpt>
      <trkpt lat="44.80213" lon="6.29233">
        <ele>2152.4</ele>
        <time>2024-08-13T05:19:10Z</time>
      </trkpt>
      <trkpt lat="44.80213" lon="6.29235">
        <ele>2152</ele>
        <time>2024-08-13T05:19:11Z</time>
      </trkpt>
      <trkpt lat="44.80213" lon="6.29235">
        <ele>2152</ele>
        <time>2024-08-13T05:19:12Z</time>
      </trkpt>
      <trkpt lat="44.80213" lon="6.29235">
        <ele>2151.8</ele>
        <time>2024-08-13T05:19:13Z</time>
      </trkpt>
      <trkpt lat="44.80213" lon="6.29239">
        <ele>2151.8</ele>
        <time>2024-08-13T05:19:14Z</time>
      </trkpt>
      <trkpt lat="44.80213" lon="6.29239">
        <ele>2151.4</ele>
        <time>2024-08-13T05:19:15Z</time>
      </trkpt>
      <trkpt lat="44.80214" lon="6.29242">
        <ele>2151.4</ele>
        <time>2024-08-13T05:19:16Z</time>
      </trkpt>
      <trkpt lat="44.80214" lon="6.29242">
        <ele>2151.2</ele>
        <time>2024-08-13T05:19:17Z</time>
      </trkpt>
      <trkpt lat="44.80214" lon="6.29246">
        <ele>2151</ele>
        <time>2024-08-13T05:19:18Z</time>
      </trkpt>
      <trkpt lat="44.80214" lon="6.29246">
        <ele>2150.8</ele>
        <time>2024-08-13T05:19:19Z</time>
      </trkpt>
      <trkpt lat="44.80214" lon="6.29246">
        <ele>2150.6</ele>
        <time>2024-08-13T05:19:20Z</time>
      </trkpt>
      <trkpt lat="44.80214" lon="6.29246">
        <ele>2150.6</ele>
        <time>2024-08-13T05:19:21Z</time>
      </trkpt>
      <trkpt lat="44.80216" lon="6.29246">
        <ele>2150.4</ele>
        <time>2024-08-13T05:19:22Z</time>
      </trkpt>
      <trkpt lat="44.80216" lon="6.29246">
        <ele>2150.2</ele>
        <time>2024-08-13T05:19:23Z</time>
      </trkpt>
      <trkpt lat="44.80217" lon="6.29243">
        <ele>2150</ele>
        <time>2024-08-13T05:19:24Z</time>
      </trkpt>
      <trkpt lat="44.80217" lon="6.29243">
        <ele>2149.6</ele>
        <time>2024-08-13T05:19:25Z</time>
      </trkpt>
      <trkpt lat="44.80218" lon="6.29241">
        <ele>2149.4</ele>
        <time>2024-08-13T05:19:26Z</time>
      </trkpt>
      <trkpt lat="44.80218" lon="6.29241">
        <ele>2149.2</ele>
        <time>2024-08-13T05:19:27Z</time>
      </trkpt>
      <trkpt lat="44.80218" lon="6.29241">
        <ele>2149</ele>
        <time>2024-08-13T05:19:28Z</time>
      </trkpt>
      <trkpt lat="44.8022" lon="6.29237">
        <ele>2148.4</ele>
        <time>2024-08-13T05:19:29Z</time>
      </trkpt>
      <trkpt lat="44.8022" lon="6.29237">
        <ele>2148.4</ele>
        <time>2024-08-13T05:19:30Z</time>
      </trkpt>
      <trkpt lat="44.80221" lon="6.29235">
        <ele>2148.4</ele>
        <time>2024-08-13T05:19:31Z</time>
      </trkpt>
      <trkpt lat="44.80221" lon="6.29235">
        <ele>2148</ele>
        <time>2024-08-13T05:19:32Z</time>
      </trkpt>
      <trkpt lat="44.80222" lon="6.29232">
        <ele>2147.6</ele>
        <time>2024-08-13T05:19:33Z</time>
      </trkpt>
      <trkpt lat="44.80222" lon="6.29232">
        <ele>2147.4</ele>
        <time>2024-08-13T05:19:34Z</time>
      </trkpt>
      <trkpt lat="44.80222" lon="6.29232">
        <ele>2147</ele>
        <time>2024-08-13T05:19:35Z</time>
      </trkpt>
      <trkpt lat="44.80223" lon="6.29228">
        <ele>2146.8</ele>
        <time>2024-08-13T05:19:36Z</time>
      </trkpt>
      <trkpt lat="44.80223" lon="6.29228">
        <ele>2146.6</ele>
        <time>2024-08-13T05:19:37Z</time>
      </trkpt>
      <trkpt lat="44.80225" lon="6.29226">
        <ele>2146.6</ele>
        <time>2024-08-13T05:19:38Z</time>
      </trkpt>
      <trkpt lat="44.80225" lon="6.29226">
        <ele>2146.2</ele>
        <time>2024-08-13T05:19:39Z</time>
      </trkpt>
      <trkpt lat="44.80226" lon="6.29223">
        <ele>2146</ele>
        <time>2024-08-13T05:19:40Z</time>
      </trkpt>
      <trkpt lat="44.80226" lon="6.29223">
        <ele>2146</ele>
        <time>2024-08-13T05:19:41Z</time>
      </trkpt>
      <trkpt lat="44.80226" lon="6.29223">
        <ele>2145.8</ele>
        <time>2024-08-13T05:19:42Z</time>
      </trkpt>
      <trkpt lat="44.80227" lon="6.2922">
        <ele>2145.6</ele>
        <time>2024-08-13T05:19:43Z</time>
      </trkpt>
      <trkpt lat="44.80227" lon="6.2922">
        <ele>2145.4</ele>
        <time>2024-08-13T05:19:44Z</time>
      </trkpt>
      <trkpt lat="44.80227" lon="6.29217">
        <ele>2145.2</ele>
        <time>2024-08-13T05:19:45Z</time>
      </trkpt>
      <trkpt lat="44.80227" lon="6.29217">
        <ele>2145</ele>
        <time>2024-08-13T05:19:46Z</time>
      </trkpt>
      <trkpt lat="44.80227" lon="6.29217">
        <ele>2144.8</ele>
        <time>2024-08-13T05:19:47Z</time>
      </trkpt>
      <trkpt lat="44.80228" lon="6.29213">
        <ele>2144.6</ele>
        <time>2024-08-13T05:19:48Z</time>
      </trkpt>
      <trkpt lat="44.80228" lon="6.29213">
        <ele>2144.4</ele>
        <time>2024-08-13T05:19:49Z</time>
      </trkpt>
      <trkpt lat="44.80229" lon="6.2921">
        <ele>2144.2</ele>
        <time>2024-08-13T05:19:50Z</time>
      </trkpt>
      <trkpt lat="44.80229" lon="6.2921">
        <ele>2144</ele>
        <time>2024-08-13T05:19:51Z</time>
      </trkpt>
      <trkpt lat="44.8023" lon="6.29207">
        <ele>2143.8</ele>
        <time>2024-08-13T05:19:52Z</time>
      </trkpt>
      <trkpt lat="44.8023" lon="6.29207">
        <ele>2143.8</ele>
        <time>2024-08-13T05:19:53Z</time>
      </trkpt>
      <trkpt lat="44.80231" lon="6.29205">
        <ele>2143.6</ele>
        <time>2024-08-13T05:19:54Z</time>
      </trkpt>
      <trkpt lat="44.80231" lon="6.29205">
        <ele>2143.4</ele>
        <time>2024-08-13T05:19:55Z</time>
      </trkpt>
      <trkpt lat="44.80232" lon="6.29202">
        <ele>2143.2</ele>
        <time>2024-08-13T05:19:56Z</time>
      </trkpt>
      <trkpt lat="44.80232" lon="6.29202">
        <ele>2143</ele>
        <time>2024-08-13T05:19:57Z</time>
      </trkpt>
      <trkpt lat="44.80232" lon="6.29202">
        <ele>2142.8</ele>
        <time>2024-08-13T05:19:58Z</time>
      </trkpt>
      <trkpt lat="44.80234" lon="6.292">
        <ele>2142.2</ele>
        <time>2024-08-13T05:19:59Z</time>
      </trkpt>
      <trkpt lat="44.80234" lon="6.292">
        <ele>2142.2</ele>
        <time>2024-08-13T05:20:00Z</time>
      </trkpt>
      <trkpt lat="44.80234" lon="6.292">
        <ele>2142</ele>
        <time>2024-08-13T05:20:01Z</time>
      </trkpt>
      <trkpt lat="44.80236" lon="6.29197">
        <ele>2141.6</ele>
        <time>2024-08-13T05:20:02Z</time>
      </trkpt>
      <trkpt lat="44.80236" lon="6.29197">
        <ele>2141.6</ele>
        <time>2024-08-13T05:20:03Z</time>
      </trkpt>
      <trkpt lat="44.80237" lon="6.29194">
        <ele>2141</ele>
        <time>2024-08-13T05:20:04Z</time>
      </trkpt>
      <trkpt lat="44.80237" lon="6.29194">
        <ele>2140.6</ele>
        <time>2024-08-13T05:20:05Z</time>
      </trkpt>
      <trkpt lat="44.80237" lon="6.29191">
        <ele>2140.4</ele>
        <time>2024-08-13T05:20:06Z</time>
      </trkpt>
      <trkpt lat="44.80237" lon="6.29191">
        <ele>2140.4</ele>
        <time>2024-08-13T05:20:07Z</time>
      </trkpt>
      <trkpt lat="44.80239" lon="6.29188">
        <ele>2140.2</ele>
        <time>2024-08-13T05:20:08Z</time>
      </trkpt>
      <trkpt lat="44.80239" lon="6.29188">
        <ele>2139.8</ele>
        <time>2024-08-13T05:20:09Z</time>
      </trkpt>
      <trkpt lat="44.80239" lon="6.29188">
        <ele>2139.8</ele>
        <time>2024-08-13T05:20:10Z</time>
      </trkpt>
      <trkpt lat="44.80239" lon="6.29185">
        <ele>2139.6</ele>
        <time>2024-08-13T05:20:11Z</time>
      </trkpt>
      <trkpt lat="44.80239" lon="6.29185">
        <ele>2139.6</ele>
        <time>2024-08-13T05:20:12Z</time>
      </trkpt>
      <trkpt lat="44.80241" lon="6.29183">
        <ele>2139.6</ele>
        <time>2024-08-13T05:20:13Z</time>
      </trkpt>
      <trkpt lat="44.80241" lon="6.29183">
        <ele>2139.4</ele>
        <time>2024-08-13T05:20:14Z</time>
      </trkpt>
      <trkpt lat="44.80242" lon="6.29181">
        <ele>2139.4</ele>
        <time>2024-08-13T05:20:15Z</time>
      </trkpt>
      <trkpt lat="44.80242" lon="6.29181">
        <ele>2139.2</ele>
        <time>2024-08-13T05:20:16Z</time>
      </trkpt>
      <trkpt lat="44.80243" lon="6.29178">
        <ele>2138.8</ele>
        <time>2024-08-13T05:20:17Z</time>
      </trkpt>
      <trkpt lat="44.80243" lon="6.29178">
        <ele>2138.8</ele>
        <time>2024-08-13T05:20:18Z</time>
      </trkpt>
      <trkpt lat="44.80245" lon="6.29176">
        <ele>2138.6</ele>
        <time>2024-08-13T05:20:19Z</time>
      </trkpt>
      <trkpt lat="44.80245" lon="6.29176">
        <ele>2138.6</ele>
        <time>2024-08-13T05:20:20Z</time>
      </trkpt>
      <trkpt lat="44.80246" lon="6.29174">
        <ele>2138.4</ele>
        <time>2024-08-13T05:20:21Z</time>
      </trkpt>
      <trkpt lat="44.80246" lon="6.29174">
        <ele>2138.2</ele>
        <time>2024-08-13T05:20:22Z</time>
      </trkpt>
      <trkpt lat="44.80248" lon="6.29171">
        <ele>2138</ele>
        <time>2024-08-13T05:20:23Z</time>
      </trkpt>
      <trkpt lat="44.80248" lon="6.29171">
        <ele>2137.8</ele>
        <time>2024-08-13T05:20:24Z</time>
      </trkpt>
      <trkpt lat="44.80249" lon="6.29168">
        <ele>2137.6</ele>
        <time>2024-08-13T05:20:25Z</time>
      </trkpt>
      <trkpt lat="44.80249" lon="6.29168">
        <ele>2137.2</ele>
        <time>2024-08-13T05:20:26Z</time>
      </trkpt>
      <trkpt lat="44.80249" lon="6.29165">
        <ele>2137.2</ele>
        <time>2024-08-13T05:20:27Z</time>
      </trkpt>
      <trkpt lat="44.80249" lon="6.29165">
        <ele>2137.2</ele>
        <time>2024-08-13T05:20:28Z</time>
      </trkpt>
      <trkpt lat="44.80249" lon="6.29162">
        <ele>2136.8</ele>
        <time>2024-08-13T05:20:29Z</time>
      </trkpt>
      <trkpt lat="44.80249" lon="6.29162">
        <ele>2136.4</ele>
        <time>2024-08-13T05:20:30Z</time>
      </trkpt>
      <trkpt lat="44.8025" lon="6.2916">
        <ele>2136.2</ele>
        <time>2024-08-13T05:20:31Z</time>
      </trkpt>
      <trkpt lat="44.8025" lon="6.2916">
        <ele>2135.8</ele>
        <time>2024-08-13T05:20:32Z</time>
      </trkpt>
      <trkpt lat="44.8025" lon="6.2916">
        <ele>2135.6</ele>
        <time>2024-08-13T05:20:33Z</time>
      </trkpt>
      <trkpt lat="44.80251" lon="6.29157">
        <ele>2135.6</ele>
        <time>2024-08-13T05:20:34Z</time>
      </trkpt>
      <trkpt lat="44.80251" lon="6.29157">
        <ele>2135.6</ele>
        <time>2024-08-13T05:20:35Z</time>
      </trkpt>
      <trkpt lat="44.80251" lon="6.29157">
        <ele>2135.4</ele>
        <time>2024-08-13T05:20:36Z</time>
      </trkpt>
      <trkpt lat="44.80249" lon="6.29154">
        <ele>2134.8</ele>
        <time>2024-08-13T05:20:37Z</time>
      </trkpt>
      <trkpt lat="44.80249" lon="6.29154">
        <ele>2134.4</ele>
        <time>2024-08-13T05:20:38Z</time>
      </trkpt>
      <trkpt lat="44.80247" lon="6.29151">
        <ele>2134</ele>
        <time>2024-08-13T05:20:39Z</time>
      </trkpt>
      <trkpt lat="44.80247" lon="6.29151">
        <ele>2134</ele>
        <time>2024-08-13T05:20:40Z</time>
      </trkpt>
      <trkpt lat="44.80249" lon="6.29151">
        <ele>2134</ele>
        <time>2024-08-13T05:20:41Z</time>
      </trkpt>
      <trkpt lat="44.80249" lon="6.29151">
        <ele>2133.8</ele>
        <time>2024-08-13T05:20:42Z</time>
      </trkpt>
      <trkpt lat="44.80252" lon="6.29152">
        <ele>2133.6</ele>
        <time>2024-08-13T05:20:43Z</time>
      </trkpt>
      <trkpt lat="44.80252" lon="6.29152">
        <ele>2133.6</ele>
        <time>2024-08-13T05:20:44Z</time>
      </trkpt>
      <trkpt lat="44.80254" lon="6.29153">
        <ele>2133.4</ele>
        <time>2024-08-13T05:20:45Z</time>
      </trkpt>
      <trkpt lat="44.80254" lon="6.29153">
        <ele>2133.2</ele>
        <time>2024-08-13T05:20:46Z</time>
      </trkpt>
      <trkpt lat="44.80257" lon="6.29154">
        <ele>2133.2</ele>
        <time>2024-08-13T05:20:47Z</time>
      </trkpt>
      <trkpt lat="44.80257" lon="6.29154">
        <ele>2133</ele>
        <time>2024-08-13T05:20:48Z</time>
      </trkpt>
      <trkpt lat="44.80258" lon="6.29156">
        <ele>2132.6</ele>
        <time>2024-08-13T05:20:49Z</time>
      </trkpt>
      <trkpt lat="44.80258" lon="6.29156">
        <ele>2132.6</ele>
        <time>2024-08-13T05:20:50Z</time>
      </trkpt>
      <trkpt lat="44.80259" lon="6.29159">
        <ele>2132.4</ele>
        <time>2024-08-13T05:20:51Z</time>
      </trkpt>
      <trkpt lat="44.80259" lon="6.29159">
        <ele>2132</ele>
        <time>2024-08-13T05:20:52Z</time>
      </trkpt>
      <trkpt lat="44.8026" lon="6.29161">
        <ele>2131.8</ele>
        <time>2024-08-13T05:20:53Z</time>
      </trkpt>
      <trkpt lat="44.8026" lon="6.29161">
        <ele>2131.6</ele>
        <time>2024-08-13T05:20:54Z</time>
      </trkpt>
      <trkpt lat="44.80261" lon="6.29164">
        <ele>2131.4</ele>
        <time>2024-08-13T05:20:55Z</time>
      </trkpt>
      <trkpt lat="44.80261" lon="6.29164">
        <ele>2131</ele>
        <time>2024-08-13T05:20:56Z</time>
      </trkpt>
      <trkpt lat="44.80261" lon="6.29168">
        <ele>2131</ele>
        <time>2024-08-13T05:20:57Z</time>
      </trkpt>
      <trkpt lat="44.80261" lon="6.29168">
        <ele>2130.8</ele>
        <time>2024-08-13T05:20:58Z</time>
      </trkpt>
      <trkpt lat="44.8026" lon="6.29171">
        <ele>2130.8</ele>
        <time>2024-08-13T05:20:59Z</time>
      </trkpt>
      <trkpt lat="44.8026" lon="6.29171">
        <ele>2130.6</ele>
        <time>2024-08-13T05:21:00Z</time>
      </trkpt>
      <trkpt lat="44.80259" lon="6.29174">
        <ele>2130.4</ele>
        <time>2024-08-13T05:21:01Z</time>
      </trkpt>
      <trkpt lat="44.80259" lon="6.29174">
        <ele>2129.8</ele>
        <time>2024-08-13T05:21:02Z</time>
      </trkpt>
      <trkpt lat="44.80258" lon="6.29177">
        <ele>2129.8</ele>
        <time>2024-08-13T05:21:03Z</time>
      </trkpt>
      <trkpt lat="44.80258" lon="6.29177">
        <ele>2129.4</ele>
        <time>2024-08-13T05:21:04Z</time>
      </trkpt>
      <trkpt lat="44.80258" lon="6.29177">
        <ele>2129.4</ele>
        <time>2024-08-13T05:21:05Z</time>
      </trkpt>
      <trkpt lat="44.80259" lon="6.29181">
        <ele>2129.2</ele>
        <time>2024-08-13T05:21:06Z</time>
      </trkpt>
      <trkpt lat="44.80259" lon="6.29181">
        <ele>2129</ele>
        <time>2024-08-13T05:21:07Z</time>
      </trkpt>
      <trkpt lat="44.80259" lon="6.29184">
        <ele>2129</ele>
        <time>2024-08-13T05:21:08Z</time>
      </trkpt>
      <trkpt lat="44.80259" lon="6.29184">
        <ele>2129</ele>
        <time>2024-08-13T05:21:09Z</time>
      </trkpt>
      <trkpt lat="44.80258" lon="6.29187">
        <ele>2128.8</ele>
        <time>2024-08-13T05:21:10Z</time>
      </trkpt>
      <trkpt lat="44.80258" lon="6.29187">
        <ele>2128.6</ele>
        <time>2024-08-13T05:21:11Z</time>
      </trkpt>
      <trkpt lat="44.80258" lon="6.29187">
        <ele>2128.4</ele>
        <time>2024-08-13T05:21:12Z</time>
      </trkpt>
      <trkpt lat="44.80259" lon="6.2919">
        <ele>2128.2</ele>
        <time>2024-08-13T05:21:13Z</time>
      </trkpt>
      <trkpt lat="44.80259" lon="6.2919">
        <ele>2128.2</ele>
        <time>2024-08-13T05:21:14Z</time>
      </trkpt>
      <trkpt lat="44.80259" lon="6.2919">
        <ele>2128</ele>
        <time>2024-08-13T05:21:15Z</time>
      </trkpt>
      <trkpt lat="44.80259" lon="6.29194">
        <ele>2128</ele>
        <time>2024-08-13T05:21:16Z</time>
      </trkpt>
      <trkpt lat="44.80259" lon="6.29194">
        <ele>2128</ele>
        <time>2024-08-13T05:21:17Z</time>
      </trkpt>
      <trkpt lat="44.8026" lon="6.29196">
        <ele>2127.6</ele>
        <time>2024-08-13T05:21:18Z</time>
      </trkpt>
      <trkpt lat="44.8026" lon="6.29196">
        <ele>2127.2</ele>
        <time>2024-08-13T05:21:19Z</time>
      </trkpt>
      <trkpt lat="44.80261" lon="6.29199">
        <ele>2127.2</ele>
        <time>2024-08-13T05:21:20Z</time>
      </trkpt>
      <trkpt lat="44.80261" lon="6.29199">
        <ele>2127.2</ele>
        <time>2024-08-13T05:21:21Z</time>
      </trkpt>
      <trkpt lat="44.80261" lon="6.29201">
        <ele>2127</ele>
        <time>2024-08-13T05:21:22Z</time>
      </trkpt>
      <trkpt lat="44.80261" lon="6.29201">
        <ele>2126.8</ele>
        <time>2024-08-13T05:21:23Z</time>
      </trkpt>
      <trkpt lat="44.80262" lon="6.29204">
        <ele>2126.6</ele>
        <time>2024-08-13T05:21:24Z</time>
      </trkpt>
      <trkpt lat="44.80262" lon="6.29204">
        <ele>2126.4</ele>
        <time>2024-08-13T05:21:25Z</time>
      </trkpt>
      <trkpt lat="44.80263" lon="6.29206">
        <ele>2126.2</ele>
        <time>2024-08-13T05:21:26Z</time>
      </trkpt>
      <trkpt lat="44.80263" lon="6.29206">
        <ele>2125.8</ele>
        <time>2024-08-13T05:21:27Z</time>
      </trkpt>
      <trkpt lat="44.80263" lon="6.29206">
        <ele>2125.8</ele>
        <time>2024-08-13T05:21:28Z</time>
      </trkpt>
      <trkpt lat="44.80265" lon="6.29209">
        <ele>2125.4</ele>
        <time>2024-08-13T05:21:29Z</time>
      </trkpt>
      <trkpt lat="44.80265" lon="6.29209">
        <ele>2125.4</ele>
        <time>2024-08-13T05:21:30Z</time>
      </trkpt>
      <trkpt lat="44.80265" lon="6.29212">
        <ele>2125.4</ele>
        <time>2024-08-13T05:21:31Z</time>
      </trkpt>
      <trkpt lat="44.80265" lon="6.29212">
        <ele>2125.2</ele>
        <time>2024-08-13T05:21:32Z</time>
      </trkpt>
      <trkpt lat="44.80266" lon="6.29215">
        <ele>2124.8</ele>
        <time>2024-08-13T05:21:33Z</time>
      </trkpt>
      <trkpt lat="44.80266" lon="6.29215">
        <ele>2124.8</ele>
        <time>2024-08-13T05:21:34Z</time>
      </trkpt>
      <trkpt lat="44.80267" lon="6.29217">
        <ele>2124.8</ele>
        <time>2024-08-13T05:21:35Z</time>
      </trkpt>
      <trkpt lat="44.80267" lon="6.29217">
        <ele>2124.6</ele>
        <time>2024-08-13T05:21:36Z</time>
      </trkpt>
      <trkpt lat="44.80267" lon="6.29217">
        <ele>2124.2</ele>
        <time>2024-08-13T05:21:37Z</time>
      </trkpt>
      <trkpt lat="44.80268" lon="6.2922">
        <ele>2124</ele>
        <time>2024-08-13T05:21:38Z</time>
      </trkpt>
      <trkpt lat="44.80268" lon="6.2922">
        <ele>2124</ele>
        <time>2024-08-13T05:21:39Z</time>
      </trkpt>
      <trkpt lat="44.8027" lon="6.29222">
        <ele>2123.8</ele>
        <time>2024-08-13T05:21:40Z</time>
      </trkpt>
      <trkpt lat="44.8027" lon="6.29222">
        <ele>2123.4</ele>
        <time>2024-08-13T05:21:41Z</time>
      </trkpt>
      <trkpt lat="44.8027" lon="6.29224">
        <ele>2123.4</ele>
        <time>2024-08-13T05:21:42Z</time>
      </trkpt>
      <trkpt lat="44.8027" lon="6.29224">
        <ele>2123.4</ele>
        <time>2024-08-13T05:21:43Z</time>
      </trkpt>
      <trkpt lat="44.8027" lon="6.29224">
        <ele>2123</ele>
        <time>2024-08-13T05:21:44Z</time>
      </trkpt>
      <trkpt lat="44.80272" lon="6.29227">
        <ele>2122.6</ele>
        <time>2024-08-13T05:21:45Z</time>
      </trkpt>
      <trkpt lat="44.80272" lon="6.29227">
        <ele>2122.2</ele>
        <time>2024-08-13T05:21:46Z</time>
      </trkpt>
      <trkpt lat="44.80271" lon="6.2923">
        <ele>2122.2</ele>
        <time>2024-08-13T05:21:47Z</time>
      </trkpt>
      <trkpt lat="44.80271" lon="6.2923">
        <ele>2122</ele>
        <time>2024-08-13T05:21:48Z</time>
      </trkpt>
      <trkpt lat="44.8027" lon="6.29233">
        <ele>2121.8</ele>
        <time>2024-08-13T05:21:49Z</time>
      </trkpt>
      <trkpt lat="44.8027" lon="6.29233">
        <ele>2121.6</ele>
        <time>2024-08-13T05:21:50Z</time>
      </trkpt>
      <trkpt lat="44.8027" lon="6.29233">
        <ele>2121</ele>
        <time>2024-08-13T05:21:51Z</time>
      </trkpt>
      <trkpt lat="44.8027" lon="6.29236">
        <ele>2120.8</ele>
        <time>2024-08-13T05:21:52Z</time>
      </trkpt>
      <trkpt lat="44.8027" lon="6.29236">
        <ele>2120.6</ele>
        <time>2024-08-13T05:21:53Z</time>
      </trkpt>
      <trkpt lat="44.8027" lon="6.29236">
        <ele>2120.4</ele>
        <time>2024-08-13T05:21:54Z</time>
      </trkpt>
      <trkpt lat="44.8027" lon="6.29236">
        <ele>2120.2</ele>
        <time>2024-08-13T05:21:55Z</time>
      </trkpt>
      <trkpt lat="44.8027" lon="6.29236">
        <ele>2120.2</ele>
        <time>2024-08-13T05:21:56Z</time>
      </trkpt>
      <trkpt lat="44.80272" lon="6.29237">
        <ele>2120.2</ele>
        <time>2024-08-13T05:21:57Z</time>
      </trkpt>
      <trkpt lat="44.80272" lon="6.29237">
        <ele>2119.8</ele>
        <time>2024-08-13T05:21:58Z</time>
      </trkpt>
      <trkpt lat="44.80272" lon="6.29237">
        <ele>2119.6</ele>
        <time>2024-08-13T05:21:59Z</time>
      </trkpt>
      <trkpt lat="44.80274" lon="6.29235">
        <ele>2119.6</ele>
        <time>2024-08-13T05:22:00Z</time>
      </trkpt>
      <trkpt lat="44.80274" lon="6.29235">
        <ele>2118.8</ele>
        <time>2024-08-13T05:22:01Z</time>
      </trkpt>
      <trkpt lat="44.80274" lon="6.29235">
        <ele>2118.8</ele>
        <time>2024-08-13T05:22:02Z</time>
      </trkpt>
      <trkpt lat="44.80276" lon="6.29234">
        <ele>2118.8</ele>
        <time>2024-08-13T05:22:03Z</time>
      </trkpt>
      <trkpt lat="44.80276" lon="6.29234">
        <ele>2118.8</ele>
        <time>2024-08-13T05:22:04Z</time>
      </trkpt>
      <trkpt lat="44.80276" lon="6.29234">
        <ele>2118.6</ele>
        <time>2024-08-13T05:22:05Z</time>
      </trkpt>
      <trkpt lat="44.80278" lon="6.29234">
        <ele>2118.4</ele>
        <time>2024-08-13T05:22:06Z</time>
      </trkpt>
      <trkpt lat="44.80278" lon="6.29234">
        <ele>2118</ele>
        <time>2024-08-13T05:22:07Z</time>
      </trkpt>
      <trkpt lat="44.80281" lon="6.29233">
        <ele>2117.6</ele>
        <time>2024-08-13T05:22:08Z</time>
      </trkpt>
      <trkpt lat="44.80281" lon="6.29233">
        <ele>2117.2</ele>
        <time>2024-08-13T05:22:09Z</time>
      </trkpt>
      <trkpt lat="44.80283" lon="6.29232">
        <ele>2117.2</ele>
        <time>2024-08-13T05:22:10Z</time>
      </trkpt>
      <trkpt lat="44.80283" lon="6.29232">
        <ele>2117</ele>
        <time>2024-08-13T05:22:11Z</time>
      </trkpt>
      <trkpt lat="44.80284" lon="6.2923">
        <ele>2116.6</ele>
        <time>2024-08-13T05:22:12Z</time>
      </trkpt>
      <trkpt lat="44.80284" lon="6.2923">
        <ele>2116.4</ele>
        <time>2024-08-13T05:22:13Z</time>
      </trkpt>
      <trkpt lat="44.80285" lon="6.29228">
        <ele>2116.2</ele>
        <time>2024-08-13T05:22:14Z</time>
      </trkpt>
      <trkpt lat="44.80285" lon="6.29228">
        <ele>2116.2</ele>
        <time>2024-08-13T05:22:15Z</time>
      </trkpt>
      <trkpt lat="44.80286" lon="6.29225">
        <ele>2116.2</ele>
        <time>2024-08-13T05:22:16Z</time>
      </trkpt>
      <trkpt lat="44.80286" lon="6.29225">
        <ele>2115.8</ele>
        <time>2024-08-13T05:22:17Z</time>
      </trkpt>
      <trkpt lat="44.80288" lon="6.29224">
        <ele>2115.4</ele>
        <time>2024-08-13T05:22:18Z</time>
      </trkpt>
      <trkpt lat="44.80288" lon="6.29224">
        <ele>2115.4</ele>
        <time>2024-08-13T05:22:19Z</time>
      </trkpt>
      <trkpt lat="44.8029" lon="6.29221">
        <ele>2115.2</ele>
        <time>2024-08-13T05:22:20Z</time>
      </trkpt>
      <trkpt lat="44.8029" lon="6.29221">
        <ele>2115</ele>
        <time>2024-08-13T05:22:21Z</time>
      </trkpt>
      <trkpt lat="44.80291" lon="6.29219">
        <ele>2115</ele>
        <time>2024-08-13T05:22:22Z</time>
      </trkpt>
      <trkpt lat="44.80291" lon="6.29219">
        <ele>2114.8</ele>
        <time>2024-08-13T05:22:23Z</time>
      </trkpt>
      <trkpt lat="44.80292" lon="6.29217">
        <ele>2114.6</ele>
        <time>2024-08-13T05:22:24Z</time>
      </trkpt>
      <trkpt lat="44.80292" lon="6.29217">
        <ele>2114.6</ele>
        <time>2024-08-13T05:22:25Z</time>
      </trkpt>
      <trkpt lat="44.80293" lon="6.29214">
        <ele>2114.4</ele>
        <time>2024-08-13T05:22:26Z</time>
      </trkpt>
      <trkpt lat="44.80293" lon="6.29214">
        <ele>2114</ele>
        <time>2024-08-13T05:22:27Z</time>
      </trkpt>
      <trkpt lat="44.80294" lon="6.29212">
        <ele>2113.6</ele>
        <time>2024-08-13T05:22:28Z</time>
      </trkpt>
      <trkpt lat="44.80294" lon="6.29212">
        <ele>2113.4</ele>
        <time>2024-08-13T05:22:29Z</time>
      </trkpt>
      <trkpt lat="44.80294" lon="6.29212">
        <ele>2113.4</ele>
        <time>2024-08-13T05:22:30Z</time>
      </trkpt>
      <trkpt lat="44.80296" lon="6.2921">
        <ele>2113</ele>
        <time>2024-08-13T05:22:31Z</time>
      </trkpt>
      <trkpt lat="44.80296" lon="6.2921">
        <ele>2112.6</ele>
        <time>2024-08-13T05:22:32Z</time>
      </trkpt>
      <trkpt lat="44.80296" lon="6.2921">
        <ele>2112.4</ele>
        <time>2024-08-13T05:22:33Z</time>
      </trkpt>
      <trkpt lat="44.80297" lon="6.29207">
        <ele>2112.4</ele>
        <time>2024-08-13T05:22:34Z</time>
      </trkpt>
      <trkpt lat="44.80297" lon="6.29207">
        <ele>2112</ele>
        <time>2024-08-13T05:22:35Z</time>
      </trkpt>
      <trkpt lat="44.80298" lon="6.29204">
        <ele>2111.8</ele>
        <time>2024-08-13T05:22:36Z</time>
      </trkpt>
      <trkpt lat="44.80298" lon="6.29204">
        <ele>2111.6</ele>
        <time>2024-08-13T05:22:37Z</time>
      </trkpt>
      <trkpt lat="44.80298" lon="6.29204">
        <ele>2111.6</ele>
        <time>2024-08-13T05:22:38Z</time>
      </trkpt>
      <trkpt lat="44.803" lon="6.29202">
        <ele>2111.2</ele>
        <time>2024-08-13T05:22:39Z</time>
      </trkpt>
      <trkpt lat="44.803" lon="6.29202">
        <ele>2111</ele>
        <time>2024-08-13T05:22:40Z</time>
      </trkpt>
      <trkpt lat="44.803" lon="6.29202">
        <ele>2110.8</ele>
        <time>2024-08-13T05:22:41Z</time>
      </trkpt>
      <trkpt lat="44.80301" lon="6.29198">
        <ele>2110.6</ele>
        <time>2024-08-13T05:22:42Z</time>
      </trkpt>
      <trkpt lat="44.80301" lon="6.29198">
        <ele>2110.6</ele>
        <time>2024-08-13T05:22:43Z</time>
      </trkpt>
      <trkpt lat="44.80302" lon="6.29196">
        <ele>2110.4</ele>
        <time>2024-08-13T05:22:44Z</time>
      </trkpt>
      <trkpt lat="44.80302" lon="6.29196">
        <ele>2110</ele>
        <time>2024-08-13T05:22:45Z</time>
      </trkpt>
      <trkpt lat="44.80302" lon="6.29196">
        <ele>2109.8</ele>
        <time>2024-08-13T05:22:46Z</time>
      </trkpt>
      <trkpt lat="44.80304" lon="6.29193">
        <ele>2109.8</ele>
        <time>2024-08-13T05:22:47Z</time>
      </trkpt>
      <trkpt lat="44.80304" lon="6.29193">
        <ele>2109.6</ele>
        <time>2024-08-13T05:22:48Z</time>
      </trkpt>
      <trkpt lat="44.80304" lon="6.29193">
        <ele>2109.4</ele>
        <time>2024-08-13T05:22:49Z</time>
      </trkpt>
      <trkpt lat="44.80306" lon="6.2919">
        <ele>2109</ele>
        <time>2024-08-13T05:22:50Z</time>
      </trkpt>
      <trkpt lat="44.80306" lon="6.2919">
        <ele>2109</ele>
        <time>2024-08-13T05:22:51Z</time>
      </trkpt>
      <trkpt lat="44.80307" lon="6.29187">
        <ele>2109</ele>
        <time>2024-08-13T05:22:52Z</time>
      </trkpt>
      <trkpt lat="44.80307" lon="6.29187">
        <ele>2108.8</ele>
        <time>2024-08-13T05:22:53Z</time>
      </trkpt>
      <trkpt lat="44.80309" lon="6.29186">
        <ele>2108.6</ele>
        <time>2024-08-13T05:22:54Z</time>
      </trkpt>
      <trkpt lat="44.80309" lon="6.29186">
        <ele>2108.4</ele>
        <time>2024-08-13T05:22:55Z</time>
      </trkpt>
      <trkpt lat="44.80309" lon="6.29186">
        <ele>2108.2</ele>
        <time>2024-08-13T05:22:56Z</time>
      </trkpt>
      <trkpt lat="44.8031" lon="6.29183">
        <ele>2108</ele>
        <time>2024-08-13T05:22:57Z</time>
      </trkpt>
      <trkpt lat="44.8031" lon="6.29183">
        <ele>2107.8</ele>
        <time>2024-08-13T05:22:58Z</time>
      </trkpt>
      <trkpt lat="44.8031" lon="6.29183">
        <ele>2107.6</ele>
        <time>2024-08-13T05:22:59Z</time>
      </trkpt>
      <trkpt lat="44.80312" lon="6.29179">
        <ele>2107.6</ele>
        <time>2024-08-13T05:23:00Z</time>
      </trkpt>
      <trkpt lat="44.80312" lon="6.29179">
        <ele>2107.4</ele>
        <time>2024-08-13T05:23:01Z</time>
      </trkpt>
      <trkpt lat="44.80312" lon="6.29176">
        <ele>2106.8</ele>
        <time>2024-08-13T05:23:02Z</time>
      </trkpt>
      <trkpt lat="44.80312" lon="6.29176">
        <ele>2106.8</ele>
        <time>2024-08-13T05:23:03Z</time>
      </trkpt>
      <trkpt lat="44.80312" lon="6.29176">
        <ele>2106.8</ele>
        <time>2024-08-13T05:23:04Z</time>
      </trkpt>
      <trkpt lat="44.80314" lon="6.29173">
        <ele>2106.8</ele>
        <time>2024-08-13T05:23:05Z</time>
      </trkpt>
      <trkpt lat="44.80314" lon="6.29173">
        <ele>2106.6</ele>
        <time>2024-08-13T05:23:06Z</time>
      </trkpt>
      <trkpt lat="44.80314" lon="6.2917">
        <ele>2106.6</ele>
        <time>2024-08-13T05:23:07Z</time>
      </trkpt>
      <trkpt lat="44.80314" lon="6.2917">
        <ele>2106.4</ele>
        <time>2024-08-13T05:23:08Z</time>
      </trkpt>
      <trkpt lat="44.80314" lon="6.2917">
        <ele>2106.2</ele>
        <time>2024-08-13T05:23:09Z</time>
      </trkpt>
      <trkpt lat="44.80315" lon="6.29167">
        <ele>2106</ele>
        <time>2024-08-13T05:23:10Z</time>
      </trkpt>
      <trkpt lat="44.80315" lon="6.29167">
        <ele>2106</ele>
        <time>2024-08-13T05:23:11Z</time>
      </trkpt>
      <trkpt lat="44.80315" lon="6.29167">
        <ele>2105.4</ele>
        <time>2024-08-13T05:23:12Z</time>
      </trkpt>
      <trkpt lat="44.80316" lon="6.29164">
        <ele>2105.4</ele>
        <time>2024-08-13T05:23:13Z</time>
      </trkpt>
      <trkpt lat="44.80316" lon="6.29164">
        <ele>2105.2</ele>
        <time>2024-08-13T05:23:14Z</time>
      </trkpt>
      <trkpt lat="44.80316" lon="6.29161">
        <ele>2105</ele>
        <time>2024-08-13T05:23:15Z</time>
      </trkpt>
      <trkpt lat="44.80316" lon="6.29161">
        <ele>2104.6</ele>
        <time>2024-08-13T05:23:16Z</time>
      </trkpt>
      <trkpt lat="44.80316" lon="6.29161">
        <ele>2104.4</ele>
        <time>2024-08-13T05:23:17Z</time>
      </trkpt>
      <trkpt lat="44.80315" lon="6.29158">
        <ele>2104.4</ele>
        <time>2024-08-13T05:23:18Z</time>
      </trkpt>
      <trkpt lat="44.80315" lon="6.29158">
        <ele>2104.4</ele>
        <time>2024-08-13T05:23:19Z</time>
      </trkpt>
      <trkpt lat="44.80315" lon="6.29158">
        <ele>2104.2</ele>
        <time>2024-08-13T05:23:20Z</time>
      </trkpt>
      <trkpt lat="44.80315" lon="6.29155">
        <ele>2104.2</ele>
        <time>2024-08-13T05:23:21Z</time>
      </trkpt>
      <trkpt lat="44.80315" lon="6.29155">
        <ele>2104</ele>
        <time>2024-08-13T05:23:22Z</time>
      </trkpt>
      <trkpt lat="44.80314" lon="6.29152">
        <ele>2103.6</ele>
        <time>2024-08-13T05:23:23Z</time>
      </trkpt>
      <trkpt lat="44.80314" lon="6.29152">
        <ele>2103.4</ele>
        <time>2024-08-13T05:23:24Z</time>
      </trkpt>
      <trkpt lat="44.80312" lon="6.2915">
        <ele>2103.4</ele>
        <time>2024-08-13T05:23:25Z</time>
      </trkpt>
      <trkpt lat="44.80312" lon="6.2915">
        <ele>2103.2</ele>
        <time>2024-08-13T05:23:26Z</time>
      </trkpt>
      <trkpt lat="44.80311" lon="6.29147">
        <ele>2103</ele>
        <time>2024-08-13T05:23:27Z</time>
      </trkpt>
      <trkpt lat="44.80311" lon="6.29147">
        <ele>2103</ele>
        <time>2024-08-13T05:23:28Z</time>
      </trkpt>
      <trkpt lat="44.8031" lon="6.29145">
        <ele>2102.8</ele>
        <time>2024-08-13T05:23:29Z</time>
      </trkpt>
      <trkpt lat="44.8031" lon="6.29145">
        <ele>2102.2</ele>
        <time>2024-08-13T05:23:30Z</time>
      </trkpt>
      <trkpt lat="44.80309" lon="6.29144">
        <ele>2102.2</ele>
        <time>2024-08-13T05:23:31Z</time>
      </trkpt>
      <trkpt lat="44.80309" lon="6.29144">
        <ele>2101.8</ele>
        <time>2024-08-13T05:23:32Z</time>
      </trkpt>
      <trkpt lat="44.80309" lon="6.29144">
        <ele>2101.4</ele>
        <time>2024-08-13T05:23:33Z</time>
      </trkpt>
      <trkpt lat="44.80307" lon="6.29142">
        <ele>2101</ele>
        <time>2024-08-13T05:23:34Z</time>
      </trkpt>
      <trkpt lat="44.80307" lon="6.29142">
        <ele>2100.6</ele>
        <time>2024-08-13T05:23:35Z</time>
      </trkpt>
      <trkpt lat="44.80306" lon="6.2914">
        <ele>2100.6</ele>
        <time>2024-08-13T05:23:36Z</time>
      </trkpt>
      <trkpt lat="44.80306" lon="6.2914">
        <ele>2100.4</ele>
        <time>2024-08-13T05:23:37Z</time>
      </trkpt>
      <trkpt lat="44.80305" lon="6.29137">
        <ele>2100.4</ele>
        <time>2024-08-13T05:23:38Z</time>
      </trkpt>
      <trkpt lat="44.80305" lon="6.29137">
        <ele>2100.2</ele>
        <time>2024-08-13T05:23:39Z</time>
      </trkpt>
      <trkpt lat="44.80305" lon="6.29137">
        <ele>2099.8</ele>
        <time>2024-08-13T05:23:40Z</time>
      </trkpt>
      <trkpt lat="44.80304" lon="6.29134">
        <ele>2099.4</ele>
        <time>2024-08-13T05:23:41Z</time>
      </trkpt>
      <trkpt lat="44.80304" lon="6.29134">
        <ele>2099</ele>
        <time>2024-08-13T05:23:42Z</time>
      </trkpt>
      <trkpt lat="44.80304" lon="6.29131">
        <ele>2099</ele>
        <time>2024-08-13T05:23:43Z</time>
      </trkpt>
      <trkpt lat="44.80304" lon="6.29131">
        <ele>2099</ele>
        <time>2024-08-13T05:23:44Z</time>
      </trkpt>
      <trkpt lat="44.80304" lon="6.29127">
        <ele>2098.4</ele>
        <time>2024-08-13T05:23:45Z</time>
      </trkpt>
      <trkpt lat="44.80304" lon="6.29127">
        <ele>2098.4</ele>
        <time>2024-08-13T05:23:46Z</time>
      </trkpt>
      <trkpt lat="44.80305" lon="6.29124">
        <ele>2098.2</ele>
        <time>2024-08-13T05:23:47Z</time>
      </trkpt>
      <trkpt lat="44.80305" lon="6.29124">
        <ele>2098</ele>
        <time>2024-08-13T05:23:48Z</time>
      </trkpt>
      <trkpt lat="44.80305" lon="6.29121">
        <ele>2097.8</ele>
        <time>2024-08-13T05:23:49Z</time>
      </trkpt>
      <trkpt lat="44.80305" lon="6.29121">
        <ele>2097.6</ele>
        <time>2024-08-13T05:23:50Z</time>
      </trkpt>
      <trkpt lat="44.80306" lon="6.29118">
        <ele>2097.4</ele>
        <time>2024-08-13T05:23:51Z</time>
      </trkpt>
      <trkpt lat="44.80306" lon="6.29118">
        <ele>2097.2</ele>
        <time>2024-08-13T05:23:52Z</time>
      </trkpt>
      <trkpt lat="44.80306" lon="6.29115">
        <ele>2097.2</ele>
        <time>2024-08-13T05:23:53Z</time>
      </trkpt>
      <trkpt lat="44.80306" lon="6.29115">
        <ele>2097</ele>
        <time>2024-08-13T05:23:54Z</time>
      </trkpt>
      <trkpt lat="44.80306" lon="6.29115">
        <ele>2096.6</ele>
        <time>2024-08-13T05:23:55Z</time>
      </trkpt>
      <trkpt lat="44.80308" lon="6.29111">
        <ele>2096.2</ele>
        <time>2024-08-13T05:23:56Z</time>
      </trkpt>
      <trkpt lat="44.8031" lon="6.2911">
        <ele>2096.2</ele>
        <time>2024-08-13T05:23:57Z</time>
      </trkpt>
      <trkpt lat="44.8031" lon="6.2911">
        <ele>2096.2</ele>
        <time>2024-08-13T05:23:58Z</time>
      </trkpt>
      <trkpt lat="44.80312" lon="6.2911">
        <ele>2096.2</ele>
        <time>2024-08-13T05:23:59Z</time>
      </trkpt>
      <trkpt lat="44.80312" lon="6.2911">
        <ele>2095.6</ele>
        <time>2024-08-13T05:24:00Z</time>
      </trkpt>
      <trkpt lat="44.80314" lon="6.29113">
        <ele>2095.6</ele>
        <time>2024-08-13T05:24:01Z</time>
      </trkpt>
      <trkpt lat="44.80314" lon="6.29113">
        <ele>2095.2</ele>
        <time>2024-08-13T05:24:02Z</time>
      </trkpt>
      <trkpt lat="44.80314" lon="6.29117">
        <ele>2095.2</ele>
        <time>2024-08-13T05:24:03Z</time>
      </trkpt>
      <trkpt lat="44.80314" lon="6.29117">
        <ele>2095.2</ele>
        <time>2024-08-13T05:24:04Z</time>
      </trkpt>
      <trkpt lat="44.80313" lon="6.29121">
        <ele>2095.2</ele>
        <time>2024-08-13T05:24:05Z</time>
      </trkpt>
      <trkpt lat="44.80313" lon="6.29121">
        <ele>2095</ele>
        <time>2024-08-13T05:24:06Z</time>
      </trkpt>
      <trkpt lat="44.80313" lon="6.29124">
        <ele>2094.8</ele>
        <time>2024-08-13T05:24:07Z</time>
      </trkpt>
      <trkpt lat="44.80313" lon="6.29124">
        <ele>2094.6</ele>
        <time>2024-08-13T05:24:08Z</time>
      </trkpt>
      <trkpt lat="44.80314" lon="6.29127">
        <ele>2094.4</ele>
        <time>2024-08-13T05:24:09Z</time>
      </trkpt>
      <trkpt lat="44.80314" lon="6.29127">
        <ele>2094.4</ele>
        <time>2024-08-13T05:24:10Z</time>
      </trkpt>
      <trkpt lat="44.80314" lon="6.29129">
        <ele>2094.4</ele>
        <time>2024-08-13T05:24:11Z</time>
      </trkpt>
      <trkpt lat="44.80314" lon="6.29129">
        <ele>2094</ele>
        <time>2024-08-13T05:24:12Z</time>
      </trkpt>
      <trkpt lat="44.80316" lon="6.29131">
        <ele>2093.8</ele>
        <time>2024-08-13T05:24:13Z</time>
      </trkpt>
      <trkpt lat="44.80316" lon="6.29131">
        <ele>2093.8</ele>
        <time>2024-08-13T05:24:14Z</time>
      </trkpt>
      <trkpt lat="44.80316" lon="6.29131">
        <ele>2093.6</ele>
        <time>2024-08-13T05:24:15Z</time>
      </trkpt>
      <trkpt lat="44.80318" lon="6.29133">
        <ele>2093.6</ele>
        <time>2024-08-13T05:24:16Z</time>
      </trkpt>
      <trkpt lat="44.80318" lon="6.29133">
        <ele>2093.6</ele>
        <time>2024-08-13T05:24:17Z</time>
      </trkpt>
      <trkpt lat="44.8032" lon="6.29134">
        <ele>2093.4</ele>
        <time>2024-08-13T05:24:18Z</time>
      </trkpt>
      <trkpt lat="44.8032" lon="6.29134">
        <ele>2093</ele>
        <time>2024-08-13T05:24:19Z</time>
      </trkpt>
      <trkpt lat="44.8032" lon="6.29134">
        <ele>2093</ele>
        <time>2024-08-13T05:24:20Z</time>
      </trkpt>
      <trkpt lat="44.80322" lon="6.29136">
        <ele>2092.8</ele>
        <time>2024-08-13T05:24:21Z</time>
      </trkpt>
      <trkpt lat="44.80322" lon="6.29136">
        <ele>2092.4</ele>
        <time>2024-08-13T05:24:22Z</time>
      </trkpt>
      <trkpt lat="44.80324" lon="6.29137">
        <ele>2092.4</ele>
        <time>2024-08-13T05:24:23Z</time>
      </trkpt>
      <trkpt lat="44.80324" lon="6.29137">
        <ele>2092.2</ele>
        <time>2024-08-13T05:24:24Z</time>
      </trkpt>
      <trkpt lat="44.80324" lon="6.29137">
        <ele>2092.2</ele>
        <time>2024-08-13T05:24:25Z</time>
      </trkpt>
      <trkpt lat="44.80326" lon="6.29138">
        <ele>2092</ele>
        <time>2024-08-13T05:24:26Z</time>
      </trkpt>
      <trkpt lat="44.80326" lon="6.29138">
        <ele>2092</ele>
        <time>2024-08-13T05:24:27Z</time>
      </trkpt>
      <trkpt lat="44.80328" lon="6.29139">
        <ele>2092</ele>
        <time>2024-08-13T05:24:28Z</time>
      </trkpt>
      <trkpt lat="44.80328" lon="6.29139">
        <ele>2091.8</ele>
        <time>2024-08-13T05:24:29Z</time>
      </trkpt>
      <trkpt lat="44.80331" lon="6.2914">
        <ele>2091.4</ele>
        <time>2024-08-13T05:24:30Z</time>
      </trkpt>
      <trkpt lat="44.80331" lon="6.2914">
        <ele>2091.2</ele>
        <time>2024-08-13T05:24:31Z</time>
      </trkpt>
      <trkpt lat="44.80334" lon="6.2914">
        <ele>2091</ele>
        <time>2024-08-13T05:24:32Z</time>
      </trkpt>
      <trkpt lat="44.80334" lon="6.2914">
        <ele>2090.8</ele>
        <time>2024-08-13T05:24:33Z</time>
      </trkpt>
      <trkpt lat="44.80334" lon="6.2914">
        <ele>2090.4</ele>
        <time>2024-08-13T05:24:34Z</time>
      </trkpt>
      <trkpt lat="44.80336" lon="6.29141">
        <ele>2090.2</ele>
        <time>2024-08-13T05:24:35Z</time>
      </trkpt>
      <trkpt lat="44.80336" lon="6.29141">
        <ele>2090.2</ele>
        <time>2024-08-13T05:24:36Z</time>
      </trkpt>
      <trkpt lat="44.80338" lon="6.29141">
        <ele>2089.8</ele>
        <time>2024-08-13T05:24:37Z</time>
      </trkpt>
      <trkpt lat="44.80338" lon="6.29141">
        <ele>2089.8</ele>
        <time>2024-08-13T05:24:38Z</time>
      </trkpt>
      <trkpt lat="44.80341" lon="6.29141">
        <ele>2089.8</ele>
        <time>2024-08-13T05:24:39Z</time>
      </trkpt>
      <trkpt lat="44.80341" lon="6.29141">
        <ele>2089.8</ele>
        <time>2024-08-13T05:24:40Z</time>
      </trkpt>
      <trkpt lat="44.80343" lon="6.29141">
        <ele>2089.4</ele>
        <time>2024-08-13T05:24:41Z</time>
      </trkpt>
      <trkpt lat="44.80343" lon="6.29141">
        <ele>2089</ele>
        <time>2024-08-13T05:24:42Z</time>
      </trkpt>
      <trkpt lat="44.80345" lon="6.29141">
        <ele>2089</ele>
        <time>2024-08-13T05:24:43Z</time>
      </trkpt>
      <trkpt lat="44.80345" lon="6.29141">
        <ele>2088.8</ele>
        <time>2024-08-13T05:24:44Z</time>
      </trkpt>
      <trkpt lat="44.80348" lon="6.29141">
        <ele>2088.8</ele>
        <time>2024-08-13T05:24:45Z</time>
      </trkpt>
      <trkpt lat="44.80348" lon="6.29141">
        <ele>2088.6</ele>
        <time>2024-08-13T05:24:46Z</time>
      </trkpt>
      <trkpt lat="44.80349" lon="6.2914">
        <ele>2088.4</ele>
        <time>2024-08-13T05:24:47Z</time>
      </trkpt>
      <trkpt lat="44.80349" lon="6.2914">
        <ele>2088.4</ele>
        <time>2024-08-13T05:24:48Z</time>
      </trkpt>
      <trkpt lat="44.80351" lon="6.29139">
        <ele>2088.2</ele>
        <time>2024-08-13T05:24:49Z</time>
      </trkpt>
      <trkpt lat="44.80351" lon="6.29139">
        <ele>2087.8</ele>
        <time>2024-08-13T05:24:50Z</time>
      </trkpt>
      <trkpt lat="44.80353" lon="6.2914">
        <ele>2087.4</ele>
        <time>2024-08-13T05:24:51Z</time>
      </trkpt>
      <trkpt lat="44.80353" lon="6.2914">
        <ele>2087.4</ele>
        <time>2024-08-13T05:24:52Z</time>
      </trkpt>
      <trkpt lat="44.80353" lon="6.2914">
        <ele>2087.4</ele>
        <time>2024-08-13T05:24:53Z</time>
      </trkpt>
      <trkpt lat="44.80356" lon="6.2914">
        <ele>2087.2</ele>
        <time>2024-08-13T05:24:54Z</time>
      </trkpt>
      <trkpt lat="44.80356" lon="6.2914">
        <ele>2087.2</ele>
        <time>2024-08-13T05:24:55Z</time>
      </trkpt>
      <trkpt lat="44.80358" lon="6.29141">
        <ele>2087</ele>
        <time>2024-08-13T05:24:56Z</time>
      </trkpt>
      <trkpt lat="44.80358" lon="6.29141">
        <ele>2087</ele>
        <time>2024-08-13T05:24:57Z</time>
      </trkpt>
      <trkpt lat="44.80361" lon="6.29141">
        <ele>2086.8</ele>
        <time>2024-08-13T05:24:58Z</time>
      </trkpt>
      <trkpt lat="44.80361" lon="6.29141">
        <ele>2086.6</ele>
        <time>2024-08-13T05:24:59Z</time>
      </trkpt>
      <trkpt lat="44.80363" lon="6.29142">
        <ele>2086.4</ele>
        <time>2024-08-13T05:25:00Z</time>
      </trkpt>
      <trkpt lat="44.80363" lon="6.29142">
        <ele>2086.4</ele>
        <time>2024-08-13T05:25:01Z</time>
      </trkpt>
      <trkpt lat="44.80365" lon="6.29143">
        <ele>2086.2</ele>
        <time>2024-08-13T05:25:02Z</time>
      </trkpt>
      <trkpt lat="44.80365" lon="6.29143">
        <ele>2086.2</ele>
        <time>2024-08-13T05:25:03Z</time>
      </trkpt>
      <trkpt lat="44.80367" lon="6.29144">
        <ele>2086</ele>
        <time>2024-08-13T05:25:04Z</time>
      </trkpt>
      <trkpt lat="44.80367" lon="6.29144">
        <ele>2086</ele>
        <time>2024-08-13T05:25:05Z</time>
      </trkpt>
      <trkpt lat="44.80369" lon="6.29144">
        <ele>2085.8</ele>
        <time>2024-08-13T05:25:06Z</time>
      </trkpt>
      <trkpt lat="44.80369" lon="6.29144">
        <ele>2085.6</ele>
        <time>2024-08-13T05:25:07Z</time>
      </trkpt>
      <trkpt lat="44.80371" lon="6.29144">
        <ele>2085.6</ele>
        <time>2024-08-13T05:25:08Z</time>
      </trkpt>
      <trkpt lat="44.80371" lon="6.29144">
        <ele>2085.2</ele>
        <time>2024-08-13T05:25:09Z</time>
      </trkpt>
      <trkpt lat="44.80371" lon="6.29144">
        <ele>2085</ele>
        <time>2024-08-13T05:25:10Z</time>
      </trkpt>
      <trkpt lat="44.80373" lon="6.29146">
        <ele>2085</ele>
        <time>2024-08-13T05:25:11Z</time>
      </trkpt>
      <trkpt lat="44.80373" lon="6.29146">
        <ele>2085</ele>
        <time>2024-08-13T05:25:12Z</time>
      </trkpt>
      <trkpt lat="44.80375" lon="6.29146">
        <ele>2084.8</ele>
        <time>2024-08-13T05:25:13Z</time>
      </trkpt>
      <trkpt lat="44.80375" lon="6.29146">
        <ele>2084.4</ele>
        <time>2024-08-13T05:25:14Z</time>
      </trkpt>
      <trkpt lat="44.80377" lon="6.29147">
        <ele>2084</ele>
        <time>2024-08-13T05:25:15Z</time>
      </trkpt>
      <trkpt lat="44.80377" lon="6.29147">
        <ele>2084</ele>
        <time>2024-08-13T05:25:16Z</time>
      </trkpt>
      <trkpt lat="44.8038" lon="6.29148">
        <ele>2083.8</ele>
        <time>2024-08-13T05:25:17Z</time>
      </trkpt>
      <trkpt lat="44.8038" lon="6.29148">
        <ele>2083.8</ele>
        <time>2024-08-13T05:25:18Z</time>
      </trkpt>
      <trkpt lat="44.80382" lon="6.29149">
        <ele>2083.2</ele>
        <time>2024-08-13T05:25:19Z</time>
      </trkpt>
      <trkpt lat="44.80382" lon="6.29149">
        <ele>2083</ele>
        <time>2024-08-13T05:25:20Z</time>
      </trkpt>
      <trkpt lat="44.80384" lon="6.29151">
        <ele>2083</ele>
        <time>2024-08-13T05:25:21Z</time>
      </trkpt>
      <trkpt lat="44.80384" lon="6.29151">
        <ele>2082.8</ele>
        <time>2024-08-13T05:25:22Z</time>
      </trkpt>
      <trkpt lat="44.80386" lon="6.29154">
        <ele>2082.8</ele>
        <time>2024-08-13T05:25:23Z</time>
      </trkpt>
      <trkpt lat="44.80386" lon="6.29154">
        <ele>2082.8</ele>
        <time>2024-08-13T05:25:24Z</time>
      </trkpt>
      <trkpt lat="44.80386" lon="6.29158">
        <ele>2082.8</ele>
        <time>2024-08-13T05:25:25Z</time>
      </trkpt>
      <trkpt lat="44.80386" lon="6.29158">
        <ele>2082.6</ele>
        <time>2024-08-13T05:25:26Z</time>
      </trkpt>
      <trkpt lat="44.80385" lon="6.29161">
        <ele>2082.4</ele>
        <time>2024-08-13T05:25:27Z</time>
      </trkpt>
      <trkpt lat="44.80385" lon="6.29161">
        <ele>2082.2</ele>
        <time>2024-08-13T05:25:28Z</time>
      </trkpt>
      <trkpt lat="44.80385" lon="6.29163">
        <ele>2082</ele>
        <time>2024-08-13T05:25:29Z</time>
      </trkpt>
      <trkpt lat="44.80385" lon="6.29163">
        <ele>2082</ele>
        <time>2024-08-13T05:25:30Z</time>
      </trkpt>
      <trkpt lat="44.80385" lon="6.29163">
        <ele>2082</ele>
        <time>2024-08-13T05:25:31Z</time>
      </trkpt>
      <trkpt lat="44.80386" lon="6.29167">
        <ele>2081.6</ele>
        <time>2024-08-13T05:25:32Z</time>
      </trkpt>
      <trkpt lat="44.80386" lon="6.29167">
        <ele>2081</ele>
        <time>2024-08-13T05:25:33Z</time>
      </trkpt>
      <trkpt lat="44.80386" lon="6.2917">
        <ele>2080.8</ele>
        <time>2024-08-13T05:25:34Z</time>
      </trkpt>
      <trkpt lat="44.80386" lon="6.2917">
        <ele>2080.6</ele>
        <time>2024-08-13T05:25:35Z</time>
      </trkpt>
      <trkpt lat="44.80388" lon="6.29172">
        <ele>2080.6</ele>
        <time>2024-08-13T05:25:36Z</time>
      </trkpt>
      <trkpt lat="44.80388" lon="6.29172">
        <ele>2080.6</ele>
        <time>2024-08-13T05:25:37Z</time>
      </trkpt>
      <trkpt lat="44.80388" lon="6.29172">
        <ele>2080.6</ele>
        <time>2024-08-13T05:25:38Z</time>
      </trkpt>
      <trkpt lat="44.80388" lon="6.29175">
        <ele>2080</ele>
        <time>2024-08-13T05:25:39Z</time>
      </trkpt>
      <trkpt lat="44.80388" lon="6.29175">
        <ele>2079.8</ele>
        <time>2024-08-13T05:25:40Z</time>
      </trkpt>
      <trkpt lat="44.80389" lon="6.29178">
        <ele>2079.6</ele>
        <time>2024-08-13T05:25:41Z</time>
      </trkpt>
      <trkpt lat="44.80389" lon="6.29178">
        <ele>2079.4</ele>
        <time>2024-08-13T05:25:42Z</time>
      </trkpt>
      <trkpt lat="44.80389" lon="6.29178">
        <ele>2079.2</ele>
        <time>2024-08-13T05:25:43Z</time>
      </trkpt>
      <trkpt lat="44.80389" lon="6.29181">
        <ele>2079.2</ele>
        <time>2024-08-13T05:25:44Z</time>
      </trkpt>
      <trkpt lat="44.80389" lon="6.29181">
        <ele>2079</ele>
        <time>2024-08-13T05:25:45Z</time>
      </trkpt>
      <trkpt lat="44.8039" lon="6.29184">
        <ele>2078.8</ele>
        <time>2024-08-13T05:25:46Z</time>
      </trkpt>
      <trkpt lat="44.8039" lon="6.29184">
        <ele>2078.6</ele>
        <time>2024-08-13T05:25:47Z</time>
      </trkpt>
      <trkpt lat="44.8039" lon="6.29184">
        <ele>2078.4</ele>
        <time>2024-08-13T05:25:48Z</time>
      </trkpt>
      <trkpt lat="44.80389" lon="6.29188">
        <ele>2078.2</ele>
        <time>2024-08-13T05:25:49Z</time>
      </trkpt>
      <trkpt lat="44.80389" lon="6.29188">
        <ele>2078.2</ele>
        <time>2024-08-13T05:25:50Z</time>
      </trkpt>
      <trkpt lat="44.80388" lon="6.2919">
        <ele>2077.8</ele>
        <time>2024-08-13T05:25:51Z</time>
      </trkpt>
      <trkpt lat="44.80388" lon="6.2919">
        <ele>2077.4</ele>
        <time>2024-08-13T05:25:52Z</time>
      </trkpt>
      <trkpt lat="44.80388" lon="6.2919">
        <ele>2077.4</ele>
        <time>2024-08-13T05:25:53Z</time>
      </trkpt>
      <trkpt lat="44.80386" lon="6.29193">
        <ele>2077</ele>
        <time>2024-08-13T05:25:54Z</time>
      </trkpt>
      <trkpt lat="44.80386" lon="6.29193">
        <ele>2077</ele>
        <time>2024-08-13T05:25:55Z</time>
      </trkpt>
      <trkpt lat="44.80386" lon="6.29193">
        <ele>2076.8</ele>
        <time>2024-08-13T05:25:56Z</time>
      </trkpt>
      <trkpt lat="44.80385" lon="6.29197">
        <ele>2076.6</ele>
        <time>2024-08-13T05:25:57Z</time>
      </trkpt>
      <trkpt lat="44.80385" lon="6.29197">
        <ele>2076.6</ele>
        <time>2024-08-13T05:25:58Z</time>
      </trkpt>
      <trkpt lat="44.80384" lon="6.292">
        <ele>2076.4</ele>
        <time>2024-08-13T05:25:59Z</time>
      </trkpt>
      <trkpt lat="44.80384" lon="6.292">
        <ele>2076</ele>
        <time>2024-08-13T05:26:00Z</time>
      </trkpt>
      <trkpt lat="44.80383" lon="6.29202">
        <ele>2076</ele>
        <time>2024-08-13T05:26:01Z</time>
      </trkpt>
      <trkpt lat="44.80383" lon="6.29202">
        <ele>2075.6</ele>
        <time>2024-08-13T05:26:02Z</time>
      </trkpt>
      <trkpt lat="44.80382" lon="6.29205">
        <ele>2075.6</ele>
        <time>2024-08-13T05:26:03Z</time>
      </trkpt>
      <trkpt lat="44.80382" lon="6.29205">
        <ele>2075.6</ele>
        <time>2024-08-13T05:26:04Z</time>
      </trkpt>
      <trkpt lat="44.80382" lon="6.29208">
        <ele>2075.2</ele>
        <time>2024-08-13T05:26:05Z</time>
      </trkpt>
      <trkpt lat="44.80382" lon="6.29208">
        <ele>2075.2</ele>
        <time>2024-08-13T05:26:06Z</time>
      </trkpt>
      <trkpt lat="44.80382" lon="6.29211">
        <ele>2074.8</ele>
        <time>2024-08-13T05:26:07Z</time>
      </trkpt>
      <trkpt lat="44.80382" lon="6.29211">
        <ele>2074.4</ele>
        <time>2024-08-13T05:26:08Z</time>
      </trkpt>
      <trkpt lat="44.80382" lon="6.29211">
        <ele>2074.2</ele>
        <time>2024-08-13T05:26:09Z</time>
      </trkpt>
      <trkpt lat="44.80382" lon="6.29214">
        <ele>2074.2</ele>
        <time>2024-08-13T05:26:10Z</time>
      </trkpt>
      <trkpt lat="44.80382" lon="6.29214">
        <ele>2073.8</ele>
        <time>2024-08-13T05:26:11Z</time>
      </trkpt>
      <trkpt lat="44.80384" lon="6.29215">
        <ele>2073.4</ele>
        <time>2024-08-13T05:26:12Z</time>
      </trkpt>
      <trkpt lat="44.80384" lon="6.29215">
        <ele>2073.2</ele>
        <time>2024-08-13T05:26:13Z</time>
      </trkpt>
      <trkpt lat="44.80386" lon="6.29215">
        <ele>2073.2</ele>
        <time>2024-08-13T05:26:14Z</time>
      </trkpt>
      <trkpt lat="44.80386" lon="6.29215">
        <ele>2073</ele>
        <time>2024-08-13T05:26:15Z</time>
      </trkpt>
      <trkpt lat="44.80386" lon="6.29215">
        <ele>2072.8</ele>
        <time>2024-08-13T05:26:16Z</time>
      </trkpt>
      <trkpt lat="44.80387" lon="6.29219">
        <ele>2072.6</ele>
        <time>2024-08-13T05:26:17Z</time>
      </trkpt>
      <trkpt lat="44.80387" lon="6.29219">
        <ele>2072.4</ele>
        <time>2024-08-13T05:26:18Z</time>
      </trkpt>
      <trkpt lat="44.80387" lon="6.29219">
        <ele>2072</ele>
        <time>2024-08-13T05:26:19Z</time>
      </trkpt>
      <trkpt lat="44.80388" lon="6.29221">
        <ele>2072</ele>
        <time>2024-08-13T05:26:20Z</time>
      </trkpt>
      <trkpt lat="44.80388" lon="6.29221">
        <ele>2071.8</ele>
        <time>2024-08-13T05:26:21Z</time>
      </trkpt>
      <trkpt lat="44.80388" lon="6.29224">
        <ele>2071.8</ele>
        <time>2024-08-13T05:26:22Z</time>
      </trkpt>
      <trkpt lat="44.80388" lon="6.29224">
        <ele>2072.2</ele>
        <time>2024-08-13T05:26:23Z</time>
      </trkpt>
      <trkpt lat="44.80389" lon="6.29227">
        <ele>2072.2</ele>
        <time>2024-08-13T05:26:24Z</time>
      </trkpt>
      <trkpt lat="44.80389" lon="6.29227">
        <ele>2072.2</ele>
        <time>2024-08-13T05:26:25Z</time>
      </trkpt>
      <trkpt lat="44.80389" lon="6.29227">
        <ele>2072.2</ele>
        <time>2024-08-13T05:26:26Z</time>
      </trkpt>
      <trkpt lat="44.80389" lon="6.2923">
        <ele>2072.2</ele>
        <time>2024-08-13T05:26:27Z</time>
      </trkpt>
      <trkpt lat="44.80389" lon="6.2923">
        <ele>2072.2</ele>
        <time>2024-08-13T05:26:28Z</time>
      </trkpt>
      <trkpt lat="44.80389" lon="6.2923">
        <ele>2072.2</ele>
        <time>2024-08-13T05:26:29Z</time>
      </trkpt>
      <trkpt lat="44.80391" lon="6.29231">
        <ele>2072</ele>
        <time>2024-08-13T05:26:30Z</time>
      </trkpt>
      <trkpt lat="44.80391" lon="6.29231">
        <ele>2071.8</ele>
        <time>2024-08-13T05:26:31Z</time>
      </trkpt>
      <trkpt lat="44.80391" lon="6.29231">
        <ele>2071.4</ele>
        <time>2024-08-13T05:26:32Z</time>
      </trkpt>
      <trkpt lat="44.80394" lon="6.29232">
        <ele>2071.4</ele>
        <time>2024-08-13T05:26:33Z</time>
      </trkpt>
      <trkpt lat="44.80394" lon="6.29232">
        <ele>2071.2</ele>
        <time>2024-08-13T05:26:34Z</time>
      </trkpt>
      <trkpt lat="44.80396" lon="6.29231">
        <ele>2070.8</ele>
        <time>2024-08-13T05:26:35Z</time>
      </trkpt>
      <trkpt lat="44.80396" lon="6.29231">
        <ele>2070.8</ele>
        <time>2024-08-13T05:26:36Z</time>
      </trkpt>
      <trkpt lat="44.80396" lon="6.29231">
        <ele>2070.6</ele>
        <time>2024-08-13T05:26:37Z</time>
      </trkpt>
      <trkpt lat="44.80397" lon="6.29229">
        <ele>2070.4</ele>
        <time>2024-08-13T05:26:38Z</time>
      </trkpt>
      <trkpt lat="44.80397" lon="6.29229">
        <ele>2070.2</ele>
        <time>2024-08-13T05:26:39Z</time>
      </trkpt>
      <trkpt lat="44.80399" lon="6.29228">
        <ele>2070.2</ele>
        <time>2024-08-13T05:26:40Z</time>
      </trkpt>
      <trkpt lat="44.80399" lon="6.29228">
        <ele>2069.8</ele>
        <time>2024-08-13T05:26:41Z</time>
      </trkpt>
      <trkpt lat="44.80399" lon="6.29228">
        <ele>2069.6</ele>
        <time>2024-08-13T05:26:42Z</time>
      </trkpt>
      <trkpt lat="44.80402" lon="6.29228">
        <ele>2069.2</ele>
        <time>2024-08-13T05:26:43Z</time>
      </trkpt>
      <trkpt lat="44.80402" lon="6.29228">
        <ele>2069</ele>
        <time>2024-08-13T05:26:44Z</time>
      </trkpt>
      <trkpt lat="44.80404" lon="6.29227">
        <ele>2069</ele>
        <time>2024-08-13T05:26:45Z</time>
      </trkpt>
      <trkpt lat="44.80404" lon="6.29227">
        <ele>2069</ele>
        <time>2024-08-13T05:26:46Z</time>
      </trkpt>
      <trkpt lat="44.80406" lon="6.29226">
        <ele>2068.4</ele>
        <time>2024-08-13T05:26:47Z</time>
      </trkpt>
      <trkpt lat="44.80406" lon="6.29226">
        <ele>2068</ele>
        <time>2024-08-13T05:26:48Z</time>
      </trkpt>
      <trkpt lat="44.80408" lon="6.29226">
        <ele>2067.8</ele>
        <time>2024-08-13T05:26:49Z</time>
      </trkpt>
      <trkpt lat="44.80408" lon="6.29226">
        <ele>2067.8</ele>
        <time>2024-08-13T05:26:50Z</time>
      </trkpt>
      <trkpt lat="44.8041" lon="6.29225">
        <ele>2067.6</ele>
        <time>2024-08-13T05:26:51Z</time>
      </trkpt>
      <trkpt lat="44.8041" lon="6.29225">
        <ele>2067.4</ele>
        <time>2024-08-13T05:26:52Z</time>
      </trkpt>
      <trkpt lat="44.80413" lon="6.29225">
        <ele>2067.2</ele>
        <time>2024-08-13T05:26:53Z</time>
      </trkpt>
      <trkpt lat="44.80413" lon="6.29225">
        <ele>2067.2</ele>
        <time>2024-08-13T05:26:54Z</time>
      </trkpt>
      <trkpt lat="44.80415" lon="6.29225">
        <ele>2067</ele>
        <time>2024-08-13T05:26:55Z</time>
      </trkpt>
      <trkpt lat="44.80415" lon="6.29225">
        <ele>2067</ele>
        <time>2024-08-13T05:26:56Z</time>
      </trkpt>
      <trkpt lat="44.80415" lon="6.29225">
        <ele>2066.6</ele>
        <time>2024-08-13T05:26:57Z</time>
      </trkpt>
      <trkpt lat="44.80416" lon="6.29227">
        <ele>2066.6</ele>
        <time>2024-08-13T05:26:58Z</time>
      </trkpt>
      <trkpt lat="44.80416" lon="6.29227">
        <ele>2066.6</ele>
        <time>2024-08-13T05:26:59Z</time>
      </trkpt>
      <trkpt lat="44.80416" lon="6.29227">
        <ele>2066.4</ele>
        <time>2024-08-13T05:27:00Z</time>
      </trkpt>
      <trkpt lat="44.80418" lon="6.29229">
        <ele>2066.2</ele>
        <time>2024-08-13T05:27:01Z</time>
      </trkpt>
      <trkpt lat="44.80418" lon="6.29229">
        <ele>2066.2</ele>
        <time>2024-08-13T05:27:02Z</time>
      </trkpt>
      <trkpt lat="44.80418" lon="6.29229">
        <ele>2066.2</ele>
        <time>2024-08-13T05:27:03Z</time>
      </trkpt>
      <trkpt lat="44.8042" lon="6.2923">
        <ele>2066</ele>
        <time>2024-08-13T05:27:04Z</time>
      </trkpt>
      <trkpt lat="44.8042" lon="6.2923">
        <ele>2065.4</ele>
        <time>2024-08-13T05:27:05Z</time>
      </trkpt>
      <trkpt lat="44.80422" lon="6.2923">
        <ele>2065.2</ele>
        <time>2024-08-13T05:27:06Z</time>
      </trkpt>
      <trkpt lat="44.80422" lon="6.2923">
        <ele>2065.2</ele>
        <time>2024-08-13T05:27:07Z</time>
      </trkpt>
      <trkpt lat="44.80422" lon="6.2923">
        <ele>2065.2</ele>
        <time>2024-08-13T05:27:08Z</time>
      </trkpt>
      <trkpt lat="44.80425" lon="6.29229">
        <ele>2065</ele>
        <time>2024-08-13T05:27:09Z</time>
      </trkpt>
      <trkpt lat="44.80425" lon="6.29229">
        <ele>2064.8</ele>
        <time>2024-08-13T05:27:10Z</time>
      </trkpt>
      <trkpt lat="44.80425" lon="6.29229">
        <ele>2064.4</ele>
        <time>2024-08-13T05:27:11Z</time>
      </trkpt>
      <trkpt lat="44.80428" lon="6.29231">
        <ele>2064.2</ele>
        <time>2024-08-13T05:27:12Z</time>
      </trkpt>
      <trkpt lat="44.80428" lon="6.29231">
        <ele>2064.2</ele>
        <time>2024-08-13T05:27:13Z</time>
      </trkpt>
      <trkpt lat="44.8043" lon="6.2923">
        <ele>2064.4</ele>
        <time>2024-08-13T05:27:14Z</time>
      </trkpt>
      <trkpt lat="44.8043" lon="6.2923">
        <ele>2064.4</ele>
        <time>2024-08-13T05:27:15Z</time>
      </trkpt>
      <trkpt lat="44.80432" lon="6.29231">
        <ele>2064.2</ele>
        <time>2024-08-13T05:27:16Z</time>
      </trkpt>
      <trkpt lat="44.80432" lon="6.29231">
        <ele>2064.2</ele>
        <time>2024-08-13T05:27:17Z</time>
      </trkpt>
      <trkpt lat="44.80432" lon="6.29231">
        <ele>2064.2</ele>
        <time>2024-08-13T05:27:18Z</time>
      </trkpt>
      <trkpt lat="44.80435" lon="6.29232">
        <ele>2064.2</ele>
        <time>2024-08-13T05:27:19Z</time>
      </trkpt>
      <trkpt lat="44.80435" lon="6.29232">
        <ele>2064</ele>
        <time>2024-08-13T05:27:20Z</time>
      </trkpt>
      <trkpt lat="44.80435" lon="6.29232">
        <ele>2063.6</ele>
        <time>2024-08-13T05:27:21Z</time>
      </trkpt>
      <trkpt lat="44.80437" lon="6.29233">
        <ele>2063.6</ele>
        <time>2024-08-13T05:27:22Z</time>
      </trkpt>
      <trkpt lat="44.80437" lon="6.29233">
        <ele>2063.4</ele>
        <time>2024-08-13T05:27:23Z</time>
      </trkpt>
      <trkpt lat="44.80437" lon="6.29233">
        <ele>2063.2</ele>
        <time>2024-08-13T05:27:24Z</time>
      </trkpt>
      <trkpt lat="44.80439" lon="6.29235">
        <ele>2063</ele>
        <time>2024-08-13T05:27:25Z</time>
      </trkpt>
      <trkpt lat="44.80439" lon="6.29235">
        <ele>2062.8</ele>
        <time>2024-08-13T05:27:26Z</time>
      </trkpt>
      <trkpt lat="44.80439" lon="6.29235">
        <ele>2062.8</ele>
        <time>2024-08-13T05:27:27Z</time>
      </trkpt>
      <trkpt lat="44.80439" lon="6.29235">
        <ele>2062.6</ele>
        <time>2024-08-13T05:27:28Z</time>
      </trkpt>
      <trkpt lat="44.80441" lon="6.29235">
        <ele>2062.6</ele>
        <time>2024-08-13T05:27:29Z</time>
      </trkpt>
      <trkpt lat="44.80441" lon="6.29235">
        <ele>2062.4</ele>
        <time>2024-08-13T05:27:30Z</time>
      </trkpt>
      <trkpt lat="44.80441" lon="6.29235">
        <ele>2062</ele>
        <time>2024-08-13T05:27:31Z</time>
      </trkpt>
      <trkpt lat="44.80443" lon="6.29235">
        <ele>2061.8</ele>
        <time>2024-08-13T05:27:32Z</time>
      </trkpt>
      <trkpt lat="44.80443" lon="6.29235">
        <ele>2061.6</ele>
        <time>2024-08-13T05:27:33Z</time>
      </trkpt>
      <trkpt lat="44.80443" lon="6.29235">
        <ele>2061.6</ele>
        <time>2024-08-13T05:27:34Z</time>
      </trkpt>
      <trkpt lat="44.80445" lon="6.29237">
        <ele>2061.4</ele>
        <time>2024-08-13T05:27:35Z</time>
      </trkpt>
      <trkpt lat="44.80445" lon="6.29237">
        <ele>2061.2</ele>
        <time>2024-08-13T05:27:36Z</time>
      </trkpt>
      <trkpt lat="44.80448" lon="6.29237">
        <ele>2061</ele>
        <time>2024-08-13T05:27:37Z</time>
      </trkpt>
      <trkpt lat="44.80448" lon="6.29237">
        <ele>2060.8</ele>
        <time>2024-08-13T05:27:38Z</time>
      </trkpt>
      <trkpt lat="44.8045" lon="6.29238">
        <ele>2060.6</ele>
        <time>2024-08-13T05:27:39Z</time>
      </trkpt>
      <trkpt lat="44.8045" lon="6.29238">
        <ele>2060.4</ele>
        <time>2024-08-13T05:27:40Z</time>
      </trkpt>
      <trkpt lat="44.8045" lon="6.29238">
        <ele>2060.4</ele>
        <time>2024-08-13T05:27:41Z</time>
      </trkpt>
      <trkpt lat="44.80452" lon="6.29238">
        <ele>2060.2</ele>
        <time>2024-08-13T05:27:42Z</time>
      </trkpt>
      <trkpt lat="44.80452" lon="6.29238">
        <ele>2059.8</ele>
        <time>2024-08-13T05:27:43Z</time>
      </trkpt>
      <trkpt lat="44.80454" lon="6.29238">
        <ele>2059.6</ele>
        <time>2024-08-13T05:27:44Z</time>
      </trkpt>
      <trkpt lat="44.80454" lon="6.29238">
        <ele>2059.4</ele>
        <time>2024-08-13T05:27:45Z</time>
      </trkpt>
      <trkpt lat="44.80454" lon="6.29238">
        <ele>2059.4</ele>
        <time>2024-08-13T05:27:46Z</time>
      </trkpt>
      <trkpt lat="44.80454" lon="6.29238">
        <ele>2059</ele>
        <time>2024-08-13T05:27:47Z</time>
      </trkpt>
      <trkpt lat="44.80456" lon="6.29239">
        <ele>2058.8</ele>
        <time>2024-08-13T05:27:48Z</time>
      </trkpt>
      <trkpt lat="44.80456" lon="6.29239">
        <ele>2058.6</ele>
        <time>2024-08-13T05:27:49Z</time>
      </trkpt>
      <trkpt lat="44.80456" lon="6.29239">
        <ele>2058.4</ele>
        <time>2024-08-13T05:27:50Z</time>
      </trkpt>
      <trkpt lat="44.80459" lon="6.2924">
        <ele>2058.2</ele>
        <time>2024-08-13T05:27:51Z</time>
      </trkpt>
      <trkpt lat="44.80459" lon="6.2924">
        <ele>2058</ele>
        <time>2024-08-13T05:27:52Z</time>
      </trkpt>
      <trkpt lat="44.80461" lon="6.2924">
        <ele>2057.8</ele>
        <time>2024-08-13T05:27:53Z</time>
      </trkpt>
      <trkpt lat="44.80461" lon="6.2924">
        <ele>2057.8</ele>
        <time>2024-08-13T05:27:54Z</time>
      </trkpt>
      <trkpt lat="44.80463" lon="6.2924">
        <ele>2057.8</ele>
        <time>2024-08-13T05:27:55Z</time>
      </trkpt>
      <trkpt lat="44.80463" lon="6.2924">
        <ele>2057.8</ele>
        <time>2024-08-13T05:27:56Z</time>
      </trkpt>
      <trkpt lat="44.80465" lon="6.29241">
        <ele>2057.6</ele>
        <time>2024-08-13T05:27:57Z</time>
      </trkpt>
      <trkpt lat="44.80465" lon="6.29241">
        <ele>2057.4</ele>
        <time>2024-08-13T05:27:58Z</time>
      </trkpt>
      <trkpt lat="44.80467" lon="6.29242">
        <ele>2057.4</ele>
        <time>2024-08-13T05:27:59Z</time>
      </trkpt>
      <trkpt lat="44.80467" lon="6.29242">
        <ele>2056.8</ele>
        <time>2024-08-13T05:28:00Z</time>
      </trkpt>
      <trkpt lat="44.80469" lon="6.29244">
        <ele>2056.6</ele>
        <time>2024-08-13T05:28:01Z</time>
      </trkpt>
      <trkpt lat="44.80469" lon="6.29244">
        <ele>2056.4</ele>
        <time>2024-08-13T05:28:02Z</time>
      </trkpt>
      <trkpt lat="44.80471" lon="6.29244">
        <ele>2056.4</ele>
        <time>2024-08-13T05:28:03Z</time>
      </trkpt>
      <trkpt lat="44.80471" lon="6.29244">
        <ele>2056.4</ele>
        <time>2024-08-13T05:28:04Z</time>
      </trkpt>
      <trkpt lat="44.80473" lon="6.29246">
        <ele>2056</ele>
        <time>2024-08-13T05:28:05Z</time>
      </trkpt>
      <trkpt lat="44.80473" lon="6.29246">
        <ele>2056</ele>
        <time>2024-08-13T05:28:06Z</time>
      </trkpt>
      <trkpt lat="44.80476" lon="6.29247">
        <ele>2056</ele>
        <time>2024-08-13T05:28:07Z</time>
      </trkpt>
      <trkpt lat="44.80476" lon="6.29247">
        <ele>2055.8</ele>
        <time>2024-08-13T05:28:08Z</time>
      </trkpt>
      <trkpt lat="44.80478" lon="6.29248">
        <ele>2055.6</ele>
        <time>2024-08-13T05:28:09Z</time>
      </trkpt>
      <trkpt lat="44.80478" lon="6.29248">
        <ele>2055.6</ele>
        <time>2024-08-13T05:28:10Z</time>
      </trkpt>
      <trkpt lat="44.80481" lon="6.2925">
        <ele>2055.6</ele>
        <time>2024-08-13T05:28:11Z</time>
      </trkpt>
      <trkpt lat="44.80481" lon="6.2925">
        <ele>2055.6</ele>
        <time>2024-08-13T05:28:12Z</time>
      </trkpt>
      <trkpt lat="44.80482" lon="6.29252">
        <ele>2055.4</ele>
        <time>2024-08-13T05:28:13Z</time>
      </trkpt>
      <trkpt lat="44.80482" lon="6.29252">
        <ele>2055.4</ele>
        <time>2024-08-13T05:28:14Z</time>
      </trkpt>
      <trkpt lat="44.80484" lon="6.29254">
        <ele>2055.4</ele>
        <time>2024-08-13T05:28:15Z</time>
      </trkpt>
      <trkpt lat="44.80484" lon="6.29254">
        <ele>2055.2</ele>
        <time>2024-08-13T05:28:16Z</time>
      </trkpt>
      <trkpt lat="44.80485" lon="6.29255">
        <ele>2055.2</ele>
        <time>2024-08-13T05:28:17Z</time>
      </trkpt>
      <trkpt lat="44.80485" lon="6.29255">
        <ele>2055</ele>
        <time>2024-08-13T05:28:18Z</time>
      </trkpt>
      <trkpt lat="44.80487" lon="6.29257">
        <ele>2055</ele>
        <time>2024-08-13T05:28:19Z</time>
      </trkpt>
      <trkpt lat="44.80487" lon="6.29257">
        <ele>2055</ele>
        <time>2024-08-13T05:28:20Z</time>
      </trkpt>
      <trkpt lat="44.8049" lon="6.29258">
        <ele>2055</ele>
        <time>2024-08-13T05:28:21Z</time>
      </trkpt>
      <trkpt lat="44.8049" lon="6.29258">
        <ele>2055</ele>
        <time>2024-08-13T05:28:22Z</time>
      </trkpt>
      <trkpt lat="44.80491" lon="6.29259">
        <ele>2055</ele>
        <time>2024-08-13T05:28:23Z</time>
      </trkpt>
      <trkpt lat="44.80491" lon="6.29259">
        <ele>2055</ele>
        <time>2024-08-13T05:28:24Z</time>
      </trkpt>
      <trkpt lat="44.80493" lon="6.2926">
        <ele>2055</ele>
        <time>2024-08-13T05:28:25Z</time>
      </trkpt>
      <trkpt lat="44.80493" lon="6.2926">
        <ele>2055</ele>
        <time>2024-08-13T05:28:26Z</time>
      </trkpt>
      <trkpt lat="44.80495" lon="6.29262">
        <ele>2055</ele>
        <time>2024-08-13T05:28:27Z</time>
      </trkpt>
      <trkpt lat="44.80495" lon="6.29262">
        <ele>2054.8</ele>
        <time>2024-08-13T05:28:28Z</time>
      </trkpt>
      <trkpt lat="44.80497" lon="6.29263">
        <ele>2054.6</ele>
        <time>2024-08-13T05:28:29Z</time>
      </trkpt>
      <trkpt lat="44.80497" lon="6.29263">
        <ele>2054.6</ele>
        <time>2024-08-13T05:28:30Z</time>
      </trkpt>
      <trkpt lat="44.80499" lon="6.29267">
        <ele>2054.6</ele>
        <time>2024-08-13T05:28:31Z</time>
      </trkpt>
      <trkpt lat="44.80499" lon="6.29267">
        <ele>2054.4</ele>
        <time>2024-08-13T05:28:32Z</time>
      </trkpt>
      <trkpt lat="44.80499" lon="6.2927">
        <ele>2054.2</ele>
        <time>2024-08-13T05:28:33Z</time>
      </trkpt>
      <trkpt lat="44.80499" lon="6.2927">
        <ele>2054</ele>
        <time>2024-08-13T05:28:34Z</time>
      </trkpt>
      <trkpt lat="44.80499" lon="6.29275">
        <ele>2053.8</ele>
        <time>2024-08-13T05:28:35Z</time>
      </trkpt>
      <trkpt lat="44.80499" lon="6.29275">
        <ele>2053.8</ele>
        <time>2024-08-13T05:28:36Z</time>
      </trkpt>
      <trkpt lat="44.80499" lon="6.29278">
        <ele>2053.6</ele>
        <time>2024-08-13T05:28:37Z</time>
      </trkpt>
      <trkpt lat="44.80499" lon="6.29278">
        <ele>2053.4</ele>
        <time>2024-08-13T05:28:38Z</time>
      </trkpt>
      <trkpt lat="44.80498" lon="6.29281">
        <ele>2053.2</ele>
        <time>2024-08-13T05:28:39Z</time>
      </trkpt>
      <trkpt lat="44.80498" lon="6.29281">
        <ele>2052.8</ele>
        <time>2024-08-13T05:28:40Z</time>
      </trkpt>
      <trkpt lat="44.80497" lon="6.29285">
        <ele>2052.8</ele>
        <time>2024-08-13T05:28:41Z</time>
      </trkpt>
      <trkpt lat="44.80497" lon="6.29285">
        <ele>2052.8</ele>
        <time>2024-08-13T05:28:42Z</time>
      </trkpt>
      <trkpt lat="44.80497" lon="6.29287">
        <ele>2052.4</ele>
        <time>2024-08-13T05:28:43Z</time>
      </trkpt>
      <trkpt lat="44.80497" lon="6.29287">
        <ele>2052.2</ele>
        <time>2024-08-13T05:28:44Z</time>
      </trkpt>
      <trkpt lat="44.80497" lon="6.29287">
        <ele>2052.2</ele>
        <time>2024-08-13T05:28:45Z</time>
      </trkpt>
      <trkpt lat="44.805" lon="6.29289">
        <ele>2052</ele>
        <time>2024-08-13T05:28:46Z</time>
      </trkpt>
      <trkpt lat="44.805" lon="6.29289">
        <ele>2051.8</ele>
        <time>2024-08-13T05:28:47Z</time>
      </trkpt>
      <trkpt lat="44.80502" lon="6.29291">
        <ele>2051.6</ele>
        <time>2024-08-13T05:28:48Z</time>
      </trkpt>
      <trkpt lat="44.80502" lon="6.29291">
        <ele>2051.4</ele>
        <time>2024-08-13T05:28:49Z</time>
      </trkpt>
      <trkpt lat="44.80504" lon="6.29293">
        <ele>2051</ele>
        <time>2024-08-13T05:28:50Z</time>
      </trkpt>
      <trkpt lat="44.80504" lon="6.29293">
        <ele>2051</ele>
        <time>2024-08-13T05:28:51Z</time>
      </trkpt>
      <trkpt lat="44.80506" lon="6.29295">
        <ele>2050.8</ele>
        <time>2024-08-13T05:28:52Z</time>
      </trkpt>
      <trkpt lat="44.80506" lon="6.29295">
        <ele>2050.8</ele>
        <time>2024-08-13T05:28:53Z</time>
      </trkpt>
      <trkpt lat="44.80509" lon="6.29296">
        <ele>2050.6</ele>
        <time>2024-08-13T05:28:54Z</time>
      </trkpt>
      <trkpt lat="44.80509" lon="6.29296">
        <ele>2050.4</ele>
        <time>2024-08-13T05:28:55Z</time>
      </trkpt>
      <trkpt lat="44.8051" lon="6.29297">
        <ele>2050.4</ele>
        <time>2024-08-13T05:28:56Z</time>
      </trkpt>
      <trkpt lat="44.8051" lon="6.29297">
        <ele>2050.2</ele>
        <time>2024-08-13T05:28:57Z</time>
      </trkpt>
      <trkpt lat="44.80513" lon="6.29298">
        <ele>2050</ele>
        <time>2024-08-13T05:28:58Z</time>
      </trkpt>
      <trkpt lat="44.80513" lon="6.29298">
        <ele>2049.8</ele>
        <time>2024-08-13T05:28:59Z</time>
      </trkpt>
      <trkpt lat="44.80515" lon="6.29299">
        <ele>2049.4</ele>
        <time>2024-08-13T05:29:00Z</time>
      </trkpt>
      <trkpt lat="44.80515" lon="6.29299">
        <ele>2049</ele>
        <time>2024-08-13T05:29:01Z</time>
      </trkpt>
      <trkpt lat="44.80517" lon="6.293">
        <ele>2048.8</ele>
        <time>2024-08-13T05:29:02Z</time>
      </trkpt>
      <trkpt lat="44.80517" lon="6.293">
        <ele>2048.8</ele>
        <time>2024-08-13T05:29:03Z</time>
      </trkpt>
      <trkpt lat="44.80519" lon="6.29302">
        <ele>2048.6</ele>
        <time>2024-08-13T05:29:04Z</time>
      </trkpt>
      <trkpt lat="44.80519" lon="6.29302">
        <ele>2048.6</ele>
        <time>2024-08-13T05:29:05Z</time>
      </trkpt>
      <trkpt lat="44.80521" lon="6.29305">
        <ele>2048</ele>
        <time>2024-08-13T05:29:06Z</time>
      </trkpt>
      <trkpt lat="44.80521" lon="6.29305">
        <ele>2048</ele>
        <time>2024-08-13T05:29:07Z</time>
      </trkpt>
      <trkpt lat="44.80522" lon="6.29307">
        <ele>2048</ele>
        <time>2024-08-13T05:29:08Z</time>
      </trkpt>
      <trkpt lat="44.80522" lon="6.29307">
        <ele>2047.6</ele>
        <time>2024-08-13T05:29:09Z</time>
      </trkpt>
      <trkpt lat="44.80522" lon="6.29307">
        <ele>2047.4</ele>
        <time>2024-08-13T05:29:10Z</time>
      </trkpt>
      <trkpt lat="44.80524" lon="6.29311">
        <ele>2047.2</ele>
        <time>2024-08-13T05:29:11Z</time>
      </trkpt>
      <trkpt lat="44.80524" lon="6.29311">
        <ele>2046.8</ele>
        <time>2024-08-13T05:29:12Z</time>
      </trkpt>
      <trkpt lat="44.80524" lon="6.29311">
        <ele>2046.6</ele>
        <time>2024-08-13T05:29:13Z</time>
      </trkpt>
      <trkpt lat="44.80524" lon="6.29314">
        <ele>2046.6</ele>
        <time>2024-08-13T05:29:14Z</time>
      </trkpt>
      <trkpt lat="44.80524" lon="6.29314">
        <ele>2046.4</ele>
        <time>2024-08-13T05:29:15Z</time>
      </trkpt>
      <trkpt lat="44.80523" lon="6.29317">
        <ele>2046.2</ele>
        <time>2024-08-13T05:29:16Z</time>
      </trkpt>
      <trkpt lat="44.80523" lon="6.29317">
        <ele>2046.2</ele>
        <time>2024-08-13T05:29:17Z</time>
      </trkpt>
      <trkpt lat="44.80523" lon="6.29317">
        <ele>2046</ele>
        <time>2024-08-13T05:29:18Z</time>
      </trkpt>
      <trkpt lat="44.80522" lon="6.2932">
        <ele>2045.8</ele>
        <time>2024-08-13T05:29:19Z</time>
      </trkpt>
      <trkpt lat="44.80522" lon="6.2932">
        <ele>2045.6</ele>
        <time>2024-08-13T05:29:20Z</time>
      </trkpt>
      <trkpt lat="44.80521" lon="6.29324">
        <ele>2045.6</ele>
        <time>2024-08-13T05:29:21Z</time>
      </trkpt>
      <trkpt lat="44.80521" lon="6.29324">
        <ele>2045.4</ele>
        <time>2024-08-13T05:29:22Z</time>
      </trkpt>
      <trkpt lat="44.80521" lon="6.29327">
        <ele>2045</ele>
        <time>2024-08-13T05:29:23Z</time>
      </trkpt>
      <trkpt lat="44.80521" lon="6.29327">
        <ele>2044.8</ele>
        <time>2024-08-13T05:29:24Z</time>
      </trkpt>
      <trkpt lat="44.8052" lon="6.2933">
        <ele>2044.8</ele>
        <time>2024-08-13T05:29:25Z</time>
      </trkpt>
      <trkpt lat="44.8052" lon="6.2933">
        <ele>2044.6</ele>
        <time>2024-08-13T05:29:26Z</time>
      </trkpt>
      <trkpt lat="44.8052" lon="6.2933">
        <ele>2044.4</ele>
        <time>2024-08-13T05:29:27Z</time>
      </trkpt>
      <trkpt lat="44.80519" lon="6.29333">
        <ele>2044.4</ele>
        <time>2024-08-13T05:29:28Z</time>
      </trkpt>
      <trkpt lat="44.80519" lon="6.29333">
        <ele>2044.4</ele>
        <time>2024-08-13T05:29:29Z</time>
      </trkpt>
      <trkpt lat="44.80519" lon="6.29333">
        <ele>2044.4</ele>
        <time>2024-08-13T05:29:30Z</time>
      </trkpt>
      <trkpt lat="44.80517" lon="6.29334">
        <ele>2044</ele>
        <time>2024-08-13T05:29:31Z</time>
      </trkpt>
      <trkpt lat="44.80517" lon="6.29334">
        <ele>2044</ele>
        <time>2024-08-13T05:29:32Z</time>
      </trkpt>
      <trkpt lat="44.80516" lon="6.29336">
        <ele>2044</ele>
        <time>2024-08-13T05:29:33Z</time>
      </trkpt>
      <trkpt lat="44.80516" lon="6.29336">
        <ele>2043.4</ele>
        <time>2024-08-13T05:29:34Z</time>
      </trkpt>
      <trkpt lat="44.80515" lon="6.29339">
        <ele>2042.8</ele>
        <time>2024-08-13T05:29:35Z</time>
      </trkpt>
      <trkpt lat="44.80515" lon="6.29339">
        <ele>2042.6</ele>
        <time>2024-08-13T05:29:36Z</time>
      </trkpt>
      <trkpt lat="44.80513" lon="6.29342">
        <ele>2042.6</ele>
        <time>2024-08-13T05:29:37Z</time>
      </trkpt>
      <trkpt lat="44.80513" lon="6.29342">
        <ele>2042.2</ele>
        <time>2024-08-13T05:29:38Z</time>
      </trkpt>
      <trkpt lat="44.80512" lon="6.29345">
        <ele>2042.2</ele>
        <time>2024-08-13T05:29:39Z</time>
      </trkpt>
      <trkpt lat="44.80512" lon="6.29345">
        <ele>2042.2</ele>
        <time>2024-08-13T05:29:40Z</time>
      </trkpt>
      <trkpt lat="44.80511" lon="6.29348">
        <ele>2042</ele>
        <time>2024-08-13T05:29:41Z</time>
      </trkpt>
      <trkpt lat="44.80511" lon="6.29348">
        <ele>2042</ele>
        <time>2024-08-13T05:29:42Z</time>
      </trkpt>
      <trkpt lat="44.8051" lon="6.2935">
        <ele>2042</ele>
        <time>2024-08-13T05:29:43Z</time>
      </trkpt>
      <trkpt lat="44.8051" lon="6.2935">
        <ele>2042</ele>
        <time>2024-08-13T05:29:44Z</time>
      </trkpt>
      <trkpt lat="44.80511" lon="6.29353">
        <ele>2042</ele>
        <time>2024-08-13T05:29:45Z</time>
      </trkpt>
      <trkpt lat="44.80511" lon="6.29353">
        <ele>2041.8</ele>
        <time>2024-08-13T05:29:46Z</time>
      </trkpt>
      <trkpt lat="44.80512" lon="6.29356">
        <ele>2041.8</ele>
        <time>2024-08-13T05:29:47Z</time>
      </trkpt>
      <trkpt lat="44.80512" lon="6.29356">
        <ele>2041.6</ele>
        <time>2024-08-13T05:29:48Z</time>
      </trkpt>
      <trkpt lat="44.80513" lon="6.29358">
        <ele>2041.4</ele>
        <time>2024-08-13T05:29:49Z</time>
      </trkpt>
      <trkpt lat="44.80513" lon="6.29358">
        <ele>2041</ele>
        <time>2024-08-13T05:29:50Z</time>
      </trkpt>
      <trkpt lat="44.80515" lon="6.2936">
        <ele>2040.6</ele>
        <time>2024-08-13T05:29:51Z</time>
      </trkpt>
      <trkpt lat="44.80515" lon="6.2936">
        <ele>2040.2</ele>
        <time>2024-08-13T05:29:52Z</time>
      </trkpt>
      <trkpt lat="44.80516" lon="6.29363">
        <ele>2040.2</ele>
        <time>2024-08-13T05:29:53Z</time>
      </trkpt>
      <trkpt lat="44.80516" lon="6.29363">
        <ele>2040</ele>
        <time>2024-08-13T05:29:54Z</time>
      </trkpt>
      <trkpt lat="44.80517" lon="6.29367">
        <ele>2039.8</ele>
        <time>2024-08-13T05:29:55Z</time>
      </trkpt>
      <trkpt lat="44.80517" lon="6.29367">
        <ele>2039.6</ele>
        <time>2024-08-13T05:29:56Z</time>
      </trkpt>
      <trkpt lat="44.80517" lon="6.2937">
        <ele>2039.4</ele>
        <time>2024-08-13T05:29:57Z</time>
      </trkpt>
      <trkpt lat="44.80517" lon="6.2937">
        <ele>2039.2</ele>
        <time>2024-08-13T05:29:58Z</time>
      </trkpt>
      <trkpt lat="44.80518" lon="6.29373">
        <ele>2039.2</ele>
        <time>2024-08-13T05:29:59Z</time>
      </trkpt>
      <trkpt lat="44.80518" lon="6.29373">
        <ele>2038.8</ele>
        <time>2024-08-13T05:30:00Z</time>
      </trkpt>
      <trkpt lat="44.80519" lon="6.29376">
        <ele>2038.6</ele>
        <time>2024-08-13T05:30:01Z</time>
      </trkpt>
      <trkpt lat="44.80519" lon="6.29376">
        <ele>2038</ele>
        <time>2024-08-13T05:30:02Z</time>
      </trkpt>
      <trkpt lat="44.8052" lon="6.29379">
        <ele>2037.8</ele>
        <time>2024-08-13T05:30:03Z</time>
      </trkpt>
      <trkpt lat="44.8052" lon="6.29379">
        <ele>2037.6</ele>
        <time>2024-08-13T05:30:04Z</time>
      </trkpt>
      <trkpt lat="44.8052" lon="6.29382">
        <ele>2037.4</ele>
        <time>2024-08-13T05:30:05Z</time>
      </trkpt>
      <trkpt lat="44.8052" lon="6.29382">
        <ele>2037.4</ele>
        <time>2024-08-13T05:30:06Z</time>
      </trkpt>
      <trkpt lat="44.80521" lon="6.29385">
        <ele>2037.2</ele>
        <time>2024-08-13T05:30:07Z</time>
      </trkpt>
      <trkpt lat="44.80521" lon="6.29385">
        <ele>2037.2</ele>
        <time>2024-08-13T05:30:08Z</time>
      </trkpt>
      <trkpt lat="44.80521" lon="6.29388">
        <ele>2036.8</ele>
        <time>2024-08-13T05:30:09Z</time>
      </trkpt>
      <trkpt lat="44.80521" lon="6.29388">
        <ele>2036.8</ele>
        <time>2024-08-13T05:30:10Z</time>
      </trkpt>
      <trkpt lat="44.80523" lon="6.29391">
        <ele>2036.6</ele>
        <time>2024-08-13T05:30:11Z</time>
      </trkpt>
      <trkpt lat="44.80523" lon="6.29391">
        <ele>2036.4</ele>
        <time>2024-08-13T05:30:12Z</time>
      </trkpt>
      <trkpt lat="44.80524" lon="6.29394">
        <ele>2036.2</ele>
        <time>2024-08-13T05:30:13Z</time>
      </trkpt>
      <trkpt lat="44.80524" lon="6.29394">
        <ele>2035.8</ele>
        <time>2024-08-13T05:30:14Z</time>
      </trkpt>
      <trkpt lat="44.80525" lon="6.29396">
        <ele>2035.8</ele>
        <time>2024-08-13T05:30:15Z</time>
      </trkpt>
      <trkpt lat="44.80525" lon="6.29396">
        <ele>2035.6</ele>
        <time>2024-08-13T05:30:16Z</time>
      </trkpt>
      <trkpt lat="44.80527" lon="6.29399">
        <ele>2035.4</ele>
        <time>2024-08-13T05:30:17Z</time>
      </trkpt>
      <trkpt lat="44.80527" lon="6.29399">
        <ele>2035.4</ele>
        <time>2024-08-13T05:30:18Z</time>
      </trkpt>
      <trkpt lat="44.80528" lon="6.29401">
        <ele>2035.2</ele>
        <time>2024-08-13T05:30:19Z</time>
      </trkpt>
      <trkpt lat="44.80528" lon="6.29401">
        <ele>2034.8</ele>
        <time>2024-08-13T05:30:20Z</time>
      </trkpt>
      <trkpt lat="44.80528" lon="6.29401">
        <ele>2034.8</ele>
        <time>2024-08-13T05:30:21Z</time>
      </trkpt>
      <trkpt lat="44.80529" lon="6.29404">
        <ele>2034.4</ele>
        <time>2024-08-13T05:30:22Z</time>
      </trkpt>
      <trkpt lat="44.80529" lon="6.29404">
        <ele>2034.4</ele>
        <time>2024-08-13T05:30:23Z</time>
      </trkpt>
      <trkpt lat="44.80529" lon="6.29404">
        <ele>2034.2</ele>
        <time>2024-08-13T05:30:24Z</time>
      </trkpt>
      <trkpt lat="44.8053" lon="6.29402">
        <ele>2033.8</ele>
        <time>2024-08-13T05:30:25Z</time>
      </trkpt>
      <trkpt lat="44.8053" lon="6.29402">
        <ele>2033.6</ele>
        <time>2024-08-13T05:30:26Z</time>
      </trkpt>
      <trkpt lat="44.8053" lon="6.29399">
        <ele>2033</ele>
        <time>2024-08-13T05:30:27Z</time>
      </trkpt>
      <trkpt lat="44.8053" lon="6.29399">
        <ele>2033</ele>
        <time>2024-08-13T05:30:28Z</time>
      </trkpt>
      <trkpt lat="44.8053" lon="6.29396">
        <ele>2032.6</ele>
        <time>2024-08-13T05:30:29Z</time>
      </trkpt>
      <trkpt lat="44.8053" lon="6.29396">
        <ele>2032.4</ele>
        <time>2024-08-13T05:30:30Z</time>
      </trkpt>
      <trkpt lat="44.8053" lon="6.29393">
        <ele>2032</ele>
        <time>2024-08-13T05:30:31Z</time>
      </trkpt>
      <trkpt lat="44.8053" lon="6.29393">
        <ele>2031.8</ele>
        <time>2024-08-13T05:30:32Z</time>
      </trkpt>
      <trkpt lat="44.80529" lon="6.2939">
        <ele>2031.4</ele>
        <time>2024-08-13T05:30:33Z</time>
      </trkpt>
      <trkpt lat="44.80529" lon="6.2939">
        <ele>2031.4</ele>
        <time>2024-08-13T05:30:34Z</time>
      </trkpt>
      <trkpt lat="44.80529" lon="6.29387">
        <ele>2031.2</ele>
        <time>2024-08-13T05:30:35Z</time>
      </trkpt>
      <trkpt lat="44.80529" lon="6.29387">
        <ele>2031</ele>
        <time>2024-08-13T05:30:36Z</time>
      </trkpt>
      <trkpt lat="44.80528" lon="6.29384">
        <ele>2030.8</ele>
        <time>2024-08-13T05:30:37Z</time>
      </trkpt>
      <trkpt lat="44.80528" lon="6.29384">
        <ele>2030.4</ele>
        <time>2024-08-13T05:30:38Z</time>
      </trkpt>
      <trkpt lat="44.80529" lon="6.29381">
        <ele>2030</ele>
        <time>2024-08-13T05:30:39Z</time>
      </trkpt>
      <trkpt lat="44.80529" lon="6.29381">
        <ele>2030</ele>
        <time>2024-08-13T05:30:40Z</time>
      </trkpt>
      <trkpt lat="44.80529" lon="6.29378">
        <ele>2029.8</ele>
        <time>2024-08-13T05:30:41Z</time>
      </trkpt>
      <trkpt lat="44.80529" lon="6.29378">
        <ele>2029.6</ele>
        <time>2024-08-13T05:30:42Z</time>
      </trkpt>
      <trkpt lat="44.80529" lon="6.29375">
        <ele>2029.2</ele>
        <time>2024-08-13T05:30:43Z</time>
      </trkpt>
      <trkpt lat="44.80529" lon="6.29375">
        <ele>2029</ele>
        <time>2024-08-13T05:30:44Z</time>
      </trkpt>
      <trkpt lat="44.80529" lon="6.29372">
        <ele>2029</ele>
        <time>2024-08-13T05:30:45Z</time>
      </trkpt>
      <trkpt lat="44.80529" lon="6.29372">
        <ele>2028.6</ele>
        <time>2024-08-13T05:30:46Z</time>
      </trkpt>
      <trkpt lat="44.80529" lon="6.29369">
        <ele>2028.6</ele>
        <time>2024-08-13T05:30:47Z</time>
      </trkpt>
      <trkpt lat="44.80529" lon="6.29369">
        <ele>2028.4</ele>
        <time>2024-08-13T05:30:48Z</time>
      </trkpt>
      <trkpt lat="44.8053" lon="6.29366">
        <ele>2028.4</ele>
        <time>2024-08-13T05:30:49Z</time>
      </trkpt>
      <trkpt lat="44.8053" lon="6.29366">
        <ele>2028.2</ele>
        <time>2024-08-13T05:30:50Z</time>
      </trkpt>
      <trkpt lat="44.80531" lon="6.29363">
        <ele>2028</ele>
        <time>2024-08-13T05:30:51Z</time>
      </trkpt>
      <trkpt lat="44.80531" lon="6.29363">
        <ele>2028</ele>
        <time>2024-08-13T05:30:52Z</time>
      </trkpt>
      <trkpt lat="44.80533" lon="6.2936">
        <ele>2027.2</ele>
        <time>2024-08-13T05:30:53Z</time>
      </trkpt>
      <trkpt lat="44.80533" lon="6.2936">
        <ele>2027</ele>
        <time>2024-08-13T05:30:54Z</time>
      </trkpt>
      <trkpt lat="44.80535" lon="6.29357">
        <ele>2026.8</ele>
        <time>2024-08-13T05:30:55Z</time>
      </trkpt>
      <trkpt lat="44.80535" lon="6.29357">
        <ele>2027</ele>
        <time>2024-08-13T05:30:56Z</time>
      </trkpt>
      <trkpt lat="44.80537" lon="6.29357">
        <ele>2026.8</ele>
        <time>2024-08-13T05:30:57Z</time>
      </trkpt>
      <trkpt lat="44.80537" lon="6.29357">
        <ele>2026.4</ele>
        <time>2024-08-13T05:30:58Z</time>
      </trkpt>
      <trkpt lat="44.80537" lon="6.29357">
        <ele>2026.2</ele>
        <time>2024-08-13T05:30:59Z</time>
      </trkpt>
      <trkpt lat="44.80539" lon="6.29359">
        <ele>2026</ele>
        <time>2024-08-13T05:31:00Z</time>
      </trkpt>
      <trkpt lat="44.80539" lon="6.29359">
        <ele>2026</ele>
        <time>2024-08-13T05:31:01Z</time>
      </trkpt>
      <trkpt lat="44.80539" lon="6.29362">
        <ele>2025.4</ele>
        <time>2024-08-13T05:31:02Z</time>
      </trkpt>
      <trkpt lat="44.80539" lon="6.29362">
        <ele>2025.4</ele>
        <time>2024-08-13T05:31:03Z</time>
      </trkpt>
      <trkpt lat="44.8054" lon="6.29365">
        <ele>2025.4</ele>
        <time>2024-08-13T05:31:04Z</time>
      </trkpt>
      <trkpt lat="44.8054" lon="6.29365">
        <ele>2025</ele>
        <time>2024-08-13T05:31:05Z</time>
      </trkpt>
      <trkpt lat="44.8054" lon="6.29368">
        <ele>2024.8</ele>
        <time>2024-08-13T05:31:06Z</time>
      </trkpt>
      <trkpt lat="44.8054" lon="6.29368">
        <ele>2024.8</ele>
        <time>2024-08-13T05:31:07Z</time>
      </trkpt>
      <trkpt lat="44.8054" lon="6.29372">
        <ele>2024.8</ele>
        <time>2024-08-13T05:31:08Z</time>
      </trkpt>
      <trkpt lat="44.8054" lon="6.29372">
        <ele>2024.6</ele>
        <time>2024-08-13T05:31:09Z</time>
      </trkpt>
      <trkpt lat="44.80541" lon="6.29375">
        <ele>2024.4</ele>
        <time>2024-08-13T05:31:10Z</time>
      </trkpt>
      <trkpt lat="44.80541" lon="6.29375">
        <ele>2024.2</ele>
        <time>2024-08-13T05:31:11Z</time>
      </trkpt>
      <trkpt lat="44.80542" lon="6.29377">
        <ele>2024.2</ele>
        <time>2024-08-13T05:31:12Z</time>
      </trkpt>
      <trkpt lat="44.80542" lon="6.29377">
        <ele>2023.8</ele>
        <time>2024-08-13T05:31:13Z</time>
      </trkpt>
      <trkpt lat="44.80543" lon="6.29381">
        <ele>2023.8</ele>
        <time>2024-08-13T05:31:14Z</time>
      </trkpt>
      <trkpt lat="44.80543" lon="6.29381">
        <ele>2023.8</ele>
        <time>2024-08-13T05:31:15Z</time>
      </trkpt>
      <trkpt lat="44.80543" lon="6.29385">
        <ele>2023.6</ele>
        <time>2024-08-13T05:31:16Z</time>
      </trkpt>
      <trkpt lat="44.80543" lon="6.29385">
        <ele>2023.4</ele>
        <time>2024-08-13T05:31:17Z</time>
      </trkpt>
      <trkpt lat="44.80544" lon="6.29389">
        <ele>2023.2</ele>
        <time>2024-08-13T05:31:18Z</time>
      </trkpt>
      <trkpt lat="44.80544" lon="6.29389">
        <ele>2023.2</ele>
        <time>2024-08-13T05:31:19Z</time>
      </trkpt>
      <trkpt lat="44.80545" lon="6.29392">
        <ele>2022.8</ele>
        <time>2024-08-13T05:31:20Z</time>
      </trkpt>
      <trkpt lat="44.80545" lon="6.29392">
        <ele>2022.4</ele>
        <time>2024-08-13T05:31:21Z</time>
      </trkpt>
      <trkpt lat="44.80545" lon="6.29392">
        <ele>2022.4</ele>
        <time>2024-08-13T05:31:22Z</time>
      </trkpt>
      <trkpt lat="44.80545" lon="6.29396">
        <ele>2022.4</ele>
        <time>2024-08-13T05:31:23Z</time>
      </trkpt>
      <trkpt lat="44.80545" lon="6.29396">
        <ele>2022.4</ele>
        <time>2024-08-13T05:31:24Z</time>
      </trkpt>
      <trkpt lat="44.80547" lon="6.29398">
        <ele>2022.2</ele>
        <time>2024-08-13T05:31:25Z</time>
      </trkpt>
      <trkpt lat="44.80547" lon="6.29398">
        <ele>2022</ele>
        <time>2024-08-13T05:31:26Z</time>
      </trkpt>
      <trkpt lat="44.80548" lon="6.29401">
        <ele>2022</ele>
        <time>2024-08-13T05:31:27Z</time>
      </trkpt>
      <trkpt lat="44.80548" lon="6.29401">
        <ele>2021.8</ele>
        <time>2024-08-13T05:31:28Z</time>
      </trkpt>
      <trkpt lat="44.80549" lon="6.29404">
        <ele>2021.6</ele>
        <time>2024-08-13T05:31:29Z</time>
      </trkpt>
      <trkpt lat="44.80549" lon="6.29404">
        <ele>2021.6</ele>
        <time>2024-08-13T05:31:30Z</time>
      </trkpt>
      <trkpt lat="44.8055" lon="6.29407">
        <ele>2021.4</ele>
        <time>2024-08-13T05:31:31Z</time>
      </trkpt>
      <trkpt lat="44.8055" lon="6.29407">
        <ele>2021.2</ele>
        <time>2024-08-13T05:31:32Z</time>
      </trkpt>
      <trkpt lat="44.80551" lon="6.2941">
        <ele>2021</ele>
        <time>2024-08-13T05:31:33Z</time>
      </trkpt>
      <trkpt lat="44.80551" lon="6.2941">
        <ele>2020.8</ele>
        <time>2024-08-13T05:31:34Z</time>
      </trkpt>
      <trkpt lat="44.80552" lon="6.29413">
        <ele>2020.6</ele>
        <time>2024-08-13T05:31:35Z</time>
      </trkpt>
      <trkpt lat="44.80552" lon="6.29413">
        <ele>2020.6</ele>
        <time>2024-08-13T05:31:36Z</time>
      </trkpt>
      <trkpt lat="44.80553" lon="6.29416">
        <ele>2020.4</ele>
        <time>2024-08-13T05:31:37Z</time>
      </trkpt>
      <trkpt lat="44.80553" lon="6.29416">
        <ele>2020.2</ele>
        <time>2024-08-13T05:31:38Z</time>
      </trkpt>
      <trkpt lat="44.80553" lon="6.29419">
        <ele>2020</ele>
        <time>2024-08-13T05:31:39Z</time>
      </trkpt>
      <trkpt lat="44.80553" lon="6.29419">
        <ele>2019.6</ele>
        <time>2024-08-13T05:31:40Z</time>
      </trkpt>
      <trkpt lat="44.80553" lon="6.29419">
        <ele>2019</ele>
        <time>2024-08-13T05:31:41Z</time>
      </trkpt>
      <trkpt lat="44.80555" lon="6.29421">
        <ele>2019</ele>
        <time>2024-08-13T05:31:42Z</time>
      </trkpt>
      <trkpt lat="44.80555" lon="6.29421">
        <ele>2019</ele>
        <time>2024-08-13T05:31:43Z</time>
      </trkpt>
      <trkpt lat="44.80555" lon="6.29421">
        <ele>2018.8</ele>
        <time>2024-08-13T05:31:44Z</time>
      </trkpt>
      <trkpt lat="44.80557" lon="6.29422">
        <ele>2018.8</ele>
        <time>2024-08-13T05:31:45Z</time>
      </trkpt>
      <trkpt lat="44.80557" lon="6.29422">
        <ele>2018.8</ele>
        <time>2024-08-13T05:31:46Z</time>
      </trkpt>
      <trkpt lat="44.80557" lon="6.29422">
        <ele>2018.4</ele>
        <time>2024-08-13T05:31:47Z</time>
      </trkpt>
      <trkpt lat="44.80558" lon="6.29424">
        <ele>2018.2</ele>
        <time>2024-08-13T05:31:48Z</time>
      </trkpt>
      <trkpt lat="44.80558" lon="6.29424">
        <ele>2017.8</ele>
        <time>2024-08-13T05:31:49Z</time>
      </trkpt>
      <trkpt lat="44.80559" lon="6.29427">
        <ele>2017.4</ele>
        <time>2024-08-13T05:31:50Z</time>
      </trkpt>
      <trkpt lat="44.80559" lon="6.29427">
        <ele>2017.4</ele>
        <time>2024-08-13T05:31:51Z</time>
      </trkpt>
      <trkpt lat="44.80561" lon="6.29429">
        <ele>2017.4</ele>
        <time>2024-08-13T05:31:52Z</time>
      </trkpt>
      <trkpt lat="44.80561" lon="6.29429">
        <ele>2017.2</ele>
        <time>2024-08-13T05:31:53Z</time>
      </trkpt>
      <trkpt lat="44.80562" lon="6.29432">
        <ele>2017.2</ele>
        <time>2024-08-13T05:31:54Z</time>
      </trkpt>
      <trkpt lat="44.80562" lon="6.29432">
        <ele>2016.8</ele>
        <time>2024-08-13T05:31:55Z</time>
      </trkpt>
      <trkpt lat="44.80563" lon="6.29436">
        <ele>2016.8</ele>
        <time>2024-08-13T05:31:56Z</time>
      </trkpt>
      <trkpt lat="44.80563" lon="6.29436">
        <ele>2016.8</ele>
        <time>2024-08-13T05:31:57Z</time>
      </trkpt>
      <trkpt lat="44.80564" lon="6.29438">
        <ele>2016.8</ele>
        <time>2024-08-13T05:31:58Z</time>
      </trkpt>
      <trkpt lat="44.80564" lon="6.29438">
        <ele>2016.4</ele>
        <time>2024-08-13T05:31:59Z</time>
      </trkpt>
      <trkpt lat="44.80564" lon="6.29438">
        <ele>2016.2</ele>
        <time>2024-08-13T05:32:00Z</time>
      </trkpt>
      <trkpt lat="44.80566" lon="6.29441">
        <ele>2016</ele>
        <time>2024-08-13T05:32:01Z</time>
      </trkpt>
      <trkpt lat="44.80566" lon="6.29441">
        <ele>2016</ele>
        <time>2024-08-13T05:32:02Z</time>
      </trkpt>
      <trkpt lat="44.80566" lon="6.29444">
        <ele>2016</ele>
        <time>2024-08-13T05:32:03Z</time>
      </trkpt>
      <trkpt lat="44.80566" lon="6.29444">
        <ele>2015.2</ele>
        <time>2024-08-13T05:32:04Z</time>
      </trkpt>
      <trkpt lat="44.80568" lon="6.29446">
        <ele>2015</ele>
        <time>2024-08-13T05:32:05Z</time>
      </trkpt>
      <trkpt lat="44.80568" lon="6.29446">
        <ele>2015</ele>
        <time>2024-08-13T05:32:06Z</time>
      </trkpt>
      <trkpt lat="44.80568" lon="6.29446">
        <ele>2014.4</ele>
        <time>2024-08-13T05:32:07Z</time>
      </trkpt>
      <trkpt lat="44.8057" lon="6.29449">
        <ele>2014</ele>
        <time>2024-08-13T05:32:08Z</time>
      </trkpt>
      <trkpt lat="44.8057" lon="6.29449">
        <ele>2014</ele>
        <time>2024-08-13T05:32:09Z</time>
      </trkpt>
      <trkpt lat="44.8057" lon="6.29449">
        <ele>2013.8</ele>
        <time>2024-08-13T05:32:10Z</time>
      </trkpt>
      <trkpt lat="44.80571" lon="6.29453">
        <ele>2013.4</ele>
        <time>2024-08-13T05:32:11Z</time>
      </trkpt>
      <trkpt lat="44.80571" lon="6.29453">
        <ele>2013.2</ele>
        <time>2024-08-13T05:32:12Z</time>
      </trkpt>
      <trkpt lat="44.80572" lon="6.29455">
        <ele>2012.8</ele>
        <time>2024-08-13T05:32:13Z</time>
      </trkpt>
      <trkpt lat="44.80572" lon="6.29455">
        <ele>2012.6</ele>
        <time>2024-08-13T05:32:14Z</time>
      </trkpt>
      <trkpt lat="44.80573" lon="6.29459">
        <ele>2012.4</ele>
        <time>2024-08-13T05:32:15Z</time>
      </trkpt>
      <trkpt lat="44.80573" lon="6.29459">
        <ele>2012.2</ele>
        <time>2024-08-13T05:32:16Z</time>
      </trkpt>
      <trkpt lat="44.80574" lon="6.29462">
        <ele>2012</ele>
        <time>2024-08-13T05:32:17Z</time>
      </trkpt>
      <trkpt lat="44.80574" lon="6.29462">
        <ele>2011.6</ele>
        <time>2024-08-13T05:32:18Z</time>
      </trkpt>
      <trkpt lat="44.80576" lon="6.29464">
        <ele>2011.6</ele>
        <time>2024-08-13T05:32:19Z</time>
      </trkpt>
      <trkpt lat="44.80576" lon="6.29464">
        <ele>2011.2</ele>
        <time>2024-08-13T05:32:20Z</time>
      </trkpt>
      <trkpt lat="44.80578" lon="6.29467">
        <ele>2011.2</ele>
        <time>2024-08-13T05:32:21Z</time>
      </trkpt>
      <trkpt lat="44.80578" lon="6.29467">
        <ele>2011</ele>
        <time>2024-08-13T05:32:22Z</time>
      </trkpt>
      <trkpt lat="44.80579" lon="6.29469">
        <ele>2010.6</ele>
        <time>2024-08-13T05:32:23Z</time>
      </trkpt>
      <trkpt lat="44.80579" lon="6.29469">
        <ele>2010.2</ele>
        <time>2024-08-13T05:32:24Z</time>
      </trkpt>
      <trkpt lat="44.8058" lon="6.29472">
        <ele>2010.2</ele>
        <time>2024-08-13T05:32:25Z</time>
      </trkpt>
      <trkpt lat="44.8058" lon="6.29472">
        <ele>2010</ele>
        <time>2024-08-13T05:32:26Z</time>
      </trkpt>
      <trkpt lat="44.80581" lon="6.29475">
        <ele>2009.6</ele>
        <time>2024-08-13T05:32:27Z</time>
      </trkpt>
      <trkpt lat="44.80581" lon="6.29475">
        <ele>2009.2</ele>
        <time>2024-08-13T05:32:28Z</time>
      </trkpt>
      <trkpt lat="44.80582" lon="6.29478">
        <ele>2009</ele>
        <time>2024-08-13T05:32:29Z</time>
      </trkpt>
      <trkpt lat="44.80582" lon="6.29478">
        <ele>2008.8</ele>
        <time>2024-08-13T05:32:30Z</time>
      </trkpt>
      <trkpt lat="44.80582" lon="6.29482">
        <ele>2008.8</ele>
        <time>2024-08-13T05:32:31Z</time>
      </trkpt>
      <trkpt lat="44.80582" lon="6.29482">
        <ele>2008.4</ele>
        <time>2024-08-13T05:32:32Z</time>
      </trkpt>
      <trkpt lat="44.80584" lon="6.29486">
        <ele>2008.2</ele>
        <time>2024-08-13T05:32:33Z</time>
      </trkpt>
      <trkpt lat="44.80584" lon="6.29486">
        <ele>2008.2</ele>
        <time>2024-08-13T05:32:34Z</time>
      </trkpt>
      <trkpt lat="44.80584" lon="6.29489">
        <ele>2007.8</ele>
        <time>2024-08-13T05:32:35Z</time>
      </trkpt>
      <trkpt lat="44.80584" lon="6.29489">
        <ele>2007.4</ele>
        <time>2024-08-13T05:32:36Z</time>
      </trkpt>
      <trkpt lat="44.80584" lon="6.29492">
        <ele>2007.2</ele>
        <time>2024-08-13T05:32:37Z</time>
      </trkpt>
      <trkpt lat="44.80584" lon="6.29492">
        <ele>2007</ele>
        <time>2024-08-13T05:32:38Z</time>
      </trkpt>
      <trkpt lat="44.80586" lon="6.29495">
        <ele>2006.8</ele>
        <time>2024-08-13T05:32:39Z</time>
      </trkpt>
      <trkpt lat="44.80586" lon="6.29495">
        <ele>2006.8</ele>
        <time>2024-08-13T05:32:40Z</time>
      </trkpt>
      <trkpt lat="44.80586" lon="6.29498">
        <ele>2006.2</ele>
        <time>2024-08-13T05:32:41Z</time>
      </trkpt>
      <trkpt lat="44.80586" lon="6.29498">
        <ele>2006</ele>
        <time>2024-08-13T05:32:42Z</time>
      </trkpt>
      <trkpt lat="44.80587" lon="6.29501">
        <ele>2006</ele>
        <time>2024-08-13T05:32:43Z</time>
      </trkpt>
      <trkpt lat="44.80587" lon="6.29501">
        <ele>2005.6</ele>
        <time>2024-08-13T05:32:44Z</time>
      </trkpt>
      <trkpt lat="44.80589" lon="6.29504">
        <ele>2005.4</ele>
        <time>2024-08-13T05:32:45Z</time>
      </trkpt>
      <trkpt lat="44.80589" lon="6.29504">
        <ele>2005</ele>
        <time>2024-08-13T05:32:46Z</time>
      </trkpt>
      <trkpt lat="44.8059" lon="6.29507">
        <ele>2004.8</ele>
        <time>2024-08-13T05:32:47Z</time>
      </trkpt>
      <trkpt lat="44.8059" lon="6.29507">
        <ele>2004.6</ele>
        <time>2024-08-13T05:32:48Z</time>
      </trkpt>
      <trkpt lat="44.80591" lon="6.2951">
        <ele>2004.2</ele>
        <time>2024-08-13T05:32:49Z</time>
      </trkpt>
      <trkpt lat="44.80591" lon="6.2951">
        <ele>2004.2</ele>
        <time>2024-08-13T05:32:50Z</time>
      </trkpt>
      <trkpt lat="44.80593" lon="6.29513">
        <ele>2004</ele>
        <time>2024-08-13T05:32:51Z</time>
      </trkpt>
      <trkpt lat="44.80593" lon="6.29513">
        <ele>2003.6</ele>
        <time>2024-08-13T05:32:52Z</time>
      </trkpt>
      <trkpt lat="44.80594" lon="6.29515">
        <ele>2003.4</ele>
        <time>2024-08-13T05:32:53Z</time>
      </trkpt>
      <trkpt lat="44.80594" lon="6.29515">
        <ele>2003.2</ele>
        <time>2024-08-13T05:32:54Z</time>
      </trkpt>
      <trkpt lat="44.80594" lon="6.29518">
        <ele>2003.2</ele>
        <time>2024-08-13T05:32:55Z</time>
      </trkpt>
      <trkpt lat="44.80594" lon="6.29518">
        <ele>2003.2</ele>
        <time>2024-08-13T05:32:56Z</time>
      </trkpt>
      <trkpt lat="44.80594" lon="6.29518">
        <ele>2003</ele>
        <time>2024-08-13T05:32:57Z</time>
      </trkpt>
      <trkpt lat="44.80594" lon="6.29518">
        <ele>2002.4</ele>
        <time>2024-08-13T05:32:58Z</time>
      </trkpt>
      <trkpt lat="44.80596" lon="6.29521">
        <ele>2002.2</ele>
        <time>2024-08-13T05:32:59Z</time>
      </trkpt>
      <trkpt lat="44.80596" lon="6.29521">
        <ele>2001.8</ele>
        <time>2024-08-13T05:33:00Z</time>
      </trkpt>
      <trkpt lat="44.80596" lon="6.29521">
        <ele>2001.6</ele>
        <time>2024-08-13T05:33:01Z</time>
      </trkpt>
      <trkpt lat="44.80595" lon="6.29517">
        <ele>2001.2</ele>
        <time>2024-08-13T05:33:02Z</time>
      </trkpt>
      <trkpt lat="44.80595" lon="6.29517">
        <ele>2001.2</ele>
        <time>2024-08-13T05:33:03Z</time>
      </trkpt>
      <trkpt lat="44.80595" lon="6.29514">
        <ele>2001.2</ele>
        <time>2024-08-13T05:33:04Z</time>
      </trkpt>
      <trkpt lat="44.80595" lon="6.29514">
        <ele>2001.2</ele>
        <time>2024-08-13T05:33:05Z</time>
      </trkpt>
      <trkpt lat="44.80596" lon="6.29511">
        <ele>2000.6</ele>
        <time>2024-08-13T05:33:06Z</time>
      </trkpt>
      <trkpt lat="44.80596" lon="6.29511">
        <ele>2000.4</ele>
        <time>2024-08-13T05:33:07Z</time>
      </trkpt>
      <trkpt lat="44.80596" lon="6.29508">
        <ele>1999.8</ele>
        <time>2024-08-13T05:33:08Z</time>
      </trkpt>
      <trkpt lat="44.80596" lon="6.29508">
        <ele>1999.4</ele>
        <time>2024-08-13T05:33:09Z</time>
      </trkpt>
      <trkpt lat="44.80597" lon="6.29504">
        <ele>1999.2</ele>
        <time>2024-08-13T05:33:10Z</time>
      </trkpt>
      <trkpt lat="44.80597" lon="6.29504">
        <ele>1999</ele>
        <time>2024-08-13T05:33:11Z</time>
      </trkpt>
      <trkpt lat="44.80596" lon="6.29501">
        <ele>1999</ele>
        <time>2024-08-13T05:33:12Z</time>
      </trkpt>
      <trkpt lat="44.80596" lon="6.29501">
        <ele>1998.8</ele>
        <time>2024-08-13T05:33:13Z</time>
      </trkpt>
      <trkpt lat="44.80596" lon="6.29498">
        <ele>1998.6</ele>
        <time>2024-08-13T05:33:14Z</time>
      </trkpt>
      <trkpt lat="44.80596" lon="6.29498">
        <ele>1998.4</ele>
        <time>2024-08-13T05:33:15Z</time>
      </trkpt>
      <trkpt lat="44.80596" lon="6.29498">
        <ele>1998</ele>
        <time>2024-08-13T05:33:16Z</time>
      </trkpt>
      <trkpt lat="44.80598" lon="6.29495">
        <ele>1997.8</ele>
        <time>2024-08-13T05:33:17Z</time>
      </trkpt>
      <trkpt lat="44.80598" lon="6.29495">
        <ele>1997.6</ele>
        <time>2024-08-13T05:33:18Z</time>
      </trkpt>
      <trkpt lat="44.80598" lon="6.29492">
        <ele>1997</ele>
        <time>2024-08-13T05:33:19Z</time>
      </trkpt>
      <trkpt lat="44.80598" lon="6.29492">
        <ele>1997</ele>
        <time>2024-08-13T05:33:20Z</time>
      </trkpt>
      <trkpt lat="44.80598" lon="6.29488">
        <ele>1996.6</ele>
        <time>2024-08-13T05:33:21Z</time>
      </trkpt>
      <trkpt lat="44.80598" lon="6.29488">
        <ele>1996.2</ele>
        <time>2024-08-13T05:33:22Z</time>
      </trkpt>
      <trkpt lat="44.80597" lon="6.29485">
        <ele>1996.2</ele>
        <time>2024-08-13T05:33:23Z</time>
      </trkpt>
      <trkpt lat="44.80597" lon="6.29485">
        <ele>1996</ele>
        <time>2024-08-13T05:33:24Z</time>
      </trkpt>
      <trkpt lat="44.80597" lon="6.29482">
        <ele>1996</ele>
        <time>2024-08-13T05:33:25Z</time>
      </trkpt>
      <trkpt lat="44.80597" lon="6.29482">
        <ele>1996</ele>
        <time>2024-08-13T05:33:26Z</time>
      </trkpt>
      <trkpt lat="44.80597" lon="6.29479">
        <ele>1995.6</ele>
        <time>2024-08-13T05:33:27Z</time>
      </trkpt>
      <trkpt lat="44.80597" lon="6.29479">
        <ele>1995.2</ele>
        <time>2024-08-13T05:33:28Z</time>
      </trkpt>
      <trkpt lat="44.80597" lon="6.29479">
        <ele>1995</ele>
        <time>2024-08-13T05:33:29Z</time>
      </trkpt>
      <trkpt lat="44.80597" lon="6.29475">
        <ele>1995</ele>
        <time>2024-08-13T05:33:30Z</time>
      </trkpt>
      <trkpt lat="44.80597" lon="6.29475">
        <ele>1994.8</ele>
        <time>2024-08-13T05:33:31Z</time>
      </trkpt>
      <trkpt lat="44.80597" lon="6.29472">
        <ele>1994.4</ele>
        <time>2024-08-13T05:33:32Z</time>
      </trkpt>
      <trkpt lat="44.80597" lon="6.29472">
        <ele>1994</ele>
        <time>2024-08-13T05:33:33Z</time>
      </trkpt>
      <trkpt lat="44.80598" lon="6.29469">
        <ele>1993.8</ele>
        <time>2024-08-13T05:33:34Z</time>
      </trkpt>
      <trkpt lat="44.80598" lon="6.29469">
        <ele>1993.6</ele>
        <time>2024-08-13T05:33:35Z</time>
      </trkpt>
      <trkpt lat="44.80598" lon="6.29466">
        <ele>1993.2</ele>
        <time>2024-08-13T05:33:36Z</time>
      </trkpt>
      <trkpt lat="44.80598" lon="6.29466">
        <ele>1993</ele>
        <time>2024-08-13T05:33:37Z</time>
      </trkpt>
      <trkpt lat="44.80598" lon="6.29462">
        <ele>1992.6</ele>
        <time>2024-08-13T05:33:38Z</time>
      </trkpt>
      <trkpt lat="44.80598" lon="6.29462">
        <ele>1992.6</ele>
        <time>2024-08-13T05:33:39Z</time>
      </trkpt>
      <trkpt lat="44.80598" lon="6.29459">
        <ele>1992.4</ele>
        <time>2024-08-13T05:33:40Z</time>
      </trkpt>
      <trkpt lat="44.80598" lon="6.29459">
        <ele>1992.2</ele>
        <time>2024-08-13T05:33:41Z</time>
      </trkpt>
      <trkpt lat="44.80599" lon="6.29455">
        <ele>1992</ele>
        <time>2024-08-13T05:33:42Z</time>
      </trkpt>
      <trkpt lat="44.80599" lon="6.29455">
        <ele>1992</ele>
        <time>2024-08-13T05:33:43Z</time>
      </trkpt>
      <trkpt lat="44.80599" lon="6.29452">
        <ele>1991.6</ele>
        <time>2024-08-13T05:33:44Z</time>
      </trkpt>
      <trkpt lat="44.80599" lon="6.29452">
        <ele>1991.4</ele>
        <time>2024-08-13T05:33:45Z</time>
      </trkpt>
      <trkpt lat="44.806" lon="6.2945">
        <ele>1991.4</ele>
        <time>2024-08-13T05:33:46Z</time>
      </trkpt>
      <trkpt lat="44.806" lon="6.2945">
        <ele>1991</ele>
        <time>2024-08-13T05:33:47Z</time>
      </trkpt>
      <trkpt lat="44.806" lon="6.29447">
        <ele>1990.4</ele>
        <time>2024-08-13T05:33:48Z</time>
      </trkpt>
      <trkpt lat="44.806" lon="6.29447">
        <ele>1990.2</ele>
        <time>2024-08-13T05:33:49Z</time>
      </trkpt>
      <trkpt lat="44.806" lon="6.29444">
        <ele>1990</ele>
        <time>2024-08-13T05:33:50Z</time>
      </trkpt>
      <trkpt lat="44.806" lon="6.29444">
        <ele>1989.4</ele>
        <time>2024-08-13T05:33:51Z</time>
      </trkpt>
      <trkpt lat="44.80599" lon="6.29441">
        <ele>1989.2</ele>
        <time>2024-08-13T05:33:52Z</time>
      </trkpt>
      <trkpt lat="44.80599" lon="6.29441">
        <ele>1989.2</ele>
        <time>2024-08-13T05:33:53Z</time>
      </trkpt>
      <trkpt lat="44.80599" lon="6.29438">
        <ele>1989</ele>
        <time>2024-08-13T05:33:54Z</time>
      </trkpt>
      <trkpt lat="44.80599" lon="6.29438">
        <ele>1988.6</ele>
        <time>2024-08-13T05:33:55Z</time>
      </trkpt>
      <trkpt lat="44.806" lon="6.29435">
        <ele>1988.4</ele>
        <time>2024-08-13T05:33:56Z</time>
      </trkpt>
      <trkpt lat="44.806" lon="6.29435">
        <ele>1988.4</ele>
        <time>2024-08-13T05:33:57Z</time>
      </trkpt>
      <trkpt lat="44.80601" lon="6.29431">
        <ele>1988.4</ele>
        <time>2024-08-13T05:33:58Z</time>
      </trkpt>
      <trkpt lat="44.80601" lon="6.29431">
        <ele>1988</ele>
        <time>2024-08-13T05:33:59Z</time>
      </trkpt>
      <trkpt lat="44.80602" lon="6.29427">
        <ele>1988</ele>
        <time>2024-08-13T05:34:00Z</time>
      </trkpt>
      <trkpt lat="44.80602" lon="6.29427">
        <ele>1987.8</ele>
        <time>2024-08-13T05:34:01Z</time>
      </trkpt>
      <trkpt lat="44.80602" lon="6.29427">
        <ele>1987.2</ele>
        <time>2024-08-13T05:34:02Z</time>
      </trkpt>
      <trkpt lat="44.80602" lon="6.29423">
        <ele>1987.2</ele>
        <time>2024-08-13T05:34:03Z</time>
      </trkpt>
      <trkpt lat="44.80602" lon="6.29423">
        <ele>1987.2</ele>
        <time>2024-08-13T05:34:04Z</time>
      </trkpt>
      <trkpt lat="44.80602" lon="6.2942">
        <ele>1987</ele>
        <time>2024-08-13T05:34:05Z</time>
      </trkpt>
      <trkpt lat="44.80602" lon="6.2942">
        <ele>1986.6</ele>
        <time>2024-08-13T05:34:06Z</time>
      </trkpt>
      <trkpt lat="44.80603" lon="6.29417">
        <ele>1986.4</ele>
        <time>2024-08-13T05:34:07Z</time>
      </trkpt>
      <trkpt lat="44.80603" lon="6.29417">
        <ele>1986.2</ele>
        <time>2024-08-13T05:34:08Z</time>
      </trkpt>
      <trkpt lat="44.80604" lon="6.29414">
        <ele>1986.2</ele>
        <time>2024-08-13T05:34:09Z</time>
      </trkpt>
      <trkpt lat="44.80604" lon="6.29414">
        <ele>1985.8</ele>
        <time>2024-08-13T05:34:10Z</time>
      </trkpt>
      <trkpt lat="44.80604" lon="6.2941">
        <ele>1985.8</ele>
        <time>2024-08-13T05:34:11Z</time>
      </trkpt>
      <trkpt lat="44.80604" lon="6.2941">
        <ele>1985.8</ele>
        <time>2024-08-13T05:34:12Z</time>
      </trkpt>
      <trkpt lat="44.80604" lon="6.29408">
        <ele>1985.8</ele>
        <time>2024-08-13T05:34:13Z</time>
      </trkpt>
      <trkpt lat="44.80604" lon="6.29408">
        <ele>1985.6</ele>
        <time>2024-08-13T05:34:14Z</time>
      </trkpt>
      <trkpt lat="44.80604" lon="6.29408">
        <ele>1985.6</ele>
        <time>2024-08-13T05:34:15Z</time>
      </trkpt>
      <trkpt lat="44.80605" lon="6.29404">
        <ele>1985.4</ele>
        <time>2024-08-13T05:34:16Z</time>
      </trkpt>
      <trkpt lat="44.80605" lon="6.29404">
        <ele>1985</ele>
        <time>2024-08-13T05:34:17Z</time>
      </trkpt>
      <trkpt lat="44.80605" lon="6.29404">
        <ele>1984.8</ele>
        <time>2024-08-13T05:34:18Z</time>
      </trkpt>
      <trkpt lat="44.80605" lon="6.29404">
        <ele>1984.8</ele>
        <time>2024-08-13T05:34:19Z</time>
      </trkpt>
      <trkpt lat="44.80607" lon="6.29406">
        <ele>1984.4</ele>
        <time>2024-08-13T05:34:20Z</time>
      </trkpt>
      <trkpt lat="44.80607" lon="6.29406">
        <ele>1984.2</ele>
        <time>2024-08-13T05:34:21Z</time>
      </trkpt>
      <trkpt lat="44.80608" lon="6.29409">
        <ele>1984.2</ele>
        <time>2024-08-13T05:34:22Z</time>
      </trkpt>
      <trkpt lat="44.80608" lon="6.29409">
        <ele>1983.8</ele>
        <time>2024-08-13T05:34:23Z</time>
      </trkpt>
      <trkpt lat="44.80609" lon="6.29412">
        <ele>1983.6</ele>
        <time>2024-08-13T05:34:24Z</time>
      </trkpt>
      <trkpt lat="44.80609" lon="6.29412">
        <ele>1983.4</ele>
        <time>2024-08-13T05:34:25Z</time>
      </trkpt>
      <trkpt lat="44.8061" lon="6.29415">
        <ele>1983.2</ele>
        <time>2024-08-13T05:34:26Z</time>
      </trkpt>
      <trkpt lat="44.8061" lon="6.29415">
        <ele>1983</ele>
        <time>2024-08-13T05:34:27Z</time>
      </trkpt>
      <trkpt lat="44.80611" lon="6.29418">
        <ele>1982.8</ele>
        <time>2024-08-13T05:34:28Z</time>
      </trkpt>
      <trkpt lat="44.80611" lon="6.29418">
        <ele>1982.6</ele>
        <time>2024-08-13T05:34:29Z</time>
      </trkpt>
      <trkpt lat="44.80612" lon="6.29421">
        <ele>1982.4</ele>
        <time>2024-08-13T05:34:30Z</time>
      </trkpt>
      <trkpt lat="44.80612" lon="6.29421">
        <ele>1982.4</ele>
        <time>2024-08-13T05:34:31Z</time>
      </trkpt>
      <trkpt lat="44.80613" lon="6.29424">
        <ele>1982.4</ele>
        <time>2024-08-13T05:34:32Z</time>
      </trkpt>
      <trkpt lat="44.80613" lon="6.29424">
        <ele>1982.2</ele>
        <time>2024-08-13T05:34:33Z</time>
      </trkpt>
      <trkpt lat="44.80614" lon="6.29427">
        <ele>1981.8</ele>
        <time>2024-08-13T05:34:34Z</time>
      </trkpt>
      <trkpt lat="44.80614" lon="6.29427">
        <ele>1981.8</ele>
        <time>2024-08-13T05:34:35Z</time>
      </trkpt>
      <trkpt lat="44.80615" lon="6.2943">
        <ele>1981.6</ele>
        <time>2024-08-13T05:34:36Z</time>
      </trkpt>
      <trkpt lat="44.80615" lon="6.2943">
        <ele>1981.4</ele>
        <time>2024-08-13T05:34:37Z</time>
      </trkpt>
      <trkpt lat="44.80615" lon="6.29433">
        <ele>1981.4</ele>
        <time>2024-08-13T05:34:38Z</time>
      </trkpt>
      <trkpt lat="44.80615" lon="6.29433">
        <ele>1981.2</ele>
        <time>2024-08-13T05:34:39Z</time>
      </trkpt>
      <trkpt lat="44.80615" lon="6.29435">
        <ele>1980.8</ele>
        <time>2024-08-13T05:34:40Z</time>
      </trkpt>
      <trkpt lat="44.80615" lon="6.29435">
        <ele>1980.4</ele>
        <time>2024-08-13T05:34:41Z</time>
      </trkpt>
      <trkpt lat="44.80616" lon="6.29438">
        <ele>1980.2</ele>
        <time>2024-08-13T05:34:42Z</time>
      </trkpt>
      <trkpt lat="44.80616" lon="6.29438">
        <ele>1980</ele>
        <time>2024-08-13T05:34:43Z</time>
      </trkpt>
      <trkpt lat="44.80616" lon="6.29441">
        <ele>1980</ele>
        <time>2024-08-13T05:34:44Z</time>
      </trkpt>
      <trkpt lat="44.80616" lon="6.29441">
        <ele>1979.8</ele>
        <time>2024-08-13T05:34:45Z</time>
      </trkpt>
      <trkpt lat="44.80617" lon="6.29443">
        <ele>1979.4</ele>
        <time>2024-08-13T05:34:46Z</time>
      </trkpt>
      <trkpt lat="44.80617" lon="6.29443">
        <ele>1979</ele>
        <time>2024-08-13T05:34:47Z</time>
      </trkpt>
      <trkpt lat="44.80617" lon="6.29446">
        <ele>1978.8</ele>
        <time>2024-08-13T05:34:48Z</time>
      </trkpt>
      <trkpt lat="44.80617" lon="6.29446">
        <ele>1978.4</ele>
        <time>2024-08-13T05:34:49Z</time>
      </trkpt>
      <trkpt lat="44.80617" lon="6.29446">
        <ele>1977.8</ele>
        <time>2024-08-13T05:34:50Z</time>
      </trkpt>
      <trkpt lat="44.80618" lon="6.29449">
        <ele>1977.6</ele>
        <time>2024-08-13T05:34:51Z</time>
      </trkpt>
      <trkpt lat="44.80618" lon="6.29449">
        <ele>1977.4</ele>
        <time>2024-08-13T05:34:52Z</time>
      </trkpt>
      <trkpt lat="44.80619" lon="6.29452">
        <ele>1977</ele>
        <time>2024-08-13T05:34:53Z</time>
      </trkpt>
      <trkpt lat="44.80619" lon="6.29452">
        <ele>1976.6</ele>
        <time>2024-08-13T05:34:54Z</time>
      </trkpt>
      <trkpt lat="44.8062" lon="6.29455">
        <ele>1976.6</ele>
        <time>2024-08-13T05:34:55Z</time>
      </trkpt>
      <trkpt lat="44.8062" lon="6.29455">
        <ele>1976.6</ele>
        <time>2024-08-13T05:34:56Z</time>
      </trkpt>
      <trkpt lat="44.8062" lon="6.29455">
        <ele>1976.2</ele>
        <time>2024-08-13T05:34:57Z</time>
      </trkpt>
      <trkpt lat="44.80621" lon="6.29458">
        <ele>1976</ele>
        <time>2024-08-13T05:34:58Z</time>
      </trkpt>
      <trkpt lat="44.80621" lon="6.29458">
        <ele>1975.8</ele>
        <time>2024-08-13T05:34:59Z</time>
      </trkpt>
      <trkpt lat="44.80621" lon="6.2946">
        <ele>1975.8</ele>
        <time>2024-08-13T05:35:00Z</time>
      </trkpt>
      <trkpt lat="44.80621" lon="6.2946">
        <ele>1975.6</ele>
        <time>2024-08-13T05:35:01Z</time>
      </trkpt>
      <trkpt lat="44.80621" lon="6.2946">
        <ele>1975.2</ele>
        <time>2024-08-13T05:35:02Z</time>
      </trkpt>
      <trkpt lat="44.80622" lon="6.29464">
        <ele>1975.2</ele>
        <time>2024-08-13T05:35:03Z</time>
      </trkpt>
      <trkpt lat="44.80622" lon="6.29464">
        <ele>1974.8</ele>
        <time>2024-08-13T05:35:04Z</time>
      </trkpt>
      <trkpt lat="44.80622" lon="6.29467">
        <ele>1974.6</ele>
        <time>2024-08-13T05:35:05Z</time>
      </trkpt>
      <trkpt lat="44.80622" lon="6.29467">
        <ele>1974.4</ele>
        <time>2024-08-13T05:35:06Z</time>
      </trkpt>
      <trkpt lat="44.80624" lon="6.2947">
        <ele>1974.2</ele>
        <time>2024-08-13T05:35:07Z</time>
      </trkpt>
      <trkpt lat="44.80624" lon="6.2947">
        <ele>1974</ele>
        <time>2024-08-13T05:35:08Z</time>
      </trkpt>
      <trkpt lat="44.80625" lon="6.29472">
        <ele>1974</ele>
        <time>2024-08-13T05:35:09Z</time>
      </trkpt>
      <trkpt lat="44.80625" lon="6.29472">
        <ele>1973.8</ele>
        <time>2024-08-13T05:35:10Z</time>
      </trkpt>
      <trkpt lat="44.80627" lon="6.29474">
        <ele>1973.4</ele>
        <time>2024-08-13T05:35:11Z</time>
      </trkpt>
      <trkpt lat="44.80627" lon="6.29474">
        <ele>1973.2</ele>
        <time>2024-08-13T05:35:12Z</time>
      </trkpt>
      <trkpt lat="44.80628" lon="6.29477">
        <ele>1973.2</ele>
        <time>2024-08-13T05:35:13Z</time>
      </trkpt>
      <trkpt lat="44.80628" lon="6.29477">
        <ele>1973</ele>
        <time>2024-08-13T05:35:14Z</time>
      </trkpt>
      <trkpt lat="44.80629" lon="6.2948">
        <ele>1972.8</ele>
        <time>2024-08-13T05:35:15Z</time>
      </trkpt>
      <trkpt lat="44.80629" lon="6.2948">
        <ele>1972.6</ele>
        <time>2024-08-13T05:35:16Z</time>
      </trkpt>
      <trkpt lat="44.8063" lon="6.29482">
        <ele>1972.4</ele>
        <time>2024-08-13T05:35:17Z</time>
      </trkpt>
      <trkpt lat="44.8063" lon="6.29482">
        <ele>1972.2</ele>
        <time>2024-08-13T05:35:18Z</time>
      </trkpt>
      <trkpt lat="44.80632" lon="6.29485">
        <ele>1972.2</ele>
        <time>2024-08-13T05:35:19Z</time>
      </trkpt>
      <trkpt lat="44.80632" lon="6.29485">
        <ele>1971.6</ele>
        <time>2024-08-13T05:35:20Z</time>
      </trkpt>
      <trkpt lat="44.80633" lon="6.29488">
        <ele>1971.4</ele>
        <time>2024-08-13T05:35:21Z</time>
      </trkpt>
      <trkpt lat="44.80633" lon="6.29488">
        <ele>1971.2</ele>
        <time>2024-08-13T05:35:22Z</time>
      </trkpt>
      <trkpt lat="44.80633" lon="6.2949">
        <ele>1971.2</ele>
        <time>2024-08-13T05:35:23Z</time>
      </trkpt>
      <trkpt lat="44.80633" lon="6.2949">
        <ele>1971.2</ele>
        <time>2024-08-13T05:35:24Z</time>
      </trkpt>
      <trkpt lat="44.80633" lon="6.2949">
        <ele>1971</ele>
        <time>2024-08-13T05:35:25Z</time>
      </trkpt>
      <trkpt lat="44.80634" lon="6.29494">
        <ele>1970.8</ele>
        <time>2024-08-13T05:35:26Z</time>
      </trkpt>
      <trkpt lat="44.80634" lon="6.29494">
        <ele>1970.6</ele>
        <time>2024-08-13T05:35:27Z</time>
      </trkpt>
      <trkpt lat="44.80635" lon="6.29497">
        <ele>1970.2</ele>
        <time>2024-08-13T05:35:28Z</time>
      </trkpt>
      <trkpt lat="44.80635" lon="6.29497">
        <ele>1970</ele>
        <time>2024-08-13T05:35:29Z</time>
      </trkpt>
      <trkpt lat="44.80637" lon="6.295">
        <ele>1969.6</ele>
        <time>2024-08-13T05:35:30Z</time>
      </trkpt>
      <trkpt lat="44.80637" lon="6.295">
        <ele>1969.4</ele>
        <time>2024-08-13T05:35:31Z</time>
      </trkpt>
      <trkpt lat="44.80637" lon="6.295">
        <ele>1969.2</ele>
        <time>2024-08-13T05:35:32Z</time>
      </trkpt>
      <trkpt lat="44.80638" lon="6.29503">
        <ele>1969.2</ele>
        <time>2024-08-13T05:35:33Z</time>
      </trkpt>
      <trkpt lat="44.80638" lon="6.29503">
        <ele>1969.2</ele>
        <time>2024-08-13T05:35:34Z</time>
      </trkpt>
      <trkpt lat="44.80638" lon="6.29503">
        <ele>1969</ele>
        <time>2024-08-13T05:35:35Z</time>
      </trkpt>
      <trkpt lat="44.8064" lon="6.29504">
        <ele>1968.8</ele>
        <time>2024-08-13T05:35:36Z</time>
      </trkpt>
      <trkpt lat="44.8064" lon="6.29504">
        <ele>1968.6</ele>
        <time>2024-08-13T05:35:37Z</time>
      </trkpt>
      <trkpt lat="44.80642" lon="6.29506">
        <ele>1968.2</ele>
        <time>2024-08-13T05:35:38Z</time>
      </trkpt>
      <trkpt lat="44.80642" lon="6.29506">
        <ele>1968</ele>
        <time>2024-08-13T05:35:39Z</time>
      </trkpt>
      <trkpt lat="44.80643" lon="6.2951">
        <ele>1968</ele>
        <time>2024-08-13T05:35:40Z</time>
      </trkpt>
      <trkpt lat="44.80643" lon="6.2951">
        <ele>1967.8</ele>
        <time>2024-08-13T05:35:41Z</time>
      </trkpt>
      <trkpt lat="44.80645" lon="6.29513">
        <ele>1967.6</ele>
        <time>2024-08-13T05:35:42Z</time>
      </trkpt>
      <trkpt lat="44.80645" lon="6.29513">
        <ele>1967.2</ele>
        <time>2024-08-13T05:35:43Z</time>
      </trkpt>
      <trkpt lat="44.80644" lon="6.29517">
        <ele>1967.2</ele>
        <time>2024-08-13T05:35:44Z</time>
      </trkpt>
      <trkpt lat="44.80644" lon="6.29517">
        <ele>1967</ele>
        <time>2024-08-13T05:35:45Z</time>
      </trkpt>
      <trkpt lat="44.80644" lon="6.29517">
        <ele>1966.8</ele>
        <time>2024-08-13T05:35:46Z</time>
      </trkpt>
      <trkpt lat="44.80645" lon="6.2952">
        <ele>1966.6</ele>
        <time>2024-08-13T05:35:47Z</time>
      </trkpt>
      <trkpt lat="44.80645" lon="6.2952">
        <ele>1966.4</ele>
        <time>2024-08-13T05:35:48Z</time>
      </trkpt>
      <trkpt lat="44.80646" lon="6.29522">
        <ele>1966</ele>
        <time>2024-08-13T05:35:49Z</time>
      </trkpt>
      <trkpt lat="44.80646" lon="6.29522">
        <ele>1965.8</ele>
        <time>2024-08-13T05:35:50Z</time>
      </trkpt>
      <trkpt lat="44.80648" lon="6.29524">
        <ele>1965.2</ele>
        <time>2024-08-13T05:35:51Z</time>
      </trkpt>
      <trkpt lat="44.80648" lon="6.29524">
        <ele>1965</ele>
        <time>2024-08-13T05:35:52Z</time>
      </trkpt>
      <trkpt lat="44.80648" lon="6.29524">
        <ele>1965</ele>
        <time>2024-08-13T05:35:53Z</time>
      </trkpt>
      <trkpt lat="44.80649" lon="6.29528">
        <ele>1964.8</ele>
        <time>2024-08-13T05:35:54Z</time>
      </trkpt>
      <trkpt lat="44.80649" lon="6.29528">
        <ele>1964.6</ele>
        <time>2024-08-13T05:35:55Z</time>
      </trkpt>
      <trkpt lat="44.80651" lon="6.29529">
        <ele>1964.6</ele>
        <time>2024-08-13T05:35:56Z</time>
      </trkpt>
      <trkpt lat="44.80651" lon="6.29529">
        <ele>1964</ele>
        <time>2024-08-13T05:35:57Z</time>
      </trkpt>
      <trkpt lat="44.80652" lon="6.29532">
        <ele>1964</ele>
        <time>2024-08-13T05:35:58Z</time>
      </trkpt>
      <trkpt lat="44.80652" lon="6.29532">
        <ele>1963.6</ele>
        <time>2024-08-13T05:35:59Z</time>
      </trkpt>
      <trkpt lat="44.80652" lon="6.29536">
        <ele>1963</ele>
        <time>2024-08-13T05:36:00Z</time>
      </trkpt>
      <trkpt lat="44.80652" lon="6.29536">
        <ele>1962.8</ele>
        <time>2024-08-13T05:36:01Z</time>
      </trkpt>
      <trkpt lat="44.80652" lon="6.29539">
        <ele>1962.6</ele>
        <time>2024-08-13T05:36:02Z</time>
      </trkpt>
      <trkpt lat="44.80652" lon="6.29539">
        <ele>1962.6</ele>
        <time>2024-08-13T05:36:03Z</time>
      </trkpt>
      <trkpt lat="44.80652" lon="6.29539">
        <ele>1962.4</ele>
        <time>2024-08-13T05:36:04Z</time>
      </trkpt>
      <trkpt lat="44.80653" lon="6.29542">
        <ele>1962.2</ele>
        <time>2024-08-13T05:36:05Z</time>
      </trkpt>
      <trkpt lat="44.80653" lon="6.29542">
        <ele>1962.2</ele>
        <time>2024-08-13T05:36:06Z</time>
      </trkpt>
      <trkpt lat="44.80653" lon="6.29542">
        <ele>1961.8</ele>
        <time>2024-08-13T05:36:07Z</time>
      </trkpt>
      <trkpt lat="44.80654" lon="6.29546">
        <ele>1961.4</ele>
        <time>2024-08-13T05:36:08Z</time>
      </trkpt>
      <trkpt lat="44.80654" lon="6.29546">
        <ele>1961.4</ele>
        <time>2024-08-13T05:36:09Z</time>
      </trkpt>
      <trkpt lat="44.80656" lon="6.29549">
        <ele>1961.2</ele>
        <time>2024-08-13T05:36:10Z</time>
      </trkpt>
      <trkpt lat="44.80656" lon="6.29549">
        <ele>1961</ele>
        <time>2024-08-13T05:36:11Z</time>
      </trkpt>
      <trkpt lat="44.80657" lon="6.29551">
        <ele>1960.8</ele>
        <time>2024-08-13T05:36:12Z</time>
      </trkpt>
      <trkpt lat="44.80657" lon="6.29551">
        <ele>1960.8</ele>
        <time>2024-08-13T05:36:13Z</time>
      </trkpt>
      <trkpt lat="44.80658" lon="6.29554">
        <ele>1960.6</ele>
        <time>2024-08-13T05:36:14Z</time>
      </trkpt>
      <trkpt lat="44.80658" lon="6.29554">
        <ele>1960.4</ele>
        <time>2024-08-13T05:36:15Z</time>
      </trkpt>
      <trkpt lat="44.80659" lon="6.29557">
        <ele>1959.8</ele>
        <time>2024-08-13T05:36:16Z</time>
      </trkpt>
      <trkpt lat="44.80659" lon="6.29557">
        <ele>1959.8</ele>
        <time>2024-08-13T05:36:17Z</time>
      </trkpt>
      <trkpt lat="44.80661" lon="6.29559">
        <ele>1959.8</ele>
        <time>2024-08-13T05:36:18Z</time>
      </trkpt>
      <trkpt lat="44.80661" lon="6.29559">
        <ele>1959.6</ele>
        <time>2024-08-13T05:36:19Z</time>
      </trkpt>
      <trkpt lat="44.80662" lon="6.29561">
        <ele>1959.6</ele>
        <time>2024-08-13T05:36:20Z</time>
      </trkpt>
      <trkpt lat="44.80662" lon="6.29561">
        <ele>1959.4</ele>
        <time>2024-08-13T05:36:21Z</time>
      </trkpt>
      <trkpt lat="44.80662" lon="6.29561">
        <ele>1958.8</ele>
        <time>2024-08-13T05:36:22Z</time>
      </trkpt>
      <trkpt lat="44.80664" lon="6.29564">
        <ele>1958.8</ele>
        <time>2024-08-13T05:36:23Z</time>
      </trkpt>
      <trkpt lat="44.80664" lon="6.29564">
        <ele>1958.6</ele>
        <time>2024-08-13T05:36:24Z</time>
      </trkpt>
      <trkpt lat="44.80664" lon="6.29564">
        <ele>1958</ele>
        <time>2024-08-13T05:36:25Z</time>
      </trkpt>
      <trkpt lat="44.80664" lon="6.29561">
        <ele>1957.8</ele>
        <time>2024-08-13T05:36:26Z</time>
      </trkpt>
      <trkpt lat="44.80664" lon="6.29561">
        <ele>1957.8</ele>
        <time>2024-08-13T05:36:27Z</time>
      </trkpt>
      <trkpt lat="44.80664" lon="6.29558">
        <ele>1957.8</ele>
        <time>2024-08-13T05:36:28Z</time>
      </trkpt>
      <trkpt lat="44.80664" lon="6.29558">
        <ele>1957.8</ele>
        <time>2024-08-13T05:36:29Z</time>
      </trkpt>
      <trkpt lat="44.80664" lon="6.29555">
        <ele>1957.4</ele>
        <time>2024-08-13T05:36:30Z</time>
      </trkpt>
      <trkpt lat="44.80664" lon="6.29555">
        <ele>1957.4</ele>
        <time>2024-08-13T05:36:31Z</time>
      </trkpt>
      <trkpt lat="44.80664" lon="6.29555">
        <ele>1957.2</ele>
        <time>2024-08-13T05:36:32Z</time>
      </trkpt>
      <trkpt lat="44.80663" lon="6.29551">
        <ele>1956.6</ele>
        <time>2024-08-13T05:36:33Z</time>
      </trkpt>
      <trkpt lat="44.80663" lon="6.29551">
        <ele>1956.4</ele>
        <time>2024-08-13T05:36:34Z</time>
      </trkpt>
      <trkpt lat="44.80662" lon="6.29548">
        <ele>1955.8</ele>
        <time>2024-08-13T05:36:35Z</time>
      </trkpt>
      <trkpt lat="44.80662" lon="6.29548">
        <ele>1955.4</ele>
        <time>2024-08-13T05:36:36Z</time>
      </trkpt>
      <trkpt lat="44.80662" lon="6.29544">
        <ele>1955.2</ele>
        <time>2024-08-13T05:36:37Z</time>
      </trkpt>
      <trkpt lat="44.80662" lon="6.29544">
        <ele>1955</ele>
        <time>2024-08-13T05:36:38Z</time>
      </trkpt>
      <trkpt lat="44.80662" lon="6.29541">
        <ele>1954.8</ele>
        <time>2024-08-13T05:36:39Z</time>
      </trkpt>
      <trkpt lat="44.80662" lon="6.29541">
        <ele>1954.6</ele>
        <time>2024-08-13T05:36:40Z</time>
      </trkpt>
      <trkpt lat="44.80662" lon="6.29537">
        <ele>1954.4</ele>
        <time>2024-08-13T05:36:41Z</time>
      </trkpt>
      <trkpt lat="44.80662" lon="6.29537">
        <ele>1954.2</ele>
        <time>2024-08-13T05:36:42Z</time>
      </trkpt>
      <trkpt lat="44.80662" lon="6.29534">
        <ele>1954</ele>
        <time>2024-08-13T05:36:43Z</time>
      </trkpt>
      <trkpt lat="44.80662" lon="6.29534">
        <ele>1954</ele>
        <time>2024-08-13T05:36:44Z</time>
      </trkpt>
      <trkpt lat="44.80662" lon="6.29534">
        <ele>1954</ele>
        <time>2024-08-13T05:36:45Z</time>
      </trkpt>
      <trkpt lat="44.80662" lon="6.29531">
        <ele>1953.8</ele>
        <time>2024-08-13T05:36:46Z</time>
      </trkpt>
      <trkpt lat="44.80662" lon="6.29531">
        <ele>1953.6</ele>
        <time>2024-08-13T05:36:47Z</time>
      </trkpt>
      <trkpt lat="44.80663" lon="6.29528">
        <ele>1953.2</ele>
        <time>2024-08-13T05:36:48Z</time>
      </trkpt>
      <trkpt lat="44.80663" lon="6.29528">
        <ele>1953</ele>
        <time>2024-08-13T05:36:49Z</time>
      </trkpt>
      <trkpt lat="44.80662" lon="6.29525">
        <ele>1953</ele>
        <time>2024-08-13T05:36:50Z</time>
      </trkpt>
      <trkpt lat="44.80662" lon="6.29525">
        <ele>1952.8</ele>
        <time>2024-08-13T05:36:51Z</time>
      </trkpt>
      <trkpt lat="44.80664" lon="6.29522">
        <ele>1952.8</ele>
        <time>2024-08-13T05:36:52Z</time>
      </trkpt>
      <trkpt lat="44.80664" lon="6.29522">
        <ele>1952.4</ele>
        <time>2024-08-13T05:36:53Z</time>
      </trkpt>
      <trkpt lat="44.80664" lon="6.29519">
        <ele>1952</ele>
        <time>2024-08-13T05:36:54Z</time>
      </trkpt>
      <trkpt lat="44.80664" lon="6.29519">
        <ele>1952</ele>
        <time>2024-08-13T05:36:55Z</time>
      </trkpt>
      <trkpt lat="44.80664" lon="6.29516">
        <ele>1951.8</ele>
        <time>2024-08-13T05:36:56Z</time>
      </trkpt>
      <trkpt lat="44.80664" lon="6.29516">
        <ele>1951.6</ele>
        <time>2024-08-13T05:36:57Z</time>
      </trkpt>
      <trkpt lat="44.80665" lon="6.29513">
        <ele>1951.6</ele>
        <time>2024-08-13T05:36:58Z</time>
      </trkpt>
      <trkpt lat="44.80665" lon="6.29513">
        <ele>1951.6</ele>
        <time>2024-08-13T05:36:59Z</time>
      </trkpt>
      <trkpt lat="44.80665" lon="6.2951">
        <ele>1951.2</ele>
        <time>2024-08-13T05:37:00Z</time>
      </trkpt>
      <trkpt lat="44.80665" lon="6.2951">
        <ele>1950.8</ele>
        <time>2024-08-13T05:37:01Z</time>
      </trkpt>
      <trkpt lat="44.80665" lon="6.29507">
        <ele>1950.8</ele>
        <time>2024-08-13T05:37:02Z</time>
      </trkpt>
      <trkpt lat="44.80665" lon="6.29507">
        <ele>1950.8</ele>
        <time>2024-08-13T05:37:03Z</time>
      </trkpt>
      <trkpt lat="44.80665" lon="6.29507">
        <ele>1950.8</ele>
        <time>2024-08-13T05:37:04Z</time>
      </trkpt>
      <trkpt lat="44.80666" lon="6.29504">
        <ele>1950.6</ele>
        <time>2024-08-13T05:37:05Z</time>
      </trkpt>
      <trkpt lat="44.80666" lon="6.29504">
        <ele>1950.4</ele>
        <time>2024-08-13T05:37:06Z</time>
      </trkpt>
      <trkpt lat="44.80666" lon="6.29504">
        <ele>1950.2</ele>
        <time>2024-08-13T05:37:07Z</time>
      </trkpt>
      <trkpt lat="44.80666" lon="6.29501">
        <ele>1950</ele>
        <time>2024-08-13T05:37:08Z</time>
      </trkpt>
      <trkpt lat="44.80666" lon="6.29501">
        <ele>1949.8</ele>
        <time>2024-08-13T05:37:09Z</time>
      </trkpt>
      <trkpt lat="44.80666" lon="6.29498">
        <ele>1949.8</ele>
        <time>2024-08-13T05:37:10Z</time>
      </trkpt>
      <trkpt lat="44.80666" lon="6.29498">
        <ele>1949.6</ele>
        <time>2024-08-13T05:37:11Z</time>
      </trkpt>
      <trkpt lat="44.80666" lon="6.29495">
        <ele>1949.2</ele>
        <time>2024-08-13T05:37:12Z</time>
      </trkpt>
      <trkpt lat="44.80666" lon="6.29495">
        <ele>1949.2</ele>
        <time>2024-08-13T05:37:13Z</time>
      </trkpt>
      <trkpt lat="44.80666" lon="6.29492">
        <ele>1949.2</ele>
        <time>2024-08-13T05:37:14Z</time>
      </trkpt>
      <trkpt lat="44.80666" lon="6.29492">
        <ele>1949</ele>
        <time>2024-08-13T05:37:15Z</time>
      </trkpt>
      <trkpt lat="44.80665" lon="6.29488">
        <ele>1948.8</ele>
        <time>2024-08-13T05:37:16Z</time>
      </trkpt>
      <trkpt lat="44.80665" lon="6.29488">
        <ele>1948.4</ele>
        <time>2024-08-13T05:37:17Z</time>
      </trkpt>
      <trkpt lat="44.80665" lon="6.29485">
        <ele>1948.4</ele>
        <time>2024-08-13T05:37:18Z</time>
      </trkpt>
      <trkpt lat="44.80665" lon="6.29485">
        <ele>1948.2</ele>
        <time>2024-08-13T05:37:19Z</time>
      </trkpt>
      <trkpt lat="44.80665" lon="6.29485">
        <ele>1948.2</ele>
        <time>2024-08-13T05:37:20Z</time>
      </trkpt>
      <trkpt lat="44.80666" lon="6.29482">
        <ele>1948</ele>
        <time>2024-08-13T05:37:21Z</time>
      </trkpt>
      <trkpt lat="44.80666" lon="6.29482">
        <ele>1947.8</ele>
        <time>2024-08-13T05:37:22Z</time>
      </trkpt>
      <trkpt lat="44.80666" lon="6.29479">
        <ele>1947.8</ele>
        <time>2024-08-13T05:37:23Z</time>
      </trkpt>
      <trkpt lat="44.80666" lon="6.29479">
        <ele>1947.4</ele>
        <time>2024-08-13T05:37:24Z</time>
      </trkpt>
      <trkpt lat="44.80666" lon="6.29476">
        <ele>1946.8</ele>
        <time>2024-08-13T05:37:25Z</time>
      </trkpt>
      <trkpt lat="44.80666" lon="6.29476">
        <ele>1946.6</ele>
        <time>2024-08-13T05:37:26Z</time>
      </trkpt>
      <trkpt lat="44.80666" lon="6.29474">
        <ele>1946.6</ele>
        <time>2024-08-13T05:37:27Z</time>
      </trkpt>
      <trkpt lat="44.80666" lon="6.29474">
        <ele>1946.4</ele>
        <time>2024-08-13T05:37:28Z</time>
      </trkpt>
      <trkpt lat="44.80666" lon="6.29471">
        <ele>1946.4</ele>
        <time>2024-08-13T05:37:29Z</time>
      </trkpt>
      <trkpt lat="44.80666" lon="6.29471">
        <ele>1946.2</ele>
        <time>2024-08-13T05:37:30Z</time>
      </trkpt>
      <trkpt lat="44.80667" lon="6.29468">
        <ele>1946</ele>
        <time>2024-08-13T05:37:31Z</time>
      </trkpt>
      <trkpt lat="44.80667" lon="6.29468">
        <ele>1945.6</ele>
        <time>2024-08-13T05:37:32Z</time>
      </trkpt>
      <trkpt lat="44.80668" lon="6.29465">
        <ele>1945.4</ele>
        <time>2024-08-13T05:37:33Z</time>
      </trkpt>
      <trkpt lat="44.80668" lon="6.29465">
        <ele>1945.4</ele>
        <time>2024-08-13T05:37:34Z</time>
      </trkpt>
      <trkpt lat="44.80668" lon="6.29462">
        <ele>1945.2</ele>
        <time>2024-08-13T05:37:35Z</time>
      </trkpt>
      <trkpt lat="44.80668" lon="6.29462">
        <ele>1945</ele>
        <time>2024-08-13T05:37:36Z</time>
      </trkpt>
      <trkpt lat="44.80668" lon="6.29459">
        <ele>1944.8</ele>
        <time>2024-08-13T05:37:37Z</time>
      </trkpt>
      <trkpt lat="44.80668" lon="6.29459">
        <ele>1944.6</ele>
        <time>2024-08-13T05:37:38Z</time>
      </trkpt>
      <trkpt lat="44.80669" lon="6.29456">
        <ele>1944.4</ele>
        <time>2024-08-13T05:37:39Z</time>
      </trkpt>
      <trkpt lat="44.80669" lon="6.29456">
        <ele>1944.2</ele>
        <time>2024-08-13T05:37:40Z</time>
      </trkpt>
      <trkpt lat="44.8067" lon="6.29453">
        <ele>1944</ele>
        <time>2024-08-13T05:37:41Z</time>
      </trkpt>
      <trkpt lat="44.8067" lon="6.29453">
        <ele>1943.8</ele>
        <time>2024-08-13T05:37:42Z</time>
      </trkpt>
      <trkpt lat="44.8067" lon="6.2945">
        <ele>1943.4</ele>
        <time>2024-08-13T05:37:43Z</time>
      </trkpt>
      <trkpt lat="44.8067" lon="6.2945">
        <ele>1943.2</ele>
        <time>2024-08-13T05:37:44Z</time>
      </trkpt>
      <trkpt lat="44.80672" lon="6.29448">
        <ele>1943.2</ele>
        <time>2024-08-13T05:37:45Z</time>
      </trkpt>
      <trkpt lat="44.80672" lon="6.29448">
        <ele>1943</ele>
        <time>2024-08-13T05:37:46Z</time>
      </trkpt>
      <trkpt lat="44.80673" lon="6.29446">
        <ele>1942.8</ele>
        <time>2024-08-13T05:37:47Z</time>
      </trkpt>
      <trkpt lat="44.80673" lon="6.29446">
        <ele>1942.6</ele>
        <time>2024-08-13T05:37:48Z</time>
      </trkpt>
      <trkpt lat="44.80673" lon="6.29446">
        <ele>1942.6</ele>
        <time>2024-08-13T05:37:49Z</time>
      </trkpt>
      <trkpt lat="44.80675" lon="6.29443">
        <ele>1942.2</ele>
        <time>2024-08-13T05:37:50Z</time>
      </trkpt>
      <trkpt lat="44.80675" lon="6.29443">
        <ele>1941.8</ele>
        <time>2024-08-13T05:37:51Z</time>
      </trkpt>
      <trkpt lat="44.80675" lon="6.29443">
        <ele>1941.6</ele>
        <time>2024-08-13T05:37:52Z</time>
      </trkpt>
      <trkpt lat="44.80676" lon="6.2944">
        <ele>1941.4</ele>
        <time>2024-08-13T05:37:53Z</time>
      </trkpt>
      <trkpt lat="44.80676" lon="6.2944">
        <ele>1941.4</ele>
        <time>2024-08-13T05:37:54Z</time>
      </trkpt>
      <trkpt lat="44.80678" lon="6.29437">
        <ele>1941</ele>
        <time>2024-08-13T05:37:55Z</time>
      </trkpt>
      <trkpt lat="44.80678" lon="6.29437">
        <ele>1940.8</ele>
        <time>2024-08-13T05:37:56Z</time>
      </trkpt>
      <trkpt lat="44.80678" lon="6.29434">
        <ele>1940.6</ele>
        <time>2024-08-13T05:37:57Z</time>
      </trkpt>
      <trkpt lat="44.80678" lon="6.29434">
        <ele>1940.6</ele>
        <time>2024-08-13T05:37:58Z</time>
      </trkpt>
      <trkpt lat="44.8068" lon="6.29432">
        <ele>1940.4</ele>
        <time>2024-08-13T05:37:59Z</time>
      </trkpt>
      <trkpt lat="44.8068" lon="6.29432">
        <ele>1940.2</ele>
        <time>2024-08-13T05:38:00Z</time>
      </trkpt>
      <trkpt lat="44.8068" lon="6.29429">
        <ele>1939.8</ele>
        <time>2024-08-13T05:38:01Z</time>
      </trkpt>
      <trkpt lat="44.8068" lon="6.29429">
        <ele>1939.8</ele>
        <time>2024-08-13T05:38:02Z</time>
      </trkpt>
      <trkpt lat="44.8068" lon="6.29429">
        <ele>1939.6</ele>
        <time>2024-08-13T05:38:03Z</time>
      </trkpt>
      <trkpt lat="44.80682" lon="6.29425">
        <ele>1939.2</ele>
        <time>2024-08-13T05:38:04Z</time>
      </trkpt>
      <trkpt lat="44.80682" lon="6.29425">
        <ele>1938.8</ele>
        <time>2024-08-13T05:38:05Z</time>
      </trkpt>
      <trkpt lat="44.80683" lon="6.29423">
        <ele>1938.6</ele>
        <time>2024-08-13T05:38:06Z</time>
      </trkpt>
      <trkpt lat="44.80683" lon="6.29423">
        <ele>1938.4</ele>
        <time>2024-08-13T05:38:07Z</time>
      </trkpt>
      <trkpt lat="44.80683" lon="6.29423">
        <ele>1938.4</ele>
        <time>2024-08-13T05:38:08Z</time>
      </trkpt>
      <trkpt lat="44.80683" lon="6.29423">
        <ele>1938.2</ele>
        <time>2024-08-13T05:38:09Z</time>
      </trkpt>
      <trkpt lat="44.80685" lon="6.29421">
        <ele>1938.2</ele>
        <time>2024-08-13T05:38:10Z</time>
      </trkpt>
      <trkpt lat="44.80685" lon="6.29421">
        <ele>1938</ele>
        <time>2024-08-13T05:38:11Z</time>
      </trkpt>
      <trkpt lat="44.80685" lon="6.29421">
        <ele>1937.8</ele>
        <time>2024-08-13T05:38:12Z</time>
      </trkpt>
      <trkpt lat="44.80685" lon="6.29425">
        <ele>1937.8</ele>
        <time>2024-08-13T05:38:13Z</time>
      </trkpt>
      <trkpt lat="44.80685" lon="6.29425">
        <ele>1937.8</ele>
        <time>2024-08-13T05:38:14Z</time>
      </trkpt>
      <trkpt lat="44.80685" lon="6.29428">
        <ele>1937.4</ele>
        <time>2024-08-13T05:38:15Z</time>
      </trkpt>
      <trkpt lat="44.80685" lon="6.29428">
        <ele>1937.2</ele>
        <time>2024-08-13T05:38:16Z</time>
      </trkpt>
      <trkpt lat="44.80685" lon="6.29431">
        <ele>1937.2</ele>
        <time>2024-08-13T05:38:17Z</time>
      </trkpt>
      <trkpt lat="44.80685" lon="6.29431">
        <ele>1937</ele>
        <time>2024-08-13T05:38:18Z</time>
      </trkpt>
      <trkpt lat="44.80685" lon="6.29434">
        <ele>1936.8</ele>
        <time>2024-08-13T05:38:19Z</time>
      </trkpt>
      <trkpt lat="44.80685" lon="6.29434">
        <ele>1936.6</ele>
        <time>2024-08-13T05:38:20Z</time>
      </trkpt>
      <trkpt lat="44.80686" lon="6.29437">
        <ele>1936.2</ele>
        <time>2024-08-13T05:38:21Z</time>
      </trkpt>
      <trkpt lat="44.80686" lon="6.29437">
        <ele>1936.2</ele>
        <time>2024-08-13T05:38:22Z</time>
      </trkpt>
      <trkpt lat="44.80687" lon="6.2944">
        <ele>1935.8</ele>
        <time>2024-08-13T05:38:23Z</time>
      </trkpt>
      <trkpt lat="44.80687" lon="6.2944">
        <ele>1935.4</ele>
        <time>2024-08-13T05:38:24Z</time>
      </trkpt>
      <trkpt lat="44.80688" lon="6.29443">
        <ele>1935.2</ele>
        <time>2024-08-13T05:38:25Z</time>
      </trkpt>
      <trkpt lat="44.80688" lon="6.29443">
        <ele>1935.2</ele>
        <time>2024-08-13T05:38:26Z</time>
      </trkpt>
      <trkpt lat="44.80689" lon="6.29446">
        <ele>1934.8</ele>
        <time>2024-08-13T05:38:27Z</time>
      </trkpt>
      <trkpt lat="44.80689" lon="6.29446">
        <ele>1934.6</ele>
        <time>2024-08-13T05:38:28Z</time>
      </trkpt>
      <trkpt lat="44.80689" lon="6.29449">
        <ele>1934.4</ele>
        <time>2024-08-13T05:38:29Z</time>
      </trkpt>
      <trkpt lat="44.80689" lon="6.29449">
        <ele>1934.2</ele>
        <time>2024-08-13T05:38:30Z</time>
      </trkpt>
      <trkpt lat="44.8069" lon="6.29452">
        <ele>1934.2</ele>
        <time>2024-08-13T05:38:31Z</time>
      </trkpt>
      <trkpt lat="44.8069" lon="6.29452">
        <ele>1933.8</ele>
        <time>2024-08-13T05:38:32Z</time>
      </trkpt>
      <trkpt lat="44.8069" lon="6.29454">
        <ele>1933.4</ele>
        <time>2024-08-13T05:38:33Z</time>
      </trkpt>
      <trkpt lat="44.8069" lon="6.29454">
        <ele>1933.4</ele>
        <time>2024-08-13T05:38:34Z</time>
      </trkpt>
      <trkpt lat="44.80691" lon="6.29457">
        <ele>1933</ele>
        <time>2024-08-13T05:38:35Z</time>
      </trkpt>
      <trkpt lat="44.80691" lon="6.29457">
        <ele>1933</ele>
        <time>2024-08-13T05:38:36Z</time>
      </trkpt>
      <trkpt lat="44.80691" lon="6.2946">
        <ele>1932.8</ele>
        <time>2024-08-13T05:38:37Z</time>
      </trkpt>
      <trkpt lat="44.80691" lon="6.2946">
        <ele>1932.6</ele>
        <time>2024-08-13T05:38:38Z</time>
      </trkpt>
      <trkpt lat="44.80692" lon="6.29463">
        <ele>1932.4</ele>
        <time>2024-08-13T05:38:39Z</time>
      </trkpt>
      <trkpt lat="44.80692" lon="6.29463">
        <ele>1932.2</ele>
        <time>2024-08-13T05:38:40Z</time>
      </trkpt>
      <trkpt lat="44.80692" lon="6.29465">
        <ele>1932</ele>
        <time>2024-08-13T05:38:41Z</time>
      </trkpt>
      <trkpt lat="44.80692" lon="6.29465">
        <ele>1931.6</ele>
        <time>2024-08-13T05:38:42Z</time>
      </trkpt>
      <trkpt lat="44.80693" lon="6.29469">
        <ele>1931.6</ele>
        <time>2024-08-13T05:38:43Z</time>
      </trkpt>
      <trkpt lat="44.80693" lon="6.29469">
        <ele>1931.4</ele>
        <time>2024-08-13T05:38:44Z</time>
      </trkpt>
      <trkpt lat="44.80693" lon="6.29471">
        <ele>1931</ele>
        <time>2024-08-13T05:38:45Z</time>
      </trkpt>
      <trkpt lat="44.80693" lon="6.29471">
        <ele>1931</ele>
        <time>2024-08-13T05:38:46Z</time>
      </trkpt>
      <trkpt lat="44.80693" lon="6.29474">
        <ele>1930.6</ele>
        <time>2024-08-13T05:38:47Z</time>
      </trkpt>
      <trkpt lat="44.80693" lon="6.29474">
        <ele>1930.6</ele>
        <time>2024-08-13T05:38:48Z</time>
      </trkpt>
      <trkpt lat="44.80695" lon="6.29476">
        <ele>1930.4</ele>
        <time>2024-08-13T05:38:49Z</time>
      </trkpt>
      <trkpt lat="44.80695" lon="6.29476">
        <ele>1930.4</ele>
        <time>2024-08-13T05:38:50Z</time>
      </trkpt>
      <trkpt lat="44.80697" lon="6.29478">
        <ele>1930.2</ele>
        <time>2024-08-13T05:38:51Z</time>
      </trkpt>
      <trkpt lat="44.80697" lon="6.29478">
        <ele>1929.8</ele>
        <time>2024-08-13T05:38:52Z</time>
      </trkpt>
      <trkpt lat="44.80697" lon="6.29481">
        <ele>1929.6</ele>
        <time>2024-08-13T05:38:53Z</time>
      </trkpt>
      <trkpt lat="44.80697" lon="6.29481">
        <ele>1929.4</ele>
        <time>2024-08-13T05:38:54Z</time>
      </trkpt>
      <trkpt lat="44.80699" lon="6.29483">
        <ele>1929.2</ele>
        <time>2024-08-13T05:38:55Z</time>
      </trkpt>
      <trkpt lat="44.80699" lon="6.29483">
        <ele>1928.8</ele>
        <time>2024-08-13T05:38:56Z</time>
      </trkpt>
      <trkpt lat="44.807" lon="6.29486">
        <ele>1928.8</ele>
        <time>2024-08-13T05:38:57Z</time>
      </trkpt>
      <trkpt lat="44.807" lon="6.29486">
        <ele>1928.6</ele>
        <time>2024-08-13T05:38:58Z</time>
      </trkpt>
      <trkpt lat="44.807" lon="6.29489">
        <ele>1928.2</ele>
        <time>2024-08-13T05:38:59Z</time>
      </trkpt>
      <trkpt lat="44.807" lon="6.29489">
        <ele>1928.2</ele>
        <time>2024-08-13T05:39:00Z</time>
      </trkpt>
      <trkpt lat="44.807" lon="6.29489">
        <ele>1927.8</ele>
        <time>2024-08-13T05:39:01Z</time>
      </trkpt>
      <trkpt lat="44.80701" lon="6.29492">
        <ele>1927.2</ele>
        <time>2024-08-13T05:39:02Z</time>
      </trkpt>
      <trkpt lat="44.80701" lon="6.29492">
        <ele>1927.2</ele>
        <time>2024-08-13T05:39:03Z</time>
      </trkpt>
      <trkpt lat="44.80703" lon="6.29495">
        <ele>1926.8</ele>
        <time>2024-08-13T05:39:04Z</time>
      </trkpt>
      <trkpt lat="44.80703" lon="6.29495">
        <ele>1926.6</ele>
        <time>2024-08-13T05:39:05Z</time>
      </trkpt>
      <trkpt lat="44.80703" lon="6.29498">
        <ele>1926.4</ele>
        <time>2024-08-13T05:39:06Z</time>
      </trkpt>
      <trkpt lat="44.80703" lon="6.29498">
        <ele>1926.2</ele>
        <time>2024-08-13T05:39:07Z</time>
      </trkpt>
      <trkpt lat="44.80703" lon="6.29498">
        <ele>1926.2</ele>
        <time>2024-08-13T05:39:08Z</time>
      </trkpt>
      <trkpt lat="44.80704" lon="6.29501">
        <ele>1926.2</ele>
        <time>2024-08-13T05:39:09Z</time>
      </trkpt>
      <trkpt lat="44.80704" lon="6.29501">
        <ele>1925.8</ele>
        <time>2024-08-13T05:39:10Z</time>
      </trkpt>
      <trkpt lat="44.80704" lon="6.29501">
        <ele>1925.6</ele>
        <time>2024-08-13T05:39:11Z</time>
      </trkpt>
      <trkpt lat="44.80706" lon="6.29503">
        <ele>1925.2</ele>
        <time>2024-08-13T05:39:12Z</time>
      </trkpt>
      <trkpt lat="44.80706" lon="6.29503">
        <ele>1924.8</ele>
        <time>2024-08-13T05:39:13Z</time>
      </trkpt>
      <trkpt lat="44.80707" lon="6.29505">
        <ele>1924.8</ele>
        <time>2024-08-13T05:39:14Z</time>
      </trkpt>
      <trkpt lat="44.80707" lon="6.29505">
        <ele>1924.6</ele>
        <time>2024-08-13T05:39:15Z</time>
      </trkpt>
      <trkpt lat="44.80707" lon="6.29509">
        <ele>1924.4</ele>
        <time>2024-08-13T05:39:16Z</time>
      </trkpt>
      <trkpt lat="44.80707" lon="6.29509">
        <ele>1924.2</ele>
        <time>2024-08-13T05:39:17Z</time>
      </trkpt>
      <trkpt lat="44.80707" lon="6.29511">
        <ele>1924.2</ele>
        <time>2024-08-13T05:39:18Z</time>
      </trkpt>
      <trkpt lat="44.80707" lon="6.29511">
        <ele>1924</ele>
        <time>2024-08-13T05:39:19Z</time>
      </trkpt>
      <trkpt lat="44.80709" lon="6.29514">
        <ele>1923.8</ele>
        <time>2024-08-13T05:39:20Z</time>
      </trkpt>
      <trkpt lat="44.80709" lon="6.29514">
        <ele>1923.6</ele>
        <time>2024-08-13T05:39:21Z</time>
      </trkpt>
      <trkpt lat="44.8071" lon="6.29516">
        <ele>1923.2</ele>
        <time>2024-08-13T05:39:22Z</time>
      </trkpt>
      <trkpt lat="44.8071" lon="6.29516">
        <ele>1923</ele>
        <time>2024-08-13T05:39:23Z</time>
      </trkpt>
      <trkpt lat="44.80711" lon="6.29519">
        <ele>1923</ele>
        <time>2024-08-13T05:39:24Z</time>
      </trkpt>
      <trkpt lat="44.80711" lon="6.29519">
        <ele>1922.8</ele>
        <time>2024-08-13T05:39:25Z</time>
      </trkpt>
      <trkpt lat="44.80712" lon="6.29522">
        <ele>1922.8</ele>
        <time>2024-08-13T05:39:26Z</time>
      </trkpt>
      <trkpt lat="44.80712" lon="6.29522">
        <ele>1922.8</ele>
        <time>2024-08-13T05:39:27Z</time>
      </trkpt>
      <trkpt lat="44.80712" lon="6.29522">
        <ele>1922.6</ele>
        <time>2024-08-13T05:39:28Z</time>
      </trkpt>
      <trkpt lat="44.80714" lon="6.29525">
        <ele>1922.4</ele>
        <time>2024-08-13T05:39:29Z</time>
      </trkpt>
      <trkpt lat="44.80714" lon="6.29525">
        <ele>1922.4</ele>
        <time>2024-08-13T05:39:30Z</time>
      </trkpt>
      <trkpt lat="44.80715" lon="6.29528">
        <ele>1922</ele>
        <time>2024-08-13T05:39:31Z</time>
      </trkpt>
      <trkpt lat="44.80715" lon="6.29528">
        <ele>1921.6</ele>
        <time>2024-08-13T05:39:32Z</time>
      </trkpt>
      <trkpt lat="44.80717" lon="6.2953">
        <ele>1921.6</ele>
        <time>2024-08-13T05:39:33Z</time>
      </trkpt>
      <trkpt lat="44.80717" lon="6.2953">
        <ele>1921.4</ele>
        <time>2024-08-13T05:39:34Z</time>
      </trkpt>
      <trkpt lat="44.80717" lon="6.29533">
        <ele>1921</ele>
        <time>2024-08-13T05:39:35Z</time>
      </trkpt>
      <trkpt lat="44.80717" lon="6.29533">
        <ele>1921</ele>
        <time>2024-08-13T05:39:36Z</time>
      </trkpt>
      <trkpt lat="44.80718" lon="6.29536">
        <ele>1920.8</ele>
        <time>2024-08-13T05:39:37Z</time>
      </trkpt>
      <trkpt lat="44.80718" lon="6.29536">
        <ele>1920.6</ele>
        <time>2024-08-13T05:39:38Z</time>
      </trkpt>
      <trkpt lat="44.80719" lon="6.29539">
        <ele>1920.2</ele>
        <time>2024-08-13T05:39:39Z</time>
      </trkpt>
      <trkpt lat="44.80719" lon="6.29539">
        <ele>1920</ele>
        <time>2024-08-13T05:39:40Z</time>
      </trkpt>
      <trkpt lat="44.80719" lon="6.29542">
        <ele>1919.8</ele>
        <time>2024-08-13T05:39:41Z</time>
      </trkpt>
      <trkpt lat="44.80719" lon="6.29542">
        <ele>1919.6</ele>
        <time>2024-08-13T05:39:42Z</time>
      </trkpt>
      <trkpt lat="44.8072" lon="6.29545">
        <ele>1919.6</ele>
        <time>2024-08-13T05:39:43Z</time>
      </trkpt>
      <trkpt lat="44.8072" lon="6.29545">
        <ele>1919.6</ele>
        <time>2024-08-13T05:39:44Z</time>
      </trkpt>
      <trkpt lat="44.80721" lon="6.29548">
        <ele>1919.2</ele>
        <time>2024-08-13T05:39:45Z</time>
      </trkpt>
      <trkpt lat="44.80721" lon="6.29548">
        <ele>1919</ele>
        <time>2024-08-13T05:39:46Z</time>
      </trkpt>
      <trkpt lat="44.80722" lon="6.2955">
        <ele>1919</ele>
        <time>2024-08-13T05:39:47Z</time>
      </trkpt>
      <trkpt lat="44.80722" lon="6.2955">
        <ele>1918.4</ele>
        <time>2024-08-13T05:39:48Z</time>
      </trkpt>
      <trkpt lat="44.80723" lon="6.29553">
        <ele>1918.2</ele>
        <time>2024-08-13T05:39:49Z</time>
      </trkpt>
      <trkpt lat="44.80723" lon="6.29553">
        <ele>1918.2</ele>
        <time>2024-08-13T05:39:50Z</time>
      </trkpt>
      <trkpt lat="44.80724" lon="6.29556">
        <ele>1918</ele>
        <time>2024-08-13T05:39:51Z</time>
      </trkpt>
      <trkpt lat="44.80724" lon="6.29556">
        <ele>1917.6</ele>
        <time>2024-08-13T05:39:52Z</time>
      </trkpt>
      <trkpt lat="44.80725" lon="6.29559">
        <ele>1917.4</ele>
        <time>2024-08-13T05:39:53Z</time>
      </trkpt>
      <trkpt lat="44.80725" lon="6.29559">
        <ele>1917.2</ele>
        <time>2024-08-13T05:39:54Z</time>
      </trkpt>
      <trkpt lat="44.80725" lon="6.29561">
        <ele>1916.8</ele>
        <time>2024-08-13T05:39:55Z</time>
      </trkpt>
      <trkpt lat="44.80725" lon="6.29561">
        <ele>1916.4</ele>
        <time>2024-08-13T05:39:56Z</time>
      </trkpt>
      <trkpt lat="44.80725" lon="6.29561">
        <ele>1916.4</ele>
        <time>2024-08-13T05:39:57Z</time>
      </trkpt>
      <trkpt lat="44.80725" lon="6.29561">
        <ele>1916.4</ele>
        <time>2024-08-13T05:39:58Z</time>
      </trkpt>
      <trkpt lat="44.80725" lon="6.29561">
        <ele>1916.2</ele>
        <time>2024-08-13T05:39:59Z</time>
      </trkpt>
      <trkpt lat="44.80727" lon="6.29558">
        <ele>1915.8</ele>
        <time>2024-08-13T05:40:00Z</time>
      </trkpt>
      <trkpt lat="44.80727" lon="6.29558">
        <ele>1915.8</ele>
        <time>2024-08-13T05:40:01Z</time>
      </trkpt>
      <trkpt lat="44.80727" lon="6.29554">
        <ele>1915.8</ele>
        <time>2024-08-13T05:40:02Z</time>
      </trkpt>
      <trkpt lat="44.80727" lon="6.29554">
        <ele>1915.8</ele>
        <time>2024-08-13T05:40:03Z</time>
      </trkpt>
      <trkpt lat="44.80728" lon="6.29551">
        <ele>1915.8</ele>
        <time>2024-08-13T05:40:04Z</time>
      </trkpt>
      <trkpt lat="44.80728" lon="6.29551">
        <ele>1915.6</ele>
        <time>2024-08-13T05:40:05Z</time>
      </trkpt>
      <trkpt lat="44.80728" lon="6.29547">
        <ele>1915.4</ele>
        <time>2024-08-13T05:40:06Z</time>
      </trkpt>
      <trkpt lat="44.80728" lon="6.29547">
        <ele>1914.8</ele>
        <time>2024-08-13T05:40:07Z</time>
      </trkpt>
      <trkpt lat="44.80729" lon="6.29544">
        <ele>1914.6</ele>
        <time>2024-08-13T05:40:08Z</time>
      </trkpt>
      <trkpt lat="44.80729" lon="6.29544">
        <ele>1914.4</ele>
        <time>2024-08-13T05:40:09Z</time>
      </trkpt>
      <trkpt lat="44.80729" lon="6.29541">
        <ele>1914.2</ele>
        <time>2024-08-13T05:40:10Z</time>
      </trkpt>
      <trkpt lat="44.80729" lon="6.29541">
        <ele>1914.2</ele>
        <time>2024-08-13T05:40:11Z</time>
      </trkpt>
      <trkpt lat="44.80729" lon="6.29538">
        <ele>1914</ele>
        <time>2024-08-13T05:40:12Z</time>
      </trkpt>
      <trkpt lat="44.80729" lon="6.29538">
        <ele>1913.8</ele>
        <time>2024-08-13T05:40:13Z</time>
      </trkpt>
      <trkpt lat="44.80729" lon="6.29538">
        <ele>1913.8</ele>
        <time>2024-08-13T05:40:14Z</time>
      </trkpt>
      <trkpt lat="44.80728" lon="6.29534">
        <ele>1913.8</ele>
        <time>2024-08-13T05:40:15Z</time>
      </trkpt>
      <trkpt lat="44.80728" lon="6.29534">
        <ele>1913.4</ele>
        <time>2024-08-13T05:40:16Z</time>
      </trkpt>
      <trkpt lat="44.80728" lon="6.29532">
        <ele>1913</ele>
        <time>2024-08-13T05:40:17Z</time>
      </trkpt>
      <trkpt lat="44.80728" lon="6.29532">
        <ele>1913</ele>
        <time>2024-08-13T05:40:18Z</time>
      </trkpt>
      <trkpt lat="44.80728" lon="6.29528">
        <ele>1912.8</ele>
        <time>2024-08-13T05:40:19Z</time>
      </trkpt>
      <trkpt lat="44.80728" lon="6.29528">
        <ele>1912.4</ele>
        <time>2024-08-13T05:40:20Z</time>
      </trkpt>
      <trkpt lat="44.80729" lon="6.29525">
        <ele>1912.2</ele>
        <time>2024-08-13T05:40:21Z</time>
      </trkpt>
      <trkpt lat="44.80729" lon="6.29525">
        <ele>1912</ele>
        <time>2024-08-13T05:40:22Z</time>
      </trkpt>
      <trkpt lat="44.80729" lon="6.29522">
        <ele>1911.8</ele>
        <time>2024-08-13T05:40:23Z</time>
      </trkpt>
      <trkpt lat="44.80729" lon="6.29522">
        <ele>1911.8</ele>
        <time>2024-08-13T05:40:24Z</time>
      </trkpt>
      <trkpt lat="44.80729" lon="6.29519">
        <ele>1911.6</ele>
        <time>2024-08-13T05:40:25Z</time>
      </trkpt>
      <trkpt lat="44.80729" lon="6.29519">
        <ele>1911.4</ele>
        <time>2024-08-13T05:40:26Z</time>
      </trkpt>
      <trkpt lat="44.80729" lon="6.29517">
        <ele>1911.2</ele>
        <time>2024-08-13T05:40:27Z</time>
      </trkpt>
      <trkpt lat="44.80729" lon="6.29517">
        <ele>1911</ele>
        <time>2024-08-13T05:40:28Z</time>
      </trkpt>
      <trkpt lat="44.80729" lon="6.29513">
        <ele>1910.6</ele>
        <time>2024-08-13T05:40:29Z</time>
      </trkpt>
      <trkpt lat="44.80729" lon="6.29513">
        <ele>1910.6</ele>
        <time>2024-08-13T05:40:30Z</time>
      </trkpt>
      <trkpt lat="44.8073" lon="6.2951">
        <ele>1910.4</ele>
        <time>2024-08-13T05:40:31Z</time>
      </trkpt>
      <trkpt lat="44.8073" lon="6.2951">
        <ele>1910.2</ele>
        <time>2024-08-13T05:40:32Z</time>
      </trkpt>
      <trkpt lat="44.8073" lon="6.29507">
        <ele>1910</ele>
        <time>2024-08-13T05:40:33Z</time>
      </trkpt>
      <trkpt lat="44.8073" lon="6.29507">
        <ele>1909.8</ele>
        <time>2024-08-13T05:40:34Z</time>
      </trkpt>
      <trkpt lat="44.80729" lon="6.29503">
        <ele>1909.6</ele>
        <time>2024-08-13T05:40:35Z</time>
      </trkpt>
      <trkpt lat="44.80729" lon="6.29503">
        <ele>1909.6</ele>
        <time>2024-08-13T05:40:36Z</time>
      </trkpt>
      <trkpt lat="44.8073" lon="6.295">
        <ele>1909.4</ele>
        <time>2024-08-13T05:40:37Z</time>
      </trkpt>
      <trkpt lat="44.8073" lon="6.295">
        <ele>1909.2</ele>
        <time>2024-08-13T05:40:38Z</time>
      </trkpt>
      <trkpt lat="44.80731" lon="6.29498">
        <ele>1909</ele>
        <time>2024-08-13T05:40:39Z</time>
      </trkpt>
      <trkpt lat="44.80731" lon="6.29498">
        <ele>1908.6</ele>
        <time>2024-08-13T05:40:40Z</time>
      </trkpt>
      <trkpt lat="44.80731" lon="6.29495">
        <ele>1908.6</ele>
        <time>2024-08-13T05:40:41Z</time>
      </trkpt>
      <trkpt lat="44.80731" lon="6.29495">
        <ele>1908.4</ele>
        <time>2024-08-13T05:40:42Z</time>
      </trkpt>
      <trkpt lat="44.80731" lon="6.29495">
        <ele>1908.4</ele>
        <time>2024-08-13T05:40:43Z</time>
      </trkpt>
      <trkpt lat="44.80731" lon="6.29495">
        <ele>1908.2</ele>
        <time>2024-08-13T05:40:44Z</time>
      </trkpt>
      <trkpt lat="44.80732" lon="6.29492">
        <ele>1908</ele>
        <time>2024-08-13T05:40:45Z</time>
      </trkpt>
      <trkpt lat="44.80732" lon="6.29492">
        <ele>1908</ele>
        <time>2024-08-13T05:40:46Z</time>
      </trkpt>
      <trkpt lat="44.80732" lon="6.29492">
        <ele>1907.6</ele>
        <time>2024-08-13T05:40:47Z</time>
      </trkpt>
      <trkpt lat="44.80732" lon="6.29492">
        <ele>1907.4</ele>
        <time>2024-08-13T05:40:48Z</time>
      </trkpt>
      <trkpt lat="44.80732" lon="6.29492">
        <ele>1907.4</ele>
        <time>2024-08-13T05:40:49Z</time>
      </trkpt>
      <trkpt lat="44.80732" lon="6.29492">
        <ele>1907.4</ele>
        <time>2024-08-13T05:40:50Z</time>
      </trkpt>
      <trkpt lat="44.80732" lon="6.29492">
        <ele>1907.6</ele>
        <time>2024-08-13T05:40:51Z</time>
      </trkpt>
      <trkpt lat="44.80732" lon="6.29492">
        <ele>1907.6</ele>
        <time>2024-08-13T05:40:52Z</time>
      </trkpt>
      <trkpt lat="44.80732" lon="6.2949">
        <ele>1907.6</ele>
        <time>2024-08-13T05:40:53Z</time>
      </trkpt>
      <trkpt lat="44.80732" lon="6.2949">
        <ele>1907.4</ele>
        <time>2024-08-13T05:40:54Z</time>
      </trkpt>
      <trkpt lat="44.80733" lon="6.29487">
        <ele>1907.4</ele>
        <time>2024-08-13T05:40:55Z</time>
      </trkpt>
      <trkpt lat="44.80733" lon="6.29487">
        <ele>1907.2</ele>
        <time>2024-08-13T05:40:56Z</time>
      </trkpt>
      <trkpt lat="44.80733" lon="6.29487">
        <ele>1907.2</ele>
        <time>2024-08-13T05:40:57Z</time>
      </trkpt>
      <trkpt lat="44.80733" lon="6.29483">
        <ele>1907</ele>
        <time>2024-08-13T05:40:58Z</time>
      </trkpt>
      <trkpt lat="44.80733" lon="6.29483">
        <ele>1906.8</ele>
        <time>2024-08-13T05:40:59Z</time>
      </trkpt>
      <trkpt lat="44.80735" lon="6.29481">
        <ele>1906.6</ele>
        <time>2024-08-13T05:41:00Z</time>
      </trkpt>
      <trkpt lat="44.80735" lon="6.29481">
        <ele>1906.4</ele>
        <time>2024-08-13T05:41:01Z</time>
      </trkpt>
      <trkpt lat="44.80735" lon="6.29481">
        <ele>1906.4</ele>
        <time>2024-08-13T05:41:02Z</time>
      </trkpt>
      <trkpt lat="44.80735" lon="6.29477">
        <ele>1906.4</ele>
        <time>2024-08-13T05:41:03Z</time>
      </trkpt>
      <trkpt lat="44.80735" lon="6.29477">
        <ele>1906.2</ele>
        <time>2024-08-13T05:41:04Z</time>
      </trkpt>
      <trkpt lat="44.80737" lon="6.29475">
        <ele>1906</ele>
        <time>2024-08-13T05:41:05Z</time>
      </trkpt>
      <trkpt lat="44.80737" lon="6.29475">
        <ele>1906</ele>
        <time>2024-08-13T05:41:06Z</time>
      </trkpt>
      <trkpt lat="44.80739" lon="6.29472">
        <ele>1906</ele>
        <time>2024-08-13T05:41:07Z</time>
      </trkpt>
      <trkpt lat="44.80739" lon="6.29472">
        <ele>1905.8</ele>
        <time>2024-08-13T05:41:08Z</time>
      </trkpt>
      <trkpt lat="44.80739" lon="6.29469">
        <ele>1905.8</ele>
        <time>2024-08-13T05:41:09Z</time>
      </trkpt>
      <trkpt lat="44.80739" lon="6.29469">
        <ele>1905.6</ele>
        <time>2024-08-13T05:41:10Z</time>
      </trkpt>
      <trkpt lat="44.80739" lon="6.29469">
        <ele>1905.4</ele>
        <time>2024-08-13T05:41:11Z</time>
      </trkpt>
      <trkpt lat="44.80741" lon="6.29465">
        <ele>1905.2</ele>
        <time>2024-08-13T05:41:12Z</time>
      </trkpt>
      <trkpt lat="44.80741" lon="6.29465">
        <ele>1905</ele>
        <time>2024-08-13T05:41:13Z</time>
      </trkpt>
      <trkpt lat="44.80741" lon="6.29462">
        <ele>1904.8</ele>
        <time>2024-08-13T05:41:14Z</time>
      </trkpt>
      <trkpt lat="44.80741" lon="6.29462">
        <ele>1904.6</ele>
        <time>2024-08-13T05:41:15Z</time>
      </trkpt>
      <trkpt lat="44.80743" lon="6.29459">
        <ele>1904.6</ele>
        <time>2024-08-13T05:41:16Z</time>
      </trkpt>
      <trkpt lat="44.80743" lon="6.29459">
        <ele>1904.2</ele>
        <time>2024-08-13T05:41:17Z</time>
      </trkpt>
      <trkpt lat="44.80744" lon="6.29457">
        <ele>1904.2</ele>
        <time>2024-08-13T05:41:18Z</time>
      </trkpt>
      <trkpt lat="44.80744" lon="6.29457">
        <ele>1903.8</ele>
        <time>2024-08-13T05:41:19Z</time>
      </trkpt>
      <trkpt lat="44.80744" lon="6.29457">
        <ele>1903.8</ele>
        <time>2024-08-13T05:41:20Z</time>
      </trkpt>
      <trkpt lat="44.80744" lon="6.29457">
        <ele>1903.8</ele>
        <time>2024-08-13T05:41:21Z</time>
      </trkpt>
      <trkpt lat="44.80746" lon="6.29459">
        <ele>1903.4</ele>
        <time>2024-08-13T05:41:22Z</time>
      </trkpt>
      <trkpt lat="44.80746" lon="6.29459">
        <ele>1903</ele>
        <time>2024-08-13T05:41:23Z</time>
      </trkpt>
      <trkpt lat="44.80747" lon="6.29461">
        <ele>1903</ele>
        <time>2024-08-13T05:41:24Z</time>
      </trkpt>
      <trkpt lat="44.80747" lon="6.29461">
        <ele>1902.8</ele>
        <time>2024-08-13T05:41:25Z</time>
      </trkpt>
      <trkpt lat="44.80747" lon="6.29464">
        <ele>1902.4</ele>
        <time>2024-08-13T05:41:26Z</time>
      </trkpt>
      <trkpt lat="44.80747" lon="6.29464">
        <ele>1902.4</ele>
        <time>2024-08-13T05:41:27Z</time>
      </trkpt>
      <trkpt lat="44.80747" lon="6.29467">
        <ele>1902</ele>
        <time>2024-08-13T05:41:28Z</time>
      </trkpt>
      <trkpt lat="44.80747" lon="6.29467">
        <ele>1901.8</ele>
        <time>2024-08-13T05:41:29Z</time>
      </trkpt>
      <trkpt lat="44.80748" lon="6.2947">
        <ele>1901.8</ele>
        <time>2024-08-13T05:41:30Z</time>
      </trkpt>
      <trkpt lat="44.80748" lon="6.2947">
        <ele>1901.4</ele>
        <time>2024-08-13T05:41:31Z</time>
      </trkpt>
      <trkpt lat="44.80748" lon="6.29474">
        <ele>1901</ele>
        <time>2024-08-13T05:41:32Z</time>
      </trkpt>
      <trkpt lat="44.80748" lon="6.29474">
        <ele>1901</ele>
        <time>2024-08-13T05:41:33Z</time>
      </trkpt>
      <trkpt lat="44.80748" lon="6.29474">
        <ele>1900.8</ele>
        <time>2024-08-13T05:41:34Z</time>
      </trkpt>
      <trkpt lat="44.80748" lon="6.29478">
        <ele>1900.4</ele>
        <time>2024-08-13T05:41:35Z</time>
      </trkpt>
      <trkpt lat="44.80748" lon="6.29478">
        <ele>1900.2</ele>
        <time>2024-08-13T05:41:36Z</time>
      </trkpt>
      <trkpt lat="44.80749" lon="6.2948">
        <ele>1900</ele>
        <time>2024-08-13T05:41:37Z</time>
      </trkpt>
      <trkpt lat="44.80749" lon="6.2948">
        <ele>1899.8</ele>
        <time>2024-08-13T05:41:38Z</time>
      </trkpt>
      <trkpt lat="44.8075" lon="6.29482">
        <ele>1899.8</ele>
        <time>2024-08-13T05:41:39Z</time>
      </trkpt>
      <trkpt lat="44.8075" lon="6.29482">
        <ele>1899.8</ele>
        <time>2024-08-13T05:41:40Z</time>
      </trkpt>
      <trkpt lat="44.80751" lon="6.29485">
        <ele>1899.4</ele>
        <time>2024-08-13T05:41:41Z</time>
      </trkpt>
      <trkpt lat="44.80751" lon="6.29485">
        <ele>1899</ele>
        <time>2024-08-13T05:41:42Z</time>
      </trkpt>
      <trkpt lat="44.80752" lon="6.29487">
        <ele>1898.8</ele>
        <time>2024-08-13T05:41:43Z</time>
      </trkpt>
      <trkpt lat="44.80752" lon="6.29487">
        <ele>1898.6</ele>
        <time>2024-08-13T05:41:44Z</time>
      </trkpt>
      <trkpt lat="44.80753" lon="6.2949">
        <ele>1898.4</ele>
        <time>2024-08-13T05:41:45Z</time>
      </trkpt>
      <trkpt lat="44.80753" lon="6.2949">
        <ele>1898.2</ele>
        <time>2024-08-13T05:41:46Z</time>
      </trkpt>
      <trkpt lat="44.80754" lon="6.29493">
        <ele>1897.8</ele>
        <time>2024-08-13T05:41:47Z</time>
      </trkpt>
      <trkpt lat="44.80754" lon="6.29493">
        <ele>1897.6</ele>
        <time>2024-08-13T05:41:48Z</time>
      </trkpt>
      <trkpt lat="44.80755" lon="6.29495">
        <ele>1897.4</ele>
        <time>2024-08-13T05:41:49Z</time>
      </trkpt>
      <trkpt lat="44.80755" lon="6.29495">
        <ele>1897</ele>
        <time>2024-08-13T05:41:50Z</time>
      </trkpt>
      <trkpt lat="44.80755" lon="6.29495">
        <ele>1896.4</ele>
        <time>2024-08-13T05:41:51Z</time>
      </trkpt>
      <trkpt lat="44.80755" lon="6.29499">
        <ele>1896.4</ele>
        <time>2024-08-13T05:41:52Z</time>
      </trkpt>
      <trkpt lat="44.80755" lon="6.29499">
        <ele>1896.4</ele>
        <time>2024-08-13T05:41:53Z</time>
      </trkpt>
      <trkpt lat="44.80755" lon="6.29502">
        <ele>1896.2</ele>
        <time>2024-08-13T05:41:54Z</time>
      </trkpt>
      <trkpt lat="44.80755" lon="6.29502">
        <ele>1895.8</ele>
        <time>2024-08-13T05:41:55Z</time>
      </trkpt>
      <trkpt lat="44.80757" lon="6.29505">
        <ele>1895.6</ele>
        <time>2024-08-13T05:41:56Z</time>
      </trkpt>
      <trkpt lat="44.80757" lon="6.29505">
        <ele>1895.4</ele>
        <time>2024-08-13T05:41:57Z</time>
      </trkpt>
      <trkpt lat="44.80758" lon="6.29507">
        <ele>1895</ele>
        <time>2024-08-13T05:41:58Z</time>
      </trkpt>
      <trkpt lat="44.80758" lon="6.29507">
        <ele>1895</ele>
        <time>2024-08-13T05:41:59Z</time>
      </trkpt>
      <trkpt lat="44.8076" lon="6.29509">
        <ele>1894.6</ele>
        <time>2024-08-13T05:42:00Z</time>
      </trkpt>
      <trkpt lat="44.8076" lon="6.29509">
        <ele>1894.6</ele>
        <time>2024-08-13T05:42:01Z</time>
      </trkpt>
      <trkpt lat="44.80761" lon="6.29512">
        <ele>1894.4</ele>
        <time>2024-08-13T05:42:02Z</time>
      </trkpt>
      <trkpt lat="44.80761" lon="6.29512">
        <ele>1894.4</ele>
        <time>2024-08-13T05:42:03Z</time>
      </trkpt>
      <trkpt lat="44.80761" lon="6.29515">
        <ele>1894.4</ele>
        <time>2024-08-13T05:42:04Z</time>
      </trkpt>
      <trkpt lat="44.80761" lon="6.29515">
        <ele>1894</ele>
        <time>2024-08-13T05:42:05Z</time>
      </trkpt>
      <trkpt lat="44.80763" lon="6.29517">
        <ele>1893.8</ele>
        <time>2024-08-13T05:42:06Z</time>
      </trkpt>
      <trkpt lat="44.80763" lon="6.29517">
        <ele>1893.6</ele>
        <time>2024-08-13T05:42:07Z</time>
      </trkpt>
      <trkpt lat="44.80765" lon="6.2952">
        <ele>1893.2</ele>
        <time>2024-08-13T05:42:08Z</time>
      </trkpt>
      <trkpt lat="44.80765" lon="6.2952">
        <ele>1893</ele>
        <time>2024-08-13T05:42:09Z</time>
      </trkpt>
      <trkpt lat="44.80765" lon="6.29522">
        <ele>1892.8</ele>
        <time>2024-08-13T05:42:10Z</time>
      </trkpt>
      <trkpt lat="44.80765" lon="6.29522">
        <ele>1892.8</ele>
        <time>2024-08-13T05:42:11Z</time>
      </trkpt>
      <trkpt lat="44.80766" lon="6.29525">
        <ele>1892.6</ele>
        <time>2024-08-13T05:42:12Z</time>
      </trkpt>
      <trkpt lat="44.80766" lon="6.29525">
        <ele>1892.4</ele>
        <time>2024-08-13T05:42:13Z</time>
      </trkpt>
      <trkpt lat="44.80767" lon="6.29529">
        <ele>1892</ele>
        <time>2024-08-13T05:42:14Z</time>
      </trkpt>
      <trkpt lat="44.80767" lon="6.29529">
        <ele>1891.6</ele>
        <time>2024-08-13T05:42:15Z</time>
      </trkpt>
      <trkpt lat="44.80767" lon="6.29532">
        <ele>1891.4</ele>
        <time>2024-08-13T05:42:16Z</time>
      </trkpt>
      <trkpt lat="44.80767" lon="6.29532">
        <ele>1890.8</ele>
        <time>2024-08-13T05:42:17Z</time>
      </trkpt>
      <trkpt lat="44.80767" lon="6.29536">
        <ele>1890.6</ele>
        <time>2024-08-13T05:42:18Z</time>
      </trkpt>
      <trkpt lat="44.80767" lon="6.29536">
        <ele>1890.6</ele>
        <time>2024-08-13T05:42:19Z</time>
      </trkpt>
      <trkpt lat="44.80768" lon="6.29539">
        <ele>1890.6</ele>
        <time>2024-08-13T05:42:20Z</time>
      </trkpt>
      <trkpt lat="44.80768" lon="6.29539">
        <ele>1890.2</ele>
        <time>2024-08-13T05:42:21Z</time>
      </trkpt>
      <trkpt lat="44.80769" lon="6.29542">
        <ele>1890</ele>
        <time>2024-08-13T05:42:22Z</time>
      </trkpt>
      <trkpt lat="44.80769" lon="6.29542">
        <ele>1889.8</ele>
        <time>2024-08-13T05:42:23Z</time>
      </trkpt>
      <trkpt lat="44.80769" lon="6.29546">
        <ele>1889.6</ele>
        <time>2024-08-13T05:42:24Z</time>
      </trkpt>
      <trkpt lat="44.80769" lon="6.29546">
        <ele>1889.4</ele>
        <time>2024-08-13T05:42:25Z</time>
      </trkpt>
      <trkpt lat="44.80771" lon="6.29549">
        <ele>1888.8</ele>
        <time>2024-08-13T05:42:26Z</time>
      </trkpt>
      <trkpt lat="44.80771" lon="6.29549">
        <ele>1888.6</ele>
        <time>2024-08-13T05:42:27Z</time>
      </trkpt>
      <trkpt lat="44.80773" lon="6.29551">
        <ele>1888.4</ele>
        <time>2024-08-13T05:42:28Z</time>
      </trkpt>
      <trkpt lat="44.80773" lon="6.29551">
        <ele>1888.2</ele>
        <time>2024-08-13T05:42:29Z</time>
      </trkpt>
      <trkpt lat="44.80774" lon="6.29554">
        <ele>1888.2</ele>
        <time>2024-08-13T05:42:30Z</time>
      </trkpt>
      <trkpt lat="44.80774" lon="6.29554">
        <ele>1887.8</ele>
        <time>2024-08-13T05:42:31Z</time>
      </trkpt>
      <trkpt lat="44.80775" lon="6.29557">
        <ele>1887.4</ele>
        <time>2024-08-13T05:42:32Z</time>
      </trkpt>
      <trkpt lat="44.80775" lon="6.29557">
        <ele>1887.4</ele>
        <time>2024-08-13T05:42:33Z</time>
      </trkpt>
      <trkpt lat="44.80775" lon="6.2956">
        <ele>1887.2</ele>
        <time>2024-08-13T05:42:34Z</time>
      </trkpt>
      <trkpt lat="44.80775" lon="6.2956">
        <ele>1887</ele>
        <time>2024-08-13T05:42:35Z</time>
      </trkpt>
      <trkpt lat="44.80777" lon="6.29562">
        <ele>1887</ele>
        <time>2024-08-13T05:42:36Z</time>
      </trkpt>
      <trkpt lat="44.80777" lon="6.29562">
        <ele>1886.8</ele>
        <time>2024-08-13T05:42:37Z</time>
      </trkpt>
      <trkpt lat="44.80777" lon="6.29562">
        <ele>1886.2</ele>
        <time>2024-08-13T05:42:38Z</time>
      </trkpt>
      <trkpt lat="44.80778" lon="6.29559">
        <ele>1885.8</ele>
        <time>2024-08-13T05:42:39Z</time>
      </trkpt>
      <trkpt lat="44.80778" lon="6.29559">
        <ele>1885.6</ele>
        <time>2024-08-13T05:42:40Z</time>
      </trkpt>
      <trkpt lat="44.80779" lon="6.29556">
        <ele>1885.6</ele>
        <time>2024-08-13T05:42:41Z</time>
      </trkpt>
      <trkpt lat="44.80779" lon="6.29556">
        <ele>1885.4</ele>
        <time>2024-08-13T05:42:42Z</time>
      </trkpt>
      <trkpt lat="44.80779" lon="6.29553">
        <ele>1885.2</ele>
        <time>2024-08-13T05:42:43Z</time>
      </trkpt>
      <trkpt lat="44.80779" lon="6.29553">
        <ele>1884.6</ele>
        <time>2024-08-13T05:42:44Z</time>
      </trkpt>
      <trkpt lat="44.80779" lon="6.29549">
        <ele>1884.4</ele>
        <time>2024-08-13T05:42:45Z</time>
      </trkpt>
      <trkpt lat="44.80779" lon="6.29549">
        <ele>1884.4</ele>
        <time>2024-08-13T05:42:46Z</time>
      </trkpt>
      <trkpt lat="44.8078" lon="6.29546">
        <ele>1884</ele>
        <time>2024-08-13T05:42:47Z</time>
      </trkpt>
      <trkpt lat="44.8078" lon="6.29546">
        <ele>1883.8</ele>
        <time>2024-08-13T05:42:48Z</time>
      </trkpt>
      <trkpt lat="44.80781" lon="6.29542">
        <ele>1883.6</ele>
        <time>2024-08-13T05:42:49Z</time>
      </trkpt>
      <trkpt lat="44.80781" lon="6.29542">
        <ele>1883.2</ele>
        <time>2024-08-13T05:42:50Z</time>
      </trkpt>
      <trkpt lat="44.80781" lon="6.29542">
        <ele>1882.8</ele>
        <time>2024-08-13T05:42:51Z</time>
      </trkpt>
      <trkpt lat="44.80783" lon="6.29539">
        <ele>1882.6</ele>
        <time>2024-08-13T05:42:52Z</time>
      </trkpt>
      <trkpt lat="44.80783" lon="6.29539">
        <ele>1882.2</ele>
        <time>2024-08-13T05:42:53Z</time>
      </trkpt>
      <trkpt lat="44.80783" lon="6.29536">
        <ele>1882</ele>
        <time>2024-08-13T05:42:54Z</time>
      </trkpt>
      <trkpt lat="44.80783" lon="6.29536">
        <ele>1882</ele>
        <time>2024-08-13T05:42:55Z</time>
      </trkpt>
      <trkpt lat="44.80784" lon="6.29532">
        <ele>1881.8</ele>
        <time>2024-08-13T05:42:56Z</time>
      </trkpt>
      <trkpt lat="44.80784" lon="6.29532">
        <ele>1881.2</ele>
        <time>2024-08-13T05:42:57Z</time>
      </trkpt>
      <trkpt lat="44.80784" lon="6.29529">
        <ele>1881</ele>
        <time>2024-08-13T05:42:58Z</time>
      </trkpt>
      <trkpt lat="44.80784" lon="6.29529">
        <ele>1880.8</ele>
        <time>2024-08-13T05:42:59Z</time>
      </trkpt>
      <trkpt lat="44.80785" lon="6.29527">
        <ele>1880.6</ele>
        <time>2024-08-13T05:43:00Z</time>
      </trkpt>
      <trkpt lat="44.80785" lon="6.29527">
        <ele>1880.4</ele>
        <time>2024-08-13T05:43:01Z</time>
      </trkpt>
      <trkpt lat="44.80787" lon="6.29523">
        <ele>1880.4</ele>
        <time>2024-08-13T05:43:02Z</time>
      </trkpt>
      <trkpt lat="44.80787" lon="6.29523">
        <ele>1880.4</ele>
        <time>2024-08-13T05:43:03Z</time>
      </trkpt>
      <trkpt lat="44.80787" lon="6.2952">
        <ele>1880.2</ele>
        <time>2024-08-13T05:43:04Z</time>
      </trkpt>
      <trkpt lat="44.80787" lon="6.2952">
        <ele>1879.8</ele>
        <time>2024-08-13T05:43:05Z</time>
      </trkpt>
      <trkpt lat="44.80787" lon="6.29517">
        <ele>1879.4</ele>
        <time>2024-08-13T05:43:06Z</time>
      </trkpt>
      <trkpt lat="44.80787" lon="6.29517">
        <ele>1879.4</ele>
        <time>2024-08-13T05:43:07Z</time>
      </trkpt>
      <trkpt lat="44.80789" lon="6.29513">
        <ele>1879.2</ele>
        <time>2024-08-13T05:43:08Z</time>
      </trkpt>
      <trkpt lat="44.80789" lon="6.29513">
        <ele>1879.2</ele>
        <time>2024-08-13T05:43:09Z</time>
      </trkpt>
      <trkpt lat="44.8079" lon="6.29511">
        <ele>1878.8</ele>
        <time>2024-08-13T05:43:10Z</time>
      </trkpt>
      <trkpt lat="44.8079" lon="6.29511">
        <ele>1878.6</ele>
        <time>2024-08-13T05:43:11Z</time>
      </trkpt>
      <trkpt lat="44.80791" lon="6.29508">
        <ele>1878.4</ele>
        <time>2024-08-13T05:43:12Z</time>
      </trkpt>
      <trkpt lat="44.80791" lon="6.29508">
        <ele>1877.8</ele>
        <time>2024-08-13T05:43:13Z</time>
      </trkpt>
      <trkpt lat="44.80793" lon="6.29508">
        <ele>1877.8</ele>
        <time>2024-08-13T05:43:14Z</time>
      </trkpt>
      <trkpt lat="44.80793" lon="6.29508">
        <ele>1877.6</ele>
        <time>2024-08-13T05:43:15Z</time>
      </trkpt>
      <trkpt lat="44.80793" lon="6.29511">
        <ele>1877.6</ele>
        <time>2024-08-13T05:43:16Z</time>
      </trkpt>
      <trkpt lat="44.80793" lon="6.29511">
        <ele>1877.4</ele>
        <time>2024-08-13T05:43:17Z</time>
      </trkpt>
      <trkpt lat="44.80794" lon="6.29515">
        <ele>1877.2</ele>
        <time>2024-08-13T05:43:18Z</time>
      </trkpt>
      <trkpt lat="44.80794" lon="6.29515">
        <ele>1877.2</ele>
        <time>2024-08-13T05:43:19Z</time>
      </trkpt>
      <trkpt lat="44.80794" lon="6.29518">
        <ele>1876.6</ele>
        <time>2024-08-13T05:43:20Z</time>
      </trkpt>
      <trkpt lat="44.80794" lon="6.29518">
        <ele>1876.6</ele>
        <time>2024-08-13T05:43:21Z</time>
      </trkpt>
      <trkpt lat="44.80795" lon="6.29521">
        <ele>1876.2</ele>
        <time>2024-08-13T05:43:22Z</time>
      </trkpt>
      <trkpt lat="44.80795" lon="6.29521">
        <ele>1876.2</ele>
        <time>2024-08-13T05:43:23Z</time>
      </trkpt>
      <trkpt lat="44.80795" lon="6.29524">
        <ele>1875.8</ele>
        <time>2024-08-13T05:43:24Z</time>
      </trkpt>
      <trkpt lat="44.80795" lon="6.29524">
        <ele>1875.6</ele>
        <time>2024-08-13T05:43:25Z</time>
      </trkpt>
      <trkpt lat="44.80796" lon="6.29528">
        <ele>1875.4</ele>
        <time>2024-08-13T05:43:26Z</time>
      </trkpt>
      <trkpt lat="44.80796" lon="6.29528">
        <ele>1875</ele>
        <time>2024-08-13T05:43:27Z</time>
      </trkpt>
      <trkpt lat="44.80797" lon="6.29531">
        <ele>1875</ele>
        <time>2024-08-13T05:43:28Z</time>
      </trkpt>
      <trkpt lat="44.80797" lon="6.29531">
        <ele>1874.4</ele>
        <time>2024-08-13T05:43:29Z</time>
      </trkpt>
      <trkpt lat="44.80798" lon="6.29533">
        <ele>1874.2</ele>
        <time>2024-08-13T05:43:30Z</time>
      </trkpt>
      <trkpt lat="44.80798" lon="6.29533">
        <ele>1874.2</ele>
        <time>2024-08-13T05:43:31Z</time>
      </trkpt>
      <trkpt lat="44.80799" lon="6.29537">
        <ele>1874</ele>
        <time>2024-08-13T05:43:32Z</time>
      </trkpt>
      <trkpt lat="44.80799" lon="6.29537">
        <ele>1873.8</ele>
        <time>2024-08-13T05:43:33Z</time>
      </trkpt>
      <trkpt lat="44.808" lon="6.2954">
        <ele>1873.6</ele>
        <time>2024-08-13T05:43:34Z</time>
      </trkpt>
      <trkpt lat="44.808" lon="6.2954">
        <ele>1873.6</ele>
        <time>2024-08-13T05:43:35Z</time>
      </trkpt>
      <trkpt lat="44.808" lon="6.29543">
        <ele>1873.6</ele>
        <time>2024-08-13T05:43:36Z</time>
      </trkpt>
      <trkpt lat="44.808" lon="6.29543">
        <ele>1873.4</ele>
        <time>2024-08-13T05:43:37Z</time>
      </trkpt>
      <trkpt lat="44.808" lon="6.29547">
        <ele>1873</ele>
        <time>2024-08-13T05:43:38Z</time>
      </trkpt>
      <trkpt lat="44.808" lon="6.29547">
        <ele>1873</ele>
        <time>2024-08-13T05:43:39Z</time>
      </trkpt>
      <trkpt lat="44.80801" lon="6.29549">
        <ele>1872.8</ele>
        <time>2024-08-13T05:43:40Z</time>
      </trkpt>
      <trkpt lat="44.80801" lon="6.29549">
        <ele>1872.4</ele>
        <time>2024-08-13T05:43:41Z</time>
      </trkpt>
      <trkpt lat="44.80803" lon="6.29552">
        <ele>1872.2</ele>
        <time>2024-08-13T05:43:42Z</time>
      </trkpt>
      <trkpt lat="44.80803" lon="6.29552">
        <ele>1871.8</ele>
        <time>2024-08-13T05:43:43Z</time>
      </trkpt>
      <trkpt lat="44.80804" lon="6.29555">
        <ele>1871.4</ele>
        <time>2024-08-13T05:43:44Z</time>
      </trkpt>
      <trkpt lat="44.80804" lon="6.29555">
        <ele>1871</ele>
        <time>2024-08-13T05:43:45Z</time>
      </trkpt>
      <trkpt lat="44.80804" lon="6.29555">
        <ele>1871</ele>
        <time>2024-08-13T05:43:46Z</time>
      </trkpt>
      <trkpt lat="44.80804" lon="6.29555">
        <ele>1870.6</ele>
        <time>2024-08-13T05:43:47Z</time>
      </trkpt>
      <trkpt lat="44.80805" lon="6.29553">
        <ele>1870.2</ele>
        <time>2024-08-13T05:43:48Z</time>
      </trkpt>
      <trkpt lat="44.80805" lon="6.29553">
        <ele>1870.2</ele>
        <time>2024-08-13T05:43:49Z</time>
      </trkpt>
      <trkpt lat="44.80806" lon="6.2955">
        <ele>1870</ele>
        <time>2024-08-13T05:43:50Z</time>
      </trkpt>
      <trkpt lat="44.80806" lon="6.2955">
        <ele>1869.4</ele>
        <time>2024-08-13T05:43:51Z</time>
      </trkpt>
      <trkpt lat="44.80807" lon="6.29547">
        <ele>1869</ele>
        <time>2024-08-13T05:43:52Z</time>
      </trkpt>
      <trkpt lat="44.80807" lon="6.29547">
        <ele>1869</ele>
        <time>2024-08-13T05:43:53Z</time>
      </trkpt>
      <trkpt lat="44.80807" lon="6.29544">
        <ele>1868.8</ele>
        <time>2024-08-13T05:43:54Z</time>
      </trkpt>
      <trkpt lat="44.80807" lon="6.29544">
        <ele>1868.4</ele>
        <time>2024-08-13T05:43:55Z</time>
      </trkpt>
      <trkpt lat="44.80807" lon="6.29544">
        <ele>1868.4</ele>
        <time>2024-08-13T05:43:56Z</time>
      </trkpt>
      <trkpt lat="44.80807" lon="6.29541">
        <ele>1868</ele>
        <time>2024-08-13T05:43:57Z</time>
      </trkpt>
      <trkpt lat="44.80807" lon="6.29541">
        <ele>1867.8</ele>
        <time>2024-08-13T05:43:58Z</time>
      </trkpt>
      <trkpt lat="44.80809" lon="6.29537">
        <ele>1867.6</ele>
        <time>2024-08-13T05:43:59Z</time>
      </trkpt>
      <trkpt lat="44.80809" lon="6.29537">
        <ele>1867.4</ele>
        <time>2024-08-13T05:44:00Z</time>
      </trkpt>
      <trkpt lat="44.8081" lon="6.29534">
        <ele>1867.2</ele>
        <time>2024-08-13T05:44:01Z</time>
      </trkpt>
      <trkpt lat="44.8081" lon="6.29534">
        <ele>1866.8</ele>
        <time>2024-08-13T05:44:02Z</time>
      </trkpt>
      <trkpt lat="44.80811" lon="6.29531">
        <ele>1866.8</ele>
        <time>2024-08-13T05:44:03Z</time>
      </trkpt>
      <trkpt lat="44.80811" lon="6.29531">
        <ele>1866.4</ele>
        <time>2024-08-13T05:44:04Z</time>
      </trkpt>
      <trkpt lat="44.80812" lon="6.29528">
        <ele>1866.2</ele>
        <time>2024-08-13T05:44:05Z</time>
      </trkpt>
      <trkpt lat="44.80812" lon="6.29528">
        <ele>1866</ele>
        <time>2024-08-13T05:44:06Z</time>
      </trkpt>
      <trkpt lat="44.80813" lon="6.29525">
        <ele>1866</ele>
        <time>2024-08-13T05:44:07Z</time>
      </trkpt>
      <trkpt lat="44.80813" lon="6.29525">
        <ele>1865.8</ele>
        <time>2024-08-13T05:44:08Z</time>
      </trkpt>
      <trkpt lat="44.80814" lon="6.29523">
        <ele>1865.4</ele>
        <time>2024-08-13T05:44:09Z</time>
      </trkpt>
      <trkpt lat="44.80814" lon="6.29523">
        <ele>1865.2</ele>
        <time>2024-08-13T05:44:10Z</time>
      </trkpt>
      <trkpt lat="44.80814" lon="6.29523">
        <ele>1865</ele>
        <time>2024-08-13T05:44:11Z</time>
      </trkpt>
      <trkpt lat="44.80815" lon="6.29519">
        <ele>1864.6</ele>
        <time>2024-08-13T05:44:12Z</time>
      </trkpt>
      <trkpt lat="44.80815" lon="6.29519">
        <ele>1864.4</ele>
        <time>2024-08-13T05:44:13Z</time>
      </trkpt>
      <trkpt lat="44.80816" lon="6.29517">
        <ele>1864.4</ele>
        <time>2024-08-13T05:44:14Z</time>
      </trkpt>
      <trkpt lat="44.80816" lon="6.29517">
        <ele>1864.4</ele>
        <time>2024-08-13T05:44:15Z</time>
      </trkpt>
      <trkpt lat="44.80818" lon="6.29515">
        <ele>1864.2</ele>
        <time>2024-08-13T05:44:16Z</time>
      </trkpt>
      <trkpt lat="44.80818" lon="6.29515">
        <ele>1864</ele>
        <time>2024-08-13T05:44:17Z</time>
      </trkpt>
      <trkpt lat="44.80819" lon="6.29512">
        <ele>1863.6</ele>
        <time>2024-08-13T05:44:18Z</time>
      </trkpt>
      <trkpt lat="44.80819" lon="6.29512">
        <ele>1863.2</ele>
        <time>2024-08-13T05:44:19Z</time>
      </trkpt>
      <trkpt lat="44.80821" lon="6.2951">
        <ele>1863.2</ele>
        <time>2024-08-13T05:44:20Z</time>
      </trkpt>
      <trkpt lat="44.80821" lon="6.2951">
        <ele>1863</ele>
        <time>2024-08-13T05:44:21Z</time>
      </trkpt>
      <trkpt lat="44.80822" lon="6.29507">
        <ele>1862.6</ele>
        <time>2024-08-13T05:44:22Z</time>
      </trkpt>
      <trkpt lat="44.80822" lon="6.29507">
        <ele>1862.2</ele>
        <time>2024-08-13T05:44:23Z</time>
      </trkpt>
      <trkpt lat="44.80822" lon="6.29507">
        <ele>1862.2</ele>
        <time>2024-08-13T05:44:24Z</time>
      </trkpt>
      <trkpt lat="44.80823" lon="6.29504">
        <ele>1862</ele>
        <time>2024-08-13T05:44:25Z</time>
      </trkpt>
      <trkpt lat="44.80823" lon="6.29504">
        <ele>1862</ele>
        <time>2024-08-13T05:44:26Z</time>
      </trkpt>
      <trkpt lat="44.80824" lon="6.29502">
        <ele>1861.8</ele>
        <time>2024-08-13T05:44:27Z</time>
      </trkpt>
      <trkpt lat="44.80824" lon="6.29502">
        <ele>1861.4</ele>
        <time>2024-08-13T05:44:28Z</time>
      </trkpt>
      <trkpt lat="44.80825" lon="6.29499">
        <ele>1861.2</ele>
        <time>2024-08-13T05:44:29Z</time>
      </trkpt>
      <trkpt lat="44.80825" lon="6.29499">
        <ele>1861</ele>
        <time>2024-08-13T05:44:30Z</time>
      </trkpt>
      <trkpt lat="44.80827" lon="6.29496">
        <ele>1860.6</ele>
        <time>2024-08-13T05:44:31Z</time>
      </trkpt>
      <trkpt lat="44.80827" lon="6.29496">
        <ele>1860.4</ele>
        <time>2024-08-13T05:44:32Z</time>
      </trkpt>
      <trkpt lat="44.80827" lon="6.29496">
        <ele>1860.4</ele>
        <time>2024-08-13T05:44:33Z</time>
      </trkpt>
      <trkpt lat="44.80828" lon="6.29493">
        <ele>1860.2</ele>
        <time>2024-08-13T05:44:34Z</time>
      </trkpt>
      <trkpt lat="44.80828" lon="6.29493">
        <ele>1860</ele>
        <time>2024-08-13T05:44:35Z</time>
      </trkpt>
      <trkpt lat="44.80828" lon="6.29493">
        <ele>1859.8</ele>
        <time>2024-08-13T05:44:36Z</time>
      </trkpt>
      <trkpt lat="44.8083" lon="6.2949">
        <ele>1859.6</ele>
        <time>2024-08-13T05:44:37Z</time>
      </trkpt>
      <trkpt lat="44.8083" lon="6.2949">
        <ele>1859.6</ele>
        <time>2024-08-13T05:44:38Z</time>
      </trkpt>
      <trkpt lat="44.80832" lon="6.29489">
        <ele>1859.2</ele>
        <time>2024-08-13T05:44:39Z</time>
      </trkpt>
      <trkpt lat="44.80832" lon="6.29489">
        <ele>1858.8</ele>
        <time>2024-08-13T05:44:40Z</time>
      </trkpt>
      <trkpt lat="44.80832" lon="6.29489">
        <ele>1858.8</ele>
        <time>2024-08-13T05:44:41Z</time>
      </trkpt>
      <trkpt lat="44.80834" lon="6.29486">
        <ele>1858.4</ele>
        <time>2024-08-13T05:44:42Z</time>
      </trkpt>
      <trkpt lat="44.80834" lon="6.29486">
        <ele>1858</ele>
        <time>2024-08-13T05:44:43Z</time>
      </trkpt>
      <trkpt lat="44.80834" lon="6.29486">
        <ele>1858</ele>
        <time>2024-08-13T05:44:44Z</time>
      </trkpt>
      <trkpt lat="44.80836" lon="6.29484">
        <ele>1858</ele>
        <time>2024-08-13T05:44:45Z</time>
      </trkpt>
      <trkpt lat="44.80836" lon="6.29484">
        <ele>1857.6</ele>
        <time>2024-08-13T05:44:46Z</time>
      </trkpt>
      <trkpt lat="44.80837" lon="6.29481">
        <ele>1857.4</ele>
        <time>2024-08-13T05:44:47Z</time>
      </trkpt>
      <trkpt lat="44.80837" lon="6.29481">
        <ele>1857.2</ele>
        <time>2024-08-13T05:44:48Z</time>
      </trkpt>
      <trkpt lat="44.80839" lon="6.29478">
        <ele>1857</ele>
        <time>2024-08-13T05:44:49Z</time>
      </trkpt>
      <trkpt lat="44.80839" lon="6.29478">
        <ele>1856.8</ele>
        <time>2024-08-13T05:44:50Z</time>
      </trkpt>
      <trkpt lat="44.80841" lon="6.29476">
        <ele>1856.8</ele>
        <time>2024-08-13T05:44:51Z</time>
      </trkpt>
      <trkpt lat="44.80841" lon="6.29476">
        <ele>1856.6</ele>
        <time>2024-08-13T05:44:52Z</time>
      </trkpt>
      <trkpt lat="44.80841" lon="6.29476">
        <ele>1856.2</ele>
        <time>2024-08-13T05:44:53Z</time>
      </trkpt>
      <trkpt lat="44.80843" lon="6.29474">
        <ele>1856.2</ele>
        <time>2024-08-13T05:44:54Z</time>
      </trkpt>
      <trkpt lat="44.80843" lon="6.29474">
        <ele>1855.8</ele>
        <time>2024-08-13T05:44:55Z</time>
      </trkpt>
      <trkpt lat="44.80845" lon="6.29472">
        <ele>1855.8</ele>
        <time>2024-08-13T05:44:56Z</time>
      </trkpt>
      <trkpt lat="44.80845" lon="6.29472">
        <ele>1855.4</ele>
        <time>2024-08-13T05:44:57Z</time>
      </trkpt>
      <trkpt lat="44.80847" lon="6.2947">
        <ele>1855.2</ele>
        <time>2024-08-13T05:44:58Z</time>
      </trkpt>
      <trkpt lat="44.80847" lon="6.2947">
        <ele>1855.2</ele>
        <time>2024-08-13T05:44:59Z</time>
      </trkpt>
      <trkpt lat="44.8085" lon="6.29469">
        <ele>1854.8</ele>
        <time>2024-08-13T05:45:00Z</time>
      </trkpt>
      <trkpt lat="44.8085" lon="6.29469">
        <ele>1854.8</ele>
        <time>2024-08-13T05:45:01Z</time>
      </trkpt>
      <trkpt lat="44.80852" lon="6.29468">
        <ele>1854.8</ele>
        <time>2024-08-13T05:45:02Z</time>
      </trkpt>
      <trkpt lat="44.80852" lon="6.29468">
        <ele>1854.8</ele>
        <time>2024-08-13T05:45:03Z</time>
      </trkpt>
      <trkpt lat="44.80852" lon="6.29468">
        <ele>1854.4</ele>
        <time>2024-08-13T05:45:04Z</time>
      </trkpt>
      <trkpt lat="44.80852" lon="6.29468">
        <ele>1854.4</ele>
        <time>2024-08-13T05:45:05Z</time>
      </trkpt>
      <trkpt lat="44.80852" lon="6.29468">
        <ele>1854.4</ele>
        <time>2024-08-13T05:45:06Z</time>
      </trkpt>
      <trkpt lat="44.80852" lon="6.29468">
        <ele>1854.4</ele>
        <time>2024-08-13T05:45:07Z</time>
      </trkpt>
      <trkpt lat="44.80854" lon="6.29467">
        <ele>1854.4</ele>
        <time>2024-08-13T05:45:08Z</time>
      </trkpt>
      <trkpt lat="44.80854" lon="6.29467">
        <ele>1854.2</ele>
        <time>2024-08-13T05:45:09Z</time>
      </trkpt>
      <trkpt lat="44.80854" lon="6.29467">
        <ele>1853.8</ele>
        <time>2024-08-13T05:45:10Z</time>
      </trkpt>
      <trkpt lat="44.80856" lon="6.29467">
        <ele>1853.4</ele>
        <time>2024-08-13T05:45:11Z</time>
      </trkpt>
      <trkpt lat="44.80856" lon="6.29467">
        <ele>1853</ele>
        <time>2024-08-13T05:45:12Z</time>
      </trkpt>
      <trkpt lat="44.80856" lon="6.29467">
        <ele>1853</ele>
        <time>2024-08-13T05:45:13Z</time>
      </trkpt>
      <trkpt lat="44.80857" lon="6.2947">
        <ele>1853</ele>
        <time>2024-08-13T05:45:14Z</time>
      </trkpt>
      <trkpt lat="44.80857" lon="6.2947">
        <ele>1852.4</ele>
        <time>2024-08-13T05:45:15Z</time>
      </trkpt>
      <trkpt lat="44.80857" lon="6.2947">
        <ele>1852.4</ele>
        <time>2024-08-13T05:45:16Z</time>
      </trkpt>
      <trkpt lat="44.80856" lon="6.29474">
        <ele>1852</ele>
        <time>2024-08-13T05:45:17Z</time>
      </trkpt>
      <trkpt lat="44.80856" lon="6.29474">
        <ele>1851.6</ele>
        <time>2024-08-13T05:45:18Z</time>
      </trkpt>
      <trkpt lat="44.80856" lon="6.29477">
        <ele>1851.4</ele>
        <time>2024-08-13T05:45:19Z</time>
      </trkpt>
      <trkpt lat="44.80856" lon="6.29477">
        <ele>1851.2</ele>
        <time>2024-08-13T05:45:20Z</time>
      </trkpt>
      <trkpt lat="44.80854" lon="6.29479">
        <ele>1851.2</ele>
        <time>2024-08-13T05:45:21Z</time>
      </trkpt>
      <trkpt lat="44.80854" lon="6.29479">
        <ele>1851.2</ele>
        <time>2024-08-13T05:45:22Z</time>
      </trkpt>
      <trkpt lat="44.80853" lon="6.29482">
        <ele>1851</ele>
        <time>2024-08-13T05:45:23Z</time>
      </trkpt>
      <trkpt lat="44.80853" lon="6.29482">
        <ele>1850.6</ele>
        <time>2024-08-13T05:45:24Z</time>
      </trkpt>
      <trkpt lat="44.80853" lon="6.29485">
        <ele>1850.4</ele>
        <time>2024-08-13T05:45:25Z</time>
      </trkpt>
      <trkpt lat="44.80853" lon="6.29485">
        <ele>1850.2</ele>
        <time>2024-08-13T05:45:26Z</time>
      </trkpt>
      <trkpt lat="44.80853" lon="6.29488">
        <ele>1850.2</ele>
        <time>2024-08-13T05:45:27Z</time>
      </trkpt>
      <trkpt lat="44.80853" lon="6.29488">
        <ele>1849.8</ele>
        <time>2024-08-13T05:45:28Z</time>
      </trkpt>
      <trkpt lat="44.80854" lon="6.29491">
        <ele>1849.6</ele>
        <time>2024-08-13T05:45:29Z</time>
      </trkpt>
      <trkpt lat="44.80854" lon="6.29491">
        <ele>1849.4</ele>
        <time>2024-08-13T05:45:30Z</time>
      </trkpt>
      <trkpt lat="44.80855" lon="6.29493">
        <ele>1849.2</ele>
        <time>2024-08-13T05:45:31Z</time>
      </trkpt>
      <trkpt lat="44.80855" lon="6.29493">
        <ele>1849.2</ele>
        <time>2024-08-13T05:45:32Z</time>
      </trkpt>
      <trkpt lat="44.80855" lon="6.29496">
        <ele>1849.2</ele>
        <time>2024-08-13T05:45:33Z</time>
      </trkpt>
      <trkpt lat="44.80855" lon="6.29496">
        <ele>1848.8</ele>
        <time>2024-08-13T05:45:34Z</time>
      </trkpt>
      <trkpt lat="44.80855" lon="6.29496">
        <ele>1848.6</ele>
        <time>2024-08-13T05:45:35Z</time>
      </trkpt>
      <trkpt lat="44.80856" lon="6.295">
        <ele>1848.6</ele>
        <time>2024-08-13T05:45:36Z</time>
      </trkpt>
      <trkpt lat="44.80856" lon="6.295">
        <ele>1848.4</ele>
        <time>2024-08-13T05:45:37Z</time>
      </trkpt>
      <trkpt lat="44.80856" lon="6.29504">
        <ele>1848.4</ele>
        <time>2024-08-13T05:45:38Z</time>
      </trkpt>
      <trkpt lat="44.80856" lon="6.29504">
        <ele>1847.8</ele>
        <time>2024-08-13T05:45:39Z</time>
      </trkpt>
      <trkpt lat="44.80855" lon="6.29507">
        <ele>1847.4</ele>
        <time>2024-08-13T05:45:40Z</time>
      </trkpt>
      <trkpt lat="44.80855" lon="6.29507">
        <ele>1847.4</ele>
        <time>2024-08-13T05:45:41Z</time>
      </trkpt>
      <trkpt lat="44.80855" lon="6.2951">
        <ele>1847.2</ele>
        <time>2024-08-13T05:45:42Z</time>
      </trkpt>
      <trkpt lat="44.80855" lon="6.2951">
        <ele>1846.8</ele>
        <time>2024-08-13T05:45:43Z</time>
      </trkpt>
      <trkpt lat="44.80856" lon="6.29513">
        <ele>1846.6</ele>
        <time>2024-08-13T05:45:44Z</time>
      </trkpt>
      <trkpt lat="44.80856" lon="6.29513">
        <ele>1846.4</ele>
        <time>2024-08-13T05:45:45Z</time>
      </trkpt>
      <trkpt lat="44.80856" lon="6.29516">
        <ele>1846.4</ele>
        <time>2024-08-13T05:45:46Z</time>
      </trkpt>
      <trkpt lat="44.80856" lon="6.29516">
        <ele>1846.4</ele>
        <time>2024-08-13T05:45:47Z</time>
      </trkpt>
      <trkpt lat="44.80856" lon="6.29518">
        <ele>1846.2</ele>
        <time>2024-08-13T05:45:48Z</time>
      </trkpt>
      <trkpt lat="44.80856" lon="6.29518">
        <ele>1846</ele>
        <time>2024-08-13T05:45:49Z</time>
      </trkpt>
      <trkpt lat="44.80857" lon="6.29521">
        <ele>1845.6</ele>
        <time>2024-08-13T05:45:50Z</time>
      </trkpt>
      <trkpt lat="44.80857" lon="6.29521">
        <ele>1845.6</ele>
        <time>2024-08-13T05:45:51Z</time>
      </trkpt>
      <trkpt lat="44.80857" lon="6.29521">
        <ele>1845.2</ele>
        <time>2024-08-13T05:45:52Z</time>
      </trkpt>
      <trkpt lat="44.80857" lon="6.29525">
        <ele>1845.2</ele>
        <time>2024-08-13T05:45:53Z</time>
      </trkpt>
      <trkpt lat="44.80857" lon="6.29525">
        <ele>1845.2</ele>
        <time>2024-08-13T05:45:54Z</time>
      </trkpt>
      <trkpt lat="44.80858" lon="6.29527">
        <ele>1844.6</ele>
        <time>2024-08-13T05:45:55Z</time>
      </trkpt>
      <trkpt lat="44.80858" lon="6.29527">
        <ele>1844.4</ele>
        <time>2024-08-13T05:45:56Z</time>
      </trkpt>
      <trkpt lat="44.80858" lon="6.2953">
        <ele>1844</ele>
        <time>2024-08-13T05:45:57Z</time>
      </trkpt>
      <trkpt lat="44.80858" lon="6.2953">
        <ele>1843.8</ele>
        <time>2024-08-13T05:45:58Z</time>
      </trkpt>
      <trkpt lat="44.80859" lon="6.29534">
        <ele>1843.2</ele>
        <time>2024-08-13T05:45:59Z</time>
      </trkpt>
      <trkpt lat="44.80859" lon="6.29534">
        <ele>1843.2</ele>
        <time>2024-08-13T05:46:00Z</time>
      </trkpt>
      <trkpt lat="44.80861" lon="6.29536">
        <ele>1843.2</ele>
        <time>2024-08-13T05:46:01Z</time>
      </trkpt>
      <trkpt lat="44.80861" lon="6.29536">
        <ele>1843</ele>
        <time>2024-08-13T05:46:02Z</time>
      </trkpt>
      <trkpt lat="44.80861" lon="6.29539">
        <ele>1843</ele>
        <time>2024-08-13T05:46:03Z</time>
      </trkpt>
      <trkpt lat="44.80861" lon="6.29539">
        <ele>1842.6</ele>
        <time>2024-08-13T05:46:04Z</time>
      </trkpt>
      <trkpt lat="44.80862" lon="6.29542">
        <ele>1842.2</ele>
        <time>2024-08-13T05:46:05Z</time>
      </trkpt>
      <trkpt lat="44.80862" lon="6.29542">
        <ele>1842</ele>
        <time>2024-08-13T05:46:06Z</time>
      </trkpt>
      <trkpt lat="44.80861" lon="6.29545">
        <ele>1842</ele>
        <time>2024-08-13T05:46:07Z</time>
      </trkpt>
      <trkpt lat="44.80861" lon="6.29545">
        <ele>1841.6</ele>
        <time>2024-08-13T05:46:08Z</time>
      </trkpt>
      <trkpt lat="44.80861" lon="6.29545">
        <ele>1841.4</ele>
        <time>2024-08-13T05:46:09Z</time>
      </trkpt>
      <trkpt lat="44.80861" lon="6.29548">
        <ele>1841.4</ele>
        <time>2024-08-13T05:46:10Z</time>
      </trkpt>
      <trkpt lat="44.80861" lon="6.29548">
        <ele>1841.2</ele>
        <time>2024-08-13T05:46:11Z</time>
      </trkpt>
      <trkpt lat="44.80861" lon="6.29548">
        <ele>1840.8</ele>
        <time>2024-08-13T05:46:12Z</time>
      </trkpt>
      <trkpt lat="44.80862" lon="6.29552">
        <ele>1840.4</ele>
        <time>2024-08-13T05:46:13Z</time>
      </trkpt>
      <trkpt lat="44.80862" lon="6.29552">
        <ele>1840.2</ele>
        <time>2024-08-13T05:46:14Z</time>
      </trkpt>
      <trkpt lat="44.80862" lon="6.29555">
        <ele>1839.8</ele>
        <time>2024-08-13T05:46:15Z</time>
      </trkpt>
      <trkpt lat="44.80862" lon="6.29555">
        <ele>1839.4</ele>
        <time>2024-08-13T05:46:16Z</time>
      </trkpt>
      <trkpt lat="44.80863" lon="6.29558">
        <ele>1839.4</ele>
        <time>2024-08-13T05:46:17Z</time>
      </trkpt>
      <trkpt lat="44.80863" lon="6.29558">
        <ele>1839.2</ele>
        <time>2024-08-13T05:46:18Z</time>
      </trkpt>
      <trkpt lat="44.80863" lon="6.29561">
        <ele>1839</ele>
        <time>2024-08-13T05:46:19Z</time>
      </trkpt>
      <trkpt lat="44.80863" lon="6.29561">
        <ele>1838.8</ele>
        <time>2024-08-13T05:46:20Z</time>
      </trkpt>
      <trkpt lat="44.80863" lon="6.29564">
        <ele>1838.8</ele>
        <time>2024-08-13T05:46:21Z</time>
      </trkpt>
      <trkpt lat="44.80863" lon="6.29564">
        <ele>1838.6</ele>
        <time>2024-08-13T05:46:22Z</time>
      </trkpt>
      <trkpt lat="44.80862" lon="6.29567">
        <ele>1838.2</ele>
        <time>2024-08-13T05:46:23Z</time>
      </trkpt>
      <trkpt lat="44.80862" lon="6.29567">
        <ele>1838</ele>
        <time>2024-08-13T05:46:24Z</time>
      </trkpt>
      <trkpt lat="44.80862" lon="6.29567">
        <ele>1837.6</ele>
        <time>2024-08-13T05:46:25Z</time>
      </trkpt>
      <trkpt lat="44.80862" lon="6.2957">
        <ele>1837.4</ele>
        <time>2024-08-13T05:46:26Z</time>
      </trkpt>
      <trkpt lat="44.80862" lon="6.2957">
        <ele>1837.2</ele>
        <time>2024-08-13T05:46:27Z</time>
      </trkpt>
      <trkpt lat="44.80862" lon="6.2957">
        <ele>1836.8</ele>
        <time>2024-08-13T05:46:28Z</time>
      </trkpt>
      <trkpt lat="44.80864" lon="6.2957">
        <ele>1836.6</ele>
        <time>2024-08-13T05:46:29Z</time>
      </trkpt>
      <trkpt lat="44.80864" lon="6.2957">
        <ele>1836</ele>
        <time>2024-08-13T05:46:30Z</time>
      </trkpt>
      <trkpt lat="44.80866" lon="6.29568">
        <ele>1836</ele>
        <time>2024-08-13T05:46:31Z</time>
      </trkpt>
      <trkpt lat="44.80866" lon="6.29568">
        <ele>1835.8</ele>
        <time>2024-08-13T05:46:32Z</time>
      </trkpt>
      <trkpt lat="44.80868" lon="6.29566">
        <ele>1835.4</ele>
        <time>2024-08-13T05:46:33Z</time>
      </trkpt>
      <trkpt lat="44.80868" lon="6.29566">
        <ele>1835.2</ele>
        <time>2024-08-13T05:46:34Z</time>
      </trkpt>
      <trkpt lat="44.80869" lon="6.29565">
        <ele>1835</ele>
        <time>2024-08-13T05:46:35Z</time>
      </trkpt>
      <trkpt lat="44.80869" lon="6.29565">
        <ele>1834.8</ele>
        <time>2024-08-13T05:46:36Z</time>
      </trkpt>
      <trkpt lat="44.80869" lon="6.29565">
        <ele>1834.4</ele>
        <time>2024-08-13T05:46:37Z</time>
      </trkpt>
      <trkpt lat="44.80871" lon="6.29562">
        <ele>1834</ele>
        <time>2024-08-13T05:46:38Z</time>
      </trkpt>
      <trkpt lat="44.80871" lon="6.29562">
        <ele>1833.6</ele>
        <time>2024-08-13T05:46:39Z</time>
      </trkpt>
      <trkpt lat="44.80874" lon="6.2956">
        <ele>1833.6</ele>
        <time>2024-08-13T05:46:40Z</time>
      </trkpt>
      <trkpt lat="44.80874" lon="6.2956">
        <ele>1833.2</ele>
        <time>2024-08-13T05:46:41Z</time>
      </trkpt>
      <trkpt lat="44.80874" lon="6.2956">
        <ele>1832.8</ele>
        <time>2024-08-13T05:46:42Z</time>
      </trkpt>
      <trkpt lat="44.80876" lon="6.29558">
        <ele>1832.8</ele>
        <time>2024-08-13T05:46:43Z</time>
      </trkpt>
      <trkpt lat="44.80876" lon="6.29558">
        <ele>1832.6</ele>
        <time>2024-08-13T05:46:44Z</time>
      </trkpt>
      <trkpt lat="44.80878" lon="6.29557">
        <ele>1832.2</ele>
        <time>2024-08-13T05:46:45Z</time>
      </trkpt>
      <trkpt lat="44.80878" lon="6.29557">
        <ele>1832.2</ele>
        <time>2024-08-13T05:46:46Z</time>
      </trkpt>
      <trkpt lat="44.8088" lon="6.29556">
        <ele>1832</ele>
        <time>2024-08-13T05:46:47Z</time>
      </trkpt>
      <trkpt lat="44.8088" lon="6.29556">
        <ele>1831.6</ele>
        <time>2024-08-13T05:46:48Z</time>
      </trkpt>
      <trkpt lat="44.8088" lon="6.29556">
        <ele>1831.2</ele>
        <time>2024-08-13T05:46:49Z</time>
      </trkpt>
      <trkpt lat="44.80882" lon="6.29554">
        <ele>1831.2</ele>
        <time>2024-08-13T05:46:50Z</time>
      </trkpt>
      <trkpt lat="44.80882" lon="6.29554">
        <ele>1831</ele>
        <time>2024-08-13T05:46:51Z</time>
      </trkpt>
      <trkpt lat="44.80882" lon="6.29554">
        <ele>1830.8</ele>
        <time>2024-08-13T05:46:52Z</time>
      </trkpt>
      <trkpt lat="44.80884" lon="6.29552">
        <ele>1830.4</ele>
        <time>2024-08-13T05:46:53Z</time>
      </trkpt>
      <trkpt lat="44.80884" lon="6.29552">
        <ele>1830.2</ele>
        <time>2024-08-13T05:46:54Z</time>
      </trkpt>
      <trkpt lat="44.80885" lon="6.2955">
        <ele>1830</ele>
        <time>2024-08-13T05:46:55Z</time>
      </trkpt>
      <trkpt lat="44.80885" lon="6.2955">
        <ele>1829.6</ele>
        <time>2024-08-13T05:46:56Z</time>
      </trkpt>
      <trkpt lat="44.80886" lon="6.29547">
        <ele>1829.4</ele>
        <time>2024-08-13T05:46:57Z</time>
      </trkpt>
      <trkpt lat="44.80886" lon="6.29547">
        <ele>1829.4</ele>
        <time>2024-08-13T05:46:58Z</time>
      </trkpt>
      <trkpt lat="44.80888" lon="6.29544">
        <ele>1829.2</ele>
        <time>2024-08-13T05:46:59Z</time>
      </trkpt>
      <trkpt lat="44.80888" lon="6.29544">
        <ele>1828.8</ele>
        <time>2024-08-13T05:47:00Z</time>
      </trkpt>
      <trkpt lat="44.8089" lon="6.29542">
        <ele>1828.4</ele>
        <time>2024-08-13T05:47:01Z</time>
      </trkpt>
      <trkpt lat="44.8089" lon="6.29542">
        <ele>1828.4</ele>
        <time>2024-08-13T05:47:02Z</time>
      </trkpt>
      <trkpt lat="44.8089" lon="6.29542">
        <ele>1828.4</ele>
        <time>2024-08-13T05:47:03Z</time>
      </trkpt>
      <trkpt lat="44.80891" lon="6.29539">
        <ele>1828.2</ele>
        <time>2024-08-13T05:47:04Z</time>
      </trkpt>
      <trkpt lat="44.80891" lon="6.29539">
        <ele>1828.2</ele>
        <time>2024-08-13T05:47:05Z</time>
      </trkpt>
      <trkpt lat="44.80892" lon="6.29537">
        <ele>1828</ele>
        <time>2024-08-13T05:47:06Z</time>
      </trkpt>
      <trkpt lat="44.80892" lon="6.29537">
        <ele>1827.8</ele>
        <time>2024-08-13T05:47:07Z</time>
      </trkpt>
      <trkpt lat="44.80892" lon="6.29537">
        <ele>1827.8</ele>
        <time>2024-08-13T05:47:08Z</time>
      </trkpt>
      <trkpt lat="44.80895" lon="6.29534">
        <ele>1827.6</ele>
        <time>2024-08-13T05:47:09Z</time>
      </trkpt>
      <trkpt lat="44.80895" lon="6.29534">
        <ele>1827.4</ele>
        <time>2024-08-13T05:47:10Z</time>
      </trkpt>
      <trkpt lat="44.80897" lon="6.29532">
        <ele>1827</ele>
        <time>2024-08-13T05:47:11Z</time>
      </trkpt>
      <trkpt lat="44.80897" lon="6.29532">
        <ele>1827</ele>
        <time>2024-08-13T05:47:12Z</time>
      </trkpt>
      <trkpt lat="44.80899" lon="6.29531">
        <ele>1826.8</ele>
        <time>2024-08-13T05:47:13Z</time>
      </trkpt>
      <trkpt lat="44.80899" lon="6.29531">
        <ele>1826.6</ele>
        <time>2024-08-13T05:47:14Z</time>
      </trkpt>
      <trkpt lat="44.80901" lon="6.29531">
        <ele>1826.4</ele>
        <time>2024-08-13T05:47:15Z</time>
      </trkpt>
      <trkpt lat="44.80901" lon="6.29531">
        <ele>1826.2</ele>
        <time>2024-08-13T05:47:16Z</time>
      </trkpt>
      <trkpt lat="44.80903" lon="6.2953">
        <ele>1826.2</ele>
        <time>2024-08-13T05:47:17Z</time>
      </trkpt>
      <trkpt lat="44.80903" lon="6.2953">
        <ele>1825.8</ele>
        <time>2024-08-13T05:47:18Z</time>
      </trkpt>
      <trkpt lat="44.80903" lon="6.2953">
        <ele>1825.6</ele>
        <time>2024-08-13T05:47:19Z</time>
      </trkpt>
      <trkpt lat="44.80906" lon="6.29528">
        <ele>1825.4</ele>
        <time>2024-08-13T05:47:20Z</time>
      </trkpt>
      <trkpt lat="44.80906" lon="6.29528">
        <ele>1825.2</ele>
        <time>2024-08-13T05:47:21Z</time>
      </trkpt>
      <trkpt lat="44.80908" lon="6.29527">
        <ele>1825.2</ele>
        <time>2024-08-13T05:47:22Z</time>
      </trkpt>
      <trkpt lat="44.80908" lon="6.29527">
        <ele>1825</ele>
        <time>2024-08-13T05:47:23Z</time>
      </trkpt>
      <trkpt lat="44.8091" lon="6.29526">
        <ele>1824.8</ele>
        <time>2024-08-13T05:47:24Z</time>
      </trkpt>
      <trkpt lat="44.8091" lon="6.29526">
        <ele>1824.6</ele>
        <time>2024-08-13T05:47:25Z</time>
      </trkpt>
      <trkpt lat="44.80912" lon="6.29527">
        <ele>1824.6</ele>
        <time>2024-08-13T05:47:26Z</time>
      </trkpt>
      <trkpt lat="44.80912" lon="6.29527">
        <ele>1824.6</ele>
        <time>2024-08-13T05:47:27Z</time>
      </trkpt>
      <trkpt lat="44.80914" lon="6.29527">
        <ele>1824.6</ele>
        <time>2024-08-13T05:47:28Z</time>
      </trkpt>
      <trkpt lat="44.80914" lon="6.29527">
        <ele>1824.2</ele>
        <time>2024-08-13T05:47:29Z</time>
      </trkpt>
      <trkpt lat="44.80915" lon="6.29524">
        <ele>1824</ele>
        <time>2024-08-13T05:47:30Z</time>
      </trkpt>
      <trkpt lat="44.80915" lon="6.29524">
        <ele>1823.8</ele>
        <time>2024-08-13T05:47:31Z</time>
      </trkpt>
      <trkpt lat="44.80917" lon="6.29522">
        <ele>1823.6</ele>
        <time>2024-08-13T05:47:32Z</time>
      </trkpt>
      <trkpt lat="44.80917" lon="6.29522">
        <ele>1823.2</ele>
        <time>2024-08-13T05:47:33Z</time>
      </trkpt>
      <trkpt lat="44.80917" lon="6.29522">
        <ele>1823</ele>
        <time>2024-08-13T05:47:34Z</time>
      </trkpt>
      <trkpt lat="44.8092" lon="6.29521">
        <ele>1822.8</ele>
        <time>2024-08-13T05:47:35Z</time>
      </trkpt>
      <trkpt lat="44.8092" lon="6.29521">
        <ele>1822.6</ele>
        <time>2024-08-13T05:47:36Z</time>
      </trkpt>
      <trkpt lat="44.80922" lon="6.29519">
        <ele>1822.4</ele>
        <time>2024-08-13T05:47:37Z</time>
      </trkpt>
      <trkpt lat="44.80922" lon="6.29519">
        <ele>1822</ele>
        <time>2024-08-13T05:47:38Z</time>
      </trkpt>
      <trkpt lat="44.80924" lon="6.29519">
        <ele>1821.6</ele>
        <time>2024-08-13T05:47:39Z</time>
      </trkpt>
      <trkpt lat="44.80924" lon="6.29519">
        <ele>1821.6</ele>
        <time>2024-08-13T05:47:40Z</time>
      </trkpt>
      <trkpt lat="44.80926" lon="6.29519">
        <ele>1821.4</ele>
        <time>2024-08-13T05:47:41Z</time>
      </trkpt>
      <trkpt lat="44.80926" lon="6.29519">
        <ele>1821.4</ele>
        <time>2024-08-13T05:47:42Z</time>
      </trkpt>
      <trkpt lat="44.80926" lon="6.29519">
        <ele>1821.2</ele>
        <time>2024-08-13T05:47:43Z</time>
      </trkpt>
      <trkpt lat="44.80928" lon="6.29518">
        <ele>1821</ele>
        <time>2024-08-13T05:47:44Z</time>
      </trkpt>
      <trkpt lat="44.80928" lon="6.29518">
        <ele>1821</ele>
        <time>2024-08-13T05:47:45Z</time>
      </trkpt>
      <trkpt lat="44.8093" lon="6.29518">
        <ele>1820.4</ele>
        <time>2024-08-13T05:47:46Z</time>
      </trkpt>
      <trkpt lat="44.8093" lon="6.29518">
        <ele>1820.2</ele>
        <time>2024-08-13T05:47:47Z</time>
      </trkpt>
      <trkpt lat="44.80932" lon="6.29518">
        <ele>1819.8</ele>
        <time>2024-08-13T05:47:48Z</time>
      </trkpt>
      <trkpt lat="44.80932" lon="6.29518">
        <ele>1819.6</ele>
        <time>2024-08-13T05:47:49Z</time>
      </trkpt>
      <trkpt lat="44.80934" lon="6.29517">
        <ele>1819.6</ele>
        <time>2024-08-13T05:47:50Z</time>
      </trkpt>
      <trkpt lat="44.80934" lon="6.29517">
        <ele>1819.4</ele>
        <time>2024-08-13T05:47:51Z</time>
      </trkpt>
      <trkpt lat="44.80936" lon="6.29519">
        <ele>1819.2</ele>
        <time>2024-08-13T05:47:52Z</time>
      </trkpt>
      <trkpt lat="44.80936" lon="6.29519">
        <ele>1818.8</ele>
        <time>2024-08-13T05:47:53Z</time>
      </trkpt>
      <trkpt lat="44.80935" lon="6.29522">
        <ele>1818.2</ele>
        <time>2024-08-13T05:47:54Z</time>
      </trkpt>
      <trkpt lat="44.80935" lon="6.29522">
        <ele>1818.2</ele>
        <time>2024-08-13T05:47:55Z</time>
      </trkpt>
      <trkpt lat="44.80934" lon="6.29524">
        <ele>1818.2</ele>
        <time>2024-08-13T05:47:56Z</time>
      </trkpt>
      <trkpt lat="44.80934" lon="6.29524">
        <ele>1817.8</ele>
        <time>2024-08-13T05:47:57Z</time>
      </trkpt>
      <trkpt lat="44.80933" lon="6.29526">
        <ele>1817.6</ele>
        <time>2024-08-13T05:47:58Z</time>
      </trkpt>
      <trkpt lat="44.80933" lon="6.29526">
        <ele>1817.2</ele>
        <time>2024-08-13T05:47:59Z</time>
      </trkpt>
      <trkpt lat="44.80932" lon="6.29529">
        <ele>1817</ele>
        <time>2024-08-13T05:48:00Z</time>
      </trkpt>
      <trkpt lat="44.80932" lon="6.29529">
        <ele>1816.4</ele>
        <time>2024-08-13T05:48:01Z</time>
      </trkpt>
      <trkpt lat="44.80932" lon="6.29529">
        <ele>1815.8</ele>
        <time>2024-08-13T05:48:02Z</time>
      </trkpt>
      <trkpt lat="44.80933" lon="6.29531">
        <ele>1815.8</ele>
        <time>2024-08-13T05:48:03Z</time>
      </trkpt>
      <trkpt lat="44.80933" lon="6.29531">
        <ele>1815.8</ele>
        <time>2024-08-13T05:48:04Z</time>
      </trkpt>
      <trkpt lat="44.80935" lon="6.29533">
        <ele>1815.6</ele>
        <time>2024-08-13T05:48:05Z</time>
      </trkpt>
      <trkpt lat="44.80935" lon="6.29533">
        <ele>1815.2</ele>
        <time>2024-08-13T05:48:06Z</time>
      </trkpt>
      <trkpt lat="44.80937" lon="6.29532">
        <ele>1815.2</ele>
        <time>2024-08-13T05:48:07Z</time>
      </trkpt>
      <trkpt lat="44.80937" lon="6.29532">
        <ele>1814.8</ele>
        <time>2024-08-13T05:48:08Z</time>
      </trkpt>
      <trkpt lat="44.80939" lon="6.29533">
        <ele>1814.6</ele>
        <time>2024-08-13T05:48:09Z</time>
      </trkpt>
      <trkpt lat="44.80939" lon="6.29533">
        <ele>1814.4</ele>
        <time>2024-08-13T05:48:10Z</time>
      </trkpt>
      <trkpt lat="44.80941" lon="6.29533">
        <ele>1814</ele>
        <time>2024-08-13T05:48:11Z</time>
      </trkpt>
      <trkpt lat="44.80941" lon="6.29533">
        <ele>1813.8</ele>
        <time>2024-08-13T05:48:12Z</time>
      </trkpt>
      <trkpt lat="44.80942" lon="6.29535">
        <ele>1813.6</ele>
        <time>2024-08-13T05:48:13Z</time>
      </trkpt>
      <trkpt lat="44.80942" lon="6.29535">
        <ele>1813.4</ele>
        <time>2024-08-13T05:48:14Z</time>
      </trkpt>
      <trkpt lat="44.80941" lon="6.29538">
        <ele>1812.8</ele>
        <time>2024-08-13T05:48:15Z</time>
      </trkpt>
      <trkpt lat="44.80941" lon="6.29538">
        <ele>1812.6</ele>
        <time>2024-08-13T05:48:16Z</time>
      </trkpt>
      <trkpt lat="44.80941" lon="6.29541">
        <ele>1812</ele>
        <time>2024-08-13T05:48:17Z</time>
      </trkpt>
      <trkpt lat="44.80941" lon="6.29541">
        <ele>1811.6</ele>
        <time>2024-08-13T05:48:18Z</time>
      </trkpt>
      <trkpt lat="44.80941" lon="6.29541">
        <ele>1811.4</ele>
        <time>2024-08-13T05:48:19Z</time>
      </trkpt>
      <trkpt lat="44.80939" lon="6.29543">
        <ele>1811.2</ele>
        <time>2024-08-13T05:48:20Z</time>
      </trkpt>
      <trkpt lat="44.80939" lon="6.29543">
        <ele>1811</ele>
        <time>2024-08-13T05:48:21Z</time>
      </trkpt>
      <trkpt lat="44.80939" lon="6.29543">
        <ele>1811</ele>
        <time>2024-08-13T05:48:22Z</time>
      </trkpt>
      <trkpt lat="44.80939" lon="6.29545">
        <ele>1811</ele>
        <time>2024-08-13T05:48:23Z</time>
      </trkpt>
      <trkpt lat="44.80939" lon="6.29545">
        <ele>1810.6</ele>
        <time>2024-08-13T05:48:24Z</time>
      </trkpt>
      <trkpt lat="44.80938" lon="6.29548">
        <ele>1810.4</ele>
        <time>2024-08-13T05:48:25Z</time>
      </trkpt>
      <trkpt lat="44.80938" lon="6.29548">
        <ele>1810.2</ele>
        <time>2024-08-13T05:48:26Z</time>
      </trkpt>
      <trkpt lat="44.80938" lon="6.29548">
        <ele>1810</ele>
        <time>2024-08-13T05:48:27Z</time>
      </trkpt>
      <trkpt lat="44.80937" lon="6.29551">
        <ele>1809.6</ele>
        <time>2024-08-13T05:48:28Z</time>
      </trkpt>
      <trkpt lat="44.80937" lon="6.29551">
        <ele>1809.6</ele>
        <time>2024-08-13T05:48:29Z</time>
      </trkpt>
      <trkpt lat="44.80937" lon="6.29551">
        <ele>1809.4</ele>
        <time>2024-08-13T05:48:30Z</time>
      </trkpt>
      <trkpt lat="44.80938" lon="6.29553">
        <ele>1809</ele>
        <time>2024-08-13T05:48:31Z</time>
      </trkpt>
      <trkpt lat="44.80938" lon="6.29553">
        <ele>1808.8</ele>
        <time>2024-08-13T05:48:32Z</time>
      </trkpt>
      <trkpt lat="44.80939" lon="6.29556">
        <ele>1808.6</ele>
        <time>2024-08-13T05:48:33Z</time>
      </trkpt>
      <trkpt lat="44.80939" lon="6.29556">
        <ele>1808.6</ele>
        <time>2024-08-13T05:48:34Z</time>
      </trkpt>
      <trkpt lat="44.80939" lon="6.29556">
        <ele>1808.6</ele>
        <time>2024-08-13T05:48:35Z</time>
      </trkpt>
      <trkpt lat="44.8094" lon="6.29559">
        <ele>1808.2</ele>
        <time>2024-08-13T05:48:36Z</time>
      </trkpt>
      <trkpt lat="44.8094" lon="6.29559">
        <ele>1807.6</ele>
        <time>2024-08-13T05:48:37Z</time>
      </trkpt>
      <trkpt lat="44.80939" lon="6.29563">
        <ele>1807.4</ele>
        <time>2024-08-13T05:48:38Z</time>
      </trkpt>
      <trkpt lat="44.80939" lon="6.29563">
        <ele>1807</ele>
        <time>2024-08-13T05:48:39Z</time>
      </trkpt>
      <trkpt lat="44.80938" lon="6.29566">
        <ele>1806.8</ele>
        <time>2024-08-13T05:48:40Z</time>
      </trkpt>
      <trkpt lat="44.80938" lon="6.29566">
        <ele>1806.4</ele>
        <time>2024-08-13T05:48:41Z</time>
      </trkpt>
      <trkpt lat="44.80936" lon="6.29569">
        <ele>1806</ele>
        <time>2024-08-13T05:48:42Z</time>
      </trkpt>
      <trkpt lat="44.80936" lon="6.29569">
        <ele>1806</ele>
        <time>2024-08-13T05:48:43Z</time>
      </trkpt>
      <trkpt lat="44.80935" lon="6.29571">
        <ele>1805.8</ele>
        <time>2024-08-13T05:48:44Z</time>
      </trkpt>
      <trkpt lat="44.80935" lon="6.29571">
        <ele>1805.8</ele>
        <time>2024-08-13T05:48:45Z</time>
      </trkpt>
      <trkpt lat="44.80934" lon="6.29574">
        <ele>1805.4</ele>
        <time>2024-08-13T05:48:46Z</time>
      </trkpt>
      <trkpt lat="44.80934" lon="6.29574">
        <ele>1805.4</ele>
        <time>2024-08-13T05:48:47Z</time>
      </trkpt>
      <trkpt lat="44.80934" lon="6.29574">
        <ele>1805.4</ele>
        <time>2024-08-13T05:48:48Z</time>
      </trkpt>
      <trkpt lat="44.80934" lon="6.29574">
        <ele>1805.4</ele>
        <time>2024-08-13T05:48:49Z</time>
      </trkpt>
      <trkpt lat="44.80936" lon="6.29573">
        <ele>1805.2</ele>
        <time>2024-08-13T05:48:50Z</time>
      </trkpt>
      <trkpt lat="44.80936" lon="6.29573">
        <ele>1804.8</ele>
        <time>2024-08-13T05:48:51Z</time>
      </trkpt>
      <trkpt lat="44.80938" lon="6.29573">
        <ele>1804.8</ele>
        <time>2024-08-13T05:48:52Z</time>
      </trkpt>
      <trkpt lat="44.80938" lon="6.29573">
        <ele>1804.4</ele>
        <time>2024-08-13T05:48:53Z</time>
      </trkpt>
      <trkpt lat="44.80941" lon="6.29572">
        <ele>1804.2</ele>
        <time>2024-08-13T05:48:54Z</time>
      </trkpt>
      <trkpt lat="44.80941" lon="6.29572">
        <ele>1804</ele>
        <time>2024-08-13T05:48:55Z</time>
      </trkpt>
      <trkpt lat="44.80942" lon="6.29572">
        <ele>1803.8</ele>
        <time>2024-08-13T05:48:56Z</time>
      </trkpt>
      <trkpt lat="44.80942" lon="6.29572">
        <ele>1803.6</ele>
        <time>2024-08-13T05:48:57Z</time>
      </trkpt>
      <trkpt lat="44.80942" lon="6.29572">
        <ele>1803.4</ele>
        <time>2024-08-13T05:48:58Z</time>
      </trkpt>
      <trkpt lat="44.80942" lon="6.29572">
        <ele>1803.2</ele>
        <time>2024-08-13T05:48:59Z</time>
      </trkpt>
      <trkpt lat="44.80942" lon="6.29572">
        <ele>1803.2</ele>
        <time>2024-08-13T05:49:00Z</time>
      </trkpt>
      <trkpt lat="44.80944" lon="6.29571">
        <ele>1802.8</ele>
        <time>2024-08-13T05:49:01Z</time>
      </trkpt>
      <trkpt lat="44.80944" lon="6.29571">
        <ele>1802.2</ele>
        <time>2024-08-13T05:49:02Z</time>
      </trkpt>
      <trkpt lat="44.80947" lon="6.2957">
        <ele>1802.2</ele>
        <time>2024-08-13T05:49:03Z</time>
      </trkpt>
      <trkpt lat="44.80947" lon="6.2957">
        <ele>1801.8</ele>
        <time>2024-08-13T05:49:04Z</time>
      </trkpt>
      <trkpt lat="44.80949" lon="6.29568">
        <ele>1801.8</ele>
        <time>2024-08-13T05:49:05Z</time>
      </trkpt>
      <trkpt lat="44.80949" lon="6.29568">
        <ele>1801.8</ele>
        <time>2024-08-13T05:49:06Z</time>
      </trkpt>
      <trkpt lat="44.8095" lon="6.29566">
        <ele>1801.4</ele>
        <time>2024-08-13T05:49:07Z</time>
      </trkpt>
      <trkpt lat="44.8095" lon="6.29566">
        <ele>1800.8</ele>
        <time>2024-08-13T05:49:08Z</time>
      </trkpt>
      <trkpt lat="44.80952" lon="6.29565">
        <ele>1800.6</ele>
        <time>2024-08-13T05:49:09Z</time>
      </trkpt>
      <trkpt lat="44.80952" lon="6.29565">
        <ele>1800.4</ele>
        <time>2024-08-13T05:49:10Z</time>
      </trkpt>
      <trkpt lat="44.80955" lon="6.29564">
        <ele>1800.2</ele>
        <time>2024-08-13T05:49:11Z</time>
      </trkpt>
      <trkpt lat="44.80955" lon="6.29564">
        <ele>1799.8</ele>
        <time>2024-08-13T05:49:12Z</time>
      </trkpt>
      <trkpt lat="44.80957" lon="6.29564">
        <ele>1799.8</ele>
        <time>2024-08-13T05:49:13Z</time>
      </trkpt>
      <trkpt lat="44.80957" lon="6.29564">
        <ele>1799.8</ele>
        <time>2024-08-13T05:49:14Z</time>
      </trkpt>
      <trkpt lat="44.80957" lon="6.29564">
        <ele>1799.6</ele>
        <time>2024-08-13T05:49:15Z</time>
      </trkpt>
      <trkpt lat="44.80959" lon="6.29561">
        <ele>1799.2</ele>
        <time>2024-08-13T05:49:16Z</time>
      </trkpt>
      <trkpt lat="44.80959" lon="6.29561">
        <ele>1799.2</ele>
        <time>2024-08-13T05:49:17Z</time>
      </trkpt>
      <trkpt lat="44.80961" lon="6.29559">
        <ele>1798.8</ele>
        <time>2024-08-13T05:49:18Z</time>
      </trkpt>
      <trkpt lat="44.80961" lon="6.29559">
        <ele>1798.8</ele>
        <time>2024-08-13T05:49:19Z</time>
      </trkpt>
      <trkpt lat="44.80961" lon="6.29559">
        <ele>1798.8</ele>
        <time>2024-08-13T05:49:20Z</time>
      </trkpt>
      <trkpt lat="44.80963" lon="6.29559">
        <ele>1798.2</ele>
        <time>2024-08-13T05:49:21Z</time>
      </trkpt>
      <trkpt lat="44.80963" lon="6.29559">
        <ele>1798.2</ele>
        <time>2024-08-13T05:49:22Z</time>
      </trkpt>
      <trkpt lat="44.80963" lon="6.29559">
        <ele>1798</ele>
        <time>2024-08-13T05:49:23Z</time>
      </trkpt>
      <trkpt lat="44.80963" lon="6.29559">
        <ele>1798</ele>
        <time>2024-08-13T05:49:24Z</time>
      </trkpt>
      <trkpt lat="44.80964" lon="6.29562">
        <ele>1797.8</ele>
        <time>2024-08-13T05:49:25Z</time>
      </trkpt>
      <trkpt lat="44.80964" lon="6.29562">
        <ele>1797.8</ele>
        <time>2024-08-13T05:49:26Z</time>
      </trkpt>
      <trkpt lat="44.80964" lon="6.29562">
        <ele>1797.4</ele>
        <time>2024-08-13T05:49:27Z</time>
      </trkpt>
      <trkpt lat="44.80964" lon="6.29565">
        <ele>1797.2</ele>
        <time>2024-08-13T05:49:28Z</time>
      </trkpt>
      <trkpt lat="44.80964" lon="6.29565">
        <ele>1796.8</ele>
        <time>2024-08-13T05:49:29Z</time>
      </trkpt>
      <trkpt lat="44.80964" lon="6.29565">
        <ele>1796.6</ele>
        <time>2024-08-13T05:49:30Z</time>
      </trkpt>
      <trkpt lat="44.80962" lon="6.29567">
        <ele>1796.4</ele>
        <time>2024-08-13T05:49:31Z</time>
      </trkpt>
      <trkpt lat="44.80962" lon="6.29567">
        <ele>1796.2</ele>
        <time>2024-08-13T05:49:32Z</time>
      </trkpt>
      <trkpt lat="44.80962" lon="6.29567">
        <ele>1795.8</ele>
        <time>2024-08-13T05:49:33Z</time>
      </trkpt>
      <trkpt lat="44.80961" lon="6.29571">
        <ele>1795.6</ele>
        <time>2024-08-13T05:49:34Z</time>
      </trkpt>
      <trkpt lat="44.80961" lon="6.29571">
        <ele>1795.6</ele>
        <time>2024-08-13T05:49:35Z</time>
      </trkpt>
      <trkpt lat="44.80961" lon="6.29571">
        <ele>1795.4</ele>
        <time>2024-08-13T05:49:36Z</time>
      </trkpt>
      <trkpt lat="44.8096" lon="6.29573">
        <ele>1795.2</ele>
        <time>2024-08-13T05:49:37Z</time>
      </trkpt>
      <trkpt lat="44.8096" lon="6.29573">
        <ele>1794.8</ele>
        <time>2024-08-13T05:49:38Z</time>
      </trkpt>
      <trkpt lat="44.8096" lon="6.29573">
        <ele>1794.8</ele>
        <time>2024-08-13T05:49:39Z</time>
      </trkpt>
      <trkpt lat="44.80962" lon="6.29574">
        <ele>1794.8</ele>
        <time>2024-08-13T05:49:40Z</time>
      </trkpt>
      <trkpt lat="44.80962" lon="6.29574">
        <ele>1794.6</ele>
        <time>2024-08-13T05:49:41Z</time>
      </trkpt>
      <trkpt lat="44.80964" lon="6.29574">
        <ele>1794</ele>
        <time>2024-08-13T05:49:42Z</time>
      </trkpt>
      <trkpt lat="44.80964" lon="6.29574">
        <ele>1793.6</ele>
        <time>2024-08-13T05:49:43Z</time>
      </trkpt>
      <trkpt lat="44.80964" lon="6.29574">
        <ele>1793.4</ele>
        <time>2024-08-13T05:49:44Z</time>
      </trkpt>
      <trkpt lat="44.80966" lon="6.29574">
        <ele>1793.4</ele>
        <time>2024-08-13T05:49:45Z</time>
      </trkpt>
      <trkpt lat="44.80966" lon="6.29574">
        <ele>1793.4</ele>
        <time>2024-08-13T05:49:46Z</time>
      </trkpt>
      <trkpt lat="44.80966" lon="6.29574">
        <ele>1793.4</ele>
        <time>2024-08-13T05:49:47Z</time>
      </trkpt>
      <trkpt lat="44.80968" lon="6.29572">
        <ele>1793.2</ele>
        <time>2024-08-13T05:49:48Z</time>
      </trkpt>
      <trkpt lat="44.80968" lon="6.29572">
        <ele>1792.8</ele>
        <time>2024-08-13T05:49:49Z</time>
      </trkpt>
      <trkpt lat="44.80968" lon="6.29572">
        <ele>1792.6</ele>
        <time>2024-08-13T05:49:50Z</time>
      </trkpt>
      <trkpt lat="44.80968" lon="6.29572">
        <ele>1792.6</ele>
        <time>2024-08-13T05:49:51Z</time>
      </trkpt>
      <trkpt lat="44.80968" lon="6.29572">
        <ele>1792.4</ele>
        <time>2024-08-13T05:49:52Z</time>
      </trkpt>
      <trkpt lat="44.80971" lon="6.29572">
        <ele>1792.2</ele>
        <time>2024-08-13T05:49:53Z</time>
      </trkpt>
      <trkpt lat="44.80971" lon="6.29572">
        <ele>1791.6</ele>
        <time>2024-08-13T05:49:54Z</time>
      </trkpt>
      <trkpt lat="44.80972" lon="6.2957">
        <ele>1791</ele>
        <time>2024-08-13T05:49:55Z</time>
      </trkpt>
      <trkpt lat="44.80972" lon="6.2957">
        <ele>1791</ele>
        <time>2024-08-13T05:49:56Z</time>
      </trkpt>
      <trkpt lat="44.80973" lon="6.29567">
        <ele>1791</ele>
        <time>2024-08-13T05:49:57Z</time>
      </trkpt>
      <trkpt lat="44.80973" lon="6.29567">
        <ele>1791.2</ele>
        <time>2024-08-13T05:49:58Z</time>
      </trkpt>
      <trkpt lat="44.80975" lon="6.29567">
        <ele>1791.2</ele>
        <time>2024-08-13T05:49:59Z</time>
      </trkpt>
      <trkpt lat="44.80975" lon="6.29567">
        <ele>1791.2</ele>
        <time>2024-08-13T05:50:00Z</time>
      </trkpt>
      <trkpt lat="44.80975" lon="6.29567">
        <ele>1790.8</ele>
        <time>2024-08-13T05:50:01Z</time>
      </trkpt>
      <trkpt lat="44.80975" lon="6.29567">
        <ele>1790.6</ele>
        <time>2024-08-13T05:50:02Z</time>
      </trkpt>
      <trkpt lat="44.80975" lon="6.29567">
        <ele>1790.4</ele>
        <time>2024-08-13T05:50:03Z</time>
      </trkpt>
      <trkpt lat="44.80977" lon="6.29569">
        <ele>1790</ele>
        <time>2024-08-13T05:50:04Z</time>
      </trkpt>
      <trkpt lat="44.80977" lon="6.29569">
        <ele>1789.8</ele>
        <time>2024-08-13T05:50:05Z</time>
      </trkpt>
      <trkpt lat="44.80977" lon="6.29569">
        <ele>1789.6</ele>
        <time>2024-08-13T05:50:06Z</time>
      </trkpt>
      <trkpt lat="44.80979" lon="6.29567">
        <ele>1789.4</ele>
        <time>2024-08-13T05:50:07Z</time>
      </trkpt>
      <trkpt lat="44.80979" lon="6.29567">
        <ele>1789</ele>
        <time>2024-08-13T05:50:08Z</time>
      </trkpt>
      <trkpt lat="44.80981" lon="6.29567">
        <ele>1789</ele>
        <time>2024-08-13T05:50:09Z</time>
      </trkpt>
      <trkpt lat="44.80981" lon="6.29567">
        <ele>1788.8</ele>
        <time>2024-08-13T05:50:10Z</time>
      </trkpt>
      <trkpt lat="44.80982" lon="6.29564">
        <ele>1788.4</ele>
        <time>2024-08-13T05:50:11Z</time>
      </trkpt>
      <trkpt lat="44.80982" lon="6.29564">
        <ele>1788.4</ele>
        <time>2024-08-13T05:50:12Z</time>
      </trkpt>
      <trkpt lat="44.80982" lon="6.29564">
        <ele>1788.2</ele>
        <time>2024-08-13T05:50:13Z</time>
      </trkpt>
      <trkpt lat="44.80981" lon="6.29561">
        <ele>1787.8</ele>
        <time>2024-08-13T05:50:14Z</time>
      </trkpt>
      <trkpt lat="44.80981" lon="6.29561">
        <ele>1787.6</ele>
        <time>2024-08-13T05:50:15Z</time>
      </trkpt>
      <trkpt lat="44.80981" lon="6.29561">
        <ele>1787.6</ele>
        <time>2024-08-13T05:50:16Z</time>
      </trkpt>
      <trkpt lat="44.80982" lon="6.29557">
        <ele>1787.2</ele>
        <time>2024-08-13T05:50:17Z</time>
      </trkpt>
      <trkpt lat="44.80982" lon="6.29557">
        <ele>1786.8</ele>
        <time>2024-08-13T05:50:18Z</time>
      </trkpt>
      <trkpt lat="44.80982" lon="6.29554">
        <ele>1786.8</ele>
        <time>2024-08-13T05:50:19Z</time>
      </trkpt>
      <trkpt lat="44.80982" lon="6.29554">
        <ele>1786.4</ele>
        <time>2024-08-13T05:50:20Z</time>
      </trkpt>
      <trkpt lat="44.80983" lon="6.29552">
        <ele>1786.2</ele>
        <time>2024-08-13T05:50:21Z</time>
      </trkpt>
      <trkpt lat="44.80983" lon="6.29552">
        <ele>1785.8</ele>
        <time>2024-08-13T05:50:22Z</time>
      </trkpt>
      <trkpt lat="44.80983" lon="6.29552">
        <ele>1785.6</ele>
        <time>2024-08-13T05:50:23Z</time>
      </trkpt>
      <trkpt lat="44.80984" lon="6.29548">
        <ele>1785.6</ele>
        <time>2024-08-13T05:50:24Z</time>
      </trkpt>
      <trkpt lat="44.80984" lon="6.29548">
        <ele>1785.2</ele>
        <time>2024-08-13T05:50:25Z</time>
      </trkpt>
      <trkpt lat="44.80984" lon="6.29548">
        <ele>1785</ele>
        <time>2024-08-13T05:50:26Z</time>
      </trkpt>
      <trkpt lat="44.80984" lon="6.29545">
        <ele>1784.8</ele>
        <time>2024-08-13T05:50:27Z</time>
      </trkpt>
      <trkpt lat="44.80984" lon="6.29545">
        <ele>1784.8</ele>
        <time>2024-08-13T05:50:28Z</time>
      </trkpt>
      <trkpt lat="44.80984" lon="6.29545">
        <ele>1784.6</ele>
        <time>2024-08-13T05:50:29Z</time>
      </trkpt>
      <trkpt lat="44.80985" lon="6.29542">
        <ele>1784</ele>
        <time>2024-08-13T05:50:30Z</time>
      </trkpt>
      <trkpt lat="44.80985" lon="6.29542">
        <ele>1783.6</ele>
        <time>2024-08-13T05:50:31Z</time>
      </trkpt>
      <trkpt lat="44.80985" lon="6.29538">
        <ele>1783.2</ele>
        <time>2024-08-13T05:50:32Z</time>
      </trkpt>
      <trkpt lat="44.80985" lon="6.29538">
        <ele>1783.2</ele>
        <time>2024-08-13T05:50:33Z</time>
      </trkpt>
      <trkpt lat="44.80985" lon="6.29535">
        <ele>1782.8</ele>
        <time>2024-08-13T05:50:34Z</time>
      </trkpt>
      <trkpt lat="44.80985" lon="6.29535">
        <ele>1782.6</ele>
        <time>2024-08-13T05:50:35Z</time>
      </trkpt>
      <trkpt lat="44.80986" lon="6.29533">
        <ele>1782.2</ele>
        <time>2024-08-13T05:50:36Z</time>
      </trkpt>
      <trkpt lat="44.80986" lon="6.29533">
        <ele>1782.2</ele>
        <time>2024-08-13T05:50:37Z</time>
      </trkpt>
      <trkpt lat="44.80987" lon="6.2953">
        <ele>1782.2</ele>
        <time>2024-08-13T05:50:38Z</time>
      </trkpt>
      <trkpt lat="44.80987" lon="6.2953">
        <ele>1782.2</ele>
        <time>2024-08-13T05:50:39Z</time>
      </trkpt>
      <trkpt lat="44.80987" lon="6.2953">
        <ele>1781.8</ele>
        <time>2024-08-13T05:50:40Z</time>
      </trkpt>
      <trkpt lat="44.80988" lon="6.29527">
        <ele>1781.2</ele>
        <time>2024-08-13T05:50:41Z</time>
      </trkpt>
      <trkpt lat="44.80988" lon="6.29527">
        <ele>1781</ele>
        <time>2024-08-13T05:50:42Z</time>
      </trkpt>
      <trkpt lat="44.80988" lon="6.29527">
        <ele>1780.8</ele>
        <time>2024-08-13T05:50:43Z</time>
      </trkpt>
      <trkpt lat="44.8099" lon="6.29525">
        <ele>1780.6</ele>
        <time>2024-08-13T05:50:44Z</time>
      </trkpt>
      <trkpt lat="44.8099" lon="6.29525">
        <ele>1780.4</ele>
        <time>2024-08-13T05:50:45Z</time>
      </trkpt>
      <trkpt lat="44.8099" lon="6.29525">
        <ele>1780.2</ele>
        <time>2024-08-13T05:50:46Z</time>
      </trkpt>
      <trkpt lat="44.80991" lon="6.29526">
        <ele>1779.8</ele>
        <time>2024-08-13T05:50:47Z</time>
      </trkpt>
      <trkpt lat="44.80991" lon="6.29526">
        <ele>1779.6</ele>
        <time>2024-08-13T05:50:48Z</time>
      </trkpt>
      <trkpt lat="44.80991" lon="6.2953">
        <ele>1779.4</ele>
        <time>2024-08-13T05:50:49Z</time>
      </trkpt>
      <trkpt lat="44.80991" lon="6.2953">
        <ele>1779.2</ele>
        <time>2024-08-13T05:50:50Z</time>
      </trkpt>
      <trkpt lat="44.80991" lon="6.29533">
        <ele>1779.2</ele>
        <time>2024-08-13T05:50:51Z</time>
      </trkpt>
      <trkpt lat="44.80991" lon="6.29533">
        <ele>1779</ele>
        <time>2024-08-13T05:50:52Z</time>
      </trkpt>
      <trkpt lat="44.80991" lon="6.29533">
        <ele>1778.6</ele>
        <time>2024-08-13T05:50:53Z</time>
      </trkpt>
      <trkpt lat="44.80992" lon="6.29537">
        <ele>1778.6</ele>
        <time>2024-08-13T05:50:54Z</time>
      </trkpt>
      <trkpt lat="44.80992" lon="6.29537">
        <ele>1778.2</ele>
        <time>2024-08-13T05:50:55Z</time>
      </trkpt>
      <trkpt lat="44.80992" lon="6.29537">
        <ele>1778.2</ele>
        <time>2024-08-13T05:50:56Z</time>
      </trkpt>
      <trkpt lat="44.80992" lon="6.29537">
        <ele>1778</ele>
        <time>2024-08-13T05:50:57Z</time>
      </trkpt>
      <trkpt lat="44.80992" lon="6.29537">
        <ele>1777.4</ele>
        <time>2024-08-13T05:50:58Z</time>
      </trkpt>
      <trkpt lat="44.80993" lon="6.2954">
        <ele>1777.4</ele>
        <time>2024-08-13T05:50:59Z</time>
      </trkpt>
      <trkpt lat="44.80993" lon="6.2954">
        <ele>1777.4</ele>
        <time>2024-08-13T05:51:00Z</time>
      </trkpt>
      <trkpt lat="44.80993" lon="6.2954">
        <ele>1776.8</ele>
        <time>2024-08-13T05:51:01Z</time>
      </trkpt>
      <trkpt lat="44.80995" lon="6.2954">
        <ele>1776.2</ele>
        <time>2024-08-13T05:51:02Z</time>
      </trkpt>
      <trkpt lat="44.80995" lon="6.2954">
        <ele>1776.2</ele>
        <time>2024-08-13T05:51:03Z</time>
      </trkpt>
      <trkpt lat="44.80996" lon="6.29537">
        <ele>1776.2</ele>
        <time>2024-08-13T05:51:04Z</time>
      </trkpt>
      <trkpt lat="44.80996" lon="6.29537">
        <ele>1776</ele>
        <time>2024-08-13T05:51:05Z</time>
      </trkpt>
      <trkpt lat="44.80997" lon="6.29534">
        <ele>1775.6</ele>
        <time>2024-08-13T05:51:06Z</time>
      </trkpt>
      <trkpt lat="44.80997" lon="6.29534">
        <ele>1775.2</ele>
        <time>2024-08-13T05:51:07Z</time>
      </trkpt>
      <trkpt lat="44.80998" lon="6.29531">
        <ele>1775</ele>
        <time>2024-08-13T05:51:08Z</time>
      </trkpt>
      <trkpt lat="44.80998" lon="6.29531">
        <ele>1774.6</ele>
        <time>2024-08-13T05:51:09Z</time>
      </trkpt>
      <trkpt lat="44.80999" lon="6.29529">
        <ele>1774.4</ele>
        <time>2024-08-13T05:51:10Z</time>
      </trkpt>
      <trkpt lat="44.80999" lon="6.29529">
        <ele>1774</ele>
        <time>2024-08-13T05:51:11Z</time>
      </trkpt>
      <trkpt lat="44.81001" lon="6.29526">
        <ele>1773.8</ele>
        <time>2024-08-13T05:51:12Z</time>
      </trkpt>
      <trkpt lat="44.81001" lon="6.29526">
        <ele>1773.6</ele>
        <time>2024-08-13T05:51:13Z</time>
      </trkpt>
      <trkpt lat="44.81001" lon="6.29526">
        <ele>1773.4</ele>
        <time>2024-08-13T05:51:14Z</time>
      </trkpt>
      <trkpt lat="44.81003" lon="6.29523">
        <ele>1773.2</ele>
        <time>2024-08-13T05:51:15Z</time>
      </trkpt>
      <trkpt lat="44.81003" lon="6.29523">
        <ele>1773</ele>
        <time>2024-08-13T05:51:16Z</time>
      </trkpt>
      <trkpt lat="44.81003" lon="6.29523">
        <ele>1773</ele>
        <time>2024-08-13T05:51:17Z</time>
      </trkpt>
      <trkpt lat="44.81003" lon="6.29521">
        <ele>1773</ele>
        <time>2024-08-13T05:51:18Z</time>
      </trkpt>
      <trkpt lat="44.81003" lon="6.29521">
        <ele>1773</ele>
        <time>2024-08-13T05:51:19Z</time>
      </trkpt>
      <trkpt lat="44.81003" lon="6.29521">
        <ele>1773.2</ele>
        <time>2024-08-13T05:51:20Z</time>
      </trkpt>
      <trkpt lat="44.81005" lon="6.2952">
        <ele>1773.2</ele>
        <time>2024-08-13T05:51:21Z</time>
      </trkpt>
      <trkpt lat="44.81005" lon="6.2952">
        <ele>1773.2</ele>
        <time>2024-08-13T05:51:22Z</time>
      </trkpt>
      <trkpt lat="44.81005" lon="6.2952">
        <ele>1772.8</ele>
        <time>2024-08-13T05:51:23Z</time>
      </trkpt>
      <trkpt lat="44.81008" lon="6.2952">
        <ele>1772.6</ele>
        <time>2024-08-13T05:51:24Z</time>
      </trkpt>
      <trkpt lat="44.81008" lon="6.2952">
        <ele>1772.6</ele>
        <time>2024-08-13T05:51:25Z</time>
      </trkpt>
      <trkpt lat="44.81008" lon="6.2952">
        <ele>1772.4</ele>
        <time>2024-08-13T05:51:26Z</time>
      </trkpt>
      <trkpt lat="44.81008" lon="6.2952">
        <ele>1772</ele>
        <time>2024-08-13T05:51:27Z</time>
      </trkpt>
      <trkpt lat="44.8101" lon="6.29521">
        <ele>1772</ele>
        <time>2024-08-13T05:51:28Z</time>
      </trkpt>
      <trkpt lat="44.8101" lon="6.29521">
        <ele>1772</ele>
        <time>2024-08-13T05:51:29Z</time>
      </trkpt>
      <trkpt lat="44.81012" lon="6.29521">
        <ele>1772</ele>
        <time>2024-08-13T05:51:30Z</time>
      </trkpt>
      <trkpt lat="44.81012" lon="6.29521">
        <ele>1771.6</ele>
        <time>2024-08-13T05:51:31Z</time>
      </trkpt>
      <trkpt lat="44.81014" lon="6.2952">
        <ele>1771.2</ele>
        <time>2024-08-13T05:51:32Z</time>
      </trkpt>
      <trkpt lat="44.81014" lon="6.2952">
        <ele>1771</ele>
        <time>2024-08-13T05:51:33Z</time>
      </trkpt>
      <trkpt lat="44.81014" lon="6.2952">
        <ele>1771</ele>
        <time>2024-08-13T05:51:34Z</time>
      </trkpt>
      <trkpt lat="44.81016" lon="6.29519">
        <ele>1771</ele>
        <time>2024-08-13T05:51:35Z</time>
      </trkpt>
      <trkpt lat="44.81016" lon="6.29519">
        <ele>1770.8</ele>
        <time>2024-08-13T05:51:36Z</time>
      </trkpt>
      <trkpt lat="44.81018" lon="6.29518">
        <ele>1770.6</ele>
        <time>2024-08-13T05:51:37Z</time>
      </trkpt>
      <trkpt lat="44.81018" lon="6.29518">
        <ele>1770.2</ele>
        <time>2024-08-13T05:51:38Z</time>
      </trkpt>
      <trkpt lat="44.81018" lon="6.29518">
        <ele>1770.2</ele>
        <time>2024-08-13T05:51:39Z</time>
      </trkpt>
      <trkpt lat="44.81018" lon="6.29518">
        <ele>1770.2</ele>
        <time>2024-08-13T05:51:40Z</time>
      </trkpt>
      <trkpt lat="44.81019" lon="6.2952">
        <ele>1770.2</ele>
        <time>2024-08-13T05:51:41Z</time>
      </trkpt>
      <trkpt lat="44.81019" lon="6.2952">
        <ele>1769.8</ele>
        <time>2024-08-13T05:51:42Z</time>
      </trkpt>
      <trkpt lat="44.81019" lon="6.2952">
        <ele>1769.6</ele>
        <time>2024-08-13T05:51:43Z</time>
      </trkpt>
      <trkpt lat="44.81019" lon="6.29523">
        <ele>1769.4</ele>
        <time>2024-08-13T05:51:44Z</time>
      </trkpt>
      <trkpt lat="44.81019" lon="6.29523">
        <ele>1769.2</ele>
        <time>2024-08-13T05:51:45Z</time>
      </trkpt>
      <trkpt lat="44.81019" lon="6.29523">
        <ele>1769</ele>
        <time>2024-08-13T05:51:46Z</time>
      </trkpt>
      <trkpt lat="44.81019" lon="6.29523">
        <ele>1768.6</ele>
        <time>2024-08-13T05:51:47Z</time>
      </trkpt>
      <trkpt lat="44.81019" lon="6.29523">
        <ele>1768.6</ele>
        <time>2024-08-13T05:51:48Z</time>
      </trkpt>
      <trkpt lat="44.81019" lon="6.29523">
        <ele>1768.2</ele>
        <time>2024-08-13T05:51:49Z</time>
      </trkpt>
      <trkpt lat="44.81019" lon="6.29526">
        <ele>1768</ele>
        <time>2024-08-13T05:51:50Z</time>
      </trkpt>
      <trkpt lat="44.81019" lon="6.29526">
        <ele>1767.8</ele>
        <time>2024-08-13T05:51:51Z</time>
      </trkpt>
      <trkpt lat="44.81019" lon="6.29526">
        <ele>1767.6</ele>
        <time>2024-08-13T05:51:52Z</time>
      </trkpt>
      <trkpt lat="44.81019" lon="6.29526">
        <ele>1767.4</ele>
        <time>2024-08-13T05:51:53Z</time>
      </trkpt>
      <trkpt lat="44.81019" lon="6.29526">
        <ele>1767.2</ele>
        <time>2024-08-13T05:51:54Z</time>
      </trkpt>
      <trkpt lat="44.81021" lon="6.29526">
        <ele>1767</ele>
        <time>2024-08-13T05:51:55Z</time>
      </trkpt>
      <trkpt lat="44.81021" lon="6.29526">
        <ele>1767</ele>
        <time>2024-08-13T05:51:56Z</time>
      </trkpt>
      <trkpt lat="44.81023" lon="6.29525">
        <ele>1766.8</ele>
        <time>2024-08-13T05:51:57Z</time>
      </trkpt>
      <trkpt lat="44.81023" lon="6.29525">
        <ele>1766.8</ele>
        <time>2024-08-13T05:51:58Z</time>
      </trkpt>
      <trkpt lat="44.81025" lon="6.29524">
        <ele>1766.6</ele>
        <time>2024-08-13T05:51:59Z</time>
      </trkpt>
      <trkpt lat="44.81025" lon="6.29524">
        <ele>1766.4</ele>
        <time>2024-08-13T05:52:00Z</time>
      </trkpt>
      <trkpt lat="44.81028" lon="6.29523">
        <ele>1766</ele>
        <time>2024-08-13T05:52:01Z</time>
      </trkpt>
      <trkpt lat="44.81028" lon="6.29523">
        <ele>1765.8</ele>
        <time>2024-08-13T05:52:02Z</time>
      </trkpt>
      <trkpt lat="44.81029" lon="6.29522">
        <ele>1765.8</ele>
        <time>2024-08-13T05:52:03Z</time>
      </trkpt>
      <trkpt lat="44.81029" lon="6.29522">
        <ele>1765.6</ele>
        <time>2024-08-13T05:52:04Z</time>
      </trkpt>
      <trkpt lat="44.81029" lon="6.29522">
        <ele>1765.4</ele>
        <time>2024-08-13T05:52:05Z</time>
      </trkpt>
      <trkpt lat="44.81029" lon="6.29525">
        <ele>1765</ele>
        <time>2024-08-13T05:52:06Z</time>
      </trkpt>
      <trkpt lat="44.81029" lon="6.29525">
        <ele>1764.8</ele>
        <time>2024-08-13T05:52:07Z</time>
      </trkpt>
      <trkpt lat="44.81028" lon="6.29527">
        <ele>1764.6</ele>
        <time>2024-08-13T05:52:08Z</time>
      </trkpt>
      <trkpt lat="44.81028" lon="6.29527">
        <ele>1764.4</ele>
        <time>2024-08-13T05:52:09Z</time>
      </trkpt>
      <trkpt lat="44.81028" lon="6.29527">
        <ele>1764.2</ele>
        <time>2024-08-13T05:52:10Z</time>
      </trkpt>
      <trkpt lat="44.81027" lon="6.2953">
        <ele>1764</ele>
        <time>2024-08-13T05:52:11Z</time>
      </trkpt>
      <trkpt lat="44.81027" lon="6.2953">
        <ele>1764</ele>
        <time>2024-08-13T05:52:12Z</time>
      </trkpt>
      <trkpt lat="44.81025" lon="6.29533">
        <ele>1763.6</ele>
        <time>2024-08-13T05:52:13Z</time>
      </trkpt>
      <trkpt lat="44.81025" lon="6.29533">
        <ele>1763.4</ele>
        <time>2024-08-13T05:52:14Z</time>
      </trkpt>
      <trkpt lat="44.81024" lon="6.29535">
        <ele>1763.2</ele>
        <time>2024-08-13T05:52:15Z</time>
      </trkpt>
      <trkpt lat="44.81024" lon="6.29535">
        <ele>1763</ele>
        <time>2024-08-13T05:52:16Z</time>
      </trkpt>
      <trkpt lat="44.81024" lon="6.29535">
        <ele>1762.6</ele>
        <time>2024-08-13T05:52:17Z</time>
      </trkpt>
      <trkpt lat="44.81023" lon="6.29537">
        <ele>1762.4</ele>
        <time>2024-08-13T05:52:18Z</time>
      </trkpt>
      <trkpt lat="44.81023" lon="6.29537">
        <ele>1762</ele>
        <time>2024-08-13T05:52:19Z</time>
      </trkpt>
      <trkpt lat="44.81023" lon="6.29537">
        <ele>1762</ele>
        <time>2024-08-13T05:52:20Z</time>
      </trkpt>
      <trkpt lat="44.81023" lon="6.29537">
        <ele>1762</ele>
        <time>2024-08-13T05:52:21Z</time>
      </trkpt>
      <trkpt lat="44.81025" lon="6.29538">
        <ele>1761.8</ele>
        <time>2024-08-13T05:52:22Z</time>
      </trkpt>
      <trkpt lat="44.81025" lon="6.29538">
        <ele>1761.4</ele>
        <time>2024-08-13T05:52:23Z</time>
      </trkpt>
      <trkpt lat="44.81027" lon="6.29537">
        <ele>1760.8</ele>
        <time>2024-08-13T05:52:24Z</time>
      </trkpt>
      <trkpt lat="44.81027" lon="6.29537">
        <ele>1760.6</ele>
        <time>2024-08-13T05:52:25Z</time>
      </trkpt>
      <trkpt lat="44.81029" lon="6.29537">
        <ele>1760.4</ele>
        <time>2024-08-13T05:52:26Z</time>
      </trkpt>
      <trkpt lat="44.81029" lon="6.29537">
        <ele>1760.4</ele>
        <time>2024-08-13T05:52:27Z</time>
      </trkpt>
      <trkpt lat="44.81029" lon="6.29537">
        <ele>1760.2</ele>
        <time>2024-08-13T05:52:28Z</time>
      </trkpt>
      <trkpt lat="44.81031" lon="6.29536">
        <ele>1759.8</ele>
        <time>2024-08-13T05:52:29Z</time>
      </trkpt>
      <trkpt lat="44.81031" lon="6.29536">
        <ele>1759.6</ele>
        <time>2024-08-13T05:52:30Z</time>
      </trkpt>
      <trkpt lat="44.81031" lon="6.29536">
        <ele>1759.2</ele>
        <time>2024-08-13T05:52:31Z</time>
      </trkpt>
      <trkpt lat="44.81033" lon="6.29537">
        <ele>1759.2</ele>
        <time>2024-08-13T05:52:32Z</time>
      </trkpt>
      <trkpt lat="44.81033" lon="6.29537">
        <ele>1759</ele>
        <time>2024-08-13T05:52:33Z</time>
      </trkpt>
      <trkpt lat="44.81033" lon="6.29537">
        <ele>1758.8</ele>
        <time>2024-08-13T05:52:34Z</time>
      </trkpt>
      <trkpt lat="44.81033" lon="6.29541">
        <ele>1758.2</ele>
        <time>2024-08-13T05:52:35Z</time>
      </trkpt>
      <trkpt lat="44.81033" lon="6.29541">
        <ele>1758</ele>
        <time>2024-08-13T05:52:36Z</time>
      </trkpt>
      <trkpt lat="44.81031" lon="6.29543">
        <ele>1757.8</ele>
        <time>2024-08-13T05:52:37Z</time>
      </trkpt>
      <trkpt lat="44.81031" lon="6.29543">
        <ele>1757.6</ele>
        <time>2024-08-13T05:52:38Z</time>
      </trkpt>
      <trkpt lat="44.81029" lon="6.29545">
        <ele>1757.2</ele>
        <time>2024-08-13T05:52:39Z</time>
      </trkpt>
      <trkpt lat="44.81029" lon="6.29545">
        <ele>1756.8</ele>
        <time>2024-08-13T05:52:40Z</time>
      </trkpt>
      <trkpt lat="44.81029" lon="6.29545">
        <ele>1756.4</ele>
        <time>2024-08-13T05:52:41Z</time>
      </trkpt>
      <trkpt lat="44.81029" lon="6.29548">
        <ele>1756.4</ele>
        <time>2024-08-13T05:52:42Z</time>
      </trkpt>
      <trkpt lat="44.81029" lon="6.29548">
        <ele>1756.2</ele>
        <time>2024-08-13T05:52:43Z</time>
      </trkpt>
      <trkpt lat="44.81029" lon="6.29548">
        <ele>1756.2</ele>
        <time>2024-08-13T05:52:44Z</time>
      </trkpt>
      <trkpt lat="44.81029" lon="6.29551">
        <ele>1756.2</ele>
        <time>2024-08-13T05:52:45Z</time>
      </trkpt>
      <trkpt lat="44.81029" lon="6.29551">
        <ele>1756</ele>
        <time>2024-08-13T05:52:46Z</time>
      </trkpt>
      <trkpt lat="44.81029" lon="6.29551">
        <ele>1755.8</ele>
        <time>2024-08-13T05:52:47Z</time>
      </trkpt>
      <trkpt lat="44.81029" lon="6.29551">
        <ele>1755.8</ele>
        <time>2024-08-13T05:52:48Z</time>
      </trkpt>
      <trkpt lat="44.81031" lon="6.29551">
        <ele>1755.8</ele>
        <time>2024-08-13T05:52:49Z</time>
      </trkpt>
      <trkpt lat="44.81031" lon="6.29551">
        <ele>1755.4</ele>
        <time>2024-08-13T05:52:50Z</time>
      </trkpt>
      <trkpt lat="44.81031" lon="6.29551">
        <ele>1754.8</ele>
        <time>2024-08-13T05:52:51Z</time>
      </trkpt>
      <trkpt lat="44.81031" lon="6.29551">
        <ele>1754.8</ele>
        <time>2024-08-13T05:52:52Z</time>
      </trkpt>
      <trkpt lat="44.81032" lon="6.29548">
        <ele>1754.8</ele>
        <time>2024-08-13T05:52:53Z</time>
      </trkpt>
      <trkpt lat="44.81032" lon="6.29548">
        <ele>1754.8</ele>
        <time>2024-08-13T05:52:54Z</time>
      </trkpt>
      <trkpt lat="44.81032" lon="6.29548">
        <ele>1754.6</ele>
        <time>2024-08-13T05:52:55Z</time>
      </trkpt>
      <trkpt lat="44.81032" lon="6.29548">
        <ele>1754.6</ele>
        <time>2024-08-13T05:52:56Z</time>
      </trkpt>
      <trkpt lat="44.81033" lon="6.29547">
        <ele>1754.4</ele>
        <time>2024-08-13T05:52:57Z</time>
      </trkpt>
      <trkpt lat="44.81033" lon="6.29547">
        <ele>1754.2</ele>
        <time>2024-08-13T05:52:58Z</time>
      </trkpt>
      <trkpt lat="44.81033" lon="6.29547">
        <ele>1753.8</ele>
        <time>2024-08-13T05:52:59Z</time>
      </trkpt>
      <trkpt lat="44.81033" lon="6.29547">
        <ele>1753.8</ele>
        <time>2024-08-13T05:53:00Z</time>
      </trkpt>
      <trkpt lat="44.81035" lon="6.29545">
        <ele>1753.8</ele>
        <time>2024-08-13T05:53:01Z</time>
      </trkpt>
      <trkpt lat="44.81035" lon="6.29545">
        <ele>1753.4</ele>
        <time>2024-08-13T05:53:02Z</time>
      </trkpt>
      <trkpt lat="44.81037" lon="6.29542">
        <ele>1753.4</ele>
        <time>2024-08-13T05:53:03Z</time>
      </trkpt>
      <trkpt lat="44.81039" lon="6.29541">
        <ele>1753.4</ele>
        <time>2024-08-13T05:53:04Z</time>
      </trkpt>
      <trkpt lat="44.8104" lon="6.29539">
        <ele>1753.4</ele>
        <time>2024-08-13T05:53:05Z</time>
      </trkpt>
      <trkpt lat="44.8104" lon="6.29539">
        <ele>1753.2</ele>
        <time>2024-08-13T05:53:06Z</time>
      </trkpt>
      <trkpt lat="44.81042" lon="6.29535">
        <ele>1752.8</ele>
        <time>2024-08-13T05:53:07Z</time>
      </trkpt>
      <trkpt lat="44.81042" lon="6.29535">
        <ele>1752.8</ele>
        <time>2024-08-13T05:53:08Z</time>
      </trkpt>
      <trkpt lat="44.81044" lon="6.29533">
        <ele>1752.8</ele>
        <time>2024-08-13T05:53:09Z</time>
      </trkpt>
      <trkpt lat="44.81044" lon="6.29533">
        <ele>1752.8</ele>
        <time>2024-08-13T05:53:10Z</time>
      </trkpt>
      <trkpt lat="44.81045" lon="6.29531">
        <ele>1752.8</ele>
        <time>2024-08-13T05:53:11Z</time>
      </trkpt>
      <trkpt lat="44.81045" lon="6.29531">
        <ele>1752.6</ele>
        <time>2024-08-13T05:53:12Z</time>
      </trkpt>
      <trkpt lat="44.81046" lon="6.29529">
        <ele>1752.4</ele>
        <time>2024-08-13T05:53:13Z</time>
      </trkpt>
      <trkpt lat="44.81046" lon="6.29529">
        <ele>1752.4</ele>
        <time>2024-08-13T05:53:14Z</time>
      </trkpt>
      <trkpt lat="44.81046" lon="6.29529">
        <ele>1752.2</ele>
        <time>2024-08-13T05:53:15Z</time>
      </trkpt>
      <trkpt lat="44.81047" lon="6.29526">
        <ele>1752.2</ele>
        <time>2024-08-13T05:53:16Z</time>
      </trkpt>
      <trkpt lat="44.81047" lon="6.29526">
        <ele>1752</ele>
        <time>2024-08-13T05:53:17Z</time>
      </trkpt>
      <trkpt lat="44.81049" lon="6.29524">
        <ele>1751.8</ele>
        <time>2024-08-13T05:53:18Z</time>
      </trkpt>
      <trkpt lat="44.81049" lon="6.29524">
        <ele>1751.6</ele>
        <time>2024-08-13T05:53:19Z</time>
      </trkpt>
      <trkpt lat="44.81049" lon="6.29524">
        <ele>1751.4</ele>
        <time>2024-08-13T05:53:20Z</time>
      </trkpt>
      <trkpt lat="44.8105" lon="6.29521">
        <ele>1751.4</ele>
        <time>2024-08-13T05:53:21Z</time>
      </trkpt>
      <trkpt lat="44.8105" lon="6.29521">
        <ele>1751.2</ele>
        <time>2024-08-13T05:53:22Z</time>
      </trkpt>
      <trkpt lat="44.81051" lon="6.29519">
        <ele>1751</ele>
        <time>2024-08-13T05:53:23Z</time>
      </trkpt>
      <trkpt lat="44.81051" lon="6.29519">
        <ele>1751</ele>
        <time>2024-08-13T05:53:24Z</time>
      </trkpt>
      <trkpt lat="44.81051" lon="6.29519">
        <ele>1751</ele>
        <time>2024-08-13T05:53:25Z</time>
      </trkpt>
      <trkpt lat="44.81053" lon="6.29517">
        <ele>1750.6</ele>
        <time>2024-08-13T05:53:26Z</time>
      </trkpt>
      <trkpt lat="44.81053" lon="6.29517">
        <ele>1750.4</ele>
        <time>2024-08-13T05:53:27Z</time>
      </trkpt>
      <trkpt lat="44.81055" lon="6.29515">
        <ele>1750.2</ele>
        <time>2024-08-13T05:53:28Z</time>
      </trkpt>
      <trkpt lat="44.81055" lon="6.29515">
        <ele>1750.2</ele>
        <time>2024-08-13T05:53:29Z</time>
      </trkpt>
      <trkpt lat="44.81055" lon="6.29515">
        <ele>1750</ele>
        <time>2024-08-13T05:53:30Z</time>
      </trkpt>
      <trkpt lat="44.81055" lon="6.29515">
        <ele>1750</ele>
        <time>2024-08-13T05:53:31Z</time>
      </trkpt>
      <trkpt lat="44.81057" lon="6.29513">
        <ele>1750</ele>
        <time>2024-08-13T05:53:32Z</time>
      </trkpt>
      <trkpt lat="44.81057" lon="6.29513">
        <ele>1750</ele>
        <time>2024-08-13T05:53:33Z</time>
      </trkpt>
      <trkpt lat="44.81059" lon="6.29511">
        <ele>1749.8</ele>
        <time>2024-08-13T05:53:34Z</time>
      </trkpt>
      <trkpt lat="44.81059" lon="6.29511">
        <ele>1749.4</ele>
        <time>2024-08-13T05:53:35Z</time>
      </trkpt>
      <trkpt lat="44.81061" lon="6.29509">
        <ele>1749.2</ele>
        <time>2024-08-13T05:53:36Z</time>
      </trkpt>
      <trkpt lat="44.81061" lon="6.29509">
        <ele>1749</ele>
        <time>2024-08-13T05:53:37Z</time>
      </trkpt>
      <trkpt lat="44.81062" lon="6.29508">
        <ele>1748.8</ele>
        <time>2024-08-13T05:53:38Z</time>
      </trkpt>
      <trkpt lat="44.81062" lon="6.29508">
        <ele>1748.6</ele>
        <time>2024-08-13T05:53:39Z</time>
      </trkpt>
      <trkpt lat="44.81062" lon="6.29508">
        <ele>1748.6</ele>
        <time>2024-08-13T05:53:40Z</time>
      </trkpt>
      <trkpt lat="44.81064" lon="6.29506">
        <ele>1748.6</ele>
        <time>2024-08-13T05:53:41Z</time>
      </trkpt>
      <trkpt lat="44.81064" lon="6.29506">
        <ele>1748.6</ele>
        <time>2024-08-13T05:53:42Z</time>
      </trkpt>
      <trkpt lat="44.81066" lon="6.29504">
        <ele>1748.2</ele>
        <time>2024-08-13T05:53:43Z</time>
      </trkpt>
      <trkpt lat="44.81066" lon="6.29504">
        <ele>1747.8</ele>
        <time>2024-08-13T05:53:44Z</time>
      </trkpt>
      <trkpt lat="44.81069" lon="6.29502">
        <ele>1747.6</ele>
        <time>2024-08-13T05:53:45Z</time>
      </trkpt>
      <trkpt lat="44.81069" lon="6.29502">
        <ele>1747.4</ele>
        <time>2024-08-13T05:53:46Z</time>
      </trkpt>
      <trkpt lat="44.81071" lon="6.29502">
        <ele>1747</ele>
        <time>2024-08-13T05:53:47Z</time>
      </trkpt>
      <trkpt lat="44.81071" lon="6.29502">
        <ele>1746.6</ele>
        <time>2024-08-13T05:53:48Z</time>
      </trkpt>
      <trkpt lat="44.81073" lon="6.29502">
        <ele>1746.4</ele>
        <time>2024-08-13T05:53:49Z</time>
      </trkpt>
      <trkpt lat="44.81073" lon="6.29502">
        <ele>1746.4</ele>
        <time>2024-08-13T05:53:50Z</time>
      </trkpt>
      <trkpt lat="44.81073" lon="6.29502">
        <ele>1746.4</ele>
        <time>2024-08-13T05:53:51Z</time>
      </trkpt>
      <trkpt lat="44.81075" lon="6.29502">
        <ele>1746</ele>
        <time>2024-08-13T05:53:52Z</time>
      </trkpt>
      <trkpt lat="44.81075" lon="6.29502">
        <ele>1746</ele>
        <time>2024-08-13T05:53:53Z</time>
      </trkpt>
      <trkpt lat="44.81075" lon="6.29502">
        <ele>1746</ele>
        <time>2024-08-13T05:53:54Z</time>
      </trkpt>
      <trkpt lat="44.81075" lon="6.29502">
        <ele>1745.8</ele>
        <time>2024-08-13T05:53:55Z</time>
      </trkpt>
      <trkpt lat="44.81077" lon="6.29503">
        <ele>1745.8</ele>
        <time>2024-08-13T05:53:56Z</time>
      </trkpt>
      <trkpt lat="44.81077" lon="6.29503">
        <ele>1745.6</ele>
        <time>2024-08-13T05:53:57Z</time>
      </trkpt>
      <trkpt lat="44.81077" lon="6.29506">
        <ele>1745.6</ele>
        <time>2024-08-13T05:53:58Z</time>
      </trkpt>
      <trkpt lat="44.81077" lon="6.29506">
        <ele>1745.4</ele>
        <time>2024-08-13T05:53:59Z</time>
      </trkpt>
      <trkpt lat="44.81077" lon="6.29509">
        <ele>1745</ele>
        <time>2024-08-13T05:54:00Z</time>
      </trkpt>
      <trkpt lat="44.81077" lon="6.29509">
        <ele>1744.8</ele>
        <time>2024-08-13T05:54:01Z</time>
      </trkpt>
      <trkpt lat="44.81077" lon="6.29509">
        <ele>1744.6</ele>
        <time>2024-08-13T05:54:02Z</time>
      </trkpt>
      <trkpt lat="44.81077" lon="6.29512">
        <ele>1744.6</ele>
        <time>2024-08-13T05:54:03Z</time>
      </trkpt>
      <trkpt lat="44.81077" lon="6.29512">
        <ele>1744.6</ele>
        <time>2024-08-13T05:54:04Z</time>
      </trkpt>
      <trkpt lat="44.81077" lon="6.29512">
        <ele>1744.2</ele>
        <time>2024-08-13T05:54:05Z</time>
      </trkpt>
      <trkpt lat="44.81077" lon="6.29515">
        <ele>1743.8</ele>
        <time>2024-08-13T05:54:06Z</time>
      </trkpt>
      <trkpt lat="44.81077" lon="6.29515">
        <ele>1743.6</ele>
        <time>2024-08-13T05:54:07Z</time>
      </trkpt>
      <trkpt lat="44.81077" lon="6.29515">
        <ele>1743.4</ele>
        <time>2024-08-13T05:54:08Z</time>
      </trkpt>
      <trkpt lat="44.8108" lon="6.29517">
        <ele>1743.2</ele>
        <time>2024-08-13T05:54:09Z</time>
      </trkpt>
      <trkpt lat="44.8108" lon="6.29517">
        <ele>1743</ele>
        <time>2024-08-13T05:54:10Z</time>
      </trkpt>
      <trkpt lat="44.8108" lon="6.29517">
        <ele>1742.8</ele>
        <time>2024-08-13T05:54:11Z</time>
      </trkpt>
      <trkpt lat="44.81082" lon="6.2952">
        <ele>1742.2</ele>
        <time>2024-08-13T05:54:12Z</time>
      </trkpt>
      <trkpt lat="44.81082" lon="6.2952">
        <ele>1741.8</ele>
        <time>2024-08-13T05:54:13Z</time>
      </trkpt>
      <trkpt lat="44.81083" lon="6.29523">
        <ele>1741.4</ele>
        <time>2024-08-13T05:54:14Z</time>
      </trkpt>
      <trkpt lat="44.81083" lon="6.29523">
        <ele>1740.8</ele>
        <time>2024-08-13T05:54:15Z</time>
      </trkpt>
      <trkpt lat="44.81083" lon="6.29526">
        <ele>1740.6</ele>
        <time>2024-08-13T05:54:16Z</time>
      </trkpt>
      <trkpt lat="44.81083" lon="6.29526">
        <ele>1740.4</ele>
        <time>2024-08-13T05:54:17Z</time>
      </trkpt>
      <trkpt lat="44.81084" lon="6.29529">
        <ele>1740.2</ele>
        <time>2024-08-13T05:54:18Z</time>
      </trkpt>
      <trkpt lat="44.81084" lon="6.29529">
        <ele>1740</ele>
        <time>2024-08-13T05:54:19Z</time>
      </trkpt>
      <trkpt lat="44.81084" lon="6.29532">
        <ele>1739.8</ele>
        <time>2024-08-13T05:54:20Z</time>
      </trkpt>
      <trkpt lat="44.81084" lon="6.29532">
        <ele>1739.4</ele>
        <time>2024-08-13T05:54:21Z</time>
      </trkpt>
      <trkpt lat="44.81084" lon="6.29535">
        <ele>1739</ele>
        <time>2024-08-13T05:54:22Z</time>
      </trkpt>
      <trkpt lat="44.81084" lon="6.29535">
        <ele>1738.6</ele>
        <time>2024-08-13T05:54:23Z</time>
      </trkpt>
      <trkpt lat="44.81084" lon="6.29539">
        <ele>1738.4</ele>
        <time>2024-08-13T05:54:24Z</time>
      </trkpt>
      <trkpt lat="44.81084" lon="6.29539">
        <ele>1738.2</ele>
        <time>2024-08-13T05:54:25Z</time>
      </trkpt>
      <trkpt lat="44.81084" lon="6.29544">
        <ele>1737.8</ele>
        <time>2024-08-13T05:54:26Z</time>
      </trkpt>
      <trkpt lat="44.81084" lon="6.29544">
        <ele>1737.2</ele>
        <time>2024-08-13T05:54:27Z</time>
      </trkpt>
      <trkpt lat="44.81085" lon="6.29547">
        <ele>1736.8</ele>
        <time>2024-08-13T05:54:28Z</time>
      </trkpt>
      <trkpt lat="44.81085" lon="6.29547">
        <ele>1736.6</ele>
        <time>2024-08-13T05:54:29Z</time>
      </trkpt>
      <trkpt lat="44.81085" lon="6.29551">
        <ele>1736.4</ele>
        <time>2024-08-13T05:54:30Z</time>
      </trkpt>
      <trkpt lat="44.81085" lon="6.29551">
        <ele>1736</ele>
        <time>2024-08-13T05:54:31Z</time>
      </trkpt>
      <trkpt lat="44.81087" lon="6.29554">
        <ele>1736</ele>
        <time>2024-08-13T05:54:32Z</time>
      </trkpt>
      <trkpt lat="44.81087" lon="6.29554">
        <ele>1735.8</ele>
        <time>2024-08-13T05:54:33Z</time>
      </trkpt>
      <trkpt lat="44.81088" lon="6.29558">
        <ele>1735.6</ele>
        <time>2024-08-13T05:54:34Z</time>
      </trkpt>
      <trkpt lat="44.81088" lon="6.29558">
        <ele>1735.4</ele>
        <time>2024-08-13T05:54:35Z</time>
      </trkpt>
      <trkpt lat="44.81089" lon="6.29561">
        <ele>1735</ele>
        <time>2024-08-13T05:54:36Z</time>
      </trkpt>
      <trkpt lat="44.81089" lon="6.29561">
        <ele>1735</ele>
        <time>2024-08-13T05:54:37Z</time>
      </trkpt>
      <trkpt lat="44.81089" lon="6.29563">
        <ele>1734.4</ele>
        <time>2024-08-13T05:54:38Z</time>
      </trkpt>
      <trkpt lat="44.81089" lon="6.29563">
        <ele>1734</ele>
        <time>2024-08-13T05:54:39Z</time>
      </trkpt>
      <trkpt lat="44.8109" lon="6.29566">
        <ele>1733.6</ele>
        <time>2024-08-13T05:54:40Z</time>
      </trkpt>
      <trkpt lat="44.8109" lon="6.29566">
        <ele>1733.4</ele>
        <time>2024-08-13T05:54:41Z</time>
      </trkpt>
      <trkpt lat="44.8109" lon="6.29566">
        <ele>1733.2</ele>
        <time>2024-08-13T05:54:42Z</time>
      </trkpt>
      <trkpt lat="44.81092" lon="6.2957">
        <ele>1733.2</ele>
        <time>2024-08-13T05:54:43Z</time>
      </trkpt>
      <trkpt lat="44.81092" lon="6.2957">
        <ele>1732.6</ele>
        <time>2024-08-13T05:54:44Z</time>
      </trkpt>
      <trkpt lat="44.81094" lon="6.29573">
        <ele>1732</ele>
        <time>2024-08-13T05:54:45Z</time>
      </trkpt>
      <trkpt lat="44.81094" lon="6.29573">
        <ele>1731.8</ele>
        <time>2024-08-13T05:54:46Z</time>
      </trkpt>
      <trkpt lat="44.81096" lon="6.29575">
        <ele>1731.6</ele>
        <time>2024-08-13T05:54:47Z</time>
      </trkpt>
      <trkpt lat="44.81096" lon="6.29575">
        <ele>1731.4</ele>
        <time>2024-08-13T05:54:48Z</time>
      </trkpt>
      <trkpt lat="44.81098" lon="6.29578">
        <ele>1731</ele>
        <time>2024-08-13T05:54:49Z</time>
      </trkpt>
      <trkpt lat="44.81098" lon="6.29578">
        <ele>1730.6</ele>
        <time>2024-08-13T05:54:50Z</time>
      </trkpt>
      <trkpt lat="44.81099" lon="6.29581">
        <ele>1730.2</ele>
        <time>2024-08-13T05:54:51Z</time>
      </trkpt>
      <trkpt lat="44.81099" lon="6.29581">
        <ele>1730</ele>
        <time>2024-08-13T05:54:52Z</time>
      </trkpt>
      <trkpt lat="44.811" lon="6.29584">
        <ele>1729.8</ele>
        <time>2024-08-13T05:54:53Z</time>
      </trkpt>
      <trkpt lat="44.811" lon="6.29584">
        <ele>1729.4</ele>
        <time>2024-08-13T05:54:54Z</time>
      </trkpt>
      <trkpt lat="44.81102" lon="6.29586">
        <ele>1729.2</ele>
        <time>2024-08-13T05:54:55Z</time>
      </trkpt>
      <trkpt lat="44.81102" lon="6.29586">
        <ele>1728.8</ele>
        <time>2024-08-13T05:54:56Z</time>
      </trkpt>
      <trkpt lat="44.81103" lon="6.29589">
        <ele>1728.6</ele>
        <time>2024-08-13T05:54:57Z</time>
      </trkpt>
      <trkpt lat="44.81103" lon="6.29589">
        <ele>1728.6</ele>
        <time>2024-08-13T05:54:58Z</time>
      </trkpt>
      <trkpt lat="44.81104" lon="6.29592">
        <ele>1728.2</ele>
        <time>2024-08-13T05:54:59Z</time>
      </trkpt>
      <trkpt lat="44.81104" lon="6.29592">
        <ele>1728</ele>
        <time>2024-08-13T05:55:00Z</time>
      </trkpt>
      <trkpt lat="44.81106" lon="6.29595">
        <ele>1727.8</ele>
        <time>2024-08-13T05:55:01Z</time>
      </trkpt>
      <trkpt lat="44.81106" lon="6.29595">
        <ele>1727.4</ele>
        <time>2024-08-13T05:55:02Z</time>
      </trkpt>
      <trkpt lat="44.81108" lon="6.29598">
        <ele>1727.4</ele>
        <time>2024-08-13T05:55:03Z</time>
      </trkpt>
      <trkpt lat="44.81108" lon="6.29598">
        <ele>1727</ele>
        <time>2024-08-13T05:55:04Z</time>
      </trkpt>
      <trkpt lat="44.8111" lon="6.296">
        <ele>1726.6</ele>
        <time>2024-08-13T05:55:05Z</time>
      </trkpt>
      <trkpt lat="44.8111" lon="6.296">
        <ele>1726.2</ele>
        <time>2024-08-13T05:55:06Z</time>
      </trkpt>
      <trkpt lat="44.81111" lon="6.29603">
        <ele>1725.8</ele>
        <time>2024-08-13T05:55:07Z</time>
      </trkpt>
      <trkpt lat="44.81111" lon="6.29603">
        <ele>1725.4</ele>
        <time>2024-08-13T05:55:08Z</time>
      </trkpt>
      <trkpt lat="44.81112" lon="6.29606">
        <ele>1725.2</ele>
        <time>2024-08-13T05:55:09Z</time>
      </trkpt>
      <trkpt lat="44.81112" lon="6.29606">
        <ele>1724.8</ele>
        <time>2024-08-13T05:55:10Z</time>
      </trkpt>
      <trkpt lat="44.81114" lon="6.29609">
        <ele>1724</ele>
        <time>2024-08-13T05:55:11Z</time>
      </trkpt>
      <trkpt lat="44.81114" lon="6.29609">
        <ele>1723.6</ele>
        <time>2024-08-13T05:55:12Z</time>
      </trkpt>
      <trkpt lat="44.81115" lon="6.29611">
        <ele>1723.4</ele>
        <time>2024-08-13T05:55:13Z</time>
      </trkpt>
      <trkpt lat="44.81115" lon="6.29611">
        <ele>1723.4</ele>
        <time>2024-08-13T05:55:14Z</time>
      </trkpt>
      <trkpt lat="44.81117" lon="6.29614">
        <ele>1723</ele>
        <time>2024-08-13T05:55:15Z</time>
      </trkpt>
      <trkpt lat="44.81117" lon="6.29614">
        <ele>1722.6</ele>
        <time>2024-08-13T05:55:16Z</time>
      </trkpt>
      <trkpt lat="44.81118" lon="6.29618">
        <ele>1722.4</ele>
        <time>2024-08-13T05:55:17Z</time>
      </trkpt>
      <trkpt lat="44.81118" lon="6.29618">
        <ele>1722.4</ele>
        <time>2024-08-13T05:55:18Z</time>
      </trkpt>
      <trkpt lat="44.81118" lon="6.29622">
        <ele>1722.2</ele>
        <time>2024-08-13T05:55:19Z</time>
      </trkpt>
      <trkpt lat="44.81118" lon="6.29622">
        <ele>1721.6</ele>
        <time>2024-08-13T05:55:20Z</time>
      </trkpt>
      <trkpt lat="44.81118" lon="6.29625">
        <ele>1721.4</ele>
        <time>2024-08-13T05:55:21Z</time>
      </trkpt>
      <trkpt lat="44.81118" lon="6.29625">
        <ele>1721.2</ele>
        <time>2024-08-13T05:55:22Z</time>
      </trkpt>
      <trkpt lat="44.81118" lon="6.29628">
        <ele>1721</ele>
        <time>2024-08-13T05:55:23Z</time>
      </trkpt>
      <trkpt lat="44.81118" lon="6.29628">
        <ele>1720.8</ele>
        <time>2024-08-13T05:55:24Z</time>
      </trkpt>
      <trkpt lat="44.81118" lon="6.29631">
        <ele>1720.4</ele>
        <time>2024-08-13T05:55:25Z</time>
      </trkpt>
      <trkpt lat="44.81118" lon="6.29631">
        <ele>1720.2</ele>
        <time>2024-08-13T05:55:26Z</time>
      </trkpt>
      <trkpt lat="44.81118" lon="6.29631">
        <ele>1719.8</ele>
        <time>2024-08-13T05:55:27Z</time>
      </trkpt>
      <trkpt lat="44.81118" lon="6.29635">
        <ele>1719.6</ele>
        <time>2024-08-13T05:55:28Z</time>
      </trkpt>
      <trkpt lat="44.81118" lon="6.29635">
        <ele>1719.4</ele>
        <time>2024-08-13T05:55:29Z</time>
      </trkpt>
      <trkpt lat="44.81118" lon="6.29638">
        <ele>1719.2</ele>
        <time>2024-08-13T05:55:30Z</time>
      </trkpt>
      <trkpt lat="44.81118" lon="6.29638">
        <ele>1718.8</ele>
        <time>2024-08-13T05:55:31Z</time>
      </trkpt>
      <trkpt lat="44.81118" lon="6.29638">
        <ele>1718.4</ele>
        <time>2024-08-13T05:55:32Z</time>
      </trkpt>
      <trkpt lat="44.81117" lon="6.29641">
        <ele>1718.2</ele>
        <time>2024-08-13T05:55:33Z</time>
      </trkpt>
      <trkpt lat="44.81117" lon="6.29641">
        <ele>1718</ele>
        <time>2024-08-13T05:55:34Z</time>
      </trkpt>
      <trkpt lat="44.81118" lon="6.29644">
        <ele>1717.6</ele>
        <time>2024-08-13T05:55:35Z</time>
      </trkpt>
      <trkpt lat="44.81118" lon="6.29644">
        <ele>1717.4</ele>
        <time>2024-08-13T05:55:36Z</time>
      </trkpt>
      <trkpt lat="44.81117" lon="6.29646">
        <ele>1717</ele>
        <time>2024-08-13T05:55:37Z</time>
      </trkpt>
      <trkpt lat="44.81117" lon="6.29646">
        <ele>1716.8</ele>
        <time>2024-08-13T05:55:38Z</time>
      </trkpt>
      <trkpt lat="44.81115" lon="6.29646">
        <ele>1716.8</ele>
        <time>2024-08-13T05:55:39Z</time>
      </trkpt>
      <trkpt lat="44.81115" lon="6.29646">
        <ele>1716.6</ele>
        <time>2024-08-13T05:55:40Z</time>
      </trkpt>
      <trkpt lat="44.81113" lon="6.29647">
        <ele>1716</ele>
        <time>2024-08-13T05:55:41Z</time>
      </trkpt>
      <trkpt lat="44.81113" lon="6.29647">
        <ele>1715.8</ele>
        <time>2024-08-13T05:55:42Z</time>
      </trkpt>
      <trkpt lat="44.81113" lon="6.29647">
        <ele>1715.4</ele>
        <time>2024-08-13T05:55:43Z</time>
      </trkpt>
      <trkpt lat="44.81112" lon="6.2965">
        <ele>1715.4</ele>
        <time>2024-08-13T05:55:44Z</time>
      </trkpt>
      <trkpt lat="44.81112" lon="6.2965">
        <ele>1715.2</ele>
        <time>2024-08-13T05:55:45Z</time>
      </trkpt>
      <trkpt lat="44.81113" lon="6.29651">
        <ele>1714.8</ele>
        <time>2024-08-13T05:55:46Z</time>
      </trkpt>
      <trkpt lat="44.81113" lon="6.29651">
        <ele>1714.6</ele>
        <time>2024-08-13T05:55:47Z</time>
      </trkpt>
      <trkpt lat="44.81116" lon="6.29653">
        <ele>1714.6</ele>
        <time>2024-08-13T05:55:48Z</time>
      </trkpt>
      <trkpt lat="44.81116" lon="6.29653">
        <ele>1714.2</ele>
        <time>2024-08-13T05:55:49Z</time>
      </trkpt>
      <trkpt lat="44.81118" lon="6.29654">
        <ele>1714.2</ele>
        <time>2024-08-13T05:55:50Z</time>
      </trkpt>
      <trkpt lat="44.81118" lon="6.29654">
        <ele>1714</ele>
        <time>2024-08-13T05:55:51Z</time>
      </trkpt>
      <trkpt lat="44.81118" lon="6.29654">
        <ele>1713.8</ele>
        <time>2024-08-13T05:55:52Z</time>
      </trkpt>
      <trkpt lat="44.81121" lon="6.29653">
        <ele>1713.4</ele>
        <time>2024-08-13T05:55:53Z</time>
      </trkpt>
      <trkpt lat="44.81121" lon="6.29653">
        <ele>1713.2</ele>
        <time>2024-08-13T05:55:54Z</time>
      </trkpt>
      <trkpt lat="44.81123" lon="6.29653">
        <ele>1713.2</ele>
        <time>2024-08-13T05:55:55Z</time>
      </trkpt>
      <trkpt lat="44.81123" lon="6.29653">
        <ele>1713.2</ele>
        <time>2024-08-13T05:55:56Z</time>
      </trkpt>
      <trkpt lat="44.81125" lon="6.29651">
        <ele>1712.8</ele>
        <time>2024-08-13T05:55:57Z</time>
      </trkpt>
      <trkpt lat="44.81125" lon="6.29651">
        <ele>1712.6</ele>
        <time>2024-08-13T05:55:58Z</time>
      </trkpt>
      <trkpt lat="44.81127" lon="6.2965">
        <ele>1712.4</ele>
        <time>2024-08-13T05:55:59Z</time>
      </trkpt>
      <trkpt lat="44.81127" lon="6.2965">
        <ele>1712</ele>
        <time>2024-08-13T05:56:00Z</time>
      </trkpt>
      <trkpt lat="44.81128" lon="6.29647">
        <ele>1711.6</ele>
        <time>2024-08-13T05:56:01Z</time>
      </trkpt>
      <trkpt lat="44.81128" lon="6.29647">
        <ele>1711.2</ele>
        <time>2024-08-13T05:56:02Z</time>
      </trkpt>
      <trkpt lat="44.8113" lon="6.29646">
        <ele>1711.2</ele>
        <time>2024-08-13T05:56:03Z</time>
      </trkpt>
      <trkpt lat="44.8113" lon="6.29646">
        <ele>1710.8</ele>
        <time>2024-08-13T05:56:04Z</time>
      </trkpt>
      <trkpt lat="44.8113" lon="6.29646">
        <ele>1710.4</ele>
        <time>2024-08-13T05:56:05Z</time>
      </trkpt>
      <trkpt lat="44.81132" lon="6.29643">
        <ele>1710.2</ele>
        <time>2024-08-13T05:56:06Z</time>
      </trkpt>
      <trkpt lat="44.81132" lon="6.29643">
        <ele>1709.8</ele>
        <time>2024-08-13T05:56:07Z</time>
      </trkpt>
      <trkpt lat="44.81133" lon="6.29641">
        <ele>1709.4</ele>
        <time>2024-08-13T05:56:08Z</time>
      </trkpt>
      <trkpt lat="44.81133" lon="6.29641">
        <ele>1709</ele>
        <time>2024-08-13T05:56:09Z</time>
      </trkpt>
      <trkpt lat="44.81135" lon="6.29639">
        <ele>1709</ele>
        <time>2024-08-13T05:56:10Z</time>
      </trkpt>
      <trkpt lat="44.81135" lon="6.29639">
        <ele>1708.8</ele>
        <time>2024-08-13T05:56:11Z</time>
      </trkpt>
      <trkpt lat="44.81136" lon="6.29636">
        <ele>1708.6</ele>
        <time>2024-08-13T05:56:12Z</time>
      </trkpt>
      <trkpt lat="44.81136" lon="6.29636">
        <ele>1708.4</ele>
        <time>2024-08-13T05:56:13Z</time>
      </trkpt>
      <trkpt lat="44.81138" lon="6.29633">
        <ele>1708.2</ele>
        <time>2024-08-13T05:56:14Z</time>
      </trkpt>
      <trkpt lat="44.81138" lon="6.29633">
        <ele>1708</ele>
        <time>2024-08-13T05:56:15Z</time>
      </trkpt>
      <trkpt lat="44.81139" lon="6.29631">
        <ele>1707.6</ele>
        <time>2024-08-13T05:56:16Z</time>
      </trkpt>
      <trkpt lat="44.81139" lon="6.29631">
        <ele>1707.4</ele>
        <time>2024-08-13T05:56:17Z</time>
      </trkpt>
      <trkpt lat="44.81141" lon="6.29628">
        <ele>1707.2</ele>
        <time>2024-08-13T05:56:18Z</time>
      </trkpt>
      <trkpt lat="44.81141" lon="6.29628">
        <ele>1707</ele>
        <time>2024-08-13T05:56:19Z</time>
      </trkpt>
      <trkpt lat="44.81142" lon="6.29625">
        <ele>1707</ele>
        <time>2024-08-13T05:56:20Z</time>
      </trkpt>
      <trkpt lat="44.81142" lon="6.29625">
        <ele>1706.8</ele>
        <time>2024-08-13T05:56:21Z</time>
      </trkpt>
      <trkpt lat="44.81143" lon="6.29622">
        <ele>1706.6</ele>
        <time>2024-08-13T05:56:22Z</time>
      </trkpt>
      <trkpt lat="44.81143" lon="6.29622">
        <ele>1706.2</ele>
        <time>2024-08-13T05:56:23Z</time>
      </trkpt>
      <trkpt lat="44.81144" lon="6.2962">
        <ele>1706</ele>
        <time>2024-08-13T05:56:24Z</time>
      </trkpt>
      <trkpt lat="44.81144" lon="6.2962">
        <ele>1705.8</ele>
        <time>2024-08-13T05:56:25Z</time>
      </trkpt>
      <trkpt lat="44.81146" lon="6.29617">
        <ele>1705.4</ele>
        <time>2024-08-13T05:56:26Z</time>
      </trkpt>
      <trkpt lat="44.81146" lon="6.29617">
        <ele>1705.2</ele>
        <time>2024-08-13T05:56:27Z</time>
      </trkpt>
      <trkpt lat="44.81147" lon="6.29614">
        <ele>1704.8</ele>
        <time>2024-08-13T05:56:28Z</time>
      </trkpt>
      <trkpt lat="44.81147" lon="6.29614">
        <ele>1704.6</ele>
        <time>2024-08-13T05:56:29Z</time>
      </trkpt>
      <trkpt lat="44.81148" lon="6.29611">
        <ele>1704.4</ele>
        <time>2024-08-13T05:56:30Z</time>
      </trkpt>
      <trkpt lat="44.81148" lon="6.29611">
        <ele>1704.4</ele>
        <time>2024-08-13T05:56:31Z</time>
      </trkpt>
      <trkpt lat="44.81148" lon="6.29607">
        <ele>1704</ele>
        <time>2024-08-13T05:56:32Z</time>
      </trkpt>
      <trkpt lat="44.81148" lon="6.29607">
        <ele>1703.8</ele>
        <time>2024-08-13T05:56:33Z</time>
      </trkpt>
      <trkpt lat="44.81149" lon="6.29603">
        <ele>1703.6</ele>
        <time>2024-08-13T05:56:34Z</time>
      </trkpt>
      <trkpt lat="44.81149" lon="6.29603">
        <ele>1703.6</ele>
        <time>2024-08-13T05:56:35Z</time>
      </trkpt>
      <trkpt lat="44.8115" lon="6.296">
        <ele>1703.2</ele>
        <time>2024-08-13T05:56:36Z</time>
      </trkpt>
      <trkpt lat="44.8115" lon="6.296">
        <ele>1703.2</ele>
        <time>2024-08-13T05:56:37Z</time>
      </trkpt>
      <trkpt lat="44.81152" lon="6.29599">
        <ele>1703.2</ele>
        <time>2024-08-13T05:56:38Z</time>
      </trkpt>
      <trkpt lat="44.81152" lon="6.29599">
        <ele>1703.4</ele>
        <time>2024-08-13T05:56:39Z</time>
      </trkpt>
      <trkpt lat="44.81155" lon="6.29597">
        <ele>1703.4</ele>
        <time>2024-08-13T05:56:40Z</time>
      </trkpt>
      <trkpt lat="44.81155" lon="6.29597">
        <ele>1703.2</ele>
        <time>2024-08-13T05:56:41Z</time>
      </trkpt>
      <trkpt lat="44.81155" lon="6.29597">
        <ele>1703.2</ele>
        <time>2024-08-13T05:56:42Z</time>
      </trkpt>
      <trkpt lat="44.81155" lon="6.29597">
        <ele>1703.2</ele>
        <time>2024-08-13T05:56:43Z</time>
      </trkpt>
      <trkpt lat="44.81155" lon="6.29597">
        <ele>1703.2</ele>
        <time>2024-08-13T05:56:44Z</time>
      </trkpt>
      <trkpt lat="44.81155" lon="6.29597">
        <ele>1703.6</ele>
        <time>2024-08-13T05:56:45Z</time>
      </trkpt>
      <trkpt lat="44.81155" lon="6.29597">
        <ele>1703.6</ele>
        <time>2024-08-13T05:56:46Z</time>
      </trkpt>
      <trkpt lat="44.81155" lon="6.29597">
        <ele>1703.6</ele>
        <time>2024-08-13T05:56:47Z</time>
      </trkpt>
      <trkpt lat="44.81155" lon="6.29597">
        <ele>1703.8</ele>
        <time>2024-08-13T05:56:48Z</time>
      </trkpt>
      <trkpt lat="44.81155" lon="6.29597">
        <ele>1704</ele>
        <time>2024-08-13T05:56:49Z</time>
      </trkpt>
      <trkpt lat="44.81155" lon="6.29597">
        <ele>1704</ele>
        <time>2024-08-13T05:56:50Z</time>
      </trkpt>
      <trkpt lat="44.81157" lon="6.29597">
        <ele>1704</ele>
        <time>2024-08-13T05:56:51Z</time>
      </trkpt>
      <trkpt lat="44.81157" lon="6.29597">
        <ele>1703.8</ele>
        <time>2024-08-13T05:56:52Z</time>
      </trkpt>
      <trkpt lat="44.81157" lon="6.29597">
        <ele>1703.4</ele>
        <time>2024-08-13T05:56:53Z</time>
      </trkpt>
      <trkpt lat="44.81159" lon="6.29597">
        <ele>1703.2</ele>
        <time>2024-08-13T05:56:54Z</time>
      </trkpt>
      <trkpt lat="44.81159" lon="6.29597">
        <ele>1703.2</ele>
        <time>2024-08-13T05:56:55Z</time>
      </trkpt>
      <trkpt lat="44.81162" lon="6.29598">
        <ele>1703</ele>
        <time>2024-08-13T05:56:56Z</time>
      </trkpt>
      <trkpt lat="44.81162" lon="6.29598">
        <ele>1702.4</ele>
        <time>2024-08-13T05:56:57Z</time>
      </trkpt>
      <trkpt lat="44.81164" lon="6.29599">
        <ele>1702.4</ele>
        <time>2024-08-13T05:56:58Z</time>
      </trkpt>
      <trkpt lat="44.81164" lon="6.29599">
        <ele>1702.4</ele>
        <time>2024-08-13T05:56:59Z</time>
      </trkpt>
      <trkpt lat="44.81166" lon="6.296">
        <ele>1703.2</ele>
        <time>2024-08-13T05:57:00Z</time>
      </trkpt>
      <trkpt lat="44.81166" lon="6.296">
        <ele>1703.2</ele>
        <time>2024-08-13T05:57:01Z</time>
      </trkpt>
      <trkpt lat="44.81168" lon="6.29601">
        <ele>1703.4</ele>
        <time>2024-08-13T05:57:02Z</time>
      </trkpt>
      <trkpt lat="44.81168" lon="6.29601">
        <ele>1703.4</ele>
        <time>2024-08-13T05:57:03Z</time>
      </trkpt>
      <trkpt lat="44.81171" lon="6.29603">
        <ele>1703.4</ele>
        <time>2024-08-13T05:57:04Z</time>
      </trkpt>
      <trkpt lat="44.81171" lon="6.29603">
        <ele>1703.6</ele>
        <time>2024-08-13T05:57:05Z</time>
      </trkpt>
      <trkpt lat="44.81173" lon="6.29605">
        <ele>1703.8</ele>
        <time>2024-08-13T05:57:06Z</time>
      </trkpt>
      <trkpt lat="44.81173" lon="6.29605">
        <ele>1704</ele>
        <time>2024-08-13T05:57:07Z</time>
      </trkpt>
      <trkpt lat="44.81176" lon="6.29605">
        <ele>1704.2</ele>
        <time>2024-08-13T05:57:08Z</time>
      </trkpt>
      <trkpt lat="44.81176" lon="6.29605">
        <ele>1704.2</ele>
        <time>2024-08-13T05:57:09Z</time>
      </trkpt>
      <trkpt lat="44.81178" lon="6.29606">
        <ele>1704.4</ele>
        <time>2024-08-13T05:57:10Z</time>
      </trkpt>
      <trkpt lat="44.81178" lon="6.29606">
        <ele>1704.6</ele>
        <time>2024-08-13T05:57:11Z</time>
      </trkpt>
      <trkpt lat="44.81181" lon="6.29608">
        <ele>1704.6</ele>
        <time>2024-08-13T05:57:12Z</time>
      </trkpt>
      <trkpt lat="44.81181" lon="6.29608">
        <ele>1704.6</ele>
        <time>2024-08-13T05:57:13Z</time>
      </trkpt>
      <trkpt lat="44.81184" lon="6.2961">
        <ele>1704.8</ele>
        <time>2024-08-13T05:57:14Z</time>
      </trkpt>
      <trkpt lat="44.81184" lon="6.2961">
        <ele>1704.8</ele>
        <time>2024-08-13T05:57:15Z</time>
      </trkpt>
      <trkpt lat="44.81186" lon="6.29612">
        <ele>1704.8</ele>
        <time>2024-08-13T05:57:16Z</time>
      </trkpt>
      <trkpt lat="44.81186" lon="6.29612">
        <ele>1704.6</ele>
        <time>2024-08-13T05:57:17Z</time>
      </trkpt>
      <trkpt lat="44.81188" lon="6.29614">
        <ele>1704.6</ele>
        <time>2024-08-13T05:57:18Z</time>
      </trkpt>
      <trkpt lat="44.81188" lon="6.29614">
        <ele>1704.4</ele>
        <time>2024-08-13T05:57:19Z</time>
      </trkpt>
      <trkpt lat="44.8119" lon="6.29615">
        <ele>1704.4</ele>
        <time>2024-08-13T05:57:20Z</time>
      </trkpt>
      <trkpt lat="44.8119" lon="6.29615">
        <ele>1704.2</ele>
        <time>2024-08-13T05:57:21Z</time>
      </trkpt>
      <trkpt lat="44.81192" lon="6.29616">
        <ele>1704</ele>
        <time>2024-08-13T05:57:22Z</time>
      </trkpt>
      <trkpt lat="44.81192" lon="6.29616">
        <ele>1704</ele>
        <time>2024-08-13T05:57:23Z</time>
      </trkpt>
      <trkpt lat="44.81194" lon="6.29616">
        <ele>1703.4</ele>
        <time>2024-08-13T05:57:24Z</time>
      </trkpt>
      <trkpt lat="44.81194" lon="6.29616">
        <ele>1703.2</ele>
        <time>2024-08-13T05:57:25Z</time>
      </trkpt>
      <trkpt lat="44.81197" lon="6.29617">
        <ele>1703</ele>
        <time>2024-08-13T05:57:26Z</time>
      </trkpt>
      <trkpt lat="44.81197" lon="6.29617">
        <ele>1702.8</ele>
        <time>2024-08-13T05:57:27Z</time>
      </trkpt>
      <trkpt lat="44.81198" lon="6.29619">
        <ele>1702.8</ele>
        <time>2024-08-13T05:57:28Z</time>
      </trkpt>
      <trkpt lat="44.81198" lon="6.29619">
        <ele>1702.4</ele>
        <time>2024-08-13T05:57:29Z</time>
      </trkpt>
      <trkpt lat="44.81198" lon="6.29619">
        <ele>1702.2</ele>
        <time>2024-08-13T05:57:30Z</time>
      </trkpt>
      <trkpt lat="44.812" lon="6.29621">
        <ele>1702.2</ele>
        <time>2024-08-13T05:57:31Z</time>
      </trkpt>
      <trkpt lat="44.812" lon="6.29621">
        <ele>1702</ele>
        <time>2024-08-13T05:57:32Z</time>
      </trkpt>
      <trkpt lat="44.81202" lon="6.29621">
        <ele>1701.6</ele>
        <time>2024-08-13T05:57:33Z</time>
      </trkpt>
      <trkpt lat="44.81202" lon="6.29621">
        <ele>1701.4</ele>
        <time>2024-08-13T05:57:34Z</time>
      </trkpt>
      <trkpt lat="44.81204" lon="6.29621">
        <ele>1701.2</ele>
        <time>2024-08-13T05:57:35Z</time>
      </trkpt>
      <trkpt lat="44.81204" lon="6.29621">
        <ele>1701</ele>
        <time>2024-08-13T05:57:36Z</time>
      </trkpt>
      <trkpt lat="44.81206" lon="6.29622">
        <ele>1700.8</ele>
        <time>2024-08-13T05:57:37Z</time>
      </trkpt>
      <trkpt lat="44.81206" lon="6.29622">
        <ele>1700.6</ele>
        <time>2024-08-13T05:57:38Z</time>
      </trkpt>
      <trkpt lat="44.81208" lon="6.29623">
        <ele>1700.2</ele>
        <time>2024-08-13T05:57:39Z</time>
      </trkpt>
      <trkpt lat="44.81208" lon="6.29623">
        <ele>1700</ele>
        <time>2024-08-13T05:57:40Z</time>
      </trkpt>
      <trkpt lat="44.8121" lon="6.29623">
        <ele>1699.8</ele>
        <time>2024-08-13T05:57:41Z</time>
      </trkpt>
      <trkpt lat="44.8121" lon="6.29623">
        <ele>1699.6</ele>
        <time>2024-08-13T05:57:42Z</time>
      </trkpt>
      <trkpt lat="44.81213" lon="6.29625">
        <ele>1699.6</ele>
        <time>2024-08-13T05:57:43Z</time>
      </trkpt>
      <trkpt lat="44.81213" lon="6.29625">
        <ele>1699.6</ele>
        <time>2024-08-13T05:57:44Z</time>
      </trkpt>
      <trkpt lat="44.81215" lon="6.29626">
        <ele>1699.4</ele>
        <time>2024-08-13T05:57:45Z</time>
      </trkpt>
      <trkpt lat="44.81215" lon="6.29626">
        <ele>1699.2</ele>
        <time>2024-08-13T05:57:46Z</time>
      </trkpt>
      <trkpt lat="44.81218" lon="6.29628">
        <ele>1699</ele>
        <time>2024-08-13T05:57:47Z</time>
      </trkpt>
      <trkpt lat="44.81218" lon="6.29628">
        <ele>1699</ele>
        <time>2024-08-13T05:57:48Z</time>
      </trkpt>
      <trkpt lat="44.8122" lon="6.2963">
        <ele>1699</ele>
        <time>2024-08-13T05:57:49Z</time>
      </trkpt>
      <trkpt lat="44.8122" lon="6.2963">
        <ele>1699</ele>
        <time>2024-08-13T05:57:50Z</time>
      </trkpt>
      <trkpt lat="44.81222" lon="6.29632">
        <ele>1698.8</ele>
        <time>2024-08-13T05:57:51Z</time>
      </trkpt>
      <trkpt lat="44.81222" lon="6.29632">
        <ele>1698.8</ele>
        <time>2024-08-13T05:57:52Z</time>
      </trkpt>
      <trkpt lat="44.81224" lon="6.29634">
        <ele>1698.8</ele>
        <time>2024-08-13T05:57:53Z</time>
      </trkpt>
      <trkpt lat="44.81224" lon="6.29634">
        <ele>1698.4</ele>
        <time>2024-08-13T05:57:54Z</time>
      </trkpt>
      <trkpt lat="44.81226" lon="6.29636">
        <ele>1698</ele>
        <time>2024-08-13T05:57:55Z</time>
      </trkpt>
      <trkpt lat="44.81226" lon="6.29636">
        <ele>1698</ele>
        <time>2024-08-13T05:57:56Z</time>
      </trkpt>
      <trkpt lat="44.81228" lon="6.29638">
        <ele>1697.8</ele>
        <time>2024-08-13T05:57:57Z</time>
      </trkpt>
      <trkpt lat="44.81228" lon="6.29638">
        <ele>1697.6</ele>
        <time>2024-08-13T05:57:58Z</time>
      </trkpt>
      <trkpt lat="44.81229" lon="6.2964">
        <ele>1697.4</ele>
        <time>2024-08-13T05:57:59Z</time>
      </trkpt>
      <trkpt lat="44.81229" lon="6.2964">
        <ele>1697.4</ele>
        <time>2024-08-13T05:58:00Z</time>
      </trkpt>
      <trkpt lat="44.81232" lon="6.29642">
        <ele>1697.2</ele>
        <time>2024-08-13T05:58:01Z</time>
      </trkpt>
      <trkpt lat="44.81232" lon="6.29642">
        <ele>1696.8</ele>
        <time>2024-08-13T05:58:02Z</time>
      </trkpt>
      <trkpt lat="44.81234" lon="6.29644">
        <ele>1696.8</ele>
        <time>2024-08-13T05:58:03Z</time>
      </trkpt>
      <trkpt lat="44.81236" lon="6.29645">
        <ele>1696.8</ele>
        <time>2024-08-13T05:58:04Z</time>
      </trkpt>
      <trkpt lat="44.81236" lon="6.29645">
        <ele>1696.6</ele>
        <time>2024-08-13T05:58:05Z</time>
      </trkpt>
      <trkpt lat="44.81239" lon="6.29647">
        <ele>1696.4</ele>
        <time>2024-08-13T05:58:06Z</time>
      </trkpt>
      <trkpt lat="44.81241" lon="6.29647">
        <ele>1696.2</ele>
        <time>2024-08-13T05:58:07Z</time>
      </trkpt>
      <trkpt lat="44.81243" lon="6.29648">
        <ele>1696.2</ele>
        <time>2024-08-13T05:58:08Z</time>
      </trkpt>
      <trkpt lat="44.81243" lon="6.29648">
        <ele>1696.2</ele>
        <time>2024-08-13T05:58:09Z</time>
      </trkpt>
      <trkpt lat="44.81245" lon="6.29648">
        <ele>1696.2</ele>
        <time>2024-08-13T05:58:10Z</time>
      </trkpt>
      <trkpt lat="44.81245" lon="6.29648">
        <ele>1696.2</ele>
        <time>2024-08-13T05:58:11Z</time>
      </trkpt>
      <trkpt lat="44.81248" lon="6.29648">
        <ele>1696.2</ele>
        <time>2024-08-13T05:58:12Z</time>
      </trkpt>
      <trkpt lat="44.81248" lon="6.29648">
        <ele>1696</ele>
        <time>2024-08-13T05:58:13Z</time>
      </trkpt>
      <trkpt lat="44.8125" lon="6.29648">
        <ele>1696</ele>
        <time>2024-08-13T05:58:14Z</time>
      </trkpt>
      <trkpt lat="44.8125" lon="6.29648">
        <ele>1696</ele>
        <time>2024-08-13T05:58:15Z</time>
      </trkpt>
      <trkpt lat="44.81253" lon="6.29649">
        <ele>1696</ele>
        <time>2024-08-13T05:58:16Z</time>
      </trkpt>
      <trkpt lat="44.81253" lon="6.29649">
        <ele>1695.8</ele>
        <time>2024-08-13T05:58:17Z</time>
      </trkpt>
      <trkpt lat="44.81256" lon="6.29648">
        <ele>1695.6</ele>
        <time>2024-08-13T05:58:18Z</time>
      </trkpt>
      <trkpt lat="44.81256" lon="6.29648">
        <ele>1695.4</ele>
        <time>2024-08-13T05:58:19Z</time>
      </trkpt>
      <trkpt lat="44.81258" lon="6.29647">
        <ele>1695.4</ele>
        <time>2024-08-13T05:58:20Z</time>
      </trkpt>
      <trkpt lat="44.81258" lon="6.29647">
        <ele>1695</ele>
        <time>2024-08-13T05:58:21Z</time>
      </trkpt>
      <trkpt lat="44.81261" lon="6.29646">
        <ele>1694.8</ele>
        <time>2024-08-13T05:58:22Z</time>
      </trkpt>
      <trkpt lat="44.81263" lon="6.29646">
        <ele>1694.8</ele>
        <time>2024-08-13T05:58:23Z</time>
      </trkpt>
      <trkpt lat="44.81263" lon="6.29646">
        <ele>1694.6</ele>
        <time>2024-08-13T05:58:24Z</time>
      </trkpt>
      <trkpt lat="44.81265" lon="6.29645">
        <ele>1694.4</ele>
        <time>2024-08-13T05:58:25Z</time>
      </trkpt>
      <trkpt lat="44.81265" lon="6.29645">
        <ele>1694.2</ele>
        <time>2024-08-13T05:58:26Z</time>
      </trkpt>
      <trkpt lat="44.81268" lon="6.29645">
        <ele>1694</ele>
        <time>2024-08-13T05:58:27Z</time>
      </trkpt>
      <trkpt lat="44.81268" lon="6.29645">
        <ele>1694</ele>
        <time>2024-08-13T05:58:28Z</time>
      </trkpt>
      <trkpt lat="44.8127" lon="6.29644">
        <ele>1694</ele>
        <time>2024-08-13T05:58:29Z</time>
      </trkpt>
      <trkpt lat="44.8127" lon="6.29644">
        <ele>1693.6</ele>
        <time>2024-08-13T05:58:30Z</time>
      </trkpt>
      <trkpt lat="44.81273" lon="6.29644">
        <ele>1693</ele>
        <time>2024-08-13T05:58:31Z</time>
      </trkpt>
      <trkpt lat="44.81273" lon="6.29644">
        <ele>1692.6</ele>
        <time>2024-08-13T05:58:32Z</time>
      </trkpt>
      <trkpt lat="44.81276" lon="6.29643">
        <ele>1692.6</ele>
        <time>2024-08-13T05:58:33Z</time>
      </trkpt>
      <trkpt lat="44.81278" lon="6.29642">
        <ele>1692.6</ele>
        <time>2024-08-13T05:58:34Z</time>
      </trkpt>
      <trkpt lat="44.81278" lon="6.29642">
        <ele>1692.4</ele>
        <time>2024-08-13T05:58:35Z</time>
      </trkpt>
      <trkpt lat="44.81281" lon="6.29642">
        <ele>1692.2</ele>
        <time>2024-08-13T05:58:36Z</time>
      </trkpt>
      <trkpt lat="44.81281" lon="6.29642">
        <ele>1692.2</ele>
        <time>2024-08-13T05:58:37Z</time>
      </trkpt>
      <trkpt lat="44.81284" lon="6.29642">
        <ele>1692</ele>
        <time>2024-08-13T05:58:38Z</time>
      </trkpt>
      <trkpt lat="44.81285" lon="6.29642">
        <ele>1692</ele>
        <time>2024-08-13T05:58:39Z</time>
      </trkpt>
      <trkpt lat="44.81285" lon="6.29642">
        <ele>1691.8</ele>
        <time>2024-08-13T05:58:40Z</time>
      </trkpt>
      <trkpt lat="44.81289" lon="6.29642">
        <ele>1691.6</ele>
        <time>2024-08-13T05:58:41Z</time>
      </trkpt>
      <trkpt lat="44.81289" lon="6.29642">
        <ele>1691.4</ele>
        <time>2024-08-13T05:58:42Z</time>
      </trkpt>
      <trkpt lat="44.81291" lon="6.29642">
        <ele>1691.4</ele>
        <time>2024-08-13T05:58:43Z</time>
      </trkpt>
      <trkpt lat="44.81291" lon="6.29642">
        <ele>1691</ele>
        <time>2024-08-13T05:58:44Z</time>
      </trkpt>
      <trkpt lat="44.81294" lon="6.29641">
        <ele>1691</ele>
        <time>2024-08-13T05:58:45Z</time>
      </trkpt>
      <trkpt lat="44.81294" lon="6.29641">
        <ele>1690.6</ele>
        <time>2024-08-13T05:58:46Z</time>
      </trkpt>
      <trkpt lat="44.81297" lon="6.29641">
        <ele>1690.6</ele>
        <time>2024-08-13T05:58:47Z</time>
      </trkpt>
      <trkpt lat="44.81297" lon="6.29641">
        <ele>1690.4</ele>
        <time>2024-08-13T05:58:48Z</time>
      </trkpt>
      <trkpt lat="44.813" lon="6.29641">
        <ele>1690</ele>
        <time>2024-08-13T05:58:49Z</time>
      </trkpt>
      <trkpt lat="44.81301" lon="6.2964">
        <ele>1689.8</ele>
        <time>2024-08-13T05:58:50Z</time>
      </trkpt>
      <trkpt lat="44.81301" lon="6.2964">
        <ele>1689.6</ele>
        <time>2024-08-13T05:58:51Z</time>
      </trkpt>
      <trkpt lat="44.81304" lon="6.2964">
        <ele>1689.2</ele>
        <time>2024-08-13T05:58:52Z</time>
      </trkpt>
      <trkpt lat="44.81304" lon="6.2964">
        <ele>1689.2</ele>
        <time>2024-08-13T05:58:53Z</time>
      </trkpt>
      <trkpt lat="44.81307" lon="6.29639">
        <ele>1689</ele>
        <time>2024-08-13T05:58:54Z</time>
      </trkpt>
      <trkpt lat="44.81307" lon="6.29639">
        <ele>1689</ele>
        <time>2024-08-13T05:58:55Z</time>
      </trkpt>
      <trkpt lat="44.81309" lon="6.29638">
        <ele>1688.8</ele>
        <time>2024-08-13T05:58:56Z</time>
      </trkpt>
      <trkpt lat="44.81309" lon="6.29638">
        <ele>1688.6</ele>
        <time>2024-08-13T05:58:57Z</time>
      </trkpt>
      <trkpt lat="44.81313" lon="6.29638">
        <ele>1688.2</ele>
        <time>2024-08-13T05:58:58Z</time>
      </trkpt>
      <trkpt lat="44.81313" lon="6.29638">
        <ele>1688.2</ele>
        <time>2024-08-13T05:58:59Z</time>
      </trkpt>
      <trkpt lat="44.81315" lon="6.29638">
        <ele>1688.2</ele>
        <time>2024-08-13T05:59:00Z</time>
      </trkpt>
      <trkpt lat="44.81317" lon="6.29638">
        <ele>1687.8</ele>
        <time>2024-08-13T05:59:01Z</time>
      </trkpt>
      <trkpt lat="44.81317" lon="6.29638">
        <ele>1687.6</ele>
        <time>2024-08-13T05:59:02Z</time>
      </trkpt>
      <trkpt lat="44.8132" lon="6.29636">
        <ele>1687.6</ele>
        <time>2024-08-13T05:59:03Z</time>
      </trkpt>
      <trkpt lat="44.8132" lon="6.29636">
        <ele>1687.6</ele>
        <time>2024-08-13T05:59:04Z</time>
      </trkpt>
      <trkpt lat="44.81323" lon="6.29635">
        <ele>1687.4</ele>
        <time>2024-08-13T05:59:05Z</time>
      </trkpt>
      <trkpt lat="44.81323" lon="6.29635">
        <ele>1687.2</ele>
        <time>2024-08-13T05:59:06Z</time>
      </trkpt>
      <trkpt lat="44.81325" lon="6.29634">
        <ele>1687.2</ele>
        <time>2024-08-13T05:59:07Z</time>
      </trkpt>
      <trkpt lat="44.81325" lon="6.29634">
        <ele>1687.2</ele>
        <time>2024-08-13T05:59:08Z</time>
      </trkpt>
      <trkpt lat="44.81328" lon="6.29633">
        <ele>1686.8</ele>
        <time>2024-08-13T05:59:09Z</time>
      </trkpt>
      <trkpt lat="44.81328" lon="6.29633">
        <ele>1686.4</ele>
        <time>2024-08-13T05:59:10Z</time>
      </trkpt>
      <trkpt lat="44.8133" lon="6.29632">
        <ele>1685.8</ele>
        <time>2024-08-13T05:59:11Z</time>
      </trkpt>
      <trkpt lat="44.8133" lon="6.29632">
        <ele>1685.4</ele>
        <time>2024-08-13T05:59:12Z</time>
      </trkpt>
      <trkpt lat="44.81333" lon="6.2963">
        <ele>1685.4</ele>
        <time>2024-08-13T05:59:13Z</time>
      </trkpt>
      <trkpt lat="44.81333" lon="6.2963">
        <ele>1685.2</ele>
        <time>2024-08-13T05:59:14Z</time>
      </trkpt>
      <trkpt lat="44.81335" lon="6.29629">
        <ele>1685</ele>
        <time>2024-08-13T05:59:15Z</time>
      </trkpt>
      <trkpt lat="44.81335" lon="6.29629">
        <ele>1685</ele>
        <time>2024-08-13T05:59:16Z</time>
      </trkpt>
      <trkpt lat="44.81337" lon="6.29629">
        <ele>1684.8</ele>
        <time>2024-08-13T05:59:17Z</time>
      </trkpt>
      <trkpt lat="44.81337" lon="6.29629">
        <ele>1684.4</ele>
        <time>2024-08-13T05:59:18Z</time>
      </trkpt>
      <trkpt lat="44.81341" lon="6.29628">
        <ele>1684.2</ele>
        <time>2024-08-13T05:59:19Z</time>
      </trkpt>
      <trkpt lat="44.81341" lon="6.29628">
        <ele>1683.8</ele>
        <time>2024-08-13T05:59:20Z</time>
      </trkpt>
      <trkpt lat="44.81343" lon="6.29627">
        <ele>1683.6</ele>
        <time>2024-08-13T05:59:21Z</time>
      </trkpt>
      <trkpt lat="44.81343" lon="6.29627">
        <ele>1683.6</ele>
        <time>2024-08-13T05:59:22Z</time>
      </trkpt>
      <trkpt lat="44.81345" lon="6.29627">
        <ele>1683.6</ele>
        <time>2024-08-13T05:59:23Z</time>
      </trkpt>
      <trkpt lat="44.81345" lon="6.29627">
        <ele>1683.4</ele>
        <time>2024-08-13T05:59:24Z</time>
      </trkpt>
      <trkpt lat="44.81349" lon="6.29627">
        <ele>1683.4</ele>
        <time>2024-08-13T05:59:25Z</time>
      </trkpt>
      <trkpt lat="44.81349" lon="6.29627">
        <ele>1683.4</ele>
        <time>2024-08-13T05:59:26Z</time>
      </trkpt>
      <trkpt lat="44.81351" lon="6.29625">
        <ele>1683.2</ele>
        <time>2024-08-13T05:59:27Z</time>
      </trkpt>
      <trkpt lat="44.81351" lon="6.29625">
        <ele>1683</ele>
        <time>2024-08-13T05:59:28Z</time>
      </trkpt>
      <trkpt lat="44.81353" lon="6.29624">
        <ele>1682.8</ele>
        <time>2024-08-13T05:59:29Z</time>
      </trkpt>
      <trkpt lat="44.81353" lon="6.29624">
        <ele>1682.6</ele>
        <time>2024-08-13T05:59:30Z</time>
      </trkpt>
      <trkpt lat="44.81356" lon="6.29623">
        <ele>1682.6</ele>
        <time>2024-08-13T05:59:31Z</time>
      </trkpt>
      <trkpt lat="44.81356" lon="6.29623">
        <ele>1682.6</ele>
        <time>2024-08-13T05:59:32Z</time>
      </trkpt>
      <trkpt lat="44.81359" lon="6.29622">
        <ele>1682.6</ele>
        <time>2024-08-13T05:59:33Z</time>
      </trkpt>
      <trkpt lat="44.81359" lon="6.29622">
        <ele>1682.2</ele>
        <time>2024-08-13T05:59:34Z</time>
      </trkpt>
      <trkpt lat="44.81362" lon="6.29622">
        <ele>1682</ele>
        <time>2024-08-13T05:59:35Z</time>
      </trkpt>
      <trkpt lat="44.81362" lon="6.29622">
        <ele>1682</ele>
        <time>2024-08-13T05:59:36Z</time>
      </trkpt>
      <trkpt lat="44.81365" lon="6.29621">
        <ele>1682</ele>
        <time>2024-08-13T05:59:37Z</time>
      </trkpt>
      <trkpt lat="44.81365" lon="6.29621">
        <ele>1681.8</ele>
        <time>2024-08-13T05:59:38Z</time>
      </trkpt>
      <trkpt lat="44.81367" lon="6.2962">
        <ele>1681.6</ele>
        <time>2024-08-13T05:59:39Z</time>
      </trkpt>
      <trkpt lat="44.81367" lon="6.2962">
        <ele>1681.6</ele>
        <time>2024-08-13T05:59:40Z</time>
      </trkpt>
      <trkpt lat="44.8137" lon="6.29619">
        <ele>1681.6</ele>
        <time>2024-08-13T05:59:41Z</time>
      </trkpt>
      <trkpt lat="44.8137" lon="6.29619">
        <ele>1681.4</ele>
        <time>2024-08-13T05:59:42Z</time>
      </trkpt>
      <trkpt lat="44.81373" lon="6.29619">
        <ele>1681</ele>
        <time>2024-08-13T05:59:43Z</time>
      </trkpt>
      <trkpt lat="44.81373" lon="6.29619">
        <ele>1680.8</ele>
        <time>2024-08-13T05:59:44Z</time>
      </trkpt>
      <trkpt lat="44.81375" lon="6.29619">
        <ele>1680.8</ele>
        <time>2024-08-13T05:59:45Z</time>
      </trkpt>
      <trkpt lat="44.81375" lon="6.29619">
        <ele>1680.6</ele>
        <time>2024-08-13T05:59:46Z</time>
      </trkpt>
      <trkpt lat="44.81378" lon="6.29618">
        <ele>1680.6</ele>
        <time>2024-08-13T05:59:47Z</time>
      </trkpt>
      <trkpt lat="44.81378" lon="6.29618">
        <ele>1680.4</ele>
        <time>2024-08-13T05:59:48Z</time>
      </trkpt>
      <trkpt lat="44.81381" lon="6.29618">
        <ele>1680.4</ele>
        <time>2024-08-13T05:59:49Z</time>
      </trkpt>
      <trkpt lat="44.81381" lon="6.29618">
        <ele>1680</ele>
        <time>2024-08-13T05:59:50Z</time>
      </trkpt>
      <trkpt lat="44.81383" lon="6.29617">
        <ele>1680</ele>
        <time>2024-08-13T05:59:51Z</time>
      </trkpt>
      <trkpt lat="44.81383" lon="6.29617">
        <ele>1680</ele>
        <time>2024-08-13T05:59:52Z</time>
      </trkpt>
      <trkpt lat="44.81386" lon="6.29615">
        <ele>1679.6</ele>
        <time>2024-08-13T05:59:53Z</time>
      </trkpt>
      <trkpt lat="44.81386" lon="6.29615">
        <ele>1679.4</ele>
        <time>2024-08-13T05:59:54Z</time>
      </trkpt>
      <trkpt lat="44.81388" lon="6.29614">
        <ele>1679.2</ele>
        <time>2024-08-13T05:59:55Z</time>
      </trkpt>
      <trkpt lat="44.81388" lon="6.29614">
        <ele>1679</ele>
        <time>2024-08-13T05:59:56Z</time>
      </trkpt>
      <trkpt lat="44.81391" lon="6.29613">
        <ele>1678.8</ele>
        <time>2024-08-13T05:59:57Z</time>
      </trkpt>
      <trkpt lat="44.81391" lon="6.29613">
        <ele>1678.6</ele>
        <time>2024-08-13T05:59:58Z</time>
      </trkpt>
      <trkpt lat="44.81393" lon="6.29612">
        <ele>1678.6</ele>
        <time>2024-08-13T05:59:59Z</time>
      </trkpt>
      <trkpt lat="44.81393" lon="6.29612">
        <ele>1678.6</ele>
        <time>2024-08-13T06:00:00Z</time>
      </trkpt>
      <trkpt lat="44.81396" lon="6.29612">
        <ele>1678.6</ele>
        <time>2024-08-13T06:00:01Z</time>
      </trkpt>
      <trkpt lat="44.81396" lon="6.29612">
        <ele>1678.2</ele>
        <time>2024-08-13T06:00:02Z</time>
      </trkpt>
      <trkpt lat="44.81399" lon="6.29612">
        <ele>1678</ele>
        <time>2024-08-13T06:00:03Z</time>
      </trkpt>
      <trkpt lat="44.81399" lon="6.29612">
        <ele>1678</ele>
        <time>2024-08-13T06:00:04Z</time>
      </trkpt>
      <trkpt lat="44.81402" lon="6.29611">
        <ele>1677.6</ele>
        <time>2024-08-13T06:00:05Z</time>
      </trkpt>
      <trkpt lat="44.81402" lon="6.29611">
        <ele>1677.4</ele>
        <time>2024-08-13T06:00:06Z</time>
      </trkpt>
      <trkpt lat="44.81405" lon="6.2961">
        <ele>1677</ele>
        <time>2024-08-13T06:00:07Z</time>
      </trkpt>
      <trkpt lat="44.81405" lon="6.2961">
        <ele>1676.8</ele>
        <time>2024-08-13T06:00:08Z</time>
      </trkpt>
      <trkpt lat="44.81407" lon="6.29609">
        <ele>1676.6</ele>
        <time>2024-08-13T06:00:09Z</time>
      </trkpt>
      <trkpt lat="44.81407" lon="6.29609">
        <ele>1676.6</ele>
        <time>2024-08-13T06:00:10Z</time>
      </trkpt>
      <trkpt lat="44.8141" lon="6.29608">
        <ele>1676.4</ele>
        <time>2024-08-13T06:00:11Z</time>
      </trkpt>
      <trkpt lat="44.8141" lon="6.29608">
        <ele>1676.4</ele>
        <time>2024-08-13T06:00:12Z</time>
      </trkpt>
      <trkpt lat="44.81412" lon="6.29606">
        <ele>1676.2</ele>
        <time>2024-08-13T06:00:13Z</time>
      </trkpt>
      <trkpt lat="44.81412" lon="6.29606">
        <ele>1676</ele>
        <time>2024-08-13T06:00:14Z</time>
      </trkpt>
      <trkpt lat="44.81415" lon="6.29605">
        <ele>1676</ele>
        <time>2024-08-13T06:00:15Z</time>
      </trkpt>
      <trkpt lat="44.81415" lon="6.29605">
        <ele>1675.8</ele>
        <time>2024-08-13T06:00:16Z</time>
      </trkpt>
      <trkpt lat="44.81418" lon="6.29603">
        <ele>1675.8</ele>
        <time>2024-08-13T06:00:17Z</time>
      </trkpt>
      <trkpt lat="44.81418" lon="6.29603">
        <ele>1675.6</ele>
        <time>2024-08-13T06:00:18Z</time>
      </trkpt>
      <trkpt lat="44.8142" lon="6.29602">
        <ele>1675.4</ele>
        <time>2024-08-13T06:00:19Z</time>
      </trkpt>
      <trkpt lat="44.8142" lon="6.29602">
        <ele>1675.2</ele>
        <time>2024-08-13T06:00:20Z</time>
      </trkpt>
      <trkpt lat="44.81423" lon="6.29602">
        <ele>1675</ele>
        <time>2024-08-13T06:00:21Z</time>
      </trkpt>
      <trkpt lat="44.81423" lon="6.29602">
        <ele>1675</ele>
        <time>2024-08-13T06:00:22Z</time>
      </trkpt>
      <trkpt lat="44.81426" lon="6.29601">
        <ele>1674.8</ele>
        <time>2024-08-13T06:00:23Z</time>
      </trkpt>
      <trkpt lat="44.81426" lon="6.29601">
        <ele>1674.8</ele>
        <time>2024-08-13T06:00:24Z</time>
      </trkpt>
      <trkpt lat="44.81428" lon="6.296">
        <ele>1674.8</ele>
        <time>2024-08-13T06:00:25Z</time>
      </trkpt>
      <trkpt lat="44.81428" lon="6.296">
        <ele>1674.6</ele>
        <time>2024-08-13T06:00:26Z</time>
      </trkpt>
      <trkpt lat="44.81431" lon="6.29599">
        <ele>1674.4</ele>
        <time>2024-08-13T06:00:27Z</time>
      </trkpt>
      <trkpt lat="44.81431" lon="6.29599">
        <ele>1674.4</ele>
        <time>2024-08-13T06:00:28Z</time>
      </trkpt>
      <trkpt lat="44.81434" lon="6.29598">
        <ele>1674.4</ele>
        <time>2024-08-13T06:00:29Z</time>
      </trkpt>
      <trkpt lat="44.81434" lon="6.29598">
        <ele>1674.4</ele>
        <time>2024-08-13T06:00:30Z</time>
      </trkpt>
      <trkpt lat="44.81437" lon="6.29597">
        <ele>1674</ele>
        <time>2024-08-13T06:00:31Z</time>
      </trkpt>
      <trkpt lat="44.81437" lon="6.29597">
        <ele>1674</ele>
        <time>2024-08-13T06:00:32Z</time>
      </trkpt>
      <trkpt lat="44.81439" lon="6.29596">
        <ele>1674</ele>
        <time>2024-08-13T06:00:33Z</time>
      </trkpt>
      <trkpt lat="44.81439" lon="6.29596">
        <ele>1674</ele>
        <time>2024-08-13T06:00:34Z</time>
      </trkpt>
      <trkpt lat="44.81442" lon="6.29595">
        <ele>1673.8</ele>
        <time>2024-08-13T06:00:35Z</time>
      </trkpt>
      <trkpt lat="44.81442" lon="6.29595">
        <ele>1673.6</ele>
        <time>2024-08-13T06:00:36Z</time>
      </trkpt>
      <trkpt lat="44.81445" lon="6.29593">
        <ele>1673.4</ele>
        <time>2024-08-13T06:00:37Z</time>
      </trkpt>
      <trkpt lat="44.81445" lon="6.29593">
        <ele>1673.4</ele>
        <time>2024-08-13T06:00:38Z</time>
      </trkpt>
      <trkpt lat="44.81448" lon="6.29593">
        <ele>1673.2</ele>
        <time>2024-08-13T06:00:39Z</time>
      </trkpt>
      <trkpt lat="44.81448" lon="6.29593">
        <ele>1673</ele>
        <time>2024-08-13T06:00:40Z</time>
      </trkpt>
      <trkpt lat="44.8145" lon="6.29593">
        <ele>1672.8</ele>
        <time>2024-08-13T06:00:41Z</time>
      </trkpt>
      <trkpt lat="44.8145" lon="6.29593">
        <ele>1672.8</ele>
        <time>2024-08-13T06:00:42Z</time>
      </trkpt>
      <trkpt lat="44.81453" lon="6.29592">
        <ele>1672.8</ele>
        <time>2024-08-13T06:00:43Z</time>
      </trkpt>
      <trkpt lat="44.81453" lon="6.29592">
        <ele>1672.6</ele>
        <time>2024-08-13T06:00:44Z</time>
      </trkpt>
      <trkpt lat="44.81455" lon="6.29591">
        <ele>1672.4</ele>
        <time>2024-08-13T06:00:45Z</time>
      </trkpt>
      <trkpt lat="44.81455" lon="6.29591">
        <ele>1672.4</ele>
        <time>2024-08-13T06:00:46Z</time>
      </trkpt>
      <trkpt lat="44.81458" lon="6.29591">
        <ele>1672.2</ele>
        <time>2024-08-13T06:00:47Z</time>
      </trkpt>
      <trkpt lat="44.81458" lon="6.29591">
        <ele>1672</ele>
        <time>2024-08-13T06:00:48Z</time>
      </trkpt>
      <trkpt lat="44.8146" lon="6.2959">
        <ele>1672</ele>
        <time>2024-08-13T06:00:49Z</time>
      </trkpt>
      <trkpt lat="44.8146" lon="6.2959">
        <ele>1671.8</ele>
        <time>2024-08-13T06:00:50Z</time>
      </trkpt>
      <trkpt lat="44.8146" lon="6.2959">
        <ele>1671.4</ele>
        <time>2024-08-13T06:00:51Z</time>
      </trkpt>
      <trkpt lat="44.8146" lon="6.2959">
        <ele>1671.2</ele>
        <time>2024-08-13T06:00:52Z</time>
      </trkpt>
      <trkpt lat="44.8146" lon="6.2959">
        <ele>1671.2</ele>
        <time>2024-08-13T06:00:53Z</time>
      </trkpt>
      <trkpt lat="44.8146" lon="6.2959">
        <ele>1671.2</ele>
        <time>2024-08-13T06:00:54Z</time>
      </trkpt>
      <trkpt lat="44.81461" lon="6.2959">
        <ele>1671</ele>
        <time>2024-08-13T06:00:55Z</time>
      </trkpt>
      <trkpt lat="44.81461" lon="6.2959">
        <ele>1671</ele>
        <time>2024-08-13T06:00:56Z</time>
      </trkpt>
      <trkpt lat="44.81464" lon="6.29589">
        <ele>1671</ele>
        <time>2024-08-13T06:00:57Z</time>
      </trkpt>
      <trkpt lat="44.81466" lon="6.29589">
        <ele>1671.2</ele>
        <time>2024-08-13T06:00:58Z</time>
      </trkpt>
      <trkpt lat="44.81468" lon="6.29588">
        <ele>1671.2</ele>
        <time>2024-08-13T06:00:59Z</time>
      </trkpt>
      <trkpt lat="44.81468" lon="6.29588">
        <ele>1671.2</ele>
        <time>2024-08-13T06:01:00Z</time>
      </trkpt>
      <trkpt lat="44.81471" lon="6.29587">
        <ele>1671</ele>
        <time>2024-08-13T06:01:01Z</time>
      </trkpt>
      <trkpt lat="44.81471" lon="6.29587">
        <ele>1670.6</ele>
        <time>2024-08-13T06:01:02Z</time>
      </trkpt>
      <trkpt lat="44.81474" lon="6.29586">
        <ele>1670.6</ele>
        <time>2024-08-13T06:01:03Z</time>
      </trkpt>
      <trkpt lat="44.81474" lon="6.29586">
        <ele>1670.4</ele>
        <time>2024-08-13T06:01:04Z</time>
      </trkpt>
      <trkpt lat="44.81476" lon="6.29584">
        <ele>1670.4</ele>
        <time>2024-08-13T06:01:05Z</time>
      </trkpt>
      <trkpt lat="44.81476" lon="6.29584">
        <ele>1670</ele>
        <time>2024-08-13T06:01:06Z</time>
      </trkpt>
      <trkpt lat="44.81478" lon="6.29582">
        <ele>1669.6</ele>
        <time>2024-08-13T06:01:07Z</time>
      </trkpt>
      <trkpt lat="44.8148" lon="6.29581">
        <ele>1669.2</ele>
        <time>2024-08-13T06:01:08Z</time>
      </trkpt>
      <trkpt lat="44.8148" lon="6.29581">
        <ele>1669.2</ele>
        <time>2024-08-13T06:01:09Z</time>
      </trkpt>
      <trkpt lat="44.81483" lon="6.2958">
        <ele>1668.8</ele>
        <time>2024-08-13T06:01:10Z</time>
      </trkpt>
      <trkpt lat="44.81483" lon="6.2958">
        <ele>1668.8</ele>
        <time>2024-08-13T06:01:11Z</time>
      </trkpt>
      <trkpt lat="44.81486" lon="6.2958">
        <ele>1668.6</ele>
        <time>2024-08-13T06:01:12Z</time>
      </trkpt>
      <trkpt lat="44.81486" lon="6.2958">
        <ele>1668.4</ele>
        <time>2024-08-13T06:01:13Z</time>
      </trkpt>
      <trkpt lat="44.81489" lon="6.29579">
        <ele>1668.2</ele>
        <time>2024-08-13T06:01:14Z</time>
      </trkpt>
      <trkpt lat="44.81489" lon="6.29579">
        <ele>1667.6</ele>
        <time>2024-08-13T06:01:15Z</time>
      </trkpt>
      <trkpt lat="44.81492" lon="6.29579">
        <ele>1667.4</ele>
        <time>2024-08-13T06:01:16Z</time>
      </trkpt>
      <trkpt lat="44.81492" lon="6.29579">
        <ele>1667.2</ele>
        <time>2024-08-13T06:01:17Z</time>
      </trkpt>
      <trkpt lat="44.81495" lon="6.29578">
        <ele>1667.2</ele>
        <time>2024-08-13T06:01:18Z</time>
      </trkpt>
      <trkpt lat="44.81495" lon="6.29578">
        <ele>1667</ele>
        <time>2024-08-13T06:01:19Z</time>
      </trkpt>
      <trkpt lat="44.81498" lon="6.29577">
        <ele>1666.8</ele>
        <time>2024-08-13T06:01:20Z</time>
      </trkpt>
      <trkpt lat="44.81498" lon="6.29577">
        <ele>1666.6</ele>
        <time>2024-08-13T06:01:21Z</time>
      </trkpt>
      <trkpt lat="44.815" lon="6.29576">
        <ele>1666.6</ele>
        <time>2024-08-13T06:01:22Z</time>
      </trkpt>
      <trkpt lat="44.815" lon="6.29576">
        <ele>1666.6</ele>
        <time>2024-08-13T06:01:23Z</time>
      </trkpt>
      <trkpt lat="44.81503" lon="6.29574">
        <ele>1666.4</ele>
        <time>2024-08-13T06:01:24Z</time>
      </trkpt>
      <trkpt lat="44.81503" lon="6.29574">
        <ele>1666.2</ele>
        <time>2024-08-13T06:01:25Z</time>
      </trkpt>
      <trkpt lat="44.81506" lon="6.29574">
        <ele>1666.2</ele>
        <time>2024-08-13T06:01:26Z</time>
      </trkpt>
      <trkpt lat="44.81506" lon="6.29574">
        <ele>1666</ele>
        <time>2024-08-13T06:01:27Z</time>
      </trkpt>
      <trkpt lat="44.81509" lon="6.29573">
        <ele>1665.8</ele>
        <time>2024-08-13T06:01:28Z</time>
      </trkpt>
      <trkpt lat="44.81509" lon="6.29573">
        <ele>1665.8</ele>
        <time>2024-08-13T06:01:29Z</time>
      </trkpt>
      <trkpt lat="44.81512" lon="6.29573">
        <ele>1665.4</ele>
        <time>2024-08-13T06:01:30Z</time>
      </trkpt>
      <trkpt lat="44.81512" lon="6.29573">
        <ele>1665.4</ele>
        <time>2024-08-13T06:01:31Z</time>
      </trkpt>
      <trkpt lat="44.81515" lon="6.29572">
        <ele>1665.4</ele>
        <time>2024-08-13T06:01:32Z</time>
      </trkpt>
      <trkpt lat="44.81515" lon="6.29572">
        <ele>1665.2</ele>
        <time>2024-08-13T06:01:33Z</time>
      </trkpt>
      <trkpt lat="44.81517" lon="6.29571">
        <ele>1665.4</ele>
        <time>2024-08-13T06:01:34Z</time>
      </trkpt>
      <trkpt lat="44.81519" lon="6.29571">
        <ele>1665.2</ele>
        <time>2024-08-13T06:01:35Z</time>
      </trkpt>
      <trkpt lat="44.81519" lon="6.29571">
        <ele>1665</ele>
        <time>2024-08-13T06:01:36Z</time>
      </trkpt>
      <trkpt lat="44.81522" lon="6.29571">
        <ele>1664.8</ele>
        <time>2024-08-13T06:01:37Z</time>
      </trkpt>
      <trkpt lat="44.81522" lon="6.29571">
        <ele>1664.8</ele>
        <time>2024-08-13T06:01:38Z</time>
      </trkpt>
      <trkpt lat="44.81525" lon="6.29569">
        <ele>1664.8</ele>
        <time>2024-08-13T06:01:39Z</time>
      </trkpt>
      <trkpt lat="44.81525" lon="6.29569">
        <ele>1664.4</ele>
        <time>2024-08-13T06:01:40Z</time>
      </trkpt>
      <trkpt lat="44.81527" lon="6.29568">
        <ele>1664.4</ele>
        <time>2024-08-13T06:01:41Z</time>
      </trkpt>
      <trkpt lat="44.81527" lon="6.29568">
        <ele>1664.2</ele>
        <time>2024-08-13T06:01:42Z</time>
      </trkpt>
      <trkpt lat="44.8153" lon="6.29567">
        <ele>1663.8</ele>
        <time>2024-08-13T06:01:43Z</time>
      </trkpt>
      <trkpt lat="44.8153" lon="6.29567">
        <ele>1663.8</ele>
        <time>2024-08-13T06:01:44Z</time>
      </trkpt>
      <trkpt lat="44.81533" lon="6.29566">
        <ele>1663.8</ele>
        <time>2024-08-13T06:01:45Z</time>
      </trkpt>
      <trkpt lat="44.81533" lon="6.29566">
        <ele>1663.8</ele>
        <time>2024-08-13T06:01:46Z</time>
      </trkpt>
      <trkpt lat="44.81535" lon="6.29564">
        <ele>1663.6</ele>
        <time>2024-08-13T06:01:47Z</time>
      </trkpt>
      <trkpt lat="44.81535" lon="6.29564">
        <ele>1663.6</ele>
        <time>2024-08-13T06:01:48Z</time>
      </trkpt>
      <trkpt lat="44.81538" lon="6.29564">
        <ele>1663.2</ele>
        <time>2024-08-13T06:01:49Z</time>
      </trkpt>
      <trkpt lat="44.81538" lon="6.29564">
        <ele>1663</ele>
        <time>2024-08-13T06:01:50Z</time>
      </trkpt>
      <trkpt lat="44.81541" lon="6.29563">
        <ele>1663</ele>
        <time>2024-08-13T06:01:51Z</time>
      </trkpt>
      <trkpt lat="44.81541" lon="6.29563">
        <ele>1662.8</ele>
        <time>2024-08-13T06:01:52Z</time>
      </trkpt>
      <trkpt lat="44.81544" lon="6.29563">
        <ele>1662.6</ele>
        <time>2024-08-13T06:01:53Z</time>
      </trkpt>
      <trkpt lat="44.81544" lon="6.29563">
        <ele>1662.6</ele>
        <time>2024-08-13T06:01:54Z</time>
      </trkpt>
      <trkpt lat="44.81547" lon="6.29563">
        <ele>1662.4</ele>
        <time>2024-08-13T06:01:55Z</time>
      </trkpt>
      <trkpt lat="44.81547" lon="6.29563">
        <ele>1662.4</ele>
        <time>2024-08-13T06:01:56Z</time>
      </trkpt>
      <trkpt lat="44.8155" lon="6.29563">
        <ele>1662.2</ele>
        <time>2024-08-13T06:01:57Z</time>
      </trkpt>
      <trkpt lat="44.8155" lon="6.29563">
        <ele>1662</ele>
        <time>2024-08-13T06:01:58Z</time>
      </trkpt>
      <trkpt lat="44.81553" lon="6.29564">
        <ele>1661.8</ele>
        <time>2024-08-13T06:01:59Z</time>
      </trkpt>
      <trkpt lat="44.81553" lon="6.29564">
        <ele>1661.6</ele>
        <time>2024-08-13T06:02:00Z</time>
      </trkpt>
      <trkpt lat="44.81556" lon="6.29564">
        <ele>1661.4</ele>
        <time>2024-08-13T06:02:01Z</time>
      </trkpt>
      <trkpt lat="44.81556" lon="6.29564">
        <ele>1661.4</ele>
        <time>2024-08-13T06:02:02Z</time>
      </trkpt>
      <trkpt lat="44.81559" lon="6.29564">
        <ele>1661.4</ele>
        <time>2024-08-13T06:02:03Z</time>
      </trkpt>
      <trkpt lat="44.81559" lon="6.29564">
        <ele>1661.2</ele>
        <time>2024-08-13T06:02:04Z</time>
      </trkpt>
      <trkpt lat="44.81562" lon="6.29564">
        <ele>1661</ele>
        <time>2024-08-13T06:02:05Z</time>
      </trkpt>
      <trkpt lat="44.81562" lon="6.29564">
        <ele>1661</ele>
        <time>2024-08-13T06:02:06Z</time>
      </trkpt>
      <trkpt lat="44.81565" lon="6.29564">
        <ele>1660.8</ele>
        <time>2024-08-13T06:02:07Z</time>
      </trkpt>
      <trkpt lat="44.81565" lon="6.29564">
        <ele>1660.8</ele>
        <time>2024-08-13T06:02:08Z</time>
      </trkpt>
      <trkpt lat="44.81567" lon="6.29563">
        <ele>1660.8</ele>
        <time>2024-08-13T06:02:09Z</time>
      </trkpt>
      <trkpt lat="44.81567" lon="6.29563">
        <ele>1660.6</ele>
        <time>2024-08-13T06:02:10Z</time>
      </trkpt>
      <trkpt lat="44.81571" lon="6.29564">
        <ele>1660.4</ele>
        <time>2024-08-13T06:02:11Z</time>
      </trkpt>
      <trkpt lat="44.81571" lon="6.29564">
        <ele>1660.4</ele>
        <time>2024-08-13T06:02:12Z</time>
      </trkpt>
      <trkpt lat="44.81573" lon="6.29563">
        <ele>1660.4</ele>
        <time>2024-08-13T06:02:13Z</time>
      </trkpt>
      <trkpt lat="44.81573" lon="6.29563">
        <ele>1660.4</ele>
        <time>2024-08-13T06:02:14Z</time>
      </trkpt>
      <trkpt lat="44.81576" lon="6.29563">
        <ele>1660.2</ele>
        <time>2024-08-13T06:02:15Z</time>
      </trkpt>
      <trkpt lat="44.81576" lon="6.29563">
        <ele>1660</ele>
        <time>2024-08-13T06:02:16Z</time>
      </trkpt>
      <trkpt lat="44.81579" lon="6.29563">
        <ele>1659.8</ele>
        <time>2024-08-13T06:02:17Z</time>
      </trkpt>
      <trkpt lat="44.81579" lon="6.29563">
        <ele>1660</ele>
        <time>2024-08-13T06:02:18Z</time>
      </trkpt>
      <trkpt lat="44.81582" lon="6.29563">
        <ele>1660</ele>
        <time>2024-08-13T06:02:19Z</time>
      </trkpt>
      <trkpt lat="44.81582" lon="6.29563">
        <ele>1660</ele>
        <time>2024-08-13T06:02:20Z</time>
      </trkpt>
      <trkpt lat="44.81585" lon="6.29563">
        <ele>1659.8</ele>
        <time>2024-08-13T06:02:21Z</time>
      </trkpt>
      <trkpt lat="44.81585" lon="6.29563">
        <ele>1659.6</ele>
        <time>2024-08-13T06:02:22Z</time>
      </trkpt>
      <trkpt lat="44.81588" lon="6.29563">
        <ele>1659.6</ele>
        <time>2024-08-13T06:02:23Z</time>
      </trkpt>
      <trkpt lat="44.81588" lon="6.29563">
        <ele>1659.6</ele>
        <time>2024-08-13T06:02:24Z</time>
      </trkpt>
      <trkpt lat="44.81591" lon="6.29563">
        <ele>1659.6</ele>
        <time>2024-08-13T06:02:25Z</time>
      </trkpt>
      <trkpt lat="44.81591" lon="6.29563">
        <ele>1659.4</ele>
        <time>2024-08-13T06:02:26Z</time>
      </trkpt>
      <trkpt lat="44.81593" lon="6.29563">
        <ele>1659.2</ele>
        <time>2024-08-13T06:02:27Z</time>
      </trkpt>
      <trkpt lat="44.81593" lon="6.29563">
        <ele>1659.2</ele>
        <time>2024-08-13T06:02:28Z</time>
      </trkpt>
      <trkpt lat="44.81597" lon="6.29562">
        <ele>1659</ele>
        <time>2024-08-13T06:02:29Z</time>
      </trkpt>
      <trkpt lat="44.81597" lon="6.29562">
        <ele>1659</ele>
        <time>2024-08-13T06:02:30Z</time>
      </trkpt>
      <trkpt lat="44.81599" lon="6.29562">
        <ele>1658.8</ele>
        <time>2024-08-13T06:02:31Z</time>
      </trkpt>
      <trkpt lat="44.81599" lon="6.29562">
        <ele>1658.8</ele>
        <time>2024-08-13T06:02:32Z</time>
      </trkpt>
      <trkpt lat="44.81602" lon="6.29561">
        <ele>1658.8</ele>
        <time>2024-08-13T06:02:33Z</time>
      </trkpt>
      <trkpt lat="44.81602" lon="6.29561">
        <ele>1658.8</ele>
        <time>2024-08-13T06:02:34Z</time>
      </trkpt>
      <trkpt lat="44.81605" lon="6.29561">
        <ele>1658.6</ele>
        <time>2024-08-13T06:02:35Z</time>
      </trkpt>
      <trkpt lat="44.81605" lon="6.29561">
        <ele>1658.4</ele>
        <time>2024-08-13T06:02:36Z</time>
      </trkpt>
      <trkpt lat="44.81608" lon="6.29562">
        <ele>1658.4</ele>
        <time>2024-08-13T06:02:37Z</time>
      </trkpt>
      <trkpt lat="44.81608" lon="6.29562">
        <ele>1658.4</ele>
        <time>2024-08-13T06:02:38Z</time>
      </trkpt>
      <trkpt lat="44.81611" lon="6.29562">
        <ele>1658.4</ele>
        <time>2024-08-13T06:02:39Z</time>
      </trkpt>
      <trkpt lat="44.81611" lon="6.29562">
        <ele>1658.2</ele>
        <time>2024-08-13T06:02:40Z</time>
      </trkpt>
      <trkpt lat="44.81613" lon="6.29562">
        <ele>1658</ele>
        <time>2024-08-13T06:02:41Z</time>
      </trkpt>
      <trkpt lat="44.81613" lon="6.29562">
        <ele>1658</ele>
        <time>2024-08-13T06:02:42Z</time>
      </trkpt>
      <trkpt lat="44.81616" lon="6.29563">
        <ele>1657.8</ele>
        <time>2024-08-13T06:02:43Z</time>
      </trkpt>
      <trkpt lat="44.81618" lon="6.29563">
        <ele>1657.6</ele>
        <time>2024-08-13T06:02:44Z</time>
      </trkpt>
      <trkpt lat="44.81618" lon="6.29563">
        <ele>1657.4</ele>
        <time>2024-08-13T06:02:45Z</time>
      </trkpt>
      <trkpt lat="44.81621" lon="6.29562">
        <ele>1657.4</ele>
        <time>2024-08-13T06:02:46Z</time>
      </trkpt>
      <trkpt lat="44.81621" lon="6.29562">
        <ele>1657.2</ele>
        <time>2024-08-13T06:02:47Z</time>
      </trkpt>
      <trkpt lat="44.81623" lon="6.29561">
        <ele>1657.2</ele>
        <time>2024-08-13T06:02:48Z</time>
      </trkpt>
      <trkpt lat="44.81623" lon="6.29561">
        <ele>1657.4</ele>
        <time>2024-08-13T06:02:49Z</time>
      </trkpt>
      <trkpt lat="44.81627" lon="6.2956">
        <ele>1657.4</ele>
        <time>2024-08-13T06:02:50Z</time>
      </trkpt>
      <trkpt lat="44.81627" lon="6.2956">
        <ele>1657.4</ele>
        <time>2024-08-13T06:02:51Z</time>
      </trkpt>
      <trkpt lat="44.81629" lon="6.2956">
        <ele>1657.2</ele>
        <time>2024-08-13T06:02:52Z</time>
      </trkpt>
      <trkpt lat="44.81629" lon="6.2956">
        <ele>1657.2</ele>
        <time>2024-08-13T06:02:53Z</time>
      </trkpt>
      <trkpt lat="44.81632" lon="6.2956">
        <ele>1657.4</ele>
        <time>2024-08-13T06:02:54Z</time>
      </trkpt>
      <trkpt lat="44.81632" lon="6.2956">
        <ele>1657.4</ele>
        <time>2024-08-13T06:02:55Z</time>
      </trkpt>
      <trkpt lat="44.81635" lon="6.29559">
        <ele>1657.4</ele>
        <time>2024-08-13T06:02:56Z</time>
      </trkpt>
      <trkpt lat="44.81635" lon="6.29559">
        <ele>1657.4</ele>
        <time>2024-08-13T06:02:57Z</time>
      </trkpt>
      <trkpt lat="44.81638" lon="6.29558">
        <ele>1657.4</ele>
        <time>2024-08-13T06:02:58Z</time>
      </trkpt>
      <trkpt lat="44.81638" lon="6.29558">
        <ele>1657.4</ele>
        <time>2024-08-13T06:02:59Z</time>
      </trkpt>
      <trkpt lat="44.81641" lon="6.29558">
        <ele>1657.4</ele>
        <time>2024-08-13T06:03:00Z</time>
      </trkpt>
      <trkpt lat="44.81641" lon="6.29558">
        <ele>1657.4</ele>
        <time>2024-08-13T06:03:01Z</time>
      </trkpt>
      <trkpt lat="44.81644" lon="6.29558">
        <ele>1657.4</ele>
        <time>2024-08-13T06:03:02Z</time>
      </trkpt>
      <trkpt lat="44.81644" lon="6.29558">
        <ele>1657.4</ele>
        <time>2024-08-13T06:03:03Z</time>
      </trkpt>
      <trkpt lat="44.81646" lon="6.29558">
        <ele>1657.4</ele>
        <time>2024-08-13T06:03:04Z</time>
      </trkpt>
      <trkpt lat="44.81648" lon="6.29558">
        <ele>1657.4</ele>
        <time>2024-08-13T06:03:05Z</time>
      </trkpt>
      <trkpt lat="44.81648" lon="6.29558">
        <ele>1657.4</ele>
        <time>2024-08-13T06:03:06Z</time>
      </trkpt>
      <trkpt lat="44.81651" lon="6.29557">
        <ele>1657.4</ele>
        <time>2024-08-13T06:03:07Z</time>
      </trkpt>
      <trkpt lat="44.81651" lon="6.29557">
        <ele>1657</ele>
        <time>2024-08-13T06:03:08Z</time>
      </trkpt>
      <trkpt lat="44.81653" lon="6.29556">
        <ele>1657</ele>
        <time>2024-08-13T06:03:09Z</time>
      </trkpt>
      <trkpt lat="44.81653" lon="6.29556">
        <ele>1657.2</ele>
        <time>2024-08-13T06:03:10Z</time>
      </trkpt>
      <trkpt lat="44.81656" lon="6.29556">
        <ele>1657.4</ele>
        <time>2024-08-13T06:03:11Z</time>
      </trkpt>
      <trkpt lat="44.81656" lon="6.29556">
        <ele>1657.4</ele>
        <time>2024-08-13T06:03:12Z</time>
      </trkpt>
      <trkpt lat="44.81659" lon="6.29556">
        <ele>1657.4</ele>
        <time>2024-08-13T06:03:13Z</time>
      </trkpt>
      <trkpt lat="44.81659" lon="6.29556">
        <ele>1657.4</ele>
        <time>2024-08-13T06:03:14Z</time>
      </trkpt>
      <trkpt lat="44.81662" lon="6.29556">
        <ele>1657.4</ele>
        <time>2024-08-13T06:03:15Z</time>
      </trkpt>
      <trkpt lat="44.81662" lon="6.29556">
        <ele>1657.4</ele>
        <time>2024-08-13T06:03:16Z</time>
      </trkpt>
      <trkpt lat="44.81665" lon="6.29556">
        <ele>1657.2</ele>
        <time>2024-08-13T06:03:17Z</time>
      </trkpt>
      <trkpt lat="44.81665" lon="6.29556">
        <ele>1657.2</ele>
        <time>2024-08-13T06:03:18Z</time>
      </trkpt>
      <trkpt lat="44.81667" lon="6.29557">
        <ele>1657.4</ele>
        <time>2024-08-13T06:03:19Z</time>
      </trkpt>
      <trkpt lat="44.81667" lon="6.29557">
        <ele>1657.6</ele>
        <time>2024-08-13T06:03:20Z</time>
      </trkpt>
      <trkpt lat="44.8167" lon="6.29556">
        <ele>1657.6</ele>
        <time>2024-08-13T06:03:21Z</time>
      </trkpt>
      <trkpt lat="44.8167" lon="6.29556">
        <ele>1657.8</ele>
        <time>2024-08-13T06:03:22Z</time>
      </trkpt>
      <trkpt lat="44.81673" lon="6.29555">
        <ele>1657.8</ele>
        <time>2024-08-13T06:03:23Z</time>
      </trkpt>
      <trkpt lat="44.81673" lon="6.29555">
        <ele>1657.8</ele>
        <time>2024-08-13T06:03:24Z</time>
      </trkpt>
      <trkpt lat="44.81675" lon="6.29553">
        <ele>1657.6</ele>
        <time>2024-08-13T06:03:25Z</time>
      </trkpt>
      <trkpt lat="44.81675" lon="6.29553">
        <ele>1657.6</ele>
        <time>2024-08-13T06:03:26Z</time>
      </trkpt>
      <trkpt lat="44.81678" lon="6.29553">
        <ele>1657.6</ele>
        <time>2024-08-13T06:03:27Z</time>
      </trkpt>
      <trkpt lat="44.81678" lon="6.29553">
        <ele>1657.4</ele>
        <time>2024-08-13T06:03:28Z</time>
      </trkpt>
      <trkpt lat="44.81682" lon="6.29553">
        <ele>1657.4</ele>
        <time>2024-08-13T06:03:29Z</time>
      </trkpt>
      <trkpt lat="44.81682" lon="6.29553">
        <ele>1657.2</ele>
        <time>2024-08-13T06:03:30Z</time>
      </trkpt>
      <trkpt lat="44.81685" lon="6.29554">
        <ele>1657.2</ele>
        <time>2024-08-13T06:03:31Z</time>
      </trkpt>
      <trkpt lat="44.81685" lon="6.29554">
        <ele>1657.2</ele>
        <time>2024-08-13T06:03:32Z</time>
      </trkpt>
      <trkpt lat="44.81687" lon="6.29553">
        <ele>1656.8</ele>
        <time>2024-08-13T06:03:33Z</time>
      </trkpt>
      <trkpt lat="44.81687" lon="6.29553">
        <ele>1656.6</ele>
        <time>2024-08-13T06:03:34Z</time>
      </trkpt>
      <trkpt lat="44.8169" lon="6.29552">
        <ele>1656.6</ele>
        <time>2024-08-13T06:03:35Z</time>
      </trkpt>
      <trkpt lat="44.8169" lon="6.29552">
        <ele>1656.6</ele>
        <time>2024-08-13T06:03:36Z</time>
      </trkpt>
      <trkpt lat="44.81692" lon="6.29552">
        <ele>1656.4</ele>
        <time>2024-08-13T06:03:37Z</time>
      </trkpt>
      <trkpt lat="44.81692" lon="6.29552">
        <ele>1656.4</ele>
        <time>2024-08-13T06:03:38Z</time>
      </trkpt>
      <trkpt lat="44.81695" lon="6.29552">
        <ele>1656.4</ele>
        <time>2024-08-13T06:03:39Z</time>
      </trkpt>
      <trkpt lat="44.81695" lon="6.29552">
        <ele>1656.2</ele>
        <time>2024-08-13T06:03:40Z</time>
      </trkpt>
      <trkpt lat="44.81698" lon="6.29553">
        <ele>1656.2</ele>
        <time>2024-08-13T06:03:41Z</time>
      </trkpt>
      <trkpt lat="44.81698" lon="6.29553">
        <ele>1656</ele>
        <time>2024-08-13T06:03:42Z</time>
      </trkpt>
      <trkpt lat="44.81701" lon="6.29554">
        <ele>1655.6</ele>
        <time>2024-08-13T06:03:43Z</time>
      </trkpt>
      <trkpt lat="44.81701" lon="6.29554">
        <ele>1655.4</ele>
        <time>2024-08-13T06:03:44Z</time>
      </trkpt>
      <trkpt lat="44.81703" lon="6.29556">
        <ele>1655.4</ele>
        <time>2024-08-13T06:03:45Z</time>
      </trkpt>
      <trkpt lat="44.81705" lon="6.29558">
        <ele>1655.2</ele>
        <time>2024-08-13T06:03:46Z</time>
      </trkpt>
      <trkpt lat="44.81705" lon="6.29558">
        <ele>1655</ele>
        <time>2024-08-13T06:03:47Z</time>
      </trkpt>
      <trkpt lat="44.81708" lon="6.2956">
        <ele>1654.8</ele>
        <time>2024-08-13T06:03:48Z</time>
      </trkpt>
      <trkpt lat="44.81708" lon="6.2956">
        <ele>1654.8</ele>
        <time>2024-08-13T06:03:49Z</time>
      </trkpt>
      <trkpt lat="44.8171" lon="6.29562">
        <ele>1654.6</ele>
        <time>2024-08-13T06:03:50Z</time>
      </trkpt>
      <trkpt lat="44.8171" lon="6.29562">
        <ele>1654.4</ele>
        <time>2024-08-13T06:03:51Z</time>
      </trkpt>
      <trkpt lat="44.81712" lon="6.29563">
        <ele>1654.4</ele>
        <time>2024-08-13T06:03:52Z</time>
      </trkpt>
      <trkpt lat="44.81712" lon="6.29563">
        <ele>1654.6</ele>
        <time>2024-08-13T06:03:53Z</time>
      </trkpt>
      <trkpt lat="44.81715" lon="6.29563">
        <ele>1654.6</ele>
        <time>2024-08-13T06:03:54Z</time>
      </trkpt>
      <trkpt lat="44.81715" lon="6.29563">
        <ele>1654.4</ele>
        <time>2024-08-13T06:03:55Z</time>
      </trkpt>
      <trkpt lat="44.81718" lon="6.29563">
        <ele>1654.4</ele>
        <time>2024-08-13T06:03:56Z</time>
      </trkpt>
      <trkpt lat="44.81718" lon="6.29563">
        <ele>1654.2</ele>
        <time>2024-08-13T06:03:57Z</time>
      </trkpt>
      <trkpt lat="44.81721" lon="6.29564">
        <ele>1654</ele>
        <time>2024-08-13T06:03:58Z</time>
      </trkpt>
      <trkpt lat="44.81721" lon="6.29564">
        <ele>1653.6</ele>
        <time>2024-08-13T06:03:59Z</time>
      </trkpt>
      <trkpt lat="44.81723" lon="6.29567">
        <ele>1653.4</ele>
        <time>2024-08-13T06:04:00Z</time>
      </trkpt>
      <trkpt lat="44.81723" lon="6.29567">
        <ele>1653.2</ele>
        <time>2024-08-13T06:04:01Z</time>
      </trkpt>
      <trkpt lat="44.81725" lon="6.29569">
        <ele>1653.2</ele>
        <time>2024-08-13T06:04:02Z</time>
      </trkpt>
      <trkpt lat="44.81725" lon="6.29569">
        <ele>1653.2</ele>
        <time>2024-08-13T06:04:03Z</time>
      </trkpt>
      <trkpt lat="44.81727" lon="6.29569">
        <ele>1653</ele>
        <time>2024-08-13T06:04:04Z</time>
      </trkpt>
      <trkpt lat="44.81727" lon="6.29569">
        <ele>1653</ele>
        <time>2024-08-13T06:04:05Z</time>
      </trkpt>
      <trkpt lat="44.81729" lon="6.29569">
        <ele>1652.8</ele>
        <time>2024-08-13T06:04:06Z</time>
      </trkpt>
      <trkpt lat="44.81729" lon="6.29569">
        <ele>1652.4</ele>
        <time>2024-08-13T06:04:07Z</time>
      </trkpt>
      <trkpt lat="44.81732" lon="6.29568">
        <ele>1652.4</ele>
        <time>2024-08-13T06:04:08Z</time>
      </trkpt>
      <trkpt lat="44.81732" lon="6.29568">
        <ele>1652.4</ele>
        <time>2024-08-13T06:04:09Z</time>
      </trkpt>
      <trkpt lat="44.81735" lon="6.29568">
        <ele>1652</ele>
        <time>2024-08-13T06:04:10Z</time>
      </trkpt>
      <trkpt lat="44.81735" lon="6.29568">
        <ele>1651.8</ele>
        <time>2024-08-13T06:04:11Z</time>
      </trkpt>
      <trkpt lat="44.81738" lon="6.29568">
        <ele>1651.6</ele>
        <time>2024-08-13T06:04:12Z</time>
      </trkpt>
      <trkpt lat="44.81738" lon="6.29568">
        <ele>1651.4</ele>
        <time>2024-08-13T06:04:13Z</time>
      </trkpt>
      <trkpt lat="44.8174" lon="6.29567">
        <ele>1651.4</ele>
        <time>2024-08-13T06:04:14Z</time>
      </trkpt>
      <trkpt lat="44.8174" lon="6.29567">
        <ele>1651.2</ele>
        <time>2024-08-13T06:04:15Z</time>
      </trkpt>
      <trkpt lat="44.81742" lon="6.29565">
        <ele>1651</ele>
        <time>2024-08-13T06:04:16Z</time>
      </trkpt>
      <trkpt lat="44.81742" lon="6.29565">
        <ele>1650.8</ele>
        <time>2024-08-13T06:04:17Z</time>
      </trkpt>
      <trkpt lat="44.81744" lon="6.29564">
        <ele>1650.6</ele>
        <time>2024-08-13T06:04:18Z</time>
      </trkpt>
      <trkpt lat="44.81744" lon="6.29564">
        <ele>1650.2</ele>
        <time>2024-08-13T06:04:19Z</time>
      </trkpt>
      <trkpt lat="44.81747" lon="6.29563">
        <ele>1650.2</ele>
        <time>2024-08-13T06:04:20Z</time>
      </trkpt>
      <trkpt lat="44.81747" lon="6.29563">
        <ele>1650</ele>
        <time>2024-08-13T06:04:21Z</time>
      </trkpt>
      <trkpt lat="44.81749" lon="6.29563">
        <ele>1649.8</ele>
        <time>2024-08-13T06:04:22Z</time>
      </trkpt>
      <trkpt lat="44.81749" lon="6.29563">
        <ele>1649.4</ele>
        <time>2024-08-13T06:04:23Z</time>
      </trkpt>
      <trkpt lat="44.81752" lon="6.29563">
        <ele>1649.2</ele>
        <time>2024-08-13T06:04:24Z</time>
      </trkpt>
      <trkpt lat="44.81752" lon="6.29563">
        <ele>1649</ele>
        <time>2024-08-13T06:04:25Z</time>
      </trkpt>
      <trkpt lat="44.81752" lon="6.29563">
        <ele>1648.8</ele>
        <time>2024-08-13T06:04:26Z</time>
      </trkpt>
      <trkpt lat="44.81755" lon="6.29565">
        <ele>1648.6</ele>
        <time>2024-08-13T06:04:27Z</time>
      </trkpt>
      <trkpt lat="44.81755" lon="6.29565">
        <ele>1648.4</ele>
        <time>2024-08-13T06:04:28Z</time>
      </trkpt>
      <trkpt lat="44.81756" lon="6.29564">
        <ele>1648</ele>
        <time>2024-08-13T06:04:29Z</time>
      </trkpt>
      <trkpt lat="44.81756" lon="6.29564">
        <ele>1647.8</ele>
        <time>2024-08-13T06:04:30Z</time>
      </trkpt>
      <trkpt lat="44.81758" lon="6.29562">
        <ele>1647.8</ele>
        <time>2024-08-13T06:04:31Z</time>
      </trkpt>
      <trkpt lat="44.81758" lon="6.29562">
        <ele>1647.6</ele>
        <time>2024-08-13T06:04:32Z</time>
      </trkpt>
      <trkpt lat="44.8176" lon="6.29563">
        <ele>1647.4</ele>
        <time>2024-08-13T06:04:33Z</time>
      </trkpt>
      <trkpt lat="44.8176" lon="6.29563">
        <ele>1647.2</ele>
        <time>2024-08-13T06:04:34Z</time>
      </trkpt>
      <trkpt lat="44.81763" lon="6.29564">
        <ele>1646.6</ele>
        <time>2024-08-13T06:04:35Z</time>
      </trkpt>
      <trkpt lat="44.81763" lon="6.29564">
        <ele>1646.4</ele>
        <time>2024-08-13T06:04:36Z</time>
      </trkpt>
      <trkpt lat="44.81766" lon="6.29565">
        <ele>1646.2</ele>
        <time>2024-08-13T06:04:37Z</time>
      </trkpt>
      <trkpt lat="44.81766" lon="6.29565">
        <ele>1646.2</ele>
        <time>2024-08-13T06:04:38Z</time>
      </trkpt>
      <trkpt lat="44.81768" lon="6.29565">
        <ele>1646</ele>
        <time>2024-08-13T06:04:39Z</time>
      </trkpt>
      <trkpt lat="44.81768" lon="6.29565">
        <ele>1645.8</ele>
        <time>2024-08-13T06:04:40Z</time>
      </trkpt>
      <trkpt lat="44.8177" lon="6.29565">
        <ele>1645.6</ele>
        <time>2024-08-13T06:04:41Z</time>
      </trkpt>
      <trkpt lat="44.8177" lon="6.29565">
        <ele>1645.6</ele>
        <time>2024-08-13T06:04:42Z</time>
      </trkpt>
      <trkpt lat="44.81773" lon="6.29565">
        <ele>1645.4</ele>
        <time>2024-08-13T06:04:43Z</time>
      </trkpt>
      <trkpt lat="44.81773" lon="6.29565">
        <ele>1645.2</ele>
        <time>2024-08-13T06:04:44Z</time>
      </trkpt>
      <trkpt lat="44.81776" lon="6.29566">
        <ele>1645.2</ele>
        <time>2024-08-13T06:04:45Z</time>
      </trkpt>
      <trkpt lat="44.81776" lon="6.29566">
        <ele>1644.6</ele>
        <time>2024-08-13T06:04:46Z</time>
      </trkpt>
      <trkpt lat="44.81778" lon="6.29567">
        <ele>1644.4</ele>
        <time>2024-08-13T06:04:47Z</time>
      </trkpt>
      <trkpt lat="44.81778" lon="6.29567">
        <ele>1644.4</ele>
        <time>2024-08-13T06:04:48Z</time>
      </trkpt>
      <trkpt lat="44.81781" lon="6.29566">
        <ele>1644</ele>
        <time>2024-08-13T06:04:49Z</time>
      </trkpt>
      <trkpt lat="44.81781" lon="6.29566">
        <ele>1643.6</ele>
        <time>2024-08-13T06:04:50Z</time>
      </trkpt>
      <trkpt lat="44.81784" lon="6.29565">
        <ele>1643.6</ele>
        <time>2024-08-13T06:04:51Z</time>
      </trkpt>
      <trkpt lat="44.81784" lon="6.29565">
        <ele>1643.4</ele>
        <time>2024-08-13T06:04:52Z</time>
      </trkpt>
      <trkpt lat="44.81786" lon="6.29563">
        <ele>1643.4</ele>
        <time>2024-08-13T06:04:53Z</time>
      </trkpt>
      <trkpt lat="44.81786" lon="6.29563">
        <ele>1643.2</ele>
        <time>2024-08-13T06:04:54Z</time>
      </trkpt>
      <trkpt lat="44.81788" lon="6.29563">
        <ele>1643</ele>
        <time>2024-08-13T06:04:55Z</time>
      </trkpt>
      <trkpt lat="44.81788" lon="6.29563">
        <ele>1643</ele>
        <time>2024-08-13T06:04:56Z</time>
      </trkpt>
      <trkpt lat="44.8179" lon="6.29561">
        <ele>1642.8</ele>
        <time>2024-08-13T06:04:57Z</time>
      </trkpt>
      <trkpt lat="44.8179" lon="6.29561">
        <ele>1642.6</ele>
        <time>2024-08-13T06:04:58Z</time>
      </trkpt>
      <trkpt lat="44.81793" lon="6.29559">
        <ele>1642.4</ele>
        <time>2024-08-13T06:04:59Z</time>
      </trkpt>
      <trkpt lat="44.81793" lon="6.29559">
        <ele>1642.4</ele>
        <time>2024-08-13T06:05:00Z</time>
      </trkpt>
      <trkpt lat="44.81796" lon="6.29558">
        <ele>1642.4</ele>
        <time>2024-08-13T06:05:01Z</time>
      </trkpt>
      <trkpt lat="44.81796" lon="6.29558">
        <ele>1642</ele>
        <time>2024-08-13T06:05:02Z</time>
      </trkpt>
      <trkpt lat="44.81798" lon="6.29558">
        <ele>1642</ele>
        <time>2024-08-13T06:05:03Z</time>
      </trkpt>
      <trkpt lat="44.81798" lon="6.29558">
        <ele>1641.8</ele>
        <time>2024-08-13T06:05:04Z</time>
      </trkpt>
      <trkpt lat="44.81801" lon="6.29558">
        <ele>1641.6</ele>
        <time>2024-08-13T06:05:05Z</time>
      </trkpt>
      <trkpt lat="44.81801" lon="6.29558">
        <ele>1641.4</ele>
        <time>2024-08-13T06:05:06Z</time>
      </trkpt>
      <trkpt lat="44.81804" lon="6.29558">
        <ele>1641.4</ele>
        <time>2024-08-13T06:05:07Z</time>
      </trkpt>
      <trkpt lat="44.81804" lon="6.29558">
        <ele>1641.4</ele>
        <time>2024-08-13T06:05:08Z</time>
      </trkpt>
      <trkpt lat="44.81806" lon="6.29558">
        <ele>1641.4</ele>
        <time>2024-08-13T06:05:09Z</time>
      </trkpt>
      <trkpt lat="44.81808" lon="6.29558">
        <ele>1641</ele>
        <time>2024-08-13T06:05:10Z</time>
      </trkpt>
      <trkpt lat="44.81808" lon="6.29558">
        <ele>1640.8</ele>
        <time>2024-08-13T06:05:11Z</time>
      </trkpt>
      <trkpt lat="44.81811" lon="6.29557">
        <ele>1640.8</ele>
        <time>2024-08-13T06:05:12Z</time>
      </trkpt>
      <trkpt lat="44.81811" lon="6.29557">
        <ele>1640.8</ele>
        <time>2024-08-13T06:05:13Z</time>
      </trkpt>
      <trkpt lat="44.81814" lon="6.29557">
        <ele>1640.8</ele>
        <time>2024-08-13T06:05:14Z</time>
      </trkpt>
      <trkpt lat="44.81814" lon="6.29557">
        <ele>1640.6</ele>
        <time>2024-08-13T06:05:15Z</time>
      </trkpt>
      <trkpt lat="44.81817" lon="6.29557">
        <ele>1640.6</ele>
        <time>2024-08-13T06:05:16Z</time>
      </trkpt>
      <trkpt lat="44.81817" lon="6.29557">
        <ele>1640.6</ele>
        <time>2024-08-13T06:05:17Z</time>
      </trkpt>
      <trkpt lat="44.81819" lon="6.29556">
        <ele>1640.6</ele>
        <time>2024-08-13T06:05:18Z</time>
      </trkpt>
      <trkpt lat="44.81819" lon="6.29556">
        <ele>1640.4</ele>
        <time>2024-08-13T06:05:19Z</time>
      </trkpt>
      <trkpt lat="44.81822" lon="6.29557">
        <ele>1640.4</ele>
        <time>2024-08-13T06:05:20Z</time>
      </trkpt>
      <trkpt lat="44.81822" lon="6.29557">
        <ele>1640.4</ele>
        <time>2024-08-13T06:05:21Z</time>
      </trkpt>
      <trkpt lat="44.81824" lon="6.29558">
        <ele>1640.4</ele>
        <time>2024-08-13T06:05:22Z</time>
      </trkpt>
      <trkpt lat="44.81824" lon="6.29558">
        <ele>1640.2</ele>
        <time>2024-08-13T06:05:23Z</time>
      </trkpt>
      <trkpt lat="44.81826" lon="6.29557">
        <ele>1640.2</ele>
        <time>2024-08-13T06:05:24Z</time>
      </trkpt>
      <trkpt lat="44.81826" lon="6.29557">
        <ele>1640</ele>
        <time>2024-08-13T06:05:25Z</time>
      </trkpt>
      <trkpt lat="44.81829" lon="6.29558">
        <ele>1640</ele>
        <time>2024-08-13T06:05:26Z</time>
      </trkpt>
      <trkpt lat="44.81831" lon="6.29557">
        <ele>1639.8</ele>
        <time>2024-08-13T06:05:27Z</time>
      </trkpt>
      <trkpt lat="44.81831" lon="6.29557">
        <ele>1639.6</ele>
        <time>2024-08-13T06:05:28Z</time>
      </trkpt>
      <trkpt lat="44.81833" lon="6.29558">
        <ele>1639.4</ele>
        <time>2024-08-13T06:05:29Z</time>
      </trkpt>
      <trkpt lat="44.81833" lon="6.29558">
        <ele>1639.4</ele>
        <time>2024-08-13T06:05:30Z</time>
      </trkpt>
      <trkpt lat="44.81836" lon="6.29558">
        <ele>1639.4</ele>
        <time>2024-08-13T06:05:31Z</time>
      </trkpt>
      <trkpt lat="44.81836" lon="6.29558">
        <ele>1639.4</ele>
        <time>2024-08-13T06:05:32Z</time>
      </trkpt>
      <trkpt lat="44.81839" lon="6.29557">
        <ele>1639.2</ele>
        <time>2024-08-13T06:05:33Z</time>
      </trkpt>
      <trkpt lat="44.81839" lon="6.29557">
        <ele>1639.2</ele>
        <time>2024-08-13T06:05:34Z</time>
      </trkpt>
      <trkpt lat="44.81841" lon="6.29556">
        <ele>1639</ele>
        <time>2024-08-13T06:05:35Z</time>
      </trkpt>
      <trkpt lat="44.81841" lon="6.29556">
        <ele>1638.8</ele>
        <time>2024-08-13T06:05:36Z</time>
      </trkpt>
      <trkpt lat="44.81844" lon="6.29557">
        <ele>1638.8</ele>
        <time>2024-08-13T06:05:37Z</time>
      </trkpt>
      <trkpt lat="44.81844" lon="6.29557">
        <ele>1638.6</ele>
        <time>2024-08-13T06:05:38Z</time>
      </trkpt>
      <trkpt lat="44.81846" lon="6.29558">
        <ele>1638.4</ele>
        <time>2024-08-13T06:05:39Z</time>
      </trkpt>
      <trkpt lat="44.81846" lon="6.29558">
        <ele>1638.4</ele>
        <time>2024-08-13T06:05:40Z</time>
      </trkpt>
      <trkpt lat="44.81848" lon="6.29558">
        <ele>1638.4</ele>
        <time>2024-08-13T06:05:41Z</time>
      </trkpt>
      <trkpt lat="44.81848" lon="6.29558">
        <ele>1638.2</ele>
        <time>2024-08-13T06:05:42Z</time>
      </trkpt>
      <trkpt lat="44.81851" lon="6.29557">
        <ele>1638</ele>
        <time>2024-08-13T06:05:43Z</time>
      </trkpt>
      <trkpt lat="44.81851" lon="6.29557">
        <ele>1638</ele>
        <time>2024-08-13T06:05:44Z</time>
      </trkpt>
      <trkpt lat="44.81853" lon="6.29556">
        <ele>1637.8</ele>
        <time>2024-08-13T06:05:45Z</time>
      </trkpt>
      <trkpt lat="44.81853" lon="6.29556">
        <ele>1637.8</ele>
        <time>2024-08-13T06:05:46Z</time>
      </trkpt>
      <trkpt lat="44.81856" lon="6.29556">
        <ele>1637.6</ele>
        <time>2024-08-13T06:05:47Z</time>
      </trkpt>
      <trkpt lat="44.81856" lon="6.29556">
        <ele>1637.4</ele>
        <time>2024-08-13T06:05:48Z</time>
      </trkpt>
      <trkpt lat="44.81859" lon="6.29557">
        <ele>1637.2</ele>
        <time>2024-08-13T06:05:49Z</time>
      </trkpt>
      <trkpt lat="44.81859" lon="6.29557">
        <ele>1637</ele>
        <time>2024-08-13T06:05:50Z</time>
      </trkpt>
      <trkpt lat="44.81861" lon="6.29558">
        <ele>1637</ele>
        <time>2024-08-13T06:05:51Z</time>
      </trkpt>
      <trkpt lat="44.81861" lon="6.29558">
        <ele>1637</ele>
        <time>2024-08-13T06:05:52Z</time>
      </trkpt>
      <trkpt lat="44.81863" lon="6.29559">
        <ele>1636.8</ele>
        <time>2024-08-13T06:05:53Z</time>
      </trkpt>
      <trkpt lat="44.81863" lon="6.29559">
        <ele>1636.6</ele>
        <time>2024-08-13T06:05:54Z</time>
      </trkpt>
      <trkpt lat="44.81866" lon="6.2956">
        <ele>1636.6</ele>
        <time>2024-08-13T06:05:55Z</time>
      </trkpt>
      <trkpt lat="44.81866" lon="6.2956">
        <ele>1636.4</ele>
        <time>2024-08-13T06:05:56Z</time>
      </trkpt>
      <trkpt lat="44.81869" lon="6.29562">
        <ele>1636.2</ele>
        <time>2024-08-13T06:05:57Z</time>
      </trkpt>
      <trkpt lat="44.81869" lon="6.29562">
        <ele>1636.2</ele>
        <time>2024-08-13T06:05:58Z</time>
      </trkpt>
      <trkpt lat="44.81871" lon="6.29563">
        <ele>1636.2</ele>
        <time>2024-08-13T06:05:59Z</time>
      </trkpt>
      <trkpt lat="44.81871" lon="6.29563">
        <ele>1636</ele>
        <time>2024-08-13T06:06:00Z</time>
      </trkpt>
      <trkpt lat="44.81875" lon="6.29564">
        <ele>1636</ele>
        <time>2024-08-13T06:06:01Z</time>
      </trkpt>
      <trkpt lat="44.81875" lon="6.29564">
        <ele>1635.6</ele>
        <time>2024-08-13T06:06:02Z</time>
      </trkpt>
      <trkpt lat="44.81875" lon="6.29564">
        <ele>1635.6</ele>
        <time>2024-08-13T06:06:03Z</time>
      </trkpt>
      <trkpt lat="44.81877" lon="6.29564">
        <ele>1635.6</ele>
        <time>2024-08-13T06:06:04Z</time>
      </trkpt>
      <trkpt lat="44.81877" lon="6.29564">
        <ele>1635.4</ele>
        <time>2024-08-13T06:06:05Z</time>
      </trkpt>
      <trkpt lat="44.8188" lon="6.29564">
        <ele>1635.4</ele>
        <time>2024-08-13T06:06:06Z</time>
      </trkpt>
      <trkpt lat="44.8188" lon="6.29564">
        <ele>1635.4</ele>
        <time>2024-08-13T06:06:07Z</time>
      </trkpt>
      <trkpt lat="44.81883" lon="6.29563">
        <ele>1635.2</ele>
        <time>2024-08-13T06:06:08Z</time>
      </trkpt>
      <trkpt lat="44.81883" lon="6.29563">
        <ele>1635</ele>
        <time>2024-08-13T06:06:09Z</time>
      </trkpt>
      <trkpt lat="44.81885" lon="6.29561">
        <ele>1635</ele>
        <time>2024-08-13T06:06:10Z</time>
      </trkpt>
      <trkpt lat="44.81885" lon="6.29561">
        <ele>1635</ele>
        <time>2024-08-13T06:06:11Z</time>
      </trkpt>
      <trkpt lat="44.81887" lon="6.2956">
        <ele>1635</ele>
        <time>2024-08-13T06:06:12Z</time>
      </trkpt>
      <trkpt lat="44.81887" lon="6.2956">
        <ele>1634.8</ele>
        <time>2024-08-13T06:06:13Z</time>
      </trkpt>
      <trkpt lat="44.81891" lon="6.2956">
        <ele>1634.8</ele>
        <time>2024-08-13T06:06:14Z</time>
      </trkpt>
      <trkpt lat="44.81891" lon="6.2956">
        <ele>1634.6</ele>
        <time>2024-08-13T06:06:15Z</time>
      </trkpt>
      <trkpt lat="44.81893" lon="6.2956">
        <ele>1634.4</ele>
        <time>2024-08-13T06:06:16Z</time>
      </trkpt>
      <trkpt lat="44.81893" lon="6.2956">
        <ele>1634.4</ele>
        <time>2024-08-13T06:06:17Z</time>
      </trkpt>
      <trkpt lat="44.81895" lon="6.29561">
        <ele>1634.4</ele>
        <time>2024-08-13T06:06:18Z</time>
      </trkpt>
      <trkpt lat="44.81895" lon="6.29561">
        <ele>1634.2</ele>
        <time>2024-08-13T06:06:19Z</time>
      </trkpt>
      <trkpt lat="44.81897" lon="6.29561">
        <ele>1634.2</ele>
        <time>2024-08-13T06:06:20Z</time>
      </trkpt>
      <trkpt lat="44.81897" lon="6.29561">
        <ele>1634</ele>
        <time>2024-08-13T06:06:21Z</time>
      </trkpt>
      <trkpt lat="44.819" lon="6.29561">
        <ele>1633.6</ele>
        <time>2024-08-13T06:06:22Z</time>
      </trkpt>
      <trkpt lat="44.819" lon="6.29561">
        <ele>1633.4</ele>
        <time>2024-08-13T06:06:23Z</time>
      </trkpt>
      <trkpt lat="44.81902" lon="6.29561">
        <ele>1633.4</ele>
        <time>2024-08-13T06:06:24Z</time>
      </trkpt>
      <trkpt lat="44.81902" lon="6.29561">
        <ele>1633</ele>
        <time>2024-08-13T06:06:25Z</time>
      </trkpt>
      <trkpt lat="44.81905" lon="6.29561">
        <ele>1632.8</ele>
        <time>2024-08-13T06:06:26Z</time>
      </trkpt>
      <trkpt lat="44.81905" lon="6.29561">
        <ele>1632.8</ele>
        <time>2024-08-13T06:06:27Z</time>
      </trkpt>
      <trkpt lat="44.81908" lon="6.2956">
        <ele>1632.6</ele>
        <time>2024-08-13T06:06:28Z</time>
      </trkpt>
      <trkpt lat="44.81908" lon="6.2956">
        <ele>1632.6</ele>
        <time>2024-08-13T06:06:29Z</time>
      </trkpt>
      <trkpt lat="44.81909" lon="6.2956">
        <ele>1632.4</ele>
        <time>2024-08-13T06:06:30Z</time>
      </trkpt>
      <trkpt lat="44.81909" lon="6.2956">
        <ele>1632.4</ele>
        <time>2024-08-13T06:06:31Z</time>
      </trkpt>
      <trkpt lat="44.81912" lon="6.2956">
        <ele>1632.2</ele>
        <time>2024-08-13T06:06:32Z</time>
      </trkpt>
      <trkpt lat="44.81912" lon="6.2956">
        <ele>1631.8</ele>
        <time>2024-08-13T06:06:33Z</time>
      </trkpt>
      <trkpt lat="44.81915" lon="6.29561">
        <ele>1631.6</ele>
        <time>2024-08-13T06:06:34Z</time>
      </trkpt>
      <trkpt lat="44.81915" lon="6.29561">
        <ele>1631.6</ele>
        <time>2024-08-13T06:06:35Z</time>
      </trkpt>
      <trkpt lat="44.81917" lon="6.29561">
        <ele>1631.4</ele>
        <time>2024-08-13T06:06:36Z</time>
      </trkpt>
      <trkpt lat="44.81917" lon="6.29561">
        <ele>1631.2</ele>
        <time>2024-08-13T06:06:37Z</time>
      </trkpt>
      <trkpt lat="44.81919" lon="6.29561">
        <ele>1631.2</ele>
        <time>2024-08-13T06:06:38Z</time>
      </trkpt>
      <trkpt lat="44.81919" lon="6.29561">
        <ele>1631</ele>
        <time>2024-08-13T06:06:39Z</time>
      </trkpt>
      <trkpt lat="44.81922" lon="6.29561">
        <ele>1630.6</ele>
        <time>2024-08-13T06:06:40Z</time>
      </trkpt>
      <trkpt lat="44.81922" lon="6.29561">
        <ele>1630.4</ele>
        <time>2024-08-13T06:06:41Z</time>
      </trkpt>
      <trkpt lat="44.81925" lon="6.29559">
        <ele>1630.4</ele>
        <time>2024-08-13T06:06:42Z</time>
      </trkpt>
      <trkpt lat="44.81925" lon="6.29559">
        <ele>1630.4</ele>
        <time>2024-08-13T06:06:43Z</time>
      </trkpt>
      <trkpt lat="44.81927" lon="6.29557">
        <ele>1630.2</ele>
        <time>2024-08-13T06:06:44Z</time>
      </trkpt>
      <trkpt lat="44.81927" lon="6.29557">
        <ele>1630.2</ele>
        <time>2024-08-13T06:06:45Z</time>
      </trkpt>
      <trkpt lat="44.8193" lon="6.29556">
        <ele>1630.2</ele>
        <time>2024-08-13T06:06:46Z</time>
      </trkpt>
      <trkpt lat="44.8193" lon="6.29556">
        <ele>1630.2</ele>
        <time>2024-08-13T06:06:47Z</time>
      </trkpt>
      <trkpt lat="44.81933" lon="6.29557">
        <ele>1630</ele>
        <time>2024-08-13T06:06:48Z</time>
      </trkpt>
      <trkpt lat="44.81933" lon="6.29557">
        <ele>1630</ele>
        <time>2024-08-13T06:06:49Z</time>
      </trkpt>
      <trkpt lat="44.81934" lon="6.29556">
        <ele>1630</ele>
        <time>2024-08-13T06:06:50Z</time>
      </trkpt>
      <trkpt lat="44.81934" lon="6.29556">
        <ele>1630</ele>
        <time>2024-08-13T06:06:51Z</time>
      </trkpt>
      <trkpt lat="44.81937" lon="6.29555">
        <ele>1630</ele>
        <time>2024-08-13T06:06:52Z</time>
      </trkpt>
      <trkpt lat="44.81937" lon="6.29555">
        <ele>1630</ele>
        <time>2024-08-13T06:06:53Z</time>
      </trkpt>
      <trkpt lat="44.8194" lon="6.29553">
        <ele>1629.6</ele>
        <time>2024-08-13T06:06:54Z</time>
      </trkpt>
      <trkpt lat="44.8194" lon="6.29553">
        <ele>1629.4</ele>
        <time>2024-08-13T06:06:55Z</time>
      </trkpt>
      <trkpt lat="44.81943" lon="6.29552">
        <ele>1629.2</ele>
        <time>2024-08-13T06:06:56Z</time>
      </trkpt>
      <trkpt lat="44.81943" lon="6.29552">
        <ele>1629.2</ele>
        <time>2024-08-13T06:06:57Z</time>
      </trkpt>
      <trkpt lat="44.81946" lon="6.29552">
        <ele>1629.2</ele>
        <time>2024-08-13T06:06:58Z</time>
      </trkpt>
      <trkpt lat="44.81946" lon="6.29552">
        <ele>1629.4</ele>
        <time>2024-08-13T06:06:59Z</time>
      </trkpt>
      <trkpt lat="44.81949" lon="6.29551">
        <ele>1629.4</ele>
        <time>2024-08-13T06:07:00Z</time>
      </trkpt>
      <trkpt lat="44.81949" lon="6.29551">
        <ele>1629.2</ele>
        <time>2024-08-13T06:07:01Z</time>
      </trkpt>
      <trkpt lat="44.81951" lon="6.2955">
        <ele>1629.2</ele>
        <time>2024-08-13T06:07:02Z</time>
      </trkpt>
      <trkpt lat="44.81951" lon="6.2955">
        <ele>1629.2</ele>
        <time>2024-08-13T06:07:03Z</time>
      </trkpt>
      <trkpt lat="44.81953" lon="6.29548">
        <ele>1629.2</ele>
        <time>2024-08-13T06:07:04Z</time>
      </trkpt>
      <trkpt lat="44.81953" lon="6.29548">
        <ele>1629.2</ele>
        <time>2024-08-13T06:07:05Z</time>
      </trkpt>
      <trkpt lat="44.81957" lon="6.29547">
        <ele>1629.4</ele>
        <time>2024-08-13T06:07:06Z</time>
      </trkpt>
      <trkpt lat="44.81957" lon="6.29547">
        <ele>1629.2</ele>
        <time>2024-08-13T06:07:07Z</time>
      </trkpt>
      <trkpt lat="44.81958" lon="6.29547">
        <ele>1629.2</ele>
        <time>2024-08-13T06:07:08Z</time>
      </trkpt>
      <trkpt lat="44.81958" lon="6.29547">
        <ele>1629.2</ele>
        <time>2024-08-13T06:07:09Z</time>
      </trkpt>
      <trkpt lat="44.81961" lon="6.29547">
        <ele>1629.2</ele>
        <time>2024-08-13T06:07:10Z</time>
      </trkpt>
      <trkpt lat="44.81961" lon="6.29547">
        <ele>1629.2</ele>
        <time>2024-08-13T06:07:11Z</time>
      </trkpt>
      <trkpt lat="44.81964" lon="6.29547">
        <ele>1628.8</ele>
        <time>2024-08-13T06:07:12Z</time>
      </trkpt>
      <trkpt lat="44.81964" lon="6.29547">
        <ele>1628.6</ele>
        <time>2024-08-13T06:07:13Z</time>
      </trkpt>
      <trkpt lat="44.81967" lon="6.29547">
        <ele>1628.6</ele>
        <time>2024-08-13T06:07:14Z</time>
      </trkpt>
      <trkpt lat="44.81967" lon="6.29547">
        <ele>1628.4</ele>
        <time>2024-08-13T06:07:15Z</time>
      </trkpt>
      <trkpt lat="44.8197" lon="6.29547">
        <ele>1628.2</ele>
        <time>2024-08-13T06:07:16Z</time>
      </trkpt>
      <trkpt lat="44.8197" lon="6.29547">
        <ele>1628</ele>
        <time>2024-08-13T06:07:17Z</time>
      </trkpt>
      <trkpt lat="44.81973" lon="6.29547">
        <ele>1628</ele>
        <time>2024-08-13T06:07:18Z</time>
      </trkpt>
      <trkpt lat="44.81973" lon="6.29547">
        <ele>1628</ele>
        <time>2024-08-13T06:07:19Z</time>
      </trkpt>
      <trkpt lat="44.81975" lon="6.29546">
        <ele>1627.6</ele>
        <time>2024-08-13T06:07:20Z</time>
      </trkpt>
      <trkpt lat="44.81975" lon="6.29546">
        <ele>1627.4</ele>
        <time>2024-08-13T06:07:21Z</time>
      </trkpt>
      <trkpt lat="44.81978" lon="6.29545">
        <ele>1627.2</ele>
        <time>2024-08-13T06:07:22Z</time>
      </trkpt>
      <trkpt lat="44.81978" lon="6.29545">
        <ele>1627.4</ele>
        <time>2024-08-13T06:07:23Z</time>
      </trkpt>
      <trkpt lat="44.81981" lon="6.29544">
        <ele>1627.2</ele>
        <time>2024-08-13T06:07:24Z</time>
      </trkpt>
      <trkpt lat="44.81981" lon="6.29544">
        <ele>1627.2</ele>
        <time>2024-08-13T06:07:25Z</time>
      </trkpt>
      <trkpt lat="44.81983" lon="6.29543">
        <ele>1627</ele>
        <time>2024-08-13T06:07:26Z</time>
      </trkpt>
      <trkpt lat="44.81983" lon="6.29543">
        <ele>1627</ele>
        <time>2024-08-13T06:07:27Z</time>
      </trkpt>
      <trkpt lat="44.81985" lon="6.29541">
        <ele>1627.2</ele>
        <time>2024-08-13T06:07:28Z</time>
      </trkpt>
      <trkpt lat="44.81985" lon="6.29541">
        <ele>1627.2</ele>
        <time>2024-08-13T06:07:29Z</time>
      </trkpt>
      <trkpt lat="44.81987" lon="6.2954">
        <ele>1627.2</ele>
        <time>2024-08-13T06:07:30Z</time>
      </trkpt>
      <trkpt lat="44.81987" lon="6.2954">
        <ele>1627.2</ele>
        <time>2024-08-13T06:07:31Z</time>
      </trkpt>
      <trkpt lat="44.81987" lon="6.2954">
        <ele>1626.8</ele>
        <time>2024-08-13T06:07:32Z</time>
      </trkpt>
      <trkpt lat="44.8199" lon="6.2954">
        <ele>1626.8</ele>
        <time>2024-08-13T06:07:33Z</time>
      </trkpt>
      <trkpt lat="44.8199" lon="6.2954">
        <ele>1626.6</ele>
        <time>2024-08-13T06:07:34Z</time>
      </trkpt>
      <trkpt lat="44.81992" lon="6.29537">
        <ele>1626.2</ele>
        <time>2024-08-13T06:07:35Z</time>
      </trkpt>
      <trkpt lat="44.81992" lon="6.29537">
        <ele>1625.8</ele>
        <time>2024-08-13T06:07:36Z</time>
      </trkpt>
      <trkpt lat="44.81992" lon="6.29537">
        <ele>1625.6</ele>
        <time>2024-08-13T06:07:37Z</time>
      </trkpt>
      <trkpt lat="44.81994" lon="6.29535">
        <ele>1625.6</ele>
        <time>2024-08-13T06:07:38Z</time>
      </trkpt>
      <trkpt lat="44.81994" lon="6.29535">
        <ele>1625.6</ele>
        <time>2024-08-13T06:07:39Z</time>
      </trkpt>
      <trkpt lat="44.81997" lon="6.29536">
        <ele>1625.6</ele>
        <time>2024-08-13T06:07:40Z</time>
      </trkpt>
      <trkpt lat="44.81997" lon="6.29536">
        <ele>1625.6</ele>
        <time>2024-08-13T06:07:41Z</time>
      </trkpt>
      <trkpt lat="44.81999" lon="6.29536">
        <ele>1625.6</ele>
        <time>2024-08-13T06:07:42Z</time>
      </trkpt>
      <trkpt lat="44.81999" lon="6.29536">
        <ele>1625.4</ele>
        <time>2024-08-13T06:07:43Z</time>
      </trkpt>
      <trkpt lat="44.82001" lon="6.29535">
        <ele>1625.2</ele>
        <time>2024-08-13T06:07:44Z</time>
      </trkpt>
      <trkpt lat="44.82001" lon="6.29535">
        <ele>1624.8</ele>
        <time>2024-08-13T06:07:45Z</time>
      </trkpt>
      <trkpt lat="44.82003" lon="6.29534">
        <ele>1624.8</ele>
        <time>2024-08-13T06:07:46Z</time>
      </trkpt>
      <trkpt lat="44.82003" lon="6.29534">
        <ele>1624.8</ele>
        <time>2024-08-13T06:07:47Z</time>
      </trkpt>
      <trkpt lat="44.82003" lon="6.29534">
        <ele>1624.8</ele>
        <time>2024-08-13T06:07:48Z</time>
      </trkpt>
      <trkpt lat="44.82005" lon="6.29534">
        <ele>1624.6</ele>
        <time>2024-08-13T06:07:49Z</time>
      </trkpt>
      <trkpt lat="44.82005" lon="6.29534">
        <ele>1624.6</ele>
        <time>2024-08-13T06:07:50Z</time>
      </trkpt>
      <trkpt lat="44.82008" lon="6.29533">
        <ele>1624.2</ele>
        <time>2024-08-13T06:07:51Z</time>
      </trkpt>
      <trkpt lat="44.82008" lon="6.29533">
        <ele>1623.8</ele>
        <time>2024-08-13T06:07:52Z</time>
      </trkpt>
      <trkpt lat="44.8201" lon="6.29534">
        <ele>1623.8</ele>
        <time>2024-08-13T06:07:53Z</time>
      </trkpt>
      <trkpt lat="44.8201" lon="6.29534">
        <ele>1623.6</ele>
        <time>2024-08-13T06:07:54Z</time>
      </trkpt>
      <trkpt lat="44.82012" lon="6.29534">
        <ele>1623.4</ele>
        <time>2024-08-13T06:07:55Z</time>
      </trkpt>
      <trkpt lat="44.82012" lon="6.29534">
        <ele>1623.2</ele>
        <time>2024-08-13T06:07:56Z</time>
      </trkpt>
      <trkpt lat="44.82012" lon="6.29534">
        <ele>1622.8</ele>
        <time>2024-08-13T06:07:57Z</time>
      </trkpt>
      <trkpt lat="44.82013" lon="6.29535">
        <ele>1622.6</ele>
        <time>2024-08-13T06:07:58Z</time>
      </trkpt>
      <trkpt lat="44.82013" lon="6.29535">
        <ele>1622.4</ele>
        <time>2024-08-13T06:07:59Z</time>
      </trkpt>
      <trkpt lat="44.82015" lon="6.29535">
        <ele>1622.2</ele>
        <time>2024-08-13T06:08:00Z</time>
      </trkpt>
      <trkpt lat="44.82015" lon="6.29535">
        <ele>1621.8</ele>
        <time>2024-08-13T06:08:01Z</time>
      </trkpt>
      <trkpt lat="44.82018" lon="6.29536">
        <ele>1621.4</ele>
        <time>2024-08-13T06:08:02Z</time>
      </trkpt>
      <trkpt lat="44.82018" lon="6.29536">
        <ele>1621.4</ele>
        <time>2024-08-13T06:08:03Z</time>
      </trkpt>
      <trkpt lat="44.8202" lon="6.29536">
        <ele>1621</ele>
        <time>2024-08-13T06:08:04Z</time>
      </trkpt>
      <trkpt lat="44.8202" lon="6.29536">
        <ele>1620.6</ele>
        <time>2024-08-13T06:08:05Z</time>
      </trkpt>
      <trkpt lat="44.82022" lon="6.29536">
        <ele>1620.6</ele>
        <time>2024-08-13T06:08:06Z</time>
      </trkpt>
      <trkpt lat="44.82022" lon="6.29536">
        <ele>1620.2</ele>
        <time>2024-08-13T06:08:07Z</time>
      </trkpt>
      <trkpt lat="44.82024" lon="6.29536">
        <ele>1619.8</ele>
        <time>2024-08-13T06:08:08Z</time>
      </trkpt>
      <trkpt lat="44.82024" lon="6.29536">
        <ele>1619.4</ele>
        <time>2024-08-13T06:08:09Z</time>
      </trkpt>
      <trkpt lat="44.82026" lon="6.29534">
        <ele>1619.4</ele>
        <time>2024-08-13T06:08:10Z</time>
      </trkpt>
      <trkpt lat="44.82026" lon="6.29534">
        <ele>1619.2</ele>
        <time>2024-08-13T06:08:11Z</time>
      </trkpt>
      <trkpt lat="44.82028" lon="6.29534">
        <ele>1619</ele>
        <time>2024-08-13T06:08:12Z</time>
      </trkpt>
      <trkpt lat="44.82028" lon="6.29534">
        <ele>1618.8</ele>
        <time>2024-08-13T06:08:13Z</time>
      </trkpt>
      <trkpt lat="44.8203" lon="6.29533">
        <ele>1618.6</ele>
        <time>2024-08-13T06:08:14Z</time>
      </trkpt>
      <trkpt lat="44.8203" lon="6.29533">
        <ele>1618.6</ele>
        <time>2024-08-13T06:08:15Z</time>
      </trkpt>
      <trkpt lat="44.82032" lon="6.29532">
        <ele>1618.2</ele>
        <time>2024-08-13T06:08:16Z</time>
      </trkpt>
      <trkpt lat="44.82032" lon="6.29532">
        <ele>1618</ele>
        <time>2024-08-13T06:08:17Z</time>
      </trkpt>
      <trkpt lat="44.82034" lon="6.2953">
        <ele>1617.8</ele>
        <time>2024-08-13T06:08:18Z</time>
      </trkpt>
      <trkpt lat="44.82034" lon="6.2953">
        <ele>1617.4</ele>
        <time>2024-08-13T06:08:19Z</time>
      </trkpt>
      <trkpt lat="44.82034" lon="6.2953">
        <ele>1617</ele>
        <time>2024-08-13T06:08:20Z</time>
      </trkpt>
      <trkpt lat="44.82036" lon="6.29529">
        <ele>1617</ele>
        <time>2024-08-13T06:08:21Z</time>
      </trkpt>
      <trkpt lat="44.82036" lon="6.29529">
        <ele>1616.8</ele>
        <time>2024-08-13T06:08:22Z</time>
      </trkpt>
      <trkpt lat="44.82038" lon="6.29527">
        <ele>1616.6</ele>
        <time>2024-08-13T06:08:23Z</time>
      </trkpt>
      <trkpt lat="44.82038" lon="6.29527">
        <ele>1616.4</ele>
        <time>2024-08-13T06:08:24Z</time>
      </trkpt>
      <trkpt lat="44.82041" lon="6.29526">
        <ele>1616.2</ele>
        <time>2024-08-13T06:08:25Z</time>
      </trkpt>
      <trkpt lat="44.82041" lon="6.29526">
        <ele>1616</ele>
        <time>2024-08-13T06:08:26Z</time>
      </trkpt>
      <trkpt lat="44.82044" lon="6.29526">
        <ele>1615.8</ele>
        <time>2024-08-13T06:08:27Z</time>
      </trkpt>
      <trkpt lat="44.82044" lon="6.29526">
        <ele>1615.4</ele>
        <time>2024-08-13T06:08:28Z</time>
      </trkpt>
      <trkpt lat="44.82046" lon="6.29525">
        <ele>1615.4</ele>
        <time>2024-08-13T06:08:29Z</time>
      </trkpt>
      <trkpt lat="44.82046" lon="6.29525">
        <ele>1615</ele>
        <time>2024-08-13T06:08:30Z</time>
      </trkpt>
      <trkpt lat="44.82046" lon="6.29525">
        <ele>1614.6</ele>
        <time>2024-08-13T06:08:31Z</time>
      </trkpt>
      <trkpt lat="44.82049" lon="6.29524">
        <ele>1614.6</ele>
        <time>2024-08-13T06:08:32Z</time>
      </trkpt>
      <trkpt lat="44.82049" lon="6.29524">
        <ele>1614.6</ele>
        <time>2024-08-13T06:08:33Z</time>
      </trkpt>
      <trkpt lat="44.82051" lon="6.29524">
        <ele>1614.2</ele>
        <time>2024-08-13T06:08:34Z</time>
      </trkpt>
      <trkpt lat="44.82051" lon="6.29524">
        <ele>1614.2</ele>
        <time>2024-08-13T06:08:35Z</time>
      </trkpt>
      <trkpt lat="44.82054" lon="6.29525">
        <ele>1614</ele>
        <time>2024-08-13T06:08:36Z</time>
      </trkpt>
      <trkpt lat="44.82054" lon="6.29525">
        <ele>1613.8</ele>
        <time>2024-08-13T06:08:37Z</time>
      </trkpt>
      <trkpt lat="44.82056" lon="6.29526">
        <ele>1613.4</ele>
        <time>2024-08-13T06:08:38Z</time>
      </trkpt>
      <trkpt lat="44.82056" lon="6.29526">
        <ele>1613.4</ele>
        <time>2024-08-13T06:08:39Z</time>
      </trkpt>
      <trkpt lat="44.82059" lon="6.29526">
        <ele>1613</ele>
        <time>2024-08-13T06:08:40Z</time>
      </trkpt>
      <trkpt lat="44.82059" lon="6.29526">
        <ele>1613</ele>
        <time>2024-08-13T06:08:41Z</time>
      </trkpt>
      <trkpt lat="44.82061" lon="6.29526">
        <ele>1613</ele>
        <time>2024-08-13T06:08:42Z</time>
      </trkpt>
      <trkpt lat="44.82061" lon="6.29526">
        <ele>1612.8</ele>
        <time>2024-08-13T06:08:43Z</time>
      </trkpt>
      <trkpt lat="44.82063" lon="6.29526">
        <ele>1612.4</ele>
        <time>2024-08-13T06:08:44Z</time>
      </trkpt>
      <trkpt lat="44.82063" lon="6.29526">
        <ele>1612.4</ele>
        <time>2024-08-13T06:08:45Z</time>
      </trkpt>
      <trkpt lat="44.82065" lon="6.29526">
        <ele>1612.4</ele>
        <time>2024-08-13T06:08:46Z</time>
      </trkpt>
      <trkpt lat="44.82065" lon="6.29526">
        <ele>1612</ele>
        <time>2024-08-13T06:08:47Z</time>
      </trkpt>
      <trkpt lat="44.82068" lon="6.29525">
        <ele>1611.8</ele>
        <time>2024-08-13T06:08:48Z</time>
      </trkpt>
      <trkpt lat="44.82068" lon="6.29525">
        <ele>1611.8</ele>
        <time>2024-08-13T06:08:49Z</time>
      </trkpt>
      <trkpt lat="44.8207" lon="6.29524">
        <ele>1611.4</ele>
        <time>2024-08-13T06:08:50Z</time>
      </trkpt>
      <trkpt lat="44.8207" lon="6.29524">
        <ele>1610.8</ele>
        <time>2024-08-13T06:08:51Z</time>
      </trkpt>
      <trkpt lat="44.82072" lon="6.29523">
        <ele>1610.6</ele>
        <time>2024-08-13T06:08:52Z</time>
      </trkpt>
      <trkpt lat="44.82072" lon="6.29523">
        <ele>1610.4</ele>
        <time>2024-08-13T06:08:53Z</time>
      </trkpt>
      <trkpt lat="44.82075" lon="6.29523">
        <ele>1610.2</ele>
        <time>2024-08-13T06:08:54Z</time>
      </trkpt>
      <trkpt lat="44.82075" lon="6.29523">
        <ele>1610</ele>
        <time>2024-08-13T06:08:55Z</time>
      </trkpt>
      <trkpt lat="44.82077" lon="6.29522">
        <ele>1609.8</ele>
        <time>2024-08-13T06:08:56Z</time>
      </trkpt>
      <trkpt lat="44.82077" lon="6.29522">
        <ele>1609.8</ele>
        <time>2024-08-13T06:08:57Z</time>
      </trkpt>
      <trkpt lat="44.82079" lon="6.29519">
        <ele>1609.6</ele>
        <time>2024-08-13T06:08:58Z</time>
      </trkpt>
      <trkpt lat="44.82079" lon="6.29519">
        <ele>1609.4</ele>
        <time>2024-08-13T06:08:59Z</time>
      </trkpt>
      <trkpt lat="44.8208" lon="6.29516">
        <ele>1609.4</ele>
        <time>2024-08-13T06:09:00Z</time>
      </trkpt>
      <trkpt lat="44.8208" lon="6.29516">
        <ele>1609.4</ele>
        <time>2024-08-13T06:09:01Z</time>
      </trkpt>
      <trkpt lat="44.82082" lon="6.29514">
        <ele>1609.2</ele>
        <time>2024-08-13T06:09:02Z</time>
      </trkpt>
      <trkpt lat="44.82082" lon="6.29514">
        <ele>1609.2</ele>
        <time>2024-08-13T06:09:03Z</time>
      </trkpt>
      <trkpt lat="44.82085" lon="6.29512">
        <ele>1609</ele>
        <time>2024-08-13T06:09:04Z</time>
      </trkpt>
      <trkpt lat="44.82085" lon="6.29512">
        <ele>1608.8</ele>
        <time>2024-08-13T06:09:05Z</time>
      </trkpt>
      <trkpt lat="44.82088" lon="6.29511">
        <ele>1608.6</ele>
        <time>2024-08-13T06:09:06Z</time>
      </trkpt>
      <trkpt lat="44.82088" lon="6.29511">
        <ele>1608.6</ele>
        <time>2024-08-13T06:09:07Z</time>
      </trkpt>
      <trkpt lat="44.8209" lon="6.29511">
        <ele>1608.6</ele>
        <time>2024-08-13T06:09:08Z</time>
      </trkpt>
      <trkpt lat="44.8209" lon="6.29511">
        <ele>1608.6</ele>
        <time>2024-08-13T06:09:09Z</time>
      </trkpt>
      <trkpt lat="44.82092" lon="6.29509">
        <ele>1608.6</ele>
        <time>2024-08-13T06:09:10Z</time>
      </trkpt>
      <trkpt lat="44.82092" lon="6.29509">
        <ele>1608.6</ele>
        <time>2024-08-13T06:09:11Z</time>
      </trkpt>
      <trkpt lat="44.82093" lon="6.29507">
        <ele>1608.6</ele>
        <time>2024-08-13T06:09:12Z</time>
      </trkpt>
      <trkpt lat="44.82093" lon="6.29507">
        <ele>1608.6</ele>
        <time>2024-08-13T06:09:13Z</time>
      </trkpt>
      <trkpt lat="44.82095" lon="6.29507">
        <ele>1608.6</ele>
        <time>2024-08-13T06:09:14Z</time>
      </trkpt>
      <trkpt lat="44.82095" lon="6.29507">
        <ele>1608.4</ele>
        <time>2024-08-13T06:09:15Z</time>
      </trkpt>
      <trkpt lat="44.82098" lon="6.29508">
        <ele>1608</ele>
        <time>2024-08-13T06:09:16Z</time>
      </trkpt>
      <trkpt lat="44.82098" lon="6.29508">
        <ele>1607.8</ele>
        <time>2024-08-13T06:09:17Z</time>
      </trkpt>
      <trkpt lat="44.821" lon="6.29509">
        <ele>1607.6</ele>
        <time>2024-08-13T06:09:18Z</time>
      </trkpt>
      <trkpt lat="44.821" lon="6.29509">
        <ele>1607.6</ele>
        <time>2024-08-13T06:09:19Z</time>
      </trkpt>
      <trkpt lat="44.82101" lon="6.29509">
        <ele>1607.6</ele>
        <time>2024-08-13T06:09:20Z</time>
      </trkpt>
      <trkpt lat="44.82101" lon="6.29509">
        <ele>1607.6</ele>
        <time>2024-08-13T06:09:21Z</time>
      </trkpt>
      <trkpt lat="44.82103" lon="6.29509">
        <ele>1607.4</ele>
        <time>2024-08-13T06:09:22Z</time>
      </trkpt>
      <trkpt lat="44.82103" lon="6.29509">
        <ele>1607.4</ele>
        <time>2024-08-13T06:09:23Z</time>
      </trkpt>
      <trkpt lat="44.82105" lon="6.29508">
        <ele>1607.2</ele>
        <time>2024-08-13T06:09:24Z</time>
      </trkpt>
      <trkpt lat="44.82105" lon="6.29508">
        <ele>1606.8</ele>
        <time>2024-08-13T06:09:25Z</time>
      </trkpt>
      <trkpt lat="44.82107" lon="6.29508">
        <ele>1606.6</ele>
        <time>2024-08-13T06:09:26Z</time>
      </trkpt>
      <trkpt lat="44.82107" lon="6.29508">
        <ele>1606.4</ele>
        <time>2024-08-13T06:09:27Z</time>
      </trkpt>
      <trkpt lat="44.82109" lon="6.29507">
        <ele>1606</ele>
        <time>2024-08-13T06:09:28Z</time>
      </trkpt>
      <trkpt lat="44.82109" lon="6.29507">
        <ele>1605.8</ele>
        <time>2024-08-13T06:09:29Z</time>
      </trkpt>
      <trkpt lat="44.82112" lon="6.29506">
        <ele>1605.4</ele>
        <time>2024-08-13T06:09:30Z</time>
      </trkpt>
      <trkpt lat="44.82112" lon="6.29506">
        <ele>1605.2</ele>
        <time>2024-08-13T06:09:31Z</time>
      </trkpt>
      <trkpt lat="44.82115" lon="6.29506">
        <ele>1605</ele>
        <time>2024-08-13T06:09:32Z</time>
      </trkpt>
      <trkpt lat="44.82115" lon="6.29506">
        <ele>1604.8</ele>
        <time>2024-08-13T06:09:33Z</time>
      </trkpt>
      <trkpt lat="44.82117" lon="6.29505">
        <ele>1604.6</ele>
        <time>2024-08-13T06:09:34Z</time>
      </trkpt>
      <trkpt lat="44.82117" lon="6.29505">
        <ele>1604.4</ele>
        <time>2024-08-13T06:09:35Z</time>
      </trkpt>
      <trkpt lat="44.82119" lon="6.29504">
        <ele>1604.2</ele>
        <time>2024-08-13T06:09:36Z</time>
      </trkpt>
      <trkpt lat="44.82119" lon="6.29504">
        <ele>1604</ele>
        <time>2024-08-13T06:09:37Z</time>
      </trkpt>
      <trkpt lat="44.82121" lon="6.29501">
        <ele>1603.8</ele>
        <time>2024-08-13T06:09:38Z</time>
      </trkpt>
      <trkpt lat="44.82121" lon="6.29501">
        <ele>1604</ele>
        <time>2024-08-13T06:09:39Z</time>
      </trkpt>
      <trkpt lat="44.82123" lon="6.29501">
        <ele>1603.8</ele>
        <time>2024-08-13T06:09:40Z</time>
      </trkpt>
      <trkpt lat="44.82123" lon="6.29501">
        <ele>1603.8</ele>
        <time>2024-08-13T06:09:41Z</time>
      </trkpt>
      <trkpt lat="44.82125" lon="6.295">
        <ele>1603.4</ele>
        <time>2024-08-13T06:09:42Z</time>
      </trkpt>
      <trkpt lat="44.82125" lon="6.295">
        <ele>1603.4</ele>
        <time>2024-08-13T06:09:43Z</time>
      </trkpt>
      <trkpt lat="44.82128" lon="6.29499">
        <ele>1603.4</ele>
        <time>2024-08-13T06:09:44Z</time>
      </trkpt>
      <trkpt lat="44.82128" lon="6.29499">
        <ele>1603</ele>
        <time>2024-08-13T06:09:45Z</time>
      </trkpt>
      <trkpt lat="44.8213" lon="6.29497">
        <ele>1603</ele>
        <time>2024-08-13T06:09:46Z</time>
      </trkpt>
      <trkpt lat="44.8213" lon="6.29497">
        <ele>1603</ele>
        <time>2024-08-13T06:09:47Z</time>
      </trkpt>
      <trkpt lat="44.82133" lon="6.29496">
        <ele>1603</ele>
        <time>2024-08-13T06:09:48Z</time>
      </trkpt>
      <trkpt lat="44.82133" lon="6.29496">
        <ele>1602.4</ele>
        <time>2024-08-13T06:09:49Z</time>
      </trkpt>
      <trkpt lat="44.82134" lon="6.29495">
        <ele>1602.2</ele>
        <time>2024-08-13T06:09:50Z</time>
      </trkpt>
      <trkpt lat="44.82134" lon="6.29495">
        <ele>1602.2</ele>
        <time>2024-08-13T06:09:51Z</time>
      </trkpt>
      <trkpt lat="44.82137" lon="6.29493">
        <ele>1601.8</ele>
        <time>2024-08-13T06:09:52Z</time>
      </trkpt>
      <trkpt lat="44.82137" lon="6.29493">
        <ele>1601.8</ele>
        <time>2024-08-13T06:09:53Z</time>
      </trkpt>
      <trkpt lat="44.82138" lon="6.2949">
        <ele>1601.6</ele>
        <time>2024-08-13T06:09:54Z</time>
      </trkpt>
      <trkpt lat="44.82138" lon="6.2949">
        <ele>1601.6</ele>
        <time>2024-08-13T06:09:55Z</time>
      </trkpt>
      <trkpt lat="44.8214" lon="6.29488">
        <ele>1601.6</ele>
        <time>2024-08-13T06:09:56Z</time>
      </trkpt>
      <trkpt lat="44.8214" lon="6.29488">
        <ele>1601.4</ele>
        <time>2024-08-13T06:09:57Z</time>
      </trkpt>
      <trkpt lat="44.82142" lon="6.29485">
        <ele>1601.4</ele>
        <time>2024-08-13T06:09:58Z</time>
      </trkpt>
      <trkpt lat="44.82142" lon="6.29485">
        <ele>1601.2</ele>
        <time>2024-08-13T06:09:59Z</time>
      </trkpt>
      <trkpt lat="44.82144" lon="6.29483">
        <ele>1601.2</ele>
        <time>2024-08-13T06:10:00Z</time>
      </trkpt>
      <trkpt lat="44.82144" lon="6.29483">
        <ele>1601.4</ele>
        <time>2024-08-13T06:10:01Z</time>
      </trkpt>
      <trkpt lat="44.82146" lon="6.2948">
        <ele>1601.2</ele>
        <time>2024-08-13T06:10:02Z</time>
      </trkpt>
      <trkpt lat="44.82146" lon="6.2948">
        <ele>1601.2</ele>
        <time>2024-08-13T06:10:03Z</time>
      </trkpt>
      <trkpt lat="44.82148" lon="6.29479">
        <ele>1601</ele>
        <time>2024-08-13T06:10:04Z</time>
      </trkpt>
      <trkpt lat="44.82148" lon="6.29479">
        <ele>1600.6</ele>
        <time>2024-08-13T06:10:05Z</time>
      </trkpt>
      <trkpt lat="44.82149" lon="6.29477">
        <ele>1600.4</ele>
        <time>2024-08-13T06:10:06Z</time>
      </trkpt>
      <trkpt lat="44.82149" lon="6.29477">
        <ele>1600.2</ele>
        <time>2024-08-13T06:10:07Z</time>
      </trkpt>
      <trkpt lat="44.82151" lon="6.29474">
        <ele>1600.2</ele>
        <time>2024-08-13T06:10:08Z</time>
      </trkpt>
      <trkpt lat="44.82151" lon="6.29474">
        <ele>1600</ele>
        <time>2024-08-13T06:10:09Z</time>
      </trkpt>
      <trkpt lat="44.82153" lon="6.29472">
        <ele>1599.6</ele>
        <time>2024-08-13T06:10:10Z</time>
      </trkpt>
      <trkpt lat="44.82153" lon="6.29472">
        <ele>1599.6</ele>
        <time>2024-08-13T06:10:11Z</time>
      </trkpt>
      <trkpt lat="44.82155" lon="6.2947">
        <ele>1599.6</ele>
        <time>2024-08-13T06:10:12Z</time>
      </trkpt>
      <trkpt lat="44.82155" lon="6.2947">
        <ele>1599.2</ele>
        <time>2024-08-13T06:10:13Z</time>
      </trkpt>
      <trkpt lat="44.82155" lon="6.2947">
        <ele>1599.2</ele>
        <time>2024-08-13T06:10:14Z</time>
      </trkpt>
      <trkpt lat="44.82157" lon="6.29469">
        <ele>1598.8</ele>
        <time>2024-08-13T06:10:15Z</time>
      </trkpt>
      <trkpt lat="44.82157" lon="6.29469">
        <ele>1598.8</ele>
        <time>2024-08-13T06:10:16Z</time>
      </trkpt>
      <trkpt lat="44.8216" lon="6.29468">
        <ele>1598.8</ele>
        <time>2024-08-13T06:10:17Z</time>
      </trkpt>
      <trkpt lat="44.8216" lon="6.29468">
        <ele>1598.6</ele>
        <time>2024-08-13T06:10:18Z</time>
      </trkpt>
      <trkpt lat="44.82162" lon="6.29468">
        <ele>1598.4</ele>
        <time>2024-08-13T06:10:19Z</time>
      </trkpt>
      <trkpt lat="44.82162" lon="6.29468">
        <ele>1598.2</ele>
        <time>2024-08-13T06:10:20Z</time>
      </trkpt>
      <trkpt lat="44.82165" lon="6.29467">
        <ele>1598.2</ele>
        <time>2024-08-13T06:10:21Z</time>
      </trkpt>
      <trkpt lat="44.82165" lon="6.29467">
        <ele>1598.2</ele>
        <time>2024-08-13T06:10:22Z</time>
      </trkpt>
      <trkpt lat="44.82167" lon="6.29466">
        <ele>1598</ele>
        <time>2024-08-13T06:10:23Z</time>
      </trkpt>
      <trkpt lat="44.82167" lon="6.29466">
        <ele>1597.6</ele>
        <time>2024-08-13T06:10:24Z</time>
      </trkpt>
      <trkpt lat="44.82169" lon="6.29464">
        <ele>1597.4</ele>
        <time>2024-08-13T06:10:25Z</time>
      </trkpt>
      <trkpt lat="44.82169" lon="6.29464">
        <ele>1597.2</ele>
        <time>2024-08-13T06:10:26Z</time>
      </trkpt>
      <trkpt lat="44.82172" lon="6.29462">
        <ele>1597.2</ele>
        <time>2024-08-13T06:10:27Z</time>
      </trkpt>
      <trkpt lat="44.82172" lon="6.29462">
        <ele>1597.2</ele>
        <time>2024-08-13T06:10:28Z</time>
      </trkpt>
      <trkpt lat="44.82173" lon="6.29461">
        <ele>1596.8</ele>
        <time>2024-08-13T06:10:29Z</time>
      </trkpt>
      <trkpt lat="44.82173" lon="6.29461">
        <ele>1596.8</ele>
        <time>2024-08-13T06:10:30Z</time>
      </trkpt>
      <trkpt lat="44.82176" lon="6.29458">
        <ele>1596.8</ele>
        <time>2024-08-13T06:10:31Z</time>
      </trkpt>
      <trkpt lat="44.82176" lon="6.29458">
        <ele>1596.4</ele>
        <time>2024-08-13T06:10:32Z</time>
      </trkpt>
      <trkpt lat="44.82178" lon="6.29457">
        <ele>1596</ele>
        <time>2024-08-13T06:10:33Z</time>
      </trkpt>
      <trkpt lat="44.82178" lon="6.29457">
        <ele>1596</ele>
        <time>2024-08-13T06:10:34Z</time>
      </trkpt>
      <trkpt lat="44.8218" lon="6.29454">
        <ele>1596</ele>
        <time>2024-08-13T06:10:35Z</time>
      </trkpt>
      <trkpt lat="44.8218" lon="6.29454">
        <ele>1596</ele>
        <time>2024-08-13T06:10:36Z</time>
      </trkpt>
      <trkpt lat="44.82182" lon="6.29452">
        <ele>1596</ele>
        <time>2024-08-13T06:10:37Z</time>
      </trkpt>
      <trkpt lat="44.82182" lon="6.29452">
        <ele>1595.6</ele>
        <time>2024-08-13T06:10:38Z</time>
      </trkpt>
      <trkpt lat="44.82184" lon="6.2945">
        <ele>1595.2</ele>
        <time>2024-08-13T06:10:39Z</time>
      </trkpt>
      <trkpt lat="44.82184" lon="6.2945">
        <ele>1595.2</ele>
        <time>2024-08-13T06:10:40Z</time>
      </trkpt>
      <trkpt lat="44.82185" lon="6.29447">
        <ele>1595.2</ele>
        <time>2024-08-13T06:10:41Z</time>
      </trkpt>
      <trkpt lat="44.82185" lon="6.29447">
        <ele>1595</ele>
        <time>2024-08-13T06:10:42Z</time>
      </trkpt>
      <trkpt lat="44.82187" lon="6.29445">
        <ele>1595</ele>
        <time>2024-08-13T06:10:43Z</time>
      </trkpt>
      <trkpt lat="44.82187" lon="6.29445">
        <ele>1594.8</ele>
        <time>2024-08-13T06:10:44Z</time>
      </trkpt>
      <trkpt lat="44.82188" lon="6.29443">
        <ele>1594.8</ele>
        <time>2024-08-13T06:10:45Z</time>
      </trkpt>
      <trkpt lat="44.82188" lon="6.29443">
        <ele>1594.6</ele>
        <time>2024-08-13T06:10:46Z</time>
      </trkpt>
      <trkpt lat="44.8219" lon="6.29441">
        <ele>1594.6</ele>
        <time>2024-08-13T06:10:47Z</time>
      </trkpt>
      <trkpt lat="44.8219" lon="6.29441">
        <ele>1594.2</ele>
        <time>2024-08-13T06:10:48Z</time>
      </trkpt>
      <trkpt lat="44.82192" lon="6.29439">
        <ele>1594</ele>
        <time>2024-08-13T06:10:49Z</time>
      </trkpt>
      <trkpt lat="44.82192" lon="6.29439">
        <ele>1593.8</ele>
        <time>2024-08-13T06:10:50Z</time>
      </trkpt>
      <trkpt lat="44.82192" lon="6.29439">
        <ele>1593.4</ele>
        <time>2024-08-13T06:10:51Z</time>
      </trkpt>
      <trkpt lat="44.82195" lon="6.29436">
        <ele>1593.4</ele>
        <time>2024-08-13T06:10:52Z</time>
      </trkpt>
      <trkpt lat="44.82195" lon="6.29436">
        <ele>1593.2</ele>
        <time>2024-08-13T06:10:53Z</time>
      </trkpt>
      <trkpt lat="44.82196" lon="6.29435">
        <ele>1592.8</ele>
        <time>2024-08-13T06:10:54Z</time>
      </trkpt>
      <trkpt lat="44.82196" lon="6.29435">
        <ele>1592.8</ele>
        <time>2024-08-13T06:10:55Z</time>
      </trkpt>
      <trkpt lat="44.82197" lon="6.29433">
        <ele>1592.8</ele>
        <time>2024-08-13T06:10:56Z</time>
      </trkpt>
      <trkpt lat="44.82197" lon="6.29433">
        <ele>1592.2</ele>
        <time>2024-08-13T06:10:57Z</time>
      </trkpt>
      <trkpt lat="44.82199" lon="6.2943">
        <ele>1592.2</ele>
        <time>2024-08-13T06:10:58Z</time>
      </trkpt>
      <trkpt lat="44.82199" lon="6.2943">
        <ele>1592</ele>
        <time>2024-08-13T06:10:59Z</time>
      </trkpt>
      <trkpt lat="44.82201" lon="6.29429">
        <ele>1592</ele>
        <time>2024-08-13T06:11:00Z</time>
      </trkpt>
      <trkpt lat="44.82201" lon="6.29429">
        <ele>1591.6</ele>
        <time>2024-08-13T06:11:01Z</time>
      </trkpt>
      <trkpt lat="44.82202" lon="6.29427">
        <ele>1591</ele>
        <time>2024-08-13T06:11:02Z</time>
      </trkpt>
      <trkpt lat="44.82202" lon="6.29427">
        <ele>1591</ele>
        <time>2024-08-13T06:11:03Z</time>
      </trkpt>
      <trkpt lat="44.82205" lon="6.29424">
        <ele>1591</ele>
        <time>2024-08-13T06:11:04Z</time>
      </trkpt>
      <trkpt lat="44.82205" lon="6.29424">
        <ele>1590.8</ele>
        <time>2024-08-13T06:11:05Z</time>
      </trkpt>
      <trkpt lat="44.82207" lon="6.29423">
        <ele>1590.6</ele>
        <time>2024-08-13T06:11:06Z</time>
      </trkpt>
      <trkpt lat="44.82207" lon="6.29423">
        <ele>1590.4</ele>
        <time>2024-08-13T06:11:07Z</time>
      </trkpt>
      <trkpt lat="44.82209" lon="6.2942">
        <ele>1590.4</ele>
        <time>2024-08-13T06:11:08Z</time>
      </trkpt>
      <trkpt lat="44.82209" lon="6.2942">
        <ele>1590</ele>
        <time>2024-08-13T06:11:09Z</time>
      </trkpt>
      <trkpt lat="44.82211" lon="6.29418">
        <ele>1589.6</ele>
        <time>2024-08-13T06:11:10Z</time>
      </trkpt>
      <trkpt lat="44.82211" lon="6.29418">
        <ele>1589.6</ele>
        <time>2024-08-13T06:11:11Z</time>
      </trkpt>
      <trkpt lat="44.82213" lon="6.29416">
        <ele>1589.4</ele>
        <time>2024-08-13T06:11:12Z</time>
      </trkpt>
      <trkpt lat="44.82213" lon="6.29416">
        <ele>1589</ele>
        <time>2024-08-13T06:11:13Z</time>
      </trkpt>
      <trkpt lat="44.82215" lon="6.29414">
        <ele>1589</ele>
        <time>2024-08-13T06:11:14Z</time>
      </trkpt>
      <trkpt lat="44.82215" lon="6.29414">
        <ele>1588.8</ele>
        <time>2024-08-13T06:11:15Z</time>
      </trkpt>
      <trkpt lat="44.82216" lon="6.29411">
        <ele>1588.6</ele>
        <time>2024-08-13T06:11:16Z</time>
      </trkpt>
      <trkpt lat="44.82216" lon="6.29411">
        <ele>1588.4</ele>
        <time>2024-08-13T06:11:17Z</time>
      </trkpt>
      <trkpt lat="44.82218" lon="6.29409">
        <ele>1588.2</ele>
        <time>2024-08-13T06:11:18Z</time>
      </trkpt>
      <trkpt lat="44.82218" lon="6.29409">
        <ele>1587.8</ele>
        <time>2024-08-13T06:11:19Z</time>
      </trkpt>
      <trkpt lat="44.8222" lon="6.29407">
        <ele>1587.6</ele>
        <time>2024-08-13T06:11:20Z</time>
      </trkpt>
      <trkpt lat="44.8222" lon="6.29407">
        <ele>1587.6</ele>
        <time>2024-08-13T06:11:21Z</time>
      </trkpt>
      <trkpt lat="44.82222" lon="6.29405">
        <ele>1587.6</ele>
        <time>2024-08-13T06:11:22Z</time>
      </trkpt>
      <trkpt lat="44.82222" lon="6.29405">
        <ele>1587.2</ele>
        <time>2024-08-13T06:11:23Z</time>
      </trkpt>
      <trkpt lat="44.82225" lon="6.29404">
        <ele>1587</ele>
        <time>2024-08-13T06:11:24Z</time>
      </trkpt>
      <trkpt lat="44.82225" lon="6.29404">
        <ele>1586.8</ele>
        <time>2024-08-13T06:11:25Z</time>
      </trkpt>
      <trkpt lat="44.82227" lon="6.29403">
        <ele>1586.6</ele>
        <time>2024-08-13T06:11:26Z</time>
      </trkpt>
      <trkpt lat="44.82227" lon="6.29403">
        <ele>1586.6</ele>
        <time>2024-08-13T06:11:27Z</time>
      </trkpt>
      <trkpt lat="44.8223" lon="6.29401">
        <ele>1586.4</ele>
        <time>2024-08-13T06:11:28Z</time>
      </trkpt>
      <trkpt lat="44.8223" lon="6.29401">
        <ele>1586.2</ele>
        <time>2024-08-13T06:11:29Z</time>
      </trkpt>
      <trkpt lat="44.82233" lon="6.294">
        <ele>1586</ele>
        <time>2024-08-13T06:11:30Z</time>
      </trkpt>
      <trkpt lat="44.82233" lon="6.294">
        <ele>1585.8</ele>
        <time>2024-08-13T06:11:31Z</time>
      </trkpt>
      <trkpt lat="44.82235" lon="6.29399">
        <ele>1585.6</ele>
        <time>2024-08-13T06:11:32Z</time>
      </trkpt>
      <trkpt lat="44.82235" lon="6.29399">
        <ele>1585.4</ele>
        <time>2024-08-13T06:11:33Z</time>
      </trkpt>
      <trkpt lat="44.82238" lon="6.29398">
        <ele>1585.2</ele>
        <time>2024-08-13T06:11:34Z</time>
      </trkpt>
      <trkpt lat="44.82238" lon="6.29398">
        <ele>1585.2</ele>
        <time>2024-08-13T06:11:35Z</time>
      </trkpt>
      <trkpt lat="44.82241" lon="6.29397">
        <ele>1585.2</ele>
        <time>2024-08-13T06:11:36Z</time>
      </trkpt>
      <trkpt lat="44.82241" lon="6.29397">
        <ele>1585</ele>
        <time>2024-08-13T06:11:37Z</time>
      </trkpt>
      <trkpt lat="44.82244" lon="6.29397">
        <ele>1584.8</ele>
        <time>2024-08-13T06:11:38Z</time>
      </trkpt>
      <trkpt lat="44.82244" lon="6.29397">
        <ele>1584.6</ele>
        <time>2024-08-13T06:11:39Z</time>
      </trkpt>
      <trkpt lat="44.82246" lon="6.29395">
        <ele>1584.4</ele>
        <time>2024-08-13T06:11:40Z</time>
      </trkpt>
      <trkpt lat="44.82246" lon="6.29395">
        <ele>1584.2</ele>
        <time>2024-08-13T06:11:41Z</time>
      </trkpt>
      <trkpt lat="44.82248" lon="6.29393">
        <ele>1584.2</ele>
        <time>2024-08-13T06:11:42Z</time>
      </trkpt>
      <trkpt lat="44.82248" lon="6.29393">
        <ele>1584</ele>
        <time>2024-08-13T06:11:43Z</time>
      </trkpt>
      <trkpt lat="44.82251" lon="6.29392">
        <ele>1584</ele>
        <time>2024-08-13T06:11:44Z</time>
      </trkpt>
      <trkpt lat="44.82251" lon="6.29392">
        <ele>1583.8</ele>
        <time>2024-08-13T06:11:45Z</time>
      </trkpt>
      <trkpt lat="44.82253" lon="6.29391">
        <ele>1583.8</ele>
        <time>2024-08-13T06:11:46Z</time>
      </trkpt>
      <trkpt lat="44.82253" lon="6.29391">
        <ele>1583.8</ele>
        <time>2024-08-13T06:11:47Z</time>
      </trkpt>
      <trkpt lat="44.82255" lon="6.2939">
        <ele>1583.8</ele>
        <time>2024-08-13T06:11:48Z</time>
      </trkpt>
      <trkpt lat="44.82255" lon="6.2939">
        <ele>1583.6</ele>
        <time>2024-08-13T06:11:49Z</time>
      </trkpt>
      <trkpt lat="44.82258" lon="6.29389">
        <ele>1583.6</ele>
        <time>2024-08-13T06:11:50Z</time>
      </trkpt>
      <trkpt lat="44.82258" lon="6.29389">
        <ele>1583.4</ele>
        <time>2024-08-13T06:11:51Z</time>
      </trkpt>
      <trkpt lat="44.8226" lon="6.29387">
        <ele>1583.4</ele>
        <time>2024-08-13T06:11:52Z</time>
      </trkpt>
      <trkpt lat="44.8226" lon="6.29387">
        <ele>1583.2</ele>
        <time>2024-08-13T06:11:53Z</time>
      </trkpt>
      <trkpt lat="44.82262" lon="6.29387">
        <ele>1583.2</ele>
        <time>2024-08-13T06:11:54Z</time>
      </trkpt>
      <trkpt lat="44.82262" lon="6.29387">
        <ele>1583.2</ele>
        <time>2024-08-13T06:11:55Z</time>
      </trkpt>
      <trkpt lat="44.82265" lon="6.29386">
        <ele>1583</ele>
        <time>2024-08-13T06:11:56Z</time>
      </trkpt>
      <trkpt lat="44.82265" lon="6.29386">
        <ele>1583</ele>
        <time>2024-08-13T06:11:57Z</time>
      </trkpt>
      <trkpt lat="44.82268" lon="6.29385">
        <ele>1582.8</ele>
        <time>2024-08-13T06:11:58Z</time>
      </trkpt>
      <trkpt lat="44.82268" lon="6.29385">
        <ele>1582.8</ele>
        <time>2024-08-13T06:11:59Z</time>
      </trkpt>
      <trkpt lat="44.8227" lon="6.29382">
        <ele>1582.8</ele>
        <time>2024-08-13T06:12:00Z</time>
      </trkpt>
      <trkpt lat="44.8227" lon="6.29382">
        <ele>1582.8</ele>
        <time>2024-08-13T06:12:01Z</time>
      </trkpt>
      <trkpt lat="44.82273" lon="6.2938">
        <ele>1582.4</ele>
        <time>2024-08-13T06:12:02Z</time>
      </trkpt>
      <trkpt lat="44.82273" lon="6.2938">
        <ele>1582.4</ele>
        <time>2024-08-13T06:12:03Z</time>
      </trkpt>
      <trkpt lat="44.82276" lon="6.29378">
        <ele>1582.4</ele>
        <time>2024-08-13T06:12:04Z</time>
      </trkpt>
      <trkpt lat="44.82276" lon="6.29378">
        <ele>1582.4</ele>
        <time>2024-08-13T06:12:05Z</time>
      </trkpt>
      <trkpt lat="44.82278" lon="6.29375">
        <ele>1582.2</ele>
        <time>2024-08-13T06:12:06Z</time>
      </trkpt>
      <trkpt lat="44.82278" lon="6.29375">
        <ele>1582.2</ele>
        <time>2024-08-13T06:12:07Z</time>
      </trkpt>
      <trkpt lat="44.8228" lon="6.29374">
        <ele>1582.2</ele>
        <time>2024-08-13T06:12:08Z</time>
      </trkpt>
      <trkpt lat="44.8228" lon="6.29374">
        <ele>1582.4</ele>
        <time>2024-08-13T06:12:09Z</time>
      </trkpt>
      <trkpt lat="44.8228" lon="6.29374">
        <ele>1582.4</ele>
        <time>2024-08-13T06:12:10Z</time>
      </trkpt>
      <trkpt lat="44.82283" lon="6.29372">
        <ele>1582.2</ele>
        <time>2024-08-13T06:12:11Z</time>
      </trkpt>
      <trkpt lat="44.82283" lon="6.29372">
        <ele>1582.2</ele>
        <time>2024-08-13T06:12:12Z</time>
      </trkpt>
      <trkpt lat="44.82285" lon="6.29371">
        <ele>1582</ele>
        <time>2024-08-13T06:12:13Z</time>
      </trkpt>
      <trkpt lat="44.82285" lon="6.29371">
        <ele>1581.8</ele>
        <time>2024-08-13T06:12:14Z</time>
      </trkpt>
      <trkpt lat="44.82288" lon="6.2937">
        <ele>1581.8</ele>
        <time>2024-08-13T06:12:15Z</time>
      </trkpt>
      <trkpt lat="44.82288" lon="6.2937">
        <ele>1581.8</ele>
        <time>2024-08-13T06:12:16Z</time>
      </trkpt>
      <trkpt lat="44.8229" lon="6.29369">
        <ele>1581.6</ele>
        <time>2024-08-13T06:12:17Z</time>
      </trkpt>
      <trkpt lat="44.8229" lon="6.29369">
        <ele>1581.6</ele>
        <time>2024-08-13T06:12:18Z</time>
      </trkpt>
      <trkpt lat="44.82293" lon="6.29369">
        <ele>1581.6</ele>
        <time>2024-08-13T06:12:19Z</time>
      </trkpt>
      <trkpt lat="44.82293" lon="6.29369">
        <ele>1581.6</ele>
        <time>2024-08-13T06:12:20Z</time>
      </trkpt>
      <trkpt lat="44.82296" lon="6.29368">
        <ele>1581.4</ele>
        <time>2024-08-13T06:12:21Z</time>
      </trkpt>
      <trkpt lat="44.82296" lon="6.29368">
        <ele>1581.4</ele>
        <time>2024-08-13T06:12:22Z</time>
      </trkpt>
      <trkpt lat="44.82298" lon="6.29367">
        <ele>1581.2</ele>
        <time>2024-08-13T06:12:23Z</time>
      </trkpt>
      <trkpt lat="44.82298" lon="6.29367">
        <ele>1581.2</ele>
        <time>2024-08-13T06:12:24Z</time>
      </trkpt>
      <trkpt lat="44.823" lon="6.29366">
        <ele>1581</ele>
        <time>2024-08-13T06:12:25Z</time>
      </trkpt>
      <trkpt lat="44.823" lon="6.29366">
        <ele>1580.8</ele>
        <time>2024-08-13T06:12:26Z</time>
      </trkpt>
      <trkpt lat="44.82302" lon="6.29365">
        <ele>1580.6</ele>
        <time>2024-08-13T06:12:27Z</time>
      </trkpt>
      <trkpt lat="44.82302" lon="6.29365">
        <ele>1580.4</ele>
        <time>2024-08-13T06:12:28Z</time>
      </trkpt>
      <trkpt lat="44.82304" lon="6.29364">
        <ele>1580.4</ele>
        <time>2024-08-13T06:12:29Z</time>
      </trkpt>
      <trkpt lat="44.82304" lon="6.29364">
        <ele>1580.4</ele>
        <time>2024-08-13T06:12:30Z</time>
      </trkpt>
      <trkpt lat="44.82307" lon="6.29363">
        <ele>1580.4</ele>
        <time>2024-08-13T06:12:31Z</time>
      </trkpt>
      <trkpt lat="44.82307" lon="6.29363">
        <ele>1580.2</ele>
        <time>2024-08-13T06:12:32Z</time>
      </trkpt>
      <trkpt lat="44.82309" lon="6.29362">
        <ele>1580</ele>
        <time>2024-08-13T06:12:33Z</time>
      </trkpt>
      <trkpt lat="44.82309" lon="6.29362">
        <ele>1580</ele>
        <time>2024-08-13T06:12:34Z</time>
      </trkpt>
      <trkpt lat="44.82311" lon="6.29361">
        <ele>1579.8</ele>
        <time>2024-08-13T06:12:35Z</time>
      </trkpt>
      <trkpt lat="44.82311" lon="6.29361">
        <ele>1579.8</ele>
        <time>2024-08-13T06:12:36Z</time>
      </trkpt>
      <trkpt lat="44.82314" lon="6.29359">
        <ele>1579.8</ele>
        <time>2024-08-13T06:12:37Z</time>
      </trkpt>
      <trkpt lat="44.82316" lon="6.29358">
        <ele>1579.8</ele>
        <time>2024-08-13T06:12:38Z</time>
      </trkpt>
      <trkpt lat="44.82316" lon="6.29358">
        <ele>1579.6</ele>
        <time>2024-08-13T06:12:39Z</time>
      </trkpt>
      <trkpt lat="44.82318" lon="6.29357">
        <ele>1579.6</ele>
        <time>2024-08-13T06:12:40Z</time>
      </trkpt>
      <trkpt lat="44.82318" lon="6.29357">
        <ele>1579.6</ele>
        <time>2024-08-13T06:12:41Z</time>
      </trkpt>
      <trkpt lat="44.82322" lon="6.29356">
        <ele>1579.6</ele>
        <time>2024-08-13T06:12:42Z</time>
      </trkpt>
      <trkpt lat="44.82322" lon="6.29356">
        <ele>1579.6</ele>
        <time>2024-08-13T06:12:43Z</time>
      </trkpt>
      <trkpt lat="44.82324" lon="6.29355">
        <ele>1579.6</ele>
        <time>2024-08-13T06:12:44Z</time>
      </trkpt>
      <trkpt lat="44.82324" lon="6.29355">
        <ele>1579.4</ele>
        <time>2024-08-13T06:12:45Z</time>
      </trkpt>
      <trkpt lat="44.82326" lon="6.29353">
        <ele>1579.4</ele>
        <time>2024-08-13T06:12:46Z</time>
      </trkpt>
      <trkpt lat="44.82326" lon="6.29353">
        <ele>1579.4</ele>
        <time>2024-08-13T06:12:47Z</time>
      </trkpt>
      <trkpt lat="44.82329" lon="6.29352">
        <ele>1579.4</ele>
        <time>2024-08-13T06:12:48Z</time>
      </trkpt>
      <trkpt lat="44.82329" lon="6.29352">
        <ele>1579.4</ele>
        <time>2024-08-13T06:12:49Z</time>
      </trkpt>
      <trkpt lat="44.82332" lon="6.29351">
        <ele>1579.4</ele>
        <time>2024-08-13T06:12:50Z</time>
      </trkpt>
      <trkpt lat="44.82332" lon="6.29351">
        <ele>1579.4</ele>
        <time>2024-08-13T06:12:51Z</time>
      </trkpt>
      <trkpt lat="44.82334" lon="6.29351">
        <ele>1579.4</ele>
        <time>2024-08-13T06:12:52Z</time>
      </trkpt>
      <trkpt lat="44.82334" lon="6.29351">
        <ele>1579</ele>
        <time>2024-08-13T06:12:53Z</time>
      </trkpt>
      <trkpt lat="44.82336" lon="6.29352">
        <ele>1579</ele>
        <time>2024-08-13T06:12:54Z</time>
      </trkpt>
      <trkpt lat="44.82336" lon="6.29352">
        <ele>1578.8</ele>
        <time>2024-08-13T06:12:55Z</time>
      </trkpt>
      <trkpt lat="44.82339" lon="6.29351">
        <ele>1578.8</ele>
        <time>2024-08-13T06:12:56Z</time>
      </trkpt>
      <trkpt lat="44.82339" lon="6.29351">
        <ele>1578.8</ele>
        <time>2024-08-13T06:12:57Z</time>
      </trkpt>
      <trkpt lat="44.82341" lon="6.2935">
        <ele>1578.8</ele>
        <time>2024-08-13T06:12:58Z</time>
      </trkpt>
      <trkpt lat="44.82341" lon="6.2935">
        <ele>1578.6</ele>
        <time>2024-08-13T06:12:59Z</time>
      </trkpt>
      <trkpt lat="44.82343" lon="6.29349">
        <ele>1578.6</ele>
        <time>2024-08-13T06:13:00Z</time>
      </trkpt>
      <trkpt lat="44.82343" lon="6.29349">
        <ele>1578.6</ele>
        <time>2024-08-13T06:13:01Z</time>
      </trkpt>
      <trkpt lat="44.82346" lon="6.29349">
        <ele>1578.2</ele>
        <time>2024-08-13T06:13:02Z</time>
      </trkpt>
      <trkpt lat="44.82346" lon="6.29349">
        <ele>1578.2</ele>
        <time>2024-08-13T06:13:03Z</time>
      </trkpt>
      <trkpt lat="44.82348" lon="6.2935">
        <ele>1578.2</ele>
        <time>2024-08-13T06:13:04Z</time>
      </trkpt>
      <trkpt lat="44.82348" lon="6.2935">
        <ele>1578</ele>
        <time>2024-08-13T06:13:05Z</time>
      </trkpt>
      <trkpt lat="44.8235" lon="6.29351">
        <ele>1577.8</ele>
        <time>2024-08-13T06:13:06Z</time>
      </trkpt>
      <trkpt lat="44.82352" lon="6.2935">
        <ele>1577.8</ele>
        <time>2024-08-13T06:13:07Z</time>
      </trkpt>
      <trkpt lat="44.82352" lon="6.2935">
        <ele>1577.8</ele>
        <time>2024-08-13T06:13:08Z</time>
      </trkpt>
      <trkpt lat="44.82356" lon="6.2935">
        <ele>1577.8</ele>
        <time>2024-08-13T06:13:09Z</time>
      </trkpt>
      <trkpt lat="44.82356" lon="6.2935">
        <ele>1577.6</ele>
        <time>2024-08-13T06:13:10Z</time>
      </trkpt>
      <trkpt lat="44.82358" lon="6.2935">
        <ele>1577.6</ele>
        <time>2024-08-13T06:13:11Z</time>
      </trkpt>
      <trkpt lat="44.8236" lon="6.2935">
        <ele>1577.6</ele>
        <time>2024-08-13T06:13:12Z</time>
      </trkpt>
      <trkpt lat="44.8236" lon="6.2935">
        <ele>1577.6</ele>
        <time>2024-08-13T06:13:13Z</time>
      </trkpt>
      <trkpt lat="44.82362" lon="6.29351">
        <ele>1577.6</ele>
        <time>2024-08-13T06:13:14Z</time>
      </trkpt>
      <trkpt lat="44.82362" lon="6.29351">
        <ele>1577.4</ele>
        <time>2024-08-13T06:13:15Z</time>
      </trkpt>
      <trkpt lat="44.82365" lon="6.29352">
        <ele>1577.4</ele>
        <time>2024-08-13T06:13:16Z</time>
      </trkpt>
      <trkpt lat="44.82365" lon="6.29352">
        <ele>1577.4</ele>
        <time>2024-08-13T06:13:17Z</time>
      </trkpt>
      <trkpt lat="44.82367" lon="6.29352">
        <ele>1577.2</ele>
        <time>2024-08-13T06:13:18Z</time>
      </trkpt>
      <trkpt lat="44.82367" lon="6.29352">
        <ele>1577.2</ele>
        <time>2024-08-13T06:13:19Z</time>
      </trkpt>
      <trkpt lat="44.8237" lon="6.29351">
        <ele>1577.2</ele>
        <time>2024-08-13T06:13:20Z</time>
      </trkpt>
      <trkpt lat="44.8237" lon="6.29351">
        <ele>1577.2</ele>
        <time>2024-08-13T06:13:21Z</time>
      </trkpt>
      <trkpt lat="44.82372" lon="6.29349">
        <ele>1577.2</ele>
        <time>2024-08-13T06:13:22Z</time>
      </trkpt>
      <trkpt lat="44.82372" lon="6.29349">
        <ele>1577.2</ele>
        <time>2024-08-13T06:13:23Z</time>
      </trkpt>
      <trkpt lat="44.82374" lon="6.29348">
        <ele>1577</ele>
        <time>2024-08-13T06:13:24Z</time>
      </trkpt>
      <trkpt lat="44.82374" lon="6.29348">
        <ele>1577</ele>
        <time>2024-08-13T06:13:25Z</time>
      </trkpt>
      <trkpt lat="44.82377" lon="6.29348">
        <ele>1577</ele>
        <time>2024-08-13T06:13:26Z</time>
      </trkpt>
      <trkpt lat="44.82377" lon="6.29348">
        <ele>1577</ele>
        <time>2024-08-13T06:13:27Z</time>
      </trkpt>
      <trkpt lat="44.82379" lon="6.29347">
        <ele>1576.8</ele>
        <time>2024-08-13T06:13:28Z</time>
      </trkpt>
      <trkpt lat="44.82379" lon="6.29347">
        <ele>1576.8</ele>
        <time>2024-08-13T06:13:29Z</time>
      </trkpt>
      <trkpt lat="44.82379" lon="6.29347">
        <ele>1576.8</ele>
        <time>2024-08-13T06:13:30Z</time>
      </trkpt>
      <trkpt lat="44.82382" lon="6.29345">
        <ele>1577</ele>
        <time>2024-08-13T06:13:31Z</time>
      </trkpt>
      <trkpt lat="44.82382" lon="6.29345">
        <ele>1577</ele>
        <time>2024-08-13T06:13:32Z</time>
      </trkpt>
      <trkpt lat="44.82384" lon="6.29344">
        <ele>1577</ele>
        <time>2024-08-13T06:13:33Z</time>
      </trkpt>
      <trkpt lat="44.82384" lon="6.29344">
        <ele>1577</ele>
        <time>2024-08-13T06:13:34Z</time>
      </trkpt>
      <trkpt lat="44.82386" lon="6.29344">
        <ele>1576.6</ele>
        <time>2024-08-13T06:13:35Z</time>
      </trkpt>
      <trkpt lat="44.82386" lon="6.29344">
        <ele>1576.6</ele>
        <time>2024-08-13T06:13:36Z</time>
      </trkpt>
      <trkpt lat="44.82388" lon="6.29343">
        <ele>1576.4</ele>
        <time>2024-08-13T06:13:37Z</time>
      </trkpt>
      <trkpt lat="44.82388" lon="6.29343">
        <ele>1576.2</ele>
        <time>2024-08-13T06:13:38Z</time>
      </trkpt>
      <trkpt lat="44.8239" lon="6.29343">
        <ele>1576</ele>
        <time>2024-08-13T06:13:39Z</time>
      </trkpt>
      <trkpt lat="44.8239" lon="6.29343">
        <ele>1576</ele>
        <time>2024-08-13T06:13:40Z</time>
      </trkpt>
      <trkpt lat="44.82393" lon="6.29343">
        <ele>1576</ele>
        <time>2024-08-13T06:13:41Z</time>
      </trkpt>
      <trkpt lat="44.82393" lon="6.29343">
        <ele>1576</ele>
        <time>2024-08-13T06:13:42Z</time>
      </trkpt>
      <trkpt lat="44.82395" lon="6.29343">
        <ele>1576</ele>
        <time>2024-08-13T06:13:43Z</time>
      </trkpt>
      <trkpt lat="44.82395" lon="6.29343">
        <ele>1575.8</ele>
        <time>2024-08-13T06:13:44Z</time>
      </trkpt>
      <trkpt lat="44.82397" lon="6.29344">
        <ele>1575.8</ele>
        <time>2024-08-13T06:13:45Z</time>
      </trkpt>
      <trkpt lat="44.82397" lon="6.29344">
        <ele>1575.6</ele>
        <time>2024-08-13T06:13:46Z</time>
      </trkpt>
      <trkpt lat="44.824" lon="6.29346">
        <ele>1575.6</ele>
        <time>2024-08-13T06:13:47Z</time>
      </trkpt>
      <trkpt lat="44.82402" lon="6.29347">
        <ele>1575.4</ele>
        <time>2024-08-13T06:13:48Z</time>
      </trkpt>
      <trkpt lat="44.82402" lon="6.29347">
        <ele>1575.4</ele>
        <time>2024-08-13T06:13:49Z</time>
      </trkpt>
      <trkpt lat="44.82404" lon="6.29347">
        <ele>1575.4</ele>
        <time>2024-08-13T06:13:50Z</time>
      </trkpt>
      <trkpt lat="44.82404" lon="6.29347">
        <ele>1575.2</ele>
        <time>2024-08-13T06:13:51Z</time>
      </trkpt>
      <trkpt lat="44.82404" lon="6.29347">
        <ele>1575</ele>
        <time>2024-08-13T06:13:52Z</time>
      </trkpt>
      <trkpt lat="44.82406" lon="6.29348">
        <ele>1575</ele>
        <time>2024-08-13T06:13:53Z</time>
      </trkpt>
      <trkpt lat="44.82406" lon="6.29348">
        <ele>1575</ele>
        <time>2024-08-13T06:13:54Z</time>
      </trkpt>
      <trkpt lat="44.82408" lon="6.29348">
        <ele>1575</ele>
        <time>2024-08-13T06:13:55Z</time>
      </trkpt>
      <trkpt lat="44.82408" lon="6.29348">
        <ele>1574.8</ele>
        <time>2024-08-13T06:13:56Z</time>
      </trkpt>
      <trkpt lat="44.82411" lon="6.29349">
        <ele>1574.6</ele>
        <time>2024-08-13T06:13:57Z</time>
      </trkpt>
      <trkpt lat="44.82411" lon="6.29349">
        <ele>1574.6</ele>
        <time>2024-08-13T06:13:58Z</time>
      </trkpt>
      <trkpt lat="44.82413" lon="6.29348">
        <ele>1574.4</ele>
        <time>2024-08-13T06:13:59Z</time>
      </trkpt>
      <trkpt lat="44.82413" lon="6.29348">
        <ele>1574.2</ele>
        <time>2024-08-13T06:14:00Z</time>
      </trkpt>
      <trkpt lat="44.82417" lon="6.29347">
        <ele>1574.2</ele>
        <time>2024-08-13T06:14:01Z</time>
      </trkpt>
      <trkpt lat="44.82417" lon="6.29347">
        <ele>1574</ele>
        <time>2024-08-13T06:14:02Z</time>
      </trkpt>
      <trkpt lat="44.8242" lon="6.29346">
        <ele>1574</ele>
        <time>2024-08-13T06:14:03Z</time>
      </trkpt>
      <trkpt lat="44.8242" lon="6.29346">
        <ele>1574</ele>
        <time>2024-08-13T06:14:04Z</time>
      </trkpt>
      <trkpt lat="44.82422" lon="6.29345">
        <ele>1574</ele>
        <time>2024-08-13T06:14:05Z</time>
      </trkpt>
      <trkpt lat="44.82422" lon="6.29345">
        <ele>1574</ele>
        <time>2024-08-13T06:14:06Z</time>
      </trkpt>
      <trkpt lat="44.82425" lon="6.29344">
        <ele>1573.8</ele>
        <time>2024-08-13T06:14:07Z</time>
      </trkpt>
      <trkpt lat="44.82425" lon="6.29344">
        <ele>1573.4</ele>
        <time>2024-08-13T06:14:08Z</time>
      </trkpt>
      <trkpt lat="44.82427" lon="6.29344">
        <ele>1573.4</ele>
        <time>2024-08-13T06:14:09Z</time>
      </trkpt>
      <trkpt lat="44.82427" lon="6.29344">
        <ele>1573.2</ele>
        <time>2024-08-13T06:14:10Z</time>
      </trkpt>
      <trkpt lat="44.82429" lon="6.29343">
        <ele>1573.2</ele>
        <time>2024-08-13T06:14:11Z</time>
      </trkpt>
      <trkpt lat="44.82429" lon="6.29343">
        <ele>1573</ele>
        <time>2024-08-13T06:14:12Z</time>
      </trkpt>
      <trkpt lat="44.82432" lon="6.29341">
        <ele>1573</ele>
        <time>2024-08-13T06:14:13Z</time>
      </trkpt>
      <trkpt lat="44.82432" lon="6.29341">
        <ele>1572.8</ele>
        <time>2024-08-13T06:14:14Z</time>
      </trkpt>
      <trkpt lat="44.82434" lon="6.29338">
        <ele>1572.8</ele>
        <time>2024-08-13T06:14:15Z</time>
      </trkpt>
      <trkpt lat="44.82434" lon="6.29338">
        <ele>1572.8</ele>
        <time>2024-08-13T06:14:16Z</time>
      </trkpt>
      <trkpt lat="44.82436" lon="6.29335">
        <ele>1572.6</ele>
        <time>2024-08-13T06:14:17Z</time>
      </trkpt>
      <trkpt lat="44.82436" lon="6.29335">
        <ele>1572.6</ele>
        <time>2024-08-13T06:14:18Z</time>
      </trkpt>
      <trkpt lat="44.82438" lon="6.29334">
        <ele>1572.6</ele>
        <time>2024-08-13T06:14:19Z</time>
      </trkpt>
      <trkpt lat="44.82438" lon="6.29334">
        <ele>1572.6</ele>
        <time>2024-08-13T06:14:20Z</time>
      </trkpt>
      <trkpt lat="44.8244" lon="6.29333">
        <ele>1572.6</ele>
        <time>2024-08-13T06:14:21Z</time>
      </trkpt>
      <trkpt lat="44.8244" lon="6.29333">
        <ele>1572.4</ele>
        <time>2024-08-13T06:14:22Z</time>
      </trkpt>
      <trkpt lat="44.8244" lon="6.29333">
        <ele>1572.2</ele>
        <time>2024-08-13T06:14:23Z</time>
      </trkpt>
      <trkpt lat="44.82443" lon="6.29334">
        <ele>1572.2</ele>
        <time>2024-08-13T06:14:24Z</time>
      </trkpt>
      <trkpt lat="44.82443" lon="6.29334">
        <ele>1572.2</ele>
        <time>2024-08-13T06:14:25Z</time>
      </trkpt>
      <trkpt lat="44.82445" lon="6.29334">
        <ele>1572.2</ele>
        <time>2024-08-13T06:14:26Z</time>
      </trkpt>
      <trkpt lat="44.82445" lon="6.29334">
        <ele>1572</ele>
        <time>2024-08-13T06:14:27Z</time>
      </trkpt>
      <trkpt lat="44.82447" lon="6.29335">
        <ele>1572</ele>
        <time>2024-08-13T06:14:28Z</time>
      </trkpt>
      <trkpt lat="44.82447" lon="6.29335">
        <ele>1571.8</ele>
        <time>2024-08-13T06:14:29Z</time>
      </trkpt>
      <trkpt lat="44.82449" lon="6.29336">
        <ele>1571.4</ele>
        <time>2024-08-13T06:14:30Z</time>
      </trkpt>
      <trkpt lat="44.82449" lon="6.29336">
        <ele>1571.4</ele>
        <time>2024-08-13T06:14:31Z</time>
      </trkpt>
      <trkpt lat="44.82451" lon="6.29337">
        <ele>1571.2</ele>
        <time>2024-08-13T06:14:32Z</time>
      </trkpt>
      <trkpt lat="44.82451" lon="6.29337">
        <ele>1571.2</ele>
        <time>2024-08-13T06:14:33Z</time>
      </trkpt>
      <trkpt lat="44.82451" lon="6.29337">
        <ele>1571</ele>
        <time>2024-08-13T06:14:34Z</time>
      </trkpt>
      <trkpt lat="44.82451" lon="6.29337">
        <ele>1571</ele>
        <time>2024-08-13T06:14:35Z</time>
      </trkpt>
      <trkpt lat="44.82451" lon="6.29337">
        <ele>1571</ele>
        <time>2024-08-13T06:14:36Z</time>
      </trkpt>
      <trkpt lat="44.82453" lon="6.29339">
        <ele>1571</ele>
        <time>2024-08-13T06:14:37Z</time>
      </trkpt>
      <trkpt lat="44.82453" lon="6.29339">
        <ele>1571</ele>
        <time>2024-08-13T06:14:38Z</time>
      </trkpt>
      <trkpt lat="44.82453" lon="6.29339">
        <ele>1571.2</ele>
        <time>2024-08-13T06:14:39Z</time>
      </trkpt>
      <trkpt lat="44.82453" lon="6.29339">
        <ele>1571.4</ele>
        <time>2024-08-13T06:14:40Z</time>
      </trkpt>
      <trkpt lat="44.82453" lon="6.29339">
        <ele>1571.4</ele>
        <time>2024-08-13T06:14:41Z</time>
      </trkpt>
      <trkpt lat="44.82453" lon="6.29339">
        <ele>1571.4</ele>
        <time>2024-08-13T06:14:42Z</time>
      </trkpt>
      <trkpt lat="44.82453" lon="6.29339">
        <ele>1571.2</ele>
        <time>2024-08-13T06:14:43Z</time>
      </trkpt>
      <trkpt lat="44.82454" lon="6.29342">
        <ele>1571</ele>
        <time>2024-08-13T06:14:44Z</time>
      </trkpt>
      <trkpt lat="44.82454" lon="6.29342">
        <ele>1571</ele>
        <time>2024-08-13T06:14:45Z</time>
      </trkpt>
      <trkpt lat="44.82457" lon="6.29345">
        <ele>1571</ele>
        <time>2024-08-13T06:14:46Z</time>
      </trkpt>
      <trkpt lat="44.82457" lon="6.29345">
        <ele>1571</ele>
        <time>2024-08-13T06:14:47Z</time>
      </trkpt>
      <trkpt lat="44.82457" lon="6.29345">
        <ele>1571</ele>
        <time>2024-08-13T06:14:48Z</time>
      </trkpt>
      <trkpt lat="44.82457" lon="6.29345">
        <ele>1571</ele>
        <time>2024-08-13T06:14:49Z</time>
      </trkpt>
      <trkpt lat="44.82457" lon="6.29345">
        <ele>1571</ele>
        <time>2024-08-13T06:14:50Z</time>
      </trkpt>
      <trkpt lat="44.82457" lon="6.29345">
        <ele>1571</ele>
        <time>2024-08-13T06:14:51Z</time>
      </trkpt>
      <trkpt lat="44.82457" lon="6.29345">
        <ele>1571</ele>
        <time>2024-08-13T06:14:52Z</time>
      </trkpt>
      <trkpt lat="44.82457" lon="6.29345">
        <ele>1571</ele>
        <time>2024-08-13T06:14:53Z</time>
      </trkpt>
      <trkpt lat="44.82457" lon="6.29345">
        <ele>1571</ele>
        <time>2024-08-13T06:14:54Z</time>
      </trkpt>
      <trkpt lat="44.82457" lon="6.29345">
        <ele>1570.8</ele>
        <time>2024-08-13T06:14:55Z</time>
      </trkpt>
      <trkpt lat="44.82457" lon="6.29345">
        <ele>1570.8</ele>
        <time>2024-08-13T06:14:56Z</time>
      </trkpt>
      <trkpt lat="44.82457" lon="6.29345">
        <ele>1570.8</ele>
        <time>2024-08-13T06:14:57Z</time>
      </trkpt>
      <trkpt lat="44.82457" lon="6.29345">
        <ele>1570.8</ele>
        <time>2024-08-13T06:14:58Z</time>
      </trkpt>
      <trkpt lat="44.82457" lon="6.29345">
        <ele>1570.8</ele>
        <time>2024-08-13T06:14:59Z</time>
      </trkpt>
      <trkpt lat="44.82459" lon="6.29346">
        <ele>1571</ele>
        <time>2024-08-13T06:15:00Z</time>
      </trkpt>
      <trkpt lat="44.82459" lon="6.29346">
        <ele>1571</ele>
        <time>2024-08-13T06:15:01Z</time>
      </trkpt>
      <trkpt lat="44.82461" lon="6.29347">
        <ele>1571</ele>
        <time>2024-08-13T06:15:02Z</time>
      </trkpt>
      <trkpt lat="44.82461" lon="6.29347">
        <ele>1571</ele>
        <time>2024-08-13T06:15:03Z</time>
      </trkpt>
      <trkpt lat="44.82464" lon="6.29347">
        <ele>1571.2</ele>
        <time>2024-08-13T06:15:04Z</time>
      </trkpt>
      <trkpt lat="44.82464" lon="6.29347">
        <ele>1571.4</ele>
        <time>2024-08-13T06:15:05Z</time>
      </trkpt>
      <trkpt lat="44.82467" lon="6.29347">
        <ele>1571.6</ele>
        <time>2024-08-13T06:15:06Z</time>
      </trkpt>
      <trkpt lat="44.82467" lon="6.29347">
        <ele>1571.8</ele>
        <time>2024-08-13T06:15:07Z</time>
      </trkpt>
      <trkpt lat="44.82469" lon="6.29346">
        <ele>1572</ele>
        <time>2024-08-13T06:15:08Z</time>
      </trkpt>
      <trkpt lat="44.82469" lon="6.29346">
        <ele>1572.4</ele>
        <time>2024-08-13T06:15:09Z</time>
      </trkpt>
      <trkpt lat="44.82471" lon="6.29345">
        <ele>1572.6</ele>
        <time>2024-08-13T06:15:10Z</time>
      </trkpt>
      <trkpt lat="44.82471" lon="6.29345">
        <ele>1572.6</ele>
        <time>2024-08-13T06:15:11Z</time>
      </trkpt>
      <trkpt lat="44.82474" lon="6.29344">
        <ele>1573</ele>
        <time>2024-08-13T06:15:12Z</time>
      </trkpt>
      <trkpt lat="44.82474" lon="6.29344">
        <ele>1573.4</ele>
        <time>2024-08-13T06:15:13Z</time>
      </trkpt>
      <trkpt lat="44.82476" lon="6.29344">
        <ele>1573.8</ele>
        <time>2024-08-13T06:15:14Z</time>
      </trkpt>
      <trkpt lat="44.82476" lon="6.29344">
        <ele>1574</ele>
        <time>2024-08-13T06:15:15Z</time>
      </trkpt>
      <trkpt lat="44.82477" lon="6.29343">
        <ele>1574.4</ele>
        <time>2024-08-13T06:15:16Z</time>
      </trkpt>
      <trkpt lat="44.82477" lon="6.29343">
        <ele>1574.6</ele>
        <time>2024-08-13T06:15:17Z</time>
      </trkpt>
      <trkpt lat="44.8248" lon="6.29342">
        <ele>1574.6</ele>
        <time>2024-08-13T06:15:18Z</time>
      </trkpt>
      <trkpt lat="44.8248" lon="6.29342">
        <ele>1574.8</ele>
        <time>2024-08-13T06:15:19Z</time>
      </trkpt>
      <trkpt lat="44.8248" lon="6.29342">
        <ele>1575</ele>
        <time>2024-08-13T06:15:20Z</time>
      </trkpt>
      <trkpt lat="44.82482" lon="6.29342">
        <ele>1575.2</ele>
        <time>2024-08-13T06:15:21Z</time>
      </trkpt>
      <trkpt lat="44.82482" lon="6.29342">
        <ele>1575.6</ele>
        <time>2024-08-13T06:15:22Z</time>
      </trkpt>
      <trkpt lat="44.82482" lon="6.29342">
        <ele>1575.8</ele>
        <time>2024-08-13T06:15:23Z</time>
      </trkpt>
      <trkpt lat="44.82482" lon="6.29342">
        <ele>1575.8</ele>
        <time>2024-08-13T06:15:24Z</time>
      </trkpt>
      <trkpt lat="44.82484" lon="6.29341">
        <ele>1575.8</ele>
        <time>2024-08-13T06:15:25Z</time>
      </trkpt>
      <trkpt lat="44.82484" lon="6.29341">
        <ele>1576</ele>
        <time>2024-08-13T06:15:26Z</time>
      </trkpt>
      <trkpt lat="44.82484" lon="6.29341">
        <ele>1576.2</ele>
        <time>2024-08-13T06:15:27Z</time>
      </trkpt>
      <trkpt lat="44.82486" lon="6.29341">
        <ele>1576.6</ele>
        <time>2024-08-13T06:15:28Z</time>
      </trkpt>
      <trkpt lat="44.82486" lon="6.29341">
        <ele>1576.8</ele>
        <time>2024-08-13T06:15:29Z</time>
      </trkpt>
      <trkpt lat="44.82488" lon="6.29341">
        <ele>1576.8</ele>
        <time>2024-08-13T06:15:30Z</time>
      </trkpt>
      <trkpt lat="44.82488" lon="6.29341">
        <ele>1577.2</ele>
        <time>2024-08-13T06:15:31Z</time>
      </trkpt>
      <trkpt lat="44.8249" lon="6.29341">
        <ele>1577.4</ele>
        <time>2024-08-13T06:15:32Z</time>
      </trkpt>
      <trkpt lat="44.8249" lon="6.29341">
        <ele>1577.4</ele>
        <time>2024-08-13T06:15:33Z</time>
      </trkpt>
      <trkpt lat="44.82493" lon="6.29342">
        <ele>1577.4</ele>
        <time>2024-08-13T06:15:34Z</time>
      </trkpt>
      <trkpt lat="44.82493" lon="6.29342">
        <ele>1577.4</ele>
        <time>2024-08-13T06:15:35Z</time>
      </trkpt>
      <trkpt lat="44.82493" lon="6.29342">
        <ele>1577.4</ele>
        <time>2024-08-13T06:15:36Z</time>
      </trkpt>
      <trkpt lat="44.82495" lon="6.2934">
        <ele>1577.4</ele>
        <time>2024-08-13T06:15:37Z</time>
      </trkpt>
      <trkpt lat="44.82495" lon="6.2934">
        <ele>1577.2</ele>
        <time>2024-08-13T06:15:38Z</time>
      </trkpt>
      <trkpt lat="44.82496" lon="6.29337">
        <ele>1577.2</ele>
        <time>2024-08-13T06:15:39Z</time>
      </trkpt>
      <trkpt lat="44.82496" lon="6.29337">
        <ele>1577.4</ele>
        <time>2024-08-13T06:15:40Z</time>
      </trkpt>
      <trkpt lat="44.82496" lon="6.29337">
        <ele>1577.4</ele>
        <time>2024-08-13T06:15:41Z</time>
      </trkpt>
      <trkpt lat="44.82499" lon="6.29335">
        <ele>1577.4</ele>
        <time>2024-08-13T06:15:42Z</time>
      </trkpt>
      <trkpt lat="44.82499" lon="6.29335">
        <ele>1577.4</ele>
        <time>2024-08-13T06:15:43Z</time>
      </trkpt>
      <trkpt lat="44.82501" lon="6.29334">
        <ele>1577.6</ele>
        <time>2024-08-13T06:15:44Z</time>
      </trkpt>
      <trkpt lat="44.82501" lon="6.29334">
        <ele>1577.6</ele>
        <time>2024-08-13T06:15:45Z</time>
      </trkpt>
      <trkpt lat="44.82503" lon="6.29333">
        <ele>1577.8</ele>
        <time>2024-08-13T06:15:46Z</time>
      </trkpt>
      <trkpt lat="44.82503" lon="6.29333">
        <ele>1577.8</ele>
        <time>2024-08-13T06:15:47Z</time>
      </trkpt>
      <trkpt lat="44.82505" lon="6.29331">
        <ele>1577.8</ele>
        <time>2024-08-13T06:15:48Z</time>
      </trkpt>
      <trkpt lat="44.82505" lon="6.29331">
        <ele>1578</ele>
        <time>2024-08-13T06:15:49Z</time>
      </trkpt>
      <trkpt lat="44.82507" lon="6.2933">
        <ele>1578.2</ele>
        <time>2024-08-13T06:15:50Z</time>
      </trkpt>
      <trkpt lat="44.82507" lon="6.2933">
        <ele>1578.2</ele>
        <time>2024-08-13T06:15:51Z</time>
      </trkpt>
      <trkpt lat="44.82509" lon="6.2933">
        <ele>1578.2</ele>
        <time>2024-08-13T06:15:52Z</time>
      </trkpt>
      <trkpt lat="44.82509" lon="6.2933">
        <ele>1578.2</ele>
        <time>2024-08-13T06:15:53Z</time>
      </trkpt>
      <trkpt lat="44.82511" lon="6.29328">
        <ele>1578.2</ele>
        <time>2024-08-13T06:15:54Z</time>
      </trkpt>
      <trkpt lat="44.82511" lon="6.29328">
        <ele>1578.2</ele>
        <time>2024-08-13T06:15:55Z</time>
      </trkpt>
      <trkpt lat="44.82513" lon="6.29328">
        <ele>1578.2</ele>
        <time>2024-08-13T06:15:56Z</time>
      </trkpt>
      <trkpt lat="44.82513" lon="6.29328">
        <ele>1578.2</ele>
        <time>2024-08-13T06:15:57Z</time>
      </trkpt>
      <trkpt lat="44.82515" lon="6.29327">
        <ele>1578</ele>
        <time>2024-08-13T06:15:58Z</time>
      </trkpt>
      <trkpt lat="44.82515" lon="6.29327">
        <ele>1577.6</ele>
        <time>2024-08-13T06:15:59Z</time>
      </trkpt>
      <trkpt lat="44.82515" lon="6.29327">
        <ele>1577.6</ele>
        <time>2024-08-13T06:16:00Z</time>
      </trkpt>
      <trkpt lat="44.82518" lon="6.29326">
        <ele>1577.6</ele>
        <time>2024-08-13T06:16:01Z</time>
      </trkpt>
      <trkpt lat="44.82518" lon="6.29326">
        <ele>1577.6</ele>
        <time>2024-08-13T06:16:02Z</time>
      </trkpt>
      <trkpt lat="44.8252" lon="6.29325">
        <ele>1577.6</ele>
        <time>2024-08-13T06:16:03Z</time>
      </trkpt>
      <trkpt lat="44.8252" lon="6.29325">
        <ele>1577.4</ele>
        <time>2024-08-13T06:16:04Z</time>
      </trkpt>
      <trkpt lat="44.8252" lon="6.29325">
        <ele>1577.2</ele>
        <time>2024-08-13T06:16:05Z</time>
      </trkpt>
      <trkpt lat="44.82521" lon="6.29323">
        <ele>1577.2</ele>
        <time>2024-08-13T06:16:06Z</time>
      </trkpt>
      <trkpt lat="44.82521" lon="6.29323">
        <ele>1577</ele>
        <time>2024-08-13T06:16:07Z</time>
      </trkpt>
      <trkpt lat="44.82523" lon="6.29321">
        <ele>1576.8</ele>
        <time>2024-08-13T06:16:08Z</time>
      </trkpt>
      <trkpt lat="44.82523" lon="6.29321">
        <ele>1576.4</ele>
        <time>2024-08-13T06:16:09Z</time>
      </trkpt>
      <trkpt lat="44.82525" lon="6.2932">
        <ele>1576.2</ele>
        <time>2024-08-13T06:16:10Z</time>
      </trkpt>
      <trkpt lat="44.82525" lon="6.2932">
        <ele>1576.2</ele>
        <time>2024-08-13T06:16:11Z</time>
      </trkpt>
      <trkpt lat="44.82526" lon="6.29319">
        <ele>1576</ele>
        <time>2024-08-13T06:16:12Z</time>
      </trkpt>
      <trkpt lat="44.82526" lon="6.29319">
        <ele>1575.6</ele>
        <time>2024-08-13T06:16:13Z</time>
      </trkpt>
      <trkpt lat="44.82528" lon="6.29317">
        <ele>1575.6</ele>
        <time>2024-08-13T06:16:14Z</time>
      </trkpt>
      <trkpt lat="44.82528" lon="6.29317">
        <ele>1575.4</ele>
        <time>2024-08-13T06:16:15Z</time>
      </trkpt>
      <trkpt lat="44.8253" lon="6.29316">
        <ele>1575.2</ele>
        <time>2024-08-13T06:16:16Z</time>
      </trkpt>
      <trkpt lat="44.8253" lon="6.29316">
        <ele>1574.8</ele>
        <time>2024-08-13T06:16:17Z</time>
      </trkpt>
      <trkpt lat="44.8253" lon="6.29316">
        <ele>1574.4</ele>
        <time>2024-08-13T06:16:18Z</time>
      </trkpt>
      <trkpt lat="44.8253" lon="6.29316">
        <ele>1574.4</ele>
        <time>2024-08-13T06:16:19Z</time>
      </trkpt>
      <trkpt lat="44.82531" lon="6.29318">
        <ele>1574.2</ele>
        <time>2024-08-13T06:16:20Z</time>
      </trkpt>
      <trkpt lat="44.82531" lon="6.29318">
        <ele>1574</ele>
        <time>2024-08-13T06:16:21Z</time>
      </trkpt>
      <trkpt lat="44.82532" lon="6.2932">
        <ele>1573.8</ele>
        <time>2024-08-13T06:16:22Z</time>
      </trkpt>
      <trkpt lat="44.82532" lon="6.2932">
        <ele>1573.6</ele>
        <time>2024-08-13T06:16:23Z</time>
      </trkpt>
      <trkpt lat="44.82534" lon="6.29323">
        <ele>1573.6</ele>
        <time>2024-08-13T06:16:24Z</time>
      </trkpt>
      <trkpt lat="44.82534" lon="6.29323">
        <ele>1573.2</ele>
        <time>2024-08-13T06:16:25Z</time>
      </trkpt>
      <trkpt lat="44.82536" lon="6.29323">
        <ele>1573.2</ele>
        <time>2024-08-13T06:16:26Z</time>
      </trkpt>
      <trkpt lat="44.82536" lon="6.29323">
        <ele>1573.2</ele>
        <time>2024-08-13T06:16:27Z</time>
      </trkpt>
      <trkpt lat="44.82538" lon="6.29323">
        <ele>1572.8</ele>
        <time>2024-08-13T06:16:28Z</time>
      </trkpt>
      <trkpt lat="44.82538" lon="6.29323">
        <ele>1572.6</ele>
        <time>2024-08-13T06:16:29Z</time>
      </trkpt>
      <trkpt lat="44.8254" lon="6.29322">
        <ele>1572.6</ele>
        <time>2024-08-13T06:16:30Z</time>
      </trkpt>
      <trkpt lat="44.8254" lon="6.29322">
        <ele>1572.4</ele>
        <time>2024-08-13T06:16:31Z</time>
      </trkpt>
      <trkpt lat="44.82543" lon="6.2932">
        <ele>1572.4</ele>
        <time>2024-08-13T06:16:32Z</time>
      </trkpt>
      <trkpt lat="44.82543" lon="6.2932">
        <ele>1572</ele>
        <time>2024-08-13T06:16:33Z</time>
      </trkpt>
      <trkpt lat="44.82545" lon="6.29318">
        <ele>1571.8</ele>
        <time>2024-08-13T06:16:34Z</time>
      </trkpt>
      <trkpt lat="44.82545" lon="6.29318">
        <ele>1571.6</ele>
        <time>2024-08-13T06:16:35Z</time>
      </trkpt>
      <trkpt lat="44.82548" lon="6.29316">
        <ele>1571.4</ele>
        <time>2024-08-13T06:16:36Z</time>
      </trkpt>
      <trkpt lat="44.82548" lon="6.29316">
        <ele>1571</ele>
        <time>2024-08-13T06:16:37Z</time>
      </trkpt>
      <trkpt lat="44.8255" lon="6.29315">
        <ele>1571</ele>
        <time>2024-08-13T06:16:38Z</time>
      </trkpt>
      <trkpt lat="44.8255" lon="6.29315">
        <ele>1571</ele>
        <time>2024-08-13T06:16:39Z</time>
      </trkpt>
      <trkpt lat="44.82552" lon="6.29314">
        <ele>1571</ele>
        <time>2024-08-13T06:16:40Z</time>
      </trkpt>
      <trkpt lat="44.82552" lon="6.29314">
        <ele>1570.8</ele>
        <time>2024-08-13T06:16:41Z</time>
      </trkpt>
      <trkpt lat="44.82555" lon="6.29314">
        <ele>1570.6</ele>
        <time>2024-08-13T06:16:42Z</time>
      </trkpt>
      <trkpt lat="44.82555" lon="6.29314">
        <ele>1570.6</ele>
        <time>2024-08-13T06:16:43Z</time>
      </trkpt>
      <trkpt lat="44.82555" lon="6.29314">
        <ele>1570.6</ele>
        <time>2024-08-13T06:16:44Z</time>
      </trkpt>
      <trkpt lat="44.82557" lon="6.29313">
        <ele>1570.4</ele>
        <time>2024-08-13T06:16:45Z</time>
      </trkpt>
      <trkpt lat="44.82557" lon="6.29313">
        <ele>1570.2</ele>
        <time>2024-08-13T06:16:46Z</time>
      </trkpt>
      <trkpt lat="44.8256" lon="6.29313">
        <ele>1570</ele>
        <time>2024-08-13T06:16:47Z</time>
      </trkpt>
      <trkpt lat="44.8256" lon="6.29313">
        <ele>1569.6</ele>
        <time>2024-08-13T06:16:48Z</time>
      </trkpt>
      <trkpt lat="44.82562" lon="6.29312">
        <ele>1569.2</ele>
        <time>2024-08-13T06:16:49Z</time>
      </trkpt>
      <trkpt lat="44.82562" lon="6.29312">
        <ele>1569.2</ele>
        <time>2024-08-13T06:16:50Z</time>
      </trkpt>
      <trkpt lat="44.82564" lon="6.29313">
        <ele>1569.2</ele>
        <time>2024-08-13T06:16:51Z</time>
      </trkpt>
      <trkpt lat="44.82564" lon="6.29313">
        <ele>1568.8</ele>
        <time>2024-08-13T06:16:52Z</time>
      </trkpt>
      <trkpt lat="44.82566" lon="6.29312">
        <ele>1568.8</ele>
        <time>2024-08-13T06:16:53Z</time>
      </trkpt>
      <trkpt lat="44.82566" lon="6.29312">
        <ele>1568.8</ele>
        <time>2024-08-13T06:16:54Z</time>
      </trkpt>
      <trkpt lat="44.82568" lon="6.29313">
        <ele>1568.8</ele>
        <time>2024-08-13T06:16:55Z</time>
      </trkpt>
      <trkpt lat="44.82568" lon="6.29313">
        <ele>1568.6</ele>
        <time>2024-08-13T06:16:56Z</time>
      </trkpt>
      <trkpt lat="44.82571" lon="6.29314">
        <ele>1568.6</ele>
        <time>2024-08-13T06:16:57Z</time>
      </trkpt>
      <trkpt lat="44.82571" lon="6.29314">
        <ele>1568.4</ele>
        <time>2024-08-13T06:16:58Z</time>
      </trkpt>
      <trkpt lat="44.82573" lon="6.29314">
        <ele>1568.4</ele>
        <time>2024-08-13T06:16:59Z</time>
      </trkpt>
      <trkpt lat="44.82573" lon="6.29314">
        <ele>1568.4</ele>
        <time>2024-08-13T06:17:00Z</time>
      </trkpt>
      <trkpt lat="44.82576" lon="6.29314">
        <ele>1568.2</ele>
        <time>2024-08-13T06:17:01Z</time>
      </trkpt>
      <trkpt lat="44.82576" lon="6.29314">
        <ele>1568</ele>
        <time>2024-08-13T06:17:02Z</time>
      </trkpt>
      <trkpt lat="44.82579" lon="6.29314">
        <ele>1568</ele>
        <time>2024-08-13T06:17:03Z</time>
      </trkpt>
      <trkpt lat="44.82579" lon="6.29314">
        <ele>1568</ele>
        <time>2024-08-13T06:17:04Z</time>
      </trkpt>
      <trkpt lat="44.82582" lon="6.29314">
        <ele>1568</ele>
        <time>2024-08-13T06:17:05Z</time>
      </trkpt>
      <trkpt lat="44.82582" lon="6.29314">
        <ele>1568</ele>
        <time>2024-08-13T06:17:06Z</time>
      </trkpt>
      <trkpt lat="44.82585" lon="6.29312">
        <ele>1568</ele>
        <time>2024-08-13T06:17:07Z</time>
      </trkpt>
      <trkpt lat="44.82585" lon="6.29312">
        <ele>1568</ele>
        <time>2024-08-13T06:17:08Z</time>
      </trkpt>
      <trkpt lat="44.82587" lon="6.29311">
        <ele>1568</ele>
        <time>2024-08-13T06:17:09Z</time>
      </trkpt>
      <trkpt lat="44.82587" lon="6.29311">
        <ele>1568</ele>
        <time>2024-08-13T06:17:10Z</time>
      </trkpt>
      <trkpt lat="44.82589" lon="6.29309">
        <ele>1567.8</ele>
        <time>2024-08-13T06:17:11Z</time>
      </trkpt>
      <trkpt lat="44.82589" lon="6.29309">
        <ele>1567.8</ele>
        <time>2024-08-13T06:17:12Z</time>
      </trkpt>
      <trkpt lat="44.82591" lon="6.29307">
        <ele>1567.8</ele>
        <time>2024-08-13T06:17:13Z</time>
      </trkpt>
      <trkpt lat="44.82591" lon="6.29307">
        <ele>1567.8</ele>
        <time>2024-08-13T06:17:14Z</time>
      </trkpt>
      <trkpt lat="44.82593" lon="6.29305">
        <ele>1567.8</ele>
        <time>2024-08-13T06:17:15Z</time>
      </trkpt>
      <trkpt lat="44.82593" lon="6.29305">
        <ele>1567.8</ele>
        <time>2024-08-13T06:17:16Z</time>
      </trkpt>
      <trkpt lat="44.82595" lon="6.29302">
        <ele>1567.8</ele>
        <time>2024-08-13T06:17:17Z</time>
      </trkpt>
      <trkpt lat="44.82595" lon="6.29302">
        <ele>1567.8</ele>
        <time>2024-08-13T06:17:18Z</time>
      </trkpt>
      <trkpt lat="44.82597" lon="6.293">
        <ele>1568</ele>
        <time>2024-08-13T06:17:19Z</time>
      </trkpt>
      <trkpt lat="44.82597" lon="6.293">
        <ele>1568.4</ele>
        <time>2024-08-13T06:17:20Z</time>
      </trkpt>
      <trkpt lat="44.82598" lon="6.29298">
        <ele>1568.4</ele>
        <time>2024-08-13T06:17:21Z</time>
      </trkpt>
      <trkpt lat="44.82598" lon="6.29298">
        <ele>1568.4</ele>
        <time>2024-08-13T06:17:22Z</time>
      </trkpt>
      <trkpt lat="44.826" lon="6.29296">
        <ele>1568.6</ele>
        <time>2024-08-13T06:17:23Z</time>
      </trkpt>
      <trkpt lat="44.826" lon="6.29296">
        <ele>1568.8</ele>
        <time>2024-08-13T06:17:24Z</time>
      </trkpt>
      <trkpt lat="44.82603" lon="6.29295">
        <ele>1568.8</ele>
        <time>2024-08-13T06:17:25Z</time>
      </trkpt>
      <trkpt lat="44.82603" lon="6.29295">
        <ele>1568.8</ele>
        <time>2024-08-13T06:17:26Z</time>
      </trkpt>
      <trkpt lat="44.82604" lon="6.29294">
        <ele>1568.8</ele>
        <time>2024-08-13T06:17:27Z</time>
      </trkpt>
      <trkpt lat="44.82604" lon="6.29294">
        <ele>1569</ele>
        <time>2024-08-13T06:17:28Z</time>
      </trkpt>
      <trkpt lat="44.82605" lon="6.29291">
        <ele>1569.2</ele>
        <time>2024-08-13T06:17:29Z</time>
      </trkpt>
      <trkpt lat="44.82605" lon="6.29291">
        <ele>1569.2</ele>
        <time>2024-08-13T06:17:30Z</time>
      </trkpt>
      <trkpt lat="44.82607" lon="6.29289">
        <ele>1569</ele>
        <time>2024-08-13T06:17:31Z</time>
      </trkpt>
      <trkpt lat="44.82607" lon="6.29289">
        <ele>1569</ele>
        <time>2024-08-13T06:17:32Z</time>
      </trkpt>
      <trkpt lat="44.82608" lon="6.29285">
        <ele>1569</ele>
        <time>2024-08-13T06:17:33Z</time>
      </trkpt>
      <trkpt lat="44.82608" lon="6.29285">
        <ele>1569</ele>
        <time>2024-08-13T06:17:34Z</time>
      </trkpt>
      <trkpt lat="44.8261" lon="6.29283">
        <ele>1569</ele>
        <time>2024-08-13T06:17:35Z</time>
      </trkpt>
      <trkpt lat="44.8261" lon="6.29283">
        <ele>1568.6</ele>
        <time>2024-08-13T06:17:36Z</time>
      </trkpt>
      <trkpt lat="44.82612" lon="6.29281">
        <ele>1568.4</ele>
        <time>2024-08-13T06:17:37Z</time>
      </trkpt>
      <trkpt lat="44.82612" lon="6.29281">
        <ele>1568.6</ele>
        <time>2024-08-13T06:17:38Z</time>
      </trkpt>
      <trkpt lat="44.82613" lon="6.2928">
        <ele>1568.8</ele>
        <time>2024-08-13T06:17:39Z</time>
      </trkpt>
      <trkpt lat="44.82613" lon="6.2928">
        <ele>1569.2</ele>
        <time>2024-08-13T06:17:40Z</time>
      </trkpt>
      <trkpt lat="44.82616" lon="6.29281">
        <ele>1569.4</ele>
        <time>2024-08-13T06:17:41Z</time>
      </trkpt>
      <trkpt lat="44.82616" lon="6.29281">
        <ele>1569.6</ele>
        <time>2024-08-13T06:17:42Z</time>
      </trkpt>
      <trkpt lat="44.82618" lon="6.29281">
        <ele>1569.6</ele>
        <time>2024-08-13T06:17:43Z</time>
      </trkpt>
      <trkpt lat="44.82618" lon="6.29281">
        <ele>1569.6</ele>
        <time>2024-08-13T06:17:44Z</time>
      </trkpt>
      <trkpt lat="44.82621" lon="6.2928">
        <ele>1569.4</ele>
        <time>2024-08-13T06:17:45Z</time>
      </trkpt>
      <trkpt lat="44.82621" lon="6.2928">
        <ele>1569</ele>
        <time>2024-08-13T06:17:46Z</time>
      </trkpt>
      <trkpt lat="44.82622" lon="6.29279">
        <ele>1568.8</ele>
        <time>2024-08-13T06:17:47Z</time>
      </trkpt>
      <trkpt lat="44.82622" lon="6.29279">
        <ele>1568.6</ele>
        <time>2024-08-13T06:17:48Z</time>
      </trkpt>
      <trkpt lat="44.82625" lon="6.29277">
        <ele>1568.6</ele>
        <time>2024-08-13T06:17:49Z</time>
      </trkpt>
      <trkpt lat="44.82625" lon="6.29277">
        <ele>1568.4</ele>
        <time>2024-08-13T06:17:50Z</time>
      </trkpt>
      <trkpt lat="44.82626" lon="6.29274">
        <ele>1568.4</ele>
        <time>2024-08-13T06:17:51Z</time>
      </trkpt>
      <trkpt lat="44.82626" lon="6.29274">
        <ele>1568.4</ele>
        <time>2024-08-13T06:17:52Z</time>
      </trkpt>
      <trkpt lat="44.82628" lon="6.29271">
        <ele>1568.4</ele>
        <time>2024-08-13T06:17:53Z</time>
      </trkpt>
      <trkpt lat="44.82628" lon="6.29271">
        <ele>1568.4</ele>
        <time>2024-08-13T06:17:54Z</time>
      </trkpt>
      <trkpt lat="44.8263" lon="6.29269">
        <ele>1568.2</ele>
        <time>2024-08-13T06:17:55Z</time>
      </trkpt>
      <trkpt lat="44.8263" lon="6.29269">
        <ele>1568.4</ele>
        <time>2024-08-13T06:17:56Z</time>
      </trkpt>
      <trkpt lat="44.82633" lon="6.29269">
        <ele>1568.2</ele>
        <time>2024-08-13T06:17:57Z</time>
      </trkpt>
      <trkpt lat="44.82633" lon="6.29269">
        <ele>1568.2</ele>
        <time>2024-08-13T06:17:58Z</time>
      </trkpt>
      <trkpt lat="44.82636" lon="6.29269">
        <ele>1568.2</ele>
        <time>2024-08-13T06:17:59Z</time>
      </trkpt>
      <trkpt lat="44.82636" lon="6.29269">
        <ele>1568.2</ele>
        <time>2024-08-13T06:18:00Z</time>
      </trkpt>
      <trkpt lat="44.82637" lon="6.29268">
        <ele>1568</ele>
        <time>2024-08-13T06:18:01Z</time>
      </trkpt>
      <trkpt lat="44.82637" lon="6.29268">
        <ele>1568</ele>
        <time>2024-08-13T06:18:02Z</time>
      </trkpt>
      <trkpt lat="44.82639" lon="6.29266">
        <ele>1568</ele>
        <time>2024-08-13T06:18:03Z</time>
      </trkpt>
      <trkpt lat="44.82639" lon="6.29266">
        <ele>1567.6</ele>
        <time>2024-08-13T06:18:04Z</time>
      </trkpt>
      <trkpt lat="44.82641" lon="6.29265">
        <ele>1567.4</ele>
        <time>2024-08-13T06:18:05Z</time>
      </trkpt>
      <trkpt lat="44.82641" lon="6.29265">
        <ele>1567.4</ele>
        <time>2024-08-13T06:18:06Z</time>
      </trkpt>
      <trkpt lat="44.82643" lon="6.29263">
        <ele>1567.2</ele>
        <time>2024-08-13T06:18:07Z</time>
      </trkpt>
      <trkpt lat="44.82645" lon="6.29262">
        <ele>1567.2</ele>
        <time>2024-08-13T06:18:08Z</time>
      </trkpt>
      <trkpt lat="44.82645" lon="6.29262">
        <ele>1567.2</ele>
        <time>2024-08-13T06:18:09Z</time>
      </trkpt>
      <trkpt lat="44.82647" lon="6.2926">
        <ele>1567.2</ele>
        <time>2024-08-13T06:18:10Z</time>
      </trkpt>
      <trkpt lat="44.82647" lon="6.2926">
        <ele>1567.2</ele>
        <time>2024-08-13T06:18:11Z</time>
      </trkpt>
      <trkpt lat="44.82648" lon="6.29257">
        <ele>1567.2</ele>
        <time>2024-08-13T06:18:12Z</time>
      </trkpt>
      <trkpt lat="44.82648" lon="6.29257">
        <ele>1567.2</ele>
        <time>2024-08-13T06:18:13Z</time>
      </trkpt>
      <trkpt lat="44.8265" lon="6.29255">
        <ele>1567.2</ele>
        <time>2024-08-13T06:18:14Z</time>
      </trkpt>
      <trkpt lat="44.8265" lon="6.29255">
        <ele>1567.4</ele>
        <time>2024-08-13T06:18:15Z</time>
      </trkpt>
      <trkpt lat="44.82652" lon="6.29253">
        <ele>1567.4</ele>
        <time>2024-08-13T06:18:16Z</time>
      </trkpt>
      <trkpt lat="44.82652" lon="6.29253">
        <ele>1567.6</ele>
        <time>2024-08-13T06:18:17Z</time>
      </trkpt>
      <trkpt lat="44.82654" lon="6.29251">
        <ele>1567.8</ele>
        <time>2024-08-13T06:18:18Z</time>
      </trkpt>
      <trkpt lat="44.82656" lon="6.2925">
        <ele>1567.8</ele>
        <time>2024-08-13T06:18:19Z</time>
      </trkpt>
      <trkpt lat="44.82656" lon="6.2925">
        <ele>1567.8</ele>
        <time>2024-08-13T06:18:20Z</time>
      </trkpt>
      <trkpt lat="44.82658" lon="6.29248">
        <ele>1568.2</ele>
        <time>2024-08-13T06:18:21Z</time>
      </trkpt>
      <trkpt lat="44.82658" lon="6.29248">
        <ele>1568.2</ele>
        <time>2024-08-13T06:18:22Z</time>
      </trkpt>
      <trkpt lat="44.8266" lon="6.29246">
        <ele>1568.2</ele>
        <time>2024-08-13T06:18:23Z</time>
      </trkpt>
      <trkpt lat="44.8266" lon="6.29246">
        <ele>1568.2</ele>
        <time>2024-08-13T06:18:24Z</time>
      </trkpt>
      <trkpt lat="44.82663" lon="6.29245">
        <ele>1568</ele>
        <time>2024-08-13T06:18:25Z</time>
      </trkpt>
      <trkpt lat="44.82663" lon="6.29245">
        <ele>1568</ele>
        <time>2024-08-13T06:18:26Z</time>
      </trkpt>
      <trkpt lat="44.82665" lon="6.29243">
        <ele>1568.2</ele>
        <time>2024-08-13T06:18:27Z</time>
      </trkpt>
      <trkpt lat="44.82665" lon="6.29243">
        <ele>1568</ele>
        <time>2024-08-13T06:18:28Z</time>
      </trkpt>
      <trkpt lat="44.82668" lon="6.29244">
        <ele>1567.8</ele>
        <time>2024-08-13T06:18:29Z</time>
      </trkpt>
      <trkpt lat="44.82668" lon="6.29244">
        <ele>1567.8</ele>
        <time>2024-08-13T06:18:30Z</time>
      </trkpt>
      <trkpt lat="44.8267" lon="6.29244">
        <ele>1567.4</ele>
        <time>2024-08-13T06:18:31Z</time>
      </trkpt>
      <trkpt lat="44.8267" lon="6.29244">
        <ele>1567.4</ele>
        <time>2024-08-13T06:18:32Z</time>
      </trkpt>
      <trkpt lat="44.82673" lon="6.29243">
        <ele>1567.4</ele>
        <time>2024-08-13T06:18:33Z</time>
      </trkpt>
      <trkpt lat="44.82673" lon="6.29243">
        <ele>1567.2</ele>
        <time>2024-08-13T06:18:34Z</time>
      </trkpt>
      <trkpt lat="44.82675" lon="6.29242">
        <ele>1567</ele>
        <time>2024-08-13T06:18:35Z</time>
      </trkpt>
      <trkpt lat="44.82675" lon="6.29242">
        <ele>1567</ele>
        <time>2024-08-13T06:18:36Z</time>
      </trkpt>
      <trkpt lat="44.82677" lon="6.29238">
        <ele>1566.8</ele>
        <time>2024-08-13T06:18:37Z</time>
      </trkpt>
      <trkpt lat="44.82677" lon="6.29238">
        <ele>1566.8</ele>
        <time>2024-08-13T06:18:38Z</time>
      </trkpt>
      <trkpt lat="44.82679" lon="6.29235">
        <ele>1566.8</ele>
        <time>2024-08-13T06:18:39Z</time>
      </trkpt>
      <trkpt lat="44.82679" lon="6.29235">
        <ele>1566.8</ele>
        <time>2024-08-13T06:18:40Z</time>
      </trkpt>
      <trkpt lat="44.82681" lon="6.29233">
        <ele>1566.8</ele>
        <time>2024-08-13T06:18:41Z</time>
      </trkpt>
      <trkpt lat="44.82681" lon="6.29233">
        <ele>1567</ele>
        <time>2024-08-13T06:18:42Z</time>
      </trkpt>
      <trkpt lat="44.82683" lon="6.29231">
        <ele>1566.8</ele>
        <time>2024-08-13T06:18:43Z</time>
      </trkpt>
      <trkpt lat="44.82683" lon="6.29231">
        <ele>1567</ele>
        <time>2024-08-13T06:18:44Z</time>
      </trkpt>
      <trkpt lat="44.82685" lon="6.29228">
        <ele>1567</ele>
        <time>2024-08-13T06:18:45Z</time>
      </trkpt>
      <trkpt lat="44.82685" lon="6.29228">
        <ele>1567</ele>
        <time>2024-08-13T06:18:46Z</time>
      </trkpt>
      <trkpt lat="44.82687" lon="6.29226">
        <ele>1567</ele>
        <time>2024-08-13T06:18:47Z</time>
      </trkpt>
      <trkpt lat="44.82687" lon="6.29226">
        <ele>1567</ele>
        <time>2024-08-13T06:18:48Z</time>
      </trkpt>
      <trkpt lat="44.82689" lon="6.29223">
        <ele>1566.8</ele>
        <time>2024-08-13T06:18:49Z</time>
      </trkpt>
      <trkpt lat="44.82689" lon="6.29223">
        <ele>1566.4</ele>
        <time>2024-08-13T06:18:50Z</time>
      </trkpt>
      <trkpt lat="44.82692" lon="6.29222">
        <ele>1566.2</ele>
        <time>2024-08-13T06:18:51Z</time>
      </trkpt>
      <trkpt lat="44.82692" lon="6.29222">
        <ele>1566.2</ele>
        <time>2024-08-13T06:18:52Z</time>
      </trkpt>
      <trkpt lat="44.82694" lon="6.29221">
        <ele>1566.2</ele>
        <time>2024-08-13T06:18:53Z</time>
      </trkpt>
      <trkpt lat="44.82694" lon="6.29221">
        <ele>1566.2</ele>
        <time>2024-08-13T06:18:54Z</time>
      </trkpt>
      <trkpt lat="44.82697" lon="6.29223">
        <ele>1566.4</ele>
        <time>2024-08-13T06:18:55Z</time>
      </trkpt>
      <trkpt lat="44.82697" lon="6.29223">
        <ele>1566.4</ele>
        <time>2024-08-13T06:18:56Z</time>
      </trkpt>
      <trkpt lat="44.82699" lon="6.29223">
        <ele>1566.4</ele>
        <time>2024-08-13T06:18:57Z</time>
      </trkpt>
      <trkpt lat="44.82699" lon="6.29223">
        <ele>1566.4</ele>
        <time>2024-08-13T06:18:58Z</time>
      </trkpt>
      <trkpt lat="44.82701" lon="6.29223">
        <ele>1566</ele>
        <time>2024-08-13T06:18:59Z</time>
      </trkpt>
      <trkpt lat="44.82701" lon="6.29223">
        <ele>1565.8</ele>
        <time>2024-08-13T06:19:00Z</time>
      </trkpt>
      <trkpt lat="44.82704" lon="6.29223">
        <ele>1565.6</ele>
        <time>2024-08-13T06:19:01Z</time>
      </trkpt>
      <trkpt lat="44.82704" lon="6.29223">
        <ele>1565</ele>
        <time>2024-08-13T06:19:02Z</time>
      </trkpt>
      <trkpt lat="44.82704" lon="6.29223">
        <ele>1565</ele>
        <time>2024-08-13T06:19:03Z</time>
      </trkpt>
      <trkpt lat="44.82707" lon="6.29224">
        <ele>1564.8</ele>
        <time>2024-08-13T06:19:04Z</time>
      </trkpt>
      <trkpt lat="44.82707" lon="6.29224">
        <ele>1564.6</ele>
        <time>2024-08-13T06:19:05Z</time>
      </trkpt>
      <trkpt lat="44.82709" lon="6.29225">
        <ele>1564.6</ele>
        <time>2024-08-13T06:19:06Z</time>
      </trkpt>
      <trkpt lat="44.82709" lon="6.29225">
        <ele>1564.2</ele>
        <time>2024-08-13T06:19:07Z</time>
      </trkpt>
      <trkpt lat="44.82711" lon="6.29225">
        <ele>1564</ele>
        <time>2024-08-13T06:19:08Z</time>
      </trkpt>
      <trkpt lat="44.82711" lon="6.29225">
        <ele>1563.8</ele>
        <time>2024-08-13T06:19:09Z</time>
      </trkpt>
      <trkpt lat="44.82714" lon="6.29227">
        <ele>1563.8</ele>
        <time>2024-08-13T06:19:10Z</time>
      </trkpt>
      <trkpt lat="44.82714" lon="6.29227">
        <ele>1563.6</ele>
        <time>2024-08-13T06:19:11Z</time>
      </trkpt>
      <trkpt lat="44.82717" lon="6.29228">
        <ele>1563.6</ele>
        <time>2024-08-13T06:19:12Z</time>
      </trkpt>
      <trkpt lat="44.82717" lon="6.29228">
        <ele>1563.2</ele>
        <time>2024-08-13T06:19:13Z</time>
      </trkpt>
      <trkpt lat="44.82719" lon="6.29229">
        <ele>1563</ele>
        <time>2024-08-13T06:19:14Z</time>
      </trkpt>
      <trkpt lat="44.82719" lon="6.29229">
        <ele>1563</ele>
        <time>2024-08-13T06:19:15Z</time>
      </trkpt>
      <trkpt lat="44.82721" lon="6.29228">
        <ele>1563</ele>
        <time>2024-08-13T06:19:16Z</time>
      </trkpt>
      <trkpt lat="44.82721" lon="6.29228">
        <ele>1562.8</ele>
        <time>2024-08-13T06:19:17Z</time>
      </trkpt>
      <trkpt lat="44.82723" lon="6.29226">
        <ele>1562.6</ele>
        <time>2024-08-13T06:19:18Z</time>
      </trkpt>
      <trkpt lat="44.82723" lon="6.29226">
        <ele>1562.4</ele>
        <time>2024-08-13T06:19:19Z</time>
      </trkpt>
      <trkpt lat="44.82725" lon="6.29223">
        <ele>1562.2</ele>
        <time>2024-08-13T06:19:20Z</time>
      </trkpt>
      <trkpt lat="44.82725" lon="6.29223">
        <ele>1562.2</ele>
        <time>2024-08-13T06:19:21Z</time>
      </trkpt>
      <trkpt lat="44.82727" lon="6.29221">
        <ele>1562.2</ele>
        <time>2024-08-13T06:19:22Z</time>
      </trkpt>
      <trkpt lat="44.82727" lon="6.29221">
        <ele>1562.2</ele>
        <time>2024-08-13T06:19:23Z</time>
      </trkpt>
      <trkpt lat="44.82729" lon="6.29219">
        <ele>1562.2</ele>
        <time>2024-08-13T06:19:24Z</time>
      </trkpt>
      <trkpt lat="44.82729" lon="6.29219">
        <ele>1562.2</ele>
        <time>2024-08-13T06:19:25Z</time>
      </trkpt>
      <trkpt lat="44.8273" lon="6.29217">
        <ele>1562.2</ele>
        <time>2024-08-13T06:19:26Z</time>
      </trkpt>
      <trkpt lat="44.8273" lon="6.29217">
        <ele>1562</ele>
        <time>2024-08-13T06:19:27Z</time>
      </trkpt>
      <trkpt lat="44.82733" lon="6.29215">
        <ele>1562</ele>
        <time>2024-08-13T06:19:28Z</time>
      </trkpt>
      <trkpt lat="44.82733" lon="6.29215">
        <ele>1562</ele>
        <time>2024-08-13T06:19:29Z</time>
      </trkpt>
      <trkpt lat="44.82735" lon="6.29214">
        <ele>1562</ele>
        <time>2024-08-13T06:19:30Z</time>
      </trkpt>
      <trkpt lat="44.82735" lon="6.29214">
        <ele>1561.8</ele>
        <time>2024-08-13T06:19:31Z</time>
      </trkpt>
      <trkpt lat="44.82737" lon="6.29211">
        <ele>1561.6</ele>
        <time>2024-08-13T06:19:32Z</time>
      </trkpt>
      <trkpt lat="44.82737" lon="6.29211">
        <ele>1561.6</ele>
        <time>2024-08-13T06:19:33Z</time>
      </trkpt>
      <trkpt lat="44.82738" lon="6.29209">
        <ele>1561.6</ele>
        <time>2024-08-13T06:19:34Z</time>
      </trkpt>
      <trkpt lat="44.82738" lon="6.29209">
        <ele>1561.2</ele>
        <time>2024-08-13T06:19:35Z</time>
      </trkpt>
      <trkpt lat="44.82738" lon="6.29209">
        <ele>1561</ele>
        <time>2024-08-13T06:19:36Z</time>
      </trkpt>
      <trkpt lat="44.82741" lon="6.29209">
        <ele>1560.6</ele>
        <time>2024-08-13T06:19:37Z</time>
      </trkpt>
      <trkpt lat="44.82741" lon="6.29209">
        <ele>1560.6</ele>
        <time>2024-08-13T06:19:38Z</time>
      </trkpt>
      <trkpt lat="44.82743" lon="6.29211">
        <ele>1560.6</ele>
        <time>2024-08-13T06:19:39Z</time>
      </trkpt>
      <trkpt lat="44.82743" lon="6.29211">
        <ele>1560</ele>
        <time>2024-08-13T06:19:40Z</time>
      </trkpt>
      <trkpt lat="44.82744" lon="6.29213">
        <ele>1560</ele>
        <time>2024-08-13T06:19:41Z</time>
      </trkpt>
      <trkpt lat="44.82744" lon="6.29213">
        <ele>1560</ele>
        <time>2024-08-13T06:19:42Z</time>
      </trkpt>
      <trkpt lat="44.82744" lon="6.29213">
        <ele>1559.6</ele>
        <time>2024-08-13T06:19:43Z</time>
      </trkpt>
      <trkpt lat="44.82747" lon="6.29214">
        <ele>1559.6</ele>
        <time>2024-08-13T06:19:44Z</time>
      </trkpt>
      <trkpt lat="44.82747" lon="6.29214">
        <ele>1559.4</ele>
        <time>2024-08-13T06:19:45Z</time>
      </trkpt>
      <trkpt lat="44.82749" lon="6.29214">
        <ele>1559.2</ele>
        <time>2024-08-13T06:19:46Z</time>
      </trkpt>
      <trkpt lat="44.82749" lon="6.29214">
        <ele>1559.2</ele>
        <time>2024-08-13T06:19:47Z</time>
      </trkpt>
      <trkpt lat="44.8275" lon="6.29214">
        <ele>1559</ele>
        <time>2024-08-13T06:19:48Z</time>
      </trkpt>
      <trkpt lat="44.8275" lon="6.29214">
        <ele>1558.8</ele>
        <time>2024-08-13T06:19:49Z</time>
      </trkpt>
      <trkpt lat="44.82753" lon="6.29214">
        <ele>1558.6</ele>
        <time>2024-08-13T06:19:50Z</time>
      </trkpt>
      <trkpt lat="44.82753" lon="6.29214">
        <ele>1558.4</ele>
        <time>2024-08-13T06:19:51Z</time>
      </trkpt>
      <trkpt lat="44.82754" lon="6.29213">
        <ele>1558.2</ele>
        <time>2024-08-13T06:19:52Z</time>
      </trkpt>
      <trkpt lat="44.82754" lon="6.29213">
        <ele>1558</ele>
        <time>2024-08-13T06:19:53Z</time>
      </trkpt>
      <trkpt lat="44.82756" lon="6.29211">
        <ele>1557.6</ele>
        <time>2024-08-13T06:19:54Z</time>
      </trkpt>
      <trkpt lat="44.82756" lon="6.29211">
        <ele>1557.4</ele>
        <time>2024-08-13T06:19:55Z</time>
      </trkpt>
      <trkpt lat="44.82757" lon="6.29209">
        <ele>1557.4</ele>
        <time>2024-08-13T06:19:56Z</time>
      </trkpt>
      <trkpt lat="44.82757" lon="6.29209">
        <ele>1557.2</ele>
        <time>2024-08-13T06:19:57Z</time>
      </trkpt>
      <trkpt lat="44.82759" lon="6.29207">
        <ele>1557</ele>
        <time>2024-08-13T06:19:58Z</time>
      </trkpt>
      <trkpt lat="44.82759" lon="6.29207">
        <ele>1556.8</ele>
        <time>2024-08-13T06:19:59Z</time>
      </trkpt>
      <trkpt lat="44.8276" lon="6.29204">
        <ele>1556.4</ele>
        <time>2024-08-13T06:20:00Z</time>
      </trkpt>
      <trkpt lat="44.8276" lon="6.29204">
        <ele>1556</ele>
        <time>2024-08-13T06:20:01Z</time>
      </trkpt>
      <trkpt lat="44.82762" lon="6.29202">
        <ele>1555.8</ele>
        <time>2024-08-13T06:20:02Z</time>
      </trkpt>
      <trkpt lat="44.82762" lon="6.29202">
        <ele>1555.8</ele>
        <time>2024-08-13T06:20:03Z</time>
      </trkpt>
      <trkpt lat="44.82764" lon="6.29199">
        <ele>1555.4</ele>
        <time>2024-08-13T06:20:04Z</time>
      </trkpt>
      <trkpt lat="44.82764" lon="6.29199">
        <ele>1555</ele>
        <time>2024-08-13T06:20:05Z</time>
      </trkpt>
      <trkpt lat="44.82766" lon="6.29196">
        <ele>1554.8</ele>
        <time>2024-08-13T06:20:06Z</time>
      </trkpt>
      <trkpt lat="44.82766" lon="6.29196">
        <ele>1554.8</ele>
        <time>2024-08-13T06:20:07Z</time>
      </trkpt>
      <trkpt lat="44.82767" lon="6.29193">
        <ele>1554.8</ele>
        <time>2024-08-13T06:20:08Z</time>
      </trkpt>
      <trkpt lat="44.82767" lon="6.29193">
        <ele>1554.4</ele>
        <time>2024-08-13T06:20:09Z</time>
      </trkpt>
      <trkpt lat="44.82769" lon="6.29192">
        <ele>1554.2</ele>
        <time>2024-08-13T06:20:10Z</time>
      </trkpt>
      <trkpt lat="44.82769" lon="6.29192">
        <ele>1554</ele>
        <time>2024-08-13T06:20:11Z</time>
      </trkpt>
      <trkpt lat="44.82771" lon="6.29192">
        <ele>1553.8</ele>
        <time>2024-08-13T06:20:12Z</time>
      </trkpt>
      <trkpt lat="44.82771" lon="6.29192">
        <ele>1553.4</ele>
        <time>2024-08-13T06:20:13Z</time>
      </trkpt>
      <trkpt lat="44.82771" lon="6.29192">
        <ele>1553.2</ele>
        <time>2024-08-13T06:20:14Z</time>
      </trkpt>
      <trkpt lat="44.82773" lon="6.29194">
        <ele>1553</ele>
        <time>2024-08-13T06:20:15Z</time>
      </trkpt>
      <trkpt lat="44.82773" lon="6.29194">
        <ele>1553</ele>
        <time>2024-08-13T06:20:16Z</time>
      </trkpt>
      <trkpt lat="44.82774" lon="6.29197">
        <ele>1552.8</ele>
        <time>2024-08-13T06:20:17Z</time>
      </trkpt>
      <trkpt lat="44.82774" lon="6.29197">
        <ele>1552.2</ele>
        <time>2024-08-13T06:20:18Z</time>
      </trkpt>
      <trkpt lat="44.82777" lon="6.29198">
        <ele>1551.8</ele>
        <time>2024-08-13T06:20:19Z</time>
      </trkpt>
      <trkpt lat="44.82777" lon="6.29198">
        <ele>1551.4</ele>
        <time>2024-08-13T06:20:20Z</time>
      </trkpt>
      <trkpt lat="44.82777" lon="6.29198">
        <ele>1551.2</ele>
        <time>2024-08-13T06:20:21Z</time>
      </trkpt>
      <trkpt lat="44.82779" lon="6.29197">
        <ele>1550.8</ele>
        <time>2024-08-13T06:20:22Z</time>
      </trkpt>
      <trkpt lat="44.82779" lon="6.29197">
        <ele>1550.4</ele>
        <time>2024-08-13T06:20:23Z</time>
      </trkpt>
      <trkpt lat="44.82779" lon="6.29197">
        <ele>1550.2</ele>
        <time>2024-08-13T06:20:24Z</time>
      </trkpt>
      <trkpt lat="44.82779" lon="6.29197">
        <ele>1550</ele>
        <time>2024-08-13T06:20:25Z</time>
      </trkpt>
      <trkpt lat="44.82781" lon="6.29198">
        <ele>1549.8</ele>
        <time>2024-08-13T06:20:26Z</time>
      </trkpt>
      <trkpt lat="44.82781" lon="6.29198">
        <ele>1549.6</ele>
        <time>2024-08-13T06:20:27Z</time>
      </trkpt>
      <trkpt lat="44.82781" lon="6.29198">
        <ele>1549.6</ele>
        <time>2024-08-13T06:20:28Z</time>
      </trkpt>
      <trkpt lat="44.82782" lon="6.29195">
        <ele>1549.2</ele>
        <time>2024-08-13T06:20:29Z</time>
      </trkpt>
      <trkpt lat="44.82782" lon="6.29195">
        <ele>1549</ele>
        <time>2024-08-13T06:20:30Z</time>
      </trkpt>
      <trkpt lat="44.82782" lon="6.29195">
        <ele>1548.8</ele>
        <time>2024-08-13T06:20:31Z</time>
      </trkpt>
      <trkpt lat="44.82782" lon="6.29195">
        <ele>1548.6</ele>
        <time>2024-08-13T06:20:32Z</time>
      </trkpt>
      <trkpt lat="44.82782" lon="6.29195">
        <ele>1548.6</ele>
        <time>2024-08-13T06:20:33Z</time>
      </trkpt>
      <trkpt lat="44.82782" lon="6.29195">
        <ele>1548.4</ele>
        <time>2024-08-13T06:20:34Z</time>
      </trkpt>
      <trkpt lat="44.82782" lon="6.29195">
        <ele>1548.2</ele>
        <time>2024-08-13T06:20:35Z</time>
      </trkpt>
      <trkpt lat="44.82782" lon="6.29195">
        <ele>1548.2</ele>
        <time>2024-08-13T06:20:36Z</time>
      </trkpt>
      <trkpt lat="44.82782" lon="6.29195">
        <ele>1548.6</ele>
        <time>2024-08-13T06:20:37Z</time>
      </trkpt>
      <trkpt lat="44.82784" lon="6.29195">
        <ele>1548.6</ele>
        <time>2024-08-13T06:20:38Z</time>
      </trkpt>
      <trkpt lat="44.82784" lon="6.29195">
        <ele>1548.6</ele>
        <time>2024-08-13T06:20:39Z</time>
      </trkpt>
      <trkpt lat="44.82787" lon="6.29195">
        <ele>1548.6</ele>
        <time>2024-08-13T06:20:40Z</time>
      </trkpt>
      <trkpt lat="44.82787" lon="6.29195">
        <ele>1548.6</ele>
        <time>2024-08-13T06:20:41Z</time>
      </trkpt>
      <trkpt lat="44.82789" lon="6.29195">
        <ele>1548.6</ele>
        <time>2024-08-13T06:20:42Z</time>
      </trkpt>
      <trkpt lat="44.82789" lon="6.29195">
        <ele>1548.6</ele>
        <time>2024-08-13T06:20:43Z</time>
      </trkpt>
      <trkpt lat="44.82789" lon="6.29195">
        <ele>1548.6</ele>
        <time>2024-08-13T06:20:44Z</time>
      </trkpt>
      <trkpt lat="44.82789" lon="6.29195">
        <ele>1548.6</ele>
        <time>2024-08-13T06:20:45Z</time>
      </trkpt>
      <trkpt lat="44.82789" lon="6.29195">
        <ele>1548.6</ele>
        <time>2024-08-13T06:20:46Z</time>
      </trkpt>
      <trkpt lat="44.82789" lon="6.29195">
        <ele>1548.8</ele>
        <time>2024-08-13T06:20:47Z</time>
      </trkpt>
      <trkpt lat="44.82789" lon="6.29195">
        <ele>1548.8</ele>
        <time>2024-08-13T06:20:48Z</time>
      </trkpt>
      <trkpt lat="44.82789" lon="6.29195">
        <ele>1548.8</ele>
        <time>2024-08-13T06:20:49Z</time>
      </trkpt>
      <trkpt lat="44.82789" lon="6.29195">
        <ele>1548.8</ele>
        <time>2024-08-13T06:20:50Z</time>
      </trkpt>
      <trkpt lat="44.82789" lon="6.29195">
        <ele>1548.8</ele>
        <time>2024-08-13T06:20:51Z</time>
      </trkpt>
      <trkpt lat="44.82789" lon="6.29195">
        <ele>1548.8</ele>
        <time>2024-08-13T06:20:52Z</time>
      </trkpt>
      <trkpt lat="44.82789" lon="6.29195">
        <ele>1548.8</ele>
        <time>2024-08-13T06:20:53Z</time>
      </trkpt>
      <trkpt lat="44.82789" lon="6.29195">
        <ele>1548.8</ele>
        <time>2024-08-13T06:20:54Z</time>
      </trkpt>
      <trkpt lat="44.82789" lon="6.29195">
        <ele>1549</ele>
        <time>2024-08-13T06:20:55Z</time>
      </trkpt>
      <trkpt lat="44.82789" lon="6.29195">
        <ele>1549</ele>
        <time>2024-08-13T06:20:56Z</time>
      </trkpt>
      <trkpt lat="44.82791" lon="6.29195">
        <ele>1549</ele>
        <time>2024-08-13T06:20:57Z</time>
      </trkpt>
      <trkpt lat="44.82791" lon="6.29195">
        <ele>1549</ele>
        <time>2024-08-13T06:20:58Z</time>
      </trkpt>
      <trkpt lat="44.82791" lon="6.29195">
        <ele>1549</ele>
        <time>2024-08-13T06:20:59Z</time>
      </trkpt>
      <trkpt lat="44.82791" lon="6.29195">
        <ele>1548.6</ele>
        <time>2024-08-13T06:21:00Z</time>
      </trkpt>
      <trkpt lat="44.82793" lon="6.29195">
        <ele>1548.2</ele>
        <time>2024-08-13T06:21:01Z</time>
      </trkpt>
      <trkpt lat="44.82793" lon="6.29195">
        <ele>1548.2</ele>
        <time>2024-08-13T06:21:02Z</time>
      </trkpt>
      <trkpt lat="44.82797" lon="6.29196">
        <ele>1548.2</ele>
        <time>2024-08-13T06:21:03Z</time>
      </trkpt>
      <trkpt lat="44.82797" lon="6.29196">
        <ele>1548.2</ele>
        <time>2024-08-13T06:21:04Z</time>
      </trkpt>
      <trkpt lat="44.82799" lon="6.29199">
        <ele>1548.4</ele>
        <time>2024-08-13T06:21:05Z</time>
      </trkpt>
      <trkpt lat="44.82799" lon="6.29199">
        <ele>1548.8</ele>
        <time>2024-08-13T06:21:06Z</time>
      </trkpt>
      <trkpt lat="44.82801" lon="6.292">
        <ele>1549</ele>
        <time>2024-08-13T06:21:07Z</time>
      </trkpt>
      <trkpt lat="44.82801" lon="6.292">
        <ele>1548.8</ele>
        <time>2024-08-13T06:21:08Z</time>
      </trkpt>
      <trkpt lat="44.82803" lon="6.29199">
        <ele>1549.2</ele>
        <time>2024-08-13T06:21:09Z</time>
      </trkpt>
      <trkpt lat="44.82803" lon="6.29199">
        <ele>1549.4</ele>
        <time>2024-08-13T06:21:10Z</time>
      </trkpt>
      <trkpt lat="44.82806" lon="6.29198">
        <ele>1549.6</ele>
        <time>2024-08-13T06:21:11Z</time>
      </trkpt>
      <trkpt lat="44.82806" lon="6.29198">
        <ele>1549.6</ele>
        <time>2024-08-13T06:21:12Z</time>
      </trkpt>
      <trkpt lat="44.82808" lon="6.29195">
        <ele>1549.4</ele>
        <time>2024-08-13T06:21:13Z</time>
      </trkpt>
      <trkpt lat="44.82808" lon="6.29195">
        <ele>1549.4</ele>
        <time>2024-08-13T06:21:14Z</time>
      </trkpt>
      <trkpt lat="44.82809" lon="6.29193">
        <ele>1549</ele>
        <time>2024-08-13T06:21:15Z</time>
      </trkpt>
      <trkpt lat="44.82809" lon="6.29193">
        <ele>1548.8</ele>
        <time>2024-08-13T06:21:16Z</time>
      </trkpt>
      <trkpt lat="44.82811" lon="6.2919">
        <ele>1548.8</ele>
        <time>2024-08-13T06:21:17Z</time>
      </trkpt>
      <trkpt lat="44.82811" lon="6.2919">
        <ele>1548.8</ele>
        <time>2024-08-13T06:21:18Z</time>
      </trkpt>
      <trkpt lat="44.82813" lon="6.29187">
        <ele>1548.8</ele>
        <time>2024-08-13T06:21:19Z</time>
      </trkpt>
      <trkpt lat="44.82813" lon="6.29187">
        <ele>1548.6</ele>
        <time>2024-08-13T06:21:20Z</time>
      </trkpt>
      <trkpt lat="44.82814" lon="6.29186">
        <ele>1548.4</ele>
        <time>2024-08-13T06:21:21Z</time>
      </trkpt>
      <trkpt lat="44.82814" lon="6.29186">
        <ele>1548</ele>
        <time>2024-08-13T06:21:22Z</time>
      </trkpt>
      <trkpt lat="44.82816" lon="6.29183">
        <ele>1548</ele>
        <time>2024-08-13T06:21:23Z</time>
      </trkpt>
      <trkpt lat="44.82816" lon="6.29183">
        <ele>1548</ele>
        <time>2024-08-13T06:21:24Z</time>
      </trkpt>
      <trkpt lat="44.82816" lon="6.2918">
        <ele>1548</ele>
        <time>2024-08-13T06:21:25Z</time>
      </trkpt>
      <trkpt lat="44.82816" lon="6.2918">
        <ele>1547.8</ele>
        <time>2024-08-13T06:21:26Z</time>
      </trkpt>
      <trkpt lat="44.82817" lon="6.29177">
        <ele>1547.4</ele>
        <time>2024-08-13T06:21:27Z</time>
      </trkpt>
      <trkpt lat="44.82817" lon="6.29177">
        <ele>1547.2</ele>
        <time>2024-08-13T06:21:28Z</time>
      </trkpt>
      <trkpt lat="44.8282" lon="6.29175">
        <ele>1547</ele>
        <time>2024-08-13T06:21:29Z</time>
      </trkpt>
      <trkpt lat="44.8282" lon="6.29175">
        <ele>1546.8</ele>
        <time>2024-08-13T06:21:30Z</time>
      </trkpt>
      <trkpt lat="44.8282" lon="6.29175">
        <ele>1546.6</ele>
        <time>2024-08-13T06:21:31Z</time>
      </trkpt>
      <trkpt lat="44.82821" lon="6.29173">
        <ele>1546.4</ele>
        <time>2024-08-13T06:21:32Z</time>
      </trkpt>
      <trkpt lat="44.82821" lon="6.29173">
        <ele>1546</ele>
        <time>2024-08-13T06:21:33Z</time>
      </trkpt>
      <trkpt lat="44.82823" lon="6.29172">
        <ele>1546</ele>
        <time>2024-08-13T06:21:34Z</time>
      </trkpt>
      <trkpt lat="44.82823" lon="6.29172">
        <ele>1546</ele>
        <time>2024-08-13T06:21:35Z</time>
      </trkpt>
      <trkpt lat="44.82823" lon="6.29172">
        <ele>1545.8</ele>
        <time>2024-08-13T06:21:36Z</time>
      </trkpt>
      <trkpt lat="44.82825" lon="6.29169">
        <ele>1545.6</ele>
        <time>2024-08-13T06:21:37Z</time>
      </trkpt>
      <trkpt lat="44.82825" lon="6.29169">
        <ele>1545.2</ele>
        <time>2024-08-13T06:21:38Z</time>
      </trkpt>
      <trkpt lat="44.82825" lon="6.29169">
        <ele>1545</ele>
        <time>2024-08-13T06:21:39Z</time>
      </trkpt>
      <trkpt lat="44.82828" lon="6.29168">
        <ele>1544.8</ele>
        <time>2024-08-13T06:21:40Z</time>
      </trkpt>
      <trkpt lat="44.82828" lon="6.29168">
        <ele>1544.6</ele>
        <time>2024-08-13T06:21:41Z</time>
      </trkpt>
      <trkpt lat="44.82829" lon="6.29167">
        <ele>1544.4</ele>
        <time>2024-08-13T06:21:42Z</time>
      </trkpt>
      <trkpt lat="44.82829" lon="6.29167">
        <ele>1544</ele>
        <time>2024-08-13T06:21:43Z</time>
      </trkpt>
      <trkpt lat="44.82829" lon="6.29167">
        <ele>1543.8</ele>
        <time>2024-08-13T06:21:44Z</time>
      </trkpt>
      <trkpt lat="44.82832" lon="6.29164">
        <ele>1543.4</ele>
        <time>2024-08-13T06:21:45Z</time>
      </trkpt>
      <trkpt lat="44.82832" lon="6.29164">
        <ele>1543.2</ele>
        <time>2024-08-13T06:21:46Z</time>
      </trkpt>
      <trkpt lat="44.82832" lon="6.29164">
        <ele>1543.2</ele>
        <time>2024-08-13T06:21:47Z</time>
      </trkpt>
      <trkpt lat="44.82833" lon="6.29162">
        <ele>1542.8</ele>
        <time>2024-08-13T06:21:48Z</time>
      </trkpt>
      <trkpt lat="44.82833" lon="6.29162">
        <ele>1542.6</ele>
        <time>2024-08-13T06:21:49Z</time>
      </trkpt>
      <trkpt lat="44.82835" lon="6.2916">
        <ele>1542.4</ele>
        <time>2024-08-13T06:21:50Z</time>
      </trkpt>
      <trkpt lat="44.82835" lon="6.2916">
        <ele>1542</ele>
        <time>2024-08-13T06:21:51Z</time>
      </trkpt>
      <trkpt lat="44.82837" lon="6.29159">
        <ele>1541.6</ele>
        <time>2024-08-13T06:21:52Z</time>
      </trkpt>
      <trkpt lat="44.82837" lon="6.29159">
        <ele>1541.6</ele>
        <time>2024-08-13T06:21:53Z</time>
      </trkpt>
      <trkpt lat="44.82837" lon="6.29159">
        <ele>1541.4</ele>
        <time>2024-08-13T06:21:54Z</time>
      </trkpt>
      <trkpt lat="44.8284" lon="6.29157">
        <ele>1541.4</ele>
        <time>2024-08-13T06:21:55Z</time>
      </trkpt>
      <trkpt lat="44.8284" lon="6.29157">
        <ele>1541.4</ele>
        <time>2024-08-13T06:21:56Z</time>
      </trkpt>
      <trkpt lat="44.82842" lon="6.29157">
        <ele>1540.6</ele>
        <time>2024-08-13T06:21:57Z</time>
      </trkpt>
      <trkpt lat="44.82842" lon="6.29157">
        <ele>1540.4</ele>
        <time>2024-08-13T06:21:58Z</time>
      </trkpt>
      <trkpt lat="44.82844" lon="6.29155">
        <ele>1540.2</ele>
        <time>2024-08-13T06:21:59Z</time>
      </trkpt>
      <trkpt lat="44.82844" lon="6.29155">
        <ele>1540</ele>
        <time>2024-08-13T06:22:00Z</time>
      </trkpt>
      <trkpt lat="44.82846" lon="6.29154">
        <ele>1539.6</ele>
        <time>2024-08-13T06:22:01Z</time>
      </trkpt>
      <trkpt lat="44.82846" lon="6.29154">
        <ele>1539.6</ele>
        <time>2024-08-13T06:22:02Z</time>
      </trkpt>
      <trkpt lat="44.82848" lon="6.29152">
        <ele>1539.6</ele>
        <time>2024-08-13T06:22:03Z</time>
      </trkpt>
      <trkpt lat="44.82848" lon="6.29152">
        <ele>1539.2</ele>
        <time>2024-08-13T06:22:04Z</time>
      </trkpt>
      <trkpt lat="44.8285" lon="6.2915">
        <ele>1539</ele>
        <time>2024-08-13T06:22:05Z</time>
      </trkpt>
      <trkpt lat="44.8285" lon="6.2915">
        <ele>1538.8</ele>
        <time>2024-08-13T06:22:06Z</time>
      </trkpt>
      <trkpt lat="44.82852" lon="6.29147">
        <ele>1538.6</ele>
        <time>2024-08-13T06:22:07Z</time>
      </trkpt>
      <trkpt lat="44.82852" lon="6.29147">
        <ele>1538.6</ele>
        <time>2024-08-13T06:22:08Z</time>
      </trkpt>
      <trkpt lat="44.82854" lon="6.29145">
        <ele>1538.2</ele>
        <time>2024-08-13T06:22:09Z</time>
      </trkpt>
      <trkpt lat="44.82854" lon="6.29145">
        <ele>1538</ele>
        <time>2024-08-13T06:22:10Z</time>
      </trkpt>
      <trkpt lat="44.82856" lon="6.29143">
        <ele>1538</ele>
        <time>2024-08-13T06:22:11Z</time>
      </trkpt>
      <trkpt lat="44.82856" lon="6.29143">
        <ele>1537.8</ele>
        <time>2024-08-13T06:22:12Z</time>
      </trkpt>
      <trkpt lat="44.82858" lon="6.29141">
        <ele>1537.4</ele>
        <time>2024-08-13T06:22:13Z</time>
      </trkpt>
      <trkpt lat="44.82858" lon="6.29141">
        <ele>1537</ele>
        <time>2024-08-13T06:22:14Z</time>
      </trkpt>
      <trkpt lat="44.8286" lon="6.29139">
        <ele>1536.6</ele>
        <time>2024-08-13T06:22:15Z</time>
      </trkpt>
      <trkpt lat="44.8286" lon="6.29139">
        <ele>1536.2</ele>
        <time>2024-08-13T06:22:16Z</time>
      </trkpt>
      <trkpt lat="44.82862" lon="6.29138">
        <ele>1536.2</ele>
        <time>2024-08-13T06:22:17Z</time>
      </trkpt>
      <trkpt lat="44.82862" lon="6.29138">
        <ele>1536.2</ele>
        <time>2024-08-13T06:22:18Z</time>
      </trkpt>
      <trkpt lat="44.82864" lon="6.29136">
        <ele>1535.6</ele>
        <time>2024-08-13T06:22:19Z</time>
      </trkpt>
      <trkpt lat="44.82864" lon="6.29136">
        <ele>1535.6</ele>
        <time>2024-08-13T06:22:20Z</time>
      </trkpt>
      <trkpt lat="44.82866" lon="6.29134">
        <ele>1535.6</ele>
        <time>2024-08-13T06:22:21Z</time>
      </trkpt>
      <trkpt lat="44.82866" lon="6.29134">
        <ele>1535.6</ele>
        <time>2024-08-13T06:22:22Z</time>
      </trkpt>
      <trkpt lat="44.82868" lon="6.29131">
        <ele>1535.6</ele>
        <time>2024-08-13T06:22:23Z</time>
      </trkpt>
      <trkpt lat="44.82868" lon="6.29131">
        <ele>1535.4</ele>
        <time>2024-08-13T06:22:24Z</time>
      </trkpt>
      <trkpt lat="44.82869" lon="6.29128">
        <ele>1535.2</ele>
        <time>2024-08-13T06:22:25Z</time>
      </trkpt>
      <trkpt lat="44.82869" lon="6.29128">
        <ele>1534.8</ele>
        <time>2024-08-13T06:22:26Z</time>
      </trkpt>
      <trkpt lat="44.8287" lon="6.29126">
        <ele>1534.8</ele>
        <time>2024-08-13T06:22:27Z</time>
      </trkpt>
      <trkpt lat="44.8287" lon="6.29126">
        <ele>1534.6</ele>
        <time>2024-08-13T06:22:28Z</time>
      </trkpt>
      <trkpt lat="44.82872" lon="6.29123">
        <ele>1534.2</ele>
        <time>2024-08-13T06:22:29Z</time>
      </trkpt>
      <trkpt lat="44.82872" lon="6.29123">
        <ele>1534.2</ele>
        <time>2024-08-13T06:22:30Z</time>
      </trkpt>
      <trkpt lat="44.82874" lon="6.2912">
        <ele>1534</ele>
        <time>2024-08-13T06:22:31Z</time>
      </trkpt>
      <trkpt lat="44.82874" lon="6.2912">
        <ele>1533.8</ele>
        <time>2024-08-13T06:22:32Z</time>
      </trkpt>
      <trkpt lat="44.82876" lon="6.29118">
        <ele>1533.4</ele>
        <time>2024-08-13T06:22:33Z</time>
      </trkpt>
      <trkpt lat="44.82876" lon="6.29118">
        <ele>1533.4</ele>
        <time>2024-08-13T06:22:34Z</time>
      </trkpt>
      <trkpt lat="44.82877" lon="6.29116">
        <ele>1533.2</ele>
        <time>2024-08-13T06:22:35Z</time>
      </trkpt>
      <trkpt lat="44.82877" lon="6.29116">
        <ele>1532.8</ele>
        <time>2024-08-13T06:22:36Z</time>
      </trkpt>
      <trkpt lat="44.82878" lon="6.29114">
        <ele>1532.6</ele>
        <time>2024-08-13T06:22:37Z</time>
      </trkpt>
      <trkpt lat="44.82878" lon="6.29114">
        <ele>1532.4</ele>
        <time>2024-08-13T06:22:38Z</time>
      </trkpt>
      <trkpt lat="44.8288" lon="6.29115">
        <ele>1532</ele>
        <time>2024-08-13T06:22:39Z</time>
      </trkpt>
      <trkpt lat="44.8288" lon="6.29115">
        <ele>1531.8</ele>
        <time>2024-08-13T06:22:40Z</time>
      </trkpt>
      <trkpt lat="44.82883" lon="6.29115">
        <ele>1531.6</ele>
        <time>2024-08-13T06:22:41Z</time>
      </trkpt>
      <trkpt lat="44.82883" lon="6.29115">
        <ele>1531.2</ele>
        <time>2024-08-13T06:22:42Z</time>
      </trkpt>
      <trkpt lat="44.82883" lon="6.29115">
        <ele>1531.2</ele>
        <time>2024-08-13T06:22:43Z</time>
      </trkpt>
      <trkpt lat="44.82885" lon="6.29114">
        <ele>1530.8</ele>
        <time>2024-08-13T06:22:44Z</time>
      </trkpt>
      <trkpt lat="44.82885" lon="6.29114">
        <ele>1530.6</ele>
        <time>2024-08-13T06:22:45Z</time>
      </trkpt>
      <trkpt lat="44.82888" lon="6.29114">
        <ele>1530.2</ele>
        <time>2024-08-13T06:22:46Z</time>
      </trkpt>
      <trkpt lat="44.82888" lon="6.29114">
        <ele>1530</ele>
        <time>2024-08-13T06:22:47Z</time>
      </trkpt>
      <trkpt lat="44.8289" lon="6.29113">
        <ele>1530</ele>
        <time>2024-08-13T06:22:48Z</time>
      </trkpt>
      <trkpt lat="44.8289" lon="6.29113">
        <ele>1529.6</ele>
        <time>2024-08-13T06:22:49Z</time>
      </trkpt>
      <trkpt lat="44.82892" lon="6.2911">
        <ele>1529.4</ele>
        <time>2024-08-13T06:22:50Z</time>
      </trkpt>
      <trkpt lat="44.82892" lon="6.2911">
        <ele>1529.4</ele>
        <time>2024-08-13T06:22:51Z</time>
      </trkpt>
      <trkpt lat="44.82894" lon="6.29108">
        <ele>1529.2</ele>
        <time>2024-08-13T06:22:52Z</time>
      </trkpt>
      <trkpt lat="44.82894" lon="6.29108">
        <ele>1529.2</ele>
        <time>2024-08-13T06:22:53Z</time>
      </trkpt>
      <trkpt lat="44.82897" lon="6.29107">
        <ele>1529.2</ele>
        <time>2024-08-13T06:22:54Z</time>
      </trkpt>
      <trkpt lat="44.82897" lon="6.29107">
        <ele>1529.2</ele>
        <time>2024-08-13T06:22:55Z</time>
      </trkpt>
      <trkpt lat="44.829" lon="6.29106">
        <ele>1529.2</ele>
        <time>2024-08-13T06:22:56Z</time>
      </trkpt>
      <trkpt lat="44.829" lon="6.29106">
        <ele>1529.2</ele>
        <time>2024-08-13T06:22:57Z</time>
      </trkpt>
      <trkpt lat="44.82902" lon="6.29106">
        <ele>1529</ele>
        <time>2024-08-13T06:22:58Z</time>
      </trkpt>
      <trkpt lat="44.82902" lon="6.29106">
        <ele>1528.8</ele>
        <time>2024-08-13T06:22:59Z</time>
      </trkpt>
      <trkpt lat="44.82904" lon="6.29105">
        <ele>1528.8</ele>
        <time>2024-08-13T06:23:00Z</time>
      </trkpt>
      <trkpt lat="44.82904" lon="6.29105">
        <ele>1528.6</ele>
        <time>2024-08-13T06:23:01Z</time>
      </trkpt>
      <trkpt lat="44.82906" lon="6.29104">
        <ele>1528</ele>
        <time>2024-08-13T06:23:02Z</time>
      </trkpt>
      <trkpt lat="44.82906" lon="6.29104">
        <ele>1528</ele>
        <time>2024-08-13T06:23:03Z</time>
      </trkpt>
      <trkpt lat="44.82909" lon="6.29103">
        <ele>1527.8</ele>
        <time>2024-08-13T06:23:04Z</time>
      </trkpt>
      <trkpt lat="44.82909" lon="6.29103">
        <ele>1527.8</ele>
        <time>2024-08-13T06:23:05Z</time>
      </trkpt>
      <trkpt lat="44.82912" lon="6.29103">
        <ele>1527.8</ele>
        <time>2024-08-13T06:23:06Z</time>
      </trkpt>
      <trkpt lat="44.82912" lon="6.29103">
        <ele>1527.6</ele>
        <time>2024-08-13T06:23:07Z</time>
      </trkpt>
      <trkpt lat="44.82914" lon="6.29102">
        <ele>1527.2</ele>
        <time>2024-08-13T06:23:08Z</time>
      </trkpt>
      <trkpt lat="44.82914" lon="6.29102">
        <ele>1527</ele>
        <time>2024-08-13T06:23:09Z</time>
      </trkpt>
      <trkpt lat="44.82916" lon="6.291">
        <ele>1527</ele>
        <time>2024-08-13T06:23:10Z</time>
      </trkpt>
      <trkpt lat="44.82916" lon="6.291">
        <ele>1526.8</ele>
        <time>2024-08-13T06:23:11Z</time>
      </trkpt>
      <trkpt lat="44.82918" lon="6.29099">
        <ele>1526.6</ele>
        <time>2024-08-13T06:23:12Z</time>
      </trkpt>
      <trkpt lat="44.82918" lon="6.29099">
        <ele>1526.6</ele>
        <time>2024-08-13T06:23:13Z</time>
      </trkpt>
      <trkpt lat="44.82921" lon="6.29096">
        <ele>1526.6</ele>
        <time>2024-08-13T06:23:14Z</time>
      </trkpt>
      <trkpt lat="44.82921" lon="6.29096">
        <ele>1526.4</ele>
        <time>2024-08-13T06:23:15Z</time>
      </trkpt>
      <trkpt lat="44.82923" lon="6.29094">
        <ele>1526.4</ele>
        <time>2024-08-13T06:23:16Z</time>
      </trkpt>
      <trkpt lat="44.82923" lon="6.29094">
        <ele>1526.4</ele>
        <time>2024-08-13T06:23:17Z</time>
      </trkpt>
      <trkpt lat="44.82925" lon="6.29093">
        <ele>1526.4</ele>
        <time>2024-08-13T06:23:18Z</time>
      </trkpt>
      <trkpt lat="44.82925" lon="6.29093">
        <ele>1526.4</ele>
        <time>2024-08-13T06:23:19Z</time>
      </trkpt>
      <trkpt lat="44.82928" lon="6.29091">
        <ele>1526.4</ele>
        <time>2024-08-13T06:23:20Z</time>
      </trkpt>
      <trkpt lat="44.82928" lon="6.29091">
        <ele>1526.2</ele>
        <time>2024-08-13T06:23:21Z</time>
      </trkpt>
      <trkpt lat="44.82931" lon="6.29089">
        <ele>1526.2</ele>
        <time>2024-08-13T06:23:22Z</time>
      </trkpt>
      <trkpt lat="44.82931" lon="6.29089">
        <ele>1526</ele>
        <time>2024-08-13T06:23:23Z</time>
      </trkpt>
      <trkpt lat="44.82934" lon="6.29087">
        <ele>1526</ele>
        <time>2024-08-13T06:23:24Z</time>
      </trkpt>
      <trkpt lat="44.82934" lon="6.29087">
        <ele>1526.2</ele>
        <time>2024-08-13T06:23:25Z</time>
      </trkpt>
      <trkpt lat="44.82936" lon="6.29086">
        <ele>1526.2</ele>
        <time>2024-08-13T06:23:26Z</time>
      </trkpt>
      <trkpt lat="44.82936" lon="6.29086">
        <ele>1526.2</ele>
        <time>2024-08-13T06:23:27Z</time>
      </trkpt>
      <trkpt lat="44.82939" lon="6.29086">
        <ele>1526.2</ele>
        <time>2024-08-13T06:23:28Z</time>
      </trkpt>
      <trkpt lat="44.82939" lon="6.29086">
        <ele>1526.2</ele>
        <time>2024-08-13T06:23:29Z</time>
      </trkpt>
      <trkpt lat="44.82941" lon="6.29085">
        <ele>1526.2</ele>
        <time>2024-08-13T06:23:30Z</time>
      </trkpt>
      <trkpt lat="44.82941" lon="6.29085">
        <ele>1526.2</ele>
        <time>2024-08-13T06:23:31Z</time>
      </trkpt>
      <trkpt lat="44.82945" lon="6.29085">
        <ele>1526.2</ele>
        <time>2024-08-13T06:23:32Z</time>
      </trkpt>
      <trkpt lat="44.82945" lon="6.29085">
        <ele>1526.2</ele>
        <time>2024-08-13T06:23:33Z</time>
      </trkpt>
      <trkpt lat="44.82947" lon="6.29083">
        <ele>1526</ele>
        <time>2024-08-13T06:23:34Z</time>
      </trkpt>
      <trkpt lat="44.82947" lon="6.29083">
        <ele>1526</ele>
        <time>2024-08-13T06:23:35Z</time>
      </trkpt>
      <trkpt lat="44.82949" lon="6.29082">
        <ele>1526</ele>
        <time>2024-08-13T06:23:36Z</time>
      </trkpt>
      <trkpt lat="44.82949" lon="6.29082">
        <ele>1525.6</ele>
        <time>2024-08-13T06:23:37Z</time>
      </trkpt>
      <trkpt lat="44.82951" lon="6.2908">
        <ele>1525.6</ele>
        <time>2024-08-13T06:23:38Z</time>
      </trkpt>
      <trkpt lat="44.82951" lon="6.2908">
        <ele>1525.6</ele>
        <time>2024-08-13T06:23:39Z</time>
      </trkpt>
      <trkpt lat="44.82953" lon="6.29077">
        <ele>1525.6</ele>
        <time>2024-08-13T06:23:40Z</time>
      </trkpt>
      <trkpt lat="44.82953" lon="6.29077">
        <ele>1525.6</ele>
        <time>2024-08-13T06:23:41Z</time>
      </trkpt>
      <trkpt lat="44.82956" lon="6.29075">
        <ele>1525.8</ele>
        <time>2024-08-13T06:23:42Z</time>
      </trkpt>
      <trkpt lat="44.82956" lon="6.29075">
        <ele>1526</ele>
        <time>2024-08-13T06:23:43Z</time>
      </trkpt>
      <trkpt lat="44.82958" lon="6.29073">
        <ele>1526.2</ele>
        <time>2024-08-13T06:23:44Z</time>
      </trkpt>
      <trkpt lat="44.82958" lon="6.29073">
        <ele>1526.2</ele>
        <time>2024-08-13T06:23:45Z</time>
      </trkpt>
      <trkpt lat="44.8296" lon="6.29071">
        <ele>1526.2</ele>
        <time>2024-08-13T06:23:46Z</time>
      </trkpt>
      <trkpt lat="44.8296" lon="6.29071">
        <ele>1526.4</ele>
        <time>2024-08-13T06:23:47Z</time>
      </trkpt>
      <trkpt lat="44.82963" lon="6.29069">
        <ele>1526.6</ele>
        <time>2024-08-13T06:23:48Z</time>
      </trkpt>
      <trkpt lat="44.82963" lon="6.29069">
        <ele>1526.8</ele>
        <time>2024-08-13T06:23:49Z</time>
      </trkpt>
      <trkpt lat="44.82965" lon="6.29068">
        <ele>1526.8</ele>
        <time>2024-08-13T06:23:50Z</time>
      </trkpt>
      <trkpt lat="44.82965" lon="6.29068">
        <ele>1526.8</ele>
        <time>2024-08-13T06:23:51Z</time>
      </trkpt>
      <trkpt lat="44.82965" lon="6.29068">
        <ele>1527</ele>
        <time>2024-08-13T06:23:52Z</time>
      </trkpt>
      <trkpt lat="44.82967" lon="6.29067">
        <ele>1527.2</ele>
        <time>2024-08-13T06:23:53Z</time>
      </trkpt>
      <trkpt lat="44.82967" lon="6.29067">
        <ele>1527.4</ele>
        <time>2024-08-13T06:23:54Z</time>
      </trkpt>
      <trkpt lat="44.82967" lon="6.29067">
        <ele>1527.6</ele>
        <time>2024-08-13T06:23:55Z</time>
      </trkpt>
      <trkpt lat="44.82969" lon="6.29065">
        <ele>1528</ele>
        <time>2024-08-13T06:23:56Z</time>
      </trkpt>
      <trkpt lat="44.82969" lon="6.29065">
        <ele>1528.2</ele>
        <time>2024-08-13T06:23:57Z</time>
      </trkpt>
      <trkpt lat="44.82971" lon="6.29064">
        <ele>1528.4</ele>
        <time>2024-08-13T06:23:58Z</time>
      </trkpt>
      <trkpt lat="44.82971" lon="6.29064">
        <ele>1528.6</ele>
        <time>2024-08-13T06:23:59Z</time>
      </trkpt>
      <trkpt lat="44.82973" lon="6.29062">
        <ele>1528.8</ele>
        <time>2024-08-13T06:24:00Z</time>
      </trkpt>
      <trkpt lat="44.82973" lon="6.29062">
        <ele>1529</ele>
        <time>2024-08-13T06:24:01Z</time>
      </trkpt>
      <trkpt lat="44.82975" lon="6.2906">
        <ele>1529.4</ele>
        <time>2024-08-13T06:24:02Z</time>
      </trkpt>
      <trkpt lat="44.82975" lon="6.2906">
        <ele>1529.4</ele>
        <time>2024-08-13T06:24:03Z</time>
      </trkpt>
      <trkpt lat="44.82977" lon="6.29058">
        <ele>1529.6</ele>
        <time>2024-08-13T06:24:04Z</time>
      </trkpt>
      <trkpt lat="44.82977" lon="6.29058">
        <ele>1529.4</ele>
        <time>2024-08-13T06:24:05Z</time>
      </trkpt>
      <trkpt lat="44.8298" lon="6.29056">
        <ele>1529.2</ele>
        <time>2024-08-13T06:24:06Z</time>
      </trkpt>
      <trkpt lat="44.8298" lon="6.29056">
        <ele>1529.2</ele>
        <time>2024-08-13T06:24:07Z</time>
      </trkpt>
      <trkpt lat="44.82982" lon="6.29054">
        <ele>1529.2</ele>
        <time>2024-08-13T06:24:08Z</time>
      </trkpt>
      <trkpt lat="44.82982" lon="6.29054">
        <ele>1529.2</ele>
        <time>2024-08-13T06:24:09Z</time>
      </trkpt>
      <trkpt lat="44.82984" lon="6.29052">
        <ele>1529.2</ele>
        <time>2024-08-13T06:24:10Z</time>
      </trkpt>
      <trkpt lat="44.82984" lon="6.29052">
        <ele>1529.2</ele>
        <time>2024-08-13T06:24:11Z</time>
      </trkpt>
      <trkpt lat="44.82987" lon="6.29051">
        <ele>1529.2</ele>
        <time>2024-08-13T06:24:12Z</time>
      </trkpt>
      <trkpt lat="44.82987" lon="6.29051">
        <ele>1529.4</ele>
        <time>2024-08-13T06:24:13Z</time>
      </trkpt>
      <trkpt lat="44.82989" lon="6.29048">
        <ele>1529.4</ele>
        <time>2024-08-13T06:24:14Z</time>
      </trkpt>
      <trkpt lat="44.82989" lon="6.29048">
        <ele>1529.6</ele>
        <time>2024-08-13T06:24:15Z</time>
      </trkpt>
      <trkpt lat="44.82991" lon="6.29046">
        <ele>1529.6</ele>
        <time>2024-08-13T06:24:16Z</time>
      </trkpt>
      <trkpt lat="44.82991" lon="6.29046">
        <ele>1529.8</ele>
        <time>2024-08-13T06:24:17Z</time>
      </trkpt>
      <trkpt lat="44.82993" lon="6.29044">
        <ele>1529.8</ele>
        <time>2024-08-13T06:24:18Z</time>
      </trkpt>
      <trkpt lat="44.82993" lon="6.29044">
        <ele>1529.6</ele>
        <time>2024-08-13T06:24:19Z</time>
      </trkpt>
      <trkpt lat="44.82995" lon="6.29041">
        <ele>1529.4</ele>
        <time>2024-08-13T06:24:20Z</time>
      </trkpt>
      <trkpt lat="44.82995" lon="6.29041">
        <ele>1529.4</ele>
        <time>2024-08-13T06:24:21Z</time>
      </trkpt>
      <trkpt lat="44.82996" lon="6.29038">
        <ele>1529.4</ele>
        <time>2024-08-13T06:24:22Z</time>
      </trkpt>
      <trkpt lat="44.82996" lon="6.29038">
        <ele>1529.4</ele>
        <time>2024-08-13T06:24:23Z</time>
      </trkpt>
      <trkpt lat="44.82999" lon="6.29036">
        <ele>1529</ele>
        <time>2024-08-13T06:24:24Z</time>
      </trkpt>
      <trkpt lat="44.82999" lon="6.29036">
        <ele>1529</ele>
        <time>2024-08-13T06:24:25Z</time>
      </trkpt>
      <trkpt lat="44.83" lon="6.29033">
        <ele>1528.8</ele>
        <time>2024-08-13T06:24:26Z</time>
      </trkpt>
      <trkpt lat="44.83" lon="6.29033">
        <ele>1528.6</ele>
        <time>2024-08-13T06:24:27Z</time>
      </trkpt>
      <trkpt lat="44.83001" lon="6.2903">
        <ele>1528</ele>
        <time>2024-08-13T06:24:28Z</time>
      </trkpt>
      <trkpt lat="44.83001" lon="6.2903">
        <ele>1527.8</ele>
        <time>2024-08-13T06:24:29Z</time>
      </trkpt>
      <trkpt lat="44.83003" lon="6.29027">
        <ele>1527.4</ele>
        <time>2024-08-13T06:24:30Z</time>
      </trkpt>
      <trkpt lat="44.83003" lon="6.29027">
        <ele>1527</ele>
        <time>2024-08-13T06:24:31Z</time>
      </trkpt>
      <trkpt lat="44.83005" lon="6.29024">
        <ele>1526.6</ele>
        <time>2024-08-13T06:24:32Z</time>
      </trkpt>
      <trkpt lat="44.83005" lon="6.29024">
        <ele>1526.4</ele>
        <time>2024-08-13T06:24:33Z</time>
      </trkpt>
      <trkpt lat="44.83006" lon="6.29022">
        <ele>1525.8</ele>
        <time>2024-08-13T06:24:34Z</time>
      </trkpt>
      <trkpt lat="44.83006" lon="6.29022">
        <ele>1525.8</ele>
        <time>2024-08-13T06:24:35Z</time>
      </trkpt>
      <trkpt lat="44.83008" lon="6.2902">
        <ele>1525.6</ele>
        <time>2024-08-13T06:24:36Z</time>
      </trkpt>
      <trkpt lat="44.83008" lon="6.2902">
        <ele>1525.2</ele>
        <time>2024-08-13T06:24:37Z</time>
      </trkpt>
      <trkpt lat="44.83009" lon="6.29017">
        <ele>1525</ele>
        <time>2024-08-13T06:24:38Z</time>
      </trkpt>
      <trkpt lat="44.83009" lon="6.29017">
        <ele>1524.6</ele>
        <time>2024-08-13T06:24:39Z</time>
      </trkpt>
      <trkpt lat="44.83012" lon="6.29015">
        <ele>1524.4</ele>
        <time>2024-08-13T06:24:40Z</time>
      </trkpt>
      <trkpt lat="44.83012" lon="6.29015">
        <ele>1524.2</ele>
        <time>2024-08-13T06:24:41Z</time>
      </trkpt>
      <trkpt lat="44.83013" lon="6.29013">
        <ele>1524</ele>
        <time>2024-08-13T06:24:42Z</time>
      </trkpt>
      <trkpt lat="44.83013" lon="6.29013">
        <ele>1523.8</ele>
        <time>2024-08-13T06:24:43Z</time>
      </trkpt>
      <trkpt lat="44.83015" lon="6.29011">
        <ele>1523.6</ele>
        <time>2024-08-13T06:24:44Z</time>
      </trkpt>
      <trkpt lat="44.83015" lon="6.29011">
        <ele>1523.2</ele>
        <time>2024-08-13T06:24:45Z</time>
      </trkpt>
      <trkpt lat="44.83016" lon="6.29009">
        <ele>1523</ele>
        <time>2024-08-13T06:24:46Z</time>
      </trkpt>
      <trkpt lat="44.83016" lon="6.29009">
        <ele>1522.6</ele>
        <time>2024-08-13T06:24:47Z</time>
      </trkpt>
      <trkpt lat="44.83018" lon="6.29006">
        <ele>1522.2</ele>
        <time>2024-08-13T06:24:48Z</time>
      </trkpt>
      <trkpt lat="44.83018" lon="6.29006">
        <ele>1522</ele>
        <time>2024-08-13T06:24:49Z</time>
      </trkpt>
      <trkpt lat="44.8302" lon="6.29004">
        <ele>1521.6</ele>
        <time>2024-08-13T06:24:50Z</time>
      </trkpt>
      <trkpt lat="44.8302" lon="6.29004">
        <ele>1521.2</ele>
        <time>2024-08-13T06:24:51Z</time>
      </trkpt>
      <trkpt lat="44.83021" lon="6.29001">
        <ele>1520.8</ele>
        <time>2024-08-13T06:24:52Z</time>
      </trkpt>
      <trkpt lat="44.83021" lon="6.29001">
        <ele>1520.4</ele>
        <time>2024-08-13T06:24:53Z</time>
      </trkpt>
      <trkpt lat="44.83021" lon="6.28999">
        <ele>1520</ele>
        <time>2024-08-13T06:24:54Z</time>
      </trkpt>
      <trkpt lat="44.83021" lon="6.28999">
        <ele>1519.8</ele>
        <time>2024-08-13T06:24:55Z</time>
      </trkpt>
      <trkpt lat="44.83021" lon="6.28995">
        <ele>1519.4</ele>
        <time>2024-08-13T06:24:56Z</time>
      </trkpt>
      <trkpt lat="44.83021" lon="6.28995">
        <ele>1519.2</ele>
        <time>2024-08-13T06:24:57Z</time>
      </trkpt>
      <trkpt lat="44.83023" lon="6.28993">
        <ele>1519</ele>
        <time>2024-08-13T06:24:58Z</time>
      </trkpt>
      <trkpt lat="44.83023" lon="6.28993">
        <ele>1518.6</ele>
        <time>2024-08-13T06:24:59Z</time>
      </trkpt>
      <trkpt lat="44.83024" lon="6.28991">
        <ele>1518.4</ele>
        <time>2024-08-13T06:25:00Z</time>
      </trkpt>
      <trkpt lat="44.83024" lon="6.28991">
        <ele>1518</ele>
        <time>2024-08-13T06:25:01Z</time>
      </trkpt>
      <trkpt lat="44.83024" lon="6.28991">
        <ele>1517.4</ele>
        <time>2024-08-13T06:25:02Z</time>
      </trkpt>
      <trkpt lat="44.83025" lon="6.28988">
        <ele>1517.4</ele>
        <time>2024-08-13T06:25:03Z</time>
      </trkpt>
      <trkpt lat="44.83025" lon="6.28988">
        <ele>1517.2</ele>
        <time>2024-08-13T06:25:04Z</time>
      </trkpt>
      <trkpt lat="44.83025" lon="6.28984">
        <ele>1516.8</ele>
        <time>2024-08-13T06:25:05Z</time>
      </trkpt>
      <trkpt lat="44.83025" lon="6.28984">
        <ele>1516.8</ele>
        <time>2024-08-13T06:25:06Z</time>
      </trkpt>
      <trkpt lat="44.83026" lon="6.2898">
        <ele>1516.4</ele>
        <time>2024-08-13T06:25:07Z</time>
      </trkpt>
      <trkpt lat="44.83026" lon="6.2898">
        <ele>1515.8</ele>
        <time>2024-08-13T06:25:08Z</time>
      </trkpt>
      <trkpt lat="44.83026" lon="6.28977">
        <ele>1515.6</ele>
        <time>2024-08-13T06:25:09Z</time>
      </trkpt>
      <trkpt lat="44.83026" lon="6.28977">
        <ele>1515.2</ele>
        <time>2024-08-13T06:25:10Z</time>
      </trkpt>
      <trkpt lat="44.83027" lon="6.28974">
        <ele>1514.8</ele>
        <time>2024-08-13T06:25:11Z</time>
      </trkpt>
      <trkpt lat="44.83027" lon="6.28974">
        <ele>1514.8</ele>
        <time>2024-08-13T06:25:12Z</time>
      </trkpt>
      <trkpt lat="44.83028" lon="6.28971">
        <ele>1514.4</ele>
        <time>2024-08-13T06:25:13Z</time>
      </trkpt>
      <trkpt lat="44.83028" lon="6.28971">
        <ele>1514.2</ele>
        <time>2024-08-13T06:25:14Z</time>
      </trkpt>
      <trkpt lat="44.83028" lon="6.28968">
        <ele>1513.6</ele>
        <time>2024-08-13T06:25:15Z</time>
      </trkpt>
      <trkpt lat="44.83028" lon="6.28968">
        <ele>1513.2</ele>
        <time>2024-08-13T06:25:16Z</time>
      </trkpt>
      <trkpt lat="44.83029" lon="6.28965">
        <ele>1513.2</ele>
        <time>2024-08-13T06:25:17Z</time>
      </trkpt>
      <trkpt lat="44.83029" lon="6.28965">
        <ele>1513</ele>
        <time>2024-08-13T06:25:18Z</time>
      </trkpt>
      <trkpt lat="44.8303" lon="6.28962">
        <ele>1512.4</ele>
        <time>2024-08-13T06:25:19Z</time>
      </trkpt>
      <trkpt lat="44.8303" lon="6.28962">
        <ele>1511.8</ele>
        <time>2024-08-13T06:25:20Z</time>
      </trkpt>
      <trkpt lat="44.83031" lon="6.28959">
        <ele>1511.6</ele>
        <time>2024-08-13T06:25:21Z</time>
      </trkpt>
      <trkpt lat="44.83031" lon="6.28959">
        <ele>1511.4</ele>
        <time>2024-08-13T06:25:22Z</time>
      </trkpt>
      <trkpt lat="44.83031" lon="6.28956">
        <ele>1511.2</ele>
        <time>2024-08-13T06:25:23Z</time>
      </trkpt>
      <trkpt lat="44.83031" lon="6.28956">
        <ele>1510.8</ele>
        <time>2024-08-13T06:25:24Z</time>
      </trkpt>
      <trkpt lat="44.83032" lon="6.28953">
        <ele>1510.6</ele>
        <time>2024-08-13T06:25:25Z</time>
      </trkpt>
      <trkpt lat="44.83032" lon="6.28953">
        <ele>1510.4</ele>
        <time>2024-08-13T06:25:26Z</time>
      </trkpt>
      <trkpt lat="44.83033" lon="6.28949">
        <ele>1510</ele>
        <time>2024-08-13T06:25:27Z</time>
      </trkpt>
      <trkpt lat="44.83035" lon="6.28948">
        <ele>1509.6</ele>
        <time>2024-08-13T06:25:28Z</time>
      </trkpt>
      <trkpt lat="44.83035" lon="6.28948">
        <ele>1509.6</ele>
        <time>2024-08-13T06:25:29Z</time>
      </trkpt>
      <trkpt lat="44.83037" lon="6.28946">
        <ele>1509.4</ele>
        <time>2024-08-13T06:25:30Z</time>
      </trkpt>
      <trkpt lat="44.83037" lon="6.28946">
        <ele>1509.4</ele>
        <time>2024-08-13T06:25:31Z</time>
      </trkpt>
      <trkpt lat="44.83038" lon="6.28943">
        <ele>1509.2</ele>
        <time>2024-08-13T06:25:32Z</time>
      </trkpt>
      <trkpt lat="44.83038" lon="6.28943">
        <ele>1509.2</ele>
        <time>2024-08-13T06:25:33Z</time>
      </trkpt>
      <trkpt lat="44.83039" lon="6.2894">
        <ele>1508.8</ele>
        <time>2024-08-13T06:25:34Z</time>
      </trkpt>
      <trkpt lat="44.83039" lon="6.2894">
        <ele>1508.4</ele>
        <time>2024-08-13T06:25:35Z</time>
      </trkpt>
      <trkpt lat="44.83041" lon="6.28938">
        <ele>1508</ele>
        <time>2024-08-13T06:25:36Z</time>
      </trkpt>
      <trkpt lat="44.83041" lon="6.28938">
        <ele>1507.6</ele>
        <time>2024-08-13T06:25:37Z</time>
      </trkpt>
      <trkpt lat="44.83041" lon="6.28938">
        <ele>1507.6</ele>
        <time>2024-08-13T06:25:38Z</time>
      </trkpt>
      <trkpt lat="44.83041" lon="6.28938">
        <ele>1507.4</ele>
        <time>2024-08-13T06:25:39Z</time>
      </trkpt>
      <trkpt lat="44.83041" lon="6.28938">
        <ele>1507</ele>
        <time>2024-08-13T06:25:40Z</time>
      </trkpt>
      <trkpt lat="44.83041" lon="6.28938">
        <ele>1506.8</ele>
        <time>2024-08-13T06:25:41Z</time>
      </trkpt>
      <trkpt lat="44.83041" lon="6.28938">
        <ele>1506.6</ele>
        <time>2024-08-13T06:25:42Z</time>
      </trkpt>
      <trkpt lat="44.83041" lon="6.28938">
        <ele>1506.6</ele>
        <time>2024-08-13T06:25:43Z</time>
      </trkpt>
      <trkpt lat="44.83041" lon="6.28938">
        <ele>1506.8</ele>
        <time>2024-08-13T06:25:44Z</time>
      </trkpt>
      <trkpt lat="44.83041" lon="6.28938">
        <ele>1507</ele>
        <time>2024-08-13T06:25:45Z</time>
      </trkpt>
      <trkpt lat="44.83041" lon="6.28938">
        <ele>1507</ele>
        <time>2024-08-13T06:25:46Z</time>
      </trkpt>
      <trkpt lat="44.83041" lon="6.28938">
        <ele>1507</ele>
        <time>2024-08-13T06:25:47Z</time>
      </trkpt>
      <trkpt lat="44.83041" lon="6.28938">
        <ele>1506.8</ele>
        <time>2024-08-13T06:25:48Z</time>
      </trkpt>
      <trkpt lat="44.83041" lon="6.28938">
        <ele>1506.8</ele>
        <time>2024-08-13T06:25:49Z</time>
      </trkpt>
      <trkpt lat="44.83041" lon="6.28938">
        <ele>1506.6</ele>
        <time>2024-08-13T06:25:50Z</time>
      </trkpt>
      <trkpt lat="44.83041" lon="6.28938">
        <ele>1506.6</ele>
        <time>2024-08-13T06:25:51Z</time>
      </trkpt>
      <trkpt lat="44.83041" lon="6.28938">
        <ele>1506.4</ele>
        <time>2024-08-13T06:25:52Z</time>
      </trkpt>
      <trkpt lat="44.83041" lon="6.28938">
        <ele>1506.4</ele>
        <time>2024-08-13T06:25:53Z</time>
      </trkpt>
      <trkpt lat="44.83041" lon="6.28938">
        <ele>1506.4</ele>
        <time>2024-08-13T06:25:54Z</time>
      </trkpt>
      <trkpt lat="44.83041" lon="6.28938">
        <ele>1506.4</ele>
        <time>2024-08-13T06:25:55Z</time>
      </trkpt>
      <trkpt lat="44.83041" lon="6.28938">
        <ele>1506.4</ele>
        <time>2024-08-13T06:25:56Z</time>
      </trkpt>
      <trkpt lat="44.83041" lon="6.28938">
        <ele>1506.4</ele>
        <time>2024-08-13T06:25:57Z</time>
      </trkpt>
      <trkpt lat="44.83041" lon="6.28938">
        <ele>1506.2</ele>
        <time>2024-08-13T06:25:58Z</time>
      </trkpt>
      <trkpt lat="44.83041" lon="6.28938">
        <ele>1506.2</ele>
        <time>2024-08-13T06:25:59Z</time>
      </trkpt>
      <trkpt lat="44.83041" lon="6.28938">
        <ele>1506.2</ele>
        <time>2024-08-13T06:26:00Z</time>
      </trkpt>
      <trkpt lat="44.83041" lon="6.28938">
        <ele>1506.2</ele>
        <time>2024-08-13T06:26:01Z</time>
      </trkpt>
      <trkpt lat="44.83041" lon="6.28938">
        <ele>1506</ele>
        <time>2024-08-13T06:26:02Z</time>
      </trkpt>
      <trkpt lat="44.83041" lon="6.28938">
        <ele>1506</ele>
        <time>2024-08-13T06:26:03Z</time>
      </trkpt>
      <trkpt lat="44.83041" lon="6.28938">
        <ele>1506</ele>
        <time>2024-08-13T06:26:04Z</time>
      </trkpt>
      <trkpt lat="44.83041" lon="6.28938">
        <ele>1506</ele>
        <time>2024-08-13T06:26:05Z</time>
      </trkpt>
      <trkpt lat="44.83041" lon="6.28938">
        <ele>1506.4</ele>
        <time>2024-08-13T06:26:06Z</time>
      </trkpt>
      <trkpt lat="44.83041" lon="6.28938">
        <ele>1506.2</ele>
        <time>2024-08-13T06:26:07Z</time>
      </trkpt>
      <trkpt lat="44.83041" lon="6.28938">
        <ele>1506.2</ele>
        <time>2024-08-13T06:26:08Z</time>
      </trkpt>
      <trkpt lat="44.83041" lon="6.28938">
        <ele>1506.6</ele>
        <time>2024-08-13T06:26:09Z</time>
      </trkpt>
      <trkpt lat="44.83041" lon="6.28938">
        <ele>1506.6</ele>
        <time>2024-08-13T06:26:10Z</time>
      </trkpt>
      <trkpt lat="44.83041" lon="6.28938">
        <ele>1506.6</ele>
        <time>2024-08-13T06:26:11Z</time>
      </trkpt>
      <trkpt lat="44.83041" lon="6.28938">
        <ele>1506.6</ele>
        <time>2024-08-13T06:26:12Z</time>
      </trkpt>
      <trkpt lat="44.83041" lon="6.28933">
        <ele>1506.6</ele>
        <time>2024-08-13T06:26:13Z</time>
      </trkpt>
      <trkpt lat="44.83041" lon="6.28933">
        <ele>1506.2</ele>
        <time>2024-08-13T06:26:14Z</time>
      </trkpt>
      <trkpt lat="44.83041" lon="6.28928">
        <ele>1506.2</ele>
        <time>2024-08-13T06:26:15Z</time>
      </trkpt>
      <trkpt lat="44.83041" lon="6.28928">
        <ele>1505.8</ele>
        <time>2024-08-13T06:26:16Z</time>
      </trkpt>
      <trkpt lat="44.83042" lon="6.28924">
        <ele>1505.4</ele>
        <time>2024-08-13T06:26:17Z</time>
      </trkpt>
      <trkpt lat="44.83042" lon="6.28924">
        <ele>1505.4</ele>
        <time>2024-08-13T06:26:18Z</time>
      </trkpt>
      <trkpt lat="44.83043" lon="6.28922">
        <ele>1506</ele>
        <time>2024-08-13T06:26:19Z</time>
      </trkpt>
      <trkpt lat="44.83043" lon="6.28922">
        <ele>1506.6</ele>
        <time>2024-08-13T06:26:20Z</time>
      </trkpt>
      <trkpt lat="44.83043" lon="6.28922">
        <ele>1506.8</ele>
        <time>2024-08-13T06:26:21Z</time>
      </trkpt>
      <trkpt lat="44.83045" lon="6.28919">
        <ele>1506.8</ele>
        <time>2024-08-13T06:26:22Z</time>
      </trkpt>
      <trkpt lat="44.83045" lon="6.28919">
        <ele>1506.8</ele>
        <time>2024-08-13T06:26:23Z</time>
      </trkpt>
      <trkpt lat="44.83045" lon="6.28917">
        <ele>1506.4</ele>
        <time>2024-08-13T06:26:24Z</time>
      </trkpt>
      <trkpt lat="44.83045" lon="6.28917">
        <ele>1506</ele>
        <time>2024-08-13T06:26:25Z</time>
      </trkpt>
      <trkpt lat="44.83046" lon="6.28915">
        <ele>1505.8</ele>
        <time>2024-08-13T06:26:26Z</time>
      </trkpt>
      <trkpt lat="44.83046" lon="6.28915">
        <ele>1505.2</ele>
        <time>2024-08-13T06:26:27Z</time>
      </trkpt>
      <trkpt lat="44.83046" lon="6.28915">
        <ele>1505</ele>
        <time>2024-08-13T06:26:28Z</time>
      </trkpt>
      <trkpt lat="44.83048" lon="6.28911">
        <ele>1505</ele>
        <time>2024-08-13T06:26:29Z</time>
      </trkpt>
      <trkpt lat="44.83048" lon="6.28911">
        <ele>1504.8</ele>
        <time>2024-08-13T06:26:30Z</time>
      </trkpt>
      <trkpt lat="44.83049" lon="6.28908">
        <ele>1504.4</ele>
        <time>2024-08-13T06:26:31Z</time>
      </trkpt>
      <trkpt lat="44.83049" lon="6.28908">
        <ele>1504.2</ele>
        <time>2024-08-13T06:26:32Z</time>
      </trkpt>
      <trkpt lat="44.83048" lon="6.28905">
        <ele>1504.2</ele>
        <time>2024-08-13T06:26:33Z</time>
      </trkpt>
      <trkpt lat="44.83048" lon="6.28905">
        <ele>1503.8</ele>
        <time>2024-08-13T06:26:34Z</time>
      </trkpt>
      <trkpt lat="44.83048" lon="6.28901">
        <ele>1503.2</ele>
        <time>2024-08-13T06:26:35Z</time>
      </trkpt>
      <trkpt lat="44.83048" lon="6.28901">
        <ele>1502.6</ele>
        <time>2024-08-13T06:26:36Z</time>
      </trkpt>
      <trkpt lat="44.83049" lon="6.28898">
        <ele>1502.4</ele>
        <time>2024-08-13T06:26:37Z</time>
      </trkpt>
      <trkpt lat="44.83049" lon="6.28898">
        <ele>1502.2</ele>
        <time>2024-08-13T06:26:38Z</time>
      </trkpt>
      <trkpt lat="44.83049" lon="6.28894">
        <ele>1502.2</ele>
        <time>2024-08-13T06:26:39Z</time>
      </trkpt>
      <trkpt lat="44.83049" lon="6.28894">
        <ele>1501.8</ele>
        <time>2024-08-13T06:26:40Z</time>
      </trkpt>
      <trkpt lat="44.83051" lon="6.28891">
        <ele>1501.8</ele>
        <time>2024-08-13T06:26:41Z</time>
      </trkpt>
      <trkpt lat="44.83051" lon="6.28891">
        <ele>1501.4</ele>
        <time>2024-08-13T06:26:42Z</time>
      </trkpt>
      <trkpt lat="44.83052" lon="6.28889">
        <ele>1501.4</ele>
        <time>2024-08-13T06:26:43Z</time>
      </trkpt>
      <trkpt lat="44.83052" lon="6.28889">
        <ele>1501.2</ele>
        <time>2024-08-13T06:26:44Z</time>
      </trkpt>
      <trkpt lat="44.83053" lon="6.28886">
        <ele>1501.2</ele>
        <time>2024-08-13T06:26:45Z</time>
      </trkpt>
      <trkpt lat="44.83053" lon="6.28886">
        <ele>1501</ele>
        <time>2024-08-13T06:26:46Z</time>
      </trkpt>
      <trkpt lat="44.83053" lon="6.28883">
        <ele>1500.6</ele>
        <time>2024-08-13T06:26:47Z</time>
      </trkpt>
      <trkpt lat="44.83053" lon="6.28883">
        <ele>1500.2</ele>
        <time>2024-08-13T06:26:48Z</time>
      </trkpt>
      <trkpt lat="44.83054" lon="6.2888">
        <ele>1500.2</ele>
        <time>2024-08-13T06:26:49Z</time>
      </trkpt>
      <trkpt lat="44.83054" lon="6.2888">
        <ele>1500.2</ele>
        <time>2024-08-13T06:26:50Z</time>
      </trkpt>
      <trkpt lat="44.83055" lon="6.28877">
        <ele>1500</ele>
        <time>2024-08-13T06:26:51Z</time>
      </trkpt>
      <trkpt lat="44.83055" lon="6.28877">
        <ele>1499.8</ele>
        <time>2024-08-13T06:26:52Z</time>
      </trkpt>
      <trkpt lat="44.83056" lon="6.28874">
        <ele>1499.6</ele>
        <time>2024-08-13T06:26:53Z</time>
      </trkpt>
      <trkpt lat="44.83056" lon="6.28874">
        <ele>1499.4</ele>
        <time>2024-08-13T06:26:54Z</time>
      </trkpt>
      <trkpt lat="44.83056" lon="6.28871">
        <ele>1499.2</ele>
        <time>2024-08-13T06:26:55Z</time>
      </trkpt>
      <trkpt lat="44.83056" lon="6.28871">
        <ele>1499</ele>
        <time>2024-08-13T06:26:56Z</time>
      </trkpt>
      <trkpt lat="44.83057" lon="6.28869">
        <ele>1498.8</ele>
        <time>2024-08-13T06:26:57Z</time>
      </trkpt>
      <trkpt lat="44.83057" lon="6.28869">
        <ele>1498.6</ele>
        <time>2024-08-13T06:26:58Z</time>
      </trkpt>
      <trkpt lat="44.83059" lon="6.28866">
        <ele>1498.4</ele>
        <time>2024-08-13T06:26:59Z</time>
      </trkpt>
      <trkpt lat="44.83059" lon="6.28866">
        <ele>1498.2</ele>
        <time>2024-08-13T06:27:00Z</time>
      </trkpt>
      <trkpt lat="44.83059" lon="6.28866">
        <ele>1498</ele>
        <time>2024-08-13T06:27:01Z</time>
      </trkpt>
      <trkpt lat="44.83059" lon="6.28866">
        <ele>1497.6</ele>
        <time>2024-08-13T06:27:02Z</time>
      </trkpt>
      <trkpt lat="44.83059" lon="6.28863">
        <ele>1497.6</ele>
        <time>2024-08-13T06:27:03Z</time>
      </trkpt>
      <trkpt lat="44.83059" lon="6.28863">
        <ele>1497.4</ele>
        <time>2024-08-13T06:27:04Z</time>
      </trkpt>
      <trkpt lat="44.83059" lon="6.28863">
        <ele>1496.8</ele>
        <time>2024-08-13T06:27:05Z</time>
      </trkpt>
      <trkpt lat="44.8306" lon="6.28859">
        <ele>1496.4</ele>
        <time>2024-08-13T06:27:06Z</time>
      </trkpt>
      <trkpt lat="44.8306" lon="6.28859">
        <ele>1496.2</ele>
        <time>2024-08-13T06:27:07Z</time>
      </trkpt>
      <trkpt lat="44.83061" lon="6.28856">
        <ele>1496.2</ele>
        <time>2024-08-13T06:27:08Z</time>
      </trkpt>
      <trkpt lat="44.83061" lon="6.28856">
        <ele>1495.8</ele>
        <time>2024-08-13T06:27:09Z</time>
      </trkpt>
      <trkpt lat="44.83063" lon="6.28854">
        <ele>1495.8</ele>
        <time>2024-08-13T06:27:10Z</time>
      </trkpt>
      <trkpt lat="44.83063" lon="6.28854">
        <ele>1495.6</ele>
        <time>2024-08-13T06:27:11Z</time>
      </trkpt>
      <trkpt lat="44.83065" lon="6.28853">
        <ele>1495.4</ele>
        <time>2024-08-13T06:27:12Z</time>
      </trkpt>
      <trkpt lat="44.83065" lon="6.28853">
        <ele>1495.2</ele>
        <time>2024-08-13T06:27:13Z</time>
      </trkpt>
      <trkpt lat="44.83066" lon="6.2885">
        <ele>1495</ele>
        <time>2024-08-13T06:27:14Z</time>
      </trkpt>
      <trkpt lat="44.83066" lon="6.2885">
        <ele>1494.8</ele>
        <time>2024-08-13T06:27:15Z</time>
      </trkpt>
      <trkpt lat="44.83067" lon="6.28847">
        <ele>1494.6</ele>
        <time>2024-08-13T06:27:16Z</time>
      </trkpt>
      <trkpt lat="44.83067" lon="6.28847">
        <ele>1494.6</ele>
        <time>2024-08-13T06:27:17Z</time>
      </trkpt>
      <trkpt lat="44.83067" lon="6.28844">
        <ele>1494.4</ele>
        <time>2024-08-13T06:27:18Z</time>
      </trkpt>
      <trkpt lat="44.83067" lon="6.28844">
        <ele>1494.2</ele>
        <time>2024-08-13T06:27:19Z</time>
      </trkpt>
      <trkpt lat="44.83069" lon="6.28841">
        <ele>1494.2</ele>
        <time>2024-08-13T06:27:20Z</time>
      </trkpt>
      <trkpt lat="44.83069" lon="6.28841">
        <ele>1494.2</ele>
        <time>2024-08-13T06:27:21Z</time>
      </trkpt>
      <trkpt lat="44.83069" lon="6.28838">
        <ele>1494</ele>
        <time>2024-08-13T06:27:22Z</time>
      </trkpt>
      <trkpt lat="44.83069" lon="6.28838">
        <ele>1493.6</ele>
        <time>2024-08-13T06:27:23Z</time>
      </trkpt>
      <trkpt lat="44.8307" lon="6.28835">
        <ele>1493.6</ele>
        <time>2024-08-13T06:27:24Z</time>
      </trkpt>
      <trkpt lat="44.8307" lon="6.28835">
        <ele>1493.2</ele>
        <time>2024-08-13T06:27:25Z</time>
      </trkpt>
      <trkpt lat="44.83071" lon="6.28832">
        <ele>1493.2</ele>
        <time>2024-08-13T06:27:26Z</time>
      </trkpt>
      <trkpt lat="44.83071" lon="6.28832">
        <ele>1493.2</ele>
        <time>2024-08-13T06:27:27Z</time>
      </trkpt>
      <trkpt lat="44.83072" lon="6.28829">
        <ele>1492.8</ele>
        <time>2024-08-13T06:27:28Z</time>
      </trkpt>
      <trkpt lat="44.83072" lon="6.28829">
        <ele>1492.4</ele>
        <time>2024-08-13T06:27:29Z</time>
      </trkpt>
      <trkpt lat="44.83074" lon="6.28826">
        <ele>1492.4</ele>
        <time>2024-08-13T06:27:30Z</time>
      </trkpt>
      <trkpt lat="44.83074" lon="6.28826">
        <ele>1492.4</ele>
        <time>2024-08-13T06:27:31Z</time>
      </trkpt>
      <trkpt lat="44.83076" lon="6.28825">
        <ele>1492.2</ele>
        <time>2024-08-13T06:27:32Z</time>
      </trkpt>
      <trkpt lat="44.83076" lon="6.28825">
        <ele>1492</ele>
        <time>2024-08-13T06:27:33Z</time>
      </trkpt>
      <trkpt lat="44.83078" lon="6.28823">
        <ele>1491.8</ele>
        <time>2024-08-13T06:27:34Z</time>
      </trkpt>
      <trkpt lat="44.83078" lon="6.28823">
        <ele>1491.6</ele>
        <time>2024-08-13T06:27:35Z</time>
      </trkpt>
      <trkpt lat="44.83078" lon="6.28823">
        <ele>1491.2</ele>
        <time>2024-08-13T06:27:36Z</time>
      </trkpt>
      <trkpt lat="44.83078" lon="6.2882">
        <ele>1491.2</ele>
        <time>2024-08-13T06:27:37Z</time>
      </trkpt>
      <trkpt lat="44.83078" lon="6.2882">
        <ele>1490.8</ele>
        <time>2024-08-13T06:27:38Z</time>
      </trkpt>
      <trkpt lat="44.83079" lon="6.28818">
        <ele>1490.8</ele>
        <time>2024-08-13T06:27:39Z</time>
      </trkpt>
      <trkpt lat="44.83079" lon="6.28818">
        <ele>1490.6</ele>
        <time>2024-08-13T06:27:40Z</time>
      </trkpt>
      <trkpt lat="44.83081" lon="6.28815">
        <ele>1490.4</ele>
        <time>2024-08-13T06:27:41Z</time>
      </trkpt>
      <trkpt lat="44.83081" lon="6.28815">
        <ele>1490.2</ele>
        <time>2024-08-13T06:27:42Z</time>
      </trkpt>
      <trkpt lat="44.83082" lon="6.28812">
        <ele>1490.2</ele>
        <time>2024-08-13T06:27:43Z</time>
      </trkpt>
      <trkpt lat="44.83082" lon="6.28812">
        <ele>1489.8</ele>
        <time>2024-08-13T06:27:44Z</time>
      </trkpt>
      <trkpt lat="44.83083" lon="6.28809">
        <ele>1489.6</ele>
        <time>2024-08-13T06:27:45Z</time>
      </trkpt>
      <trkpt lat="44.83083" lon="6.28809">
        <ele>1489.4</ele>
        <time>2024-08-13T06:27:46Z</time>
      </trkpt>
      <trkpt lat="44.83085" lon="6.28806">
        <ele>1489</ele>
        <time>2024-08-13T06:27:47Z</time>
      </trkpt>
      <trkpt lat="44.83085" lon="6.28806">
        <ele>1488.8</ele>
        <time>2024-08-13T06:27:48Z</time>
      </trkpt>
      <trkpt lat="44.83085" lon="6.28803">
        <ele>1488.8</ele>
        <time>2024-08-13T06:27:49Z</time>
      </trkpt>
      <trkpt lat="44.83085" lon="6.28803">
        <ele>1488.6</ele>
        <time>2024-08-13T06:27:50Z</time>
      </trkpt>
      <trkpt lat="44.83086" lon="6.288">
        <ele>1488.4</ele>
        <time>2024-08-13T06:27:51Z</time>
      </trkpt>
      <trkpt lat="44.83086" lon="6.288">
        <ele>1488.4</ele>
        <time>2024-08-13T06:27:52Z</time>
      </trkpt>
      <trkpt lat="44.83086" lon="6.28797">
        <ele>1488.2</ele>
        <time>2024-08-13T06:27:53Z</time>
      </trkpt>
      <trkpt lat="44.83086" lon="6.28797">
        <ele>1487.8</ele>
        <time>2024-08-13T06:27:54Z</time>
      </trkpt>
      <trkpt lat="44.83086" lon="6.28794">
        <ele>1487.8</ele>
        <time>2024-08-13T06:27:55Z</time>
      </trkpt>
      <trkpt lat="44.83086" lon="6.28794">
        <ele>1487.6</ele>
        <time>2024-08-13T06:27:56Z</time>
      </trkpt>
      <trkpt lat="44.83086" lon="6.2879">
        <ele>1487.6</ele>
        <time>2024-08-13T06:27:57Z</time>
      </trkpt>
      <trkpt lat="44.83086" lon="6.2879">
        <ele>1487.4</ele>
        <time>2024-08-13T06:27:58Z</time>
      </trkpt>
      <trkpt lat="44.83086" lon="6.28786">
        <ele>1487.4</ele>
        <time>2024-08-13T06:27:59Z</time>
      </trkpt>
      <trkpt lat="44.83086" lon="6.28786">
        <ele>1487.4</ele>
        <time>2024-08-13T06:28:00Z</time>
      </trkpt>
      <trkpt lat="44.83087" lon="6.28783">
        <ele>1487.2</ele>
        <time>2024-08-13T06:28:01Z</time>
      </trkpt>
      <trkpt lat="44.83087" lon="6.28783">
        <ele>1487.2</ele>
        <time>2024-08-13T06:28:02Z</time>
      </trkpt>
      <trkpt lat="44.83087" lon="6.2878">
        <ele>1487.2</ele>
        <time>2024-08-13T06:28:03Z</time>
      </trkpt>
      <trkpt lat="44.83087" lon="6.2878">
        <ele>1487.2</ele>
        <time>2024-08-13T06:28:04Z</time>
      </trkpt>
      <trkpt lat="44.83086" lon="6.28776">
        <ele>1487</ele>
        <time>2024-08-13T06:28:05Z</time>
      </trkpt>
      <trkpt lat="44.83086" lon="6.28776">
        <ele>1486.8</ele>
        <time>2024-08-13T06:28:06Z</time>
      </trkpt>
      <trkpt lat="44.83086" lon="6.28772">
        <ele>1486.8</ele>
        <time>2024-08-13T06:28:07Z</time>
      </trkpt>
      <trkpt lat="44.83086" lon="6.28772">
        <ele>1486.6</ele>
        <time>2024-08-13T06:28:08Z</time>
      </trkpt>
      <trkpt lat="44.83086" lon="6.28772">
        <ele>1486.4</ele>
        <time>2024-08-13T06:28:09Z</time>
      </trkpt>
      <trkpt lat="44.83086" lon="6.28769">
        <ele>1486.2</ele>
        <time>2024-08-13T06:28:10Z</time>
      </trkpt>
      <trkpt lat="44.83086" lon="6.28769">
        <ele>1486.2</ele>
        <time>2024-08-13T06:28:11Z</time>
      </trkpt>
      <trkpt lat="44.83086" lon="6.28766">
        <ele>1486.2</ele>
        <time>2024-08-13T06:28:12Z</time>
      </trkpt>
      <trkpt lat="44.83086" lon="6.28766">
        <ele>1486.2</ele>
        <time>2024-08-13T06:28:13Z</time>
      </trkpt>
      <trkpt lat="44.83085" lon="6.28762">
        <ele>1486</ele>
        <time>2024-08-13T06:28:14Z</time>
      </trkpt>
      <trkpt lat="44.83085" lon="6.28762">
        <ele>1485.8</ele>
        <time>2024-08-13T06:28:15Z</time>
      </trkpt>
      <trkpt lat="44.83084" lon="6.28758">
        <ele>1485.6</ele>
        <time>2024-08-13T06:28:16Z</time>
      </trkpt>
      <trkpt lat="44.83084" lon="6.28758">
        <ele>1485.6</ele>
        <time>2024-08-13T06:28:17Z</time>
      </trkpt>
      <trkpt lat="44.83082" lon="6.28755">
        <ele>1485.4</ele>
        <time>2024-08-13T06:28:18Z</time>
      </trkpt>
      <trkpt lat="44.83082" lon="6.28755">
        <ele>1485.2</ele>
        <time>2024-08-13T06:28:19Z</time>
      </trkpt>
      <trkpt lat="44.83082" lon="6.28752">
        <ele>1485</ele>
        <time>2024-08-13T06:28:20Z</time>
      </trkpt>
      <trkpt lat="44.83082" lon="6.28752">
        <ele>1485</ele>
        <time>2024-08-13T06:28:21Z</time>
      </trkpt>
      <trkpt lat="44.83082" lon="6.28749">
        <ele>1484.6</ele>
        <time>2024-08-13T06:28:22Z</time>
      </trkpt>
      <trkpt lat="44.83082" lon="6.28749">
        <ele>1484.4</ele>
        <time>2024-08-13T06:28:23Z</time>
      </trkpt>
      <trkpt lat="44.83083" lon="6.28746">
        <ele>1484.4</ele>
        <time>2024-08-13T06:28:24Z</time>
      </trkpt>
      <trkpt lat="44.83083" lon="6.28746">
        <ele>1484.4</ele>
        <time>2024-08-13T06:28:25Z</time>
      </trkpt>
      <trkpt lat="44.83083" lon="6.28742">
        <ele>1484.4</ele>
        <time>2024-08-13T06:28:26Z</time>
      </trkpt>
      <trkpt lat="44.83083" lon="6.28742">
        <ele>1484.4</ele>
        <time>2024-08-13T06:28:27Z</time>
      </trkpt>
      <trkpt lat="44.83085" lon="6.28739">
        <ele>1484.2</ele>
        <time>2024-08-13T06:28:28Z</time>
      </trkpt>
      <trkpt lat="44.83085" lon="6.28739">
        <ele>1484.2</ele>
        <time>2024-08-13T06:28:29Z</time>
      </trkpt>
      <trkpt lat="44.83085" lon="6.28735">
        <ele>1484</ele>
        <time>2024-08-13T06:28:30Z</time>
      </trkpt>
      <trkpt lat="44.83085" lon="6.28735">
        <ele>1484</ele>
        <time>2024-08-13T06:28:31Z</time>
      </trkpt>
      <trkpt lat="44.83087" lon="6.28732">
        <ele>1484</ele>
        <time>2024-08-13T06:28:32Z</time>
      </trkpt>
      <trkpt lat="44.83087" lon="6.28732">
        <ele>1484.2</ele>
        <time>2024-08-13T06:28:33Z</time>
      </trkpt>
      <trkpt lat="44.83088" lon="6.28729">
        <ele>1484.4</ele>
        <time>2024-08-13T06:28:34Z</time>
      </trkpt>
      <trkpt lat="44.83088" lon="6.28729">
        <ele>1484.6</ele>
        <time>2024-08-13T06:28:35Z</time>
      </trkpt>
      <trkpt lat="44.8309" lon="6.28725">
        <ele>1485</ele>
        <time>2024-08-13T06:28:36Z</time>
      </trkpt>
      <trkpt lat="44.8309" lon="6.28725">
        <ele>1485.2</ele>
        <time>2024-08-13T06:28:37Z</time>
      </trkpt>
      <trkpt lat="44.83091" lon="6.28722">
        <ele>1485.2</ele>
        <time>2024-08-13T06:28:38Z</time>
      </trkpt>
      <trkpt lat="44.83091" lon="6.28722">
        <ele>1485.2</ele>
        <time>2024-08-13T06:28:39Z</time>
      </trkpt>
      <trkpt lat="44.83092" lon="6.28719">
        <ele>1485.2</ele>
        <time>2024-08-13T06:28:40Z</time>
      </trkpt>
      <trkpt lat="44.83092" lon="6.28719">
        <ele>1485.2</ele>
        <time>2024-08-13T06:28:41Z</time>
      </trkpt>
      <trkpt lat="44.83093" lon="6.28716">
        <ele>1485</ele>
        <time>2024-08-13T06:28:42Z</time>
      </trkpt>
      <trkpt lat="44.83093" lon="6.28716">
        <ele>1485</ele>
        <time>2024-08-13T06:28:43Z</time>
      </trkpt>
      <trkpt lat="44.83093" lon="6.28713">
        <ele>1485</ele>
        <time>2024-08-13T06:28:44Z</time>
      </trkpt>
      <trkpt lat="44.83093" lon="6.28713">
        <ele>1485</ele>
        <time>2024-08-13T06:28:45Z</time>
      </trkpt>
      <trkpt lat="44.83095" lon="6.2871">
        <ele>1485</ele>
        <time>2024-08-13T06:28:46Z</time>
      </trkpt>
      <trkpt lat="44.83095" lon="6.2871">
        <ele>1484.6</ele>
        <time>2024-08-13T06:28:47Z</time>
      </trkpt>
      <trkpt lat="44.83095" lon="6.28706">
        <ele>1484.6</ele>
        <time>2024-08-13T06:28:48Z</time>
      </trkpt>
      <trkpt lat="44.83095" lon="6.28706">
        <ele>1484.4</ele>
        <time>2024-08-13T06:28:49Z</time>
      </trkpt>
      <trkpt lat="44.83096" lon="6.28703">
        <ele>1484.2</ele>
        <time>2024-08-13T06:28:50Z</time>
      </trkpt>
      <trkpt lat="44.83096" lon="6.28703">
        <ele>1484</ele>
        <time>2024-08-13T06:28:51Z</time>
      </trkpt>
      <trkpt lat="44.83098" lon="6.28699">
        <ele>1483.8</ele>
        <time>2024-08-13T06:28:52Z</time>
      </trkpt>
      <trkpt lat="44.83098" lon="6.28699">
        <ele>1483.8</ele>
        <time>2024-08-13T06:28:53Z</time>
      </trkpt>
      <trkpt lat="44.83098" lon="6.28696">
        <ele>1483.6</ele>
        <time>2024-08-13T06:28:54Z</time>
      </trkpt>
      <trkpt lat="44.83098" lon="6.28696">
        <ele>1483.6</ele>
        <time>2024-08-13T06:28:55Z</time>
      </trkpt>
      <trkpt lat="44.83099" lon="6.28693">
        <ele>1483.6</ele>
        <time>2024-08-13T06:28:56Z</time>
      </trkpt>
      <trkpt lat="44.83099" lon="6.28693">
        <ele>1483.4</ele>
        <time>2024-08-13T06:28:57Z</time>
      </trkpt>
      <trkpt lat="44.831" lon="6.2869">
        <ele>1483.2</ele>
        <time>2024-08-13T06:28:58Z</time>
      </trkpt>
      <trkpt lat="44.831" lon="6.2869">
        <ele>1483</ele>
        <time>2024-08-13T06:28:59Z</time>
      </trkpt>
      <trkpt lat="44.831" lon="6.28687">
        <ele>1482.6</ele>
        <time>2024-08-13T06:29:00Z</time>
      </trkpt>
      <trkpt lat="44.831" lon="6.28687">
        <ele>1482.2</ele>
        <time>2024-08-13T06:29:01Z</time>
      </trkpt>
      <trkpt lat="44.831" lon="6.28683">
        <ele>1482</ele>
        <time>2024-08-13T06:29:02Z</time>
      </trkpt>
      <trkpt lat="44.831" lon="6.28683">
        <ele>1482</ele>
        <time>2024-08-13T06:29:03Z</time>
      </trkpt>
      <trkpt lat="44.83101" lon="6.28681">
        <ele>1481.6</ele>
        <time>2024-08-13T06:29:04Z</time>
      </trkpt>
      <trkpt lat="44.83101" lon="6.28681">
        <ele>1481.4</ele>
        <time>2024-08-13T06:29:05Z</time>
      </trkpt>
      <trkpt lat="44.831" lon="6.28678">
        <ele>1481.2</ele>
        <time>2024-08-13T06:29:06Z</time>
      </trkpt>
      <trkpt lat="44.831" lon="6.28678">
        <ele>1481.2</ele>
        <time>2024-08-13T06:29:07Z</time>
      </trkpt>
      <trkpt lat="44.831" lon="6.28675">
        <ele>1481</ele>
        <time>2024-08-13T06:29:08Z</time>
      </trkpt>
      <trkpt lat="44.831" lon="6.28675">
        <ele>1480.6</ele>
        <time>2024-08-13T06:29:09Z</time>
      </trkpt>
      <trkpt lat="44.831" lon="6.28675">
        <ele>1480.2</ele>
        <time>2024-08-13T06:29:10Z</time>
      </trkpt>
      <trkpt lat="44.83102" lon="6.28671">
        <ele>1480</ele>
        <time>2024-08-13T06:29:11Z</time>
      </trkpt>
      <trkpt lat="44.83102" lon="6.28671">
        <ele>1479.8</ele>
        <time>2024-08-13T06:29:12Z</time>
      </trkpt>
      <trkpt lat="44.83101" lon="6.28668">
        <ele>1479.4</ele>
        <time>2024-08-13T06:29:13Z</time>
      </trkpt>
      <trkpt lat="44.83101" lon="6.28668">
        <ele>1479.2</ele>
        <time>2024-08-13T06:29:14Z</time>
      </trkpt>
      <trkpt lat="44.83101" lon="6.28665">
        <ele>1479</ele>
        <time>2024-08-13T06:29:15Z</time>
      </trkpt>
      <trkpt lat="44.83101" lon="6.28665">
        <ele>1478.6</ele>
        <time>2024-08-13T06:29:16Z</time>
      </trkpt>
      <trkpt lat="44.83102" lon="6.28662">
        <ele>1478.2</ele>
        <time>2024-08-13T06:29:17Z</time>
      </trkpt>
      <trkpt lat="44.83102" lon="6.28662">
        <ele>1477.8</ele>
        <time>2024-08-13T06:29:18Z</time>
      </trkpt>
      <trkpt lat="44.83102" lon="6.28659">
        <ele>1477.6</ele>
        <time>2024-08-13T06:29:19Z</time>
      </trkpt>
      <trkpt lat="44.83102" lon="6.28659">
        <ele>1477.2</ele>
        <time>2024-08-13T06:29:20Z</time>
      </trkpt>
      <trkpt lat="44.83102" lon="6.28659">
        <ele>1477</ele>
        <time>2024-08-13T06:29:21Z</time>
      </trkpt>
      <trkpt lat="44.83102" lon="6.28655">
        <ele>1476.6</ele>
        <time>2024-08-13T06:29:22Z</time>
      </trkpt>
      <trkpt lat="44.83102" lon="6.28655">
        <ele>1476.2</ele>
        <time>2024-08-13T06:29:23Z</time>
      </trkpt>
      <trkpt lat="44.831" lon="6.28652">
        <ele>1475.8</ele>
        <time>2024-08-13T06:29:24Z</time>
      </trkpt>
      <trkpt lat="44.831" lon="6.28652">
        <ele>1475.4</ele>
        <time>2024-08-13T06:29:25Z</time>
      </trkpt>
      <trkpt lat="44.831" lon="6.28649">
        <ele>1474.8</ele>
        <time>2024-08-13T06:29:26Z</time>
      </trkpt>
      <trkpt lat="44.831" lon="6.28649">
        <ele>1474.6</ele>
        <time>2024-08-13T06:29:27Z</time>
      </trkpt>
      <trkpt lat="44.83098" lon="6.28647">
        <ele>1474.2</ele>
        <time>2024-08-13T06:29:28Z</time>
      </trkpt>
      <trkpt lat="44.83098" lon="6.28647">
        <ele>1473.8</ele>
        <time>2024-08-13T06:29:29Z</time>
      </trkpt>
      <trkpt lat="44.83097" lon="6.28644">
        <ele>1473.6</ele>
        <time>2024-08-13T06:29:30Z</time>
      </trkpt>
      <trkpt lat="44.83097" lon="6.28644">
        <ele>1473.6</ele>
        <time>2024-08-13T06:29:31Z</time>
      </trkpt>
      <trkpt lat="44.83096" lon="6.28641">
        <ele>1473.2</ele>
        <time>2024-08-13T06:29:32Z</time>
      </trkpt>
      <trkpt lat="44.83096" lon="6.28641">
        <ele>1473</ele>
        <time>2024-08-13T06:29:33Z</time>
      </trkpt>
      <trkpt lat="44.83096" lon="6.28638">
        <ele>1473</ele>
        <time>2024-08-13T06:29:34Z</time>
      </trkpt>
      <trkpt lat="44.83096" lon="6.28638">
        <ele>1472.6</ele>
        <time>2024-08-13T06:29:35Z</time>
      </trkpt>
      <trkpt lat="44.83096" lon="6.28634">
        <ele>1472.2</ele>
        <time>2024-08-13T06:29:36Z</time>
      </trkpt>
      <trkpt lat="44.83096" lon="6.28634">
        <ele>1471.8</ele>
        <time>2024-08-13T06:29:37Z</time>
      </trkpt>
      <trkpt lat="44.83096" lon="6.28631">
        <ele>1471.6</ele>
        <time>2024-08-13T06:29:38Z</time>
      </trkpt>
      <trkpt lat="44.83096" lon="6.28631">
        <ele>1471.4</ele>
        <time>2024-08-13T06:29:39Z</time>
      </trkpt>
      <trkpt lat="44.83096" lon="6.28628">
        <ele>1471</ele>
        <time>2024-08-13T06:29:40Z</time>
      </trkpt>
      <trkpt lat="44.83096" lon="6.28628">
        <ele>1470.8</ele>
        <time>2024-08-13T06:29:41Z</time>
      </trkpt>
      <trkpt lat="44.83096" lon="6.28624">
        <ele>1470.8</ele>
        <time>2024-08-13T06:29:42Z</time>
      </trkpt>
      <trkpt lat="44.83096" lon="6.28624">
        <ele>1470.4</ele>
        <time>2024-08-13T06:29:43Z</time>
      </trkpt>
      <trkpt lat="44.83097" lon="6.2862">
        <ele>1470</ele>
        <time>2024-08-13T06:29:44Z</time>
      </trkpt>
      <trkpt lat="44.83097" lon="6.2862">
        <ele>1469.8</ele>
        <time>2024-08-13T06:29:45Z</time>
      </trkpt>
      <trkpt lat="44.83098" lon="6.28617">
        <ele>1469.4</ele>
        <time>2024-08-13T06:29:46Z</time>
      </trkpt>
      <trkpt lat="44.83098" lon="6.28617">
        <ele>1469.2</ele>
        <time>2024-08-13T06:29:47Z</time>
      </trkpt>
      <trkpt lat="44.83099" lon="6.28613">
        <ele>1468.6</ele>
        <time>2024-08-13T06:29:48Z</time>
      </trkpt>
      <trkpt lat="44.83099" lon="6.28613">
        <ele>1468.4</ele>
        <time>2024-08-13T06:29:49Z</time>
      </trkpt>
      <trkpt lat="44.831" lon="6.2861">
        <ele>1468.2</ele>
        <time>2024-08-13T06:29:50Z</time>
      </trkpt>
      <trkpt lat="44.831" lon="6.2861">
        <ele>1468</ele>
        <time>2024-08-13T06:29:51Z</time>
      </trkpt>
      <trkpt lat="44.83101" lon="6.28606">
        <ele>1467.6</ele>
        <time>2024-08-13T06:29:52Z</time>
      </trkpt>
      <trkpt lat="44.83101" lon="6.28606">
        <ele>1467.4</ele>
        <time>2024-08-13T06:29:53Z</time>
      </trkpt>
      <trkpt lat="44.83101" lon="6.28603">
        <ele>1467</ele>
        <time>2024-08-13T06:29:54Z</time>
      </trkpt>
      <trkpt lat="44.83101" lon="6.28603">
        <ele>1466.8</ele>
        <time>2024-08-13T06:29:55Z</time>
      </trkpt>
      <trkpt lat="44.83101" lon="6.28599">
        <ele>1466.6</ele>
        <time>2024-08-13T06:29:56Z</time>
      </trkpt>
      <trkpt lat="44.83101" lon="6.28599">
        <ele>1466.4</ele>
        <time>2024-08-13T06:29:57Z</time>
      </trkpt>
      <trkpt lat="44.831" lon="6.28595">
        <ele>1466.2</ele>
        <time>2024-08-13T06:29:58Z</time>
      </trkpt>
      <trkpt lat="44.831" lon="6.28595">
        <ele>1465.6</ele>
        <time>2024-08-13T06:29:59Z</time>
      </trkpt>
      <trkpt lat="44.83101" lon="6.28591">
        <ele>1465.4</ele>
        <time>2024-08-13T06:30:00Z</time>
      </trkpt>
      <trkpt lat="44.83101" lon="6.28591">
        <ele>1465.4</ele>
        <time>2024-08-13T06:30:01Z</time>
      </trkpt>
      <trkpt lat="44.83102" lon="6.28588">
        <ele>1465</ele>
        <time>2024-08-13T06:30:02Z</time>
      </trkpt>
      <trkpt lat="44.83102" lon="6.28588">
        <ele>1465</ele>
        <time>2024-08-13T06:30:03Z</time>
      </trkpt>
      <trkpt lat="44.83102" lon="6.28585">
        <ele>1464.6</ele>
        <time>2024-08-13T06:30:04Z</time>
      </trkpt>
      <trkpt lat="44.83102" lon="6.28585">
        <ele>1464.4</ele>
        <time>2024-08-13T06:30:05Z</time>
      </trkpt>
      <trkpt lat="44.83103" lon="6.28581">
        <ele>1464.2</ele>
        <time>2024-08-13T06:30:06Z</time>
      </trkpt>
      <trkpt lat="44.83103" lon="6.28581">
        <ele>1464</ele>
        <time>2024-08-13T06:30:07Z</time>
      </trkpt>
      <trkpt lat="44.83103" lon="6.28578">
        <ele>1463.8</ele>
        <time>2024-08-13T06:30:08Z</time>
      </trkpt>
      <trkpt lat="44.83103" lon="6.28578">
        <ele>1463.4</ele>
        <time>2024-08-13T06:30:09Z</time>
      </trkpt>
      <trkpt lat="44.83104" lon="6.28575">
        <ele>1463.4</ele>
        <time>2024-08-13T06:30:10Z</time>
      </trkpt>
      <trkpt lat="44.83104" lon="6.28575">
        <ele>1463.2</ele>
        <time>2024-08-13T06:30:11Z</time>
      </trkpt>
      <trkpt lat="44.83103" lon="6.28572">
        <ele>1463</ele>
        <time>2024-08-13T06:30:12Z</time>
      </trkpt>
      <trkpt lat="44.83103" lon="6.28572">
        <ele>1462.8</ele>
        <time>2024-08-13T06:30:13Z</time>
      </trkpt>
      <trkpt lat="44.83104" lon="6.28568">
        <ele>1462.6</ele>
        <time>2024-08-13T06:30:14Z</time>
      </trkpt>
      <trkpt lat="44.83104" lon="6.28568">
        <ele>1462.4</ele>
        <time>2024-08-13T06:30:15Z</time>
      </trkpt>
      <trkpt lat="44.83105" lon="6.28564">
        <ele>1462.4</ele>
        <time>2024-08-13T06:30:16Z</time>
      </trkpt>
      <trkpt lat="44.83105" lon="6.28564">
        <ele>1462.2</ele>
        <time>2024-08-13T06:30:17Z</time>
      </trkpt>
      <trkpt lat="44.83106" lon="6.2856">
        <ele>1462</ele>
        <time>2024-08-13T06:30:18Z</time>
      </trkpt>
      <trkpt lat="44.83106" lon="6.2856">
        <ele>1462</ele>
        <time>2024-08-13T06:30:19Z</time>
      </trkpt>
      <trkpt lat="44.83106" lon="6.28556">
        <ele>1462</ele>
        <time>2024-08-13T06:30:20Z</time>
      </trkpt>
      <trkpt lat="44.83106" lon="6.28556">
        <ele>1461.8</ele>
        <time>2024-08-13T06:30:21Z</time>
      </trkpt>
      <trkpt lat="44.83107" lon="6.28553">
        <ele>1461.6</ele>
        <time>2024-08-13T06:30:22Z</time>
      </trkpt>
      <trkpt lat="44.83107" lon="6.28553">
        <ele>1461.6</ele>
        <time>2024-08-13T06:30:23Z</time>
      </trkpt>
      <trkpt lat="44.83107" lon="6.28549">
        <ele>1461.4</ele>
        <time>2024-08-13T06:30:24Z</time>
      </trkpt>
      <trkpt lat="44.83107" lon="6.28549">
        <ele>1461.2</ele>
        <time>2024-08-13T06:30:25Z</time>
      </trkpt>
      <trkpt lat="44.83107" lon="6.28545">
        <ele>1461.2</ele>
        <time>2024-08-13T06:30:26Z</time>
      </trkpt>
      <trkpt lat="44.83107" lon="6.28545">
        <ele>1461.2</ele>
        <time>2024-08-13T06:30:27Z</time>
      </trkpt>
      <trkpt lat="44.83108" lon="6.28541">
        <ele>1461</ele>
        <time>2024-08-13T06:30:28Z</time>
      </trkpt>
      <trkpt lat="44.83108" lon="6.28541">
        <ele>1461</ele>
        <time>2024-08-13T06:30:29Z</time>
      </trkpt>
      <trkpt lat="44.83108" lon="6.28537">
        <ele>1460.8</ele>
        <time>2024-08-13T06:30:30Z</time>
      </trkpt>
      <trkpt lat="44.83108" lon="6.28537">
        <ele>1460.8</ele>
        <time>2024-08-13T06:30:31Z</time>
      </trkpt>
      <trkpt lat="44.83109" lon="6.28533">
        <ele>1460.6</ele>
        <time>2024-08-13T06:30:32Z</time>
      </trkpt>
      <trkpt lat="44.83109" lon="6.28533">
        <ele>1460.6</ele>
        <time>2024-08-13T06:30:33Z</time>
      </trkpt>
      <trkpt lat="44.83109" lon="6.2853">
        <ele>1460.4</ele>
        <time>2024-08-13T06:30:34Z</time>
      </trkpt>
      <trkpt lat="44.83109" lon="6.2853">
        <ele>1460.4</ele>
        <time>2024-08-13T06:30:35Z</time>
      </trkpt>
      <trkpt lat="44.8311" lon="6.28526">
        <ele>1460.2</ele>
        <time>2024-08-13T06:30:36Z</time>
      </trkpt>
      <trkpt lat="44.8311" lon="6.28526">
        <ele>1460.2</ele>
        <time>2024-08-13T06:30:37Z</time>
      </trkpt>
      <trkpt lat="44.83111" lon="6.28523">
        <ele>1460.2</ele>
        <time>2024-08-13T06:30:38Z</time>
      </trkpt>
      <trkpt lat="44.83111" lon="6.28523">
        <ele>1460.2</ele>
        <time>2024-08-13T06:30:39Z</time>
      </trkpt>
      <trkpt lat="44.83113" lon="6.28521">
        <ele>1460.2</ele>
        <time>2024-08-13T06:30:40Z</time>
      </trkpt>
      <trkpt lat="44.83113" lon="6.28521">
        <ele>1460</ele>
        <time>2024-08-13T06:30:41Z</time>
      </trkpt>
      <trkpt lat="44.83114" lon="6.28518">
        <ele>1459.8</ele>
        <time>2024-08-13T06:30:42Z</time>
      </trkpt>
      <trkpt lat="44.83114" lon="6.28518">
        <ele>1459.4</ele>
        <time>2024-08-13T06:30:43Z</time>
      </trkpt>
      <trkpt lat="44.83116" lon="6.28515">
        <ele>1459.4</ele>
        <time>2024-08-13T06:30:44Z</time>
      </trkpt>
      <trkpt lat="44.83116" lon="6.28515">
        <ele>1459.2</ele>
        <time>2024-08-13T06:30:45Z</time>
      </trkpt>
      <trkpt lat="44.83117" lon="6.28512">
        <ele>1459.2</ele>
        <time>2024-08-13T06:30:46Z</time>
      </trkpt>
      <trkpt lat="44.83117" lon="6.28512">
        <ele>1459</ele>
        <time>2024-08-13T06:30:47Z</time>
      </trkpt>
      <trkpt lat="44.83118" lon="6.28509">
        <ele>1459</ele>
        <time>2024-08-13T06:30:48Z</time>
      </trkpt>
      <trkpt lat="44.83118" lon="6.28509">
        <ele>1458.8</ele>
        <time>2024-08-13T06:30:49Z</time>
      </trkpt>
      <trkpt lat="44.83119" lon="6.28507">
        <ele>1458.6</ele>
        <time>2024-08-13T06:30:50Z</time>
      </trkpt>
      <trkpt lat="44.83119" lon="6.28507">
        <ele>1458.4</ele>
        <time>2024-08-13T06:30:51Z</time>
      </trkpt>
      <trkpt lat="44.83121" lon="6.28505">
        <ele>1458</ele>
        <time>2024-08-13T06:30:52Z</time>
      </trkpt>
      <trkpt lat="44.83121" lon="6.28505">
        <ele>1458</ele>
        <time>2024-08-13T06:30:53Z</time>
      </trkpt>
      <trkpt lat="44.83122" lon="6.28502">
        <ele>1457.8</ele>
        <time>2024-08-13T06:30:54Z</time>
      </trkpt>
      <trkpt lat="44.83122" lon="6.28502">
        <ele>1457.6</ele>
        <time>2024-08-13T06:30:55Z</time>
      </trkpt>
      <trkpt lat="44.83123" lon="6.28499">
        <ele>1457.4</ele>
        <time>2024-08-13T06:30:56Z</time>
      </trkpt>
      <trkpt lat="44.83123" lon="6.28499">
        <ele>1457.2</ele>
        <time>2024-08-13T06:30:57Z</time>
      </trkpt>
      <trkpt lat="44.83124" lon="6.28497">
        <ele>1457</ele>
        <time>2024-08-13T06:30:58Z</time>
      </trkpt>
      <trkpt lat="44.83124" lon="6.28497">
        <ele>1456.8</ele>
        <time>2024-08-13T06:30:59Z</time>
      </trkpt>
      <trkpt lat="44.83124" lon="6.28497">
        <ele>1456.6</ele>
        <time>2024-08-13T06:31:00Z</time>
      </trkpt>
      <trkpt lat="44.83125" lon="6.28494">
        <ele>1456.4</ele>
        <time>2024-08-13T06:31:01Z</time>
      </trkpt>
      <trkpt lat="44.83125" lon="6.28494">
        <ele>1456.2</ele>
        <time>2024-08-13T06:31:02Z</time>
      </trkpt>
      <trkpt lat="44.83126" lon="6.2849">
        <ele>1456.2</ele>
        <time>2024-08-13T06:31:03Z</time>
      </trkpt>
      <trkpt lat="44.83126" lon="6.2849">
        <ele>1456</ele>
        <time>2024-08-13T06:31:04Z</time>
      </trkpt>
      <trkpt lat="44.83127" lon="6.28487">
        <ele>1455.8</ele>
        <time>2024-08-13T06:31:05Z</time>
      </trkpt>
      <trkpt lat="44.83127" lon="6.28487">
        <ele>1455.4</ele>
        <time>2024-08-13T06:31:06Z</time>
      </trkpt>
      <trkpt lat="44.83128" lon="6.28484">
        <ele>1455.4</ele>
        <time>2024-08-13T06:31:07Z</time>
      </trkpt>
      <trkpt lat="44.83128" lon="6.28484">
        <ele>1455.2</ele>
        <time>2024-08-13T06:31:08Z</time>
      </trkpt>
      <trkpt lat="44.8313" lon="6.28483">
        <ele>1455.2</ele>
        <time>2024-08-13T06:31:09Z</time>
      </trkpt>
      <trkpt lat="44.8313" lon="6.28483">
        <ele>1455</ele>
        <time>2024-08-13T06:31:10Z</time>
      </trkpt>
      <trkpt lat="44.83132" lon="6.28481">
        <ele>1454.8</ele>
        <time>2024-08-13T06:31:11Z</time>
      </trkpt>
      <trkpt lat="44.83132" lon="6.28481">
        <ele>1454.6</ele>
        <time>2024-08-13T06:31:12Z</time>
      </trkpt>
      <trkpt lat="44.83134" lon="6.2848">
        <ele>1454.4</ele>
        <time>2024-08-13T06:31:13Z</time>
      </trkpt>
      <trkpt lat="44.83134" lon="6.2848">
        <ele>1454.2</ele>
        <time>2024-08-13T06:31:14Z</time>
      </trkpt>
      <trkpt lat="44.83137" lon="6.2848">
        <ele>1454.2</ele>
        <time>2024-08-13T06:31:15Z</time>
      </trkpt>
      <trkpt lat="44.83137" lon="6.2848">
        <ele>1453.8</ele>
        <time>2024-08-13T06:31:16Z</time>
      </trkpt>
      <trkpt lat="44.83139" lon="6.28478">
        <ele>1453.6</ele>
        <time>2024-08-13T06:31:17Z</time>
      </trkpt>
      <trkpt lat="44.83139" lon="6.28478">
        <ele>1453.6</ele>
        <time>2024-08-13T06:31:18Z</time>
      </trkpt>
      <trkpt lat="44.8314" lon="6.28475">
        <ele>1453.6</ele>
        <time>2024-08-13T06:31:19Z</time>
      </trkpt>
      <trkpt lat="44.8314" lon="6.28475">
        <ele>1453.6</ele>
        <time>2024-08-13T06:31:20Z</time>
      </trkpt>
      <trkpt lat="44.8314" lon="6.28471">
        <ele>1453.4</ele>
        <time>2024-08-13T06:31:21Z</time>
      </trkpt>
      <trkpt lat="44.8314" lon="6.28471">
        <ele>1453.4</ele>
        <time>2024-08-13T06:31:22Z</time>
      </trkpt>
      <trkpt lat="44.8314" lon="6.28468">
        <ele>1453.2</ele>
        <time>2024-08-13T06:31:23Z</time>
      </trkpt>
      <trkpt lat="44.8314" lon="6.28468">
        <ele>1453</ele>
        <time>2024-08-13T06:31:24Z</time>
      </trkpt>
      <trkpt lat="44.83141" lon="6.28464">
        <ele>1452.8</ele>
        <time>2024-08-13T06:31:25Z</time>
      </trkpt>
      <trkpt lat="44.83141" lon="6.28464">
        <ele>1452.8</ele>
        <time>2024-08-13T06:31:26Z</time>
      </trkpt>
      <trkpt lat="44.83143" lon="6.28462">
        <ele>1452.8</ele>
        <time>2024-08-13T06:31:27Z</time>
      </trkpt>
      <trkpt lat="44.83143" lon="6.28462">
        <ele>1452.4</ele>
        <time>2024-08-13T06:31:28Z</time>
      </trkpt>
      <trkpt lat="44.83144" lon="6.2846">
        <ele>1452.2</ele>
        <time>2024-08-13T06:31:29Z</time>
      </trkpt>
      <trkpt lat="44.83144" lon="6.2846">
        <ele>1452</ele>
        <time>2024-08-13T06:31:30Z</time>
      </trkpt>
      <trkpt lat="44.83146" lon="6.28458">
        <ele>1452</ele>
        <time>2024-08-13T06:31:31Z</time>
      </trkpt>
      <trkpt lat="44.83146" lon="6.28458">
        <ele>1452</ele>
        <time>2024-08-13T06:31:32Z</time>
      </trkpt>
      <trkpt lat="44.83147" lon="6.28455">
        <ele>1451.6</ele>
        <time>2024-08-13T06:31:33Z</time>
      </trkpt>
      <trkpt lat="44.83147" lon="6.28455">
        <ele>1451.4</ele>
        <time>2024-08-13T06:31:34Z</time>
      </trkpt>
      <trkpt lat="44.83149" lon="6.28452">
        <ele>1450.8</ele>
        <time>2024-08-13T06:31:35Z</time>
      </trkpt>
      <trkpt lat="44.83149" lon="6.28452">
        <ele>1450.8</ele>
        <time>2024-08-13T06:31:36Z</time>
      </trkpt>
      <trkpt lat="44.8315" lon="6.28449">
        <ele>1450.8</ele>
        <time>2024-08-13T06:31:37Z</time>
      </trkpt>
      <trkpt lat="44.8315" lon="6.28449">
        <ele>1450.6</ele>
        <time>2024-08-13T06:31:38Z</time>
      </trkpt>
      <trkpt lat="44.8315" lon="6.28446">
        <ele>1450.4</ele>
        <time>2024-08-13T06:31:39Z</time>
      </trkpt>
      <trkpt lat="44.8315" lon="6.28446">
        <ele>1450.2</ele>
        <time>2024-08-13T06:31:40Z</time>
      </trkpt>
      <trkpt lat="44.8315" lon="6.28443">
        <ele>1450</ele>
        <time>2024-08-13T06:31:41Z</time>
      </trkpt>
      <trkpt lat="44.8315" lon="6.28443">
        <ele>1450</ele>
        <time>2024-08-13T06:31:42Z</time>
      </trkpt>
      <trkpt lat="44.8315" lon="6.28439">
        <ele>1450</ele>
        <time>2024-08-13T06:31:43Z</time>
      </trkpt>
      <trkpt lat="44.8315" lon="6.28439">
        <ele>1450</ele>
        <time>2024-08-13T06:31:44Z</time>
      </trkpt>
      <trkpt lat="44.83152" lon="6.28436">
        <ele>1449.6</ele>
        <time>2024-08-13T06:31:45Z</time>
      </trkpt>
      <trkpt lat="44.83152" lon="6.28436">
        <ele>1449.6</ele>
        <time>2024-08-13T06:31:46Z</time>
      </trkpt>
      <trkpt lat="44.83153" lon="6.28433">
        <ele>1449.4</ele>
        <time>2024-08-13T06:31:47Z</time>
      </trkpt>
      <trkpt lat="44.83153" lon="6.28433">
        <ele>1449.2</ele>
        <time>2024-08-13T06:31:48Z</time>
      </trkpt>
      <trkpt lat="44.83155" lon="6.2843">
        <ele>1449.2</ele>
        <time>2024-08-13T06:31:49Z</time>
      </trkpt>
      <trkpt lat="44.83155" lon="6.2843">
        <ele>1449</ele>
        <time>2024-08-13T06:31:50Z</time>
      </trkpt>
      <trkpt lat="44.83157" lon="6.28428">
        <ele>1448.8</ele>
        <time>2024-08-13T06:31:51Z</time>
      </trkpt>
      <trkpt lat="44.83157" lon="6.28428">
        <ele>1448.6</ele>
        <time>2024-08-13T06:31:52Z</time>
      </trkpt>
      <trkpt lat="44.83157" lon="6.28425">
        <ele>1448.6</ele>
        <time>2024-08-13T06:31:53Z</time>
      </trkpt>
      <trkpt lat="44.83157" lon="6.28425">
        <ele>1448.4</ele>
        <time>2024-08-13T06:31:54Z</time>
      </trkpt>
      <trkpt lat="44.83158" lon="6.28421">
        <ele>1448.2</ele>
        <time>2024-08-13T06:31:55Z</time>
      </trkpt>
      <trkpt lat="44.83158" lon="6.28421">
        <ele>1448.2</ele>
        <time>2024-08-13T06:31:56Z</time>
      </trkpt>
      <trkpt lat="44.83161" lon="6.28419">
        <ele>1448.4</ele>
        <time>2024-08-13T06:31:57Z</time>
      </trkpt>
      <trkpt lat="44.83161" lon="6.28419">
        <ele>1448.4</ele>
        <time>2024-08-13T06:31:58Z</time>
      </trkpt>
      <trkpt lat="44.83164" lon="6.28418">
        <ele>1448.2</ele>
        <time>2024-08-13T06:31:59Z</time>
      </trkpt>
      <trkpt lat="44.83164" lon="6.28418">
        <ele>1447.8</ele>
        <time>2024-08-13T06:32:00Z</time>
      </trkpt>
      <trkpt lat="44.83164" lon="6.28418">
        <ele>1447.6</ele>
        <time>2024-08-13T06:32:01Z</time>
      </trkpt>
      <trkpt lat="44.83165" lon="6.28415">
        <ele>1447.2</ele>
        <time>2024-08-13T06:32:02Z</time>
      </trkpt>
      <trkpt lat="44.83165" lon="6.28415">
        <ele>1447.2</ele>
        <time>2024-08-13T06:32:03Z</time>
      </trkpt>
      <trkpt lat="44.83167" lon="6.28413">
        <ele>1447</ele>
        <time>2024-08-13T06:32:04Z</time>
      </trkpt>
      <trkpt lat="44.83167" lon="6.28413">
        <ele>1447</ele>
        <time>2024-08-13T06:32:05Z</time>
      </trkpt>
      <trkpt lat="44.83167" lon="6.28413">
        <ele>1446.6</ele>
        <time>2024-08-13T06:32:06Z</time>
      </trkpt>
      <trkpt lat="44.83169" lon="6.2841">
        <ele>1446.6</ele>
        <time>2024-08-13T06:32:07Z</time>
      </trkpt>
      <trkpt lat="44.83169" lon="6.2841">
        <ele>1446.2</ele>
        <time>2024-08-13T06:32:08Z</time>
      </trkpt>
      <trkpt lat="44.83169" lon="6.2841">
        <ele>1446.2</ele>
        <time>2024-08-13T06:32:09Z</time>
      </trkpt>
      <trkpt lat="44.83172" lon="6.28408">
        <ele>1446</ele>
        <time>2024-08-13T06:32:10Z</time>
      </trkpt>
      <trkpt lat="44.83172" lon="6.28408">
        <ele>1445.6</ele>
        <time>2024-08-13T06:32:11Z</time>
      </trkpt>
      <trkpt lat="44.83172" lon="6.28408">
        <ele>1445.4</ele>
        <time>2024-08-13T06:32:12Z</time>
      </trkpt>
      <trkpt lat="44.83171" lon="6.28404">
        <ele>1445.4</ele>
        <time>2024-08-13T06:32:13Z</time>
      </trkpt>
      <trkpt lat="44.83171" lon="6.28404">
        <ele>1445.4</ele>
        <time>2024-08-13T06:32:14Z</time>
      </trkpt>
      <trkpt lat="44.8317" lon="6.284">
        <ele>1445.4</ele>
        <time>2024-08-13T06:32:15Z</time>
      </trkpt>
      <trkpt lat="44.8317" lon="6.284">
        <ele>1445</ele>
        <time>2024-08-13T06:32:16Z</time>
      </trkpt>
      <trkpt lat="44.8317" lon="6.28397">
        <ele>1444.8</ele>
        <time>2024-08-13T06:32:17Z</time>
      </trkpt>
      <trkpt lat="44.8317" lon="6.28397">
        <ele>1444.6</ele>
        <time>2024-08-13T06:32:18Z</time>
      </trkpt>
      <trkpt lat="44.8317" lon="6.28395">
        <ele>1444.2</ele>
        <time>2024-08-13T06:32:19Z</time>
      </trkpt>
      <trkpt lat="44.8317" lon="6.28395">
        <ele>1444</ele>
        <time>2024-08-13T06:32:20Z</time>
      </trkpt>
      <trkpt lat="44.8317" lon="6.28392">
        <ele>1444</ele>
        <time>2024-08-13T06:32:21Z</time>
      </trkpt>
      <trkpt lat="44.8317" lon="6.28392">
        <ele>1443.8</ele>
        <time>2024-08-13T06:32:22Z</time>
      </trkpt>
      <trkpt lat="44.83171" lon="6.28389">
        <ele>1443.6</ele>
        <time>2024-08-13T06:32:23Z</time>
      </trkpt>
      <trkpt lat="44.83171" lon="6.28389">
        <ele>1443.4</ele>
        <time>2024-08-13T06:32:24Z</time>
      </trkpt>
      <trkpt lat="44.83171" lon="6.28389">
        <ele>1443.2</ele>
        <time>2024-08-13T06:32:25Z</time>
      </trkpt>
      <trkpt lat="44.83172" lon="6.28386">
        <ele>1442.8</ele>
        <time>2024-08-13T06:32:26Z</time>
      </trkpt>
      <trkpt lat="44.83172" lon="6.28386">
        <ele>1442.8</ele>
        <time>2024-08-13T06:32:27Z</time>
      </trkpt>
      <trkpt lat="44.83172" lon="6.28386">
        <ele>1442.8</ele>
        <time>2024-08-13T06:32:28Z</time>
      </trkpt>
      <trkpt lat="44.83172" lon="6.28386">
        <ele>1442.4</ele>
        <time>2024-08-13T06:32:29Z</time>
      </trkpt>
      <trkpt lat="44.83172" lon="6.28386">
        <ele>1442</ele>
        <time>2024-08-13T06:32:30Z</time>
      </trkpt>
      <trkpt lat="44.83171" lon="6.28384">
        <ele>1441.8</ele>
        <time>2024-08-13T06:32:31Z</time>
      </trkpt>
      <trkpt lat="44.83171" lon="6.28384">
        <ele>1441.6</ele>
        <time>2024-08-13T06:32:32Z</time>
      </trkpt>
      <trkpt lat="44.83169" lon="6.28382">
        <ele>1441.6</ele>
        <time>2024-08-13T06:32:33Z</time>
      </trkpt>
      <trkpt lat="44.83169" lon="6.28382">
        <ele>1441.6</ele>
        <time>2024-08-13T06:32:34Z</time>
      </trkpt>
      <trkpt lat="44.83166" lon="6.2838">
        <ele>1441.4</ele>
        <time>2024-08-13T06:32:35Z</time>
      </trkpt>
      <trkpt lat="44.83166" lon="6.2838">
        <ele>1441.4</ele>
        <time>2024-08-13T06:32:36Z</time>
      </trkpt>
      <trkpt lat="44.83165" lon="6.28378">
        <ele>1441.2</ele>
        <time>2024-08-13T06:32:37Z</time>
      </trkpt>
      <trkpt lat="44.83165" lon="6.28378">
        <ele>1440.8</ele>
        <time>2024-08-13T06:32:38Z</time>
      </trkpt>
      <trkpt lat="44.83164" lon="6.28375">
        <ele>1440.8</ele>
        <time>2024-08-13T06:32:39Z</time>
      </trkpt>
      <trkpt lat="44.83164" lon="6.28375">
        <ele>1440.8</ele>
        <time>2024-08-13T06:32:40Z</time>
      </trkpt>
      <trkpt lat="44.83164" lon="6.28375">
        <ele>1440.8</ele>
        <time>2024-08-13T06:32:41Z</time>
      </trkpt>
      <trkpt lat="44.83164" lon="6.28375">
        <ele>1440.6</ele>
        <time>2024-08-13T06:32:42Z</time>
      </trkpt>
      <trkpt lat="44.83164" lon="6.28375">
        <ele>1440.6</ele>
        <time>2024-08-13T06:32:43Z</time>
      </trkpt>
      <trkpt lat="44.83164" lon="6.28375">
        <ele>1441</ele>
        <time>2024-08-13T06:32:44Z</time>
      </trkpt>
      <trkpt lat="44.83164" lon="6.28375">
        <ele>1441.2</ele>
        <time>2024-08-13T06:32:45Z</time>
      </trkpt>
      <trkpt lat="44.83164" lon="6.28375">
        <ele>1440.8</ele>
        <time>2024-08-13T06:32:46Z</time>
      </trkpt>
      <trkpt lat="44.83164" lon="6.28375">
        <ele>1440.8</ele>
        <time>2024-08-13T06:32:47Z</time>
      </trkpt>
      <trkpt lat="44.83164" lon="6.28375">
        <ele>1440.8</ele>
        <time>2024-08-13T06:32:48Z</time>
      </trkpt>
      <trkpt lat="44.83164" lon="6.28375">
        <ele>1440.8</ele>
        <time>2024-08-13T06:32:49Z</time>
      </trkpt>
      <trkpt lat="44.83164" lon="6.28375">
        <ele>1440.8</ele>
        <time>2024-08-13T06:32:50Z</time>
      </trkpt>
      <trkpt lat="44.83164" lon="6.28375">
        <ele>1440.8</ele>
        <time>2024-08-13T06:32:51Z</time>
      </trkpt>
      <trkpt lat="44.83164" lon="6.28375">
        <ele>1440.8</ele>
        <time>2024-08-13T06:32:52Z</time>
      </trkpt>
      <trkpt lat="44.83164" lon="6.28375">
        <ele>1440.8</ele>
        <time>2024-08-13T06:32:53Z</time>
      </trkpt>
      <trkpt lat="44.83164" lon="6.28375">
        <ele>1440.8</ele>
        <time>2024-08-13T06:32:54Z</time>
      </trkpt>
      <trkpt lat="44.83164" lon="6.28375">
        <ele>1440.8</ele>
        <time>2024-08-13T06:32:55Z</time>
      </trkpt>
      <trkpt lat="44.83164" lon="6.28375">
        <ele>1440.8</ele>
        <time>2024-08-13T06:32:56Z</time>
      </trkpt>
      <trkpt lat="44.83164" lon="6.28375">
        <ele>1440.8</ele>
        <time>2024-08-13T06:32:57Z</time>
      </trkpt>
      <trkpt lat="44.83164" lon="6.28375">
        <ele>1440.8</ele>
        <time>2024-08-13T06:32:58Z</time>
      </trkpt>
      <trkpt lat="44.83164" lon="6.28375">
        <ele>1440.8</ele>
        <time>2024-08-13T06:32:59Z</time>
      </trkpt>
      <trkpt lat="44.83164" lon="6.28375">
        <ele>1440.8</ele>
        <time>2024-08-13T06:33:00Z</time>
      </trkpt>
      <trkpt lat="44.83164" lon="6.28375">
        <ele>1440.8</ele>
        <time>2024-08-13T06:33:01Z</time>
      </trkpt>
      <trkpt lat="44.83164" lon="6.28375">
        <ele>1440.8</ele>
        <time>2024-08-13T06:33:02Z</time>
      </trkpt>
      <trkpt lat="44.83164" lon="6.28375">
        <ele>1440.8</ele>
        <time>2024-08-13T06:33:03Z</time>
      </trkpt>
      <trkpt lat="44.83164" lon="6.28375">
        <ele>1440.8</ele>
        <time>2024-08-13T06:33:04Z</time>
      </trkpt>
      <trkpt lat="44.83164" lon="6.28375">
        <ele>1440.8</ele>
        <time>2024-08-13T06:33:05Z</time>
      </trkpt>
      <trkpt lat="44.83164" lon="6.28375">
        <ele>1440.8</ele>
        <time>2024-08-13T06:33:06Z</time>
      </trkpt>
      <trkpt lat="44.83164" lon="6.28375">
        <ele>1440.8</ele>
        <time>2024-08-13T06:33:07Z</time>
      </trkpt>
      <trkpt lat="44.83164" lon="6.28375">
        <ele>1441</ele>
        <time>2024-08-13T06:33:08Z</time>
      </trkpt>
      <trkpt lat="44.83164" lon="6.28375">
        <ele>1441.4</ele>
        <time>2024-08-13T06:33:09Z</time>
      </trkpt>
      <trkpt lat="44.83164" lon="6.28375">
        <ele>1441.4</ele>
        <time>2024-08-13T06:33:10Z</time>
      </trkpt>
      <trkpt lat="44.83164" lon="6.28373">
        <ele>1441</ele>
        <time>2024-08-13T06:33:11Z</time>
      </trkpt>
      <trkpt lat="44.83164" lon="6.28373">
        <ele>1440.8</ele>
        <time>2024-08-13T06:33:12Z</time>
      </trkpt>
      <trkpt lat="44.83164" lon="6.2837">
        <ele>1440.8</ele>
        <time>2024-08-13T06:33:13Z</time>
      </trkpt>
      <trkpt lat="44.83164" lon="6.2837">
        <ele>1440.4</ele>
        <time>2024-08-13T06:33:14Z</time>
      </trkpt>
      <trkpt lat="44.83165" lon="6.28365">
        <ele>1440.4</ele>
        <time>2024-08-13T06:33:15Z</time>
      </trkpt>
      <trkpt lat="44.83165" lon="6.28365">
        <ele>1440.2</ele>
        <time>2024-08-13T06:33:16Z</time>
      </trkpt>
      <trkpt lat="44.83167" lon="6.28363">
        <ele>1440.2</ele>
        <time>2024-08-13T06:33:17Z</time>
      </trkpt>
      <trkpt lat="44.83169" lon="6.28363">
        <ele>1440.2</ele>
        <time>2024-08-13T06:33:18Z</time>
      </trkpt>
      <trkpt lat="44.83169" lon="6.28363">
        <ele>1440</ele>
        <time>2024-08-13T06:33:19Z</time>
      </trkpt>
      <trkpt lat="44.83173" lon="6.28363">
        <ele>1439.6</ele>
        <time>2024-08-13T06:33:20Z</time>
      </trkpt>
      <trkpt lat="44.83174" lon="6.28362">
        <ele>1439.2</ele>
        <time>2024-08-13T06:33:21Z</time>
      </trkpt>
      <trkpt lat="44.83174" lon="6.28362">
        <ele>1439</ele>
        <time>2024-08-13T06:33:22Z</time>
      </trkpt>
      <trkpt lat="44.83178" lon="6.28363">
        <ele>1439</ele>
        <time>2024-08-13T06:33:23Z</time>
      </trkpt>
      <trkpt lat="44.83178" lon="6.28363">
        <ele>1438.8</ele>
        <time>2024-08-13T06:33:24Z</time>
      </trkpt>
      <trkpt lat="44.83181" lon="6.28363">
        <ele>1438.4</ele>
        <time>2024-08-13T06:33:25Z</time>
      </trkpt>
      <trkpt lat="44.83181" lon="6.28363">
        <ele>1438.4</ele>
        <time>2024-08-13T06:33:26Z</time>
      </trkpt>
      <trkpt lat="44.83185" lon="6.28362">
        <ele>1438.4</ele>
        <time>2024-08-13T06:33:27Z</time>
      </trkpt>
      <trkpt lat="44.83185" lon="6.28362">
        <ele>1438.4</ele>
        <time>2024-08-13T06:33:28Z</time>
      </trkpt>
      <trkpt lat="44.83188" lon="6.28362">
        <ele>1438.4</ele>
        <time>2024-08-13T06:33:29Z</time>
      </trkpt>
      <trkpt lat="44.8319" lon="6.28362">
        <ele>1438.2</ele>
        <time>2024-08-13T06:33:30Z</time>
      </trkpt>
      <trkpt lat="44.8319" lon="6.28362">
        <ele>1438</ele>
        <time>2024-08-13T06:33:31Z</time>
      </trkpt>
      <trkpt lat="44.83192" lon="6.28363">
        <ele>1437.8</ele>
        <time>2024-08-13T06:33:32Z</time>
      </trkpt>
      <trkpt lat="44.83192" lon="6.28363">
        <ele>1437.6</ele>
        <time>2024-08-13T06:33:33Z</time>
      </trkpt>
      <trkpt lat="44.83195" lon="6.28364">
        <ele>1437.4</ele>
        <time>2024-08-13T06:33:34Z</time>
      </trkpt>
      <trkpt lat="44.83195" lon="6.28364">
        <ele>1437.4</ele>
        <time>2024-08-13T06:33:35Z</time>
      </trkpt>
      <trkpt lat="44.83197" lon="6.28367">
        <ele>1437.4</ele>
        <time>2024-08-13T06:33:36Z</time>
      </trkpt>
      <trkpt lat="44.83197" lon="6.28367">
        <ele>1437.4</ele>
        <time>2024-08-13T06:33:37Z</time>
      </trkpt>
      <trkpt lat="44.83197" lon="6.28371">
        <ele>1437.8</ele>
        <time>2024-08-13T06:33:38Z</time>
      </trkpt>
      <trkpt lat="44.83197" lon="6.28371">
        <ele>1437.8</ele>
        <time>2024-08-13T06:33:39Z</time>
      </trkpt>
      <trkpt lat="44.83197" lon="6.28376">
        <ele>1437.4</ele>
        <time>2024-08-13T06:33:40Z</time>
      </trkpt>
      <trkpt lat="44.83197" lon="6.28376">
        <ele>1437.2</ele>
        <time>2024-08-13T06:33:41Z</time>
      </trkpt>
      <trkpt lat="44.83198" lon="6.2838">
        <ele>1437</ele>
        <time>2024-08-13T06:33:42Z</time>
      </trkpt>
      <trkpt lat="44.83198" lon="6.2838">
        <ele>1437</ele>
        <time>2024-08-13T06:33:43Z</time>
      </trkpt>
      <trkpt lat="44.83198" lon="6.28384">
        <ele>1437.2</ele>
        <time>2024-08-13T06:33:44Z</time>
      </trkpt>
      <trkpt lat="44.83198" lon="6.28384">
        <ele>1437.2</ele>
        <time>2024-08-13T06:33:45Z</time>
      </trkpt>
      <trkpt lat="44.832" lon="6.28386">
        <ele>1437.2</ele>
        <time>2024-08-13T06:33:46Z</time>
      </trkpt>
      <trkpt lat="44.832" lon="6.28386">
        <ele>1437.4</ele>
        <time>2024-08-13T06:33:47Z</time>
      </trkpt>
      <trkpt lat="44.832" lon="6.28386">
        <ele>1437.4</ele>
        <time>2024-08-13T06:33:48Z</time>
      </trkpt>
      <trkpt lat="44.83202" lon="6.28387">
        <ele>1437.4</ele>
        <time>2024-08-13T06:33:49Z</time>
      </trkpt>
      <trkpt lat="44.83202" lon="6.28387">
        <ele>1437.2</ele>
        <time>2024-08-13T06:33:50Z</time>
      </trkpt>
      <trkpt lat="44.83205" lon="6.28386">
        <ele>1437.2</ele>
        <time>2024-08-13T06:33:51Z</time>
      </trkpt>
      <trkpt lat="44.83205" lon="6.28386">
        <ele>1437.2</ele>
        <time>2024-08-13T06:33:52Z</time>
      </trkpt>
      <trkpt lat="44.83208" lon="6.28386">
        <ele>1437.4</ele>
        <time>2024-08-13T06:33:53Z</time>
      </trkpt>
      <trkpt lat="44.83208" lon="6.28386">
        <ele>1437.4</ele>
        <time>2024-08-13T06:33:54Z</time>
      </trkpt>
      <trkpt lat="44.8321" lon="6.28386">
        <ele>1437.4</ele>
        <time>2024-08-13T06:33:55Z</time>
      </trkpt>
      <trkpt lat="44.8321" lon="6.28386">
        <ele>1437.2</ele>
        <time>2024-08-13T06:33:56Z</time>
      </trkpt>
      <trkpt lat="44.83213" lon="6.28387">
        <ele>1437.2</ele>
        <time>2024-08-13T06:33:57Z</time>
      </trkpt>
      <trkpt lat="44.83213" lon="6.28387">
        <ele>1437.2</ele>
        <time>2024-08-13T06:33:58Z</time>
      </trkpt>
      <trkpt lat="44.83215" lon="6.28389">
        <ele>1437.2</ele>
        <time>2024-08-13T06:33:59Z</time>
      </trkpt>
      <trkpt lat="44.83215" lon="6.28389">
        <ele>1437.4</ele>
        <time>2024-08-13T06:34:00Z</time>
      </trkpt>
      <trkpt lat="44.83215" lon="6.28389">
        <ele>1437.4</ele>
        <time>2024-08-13T06:34:01Z</time>
      </trkpt>
      <trkpt lat="44.83215" lon="6.28389">
        <ele>1438</ele>
        <time>2024-08-13T06:34:02Z</time>
      </trkpt>
      <trkpt lat="44.83215" lon="6.28389">
        <ele>1438</ele>
        <time>2024-08-13T06:34:03Z</time>
      </trkpt>
      <trkpt lat="44.83216" lon="6.28386">
        <ele>1438.2</ele>
        <time>2024-08-13T06:34:04Z</time>
      </trkpt>
      <trkpt lat="44.83216" lon="6.28386">
        <ele>1438.2</ele>
        <time>2024-08-13T06:34:05Z</time>
      </trkpt>
      <trkpt lat="44.83215" lon="6.28382">
        <ele>1438.2</ele>
        <time>2024-08-13T06:34:06Z</time>
      </trkpt>
      <trkpt lat="44.83215" lon="6.28382">
        <ele>1437.8</ele>
        <time>2024-08-13T06:34:07Z</time>
      </trkpt>
      <trkpt lat="44.83215" lon="6.28382">
        <ele>1437.6</ele>
        <time>2024-08-13T06:34:08Z</time>
      </trkpt>
      <trkpt lat="44.83216" lon="6.28379">
        <ele>1437.4</ele>
        <time>2024-08-13T06:34:09Z</time>
      </trkpt>
      <trkpt lat="44.83216" lon="6.28379">
        <ele>1437</ele>
        <time>2024-08-13T06:34:10Z</time>
      </trkpt>
      <trkpt lat="44.83216" lon="6.28375">
        <ele>1436.8</ele>
        <time>2024-08-13T06:34:11Z</time>
      </trkpt>
      <trkpt lat="44.83216" lon="6.28375">
        <ele>1436.6</ele>
        <time>2024-08-13T06:34:12Z</time>
      </trkpt>
      <trkpt lat="44.83217" lon="6.28372">
        <ele>1436.2</ele>
        <time>2024-08-13T06:34:13Z</time>
      </trkpt>
      <trkpt lat="44.83217" lon="6.28372">
        <ele>1436</ele>
        <time>2024-08-13T06:34:14Z</time>
      </trkpt>
      <trkpt lat="44.83218" lon="6.28369">
        <ele>1436</ele>
        <time>2024-08-13T06:34:15Z</time>
      </trkpt>
      <trkpt lat="44.83218" lon="6.28369">
        <ele>1436.2</ele>
        <time>2024-08-13T06:34:16Z</time>
      </trkpt>
      <trkpt lat="44.83218" lon="6.28367">
        <ele>1436.2</ele>
        <time>2024-08-13T06:34:17Z</time>
      </trkpt>
      <trkpt lat="44.83218" lon="6.28367">
        <ele>1436.6</ele>
        <time>2024-08-13T06:34:18Z</time>
      </trkpt>
      <trkpt lat="44.83218" lon="6.28363">
        <ele>1436.4</ele>
        <time>2024-08-13T06:34:19Z</time>
      </trkpt>
      <trkpt lat="44.83218" lon="6.28363">
        <ele>1436.4</ele>
        <time>2024-08-13T06:34:20Z</time>
      </trkpt>
      <trkpt lat="44.83217" lon="6.28359">
        <ele>1436.2</ele>
        <time>2024-08-13T06:34:21Z</time>
      </trkpt>
      <trkpt lat="44.83217" lon="6.28359">
        <ele>1436.2</ele>
        <time>2024-08-13T06:34:22Z</time>
      </trkpt>
      <trkpt lat="44.83218" lon="6.28356">
        <ele>1435.8</ele>
        <time>2024-08-13T06:34:23Z</time>
      </trkpt>
      <trkpt lat="44.83218" lon="6.28356">
        <ele>1435.8</ele>
        <time>2024-08-13T06:34:24Z</time>
      </trkpt>
      <trkpt lat="44.83218" lon="6.28352">
        <ele>1435.8</ele>
        <time>2024-08-13T06:34:25Z</time>
      </trkpt>
      <trkpt lat="44.83218" lon="6.28352">
        <ele>1436</ele>
        <time>2024-08-13T06:34:26Z</time>
      </trkpt>
      <trkpt lat="44.83218" lon="6.28348">
        <ele>1436.2</ele>
        <time>2024-08-13T06:34:27Z</time>
      </trkpt>
      <trkpt lat="44.83218" lon="6.28348">
        <ele>1436.2</ele>
        <time>2024-08-13T06:34:28Z</time>
      </trkpt>
      <trkpt lat="44.83219" lon="6.28345">
        <ele>1436</ele>
        <time>2024-08-13T06:34:29Z</time>
      </trkpt>
      <trkpt lat="44.83219" lon="6.28345">
        <ele>1436</ele>
        <time>2024-08-13T06:34:30Z</time>
      </trkpt>
      <trkpt lat="44.83219" lon="6.28345">
        <ele>1436.4</ele>
        <time>2024-08-13T06:34:31Z</time>
      </trkpt>
      <trkpt lat="44.8322" lon="6.28341">
        <ele>1436.6</ele>
        <time>2024-08-13T06:34:32Z</time>
      </trkpt>
      <trkpt lat="44.8322" lon="6.28341">
        <ele>1436.6</ele>
        <time>2024-08-13T06:34:33Z</time>
      </trkpt>
      <trkpt lat="44.8322" lon="6.28338">
        <ele>1436.6</ele>
        <time>2024-08-13T06:34:34Z</time>
      </trkpt>
      <trkpt lat="44.8322" lon="6.28338">
        <ele>1436.6</ele>
        <time>2024-08-13T06:34:35Z</time>
      </trkpt>
      <trkpt lat="44.8322" lon="6.28335">
        <ele>1436.6</ele>
        <time>2024-08-13T06:34:36Z</time>
      </trkpt>
      <trkpt lat="44.8322" lon="6.28335">
        <ele>1436.4</ele>
        <time>2024-08-13T06:34:37Z</time>
      </trkpt>
      <trkpt lat="44.8322" lon="6.28331">
        <ele>1436.4</ele>
        <time>2024-08-13T06:34:38Z</time>
      </trkpt>
      <trkpt lat="44.8322" lon="6.28331">
        <ele>1436.4</ele>
        <time>2024-08-13T06:34:39Z</time>
      </trkpt>
      <trkpt lat="44.83219" lon="6.28327">
        <ele>1436</ele>
        <time>2024-08-13T06:34:40Z</time>
      </trkpt>
      <trkpt lat="44.83219" lon="6.28327">
        <ele>1435.6</ele>
        <time>2024-08-13T06:34:41Z</time>
      </trkpt>
      <trkpt lat="44.83219" lon="6.28323">
        <ele>1435.6</ele>
        <time>2024-08-13T06:34:42Z</time>
      </trkpt>
      <trkpt lat="44.83219" lon="6.28323">
        <ele>1435.6</ele>
        <time>2024-08-13T06:34:43Z</time>
      </trkpt>
      <trkpt lat="44.83219" lon="6.28319">
        <ele>1435.4</ele>
        <time>2024-08-13T06:34:44Z</time>
      </trkpt>
      <trkpt lat="44.83219" lon="6.28319">
        <ele>1435.2</ele>
        <time>2024-08-13T06:34:45Z</time>
      </trkpt>
      <trkpt lat="44.83219" lon="6.28315">
        <ele>1435.2</ele>
        <time>2024-08-13T06:34:46Z</time>
      </trkpt>
      <trkpt lat="44.83219" lon="6.28315">
        <ele>1435</ele>
        <time>2024-08-13T06:34:47Z</time>
      </trkpt>
      <trkpt lat="44.83218" lon="6.28312">
        <ele>1435</ele>
        <time>2024-08-13T06:34:48Z</time>
      </trkpt>
      <trkpt lat="44.83218" lon="6.28312">
        <ele>1434.8</ele>
        <time>2024-08-13T06:34:49Z</time>
      </trkpt>
      <trkpt lat="44.83217" lon="6.28309">
        <ele>1434.8</ele>
        <time>2024-08-13T06:34:50Z</time>
      </trkpt>
      <trkpt lat="44.83217" lon="6.28309">
        <ele>1434.6</ele>
        <time>2024-08-13T06:34:51Z</time>
      </trkpt>
      <trkpt lat="44.83215" lon="6.28306">
        <ele>1434.6</ele>
        <time>2024-08-13T06:34:52Z</time>
      </trkpt>
      <trkpt lat="44.83215" lon="6.28306">
        <ele>1434.4</ele>
        <time>2024-08-13T06:34:53Z</time>
      </trkpt>
      <trkpt lat="44.83215" lon="6.28302">
        <ele>1434.4</ele>
        <time>2024-08-13T06:34:54Z</time>
      </trkpt>
      <trkpt lat="44.83215" lon="6.28302">
        <ele>1434.2</ele>
        <time>2024-08-13T06:34:55Z</time>
      </trkpt>
      <trkpt lat="44.83214" lon="6.28298">
        <ele>1433.8</ele>
        <time>2024-08-13T06:34:56Z</time>
      </trkpt>
      <trkpt lat="44.83214" lon="6.28298">
        <ele>1433.8</ele>
        <time>2024-08-13T06:34:57Z</time>
      </trkpt>
      <trkpt lat="44.83214" lon="6.28294">
        <ele>1434.2</ele>
        <time>2024-08-13T06:34:58Z</time>
      </trkpt>
      <trkpt lat="44.83214" lon="6.28294">
        <ele>1434.2</ele>
        <time>2024-08-13T06:34:59Z</time>
      </trkpt>
      <trkpt lat="44.83213" lon="6.28291">
        <ele>1434.2</ele>
        <time>2024-08-13T06:35:00Z</time>
      </trkpt>
      <trkpt lat="44.83213" lon="6.28291">
        <ele>1434.2</ele>
        <time>2024-08-13T06:35:01Z</time>
      </trkpt>
      <trkpt lat="44.83213" lon="6.28287">
        <ele>1434.2</ele>
        <time>2024-08-13T06:35:02Z</time>
      </trkpt>
      <trkpt lat="44.83213" lon="6.28287">
        <ele>1434.2</ele>
        <time>2024-08-13T06:35:03Z</time>
      </trkpt>
      <trkpt lat="44.83213" lon="6.28283">
        <ele>1434</ele>
        <time>2024-08-13T06:35:04Z</time>
      </trkpt>
      <trkpt lat="44.83213" lon="6.28283">
        <ele>1434</ele>
        <time>2024-08-13T06:35:05Z</time>
      </trkpt>
      <trkpt lat="44.83212" lon="6.28279">
        <ele>1434.2</ele>
        <time>2024-08-13T06:35:06Z</time>
      </trkpt>
      <trkpt lat="44.83212" lon="6.28279">
        <ele>1434.2</ele>
        <time>2024-08-13T06:35:07Z</time>
      </trkpt>
      <trkpt lat="44.83211" lon="6.28276">
        <ele>1434.2</ele>
        <time>2024-08-13T06:35:08Z</time>
      </trkpt>
      <trkpt lat="44.83211" lon="6.28276">
        <ele>1434.2</ele>
        <time>2024-08-13T06:35:09Z</time>
      </trkpt>
      <trkpt lat="44.83211" lon="6.28272">
        <ele>1434.2</ele>
        <time>2024-08-13T06:35:10Z</time>
      </trkpt>
      <trkpt lat="44.83211" lon="6.28272">
        <ele>1434.6</ele>
        <time>2024-08-13T06:35:11Z</time>
      </trkpt>
      <trkpt lat="44.8321" lon="6.28269">
        <ele>1434.6</ele>
        <time>2024-08-13T06:35:12Z</time>
      </trkpt>
      <trkpt lat="44.8321" lon="6.28269">
        <ele>1434.8</ele>
        <time>2024-08-13T06:35:13Z</time>
      </trkpt>
      <trkpt lat="44.8321" lon="6.28265">
        <ele>1434.6</ele>
        <time>2024-08-13T06:35:14Z</time>
      </trkpt>
      <trkpt lat="44.8321" lon="6.28265">
        <ele>1434.6</ele>
        <time>2024-08-13T06:35:15Z</time>
      </trkpt>
      <trkpt lat="44.8321" lon="6.28261">
        <ele>1434.6</ele>
        <time>2024-08-13T06:35:16Z</time>
      </trkpt>
      <trkpt lat="44.8321" lon="6.28261">
        <ele>1434.6</ele>
        <time>2024-08-13T06:35:17Z</time>
      </trkpt>
      <trkpt lat="44.83209" lon="6.28257">
        <ele>1434.4</ele>
        <time>2024-08-13T06:35:18Z</time>
      </trkpt>
      <trkpt lat="44.83209" lon="6.28257">
        <ele>1434.4</ele>
        <time>2024-08-13T06:35:19Z</time>
      </trkpt>
      <trkpt lat="44.83207" lon="6.28254">
        <ele>1434.4</ele>
        <time>2024-08-13T06:35:20Z</time>
      </trkpt>
      <trkpt lat="44.83207" lon="6.28254">
        <ele>1434.4</ele>
        <time>2024-08-13T06:35:21Z</time>
      </trkpt>
      <trkpt lat="44.83206" lon="6.28251">
        <ele>1434.4</ele>
        <time>2024-08-13T06:35:22Z</time>
      </trkpt>
      <trkpt lat="44.83206" lon="6.28251">
        <ele>1434.4</ele>
        <time>2024-08-13T06:35:23Z</time>
      </trkpt>
      <trkpt lat="44.83206" lon="6.28247">
        <ele>1434.4</ele>
        <time>2024-08-13T06:35:24Z</time>
      </trkpt>
      <trkpt lat="44.83206" lon="6.28247">
        <ele>1434</ele>
        <time>2024-08-13T06:35:25Z</time>
      </trkpt>
      <trkpt lat="44.83206" lon="6.28244">
        <ele>1433.6</ele>
        <time>2024-08-13T06:35:26Z</time>
      </trkpt>
      <trkpt lat="44.83206" lon="6.28244">
        <ele>1433.6</ele>
        <time>2024-08-13T06:35:27Z</time>
      </trkpt>
      <trkpt lat="44.83207" lon="6.2824">
        <ele>1433.6</ele>
        <time>2024-08-13T06:35:28Z</time>
      </trkpt>
      <trkpt lat="44.83207" lon="6.2824">
        <ele>1433.4</ele>
        <time>2024-08-13T06:35:29Z</time>
      </trkpt>
      <trkpt lat="44.83208" lon="6.28236">
        <ele>1433.2</ele>
        <time>2024-08-13T06:35:30Z</time>
      </trkpt>
      <trkpt lat="44.83208" lon="6.28236">
        <ele>1433.2</ele>
        <time>2024-08-13T06:35:31Z</time>
      </trkpt>
      <trkpt lat="44.83207" lon="6.28233">
        <ele>1433.6</ele>
        <time>2024-08-13T06:35:32Z</time>
      </trkpt>
      <trkpt lat="44.83207" lon="6.28233">
        <ele>1433.8</ele>
        <time>2024-08-13T06:35:33Z</time>
      </trkpt>
      <trkpt lat="44.83206" lon="6.28229">
        <ele>1433.8</ele>
        <time>2024-08-13T06:35:34Z</time>
      </trkpt>
      <trkpt lat="44.83206" lon="6.28229">
        <ele>1433.6</ele>
        <time>2024-08-13T06:35:35Z</time>
      </trkpt>
      <trkpt lat="44.83206" lon="6.28226">
        <ele>1433.6</ele>
        <time>2024-08-13T06:35:36Z</time>
      </trkpt>
      <trkpt lat="44.83206" lon="6.28226">
        <ele>1433.6</ele>
        <time>2024-08-13T06:35:37Z</time>
      </trkpt>
      <trkpt lat="44.83205" lon="6.28223">
        <ele>1433.6</ele>
        <time>2024-08-13T06:35:38Z</time>
      </trkpt>
      <trkpt lat="44.83205" lon="6.28223">
        <ele>1433.6</ele>
        <time>2024-08-13T06:35:39Z</time>
      </trkpt>
      <trkpt lat="44.83204" lon="6.2822">
        <ele>1433.6</ele>
        <time>2024-08-13T06:35:40Z</time>
      </trkpt>
      <trkpt lat="44.83204" lon="6.2822">
        <ele>1433.6</ele>
        <time>2024-08-13T06:35:41Z</time>
      </trkpt>
      <trkpt lat="44.83204" lon="6.28217">
        <ele>1433.4</ele>
        <time>2024-08-13T06:35:42Z</time>
      </trkpt>
      <trkpt lat="44.83204" lon="6.28217">
        <ele>1433.4</ele>
        <time>2024-08-13T06:35:43Z</time>
      </trkpt>
      <trkpt lat="44.83203" lon="6.28214">
        <ele>1433.8</ele>
        <time>2024-08-13T06:35:44Z</time>
      </trkpt>
      <trkpt lat="44.83203" lon="6.28214">
        <ele>1433.8</ele>
        <time>2024-08-13T06:35:45Z</time>
      </trkpt>
      <trkpt lat="44.83202" lon="6.28211">
        <ele>1433.6</ele>
        <time>2024-08-13T06:35:46Z</time>
      </trkpt>
      <trkpt lat="44.83202" lon="6.28211">
        <ele>1433.6</ele>
        <time>2024-08-13T06:35:47Z</time>
      </trkpt>
      <trkpt lat="44.83201" lon="6.28208">
        <ele>1433.8</ele>
        <time>2024-08-13T06:35:48Z</time>
      </trkpt>
      <trkpt lat="44.83201" lon="6.28208">
        <ele>1433.8</ele>
        <time>2024-08-13T06:35:49Z</time>
      </trkpt>
      <trkpt lat="44.83199" lon="6.28205">
        <ele>1433.8</ele>
        <time>2024-08-13T06:35:50Z</time>
      </trkpt>
      <trkpt lat="44.83199" lon="6.28205">
        <ele>1433.8</ele>
        <time>2024-08-13T06:35:51Z</time>
      </trkpt>
      <trkpt lat="44.83198" lon="6.28202">
        <ele>1433</ele>
        <time>2024-08-13T06:35:52Z</time>
      </trkpt>
      <trkpt lat="44.83198" lon="6.28202">
        <ele>1432.4</ele>
        <time>2024-08-13T06:35:53Z</time>
      </trkpt>
      <trkpt lat="44.83197" lon="6.28198">
        <ele>1432</ele>
        <time>2024-08-13T06:35:54Z</time>
      </trkpt>
      <trkpt lat="44.83197" lon="6.28198">
        <ele>1431.8</ele>
        <time>2024-08-13T06:35:55Z</time>
      </trkpt>
      <trkpt lat="44.83196" lon="6.28195">
        <ele>1431.6</ele>
        <time>2024-08-13T06:35:56Z</time>
      </trkpt>
      <trkpt lat="44.83196" lon="6.28195">
        <ele>1431.4</ele>
        <time>2024-08-13T06:35:57Z</time>
      </trkpt>
      <trkpt lat="44.83196" lon="6.28191">
        <ele>1431.2</ele>
        <time>2024-08-13T06:35:58Z</time>
      </trkpt>
      <trkpt lat="44.83196" lon="6.28191">
        <ele>1431</ele>
        <time>2024-08-13T06:35:59Z</time>
      </trkpt>
      <trkpt lat="44.83195" lon="6.28188">
        <ele>1431</ele>
        <time>2024-08-13T06:36:00Z</time>
      </trkpt>
      <trkpt lat="44.83195" lon="6.28188">
        <ele>1430.8</ele>
        <time>2024-08-13T06:36:01Z</time>
      </trkpt>
      <trkpt lat="44.83194" lon="6.28185">
        <ele>1430.8</ele>
        <time>2024-08-13T06:36:02Z</time>
      </trkpt>
      <trkpt lat="44.83194" lon="6.28185">
        <ele>1430.8</ele>
        <time>2024-08-13T06:36:03Z</time>
      </trkpt>
      <trkpt lat="44.83193" lon="6.28183">
        <ele>1430.8</ele>
        <time>2024-08-13T06:36:04Z</time>
      </trkpt>
      <trkpt lat="44.83193" lon="6.28183">
        <ele>1430.4</ele>
        <time>2024-08-13T06:36:05Z</time>
      </trkpt>
      <trkpt lat="44.83192" lon="6.2818">
        <ele>1430.2</ele>
        <time>2024-08-13T06:36:06Z</time>
      </trkpt>
      <trkpt lat="44.83192" lon="6.2818">
        <ele>1430.2</ele>
        <time>2024-08-13T06:36:07Z</time>
      </trkpt>
      <trkpt lat="44.83191" lon="6.28177">
        <ele>1430.2</ele>
        <time>2024-08-13T06:36:08Z</time>
      </trkpt>
      <trkpt lat="44.83191" lon="6.28177">
        <ele>1430.2</ele>
        <time>2024-08-13T06:36:09Z</time>
      </trkpt>
      <trkpt lat="44.8319" lon="6.28173">
        <ele>1430.2</ele>
        <time>2024-08-13T06:36:10Z</time>
      </trkpt>
      <trkpt lat="44.8319" lon="6.28173">
        <ele>1430.2</ele>
        <time>2024-08-13T06:36:11Z</time>
      </trkpt>
      <trkpt lat="44.83189" lon="6.2817">
        <ele>1430.2</ele>
        <time>2024-08-13T06:36:12Z</time>
      </trkpt>
      <trkpt lat="44.83189" lon="6.2817">
        <ele>1429.8</ele>
        <time>2024-08-13T06:36:13Z</time>
      </trkpt>
      <trkpt lat="44.83188" lon="6.28166">
        <ele>1429.8</ele>
        <time>2024-08-13T06:36:14Z</time>
      </trkpt>
      <trkpt lat="44.83188" lon="6.28166">
        <ele>1429.8</ele>
        <time>2024-08-13T06:36:15Z</time>
      </trkpt>
      <trkpt lat="44.83187" lon="6.28163">
        <ele>1429.8</ele>
        <time>2024-08-13T06:36:16Z</time>
      </trkpt>
      <trkpt lat="44.83187" lon="6.28163">
        <ele>1429.6</ele>
        <time>2024-08-13T06:36:17Z</time>
      </trkpt>
      <trkpt lat="44.83185" lon="6.28159">
        <ele>1429.6</ele>
        <time>2024-08-13T06:36:18Z</time>
      </trkpt>
      <trkpt lat="44.83185" lon="6.28159">
        <ele>1429.6</ele>
        <time>2024-08-13T06:36:19Z</time>
      </trkpt>
      <trkpt lat="44.83185" lon="6.28156">
        <ele>1429.6</ele>
        <time>2024-08-13T06:36:20Z</time>
      </trkpt>
      <trkpt lat="44.83185" lon="6.28156">
        <ele>1429.6</ele>
        <time>2024-08-13T06:36:21Z</time>
      </trkpt>
      <trkpt lat="44.83184" lon="6.28152">
        <ele>1429.4</ele>
        <time>2024-08-13T06:36:22Z</time>
      </trkpt>
      <trkpt lat="44.83184" lon="6.28152">
        <ele>1429.4</ele>
        <time>2024-08-13T06:36:23Z</time>
      </trkpt>
      <trkpt lat="44.83182" lon="6.28149">
        <ele>1429.2</ele>
        <time>2024-08-13T06:36:24Z</time>
      </trkpt>
      <trkpt lat="44.83182" lon="6.28149">
        <ele>1429.2</ele>
        <time>2024-08-13T06:36:25Z</time>
      </trkpt>
      <trkpt lat="44.83181" lon="6.28146">
        <ele>1429.2</ele>
        <time>2024-08-13T06:36:26Z</time>
      </trkpt>
      <trkpt lat="44.83181" lon="6.28146">
        <ele>1429.2</ele>
        <time>2024-08-13T06:36:27Z</time>
      </trkpt>
      <trkpt lat="44.83181" lon="6.28142">
        <ele>1429.2</ele>
        <time>2024-08-13T06:36:28Z</time>
      </trkpt>
      <trkpt lat="44.83181" lon="6.28142">
        <ele>1429.2</ele>
        <time>2024-08-13T06:36:29Z</time>
      </trkpt>
      <trkpt lat="44.8318" lon="6.28139">
        <ele>1429.2</ele>
        <time>2024-08-13T06:36:30Z</time>
      </trkpt>
      <trkpt lat="44.8318" lon="6.28139">
        <ele>1429.2</ele>
        <time>2024-08-13T06:36:31Z</time>
      </trkpt>
      <trkpt lat="44.83179" lon="6.28136">
        <ele>1429.2</ele>
        <time>2024-08-13T06:36:32Z</time>
      </trkpt>
      <trkpt lat="44.83179" lon="6.28136">
        <ele>1429.6</ele>
        <time>2024-08-13T06:36:33Z</time>
      </trkpt>
      <trkpt lat="44.83178" lon="6.28132">
        <ele>1429.8</ele>
        <time>2024-08-13T06:36:34Z</time>
      </trkpt>
      <trkpt lat="44.83178" lon="6.28132">
        <ele>1429.8</ele>
        <time>2024-08-13T06:36:35Z</time>
      </trkpt>
      <trkpt lat="44.83176" lon="6.28129">
        <ele>1429.8</ele>
        <time>2024-08-13T06:36:36Z</time>
      </trkpt>
      <trkpt lat="44.83176" lon="6.28129">
        <ele>1429.8</ele>
        <time>2024-08-13T06:36:37Z</time>
      </trkpt>
      <trkpt lat="44.83174" lon="6.28126">
        <ele>1429.6</ele>
        <time>2024-08-13T06:36:38Z</time>
      </trkpt>
      <trkpt lat="44.83174" lon="6.28126">
        <ele>1429.4</ele>
        <time>2024-08-13T06:36:39Z</time>
      </trkpt>
      <trkpt lat="44.83172" lon="6.28123">
        <ele>1429.4</ele>
        <time>2024-08-13T06:36:40Z</time>
      </trkpt>
      <trkpt lat="44.8317" lon="6.28121">
        <ele>1429.8</ele>
        <time>2024-08-13T06:36:41Z</time>
      </trkpt>
      <trkpt lat="44.8317" lon="6.28121">
        <ele>1429.8</ele>
        <time>2024-08-13T06:36:42Z</time>
      </trkpt>
      <trkpt lat="44.83168" lon="6.28118">
        <ele>1429.6</ele>
        <time>2024-08-13T06:36:43Z</time>
      </trkpt>
      <trkpt lat="44.83168" lon="6.28118">
        <ele>1429.4</ele>
        <time>2024-08-13T06:36:44Z</time>
      </trkpt>
      <trkpt lat="44.83166" lon="6.28115">
        <ele>1429.4</ele>
        <time>2024-08-13T06:36:45Z</time>
      </trkpt>
      <trkpt lat="44.83166" lon="6.28115">
        <ele>1429.4</ele>
        <time>2024-08-13T06:36:46Z</time>
      </trkpt>
      <trkpt lat="44.83164" lon="6.28113">
        <ele>1429.4</ele>
        <time>2024-08-13T06:36:47Z</time>
      </trkpt>
      <trkpt lat="44.83164" lon="6.28113">
        <ele>1429.2</ele>
        <time>2024-08-13T06:36:48Z</time>
      </trkpt>
      <trkpt lat="44.83161" lon="6.2811">
        <ele>1429</ele>
        <time>2024-08-13T06:36:49Z</time>
      </trkpt>
      <trkpt lat="44.83161" lon="6.2811">
        <ele>1428.8</ele>
        <time>2024-08-13T06:36:50Z</time>
      </trkpt>
      <trkpt lat="44.83159" lon="6.28108">
        <ele>1428.8</ele>
        <time>2024-08-13T06:36:51Z</time>
      </trkpt>
      <trkpt lat="44.83159" lon="6.28108">
        <ele>1428.6</ele>
        <time>2024-08-13T06:36:52Z</time>
      </trkpt>
      <trkpt lat="44.83156" lon="6.28106">
        <ele>1428.6</ele>
        <time>2024-08-13T06:36:53Z</time>
      </trkpt>
      <trkpt lat="44.83156" lon="6.28106">
        <ele>1428.2</ele>
        <time>2024-08-13T06:36:54Z</time>
      </trkpt>
      <trkpt lat="44.83154" lon="6.28103">
        <ele>1428.2</ele>
        <time>2024-08-13T06:36:55Z</time>
      </trkpt>
      <trkpt lat="44.83154" lon="6.28103">
        <ele>1427.8</ele>
        <time>2024-08-13T06:36:56Z</time>
      </trkpt>
      <trkpt lat="44.83152" lon="6.28099">
        <ele>1427.4</ele>
        <time>2024-08-13T06:36:57Z</time>
      </trkpt>
      <trkpt lat="44.83152" lon="6.28099">
        <ele>1427.4</ele>
        <time>2024-08-13T06:36:58Z</time>
      </trkpt>
      <trkpt lat="44.8315" lon="6.28097">
        <ele>1427.4</ele>
        <time>2024-08-13T06:36:59Z</time>
      </trkpt>
      <trkpt lat="44.8315" lon="6.28097">
        <ele>1427.6</ele>
        <time>2024-08-13T06:37:00Z</time>
      </trkpt>
      <trkpt lat="44.83149" lon="6.28093">
        <ele>1427.6</ele>
        <time>2024-08-13T06:37:01Z</time>
      </trkpt>
      <trkpt lat="44.83149" lon="6.28093">
        <ele>1427.2</ele>
        <time>2024-08-13T06:37:02Z</time>
      </trkpt>
      <trkpt lat="44.83148" lon="6.2809">
        <ele>1427.2</ele>
        <time>2024-08-13T06:37:03Z</time>
      </trkpt>
      <trkpt lat="44.83148" lon="6.2809">
        <ele>1427</ele>
        <time>2024-08-13T06:37:04Z</time>
      </trkpt>
      <trkpt lat="44.83147" lon="6.28087">
        <ele>1427</ele>
        <time>2024-08-13T06:37:05Z</time>
      </trkpt>
      <trkpt lat="44.83147" lon="6.28087">
        <ele>1427</ele>
        <time>2024-08-13T06:37:06Z</time>
      </trkpt>
      <trkpt lat="44.83146" lon="6.28085">
        <ele>1427</ele>
        <time>2024-08-13T06:37:07Z</time>
      </trkpt>
      <trkpt lat="44.83146" lon="6.28085">
        <ele>1427</ele>
        <time>2024-08-13T06:37:08Z</time>
      </trkpt>
      <trkpt lat="44.83144" lon="6.28081">
        <ele>1427.4</ele>
        <time>2024-08-13T06:37:09Z</time>
      </trkpt>
      <trkpt lat="44.83144" lon="6.28081">
        <ele>1427.4</ele>
        <time>2024-08-13T06:37:10Z</time>
      </trkpt>
      <trkpt lat="44.83142" lon="6.28078">
        <ele>1427.2</ele>
        <time>2024-08-13T06:37:11Z</time>
      </trkpt>
      <trkpt lat="44.83142" lon="6.28078">
        <ele>1427.2</ele>
        <time>2024-08-13T06:37:12Z</time>
      </trkpt>
      <trkpt lat="44.83141" lon="6.28076">
        <ele>1427.2</ele>
        <time>2024-08-13T06:37:13Z</time>
      </trkpt>
      <trkpt lat="44.83141" lon="6.28076">
        <ele>1427.2</ele>
        <time>2024-08-13T06:37:14Z</time>
      </trkpt>
      <trkpt lat="44.83139" lon="6.28073">
        <ele>1427.2</ele>
        <time>2024-08-13T06:37:15Z</time>
      </trkpt>
      <trkpt lat="44.83139" lon="6.28073">
        <ele>1427</ele>
        <time>2024-08-13T06:37:16Z</time>
      </trkpt>
      <trkpt lat="44.83136" lon="6.28071">
        <ele>1427</ele>
        <time>2024-08-13T06:37:17Z</time>
      </trkpt>
      <trkpt lat="44.83136" lon="6.28071">
        <ele>1427</ele>
        <time>2024-08-13T06:37:18Z</time>
      </trkpt>
      <trkpt lat="44.83134" lon="6.28068">
        <ele>1427</ele>
        <time>2024-08-13T06:37:19Z</time>
      </trkpt>
      <trkpt lat="44.83134" lon="6.28068">
        <ele>1427</ele>
        <time>2024-08-13T06:37:20Z</time>
      </trkpt>
      <trkpt lat="44.83132" lon="6.28065">
        <ele>1426.8</ele>
        <time>2024-08-13T06:37:21Z</time>
      </trkpt>
      <trkpt lat="44.83132" lon="6.28065">
        <ele>1426.6</ele>
        <time>2024-08-13T06:37:22Z</time>
      </trkpt>
      <trkpt lat="44.83131" lon="6.28062">
        <ele>1426.6</ele>
        <time>2024-08-13T06:37:23Z</time>
      </trkpt>
      <trkpt lat="44.83131" lon="6.28062">
        <ele>1426.4</ele>
        <time>2024-08-13T06:37:24Z</time>
      </trkpt>
      <trkpt lat="44.83128" lon="6.2806">
        <ele>1426.4</ele>
        <time>2024-08-13T06:37:25Z</time>
      </trkpt>
      <trkpt lat="44.83128" lon="6.2806">
        <ele>1426.4</ele>
        <time>2024-08-13T06:37:26Z</time>
      </trkpt>
      <trkpt lat="44.83127" lon="6.28057">
        <ele>1426.4</ele>
        <time>2024-08-13T06:37:27Z</time>
      </trkpt>
      <trkpt lat="44.83127" lon="6.28057">
        <ele>1426.2</ele>
        <time>2024-08-13T06:37:28Z</time>
      </trkpt>
      <trkpt lat="44.83125" lon="6.28054">
        <ele>1426.2</ele>
        <time>2024-08-13T06:37:29Z</time>
      </trkpt>
      <trkpt lat="44.83125" lon="6.28054">
        <ele>1426.2</ele>
        <time>2024-08-13T06:37:30Z</time>
      </trkpt>
      <trkpt lat="44.83123" lon="6.28052">
        <ele>1426.2</ele>
        <time>2024-08-13T06:37:31Z</time>
      </trkpt>
      <trkpt lat="44.83123" lon="6.28052">
        <ele>1426.2</ele>
        <time>2024-08-13T06:37:32Z</time>
      </trkpt>
      <trkpt lat="44.83121" lon="6.28049">
        <ele>1426</ele>
        <time>2024-08-13T06:37:33Z</time>
      </trkpt>
      <trkpt lat="44.83121" lon="6.28049">
        <ele>1425.8</ele>
        <time>2024-08-13T06:37:34Z</time>
      </trkpt>
      <trkpt lat="44.83119" lon="6.28046">
        <ele>1425.8</ele>
        <time>2024-08-13T06:37:35Z</time>
      </trkpt>
      <trkpt lat="44.83119" lon="6.28046">
        <ele>1425.8</ele>
        <time>2024-08-13T06:37:36Z</time>
      </trkpt>
      <trkpt lat="44.83118" lon="6.28044">
        <ele>1425.6</ele>
        <time>2024-08-13T06:37:37Z</time>
      </trkpt>
      <trkpt lat="44.83118" lon="6.28044">
        <ele>1425.6</ele>
        <time>2024-08-13T06:37:38Z</time>
      </trkpt>
      <trkpt lat="44.83116" lon="6.28043">
        <ele>1425.4</ele>
        <time>2024-08-13T06:37:39Z</time>
      </trkpt>
      <trkpt lat="44.83116" lon="6.28043">
        <ele>1425.4</ele>
        <time>2024-08-13T06:37:40Z</time>
      </trkpt>
      <trkpt lat="44.83114" lon="6.28041">
        <ele>1425.4</ele>
        <time>2024-08-13T06:37:41Z</time>
      </trkpt>
      <trkpt lat="44.83114" lon="6.28041">
        <ele>1425</ele>
        <time>2024-08-13T06:37:42Z</time>
      </trkpt>
      <trkpt lat="44.83111" lon="6.2804">
        <ele>1424.8</ele>
        <time>2024-08-13T06:37:43Z</time>
      </trkpt>
      <trkpt lat="44.83111" lon="6.2804">
        <ele>1424.4</ele>
        <time>2024-08-13T06:37:44Z</time>
      </trkpt>
      <trkpt lat="44.83109" lon="6.28038">
        <ele>1424.4</ele>
        <time>2024-08-13T06:37:45Z</time>
      </trkpt>
      <trkpt lat="44.83109" lon="6.28038">
        <ele>1424.2</ele>
        <time>2024-08-13T06:37:46Z</time>
      </trkpt>
      <trkpt lat="44.83106" lon="6.28037">
        <ele>1424.2</ele>
        <time>2024-08-13T06:37:47Z</time>
      </trkpt>
      <trkpt lat="44.83106" lon="6.28037">
        <ele>1424</ele>
        <time>2024-08-13T06:37:48Z</time>
      </trkpt>
      <trkpt lat="44.83103" lon="6.28036">
        <ele>1424</ele>
        <time>2024-08-13T06:37:49Z</time>
      </trkpt>
      <trkpt lat="44.83103" lon="6.28036">
        <ele>1424</ele>
        <time>2024-08-13T06:37:50Z</time>
      </trkpt>
      <trkpt lat="44.83101" lon="6.28033">
        <ele>1424</ele>
        <time>2024-08-13T06:37:51Z</time>
      </trkpt>
      <trkpt lat="44.83101" lon="6.28033">
        <ele>1424</ele>
        <time>2024-08-13T06:37:52Z</time>
      </trkpt>
      <trkpt lat="44.831" lon="6.28031">
        <ele>1424</ele>
        <time>2024-08-13T06:37:53Z</time>
      </trkpt>
      <trkpt lat="44.831" lon="6.28031">
        <ele>1424</ele>
        <time>2024-08-13T06:37:54Z</time>
      </trkpt>
      <trkpt lat="44.83098" lon="6.28029">
        <ele>1423.8</ele>
        <time>2024-08-13T06:37:55Z</time>
      </trkpt>
      <trkpt lat="44.83098" lon="6.28029">
        <ele>1423.8</ele>
        <time>2024-08-13T06:37:56Z</time>
      </trkpt>
      <trkpt lat="44.83096" lon="6.28026">
        <ele>1423.8</ele>
        <time>2024-08-13T06:37:57Z</time>
      </trkpt>
      <trkpt lat="44.83096" lon="6.28026">
        <ele>1423.8</ele>
        <time>2024-08-13T06:37:58Z</time>
      </trkpt>
      <trkpt lat="44.83095" lon="6.28024">
        <ele>1423.8</ele>
        <time>2024-08-13T06:37:59Z</time>
      </trkpt>
      <trkpt lat="44.83095" lon="6.28024">
        <ele>1423.8</ele>
        <time>2024-08-13T06:38:00Z</time>
      </trkpt>
      <trkpt lat="44.83095" lon="6.28024">
        <ele>1423.8</ele>
        <time>2024-08-13T06:38:01Z</time>
      </trkpt>
      <trkpt lat="44.83095" lon="6.2802">
        <ele>1423.8</ele>
        <time>2024-08-13T06:38:02Z</time>
      </trkpt>
      <trkpt lat="44.83095" lon="6.2802">
        <ele>1423.8</ele>
        <time>2024-08-13T06:38:03Z</time>
      </trkpt>
      <trkpt lat="44.83093" lon="6.2802">
        <ele>1424.2</ele>
        <time>2024-08-13T06:38:04Z</time>
      </trkpt>
      <trkpt lat="44.83093" lon="6.2802">
        <ele>1424.6</ele>
        <time>2024-08-13T06:38:05Z</time>
      </trkpt>
      <trkpt lat="44.83091" lon="6.28019">
        <ele>1424.6</ele>
        <time>2024-08-13T06:38:06Z</time>
      </trkpt>
      <trkpt lat="44.83091" lon="6.28019">
        <ele>1424.6</ele>
        <time>2024-08-13T06:38:07Z</time>
      </trkpt>
      <trkpt lat="44.83089" lon="6.28017">
        <ele>1424.6</ele>
        <time>2024-08-13T06:38:08Z</time>
      </trkpt>
      <trkpt lat="44.83089" lon="6.28017">
        <ele>1424.8</ele>
        <time>2024-08-13T06:38:09Z</time>
      </trkpt>
      <trkpt lat="44.83087" lon="6.28015">
        <ele>1424.8</ele>
        <time>2024-08-13T06:38:10Z</time>
      </trkpt>
      <trkpt lat="44.83087" lon="6.28015">
        <ele>1424.6</ele>
        <time>2024-08-13T06:38:11Z</time>
      </trkpt>
      <trkpt lat="44.83085" lon="6.28014">
        <ele>1424.6</ele>
        <time>2024-08-13T06:38:12Z</time>
      </trkpt>
      <trkpt lat="44.83085" lon="6.28014">
        <ele>1424.4</ele>
        <time>2024-08-13T06:38:13Z</time>
      </trkpt>
      <trkpt lat="44.83083" lon="6.28012">
        <ele>1424.4</ele>
        <time>2024-08-13T06:38:14Z</time>
      </trkpt>
      <trkpt lat="44.83083" lon="6.28012">
        <ele>1424.4</ele>
        <time>2024-08-13T06:38:15Z</time>
      </trkpt>
      <trkpt lat="44.83081" lon="6.28011">
        <ele>1424</ele>
        <time>2024-08-13T06:38:16Z</time>
      </trkpt>
      <trkpt lat="44.83081" lon="6.28011">
        <ele>1423.8</ele>
        <time>2024-08-13T06:38:17Z</time>
      </trkpt>
      <trkpt lat="44.83079" lon="6.28008">
        <ele>1423.8</ele>
        <time>2024-08-13T06:38:18Z</time>
      </trkpt>
      <trkpt lat="44.83079" lon="6.28008">
        <ele>1423.8</ele>
        <time>2024-08-13T06:38:19Z</time>
      </trkpt>
      <trkpt lat="44.83077" lon="6.28006">
        <ele>1423.8</ele>
        <time>2024-08-13T06:38:20Z</time>
      </trkpt>
      <trkpt lat="44.83077" lon="6.28006">
        <ele>1423.8</ele>
        <time>2024-08-13T06:38:21Z</time>
      </trkpt>
      <trkpt lat="44.83075" lon="6.28004">
        <ele>1423.8</ele>
        <time>2024-08-13T06:38:22Z</time>
      </trkpt>
      <trkpt lat="44.83075" lon="6.28004">
        <ele>1424</ele>
        <time>2024-08-13T06:38:23Z</time>
      </trkpt>
      <trkpt lat="44.83075" lon="6.28004">
        <ele>1424</ele>
        <time>2024-08-13T06:38:24Z</time>
      </trkpt>
      <trkpt lat="44.83073" lon="6.28001">
        <ele>1424</ele>
        <time>2024-08-13T06:38:25Z</time>
      </trkpt>
      <trkpt lat="44.83073" lon="6.28001">
        <ele>1424</ele>
        <time>2024-08-13T06:38:26Z</time>
      </trkpt>
      <trkpt lat="44.83071" lon="6.27999">
        <ele>1424.4</ele>
        <time>2024-08-13T06:38:27Z</time>
      </trkpt>
      <trkpt lat="44.83071" lon="6.27999">
        <ele>1424.4</ele>
        <time>2024-08-13T06:38:28Z</time>
      </trkpt>
      <trkpt lat="44.8307" lon="6.27997">
        <ele>1424.4</ele>
        <time>2024-08-13T06:38:29Z</time>
      </trkpt>
      <trkpt lat="44.8307" lon="6.27997">
        <ele>1424.4</ele>
        <time>2024-08-13T06:38:30Z</time>
      </trkpt>
      <trkpt lat="44.83068" lon="6.27996">
        <ele>1424.4</ele>
        <time>2024-08-13T06:38:31Z</time>
      </trkpt>
      <trkpt lat="44.83068" lon="6.27996">
        <ele>1424.4</ele>
        <time>2024-08-13T06:38:32Z</time>
      </trkpt>
      <trkpt lat="44.83067" lon="6.27994">
        <ele>1424</ele>
        <time>2024-08-13T06:38:33Z</time>
      </trkpt>
      <trkpt lat="44.83067" lon="6.27994">
        <ele>1424</ele>
        <time>2024-08-13T06:38:34Z</time>
      </trkpt>
      <trkpt lat="44.83067" lon="6.27994">
        <ele>1423.6</ele>
        <time>2024-08-13T06:38:35Z</time>
      </trkpt>
      <trkpt lat="44.83065" lon="6.27991">
        <ele>1423.6</ele>
        <time>2024-08-13T06:38:36Z</time>
      </trkpt>
      <trkpt lat="44.83065" lon="6.27991">
        <ele>1423.4</ele>
        <time>2024-08-13T06:38:37Z</time>
      </trkpt>
      <trkpt lat="44.83063" lon="6.27989">
        <ele>1423.4</ele>
        <time>2024-08-13T06:38:38Z</time>
      </trkpt>
      <trkpt lat="44.83063" lon="6.27989">
        <ele>1423.4</ele>
        <time>2024-08-13T06:38:39Z</time>
      </trkpt>
      <trkpt lat="44.83061" lon="6.27987">
        <ele>1423.4</ele>
        <time>2024-08-13T06:38:40Z</time>
      </trkpt>
      <trkpt lat="44.83061" lon="6.27987">
        <ele>1423.4</ele>
        <time>2024-08-13T06:38:41Z</time>
      </trkpt>
      <trkpt lat="44.83059" lon="6.27986">
        <ele>1423</ele>
        <time>2024-08-13T06:38:42Z</time>
      </trkpt>
      <trkpt lat="44.83059" lon="6.27986">
        <ele>1423</ele>
        <time>2024-08-13T06:38:43Z</time>
      </trkpt>
      <trkpt lat="44.83057" lon="6.27984">
        <ele>1423</ele>
        <time>2024-08-13T06:38:44Z</time>
      </trkpt>
      <trkpt lat="44.83057" lon="6.27984">
        <ele>1423</ele>
        <time>2024-08-13T06:38:45Z</time>
      </trkpt>
      <trkpt lat="44.83055" lon="6.27982">
        <ele>1422.8</ele>
        <time>2024-08-13T06:38:46Z</time>
      </trkpt>
      <trkpt lat="44.83055" lon="6.27982">
        <ele>1422.8</ele>
        <time>2024-08-13T06:38:47Z</time>
      </trkpt>
      <trkpt lat="44.83053" lon="6.27981">
        <ele>1422.8</ele>
        <time>2024-08-13T06:38:48Z</time>
      </trkpt>
      <trkpt lat="44.83053" lon="6.27981">
        <ele>1422.8</ele>
        <time>2024-08-13T06:38:49Z</time>
      </trkpt>
      <trkpt lat="44.8305" lon="6.2798">
        <ele>1422.8</ele>
        <time>2024-08-13T06:38:50Z</time>
      </trkpt>
      <trkpt lat="44.8305" lon="6.2798">
        <ele>1422.8</ele>
        <time>2024-08-13T06:38:51Z</time>
      </trkpt>
      <trkpt lat="44.83047" lon="6.27979">
        <ele>1423</ele>
        <time>2024-08-13T06:38:52Z</time>
      </trkpt>
      <trkpt lat="44.83047" lon="6.27979">
        <ele>1423</ele>
        <time>2024-08-13T06:38:53Z</time>
      </trkpt>
      <trkpt lat="44.83045" lon="6.27978">
        <ele>1423</ele>
        <time>2024-08-13T06:38:54Z</time>
      </trkpt>
      <trkpt lat="44.83045" lon="6.27978">
        <ele>1422.8</ele>
        <time>2024-08-13T06:38:55Z</time>
      </trkpt>
      <trkpt lat="44.83045" lon="6.27978">
        <ele>1422.8</ele>
        <time>2024-08-13T06:38:56Z</time>
      </trkpt>
      <trkpt lat="44.83043" lon="6.27976">
        <ele>1422.6</ele>
        <time>2024-08-13T06:38:57Z</time>
      </trkpt>
      <trkpt lat="44.83043" lon="6.27976">
        <ele>1422.6</ele>
        <time>2024-08-13T06:38:58Z</time>
      </trkpt>
      <trkpt lat="44.83041" lon="6.27976">
        <ele>1422.4</ele>
        <time>2024-08-13T06:38:59Z</time>
      </trkpt>
      <trkpt lat="44.83041" lon="6.27976">
        <ele>1422.6</ele>
        <time>2024-08-13T06:39:00Z</time>
      </trkpt>
      <trkpt lat="44.83038" lon="6.27975">
        <ele>1422.4</ele>
        <time>2024-08-13T06:39:01Z</time>
      </trkpt>
      <trkpt lat="44.83038" lon="6.27975">
        <ele>1422.4</ele>
        <time>2024-08-13T06:39:02Z</time>
      </trkpt>
      <trkpt lat="44.83038" lon="6.27975">
        <ele>1422.4</ele>
        <time>2024-08-13T06:39:03Z</time>
      </trkpt>
      <trkpt lat="44.83037" lon="6.27973">
        <ele>1422</ele>
        <time>2024-08-13T06:39:04Z</time>
      </trkpt>
      <trkpt lat="44.83037" lon="6.27973">
        <ele>1421.8</ele>
        <time>2024-08-13T06:39:05Z</time>
      </trkpt>
      <trkpt lat="44.83035" lon="6.27972">
        <ele>1421.8</ele>
        <time>2024-08-13T06:39:06Z</time>
      </trkpt>
      <trkpt lat="44.83035" lon="6.27972">
        <ele>1421.6</ele>
        <time>2024-08-13T06:39:07Z</time>
      </trkpt>
      <trkpt lat="44.83035" lon="6.27972">
        <ele>1421.4</ele>
        <time>2024-08-13T06:39:08Z</time>
      </trkpt>
      <trkpt lat="44.83034" lon="6.27969">
        <ele>1421.2</ele>
        <time>2024-08-13T06:39:09Z</time>
      </trkpt>
      <trkpt lat="44.83034" lon="6.27969">
        <ele>1421.2</ele>
        <time>2024-08-13T06:39:10Z</time>
      </trkpt>
      <trkpt lat="44.83033" lon="6.27966">
        <ele>1420.8</ele>
        <time>2024-08-13T06:39:11Z</time>
      </trkpt>
      <trkpt lat="44.83033" lon="6.27966">
        <ele>1420.6</ele>
        <time>2024-08-13T06:39:12Z</time>
      </trkpt>
      <trkpt lat="44.83031" lon="6.27963">
        <ele>1420.6</ele>
        <time>2024-08-13T06:39:13Z</time>
      </trkpt>
      <trkpt lat="44.83031" lon="6.27963">
        <ele>1420.4</ele>
        <time>2024-08-13T06:39:14Z</time>
      </trkpt>
      <trkpt lat="44.8303" lon="6.2796">
        <ele>1420.4</ele>
        <time>2024-08-13T06:39:15Z</time>
      </trkpt>
      <trkpt lat="44.8303" lon="6.2796">
        <ele>1420.2</ele>
        <time>2024-08-13T06:39:16Z</time>
      </trkpt>
      <trkpt lat="44.8303" lon="6.2796">
        <ele>1420.2</ele>
        <time>2024-08-13T06:39:17Z</time>
      </trkpt>
      <trkpt lat="44.83028" lon="6.27958">
        <ele>1420.2</ele>
        <time>2024-08-13T06:39:18Z</time>
      </trkpt>
      <trkpt lat="44.83028" lon="6.27958">
        <ele>1420</ele>
        <time>2024-08-13T06:39:19Z</time>
      </trkpt>
      <trkpt lat="44.83027" lon="6.27956">
        <ele>1420</ele>
        <time>2024-08-13T06:39:20Z</time>
      </trkpt>
      <trkpt lat="44.83027" lon="6.27956">
        <ele>1420</ele>
        <time>2024-08-13T06:39:21Z</time>
      </trkpt>
      <trkpt lat="44.83025" lon="6.27954">
        <ele>1420</ele>
        <time>2024-08-13T06:39:22Z</time>
      </trkpt>
      <trkpt lat="44.83025" lon="6.27954">
        <ele>1420</ele>
        <time>2024-08-13T06:39:23Z</time>
      </trkpt>
      <trkpt lat="44.83022" lon="6.27953">
        <ele>1420</ele>
        <time>2024-08-13T06:39:24Z</time>
      </trkpt>
      <trkpt lat="44.83022" lon="6.27953">
        <ele>1419.8</ele>
        <time>2024-08-13T06:39:25Z</time>
      </trkpt>
      <trkpt lat="44.83021" lon="6.2795">
        <ele>1419.8</ele>
        <time>2024-08-13T06:39:26Z</time>
      </trkpt>
      <trkpt lat="44.83021" lon="6.2795">
        <ele>1419.8</ele>
        <time>2024-08-13T06:39:27Z</time>
      </trkpt>
      <trkpt lat="44.8302" lon="6.27948">
        <ele>1419.8</ele>
        <time>2024-08-13T06:39:28Z</time>
      </trkpt>
      <trkpt lat="44.8302" lon="6.27948">
        <ele>1419.8</ele>
        <time>2024-08-13T06:39:29Z</time>
      </trkpt>
      <trkpt lat="44.83018" lon="6.27946">
        <ele>1419.8</ele>
        <time>2024-08-13T06:39:30Z</time>
      </trkpt>
      <trkpt lat="44.83018" lon="6.27946">
        <ele>1419.6</ele>
        <time>2024-08-13T06:39:31Z</time>
      </trkpt>
      <trkpt lat="44.83016" lon="6.27945">
        <ele>1419.6</ele>
        <time>2024-08-13T06:39:32Z</time>
      </trkpt>
      <trkpt lat="44.83016" lon="6.27945">
        <ele>1419.8</ele>
        <time>2024-08-13T06:39:33Z</time>
      </trkpt>
      <trkpt lat="44.83013" lon="6.27944">
        <ele>1419.8</ele>
        <time>2024-08-13T06:39:34Z</time>
      </trkpt>
      <trkpt lat="44.83013" lon="6.27944">
        <ele>1419.4</ele>
        <time>2024-08-13T06:39:35Z</time>
      </trkpt>
      <trkpt lat="44.83011" lon="6.27943">
        <ele>1419.2</ele>
        <time>2024-08-13T06:39:36Z</time>
      </trkpt>
      <trkpt lat="44.83011" lon="6.27943">
        <ele>1419.2</ele>
        <time>2024-08-13T06:39:37Z</time>
      </trkpt>
      <trkpt lat="44.83008" lon="6.27943">
        <ele>1419.2</ele>
        <time>2024-08-13T06:39:38Z</time>
      </trkpt>
      <trkpt lat="44.83008" lon="6.27943">
        <ele>1419.2</ele>
        <time>2024-08-13T06:39:39Z</time>
      </trkpt>
      <trkpt lat="44.83005" lon="6.27942">
        <ele>1419.2</ele>
        <time>2024-08-13T06:39:40Z</time>
      </trkpt>
      <trkpt lat="44.83005" lon="6.27942">
        <ele>1419.2</ele>
        <time>2024-08-13T06:39:41Z</time>
      </trkpt>
      <trkpt lat="44.83004" lon="6.27942">
        <ele>1419.2</ele>
        <time>2024-08-13T06:39:42Z</time>
      </trkpt>
      <trkpt lat="44.83004" lon="6.27942">
        <ele>1419.2</ele>
        <time>2024-08-13T06:39:43Z</time>
      </trkpt>
      <trkpt lat="44.83001" lon="6.27941">
        <ele>1419.2</ele>
        <time>2024-08-13T06:39:44Z</time>
      </trkpt>
      <trkpt lat="44.83001" lon="6.27941">
        <ele>1419</ele>
        <time>2024-08-13T06:39:45Z</time>
      </trkpt>
      <trkpt lat="44.82999" lon="6.2794">
        <ele>1419</ele>
        <time>2024-08-13T06:39:46Z</time>
      </trkpt>
      <trkpt lat="44.82999" lon="6.2794">
        <ele>1418.8</ele>
        <time>2024-08-13T06:39:47Z</time>
      </trkpt>
      <trkpt lat="44.82998" lon="6.27938">
        <ele>1418.8</ele>
        <time>2024-08-13T06:39:48Z</time>
      </trkpt>
      <trkpt lat="44.82998" lon="6.27938">
        <ele>1419</ele>
        <time>2024-08-13T06:39:49Z</time>
      </trkpt>
      <trkpt lat="44.82997" lon="6.27935">
        <ele>1419.2</ele>
        <time>2024-08-13T06:39:50Z</time>
      </trkpt>
      <trkpt lat="44.82997" lon="6.27935">
        <ele>1419.2</ele>
        <time>2024-08-13T06:39:51Z</time>
      </trkpt>
      <trkpt lat="44.82995" lon="6.27933">
        <ele>1419.6</ele>
        <time>2024-08-13T06:39:52Z</time>
      </trkpt>
      <trkpt lat="44.82995" lon="6.27933">
        <ele>1419.8</ele>
        <time>2024-08-13T06:39:53Z</time>
      </trkpt>
      <trkpt lat="44.82992" lon="6.2793">
        <ele>1420</ele>
        <time>2024-08-13T06:39:54Z</time>
      </trkpt>
      <trkpt lat="44.82992" lon="6.2793">
        <ele>1420</ele>
        <time>2024-08-13T06:39:55Z</time>
      </trkpt>
      <trkpt lat="44.82991" lon="6.27927">
        <ele>1419.8</ele>
        <time>2024-08-13T06:39:56Z</time>
      </trkpt>
      <trkpt lat="44.82991" lon="6.27927">
        <ele>1419.8</ele>
        <time>2024-08-13T06:39:57Z</time>
      </trkpt>
      <trkpt lat="44.82989" lon="6.27924">
        <ele>1420</ele>
        <time>2024-08-13T06:39:58Z</time>
      </trkpt>
      <trkpt lat="44.82989" lon="6.27924">
        <ele>1420</ele>
        <time>2024-08-13T06:39:59Z</time>
      </trkpt>
      <trkpt lat="44.82988" lon="6.27922">
        <ele>1419.6</ele>
        <time>2024-08-13T06:40:00Z</time>
      </trkpt>
      <trkpt lat="44.82988" lon="6.27922">
        <ele>1419.4</ele>
        <time>2024-08-13T06:40:01Z</time>
      </trkpt>
      <trkpt lat="44.82987" lon="6.27919">
        <ele>1419.2</ele>
        <time>2024-08-13T06:40:02Z</time>
      </trkpt>
      <trkpt lat="44.82987" lon="6.27919">
        <ele>1419.2</ele>
        <time>2024-08-13T06:40:03Z</time>
      </trkpt>
      <trkpt lat="44.82986" lon="6.27915">
        <ele>1419</ele>
        <time>2024-08-13T06:40:04Z</time>
      </trkpt>
      <trkpt lat="44.82986" lon="6.27915">
        <ele>1419</ele>
        <time>2024-08-13T06:40:05Z</time>
      </trkpt>
      <trkpt lat="44.82987" lon="6.27911">
        <ele>1418.8</ele>
        <time>2024-08-13T06:40:06Z</time>
      </trkpt>
      <trkpt lat="44.82987" lon="6.27911">
        <ele>1418.8</ele>
        <time>2024-08-13T06:40:07Z</time>
      </trkpt>
      <trkpt lat="44.82988" lon="6.27907">
        <ele>1418.4</ele>
        <time>2024-08-13T06:40:08Z</time>
      </trkpt>
      <trkpt lat="44.82988" lon="6.27907">
        <ele>1418.4</ele>
        <time>2024-08-13T06:40:09Z</time>
      </trkpt>
      <trkpt lat="44.82989" lon="6.27903">
        <ele>1418.2</ele>
        <time>2024-08-13T06:40:10Z</time>
      </trkpt>
      <trkpt lat="44.82989" lon="6.27903">
        <ele>1418.2</ele>
        <time>2024-08-13T06:40:11Z</time>
      </trkpt>
      <trkpt lat="44.8299" lon="6.27899">
        <ele>1418.2</ele>
        <time>2024-08-13T06:40:12Z</time>
      </trkpt>
      <trkpt lat="44.8299" lon="6.27899">
        <ele>1418.2</ele>
        <time>2024-08-13T06:40:13Z</time>
      </trkpt>
      <trkpt lat="44.82989" lon="6.27896">
        <ele>1418</ele>
        <time>2024-08-13T06:40:14Z</time>
      </trkpt>
      <trkpt lat="44.82989" lon="6.27896">
        <ele>1418</ele>
        <time>2024-08-13T06:40:15Z</time>
      </trkpt>
      <trkpt lat="44.82988" lon="6.27894">
        <ele>1418</ele>
        <time>2024-08-13T06:40:16Z</time>
      </trkpt>
      <trkpt lat="44.82988" lon="6.27894">
        <ele>1418</ele>
        <time>2024-08-13T06:40:17Z</time>
      </trkpt>
      <trkpt lat="44.82986" lon="6.27891">
        <ele>1417.8</ele>
        <time>2024-08-13T06:40:18Z</time>
      </trkpt>
      <trkpt lat="44.82986" lon="6.27891">
        <ele>1417.6</ele>
        <time>2024-08-13T06:40:19Z</time>
      </trkpt>
      <trkpt lat="44.82984" lon="6.27887">
        <ele>1417.4</ele>
        <time>2024-08-13T06:40:20Z</time>
      </trkpt>
      <trkpt lat="44.82984" lon="6.27887">
        <ele>1417.2</ele>
        <time>2024-08-13T06:40:21Z</time>
      </trkpt>
      <trkpt lat="44.82982" lon="6.27885">
        <ele>1417</ele>
        <time>2024-08-13T06:40:22Z</time>
      </trkpt>
      <trkpt lat="44.82982" lon="6.27885">
        <ele>1417</ele>
        <time>2024-08-13T06:40:23Z</time>
      </trkpt>
      <trkpt lat="44.8298" lon="6.27882">
        <ele>1417</ele>
        <time>2024-08-13T06:40:24Z</time>
      </trkpt>
      <trkpt lat="44.8298" lon="6.27882">
        <ele>1417</ele>
        <time>2024-08-13T06:40:25Z</time>
      </trkpt>
      <trkpt lat="44.82978" lon="6.27879">
        <ele>1417</ele>
        <time>2024-08-13T06:40:26Z</time>
      </trkpt>
      <trkpt lat="44.82978" lon="6.27879">
        <ele>1416.8</ele>
        <time>2024-08-13T06:40:27Z</time>
      </trkpt>
      <trkpt lat="44.82976" lon="6.27876">
        <ele>1416.8</ele>
        <time>2024-08-13T06:40:28Z</time>
      </trkpt>
      <trkpt lat="44.82976" lon="6.27876">
        <ele>1416.8</ele>
        <time>2024-08-13T06:40:29Z</time>
      </trkpt>
      <trkpt lat="44.82974" lon="6.27872">
        <ele>1416.8</ele>
        <time>2024-08-13T06:40:30Z</time>
      </trkpt>
      <trkpt lat="44.82974" lon="6.27872">
        <ele>1416.8</ele>
        <time>2024-08-13T06:40:31Z</time>
      </trkpt>
      <trkpt lat="44.82973" lon="6.27869">
        <ele>1416.8</ele>
        <time>2024-08-13T06:40:32Z</time>
      </trkpt>
      <trkpt lat="44.82973" lon="6.27869">
        <ele>1416.6</ele>
        <time>2024-08-13T06:40:33Z</time>
      </trkpt>
      <trkpt lat="44.82971" lon="6.27867">
        <ele>1416.4</ele>
        <time>2024-08-13T06:40:34Z</time>
      </trkpt>
      <trkpt lat="44.82971" lon="6.27867">
        <ele>1416.4</ele>
        <time>2024-08-13T06:40:35Z</time>
      </trkpt>
      <trkpt lat="44.82969" lon="6.27864">
        <ele>1416.4</ele>
        <time>2024-08-13T06:40:36Z</time>
      </trkpt>
      <trkpt lat="44.82969" lon="6.27864">
        <ele>1416.6</ele>
        <time>2024-08-13T06:40:37Z</time>
      </trkpt>
      <trkpt lat="44.82968" lon="6.27861">
        <ele>1416.6</ele>
        <time>2024-08-13T06:40:38Z</time>
      </trkpt>
      <trkpt lat="44.82968" lon="6.27861">
        <ele>1416.6</ele>
        <time>2024-08-13T06:40:39Z</time>
      </trkpt>
      <trkpt lat="44.82967" lon="6.27857">
        <ele>1416.6</ele>
        <time>2024-08-13T06:40:40Z</time>
      </trkpt>
      <trkpt lat="44.82967" lon="6.27857">
        <ele>1416.4</ele>
        <time>2024-08-13T06:40:41Z</time>
      </trkpt>
      <trkpt lat="44.82967" lon="6.27853">
        <ele>1416.4</ele>
        <time>2024-08-13T06:40:42Z</time>
      </trkpt>
      <trkpt lat="44.82967" lon="6.27853">
        <ele>1416.2</ele>
        <time>2024-08-13T06:40:43Z</time>
      </trkpt>
      <trkpt lat="44.82967" lon="6.27849">
        <ele>1416.2</ele>
        <time>2024-08-13T06:40:44Z</time>
      </trkpt>
      <trkpt lat="44.82967" lon="6.27849">
        <ele>1416.4</ele>
        <time>2024-08-13T06:40:45Z</time>
      </trkpt>
      <trkpt lat="44.82966" lon="6.27845">
        <ele>1416.4</ele>
        <time>2024-08-13T06:40:46Z</time>
      </trkpt>
      <trkpt lat="44.82966" lon="6.27845">
        <ele>1416.2</ele>
        <time>2024-08-13T06:40:47Z</time>
      </trkpt>
      <trkpt lat="44.82965" lon="6.27842">
        <ele>1416.2</ele>
        <time>2024-08-13T06:40:48Z</time>
      </trkpt>
      <trkpt lat="44.82965" lon="6.27842">
        <ele>1416.2</ele>
        <time>2024-08-13T06:40:49Z</time>
      </trkpt>
      <trkpt lat="44.82964" lon="6.27838">
        <ele>1416</ele>
        <time>2024-08-13T06:40:50Z</time>
      </trkpt>
      <trkpt lat="44.82964" lon="6.27838">
        <ele>1416</ele>
        <time>2024-08-13T06:40:51Z</time>
      </trkpt>
      <trkpt lat="44.82964" lon="6.27838">
        <ele>1416</ele>
        <time>2024-08-13T06:40:52Z</time>
      </trkpt>
      <trkpt lat="44.82963" lon="6.27835">
        <ele>1416</ele>
        <time>2024-08-13T06:40:53Z</time>
      </trkpt>
      <trkpt lat="44.82963" lon="6.27835">
        <ele>1416</ele>
        <time>2024-08-13T06:40:54Z</time>
      </trkpt>
      <trkpt lat="44.82963" lon="6.27831">
        <ele>1416</ele>
        <time>2024-08-13T06:40:55Z</time>
      </trkpt>
      <trkpt lat="44.82963" lon="6.27831">
        <ele>1416</ele>
        <time>2024-08-13T06:40:56Z</time>
      </trkpt>
      <trkpt lat="44.82963" lon="6.27828">
        <ele>1416</ele>
        <time>2024-08-13T06:40:57Z</time>
      </trkpt>
      <trkpt lat="44.82963" lon="6.27828">
        <ele>1416</ele>
        <time>2024-08-13T06:40:58Z</time>
      </trkpt>
      <trkpt lat="44.82961" lon="6.27825">
        <ele>1415.8</ele>
        <time>2024-08-13T06:40:59Z</time>
      </trkpt>
      <trkpt lat="44.82961" lon="6.27825">
        <ele>1415.6</ele>
        <time>2024-08-13T06:41:00Z</time>
      </trkpt>
      <trkpt lat="44.8296" lon="6.27822">
        <ele>1415.6</ele>
        <time>2024-08-13T06:41:01Z</time>
      </trkpt>
      <trkpt lat="44.8296" lon="6.27822">
        <ele>1415.4</ele>
        <time>2024-08-13T06:41:02Z</time>
      </trkpt>
      <trkpt lat="44.82958" lon="6.27819">
        <ele>1415.4</ele>
        <time>2024-08-13T06:41:03Z</time>
      </trkpt>
      <trkpt lat="44.82958" lon="6.27819">
        <ele>1415.4</ele>
        <time>2024-08-13T06:41:04Z</time>
      </trkpt>
      <trkpt lat="44.82957" lon="6.27816">
        <ele>1415.4</ele>
        <time>2024-08-13T06:41:05Z</time>
      </trkpt>
      <trkpt lat="44.82957" lon="6.27816">
        <ele>1415.4</ele>
        <time>2024-08-13T06:41:06Z</time>
      </trkpt>
      <trkpt lat="44.82957" lon="6.27812">
        <ele>1415.4</ele>
        <time>2024-08-13T06:41:07Z</time>
      </trkpt>
      <trkpt lat="44.82957" lon="6.27812">
        <ele>1415.4</ele>
        <time>2024-08-13T06:41:08Z</time>
      </trkpt>
      <trkpt lat="44.82957" lon="6.27808">
        <ele>1415.2</ele>
        <time>2024-08-13T06:41:09Z</time>
      </trkpt>
      <trkpt lat="44.82957" lon="6.27808">
        <ele>1415</ele>
        <time>2024-08-13T06:41:10Z</time>
      </trkpt>
      <trkpt lat="44.82958" lon="6.27804">
        <ele>1415</ele>
        <time>2024-08-13T06:41:11Z</time>
      </trkpt>
      <trkpt lat="44.82958" lon="6.27804">
        <ele>1415.2</ele>
        <time>2024-08-13T06:41:12Z</time>
      </trkpt>
      <trkpt lat="44.82958" lon="6.278">
        <ele>1415.2</ele>
        <time>2024-08-13T06:41:13Z</time>
      </trkpt>
      <trkpt lat="44.82958" lon="6.278">
        <ele>1415.2</ele>
        <time>2024-08-13T06:41:14Z</time>
      </trkpt>
      <trkpt lat="44.82957" lon="6.27797">
        <ele>1415.2</ele>
        <time>2024-08-13T06:41:15Z</time>
      </trkpt>
      <trkpt lat="44.82957" lon="6.27797">
        <ele>1415.4</ele>
        <time>2024-08-13T06:41:16Z</time>
      </trkpt>
      <trkpt lat="44.82957" lon="6.27797">
        <ele>1415.6</ele>
        <time>2024-08-13T06:41:17Z</time>
      </trkpt>
      <trkpt lat="44.82957" lon="6.27797">
        <ele>1415.6</ele>
        <time>2024-08-13T06:41:18Z</time>
      </trkpt>
      <trkpt lat="44.82956" lon="6.27794">
        <ele>1415.8</ele>
        <time>2024-08-13T06:41:19Z</time>
      </trkpt>
      <trkpt lat="44.82956" lon="6.27794">
        <ele>1416</ele>
        <time>2024-08-13T06:41:20Z</time>
      </trkpt>
      <trkpt lat="44.82956" lon="6.27794">
        <ele>1416</ele>
        <time>2024-08-13T06:41:21Z</time>
      </trkpt>
      <trkpt lat="44.82956" lon="6.27794">
        <ele>1416</ele>
        <time>2024-08-13T06:41:22Z</time>
      </trkpt>
      <trkpt lat="44.82956" lon="6.27791">
        <ele>1416</ele>
        <time>2024-08-13T06:41:23Z</time>
      </trkpt>
      <trkpt lat="44.82956" lon="6.27791">
        <ele>1416</ele>
        <time>2024-08-13T06:41:24Z</time>
      </trkpt>
      <trkpt lat="44.82956" lon="6.27791">
        <ele>1416</ele>
        <time>2024-08-13T06:41:25Z</time>
      </trkpt>
      <trkpt lat="44.82954" lon="6.27789">
        <ele>1416</ele>
        <time>2024-08-13T06:41:26Z</time>
      </trkpt>
      <trkpt lat="44.82954" lon="6.27789">
        <ele>1415.8</ele>
        <time>2024-08-13T06:41:27Z</time>
      </trkpt>
      <trkpt lat="44.82952" lon="6.27787">
        <ele>1415.4</ele>
        <time>2024-08-13T06:41:28Z</time>
      </trkpt>
      <trkpt lat="44.82952" lon="6.27787">
        <ele>1415.2</ele>
        <time>2024-08-13T06:41:29Z</time>
      </trkpt>
      <trkpt lat="44.8295" lon="6.27786">
        <ele>1415</ele>
        <time>2024-08-13T06:41:30Z</time>
      </trkpt>
      <trkpt lat="44.8295" lon="6.27786">
        <ele>1415</ele>
        <time>2024-08-13T06:41:31Z</time>
      </trkpt>
      <trkpt lat="44.82948" lon="6.27784">
        <ele>1415</ele>
        <time>2024-08-13T06:41:32Z</time>
      </trkpt>
      <trkpt lat="44.82948" lon="6.27784">
        <ele>1414.8</ele>
        <time>2024-08-13T06:41:33Z</time>
      </trkpt>
      <trkpt lat="44.82947" lon="6.27782">
        <ele>1414.8</ele>
        <time>2024-08-13T06:41:34Z</time>
      </trkpt>
      <trkpt lat="44.82947" lon="6.27782">
        <ele>1414.8</ele>
        <time>2024-08-13T06:41:35Z</time>
      </trkpt>
      <trkpt lat="44.82947" lon="6.27782">
        <ele>1414.4</ele>
        <time>2024-08-13T06:41:36Z</time>
      </trkpt>
      <trkpt lat="44.82947" lon="6.27782">
        <ele>1414.4</ele>
        <time>2024-08-13T06:41:37Z</time>
      </trkpt>
      <trkpt lat="44.82947" lon="6.27779">
        <ele>1414.2</ele>
        <time>2024-08-13T06:41:38Z</time>
      </trkpt>
      <trkpt lat="44.82947" lon="6.27779">
        <ele>1414.2</ele>
        <time>2024-08-13T06:41:39Z</time>
      </trkpt>
      <trkpt lat="44.82947" lon="6.27779">
        <ele>1414.2</ele>
        <time>2024-08-13T06:41:40Z</time>
      </trkpt>
      <trkpt lat="44.82947" lon="6.27779">
        <ele>1414.2</ele>
        <time>2024-08-13T06:41:41Z</time>
      </trkpt>
      <trkpt lat="44.82947" lon="6.27779">
        <ele>1414.2</ele>
        <time>2024-08-13T06:41:42Z</time>
      </trkpt>
      <trkpt lat="44.82947" lon="6.27776">
        <ele>1414.6</ele>
        <time>2024-08-13T06:41:43Z</time>
      </trkpt>
      <trkpt lat="44.82947" lon="6.27776">
        <ele>1414.6</ele>
        <time>2024-08-13T06:41:44Z</time>
      </trkpt>
      <trkpt lat="44.82947" lon="6.27772">
        <ele>1414.4</ele>
        <time>2024-08-13T06:41:45Z</time>
      </trkpt>
      <trkpt lat="44.82947" lon="6.27772">
        <ele>1414.4</ele>
        <time>2024-08-13T06:41:46Z</time>
      </trkpt>
      <trkpt lat="44.82946" lon="6.27768">
        <ele>1414.4</ele>
        <time>2024-08-13T06:41:47Z</time>
      </trkpt>
      <trkpt lat="44.82944" lon="6.27766">
        <ele>1414</ele>
        <time>2024-08-13T06:41:48Z</time>
      </trkpt>
      <trkpt lat="44.82944" lon="6.27766">
        <ele>1413.8</ele>
        <time>2024-08-13T06:41:49Z</time>
      </trkpt>
      <trkpt lat="44.82943" lon="6.27762">
        <ele>1413.6</ele>
        <time>2024-08-13T06:41:50Z</time>
      </trkpt>
      <trkpt lat="44.82943" lon="6.27762">
        <ele>1413.6</ele>
        <time>2024-08-13T06:41:51Z</time>
      </trkpt>
      <trkpt lat="44.82943" lon="6.27759">
        <ele>1413.6</ele>
        <time>2024-08-13T06:41:52Z</time>
      </trkpt>
      <trkpt lat="44.82943" lon="6.27759">
        <ele>1413.2</ele>
        <time>2024-08-13T06:41:53Z</time>
      </trkpt>
      <trkpt lat="44.82943" lon="6.27755">
        <ele>1413.2</ele>
        <time>2024-08-13T06:41:54Z</time>
      </trkpt>
      <trkpt lat="44.82943" lon="6.27755">
        <ele>1413.2</ele>
        <time>2024-08-13T06:41:55Z</time>
      </trkpt>
      <trkpt lat="44.82942" lon="6.27751">
        <ele>1413.2</ele>
        <time>2024-08-13T06:41:56Z</time>
      </trkpt>
      <trkpt lat="44.82942" lon="6.27751">
        <ele>1413.4</ele>
        <time>2024-08-13T06:41:57Z</time>
      </trkpt>
      <trkpt lat="44.82942" lon="6.27747">
        <ele>1413.4</ele>
        <time>2024-08-13T06:41:58Z</time>
      </trkpt>
      <trkpt lat="44.82942" lon="6.27747">
        <ele>1413.4</ele>
        <time>2024-08-13T06:41:59Z</time>
      </trkpt>
      <trkpt lat="44.82942" lon="6.27743">
        <ele>1413.4</ele>
        <time>2024-08-13T06:42:00Z</time>
      </trkpt>
      <trkpt lat="44.82942" lon="6.27743">
        <ele>1413.2</ele>
        <time>2024-08-13T06:42:01Z</time>
      </trkpt>
      <trkpt lat="44.82942" lon="6.27739">
        <ele>1413.4</ele>
        <time>2024-08-13T06:42:02Z</time>
      </trkpt>
      <trkpt lat="44.82942" lon="6.27739">
        <ele>1413.4</ele>
        <time>2024-08-13T06:42:03Z</time>
      </trkpt>
      <trkpt lat="44.82941" lon="6.27736">
        <ele>1413.4</ele>
        <time>2024-08-13T06:42:04Z</time>
      </trkpt>
      <trkpt lat="44.82941" lon="6.27736">
        <ele>1413.4</ele>
        <time>2024-08-13T06:42:05Z</time>
      </trkpt>
      <trkpt lat="44.82941" lon="6.27732">
        <ele>1413.4</ele>
        <time>2024-08-13T06:42:06Z</time>
      </trkpt>
      <trkpt lat="44.82941" lon="6.27732">
        <ele>1413.6</ele>
        <time>2024-08-13T06:42:07Z</time>
      </trkpt>
      <trkpt lat="44.82941" lon="6.27728">
        <ele>1413.6</ele>
        <time>2024-08-13T06:42:08Z</time>
      </trkpt>
      <trkpt lat="44.82941" lon="6.27728">
        <ele>1413.6</ele>
        <time>2024-08-13T06:42:09Z</time>
      </trkpt>
      <trkpt lat="44.82941" lon="6.27724">
        <ele>1413.6</ele>
        <time>2024-08-13T06:42:10Z</time>
      </trkpt>
      <trkpt lat="44.82941" lon="6.27724">
        <ele>1413.6</ele>
        <time>2024-08-13T06:42:11Z</time>
      </trkpt>
      <trkpt lat="44.82942" lon="6.2772">
        <ele>1413.6</ele>
        <time>2024-08-13T06:42:12Z</time>
      </trkpt>
      <trkpt lat="44.82942" lon="6.2772">
        <ele>1413.6</ele>
        <time>2024-08-13T06:42:13Z</time>
      </trkpt>
      <trkpt lat="44.82943" lon="6.27716">
        <ele>1413.4</ele>
        <time>2024-08-13T06:42:14Z</time>
      </trkpt>
      <trkpt lat="44.82943" lon="6.27716">
        <ele>1413.4</ele>
        <time>2024-08-13T06:42:15Z</time>
      </trkpt>
      <trkpt lat="44.82943" lon="6.27712">
        <ele>1413.6</ele>
        <time>2024-08-13T06:42:16Z</time>
      </trkpt>
      <trkpt lat="44.82943" lon="6.27712">
        <ele>1413.6</ele>
        <time>2024-08-13T06:42:17Z</time>
      </trkpt>
      <trkpt lat="44.82943" lon="6.27708">
        <ele>1414</ele>
        <time>2024-08-13T06:42:18Z</time>
      </trkpt>
      <trkpt lat="44.82943" lon="6.27708">
        <ele>1414</ele>
        <time>2024-08-13T06:42:19Z</time>
      </trkpt>
      <trkpt lat="44.82944" lon="6.27705">
        <ele>1414.2</ele>
        <time>2024-08-13T06:42:20Z</time>
      </trkpt>
      <trkpt lat="44.82944" lon="6.27705">
        <ele>1414.2</ele>
        <time>2024-08-13T06:42:21Z</time>
      </trkpt>
      <trkpt lat="44.82943" lon="6.27701">
        <ele>1414.2</ele>
        <time>2024-08-13T06:42:22Z</time>
      </trkpt>
      <trkpt lat="44.82943" lon="6.27701">
        <ele>1414.6</ele>
        <time>2024-08-13T06:42:23Z</time>
      </trkpt>
      <trkpt lat="44.82943" lon="6.27697">
        <ele>1414.6</ele>
        <time>2024-08-13T06:42:24Z</time>
      </trkpt>
      <trkpt lat="44.82943" lon="6.27697">
        <ele>1414.8</ele>
        <time>2024-08-13T06:42:25Z</time>
      </trkpt>
      <trkpt lat="44.82941" lon="6.27694">
        <ele>1415.2</ele>
        <time>2024-08-13T06:42:26Z</time>
      </trkpt>
      <trkpt lat="44.82941" lon="6.27694">
        <ele>1415.2</ele>
        <time>2024-08-13T06:42:27Z</time>
      </trkpt>
      <trkpt lat="44.82941" lon="6.2769">
        <ele>1415.2</ele>
        <time>2024-08-13T06:42:28Z</time>
      </trkpt>
      <trkpt lat="44.82941" lon="6.2769">
        <ele>1415.2</ele>
        <time>2024-08-13T06:42:29Z</time>
      </trkpt>
      <trkpt lat="44.82941" lon="6.27686">
        <ele>1415.2</ele>
        <time>2024-08-13T06:42:30Z</time>
      </trkpt>
      <trkpt lat="44.82941" lon="6.27686">
        <ele>1415</ele>
        <time>2024-08-13T06:42:31Z</time>
      </trkpt>
      <trkpt lat="44.8294" lon="6.27682">
        <ele>1415</ele>
        <time>2024-08-13T06:42:32Z</time>
      </trkpt>
      <trkpt lat="44.8294" lon="6.27682">
        <ele>1415</ele>
        <time>2024-08-13T06:42:33Z</time>
      </trkpt>
      <trkpt lat="44.8294" lon="6.27677">
        <ele>1414.8</ele>
        <time>2024-08-13T06:42:34Z</time>
      </trkpt>
      <trkpt lat="44.8294" lon="6.27677">
        <ele>1414.8</ele>
        <time>2024-08-13T06:42:35Z</time>
      </trkpt>
      <trkpt lat="44.8294" lon="6.27673">
        <ele>1414.6</ele>
        <time>2024-08-13T06:42:36Z</time>
      </trkpt>
      <trkpt lat="44.8294" lon="6.27673">
        <ele>1414.4</ele>
        <time>2024-08-13T06:42:37Z</time>
      </trkpt>
      <trkpt lat="44.8294" lon="6.2767">
        <ele>1414.4</ele>
        <time>2024-08-13T06:42:38Z</time>
      </trkpt>
      <trkpt lat="44.8294" lon="6.2767">
        <ele>1414.4</ele>
        <time>2024-08-13T06:42:39Z</time>
      </trkpt>
      <trkpt lat="44.8294" lon="6.27665">
        <ele>1414.4</ele>
        <time>2024-08-13T06:42:40Z</time>
      </trkpt>
      <trkpt lat="44.8294" lon="6.27665">
        <ele>1414.2</ele>
        <time>2024-08-13T06:42:41Z</time>
      </trkpt>
      <trkpt lat="44.8294" lon="6.27661">
        <ele>1414</ele>
        <time>2024-08-13T06:42:42Z</time>
      </trkpt>
      <trkpt lat="44.8294" lon="6.27661">
        <ele>1414</ele>
        <time>2024-08-13T06:42:43Z</time>
      </trkpt>
      <trkpt lat="44.8294" lon="6.27658">
        <ele>1414</ele>
        <time>2024-08-13T06:42:44Z</time>
      </trkpt>
      <trkpt lat="44.8294" lon="6.27658">
        <ele>1413.8</ele>
        <time>2024-08-13T06:42:45Z</time>
      </trkpt>
      <trkpt lat="44.82939" lon="6.27654">
        <ele>1413.6</ele>
        <time>2024-08-13T06:42:46Z</time>
      </trkpt>
      <trkpt lat="44.82939" lon="6.27654">
        <ele>1413.6</ele>
        <time>2024-08-13T06:42:47Z</time>
      </trkpt>
      <trkpt lat="44.82938" lon="6.27651">
        <ele>1413.6</ele>
        <time>2024-08-13T06:42:48Z</time>
      </trkpt>
      <trkpt lat="44.82938" lon="6.27651">
        <ele>1413.4</ele>
        <time>2024-08-13T06:42:49Z</time>
      </trkpt>
      <trkpt lat="44.82937" lon="6.27648">
        <ele>1413.4</ele>
        <time>2024-08-13T06:42:50Z</time>
      </trkpt>
      <trkpt lat="44.82937" lon="6.27648">
        <ele>1413.4</ele>
        <time>2024-08-13T06:42:51Z</time>
      </trkpt>
      <trkpt lat="44.82936" lon="6.27646">
        <ele>1413.2</ele>
        <time>2024-08-13T06:42:52Z</time>
      </trkpt>
      <trkpt lat="44.82936" lon="6.27646">
        <ele>1413</ele>
        <time>2024-08-13T06:42:53Z</time>
      </trkpt>
      <trkpt lat="44.82934" lon="6.27643">
        <ele>1412.6</ele>
        <time>2024-08-13T06:42:54Z</time>
      </trkpt>
      <trkpt lat="44.82934" lon="6.27643">
        <ele>1412.4</ele>
        <time>2024-08-13T06:42:55Z</time>
      </trkpt>
      <trkpt lat="44.82932" lon="6.2764">
        <ele>1412</ele>
        <time>2024-08-13T06:42:56Z</time>
      </trkpt>
      <trkpt lat="44.82932" lon="6.2764">
        <ele>1412</ele>
        <time>2024-08-13T06:42:57Z</time>
      </trkpt>
      <trkpt lat="44.82931" lon="6.27636">
        <ele>1411.6</ele>
        <time>2024-08-13T06:42:58Z</time>
      </trkpt>
      <trkpt lat="44.82931" lon="6.27636">
        <ele>1411.6</ele>
        <time>2024-08-13T06:42:59Z</time>
      </trkpt>
      <trkpt lat="44.82929" lon="6.27633">
        <ele>1411.6</ele>
        <time>2024-08-13T06:43:00Z</time>
      </trkpt>
      <trkpt lat="44.82929" lon="6.27633">
        <ele>1411.4</ele>
        <time>2024-08-13T06:43:01Z</time>
      </trkpt>
      <trkpt lat="44.82927" lon="6.27631">
        <ele>1411.2</ele>
        <time>2024-08-13T06:43:02Z</time>
      </trkpt>
      <trkpt lat="44.82927" lon="6.27631">
        <ele>1411</ele>
        <time>2024-08-13T06:43:03Z</time>
      </trkpt>
      <trkpt lat="44.82926" lon="6.27629">
        <ele>1410.8</ele>
        <time>2024-08-13T06:43:04Z</time>
      </trkpt>
      <trkpt lat="44.82926" lon="6.27629">
        <ele>1410.6</ele>
        <time>2024-08-13T06:43:05Z</time>
      </trkpt>
      <trkpt lat="44.82924" lon="6.27626">
        <ele>1410.6</ele>
        <time>2024-08-13T06:43:06Z</time>
      </trkpt>
      <trkpt lat="44.82924" lon="6.27626">
        <ele>1410.4</ele>
        <time>2024-08-13T06:43:07Z</time>
      </trkpt>
      <trkpt lat="44.82924" lon="6.27622">
        <ele>1410.2</ele>
        <time>2024-08-13T06:43:08Z</time>
      </trkpt>
      <trkpt lat="44.82924" lon="6.27622">
        <ele>1410</ele>
        <time>2024-08-13T06:43:09Z</time>
      </trkpt>
      <trkpt lat="44.82924" lon="6.27618">
        <ele>1410</ele>
        <time>2024-08-13T06:43:10Z</time>
      </trkpt>
      <trkpt lat="44.82924" lon="6.27618">
        <ele>1409.6</ele>
        <time>2024-08-13T06:43:11Z</time>
      </trkpt>
      <trkpt lat="44.82924" lon="6.27614">
        <ele>1409.6</ele>
        <time>2024-08-13T06:43:12Z</time>
      </trkpt>
      <trkpt lat="44.82924" lon="6.27614">
        <ele>1409.6</ele>
        <time>2024-08-13T06:43:13Z</time>
      </trkpt>
      <trkpt lat="44.82924" lon="6.2761">
        <ele>1409.4</ele>
        <time>2024-08-13T06:43:14Z</time>
      </trkpt>
      <trkpt lat="44.82924" lon="6.2761">
        <ele>1409.2</ele>
        <time>2024-08-13T06:43:15Z</time>
      </trkpt>
      <trkpt lat="44.82922" lon="6.27606">
        <ele>1409.2</ele>
        <time>2024-08-13T06:43:16Z</time>
      </trkpt>
      <trkpt lat="44.82922" lon="6.27606">
        <ele>1409.2</ele>
        <time>2024-08-13T06:43:17Z</time>
      </trkpt>
      <trkpt lat="44.82922" lon="6.27602">
        <ele>1409.2</ele>
        <time>2024-08-13T06:43:18Z</time>
      </trkpt>
      <trkpt lat="44.82922" lon="6.27602">
        <ele>1409.2</ele>
        <time>2024-08-13T06:43:19Z</time>
      </trkpt>
      <trkpt lat="44.82922" lon="6.27599">
        <ele>1409.2</ele>
        <time>2024-08-13T06:43:20Z</time>
      </trkpt>
      <trkpt lat="44.82922" lon="6.27599">
        <ele>1409.2</ele>
        <time>2024-08-13T06:43:21Z</time>
      </trkpt>
      <trkpt lat="44.82921" lon="6.27596">
        <ele>1409</ele>
        <time>2024-08-13T06:43:22Z</time>
      </trkpt>
      <trkpt lat="44.82921" lon="6.27596">
        <ele>1409</ele>
        <time>2024-08-13T06:43:23Z</time>
      </trkpt>
      <trkpt lat="44.8292" lon="6.27591">
        <ele>1408.8</ele>
        <time>2024-08-13T06:43:24Z</time>
      </trkpt>
      <trkpt lat="44.8292" lon="6.27591">
        <ele>1408.6</ele>
        <time>2024-08-13T06:43:25Z</time>
      </trkpt>
      <trkpt lat="44.82922" lon="6.27588">
        <ele>1408.6</ele>
        <time>2024-08-13T06:43:26Z</time>
      </trkpt>
      <trkpt lat="44.82922" lon="6.27588">
        <ele>1408.6</ele>
        <time>2024-08-13T06:43:27Z</time>
      </trkpt>
      <trkpt lat="44.82922" lon="6.27583">
        <ele>1408.8</ele>
        <time>2024-08-13T06:43:28Z</time>
      </trkpt>
      <trkpt lat="44.82922" lon="6.27583">
        <ele>1408.8</ele>
        <time>2024-08-13T06:43:29Z</time>
      </trkpt>
      <trkpt lat="44.82921" lon="6.27579">
        <ele>1408.8</ele>
        <time>2024-08-13T06:43:30Z</time>
      </trkpt>
      <trkpt lat="44.82921" lon="6.27579">
        <ele>1408.8</ele>
        <time>2024-08-13T06:43:31Z</time>
      </trkpt>
      <trkpt lat="44.82921" lon="6.27576">
        <ele>1408.6</ele>
        <time>2024-08-13T06:43:32Z</time>
      </trkpt>
      <trkpt lat="44.82921" lon="6.27576">
        <ele>1408.2</ele>
        <time>2024-08-13T06:43:33Z</time>
      </trkpt>
      <trkpt lat="44.82922" lon="6.27572">
        <ele>1408.2</ele>
        <time>2024-08-13T06:43:34Z</time>
      </trkpt>
      <trkpt lat="44.82922" lon="6.27572">
        <ele>1408.2</ele>
        <time>2024-08-13T06:43:35Z</time>
      </trkpt>
      <trkpt lat="44.82922" lon="6.27569">
        <ele>1408.2</ele>
        <time>2024-08-13T06:43:36Z</time>
      </trkpt>
      <trkpt lat="44.82922" lon="6.27569">
        <ele>1408.4</ele>
        <time>2024-08-13T06:43:37Z</time>
      </trkpt>
      <trkpt lat="44.82921" lon="6.27566">
        <ele>1408.4</ele>
        <time>2024-08-13T06:43:38Z</time>
      </trkpt>
      <trkpt lat="44.82921" lon="6.27566">
        <ele>1408</ele>
        <time>2024-08-13T06:43:39Z</time>
      </trkpt>
      <trkpt lat="44.82919" lon="6.27563">
        <ele>1407.8</ele>
        <time>2024-08-13T06:43:40Z</time>
      </trkpt>
      <trkpt lat="44.82919" lon="6.27563">
        <ele>1407.6</ele>
        <time>2024-08-13T06:43:41Z</time>
      </trkpt>
      <trkpt lat="44.82919" lon="6.2756">
        <ele>1407.4</ele>
        <time>2024-08-13T06:43:42Z</time>
      </trkpt>
      <trkpt lat="44.82919" lon="6.2756">
        <ele>1407.2</ele>
        <time>2024-08-13T06:43:43Z</time>
      </trkpt>
      <trkpt lat="44.82919" lon="6.27556">
        <ele>1407</ele>
        <time>2024-08-13T06:43:44Z</time>
      </trkpt>
      <trkpt lat="44.82919" lon="6.27556">
        <ele>1406.8</ele>
        <time>2024-08-13T06:43:45Z</time>
      </trkpt>
      <trkpt lat="44.82919" lon="6.27552">
        <ele>1406.8</ele>
        <time>2024-08-13T06:43:46Z</time>
      </trkpt>
      <trkpt lat="44.82919" lon="6.27552">
        <ele>1406.8</ele>
        <time>2024-08-13T06:43:47Z</time>
      </trkpt>
      <trkpt lat="44.8292" lon="6.27548">
        <ele>1406.8</ele>
        <time>2024-08-13T06:43:48Z</time>
      </trkpt>
      <trkpt lat="44.8292" lon="6.27548">
        <ele>1407</ele>
        <time>2024-08-13T06:43:49Z</time>
      </trkpt>
      <trkpt lat="44.8292" lon="6.27544">
        <ele>1407.2</ele>
        <time>2024-08-13T06:43:50Z</time>
      </trkpt>
      <trkpt lat="44.8292" lon="6.27544">
        <ele>1407.2</ele>
        <time>2024-08-13T06:43:51Z</time>
      </trkpt>
      <trkpt lat="44.8292" lon="6.27541">
        <ele>1407.2</ele>
        <time>2024-08-13T06:43:52Z</time>
      </trkpt>
      <trkpt lat="44.8292" lon="6.27541">
        <ele>1407.4</ele>
        <time>2024-08-13T06:43:53Z</time>
      </trkpt>
      <trkpt lat="44.8292" lon="6.27537">
        <ele>1407.4</ele>
        <time>2024-08-13T06:43:54Z</time>
      </trkpt>
      <trkpt lat="44.8292" lon="6.27537">
        <ele>1407.4</ele>
        <time>2024-08-13T06:43:55Z</time>
      </trkpt>
      <trkpt lat="44.82921" lon="6.27533">
        <ele>1407.4</ele>
        <time>2024-08-13T06:43:56Z</time>
      </trkpt>
      <trkpt lat="44.82921" lon="6.27533">
        <ele>1407.2</ele>
        <time>2024-08-13T06:43:57Z</time>
      </trkpt>
      <trkpt lat="44.8292" lon="6.27529">
        <ele>1407.2</ele>
        <time>2024-08-13T06:43:58Z</time>
      </trkpt>
      <trkpt lat="44.8292" lon="6.27529">
        <ele>1407.2</ele>
        <time>2024-08-13T06:43:59Z</time>
      </trkpt>
      <trkpt lat="44.8292" lon="6.27526">
        <ele>1407.2</ele>
        <time>2024-08-13T06:44:00Z</time>
      </trkpt>
      <trkpt lat="44.8292" lon="6.27526">
        <ele>1407.2</ele>
        <time>2024-08-13T06:44:01Z</time>
      </trkpt>
      <trkpt lat="44.8292" lon="6.27522">
        <ele>1406.8</ele>
        <time>2024-08-13T06:44:02Z</time>
      </trkpt>
      <trkpt lat="44.8292" lon="6.27522">
        <ele>1406.8</ele>
        <time>2024-08-13T06:44:03Z</time>
      </trkpt>
      <trkpt lat="44.8292" lon="6.27518">
        <ele>1406.6</ele>
        <time>2024-08-13T06:44:04Z</time>
      </trkpt>
      <trkpt lat="44.8292" lon="6.27518">
        <ele>1406.4</ele>
        <time>2024-08-13T06:44:05Z</time>
      </trkpt>
      <trkpt lat="44.82919" lon="6.27514">
        <ele>1406.4</ele>
        <time>2024-08-13T06:44:06Z</time>
      </trkpt>
      <trkpt lat="44.82919" lon="6.27514">
        <ele>1406.6</ele>
        <time>2024-08-13T06:44:07Z</time>
      </trkpt>
      <trkpt lat="44.82918" lon="6.2751">
        <ele>1406.6</ele>
        <time>2024-08-13T06:44:08Z</time>
      </trkpt>
      <trkpt lat="44.82918" lon="6.2751">
        <ele>1406.2</ele>
        <time>2024-08-13T06:44:09Z</time>
      </trkpt>
      <trkpt lat="44.82917" lon="6.27506">
        <ele>1406.2</ele>
        <time>2024-08-13T06:44:10Z</time>
      </trkpt>
      <trkpt lat="44.82917" lon="6.27506">
        <ele>1406.2</ele>
        <time>2024-08-13T06:44:11Z</time>
      </trkpt>
      <trkpt lat="44.82917" lon="6.27501">
        <ele>1406.2</ele>
        <time>2024-08-13T06:44:12Z</time>
      </trkpt>
      <trkpt lat="44.82917" lon="6.27501">
        <ele>1406.2</ele>
        <time>2024-08-13T06:44:13Z</time>
      </trkpt>
      <trkpt lat="44.82916" lon="6.27497">
        <ele>1406</ele>
        <time>2024-08-13T06:44:14Z</time>
      </trkpt>
      <trkpt lat="44.82916" lon="6.27497">
        <ele>1406</ele>
        <time>2024-08-13T06:44:15Z</time>
      </trkpt>
      <trkpt lat="44.82915" lon="6.27494">
        <ele>1405.8</ele>
        <time>2024-08-13T06:44:16Z</time>
      </trkpt>
      <trkpt lat="44.82915" lon="6.27494">
        <ele>1405.6</ele>
        <time>2024-08-13T06:44:17Z</time>
      </trkpt>
      <trkpt lat="44.82914" lon="6.27491">
        <ele>1405.4</ele>
        <time>2024-08-13T06:44:18Z</time>
      </trkpt>
      <trkpt lat="44.82914" lon="6.27491">
        <ele>1405.4</ele>
        <time>2024-08-13T06:44:19Z</time>
      </trkpt>
      <trkpt lat="44.82914" lon="6.27487">
        <ele>1405.4</ele>
        <time>2024-08-13T06:44:20Z</time>
      </trkpt>
      <trkpt lat="44.82914" lon="6.27487">
        <ele>1405.4</ele>
        <time>2024-08-13T06:44:21Z</time>
      </trkpt>
      <trkpt lat="44.82912" lon="6.27484">
        <ele>1405.4</ele>
        <time>2024-08-13T06:44:22Z</time>
      </trkpt>
      <trkpt lat="44.8291" lon="6.27482">
        <ele>1405.4</ele>
        <time>2024-08-13T06:44:23Z</time>
      </trkpt>
      <trkpt lat="44.8291" lon="6.27482">
        <ele>1405.4</ele>
        <time>2024-08-13T06:44:24Z</time>
      </trkpt>
      <trkpt lat="44.82908" lon="6.27479">
        <ele>1405.4</ele>
        <time>2024-08-13T06:44:25Z</time>
      </trkpt>
      <trkpt lat="44.82908" lon="6.27479">
        <ele>1405.2</ele>
        <time>2024-08-13T06:44:26Z</time>
      </trkpt>
      <trkpt lat="44.82907" lon="6.27476">
        <ele>1405.2</ele>
        <time>2024-08-13T06:44:27Z</time>
      </trkpt>
      <trkpt lat="44.82907" lon="6.27476">
        <ele>1405.2</ele>
        <time>2024-08-13T06:44:28Z</time>
      </trkpt>
      <trkpt lat="44.82906" lon="6.27473">
        <ele>1405.2</ele>
        <time>2024-08-13T06:44:29Z</time>
      </trkpt>
      <trkpt lat="44.82906" lon="6.27473">
        <ele>1405.4</ele>
        <time>2024-08-13T06:44:30Z</time>
      </trkpt>
      <trkpt lat="44.82906" lon="6.2747">
        <ele>1405.6</ele>
        <time>2024-08-13T06:44:31Z</time>
      </trkpt>
      <trkpt lat="44.82906" lon="6.2747">
        <ele>1405.6</ele>
        <time>2024-08-13T06:44:32Z</time>
      </trkpt>
      <trkpt lat="44.82906" lon="6.27466">
        <ele>1405.6</ele>
        <time>2024-08-13T06:44:33Z</time>
      </trkpt>
      <trkpt lat="44.82906" lon="6.27466">
        <ele>1405.8</ele>
        <time>2024-08-13T06:44:34Z</time>
      </trkpt>
      <trkpt lat="44.82906" lon="6.27462">
        <ele>1405.8</ele>
        <time>2024-08-13T06:44:35Z</time>
      </trkpt>
      <trkpt lat="44.82906" lon="6.27462">
        <ele>1406</ele>
        <time>2024-08-13T06:44:36Z</time>
      </trkpt>
      <trkpt lat="44.82906" lon="6.27458">
        <ele>1406.4</ele>
        <time>2024-08-13T06:44:37Z</time>
      </trkpt>
      <trkpt lat="44.82906" lon="6.27458">
        <ele>1406.4</ele>
        <time>2024-08-13T06:44:38Z</time>
      </trkpt>
      <trkpt lat="44.82906" lon="6.27454">
        <ele>1406.4</ele>
        <time>2024-08-13T06:44:39Z</time>
      </trkpt>
      <trkpt lat="44.82906" lon="6.27454">
        <ele>1406.4</ele>
        <time>2024-08-13T06:44:40Z</time>
      </trkpt>
      <trkpt lat="44.82906" lon="6.2745">
        <ele>1406.6</ele>
        <time>2024-08-13T06:44:41Z</time>
      </trkpt>
      <trkpt lat="44.82906" lon="6.2745">
        <ele>1406.8</ele>
        <time>2024-08-13T06:44:42Z</time>
      </trkpt>
      <trkpt lat="44.82906" lon="6.27447">
        <ele>1407</ele>
        <time>2024-08-13T06:44:43Z</time>
      </trkpt>
      <trkpt lat="44.82906" lon="6.27447">
        <ele>1407</ele>
        <time>2024-08-13T06:44:44Z</time>
      </trkpt>
      <trkpt lat="44.82907" lon="6.27443">
        <ele>1407</ele>
        <time>2024-08-13T06:44:45Z</time>
      </trkpt>
      <trkpt lat="44.82907" lon="6.27443">
        <ele>1407</ele>
        <time>2024-08-13T06:44:46Z</time>
      </trkpt>
      <trkpt lat="44.82908" lon="6.27439">
        <ele>1407</ele>
        <time>2024-08-13T06:44:47Z</time>
      </trkpt>
      <trkpt lat="44.82908" lon="6.27439">
        <ele>1407.2</ele>
        <time>2024-08-13T06:44:48Z</time>
      </trkpt>
      <trkpt lat="44.82908" lon="6.27435">
        <ele>1407.4</ele>
        <time>2024-08-13T06:44:49Z</time>
      </trkpt>
      <trkpt lat="44.82908" lon="6.27435">
        <ele>1407.4</ele>
        <time>2024-08-13T06:44:50Z</time>
      </trkpt>
      <trkpt lat="44.82907" lon="6.27432">
        <ele>1407.6</ele>
        <time>2024-08-13T06:44:51Z</time>
      </trkpt>
      <trkpt lat="44.82907" lon="6.27432">
        <ele>1407.8</ele>
        <time>2024-08-13T06:44:52Z</time>
      </trkpt>
      <trkpt lat="44.82906" lon="6.27429">
        <ele>1408</ele>
        <time>2024-08-13T06:44:53Z</time>
      </trkpt>
      <trkpt lat="44.82906" lon="6.27429">
        <ele>1408.2</ele>
        <time>2024-08-13T06:44:54Z</time>
      </trkpt>
      <trkpt lat="44.82905" lon="6.27426">
        <ele>1408.4</ele>
        <time>2024-08-13T06:44:55Z</time>
      </trkpt>
      <trkpt lat="44.82905" lon="6.27426">
        <ele>1408.6</ele>
        <time>2024-08-13T06:44:56Z</time>
      </trkpt>
      <trkpt lat="44.82905" lon="6.27422">
        <ele>1409</ele>
        <time>2024-08-13T06:44:57Z</time>
      </trkpt>
      <trkpt lat="44.82905" lon="6.27422">
        <ele>1409</ele>
        <time>2024-08-13T06:44:58Z</time>
      </trkpt>
      <trkpt lat="44.82906" lon="6.27417">
        <ele>1409</ele>
        <time>2024-08-13T06:44:59Z</time>
      </trkpt>
      <trkpt lat="44.82906" lon="6.27417">
        <ele>1409.2</ele>
        <time>2024-08-13T06:45:00Z</time>
      </trkpt>
      <trkpt lat="44.82906" lon="6.27414">
        <ele>1409.4</ele>
        <time>2024-08-13T06:45:01Z</time>
      </trkpt>
      <trkpt lat="44.82906" lon="6.27414">
        <ele>1409.6</ele>
        <time>2024-08-13T06:45:02Z</time>
      </trkpt>
      <trkpt lat="44.82906" lon="6.27411">
        <ele>1409.6</ele>
        <time>2024-08-13T06:45:03Z</time>
      </trkpt>
      <trkpt lat="44.82906" lon="6.27411">
        <ele>1409.6</ele>
        <time>2024-08-13T06:45:04Z</time>
      </trkpt>
      <trkpt lat="44.82907" lon="6.27407">
        <ele>1410</ele>
        <time>2024-08-13T06:45:05Z</time>
      </trkpt>
      <trkpt lat="44.82907" lon="6.27407">
        <ele>1410.2</ele>
        <time>2024-08-13T06:45:06Z</time>
      </trkpt>
      <trkpt lat="44.82908" lon="6.27404">
        <ele>1410.2</ele>
        <time>2024-08-13T06:45:07Z</time>
      </trkpt>
      <trkpt lat="44.82908" lon="6.27404">
        <ele>1410.4</ele>
        <time>2024-08-13T06:45:08Z</time>
      </trkpt>
      <trkpt lat="44.82908" lon="6.27401">
        <ele>1410.8</ele>
        <time>2024-08-13T06:45:09Z</time>
      </trkpt>
      <trkpt lat="44.82908" lon="6.27401">
        <ele>1411</ele>
        <time>2024-08-13T06:45:10Z</time>
      </trkpt>
      <trkpt lat="44.82909" lon="6.27397">
        <ele>1411.2</ele>
        <time>2024-08-13T06:45:11Z</time>
      </trkpt>
      <trkpt lat="44.82909" lon="6.27397">
        <ele>1411.2</ele>
        <time>2024-08-13T06:45:12Z</time>
      </trkpt>
      <trkpt lat="44.82908" lon="6.27394">
        <ele>1411</ele>
        <time>2024-08-13T06:45:13Z</time>
      </trkpt>
      <trkpt lat="44.82908" lon="6.27394">
        <ele>1411</ele>
        <time>2024-08-13T06:45:14Z</time>
      </trkpt>
      <trkpt lat="44.82908" lon="6.2739">
        <ele>1410.8</ele>
        <time>2024-08-13T06:45:15Z</time>
      </trkpt>
      <trkpt lat="44.82908" lon="6.2739">
        <ele>1410.6</ele>
        <time>2024-08-13T06:45:16Z</time>
      </trkpt>
      <trkpt lat="44.82908" lon="6.27388">
        <ele>1410.6</ele>
        <time>2024-08-13T06:45:17Z</time>
      </trkpt>
      <trkpt lat="44.82908" lon="6.27388">
        <ele>1410.6</ele>
        <time>2024-08-13T06:45:18Z</time>
      </trkpt>
      <trkpt lat="44.82908" lon="6.27385">
        <ele>1410.6</ele>
        <time>2024-08-13T06:45:19Z</time>
      </trkpt>
      <trkpt lat="44.82908" lon="6.27385">
        <ele>1410.2</ele>
        <time>2024-08-13T06:45:20Z</time>
      </trkpt>
      <trkpt lat="44.82906" lon="6.27381">
        <ele>1410</ele>
        <time>2024-08-13T06:45:21Z</time>
      </trkpt>
      <trkpt lat="44.82906" lon="6.27381">
        <ele>1409.8</ele>
        <time>2024-08-13T06:45:22Z</time>
      </trkpt>
      <trkpt lat="44.82905" lon="6.27378">
        <ele>1409.6</ele>
        <time>2024-08-13T06:45:23Z</time>
      </trkpt>
      <trkpt lat="44.82905" lon="6.27378">
        <ele>1409.4</ele>
        <time>2024-08-13T06:45:24Z</time>
      </trkpt>
      <trkpt lat="44.82904" lon="6.27374">
        <ele>1409.2</ele>
        <time>2024-08-13T06:45:25Z</time>
      </trkpt>
      <trkpt lat="44.82904" lon="6.27374">
        <ele>1409.2</ele>
        <time>2024-08-13T06:45:26Z</time>
      </trkpt>
      <trkpt lat="44.82904" lon="6.2737">
        <ele>1409.4</ele>
        <time>2024-08-13T06:45:27Z</time>
      </trkpt>
      <trkpt lat="44.82904" lon="6.2737">
        <ele>1409.4</ele>
        <time>2024-08-13T06:45:28Z</time>
      </trkpt>
      <trkpt lat="44.82904" lon="6.27367">
        <ele>1409.2</ele>
        <time>2024-08-13T06:45:29Z</time>
      </trkpt>
      <trkpt lat="44.82904" lon="6.27367">
        <ele>1409.2</ele>
        <time>2024-08-13T06:45:30Z</time>
      </trkpt>
      <trkpt lat="44.82905" lon="6.27363">
        <ele>1409.4</ele>
        <time>2024-08-13T06:45:31Z</time>
      </trkpt>
      <trkpt lat="44.82905" lon="6.27363">
        <ele>1409.4</ele>
        <time>2024-08-13T06:45:32Z</time>
      </trkpt>
      <trkpt lat="44.82906" lon="6.27359">
        <ele>1409.4</ele>
        <time>2024-08-13T06:45:33Z</time>
      </trkpt>
      <trkpt lat="44.82906" lon="6.27359">
        <ele>1409.4</ele>
        <time>2024-08-13T06:45:34Z</time>
      </trkpt>
      <trkpt lat="44.82906" lon="6.27355">
        <ele>1409.4</ele>
        <time>2024-08-13T06:45:35Z</time>
      </trkpt>
      <trkpt lat="44.82906" lon="6.27355">
        <ele>1409.6</ele>
        <time>2024-08-13T06:45:36Z</time>
      </trkpt>
      <trkpt lat="44.82906" lon="6.27352">
        <ele>1409.8</ele>
        <time>2024-08-13T06:45:37Z</time>
      </trkpt>
      <trkpt lat="44.82906" lon="6.27352">
        <ele>1410</ele>
        <time>2024-08-13T06:45:38Z</time>
      </trkpt>
      <trkpt lat="44.82906" lon="6.27349">
        <ele>1410.2</ele>
        <time>2024-08-13T06:45:39Z</time>
      </trkpt>
      <trkpt lat="44.82906" lon="6.27349">
        <ele>1410.2</ele>
        <time>2024-08-13T06:45:40Z</time>
      </trkpt>
      <trkpt lat="44.82906" lon="6.27346">
        <ele>1410.2</ele>
        <time>2024-08-13T06:45:41Z</time>
      </trkpt>
      <trkpt lat="44.82906" lon="6.27346">
        <ele>1410.4</ele>
        <time>2024-08-13T06:45:42Z</time>
      </trkpt>
      <trkpt lat="44.82906" lon="6.27342">
        <ele>1410.4</ele>
        <time>2024-08-13T06:45:43Z</time>
      </trkpt>
      <trkpt lat="44.82906" lon="6.27342">
        <ele>1410.4</ele>
        <time>2024-08-13T06:45:44Z</time>
      </trkpt>
      <trkpt lat="44.82906" lon="6.27339">
        <ele>1410.4</ele>
        <time>2024-08-13T06:45:45Z</time>
      </trkpt>
      <trkpt lat="44.82906" lon="6.27339">
        <ele>1410.4</ele>
        <time>2024-08-13T06:45:46Z</time>
      </trkpt>
      <trkpt lat="44.82906" lon="6.27335">
        <ele>1410.2</ele>
        <time>2024-08-13T06:45:47Z</time>
      </trkpt>
      <trkpt lat="44.82906" lon="6.27335">
        <ele>1410.4</ele>
        <time>2024-08-13T06:45:48Z</time>
      </trkpt>
      <trkpt lat="44.82906" lon="6.27332">
        <ele>1410.4</ele>
        <time>2024-08-13T06:45:49Z</time>
      </trkpt>
      <trkpt lat="44.82906" lon="6.27332">
        <ele>1410.6</ele>
        <time>2024-08-13T06:45:50Z</time>
      </trkpt>
      <trkpt lat="44.82905" lon="6.27328">
        <ele>1410.6</ele>
        <time>2024-08-13T06:45:51Z</time>
      </trkpt>
      <trkpt lat="44.82905" lon="6.27328">
        <ele>1410.6</ele>
        <time>2024-08-13T06:45:52Z</time>
      </trkpt>
      <trkpt lat="44.82905" lon="6.27325">
        <ele>1410.6</ele>
        <time>2024-08-13T06:45:53Z</time>
      </trkpt>
      <trkpt lat="44.82905" lon="6.27325">
        <ele>1410.6</ele>
        <time>2024-08-13T06:45:54Z</time>
      </trkpt>
      <trkpt lat="44.82905" lon="6.27321">
        <ele>1410.6</ele>
        <time>2024-08-13T06:45:55Z</time>
      </trkpt>
      <trkpt lat="44.82905" lon="6.27321">
        <ele>1410.6</ele>
        <time>2024-08-13T06:45:56Z</time>
      </trkpt>
      <trkpt lat="44.82904" lon="6.27317">
        <ele>1410.6</ele>
        <time>2024-08-13T06:45:57Z</time>
      </trkpt>
      <trkpt lat="44.82904" lon="6.27317">
        <ele>1410.6</ele>
        <time>2024-08-13T06:45:58Z</time>
      </trkpt>
      <trkpt lat="44.82904" lon="6.27314">
        <ele>1410.8</ele>
        <time>2024-08-13T06:45:59Z</time>
      </trkpt>
      <trkpt lat="44.82904" lon="6.27314">
        <ele>1410.8</ele>
        <time>2024-08-13T06:46:00Z</time>
      </trkpt>
      <trkpt lat="44.82902" lon="6.27311">
        <ele>1410.8</ele>
        <time>2024-08-13T06:46:01Z</time>
      </trkpt>
      <trkpt lat="44.82902" lon="6.27311">
        <ele>1410.8</ele>
        <time>2024-08-13T06:46:02Z</time>
      </trkpt>
      <trkpt lat="44.82902" lon="6.27307">
        <ele>1410.8</ele>
        <time>2024-08-13T06:46:03Z</time>
      </trkpt>
      <trkpt lat="44.82902" lon="6.27307">
        <ele>1411</ele>
        <time>2024-08-13T06:46:04Z</time>
      </trkpt>
      <trkpt lat="44.82901" lon="6.27303">
        <ele>1411</ele>
        <time>2024-08-13T06:46:05Z</time>
      </trkpt>
      <trkpt lat="44.82901" lon="6.27303">
        <ele>1411.2</ele>
        <time>2024-08-13T06:46:06Z</time>
      </trkpt>
      <trkpt lat="44.82901" lon="6.273">
        <ele>1411.2</ele>
        <time>2024-08-13T06:46:07Z</time>
      </trkpt>
      <trkpt lat="44.82901" lon="6.273">
        <ele>1411.4</ele>
        <time>2024-08-13T06:46:08Z</time>
      </trkpt>
      <trkpt lat="44.82902" lon="6.27297">
        <ele>1411.8</ele>
        <time>2024-08-13T06:46:09Z</time>
      </trkpt>
      <trkpt lat="44.82902" lon="6.27297">
        <ele>1412</ele>
        <time>2024-08-13T06:46:10Z</time>
      </trkpt>
      <trkpt lat="44.82902" lon="6.27293">
        <ele>1412</ele>
        <time>2024-08-13T06:46:11Z</time>
      </trkpt>
      <trkpt lat="44.82902" lon="6.27293">
        <ele>1412.2</ele>
        <time>2024-08-13T06:46:12Z</time>
      </trkpt>
      <trkpt lat="44.82904" lon="6.2729">
        <ele>1412.4</ele>
        <time>2024-08-13T06:46:13Z</time>
      </trkpt>
      <trkpt lat="44.82904" lon="6.2729">
        <ele>1412.6</ele>
        <time>2024-08-13T06:46:14Z</time>
      </trkpt>
      <trkpt lat="44.82904" lon="6.27288">
        <ele>1412.8</ele>
        <time>2024-08-13T06:46:15Z</time>
      </trkpt>
      <trkpt lat="44.82904" lon="6.27288">
        <ele>1412.8</ele>
        <time>2024-08-13T06:46:16Z</time>
      </trkpt>
      <trkpt lat="44.82903" lon="6.27285">
        <ele>1413</ele>
        <time>2024-08-13T06:46:17Z</time>
      </trkpt>
      <trkpt lat="44.82903" lon="6.27285">
        <ele>1413.4</ele>
        <time>2024-08-13T06:46:18Z</time>
      </trkpt>
      <trkpt lat="44.82902" lon="6.27282">
        <ele>1413.6</ele>
        <time>2024-08-13T06:46:19Z</time>
      </trkpt>
      <trkpt lat="44.82902" lon="6.27282">
        <ele>1413.8</ele>
        <time>2024-08-13T06:46:20Z</time>
      </trkpt>
      <trkpt lat="44.82902" lon="6.27279">
        <ele>1414</ele>
        <time>2024-08-13T06:46:21Z</time>
      </trkpt>
      <trkpt lat="44.82902" lon="6.27279">
        <ele>1414.2</ele>
        <time>2024-08-13T06:46:22Z</time>
      </trkpt>
      <trkpt lat="44.82902" lon="6.27276">
        <ele>1414.2</ele>
        <time>2024-08-13T06:46:23Z</time>
      </trkpt>
      <trkpt lat="44.82902" lon="6.27276">
        <ele>1414.2</ele>
        <time>2024-08-13T06:46:24Z</time>
      </trkpt>
      <trkpt lat="44.82901" lon="6.27273">
        <ele>1414.4</ele>
        <time>2024-08-13T06:46:25Z</time>
      </trkpt>
      <trkpt lat="44.82901" lon="6.27273">
        <ele>1414.6</ele>
        <time>2024-08-13T06:46:26Z</time>
      </trkpt>
      <trkpt lat="44.82901" lon="6.27269">
        <ele>1414.6</ele>
        <time>2024-08-13T06:46:27Z</time>
      </trkpt>
      <trkpt lat="44.82901" lon="6.27269">
        <ele>1415</ele>
        <time>2024-08-13T06:46:28Z</time>
      </trkpt>
      <trkpt lat="44.82901" lon="6.27266">
        <ele>1415</ele>
        <time>2024-08-13T06:46:29Z</time>
      </trkpt>
      <trkpt lat="44.82901" lon="6.27266">
        <ele>1415</ele>
        <time>2024-08-13T06:46:30Z</time>
      </trkpt>
      <trkpt lat="44.82901" lon="6.27262">
        <ele>1415</ele>
        <time>2024-08-13T06:46:31Z</time>
      </trkpt>
      <trkpt lat="44.82901" lon="6.27262">
        <ele>1415</ele>
        <time>2024-08-13T06:46:32Z</time>
      </trkpt>
      <trkpt lat="44.829" lon="6.27259">
        <ele>1415.4</ele>
        <time>2024-08-13T06:46:33Z</time>
      </trkpt>
      <trkpt lat="44.829" lon="6.27259">
        <ele>1415.6</ele>
        <time>2024-08-13T06:46:34Z</time>
      </trkpt>
      <trkpt lat="44.82899" lon="6.27255">
        <ele>1415.8</ele>
        <time>2024-08-13T06:46:35Z</time>
      </trkpt>
      <trkpt lat="44.82899" lon="6.27255">
        <ele>1416</ele>
        <time>2024-08-13T06:46:36Z</time>
      </trkpt>
      <trkpt lat="44.82898" lon="6.27252">
        <ele>1416</ele>
        <time>2024-08-13T06:46:37Z</time>
      </trkpt>
      <trkpt lat="44.82898" lon="6.27252">
        <ele>1416</ele>
        <time>2024-08-13T06:46:38Z</time>
      </trkpt>
      <trkpt lat="44.82897" lon="6.2725">
        <ele>1416</ele>
        <time>2024-08-13T06:46:39Z</time>
      </trkpt>
      <trkpt lat="44.82897" lon="6.2725">
        <ele>1416</ele>
        <time>2024-08-13T06:46:40Z</time>
      </trkpt>
      <trkpt lat="44.82897" lon="6.27247">
        <ele>1416</ele>
        <time>2024-08-13T06:46:41Z</time>
      </trkpt>
      <trkpt lat="44.82897" lon="6.27247">
        <ele>1416.4</ele>
        <time>2024-08-13T06:46:42Z</time>
      </trkpt>
      <trkpt lat="44.82899" lon="6.27244">
        <ele>1416.6</ele>
        <time>2024-08-13T06:46:43Z</time>
      </trkpt>
      <trkpt lat="44.82899" lon="6.27244">
        <ele>1416.6</ele>
        <time>2024-08-13T06:46:44Z</time>
      </trkpt>
      <trkpt lat="44.829" lon="6.27242">
        <ele>1416.8</ele>
        <time>2024-08-13T06:46:45Z</time>
      </trkpt>
      <trkpt lat="44.829" lon="6.27242">
        <ele>1417.2</ele>
        <time>2024-08-13T06:46:46Z</time>
      </trkpt>
      <trkpt lat="44.829" lon="6.27242">
        <ele>1417.4</ele>
        <time>2024-08-13T06:46:47Z</time>
      </trkpt>
      <trkpt lat="44.829" lon="6.27238">
        <ele>1417.8</ele>
        <time>2024-08-13T06:46:48Z</time>
      </trkpt>
      <trkpt lat="44.829" lon="6.27238">
        <ele>1417.8</ele>
        <time>2024-08-13T06:46:49Z</time>
      </trkpt>
      <trkpt lat="44.829" lon="6.27238">
        <ele>1418.2</ele>
        <time>2024-08-13T06:46:50Z</time>
      </trkpt>
      <trkpt lat="44.82901" lon="6.27235">
        <ele>1418.6</ele>
        <time>2024-08-13T06:46:51Z</time>
      </trkpt>
      <trkpt lat="44.82901" lon="6.27235">
        <ele>1418.6</ele>
        <time>2024-08-13T06:46:52Z</time>
      </trkpt>
      <trkpt lat="44.82901" lon="6.27235">
        <ele>1418.8</ele>
        <time>2024-08-13T06:46:53Z</time>
      </trkpt>
      <trkpt lat="44.82901" lon="6.27235">
        <ele>1419</ele>
        <time>2024-08-13T06:46:54Z</time>
      </trkpt>
      <trkpt lat="44.82901" lon="6.27231">
        <ele>1419.2</ele>
        <time>2024-08-13T06:46:55Z</time>
      </trkpt>
      <trkpt lat="44.82901" lon="6.27231">
        <ele>1419.4</ele>
        <time>2024-08-13T06:46:56Z</time>
      </trkpt>
      <trkpt lat="44.82901" lon="6.27231">
        <ele>1419.6</ele>
        <time>2024-08-13T06:46:57Z</time>
      </trkpt>
      <trkpt lat="44.82902" lon="6.27229">
        <ele>1419.8</ele>
        <time>2024-08-13T06:46:58Z</time>
      </trkpt>
      <trkpt lat="44.82902" lon="6.27229">
        <ele>1419.8</ele>
        <time>2024-08-13T06:46:59Z</time>
      </trkpt>
      <trkpt lat="44.82902" lon="6.27229">
        <ele>1420</ele>
        <time>2024-08-13T06:47:00Z</time>
      </trkpt>
      <trkpt lat="44.82902" lon="6.27226">
        <ele>1420</ele>
        <time>2024-08-13T06:47:01Z</time>
      </trkpt>
      <trkpt lat="44.82902" lon="6.27226">
        <ele>1420.6</ele>
        <time>2024-08-13T06:47:02Z</time>
      </trkpt>
      <trkpt lat="44.82902" lon="6.27226">
        <ele>1420.6</ele>
        <time>2024-08-13T06:47:03Z</time>
      </trkpt>
      <trkpt lat="44.82901" lon="6.27222">
        <ele>1420.8</ele>
        <time>2024-08-13T06:47:04Z</time>
      </trkpt>
      <trkpt lat="44.82901" lon="6.27222">
        <ele>1421</ele>
        <time>2024-08-13T06:47:05Z</time>
      </trkpt>
      <trkpt lat="44.82901" lon="6.27222">
        <ele>1421</ele>
        <time>2024-08-13T06:47:06Z</time>
      </trkpt>
      <trkpt lat="44.82901" lon="6.2722">
        <ele>1421.2</ele>
        <time>2024-08-13T06:47:07Z</time>
      </trkpt>
      <trkpt lat="44.82901" lon="6.2722">
        <ele>1421.2</ele>
        <time>2024-08-13T06:47:08Z</time>
      </trkpt>
      <trkpt lat="44.82901" lon="6.2722">
        <ele>1421.2</ele>
        <time>2024-08-13T06:47:09Z</time>
      </trkpt>
      <trkpt lat="44.82901" lon="6.27216">
        <ele>1421.4</ele>
        <time>2024-08-13T06:47:10Z</time>
      </trkpt>
      <trkpt lat="44.82901" lon="6.27216">
        <ele>1421.6</ele>
        <time>2024-08-13T06:47:11Z</time>
      </trkpt>
      <trkpt lat="44.82901" lon="6.27216">
        <ele>1421.8</ele>
        <time>2024-08-13T06:47:12Z</time>
      </trkpt>
      <trkpt lat="44.82901" lon="6.27212">
        <ele>1421.8</ele>
        <time>2024-08-13T06:47:13Z</time>
      </trkpt>
      <trkpt lat="44.82901" lon="6.27212">
        <ele>1422</ele>
        <time>2024-08-13T06:47:14Z</time>
      </trkpt>
      <trkpt lat="44.829" lon="6.27209">
        <ele>1422.2</ele>
        <time>2024-08-13T06:47:15Z</time>
      </trkpt>
      <trkpt lat="44.829" lon="6.27209">
        <ele>1422.2</ele>
        <time>2024-08-13T06:47:16Z</time>
      </trkpt>
      <trkpt lat="44.829" lon="6.27207">
        <ele>1422.4</ele>
        <time>2024-08-13T06:47:17Z</time>
      </trkpt>
      <trkpt lat="44.829" lon="6.27207">
        <ele>1422.6</ele>
        <time>2024-08-13T06:47:18Z</time>
      </trkpt>
      <trkpt lat="44.829" lon="6.27204">
        <ele>1422.8</ele>
        <time>2024-08-13T06:47:19Z</time>
      </trkpt>
      <trkpt lat="44.829" lon="6.27204">
        <ele>1422.8</ele>
        <time>2024-08-13T06:47:20Z</time>
      </trkpt>
      <trkpt lat="44.829" lon="6.27201">
        <ele>1423</ele>
        <time>2024-08-13T06:47:21Z</time>
      </trkpt>
      <trkpt lat="44.829" lon="6.27201">
        <ele>1423.4</ele>
        <time>2024-08-13T06:47:22Z</time>
      </trkpt>
      <trkpt lat="44.82901" lon="6.27198">
        <ele>1423.8</ele>
        <time>2024-08-13T06:47:23Z</time>
      </trkpt>
      <trkpt lat="44.82901" lon="6.27198">
        <ele>1423.8</ele>
        <time>2024-08-13T06:47:24Z</time>
      </trkpt>
      <trkpt lat="44.82901" lon="6.27198">
        <ele>1423.8</ele>
        <time>2024-08-13T06:47:25Z</time>
      </trkpt>
      <trkpt lat="44.82901" lon="6.27195">
        <ele>1423.8</ele>
        <time>2024-08-13T06:47:26Z</time>
      </trkpt>
      <trkpt lat="44.82901" lon="6.27195">
        <ele>1424.2</ele>
        <time>2024-08-13T06:47:27Z</time>
      </trkpt>
      <trkpt lat="44.82901" lon="6.27195">
        <ele>1424.6</ele>
        <time>2024-08-13T06:47:28Z</time>
      </trkpt>
      <trkpt lat="44.82902" lon="6.27192">
        <ele>1425</ele>
        <time>2024-08-13T06:47:29Z</time>
      </trkpt>
      <trkpt lat="44.82902" lon="6.27192">
        <ele>1425.2</ele>
        <time>2024-08-13T06:47:30Z</time>
      </trkpt>
      <trkpt lat="44.82902" lon="6.27192">
        <ele>1425</ele>
        <time>2024-08-13T06:47:31Z</time>
      </trkpt>
      <trkpt lat="44.82902" lon="6.27189">
        <ele>1425</ele>
        <time>2024-08-13T06:47:32Z</time>
      </trkpt>
      <trkpt lat="44.82902" lon="6.27189">
        <ele>1425.4</ele>
        <time>2024-08-13T06:47:33Z</time>
      </trkpt>
      <trkpt lat="44.82902" lon="6.27189">
        <ele>1425.6</ele>
        <time>2024-08-13T06:47:34Z</time>
      </trkpt>
      <trkpt lat="44.82904" lon="6.27186">
        <ele>1425.8</ele>
        <time>2024-08-13T06:47:35Z</time>
      </trkpt>
      <trkpt lat="44.82904" lon="6.27186">
        <ele>1426</ele>
        <time>2024-08-13T06:47:36Z</time>
      </trkpt>
      <trkpt lat="44.82904" lon="6.27186">
        <ele>1426.2</ele>
        <time>2024-08-13T06:47:37Z</time>
      </trkpt>
      <trkpt lat="44.82905" lon="6.27183">
        <ele>1426.2</ele>
        <time>2024-08-13T06:47:38Z</time>
      </trkpt>
      <trkpt lat="44.82905" lon="6.27183">
        <ele>1426.4</ele>
        <time>2024-08-13T06:47:39Z</time>
      </trkpt>
      <trkpt lat="44.82905" lon="6.27183">
        <ele>1426.6</ele>
        <time>2024-08-13T06:47:40Z</time>
      </trkpt>
      <trkpt lat="44.82905" lon="6.2718">
        <ele>1427</ele>
        <time>2024-08-13T06:47:41Z</time>
      </trkpt>
      <trkpt lat="44.82905" lon="6.2718">
        <ele>1427.2</ele>
        <time>2024-08-13T06:47:42Z</time>
      </trkpt>
      <trkpt lat="44.82904" lon="6.27178">
        <ele>1427.2</ele>
        <time>2024-08-13T06:47:43Z</time>
      </trkpt>
      <trkpt lat="44.82904" lon="6.27178">
        <ele>1427.4</ele>
        <time>2024-08-13T06:47:44Z</time>
      </trkpt>
      <trkpt lat="44.82904" lon="6.27178">
        <ele>1427.4</ele>
        <time>2024-08-13T06:47:45Z</time>
      </trkpt>
      <trkpt lat="44.82904" lon="6.27174">
        <ele>1427.6</ele>
        <time>2024-08-13T06:47:46Z</time>
      </trkpt>
      <trkpt lat="44.82904" lon="6.27174">
        <ele>1427.6</ele>
        <time>2024-08-13T06:47:47Z</time>
      </trkpt>
      <trkpt lat="44.82902" lon="6.27173">
        <ele>1428</ele>
        <time>2024-08-13T06:47:48Z</time>
      </trkpt>
      <trkpt lat="44.82902" lon="6.27173">
        <ele>1428.4</ele>
        <time>2024-08-13T06:47:49Z</time>
      </trkpt>
      <trkpt lat="44.82902" lon="6.27173">
        <ele>1428.4</ele>
        <time>2024-08-13T06:47:50Z</time>
      </trkpt>
      <trkpt lat="44.82901" lon="6.2717">
        <ele>1428.4</ele>
        <time>2024-08-13T06:47:51Z</time>
      </trkpt>
      <trkpt lat="44.82901" lon="6.2717">
        <ele>1428.6</ele>
        <time>2024-08-13T06:47:52Z</time>
      </trkpt>
      <trkpt lat="44.82901" lon="6.2717">
        <ele>1428.8</ele>
        <time>2024-08-13T06:47:53Z</time>
      </trkpt>
      <trkpt lat="44.829" lon="6.27168">
        <ele>1429</ele>
        <time>2024-08-13T06:47:54Z</time>
      </trkpt>
      <trkpt lat="44.829" lon="6.27168">
        <ele>1429.4</ele>
        <time>2024-08-13T06:47:55Z</time>
      </trkpt>
      <trkpt lat="44.829" lon="6.27168">
        <ele>1429.6</ele>
        <time>2024-08-13T06:47:56Z</time>
      </trkpt>
      <trkpt lat="44.829" lon="6.27164">
        <ele>1429.6</ele>
        <time>2024-08-13T06:47:57Z</time>
      </trkpt>
      <trkpt lat="44.829" lon="6.27161">
        <ele>1429.6</ele>
        <time>2024-08-13T06:47:58Z</time>
      </trkpt>
      <trkpt lat="44.829" lon="6.27161">
        <ele>1429.8</ele>
        <time>2024-08-13T06:47:59Z</time>
      </trkpt>
      <trkpt lat="44.829" lon="6.27158">
        <ele>1430</ele>
        <time>2024-08-13T06:48:00Z</time>
      </trkpt>
      <trkpt lat="44.829" lon="6.27158">
        <ele>1430.2</ele>
        <time>2024-08-13T06:48:01Z</time>
      </trkpt>
      <trkpt lat="44.82901" lon="6.27155">
        <ele>1430.2</ele>
        <time>2024-08-13T06:48:02Z</time>
      </trkpt>
      <trkpt lat="44.82901" lon="6.27155">
        <ele>1430.2</ele>
        <time>2024-08-13T06:48:03Z</time>
      </trkpt>
      <trkpt lat="44.82902" lon="6.27151">
        <ele>1430.4</ele>
        <time>2024-08-13T06:48:04Z</time>
      </trkpt>
      <trkpt lat="44.82902" lon="6.27151">
        <ele>1430.6</ele>
        <time>2024-08-13T06:48:05Z</time>
      </trkpt>
      <trkpt lat="44.82902" lon="6.27147">
        <ele>1430.6</ele>
        <time>2024-08-13T06:48:06Z</time>
      </trkpt>
      <trkpt lat="44.82902" lon="6.27147">
        <ele>1430.6</ele>
        <time>2024-08-13T06:48:07Z</time>
      </trkpt>
      <trkpt lat="44.82902" lon="6.27144">
        <ele>1430.8</ele>
        <time>2024-08-13T06:48:08Z</time>
      </trkpt>
      <trkpt lat="44.82902" lon="6.27144">
        <ele>1430.8</ele>
        <time>2024-08-13T06:48:09Z</time>
      </trkpt>
      <trkpt lat="44.82902" lon="6.27141">
        <ele>1431</ele>
        <time>2024-08-13T06:48:10Z</time>
      </trkpt>
      <trkpt lat="44.82902" lon="6.27141">
        <ele>1431.4</ele>
        <time>2024-08-13T06:48:11Z</time>
      </trkpt>
      <trkpt lat="44.82902" lon="6.27141">
        <ele>1431.2</ele>
        <time>2024-08-13T06:48:12Z</time>
      </trkpt>
      <trkpt lat="44.82902" lon="6.27137">
        <ele>1431.2</ele>
        <time>2024-08-13T06:48:13Z</time>
      </trkpt>
      <trkpt lat="44.82902" lon="6.27137">
        <ele>1431.4</ele>
        <time>2024-08-13T06:48:14Z</time>
      </trkpt>
      <trkpt lat="44.82902" lon="6.27134">
        <ele>1431.6</ele>
        <time>2024-08-13T06:48:15Z</time>
      </trkpt>
      <trkpt lat="44.82902" lon="6.27134">
        <ele>1431.8</ele>
        <time>2024-08-13T06:48:16Z</time>
      </trkpt>
      <trkpt lat="44.82901" lon="6.27131">
        <ele>1431.8</ele>
        <time>2024-08-13T06:48:17Z</time>
      </trkpt>
      <trkpt lat="44.82901" lon="6.27131">
        <ele>1432</ele>
        <time>2024-08-13T06:48:18Z</time>
      </trkpt>
      <trkpt lat="44.829" lon="6.27128">
        <ele>1432</ele>
        <time>2024-08-13T06:48:19Z</time>
      </trkpt>
      <trkpt lat="44.829" lon="6.27128">
        <ele>1432.2</ele>
        <time>2024-08-13T06:48:20Z</time>
      </trkpt>
      <trkpt lat="44.82899" lon="6.27126">
        <ele>1432.4</ele>
        <time>2024-08-13T06:48:21Z</time>
      </trkpt>
      <trkpt lat="44.82899" lon="6.27126">
        <ele>1432.2</ele>
        <time>2024-08-13T06:48:22Z</time>
      </trkpt>
      <trkpt lat="44.82899" lon="6.27126">
        <ele>1432.6</ele>
        <time>2024-08-13T06:48:23Z</time>
      </trkpt>
      <trkpt lat="44.82898" lon="6.27122">
        <ele>1432.8</ele>
        <time>2024-08-13T06:48:24Z</time>
      </trkpt>
      <trkpt lat="44.82898" lon="6.27122">
        <ele>1433</ele>
        <time>2024-08-13T06:48:25Z</time>
      </trkpt>
      <trkpt lat="44.82897" lon="6.2712">
        <ele>1433.2</ele>
        <time>2024-08-13T06:48:26Z</time>
      </trkpt>
      <trkpt lat="44.82897" lon="6.2712">
        <ele>1433.4</ele>
        <time>2024-08-13T06:48:27Z</time>
      </trkpt>
      <trkpt lat="44.82897" lon="6.27117">
        <ele>1433.6</ele>
        <time>2024-08-13T06:48:28Z</time>
      </trkpt>
      <trkpt lat="44.82897" lon="6.27117">
        <ele>1433.8</ele>
        <time>2024-08-13T06:48:29Z</time>
      </trkpt>
      <trkpt lat="44.82897" lon="6.27114">
        <ele>1433.8</ele>
        <time>2024-08-13T06:48:30Z</time>
      </trkpt>
      <trkpt lat="44.82897" lon="6.27114">
        <ele>1433.8</ele>
        <time>2024-08-13T06:48:31Z</time>
      </trkpt>
      <trkpt lat="44.82897" lon="6.27111">
        <ele>1434</ele>
        <time>2024-08-13T06:48:32Z</time>
      </trkpt>
      <trkpt lat="44.82897" lon="6.27111">
        <ele>1434.2</ele>
        <time>2024-08-13T06:48:33Z</time>
      </trkpt>
      <trkpt lat="44.82898" lon="6.27108">
        <ele>1434.4</ele>
        <time>2024-08-13T06:48:34Z</time>
      </trkpt>
      <trkpt lat="44.82898" lon="6.27108">
        <ele>1434.6</ele>
        <time>2024-08-13T06:48:35Z</time>
      </trkpt>
      <trkpt lat="44.82898" lon="6.27105">
        <ele>1434.6</ele>
        <time>2024-08-13T06:48:36Z</time>
      </trkpt>
      <trkpt lat="44.82898" lon="6.27105">
        <ele>1435</ele>
        <time>2024-08-13T06:48:37Z</time>
      </trkpt>
      <trkpt lat="44.829" lon="6.27102">
        <ele>1435.2</ele>
        <time>2024-08-13T06:48:38Z</time>
      </trkpt>
      <trkpt lat="44.829" lon="6.27102">
        <ele>1435.6</ele>
        <time>2024-08-13T06:48:39Z</time>
      </trkpt>
      <trkpt lat="44.829" lon="6.27099">
        <ele>1435.6</ele>
        <time>2024-08-13T06:48:40Z</time>
      </trkpt>
      <trkpt lat="44.829" lon="6.27099">
        <ele>1435.6</ele>
        <time>2024-08-13T06:48:41Z</time>
      </trkpt>
      <trkpt lat="44.82902" lon="6.27097">
        <ele>1436</ele>
        <time>2024-08-13T06:48:42Z</time>
      </trkpt>
      <trkpt lat="44.82902" lon="6.27097">
        <ele>1436.2</ele>
        <time>2024-08-13T06:48:43Z</time>
      </trkpt>
      <trkpt lat="44.82903" lon="6.27094">
        <ele>1436.2</ele>
        <time>2024-08-13T06:48:44Z</time>
      </trkpt>
      <trkpt lat="44.82903" lon="6.27094">
        <ele>1436.2</ele>
        <time>2024-08-13T06:48:45Z</time>
      </trkpt>
      <trkpt lat="44.82905" lon="6.27091">
        <ele>1436.2</ele>
        <time>2024-08-13T06:48:46Z</time>
      </trkpt>
      <trkpt lat="44.82905" lon="6.27091">
        <ele>1436.4</ele>
        <time>2024-08-13T06:48:47Z</time>
      </trkpt>
      <trkpt lat="44.82907" lon="6.27089">
        <ele>1436.4</ele>
        <time>2024-08-13T06:48:48Z</time>
      </trkpt>
      <trkpt lat="44.82907" lon="6.27089">
        <ele>1436.4</ele>
        <time>2024-08-13T06:48:49Z</time>
      </trkpt>
      <trkpt lat="44.82909" lon="6.27086">
        <ele>1436.4</ele>
        <time>2024-08-13T06:48:50Z</time>
      </trkpt>
      <trkpt lat="44.82909" lon="6.27086">
        <ele>1436.4</ele>
        <time>2024-08-13T06:48:51Z</time>
      </trkpt>
      <trkpt lat="44.8291" lon="6.27084">
        <ele>1436.6</ele>
        <time>2024-08-13T06:48:52Z</time>
      </trkpt>
      <trkpt lat="44.8291" lon="6.27084">
        <ele>1436.8</ele>
        <time>2024-08-13T06:48:53Z</time>
      </trkpt>
      <trkpt lat="44.8291" lon="6.27081">
        <ele>1437</ele>
        <time>2024-08-13T06:48:54Z</time>
      </trkpt>
      <trkpt lat="44.8291" lon="6.27081">
        <ele>1437.2</ele>
        <time>2024-08-13T06:48:55Z</time>
      </trkpt>
      <trkpt lat="44.8291" lon="6.27081">
        <ele>1437.2</ele>
        <time>2024-08-13T06:48:56Z</time>
      </trkpt>
      <trkpt lat="44.82909" lon="6.27077">
        <ele>1437.2</ele>
        <time>2024-08-13T06:48:57Z</time>
      </trkpt>
      <trkpt lat="44.82909" lon="6.27077">
        <ele>1437.4</ele>
        <time>2024-08-13T06:48:58Z</time>
      </trkpt>
      <trkpt lat="44.82908" lon="6.27075">
        <ele>1437.4</ele>
        <time>2024-08-13T06:48:59Z</time>
      </trkpt>
      <trkpt lat="44.82908" lon="6.27075">
        <ele>1437.6</ele>
        <time>2024-08-13T06:49:00Z</time>
      </trkpt>
      <trkpt lat="44.82906" lon="6.27073">
        <ele>1437.6</ele>
        <time>2024-08-13T06:49:01Z</time>
      </trkpt>
      <trkpt lat="44.82906" lon="6.27073">
        <ele>1437.8</ele>
        <time>2024-08-13T06:49:02Z</time>
      </trkpt>
      <trkpt lat="44.82903" lon="6.27071">
        <ele>1437.8</ele>
        <time>2024-08-13T06:49:03Z</time>
      </trkpt>
      <trkpt lat="44.82903" lon="6.27071">
        <ele>1437.8</ele>
        <time>2024-08-13T06:49:04Z</time>
      </trkpt>
      <trkpt lat="44.82901" lon="6.27071">
        <ele>1437.6</ele>
        <time>2024-08-13T06:49:05Z</time>
      </trkpt>
      <trkpt lat="44.82901" lon="6.27071">
        <ele>1437.4</ele>
        <time>2024-08-13T06:49:06Z</time>
      </trkpt>
      <trkpt lat="44.82898" lon="6.27069">
        <ele>1437.4</ele>
        <time>2024-08-13T06:49:07Z</time>
      </trkpt>
      <trkpt lat="44.82898" lon="6.27069">
        <ele>1437.6</ele>
        <time>2024-08-13T06:49:08Z</time>
      </trkpt>
      <trkpt lat="44.82896" lon="6.27068">
        <ele>1437.6</ele>
        <time>2024-08-13T06:49:09Z</time>
      </trkpt>
      <trkpt lat="44.82896" lon="6.27068">
        <ele>1437.6</ele>
        <time>2024-08-13T06:49:10Z</time>
      </trkpt>
      <trkpt lat="44.82896" lon="6.27068">
        <ele>1437.6</ele>
        <time>2024-08-13T06:49:11Z</time>
      </trkpt>
      <trkpt lat="44.82896" lon="6.27068">
        <ele>1437.8</ele>
        <time>2024-08-13T06:49:12Z</time>
      </trkpt>
      <trkpt lat="44.82894" lon="6.27066">
        <ele>1437.8</ele>
        <time>2024-08-13T06:49:13Z</time>
      </trkpt>
      <trkpt lat="44.82892" lon="6.27066">
        <ele>1437.8</ele>
        <time>2024-08-13T06:49:14Z</time>
      </trkpt>
      <trkpt lat="44.8289" lon="6.27066">
        <ele>1437.8</ele>
        <time>2024-08-13T06:49:15Z</time>
      </trkpt>
      <trkpt lat="44.8289" lon="6.27066">
        <ele>1437.8</ele>
        <time>2024-08-13T06:49:16Z</time>
      </trkpt>
      <trkpt lat="44.82887" lon="6.27065">
        <ele>1437.6</ele>
        <time>2024-08-13T06:49:17Z</time>
      </trkpt>
      <trkpt lat="44.82885" lon="6.27064">
        <ele>1437.6</ele>
        <time>2024-08-13T06:49:18Z</time>
      </trkpt>
      <trkpt lat="44.82885" lon="6.27063">
        <ele>1437.4</ele>
        <time>2024-08-13T06:49:19Z</time>
      </trkpt>
      <trkpt lat="44.82884" lon="6.27062">
        <ele>1437.4</ele>
        <time>2024-08-13T06:49:20Z</time>
      </trkpt>
      <trkpt lat="44.82884" lon="6.27061">
        <ele>1437.4</ele>
        <time>2024-08-13T06:49:21Z</time>
      </trkpt>
      <trkpt lat="44.82883" lon="6.27058">
        <ele>1437.4</ele>
        <time>2024-08-13T06:49:22Z</time>
      </trkpt>
      <trkpt lat="44.82883" lon="6.27058">
        <ele>1437.4</ele>
        <time>2024-08-13T06:49:23Z</time>
      </trkpt>
      <trkpt lat="44.82883" lon="6.27053">
        <ele>1437.4</ele>
        <time>2024-08-13T06:49:24Z</time>
      </trkpt>
      <trkpt lat="44.82884" lon="6.27051">
        <ele>1437.4</ele>
        <time>2024-08-13T06:49:25Z</time>
      </trkpt>
      <trkpt lat="44.82884" lon="6.27051">
        <ele>1437.6</ele>
        <time>2024-08-13T06:49:26Z</time>
      </trkpt>
      <trkpt lat="44.82884" lon="6.27047">
        <ele>1437.8</ele>
        <time>2024-08-13T06:49:27Z</time>
      </trkpt>
      <trkpt lat="44.82884" lon="6.27047">
        <ele>1437.8</ele>
        <time>2024-08-13T06:49:28Z</time>
      </trkpt>
      <trkpt lat="44.82882" lon="6.27044">
        <ele>1438</ele>
        <time>2024-08-13T06:49:29Z</time>
      </trkpt>
      <trkpt lat="44.82882" lon="6.27044">
        <ele>1438.2</ele>
        <time>2024-08-13T06:49:30Z</time>
      </trkpt>
      <trkpt lat="44.82881" lon="6.27041">
        <ele>1438.4</ele>
        <time>2024-08-13T06:49:31Z</time>
      </trkpt>
      <trkpt lat="44.82881" lon="6.27041">
        <ele>1438.2</ele>
        <time>2024-08-13T06:49:32Z</time>
      </trkpt>
      <trkpt lat="44.8288" lon="6.27038">
        <ele>1438.4</ele>
        <time>2024-08-13T06:49:33Z</time>
      </trkpt>
      <trkpt lat="44.8288" lon="6.27038">
        <ele>1438.4</ele>
        <time>2024-08-13T06:49:34Z</time>
      </trkpt>
      <trkpt lat="44.8288" lon="6.27038">
        <ele>1438.6</ele>
        <time>2024-08-13T06:49:35Z</time>
      </trkpt>
      <trkpt lat="44.82881" lon="6.27034">
        <ele>1438.6</ele>
        <time>2024-08-13T06:49:36Z</time>
      </trkpt>
      <trkpt lat="44.82881" lon="6.27034">
        <ele>1438.6</ele>
        <time>2024-08-13T06:49:37Z</time>
      </trkpt>
      <trkpt lat="44.82882" lon="6.27029">
        <ele>1438.8</ele>
        <time>2024-08-13T06:49:38Z</time>
      </trkpt>
      <trkpt lat="44.82882" lon="6.27029">
        <ele>1438.8</ele>
        <time>2024-08-13T06:49:39Z</time>
      </trkpt>
      <trkpt lat="44.82884" lon="6.27025">
        <ele>1438.8</ele>
        <time>2024-08-13T06:49:40Z</time>
      </trkpt>
      <trkpt lat="44.82884" lon="6.27025">
        <ele>1439</ele>
        <time>2024-08-13T06:49:41Z</time>
      </trkpt>
      <trkpt lat="44.82885" lon="6.27022">
        <ele>1439</ele>
        <time>2024-08-13T06:49:42Z</time>
      </trkpt>
      <trkpt lat="44.82885" lon="6.27022">
        <ele>1439</ele>
        <time>2024-08-13T06:49:43Z</time>
      </trkpt>
      <trkpt lat="44.82886" lon="6.27019">
        <ele>1439</ele>
        <time>2024-08-13T06:49:44Z</time>
      </trkpt>
      <trkpt lat="44.82886" lon="6.27019">
        <ele>1439</ele>
        <time>2024-08-13T06:49:45Z</time>
      </trkpt>
      <trkpt lat="44.82886" lon="6.27016">
        <ele>1439</ele>
        <time>2024-08-13T06:49:46Z</time>
      </trkpt>
      <trkpt lat="44.82886" lon="6.27013">
        <ele>1438.6</ele>
        <time>2024-08-13T06:49:47Z</time>
      </trkpt>
      <trkpt lat="44.82886" lon="6.27013">
        <ele>1438.2</ele>
        <time>2024-08-13T06:49:48Z</time>
      </trkpt>
      <trkpt lat="44.82885" lon="6.2701">
        <ele>1438</ele>
        <time>2024-08-13T06:49:49Z</time>
      </trkpt>
      <trkpt lat="44.82885" lon="6.2701">
        <ele>1438</ele>
        <time>2024-08-13T06:49:50Z</time>
      </trkpt>
      <trkpt lat="44.82882" lon="6.27007">
        <ele>1437.8</ele>
        <time>2024-08-13T06:49:51Z</time>
      </trkpt>
      <trkpt lat="44.82882" lon="6.27007">
        <ele>1437.6</ele>
        <time>2024-08-13T06:49:52Z</time>
      </trkpt>
      <trkpt lat="44.8288" lon="6.27005">
        <ele>1437.6</ele>
        <time>2024-08-13T06:49:53Z</time>
      </trkpt>
      <trkpt lat="44.8288" lon="6.27005">
        <ele>1437.6</ele>
        <time>2024-08-13T06:49:54Z</time>
      </trkpt>
      <trkpt lat="44.82877" lon="6.27002">
        <ele>1437.6</ele>
        <time>2024-08-13T06:49:55Z</time>
      </trkpt>
      <trkpt lat="44.82877" lon="6.27002">
        <ele>1437.6</ele>
        <time>2024-08-13T06:49:56Z</time>
      </trkpt>
      <trkpt lat="44.82875" lon="6.27">
        <ele>1437.6</ele>
        <time>2024-08-13T06:49:57Z</time>
      </trkpt>
      <trkpt lat="44.82875" lon="6.27">
        <ele>1437.6</ele>
        <time>2024-08-13T06:49:58Z</time>
      </trkpt>
      <trkpt lat="44.82873" lon="6.26996">
        <ele>1437.6</ele>
        <time>2024-08-13T06:49:59Z</time>
      </trkpt>
      <trkpt lat="44.82873" lon="6.26996">
        <ele>1437.6</ele>
        <time>2024-08-13T06:50:00Z</time>
      </trkpt>
      <trkpt lat="44.82872" lon="6.26995">
        <ele>1437.6</ele>
        <time>2024-08-13T06:50:01Z</time>
      </trkpt>
      <trkpt lat="44.8287" lon="6.26992">
        <ele>1437.8</ele>
        <time>2024-08-13T06:50:02Z</time>
      </trkpt>
      <trkpt lat="44.8287" lon="6.26992">
        <ele>1437.8</ele>
        <time>2024-08-13T06:50:03Z</time>
      </trkpt>
      <trkpt lat="44.82869" lon="6.2699">
        <ele>1438</ele>
        <time>2024-08-13T06:50:04Z</time>
      </trkpt>
      <trkpt lat="44.82869" lon="6.2699">
        <ele>1438</ele>
        <time>2024-08-13T06:50:05Z</time>
      </trkpt>
      <trkpt lat="44.82867" lon="6.26987">
        <ele>1438</ele>
        <time>2024-08-13T06:50:06Z</time>
      </trkpt>
      <trkpt lat="44.82867" lon="6.26987">
        <ele>1437.8</ele>
        <time>2024-08-13T06:50:07Z</time>
      </trkpt>
      <trkpt lat="44.82865" lon="6.26984">
        <ele>1437.8</ele>
        <time>2024-08-13T06:50:08Z</time>
      </trkpt>
      <trkpt lat="44.82865" lon="6.26984">
        <ele>1437.6</ele>
        <time>2024-08-13T06:50:09Z</time>
      </trkpt>
      <trkpt lat="44.82865" lon="6.26981">
        <ele>1437.6</ele>
        <time>2024-08-13T06:50:10Z</time>
      </trkpt>
      <trkpt lat="44.82865" lon="6.26981">
        <ele>1437.6</ele>
        <time>2024-08-13T06:50:11Z</time>
      </trkpt>
      <trkpt lat="44.82863" lon="6.26978">
        <ele>1437.6</ele>
        <time>2024-08-13T06:50:12Z</time>
      </trkpt>
      <trkpt lat="44.82863" lon="6.26978">
        <ele>1437.8</ele>
        <time>2024-08-13T06:50:13Z</time>
      </trkpt>
      <trkpt lat="44.82862" lon="6.26975">
        <ele>1437.8</ele>
        <time>2024-08-13T06:50:14Z</time>
      </trkpt>
      <trkpt lat="44.82862" lon="6.26975">
        <ele>1437.8</ele>
        <time>2024-08-13T06:50:15Z</time>
      </trkpt>
      <trkpt lat="44.82862" lon="6.26971">
        <ele>1438</ele>
        <time>2024-08-13T06:50:16Z</time>
      </trkpt>
      <trkpt lat="44.82862" lon="6.26971">
        <ele>1438</ele>
        <time>2024-08-13T06:50:17Z</time>
      </trkpt>
      <trkpt lat="44.82862" lon="6.26967">
        <ele>1437.8</ele>
        <time>2024-08-13T06:50:18Z</time>
      </trkpt>
      <trkpt lat="44.82862" lon="6.26967">
        <ele>1437.8</ele>
        <time>2024-08-13T06:50:19Z</time>
      </trkpt>
      <trkpt lat="44.82861" lon="6.26963">
        <ele>1437.8</ele>
        <time>2024-08-13T06:50:20Z</time>
      </trkpt>
      <trkpt lat="44.8286" lon="6.26961">
        <ele>1437.8</ele>
        <time>2024-08-13T06:50:21Z</time>
      </trkpt>
      <trkpt lat="44.8286" lon="6.26961">
        <ele>1437.6</ele>
        <time>2024-08-13T06:50:22Z</time>
      </trkpt>
      <trkpt lat="44.8286" lon="6.26957">
        <ele>1437.6</ele>
        <time>2024-08-13T06:50:23Z</time>
      </trkpt>
      <trkpt lat="44.82859" lon="6.26954">
        <ele>1437.6</ele>
        <time>2024-08-13T06:50:24Z</time>
      </trkpt>
      <trkpt lat="44.82858" lon="6.26952">
        <ele>1437.8</ele>
        <time>2024-08-13T06:50:25Z</time>
      </trkpt>
      <trkpt lat="44.82858" lon="6.26952">
        <ele>1437.8</ele>
        <time>2024-08-13T06:50:26Z</time>
      </trkpt>
      <trkpt lat="44.82858" lon="6.26952">
        <ele>1437.8</ele>
        <time>2024-08-13T06:50:27Z</time>
      </trkpt>
      <trkpt lat="44.82858" lon="6.26948">
        <ele>1438</ele>
        <time>2024-08-13T06:50:28Z</time>
      </trkpt>
      <trkpt lat="44.82858" lon="6.26948">
        <ele>1438</ele>
        <time>2024-08-13T06:50:29Z</time>
      </trkpt>
      <trkpt lat="44.82858" lon="6.26945">
        <ele>1438</ele>
        <time>2024-08-13T06:50:30Z</time>
      </trkpt>
      <trkpt lat="44.82858" lon="6.26945">
        <ele>1438</ele>
        <time>2024-08-13T06:50:31Z</time>
      </trkpt>
      <trkpt lat="44.82857" lon="6.26942">
        <ele>1438.2</ele>
        <time>2024-08-13T06:50:32Z</time>
      </trkpt>
      <trkpt lat="44.82857" lon="6.26942">
        <ele>1438.2</ele>
        <time>2024-08-13T06:50:33Z</time>
      </trkpt>
      <trkpt lat="44.82857" lon="6.26938">
        <ele>1438.4</ele>
        <time>2024-08-13T06:50:34Z</time>
      </trkpt>
      <trkpt lat="44.82857" lon="6.26938">
        <ele>1438.4</ele>
        <time>2024-08-13T06:50:35Z</time>
      </trkpt>
      <trkpt lat="44.82856" lon="6.26935">
        <ele>1438.6</ele>
        <time>2024-08-13T06:50:36Z</time>
      </trkpt>
      <trkpt lat="44.82856" lon="6.26935">
        <ele>1438.8</ele>
        <time>2024-08-13T06:50:37Z</time>
      </trkpt>
      <trkpt lat="44.82855" lon="6.26932">
        <ele>1439.2</ele>
        <time>2024-08-13T06:50:38Z</time>
      </trkpt>
      <trkpt lat="44.82855" lon="6.26932">
        <ele>1439.2</ele>
        <time>2024-08-13T06:50:39Z</time>
      </trkpt>
      <trkpt lat="44.82854" lon="6.2693">
        <ele>1439.4</ele>
        <time>2024-08-13T06:50:40Z</time>
      </trkpt>
      <trkpt lat="44.82854" lon="6.2693">
        <ele>1439.4</ele>
        <time>2024-08-13T06:50:41Z</time>
      </trkpt>
      <trkpt lat="44.82853" lon="6.26928">
        <ele>1439.4</ele>
        <time>2024-08-13T06:50:42Z</time>
      </trkpt>
      <trkpt lat="44.82853" lon="6.26928">
        <ele>1439.6</ele>
        <time>2024-08-13T06:50:43Z</time>
      </trkpt>
      <trkpt lat="44.82852" lon="6.26924">
        <ele>1439.6</ele>
        <time>2024-08-13T06:50:44Z</time>
      </trkpt>
      <trkpt lat="44.82852" lon="6.26924">
        <ele>1440</ele>
        <time>2024-08-13T06:50:45Z</time>
      </trkpt>
      <trkpt lat="44.8285" lon="6.26921">
        <ele>1440.2</ele>
        <time>2024-08-13T06:50:46Z</time>
      </trkpt>
      <trkpt lat="44.8285" lon="6.26921">
        <ele>1440.2</ele>
        <time>2024-08-13T06:50:47Z</time>
      </trkpt>
      <trkpt lat="44.82849" lon="6.26916">
        <ele>1440.2</ele>
        <time>2024-08-13T06:50:48Z</time>
      </trkpt>
      <trkpt lat="44.82849" lon="6.26916">
        <ele>1440.4</ele>
        <time>2024-08-13T06:50:49Z</time>
      </trkpt>
      <trkpt lat="44.8285" lon="6.26913">
        <ele>1440.4</ele>
        <time>2024-08-13T06:50:50Z</time>
      </trkpt>
      <trkpt lat="44.8285" lon="6.26913">
        <ele>1440.6</ele>
        <time>2024-08-13T06:50:51Z</time>
      </trkpt>
      <trkpt lat="44.8285" lon="6.26908">
        <ele>1440.6</ele>
        <time>2024-08-13T06:50:52Z</time>
      </trkpt>
      <trkpt lat="44.8285" lon="6.26905">
        <ele>1440.8</ele>
        <time>2024-08-13T06:50:53Z</time>
      </trkpt>
      <trkpt lat="44.82849" lon="6.26902">
        <ele>1440.8</ele>
        <time>2024-08-13T06:50:54Z</time>
      </trkpt>
      <trkpt lat="44.82849" lon="6.26902">
        <ele>1440.4</ele>
        <time>2024-08-13T06:50:55Z</time>
      </trkpt>
      <trkpt lat="44.8285" lon="6.26898">
        <ele>1440.4</ele>
        <time>2024-08-13T06:50:56Z</time>
      </trkpt>
      <trkpt lat="44.8285" lon="6.26898">
        <ele>1440.2</ele>
        <time>2024-08-13T06:50:57Z</time>
      </trkpt>
      <trkpt lat="44.82849" lon="6.26894">
        <ele>1440.2</ele>
        <time>2024-08-13T06:50:58Z</time>
      </trkpt>
      <trkpt lat="44.82849" lon="6.26894">
        <ele>1440.2</ele>
        <time>2024-08-13T06:50:59Z</time>
      </trkpt>
      <trkpt lat="44.82851" lon="6.2689">
        <ele>1440.2</ele>
        <time>2024-08-13T06:51:00Z</time>
      </trkpt>
      <trkpt lat="44.82851" lon="6.2689">
        <ele>1440.2</ele>
        <time>2024-08-13T06:51:01Z</time>
      </trkpt>
      <trkpt lat="44.82852" lon="6.26887">
        <ele>1440</ele>
        <time>2024-08-13T06:51:02Z</time>
      </trkpt>
      <trkpt lat="44.82852" lon="6.26887">
        <ele>1440</ele>
        <time>2024-08-13T06:51:03Z</time>
      </trkpt>
      <trkpt lat="44.82853" lon="6.26884">
        <ele>1440</ele>
        <time>2024-08-13T06:51:04Z</time>
      </trkpt>
      <trkpt lat="44.82853" lon="6.26884">
        <ele>1439.8</ele>
        <time>2024-08-13T06:51:05Z</time>
      </trkpt>
      <trkpt lat="44.82853" lon="6.2688">
        <ele>1439.8</ele>
        <time>2024-08-13T06:51:06Z</time>
      </trkpt>
      <trkpt lat="44.82853" lon="6.2688">
        <ele>1439.6</ele>
        <time>2024-08-13T06:51:07Z</time>
      </trkpt>
      <trkpt lat="44.82852" lon="6.26876">
        <ele>1439.2</ele>
        <time>2024-08-13T06:51:08Z</time>
      </trkpt>
      <trkpt lat="44.82851" lon="6.26875">
        <ele>1439</ele>
        <time>2024-08-13T06:51:09Z</time>
      </trkpt>
      <trkpt lat="44.82851" lon="6.26875">
        <ele>1438.8</ele>
        <time>2024-08-13T06:51:10Z</time>
      </trkpt>
      <trkpt lat="44.8285" lon="6.26873">
        <ele>1438.6</ele>
        <time>2024-08-13T06:51:11Z</time>
      </trkpt>
      <trkpt lat="44.82848" lon="6.26871">
        <ele>1438.6</ele>
        <time>2024-08-13T06:51:12Z</time>
      </trkpt>
      <trkpt lat="44.82848" lon="6.26871">
        <ele>1438.6</ele>
        <time>2024-08-13T06:51:13Z</time>
      </trkpt>
      <trkpt lat="44.82846" lon="6.26871">
        <ele>1438.6</ele>
        <time>2024-08-13T06:51:14Z</time>
      </trkpt>
      <trkpt lat="44.82846" lon="6.26871">
        <ele>1438.6</ele>
        <time>2024-08-13T06:51:15Z</time>
      </trkpt>
      <trkpt lat="44.82844" lon="6.26872">
        <ele>1438.8</ele>
        <time>2024-08-13T06:51:16Z</time>
      </trkpt>
      <trkpt lat="44.82844" lon="6.26872">
        <ele>1438.8</ele>
        <time>2024-08-13T06:51:17Z</time>
      </trkpt>
      <trkpt lat="44.82841" lon="6.26871">
        <ele>1439</ele>
        <time>2024-08-13T06:51:18Z</time>
      </trkpt>
      <trkpt lat="44.82841" lon="6.26871">
        <ele>1439</ele>
        <time>2024-08-13T06:51:19Z</time>
      </trkpt>
      <trkpt lat="44.82839" lon="6.26869">
        <ele>1438.6</ele>
        <time>2024-08-13T06:51:20Z</time>
      </trkpt>
      <trkpt lat="44.82839" lon="6.26869">
        <ele>1438.6</ele>
        <time>2024-08-13T06:51:21Z</time>
      </trkpt>
      <trkpt lat="44.82836" lon="6.26867">
        <ele>1438.6</ele>
        <time>2024-08-13T06:51:22Z</time>
      </trkpt>
      <trkpt lat="44.82834" lon="6.26866">
        <ele>1438.8</ele>
        <time>2024-08-13T06:51:23Z</time>
      </trkpt>
      <trkpt lat="44.82832" lon="6.26865">
        <ele>1438.8</ele>
        <time>2024-08-13T06:51:24Z</time>
      </trkpt>
      <trkpt lat="44.82832" lon="6.26865">
        <ele>1438.8</ele>
        <time>2024-08-13T06:51:25Z</time>
      </trkpt>
      <trkpt lat="44.8283" lon="6.26863">
        <ele>1438.8</ele>
        <time>2024-08-13T06:51:26Z</time>
      </trkpt>
      <trkpt lat="44.8283" lon="6.26863">
        <ele>1438.8</ele>
        <time>2024-08-13T06:51:27Z</time>
      </trkpt>
      <trkpt lat="44.82828" lon="6.2686">
        <ele>1438.8</ele>
        <time>2024-08-13T06:51:28Z</time>
      </trkpt>
      <trkpt lat="44.82828" lon="6.2686">
        <ele>1438.8</ele>
        <time>2024-08-13T06:51:29Z</time>
      </trkpt>
      <trkpt lat="44.82826" lon="6.26858">
        <ele>1438.6</ele>
        <time>2024-08-13T06:51:30Z</time>
      </trkpt>
      <trkpt lat="44.82826" lon="6.26858">
        <ele>1438.4</ele>
        <time>2024-08-13T06:51:31Z</time>
      </trkpt>
      <trkpt lat="44.82823" lon="6.26856">
        <ele>1438.4</ele>
        <time>2024-08-13T06:51:32Z</time>
      </trkpt>
      <trkpt lat="44.82823" lon="6.26856">
        <ele>1438.2</ele>
        <time>2024-08-13T06:51:33Z</time>
      </trkpt>
      <trkpt lat="44.82822" lon="6.26852">
        <ele>1438</ele>
        <time>2024-08-13T06:51:34Z</time>
      </trkpt>
      <trkpt lat="44.82822" lon="6.26852">
        <ele>1438</ele>
        <time>2024-08-13T06:51:35Z</time>
      </trkpt>
      <trkpt lat="44.82821" lon="6.26848">
        <ele>1437.8</ele>
        <time>2024-08-13T06:51:36Z</time>
      </trkpt>
      <trkpt lat="44.82821" lon="6.26848">
        <ele>1437.4</ele>
        <time>2024-08-13T06:51:37Z</time>
      </trkpt>
      <trkpt lat="44.8282" lon="6.26844">
        <ele>1437.4</ele>
        <time>2024-08-13T06:51:38Z</time>
      </trkpt>
      <trkpt lat="44.8282" lon="6.26844">
        <ele>1437.4</ele>
        <time>2024-08-13T06:51:39Z</time>
      </trkpt>
      <trkpt lat="44.82819" lon="6.2684">
        <ele>1437.6</ele>
        <time>2024-08-13T06:51:40Z</time>
      </trkpt>
      <trkpt lat="44.82819" lon="6.2684">
        <ele>1437.6</ele>
        <time>2024-08-13T06:51:41Z</time>
      </trkpt>
      <trkpt lat="44.82818" lon="6.26836">
        <ele>1437.8</ele>
        <time>2024-08-13T06:51:42Z</time>
      </trkpt>
      <trkpt lat="44.82818" lon="6.26836">
        <ele>1437.4</ele>
        <time>2024-08-13T06:51:43Z</time>
      </trkpt>
      <trkpt lat="44.82818" lon="6.26832">
        <ele>1437.2</ele>
        <time>2024-08-13T06:51:44Z</time>
      </trkpt>
      <trkpt lat="44.82818" lon="6.26832">
        <ele>1437.2</ele>
        <time>2024-08-13T06:51:45Z</time>
      </trkpt>
      <trkpt lat="44.82818" lon="6.26828">
        <ele>1437.2</ele>
        <time>2024-08-13T06:51:46Z</time>
      </trkpt>
      <trkpt lat="44.82818" lon="6.26828">
        <ele>1437.4</ele>
        <time>2024-08-13T06:51:47Z</time>
      </trkpt>
      <trkpt lat="44.82816" lon="6.26825">
        <ele>1437.4</ele>
        <time>2024-08-13T06:51:48Z</time>
      </trkpt>
      <trkpt lat="44.82816" lon="6.26825">
        <ele>1437.2</ele>
        <time>2024-08-13T06:51:49Z</time>
      </trkpt>
      <trkpt lat="44.82815" lon="6.26822">
        <ele>1437.2</ele>
        <time>2024-08-13T06:51:50Z</time>
      </trkpt>
      <trkpt lat="44.82815" lon="6.26822">
        <ele>1437</ele>
        <time>2024-08-13T06:51:51Z</time>
      </trkpt>
      <trkpt lat="44.82815" lon="6.26818">
        <ele>1437.2</ele>
        <time>2024-08-13T06:51:52Z</time>
      </trkpt>
      <trkpt lat="44.82815" lon="6.26818">
        <ele>1437</ele>
        <time>2024-08-13T06:51:53Z</time>
      </trkpt>
      <trkpt lat="44.82814" lon="6.26815">
        <ele>1436.8</ele>
        <time>2024-08-13T06:51:54Z</time>
      </trkpt>
      <trkpt lat="44.82814" lon="6.26815">
        <ele>1436.8</ele>
        <time>2024-08-13T06:51:55Z</time>
      </trkpt>
      <trkpt lat="44.82814" lon="6.26811">
        <ele>1436.6</ele>
        <time>2024-08-13T06:51:56Z</time>
      </trkpt>
      <trkpt lat="44.82814" lon="6.26811">
        <ele>1436.6</ele>
        <time>2024-08-13T06:51:57Z</time>
      </trkpt>
      <trkpt lat="44.82815" lon="6.26807">
        <ele>1436.2</ele>
        <time>2024-08-13T06:51:58Z</time>
      </trkpt>
      <trkpt lat="44.82815" lon="6.26807">
        <ele>1436</ele>
        <time>2024-08-13T06:51:59Z</time>
      </trkpt>
      <trkpt lat="44.82816" lon="6.26803">
        <ele>1436</ele>
        <time>2024-08-13T06:52:00Z</time>
      </trkpt>
      <trkpt lat="44.82818" lon="6.26802">
        <ele>1435.8</ele>
        <time>2024-08-13T06:52:01Z</time>
      </trkpt>
      <trkpt lat="44.82818" lon="6.26802">
        <ele>1435.6</ele>
        <time>2024-08-13T06:52:02Z</time>
      </trkpt>
      <trkpt lat="44.8282" lon="6.268">
        <ele>1435.6</ele>
        <time>2024-08-13T06:52:03Z</time>
      </trkpt>
      <trkpt lat="44.8282" lon="6.268">
        <ele>1435.4</ele>
        <time>2024-08-13T06:52:04Z</time>
      </trkpt>
      <trkpt lat="44.82822" lon="6.26798">
        <ele>1435.2</ele>
        <time>2024-08-13T06:52:05Z</time>
      </trkpt>
      <trkpt lat="44.82822" lon="6.26798">
        <ele>1435</ele>
        <time>2024-08-13T06:52:06Z</time>
      </trkpt>
      <trkpt lat="44.82824" lon="6.26796">
        <ele>1435</ele>
        <time>2024-08-13T06:52:07Z</time>
      </trkpt>
      <trkpt lat="44.82824" lon="6.26796">
        <ele>1434.6</ele>
        <time>2024-08-13T06:52:08Z</time>
      </trkpt>
      <trkpt lat="44.82824" lon="6.26793">
        <ele>1434.4</ele>
        <time>2024-08-13T06:52:09Z</time>
      </trkpt>
      <trkpt lat="44.82824" lon="6.26793">
        <ele>1434.2</ele>
        <time>2024-08-13T06:52:10Z</time>
      </trkpt>
      <trkpt lat="44.82826" lon="6.2679">
        <ele>1434</ele>
        <time>2024-08-13T06:52:11Z</time>
      </trkpt>
      <trkpt lat="44.82826" lon="6.2679">
        <ele>1433.6</ele>
        <time>2024-08-13T06:52:12Z</time>
      </trkpt>
      <trkpt lat="44.82826" lon="6.26787">
        <ele>1433.4</ele>
        <time>2024-08-13T06:52:13Z</time>
      </trkpt>
      <trkpt lat="44.82826" lon="6.26787">
        <ele>1433.4</ele>
        <time>2024-08-13T06:52:14Z</time>
      </trkpt>
      <trkpt lat="44.82825" lon="6.26785">
        <ele>1433</ele>
        <time>2024-08-13T06:52:15Z</time>
      </trkpt>
      <trkpt lat="44.82825" lon="6.26785">
        <ele>1432.8</ele>
        <time>2024-08-13T06:52:16Z</time>
      </trkpt>
      <trkpt lat="44.82825" lon="6.26782">
        <ele>1432.8</ele>
        <time>2024-08-13T06:52:17Z</time>
      </trkpt>
      <trkpt lat="44.82825" lon="6.26782">
        <ele>1432.8</ele>
        <time>2024-08-13T06:52:18Z</time>
      </trkpt>
      <trkpt lat="44.82823" lon="6.26779">
        <ele>1432.8</ele>
        <time>2024-08-13T06:52:19Z</time>
      </trkpt>
      <trkpt lat="44.82823" lon="6.26779">
        <ele>1432.8</ele>
        <time>2024-08-13T06:52:20Z</time>
      </trkpt>
      <trkpt lat="44.82822" lon="6.26777">
        <ele>1433.2</ele>
        <time>2024-08-13T06:52:21Z</time>
      </trkpt>
      <trkpt lat="44.82822" lon="6.26777">
        <ele>1433.4</ele>
        <time>2024-08-13T06:52:22Z</time>
      </trkpt>
      <trkpt lat="44.82819" lon="6.26775">
        <ele>1433.8</ele>
        <time>2024-08-13T06:52:23Z</time>
      </trkpt>
      <trkpt lat="44.82819" lon="6.26775">
        <ele>1433.8</ele>
        <time>2024-08-13T06:52:24Z</time>
      </trkpt>
      <trkpt lat="44.82817" lon="6.26774">
        <ele>1433.6</ele>
        <time>2024-08-13T06:52:25Z</time>
      </trkpt>
      <trkpt lat="44.82817" lon="6.26774">
        <ele>1433.6</ele>
        <time>2024-08-13T06:52:26Z</time>
      </trkpt>
      <trkpt lat="44.82815" lon="6.26772">
        <ele>1433.4</ele>
        <time>2024-08-13T06:52:27Z</time>
      </trkpt>
      <trkpt lat="44.82815" lon="6.26772">
        <ele>1433.4</ele>
        <time>2024-08-13T06:52:28Z</time>
      </trkpt>
      <trkpt lat="44.82813" lon="6.2677">
        <ele>1433.4</ele>
        <time>2024-08-13T06:52:29Z</time>
      </trkpt>
      <trkpt lat="44.82813" lon="6.2677">
        <ele>1433.2</ele>
        <time>2024-08-13T06:52:30Z</time>
      </trkpt>
      <trkpt lat="44.8281" lon="6.26769">
        <ele>1433</ele>
        <time>2024-08-13T06:52:31Z</time>
      </trkpt>
      <trkpt lat="44.8281" lon="6.26769">
        <ele>1432.8</ele>
        <time>2024-08-13T06:52:32Z</time>
      </trkpt>
      <trkpt lat="44.82808" lon="6.26769">
        <ele>1432.8</ele>
        <time>2024-08-13T06:52:33Z</time>
      </trkpt>
      <trkpt lat="44.82808" lon="6.26769">
        <ele>1432.8</ele>
        <time>2024-08-13T06:52:34Z</time>
      </trkpt>
      <trkpt lat="44.82805" lon="6.26768">
        <ele>1433</ele>
        <time>2024-08-13T06:52:35Z</time>
      </trkpt>
      <trkpt lat="44.82805" lon="6.26768">
        <ele>1432.8</ele>
        <time>2024-08-13T06:52:36Z</time>
      </trkpt>
      <trkpt lat="44.82803" lon="6.26765">
        <ele>1432.2</ele>
        <time>2024-08-13T06:52:37Z</time>
      </trkpt>
      <trkpt lat="44.82803" lon="6.26765">
        <ele>1432</ele>
        <time>2024-08-13T06:52:38Z</time>
      </trkpt>
      <trkpt lat="44.82803" lon="6.26763">
        <ele>1432</ele>
        <time>2024-08-13T06:52:39Z</time>
      </trkpt>
      <trkpt lat="44.82803" lon="6.26763">
        <ele>1431.8</ele>
        <time>2024-08-13T06:52:40Z</time>
      </trkpt>
      <trkpt lat="44.82801" lon="6.2676">
        <ele>1431.6</ele>
        <time>2024-08-13T06:52:41Z</time>
      </trkpt>
      <trkpt lat="44.82801" lon="6.2676">
        <ele>1431.2</ele>
        <time>2024-08-13T06:52:42Z</time>
      </trkpt>
      <trkpt lat="44.82801" lon="6.26756">
        <ele>1431.2</ele>
        <time>2024-08-13T06:52:43Z</time>
      </trkpt>
      <trkpt lat="44.82801" lon="6.26756">
        <ele>1431</ele>
        <time>2024-08-13T06:52:44Z</time>
      </trkpt>
      <trkpt lat="44.828" lon="6.26752">
        <ele>1430.8</ele>
        <time>2024-08-13T06:52:45Z</time>
      </trkpt>
      <trkpt lat="44.828" lon="6.26752">
        <ele>1430.2</ele>
        <time>2024-08-13T06:52:46Z</time>
      </trkpt>
      <trkpt lat="44.828" lon="6.26749">
        <ele>1430</ele>
        <time>2024-08-13T06:52:47Z</time>
      </trkpt>
      <trkpt lat="44.828" lon="6.26749">
        <ele>1429.8</ele>
        <time>2024-08-13T06:52:48Z</time>
      </trkpt>
      <trkpt lat="44.82799" lon="6.26746">
        <ele>1429.8</ele>
        <time>2024-08-13T06:52:49Z</time>
      </trkpt>
      <trkpt lat="44.82799" lon="6.26746">
        <ele>1429.8</ele>
        <time>2024-08-13T06:52:50Z</time>
      </trkpt>
      <trkpt lat="44.82798" lon="6.26744">
        <ele>1429.8</ele>
        <time>2024-08-13T06:52:51Z</time>
      </trkpt>
      <trkpt lat="44.82798" lon="6.26744">
        <ele>1429.8</ele>
        <time>2024-08-13T06:52:52Z</time>
      </trkpt>
      <trkpt lat="44.82796" lon="6.26742">
        <ele>1429.6</ele>
        <time>2024-08-13T06:52:53Z</time>
      </trkpt>
      <trkpt lat="44.82796" lon="6.26742">
        <ele>1429.4</ele>
        <time>2024-08-13T06:52:54Z</time>
      </trkpt>
      <trkpt lat="44.82795" lon="6.26739">
        <ele>1429</ele>
        <time>2024-08-13T06:52:55Z</time>
      </trkpt>
      <trkpt lat="44.82795" lon="6.26739">
        <ele>1428.8</ele>
        <time>2024-08-13T06:52:56Z</time>
      </trkpt>
      <trkpt lat="44.82793" lon="6.26736">
        <ele>1428.8</ele>
        <time>2024-08-13T06:52:57Z</time>
      </trkpt>
      <trkpt lat="44.82793" lon="6.26736">
        <ele>1428.8</ele>
        <time>2024-08-13T06:52:58Z</time>
      </trkpt>
      <trkpt lat="44.82792" lon="6.26733">
        <ele>1428.4</ele>
        <time>2024-08-13T06:52:59Z</time>
      </trkpt>
      <trkpt lat="44.82792" lon="6.26733">
        <ele>1428.2</ele>
        <time>2024-08-13T06:53:00Z</time>
      </trkpt>
      <trkpt lat="44.82791" lon="6.2673">
        <ele>1428</ele>
        <time>2024-08-13T06:53:01Z</time>
      </trkpt>
      <trkpt lat="44.82791" lon="6.2673">
        <ele>1427.4</ele>
        <time>2024-08-13T06:53:02Z</time>
      </trkpt>
      <trkpt lat="44.8279" lon="6.26727">
        <ele>1427.4</ele>
        <time>2024-08-13T06:53:03Z</time>
      </trkpt>
      <trkpt lat="44.8279" lon="6.26727">
        <ele>1427.4</ele>
        <time>2024-08-13T06:53:04Z</time>
      </trkpt>
      <trkpt lat="44.82789" lon="6.26723">
        <ele>1427.2</ele>
        <time>2024-08-13T06:53:05Z</time>
      </trkpt>
      <trkpt lat="44.82789" lon="6.26723">
        <ele>1427</ele>
        <time>2024-08-13T06:53:06Z</time>
      </trkpt>
      <trkpt lat="44.82788" lon="6.2672">
        <ele>1426.8</ele>
        <time>2024-08-13T06:53:07Z</time>
      </trkpt>
      <trkpt lat="44.82788" lon="6.2672">
        <ele>1426.6</ele>
        <time>2024-08-13T06:53:08Z</time>
      </trkpt>
      <trkpt lat="44.82787" lon="6.26716">
        <ele>1426.2</ele>
        <time>2024-08-13T06:53:09Z</time>
      </trkpt>
      <trkpt lat="44.82787" lon="6.26716">
        <ele>1426</ele>
        <time>2024-08-13T06:53:10Z</time>
      </trkpt>
      <trkpt lat="44.82786" lon="6.26714">
        <ele>1425.6</ele>
        <time>2024-08-13T06:53:11Z</time>
      </trkpt>
      <trkpt lat="44.82786" lon="6.26714">
        <ele>1425.4</ele>
        <time>2024-08-13T06:53:12Z</time>
      </trkpt>
      <trkpt lat="44.82785" lon="6.2671">
        <ele>1425.4</ele>
        <time>2024-08-13T06:53:13Z</time>
      </trkpt>
      <trkpt lat="44.82785" lon="6.2671">
        <ele>1425.2</ele>
        <time>2024-08-13T06:53:14Z</time>
      </trkpt>
      <trkpt lat="44.82785" lon="6.26706">
        <ele>1425.2</ele>
        <time>2024-08-13T06:53:15Z</time>
      </trkpt>
      <trkpt lat="44.82785" lon="6.26706">
        <ele>1425.2</ele>
        <time>2024-08-13T06:53:16Z</time>
      </trkpt>
      <trkpt lat="44.82784" lon="6.26703">
        <ele>1424.8</ele>
        <time>2024-08-13T06:53:17Z</time>
      </trkpt>
      <trkpt lat="44.82784" lon="6.26703">
        <ele>1424.6</ele>
        <time>2024-08-13T06:53:18Z</time>
      </trkpt>
      <trkpt lat="44.82783" lon="6.267">
        <ele>1424.4</ele>
        <time>2024-08-13T06:53:19Z</time>
      </trkpt>
      <trkpt lat="44.82783" lon="6.267">
        <ele>1424.4</ele>
        <time>2024-08-13T06:53:20Z</time>
      </trkpt>
      <trkpt lat="44.82782" lon="6.26698">
        <ele>1424.2</ele>
        <time>2024-08-13T06:53:21Z</time>
      </trkpt>
      <trkpt lat="44.82782" lon="6.26698">
        <ele>1424</ele>
        <time>2024-08-13T06:53:22Z</time>
      </trkpt>
      <trkpt lat="44.82781" lon="6.26695">
        <ele>1424</ele>
        <time>2024-08-13T06:53:23Z</time>
      </trkpt>
      <trkpt lat="44.82781" lon="6.26695">
        <ele>1423.8</ele>
        <time>2024-08-13T06:53:24Z</time>
      </trkpt>
      <trkpt lat="44.8278" lon="6.26692">
        <ele>1423.6</ele>
        <time>2024-08-13T06:53:25Z</time>
      </trkpt>
      <trkpt lat="44.8278" lon="6.26692">
        <ele>1423.4</ele>
        <time>2024-08-13T06:53:26Z</time>
      </trkpt>
      <trkpt lat="44.82779" lon="6.26689">
        <ele>1423</ele>
        <time>2024-08-13T06:53:27Z</time>
      </trkpt>
      <trkpt lat="44.82779" lon="6.26689">
        <ele>1422.8</ele>
        <time>2024-08-13T06:53:28Z</time>
      </trkpt>
      <trkpt lat="44.82779" lon="6.26686">
        <ele>1422.8</ele>
        <time>2024-08-13T06:53:29Z</time>
      </trkpt>
      <trkpt lat="44.82779" lon="6.26686">
        <ele>1422.4</ele>
        <time>2024-08-13T06:53:30Z</time>
      </trkpt>
      <trkpt lat="44.82777" lon="6.26684">
        <ele>1422</ele>
        <time>2024-08-13T06:53:31Z</time>
      </trkpt>
      <trkpt lat="44.82777" lon="6.26684">
        <ele>1422</ele>
        <time>2024-08-13T06:53:32Z</time>
      </trkpt>
      <trkpt lat="44.82775" lon="6.26681">
        <ele>1421.6</ele>
        <time>2024-08-13T06:53:33Z</time>
      </trkpt>
      <trkpt lat="44.82775" lon="6.26681">
        <ele>1421.4</ele>
        <time>2024-08-13T06:53:34Z</time>
      </trkpt>
      <trkpt lat="44.82774" lon="6.26679">
        <ele>1421.2</ele>
        <time>2024-08-13T06:53:35Z</time>
      </trkpt>
      <trkpt lat="44.82774" lon="6.26679">
        <ele>1421</ele>
        <time>2024-08-13T06:53:36Z</time>
      </trkpt>
      <trkpt lat="44.82773" lon="6.26676">
        <ele>1420.8</ele>
        <time>2024-08-13T06:53:37Z</time>
      </trkpt>
      <trkpt lat="44.82773" lon="6.26676">
        <ele>1420.4</ele>
        <time>2024-08-13T06:53:38Z</time>
      </trkpt>
      <trkpt lat="44.82773" lon="6.26673">
        <ele>1420.2</ele>
        <time>2024-08-13T06:53:39Z</time>
      </trkpt>
      <trkpt lat="44.82773" lon="6.26673">
        <ele>1419.8</ele>
        <time>2024-08-13T06:53:40Z</time>
      </trkpt>
      <trkpt lat="44.82773" lon="6.26669">
        <ele>1419.8</ele>
        <time>2024-08-13T06:53:41Z</time>
      </trkpt>
      <trkpt lat="44.82773" lon="6.26669">
        <ele>1419.8</ele>
        <time>2024-08-13T06:53:42Z</time>
      </trkpt>
      <trkpt lat="44.82772" lon="6.26666">
        <ele>1419.6</ele>
        <time>2024-08-13T06:53:43Z</time>
      </trkpt>
      <trkpt lat="44.82772" lon="6.26666">
        <ele>1419.6</ele>
        <time>2024-08-13T06:53:44Z</time>
      </trkpt>
      <trkpt lat="44.82771" lon="6.26663">
        <ele>1419.4</ele>
        <time>2024-08-13T06:53:45Z</time>
      </trkpt>
      <trkpt lat="44.82771" lon="6.26663">
        <ele>1419.2</ele>
        <time>2024-08-13T06:53:46Z</time>
      </trkpt>
      <trkpt lat="44.82769" lon="6.26659">
        <ele>1419</ele>
        <time>2024-08-13T06:53:47Z</time>
      </trkpt>
      <trkpt lat="44.82769" lon="6.26659">
        <ele>1418.8</ele>
        <time>2024-08-13T06:53:48Z</time>
      </trkpt>
      <trkpt lat="44.82768" lon="6.26656">
        <ele>1418.8</ele>
        <time>2024-08-13T06:53:49Z</time>
      </trkpt>
      <trkpt lat="44.82768" lon="6.26656">
        <ele>1418.6</ele>
        <time>2024-08-13T06:53:50Z</time>
      </trkpt>
      <trkpt lat="44.82768" lon="6.26652">
        <ele>1418.2</ele>
        <time>2024-08-13T06:53:51Z</time>
      </trkpt>
      <trkpt lat="44.82768" lon="6.26652">
        <ele>1418.2</ele>
        <time>2024-08-13T06:53:52Z</time>
      </trkpt>
      <trkpt lat="44.82767" lon="6.26648">
        <ele>1418</ele>
        <time>2024-08-13T06:53:53Z</time>
      </trkpt>
      <trkpt lat="44.82767" lon="6.26648">
        <ele>1418.2</ele>
        <time>2024-08-13T06:53:54Z</time>
      </trkpt>
      <trkpt lat="44.82767" lon="6.26645">
        <ele>1418</ele>
        <time>2024-08-13T06:53:55Z</time>
      </trkpt>
      <trkpt lat="44.82767" lon="6.26645">
        <ele>1417.8</ele>
        <time>2024-08-13T06:53:56Z</time>
      </trkpt>
      <trkpt lat="44.82767" lon="6.26641">
        <ele>1417.8</ele>
        <time>2024-08-13T06:53:57Z</time>
      </trkpt>
      <trkpt lat="44.82767" lon="6.26641">
        <ele>1417.6</ele>
        <time>2024-08-13T06:53:58Z</time>
      </trkpt>
      <trkpt lat="44.82767" lon="6.26637">
        <ele>1417.4</ele>
        <time>2024-08-13T06:53:59Z</time>
      </trkpt>
      <trkpt lat="44.82767" lon="6.26637">
        <ele>1417.4</ele>
        <time>2024-08-13T06:54:00Z</time>
      </trkpt>
      <trkpt lat="44.82767" lon="6.26633">
        <ele>1417.2</ele>
        <time>2024-08-13T06:54:01Z</time>
      </trkpt>
      <trkpt lat="44.82767" lon="6.26633">
        <ele>1416.8</ele>
        <time>2024-08-13T06:54:02Z</time>
      </trkpt>
      <trkpt lat="44.82767" lon="6.26629">
        <ele>1416.8</ele>
        <time>2024-08-13T06:54:03Z</time>
      </trkpt>
      <trkpt lat="44.82767" lon="6.26629">
        <ele>1416.8</ele>
        <time>2024-08-13T06:54:04Z</time>
      </trkpt>
      <trkpt lat="44.82767" lon="6.26625">
        <ele>1416.8</ele>
        <time>2024-08-13T06:54:05Z</time>
      </trkpt>
      <trkpt lat="44.82767" lon="6.26625">
        <ele>1416.6</ele>
        <time>2024-08-13T06:54:06Z</time>
      </trkpt>
      <trkpt lat="44.82766" lon="6.26622">
        <ele>1416.6</ele>
        <time>2024-08-13T06:54:07Z</time>
      </trkpt>
      <trkpt lat="44.82766" lon="6.26622">
        <ele>1416.4</ele>
        <time>2024-08-13T06:54:08Z</time>
      </trkpt>
      <trkpt lat="44.82766" lon="6.26618">
        <ele>1416.2</ele>
        <time>2024-08-13T06:54:09Z</time>
      </trkpt>
      <trkpt lat="44.82766" lon="6.26618">
        <ele>1416.2</ele>
        <time>2024-08-13T06:54:10Z</time>
      </trkpt>
      <trkpt lat="44.82766" lon="6.26614">
        <ele>1416</ele>
        <time>2024-08-13T06:54:11Z</time>
      </trkpt>
      <trkpt lat="44.82766" lon="6.26614">
        <ele>1416</ele>
        <time>2024-08-13T06:54:12Z</time>
      </trkpt>
      <trkpt lat="44.82765" lon="6.2661">
        <ele>1416</ele>
        <time>2024-08-13T06:54:13Z</time>
      </trkpt>
      <trkpt lat="44.82765" lon="6.2661">
        <ele>1416</ele>
        <time>2024-08-13T06:54:14Z</time>
      </trkpt>
      <trkpt lat="44.82765" lon="6.26607">
        <ele>1415.8</ele>
        <time>2024-08-13T06:54:15Z</time>
      </trkpt>
      <trkpt lat="44.82765" lon="6.26607">
        <ele>1415.6</ele>
        <time>2024-08-13T06:54:16Z</time>
      </trkpt>
      <trkpt lat="44.82763" lon="6.26603">
        <ele>1415.6</ele>
        <time>2024-08-13T06:54:17Z</time>
      </trkpt>
      <trkpt lat="44.82763" lon="6.26603">
        <ele>1415.4</ele>
        <time>2024-08-13T06:54:18Z</time>
      </trkpt>
      <trkpt lat="44.82761" lon="6.266">
        <ele>1415.4</ele>
        <time>2024-08-13T06:54:19Z</time>
      </trkpt>
      <trkpt lat="44.82761" lon="6.266">
        <ele>1415.2</ele>
        <time>2024-08-13T06:54:20Z</time>
      </trkpt>
      <trkpt lat="44.82759" lon="6.26597">
        <ele>1415</ele>
        <time>2024-08-13T06:54:21Z</time>
      </trkpt>
      <trkpt lat="44.82759" lon="6.26597">
        <ele>1415</ele>
        <time>2024-08-13T06:54:22Z</time>
      </trkpt>
      <trkpt lat="44.82757" lon="6.26595">
        <ele>1414.8</ele>
        <time>2024-08-13T06:54:23Z</time>
      </trkpt>
      <trkpt lat="44.82757" lon="6.26595">
        <ele>1414.6</ele>
        <time>2024-08-13T06:54:24Z</time>
      </trkpt>
      <trkpt lat="44.82757" lon="6.26592">
        <ele>1414.4</ele>
        <time>2024-08-13T06:54:25Z</time>
      </trkpt>
      <trkpt lat="44.82757" lon="6.26592">
        <ele>1414.4</ele>
        <time>2024-08-13T06:54:26Z</time>
      </trkpt>
      <trkpt lat="44.82755" lon="6.26588">
        <ele>1414.2</ele>
        <time>2024-08-13T06:54:27Z</time>
      </trkpt>
      <trkpt lat="44.82755" lon="6.26588">
        <ele>1414.2</ele>
        <time>2024-08-13T06:54:28Z</time>
      </trkpt>
      <trkpt lat="44.82754" lon="6.26585">
        <ele>1414.4</ele>
        <time>2024-08-13T06:54:29Z</time>
      </trkpt>
      <trkpt lat="44.82754" lon="6.26585">
        <ele>1414.4</ele>
        <time>2024-08-13T06:54:30Z</time>
      </trkpt>
      <trkpt lat="44.82753" lon="6.26582">
        <ele>1414</ele>
        <time>2024-08-13T06:54:31Z</time>
      </trkpt>
      <trkpt lat="44.82753" lon="6.26582">
        <ele>1414</ele>
        <time>2024-08-13T06:54:32Z</time>
      </trkpt>
      <trkpt lat="44.82751" lon="6.26578">
        <ele>1414</ele>
        <time>2024-08-13T06:54:33Z</time>
      </trkpt>
      <trkpt lat="44.82751" lon="6.26578">
        <ele>1413.8</ele>
        <time>2024-08-13T06:54:34Z</time>
      </trkpt>
      <trkpt lat="44.82751" lon="6.26575">
        <ele>1413.8</ele>
        <time>2024-08-13T06:54:35Z</time>
      </trkpt>
      <trkpt lat="44.82751" lon="6.26575">
        <ele>1413.8</ele>
        <time>2024-08-13T06:54:36Z</time>
      </trkpt>
      <trkpt lat="44.8275" lon="6.26572">
        <ele>1413.8</ele>
        <time>2024-08-13T06:54:37Z</time>
      </trkpt>
      <trkpt lat="44.8275" lon="6.26572">
        <ele>1413.8</ele>
        <time>2024-08-13T06:54:38Z</time>
      </trkpt>
      <trkpt lat="44.82749" lon="6.26569">
        <ele>1413.8</ele>
        <time>2024-08-13T06:54:39Z</time>
      </trkpt>
      <trkpt lat="44.82749" lon="6.26569">
        <ele>1413.6</ele>
        <time>2024-08-13T06:54:40Z</time>
      </trkpt>
      <trkpt lat="44.82749" lon="6.26566">
        <ele>1413.6</ele>
        <time>2024-08-13T06:54:41Z</time>
      </trkpt>
      <trkpt lat="44.82749" lon="6.26566">
        <ele>1414</ele>
        <time>2024-08-13T06:54:42Z</time>
      </trkpt>
      <trkpt lat="44.82749" lon="6.26563">
        <ele>1414</ele>
        <time>2024-08-13T06:54:43Z</time>
      </trkpt>
      <trkpt lat="44.82749" lon="6.26563">
        <ele>1414</ele>
        <time>2024-08-13T06:54:44Z</time>
      </trkpt>
      <trkpt lat="44.82748" lon="6.2656">
        <ele>1414</ele>
        <time>2024-08-13T06:54:45Z</time>
      </trkpt>
      <trkpt lat="44.82748" lon="6.2656">
        <ele>1413.8</ele>
        <time>2024-08-13T06:54:46Z</time>
      </trkpt>
      <trkpt lat="44.82747" lon="6.26557">
        <ele>1413.8</ele>
        <time>2024-08-13T06:54:47Z</time>
      </trkpt>
      <trkpt lat="44.82747" lon="6.26557">
        <ele>1413.6</ele>
        <time>2024-08-13T06:54:48Z</time>
      </trkpt>
      <trkpt lat="44.82745" lon="6.26554">
        <ele>1413.2</ele>
        <time>2024-08-13T06:54:49Z</time>
      </trkpt>
      <trkpt lat="44.82745" lon="6.26554">
        <ele>1413</ele>
        <time>2024-08-13T06:54:50Z</time>
      </trkpt>
      <trkpt lat="44.82745" lon="6.2655">
        <ele>1413</ele>
        <time>2024-08-13T06:54:51Z</time>
      </trkpt>
      <trkpt lat="44.82745" lon="6.2655">
        <ele>1413</ele>
        <time>2024-08-13T06:54:52Z</time>
      </trkpt>
      <trkpt lat="44.82746" lon="6.26547">
        <ele>1413</ele>
        <time>2024-08-13T06:54:53Z</time>
      </trkpt>
      <trkpt lat="44.82746" lon="6.26547">
        <ele>1413.2</ele>
        <time>2024-08-13T06:54:54Z</time>
      </trkpt>
      <trkpt lat="44.82745" lon="6.26544">
        <ele>1413.2</ele>
        <time>2024-08-13T06:54:55Z</time>
      </trkpt>
      <trkpt lat="44.82745" lon="6.26544">
        <ele>1413.2</ele>
        <time>2024-08-13T06:54:56Z</time>
      </trkpt>
      <trkpt lat="44.82745" lon="6.2654">
        <ele>1413.2</ele>
        <time>2024-08-13T06:54:57Z</time>
      </trkpt>
      <trkpt lat="44.82745" lon="6.2654">
        <ele>1413.6</ele>
        <time>2024-08-13T06:54:58Z</time>
      </trkpt>
      <trkpt lat="44.82745" lon="6.26537">
        <ele>1413.6</ele>
        <time>2024-08-13T06:54:59Z</time>
      </trkpt>
      <trkpt lat="44.82745" lon="6.26537">
        <ele>1413.6</ele>
        <time>2024-08-13T06:55:00Z</time>
      </trkpt>
      <trkpt lat="44.82745" lon="6.26533">
        <ele>1413.6</ele>
        <time>2024-08-13T06:55:01Z</time>
      </trkpt>
      <trkpt lat="44.82745" lon="6.26533">
        <ele>1413</ele>
        <time>2024-08-13T06:55:02Z</time>
      </trkpt>
      <trkpt lat="44.82744" lon="6.2653">
        <ele>1413</ele>
        <time>2024-08-13T06:55:03Z</time>
      </trkpt>
      <trkpt lat="44.82744" lon="6.2653">
        <ele>1413</ele>
        <time>2024-08-13T06:55:04Z</time>
      </trkpt>
      <trkpt lat="44.82743" lon="6.26526">
        <ele>1413</ele>
        <time>2024-08-13T06:55:05Z</time>
      </trkpt>
      <trkpt lat="44.82743" lon="6.26526">
        <ele>1412.8</ele>
        <time>2024-08-13T06:55:06Z</time>
      </trkpt>
      <trkpt lat="44.82742" lon="6.26522">
        <ele>1412.8</ele>
        <time>2024-08-13T06:55:07Z</time>
      </trkpt>
      <trkpt lat="44.82742" lon="6.26522">
        <ele>1412.8</ele>
        <time>2024-08-13T06:55:08Z</time>
      </trkpt>
      <trkpt lat="44.82741" lon="6.26519">
        <ele>1413</ele>
        <time>2024-08-13T06:55:09Z</time>
      </trkpt>
      <trkpt lat="44.82741" lon="6.26519">
        <ele>1413</ele>
        <time>2024-08-13T06:55:10Z</time>
      </trkpt>
      <trkpt lat="44.8274" lon="6.26515">
        <ele>1413</ele>
        <time>2024-08-13T06:55:11Z</time>
      </trkpt>
      <trkpt lat="44.8274" lon="6.26515">
        <ele>1413</ele>
        <time>2024-08-13T06:55:12Z</time>
      </trkpt>
      <trkpt lat="44.8274" lon="6.26512">
        <ele>1412.8</ele>
        <time>2024-08-13T06:55:13Z</time>
      </trkpt>
      <trkpt lat="44.8274" lon="6.26512">
        <ele>1412.8</ele>
        <time>2024-08-13T06:55:14Z</time>
      </trkpt>
      <trkpt lat="44.82739" lon="6.26509">
        <ele>1412.8</ele>
        <time>2024-08-13T06:55:15Z</time>
      </trkpt>
      <trkpt lat="44.82739" lon="6.26509">
        <ele>1412.8</ele>
        <time>2024-08-13T06:55:16Z</time>
      </trkpt>
      <trkpt lat="44.82738" lon="6.26506">
        <ele>1412.4</ele>
        <time>2024-08-13T06:55:17Z</time>
      </trkpt>
      <trkpt lat="44.82738" lon="6.26506">
        <ele>1412.4</ele>
        <time>2024-08-13T06:55:18Z</time>
      </trkpt>
      <trkpt lat="44.82737" lon="6.26502">
        <ele>1412</ele>
        <time>2024-08-13T06:55:19Z</time>
      </trkpt>
      <trkpt lat="44.82737" lon="6.26502">
        <ele>1411.8</ele>
        <time>2024-08-13T06:55:20Z</time>
      </trkpt>
      <trkpt lat="44.82736" lon="6.26498">
        <ele>1411.8</ele>
        <time>2024-08-13T06:55:21Z</time>
      </trkpt>
      <trkpt lat="44.82736" lon="6.26498">
        <ele>1411.6</ele>
        <time>2024-08-13T06:55:22Z</time>
      </trkpt>
      <trkpt lat="44.82736" lon="6.26494">
        <ele>1411.4</ele>
        <time>2024-08-13T06:55:23Z</time>
      </trkpt>
      <trkpt lat="44.82736" lon="6.26494">
        <ele>1411.4</ele>
        <time>2024-08-13T06:55:24Z</time>
      </trkpt>
      <trkpt lat="44.82736" lon="6.2649">
        <ele>1411.4</ele>
        <time>2024-08-13T06:55:25Z</time>
      </trkpt>
      <trkpt lat="44.82736" lon="6.2649">
        <ele>1411.4</ele>
        <time>2024-08-13T06:55:26Z</time>
      </trkpt>
      <trkpt lat="44.82736" lon="6.26486">
        <ele>1411.6</ele>
        <time>2024-08-13T06:55:27Z</time>
      </trkpt>
      <trkpt lat="44.82736" lon="6.26486">
        <ele>1411.8</ele>
        <time>2024-08-13T06:55:28Z</time>
      </trkpt>
      <trkpt lat="44.82736" lon="6.26483">
        <ele>1412</ele>
        <time>2024-08-13T06:55:29Z</time>
      </trkpt>
      <trkpt lat="44.82736" lon="6.26483">
        <ele>1412</ele>
        <time>2024-08-13T06:55:30Z</time>
      </trkpt>
      <trkpt lat="44.82737" lon="6.2648">
        <ele>1412</ele>
        <time>2024-08-13T06:55:31Z</time>
      </trkpt>
      <trkpt lat="44.82737" lon="6.2648">
        <ele>1412.2</ele>
        <time>2024-08-13T06:55:32Z</time>
      </trkpt>
      <trkpt lat="44.82738" lon="6.26477">
        <ele>1412.6</ele>
        <time>2024-08-13T06:55:33Z</time>
      </trkpt>
      <trkpt lat="44.82738" lon="6.26477">
        <ele>1412.8</ele>
        <time>2024-08-13T06:55:34Z</time>
      </trkpt>
      <trkpt lat="44.82739" lon="6.26474">
        <ele>1412.8</ele>
        <time>2024-08-13T06:55:35Z</time>
      </trkpt>
      <trkpt lat="44.82739" lon="6.26474">
        <ele>1412.8</ele>
        <time>2024-08-13T06:55:36Z</time>
      </trkpt>
      <trkpt lat="44.8274" lon="6.26471">
        <ele>1413</ele>
        <time>2024-08-13T06:55:37Z</time>
      </trkpt>
      <trkpt lat="44.8274" lon="6.26471">
        <ele>1413.2</ele>
        <time>2024-08-13T06:55:38Z</time>
      </trkpt>
      <trkpt lat="44.8274" lon="6.26467">
        <ele>1413.4</ele>
        <time>2024-08-13T06:55:39Z</time>
      </trkpt>
      <trkpt lat="44.8274" lon="6.26467">
        <ele>1413.4</ele>
        <time>2024-08-13T06:55:40Z</time>
      </trkpt>
      <trkpt lat="44.8274" lon="6.26464">
        <ele>1413.6</ele>
        <time>2024-08-13T06:55:41Z</time>
      </trkpt>
      <trkpt lat="44.8274" lon="6.26464">
        <ele>1413.4</ele>
        <time>2024-08-13T06:55:42Z</time>
      </trkpt>
      <trkpt lat="44.8274" lon="6.2646">
        <ele>1413.4</ele>
        <time>2024-08-13T06:55:43Z</time>
      </trkpt>
      <trkpt lat="44.8274" lon="6.2646">
        <ele>1413.4</ele>
        <time>2024-08-13T06:55:44Z</time>
      </trkpt>
      <trkpt lat="44.82741" lon="6.26456">
        <ele>1413.4</ele>
        <time>2024-08-13T06:55:45Z</time>
      </trkpt>
      <trkpt lat="44.82741" lon="6.26456">
        <ele>1413.6</ele>
        <time>2024-08-13T06:55:46Z</time>
      </trkpt>
      <trkpt lat="44.82741" lon="6.26453">
        <ele>1413.8</ele>
        <time>2024-08-13T06:55:47Z</time>
      </trkpt>
      <trkpt lat="44.82741" lon="6.26453">
        <ele>1413.8</ele>
        <time>2024-08-13T06:55:48Z</time>
      </trkpt>
      <trkpt lat="44.82741" lon="6.26453">
        <ele>1413.8</ele>
        <time>2024-08-13T06:55:49Z</time>
      </trkpt>
      <trkpt lat="44.82741" lon="6.2645">
        <ele>1414.2</ele>
        <time>2024-08-13T06:55:50Z</time>
      </trkpt>
      <trkpt lat="44.82741" lon="6.2645">
        <ele>1414.2</ele>
        <time>2024-08-13T06:55:51Z</time>
      </trkpt>
      <trkpt lat="44.82741" lon="6.26447">
        <ele>1414.4</ele>
        <time>2024-08-13T06:55:52Z</time>
      </trkpt>
      <trkpt lat="44.82741" lon="6.26447">
        <ele>1414.6</ele>
        <time>2024-08-13T06:55:53Z</time>
      </trkpt>
      <trkpt lat="44.82741" lon="6.26444">
        <ele>1414.8</ele>
        <time>2024-08-13T06:55:54Z</time>
      </trkpt>
      <trkpt lat="44.82741" lon="6.26444">
        <ele>1415</ele>
        <time>2024-08-13T06:55:55Z</time>
      </trkpt>
      <trkpt lat="44.8274" lon="6.26442">
        <ele>1415.4</ele>
        <time>2024-08-13T06:55:56Z</time>
      </trkpt>
      <trkpt lat="44.8274" lon="6.26442">
        <ele>1415.6</ele>
        <time>2024-08-13T06:55:57Z</time>
      </trkpt>
      <trkpt lat="44.82739" lon="6.26438">
        <ele>1415.6</ele>
        <time>2024-08-13T06:55:58Z</time>
      </trkpt>
      <trkpt lat="44.82739" lon="6.26438">
        <ele>1415.4</ele>
        <time>2024-08-13T06:55:59Z</time>
      </trkpt>
      <trkpt lat="44.82738" lon="6.26434">
        <ele>1415.2</ele>
        <time>2024-08-13T06:56:00Z</time>
      </trkpt>
      <trkpt lat="44.82738" lon="6.26434">
        <ele>1415.2</ele>
        <time>2024-08-13T06:56:01Z</time>
      </trkpt>
      <trkpt lat="44.82738" lon="6.2643">
        <ele>1415.2</ele>
        <time>2024-08-13T06:56:02Z</time>
      </trkpt>
      <trkpt lat="44.82738" lon="6.2643">
        <ele>1415.2</ele>
        <time>2024-08-13T06:56:03Z</time>
      </trkpt>
      <trkpt lat="44.82739" lon="6.26427">
        <ele>1415.2</ele>
        <time>2024-08-13T06:56:04Z</time>
      </trkpt>
      <trkpt lat="44.82739" lon="6.26427">
        <ele>1415.2</ele>
        <time>2024-08-13T06:56:05Z</time>
      </trkpt>
      <trkpt lat="44.82739" lon="6.26427">
        <ele>1415.4</ele>
        <time>2024-08-13T06:56:06Z</time>
      </trkpt>
      <trkpt lat="44.82739" lon="6.26423">
        <ele>1415.4</ele>
        <time>2024-08-13T06:56:07Z</time>
      </trkpt>
      <trkpt lat="44.82739" lon="6.26423">
        <ele>1415.4</ele>
        <time>2024-08-13T06:56:08Z</time>
      </trkpt>
      <trkpt lat="44.82739" lon="6.26423">
        <ele>1415.6</ele>
        <time>2024-08-13T06:56:09Z</time>
      </trkpt>
      <trkpt lat="44.82739" lon="6.2642">
        <ele>1415.8</ele>
        <time>2024-08-13T06:56:10Z</time>
      </trkpt>
      <trkpt lat="44.82739" lon="6.2642">
        <ele>1416.2</ele>
        <time>2024-08-13T06:56:11Z</time>
      </trkpt>
      <trkpt lat="44.82739" lon="6.26416">
        <ele>1416.2</ele>
        <time>2024-08-13T06:56:12Z</time>
      </trkpt>
      <trkpt lat="44.82739" lon="6.26416">
        <ele>1416.2</ele>
        <time>2024-08-13T06:56:13Z</time>
      </trkpt>
      <trkpt lat="44.82737" lon="6.26413">
        <ele>1416.4</ele>
        <time>2024-08-13T06:56:14Z</time>
      </trkpt>
      <trkpt lat="44.82737" lon="6.26413">
        <ele>1416.4</ele>
        <time>2024-08-13T06:56:15Z</time>
      </trkpt>
      <trkpt lat="44.82737" lon="6.26413">
        <ele>1416.4</ele>
        <time>2024-08-13T06:56:16Z</time>
      </trkpt>
      <trkpt lat="44.82736" lon="6.2641">
        <ele>1416.2</ele>
        <time>2024-08-13T06:56:17Z</time>
      </trkpt>
      <trkpt lat="44.82736" lon="6.2641">
        <ele>1416.2</ele>
        <time>2024-08-13T06:56:18Z</time>
      </trkpt>
      <trkpt lat="44.82736" lon="6.2641">
        <ele>1416.2</ele>
        <time>2024-08-13T06:56:19Z</time>
      </trkpt>
      <trkpt lat="44.82736" lon="6.26406">
        <ele>1416.6</ele>
        <time>2024-08-13T06:56:20Z</time>
      </trkpt>
      <trkpt lat="44.82736" lon="6.26406">
        <ele>1416.8</ele>
        <time>2024-08-13T06:56:21Z</time>
      </trkpt>
      <trkpt lat="44.82736" lon="6.26406">
        <ele>1417.2</ele>
        <time>2024-08-13T06:56:22Z</time>
      </trkpt>
      <trkpt lat="44.82735" lon="6.26404">
        <ele>1417.4</ele>
        <time>2024-08-13T06:56:23Z</time>
      </trkpt>
      <trkpt lat="44.82735" lon="6.26404">
        <ele>1417.4</ele>
        <time>2024-08-13T06:56:24Z</time>
      </trkpt>
      <trkpt lat="44.82734" lon="6.26402">
        <ele>1417.6</ele>
        <time>2024-08-13T06:56:25Z</time>
      </trkpt>
      <trkpt lat="44.82734" lon="6.26402">
        <ele>1418</ele>
        <time>2024-08-13T06:56:26Z</time>
      </trkpt>
      <trkpt lat="44.82733" lon="6.26399">
        <ele>1418.2</ele>
        <time>2024-08-13T06:56:27Z</time>
      </trkpt>
      <trkpt lat="44.82733" lon="6.26399">
        <ele>1418.4</ele>
        <time>2024-08-13T06:56:28Z</time>
      </trkpt>
      <trkpt lat="44.82732" lon="6.26396">
        <ele>1418.4</ele>
        <time>2024-08-13T06:56:29Z</time>
      </trkpt>
      <trkpt lat="44.82732" lon="6.26396">
        <ele>1418.2</ele>
        <time>2024-08-13T06:56:30Z</time>
      </trkpt>
      <trkpt lat="44.82731" lon="6.26393">
        <ele>1418</ele>
        <time>2024-08-13T06:56:31Z</time>
      </trkpt>
      <trkpt lat="44.82731" lon="6.26393">
        <ele>1417.6</ele>
        <time>2024-08-13T06:56:32Z</time>
      </trkpt>
      <trkpt lat="44.82729" lon="6.26391">
        <ele>1417.6</ele>
        <time>2024-08-13T06:56:33Z</time>
      </trkpt>
      <trkpt lat="44.82729" lon="6.26391">
        <ele>1417.6</ele>
        <time>2024-08-13T06:56:34Z</time>
      </trkpt>
      <trkpt lat="44.82726" lon="6.26389">
        <ele>1417.6</ele>
        <time>2024-08-13T06:56:35Z</time>
      </trkpt>
      <trkpt lat="44.82726" lon="6.26389">
        <ele>1417.6</ele>
        <time>2024-08-13T06:56:36Z</time>
      </trkpt>
      <trkpt lat="44.82724" lon="6.26387">
        <ele>1417.6</ele>
        <time>2024-08-13T06:56:37Z</time>
      </trkpt>
      <trkpt lat="44.82724" lon="6.26387">
        <ele>1417.6</ele>
        <time>2024-08-13T06:56:38Z</time>
      </trkpt>
      <trkpt lat="44.82722" lon="6.26384">
        <ele>1417.6</ele>
        <time>2024-08-13T06:56:39Z</time>
      </trkpt>
      <trkpt lat="44.82722" lon="6.26384">
        <ele>1417.8</ele>
        <time>2024-08-13T06:56:40Z</time>
      </trkpt>
      <trkpt lat="44.8272" lon="6.26381">
        <ele>1417.8</ele>
        <time>2024-08-13T06:56:41Z</time>
      </trkpt>
      <trkpt lat="44.8272" lon="6.26381">
        <ele>1417.8</ele>
        <time>2024-08-13T06:56:42Z</time>
      </trkpt>
      <trkpt lat="44.82718" lon="6.26378">
        <ele>1417.8</ele>
        <time>2024-08-13T06:56:43Z</time>
      </trkpt>
      <trkpt lat="44.82718" lon="6.26378">
        <ele>1417.8</ele>
        <time>2024-08-13T06:56:44Z</time>
      </trkpt>
      <trkpt lat="44.82717" lon="6.26375">
        <ele>1417.8</ele>
        <time>2024-08-13T06:56:45Z</time>
      </trkpt>
      <trkpt lat="44.82717" lon="6.26375">
        <ele>1417.8</ele>
        <time>2024-08-13T06:56:46Z</time>
      </trkpt>
      <trkpt lat="44.82716" lon="6.26373">
        <ele>1417.8</ele>
        <time>2024-08-13T06:56:47Z</time>
      </trkpt>
      <trkpt lat="44.82716" lon="6.26373">
        <ele>1417.8</ele>
        <time>2024-08-13T06:56:48Z</time>
      </trkpt>
      <trkpt lat="44.82714" lon="6.2637">
        <ele>1418</ele>
        <time>2024-08-13T06:56:49Z</time>
      </trkpt>
      <trkpt lat="44.82714" lon="6.2637">
        <ele>1418.2</ele>
        <time>2024-08-13T06:56:50Z</time>
      </trkpt>
      <trkpt lat="44.82713" lon="6.26367">
        <ele>1418.2</ele>
        <time>2024-08-13T06:56:51Z</time>
      </trkpt>
      <trkpt lat="44.82713" lon="6.26367">
        <ele>1418.2</ele>
        <time>2024-08-13T06:56:52Z</time>
      </trkpt>
      <trkpt lat="44.82712" lon="6.26364">
        <ele>1418.2</ele>
        <time>2024-08-13T06:56:53Z</time>
      </trkpt>
      <trkpt lat="44.82712" lon="6.26364">
        <ele>1418.2</ele>
        <time>2024-08-13T06:56:54Z</time>
      </trkpt>
      <trkpt lat="44.8271" lon="6.26362">
        <ele>1418.6</ele>
        <time>2024-08-13T06:56:55Z</time>
      </trkpt>
      <trkpt lat="44.8271" lon="6.26362">
        <ele>1418.8</ele>
        <time>2024-08-13T06:56:56Z</time>
      </trkpt>
      <trkpt lat="44.82709" lon="6.2636">
        <ele>1419</ele>
        <time>2024-08-13T06:56:57Z</time>
      </trkpt>
      <trkpt lat="44.82709" lon="6.2636">
        <ele>1419</ele>
        <time>2024-08-13T06:56:58Z</time>
      </trkpt>
      <trkpt lat="44.82707" lon="6.26357">
        <ele>1419.2</ele>
        <time>2024-08-13T06:56:59Z</time>
      </trkpt>
      <trkpt lat="44.82707" lon="6.26357">
        <ele>1419.4</ele>
        <time>2024-08-13T06:57:00Z</time>
      </trkpt>
      <trkpt lat="44.82705" lon="6.26354">
        <ele>1419.8</ele>
        <time>2024-08-13T06:57:01Z</time>
      </trkpt>
      <trkpt lat="44.82705" lon="6.26354">
        <ele>1419.8</ele>
        <time>2024-08-13T06:57:02Z</time>
      </trkpt>
      <trkpt lat="44.82703" lon="6.26351">
        <ele>1419.8</ele>
        <time>2024-08-13T06:57:03Z</time>
      </trkpt>
      <trkpt lat="44.82703" lon="6.26351">
        <ele>1420</ele>
        <time>2024-08-13T06:57:04Z</time>
      </trkpt>
      <trkpt lat="44.82702" lon="6.26348">
        <ele>1420</ele>
        <time>2024-08-13T06:57:05Z</time>
      </trkpt>
      <trkpt lat="44.82702" lon="6.26348">
        <ele>1420</ele>
        <time>2024-08-13T06:57:06Z</time>
      </trkpt>
      <trkpt lat="44.82702" lon="6.26345">
        <ele>1420</ele>
        <time>2024-08-13T06:57:07Z</time>
      </trkpt>
      <trkpt lat="44.82702" lon="6.26345">
        <ele>1420</ele>
        <time>2024-08-13T06:57:08Z</time>
      </trkpt>
      <trkpt lat="44.82703" lon="6.26341">
        <ele>1420</ele>
        <time>2024-08-13T06:57:09Z</time>
      </trkpt>
      <trkpt lat="44.82703" lon="6.26341">
        <ele>1419.6</ele>
        <time>2024-08-13T06:57:10Z</time>
      </trkpt>
      <trkpt lat="44.82703" lon="6.26337">
        <ele>1419.6</ele>
        <time>2024-08-13T06:57:11Z</time>
      </trkpt>
      <trkpt lat="44.82703" lon="6.26337">
        <ele>1419.6</ele>
        <time>2024-08-13T06:57:12Z</time>
      </trkpt>
      <trkpt lat="44.82702" lon="6.26333">
        <ele>1419.6</ele>
        <time>2024-08-13T06:57:13Z</time>
      </trkpt>
      <trkpt lat="44.82702" lon="6.26333">
        <ele>1419.4</ele>
        <time>2024-08-13T06:57:14Z</time>
      </trkpt>
      <trkpt lat="44.82702" lon="6.2633">
        <ele>1419.4</ele>
        <time>2024-08-13T06:57:15Z</time>
      </trkpt>
      <trkpt lat="44.82702" lon="6.2633">
        <ele>1419.6</ele>
        <time>2024-08-13T06:57:16Z</time>
      </trkpt>
      <trkpt lat="44.82701" lon="6.26327">
        <ele>1419.8</ele>
        <time>2024-08-13T06:57:17Z</time>
      </trkpt>
      <trkpt lat="44.82701" lon="6.26327">
        <ele>1419.8</ele>
        <time>2024-08-13T06:57:18Z</time>
      </trkpt>
      <trkpt lat="44.82701" lon="6.26324">
        <ele>1420</ele>
        <time>2024-08-13T06:57:19Z</time>
      </trkpt>
      <trkpt lat="44.82701" lon="6.26324">
        <ele>1420</ele>
        <time>2024-08-13T06:57:20Z</time>
      </trkpt>
      <trkpt lat="44.82701" lon="6.26321">
        <ele>1420</ele>
        <time>2024-08-13T06:57:21Z</time>
      </trkpt>
      <trkpt lat="44.82701" lon="6.26321">
        <ele>1420</ele>
        <time>2024-08-13T06:57:22Z</time>
      </trkpt>
      <trkpt lat="44.827" lon="6.26318">
        <ele>1420.2</ele>
        <time>2024-08-13T06:57:23Z</time>
      </trkpt>
      <trkpt lat="44.827" lon="6.26318">
        <ele>1420.6</ele>
        <time>2024-08-13T06:57:24Z</time>
      </trkpt>
      <trkpt lat="44.82699" lon="6.26315">
        <ele>1420.8</ele>
        <time>2024-08-13T06:57:25Z</time>
      </trkpt>
      <trkpt lat="44.82699" lon="6.26315">
        <ele>1420.8</ele>
        <time>2024-08-13T06:57:26Z</time>
      </trkpt>
      <trkpt lat="44.82699" lon="6.26312">
        <ele>1421</ele>
        <time>2024-08-13T06:57:27Z</time>
      </trkpt>
      <trkpt lat="44.82699" lon="6.26312">
        <ele>1421</ele>
        <time>2024-08-13T06:57:28Z</time>
      </trkpt>
      <trkpt lat="44.82698" lon="6.26309">
        <ele>1421</ele>
        <time>2024-08-13T06:57:29Z</time>
      </trkpt>
      <trkpt lat="44.82698" lon="6.26309">
        <ele>1421.2</ele>
        <time>2024-08-13T06:57:30Z</time>
      </trkpt>
      <trkpt lat="44.82697" lon="6.26306">
        <ele>1421.2</ele>
        <time>2024-08-13T06:57:31Z</time>
      </trkpt>
      <trkpt lat="44.82697" lon="6.26306">
        <ele>1421.4</ele>
        <time>2024-08-13T06:57:32Z</time>
      </trkpt>
      <trkpt lat="44.82696" lon="6.26302">
        <ele>1421.4</ele>
        <time>2024-08-13T06:57:33Z</time>
      </trkpt>
      <trkpt lat="44.82696" lon="6.26302">
        <ele>1421.4</ele>
        <time>2024-08-13T06:57:34Z</time>
      </trkpt>
      <trkpt lat="44.82695" lon="6.26299">
        <ele>1421.6</ele>
        <time>2024-08-13T06:57:35Z</time>
      </trkpt>
      <trkpt lat="44.82695" lon="6.26299">
        <ele>1421.6</ele>
        <time>2024-08-13T06:57:36Z</time>
      </trkpt>
      <trkpt lat="44.82693" lon="6.26295">
        <ele>1421.4</ele>
        <time>2024-08-13T06:57:37Z</time>
      </trkpt>
      <trkpt lat="44.82693" lon="6.26295">
        <ele>1421</ele>
        <time>2024-08-13T06:57:38Z</time>
      </trkpt>
      <trkpt lat="44.82693" lon="6.26292">
        <ele>1420.8</ele>
        <time>2024-08-13T06:57:39Z</time>
      </trkpt>
      <trkpt lat="44.82693" lon="6.26292">
        <ele>1420.6</ele>
        <time>2024-08-13T06:57:40Z</time>
      </trkpt>
      <trkpt lat="44.82692" lon="6.26289">
        <ele>1420.4</ele>
        <time>2024-08-13T06:57:41Z</time>
      </trkpt>
      <trkpt lat="44.82692" lon="6.26289">
        <ele>1420.4</ele>
        <time>2024-08-13T06:57:42Z</time>
      </trkpt>
      <trkpt lat="44.82691" lon="6.26285">
        <ele>1420.2</ele>
        <time>2024-08-13T06:57:43Z</time>
      </trkpt>
      <trkpt lat="44.82691" lon="6.26285">
        <ele>1420.2</ele>
        <time>2024-08-13T06:57:44Z</time>
      </trkpt>
      <trkpt lat="44.82691" lon="6.26282">
        <ele>1420.4</ele>
        <time>2024-08-13T06:57:45Z</time>
      </trkpt>
      <trkpt lat="44.82691" lon="6.26282">
        <ele>1420.4</ele>
        <time>2024-08-13T06:57:46Z</time>
      </trkpt>
      <trkpt lat="44.82691" lon="6.26279">
        <ele>1420.2</ele>
        <time>2024-08-13T06:57:47Z</time>
      </trkpt>
      <trkpt lat="44.82691" lon="6.26279">
        <ele>1420.2</ele>
        <time>2024-08-13T06:57:48Z</time>
      </trkpt>
      <trkpt lat="44.82691" lon="6.26276">
        <ele>1420.4</ele>
        <time>2024-08-13T06:57:49Z</time>
      </trkpt>
      <trkpt lat="44.82691" lon="6.26276">
        <ele>1420.6</ele>
        <time>2024-08-13T06:57:50Z</time>
      </trkpt>
      <trkpt lat="44.8269" lon="6.26273">
        <ele>1420.6</ele>
        <time>2024-08-13T06:57:51Z</time>
      </trkpt>
      <trkpt lat="44.8269" lon="6.26273">
        <ele>1420.6</ele>
        <time>2024-08-13T06:57:52Z</time>
      </trkpt>
      <trkpt lat="44.8269" lon="6.2627">
        <ele>1420.4</ele>
        <time>2024-08-13T06:57:53Z</time>
      </trkpt>
      <trkpt lat="44.8269" lon="6.2627">
        <ele>1420.4</ele>
        <time>2024-08-13T06:57:54Z</time>
      </trkpt>
      <trkpt lat="44.8269" lon="6.26267">
        <ele>1420.6</ele>
        <time>2024-08-13T06:57:55Z</time>
      </trkpt>
      <trkpt lat="44.8269" lon="6.26267">
        <ele>1421</ele>
        <time>2024-08-13T06:57:56Z</time>
      </trkpt>
      <trkpt lat="44.82689" lon="6.26264">
        <ele>1421</ele>
        <time>2024-08-13T06:57:57Z</time>
      </trkpt>
      <trkpt lat="44.82689" lon="6.26264">
        <ele>1421</ele>
        <time>2024-08-13T06:57:58Z</time>
      </trkpt>
      <trkpt lat="44.82689" lon="6.26261">
        <ele>1421.2</ele>
        <time>2024-08-13T06:57:59Z</time>
      </trkpt>
      <trkpt lat="44.82689" lon="6.26261">
        <ele>1421.2</ele>
        <time>2024-08-13T06:58:00Z</time>
      </trkpt>
      <trkpt lat="44.82689" lon="6.26257">
        <ele>1421.4</ele>
        <time>2024-08-13T06:58:01Z</time>
      </trkpt>
      <trkpt lat="44.82689" lon="6.26257">
        <ele>1421.8</ele>
        <time>2024-08-13T06:58:02Z</time>
      </trkpt>
      <trkpt lat="44.82688" lon="6.26254">
        <ele>1421.8</ele>
        <time>2024-08-13T06:58:03Z</time>
      </trkpt>
      <trkpt lat="44.82688" lon="6.26254">
        <ele>1421.8</ele>
        <time>2024-08-13T06:58:04Z</time>
      </trkpt>
      <trkpt lat="44.82688" lon="6.2625">
        <ele>1421.8</ele>
        <time>2024-08-13T06:58:05Z</time>
      </trkpt>
      <trkpt lat="44.82688" lon="6.2625">
        <ele>1421.8</ele>
        <time>2024-08-13T06:58:06Z</time>
      </trkpt>
      <trkpt lat="44.82688" lon="6.26246">
        <ele>1421.8</ele>
        <time>2024-08-13T06:58:07Z</time>
      </trkpt>
      <trkpt lat="44.82688" lon="6.26246">
        <ele>1421.8</ele>
        <time>2024-08-13T06:58:08Z</time>
      </trkpt>
      <trkpt lat="44.8269" lon="6.26242">
        <ele>1421.6</ele>
        <time>2024-08-13T06:58:09Z</time>
      </trkpt>
      <trkpt lat="44.8269" lon="6.26242">
        <ele>1421.4</ele>
        <time>2024-08-13T06:58:10Z</time>
      </trkpt>
      <trkpt lat="44.82691" lon="6.26239">
        <ele>1421.4</ele>
        <time>2024-08-13T06:58:11Z</time>
      </trkpt>
      <trkpt lat="44.82691" lon="6.26239">
        <ele>1421.4</ele>
        <time>2024-08-13T06:58:12Z</time>
      </trkpt>
      <trkpt lat="44.82692" lon="6.26235">
        <ele>1421.2</ele>
        <time>2024-08-13T06:58:13Z</time>
      </trkpt>
      <trkpt lat="44.82692" lon="6.26235">
        <ele>1421.2</ele>
        <time>2024-08-13T06:58:14Z</time>
      </trkpt>
      <trkpt lat="44.82693" lon="6.26232">
        <ele>1421.4</ele>
        <time>2024-08-13T06:58:15Z</time>
      </trkpt>
      <trkpt lat="44.82693" lon="6.26232">
        <ele>1421.6</ele>
        <time>2024-08-13T06:58:16Z</time>
      </trkpt>
      <trkpt lat="44.82693" lon="6.26228">
        <ele>1421.6</ele>
        <time>2024-08-13T06:58:17Z</time>
      </trkpt>
      <trkpt lat="44.82693" lon="6.26228">
        <ele>1421.6</ele>
        <time>2024-08-13T06:58:18Z</time>
      </trkpt>
      <trkpt lat="44.82693" lon="6.26225">
        <ele>1421.6</ele>
        <time>2024-08-13T06:58:19Z</time>
      </trkpt>
      <trkpt lat="44.82693" lon="6.26225">
        <ele>1421.8</ele>
        <time>2024-08-13T06:58:20Z</time>
      </trkpt>
      <trkpt lat="44.82693" lon="6.26222">
        <ele>1421.8</ele>
        <time>2024-08-13T06:58:21Z</time>
      </trkpt>
      <trkpt lat="44.82693" lon="6.26222">
        <ele>1421.8</ele>
        <time>2024-08-13T06:58:22Z</time>
      </trkpt>
      <trkpt lat="44.82691" lon="6.26219">
        <ele>1421.8</ele>
        <time>2024-08-13T06:58:23Z</time>
      </trkpt>
      <trkpt lat="44.82691" lon="6.26219">
        <ele>1422.2</ele>
        <time>2024-08-13T06:58:24Z</time>
      </trkpt>
      <trkpt lat="44.8269" lon="6.26215">
        <ele>1422.2</ele>
        <time>2024-08-13T06:58:25Z</time>
      </trkpt>
      <trkpt lat="44.8269" lon="6.26215">
        <ele>1422.6</ele>
        <time>2024-08-13T06:58:26Z</time>
      </trkpt>
      <trkpt lat="44.8269" lon="6.26212">
        <ele>1422.6</ele>
        <time>2024-08-13T06:58:27Z</time>
      </trkpt>
      <trkpt lat="44.8269" lon="6.26212">
        <ele>1422.6</ele>
        <time>2024-08-13T06:58:28Z</time>
      </trkpt>
      <trkpt lat="44.82689" lon="6.26208">
        <ele>1422.6</ele>
        <time>2024-08-13T06:58:29Z</time>
      </trkpt>
      <trkpt lat="44.82689" lon="6.26208">
        <ele>1422.6</ele>
        <time>2024-08-13T06:58:30Z</time>
      </trkpt>
      <trkpt lat="44.82687" lon="6.26205">
        <ele>1422.8</ele>
        <time>2024-08-13T06:58:31Z</time>
      </trkpt>
      <trkpt lat="44.82687" lon="6.26205">
        <ele>1422.6</ele>
        <time>2024-08-13T06:58:32Z</time>
      </trkpt>
      <trkpt lat="44.82686" lon="6.26201">
        <ele>1422.6</ele>
        <time>2024-08-13T06:58:33Z</time>
      </trkpt>
      <trkpt lat="44.82686" lon="6.26201">
        <ele>1422.6</ele>
        <time>2024-08-13T06:58:34Z</time>
      </trkpt>
      <trkpt lat="44.82686" lon="6.26198">
        <ele>1422.8</ele>
        <time>2024-08-13T06:58:35Z</time>
      </trkpt>
      <trkpt lat="44.82686" lon="6.26198">
        <ele>1423</ele>
        <time>2024-08-13T06:58:36Z</time>
      </trkpt>
      <trkpt lat="44.82685" lon="6.26196">
        <ele>1423</ele>
        <time>2024-08-13T06:58:37Z</time>
      </trkpt>
      <trkpt lat="44.82685" lon="6.26196">
        <ele>1423</ele>
        <time>2024-08-13T06:58:38Z</time>
      </trkpt>
      <trkpt lat="44.82684" lon="6.26192">
        <ele>1423</ele>
        <time>2024-08-13T06:58:39Z</time>
      </trkpt>
      <trkpt lat="44.82684" lon="6.26192">
        <ele>1423</ele>
        <time>2024-08-13T06:58:40Z</time>
      </trkpt>
      <trkpt lat="44.82683" lon="6.26189">
        <ele>1423</ele>
        <time>2024-08-13T06:58:41Z</time>
      </trkpt>
      <trkpt lat="44.82683" lon="6.26189">
        <ele>1423</ele>
        <time>2024-08-13T06:58:42Z</time>
      </trkpt>
      <trkpt lat="44.82683" lon="6.26185">
        <ele>1423</ele>
        <time>2024-08-13T06:58:43Z</time>
      </trkpt>
      <trkpt lat="44.82683" lon="6.26185">
        <ele>1423.2</ele>
        <time>2024-08-13T06:58:44Z</time>
      </trkpt>
      <trkpt lat="44.82681" lon="6.26183">
        <ele>1423.2</ele>
        <time>2024-08-13T06:58:45Z</time>
      </trkpt>
      <trkpt lat="44.82681" lon="6.26183">
        <ele>1423.2</ele>
        <time>2024-08-13T06:58:46Z</time>
      </trkpt>
      <trkpt lat="44.8268" lon="6.2618">
        <ele>1423.2</ele>
        <time>2024-08-13T06:58:47Z</time>
      </trkpt>
      <trkpt lat="44.8268" lon="6.2618">
        <ele>1423.2</ele>
        <time>2024-08-13T06:58:48Z</time>
      </trkpt>
      <trkpt lat="44.82678" lon="6.26177">
        <ele>1423.6</ele>
        <time>2024-08-13T06:58:49Z</time>
      </trkpt>
      <trkpt lat="44.82678" lon="6.26177">
        <ele>1423.8</ele>
        <time>2024-08-13T06:58:50Z</time>
      </trkpt>
      <trkpt lat="44.82676" lon="6.26175">
        <ele>1423.8</ele>
        <time>2024-08-13T06:58:51Z</time>
      </trkpt>
      <trkpt lat="44.82676" lon="6.26175">
        <ele>1423.4</ele>
        <time>2024-08-13T06:58:52Z</time>
      </trkpt>
      <trkpt lat="44.82675" lon="6.26172">
        <ele>1423.2</ele>
        <time>2024-08-13T06:58:53Z</time>
      </trkpt>
      <trkpt lat="44.82675" lon="6.26172">
        <ele>1423</ele>
        <time>2024-08-13T06:58:54Z</time>
      </trkpt>
      <trkpt lat="44.82673" lon="6.26169">
        <ele>1422.8</ele>
        <time>2024-08-13T06:58:55Z</time>
      </trkpt>
      <trkpt lat="44.82673" lon="6.26169">
        <ele>1422.8</ele>
        <time>2024-08-13T06:58:56Z</time>
      </trkpt>
      <trkpt lat="44.82671" lon="6.26167">
        <ele>1422.8</ele>
        <time>2024-08-13T06:58:57Z</time>
      </trkpt>
      <trkpt lat="44.82671" lon="6.26167">
        <ele>1422.8</ele>
        <time>2024-08-13T06:58:58Z</time>
      </trkpt>
      <trkpt lat="44.82669" lon="6.26164">
        <ele>1422.4</ele>
        <time>2024-08-13T06:58:59Z</time>
      </trkpt>
      <trkpt lat="44.82669" lon="6.26164">
        <ele>1422</ele>
        <time>2024-08-13T06:59:00Z</time>
      </trkpt>
      <trkpt lat="44.82667" lon="6.26161">
        <ele>1421.6</ele>
        <time>2024-08-13T06:59:01Z</time>
      </trkpt>
      <trkpt lat="44.82667" lon="6.26161">
        <ele>1421</ele>
        <time>2024-08-13T06:59:02Z</time>
      </trkpt>
      <trkpt lat="44.82666" lon="6.26159">
        <ele>1421</ele>
        <time>2024-08-13T06:59:03Z</time>
      </trkpt>
      <trkpt lat="44.82666" lon="6.26159">
        <ele>1420.6</ele>
        <time>2024-08-13T06:59:04Z</time>
      </trkpt>
      <trkpt lat="44.82664" lon="6.26156">
        <ele>1420.4</ele>
        <time>2024-08-13T06:59:05Z</time>
      </trkpt>
      <trkpt lat="44.82664" lon="6.26156">
        <ele>1420.4</ele>
        <time>2024-08-13T06:59:06Z</time>
      </trkpt>
      <trkpt lat="44.82663" lon="6.26154">
        <ele>1420.4</ele>
        <time>2024-08-13T06:59:07Z</time>
      </trkpt>
      <trkpt lat="44.82663" lon="6.26154">
        <ele>1420</ele>
        <time>2024-08-13T06:59:08Z</time>
      </trkpt>
      <trkpt lat="44.82661" lon="6.26151">
        <ele>1419.6</ele>
        <time>2024-08-13T06:59:09Z</time>
      </trkpt>
      <trkpt lat="44.82661" lon="6.26151">
        <ele>1419.4</ele>
        <time>2024-08-13T06:59:10Z</time>
      </trkpt>
      <trkpt lat="44.8266" lon="6.26149">
        <ele>1418.8</ele>
        <time>2024-08-13T06:59:11Z</time>
      </trkpt>
      <trkpt lat="44.8266" lon="6.26149">
        <ele>1418.4</ele>
        <time>2024-08-13T06:59:12Z</time>
      </trkpt>
      <trkpt lat="44.82659" lon="6.26145">
        <ele>1418.2</ele>
        <time>2024-08-13T06:59:13Z</time>
      </trkpt>
      <trkpt lat="44.82659" lon="6.26145">
        <ele>1417.8</ele>
        <time>2024-08-13T06:59:14Z</time>
      </trkpt>
      <trkpt lat="44.8266" lon="6.26141">
        <ele>1417.8</ele>
        <time>2024-08-13T06:59:15Z</time>
      </trkpt>
      <trkpt lat="44.8266" lon="6.26141">
        <ele>1417.6</ele>
        <time>2024-08-13T06:59:16Z</time>
      </trkpt>
      <trkpt lat="44.8266" lon="6.26137">
        <ele>1417.4</ele>
        <time>2024-08-13T06:59:17Z</time>
      </trkpt>
      <trkpt lat="44.8266" lon="6.26137">
        <ele>1417.4</ele>
        <time>2024-08-13T06:59:18Z</time>
      </trkpt>
      <trkpt lat="44.82661" lon="6.26133">
        <ele>1417.2</ele>
        <time>2024-08-13T06:59:19Z</time>
      </trkpt>
      <trkpt lat="44.82661" lon="6.26133">
        <ele>1417.2</ele>
        <time>2024-08-13T06:59:20Z</time>
      </trkpt>
      <trkpt lat="44.82661" lon="6.26129">
        <ele>1417.2</ele>
        <time>2024-08-13T06:59:21Z</time>
      </trkpt>
      <trkpt lat="44.82661" lon="6.26129">
        <ele>1417.2</ele>
        <time>2024-08-13T06:59:22Z</time>
      </trkpt>
      <trkpt lat="44.82661" lon="6.26126">
        <ele>1417.2</ele>
        <time>2024-08-13T06:59:23Z</time>
      </trkpt>
      <trkpt lat="44.82661" lon="6.26126">
        <ele>1417.2</ele>
        <time>2024-08-13T06:59:24Z</time>
      </trkpt>
      <trkpt lat="44.82661" lon="6.26122">
        <ele>1417.2</ele>
        <time>2024-08-13T06:59:25Z</time>
      </trkpt>
      <trkpt lat="44.82661" lon="6.26122">
        <ele>1417.2</ele>
        <time>2024-08-13T06:59:26Z</time>
      </trkpt>
      <trkpt lat="44.82661" lon="6.26119">
        <ele>1416.8</ele>
        <time>2024-08-13T06:59:27Z</time>
      </trkpt>
      <trkpt lat="44.82661" lon="6.26119">
        <ele>1416.8</ele>
        <time>2024-08-13T06:59:28Z</time>
      </trkpt>
      <trkpt lat="44.82659" lon="6.26116">
        <ele>1416.6</ele>
        <time>2024-08-13T06:59:29Z</time>
      </trkpt>
      <trkpt lat="44.82659" lon="6.26116">
        <ele>1416.6</ele>
        <time>2024-08-13T06:59:30Z</time>
      </trkpt>
      <trkpt lat="44.82658" lon="6.26112">
        <ele>1416.4</ele>
        <time>2024-08-13T06:59:31Z</time>
      </trkpt>
      <trkpt lat="44.82658" lon="6.26112">
        <ele>1416</ele>
        <time>2024-08-13T06:59:32Z</time>
      </trkpt>
      <trkpt lat="44.82658" lon="6.26108">
        <ele>1415.6</ele>
        <time>2024-08-13T06:59:33Z</time>
      </trkpt>
      <trkpt lat="44.82658" lon="6.26108">
        <ele>1415.6</ele>
        <time>2024-08-13T06:59:34Z</time>
      </trkpt>
      <trkpt lat="44.82659" lon="6.26104">
        <ele>1415.4</ele>
        <time>2024-08-13T06:59:35Z</time>
      </trkpt>
      <trkpt lat="44.82659" lon="6.26104">
        <ele>1415.4</ele>
        <time>2024-08-13T06:59:36Z</time>
      </trkpt>
      <trkpt lat="44.82661" lon="6.26101">
        <ele>1415.6</ele>
        <time>2024-08-13T06:59:37Z</time>
      </trkpt>
      <trkpt lat="44.82661" lon="6.26101">
        <ele>1415.6</ele>
        <time>2024-08-13T06:59:38Z</time>
      </trkpt>
      <trkpt lat="44.82662" lon="6.26097">
        <ele>1415.6</ele>
        <time>2024-08-13T06:59:39Z</time>
      </trkpt>
      <trkpt lat="44.82662" lon="6.26097">
        <ele>1415.4</ele>
        <time>2024-08-13T06:59:40Z</time>
      </trkpt>
      <trkpt lat="44.82663" lon="6.26095">
        <ele>1415.4</ele>
        <time>2024-08-13T06:59:41Z</time>
      </trkpt>
      <trkpt lat="44.82663" lon="6.26095">
        <ele>1415.6</ele>
        <time>2024-08-13T06:59:42Z</time>
      </trkpt>
      <trkpt lat="44.82663" lon="6.26095">
        <ele>1415.8</ele>
        <time>2024-08-13T06:59:43Z</time>
      </trkpt>
      <trkpt lat="44.82663" lon="6.2609">
        <ele>1416</ele>
        <time>2024-08-13T06:59:44Z</time>
      </trkpt>
      <trkpt lat="44.82663" lon="6.2609">
        <ele>1416</ele>
        <time>2024-08-13T06:59:45Z</time>
      </trkpt>
      <trkpt lat="44.82662" lon="6.26087">
        <ele>1415.8</ele>
        <time>2024-08-13T06:59:46Z</time>
      </trkpt>
      <trkpt lat="44.82662" lon="6.26087">
        <ele>1415.8</ele>
        <time>2024-08-13T06:59:47Z</time>
      </trkpt>
      <trkpt lat="44.82662" lon="6.26083">
        <ele>1415.8</ele>
        <time>2024-08-13T06:59:48Z</time>
      </trkpt>
      <trkpt lat="44.82662" lon="6.26083">
        <ele>1415.6</ele>
        <time>2024-08-13T06:59:49Z</time>
      </trkpt>
      <trkpt lat="44.82662" lon="6.26081">
        <ele>1415.4</ele>
        <time>2024-08-13T06:59:50Z</time>
      </trkpt>
      <trkpt lat="44.82662" lon="6.26081">
        <ele>1415.2</ele>
        <time>2024-08-13T06:59:51Z</time>
      </trkpt>
      <trkpt lat="44.82662" lon="6.26081">
        <ele>1415</ele>
        <time>2024-08-13T06:59:52Z</time>
      </trkpt>
      <trkpt lat="44.82662" lon="6.26081">
        <ele>1414.8</ele>
        <time>2024-08-13T06:59:53Z</time>
      </trkpt>
      <trkpt lat="44.82662" lon="6.26081">
        <ele>1414.8</ele>
        <time>2024-08-13T06:59:54Z</time>
      </trkpt>
      <trkpt lat="44.82662" lon="6.26081">
        <ele>1414.8</ele>
        <time>2024-08-13T06:59:55Z</time>
      </trkpt>
      <trkpt lat="44.82662" lon="6.26081">
        <ele>1414.6</ele>
        <time>2024-08-13T06:59:56Z</time>
      </trkpt>
      <trkpt lat="44.82661" lon="6.26078">
        <ele>1414.6</ele>
        <time>2024-08-13T06:59:57Z</time>
      </trkpt>
      <trkpt lat="44.82661" lon="6.26078">
        <ele>1414.6</ele>
        <time>2024-08-13T06:59:58Z</time>
      </trkpt>
      <trkpt lat="44.82661" lon="6.26078">
        <ele>1414.6</ele>
        <time>2024-08-13T06:59:59Z</time>
      </trkpt>
      <trkpt lat="44.82661" lon="6.26075">
        <ele>1414.6</ele>
        <time>2024-08-13T07:00:00Z</time>
      </trkpt>
      <trkpt lat="44.82661" lon="6.26075">
        <ele>1414.6</ele>
        <time>2024-08-13T07:00:01Z</time>
      </trkpt>
      <trkpt lat="44.8266" lon="6.26072">
        <ele>1414.2</ele>
        <time>2024-08-13T07:00:02Z</time>
      </trkpt>
      <trkpt lat="44.8266" lon="6.26072">
        <ele>1414.2</ele>
        <time>2024-08-13T07:00:03Z</time>
      </trkpt>
      <trkpt lat="44.82659" lon="6.2607">
        <ele>1413.8</ele>
        <time>2024-08-13T07:00:04Z</time>
      </trkpt>
      <trkpt lat="44.82659" lon="6.2607">
        <ele>1413.6</ele>
        <time>2024-08-13T07:00:05Z</time>
      </trkpt>
      <trkpt lat="44.82658" lon="6.26067">
        <ele>1413.4</ele>
        <time>2024-08-13T07:00:06Z</time>
      </trkpt>
      <trkpt lat="44.82658" lon="6.26067">
        <ele>1413</ele>
        <time>2024-08-13T07:00:07Z</time>
      </trkpt>
      <trkpt lat="44.82658" lon="6.26064">
        <ele>1413</ele>
        <time>2024-08-13T07:00:08Z</time>
      </trkpt>
      <trkpt lat="44.82658" lon="6.26064">
        <ele>1412.8</ele>
        <time>2024-08-13T07:00:09Z</time>
      </trkpt>
      <trkpt lat="44.82657" lon="6.26062">
        <ele>1412.4</ele>
        <time>2024-08-13T07:00:10Z</time>
      </trkpt>
      <trkpt lat="44.82657" lon="6.26062">
        <ele>1412.4</ele>
        <time>2024-08-13T07:00:11Z</time>
      </trkpt>
      <trkpt lat="44.82656" lon="6.26059">
        <ele>1412.4</ele>
        <time>2024-08-13T07:00:12Z</time>
      </trkpt>
      <trkpt lat="44.82656" lon="6.26059">
        <ele>1411.8</ele>
        <time>2024-08-13T07:00:13Z</time>
      </trkpt>
      <trkpt lat="44.82656" lon="6.26056">
        <ele>1411.8</ele>
        <time>2024-08-13T07:00:14Z</time>
      </trkpt>
      <trkpt lat="44.82656" lon="6.26056">
        <ele>1411.6</ele>
        <time>2024-08-13T07:00:15Z</time>
      </trkpt>
      <trkpt lat="44.82656" lon="6.26056">
        <ele>1411.4</ele>
        <time>2024-08-13T07:00:16Z</time>
      </trkpt>
      <trkpt lat="44.82655" lon="6.26052">
        <ele>1411.2</ele>
        <time>2024-08-13T07:00:17Z</time>
      </trkpt>
      <trkpt lat="44.82655" lon="6.26052">
        <ele>1410.8</ele>
        <time>2024-08-13T07:00:18Z</time>
      </trkpt>
      <trkpt lat="44.82654" lon="6.26051">
        <ele>1410.4</ele>
        <time>2024-08-13T07:00:19Z</time>
      </trkpt>
      <trkpt lat="44.82654" lon="6.26051">
        <ele>1410.4</ele>
        <time>2024-08-13T07:00:20Z</time>
      </trkpt>
      <trkpt lat="44.82654" lon="6.26051">
        <ele>1410.2</ele>
        <time>2024-08-13T07:00:21Z</time>
      </trkpt>
      <trkpt lat="44.82654" lon="6.26051">
        <ele>1409.8</ele>
        <time>2024-08-13T07:00:22Z</time>
      </trkpt>
      <trkpt lat="44.82654" lon="6.26051">
        <ele>1409.8</ele>
        <time>2024-08-13T07:00:23Z</time>
      </trkpt>
      <trkpt lat="44.82654" lon="6.26051">
        <ele>1410</ele>
        <time>2024-08-13T07:00:24Z</time>
      </trkpt>
      <trkpt lat="44.82654" lon="6.26051">
        <ele>1410</ele>
        <time>2024-08-13T07:00:25Z</time>
      </trkpt>
      <trkpt lat="44.82655" lon="6.26052">
        <ele>1410</ele>
        <time>2024-08-13T07:00:26Z</time>
      </trkpt>
      <trkpt lat="44.82655" lon="6.26052">
        <ele>1410.2</ele>
        <time>2024-08-13T07:00:27Z</time>
      </trkpt>
      <trkpt lat="44.82655" lon="6.26052">
        <ele>1410.4</ele>
        <time>2024-08-13T07:00:28Z</time>
      </trkpt>
      <trkpt lat="44.82655" lon="6.26052">
        <ele>1410.4</ele>
        <time>2024-08-13T07:00:29Z</time>
      </trkpt>
      <trkpt lat="44.82655" lon="6.26052">
        <ele>1410.2</ele>
        <time>2024-08-13T07:00:30Z</time>
      </trkpt>
      <trkpt lat="44.82655" lon="6.26052">
        <ele>1410</ele>
        <time>2024-08-13T07:00:31Z</time>
      </trkpt>
      <trkpt lat="44.82655" lon="6.26052">
        <ele>1410</ele>
        <time>2024-08-13T07:00:32Z</time>
      </trkpt>
      <trkpt lat="44.82655" lon="6.26052">
        <ele>1410</ele>
        <time>2024-08-13T07:00:33Z</time>
      </trkpt>
      <trkpt lat="44.82655" lon="6.26052">
        <ele>1410</ele>
        <time>2024-08-13T07:00:34Z</time>
      </trkpt>
      <trkpt lat="44.82655" lon="6.26052">
        <ele>1410</ele>
        <time>2024-08-13T07:00:35Z</time>
      </trkpt>
      <trkpt lat="44.82655" lon="6.26052">
        <ele>1410</ele>
        <time>2024-08-13T07:00:36Z</time>
      </trkpt>
      <trkpt lat="44.82655" lon="6.26052">
        <ele>1410</ele>
        <time>2024-08-13T07:00:37Z</time>
      </trkpt>
      <trkpt lat="44.82655" lon="6.26052">
        <ele>1410</ele>
        <time>2024-08-13T07:00:38Z</time>
      </trkpt>
      <trkpt lat="44.82655" lon="6.26052">
        <ele>1410.2</ele>
        <time>2024-08-13T07:00:39Z</time>
      </trkpt>
      <trkpt lat="44.82655" lon="6.26052">
        <ele>1410.4</ele>
        <time>2024-08-13T07:00:40Z</time>
      </trkpt>
      <trkpt lat="44.82655" lon="6.26052">
        <ele>1410.6</ele>
        <time>2024-08-13T07:00:41Z</time>
      </trkpt>
      <trkpt lat="44.82655" lon="6.26052">
        <ele>1410.6</ele>
        <time>2024-08-13T07:00:42Z</time>
      </trkpt>
      <trkpt lat="44.82655" lon="6.26052">
        <ele>1410.6</ele>
        <time>2024-08-13T07:00:43Z</time>
      </trkpt>
      <trkpt lat="44.82655" lon="6.26052">
        <ele>1410.8</ele>
        <time>2024-08-13T07:00:44Z</time>
      </trkpt>
      <trkpt lat="44.82655" lon="6.26052">
        <ele>1410.8</ele>
        <time>2024-08-13T07:00:45Z</time>
      </trkpt>
      <trkpt lat="44.82655" lon="6.26052">
        <ele>1410.4</ele>
        <time>2024-08-13T07:00:46Z</time>
      </trkpt>
      <trkpt lat="44.82655" lon="6.26052">
        <ele>1410.4</ele>
        <time>2024-08-13T07:00:47Z</time>
      </trkpt>
      <trkpt lat="44.82655" lon="6.26052">
        <ele>1410.4</ele>
        <time>2024-08-13T07:00:48Z</time>
      </trkpt>
      <trkpt lat="44.82655" lon="6.26052">
        <ele>1410.6</ele>
        <time>2024-08-13T07:00:49Z</time>
      </trkpt>
      <trkpt lat="44.82655" lon="6.26052">
        <ele>1410.6</ele>
        <time>2024-08-13T07:00:50Z</time>
      </trkpt>
      <trkpt lat="44.82655" lon="6.26052">
        <ele>1410.8</ele>
        <time>2024-08-13T07:00:51Z</time>
      </trkpt>
      <trkpt lat="44.82655" lon="6.26052">
        <ele>1410.8</ele>
        <time>2024-08-13T07:00:52Z</time>
      </trkpt>
      <trkpt lat="44.82655" lon="6.26052">
        <ele>1410.8</ele>
        <time>2024-08-13T07:00:53Z</time>
      </trkpt>
      <trkpt lat="44.82655" lon="6.26052">
        <ele>1410.6</ele>
        <time>2024-08-13T07:00:54Z</time>
      </trkpt>
      <trkpt lat="44.82655" lon="6.26052">
        <ele>1410.6</ele>
        <time>2024-08-13T07:00:55Z</time>
      </trkpt>
      <trkpt lat="44.82655" lon="6.26052">
        <ele>1410.4</ele>
        <time>2024-08-13T07:00:56Z</time>
      </trkpt>
      <trkpt lat="44.82655" lon="6.26052">
        <ele>1410.4</ele>
        <time>2024-08-13T07:00:57Z</time>
      </trkpt>
      <trkpt lat="44.82655" lon="6.26052">
        <ele>1410.6</ele>
        <time>2024-08-13T07:00:58Z</time>
      </trkpt>
      <trkpt lat="44.82655" lon="6.26052">
        <ele>1410.6</ele>
        <time>2024-08-13T07:00:59Z</time>
      </trkpt>
      <trkpt lat="44.82655" lon="6.26052">
        <ele>1410.6</ele>
        <time>2024-08-13T07:01:00Z</time>
      </trkpt>
      <trkpt lat="44.82655" lon="6.26052">
        <ele>1410.6</ele>
        <time>2024-08-13T07:01:01Z</time>
      </trkpt>
      <trkpt lat="44.82655" lon="6.26052">
        <ele>1410.2</ele>
        <time>2024-08-13T07:01:02Z</time>
      </trkpt>
      <trkpt lat="44.82655" lon="6.26052">
        <ele>1410.2</ele>
        <time>2024-08-13T07:01:03Z</time>
      </trkpt>
      <trkpt lat="44.82655" lon="6.26052">
        <ele>1410.4</ele>
        <time>2024-08-13T07:01:04Z</time>
      </trkpt>
      <trkpt lat="44.82655" lon="6.26052">
        <ele>1410.4</ele>
        <time>2024-08-13T07:01:05Z</time>
      </trkpt>
      <trkpt lat="44.82655" lon="6.26052">
        <ele>1410.2</ele>
        <time>2024-08-13T07:01:06Z</time>
      </trkpt>
      <trkpt lat="44.82655" lon="6.26052">
        <ele>1410.2</ele>
        <time>2024-08-13T07:01:07Z</time>
      </trkpt>
      <trkpt lat="44.82655" lon="6.26052">
        <ele>1410.2</ele>
        <time>2024-08-13T07:01:08Z</time>
      </trkpt>
      <trkpt lat="44.82655" lon="6.26052">
        <ele>1410.2</ele>
        <time>2024-08-13T07:01:09Z</time>
      </trkpt>
      <trkpt lat="44.82655" lon="6.26052">
        <ele>1410.2</ele>
        <time>2024-08-13T07:01:10Z</time>
      </trkpt>
      <trkpt lat="44.82655" lon="6.26052">
        <ele>1410.2</ele>
        <time>2024-08-13T07:01:11Z</time>
      </trkpt>
      <trkpt lat="44.82655" lon="6.26052">
        <ele>1410.2</ele>
        <time>2024-08-13T07:01:12Z</time>
      </trkpt>
      <trkpt lat="44.82655" lon="6.26052">
        <ele>1410.2</ele>
        <time>2024-08-13T07:01:13Z</time>
      </trkpt>
      <trkpt lat="44.82655" lon="6.26052">
        <ele>1410.2</ele>
        <time>2024-08-13T07:01:14Z</time>
      </trkpt>
      <trkpt lat="44.82655" lon="6.26052">
        <ele>1410.2</ele>
        <time>2024-08-13T07:01:15Z</time>
      </trkpt>
      <trkpt lat="44.82655" lon="6.26052">
        <ele>1410</ele>
        <time>2024-08-13T07:01:16Z</time>
      </trkpt>
      <trkpt lat="44.82655" lon="6.26052">
        <ele>1410</ele>
        <time>2024-08-13T07:01:17Z</time>
      </trkpt>
      <trkpt lat="44.82655" lon="6.26052">
        <ele>1410.4</ele>
        <time>2024-08-13T07:01:18Z</time>
      </trkpt>
      <trkpt lat="44.82655" lon="6.26052">
        <ele>1410.6</ele>
        <time>2024-08-13T07:01:19Z</time>
      </trkpt>
      <trkpt lat="44.82655" lon="6.26052">
        <ele>1410.6</ele>
        <time>2024-08-13T07:01:20Z</time>
      </trkpt>
      <trkpt lat="44.82655" lon="6.26052">
        <ele>1410.8</ele>
        <time>2024-08-13T07:01:21Z</time>
      </trkpt>
      <trkpt lat="44.82655" lon="6.26052">
        <ele>1410.8</ele>
        <time>2024-08-13T07:01:22Z</time>
      </trkpt>
      <trkpt lat="44.82655" lon="6.26052">
        <ele>1410.8</ele>
        <time>2024-08-13T07:01:23Z</time>
      </trkpt>
      <trkpt lat="44.82655" lon="6.26052">
        <ele>1410.8</ele>
        <time>2024-08-13T07:01:24Z</time>
      </trkpt>
      <trkpt lat="44.82655" lon="6.26052">
        <ele>1410.4</ele>
        <time>2024-08-13T07:01:25Z</time>
      </trkpt>
      <trkpt lat="44.82655" lon="6.26052">
        <ele>1410.2</ele>
        <time>2024-08-13T07:01:26Z</time>
      </trkpt>
      <trkpt lat="44.82655" lon="6.26052">
        <ele>1410.2</ele>
        <time>2024-08-13T07:01:27Z</time>
      </trkpt>
      <trkpt lat="44.82655" lon="6.26052">
        <ele>1410</ele>
        <time>2024-08-13T07:01:28Z</time>
      </trkpt>
      <trkpt lat="44.82655" lon="6.26052">
        <ele>1409.8</ele>
        <time>2024-08-13T07:01:29Z</time>
      </trkpt>
      <trkpt lat="44.82655" lon="6.26052">
        <ele>1409.8</ele>
        <time>2024-08-13T07:01:30Z</time>
      </trkpt>
      <trkpt lat="44.82655" lon="6.26052">
        <ele>1410</ele>
        <time>2024-08-13T07:01:31Z</time>
      </trkpt>
      <trkpt lat="44.82655" lon="6.26052">
        <ele>1410</ele>
        <time>2024-08-13T07:01:32Z</time>
      </trkpt>
      <trkpt lat="44.82655" lon="6.26052">
        <ele>1409.8</ele>
        <time>2024-08-13T07:01:33Z</time>
      </trkpt>
      <trkpt lat="44.82655" lon="6.26052">
        <ele>1409.8</ele>
        <time>2024-08-13T07:01:34Z</time>
      </trkpt>
      <trkpt lat="44.82655" lon="6.26052">
        <ele>1409.8</ele>
        <time>2024-08-13T07:01:35Z</time>
      </trkpt>
      <trkpt lat="44.82655" lon="6.26052">
        <ele>1409.6</ele>
        <time>2024-08-13T07:01:36Z</time>
      </trkpt>
      <trkpt lat="44.82655" lon="6.26052">
        <ele>1409.6</ele>
        <time>2024-08-13T07:01:37Z</time>
      </trkpt>
      <trkpt lat="44.82655" lon="6.26052">
        <ele>1409.8</ele>
        <time>2024-08-13T07:01:38Z</time>
      </trkpt>
      <trkpt lat="44.82655" lon="6.26052">
        <ele>1409.8</ele>
        <time>2024-08-13T07:01:39Z</time>
      </trkpt>
      <trkpt lat="44.82655" lon="6.26052">
        <ele>1409.6</ele>
        <time>2024-08-13T07:01:40Z</time>
      </trkpt>
      <trkpt lat="44.82655" lon="6.26052">
        <ele>1409.6</ele>
        <time>2024-08-13T07:01:41Z</time>
      </trkpt>
      <trkpt lat="44.82655" lon="6.26052">
        <ele>1409.6</ele>
        <time>2024-08-13T07:01:42Z</time>
      </trkpt>
      <trkpt lat="44.82655" lon="6.26052">
        <ele>1409.8</ele>
        <time>2024-08-13T07:01:43Z</time>
      </trkpt>
      <trkpt lat="44.82655" lon="6.26052">
        <ele>1409.8</ele>
        <time>2024-08-13T07:01:44Z</time>
      </trkpt>
      <trkpt lat="44.82655" lon="6.26052">
        <ele>1409.8</ele>
        <time>2024-08-13T07:01:45Z</time>
      </trkpt>
      <trkpt lat="44.82655" lon="6.26052">
        <ele>1409.8</ele>
        <time>2024-08-13T07:01:46Z</time>
      </trkpt>
      <trkpt lat="44.82655" lon="6.26052">
        <ele>1409.6</ele>
        <time>2024-08-13T07:01:47Z</time>
      </trkpt>
      <trkpt lat="44.82655" lon="6.26052">
        <ele>1409.6</ele>
        <time>2024-08-13T07:01:48Z</time>
      </trkpt>
      <trkpt lat="44.82655" lon="6.26052">
        <ele>1409.6</ele>
        <time>2024-08-13T07:01:49Z</time>
      </trkpt>
      <trkpt lat="44.82655" lon="6.26052">
        <ele>1409.6</ele>
        <time>2024-08-13T07:01:50Z</time>
      </trkpt>
      <trkpt lat="44.82655" lon="6.26052">
        <ele>1409.6</ele>
        <time>2024-08-13T07:01:51Z</time>
      </trkpt>
      <trkpt lat="44.82655" lon="6.26052">
        <ele>1409.4</ele>
        <time>2024-08-13T07:01:52Z</time>
      </trkpt>
      <trkpt lat="44.82655" lon="6.26052">
        <ele>1409.4</ele>
        <time>2024-08-13T07:01:53Z</time>
      </trkpt>
      <trkpt lat="44.82655" lon="6.26052">
        <ele>1409.4</ele>
        <time>2024-08-13T07:01:54Z</time>
      </trkpt>
      <trkpt lat="44.82655" lon="6.26052">
        <ele>1409.6</ele>
        <time>2024-08-13T07:01:55Z</time>
      </trkpt>
      <trkpt lat="44.82655" lon="6.26052">
        <ele>1409.6</ele>
        <time>2024-08-13T07:01:56Z</time>
      </trkpt>
      <trkpt lat="44.82655" lon="6.26052">
        <ele>1409.8</ele>
        <time>2024-08-13T07:01:57Z</time>
      </trkpt>
      <trkpt lat="44.82655" lon="6.26052">
        <ele>1409.8</ele>
        <time>2024-08-13T07:01:58Z</time>
      </trkpt>
      <trkpt lat="44.82655" lon="6.26052">
        <ele>1409.4</ele>
        <time>2024-08-13T07:01:59Z</time>
      </trkpt>
      <trkpt lat="44.82655" lon="6.26052">
        <ele>1409.4</ele>
        <time>2024-08-13T07:02:00Z</time>
      </trkpt>
      <trkpt lat="44.82655" lon="6.26052">
        <ele>1409.6</ele>
        <time>2024-08-13T07:02:01Z</time>
      </trkpt>
      <trkpt lat="44.82655" lon="6.26052">
        <ele>1409.6</ele>
        <time>2024-08-13T07:02:02Z</time>
      </trkpt>
      <trkpt lat="44.82655" lon="6.26052">
        <ele>1409.6</ele>
        <time>2024-08-13T07:02:03Z</time>
      </trkpt>
      <trkpt lat="44.82655" lon="6.26052">
        <ele>1409.6</ele>
        <time>2024-08-13T07:02:04Z</time>
      </trkpt>
      <trkpt lat="44.82655" lon="6.26052">
        <ele>1409.6</ele>
        <time>2024-08-13T07:02:05Z</time>
      </trkpt>
      <trkpt lat="44.82655" lon="6.26052">
        <ele>1409.4</ele>
        <time>2024-08-13T07:02:06Z</time>
      </trkpt>
      <trkpt lat="44.82655" lon="6.26052">
        <ele>1409.4</ele>
        <time>2024-08-13T07:02:07Z</time>
      </trkpt>
      <trkpt lat="44.82655" lon="6.26052">
        <ele>1409.6</ele>
        <time>2024-08-13T07:02:08Z</time>
      </trkpt>
      <trkpt lat="44.82655" lon="6.26052">
        <ele>1409.6</ele>
        <time>2024-08-13T07:02:09Z</time>
      </trkpt>
      <trkpt lat="44.82655" lon="6.26052">
        <ele>1409.6</ele>
        <time>2024-08-13T07:02:10Z</time>
      </trkpt>
      <trkpt lat="44.82655" lon="6.26052">
        <ele>1409.6</ele>
        <time>2024-08-13T07:02:11Z</time>
      </trkpt>
      <trkpt lat="44.82655" lon="6.26052">
        <ele>1409.8</ele>
        <time>2024-08-13T07:02:12Z</time>
      </trkpt>
      <trkpt lat="44.82655" lon="6.26052">
        <ele>1409.8</ele>
        <time>2024-08-13T07:02:13Z</time>
      </trkpt>
      <trkpt lat="44.82655" lon="6.26052">
        <ele>1409.6</ele>
        <time>2024-08-13T07:02:14Z</time>
      </trkpt>
      <trkpt lat="44.82655" lon="6.26052">
        <ele>1409.6</ele>
        <time>2024-08-13T07:02:15Z</time>
      </trkpt>
      <trkpt lat="44.82655" lon="6.26052">
        <ele>1409.6</ele>
        <time>2024-08-13T07:02:16Z</time>
      </trkpt>
      <trkpt lat="44.82655" lon="6.26052">
        <ele>1409.4</ele>
        <time>2024-08-13T07:02:17Z</time>
      </trkpt>
      <trkpt lat="44.82655" lon="6.26052">
        <ele>1409.4</ele>
        <time>2024-08-13T07:02:18Z</time>
      </trkpt>
      <trkpt lat="44.82655" lon="6.26052">
        <ele>1409.4</ele>
        <time>2024-08-13T07:02:19Z</time>
      </trkpt>
      <trkpt lat="44.82655" lon="6.26052">
        <ele>1409.4</ele>
        <time>2024-08-13T07:02:20Z</time>
      </trkpt>
      <trkpt lat="44.82655" lon="6.26052">
        <ele>1409.2</ele>
        <time>2024-08-13T07:02:21Z</time>
      </trkpt>
      <trkpt lat="44.82655" lon="6.26052">
        <ele>1409</ele>
        <time>2024-08-13T07:02:22Z</time>
      </trkpt>
      <trkpt lat="44.82655" lon="6.26052">
        <ele>1409</ele>
        <time>2024-08-13T07:02:23Z</time>
      </trkpt>
      <trkpt lat="44.82655" lon="6.26052">
        <ele>1409</ele>
        <time>2024-08-13T07:02:24Z</time>
      </trkpt>
      <trkpt lat="44.82655" lon="6.26052">
        <ele>1409</ele>
        <time>2024-08-13T07:02:25Z</time>
      </trkpt>
      <trkpt lat="44.82655" lon="6.26052">
        <ele>1409</ele>
        <time>2024-08-13T07:02:26Z</time>
      </trkpt>
      <trkpt lat="44.82655" lon="6.26052">
        <ele>1409.2</ele>
        <time>2024-08-13T07:02:27Z</time>
      </trkpt>
      <trkpt lat="44.82655" lon="6.26052">
        <ele>1409.2</ele>
        <time>2024-08-13T07:02:28Z</time>
      </trkpt>
      <trkpt lat="44.82655" lon="6.26052">
        <ele>1409.2</ele>
        <time>2024-08-13T07:02:29Z</time>
      </trkpt>
      <trkpt lat="44.82655" lon="6.26052">
        <ele>1409.2</ele>
        <time>2024-08-13T07:02:30Z</time>
      </trkpt>
      <trkpt lat="44.82655" lon="6.26052">
        <ele>1409.2</ele>
        <time>2024-08-13T07:02:31Z</time>
      </trkpt>
      <trkpt lat="44.82655" lon="6.26052">
        <ele>1409.2</ele>
        <time>2024-08-13T07:02:32Z</time>
      </trkpt>
      <trkpt lat="44.82655" lon="6.26052">
        <ele>1409.2</ele>
        <time>2024-08-13T07:02:33Z</time>
      </trkpt>
      <trkpt lat="44.82654" lon="6.26051">
        <ele>1409.2</ele>
        <time>2024-08-13T07:02:34Z</time>
      </trkpt>
      <trkpt lat="44.82654" lon="6.26051">
        <ele>1409.2</ele>
        <time>2024-08-13T07:02:35Z</time>
      </trkpt>
      <trkpt lat="44.82654" lon="6.26051">
        <ele>1409</ele>
        <time>2024-08-13T07:02:36Z</time>
      </trkpt>
      <trkpt lat="44.82654" lon="6.26051">
        <ele>1409</ele>
        <time>2024-08-13T07:02:37Z</time>
      </trkpt>
      <trkpt lat="44.82654" lon="6.26051">
        <ele>1409</ele>
        <time>2024-08-13T07:02:38Z</time>
      </trkpt>
      <trkpt lat="44.82654" lon="6.26051">
        <ele>1408.8</ele>
        <time>2024-08-13T07:02:39Z</time>
      </trkpt>
      <trkpt lat="44.82654" lon="6.26051">
        <ele>1408.8</ele>
        <time>2024-08-13T07:02:40Z</time>
      </trkpt>
      <trkpt lat="44.82654" lon="6.26051">
        <ele>1408.8</ele>
        <time>2024-08-13T07:02:41Z</time>
      </trkpt>
      <trkpt lat="44.82654" lon="6.26051">
        <ele>1408.8</ele>
        <time>2024-08-13T07:02:42Z</time>
      </trkpt>
      <trkpt lat="44.82654" lon="6.26051">
        <ele>1408.8</ele>
        <time>2024-08-13T07:02:43Z</time>
      </trkpt>
      <trkpt lat="44.82654" lon="6.26051">
        <ele>1408.8</ele>
        <time>2024-08-13T07:02:44Z</time>
      </trkpt>
      <trkpt lat="44.82654" lon="6.26051">
        <ele>1408.8</ele>
        <time>2024-08-13T07:02:45Z</time>
      </trkpt>
      <trkpt lat="44.82654" lon="6.26051">
        <ele>1408.6</ele>
        <time>2024-08-13T07:02:46Z</time>
      </trkpt>
      <trkpt lat="44.82654" lon="6.26051">
        <ele>1408.6</ele>
        <time>2024-08-13T07:02:47Z</time>
      </trkpt>
      <trkpt lat="44.82654" lon="6.26051">
        <ele>1408.6</ele>
        <time>2024-08-13T07:02:48Z</time>
      </trkpt>
      <trkpt lat="44.82654" lon="6.26051">
        <ele>1408.6</ele>
        <time>2024-08-13T07:02:49Z</time>
      </trkpt>
      <trkpt lat="44.82654" lon="6.26051">
        <ele>1408.6</ele>
        <time>2024-08-13T07:02:50Z</time>
      </trkpt>
      <trkpt lat="44.82654" lon="6.26051">
        <ele>1408.6</ele>
        <time>2024-08-13T07:02:51Z</time>
      </trkpt>
      <trkpt lat="44.82654" lon="6.26051">
        <ele>1408.8</ele>
        <time>2024-08-13T07:02:52Z</time>
      </trkpt>
      <trkpt lat="44.82654" lon="6.26051">
        <ele>1408.8</ele>
        <time>2024-08-13T07:02:53Z</time>
      </trkpt>
      <trkpt lat="44.82654" lon="6.26051">
        <ele>1408.8</ele>
        <time>2024-08-13T07:02:54Z</time>
      </trkpt>
      <trkpt lat="44.82654" lon="6.26051">
        <ele>1408.6</ele>
        <time>2024-08-13T07:02:55Z</time>
      </trkpt>
      <trkpt lat="44.82654" lon="6.26051">
        <ele>1408.6</ele>
        <time>2024-08-13T07:02:56Z</time>
      </trkpt>
      <trkpt lat="44.82654" lon="6.26051">
        <ele>1408.6</ele>
        <time>2024-08-13T07:02:57Z</time>
      </trkpt>
      <trkpt lat="44.82654" lon="6.26051">
        <ele>1408.6</ele>
        <time>2024-08-13T07:02:58Z</time>
      </trkpt>
      <trkpt lat="44.82654" lon="6.26051">
        <ele>1408.6</ele>
        <time>2024-08-13T07:02:59Z</time>
      </trkpt>
      <trkpt lat="44.82654" lon="6.26051">
        <ele>1409.2</ele>
        <time>2024-08-13T07:03:00Z</time>
      </trkpt>
      <trkpt lat="44.82654" lon="6.26051">
        <ele>1409.2</ele>
        <time>2024-08-13T07:03:01Z</time>
      </trkpt>
      <trkpt lat="44.82654" lon="6.26051">
        <ele>1408.8</ele>
        <time>2024-08-13T07:03:02Z</time>
      </trkpt>
      <trkpt lat="44.82654" lon="6.26051">
        <ele>1408.8</ele>
        <time>2024-08-13T07:03:03Z</time>
      </trkpt>
      <trkpt lat="44.82654" lon="6.26051">
        <ele>1408.8</ele>
        <time>2024-08-13T07:03:04Z</time>
      </trkpt>
      <trkpt lat="44.82654" lon="6.26051">
        <ele>1408.8</ele>
        <time>2024-08-13T07:03:05Z</time>
      </trkpt>
      <trkpt lat="44.82654" lon="6.26051">
        <ele>1408.8</ele>
        <time>2024-08-13T07:03:06Z</time>
      </trkpt>
      <trkpt lat="44.82654" lon="6.26051">
        <ele>1408.6</ele>
        <time>2024-08-13T07:03:07Z</time>
      </trkpt>
      <trkpt lat="44.82654" lon="6.26051">
        <ele>1408.2</ele>
        <time>2024-08-13T07:03:08Z</time>
      </trkpt>
      <trkpt lat="44.82654" lon="6.26051">
        <ele>1408</ele>
        <time>2024-08-13T07:03:09Z</time>
      </trkpt>
      <trkpt lat="44.82654" lon="6.26051">
        <ele>1408</ele>
        <time>2024-08-13T07:03:10Z</time>
      </trkpt>
      <trkpt lat="44.82654" lon="6.26051">
        <ele>1408</ele>
        <time>2024-08-13T07:03:11Z</time>
      </trkpt>
      <trkpt lat="44.82654" lon="6.26051">
        <ele>1408</ele>
        <time>2024-08-13T07:03:12Z</time>
      </trkpt>
      <trkpt lat="44.82654" lon="6.26051">
        <ele>1408</ele>
        <time>2024-08-13T07:03:13Z</time>
      </trkpt>
      <trkpt lat="44.82653" lon="6.26048">
        <ele>1408</ele>
        <time>2024-08-13T07:03:14Z</time>
      </trkpt>
      <trkpt lat="44.82653" lon="6.26048">
        <ele>1408</ele>
        <time>2024-08-13T07:03:15Z</time>
      </trkpt>
      <trkpt lat="44.82653" lon="6.26045">
        <ele>1407.6</ele>
        <time>2024-08-13T07:03:16Z</time>
      </trkpt>
      <trkpt lat="44.82653" lon="6.26045">
        <ele>1407.4</ele>
        <time>2024-08-13T07:03:17Z</time>
      </trkpt>
      <trkpt lat="44.82653" lon="6.2604">
        <ele>1407.2</ele>
        <time>2024-08-13T07:03:18Z</time>
      </trkpt>
      <trkpt lat="44.82653" lon="6.2604">
        <ele>1406.8</ele>
        <time>2024-08-13T07:03:19Z</time>
      </trkpt>
      <trkpt lat="44.82654" lon="6.26036">
        <ele>1406.6</ele>
        <time>2024-08-13T07:03:20Z</time>
      </trkpt>
      <trkpt lat="44.82654" lon="6.26036">
        <ele>1406</ele>
        <time>2024-08-13T07:03:21Z</time>
      </trkpt>
      <trkpt lat="44.82656" lon="6.26034">
        <ele>1405.8</ele>
        <time>2024-08-13T07:03:22Z</time>
      </trkpt>
      <trkpt lat="44.82656" lon="6.26034">
        <ele>1405.6</ele>
        <time>2024-08-13T07:03:23Z</time>
      </trkpt>
      <trkpt lat="44.82658" lon="6.26032">
        <ele>1405.2</ele>
        <time>2024-08-13T07:03:24Z</time>
      </trkpt>
      <trkpt lat="44.82658" lon="6.26032">
        <ele>1404.8</ele>
        <time>2024-08-13T07:03:25Z</time>
      </trkpt>
      <trkpt lat="44.82658" lon="6.26032">
        <ele>1404.8</ele>
        <time>2024-08-13T07:03:26Z</time>
      </trkpt>
      <trkpt lat="44.82661" lon="6.2603">
        <ele>1404.4</ele>
        <time>2024-08-13T07:03:27Z</time>
      </trkpt>
      <trkpt lat="44.82661" lon="6.2603">
        <ele>1404.2</ele>
        <time>2024-08-13T07:03:28Z</time>
      </trkpt>
      <trkpt lat="44.82661" lon="6.2603">
        <ele>1404</ele>
        <time>2024-08-13T07:03:29Z</time>
      </trkpt>
      <trkpt lat="44.82663" lon="6.26029">
        <ele>1404</ele>
        <time>2024-08-13T07:03:30Z</time>
      </trkpt>
      <trkpt lat="44.82663" lon="6.26029">
        <ele>1404</ele>
        <time>2024-08-13T07:03:31Z</time>
      </trkpt>
      <trkpt lat="44.82665" lon="6.26027">
        <ele>1403.6</ele>
        <time>2024-08-13T07:03:32Z</time>
      </trkpt>
      <trkpt lat="44.82665" lon="6.26027">
        <ele>1403.4</ele>
        <time>2024-08-13T07:03:33Z</time>
      </trkpt>
      <trkpt lat="44.82666" lon="6.26025">
        <ele>1403.2</ele>
        <time>2024-08-13T07:03:34Z</time>
      </trkpt>
      <trkpt lat="44.82666" lon="6.26025">
        <ele>1402.6</ele>
        <time>2024-08-13T07:03:35Z</time>
      </trkpt>
      <trkpt lat="44.82669" lon="6.26023">
        <ele>1402.2</ele>
        <time>2024-08-13T07:03:36Z</time>
      </trkpt>
      <trkpt lat="44.82669" lon="6.26023">
        <ele>1401.6</ele>
        <time>2024-08-13T07:03:37Z</time>
      </trkpt>
      <trkpt lat="44.82673" lon="6.26021">
        <ele>1401.2</ele>
        <time>2024-08-13T07:03:38Z</time>
      </trkpt>
      <trkpt lat="44.82673" lon="6.26021">
        <ele>1401.2</ele>
        <time>2024-08-13T07:03:39Z</time>
      </trkpt>
      <trkpt lat="44.82675" lon="6.2602">
        <ele>1401</ele>
        <time>2024-08-13T07:03:40Z</time>
      </trkpt>
      <trkpt lat="44.82675" lon="6.2602">
        <ele>1400.8</ele>
        <time>2024-08-13T07:03:41Z</time>
      </trkpt>
      <trkpt lat="44.82677" lon="6.26019">
        <ele>1400.6</ele>
        <time>2024-08-13T07:03:42Z</time>
      </trkpt>
      <trkpt lat="44.82677" lon="6.26019">
        <ele>1400.4</ele>
        <time>2024-08-13T07:03:43Z</time>
      </trkpt>
      <trkpt lat="44.82679" lon="6.26017">
        <ele>1400.2</ele>
        <time>2024-08-13T07:03:44Z</time>
      </trkpt>
      <trkpt lat="44.82679" lon="6.26017">
        <ele>1400.2</ele>
        <time>2024-08-13T07:03:45Z</time>
      </trkpt>
      <trkpt lat="44.8268" lon="6.26014">
        <ele>1399.8</ele>
        <time>2024-08-13T07:03:46Z</time>
      </trkpt>
      <trkpt lat="44.8268" lon="6.26014">
        <ele>1399.8</ele>
        <time>2024-08-13T07:03:47Z</time>
      </trkpt>
      <trkpt lat="44.82682" lon="6.26013">
        <ele>1399.4</ele>
        <time>2024-08-13T07:03:48Z</time>
      </trkpt>
      <trkpt lat="44.82682" lon="6.26013">
        <ele>1399.2</ele>
        <time>2024-08-13T07:03:49Z</time>
      </trkpt>
      <trkpt lat="44.82682" lon="6.26013">
        <ele>1399</ele>
        <time>2024-08-13T07:03:50Z</time>
      </trkpt>
      <trkpt lat="44.82685" lon="6.26013">
        <ele>1398.8</ele>
        <time>2024-08-13T07:03:51Z</time>
      </trkpt>
      <trkpt lat="44.82685" lon="6.26013">
        <ele>1398.6</ele>
        <time>2024-08-13T07:03:52Z</time>
      </trkpt>
      <trkpt lat="44.82685" lon="6.26013">
        <ele>1398.6</ele>
        <time>2024-08-13T07:03:53Z</time>
      </trkpt>
      <trkpt lat="44.82685" lon="6.26013">
        <ele>1398.6</ele>
        <time>2024-08-13T07:03:54Z</time>
      </trkpt>
      <trkpt lat="44.82687" lon="6.26013">
        <ele>1399</ele>
        <time>2024-08-13T07:03:55Z</time>
      </trkpt>
      <trkpt lat="44.82687" lon="6.26013">
        <ele>1399.2</ele>
        <time>2024-08-13T07:03:56Z</time>
      </trkpt>
      <trkpt lat="44.82687" lon="6.26013">
        <ele>1399.4</ele>
        <time>2024-08-13T07:03:57Z</time>
      </trkpt>
      <trkpt lat="44.82689" lon="6.2601">
        <ele>1399.8</ele>
        <time>2024-08-13T07:03:58Z</time>
      </trkpt>
      <trkpt lat="44.82689" lon="6.2601">
        <ele>1399.8</ele>
        <time>2024-08-13T07:03:59Z</time>
      </trkpt>
      <trkpt lat="44.82689" lon="6.2601">
        <ele>1400</ele>
        <time>2024-08-13T07:04:00Z</time>
      </trkpt>
      <trkpt lat="44.82689" lon="6.2601">
        <ele>1400</ele>
        <time>2024-08-13T07:04:01Z</time>
      </trkpt>
      <trkpt lat="44.82689" lon="6.2601">
        <ele>1400.2</ele>
        <time>2024-08-13T07:04:02Z</time>
      </trkpt>
      <trkpt lat="44.82689" lon="6.2601">
        <ele>1400.2</ele>
        <time>2024-08-13T07:04:03Z</time>
      </trkpt>
      <trkpt lat="44.82689" lon="6.2601">
        <ele>1400.2</ele>
        <time>2024-08-13T07:04:04Z</time>
      </trkpt>
      <trkpt lat="44.82691" lon="6.26008">
        <ele>1400.2</ele>
        <time>2024-08-13T07:04:05Z</time>
      </trkpt>
      <trkpt lat="44.82691" lon="6.26008">
        <ele>1400.2</ele>
        <time>2024-08-13T07:04:06Z</time>
      </trkpt>
      <trkpt lat="44.82691" lon="6.26008">
        <ele>1400.2</ele>
        <time>2024-08-13T07:04:07Z</time>
      </trkpt>
      <trkpt lat="44.82689" lon="6.26006">
        <ele>1400.4</ele>
        <time>2024-08-13T07:04:08Z</time>
      </trkpt>
      <trkpt lat="44.82689" lon="6.26006">
        <ele>1400.4</ele>
        <time>2024-08-13T07:04:09Z</time>
      </trkpt>
      <trkpt lat="44.82689" lon="6.26006">
        <ele>1400.4</ele>
        <time>2024-08-13T07:04:10Z</time>
      </trkpt>
      <trkpt lat="44.82689" lon="6.26006">
        <ele>1400.2</ele>
        <time>2024-08-13T07:04:11Z</time>
      </trkpt>
      <trkpt lat="44.82689" lon="6.26006">
        <ele>1400.2</ele>
        <time>2024-08-13T07:04:12Z</time>
      </trkpt>
      <trkpt lat="44.82689" lon="6.26006">
        <ele>1400</ele>
        <time>2024-08-13T07:04:13Z</time>
      </trkpt>
      <trkpt lat="44.82689" lon="6.26006">
        <ele>1399.8</ele>
        <time>2024-08-13T07:04:14Z</time>
      </trkpt>
      <trkpt lat="44.82689" lon="6.26006">
        <ele>1399.8</ele>
        <time>2024-08-13T07:04:15Z</time>
      </trkpt>
      <trkpt lat="44.82689" lon="6.26006">
        <ele>1399.8</ele>
        <time>2024-08-13T07:04:16Z</time>
      </trkpt>
      <trkpt lat="44.82689" lon="6.26006">
        <ele>1399.6</ele>
        <time>2024-08-13T07:04:17Z</time>
      </trkpt>
      <trkpt lat="44.82689" lon="6.26006">
        <ele>1399.6</ele>
        <time>2024-08-13T07:04:18Z</time>
      </trkpt>
      <trkpt lat="44.82689" lon="6.26006">
        <ele>1399.2</ele>
        <time>2024-08-13T07:04:19Z</time>
      </trkpt>
      <trkpt lat="44.82689" lon="6.26006">
        <ele>1399.2</ele>
        <time>2024-08-13T07:04:20Z</time>
      </trkpt>
      <trkpt lat="44.82689" lon="6.26006">
        <ele>1399.4</ele>
        <time>2024-08-13T07:04:21Z</time>
      </trkpt>
      <trkpt lat="44.82688" lon="6.26005">
        <ele>1399.4</ele>
        <time>2024-08-13T07:04:22Z</time>
      </trkpt>
      <trkpt lat="44.82688" lon="6.26005">
        <ele>1399.4</ele>
        <time>2024-08-13T07:04:23Z</time>
      </trkpt>
      <trkpt lat="44.82687" lon="6.26002">
        <ele>1399.4</ele>
        <time>2024-08-13T07:04:24Z</time>
      </trkpt>
      <trkpt lat="44.82687" lon="6.26002">
        <ele>1399.4</ele>
        <time>2024-08-13T07:04:25Z</time>
      </trkpt>
      <trkpt lat="44.82686" lon="6.25998">
        <ele>1399.4</ele>
        <time>2024-08-13T07:04:26Z</time>
      </trkpt>
      <trkpt lat="44.82686" lon="6.25998">
        <ele>1399.2</ele>
        <time>2024-08-13T07:04:27Z</time>
      </trkpt>
      <trkpt lat="44.82685" lon="6.25995">
        <ele>1399.2</ele>
        <time>2024-08-13T07:04:28Z</time>
      </trkpt>
      <trkpt lat="44.82685" lon="6.25995">
        <ele>1399.2</ele>
        <time>2024-08-13T07:04:29Z</time>
      </trkpt>
      <trkpt lat="44.82685" lon="6.25995">
        <ele>1399.2</ele>
        <time>2024-08-13T07:04:30Z</time>
      </trkpt>
      <trkpt lat="44.82685" lon="6.25995">
        <ele>1399.4</ele>
        <time>2024-08-13T07:04:31Z</time>
      </trkpt>
      <trkpt lat="44.82685" lon="6.25995">
        <ele>1399.8</ele>
        <time>2024-08-13T07:04:32Z</time>
      </trkpt>
      <trkpt lat="44.82685" lon="6.25995">
        <ele>1400</ele>
        <time>2024-08-13T07:04:33Z</time>
      </trkpt>
      <trkpt lat="44.82685" lon="6.25995">
        <ele>1400</ele>
        <time>2024-08-13T07:04:34Z</time>
      </trkpt>
      <trkpt lat="44.82685" lon="6.25995">
        <ele>1399.8</ele>
        <time>2024-08-13T07:04:35Z</time>
      </trkpt>
      <trkpt lat="44.82685" lon="6.25995">
        <ele>1399.8</ele>
        <time>2024-08-13T07:04:36Z</time>
      </trkpt>
      <trkpt lat="44.82685" lon="6.25995">
        <ele>1400.2</ele>
        <time>2024-08-13T07:04:37Z</time>
      </trkpt>
      <trkpt lat="44.82685" lon="6.25995">
        <ele>1400.2</ele>
        <time>2024-08-13T07:04:38Z</time>
      </trkpt>
      <trkpt lat="44.82685" lon="6.25995">
        <ele>1400</ele>
        <time>2024-08-13T07:04:39Z</time>
      </trkpt>
      <trkpt lat="44.82685" lon="6.25995">
        <ele>1400</ele>
        <time>2024-08-13T07:04:40Z</time>
      </trkpt>
      <trkpt lat="44.82685" lon="6.25995">
        <ele>1400</ele>
        <time>2024-08-13T07:04:41Z</time>
      </trkpt>
      <trkpt lat="44.82685" lon="6.25995">
        <ele>1400</ele>
        <time>2024-08-13T07:04:42Z</time>
      </trkpt>
      <trkpt lat="44.82685" lon="6.25995">
        <ele>1400</ele>
        <time>2024-08-13T07:04:43Z</time>
      </trkpt>
      <trkpt lat="44.82685" lon="6.25995">
        <ele>1400.2</ele>
        <time>2024-08-13T07:04:44Z</time>
      </trkpt>
      <trkpt lat="44.82684" lon="6.25993">
        <ele>1400.2</ele>
        <time>2024-08-13T07:04:45Z</time>
      </trkpt>
      <trkpt lat="44.82684" lon="6.25993">
        <ele>1400.2</ele>
        <time>2024-08-13T07:04:46Z</time>
      </trkpt>
      <trkpt lat="44.82684" lon="6.25993">
        <ele>1400</ele>
        <time>2024-08-13T07:04:47Z</time>
      </trkpt>
      <trkpt lat="44.82682" lon="6.2599">
        <ele>1400</ele>
        <time>2024-08-13T07:04:48Z</time>
      </trkpt>
      <trkpt lat="44.82682" lon="6.2599">
        <ele>1399.8</ele>
        <time>2024-08-13T07:04:49Z</time>
      </trkpt>
      <trkpt lat="44.8268" lon="6.25989">
        <ele>1399.6</ele>
        <time>2024-08-13T07:04:50Z</time>
      </trkpt>
      <trkpt lat="44.8268" lon="6.25989">
        <ele>1399</ele>
        <time>2024-08-13T07:04:51Z</time>
      </trkpt>
      <trkpt lat="44.8268" lon="6.25989">
        <ele>1398.8</ele>
        <time>2024-08-13T07:04:52Z</time>
      </trkpt>
      <trkpt lat="44.82678" lon="6.25988">
        <ele>1398.6</ele>
        <time>2024-08-13T07:04:53Z</time>
      </trkpt>
      <trkpt lat="44.82678" lon="6.25988">
        <ele>1398.4</ele>
        <time>2024-08-13T07:04:54Z</time>
      </trkpt>
      <trkpt lat="44.82678" lon="6.25988">
        <ele>1398</ele>
        <time>2024-08-13T07:04:55Z</time>
      </trkpt>
      <trkpt lat="44.82675" lon="6.25987">
        <ele>1397.8</ele>
        <time>2024-08-13T07:04:56Z</time>
      </trkpt>
      <trkpt lat="44.82675" lon="6.25987">
        <ele>1397.6</ele>
        <time>2024-08-13T07:04:57Z</time>
      </trkpt>
      <trkpt lat="44.82674" lon="6.25986">
        <ele>1397.4</ele>
        <time>2024-08-13T07:04:58Z</time>
      </trkpt>
      <trkpt lat="44.82674" lon="6.25986">
        <ele>1397</ele>
        <time>2024-08-13T07:04:59Z</time>
      </trkpt>
      <trkpt lat="44.82674" lon="6.25986">
        <ele>1397</ele>
        <time>2024-08-13T07:05:00Z</time>
      </trkpt>
      <trkpt lat="44.82674" lon="6.25986">
        <ele>1396.6</ele>
        <time>2024-08-13T07:05:01Z</time>
      </trkpt>
      <trkpt lat="44.82671" lon="6.25985">
        <ele>1396.2</ele>
        <time>2024-08-13T07:05:02Z</time>
      </trkpt>
      <trkpt lat="44.82671" lon="6.25985">
        <ele>1396.2</ele>
        <time>2024-08-13T07:05:03Z</time>
      </trkpt>
      <trkpt lat="44.82671" lon="6.25985">
        <ele>1395.8</ele>
        <time>2024-08-13T07:05:04Z</time>
      </trkpt>
      <trkpt lat="44.82669" lon="6.25985">
        <ele>1395.6</ele>
        <time>2024-08-13T07:05:05Z</time>
      </trkpt>
      <trkpt lat="44.82669" lon="6.25985">
        <ele>1395.4</ele>
        <time>2024-08-13T07:05:06Z</time>
      </trkpt>
      <trkpt lat="44.82669" lon="6.25985">
        <ele>1395.2</ele>
        <time>2024-08-13T07:05:07Z</time>
      </trkpt>
      <trkpt lat="44.82667" lon="6.25984">
        <ele>1394.8</ele>
        <time>2024-08-13T07:05:08Z</time>
      </trkpt>
      <trkpt lat="44.82667" lon="6.25984">
        <ele>1394.6</ele>
        <time>2024-08-13T07:05:09Z</time>
      </trkpt>
      <trkpt lat="44.82665" lon="6.25983">
        <ele>1394.6</ele>
        <time>2024-08-13T07:05:10Z</time>
      </trkpt>
      <trkpt lat="44.82665" lon="6.25983">
        <ele>1394.4</ele>
        <time>2024-08-13T07:05:11Z</time>
      </trkpt>
      <trkpt lat="44.82663" lon="6.25982">
        <ele>1394</ele>
        <time>2024-08-13T07:05:12Z</time>
      </trkpt>
      <trkpt lat="44.82663" lon="6.25982">
        <ele>1393.6</ele>
        <time>2024-08-13T07:05:13Z</time>
      </trkpt>
      <trkpt lat="44.82661" lon="6.25982">
        <ele>1393.4</ele>
        <time>2024-08-13T07:05:14Z</time>
      </trkpt>
      <trkpt lat="44.82661" lon="6.25982">
        <ele>1393.4</ele>
        <time>2024-08-13T07:05:15Z</time>
      </trkpt>
      <trkpt lat="44.82658" lon="6.25981">
        <ele>1393.2</ele>
        <time>2024-08-13T07:05:16Z</time>
      </trkpt>
      <trkpt lat="44.82658" lon="6.25981">
        <ele>1393.2</ele>
        <time>2024-08-13T07:05:17Z</time>
      </trkpt>
      <trkpt lat="44.82656" lon="6.25979">
        <ele>1393</ele>
        <time>2024-08-13T07:05:18Z</time>
      </trkpt>
      <trkpt lat="44.82656" lon="6.25979">
        <ele>1392.6</ele>
        <time>2024-08-13T07:05:19Z</time>
      </trkpt>
      <trkpt lat="44.82654" lon="6.25979">
        <ele>1392.4</ele>
        <time>2024-08-13T07:05:20Z</time>
      </trkpt>
      <trkpt lat="44.82654" lon="6.25979">
        <ele>1392</ele>
        <time>2024-08-13T07:05:21Z</time>
      </trkpt>
      <trkpt lat="44.82652" lon="6.25979">
        <ele>1392</ele>
        <time>2024-08-13T07:05:22Z</time>
      </trkpt>
      <trkpt lat="44.82652" lon="6.25979">
        <ele>1391.8</ele>
        <time>2024-08-13T07:05:23Z</time>
      </trkpt>
      <trkpt lat="44.82651" lon="6.25977">
        <ele>1391.6</ele>
        <time>2024-08-13T07:05:24Z</time>
      </trkpt>
      <trkpt lat="44.82651" lon="6.25977">
        <ele>1391.2</ele>
        <time>2024-08-13T07:05:25Z</time>
      </trkpt>
      <trkpt lat="44.82651" lon="6.25977">
        <ele>1391</ele>
        <time>2024-08-13T07:05:26Z</time>
      </trkpt>
      <trkpt lat="44.82649" lon="6.25974">
        <ele>1390.8</ele>
        <time>2024-08-13T07:05:27Z</time>
      </trkpt>
      <trkpt lat="44.82649" lon="6.25974">
        <ele>1390.8</ele>
        <time>2024-08-13T07:05:28Z</time>
      </trkpt>
      <trkpt lat="44.82648" lon="6.25971">
        <ele>1390.4</ele>
        <time>2024-08-13T07:05:29Z</time>
      </trkpt>
      <trkpt lat="44.82648" lon="6.25971">
        <ele>1390</ele>
        <time>2024-08-13T07:05:30Z</time>
      </trkpt>
      <trkpt lat="44.82647" lon="6.25969">
        <ele>1390</ele>
        <time>2024-08-13T07:05:31Z</time>
      </trkpt>
      <trkpt lat="44.82647" lon="6.25969">
        <ele>1389.8</ele>
        <time>2024-08-13T07:05:32Z</time>
      </trkpt>
      <trkpt lat="44.82645" lon="6.25967">
        <ele>1389.6</ele>
        <time>2024-08-13T07:05:33Z</time>
      </trkpt>
      <trkpt lat="44.82645" lon="6.25967">
        <ele>1389.2</ele>
        <time>2024-08-13T07:05:34Z</time>
      </trkpt>
      <trkpt lat="44.82643" lon="6.25965">
        <ele>1389</ele>
        <time>2024-08-13T07:05:35Z</time>
      </trkpt>
      <trkpt lat="44.82643" lon="6.25965">
        <ele>1388.8</ele>
        <time>2024-08-13T07:05:36Z</time>
      </trkpt>
      <trkpt lat="44.82642" lon="6.25963">
        <ele>1388.6</ele>
        <time>2024-08-13T07:05:37Z</time>
      </trkpt>
      <trkpt lat="44.82642" lon="6.25963">
        <ele>1388.6</ele>
        <time>2024-08-13T07:05:38Z</time>
      </trkpt>
      <trkpt lat="44.8264" lon="6.25961">
        <ele>1388.6</ele>
        <time>2024-08-13T07:05:39Z</time>
      </trkpt>
      <trkpt lat="44.8264" lon="6.25961">
        <ele>1388.2</ele>
        <time>2024-08-13T07:05:40Z</time>
      </trkpt>
      <trkpt lat="44.8264" lon="6.25961">
        <ele>1388</ele>
        <time>2024-08-13T07:05:41Z</time>
      </trkpt>
      <trkpt lat="44.82638" lon="6.2596">
        <ele>1388</ele>
        <time>2024-08-13T07:05:42Z</time>
      </trkpt>
      <trkpt lat="44.82638" lon="6.2596">
        <ele>1388</ele>
        <time>2024-08-13T07:05:43Z</time>
      </trkpt>
      <trkpt lat="44.82636" lon="6.25958">
        <ele>1387.4</ele>
        <time>2024-08-13T07:05:44Z</time>
      </trkpt>
      <trkpt lat="44.82636" lon="6.25958">
        <ele>1387</ele>
        <time>2024-08-13T07:05:45Z</time>
      </trkpt>
      <trkpt lat="44.82634" lon="6.25955">
        <ele>1387</ele>
        <time>2024-08-13T07:05:46Z</time>
      </trkpt>
      <trkpt lat="44.82634" lon="6.25955">
        <ele>1387</ele>
        <time>2024-08-13T07:05:47Z</time>
      </trkpt>
      <trkpt lat="44.82633" lon="6.25953">
        <ele>1386.4</ele>
        <time>2024-08-13T07:05:48Z</time>
      </trkpt>
      <trkpt lat="44.82633" lon="6.25953">
        <ele>1386</ele>
        <time>2024-08-13T07:05:49Z</time>
      </trkpt>
      <trkpt lat="44.82631" lon="6.2595">
        <ele>1386</ele>
        <time>2024-08-13T07:05:50Z</time>
      </trkpt>
      <trkpt lat="44.82631" lon="6.2595">
        <ele>1385.6</ele>
        <time>2024-08-13T07:05:51Z</time>
      </trkpt>
      <trkpt lat="44.82629" lon="6.25947">
        <ele>1385.4</ele>
        <time>2024-08-13T07:05:52Z</time>
      </trkpt>
      <trkpt lat="44.82629" lon="6.25947">
        <ele>1385.4</ele>
        <time>2024-08-13T07:05:53Z</time>
      </trkpt>
      <trkpt lat="44.82628" lon="6.25945">
        <ele>1385.4</ele>
        <time>2024-08-13T07:05:54Z</time>
      </trkpt>
      <trkpt lat="44.82628" lon="6.25945">
        <ele>1385.4</ele>
        <time>2024-08-13T07:05:55Z</time>
      </trkpt>
      <trkpt lat="44.82627" lon="6.25941">
        <ele>1385.2</ele>
        <time>2024-08-13T07:05:56Z</time>
      </trkpt>
      <trkpt lat="44.82627" lon="6.25941">
        <ele>1385</ele>
        <time>2024-08-13T07:05:57Z</time>
      </trkpt>
      <trkpt lat="44.82626" lon="6.25937">
        <ele>1384.6</ele>
        <time>2024-08-13T07:05:58Z</time>
      </trkpt>
      <trkpt lat="44.82626" lon="6.25937">
        <ele>1384.4</ele>
        <time>2024-08-13T07:05:59Z</time>
      </trkpt>
      <trkpt lat="44.82624" lon="6.25934">
        <ele>1384</ele>
        <time>2024-08-13T07:06:00Z</time>
      </trkpt>
      <trkpt lat="44.82624" lon="6.25934">
        <ele>1383.8</ele>
        <time>2024-08-13T07:06:01Z</time>
      </trkpt>
      <trkpt lat="44.82622" lon="6.2593">
        <ele>1384</ele>
        <time>2024-08-13T07:06:02Z</time>
      </trkpt>
      <trkpt lat="44.82622" lon="6.2593">
        <ele>1384</ele>
        <time>2024-08-13T07:06:03Z</time>
      </trkpt>
      <trkpt lat="44.82621" lon="6.25928">
        <ele>1383.8</ele>
        <time>2024-08-13T07:06:04Z</time>
      </trkpt>
      <trkpt lat="44.82621" lon="6.25928">
        <ele>1383.8</ele>
        <time>2024-08-13T07:06:05Z</time>
      </trkpt>
      <trkpt lat="44.8262" lon="6.25925">
        <ele>1383.4</ele>
        <time>2024-08-13T07:06:06Z</time>
      </trkpt>
      <trkpt lat="44.8262" lon="6.25925">
        <ele>1383</ele>
        <time>2024-08-13T07:06:07Z</time>
      </trkpt>
      <trkpt lat="44.82618" lon="6.25922">
        <ele>1383.2</ele>
        <time>2024-08-13T07:06:08Z</time>
      </trkpt>
      <trkpt lat="44.82618" lon="6.25922">
        <ele>1383.2</ele>
        <time>2024-08-13T07:06:09Z</time>
      </trkpt>
      <trkpt lat="44.82617" lon="6.25919">
        <ele>1383.2</ele>
        <time>2024-08-13T07:06:10Z</time>
      </trkpt>
      <trkpt lat="44.82617" lon="6.25919">
        <ele>1383.2</ele>
        <time>2024-08-13T07:06:11Z</time>
      </trkpt>
      <trkpt lat="44.82617" lon="6.25916">
        <ele>1383.2</ele>
        <time>2024-08-13T07:06:12Z</time>
      </trkpt>
      <trkpt lat="44.82617" lon="6.25916">
        <ele>1383.2</ele>
        <time>2024-08-13T07:06:13Z</time>
      </trkpt>
      <trkpt lat="44.82615" lon="6.25914">
        <ele>1382.8</ele>
        <time>2024-08-13T07:06:14Z</time>
      </trkpt>
      <trkpt lat="44.82615" lon="6.25914">
        <ele>1382.4</ele>
        <time>2024-08-13T07:06:15Z</time>
      </trkpt>
      <trkpt lat="44.82614" lon="6.25911">
        <ele>1382.4</ele>
        <time>2024-08-13T07:06:16Z</time>
      </trkpt>
      <trkpt lat="44.82614" lon="6.25911">
        <ele>1382.2</ele>
        <time>2024-08-13T07:06:17Z</time>
      </trkpt>
      <trkpt lat="44.82613" lon="6.25908">
        <ele>1382</ele>
        <time>2024-08-13T07:06:18Z</time>
      </trkpt>
      <trkpt lat="44.82613" lon="6.25908">
        <ele>1381.6</ele>
        <time>2024-08-13T07:06:19Z</time>
      </trkpt>
      <trkpt lat="44.8261" lon="6.25905">
        <ele>1381.4</ele>
        <time>2024-08-13T07:06:20Z</time>
      </trkpt>
      <trkpt lat="44.82609" lon="6.25903">
        <ele>1381.2</ele>
        <time>2024-08-13T07:06:21Z</time>
      </trkpt>
      <trkpt lat="44.82609" lon="6.25903">
        <ele>1381.2</ele>
        <time>2024-08-13T07:06:22Z</time>
      </trkpt>
      <trkpt lat="44.82607" lon="6.25901">
        <ele>1381</ele>
        <time>2024-08-13T07:06:23Z</time>
      </trkpt>
      <trkpt lat="44.82607" lon="6.25901">
        <ele>1380.8</ele>
        <time>2024-08-13T07:06:24Z</time>
      </trkpt>
      <trkpt lat="44.82605" lon="6.25898">
        <ele>1380.8</ele>
        <time>2024-08-13T07:06:25Z</time>
      </trkpt>
      <trkpt lat="44.82605" lon="6.25898">
        <ele>1380.8</ele>
        <time>2024-08-13T07:06:26Z</time>
      </trkpt>
      <trkpt lat="44.82604" lon="6.25895">
        <ele>1380.4</ele>
        <time>2024-08-13T07:06:27Z</time>
      </trkpt>
      <trkpt lat="44.82604" lon="6.25895">
        <ele>1380.4</ele>
        <time>2024-08-13T07:06:28Z</time>
      </trkpt>
      <trkpt lat="44.82602" lon="6.25892">
        <ele>1380.2</ele>
        <time>2024-08-13T07:06:29Z</time>
      </trkpt>
      <trkpt lat="44.82602" lon="6.25892">
        <ele>1380</ele>
        <time>2024-08-13T07:06:30Z</time>
      </trkpt>
      <trkpt lat="44.826" lon="6.2589">
        <ele>1379.8</ele>
        <time>2024-08-13T07:06:31Z</time>
      </trkpt>
      <trkpt lat="44.826" lon="6.2589">
        <ele>1379.4</ele>
        <time>2024-08-13T07:06:32Z</time>
      </trkpt>
      <trkpt lat="44.82599" lon="6.25887">
        <ele>1379.4</ele>
        <time>2024-08-13T07:06:33Z</time>
      </trkpt>
      <trkpt lat="44.82599" lon="6.25887">
        <ele>1379.2</ele>
        <time>2024-08-13T07:06:34Z</time>
      </trkpt>
      <trkpt lat="44.82598" lon="6.25884">
        <ele>1379</ele>
        <time>2024-08-13T07:06:35Z</time>
      </trkpt>
      <trkpt lat="44.82598" lon="6.25884">
        <ele>1378.6</ele>
        <time>2024-08-13T07:06:36Z</time>
      </trkpt>
      <trkpt lat="44.82598" lon="6.25884">
        <ele>1378.4</ele>
        <time>2024-08-13T07:06:37Z</time>
      </trkpt>
      <trkpt lat="44.82598" lon="6.2588">
        <ele>1378.2</ele>
        <time>2024-08-13T07:06:38Z</time>
      </trkpt>
      <trkpt lat="44.82598" lon="6.2588">
        <ele>1378.2</ele>
        <time>2024-08-13T07:06:39Z</time>
      </trkpt>
      <trkpt lat="44.82596" lon="6.25881">
        <ele>1378</ele>
        <time>2024-08-13T07:06:40Z</time>
      </trkpt>
      <trkpt lat="44.82596" lon="6.25881">
        <ele>1377.8</ele>
        <time>2024-08-13T07:06:41Z</time>
      </trkpt>
      <trkpt lat="44.82596" lon="6.25884">
        <ele>1377.2</ele>
        <time>2024-08-13T07:06:42Z</time>
      </trkpt>
      <trkpt lat="44.82596" lon="6.25884">
        <ele>1377.2</ele>
        <time>2024-08-13T07:06:43Z</time>
      </trkpt>
      <trkpt lat="44.82594" lon="6.25886">
        <ele>1377</ele>
        <time>2024-08-13T07:06:44Z</time>
      </trkpt>
      <trkpt lat="44.82594" lon="6.25886">
        <ele>1376.6</ele>
        <time>2024-08-13T07:06:45Z</time>
      </trkpt>
      <trkpt lat="44.82592" lon="6.25889">
        <ele>1376.2</ele>
        <time>2024-08-13T07:06:46Z</time>
      </trkpt>
      <trkpt lat="44.82592" lon="6.25889">
        <ele>1376.2</ele>
        <time>2024-08-13T07:06:47Z</time>
      </trkpt>
      <trkpt lat="44.8259" lon="6.25891">
        <ele>1376</ele>
        <time>2024-08-13T07:06:48Z</time>
      </trkpt>
      <trkpt lat="44.8259" lon="6.25891">
        <ele>1376</ele>
        <time>2024-08-13T07:06:49Z</time>
      </trkpt>
      <trkpt lat="44.82588" lon="6.25892">
        <ele>1375.6</ele>
        <time>2024-08-13T07:06:50Z</time>
      </trkpt>
      <trkpt lat="44.82588" lon="6.25892">
        <ele>1375.4</ele>
        <time>2024-08-13T07:06:51Z</time>
      </trkpt>
      <trkpt lat="44.82586" lon="6.25892">
        <ele>1375.2</ele>
        <time>2024-08-13T07:06:52Z</time>
      </trkpt>
      <trkpt lat="44.82586" lon="6.25892">
        <ele>1375</ele>
        <time>2024-08-13T07:06:53Z</time>
      </trkpt>
      <trkpt lat="44.82586" lon="6.25892">
        <ele>1374.8</ele>
        <time>2024-08-13T07:06:54Z</time>
      </trkpt>
      <trkpt lat="44.82584" lon="6.25889">
        <ele>1374.6</ele>
        <time>2024-08-13T07:06:55Z</time>
      </trkpt>
      <trkpt lat="44.82584" lon="6.25889">
        <ele>1374.2</ele>
        <time>2024-08-13T07:06:56Z</time>
      </trkpt>
      <trkpt lat="44.82584" lon="6.25885">
        <ele>1374</ele>
        <time>2024-08-13T07:06:57Z</time>
      </trkpt>
      <trkpt lat="44.82584" lon="6.25885">
        <ele>1374</ele>
        <time>2024-08-13T07:06:58Z</time>
      </trkpt>
      <trkpt lat="44.82584" lon="6.25882">
        <ele>1373.8</ele>
        <time>2024-08-13T07:06:59Z</time>
      </trkpt>
      <trkpt lat="44.82584" lon="6.25882">
        <ele>1373.6</ele>
        <time>2024-08-13T07:07:00Z</time>
      </trkpt>
      <trkpt lat="44.82583" lon="6.25878">
        <ele>1373.4</ele>
        <time>2024-08-13T07:07:01Z</time>
      </trkpt>
      <trkpt lat="44.82583" lon="6.25878">
        <ele>1372.8</ele>
        <time>2024-08-13T07:07:02Z</time>
      </trkpt>
      <trkpt lat="44.82583" lon="6.25875">
        <ele>1372.8</ele>
        <time>2024-08-13T07:07:03Z</time>
      </trkpt>
      <trkpt lat="44.82583" lon="6.25875">
        <ele>1372.8</ele>
        <time>2024-08-13T07:07:04Z</time>
      </trkpt>
      <trkpt lat="44.82583" lon="6.25875">
        <ele>1372.8</ele>
        <time>2024-08-13T07:07:05Z</time>
      </trkpt>
      <trkpt lat="44.82584" lon="6.25871">
        <ele>1372.6</ele>
        <time>2024-08-13T07:07:06Z</time>
      </trkpt>
      <trkpt lat="44.82584" lon="6.25871">
        <ele>1372.2</ele>
        <time>2024-08-13T07:07:07Z</time>
      </trkpt>
      <trkpt lat="44.82583" lon="6.25869">
        <ele>1372</ele>
        <time>2024-08-13T07:07:08Z</time>
      </trkpt>
      <trkpt lat="44.82583" lon="6.25869">
        <ele>1372</ele>
        <time>2024-08-13T07:07:09Z</time>
      </trkpt>
      <trkpt lat="44.82582" lon="6.25866">
        <ele>1371.8</ele>
        <time>2024-08-13T07:07:10Z</time>
      </trkpt>
      <trkpt lat="44.82582" lon="6.25866">
        <ele>1371.4</ele>
        <time>2024-08-13T07:07:11Z</time>
      </trkpt>
      <trkpt lat="44.82582" lon="6.25866">
        <ele>1371</ele>
        <time>2024-08-13T07:07:12Z</time>
      </trkpt>
      <trkpt lat="44.8258" lon="6.25868">
        <ele>1370.6</ele>
        <time>2024-08-13T07:07:13Z</time>
      </trkpt>
      <trkpt lat="44.8258" lon="6.25868">
        <ele>1370.2</ele>
        <time>2024-08-13T07:07:14Z</time>
      </trkpt>
      <trkpt lat="44.82579" lon="6.25872">
        <ele>1370.2</ele>
        <time>2024-08-13T07:07:15Z</time>
      </trkpt>
      <trkpt lat="44.82579" lon="6.25872">
        <ele>1370</ele>
        <time>2024-08-13T07:07:16Z</time>
      </trkpt>
      <trkpt lat="44.82579" lon="6.25872">
        <ele>1370</ele>
        <time>2024-08-13T07:07:17Z</time>
      </trkpt>
      <trkpt lat="44.82577" lon="6.25874">
        <ele>1369.6</ele>
        <time>2024-08-13T07:07:18Z</time>
      </trkpt>
      <trkpt lat="44.82577" lon="6.25874">
        <ele>1369.4</ele>
        <time>2024-08-13T07:07:19Z</time>
      </trkpt>
      <trkpt lat="44.82575" lon="6.25875">
        <ele>1369.2</ele>
        <time>2024-08-13T07:07:20Z</time>
      </trkpt>
      <trkpt lat="44.82575" lon="6.25875">
        <ele>1369</ele>
        <time>2024-08-13T07:07:21Z</time>
      </trkpt>
      <trkpt lat="44.82572" lon="6.25877">
        <ele>1368.6</ele>
        <time>2024-08-13T07:07:22Z</time>
      </trkpt>
      <trkpt lat="44.82572" lon="6.25877">
        <ele>1368.4</ele>
        <time>2024-08-13T07:07:23Z</time>
      </trkpt>
      <trkpt lat="44.82571" lon="6.25878">
        <ele>1368.2</ele>
        <time>2024-08-13T07:07:24Z</time>
      </trkpt>
      <trkpt lat="44.82571" lon="6.25878">
        <ele>1368</ele>
        <time>2024-08-13T07:07:25Z</time>
      </trkpt>
      <trkpt lat="44.82569" lon="6.2588">
        <ele>1368</ele>
        <time>2024-08-13T07:07:26Z</time>
      </trkpt>
      <trkpt lat="44.82569" lon="6.2588">
        <ele>1367.8</ele>
        <time>2024-08-13T07:07:27Z</time>
      </trkpt>
      <trkpt lat="44.82567" lon="6.25882">
        <ele>1367.6</ele>
        <time>2024-08-13T07:07:28Z</time>
      </trkpt>
      <trkpt lat="44.82567" lon="6.25882">
        <ele>1367.6</ele>
        <time>2024-08-13T07:07:29Z</time>
      </trkpt>
      <trkpt lat="44.82567" lon="6.25882">
        <ele>1367.4</ele>
        <time>2024-08-13T07:07:30Z</time>
      </trkpt>
      <trkpt lat="44.82565" lon="6.25885">
        <ele>1367.2</ele>
        <time>2024-08-13T07:07:31Z</time>
      </trkpt>
      <trkpt lat="44.82565" lon="6.25885">
        <ele>1367</ele>
        <time>2024-08-13T07:07:32Z</time>
      </trkpt>
      <trkpt lat="44.82563" lon="6.25888">
        <ele>1366.6</ele>
        <time>2024-08-13T07:07:33Z</time>
      </trkpt>
      <trkpt lat="44.82563" lon="6.25888">
        <ele>1366.4</ele>
        <time>2024-08-13T07:07:34Z</time>
      </trkpt>
      <trkpt lat="44.82564" lon="6.2589">
        <ele>1366.2</ele>
        <time>2024-08-13T07:07:35Z</time>
      </trkpt>
      <trkpt lat="44.82564" lon="6.2589">
        <ele>1365.8</ele>
        <time>2024-08-13T07:07:36Z</time>
      </trkpt>
      <trkpt lat="44.82563" lon="6.25893">
        <ele>1365.6</ele>
        <time>2024-08-13T07:07:37Z</time>
      </trkpt>
      <trkpt lat="44.82563" lon="6.25893">
        <ele>1365.4</ele>
        <time>2024-08-13T07:07:38Z</time>
      </trkpt>
      <trkpt lat="44.82563" lon="6.25893">
        <ele>1365</ele>
        <time>2024-08-13T07:07:39Z</time>
      </trkpt>
      <trkpt lat="44.82561" lon="6.25893">
        <ele>1364.8</ele>
        <time>2024-08-13T07:07:40Z</time>
      </trkpt>
      <trkpt lat="44.82561" lon="6.25893">
        <ele>1364.6</ele>
        <time>2024-08-13T07:07:41Z</time>
      </trkpt>
      <trkpt lat="44.82561" lon="6.25893">
        <ele>1364.4</ele>
        <time>2024-08-13T07:07:42Z</time>
      </trkpt>
      <trkpt lat="44.82559" lon="6.25892">
        <ele>1364</ele>
        <time>2024-08-13T07:07:43Z</time>
      </trkpt>
      <trkpt lat="44.82559" lon="6.25892">
        <ele>1364</ele>
        <time>2024-08-13T07:07:44Z</time>
      </trkpt>
      <trkpt lat="44.82559" lon="6.25892">
        <ele>1363.8</ele>
        <time>2024-08-13T07:07:45Z</time>
      </trkpt>
      <trkpt lat="44.82557" lon="6.2589">
        <ele>1363.6</ele>
        <time>2024-08-13T07:07:46Z</time>
      </trkpt>
      <trkpt lat="44.82557" lon="6.2589">
        <ele>1363.2</ele>
        <time>2024-08-13T07:07:47Z</time>
      </trkpt>
      <trkpt lat="44.82555" lon="6.25888">
        <ele>1363</ele>
        <time>2024-08-13T07:07:48Z</time>
      </trkpt>
      <trkpt lat="44.82554" lon="6.25886">
        <ele>1363</ele>
        <time>2024-08-13T07:07:49Z</time>
      </trkpt>
      <trkpt lat="44.82554" lon="6.25886">
        <ele>1362.6</ele>
        <time>2024-08-13T07:07:50Z</time>
      </trkpt>
      <trkpt lat="44.82551" lon="6.25884">
        <ele>1362.4</ele>
        <time>2024-08-13T07:07:51Z</time>
      </trkpt>
      <trkpt lat="44.82551" lon="6.25884">
        <ele>1362.4</ele>
        <time>2024-08-13T07:07:52Z</time>
      </trkpt>
      <trkpt lat="44.82551" lon="6.2588">
        <ele>1362.2</ele>
        <time>2024-08-13T07:07:53Z</time>
      </trkpt>
      <trkpt lat="44.82551" lon="6.2588">
        <ele>1362</ele>
        <time>2024-08-13T07:07:54Z</time>
      </trkpt>
      <trkpt lat="44.8255" lon="6.25876">
        <ele>1361.6</ele>
        <time>2024-08-13T07:07:55Z</time>
      </trkpt>
      <trkpt lat="44.8255" lon="6.25876">
        <ele>1361.6</ele>
        <time>2024-08-13T07:07:56Z</time>
      </trkpt>
      <trkpt lat="44.8255" lon="6.25873">
        <ele>1361.2</ele>
        <time>2024-08-13T07:07:57Z</time>
      </trkpt>
      <trkpt lat="44.8255" lon="6.25873">
        <ele>1361</ele>
        <time>2024-08-13T07:07:58Z</time>
      </trkpt>
      <trkpt lat="44.82549" lon="6.25869">
        <ele>1360.8</ele>
        <time>2024-08-13T07:07:59Z</time>
      </trkpt>
      <trkpt lat="44.82549" lon="6.25869">
        <ele>1360.2</ele>
        <time>2024-08-13T07:08:00Z</time>
      </trkpt>
      <trkpt lat="44.82548" lon="6.25865">
        <ele>1360</ele>
        <time>2024-08-13T07:08:01Z</time>
      </trkpt>
      <trkpt lat="44.82548" lon="6.25865">
        <ele>1359.6</ele>
        <time>2024-08-13T07:08:02Z</time>
      </trkpt>
      <trkpt lat="44.82548" lon="6.25862">
        <ele>1359.6</ele>
        <time>2024-08-13T07:08:03Z</time>
      </trkpt>
      <trkpt lat="44.82548" lon="6.25862">
        <ele>1359.4</ele>
        <time>2024-08-13T07:08:04Z</time>
      </trkpt>
      <trkpt lat="44.82549" lon="6.25859">
        <ele>1359.4</ele>
        <time>2024-08-13T07:08:05Z</time>
      </trkpt>
      <trkpt lat="44.82549" lon="6.25859">
        <ele>1359.2</ele>
        <time>2024-08-13T07:08:06Z</time>
      </trkpt>
      <trkpt lat="44.82549" lon="6.25859">
        <ele>1359</ele>
        <time>2024-08-13T07:08:07Z</time>
      </trkpt>
      <trkpt lat="44.82551" lon="6.25855">
        <ele>1358.6</ele>
        <time>2024-08-13T07:08:08Z</time>
      </trkpt>
      <trkpt lat="44.82551" lon="6.25855">
        <ele>1358.6</ele>
        <time>2024-08-13T07:08:09Z</time>
      </trkpt>
      <trkpt lat="44.82551" lon="6.25853">
        <ele>1358.6</ele>
        <time>2024-08-13T07:08:10Z</time>
      </trkpt>
      <trkpt lat="44.82551" lon="6.25853">
        <ele>1358.2</ele>
        <time>2024-08-13T07:08:11Z</time>
      </trkpt>
      <trkpt lat="44.82552" lon="6.2585">
        <ele>1357.8</ele>
        <time>2024-08-13T07:08:12Z</time>
      </trkpt>
      <trkpt lat="44.82552" lon="6.2585">
        <ele>1357.6</ele>
        <time>2024-08-13T07:08:13Z</time>
      </trkpt>
      <trkpt lat="44.82552" lon="6.25846">
        <ele>1357.6</ele>
        <time>2024-08-13T07:08:14Z</time>
      </trkpt>
      <trkpt lat="44.82552" lon="6.25846">
        <ele>1357.4</ele>
        <time>2024-08-13T07:08:15Z</time>
      </trkpt>
      <trkpt lat="44.82551" lon="6.25843">
        <ele>1357.4</ele>
        <time>2024-08-13T07:08:16Z</time>
      </trkpt>
      <trkpt lat="44.82551" lon="6.25843">
        <ele>1357</ele>
        <time>2024-08-13T07:08:17Z</time>
      </trkpt>
      <trkpt lat="44.82551" lon="6.25839">
        <ele>1356.6</ele>
        <time>2024-08-13T07:08:18Z</time>
      </trkpt>
      <trkpt lat="44.82551" lon="6.25839">
        <ele>1356.4</ele>
        <time>2024-08-13T07:08:19Z</time>
      </trkpt>
      <trkpt lat="44.8255" lon="6.25835">
        <ele>1356.4</ele>
        <time>2024-08-13T07:08:20Z</time>
      </trkpt>
      <trkpt lat="44.8255" lon="6.25835">
        <ele>1356</ele>
        <time>2024-08-13T07:08:21Z</time>
      </trkpt>
      <trkpt lat="44.8255" lon="6.25832">
        <ele>1355.8</ele>
        <time>2024-08-13T07:08:22Z</time>
      </trkpt>
      <trkpt lat="44.8255" lon="6.25832">
        <ele>1355.8</ele>
        <time>2024-08-13T07:08:23Z</time>
      </trkpt>
      <trkpt lat="44.82549" lon="6.25828">
        <ele>1355.6</ele>
        <time>2024-08-13T07:08:24Z</time>
      </trkpt>
      <trkpt lat="44.82549" lon="6.25828">
        <ele>1355.2</ele>
        <time>2024-08-13T07:08:25Z</time>
      </trkpt>
      <trkpt lat="44.82548" lon="6.25824">
        <ele>1355</ele>
        <time>2024-08-13T07:08:26Z</time>
      </trkpt>
      <trkpt lat="44.82548" lon="6.25824">
        <ele>1355</ele>
        <time>2024-08-13T07:08:27Z</time>
      </trkpt>
      <trkpt lat="44.82547" lon="6.2582">
        <ele>1354.8</ele>
        <time>2024-08-13T07:08:28Z</time>
      </trkpt>
      <trkpt lat="44.82547" lon="6.2582">
        <ele>1354.6</ele>
        <time>2024-08-13T07:08:29Z</time>
      </trkpt>
      <trkpt lat="44.82546" lon="6.25817">
        <ele>1354.2</ele>
        <time>2024-08-13T07:08:30Z</time>
      </trkpt>
      <trkpt lat="44.82546" lon="6.25817">
        <ele>1354.2</ele>
        <time>2024-08-13T07:08:31Z</time>
      </trkpt>
      <trkpt lat="44.82546" lon="6.25813">
        <ele>1354</ele>
        <time>2024-08-13T07:08:32Z</time>
      </trkpt>
      <trkpt lat="44.82546" lon="6.25813">
        <ele>1354</ele>
        <time>2024-08-13T07:08:33Z</time>
      </trkpt>
      <trkpt lat="44.82545" lon="6.2581">
        <ele>1354</ele>
        <time>2024-08-13T07:08:34Z</time>
      </trkpt>
      <trkpt lat="44.82545" lon="6.2581">
        <ele>1354</ele>
        <time>2024-08-13T07:08:35Z</time>
      </trkpt>
      <trkpt lat="44.82544" lon="6.25807">
        <ele>1353.8</ele>
        <time>2024-08-13T07:08:36Z</time>
      </trkpt>
      <trkpt lat="44.82544" lon="6.25807">
        <ele>1353.8</ele>
        <time>2024-08-13T07:08:37Z</time>
      </trkpt>
      <trkpt lat="44.82544" lon="6.25803">
        <ele>1353.6</ele>
        <time>2024-08-13T07:08:38Z</time>
      </trkpt>
      <trkpt lat="44.82544" lon="6.25803">
        <ele>1353.4</ele>
        <time>2024-08-13T07:08:39Z</time>
      </trkpt>
      <trkpt lat="44.82544" lon="6.25799">
        <ele>1353.4</ele>
        <time>2024-08-13T07:08:40Z</time>
      </trkpt>
      <trkpt lat="44.82544" lon="6.25799">
        <ele>1353.2</ele>
        <time>2024-08-13T07:08:41Z</time>
      </trkpt>
      <trkpt lat="44.82544" lon="6.25796">
        <ele>1353.2</ele>
        <time>2024-08-13T07:08:42Z</time>
      </trkpt>
      <trkpt lat="44.82544" lon="6.25796">
        <ele>1353</ele>
        <time>2024-08-13T07:08:43Z</time>
      </trkpt>
      <trkpt lat="44.82544" lon="6.25793">
        <ele>1353</ele>
        <time>2024-08-13T07:08:44Z</time>
      </trkpt>
      <trkpt lat="44.82544" lon="6.25793">
        <ele>1353</ele>
        <time>2024-08-13T07:08:45Z</time>
      </trkpt>
      <trkpt lat="44.82544" lon="6.2579">
        <ele>1352.8</ele>
        <time>2024-08-13T07:08:46Z</time>
      </trkpt>
      <trkpt lat="44.82544" lon="6.2579">
        <ele>1352.6</ele>
        <time>2024-08-13T07:08:47Z</time>
      </trkpt>
      <trkpt lat="44.82545" lon="6.25787">
        <ele>1352.6</ele>
        <time>2024-08-13T07:08:48Z</time>
      </trkpt>
      <trkpt lat="44.82545" lon="6.25787">
        <ele>1352.4</ele>
        <time>2024-08-13T07:08:49Z</time>
      </trkpt>
      <trkpt lat="44.82545" lon="6.25784">
        <ele>1352.4</ele>
        <time>2024-08-13T07:08:50Z</time>
      </trkpt>
      <trkpt lat="44.82545" lon="6.25784">
        <ele>1352.2</ele>
        <time>2024-08-13T07:08:51Z</time>
      </trkpt>
      <trkpt lat="44.82544" lon="6.25781">
        <ele>1351.8</ele>
        <time>2024-08-13T07:08:52Z</time>
      </trkpt>
      <trkpt lat="44.82544" lon="6.25781">
        <ele>1351.6</ele>
        <time>2024-08-13T07:08:53Z</time>
      </trkpt>
      <trkpt lat="44.82543" lon="6.25778">
        <ele>1351.6</ele>
        <time>2024-08-13T07:08:54Z</time>
      </trkpt>
      <trkpt lat="44.82543" lon="6.25778">
        <ele>1351.6</ele>
        <time>2024-08-13T07:08:55Z</time>
      </trkpt>
      <trkpt lat="44.82543" lon="6.25778">
        <ele>1351.4</ele>
        <time>2024-08-13T07:08:56Z</time>
      </trkpt>
      <trkpt lat="44.82542" lon="6.25775">
        <ele>1351.4</ele>
        <time>2024-08-13T07:08:57Z</time>
      </trkpt>
      <trkpt lat="44.82542" lon="6.25775">
        <ele>1351</ele>
        <time>2024-08-13T07:08:58Z</time>
      </trkpt>
      <trkpt lat="44.82541" lon="6.25772">
        <ele>1350.6</ele>
        <time>2024-08-13T07:08:59Z</time>
      </trkpt>
      <trkpt lat="44.82541" lon="6.25772">
        <ele>1350.4</ele>
        <time>2024-08-13T07:09:00Z</time>
      </trkpt>
      <trkpt lat="44.8254" lon="6.25769">
        <ele>1350.2</ele>
        <time>2024-08-13T07:09:01Z</time>
      </trkpt>
      <trkpt lat="44.8254" lon="6.25769">
        <ele>1350</ele>
        <time>2024-08-13T07:09:02Z</time>
      </trkpt>
      <trkpt lat="44.82539" lon="6.25765">
        <ele>1350</ele>
        <time>2024-08-13T07:09:03Z</time>
      </trkpt>
      <trkpt lat="44.82539" lon="6.25765">
        <ele>1350</ele>
        <time>2024-08-13T07:09:04Z</time>
      </trkpt>
      <trkpt lat="44.82538" lon="6.25761">
        <ele>1349.8</ele>
        <time>2024-08-13T07:09:05Z</time>
      </trkpt>
      <trkpt lat="44.82538" lon="6.25761">
        <ele>1349.4</ele>
        <time>2024-08-13T07:09:06Z</time>
      </trkpt>
      <trkpt lat="44.82539" lon="6.25758">
        <ele>1349.2</ele>
        <time>2024-08-13T07:09:07Z</time>
      </trkpt>
      <trkpt lat="44.82539" lon="6.25758">
        <ele>1348.8</ele>
        <time>2024-08-13T07:09:08Z</time>
      </trkpt>
      <trkpt lat="44.82539" lon="6.25755">
        <ele>1348.8</ele>
        <time>2024-08-13T07:09:09Z</time>
      </trkpt>
      <trkpt lat="44.82539" lon="6.25755">
        <ele>1348.6</ele>
        <time>2024-08-13T07:09:10Z</time>
      </trkpt>
      <trkpt lat="44.8254" lon="6.25752">
        <ele>1348.4</ele>
        <time>2024-08-13T07:09:11Z</time>
      </trkpt>
      <trkpt lat="44.8254" lon="6.25752">
        <ele>1348.4</ele>
        <time>2024-08-13T07:09:12Z</time>
      </trkpt>
      <trkpt lat="44.82539" lon="6.25748">
        <ele>1348.4</ele>
        <time>2024-08-13T07:09:13Z</time>
      </trkpt>
      <trkpt lat="44.82539" lon="6.25748">
        <ele>1348</ele>
        <time>2024-08-13T07:09:14Z</time>
      </trkpt>
      <trkpt lat="44.82538" lon="6.25746">
        <ele>1347.8</ele>
        <time>2024-08-13T07:09:15Z</time>
      </trkpt>
      <trkpt lat="44.82538" lon="6.25746">
        <ele>1347.8</ele>
        <time>2024-08-13T07:09:16Z</time>
      </trkpt>
      <trkpt lat="44.82537" lon="6.25742">
        <ele>1347.6</ele>
        <time>2024-08-13T07:09:17Z</time>
      </trkpt>
      <trkpt lat="44.82537" lon="6.25742">
        <ele>1347.4</ele>
        <time>2024-08-13T07:09:18Z</time>
      </trkpt>
      <trkpt lat="44.82536" lon="6.2574">
        <ele>1347</ele>
        <time>2024-08-13T07:09:19Z</time>
      </trkpt>
      <trkpt lat="44.82536" lon="6.2574">
        <ele>1347</ele>
        <time>2024-08-13T07:09:20Z</time>
      </trkpt>
      <trkpt lat="44.82535" lon="6.25737">
        <ele>1346.6</ele>
        <time>2024-08-13T07:09:21Z</time>
      </trkpt>
      <trkpt lat="44.82535" lon="6.25737">
        <ele>1346</ele>
        <time>2024-08-13T07:09:22Z</time>
      </trkpt>
      <trkpt lat="44.82535" lon="6.25737">
        <ele>1346</ele>
        <time>2024-08-13T07:09:23Z</time>
      </trkpt>
      <trkpt lat="44.82534" lon="6.25733">
        <ele>1345.6</ele>
        <time>2024-08-13T07:09:24Z</time>
      </trkpt>
      <trkpt lat="44.82534" lon="6.25733">
        <ele>1345.4</ele>
        <time>2024-08-13T07:09:25Z</time>
      </trkpt>
      <trkpt lat="44.82534" lon="6.25733">
        <ele>1345.2</ele>
        <time>2024-08-13T07:09:26Z</time>
      </trkpt>
      <trkpt lat="44.82533" lon="6.25729">
        <ele>1345</ele>
        <time>2024-08-13T07:09:27Z</time>
      </trkpt>
      <trkpt lat="44.82533" lon="6.25729">
        <ele>1344.8</ele>
        <time>2024-08-13T07:09:28Z</time>
      </trkpt>
      <trkpt lat="44.82534" lon="6.25727">
        <ele>1344.4</ele>
        <time>2024-08-13T07:09:29Z</time>
      </trkpt>
      <trkpt lat="44.82534" lon="6.25727">
        <ele>1344.4</ele>
        <time>2024-08-13T07:09:30Z</time>
      </trkpt>
      <trkpt lat="44.82535" lon="6.25723">
        <ele>1344.2</ele>
        <time>2024-08-13T07:09:31Z</time>
      </trkpt>
      <trkpt lat="44.82535" lon="6.25723">
        <ele>1343.8</ele>
        <time>2024-08-13T07:09:32Z</time>
      </trkpt>
      <trkpt lat="44.82535" lon="6.2572">
        <ele>1343.6</ele>
        <time>2024-08-13T07:09:33Z</time>
      </trkpt>
      <trkpt lat="44.82535" lon="6.2572">
        <ele>1343.4</ele>
        <time>2024-08-13T07:09:34Z</time>
      </trkpt>
      <trkpt lat="44.82535" lon="6.25717">
        <ele>1343.2</ele>
        <time>2024-08-13T07:09:35Z</time>
      </trkpt>
      <trkpt lat="44.82535" lon="6.25717">
        <ele>1343.2</ele>
        <time>2024-08-13T07:09:36Z</time>
      </trkpt>
      <trkpt lat="44.82537" lon="6.25714">
        <ele>1343</ele>
        <time>2024-08-13T07:09:37Z</time>
      </trkpt>
      <trkpt lat="44.82537" lon="6.25714">
        <ele>1342.8</ele>
        <time>2024-08-13T07:09:38Z</time>
      </trkpt>
      <trkpt lat="44.82537" lon="6.25711">
        <ele>1342.8</ele>
        <time>2024-08-13T07:09:39Z</time>
      </trkpt>
      <trkpt lat="44.82537" lon="6.25711">
        <ele>1342.4</ele>
        <time>2024-08-13T07:09:40Z</time>
      </trkpt>
      <trkpt lat="44.82538" lon="6.25709">
        <ele>1342</ele>
        <time>2024-08-13T07:09:41Z</time>
      </trkpt>
      <trkpt lat="44.82538" lon="6.25709">
        <ele>1342</ele>
        <time>2024-08-13T07:09:42Z</time>
      </trkpt>
      <trkpt lat="44.82539" lon="6.25706">
        <ele>1341.8</ele>
        <time>2024-08-13T07:09:43Z</time>
      </trkpt>
      <trkpt lat="44.82539" lon="6.25706">
        <ele>1341.6</ele>
        <time>2024-08-13T07:09:44Z</time>
      </trkpt>
      <trkpt lat="44.82539" lon="6.25706">
        <ele>1341.2</ele>
        <time>2024-08-13T07:09:45Z</time>
      </trkpt>
      <trkpt lat="44.8254" lon="6.25702">
        <ele>1340.8</ele>
        <time>2024-08-13T07:09:46Z</time>
      </trkpt>
      <trkpt lat="44.8254" lon="6.25702">
        <ele>1340.8</ele>
        <time>2024-08-13T07:09:47Z</time>
      </trkpt>
      <trkpt lat="44.8254" lon="6.25702">
        <ele>1340.6</ele>
        <time>2024-08-13T07:09:48Z</time>
      </trkpt>
      <trkpt lat="44.8254" lon="6.25698">
        <ele>1340</ele>
        <time>2024-08-13T07:09:49Z</time>
      </trkpt>
      <trkpt lat="44.8254" lon="6.25698">
        <ele>1339.8</ele>
        <time>2024-08-13T07:09:50Z</time>
      </trkpt>
      <trkpt lat="44.8254" lon="6.25695">
        <ele>1339.2</ele>
        <time>2024-08-13T07:09:51Z</time>
      </trkpt>
      <trkpt lat="44.8254" lon="6.25695">
        <ele>1339</ele>
        <time>2024-08-13T07:09:52Z</time>
      </trkpt>
      <trkpt lat="44.8254" lon="6.25693">
        <ele>1339</ele>
        <time>2024-08-13T07:09:53Z</time>
      </trkpt>
      <trkpt lat="44.8254" lon="6.25693">
        <ele>1339</ele>
        <time>2024-08-13T07:09:54Z</time>
      </trkpt>
      <trkpt lat="44.82539" lon="6.2569">
        <ele>1339</ele>
        <time>2024-08-13T07:09:55Z</time>
      </trkpt>
      <trkpt lat="44.82539" lon="6.2569">
        <ele>1338.8</ele>
        <time>2024-08-13T07:09:56Z</time>
      </trkpt>
      <trkpt lat="44.8254" lon="6.25687">
        <ele>1338.4</ele>
        <time>2024-08-13T07:09:57Z</time>
      </trkpt>
      <trkpt lat="44.8254" lon="6.25687">
        <ele>1338.2</ele>
        <time>2024-08-13T07:09:58Z</time>
      </trkpt>
      <trkpt lat="44.8254" lon="6.25684">
        <ele>1338</ele>
        <time>2024-08-13T07:09:59Z</time>
      </trkpt>
      <trkpt lat="44.8254" lon="6.25684">
        <ele>1337.8</ele>
        <time>2024-08-13T07:10:00Z</time>
      </trkpt>
      <trkpt lat="44.82541" lon="6.25681">
        <ele>1337.6</ele>
        <time>2024-08-13T07:10:01Z</time>
      </trkpt>
      <trkpt lat="44.82541" lon="6.25681">
        <ele>1337.2</ele>
        <time>2024-08-13T07:10:02Z</time>
      </trkpt>
      <trkpt lat="44.82544" lon="6.25678">
        <ele>1337.2</ele>
        <time>2024-08-13T07:10:03Z</time>
      </trkpt>
      <trkpt lat="44.82544" lon="6.25678">
        <ele>1337</ele>
        <time>2024-08-13T07:10:04Z</time>
      </trkpt>
      <trkpt lat="44.82546" lon="6.25676">
        <ele>1336.6</ele>
        <time>2024-08-13T07:10:05Z</time>
      </trkpt>
      <trkpt lat="44.82546" lon="6.25676">
        <ele>1336.2</ele>
        <time>2024-08-13T07:10:06Z</time>
      </trkpt>
      <trkpt lat="44.82548" lon="6.25674">
        <ele>1336.2</ele>
        <time>2024-08-13T07:10:07Z</time>
      </trkpt>
      <trkpt lat="44.82548" lon="6.25674">
        <ele>1336.2</ele>
        <time>2024-08-13T07:10:08Z</time>
      </trkpt>
      <trkpt lat="44.82551" lon="6.25671">
        <ele>1335.6</ele>
        <time>2024-08-13T07:10:09Z</time>
      </trkpt>
      <trkpt lat="44.82551" lon="6.25671">
        <ele>1335.6</ele>
        <time>2024-08-13T07:10:10Z</time>
      </trkpt>
      <trkpt lat="44.82552" lon="6.25669">
        <ele>1335.6</ele>
        <time>2024-08-13T07:10:11Z</time>
      </trkpt>
      <trkpt lat="44.82552" lon="6.25669">
        <ele>1335.6</ele>
        <time>2024-08-13T07:10:12Z</time>
      </trkpt>
      <trkpt lat="44.82553" lon="6.25665">
        <ele>1335.4</ele>
        <time>2024-08-13T07:10:13Z</time>
      </trkpt>
      <trkpt lat="44.82553" lon="6.25665">
        <ele>1335.4</ele>
        <time>2024-08-13T07:10:14Z</time>
      </trkpt>
      <trkpt lat="44.82554" lon="6.25663">
        <ele>1335.2</ele>
        <time>2024-08-13T07:10:15Z</time>
      </trkpt>
      <trkpt lat="44.82554" lon="6.25663">
        <ele>1335.2</ele>
        <time>2024-08-13T07:10:16Z</time>
      </trkpt>
      <trkpt lat="44.82556" lon="6.25659">
        <ele>1335</ele>
        <time>2024-08-13T07:10:17Z</time>
      </trkpt>
      <trkpt lat="44.82556" lon="6.25659">
        <ele>1334.6</ele>
        <time>2024-08-13T07:10:18Z</time>
      </trkpt>
      <trkpt lat="44.82558" lon="6.25656">
        <ele>1334.6</ele>
        <time>2024-08-13T07:10:19Z</time>
      </trkpt>
      <trkpt lat="44.82558" lon="6.25656">
        <ele>1334.8</ele>
        <time>2024-08-13T07:10:20Z</time>
      </trkpt>
      <trkpt lat="44.82559" lon="6.25652">
        <ele>1334.8</ele>
        <time>2024-08-13T07:10:21Z</time>
      </trkpt>
      <trkpt lat="44.82559" lon="6.25652">
        <ele>1334.6</ele>
        <time>2024-08-13T07:10:22Z</time>
      </trkpt>
      <trkpt lat="44.8256" lon="6.25649">
        <ele>1334.4</ele>
        <time>2024-08-13T07:10:23Z</time>
      </trkpt>
      <trkpt lat="44.8256" lon="6.25649">
        <ele>1334.2</ele>
        <time>2024-08-13T07:10:24Z</time>
      </trkpt>
      <trkpt lat="44.82561" lon="6.25646">
        <ele>1334.2</ele>
        <time>2024-08-13T07:10:25Z</time>
      </trkpt>
      <trkpt lat="44.82561" lon="6.25646">
        <ele>1334.2</ele>
        <time>2024-08-13T07:10:26Z</time>
      </trkpt>
      <trkpt lat="44.82562" lon="6.25643">
        <ele>1334.2</ele>
        <time>2024-08-13T07:10:27Z</time>
      </trkpt>
      <trkpt lat="44.82562" lon="6.25643">
        <ele>1334.2</ele>
        <time>2024-08-13T07:10:28Z</time>
      </trkpt>
      <trkpt lat="44.82562" lon="6.2564">
        <ele>1334</ele>
        <time>2024-08-13T07:10:29Z</time>
      </trkpt>
      <trkpt lat="44.82562" lon="6.2564">
        <ele>1334</ele>
        <time>2024-08-13T07:10:30Z</time>
      </trkpt>
      <trkpt lat="44.82563" lon="6.25637">
        <ele>1333.8</ele>
        <time>2024-08-13T07:10:31Z</time>
      </trkpt>
      <trkpt lat="44.82563" lon="6.25637">
        <ele>1333.6</ele>
        <time>2024-08-13T07:10:32Z</time>
      </trkpt>
      <trkpt lat="44.82563" lon="6.25633">
        <ele>1333.6</ele>
        <time>2024-08-13T07:10:33Z</time>
      </trkpt>
      <trkpt lat="44.82563" lon="6.25633">
        <ele>1333.4</ele>
        <time>2024-08-13T07:10:34Z</time>
      </trkpt>
      <trkpt lat="44.82564" lon="6.25631">
        <ele>1333.2</ele>
        <time>2024-08-13T07:10:35Z</time>
      </trkpt>
      <trkpt lat="44.82564" lon="6.25631">
        <ele>1333.2</ele>
        <time>2024-08-13T07:10:36Z</time>
      </trkpt>
      <trkpt lat="44.82564" lon="6.25628">
        <ele>1333</ele>
        <time>2024-08-13T07:10:37Z</time>
      </trkpt>
      <trkpt lat="44.82564" lon="6.25628">
        <ele>1333</ele>
        <time>2024-08-13T07:10:38Z</time>
      </trkpt>
      <trkpt lat="44.82565" lon="6.25626">
        <ele>1332.6</ele>
        <time>2024-08-13T07:10:39Z</time>
      </trkpt>
      <trkpt lat="44.82565" lon="6.25626">
        <ele>1332.4</ele>
        <time>2024-08-13T07:10:40Z</time>
      </trkpt>
      <trkpt lat="44.82567" lon="6.25624">
        <ele>1332.4</ele>
        <time>2024-08-13T07:10:41Z</time>
      </trkpt>
      <trkpt lat="44.82567" lon="6.25624">
        <ele>1332.2</ele>
        <time>2024-08-13T07:10:42Z</time>
      </trkpt>
      <trkpt lat="44.82568" lon="6.25621">
        <ele>1332.2</ele>
        <time>2024-08-13T07:10:43Z</time>
      </trkpt>
      <trkpt lat="44.82568" lon="6.25621">
        <ele>1331.8</ele>
        <time>2024-08-13T07:10:44Z</time>
      </trkpt>
      <trkpt lat="44.82568" lon="6.25618">
        <ele>1331.4</ele>
        <time>2024-08-13T07:10:45Z</time>
      </trkpt>
      <trkpt lat="44.82568" lon="6.25618">
        <ele>1331</ele>
        <time>2024-08-13T07:10:46Z</time>
      </trkpt>
      <trkpt lat="44.82568" lon="6.25615">
        <ele>1330.8</ele>
        <time>2024-08-13T07:10:47Z</time>
      </trkpt>
      <trkpt lat="44.82568" lon="6.25615">
        <ele>1330.6</ele>
        <time>2024-08-13T07:10:48Z</time>
      </trkpt>
      <trkpt lat="44.82569" lon="6.25612">
        <ele>1330.6</ele>
        <time>2024-08-13T07:10:49Z</time>
      </trkpt>
      <trkpt lat="44.82569" lon="6.25612">
        <ele>1330.4</ele>
        <time>2024-08-13T07:10:50Z</time>
      </trkpt>
      <trkpt lat="44.8257" lon="6.25609">
        <ele>1330.2</ele>
        <time>2024-08-13T07:10:51Z</time>
      </trkpt>
      <trkpt lat="44.8257" lon="6.25609">
        <ele>1330</ele>
        <time>2024-08-13T07:10:52Z</time>
      </trkpt>
      <trkpt lat="44.82571" lon="6.25607">
        <ele>1329.6</ele>
        <time>2024-08-13T07:10:53Z</time>
      </trkpt>
      <trkpt lat="44.82571" lon="6.25607">
        <ele>1329.6</ele>
        <time>2024-08-13T07:10:54Z</time>
      </trkpt>
      <trkpt lat="44.82572" lon="6.25604">
        <ele>1329.2</ele>
        <time>2024-08-13T07:10:55Z</time>
      </trkpt>
      <trkpt lat="44.82572" lon="6.25604">
        <ele>1329</ele>
        <time>2024-08-13T07:10:56Z</time>
      </trkpt>
      <trkpt lat="44.82572" lon="6.25601">
        <ele>1328.8</ele>
        <time>2024-08-13T07:10:57Z</time>
      </trkpt>
      <trkpt lat="44.82572" lon="6.25601">
        <ele>1328.6</ele>
        <time>2024-08-13T07:10:58Z</time>
      </trkpt>
      <trkpt lat="44.82572" lon="6.25598">
        <ele>1328.4</ele>
        <time>2024-08-13T07:10:59Z</time>
      </trkpt>
      <trkpt lat="44.82572" lon="6.25598">
        <ele>1328.2</ele>
        <time>2024-08-13T07:11:00Z</time>
      </trkpt>
      <trkpt lat="44.82574" lon="6.25596">
        <ele>1327.8</ele>
        <time>2024-08-13T07:11:01Z</time>
      </trkpt>
      <trkpt lat="44.82574" lon="6.25596">
        <ele>1327.6</ele>
        <time>2024-08-13T07:11:02Z</time>
      </trkpt>
      <trkpt lat="44.82576" lon="6.25594">
        <ele>1327.6</ele>
        <time>2024-08-13T07:11:03Z</time>
      </trkpt>
      <trkpt lat="44.82576" lon="6.25594">
        <ele>1327</ele>
        <time>2024-08-13T07:11:04Z</time>
      </trkpt>
      <trkpt lat="44.82576" lon="6.25594">
        <ele>1327</ele>
        <time>2024-08-13T07:11:05Z</time>
      </trkpt>
      <trkpt lat="44.82576" lon="6.25594">
        <ele>1326.8</ele>
        <time>2024-08-13T07:11:06Z</time>
      </trkpt>
      <trkpt lat="44.82577" lon="6.2559">
        <ele>1326.4</ele>
        <time>2024-08-13T07:11:07Z</time>
      </trkpt>
      <trkpt lat="44.82577" lon="6.2559">
        <ele>1326</ele>
        <time>2024-08-13T07:11:08Z</time>
      </trkpt>
      <trkpt lat="44.82577" lon="6.25588">
        <ele>1325.8</ele>
        <time>2024-08-13T07:11:09Z</time>
      </trkpt>
      <trkpt lat="44.82577" lon="6.25588">
        <ele>1325.6</ele>
        <time>2024-08-13T07:11:10Z</time>
      </trkpt>
      <trkpt lat="44.82576" lon="6.25585">
        <ele>1325.6</ele>
        <time>2024-08-13T07:11:11Z</time>
      </trkpt>
      <trkpt lat="44.82576" lon="6.25585">
        <ele>1325.6</ele>
        <time>2024-08-13T07:11:12Z</time>
      </trkpt>
      <trkpt lat="44.82575" lon="6.25582">
        <ele>1325.4</ele>
        <time>2024-08-13T07:11:13Z</time>
      </trkpt>
      <trkpt lat="44.82575" lon="6.25582">
        <ele>1325.6</ele>
        <time>2024-08-13T07:11:14Z</time>
      </trkpt>
      <trkpt lat="44.82573" lon="6.2558">
        <ele>1325.8</ele>
        <time>2024-08-13T07:11:15Z</time>
      </trkpt>
      <trkpt lat="44.82573" lon="6.2558">
        <ele>1325.8</ele>
        <time>2024-08-13T07:11:16Z</time>
      </trkpt>
      <trkpt lat="44.82572" lon="6.25577">
        <ele>1325.8</ele>
        <time>2024-08-13T07:11:17Z</time>
      </trkpt>
      <trkpt lat="44.82572" lon="6.25577">
        <ele>1325.4</ele>
        <time>2024-08-13T07:11:18Z</time>
      </trkpt>
      <trkpt lat="44.82571" lon="6.25575">
        <ele>1325.4</ele>
        <time>2024-08-13T07:11:19Z</time>
      </trkpt>
      <trkpt lat="44.82571" lon="6.25575">
        <ele>1325.4</ele>
        <time>2024-08-13T07:11:20Z</time>
      </trkpt>
      <trkpt lat="44.8257" lon="6.25571">
        <ele>1325.2</ele>
        <time>2024-08-13T07:11:21Z</time>
      </trkpt>
      <trkpt lat="44.8257" lon="6.25571">
        <ele>1325.2</ele>
        <time>2024-08-13T07:11:22Z</time>
      </trkpt>
      <trkpt lat="44.82569" lon="6.25569">
        <ele>1324.8</ele>
        <time>2024-08-13T07:11:23Z</time>
      </trkpt>
      <trkpt lat="44.82569" lon="6.25569">
        <ele>1324.6</ele>
        <time>2024-08-13T07:11:24Z</time>
      </trkpt>
      <trkpt lat="44.82568" lon="6.25566">
        <ele>1324.4</ele>
        <time>2024-08-13T07:11:25Z</time>
      </trkpt>
      <trkpt lat="44.82568" lon="6.25566">
        <ele>1324.4</ele>
        <time>2024-08-13T07:11:26Z</time>
      </trkpt>
      <trkpt lat="44.82568" lon="6.25566">
        <ele>1324.2</ele>
        <time>2024-08-13T07:11:27Z</time>
      </trkpt>
      <trkpt lat="44.82568" lon="6.25566">
        <ele>1323.8</ele>
        <time>2024-08-13T07:11:28Z</time>
      </trkpt>
      <trkpt lat="44.82567" lon="6.25563">
        <ele>1323.6</ele>
        <time>2024-08-13T07:11:29Z</time>
      </trkpt>
      <trkpt lat="44.82567" lon="6.25563">
        <ele>1323.4</ele>
        <time>2024-08-13T07:11:30Z</time>
      </trkpt>
      <trkpt lat="44.82565" lon="6.25561">
        <ele>1323.2</ele>
        <time>2024-08-13T07:11:31Z</time>
      </trkpt>
      <trkpt lat="44.82565" lon="6.25561">
        <ele>1323</ele>
        <time>2024-08-13T07:11:32Z</time>
      </trkpt>
      <trkpt lat="44.82565" lon="6.25558">
        <ele>1323</ele>
        <time>2024-08-13T07:11:33Z</time>
      </trkpt>
      <trkpt lat="44.82565" lon="6.25558">
        <ele>1322.6</ele>
        <time>2024-08-13T07:11:34Z</time>
      </trkpt>
      <trkpt lat="44.82563" lon="6.25553">
        <ele>1322.2</ele>
        <time>2024-08-13T07:11:35Z</time>
      </trkpt>
      <trkpt lat="44.82563" lon="6.25553">
        <ele>1322</ele>
        <time>2024-08-13T07:11:36Z</time>
      </trkpt>
      <trkpt lat="44.82561" lon="6.25549">
        <ele>1321.6</ele>
        <time>2024-08-13T07:11:37Z</time>
      </trkpt>
      <trkpt lat="44.82561" lon="6.25549">
        <ele>1321.4</ele>
        <time>2024-08-13T07:11:38Z</time>
      </trkpt>
      <trkpt lat="44.8256" lon="6.25546">
        <ele>1321.2</ele>
        <time>2024-08-13T07:11:39Z</time>
      </trkpt>
      <trkpt lat="44.8256" lon="6.25546">
        <ele>1321</ele>
        <time>2024-08-13T07:11:40Z</time>
      </trkpt>
      <trkpt lat="44.8256" lon="6.25543">
        <ele>1320.8</ele>
        <time>2024-08-13T07:11:41Z</time>
      </trkpt>
      <trkpt lat="44.8256" lon="6.25543">
        <ele>1320.4</ele>
        <time>2024-08-13T07:11:42Z</time>
      </trkpt>
      <trkpt lat="44.8256" lon="6.25539">
        <ele>1320.2</ele>
        <time>2024-08-13T07:11:43Z</time>
      </trkpt>
      <trkpt lat="44.8256" lon="6.25539">
        <ele>1320</ele>
        <time>2024-08-13T07:11:44Z</time>
      </trkpt>
      <trkpt lat="44.82559" lon="6.25536">
        <ele>1319.6</ele>
        <time>2024-08-13T07:11:45Z</time>
      </trkpt>
      <trkpt lat="44.82559" lon="6.25536">
        <ele>1319.6</ele>
        <time>2024-08-13T07:11:46Z</time>
      </trkpt>
      <trkpt lat="44.82558" lon="6.25532">
        <ele>1319.6</ele>
        <time>2024-08-13T07:11:47Z</time>
      </trkpt>
      <trkpt lat="44.82558" lon="6.25532">
        <ele>1319.4</ele>
        <time>2024-08-13T07:11:48Z</time>
      </trkpt>
      <trkpt lat="44.82558" lon="6.25529">
        <ele>1319.4</ele>
        <time>2024-08-13T07:11:49Z</time>
      </trkpt>
      <trkpt lat="44.82558" lon="6.25529">
        <ele>1319.2</ele>
        <time>2024-08-13T07:11:50Z</time>
      </trkpt>
      <trkpt lat="44.82558" lon="6.25526">
        <ele>1318.8</ele>
        <time>2024-08-13T07:11:51Z</time>
      </trkpt>
      <trkpt lat="44.82558" lon="6.25526">
        <ele>1318.8</ele>
        <time>2024-08-13T07:11:52Z</time>
      </trkpt>
      <trkpt lat="44.82557" lon="6.25523">
        <ele>1318.8</ele>
        <time>2024-08-13T07:11:53Z</time>
      </trkpt>
      <trkpt lat="44.82557" lon="6.25523">
        <ele>1318.4</ele>
        <time>2024-08-13T07:11:54Z</time>
      </trkpt>
      <trkpt lat="44.82557" lon="6.2552">
        <ele>1318.4</ele>
        <time>2024-08-13T07:11:55Z</time>
      </trkpt>
      <trkpt lat="44.82557" lon="6.2552">
        <ele>1318.2</ele>
        <time>2024-08-13T07:11:56Z</time>
      </trkpt>
      <trkpt lat="44.82557" lon="6.25517">
        <ele>1318</ele>
        <time>2024-08-13T07:11:57Z</time>
      </trkpt>
      <trkpt lat="44.82557" lon="6.25517">
        <ele>1317.8</ele>
        <time>2024-08-13T07:11:58Z</time>
      </trkpt>
      <trkpt lat="44.82556" lon="6.25513">
        <ele>1317.8</ele>
        <time>2024-08-13T07:11:59Z</time>
      </trkpt>
      <trkpt lat="44.82556" lon="6.25513">
        <ele>1317.4</ele>
        <time>2024-08-13T07:12:00Z</time>
      </trkpt>
      <trkpt lat="44.82556" lon="6.25509">
        <ele>1317</ele>
        <time>2024-08-13T07:12:01Z</time>
      </trkpt>
      <trkpt lat="44.82556" lon="6.25509">
        <ele>1316.6</ele>
        <time>2024-08-13T07:12:02Z</time>
      </trkpt>
      <trkpt lat="44.82556" lon="6.25506">
        <ele>1316.6</ele>
        <time>2024-08-13T07:12:03Z</time>
      </trkpt>
      <trkpt lat="44.82556" lon="6.25506">
        <ele>1316.6</ele>
        <time>2024-08-13T07:12:04Z</time>
      </trkpt>
      <trkpt lat="44.82555" lon="6.25503">
        <ele>1316.4</ele>
        <time>2024-08-13T07:12:05Z</time>
      </trkpt>
      <trkpt lat="44.82555" lon="6.25503">
        <ele>1316.2</ele>
        <time>2024-08-13T07:12:06Z</time>
      </trkpt>
      <trkpt lat="44.82554" lon="6.255">
        <ele>1316</ele>
        <time>2024-08-13T07:12:07Z</time>
      </trkpt>
      <trkpt lat="44.82554" lon="6.255">
        <ele>1315.8</ele>
        <time>2024-08-13T07:12:08Z</time>
      </trkpt>
      <trkpt lat="44.82552" lon="6.25498">
        <ele>1315.6</ele>
        <time>2024-08-13T07:12:09Z</time>
      </trkpt>
      <trkpt lat="44.82552" lon="6.25498">
        <ele>1315.2</ele>
        <time>2024-08-13T07:12:10Z</time>
      </trkpt>
      <trkpt lat="44.82551" lon="6.25495">
        <ele>1315.2</ele>
        <time>2024-08-13T07:12:11Z</time>
      </trkpt>
      <trkpt lat="44.82551" lon="6.25495">
        <ele>1314.6</ele>
        <time>2024-08-13T07:12:12Z</time>
      </trkpt>
      <trkpt lat="44.82551" lon="6.25492">
        <ele>1314.2</ele>
        <time>2024-08-13T07:12:13Z</time>
      </trkpt>
      <trkpt lat="44.82551" lon="6.25492">
        <ele>1314</ele>
        <time>2024-08-13T07:12:14Z</time>
      </trkpt>
      <trkpt lat="44.82551" lon="6.25488">
        <ele>1313.6</ele>
        <time>2024-08-13T07:12:15Z</time>
      </trkpt>
      <trkpt lat="44.82551" lon="6.25488">
        <ele>1313.6</ele>
        <time>2024-08-13T07:12:16Z</time>
      </trkpt>
      <trkpt lat="44.8255" lon="6.25484">
        <ele>1313.4</ele>
        <time>2024-08-13T07:12:17Z</time>
      </trkpt>
      <trkpt lat="44.8255" lon="6.25484">
        <ele>1313.2</ele>
        <time>2024-08-13T07:12:18Z</time>
      </trkpt>
      <trkpt lat="44.8255" lon="6.25481">
        <ele>1313.2</ele>
        <time>2024-08-13T07:12:19Z</time>
      </trkpt>
      <trkpt lat="44.8255" lon="6.25481">
        <ele>1313.2</ele>
        <time>2024-08-13T07:12:20Z</time>
      </trkpt>
      <trkpt lat="44.82549" lon="6.25478">
        <ele>1312.6</ele>
        <time>2024-08-13T07:12:21Z</time>
      </trkpt>
      <trkpt lat="44.82549" lon="6.25478">
        <ele>1312.4</ele>
        <time>2024-08-13T07:12:22Z</time>
      </trkpt>
      <trkpt lat="44.82549" lon="6.25475">
        <ele>1312.4</ele>
        <time>2024-08-13T07:12:23Z</time>
      </trkpt>
      <trkpt lat="44.82549" lon="6.25475">
        <ele>1312.4</ele>
        <time>2024-08-13T07:12:24Z</time>
      </trkpt>
      <trkpt lat="44.82549" lon="6.25471">
        <ele>1312</ele>
        <time>2024-08-13T07:12:25Z</time>
      </trkpt>
      <trkpt lat="44.82549" lon="6.25471">
        <ele>1311.8</ele>
        <time>2024-08-13T07:12:26Z</time>
      </trkpt>
      <trkpt lat="44.82549" lon="6.25468">
        <ele>1311.8</ele>
        <time>2024-08-13T07:12:27Z</time>
      </trkpt>
      <trkpt lat="44.82549" lon="6.25468">
        <ele>1311.6</ele>
        <time>2024-08-13T07:12:28Z</time>
      </trkpt>
      <trkpt lat="44.82549" lon="6.25465">
        <ele>1311.4</ele>
        <time>2024-08-13T07:12:29Z</time>
      </trkpt>
      <trkpt lat="44.82547" lon="6.25461">
        <ele>1311.2</ele>
        <time>2024-08-13T07:12:30Z</time>
      </trkpt>
      <trkpt lat="44.82547" lon="6.25461">
        <ele>1311</ele>
        <time>2024-08-13T07:12:31Z</time>
      </trkpt>
      <trkpt lat="44.82546" lon="6.25457">
        <ele>1310.6</ele>
        <time>2024-08-13T07:12:32Z</time>
      </trkpt>
      <trkpt lat="44.82546" lon="6.25457">
        <ele>1310.4</ele>
        <time>2024-08-13T07:12:33Z</time>
      </trkpt>
      <trkpt lat="44.82547" lon="6.25454">
        <ele>1310.4</ele>
        <time>2024-08-13T07:12:34Z</time>
      </trkpt>
      <trkpt lat="44.82547" lon="6.25454">
        <ele>1310.2</ele>
        <time>2024-08-13T07:12:35Z</time>
      </trkpt>
      <trkpt lat="44.82547" lon="6.25454">
        <ele>1310</ele>
        <time>2024-08-13T07:12:36Z</time>
      </trkpt>
      <trkpt lat="44.82546" lon="6.25451">
        <ele>1309.8</ele>
        <time>2024-08-13T07:12:37Z</time>
      </trkpt>
      <trkpt lat="44.82546" lon="6.25451">
        <ele>1309.6</ele>
        <time>2024-08-13T07:12:38Z</time>
      </trkpt>
      <trkpt lat="44.82546" lon="6.25451">
        <ele>1309.2</ele>
        <time>2024-08-13T07:12:39Z</time>
      </trkpt>
      <trkpt lat="44.82546" lon="6.25447">
        <ele>1309.2</ele>
        <time>2024-08-13T07:12:40Z</time>
      </trkpt>
      <trkpt lat="44.82546" lon="6.25447">
        <ele>1309.2</ele>
        <time>2024-08-13T07:12:41Z</time>
      </trkpt>
      <trkpt lat="44.82546" lon="6.25447">
        <ele>1309.4</ele>
        <time>2024-08-13T07:12:42Z</time>
      </trkpt>
      <trkpt lat="44.82546" lon="6.25443">
        <ele>1309.4</ele>
        <time>2024-08-13T07:12:43Z</time>
      </trkpt>
      <trkpt lat="44.82547" lon="6.25438">
        <ele>1309.4</ele>
        <time>2024-08-13T07:12:44Z</time>
      </trkpt>
      <trkpt lat="44.82547" lon="6.25435">
        <ele>1309.4</ele>
        <time>2024-08-13T07:12:45Z</time>
      </trkpt>
      <trkpt lat="44.82547" lon="6.25435">
        <ele>1309.8</ele>
        <time>2024-08-13T07:12:46Z</time>
      </trkpt>
      <trkpt lat="44.82548" lon="6.2543">
        <ele>1309.8</ele>
        <time>2024-08-13T07:12:47Z</time>
      </trkpt>
      <trkpt lat="44.82548" lon="6.2543">
        <ele>1310</ele>
        <time>2024-08-13T07:12:48Z</time>
      </trkpt>
      <trkpt lat="44.82549" lon="6.25427">
        <ele>1310.2</ele>
        <time>2024-08-13T07:12:49Z</time>
      </trkpt>
      <trkpt lat="44.82549" lon="6.25427">
        <ele>1310.4</ele>
        <time>2024-08-13T07:12:50Z</time>
      </trkpt>
      <trkpt lat="44.82549" lon="6.25427">
        <ele>1310.6</ele>
        <time>2024-08-13T07:12:51Z</time>
      </trkpt>
      <trkpt lat="44.8255" lon="6.25425">
        <ele>1310.8</ele>
        <time>2024-08-13T07:12:52Z</time>
      </trkpt>
      <trkpt lat="44.8255" lon="6.25425">
        <ele>1310.8</ele>
        <time>2024-08-13T07:12:53Z</time>
      </trkpt>
      <trkpt lat="44.8255" lon="6.25425">
        <ele>1310.8</ele>
        <time>2024-08-13T07:12:54Z</time>
      </trkpt>
      <trkpt lat="44.8255" lon="6.25425">
        <ele>1310.6</ele>
        <time>2024-08-13T07:12:55Z</time>
      </trkpt>
      <trkpt lat="44.8255" lon="6.25421">
        <ele>1310.4</ele>
        <time>2024-08-13T07:12:56Z</time>
      </trkpt>
      <trkpt lat="44.8255" lon="6.25421">
        <ele>1309.8</ele>
        <time>2024-08-13T07:12:57Z</time>
      </trkpt>
      <trkpt lat="44.8255" lon="6.25421">
        <ele>1309.8</ele>
        <time>2024-08-13T07:12:58Z</time>
      </trkpt>
      <trkpt lat="44.8255" lon="6.25417">
        <ele>1309.8</ele>
        <time>2024-08-13T07:12:59Z</time>
      </trkpt>
      <trkpt lat="44.8255" lon="6.25417">
        <ele>1309.6</ele>
        <time>2024-08-13T07:13:00Z</time>
      </trkpt>
      <trkpt lat="44.8255" lon="6.25412">
        <ele>1309.2</ele>
        <time>2024-08-13T07:13:01Z</time>
      </trkpt>
      <trkpt lat="44.8255" lon="6.25412">
        <ele>1309.2</ele>
        <time>2024-08-13T07:13:02Z</time>
      </trkpt>
      <trkpt lat="44.8255" lon="6.25408">
        <ele>1309.2</ele>
        <time>2024-08-13T07:13:03Z</time>
      </trkpt>
      <trkpt lat="44.8255" lon="6.25408">
        <ele>1309.2</ele>
        <time>2024-08-13T07:13:04Z</time>
      </trkpt>
      <trkpt lat="44.8255" lon="6.25403">
        <ele>1309</ele>
        <time>2024-08-13T07:13:05Z</time>
      </trkpt>
      <trkpt lat="44.8255" lon="6.25403">
        <ele>1309</ele>
        <time>2024-08-13T07:13:06Z</time>
      </trkpt>
      <trkpt lat="44.82549" lon="6.254">
        <ele>1309</ele>
        <time>2024-08-13T07:13:07Z</time>
      </trkpt>
      <trkpt lat="44.82549" lon="6.254">
        <ele>1308.8</ele>
        <time>2024-08-13T07:13:08Z</time>
      </trkpt>
      <trkpt lat="44.8255" lon="6.25398">
        <ele>1308.4</ele>
        <time>2024-08-13T07:13:09Z</time>
      </trkpt>
      <trkpt lat="44.8255" lon="6.25398">
        <ele>1308</ele>
        <time>2024-08-13T07:13:10Z</time>
      </trkpt>
      <trkpt lat="44.8255" lon="6.25398">
        <ele>1307.8</ele>
        <time>2024-08-13T07:13:11Z</time>
      </trkpt>
      <trkpt lat="44.8255" lon="6.25395">
        <ele>1307.4</ele>
        <time>2024-08-13T07:13:12Z</time>
      </trkpt>
      <trkpt lat="44.8255" lon="6.25395">
        <ele>1307</ele>
        <time>2024-08-13T07:13:13Z</time>
      </trkpt>
      <trkpt lat="44.8255" lon="6.25395">
        <ele>1307</ele>
        <time>2024-08-13T07:13:14Z</time>
      </trkpt>
      <trkpt lat="44.82549" lon="6.25392">
        <ele>1306.6</ele>
        <time>2024-08-13T07:13:15Z</time>
      </trkpt>
      <trkpt lat="44.82549" lon="6.25392">
        <ele>1306.4</ele>
        <time>2024-08-13T07:13:16Z</time>
      </trkpt>
      <trkpt lat="44.82549" lon="6.25389">
        <ele>1306.4</ele>
        <time>2024-08-13T07:13:17Z</time>
      </trkpt>
      <trkpt lat="44.82549" lon="6.25389">
        <ele>1306.2</ele>
        <time>2024-08-13T07:13:18Z</time>
      </trkpt>
      <trkpt lat="44.82549" lon="6.25385">
        <ele>1306</ele>
        <time>2024-08-13T07:13:19Z</time>
      </trkpt>
      <trkpt lat="44.82549" lon="6.25381">
        <ele>1305.8</ele>
        <time>2024-08-13T07:13:20Z</time>
      </trkpt>
      <trkpt lat="44.82549" lon="6.25381">
        <ele>1305.6</ele>
        <time>2024-08-13T07:13:21Z</time>
      </trkpt>
      <trkpt lat="44.82549" lon="6.25377">
        <ele>1305.6</ele>
        <time>2024-08-13T07:13:22Z</time>
      </trkpt>
      <trkpt lat="44.82549" lon="6.25377">
        <ele>1305.4</ele>
        <time>2024-08-13T07:13:23Z</time>
      </trkpt>
      <trkpt lat="44.82551" lon="6.25374">
        <ele>1305.2</ele>
        <time>2024-08-13T07:13:24Z</time>
      </trkpt>
      <trkpt lat="44.82552" lon="6.25372">
        <ele>1305</ele>
        <time>2024-08-13T07:13:25Z</time>
      </trkpt>
      <trkpt lat="44.82554" lon="6.2537">
        <ele>1305.2</ele>
        <time>2024-08-13T07:13:26Z</time>
      </trkpt>
      <trkpt lat="44.82554" lon="6.2537">
        <ele>1305.2</ele>
        <time>2024-08-13T07:13:27Z</time>
      </trkpt>
      <trkpt lat="44.82556" lon="6.25367">
        <ele>1305.4</ele>
        <time>2024-08-13T07:13:28Z</time>
      </trkpt>
      <trkpt lat="44.82558" lon="6.25365">
        <ele>1305.4</ele>
        <time>2024-08-13T07:13:29Z</time>
      </trkpt>
      <trkpt lat="44.82558" lon="6.25365">
        <ele>1305.6</ele>
        <time>2024-08-13T07:13:30Z</time>
      </trkpt>
      <trkpt lat="44.82561" lon="6.25362">
        <ele>1305.4</ele>
        <time>2024-08-13T07:13:31Z</time>
      </trkpt>
      <trkpt lat="44.82561" lon="6.25362">
        <ele>1305.2</ele>
        <time>2024-08-13T07:13:32Z</time>
      </trkpt>
      <trkpt lat="44.82564" lon="6.2536">
        <ele>1305</ele>
        <time>2024-08-13T07:13:33Z</time>
      </trkpt>
      <trkpt lat="44.82564" lon="6.2536">
        <ele>1304.6</ele>
        <time>2024-08-13T07:13:34Z</time>
      </trkpt>
      <trkpt lat="44.82565" lon="6.25357">
        <ele>1304.6</ele>
        <time>2024-08-13T07:13:35Z</time>
      </trkpt>
      <trkpt lat="44.82565" lon="6.25357">
        <ele>1304.8</ele>
        <time>2024-08-13T07:13:36Z</time>
      </trkpt>
      <trkpt lat="44.82567" lon="6.25353">
        <ele>1304.8</ele>
        <time>2024-08-13T07:13:37Z</time>
      </trkpt>
      <trkpt lat="44.82567" lon="6.25353">
        <ele>1304.8</ele>
        <time>2024-08-13T07:13:38Z</time>
      </trkpt>
      <trkpt lat="44.82568" lon="6.2535">
        <ele>1304.8</ele>
        <time>2024-08-13T07:13:39Z</time>
      </trkpt>
      <trkpt lat="44.82568" lon="6.2535">
        <ele>1304.8</ele>
        <time>2024-08-13T07:13:40Z</time>
      </trkpt>
      <trkpt lat="44.8257" lon="6.25346">
        <ele>1304.8</ele>
        <time>2024-08-13T07:13:41Z</time>
      </trkpt>
      <trkpt lat="44.8257" lon="6.25346">
        <ele>1304.8</ele>
        <time>2024-08-13T07:13:42Z</time>
      </trkpt>
      <trkpt lat="44.82569" lon="6.25343">
        <ele>1305</ele>
        <time>2024-08-13T07:13:43Z</time>
      </trkpt>
      <trkpt lat="44.82569" lon="6.25343">
        <ele>1305</ele>
        <time>2024-08-13T07:13:44Z</time>
      </trkpt>
      <trkpt lat="44.82568" lon="6.25341">
        <ele>1305</ele>
        <time>2024-08-13T07:13:45Z</time>
      </trkpt>
      <trkpt lat="44.82568" lon="6.25341">
        <ele>1305</ele>
        <time>2024-08-13T07:13:46Z</time>
      </trkpt>
      <trkpt lat="44.82568" lon="6.25341">
        <ele>1305</ele>
        <time>2024-08-13T07:13:47Z</time>
      </trkpt>
      <trkpt lat="44.82571" lon="6.25339">
        <ele>1305</ele>
        <time>2024-08-13T07:13:48Z</time>
      </trkpt>
      <trkpt lat="44.82571" lon="6.25339">
        <ele>1305</ele>
        <time>2024-08-13T07:13:49Z</time>
      </trkpt>
      <trkpt lat="44.82571" lon="6.25339">
        <ele>1305</ele>
        <time>2024-08-13T07:13:50Z</time>
      </trkpt>
      <trkpt lat="44.82571" lon="6.25336">
        <ele>1304.6</ele>
        <time>2024-08-13T07:13:51Z</time>
      </trkpt>
      <trkpt lat="44.82571" lon="6.25336">
        <ele>1304</ele>
        <time>2024-08-13T07:13:52Z</time>
      </trkpt>
      <trkpt lat="44.82571" lon="6.25336">
        <ele>1303.8</ele>
        <time>2024-08-13T07:13:53Z</time>
      </trkpt>
      <trkpt lat="44.82572" lon="6.25332">
        <ele>1303.4</ele>
        <time>2024-08-13T07:13:54Z</time>
      </trkpt>
      <trkpt lat="44.82572" lon="6.25332">
        <ele>1303</ele>
        <time>2024-08-13T07:13:55Z</time>
      </trkpt>
      <trkpt lat="44.82572" lon="6.25329">
        <ele>1303</ele>
        <time>2024-08-13T07:13:56Z</time>
      </trkpt>
      <trkpt lat="44.82572" lon="6.25329">
        <ele>1303</ele>
        <time>2024-08-13T07:13:57Z</time>
      </trkpt>
      <trkpt lat="44.82572" lon="6.25326">
        <ele>1302.8</ele>
        <time>2024-08-13T07:13:58Z</time>
      </trkpt>
      <trkpt lat="44.82572" lon="6.25326">
        <ele>1302.4</ele>
        <time>2024-08-13T07:13:59Z</time>
      </trkpt>
      <trkpt lat="44.82572" lon="6.25326">
        <ele>1302.2</ele>
        <time>2024-08-13T07:14:00Z</time>
      </trkpt>
      <trkpt lat="44.82573" lon="6.25322">
        <ele>1301.8</ele>
        <time>2024-08-13T07:14:01Z</time>
      </trkpt>
      <trkpt lat="44.82573" lon="6.25322">
        <ele>1301.4</ele>
        <time>2024-08-13T07:14:02Z</time>
      </trkpt>
      <trkpt lat="44.82574" lon="6.25319">
        <ele>1301.4</ele>
        <time>2024-08-13T07:14:03Z</time>
      </trkpt>
      <trkpt lat="44.82574" lon="6.25319">
        <ele>1301.2</ele>
        <time>2024-08-13T07:14:04Z</time>
      </trkpt>
      <trkpt lat="44.82574" lon="6.25317">
        <ele>1300.8</ele>
        <time>2024-08-13T07:14:05Z</time>
      </trkpt>
      <trkpt lat="44.82574" lon="6.25317">
        <ele>1300.6</ele>
        <time>2024-08-13T07:14:06Z</time>
      </trkpt>
      <trkpt lat="44.82574" lon="6.25314">
        <ele>1300.4</ele>
        <time>2024-08-13T07:14:07Z</time>
      </trkpt>
      <trkpt lat="44.82574" lon="6.25314">
        <ele>1300.4</ele>
        <time>2024-08-13T07:14:08Z</time>
      </trkpt>
      <trkpt lat="44.82575" lon="6.25311">
        <ele>1300.2</ele>
        <time>2024-08-13T07:14:09Z</time>
      </trkpt>
      <trkpt lat="44.82575" lon="6.25311">
        <ele>1300</ele>
        <time>2024-08-13T07:14:10Z</time>
      </trkpt>
      <trkpt lat="44.82576" lon="6.25308">
        <ele>1299.6</ele>
        <time>2024-08-13T07:14:11Z</time>
      </trkpt>
      <trkpt lat="44.82576" lon="6.25308">
        <ele>1299.4</ele>
        <time>2024-08-13T07:14:12Z</time>
      </trkpt>
      <trkpt lat="44.82576" lon="6.25306">
        <ele>1299</ele>
        <time>2024-08-13T07:14:13Z</time>
      </trkpt>
      <trkpt lat="44.82576" lon="6.25306">
        <ele>1298.6</ele>
        <time>2024-08-13T07:14:14Z</time>
      </trkpt>
      <trkpt lat="44.82576" lon="6.25306">
        <ele>1298.4</ele>
        <time>2024-08-13T07:14:15Z</time>
      </trkpt>
      <trkpt lat="44.82577" lon="6.25302">
        <ele>1298.4</ele>
        <time>2024-08-13T07:14:16Z</time>
      </trkpt>
      <trkpt lat="44.82577" lon="6.25302">
        <ele>1298.4</ele>
        <time>2024-08-13T07:14:17Z</time>
      </trkpt>
      <trkpt lat="44.82578" lon="6.25299">
        <ele>1297.8</ele>
        <time>2024-08-13T07:14:18Z</time>
      </trkpt>
      <trkpt lat="44.82578" lon="6.25299">
        <ele>1297.6</ele>
        <time>2024-08-13T07:14:19Z</time>
      </trkpt>
      <trkpt lat="44.82578" lon="6.25299">
        <ele>1297.4</ele>
        <time>2024-08-13T07:14:20Z</time>
      </trkpt>
      <trkpt lat="44.82579" lon="6.25296">
        <ele>1297</ele>
        <time>2024-08-13T07:14:21Z</time>
      </trkpt>
      <trkpt lat="44.82579" lon="6.25296">
        <ele>1296.6</ele>
        <time>2024-08-13T07:14:22Z</time>
      </trkpt>
      <trkpt lat="44.82579" lon="6.25296">
        <ele>1296.6</ele>
        <time>2024-08-13T07:14:23Z</time>
      </trkpt>
      <trkpt lat="44.82579" lon="6.25293">
        <ele>1296.4</ele>
        <time>2024-08-13T07:14:24Z</time>
      </trkpt>
      <trkpt lat="44.82579" lon="6.25293">
        <ele>1296.2</ele>
        <time>2024-08-13T07:14:25Z</time>
      </trkpt>
      <trkpt lat="44.82579" lon="6.2529">
        <ele>1296</ele>
        <time>2024-08-13T07:14:26Z</time>
      </trkpt>
      <trkpt lat="44.82579" lon="6.2529">
        <ele>1295.8</ele>
        <time>2024-08-13T07:14:27Z</time>
      </trkpt>
      <trkpt lat="44.8258" lon="6.25287">
        <ele>1295.4</ele>
        <time>2024-08-13T07:14:28Z</time>
      </trkpt>
      <trkpt lat="44.8258" lon="6.25287">
        <ele>1295.2</ele>
        <time>2024-08-13T07:14:29Z</time>
      </trkpt>
      <trkpt lat="44.82581" lon="6.25284">
        <ele>1295</ele>
        <time>2024-08-13T07:14:30Z</time>
      </trkpt>
      <trkpt lat="44.82581" lon="6.25284">
        <ele>1294.8</ele>
        <time>2024-08-13T07:14:31Z</time>
      </trkpt>
      <trkpt lat="44.82581" lon="6.25281">
        <ele>1294.6</ele>
        <time>2024-08-13T07:14:32Z</time>
      </trkpt>
      <trkpt lat="44.82581" lon="6.25281">
        <ele>1294.2</ele>
        <time>2024-08-13T07:14:33Z</time>
      </trkpt>
      <trkpt lat="44.82582" lon="6.25278">
        <ele>1294</ele>
        <time>2024-08-13T07:14:34Z</time>
      </trkpt>
      <trkpt lat="44.82582" lon="6.25278">
        <ele>1293.6</ele>
        <time>2024-08-13T07:14:35Z</time>
      </trkpt>
      <trkpt lat="44.82583" lon="6.25275">
        <ele>1293.4</ele>
        <time>2024-08-13T07:14:36Z</time>
      </trkpt>
      <trkpt lat="44.82583" lon="6.25275">
        <ele>1293.4</ele>
        <time>2024-08-13T07:14:37Z</time>
      </trkpt>
      <trkpt lat="44.82585" lon="6.25272">
        <ele>1293.2</ele>
        <time>2024-08-13T07:14:38Z</time>
      </trkpt>
      <trkpt lat="44.82585" lon="6.25272">
        <ele>1293</ele>
        <time>2024-08-13T07:14:39Z</time>
      </trkpt>
      <trkpt lat="44.82587" lon="6.25269">
        <ele>1293</ele>
        <time>2024-08-13T07:14:40Z</time>
      </trkpt>
      <trkpt lat="44.82587" lon="6.25269">
        <ele>1292.8</ele>
        <time>2024-08-13T07:14:41Z</time>
      </trkpt>
      <trkpt lat="44.82588" lon="6.25268">
        <ele>1292.8</ele>
        <time>2024-08-13T07:14:42Z</time>
      </trkpt>
      <trkpt lat="44.82588" lon="6.25268">
        <ele>1292.6</ele>
        <time>2024-08-13T07:14:43Z</time>
      </trkpt>
      <trkpt lat="44.82588" lon="6.25268">
        <ele>1292.4</ele>
        <time>2024-08-13T07:14:44Z</time>
      </trkpt>
      <trkpt lat="44.82588" lon="6.25268">
        <ele>1292.4</ele>
        <time>2024-08-13T07:14:45Z</time>
      </trkpt>
      <trkpt lat="44.82589" lon="6.25265">
        <ele>1292.4</ele>
        <time>2024-08-13T07:14:46Z</time>
      </trkpt>
      <trkpt lat="44.82589" lon="6.25265">
        <ele>1292</ele>
        <time>2024-08-13T07:14:47Z</time>
      </trkpt>
      <trkpt lat="44.82589" lon="6.25262">
        <ele>1291.8</ele>
        <time>2024-08-13T07:14:48Z</time>
      </trkpt>
      <trkpt lat="44.82589" lon="6.25262">
        <ele>1291.8</ele>
        <time>2024-08-13T07:14:49Z</time>
      </trkpt>
      <trkpt lat="44.82589" lon="6.2526">
        <ele>1291.6</ele>
        <time>2024-08-13T07:14:50Z</time>
      </trkpt>
      <trkpt lat="44.82589" lon="6.2526">
        <ele>1291.2</ele>
        <time>2024-08-13T07:14:51Z</time>
      </trkpt>
      <trkpt lat="44.8259" lon="6.25257">
        <ele>1290.8</ele>
        <time>2024-08-13T07:14:52Z</time>
      </trkpt>
      <trkpt lat="44.8259" lon="6.25257">
        <ele>1290.8</ele>
        <time>2024-08-13T07:14:53Z</time>
      </trkpt>
      <trkpt lat="44.8259" lon="6.25254">
        <ele>1290.6</ele>
        <time>2024-08-13T07:14:54Z</time>
      </trkpt>
      <trkpt lat="44.8259" lon="6.25254">
        <ele>1290.4</ele>
        <time>2024-08-13T07:14:55Z</time>
      </trkpt>
      <trkpt lat="44.8259" lon="6.25254">
        <ele>1290.2</ele>
        <time>2024-08-13T07:14:56Z</time>
      </trkpt>
      <trkpt lat="44.82591" lon="6.25251">
        <ele>1290.2</ele>
        <time>2024-08-13T07:14:57Z</time>
      </trkpt>
      <trkpt lat="44.82591" lon="6.25251">
        <ele>1290</ele>
        <time>2024-08-13T07:14:58Z</time>
      </trkpt>
      <trkpt lat="44.82591" lon="6.25248">
        <ele>1289.6</ele>
        <time>2024-08-13T07:14:59Z</time>
      </trkpt>
      <trkpt lat="44.82591" lon="6.25248">
        <ele>1289.2</ele>
        <time>2024-08-13T07:15:00Z</time>
      </trkpt>
      <trkpt lat="44.82591" lon="6.25245">
        <ele>1288.8</ele>
        <time>2024-08-13T07:15:01Z</time>
      </trkpt>
      <trkpt lat="44.82591" lon="6.25245">
        <ele>1288</ele>
        <time>2024-08-13T07:15:02Z</time>
      </trkpt>
      <trkpt lat="44.82591" lon="6.25245">
        <ele>1288</ele>
        <time>2024-08-13T07:15:03Z</time>
      </trkpt>
      <trkpt lat="44.82591" lon="6.25242">
        <ele>1288</ele>
        <time>2024-08-13T07:15:04Z</time>
      </trkpt>
      <trkpt lat="44.82591" lon="6.25242">
        <ele>1287.8</ele>
        <time>2024-08-13T07:15:05Z</time>
      </trkpt>
      <trkpt lat="44.8259" lon="6.25238">
        <ele>1287.8</ele>
        <time>2024-08-13T07:15:06Z</time>
      </trkpt>
      <trkpt lat="44.8259" lon="6.25238">
        <ele>1287.6</ele>
        <time>2024-08-13T07:15:07Z</time>
      </trkpt>
      <trkpt lat="44.8259" lon="6.25236">
        <ele>1287</ele>
        <time>2024-08-13T07:15:08Z</time>
      </trkpt>
      <trkpt lat="44.8259" lon="6.25236">
        <ele>1286.6</ele>
        <time>2024-08-13T07:15:09Z</time>
      </trkpt>
      <trkpt lat="44.8259" lon="6.25232">
        <ele>1286.4</ele>
        <time>2024-08-13T07:15:10Z</time>
      </trkpt>
      <trkpt lat="44.8259" lon="6.25232">
        <ele>1286.2</ele>
        <time>2024-08-13T07:15:11Z</time>
      </trkpt>
      <trkpt lat="44.8259" lon="6.25229">
        <ele>1286</ele>
        <time>2024-08-13T07:15:12Z</time>
      </trkpt>
      <trkpt lat="44.8259" lon="6.25229">
        <ele>1285.6</ele>
        <time>2024-08-13T07:15:13Z</time>
      </trkpt>
      <trkpt lat="44.8259" lon="6.25225">
        <ele>1285.6</ele>
        <time>2024-08-13T07:15:14Z</time>
      </trkpt>
      <trkpt lat="44.8259" lon="6.25225">
        <ele>1285.4</ele>
        <time>2024-08-13T07:15:15Z</time>
      </trkpt>
      <trkpt lat="44.8259" lon="6.25225">
        <ele>1285.4</ele>
        <time>2024-08-13T07:15:16Z</time>
      </trkpt>
      <trkpt lat="44.8259" lon="6.25225">
        <ele>1285.4</ele>
        <time>2024-08-13T07:15:17Z</time>
      </trkpt>
      <trkpt lat="44.8259" lon="6.25225">
        <ele>1285.2</ele>
        <time>2024-08-13T07:15:18Z</time>
      </trkpt>
      <trkpt lat="44.8259" lon="6.25225">
        <ele>1285.2</ele>
        <time>2024-08-13T07:15:19Z</time>
      </trkpt>
      <trkpt lat="44.8259" lon="6.25225">
        <ele>1285.2</ele>
        <time>2024-08-13T07:15:20Z</time>
      </trkpt>
      <trkpt lat="44.8259" lon="6.25225">
        <ele>1285.2</ele>
        <time>2024-08-13T07:15:21Z</time>
      </trkpt>
      <trkpt lat="44.8259" lon="6.25225">
        <ele>1285.2</ele>
        <time>2024-08-13T07:15:22Z</time>
      </trkpt>
      <trkpt lat="44.8259" lon="6.25225">
        <ele>1285.2</ele>
        <time>2024-08-13T07:15:23Z</time>
      </trkpt>
      <trkpt lat="44.8259" lon="6.25225">
        <ele>1285.2</ele>
        <time>2024-08-13T07:15:24Z</time>
      </trkpt>
      <trkpt lat="44.8259" lon="6.25225">
        <ele>1285</ele>
        <time>2024-08-13T07:15:25Z</time>
      </trkpt>
      <trkpt lat="44.8259" lon="6.25225">
        <ele>1285</ele>
        <time>2024-08-13T07:15:26Z</time>
      </trkpt>
      <trkpt lat="44.8259" lon="6.25225">
        <ele>1285</ele>
        <time>2024-08-13T07:15:27Z</time>
      </trkpt>
      <trkpt lat="44.8259" lon="6.25225">
        <ele>1285</ele>
        <time>2024-08-13T07:15:28Z</time>
      </trkpt>
      <trkpt lat="44.8259" lon="6.25225">
        <ele>1285</ele>
        <time>2024-08-13T07:15:29Z</time>
      </trkpt>
      <trkpt lat="44.8259" lon="6.25225">
        <ele>1285</ele>
        <time>2024-08-13T07:15:30Z</time>
      </trkpt>
      <trkpt lat="44.82591" lon="6.25222">
        <ele>1285.2</ele>
        <time>2024-08-13T07:15:31Z</time>
      </trkpt>
      <trkpt lat="44.82591" lon="6.25222">
        <ele>1285.4</ele>
        <time>2024-08-13T07:15:32Z</time>
      </trkpt>
      <trkpt lat="44.8259" lon="6.25218">
        <ele>1285.4</ele>
        <time>2024-08-13T07:15:33Z</time>
      </trkpt>
      <trkpt lat="44.8259" lon="6.25218">
        <ele>1285.2</ele>
        <time>2024-08-13T07:15:34Z</time>
      </trkpt>
      <trkpt lat="44.8259" lon="6.25216">
        <ele>1285</ele>
        <time>2024-08-13T07:15:35Z</time>
      </trkpt>
      <trkpt lat="44.8259" lon="6.25216">
        <ele>1284.8</ele>
        <time>2024-08-13T07:15:36Z</time>
      </trkpt>
      <trkpt lat="44.82589" lon="6.25212">
        <ele>1284.4</ele>
        <time>2024-08-13T07:15:37Z</time>
      </trkpt>
      <trkpt lat="44.82589" lon="6.25212">
        <ele>1284.2</ele>
        <time>2024-08-13T07:15:38Z</time>
      </trkpt>
      <trkpt lat="44.82589" lon="6.25208">
        <ele>1284.2</ele>
        <time>2024-08-13T07:15:39Z</time>
      </trkpt>
      <trkpt lat="44.82589" lon="6.25208">
        <ele>1284</ele>
        <time>2024-08-13T07:15:40Z</time>
      </trkpt>
      <trkpt lat="44.82588" lon="6.25205">
        <ele>1283.6</ele>
        <time>2024-08-13T07:15:41Z</time>
      </trkpt>
      <trkpt lat="44.82588" lon="6.25205">
        <ele>1283.4</ele>
        <time>2024-08-13T07:15:42Z</time>
      </trkpt>
      <trkpt lat="44.82587" lon="6.25203">
        <ele>1283.4</ele>
        <time>2024-08-13T07:15:43Z</time>
      </trkpt>
      <trkpt lat="44.82587" lon="6.25203">
        <ele>1282.8</ele>
        <time>2024-08-13T07:15:44Z</time>
      </trkpt>
      <trkpt lat="44.82587" lon="6.25203">
        <ele>1282.6</ele>
        <time>2024-08-13T07:15:45Z</time>
      </trkpt>
      <trkpt lat="44.82586" lon="6.252">
        <ele>1282.2</ele>
        <time>2024-08-13T07:15:46Z</time>
      </trkpt>
      <trkpt lat="44.82586" lon="6.252">
        <ele>1282.2</ele>
        <time>2024-08-13T07:15:47Z</time>
      </trkpt>
      <trkpt lat="44.82586" lon="6.252">
        <ele>1282</ele>
        <time>2024-08-13T07:15:48Z</time>
      </trkpt>
      <trkpt lat="44.82586" lon="6.25197">
        <ele>1281.6</ele>
        <time>2024-08-13T07:15:49Z</time>
      </trkpt>
      <trkpt lat="44.82586" lon="6.25197">
        <ele>1281.4</ele>
        <time>2024-08-13T07:15:50Z</time>
      </trkpt>
      <trkpt lat="44.82587" lon="6.25194">
        <ele>1281.2</ele>
        <time>2024-08-13T07:15:51Z</time>
      </trkpt>
      <trkpt lat="44.82587" lon="6.25194">
        <ele>1281.2</ele>
        <time>2024-08-13T07:15:52Z</time>
      </trkpt>
      <trkpt lat="44.82587" lon="6.25194">
        <ele>1281</ele>
        <time>2024-08-13T07:15:53Z</time>
      </trkpt>
      <trkpt lat="44.82586" lon="6.2519">
        <ele>1280.8</ele>
        <time>2024-08-13T07:15:54Z</time>
      </trkpt>
      <trkpt lat="44.82586" lon="6.2519">
        <ele>1280.6</ele>
        <time>2024-08-13T07:15:55Z</time>
      </trkpt>
      <trkpt lat="44.82585" lon="6.25188">
        <ele>1280.6</ele>
        <time>2024-08-13T07:15:56Z</time>
      </trkpt>
      <trkpt lat="44.82585" lon="6.25188">
        <ele>1280.2</ele>
        <time>2024-08-13T07:15:57Z</time>
      </trkpt>
      <trkpt lat="44.82584" lon="6.25185">
        <ele>1279.8</ele>
        <time>2024-08-13T07:15:58Z</time>
      </trkpt>
      <trkpt lat="44.82584" lon="6.25185">
        <ele>1279.8</ele>
        <time>2024-08-13T07:15:59Z</time>
      </trkpt>
      <trkpt lat="44.82584" lon="6.25182">
        <ele>1279.6</ele>
        <time>2024-08-13T07:16:00Z</time>
      </trkpt>
      <trkpt lat="44.82584" lon="6.25182">
        <ele>1279.4</ele>
        <time>2024-08-13T07:16:01Z</time>
      </trkpt>
      <trkpt lat="44.82585" lon="6.25179">
        <ele>1278.8</ele>
        <time>2024-08-13T07:16:02Z</time>
      </trkpt>
      <trkpt lat="44.82585" lon="6.25179">
        <ele>1278.8</ele>
        <time>2024-08-13T07:16:03Z</time>
      </trkpt>
      <trkpt lat="44.82584" lon="6.25176">
        <ele>1278.4</ele>
        <time>2024-08-13T07:16:04Z</time>
      </trkpt>
      <trkpt lat="44.82584" lon="6.25176">
        <ele>1278.2</ele>
        <time>2024-08-13T07:16:05Z</time>
      </trkpt>
      <trkpt lat="44.82584" lon="6.25176">
        <ele>1278.2</ele>
        <time>2024-08-13T07:16:06Z</time>
      </trkpt>
      <trkpt lat="44.82584" lon="6.25172">
        <ele>1278</ele>
        <time>2024-08-13T07:16:07Z</time>
      </trkpt>
      <trkpt lat="44.82584" lon="6.25172">
        <ele>1277.6</ele>
        <time>2024-08-13T07:16:08Z</time>
      </trkpt>
      <trkpt lat="44.82584" lon="6.25169">
        <ele>1277.4</ele>
        <time>2024-08-13T07:16:09Z</time>
      </trkpt>
      <trkpt lat="44.82584" lon="6.25169">
        <ele>1277</ele>
        <time>2024-08-13T07:16:10Z</time>
      </trkpt>
      <trkpt lat="44.82584" lon="6.25166">
        <ele>1276.8</ele>
        <time>2024-08-13T07:16:11Z</time>
      </trkpt>
      <trkpt lat="44.82584" lon="6.25166">
        <ele>1276.4</ele>
        <time>2024-08-13T07:16:12Z</time>
      </trkpt>
      <trkpt lat="44.82584" lon="6.25163">
        <ele>1276.4</ele>
        <time>2024-08-13T07:16:13Z</time>
      </trkpt>
      <trkpt lat="44.82584" lon="6.25163">
        <ele>1276.2</ele>
        <time>2024-08-13T07:16:14Z</time>
      </trkpt>
      <trkpt lat="44.82583" lon="6.2516">
        <ele>1276</ele>
        <time>2024-08-13T07:16:15Z</time>
      </trkpt>
      <trkpt lat="44.82583" lon="6.2516">
        <ele>1275.6</ele>
        <time>2024-08-13T07:16:16Z</time>
      </trkpt>
      <trkpt lat="44.82583" lon="6.25157">
        <ele>1275.6</ele>
        <time>2024-08-13T07:16:17Z</time>
      </trkpt>
      <trkpt lat="44.82583" lon="6.25157">
        <ele>1275.6</ele>
        <time>2024-08-13T07:16:18Z</time>
      </trkpt>
      <trkpt lat="44.82584" lon="6.25154">
        <ele>1275.4</ele>
        <time>2024-08-13T07:16:19Z</time>
      </trkpt>
      <trkpt lat="44.82584" lon="6.25154">
        <ele>1275.2</ele>
        <time>2024-08-13T07:16:20Z</time>
      </trkpt>
      <trkpt lat="44.82584" lon="6.25151">
        <ele>1275</ele>
        <time>2024-08-13T07:16:21Z</time>
      </trkpt>
      <trkpt lat="44.82584" lon="6.25151">
        <ele>1274.8</ele>
        <time>2024-08-13T07:16:22Z</time>
      </trkpt>
      <trkpt lat="44.82584" lon="6.25148">
        <ele>1274.6</ele>
        <time>2024-08-13T07:16:23Z</time>
      </trkpt>
      <trkpt lat="44.82584" lon="6.25148">
        <ele>1274.6</ele>
        <time>2024-08-13T07:16:24Z</time>
      </trkpt>
      <trkpt lat="44.82584" lon="6.25145">
        <ele>1274.4</ele>
        <time>2024-08-13T07:16:25Z</time>
      </trkpt>
      <trkpt lat="44.82584" lon="6.25145">
        <ele>1274.2</ele>
        <time>2024-08-13T07:16:26Z</time>
      </trkpt>
      <trkpt lat="44.82584" lon="6.25142">
        <ele>1273.8</ele>
        <time>2024-08-13T07:16:27Z</time>
      </trkpt>
      <trkpt lat="44.82584" lon="6.25142">
        <ele>1273.4</ele>
        <time>2024-08-13T07:16:28Z</time>
      </trkpt>
      <trkpt lat="44.82584" lon="6.25139">
        <ele>1273.4</ele>
        <time>2024-08-13T07:16:29Z</time>
      </trkpt>
      <trkpt lat="44.82584" lon="6.25139">
        <ele>1273.2</ele>
        <time>2024-08-13T07:16:30Z</time>
      </trkpt>
      <trkpt lat="44.82584" lon="6.25136">
        <ele>1273</ele>
        <time>2024-08-13T07:16:31Z</time>
      </trkpt>
      <trkpt lat="44.82584" lon="6.25136">
        <ele>1272.6</ele>
        <time>2024-08-13T07:16:32Z</time>
      </trkpt>
      <trkpt lat="44.82584" lon="6.25133">
        <ele>1272.6</ele>
        <time>2024-08-13T07:16:33Z</time>
      </trkpt>
      <trkpt lat="44.82584" lon="6.25133">
        <ele>1272.2</ele>
        <time>2024-08-13T07:16:34Z</time>
      </trkpt>
      <trkpt lat="44.82585" lon="6.25131">
        <ele>1271.8</ele>
        <time>2024-08-13T07:16:35Z</time>
      </trkpt>
      <trkpt lat="44.82585" lon="6.25131">
        <ele>1271.8</ele>
        <time>2024-08-13T07:16:36Z</time>
      </trkpt>
      <trkpt lat="44.82586" lon="6.25128">
        <ele>1271.6</ele>
        <time>2024-08-13T07:16:37Z</time>
      </trkpt>
      <trkpt lat="44.82586" lon="6.25128">
        <ele>1271.2</ele>
        <time>2024-08-13T07:16:38Z</time>
      </trkpt>
      <trkpt lat="44.82586" lon="6.25128">
        <ele>1271</ele>
        <time>2024-08-13T07:16:39Z</time>
      </trkpt>
      <trkpt lat="44.82586" lon="6.25124">
        <ele>1271</ele>
        <time>2024-08-13T07:16:40Z</time>
      </trkpt>
      <trkpt lat="44.82586" lon="6.25124">
        <ele>1271</ele>
        <time>2024-08-13T07:16:41Z</time>
      </trkpt>
      <trkpt lat="44.82586" lon="6.25124">
        <ele>1271</ele>
        <time>2024-08-13T07:16:42Z</time>
      </trkpt>
      <trkpt lat="44.82586" lon="6.2512">
        <ele>1270.6</ele>
        <time>2024-08-13T07:16:43Z</time>
      </trkpt>
      <trkpt lat="44.82586" lon="6.2512">
        <ele>1270.4</ele>
        <time>2024-08-13T07:16:44Z</time>
      </trkpt>
      <trkpt lat="44.82586" lon="6.25117">
        <ele>1270.4</ele>
        <time>2024-08-13T07:16:45Z</time>
      </trkpt>
      <trkpt lat="44.82586" lon="6.25117">
        <ele>1270</ele>
        <time>2024-08-13T07:16:46Z</time>
      </trkpt>
      <trkpt lat="44.82587" lon="6.25114">
        <ele>1269.6</ele>
        <time>2024-08-13T07:16:47Z</time>
      </trkpt>
      <trkpt lat="44.82587" lon="6.25114">
        <ele>1269.4</ele>
        <time>2024-08-13T07:16:48Z</time>
      </trkpt>
      <trkpt lat="44.82588" lon="6.25111">
        <ele>1269.4</ele>
        <time>2024-08-13T07:16:49Z</time>
      </trkpt>
      <trkpt lat="44.82588" lon="6.25111">
        <ele>1269.4</ele>
        <time>2024-08-13T07:16:50Z</time>
      </trkpt>
      <trkpt lat="44.82588" lon="6.25108">
        <ele>1269.4</ele>
        <time>2024-08-13T07:16:51Z</time>
      </trkpt>
      <trkpt lat="44.82588" lon="6.25108">
        <ele>1269.4</ele>
        <time>2024-08-13T07:16:52Z</time>
      </trkpt>
      <trkpt lat="44.82588" lon="6.25105">
        <ele>1269</ele>
        <time>2024-08-13T07:16:53Z</time>
      </trkpt>
      <trkpt lat="44.82588" lon="6.25105">
        <ele>1268.8</ele>
        <time>2024-08-13T07:16:54Z</time>
      </trkpt>
      <trkpt lat="44.82588" lon="6.25102">
        <ele>1268.8</ele>
        <time>2024-08-13T07:16:55Z</time>
      </trkpt>
      <trkpt lat="44.82588" lon="6.25102">
        <ele>1268.8</ele>
        <time>2024-08-13T07:16:56Z</time>
      </trkpt>
      <trkpt lat="44.82586" lon="6.251">
        <ele>1268.6</ele>
        <time>2024-08-13T07:16:57Z</time>
      </trkpt>
      <trkpt lat="44.82586" lon="6.251">
        <ele>1268.2</ele>
        <time>2024-08-13T07:16:58Z</time>
      </trkpt>
      <trkpt lat="44.82585" lon="6.25097">
        <ele>1267.8</ele>
        <time>2024-08-13T07:16:59Z</time>
      </trkpt>
      <trkpt lat="44.82585" lon="6.25097">
        <ele>1267.6</ele>
        <time>2024-08-13T07:17:00Z</time>
      </trkpt>
      <trkpt lat="44.82585" lon="6.25094">
        <ele>1267.2</ele>
        <time>2024-08-13T07:17:01Z</time>
      </trkpt>
      <trkpt lat="44.82585" lon="6.25094">
        <ele>1266.8</ele>
        <time>2024-08-13T07:17:02Z</time>
      </trkpt>
      <trkpt lat="44.82584" lon="6.25091">
        <ele>1266.8</ele>
        <time>2024-08-13T07:17:03Z</time>
      </trkpt>
      <trkpt lat="44.82584" lon="6.25091">
        <ele>1266.4</ele>
        <time>2024-08-13T07:17:04Z</time>
      </trkpt>
      <trkpt lat="44.82584" lon="6.25089">
        <ele>1266</ele>
        <time>2024-08-13T07:17:05Z</time>
      </trkpt>
      <trkpt lat="44.82584" lon="6.25089">
        <ele>1266</ele>
        <time>2024-08-13T07:17:06Z</time>
      </trkpt>
      <trkpt lat="44.82584" lon="6.25085">
        <ele>1266</ele>
        <time>2024-08-13T07:17:07Z</time>
      </trkpt>
      <trkpt lat="44.82584" lon="6.25085">
        <ele>1265.6</ele>
        <time>2024-08-13T07:17:08Z</time>
      </trkpt>
      <trkpt lat="44.82584" lon="6.25082">
        <ele>1265.4</ele>
        <time>2024-08-13T07:17:09Z</time>
      </trkpt>
      <trkpt lat="44.82584" lon="6.25082">
        <ele>1265.2</ele>
        <time>2024-08-13T07:17:10Z</time>
      </trkpt>
      <trkpt lat="44.82585" lon="6.25078">
        <ele>1265</ele>
        <time>2024-08-13T07:17:11Z</time>
      </trkpt>
      <trkpt lat="44.82585" lon="6.25078">
        <ele>1264.8</ele>
        <time>2024-08-13T07:17:12Z</time>
      </trkpt>
      <trkpt lat="44.82586" lon="6.25076">
        <ele>1264.6</ele>
        <time>2024-08-13T07:17:13Z</time>
      </trkpt>
      <trkpt lat="44.82586" lon="6.25076">
        <ele>1264.4</ele>
        <time>2024-08-13T07:17:14Z</time>
      </trkpt>
      <trkpt lat="44.82585" lon="6.25073">
        <ele>1264.2</ele>
        <time>2024-08-13T07:17:15Z</time>
      </trkpt>
      <trkpt lat="44.82585" lon="6.25073">
        <ele>1264.2</ele>
        <time>2024-08-13T07:17:16Z</time>
      </trkpt>
      <trkpt lat="44.82585" lon="6.2507">
        <ele>1264.2</ele>
        <time>2024-08-13T07:17:17Z</time>
      </trkpt>
      <trkpt lat="44.82585" lon="6.2507">
        <ele>1264</ele>
        <time>2024-08-13T07:17:18Z</time>
      </trkpt>
      <trkpt lat="44.82584" lon="6.25067">
        <ele>1264</ele>
        <time>2024-08-13T07:17:19Z</time>
      </trkpt>
      <trkpt lat="44.82584" lon="6.25067">
        <ele>1263.8</ele>
        <time>2024-08-13T07:17:20Z</time>
      </trkpt>
      <trkpt lat="44.82585" lon="6.25064">
        <ele>1263.8</ele>
        <time>2024-08-13T07:17:21Z</time>
      </trkpt>
      <trkpt lat="44.82585" lon="6.25064">
        <ele>1263.8</ele>
        <time>2024-08-13T07:17:22Z</time>
      </trkpt>
      <trkpt lat="44.82585" lon="6.25061">
        <ele>1263.6</ele>
        <time>2024-08-13T07:17:23Z</time>
      </trkpt>
      <trkpt lat="44.82585" lon="6.25061">
        <ele>1263.4</ele>
        <time>2024-08-13T07:17:24Z</time>
      </trkpt>
      <trkpt lat="44.82585" lon="6.25057">
        <ele>1263.2</ele>
        <time>2024-08-13T07:17:25Z</time>
      </trkpt>
      <trkpt lat="44.82585" lon="6.25057">
        <ele>1263.2</ele>
        <time>2024-08-13T07:17:26Z</time>
      </trkpt>
      <trkpt lat="44.82585" lon="6.25057">
        <ele>1262.8</ele>
        <time>2024-08-13T07:17:27Z</time>
      </trkpt>
      <trkpt lat="44.82584" lon="6.25054">
        <ele>1262.8</ele>
        <time>2024-08-13T07:17:28Z</time>
      </trkpt>
      <trkpt lat="44.82584" lon="6.25054">
        <ele>1262.6</ele>
        <time>2024-08-13T07:17:29Z</time>
      </trkpt>
      <trkpt lat="44.82584" lon="6.25054">
        <ele>1262.4</ele>
        <time>2024-08-13T07:17:30Z</time>
      </trkpt>
      <trkpt lat="44.82584" lon="6.2505">
        <ele>1262.2</ele>
        <time>2024-08-13T07:17:31Z</time>
      </trkpt>
      <trkpt lat="44.82584" lon="6.2505">
        <ele>1262</ele>
        <time>2024-08-13T07:17:32Z</time>
      </trkpt>
      <trkpt lat="44.82584" lon="6.25046">
        <ele>1261.6</ele>
        <time>2024-08-13T07:17:33Z</time>
      </trkpt>
      <trkpt lat="44.82584" lon="6.25046">
        <ele>1261.4</ele>
        <time>2024-08-13T07:17:34Z</time>
      </trkpt>
      <trkpt lat="44.82584" lon="6.25044">
        <ele>1261.2</ele>
        <time>2024-08-13T07:17:35Z</time>
      </trkpt>
      <trkpt lat="44.82584" lon="6.25044">
        <ele>1260.8</ele>
        <time>2024-08-13T07:17:36Z</time>
      </trkpt>
      <trkpt lat="44.82584" lon="6.2504">
        <ele>1260.4</ele>
        <time>2024-08-13T07:17:37Z</time>
      </trkpt>
      <trkpt lat="44.82584" lon="6.2504">
        <ele>1260.4</ele>
        <time>2024-08-13T07:17:38Z</time>
      </trkpt>
      <trkpt lat="44.82584" lon="6.25037">
        <ele>1260.2</ele>
        <time>2024-08-13T07:17:39Z</time>
      </trkpt>
      <trkpt lat="44.82584" lon="6.25037">
        <ele>1260.2</ele>
        <time>2024-08-13T07:17:40Z</time>
      </trkpt>
      <trkpt lat="44.82584" lon="6.25033">
        <ele>1259.8</ele>
        <time>2024-08-13T07:17:41Z</time>
      </trkpt>
      <trkpt lat="44.82584" lon="6.25033">
        <ele>1259.4</ele>
        <time>2024-08-13T07:17:42Z</time>
      </trkpt>
      <trkpt lat="44.82584" lon="6.2503">
        <ele>1259.4</ele>
        <time>2024-08-13T07:17:43Z</time>
      </trkpt>
      <trkpt lat="44.82584" lon="6.2503">
        <ele>1259.4</ele>
        <time>2024-08-13T07:17:44Z</time>
      </trkpt>
      <trkpt lat="44.82585" lon="6.25026">
        <ele>1259.4</ele>
        <time>2024-08-13T07:17:45Z</time>
      </trkpt>
      <trkpt lat="44.82585" lon="6.25026">
        <ele>1259.2</ele>
        <time>2024-08-13T07:17:46Z</time>
      </trkpt>
      <trkpt lat="44.82586" lon="6.25022">
        <ele>1259.2</ele>
        <time>2024-08-13T07:17:47Z</time>
      </trkpt>
      <trkpt lat="44.82586" lon="6.25022">
        <ele>1259.2</ele>
        <time>2024-08-13T07:17:48Z</time>
      </trkpt>
      <trkpt lat="44.82586" lon="6.25019">
        <ele>1259.2</ele>
        <time>2024-08-13T07:17:49Z</time>
      </trkpt>
      <trkpt lat="44.82586" lon="6.25019">
        <ele>1259.2</ele>
        <time>2024-08-13T07:17:50Z</time>
      </trkpt>
      <trkpt lat="44.82585" lon="6.25015">
        <ele>1259.2</ele>
        <time>2024-08-13T07:17:51Z</time>
      </trkpt>
      <trkpt lat="44.82585" lon="6.25015">
        <ele>1259.2</ele>
        <time>2024-08-13T07:17:52Z</time>
      </trkpt>
      <trkpt lat="44.82584" lon="6.25011">
        <ele>1259.2</ele>
        <time>2024-08-13T07:17:53Z</time>
      </trkpt>
      <trkpt lat="44.82584" lon="6.25011">
        <ele>1259.2</ele>
        <time>2024-08-13T07:17:54Z</time>
      </trkpt>
      <trkpt lat="44.82584" lon="6.25008">
        <ele>1259.2</ele>
        <time>2024-08-13T07:17:55Z</time>
      </trkpt>
      <trkpt lat="44.82584" lon="6.25008">
        <ele>1259.4</ele>
        <time>2024-08-13T07:17:56Z</time>
      </trkpt>
      <trkpt lat="44.82584" lon="6.25004">
        <ele>1259.4</ele>
        <time>2024-08-13T07:17:57Z</time>
      </trkpt>
      <trkpt lat="44.82584" lon="6.25004">
        <ele>1259.4</ele>
        <time>2024-08-13T07:17:58Z</time>
      </trkpt>
      <trkpt lat="44.82584" lon="6.25001">
        <ele>1259.4</ele>
        <time>2024-08-13T07:17:59Z</time>
      </trkpt>
      <trkpt lat="44.82584" lon="6.25001">
        <ele>1259.4</ele>
        <time>2024-08-13T07:18:00Z</time>
      </trkpt>
      <trkpt lat="44.82584" lon="6.24997">
        <ele>1259.2</ele>
        <time>2024-08-13T07:18:01Z</time>
      </trkpt>
      <trkpt lat="44.82584" lon="6.24997">
        <ele>1259</ele>
        <time>2024-08-13T07:18:02Z</time>
      </trkpt>
      <trkpt lat="44.82584" lon="6.24994">
        <ele>1259</ele>
        <time>2024-08-13T07:18:03Z</time>
      </trkpt>
      <trkpt lat="44.82584" lon="6.24994">
        <ele>1259</ele>
        <time>2024-08-13T07:18:04Z</time>
      </trkpt>
      <trkpt lat="44.82583" lon="6.24992">
        <ele>1259.2</ele>
        <time>2024-08-13T07:18:05Z</time>
      </trkpt>
      <trkpt lat="44.82583" lon="6.24992">
        <ele>1259</ele>
        <time>2024-08-13T07:18:06Z</time>
      </trkpt>
      <trkpt lat="44.82582" lon="6.24988">
        <ele>1258.8</ele>
        <time>2024-08-13T07:18:07Z</time>
      </trkpt>
      <trkpt lat="44.82582" lon="6.24988">
        <ele>1258.6</ele>
        <time>2024-08-13T07:18:08Z</time>
      </trkpt>
      <trkpt lat="44.82582" lon="6.24985">
        <ele>1258.4</ele>
        <time>2024-08-13T07:18:09Z</time>
      </trkpt>
      <trkpt lat="44.82582" lon="6.24985">
        <ele>1258</ele>
        <time>2024-08-13T07:18:10Z</time>
      </trkpt>
      <trkpt lat="44.82582" lon="6.24982">
        <ele>1258</ele>
        <time>2024-08-13T07:18:11Z</time>
      </trkpt>
      <trkpt lat="44.82582" lon="6.24982">
        <ele>1257.8</ele>
        <time>2024-08-13T07:18:12Z</time>
      </trkpt>
      <trkpt lat="44.82582" lon="6.24979">
        <ele>1257.8</ele>
        <time>2024-08-13T07:18:13Z</time>
      </trkpt>
      <trkpt lat="44.82582" lon="6.24979">
        <ele>1257.6</ele>
        <time>2024-08-13T07:18:14Z</time>
      </trkpt>
      <trkpt lat="44.82582" lon="6.24976">
        <ele>1258</ele>
        <time>2024-08-13T07:18:15Z</time>
      </trkpt>
      <trkpt lat="44.82582" lon="6.24976">
        <ele>1258</ele>
        <time>2024-08-13T07:18:16Z</time>
      </trkpt>
      <trkpt lat="44.82581" lon="6.24973">
        <ele>1257.8</ele>
        <time>2024-08-13T07:18:17Z</time>
      </trkpt>
      <trkpt lat="44.82581" lon="6.24973">
        <ele>1257.4</ele>
        <time>2024-08-13T07:18:18Z</time>
      </trkpt>
      <trkpt lat="44.8258" lon="6.24969">
        <ele>1257.2</ele>
        <time>2024-08-13T07:18:19Z</time>
      </trkpt>
      <trkpt lat="44.8258" lon="6.24969">
        <ele>1257</ele>
        <time>2024-08-13T07:18:20Z</time>
      </trkpt>
      <trkpt lat="44.8258" lon="6.24966">
        <ele>1256.8</ele>
        <time>2024-08-13T07:18:21Z</time>
      </trkpt>
      <trkpt lat="44.8258" lon="6.24966">
        <ele>1256.8</ele>
        <time>2024-08-13T07:18:22Z</time>
      </trkpt>
      <trkpt lat="44.82579" lon="6.24963">
        <ele>1256.2</ele>
        <time>2024-08-13T07:18:23Z</time>
      </trkpt>
      <trkpt lat="44.82579" lon="6.24963">
        <ele>1255.8</ele>
        <time>2024-08-13T07:18:24Z</time>
      </trkpt>
      <trkpt lat="44.82578" lon="6.24961">
        <ele>1255.8</ele>
        <time>2024-08-13T07:18:25Z</time>
      </trkpt>
      <trkpt lat="44.82578" lon="6.24961">
        <ele>1255.6</ele>
        <time>2024-08-13T07:18:26Z</time>
      </trkpt>
      <trkpt lat="44.82578" lon="6.24961">
        <ele>1255.4</ele>
        <time>2024-08-13T07:18:27Z</time>
      </trkpt>
      <trkpt lat="44.82578" lon="6.24961">
        <ele>1255.4</ele>
        <time>2024-08-13T07:18:28Z</time>
      </trkpt>
      <trkpt lat="44.82578" lon="6.24958">
        <ele>1255.2</ele>
        <time>2024-08-13T07:18:29Z</time>
      </trkpt>
      <trkpt lat="44.82578" lon="6.24958">
        <ele>1255</ele>
        <time>2024-08-13T07:18:30Z</time>
      </trkpt>
      <trkpt lat="44.82578" lon="6.24958">
        <ele>1254.6</ele>
        <time>2024-08-13T07:18:31Z</time>
      </trkpt>
      <trkpt lat="44.82578" lon="6.24958">
        <ele>1254.4</ele>
        <time>2024-08-13T07:18:32Z</time>
      </trkpt>
      <trkpt lat="44.82578" lon="6.24958">
        <ele>1254.4</ele>
        <time>2024-08-13T07:18:33Z</time>
      </trkpt>
      <trkpt lat="44.82578" lon="6.24953">
        <ele>1254.4</ele>
        <time>2024-08-13T07:18:34Z</time>
      </trkpt>
      <trkpt lat="44.82578" lon="6.24953">
        <ele>1254.4</ele>
        <time>2024-08-13T07:18:35Z</time>
      </trkpt>
      <trkpt lat="44.82578" lon="6.24951">
        <ele>1254.2</ele>
        <time>2024-08-13T07:18:36Z</time>
      </trkpt>
      <trkpt lat="44.82578" lon="6.24951">
        <ele>1253.8</ele>
        <time>2024-08-13T07:18:37Z</time>
      </trkpt>
      <trkpt lat="44.82577" lon="6.24947">
        <ele>1253.4</ele>
        <time>2024-08-13T07:18:38Z</time>
      </trkpt>
      <trkpt lat="44.82577" lon="6.24947">
        <ele>1253.2</ele>
        <time>2024-08-13T07:18:39Z</time>
      </trkpt>
      <trkpt lat="44.82577" lon="6.24944">
        <ele>1252.8</ele>
        <time>2024-08-13T07:18:40Z</time>
      </trkpt>
      <trkpt lat="44.82577" lon="6.24944">
        <ele>1252.4</ele>
        <time>2024-08-13T07:18:41Z</time>
      </trkpt>
      <trkpt lat="44.82577" lon="6.24941">
        <ele>1252.4</ele>
        <time>2024-08-13T07:18:42Z</time>
      </trkpt>
      <trkpt lat="44.82577" lon="6.24941">
        <ele>1252.4</ele>
        <time>2024-08-13T07:18:43Z</time>
      </trkpt>
      <trkpt lat="44.82576" lon="6.24937">
        <ele>1252.4</ele>
        <time>2024-08-13T07:18:44Z</time>
      </trkpt>
      <trkpt lat="44.82576" lon="6.24937">
        <ele>1252.4</ele>
        <time>2024-08-13T07:18:45Z</time>
      </trkpt>
      <trkpt lat="44.82576" lon="6.24933">
        <ele>1252</ele>
        <time>2024-08-13T07:18:46Z</time>
      </trkpt>
      <trkpt lat="44.82576" lon="6.24933">
        <ele>1252</ele>
        <time>2024-08-13T07:18:47Z</time>
      </trkpt>
      <trkpt lat="44.82577" lon="6.24929">
        <ele>1251.8</ele>
        <time>2024-08-13T07:18:48Z</time>
      </trkpt>
      <trkpt lat="44.82577" lon="6.24929">
        <ele>1251.6</ele>
        <time>2024-08-13T07:18:49Z</time>
      </trkpt>
      <trkpt lat="44.82576" lon="6.24927">
        <ele>1251.2</ele>
        <time>2024-08-13T07:18:50Z</time>
      </trkpt>
      <trkpt lat="44.82576" lon="6.24927">
        <ele>1251</ele>
        <time>2024-08-13T07:18:51Z</time>
      </trkpt>
      <trkpt lat="44.82576" lon="6.24927">
        <ele>1250.8</ele>
        <time>2024-08-13T07:18:52Z</time>
      </trkpt>
      <trkpt lat="44.82575" lon="6.24924">
        <ele>1250.8</ele>
        <time>2024-08-13T07:18:53Z</time>
      </trkpt>
      <trkpt lat="44.82575" lon="6.24924">
        <ele>1250.6</ele>
        <time>2024-08-13T07:18:54Z</time>
      </trkpt>
      <trkpt lat="44.82574" lon="6.24922">
        <ele>1250.6</ele>
        <time>2024-08-13T07:18:55Z</time>
      </trkpt>
      <trkpt lat="44.82574" lon="6.24922">
        <ele>1250.4</ele>
        <time>2024-08-13T07:18:56Z</time>
      </trkpt>
      <trkpt lat="44.82574" lon="6.24922">
        <ele>1250</ele>
        <time>2024-08-13T07:18:57Z</time>
      </trkpt>
      <trkpt lat="44.82573" lon="6.24919">
        <ele>1250</ele>
        <time>2024-08-13T07:18:58Z</time>
      </trkpt>
      <trkpt lat="44.82573" lon="6.24919">
        <ele>1249.8</ele>
        <time>2024-08-13T07:18:59Z</time>
      </trkpt>
      <trkpt lat="44.82572" lon="6.24917">
        <ele>1249.6</ele>
        <time>2024-08-13T07:19:00Z</time>
      </trkpt>
      <trkpt lat="44.82571" lon="6.24915">
        <ele>1249.4</ele>
        <time>2024-08-13T07:19:01Z</time>
      </trkpt>
      <trkpt lat="44.82571" lon="6.24913">
        <ele>1249.2</ele>
        <time>2024-08-13T07:19:02Z</time>
      </trkpt>
      <trkpt lat="44.8257" lon="6.24909">
        <ele>1249.2</ele>
        <time>2024-08-13T07:19:03Z</time>
      </trkpt>
      <trkpt lat="44.8257" lon="6.24906">
        <ele>1249.2</ele>
        <time>2024-08-13T07:19:04Z</time>
      </trkpt>
      <trkpt lat="44.8257" lon="6.24906">
        <ele>1249.2</ele>
        <time>2024-08-13T07:19:05Z</time>
      </trkpt>
      <trkpt lat="44.82569" lon="6.24903">
        <ele>1249</ele>
        <time>2024-08-13T07:19:06Z</time>
      </trkpt>
      <trkpt lat="44.82569" lon="6.24903">
        <ele>1249.2</ele>
        <time>2024-08-13T07:19:07Z</time>
      </trkpt>
      <trkpt lat="44.82569" lon="6.24903">
        <ele>1249.2</ele>
        <time>2024-08-13T07:19:08Z</time>
      </trkpt>
      <trkpt lat="44.82568" lon="6.249">
        <ele>1249.4</ele>
        <time>2024-08-13T07:19:09Z</time>
      </trkpt>
      <trkpt lat="44.82568" lon="6.249">
        <ele>1249.4</ele>
        <time>2024-08-13T07:19:10Z</time>
      </trkpt>
      <trkpt lat="44.82567" lon="6.24897">
        <ele>1249.4</ele>
        <time>2024-08-13T07:19:11Z</time>
      </trkpt>
      <trkpt lat="44.82567" lon="6.24897">
        <ele>1249.4</ele>
        <time>2024-08-13T07:19:12Z</time>
      </trkpt>
      <trkpt lat="44.82566" lon="6.24893">
        <ele>1249.4</ele>
        <time>2024-08-13T07:19:13Z</time>
      </trkpt>
      <trkpt lat="44.82566" lon="6.24893">
        <ele>1249.2</ele>
        <time>2024-08-13T07:19:14Z</time>
      </trkpt>
      <trkpt lat="44.82565" lon="6.2489">
        <ele>1249.2</ele>
        <time>2024-08-13T07:19:15Z</time>
      </trkpt>
      <trkpt lat="44.82565" lon="6.2489">
        <ele>1249.4</ele>
        <time>2024-08-13T07:19:16Z</time>
      </trkpt>
      <trkpt lat="44.82565" lon="6.24886">
        <ele>1249.4</ele>
        <time>2024-08-13T07:19:17Z</time>
      </trkpt>
      <trkpt lat="44.82565" lon="6.24886">
        <ele>1249.6</ele>
        <time>2024-08-13T07:19:18Z</time>
      </trkpt>
      <trkpt lat="44.82564" lon="6.24882">
        <ele>1249.8</ele>
        <time>2024-08-13T07:19:19Z</time>
      </trkpt>
      <trkpt lat="44.82564" lon="6.24882">
        <ele>1249.8</ele>
        <time>2024-08-13T07:19:20Z</time>
      </trkpt>
      <trkpt lat="44.82564" lon="6.24878">
        <ele>1249.6</ele>
        <time>2024-08-13T07:19:21Z</time>
      </trkpt>
      <trkpt lat="44.82564" lon="6.24878">
        <ele>1249.2</ele>
        <time>2024-08-13T07:19:22Z</time>
      </trkpt>
      <trkpt lat="44.82563" lon="6.24875">
        <ele>1249.2</ele>
        <time>2024-08-13T07:19:23Z</time>
      </trkpt>
      <trkpt lat="44.82563" lon="6.24875">
        <ele>1249.6</ele>
        <time>2024-08-13T07:19:24Z</time>
      </trkpt>
      <trkpt lat="44.82562" lon="6.24873">
        <ele>1249.8</ele>
        <time>2024-08-13T07:19:25Z</time>
      </trkpt>
      <trkpt lat="44.82561" lon="6.24871">
        <ele>1249.8</ele>
        <time>2024-08-13T07:19:26Z</time>
      </trkpt>
      <trkpt lat="44.82561" lon="6.24871">
        <ele>1249.8</ele>
        <time>2024-08-13T07:19:27Z</time>
      </trkpt>
      <trkpt lat="44.8256" lon="6.24867">
        <ele>1249.8</ele>
        <time>2024-08-13T07:19:28Z</time>
      </trkpt>
      <trkpt lat="44.8256" lon="6.24867">
        <ele>1249.8</ele>
        <time>2024-08-13T07:19:29Z</time>
      </trkpt>
      <trkpt lat="44.82559" lon="6.24864">
        <ele>1249.8</ele>
        <time>2024-08-13T07:19:30Z</time>
      </trkpt>
      <trkpt lat="44.82559" lon="6.24864">
        <ele>1249.8</ele>
        <time>2024-08-13T07:19:31Z</time>
      </trkpt>
      <trkpt lat="44.82557" lon="6.24862">
        <ele>1249.4</ele>
        <time>2024-08-13T07:19:32Z</time>
      </trkpt>
      <trkpt lat="44.82557" lon="6.24862">
        <ele>1249.4</ele>
        <time>2024-08-13T07:19:33Z</time>
      </trkpt>
      <trkpt lat="44.82557" lon="6.2486">
        <ele>1249.4</ele>
        <time>2024-08-13T07:19:34Z</time>
      </trkpt>
      <trkpt lat="44.82557" lon="6.2486">
        <ele>1249.2</ele>
        <time>2024-08-13T07:19:35Z</time>
      </trkpt>
      <trkpt lat="44.82556" lon="6.24857">
        <ele>1249.2</ele>
        <time>2024-08-13T07:19:36Z</time>
      </trkpt>
      <trkpt lat="44.82556" lon="6.24857">
        <ele>1249</ele>
        <time>2024-08-13T07:19:37Z</time>
      </trkpt>
      <trkpt lat="44.82556" lon="6.24854">
        <ele>1248.8</ele>
        <time>2024-08-13T07:19:38Z</time>
      </trkpt>
      <trkpt lat="44.82556" lon="6.24854">
        <ele>1248.6</ele>
        <time>2024-08-13T07:19:39Z</time>
      </trkpt>
      <trkpt lat="44.82557" lon="6.24849">
        <ele>1248.6</ele>
        <time>2024-08-13T07:19:40Z</time>
      </trkpt>
      <trkpt lat="44.82557" lon="6.24849">
        <ele>1248.6</ele>
        <time>2024-08-13T07:19:41Z</time>
      </trkpt>
      <trkpt lat="44.82557" lon="6.24846">
        <ele>1248.4</ele>
        <time>2024-08-13T07:19:42Z</time>
      </trkpt>
      <trkpt lat="44.82557" lon="6.24846">
        <ele>1248.4</ele>
        <time>2024-08-13T07:19:43Z</time>
      </trkpt>
      <trkpt lat="44.82556" lon="6.24842">
        <ele>1248.4</ele>
        <time>2024-08-13T07:19:44Z</time>
      </trkpt>
      <trkpt lat="44.82556" lon="6.24842">
        <ele>1248.2</ele>
        <time>2024-08-13T07:19:45Z</time>
      </trkpt>
      <trkpt lat="44.82555" lon="6.2484">
        <ele>1248</ele>
        <time>2024-08-13T07:19:46Z</time>
      </trkpt>
      <trkpt lat="44.82555" lon="6.2484">
        <ele>1247.8</ele>
        <time>2024-08-13T07:19:47Z</time>
      </trkpt>
      <trkpt lat="44.82555" lon="6.2484">
        <ele>1247.6</ele>
        <time>2024-08-13T07:19:48Z</time>
      </trkpt>
      <trkpt lat="44.82554" lon="6.24836">
        <ele>1247.6</ele>
        <time>2024-08-13T07:19:49Z</time>
      </trkpt>
      <trkpt lat="44.82554" lon="6.24836">
        <ele>1247.4</ele>
        <time>2024-08-13T07:19:50Z</time>
      </trkpt>
      <trkpt lat="44.82552" lon="6.24833">
        <ele>1247.2</ele>
        <time>2024-08-13T07:19:51Z</time>
      </trkpt>
      <trkpt lat="44.82552" lon="6.24833">
        <ele>1247</ele>
        <time>2024-08-13T07:19:52Z</time>
      </trkpt>
      <trkpt lat="44.82552" lon="6.24829">
        <ele>1246.8</ele>
        <time>2024-08-13T07:19:53Z</time>
      </trkpt>
      <trkpt lat="44.82552" lon="6.24829">
        <ele>1246.6</ele>
        <time>2024-08-13T07:19:54Z</time>
      </trkpt>
      <trkpt lat="44.82551" lon="6.24826">
        <ele>1246.4</ele>
        <time>2024-08-13T07:19:55Z</time>
      </trkpt>
      <trkpt lat="44.82551" lon="6.24826">
        <ele>1245.8</ele>
        <time>2024-08-13T07:19:56Z</time>
      </trkpt>
      <trkpt lat="44.82551" lon="6.24822">
        <ele>1245.8</ele>
        <time>2024-08-13T07:19:57Z</time>
      </trkpt>
      <trkpt lat="44.82552" lon="6.2482">
        <ele>1245.6</ele>
        <time>2024-08-13T07:19:58Z</time>
      </trkpt>
      <trkpt lat="44.82552" lon="6.2482">
        <ele>1245.4</ele>
        <time>2024-08-13T07:19:59Z</time>
      </trkpt>
      <trkpt lat="44.82552" lon="6.24815">
        <ele>1245.4</ele>
        <time>2024-08-13T07:20:00Z</time>
      </trkpt>
      <trkpt lat="44.82552" lon="6.24815">
        <ele>1245</ele>
        <time>2024-08-13T07:20:01Z</time>
      </trkpt>
      <trkpt lat="44.82552" lon="6.24811">
        <ele>1244.4</ele>
        <time>2024-08-13T07:20:02Z</time>
      </trkpt>
      <trkpt lat="44.82552" lon="6.24811">
        <ele>1244.4</ele>
        <time>2024-08-13T07:20:03Z</time>
      </trkpt>
      <trkpt lat="44.82552" lon="6.24808">
        <ele>1244.4</ele>
        <time>2024-08-13T07:20:04Z</time>
      </trkpt>
      <trkpt lat="44.82552" lon="6.24808">
        <ele>1244.4</ele>
        <time>2024-08-13T07:20:05Z</time>
      </trkpt>
      <trkpt lat="44.82552" lon="6.24805">
        <ele>1244</ele>
        <time>2024-08-13T07:20:06Z</time>
      </trkpt>
      <trkpt lat="44.82552" lon="6.24805">
        <ele>1244</ele>
        <time>2024-08-13T07:20:07Z</time>
      </trkpt>
      <trkpt lat="44.82551" lon="6.24802">
        <ele>1243.8</ele>
        <time>2024-08-13T07:20:08Z</time>
      </trkpt>
      <trkpt lat="44.82551" lon="6.24802">
        <ele>1243.8</ele>
        <time>2024-08-13T07:20:09Z</time>
      </trkpt>
      <trkpt lat="44.8255" lon="6.24799">
        <ele>1243.4</ele>
        <time>2024-08-13T07:20:10Z</time>
      </trkpt>
      <trkpt lat="44.8255" lon="6.24799">
        <ele>1243.2</ele>
        <time>2024-08-13T07:20:11Z</time>
      </trkpt>
      <trkpt lat="44.8255" lon="6.24796">
        <ele>1243.2</ele>
        <time>2024-08-13T07:20:12Z</time>
      </trkpt>
      <trkpt lat="44.8255" lon="6.24796">
        <ele>1243.2</ele>
        <time>2024-08-13T07:20:13Z</time>
      </trkpt>
      <trkpt lat="44.82549" lon="6.24793">
        <ele>1242.8</ele>
        <time>2024-08-13T07:20:14Z</time>
      </trkpt>
      <trkpt lat="44.82549" lon="6.24793">
        <ele>1242.6</ele>
        <time>2024-08-13T07:20:15Z</time>
      </trkpt>
      <trkpt lat="44.82549" lon="6.2479">
        <ele>1242.4</ele>
        <time>2024-08-13T07:20:16Z</time>
      </trkpt>
      <trkpt lat="44.82549" lon="6.2479">
        <ele>1242.2</ele>
        <time>2024-08-13T07:20:17Z</time>
      </trkpt>
      <trkpt lat="44.82549" lon="6.24786">
        <ele>1242</ele>
        <time>2024-08-13T07:20:18Z</time>
      </trkpt>
      <trkpt lat="44.82549" lon="6.24786">
        <ele>1241.8</ele>
        <time>2024-08-13T07:20:19Z</time>
      </trkpt>
      <trkpt lat="44.8255" lon="6.24782">
        <ele>1241.8</ele>
        <time>2024-08-13T07:20:20Z</time>
      </trkpt>
      <trkpt lat="44.8255" lon="6.24782">
        <ele>1241.6</ele>
        <time>2024-08-13T07:20:21Z</time>
      </trkpt>
      <trkpt lat="44.8255" lon="6.24778">
        <ele>1241.6</ele>
        <time>2024-08-13T07:20:22Z</time>
      </trkpt>
      <trkpt lat="44.8255" lon="6.24778">
        <ele>1241.4</ele>
        <time>2024-08-13T07:20:23Z</time>
      </trkpt>
      <trkpt lat="44.82551" lon="6.24774">
        <ele>1241</ele>
        <time>2024-08-13T07:20:24Z</time>
      </trkpt>
      <trkpt lat="44.82551" lon="6.24774">
        <ele>1241</ele>
        <time>2024-08-13T07:20:25Z</time>
      </trkpt>
      <trkpt lat="44.82552" lon="6.24771">
        <ele>1240.6</ele>
        <time>2024-08-13T07:20:26Z</time>
      </trkpt>
      <trkpt lat="44.82552" lon="6.24771">
        <ele>1240.4</ele>
        <time>2024-08-13T07:20:27Z</time>
      </trkpt>
      <trkpt lat="44.82552" lon="6.24767">
        <ele>1240.2</ele>
        <time>2024-08-13T07:20:28Z</time>
      </trkpt>
      <trkpt lat="44.82552" lon="6.24767">
        <ele>1240.2</ele>
        <time>2024-08-13T07:20:29Z</time>
      </trkpt>
      <trkpt lat="44.82553" lon="6.24764">
        <ele>1239.8</ele>
        <time>2024-08-13T07:20:30Z</time>
      </trkpt>
      <trkpt lat="44.82553" lon="6.24764">
        <ele>1239.8</ele>
        <time>2024-08-13T07:20:31Z</time>
      </trkpt>
      <trkpt lat="44.82553" lon="6.2476">
        <ele>1239.6</ele>
        <time>2024-08-13T07:20:32Z</time>
      </trkpt>
      <trkpt lat="44.82553" lon="6.2476">
        <ele>1239.4</ele>
        <time>2024-08-13T07:20:33Z</time>
      </trkpt>
      <trkpt lat="44.82554" lon="6.24756">
        <ele>1239.4</ele>
        <time>2024-08-13T07:20:34Z</time>
      </trkpt>
      <trkpt lat="44.82554" lon="6.24756">
        <ele>1239.4</ele>
        <time>2024-08-13T07:20:35Z</time>
      </trkpt>
      <trkpt lat="44.82554" lon="6.24753">
        <ele>1239.2</ele>
        <time>2024-08-13T07:20:36Z</time>
      </trkpt>
      <trkpt lat="44.82554" lon="6.24753">
        <ele>1239.2</ele>
        <time>2024-08-13T07:20:37Z</time>
      </trkpt>
      <trkpt lat="44.82554" lon="6.24751">
        <ele>1239</ele>
        <time>2024-08-13T07:20:38Z</time>
      </trkpt>
      <trkpt lat="44.82554" lon="6.24751">
        <ele>1239</ele>
        <time>2024-08-13T07:20:39Z</time>
      </trkpt>
      <trkpt lat="44.82553" lon="6.24748">
        <ele>1238.8</ele>
        <time>2024-08-13T07:20:40Z</time>
      </trkpt>
      <trkpt lat="44.82553" lon="6.24748">
        <ele>1238.4</ele>
        <time>2024-08-13T07:20:41Z</time>
      </trkpt>
      <trkpt lat="44.82552" lon="6.24745">
        <ele>1238.2</ele>
        <time>2024-08-13T07:20:42Z</time>
      </trkpt>
      <trkpt lat="44.82552" lon="6.24745">
        <ele>1238</ele>
        <time>2024-08-13T07:20:43Z</time>
      </trkpt>
      <trkpt lat="44.82551" lon="6.24741">
        <ele>1237.6</ele>
        <time>2024-08-13T07:20:44Z</time>
      </trkpt>
      <trkpt lat="44.82551" lon="6.24741">
        <ele>1237.4</ele>
        <time>2024-08-13T07:20:45Z</time>
      </trkpt>
      <trkpt lat="44.82551" lon="6.24737">
        <ele>1237.2</ele>
        <time>2024-08-13T07:20:46Z</time>
      </trkpt>
      <trkpt lat="44.82551" lon="6.24737">
        <ele>1237.2</ele>
        <time>2024-08-13T07:20:47Z</time>
      </trkpt>
      <trkpt lat="44.82551" lon="6.24733">
        <ele>1237.2</ele>
        <time>2024-08-13T07:20:48Z</time>
      </trkpt>
      <trkpt lat="44.82551" lon="6.24733">
        <ele>1236.6</ele>
        <time>2024-08-13T07:20:49Z</time>
      </trkpt>
      <trkpt lat="44.82551" lon="6.2473">
        <ele>1236.2</ele>
        <time>2024-08-13T07:20:50Z</time>
      </trkpt>
      <trkpt lat="44.82551" lon="6.2473">
        <ele>1235.8</ele>
        <time>2024-08-13T07:20:51Z</time>
      </trkpt>
      <trkpt lat="44.82551" lon="6.24727">
        <ele>1235.6</ele>
        <time>2024-08-13T07:20:52Z</time>
      </trkpt>
      <trkpt lat="44.82551" lon="6.24727">
        <ele>1235.4</ele>
        <time>2024-08-13T07:20:53Z</time>
      </trkpt>
      <trkpt lat="44.82552" lon="6.24724">
        <ele>1235.4</ele>
        <time>2024-08-13T07:20:54Z</time>
      </trkpt>
      <trkpt lat="44.82552" lon="6.24724">
        <ele>1234.8</ele>
        <time>2024-08-13T07:20:55Z</time>
      </trkpt>
      <trkpt lat="44.82552" lon="6.2472">
        <ele>1234.6</ele>
        <time>2024-08-13T07:20:56Z</time>
      </trkpt>
      <trkpt lat="44.82552" lon="6.2472">
        <ele>1234.2</ele>
        <time>2024-08-13T07:20:57Z</time>
      </trkpt>
      <trkpt lat="44.82552" lon="6.24717">
        <ele>1234.2</ele>
        <time>2024-08-13T07:20:58Z</time>
      </trkpt>
      <trkpt lat="44.82552" lon="6.24717">
        <ele>1234</ele>
        <time>2024-08-13T07:20:59Z</time>
      </trkpt>
      <trkpt lat="44.82552" lon="6.24717">
        <ele>1233.8</ele>
        <time>2024-08-13T07:21:00Z</time>
      </trkpt>
      <trkpt lat="44.82552" lon="6.24713">
        <ele>1233.4</ele>
        <time>2024-08-13T07:21:01Z</time>
      </trkpt>
      <trkpt lat="44.82552" lon="6.24713">
        <ele>1233</ele>
        <time>2024-08-13T07:21:02Z</time>
      </trkpt>
      <trkpt lat="44.82551" lon="6.24711">
        <ele>1233</ele>
        <time>2024-08-13T07:21:03Z</time>
      </trkpt>
      <trkpt lat="44.82551" lon="6.24711">
        <ele>1232.8</ele>
        <time>2024-08-13T07:21:04Z</time>
      </trkpt>
      <trkpt lat="44.82551" lon="6.24708">
        <ele>1232.8</ele>
        <time>2024-08-13T07:21:05Z</time>
      </trkpt>
      <trkpt lat="44.82551" lon="6.24708">
        <ele>1232.4</ele>
        <time>2024-08-13T07:21:06Z</time>
      </trkpt>
      <trkpt lat="44.8255" lon="6.24705">
        <ele>1232</ele>
        <time>2024-08-13T07:21:07Z</time>
      </trkpt>
      <trkpt lat="44.8255" lon="6.24705">
        <ele>1231.8</ele>
        <time>2024-08-13T07:21:08Z</time>
      </trkpt>
      <trkpt lat="44.82551" lon="6.24702">
        <ele>1231.6</ele>
        <time>2024-08-13T07:21:09Z</time>
      </trkpt>
      <trkpt lat="44.82551" lon="6.24702">
        <ele>1231.2</ele>
        <time>2024-08-13T07:21:10Z</time>
      </trkpt>
      <trkpt lat="44.82551" lon="6.24702">
        <ele>1231.2</ele>
        <time>2024-08-13T07:21:11Z</time>
      </trkpt>
      <trkpt lat="44.8255" lon="6.24698">
        <ele>1230.8</ele>
        <time>2024-08-13T07:21:12Z</time>
      </trkpt>
      <trkpt lat="44.8255" lon="6.24698">
        <ele>1230.8</ele>
        <time>2024-08-13T07:21:13Z</time>
      </trkpt>
      <trkpt lat="44.82549" lon="6.24695">
        <ele>1230.6</ele>
        <time>2024-08-13T07:21:14Z</time>
      </trkpt>
      <trkpt lat="44.82549" lon="6.24695">
        <ele>1230.2</ele>
        <time>2024-08-13T07:21:15Z</time>
      </trkpt>
      <trkpt lat="44.82549" lon="6.24695">
        <ele>1229.8</ele>
        <time>2024-08-13T07:21:16Z</time>
      </trkpt>
      <trkpt lat="44.82549" lon="6.2469">
        <ele>1229.8</ele>
        <time>2024-08-13T07:21:17Z</time>
      </trkpt>
      <trkpt lat="44.82549" lon="6.2469">
        <ele>1229.6</ele>
        <time>2024-08-13T07:21:18Z</time>
      </trkpt>
      <trkpt lat="44.82549" lon="6.24687">
        <ele>1229.4</ele>
        <time>2024-08-13T07:21:19Z</time>
      </trkpt>
      <trkpt lat="44.82549" lon="6.24687">
        <ele>1229.2</ele>
        <time>2024-08-13T07:21:20Z</time>
      </trkpt>
      <trkpt lat="44.82548" lon="6.24683">
        <ele>1228.8</ele>
        <time>2024-08-13T07:21:21Z</time>
      </trkpt>
      <trkpt lat="44.82548" lon="6.24683">
        <ele>1228.8</ele>
        <time>2024-08-13T07:21:22Z</time>
      </trkpt>
      <trkpt lat="44.82548" lon="6.24679">
        <ele>1228.6</ele>
        <time>2024-08-13T07:21:23Z</time>
      </trkpt>
      <trkpt lat="44.82548" lon="6.24679">
        <ele>1228.4</ele>
        <time>2024-08-13T07:21:24Z</time>
      </trkpt>
      <trkpt lat="44.82548" lon="6.24676">
        <ele>1228.2</ele>
        <time>2024-08-13T07:21:25Z</time>
      </trkpt>
      <trkpt lat="44.82548" lon="6.24676">
        <ele>1228</ele>
        <time>2024-08-13T07:21:26Z</time>
      </trkpt>
      <trkpt lat="44.82547" lon="6.24671">
        <ele>1227.8</ele>
        <time>2024-08-13T07:21:27Z</time>
      </trkpt>
      <trkpt lat="44.82547" lon="6.24671">
        <ele>1227.6</ele>
        <time>2024-08-13T07:21:28Z</time>
      </trkpt>
      <trkpt lat="44.82547" lon="6.24667">
        <ele>1227.6</ele>
        <time>2024-08-13T07:21:29Z</time>
      </trkpt>
      <trkpt lat="44.82547" lon="6.24667">
        <ele>1227.6</ele>
        <time>2024-08-13T07:21:30Z</time>
      </trkpt>
      <trkpt lat="44.82547" lon="6.24663">
        <ele>1227.6</ele>
        <time>2024-08-13T07:21:31Z</time>
      </trkpt>
      <trkpt lat="44.82547" lon="6.24663">
        <ele>1227.4</ele>
        <time>2024-08-13T07:21:32Z</time>
      </trkpt>
      <trkpt lat="44.82548" lon="6.24659">
        <ele>1227.4</ele>
        <time>2024-08-13T07:21:33Z</time>
      </trkpt>
      <trkpt lat="44.82548" lon="6.24659">
        <ele>1227.2</ele>
        <time>2024-08-13T07:21:34Z</time>
      </trkpt>
      <trkpt lat="44.82547" lon="6.24654">
        <ele>1227.2</ele>
        <time>2024-08-13T07:21:35Z</time>
      </trkpt>
      <trkpt lat="44.82547" lon="6.24654">
        <ele>1227.2</ele>
        <time>2024-08-13T07:21:36Z</time>
      </trkpt>
      <trkpt lat="44.82546" lon="6.2465">
        <ele>1227.2</ele>
        <time>2024-08-13T07:21:37Z</time>
      </trkpt>
      <trkpt lat="44.82546" lon="6.2465">
        <ele>1227.2</ele>
        <time>2024-08-13T07:21:38Z</time>
      </trkpt>
      <trkpt lat="44.82546" lon="6.24646">
        <ele>1227</ele>
        <time>2024-08-13T07:21:39Z</time>
      </trkpt>
      <trkpt lat="44.82546" lon="6.24646">
        <ele>1227</ele>
        <time>2024-08-13T07:21:40Z</time>
      </trkpt>
      <trkpt lat="44.82545" lon="6.24641">
        <ele>1227</ele>
        <time>2024-08-13T07:21:41Z</time>
      </trkpt>
      <trkpt lat="44.82545" lon="6.24641">
        <ele>1227.2</ele>
        <time>2024-08-13T07:21:42Z</time>
      </trkpt>
      <trkpt lat="44.82544" lon="6.24637">
        <ele>1227.2</ele>
        <time>2024-08-13T07:21:43Z</time>
      </trkpt>
      <trkpt lat="44.82544" lon="6.24637">
        <ele>1227.2</ele>
        <time>2024-08-13T07:21:44Z</time>
      </trkpt>
      <trkpt lat="44.82543" lon="6.24633">
        <ele>1227.2</ele>
        <time>2024-08-13T07:21:45Z</time>
      </trkpt>
      <trkpt lat="44.82543" lon="6.24633">
        <ele>1227.2</ele>
        <time>2024-08-13T07:21:46Z</time>
      </trkpt>
      <trkpt lat="44.82542" lon="6.2463">
        <ele>1226.6</ele>
        <time>2024-08-13T07:21:47Z</time>
      </trkpt>
      <trkpt lat="44.82542" lon="6.2463">
        <ele>1226.6</ele>
        <time>2024-08-13T07:21:48Z</time>
      </trkpt>
      <trkpt lat="44.82542" lon="6.24626">
        <ele>1226.6</ele>
        <time>2024-08-13T07:21:49Z</time>
      </trkpt>
      <trkpt lat="44.82542" lon="6.24626">
        <ele>1226.8</ele>
        <time>2024-08-13T07:21:50Z</time>
      </trkpt>
      <trkpt lat="44.82542" lon="6.24622">
        <ele>1226.8</ele>
        <time>2024-08-13T07:21:51Z</time>
      </trkpt>
      <trkpt lat="44.82542" lon="6.24622">
        <ele>1226.6</ele>
        <time>2024-08-13T07:21:52Z</time>
      </trkpt>
      <trkpt lat="44.82542" lon="6.24619">
        <ele>1226.6</ele>
        <time>2024-08-13T07:21:53Z</time>
      </trkpt>
      <trkpt lat="44.82542" lon="6.24619">
        <ele>1226.4</ele>
        <time>2024-08-13T07:21:54Z</time>
      </trkpt>
      <trkpt lat="44.82542" lon="6.24619">
        <ele>1226.4</ele>
        <time>2024-08-13T07:21:55Z</time>
      </trkpt>
      <trkpt lat="44.8254" lon="6.24617">
        <ele>1226.4</ele>
        <time>2024-08-13T07:21:56Z</time>
      </trkpt>
      <trkpt lat="44.82539" lon="6.24615">
        <ele>1226.4</ele>
        <time>2024-08-13T07:21:57Z</time>
      </trkpt>
      <trkpt lat="44.82539" lon="6.24615">
        <ele>1226.4</ele>
        <time>2024-08-13T07:21:58Z</time>
      </trkpt>
      <trkpt lat="44.82539" lon="6.24611">
        <ele>1226.4</ele>
        <time>2024-08-13T07:21:59Z</time>
      </trkpt>
      <trkpt lat="44.82539" lon="6.24611">
        <ele>1226.2</ele>
        <time>2024-08-13T07:22:00Z</time>
      </trkpt>
      <trkpt lat="44.82538" lon="6.24607">
        <ele>1226</ele>
        <time>2024-08-13T07:22:01Z</time>
      </trkpt>
      <trkpt lat="44.82538" lon="6.24607">
        <ele>1225.8</ele>
        <time>2024-08-13T07:22:02Z</time>
      </trkpt>
      <trkpt lat="44.82538" lon="6.24603">
        <ele>1225.8</ele>
        <time>2024-08-13T07:22:03Z</time>
      </trkpt>
      <trkpt lat="44.82538" lon="6.24603">
        <ele>1225.8</ele>
        <time>2024-08-13T07:22:04Z</time>
      </trkpt>
      <trkpt lat="44.82537" lon="6.24599">
        <ele>1225.8</ele>
        <time>2024-08-13T07:22:05Z</time>
      </trkpt>
      <trkpt lat="44.82537" lon="6.24599">
        <ele>1225.8</ele>
        <time>2024-08-13T07:22:06Z</time>
      </trkpt>
      <trkpt lat="44.82536" lon="6.24595">
        <ele>1225.6</ele>
        <time>2024-08-13T07:22:07Z</time>
      </trkpt>
      <trkpt lat="44.82536" lon="6.24595">
        <ele>1225.4</ele>
        <time>2024-08-13T07:22:08Z</time>
      </trkpt>
      <trkpt lat="44.82536" lon="6.24591">
        <ele>1225.2</ele>
        <time>2024-08-13T07:22:09Z</time>
      </trkpt>
      <trkpt lat="44.82536" lon="6.24591">
        <ele>1225</ele>
        <time>2024-08-13T07:22:10Z</time>
      </trkpt>
      <trkpt lat="44.82536" lon="6.24587">
        <ele>1225.2</ele>
        <time>2024-08-13T07:22:11Z</time>
      </trkpt>
      <trkpt lat="44.82536" lon="6.24587">
        <ele>1225</ele>
        <time>2024-08-13T07:22:12Z</time>
      </trkpt>
      <trkpt lat="44.82536" lon="6.24583">
        <ele>1225</ele>
        <time>2024-08-13T07:22:13Z</time>
      </trkpt>
      <trkpt lat="44.82536" lon="6.24583">
        <ele>1225</ele>
        <time>2024-08-13T07:22:14Z</time>
      </trkpt>
      <trkpt lat="44.82535" lon="6.2458">
        <ele>1225</ele>
        <time>2024-08-13T07:22:15Z</time>
      </trkpt>
      <trkpt lat="44.82535" lon="6.2458">
        <ele>1225</ele>
        <time>2024-08-13T07:22:16Z</time>
      </trkpt>
      <trkpt lat="44.82534" lon="6.24577">
        <ele>1225</ele>
        <time>2024-08-13T07:22:17Z</time>
      </trkpt>
      <trkpt lat="44.82534" lon="6.24577">
        <ele>1225</ele>
        <time>2024-08-13T07:22:18Z</time>
      </trkpt>
      <trkpt lat="44.82534" lon="6.24574">
        <ele>1224.8</ele>
        <time>2024-08-13T07:22:19Z</time>
      </trkpt>
      <trkpt lat="44.82534" lon="6.24574">
        <ele>1224.8</ele>
        <time>2024-08-13T07:22:20Z</time>
      </trkpt>
      <trkpt lat="44.82533" lon="6.2457">
        <ele>1224.8</ele>
        <time>2024-08-13T07:22:21Z</time>
      </trkpt>
      <trkpt lat="44.82532" lon="6.24568">
        <ele>1224.8</ele>
        <time>2024-08-13T07:22:22Z</time>
      </trkpt>
      <trkpt lat="44.82532" lon="6.24568">
        <ele>1224.4</ele>
        <time>2024-08-13T07:22:23Z</time>
      </trkpt>
      <trkpt lat="44.82532" lon="6.24564">
        <ele>1223.8</ele>
        <time>2024-08-13T07:22:24Z</time>
      </trkpt>
      <trkpt lat="44.82532" lon="6.24564">
        <ele>1223.8</ele>
        <time>2024-08-13T07:22:25Z</time>
      </trkpt>
      <trkpt lat="44.82532" lon="6.2456">
        <ele>1223.6</ele>
        <time>2024-08-13T07:22:26Z</time>
      </trkpt>
      <trkpt lat="44.82532" lon="6.2456">
        <ele>1223.6</ele>
        <time>2024-08-13T07:22:27Z</time>
      </trkpt>
      <trkpt lat="44.82531" lon="6.24557">
        <ele>1223.4</ele>
        <time>2024-08-13T07:22:28Z</time>
      </trkpt>
      <trkpt lat="44.82531" lon="6.24557">
        <ele>1223.4</ele>
        <time>2024-08-13T07:22:29Z</time>
      </trkpt>
      <trkpt lat="44.8253" lon="6.24553">
        <ele>1223.2</ele>
        <time>2024-08-13T07:22:30Z</time>
      </trkpt>
      <trkpt lat="44.8253" lon="6.24553">
        <ele>1223.2</ele>
        <time>2024-08-13T07:22:31Z</time>
      </trkpt>
      <trkpt lat="44.82529" lon="6.2455">
        <ele>1223.2</ele>
        <time>2024-08-13T07:22:32Z</time>
      </trkpt>
      <trkpt lat="44.82529" lon="6.2455">
        <ele>1222.6</ele>
        <time>2024-08-13T07:22:33Z</time>
      </trkpt>
      <trkpt lat="44.82528" lon="6.24547">
        <ele>1222.2</ele>
        <time>2024-08-13T07:22:34Z</time>
      </trkpt>
      <trkpt lat="44.82528" lon="6.24547">
        <ele>1222.2</ele>
        <time>2024-08-13T07:22:35Z</time>
      </trkpt>
      <trkpt lat="44.82527" lon="6.24543">
        <ele>1222</ele>
        <time>2024-08-13T07:22:36Z</time>
      </trkpt>
      <trkpt lat="44.82527" lon="6.24543">
        <ele>1221.8</ele>
        <time>2024-08-13T07:22:37Z</time>
      </trkpt>
      <trkpt lat="44.82528" lon="6.2454">
        <ele>1221.4</ele>
        <time>2024-08-13T07:22:38Z</time>
      </trkpt>
      <trkpt lat="44.82528" lon="6.2454">
        <ele>1221.2</ele>
        <time>2024-08-13T07:22:39Z</time>
      </trkpt>
      <trkpt lat="44.82528" lon="6.24537">
        <ele>1221</ele>
        <time>2024-08-13T07:22:40Z</time>
      </trkpt>
      <trkpt lat="44.82528" lon="6.24537">
        <ele>1220.8</ele>
        <time>2024-08-13T07:22:41Z</time>
      </trkpt>
      <trkpt lat="44.82528" lon="6.24537">
        <ele>1220.8</ele>
        <time>2024-08-13T07:22:42Z</time>
      </trkpt>
      <trkpt lat="44.82528" lon="6.24533">
        <ele>1220.4</ele>
        <time>2024-08-13T07:22:43Z</time>
      </trkpt>
      <trkpt lat="44.82528" lon="6.24533">
        <ele>1220</ele>
        <time>2024-08-13T07:22:44Z</time>
      </trkpt>
      <trkpt lat="44.82528" lon="6.2453">
        <ele>1220</ele>
        <time>2024-08-13T07:22:45Z</time>
      </trkpt>
      <trkpt lat="44.82528" lon="6.2453">
        <ele>1219.8</ele>
        <time>2024-08-13T07:22:46Z</time>
      </trkpt>
      <trkpt lat="44.82528" lon="6.24526">
        <ele>1219.6</ele>
        <time>2024-08-13T07:22:47Z</time>
      </trkpt>
      <trkpt lat="44.82528" lon="6.24526">
        <ele>1219.4</ele>
        <time>2024-08-13T07:22:48Z</time>
      </trkpt>
      <trkpt lat="44.82528" lon="6.24523">
        <ele>1219.2</ele>
        <time>2024-08-13T07:22:49Z</time>
      </trkpt>
      <trkpt lat="44.82528" lon="6.24523">
        <ele>1219.2</ele>
        <time>2024-08-13T07:22:50Z</time>
      </trkpt>
      <trkpt lat="44.82527" lon="6.2452">
        <ele>1219</ele>
        <time>2024-08-13T07:22:51Z</time>
      </trkpt>
      <trkpt lat="44.82527" lon="6.2452">
        <ele>1218.8</ele>
        <time>2024-08-13T07:22:52Z</time>
      </trkpt>
      <trkpt lat="44.82526" lon="6.24516">
        <ele>1218.6</ele>
        <time>2024-08-13T07:22:53Z</time>
      </trkpt>
      <trkpt lat="44.82526" lon="6.24516">
        <ele>1218.2</ele>
        <time>2024-08-13T07:22:54Z</time>
      </trkpt>
      <trkpt lat="44.82526" lon="6.24513">
        <ele>1218</ele>
        <time>2024-08-13T07:22:55Z</time>
      </trkpt>
      <trkpt lat="44.82526" lon="6.24513">
        <ele>1217.8</ele>
        <time>2024-08-13T07:22:56Z</time>
      </trkpt>
      <trkpt lat="44.82525" lon="6.24509">
        <ele>1217.4</ele>
        <time>2024-08-13T07:22:57Z</time>
      </trkpt>
      <trkpt lat="44.82525" lon="6.24509">
        <ele>1217.2</ele>
        <time>2024-08-13T07:22:58Z</time>
      </trkpt>
      <trkpt lat="44.82525" lon="6.24505">
        <ele>1217</ele>
        <time>2024-08-13T07:22:59Z</time>
      </trkpt>
      <trkpt lat="44.82525" lon="6.24505">
        <ele>1216.8</ele>
        <time>2024-08-13T07:23:00Z</time>
      </trkpt>
      <trkpt lat="44.82525" lon="6.245">
        <ele>1216.8</ele>
        <time>2024-08-13T07:23:01Z</time>
      </trkpt>
      <trkpt lat="44.82525" lon="6.245">
        <ele>1216.6</ele>
        <time>2024-08-13T07:23:02Z</time>
      </trkpt>
      <trkpt lat="44.82524" lon="6.24496">
        <ele>1216.6</ele>
        <time>2024-08-13T07:23:03Z</time>
      </trkpt>
      <trkpt lat="44.82524" lon="6.24496">
        <ele>1216.2</ele>
        <time>2024-08-13T07:23:04Z</time>
      </trkpt>
      <trkpt lat="44.82524" lon="6.24492">
        <ele>1216</ele>
        <time>2024-08-13T07:23:05Z</time>
      </trkpt>
      <trkpt lat="44.82524" lon="6.24492">
        <ele>1215.8</ele>
        <time>2024-08-13T07:23:06Z</time>
      </trkpt>
      <trkpt lat="44.82526" lon="6.24488">
        <ele>1215.6</ele>
        <time>2024-08-13T07:23:07Z</time>
      </trkpt>
      <trkpt lat="44.82526" lon="6.24488">
        <ele>1215.2</ele>
        <time>2024-08-13T07:23:08Z</time>
      </trkpt>
      <trkpt lat="44.82526" lon="6.24484">
        <ele>1214.8</ele>
        <time>2024-08-13T07:23:09Z</time>
      </trkpt>
      <trkpt lat="44.82526" lon="6.24484">
        <ele>1214.8</ele>
        <time>2024-08-13T07:23:10Z</time>
      </trkpt>
      <trkpt lat="44.82525" lon="6.2448">
        <ele>1214.6</ele>
        <time>2024-08-13T07:23:11Z</time>
      </trkpt>
      <trkpt lat="44.82525" lon="6.2448">
        <ele>1214.4</ele>
        <time>2024-08-13T07:23:12Z</time>
      </trkpt>
      <trkpt lat="44.82525" lon="6.24476">
        <ele>1214</ele>
        <time>2024-08-13T07:23:13Z</time>
      </trkpt>
      <trkpt lat="44.82525" lon="6.24476">
        <ele>1214</ele>
        <time>2024-08-13T07:23:14Z</time>
      </trkpt>
      <trkpt lat="44.82524" lon="6.24473">
        <ele>1213.8</ele>
        <time>2024-08-13T07:23:15Z</time>
      </trkpt>
      <trkpt lat="44.82524" lon="6.24473">
        <ele>1213.8</ele>
        <time>2024-08-13T07:23:16Z</time>
      </trkpt>
      <trkpt lat="44.82523" lon="6.24469">
        <ele>1213.8</ele>
        <time>2024-08-13T07:23:17Z</time>
      </trkpt>
      <trkpt lat="44.82523" lon="6.24469">
        <ele>1213.8</ele>
        <time>2024-08-13T07:23:18Z</time>
      </trkpt>
      <trkpt lat="44.82522" lon="6.24466">
        <ele>1213.6</ele>
        <time>2024-08-13T07:23:19Z</time>
      </trkpt>
      <trkpt lat="44.82522" lon="6.24466">
        <ele>1213.6</ele>
        <time>2024-08-13T07:23:20Z</time>
      </trkpt>
      <trkpt lat="44.82522" lon="6.24462">
        <ele>1213.8</ele>
        <time>2024-08-13T07:23:21Z</time>
      </trkpt>
      <trkpt lat="44.82522" lon="6.24462">
        <ele>1213.8</ele>
        <time>2024-08-13T07:23:22Z</time>
      </trkpt>
      <trkpt lat="44.8252" lon="6.24458">
        <ele>1213.8</ele>
        <time>2024-08-13T07:23:23Z</time>
      </trkpt>
      <trkpt lat="44.82519" lon="6.24456">
        <ele>1213.8</ele>
        <time>2024-08-13T07:23:24Z</time>
      </trkpt>
      <trkpt lat="44.82518" lon="6.24455">
        <ele>1213.8</ele>
        <time>2024-08-13T07:23:25Z</time>
      </trkpt>
      <trkpt lat="44.82518" lon="6.24454">
        <ele>1214</ele>
        <time>2024-08-13T07:23:26Z</time>
      </trkpt>
      <trkpt lat="44.82518" lon="6.24452">
        <ele>1214.2</ele>
        <time>2024-08-13T07:23:27Z</time>
      </trkpt>
      <trkpt lat="44.82518" lon="6.24448">
        <ele>1214.4</ele>
        <time>2024-08-13T07:23:28Z</time>
      </trkpt>
      <trkpt lat="44.82518" lon="6.24448">
        <ele>1214.4</ele>
        <time>2024-08-13T07:23:29Z</time>
      </trkpt>
      <trkpt lat="44.82518" lon="6.24445">
        <ele>1214.4</ele>
        <time>2024-08-13T07:23:30Z</time>
      </trkpt>
      <trkpt lat="44.82518" lon="6.24445">
        <ele>1214.4</ele>
        <time>2024-08-13T07:23:31Z</time>
      </trkpt>
      <trkpt lat="44.82518" lon="6.24441">
        <ele>1214.4</ele>
        <time>2024-08-13T07:23:32Z</time>
      </trkpt>
      <trkpt lat="44.82518" lon="6.24441">
        <ele>1214.2</ele>
        <time>2024-08-13T07:23:33Z</time>
      </trkpt>
      <trkpt lat="44.82519" lon="6.24437">
        <ele>1214.2</ele>
        <time>2024-08-13T07:23:34Z</time>
      </trkpt>
      <trkpt lat="44.82519" lon="6.24437">
        <ele>1213.8</ele>
        <time>2024-08-13T07:23:35Z</time>
      </trkpt>
      <trkpt lat="44.82519" lon="6.24433">
        <ele>1213.8</ele>
        <time>2024-08-13T07:23:36Z</time>
      </trkpt>
      <trkpt lat="44.82519" lon="6.24433">
        <ele>1213.6</ele>
        <time>2024-08-13T07:23:37Z</time>
      </trkpt>
      <trkpt lat="44.82519" lon="6.24429">
        <ele>1213.6</ele>
        <time>2024-08-13T07:23:38Z</time>
      </trkpt>
      <trkpt lat="44.82519" lon="6.24429">
        <ele>1213.6</ele>
        <time>2024-08-13T07:23:39Z</time>
      </trkpt>
      <trkpt lat="44.82519" lon="6.24426">
        <ele>1213.4</ele>
        <time>2024-08-13T07:23:40Z</time>
      </trkpt>
      <trkpt lat="44.82519" lon="6.24426">
        <ele>1213.2</ele>
        <time>2024-08-13T07:23:41Z</time>
      </trkpt>
      <trkpt lat="44.82518" lon="6.24421">
        <ele>1213.2</ele>
        <time>2024-08-13T07:23:42Z</time>
      </trkpt>
      <trkpt lat="44.82518" lon="6.24421">
        <ele>1213.2</ele>
        <time>2024-08-13T07:23:43Z</time>
      </trkpt>
      <trkpt lat="44.82517" lon="6.24418">
        <ele>1213.2</ele>
        <time>2024-08-13T07:23:44Z</time>
      </trkpt>
      <trkpt lat="44.82517" lon="6.24418">
        <ele>1213.6</ele>
        <time>2024-08-13T07:23:45Z</time>
      </trkpt>
      <trkpt lat="44.82515" lon="6.24415">
        <ele>1213.8</ele>
        <time>2024-08-13T07:23:46Z</time>
      </trkpt>
      <trkpt lat="44.82515" lon="6.24415">
        <ele>1213.8</ele>
        <time>2024-08-13T07:23:47Z</time>
      </trkpt>
      <trkpt lat="44.82514" lon="6.24411">
        <ele>1214</ele>
        <time>2024-08-13T07:23:48Z</time>
      </trkpt>
      <trkpt lat="44.82514" lon="6.24411">
        <ele>1214.2</ele>
        <time>2024-08-13T07:23:49Z</time>
      </trkpt>
      <trkpt lat="44.82513" lon="6.24407">
        <ele>1214.2</ele>
        <time>2024-08-13T07:23:50Z</time>
      </trkpt>
      <trkpt lat="44.82513" lon="6.24407">
        <ele>1214.2</ele>
        <time>2024-08-13T07:23:51Z</time>
      </trkpt>
      <trkpt lat="44.82512" lon="6.24403">
        <ele>1214.2</ele>
        <time>2024-08-13T07:23:52Z</time>
      </trkpt>
      <trkpt lat="44.82512" lon="6.24403">
        <ele>1214.2</ele>
        <time>2024-08-13T07:23:53Z</time>
      </trkpt>
      <trkpt lat="44.82512" lon="6.24399">
        <ele>1214.4</ele>
        <time>2024-08-13T07:23:54Z</time>
      </trkpt>
      <trkpt lat="44.82512" lon="6.24399">
        <ele>1214.4</ele>
        <time>2024-08-13T07:23:55Z</time>
      </trkpt>
      <trkpt lat="44.82511" lon="6.24396">
        <ele>1214.2</ele>
        <time>2024-08-13T07:23:56Z</time>
      </trkpt>
      <trkpt lat="44.82511" lon="6.24396">
        <ele>1214.2</ele>
        <time>2024-08-13T07:23:57Z</time>
      </trkpt>
      <trkpt lat="44.82512" lon="6.24392">
        <ele>1214.2</ele>
        <time>2024-08-13T07:23:58Z</time>
      </trkpt>
      <trkpt lat="44.82512" lon="6.24392">
        <ele>1214.2</ele>
        <time>2024-08-13T07:23:59Z</time>
      </trkpt>
      <trkpt lat="44.82513" lon="6.24388">
        <ele>1214.2</ele>
        <time>2024-08-13T07:24:00Z</time>
      </trkpt>
      <trkpt lat="44.82513" lon="6.24388">
        <ele>1214.2</ele>
        <time>2024-08-13T07:24:01Z</time>
      </trkpt>
      <trkpt lat="44.82513" lon="6.24385">
        <ele>1213.8</ele>
        <time>2024-08-13T07:24:02Z</time>
      </trkpt>
      <trkpt lat="44.82513" lon="6.24385">
        <ele>1213.8</ele>
        <time>2024-08-13T07:24:03Z</time>
      </trkpt>
      <trkpt lat="44.82512" lon="6.24382">
        <ele>1213.6</ele>
        <time>2024-08-13T07:24:04Z</time>
      </trkpt>
      <trkpt lat="44.82512" lon="6.24382">
        <ele>1213.6</ele>
        <time>2024-08-13T07:24:05Z</time>
      </trkpt>
      <trkpt lat="44.82512" lon="6.24378">
        <ele>1213.4</ele>
        <time>2024-08-13T07:24:06Z</time>
      </trkpt>
      <trkpt lat="44.82512" lon="6.24378">
        <ele>1213.2</ele>
        <time>2024-08-13T07:24:07Z</time>
      </trkpt>
      <trkpt lat="44.82512" lon="6.24375">
        <ele>1213</ele>
        <time>2024-08-13T07:24:08Z</time>
      </trkpt>
      <trkpt lat="44.82512" lon="6.24375">
        <ele>1212.8</ele>
        <time>2024-08-13T07:24:09Z</time>
      </trkpt>
      <trkpt lat="44.82513" lon="6.24372">
        <ele>1212.8</ele>
        <time>2024-08-13T07:24:10Z</time>
      </trkpt>
      <trkpt lat="44.82513" lon="6.24372">
        <ele>1212.8</ele>
        <time>2024-08-13T07:24:11Z</time>
      </trkpt>
      <trkpt lat="44.82512" lon="6.24368">
        <ele>1212.8</ele>
        <time>2024-08-13T07:24:12Z</time>
      </trkpt>
      <trkpt lat="44.82512" lon="6.24368">
        <ele>1212.4</ele>
        <time>2024-08-13T07:24:13Z</time>
      </trkpt>
      <trkpt lat="44.82513" lon="6.24364">
        <ele>1212.2</ele>
        <time>2024-08-13T07:24:14Z</time>
      </trkpt>
      <trkpt lat="44.82513" lon="6.24364">
        <ele>1211.8</ele>
        <time>2024-08-13T07:24:15Z</time>
      </trkpt>
      <trkpt lat="44.82513" lon="6.2436">
        <ele>1211.8</ele>
        <time>2024-08-13T07:24:16Z</time>
      </trkpt>
      <trkpt lat="44.82513" lon="6.2436">
        <ele>1211.8</ele>
        <time>2024-08-13T07:24:17Z</time>
      </trkpt>
      <trkpt lat="44.82512" lon="6.24357">
        <ele>1211.8</ele>
        <time>2024-08-13T07:24:18Z</time>
      </trkpt>
      <trkpt lat="44.82512" lon="6.24357">
        <ele>1211.6</ele>
        <time>2024-08-13T07:24:19Z</time>
      </trkpt>
      <trkpt lat="44.82512" lon="6.24352">
        <ele>1211.6</ele>
        <time>2024-08-13T07:24:20Z</time>
      </trkpt>
      <trkpt lat="44.82512" lon="6.24352">
        <ele>1211.4</ele>
        <time>2024-08-13T07:24:21Z</time>
      </trkpt>
      <trkpt lat="44.82511" lon="6.24348">
        <ele>1211.4</ele>
        <time>2024-08-13T07:24:22Z</time>
      </trkpt>
      <trkpt lat="44.82511" lon="6.24348">
        <ele>1211</ele>
        <time>2024-08-13T07:24:23Z</time>
      </trkpt>
      <trkpt lat="44.8251" lon="6.24345">
        <ele>1210.8</ele>
        <time>2024-08-13T07:24:24Z</time>
      </trkpt>
      <trkpt lat="44.8251" lon="6.24345">
        <ele>1210.8</ele>
        <time>2024-08-13T07:24:25Z</time>
      </trkpt>
      <trkpt lat="44.82509" lon="6.24342">
        <ele>1210.6</ele>
        <time>2024-08-13T07:24:26Z</time>
      </trkpt>
      <trkpt lat="44.82509" lon="6.24342">
        <ele>1210</ele>
        <time>2024-08-13T07:24:27Z</time>
      </trkpt>
      <trkpt lat="44.82509" lon="6.24338">
        <ele>1210</ele>
        <time>2024-08-13T07:24:28Z</time>
      </trkpt>
      <trkpt lat="44.8251" lon="6.24336">
        <ele>1210</ele>
        <time>2024-08-13T07:24:29Z</time>
      </trkpt>
      <trkpt lat="44.8251" lon="6.24336">
        <ele>1210</ele>
        <time>2024-08-13T07:24:30Z</time>
      </trkpt>
      <trkpt lat="44.82511" lon="6.24331">
        <ele>1209.8</ele>
        <time>2024-08-13T07:24:31Z</time>
      </trkpt>
      <trkpt lat="44.82511" lon="6.24331">
        <ele>1209.6</ele>
        <time>2024-08-13T07:24:32Z</time>
      </trkpt>
      <trkpt lat="44.82512" lon="6.24327">
        <ele>1209.4</ele>
        <time>2024-08-13T07:24:33Z</time>
      </trkpt>
      <trkpt lat="44.82512" lon="6.24327">
        <ele>1209.4</ele>
        <time>2024-08-13T07:24:34Z</time>
      </trkpt>
      <trkpt lat="44.82513" lon="6.24322">
        <ele>1209.4</ele>
        <time>2024-08-13T07:24:35Z</time>
      </trkpt>
      <trkpt lat="44.82513" lon="6.24322">
        <ele>1209.2</ele>
        <time>2024-08-13T07:24:36Z</time>
      </trkpt>
      <trkpt lat="44.82513" lon="6.24319">
        <ele>1209.2</ele>
        <time>2024-08-13T07:24:37Z</time>
      </trkpt>
      <trkpt lat="44.82513" lon="6.24319">
        <ele>1209.2</ele>
        <time>2024-08-13T07:24:38Z</time>
      </trkpt>
      <trkpt lat="44.82513" lon="6.24315">
        <ele>1209</ele>
        <time>2024-08-13T07:24:39Z</time>
      </trkpt>
      <trkpt lat="44.82513" lon="6.24315">
        <ele>1209</ele>
        <time>2024-08-13T07:24:40Z</time>
      </trkpt>
      <trkpt lat="44.82513" lon="6.24312">
        <ele>1209</ele>
        <time>2024-08-13T07:24:41Z</time>
      </trkpt>
      <trkpt lat="44.82513" lon="6.24312">
        <ele>1208.8</ele>
        <time>2024-08-13T07:24:42Z</time>
      </trkpt>
      <trkpt lat="44.82513" lon="6.24308">
        <ele>1208.6</ele>
        <time>2024-08-13T07:24:43Z</time>
      </trkpt>
      <trkpt lat="44.82513" lon="6.24308">
        <ele>1208.4</ele>
        <time>2024-08-13T07:24:44Z</time>
      </trkpt>
      <trkpt lat="44.82514" lon="6.24304">
        <ele>1208.4</ele>
        <time>2024-08-13T07:24:45Z</time>
      </trkpt>
      <trkpt lat="44.82514" lon="6.24304">
        <ele>1208</ele>
        <time>2024-08-13T07:24:46Z</time>
      </trkpt>
      <trkpt lat="44.82513" lon="6.243">
        <ele>1207.8</ele>
        <time>2024-08-13T07:24:47Z</time>
      </trkpt>
      <trkpt lat="44.82513" lon="6.243">
        <ele>1207.6</ele>
        <time>2024-08-13T07:24:48Z</time>
      </trkpt>
      <trkpt lat="44.82513" lon="6.24297">
        <ele>1207.4</ele>
        <time>2024-08-13T07:24:49Z</time>
      </trkpt>
      <trkpt lat="44.82513" lon="6.24297">
        <ele>1207.2</ele>
        <time>2024-08-13T07:24:50Z</time>
      </trkpt>
      <trkpt lat="44.82512" lon="6.24294">
        <ele>1207.2</ele>
        <time>2024-08-13T07:24:51Z</time>
      </trkpt>
      <trkpt lat="44.82512" lon="6.24294">
        <ele>1206.8</ele>
        <time>2024-08-13T07:24:52Z</time>
      </trkpt>
      <trkpt lat="44.8251" lon="6.24289">
        <ele>1206.8</ele>
        <time>2024-08-13T07:24:53Z</time>
      </trkpt>
      <trkpt lat="44.82509" lon="6.24287">
        <ele>1206.8</ele>
        <time>2024-08-13T07:24:54Z</time>
      </trkpt>
      <trkpt lat="44.82509" lon="6.24286">
        <ele>1206.8</ele>
        <time>2024-08-13T07:24:55Z</time>
      </trkpt>
      <trkpt lat="44.82508" lon="6.24285">
        <ele>1206.6</ele>
        <time>2024-08-13T07:24:56Z</time>
      </trkpt>
      <trkpt lat="44.82508" lon="6.24284">
        <ele>1206.4</ele>
        <time>2024-08-13T07:24:57Z</time>
      </trkpt>
      <trkpt lat="44.82507" lon="6.2428">
        <ele>1206.4</ele>
        <time>2024-08-13T07:24:58Z</time>
      </trkpt>
      <trkpt lat="44.82507" lon="6.2428">
        <ele>1206.4</ele>
        <time>2024-08-13T07:24:59Z</time>
      </trkpt>
      <trkpt lat="44.82506" lon="6.24276">
        <ele>1206.4</ele>
        <time>2024-08-13T07:25:00Z</time>
      </trkpt>
      <trkpt lat="44.82506" lon="6.24276">
        <ele>1206.4</ele>
        <time>2024-08-13T07:25:01Z</time>
      </trkpt>
      <trkpt lat="44.82505" lon="6.24273">
        <ele>1206.4</ele>
        <time>2024-08-13T07:25:02Z</time>
      </trkpt>
      <trkpt lat="44.82505" lon="6.24273">
        <ele>1206.4</ele>
        <time>2024-08-13T07:25:03Z</time>
      </trkpt>
      <trkpt lat="44.82504" lon="6.24269">
        <ele>1206.4</ele>
        <time>2024-08-13T07:25:04Z</time>
      </trkpt>
      <trkpt lat="44.82504" lon="6.24269">
        <ele>1206.2</ele>
        <time>2024-08-13T07:25:05Z</time>
      </trkpt>
      <trkpt lat="44.82503" lon="6.24265">
        <ele>1206.2</ele>
        <time>2024-08-13T07:25:06Z</time>
      </trkpt>
      <trkpt lat="44.82503" lon="6.24265">
        <ele>1206.2</ele>
        <time>2024-08-13T07:25:07Z</time>
      </trkpt>
      <trkpt lat="44.82503" lon="6.24262">
        <ele>1206.2</ele>
        <time>2024-08-13T07:25:08Z</time>
      </trkpt>
      <trkpt lat="44.82503" lon="6.24262">
        <ele>1206.2</ele>
        <time>2024-08-13T07:25:09Z</time>
      </trkpt>
      <trkpt lat="44.82503" lon="6.24258">
        <ele>1206</ele>
        <time>2024-08-13T07:25:10Z</time>
      </trkpt>
      <trkpt lat="44.82503" lon="6.24258">
        <ele>1206</ele>
        <time>2024-08-13T07:25:11Z</time>
      </trkpt>
      <trkpt lat="44.82503" lon="6.24255">
        <ele>1205.8</ele>
        <time>2024-08-13T07:25:12Z</time>
      </trkpt>
      <trkpt lat="44.82502" lon="6.24252">
        <ele>1205.8</ele>
        <time>2024-08-13T07:25:13Z</time>
      </trkpt>
      <trkpt lat="44.82502" lon="6.24252">
        <ele>1205.8</ele>
        <time>2024-08-13T07:25:14Z</time>
      </trkpt>
      <trkpt lat="44.82501" lon="6.24249">
        <ele>1205.6</ele>
        <time>2024-08-13T07:25:15Z</time>
      </trkpt>
      <trkpt lat="44.82501" lon="6.24249">
        <ele>1205.2</ele>
        <time>2024-08-13T07:25:16Z</time>
      </trkpt>
      <trkpt lat="44.82501" lon="6.24246">
        <ele>1205.2</ele>
        <time>2024-08-13T07:25:17Z</time>
      </trkpt>
      <trkpt lat="44.82501" lon="6.24246">
        <ele>1204.8</ele>
        <time>2024-08-13T07:25:18Z</time>
      </trkpt>
      <trkpt lat="44.825" lon="6.24243">
        <ele>1204.6</ele>
        <time>2024-08-13T07:25:19Z</time>
      </trkpt>
      <trkpt lat="44.825" lon="6.24243">
        <ele>1204.6</ele>
        <time>2024-08-13T07:25:20Z</time>
      </trkpt>
      <trkpt lat="44.82499" lon="6.24239">
        <ele>1204.6</ele>
        <time>2024-08-13T07:25:21Z</time>
      </trkpt>
      <trkpt lat="44.82499" lon="6.24239">
        <ele>1204.4</ele>
        <time>2024-08-13T07:25:22Z</time>
      </trkpt>
      <trkpt lat="44.82498" lon="6.24236">
        <ele>1204.2</ele>
        <time>2024-08-13T07:25:23Z</time>
      </trkpt>
      <trkpt lat="44.82498" lon="6.24236">
        <ele>1203.8</ele>
        <time>2024-08-13T07:25:24Z</time>
      </trkpt>
      <trkpt lat="44.82497" lon="6.24232">
        <ele>1203.8</ele>
        <time>2024-08-13T07:25:25Z</time>
      </trkpt>
      <trkpt lat="44.82497" lon="6.24232">
        <ele>1203.6</ele>
        <time>2024-08-13T07:25:26Z</time>
      </trkpt>
      <trkpt lat="44.82495" lon="6.24229">
        <ele>1203.2</ele>
        <time>2024-08-13T07:25:27Z</time>
      </trkpt>
      <trkpt lat="44.82495" lon="6.24229">
        <ele>1203.2</ele>
        <time>2024-08-13T07:25:28Z</time>
      </trkpt>
      <trkpt lat="44.82494" lon="6.24227">
        <ele>1203</ele>
        <time>2024-08-13T07:25:29Z</time>
      </trkpt>
      <trkpt lat="44.82494" lon="6.24227">
        <ele>1202.8</ele>
        <time>2024-08-13T07:25:30Z</time>
      </trkpt>
      <trkpt lat="44.82493" lon="6.24225">
        <ele>1202.6</ele>
        <time>2024-08-13T07:25:31Z</time>
      </trkpt>
      <trkpt lat="44.82493" lon="6.24225">
        <ele>1202.6</ele>
        <time>2024-08-13T07:25:32Z</time>
      </trkpt>
      <trkpt lat="44.82492" lon="6.24221">
        <ele>1202.4</ele>
        <time>2024-08-13T07:25:33Z</time>
      </trkpt>
      <trkpt lat="44.82491" lon="6.24219">
        <ele>1202.4</ele>
        <time>2024-08-13T07:25:34Z</time>
      </trkpt>
      <trkpt lat="44.82491" lon="6.24219">
        <ele>1202.4</ele>
        <time>2024-08-13T07:25:35Z</time>
      </trkpt>
      <trkpt lat="44.82491" lon="6.24216">
        <ele>1202.4</ele>
        <time>2024-08-13T07:25:36Z</time>
      </trkpt>
      <trkpt lat="44.82491" lon="6.24216">
        <ele>1202.4</ele>
        <time>2024-08-13T07:25:37Z</time>
      </trkpt>
      <trkpt lat="44.8249" lon="6.24212">
        <ele>1202.4</ele>
        <time>2024-08-13T07:25:38Z</time>
      </trkpt>
      <trkpt lat="44.8249" lon="6.24212">
        <ele>1202.4</ele>
        <time>2024-08-13T07:25:39Z</time>
      </trkpt>
      <trkpt lat="44.82489" lon="6.24209">
        <ele>1202.6</ele>
        <time>2024-08-13T07:25:40Z</time>
      </trkpt>
      <trkpt lat="44.82489" lon="6.24209">
        <ele>1202.6</ele>
        <time>2024-08-13T07:25:41Z</time>
      </trkpt>
      <trkpt lat="44.82489" lon="6.24205">
        <ele>1202.6</ele>
        <time>2024-08-13T07:25:42Z</time>
      </trkpt>
      <trkpt lat="44.82489" lon="6.24205">
        <ele>1202.4</ele>
        <time>2024-08-13T07:25:43Z</time>
      </trkpt>
      <trkpt lat="44.82489" lon="6.24201">
        <ele>1202.4</ele>
        <time>2024-08-13T07:25:44Z</time>
      </trkpt>
      <trkpt lat="44.82489" lon="6.24201">
        <ele>1202.2</ele>
        <time>2024-08-13T07:25:45Z</time>
      </trkpt>
      <trkpt lat="44.8249" lon="6.24198">
        <ele>1202.2</ele>
        <time>2024-08-13T07:25:46Z</time>
      </trkpt>
      <trkpt lat="44.8249" lon="6.24198">
        <ele>1202.2</ele>
        <time>2024-08-13T07:25:47Z</time>
      </trkpt>
      <trkpt lat="44.82491" lon="6.24194">
        <ele>1202.2</ele>
        <time>2024-08-13T07:25:48Z</time>
      </trkpt>
      <trkpt lat="44.82491" lon="6.24194">
        <ele>1202.2</ele>
        <time>2024-08-13T07:25:49Z</time>
      </trkpt>
      <trkpt lat="44.82492" lon="6.24192">
        <ele>1201.8</ele>
        <time>2024-08-13T07:25:50Z</time>
      </trkpt>
      <trkpt lat="44.82492" lon="6.24192">
        <ele>1201.6</ele>
        <time>2024-08-13T07:25:51Z</time>
      </trkpt>
      <trkpt lat="44.82492" lon="6.24192">
        <ele>1201.6</ele>
        <time>2024-08-13T07:25:52Z</time>
      </trkpt>
      <trkpt lat="44.82491" lon="6.24188">
        <ele>1201.6</ele>
        <time>2024-08-13T07:25:53Z</time>
      </trkpt>
      <trkpt lat="44.82491" lon="6.24188">
        <ele>1201.6</ele>
        <time>2024-08-13T07:25:54Z</time>
      </trkpt>
      <trkpt lat="44.82492" lon="6.24185">
        <ele>1201.6</ele>
        <time>2024-08-13T07:25:55Z</time>
      </trkpt>
      <trkpt lat="44.82492" lon="6.24185">
        <ele>1201.4</ele>
        <time>2024-08-13T07:25:56Z</time>
      </trkpt>
      <trkpt lat="44.82493" lon="6.24181">
        <ele>1201.4</ele>
        <time>2024-08-13T07:25:57Z</time>
      </trkpt>
      <trkpt lat="44.82493" lon="6.24181">
        <ele>1201.4</ele>
        <time>2024-08-13T07:25:58Z</time>
      </trkpt>
      <trkpt lat="44.82493" lon="6.24178">
        <ele>1201.4</ele>
        <time>2024-08-13T07:25:59Z</time>
      </trkpt>
      <trkpt lat="44.82493" lon="6.24178">
        <ele>1201.4</ele>
        <time>2024-08-13T07:26:00Z</time>
      </trkpt>
      <trkpt lat="44.82494" lon="6.24175">
        <ele>1201.8</ele>
        <time>2024-08-13T07:26:01Z</time>
      </trkpt>
      <trkpt lat="44.82494" lon="6.24175">
        <ele>1202</ele>
        <time>2024-08-13T07:26:02Z</time>
      </trkpt>
      <trkpt lat="44.82493" lon="6.24172">
        <ele>1202</ele>
        <time>2024-08-13T07:26:03Z</time>
      </trkpt>
      <trkpt lat="44.82493" lon="6.24172">
        <ele>1202.2</ele>
        <time>2024-08-13T07:26:04Z</time>
      </trkpt>
      <trkpt lat="44.82494" lon="6.24169">
        <ele>1202.2</ele>
        <time>2024-08-13T07:26:05Z</time>
      </trkpt>
      <trkpt lat="44.82494" lon="6.24169">
        <ele>1202.4</ele>
        <time>2024-08-13T07:26:06Z</time>
      </trkpt>
      <trkpt lat="44.82496" lon="6.24166">
        <ele>1202.6</ele>
        <time>2024-08-13T07:26:07Z</time>
      </trkpt>
      <trkpt lat="44.82496" lon="6.24166">
        <ele>1202.8</ele>
        <time>2024-08-13T07:26:08Z</time>
      </trkpt>
      <trkpt lat="44.82495" lon="6.24162">
        <ele>1202.8</ele>
        <time>2024-08-13T07:26:09Z</time>
      </trkpt>
      <trkpt lat="44.82495" lon="6.24162">
        <ele>1202.8</ele>
        <time>2024-08-13T07:26:10Z</time>
      </trkpt>
      <trkpt lat="44.82496" lon="6.24159">
        <ele>1203</ele>
        <time>2024-08-13T07:26:11Z</time>
      </trkpt>
      <trkpt lat="44.82496" lon="6.24159">
        <ele>1203.2</ele>
        <time>2024-08-13T07:26:12Z</time>
      </trkpt>
      <trkpt lat="44.82494" lon="6.24155">
        <ele>1203.2</ele>
        <time>2024-08-13T07:26:13Z</time>
      </trkpt>
      <trkpt lat="44.82494" lon="6.24155">
        <ele>1203</ele>
        <time>2024-08-13T07:26:14Z</time>
      </trkpt>
      <trkpt lat="44.82493" lon="6.24152">
        <ele>1203</ele>
        <time>2024-08-13T07:26:15Z</time>
      </trkpt>
      <trkpt lat="44.82493" lon="6.24152">
        <ele>1202.8</ele>
        <time>2024-08-13T07:26:16Z</time>
      </trkpt>
      <trkpt lat="44.82492" lon="6.2415">
        <ele>1202.8</ele>
        <time>2024-08-13T07:26:17Z</time>
      </trkpt>
      <trkpt lat="44.82491" lon="6.24148">
        <ele>1202.8</ele>
        <time>2024-08-13T07:26:18Z</time>
      </trkpt>
      <trkpt lat="44.82491" lon="6.24148">
        <ele>1202.8</ele>
        <time>2024-08-13T07:26:19Z</time>
      </trkpt>
      <trkpt lat="44.82489" lon="6.24145">
        <ele>1202.6</ele>
        <time>2024-08-13T07:26:20Z</time>
      </trkpt>
      <trkpt lat="44.82489" lon="6.24145">
        <ele>1202.4</ele>
        <time>2024-08-13T07:26:21Z</time>
      </trkpt>
      <trkpt lat="44.82487" lon="6.24143">
        <ele>1202.4</ele>
        <time>2024-08-13T07:26:22Z</time>
      </trkpt>
      <trkpt lat="44.82487" lon="6.24143">
        <ele>1202.2</ele>
        <time>2024-08-13T07:26:23Z</time>
      </trkpt>
      <trkpt lat="44.82486" lon="6.2414">
        <ele>1202</ele>
        <time>2024-08-13T07:26:24Z</time>
      </trkpt>
      <trkpt lat="44.82486" lon="6.2414">
        <ele>1201.8</ele>
        <time>2024-08-13T07:26:25Z</time>
      </trkpt>
      <trkpt lat="44.82485" lon="6.24136">
        <ele>1201.6</ele>
        <time>2024-08-13T07:26:26Z</time>
      </trkpt>
      <trkpt lat="44.82485" lon="6.24136">
        <ele>1201.4</ele>
        <time>2024-08-13T07:26:27Z</time>
      </trkpt>
      <trkpt lat="44.82485" lon="6.24132">
        <ele>1201.2</ele>
        <time>2024-08-13T07:26:28Z</time>
      </trkpt>
      <trkpt lat="44.82485" lon="6.24132">
        <ele>1201.2</ele>
        <time>2024-08-13T07:26:29Z</time>
      </trkpt>
      <trkpt lat="44.82485" lon="6.24129">
        <ele>1201</ele>
        <time>2024-08-13T07:26:30Z</time>
      </trkpt>
      <trkpt lat="44.82485" lon="6.24129">
        <ele>1201</ele>
        <time>2024-08-13T07:26:31Z</time>
      </trkpt>
      <trkpt lat="44.82485" lon="6.24125">
        <ele>1201</ele>
        <time>2024-08-13T07:26:32Z</time>
      </trkpt>
      <trkpt lat="44.82485" lon="6.24125">
        <ele>1201</ele>
        <time>2024-08-13T07:26:33Z</time>
      </trkpt>
      <trkpt lat="44.82487" lon="6.24121">
        <ele>1201</ele>
        <time>2024-08-13T07:26:34Z</time>
      </trkpt>
      <trkpt lat="44.82487" lon="6.24121">
        <ele>1200.8</ele>
        <time>2024-08-13T07:26:35Z</time>
      </trkpt>
      <trkpt lat="44.82487" lon="6.24118">
        <ele>1200.8</ele>
        <time>2024-08-13T07:26:36Z</time>
      </trkpt>
      <trkpt lat="44.82487" lon="6.24118">
        <ele>1200.8</ele>
        <time>2024-08-13T07:26:37Z</time>
      </trkpt>
      <trkpt lat="44.82485" lon="6.24116">
        <ele>1200.8</ele>
        <time>2024-08-13T07:26:38Z</time>
      </trkpt>
      <trkpt lat="44.82485" lon="6.24116">
        <ele>1200.8</ele>
        <time>2024-08-13T07:26:39Z</time>
      </trkpt>
      <trkpt lat="44.82484" lon="6.24113">
        <ele>1201</ele>
        <time>2024-08-13T07:26:40Z</time>
      </trkpt>
      <trkpt lat="44.82484" lon="6.24113">
        <ele>1201</ele>
        <time>2024-08-13T07:26:41Z</time>
      </trkpt>
      <trkpt lat="44.82483" lon="6.24109">
        <ele>1200.8</ele>
        <time>2024-08-13T07:26:42Z</time>
      </trkpt>
      <trkpt lat="44.82483" lon="6.24109">
        <ele>1200.6</ele>
        <time>2024-08-13T07:26:43Z</time>
      </trkpt>
      <trkpt lat="44.82482" lon="6.24106">
        <ele>1200.4</ele>
        <time>2024-08-13T07:26:44Z</time>
      </trkpt>
      <trkpt lat="44.82482" lon="6.24106">
        <ele>1200.4</ele>
        <time>2024-08-13T07:26:45Z</time>
      </trkpt>
      <trkpt lat="44.82481" lon="6.24102">
        <ele>1200.2</ele>
        <time>2024-08-13T07:26:46Z</time>
      </trkpt>
      <trkpt lat="44.82481" lon="6.24102">
        <ele>1200</ele>
        <time>2024-08-13T07:26:47Z</time>
      </trkpt>
      <trkpt lat="44.8248" lon="6.24099">
        <ele>1200</ele>
        <time>2024-08-13T07:26:48Z</time>
      </trkpt>
      <trkpt lat="44.8248" lon="6.24099">
        <ele>1199.8</ele>
        <time>2024-08-13T07:26:49Z</time>
      </trkpt>
      <trkpt lat="44.82479" lon="6.24095">
        <ele>1199.6</ele>
        <time>2024-08-13T07:26:50Z</time>
      </trkpt>
      <trkpt lat="44.82479" lon="6.24095">
        <ele>1199.6</ele>
        <time>2024-08-13T07:26:51Z</time>
      </trkpt>
      <trkpt lat="44.82477" lon="6.24091">
        <ele>1199.4</ele>
        <time>2024-08-13T07:26:52Z</time>
      </trkpt>
      <trkpt lat="44.82477" lon="6.24091">
        <ele>1199.4</ele>
        <time>2024-08-13T07:26:53Z</time>
      </trkpt>
      <trkpt lat="44.82477" lon="6.24087">
        <ele>1199.4</ele>
        <time>2024-08-13T07:26:54Z</time>
      </trkpt>
      <trkpt lat="44.82477" lon="6.24087">
        <ele>1199.4</ele>
        <time>2024-08-13T07:26:55Z</time>
      </trkpt>
      <trkpt lat="44.82477" lon="6.24084">
        <ele>1199.2</ele>
        <time>2024-08-13T07:26:56Z</time>
      </trkpt>
      <trkpt lat="44.82477" lon="6.24084">
        <ele>1199.2</ele>
        <time>2024-08-13T07:26:57Z</time>
      </trkpt>
      <trkpt lat="44.82477" lon="6.24081">
        <ele>1199</ele>
        <time>2024-08-13T07:26:58Z</time>
      </trkpt>
      <trkpt lat="44.82477" lon="6.24081">
        <ele>1199</ele>
        <time>2024-08-13T07:26:59Z</time>
      </trkpt>
      <trkpt lat="44.82477" lon="6.24077">
        <ele>1198.8</ele>
        <time>2024-08-13T07:27:00Z</time>
      </trkpt>
      <trkpt lat="44.82477" lon="6.24077">
        <ele>1198.6</ele>
        <time>2024-08-13T07:27:01Z</time>
      </trkpt>
      <trkpt lat="44.82477" lon="6.24073">
        <ele>1198.4</ele>
        <time>2024-08-13T07:27:02Z</time>
      </trkpt>
      <trkpt lat="44.82477" lon="6.24073">
        <ele>1198.2</ele>
        <time>2024-08-13T07:27:03Z</time>
      </trkpt>
      <trkpt lat="44.82477" lon="6.2407">
        <ele>1198</ele>
        <time>2024-08-13T07:27:04Z</time>
      </trkpt>
      <trkpt lat="44.82477" lon="6.2407">
        <ele>1198</ele>
        <time>2024-08-13T07:27:05Z</time>
      </trkpt>
      <trkpt lat="44.82477" lon="6.24066">
        <ele>1198</ele>
        <time>2024-08-13T07:27:06Z</time>
      </trkpt>
      <trkpt lat="44.82477" lon="6.24066">
        <ele>1197.8</ele>
        <time>2024-08-13T07:27:07Z</time>
      </trkpt>
      <trkpt lat="44.82477" lon="6.24062">
        <ele>1197.6</ele>
        <time>2024-08-13T07:27:08Z</time>
      </trkpt>
      <trkpt lat="44.82477" lon="6.24062">
        <ele>1197.6</ele>
        <time>2024-08-13T07:27:09Z</time>
      </trkpt>
      <trkpt lat="44.82477" lon="6.24058">
        <ele>1197.4</ele>
        <time>2024-08-13T07:27:10Z</time>
      </trkpt>
      <trkpt lat="44.82477" lon="6.24058">
        <ele>1197.4</ele>
        <time>2024-08-13T07:27:11Z</time>
      </trkpt>
      <trkpt lat="44.82478" lon="6.24055">
        <ele>1197.2</ele>
        <time>2024-08-13T07:27:12Z</time>
      </trkpt>
      <trkpt lat="44.82478" lon="6.24055">
        <ele>1196.8</ele>
        <time>2024-08-13T07:27:13Z</time>
      </trkpt>
      <trkpt lat="44.82479" lon="6.24052">
        <ele>1196.8</ele>
        <time>2024-08-13T07:27:14Z</time>
      </trkpt>
      <trkpt lat="44.82479" lon="6.24052">
        <ele>1196.6</ele>
        <time>2024-08-13T07:27:15Z</time>
      </trkpt>
      <trkpt lat="44.8248" lon="6.24049">
        <ele>1196.2</ele>
        <time>2024-08-13T07:27:16Z</time>
      </trkpt>
      <trkpt lat="44.8248" lon="6.24049">
        <ele>1196.2</ele>
        <time>2024-08-13T07:27:17Z</time>
      </trkpt>
      <trkpt lat="44.8248" lon="6.24046">
        <ele>1196.2</ele>
        <time>2024-08-13T07:27:18Z</time>
      </trkpt>
      <trkpt lat="44.8248" lon="6.24046">
        <ele>1196.2</ele>
        <time>2024-08-13T07:27:19Z</time>
      </trkpt>
      <trkpt lat="44.8248" lon="6.24042">
        <ele>1196.2</ele>
        <time>2024-08-13T07:27:20Z</time>
      </trkpt>
      <trkpt lat="44.8248" lon="6.24042">
        <ele>1196.2</ele>
        <time>2024-08-13T07:27:21Z</time>
      </trkpt>
      <trkpt lat="44.8248" lon="6.24038">
        <ele>1196.2</ele>
        <time>2024-08-13T07:27:22Z</time>
      </trkpt>
      <trkpt lat="44.8248" lon="6.24038">
        <ele>1195.8</ele>
        <time>2024-08-13T07:27:23Z</time>
      </trkpt>
      <trkpt lat="44.82481" lon="6.24035">
        <ele>1195.8</ele>
        <time>2024-08-13T07:27:24Z</time>
      </trkpt>
      <trkpt lat="44.82481" lon="6.24035">
        <ele>1195.8</ele>
        <time>2024-08-13T07:27:25Z</time>
      </trkpt>
      <trkpt lat="44.82481" lon="6.24031">
        <ele>1196</ele>
        <time>2024-08-13T07:27:26Z</time>
      </trkpt>
      <trkpt lat="44.82481" lon="6.24031">
        <ele>1196</ele>
        <time>2024-08-13T07:27:27Z</time>
      </trkpt>
      <trkpt lat="44.82482" lon="6.24028">
        <ele>1195.8</ele>
        <time>2024-08-13T07:27:28Z</time>
      </trkpt>
      <trkpt lat="44.82482" lon="6.24028">
        <ele>1195.8</ele>
        <time>2024-08-13T07:27:29Z</time>
      </trkpt>
      <trkpt lat="44.82482" lon="6.24025">
        <ele>1196</ele>
        <time>2024-08-13T07:27:30Z</time>
      </trkpt>
      <trkpt lat="44.82482" lon="6.24025">
        <ele>1196</ele>
        <time>2024-08-13T07:27:31Z</time>
      </trkpt>
      <trkpt lat="44.82482" lon="6.24021">
        <ele>1196</ele>
        <time>2024-08-13T07:27:32Z</time>
      </trkpt>
      <trkpt lat="44.82482" lon="6.24021">
        <ele>1196</ele>
        <time>2024-08-13T07:27:33Z</time>
      </trkpt>
      <trkpt lat="44.82482" lon="6.24017">
        <ele>1196</ele>
        <time>2024-08-13T07:27:34Z</time>
      </trkpt>
      <trkpt lat="44.82482" lon="6.24017">
        <ele>1196</ele>
        <time>2024-08-13T07:27:35Z</time>
      </trkpt>
      <trkpt lat="44.82482" lon="6.24014">
        <ele>1196</ele>
        <time>2024-08-13T07:27:36Z</time>
      </trkpt>
      <trkpt lat="44.82482" lon="6.24014">
        <ele>1196</ele>
        <time>2024-08-13T07:27:37Z</time>
      </trkpt>
      <trkpt lat="44.82483" lon="6.24011">
        <ele>1196</ele>
        <time>2024-08-13T07:27:38Z</time>
      </trkpt>
      <trkpt lat="44.82483" lon="6.24011">
        <ele>1195.8</ele>
        <time>2024-08-13T07:27:39Z</time>
      </trkpt>
      <trkpt lat="44.82483" lon="6.24007">
        <ele>1195.6</ele>
        <time>2024-08-13T07:27:40Z</time>
      </trkpt>
      <trkpt lat="44.82483" lon="6.24007">
        <ele>1195.6</ele>
        <time>2024-08-13T07:27:41Z</time>
      </trkpt>
      <trkpt lat="44.82482" lon="6.24003">
        <ele>1195.6</ele>
        <time>2024-08-13T07:27:42Z</time>
      </trkpt>
      <trkpt lat="44.82482" lon="6.24003">
        <ele>1195.6</ele>
        <time>2024-08-13T07:27:43Z</time>
      </trkpt>
      <trkpt lat="44.82482" lon="6.23999">
        <ele>1195.4</ele>
        <time>2024-08-13T07:27:44Z</time>
      </trkpt>
      <trkpt lat="44.82482" lon="6.23999">
        <ele>1195.4</ele>
        <time>2024-08-13T07:27:45Z</time>
      </trkpt>
      <trkpt lat="44.82482" lon="6.23995">
        <ele>1195.2</ele>
        <time>2024-08-13T07:27:46Z</time>
      </trkpt>
      <trkpt lat="44.82482" lon="6.23995">
        <ele>1195.2</ele>
        <time>2024-08-13T07:27:47Z</time>
      </trkpt>
      <trkpt lat="44.82481" lon="6.23992">
        <ele>1195</ele>
        <time>2024-08-13T07:27:48Z</time>
      </trkpt>
      <trkpt lat="44.82481" lon="6.23992">
        <ele>1195</ele>
        <time>2024-08-13T07:27:49Z</time>
      </trkpt>
      <trkpt lat="44.8248" lon="6.23989">
        <ele>1195</ele>
        <time>2024-08-13T07:27:50Z</time>
      </trkpt>
      <trkpt lat="44.8248" lon="6.23989">
        <ele>1195</ele>
        <time>2024-08-13T07:27:51Z</time>
      </trkpt>
      <trkpt lat="44.82479" lon="6.23985">
        <ele>1194.8</ele>
        <time>2024-08-13T07:27:52Z</time>
      </trkpt>
      <trkpt lat="44.82479" lon="6.23985">
        <ele>1194.6</ele>
        <time>2024-08-13T07:27:53Z</time>
      </trkpt>
      <trkpt lat="44.82478" lon="6.23981">
        <ele>1194.6</ele>
        <time>2024-08-13T07:27:54Z</time>
      </trkpt>
      <trkpt lat="44.82478" lon="6.23981">
        <ele>1194.6</ele>
        <time>2024-08-13T07:27:55Z</time>
      </trkpt>
      <trkpt lat="44.82477" lon="6.23978">
        <ele>1194.4</ele>
        <time>2024-08-13T07:27:56Z</time>
      </trkpt>
      <trkpt lat="44.82477" lon="6.23978">
        <ele>1194.2</ele>
        <time>2024-08-13T07:27:57Z</time>
      </trkpt>
      <trkpt lat="44.82477" lon="6.23975">
        <ele>1194.2</ele>
        <time>2024-08-13T07:27:58Z</time>
      </trkpt>
      <trkpt lat="44.82477" lon="6.23975">
        <ele>1194</ele>
        <time>2024-08-13T07:27:59Z</time>
      </trkpt>
      <trkpt lat="44.82477" lon="6.23971">
        <ele>1194</ele>
        <time>2024-08-13T07:28:00Z</time>
      </trkpt>
      <trkpt lat="44.82477" lon="6.23971">
        <ele>1194</ele>
        <time>2024-08-13T07:28:01Z</time>
      </trkpt>
      <trkpt lat="44.82477" lon="6.23968">
        <ele>1193.8</ele>
        <time>2024-08-13T07:28:02Z</time>
      </trkpt>
      <trkpt lat="44.82477" lon="6.23968">
        <ele>1193.8</ele>
        <time>2024-08-13T07:28:03Z</time>
      </trkpt>
      <trkpt lat="44.82477" lon="6.23964">
        <ele>1193.8</ele>
        <time>2024-08-13T07:28:04Z</time>
      </trkpt>
      <trkpt lat="44.82477" lon="6.23964">
        <ele>1193.6</ele>
        <time>2024-08-13T07:28:05Z</time>
      </trkpt>
      <trkpt lat="44.82478" lon="6.23961">
        <ele>1193.6</ele>
        <time>2024-08-13T07:28:06Z</time>
      </trkpt>
      <trkpt lat="44.82478" lon="6.23961">
        <ele>1193.6</ele>
        <time>2024-08-13T07:28:07Z</time>
      </trkpt>
      <trkpt lat="44.82478" lon="6.23957">
        <ele>1193.6</ele>
        <time>2024-08-13T07:28:08Z</time>
      </trkpt>
      <trkpt lat="44.82478" lon="6.23957">
        <ele>1193.6</ele>
        <time>2024-08-13T07:28:09Z</time>
      </trkpt>
      <trkpt lat="44.82478" lon="6.23954">
        <ele>1193.6</ele>
        <time>2024-08-13T07:28:10Z</time>
      </trkpt>
      <trkpt lat="44.82478" lon="6.23954">
        <ele>1193.6</ele>
        <time>2024-08-13T07:28:11Z</time>
      </trkpt>
      <trkpt lat="44.82478" lon="6.23951">
        <ele>1193.6</ele>
        <time>2024-08-13T07:28:12Z</time>
      </trkpt>
      <trkpt lat="44.82478" lon="6.23951">
        <ele>1193.6</ele>
        <time>2024-08-13T07:28:13Z</time>
      </trkpt>
      <trkpt lat="44.82477" lon="6.23947">
        <ele>1193.6</ele>
        <time>2024-08-13T07:28:14Z</time>
      </trkpt>
      <trkpt lat="44.82477" lon="6.23947">
        <ele>1193.8</ele>
        <time>2024-08-13T07:28:15Z</time>
      </trkpt>
      <trkpt lat="44.82477" lon="6.23944">
        <ele>1193.8</ele>
        <time>2024-08-13T07:28:16Z</time>
      </trkpt>
      <trkpt lat="44.82477" lon="6.23944">
        <ele>1193.8</ele>
        <time>2024-08-13T07:28:17Z</time>
      </trkpt>
      <trkpt lat="44.82477" lon="6.2394">
        <ele>1193.8</ele>
        <time>2024-08-13T07:28:18Z</time>
      </trkpt>
      <trkpt lat="44.82475" lon="6.23938">
        <ele>1193.8</ele>
        <time>2024-08-13T07:28:19Z</time>
      </trkpt>
      <trkpt lat="44.82475" lon="6.23938">
        <ele>1193.8</ele>
        <time>2024-08-13T07:28:20Z</time>
      </trkpt>
      <trkpt lat="44.82475" lon="6.23935">
        <ele>1193.8</ele>
        <time>2024-08-13T07:28:21Z</time>
      </trkpt>
      <trkpt lat="44.82475" lon="6.23935">
        <ele>1193.6</ele>
        <time>2024-08-13T07:28:22Z</time>
      </trkpt>
      <trkpt lat="44.82475" lon="6.23932">
        <ele>1193.6</ele>
        <time>2024-08-13T07:28:23Z</time>
      </trkpt>
      <trkpt lat="44.82475" lon="6.23932">
        <ele>1193.8</ele>
        <time>2024-08-13T07:28:24Z</time>
      </trkpt>
      <trkpt lat="44.82475" lon="6.23929">
        <ele>1193.8</ele>
        <time>2024-08-13T07:28:25Z</time>
      </trkpt>
      <trkpt lat="44.82475" lon="6.23929">
        <ele>1193.8</ele>
        <time>2024-08-13T07:28:26Z</time>
      </trkpt>
      <trkpt lat="44.82474" lon="6.23925">
        <ele>1193.8</ele>
        <time>2024-08-13T07:28:27Z</time>
      </trkpt>
      <trkpt lat="44.82474" lon="6.23925">
        <ele>1193.6</ele>
        <time>2024-08-13T07:28:28Z</time>
      </trkpt>
      <trkpt lat="44.82473" lon="6.23922">
        <ele>1193.6</ele>
        <time>2024-08-13T07:28:29Z</time>
      </trkpt>
      <trkpt lat="44.82473" lon="6.23922">
        <ele>1193.8</ele>
        <time>2024-08-13T07:28:30Z</time>
      </trkpt>
      <trkpt lat="44.82474" lon="6.23918">
        <ele>1193.8</ele>
        <time>2024-08-13T07:28:31Z</time>
      </trkpt>
      <trkpt lat="44.82474" lon="6.23918">
        <ele>1193.8</ele>
        <time>2024-08-13T07:28:32Z</time>
      </trkpt>
      <trkpt lat="44.82475" lon="6.23915">
        <ele>1193.8</ele>
        <time>2024-08-13T07:28:33Z</time>
      </trkpt>
      <trkpt lat="44.82475" lon="6.23915">
        <ele>1193.8</ele>
        <time>2024-08-13T07:28:34Z</time>
      </trkpt>
      <trkpt lat="44.82475" lon="6.23912">
        <ele>1193.8</ele>
        <time>2024-08-13T07:28:35Z</time>
      </trkpt>
      <trkpt lat="44.82475" lon="6.23912">
        <ele>1194</ele>
        <time>2024-08-13T07:28:36Z</time>
      </trkpt>
      <trkpt lat="44.82475" lon="6.23909">
        <ele>1194</ele>
        <time>2024-08-13T07:28:37Z</time>
      </trkpt>
      <trkpt lat="44.82475" lon="6.23909">
        <ele>1193.8</ele>
        <time>2024-08-13T07:28:38Z</time>
      </trkpt>
      <trkpt lat="44.82475" lon="6.23906">
        <ele>1193.8</ele>
        <time>2024-08-13T07:28:39Z</time>
      </trkpt>
      <trkpt lat="44.82475" lon="6.23906">
        <ele>1193.6</ele>
        <time>2024-08-13T07:28:40Z</time>
      </trkpt>
      <trkpt lat="44.82475" lon="6.23902">
        <ele>1193.6</ele>
        <time>2024-08-13T07:28:41Z</time>
      </trkpt>
      <trkpt lat="44.82475" lon="6.23902">
        <ele>1193.6</ele>
        <time>2024-08-13T07:28:42Z</time>
      </trkpt>
      <trkpt lat="44.82475" lon="6.23898">
        <ele>1193.6</ele>
        <time>2024-08-13T07:28:43Z</time>
      </trkpt>
      <trkpt lat="44.82475" lon="6.23898">
        <ele>1193.2</ele>
        <time>2024-08-13T07:28:44Z</time>
      </trkpt>
      <trkpt lat="44.82476" lon="6.23894">
        <ele>1193.2</ele>
        <time>2024-08-13T07:28:45Z</time>
      </trkpt>
      <trkpt lat="44.82476" lon="6.23894">
        <ele>1193.4</ele>
        <time>2024-08-13T07:28:46Z</time>
      </trkpt>
      <trkpt lat="44.82477" lon="6.23891">
        <ele>1193.4</ele>
        <time>2024-08-13T07:28:47Z</time>
      </trkpt>
      <trkpt lat="44.82477" lon="6.23891">
        <ele>1193.2</ele>
        <time>2024-08-13T07:28:48Z</time>
      </trkpt>
      <trkpt lat="44.82477" lon="6.23888">
        <ele>1193.2</ele>
        <time>2024-08-13T07:28:49Z</time>
      </trkpt>
      <trkpt lat="44.82477" lon="6.23888">
        <ele>1193.2</ele>
        <time>2024-08-13T07:28:50Z</time>
      </trkpt>
      <trkpt lat="44.82477" lon="6.23884">
        <ele>1193.2</ele>
        <time>2024-08-13T07:28:51Z</time>
      </trkpt>
      <trkpt lat="44.82477" lon="6.23884">
        <ele>1193</ele>
        <time>2024-08-13T07:28:52Z</time>
      </trkpt>
      <trkpt lat="44.82477" lon="6.23881">
        <ele>1193</ele>
        <time>2024-08-13T07:28:53Z</time>
      </trkpt>
      <trkpt lat="44.82477" lon="6.23881">
        <ele>1192.8</ele>
        <time>2024-08-13T07:28:54Z</time>
      </trkpt>
      <trkpt lat="44.82478" lon="6.23877">
        <ele>1192.8</ele>
        <time>2024-08-13T07:28:55Z</time>
      </trkpt>
      <trkpt lat="44.82478" lon="6.23877">
        <ele>1192.8</ele>
        <time>2024-08-13T07:28:56Z</time>
      </trkpt>
      <trkpt lat="44.82478" lon="6.23873">
        <ele>1192.6</ele>
        <time>2024-08-13T07:28:57Z</time>
      </trkpt>
      <trkpt lat="44.82478" lon="6.23873">
        <ele>1192.6</ele>
        <time>2024-08-13T07:28:58Z</time>
      </trkpt>
      <trkpt lat="44.82479" lon="6.2387">
        <ele>1192.4</ele>
        <time>2024-08-13T07:28:59Z</time>
      </trkpt>
      <trkpt lat="44.82479" lon="6.2387">
        <ele>1192.4</ele>
        <time>2024-08-13T07:29:00Z</time>
      </trkpt>
      <trkpt lat="44.82479" lon="6.23866">
        <ele>1192.2</ele>
        <time>2024-08-13T07:29:01Z</time>
      </trkpt>
      <trkpt lat="44.82479" lon="6.23866">
        <ele>1192.2</ele>
        <time>2024-08-13T07:29:02Z</time>
      </trkpt>
      <trkpt lat="44.82479" lon="6.23862">
        <ele>1192.2</ele>
        <time>2024-08-13T07:29:03Z</time>
      </trkpt>
      <trkpt lat="44.82479" lon="6.23862">
        <ele>1192.2</ele>
        <time>2024-08-13T07:29:04Z</time>
      </trkpt>
      <trkpt lat="44.82478" lon="6.23859">
        <ele>1191.8</ele>
        <time>2024-08-13T07:29:05Z</time>
      </trkpt>
      <trkpt lat="44.82478" lon="6.23859">
        <ele>1191.8</ele>
        <time>2024-08-13T07:29:06Z</time>
      </trkpt>
      <trkpt lat="44.82478" lon="6.23856">
        <ele>1191.8</ele>
        <time>2024-08-13T07:29:07Z</time>
      </trkpt>
      <trkpt lat="44.82478" lon="6.23856">
        <ele>1191.8</ele>
        <time>2024-08-13T07:29:08Z</time>
      </trkpt>
      <trkpt lat="44.82478" lon="6.23852">
        <ele>1191.8</ele>
        <time>2024-08-13T07:29:09Z</time>
      </trkpt>
      <trkpt lat="44.82478" lon="6.23852">
        <ele>1191.6</ele>
        <time>2024-08-13T07:29:10Z</time>
      </trkpt>
      <trkpt lat="44.82479" lon="6.23849">
        <ele>1191.6</ele>
        <time>2024-08-13T07:29:11Z</time>
      </trkpt>
      <trkpt lat="44.82479" lon="6.23849">
        <ele>1191.6</ele>
        <time>2024-08-13T07:29:12Z</time>
      </trkpt>
      <trkpt lat="44.82478" lon="6.23845">
        <ele>1191.4</ele>
        <time>2024-08-13T07:29:13Z</time>
      </trkpt>
      <trkpt lat="44.82478" lon="6.23845">
        <ele>1191.4</ele>
        <time>2024-08-13T07:29:14Z</time>
      </trkpt>
      <trkpt lat="44.8248" lon="6.23842">
        <ele>1191.4</ele>
        <time>2024-08-13T07:29:15Z</time>
      </trkpt>
      <trkpt lat="44.82478" lon="6.23839">
        <ele>1191.4</ele>
        <time>2024-08-13T07:29:16Z</time>
      </trkpt>
      <trkpt lat="44.82478" lon="6.23839">
        <ele>1191.4</ele>
        <time>2024-08-13T07:29:17Z</time>
      </trkpt>
      <trkpt lat="44.82477" lon="6.23836">
        <ele>1191.4</ele>
        <time>2024-08-13T07:29:18Z</time>
      </trkpt>
      <trkpt lat="44.82477" lon="6.23836">
        <ele>1191.4</ele>
        <time>2024-08-13T07:29:19Z</time>
      </trkpt>
      <trkpt lat="44.82476" lon="6.23833">
        <ele>1191.4</ele>
        <time>2024-08-13T07:29:20Z</time>
      </trkpt>
      <trkpt lat="44.82476" lon="6.23833">
        <ele>1191.2</ele>
        <time>2024-08-13T07:29:21Z</time>
      </trkpt>
      <trkpt lat="44.82476" lon="6.23829">
        <ele>1191.2</ele>
        <time>2024-08-13T07:29:22Z</time>
      </trkpt>
      <trkpt lat="44.82476" lon="6.23829">
        <ele>1191.2</ele>
        <time>2024-08-13T07:29:23Z</time>
      </trkpt>
      <trkpt lat="44.82477" lon="6.23826">
        <ele>1191</ele>
        <time>2024-08-13T07:29:24Z</time>
      </trkpt>
      <trkpt lat="44.82477" lon="6.23826">
        <ele>1191</ele>
        <time>2024-08-13T07:29:25Z</time>
      </trkpt>
      <trkpt lat="44.82477" lon="6.23821">
        <ele>1190.8</ele>
        <time>2024-08-13T07:29:26Z</time>
      </trkpt>
      <trkpt lat="44.82477" lon="6.23821">
        <ele>1190.8</ele>
        <time>2024-08-13T07:29:27Z</time>
      </trkpt>
      <trkpt lat="44.82477" lon="6.23817">
        <ele>1190.8</ele>
        <time>2024-08-13T07:29:28Z</time>
      </trkpt>
      <trkpt lat="44.82477" lon="6.23817">
        <ele>1190.8</ele>
        <time>2024-08-13T07:29:29Z</time>
      </trkpt>
      <trkpt lat="44.82477" lon="6.23813">
        <ele>1190.8</ele>
        <time>2024-08-13T07:29:30Z</time>
      </trkpt>
      <trkpt lat="44.82477" lon="6.23813">
        <ele>1190.6</ele>
        <time>2024-08-13T07:29:31Z</time>
      </trkpt>
      <trkpt lat="44.82479" lon="6.23809">
        <ele>1190.4</ele>
        <time>2024-08-13T07:29:32Z</time>
      </trkpt>
      <trkpt lat="44.82479" lon="6.23809">
        <ele>1190.2</ele>
        <time>2024-08-13T07:29:33Z</time>
      </trkpt>
      <trkpt lat="44.82479" lon="6.23805">
        <ele>1190.2</ele>
        <time>2024-08-13T07:29:34Z</time>
      </trkpt>
      <trkpt lat="44.82479" lon="6.23805">
        <ele>1190.2</ele>
        <time>2024-08-13T07:29:35Z</time>
      </trkpt>
      <trkpt lat="44.8248" lon="6.23801">
        <ele>1190.2</ele>
        <time>2024-08-13T07:29:36Z</time>
      </trkpt>
      <trkpt lat="44.8248" lon="6.23801">
        <ele>1190</ele>
        <time>2024-08-13T07:29:37Z</time>
      </trkpt>
      <trkpt lat="44.8248" lon="6.23797">
        <ele>1190</ele>
        <time>2024-08-13T07:29:38Z</time>
      </trkpt>
      <trkpt lat="44.8248" lon="6.23797">
        <ele>1190</ele>
        <time>2024-08-13T07:29:39Z</time>
      </trkpt>
      <trkpt lat="44.82481" lon="6.23793">
        <ele>1190</ele>
        <time>2024-08-13T07:29:40Z</time>
      </trkpt>
      <trkpt lat="44.82481" lon="6.23793">
        <ele>1189.8</ele>
        <time>2024-08-13T07:29:41Z</time>
      </trkpt>
      <trkpt lat="44.82482" lon="6.23789">
        <ele>1189.6</ele>
        <time>2024-08-13T07:29:42Z</time>
      </trkpt>
      <trkpt lat="44.82482" lon="6.23789">
        <ele>1189.6</ele>
        <time>2024-08-13T07:29:43Z</time>
      </trkpt>
      <trkpt lat="44.82482" lon="6.23785">
        <ele>1189.6</ele>
        <time>2024-08-13T07:29:44Z</time>
      </trkpt>
      <trkpt lat="44.82483" lon="6.23782">
        <ele>1189.6</ele>
        <time>2024-08-13T07:29:45Z</time>
      </trkpt>
      <trkpt lat="44.82483" lon="6.23782">
        <ele>1189.6</ele>
        <time>2024-08-13T07:29:46Z</time>
      </trkpt>
      <trkpt lat="44.82483" lon="6.23777">
        <ele>1189.2</ele>
        <time>2024-08-13T07:29:47Z</time>
      </trkpt>
      <trkpt lat="44.82483" lon="6.23777">
        <ele>1189</ele>
        <time>2024-08-13T07:29:48Z</time>
      </trkpt>
      <trkpt lat="44.82483" lon="6.23774">
        <ele>1189</ele>
        <time>2024-08-13T07:29:49Z</time>
      </trkpt>
      <trkpt lat="44.82483" lon="6.23774">
        <ele>1189</ele>
        <time>2024-08-13T07:29:50Z</time>
      </trkpt>
      <trkpt lat="44.82483" lon="6.23769">
        <ele>1189</ele>
        <time>2024-08-13T07:29:51Z</time>
      </trkpt>
      <trkpt lat="44.82483" lon="6.23769">
        <ele>1189.2</ele>
        <time>2024-08-13T07:29:52Z</time>
      </trkpt>
      <trkpt lat="44.82484" lon="6.23765">
        <ele>1189.2</ele>
        <time>2024-08-13T07:29:53Z</time>
      </trkpt>
      <trkpt lat="44.82484" lon="6.23765">
        <ele>1189</ele>
        <time>2024-08-13T07:29:54Z</time>
      </trkpt>
      <trkpt lat="44.82485" lon="6.23761">
        <ele>1188.8</ele>
        <time>2024-08-13T07:29:55Z</time>
      </trkpt>
      <trkpt lat="44.82485" lon="6.23761">
        <ele>1188.8</ele>
        <time>2024-08-13T07:29:56Z</time>
      </trkpt>
      <trkpt lat="44.82487" lon="6.23757">
        <ele>1188.4</ele>
        <time>2024-08-13T07:29:57Z</time>
      </trkpt>
      <trkpt lat="44.82487" lon="6.23757">
        <ele>1188.2</ele>
        <time>2024-08-13T07:29:58Z</time>
      </trkpt>
      <trkpt lat="44.82487" lon="6.23754">
        <ele>1188</ele>
        <time>2024-08-13T07:29:59Z</time>
      </trkpt>
      <trkpt lat="44.82487" lon="6.23754">
        <ele>1188</ele>
        <time>2024-08-13T07:30:00Z</time>
      </trkpt>
      <trkpt lat="44.82487" lon="6.23749">
        <ele>1188</ele>
        <time>2024-08-13T07:30:01Z</time>
      </trkpt>
      <trkpt lat="44.82487" lon="6.23749">
        <ele>1187.8</ele>
        <time>2024-08-13T07:30:02Z</time>
      </trkpt>
      <trkpt lat="44.82487" lon="6.23746">
        <ele>1187.8</ele>
        <time>2024-08-13T07:30:03Z</time>
      </trkpt>
      <trkpt lat="44.82487" lon="6.23746">
        <ele>1187.8</ele>
        <time>2024-08-13T07:30:04Z</time>
      </trkpt>
      <trkpt lat="44.82489" lon="6.23743">
        <ele>1188</ele>
        <time>2024-08-13T07:30:05Z</time>
      </trkpt>
      <trkpt lat="44.82489" lon="6.23743">
        <ele>1188</ele>
        <time>2024-08-13T07:30:06Z</time>
      </trkpt>
      <trkpt lat="44.82489" lon="6.2374">
        <ele>1188</ele>
        <time>2024-08-13T07:30:07Z</time>
      </trkpt>
      <trkpt lat="44.82489" lon="6.2374">
        <ele>1187.8</ele>
        <time>2024-08-13T07:30:08Z</time>
      </trkpt>
      <trkpt lat="44.82489" lon="6.23735">
        <ele>1187.6</ele>
        <time>2024-08-13T07:30:09Z</time>
      </trkpt>
      <trkpt lat="44.82489" lon="6.23735">
        <ele>1187.6</ele>
        <time>2024-08-13T07:30:10Z</time>
      </trkpt>
      <trkpt lat="44.82489" lon="6.23731">
        <ele>1187.2</ele>
        <time>2024-08-13T07:30:11Z</time>
      </trkpt>
      <trkpt lat="44.82489" lon="6.23731">
        <ele>1187.2</ele>
        <time>2024-08-13T07:30:12Z</time>
      </trkpt>
      <trkpt lat="44.82488" lon="6.23727">
        <ele>1187.4</ele>
        <time>2024-08-13T07:30:13Z</time>
      </trkpt>
      <trkpt lat="44.82488" lon="6.23727">
        <ele>1187.4</ele>
        <time>2024-08-13T07:30:14Z</time>
      </trkpt>
      <trkpt lat="44.82488" lon="6.23723">
        <ele>1187.2</ele>
        <time>2024-08-13T07:30:15Z</time>
      </trkpt>
      <trkpt lat="44.82488" lon="6.23723">
        <ele>1187.2</ele>
        <time>2024-08-13T07:30:16Z</time>
      </trkpt>
      <trkpt lat="44.82487" lon="6.2372">
        <ele>1187.2</ele>
        <time>2024-08-13T07:30:17Z</time>
      </trkpt>
      <trkpt lat="44.82487" lon="6.2372">
        <ele>1187.2</ele>
        <time>2024-08-13T07:30:18Z</time>
      </trkpt>
      <trkpt lat="44.82487" lon="6.23716">
        <ele>1187.2</ele>
        <time>2024-08-13T07:30:19Z</time>
      </trkpt>
      <trkpt lat="44.82487" lon="6.23716">
        <ele>1187.4</ele>
        <time>2024-08-13T07:30:20Z</time>
      </trkpt>
      <trkpt lat="44.82487" lon="6.23712">
        <ele>1187.4</ele>
        <time>2024-08-13T07:30:21Z</time>
      </trkpt>
      <trkpt lat="44.82487" lon="6.23712">
        <ele>1187.4</ele>
        <time>2024-08-13T07:30:22Z</time>
      </trkpt>
      <trkpt lat="44.82487" lon="6.23708">
        <ele>1187.8</ele>
        <time>2024-08-13T07:30:23Z</time>
      </trkpt>
      <trkpt lat="44.82487" lon="6.23708">
        <ele>1187.8</ele>
        <time>2024-08-13T07:30:24Z</time>
      </trkpt>
      <trkpt lat="44.82487" lon="6.23704">
        <ele>1188</ele>
        <time>2024-08-13T07:30:25Z</time>
      </trkpt>
      <trkpt lat="44.82487" lon="6.23704">
        <ele>1188.2</ele>
        <time>2024-08-13T07:30:26Z</time>
      </trkpt>
      <trkpt lat="44.82487" lon="6.237">
        <ele>1188.2</ele>
        <time>2024-08-13T07:30:27Z</time>
      </trkpt>
      <trkpt lat="44.82487" lon="6.237">
        <ele>1188.2</ele>
        <time>2024-08-13T07:30:28Z</time>
      </trkpt>
      <trkpt lat="44.82487" lon="6.23696">
        <ele>1188.2</ele>
        <time>2024-08-13T07:30:29Z</time>
      </trkpt>
      <trkpt lat="44.82487" lon="6.23696">
        <ele>1188.2</ele>
        <time>2024-08-13T07:30:30Z</time>
      </trkpt>
      <trkpt lat="44.82486" lon="6.23691">
        <ele>1188.2</ele>
        <time>2024-08-13T07:30:31Z</time>
      </trkpt>
      <trkpt lat="44.82486" lon="6.23688">
        <ele>1188</ele>
        <time>2024-08-13T07:30:32Z</time>
      </trkpt>
      <trkpt lat="44.82486" lon="6.23688">
        <ele>1188</ele>
        <time>2024-08-13T07:30:33Z</time>
      </trkpt>
      <trkpt lat="44.82486" lon="6.23684">
        <ele>1188</ele>
        <time>2024-08-13T07:30:34Z</time>
      </trkpt>
      <trkpt lat="44.82486" lon="6.23684">
        <ele>1187.8</ele>
        <time>2024-08-13T07:30:35Z</time>
      </trkpt>
      <trkpt lat="44.82486" lon="6.2368">
        <ele>1187.4</ele>
        <time>2024-08-13T07:30:36Z</time>
      </trkpt>
      <trkpt lat="44.82486" lon="6.2368">
        <ele>1187.4</ele>
        <time>2024-08-13T07:30:37Z</time>
      </trkpt>
      <trkpt lat="44.82486" lon="6.23676">
        <ele>1187.4</ele>
        <time>2024-08-13T07:30:38Z</time>
      </trkpt>
      <trkpt lat="44.82486" lon="6.23676">
        <ele>1187.4</ele>
        <time>2024-08-13T07:30:39Z</time>
      </trkpt>
      <trkpt lat="44.82486" lon="6.23672">
        <ele>1187.4</ele>
        <time>2024-08-13T07:30:40Z</time>
      </trkpt>
      <trkpt lat="44.82486" lon="6.23672">
        <ele>1187.4</ele>
        <time>2024-08-13T07:30:41Z</time>
      </trkpt>
      <trkpt lat="44.82486" lon="6.23669">
        <ele>1187.4</ele>
        <time>2024-08-13T07:30:42Z</time>
      </trkpt>
      <trkpt lat="44.82486" lon="6.23669">
        <ele>1187.4</ele>
        <time>2024-08-13T07:30:43Z</time>
      </trkpt>
      <trkpt lat="44.82486" lon="6.23665">
        <ele>1187.4</ele>
        <time>2024-08-13T07:30:44Z</time>
      </trkpt>
      <trkpt lat="44.82486" lon="6.23665">
        <ele>1187.6</ele>
        <time>2024-08-13T07:30:45Z</time>
      </trkpt>
      <trkpt lat="44.82485" lon="6.23662">
        <ele>1187.6</ele>
        <time>2024-08-13T07:30:46Z</time>
      </trkpt>
      <trkpt lat="44.82485" lon="6.23662">
        <ele>1187.8</ele>
        <time>2024-08-13T07:30:47Z</time>
      </trkpt>
      <trkpt lat="44.82485" lon="6.23658">
        <ele>1188.2</ele>
        <time>2024-08-13T07:30:48Z</time>
      </trkpt>
      <trkpt lat="44.82485" lon="6.23658">
        <ele>1188.2</ele>
        <time>2024-08-13T07:30:49Z</time>
      </trkpt>
      <trkpt lat="44.82484" lon="6.23654">
        <ele>1188.2</ele>
        <time>2024-08-13T07:30:50Z</time>
      </trkpt>
      <trkpt lat="44.82484" lon="6.23654">
        <ele>1188.2</ele>
        <time>2024-08-13T07:30:51Z</time>
      </trkpt>
      <trkpt lat="44.82483" lon="6.2365">
        <ele>1188.2</ele>
        <time>2024-08-13T07:30:52Z</time>
      </trkpt>
      <trkpt lat="44.82483" lon="6.2365">
        <ele>1188.2</ele>
        <time>2024-08-13T07:30:53Z</time>
      </trkpt>
      <trkpt lat="44.82483" lon="6.23646">
        <ele>1188</ele>
        <time>2024-08-13T07:30:54Z</time>
      </trkpt>
      <trkpt lat="44.82483" lon="6.23646">
        <ele>1188</ele>
        <time>2024-08-13T07:30:55Z</time>
      </trkpt>
      <trkpt lat="44.82482" lon="6.23642">
        <ele>1188.2</ele>
        <time>2024-08-13T07:30:56Z</time>
      </trkpt>
      <trkpt lat="44.82482" lon="6.23642">
        <ele>1188.4</ele>
        <time>2024-08-13T07:30:57Z</time>
      </trkpt>
      <trkpt lat="44.82482" lon="6.23638">
        <ele>1188.2</ele>
        <time>2024-08-13T07:30:58Z</time>
      </trkpt>
      <trkpt lat="44.82482" lon="6.23638">
        <ele>1188.2</ele>
        <time>2024-08-13T07:30:59Z</time>
      </trkpt>
      <trkpt lat="44.82482" lon="6.23634">
        <ele>1188</ele>
        <time>2024-08-13T07:31:00Z</time>
      </trkpt>
      <trkpt lat="44.82482" lon="6.23634">
        <ele>1188</ele>
        <time>2024-08-13T07:31:01Z</time>
      </trkpt>
      <trkpt lat="44.82483" lon="6.23629">
        <ele>1188</ele>
        <time>2024-08-13T07:31:02Z</time>
      </trkpt>
      <trkpt lat="44.82483" lon="6.23626">
        <ele>1188</ele>
        <time>2024-08-13T07:31:03Z</time>
      </trkpt>
      <trkpt lat="44.82483" lon="6.23626">
        <ele>1187.8</ele>
        <time>2024-08-13T07:31:04Z</time>
      </trkpt>
      <trkpt lat="44.82483" lon="6.23622">
        <ele>1187.4</ele>
        <time>2024-08-13T07:31:05Z</time>
      </trkpt>
      <trkpt lat="44.82483" lon="6.23622">
        <ele>1187.4</ele>
        <time>2024-08-13T07:31:06Z</time>
      </trkpt>
      <trkpt lat="44.82484" lon="6.23618">
        <ele>1187.2</ele>
        <time>2024-08-13T07:31:07Z</time>
      </trkpt>
      <trkpt lat="44.82484" lon="6.23618">
        <ele>1187</ele>
        <time>2024-08-13T07:31:08Z</time>
      </trkpt>
      <trkpt lat="44.82484" lon="6.23618">
        <ele>1186.8</ele>
        <time>2024-08-13T07:31:09Z</time>
      </trkpt>
      <trkpt lat="44.82483" lon="6.23614">
        <ele>1186.8</ele>
        <time>2024-08-13T07:31:10Z</time>
      </trkpt>
      <trkpt lat="44.82483" lon="6.23614">
        <ele>1186.8</ele>
        <time>2024-08-13T07:31:11Z</time>
      </trkpt>
      <trkpt lat="44.82483" lon="6.2361">
        <ele>1186.8</ele>
        <time>2024-08-13T07:31:12Z</time>
      </trkpt>
      <trkpt lat="44.82483" lon="6.2361">
        <ele>1186.8</ele>
        <time>2024-08-13T07:31:13Z</time>
      </trkpt>
      <trkpt lat="44.82483" lon="6.23606">
        <ele>1186.8</ele>
        <time>2024-08-13T07:31:14Z</time>
      </trkpt>
      <trkpt lat="44.82483" lon="6.23606">
        <ele>1186.6</ele>
        <time>2024-08-13T07:31:15Z</time>
      </trkpt>
      <trkpt lat="44.82482" lon="6.23602">
        <ele>1186.6</ele>
        <time>2024-08-13T07:31:16Z</time>
      </trkpt>
      <trkpt lat="44.82482" lon="6.23602">
        <ele>1186.6</ele>
        <time>2024-08-13T07:31:17Z</time>
      </trkpt>
      <trkpt lat="44.82482" lon="6.23597">
        <ele>1186.6</ele>
        <time>2024-08-13T07:31:18Z</time>
      </trkpt>
      <trkpt lat="44.82482" lon="6.23597">
        <ele>1186.4</ele>
        <time>2024-08-13T07:31:19Z</time>
      </trkpt>
      <trkpt lat="44.82483" lon="6.23593">
        <ele>1186.2</ele>
        <time>2024-08-13T07:31:20Z</time>
      </trkpt>
      <trkpt lat="44.82483" lon="6.23593">
        <ele>1186.2</ele>
        <time>2024-08-13T07:31:21Z</time>
      </trkpt>
      <trkpt lat="44.82483" lon="6.23589">
        <ele>1186</ele>
        <time>2024-08-13T07:31:22Z</time>
      </trkpt>
      <trkpt lat="44.82481" lon="6.23587">
        <ele>1186</ele>
        <time>2024-08-13T07:31:23Z</time>
      </trkpt>
      <trkpt lat="44.82481" lon="6.23587">
        <ele>1185.8</ele>
        <time>2024-08-13T07:31:24Z</time>
      </trkpt>
      <trkpt lat="44.82481" lon="6.23583">
        <ele>1185.8</ele>
        <time>2024-08-13T07:31:25Z</time>
      </trkpt>
      <trkpt lat="44.82481" lon="6.23583">
        <ele>1185.6</ele>
        <time>2024-08-13T07:31:26Z</time>
      </trkpt>
      <trkpt lat="44.82479" lon="6.2358">
        <ele>1185.6</ele>
        <time>2024-08-13T07:31:27Z</time>
      </trkpt>
      <trkpt lat="44.82479" lon="6.2358">
        <ele>1185.4</ele>
        <time>2024-08-13T07:31:28Z</time>
      </trkpt>
      <trkpt lat="44.82477" lon="6.23578">
        <ele>1185.4</ele>
        <time>2024-08-13T07:31:29Z</time>
      </trkpt>
      <trkpt lat="44.82477" lon="6.23578">
        <ele>1185.2</ele>
        <time>2024-08-13T07:31:30Z</time>
      </trkpt>
      <trkpt lat="44.82476" lon="6.23576">
        <ele>1185.2</ele>
        <time>2024-08-13T07:31:31Z</time>
      </trkpt>
      <trkpt lat="44.82476" lon="6.23576">
        <ele>1185.2</ele>
        <time>2024-08-13T07:31:32Z</time>
      </trkpt>
      <trkpt lat="44.82475" lon="6.23573">
        <ele>1185</ele>
        <time>2024-08-13T07:31:33Z</time>
      </trkpt>
      <trkpt lat="44.82473" lon="6.23572">
        <ele>1184.8</ele>
        <time>2024-08-13T07:31:34Z</time>
      </trkpt>
      <trkpt lat="44.82473" lon="6.23572">
        <ele>1184.8</ele>
        <time>2024-08-13T07:31:35Z</time>
      </trkpt>
      <trkpt lat="44.82472" lon="6.23569">
        <ele>1184.6</ele>
        <time>2024-08-13T07:31:36Z</time>
      </trkpt>
      <trkpt lat="44.82472" lon="6.23565">
        <ele>1184.4</ele>
        <time>2024-08-13T07:31:37Z</time>
      </trkpt>
      <trkpt lat="44.82472" lon="6.23565">
        <ele>1184.4</ele>
        <time>2024-08-13T07:31:38Z</time>
      </trkpt>
      <trkpt lat="44.82471" lon="6.23559">
        <ele>1184.2</ele>
        <time>2024-08-13T07:31:39Z</time>
      </trkpt>
      <trkpt lat="44.82471" lon="6.23557">
        <ele>1184</ele>
        <time>2024-08-13T07:31:40Z</time>
      </trkpt>
      <trkpt lat="44.82471" lon="6.23554">
        <ele>1184</ele>
        <time>2024-08-13T07:31:41Z</time>
      </trkpt>
      <trkpt lat="44.82471" lon="6.23554">
        <ele>1183.8</ele>
        <time>2024-08-13T07:31:42Z</time>
      </trkpt>
      <trkpt lat="44.82473" lon="6.23551">
        <ele>1183.8</ele>
        <time>2024-08-13T07:31:43Z</time>
      </trkpt>
      <trkpt lat="44.82473" lon="6.23551">
        <ele>1183.4</ele>
        <time>2024-08-13T07:31:44Z</time>
      </trkpt>
      <trkpt lat="44.82472" lon="6.23547">
        <ele>1183.4</ele>
        <time>2024-08-13T07:31:45Z</time>
      </trkpt>
      <trkpt lat="44.82472" lon="6.23547">
        <ele>1183.6</ele>
        <time>2024-08-13T07:31:46Z</time>
      </trkpt>
      <trkpt lat="44.82471" lon="6.23543">
        <ele>1183.6</ele>
        <time>2024-08-13T07:31:47Z</time>
      </trkpt>
      <trkpt lat="44.82471" lon="6.23543">
        <ele>1183.6</ele>
        <time>2024-08-13T07:31:48Z</time>
      </trkpt>
      <trkpt lat="44.8247" lon="6.23539">
        <ele>1183.6</ele>
        <time>2024-08-13T07:31:49Z</time>
      </trkpt>
      <trkpt lat="44.8247" lon="6.23539">
        <ele>1183.6</ele>
        <time>2024-08-13T07:31:50Z</time>
      </trkpt>
      <trkpt lat="44.82469" lon="6.23536">
        <ele>1183.8</ele>
        <time>2024-08-13T07:31:51Z</time>
      </trkpt>
      <trkpt lat="44.82469" lon="6.23536">
        <ele>1183.8</ele>
        <time>2024-08-13T07:31:52Z</time>
      </trkpt>
      <trkpt lat="44.8247" lon="6.23532">
        <ele>1183.6</ele>
        <time>2024-08-13T07:31:53Z</time>
      </trkpt>
      <trkpt lat="44.8247" lon="6.23532">
        <ele>1183.4</ele>
        <time>2024-08-13T07:31:54Z</time>
      </trkpt>
      <trkpt lat="44.82469" lon="6.23528">
        <ele>1183.2</ele>
        <time>2024-08-13T07:31:55Z</time>
      </trkpt>
      <trkpt lat="44.82469" lon="6.23528">
        <ele>1183.2</ele>
        <time>2024-08-13T07:31:56Z</time>
      </trkpt>
      <trkpt lat="44.82469" lon="6.23524">
        <ele>1183.2</ele>
        <time>2024-08-13T07:31:57Z</time>
      </trkpt>
      <trkpt lat="44.8247" lon="6.23521">
        <ele>1182.8</ele>
        <time>2024-08-13T07:31:58Z</time>
      </trkpt>
      <trkpt lat="44.8247" lon="6.23521">
        <ele>1182.8</ele>
        <time>2024-08-13T07:31:59Z</time>
      </trkpt>
      <trkpt lat="44.82472" lon="6.23517">
        <ele>1182.8</ele>
        <time>2024-08-13T07:32:00Z</time>
      </trkpt>
      <trkpt lat="44.82472" lon="6.23517">
        <ele>1182.6</ele>
        <time>2024-08-13T07:32:01Z</time>
      </trkpt>
      <trkpt lat="44.82473" lon="6.23513">
        <ele>1182.6</ele>
        <time>2024-08-13T07:32:02Z</time>
      </trkpt>
      <trkpt lat="44.82475" lon="6.23511">
        <ele>1182.6</ele>
        <time>2024-08-13T07:32:03Z</time>
      </trkpt>
      <trkpt lat="44.82475" lon="6.23511">
        <ele>1182.6</ele>
        <time>2024-08-13T07:32:04Z</time>
      </trkpt>
      <trkpt lat="44.82476" lon="6.23507">
        <ele>1182.6</ele>
        <time>2024-08-13T07:32:05Z</time>
      </trkpt>
      <trkpt lat="44.82476" lon="6.23507">
        <ele>1182.4</ele>
        <time>2024-08-13T07:32:06Z</time>
      </trkpt>
      <trkpt lat="44.82477" lon="6.23503">
        <ele>1182.4</ele>
        <time>2024-08-13T07:32:07Z</time>
      </trkpt>
      <trkpt lat="44.82478" lon="6.23501">
        <ele>1182.4</ele>
        <time>2024-08-13T07:32:08Z</time>
      </trkpt>
      <trkpt lat="44.82478" lon="6.23501">
        <ele>1182.2</ele>
        <time>2024-08-13T07:32:09Z</time>
      </trkpt>
      <trkpt lat="44.82478" lon="6.23497">
        <ele>1182.2</ele>
        <time>2024-08-13T07:32:10Z</time>
      </trkpt>
      <trkpt lat="44.82478" lon="6.23497">
        <ele>1182.2</ele>
        <time>2024-08-13T07:32:11Z</time>
      </trkpt>
      <trkpt lat="44.82479" lon="6.23493">
        <ele>1182.2</ele>
        <time>2024-08-13T07:32:12Z</time>
      </trkpt>
      <trkpt lat="44.82479" lon="6.23493">
        <ele>1182.2</ele>
        <time>2024-08-13T07:32:13Z</time>
      </trkpt>
      <trkpt lat="44.82481" lon="6.23489">
        <ele>1182.2</ele>
        <time>2024-08-13T07:32:14Z</time>
      </trkpt>
      <trkpt lat="44.82481" lon="6.23489">
        <ele>1182.2</ele>
        <time>2024-08-13T07:32:15Z</time>
      </trkpt>
      <trkpt lat="44.82483" lon="6.23485">
        <ele>1182.2</ele>
        <time>2024-08-13T07:32:16Z</time>
      </trkpt>
      <trkpt lat="44.82483" lon="6.23485">
        <ele>1182.2</ele>
        <time>2024-08-13T07:32:17Z</time>
      </trkpt>
      <trkpt lat="44.82483" lon="6.23482">
        <ele>1182.2</ele>
        <time>2024-08-13T07:32:18Z</time>
      </trkpt>
      <trkpt lat="44.82483" lon="6.23482">
        <ele>1182</ele>
        <time>2024-08-13T07:32:19Z</time>
      </trkpt>
      <trkpt lat="44.82485" lon="6.23478">
        <ele>1182</ele>
        <time>2024-08-13T07:32:20Z</time>
      </trkpt>
      <trkpt lat="44.82485" lon="6.23478">
        <ele>1182</ele>
        <time>2024-08-13T07:32:21Z</time>
      </trkpt>
      <trkpt lat="44.82485" lon="6.23474">
        <ele>1182</ele>
        <time>2024-08-13T07:32:22Z</time>
      </trkpt>
      <trkpt lat="44.82485" lon="6.23474">
        <ele>1181.8</ele>
        <time>2024-08-13T07:32:23Z</time>
      </trkpt>
      <trkpt lat="44.82485" lon="6.2347">
        <ele>1181.8</ele>
        <time>2024-08-13T07:32:24Z</time>
      </trkpt>
      <trkpt lat="44.82485" lon="6.2347">
        <ele>1181.8</ele>
        <time>2024-08-13T07:32:25Z</time>
      </trkpt>
      <trkpt lat="44.82485" lon="6.23466">
        <ele>1181.6</ele>
        <time>2024-08-13T07:32:26Z</time>
      </trkpt>
      <trkpt lat="44.82485" lon="6.23466">
        <ele>1181.6</ele>
        <time>2024-08-13T07:32:27Z</time>
      </trkpt>
      <trkpt lat="44.82485" lon="6.23462">
        <ele>1181.4</ele>
        <time>2024-08-13T07:32:28Z</time>
      </trkpt>
      <trkpt lat="44.82485" lon="6.23462">
        <ele>1181.4</ele>
        <time>2024-08-13T07:32:29Z</time>
      </trkpt>
      <trkpt lat="44.82485" lon="6.23458">
        <ele>1181.4</ele>
        <time>2024-08-13T07:32:30Z</time>
      </trkpt>
      <trkpt lat="44.82485" lon="6.23458">
        <ele>1181.4</ele>
        <time>2024-08-13T07:32:31Z</time>
      </trkpt>
      <trkpt lat="44.82482" lon="6.23455">
        <ele>1181</ele>
        <time>2024-08-13T07:32:32Z</time>
      </trkpt>
      <trkpt lat="44.82482" lon="6.23455">
        <ele>1181</ele>
        <time>2024-08-13T07:32:33Z</time>
      </trkpt>
      <trkpt lat="44.82483" lon="6.23451">
        <ele>1181.2</ele>
        <time>2024-08-13T07:32:34Z</time>
      </trkpt>
      <trkpt lat="44.82483" lon="6.23451">
        <ele>1181.2</ele>
        <time>2024-08-13T07:32:35Z</time>
      </trkpt>
      <trkpt lat="44.82483" lon="6.23446">
        <ele>1181</ele>
        <time>2024-08-13T07:32:36Z</time>
      </trkpt>
      <trkpt lat="44.82483" lon="6.23446">
        <ele>1180.8</ele>
        <time>2024-08-13T07:32:37Z</time>
      </trkpt>
      <trkpt lat="44.82483" lon="6.23442">
        <ele>1180.8</ele>
        <time>2024-08-13T07:32:38Z</time>
      </trkpt>
      <trkpt lat="44.82483" lon="6.23442">
        <ele>1180.8</ele>
        <time>2024-08-13T07:32:39Z</time>
      </trkpt>
      <trkpt lat="44.82483" lon="6.23438">
        <ele>1180.8</ele>
        <time>2024-08-13T07:32:40Z</time>
      </trkpt>
      <trkpt lat="44.82483" lon="6.23438">
        <ele>1180.8</ele>
        <time>2024-08-13T07:32:41Z</time>
      </trkpt>
      <trkpt lat="44.82482" lon="6.23433">
        <ele>1180.8</ele>
        <time>2024-08-13T07:32:42Z</time>
      </trkpt>
      <trkpt lat="44.82481" lon="6.23431">
        <ele>1180.8</ele>
        <time>2024-08-13T07:32:43Z</time>
      </trkpt>
      <trkpt lat="44.82481" lon="6.23431">
        <ele>1180.8</ele>
        <time>2024-08-13T07:32:44Z</time>
      </trkpt>
      <trkpt lat="44.82481" lon="6.23426">
        <ele>1180.8</ele>
        <time>2024-08-13T07:32:45Z</time>
      </trkpt>
      <trkpt lat="44.82481" lon="6.23426">
        <ele>1180.4</ele>
        <time>2024-08-13T07:32:46Z</time>
      </trkpt>
      <trkpt lat="44.8248" lon="6.23423">
        <ele>1180.4</ele>
        <time>2024-08-13T07:32:47Z</time>
      </trkpt>
      <trkpt lat="44.8248" lon="6.23423">
        <ele>1180.4</ele>
        <time>2024-08-13T07:32:48Z</time>
      </trkpt>
      <trkpt lat="44.82479" lon="6.23419">
        <ele>1180.6</ele>
        <time>2024-08-13T07:32:49Z</time>
      </trkpt>
      <trkpt lat="44.82479" lon="6.23419">
        <ele>1180.6</ele>
        <time>2024-08-13T07:32:50Z</time>
      </trkpt>
      <trkpt lat="44.8248" lon="6.23415">
        <ele>1180.6</ele>
        <time>2024-08-13T07:32:51Z</time>
      </trkpt>
      <trkpt lat="44.8248" lon="6.23415">
        <ele>1180.6</ele>
        <time>2024-08-13T07:32:52Z</time>
      </trkpt>
      <trkpt lat="44.82481" lon="6.2341">
        <ele>1180.6</ele>
        <time>2024-08-13T07:32:53Z</time>
      </trkpt>
      <trkpt lat="44.82481" lon="6.2341">
        <ele>1180.6</ele>
        <time>2024-08-13T07:32:54Z</time>
      </trkpt>
      <trkpt lat="44.8248" lon="6.23406">
        <ele>1180.6</ele>
        <time>2024-08-13T07:32:55Z</time>
      </trkpt>
      <trkpt lat="44.8248" lon="6.23406">
        <ele>1180.6</ele>
        <time>2024-08-13T07:32:56Z</time>
      </trkpt>
      <trkpt lat="44.82481" lon="6.23402">
        <ele>1180.6</ele>
        <time>2024-08-13T07:32:57Z</time>
      </trkpt>
      <trkpt lat="44.82481" lon="6.23402">
        <ele>1180.6</ele>
        <time>2024-08-13T07:32:58Z</time>
      </trkpt>
      <trkpt lat="44.82482" lon="6.23398">
        <ele>1180.6</ele>
        <time>2024-08-13T07:32:59Z</time>
      </trkpt>
      <trkpt lat="44.82482" lon="6.23398">
        <ele>1180.6</ele>
        <time>2024-08-13T07:33:00Z</time>
      </trkpt>
      <trkpt lat="44.82482" lon="6.23395">
        <ele>1180.6</ele>
        <time>2024-08-13T07:33:01Z</time>
      </trkpt>
      <trkpt lat="44.82482" lon="6.23395">
        <ele>1180.2</ele>
        <time>2024-08-13T07:33:02Z</time>
      </trkpt>
      <trkpt lat="44.82481" lon="6.23391">
        <ele>1180.2</ele>
        <time>2024-08-13T07:33:03Z</time>
      </trkpt>
      <trkpt lat="44.82481" lon="6.23391">
        <ele>1180.2</ele>
        <time>2024-08-13T07:33:04Z</time>
      </trkpt>
      <trkpt lat="44.82481" lon="6.23387">
        <ele>1180.2</ele>
        <time>2024-08-13T07:33:05Z</time>
      </trkpt>
      <trkpt lat="44.82481" lon="6.23387">
        <ele>1180.2</ele>
        <time>2024-08-13T07:33:06Z</time>
      </trkpt>
      <trkpt lat="44.82482" lon="6.23382">
        <ele>1180.2</ele>
        <time>2024-08-13T07:33:07Z</time>
      </trkpt>
      <trkpt lat="44.82482" lon="6.23382">
        <ele>1179.8</ele>
        <time>2024-08-13T07:33:08Z</time>
      </trkpt>
      <trkpt lat="44.82483" lon="6.23377">
        <ele>1179.8</ele>
        <time>2024-08-13T07:33:09Z</time>
      </trkpt>
      <trkpt lat="44.82483" lon="6.23377">
        <ele>1179.8</ele>
        <time>2024-08-13T07:33:10Z</time>
      </trkpt>
      <trkpt lat="44.82484" lon="6.23373">
        <ele>1179.8</ele>
        <time>2024-08-13T07:33:11Z</time>
      </trkpt>
      <trkpt lat="44.82484" lon="6.23373">
        <ele>1179.8</ele>
        <time>2024-08-13T07:33:12Z</time>
      </trkpt>
      <trkpt lat="44.82483" lon="6.23369">
        <ele>1180</ele>
        <time>2024-08-13T07:33:13Z</time>
      </trkpt>
      <trkpt lat="44.82483" lon="6.23369">
        <ele>1180</ele>
        <time>2024-08-13T07:33:14Z</time>
      </trkpt>
      <trkpt lat="44.82481" lon="6.23366">
        <ele>1179.8</ele>
        <time>2024-08-13T07:33:15Z</time>
      </trkpt>
      <trkpt lat="44.82481" lon="6.23366">
        <ele>1179.8</ele>
        <time>2024-08-13T07:33:16Z</time>
      </trkpt>
      <trkpt lat="44.82479" lon="6.23362">
        <ele>1179.6</ele>
        <time>2024-08-13T07:33:17Z</time>
      </trkpt>
      <trkpt lat="44.82479" lon="6.23362">
        <ele>1179.4</ele>
        <time>2024-08-13T07:33:18Z</time>
      </trkpt>
      <trkpt lat="44.82478" lon="6.23359">
        <ele>1179</ele>
        <time>2024-08-13T07:33:19Z</time>
      </trkpt>
      <trkpt lat="44.82478" lon="6.23359">
        <ele>1178.6</ele>
        <time>2024-08-13T07:33:20Z</time>
      </trkpt>
      <trkpt lat="44.82477" lon="6.23355">
        <ele>1178.6</ele>
        <time>2024-08-13T07:33:21Z</time>
      </trkpt>
      <trkpt lat="44.82477" lon="6.23355">
        <ele>1178.6</ele>
        <time>2024-08-13T07:33:22Z</time>
      </trkpt>
      <trkpt lat="44.82476" lon="6.23351">
        <ele>1178.6</ele>
        <time>2024-08-13T07:33:23Z</time>
      </trkpt>
      <trkpt lat="44.82476" lon="6.23351">
        <ele>1178.6</ele>
        <time>2024-08-13T07:33:24Z</time>
      </trkpt>
      <trkpt lat="44.82475" lon="6.23347">
        <ele>1178.6</ele>
        <time>2024-08-13T07:33:25Z</time>
      </trkpt>
      <trkpt lat="44.82475" lon="6.23347">
        <ele>1178.6</ele>
        <time>2024-08-13T07:33:26Z</time>
      </trkpt>
      <trkpt lat="44.82475" lon="6.23344">
        <ele>1178.6</ele>
        <time>2024-08-13T07:33:27Z</time>
      </trkpt>
      <trkpt lat="44.82475" lon="6.23344">
        <ele>1178.6</ele>
        <time>2024-08-13T07:33:28Z</time>
      </trkpt>
      <trkpt lat="44.82474" lon="6.2334">
        <ele>1178.6</ele>
        <time>2024-08-13T07:33:29Z</time>
      </trkpt>
      <trkpt lat="44.82474" lon="6.2334">
        <ele>1178.6</ele>
        <time>2024-08-13T07:33:30Z</time>
      </trkpt>
      <trkpt lat="44.82473" lon="6.23336">
        <ele>1178.6</ele>
        <time>2024-08-13T07:33:31Z</time>
      </trkpt>
      <trkpt lat="44.82473" lon="6.23336">
        <ele>1178.6</ele>
        <time>2024-08-13T07:33:32Z</time>
      </trkpt>
      <trkpt lat="44.82471" lon="6.23332">
        <ele>1178.2</ele>
        <time>2024-08-13T07:33:33Z</time>
      </trkpt>
      <trkpt lat="44.82471" lon="6.23332">
        <ele>1178.2</ele>
        <time>2024-08-13T07:33:34Z</time>
      </trkpt>
      <trkpt lat="44.8247" lon="6.23328">
        <ele>1178</ele>
        <time>2024-08-13T07:33:35Z</time>
      </trkpt>
      <trkpt lat="44.8247" lon="6.23328">
        <ele>1178</ele>
        <time>2024-08-13T07:33:36Z</time>
      </trkpt>
      <trkpt lat="44.82469" lon="6.23325">
        <ele>1178</ele>
        <time>2024-08-13T07:33:37Z</time>
      </trkpt>
      <trkpt lat="44.82469" lon="6.23325">
        <ele>1178</ele>
        <time>2024-08-13T07:33:38Z</time>
      </trkpt>
      <trkpt lat="44.82467" lon="6.23322">
        <ele>1178</ele>
        <time>2024-08-13T07:33:39Z</time>
      </trkpt>
      <trkpt lat="44.82467" lon="6.23322">
        <ele>1178</ele>
        <time>2024-08-13T07:33:40Z</time>
      </trkpt>
      <trkpt lat="44.82465" lon="6.23319">
        <ele>1178</ele>
        <time>2024-08-13T07:33:41Z</time>
      </trkpt>
      <trkpt lat="44.82465" lon="6.23319">
        <ele>1178</ele>
        <time>2024-08-13T07:33:42Z</time>
      </trkpt>
      <trkpt lat="44.82463" lon="6.23316">
        <ele>1177.8</ele>
        <time>2024-08-13T07:33:43Z</time>
      </trkpt>
      <trkpt lat="44.82463" lon="6.23316">
        <ele>1177.8</ele>
        <time>2024-08-13T07:33:44Z</time>
      </trkpt>
      <trkpt lat="44.82462" lon="6.23312">
        <ele>1177.8</ele>
        <time>2024-08-13T07:33:45Z</time>
      </trkpt>
      <trkpt lat="44.82462" lon="6.23312">
        <ele>1177.8</ele>
        <time>2024-08-13T07:33:46Z</time>
      </trkpt>
      <trkpt lat="44.82459" lon="6.23311">
        <ele>1177.6</ele>
        <time>2024-08-13T07:33:47Z</time>
      </trkpt>
      <trkpt lat="44.82459" lon="6.23311">
        <ele>1177.6</ele>
        <time>2024-08-13T07:33:48Z</time>
      </trkpt>
      <trkpt lat="44.82456" lon="6.23311">
        <ele>1177.8</ele>
        <time>2024-08-13T07:33:49Z</time>
      </trkpt>
      <trkpt lat="44.82456" lon="6.23311">
        <ele>1177.8</ele>
        <time>2024-08-13T07:33:50Z</time>
      </trkpt>
      <trkpt lat="44.82453" lon="6.23312">
        <ele>1177.6</ele>
        <time>2024-08-13T07:33:51Z</time>
      </trkpt>
      <trkpt lat="44.82453" lon="6.23312">
        <ele>1177.4</ele>
        <time>2024-08-13T07:33:52Z</time>
      </trkpt>
      <trkpt lat="44.82451" lon="6.23312">
        <ele>1177.4</ele>
        <time>2024-08-13T07:33:53Z</time>
      </trkpt>
      <trkpt lat="44.82451" lon="6.23312">
        <ele>1177.6</ele>
        <time>2024-08-13T07:33:54Z</time>
      </trkpt>
      <trkpt lat="44.82447" lon="6.23313">
        <ele>1177.6</ele>
        <time>2024-08-13T07:33:55Z</time>
      </trkpt>
      <trkpt lat="44.82447" lon="6.23313">
        <ele>1177.6</ele>
        <time>2024-08-13T07:33:56Z</time>
      </trkpt>
      <trkpt lat="44.82445" lon="6.23314">
        <ele>1177.8</ele>
        <time>2024-08-13T07:33:57Z</time>
      </trkpt>
      <trkpt lat="44.82445" lon="6.23314">
        <ele>1177.8</ele>
        <time>2024-08-13T07:33:58Z</time>
      </trkpt>
      <trkpt lat="44.82442" lon="6.23315">
        <ele>1177.8</ele>
        <time>2024-08-13T07:33:59Z</time>
      </trkpt>
      <trkpt lat="44.82442" lon="6.23315">
        <ele>1177.8</ele>
        <time>2024-08-13T07:34:00Z</time>
      </trkpt>
      <trkpt lat="44.82439" lon="6.23315">
        <ele>1177.8</ele>
        <time>2024-08-13T07:34:01Z</time>
      </trkpt>
      <trkpt lat="44.82439" lon="6.23315">
        <ele>1177.6</ele>
        <time>2024-08-13T07:34:02Z</time>
      </trkpt>
      <trkpt lat="44.82436" lon="6.23316">
        <ele>1177.6</ele>
        <time>2024-08-13T07:34:03Z</time>
      </trkpt>
      <trkpt lat="44.82436" lon="6.23316">
        <ele>1177.6</ele>
        <time>2024-08-13T07:34:04Z</time>
      </trkpt>
      <trkpt lat="44.82433" lon="6.23317">
        <ele>1177.6</ele>
        <time>2024-08-13T07:34:05Z</time>
      </trkpt>
      <trkpt lat="44.82433" lon="6.23317">
        <ele>1177.8</ele>
        <time>2024-08-13T07:34:06Z</time>
      </trkpt>
      <trkpt lat="44.82431" lon="6.23318">
        <ele>1177.8</ele>
        <time>2024-08-13T07:34:07Z</time>
      </trkpt>
      <trkpt lat="44.82431" lon="6.23318">
        <ele>1178.2</ele>
        <time>2024-08-13T07:34:08Z</time>
      </trkpt>
      <trkpt lat="44.82428" lon="6.23319">
        <ele>1178.2</ele>
        <time>2024-08-13T07:34:09Z</time>
      </trkpt>
      <trkpt lat="44.82428" lon="6.23319">
        <ele>1178.2</ele>
        <time>2024-08-13T07:34:10Z</time>
      </trkpt>
      <trkpt lat="44.82425" lon="6.2332">
        <ele>1178</ele>
        <time>2024-08-13T07:34:11Z</time>
      </trkpt>
      <trkpt lat="44.82425" lon="6.2332">
        <ele>1178</ele>
        <time>2024-08-13T07:34:12Z</time>
      </trkpt>
      <trkpt lat="44.82423" lon="6.23321">
        <ele>1178</ele>
        <time>2024-08-13T07:34:13Z</time>
      </trkpt>
      <trkpt lat="44.82423" lon="6.23321">
        <ele>1178</ele>
        <time>2024-08-13T07:34:14Z</time>
      </trkpt>
      <trkpt lat="44.8242" lon="6.23322">
        <ele>1178</ele>
        <time>2024-08-13T07:34:15Z</time>
      </trkpt>
      <trkpt lat="44.8242" lon="6.23322">
        <ele>1178</ele>
        <time>2024-08-13T07:34:16Z</time>
      </trkpt>
      <trkpt lat="44.82417" lon="6.23323">
        <ele>1178</ele>
        <time>2024-08-13T07:34:17Z</time>
      </trkpt>
      <trkpt lat="44.82417" lon="6.23323">
        <ele>1177.6</ele>
        <time>2024-08-13T07:34:18Z</time>
      </trkpt>
      <trkpt lat="44.82414" lon="6.23323">
        <ele>1177.6</ele>
        <time>2024-08-13T07:34:19Z</time>
      </trkpt>
      <trkpt lat="44.82414" lon="6.23323">
        <ele>1177.6</ele>
        <time>2024-08-13T07:34:20Z</time>
      </trkpt>
      <trkpt lat="44.82411" lon="6.23324">
        <ele>1177.8</ele>
        <time>2024-08-13T07:34:21Z</time>
      </trkpt>
      <trkpt lat="44.82411" lon="6.23324">
        <ele>1177.8</ele>
        <time>2024-08-13T07:34:22Z</time>
      </trkpt>
      <trkpt lat="44.82408" lon="6.23324">
        <ele>1177.8</ele>
        <time>2024-08-13T07:34:23Z</time>
      </trkpt>
      <trkpt lat="44.82408" lon="6.23324">
        <ele>1177.8</ele>
        <time>2024-08-13T07:34:24Z</time>
      </trkpt>
      <trkpt lat="44.82405" lon="6.23324">
        <ele>1178</ele>
        <time>2024-08-13T07:34:25Z</time>
      </trkpt>
      <trkpt lat="44.82403" lon="6.23324">
        <ele>1178</ele>
        <time>2024-08-13T07:34:26Z</time>
      </trkpt>
      <trkpt lat="44.82401" lon="6.23325">
        <ele>1177.8</ele>
        <time>2024-08-13T07:34:27Z</time>
      </trkpt>
      <trkpt lat="44.82401" lon="6.23325">
        <ele>1177.8</ele>
        <time>2024-08-13T07:34:28Z</time>
      </trkpt>
      <trkpt lat="44.82398" lon="6.23326">
        <ele>1177.8</ele>
        <time>2024-08-13T07:34:29Z</time>
      </trkpt>
      <trkpt lat="44.82398" lon="6.23326">
        <ele>1178</ele>
        <time>2024-08-13T07:34:30Z</time>
      </trkpt>
      <trkpt lat="44.82395" lon="6.23327">
        <ele>1178</ele>
        <time>2024-08-13T07:34:31Z</time>
      </trkpt>
      <trkpt lat="44.82395" lon="6.23327">
        <ele>1178.2</ele>
        <time>2024-08-13T07:34:32Z</time>
      </trkpt>
      <trkpt lat="44.82392" lon="6.23327">
        <ele>1178.2</ele>
        <time>2024-08-13T07:34:33Z</time>
      </trkpt>
      <trkpt lat="44.82392" lon="6.23327">
        <ele>1178.2</ele>
        <time>2024-08-13T07:34:34Z</time>
      </trkpt>
      <trkpt lat="44.82389" lon="6.23328">
        <ele>1178.2</ele>
        <time>2024-08-13T07:34:35Z</time>
      </trkpt>
      <trkpt lat="44.82389" lon="6.23328">
        <ele>1178.2</ele>
        <time>2024-08-13T07:34:36Z</time>
      </trkpt>
      <trkpt lat="44.82386" lon="6.23328">
        <ele>1178.2</ele>
        <time>2024-08-13T07:34:37Z</time>
      </trkpt>
      <trkpt lat="44.82386" lon="6.23328">
        <ele>1178.2</ele>
        <time>2024-08-13T07:34:38Z</time>
      </trkpt>
      <trkpt lat="44.82383" lon="6.23327">
        <ele>1178.2</ele>
        <time>2024-08-13T07:34:39Z</time>
      </trkpt>
      <trkpt lat="44.82383" lon="6.23327">
        <ele>1178.4</ele>
        <time>2024-08-13T07:34:40Z</time>
      </trkpt>
      <trkpt lat="44.82381" lon="6.23326">
        <ele>1178.4</ele>
        <time>2024-08-13T07:34:41Z</time>
      </trkpt>
      <trkpt lat="44.82381" lon="6.23326">
        <ele>1178.4</ele>
        <time>2024-08-13T07:34:42Z</time>
      </trkpt>
      <trkpt lat="44.82381" lon="6.23326">
        <ele>1178.4</ele>
        <time>2024-08-13T07:34:43Z</time>
      </trkpt>
      <trkpt lat="44.82381" lon="6.23326">
        <ele>1178.2</ele>
        <time>2024-08-13T07:34:44Z</time>
      </trkpt>
      <trkpt lat="44.82381" lon="6.23326">
        <ele>1178.2</ele>
        <time>2024-08-13T07:34:45Z</time>
      </trkpt>
      <trkpt lat="44.8238" lon="6.23324">
        <ele>1178.6</ele>
        <time>2024-08-13T07:34:46Z</time>
      </trkpt>
      <trkpt lat="44.8238" lon="6.23324">
        <ele>1178.6</ele>
        <time>2024-08-13T07:34:47Z</time>
      </trkpt>
      <trkpt lat="44.8238" lon="6.23324">
        <ele>1178.6</ele>
        <time>2024-08-13T07:34:48Z</time>
      </trkpt>
      <trkpt lat="44.82378" lon="6.23322">
        <ele>1178.6</ele>
        <time>2024-08-13T07:34:49Z</time>
      </trkpt>
      <trkpt lat="44.82378" lon="6.23322">
        <ele>1178.6</ele>
        <time>2024-08-13T07:34:50Z</time>
      </trkpt>
      <trkpt lat="44.82375" lon="6.23321">
        <ele>1178.6</ele>
        <time>2024-08-13T07:34:51Z</time>
      </trkpt>
      <trkpt lat="44.82375" lon="6.23321">
        <ele>1178.6</ele>
        <time>2024-08-13T07:34:52Z</time>
      </trkpt>
      <trkpt lat="44.82372" lon="6.23322">
        <ele>1178.8</ele>
        <time>2024-08-13T07:34:53Z</time>
      </trkpt>
      <trkpt lat="44.82372" lon="6.23322">
        <ele>1178.8</ele>
        <time>2024-08-13T07:34:54Z</time>
      </trkpt>
      <trkpt lat="44.82372" lon="6.23322">
        <ele>1178.8</ele>
        <time>2024-08-13T07:34:55Z</time>
      </trkpt>
      <trkpt lat="44.8237" lon="6.2332">
        <ele>1179.2</ele>
        <time>2024-08-13T07:34:56Z</time>
      </trkpt>
      <trkpt lat="44.8237" lon="6.2332">
        <ele>1179.4</ele>
        <time>2024-08-13T07:34:57Z</time>
      </trkpt>
      <trkpt lat="44.82368" lon="6.23318">
        <ele>1179.6</ele>
        <time>2024-08-13T07:34:58Z</time>
      </trkpt>
      <trkpt lat="44.82368" lon="6.23318">
        <ele>1179.6</ele>
        <time>2024-08-13T07:34:59Z</time>
      </trkpt>
      <trkpt lat="44.82368" lon="6.23318">
        <ele>1180</ele>
        <time>2024-08-13T07:35:00Z</time>
      </trkpt>
      <trkpt lat="44.82368" lon="6.23315">
        <ele>1180.2</ele>
        <time>2024-08-13T07:35:01Z</time>
      </trkpt>
      <trkpt lat="44.82368" lon="6.23315">
        <ele>1180.4</ele>
        <time>2024-08-13T07:35:02Z</time>
      </trkpt>
      <trkpt lat="44.82368" lon="6.23315">
        <ele>1180.4</ele>
        <time>2024-08-13T07:35:03Z</time>
      </trkpt>
      <trkpt lat="44.82367" lon="6.23311">
        <ele>1180.8</ele>
        <time>2024-08-13T07:35:04Z</time>
      </trkpt>
      <trkpt lat="44.82367" lon="6.23311">
        <ele>1180.8</ele>
        <time>2024-08-13T07:35:05Z</time>
      </trkpt>
      <trkpt lat="44.82366" lon="6.23308">
        <ele>1181.2</ele>
        <time>2024-08-13T07:35:06Z</time>
      </trkpt>
      <trkpt lat="44.82366" lon="6.23308">
        <ele>1181.6</ele>
        <time>2024-08-13T07:35:07Z</time>
      </trkpt>
      <trkpt lat="44.82366" lon="6.23304">
        <ele>1181.8</ele>
        <time>2024-08-13T07:35:08Z</time>
      </trkpt>
      <trkpt lat="44.82366" lon="6.23304">
        <ele>1181.8</ele>
        <time>2024-08-13T07:35:09Z</time>
      </trkpt>
      <trkpt lat="44.82365" lon="6.23301">
        <ele>1182</ele>
        <time>2024-08-13T07:35:10Z</time>
      </trkpt>
      <trkpt lat="44.82365" lon="6.23301">
        <ele>1182.4</ele>
        <time>2024-08-13T07:35:11Z</time>
      </trkpt>
      <trkpt lat="44.82365" lon="6.23301">
        <ele>1182.4</ele>
        <time>2024-08-13T07:35:12Z</time>
      </trkpt>
      <trkpt lat="44.82365" lon="6.23298">
        <ele>1182.6</ele>
        <time>2024-08-13T07:35:13Z</time>
      </trkpt>
      <trkpt lat="44.82365" lon="6.23298">
        <ele>1182.8</ele>
        <time>2024-08-13T07:35:14Z</time>
      </trkpt>
      <trkpt lat="44.82365" lon="6.23298">
        <ele>1182.8</ele>
        <time>2024-08-13T07:35:15Z</time>
      </trkpt>
      <trkpt lat="44.82365" lon="6.23298">
        <ele>1183.2</ele>
        <time>2024-08-13T07:35:16Z</time>
      </trkpt>
      <trkpt lat="44.82365" lon="6.23298">
        <ele>1183.4</ele>
        <time>2024-08-13T07:35:17Z</time>
      </trkpt>
      <trkpt lat="44.82363" lon="6.23299">
        <ele>1183.6</ele>
        <time>2024-08-13T07:35:18Z</time>
      </trkpt>
      <trkpt lat="44.82363" lon="6.23299">
        <ele>1183.6</ele>
        <time>2024-08-13T07:35:19Z</time>
      </trkpt>
      <trkpt lat="44.82361" lon="6.23301">
        <ele>1183.6</ele>
        <time>2024-08-13T07:35:20Z</time>
      </trkpt>
      <trkpt lat="44.82361" lon="6.23301">
        <ele>1183.8</ele>
        <time>2024-08-13T07:35:21Z</time>
      </trkpt>
      <trkpt lat="44.82361" lon="6.23301">
        <ele>1184</ele>
        <time>2024-08-13T07:35:22Z</time>
      </trkpt>
      <trkpt lat="44.82359" lon="6.23301">
        <ele>1184.2</ele>
        <time>2024-08-13T07:35:23Z</time>
      </trkpt>
      <trkpt lat="44.82359" lon="6.23301">
        <ele>1184.8</ele>
        <time>2024-08-13T07:35:24Z</time>
      </trkpt>
      <trkpt lat="44.82357" lon="6.23302">
        <ele>1184.8</ele>
        <time>2024-08-13T07:35:25Z</time>
      </trkpt>
      <trkpt lat="44.82357" lon="6.23302">
        <ele>1184.6</ele>
        <time>2024-08-13T07:35:26Z</time>
      </trkpt>
      <trkpt lat="44.82355" lon="6.23302">
        <ele>1184.4</ele>
        <time>2024-08-13T07:35:27Z</time>
      </trkpt>
      <trkpt lat="44.82355" lon="6.23302">
        <ele>1184.4</ele>
        <time>2024-08-13T07:35:28Z</time>
      </trkpt>
      <trkpt lat="44.82355" lon="6.23302">
        <ele>1184.8</ele>
        <time>2024-08-13T07:35:29Z</time>
      </trkpt>
      <trkpt lat="44.82355" lon="6.23302">
        <ele>1185.2</ele>
        <time>2024-08-13T07:35:30Z</time>
      </trkpt>
      <trkpt lat="44.82355" lon="6.23302">
        <ele>1185.2</ele>
        <time>2024-08-13T07:35:31Z</time>
      </trkpt>
      <trkpt lat="44.82355" lon="6.23302">
        <ele>1185.4</ele>
        <time>2024-08-13T07:35:32Z</time>
      </trkpt>
      <trkpt lat="44.82353" lon="6.233">
        <ele>1185.6</ele>
        <time>2024-08-13T07:35:33Z</time>
      </trkpt>
      <trkpt lat="44.82353" lon="6.233">
        <ele>1185.6</ele>
        <time>2024-08-13T07:35:34Z</time>
      </trkpt>
      <trkpt lat="44.82353" lon="6.233">
        <ele>1185.6</ele>
        <time>2024-08-13T07:35:35Z</time>
      </trkpt>
      <trkpt lat="44.82351" lon="6.23298">
        <ele>1185.6</ele>
        <time>2024-08-13T07:35:36Z</time>
      </trkpt>
      <trkpt lat="44.82351" lon="6.23298">
        <ele>1185.6</ele>
        <time>2024-08-13T07:35:37Z</time>
      </trkpt>
      <trkpt lat="44.8235" lon="6.23295">
        <ele>1185.6</ele>
        <time>2024-08-13T07:35:38Z</time>
      </trkpt>
      <trkpt lat="44.8235" lon="6.23295">
        <ele>1185.8</ele>
        <time>2024-08-13T07:35:39Z</time>
      </trkpt>
      <trkpt lat="44.8235" lon="6.23295">
        <ele>1186.2</ele>
        <time>2024-08-13T07:35:40Z</time>
      </trkpt>
      <trkpt lat="44.82349" lon="6.23291">
        <ele>1186.4</ele>
        <time>2024-08-13T07:35:41Z</time>
      </trkpt>
      <trkpt lat="44.82349" lon="6.23291">
        <ele>1186.4</ele>
        <time>2024-08-13T07:35:42Z</time>
      </trkpt>
      <trkpt lat="44.82348" lon="6.23287">
        <ele>1186.6</ele>
        <time>2024-08-13T07:35:43Z</time>
      </trkpt>
      <trkpt lat="44.82348" lon="6.23287">
        <ele>1186.6</ele>
        <time>2024-08-13T07:35:44Z</time>
      </trkpt>
      <trkpt lat="44.82347" lon="6.23284">
        <ele>1186.6</ele>
        <time>2024-08-13T07:35:45Z</time>
      </trkpt>
      <trkpt lat="44.82347" lon="6.23284">
        <ele>1186.6</ele>
        <time>2024-08-13T07:35:46Z</time>
      </trkpt>
      <trkpt lat="44.82347" lon="6.23284">
        <ele>1186.6</ele>
        <time>2024-08-13T07:35:47Z</time>
      </trkpt>
      <trkpt lat="44.82348" lon="6.23282">
        <ele>1186.2</ele>
        <time>2024-08-13T07:35:48Z</time>
      </trkpt>
      <trkpt lat="44.82348" lon="6.23282">
        <ele>1186.2</ele>
        <time>2024-08-13T07:35:49Z</time>
      </trkpt>
      <trkpt lat="44.8235" lon="6.2328">
        <ele>1186.2</ele>
        <time>2024-08-13T07:35:50Z</time>
      </trkpt>
      <trkpt lat="44.82352" lon="6.23278">
        <ele>1186.2</ele>
        <time>2024-08-13T07:35:51Z</time>
      </trkpt>
      <trkpt lat="44.82354" lon="6.23276">
        <ele>1186</ele>
        <time>2024-08-13T07:35:52Z</time>
      </trkpt>
      <trkpt lat="44.82356" lon="6.23274">
        <ele>1186</ele>
        <time>2024-08-13T07:35:53Z</time>
      </trkpt>
      <trkpt lat="44.82356" lon="6.23274">
        <ele>1186</ele>
        <time>2024-08-13T07:35:54Z</time>
      </trkpt>
      <trkpt lat="44.82355" lon="6.23271">
        <ele>1185.8</ele>
        <time>2024-08-13T07:35:55Z</time>
      </trkpt>
      <trkpt lat="44.82355" lon="6.23271">
        <ele>1185.6</ele>
        <time>2024-08-13T07:35:56Z</time>
      </trkpt>
      <trkpt lat="44.82353" lon="6.23268">
        <ele>1185.6</ele>
        <time>2024-08-13T07:35:57Z</time>
      </trkpt>
      <trkpt lat="44.82352" lon="6.23265">
        <ele>1185.8</ele>
        <time>2024-08-13T07:35:58Z</time>
      </trkpt>
      <trkpt lat="44.82352" lon="6.23265">
        <ele>1185.8</ele>
        <time>2024-08-13T07:35:59Z</time>
      </trkpt>
      <trkpt lat="44.82352" lon="6.23261">
        <ele>1185.2</ele>
        <time>2024-08-13T07:36:00Z</time>
      </trkpt>
      <trkpt lat="44.82352" lon="6.23261">
        <ele>1185.2</ele>
        <time>2024-08-13T07:36:01Z</time>
      </trkpt>
      <trkpt lat="44.8235" lon="6.23257">
        <ele>1185</ele>
        <time>2024-08-13T07:36:02Z</time>
      </trkpt>
      <trkpt lat="44.8235" lon="6.23255">
        <ele>1185</ele>
        <time>2024-08-13T07:36:03Z</time>
      </trkpt>
      <trkpt lat="44.8235" lon="6.23255">
        <ele>1184.8</ele>
        <time>2024-08-13T07:36:04Z</time>
      </trkpt>
      <trkpt lat="44.8235" lon="6.23252">
        <ele>1184.8</ele>
        <time>2024-08-13T07:36:05Z</time>
      </trkpt>
      <trkpt lat="44.8235" lon="6.23252">
        <ele>1184.8</ele>
        <time>2024-08-13T07:36:06Z</time>
      </trkpt>
      <trkpt lat="44.8235" lon="6.23248">
        <ele>1184.6</ele>
        <time>2024-08-13T07:36:07Z</time>
      </trkpt>
      <trkpt lat="44.8235" lon="6.23248">
        <ele>1184.6</ele>
        <time>2024-08-13T07:36:08Z</time>
      </trkpt>
      <trkpt lat="44.82349" lon="6.23245">
        <ele>1184.8</ele>
        <time>2024-08-13T07:36:09Z</time>
      </trkpt>
      <trkpt lat="44.82349" lon="6.23245">
        <ele>1185.2</ele>
        <time>2024-08-13T07:36:10Z</time>
      </trkpt>
      <trkpt lat="44.82349" lon="6.23242">
        <ele>1185.4</ele>
        <time>2024-08-13T07:36:11Z</time>
      </trkpt>
      <trkpt lat="44.82349" lon="6.23242">
        <ele>1185.4</ele>
        <time>2024-08-13T07:36:12Z</time>
      </trkpt>
      <trkpt lat="44.82349" lon="6.23239">
        <ele>1185</ele>
        <time>2024-08-13T07:36:13Z</time>
      </trkpt>
      <trkpt lat="44.82349" lon="6.23239">
        <ele>1185</ele>
        <time>2024-08-13T07:36:14Z</time>
      </trkpt>
      <trkpt lat="44.82349" lon="6.23235">
        <ele>1184.8</ele>
        <time>2024-08-13T07:36:15Z</time>
      </trkpt>
      <trkpt lat="44.82349" lon="6.23235">
        <ele>1184.6</ele>
        <time>2024-08-13T07:36:16Z</time>
      </trkpt>
      <trkpt lat="44.82348" lon="6.23231">
        <ele>1184.4</ele>
        <time>2024-08-13T07:36:17Z</time>
      </trkpt>
      <trkpt lat="44.82348" lon="6.23231">
        <ele>1184.4</ele>
        <time>2024-08-13T07:36:18Z</time>
      </trkpt>
      <trkpt lat="44.82348" lon="6.23228">
        <ele>1184.4</ele>
        <time>2024-08-13T07:36:19Z</time>
      </trkpt>
      <trkpt lat="44.82348" lon="6.23228">
        <ele>1184</ele>
        <time>2024-08-13T07:36:20Z</time>
      </trkpt>
      <trkpt lat="44.82347" lon="6.23225">
        <ele>1183.8</ele>
        <time>2024-08-13T07:36:21Z</time>
      </trkpt>
      <trkpt lat="44.82347" lon="6.23225">
        <ele>1183.8</ele>
        <time>2024-08-13T07:36:22Z</time>
      </trkpt>
      <trkpt lat="44.82348" lon="6.23222">
        <ele>1183.8</ele>
        <time>2024-08-13T07:36:23Z</time>
      </trkpt>
      <trkpt lat="44.82348" lon="6.23222">
        <ele>1183.8</ele>
        <time>2024-08-13T07:36:24Z</time>
      </trkpt>
      <trkpt lat="44.82348" lon="6.23219">
        <ele>1183.8</ele>
        <time>2024-08-13T07:36:25Z</time>
      </trkpt>
      <trkpt lat="44.82348" lon="6.23219">
        <ele>1183.4</ele>
        <time>2024-08-13T07:36:26Z</time>
      </trkpt>
      <trkpt lat="44.82347" lon="6.23216">
        <ele>1183</ele>
        <time>2024-08-13T07:36:27Z</time>
      </trkpt>
      <trkpt lat="44.82347" lon="6.23216">
        <ele>1183</ele>
        <time>2024-08-13T07:36:28Z</time>
      </trkpt>
      <trkpt lat="44.82346" lon="6.23213">
        <ele>1182.4</ele>
        <time>2024-08-13T07:36:29Z</time>
      </trkpt>
      <trkpt lat="44.82346" lon="6.23213">
        <ele>1182.4</ele>
        <time>2024-08-13T07:36:30Z</time>
      </trkpt>
      <trkpt lat="44.82345" lon="6.2321">
        <ele>1182.2</ele>
        <time>2024-08-13T07:36:31Z</time>
      </trkpt>
      <trkpt lat="44.82345" lon="6.2321">
        <ele>1182.2</ele>
        <time>2024-08-13T07:36:32Z</time>
      </trkpt>
      <trkpt lat="44.82346" lon="6.23206">
        <ele>1182.2</ele>
        <time>2024-08-13T07:36:33Z</time>
      </trkpt>
      <trkpt lat="44.82346" lon="6.23206">
        <ele>1182.2</ele>
        <time>2024-08-13T07:36:34Z</time>
      </trkpt>
      <trkpt lat="44.82346" lon="6.23203">
        <ele>1181.8</ele>
        <time>2024-08-13T07:36:35Z</time>
      </trkpt>
      <trkpt lat="44.82346" lon="6.23203">
        <ele>1181.8</ele>
        <time>2024-08-13T07:36:36Z</time>
      </trkpt>
      <trkpt lat="44.82346" lon="6.232">
        <ele>1181.8</ele>
        <time>2024-08-13T07:36:37Z</time>
      </trkpt>
      <trkpt lat="44.82346" lon="6.232">
        <ele>1181.6</ele>
        <time>2024-08-13T07:36:38Z</time>
      </trkpt>
      <trkpt lat="44.82346" lon="6.23197">
        <ele>1181.4</ele>
        <time>2024-08-13T07:36:39Z</time>
      </trkpt>
      <trkpt lat="44.82346" lon="6.23197">
        <ele>1181.4</ele>
        <time>2024-08-13T07:36:40Z</time>
      </trkpt>
      <trkpt lat="44.82345" lon="6.23194">
        <ele>1181.4</ele>
        <time>2024-08-13T07:36:41Z</time>
      </trkpt>
      <trkpt lat="44.82345" lon="6.23194">
        <ele>1181.4</ele>
        <time>2024-08-13T07:36:42Z</time>
      </trkpt>
      <trkpt lat="44.82344" lon="6.23191">
        <ele>1181.6</ele>
        <time>2024-08-13T07:36:43Z</time>
      </trkpt>
      <trkpt lat="44.82344" lon="6.23191">
        <ele>1181.6</ele>
        <time>2024-08-13T07:36:44Z</time>
      </trkpt>
      <trkpt lat="44.82344" lon="6.23188">
        <ele>1181.8</ele>
        <time>2024-08-13T07:36:45Z</time>
      </trkpt>
      <trkpt lat="44.82344" lon="6.23188">
        <ele>1181.8</ele>
        <time>2024-08-13T07:36:46Z</time>
      </trkpt>
      <trkpt lat="44.82343" lon="6.23185">
        <ele>1181.6</ele>
        <time>2024-08-13T07:36:47Z</time>
      </trkpt>
      <trkpt lat="44.82343" lon="6.23185">
        <ele>1181.6</ele>
        <time>2024-08-13T07:36:48Z</time>
      </trkpt>
      <trkpt lat="44.82344" lon="6.23182">
        <ele>1181.4</ele>
        <time>2024-08-13T07:36:49Z</time>
      </trkpt>
      <trkpt lat="44.82344" lon="6.23182">
        <ele>1181.4</ele>
        <time>2024-08-13T07:36:50Z</time>
      </trkpt>
      <trkpt lat="44.82344" lon="6.23179">
        <ele>1181.2</ele>
        <time>2024-08-13T07:36:51Z</time>
      </trkpt>
      <trkpt lat="44.82344" lon="6.23179">
        <ele>1181.2</ele>
        <time>2024-08-13T07:36:52Z</time>
      </trkpt>
      <trkpt lat="44.82344" lon="6.23177">
        <ele>1181.2</ele>
        <time>2024-08-13T07:36:53Z</time>
      </trkpt>
      <trkpt lat="44.82344" lon="6.23177">
        <ele>1181.2</ele>
        <time>2024-08-13T07:36:54Z</time>
      </trkpt>
      <trkpt lat="44.82342" lon="6.23174">
        <ele>1181</ele>
        <time>2024-08-13T07:36:55Z</time>
      </trkpt>
      <trkpt lat="44.82342" lon="6.23174">
        <ele>1180.8</ele>
        <time>2024-08-13T07:36:56Z</time>
      </trkpt>
      <trkpt lat="44.82342" lon="6.2317">
        <ele>1180.6</ele>
        <time>2024-08-13T07:36:57Z</time>
      </trkpt>
      <trkpt lat="44.82342" lon="6.2317">
        <ele>1180.6</ele>
        <time>2024-08-13T07:36:58Z</time>
      </trkpt>
      <trkpt lat="44.8234" lon="6.23168">
        <ele>1180.4</ele>
        <time>2024-08-13T07:36:59Z</time>
      </trkpt>
      <trkpt lat="44.8234" lon="6.23168">
        <ele>1180.4</ele>
        <time>2024-08-13T07:37:00Z</time>
      </trkpt>
      <trkpt lat="44.82339" lon="6.23166">
        <ele>1180.6</ele>
        <time>2024-08-13T07:37:01Z</time>
      </trkpt>
      <trkpt lat="44.82339" lon="6.23166">
        <ele>1180.8</ele>
        <time>2024-08-13T07:37:02Z</time>
      </trkpt>
      <trkpt lat="44.82338" lon="6.23162">
        <ele>1180.8</ele>
        <time>2024-08-13T07:37:03Z</time>
      </trkpt>
      <trkpt lat="44.82338" lon="6.23162">
        <ele>1180.8</ele>
        <time>2024-08-13T07:37:04Z</time>
      </trkpt>
      <trkpt lat="44.82337" lon="6.2316">
        <ele>1180.4</ele>
        <time>2024-08-13T07:37:05Z</time>
      </trkpt>
      <trkpt lat="44.82337" lon="6.2316">
        <ele>1180.2</ele>
        <time>2024-08-13T07:37:06Z</time>
      </trkpt>
      <trkpt lat="44.82336" lon="6.23157">
        <ele>1180.2</ele>
        <time>2024-08-13T07:37:07Z</time>
      </trkpt>
      <trkpt lat="44.82336" lon="6.23157">
        <ele>1180.4</ele>
        <time>2024-08-13T07:37:08Z</time>
      </trkpt>
      <trkpt lat="44.82336" lon="6.23154">
        <ele>1180.6</ele>
        <time>2024-08-13T07:37:09Z</time>
      </trkpt>
      <trkpt lat="44.82336" lon="6.23154">
        <ele>1180.6</ele>
        <time>2024-08-13T07:37:10Z</time>
      </trkpt>
      <trkpt lat="44.82334" lon="6.23152">
        <ele>1180.8</ele>
        <time>2024-08-13T07:37:11Z</time>
      </trkpt>
      <trkpt lat="44.82334" lon="6.23152">
        <ele>1180.8</ele>
        <time>2024-08-13T07:37:12Z</time>
      </trkpt>
      <trkpt lat="44.82334" lon="6.23148">
        <ele>1180.8</ele>
        <time>2024-08-13T07:37:13Z</time>
      </trkpt>
      <trkpt lat="44.82334" lon="6.23148">
        <ele>1180.8</ele>
        <time>2024-08-13T07:37:14Z</time>
      </trkpt>
      <trkpt lat="44.82333" lon="6.23146">
        <ele>1180.6</ele>
        <time>2024-08-13T07:37:15Z</time>
      </trkpt>
      <trkpt lat="44.82333" lon="6.23146">
        <ele>1180.4</ele>
        <time>2024-08-13T07:37:16Z</time>
      </trkpt>
      <trkpt lat="44.82332" lon="6.23143">
        <ele>1180.4</ele>
        <time>2024-08-13T07:37:17Z</time>
      </trkpt>
      <trkpt lat="44.82332" lon="6.23143">
        <ele>1180.4</ele>
        <time>2024-08-13T07:37:18Z</time>
      </trkpt>
      <trkpt lat="44.82332" lon="6.2314">
        <ele>1180</ele>
        <time>2024-08-13T07:37:19Z</time>
      </trkpt>
      <trkpt lat="44.82332" lon="6.2314">
        <ele>1179.8</ele>
        <time>2024-08-13T07:37:20Z</time>
      </trkpt>
      <trkpt lat="44.8233" lon="6.23137">
        <ele>1179.8</ele>
        <time>2024-08-13T07:37:21Z</time>
      </trkpt>
      <trkpt lat="44.8233" lon="6.23137">
        <ele>1179.8</ele>
        <time>2024-08-13T07:37:22Z</time>
      </trkpt>
      <trkpt lat="44.82328" lon="6.23135">
        <ele>1180</ele>
        <time>2024-08-13T07:37:23Z</time>
      </trkpt>
      <trkpt lat="44.82328" lon="6.23135">
        <ele>1180</ele>
        <time>2024-08-13T07:37:24Z</time>
      </trkpt>
      <trkpt lat="44.82327" lon="6.23132">
        <ele>1180</ele>
        <time>2024-08-13T07:37:25Z</time>
      </trkpt>
      <trkpt lat="44.82327" lon="6.23132">
        <ele>1180.2</ele>
        <time>2024-08-13T07:37:26Z</time>
      </trkpt>
      <trkpt lat="44.82326" lon="6.2313">
        <ele>1180.2</ele>
        <time>2024-08-13T07:37:27Z</time>
      </trkpt>
      <trkpt lat="44.82326" lon="6.2313">
        <ele>1180.2</ele>
        <time>2024-08-13T07:37:28Z</time>
      </trkpt>
      <trkpt lat="44.82325" lon="6.23127">
        <ele>1180.2</ele>
        <time>2024-08-13T07:37:29Z</time>
      </trkpt>
      <trkpt lat="44.82325" lon="6.23127">
        <ele>1180.4</ele>
        <time>2024-08-13T07:37:30Z</time>
      </trkpt>
      <trkpt lat="44.82324" lon="6.23124">
        <ele>1180.4</ele>
        <time>2024-08-13T07:37:31Z</time>
      </trkpt>
      <trkpt lat="44.82324" lon="6.23124">
        <ele>1180.2</ele>
        <time>2024-08-13T07:37:32Z</time>
      </trkpt>
      <trkpt lat="44.82323" lon="6.23121">
        <ele>1180</ele>
        <time>2024-08-13T07:37:33Z</time>
      </trkpt>
      <trkpt lat="44.82323" lon="6.23121">
        <ele>1179.8</ele>
        <time>2024-08-13T07:37:34Z</time>
      </trkpt>
      <trkpt lat="44.82322" lon="6.23119">
        <ele>1179.6</ele>
        <time>2024-08-13T07:37:35Z</time>
      </trkpt>
      <trkpt lat="44.82322" lon="6.23119">
        <ele>1179.6</ele>
        <time>2024-08-13T07:37:36Z</time>
      </trkpt>
      <trkpt lat="44.8232" lon="6.23116">
        <ele>1179.6</ele>
        <time>2024-08-13T07:37:37Z</time>
      </trkpt>
      <trkpt lat="44.8232" lon="6.23116">
        <ele>1179.4</ele>
        <time>2024-08-13T07:37:38Z</time>
      </trkpt>
      <trkpt lat="44.82319" lon="6.23113">
        <ele>1179.2</ele>
        <time>2024-08-13T07:37:39Z</time>
      </trkpt>
      <trkpt lat="44.82319" lon="6.23113">
        <ele>1179.2</ele>
        <time>2024-08-13T07:37:40Z</time>
      </trkpt>
      <trkpt lat="44.82318" lon="6.23111">
        <ele>1179.2</ele>
        <time>2024-08-13T07:37:41Z</time>
      </trkpt>
      <trkpt lat="44.82318" lon="6.23111">
        <ele>1179.4</ele>
        <time>2024-08-13T07:37:42Z</time>
      </trkpt>
      <trkpt lat="44.82317" lon="6.23109">
        <ele>1179.4</ele>
        <time>2024-08-13T07:37:43Z</time>
      </trkpt>
      <trkpt lat="44.82317" lon="6.23109">
        <ele>1179.2</ele>
        <time>2024-08-13T07:37:44Z</time>
      </trkpt>
      <trkpt lat="44.82317" lon="6.23109">
        <ele>1179.2</ele>
        <time>2024-08-13T07:37:45Z</time>
      </trkpt>
      <trkpt lat="44.82314" lon="6.23106">
        <ele>1179.2</ele>
        <time>2024-08-13T07:37:46Z</time>
      </trkpt>
      <trkpt lat="44.82314" lon="6.23106">
        <ele>1179.2</ele>
        <time>2024-08-13T07:37:47Z</time>
      </trkpt>
      <trkpt lat="44.82313" lon="6.23103">
        <ele>1179.4</ele>
        <time>2024-08-13T07:37:48Z</time>
      </trkpt>
      <trkpt lat="44.82313" lon="6.23103">
        <ele>1179.6</ele>
        <time>2024-08-13T07:37:49Z</time>
      </trkpt>
      <trkpt lat="44.82312" lon="6.231">
        <ele>1179.6</ele>
        <time>2024-08-13T07:37:50Z</time>
      </trkpt>
      <trkpt lat="44.82312" lon="6.231">
        <ele>1179.4</ele>
        <time>2024-08-13T07:37:51Z</time>
      </trkpt>
      <trkpt lat="44.8231" lon="6.23098">
        <ele>1179.2</ele>
        <time>2024-08-13T07:37:52Z</time>
      </trkpt>
      <trkpt lat="44.8231" lon="6.23098">
        <ele>1179</ele>
        <time>2024-08-13T07:37:53Z</time>
      </trkpt>
      <trkpt lat="44.8231" lon="6.23098">
        <ele>1179</ele>
        <time>2024-08-13T07:37:54Z</time>
      </trkpt>
      <trkpt lat="44.82309" lon="6.23095">
        <ele>1179.4</ele>
        <time>2024-08-13T07:37:55Z</time>
      </trkpt>
      <trkpt lat="44.82309" lon="6.23095">
        <ele>1179.4</ele>
        <time>2024-08-13T07:37:56Z</time>
      </trkpt>
      <trkpt lat="44.82309" lon="6.23095">
        <ele>1179.6</ele>
        <time>2024-08-13T07:37:57Z</time>
      </trkpt>
      <trkpt lat="44.82308" lon="6.23091">
        <ele>1179.6</ele>
        <time>2024-08-13T07:37:58Z</time>
      </trkpt>
      <trkpt lat="44.82308" lon="6.23091">
        <ele>1179.6</ele>
        <time>2024-08-13T07:37:59Z</time>
      </trkpt>
      <trkpt lat="44.82307" lon="6.23088">
        <ele>1179.6</ele>
        <time>2024-08-13T07:38:00Z</time>
      </trkpt>
      <trkpt lat="44.82307" lon="6.23088">
        <ele>1179.8</ele>
        <time>2024-08-13T07:38:01Z</time>
      </trkpt>
      <trkpt lat="44.82307" lon="6.23088">
        <ele>1179.8</ele>
        <time>2024-08-13T07:38:02Z</time>
      </trkpt>
      <trkpt lat="44.82306" lon="6.23084">
        <ele>1179.8</ele>
        <time>2024-08-13T07:38:03Z</time>
      </trkpt>
      <trkpt lat="44.82306" lon="6.23084">
        <ele>1179.8</ele>
        <time>2024-08-13T07:38:04Z</time>
      </trkpt>
      <trkpt lat="44.82305" lon="6.23081">
        <ele>1179.4</ele>
        <time>2024-08-13T07:38:05Z</time>
      </trkpt>
      <trkpt lat="44.82305" lon="6.23081">
        <ele>1179</ele>
        <time>2024-08-13T07:38:06Z</time>
      </trkpt>
      <trkpt lat="44.82305" lon="6.23078">
        <ele>1178.8</ele>
        <time>2024-08-13T07:38:07Z</time>
      </trkpt>
      <trkpt lat="44.82305" lon="6.23078">
        <ele>1178.6</ele>
        <time>2024-08-13T07:38:08Z</time>
      </trkpt>
      <trkpt lat="44.82304" lon="6.23075">
        <ele>1178.6</ele>
        <time>2024-08-13T07:38:09Z</time>
      </trkpt>
      <trkpt lat="44.82304" lon="6.23075">
        <ele>1178.6</ele>
        <time>2024-08-13T07:38:10Z</time>
      </trkpt>
      <trkpt lat="44.82303" lon="6.23072">
        <ele>1178.6</ele>
        <time>2024-08-13T07:38:11Z</time>
      </trkpt>
      <trkpt lat="44.82303" lon="6.23072">
        <ele>1178.2</ele>
        <time>2024-08-13T07:38:12Z</time>
      </trkpt>
      <trkpt lat="44.82302" lon="6.23069">
        <ele>1177.8</ele>
        <time>2024-08-13T07:38:13Z</time>
      </trkpt>
      <trkpt lat="44.82302" lon="6.23069">
        <ele>1177.8</ele>
        <time>2024-08-13T07:38:14Z</time>
      </trkpt>
      <trkpt lat="44.82301" lon="6.23066">
        <ele>1177.8</ele>
        <time>2024-08-13T07:38:15Z</time>
      </trkpt>
      <trkpt lat="44.82301" lon="6.23066">
        <ele>1177.8</ele>
        <time>2024-08-13T07:38:16Z</time>
      </trkpt>
      <trkpt lat="44.82301" lon="6.23066">
        <ele>1177.6</ele>
        <time>2024-08-13T07:38:17Z</time>
      </trkpt>
      <trkpt lat="44.82299" lon="6.23064">
        <ele>1177.4</ele>
        <time>2024-08-13T07:38:18Z</time>
      </trkpt>
      <trkpt lat="44.82299" lon="6.23064">
        <ele>1177.4</ele>
        <time>2024-08-13T07:38:19Z</time>
      </trkpt>
      <trkpt lat="44.82298" lon="6.23061">
        <ele>1177.6</ele>
        <time>2024-08-13T07:38:20Z</time>
      </trkpt>
      <trkpt lat="44.82298" lon="6.23061">
        <ele>1177.8</ele>
        <time>2024-08-13T07:38:21Z</time>
      </trkpt>
      <trkpt lat="44.82296" lon="6.23058">
        <ele>1177.8</ele>
        <time>2024-08-13T07:38:22Z</time>
      </trkpt>
      <trkpt lat="44.82296" lon="6.23058">
        <ele>1177.8</ele>
        <time>2024-08-13T07:38:23Z</time>
      </trkpt>
      <trkpt lat="44.82296" lon="6.23055">
        <ele>1177.8</ele>
        <time>2024-08-13T07:38:24Z</time>
      </trkpt>
      <trkpt lat="44.82296" lon="6.23055">
        <ele>1177.6</ele>
        <time>2024-08-13T07:38:25Z</time>
      </trkpt>
      <trkpt lat="44.82296" lon="6.23052">
        <ele>1177.4</ele>
        <time>2024-08-13T07:38:26Z</time>
      </trkpt>
      <trkpt lat="44.82296" lon="6.23052">
        <ele>1177.2</ele>
        <time>2024-08-13T07:38:27Z</time>
      </trkpt>
      <trkpt lat="44.82296" lon="6.23048">
        <ele>1177.2</ele>
        <time>2024-08-13T07:38:28Z</time>
      </trkpt>
      <trkpt lat="44.82296" lon="6.23048">
        <ele>1177.2</ele>
        <time>2024-08-13T07:38:29Z</time>
      </trkpt>
      <trkpt lat="44.82296" lon="6.23048">
        <ele>1177</ele>
        <time>2024-08-13T07:38:30Z</time>
      </trkpt>
      <trkpt lat="44.82296" lon="6.23045">
        <ele>1176.6</ele>
        <time>2024-08-13T07:38:31Z</time>
      </trkpt>
      <trkpt lat="44.82296" lon="6.23045">
        <ele>1176.6</ele>
        <time>2024-08-13T07:38:32Z</time>
      </trkpt>
      <trkpt lat="44.82295" lon="6.23043">
        <ele>1176.2</ele>
        <time>2024-08-13T07:38:33Z</time>
      </trkpt>
      <trkpt lat="44.82295" lon="6.23043">
        <ele>1176</ele>
        <time>2024-08-13T07:38:34Z</time>
      </trkpt>
      <trkpt lat="44.82295" lon="6.23043">
        <ele>1176</ele>
        <time>2024-08-13T07:38:35Z</time>
      </trkpt>
      <trkpt lat="44.82295" lon="6.23039">
        <ele>1176</ele>
        <time>2024-08-13T07:38:36Z</time>
      </trkpt>
      <trkpt lat="44.82295" lon="6.23039">
        <ele>1176</ele>
        <time>2024-08-13T07:38:37Z</time>
      </trkpt>
      <trkpt lat="44.82295" lon="6.23037">
        <ele>1176</ele>
        <time>2024-08-13T07:38:38Z</time>
      </trkpt>
      <trkpt lat="44.82295" lon="6.23037">
        <ele>1176</ele>
        <time>2024-08-13T07:38:39Z</time>
      </trkpt>
      <trkpt lat="44.82294" lon="6.23033">
        <ele>1175.8</ele>
        <time>2024-08-13T07:38:40Z</time>
      </trkpt>
      <trkpt lat="44.82294" lon="6.23033">
        <ele>1175.4</ele>
        <time>2024-08-13T07:38:41Z</time>
      </trkpt>
      <trkpt lat="44.82294" lon="6.2303">
        <ele>1175.2</ele>
        <time>2024-08-13T07:38:42Z</time>
      </trkpt>
      <trkpt lat="44.82294" lon="6.2303">
        <ele>1175.2</ele>
        <time>2024-08-13T07:38:43Z</time>
      </trkpt>
      <trkpt lat="44.82293" lon="6.23028">
        <ele>1175</ele>
        <time>2024-08-13T07:38:44Z</time>
      </trkpt>
      <trkpt lat="44.82293" lon="6.23028">
        <ele>1174.8</ele>
        <time>2024-08-13T07:38:45Z</time>
      </trkpt>
      <trkpt lat="44.82293" lon="6.23028">
        <ele>1174.4</ele>
        <time>2024-08-13T07:38:46Z</time>
      </trkpt>
      <trkpt lat="44.82293" lon="6.23024">
        <ele>1174.2</ele>
        <time>2024-08-13T07:38:47Z</time>
      </trkpt>
      <trkpt lat="44.82293" lon="6.23024">
        <ele>1174.2</ele>
        <time>2024-08-13T07:38:48Z</time>
      </trkpt>
      <trkpt lat="44.82293" lon="6.23021">
        <ele>1174.2</ele>
        <time>2024-08-13T07:38:49Z</time>
      </trkpt>
      <trkpt lat="44.82293" lon="6.23021">
        <ele>1174</ele>
        <time>2024-08-13T07:38:50Z</time>
      </trkpt>
      <trkpt lat="44.82293" lon="6.23018">
        <ele>1174</ele>
        <time>2024-08-13T07:38:51Z</time>
      </trkpt>
      <trkpt lat="44.82293" lon="6.23018">
        <ele>1174</ele>
        <time>2024-08-13T07:38:52Z</time>
      </trkpt>
      <trkpt lat="44.82292" lon="6.23015">
        <ele>1174</ele>
        <time>2024-08-13T07:38:53Z</time>
      </trkpt>
      <trkpt lat="44.82292" lon="6.23015">
        <ele>1174</ele>
        <time>2024-08-13T07:38:54Z</time>
      </trkpt>
      <trkpt lat="44.8229" lon="6.23013">
        <ele>1174.2</ele>
        <time>2024-08-13T07:38:55Z</time>
      </trkpt>
      <trkpt lat="44.8229" lon="6.23013">
        <ele>1174.2</ele>
        <time>2024-08-13T07:38:56Z</time>
      </trkpt>
      <trkpt lat="44.82289" lon="6.2301">
        <ele>1174.2</ele>
        <time>2024-08-13T07:38:57Z</time>
      </trkpt>
      <trkpt lat="44.82289" lon="6.2301">
        <ele>1174.2</ele>
        <time>2024-08-13T07:38:58Z</time>
      </trkpt>
      <trkpt lat="44.82288" lon="6.23008">
        <ele>1174.2</ele>
        <time>2024-08-13T07:38:59Z</time>
      </trkpt>
      <trkpt lat="44.82288" lon="6.23008">
        <ele>1174.2</ele>
        <time>2024-08-13T07:39:00Z</time>
      </trkpt>
      <trkpt lat="44.82286" lon="6.23005">
        <ele>1174.2</ele>
        <time>2024-08-13T07:39:01Z</time>
      </trkpt>
      <trkpt lat="44.82286" lon="6.23005">
        <ele>1174</ele>
        <time>2024-08-13T07:39:02Z</time>
      </trkpt>
      <trkpt lat="44.82284" lon="6.23002">
        <ele>1174</ele>
        <time>2024-08-13T07:39:03Z</time>
      </trkpt>
      <trkpt lat="44.82284" lon="6.23002">
        <ele>1173.8</ele>
        <time>2024-08-13T07:39:04Z</time>
      </trkpt>
      <trkpt lat="44.82282" lon="6.23">
        <ele>1173.6</ele>
        <time>2024-08-13T07:39:05Z</time>
      </trkpt>
      <trkpt lat="44.82282" lon="6.23">
        <ele>1173.6</ele>
        <time>2024-08-13T07:39:06Z</time>
      </trkpt>
      <trkpt lat="44.82281" lon="6.22997">
        <ele>1173.6</ele>
        <time>2024-08-13T07:39:07Z</time>
      </trkpt>
      <trkpt lat="44.82281" lon="6.22997">
        <ele>1173.6</ele>
        <time>2024-08-13T07:39:08Z</time>
      </trkpt>
      <trkpt lat="44.82281" lon="6.22997">
        <ele>1173.6</ele>
        <time>2024-08-13T07:39:09Z</time>
      </trkpt>
      <trkpt lat="44.82279" lon="6.22995">
        <ele>1173.6</ele>
        <time>2024-08-13T07:39:10Z</time>
      </trkpt>
      <trkpt lat="44.82279" lon="6.22995">
        <ele>1173.6</ele>
        <time>2024-08-13T07:39:11Z</time>
      </trkpt>
      <trkpt lat="44.82278" lon="6.22993">
        <ele>1173.6</ele>
        <time>2024-08-13T07:39:12Z</time>
      </trkpt>
      <trkpt lat="44.82278" lon="6.22993">
        <ele>1173.4</ele>
        <time>2024-08-13T07:39:13Z</time>
      </trkpt>
      <trkpt lat="44.82276" lon="6.22991">
        <ele>1173.2</ele>
        <time>2024-08-13T07:39:14Z</time>
      </trkpt>
      <trkpt lat="44.82276" lon="6.22991">
        <ele>1173.2</ele>
        <time>2024-08-13T07:39:15Z</time>
      </trkpt>
      <trkpt lat="44.82274" lon="6.22989">
        <ele>1173.2</ele>
        <time>2024-08-13T07:39:16Z</time>
      </trkpt>
      <trkpt lat="44.82274" lon="6.22989">
        <ele>1173.2</ele>
        <time>2024-08-13T07:39:17Z</time>
      </trkpt>
      <trkpt lat="44.82273" lon="6.22986">
        <ele>1172.8</ele>
        <time>2024-08-13T07:39:18Z</time>
      </trkpt>
      <trkpt lat="44.82273" lon="6.22986">
        <ele>1172.8</ele>
        <time>2024-08-13T07:39:19Z</time>
      </trkpt>
      <trkpt lat="44.82272" lon="6.22984">
        <ele>1172.8</ele>
        <time>2024-08-13T07:39:20Z</time>
      </trkpt>
      <trkpt lat="44.82272" lon="6.22984">
        <ele>1173</ele>
        <time>2024-08-13T07:39:21Z</time>
      </trkpt>
      <trkpt lat="44.82269" lon="6.22982">
        <ele>1173</ele>
        <time>2024-08-13T07:39:22Z</time>
      </trkpt>
      <trkpt lat="44.82269" lon="6.22982">
        <ele>1172.6</ele>
        <time>2024-08-13T07:39:23Z</time>
      </trkpt>
      <trkpt lat="44.82268" lon="6.22979">
        <ele>1172.6</ele>
        <time>2024-08-13T07:39:24Z</time>
      </trkpt>
      <trkpt lat="44.82268" lon="6.22979">
        <ele>1172.6</ele>
        <time>2024-08-13T07:39:25Z</time>
      </trkpt>
      <trkpt lat="44.82266" lon="6.22976">
        <ele>1172.4</ele>
        <time>2024-08-13T07:39:26Z</time>
      </trkpt>
      <trkpt lat="44.82266" lon="6.22976">
        <ele>1172.4</ele>
        <time>2024-08-13T07:39:27Z</time>
      </trkpt>
      <trkpt lat="44.82264" lon="6.22974">
        <ele>1172.6</ele>
        <time>2024-08-13T07:39:28Z</time>
      </trkpt>
      <trkpt lat="44.82264" lon="6.22974">
        <ele>1172.8</ele>
        <time>2024-08-13T07:39:29Z</time>
      </trkpt>
      <trkpt lat="44.82262" lon="6.22972">
        <ele>1172.8</ele>
        <time>2024-08-13T07:39:30Z</time>
      </trkpt>
      <trkpt lat="44.82262" lon="6.22972">
        <ele>1172.4</ele>
        <time>2024-08-13T07:39:31Z</time>
      </trkpt>
      <trkpt lat="44.82261" lon="6.2297">
        <ele>1172.4</ele>
        <time>2024-08-13T07:39:32Z</time>
      </trkpt>
      <trkpt lat="44.82261" lon="6.2297">
        <ele>1172.4</ele>
        <time>2024-08-13T07:39:33Z</time>
      </trkpt>
      <trkpt lat="44.82259" lon="6.22968">
        <ele>1172.2</ele>
        <time>2024-08-13T07:39:34Z</time>
      </trkpt>
      <trkpt lat="44.82259" lon="6.22968">
        <ele>1172.2</ele>
        <time>2024-08-13T07:39:35Z</time>
      </trkpt>
      <trkpt lat="44.82257" lon="6.22967">
        <ele>1172.4</ele>
        <time>2024-08-13T07:39:36Z</time>
      </trkpt>
      <trkpt lat="44.82257" lon="6.22967">
        <ele>1172.4</ele>
        <time>2024-08-13T07:39:37Z</time>
      </trkpt>
      <trkpt lat="44.82255" lon="6.22967">
        <ele>1172.4</ele>
        <time>2024-08-13T07:39:38Z</time>
      </trkpt>
      <trkpt lat="44.82255" lon="6.22967">
        <ele>1172.2</ele>
        <time>2024-08-13T07:39:39Z</time>
      </trkpt>
      <trkpt lat="44.82253" lon="6.22966">
        <ele>1172.2</ele>
        <time>2024-08-13T07:39:40Z</time>
      </trkpt>
      <trkpt lat="44.82253" lon="6.22966">
        <ele>1172.4</ele>
        <time>2024-08-13T07:39:41Z</time>
      </trkpt>
      <trkpt lat="44.82253" lon="6.22966">
        <ele>1172.4</ele>
        <time>2024-08-13T07:39:42Z</time>
      </trkpt>
      <trkpt lat="44.82251" lon="6.22963">
        <ele>1172.4</ele>
        <time>2024-08-13T07:39:43Z</time>
      </trkpt>
      <trkpt lat="44.82251" lon="6.22963">
        <ele>1172.4</ele>
        <time>2024-08-13T07:39:44Z</time>
      </trkpt>
      <trkpt lat="44.82251" lon="6.22963">
        <ele>1172.4</ele>
        <time>2024-08-13T07:39:45Z</time>
      </trkpt>
      <trkpt lat="44.8225" lon="6.22959">
        <ele>1172.4</ele>
        <time>2024-08-13T07:39:46Z</time>
      </trkpt>
      <trkpt lat="44.82248" lon="6.22957">
        <ele>1172.4</ele>
        <time>2024-08-13T07:39:47Z</time>
      </trkpt>
      <trkpt lat="44.82248" lon="6.22957">
        <ele>1172.6</ele>
        <time>2024-08-13T07:39:48Z</time>
      </trkpt>
      <trkpt lat="44.82247" lon="6.22954">
        <ele>1172.4</ele>
        <time>2024-08-13T07:39:49Z</time>
      </trkpt>
      <trkpt lat="44.82247" lon="6.22954">
        <ele>1172.4</ele>
        <time>2024-08-13T07:39:50Z</time>
      </trkpt>
      <trkpt lat="44.82247" lon="6.22951">
        <ele>1172.4</ele>
        <time>2024-08-13T07:39:51Z</time>
      </trkpt>
      <trkpt lat="44.82247" lon="6.22951">
        <ele>1172.6</ele>
        <time>2024-08-13T07:39:52Z</time>
      </trkpt>
      <trkpt lat="44.82246" lon="6.22948">
        <ele>1172.6</ele>
        <time>2024-08-13T07:39:53Z</time>
      </trkpt>
      <trkpt lat="44.82246" lon="6.22948">
        <ele>1172.6</ele>
        <time>2024-08-13T07:39:54Z</time>
      </trkpt>
      <trkpt lat="44.82244" lon="6.22945">
        <ele>1172.6</ele>
        <time>2024-08-13T07:39:55Z</time>
      </trkpt>
      <trkpt lat="44.82244" lon="6.22945">
        <ele>1172.8</ele>
        <time>2024-08-13T07:39:56Z</time>
      </trkpt>
      <trkpt lat="44.82242" lon="6.22942">
        <ele>1172.8</ele>
        <time>2024-08-13T07:39:57Z</time>
      </trkpt>
      <trkpt lat="44.82242" lon="6.22942">
        <ele>1172.8</ele>
        <time>2024-08-13T07:39:58Z</time>
      </trkpt>
      <trkpt lat="44.82241" lon="6.22941">
        <ele>1172.8</ele>
        <time>2024-08-13T07:39:59Z</time>
      </trkpt>
      <trkpt lat="44.82241" lon="6.22941">
        <ele>1172.6</ele>
        <time>2024-08-13T07:40:00Z</time>
      </trkpt>
      <trkpt lat="44.82241" lon="6.22941">
        <ele>1172.8</ele>
        <time>2024-08-13T07:40:01Z</time>
      </trkpt>
      <trkpt lat="44.82239" lon="6.22939">
        <ele>1172.8</ele>
        <time>2024-08-13T07:40:02Z</time>
      </trkpt>
      <trkpt lat="44.82239" lon="6.22939">
        <ele>1172.8</ele>
        <time>2024-08-13T07:40:03Z</time>
      </trkpt>
      <trkpt lat="44.82238" lon="6.22937">
        <ele>1172.8</ele>
        <time>2024-08-13T07:40:04Z</time>
      </trkpt>
      <trkpt lat="44.82238" lon="6.22937">
        <ele>1172.8</ele>
        <time>2024-08-13T07:40:05Z</time>
      </trkpt>
      <trkpt lat="44.82238" lon="6.22935">
        <ele>1172.8</ele>
        <time>2024-08-13T07:40:06Z</time>
      </trkpt>
      <trkpt lat="44.82238" lon="6.22935">
        <ele>1172.8</ele>
        <time>2024-08-13T07:40:07Z</time>
      </trkpt>
      <trkpt lat="44.82238" lon="6.22935">
        <ele>1172.8</ele>
        <time>2024-08-13T07:40:08Z</time>
      </trkpt>
      <trkpt lat="44.82238" lon="6.22932">
        <ele>1172.8</ele>
        <time>2024-08-13T07:40:09Z</time>
      </trkpt>
      <trkpt lat="44.82238" lon="6.22932">
        <ele>1172.8</ele>
        <time>2024-08-13T07:40:10Z</time>
      </trkpt>
      <trkpt lat="44.82237" lon="6.22929">
        <ele>1172.8</ele>
        <time>2024-08-13T07:40:11Z</time>
      </trkpt>
      <trkpt lat="44.82237" lon="6.22929">
        <ele>1172.4</ele>
        <time>2024-08-13T07:40:12Z</time>
      </trkpt>
      <trkpt lat="44.82236" lon="6.22927">
        <ele>1172.4</ele>
        <time>2024-08-13T07:40:13Z</time>
      </trkpt>
      <trkpt lat="44.82236" lon="6.22927">
        <ele>1172.4</ele>
        <time>2024-08-13T07:40:14Z</time>
      </trkpt>
      <trkpt lat="44.82234" lon="6.22925">
        <ele>1172.2</ele>
        <time>2024-08-13T07:40:15Z</time>
      </trkpt>
      <trkpt lat="44.82234" lon="6.22925">
        <ele>1172</ele>
        <time>2024-08-13T07:40:16Z</time>
      </trkpt>
      <trkpt lat="44.82233" lon="6.22922">
        <ele>1172</ele>
        <time>2024-08-13T07:40:17Z</time>
      </trkpt>
      <trkpt lat="44.82233" lon="6.22922">
        <ele>1172</ele>
        <time>2024-08-13T07:40:18Z</time>
      </trkpt>
      <trkpt lat="44.82232" lon="6.2292">
        <ele>1172</ele>
        <time>2024-08-13T07:40:19Z</time>
      </trkpt>
      <trkpt lat="44.82232" lon="6.2292">
        <ele>1172</ele>
        <time>2024-08-13T07:40:20Z</time>
      </trkpt>
      <trkpt lat="44.82231" lon="6.22917">
        <ele>1172</ele>
        <time>2024-08-13T07:40:21Z</time>
      </trkpt>
      <trkpt lat="44.82231" lon="6.22917">
        <ele>1172</ele>
        <time>2024-08-13T07:40:22Z</time>
      </trkpt>
      <trkpt lat="44.82229" lon="6.22914">
        <ele>1171.8</ele>
        <time>2024-08-13T07:40:23Z</time>
      </trkpt>
      <trkpt lat="44.82229" lon="6.22914">
        <ele>1171.8</ele>
        <time>2024-08-13T07:40:24Z</time>
      </trkpt>
      <trkpt lat="44.82229" lon="6.22914">
        <ele>1171.8</ele>
        <time>2024-08-13T07:40:25Z</time>
      </trkpt>
      <trkpt lat="44.82228" lon="6.22912">
        <ele>1171.8</ele>
        <time>2024-08-13T07:40:26Z</time>
      </trkpt>
      <trkpt lat="44.82228" lon="6.22912">
        <ele>1172</ele>
        <time>2024-08-13T07:40:27Z</time>
      </trkpt>
      <trkpt lat="44.82227" lon="6.2291">
        <ele>1172</ele>
        <time>2024-08-13T07:40:28Z</time>
      </trkpt>
      <trkpt lat="44.82227" lon="6.2291">
        <ele>1172</ele>
        <time>2024-08-13T07:40:29Z</time>
      </trkpt>
      <trkpt lat="44.82227" lon="6.22907">
        <ele>1171.8</ele>
        <time>2024-08-13T07:40:30Z</time>
      </trkpt>
      <trkpt lat="44.82227" lon="6.22907">
        <ele>1171.8</ele>
        <time>2024-08-13T07:40:31Z</time>
      </trkpt>
      <trkpt lat="44.82226" lon="6.22904">
        <ele>1171.6</ele>
        <time>2024-08-13T07:40:32Z</time>
      </trkpt>
      <trkpt lat="44.82226" lon="6.22904">
        <ele>1171.6</ele>
        <time>2024-08-13T07:40:33Z</time>
      </trkpt>
      <trkpt lat="44.82224" lon="6.22902">
        <ele>1171.6</ele>
        <time>2024-08-13T07:40:34Z</time>
      </trkpt>
      <trkpt lat="44.82224" lon="6.22902">
        <ele>1171.6</ele>
        <time>2024-08-13T07:40:35Z</time>
      </trkpt>
      <trkpt lat="44.82223" lon="6.22899">
        <ele>1171.6</ele>
        <time>2024-08-13T07:40:36Z</time>
      </trkpt>
      <trkpt lat="44.82223" lon="6.22899">
        <ele>1171.6</ele>
        <time>2024-08-13T07:40:37Z</time>
      </trkpt>
      <trkpt lat="44.82223" lon="6.22896">
        <ele>1171.8</ele>
        <time>2024-08-13T07:40:38Z</time>
      </trkpt>
      <trkpt lat="44.82223" lon="6.22896">
        <ele>1171.8</ele>
        <time>2024-08-13T07:40:39Z</time>
      </trkpt>
      <trkpt lat="44.82222" lon="6.22893">
        <ele>1171.8</ele>
        <time>2024-08-13T07:40:40Z</time>
      </trkpt>
      <trkpt lat="44.82222" lon="6.22893">
        <ele>1171.8</ele>
        <time>2024-08-13T07:40:41Z</time>
      </trkpt>
      <trkpt lat="44.82222" lon="6.2289">
        <ele>1172.2</ele>
        <time>2024-08-13T07:40:42Z</time>
      </trkpt>
      <trkpt lat="44.82222" lon="6.2289">
        <ele>1172.2</ele>
        <time>2024-08-13T07:40:43Z</time>
      </trkpt>
      <trkpt lat="44.82222" lon="6.22888">
        <ele>1172.2</ele>
        <time>2024-08-13T07:40:44Z</time>
      </trkpt>
      <trkpt lat="44.82222" lon="6.22888">
        <ele>1172.4</ele>
        <time>2024-08-13T07:40:45Z</time>
      </trkpt>
      <trkpt lat="44.82222" lon="6.22885">
        <ele>1172.4</ele>
        <time>2024-08-13T07:40:46Z</time>
      </trkpt>
      <trkpt lat="44.82222" lon="6.22885">
        <ele>1172.6</ele>
        <time>2024-08-13T07:40:47Z</time>
      </trkpt>
      <trkpt lat="44.82222" lon="6.22882">
        <ele>1172.6</ele>
        <time>2024-08-13T07:40:48Z</time>
      </trkpt>
      <trkpt lat="44.82222" lon="6.22882">
        <ele>1172.8</ele>
        <time>2024-08-13T07:40:49Z</time>
      </trkpt>
      <trkpt lat="44.82222" lon="6.22879">
        <ele>1172.8</ele>
        <time>2024-08-13T07:40:50Z</time>
      </trkpt>
      <trkpt lat="44.82222" lon="6.22879">
        <ele>1173</ele>
        <time>2024-08-13T07:40:51Z</time>
      </trkpt>
      <trkpt lat="44.82221" lon="6.22876">
        <ele>1173</ele>
        <time>2024-08-13T07:40:52Z</time>
      </trkpt>
      <trkpt lat="44.82221" lon="6.22876">
        <ele>1173</ele>
        <time>2024-08-13T07:40:53Z</time>
      </trkpt>
      <trkpt lat="44.82219" lon="6.22873">
        <ele>1173</ele>
        <time>2024-08-13T07:40:54Z</time>
      </trkpt>
      <trkpt lat="44.82219" lon="6.22873">
        <ele>1173</ele>
        <time>2024-08-13T07:40:55Z</time>
      </trkpt>
      <trkpt lat="44.82218" lon="6.2287">
        <ele>1173.2</ele>
        <time>2024-08-13T07:40:56Z</time>
      </trkpt>
      <trkpt lat="44.82218" lon="6.2287">
        <ele>1173.4</ele>
        <time>2024-08-13T07:40:57Z</time>
      </trkpt>
      <trkpt lat="44.82217" lon="6.22867">
        <ele>1173.4</ele>
        <time>2024-08-13T07:40:58Z</time>
      </trkpt>
      <trkpt lat="44.82217" lon="6.22867">
        <ele>1173.4</ele>
        <time>2024-08-13T07:40:59Z</time>
      </trkpt>
      <trkpt lat="44.82216" lon="6.22864">
        <ele>1173.4</ele>
        <time>2024-08-13T07:41:00Z</time>
      </trkpt>
      <trkpt lat="44.82216" lon="6.22864">
        <ele>1173.6</ele>
        <time>2024-08-13T07:41:01Z</time>
      </trkpt>
      <trkpt lat="44.82215" lon="6.22862">
        <ele>1174</ele>
        <time>2024-08-13T07:41:02Z</time>
      </trkpt>
      <trkpt lat="44.82215" lon="6.22862">
        <ele>1174</ele>
        <time>2024-08-13T07:41:03Z</time>
      </trkpt>
      <trkpt lat="44.82213" lon="6.22859">
        <ele>1174.2</ele>
        <time>2024-08-13T07:41:04Z</time>
      </trkpt>
      <trkpt lat="44.82213" lon="6.22859">
        <ele>1174.2</ele>
        <time>2024-08-13T07:41:05Z</time>
      </trkpt>
      <trkpt lat="44.82213" lon="6.22856">
        <ele>1174.6</ele>
        <time>2024-08-13T07:41:06Z</time>
      </trkpt>
      <trkpt lat="44.82213" lon="6.22856">
        <ele>1174.6</ele>
        <time>2024-08-13T07:41:07Z</time>
      </trkpt>
      <trkpt lat="44.82211" lon="6.22853">
        <ele>1174.6</ele>
        <time>2024-08-13T07:41:08Z</time>
      </trkpt>
      <trkpt lat="44.82211" lon="6.22853">
        <ele>1175.4</ele>
        <time>2024-08-13T07:41:09Z</time>
      </trkpt>
      <trkpt lat="44.8221" lon="6.22851">
        <ele>1175.4</ele>
        <time>2024-08-13T07:41:10Z</time>
      </trkpt>
      <trkpt lat="44.8221" lon="6.22851">
        <ele>1175.2</ele>
        <time>2024-08-13T07:41:11Z</time>
      </trkpt>
      <trkpt lat="44.82208" lon="6.22849">
        <ele>1175.2</ele>
        <time>2024-08-13T07:41:12Z</time>
      </trkpt>
      <trkpt lat="44.82208" lon="6.22849">
        <ele>1175.2</ele>
        <time>2024-08-13T07:41:13Z</time>
      </trkpt>
      <trkpt lat="44.82207" lon="6.22847">
        <ele>1175.6</ele>
        <time>2024-08-13T07:41:14Z</time>
      </trkpt>
      <trkpt lat="44.82207" lon="6.22847">
        <ele>1175.6</ele>
        <time>2024-08-13T07:41:15Z</time>
      </trkpt>
      <trkpt lat="44.82206" lon="6.22844">
        <ele>1175.6</ele>
        <time>2024-08-13T07:41:16Z</time>
      </trkpt>
      <trkpt lat="44.82206" lon="6.22844">
        <ele>1175.6</ele>
        <time>2024-08-13T07:41:17Z</time>
      </trkpt>
      <trkpt lat="44.82205" lon="6.22842">
        <ele>1175.8</ele>
        <time>2024-08-13T07:41:18Z</time>
      </trkpt>
      <trkpt lat="44.82205" lon="6.22842">
        <ele>1175.8</ele>
        <time>2024-08-13T07:41:19Z</time>
      </trkpt>
      <trkpt lat="44.82205" lon="6.22839">
        <ele>1175.6</ele>
        <time>2024-08-13T07:41:20Z</time>
      </trkpt>
      <trkpt lat="44.82205" lon="6.22839">
        <ele>1175.6</ele>
        <time>2024-08-13T07:41:21Z</time>
      </trkpt>
      <trkpt lat="44.82204" lon="6.22835">
        <ele>1175.6</ele>
        <time>2024-08-13T07:41:22Z</time>
      </trkpt>
      <trkpt lat="44.82204" lon="6.22835">
        <ele>1175.6</ele>
        <time>2024-08-13T07:41:23Z</time>
      </trkpt>
      <trkpt lat="44.82203" lon="6.22833">
        <ele>1175.6</ele>
        <time>2024-08-13T07:41:24Z</time>
      </trkpt>
      <trkpt lat="44.82203" lon="6.22833">
        <ele>1175.6</ele>
        <time>2024-08-13T07:41:25Z</time>
      </trkpt>
      <trkpt lat="44.82201" lon="6.2283">
        <ele>1175.8</ele>
        <time>2024-08-13T07:41:26Z</time>
      </trkpt>
      <trkpt lat="44.82201" lon="6.2283">
        <ele>1175.8</ele>
        <time>2024-08-13T07:41:27Z</time>
      </trkpt>
      <trkpt lat="44.822" lon="6.22828">
        <ele>1176</ele>
        <time>2024-08-13T07:41:28Z</time>
      </trkpt>
      <trkpt lat="44.822" lon="6.22828">
        <ele>1176</ele>
        <time>2024-08-13T07:41:29Z</time>
      </trkpt>
      <trkpt lat="44.82199" lon="6.22826">
        <ele>1176.2</ele>
        <time>2024-08-13T07:41:30Z</time>
      </trkpt>
      <trkpt lat="44.82199" lon="6.22826">
        <ele>1176.2</ele>
        <time>2024-08-13T07:41:31Z</time>
      </trkpt>
      <trkpt lat="44.82198" lon="6.22823">
        <ele>1176.2</ele>
        <time>2024-08-13T07:41:32Z</time>
      </trkpt>
      <trkpt lat="44.82198" lon="6.22823">
        <ele>1176</ele>
        <time>2024-08-13T07:41:33Z</time>
      </trkpt>
      <trkpt lat="44.82197" lon="6.22821">
        <ele>1176</ele>
        <time>2024-08-13T07:41:34Z</time>
      </trkpt>
      <trkpt lat="44.82197" lon="6.22821">
        <ele>1176</ele>
        <time>2024-08-13T07:41:35Z</time>
      </trkpt>
      <trkpt lat="44.82195" lon="6.22819">
        <ele>1175.8</ele>
        <time>2024-08-13T07:41:36Z</time>
      </trkpt>
      <trkpt lat="44.82195" lon="6.22819">
        <ele>1175.8</ele>
        <time>2024-08-13T07:41:37Z</time>
      </trkpt>
      <trkpt lat="44.82195" lon="6.22819">
        <ele>1175.6</ele>
        <time>2024-08-13T07:41:38Z</time>
      </trkpt>
      <trkpt lat="44.82194" lon="6.22816">
        <ele>1175.6</ele>
        <time>2024-08-13T07:41:39Z</time>
      </trkpt>
      <trkpt lat="44.82194" lon="6.22816">
        <ele>1175.8</ele>
        <time>2024-08-13T07:41:40Z</time>
      </trkpt>
      <trkpt lat="44.82192" lon="6.22814">
        <ele>1176</ele>
        <time>2024-08-13T07:41:41Z</time>
      </trkpt>
      <trkpt lat="44.82192" lon="6.22814">
        <ele>1176</ele>
        <time>2024-08-13T07:41:42Z</time>
      </trkpt>
      <trkpt lat="44.82191" lon="6.22811">
        <ele>1176</ele>
        <time>2024-08-13T07:41:43Z</time>
      </trkpt>
      <trkpt lat="44.82191" lon="6.22811">
        <ele>1176</ele>
        <time>2024-08-13T07:41:44Z</time>
      </trkpt>
      <trkpt lat="44.8219" lon="6.22808">
        <ele>1176</ele>
        <time>2024-08-13T07:41:45Z</time>
      </trkpt>
      <trkpt lat="44.8219" lon="6.22808">
        <ele>1176</ele>
        <time>2024-08-13T07:41:46Z</time>
      </trkpt>
      <trkpt lat="44.82189" lon="6.22806">
        <ele>1176</ele>
        <time>2024-08-13T07:41:47Z</time>
      </trkpt>
      <trkpt lat="44.82189" lon="6.22806">
        <ele>1176</ele>
        <time>2024-08-13T07:41:48Z</time>
      </trkpt>
      <trkpt lat="44.82188" lon="6.22803">
        <ele>1176</ele>
        <time>2024-08-13T07:41:49Z</time>
      </trkpt>
      <trkpt lat="44.82188" lon="6.22803">
        <ele>1176.2</ele>
        <time>2024-08-13T07:41:50Z</time>
      </trkpt>
      <trkpt lat="44.82188" lon="6.22803">
        <ele>1176.4</ele>
        <time>2024-08-13T07:41:51Z</time>
      </trkpt>
      <trkpt lat="44.82187" lon="6.22801">
        <ele>1176.4</ele>
        <time>2024-08-13T07:41:52Z</time>
      </trkpt>
      <trkpt lat="44.82187" lon="6.22801">
        <ele>1176.4</ele>
        <time>2024-08-13T07:41:53Z</time>
      </trkpt>
      <trkpt lat="44.82187" lon="6.22801">
        <ele>1176.2</ele>
        <time>2024-08-13T07:41:54Z</time>
      </trkpt>
      <trkpt lat="44.82186" lon="6.22798">
        <ele>1176.2</ele>
        <time>2024-08-13T07:41:55Z</time>
      </trkpt>
      <trkpt lat="44.82186" lon="6.22798">
        <ele>1176.2</ele>
        <time>2024-08-13T07:41:56Z</time>
      </trkpt>
      <trkpt lat="44.82184" lon="6.22795">
        <ele>1176.4</ele>
        <time>2024-08-13T07:41:57Z</time>
      </trkpt>
      <trkpt lat="44.82184" lon="6.22795">
        <ele>1176.4</ele>
        <time>2024-08-13T07:41:58Z</time>
      </trkpt>
      <trkpt lat="44.82183" lon="6.22792">
        <ele>1176.4</ele>
        <time>2024-08-13T07:41:59Z</time>
      </trkpt>
      <trkpt lat="44.82183" lon="6.22792">
        <ele>1176.4</ele>
        <time>2024-08-13T07:42:00Z</time>
      </trkpt>
      <trkpt lat="44.82183" lon="6.22792">
        <ele>1176.4</ele>
        <time>2024-08-13T07:42:01Z</time>
      </trkpt>
      <trkpt lat="44.82181" lon="6.22789">
        <ele>1176.6</ele>
        <time>2024-08-13T07:42:02Z</time>
      </trkpt>
      <trkpt lat="44.82181" lon="6.22789">
        <ele>1176.6</ele>
        <time>2024-08-13T07:42:03Z</time>
      </trkpt>
      <trkpt lat="44.82181" lon="6.22785">
        <ele>1176.6</ele>
        <time>2024-08-13T07:42:04Z</time>
      </trkpt>
      <trkpt lat="44.82181" lon="6.22785">
        <ele>1176.4</ele>
        <time>2024-08-13T07:42:05Z</time>
      </trkpt>
      <trkpt lat="44.82179" lon="6.22781">
        <ele>1176.4</ele>
        <time>2024-08-13T07:42:06Z</time>
      </trkpt>
      <trkpt lat="44.82179" lon="6.22781">
        <ele>1176.4</ele>
        <time>2024-08-13T07:42:07Z</time>
      </trkpt>
      <trkpt lat="44.82178" lon="6.22778">
        <ele>1176.4</ele>
        <time>2024-08-13T07:42:08Z</time>
      </trkpt>
      <trkpt lat="44.82178" lon="6.22778">
        <ele>1176.4</ele>
        <time>2024-08-13T07:42:09Z</time>
      </trkpt>
      <trkpt lat="44.82177" lon="6.22776">
        <ele>1176.2</ele>
        <time>2024-08-13T07:42:10Z</time>
      </trkpt>
      <trkpt lat="44.82177" lon="6.22776">
        <ele>1176.2</ele>
        <time>2024-08-13T07:42:11Z</time>
      </trkpt>
      <trkpt lat="44.82177" lon="6.22776">
        <ele>1176.2</ele>
        <time>2024-08-13T07:42:12Z</time>
      </trkpt>
      <trkpt lat="44.82176" lon="6.22772">
        <ele>1176.2</ele>
        <time>2024-08-13T07:42:13Z</time>
      </trkpt>
      <trkpt lat="44.82176" lon="6.22772">
        <ele>1176</ele>
        <time>2024-08-13T07:42:14Z</time>
      </trkpt>
      <trkpt lat="44.82175" lon="6.2277">
        <ele>1176</ele>
        <time>2024-08-13T07:42:15Z</time>
      </trkpt>
      <trkpt lat="44.82175" lon="6.2277">
        <ele>1176</ele>
        <time>2024-08-13T07:42:16Z</time>
      </trkpt>
      <trkpt lat="44.82173" lon="6.22768">
        <ele>1176</ele>
        <time>2024-08-13T07:42:17Z</time>
      </trkpt>
      <trkpt lat="44.82173" lon="6.22768">
        <ele>1176</ele>
        <time>2024-08-13T07:42:18Z</time>
      </trkpt>
      <trkpt lat="44.82172" lon="6.22766">
        <ele>1175.8</ele>
        <time>2024-08-13T07:42:19Z</time>
      </trkpt>
      <trkpt lat="44.82172" lon="6.22766">
        <ele>1175.6</ele>
        <time>2024-08-13T07:42:20Z</time>
      </trkpt>
      <trkpt lat="44.8217" lon="6.22764">
        <ele>1175.6</ele>
        <time>2024-08-13T07:42:21Z</time>
      </trkpt>
      <trkpt lat="44.8217" lon="6.22764">
        <ele>1175.8</ele>
        <time>2024-08-13T07:42:22Z</time>
      </trkpt>
      <trkpt lat="44.8217" lon="6.22764">
        <ele>1176</ele>
        <time>2024-08-13T07:42:23Z</time>
      </trkpt>
      <trkpt lat="44.82168" lon="6.2276">
        <ele>1176</ele>
        <time>2024-08-13T07:42:24Z</time>
      </trkpt>
      <trkpt lat="44.82168" lon="6.2276">
        <ele>1176</ele>
        <time>2024-08-13T07:42:25Z</time>
      </trkpt>
      <trkpt lat="44.82167" lon="6.22758">
        <ele>1176</ele>
        <time>2024-08-13T07:42:26Z</time>
      </trkpt>
      <trkpt lat="44.82167" lon="6.22758">
        <ele>1176.2</ele>
        <time>2024-08-13T07:42:27Z</time>
      </trkpt>
      <trkpt lat="44.82165" lon="6.22753">
        <ele>1176.2</ele>
        <time>2024-08-13T07:42:28Z</time>
      </trkpt>
      <trkpt lat="44.82165" lon="6.22753">
        <ele>1176.2</ele>
        <time>2024-08-13T07:42:29Z</time>
      </trkpt>
      <trkpt lat="44.82163" lon="6.2275">
        <ele>1176.2</ele>
        <time>2024-08-13T07:42:30Z</time>
      </trkpt>
      <trkpt lat="44.82163" lon="6.2275">
        <ele>1176.2</ele>
        <time>2024-08-13T07:42:31Z</time>
      </trkpt>
      <trkpt lat="44.82161" lon="6.22748">
        <ele>1176.4</ele>
        <time>2024-08-13T07:42:32Z</time>
      </trkpt>
      <trkpt lat="44.82161" lon="6.22748">
        <ele>1176.6</ele>
        <time>2024-08-13T07:42:33Z</time>
      </trkpt>
      <trkpt lat="44.8216" lon="6.22745">
        <ele>1176.6</ele>
        <time>2024-08-13T07:42:34Z</time>
      </trkpt>
      <trkpt lat="44.8216" lon="6.22745">
        <ele>1176.6</ele>
        <time>2024-08-13T07:42:35Z</time>
      </trkpt>
      <trkpt lat="44.82159" lon="6.22742">
        <ele>1176.6</ele>
        <time>2024-08-13T07:42:36Z</time>
      </trkpt>
      <trkpt lat="44.82159" lon="6.22742">
        <ele>1176.8</ele>
        <time>2024-08-13T07:42:37Z</time>
      </trkpt>
      <trkpt lat="44.82157" lon="6.2274">
        <ele>1176.8</ele>
        <time>2024-08-13T07:42:38Z</time>
      </trkpt>
      <trkpt lat="44.82157" lon="6.2274">
        <ele>1176.8</ele>
        <time>2024-08-13T07:42:39Z</time>
      </trkpt>
      <trkpt lat="44.82156" lon="6.22738">
        <ele>1176.8</ele>
        <time>2024-08-13T07:42:40Z</time>
      </trkpt>
      <trkpt lat="44.82156" lon="6.22738">
        <ele>1177</ele>
        <time>2024-08-13T07:42:41Z</time>
      </trkpt>
      <trkpt lat="44.82155" lon="6.22736">
        <ele>1177.2</ele>
        <time>2024-08-13T07:42:42Z</time>
      </trkpt>
      <trkpt lat="44.82155" lon="6.22736">
        <ele>1177.2</ele>
        <time>2024-08-13T07:42:43Z</time>
      </trkpt>
      <trkpt lat="44.82153" lon="6.22732">
        <ele>1177.2</ele>
        <time>2024-08-13T07:42:44Z</time>
      </trkpt>
      <trkpt lat="44.82153" lon="6.22732">
        <ele>1177.4</ele>
        <time>2024-08-13T07:42:45Z</time>
      </trkpt>
      <trkpt lat="44.82153" lon="6.22729">
        <ele>1177.4</ele>
        <time>2024-08-13T07:42:46Z</time>
      </trkpt>
      <trkpt lat="44.82153" lon="6.22729">
        <ele>1177.4</ele>
        <time>2024-08-13T07:42:47Z</time>
      </trkpt>
      <trkpt lat="44.82152" lon="6.22727">
        <ele>1177.4</ele>
        <time>2024-08-13T07:42:48Z</time>
      </trkpt>
      <trkpt lat="44.82152" lon="6.22727">
        <ele>1177.6</ele>
        <time>2024-08-13T07:42:49Z</time>
      </trkpt>
      <trkpt lat="44.82151" lon="6.22724">
        <ele>1177.6</ele>
        <time>2024-08-13T07:42:50Z</time>
      </trkpt>
      <trkpt lat="44.82151" lon="6.22724">
        <ele>1177.6</ele>
        <time>2024-08-13T07:42:51Z</time>
      </trkpt>
      <trkpt lat="44.82149" lon="6.22721">
        <ele>1177.6</ele>
        <time>2024-08-13T07:42:52Z</time>
      </trkpt>
      <trkpt lat="44.82149" lon="6.22721">
        <ele>1177.4</ele>
        <time>2024-08-13T07:42:53Z</time>
      </trkpt>
      <trkpt lat="44.82148" lon="6.2272">
        <ele>1177.4</ele>
        <time>2024-08-13T07:42:54Z</time>
      </trkpt>
      <trkpt lat="44.82148" lon="6.2272">
        <ele>1177.4</ele>
        <time>2024-08-13T07:42:55Z</time>
      </trkpt>
      <trkpt lat="44.82147" lon="6.22718">
        <ele>1177.4</ele>
        <time>2024-08-13T07:42:56Z</time>
      </trkpt>
      <trkpt lat="44.82147" lon="6.22718">
        <ele>1177.4</ele>
        <time>2024-08-13T07:42:57Z</time>
      </trkpt>
      <trkpt lat="44.82144" lon="6.22716">
        <ele>1177.2</ele>
        <time>2024-08-13T07:42:58Z</time>
      </trkpt>
      <trkpt lat="44.82144" lon="6.22716">
        <ele>1177.2</ele>
        <time>2024-08-13T07:42:59Z</time>
      </trkpt>
      <trkpt lat="44.82143" lon="6.22713">
        <ele>1177.2</ele>
        <time>2024-08-13T07:43:00Z</time>
      </trkpt>
      <trkpt lat="44.82143" lon="6.22713">
        <ele>1177.2</ele>
        <time>2024-08-13T07:43:01Z</time>
      </trkpt>
      <trkpt lat="44.82141" lon="6.22711">
        <ele>1177.2</ele>
        <time>2024-08-13T07:43:02Z</time>
      </trkpt>
      <trkpt lat="44.82141" lon="6.22711">
        <ele>1177.2</ele>
        <time>2024-08-13T07:43:03Z</time>
      </trkpt>
      <trkpt lat="44.8214" lon="6.22709">
        <ele>1177.2</ele>
        <time>2024-08-13T07:43:04Z</time>
      </trkpt>
      <trkpt lat="44.8214" lon="6.22709">
        <ele>1177.4</ele>
        <time>2024-08-13T07:43:05Z</time>
      </trkpt>
      <trkpt lat="44.8214" lon="6.22709">
        <ele>1177.6</ele>
        <time>2024-08-13T07:43:06Z</time>
      </trkpt>
      <trkpt lat="44.82138" lon="6.22707">
        <ele>1177.6</ele>
        <time>2024-08-13T07:43:07Z</time>
      </trkpt>
      <trkpt lat="44.82138" lon="6.22707">
        <ele>1177.8</ele>
        <time>2024-08-13T07:43:08Z</time>
      </trkpt>
      <trkpt lat="44.82137" lon="6.22704">
        <ele>1178</ele>
        <time>2024-08-13T07:43:09Z</time>
      </trkpt>
      <trkpt lat="44.82135" lon="6.22702">
        <ele>1178</ele>
        <time>2024-08-13T07:43:10Z</time>
      </trkpt>
      <trkpt lat="44.82135" lon="6.22702">
        <ele>1178.2</ele>
        <time>2024-08-13T07:43:11Z</time>
      </trkpt>
      <trkpt lat="44.82134" lon="6.22699">
        <ele>1178.4</ele>
        <time>2024-08-13T07:43:12Z</time>
      </trkpt>
      <trkpt lat="44.82134" lon="6.22699">
        <ele>1178.4</ele>
        <time>2024-08-13T07:43:13Z</time>
      </trkpt>
      <trkpt lat="44.82133" lon="6.22696">
        <ele>1178.4</ele>
        <time>2024-08-13T07:43:14Z</time>
      </trkpt>
      <trkpt lat="44.82133" lon="6.22696">
        <ele>1178.4</ele>
        <time>2024-08-13T07:43:15Z</time>
      </trkpt>
      <trkpt lat="44.8213" lon="6.22695">
        <ele>1178.4</ele>
        <time>2024-08-13T07:43:16Z</time>
      </trkpt>
      <trkpt lat="44.8213" lon="6.22695">
        <ele>1178.6</ele>
        <time>2024-08-13T07:43:17Z</time>
      </trkpt>
      <trkpt lat="44.82128" lon="6.22694">
        <ele>1178.8</ele>
        <time>2024-08-13T07:43:18Z</time>
      </trkpt>
      <trkpt lat="44.82128" lon="6.22694">
        <ele>1178.8</ele>
        <time>2024-08-13T07:43:19Z</time>
      </trkpt>
      <trkpt lat="44.82126" lon="6.22692">
        <ele>1179.2</ele>
        <time>2024-08-13T07:43:20Z</time>
      </trkpt>
      <trkpt lat="44.82126" lon="6.22692">
        <ele>1179.2</ele>
        <time>2024-08-13T07:43:21Z</time>
      </trkpt>
      <trkpt lat="44.82123" lon="6.22691">
        <ele>1179.2</ele>
        <time>2024-08-13T07:43:22Z</time>
      </trkpt>
      <trkpt lat="44.82123" lon="6.22691">
        <ele>1179.2</ele>
        <time>2024-08-13T07:43:23Z</time>
      </trkpt>
      <trkpt lat="44.82122" lon="6.22688">
        <ele>1179.2</ele>
        <time>2024-08-13T07:43:24Z</time>
      </trkpt>
      <trkpt lat="44.82122" lon="6.22688">
        <ele>1179.2</ele>
        <time>2024-08-13T07:43:25Z</time>
      </trkpt>
      <trkpt lat="44.82121" lon="6.22686">
        <ele>1179</ele>
        <time>2024-08-13T07:43:26Z</time>
      </trkpt>
      <trkpt lat="44.82119" lon="6.22685">
        <ele>1179</ele>
        <time>2024-08-13T07:43:27Z</time>
      </trkpt>
      <trkpt lat="44.82119" lon="6.22685">
        <ele>1179</ele>
        <time>2024-08-13T07:43:28Z</time>
      </trkpt>
      <trkpt lat="44.82117" lon="6.22683">
        <ele>1179</ele>
        <time>2024-08-13T07:43:29Z</time>
      </trkpt>
      <trkpt lat="44.82117" lon="6.22683">
        <ele>1179</ele>
        <time>2024-08-13T07:43:30Z</time>
      </trkpt>
      <trkpt lat="44.82115" lon="6.22681">
        <ele>1179</ele>
        <time>2024-08-13T07:43:31Z</time>
      </trkpt>
      <trkpt lat="44.82115" lon="6.22681">
        <ele>1179</ele>
        <time>2024-08-13T07:43:32Z</time>
      </trkpt>
      <trkpt lat="44.82113" lon="6.22679">
        <ele>1179.4</ele>
        <time>2024-08-13T07:43:33Z</time>
      </trkpt>
      <trkpt lat="44.82113" lon="6.22679">
        <ele>1179.4</ele>
        <time>2024-08-13T07:43:34Z</time>
      </trkpt>
      <trkpt lat="44.82111" lon="6.22677">
        <ele>1179.6</ele>
        <time>2024-08-13T07:43:35Z</time>
      </trkpt>
      <trkpt lat="44.82111" lon="6.22677">
        <ele>1179.6</ele>
        <time>2024-08-13T07:43:36Z</time>
      </trkpt>
      <trkpt lat="44.82108" lon="6.22676">
        <ele>1179.8</ele>
        <time>2024-08-13T07:43:37Z</time>
      </trkpt>
      <trkpt lat="44.82108" lon="6.22676">
        <ele>1179.6</ele>
        <time>2024-08-13T07:43:38Z</time>
      </trkpt>
      <trkpt lat="44.82106" lon="6.22675">
        <ele>1179.6</ele>
        <time>2024-08-13T07:43:39Z</time>
      </trkpt>
      <trkpt lat="44.82106" lon="6.22675">
        <ele>1179.6</ele>
        <time>2024-08-13T07:43:40Z</time>
      </trkpt>
      <trkpt lat="44.82106" lon="6.22675">
        <ele>1179.8</ele>
        <time>2024-08-13T07:43:41Z</time>
      </trkpt>
      <trkpt lat="44.82103" lon="6.22672">
        <ele>1180</ele>
        <time>2024-08-13T07:43:42Z</time>
      </trkpt>
      <trkpt lat="44.82103" lon="6.22672">
        <ele>1180</ele>
        <time>2024-08-13T07:43:43Z</time>
      </trkpt>
      <trkpt lat="44.82101" lon="6.22671">
        <ele>1180</ele>
        <time>2024-08-13T07:43:44Z</time>
      </trkpt>
      <trkpt lat="44.82101" lon="6.22671">
        <ele>1180</ele>
        <time>2024-08-13T07:43:45Z</time>
      </trkpt>
      <trkpt lat="44.82101" lon="6.22671">
        <ele>1180</ele>
        <time>2024-08-13T07:43:46Z</time>
      </trkpt>
      <trkpt lat="44.82099" lon="6.22668">
        <ele>1180.2</ele>
        <time>2024-08-13T07:43:47Z</time>
      </trkpt>
      <trkpt lat="44.82099" lon="6.22668">
        <ele>1180.2</ele>
        <time>2024-08-13T07:43:48Z</time>
      </trkpt>
      <trkpt lat="44.82097" lon="6.22666">
        <ele>1180.2</ele>
        <time>2024-08-13T07:43:49Z</time>
      </trkpt>
      <trkpt lat="44.82097" lon="6.22666">
        <ele>1180</ele>
        <time>2024-08-13T07:43:50Z</time>
      </trkpt>
      <trkpt lat="44.82095" lon="6.22664">
        <ele>1180</ele>
        <time>2024-08-13T07:43:51Z</time>
      </trkpt>
      <trkpt lat="44.82095" lon="6.22664">
        <ele>1180</ele>
        <time>2024-08-13T07:43:52Z</time>
      </trkpt>
      <trkpt lat="44.82093" lon="6.22662">
        <ele>1180</ele>
        <time>2024-08-13T07:43:53Z</time>
      </trkpt>
      <trkpt lat="44.82093" lon="6.22662">
        <ele>1180</ele>
        <time>2024-08-13T07:43:54Z</time>
      </trkpt>
      <trkpt lat="44.82092" lon="6.2266">
        <ele>1180</ele>
        <time>2024-08-13T07:43:55Z</time>
      </trkpt>
      <trkpt lat="44.82092" lon="6.2266">
        <ele>1180</ele>
        <time>2024-08-13T07:43:56Z</time>
      </trkpt>
      <trkpt lat="44.8209" lon="6.22659">
        <ele>1180</ele>
        <time>2024-08-13T07:43:57Z</time>
      </trkpt>
      <trkpt lat="44.8209" lon="6.22659">
        <ele>1180</ele>
        <time>2024-08-13T07:43:58Z</time>
      </trkpt>
      <trkpt lat="44.82088" lon="6.22658">
        <ele>1180.2</ele>
        <time>2024-08-13T07:43:59Z</time>
      </trkpt>
      <trkpt lat="44.82088" lon="6.22658">
        <ele>1180.2</ele>
        <time>2024-08-13T07:44:00Z</time>
      </trkpt>
      <trkpt lat="44.82088" lon="6.22658">
        <ele>1180.2</ele>
        <time>2024-08-13T07:44:01Z</time>
      </trkpt>
      <trkpt lat="44.82085" lon="6.22656">
        <ele>1180.2</ele>
        <time>2024-08-13T07:44:02Z</time>
      </trkpt>
      <trkpt lat="44.82085" lon="6.22656">
        <ele>1180.2</ele>
        <time>2024-08-13T07:44:03Z</time>
      </trkpt>
      <trkpt lat="44.82084" lon="6.22655">
        <ele>1180</ele>
        <time>2024-08-13T07:44:04Z</time>
      </trkpt>
      <trkpt lat="44.82084" lon="6.22655">
        <ele>1179.8</ele>
        <time>2024-08-13T07:44:05Z</time>
      </trkpt>
      <trkpt lat="44.82082" lon="6.22652">
        <ele>1179.8</ele>
        <time>2024-08-13T07:44:06Z</time>
      </trkpt>
      <trkpt lat="44.82082" lon="6.22652">
        <ele>1179.8</ele>
        <time>2024-08-13T07:44:07Z</time>
      </trkpt>
      <trkpt lat="44.82081" lon="6.22649">
        <ele>1179.6</ele>
        <time>2024-08-13T07:44:08Z</time>
      </trkpt>
      <trkpt lat="44.82081" lon="6.22649">
        <ele>1179.6</ele>
        <time>2024-08-13T07:44:09Z</time>
      </trkpt>
      <trkpt lat="44.8208" lon="6.22647">
        <ele>1179.6</ele>
        <time>2024-08-13T07:44:10Z</time>
      </trkpt>
      <trkpt lat="44.8208" lon="6.22647">
        <ele>1179.6</ele>
        <time>2024-08-13T07:44:11Z</time>
      </trkpt>
      <trkpt lat="44.82079" lon="6.22644">
        <ele>1179.6</ele>
        <time>2024-08-13T07:44:12Z</time>
      </trkpt>
      <trkpt lat="44.82079" lon="6.22644">
        <ele>1179.6</ele>
        <time>2024-08-13T07:44:13Z</time>
      </trkpt>
      <trkpt lat="44.82078" lon="6.22641">
        <ele>1179.6</ele>
        <time>2024-08-13T07:44:14Z</time>
      </trkpt>
      <trkpt lat="44.82078" lon="6.22641">
        <ele>1179.6</ele>
        <time>2024-08-13T07:44:15Z</time>
      </trkpt>
      <trkpt lat="44.82078" lon="6.22638">
        <ele>1179.8</ele>
        <time>2024-08-13T07:44:16Z</time>
      </trkpt>
      <trkpt lat="44.82078" lon="6.22638">
        <ele>1180</ele>
        <time>2024-08-13T07:44:17Z</time>
      </trkpt>
      <trkpt lat="44.82078" lon="6.22635">
        <ele>1180</ele>
        <time>2024-08-13T07:44:18Z</time>
      </trkpt>
      <trkpt lat="44.82078" lon="6.22635">
        <ele>1180</ele>
        <time>2024-08-13T07:44:19Z</time>
      </trkpt>
      <trkpt lat="44.82078" lon="6.22635">
        <ele>1180</ele>
        <time>2024-08-13T07:44:20Z</time>
      </trkpt>
      <trkpt lat="44.82077" lon="6.22632">
        <ele>1180.2</ele>
        <time>2024-08-13T07:44:21Z</time>
      </trkpt>
      <trkpt lat="44.82077" lon="6.22632">
        <ele>1180.2</ele>
        <time>2024-08-13T07:44:22Z</time>
      </trkpt>
      <trkpt lat="44.82077" lon="6.22629">
        <ele>1180.6</ele>
        <time>2024-08-13T07:44:23Z</time>
      </trkpt>
      <trkpt lat="44.82077" lon="6.22629">
        <ele>1180.6</ele>
        <time>2024-08-13T07:44:24Z</time>
      </trkpt>
      <trkpt lat="44.82076" lon="6.22627">
        <ele>1180.8</ele>
        <time>2024-08-13T07:44:25Z</time>
      </trkpt>
      <trkpt lat="44.82076" lon="6.22627">
        <ele>1181</ele>
        <time>2024-08-13T07:44:26Z</time>
      </trkpt>
      <trkpt lat="44.82076" lon="6.22623">
        <ele>1181</ele>
        <time>2024-08-13T07:44:27Z</time>
      </trkpt>
      <trkpt lat="44.82076" lon="6.22623">
        <ele>1181</ele>
        <time>2024-08-13T07:44:28Z</time>
      </trkpt>
      <trkpt lat="44.82076" lon="6.22618">
        <ele>1181</ele>
        <time>2024-08-13T07:44:29Z</time>
      </trkpt>
      <trkpt lat="44.82076" lon="6.22618">
        <ele>1181</ele>
        <time>2024-08-13T07:44:30Z</time>
      </trkpt>
      <trkpt lat="44.82075" lon="6.22615">
        <ele>1181.2</ele>
        <time>2024-08-13T07:44:31Z</time>
      </trkpt>
      <trkpt lat="44.82075" lon="6.22615">
        <ele>1181.4</ele>
        <time>2024-08-13T07:44:32Z</time>
      </trkpt>
      <trkpt lat="44.82076" lon="6.22612">
        <ele>1181.6</ele>
        <time>2024-08-13T07:44:33Z</time>
      </trkpt>
      <trkpt lat="44.82077" lon="6.22609">
        <ele>1181.6</ele>
        <time>2024-08-13T07:44:34Z</time>
      </trkpt>
      <trkpt lat="44.82077" lon="6.22608">
        <ele>1181.6</ele>
        <time>2024-08-13T07:44:35Z</time>
      </trkpt>
      <trkpt lat="44.82078" lon="6.22606">
        <ele>1181.8</ele>
        <time>2024-08-13T07:44:36Z</time>
      </trkpt>
      <trkpt lat="44.82078" lon="6.22604">
        <ele>1181.8</ele>
        <time>2024-08-13T07:44:37Z</time>
      </trkpt>
      <trkpt lat="44.82079" lon="6.22602">
        <ele>1181.6</ele>
        <time>2024-08-13T07:44:38Z</time>
      </trkpt>
      <trkpt lat="44.82079" lon="6.22602">
        <ele>1181.6</ele>
        <time>2024-08-13T07:44:39Z</time>
      </trkpt>
      <trkpt lat="44.8208" lon="6.22598">
        <ele>1181.6</ele>
        <time>2024-08-13T07:44:40Z</time>
      </trkpt>
      <trkpt lat="44.8208" lon="6.22598">
        <ele>1181.6</ele>
        <time>2024-08-13T07:44:41Z</time>
      </trkpt>
      <trkpt lat="44.8208" lon="6.22594">
        <ele>1181.6</ele>
        <time>2024-08-13T07:44:42Z</time>
      </trkpt>
      <trkpt lat="44.8208" lon="6.22594">
        <ele>1181.8</ele>
        <time>2024-08-13T07:44:43Z</time>
      </trkpt>
      <trkpt lat="44.8208" lon="6.22591">
        <ele>1181.8</ele>
        <time>2024-08-13T07:44:44Z</time>
      </trkpt>
      <trkpt lat="44.8208" lon="6.22591">
        <ele>1182</ele>
        <time>2024-08-13T07:44:45Z</time>
      </trkpt>
      <trkpt lat="44.82081" lon="6.22588">
        <ele>1182</ele>
        <time>2024-08-13T07:44:46Z</time>
      </trkpt>
      <trkpt lat="44.82081" lon="6.22588">
        <ele>1182.4</ele>
        <time>2024-08-13T07:44:47Z</time>
      </trkpt>
      <trkpt lat="44.8208" lon="6.22586">
        <ele>1183</ele>
        <time>2024-08-13T07:44:48Z</time>
      </trkpt>
      <trkpt lat="44.8208" lon="6.22586">
        <ele>1183.2</ele>
        <time>2024-08-13T07:44:49Z</time>
      </trkpt>
      <trkpt lat="44.8208" lon="6.22583">
        <ele>1183.2</ele>
        <time>2024-08-13T07:44:50Z</time>
      </trkpt>
      <trkpt lat="44.8208" lon="6.22583">
        <ele>1183.2</ele>
        <time>2024-08-13T07:44:51Z</time>
      </trkpt>
      <trkpt lat="44.82079" lon="6.2258">
        <ele>1183.4</ele>
        <time>2024-08-13T07:44:52Z</time>
      </trkpt>
      <trkpt lat="44.82079" lon="6.2258">
        <ele>1183.6</ele>
        <time>2024-08-13T07:44:53Z</time>
      </trkpt>
      <trkpt lat="44.82078" lon="6.22577">
        <ele>1183.6</ele>
        <time>2024-08-13T07:44:54Z</time>
      </trkpt>
      <trkpt lat="44.82078" lon="6.22577">
        <ele>1183.6</ele>
        <time>2024-08-13T07:44:55Z</time>
      </trkpt>
      <trkpt lat="44.82078" lon="6.22577">
        <ele>1183.6</ele>
        <time>2024-08-13T07:44:56Z</time>
      </trkpt>
      <trkpt lat="44.82078" lon="6.22573">
        <ele>1183.8</ele>
        <time>2024-08-13T07:44:57Z</time>
      </trkpt>
      <trkpt lat="44.82078" lon="6.22573">
        <ele>1184.2</ele>
        <time>2024-08-13T07:44:58Z</time>
      </trkpt>
      <trkpt lat="44.82079" lon="6.2257">
        <ele>1184.2</ele>
        <time>2024-08-13T07:44:59Z</time>
      </trkpt>
      <trkpt lat="44.82079" lon="6.2257">
        <ele>1184.2</ele>
        <time>2024-08-13T07:45:00Z</time>
      </trkpt>
      <trkpt lat="44.82079" lon="6.22568">
        <ele>1184.4</ele>
        <time>2024-08-13T07:45:01Z</time>
      </trkpt>
      <trkpt lat="44.82079" lon="6.22568">
        <ele>1184.6</ele>
        <time>2024-08-13T07:45:02Z</time>
      </trkpt>
      <trkpt lat="44.82079" lon="6.22568">
        <ele>1184.6</ele>
        <time>2024-08-13T07:45:03Z</time>
      </trkpt>
      <trkpt lat="44.8208" lon="6.22563">
        <ele>1184.6</ele>
        <time>2024-08-13T07:45:04Z</time>
      </trkpt>
      <trkpt lat="44.8208" lon="6.22563">
        <ele>1184.6</ele>
        <time>2024-08-13T07:45:05Z</time>
      </trkpt>
      <trkpt lat="44.82082" lon="6.2256">
        <ele>1184.6</ele>
        <time>2024-08-13T07:45:06Z</time>
      </trkpt>
      <trkpt lat="44.82082" lon="6.2256">
        <ele>1184.6</ele>
        <time>2024-08-13T07:45:07Z</time>
      </trkpt>
      <trkpt lat="44.82082" lon="6.22557">
        <ele>1184.4</ele>
        <time>2024-08-13T07:45:08Z</time>
      </trkpt>
      <trkpt lat="44.82082" lon="6.22557">
        <ele>1184.4</ele>
        <time>2024-08-13T07:45:09Z</time>
      </trkpt>
      <trkpt lat="44.82082" lon="6.22554">
        <ele>1184.4</ele>
        <time>2024-08-13T07:45:10Z</time>
      </trkpt>
      <trkpt lat="44.82082" lon="6.22554">
        <ele>1184.4</ele>
        <time>2024-08-13T07:45:11Z</time>
      </trkpt>
      <trkpt lat="44.82082" lon="6.22554">
        <ele>1184.4</ele>
        <time>2024-08-13T07:45:12Z</time>
      </trkpt>
      <trkpt lat="44.82082" lon="6.2255">
        <ele>1184.6</ele>
        <time>2024-08-13T07:45:13Z</time>
      </trkpt>
      <trkpt lat="44.82082" lon="6.2255">
        <ele>1184.6</ele>
        <time>2024-08-13T07:45:14Z</time>
      </trkpt>
      <trkpt lat="44.82082" lon="6.2255">
        <ele>1184.8</ele>
        <time>2024-08-13T07:45:15Z</time>
      </trkpt>
      <trkpt lat="44.82082" lon="6.22547">
        <ele>1184.8</ele>
        <time>2024-08-13T07:45:16Z</time>
      </trkpt>
      <trkpt lat="44.82082" lon="6.22547">
        <ele>1184.8</ele>
        <time>2024-08-13T07:45:17Z</time>
      </trkpt>
      <trkpt lat="44.82082" lon="6.22547">
        <ele>1184.6</ele>
        <time>2024-08-13T07:45:18Z</time>
      </trkpt>
      <trkpt lat="44.82082" lon="6.22544">
        <ele>1184.6</ele>
        <time>2024-08-13T07:45:19Z</time>
      </trkpt>
      <trkpt lat="44.82082" lon="6.22544">
        <ele>1184.2</ele>
        <time>2024-08-13T07:45:20Z</time>
      </trkpt>
      <trkpt lat="44.82082" lon="6.22544">
        <ele>1184</ele>
        <time>2024-08-13T07:45:21Z</time>
      </trkpt>
      <trkpt lat="44.8208" lon="6.22541">
        <ele>1184</ele>
        <time>2024-08-13T07:45:22Z</time>
      </trkpt>
      <trkpt lat="44.8208" lon="6.22541">
        <ele>1183.8</ele>
        <time>2024-08-13T07:45:23Z</time>
      </trkpt>
      <trkpt lat="44.8208" lon="6.22538">
        <ele>1183.4</ele>
        <time>2024-08-13T07:45:24Z</time>
      </trkpt>
      <trkpt lat="44.8208" lon="6.22538">
        <ele>1183.2</ele>
        <time>2024-08-13T07:45:25Z</time>
      </trkpt>
      <trkpt lat="44.8208" lon="6.22535">
        <ele>1183</ele>
        <time>2024-08-13T07:45:26Z</time>
      </trkpt>
      <trkpt lat="44.8208" lon="6.22535">
        <ele>1182.8</ele>
        <time>2024-08-13T07:45:27Z</time>
      </trkpt>
      <trkpt lat="44.8208" lon="6.22535">
        <ele>1182.8</ele>
        <time>2024-08-13T07:45:28Z</time>
      </trkpt>
      <trkpt lat="44.82079" lon="6.22532">
        <ele>1182.8</ele>
        <time>2024-08-13T07:45:29Z</time>
      </trkpt>
      <trkpt lat="44.82079" lon="6.22532">
        <ele>1182.8</ele>
        <time>2024-08-13T07:45:30Z</time>
      </trkpt>
      <trkpt lat="44.82079" lon="6.22532">
        <ele>1182.8</ele>
        <time>2024-08-13T07:45:31Z</time>
      </trkpt>
      <trkpt lat="44.82079" lon="6.22528">
        <ele>1182.4</ele>
        <time>2024-08-13T07:45:32Z</time>
      </trkpt>
      <trkpt lat="44.82079" lon="6.22528">
        <ele>1182.4</ele>
        <time>2024-08-13T07:45:33Z</time>
      </trkpt>
      <trkpt lat="44.82078" lon="6.22526">
        <ele>1182.4</ele>
        <time>2024-08-13T07:45:34Z</time>
      </trkpt>
      <trkpt lat="44.82078" lon="6.22526">
        <ele>1182.4</ele>
        <time>2024-08-13T07:45:35Z</time>
      </trkpt>
      <trkpt lat="44.82078" lon="6.22526">
        <ele>1182.4</ele>
        <time>2024-08-13T07:45:36Z</time>
      </trkpt>
      <trkpt lat="44.82078" lon="6.22522">
        <ele>1182.4</ele>
        <time>2024-08-13T07:45:37Z</time>
      </trkpt>
      <trkpt lat="44.82078" lon="6.22522">
        <ele>1182.4</ele>
        <time>2024-08-13T07:45:38Z</time>
      </trkpt>
      <trkpt lat="44.82078" lon="6.22519">
        <ele>1182.6</ele>
        <time>2024-08-13T07:45:39Z</time>
      </trkpt>
      <trkpt lat="44.82078" lon="6.22519">
        <ele>1182.6</ele>
        <time>2024-08-13T07:45:40Z</time>
      </trkpt>
      <trkpt lat="44.82078" lon="6.22516">
        <ele>1182.6</ele>
        <time>2024-08-13T07:45:41Z</time>
      </trkpt>
      <trkpt lat="44.82078" lon="6.22516">
        <ele>1182.6</ele>
        <time>2024-08-13T07:45:42Z</time>
      </trkpt>
      <trkpt lat="44.82078" lon="6.22512">
        <ele>1182.6</ele>
        <time>2024-08-13T07:45:43Z</time>
      </trkpt>
      <trkpt lat="44.82078" lon="6.22512">
        <ele>1182.6</ele>
        <time>2024-08-13T07:45:44Z</time>
      </trkpt>
      <trkpt lat="44.82078" lon="6.22509">
        <ele>1182.6</ele>
        <time>2024-08-13T07:45:45Z</time>
      </trkpt>
      <trkpt lat="44.82078" lon="6.22509">
        <ele>1182.6</ele>
        <time>2024-08-13T07:45:46Z</time>
      </trkpt>
      <trkpt lat="44.82078" lon="6.22505">
        <ele>1182.2</ele>
        <time>2024-08-13T07:45:47Z</time>
      </trkpt>
      <trkpt lat="44.82078" lon="6.22505">
        <ele>1182</ele>
        <time>2024-08-13T07:45:48Z</time>
      </trkpt>
      <trkpt lat="44.82077" lon="6.22503">
        <ele>1182</ele>
        <time>2024-08-13T07:45:49Z</time>
      </trkpt>
      <trkpt lat="44.82077" lon="6.22503">
        <ele>1182</ele>
        <time>2024-08-13T07:45:50Z</time>
      </trkpt>
      <trkpt lat="44.82077" lon="6.225">
        <ele>1182</ele>
        <time>2024-08-13T07:45:51Z</time>
      </trkpt>
      <trkpt lat="44.82077" lon="6.225">
        <ele>1182.6</ele>
        <time>2024-08-13T07:45:52Z</time>
      </trkpt>
      <trkpt lat="44.82077" lon="6.22497">
        <ele>1182.6</ele>
        <time>2024-08-13T07:45:53Z</time>
      </trkpt>
      <trkpt lat="44.82077" lon="6.22497">
        <ele>1182.6</ele>
        <time>2024-08-13T07:45:54Z</time>
      </trkpt>
      <trkpt lat="44.82076" lon="6.22494">
        <ele>1182.8</ele>
        <time>2024-08-13T07:45:55Z</time>
      </trkpt>
      <trkpt lat="44.82076" lon="6.22494">
        <ele>1183</ele>
        <time>2024-08-13T07:45:56Z</time>
      </trkpt>
      <trkpt lat="44.82076" lon="6.2249">
        <ele>1183</ele>
        <time>2024-08-13T07:45:57Z</time>
      </trkpt>
      <trkpt lat="44.82076" lon="6.2249">
        <ele>1182.8</ele>
        <time>2024-08-13T07:45:58Z</time>
      </trkpt>
      <trkpt lat="44.82076" lon="6.2249">
        <ele>1182.8</ele>
        <time>2024-08-13T07:45:59Z</time>
      </trkpt>
      <trkpt lat="44.82076" lon="6.22487">
        <ele>1182.8</ele>
        <time>2024-08-13T07:46:00Z</time>
      </trkpt>
      <trkpt lat="44.82076" lon="6.22487">
        <ele>1183</ele>
        <time>2024-08-13T07:46:01Z</time>
      </trkpt>
      <trkpt lat="44.82075" lon="6.22484">
        <ele>1183</ele>
        <time>2024-08-13T07:46:02Z</time>
      </trkpt>
      <trkpt lat="44.82075" lon="6.22484">
        <ele>1183</ele>
        <time>2024-08-13T07:46:03Z</time>
      </trkpt>
      <trkpt lat="44.82073" lon="6.22481">
        <ele>1183</ele>
        <time>2024-08-13T07:46:04Z</time>
      </trkpt>
      <trkpt lat="44.82073" lon="6.22481">
        <ele>1182.8</ele>
        <time>2024-08-13T07:46:05Z</time>
      </trkpt>
      <trkpt lat="44.82071" lon="6.22478">
        <ele>1182.8</ele>
        <time>2024-08-13T07:46:06Z</time>
      </trkpt>
      <trkpt lat="44.82071" lon="6.22478">
        <ele>1182.8</ele>
        <time>2024-08-13T07:46:07Z</time>
      </trkpt>
      <trkpt lat="44.8207" lon="6.22475">
        <ele>1182.8</ele>
        <time>2024-08-13T07:46:08Z</time>
      </trkpt>
      <trkpt lat="44.8207" lon="6.22475">
        <ele>1182.6</ele>
        <time>2024-08-13T07:46:09Z</time>
      </trkpt>
      <trkpt lat="44.82069" lon="6.22472">
        <ele>1182.6</ele>
        <time>2024-08-13T07:46:10Z</time>
      </trkpt>
      <trkpt lat="44.82069" lon="6.22472">
        <ele>1182.4</ele>
        <time>2024-08-13T07:46:11Z</time>
      </trkpt>
      <trkpt lat="44.82068" lon="6.22469">
        <ele>1182.4</ele>
        <time>2024-08-13T07:46:12Z</time>
      </trkpt>
      <trkpt lat="44.82068" lon="6.22469">
        <ele>1182.4</ele>
        <time>2024-08-13T07:46:13Z</time>
      </trkpt>
      <trkpt lat="44.82067" lon="6.22466">
        <ele>1182.6</ele>
        <time>2024-08-13T07:46:14Z</time>
      </trkpt>
      <trkpt lat="44.82067" lon="6.22466">
        <ele>1182.6</ele>
        <time>2024-08-13T07:46:15Z</time>
      </trkpt>
      <trkpt lat="44.82066" lon="6.22462">
        <ele>1182.6</ele>
        <time>2024-08-13T07:46:16Z</time>
      </trkpt>
      <trkpt lat="44.82066" lon="6.22462">
        <ele>1182.6</ele>
        <time>2024-08-13T07:46:17Z</time>
      </trkpt>
      <trkpt lat="44.82065" lon="6.22459">
        <ele>1182.6</ele>
        <time>2024-08-13T07:46:18Z</time>
      </trkpt>
      <trkpt lat="44.82065" lon="6.22459">
        <ele>1182.4</ele>
        <time>2024-08-13T07:46:19Z</time>
      </trkpt>
      <trkpt lat="44.82064" lon="6.22455">
        <ele>1182.4</ele>
        <time>2024-08-13T07:46:20Z</time>
      </trkpt>
      <trkpt lat="44.82064" lon="6.22455">
        <ele>1182.4</ele>
        <time>2024-08-13T07:46:21Z</time>
      </trkpt>
      <trkpt lat="44.82063" lon="6.22452">
        <ele>1182.2</ele>
        <time>2024-08-13T07:46:22Z</time>
      </trkpt>
      <trkpt lat="44.82063" lon="6.22452">
        <ele>1181.8</ele>
        <time>2024-08-13T07:46:23Z</time>
      </trkpt>
      <trkpt lat="44.82062" lon="6.22448">
        <ele>1181.8</ele>
        <time>2024-08-13T07:46:24Z</time>
      </trkpt>
      <trkpt lat="44.82062" lon="6.22448">
        <ele>1181.8</ele>
        <time>2024-08-13T07:46:25Z</time>
      </trkpt>
      <trkpt lat="44.82061" lon="6.22444">
        <ele>1181.6</ele>
        <time>2024-08-13T07:46:26Z</time>
      </trkpt>
      <trkpt lat="44.82061" lon="6.22444">
        <ele>1181.6</ele>
        <time>2024-08-13T07:46:27Z</time>
      </trkpt>
      <trkpt lat="44.8206" lon="6.22441">
        <ele>1181.6</ele>
        <time>2024-08-13T07:46:28Z</time>
      </trkpt>
      <trkpt lat="44.8206" lon="6.22441">
        <ele>1181.4</ele>
        <time>2024-08-13T07:46:29Z</time>
      </trkpt>
      <trkpt lat="44.8206" lon="6.22437">
        <ele>1181.2</ele>
        <time>2024-08-13T07:46:30Z</time>
      </trkpt>
      <trkpt lat="44.8206" lon="6.22437">
        <ele>1181.2</ele>
        <time>2024-08-13T07:46:31Z</time>
      </trkpt>
      <trkpt lat="44.82058" lon="6.22434">
        <ele>1181.2</ele>
        <time>2024-08-13T07:46:32Z</time>
      </trkpt>
      <trkpt lat="44.82058" lon="6.22434">
        <ele>1181.2</ele>
        <time>2024-08-13T07:46:33Z</time>
      </trkpt>
      <trkpt lat="44.82057" lon="6.2243">
        <ele>1181</ele>
        <time>2024-08-13T07:46:34Z</time>
      </trkpt>
      <trkpt lat="44.82057" lon="6.2243">
        <ele>1181</ele>
        <time>2024-08-13T07:46:35Z</time>
      </trkpt>
      <trkpt lat="44.82057" lon="6.22426">
        <ele>1181</ele>
        <time>2024-08-13T07:46:36Z</time>
      </trkpt>
      <trkpt lat="44.82057" lon="6.22426">
        <ele>1181</ele>
        <time>2024-08-13T07:46:37Z</time>
      </trkpt>
      <trkpt lat="44.82056" lon="6.22423">
        <ele>1181</ele>
        <time>2024-08-13T07:46:38Z</time>
      </trkpt>
      <trkpt lat="44.82056" lon="6.22423">
        <ele>1181</ele>
        <time>2024-08-13T07:46:39Z</time>
      </trkpt>
      <trkpt lat="44.82055" lon="6.22419">
        <ele>1181</ele>
        <time>2024-08-13T07:46:40Z</time>
      </trkpt>
      <trkpt lat="44.82055" lon="6.22419">
        <ele>1180.8</ele>
        <time>2024-08-13T07:46:41Z</time>
      </trkpt>
      <trkpt lat="44.82053" lon="6.22416">
        <ele>1180.8</ele>
        <time>2024-08-13T07:46:42Z</time>
      </trkpt>
      <trkpt lat="44.82053" lon="6.22416">
        <ele>1180.8</ele>
        <time>2024-08-13T07:46:43Z</time>
      </trkpt>
      <trkpt lat="44.82052" lon="6.22413">
        <ele>1180.8</ele>
        <time>2024-08-13T07:46:44Z</time>
      </trkpt>
      <trkpt lat="44.82052" lon="6.22413">
        <ele>1180.8</ele>
        <time>2024-08-13T07:46:45Z</time>
      </trkpt>
      <trkpt lat="44.82051" lon="6.22409">
        <ele>1180.4</ele>
        <time>2024-08-13T07:46:46Z</time>
      </trkpt>
      <trkpt lat="44.82051" lon="6.22409">
        <ele>1180.4</ele>
        <time>2024-08-13T07:46:47Z</time>
      </trkpt>
      <trkpt lat="44.82051" lon="6.22406">
        <ele>1180.6</ele>
        <time>2024-08-13T07:46:48Z</time>
      </trkpt>
      <trkpt lat="44.82051" lon="6.22406">
        <ele>1180.8</ele>
        <time>2024-08-13T07:46:49Z</time>
      </trkpt>
      <trkpt lat="44.8205" lon="6.22404">
        <ele>1180.8</ele>
        <time>2024-08-13T07:46:50Z</time>
      </trkpt>
      <trkpt lat="44.8205" lon="6.22404">
        <ele>1180.6</ele>
        <time>2024-08-13T07:46:51Z</time>
      </trkpt>
      <trkpt lat="44.82049" lon="6.22401">
        <ele>1180.4</ele>
        <time>2024-08-13T07:46:52Z</time>
      </trkpt>
      <trkpt lat="44.82049" lon="6.22401">
        <ele>1180.4</ele>
        <time>2024-08-13T07:46:53Z</time>
      </trkpt>
      <trkpt lat="44.82047" lon="6.22398">
        <ele>1180.4</ele>
        <time>2024-08-13T07:46:54Z</time>
      </trkpt>
      <trkpt lat="44.82047" lon="6.22398">
        <ele>1180.4</ele>
        <time>2024-08-13T07:46:55Z</time>
      </trkpt>
      <trkpt lat="44.82046" lon="6.22395">
        <ele>1180.2</ele>
        <time>2024-08-13T07:46:56Z</time>
      </trkpt>
      <trkpt lat="44.82046" lon="6.22395">
        <ele>1180.2</ele>
        <time>2024-08-13T07:46:57Z</time>
      </trkpt>
      <trkpt lat="44.82045" lon="6.22392">
        <ele>1180.2</ele>
        <time>2024-08-13T07:46:58Z</time>
      </trkpt>
      <trkpt lat="44.82045" lon="6.22392">
        <ele>1180.2</ele>
        <time>2024-08-13T07:46:59Z</time>
      </trkpt>
      <trkpt lat="44.82044" lon="6.22388">
        <ele>1180</ele>
        <time>2024-08-13T07:47:00Z</time>
      </trkpt>
      <trkpt lat="44.82044" lon="6.22388">
        <ele>1179.6</ele>
        <time>2024-08-13T07:47:01Z</time>
      </trkpt>
      <trkpt lat="44.82042" lon="6.22385">
        <ele>1179.8</ele>
        <time>2024-08-13T07:47:02Z</time>
      </trkpt>
      <trkpt lat="44.82042" lon="6.22385">
        <ele>1179.8</ele>
        <time>2024-08-13T07:47:03Z</time>
      </trkpt>
      <trkpt lat="44.8204" lon="6.22383">
        <ele>1179.6</ele>
        <time>2024-08-13T07:47:04Z</time>
      </trkpt>
      <trkpt lat="44.8204" lon="6.22383">
        <ele>1179.4</ele>
        <time>2024-08-13T07:47:05Z</time>
      </trkpt>
      <trkpt lat="44.82039" lon="6.2238">
        <ele>1179.4</ele>
        <time>2024-08-13T07:47:06Z</time>
      </trkpt>
      <trkpt lat="44.82039" lon="6.2238">
        <ele>1179.4</ele>
        <time>2024-08-13T07:47:07Z</time>
      </trkpt>
      <trkpt lat="44.82037" lon="6.22378">
        <ele>1179.4</ele>
        <time>2024-08-13T07:47:08Z</time>
      </trkpt>
      <trkpt lat="44.82037" lon="6.22378">
        <ele>1179.4</ele>
        <time>2024-08-13T07:47:09Z</time>
      </trkpt>
      <trkpt lat="44.82036" lon="6.22376">
        <ele>1179</ele>
        <time>2024-08-13T07:47:10Z</time>
      </trkpt>
      <trkpt lat="44.82036" lon="6.22376">
        <ele>1178.8</ele>
        <time>2024-08-13T07:47:11Z</time>
      </trkpt>
      <trkpt lat="44.82035" lon="6.22372">
        <ele>1178.6</ele>
        <time>2024-08-13T07:47:12Z</time>
      </trkpt>
      <trkpt lat="44.82035" lon="6.22372">
        <ele>1178.6</ele>
        <time>2024-08-13T07:47:13Z</time>
      </trkpt>
      <trkpt lat="44.82034" lon="6.22368">
        <ele>1178.4</ele>
        <time>2024-08-13T07:47:14Z</time>
      </trkpt>
      <trkpt lat="44.82034" lon="6.22368">
        <ele>1178.2</ele>
        <time>2024-08-13T07:47:15Z</time>
      </trkpt>
      <trkpt lat="44.82034" lon="6.22364">
        <ele>1178.2</ele>
        <time>2024-08-13T07:47:16Z</time>
      </trkpt>
      <trkpt lat="44.82034" lon="6.22364">
        <ele>1178.4</ele>
        <time>2024-08-13T07:47:17Z</time>
      </trkpt>
      <trkpt lat="44.82033" lon="6.22361">
        <ele>1178.4</ele>
        <time>2024-08-13T07:47:18Z</time>
      </trkpt>
      <trkpt lat="44.82033" lon="6.22361">
        <ele>1178.4</ele>
        <time>2024-08-13T07:47:19Z</time>
      </trkpt>
      <trkpt lat="44.82033" lon="6.22357">
        <ele>1178.2</ele>
        <time>2024-08-13T07:47:20Z</time>
      </trkpt>
      <trkpt lat="44.82033" lon="6.22357">
        <ele>1178.2</ele>
        <time>2024-08-13T07:47:21Z</time>
      </trkpt>
      <trkpt lat="44.82032" lon="6.22354">
        <ele>1178.2</ele>
        <time>2024-08-13T07:47:22Z</time>
      </trkpt>
      <trkpt lat="44.82032" lon="6.22354">
        <ele>1178.2</ele>
        <time>2024-08-13T07:47:23Z</time>
      </trkpt>
      <trkpt lat="44.82032" lon="6.22351">
        <ele>1178.2</ele>
        <time>2024-08-13T07:47:24Z</time>
      </trkpt>
      <trkpt lat="44.82032" lon="6.22351">
        <ele>1178.6</ele>
        <time>2024-08-13T07:47:25Z</time>
      </trkpt>
      <trkpt lat="44.82032" lon="6.22351">
        <ele>1178.6</ele>
        <time>2024-08-13T07:47:26Z</time>
      </trkpt>
      <trkpt lat="44.8203" lon="6.22347">
        <ele>1178.6</ele>
        <time>2024-08-13T07:47:27Z</time>
      </trkpt>
      <trkpt lat="44.8203" lon="6.22347">
        <ele>1178.6</ele>
        <time>2024-08-13T07:47:28Z</time>
      </trkpt>
      <trkpt lat="44.82029" lon="6.22344">
        <ele>1178.8</ele>
        <time>2024-08-13T07:47:29Z</time>
      </trkpt>
      <trkpt lat="44.82029" lon="6.22344">
        <ele>1178.8</ele>
        <time>2024-08-13T07:47:30Z</time>
      </trkpt>
      <trkpt lat="44.82028" lon="6.22341">
        <ele>1178.8</ele>
        <time>2024-08-13T07:47:31Z</time>
      </trkpt>
      <trkpt lat="44.82028" lon="6.22341">
        <ele>1178.8</ele>
        <time>2024-08-13T07:47:32Z</time>
      </trkpt>
      <trkpt lat="44.82027" lon="6.22338">
        <ele>1178.8</ele>
        <time>2024-08-13T07:47:33Z</time>
      </trkpt>
      <trkpt lat="44.82027" lon="6.22338">
        <ele>1178.8</ele>
        <time>2024-08-13T07:47:34Z</time>
      </trkpt>
      <trkpt lat="44.82026" lon="6.22335">
        <ele>1178.6</ele>
        <time>2024-08-13T07:47:35Z</time>
      </trkpt>
      <trkpt lat="44.82026" lon="6.22335">
        <ele>1178.4</ele>
        <time>2024-08-13T07:47:36Z</time>
      </trkpt>
      <trkpt lat="44.82026" lon="6.22331">
        <ele>1178.4</ele>
        <time>2024-08-13T07:47:37Z</time>
      </trkpt>
      <trkpt lat="44.82026" lon="6.22331">
        <ele>1178.4</ele>
        <time>2024-08-13T07:47:38Z</time>
      </trkpt>
      <trkpt lat="44.82026" lon="6.22328">
        <ele>1178.4</ele>
        <time>2024-08-13T07:47:39Z</time>
      </trkpt>
      <trkpt lat="44.82026" lon="6.22328">
        <ele>1178.4</ele>
        <time>2024-08-13T07:47:40Z</time>
      </trkpt>
      <trkpt lat="44.82026" lon="6.22325">
        <ele>1178.6</ele>
        <time>2024-08-13T07:47:41Z</time>
      </trkpt>
      <trkpt lat="44.82026" lon="6.22325">
        <ele>1178.8</ele>
        <time>2024-08-13T07:47:42Z</time>
      </trkpt>
      <trkpt lat="44.82027" lon="6.22321">
        <ele>1178.8</ele>
        <time>2024-08-13T07:47:43Z</time>
      </trkpt>
      <trkpt lat="44.82027" lon="6.22321">
        <ele>1178.6</ele>
        <time>2024-08-13T07:47:44Z</time>
      </trkpt>
      <trkpt lat="44.82028" lon="6.22318">
        <ele>1178.4</ele>
        <time>2024-08-13T07:47:45Z</time>
      </trkpt>
      <trkpt lat="44.82028" lon="6.22318">
        <ele>1178.6</ele>
        <time>2024-08-13T07:47:46Z</time>
      </trkpt>
      <trkpt lat="44.82028" lon="6.22315">
        <ele>1178.6</ele>
        <time>2024-08-13T07:47:47Z</time>
      </trkpt>
      <trkpt lat="44.82028" lon="6.22315">
        <ele>1178.6</ele>
        <time>2024-08-13T07:47:48Z</time>
      </trkpt>
      <trkpt lat="44.82029" lon="6.22312">
        <ele>1178.4</ele>
        <time>2024-08-13T07:47:49Z</time>
      </trkpt>
      <trkpt lat="44.82029" lon="6.22312">
        <ele>1178.4</ele>
        <time>2024-08-13T07:47:50Z</time>
      </trkpt>
      <trkpt lat="44.8203" lon="6.22309">
        <ele>1179</ele>
        <time>2024-08-13T07:47:51Z</time>
      </trkpt>
      <trkpt lat="44.8203" lon="6.22309">
        <ele>1179</ele>
        <time>2024-08-13T07:47:52Z</time>
      </trkpt>
      <trkpt lat="44.8203" lon="6.22309">
        <ele>1179.2</ele>
        <time>2024-08-13T07:47:53Z</time>
      </trkpt>
      <trkpt lat="44.82031" lon="6.22305">
        <ele>1179.2</ele>
        <time>2024-08-13T07:47:54Z</time>
      </trkpt>
      <trkpt lat="44.82031" lon="6.22305">
        <ele>1179.4</ele>
        <time>2024-08-13T07:47:55Z</time>
      </trkpt>
      <trkpt lat="44.82031" lon="6.22301">
        <ele>1179.6</ele>
        <time>2024-08-13T07:47:56Z</time>
      </trkpt>
      <trkpt lat="44.82031" lon="6.22301">
        <ele>1179.6</ele>
        <time>2024-08-13T07:47:57Z</time>
      </trkpt>
      <trkpt lat="44.82031" lon="6.22297">
        <ele>1179.8</ele>
        <time>2024-08-13T07:47:58Z</time>
      </trkpt>
      <trkpt lat="44.82031" lon="6.22297">
        <ele>1179.8</ele>
        <time>2024-08-13T07:47:59Z</time>
      </trkpt>
      <trkpt lat="44.8203" lon="6.22293">
        <ele>1179.8</ele>
        <time>2024-08-13T07:48:00Z</time>
      </trkpt>
      <trkpt lat="44.8203" lon="6.22293">
        <ele>1179.8</ele>
        <time>2024-08-13T07:48:01Z</time>
      </trkpt>
      <trkpt lat="44.82029" lon="6.2229">
        <ele>1179.6</ele>
        <time>2024-08-13T07:48:02Z</time>
      </trkpt>
      <trkpt lat="44.82029" lon="6.2229">
        <ele>1179.6</ele>
        <time>2024-08-13T07:48:03Z</time>
      </trkpt>
      <trkpt lat="44.82028" lon="6.22287">
        <ele>1179.4</ele>
        <time>2024-08-13T07:48:04Z</time>
      </trkpt>
      <trkpt lat="44.82028" lon="6.22287">
        <ele>1179.4</ele>
        <time>2024-08-13T07:48:05Z</time>
      </trkpt>
      <trkpt lat="44.82027" lon="6.22284">
        <ele>1179.2</ele>
        <time>2024-08-13T07:48:06Z</time>
      </trkpt>
      <trkpt lat="44.82027" lon="6.22284">
        <ele>1179.2</ele>
        <time>2024-08-13T07:48:07Z</time>
      </trkpt>
      <trkpt lat="44.82027" lon="6.2228">
        <ele>1179.2</ele>
        <time>2024-08-13T07:48:08Z</time>
      </trkpt>
      <trkpt lat="44.82027" lon="6.2228">
        <ele>1179</ele>
        <time>2024-08-13T07:48:09Z</time>
      </trkpt>
      <trkpt lat="44.82027" lon="6.2228">
        <ele>1178.8</ele>
        <time>2024-08-13T07:48:10Z</time>
      </trkpt>
      <trkpt lat="44.82026" lon="6.22277">
        <ele>1178.8</ele>
        <time>2024-08-13T07:48:11Z</time>
      </trkpt>
      <trkpt lat="44.82026" lon="6.22277">
        <ele>1179</ele>
        <time>2024-08-13T07:48:12Z</time>
      </trkpt>
      <trkpt lat="44.82024" lon="6.22275">
        <ele>1179</ele>
        <time>2024-08-13T07:48:13Z</time>
      </trkpt>
      <trkpt lat="44.82024" lon="6.22275">
        <ele>1179</ele>
        <time>2024-08-13T07:48:14Z</time>
      </trkpt>
      <trkpt lat="44.82024" lon="6.22275">
        <ele>1179</ele>
        <time>2024-08-13T07:48:15Z</time>
      </trkpt>
      <trkpt lat="44.82022" lon="6.22272">
        <ele>1178.8</ele>
        <time>2024-08-13T07:48:16Z</time>
      </trkpt>
      <trkpt lat="44.82022" lon="6.22272">
        <ele>1178.8</ele>
        <time>2024-08-13T07:48:17Z</time>
      </trkpt>
      <trkpt lat="44.82021" lon="6.22269">
        <ele>1178.6</ele>
        <time>2024-08-13T07:48:18Z</time>
      </trkpt>
      <trkpt lat="44.82021" lon="6.22269">
        <ele>1178.6</ele>
        <time>2024-08-13T07:48:19Z</time>
      </trkpt>
      <trkpt lat="44.8202" lon="6.22266">
        <ele>1178.4</ele>
        <time>2024-08-13T07:48:20Z</time>
      </trkpt>
      <trkpt lat="44.8202" lon="6.22266">
        <ele>1178</ele>
        <time>2024-08-13T07:48:21Z</time>
      </trkpt>
      <trkpt lat="44.8202" lon="6.22266">
        <ele>1178</ele>
        <time>2024-08-13T07:48:22Z</time>
      </trkpt>
      <trkpt lat="44.8202" lon="6.22262">
        <ele>1178</ele>
        <time>2024-08-13T07:48:23Z</time>
      </trkpt>
      <trkpt lat="44.8202" lon="6.22262">
        <ele>1177.6</ele>
        <time>2024-08-13T07:48:24Z</time>
      </trkpt>
      <trkpt lat="44.8202" lon="6.2226">
        <ele>1177.4</ele>
        <time>2024-08-13T07:48:25Z</time>
      </trkpt>
      <trkpt lat="44.8202" lon="6.2226">
        <ele>1177.4</ele>
        <time>2024-08-13T07:48:26Z</time>
      </trkpt>
      <trkpt lat="44.82019" lon="6.22257">
        <ele>1177.4</ele>
        <time>2024-08-13T07:48:27Z</time>
      </trkpt>
      <trkpt lat="44.82019" lon="6.22257">
        <ele>1177.2</ele>
        <time>2024-08-13T07:48:28Z</time>
      </trkpt>
      <trkpt lat="44.82019" lon="6.22254">
        <ele>1177.2</ele>
        <time>2024-08-13T07:48:29Z</time>
      </trkpt>
      <trkpt lat="44.82019" lon="6.22254">
        <ele>1177</ele>
        <time>2024-08-13T07:48:30Z</time>
      </trkpt>
      <trkpt lat="44.82019" lon="6.2225">
        <ele>1177</ele>
        <time>2024-08-13T07:48:31Z</time>
      </trkpt>
      <trkpt lat="44.82019" lon="6.2225">
        <ele>1177</ele>
        <time>2024-08-13T07:48:32Z</time>
      </trkpt>
      <trkpt lat="44.82018" lon="6.22247">
        <ele>1176.6</ele>
        <time>2024-08-13T07:48:33Z</time>
      </trkpt>
      <trkpt lat="44.82018" lon="6.22247">
        <ele>1176.4</ele>
        <time>2024-08-13T07:48:34Z</time>
      </trkpt>
      <trkpt lat="44.82018" lon="6.22243">
        <ele>1176.4</ele>
        <time>2024-08-13T07:48:35Z</time>
      </trkpt>
      <trkpt lat="44.82018" lon="6.22243">
        <ele>1176.4</ele>
        <time>2024-08-13T07:48:36Z</time>
      </trkpt>
      <trkpt lat="44.82018" lon="6.22239">
        <ele>1176.4</ele>
        <time>2024-08-13T07:48:37Z</time>
      </trkpt>
      <trkpt lat="44.82018" lon="6.22239">
        <ele>1176.4</ele>
        <time>2024-08-13T07:48:38Z</time>
      </trkpt>
      <trkpt lat="44.82017" lon="6.22237">
        <ele>1176.2</ele>
        <time>2024-08-13T07:48:39Z</time>
      </trkpt>
      <trkpt lat="44.82017" lon="6.22237">
        <ele>1176</ele>
        <time>2024-08-13T07:48:40Z</time>
      </trkpt>
      <trkpt lat="44.82018" lon="6.22233">
        <ele>1175.8</ele>
        <time>2024-08-13T07:48:41Z</time>
      </trkpt>
      <trkpt lat="44.82018" lon="6.22233">
        <ele>1175.8</ele>
        <time>2024-08-13T07:48:42Z</time>
      </trkpt>
      <trkpt lat="44.82019" lon="6.22229">
        <ele>1175.6</ele>
        <time>2024-08-13T07:48:43Z</time>
      </trkpt>
      <trkpt lat="44.82019" lon="6.22229">
        <ele>1175.2</ele>
        <time>2024-08-13T07:48:44Z</time>
      </trkpt>
      <trkpt lat="44.8202" lon="6.22225">
        <ele>1175.2</ele>
        <time>2024-08-13T07:48:45Z</time>
      </trkpt>
      <trkpt lat="44.8202" lon="6.22225">
        <ele>1175.2</ele>
        <time>2024-08-13T07:48:46Z</time>
      </trkpt>
      <trkpt lat="44.82021" lon="6.22221">
        <ele>1175.2</ele>
        <time>2024-08-13T07:48:47Z</time>
      </trkpt>
      <trkpt lat="44.82021" lon="6.22221">
        <ele>1175</ele>
        <time>2024-08-13T07:48:48Z</time>
      </trkpt>
      <trkpt lat="44.82021" lon="6.22218">
        <ele>1175</ele>
        <time>2024-08-13T07:48:49Z</time>
      </trkpt>
      <trkpt lat="44.82021" lon="6.22218">
        <ele>1174.8</ele>
        <time>2024-08-13T07:48:50Z</time>
      </trkpt>
      <trkpt lat="44.82022" lon="6.22215">
        <ele>1174.8</ele>
        <time>2024-08-13T07:48:51Z</time>
      </trkpt>
      <trkpt lat="44.82022" lon="6.22215">
        <ele>1174.6</ele>
        <time>2024-08-13T07:48:52Z</time>
      </trkpt>
      <trkpt lat="44.82022" lon="6.22212">
        <ele>1174.2</ele>
        <time>2024-08-13T07:48:53Z</time>
      </trkpt>
      <trkpt lat="44.82022" lon="6.22212">
        <ele>1174.2</ele>
        <time>2024-08-13T07:48:54Z</time>
      </trkpt>
      <trkpt lat="44.82023" lon="6.22209">
        <ele>1174.2</ele>
        <time>2024-08-13T07:48:55Z</time>
      </trkpt>
      <trkpt lat="44.82023" lon="6.22209">
        <ele>1174.2</ele>
        <time>2024-08-13T07:48:56Z</time>
      </trkpt>
      <trkpt lat="44.82023" lon="6.22206">
        <ele>1174.2</ele>
        <time>2024-08-13T07:48:57Z</time>
      </trkpt>
      <trkpt lat="44.82023" lon="6.22206">
        <ele>1174</ele>
        <time>2024-08-13T07:48:58Z</time>
      </trkpt>
      <trkpt lat="44.82023" lon="6.22202">
        <ele>1174</ele>
        <time>2024-08-13T07:48:59Z</time>
      </trkpt>
      <trkpt lat="44.82023" lon="6.22202">
        <ele>1173.8</ele>
        <time>2024-08-13T07:49:00Z</time>
      </trkpt>
      <trkpt lat="44.82023" lon="6.22199">
        <ele>1173.4</ele>
        <time>2024-08-13T07:49:01Z</time>
      </trkpt>
      <trkpt lat="44.82023" lon="6.22199">
        <ele>1173.4</ele>
        <time>2024-08-13T07:49:02Z</time>
      </trkpt>
      <trkpt lat="44.82022" lon="6.22195">
        <ele>1173.4</ele>
        <time>2024-08-13T07:49:03Z</time>
      </trkpt>
      <trkpt lat="44.82022" lon="6.22195">
        <ele>1173</ele>
        <time>2024-08-13T07:49:04Z</time>
      </trkpt>
      <trkpt lat="44.82022" lon="6.22192">
        <ele>1173</ele>
        <time>2024-08-13T07:49:05Z</time>
      </trkpt>
      <trkpt lat="44.82022" lon="6.22192">
        <ele>1172.4</ele>
        <time>2024-08-13T07:49:06Z</time>
      </trkpt>
      <trkpt lat="44.82022" lon="6.22192">
        <ele>1172.2</ele>
        <time>2024-08-13T07:49:07Z</time>
      </trkpt>
      <trkpt lat="44.82022" lon="6.22188">
        <ele>1172.2</ele>
        <time>2024-08-13T07:49:08Z</time>
      </trkpt>
      <trkpt lat="44.82022" lon="6.22188">
        <ele>1172.2</ele>
        <time>2024-08-13T07:49:09Z</time>
      </trkpt>
      <trkpt lat="44.82021" lon="6.22185">
        <ele>1171.8</ele>
        <time>2024-08-13T07:49:10Z</time>
      </trkpt>
      <trkpt lat="44.82021" lon="6.22185">
        <ele>1171.8</ele>
        <time>2024-08-13T07:49:11Z</time>
      </trkpt>
      <trkpt lat="44.82021" lon="6.22182">
        <ele>1171.6</ele>
        <time>2024-08-13T07:49:12Z</time>
      </trkpt>
      <trkpt lat="44.82021" lon="6.22182">
        <ele>1171.4</ele>
        <time>2024-08-13T07:49:13Z</time>
      </trkpt>
      <trkpt lat="44.8202" lon="6.22178">
        <ele>1171.6</ele>
        <time>2024-08-13T07:49:14Z</time>
      </trkpt>
      <trkpt lat="44.8202" lon="6.22178">
        <ele>1171.4</ele>
        <time>2024-08-13T07:49:15Z</time>
      </trkpt>
      <trkpt lat="44.8202" lon="6.22175">
        <ele>1171.2</ele>
        <time>2024-08-13T07:49:16Z</time>
      </trkpt>
      <trkpt lat="44.8202" lon="6.22175">
        <ele>1170.6</ele>
        <time>2024-08-13T07:49:17Z</time>
      </trkpt>
      <trkpt lat="44.8202" lon="6.22171">
        <ele>1170.4</ele>
        <time>2024-08-13T07:49:18Z</time>
      </trkpt>
      <trkpt lat="44.8202" lon="6.22171">
        <ele>1170.2</ele>
        <time>2024-08-13T07:49:19Z</time>
      </trkpt>
      <trkpt lat="44.8202" lon="6.22168">
        <ele>1169.8</ele>
        <time>2024-08-13T07:49:20Z</time>
      </trkpt>
      <trkpt lat="44.8202" lon="6.22168">
        <ele>1169.8</ele>
        <time>2024-08-13T07:49:21Z</time>
      </trkpt>
      <trkpt lat="44.82019" lon="6.22165">
        <ele>1169.8</ele>
        <time>2024-08-13T07:49:22Z</time>
      </trkpt>
      <trkpt lat="44.82019" lon="6.22165">
        <ele>1169.6</ele>
        <time>2024-08-13T07:49:23Z</time>
      </trkpt>
      <trkpt lat="44.82018" lon="6.22161">
        <ele>1169.6</ele>
        <time>2024-08-13T07:49:24Z</time>
      </trkpt>
      <trkpt lat="44.82018" lon="6.22161">
        <ele>1169.6</ele>
        <time>2024-08-13T07:49:25Z</time>
      </trkpt>
      <trkpt lat="44.82018" lon="6.22158">
        <ele>1169.6</ele>
        <time>2024-08-13T07:49:26Z</time>
      </trkpt>
      <trkpt lat="44.82018" lon="6.22158">
        <ele>1169.2</ele>
        <time>2024-08-13T07:49:27Z</time>
      </trkpt>
      <trkpt lat="44.82017" lon="6.22155">
        <ele>1168.8</ele>
        <time>2024-08-13T07:49:28Z</time>
      </trkpt>
      <trkpt lat="44.82017" lon="6.22155">
        <ele>1168.4</ele>
        <time>2024-08-13T07:49:29Z</time>
      </trkpt>
      <trkpt lat="44.82016" lon="6.22152">
        <ele>1168</ele>
        <time>2024-08-13T07:49:30Z</time>
      </trkpt>
      <trkpt lat="44.82016" lon="6.22152">
        <ele>1168</ele>
        <time>2024-08-13T07:49:31Z</time>
      </trkpt>
      <trkpt lat="44.82016" lon="6.22149">
        <ele>1167.8</ele>
        <time>2024-08-13T07:49:32Z</time>
      </trkpt>
      <trkpt lat="44.82016" lon="6.22149">
        <ele>1167.8</ele>
        <time>2024-08-13T07:49:33Z</time>
      </trkpt>
      <trkpt lat="44.82015" lon="6.22145">
        <ele>1167.6</ele>
        <time>2024-08-13T07:49:34Z</time>
      </trkpt>
      <trkpt lat="44.82015" lon="6.22145">
        <ele>1167.4</ele>
        <time>2024-08-13T07:49:35Z</time>
      </trkpt>
      <trkpt lat="44.82015" lon="6.22142">
        <ele>1167.6</ele>
        <time>2024-08-13T07:49:36Z</time>
      </trkpt>
      <trkpt lat="44.82015" lon="6.22142">
        <ele>1167.2</ele>
        <time>2024-08-13T07:49:37Z</time>
      </trkpt>
      <trkpt lat="44.82015" lon="6.22138">
        <ele>1167</ele>
        <time>2024-08-13T07:49:38Z</time>
      </trkpt>
      <trkpt lat="44.82015" lon="6.22138">
        <ele>1166.8</ele>
        <time>2024-08-13T07:49:39Z</time>
      </trkpt>
      <trkpt lat="44.82015" lon="6.22134">
        <ele>1166.6</ele>
        <time>2024-08-13T07:49:40Z</time>
      </trkpt>
      <trkpt lat="44.82015" lon="6.22134">
        <ele>1166.2</ele>
        <time>2024-08-13T07:49:41Z</time>
      </trkpt>
      <trkpt lat="44.82014" lon="6.2213">
        <ele>1166</ele>
        <time>2024-08-13T07:49:42Z</time>
      </trkpt>
      <trkpt lat="44.82014" lon="6.2213">
        <ele>1166</ele>
        <time>2024-08-13T07:49:43Z</time>
      </trkpt>
      <trkpt lat="44.82015" lon="6.22125">
        <ele>1166</ele>
        <time>2024-08-13T07:49:44Z</time>
      </trkpt>
      <trkpt lat="44.82015" lon="6.22125">
        <ele>1166</ele>
        <time>2024-08-13T07:49:45Z</time>
      </trkpt>
      <trkpt lat="44.82016" lon="6.22122">
        <ele>1166</ele>
        <time>2024-08-13T07:49:46Z</time>
      </trkpt>
      <trkpt lat="44.82016" lon="6.22122">
        <ele>1166</ele>
        <time>2024-08-13T07:49:47Z</time>
      </trkpt>
      <trkpt lat="44.82016" lon="6.22119">
        <ele>1166.4</ele>
        <time>2024-08-13T07:49:48Z</time>
      </trkpt>
      <trkpt lat="44.82016" lon="6.22119">
        <ele>1166.8</ele>
        <time>2024-08-13T07:49:49Z</time>
      </trkpt>
      <trkpt lat="44.82016" lon="6.22115">
        <ele>1166.8</ele>
        <time>2024-08-13T07:49:50Z</time>
      </trkpt>
      <trkpt lat="44.82016" lon="6.22115">
        <ele>1166.8</ele>
        <time>2024-08-13T07:49:51Z</time>
      </trkpt>
      <trkpt lat="44.82016" lon="6.22112">
        <ele>1166.8</ele>
        <time>2024-08-13T07:49:52Z</time>
      </trkpt>
      <trkpt lat="44.82016" lon="6.22112">
        <ele>1167</ele>
        <time>2024-08-13T07:49:53Z</time>
      </trkpt>
      <trkpt lat="44.82015" lon="6.22109">
        <ele>1167</ele>
        <time>2024-08-13T07:49:54Z</time>
      </trkpt>
      <trkpt lat="44.82015" lon="6.22109">
        <ele>1167</ele>
        <time>2024-08-13T07:49:55Z</time>
      </trkpt>
      <trkpt lat="44.82015" lon="6.22105">
        <ele>1167</ele>
        <time>2024-08-13T07:49:56Z</time>
      </trkpt>
      <trkpt lat="44.82015" lon="6.22105">
        <ele>1167.2</ele>
        <time>2024-08-13T07:49:57Z</time>
      </trkpt>
      <trkpt lat="44.82014" lon="6.22102">
        <ele>1167.2</ele>
        <time>2024-08-13T07:49:58Z</time>
      </trkpt>
      <trkpt lat="44.82014" lon="6.22102">
        <ele>1166.8</ele>
        <time>2024-08-13T07:49:59Z</time>
      </trkpt>
      <trkpt lat="44.82014" lon="6.22099">
        <ele>1166.8</ele>
        <time>2024-08-13T07:50:00Z</time>
      </trkpt>
      <trkpt lat="44.82014" lon="6.22099">
        <ele>1166.8</ele>
        <time>2024-08-13T07:50:01Z</time>
      </trkpt>
      <trkpt lat="44.82013" lon="6.22096">
        <ele>1166.8</ele>
        <time>2024-08-13T07:50:02Z</time>
      </trkpt>
      <trkpt lat="44.82013" lon="6.22096">
        <ele>1166.8</ele>
        <time>2024-08-13T07:50:03Z</time>
      </trkpt>
      <trkpt lat="44.82013" lon="6.22092">
        <ele>1166.6</ele>
        <time>2024-08-13T07:50:04Z</time>
      </trkpt>
      <trkpt lat="44.82013" lon="6.22092">
        <ele>1166.6</ele>
        <time>2024-08-13T07:50:05Z</time>
      </trkpt>
      <trkpt lat="44.82012" lon="6.22089">
        <ele>1166.2</ele>
        <time>2024-08-13T07:50:06Z</time>
      </trkpt>
      <trkpt lat="44.82012" lon="6.22089">
        <ele>1166</ele>
        <time>2024-08-13T07:50:07Z</time>
      </trkpt>
      <trkpt lat="44.82011" lon="6.22086">
        <ele>1165.8</ele>
        <time>2024-08-13T07:50:08Z</time>
      </trkpt>
      <trkpt lat="44.82011" lon="6.22086">
        <ele>1165.8</ele>
        <time>2024-08-13T07:50:09Z</time>
      </trkpt>
      <trkpt lat="44.82011" lon="6.22086">
        <ele>1166</ele>
        <time>2024-08-13T07:50:10Z</time>
      </trkpt>
      <trkpt lat="44.8201" lon="6.22082">
        <ele>1166</ele>
        <time>2024-08-13T07:50:11Z</time>
      </trkpt>
      <trkpt lat="44.8201" lon="6.22082">
        <ele>1166.2</ele>
        <time>2024-08-13T07:50:12Z</time>
      </trkpt>
      <trkpt lat="44.82008" lon="6.22079">
        <ele>1166.4</ele>
        <time>2024-08-13T07:50:13Z</time>
      </trkpt>
      <trkpt lat="44.82008" lon="6.22079">
        <ele>1166.4</ele>
        <time>2024-08-13T07:50:14Z</time>
      </trkpt>
      <trkpt lat="44.82007" lon="6.22077">
        <ele>1166.4</ele>
        <time>2024-08-13T07:50:15Z</time>
      </trkpt>
      <trkpt lat="44.82007" lon="6.22077">
        <ele>1166.4</ele>
        <time>2024-08-13T07:50:16Z</time>
      </trkpt>
      <trkpt lat="44.82007" lon="6.22077">
        <ele>1166.6</ele>
        <time>2024-08-13T07:50:17Z</time>
      </trkpt>
      <trkpt lat="44.82006" lon="6.22073">
        <ele>1166.8</ele>
        <time>2024-08-13T07:50:18Z</time>
      </trkpt>
      <trkpt lat="44.82006" lon="6.22073">
        <ele>1166.8</ele>
        <time>2024-08-13T07:50:19Z</time>
      </trkpt>
      <trkpt lat="44.82005" lon="6.2207">
        <ele>1166.6</ele>
        <time>2024-08-13T07:50:20Z</time>
      </trkpt>
      <trkpt lat="44.82005" lon="6.2207">
        <ele>1166.4</ele>
        <time>2024-08-13T07:50:21Z</time>
      </trkpt>
      <trkpt lat="44.82004" lon="6.22067">
        <ele>1166.2</ele>
        <time>2024-08-13T07:50:22Z</time>
      </trkpt>
      <trkpt lat="44.82004" lon="6.22067">
        <ele>1166.2</ele>
        <time>2024-08-13T07:50:23Z</time>
      </trkpt>
      <trkpt lat="44.82003" lon="6.22065">
        <ele>1166.2</ele>
        <time>2024-08-13T07:50:24Z</time>
      </trkpt>
      <trkpt lat="44.82003" lon="6.22065">
        <ele>1166</ele>
        <time>2024-08-13T07:50:25Z</time>
      </trkpt>
      <trkpt lat="44.82002" lon="6.22062">
        <ele>1166</ele>
        <time>2024-08-13T07:50:26Z</time>
      </trkpt>
      <trkpt lat="44.82002" lon="6.22062">
        <ele>1166</ele>
        <time>2024-08-13T07:50:27Z</time>
      </trkpt>
      <trkpt lat="44.82" lon="6.22058">
        <ele>1166</ele>
        <time>2024-08-13T07:50:28Z</time>
      </trkpt>
      <trkpt lat="44.82" lon="6.22058">
        <ele>1166</ele>
        <time>2024-08-13T07:50:29Z</time>
      </trkpt>
      <trkpt lat="44.81999" lon="6.22055">
        <ele>1165.8</ele>
        <time>2024-08-13T07:50:30Z</time>
      </trkpt>
      <trkpt lat="44.81999" lon="6.22055">
        <ele>1165.4</ele>
        <time>2024-08-13T07:50:31Z</time>
      </trkpt>
      <trkpt lat="44.81999" lon="6.22055">
        <ele>1165.2</ele>
        <time>2024-08-13T07:50:32Z</time>
      </trkpt>
      <trkpt lat="44.81999" lon="6.22055">
        <ele>1165</ele>
        <time>2024-08-13T07:50:33Z</time>
      </trkpt>
      <trkpt lat="44.81999" lon="6.22055">
        <ele>1165</ele>
        <time>2024-08-13T07:50:34Z</time>
      </trkpt>
      <trkpt lat="44.81999" lon="6.22055">
        <ele>1165.2</ele>
        <time>2024-08-13T07:50:35Z</time>
      </trkpt>
      <trkpt lat="44.81999" lon="6.22055">
        <ele>1165.2</ele>
        <time>2024-08-13T07:50:36Z</time>
      </trkpt>
      <trkpt lat="44.81999" lon="6.22055">
        <ele>1165.2</ele>
        <time>2024-08-13T07:50:37Z</time>
      </trkpt>
      <trkpt lat="44.81999" lon="6.22055">
        <ele>1165.2</ele>
        <time>2024-08-13T07:50:38Z</time>
      </trkpt>
      <trkpt lat="44.81999" lon="6.22055">
        <ele>1165.2</ele>
        <time>2024-08-13T07:50:39Z</time>
      </trkpt>
      <trkpt lat="44.81999" lon="6.22055">
        <ele>1165.4</ele>
        <time>2024-08-13T07:50:40Z</time>
      </trkpt>
      <trkpt lat="44.81999" lon="6.22055">
        <ele>1165.4</ele>
        <time>2024-08-13T07:50:41Z</time>
      </trkpt>
      <trkpt lat="44.81999" lon="6.22055">
        <ele>1165.4</ele>
        <time>2024-08-13T07:50:42Z</time>
      </trkpt>
      <trkpt lat="44.81999" lon="6.22055">
        <ele>1165.4</ele>
        <time>2024-08-13T07:50:43Z</time>
      </trkpt>
      <trkpt lat="44.81999" lon="6.22055">
        <ele>1165.8</ele>
        <time>2024-08-13T07:50:44Z</time>
      </trkpt>
      <trkpt lat="44.81999" lon="6.22055">
        <ele>1165.8</ele>
        <time>2024-08-13T07:50:45Z</time>
      </trkpt>
      <trkpt lat="44.81999" lon="6.22055">
        <ele>1165.4</ele>
        <time>2024-08-13T07:50:46Z</time>
      </trkpt>
      <trkpt lat="44.81999" lon="6.22055">
        <ele>1165.4</ele>
        <time>2024-08-13T07:50:47Z</time>
      </trkpt>
      <trkpt lat="44.81999" lon="6.22055">
        <ele>1165.6</ele>
        <time>2024-08-13T07:50:48Z</time>
      </trkpt>
      <trkpt lat="44.81999" lon="6.22055">
        <ele>1165.6</ele>
        <time>2024-08-13T07:50:49Z</time>
      </trkpt>
      <trkpt lat="44.81999" lon="6.22055">
        <ele>1165.6</ele>
        <time>2024-08-13T07:50:50Z</time>
      </trkpt>
      <trkpt lat="44.81999" lon="6.22055">
        <ele>1165.4</ele>
        <time>2024-08-13T07:50:51Z</time>
      </trkpt>
      <trkpt lat="44.81999" lon="6.22055">
        <ele>1165.4</ele>
        <time>2024-08-13T07:50:52Z</time>
      </trkpt>
      <trkpt lat="44.81999" lon="6.22055">
        <ele>1165.4</ele>
        <time>2024-08-13T07:50:53Z</time>
      </trkpt>
      <trkpt lat="44.81999" lon="6.22055">
        <ele>1165.4</ele>
        <time>2024-08-13T07:50:54Z</time>
      </trkpt>
      <trkpt lat="44.81999" lon="6.22055">
        <ele>1165.2</ele>
        <time>2024-08-13T07:50:55Z</time>
      </trkpt>
      <trkpt lat="44.81999" lon="6.22052">
        <ele>1165</ele>
        <time>2024-08-13T07:50:56Z</time>
      </trkpt>
      <trkpt lat="44.81999" lon="6.22052">
        <ele>1165</ele>
        <time>2024-08-13T07:50:57Z</time>
      </trkpt>
      <trkpt lat="44.81998" lon="6.22048">
        <ele>1164.6</ele>
        <time>2024-08-13T07:50:58Z</time>
      </trkpt>
      <trkpt lat="44.81998" lon="6.22048">
        <ele>1164.6</ele>
        <time>2024-08-13T07:50:59Z</time>
      </trkpt>
      <trkpt lat="44.81997" lon="6.22044">
        <ele>1164.6</ele>
        <time>2024-08-13T07:51:00Z</time>
      </trkpt>
      <trkpt lat="44.81997" lon="6.22044">
        <ele>1164.2</ele>
        <time>2024-08-13T07:51:01Z</time>
      </trkpt>
      <trkpt lat="44.81996" lon="6.22041">
        <ele>1164.2</ele>
        <time>2024-08-13T07:51:02Z</time>
      </trkpt>
      <trkpt lat="44.81996" lon="6.22041">
        <ele>1164.2</ele>
        <time>2024-08-13T07:51:03Z</time>
      </trkpt>
      <trkpt lat="44.81995" lon="6.22038">
        <ele>1164</ele>
        <time>2024-08-13T07:51:04Z</time>
      </trkpt>
      <trkpt lat="44.81995" lon="6.22038">
        <ele>1163.6</ele>
        <time>2024-08-13T07:51:05Z</time>
      </trkpt>
      <trkpt lat="44.81994" lon="6.22035">
        <ele>1163.6</ele>
        <time>2024-08-13T07:51:06Z</time>
      </trkpt>
      <trkpt lat="44.81994" lon="6.22035">
        <ele>1163.4</ele>
        <time>2024-08-13T07:51:07Z</time>
      </trkpt>
      <trkpt lat="44.81992" lon="6.22031">
        <ele>1163.4</ele>
        <time>2024-08-13T07:51:08Z</time>
      </trkpt>
      <trkpt lat="44.81992" lon="6.22031">
        <ele>1163.2</ele>
        <time>2024-08-13T07:51:09Z</time>
      </trkpt>
      <trkpt lat="44.81993" lon="6.22028">
        <ele>1163.2</ele>
        <time>2024-08-13T07:51:10Z</time>
      </trkpt>
      <trkpt lat="44.81993" lon="6.22028">
        <ele>1163.2</ele>
        <time>2024-08-13T07:51:11Z</time>
      </trkpt>
      <trkpt lat="44.81993" lon="6.22025">
        <ele>1163.4</ele>
        <time>2024-08-13T07:51:12Z</time>
      </trkpt>
      <trkpt lat="44.81993" lon="6.22025">
        <ele>1163.4</ele>
        <time>2024-08-13T07:51:13Z</time>
      </trkpt>
      <trkpt lat="44.81993" lon="6.22021">
        <ele>1163.4</ele>
        <time>2024-08-13T07:51:14Z</time>
      </trkpt>
      <trkpt lat="44.81993" lon="6.22021">
        <ele>1163.2</ele>
        <time>2024-08-13T07:51:15Z</time>
      </trkpt>
      <trkpt lat="44.81992" lon="6.22018">
        <ele>1163.2</ele>
        <time>2024-08-13T07:51:16Z</time>
      </trkpt>
      <trkpt lat="44.81992" lon="6.22018">
        <ele>1163.4</ele>
        <time>2024-08-13T07:51:17Z</time>
      </trkpt>
      <trkpt lat="44.81992" lon="6.22015">
        <ele>1163.6</ele>
        <time>2024-08-13T07:51:18Z</time>
      </trkpt>
      <trkpt lat="44.81992" lon="6.22015">
        <ele>1163.6</ele>
        <time>2024-08-13T07:51:19Z</time>
      </trkpt>
      <trkpt lat="44.81992" lon="6.22012">
        <ele>1163.8</ele>
        <time>2024-08-13T07:51:20Z</time>
      </trkpt>
      <trkpt lat="44.81992" lon="6.22012">
        <ele>1163.8</ele>
        <time>2024-08-13T07:51:21Z</time>
      </trkpt>
      <trkpt lat="44.81993" lon="6.22009">
        <ele>1164</ele>
        <time>2024-08-13T07:51:22Z</time>
      </trkpt>
      <trkpt lat="44.81993" lon="6.22009">
        <ele>1164</ele>
        <time>2024-08-13T07:51:23Z</time>
      </trkpt>
      <trkpt lat="44.81993" lon="6.22006">
        <ele>1164</ele>
        <time>2024-08-13T07:51:24Z</time>
      </trkpt>
      <trkpt lat="44.81993" lon="6.22006">
        <ele>1164</ele>
        <time>2024-08-13T07:51:25Z</time>
      </trkpt>
      <trkpt lat="44.81993" lon="6.22002">
        <ele>1164</ele>
        <time>2024-08-13T07:51:26Z</time>
      </trkpt>
      <trkpt lat="44.81993" lon="6.22002">
        <ele>1163.6</ele>
        <time>2024-08-13T07:51:27Z</time>
      </trkpt>
      <trkpt lat="44.81994" lon="6.21998">
        <ele>1163.6</ele>
        <time>2024-08-13T07:51:28Z</time>
      </trkpt>
      <trkpt lat="44.81994" lon="6.21998">
        <ele>1163.4</ele>
        <time>2024-08-13T07:51:29Z</time>
      </trkpt>
      <trkpt lat="44.81994" lon="6.21995">
        <ele>1163.4</ele>
        <time>2024-08-13T07:51:30Z</time>
      </trkpt>
      <trkpt lat="44.81994" lon="6.21995">
        <ele>1163.4</ele>
        <time>2024-08-13T07:51:31Z</time>
      </trkpt>
      <trkpt lat="44.81994" lon="6.21992">
        <ele>1163.4</ele>
        <time>2024-08-13T07:51:32Z</time>
      </trkpt>
      <trkpt lat="44.81994" lon="6.21992">
        <ele>1163.4</ele>
        <time>2024-08-13T07:51:33Z</time>
      </trkpt>
      <trkpt lat="44.81993" lon="6.21989">
        <ele>1163.4</ele>
        <time>2024-08-13T07:51:34Z</time>
      </trkpt>
      <trkpt lat="44.81993" lon="6.21989">
        <ele>1163.2</ele>
        <time>2024-08-13T07:51:35Z</time>
      </trkpt>
      <trkpt lat="44.81993" lon="6.21989">
        <ele>1163.2</ele>
        <time>2024-08-13T07:51:36Z</time>
      </trkpt>
      <trkpt lat="44.81994" lon="6.21985">
        <ele>1163</ele>
        <time>2024-08-13T07:51:37Z</time>
      </trkpt>
      <trkpt lat="44.81994" lon="6.21985">
        <ele>1163</ele>
        <time>2024-08-13T07:51:38Z</time>
      </trkpt>
      <trkpt lat="44.81994" lon="6.21982">
        <ele>1163.4</ele>
        <time>2024-08-13T07:51:39Z</time>
      </trkpt>
      <trkpt lat="44.81994" lon="6.21982">
        <ele>1163.4</ele>
        <time>2024-08-13T07:51:40Z</time>
      </trkpt>
      <trkpt lat="44.81994" lon="6.21979">
        <ele>1163</ele>
        <time>2024-08-13T07:51:41Z</time>
      </trkpt>
      <trkpt lat="44.81994" lon="6.21979">
        <ele>1162.8</ele>
        <time>2024-08-13T07:51:42Z</time>
      </trkpt>
      <trkpt lat="44.81995" lon="6.21976">
        <ele>1162.6</ele>
        <time>2024-08-13T07:51:43Z</time>
      </trkpt>
      <trkpt lat="44.81995" lon="6.21976">
        <ele>1162.6</ele>
        <time>2024-08-13T07:51:44Z</time>
      </trkpt>
      <trkpt lat="44.81995" lon="6.21973">
        <ele>1162.2</ele>
        <time>2024-08-13T07:51:45Z</time>
      </trkpt>
      <trkpt lat="44.81995" lon="6.21973">
        <ele>1162</ele>
        <time>2024-08-13T07:51:46Z</time>
      </trkpt>
      <trkpt lat="44.81995" lon="6.2197">
        <ele>1161.6</ele>
        <time>2024-08-13T07:51:47Z</time>
      </trkpt>
      <trkpt lat="44.81995" lon="6.2197">
        <ele>1161.4</ele>
        <time>2024-08-13T07:51:48Z</time>
      </trkpt>
      <trkpt lat="44.81994" lon="6.21967">
        <ele>1161</ele>
        <time>2024-08-13T07:51:49Z</time>
      </trkpt>
      <trkpt lat="44.81994" lon="6.21967">
        <ele>1160.6</ele>
        <time>2024-08-13T07:51:50Z</time>
      </trkpt>
      <trkpt lat="44.81994" lon="6.21967">
        <ele>1160.4</ele>
        <time>2024-08-13T07:51:51Z</time>
      </trkpt>
      <trkpt lat="44.81993" lon="6.21964">
        <ele>1160.2</ele>
        <time>2024-08-13T07:51:52Z</time>
      </trkpt>
      <trkpt lat="44.81993" lon="6.21964">
        <ele>1159.8</ele>
        <time>2024-08-13T07:51:53Z</time>
      </trkpt>
      <trkpt lat="44.81993" lon="6.21964">
        <ele>1159.6</ele>
        <time>2024-08-13T07:51:54Z</time>
      </trkpt>
      <trkpt lat="44.81992" lon="6.2196">
        <ele>1159.4</ele>
        <time>2024-08-13T07:51:55Z</time>
      </trkpt>
      <trkpt lat="44.81992" lon="6.2196">
        <ele>1158.8</ele>
        <time>2024-08-13T07:51:56Z</time>
      </trkpt>
      <trkpt lat="44.81992" lon="6.2196">
        <ele>1158.8</ele>
        <time>2024-08-13T07:51:57Z</time>
      </trkpt>
      <trkpt lat="44.81994" lon="6.21956">
        <ele>1158.4</ele>
        <time>2024-08-13T07:51:58Z</time>
      </trkpt>
      <trkpt lat="44.81994" lon="6.21956">
        <ele>1158.2</ele>
        <time>2024-08-13T07:51:59Z</time>
      </trkpt>
      <trkpt lat="44.81994" lon="6.21952">
        <ele>1158</ele>
        <time>2024-08-13T07:52:00Z</time>
      </trkpt>
      <trkpt lat="44.81994" lon="6.21952">
        <ele>1157.6</ele>
        <time>2024-08-13T07:52:01Z</time>
      </trkpt>
      <trkpt lat="44.81994" lon="6.21949">
        <ele>1157.2</ele>
        <time>2024-08-13T07:52:02Z</time>
      </trkpt>
      <trkpt lat="44.81994" lon="6.21949">
        <ele>1157.2</ele>
        <time>2024-08-13T07:52:03Z</time>
      </trkpt>
      <trkpt lat="44.81993" lon="6.21945">
        <ele>1157</ele>
        <time>2024-08-13T07:52:04Z</time>
      </trkpt>
      <trkpt lat="44.81993" lon="6.21945">
        <ele>1156.6</ele>
        <time>2024-08-13T07:52:05Z</time>
      </trkpt>
      <trkpt lat="44.81993" lon="6.21943">
        <ele>1156.6</ele>
        <time>2024-08-13T07:52:06Z</time>
      </trkpt>
      <trkpt lat="44.81993" lon="6.21943">
        <ele>1156.6</ele>
        <time>2024-08-13T07:52:07Z</time>
      </trkpt>
      <trkpt lat="44.81994" lon="6.2194">
        <ele>1156.4</ele>
        <time>2024-08-13T07:52:08Z</time>
      </trkpt>
      <trkpt lat="44.81994" lon="6.2194">
        <ele>1156.4</ele>
        <time>2024-08-13T07:52:09Z</time>
      </trkpt>
      <trkpt lat="44.81994" lon="6.2194">
        <ele>1156.2</ele>
        <time>2024-08-13T07:52:10Z</time>
      </trkpt>
      <trkpt lat="44.81996" lon="6.21941">
        <ele>1155.8</ele>
        <time>2024-08-13T07:52:11Z</time>
      </trkpt>
      <trkpt lat="44.81996" lon="6.21941">
        <ele>1155.6</ele>
        <time>2024-08-13T07:52:12Z</time>
      </trkpt>
      <trkpt lat="44.81996" lon="6.21941">
        <ele>1155.6</ele>
        <time>2024-08-13T07:52:13Z</time>
      </trkpt>
      <trkpt lat="44.81997" lon="6.21938">
        <ele>1155.6</ele>
        <time>2024-08-13T07:52:14Z</time>
      </trkpt>
      <trkpt lat="44.81997" lon="6.21938">
        <ele>1155.4</ele>
        <time>2024-08-13T07:52:15Z</time>
      </trkpt>
      <trkpt lat="44.81996" lon="6.21935">
        <ele>1155.2</ele>
        <time>2024-08-13T07:52:16Z</time>
      </trkpt>
      <trkpt lat="44.81996" lon="6.21935">
        <ele>1154.8</ele>
        <time>2024-08-13T07:52:17Z</time>
      </trkpt>
      <trkpt lat="44.81996" lon="6.21932">
        <ele>1154.6</ele>
        <time>2024-08-13T07:52:18Z</time>
      </trkpt>
      <trkpt lat="44.81996" lon="6.21932">
        <ele>1154.6</ele>
        <time>2024-08-13T07:52:19Z</time>
      </trkpt>
      <trkpt lat="44.81996" lon="6.21932">
        <ele>1154.2</ele>
        <time>2024-08-13T07:52:20Z</time>
      </trkpt>
      <trkpt lat="44.81996" lon="6.21932">
        <ele>1153.8</ele>
        <time>2024-08-13T07:52:21Z</time>
      </trkpt>
      <trkpt lat="44.81996" lon="6.21932">
        <ele>1153.8</ele>
        <time>2024-08-13T07:52:22Z</time>
      </trkpt>
      <trkpt lat="44.81996" lon="6.21932">
        <ele>1153.8</ele>
        <time>2024-08-13T07:52:23Z</time>
      </trkpt>
      <trkpt lat="44.81994" lon="6.21931">
        <ele>1153.8</ele>
        <time>2024-08-13T07:52:24Z</time>
      </trkpt>
      <trkpt lat="44.81994" lon="6.21931">
        <ele>1154</ele>
        <time>2024-08-13T07:52:25Z</time>
      </trkpt>
      <trkpt lat="44.81992" lon="6.21928">
        <ele>1154</ele>
        <time>2024-08-13T07:52:26Z</time>
      </trkpt>
      <trkpt lat="44.81991" lon="6.21926">
        <ele>1154</ele>
        <time>2024-08-13T07:52:27Z</time>
      </trkpt>
      <trkpt lat="44.81991" lon="6.21926">
        <ele>1154</ele>
        <time>2024-08-13T07:52:28Z</time>
      </trkpt>
      <trkpt lat="44.8199" lon="6.21923">
        <ele>1154</ele>
        <time>2024-08-13T07:52:29Z</time>
      </trkpt>
      <trkpt lat="44.8199" lon="6.21923">
        <ele>1153.8</ele>
        <time>2024-08-13T07:52:30Z</time>
      </trkpt>
      <trkpt lat="44.81988" lon="6.2192">
        <ele>1153.8</ele>
        <time>2024-08-13T07:52:31Z</time>
      </trkpt>
      <trkpt lat="44.81988" lon="6.2192">
        <ele>1153.8</ele>
        <time>2024-08-13T07:52:32Z</time>
      </trkpt>
      <trkpt lat="44.81987" lon="6.21916">
        <ele>1154</ele>
        <time>2024-08-13T07:52:33Z</time>
      </trkpt>
      <trkpt lat="44.81987" lon="6.21916">
        <ele>1154</ele>
        <time>2024-08-13T07:52:34Z</time>
      </trkpt>
      <trkpt lat="44.81986" lon="6.21914">
        <ele>1154.2</ele>
        <time>2024-08-13T07:52:35Z</time>
      </trkpt>
      <trkpt lat="44.81986" lon="6.21914">
        <ele>1154.2</ele>
        <time>2024-08-13T07:52:36Z</time>
      </trkpt>
      <trkpt lat="44.81984" lon="6.21911">
        <ele>1154.4</ele>
        <time>2024-08-13T07:52:37Z</time>
      </trkpt>
      <trkpt lat="44.81984" lon="6.21911">
        <ele>1154.4</ele>
        <time>2024-08-13T07:52:38Z</time>
      </trkpt>
      <trkpt lat="44.81983" lon="6.21908">
        <ele>1154.4</ele>
        <time>2024-08-13T07:52:39Z</time>
      </trkpt>
      <trkpt lat="44.81983" lon="6.21908">
        <ele>1154.6</ele>
        <time>2024-08-13T07:52:40Z</time>
      </trkpt>
      <trkpt lat="44.81982" lon="6.21904">
        <ele>1154.6</ele>
        <time>2024-08-13T07:52:41Z</time>
      </trkpt>
      <trkpt lat="44.81982" lon="6.21904">
        <ele>1154.6</ele>
        <time>2024-08-13T07:52:42Z</time>
      </trkpt>
      <trkpt lat="44.81981" lon="6.21902">
        <ele>1154.8</ele>
        <time>2024-08-13T07:52:43Z</time>
      </trkpt>
      <trkpt lat="44.81981" lon="6.21902">
        <ele>1154.8</ele>
        <time>2024-08-13T07:52:44Z</time>
      </trkpt>
      <trkpt lat="44.8198" lon="6.21899">
        <ele>1154.8</ele>
        <time>2024-08-13T07:52:45Z</time>
      </trkpt>
      <trkpt lat="44.8198" lon="6.21899">
        <ele>1155.2</ele>
        <time>2024-08-13T07:52:46Z</time>
      </trkpt>
      <trkpt lat="44.81979" lon="6.21896">
        <ele>1155.4</ele>
        <time>2024-08-13T07:52:47Z</time>
      </trkpt>
      <trkpt lat="44.81979" lon="6.21896">
        <ele>1155.4</ele>
        <time>2024-08-13T07:52:48Z</time>
      </trkpt>
      <trkpt lat="44.81979" lon="6.21893">
        <ele>1155.4</ele>
        <time>2024-08-13T07:52:49Z</time>
      </trkpt>
      <trkpt lat="44.81979" lon="6.21893">
        <ele>1155.6</ele>
        <time>2024-08-13T07:52:50Z</time>
      </trkpt>
      <trkpt lat="44.81978" lon="6.2189">
        <ele>1155.8</ele>
        <time>2024-08-13T07:52:51Z</time>
      </trkpt>
      <trkpt lat="44.81978" lon="6.2189">
        <ele>1155.8</ele>
        <time>2024-08-13T07:52:52Z</time>
      </trkpt>
      <trkpt lat="44.81978" lon="6.21887">
        <ele>1155.8</ele>
        <time>2024-08-13T07:52:53Z</time>
      </trkpt>
      <trkpt lat="44.81978" lon="6.21887">
        <ele>1156</ele>
        <time>2024-08-13T07:52:54Z</time>
      </trkpt>
      <trkpt lat="44.81976" lon="6.21884">
        <ele>1156.4</ele>
        <time>2024-08-13T07:52:55Z</time>
      </trkpt>
      <trkpt lat="44.81976" lon="6.21884">
        <ele>1156.8</ele>
        <time>2024-08-13T07:52:56Z</time>
      </trkpt>
      <trkpt lat="44.81975" lon="6.21881">
        <ele>1156.8</ele>
        <time>2024-08-13T07:52:57Z</time>
      </trkpt>
      <trkpt lat="44.81975" lon="6.21881">
        <ele>1157</ele>
        <time>2024-08-13T07:52:58Z</time>
      </trkpt>
      <trkpt lat="44.81975" lon="6.21878">
        <ele>1157.2</ele>
        <time>2024-08-13T07:52:59Z</time>
      </trkpt>
      <trkpt lat="44.81975" lon="6.21878">
        <ele>1157.2</ele>
        <time>2024-08-13T07:53:00Z</time>
      </trkpt>
      <trkpt lat="44.81974" lon="6.21875">
        <ele>1157.2</ele>
        <time>2024-08-13T07:53:01Z</time>
      </trkpt>
      <trkpt lat="44.81974" lon="6.21875">
        <ele>1157</ele>
        <time>2024-08-13T07:53:02Z</time>
      </trkpt>
      <trkpt lat="44.81973" lon="6.21872">
        <ele>1157</ele>
        <time>2024-08-13T07:53:03Z</time>
      </trkpt>
      <trkpt lat="44.81973" lon="6.21872">
        <ele>1157.2</ele>
        <time>2024-08-13T07:53:04Z</time>
      </trkpt>
      <trkpt lat="44.81973" lon="6.21869">
        <ele>1157.4</ele>
        <time>2024-08-13T07:53:05Z</time>
      </trkpt>
      <trkpt lat="44.81973" lon="6.21869">
        <ele>1157.4</ele>
        <time>2024-08-13T07:53:06Z</time>
      </trkpt>
      <trkpt lat="44.81972" lon="6.21865">
        <ele>1157.6</ele>
        <time>2024-08-13T07:53:07Z</time>
      </trkpt>
      <trkpt lat="44.81972" lon="6.21865">
        <ele>1157.6</ele>
        <time>2024-08-13T07:53:08Z</time>
      </trkpt>
      <trkpt lat="44.81971" lon="6.21862">
        <ele>1157.4</ele>
        <time>2024-08-13T07:53:09Z</time>
      </trkpt>
      <trkpt lat="44.81971" lon="6.21862">
        <ele>1157.4</ele>
        <time>2024-08-13T07:53:10Z</time>
      </trkpt>
      <trkpt lat="44.8197" lon="6.21858">
        <ele>1157.4</ele>
        <time>2024-08-13T07:53:11Z</time>
      </trkpt>
      <trkpt lat="44.8197" lon="6.21858">
        <ele>1157.4</ele>
        <time>2024-08-13T07:53:12Z</time>
      </trkpt>
      <trkpt lat="44.8197" lon="6.21855">
        <ele>1157.4</ele>
        <time>2024-08-13T07:53:13Z</time>
      </trkpt>
      <trkpt lat="44.8197" lon="6.21855">
        <ele>1157.4</ele>
        <time>2024-08-13T07:53:14Z</time>
      </trkpt>
      <trkpt lat="44.8197" lon="6.21852">
        <ele>1157.4</ele>
        <time>2024-08-13T07:53:15Z</time>
      </trkpt>
      <trkpt lat="44.8197" lon="6.21852">
        <ele>1157.4</ele>
        <time>2024-08-13T07:53:16Z</time>
      </trkpt>
      <trkpt lat="44.8197" lon="6.21852">
        <ele>1157.4</ele>
        <time>2024-08-13T07:53:17Z</time>
      </trkpt>
      <trkpt lat="44.8197" lon="6.21852">
        <ele>1157.4</ele>
        <time>2024-08-13T07:53:18Z</time>
      </trkpt>
      <trkpt lat="44.81969" lon="6.21849">
        <ele>1157.6</ele>
        <time>2024-08-13T07:53:19Z</time>
      </trkpt>
      <trkpt lat="44.81969" lon="6.21849">
        <ele>1157.6</ele>
        <time>2024-08-13T07:53:20Z</time>
      </trkpt>
      <trkpt lat="44.81969" lon="6.21846">
        <ele>1157.8</ele>
        <time>2024-08-13T07:53:21Z</time>
      </trkpt>
      <trkpt lat="44.81969" lon="6.21846">
        <ele>1158.2</ele>
        <time>2024-08-13T07:53:22Z</time>
      </trkpt>
      <trkpt lat="44.81969" lon="6.21846">
        <ele>1158.2</ele>
        <time>2024-08-13T07:53:23Z</time>
      </trkpt>
      <trkpt lat="44.81969" lon="6.21846">
        <ele>1158.2</ele>
        <time>2024-08-13T07:53:24Z</time>
      </trkpt>
      <trkpt lat="44.81969" lon="6.21846">
        <ele>1158.6</ele>
        <time>2024-08-13T07:53:25Z</time>
      </trkpt>
      <trkpt lat="44.81969" lon="6.21846">
        <ele>1158.8</ele>
        <time>2024-08-13T07:53:26Z</time>
      </trkpt>
      <trkpt lat="44.8197" lon="6.21849">
        <ele>1158.8</ele>
        <time>2024-08-13T07:53:27Z</time>
      </trkpt>
      <trkpt lat="44.8197" lon="6.21849">
        <ele>1159</ele>
        <time>2024-08-13T07:53:28Z</time>
      </trkpt>
      <trkpt lat="44.8197" lon="6.21849">
        <ele>1159.2</ele>
        <time>2024-08-13T07:53:29Z</time>
      </trkpt>
      <trkpt lat="44.8197" lon="6.21849">
        <ele>1159.4</ele>
        <time>2024-08-13T07:53:30Z</time>
      </trkpt>
      <trkpt lat="44.8197" lon="6.21849">
        <ele>1159.4</ele>
        <time>2024-08-13T07:53:31Z</time>
      </trkpt>
      <trkpt lat="44.8197" lon="6.21849">
        <ele>1159.4</ele>
        <time>2024-08-13T07:53:32Z</time>
      </trkpt>
      <trkpt lat="44.8197" lon="6.21849">
        <ele>1159.4</ele>
        <time>2024-08-13T07:53:33Z</time>
      </trkpt>
      <trkpt lat="44.8197" lon="6.21849">
        <ele>1159.4</ele>
        <time>2024-08-13T07:53:34Z</time>
      </trkpt>
      <trkpt lat="44.8197" lon="6.21849">
        <ele>1159.6</ele>
        <time>2024-08-13T07:53:35Z</time>
      </trkpt>
      <trkpt lat="44.8197" lon="6.21849">
        <ele>1159.8</ele>
        <time>2024-08-13T07:53:36Z</time>
      </trkpt>
      <trkpt lat="44.8197" lon="6.21849">
        <ele>1160</ele>
        <time>2024-08-13T07:53:37Z</time>
      </trkpt>
      <trkpt lat="44.8197" lon="6.21849">
        <ele>1160.4</ele>
        <time>2024-08-13T07:53:38Z</time>
      </trkpt>
      <trkpt lat="44.8197" lon="6.21849">
        <ele>1160.6</ele>
        <time>2024-08-13T07:53:39Z</time>
      </trkpt>
      <trkpt lat="44.81969" lon="6.21852">
        <ele>1160.8</ele>
        <time>2024-08-13T07:53:40Z</time>
      </trkpt>
      <trkpt lat="44.81969" lon="6.21852">
        <ele>1161</ele>
        <time>2024-08-13T07:53:41Z</time>
      </trkpt>
      <trkpt lat="44.81969" lon="6.21852">
        <ele>1161.2</ele>
        <time>2024-08-13T07:53:42Z</time>
      </trkpt>
      <trkpt lat="44.81967" lon="6.21852">
        <ele>1161.4</ele>
        <time>2024-08-13T07:53:43Z</time>
      </trkpt>
      <trkpt lat="44.81967" lon="6.21852">
        <ele>1161.4</ele>
        <time>2024-08-13T07:53:44Z</time>
      </trkpt>
      <trkpt lat="44.81967" lon="6.21852">
        <ele>1161.4</ele>
        <time>2024-08-13T07:53:45Z</time>
      </trkpt>
      <trkpt lat="44.81967" lon="6.21852">
        <ele>1161.4</ele>
        <time>2024-08-13T07:53:46Z</time>
      </trkpt>
      <trkpt lat="44.81965" lon="6.2185">
        <ele>1161.6</ele>
        <time>2024-08-13T07:53:47Z</time>
      </trkpt>
      <trkpt lat="44.81965" lon="6.2185">
        <ele>1161.8</ele>
        <time>2024-08-13T07:53:48Z</time>
      </trkpt>
      <trkpt lat="44.81965" lon="6.2185">
        <ele>1162</ele>
        <time>2024-08-13T07:53:49Z</time>
      </trkpt>
      <trkpt lat="44.81965" lon="6.2185">
        <ele>1162.2</ele>
        <time>2024-08-13T07:53:50Z</time>
      </trkpt>
      <trkpt lat="44.81965" lon="6.2185">
        <ele>1162.4</ele>
        <time>2024-08-13T07:53:51Z</time>
      </trkpt>
      <trkpt lat="44.81965" lon="6.2185">
        <ele>1162.6</ele>
        <time>2024-08-13T07:53:52Z</time>
      </trkpt>
      <trkpt lat="44.81964" lon="6.21848">
        <ele>1162.8</ele>
        <time>2024-08-13T07:53:53Z</time>
      </trkpt>
      <trkpt lat="44.81964" lon="6.21848">
        <ele>1162.8</ele>
        <time>2024-08-13T07:53:54Z</time>
      </trkpt>
      <trkpt lat="44.81964" lon="6.21848">
        <ele>1163</ele>
        <time>2024-08-13T07:53:55Z</time>
      </trkpt>
      <trkpt lat="44.81964" lon="6.21848">
        <ele>1163.2</ele>
        <time>2024-08-13T07:53:56Z</time>
      </trkpt>
      <trkpt lat="44.81964" lon="6.21848">
        <ele>1163.4</ele>
        <time>2024-08-13T07:53:57Z</time>
      </trkpt>
      <trkpt lat="44.81962" lon="6.21846">
        <ele>1163.4</ele>
        <time>2024-08-13T07:53:58Z</time>
      </trkpt>
      <trkpt lat="44.81962" lon="6.21846">
        <ele>1163.8</ele>
        <time>2024-08-13T07:53:59Z</time>
      </trkpt>
      <trkpt lat="44.81959" lon="6.21843">
        <ele>1163.8</ele>
        <time>2024-08-13T07:54:00Z</time>
      </trkpt>
      <trkpt lat="44.81957" lon="6.21842">
        <ele>1163.6</ele>
        <time>2024-08-13T07:54:01Z</time>
      </trkpt>
      <trkpt lat="44.81957" lon="6.21842">
        <ele>1163</ele>
        <time>2024-08-13T07:54:02Z</time>
      </trkpt>
      <trkpt lat="44.81957" lon="6.21839">
        <ele>1163</ele>
        <time>2024-08-13T07:54:03Z</time>
      </trkpt>
      <trkpt lat="44.81957" lon="6.21839">
        <ele>1163.2</ele>
        <time>2024-08-13T07:54:04Z</time>
      </trkpt>
      <trkpt lat="44.81958" lon="6.21836">
        <ele>1163.2</ele>
        <time>2024-08-13T07:54:05Z</time>
      </trkpt>
      <trkpt lat="44.81958" lon="6.21836">
        <ele>1163.2</ele>
        <time>2024-08-13T07:54:06Z</time>
      </trkpt>
      <trkpt lat="44.81958" lon="6.21836">
        <ele>1163.2</ele>
        <time>2024-08-13T07:54:07Z</time>
      </trkpt>
      <trkpt lat="44.8196" lon="6.21834">
        <ele>1163.4</ele>
        <time>2024-08-13T07:54:08Z</time>
      </trkpt>
      <trkpt lat="44.8196" lon="6.21834">
        <ele>1163.8</ele>
        <time>2024-08-13T07:54:09Z</time>
      </trkpt>
      <trkpt lat="44.81962" lon="6.21832">
        <ele>1164</ele>
        <time>2024-08-13T07:54:10Z</time>
      </trkpt>
      <trkpt lat="44.81962" lon="6.21832">
        <ele>1164</ele>
        <time>2024-08-13T07:54:11Z</time>
      </trkpt>
      <trkpt lat="44.81962" lon="6.21832">
        <ele>1164</ele>
        <time>2024-08-13T07:54:12Z</time>
      </trkpt>
      <trkpt lat="44.81962" lon="6.21832">
        <ele>1164</ele>
        <time>2024-08-13T07:54:13Z</time>
      </trkpt>
      <trkpt lat="44.81963" lon="6.2183">
        <ele>1163.8</ele>
        <time>2024-08-13T07:54:14Z</time>
      </trkpt>
      <trkpt lat="44.81963" lon="6.2183">
        <ele>1163.8</ele>
        <time>2024-08-13T07:54:15Z</time>
      </trkpt>
      <trkpt lat="44.81963" lon="6.2183">
        <ele>1163.8</ele>
        <time>2024-08-13T07:54:16Z</time>
      </trkpt>
      <trkpt lat="44.81963" lon="6.2183">
        <ele>1163.4</ele>
        <time>2024-08-13T07:54:17Z</time>
      </trkpt>
      <trkpt lat="44.81963" lon="6.2183">
        <ele>1163.2</ele>
        <time>2024-08-13T07:54:18Z</time>
      </trkpt>
      <trkpt lat="44.81964" lon="6.21827">
        <ele>1163</ele>
        <time>2024-08-13T07:54:19Z</time>
      </trkpt>
      <trkpt lat="44.81964" lon="6.21827">
        <ele>1162.8</ele>
        <time>2024-08-13T07:54:20Z</time>
      </trkpt>
      <trkpt lat="44.81964" lon="6.21827">
        <ele>1162.2</ele>
        <time>2024-08-13T07:54:21Z</time>
      </trkpt>
      <trkpt lat="44.81965" lon="6.21825">
        <ele>1161.8</ele>
        <time>2024-08-13T07:54:22Z</time>
      </trkpt>
      <trkpt lat="44.81965" lon="6.21825">
        <ele>1161.8</ele>
        <time>2024-08-13T07:54:23Z</time>
      </trkpt>
      <trkpt lat="44.81965" lon="6.21825">
        <ele>1161.4</ele>
        <time>2024-08-13T07:54:24Z</time>
      </trkpt>
      <trkpt lat="44.81965" lon="6.21825">
        <ele>1161.2</ele>
        <time>2024-08-13T07:54:25Z</time>
      </trkpt>
      <trkpt lat="44.81966" lon="6.21822">
        <ele>1160.8</ele>
        <time>2024-08-13T07:54:26Z</time>
      </trkpt>
      <trkpt lat="44.81966" lon="6.21822">
        <ele>1160.6</ele>
        <time>2024-08-13T07:54:27Z</time>
      </trkpt>
      <trkpt lat="44.81966" lon="6.21822">
        <ele>1160.4</ele>
        <time>2024-08-13T07:54:28Z</time>
      </trkpt>
      <trkpt lat="44.81966" lon="6.21822">
        <ele>1160.2</ele>
        <time>2024-08-13T07:54:29Z</time>
      </trkpt>
      <trkpt lat="44.81966" lon="6.21818">
        <ele>1160</ele>
        <time>2024-08-13T07:54:30Z</time>
      </trkpt>
      <trkpt lat="44.81966" lon="6.21818">
        <ele>1159.6</ele>
        <time>2024-08-13T07:54:31Z</time>
      </trkpt>
      <trkpt lat="44.81966" lon="6.21818">
        <ele>1159.4</ele>
        <time>2024-08-13T07:54:32Z</time>
      </trkpt>
      <trkpt lat="44.81966" lon="6.21815">
        <ele>1159.4</ele>
        <time>2024-08-13T07:54:33Z</time>
      </trkpt>
      <trkpt lat="44.81966" lon="6.21815">
        <ele>1159.4</ele>
        <time>2024-08-13T07:54:34Z</time>
      </trkpt>
      <trkpt lat="44.81966" lon="6.21815">
        <ele>1159.6</ele>
        <time>2024-08-13T07:54:35Z</time>
      </trkpt>
      <trkpt lat="44.81965" lon="6.21811">
        <ele>1159.6</ele>
        <time>2024-08-13T07:54:36Z</time>
      </trkpt>
      <trkpt lat="44.81965" lon="6.21811">
        <ele>1159.2</ele>
        <time>2024-08-13T07:54:37Z</time>
      </trkpt>
      <trkpt lat="44.81965" lon="6.21811">
        <ele>1158.8</ele>
        <time>2024-08-13T07:54:38Z</time>
      </trkpt>
      <trkpt lat="44.81966" lon="6.21807">
        <ele>1158.6</ele>
        <time>2024-08-13T07:54:39Z</time>
      </trkpt>
      <trkpt lat="44.81966" lon="6.21807">
        <ele>1158.6</ele>
        <time>2024-08-13T07:54:40Z</time>
      </trkpt>
      <trkpt lat="44.81967" lon="6.21804">
        <ele>1158.6</ele>
        <time>2024-08-13T07:54:41Z</time>
      </trkpt>
      <trkpt lat="44.81967" lon="6.21804">
        <ele>1158.6</ele>
        <time>2024-08-13T07:54:42Z</time>
      </trkpt>
      <trkpt lat="44.81967" lon="6.21804">
        <ele>1158.4</ele>
        <time>2024-08-13T07:54:43Z</time>
      </trkpt>
      <trkpt lat="44.81968" lon="6.21801">
        <ele>1158.2</ele>
        <time>2024-08-13T07:54:44Z</time>
      </trkpt>
      <trkpt lat="44.81968" lon="6.21801">
        <ele>1158</ele>
        <time>2024-08-13T07:54:45Z</time>
      </trkpt>
      <trkpt lat="44.81969" lon="6.21798">
        <ele>1158</ele>
        <time>2024-08-13T07:54:46Z</time>
      </trkpt>
      <trkpt lat="44.81969" lon="6.21798">
        <ele>1157.8</ele>
        <time>2024-08-13T07:54:47Z</time>
      </trkpt>
      <trkpt lat="44.81971" lon="6.21796">
        <ele>1157.8</ele>
        <time>2024-08-13T07:54:48Z</time>
      </trkpt>
      <trkpt lat="44.81971" lon="6.21796">
        <ele>1157.8</ele>
        <time>2024-08-13T07:54:49Z</time>
      </trkpt>
      <trkpt lat="44.81971" lon="6.21796">
        <ele>1157.4</ele>
        <time>2024-08-13T07:54:50Z</time>
      </trkpt>
      <trkpt lat="44.81971" lon="6.21794">
        <ele>1157</ele>
        <time>2024-08-13T07:54:51Z</time>
      </trkpt>
      <trkpt lat="44.81971" lon="6.21794">
        <ele>1156.8</ele>
        <time>2024-08-13T07:54:52Z</time>
      </trkpt>
      <trkpt lat="44.81971" lon="6.21794">
        <ele>1156.8</ele>
        <time>2024-08-13T07:54:53Z</time>
      </trkpt>
      <trkpt lat="44.81973" lon="6.21792">
        <ele>1156.4</ele>
        <time>2024-08-13T07:54:54Z</time>
      </trkpt>
      <trkpt lat="44.81973" lon="6.21792">
        <ele>1156</ele>
        <time>2024-08-13T07:54:55Z</time>
      </trkpt>
      <trkpt lat="44.81974" lon="6.21794">
        <ele>1156</ele>
        <time>2024-08-13T07:54:56Z</time>
      </trkpt>
      <trkpt lat="44.81974" lon="6.21794">
        <ele>1155.8</ele>
        <time>2024-08-13T07:54:57Z</time>
      </trkpt>
      <trkpt lat="44.81974" lon="6.21794">
        <ele>1155.4</ele>
        <time>2024-08-13T07:54:58Z</time>
      </trkpt>
      <trkpt lat="44.81976" lon="6.21795">
        <ele>1155.4</ele>
        <time>2024-08-13T07:54:59Z</time>
      </trkpt>
      <trkpt lat="44.81976" lon="6.21795">
        <ele>1155.4</ele>
        <time>2024-08-13T07:55:00Z</time>
      </trkpt>
      <trkpt lat="44.81976" lon="6.21795">
        <ele>1154.8</ele>
        <time>2024-08-13T07:55:01Z</time>
      </trkpt>
      <trkpt lat="44.81975" lon="6.21792">
        <ele>1154.4</ele>
        <time>2024-08-13T07:55:02Z</time>
      </trkpt>
      <trkpt lat="44.81975" lon="6.21792">
        <ele>1154.4</ele>
        <time>2024-08-13T07:55:03Z</time>
      </trkpt>
      <trkpt lat="44.81974" lon="6.21789">
        <ele>1154.2</ele>
        <time>2024-08-13T07:55:04Z</time>
      </trkpt>
      <trkpt lat="44.81974" lon="6.21789">
        <ele>1154</ele>
        <time>2024-08-13T07:55:05Z</time>
      </trkpt>
      <trkpt lat="44.81973" lon="6.21786">
        <ele>1153.8</ele>
        <time>2024-08-13T07:55:06Z</time>
      </trkpt>
      <trkpt lat="44.81973" lon="6.21786">
        <ele>1153.6</ele>
        <time>2024-08-13T07:55:07Z</time>
      </trkpt>
      <trkpt lat="44.81973" lon="6.21782">
        <ele>1153.6</ele>
        <time>2024-08-13T07:55:08Z</time>
      </trkpt>
      <trkpt lat="44.81973" lon="6.21782">
        <ele>1153.4</ele>
        <time>2024-08-13T07:55:09Z</time>
      </trkpt>
      <trkpt lat="44.81972" lon="6.21779">
        <ele>1153.4</ele>
        <time>2024-08-13T07:55:10Z</time>
      </trkpt>
      <trkpt lat="44.81972" lon="6.21779">
        <ele>1153.4</ele>
        <time>2024-08-13T07:55:11Z</time>
      </trkpt>
      <trkpt lat="44.81971" lon="6.21776">
        <ele>1153.4</ele>
        <time>2024-08-13T07:55:12Z</time>
      </trkpt>
      <trkpt lat="44.81971" lon="6.21776">
        <ele>1153.4</ele>
        <time>2024-08-13T07:55:13Z</time>
      </trkpt>
      <trkpt lat="44.8197" lon="6.21773">
        <ele>1153.2</ele>
        <time>2024-08-13T07:55:14Z</time>
      </trkpt>
      <trkpt lat="44.8197" lon="6.21773">
        <ele>1153.2</ele>
        <time>2024-08-13T07:55:15Z</time>
      </trkpt>
      <trkpt lat="44.8197" lon="6.21769">
        <ele>1153</ele>
        <time>2024-08-13T07:55:16Z</time>
      </trkpt>
      <trkpt lat="44.8197" lon="6.21769">
        <ele>1153</ele>
        <time>2024-08-13T07:55:17Z</time>
      </trkpt>
      <trkpt lat="44.8197" lon="6.21765">
        <ele>1152.8</ele>
        <time>2024-08-13T07:55:18Z</time>
      </trkpt>
      <trkpt lat="44.8197" lon="6.21765">
        <ele>1152.8</ele>
        <time>2024-08-13T07:55:19Z</time>
      </trkpt>
      <trkpt lat="44.8197" lon="6.21761">
        <ele>1152.6</ele>
        <time>2024-08-13T07:55:20Z</time>
      </trkpt>
      <trkpt lat="44.8197" lon="6.21761">
        <ele>1152.4</ele>
        <time>2024-08-13T07:55:21Z</time>
      </trkpt>
      <trkpt lat="44.81971" lon="6.21758">
        <ele>1152.4</ele>
        <time>2024-08-13T07:55:22Z</time>
      </trkpt>
      <trkpt lat="44.81971" lon="6.21758">
        <ele>1152.4</ele>
        <time>2024-08-13T07:55:23Z</time>
      </trkpt>
      <trkpt lat="44.81971" lon="6.21754">
        <ele>1152.2</ele>
        <time>2024-08-13T07:55:24Z</time>
      </trkpt>
      <trkpt lat="44.81971" lon="6.21754">
        <ele>1152.2</ele>
        <time>2024-08-13T07:55:25Z</time>
      </trkpt>
      <trkpt lat="44.8197" lon="6.21751">
        <ele>1152.4</ele>
        <time>2024-08-13T07:55:26Z</time>
      </trkpt>
      <trkpt lat="44.8197" lon="6.21751">
        <ele>1152.4</ele>
        <time>2024-08-13T07:55:27Z</time>
      </trkpt>
      <trkpt lat="44.81969" lon="6.21749">
        <ele>1152</ele>
        <time>2024-08-13T07:55:28Z</time>
      </trkpt>
      <trkpt lat="44.81969" lon="6.21749">
        <ele>1152</ele>
        <time>2024-08-13T07:55:29Z</time>
      </trkpt>
      <trkpt lat="44.81969" lon="6.21746">
        <ele>1152</ele>
        <time>2024-08-13T07:55:30Z</time>
      </trkpt>
      <trkpt lat="44.81969" lon="6.21746">
        <ele>1152</ele>
        <time>2024-08-13T07:55:31Z</time>
      </trkpt>
      <trkpt lat="44.81968" lon="6.21743">
        <ele>1151.8</ele>
        <time>2024-08-13T07:55:32Z</time>
      </trkpt>
      <trkpt lat="44.81968" lon="6.21743">
        <ele>1151.6</ele>
        <time>2024-08-13T07:55:33Z</time>
      </trkpt>
      <trkpt lat="44.81967" lon="6.21739">
        <ele>1151.4</ele>
        <time>2024-08-13T07:55:34Z</time>
      </trkpt>
      <trkpt lat="44.81967" lon="6.21739">
        <ele>1151.2</ele>
        <time>2024-08-13T07:55:35Z</time>
      </trkpt>
      <trkpt lat="44.81966" lon="6.21736">
        <ele>1151</ele>
        <time>2024-08-13T07:55:36Z</time>
      </trkpt>
      <trkpt lat="44.81966" lon="6.21736">
        <ele>1150.6</ele>
        <time>2024-08-13T07:55:37Z</time>
      </trkpt>
      <trkpt lat="44.81964" lon="6.21733">
        <ele>1150.6</ele>
        <time>2024-08-13T07:55:38Z</time>
      </trkpt>
      <trkpt lat="44.81964" lon="6.21733">
        <ele>1150.4</ele>
        <time>2024-08-13T07:55:39Z</time>
      </trkpt>
      <trkpt lat="44.81963" lon="6.2173">
        <ele>1150.2</ele>
        <time>2024-08-13T07:55:40Z</time>
      </trkpt>
      <trkpt lat="44.81963" lon="6.2173">
        <ele>1150.2</ele>
        <time>2024-08-13T07:55:41Z</time>
      </trkpt>
      <trkpt lat="44.81962" lon="6.21726">
        <ele>1150.2</ele>
        <time>2024-08-13T07:55:42Z</time>
      </trkpt>
      <trkpt lat="44.81962" lon="6.21726">
        <ele>1149.6</ele>
        <time>2024-08-13T07:55:43Z</time>
      </trkpt>
      <trkpt lat="44.81962" lon="6.21722">
        <ele>1149.4</ele>
        <time>2024-08-13T07:55:44Z</time>
      </trkpt>
      <trkpt lat="44.81962" lon="6.21722">
        <ele>1149.4</ele>
        <time>2024-08-13T07:55:45Z</time>
      </trkpt>
      <trkpt lat="44.81961" lon="6.21718">
        <ele>1149.2</ele>
        <time>2024-08-13T07:55:46Z</time>
      </trkpt>
      <trkpt lat="44.81961" lon="6.21718">
        <ele>1149</ele>
        <time>2024-08-13T07:55:47Z</time>
      </trkpt>
      <trkpt lat="44.81961" lon="6.21714">
        <ele>1148.6</ele>
        <time>2024-08-13T07:55:48Z</time>
      </trkpt>
      <trkpt lat="44.81961" lon="6.21714">
        <ele>1148.6</ele>
        <time>2024-08-13T07:55:49Z</time>
      </trkpt>
      <trkpt lat="44.81961" lon="6.2171">
        <ele>1148.4</ele>
        <time>2024-08-13T07:55:50Z</time>
      </trkpt>
      <trkpt lat="44.81961" lon="6.2171">
        <ele>1148.2</ele>
        <time>2024-08-13T07:55:51Z</time>
      </trkpt>
      <trkpt lat="44.81962" lon="6.21707">
        <ele>1148</ele>
        <time>2024-08-13T07:55:52Z</time>
      </trkpt>
      <trkpt lat="44.81962" lon="6.21707">
        <ele>1147.8</ele>
        <time>2024-08-13T07:55:53Z</time>
      </trkpt>
      <trkpt lat="44.81962" lon="6.21703">
        <ele>1147.8</ele>
        <time>2024-08-13T07:55:54Z</time>
      </trkpt>
      <trkpt lat="44.81962" lon="6.21703">
        <ele>1147.6</ele>
        <time>2024-08-13T07:55:55Z</time>
      </trkpt>
      <trkpt lat="44.81962" lon="6.217">
        <ele>1147.4</ele>
        <time>2024-08-13T07:55:56Z</time>
      </trkpt>
      <trkpt lat="44.81962" lon="6.217">
        <ele>1147.4</ele>
        <time>2024-08-13T07:55:57Z</time>
      </trkpt>
      <trkpt lat="44.81962" lon="6.21696">
        <ele>1147.2</ele>
        <time>2024-08-13T07:55:58Z</time>
      </trkpt>
      <trkpt lat="44.81962" lon="6.21696">
        <ele>1147.2</ele>
        <time>2024-08-13T07:55:59Z</time>
      </trkpt>
      <trkpt lat="44.81962" lon="6.21692">
        <ele>1146.8</ele>
        <time>2024-08-13T07:56:00Z</time>
      </trkpt>
      <trkpt lat="44.81962" lon="6.21692">
        <ele>1146.8</ele>
        <time>2024-08-13T07:56:01Z</time>
      </trkpt>
      <trkpt lat="44.81962" lon="6.21689">
        <ele>1146.6</ele>
        <time>2024-08-13T07:56:02Z</time>
      </trkpt>
      <trkpt lat="44.81962" lon="6.21689">
        <ele>1146.6</ele>
        <time>2024-08-13T07:56:03Z</time>
      </trkpt>
      <trkpt lat="44.81963" lon="6.21685">
        <ele>1146.8</ele>
        <time>2024-08-13T07:56:04Z</time>
      </trkpt>
      <trkpt lat="44.81963" lon="6.21685">
        <ele>1146.8</ele>
        <time>2024-08-13T07:56:05Z</time>
      </trkpt>
      <trkpt lat="44.81963" lon="6.21681">
        <ele>1146.2</ele>
        <time>2024-08-13T07:56:06Z</time>
      </trkpt>
      <trkpt lat="44.81963" lon="6.21681">
        <ele>1146.2</ele>
        <time>2024-08-13T07:56:07Z</time>
      </trkpt>
      <trkpt lat="44.81963" lon="6.21677">
        <ele>1146.4</ele>
        <time>2024-08-13T07:56:08Z</time>
      </trkpt>
      <trkpt lat="44.81963" lon="6.21677">
        <ele>1146.4</ele>
        <time>2024-08-13T07:56:09Z</time>
      </trkpt>
      <trkpt lat="44.81963" lon="6.21674">
        <ele>1146.4</ele>
        <time>2024-08-13T07:56:10Z</time>
      </trkpt>
      <trkpt lat="44.81963" lon="6.21674">
        <ele>1146.4</ele>
        <time>2024-08-13T07:56:11Z</time>
      </trkpt>
      <trkpt lat="44.81963" lon="6.2167">
        <ele>1146.4</ele>
        <time>2024-08-13T07:56:12Z</time>
      </trkpt>
      <trkpt lat="44.81963" lon="6.2167">
        <ele>1146.2</ele>
        <time>2024-08-13T07:56:13Z</time>
      </trkpt>
      <trkpt lat="44.81963" lon="6.21667">
        <ele>1146.2</ele>
        <time>2024-08-13T07:56:14Z</time>
      </trkpt>
      <trkpt lat="44.81963" lon="6.21667">
        <ele>1146</ele>
        <time>2024-08-13T07:56:15Z</time>
      </trkpt>
      <trkpt lat="44.81964" lon="6.21663">
        <ele>1146</ele>
        <time>2024-08-13T07:56:16Z</time>
      </trkpt>
      <trkpt lat="44.81964" lon="6.21663">
        <ele>1146</ele>
        <time>2024-08-13T07:56:17Z</time>
      </trkpt>
      <trkpt lat="44.81964" lon="6.21659">
        <ele>1146</ele>
        <time>2024-08-13T07:56:18Z</time>
      </trkpt>
      <trkpt lat="44.81964" lon="6.21659">
        <ele>1146</ele>
        <time>2024-08-13T07:56:19Z</time>
      </trkpt>
      <trkpt lat="44.81964" lon="6.21656">
        <ele>1146</ele>
        <time>2024-08-13T07:56:20Z</time>
      </trkpt>
      <trkpt lat="44.81964" lon="6.21656">
        <ele>1146</ele>
        <time>2024-08-13T07:56:21Z</time>
      </trkpt>
      <trkpt lat="44.81964" lon="6.21652">
        <ele>1145.8</ele>
        <time>2024-08-13T07:56:22Z</time>
      </trkpt>
      <trkpt lat="44.81964" lon="6.21652">
        <ele>1145.8</ele>
        <time>2024-08-13T07:56:23Z</time>
      </trkpt>
      <trkpt lat="44.81963" lon="6.21648">
        <ele>1145.8</ele>
        <time>2024-08-13T07:56:24Z</time>
      </trkpt>
      <trkpt lat="44.81963" lon="6.21648">
        <ele>1145.8</ele>
        <time>2024-08-13T07:56:25Z</time>
      </trkpt>
      <trkpt lat="44.81963" lon="6.21644">
        <ele>1145.8</ele>
        <time>2024-08-13T07:56:26Z</time>
      </trkpt>
      <trkpt lat="44.81963" lon="6.21644">
        <ele>1145.8</ele>
        <time>2024-08-13T07:56:27Z</time>
      </trkpt>
      <trkpt lat="44.81963" lon="6.2164">
        <ele>1145.8</ele>
        <time>2024-08-13T07:56:28Z</time>
      </trkpt>
      <trkpt lat="44.81963" lon="6.2164">
        <ele>1145.8</ele>
        <time>2024-08-13T07:56:29Z</time>
      </trkpt>
      <trkpt lat="44.81963" lon="6.21636">
        <ele>1145.8</ele>
        <time>2024-08-13T07:56:30Z</time>
      </trkpt>
      <trkpt lat="44.81963" lon="6.21636">
        <ele>1145.8</ele>
        <time>2024-08-13T07:56:31Z</time>
      </trkpt>
      <trkpt lat="44.81964" lon="6.21632">
        <ele>1146</ele>
        <time>2024-08-13T07:56:32Z</time>
      </trkpt>
      <trkpt lat="44.81964" lon="6.21632">
        <ele>1146</ele>
        <time>2024-08-13T07:56:33Z</time>
      </trkpt>
      <trkpt lat="44.81964" lon="6.21629">
        <ele>1146</ele>
        <time>2024-08-13T07:56:34Z</time>
      </trkpt>
      <trkpt lat="44.81964" lon="6.21629">
        <ele>1145.8</ele>
        <time>2024-08-13T07:56:35Z</time>
      </trkpt>
      <trkpt lat="44.81963" lon="6.21625">
        <ele>1145.6</ele>
        <time>2024-08-13T07:56:36Z</time>
      </trkpt>
      <trkpt lat="44.81963" lon="6.21625">
        <ele>1145.6</ele>
        <time>2024-08-13T07:56:37Z</time>
      </trkpt>
      <trkpt lat="44.81963" lon="6.21621">
        <ele>1145.6</ele>
        <time>2024-08-13T07:56:38Z</time>
      </trkpt>
      <trkpt lat="44.81963" lon="6.21621">
        <ele>1145.2</ele>
        <time>2024-08-13T07:56:39Z</time>
      </trkpt>
      <trkpt lat="44.81962" lon="6.21618">
        <ele>1145.2</ele>
        <time>2024-08-13T07:56:40Z</time>
      </trkpt>
      <trkpt lat="44.81962" lon="6.21618">
        <ele>1145.2</ele>
        <time>2024-08-13T07:56:41Z</time>
      </trkpt>
      <trkpt lat="44.81962" lon="6.21614">
        <ele>1145.2</ele>
        <time>2024-08-13T07:56:42Z</time>
      </trkpt>
      <trkpt lat="44.81962" lon="6.21614">
        <ele>1145</ele>
        <time>2024-08-13T07:56:43Z</time>
      </trkpt>
      <trkpt lat="44.81961" lon="6.2161">
        <ele>1145</ele>
        <time>2024-08-13T07:56:44Z</time>
      </trkpt>
      <trkpt lat="44.81961" lon="6.2161">
        <ele>1145</ele>
        <time>2024-08-13T07:56:45Z</time>
      </trkpt>
      <trkpt lat="44.8196" lon="6.21607">
        <ele>1145</ele>
        <time>2024-08-13T07:56:46Z</time>
      </trkpt>
      <trkpt lat="44.8196" lon="6.21607">
        <ele>1144.8</ele>
        <time>2024-08-13T07:56:47Z</time>
      </trkpt>
      <trkpt lat="44.81959" lon="6.21603">
        <ele>1144.6</ele>
        <time>2024-08-13T07:56:48Z</time>
      </trkpt>
      <trkpt lat="44.81959" lon="6.21603">
        <ele>1144.6</ele>
        <time>2024-08-13T07:56:49Z</time>
      </trkpt>
      <trkpt lat="44.81958" lon="6.21599">
        <ele>1144.6</ele>
        <time>2024-08-13T07:56:50Z</time>
      </trkpt>
      <trkpt lat="44.81958" lon="6.21599">
        <ele>1144.4</ele>
        <time>2024-08-13T07:56:51Z</time>
      </trkpt>
      <trkpt lat="44.81957" lon="6.21595">
        <ele>1144.4</ele>
        <time>2024-08-13T07:56:52Z</time>
      </trkpt>
      <trkpt lat="44.81957" lon="6.21595">
        <ele>1144.4</ele>
        <time>2024-08-13T07:56:53Z</time>
      </trkpt>
      <trkpt lat="44.81956" lon="6.21592">
        <ele>1144.4</ele>
        <time>2024-08-13T07:56:54Z</time>
      </trkpt>
      <trkpt lat="44.81956" lon="6.21592">
        <ele>1144.2</ele>
        <time>2024-08-13T07:56:55Z</time>
      </trkpt>
      <trkpt lat="44.81954" lon="6.21589">
        <ele>1144.2</ele>
        <time>2024-08-13T07:56:56Z</time>
      </trkpt>
      <trkpt lat="44.81954" lon="6.21589">
        <ele>1144.2</ele>
        <time>2024-08-13T07:56:57Z</time>
      </trkpt>
      <trkpt lat="44.81953" lon="6.21585">
        <ele>1144</ele>
        <time>2024-08-13T07:56:58Z</time>
      </trkpt>
      <trkpt lat="44.81953" lon="6.21585">
        <ele>1143.8</ele>
        <time>2024-08-13T07:56:59Z</time>
      </trkpt>
      <trkpt lat="44.81951" lon="6.21582">
        <ele>1143.8</ele>
        <time>2024-08-13T07:57:00Z</time>
      </trkpt>
      <trkpt lat="44.81951" lon="6.21582">
        <ele>1144</ele>
        <time>2024-08-13T07:57:01Z</time>
      </trkpt>
      <trkpt lat="44.8195" lon="6.21579">
        <ele>1144</ele>
        <time>2024-08-13T07:57:02Z</time>
      </trkpt>
      <trkpt lat="44.8195" lon="6.21579">
        <ele>1144</ele>
        <time>2024-08-13T07:57:03Z</time>
      </trkpt>
      <trkpt lat="44.81948" lon="6.21576">
        <ele>1144</ele>
        <time>2024-08-13T07:57:04Z</time>
      </trkpt>
      <trkpt lat="44.81948" lon="6.21576">
        <ele>1144</ele>
        <time>2024-08-13T07:57:05Z</time>
      </trkpt>
      <trkpt lat="44.81947" lon="6.21572">
        <ele>1143.8</ele>
        <time>2024-08-13T07:57:06Z</time>
      </trkpt>
      <trkpt lat="44.81947" lon="6.21572">
        <ele>1144</ele>
        <time>2024-08-13T07:57:07Z</time>
      </trkpt>
      <trkpt lat="44.81945" lon="6.21569">
        <ele>1144</ele>
        <time>2024-08-13T07:57:08Z</time>
      </trkpt>
      <trkpt lat="44.81945" lon="6.21569">
        <ele>1144</ele>
        <time>2024-08-13T07:57:09Z</time>
      </trkpt>
      <trkpt lat="44.81943" lon="6.21565">
        <ele>1144</ele>
        <time>2024-08-13T07:57:10Z</time>
      </trkpt>
      <trkpt lat="44.81943" lon="6.21565">
        <ele>1144</ele>
        <time>2024-08-13T07:57:11Z</time>
      </trkpt>
      <trkpt lat="44.81942" lon="6.21562">
        <ele>1143.8</ele>
        <time>2024-08-13T07:57:12Z</time>
      </trkpt>
      <trkpt lat="44.81942" lon="6.21562">
        <ele>1143.8</ele>
        <time>2024-08-13T07:57:13Z</time>
      </trkpt>
      <trkpt lat="44.81942" lon="6.21558">
        <ele>1143.8</ele>
        <time>2024-08-13T07:57:14Z</time>
      </trkpt>
      <trkpt lat="44.81942" lon="6.21558">
        <ele>1143.8</ele>
        <time>2024-08-13T07:57:15Z</time>
      </trkpt>
      <trkpt lat="44.81941" lon="6.21554">
        <ele>1143.8</ele>
        <time>2024-08-13T07:57:16Z</time>
      </trkpt>
      <trkpt lat="44.81941" lon="6.21554">
        <ele>1143.6</ele>
        <time>2024-08-13T07:57:17Z</time>
      </trkpt>
      <trkpt lat="44.81939" lon="6.2155">
        <ele>1143.6</ele>
        <time>2024-08-13T07:57:18Z</time>
      </trkpt>
      <trkpt lat="44.81939" lon="6.2155">
        <ele>1143.6</ele>
        <time>2024-08-13T07:57:19Z</time>
      </trkpt>
      <trkpt lat="44.81938" lon="6.21546">
        <ele>1143.4</ele>
        <time>2024-08-13T07:57:20Z</time>
      </trkpt>
      <trkpt lat="44.81938" lon="6.21546">
        <ele>1143.4</ele>
        <time>2024-08-13T07:57:21Z</time>
      </trkpt>
      <trkpt lat="44.81937" lon="6.21543">
        <ele>1143.4</ele>
        <time>2024-08-13T07:57:22Z</time>
      </trkpt>
      <trkpt lat="44.81937" lon="6.21543">
        <ele>1143.4</ele>
        <time>2024-08-13T07:57:23Z</time>
      </trkpt>
      <trkpt lat="44.81935" lon="6.21539">
        <ele>1143.2</ele>
        <time>2024-08-13T07:57:24Z</time>
      </trkpt>
      <trkpt lat="44.81935" lon="6.21539">
        <ele>1143.2</ele>
        <time>2024-08-13T07:57:25Z</time>
      </trkpt>
      <trkpt lat="44.81934" lon="6.21536">
        <ele>1143</ele>
        <time>2024-08-13T07:57:26Z</time>
      </trkpt>
      <trkpt lat="44.81934" lon="6.21536">
        <ele>1143</ele>
        <time>2024-08-13T07:57:27Z</time>
      </trkpt>
      <trkpt lat="44.81933" lon="6.21533">
        <ele>1143</ele>
        <time>2024-08-13T07:57:28Z</time>
      </trkpt>
      <trkpt lat="44.81933" lon="6.21533">
        <ele>1143</ele>
        <time>2024-08-13T07:57:29Z</time>
      </trkpt>
      <trkpt lat="44.81931" lon="6.21529">
        <ele>1143</ele>
        <time>2024-08-13T07:57:30Z</time>
      </trkpt>
      <trkpt lat="44.81931" lon="6.21529">
        <ele>1142.6</ele>
        <time>2024-08-13T07:57:31Z</time>
      </trkpt>
      <trkpt lat="44.81929" lon="6.21526">
        <ele>1142.6</ele>
        <time>2024-08-13T07:57:32Z</time>
      </trkpt>
      <trkpt lat="44.81929" lon="6.21526">
        <ele>1142.6</ele>
        <time>2024-08-13T07:57:33Z</time>
      </trkpt>
      <trkpt lat="44.81927" lon="6.21523">
        <ele>1142.6</ele>
        <time>2024-08-13T07:57:34Z</time>
      </trkpt>
      <trkpt lat="44.81927" lon="6.21523">
        <ele>1142.6</ele>
        <time>2024-08-13T07:57:35Z</time>
      </trkpt>
      <trkpt lat="44.81925" lon="6.2152">
        <ele>1142.8</ele>
        <time>2024-08-13T07:57:36Z</time>
      </trkpt>
      <trkpt lat="44.81925" lon="6.2152">
        <ele>1142.8</ele>
        <time>2024-08-13T07:57:37Z</time>
      </trkpt>
      <trkpt lat="44.81924" lon="6.21517">
        <ele>1143.2</ele>
        <time>2024-08-13T07:57:38Z</time>
      </trkpt>
      <trkpt lat="44.81924" lon="6.21517">
        <ele>1143.2</ele>
        <time>2024-08-13T07:57:39Z</time>
      </trkpt>
      <trkpt lat="44.81921" lon="6.21514">
        <ele>1143</ele>
        <time>2024-08-13T07:57:40Z</time>
      </trkpt>
      <trkpt lat="44.81921" lon="6.21514">
        <ele>1143</ele>
        <time>2024-08-13T07:57:41Z</time>
      </trkpt>
      <trkpt lat="44.81919" lon="6.21511">
        <ele>1143</ele>
        <time>2024-08-13T07:57:42Z</time>
      </trkpt>
      <trkpt lat="44.81919" lon="6.21511">
        <ele>1143</ele>
        <time>2024-08-13T07:57:43Z</time>
      </trkpt>
      <trkpt lat="44.81918" lon="6.21508">
        <ele>1143</ele>
        <time>2024-08-13T07:57:44Z</time>
      </trkpt>
      <trkpt lat="44.81918" lon="6.21508">
        <ele>1142.8</ele>
        <time>2024-08-13T07:57:45Z</time>
      </trkpt>
      <trkpt lat="44.81916" lon="6.21506">
        <ele>1142.8</ele>
        <time>2024-08-13T07:57:46Z</time>
      </trkpt>
      <trkpt lat="44.81916" lon="6.21506">
        <ele>1143</ele>
        <time>2024-08-13T07:57:47Z</time>
      </trkpt>
      <trkpt lat="44.81914" lon="6.21503">
        <ele>1143</ele>
        <time>2024-08-13T07:57:48Z</time>
      </trkpt>
      <trkpt lat="44.81914" lon="6.21503">
        <ele>1143</ele>
        <time>2024-08-13T07:57:49Z</time>
      </trkpt>
      <trkpt lat="44.81911" lon="6.21501">
        <ele>1143</ele>
        <time>2024-08-13T07:57:50Z</time>
      </trkpt>
      <trkpt lat="44.81911" lon="6.21501">
        <ele>1143</ele>
        <time>2024-08-13T07:57:51Z</time>
      </trkpt>
      <trkpt lat="44.81909" lon="6.21498">
        <ele>1142.8</ele>
        <time>2024-08-13T07:57:52Z</time>
      </trkpt>
      <trkpt lat="44.81909" lon="6.21498">
        <ele>1142.8</ele>
        <time>2024-08-13T07:57:53Z</time>
      </trkpt>
      <trkpt lat="44.81907" lon="6.21496">
        <ele>1142.8</ele>
        <time>2024-08-13T07:57:54Z</time>
      </trkpt>
      <trkpt lat="44.81907" lon="6.21496">
        <ele>1142.8</ele>
        <time>2024-08-13T07:57:55Z</time>
      </trkpt>
      <trkpt lat="44.81905" lon="6.21494">
        <ele>1142.6</ele>
        <time>2024-08-13T07:57:56Z</time>
      </trkpt>
      <trkpt lat="44.81905" lon="6.21494">
        <ele>1142.6</ele>
        <time>2024-08-13T07:57:57Z</time>
      </trkpt>
      <trkpt lat="44.81903" lon="6.21492">
        <ele>1142.4</ele>
        <time>2024-08-13T07:57:58Z</time>
      </trkpt>
      <trkpt lat="44.81903" lon="6.21492">
        <ele>1142.4</ele>
        <time>2024-08-13T07:57:59Z</time>
      </trkpt>
      <trkpt lat="44.81901" lon="6.21489">
        <ele>1142.2</ele>
        <time>2024-08-13T07:58:00Z</time>
      </trkpt>
      <trkpt lat="44.81901" lon="6.21489">
        <ele>1142.2</ele>
        <time>2024-08-13T07:58:01Z</time>
      </trkpt>
      <trkpt lat="44.81898" lon="6.21487">
        <ele>1142</ele>
        <time>2024-08-13T07:58:02Z</time>
      </trkpt>
      <trkpt lat="44.81898" lon="6.21487">
        <ele>1142</ele>
        <time>2024-08-13T07:58:03Z</time>
      </trkpt>
      <trkpt lat="44.81895" lon="6.21484">
        <ele>1142</ele>
        <time>2024-08-13T07:58:04Z</time>
      </trkpt>
      <trkpt lat="44.81895" lon="6.21484">
        <ele>1142</ele>
        <time>2024-08-13T07:58:05Z</time>
      </trkpt>
      <trkpt lat="44.81893" lon="6.21482">
        <ele>1142</ele>
        <time>2024-08-13T07:58:06Z</time>
      </trkpt>
      <trkpt lat="44.81893" lon="6.21482">
        <ele>1142</ele>
        <time>2024-08-13T07:58:07Z</time>
      </trkpt>
      <trkpt lat="44.8189" lon="6.2148">
        <ele>1142</ele>
        <time>2024-08-13T07:58:08Z</time>
      </trkpt>
      <trkpt lat="44.8189" lon="6.2148">
        <ele>1142</ele>
        <time>2024-08-13T07:58:09Z</time>
      </trkpt>
      <trkpt lat="44.81888" lon="6.21478">
        <ele>1142</ele>
        <time>2024-08-13T07:58:10Z</time>
      </trkpt>
      <trkpt lat="44.81888" lon="6.21478">
        <ele>1142</ele>
        <time>2024-08-13T07:58:11Z</time>
      </trkpt>
      <trkpt lat="44.81886" lon="6.21476">
        <ele>1141.8</ele>
        <time>2024-08-13T07:58:12Z</time>
      </trkpt>
      <trkpt lat="44.81886" lon="6.21476">
        <ele>1141.8</ele>
        <time>2024-08-13T07:58:13Z</time>
      </trkpt>
      <trkpt lat="44.81885" lon="6.21473">
        <ele>1142</ele>
        <time>2024-08-13T07:58:14Z</time>
      </trkpt>
      <trkpt lat="44.81883" lon="6.21472">
        <ele>1142</ele>
        <time>2024-08-13T07:58:15Z</time>
      </trkpt>
      <trkpt lat="44.81883" lon="6.21472">
        <ele>1141.8</ele>
        <time>2024-08-13T07:58:16Z</time>
      </trkpt>
      <trkpt lat="44.81882" lon="6.21468">
        <ele>1141.8</ele>
        <time>2024-08-13T07:58:17Z</time>
      </trkpt>
      <trkpt lat="44.81882" lon="6.21468">
        <ele>1141.8</ele>
        <time>2024-08-13T07:58:18Z</time>
      </trkpt>
      <trkpt lat="44.81881" lon="6.21464">
        <ele>1141.8</ele>
        <time>2024-08-13T07:58:19Z</time>
      </trkpt>
      <trkpt lat="44.81881" lon="6.21464">
        <ele>1141.8</ele>
        <time>2024-08-13T07:58:20Z</time>
      </trkpt>
      <trkpt lat="44.81881" lon="6.21461">
        <ele>1141.8</ele>
        <time>2024-08-13T07:58:21Z</time>
      </trkpt>
      <trkpt lat="44.81881" lon="6.21461">
        <ele>1141.8</ele>
        <time>2024-08-13T07:58:22Z</time>
      </trkpt>
      <trkpt lat="44.81881" lon="6.21457">
        <ele>1141.8</ele>
        <time>2024-08-13T07:58:23Z</time>
      </trkpt>
      <trkpt lat="44.81881" lon="6.21457">
        <ele>1142</ele>
        <time>2024-08-13T07:58:24Z</time>
      </trkpt>
      <trkpt lat="44.81881" lon="6.21453">
        <ele>1142.2</ele>
        <time>2024-08-13T07:58:25Z</time>
      </trkpt>
      <trkpt lat="44.81881" lon="6.21453">
        <ele>1142.2</ele>
        <time>2024-08-13T07:58:26Z</time>
      </trkpt>
      <trkpt lat="44.81881" lon="6.21449">
        <ele>1142.2</ele>
        <time>2024-08-13T07:58:27Z</time>
      </trkpt>
      <trkpt lat="44.81881" lon="6.21449">
        <ele>1142.2</ele>
        <time>2024-08-13T07:58:28Z</time>
      </trkpt>
      <trkpt lat="44.81881" lon="6.21444">
        <ele>1142.2</ele>
        <time>2024-08-13T07:58:29Z</time>
      </trkpt>
      <trkpt lat="44.81881" lon="6.21444">
        <ele>1142.2</ele>
        <time>2024-08-13T07:58:30Z</time>
      </trkpt>
      <trkpt lat="44.8188" lon="6.21441">
        <ele>1142.2</ele>
        <time>2024-08-13T07:58:31Z</time>
      </trkpt>
      <trkpt lat="44.8188" lon="6.21441">
        <ele>1142.2</ele>
        <time>2024-08-13T07:58:32Z</time>
      </trkpt>
      <trkpt lat="44.8188" lon="6.21437">
        <ele>1142.2</ele>
        <time>2024-08-13T07:58:33Z</time>
      </trkpt>
      <trkpt lat="44.8188" lon="6.21437">
        <ele>1142.2</ele>
        <time>2024-08-13T07:58:34Z</time>
      </trkpt>
      <trkpt lat="44.8188" lon="6.21433">
        <ele>1142</ele>
        <time>2024-08-13T07:58:35Z</time>
      </trkpt>
      <trkpt lat="44.8188" lon="6.21433">
        <ele>1142</ele>
        <time>2024-08-13T07:58:36Z</time>
      </trkpt>
      <trkpt lat="44.8188" lon="6.21429">
        <ele>1142</ele>
        <time>2024-08-13T07:58:37Z</time>
      </trkpt>
      <trkpt lat="44.8188" lon="6.21429">
        <ele>1142</ele>
        <time>2024-08-13T07:58:38Z</time>
      </trkpt>
      <trkpt lat="44.81879" lon="6.21425">
        <ele>1141.8</ele>
        <time>2024-08-13T07:58:39Z</time>
      </trkpt>
      <trkpt lat="44.81879" lon="6.21425">
        <ele>1141.8</ele>
        <time>2024-08-13T07:58:40Z</time>
      </trkpt>
      <trkpt lat="44.8188" lon="6.21421">
        <ele>1142</ele>
        <time>2024-08-13T07:58:41Z</time>
      </trkpt>
      <trkpt lat="44.8188" lon="6.21421">
        <ele>1142</ele>
        <time>2024-08-13T07:58:42Z</time>
      </trkpt>
      <trkpt lat="44.81881" lon="6.21417">
        <ele>1142.2</ele>
        <time>2024-08-13T07:58:43Z</time>
      </trkpt>
      <trkpt lat="44.81881" lon="6.21417">
        <ele>1142.2</ele>
        <time>2024-08-13T07:58:44Z</time>
      </trkpt>
      <trkpt lat="44.81883" lon="6.21413">
        <ele>1142.2</ele>
        <time>2024-08-13T07:58:45Z</time>
      </trkpt>
      <trkpt lat="44.81883" lon="6.21413">
        <ele>1142.2</ele>
        <time>2024-08-13T07:58:46Z</time>
      </trkpt>
      <trkpt lat="44.81883" lon="6.21409">
        <ele>1142.2</ele>
        <time>2024-08-13T07:58:47Z</time>
      </trkpt>
      <trkpt lat="44.81883" lon="6.21409">
        <ele>1142.2</ele>
        <time>2024-08-13T07:58:48Z</time>
      </trkpt>
      <trkpt lat="44.81883" lon="6.21404">
        <ele>1142.2</ele>
        <time>2024-08-13T07:58:49Z</time>
      </trkpt>
      <trkpt lat="44.81883" lon="6.21404">
        <ele>1142</ele>
        <time>2024-08-13T07:58:50Z</time>
      </trkpt>
      <trkpt lat="44.81883" lon="6.214">
        <ele>1141.8</ele>
        <time>2024-08-13T07:58:51Z</time>
      </trkpt>
      <trkpt lat="44.81883" lon="6.214">
        <ele>1141.8</ele>
        <time>2024-08-13T07:58:52Z</time>
      </trkpt>
      <trkpt lat="44.81883" lon="6.21397">
        <ele>1141.8</ele>
        <time>2024-08-13T07:58:53Z</time>
      </trkpt>
      <trkpt lat="44.81883" lon="6.21397">
        <ele>1141.6</ele>
        <time>2024-08-13T07:58:54Z</time>
      </trkpt>
      <trkpt lat="44.81881" lon="6.21393">
        <ele>1141.6</ele>
        <time>2024-08-13T07:58:55Z</time>
      </trkpt>
      <trkpt lat="44.81881" lon="6.21393">
        <ele>1141.6</ele>
        <time>2024-08-13T07:58:56Z</time>
      </trkpt>
      <trkpt lat="44.81882" lon="6.21389">
        <ele>1141.4</ele>
        <time>2024-08-13T07:58:57Z</time>
      </trkpt>
      <trkpt lat="44.81882" lon="6.21389">
        <ele>1141.4</ele>
        <time>2024-08-13T07:58:58Z</time>
      </trkpt>
      <trkpt lat="44.81882" lon="6.21385">
        <ele>1141.4</ele>
        <time>2024-08-13T07:58:59Z</time>
      </trkpt>
      <trkpt lat="44.81882" lon="6.21385">
        <ele>1141.6</ele>
        <time>2024-08-13T07:59:00Z</time>
      </trkpt>
      <trkpt lat="44.81883" lon="6.21381">
        <ele>1141.8</ele>
        <time>2024-08-13T07:59:01Z</time>
      </trkpt>
      <trkpt lat="44.81883" lon="6.21381">
        <ele>1142</ele>
        <time>2024-08-13T07:59:02Z</time>
      </trkpt>
      <trkpt lat="44.81883" lon="6.21377">
        <ele>1142</ele>
        <time>2024-08-13T07:59:03Z</time>
      </trkpt>
      <trkpt lat="44.81883" lon="6.21377">
        <ele>1141.8</ele>
        <time>2024-08-13T07:59:04Z</time>
      </trkpt>
      <trkpt lat="44.81884" lon="6.21374">
        <ele>1141.8</ele>
        <time>2024-08-13T07:59:05Z</time>
      </trkpt>
      <trkpt lat="44.81884" lon="6.21374">
        <ele>1141.8</ele>
        <time>2024-08-13T07:59:06Z</time>
      </trkpt>
      <trkpt lat="44.81884" lon="6.2137">
        <ele>1141.6</ele>
        <time>2024-08-13T07:59:07Z</time>
      </trkpt>
      <trkpt lat="44.81884" lon="6.2137">
        <ele>1141.4</ele>
        <time>2024-08-13T07:59:08Z</time>
      </trkpt>
      <trkpt lat="44.81884" lon="6.21367">
        <ele>1141.4</ele>
        <time>2024-08-13T07:59:09Z</time>
      </trkpt>
      <trkpt lat="44.81884" lon="6.21367">
        <ele>1141.4</ele>
        <time>2024-08-13T07:59:10Z</time>
      </trkpt>
      <trkpt lat="44.81883" lon="6.21363">
        <ele>1141</ele>
        <time>2024-08-13T07:59:11Z</time>
      </trkpt>
      <trkpt lat="44.81883" lon="6.21363">
        <ele>1141</ele>
        <time>2024-08-13T07:59:12Z</time>
      </trkpt>
      <trkpt lat="44.81883" lon="6.21359">
        <ele>1141</ele>
        <time>2024-08-13T07:59:13Z</time>
      </trkpt>
      <trkpt lat="44.81883" lon="6.21359">
        <ele>1140.6</ele>
        <time>2024-08-13T07:59:14Z</time>
      </trkpt>
      <trkpt lat="44.81882" lon="6.21356">
        <ele>1140.6</ele>
        <time>2024-08-13T07:59:15Z</time>
      </trkpt>
      <trkpt lat="44.81882" lon="6.21356">
        <ele>1140.4</ele>
        <time>2024-08-13T07:59:16Z</time>
      </trkpt>
      <trkpt lat="44.81881" lon="6.21352">
        <ele>1140.2</ele>
        <time>2024-08-13T07:59:17Z</time>
      </trkpt>
      <trkpt lat="44.81881" lon="6.21352">
        <ele>1140.2</ele>
        <time>2024-08-13T07:59:18Z</time>
      </trkpt>
      <trkpt lat="44.81881" lon="6.21348">
        <ele>1140.2</ele>
        <time>2024-08-13T07:59:19Z</time>
      </trkpt>
      <trkpt lat="44.81881" lon="6.21348">
        <ele>1140.4</ele>
        <time>2024-08-13T07:59:20Z</time>
      </trkpt>
      <trkpt lat="44.8188" lon="6.21345">
        <ele>1140.4</ele>
        <time>2024-08-13T07:59:21Z</time>
      </trkpt>
      <trkpt lat="44.8188" lon="6.21345">
        <ele>1140.4</ele>
        <time>2024-08-13T07:59:22Z</time>
      </trkpt>
      <trkpt lat="44.8188" lon="6.21341">
        <ele>1140.4</ele>
        <time>2024-08-13T07:59:23Z</time>
      </trkpt>
      <trkpt lat="44.8188" lon="6.21341">
        <ele>1140.4</ele>
        <time>2024-08-13T07:59:24Z</time>
      </trkpt>
      <trkpt lat="44.81878" lon="6.21338">
        <ele>1140.6</ele>
        <time>2024-08-13T07:59:25Z</time>
      </trkpt>
      <trkpt lat="44.81878" lon="6.21338">
        <ele>1140.8</ele>
        <time>2024-08-13T07:59:26Z</time>
      </trkpt>
      <trkpt lat="44.81877" lon="6.21335">
        <ele>1140.8</ele>
        <time>2024-08-13T07:59:27Z</time>
      </trkpt>
      <trkpt lat="44.81877" lon="6.21335">
        <ele>1140.8</ele>
        <time>2024-08-13T07:59:28Z</time>
      </trkpt>
      <trkpt lat="44.81876" lon="6.21332">
        <ele>1141.2</ele>
        <time>2024-08-13T07:59:29Z</time>
      </trkpt>
      <trkpt lat="44.81876" lon="6.21332">
        <ele>1141.4</ele>
        <time>2024-08-13T07:59:30Z</time>
      </trkpt>
      <trkpt lat="44.81875" lon="6.21329">
        <ele>1141.4</ele>
        <time>2024-08-13T07:59:31Z</time>
      </trkpt>
      <trkpt lat="44.81875" lon="6.21329">
        <ele>1141.6</ele>
        <time>2024-08-13T07:59:32Z</time>
      </trkpt>
      <trkpt lat="44.81874" lon="6.21326">
        <ele>1141.8</ele>
        <time>2024-08-13T07:59:33Z</time>
      </trkpt>
      <trkpt lat="44.81874" lon="6.21326">
        <ele>1142</ele>
        <time>2024-08-13T07:59:34Z</time>
      </trkpt>
      <trkpt lat="44.81873" lon="6.21324">
        <ele>1142.2</ele>
        <time>2024-08-13T07:59:35Z</time>
      </trkpt>
      <trkpt lat="44.81873" lon="6.21324">
        <ele>1142.2</ele>
        <time>2024-08-13T07:59:36Z</time>
      </trkpt>
      <trkpt lat="44.81871" lon="6.21321">
        <ele>1142.4</ele>
        <time>2024-08-13T07:59:37Z</time>
      </trkpt>
      <trkpt lat="44.81871" lon="6.21321">
        <ele>1142.4</ele>
        <time>2024-08-13T07:59:38Z</time>
      </trkpt>
      <trkpt lat="44.81871" lon="6.21318">
        <ele>1142.4</ele>
        <time>2024-08-13T07:59:39Z</time>
      </trkpt>
      <trkpt lat="44.81871" lon="6.21318">
        <ele>1142.8</ele>
        <time>2024-08-13T07:59:40Z</time>
      </trkpt>
      <trkpt lat="44.81871" lon="6.21318">
        <ele>1142.8</ele>
        <time>2024-08-13T07:59:41Z</time>
      </trkpt>
      <trkpt lat="44.8187" lon="6.21315">
        <ele>1142.8</ele>
        <time>2024-08-13T07:59:42Z</time>
      </trkpt>
      <trkpt lat="44.8187" lon="6.21315">
        <ele>1142.8</ele>
        <time>2024-08-13T07:59:43Z</time>
      </trkpt>
      <trkpt lat="44.8187" lon="6.21315">
        <ele>1143</ele>
        <time>2024-08-13T07:59:44Z</time>
      </trkpt>
      <trkpt lat="44.81869" lon="6.21313">
        <ele>1143</ele>
        <time>2024-08-13T07:59:45Z</time>
      </trkpt>
      <trkpt lat="44.81869" lon="6.21313">
        <ele>1143.2</ele>
        <time>2024-08-13T07:59:46Z</time>
      </trkpt>
      <trkpt lat="44.81869" lon="6.21313">
        <ele>1143.4</ele>
        <time>2024-08-13T07:59:47Z</time>
      </trkpt>
      <trkpt lat="44.81869" lon="6.21311">
        <ele>1143.6</ele>
        <time>2024-08-13T07:59:48Z</time>
      </trkpt>
      <trkpt lat="44.81869" lon="6.21311">
        <ele>1143.8</ele>
        <time>2024-08-13T07:59:49Z</time>
      </trkpt>
      <trkpt lat="44.81868" lon="6.21309">
        <ele>1144.2</ele>
        <time>2024-08-13T07:59:50Z</time>
      </trkpt>
      <trkpt lat="44.81868" lon="6.21309">
        <ele>1144.2</ele>
        <time>2024-08-13T07:59:51Z</time>
      </trkpt>
      <trkpt lat="44.81868" lon="6.21309">
        <ele>1144.2</ele>
        <time>2024-08-13T07:59:52Z</time>
      </trkpt>
      <trkpt lat="44.81865" lon="6.21306">
        <ele>1144.2</ele>
        <time>2024-08-13T07:59:53Z</time>
      </trkpt>
      <trkpt lat="44.81865" lon="6.21306">
        <ele>1144.2</ele>
        <time>2024-08-13T07:59:54Z</time>
      </trkpt>
      <trkpt lat="44.81864" lon="6.21304">
        <ele>1144.2</ele>
        <time>2024-08-13T07:59:55Z</time>
      </trkpt>
      <trkpt lat="44.81864" lon="6.21304">
        <ele>1144.2</ele>
        <time>2024-08-13T07:59:56Z</time>
      </trkpt>
      <trkpt lat="44.81864" lon="6.21304">
        <ele>1144</ele>
        <time>2024-08-13T07:59:57Z</time>
      </trkpt>
      <trkpt lat="44.81864" lon="6.213">
        <ele>1143.8</ele>
        <time>2024-08-13T07:59:58Z</time>
      </trkpt>
      <trkpt lat="44.81864" lon="6.213">
        <ele>1143.6</ele>
        <time>2024-08-13T07:59:59Z</time>
      </trkpt>
      <trkpt lat="44.81865" lon="6.21298">
        <ele>1143.6</ele>
        <time>2024-08-13T08:00:00Z</time>
      </trkpt>
      <trkpt lat="44.81865" lon="6.21298">
        <ele>1143.6</ele>
        <time>2024-08-13T08:00:01Z</time>
      </trkpt>
      <trkpt lat="44.81867" lon="6.21296">
        <ele>1144.2</ele>
        <time>2024-08-13T08:00:02Z</time>
      </trkpt>
      <trkpt lat="44.81867" lon="6.21296">
        <ele>1144.2</ele>
        <time>2024-08-13T08:00:03Z</time>
      </trkpt>
      <trkpt lat="44.81869" lon="6.21295">
        <ele>1144.2</ele>
        <time>2024-08-13T08:00:04Z</time>
      </trkpt>
      <trkpt lat="44.81869" lon="6.21295">
        <ele>1144</ele>
        <time>2024-08-13T08:00:05Z</time>
      </trkpt>
      <trkpt lat="44.81871" lon="6.21293">
        <ele>1143.6</ele>
        <time>2024-08-13T08:00:06Z</time>
      </trkpt>
      <trkpt lat="44.81871" lon="6.21293">
        <ele>1143.6</ele>
        <time>2024-08-13T08:00:07Z</time>
      </trkpt>
      <trkpt lat="44.81874" lon="6.21292">
        <ele>1143.4</ele>
        <time>2024-08-13T08:00:08Z</time>
      </trkpt>
      <trkpt lat="44.81874" lon="6.21292">
        <ele>1143.4</ele>
        <time>2024-08-13T08:00:09Z</time>
      </trkpt>
      <trkpt lat="44.81876" lon="6.2129">
        <ele>1143.2</ele>
        <time>2024-08-13T08:00:10Z</time>
      </trkpt>
      <trkpt lat="44.81876" lon="6.2129">
        <ele>1143</ele>
        <time>2024-08-13T08:00:11Z</time>
      </trkpt>
      <trkpt lat="44.81877" lon="6.21287">
        <ele>1142.6</ele>
        <time>2024-08-13T08:00:12Z</time>
      </trkpt>
      <trkpt lat="44.81877" lon="6.21287">
        <ele>1142.4</ele>
        <time>2024-08-13T08:00:13Z</time>
      </trkpt>
      <trkpt lat="44.81879" lon="6.21284">
        <ele>1142.4</ele>
        <time>2024-08-13T08:00:14Z</time>
      </trkpt>
      <trkpt lat="44.81879" lon="6.21284">
        <ele>1142</ele>
        <time>2024-08-13T08:00:15Z</time>
      </trkpt>
      <trkpt lat="44.8188" lon="6.2128">
        <ele>1141.8</ele>
        <time>2024-08-13T08:00:16Z</time>
      </trkpt>
      <trkpt lat="44.8188" lon="6.2128">
        <ele>1141.6</ele>
        <time>2024-08-13T08:00:17Z</time>
      </trkpt>
      <trkpt lat="44.81881" lon="6.21276">
        <ele>1141.2</ele>
        <time>2024-08-13T08:00:18Z</time>
      </trkpt>
      <trkpt lat="44.81881" lon="6.21276">
        <ele>1141.2</ele>
        <time>2024-08-13T08:00:19Z</time>
      </trkpt>
      <trkpt lat="44.81881" lon="6.21273">
        <ele>1141.4</ele>
        <time>2024-08-13T08:00:20Z</time>
      </trkpt>
      <trkpt lat="44.81881" lon="6.21273">
        <ele>1141.4</ele>
        <time>2024-08-13T08:00:21Z</time>
      </trkpt>
      <trkpt lat="44.81881" lon="6.2127">
        <ele>1141</ele>
        <time>2024-08-13T08:00:22Z</time>
      </trkpt>
      <trkpt lat="44.81881" lon="6.2127">
        <ele>1141</ele>
        <time>2024-08-13T08:00:23Z</time>
      </trkpt>
      <trkpt lat="44.81881" lon="6.21266">
        <ele>1140.8</ele>
        <time>2024-08-13T08:00:24Z</time>
      </trkpt>
      <trkpt lat="44.81881" lon="6.21266">
        <ele>1140.6</ele>
        <time>2024-08-13T08:00:25Z</time>
      </trkpt>
      <trkpt lat="44.81881" lon="6.21262">
        <ele>1140.6</ele>
        <time>2024-08-13T08:00:26Z</time>
      </trkpt>
      <trkpt lat="44.81881" lon="6.21262">
        <ele>1140.4</ele>
        <time>2024-08-13T08:00:27Z</time>
      </trkpt>
      <trkpt lat="44.81881" lon="6.21257">
        <ele>1140.2</ele>
        <time>2024-08-13T08:00:28Z</time>
      </trkpt>
      <trkpt lat="44.81881" lon="6.21257">
        <ele>1140.2</ele>
        <time>2024-08-13T08:00:29Z</time>
      </trkpt>
      <trkpt lat="44.81881" lon="6.21253">
        <ele>1140.2</ele>
        <time>2024-08-13T08:00:30Z</time>
      </trkpt>
      <trkpt lat="44.81881" lon="6.21253">
        <ele>1140.2</ele>
        <time>2024-08-13T08:00:31Z</time>
      </trkpt>
      <trkpt lat="44.81881" lon="6.21249">
        <ele>1140.2</ele>
        <time>2024-08-13T08:00:32Z</time>
      </trkpt>
      <trkpt lat="44.81881" lon="6.21249">
        <ele>1140.2</ele>
        <time>2024-08-13T08:00:33Z</time>
      </trkpt>
      <trkpt lat="44.81881" lon="6.21245">
        <ele>1140.2</ele>
        <time>2024-08-13T08:00:34Z</time>
      </trkpt>
      <trkpt lat="44.81881" lon="6.21245">
        <ele>1140.6</ele>
        <time>2024-08-13T08:00:35Z</time>
      </trkpt>
      <trkpt lat="44.8188" lon="6.21241">
        <ele>1140.6</ele>
        <time>2024-08-13T08:00:36Z</time>
      </trkpt>
      <trkpt lat="44.8188" lon="6.21241">
        <ele>1140.4</ele>
        <time>2024-08-13T08:00:37Z</time>
      </trkpt>
      <trkpt lat="44.8188" lon="6.21237">
        <ele>1140.4</ele>
        <time>2024-08-13T08:00:38Z</time>
      </trkpt>
      <trkpt lat="44.8188" lon="6.21237">
        <ele>1140.6</ele>
        <time>2024-08-13T08:00:39Z</time>
      </trkpt>
      <trkpt lat="44.81881" lon="6.21234">
        <ele>1140.6</ele>
        <time>2024-08-13T08:00:40Z</time>
      </trkpt>
      <trkpt lat="44.81881" lon="6.21234">
        <ele>1140.6</ele>
        <time>2024-08-13T08:00:41Z</time>
      </trkpt>
      <trkpt lat="44.81883" lon="6.21231">
        <ele>1140.4</ele>
        <time>2024-08-13T08:00:42Z</time>
      </trkpt>
      <trkpt lat="44.81883" lon="6.21231">
        <ele>1140.2</ele>
        <time>2024-08-13T08:00:43Z</time>
      </trkpt>
      <trkpt lat="44.81884" lon="6.21227">
        <ele>1139.8</ele>
        <time>2024-08-13T08:00:44Z</time>
      </trkpt>
      <trkpt lat="44.81884" lon="6.21227">
        <ele>1139.6</ele>
        <time>2024-08-13T08:00:45Z</time>
      </trkpt>
      <trkpt lat="44.81885" lon="6.21225">
        <ele>1139.4</ele>
        <time>2024-08-13T08:00:46Z</time>
      </trkpt>
      <trkpt lat="44.81885" lon="6.21225">
        <ele>1139.2</ele>
        <time>2024-08-13T08:00:47Z</time>
      </trkpt>
      <trkpt lat="44.81887" lon="6.21221">
        <ele>1138.8</ele>
        <time>2024-08-13T08:00:48Z</time>
      </trkpt>
      <trkpt lat="44.81887" lon="6.21221">
        <ele>1138.6</ele>
        <time>2024-08-13T08:00:49Z</time>
      </trkpt>
      <trkpt lat="44.81889" lon="6.21218">
        <ele>1138.4</ele>
        <time>2024-08-13T08:00:50Z</time>
      </trkpt>
      <trkpt lat="44.81889" lon="6.21218">
        <ele>1138</ele>
        <time>2024-08-13T08:00:51Z</time>
      </trkpt>
      <trkpt lat="44.81889" lon="6.21214">
        <ele>1137.8</ele>
        <time>2024-08-13T08:00:52Z</time>
      </trkpt>
      <trkpt lat="44.81889" lon="6.21214">
        <ele>1137.6</ele>
        <time>2024-08-13T08:00:53Z</time>
      </trkpt>
      <trkpt lat="44.81889" lon="6.2121">
        <ele>1137.4</ele>
        <time>2024-08-13T08:00:54Z</time>
      </trkpt>
      <trkpt lat="44.81889" lon="6.2121">
        <ele>1137.4</ele>
        <time>2024-08-13T08:00:55Z</time>
      </trkpt>
      <trkpt lat="44.81889" lon="6.21206">
        <ele>1137.2</ele>
        <time>2024-08-13T08:00:56Z</time>
      </trkpt>
      <trkpt lat="44.81889" lon="6.21206">
        <ele>1137</ele>
        <time>2024-08-13T08:00:57Z</time>
      </trkpt>
      <trkpt lat="44.81891" lon="6.21202">
        <ele>1137</ele>
        <time>2024-08-13T08:00:58Z</time>
      </trkpt>
      <trkpt lat="44.81891" lon="6.21202">
        <ele>1137</ele>
        <time>2024-08-13T08:00:59Z</time>
      </trkpt>
      <trkpt lat="44.81892" lon="6.21198">
        <ele>1136.8</ele>
        <time>2024-08-13T08:01:00Z</time>
      </trkpt>
      <trkpt lat="44.81892" lon="6.21198">
        <ele>1136.8</ele>
        <time>2024-08-13T08:01:01Z</time>
      </trkpt>
      <trkpt lat="44.81893" lon="6.21194">
        <ele>1136.6</ele>
        <time>2024-08-13T08:01:02Z</time>
      </trkpt>
      <trkpt lat="44.81893" lon="6.21194">
        <ele>1136.6</ele>
        <time>2024-08-13T08:01:03Z</time>
      </trkpt>
      <trkpt lat="44.81893" lon="6.2119">
        <ele>1136.4</ele>
        <time>2024-08-13T08:01:04Z</time>
      </trkpt>
      <trkpt lat="44.81893" lon="6.2119">
        <ele>1136.4</ele>
        <time>2024-08-13T08:01:05Z</time>
      </trkpt>
      <trkpt lat="44.81893" lon="6.21187">
        <ele>1136.2</ele>
        <time>2024-08-13T08:01:06Z</time>
      </trkpt>
      <trkpt lat="44.81893" lon="6.21187">
        <ele>1136</ele>
        <time>2024-08-13T08:01:07Z</time>
      </trkpt>
      <trkpt lat="44.81893" lon="6.21183">
        <ele>1136.2</ele>
        <time>2024-08-13T08:01:08Z</time>
      </trkpt>
      <trkpt lat="44.81893" lon="6.21183">
        <ele>1136.2</ele>
        <time>2024-08-13T08:01:09Z</time>
      </trkpt>
      <trkpt lat="44.81893" lon="6.21179">
        <ele>1135.8</ele>
        <time>2024-08-13T08:01:10Z</time>
      </trkpt>
      <trkpt lat="44.81893" lon="6.21179">
        <ele>1135.6</ele>
        <time>2024-08-13T08:01:11Z</time>
      </trkpt>
      <trkpt lat="44.81893" lon="6.21175">
        <ele>1135.6</ele>
        <time>2024-08-13T08:01:12Z</time>
      </trkpt>
      <trkpt lat="44.81893" lon="6.21175">
        <ele>1135.4</ele>
        <time>2024-08-13T08:01:13Z</time>
      </trkpt>
      <trkpt lat="44.81892" lon="6.2117">
        <ele>1135.4</ele>
        <time>2024-08-13T08:01:14Z</time>
      </trkpt>
      <trkpt lat="44.81892" lon="6.2117">
        <ele>1135.2</ele>
        <time>2024-08-13T08:01:15Z</time>
      </trkpt>
      <trkpt lat="44.81891" lon="6.21167">
        <ele>1135.2</ele>
        <time>2024-08-13T08:01:16Z</time>
      </trkpt>
      <trkpt lat="44.81891" lon="6.21167">
        <ele>1135</ele>
        <time>2024-08-13T08:01:17Z</time>
      </trkpt>
      <trkpt lat="44.8189" lon="6.21163">
        <ele>1135.2</ele>
        <time>2024-08-13T08:01:18Z</time>
      </trkpt>
      <trkpt lat="44.8189" lon="6.21163">
        <ele>1135.4</ele>
        <time>2024-08-13T08:01:19Z</time>
      </trkpt>
      <trkpt lat="44.8189" lon="6.21159">
        <ele>1135.4</ele>
        <time>2024-08-13T08:01:20Z</time>
      </trkpt>
      <trkpt lat="44.8189" lon="6.21159">
        <ele>1135.2</ele>
        <time>2024-08-13T08:01:21Z</time>
      </trkpt>
      <trkpt lat="44.8189" lon="6.21154">
        <ele>1135</ele>
        <time>2024-08-13T08:01:22Z</time>
      </trkpt>
      <trkpt lat="44.8189" lon="6.21154">
        <ele>1135</ele>
        <time>2024-08-13T08:01:23Z</time>
      </trkpt>
      <trkpt lat="44.81889" lon="6.2115">
        <ele>1135</ele>
        <time>2024-08-13T08:01:24Z</time>
      </trkpt>
      <trkpt lat="44.81889" lon="6.2115">
        <ele>1135.2</ele>
        <time>2024-08-13T08:01:25Z</time>
      </trkpt>
      <trkpt lat="44.81888" lon="6.21146">
        <ele>1135.2</ele>
        <time>2024-08-13T08:01:26Z</time>
      </trkpt>
      <trkpt lat="44.81888" lon="6.21146">
        <ele>1135.2</ele>
        <time>2024-08-13T08:01:27Z</time>
      </trkpt>
      <trkpt lat="44.81888" lon="6.21142">
        <ele>1135.2</ele>
        <time>2024-08-13T08:01:28Z</time>
      </trkpt>
      <trkpt lat="44.81888" lon="6.21142">
        <ele>1135.2</ele>
        <time>2024-08-13T08:01:29Z</time>
      </trkpt>
      <trkpt lat="44.81887" lon="6.21139">
        <ele>1135.2</ele>
        <time>2024-08-13T08:01:30Z</time>
      </trkpt>
      <trkpt lat="44.81887" lon="6.21139">
        <ele>1135.4</ele>
        <time>2024-08-13T08:01:31Z</time>
      </trkpt>
      <trkpt lat="44.81885" lon="6.21135">
        <ele>1135.6</ele>
        <time>2024-08-13T08:01:32Z</time>
      </trkpt>
      <trkpt lat="44.81885" lon="6.21135">
        <ele>1135.8</ele>
        <time>2024-08-13T08:01:33Z</time>
      </trkpt>
      <trkpt lat="44.81885" lon="6.21132">
        <ele>1136</ele>
        <time>2024-08-13T08:01:34Z</time>
      </trkpt>
      <trkpt lat="44.81885" lon="6.21132">
        <ele>1136</ele>
        <time>2024-08-13T08:01:35Z</time>
      </trkpt>
      <trkpt lat="44.81885" lon="6.21132">
        <ele>1136</ele>
        <time>2024-08-13T08:01:36Z</time>
      </trkpt>
      <trkpt lat="44.81886" lon="6.2113">
        <ele>1136</ele>
        <time>2024-08-13T08:01:37Z</time>
      </trkpt>
      <trkpt lat="44.81886" lon="6.2113">
        <ele>1136.2</ele>
        <time>2024-08-13T08:01:38Z</time>
      </trkpt>
      <trkpt lat="44.81888" lon="6.21128">
        <ele>1136.2</ele>
        <time>2024-08-13T08:01:39Z</time>
      </trkpt>
      <trkpt lat="44.81888" lon="6.21128">
        <ele>1136</ele>
        <time>2024-08-13T08:01:40Z</time>
      </trkpt>
      <trkpt lat="44.81888" lon="6.21124">
        <ele>1135.6</ele>
        <time>2024-08-13T08:01:41Z</time>
      </trkpt>
      <trkpt lat="44.81888" lon="6.21124">
        <ele>1135</ele>
        <time>2024-08-13T08:01:42Z</time>
      </trkpt>
      <trkpt lat="44.81888" lon="6.21121">
        <ele>1134.4</ele>
        <time>2024-08-13T08:01:43Z</time>
      </trkpt>
      <trkpt lat="44.81888" lon="6.21121">
        <ele>1134.4</ele>
        <time>2024-08-13T08:01:44Z</time>
      </trkpt>
      <trkpt lat="44.81887" lon="6.21117">
        <ele>1134.4</ele>
        <time>2024-08-13T08:01:45Z</time>
      </trkpt>
      <trkpt lat="44.81887" lon="6.21117">
        <ele>1134.4</ele>
        <time>2024-08-13T08:01:46Z</time>
      </trkpt>
      <trkpt lat="44.81885" lon="6.21113">
        <ele>1134.6</ele>
        <time>2024-08-13T08:01:47Z</time>
      </trkpt>
      <trkpt lat="44.81885" lon="6.21113">
        <ele>1134.6</ele>
        <time>2024-08-13T08:01:48Z</time>
      </trkpt>
      <trkpt lat="44.81885" lon="6.2111">
        <ele>1134.6</ele>
        <time>2024-08-13T08:01:49Z</time>
      </trkpt>
      <trkpt lat="44.81885" lon="6.2111">
        <ele>1134.6</ele>
        <time>2024-08-13T08:01:50Z</time>
      </trkpt>
      <trkpt lat="44.81884" lon="6.21107">
        <ele>1134.6</ele>
        <time>2024-08-13T08:01:51Z</time>
      </trkpt>
      <trkpt lat="44.81884" lon="6.21107">
        <ele>1134.6</ele>
        <time>2024-08-13T08:01:52Z</time>
      </trkpt>
      <trkpt lat="44.81883" lon="6.21104">
        <ele>1134.4</ele>
        <time>2024-08-13T08:01:53Z</time>
      </trkpt>
      <trkpt lat="44.81883" lon="6.21104">
        <ele>1134.2</ele>
        <time>2024-08-13T08:01:54Z</time>
      </trkpt>
      <trkpt lat="44.81883" lon="6.211">
        <ele>1134.2</ele>
        <time>2024-08-13T08:01:55Z</time>
      </trkpt>
      <trkpt lat="44.81883" lon="6.211">
        <ele>1134.2</ele>
        <time>2024-08-13T08:01:56Z</time>
      </trkpt>
      <trkpt lat="44.81881" lon="6.21096">
        <ele>1134.2</ele>
        <time>2024-08-13T08:01:57Z</time>
      </trkpt>
      <trkpt lat="44.81881" lon="6.21096">
        <ele>1134.2</ele>
        <time>2024-08-13T08:01:58Z</time>
      </trkpt>
      <trkpt lat="44.81881" lon="6.21092">
        <ele>1134.4</ele>
        <time>2024-08-13T08:01:59Z</time>
      </trkpt>
      <trkpt lat="44.81881" lon="6.21092">
        <ele>1134.6</ele>
        <time>2024-08-13T08:02:00Z</time>
      </trkpt>
      <trkpt lat="44.8188" lon="6.21088">
        <ele>1134.6</ele>
        <time>2024-08-13T08:02:01Z</time>
      </trkpt>
      <trkpt lat="44.8188" lon="6.21088">
        <ele>1133.8</ele>
        <time>2024-08-13T08:02:02Z</time>
      </trkpt>
      <trkpt lat="44.8188" lon="6.21084">
        <ele>1133.8</ele>
        <time>2024-08-13T08:02:03Z</time>
      </trkpt>
      <trkpt lat="44.8188" lon="6.21084">
        <ele>1133.8</ele>
        <time>2024-08-13T08:02:04Z</time>
      </trkpt>
      <trkpt lat="44.8188" lon="6.21081">
        <ele>1133.8</ele>
        <time>2024-08-13T08:02:05Z</time>
      </trkpt>
      <trkpt lat="44.8188" lon="6.21081">
        <ele>1133.6</ele>
        <time>2024-08-13T08:02:06Z</time>
      </trkpt>
      <trkpt lat="44.81878" lon="6.21077">
        <ele>1133.6</ele>
        <time>2024-08-13T08:02:07Z</time>
      </trkpt>
      <trkpt lat="44.81878" lon="6.21077">
        <ele>1133.8</ele>
        <time>2024-08-13T08:02:08Z</time>
      </trkpt>
      <trkpt lat="44.81877" lon="6.21074">
        <ele>1133.8</ele>
        <time>2024-08-13T08:02:09Z</time>
      </trkpt>
      <trkpt lat="44.81877" lon="6.21074">
        <ele>1134</ele>
        <time>2024-08-13T08:02:10Z</time>
      </trkpt>
      <trkpt lat="44.81877" lon="6.21071">
        <ele>1134.4</ele>
        <time>2024-08-13T08:02:11Z</time>
      </trkpt>
      <trkpt lat="44.81877" lon="6.21071">
        <ele>1134.4</ele>
        <time>2024-08-13T08:02:12Z</time>
      </trkpt>
      <trkpt lat="44.81878" lon="6.21067">
        <ele>1134.4</ele>
        <time>2024-08-13T08:02:13Z</time>
      </trkpt>
      <trkpt lat="44.81878" lon="6.21067">
        <ele>1134.4</ele>
        <time>2024-08-13T08:02:14Z</time>
      </trkpt>
      <trkpt lat="44.81877" lon="6.21063">
        <ele>1134.6</ele>
        <time>2024-08-13T08:02:15Z</time>
      </trkpt>
      <trkpt lat="44.81877" lon="6.21063">
        <ele>1134.6</ele>
        <time>2024-08-13T08:02:16Z</time>
      </trkpt>
      <trkpt lat="44.81878" lon="6.21059">
        <ele>1134.4</ele>
        <time>2024-08-13T08:02:17Z</time>
      </trkpt>
      <trkpt lat="44.81878" lon="6.21059">
        <ele>1134.4</ele>
        <time>2024-08-13T08:02:18Z</time>
      </trkpt>
      <trkpt lat="44.81878" lon="6.21056">
        <ele>1134.6</ele>
        <time>2024-08-13T08:02:19Z</time>
      </trkpt>
      <trkpt lat="44.81878" lon="6.21056">
        <ele>1134.6</ele>
        <time>2024-08-13T08:02:20Z</time>
      </trkpt>
      <trkpt lat="44.81877" lon="6.21053">
        <ele>1134.6</ele>
        <time>2024-08-13T08:02:21Z</time>
      </trkpt>
      <trkpt lat="44.81877" lon="6.21053">
        <ele>1134.8</ele>
        <time>2024-08-13T08:02:22Z</time>
      </trkpt>
      <trkpt lat="44.81876" lon="6.2105">
        <ele>1134.8</ele>
        <time>2024-08-13T08:02:23Z</time>
      </trkpt>
      <trkpt lat="44.81876" lon="6.2105">
        <ele>1135.4</ele>
        <time>2024-08-13T08:02:24Z</time>
      </trkpt>
      <trkpt lat="44.81877" lon="6.21046">
        <ele>1135.6</ele>
        <time>2024-08-13T08:02:25Z</time>
      </trkpt>
      <trkpt lat="44.81877" lon="6.21046">
        <ele>1135.6</ele>
        <time>2024-08-13T08:02:26Z</time>
      </trkpt>
      <trkpt lat="44.81876" lon="6.21042">
        <ele>1135.2</ele>
        <time>2024-08-13T08:02:27Z</time>
      </trkpt>
      <trkpt lat="44.81876" lon="6.21042">
        <ele>1135</ele>
        <time>2024-08-13T08:02:28Z</time>
      </trkpt>
      <trkpt lat="44.81876" lon="6.21039">
        <ele>1134.8</ele>
        <time>2024-08-13T08:02:29Z</time>
      </trkpt>
      <trkpt lat="44.81876" lon="6.21039">
        <ele>1134.8</ele>
        <time>2024-08-13T08:02:30Z</time>
      </trkpt>
      <trkpt lat="44.81875" lon="6.21034">
        <ele>1134.8</ele>
        <time>2024-08-13T08:02:31Z</time>
      </trkpt>
      <trkpt lat="44.81875" lon="6.21034">
        <ele>1135</ele>
        <time>2024-08-13T08:02:32Z</time>
      </trkpt>
      <trkpt lat="44.81873" lon="6.21029">
        <ele>1135</ele>
        <time>2024-08-13T08:02:33Z</time>
      </trkpt>
      <trkpt lat="44.81873" lon="6.21029">
        <ele>1135.2</ele>
        <time>2024-08-13T08:02:34Z</time>
      </trkpt>
      <trkpt lat="44.81873" lon="6.21025">
        <ele>1135.2</ele>
        <time>2024-08-13T08:02:35Z</time>
      </trkpt>
      <trkpt lat="44.81873" lon="6.21025">
        <ele>1135.4</ele>
        <time>2024-08-13T08:02:36Z</time>
      </trkpt>
      <trkpt lat="44.81872" lon="6.21022">
        <ele>1135.4</ele>
        <time>2024-08-13T08:02:37Z</time>
      </trkpt>
      <trkpt lat="44.81872" lon="6.21022">
        <ele>1135.4</ele>
        <time>2024-08-13T08:02:38Z</time>
      </trkpt>
      <trkpt lat="44.81871" lon="6.21019">
        <ele>1135.4</ele>
        <time>2024-08-13T08:02:39Z</time>
      </trkpt>
      <trkpt lat="44.81871" lon="6.21019">
        <ele>1135.2</ele>
        <time>2024-08-13T08:02:40Z</time>
      </trkpt>
      <trkpt lat="44.81871" lon="6.21015">
        <ele>1135.2</ele>
        <time>2024-08-13T08:02:41Z</time>
      </trkpt>
      <trkpt lat="44.81871" lon="6.21015">
        <ele>1135.6</ele>
        <time>2024-08-13T08:02:42Z</time>
      </trkpt>
      <trkpt lat="44.81871" lon="6.21012">
        <ele>1135.6</ele>
        <time>2024-08-13T08:02:43Z</time>
      </trkpt>
      <trkpt lat="44.81871" lon="6.21012">
        <ele>1135.6</ele>
        <time>2024-08-13T08:02:44Z</time>
      </trkpt>
      <trkpt lat="44.81871" lon="6.21009">
        <ele>1135.6</ele>
        <time>2024-08-13T08:02:45Z</time>
      </trkpt>
      <trkpt lat="44.81871" lon="6.21009">
        <ele>1135.8</ele>
        <time>2024-08-13T08:02:46Z</time>
      </trkpt>
      <trkpt lat="44.81871" lon="6.21006">
        <ele>1135.8</ele>
        <time>2024-08-13T08:02:47Z</time>
      </trkpt>
      <trkpt lat="44.81871" lon="6.21006">
        <ele>1136</ele>
        <time>2024-08-13T08:02:48Z</time>
      </trkpt>
      <trkpt lat="44.81872" lon="6.21002">
        <ele>1136</ele>
        <time>2024-08-13T08:02:49Z</time>
      </trkpt>
      <trkpt lat="44.81872" lon="6.21002">
        <ele>1136.2</ele>
        <time>2024-08-13T08:02:50Z</time>
      </trkpt>
      <trkpt lat="44.81873" lon="6.20999">
        <ele>1136.4</ele>
        <time>2024-08-13T08:02:51Z</time>
      </trkpt>
      <trkpt lat="44.81873" lon="6.20999">
        <ele>1136.8</ele>
        <time>2024-08-13T08:02:52Z</time>
      </trkpt>
      <trkpt lat="44.81873" lon="6.20995">
        <ele>1136.8</ele>
        <time>2024-08-13T08:02:53Z</time>
      </trkpt>
      <trkpt lat="44.81873" lon="6.20995">
        <ele>1136.8</ele>
        <time>2024-08-13T08:02:54Z</time>
      </trkpt>
      <trkpt lat="44.81874" lon="6.20991">
        <ele>1136.8</ele>
        <time>2024-08-13T08:02:55Z</time>
      </trkpt>
      <trkpt lat="44.81874" lon="6.20991">
        <ele>1136.6</ele>
        <time>2024-08-13T08:02:56Z</time>
      </trkpt>
      <trkpt lat="44.81875" lon="6.20988">
        <ele>1136.6</ele>
        <time>2024-08-13T08:02:57Z</time>
      </trkpt>
      <trkpt lat="44.81875" lon="6.20988">
        <ele>1136.6</ele>
        <time>2024-08-13T08:02:58Z</time>
      </trkpt>
      <trkpt lat="44.81876" lon="6.20984">
        <ele>1136.6</ele>
        <time>2024-08-13T08:02:59Z</time>
      </trkpt>
      <trkpt lat="44.81877" lon="6.20982">
        <ele>1136.6</ele>
        <time>2024-08-13T08:03:00Z</time>
      </trkpt>
      <trkpt lat="44.81877" lon="6.20982">
        <ele>1136.4</ele>
        <time>2024-08-13T08:03:01Z</time>
      </trkpt>
      <trkpt lat="44.81877" lon="6.20978">
        <ele>1136.4</ele>
        <time>2024-08-13T08:03:02Z</time>
      </trkpt>
      <trkpt lat="44.81877" lon="6.20978">
        <ele>1136.4</ele>
        <time>2024-08-13T08:03:03Z</time>
      </trkpt>
      <trkpt lat="44.81878" lon="6.20974">
        <ele>1136.4</ele>
        <time>2024-08-13T08:03:04Z</time>
      </trkpt>
      <trkpt lat="44.81878" lon="6.20974">
        <ele>1136.4</ele>
        <time>2024-08-13T08:03:05Z</time>
      </trkpt>
      <trkpt lat="44.81879" lon="6.2097">
        <ele>1136.4</ele>
        <time>2024-08-13T08:03:06Z</time>
      </trkpt>
      <trkpt lat="44.81879" lon="6.2097">
        <ele>1136.4</ele>
        <time>2024-08-13T08:03:07Z</time>
      </trkpt>
      <trkpt lat="44.81881" lon="6.20967">
        <ele>1136.4</ele>
        <time>2024-08-13T08:03:08Z</time>
      </trkpt>
      <trkpt lat="44.81881" lon="6.20967">
        <ele>1136.4</ele>
        <time>2024-08-13T08:03:09Z</time>
      </trkpt>
      <trkpt lat="44.81882" lon="6.20963">
        <ele>1136.6</ele>
        <time>2024-08-13T08:03:10Z</time>
      </trkpt>
      <trkpt lat="44.81882" lon="6.20963">
        <ele>1136.6</ele>
        <time>2024-08-13T08:03:11Z</time>
      </trkpt>
      <trkpt lat="44.81882" lon="6.2096">
        <ele>1136.6</ele>
        <time>2024-08-13T08:03:12Z</time>
      </trkpt>
      <trkpt lat="44.81882" lon="6.2096">
        <ele>1136.8</ele>
        <time>2024-08-13T08:03:13Z</time>
      </trkpt>
      <trkpt lat="44.81884" lon="6.20956">
        <ele>1136.8</ele>
        <time>2024-08-13T08:03:14Z</time>
      </trkpt>
      <trkpt lat="44.81884" lon="6.20956">
        <ele>1136.8</ele>
        <time>2024-08-13T08:03:15Z</time>
      </trkpt>
      <trkpt lat="44.81884" lon="6.20952">
        <ele>1136.8</ele>
        <time>2024-08-13T08:03:16Z</time>
      </trkpt>
      <trkpt lat="44.81883" lon="6.2095">
        <ele>1136.6</ele>
        <time>2024-08-13T08:03:17Z</time>
      </trkpt>
      <trkpt lat="44.81883" lon="6.2095">
        <ele>1136.6</ele>
        <time>2024-08-13T08:03:18Z</time>
      </trkpt>
      <trkpt lat="44.81883" lon="6.20945">
        <ele>1136.4</ele>
        <time>2024-08-13T08:03:19Z</time>
      </trkpt>
      <trkpt lat="44.81883" lon="6.20945">
        <ele>1136.4</ele>
        <time>2024-08-13T08:03:20Z</time>
      </trkpt>
      <trkpt lat="44.81883" lon="6.20942">
        <ele>1136.4</ele>
        <time>2024-08-13T08:03:21Z</time>
      </trkpt>
      <trkpt lat="44.81883" lon="6.20939">
        <ele>1136.4</ele>
        <time>2024-08-13T08:03:22Z</time>
      </trkpt>
      <trkpt lat="44.81883" lon="6.20939">
        <ele>1136.2</ele>
        <time>2024-08-13T08:03:23Z</time>
      </trkpt>
      <trkpt lat="44.81884" lon="6.20936">
        <ele>1136.2</ele>
        <time>2024-08-13T08:03:24Z</time>
      </trkpt>
      <trkpt lat="44.81884" lon="6.20936">
        <ele>1136</ele>
        <time>2024-08-13T08:03:25Z</time>
      </trkpt>
      <trkpt lat="44.81885" lon="6.20931">
        <ele>1135.8</ele>
        <time>2024-08-13T08:03:26Z</time>
      </trkpt>
      <trkpt lat="44.81885" lon="6.20931">
        <ele>1135.8</ele>
        <time>2024-08-13T08:03:27Z</time>
      </trkpt>
      <trkpt lat="44.81885" lon="6.20928">
        <ele>1135.8</ele>
        <time>2024-08-13T08:03:28Z</time>
      </trkpt>
      <trkpt lat="44.81885" lon="6.20928">
        <ele>1136</ele>
        <time>2024-08-13T08:03:29Z</time>
      </trkpt>
      <trkpt lat="44.81885" lon="6.20923">
        <ele>1136</ele>
        <time>2024-08-13T08:03:30Z</time>
      </trkpt>
      <trkpt lat="44.81885" lon="6.20923">
        <ele>1136</ele>
        <time>2024-08-13T08:03:31Z</time>
      </trkpt>
      <trkpt lat="44.81884" lon="6.20919">
        <ele>1136</ele>
        <time>2024-08-13T08:03:32Z</time>
      </trkpt>
      <trkpt lat="44.81884" lon="6.20919">
        <ele>1136</ele>
        <time>2024-08-13T08:03:33Z</time>
      </trkpt>
      <trkpt lat="44.81884" lon="6.20915">
        <ele>1135.8</ele>
        <time>2024-08-13T08:03:34Z</time>
      </trkpt>
      <trkpt lat="44.81884" lon="6.20915">
        <ele>1135.8</ele>
        <time>2024-08-13T08:03:35Z</time>
      </trkpt>
      <trkpt lat="44.81885" lon="6.20911">
        <ele>1135.8</ele>
        <time>2024-08-13T08:03:36Z</time>
      </trkpt>
      <trkpt lat="44.81885" lon="6.20911">
        <ele>1135.8</ele>
        <time>2024-08-13T08:03:37Z</time>
      </trkpt>
      <trkpt lat="44.81885" lon="6.20906">
        <ele>1135.8</ele>
        <time>2024-08-13T08:03:38Z</time>
      </trkpt>
      <trkpt lat="44.81885" lon="6.20906">
        <ele>1136</ele>
        <time>2024-08-13T08:03:39Z</time>
      </trkpt>
      <trkpt lat="44.81885" lon="6.20902">
        <ele>1136</ele>
        <time>2024-08-13T08:03:40Z</time>
      </trkpt>
      <trkpt lat="44.81885" lon="6.20902">
        <ele>1136</ele>
        <time>2024-08-13T08:03:41Z</time>
      </trkpt>
      <trkpt lat="44.81885" lon="6.20898">
        <ele>1136</ele>
        <time>2024-08-13T08:03:42Z</time>
      </trkpt>
      <trkpt lat="44.81885" lon="6.20898">
        <ele>1135.8</ele>
        <time>2024-08-13T08:03:43Z</time>
      </trkpt>
      <trkpt lat="44.81885" lon="6.20894">
        <ele>1135.8</ele>
        <time>2024-08-13T08:03:44Z</time>
      </trkpt>
      <trkpt lat="44.81885" lon="6.20894">
        <ele>1135.6</ele>
        <time>2024-08-13T08:03:45Z</time>
      </trkpt>
      <trkpt lat="44.81885" lon="6.2089">
        <ele>1135.6</ele>
        <time>2024-08-13T08:03:46Z</time>
      </trkpt>
      <trkpt lat="44.81885" lon="6.2089">
        <ele>1135.8</ele>
        <time>2024-08-13T08:03:47Z</time>
      </trkpt>
      <trkpt lat="44.81885" lon="6.20887">
        <ele>1135.8</ele>
        <time>2024-08-13T08:03:48Z</time>
      </trkpt>
      <trkpt lat="44.81885" lon="6.20887">
        <ele>1135.8</ele>
        <time>2024-08-13T08:03:49Z</time>
      </trkpt>
      <trkpt lat="44.81885" lon="6.20883">
        <ele>1135.6</ele>
        <time>2024-08-13T08:03:50Z</time>
      </trkpt>
      <trkpt lat="44.81885" lon="6.20883">
        <ele>1135.6</ele>
        <time>2024-08-13T08:03:51Z</time>
      </trkpt>
      <trkpt lat="44.81886" lon="6.20879">
        <ele>1135.4</ele>
        <time>2024-08-13T08:03:52Z</time>
      </trkpt>
      <trkpt lat="44.81886" lon="6.20879">
        <ele>1135.4</ele>
        <time>2024-08-13T08:03:53Z</time>
      </trkpt>
      <trkpt lat="44.81887" lon="6.20874">
        <ele>1135.4</ele>
        <time>2024-08-13T08:03:54Z</time>
      </trkpt>
      <trkpt lat="44.81887" lon="6.20874">
        <ele>1135.4</ele>
        <time>2024-08-13T08:03:55Z</time>
      </trkpt>
      <trkpt lat="44.81887" lon="6.2087">
        <ele>1135.4</ele>
        <time>2024-08-13T08:03:56Z</time>
      </trkpt>
      <trkpt lat="44.81887" lon="6.2087">
        <ele>1135.2</ele>
        <time>2024-08-13T08:03:57Z</time>
      </trkpt>
      <trkpt lat="44.81887" lon="6.20867">
        <ele>1134.8</ele>
        <time>2024-08-13T08:03:58Z</time>
      </trkpt>
      <trkpt lat="44.81887" lon="6.20867">
        <ele>1134.6</ele>
        <time>2024-08-13T08:03:59Z</time>
      </trkpt>
      <trkpt lat="44.81886" lon="6.20863">
        <ele>1134.6</ele>
        <time>2024-08-13T08:04:00Z</time>
      </trkpt>
      <trkpt lat="44.81886" lon="6.20863">
        <ele>1134.6</ele>
        <time>2024-08-13T08:04:01Z</time>
      </trkpt>
      <trkpt lat="44.81886" lon="6.20859">
        <ele>1134.6</ele>
        <time>2024-08-13T08:04:02Z</time>
      </trkpt>
      <trkpt lat="44.81886" lon="6.20859">
        <ele>1134.6</ele>
        <time>2024-08-13T08:04:03Z</time>
      </trkpt>
      <trkpt lat="44.81887" lon="6.20856">
        <ele>1134.6</ele>
        <time>2024-08-13T08:04:04Z</time>
      </trkpt>
      <trkpt lat="44.81888" lon="6.20853">
        <ele>1134.6</ele>
        <time>2024-08-13T08:04:05Z</time>
      </trkpt>
      <trkpt lat="44.81888" lon="6.20853">
        <ele>1134.6</ele>
        <time>2024-08-13T08:04:06Z</time>
      </trkpt>
      <trkpt lat="44.81887" lon="6.2085">
        <ele>1134.6</ele>
        <time>2024-08-13T08:04:07Z</time>
      </trkpt>
      <trkpt lat="44.81887" lon="6.2085">
        <ele>1134.6</ele>
        <time>2024-08-13T08:04:08Z</time>
      </trkpt>
      <trkpt lat="44.81888" lon="6.20845">
        <ele>1134.6</ele>
        <time>2024-08-13T08:04:09Z</time>
      </trkpt>
      <trkpt lat="44.81888" lon="6.20845">
        <ele>1134.6</ele>
        <time>2024-08-13T08:04:10Z</time>
      </trkpt>
      <trkpt lat="44.81889" lon="6.20841">
        <ele>1134.4</ele>
        <time>2024-08-13T08:04:11Z</time>
      </trkpt>
      <trkpt lat="44.81889" lon="6.20841">
        <ele>1134.4</ele>
        <time>2024-08-13T08:04:12Z</time>
      </trkpt>
      <trkpt lat="44.81889" lon="6.20837">
        <ele>1134.4</ele>
        <time>2024-08-13T08:04:13Z</time>
      </trkpt>
      <trkpt lat="44.81889" lon="6.20837">
        <ele>1134.4</ele>
        <time>2024-08-13T08:04:14Z</time>
      </trkpt>
      <trkpt lat="44.81888" lon="6.20833">
        <ele>1134.4</ele>
        <time>2024-08-13T08:04:15Z</time>
      </trkpt>
      <trkpt lat="44.81888" lon="6.20833">
        <ele>1134.2</ele>
        <time>2024-08-13T08:04:16Z</time>
      </trkpt>
      <trkpt lat="44.81888" lon="6.20829">
        <ele>1133.8</ele>
        <time>2024-08-13T08:04:17Z</time>
      </trkpt>
      <trkpt lat="44.81888" lon="6.20829">
        <ele>1133.8</ele>
        <time>2024-08-13T08:04:18Z</time>
      </trkpt>
      <trkpt lat="44.81887" lon="6.20826">
        <ele>1133.8</ele>
        <time>2024-08-13T08:04:19Z</time>
      </trkpt>
      <trkpt lat="44.81887" lon="6.20826">
        <ele>1133.8</ele>
        <time>2024-08-13T08:04:20Z</time>
      </trkpt>
      <trkpt lat="44.81887" lon="6.20822">
        <ele>1133.8</ele>
        <time>2024-08-13T08:04:21Z</time>
      </trkpt>
      <trkpt lat="44.81887" lon="6.20822">
        <ele>1133.8</ele>
        <time>2024-08-13T08:04:22Z</time>
      </trkpt>
      <trkpt lat="44.81888" lon="6.20819">
        <ele>1133.8</ele>
        <time>2024-08-13T08:04:23Z</time>
      </trkpt>
      <trkpt lat="44.81888" lon="6.20819">
        <ele>1133.6</ele>
        <time>2024-08-13T08:04:24Z</time>
      </trkpt>
      <trkpt lat="44.81888" lon="6.20815">
        <ele>1133.4</ele>
        <time>2024-08-13T08:04:25Z</time>
      </trkpt>
      <trkpt lat="44.81888" lon="6.20815">
        <ele>1133.4</ele>
        <time>2024-08-13T08:04:26Z</time>
      </trkpt>
      <trkpt lat="44.81888" lon="6.20811">
        <ele>1133</ele>
        <time>2024-08-13T08:04:27Z</time>
      </trkpt>
      <trkpt lat="44.81888" lon="6.20811">
        <ele>1132.8</ele>
        <time>2024-08-13T08:04:28Z</time>
      </trkpt>
      <trkpt lat="44.81889" lon="6.20808">
        <ele>1132.6</ele>
        <time>2024-08-13T08:04:29Z</time>
      </trkpt>
      <trkpt lat="44.81889" lon="6.20808">
        <ele>1132.4</ele>
        <time>2024-08-13T08:04:30Z</time>
      </trkpt>
      <trkpt lat="44.81891" lon="6.20804">
        <ele>1132</ele>
        <time>2024-08-13T08:04:31Z</time>
      </trkpt>
      <trkpt lat="44.81891" lon="6.20804">
        <ele>1131.6</ele>
        <time>2024-08-13T08:04:32Z</time>
      </trkpt>
      <trkpt lat="44.81891" lon="6.20801">
        <ele>1131.2</ele>
        <time>2024-08-13T08:04:33Z</time>
      </trkpt>
      <trkpt lat="44.81891" lon="6.20801">
        <ele>1131.2</ele>
        <time>2024-08-13T08:04:34Z</time>
      </trkpt>
      <trkpt lat="44.81892" lon="6.20797">
        <ele>1131</ele>
        <time>2024-08-13T08:04:35Z</time>
      </trkpt>
      <trkpt lat="44.81892" lon="6.20797">
        <ele>1130.8</ele>
        <time>2024-08-13T08:04:36Z</time>
      </trkpt>
      <trkpt lat="44.81893" lon="6.20794">
        <ele>1130.8</ele>
        <time>2024-08-13T08:04:37Z</time>
      </trkpt>
      <trkpt lat="44.81893" lon="6.20794">
        <ele>1130.4</ele>
        <time>2024-08-13T08:04:38Z</time>
      </trkpt>
      <trkpt lat="44.81894" lon="6.2079">
        <ele>1130</ele>
        <time>2024-08-13T08:04:39Z</time>
      </trkpt>
      <trkpt lat="44.81894" lon="6.2079">
        <ele>1129.8</ele>
        <time>2024-08-13T08:04:40Z</time>
      </trkpt>
      <trkpt lat="44.81897" lon="6.20788">
        <ele>1129.4</ele>
        <time>2024-08-13T08:04:41Z</time>
      </trkpt>
      <trkpt lat="44.81897" lon="6.20788">
        <ele>1129</ele>
        <time>2024-08-13T08:04:42Z</time>
      </trkpt>
      <trkpt lat="44.81897" lon="6.20788">
        <ele>1128.8</ele>
        <time>2024-08-13T08:04:43Z</time>
      </trkpt>
      <trkpt lat="44.81899" lon="6.20787">
        <ele>1128.6</ele>
        <time>2024-08-13T08:04:44Z</time>
      </trkpt>
      <trkpt lat="44.81899" lon="6.20787">
        <ele>1128.6</ele>
        <time>2024-08-13T08:04:45Z</time>
      </trkpt>
      <trkpt lat="44.81899" lon="6.20787">
        <ele>1128.6</ele>
        <time>2024-08-13T08:04:46Z</time>
      </trkpt>
      <trkpt lat="44.81899" lon="6.20787">
        <ele>1128.6</ele>
        <time>2024-08-13T08:04:47Z</time>
      </trkpt>
      <trkpt lat="44.81899" lon="6.20787">
        <ele>1128.6</ele>
        <time>2024-08-13T08:04:48Z</time>
      </trkpt>
      <trkpt lat="44.81899" lon="6.20787">
        <ele>1128.6</ele>
        <time>2024-08-13T08:04:49Z</time>
      </trkpt>
      <trkpt lat="44.81899" lon="6.20787">
        <ele>1128.4</ele>
        <time>2024-08-13T08:04:50Z</time>
      </trkpt>
      <trkpt lat="44.81899" lon="6.20787">
        <ele>1128.4</ele>
        <time>2024-08-13T08:04:51Z</time>
      </trkpt>
      <trkpt lat="44.81899" lon="6.20787">
        <ele>1128.4</ele>
        <time>2024-08-13T08:04:52Z</time>
      </trkpt>
      <trkpt lat="44.81899" lon="6.20787">
        <ele>1128.4</ele>
        <time>2024-08-13T08:04:53Z</time>
      </trkpt>
      <trkpt lat="44.81899" lon="6.20787">
        <ele>1128.6</ele>
        <time>2024-08-13T08:04:54Z</time>
      </trkpt>
      <trkpt lat="44.81899" lon="6.20787">
        <ele>1128.6</ele>
        <time>2024-08-13T08:04:55Z</time>
      </trkpt>
      <trkpt lat="44.81899" lon="6.20787">
        <ele>1128.4</ele>
        <time>2024-08-13T08:04:56Z</time>
      </trkpt>
      <trkpt lat="44.81899" lon="6.20787">
        <ele>1128.4</ele>
        <time>2024-08-13T08:04:57Z</time>
      </trkpt>
      <trkpt lat="44.81899" lon="6.20787">
        <ele>1128.6</ele>
        <time>2024-08-13T08:04:58Z</time>
      </trkpt>
      <trkpt lat="44.81899" lon="6.20787">
        <ele>1128.8</ele>
        <time>2024-08-13T08:04:59Z</time>
      </trkpt>
      <trkpt lat="44.81899" lon="6.20787">
        <ele>1128.8</ele>
        <time>2024-08-13T08:05:00Z</time>
      </trkpt>
      <trkpt lat="44.81899" lon="6.20787">
        <ele>1128.8</ele>
        <time>2024-08-13T08:05:01Z</time>
      </trkpt>
      <trkpt lat="44.81897" lon="6.20785">
        <ele>1129</ele>
        <time>2024-08-13T08:05:02Z</time>
      </trkpt>
      <trkpt lat="44.81897" lon="6.20785">
        <ele>1129</ele>
        <time>2024-08-13T08:05:03Z</time>
      </trkpt>
      <trkpt lat="44.81896" lon="6.2078">
        <ele>1128.8</ele>
        <time>2024-08-13T08:05:04Z</time>
      </trkpt>
      <trkpt lat="44.81896" lon="6.2078">
        <ele>1128.2</ele>
        <time>2024-08-13T08:05:05Z</time>
      </trkpt>
      <trkpt lat="44.81896" lon="6.20776">
        <ele>1128</ele>
        <time>2024-08-13T08:05:06Z</time>
      </trkpt>
      <trkpt lat="44.81896" lon="6.20776">
        <ele>1128</ele>
        <time>2024-08-13T08:05:07Z</time>
      </trkpt>
      <trkpt lat="44.81896" lon="6.20772">
        <ele>1127.8</ele>
        <time>2024-08-13T08:05:08Z</time>
      </trkpt>
      <trkpt lat="44.81896" lon="6.20772">
        <ele>1127.6</ele>
        <time>2024-08-13T08:05:09Z</time>
      </trkpt>
      <trkpt lat="44.81895" lon="6.20768">
        <ele>1127.6</ele>
        <time>2024-08-13T08:05:10Z</time>
      </trkpt>
      <trkpt lat="44.81895" lon="6.20768">
        <ele>1127.8</ele>
        <time>2024-08-13T08:05:11Z</time>
      </trkpt>
      <trkpt lat="44.81893" lon="6.20765">
        <ele>1127.8</ele>
        <time>2024-08-13T08:05:12Z</time>
      </trkpt>
      <trkpt lat="44.81893" lon="6.20765">
        <ele>1127.8</ele>
        <time>2024-08-13T08:05:13Z</time>
      </trkpt>
      <trkpt lat="44.81892" lon="6.20761">
        <ele>1127.6</ele>
        <time>2024-08-13T08:05:14Z</time>
      </trkpt>
      <trkpt lat="44.81892" lon="6.20761">
        <ele>1127.6</ele>
        <time>2024-08-13T08:05:15Z</time>
      </trkpt>
      <trkpt lat="44.81891" lon="6.20757">
        <ele>1127.6</ele>
        <time>2024-08-13T08:05:16Z</time>
      </trkpt>
      <trkpt lat="44.81891" lon="6.20757">
        <ele>1127.6</ele>
        <time>2024-08-13T08:05:17Z</time>
      </trkpt>
      <trkpt lat="44.81889" lon="6.20754">
        <ele>1127.2</ele>
        <time>2024-08-13T08:05:18Z</time>
      </trkpt>
      <trkpt lat="44.81889" lon="6.20754">
        <ele>1126.8</ele>
        <time>2024-08-13T08:05:19Z</time>
      </trkpt>
      <trkpt lat="44.81888" lon="6.2075">
        <ele>1126.8</ele>
        <time>2024-08-13T08:05:20Z</time>
      </trkpt>
      <trkpt lat="44.81888" lon="6.2075">
        <ele>1126.8</ele>
        <time>2024-08-13T08:05:21Z</time>
      </trkpt>
      <trkpt lat="44.81887" lon="6.20746">
        <ele>1126.6</ele>
        <time>2024-08-13T08:05:22Z</time>
      </trkpt>
      <trkpt lat="44.81887" lon="6.20746">
        <ele>1126.6</ele>
        <time>2024-08-13T08:05:23Z</time>
      </trkpt>
      <trkpt lat="44.81887" lon="6.20743">
        <ele>1126.6</ele>
        <time>2024-08-13T08:05:24Z</time>
      </trkpt>
      <trkpt lat="44.81887" lon="6.20743">
        <ele>1126.6</ele>
        <time>2024-08-13T08:05:25Z</time>
      </trkpt>
      <trkpt lat="44.81886" lon="6.20739">
        <ele>1126.4</ele>
        <time>2024-08-13T08:05:26Z</time>
      </trkpt>
      <trkpt lat="44.81886" lon="6.20739">
        <ele>1126.4</ele>
        <time>2024-08-13T08:05:27Z</time>
      </trkpt>
      <trkpt lat="44.81884" lon="6.20736">
        <ele>1126.4</ele>
        <time>2024-08-13T08:05:28Z</time>
      </trkpt>
      <trkpt lat="44.81883" lon="6.20734">
        <ele>1126</ele>
        <time>2024-08-13T08:05:29Z</time>
      </trkpt>
      <trkpt lat="44.81883" lon="6.20734">
        <ele>1125.8</ele>
        <time>2024-08-13T08:05:30Z</time>
      </trkpt>
      <trkpt lat="44.81881" lon="6.20729">
        <ele>1125.8</ele>
        <time>2024-08-13T08:05:31Z</time>
      </trkpt>
      <trkpt lat="44.8188" lon="6.20727">
        <ele>1125.8</ele>
        <time>2024-08-13T08:05:32Z</time>
      </trkpt>
      <trkpt lat="44.8188" lon="6.20727">
        <ele>1125.4</ele>
        <time>2024-08-13T08:05:33Z</time>
      </trkpt>
      <trkpt lat="44.81878" lon="6.20725">
        <ele>1125.4</ele>
        <time>2024-08-13T08:05:34Z</time>
      </trkpt>
      <trkpt lat="44.81878" lon="6.20725">
        <ele>1125.2</ele>
        <time>2024-08-13T08:05:35Z</time>
      </trkpt>
      <trkpt lat="44.81877" lon="6.20721">
        <ele>1125</ele>
        <time>2024-08-13T08:05:36Z</time>
      </trkpt>
      <trkpt lat="44.81877" lon="6.20721">
        <ele>1125</ele>
        <time>2024-08-13T08:05:37Z</time>
      </trkpt>
      <trkpt lat="44.81876" lon="6.20718">
        <ele>1125</ele>
        <time>2024-08-13T08:05:38Z</time>
      </trkpt>
      <trkpt lat="44.81876" lon="6.20718">
        <ele>1124.6</ele>
        <time>2024-08-13T08:05:39Z</time>
      </trkpt>
      <trkpt lat="44.81875" lon="6.20714">
        <ele>1124.6</ele>
        <time>2024-08-13T08:05:40Z</time>
      </trkpt>
      <trkpt lat="44.81875" lon="6.20714">
        <ele>1124.6</ele>
        <time>2024-08-13T08:05:41Z</time>
      </trkpt>
      <trkpt lat="44.81874" lon="6.2071">
        <ele>1124.2</ele>
        <time>2024-08-13T08:05:42Z</time>
      </trkpt>
      <trkpt lat="44.81874" lon="6.2071">
        <ele>1124.2</ele>
        <time>2024-08-13T08:05:43Z</time>
      </trkpt>
      <trkpt lat="44.81873" lon="6.20706">
        <ele>1124</ele>
        <time>2024-08-13T08:05:44Z</time>
      </trkpt>
      <trkpt lat="44.81873" lon="6.20706">
        <ele>1124</ele>
        <time>2024-08-13T08:05:45Z</time>
      </trkpt>
      <trkpt lat="44.81873" lon="6.20702">
        <ele>1123.6</ele>
        <time>2024-08-13T08:05:46Z</time>
      </trkpt>
      <trkpt lat="44.81873" lon="6.20702">
        <ele>1123.4</ele>
        <time>2024-08-13T08:05:47Z</time>
      </trkpt>
      <trkpt lat="44.81873" lon="6.20698">
        <ele>1123.2</ele>
        <time>2024-08-13T08:05:48Z</time>
      </trkpt>
      <trkpt lat="44.81873" lon="6.20698">
        <ele>1123.2</ele>
        <time>2024-08-13T08:05:49Z</time>
      </trkpt>
      <trkpt lat="44.81872" lon="6.20694">
        <ele>1123</ele>
        <time>2024-08-13T08:05:50Z</time>
      </trkpt>
      <trkpt lat="44.81872" lon="6.20694">
        <ele>1123</ele>
        <time>2024-08-13T08:05:51Z</time>
      </trkpt>
      <trkpt lat="44.81871" lon="6.2069">
        <ele>1123</ele>
        <time>2024-08-13T08:05:52Z</time>
      </trkpt>
      <trkpt lat="44.8187" lon="6.20688">
        <ele>1123</ele>
        <time>2024-08-13T08:05:53Z</time>
      </trkpt>
      <trkpt lat="44.8187" lon="6.20688">
        <ele>1123</ele>
        <time>2024-08-13T08:05:54Z</time>
      </trkpt>
      <trkpt lat="44.81869" lon="6.20684">
        <ele>1123</ele>
        <time>2024-08-13T08:05:55Z</time>
      </trkpt>
      <trkpt lat="44.81869" lon="6.20684">
        <ele>1123.2</ele>
        <time>2024-08-13T08:05:56Z</time>
      </trkpt>
      <trkpt lat="44.81868" lon="6.2068">
        <ele>1123</ele>
        <time>2024-08-13T08:05:57Z</time>
      </trkpt>
      <trkpt lat="44.81868" lon="6.2068">
        <ele>1122.8</ele>
        <time>2024-08-13T08:05:58Z</time>
      </trkpt>
      <trkpt lat="44.81867" lon="6.20676">
        <ele>1122.6</ele>
        <time>2024-08-13T08:05:59Z</time>
      </trkpt>
      <trkpt lat="44.81867" lon="6.20676">
        <ele>1122.6</ele>
        <time>2024-08-13T08:06:00Z</time>
      </trkpt>
      <trkpt lat="44.81867" lon="6.20672">
        <ele>1122.6</ele>
        <time>2024-08-13T08:06:01Z</time>
      </trkpt>
      <trkpt lat="44.81867" lon="6.20672">
        <ele>1122</ele>
        <time>2024-08-13T08:06:02Z</time>
      </trkpt>
      <trkpt lat="44.81866" lon="6.20669">
        <ele>1122</ele>
        <time>2024-08-13T08:06:03Z</time>
      </trkpt>
      <trkpt lat="44.81866" lon="6.20669">
        <ele>1121.8</ele>
        <time>2024-08-13T08:06:04Z</time>
      </trkpt>
      <trkpt lat="44.81865" lon="6.20665">
        <ele>1121.8</ele>
        <time>2024-08-13T08:06:05Z</time>
      </trkpt>
      <trkpt lat="44.81865" lon="6.20665">
        <ele>1122</ele>
        <time>2024-08-13T08:06:06Z</time>
      </trkpt>
      <trkpt lat="44.81865" lon="6.20661">
        <ele>1122</ele>
        <time>2024-08-13T08:06:07Z</time>
      </trkpt>
      <trkpt lat="44.81865" lon="6.20661">
        <ele>1122.2</ele>
        <time>2024-08-13T08:06:08Z</time>
      </trkpt>
      <trkpt lat="44.81865" lon="6.20657">
        <ele>1122.2</ele>
        <time>2024-08-13T08:06:09Z</time>
      </trkpt>
      <trkpt lat="44.81865" lon="6.20657">
        <ele>1122.2</ele>
        <time>2024-08-13T08:06:10Z</time>
      </trkpt>
      <trkpt lat="44.81864" lon="6.20652">
        <ele>1122</ele>
        <time>2024-08-13T08:06:11Z</time>
      </trkpt>
      <trkpt lat="44.81865" lon="6.2065">
        <ele>1122</ele>
        <time>2024-08-13T08:06:12Z</time>
      </trkpt>
      <trkpt lat="44.81865" lon="6.2065">
        <ele>1122</ele>
        <time>2024-08-13T08:06:13Z</time>
      </trkpt>
      <trkpt lat="44.81865" lon="6.20646">
        <ele>1121.8</ele>
        <time>2024-08-13T08:06:14Z</time>
      </trkpt>
      <trkpt lat="44.81865" lon="6.20646">
        <ele>1121.8</ele>
        <time>2024-08-13T08:06:15Z</time>
      </trkpt>
      <trkpt lat="44.81865" lon="6.20642">
        <ele>1121.6</ele>
        <time>2024-08-13T08:06:16Z</time>
      </trkpt>
      <trkpt lat="44.81865" lon="6.20642">
        <ele>1121.2</ele>
        <time>2024-08-13T08:06:17Z</time>
      </trkpt>
      <trkpt lat="44.81865" lon="6.20638">
        <ele>1121.2</ele>
        <time>2024-08-13T08:06:18Z</time>
      </trkpt>
      <trkpt lat="44.81865" lon="6.20638">
        <ele>1121.2</ele>
        <time>2024-08-13T08:06:19Z</time>
      </trkpt>
      <trkpt lat="44.81865" lon="6.20634">
        <ele>1121.2</ele>
        <time>2024-08-13T08:06:20Z</time>
      </trkpt>
      <trkpt lat="44.81865" lon="6.20634">
        <ele>1121.2</ele>
        <time>2024-08-13T08:06:21Z</time>
      </trkpt>
      <trkpt lat="44.81865" lon="6.2063">
        <ele>1121.2</ele>
        <time>2024-08-13T08:06:22Z</time>
      </trkpt>
      <trkpt lat="44.81865" lon="6.2063">
        <ele>1121.2</ele>
        <time>2024-08-13T08:06:23Z</time>
      </trkpt>
      <trkpt lat="44.81866" lon="6.20626">
        <ele>1121.2</ele>
        <time>2024-08-13T08:06:24Z</time>
      </trkpt>
      <trkpt lat="44.81866" lon="6.20626">
        <ele>1121.2</ele>
        <time>2024-08-13T08:06:25Z</time>
      </trkpt>
      <trkpt lat="44.81866" lon="6.20622">
        <ele>1121.2</ele>
        <time>2024-08-13T08:06:26Z</time>
      </trkpt>
      <trkpt lat="44.81866" lon="6.20622">
        <ele>1121.4</ele>
        <time>2024-08-13T08:06:27Z</time>
      </trkpt>
      <trkpt lat="44.81866" lon="6.20618">
        <ele>1121.4</ele>
        <time>2024-08-13T08:06:28Z</time>
      </trkpt>
      <trkpt lat="44.81866" lon="6.20618">
        <ele>1121.2</ele>
        <time>2024-08-13T08:06:29Z</time>
      </trkpt>
      <trkpt lat="44.81867" lon="6.20614">
        <ele>1121.2</ele>
        <time>2024-08-13T08:06:30Z</time>
      </trkpt>
      <trkpt lat="44.81867" lon="6.20614">
        <ele>1121.2</ele>
        <time>2024-08-13T08:06:31Z</time>
      </trkpt>
      <trkpt lat="44.81867" lon="6.2061">
        <ele>1121.2</ele>
        <time>2024-08-13T08:06:32Z</time>
      </trkpt>
      <trkpt lat="44.81867" lon="6.2061">
        <ele>1121</ele>
        <time>2024-08-13T08:06:33Z</time>
      </trkpt>
      <trkpt lat="44.81867" lon="6.20607">
        <ele>1121</ele>
        <time>2024-08-13T08:06:34Z</time>
      </trkpt>
      <trkpt lat="44.81867" lon="6.20607">
        <ele>1121</ele>
        <time>2024-08-13T08:06:35Z</time>
      </trkpt>
      <trkpt lat="44.81868" lon="6.20604">
        <ele>1121</ele>
        <time>2024-08-13T08:06:36Z</time>
      </trkpt>
      <trkpt lat="44.81868" lon="6.20604">
        <ele>1121</ele>
        <time>2024-08-13T08:06:37Z</time>
      </trkpt>
      <trkpt lat="44.81867" lon="6.206">
        <ele>1121</ele>
        <time>2024-08-13T08:06:38Z</time>
      </trkpt>
      <trkpt lat="44.81867" lon="6.206">
        <ele>1121</ele>
        <time>2024-08-13T08:06:39Z</time>
      </trkpt>
      <trkpt lat="44.81868" lon="6.20597">
        <ele>1121.2</ele>
        <time>2024-08-13T08:06:40Z</time>
      </trkpt>
      <trkpt lat="44.81868" lon="6.20597">
        <ele>1121.2</ele>
        <time>2024-08-13T08:06:41Z</time>
      </trkpt>
      <trkpt lat="44.81868" lon="6.20593">
        <ele>1121</ele>
        <time>2024-08-13T08:06:42Z</time>
      </trkpt>
      <trkpt lat="44.81868" lon="6.20593">
        <ele>1120.8</ele>
        <time>2024-08-13T08:06:43Z</time>
      </trkpt>
      <trkpt lat="44.81867" lon="6.20589">
        <ele>1120.8</ele>
        <time>2024-08-13T08:06:44Z</time>
      </trkpt>
      <trkpt lat="44.81867" lon="6.20589">
        <ele>1120.8</ele>
        <time>2024-08-13T08:06:45Z</time>
      </trkpt>
      <trkpt lat="44.81867" lon="6.20584">
        <ele>1121</ele>
        <time>2024-08-13T08:06:46Z</time>
      </trkpt>
      <trkpt lat="44.81867" lon="6.20584">
        <ele>1121</ele>
        <time>2024-08-13T08:06:47Z</time>
      </trkpt>
      <trkpt lat="44.81867" lon="6.20581">
        <ele>1121</ele>
        <time>2024-08-13T08:06:48Z</time>
      </trkpt>
      <trkpt lat="44.81867" lon="6.20581">
        <ele>1120.8</ele>
        <time>2024-08-13T08:06:49Z</time>
      </trkpt>
      <trkpt lat="44.81868" lon="6.20576">
        <ele>1120.8</ele>
        <time>2024-08-13T08:06:50Z</time>
      </trkpt>
      <trkpt lat="44.81868" lon="6.20576">
        <ele>1120.8</ele>
        <time>2024-08-13T08:06:51Z</time>
      </trkpt>
      <trkpt lat="44.81868" lon="6.20572">
        <ele>1120.6</ele>
        <time>2024-08-13T08:06:52Z</time>
      </trkpt>
      <trkpt lat="44.81868" lon="6.20572">
        <ele>1120.6</ele>
        <time>2024-08-13T08:06:53Z</time>
      </trkpt>
      <trkpt lat="44.81869" lon="6.20569">
        <ele>1120.6</ele>
        <time>2024-08-13T08:06:54Z</time>
      </trkpt>
      <trkpt lat="44.81869" lon="6.20569">
        <ele>1120.6</ele>
        <time>2024-08-13T08:06:55Z</time>
      </trkpt>
      <trkpt lat="44.81869" lon="6.20565">
        <ele>1120.6</ele>
        <time>2024-08-13T08:06:56Z</time>
      </trkpt>
      <trkpt lat="44.81869" lon="6.20565">
        <ele>1120.6</ele>
        <time>2024-08-13T08:06:57Z</time>
      </trkpt>
      <trkpt lat="44.81869" lon="6.20561">
        <ele>1120.6</ele>
        <time>2024-08-13T08:06:58Z</time>
      </trkpt>
      <trkpt lat="44.81869" lon="6.20561">
        <ele>1120.8</ele>
        <time>2024-08-13T08:06:59Z</time>
      </trkpt>
      <trkpt lat="44.81869" lon="6.20556">
        <ele>1120.8</ele>
        <time>2024-08-13T08:07:00Z</time>
      </trkpt>
      <trkpt lat="44.81869" lon="6.20556">
        <ele>1120.8</ele>
        <time>2024-08-13T08:07:01Z</time>
      </trkpt>
      <trkpt lat="44.81869" lon="6.20552">
        <ele>1121</ele>
        <time>2024-08-13T08:07:02Z</time>
      </trkpt>
      <trkpt lat="44.81869" lon="6.20552">
        <ele>1121</ele>
        <time>2024-08-13T08:07:03Z</time>
      </trkpt>
      <trkpt lat="44.81869" lon="6.20548">
        <ele>1121</ele>
        <time>2024-08-13T08:07:04Z</time>
      </trkpt>
      <trkpt lat="44.81869" lon="6.20548">
        <ele>1120.8</ele>
        <time>2024-08-13T08:07:05Z</time>
      </trkpt>
      <trkpt lat="44.8187" lon="6.20545">
        <ele>1120.8</ele>
        <time>2024-08-13T08:07:06Z</time>
      </trkpt>
      <trkpt lat="44.8187" lon="6.20545">
        <ele>1120.8</ele>
        <time>2024-08-13T08:07:07Z</time>
      </trkpt>
      <trkpt lat="44.81871" lon="6.20541">
        <ele>1120.4</ele>
        <time>2024-08-13T08:07:08Z</time>
      </trkpt>
      <trkpt lat="44.81871" lon="6.20541">
        <ele>1120.4</ele>
        <time>2024-08-13T08:07:09Z</time>
      </trkpt>
      <trkpt lat="44.81871" lon="6.20537">
        <ele>1120.6</ele>
        <time>2024-08-13T08:07:10Z</time>
      </trkpt>
      <trkpt lat="44.81871" lon="6.20537">
        <ele>1120.6</ele>
        <time>2024-08-13T08:07:11Z</time>
      </trkpt>
      <trkpt lat="44.81871" lon="6.20533">
        <ele>1120.6</ele>
        <time>2024-08-13T08:07:12Z</time>
      </trkpt>
      <trkpt lat="44.81871" lon="6.20533">
        <ele>1120.2</ele>
        <time>2024-08-13T08:07:13Z</time>
      </trkpt>
      <trkpt lat="44.81872" lon="6.20529">
        <ele>1120.2</ele>
        <time>2024-08-13T08:07:14Z</time>
      </trkpt>
      <trkpt lat="44.81872" lon="6.20529">
        <ele>1120.2</ele>
        <time>2024-08-13T08:07:15Z</time>
      </trkpt>
      <trkpt lat="44.81873" lon="6.20526">
        <ele>1120.4</ele>
        <time>2024-08-13T08:07:16Z</time>
      </trkpt>
      <trkpt lat="44.81873" lon="6.20526">
        <ele>1120.4</ele>
        <time>2024-08-13T08:07:17Z</time>
      </trkpt>
      <trkpt lat="44.81873" lon="6.20522">
        <ele>1120.4</ele>
        <time>2024-08-13T08:07:18Z</time>
      </trkpt>
      <trkpt lat="44.81873" lon="6.20522">
        <ele>1120.4</ele>
        <time>2024-08-13T08:07:19Z</time>
      </trkpt>
      <trkpt lat="44.81873" lon="6.20517">
        <ele>1120.4</ele>
        <time>2024-08-13T08:07:20Z</time>
      </trkpt>
      <trkpt lat="44.81873" lon="6.20517">
        <ele>1120.4</ele>
        <time>2024-08-13T08:07:21Z</time>
      </trkpt>
      <trkpt lat="44.81873" lon="6.20514">
        <ele>1120.4</ele>
        <time>2024-08-13T08:07:22Z</time>
      </trkpt>
      <trkpt lat="44.81873" lon="6.20514">
        <ele>1120.6</ele>
        <time>2024-08-13T08:07:23Z</time>
      </trkpt>
      <trkpt lat="44.81872" lon="6.20509">
        <ele>1120.6</ele>
        <time>2024-08-13T08:07:24Z</time>
      </trkpt>
      <trkpt lat="44.81872" lon="6.20509">
        <ele>1120.6</ele>
        <time>2024-08-13T08:07:25Z</time>
      </trkpt>
      <trkpt lat="44.81871" lon="6.20505">
        <ele>1120.4</ele>
        <time>2024-08-13T08:07:26Z</time>
      </trkpt>
      <trkpt lat="44.81871" lon="6.20505">
        <ele>1120.4</ele>
        <time>2024-08-13T08:07:27Z</time>
      </trkpt>
      <trkpt lat="44.81871" lon="6.20501">
        <ele>1120.4</ele>
        <time>2024-08-13T08:07:28Z</time>
      </trkpt>
      <trkpt lat="44.81871" lon="6.20501">
        <ele>1120.4</ele>
        <time>2024-08-13T08:07:29Z</time>
      </trkpt>
      <trkpt lat="44.81871" lon="6.20498">
        <ele>1120.2</ele>
        <time>2024-08-13T08:07:30Z</time>
      </trkpt>
      <trkpt lat="44.81871" lon="6.20498">
        <ele>1120.2</ele>
        <time>2024-08-13T08:07:31Z</time>
      </trkpt>
      <trkpt lat="44.81869" lon="6.20494">
        <ele>1120</ele>
        <time>2024-08-13T08:07:32Z</time>
      </trkpt>
      <trkpt lat="44.81869" lon="6.20494">
        <ele>1120</ele>
        <time>2024-08-13T08:07:33Z</time>
      </trkpt>
      <trkpt lat="44.81869" lon="6.2049">
        <ele>1120</ele>
        <time>2024-08-13T08:07:34Z</time>
      </trkpt>
      <trkpt lat="44.81869" lon="6.2049">
        <ele>1120</ele>
        <time>2024-08-13T08:07:35Z</time>
      </trkpt>
      <trkpt lat="44.81868" lon="6.20486">
        <ele>1120</ele>
        <time>2024-08-13T08:07:36Z</time>
      </trkpt>
      <trkpt lat="44.81868" lon="6.20484">
        <ele>1120</ele>
        <time>2024-08-13T08:07:37Z</time>
      </trkpt>
      <trkpt lat="44.81868" lon="6.20484">
        <ele>1120</ele>
        <time>2024-08-13T08:07:38Z</time>
      </trkpt>
      <trkpt lat="44.81867" lon="6.2048">
        <ele>1119.8</ele>
        <time>2024-08-13T08:07:39Z</time>
      </trkpt>
      <trkpt lat="44.81867" lon="6.2048">
        <ele>1120</ele>
        <time>2024-08-13T08:07:40Z</time>
      </trkpt>
      <trkpt lat="44.81866" lon="6.20476">
        <ele>1120</ele>
        <time>2024-08-13T08:07:41Z</time>
      </trkpt>
      <trkpt lat="44.81866" lon="6.20476">
        <ele>1120</ele>
        <time>2024-08-13T08:07:42Z</time>
      </trkpt>
      <trkpt lat="44.81865" lon="6.20473">
        <ele>1120</ele>
        <time>2024-08-13T08:07:43Z</time>
      </trkpt>
      <trkpt lat="44.81865" lon="6.20473">
        <ele>1119.8</ele>
        <time>2024-08-13T08:07:44Z</time>
      </trkpt>
      <trkpt lat="44.81864" lon="6.20469">
        <ele>1119.8</ele>
        <time>2024-08-13T08:07:45Z</time>
      </trkpt>
      <trkpt lat="44.81864" lon="6.20469">
        <ele>1119.8</ele>
        <time>2024-08-13T08:07:46Z</time>
      </trkpt>
      <trkpt lat="44.81863" lon="6.20466">
        <ele>1119.6</ele>
        <time>2024-08-13T08:07:47Z</time>
      </trkpt>
      <trkpt lat="44.81863" lon="6.20466">
        <ele>1119.6</ele>
        <time>2024-08-13T08:07:48Z</time>
      </trkpt>
      <trkpt lat="44.81861" lon="6.20462">
        <ele>1119.6</ele>
        <time>2024-08-13T08:07:49Z</time>
      </trkpt>
      <trkpt lat="44.81861" lon="6.20462">
        <ele>1119.8</ele>
        <time>2024-08-13T08:07:50Z</time>
      </trkpt>
      <trkpt lat="44.8186" lon="6.20459">
        <ele>1119.8</ele>
        <time>2024-08-13T08:07:51Z</time>
      </trkpt>
      <trkpt lat="44.8186" lon="6.20459">
        <ele>1119.8</ele>
        <time>2024-08-13T08:07:52Z</time>
      </trkpt>
      <trkpt lat="44.81858" lon="6.20454">
        <ele>1119.8</ele>
        <time>2024-08-13T08:07:53Z</time>
      </trkpt>
      <trkpt lat="44.81858" lon="6.20454">
        <ele>1119.8</ele>
        <time>2024-08-13T08:07:54Z</time>
      </trkpt>
      <trkpt lat="44.81857" lon="6.2045">
        <ele>1119.8</ele>
        <time>2024-08-13T08:07:55Z</time>
      </trkpt>
      <trkpt lat="44.81857" lon="6.2045">
        <ele>1119.6</ele>
        <time>2024-08-13T08:07:56Z</time>
      </trkpt>
      <trkpt lat="44.81856" lon="6.20446">
        <ele>1119.6</ele>
        <time>2024-08-13T08:07:57Z</time>
      </trkpt>
      <trkpt lat="44.81856" lon="6.20446">
        <ele>1119.6</ele>
        <time>2024-08-13T08:07:58Z</time>
      </trkpt>
      <trkpt lat="44.81855" lon="6.20442">
        <ele>1119.6</ele>
        <time>2024-08-13T08:07:59Z</time>
      </trkpt>
      <trkpt lat="44.81855" lon="6.20442">
        <ele>1119.6</ele>
        <time>2024-08-13T08:08:00Z</time>
      </trkpt>
      <trkpt lat="44.81855" lon="6.20438">
        <ele>1119.6</ele>
        <time>2024-08-13T08:08:01Z</time>
      </trkpt>
      <trkpt lat="44.81855" lon="6.20438">
        <ele>1119.6</ele>
        <time>2024-08-13T08:08:02Z</time>
      </trkpt>
      <trkpt lat="44.81855" lon="6.20435">
        <ele>1119.6</ele>
        <time>2024-08-13T08:08:03Z</time>
      </trkpt>
      <trkpt lat="44.81855" lon="6.20435">
        <ele>1119.6</ele>
        <time>2024-08-13T08:08:04Z</time>
      </trkpt>
      <trkpt lat="44.81853" lon="6.20431">
        <ele>1119.8</ele>
        <time>2024-08-13T08:08:05Z</time>
      </trkpt>
      <trkpt lat="44.81853" lon="6.20431">
        <ele>1119.8</ele>
        <time>2024-08-13T08:08:06Z</time>
      </trkpt>
      <trkpt lat="44.81852" lon="6.20429">
        <ele>1119.8</ele>
        <time>2024-08-13T08:08:07Z</time>
      </trkpt>
      <trkpt lat="44.81852" lon="6.20429">
        <ele>1119.8</ele>
        <time>2024-08-13T08:08:08Z</time>
      </trkpt>
      <trkpt lat="44.8185" lon="6.20426">
        <ele>1120</ele>
        <time>2024-08-13T08:08:09Z</time>
      </trkpt>
      <trkpt lat="44.8185" lon="6.20426">
        <ele>1120</ele>
        <time>2024-08-13T08:08:10Z</time>
      </trkpt>
      <trkpt lat="44.81849" lon="6.20422">
        <ele>1120.2</ele>
        <time>2024-08-13T08:08:11Z</time>
      </trkpt>
      <trkpt lat="44.81849" lon="6.20422">
        <ele>1120.2</ele>
        <time>2024-08-13T08:08:12Z</time>
      </trkpt>
      <trkpt lat="44.81848" lon="6.20419">
        <ele>1120.4</ele>
        <time>2024-08-13T08:08:13Z</time>
      </trkpt>
      <trkpt lat="44.81848" lon="6.20419">
        <ele>1120.6</ele>
        <time>2024-08-13T08:08:14Z</time>
      </trkpt>
      <trkpt lat="44.81847" lon="6.20415">
        <ele>1120.6</ele>
        <time>2024-08-13T08:08:15Z</time>
      </trkpt>
      <trkpt lat="44.81847" lon="6.20415">
        <ele>1120.8</ele>
        <time>2024-08-13T08:08:16Z</time>
      </trkpt>
      <trkpt lat="44.81847" lon="6.2041">
        <ele>1120.8</ele>
        <time>2024-08-13T08:08:17Z</time>
      </trkpt>
      <trkpt lat="44.81847" lon="6.2041">
        <ele>1120.6</ele>
        <time>2024-08-13T08:08:18Z</time>
      </trkpt>
      <trkpt lat="44.81846" lon="6.20406">
        <ele>1120.6</ele>
        <time>2024-08-13T08:08:19Z</time>
      </trkpt>
      <trkpt lat="44.81846" lon="6.20406">
        <ele>1120.6</ele>
        <time>2024-08-13T08:08:20Z</time>
      </trkpt>
      <trkpt lat="44.81845" lon="6.20402">
        <ele>1120.6</ele>
        <time>2024-08-13T08:08:21Z</time>
      </trkpt>
      <trkpt lat="44.81845" lon="6.20402">
        <ele>1120.6</ele>
        <time>2024-08-13T08:08:22Z</time>
      </trkpt>
      <trkpt lat="44.81845" lon="6.20398">
        <ele>1120.6</ele>
        <time>2024-08-13T08:08:23Z</time>
      </trkpt>
      <trkpt lat="44.81845" lon="6.20398">
        <ele>1120.6</ele>
        <time>2024-08-13T08:08:24Z</time>
      </trkpt>
      <trkpt lat="44.81844" lon="6.20394">
        <ele>1120.8</ele>
        <time>2024-08-13T08:08:25Z</time>
      </trkpt>
      <trkpt lat="44.81844" lon="6.20394">
        <ele>1120.6</ele>
        <time>2024-08-13T08:08:26Z</time>
      </trkpt>
      <trkpt lat="44.81845" lon="6.2039">
        <ele>1120.8</ele>
        <time>2024-08-13T08:08:27Z</time>
      </trkpt>
      <trkpt lat="44.81845" lon="6.2039">
        <ele>1120.8</ele>
        <time>2024-08-13T08:08:28Z</time>
      </trkpt>
      <trkpt lat="44.81844" lon="6.20387">
        <ele>1120.6</ele>
        <time>2024-08-13T08:08:29Z</time>
      </trkpt>
      <trkpt lat="44.81844" lon="6.20387">
        <ele>1120.6</ele>
        <time>2024-08-13T08:08:30Z</time>
      </trkpt>
      <trkpt lat="44.81845" lon="6.20383">
        <ele>1120.6</ele>
        <time>2024-08-13T08:08:31Z</time>
      </trkpt>
      <trkpt lat="44.81845" lon="6.20383">
        <ele>1120.4</ele>
        <time>2024-08-13T08:08:32Z</time>
      </trkpt>
      <trkpt lat="44.81844" lon="6.20378">
        <ele>1120.2</ele>
        <time>2024-08-13T08:08:33Z</time>
      </trkpt>
      <trkpt lat="44.81844" lon="6.20378">
        <ele>1120</ele>
        <time>2024-08-13T08:08:34Z</time>
      </trkpt>
      <trkpt lat="44.81844" lon="6.20374">
        <ele>1120</ele>
        <time>2024-08-13T08:08:35Z</time>
      </trkpt>
      <trkpt lat="44.81844" lon="6.20374">
        <ele>1119.8</ele>
        <time>2024-08-13T08:08:36Z</time>
      </trkpt>
      <trkpt lat="44.81845" lon="6.20371">
        <ele>1119.8</ele>
        <time>2024-08-13T08:08:37Z</time>
      </trkpt>
      <trkpt lat="44.81845" lon="6.20371">
        <ele>1119.4</ele>
        <time>2024-08-13T08:08:38Z</time>
      </trkpt>
      <trkpt lat="44.81845" lon="6.20367">
        <ele>1119.2</ele>
        <time>2024-08-13T08:08:39Z</time>
      </trkpt>
      <trkpt lat="44.81845" lon="6.20367">
        <ele>1119</ele>
        <time>2024-08-13T08:08:40Z</time>
      </trkpt>
      <trkpt lat="44.81845" lon="6.20363">
        <ele>1119</ele>
        <time>2024-08-13T08:08:41Z</time>
      </trkpt>
      <trkpt lat="44.81845" lon="6.20363">
        <ele>1118.8</ele>
        <time>2024-08-13T08:08:42Z</time>
      </trkpt>
      <trkpt lat="44.81846" lon="6.20359">
        <ele>1118.8</ele>
        <time>2024-08-13T08:08:43Z</time>
      </trkpt>
      <trkpt lat="44.81846" lon="6.20359">
        <ele>1118.6</ele>
        <time>2024-08-13T08:08:44Z</time>
      </trkpt>
      <trkpt lat="44.81847" lon="6.20355">
        <ele>1118.2</ele>
        <time>2024-08-13T08:08:45Z</time>
      </trkpt>
      <trkpt lat="44.81847" lon="6.20355">
        <ele>1118.2</ele>
        <time>2024-08-13T08:08:46Z</time>
      </trkpt>
      <trkpt lat="44.81847" lon="6.20351">
        <ele>1118</ele>
        <time>2024-08-13T08:08:47Z</time>
      </trkpt>
      <trkpt lat="44.81847" lon="6.20351">
        <ele>1117.8</ele>
        <time>2024-08-13T08:08:48Z</time>
      </trkpt>
      <trkpt lat="44.81846" lon="6.20347">
        <ele>1117.8</ele>
        <time>2024-08-13T08:08:49Z</time>
      </trkpt>
      <trkpt lat="44.81846" lon="6.20347">
        <ele>1117.8</ele>
        <time>2024-08-13T08:08:50Z</time>
      </trkpt>
      <trkpt lat="44.81847" lon="6.20344">
        <ele>1118</ele>
        <time>2024-08-13T08:08:51Z</time>
      </trkpt>
      <trkpt lat="44.81847" lon="6.20344">
        <ele>1118</ele>
        <time>2024-08-13T08:08:52Z</time>
      </trkpt>
      <trkpt lat="44.81847" lon="6.2034">
        <ele>1118</ele>
        <time>2024-08-13T08:08:53Z</time>
      </trkpt>
      <trkpt lat="44.81847" lon="6.2034">
        <ele>1118</ele>
        <time>2024-08-13T08:08:54Z</time>
      </trkpt>
      <trkpt lat="44.81847" lon="6.20337">
        <ele>1118</ele>
        <time>2024-08-13T08:08:55Z</time>
      </trkpt>
      <trkpt lat="44.81847" lon="6.20337">
        <ele>1117.8</ele>
        <time>2024-08-13T08:08:56Z</time>
      </trkpt>
      <trkpt lat="44.81848" lon="6.20334">
        <ele>1117.8</ele>
        <time>2024-08-13T08:08:57Z</time>
      </trkpt>
      <trkpt lat="44.81848" lon="6.20334">
        <ele>1117.8</ele>
        <time>2024-08-13T08:08:58Z</time>
      </trkpt>
      <trkpt lat="44.81849" lon="6.2033">
        <ele>1117.8</ele>
        <time>2024-08-13T08:08:59Z</time>
      </trkpt>
      <trkpt lat="44.81849" lon="6.2033">
        <ele>1117.6</ele>
        <time>2024-08-13T08:09:00Z</time>
      </trkpt>
      <trkpt lat="44.8185" lon="6.20327">
        <ele>1117.6</ele>
        <time>2024-08-13T08:09:01Z</time>
      </trkpt>
      <trkpt lat="44.8185" lon="6.20327">
        <ele>1117.6</ele>
        <time>2024-08-13T08:09:02Z</time>
      </trkpt>
      <trkpt lat="44.81851" lon="6.20324">
        <ele>1117.6</ele>
        <time>2024-08-13T08:09:03Z</time>
      </trkpt>
      <trkpt lat="44.81851" lon="6.20324">
        <ele>1117.6</ele>
        <time>2024-08-13T08:09:04Z</time>
      </trkpt>
      <trkpt lat="44.81851" lon="6.20319">
        <ele>1117.4</ele>
        <time>2024-08-13T08:09:05Z</time>
      </trkpt>
      <trkpt lat="44.81851" lon="6.20319">
        <ele>1117.4</ele>
        <time>2024-08-13T08:09:06Z</time>
      </trkpt>
      <trkpt lat="44.81851" lon="6.20315">
        <ele>1117.4</ele>
        <time>2024-08-13T08:09:07Z</time>
      </trkpt>
      <trkpt lat="44.81851" lon="6.20315">
        <ele>1117.4</ele>
        <time>2024-08-13T08:09:08Z</time>
      </trkpt>
      <trkpt lat="44.81852" lon="6.20311">
        <ele>1117.4</ele>
        <time>2024-08-13T08:09:09Z</time>
      </trkpt>
      <trkpt lat="44.81852" lon="6.20311">
        <ele>1117.4</ele>
        <time>2024-08-13T08:09:10Z</time>
      </trkpt>
      <trkpt lat="44.81853" lon="6.20307">
        <ele>1117</ele>
        <time>2024-08-13T08:09:11Z</time>
      </trkpt>
      <trkpt lat="44.81853" lon="6.20307">
        <ele>1117</ele>
        <time>2024-08-13T08:09:12Z</time>
      </trkpt>
      <trkpt lat="44.81853" lon="6.20304">
        <ele>1117</ele>
        <time>2024-08-13T08:09:13Z</time>
      </trkpt>
      <trkpt lat="44.81853" lon="6.20304">
        <ele>1117</ele>
        <time>2024-08-13T08:09:14Z</time>
      </trkpt>
      <trkpt lat="44.81853" lon="6.203">
        <ele>1117</ele>
        <time>2024-08-13T08:09:15Z</time>
      </trkpt>
      <trkpt lat="44.81853" lon="6.203">
        <ele>1117</ele>
        <time>2024-08-13T08:09:16Z</time>
      </trkpt>
      <trkpt lat="44.81854" lon="6.20295">
        <ele>1117</ele>
        <time>2024-08-13T08:09:17Z</time>
      </trkpt>
      <trkpt lat="44.81854" lon="6.20295">
        <ele>1117</ele>
        <time>2024-08-13T08:09:18Z</time>
      </trkpt>
      <trkpt lat="44.81855" lon="6.20292">
        <ele>1116.8</ele>
        <time>2024-08-13T08:09:19Z</time>
      </trkpt>
      <trkpt lat="44.81855" lon="6.20292">
        <ele>1116.8</ele>
        <time>2024-08-13T08:09:20Z</time>
      </trkpt>
      <trkpt lat="44.81856" lon="6.20288">
        <ele>1116.8</ele>
        <time>2024-08-13T08:09:21Z</time>
      </trkpt>
      <trkpt lat="44.81856" lon="6.20288">
        <ele>1116.8</ele>
        <time>2024-08-13T08:09:22Z</time>
      </trkpt>
      <trkpt lat="44.81857" lon="6.20285">
        <ele>1116.8</ele>
        <time>2024-08-13T08:09:23Z</time>
      </trkpt>
      <trkpt lat="44.81857" lon="6.20285">
        <ele>1116.6</ele>
        <time>2024-08-13T08:09:24Z</time>
      </trkpt>
      <trkpt lat="44.81856" lon="6.20282">
        <ele>1116.6</ele>
        <time>2024-08-13T08:09:25Z</time>
      </trkpt>
      <trkpt lat="44.81856" lon="6.20282">
        <ele>1116.6</ele>
        <time>2024-08-13T08:09:26Z</time>
      </trkpt>
      <trkpt lat="44.81855" lon="6.20278">
        <ele>1116.6</ele>
        <time>2024-08-13T08:09:27Z</time>
      </trkpt>
      <trkpt lat="44.81855" lon="6.20278">
        <ele>1116.6</ele>
        <time>2024-08-13T08:09:28Z</time>
      </trkpt>
      <trkpt lat="44.81853" lon="6.20276">
        <ele>1116.6</ele>
        <time>2024-08-13T08:09:29Z</time>
      </trkpt>
      <trkpt lat="44.81853" lon="6.20276">
        <ele>1116.6</ele>
        <time>2024-08-13T08:09:30Z</time>
      </trkpt>
      <trkpt lat="44.8185" lon="6.20275">
        <ele>1116.8</ele>
        <time>2024-08-13T08:09:31Z</time>
      </trkpt>
      <trkpt lat="44.8185" lon="6.20275">
        <ele>1116.8</ele>
        <time>2024-08-13T08:09:32Z</time>
      </trkpt>
      <trkpt lat="44.81848" lon="6.20272">
        <ele>1116.8</ele>
        <time>2024-08-13T08:09:33Z</time>
      </trkpt>
      <trkpt lat="44.81848" lon="6.20272">
        <ele>1116.8</ele>
        <time>2024-08-13T08:09:34Z</time>
      </trkpt>
      <trkpt lat="44.81846" lon="6.20269">
        <ele>1116.8</ele>
        <time>2024-08-13T08:09:35Z</time>
      </trkpt>
      <trkpt lat="44.81846" lon="6.20269">
        <ele>1117</ele>
        <time>2024-08-13T08:09:36Z</time>
      </trkpt>
      <trkpt lat="44.81844" lon="6.20266">
        <ele>1117.2</ele>
        <time>2024-08-13T08:09:37Z</time>
      </trkpt>
      <trkpt lat="44.81844" lon="6.20266">
        <ele>1117.2</ele>
        <time>2024-08-13T08:09:38Z</time>
      </trkpt>
      <trkpt lat="44.81842" lon="6.20263">
        <ele>1117.2</ele>
        <time>2024-08-13T08:09:39Z</time>
      </trkpt>
      <trkpt lat="44.8184" lon="6.20262">
        <ele>1117.2</ele>
        <time>2024-08-13T08:09:40Z</time>
      </trkpt>
      <trkpt lat="44.8184" lon="6.20262">
        <ele>1117.6</ele>
        <time>2024-08-13T08:09:41Z</time>
      </trkpt>
      <trkpt lat="44.81838" lon="6.2026">
        <ele>1117.6</ele>
        <time>2024-08-13T08:09:42Z</time>
      </trkpt>
      <trkpt lat="44.81838" lon="6.2026">
        <ele>1117.6</ele>
        <time>2024-08-13T08:09:43Z</time>
      </trkpt>
      <trkpt lat="44.81837" lon="6.20257">
        <ele>1118</ele>
        <time>2024-08-13T08:09:44Z</time>
      </trkpt>
      <trkpt lat="44.81837" lon="6.20257">
        <ele>1118.2</ele>
        <time>2024-08-13T08:09:45Z</time>
      </trkpt>
      <trkpt lat="44.81836" lon="6.20254">
        <ele>1118.4</ele>
        <time>2024-08-13T08:09:46Z</time>
      </trkpt>
      <trkpt lat="44.81836" lon="6.20254">
        <ele>1118.4</ele>
        <time>2024-08-13T08:09:47Z</time>
      </trkpt>
      <trkpt lat="44.81835" lon="6.2025">
        <ele>1118.2</ele>
        <time>2024-08-13T08:09:48Z</time>
      </trkpt>
      <trkpt lat="44.81835" lon="6.2025">
        <ele>1118.2</ele>
        <time>2024-08-13T08:09:49Z</time>
      </trkpt>
      <trkpt lat="44.81835" lon="6.20247">
        <ele>1118.4</ele>
        <time>2024-08-13T08:09:50Z</time>
      </trkpt>
      <trkpt lat="44.81835" lon="6.20247">
        <ele>1118.6</ele>
        <time>2024-08-13T08:09:51Z</time>
      </trkpt>
      <trkpt lat="44.81835" lon="6.20242">
        <ele>1118.8</ele>
        <time>2024-08-13T08:09:52Z</time>
      </trkpt>
      <trkpt lat="44.81835" lon="6.20242">
        <ele>1118.8</ele>
        <time>2024-08-13T08:09:53Z</time>
      </trkpt>
      <trkpt lat="44.81836" lon="6.20238">
        <ele>1118.8</ele>
        <time>2024-08-13T08:09:54Z</time>
      </trkpt>
      <trkpt lat="44.81836" lon="6.20238">
        <ele>1118.8</ele>
        <time>2024-08-13T08:09:55Z</time>
      </trkpt>
      <trkpt lat="44.81836" lon="6.20235">
        <ele>1118.8</ele>
        <time>2024-08-13T08:09:56Z</time>
      </trkpt>
      <trkpt lat="44.81836" lon="6.20235">
        <ele>1119</ele>
        <time>2024-08-13T08:09:57Z</time>
      </trkpt>
      <trkpt lat="44.81835" lon="6.20231">
        <ele>1119</ele>
        <time>2024-08-13T08:09:58Z</time>
      </trkpt>
      <trkpt lat="44.81835" lon="6.20231">
        <ele>1119</ele>
        <time>2024-08-13T08:09:59Z</time>
      </trkpt>
      <trkpt lat="44.81836" lon="6.20227">
        <ele>1119</ele>
        <time>2024-08-13T08:10:00Z</time>
      </trkpt>
      <trkpt lat="44.81836" lon="6.20227">
        <ele>1119</ele>
        <time>2024-08-13T08:10:01Z</time>
      </trkpt>
      <trkpt lat="44.81835" lon="6.20223">
        <ele>1119</ele>
        <time>2024-08-13T08:10:02Z</time>
      </trkpt>
      <trkpt lat="44.81835" lon="6.20223">
        <ele>1119</ele>
        <time>2024-08-13T08:10:03Z</time>
      </trkpt>
      <trkpt lat="44.81835" lon="6.20219">
        <ele>1119</ele>
        <time>2024-08-13T08:10:04Z</time>
      </trkpt>
      <trkpt lat="44.81835" lon="6.20219">
        <ele>1118.8</ele>
        <time>2024-08-13T08:10:05Z</time>
      </trkpt>
      <trkpt lat="44.81834" lon="6.20216">
        <ele>1118.4</ele>
        <time>2024-08-13T08:10:06Z</time>
      </trkpt>
      <trkpt lat="44.81834" lon="6.20216">
        <ele>1118.4</ele>
        <time>2024-08-13T08:10:07Z</time>
      </trkpt>
      <trkpt lat="44.81833" lon="6.20213">
        <ele>1118.4</ele>
        <time>2024-08-13T08:10:08Z</time>
      </trkpt>
      <trkpt lat="44.81833" lon="6.20213">
        <ele>1118.4</ele>
        <time>2024-08-13T08:10:09Z</time>
      </trkpt>
      <trkpt lat="44.81831" lon="6.20211">
        <ele>1118.2</ele>
        <time>2024-08-13T08:10:10Z</time>
      </trkpt>
      <trkpt lat="44.81831" lon="6.20211">
        <ele>1118.2</ele>
        <time>2024-08-13T08:10:11Z</time>
      </trkpt>
      <trkpt lat="44.8183" lon="6.20209">
        <ele>1118.4</ele>
        <time>2024-08-13T08:10:12Z</time>
      </trkpt>
      <trkpt lat="44.8183" lon="6.20209">
        <ele>1118.6</ele>
        <time>2024-08-13T08:10:13Z</time>
      </trkpt>
      <trkpt lat="44.8183" lon="6.20209">
        <ele>1118.8</ele>
        <time>2024-08-13T08:10:14Z</time>
      </trkpt>
      <trkpt lat="44.81828" lon="6.20206">
        <ele>1119</ele>
        <time>2024-08-13T08:10:15Z</time>
      </trkpt>
      <trkpt lat="44.81828" lon="6.20206">
        <ele>1119.2</ele>
        <time>2024-08-13T08:10:16Z</time>
      </trkpt>
      <trkpt lat="44.81827" lon="6.20203">
        <ele>1119.2</ele>
        <time>2024-08-13T08:10:17Z</time>
      </trkpt>
      <trkpt lat="44.81827" lon="6.20203">
        <ele>1119.4</ele>
        <time>2024-08-13T08:10:18Z</time>
      </trkpt>
      <trkpt lat="44.81825" lon="6.20201">
        <ele>1119.8</ele>
        <time>2024-08-13T08:10:19Z</time>
      </trkpt>
      <trkpt lat="44.81825" lon="6.20201">
        <ele>1120</ele>
        <time>2024-08-13T08:10:20Z</time>
      </trkpt>
      <trkpt lat="44.81824" lon="6.20199">
        <ele>1120.2</ele>
        <time>2024-08-13T08:10:21Z</time>
      </trkpt>
      <trkpt lat="44.81824" lon="6.20199">
        <ele>1120.4</ele>
        <time>2024-08-13T08:10:22Z</time>
      </trkpt>
      <trkpt lat="44.81823" lon="6.20196">
        <ele>1120.6</ele>
        <time>2024-08-13T08:10:23Z</time>
      </trkpt>
      <trkpt lat="44.81823" lon="6.20196">
        <ele>1120.6</ele>
        <time>2024-08-13T08:10:24Z</time>
      </trkpt>
      <trkpt lat="44.81821" lon="6.20194">
        <ele>1120.8</ele>
        <time>2024-08-13T08:10:25Z</time>
      </trkpt>
      <trkpt lat="44.81821" lon="6.20194">
        <ele>1120.8</ele>
        <time>2024-08-13T08:10:26Z</time>
      </trkpt>
      <trkpt lat="44.8182" lon="6.20191">
        <ele>1120.8</ele>
        <time>2024-08-13T08:10:27Z</time>
      </trkpt>
      <trkpt lat="44.8182" lon="6.20191">
        <ele>1120.8</ele>
        <time>2024-08-13T08:10:28Z</time>
      </trkpt>
      <trkpt lat="44.81819" lon="6.20188">
        <ele>1120.8</ele>
        <time>2024-08-13T08:10:29Z</time>
      </trkpt>
      <trkpt lat="44.81819" lon="6.20188">
        <ele>1120.8</ele>
        <time>2024-08-13T08:10:30Z</time>
      </trkpt>
      <trkpt lat="44.81818" lon="6.20186">
        <ele>1120.8</ele>
        <time>2024-08-13T08:10:31Z</time>
      </trkpt>
      <trkpt lat="44.81818" lon="6.20186">
        <ele>1120.8</ele>
        <time>2024-08-13T08:10:32Z</time>
      </trkpt>
      <trkpt lat="44.81816" lon="6.20183">
        <ele>1120.8</ele>
        <time>2024-08-13T08:10:33Z</time>
      </trkpt>
      <trkpt lat="44.81816" lon="6.20183">
        <ele>1120.8</ele>
        <time>2024-08-13T08:10:34Z</time>
      </trkpt>
      <trkpt lat="44.81813" lon="6.20181">
        <ele>1120.6</ele>
        <time>2024-08-13T08:10:35Z</time>
      </trkpt>
      <trkpt lat="44.81813" lon="6.20181">
        <ele>1120.6</ele>
        <time>2024-08-13T08:10:36Z</time>
      </trkpt>
      <trkpt lat="44.81812" lon="6.2018">
        <ele>1120.6</ele>
        <time>2024-08-13T08:10:37Z</time>
      </trkpt>
      <trkpt lat="44.81812" lon="6.2018">
        <ele>1120.4</ele>
        <time>2024-08-13T08:10:38Z</time>
      </trkpt>
      <trkpt lat="44.8181" lon="6.20178">
        <ele>1120.4</ele>
        <time>2024-08-13T08:10:39Z</time>
      </trkpt>
      <trkpt lat="44.8181" lon="6.20178">
        <ele>1120.4</ele>
        <time>2024-08-13T08:10:40Z</time>
      </trkpt>
      <trkpt lat="44.81808" lon="6.20176">
        <ele>1120.4</ele>
        <time>2024-08-13T08:10:41Z</time>
      </trkpt>
      <trkpt lat="44.81808" lon="6.20176">
        <ele>1120.4</ele>
        <time>2024-08-13T08:10:42Z</time>
      </trkpt>
      <trkpt lat="44.81806" lon="6.20174">
        <ele>1120.2</ele>
        <time>2024-08-13T08:10:43Z</time>
      </trkpt>
      <trkpt lat="44.81806" lon="6.20174">
        <ele>1120.2</ele>
        <time>2024-08-13T08:10:44Z</time>
      </trkpt>
      <trkpt lat="44.81805" lon="6.20172">
        <ele>1120</ele>
        <time>2024-08-13T08:10:45Z</time>
      </trkpt>
      <trkpt lat="44.81805" lon="6.20172">
        <ele>1119.8</ele>
        <time>2024-08-13T08:10:46Z</time>
      </trkpt>
      <trkpt lat="44.81804" lon="6.20169">
        <ele>1119.4</ele>
        <time>2024-08-13T08:10:47Z</time>
      </trkpt>
      <trkpt lat="44.81804" lon="6.20169">
        <ele>1119</ele>
        <time>2024-08-13T08:10:48Z</time>
      </trkpt>
      <trkpt lat="44.81804" lon="6.20169">
        <ele>1119</ele>
        <time>2024-08-13T08:10:49Z</time>
      </trkpt>
      <trkpt lat="44.81801" lon="6.20167">
        <ele>1118.8</ele>
        <time>2024-08-13T08:10:50Z</time>
      </trkpt>
      <trkpt lat="44.81801" lon="6.20167">
        <ele>1118.8</ele>
        <time>2024-08-13T08:10:51Z</time>
      </trkpt>
      <trkpt lat="44.81799" lon="6.20166">
        <ele>1118.8</ele>
        <time>2024-08-13T08:10:52Z</time>
      </trkpt>
      <trkpt lat="44.81799" lon="6.20166">
        <ele>1118.6</ele>
        <time>2024-08-13T08:10:53Z</time>
      </trkpt>
      <trkpt lat="44.81798" lon="6.20163">
        <ele>1118.6</ele>
        <time>2024-08-13T08:10:54Z</time>
      </trkpt>
      <trkpt lat="44.81798" lon="6.20163">
        <ele>1118.6</ele>
        <time>2024-08-13T08:10:55Z</time>
      </trkpt>
      <trkpt lat="44.81797" lon="6.20161">
        <ele>1118.4</ele>
        <time>2024-08-13T08:10:56Z</time>
      </trkpt>
      <trkpt lat="44.81797" lon="6.20161">
        <ele>1118</ele>
        <time>2024-08-13T08:10:57Z</time>
      </trkpt>
      <trkpt lat="44.81795" lon="6.20159">
        <ele>1117.6</ele>
        <time>2024-08-13T08:10:58Z</time>
      </trkpt>
      <trkpt lat="44.81795" lon="6.20159">
        <ele>1117.4</ele>
        <time>2024-08-13T08:10:59Z</time>
      </trkpt>
      <trkpt lat="44.81793" lon="6.20155">
        <ele>1117.2</ele>
        <time>2024-08-13T08:11:00Z</time>
      </trkpt>
      <trkpt lat="44.81793" lon="6.20155">
        <ele>1117</ele>
        <time>2024-08-13T08:11:01Z</time>
      </trkpt>
      <trkpt lat="44.81791" lon="6.20152">
        <ele>1116.6</ele>
        <time>2024-08-13T08:11:02Z</time>
      </trkpt>
      <trkpt lat="44.81791" lon="6.20152">
        <ele>1116.6</ele>
        <time>2024-08-13T08:11:03Z</time>
      </trkpt>
      <trkpt lat="44.8179" lon="6.20148">
        <ele>1116.6</ele>
        <time>2024-08-13T08:11:04Z</time>
      </trkpt>
      <trkpt lat="44.8179" lon="6.20148">
        <ele>1116.4</ele>
        <time>2024-08-13T08:11:05Z</time>
      </trkpt>
      <trkpt lat="44.81789" lon="6.20145">
        <ele>1116.4</ele>
        <time>2024-08-13T08:11:06Z</time>
      </trkpt>
      <trkpt lat="44.81789" lon="6.20145">
        <ele>1116.2</ele>
        <time>2024-08-13T08:11:07Z</time>
      </trkpt>
      <trkpt lat="44.81787" lon="6.20142">
        <ele>1116.2</ele>
        <time>2024-08-13T08:11:08Z</time>
      </trkpt>
      <trkpt lat="44.81787" lon="6.20142">
        <ele>1116.2</ele>
        <time>2024-08-13T08:11:09Z</time>
      </trkpt>
      <trkpt lat="44.81785" lon="6.2014">
        <ele>1116</ele>
        <time>2024-08-13T08:11:10Z</time>
      </trkpt>
      <trkpt lat="44.81785" lon="6.2014">
        <ele>1116</ele>
        <time>2024-08-13T08:11:11Z</time>
      </trkpt>
      <trkpt lat="44.81783" lon="6.20138">
        <ele>1116</ele>
        <time>2024-08-13T08:11:12Z</time>
      </trkpt>
      <trkpt lat="44.81783" lon="6.20138">
        <ele>1116</ele>
        <time>2024-08-13T08:11:13Z</time>
      </trkpt>
      <trkpt lat="44.81781" lon="6.20135">
        <ele>1116</ele>
        <time>2024-08-13T08:11:14Z</time>
      </trkpt>
      <trkpt lat="44.81781" lon="6.20135">
        <ele>1116</ele>
        <time>2024-08-13T08:11:15Z</time>
      </trkpt>
      <trkpt lat="44.8178" lon="6.20133">
        <ele>1116</ele>
        <time>2024-08-13T08:11:16Z</time>
      </trkpt>
      <trkpt lat="44.8178" lon="6.20133">
        <ele>1116</ele>
        <time>2024-08-13T08:11:17Z</time>
      </trkpt>
      <trkpt lat="44.8178" lon="6.20133">
        <ele>1115.8</ele>
        <time>2024-08-13T08:11:18Z</time>
      </trkpt>
      <trkpt lat="44.81779" lon="6.20129">
        <ele>1115.8</ele>
        <time>2024-08-13T08:11:19Z</time>
      </trkpt>
      <trkpt lat="44.81779" lon="6.20129">
        <ele>1115.8</ele>
        <time>2024-08-13T08:11:20Z</time>
      </trkpt>
      <trkpt lat="44.81777" lon="6.20125">
        <ele>1115.6</ele>
        <time>2024-08-13T08:11:21Z</time>
      </trkpt>
      <trkpt lat="44.81777" lon="6.20122">
        <ele>1115.4</ele>
        <time>2024-08-13T08:11:22Z</time>
      </trkpt>
      <trkpt lat="44.81777" lon="6.20122">
        <ele>1115.4</ele>
        <time>2024-08-13T08:11:23Z</time>
      </trkpt>
      <trkpt lat="44.81776" lon="6.20119">
        <ele>1115.4</ele>
        <time>2024-08-13T08:11:24Z</time>
      </trkpt>
      <trkpt lat="44.81776" lon="6.20119">
        <ele>1115.4</ele>
        <time>2024-08-13T08:11:25Z</time>
      </trkpt>
      <trkpt lat="44.81774" lon="6.20115">
        <ele>1115.4</ele>
        <time>2024-08-13T08:11:26Z</time>
      </trkpt>
      <trkpt lat="44.81774" lon="6.20115">
        <ele>1115.4</ele>
        <time>2024-08-13T08:11:27Z</time>
      </trkpt>
      <trkpt lat="44.81772" lon="6.20114">
        <ele>1115.2</ele>
        <time>2024-08-13T08:11:28Z</time>
      </trkpt>
      <trkpt lat="44.81772" lon="6.20114">
        <ele>1115.2</ele>
        <time>2024-08-13T08:11:29Z</time>
      </trkpt>
      <trkpt lat="44.81771" lon="6.20111">
        <ele>1115.2</ele>
        <time>2024-08-13T08:11:30Z</time>
      </trkpt>
      <trkpt lat="44.81771" lon="6.20111">
        <ele>1115.2</ele>
        <time>2024-08-13T08:11:31Z</time>
      </trkpt>
      <trkpt lat="44.8177" lon="6.20108">
        <ele>1115.2</ele>
        <time>2024-08-13T08:11:32Z</time>
      </trkpt>
      <trkpt lat="44.8177" lon="6.20108">
        <ele>1115</ele>
        <time>2024-08-13T08:11:33Z</time>
      </trkpt>
      <trkpt lat="44.8177" lon="6.20108">
        <ele>1114.8</ele>
        <time>2024-08-13T08:11:34Z</time>
      </trkpt>
      <trkpt lat="44.8177" lon="6.20105">
        <ele>1114.4</ele>
        <time>2024-08-13T08:11:35Z</time>
      </trkpt>
      <trkpt lat="44.8177" lon="6.20105">
        <ele>1114.4</ele>
        <time>2024-08-13T08:11:36Z</time>
      </trkpt>
      <trkpt lat="44.81769" lon="6.20103">
        <ele>1114.2</ele>
        <time>2024-08-13T08:11:37Z</time>
      </trkpt>
      <trkpt lat="44.81769" lon="6.20103">
        <ele>1114.2</ele>
        <time>2024-08-13T08:11:38Z</time>
      </trkpt>
      <trkpt lat="44.81769" lon="6.20103">
        <ele>1114.2</ele>
        <time>2024-08-13T08:11:39Z</time>
      </trkpt>
      <trkpt lat="44.8177" lon="6.201">
        <ele>1114</ele>
        <time>2024-08-13T08:11:40Z</time>
      </trkpt>
      <trkpt lat="44.8177" lon="6.201">
        <ele>1114</ele>
        <time>2024-08-13T08:11:41Z</time>
      </trkpt>
      <trkpt lat="44.81769" lon="6.20097">
        <ele>1113.8</ele>
        <time>2024-08-13T08:11:42Z</time>
      </trkpt>
      <trkpt lat="44.81769" lon="6.20097">
        <ele>1113.8</ele>
        <time>2024-08-13T08:11:43Z</time>
      </trkpt>
      <trkpt lat="44.81768" lon="6.20094">
        <ele>1113.6</ele>
        <time>2024-08-13T08:11:44Z</time>
      </trkpt>
      <trkpt lat="44.81768" lon="6.20094">
        <ele>1113.6</ele>
        <time>2024-08-13T08:11:45Z</time>
      </trkpt>
      <trkpt lat="44.81767" lon="6.20092">
        <ele>1113.6</ele>
        <time>2024-08-13T08:11:46Z</time>
      </trkpt>
      <trkpt lat="44.81767" lon="6.20092">
        <ele>1113.8</ele>
        <time>2024-08-13T08:11:47Z</time>
      </trkpt>
      <trkpt lat="44.81765" lon="6.20089">
        <ele>1113.8</ele>
        <time>2024-08-13T08:11:48Z</time>
      </trkpt>
      <trkpt lat="44.81764" lon="6.20087">
        <ele>1113.8</ele>
        <time>2024-08-13T08:11:49Z</time>
      </trkpt>
      <trkpt lat="44.81764" lon="6.20087">
        <ele>1113.8</ele>
        <time>2024-08-13T08:11:50Z</time>
      </trkpt>
      <trkpt lat="44.81762" lon="6.20084">
        <ele>1113.6</ele>
        <time>2024-08-13T08:11:51Z</time>
      </trkpt>
      <trkpt lat="44.81762" lon="6.20084">
        <ele>1113.6</ele>
        <time>2024-08-13T08:11:52Z</time>
      </trkpt>
      <trkpt lat="44.81761" lon="6.2008">
        <ele>1113.4</ele>
        <time>2024-08-13T08:11:53Z</time>
      </trkpt>
      <trkpt lat="44.81761" lon="6.2008">
        <ele>1113.2</ele>
        <time>2024-08-13T08:11:54Z</time>
      </trkpt>
      <trkpt lat="44.8176" lon="6.20076">
        <ele>1113.2</ele>
        <time>2024-08-13T08:11:55Z</time>
      </trkpt>
      <trkpt lat="44.8176" lon="6.20076">
        <ele>1113.2</ele>
        <time>2024-08-13T08:11:56Z</time>
      </trkpt>
      <trkpt lat="44.81759" lon="6.20073">
        <ele>1113.2</ele>
        <time>2024-08-13T08:11:57Z</time>
      </trkpt>
      <trkpt lat="44.81759" lon="6.20073">
        <ele>1113.2</ele>
        <time>2024-08-13T08:11:58Z</time>
      </trkpt>
      <trkpt lat="44.81758" lon="6.2007">
        <ele>1113</ele>
        <time>2024-08-13T08:11:59Z</time>
      </trkpt>
      <trkpt lat="44.81758" lon="6.2007">
        <ele>1113</ele>
        <time>2024-08-13T08:12:00Z</time>
      </trkpt>
      <trkpt lat="44.81756" lon="6.20068">
        <ele>1112.8</ele>
        <time>2024-08-13T08:12:01Z</time>
      </trkpt>
      <trkpt lat="44.81756" lon="6.20068">
        <ele>1112.8</ele>
        <time>2024-08-13T08:12:02Z</time>
      </trkpt>
      <trkpt lat="44.81754" lon="6.20065">
        <ele>1112.8</ele>
        <time>2024-08-13T08:12:03Z</time>
      </trkpt>
      <trkpt lat="44.81754" lon="6.20065">
        <ele>1113</ele>
        <time>2024-08-13T08:12:04Z</time>
      </trkpt>
      <trkpt lat="44.81753" lon="6.20063">
        <ele>1113.2</ele>
        <time>2024-08-13T08:12:05Z</time>
      </trkpt>
      <trkpt lat="44.81753" lon="6.20063">
        <ele>1113.2</ele>
        <time>2024-08-13T08:12:06Z</time>
      </trkpt>
      <trkpt lat="44.81753" lon="6.20063">
        <ele>1113.4</ele>
        <time>2024-08-13T08:12:07Z</time>
      </trkpt>
      <trkpt lat="44.81752" lon="6.20059">
        <ele>1113.6</ele>
        <time>2024-08-13T08:12:08Z</time>
      </trkpt>
      <trkpt lat="44.81752" lon="6.20059">
        <ele>1113.6</ele>
        <time>2024-08-13T08:12:09Z</time>
      </trkpt>
      <trkpt lat="44.8175" lon="6.20057">
        <ele>1113.8</ele>
        <time>2024-08-13T08:12:10Z</time>
      </trkpt>
      <trkpt lat="44.8175" lon="6.20057">
        <ele>1113.8</ele>
        <time>2024-08-13T08:12:11Z</time>
      </trkpt>
      <trkpt lat="44.81749" lon="6.20054">
        <ele>1113.4</ele>
        <time>2024-08-13T08:12:12Z</time>
      </trkpt>
      <trkpt lat="44.81749" lon="6.20054">
        <ele>1113.4</ele>
        <time>2024-08-13T08:12:13Z</time>
      </trkpt>
      <trkpt lat="44.81748" lon="6.20051">
        <ele>1113.4</ele>
        <time>2024-08-13T08:12:14Z</time>
      </trkpt>
      <trkpt lat="44.81748" lon="6.20051">
        <ele>1113.4</ele>
        <time>2024-08-13T08:12:15Z</time>
      </trkpt>
      <trkpt lat="44.81746" lon="6.20047">
        <ele>1113.2</ele>
        <time>2024-08-13T08:12:16Z</time>
      </trkpt>
      <trkpt lat="44.81746" lon="6.20047">
        <ele>1113</ele>
        <time>2024-08-13T08:12:17Z</time>
      </trkpt>
      <trkpt lat="44.81744" lon="6.20044">
        <ele>1112.8</ele>
        <time>2024-08-13T08:12:18Z</time>
      </trkpt>
      <trkpt lat="44.81744" lon="6.20044">
        <ele>1112.8</ele>
        <time>2024-08-13T08:12:19Z</time>
      </trkpt>
      <trkpt lat="44.81742" lon="6.20042">
        <ele>1112.6</ele>
        <time>2024-08-13T08:12:20Z</time>
      </trkpt>
      <trkpt lat="44.81742" lon="6.20042">
        <ele>1112.4</ele>
        <time>2024-08-13T08:12:21Z</time>
      </trkpt>
      <trkpt lat="44.8174" lon="6.2004">
        <ele>1112.4</ele>
        <time>2024-08-13T08:12:22Z</time>
      </trkpt>
      <trkpt lat="44.8174" lon="6.2004">
        <ele>1112.4</ele>
        <time>2024-08-13T08:12:23Z</time>
      </trkpt>
      <trkpt lat="44.81738" lon="6.20038">
        <ele>1112.4</ele>
        <time>2024-08-13T08:12:24Z</time>
      </trkpt>
      <trkpt lat="44.81738" lon="6.20038">
        <ele>1112.4</ele>
        <time>2024-08-13T08:12:25Z</time>
      </trkpt>
      <trkpt lat="44.81736" lon="6.20036">
        <ele>1112.4</ele>
        <time>2024-08-13T08:12:26Z</time>
      </trkpt>
      <trkpt lat="44.81736" lon="6.20036">
        <ele>1112.4</ele>
        <time>2024-08-13T08:12:27Z</time>
      </trkpt>
      <trkpt lat="44.81734" lon="6.20033">
        <ele>1112.2</ele>
        <time>2024-08-13T08:12:28Z</time>
      </trkpt>
      <trkpt lat="44.81734" lon="6.20033">
        <ele>1112.2</ele>
        <time>2024-08-13T08:12:29Z</time>
      </trkpt>
      <trkpt lat="44.81732" lon="6.20031">
        <ele>1112.2</ele>
        <time>2024-08-13T08:12:30Z</time>
      </trkpt>
      <trkpt lat="44.81732" lon="6.20031">
        <ele>1111.8</ele>
        <time>2024-08-13T08:12:31Z</time>
      </trkpt>
      <trkpt lat="44.8173" lon="6.20029">
        <ele>1111.8</ele>
        <time>2024-08-13T08:12:32Z</time>
      </trkpt>
      <trkpt lat="44.8173" lon="6.20029">
        <ele>1111.8</ele>
        <time>2024-08-13T08:12:33Z</time>
      </trkpt>
      <trkpt lat="44.81728" lon="6.20026">
        <ele>1111.6</ele>
        <time>2024-08-13T08:12:34Z</time>
      </trkpt>
      <trkpt lat="44.81728" lon="6.20026">
        <ele>1111.4</ele>
        <time>2024-08-13T08:12:35Z</time>
      </trkpt>
      <trkpt lat="44.81727" lon="6.20023">
        <ele>1111.4</ele>
        <time>2024-08-13T08:12:36Z</time>
      </trkpt>
      <trkpt lat="44.81727" lon="6.20023">
        <ele>1111.4</ele>
        <time>2024-08-13T08:12:37Z</time>
      </trkpt>
      <trkpt lat="44.81727" lon="6.20023">
        <ele>1111.4</ele>
        <time>2024-08-13T08:12:38Z</time>
      </trkpt>
      <trkpt lat="44.81724" lon="6.20021">
        <ele>1111.6</ele>
        <time>2024-08-13T08:12:39Z</time>
      </trkpt>
      <trkpt lat="44.81724" lon="6.20021">
        <ele>1111.8</ele>
        <time>2024-08-13T08:12:40Z</time>
      </trkpt>
      <trkpt lat="44.81722" lon="6.20019">
        <ele>1111.8</ele>
        <time>2024-08-13T08:12:41Z</time>
      </trkpt>
      <trkpt lat="44.81722" lon="6.20019">
        <ele>1111.4</ele>
        <time>2024-08-13T08:12:42Z</time>
      </trkpt>
      <trkpt lat="44.8172" lon="6.20017">
        <ele>1111.4</ele>
        <time>2024-08-13T08:12:43Z</time>
      </trkpt>
      <trkpt lat="44.8172" lon="6.20017">
        <ele>1111.6</ele>
        <time>2024-08-13T08:12:44Z</time>
      </trkpt>
      <trkpt lat="44.81718" lon="6.20015">
        <ele>1111.8</ele>
        <time>2024-08-13T08:12:45Z</time>
      </trkpt>
      <trkpt lat="44.81718" lon="6.20015">
        <ele>1112</ele>
        <time>2024-08-13T08:12:46Z</time>
      </trkpt>
      <trkpt lat="44.81717" lon="6.20011">
        <ele>1112</ele>
        <time>2024-08-13T08:12:47Z</time>
      </trkpt>
      <trkpt lat="44.81717" lon="6.20011">
        <ele>1112.4</ele>
        <time>2024-08-13T08:12:48Z</time>
      </trkpt>
      <trkpt lat="44.81717" lon="6.20008">
        <ele>1112.4</ele>
        <time>2024-08-13T08:12:49Z</time>
      </trkpt>
      <trkpt lat="44.81717" lon="6.20008">
        <ele>1112.4</ele>
        <time>2024-08-13T08:12:50Z</time>
      </trkpt>
      <trkpt lat="44.81716" lon="6.20005">
        <ele>1112.4</ele>
        <time>2024-08-13T08:12:51Z</time>
      </trkpt>
      <trkpt lat="44.81716" lon="6.20005">
        <ele>1112.2</ele>
        <time>2024-08-13T08:12:52Z</time>
      </trkpt>
      <trkpt lat="44.81716" lon="6.20002">
        <ele>1112.2</ele>
        <time>2024-08-13T08:12:53Z</time>
      </trkpt>
      <trkpt lat="44.81716" lon="6.20002">
        <ele>1112.2</ele>
        <time>2024-08-13T08:12:54Z</time>
      </trkpt>
      <trkpt lat="44.81717" lon="6.19999">
        <ele>1112</ele>
        <time>2024-08-13T08:12:55Z</time>
      </trkpt>
      <trkpt lat="44.81717" lon="6.19999">
        <ele>1112</ele>
        <time>2024-08-13T08:12:56Z</time>
      </trkpt>
      <trkpt lat="44.81717" lon="6.19999">
        <ele>1112</ele>
        <time>2024-08-13T08:12:57Z</time>
      </trkpt>
      <trkpt lat="44.81717" lon="6.19999">
        <ele>1112</ele>
        <time>2024-08-13T08:12:58Z</time>
      </trkpt>
      <trkpt lat="44.81717" lon="6.19999">
        <ele>1112</ele>
        <time>2024-08-13T08:12:59Z</time>
      </trkpt>
      <trkpt lat="44.81717" lon="6.19999">
        <ele>1112</ele>
        <time>2024-08-13T08:13:00Z</time>
      </trkpt>
      <trkpt lat="44.81717" lon="6.19999">
        <ele>1112</ele>
        <time>2024-08-13T08:13:01Z</time>
      </trkpt>
      <trkpt lat="44.81717" lon="6.19999">
        <ele>1112</ele>
        <time>2024-08-13T08:13:02Z</time>
      </trkpt>
      <trkpt lat="44.81717" lon="6.19999">
        <ele>1112</ele>
        <time>2024-08-13T08:13:03Z</time>
      </trkpt>
      <trkpt lat="44.81717" lon="6.19999">
        <ele>1112</ele>
        <time>2024-08-13T08:13:04Z</time>
      </trkpt>
      <trkpt lat="44.81717" lon="6.19996">
        <ele>1112</ele>
        <time>2024-08-13T08:13:05Z</time>
      </trkpt>
      <trkpt lat="44.81717" lon="6.19996">
        <ele>1112</ele>
        <time>2024-08-13T08:13:06Z</time>
      </trkpt>
      <trkpt lat="44.81716" lon="6.19992">
        <ele>1112</ele>
        <time>2024-08-13T08:13:07Z</time>
      </trkpt>
      <trkpt lat="44.81716" lon="6.19992">
        <ele>1112</ele>
        <time>2024-08-13T08:13:08Z</time>
      </trkpt>
      <trkpt lat="44.81716" lon="6.19989">
        <ele>1111.6</ele>
        <time>2024-08-13T08:13:09Z</time>
      </trkpt>
      <trkpt lat="44.81716" lon="6.19989">
        <ele>1111.6</ele>
        <time>2024-08-13T08:13:10Z</time>
      </trkpt>
      <trkpt lat="44.81717" lon="6.19985">
        <ele>1111.4</ele>
        <time>2024-08-13T08:13:11Z</time>
      </trkpt>
      <trkpt lat="44.81717" lon="6.19985">
        <ele>1111.4</ele>
        <time>2024-08-13T08:13:12Z</time>
      </trkpt>
      <trkpt lat="44.81717" lon="6.19981">
        <ele>1111.4</ele>
        <time>2024-08-13T08:13:13Z</time>
      </trkpt>
      <trkpt lat="44.81717" lon="6.19981">
        <ele>1111.4</ele>
        <time>2024-08-13T08:13:14Z</time>
      </trkpt>
      <trkpt lat="44.81717" lon="6.19977">
        <ele>1111</ele>
        <time>2024-08-13T08:13:15Z</time>
      </trkpt>
      <trkpt lat="44.81717" lon="6.19977">
        <ele>1111</ele>
        <time>2024-08-13T08:13:16Z</time>
      </trkpt>
      <trkpt lat="44.81717" lon="6.19973">
        <ele>1111.2</ele>
        <time>2024-08-13T08:13:17Z</time>
      </trkpt>
      <trkpt lat="44.81717" lon="6.19973">
        <ele>1111.2</ele>
        <time>2024-08-13T08:13:18Z</time>
      </trkpt>
      <trkpt lat="44.81718" lon="6.1997">
        <ele>1111.4</ele>
        <time>2024-08-13T08:13:19Z</time>
      </trkpt>
      <trkpt lat="44.81718" lon="6.1997">
        <ele>1111.4</ele>
        <time>2024-08-13T08:13:20Z</time>
      </trkpt>
      <trkpt lat="44.81718" lon="6.19966">
        <ele>1111.4</ele>
        <time>2024-08-13T08:13:21Z</time>
      </trkpt>
      <trkpt lat="44.81718" lon="6.19966">
        <ele>1111.2</ele>
        <time>2024-08-13T08:13:22Z</time>
      </trkpt>
      <trkpt lat="44.81717" lon="6.19962">
        <ele>1111</ele>
        <time>2024-08-13T08:13:23Z</time>
      </trkpt>
      <trkpt lat="44.81717" lon="6.19962">
        <ele>1110.8</ele>
        <time>2024-08-13T08:13:24Z</time>
      </trkpt>
      <trkpt lat="44.81717" lon="6.19959">
        <ele>1110.8</ele>
        <time>2024-08-13T08:13:25Z</time>
      </trkpt>
      <trkpt lat="44.81717" lon="6.19959">
        <ele>1110.6</ele>
        <time>2024-08-13T08:13:26Z</time>
      </trkpt>
      <trkpt lat="44.81717" lon="6.19955">
        <ele>1110.8</ele>
        <time>2024-08-13T08:13:27Z</time>
      </trkpt>
      <trkpt lat="44.81717" lon="6.19955">
        <ele>1110.8</ele>
        <time>2024-08-13T08:13:28Z</time>
      </trkpt>
      <trkpt lat="44.81717" lon="6.19951">
        <ele>1110.8</ele>
        <time>2024-08-13T08:13:29Z</time>
      </trkpt>
      <trkpt lat="44.81717" lon="6.19951">
        <ele>1110.6</ele>
        <time>2024-08-13T08:13:30Z</time>
      </trkpt>
      <trkpt lat="44.81716" lon="6.19947">
        <ele>1110.6</ele>
        <time>2024-08-13T08:13:31Z</time>
      </trkpt>
      <trkpt lat="44.81716" lon="6.19947">
        <ele>1110.6</ele>
        <time>2024-08-13T08:13:32Z</time>
      </trkpt>
      <trkpt lat="44.81716" lon="6.19944">
        <ele>1110.4</ele>
        <time>2024-08-13T08:13:33Z</time>
      </trkpt>
      <trkpt lat="44.81716" lon="6.19944">
        <ele>1110.4</ele>
        <time>2024-08-13T08:13:34Z</time>
      </trkpt>
      <trkpt lat="44.81716" lon="6.19941">
        <ele>1110.4</ele>
        <time>2024-08-13T08:13:35Z</time>
      </trkpt>
      <trkpt lat="44.81716" lon="6.19941">
        <ele>1110.4</ele>
        <time>2024-08-13T08:13:36Z</time>
      </trkpt>
      <trkpt lat="44.81715" lon="6.19937">
        <ele>1110.4</ele>
        <time>2024-08-13T08:13:37Z</time>
      </trkpt>
      <trkpt lat="44.81715" lon="6.19937">
        <ele>1110.4</ele>
        <time>2024-08-13T08:13:38Z</time>
      </trkpt>
      <trkpt lat="44.81715" lon="6.19934">
        <ele>1110.4</ele>
        <time>2024-08-13T08:13:39Z</time>
      </trkpt>
      <trkpt lat="44.81715" lon="6.19934">
        <ele>1110.4</ele>
        <time>2024-08-13T08:13:40Z</time>
      </trkpt>
      <trkpt lat="44.81714" lon="6.1993">
        <ele>1110.4</ele>
        <time>2024-08-13T08:13:41Z</time>
      </trkpt>
      <trkpt lat="44.81714" lon="6.1993">
        <ele>1110.4</ele>
        <time>2024-08-13T08:13:42Z</time>
      </trkpt>
      <trkpt lat="44.81715" lon="6.19926">
        <ele>1110.2</ele>
        <time>2024-08-13T08:13:43Z</time>
      </trkpt>
      <trkpt lat="44.81715" lon="6.19926">
        <ele>1110.2</ele>
        <time>2024-08-13T08:13:44Z</time>
      </trkpt>
      <trkpt lat="44.81715" lon="6.19923">
        <ele>1110.2</ele>
        <time>2024-08-13T08:13:45Z</time>
      </trkpt>
      <trkpt lat="44.81715" lon="6.19923">
        <ele>1110.2</ele>
        <time>2024-08-13T08:13:46Z</time>
      </trkpt>
      <trkpt lat="44.81714" lon="6.1992">
        <ele>1110.2</ele>
        <time>2024-08-13T08:13:47Z</time>
      </trkpt>
      <trkpt lat="44.81714" lon="6.1992">
        <ele>1110.2</ele>
        <time>2024-08-13T08:13:48Z</time>
      </trkpt>
      <trkpt lat="44.81712" lon="6.19917">
        <ele>1110.4</ele>
        <time>2024-08-13T08:13:49Z</time>
      </trkpt>
      <trkpt lat="44.81712" lon="6.19917">
        <ele>1110.6</ele>
        <time>2024-08-13T08:13:50Z</time>
      </trkpt>
      <trkpt lat="44.81711" lon="6.19914">
        <ele>1110.8</ele>
        <time>2024-08-13T08:13:51Z</time>
      </trkpt>
      <trkpt lat="44.81711" lon="6.19914">
        <ele>1111.2</ele>
        <time>2024-08-13T08:13:52Z</time>
      </trkpt>
      <trkpt lat="44.8171" lon="6.19911">
        <ele>1111.2</ele>
        <time>2024-08-13T08:13:53Z</time>
      </trkpt>
      <trkpt lat="44.8171" lon="6.19911">
        <ele>1111.4</ele>
        <time>2024-08-13T08:13:54Z</time>
      </trkpt>
      <trkpt lat="44.81709" lon="6.19909">
        <ele>1111.2</ele>
        <time>2024-08-13T08:13:55Z</time>
      </trkpt>
      <trkpt lat="44.81709" lon="6.19909">
        <ele>1111.4</ele>
        <time>2024-08-13T08:13:56Z</time>
      </trkpt>
      <trkpt lat="44.81709" lon="6.19905">
        <ele>1111.6</ele>
        <time>2024-08-13T08:13:57Z</time>
      </trkpt>
      <trkpt lat="44.81709" lon="6.19905">
        <ele>1111.6</ele>
        <time>2024-08-13T08:13:58Z</time>
      </trkpt>
      <trkpt lat="44.81708" lon="6.19902">
        <ele>1111.6</ele>
        <time>2024-08-13T08:13:59Z</time>
      </trkpt>
      <trkpt lat="44.81708" lon="6.19902">
        <ele>1111.6</ele>
        <time>2024-08-13T08:14:00Z</time>
      </trkpt>
      <trkpt lat="44.81706" lon="6.199">
        <ele>1111.2</ele>
        <time>2024-08-13T08:14:01Z</time>
      </trkpt>
      <trkpt lat="44.81706" lon="6.199">
        <ele>1111.2</ele>
        <time>2024-08-13T08:14:02Z</time>
      </trkpt>
      <trkpt lat="44.81704" lon="6.19897">
        <ele>1111.2</ele>
        <time>2024-08-13T08:14:03Z</time>
      </trkpt>
      <trkpt lat="44.81704" lon="6.19897">
        <ele>1111.2</ele>
        <time>2024-08-13T08:14:04Z</time>
      </trkpt>
      <trkpt lat="44.81702" lon="6.19894">
        <ele>1111</ele>
        <time>2024-08-13T08:14:05Z</time>
      </trkpt>
      <trkpt lat="44.81702" lon="6.19894">
        <ele>1111</ele>
        <time>2024-08-13T08:14:06Z</time>
      </trkpt>
      <trkpt lat="44.81701" lon="6.19891">
        <ele>1111</ele>
        <time>2024-08-13T08:14:07Z</time>
      </trkpt>
      <trkpt lat="44.81701" lon="6.19891">
        <ele>1111</ele>
        <time>2024-08-13T08:14:08Z</time>
      </trkpt>
      <trkpt lat="44.817" lon="6.19888">
        <ele>1111</ele>
        <time>2024-08-13T08:14:09Z</time>
      </trkpt>
      <trkpt lat="44.817" lon="6.19888">
        <ele>1111</ele>
        <time>2024-08-13T08:14:10Z</time>
      </trkpt>
      <trkpt lat="44.817" lon="6.19885">
        <ele>1111.2</ele>
        <time>2024-08-13T08:14:11Z</time>
      </trkpt>
      <trkpt lat="44.817" lon="6.19885">
        <ele>1111.2</ele>
        <time>2024-08-13T08:14:12Z</time>
      </trkpt>
      <trkpt lat="44.817" lon="6.1988">
        <ele>1111</ele>
        <time>2024-08-13T08:14:13Z</time>
      </trkpt>
      <trkpt lat="44.817" lon="6.1988">
        <ele>1111</ele>
        <time>2024-08-13T08:14:14Z</time>
      </trkpt>
      <trkpt lat="44.817" lon="6.19876">
        <ele>1111.2</ele>
        <time>2024-08-13T08:14:15Z</time>
      </trkpt>
      <trkpt lat="44.817" lon="6.19876">
        <ele>1111</ele>
        <time>2024-08-13T08:14:16Z</time>
      </trkpt>
      <trkpt lat="44.817" lon="6.19871">
        <ele>1111</ele>
        <time>2024-08-13T08:14:17Z</time>
      </trkpt>
      <trkpt lat="44.817" lon="6.19871">
        <ele>1110.6</ele>
        <time>2024-08-13T08:14:18Z</time>
      </trkpt>
      <trkpt lat="44.81699" lon="6.19868">
        <ele>1110.6</ele>
        <time>2024-08-13T08:14:19Z</time>
      </trkpt>
      <trkpt lat="44.81699" lon="6.19868">
        <ele>1110.4</ele>
        <time>2024-08-13T08:14:20Z</time>
      </trkpt>
      <trkpt lat="44.81698" lon="6.19864">
        <ele>1110</ele>
        <time>2024-08-13T08:14:21Z</time>
      </trkpt>
      <trkpt lat="44.81698" lon="6.19864">
        <ele>1110</ele>
        <time>2024-08-13T08:14:22Z</time>
      </trkpt>
      <trkpt lat="44.81697" lon="6.19861">
        <ele>1110</ele>
        <time>2024-08-13T08:14:23Z</time>
      </trkpt>
      <trkpt lat="44.81697" lon="6.19861">
        <ele>1109.8</ele>
        <time>2024-08-13T08:14:24Z</time>
      </trkpt>
      <trkpt lat="44.81696" lon="6.19858">
        <ele>1109.8</ele>
        <time>2024-08-13T08:14:25Z</time>
      </trkpt>
      <trkpt lat="44.81696" lon="6.19858">
        <ele>1109.8</ele>
        <time>2024-08-13T08:14:26Z</time>
      </trkpt>
      <trkpt lat="44.81695" lon="6.19854">
        <ele>1109.8</ele>
        <time>2024-08-13T08:14:27Z</time>
      </trkpt>
      <trkpt lat="44.81695" lon="6.19854">
        <ele>1110</ele>
        <time>2024-08-13T08:14:28Z</time>
      </trkpt>
      <trkpt lat="44.81694" lon="6.19851">
        <ele>1110.2</ele>
        <time>2024-08-13T08:14:29Z</time>
      </trkpt>
      <trkpt lat="44.81694" lon="6.19851">
        <ele>1110.2</ele>
        <time>2024-08-13T08:14:30Z</time>
      </trkpt>
      <trkpt lat="44.81693" lon="6.19848">
        <ele>1110.2</ele>
        <time>2024-08-13T08:14:31Z</time>
      </trkpt>
      <trkpt lat="44.81693" lon="6.19848">
        <ele>1110.4</ele>
        <time>2024-08-13T08:14:32Z</time>
      </trkpt>
      <trkpt lat="44.81692" lon="6.19844">
        <ele>1110.6</ele>
        <time>2024-08-13T08:14:33Z</time>
      </trkpt>
      <trkpt lat="44.81691" lon="6.19842">
        <ele>1110.6</ele>
        <time>2024-08-13T08:14:34Z</time>
      </trkpt>
      <trkpt lat="44.81691" lon="6.19842">
        <ele>1110.6</ele>
        <time>2024-08-13T08:14:35Z</time>
      </trkpt>
      <trkpt lat="44.8169" lon="6.19839">
        <ele>1110.6</ele>
        <time>2024-08-13T08:14:36Z</time>
      </trkpt>
      <trkpt lat="44.8169" lon="6.19839">
        <ele>1110.6</ele>
        <time>2024-08-13T08:14:37Z</time>
      </trkpt>
      <trkpt lat="44.81688" lon="6.19836">
        <ele>1110.6</ele>
        <time>2024-08-13T08:14:38Z</time>
      </trkpt>
      <trkpt lat="44.81688" lon="6.19836">
        <ele>1110.6</ele>
        <time>2024-08-13T08:14:39Z</time>
      </trkpt>
      <trkpt lat="44.81686" lon="6.19834">
        <ele>1110.8</ele>
        <time>2024-08-13T08:14:40Z</time>
      </trkpt>
      <trkpt lat="44.81686" lon="6.19834">
        <ele>1110.8</ele>
        <time>2024-08-13T08:14:41Z</time>
      </trkpt>
      <trkpt lat="44.81684" lon="6.19831">
        <ele>1110.8</ele>
        <time>2024-08-13T08:14:42Z</time>
      </trkpt>
      <trkpt lat="44.81684" lon="6.19831">
        <ele>1111</ele>
        <time>2024-08-13T08:14:43Z</time>
      </trkpt>
      <trkpt lat="44.81683" lon="6.19828">
        <ele>1111.2</ele>
        <time>2024-08-13T08:14:44Z</time>
      </trkpt>
      <trkpt lat="44.81683" lon="6.19828">
        <ele>1111.6</ele>
        <time>2024-08-13T08:14:45Z</time>
      </trkpt>
      <trkpt lat="44.81681" lon="6.19825">
        <ele>1111.6</ele>
        <time>2024-08-13T08:14:46Z</time>
      </trkpt>
      <trkpt lat="44.81681" lon="6.19825">
        <ele>1111.8</ele>
        <time>2024-08-13T08:14:47Z</time>
      </trkpt>
      <trkpt lat="44.81679" lon="6.19823">
        <ele>1111.8</ele>
        <time>2024-08-13T08:14:48Z</time>
      </trkpt>
      <trkpt lat="44.81679" lon="6.19823">
        <ele>1112.2</ele>
        <time>2024-08-13T08:14:49Z</time>
      </trkpt>
      <trkpt lat="44.81678" lon="6.1982">
        <ele>1112.2</ele>
        <time>2024-08-13T08:14:50Z</time>
      </trkpt>
      <trkpt lat="44.81678" lon="6.1982">
        <ele>1112</ele>
        <time>2024-08-13T08:14:51Z</time>
      </trkpt>
      <trkpt lat="44.81677" lon="6.19818">
        <ele>1112</ele>
        <time>2024-08-13T08:14:52Z</time>
      </trkpt>
      <trkpt lat="44.81677" lon="6.19818">
        <ele>1112</ele>
        <time>2024-08-13T08:14:53Z</time>
      </trkpt>
      <trkpt lat="44.81675" lon="6.19815">
        <ele>1112</ele>
        <time>2024-08-13T08:14:54Z</time>
      </trkpt>
      <trkpt lat="44.81675" lon="6.19815">
        <ele>1112</ele>
        <time>2024-08-13T08:14:55Z</time>
      </trkpt>
      <trkpt lat="44.81674" lon="6.1981">
        <ele>1112.2</ele>
        <time>2024-08-13T08:14:56Z</time>
      </trkpt>
      <trkpt lat="44.81674" lon="6.1981">
        <ele>1112.4</ele>
        <time>2024-08-13T08:14:57Z</time>
      </trkpt>
      <trkpt lat="44.81673" lon="6.19807">
        <ele>1112.6</ele>
        <time>2024-08-13T08:14:58Z</time>
      </trkpt>
      <trkpt lat="44.81673" lon="6.19807">
        <ele>1112.8</ele>
        <time>2024-08-13T08:14:59Z</time>
      </trkpt>
      <trkpt lat="44.81672" lon="6.19804">
        <ele>1112.8</ele>
        <time>2024-08-13T08:15:00Z</time>
      </trkpt>
      <trkpt lat="44.81672" lon="6.19804">
        <ele>1112.8</ele>
        <time>2024-08-13T08:15:01Z</time>
      </trkpt>
      <trkpt lat="44.81671" lon="6.19801">
        <ele>1113</ele>
        <time>2024-08-13T08:15:02Z</time>
      </trkpt>
      <trkpt lat="44.81671" lon="6.19801">
        <ele>1113.2</ele>
        <time>2024-08-13T08:15:03Z</time>
      </trkpt>
      <trkpt lat="44.8167" lon="6.19797">
        <ele>1113.2</ele>
        <time>2024-08-13T08:15:04Z</time>
      </trkpt>
      <trkpt lat="44.8167" lon="6.19797">
        <ele>1113.2</ele>
        <time>2024-08-13T08:15:05Z</time>
      </trkpt>
      <trkpt lat="44.8167" lon="6.19793">
        <ele>1113.2</ele>
        <time>2024-08-13T08:15:06Z</time>
      </trkpt>
      <trkpt lat="44.8167" lon="6.19793">
        <ele>1113.4</ele>
        <time>2024-08-13T08:15:07Z</time>
      </trkpt>
      <trkpt lat="44.8167" lon="6.1979">
        <ele>1113.2</ele>
        <time>2024-08-13T08:15:08Z</time>
      </trkpt>
      <trkpt lat="44.8167" lon="6.1979">
        <ele>1113</ele>
        <time>2024-08-13T08:15:09Z</time>
      </trkpt>
      <trkpt lat="44.8167" lon="6.19787">
        <ele>1113</ele>
        <time>2024-08-13T08:15:10Z</time>
      </trkpt>
      <trkpt lat="44.8167" lon="6.19784">
        <ele>1113.6</ele>
        <time>2024-08-13T08:15:11Z</time>
      </trkpt>
      <trkpt lat="44.8167" lon="6.19784">
        <ele>1113.6</ele>
        <time>2024-08-13T08:15:12Z</time>
      </trkpt>
      <trkpt lat="44.81669" lon="6.19781">
        <ele>1113.8</ele>
        <time>2024-08-13T08:15:13Z</time>
      </trkpt>
      <trkpt lat="44.81668" lon="6.19779">
        <ele>1113.6</ele>
        <time>2024-08-13T08:15:14Z</time>
      </trkpt>
      <trkpt lat="44.81667" lon="6.19777">
        <ele>1113.8</ele>
        <time>2024-08-13T08:15:15Z</time>
      </trkpt>
      <trkpt lat="44.81667" lon="6.19777">
        <ele>1113.8</ele>
        <time>2024-08-13T08:15:16Z</time>
      </trkpt>
      <trkpt lat="44.81665" lon="6.19774">
        <ele>1113.8</ele>
        <time>2024-08-13T08:15:17Z</time>
      </trkpt>
      <trkpt lat="44.81665" lon="6.19774">
        <ele>1113.4</ele>
        <time>2024-08-13T08:15:18Z</time>
      </trkpt>
      <trkpt lat="44.81665" lon="6.1977">
        <ele>1113.4</ele>
        <time>2024-08-13T08:15:19Z</time>
      </trkpt>
      <trkpt lat="44.81665" lon="6.1977">
        <ele>1113.8</ele>
        <time>2024-08-13T08:15:20Z</time>
      </trkpt>
      <trkpt lat="44.81664" lon="6.19768">
        <ele>1113.8</ele>
        <time>2024-08-13T08:15:21Z</time>
      </trkpt>
      <trkpt lat="44.81664" lon="6.19768">
        <ele>1113.8</ele>
        <time>2024-08-13T08:15:22Z</time>
      </trkpt>
      <trkpt lat="44.81663" lon="6.19764">
        <ele>1113.8</ele>
        <time>2024-08-13T08:15:23Z</time>
      </trkpt>
      <trkpt lat="44.81663" lon="6.19762">
        <ele>1114</ele>
        <time>2024-08-13T08:15:24Z</time>
      </trkpt>
      <trkpt lat="44.81663" lon="6.19762">
        <ele>1114.2</ele>
        <time>2024-08-13T08:15:25Z</time>
      </trkpt>
      <trkpt lat="44.81662" lon="6.19759">
        <ele>1114.4</ele>
        <time>2024-08-13T08:15:26Z</time>
      </trkpt>
      <trkpt lat="44.81662" lon="6.19759">
        <ele>1114.6</ele>
        <time>2024-08-13T08:15:27Z</time>
      </trkpt>
      <trkpt lat="44.81662" lon="6.19756">
        <ele>1114.8</ele>
        <time>2024-08-13T08:15:28Z</time>
      </trkpt>
      <trkpt lat="44.81662" lon="6.19756">
        <ele>1115.2</ele>
        <time>2024-08-13T08:15:29Z</time>
      </trkpt>
      <trkpt lat="44.81663" lon="6.19753">
        <ele>1115.2</ele>
        <time>2024-08-13T08:15:30Z</time>
      </trkpt>
      <trkpt lat="44.81663" lon="6.19753">
        <ele>1115.4</ele>
        <time>2024-08-13T08:15:31Z</time>
      </trkpt>
      <trkpt lat="44.81663" lon="6.19748">
        <ele>1115.6</ele>
        <time>2024-08-13T08:15:32Z</time>
      </trkpt>
      <trkpt lat="44.81663" lon="6.19748">
        <ele>1115.8</ele>
        <time>2024-08-13T08:15:33Z</time>
      </trkpt>
      <trkpt lat="44.81663" lon="6.19744">
        <ele>1115.8</ele>
        <time>2024-08-13T08:15:34Z</time>
      </trkpt>
      <trkpt lat="44.81663" lon="6.19744">
        <ele>1115.8</ele>
        <time>2024-08-13T08:15:35Z</time>
      </trkpt>
      <trkpt lat="44.81663" lon="6.1974">
        <ele>1115.8</ele>
        <time>2024-08-13T08:15:36Z</time>
      </trkpt>
      <trkpt lat="44.81663" lon="6.1974">
        <ele>1115.8</ele>
        <time>2024-08-13T08:15:37Z</time>
      </trkpt>
      <trkpt lat="44.81663" lon="6.19736">
        <ele>1115.8</ele>
        <time>2024-08-13T08:15:38Z</time>
      </trkpt>
      <trkpt lat="44.81663" lon="6.19736">
        <ele>1116.4</ele>
        <time>2024-08-13T08:15:39Z</time>
      </trkpt>
      <trkpt lat="44.81662" lon="6.19733">
        <ele>1116.4</ele>
        <time>2024-08-13T08:15:40Z</time>
      </trkpt>
      <trkpt lat="44.81662" lon="6.19733">
        <ele>1116.6</ele>
        <time>2024-08-13T08:15:41Z</time>
      </trkpt>
      <trkpt lat="44.81663" lon="6.19729">
        <ele>1116.8</ele>
        <time>2024-08-13T08:15:42Z</time>
      </trkpt>
      <trkpt lat="44.81663" lon="6.19729">
        <ele>1117</ele>
        <time>2024-08-13T08:15:43Z</time>
      </trkpt>
      <trkpt lat="44.81662" lon="6.19726">
        <ele>1117</ele>
        <time>2024-08-13T08:15:44Z</time>
      </trkpt>
      <trkpt lat="44.81662" lon="6.19726">
        <ele>1117.2</ele>
        <time>2024-08-13T08:15:45Z</time>
      </trkpt>
      <trkpt lat="44.81662" lon="6.19722">
        <ele>1117.2</ele>
        <time>2024-08-13T08:15:46Z</time>
      </trkpt>
      <trkpt lat="44.81662" lon="6.19722">
        <ele>1117.6</ele>
        <time>2024-08-13T08:15:47Z</time>
      </trkpt>
      <trkpt lat="44.8166" lon="6.19718">
        <ele>1117.6</ele>
        <time>2024-08-13T08:15:48Z</time>
      </trkpt>
      <trkpt lat="44.8166" lon="6.19718">
        <ele>1117.8</ele>
        <time>2024-08-13T08:15:49Z</time>
      </trkpt>
      <trkpt lat="44.8166" lon="6.19715">
        <ele>1118</ele>
        <time>2024-08-13T08:15:50Z</time>
      </trkpt>
      <trkpt lat="44.8166" lon="6.19715">
        <ele>1118.2</ele>
        <time>2024-08-13T08:15:51Z</time>
      </trkpt>
      <trkpt lat="44.81659" lon="6.19712">
        <ele>1118.2</ele>
        <time>2024-08-13T08:15:52Z</time>
      </trkpt>
      <trkpt lat="44.81659" lon="6.19712">
        <ele>1118.2</ele>
        <time>2024-08-13T08:15:53Z</time>
      </trkpt>
      <trkpt lat="44.81659" lon="6.19712">
        <ele>1118.2</ele>
        <time>2024-08-13T08:15:54Z</time>
      </trkpt>
      <trkpt lat="44.81659" lon="6.19708">
        <ele>1118.2</ele>
        <time>2024-08-13T08:15:55Z</time>
      </trkpt>
      <trkpt lat="44.81659" lon="6.19708">
        <ele>1118.2</ele>
        <time>2024-08-13T08:15:56Z</time>
      </trkpt>
      <trkpt lat="44.81659" lon="6.19705">
        <ele>1118.2</ele>
        <time>2024-08-13T08:15:57Z</time>
      </trkpt>
      <trkpt lat="44.81659" lon="6.19705">
        <ele>1118.2</ele>
        <time>2024-08-13T08:15:58Z</time>
      </trkpt>
      <trkpt lat="44.81659" lon="6.19702">
        <ele>1118.2</ele>
        <time>2024-08-13T08:15:59Z</time>
      </trkpt>
      <trkpt lat="44.81659" lon="6.19702">
        <ele>1118.4</ele>
        <time>2024-08-13T08:16:00Z</time>
      </trkpt>
      <trkpt lat="44.81658" lon="6.19699">
        <ele>1118.4</ele>
        <time>2024-08-13T08:16:01Z</time>
      </trkpt>
      <trkpt lat="44.81658" lon="6.19699">
        <ele>1118.4</ele>
        <time>2024-08-13T08:16:02Z</time>
      </trkpt>
      <trkpt lat="44.81657" lon="6.19695">
        <ele>1118.4</ele>
        <time>2024-08-13T08:16:03Z</time>
      </trkpt>
      <trkpt lat="44.81657" lon="6.19692">
        <ele>1118.4</ele>
        <time>2024-08-13T08:16:04Z</time>
      </trkpt>
      <trkpt lat="44.81657" lon="6.19689">
        <ele>1118.4</ele>
        <time>2024-08-13T08:16:05Z</time>
      </trkpt>
      <trkpt lat="44.81657" lon="6.19686">
        <ele>1118.4</ele>
        <time>2024-08-13T08:16:06Z</time>
      </trkpt>
      <trkpt lat="44.81657" lon="6.19684">
        <ele>1118.6</ele>
        <time>2024-08-13T08:16:07Z</time>
      </trkpt>
      <trkpt lat="44.81657" lon="6.19684">
        <ele>1118.6</ele>
        <time>2024-08-13T08:16:08Z</time>
      </trkpt>
      <trkpt lat="44.81657" lon="6.1968">
        <ele>1118.6</ele>
        <time>2024-08-13T08:16:09Z</time>
      </trkpt>
      <trkpt lat="44.81657" lon="6.1968">
        <ele>1118.4</ele>
        <time>2024-08-13T08:16:10Z</time>
      </trkpt>
      <trkpt lat="44.81657" lon="6.19677">
        <ele>1118.2</ele>
        <time>2024-08-13T08:16:11Z</time>
      </trkpt>
      <trkpt lat="44.81657" lon="6.19677">
        <ele>1118.2</ele>
        <time>2024-08-13T08:16:12Z</time>
      </trkpt>
      <trkpt lat="44.81655" lon="6.19672">
        <ele>1118</ele>
        <time>2024-08-13T08:16:13Z</time>
      </trkpt>
      <trkpt lat="44.81655" lon="6.19672">
        <ele>1118</ele>
        <time>2024-08-13T08:16:14Z</time>
      </trkpt>
      <trkpt lat="44.81654" lon="6.19668">
        <ele>1117.8</ele>
        <time>2024-08-13T08:16:15Z</time>
      </trkpt>
      <trkpt lat="44.81654" lon="6.19668">
        <ele>1117.8</ele>
        <time>2024-08-13T08:16:16Z</time>
      </trkpt>
      <trkpt lat="44.81654" lon="6.19664">
        <ele>1117.8</ele>
        <time>2024-08-13T08:16:17Z</time>
      </trkpt>
      <trkpt lat="44.81654" lon="6.19664">
        <ele>1117.8</ele>
        <time>2024-08-13T08:16:18Z</time>
      </trkpt>
      <trkpt lat="44.81653" lon="6.19661">
        <ele>1118</ele>
        <time>2024-08-13T08:16:19Z</time>
      </trkpt>
      <trkpt lat="44.81653" lon="6.19661">
        <ele>1118</ele>
        <time>2024-08-13T08:16:20Z</time>
      </trkpt>
      <trkpt lat="44.81653" lon="6.19656">
        <ele>1117.8</ele>
        <time>2024-08-13T08:16:21Z</time>
      </trkpt>
      <trkpt lat="44.81653" lon="6.19656">
        <ele>1117.6</ele>
        <time>2024-08-13T08:16:22Z</time>
      </trkpt>
      <trkpt lat="44.81653" lon="6.19653">
        <ele>1117.6</ele>
        <time>2024-08-13T08:16:23Z</time>
      </trkpt>
      <trkpt lat="44.81653" lon="6.19653">
        <ele>1117.4</ele>
        <time>2024-08-13T08:16:24Z</time>
      </trkpt>
      <trkpt lat="44.81652" lon="6.19649">
        <ele>1117.4</ele>
        <time>2024-08-13T08:16:25Z</time>
      </trkpt>
      <trkpt lat="44.81651" lon="6.19646">
        <ele>1117.4</ele>
        <time>2024-08-13T08:16:26Z</time>
      </trkpt>
      <trkpt lat="44.81651" lon="6.19646">
        <ele>1117.4</ele>
        <time>2024-08-13T08:16:27Z</time>
      </trkpt>
      <trkpt lat="44.81651" lon="6.19642">
        <ele>1117.4</ele>
        <time>2024-08-13T08:16:28Z</time>
      </trkpt>
      <trkpt lat="44.81651" lon="6.19642">
        <ele>1117.4</ele>
        <time>2024-08-13T08:16:29Z</time>
      </trkpt>
      <trkpt lat="44.8165" lon="6.19638">
        <ele>1117.4</ele>
        <time>2024-08-13T08:16:30Z</time>
      </trkpt>
      <trkpt lat="44.8165" lon="6.19638">
        <ele>1117.4</ele>
        <time>2024-08-13T08:16:31Z</time>
      </trkpt>
      <trkpt lat="44.8165" lon="6.19638">
        <ele>1117.6</ele>
        <time>2024-08-13T08:16:32Z</time>
      </trkpt>
      <trkpt lat="44.81649" lon="6.19635">
        <ele>1117.6</ele>
        <time>2024-08-13T08:16:33Z</time>
      </trkpt>
      <trkpt lat="44.81649" lon="6.19635">
        <ele>1117.6</ele>
        <time>2024-08-13T08:16:34Z</time>
      </trkpt>
      <trkpt lat="44.81649" lon="6.19635">
        <ele>1117.6</ele>
        <time>2024-08-13T08:16:35Z</time>
      </trkpt>
      <trkpt lat="44.81648" lon="6.19632">
        <ele>1117.6</ele>
        <time>2024-08-13T08:16:36Z</time>
      </trkpt>
      <trkpt lat="44.81648" lon="6.19632">
        <ele>1117.6</ele>
        <time>2024-08-13T08:16:37Z</time>
      </trkpt>
      <trkpt lat="44.81648" lon="6.19632">
        <ele>1117.6</ele>
        <time>2024-08-13T08:16:38Z</time>
      </trkpt>
      <trkpt lat="44.81648" lon="6.19629">
        <ele>1117.4</ele>
        <time>2024-08-13T08:16:39Z</time>
      </trkpt>
      <trkpt lat="44.81648" lon="6.19629">
        <ele>1117.2</ele>
        <time>2024-08-13T08:16:40Z</time>
      </trkpt>
      <trkpt lat="44.81648" lon="6.19625">
        <ele>1117</ele>
        <time>2024-08-13T08:16:41Z</time>
      </trkpt>
      <trkpt lat="44.81648" lon="6.19625">
        <ele>1116.8</ele>
        <time>2024-08-13T08:16:42Z</time>
      </trkpt>
      <trkpt lat="44.81648" lon="6.19622">
        <ele>1116.4</ele>
        <time>2024-08-13T08:16:43Z</time>
      </trkpt>
      <trkpt lat="44.81648" lon="6.19622">
        <ele>1115.8</ele>
        <time>2024-08-13T08:16:44Z</time>
      </trkpt>
      <trkpt lat="44.81648" lon="6.19619">
        <ele>1115.8</ele>
        <time>2024-08-13T08:16:45Z</time>
      </trkpt>
      <trkpt lat="44.81649" lon="6.19617">
        <ele>1115.6</ele>
        <time>2024-08-13T08:16:46Z</time>
      </trkpt>
      <trkpt lat="44.81649" lon="6.19617">
        <ele>1115.2</ele>
        <time>2024-08-13T08:16:47Z</time>
      </trkpt>
      <trkpt lat="44.81648" lon="6.19612">
        <ele>1114.8</ele>
        <time>2024-08-13T08:16:48Z</time>
      </trkpt>
      <trkpt lat="44.81648" lon="6.19612">
        <ele>1114.8</ele>
        <time>2024-08-13T08:16:49Z</time>
      </trkpt>
      <trkpt lat="44.81647" lon="6.19608">
        <ele>1114.6</ele>
        <time>2024-08-13T08:16:50Z</time>
      </trkpt>
      <trkpt lat="44.81647" lon="6.19608">
        <ele>1114.6</ele>
        <time>2024-08-13T08:16:51Z</time>
      </trkpt>
      <trkpt lat="44.81647" lon="6.19606">
        <ele>1114.4</ele>
        <time>2024-08-13T08:16:52Z</time>
      </trkpt>
      <trkpt lat="44.81645" lon="6.19605">
        <ele>1114</ele>
        <time>2024-08-13T08:16:53Z</time>
      </trkpt>
      <trkpt lat="44.81642" lon="6.19605">
        <ele>1113.6</ele>
        <time>2024-08-13T08:16:54Z</time>
      </trkpt>
      <trkpt lat="44.81642" lon="6.19605">
        <ele>1113</ele>
        <time>2024-08-13T08:16:55Z</time>
      </trkpt>
      <trkpt lat="44.81639" lon="6.19603">
        <ele>1112.4</ele>
        <time>2024-08-13T08:16:56Z</time>
      </trkpt>
      <trkpt lat="44.81638" lon="6.19601">
        <ele>1112.2</ele>
        <time>2024-08-13T08:16:57Z</time>
      </trkpt>
      <trkpt lat="44.81638" lon="6.19601">
        <ele>1112.2</ele>
        <time>2024-08-13T08:16:58Z</time>
      </trkpt>
      <trkpt lat="44.81638" lon="6.19597">
        <ele>1111.8</ele>
        <time>2024-08-13T08:16:59Z</time>
      </trkpt>
      <trkpt lat="44.81638" lon="6.19597">
        <ele>1111.2</ele>
        <time>2024-08-13T08:17:00Z</time>
      </trkpt>
      <trkpt lat="44.81641" lon="6.19593">
        <ele>1111</ele>
        <time>2024-08-13T08:17:01Z</time>
      </trkpt>
      <trkpt lat="44.81643" lon="6.19591">
        <ele>1110.8</ele>
        <time>2024-08-13T08:17:02Z</time>
      </trkpt>
      <trkpt lat="44.81643" lon="6.19591">
        <ele>1110.8</ele>
        <time>2024-08-13T08:17:03Z</time>
      </trkpt>
      <trkpt lat="44.81643" lon="6.19591">
        <ele>1110.8</ele>
        <time>2024-08-13T08:17:04Z</time>
      </trkpt>
      <trkpt lat="44.81643" lon="6.19591">
        <ele>1110.6</ele>
        <time>2024-08-13T08:17:05Z</time>
      </trkpt>
      <trkpt lat="44.81643" lon="6.19591">
        <ele>1110.6</ele>
        <time>2024-08-13T08:17:06Z</time>
      </trkpt>
      <trkpt lat="44.81643" lon="6.19591">
        <ele>1110.6</ele>
        <time>2024-08-13T08:17:07Z</time>
      </trkpt>
      <trkpt lat="44.81643" lon="6.19591">
        <ele>1110.6</ele>
        <time>2024-08-13T08:17:08Z</time>
      </trkpt>
      <trkpt lat="44.81643" lon="6.19591">
        <ele>1110.6</ele>
        <time>2024-08-13T08:17:09Z</time>
      </trkpt>
      <trkpt lat="44.81644" lon="6.19588">
        <ele>1110.6</ele>
        <time>2024-08-13T08:17:10Z</time>
      </trkpt>
      <trkpt lat="44.81644" lon="6.19588">
        <ele>1110.6</ele>
        <time>2024-08-13T08:17:11Z</time>
      </trkpt>
      <trkpt lat="44.81644" lon="6.19588">
        <ele>1110.6</ele>
        <time>2024-08-13T08:17:12Z</time>
      </trkpt>
      <trkpt lat="44.81646" lon="6.19589">
        <ele>1110.6</ele>
        <time>2024-08-13T08:17:13Z</time>
      </trkpt>
      <trkpt lat="44.81648" lon="6.19588">
        <ele>1110.6</ele>
        <time>2024-08-13T08:17:14Z</time>
      </trkpt>
      <trkpt lat="44.81648" lon="6.19588">
        <ele>1110.4</ele>
        <time>2024-08-13T08:17:15Z</time>
      </trkpt>
      <trkpt lat="44.8165" lon="6.19587">
        <ele>1110.4</ele>
        <time>2024-08-13T08:17:16Z</time>
      </trkpt>
      <trkpt lat="44.81652" lon="6.19584">
        <ele>1110.4</ele>
        <time>2024-08-13T08:17:17Z</time>
      </trkpt>
      <trkpt lat="44.81652" lon="6.19584">
        <ele>1110.4</ele>
        <time>2024-08-13T08:17:18Z</time>
      </trkpt>
      <trkpt lat="44.81653" lon="6.19579">
        <ele>1110</ele>
        <time>2024-08-13T08:17:19Z</time>
      </trkpt>
      <trkpt lat="44.81653" lon="6.19576">
        <ele>1110</ele>
        <time>2024-08-13T08:17:20Z</time>
      </trkpt>
      <trkpt lat="44.81653" lon="6.19576">
        <ele>1110</ele>
        <time>2024-08-13T08:17:21Z</time>
      </trkpt>
      <trkpt lat="44.81653" lon="6.19576">
        <ele>1110</ele>
        <time>2024-08-13T08:17:22Z</time>
      </trkpt>
      <trkpt lat="44.81655" lon="6.19573">
        <ele>1110</ele>
        <time>2024-08-13T08:17:23Z</time>
      </trkpt>
      <trkpt lat="44.81655" lon="6.19573">
        <ele>1109.8</ele>
        <time>2024-08-13T08:17:24Z</time>
      </trkpt>
      <trkpt lat="44.81657" lon="6.19572">
        <ele>1109.8</ele>
        <time>2024-08-13T08:17:25Z</time>
      </trkpt>
      <trkpt lat="44.81657" lon="6.19572">
        <ele>1109.8</ele>
        <time>2024-08-13T08:17:26Z</time>
      </trkpt>
      <trkpt lat="44.81657" lon="6.19572">
        <ele>1109.6</ele>
        <time>2024-08-13T08:17:27Z</time>
      </trkpt>
      <trkpt lat="44.81657" lon="6.19572">
        <ele>1109.6</ele>
        <time>2024-08-13T08:17:28Z</time>
      </trkpt>
      <trkpt lat="44.81659" lon="6.19574">
        <ele>1109.6</ele>
        <time>2024-08-13T08:17:29Z</time>
      </trkpt>
      <trkpt lat="44.81659" lon="6.19574">
        <ele>1109.6</ele>
        <time>2024-08-13T08:17:30Z</time>
      </trkpt>
      <trkpt lat="44.81659" lon="6.19574">
        <ele>1109.4</ele>
        <time>2024-08-13T08:17:31Z</time>
      </trkpt>
      <trkpt lat="44.81659" lon="6.19574">
        <ele>1109.2</ele>
        <time>2024-08-13T08:17:32Z</time>
      </trkpt>
      <trkpt lat="44.81659" lon="6.19574">
        <ele>1109.2</ele>
        <time>2024-08-13T08:17:33Z</time>
      </trkpt>
      <trkpt lat="44.81659" lon="6.19574">
        <ele>1109</ele>
        <time>2024-08-13T08:17:34Z</time>
      </trkpt>
      <trkpt lat="44.81659" lon="6.19574">
        <ele>1109</ele>
        <time>2024-08-13T08:17:35Z</time>
      </trkpt>
      <trkpt lat="44.81659" lon="6.19574">
        <ele>1108.8</ele>
        <time>2024-08-13T08:17:36Z</time>
      </trkpt>
      <trkpt lat="44.81659" lon="6.19574">
        <ele>1108.8</ele>
        <time>2024-08-13T08:17:37Z</time>
      </trkpt>
      <trkpt lat="44.81659" lon="6.19574">
        <ele>1108.8</ele>
        <time>2024-08-13T08:17:38Z</time>
      </trkpt>
      <trkpt lat="44.81659" lon="6.19574">
        <ele>1109</ele>
        <time>2024-08-13T08:17:39Z</time>
      </trkpt>
      <trkpt lat="44.81659" lon="6.19574">
        <ele>1109.2</ele>
        <time>2024-08-13T08:17:40Z</time>
      </trkpt>
      <trkpt lat="44.81659" lon="6.19574">
        <ele>1109.2</ele>
        <time>2024-08-13T08:17:41Z</time>
      </trkpt>
      <trkpt lat="44.81659" lon="6.19574">
        <ele>1109.4</ele>
        <time>2024-08-13T08:17:42Z</time>
      </trkpt>
      <trkpt lat="44.81659" lon="6.19574">
        <ele>1109.4</ele>
        <time>2024-08-13T08:17:43Z</time>
      </trkpt>
      <trkpt lat="44.81659" lon="6.19574">
        <ele>1109.8</ele>
        <time>2024-08-13T08:17:44Z</time>
      </trkpt>
      <trkpt lat="44.81659" lon="6.19574">
        <ele>1110.2</ele>
        <time>2024-08-13T08:17:45Z</time>
      </trkpt>
      <trkpt lat="44.81659" lon="6.19574">
        <ele>1110.2</ele>
        <time>2024-08-13T08:17:46Z</time>
      </trkpt>
      <trkpt lat="44.81659" lon="6.19574">
        <ele>1110</ele>
        <time>2024-08-13T08:17:47Z</time>
      </trkpt>
      <trkpt lat="44.81659" lon="6.19574">
        <ele>1110</ele>
        <time>2024-08-13T08:17:48Z</time>
      </trkpt>
      <trkpt lat="44.81659" lon="6.19574">
        <ele>1110</ele>
        <time>2024-08-13T08:17:49Z</time>
      </trkpt>
      <trkpt lat="44.81659" lon="6.19574">
        <ele>1110</ele>
        <time>2024-08-13T08:17:50Z</time>
      </trkpt>
      <trkpt lat="44.81659" lon="6.19574">
        <ele>1110</ele>
        <time>2024-08-13T08:17:51Z</time>
      </trkpt>
      <trkpt lat="44.81659" lon="6.19574">
        <ele>1110.2</ele>
        <time>2024-08-13T08:17:52Z</time>
      </trkpt>
      <trkpt lat="44.81659" lon="6.19574">
        <ele>1110.2</ele>
        <time>2024-08-13T08:17:53Z</time>
      </trkpt>
      <trkpt lat="44.81659" lon="6.19574">
        <ele>1110</ele>
        <time>2024-08-13T08:17:54Z</time>
      </trkpt>
      <trkpt lat="44.81659" lon="6.19574">
        <ele>1109.8</ele>
        <time>2024-08-13T08:17:55Z</time>
      </trkpt>
      <trkpt lat="44.81659" lon="6.19574">
        <ele>1109.8</ele>
        <time>2024-08-13T08:17:56Z</time>
      </trkpt>
      <trkpt lat="44.81659" lon="6.19574">
        <ele>1109.8</ele>
        <time>2024-08-13T08:17:57Z</time>
      </trkpt>
      <trkpt lat="44.81659" lon="6.19574">
        <ele>1109.8</ele>
        <time>2024-08-13T08:17:58Z</time>
      </trkpt>
      <trkpt lat="44.81659" lon="6.19574">
        <ele>1109.8</ele>
        <time>2024-08-13T08:17:59Z</time>
      </trkpt>
      <trkpt lat="44.81659" lon="6.19574">
        <ele>1109.6</ele>
        <time>2024-08-13T08:18:00Z</time>
      </trkpt>
      <trkpt lat="44.81659" lon="6.19574">
        <ele>1109.6</ele>
        <time>2024-08-13T08:18:01Z</time>
      </trkpt>
      <trkpt lat="44.81659" lon="6.19574">
        <ele>1109.2</ele>
        <time>2024-08-13T08:18:02Z</time>
      </trkpt>
      <trkpt lat="44.81659" lon="6.19574">
        <ele>1109.2</ele>
        <time>2024-08-13T08:18:03Z</time>
      </trkpt>
      <trkpt lat="44.81659" lon="6.19574">
        <ele>1109.2</ele>
        <time>2024-08-13T08:18:04Z</time>
      </trkpt>
      <trkpt lat="44.81659" lon="6.19574">
        <ele>1109</ele>
        <time>2024-08-13T08:18:05Z</time>
      </trkpt>
      <trkpt lat="44.81659" lon="6.19574">
        <ele>1108.6</ele>
        <time>2024-08-13T08:18:06Z</time>
      </trkpt>
      <trkpt lat="44.81658" lon="6.19571">
        <ele>1108.6</ele>
        <time>2024-08-13T08:18:07Z</time>
      </trkpt>
      <trkpt lat="44.81658" lon="6.19571">
        <ele>1108.6</ele>
        <time>2024-08-13T08:18:08Z</time>
      </trkpt>
      <trkpt lat="44.81657" lon="6.19566">
        <ele>1108.6</ele>
        <time>2024-08-13T08:18:09Z</time>
      </trkpt>
      <trkpt lat="44.81657" lon="6.19566">
        <ele>1108.2</ele>
        <time>2024-08-13T08:18:10Z</time>
      </trkpt>
      <trkpt lat="44.81657" lon="6.19562">
        <ele>1108</ele>
        <time>2024-08-13T08:18:11Z</time>
      </trkpt>
      <trkpt lat="44.81657" lon="6.19562">
        <ele>1108</ele>
        <time>2024-08-13T08:18:12Z</time>
      </trkpt>
      <trkpt lat="44.81657" lon="6.19559">
        <ele>1107.8</ele>
        <time>2024-08-13T08:18:13Z</time>
      </trkpt>
      <trkpt lat="44.81657" lon="6.19559">
        <ele>1107.6</ele>
        <time>2024-08-13T08:18:14Z</time>
      </trkpt>
      <trkpt lat="44.81657" lon="6.19559">
        <ele>1107.6</ele>
        <time>2024-08-13T08:18:15Z</time>
      </trkpt>
      <trkpt lat="44.81657" lon="6.19559">
        <ele>1107.6</ele>
        <time>2024-08-13T08:18:16Z</time>
      </trkpt>
      <trkpt lat="44.81657" lon="6.19559">
        <ele>1107.6</ele>
        <time>2024-08-13T08:18:17Z</time>
      </trkpt>
      <trkpt lat="44.81657" lon="6.19559">
        <ele>1107.8</ele>
        <time>2024-08-13T08:18:18Z</time>
      </trkpt>
      <trkpt lat="44.81657" lon="6.19559">
        <ele>1108</ele>
        <time>2024-08-13T08:18:19Z</time>
      </trkpt>
      <trkpt lat="44.81657" lon="6.19559">
        <ele>1108</ele>
        <time>2024-08-13T08:18:20Z</time>
      </trkpt>
      <trkpt lat="44.81657" lon="6.19559">
        <ele>1108</ele>
        <time>2024-08-13T08:18:21Z</time>
      </trkpt>
      <trkpt lat="44.81657" lon="6.19559">
        <ele>1108</ele>
        <time>2024-08-13T08:18:22Z</time>
      </trkpt>
      <trkpt lat="44.81657" lon="6.19559">
        <ele>1108</ele>
        <time>2024-08-13T08:18:23Z</time>
      </trkpt>
      <trkpt lat="44.81657" lon="6.19559">
        <ele>1108.2</ele>
        <time>2024-08-13T08:18:24Z</time>
      </trkpt>
      <trkpt lat="44.81657" lon="6.19559">
        <ele>1108.4</ele>
        <time>2024-08-13T08:18:25Z</time>
      </trkpt>
      <trkpt lat="44.81657" lon="6.19559">
        <ele>1108.4</ele>
        <time>2024-08-13T08:18:26Z</time>
      </trkpt>
      <trkpt lat="44.81657" lon="6.19559">
        <ele>1108.4</ele>
        <time>2024-08-13T08:18:27Z</time>
      </trkpt>
      <trkpt lat="44.81657" lon="6.19559">
        <ele>1108.2</ele>
        <time>2024-08-13T08:18:28Z</time>
      </trkpt>
      <trkpt lat="44.81657" lon="6.19559">
        <ele>1108.2</ele>
        <time>2024-08-13T08:18:29Z</time>
      </trkpt>
      <trkpt lat="44.81657" lon="6.19559">
        <ele>1108.4</ele>
        <time>2024-08-13T08:18:30Z</time>
      </trkpt>
      <trkpt lat="44.81657" lon="6.19559">
        <ele>1108.6</ele>
        <time>2024-08-13T08:18:31Z</time>
      </trkpt>
      <trkpt lat="44.81657" lon="6.19559">
        <ele>1108.6</ele>
        <time>2024-08-13T08:18:32Z</time>
      </trkpt>
      <trkpt lat="44.81657" lon="6.19559">
        <ele>1108.4</ele>
        <time>2024-08-13T08:18:33Z</time>
      </trkpt>
      <trkpt lat="44.81657" lon="6.19559">
        <ele>1108.4</ele>
        <time>2024-08-13T08:18:34Z</time>
      </trkpt>
      <trkpt lat="44.81657" lon="6.19559">
        <ele>1108</ele>
        <time>2024-08-13T08:18:35Z</time>
      </trkpt>
      <trkpt lat="44.81655" lon="6.19561">
        <ele>1108</ele>
        <time>2024-08-13T08:18:36Z</time>
      </trkpt>
      <trkpt lat="44.81655" lon="6.19561">
        <ele>1107.8</ele>
        <time>2024-08-13T08:18:37Z</time>
      </trkpt>
      <trkpt lat="44.81654" lon="6.19564">
        <ele>1108</ele>
        <time>2024-08-13T08:18:38Z</time>
      </trkpt>
      <trkpt lat="44.81654" lon="6.19564">
        <ele>1108</ele>
        <time>2024-08-13T08:18:39Z</time>
      </trkpt>
      <trkpt lat="44.81653" lon="6.19568">
        <ele>1108</ele>
        <time>2024-08-13T08:18:40Z</time>
      </trkpt>
      <trkpt lat="44.81653" lon="6.19568">
        <ele>1108</ele>
        <time>2024-08-13T08:18:41Z</time>
      </trkpt>
      <trkpt lat="44.81653" lon="6.19568">
        <ele>1108.2</ele>
        <time>2024-08-13T08:18:42Z</time>
      </trkpt>
      <trkpt lat="44.81653" lon="6.19568">
        <ele>1108.2</ele>
        <time>2024-08-13T08:18:43Z</time>
      </trkpt>
      <trkpt lat="44.81653" lon="6.19568">
        <ele>1108.2</ele>
        <time>2024-08-13T08:18:44Z</time>
      </trkpt>
      <trkpt lat="44.81653" lon="6.19568">
        <ele>1108</ele>
        <time>2024-08-13T08:18:45Z</time>
      </trkpt>
      <trkpt lat="44.81653" lon="6.19568">
        <ele>1108</ele>
        <time>2024-08-13T08:18:46Z</time>
      </trkpt>
      <trkpt lat="44.81653" lon="6.19568">
        <ele>1108</ele>
        <time>2024-08-13T08:18:47Z</time>
      </trkpt>
      <trkpt lat="44.81653" lon="6.19568">
        <ele>1108.2</ele>
        <time>2024-08-13T08:18:48Z</time>
      </trkpt>
      <trkpt lat="44.81653" lon="6.19568">
        <ele>1108.2</ele>
        <time>2024-08-13T08:18:49Z</time>
      </trkpt>
      <trkpt lat="44.81653" lon="6.19568">
        <ele>1108.4</ele>
        <time>2024-08-13T08:18:50Z</time>
      </trkpt>
      <trkpt lat="44.81653" lon="6.19568">
        <ele>1108.4</ele>
        <time>2024-08-13T08:18:51Z</time>
      </trkpt>
      <trkpt lat="44.81653" lon="6.19568">
        <ele>1108.2</ele>
        <time>2024-08-13T08:18:52Z</time>
      </trkpt>
      <trkpt lat="44.81653" lon="6.19568">
        <ele>1108.2</ele>
        <time>2024-08-13T08:18:53Z</time>
      </trkpt>
      <trkpt lat="44.81653" lon="6.19568">
        <ele>1108.2</ele>
        <time>2024-08-13T08:18:54Z</time>
      </trkpt>
      <trkpt lat="44.81653" lon="6.19568">
        <ele>1108.2</ele>
        <time>2024-08-13T08:18:55Z</time>
      </trkpt>
      <trkpt lat="44.81653" lon="6.19568">
        <ele>1108.2</ele>
        <time>2024-08-13T08:18:56Z</time>
      </trkpt>
      <trkpt lat="44.81653" lon="6.19568">
        <ele>1108.2</ele>
        <time>2024-08-13T08:18:57Z</time>
      </trkpt>
      <trkpt lat="44.81653" lon="6.19568">
        <ele>1108.2</ele>
        <time>2024-08-13T08:18:58Z</time>
      </trkpt>
      <trkpt lat="44.81653" lon="6.19568">
        <ele>1108.2</ele>
        <time>2024-08-13T08:18:59Z</time>
      </trkpt>
      <trkpt lat="44.81653" lon="6.19568">
        <ele>1108.2</ele>
        <time>2024-08-13T08:19:00Z</time>
      </trkpt>
      <trkpt lat="44.81653" lon="6.19568">
        <ele>1108.2</ele>
        <time>2024-08-13T08:19:01Z</time>
      </trkpt>
      <trkpt lat="44.81653" lon="6.19568">
        <ele>1108</ele>
        <time>2024-08-13T08:19:02Z</time>
      </trkpt>
      <trkpt lat="44.81653" lon="6.19568">
        <ele>1108</ele>
        <time>2024-08-13T08:19:03Z</time>
      </trkpt>
      <trkpt lat="44.81653" lon="6.19568">
        <ele>1108</ele>
        <time>2024-08-13T08:19:04Z</time>
      </trkpt>
      <trkpt lat="44.81653" lon="6.19568">
        <ele>1107.8</ele>
        <time>2024-08-13T08:19:05Z</time>
      </trkpt>
      <trkpt lat="44.81653" lon="6.19568">
        <ele>1108</ele>
        <time>2024-08-13T08:19:06Z</time>
      </trkpt>
      <trkpt lat="44.81653" lon="6.19568">
        <ele>1108</ele>
        <time>2024-08-13T08:19:07Z</time>
      </trkpt>
      <trkpt lat="44.81653" lon="6.19568">
        <ele>1108.2</ele>
        <time>2024-08-13T08:19:08Z</time>
      </trkpt>
      <trkpt lat="44.81653" lon="6.19568">
        <ele>1108.2</ele>
        <time>2024-08-13T08:19:09Z</time>
      </trkpt>
      <trkpt lat="44.81653" lon="6.19568">
        <ele>1108.2</ele>
        <time>2024-08-13T08:19:10Z</time>
      </trkpt>
      <trkpt lat="44.81653" lon="6.19568">
        <ele>1108</ele>
        <time>2024-08-13T08:19:11Z</time>
      </trkpt>
      <trkpt lat="44.81653" lon="6.19568">
        <ele>1108.2</ele>
        <time>2024-08-13T08:19:12Z</time>
      </trkpt>
      <trkpt lat="44.81653" lon="6.19568">
        <ele>1108.2</ele>
        <time>2024-08-13T08:19:13Z</time>
      </trkpt>
      <trkpt lat="44.81653" lon="6.19568">
        <ele>1108.4</ele>
        <time>2024-08-13T08:19:14Z</time>
      </trkpt>
      <trkpt lat="44.81653" lon="6.19568">
        <ele>1108.6</ele>
        <time>2024-08-13T08:19:15Z</time>
      </trkpt>
      <trkpt lat="44.81653" lon="6.19568">
        <ele>1108.6</ele>
        <time>2024-08-13T08:19:16Z</time>
      </trkpt>
      <trkpt lat="44.81653" lon="6.19568">
        <ele>1108.4</ele>
        <time>2024-08-13T08:19:17Z</time>
      </trkpt>
      <trkpt lat="44.81653" lon="6.19568">
        <ele>1108.4</ele>
        <time>2024-08-13T08:19:18Z</time>
      </trkpt>
      <trkpt lat="44.81653" lon="6.19568">
        <ele>1108.2</ele>
        <time>2024-08-13T08:19:19Z</time>
      </trkpt>
      <trkpt lat="44.81653" lon="6.19568">
        <ele>1108.2</ele>
        <time>2024-08-13T08:19:20Z</time>
      </trkpt>
      <trkpt lat="44.81653" lon="6.19568">
        <ele>1108.2</ele>
        <time>2024-08-13T08:19:21Z</time>
      </trkpt>
      <trkpt lat="44.81653" lon="6.19568">
        <ele>1108.2</ele>
        <time>2024-08-13T08:19:22Z</time>
      </trkpt>
      <trkpt lat="44.81653" lon="6.19568">
        <ele>1108</ele>
        <time>2024-08-13T08:19:23Z</time>
      </trkpt>
      <trkpt lat="44.81653" lon="6.19568">
        <ele>1107.8</ele>
        <time>2024-08-13T08:19:24Z</time>
      </trkpt>
      <trkpt lat="44.81653" lon="6.19568">
        <ele>1107.8</ele>
        <time>2024-08-13T08:19:25Z</time>
      </trkpt>
      <trkpt lat="44.81653" lon="6.19568">
        <ele>1108</ele>
        <time>2024-08-13T08:19:26Z</time>
      </trkpt>
      <trkpt lat="44.81653" lon="6.19568">
        <ele>1108</ele>
        <time>2024-08-13T08:19:27Z</time>
      </trkpt>
      <trkpt lat="44.81653" lon="6.19568">
        <ele>1108</ele>
        <time>2024-08-13T08:19:28Z</time>
      </trkpt>
      <trkpt lat="44.81653" lon="6.19568">
        <ele>1107.8</ele>
        <time>2024-08-13T08:19:29Z</time>
      </trkpt>
      <trkpt lat="44.81653" lon="6.19568">
        <ele>1108</ele>
        <time>2024-08-13T08:19:30Z</time>
      </trkpt>
      <trkpt lat="44.81653" lon="6.19568">
        <ele>1108</ele>
        <time>2024-08-13T08:19:31Z</time>
      </trkpt>
      <trkpt lat="44.81653" lon="6.19568">
        <ele>1108</ele>
        <time>2024-08-13T08:19:32Z</time>
      </trkpt>
      <trkpt lat="44.81653" lon="6.19568">
        <ele>1107.8</ele>
        <time>2024-08-13T08:19:33Z</time>
      </trkpt>
      <trkpt lat="44.81653" lon="6.19568">
        <ele>1107.8</ele>
        <time>2024-08-13T08:19:34Z</time>
      </trkpt>
      <trkpt lat="44.81653" lon="6.19568">
        <ele>1108</ele>
        <time>2024-08-13T08:19:35Z</time>
      </trkpt>
      <trkpt lat="44.81653" lon="6.19568">
        <ele>1108</ele>
        <time>2024-08-13T08:19:36Z</time>
      </trkpt>
      <trkpt lat="44.81653" lon="6.19568">
        <ele>1108</ele>
        <time>2024-08-13T08:19:37Z</time>
      </trkpt>
      <trkpt lat="44.81653" lon="6.19568">
        <ele>1108</ele>
        <time>2024-08-13T08:19:38Z</time>
      </trkpt>
      <trkpt lat="44.81653" lon="6.19568">
        <ele>1108</ele>
        <time>2024-08-13T08:19:39Z</time>
      </trkpt>
      <trkpt lat="44.81653" lon="6.19568">
        <ele>1107.8</ele>
        <time>2024-08-13T08:19:40Z</time>
      </trkpt>
      <trkpt lat="44.81653" lon="6.19568">
        <ele>1107.8</ele>
        <time>2024-08-13T08:19:41Z</time>
      </trkpt>
      <trkpt lat="44.81653" lon="6.19568">
        <ele>1107.8</ele>
        <time>2024-08-13T08:19:42Z</time>
      </trkpt>
      <trkpt lat="44.81653" lon="6.19568">
        <ele>1107.8</ele>
        <time>2024-08-13T08:19:43Z</time>
      </trkpt>
      <trkpt lat="44.81653" lon="6.19568">
        <ele>1107.8</ele>
        <time>2024-08-13T08:19:44Z</time>
      </trkpt>
      <trkpt lat="44.81653" lon="6.19568">
        <ele>1107.8</ele>
        <time>2024-08-13T08:19:45Z</time>
      </trkpt>
      <trkpt lat="44.81653" lon="6.19568">
        <ele>1108</ele>
        <time>2024-08-13T08:19:46Z</time>
      </trkpt>
      <trkpt lat="44.81653" lon="6.19568">
        <ele>1108</ele>
        <time>2024-08-13T08:19:47Z</time>
      </trkpt>
      <trkpt lat="44.81653" lon="6.19568">
        <ele>1108</ele>
        <time>2024-08-13T08:19:48Z</time>
      </trkpt>
      <trkpt lat="44.81653" lon="6.19568">
        <ele>1107.8</ele>
        <time>2024-08-13T08:19:49Z</time>
      </trkpt>
      <trkpt lat="44.81653" lon="6.19568">
        <ele>1107.6</ele>
        <time>2024-08-13T08:19:50Z</time>
      </trkpt>
      <trkpt lat="44.81653" lon="6.19568">
        <ele>1107.6</ele>
        <time>2024-08-13T08:19:51Z</time>
      </trkpt>
      <trkpt lat="44.81653" lon="6.19568">
        <ele>1107.6</ele>
        <time>2024-08-13T08:19:52Z</time>
      </trkpt>
      <trkpt lat="44.81653" lon="6.19568">
        <ele>1107.6</ele>
        <time>2024-08-13T08:19:53Z</time>
      </trkpt>
      <trkpt lat="44.81653" lon="6.19568">
        <ele>1107.6</ele>
        <time>2024-08-13T08:19:54Z</time>
      </trkpt>
      <trkpt lat="44.81653" lon="6.19568">
        <ele>1107.6</ele>
        <time>2024-08-13T08:19:55Z</time>
      </trkpt>
      <trkpt lat="44.81653" lon="6.19568">
        <ele>1107.6</ele>
        <time>2024-08-13T08:19:56Z</time>
      </trkpt>
      <trkpt lat="44.81653" lon="6.19568">
        <ele>1107.8</ele>
        <time>2024-08-13T08:19:57Z</time>
      </trkpt>
      <trkpt lat="44.81653" lon="6.19568">
        <ele>1107.8</ele>
        <time>2024-08-13T08:19:58Z</time>
      </trkpt>
      <trkpt lat="44.81653" lon="6.19568">
        <ele>1107.8</ele>
        <time>2024-08-13T08:19:59Z</time>
      </trkpt>
      <trkpt lat="44.81653" lon="6.19568">
        <ele>1107.8</ele>
        <time>2024-08-13T08:20:00Z</time>
      </trkpt>
      <trkpt lat="44.81653" lon="6.19568">
        <ele>1108.2</ele>
        <time>2024-08-13T08:20:01Z</time>
      </trkpt>
      <trkpt lat="44.81653" lon="6.19568">
        <ele>1108</ele>
        <time>2024-08-13T08:20:02Z</time>
      </trkpt>
      <trkpt lat="44.81653" lon="6.19568">
        <ele>1108</ele>
        <time>2024-08-13T08:20:03Z</time>
      </trkpt>
      <trkpt lat="44.81653" lon="6.19568">
        <ele>1108</ele>
        <time>2024-08-13T08:20:04Z</time>
      </trkpt>
      <trkpt lat="44.81653" lon="6.19568">
        <ele>1108</ele>
        <time>2024-08-13T08:20:05Z</time>
      </trkpt>
      <trkpt lat="44.81653" lon="6.19568">
        <ele>1108</ele>
        <time>2024-08-13T08:20:06Z</time>
      </trkpt>
      <trkpt lat="44.81653" lon="6.19568">
        <ele>1108.4</ele>
        <time>2024-08-13T08:20:07Z</time>
      </trkpt>
      <trkpt lat="44.81653" lon="6.19568">
        <ele>1108.4</ele>
        <time>2024-08-13T08:20:08Z</time>
      </trkpt>
      <trkpt lat="44.81653" lon="6.19568">
        <ele>1108.2</ele>
        <time>2024-08-13T08:20:09Z</time>
      </trkpt>
      <trkpt lat="44.81653" lon="6.19568">
        <ele>1108.2</ele>
        <time>2024-08-13T08:20:10Z</time>
      </trkpt>
      <trkpt lat="44.81653" lon="6.19568">
        <ele>1108.2</ele>
        <time>2024-08-13T08:20:11Z</time>
      </trkpt>
      <trkpt lat="44.81653" lon="6.19568">
        <ele>1108.2</ele>
        <time>2024-08-13T08:20:12Z</time>
      </trkpt>
      <trkpt lat="44.81653" lon="6.19568">
        <ele>1108.2</ele>
        <time>2024-08-13T08:20:13Z</time>
      </trkpt>
      <trkpt lat="44.81653" lon="6.19568">
        <ele>1108.2</ele>
        <time>2024-08-13T08:20:14Z</time>
      </trkpt>
      <trkpt lat="44.81653" lon="6.19568">
        <ele>1108.4</ele>
        <time>2024-08-13T08:20:15Z</time>
      </trkpt>
      <trkpt lat="44.81653" lon="6.19568">
        <ele>1108.4</ele>
        <time>2024-08-13T08:20:16Z</time>
      </trkpt>
      <trkpt lat="44.81653" lon="6.19568">
        <ele>1108.4</ele>
        <time>2024-08-13T08:20:17Z</time>
      </trkpt>
      <trkpt lat="44.81653" lon="6.19568">
        <ele>1108</ele>
        <time>2024-08-13T08:20:18Z</time>
      </trkpt>
      <trkpt lat="44.81653" lon="6.19568">
        <ele>1108</ele>
        <time>2024-08-13T08:20:19Z</time>
      </trkpt>
      <trkpt lat="44.81653" lon="6.19568">
        <ele>1108.2</ele>
        <time>2024-08-13T08:20:20Z</time>
      </trkpt>
      <trkpt lat="44.81653" lon="6.19568">
        <ele>1108.4</ele>
        <time>2024-08-13T08:20:21Z</time>
      </trkpt>
      <trkpt lat="44.81655" lon="6.1957">
        <ele>1108.4</ele>
        <time>2024-08-13T08:20:22Z</time>
      </trkpt>
      <trkpt lat="44.81658" lon="6.19572">
        <ele>1108.4</ele>
        <time>2024-08-13T08:20:23Z</time>
      </trkpt>
      <trkpt lat="44.8166" lon="6.19573">
        <ele>1108</ele>
        <time>2024-08-13T08:20:24Z</time>
      </trkpt>
      <trkpt lat="44.81662" lon="6.19575">
        <ele>1108</ele>
        <time>2024-08-13T08:20:25Z</time>
      </trkpt>
      <trkpt lat="44.81662" lon="6.19575">
        <ele>1107.6</ele>
        <time>2024-08-13T08:20:26Z</time>
      </trkpt>
      <trkpt lat="44.81662" lon="6.19575">
        <ele>1107.6</ele>
        <time>2024-08-13T08:20:27Z</time>
      </trkpt>
      <trkpt lat="44.81662" lon="6.19575">
        <ele>1107.6</ele>
        <time>2024-08-13T08:20:28Z</time>
      </trkpt>
      <trkpt lat="44.81662" lon="6.19575">
        <ele>1107.6</ele>
        <time>2024-08-13T08:20:29Z</time>
      </trkpt>
      <trkpt lat="44.81662" lon="6.19575">
        <ele>1107.4</ele>
        <time>2024-08-13T08:20:30Z</time>
      </trkpt>
      <trkpt lat="44.81662" lon="6.19575">
        <ele>1107.4</ele>
        <time>2024-08-13T08:20:31Z</time>
      </trkpt>
      <trkpt lat="44.81662" lon="6.19575">
        <ele>1107.4</ele>
        <time>2024-08-13T08:20:32Z</time>
      </trkpt>
      <trkpt lat="44.81662" lon="6.19575">
        <ele>1107.4</ele>
        <time>2024-08-13T08:20:33Z</time>
      </trkpt>
      <trkpt lat="44.81662" lon="6.19575">
        <ele>1107.4</ele>
        <time>2024-08-13T08:20:34Z</time>
      </trkpt>
      <trkpt lat="44.81662" lon="6.19575">
        <ele>1107.4</ele>
        <time>2024-08-13T08:20:35Z</time>
      </trkpt>
      <trkpt lat="44.81662" lon="6.19575">
        <ele>1107.4</ele>
        <time>2024-08-13T08:20:36Z</time>
      </trkpt>
      <trkpt lat="44.81662" lon="6.19575">
        <ele>1107.8</ele>
        <time>2024-08-13T08:20:37Z</time>
      </trkpt>
      <trkpt lat="44.81662" lon="6.19575">
        <ele>1107.8</ele>
        <time>2024-08-13T08:20:38Z</time>
      </trkpt>
      <trkpt lat="44.81662" lon="6.19575">
        <ele>1107.6</ele>
        <time>2024-08-13T08:20:39Z</time>
      </trkpt>
      <trkpt lat="44.81662" lon="6.19575">
        <ele>1107.6</ele>
        <time>2024-08-13T08:20:40Z</time>
      </trkpt>
      <trkpt lat="44.81662" lon="6.19575">
        <ele>1107.8</ele>
        <time>2024-08-13T08:20:41Z</time>
      </trkpt>
      <trkpt lat="44.81662" lon="6.19575">
        <ele>1108.2</ele>
        <time>2024-08-13T08:20:42Z</time>
      </trkpt>
      <trkpt lat="44.81662" lon="6.19575">
        <ele>1108.2</ele>
        <time>2024-08-13T08:20:43Z</time>
      </trkpt>
      <trkpt lat="44.81662" lon="6.19575">
        <ele>1108.2</ele>
        <time>2024-08-13T08:20:44Z</time>
      </trkpt>
      <trkpt lat="44.81662" lon="6.19575">
        <ele>1108</ele>
        <time>2024-08-13T08:20:45Z</time>
      </trkpt>
      <trkpt lat="44.81662" lon="6.19575">
        <ele>1108</ele>
        <time>2024-08-13T08:20:46Z</time>
      </trkpt>
      <trkpt lat="44.81662" lon="6.19575">
        <ele>1108</ele>
        <time>2024-08-13T08:20:47Z</time>
      </trkpt>
      <trkpt lat="44.81662" lon="6.19575">
        <ele>1108.2</ele>
        <time>2024-08-13T08:20:48Z</time>
      </trkpt>
      <trkpt lat="44.81662" lon="6.19575">
        <ele>1108.4</ele>
        <time>2024-08-13T08:20:49Z</time>
      </trkpt>
      <trkpt lat="44.81662" lon="6.19575">
        <ele>1108.4</ele>
        <time>2024-08-13T08:20:50Z</time>
      </trkpt>
      <trkpt lat="44.81662" lon="6.19575">
        <ele>1108.4</ele>
        <time>2024-08-13T08:20:51Z</time>
      </trkpt>
      <trkpt lat="44.81662" lon="6.19575">
        <ele>1108.4</ele>
        <time>2024-08-13T08:20:52Z</time>
      </trkpt>
      <trkpt lat="44.81662" lon="6.19575">
        <ele>1108.4</ele>
        <time>2024-08-13T08:20:53Z</time>
      </trkpt>
      <trkpt lat="44.81662" lon="6.19575">
        <ele>1108.4</ele>
        <time>2024-08-13T08:20:54Z</time>
      </trkpt>
      <trkpt lat="44.81662" lon="6.19575">
        <ele>1108.6</ele>
        <time>2024-08-13T08:20:55Z</time>
      </trkpt>
      <trkpt lat="44.81662" lon="6.19575">
        <ele>1108.6</ele>
        <time>2024-08-13T08:20:56Z</time>
      </trkpt>
      <trkpt lat="44.81662" lon="6.19575">
        <ele>1108.6</ele>
        <time>2024-08-13T08:20:57Z</time>
      </trkpt>
      <trkpt lat="44.81662" lon="6.19575">
        <ele>1108.6</ele>
        <time>2024-08-13T08:20:58Z</time>
      </trkpt>
      <trkpt lat="44.81662" lon="6.19575">
        <ele>1108.6</ele>
        <time>2024-08-13T08:20:59Z</time>
      </trkpt>
      <trkpt lat="44.81662" lon="6.19575">
        <ele>1108.4</ele>
        <time>2024-08-13T08:21:00Z</time>
      </trkpt>
      <trkpt lat="44.81662" lon="6.19575">
        <ele>1108.4</ele>
        <time>2024-08-13T08:21:01Z</time>
      </trkpt>
      <trkpt lat="44.81662" lon="6.19575">
        <ele>1108.4</ele>
        <time>2024-08-13T08:21:02Z</time>
      </trkpt>
      <trkpt lat="44.81662" lon="6.19575">
        <ele>1108.4</ele>
        <time>2024-08-13T08:21:03Z</time>
      </trkpt>
      <trkpt lat="44.81662" lon="6.19575">
        <ele>1108.2</ele>
        <time>2024-08-13T08:21:04Z</time>
      </trkpt>
      <trkpt lat="44.81662" lon="6.19575">
        <ele>1107.8</ele>
        <time>2024-08-13T08:21:05Z</time>
      </trkpt>
      <trkpt lat="44.81662" lon="6.19575">
        <ele>1107.8</ele>
        <time>2024-08-13T08:21:06Z</time>
      </trkpt>
      <trkpt lat="44.81662" lon="6.19575">
        <ele>1108</ele>
        <time>2024-08-13T08:21:07Z</time>
      </trkpt>
      <trkpt lat="44.81662" lon="6.19575">
        <ele>1108</ele>
        <time>2024-08-13T08:21:08Z</time>
      </trkpt>
      <trkpt lat="44.81662" lon="6.19575">
        <ele>1108</ele>
        <time>2024-08-13T08:21:09Z</time>
      </trkpt>
      <trkpt lat="44.81662" lon="6.19575">
        <ele>1108</ele>
        <time>2024-08-13T08:21:10Z</time>
      </trkpt>
      <trkpt lat="44.81662" lon="6.19575">
        <ele>1108</ele>
        <time>2024-08-13T08:21:11Z</time>
      </trkpt>
      <trkpt lat="44.81662" lon="6.19575">
        <ele>1108.4</ele>
        <time>2024-08-13T08:21:12Z</time>
      </trkpt>
      <trkpt lat="44.81662" lon="6.19575">
        <ele>1108.6</ele>
        <time>2024-08-13T08:21:13Z</time>
      </trkpt>
      <trkpt lat="44.81662" lon="6.19575">
        <ele>1108.6</ele>
        <time>2024-08-13T08:21:14Z</time>
      </trkpt>
      <trkpt lat="44.81662" lon="6.19575">
        <ele>1108.6</ele>
        <time>2024-08-13T08:21:15Z</time>
      </trkpt>
      <trkpt lat="44.81662" lon="6.19575">
        <ele>1108.8</ele>
        <time>2024-08-13T08:21:16Z</time>
      </trkpt>
      <trkpt lat="44.81662" lon="6.19575">
        <ele>1108.8</ele>
        <time>2024-08-13T08:21:17Z</time>
      </trkpt>
      <trkpt lat="44.81662" lon="6.19575">
        <ele>1108.6</ele>
        <time>2024-08-13T08:21:18Z</time>
      </trkpt>
      <trkpt lat="44.81662" lon="6.19575">
        <ele>1108.4</ele>
        <time>2024-08-13T08:21:19Z</time>
      </trkpt>
      <trkpt lat="44.81662" lon="6.19575">
        <ele>1108.4</ele>
        <time>2024-08-13T08:21:20Z</time>
      </trkpt>
      <trkpt lat="44.81662" lon="6.19575">
        <ele>1108.6</ele>
        <time>2024-08-13T08:21:21Z</time>
      </trkpt>
      <trkpt lat="44.81662" lon="6.19575">
        <ele>1108.6</ele>
        <time>2024-08-13T08:21:22Z</time>
      </trkpt>
      <trkpt lat="44.81662" lon="6.19575">
        <ele>1108.6</ele>
        <time>2024-08-13T08:21:23Z</time>
      </trkpt>
      <trkpt lat="44.81662" lon="6.19575">
        <ele>1108.2</ele>
        <time>2024-08-13T08:21:24Z</time>
      </trkpt>
      <trkpt lat="44.81662" lon="6.19575">
        <ele>1108.2</ele>
        <time>2024-08-13T08:21:25Z</time>
      </trkpt>
      <trkpt lat="44.81662" lon="6.19575">
        <ele>1108.4</ele>
        <time>2024-08-13T08:21:26Z</time>
      </trkpt>
      <trkpt lat="44.81662" lon="6.19575">
        <ele>1108.4</ele>
        <time>2024-08-13T08:21:27Z</time>
      </trkpt>
      <trkpt lat="44.81662" lon="6.19575">
        <ele>1108.4</ele>
        <time>2024-08-13T08:21:28Z</time>
      </trkpt>
      <trkpt lat="44.81661" lon="6.19572">
        <ele>1108.4</ele>
        <time>2024-08-13T08:21:29Z</time>
      </trkpt>
      <trkpt lat="44.81661" lon="6.19572">
        <ele>1108.6</ele>
        <time>2024-08-13T08:21:30Z</time>
      </trkpt>
      <trkpt lat="44.81662" lon="6.19568">
        <ele>1108.6</ele>
        <time>2024-08-13T08:21:31Z</time>
      </trkpt>
      <trkpt lat="44.81662" lon="6.19568">
        <ele>1108.6</ele>
        <time>2024-08-13T08:21:32Z</time>
      </trkpt>
      <trkpt lat="44.81664" lon="6.19566">
        <ele>1108.2</ele>
        <time>2024-08-13T08:21:33Z</time>
      </trkpt>
      <trkpt lat="44.81664" lon="6.19566">
        <ele>1108</ele>
        <time>2024-08-13T08:21:34Z</time>
      </trkpt>
      <trkpt lat="44.81666" lon="6.19565">
        <ele>1108</ele>
        <time>2024-08-13T08:21:35Z</time>
      </trkpt>
      <trkpt lat="44.81666" lon="6.19565">
        <ele>1108</ele>
        <time>2024-08-13T08:21:36Z</time>
      </trkpt>
      <trkpt lat="44.81666" lon="6.19565">
        <ele>1108</ele>
        <time>2024-08-13T08:21:37Z</time>
      </trkpt>
      <trkpt lat="44.81666" lon="6.19565">
        <ele>1108</ele>
        <time>2024-08-13T08:21:38Z</time>
      </trkpt>
      <trkpt lat="44.81666" lon="6.19565">
        <ele>1108</ele>
        <time>2024-08-13T08:21:39Z</time>
      </trkpt>
      <trkpt lat="44.81666" lon="6.19565">
        <ele>1107.8</ele>
        <time>2024-08-13T08:21:40Z</time>
      </trkpt>
      <trkpt lat="44.81666" lon="6.19565">
        <ele>1107.8</ele>
        <time>2024-08-13T08:21:41Z</time>
      </trkpt>
      <trkpt lat="44.81666" lon="6.19565">
        <ele>1107.8</ele>
        <time>2024-08-13T08:21:42Z</time>
      </trkpt>
      <trkpt lat="44.81666" lon="6.19565">
        <ele>1107.8</ele>
        <time>2024-08-13T08:21:43Z</time>
      </trkpt>
      <trkpt lat="44.81666" lon="6.19565">
        <ele>1107.8</ele>
        <time>2024-08-13T08:21:44Z</time>
      </trkpt>
      <trkpt lat="44.81666" lon="6.19565">
        <ele>1107.8</ele>
        <time>2024-08-13T08:21:45Z</time>
      </trkpt>
      <trkpt lat="44.81666" lon="6.19565">
        <ele>1107.8</ele>
        <time>2024-08-13T08:21:46Z</time>
      </trkpt>
      <trkpt lat="44.81666" lon="6.19565">
        <ele>1107.8</ele>
        <time>2024-08-13T08:21:47Z</time>
      </trkpt>
      <trkpt lat="44.81666" lon="6.19565">
        <ele>1107.8</ele>
        <time>2024-08-13T08:21:48Z</time>
      </trkpt>
      <trkpt lat="44.81666" lon="6.19565">
        <ele>1108</ele>
        <time>2024-08-13T08:21:49Z</time>
      </trkpt>
      <trkpt lat="44.81666" lon="6.19565">
        <ele>1108</ele>
        <time>2024-08-13T08:21:50Z</time>
      </trkpt>
      <trkpt lat="44.81666" lon="6.19565">
        <ele>1108</ele>
        <time>2024-08-13T08:21:51Z</time>
      </trkpt>
      <trkpt lat="44.81666" lon="6.19565">
        <ele>1108</ele>
        <time>2024-08-13T08:21:52Z</time>
      </trkpt>
      <trkpt lat="44.81666" lon="6.19565">
        <ele>1107.8</ele>
        <time>2024-08-13T08:21:53Z</time>
      </trkpt>
      <trkpt lat="44.81666" lon="6.19565">
        <ele>1107.8</ele>
        <time>2024-08-13T08:21:54Z</time>
      </trkpt>
      <trkpt lat="44.81666" lon="6.19565">
        <ele>1108</ele>
        <time>2024-08-13T08:21:55Z</time>
      </trkpt>
      <trkpt lat="44.81666" lon="6.19565">
        <ele>1107.8</ele>
        <time>2024-08-13T08:21:56Z</time>
      </trkpt>
      <trkpt lat="44.81666" lon="6.19565">
        <ele>1107.8</ele>
        <time>2024-08-13T08:21:57Z</time>
      </trkpt>
      <trkpt lat="44.81666" lon="6.19565">
        <ele>1107.8</ele>
        <time>2024-08-13T08:21:58Z</time>
      </trkpt>
      <trkpt lat="44.81666" lon="6.19565">
        <ele>1107.8</ele>
        <time>2024-08-13T08:21:59Z</time>
      </trkpt>
      <trkpt lat="44.81666" lon="6.19565">
        <ele>1107.8</ele>
        <time>2024-08-13T08:22:00Z</time>
      </trkpt>
      <trkpt lat="44.81666" lon="6.19565">
        <ele>1107.8</ele>
        <time>2024-08-13T08:22:01Z</time>
      </trkpt>
      <trkpt lat="44.81666" lon="6.19565">
        <ele>1107.8</ele>
        <time>2024-08-13T08:22:02Z</time>
      </trkpt>
      <trkpt lat="44.81666" lon="6.19565">
        <ele>1107.8</ele>
        <time>2024-08-13T08:22:03Z</time>
      </trkpt>
      <trkpt lat="44.81666" lon="6.19565">
        <ele>1107.6</ele>
        <time>2024-08-13T08:22:04Z</time>
      </trkpt>
      <trkpt lat="44.81666" lon="6.19565">
        <ele>1107.6</ele>
        <time>2024-08-13T08:22:05Z</time>
      </trkpt>
      <trkpt lat="44.81666" lon="6.19565">
        <ele>1107.8</ele>
        <time>2024-08-13T08:22:06Z</time>
      </trkpt>
      <trkpt lat="44.81666" lon="6.19565">
        <ele>1107.8</ele>
        <time>2024-08-13T08:22:07Z</time>
      </trkpt>
      <trkpt lat="44.81666" lon="6.19565">
        <ele>1107.8</ele>
        <time>2024-08-13T08:22:08Z</time>
      </trkpt>
      <trkpt lat="44.81666" lon="6.19565">
        <ele>1107.8</ele>
        <time>2024-08-13T08:22:09Z</time>
      </trkpt>
      <trkpt lat="44.81666" lon="6.19565">
        <ele>1107.8</ele>
        <time>2024-08-13T08:22:10Z</time>
      </trkpt>
      <trkpt lat="44.81666" lon="6.19565">
        <ele>1107.6</ele>
        <time>2024-08-13T08:22:11Z</time>
      </trkpt>
      <trkpt lat="44.81666" lon="6.19565">
        <ele>1107.6</ele>
        <time>2024-08-13T08:22:12Z</time>
      </trkpt>
      <trkpt lat="44.81666" lon="6.19565">
        <ele>1107.6</ele>
        <time>2024-08-13T08:22:13Z</time>
      </trkpt>
      <trkpt lat="44.81666" lon="6.19565">
        <ele>1107.6</ele>
        <time>2024-08-13T08:22:14Z</time>
      </trkpt>
      <trkpt lat="44.81666" lon="6.19565">
        <ele>1107.8</ele>
        <time>2024-08-13T08:22:15Z</time>
      </trkpt>
      <trkpt lat="44.81666" lon="6.19565">
        <ele>1107.8</ele>
        <time>2024-08-13T08:22:16Z</time>
      </trkpt>
      <trkpt lat="44.81666" lon="6.19565">
        <ele>1108</ele>
        <time>2024-08-13T08:22:17Z</time>
      </trkpt>
      <trkpt lat="44.81666" lon="6.19565">
        <ele>1108</ele>
        <time>2024-08-13T08:22:18Z</time>
      </trkpt>
      <trkpt lat="44.81666" lon="6.19565">
        <ele>1108</ele>
        <time>2024-08-13T08:22:19Z</time>
      </trkpt>
      <trkpt lat="44.81666" lon="6.19565">
        <ele>1108</ele>
        <time>2024-08-13T08:22:20Z</time>
      </trkpt>
      <trkpt lat="44.81666" lon="6.19565">
        <ele>1108</ele>
        <time>2024-08-13T08:22:21Z</time>
      </trkpt>
      <trkpt lat="44.81666" lon="6.19565">
        <ele>1108</ele>
        <time>2024-08-13T08:22:22Z</time>
      </trkpt>
      <trkpt lat="44.81666" lon="6.19565">
        <ele>1108</ele>
        <time>2024-08-13T08:22:23Z</time>
      </trkpt>
      <trkpt lat="44.81666" lon="6.19565">
        <ele>1108</ele>
        <time>2024-08-13T08:22:24Z</time>
      </trkpt>
      <trkpt lat="44.81666" lon="6.19565">
        <ele>1108</ele>
        <time>2024-08-13T08:22:25Z</time>
      </trkpt>
      <trkpt lat="44.81666" lon="6.19565">
        <ele>1108</ele>
        <time>2024-08-13T08:22:26Z</time>
      </trkpt>
      <trkpt lat="44.81666" lon="6.19565">
        <ele>1108</ele>
        <time>2024-08-13T08:22:27Z</time>
      </trkpt>
      <trkpt lat="44.81666" lon="6.19565">
        <ele>1108</ele>
        <time>2024-08-13T08:22:28Z</time>
      </trkpt>
      <trkpt lat="44.81666" lon="6.19565">
        <ele>1108.2</ele>
        <time>2024-08-13T08:22:29Z</time>
      </trkpt>
      <trkpt lat="44.81666" lon="6.19565">
        <ele>1108.2</ele>
        <time>2024-08-13T08:22:30Z</time>
      </trkpt>
      <trkpt lat="44.81666" lon="6.19565">
        <ele>1108.2</ele>
        <time>2024-08-13T08:22:31Z</time>
      </trkpt>
      <trkpt lat="44.81666" lon="6.19565">
        <ele>1108.2</ele>
        <time>2024-08-13T08:22:32Z</time>
      </trkpt>
      <trkpt lat="44.81666" lon="6.19565">
        <ele>1108</ele>
        <time>2024-08-13T08:22:33Z</time>
      </trkpt>
      <trkpt lat="44.81666" lon="6.19565">
        <ele>1108</ele>
        <time>2024-08-13T08:22:34Z</time>
      </trkpt>
      <trkpt lat="44.81666" lon="6.19565">
        <ele>1108.2</ele>
        <time>2024-08-13T08:22:35Z</time>
      </trkpt>
      <trkpt lat="44.81666" lon="6.19565">
        <ele>1108.2</ele>
        <time>2024-08-13T08:22:36Z</time>
      </trkpt>
      <trkpt lat="44.81666" lon="6.19565">
        <ele>1108.2</ele>
        <time>2024-08-13T08:22:37Z</time>
      </trkpt>
      <trkpt lat="44.81666" lon="6.19565">
        <ele>1108.6</ele>
        <time>2024-08-13T08:22:38Z</time>
      </trkpt>
      <trkpt lat="44.81666" lon="6.19565">
        <ele>1109</ele>
        <time>2024-08-13T08:22:39Z</time>
      </trkpt>
      <trkpt lat="44.81666" lon="6.19565">
        <ele>1109</ele>
        <time>2024-08-13T08:22:40Z</time>
      </trkpt>
      <trkpt lat="44.81666" lon="6.19565">
        <ele>1109</ele>
        <time>2024-08-13T08:22:41Z</time>
      </trkpt>
      <trkpt lat="44.81666" lon="6.19565">
        <ele>1108.6</ele>
        <time>2024-08-13T08:22:42Z</time>
      </trkpt>
      <trkpt lat="44.81666" lon="6.19565">
        <ele>1108</ele>
        <time>2024-08-13T08:22:43Z</time>
      </trkpt>
      <trkpt lat="44.81666" lon="6.19565">
        <ele>1108</ele>
        <time>2024-08-13T08:22:44Z</time>
      </trkpt>
      <trkpt lat="44.81666" lon="6.19565">
        <ele>1108</ele>
        <time>2024-08-13T08:22:45Z</time>
      </trkpt>
      <trkpt lat="44.81666" lon="6.19565">
        <ele>1108</ele>
        <time>2024-08-13T08:22:46Z</time>
      </trkpt>
      <trkpt lat="44.81666" lon="6.19565">
        <ele>1108.2</ele>
        <time>2024-08-13T08:22:47Z</time>
      </trkpt>
      <trkpt lat="44.81666" lon="6.19565">
        <ele>1108.2</ele>
        <time>2024-08-13T08:22:48Z</time>
      </trkpt>
      <trkpt lat="44.81666" lon="6.19565">
        <ele>1108.4</ele>
        <time>2024-08-13T08:22:49Z</time>
      </trkpt>
      <trkpt lat="44.81666" lon="6.19565">
        <ele>1108.4</ele>
        <time>2024-08-13T08:22:50Z</time>
      </trkpt>
      <trkpt lat="44.81666" lon="6.19565">
        <ele>1108.4</ele>
        <time>2024-08-13T08:22:51Z</time>
      </trkpt>
      <trkpt lat="44.81666" lon="6.19565">
        <ele>1108.2</ele>
        <time>2024-08-13T08:22:52Z</time>
      </trkpt>
      <trkpt lat="44.81666" lon="6.19565">
        <ele>1108.2</ele>
        <time>2024-08-13T08:22:53Z</time>
      </trkpt>
      <trkpt lat="44.81666" lon="6.19565">
        <ele>1108.4</ele>
        <time>2024-08-13T08:22:54Z</time>
      </trkpt>
      <trkpt lat="44.81666" lon="6.19565">
        <ele>1108.4</ele>
        <time>2024-08-13T08:22:55Z</time>
      </trkpt>
      <trkpt lat="44.81666" lon="6.19565">
        <ele>1108.4</ele>
        <time>2024-08-13T08:22:56Z</time>
      </trkpt>
      <trkpt lat="44.81666" lon="6.19565">
        <ele>1108.4</ele>
        <time>2024-08-13T08:22:57Z</time>
      </trkpt>
      <trkpt lat="44.81666" lon="6.19565">
        <ele>1108.4</ele>
        <time>2024-08-13T08:22:58Z</time>
      </trkpt>
      <trkpt lat="44.81666" lon="6.19565">
        <ele>1108.4</ele>
        <time>2024-08-13T08:22:59Z</time>
      </trkpt>
      <trkpt lat="44.81665" lon="6.19569">
        <ele>1108.4</ele>
        <time>2024-08-13T08:23:00Z</time>
      </trkpt>
      <trkpt lat="44.81665" lon="6.19569">
        <ele>1108.6</ele>
        <time>2024-08-13T08:23:01Z</time>
      </trkpt>
      <trkpt lat="44.81665" lon="6.19569">
        <ele>1108.6</ele>
        <time>2024-08-13T08:23:02Z</time>
      </trkpt>
      <trkpt lat="44.81665" lon="6.19569">
        <ele>1108.6</ele>
        <time>2024-08-13T08:23:03Z</time>
      </trkpt>
      <trkpt lat="44.81665" lon="6.19569">
        <ele>1108.6</ele>
        <time>2024-08-13T08:23:04Z</time>
      </trkpt>
      <trkpt lat="44.81665" lon="6.19569">
        <ele>1108.6</ele>
        <time>2024-08-13T08:23:05Z</time>
      </trkpt>
      <trkpt lat="44.81665" lon="6.19569">
        <ele>1108.6</ele>
        <time>2024-08-13T08:23:06Z</time>
      </trkpt>
      <trkpt lat="44.81665" lon="6.19569">
        <ele>1108.6</ele>
        <time>2024-08-13T08:23:07Z</time>
      </trkpt>
      <trkpt lat="44.81665" lon="6.19569">
        <ele>1108.6</ele>
        <time>2024-08-13T08:23:08Z</time>
      </trkpt>
      <trkpt lat="44.81665" lon="6.19569">
        <ele>1108.6</ele>
        <time>2024-08-13T08:23:09Z</time>
      </trkpt>
      <trkpt lat="44.81665" lon="6.19569">
        <ele>1108.6</ele>
        <time>2024-08-13T08:23:10Z</time>
      </trkpt>
      <trkpt lat="44.81665" lon="6.19569">
        <ele>1108.6</ele>
        <time>2024-08-13T08:23:11Z</time>
      </trkpt>
      <trkpt lat="44.81665" lon="6.19569">
        <ele>1108.6</ele>
        <time>2024-08-13T08:23:12Z</time>
      </trkpt>
      <trkpt lat="44.81665" lon="6.19569">
        <ele>1108.6</ele>
        <time>2024-08-13T08:23:13Z</time>
      </trkpt>
      <trkpt lat="44.81665" lon="6.19569">
        <ele>1108.6</ele>
        <time>2024-08-13T08:23:14Z</time>
      </trkpt>
      <trkpt lat="44.81665" lon="6.19569">
        <ele>1108.6</ele>
        <time>2024-08-13T08:23:15Z</time>
      </trkpt>
      <trkpt lat="44.81665" lon="6.19569">
        <ele>1108.6</ele>
        <time>2024-08-13T08:23:16Z</time>
      </trkpt>
      <trkpt lat="44.81665" lon="6.19569">
        <ele>1108.4</ele>
        <time>2024-08-13T08:23:17Z</time>
      </trkpt>
      <trkpt lat="44.81665" lon="6.19569">
        <ele>1108.4</ele>
        <time>2024-08-13T08:23:18Z</time>
      </trkpt>
      <trkpt lat="44.81665" lon="6.19569">
        <ele>1108.4</ele>
        <time>2024-08-13T08:23:19Z</time>
      </trkpt>
      <trkpt lat="44.81665" lon="6.19569">
        <ele>1108.4</ele>
        <time>2024-08-13T08:23:20Z</time>
      </trkpt>
      <trkpt lat="44.81665" lon="6.19569">
        <ele>1108.4</ele>
        <time>2024-08-13T08:23:21Z</time>
      </trkpt>
      <trkpt lat="44.81665" lon="6.19569">
        <ele>1108.4</ele>
        <time>2024-08-13T08:23:22Z</time>
      </trkpt>
      <trkpt lat="44.81665" lon="6.19569">
        <ele>1108.4</ele>
        <time>2024-08-13T08:23:23Z</time>
      </trkpt>
      <trkpt lat="44.81665" lon="6.19569">
        <ele>1108.6</ele>
        <time>2024-08-13T08:23:24Z</time>
      </trkpt>
      <trkpt lat="44.81665" lon="6.19569">
        <ele>1108.8</ele>
        <time>2024-08-13T08:23:25Z</time>
      </trkpt>
      <trkpt lat="44.81665" lon="6.19569">
        <ele>1108.8</ele>
        <time>2024-08-13T08:23:26Z</time>
      </trkpt>
      <trkpt lat="44.81665" lon="6.19569">
        <ele>1108.8</ele>
        <time>2024-08-13T08:23:27Z</time>
      </trkpt>
      <trkpt lat="44.81665" lon="6.19569">
        <ele>1108.6</ele>
        <time>2024-08-13T08:23:28Z</time>
      </trkpt>
      <trkpt lat="44.81665" lon="6.19569">
        <ele>1108.6</ele>
        <time>2024-08-13T08:23:29Z</time>
      </trkpt>
      <trkpt lat="44.81665" lon="6.19569">
        <ele>1108.6</ele>
        <time>2024-08-13T08:23:30Z</time>
      </trkpt>
      <trkpt lat="44.81665" lon="6.19569">
        <ele>1108.6</ele>
        <time>2024-08-13T08:23:31Z</time>
      </trkpt>
      <trkpt lat="44.81665" lon="6.19569">
        <ele>1108.6</ele>
        <time>2024-08-13T08:23:32Z</time>
      </trkpt>
      <trkpt lat="44.81665" lon="6.19569">
        <ele>1108.6</ele>
        <time>2024-08-13T08:23:33Z</time>
      </trkpt>
      <trkpt lat="44.81665" lon="6.19569">
        <ele>1108.6</ele>
        <time>2024-08-13T08:23:34Z</time>
      </trkpt>
      <trkpt lat="44.81665" lon="6.19569">
        <ele>1108.6</ele>
        <time>2024-08-13T08:23:35Z</time>
      </trkpt>
      <trkpt lat="44.81665" lon="6.19569">
        <ele>1108.6</ele>
        <time>2024-08-13T08:23:36Z</time>
      </trkpt>
      <trkpt lat="44.81665" lon="6.19569">
        <ele>1108.6</ele>
        <time>2024-08-13T08:23:37Z</time>
      </trkpt>
      <trkpt lat="44.81665" lon="6.19569">
        <ele>1108.6</ele>
        <time>2024-08-13T08:23:38Z</time>
      </trkpt>
      <trkpt lat="44.81665" lon="6.19569">
        <ele>1108.6</ele>
        <time>2024-08-13T08:23:39Z</time>
      </trkpt>
      <trkpt lat="44.81665" lon="6.19569">
        <ele>1108.8</ele>
        <time>2024-08-13T08:23:40Z</time>
      </trkpt>
      <trkpt lat="44.81665" lon="6.19569">
        <ele>1108.8</ele>
        <time>2024-08-13T08:23:41Z</time>
      </trkpt>
      <trkpt lat="44.81665" lon="6.19569">
        <ele>1108.6</ele>
        <time>2024-08-13T08:23:42Z</time>
      </trkpt>
      <trkpt lat="44.81665" lon="6.19569">
        <ele>1108.6</ele>
        <time>2024-08-13T08:23:43Z</time>
      </trkpt>
      <trkpt lat="44.81665" lon="6.19569">
        <ele>1108.6</ele>
        <time>2024-08-13T08:23:44Z</time>
      </trkpt>
      <trkpt lat="44.81665" lon="6.19569">
        <ele>1108.6</ele>
        <time>2024-08-13T08:23:45Z</time>
      </trkpt>
      <trkpt lat="44.81665" lon="6.19569">
        <ele>1108.6</ele>
        <time>2024-08-13T08:23:46Z</time>
      </trkpt>
      <trkpt lat="44.81665" lon="6.19569">
        <ele>1108.6</ele>
        <time>2024-08-13T08:23:47Z</time>
      </trkpt>
      <trkpt lat="44.81665" lon="6.19569">
        <ele>1108.6</ele>
        <time>2024-08-13T08:23:48Z</time>
      </trkpt>
      <trkpt lat="44.81665" lon="6.19569">
        <ele>1108.6</ele>
        <time>2024-08-13T08:23:49Z</time>
      </trkpt>
      <trkpt lat="44.81665" lon="6.19569">
        <ele>1108.6</ele>
        <time>2024-08-13T08:23:50Z</time>
      </trkpt>
      <trkpt lat="44.81665" lon="6.19569">
        <ele>1108.8</ele>
        <time>2024-08-13T08:23:51Z</time>
      </trkpt>
      <trkpt lat="44.81665" lon="6.19569">
        <ele>1108.8</ele>
        <time>2024-08-13T08:23:52Z</time>
      </trkpt>
      <trkpt lat="44.81665" lon="6.19569">
        <ele>1108.8</ele>
        <time>2024-08-13T08:23:53Z</time>
      </trkpt>
      <trkpt lat="44.81665" lon="6.19569">
        <ele>1109</ele>
        <time>2024-08-13T08:23:54Z</time>
      </trkpt>
      <trkpt lat="44.81665" lon="6.19569">
        <ele>1109.2</ele>
        <time>2024-08-13T08:23:55Z</time>
      </trkpt>
      <trkpt lat="44.81665" lon="6.19569">
        <ele>1109.2</ele>
        <time>2024-08-13T08:23:56Z</time>
      </trkpt>
      <trkpt lat="44.81665" lon="6.19569">
        <ele>1109.2</ele>
        <time>2024-08-13T08:23:57Z</time>
      </trkpt>
      <trkpt lat="44.81665" lon="6.19569">
        <ele>1109</ele>
        <time>2024-08-13T08:23:58Z</time>
      </trkpt>
      <trkpt lat="44.81665" lon="6.19569">
        <ele>1109</ele>
        <time>2024-08-13T08:23:59Z</time>
      </trkpt>
      <trkpt lat="44.81665" lon="6.19569">
        <ele>1109</ele>
        <time>2024-08-13T08:24:00Z</time>
      </trkpt>
      <trkpt lat="44.81665" lon="6.19569">
        <ele>1109</ele>
        <time>2024-08-13T08:24:01Z</time>
      </trkpt>
      <trkpt lat="44.81665" lon="6.19569">
        <ele>1109</ele>
        <time>2024-08-13T08:24:02Z</time>
      </trkpt>
      <trkpt lat="44.81665" lon="6.19569">
        <ele>1109</ele>
        <time>2024-08-13T08:24:03Z</time>
      </trkpt>
      <trkpt lat="44.81665" lon="6.19569">
        <ele>1108.8</ele>
        <time>2024-08-13T08:24:04Z</time>
      </trkpt>
      <trkpt lat="44.81665" lon="6.19569">
        <ele>1108.8</ele>
        <time>2024-08-13T08:24:05Z</time>
      </trkpt>
      <trkpt lat="44.81665" lon="6.19569">
        <ele>1108.8</ele>
        <time>2024-08-13T08:24:06Z</time>
      </trkpt>
      <trkpt lat="44.81665" lon="6.19569">
        <ele>1108.8</ele>
        <time>2024-08-13T08:24:07Z</time>
      </trkpt>
      <trkpt lat="44.81665" lon="6.19569">
        <ele>1108.8</ele>
        <time>2024-08-13T08:24:08Z</time>
      </trkpt>
      <trkpt lat="44.81665" lon="6.19569">
        <ele>1108.8</ele>
        <time>2024-08-13T08:24:09Z</time>
      </trkpt>
      <trkpt lat="44.81665" lon="6.19569">
        <ele>1109</ele>
        <time>2024-08-13T08:24:10Z</time>
      </trkpt>
      <trkpt lat="44.81665" lon="6.19569">
        <ele>1109</ele>
        <time>2024-08-13T08:24:11Z</time>
      </trkpt>
      <trkpt lat="44.81665" lon="6.19569">
        <ele>1109</ele>
        <time>2024-08-13T08:24:12Z</time>
      </trkpt>
      <trkpt lat="44.81665" lon="6.19569">
        <ele>1109</ele>
        <time>2024-08-13T08:24:13Z</time>
      </trkpt>
      <trkpt lat="44.81665" lon="6.19569">
        <ele>1109</ele>
        <time>2024-08-13T08:24:14Z</time>
      </trkpt>
      <trkpt lat="44.81665" lon="6.19569">
        <ele>1109</ele>
        <time>2024-08-13T08:24:15Z</time>
      </trkpt>
      <trkpt lat="44.81665" lon="6.19569">
        <ele>1108.8</ele>
        <time>2024-08-13T08:24:16Z</time>
      </trkpt>
      <trkpt lat="44.81665" lon="6.19569">
        <ele>1108.8</ele>
        <time>2024-08-13T08:24:17Z</time>
      </trkpt>
      <trkpt lat="44.81665" lon="6.19569">
        <ele>1108.8</ele>
        <time>2024-08-13T08:24:18Z</time>
      </trkpt>
      <trkpt lat="44.81665" lon="6.19569">
        <ele>1108.8</ele>
        <time>2024-08-13T08:24:19Z</time>
      </trkpt>
      <trkpt lat="44.81665" lon="6.19569">
        <ele>1108.8</ele>
        <time>2024-08-13T08:24:20Z</time>
      </trkpt>
      <trkpt lat="44.81665" lon="6.19569">
        <ele>1108.6</ele>
        <time>2024-08-13T08:24:21Z</time>
      </trkpt>
      <trkpt lat="44.81665" lon="6.19569">
        <ele>1108.6</ele>
        <time>2024-08-13T08:24:22Z</time>
      </trkpt>
      <trkpt lat="44.81665" lon="6.19569">
        <ele>1108.8</ele>
        <time>2024-08-13T08:24:23Z</time>
      </trkpt>
      <trkpt lat="44.81665" lon="6.19569">
        <ele>1108.8</ele>
        <time>2024-08-13T08:24:24Z</time>
      </trkpt>
      <trkpt lat="44.81665" lon="6.19569">
        <ele>1108.8</ele>
        <time>2024-08-13T08:24:25Z</time>
      </trkpt>
      <trkpt lat="44.81666" lon="6.19572">
        <ele>1108.6</ele>
        <time>2024-08-13T08:24:26Z</time>
      </trkpt>
      <trkpt lat="44.81666" lon="6.19572">
        <ele>1108.6</ele>
        <time>2024-08-13T08:24:27Z</time>
      </trkpt>
      <trkpt lat="44.81666" lon="6.19572">
        <ele>1108.6</ele>
        <time>2024-08-13T08:24:28Z</time>
      </trkpt>
      <trkpt lat="44.81667" lon="6.19575">
        <ele>1108.8</ele>
        <time>2024-08-13T08:24:29Z</time>
      </trkpt>
      <trkpt lat="44.81667" lon="6.19575">
        <ele>1108.8</ele>
        <time>2024-08-13T08:24:30Z</time>
      </trkpt>
      <trkpt lat="44.81667" lon="6.19575">
        <ele>1108.8</ele>
        <time>2024-08-13T08:24:31Z</time>
      </trkpt>
      <trkpt lat="44.81669" lon="6.19575">
        <ele>1108.6</ele>
        <time>2024-08-13T08:24:32Z</time>
      </trkpt>
      <trkpt lat="44.81669" lon="6.19575">
        <ele>1108.4</ele>
        <time>2024-08-13T08:24:33Z</time>
      </trkpt>
      <trkpt lat="44.81669" lon="6.19575">
        <ele>1108.4</ele>
        <time>2024-08-13T08:24:34Z</time>
      </trkpt>
      <trkpt lat="44.81669" lon="6.19575">
        <ele>1108.4</ele>
        <time>2024-08-13T08:24:35Z</time>
      </trkpt>
      <trkpt lat="44.81669" lon="6.19575">
        <ele>1108.4</ele>
        <time>2024-08-13T08:24:36Z</time>
      </trkpt>
      <trkpt lat="44.81669" lon="6.19575">
        <ele>1108.4</ele>
        <time>2024-08-13T08:24:37Z</time>
      </trkpt>
      <trkpt lat="44.81669" lon="6.19575">
        <ele>1108</ele>
        <time>2024-08-13T08:24:38Z</time>
      </trkpt>
      <trkpt lat="44.81669" lon="6.19575">
        <ele>1108</ele>
        <time>2024-08-13T08:24:39Z</time>
      </trkpt>
      <trkpt lat="44.81669" lon="6.19575">
        <ele>1108.2</ele>
        <time>2024-08-13T08:24:40Z</time>
      </trkpt>
      <trkpt lat="44.81669" lon="6.19575">
        <ele>1108.2</ele>
        <time>2024-08-13T08:24:41Z</time>
      </trkpt>
      <trkpt lat="44.81669" lon="6.19575">
        <ele>1108</ele>
        <time>2024-08-13T08:24:42Z</time>
      </trkpt>
      <trkpt lat="44.81669" lon="6.19575">
        <ele>1108</ele>
        <time>2024-08-13T08:24:43Z</time>
      </trkpt>
      <trkpt lat="44.81669" lon="6.19575">
        <ele>1108</ele>
        <time>2024-08-13T08:24:44Z</time>
      </trkpt>
      <trkpt lat="44.81669" lon="6.19575">
        <ele>1108</ele>
        <time>2024-08-13T08:24:45Z</time>
      </trkpt>
      <trkpt lat="44.81669" lon="6.19575">
        <ele>1108</ele>
        <time>2024-08-13T08:24:46Z</time>
      </trkpt>
      <trkpt lat="44.81669" lon="6.19575">
        <ele>1108</ele>
        <time>2024-08-13T08:24:47Z</time>
      </trkpt>
      <trkpt lat="44.81669" lon="6.19575">
        <ele>1108</ele>
        <time>2024-08-13T08:24:48Z</time>
      </trkpt>
      <trkpt lat="44.81669" lon="6.19575">
        <ele>1108</ele>
        <time>2024-08-13T08:24:49Z</time>
      </trkpt>
      <trkpt lat="44.81669" lon="6.19575">
        <ele>1108</ele>
        <time>2024-08-13T08:24:50Z</time>
      </trkpt>
      <trkpt lat="44.81669" lon="6.19575">
        <ele>1108</ele>
        <time>2024-08-13T08:24:51Z</time>
      </trkpt>
      <trkpt lat="44.81669" lon="6.19575">
        <ele>1108.2</ele>
        <time>2024-08-13T08:24:52Z</time>
      </trkpt>
      <trkpt lat="44.81669" lon="6.19575">
        <ele>1108.2</ele>
        <time>2024-08-13T08:24:53Z</time>
      </trkpt>
      <trkpt lat="44.81669" lon="6.19575">
        <ele>1108.4</ele>
        <time>2024-08-13T08:24:54Z</time>
      </trkpt>
      <trkpt lat="44.81669" lon="6.19575">
        <ele>1108.4</ele>
        <time>2024-08-13T08:24:55Z</time>
      </trkpt>
      <trkpt lat="44.81669" lon="6.19575">
        <ele>1108.4</ele>
        <time>2024-08-13T08:24:56Z</time>
      </trkpt>
      <trkpt lat="44.81669" lon="6.19575">
        <ele>1108.4</ele>
        <time>2024-08-13T08:24:57Z</time>
      </trkpt>
      <trkpt lat="44.81669" lon="6.19575">
        <ele>1108.4</ele>
        <time>2024-08-13T08:24:58Z</time>
      </trkpt>
      <trkpt lat="44.81669" lon="6.19575">
        <ele>1108.4</ele>
        <time>2024-08-13T08:24:59Z</time>
      </trkpt>
      <trkpt lat="44.81669" lon="6.19575">
        <ele>1108.4</ele>
        <time>2024-08-13T08:25:00Z</time>
      </trkpt>
      <trkpt lat="44.81666" lon="6.19574">
        <ele>1108.4</ele>
        <time>2024-08-13T08:25:01Z</time>
      </trkpt>
      <trkpt lat="44.81663" lon="6.19572">
        <ele>1108.4</ele>
        <time>2024-08-13T08:25:02Z</time>
      </trkpt>
      <trkpt lat="44.8166" lon="6.1957">
        <ele>1108.4</ele>
        <time>2024-08-13T08:25:03Z</time>
      </trkpt>
      <trkpt lat="44.81658" lon="6.19567">
        <ele>1108.2</ele>
        <time>2024-08-13T08:25:04Z</time>
      </trkpt>
      <trkpt lat="44.81657" lon="6.19565">
        <ele>1108.2</ele>
        <time>2024-08-13T08:25:05Z</time>
      </trkpt>
      <trkpt lat="44.81657" lon="6.19565">
        <ele>1108.2</ele>
        <time>2024-08-13T08:25:06Z</time>
      </trkpt>
      <trkpt lat="44.81657" lon="6.19565">
        <ele>1108.2</ele>
        <time>2024-08-13T08:25:07Z</time>
      </trkpt>
      <trkpt lat="44.81655" lon="6.19563">
        <ele>1108.2</ele>
        <time>2024-08-13T08:25:08Z</time>
      </trkpt>
      <trkpt lat="44.81655" lon="6.19563">
        <ele>1108</ele>
        <time>2024-08-13T08:25:09Z</time>
      </trkpt>
      <trkpt lat="44.81655" lon="6.19563">
        <ele>1108</ele>
        <time>2024-08-13T08:25:10Z</time>
      </trkpt>
      <trkpt lat="44.81658" lon="6.19563">
        <ele>1108</ele>
        <time>2024-08-13T08:25:11Z</time>
      </trkpt>
      <trkpt lat="44.81658" lon="6.19563">
        <ele>1108.2</ele>
        <time>2024-08-13T08:25:12Z</time>
      </trkpt>
      <trkpt lat="44.8166" lon="6.19564">
        <ele>1108.2</ele>
        <time>2024-08-13T08:25:13Z</time>
      </trkpt>
      <trkpt lat="44.8166" lon="6.19564">
        <ele>1108</ele>
        <time>2024-08-13T08:25:14Z</time>
      </trkpt>
      <trkpt lat="44.81662" lon="6.19566">
        <ele>1108</ele>
        <time>2024-08-13T08:25:15Z</time>
      </trkpt>
      <trkpt lat="44.81662" lon="6.19566">
        <ele>1108</ele>
        <time>2024-08-13T08:25:16Z</time>
      </trkpt>
      <trkpt lat="44.81665" lon="6.19566">
        <ele>1108.2</ele>
        <time>2024-08-13T08:25:17Z</time>
      </trkpt>
      <trkpt lat="44.81665" lon="6.19566">
        <ele>1108.2</ele>
        <time>2024-08-13T08:25:18Z</time>
      </trkpt>
      <trkpt lat="44.81665" lon="6.19566">
        <ele>1108.2</ele>
        <time>2024-08-13T08:25:19Z</time>
      </trkpt>
      <trkpt lat="44.81665" lon="6.19566">
        <ele>1108.2</ele>
        <time>2024-08-13T08:25:20Z</time>
      </trkpt>
      <trkpt lat="44.81665" lon="6.19566">
        <ele>1108</ele>
        <time>2024-08-13T08:25:21Z</time>
      </trkpt>
      <trkpt lat="44.81665" lon="6.19566">
        <ele>1107.8</ele>
        <time>2024-08-13T08:25:22Z</time>
      </trkpt>
      <trkpt lat="44.81665" lon="6.19566">
        <ele>1107.8</ele>
        <time>2024-08-13T08:25:23Z</time>
      </trkpt>
      <trkpt lat="44.81665" lon="6.19566">
        <ele>1108</ele>
        <time>2024-08-13T08:25:24Z</time>
      </trkpt>
      <trkpt lat="44.81665" lon="6.19566">
        <ele>1108</ele>
        <time>2024-08-13T08:25:25Z</time>
      </trkpt>
      <trkpt lat="44.81665" lon="6.19566">
        <ele>1107.8</ele>
        <time>2024-08-13T08:25:26Z</time>
      </trkpt>
      <trkpt lat="44.81665" lon="6.19566">
        <ele>1107.8</ele>
        <time>2024-08-13T08:25:27Z</time>
      </trkpt>
      <trkpt lat="44.81665" lon="6.19566">
        <ele>1107.8</ele>
        <time>2024-08-13T08:25:28Z</time>
      </trkpt>
      <trkpt lat="44.81665" lon="6.19566">
        <ele>1107.8</ele>
        <time>2024-08-13T08:25:29Z</time>
      </trkpt>
      <trkpt lat="44.81665" lon="6.19566">
        <ele>1107.8</ele>
        <time>2024-08-13T08:25:30Z</time>
      </trkpt>
      <trkpt lat="44.81665" lon="6.19566">
        <ele>1107.8</ele>
        <time>2024-08-13T08:25:31Z</time>
      </trkpt>
      <trkpt lat="44.81665" lon="6.19566">
        <ele>1107.8</ele>
        <time>2024-08-13T08:25:32Z</time>
      </trkpt>
      <trkpt lat="44.81665" lon="6.19566">
        <ele>1107.8</ele>
        <time>2024-08-13T08:25:33Z</time>
      </trkpt>
      <trkpt lat="44.81665" lon="6.19566">
        <ele>1108</ele>
        <time>2024-08-13T08:25:34Z</time>
      </trkpt>
      <trkpt lat="44.81665" lon="6.19566">
        <ele>1108</ele>
        <time>2024-08-13T08:25:35Z</time>
      </trkpt>
      <trkpt lat="44.81665" lon="6.19566">
        <ele>1108</ele>
        <time>2024-08-13T08:25:36Z</time>
      </trkpt>
      <trkpt lat="44.81665" lon="6.19566">
        <ele>1108</ele>
        <time>2024-08-13T08:25:37Z</time>
      </trkpt>
      <trkpt lat="44.81665" lon="6.19566">
        <ele>1108</ele>
        <time>2024-08-13T08:25:38Z</time>
      </trkpt>
      <trkpt lat="44.81665" lon="6.19566">
        <ele>1108</ele>
        <time>2024-08-13T08:25:39Z</time>
      </trkpt>
      <trkpt lat="44.81665" lon="6.19566">
        <ele>1108</ele>
        <time>2024-08-13T08:25:40Z</time>
      </trkpt>
      <trkpt lat="44.81665" lon="6.19566">
        <ele>1108</ele>
        <time>2024-08-13T08:25:41Z</time>
      </trkpt>
      <trkpt lat="44.81665" lon="6.19566">
        <ele>1108</ele>
        <time>2024-08-13T08:25:42Z</time>
      </trkpt>
      <trkpt lat="44.81665" lon="6.19566">
        <ele>1108</ele>
        <time>2024-08-13T08:25:43Z</time>
      </trkpt>
      <trkpt lat="44.81665" lon="6.19566">
        <ele>1107.8</ele>
        <time>2024-08-13T08:25:44Z</time>
      </trkpt>
      <trkpt lat="44.81665" lon="6.19566">
        <ele>1107.8</ele>
        <time>2024-08-13T08:25:45Z</time>
      </trkpt>
      <trkpt lat="44.81665" lon="6.19566">
        <ele>1108</ele>
        <time>2024-08-13T08:25:46Z</time>
      </trkpt>
      <trkpt lat="44.81665" lon="6.19566">
        <ele>1108</ele>
        <time>2024-08-13T08:25:47Z</time>
      </trkpt>
      <trkpt lat="44.81665" lon="6.19566">
        <ele>1108.2</ele>
        <time>2024-08-13T08:25:48Z</time>
      </trkpt>
      <trkpt lat="44.81665" lon="6.19566">
        <ele>1108.2</ele>
        <time>2024-08-13T08:25:49Z</time>
      </trkpt>
      <trkpt lat="44.81665" lon="6.19566">
        <ele>1108.2</ele>
        <time>2024-08-13T08:25:50Z</time>
      </trkpt>
      <trkpt lat="44.81665" lon="6.19566">
        <ele>1108</ele>
        <time>2024-08-13T08:25:51Z</time>
      </trkpt>
      <trkpt lat="44.81665" lon="6.19566">
        <ele>1108</ele>
        <time>2024-08-13T08:25:52Z</time>
      </trkpt>
      <trkpt lat="44.81665" lon="6.19566">
        <ele>1108</ele>
        <time>2024-08-13T08:25:53Z</time>
      </trkpt>
      <trkpt lat="44.81665" lon="6.19566">
        <ele>1107.8</ele>
        <time>2024-08-13T08:25:54Z</time>
      </trkpt>
      <trkpt lat="44.81665" lon="6.19566">
        <ele>1107.8</ele>
        <time>2024-08-13T08:25:55Z</time>
      </trkpt>
      <trkpt lat="44.81665" lon="6.19566">
        <ele>1108</ele>
        <time>2024-08-13T08:25:56Z</time>
      </trkpt>
      <trkpt lat="44.81665" lon="6.19566">
        <ele>1107.8</ele>
        <time>2024-08-13T08:25:57Z</time>
      </trkpt>
      <trkpt lat="44.81665" lon="6.19566">
        <ele>1108</ele>
        <time>2024-08-13T08:25:58Z</time>
      </trkpt>
      <trkpt lat="44.81665" lon="6.19566">
        <ele>1108</ele>
        <time>2024-08-13T08:25:59Z</time>
      </trkpt>
      <trkpt lat="44.81665" lon="6.19566">
        <ele>1108</ele>
        <time>2024-08-13T08:26:00Z</time>
      </trkpt>
      <trkpt lat="44.81665" lon="6.19566">
        <ele>1108</ele>
        <time>2024-08-13T08:26:01Z</time>
      </trkpt>
      <trkpt lat="44.81665" lon="6.19566">
        <ele>1107.6</ele>
        <time>2024-08-13T08:26:02Z</time>
      </trkpt>
      <trkpt lat="44.81665" lon="6.19566">
        <ele>1107.6</ele>
        <time>2024-08-13T08:26:03Z</time>
      </trkpt>
      <trkpt lat="44.81665" lon="6.19566">
        <ele>1107.6</ele>
        <time>2024-08-13T08:26:04Z</time>
      </trkpt>
      <trkpt lat="44.81665" lon="6.19566">
        <ele>1107.6</ele>
        <time>2024-08-13T08:26:05Z</time>
      </trkpt>
      <trkpt lat="44.81665" lon="6.19566">
        <ele>1107.6</ele>
        <time>2024-08-13T08:26:06Z</time>
      </trkpt>
      <trkpt lat="44.81665" lon="6.19566">
        <ele>1107.6</ele>
        <time>2024-08-13T08:26:07Z</time>
      </trkpt>
      <trkpt lat="44.81665" lon="6.19566">
        <ele>1107.6</ele>
        <time>2024-08-13T08:26:08Z</time>
      </trkpt>
      <trkpt lat="44.81665" lon="6.19566">
        <ele>1107.6</ele>
        <time>2024-08-13T08:26:09Z</time>
      </trkpt>
      <trkpt lat="44.81665" lon="6.19566">
        <ele>1107.4</ele>
        <time>2024-08-13T08:26:10Z</time>
      </trkpt>
      <trkpt lat="44.81665" lon="6.19566">
        <ele>1107.4</ele>
        <time>2024-08-13T08:26:11Z</time>
      </trkpt>
      <trkpt lat="44.81665" lon="6.19566">
        <ele>1107.8</ele>
        <time>2024-08-13T08:26:12Z</time>
      </trkpt>
      <trkpt lat="44.81665" lon="6.19566">
        <ele>1107.8</ele>
        <time>2024-08-13T08:26:13Z</time>
      </trkpt>
      <trkpt lat="44.81665" lon="6.19566">
        <ele>1107.6</ele>
        <time>2024-08-13T08:26:14Z</time>
      </trkpt>
      <trkpt lat="44.81665" lon="6.19566">
        <ele>1107.4</ele>
        <time>2024-08-13T08:26:15Z</time>
      </trkpt>
      <trkpt lat="44.81665" lon="6.19566">
        <ele>1107.4</ele>
        <time>2024-08-13T08:26:16Z</time>
      </trkpt>
      <trkpt lat="44.81665" lon="6.19566">
        <ele>1107.8</ele>
        <time>2024-08-13T08:26:17Z</time>
      </trkpt>
      <trkpt lat="44.81665" lon="6.19566">
        <ele>1107.8</ele>
        <time>2024-08-13T08:26:18Z</time>
      </trkpt>
      <trkpt lat="44.81665" lon="6.19566">
        <ele>1108</ele>
        <time>2024-08-13T08:26:19Z</time>
      </trkpt>
      <trkpt lat="44.81665" lon="6.19566">
        <ele>1108</ele>
        <time>2024-08-13T08:26:20Z</time>
      </trkpt>
      <trkpt lat="44.81665" lon="6.19566">
        <ele>1108</ele>
        <time>2024-08-13T08:26:21Z</time>
      </trkpt>
      <trkpt lat="44.81665" lon="6.19566">
        <ele>1108.2</ele>
        <time>2024-08-13T08:26:22Z</time>
      </trkpt>
      <trkpt lat="44.81665" lon="6.19566">
        <ele>1108.2</ele>
        <time>2024-08-13T08:26:23Z</time>
      </trkpt>
      <trkpt lat="44.81665" lon="6.19566">
        <ele>1108</ele>
        <time>2024-08-13T08:26:24Z</time>
      </trkpt>
      <trkpt lat="44.81665" lon="6.19566">
        <ele>1107.8</ele>
        <time>2024-08-13T08:26:25Z</time>
      </trkpt>
      <trkpt lat="44.81665" lon="6.19566">
        <ele>1107.8</ele>
        <time>2024-08-13T08:26:26Z</time>
      </trkpt>
      <trkpt lat="44.81665" lon="6.19566">
        <ele>1107.4</ele>
        <time>2024-08-13T08:26:27Z</time>
      </trkpt>
      <trkpt lat="44.81665" lon="6.19566">
        <ele>1107.4</ele>
        <time>2024-08-13T08:26:28Z</time>
      </trkpt>
      <trkpt lat="44.81665" lon="6.19566">
        <ele>1107.2</ele>
        <time>2024-08-13T08:26:29Z</time>
      </trkpt>
      <trkpt lat="44.81665" lon="6.19566">
        <ele>1107.2</ele>
        <time>2024-08-13T08:26:30Z</time>
      </trkpt>
      <trkpt lat="44.81665" lon="6.19566">
        <ele>1107.4</ele>
        <time>2024-08-13T08:26:31Z</time>
      </trkpt>
      <trkpt lat="44.81665" lon="6.19566">
        <ele>1107.4</ele>
        <time>2024-08-13T08:26:32Z</time>
      </trkpt>
      <trkpt lat="44.81665" lon="6.19566">
        <ele>1107.6</ele>
        <time>2024-08-13T08:26:33Z</time>
      </trkpt>
      <trkpt lat="44.81665" lon="6.19566">
        <ele>1107.6</ele>
        <time>2024-08-13T08:26:34Z</time>
      </trkpt>
      <trkpt lat="44.81665" lon="6.19566">
        <ele>1107.6</ele>
        <time>2024-08-13T08:26:35Z</time>
      </trkpt>
      <trkpt lat="44.81665" lon="6.19566">
        <ele>1107.6</ele>
        <time>2024-08-13T08:26:36Z</time>
      </trkpt>
      <trkpt lat="44.81665" lon="6.19566">
        <ele>1107.6</ele>
        <time>2024-08-13T08:26:37Z</time>
      </trkpt>
      <trkpt lat="44.81665" lon="6.19566">
        <ele>1107.6</ele>
        <time>2024-08-13T08:26:38Z</time>
      </trkpt>
      <trkpt lat="44.81665" lon="6.19566">
        <ele>1107.8</ele>
        <time>2024-08-13T08:26:39Z</time>
      </trkpt>
      <trkpt lat="44.81665" lon="6.19566">
        <ele>1107.8</ele>
        <time>2024-08-13T08:26:40Z</time>
      </trkpt>
      <trkpt lat="44.81665" lon="6.19566">
        <ele>1107.8</ele>
        <time>2024-08-13T08:26:41Z</time>
      </trkpt>
      <trkpt lat="44.81665" lon="6.19566">
        <ele>1107.4</ele>
        <time>2024-08-13T08:26:42Z</time>
      </trkpt>
      <trkpt lat="44.81665" lon="6.19566">
        <ele>1107.4</ele>
        <time>2024-08-13T08:26:43Z</time>
      </trkpt>
      <trkpt lat="44.81665" lon="6.19566">
        <ele>1107.4</ele>
        <time>2024-08-13T08:26:44Z</time>
      </trkpt>
      <trkpt lat="44.81665" lon="6.19566">
        <ele>1107.4</ele>
        <time>2024-08-13T08:26:45Z</time>
      </trkpt>
      <trkpt lat="44.81665" lon="6.19566">
        <ele>1107.4</ele>
        <time>2024-08-13T08:26:46Z</time>
      </trkpt>
      <trkpt lat="44.81665" lon="6.19566">
        <ele>1107.2</ele>
        <time>2024-08-13T08:26:47Z</time>
      </trkpt>
      <trkpt lat="44.81665" lon="6.19566">
        <ele>1107.2</ele>
        <time>2024-08-13T08:26:48Z</time>
      </trkpt>
      <trkpt lat="44.81665" lon="6.19566">
        <ele>1107.4</ele>
        <time>2024-08-13T08:26:49Z</time>
      </trkpt>
      <trkpt lat="44.81665" lon="6.19566">
        <ele>1107.4</ele>
        <time>2024-08-13T08:26:50Z</time>
      </trkpt>
      <trkpt lat="44.81665" lon="6.19566">
        <ele>1107.4</ele>
        <time>2024-08-13T08:26:51Z</time>
      </trkpt>
      <trkpt lat="44.81665" lon="6.19566">
        <ele>1107.6</ele>
        <time>2024-08-13T08:26:52Z</time>
      </trkpt>
      <trkpt lat="44.81665" lon="6.19566">
        <ele>1107.6</ele>
        <time>2024-08-13T08:26:53Z</time>
      </trkpt>
      <trkpt lat="44.81665" lon="6.19566">
        <ele>1107.6</ele>
        <time>2024-08-13T08:26:54Z</time>
      </trkpt>
      <trkpt lat="44.81665" lon="6.19566">
        <ele>1107.2</ele>
        <time>2024-08-13T08:26:55Z</time>
      </trkpt>
      <trkpt lat="44.81665" lon="6.19566">
        <ele>1107.2</ele>
        <time>2024-08-13T08:26:56Z</time>
      </trkpt>
      <trkpt lat="44.81665" lon="6.19566">
        <ele>1107.2</ele>
        <time>2024-08-13T08:26:57Z</time>
      </trkpt>
      <trkpt lat="44.81665" lon="6.19566">
        <ele>1107.4</ele>
        <time>2024-08-13T08:26:58Z</time>
      </trkpt>
      <trkpt lat="44.81665" lon="6.19566">
        <ele>1107.4</ele>
        <time>2024-08-13T08:26:59Z</time>
      </trkpt>
      <trkpt lat="44.81665" lon="6.19566">
        <ele>1107.4</ele>
        <time>2024-08-13T08:27:00Z</time>
      </trkpt>
      <trkpt lat="44.81665" lon="6.19566">
        <ele>1107.4</ele>
        <time>2024-08-13T08:27:01Z</time>
      </trkpt>
      <trkpt lat="44.81665" lon="6.19566">
        <ele>1107.2</ele>
        <time>2024-08-13T08:27:02Z</time>
      </trkpt>
      <trkpt lat="44.81665" lon="6.19566">
        <ele>1107.2</ele>
        <time>2024-08-13T08:27:03Z</time>
      </trkpt>
      <trkpt lat="44.81665" lon="6.19566">
        <ele>1107.2</ele>
        <time>2024-08-13T08:27:04Z</time>
      </trkpt>
      <trkpt lat="44.81665" lon="6.19566">
        <ele>1107.2</ele>
        <time>2024-08-13T08:27:05Z</time>
      </trkpt>
      <trkpt lat="44.81665" lon="6.19566">
        <ele>1107.2</ele>
        <time>2024-08-13T08:27:06Z</time>
      </trkpt>
      <trkpt lat="44.81665" lon="6.19566">
        <ele>1107.2</ele>
        <time>2024-08-13T08:27:07Z</time>
      </trkpt>
      <trkpt lat="44.81665" lon="6.19566">
        <ele>1107.2</ele>
        <time>2024-08-13T08:27:08Z</time>
      </trkpt>
      <trkpt lat="44.81665" lon="6.19566">
        <ele>1107.2</ele>
        <time>2024-08-13T08:27:09Z</time>
      </trkpt>
      <trkpt lat="44.81665" lon="6.19566">
        <ele>1107.2</ele>
        <time>2024-08-13T08:27:10Z</time>
      </trkpt>
      <trkpt lat="44.81665" lon="6.19566">
        <ele>1107.2</ele>
        <time>2024-08-13T08:27:11Z</time>
      </trkpt>
      <trkpt lat="44.81665" lon="6.19566">
        <ele>1107.2</ele>
        <time>2024-08-13T08:27:12Z</time>
      </trkpt>
      <trkpt lat="44.81665" lon="6.19566">
        <ele>1107.2</ele>
        <time>2024-08-13T08:27:13Z</time>
      </trkpt>
      <trkpt lat="44.81665" lon="6.19566">
        <ele>1107.2</ele>
        <time>2024-08-13T08:27:14Z</time>
      </trkpt>
      <trkpt lat="44.81665" lon="6.19566">
        <ele>1107.2</ele>
        <time>2024-08-13T08:27:15Z</time>
      </trkpt>
      <trkpt lat="44.81665" lon="6.19566">
        <ele>1107.2</ele>
        <time>2024-08-13T08:27:16Z</time>
      </trkpt>
      <trkpt lat="44.81665" lon="6.19566">
        <ele>1107</ele>
        <time>2024-08-13T08:27:17Z</time>
      </trkpt>
      <trkpt lat="44.81665" lon="6.19566">
        <ele>1107</ele>
        <time>2024-08-13T08:27:18Z</time>
      </trkpt>
      <trkpt lat="44.81665" lon="6.19566">
        <ele>1107.2</ele>
        <time>2024-08-13T08:27:19Z</time>
      </trkpt>
      <trkpt lat="44.81665" lon="6.19566">
        <ele>1107.2</ele>
        <time>2024-08-13T08:27:20Z</time>
      </trkpt>
      <trkpt lat="44.81665" lon="6.19566">
        <ele>1107.4</ele>
        <time>2024-08-13T08:27:21Z</time>
      </trkpt>
      <trkpt lat="44.81665" lon="6.19566">
        <ele>1107.4</ele>
        <time>2024-08-13T08:27:22Z</time>
      </trkpt>
      <trkpt lat="44.81665" lon="6.19566">
        <ele>1107.2</ele>
        <time>2024-08-13T08:27:23Z</time>
      </trkpt>
      <trkpt lat="44.81665" lon="6.19566">
        <ele>1107.2</ele>
        <time>2024-08-13T08:27:24Z</time>
      </trkpt>
      <trkpt lat="44.81665" lon="6.19566">
        <ele>1107.2</ele>
        <time>2024-08-13T08:27:25Z</time>
      </trkpt>
      <trkpt lat="44.81665" lon="6.19566">
        <ele>1107.2</ele>
        <time>2024-08-13T08:27:26Z</time>
      </trkpt>
      <trkpt lat="44.81665" lon="6.19566">
        <ele>1107.2</ele>
        <time>2024-08-13T08:27:27Z</time>
      </trkpt>
      <trkpt lat="44.81665" lon="6.19566">
        <ele>1107.2</ele>
        <time>2024-08-13T08:27:28Z</time>
      </trkpt>
      <trkpt lat="44.81665" lon="6.19566">
        <ele>1107.2</ele>
        <time>2024-08-13T08:27:29Z</time>
      </trkpt>
      <trkpt lat="44.81665" lon="6.19566">
        <ele>1107.2</ele>
        <time>2024-08-13T08:27:30Z</time>
      </trkpt>
      <trkpt lat="44.81665" lon="6.19566">
        <ele>1107.4</ele>
        <time>2024-08-13T08:27:31Z</time>
      </trkpt>
      <trkpt lat="44.81665" lon="6.19566">
        <ele>1107.4</ele>
        <time>2024-08-13T08:27:32Z</time>
      </trkpt>
      <trkpt lat="44.81665" lon="6.19566">
        <ele>1107.2</ele>
        <time>2024-08-13T08:27:33Z</time>
      </trkpt>
      <trkpt lat="44.81665" lon="6.19566">
        <ele>1107.2</ele>
        <time>2024-08-13T08:27:34Z</time>
      </trkpt>
      <trkpt lat="44.81665" lon="6.19566">
        <ele>1107.2</ele>
        <time>2024-08-13T08:27:35Z</time>
      </trkpt>
      <trkpt lat="44.81665" lon="6.19566">
        <ele>1107.2</ele>
        <time>2024-08-13T08:27:36Z</time>
      </trkpt>
      <trkpt lat="44.81665" lon="6.19566">
        <ele>1107.2</ele>
        <time>2024-08-13T08:27:37Z</time>
      </trkpt>
      <trkpt lat="44.81665" lon="6.19566">
        <ele>1107.2</ele>
        <time>2024-08-13T08:27:38Z</time>
      </trkpt>
      <trkpt lat="44.81665" lon="6.19566">
        <ele>1107.2</ele>
        <time>2024-08-13T08:27:39Z</time>
      </trkpt>
      <trkpt lat="44.81665" lon="6.19566">
        <ele>1107.2</ele>
        <time>2024-08-13T08:27:40Z</time>
      </trkpt>
      <trkpt lat="44.81665" lon="6.19566">
        <ele>1107.4</ele>
        <time>2024-08-13T08:27:41Z</time>
      </trkpt>
      <trkpt lat="44.81665" lon="6.19566">
        <ele>1107.4</ele>
        <time>2024-08-13T08:27:42Z</time>
      </trkpt>
      <trkpt lat="44.81665" lon="6.19566">
        <ele>1107.4</ele>
        <time>2024-08-13T08:27:43Z</time>
      </trkpt>
      <trkpt lat="44.81665" lon="6.19566">
        <ele>1107.2</ele>
        <time>2024-08-13T08:27:44Z</time>
      </trkpt>
      <trkpt lat="44.81665" lon="6.19566">
        <ele>1107.2</ele>
        <time>2024-08-13T08:27:45Z</time>
      </trkpt>
      <trkpt lat="44.81665" lon="6.19566">
        <ele>1107</ele>
        <time>2024-08-13T08:27:46Z</time>
      </trkpt>
      <trkpt lat="44.81665" lon="6.19566">
        <ele>1107</ele>
        <time>2024-08-13T08:27:47Z</time>
      </trkpt>
      <trkpt lat="44.81665" lon="6.19566">
        <ele>1107.2</ele>
        <time>2024-08-13T08:27:48Z</time>
      </trkpt>
      <trkpt lat="44.81665" lon="6.19566">
        <ele>1107.2</ele>
        <time>2024-08-13T08:27:49Z</time>
      </trkpt>
      <trkpt lat="44.81665" lon="6.19566">
        <ele>1107.2</ele>
        <time>2024-08-13T08:27:50Z</time>
      </trkpt>
      <trkpt lat="44.81665" lon="6.19566">
        <ele>1107.2</ele>
        <time>2024-08-13T08:27:51Z</time>
      </trkpt>
      <trkpt lat="44.81665" lon="6.19566">
        <ele>1107.2</ele>
        <time>2024-08-13T08:27:52Z</time>
      </trkpt>
      <trkpt lat="44.81665" lon="6.19566">
        <ele>1107.2</ele>
        <time>2024-08-13T08:27:53Z</time>
      </trkpt>
      <trkpt lat="44.81665" lon="6.19566">
        <ele>1107.2</ele>
        <time>2024-08-13T08:27:54Z</time>
      </trkpt>
      <trkpt lat="44.81665" lon="6.19566">
        <ele>1107.2</ele>
        <time>2024-08-13T08:27:55Z</time>
      </trkpt>
      <trkpt lat="44.81665" lon="6.19566">
        <ele>1107.2</ele>
        <time>2024-08-13T08:27:56Z</time>
      </trkpt>
      <trkpt lat="44.81665" lon="6.19566">
        <ele>1107.4</ele>
        <time>2024-08-13T08:27:57Z</time>
      </trkpt>
      <trkpt lat="44.81665" lon="6.19566">
        <ele>1107.4</ele>
        <time>2024-08-13T08:27:58Z</time>
      </trkpt>
      <trkpt lat="44.81665" lon="6.19566">
        <ele>1107.2</ele>
        <time>2024-08-13T08:27:59Z</time>
      </trkpt>
      <trkpt lat="44.81665" lon="6.19566">
        <ele>1107.2</ele>
        <time>2024-08-13T08:28:00Z</time>
      </trkpt>
      <trkpt lat="44.81665" lon="6.19566">
        <ele>1107.2</ele>
        <time>2024-08-13T08:28:01Z</time>
      </trkpt>
      <trkpt lat="44.81665" lon="6.19566">
        <ele>1107.2</ele>
        <time>2024-08-13T08:28:02Z</time>
      </trkpt>
      <trkpt lat="44.81665" lon="6.19566">
        <ele>1107.2</ele>
        <time>2024-08-13T08:28:03Z</time>
      </trkpt>
      <trkpt lat="44.81665" lon="6.19566">
        <ele>1107</ele>
        <time>2024-08-13T08:28:04Z</time>
      </trkpt>
      <trkpt lat="44.81665" lon="6.19566">
        <ele>1107</ele>
        <time>2024-08-13T08:28:05Z</time>
      </trkpt>
      <trkpt lat="44.81665" lon="6.19566">
        <ele>1107</ele>
        <time>2024-08-13T08:28:06Z</time>
      </trkpt>
      <trkpt lat="44.81665" lon="6.19566">
        <ele>1107</ele>
        <time>2024-08-13T08:28:07Z</time>
      </trkpt>
      <trkpt lat="44.81665" lon="6.19566">
        <ele>1107.2</ele>
        <time>2024-08-13T08:28:08Z</time>
      </trkpt>
      <trkpt lat="44.81665" lon="6.19566">
        <ele>1107.2</ele>
        <time>2024-08-13T08:28:09Z</time>
      </trkpt>
      <trkpt lat="44.81665" lon="6.19566">
        <ele>1107.2</ele>
        <time>2024-08-13T08:28:10Z</time>
      </trkpt>
      <trkpt lat="44.81665" lon="6.19566">
        <ele>1107.4</ele>
        <time>2024-08-13T08:28:11Z</time>
      </trkpt>
      <trkpt lat="44.81665" lon="6.19566">
        <ele>1107.4</ele>
        <time>2024-08-13T08:28:12Z</time>
      </trkpt>
      <trkpt lat="44.81665" lon="6.19566">
        <ele>1107.4</ele>
        <time>2024-08-13T08:28:13Z</time>
      </trkpt>
      <trkpt lat="44.81665" lon="6.19566">
        <ele>1107.2</ele>
        <time>2024-08-13T08:28:14Z</time>
      </trkpt>
      <trkpt lat="44.81665" lon="6.19566">
        <ele>1107.2</ele>
        <time>2024-08-13T08:28:15Z</time>
      </trkpt>
      <trkpt lat="44.81665" lon="6.19566">
        <ele>1107.2</ele>
        <time>2024-08-13T08:28:16Z</time>
      </trkpt>
      <trkpt lat="44.81665" lon="6.19566">
        <ele>1107</ele>
        <time>2024-08-13T08:28:17Z</time>
      </trkpt>
      <trkpt lat="44.81665" lon="6.19566">
        <ele>1107</ele>
        <time>2024-08-13T08:28:18Z</time>
      </trkpt>
      <trkpt lat="44.81665" lon="6.19566">
        <ele>1107.2</ele>
        <time>2024-08-13T08:28:19Z</time>
      </trkpt>
      <trkpt lat="44.81665" lon="6.19566">
        <ele>1107.2</ele>
        <time>2024-08-13T08:28:20Z</time>
      </trkpt>
      <trkpt lat="44.81665" lon="6.19566">
        <ele>1107.2</ele>
        <time>2024-08-13T08:28:21Z</time>
      </trkpt>
      <trkpt lat="44.81665" lon="6.19566">
        <ele>1107.2</ele>
        <time>2024-08-13T08:28:22Z</time>
      </trkpt>
      <trkpt lat="44.81665" lon="6.19566">
        <ele>1107.2</ele>
        <time>2024-08-13T08:28:23Z</time>
      </trkpt>
      <trkpt lat="44.81665" lon="6.19566">
        <ele>1107.2</ele>
        <time>2024-08-13T08:28:24Z</time>
      </trkpt>
      <trkpt lat="44.81665" lon="6.19566">
        <ele>1107.2</ele>
        <time>2024-08-13T08:28:25Z</time>
      </trkpt>
      <trkpt lat="44.81665" lon="6.19566">
        <ele>1107.2</ele>
        <time>2024-08-13T08:28:26Z</time>
      </trkpt>
      <trkpt lat="44.81665" lon="6.19566">
        <ele>1107.2</ele>
        <time>2024-08-13T08:28:27Z</time>
      </trkpt>
      <trkpt lat="44.81665" lon="6.19566">
        <ele>1107</ele>
        <time>2024-08-13T08:28:28Z</time>
      </trkpt>
      <trkpt lat="44.81665" lon="6.19566">
        <ele>1107</ele>
        <time>2024-08-13T08:28:29Z</time>
      </trkpt>
      <trkpt lat="44.81665" lon="6.19566">
        <ele>1107</ele>
        <time>2024-08-13T08:28:30Z</time>
      </trkpt>
      <trkpt lat="44.81665" lon="6.19566">
        <ele>1106.8</ele>
        <time>2024-08-13T08:28:31Z</time>
      </trkpt>
      <trkpt lat="44.81665" lon="6.19566">
        <ele>1106.8</ele>
        <time>2024-08-13T08:28:32Z</time>
      </trkpt>
      <trkpt lat="44.81665" lon="6.19566">
        <ele>1106.8</ele>
        <time>2024-08-13T08:28:33Z</time>
      </trkpt>
      <trkpt lat="44.81665" lon="6.19566">
        <ele>1106.8</ele>
        <time>2024-08-13T08:28:34Z</time>
      </trkpt>
      <trkpt lat="44.81665" lon="6.19566">
        <ele>1106.8</ele>
        <time>2024-08-13T08:28:35Z</time>
      </trkpt>
      <trkpt lat="44.81665" lon="6.19566">
        <ele>1106.8</ele>
        <time>2024-08-13T08:28:36Z</time>
      </trkpt>
      <trkpt lat="44.81665" lon="6.19566">
        <ele>1107.2</ele>
        <time>2024-08-13T08:28:37Z</time>
      </trkpt>
      <trkpt lat="44.81665" lon="6.19566">
        <ele>1107.2</ele>
        <time>2024-08-13T08:28:38Z</time>
      </trkpt>
      <trkpt lat="44.81665" lon="6.19566">
        <ele>1107.2</ele>
        <time>2024-08-13T08:28:39Z</time>
      </trkpt>
      <trkpt lat="44.81665" lon="6.19566">
        <ele>1107</ele>
        <time>2024-08-13T08:28:40Z</time>
      </trkpt>
      <trkpt lat="44.81665" lon="6.19566">
        <ele>1107</ele>
        <time>2024-08-13T08:28:41Z</time>
      </trkpt>
      <trkpt lat="44.81665" lon="6.19566">
        <ele>1106.8</ele>
        <time>2024-08-13T08:28:42Z</time>
      </trkpt>
      <trkpt lat="44.81666" lon="6.19568">
        <ele>1106.8</ele>
        <time>2024-08-13T08:28:43Z</time>
      </trkpt>
      <trkpt lat="44.81666" lon="6.19568">
        <ele>1106.8</ele>
        <time>2024-08-13T08:28:44Z</time>
      </trkpt>
      <trkpt lat="44.81666" lon="6.19568">
        <ele>1106.8</ele>
        <time>2024-08-13T08:28:45Z</time>
      </trkpt>
      <trkpt lat="44.81664" lon="6.19566">
        <ele>1106.8</ele>
        <time>2024-08-13T08:28:46Z</time>
      </trkpt>
      <trkpt lat="44.81664" lon="6.19566">
        <ele>1107</ele>
        <time>2024-08-13T08:28:47Z</time>
      </trkpt>
      <trkpt lat="44.81664" lon="6.19566">
        <ele>1107</ele>
        <time>2024-08-13T08:28:48Z</time>
      </trkpt>
      <trkpt lat="44.81663" lon="6.19565">
        <ele>1107</ele>
        <time>2024-08-13T08:28:49Z</time>
      </trkpt>
      <trkpt lat="44.81663" lon="6.19565">
        <ele>1107</ele>
        <time>2024-08-13T08:28:50Z</time>
      </trkpt>
      <trkpt lat="44.81663" lon="6.19565">
        <ele>1107</ele>
        <time>2024-08-13T08:28:51Z</time>
      </trkpt>
      <trkpt lat="44.81663" lon="6.19565">
        <ele>1107.4</ele>
        <time>2024-08-13T08:28:52Z</time>
      </trkpt>
      <trkpt lat="44.81661" lon="6.19563">
        <ele>1107.4</ele>
        <time>2024-08-13T08:28:53Z</time>
      </trkpt>
      <trkpt lat="44.81661" lon="6.19563">
        <ele>1107.6</ele>
        <time>2024-08-13T08:28:54Z</time>
      </trkpt>
      <trkpt lat="44.81661" lon="6.19563">
        <ele>1107.6</ele>
        <time>2024-08-13T08:28:55Z</time>
      </trkpt>
      <trkpt lat="44.81661" lon="6.19563">
        <ele>1107.6</ele>
        <time>2024-08-13T08:28:56Z</time>
      </trkpt>
      <trkpt lat="44.81661" lon="6.19563">
        <ele>1107.6</ele>
        <time>2024-08-13T08:28:57Z</time>
      </trkpt>
      <trkpt lat="44.81661" lon="6.19563">
        <ele>1107.6</ele>
        <time>2024-08-13T08:28:58Z</time>
      </trkpt>
      <trkpt lat="44.81661" lon="6.19563">
        <ele>1107.4</ele>
        <time>2024-08-13T08:28:59Z</time>
      </trkpt>
      <trkpt lat="44.81661" lon="6.19563">
        <ele>1107.4</ele>
        <time>2024-08-13T08:29:00Z</time>
      </trkpt>
      <trkpt lat="44.81661" lon="6.19563">
        <ele>1107.6</ele>
        <time>2024-08-13T08:29:01Z</time>
      </trkpt>
      <trkpt lat="44.81661" lon="6.19563">
        <ele>1107.8</ele>
        <time>2024-08-13T08:29:02Z</time>
      </trkpt>
      <trkpt lat="44.81661" lon="6.19563">
        <ele>1107.8</ele>
        <time>2024-08-13T08:29:03Z</time>
      </trkpt>
      <trkpt lat="44.81661" lon="6.19563">
        <ele>1107.6</ele>
        <time>2024-08-13T08:29:04Z</time>
      </trkpt>
      <trkpt lat="44.81661" lon="6.19563">
        <ele>1107.6</ele>
        <time>2024-08-13T08:29:05Z</time>
      </trkpt>
      <trkpt lat="44.81661" lon="6.19563">
        <ele>1107.4</ele>
        <time>2024-08-13T08:29:06Z</time>
      </trkpt>
      <trkpt lat="44.81661" lon="6.19563">
        <ele>1107.4</ele>
        <time>2024-08-13T08:29:07Z</time>
      </trkpt>
      <trkpt lat="44.81661" lon="6.19563">
        <ele>1107.4</ele>
        <time>2024-08-13T08:29:08Z</time>
      </trkpt>
      <trkpt lat="44.81661" lon="6.19563">
        <ele>1107.4</ele>
        <time>2024-08-13T08:29:09Z</time>
      </trkpt>
      <trkpt lat="44.81661" lon="6.19563">
        <ele>1107.2</ele>
        <time>2024-08-13T08:29:10Z</time>
      </trkpt>
      <trkpt lat="44.81661" lon="6.19563">
        <ele>1107.2</ele>
        <time>2024-08-13T08:29:11Z</time>
      </trkpt>
      <trkpt lat="44.81661" lon="6.19563">
        <ele>1107.2</ele>
        <time>2024-08-13T08:29:12Z</time>
      </trkpt>
      <trkpt lat="44.81661" lon="6.19563">
        <ele>1107.2</ele>
        <time>2024-08-13T08:29:13Z</time>
      </trkpt>
      <trkpt lat="44.81661" lon="6.19563">
        <ele>1107</ele>
        <time>2024-08-13T08:29:14Z</time>
      </trkpt>
      <trkpt lat="44.81661" lon="6.19563">
        <ele>1107</ele>
        <time>2024-08-13T08:29:15Z</time>
      </trkpt>
      <trkpt lat="44.81661" lon="6.19563">
        <ele>1107</ele>
        <time>2024-08-13T08:29:16Z</time>
      </trkpt>
      <trkpt lat="44.81661" lon="6.19563">
        <ele>1107</ele>
        <time>2024-08-13T08:29:17Z</time>
      </trkpt>
      <trkpt lat="44.81661" lon="6.19563">
        <ele>1107</ele>
        <time>2024-08-13T08:29:18Z</time>
      </trkpt>
      <trkpt lat="44.81661" lon="6.19563">
        <ele>1107</ele>
        <time>2024-08-13T08:29:19Z</time>
      </trkpt>
      <trkpt lat="44.81661" lon="6.19563">
        <ele>1106.8</ele>
        <time>2024-08-13T08:29:20Z</time>
      </trkpt>
      <trkpt lat="44.81661" lon="6.19563">
        <ele>1106.8</ele>
        <time>2024-08-13T08:29:21Z</time>
      </trkpt>
      <trkpt lat="44.81661" lon="6.19563">
        <ele>1107.4</ele>
        <time>2024-08-13T08:29:22Z</time>
      </trkpt>
      <trkpt lat="44.81661" lon="6.19563">
        <ele>1107.4</ele>
        <time>2024-08-13T08:29:23Z</time>
      </trkpt>
      <trkpt lat="44.81661" lon="6.19563">
        <ele>1107.2</ele>
        <time>2024-08-13T08:29:24Z</time>
      </trkpt>
      <trkpt lat="44.81661" lon="6.19563">
        <ele>1107.2</ele>
        <time>2024-08-13T08:29:25Z</time>
      </trkpt>
      <trkpt lat="44.81661" lon="6.19563">
        <ele>1107.4</ele>
        <time>2024-08-13T08:29:26Z</time>
      </trkpt>
      <trkpt lat="44.81661" lon="6.19563">
        <ele>1107.4</ele>
        <time>2024-08-13T08:29:27Z</time>
      </trkpt>
      <trkpt lat="44.81661" lon="6.19563">
        <ele>1107.6</ele>
        <time>2024-08-13T08:29:28Z</time>
      </trkpt>
      <trkpt lat="44.81661" lon="6.19563">
        <ele>1107.6</ele>
        <time>2024-08-13T08:29:29Z</time>
      </trkpt>
      <trkpt lat="44.81661" lon="6.19563">
        <ele>1107.6</ele>
        <time>2024-08-13T08:29:30Z</time>
      </trkpt>
      <trkpt lat="44.81661" lon="6.19563">
        <ele>1107.8</ele>
        <time>2024-08-13T08:29:31Z</time>
      </trkpt>
      <trkpt lat="44.81661" lon="6.19563">
        <ele>1108</ele>
        <time>2024-08-13T08:29:32Z</time>
      </trkpt>
      <trkpt lat="44.81661" lon="6.19563">
        <ele>1108</ele>
        <time>2024-08-13T08:29:33Z</time>
      </trkpt>
      <trkpt lat="44.81661" lon="6.19563">
        <ele>1107.6</ele>
        <time>2024-08-13T08:29:34Z</time>
      </trkpt>
      <trkpt lat="44.81661" lon="6.19563">
        <ele>1107.6</ele>
        <time>2024-08-13T08:29:35Z</time>
      </trkpt>
      <trkpt lat="44.81661" lon="6.19563">
        <ele>1107.6</ele>
        <time>2024-08-13T08:29:36Z</time>
      </trkpt>
      <trkpt lat="44.81661" lon="6.19563">
        <ele>1107.6</ele>
        <time>2024-08-13T08:29:37Z</time>
      </trkpt>
      <trkpt lat="44.81661" lon="6.19563">
        <ele>1107.6</ele>
        <time>2024-08-13T08:29:38Z</time>
      </trkpt>
      <trkpt lat="44.81661" lon="6.19563">
        <ele>1107.6</ele>
        <time>2024-08-13T08:29:39Z</time>
      </trkpt>
      <trkpt lat="44.81661" lon="6.19563">
        <ele>1107.4</ele>
        <time>2024-08-13T08:29:40Z</time>
      </trkpt>
      <trkpt lat="44.81661" lon="6.19563">
        <ele>1107.4</ele>
        <time>2024-08-13T08:29:41Z</time>
      </trkpt>
      <trkpt lat="44.81661" lon="6.19563">
        <ele>1107.4</ele>
        <time>2024-08-13T08:29:42Z</time>
      </trkpt>
      <trkpt lat="44.81661" lon="6.19563">
        <ele>1107.4</ele>
        <time>2024-08-13T08:29:43Z</time>
      </trkpt>
      <trkpt lat="44.81661" lon="6.19563">
        <ele>1107.2</ele>
        <time>2024-08-13T08:29:44Z</time>
      </trkpt>
      <trkpt lat="44.81661" lon="6.19563">
        <ele>1107.2</ele>
        <time>2024-08-13T08:29:45Z</time>
      </trkpt>
      <trkpt lat="44.81661" lon="6.19563">
        <ele>1107.2</ele>
        <time>2024-08-13T08:29:46Z</time>
      </trkpt>
      <trkpt lat="44.81661" lon="6.19563">
        <ele>1107.2</ele>
        <time>2024-08-13T08:29:47Z</time>
      </trkpt>
      <trkpt lat="44.81661" lon="6.19563">
        <ele>1107.2</ele>
        <time>2024-08-13T08:29:48Z</time>
      </trkpt>
      <trkpt lat="44.81661" lon="6.19563">
        <ele>1107.2</ele>
        <time>2024-08-13T08:29:49Z</time>
      </trkpt>
      <trkpt lat="44.81661" lon="6.19563">
        <ele>1107.6</ele>
        <time>2024-08-13T08:29:50Z</time>
      </trkpt>
      <trkpt lat="44.81661" lon="6.19563">
        <ele>1107.6</ele>
        <time>2024-08-13T08:29:51Z</time>
      </trkpt>
      <trkpt lat="44.81661" lon="6.19563">
        <ele>1107.6</ele>
        <time>2024-08-13T08:29:52Z</time>
      </trkpt>
      <trkpt lat="44.81661" lon="6.19563">
        <ele>1107.6</ele>
        <time>2024-08-13T08:29:53Z</time>
      </trkpt>
      <trkpt lat="44.81661" lon="6.19563">
        <ele>1107.6</ele>
        <time>2024-08-13T08:29:54Z</time>
      </trkpt>
      <trkpt lat="44.81661" lon="6.19563">
        <ele>1107.6</ele>
        <time>2024-08-13T08:29:55Z</time>
      </trkpt>
      <trkpt lat="44.81661" lon="6.19563">
        <ele>1108</ele>
        <time>2024-08-13T08:29:56Z</time>
      </trkpt>
      <trkpt lat="44.81661" lon="6.19563">
        <ele>1108</ele>
        <time>2024-08-13T08:29:57Z</time>
      </trkpt>
      <trkpt lat="44.81661" lon="6.19563">
        <ele>1108</ele>
        <time>2024-08-13T08:29:58Z</time>
      </trkpt>
      <trkpt lat="44.81661" lon="6.19563">
        <ele>1107.8</ele>
        <time>2024-08-13T08:29:59Z</time>
      </trkpt>
      <trkpt lat="44.81661" lon="6.19563">
        <ele>1107.6</ele>
        <time>2024-08-13T08:30:00Z</time>
      </trkpt>
      <trkpt lat="44.81661" lon="6.19563">
        <ele>1107.6</ele>
        <time>2024-08-13T08:30:01Z</time>
      </trkpt>
      <trkpt lat="44.81661" lon="6.19563">
        <ele>1107.8</ele>
        <time>2024-08-13T08:30:02Z</time>
      </trkpt>
      <trkpt lat="44.81661" lon="6.19563">
        <ele>1107.8</ele>
        <time>2024-08-13T08:30:03Z</time>
      </trkpt>
      <trkpt lat="44.81661" lon="6.19563">
        <ele>1107.8</ele>
        <time>2024-08-13T08:30:04Z</time>
      </trkpt>
      <trkpt lat="44.81661" lon="6.19563">
        <ele>1107.8</ele>
        <time>2024-08-13T08:30:05Z</time>
      </trkpt>
      <trkpt lat="44.81661" lon="6.19563">
        <ele>1107.6</ele>
        <time>2024-08-13T08:30:06Z</time>
      </trkpt>
      <trkpt lat="44.81661" lon="6.19563">
        <ele>1107.6</ele>
        <time>2024-08-13T08:30:07Z</time>
      </trkpt>
      <trkpt lat="44.81661" lon="6.19563">
        <ele>1107.4</ele>
        <time>2024-08-13T08:30:08Z</time>
      </trkpt>
      <trkpt lat="44.81661" lon="6.19563">
        <ele>1107.6</ele>
        <time>2024-08-13T08:30:09Z</time>
      </trkpt>
      <trkpt lat="44.81661" lon="6.19563">
        <ele>1107.6</ele>
        <time>2024-08-13T08:30:10Z</time>
      </trkpt>
      <trkpt lat="44.81661" lon="6.19563">
        <ele>1107.6</ele>
        <time>2024-08-13T08:30:11Z</time>
      </trkpt>
      <trkpt lat="44.81661" lon="6.19563">
        <ele>1107.6</ele>
        <time>2024-08-13T08:30:12Z</time>
      </trkpt>
      <trkpt lat="44.81661" lon="6.19563">
        <ele>1107.6</ele>
        <time>2024-08-13T08:30:13Z</time>
      </trkpt>
      <trkpt lat="44.81661" lon="6.19563">
        <ele>1107.6</ele>
        <time>2024-08-13T08:30:14Z</time>
      </trkpt>
      <trkpt lat="44.81661" lon="6.19563">
        <ele>1107.6</ele>
        <time>2024-08-13T08:30:15Z</time>
      </trkpt>
      <trkpt lat="44.81661" lon="6.19563">
        <ele>1107.6</ele>
        <time>2024-08-13T08:30:16Z</time>
      </trkpt>
      <trkpt lat="44.81661" lon="6.19563">
        <ele>1107.6</ele>
        <time>2024-08-13T08:30:17Z</time>
      </trkpt>
      <trkpt lat="44.81661" lon="6.19563">
        <ele>1107.6</ele>
        <time>2024-08-13T08:30:18Z</time>
      </trkpt>
      <trkpt lat="44.81661" lon="6.19563">
        <ele>1107.6</ele>
        <time>2024-08-13T08:30:19Z</time>
      </trkpt>
      <trkpt lat="44.81661" lon="6.19563">
        <ele>1107.6</ele>
        <time>2024-08-13T08:30:20Z</time>
      </trkpt>
      <trkpt lat="44.81661" lon="6.19563">
        <ele>1107.6</ele>
        <time>2024-08-13T08:30:21Z</time>
      </trkpt>
      <trkpt lat="44.81661" lon="6.19563">
        <ele>1107.4</ele>
        <time>2024-08-13T08:30:22Z</time>
      </trkpt>
      <trkpt lat="44.81661" lon="6.19563">
        <ele>1107.4</ele>
        <time>2024-08-13T08:30:23Z</time>
      </trkpt>
      <trkpt lat="44.81661" lon="6.19563">
        <ele>1107.4</ele>
        <time>2024-08-13T08:30:24Z</time>
      </trkpt>
      <trkpt lat="44.81661" lon="6.19563">
        <ele>1107.8</ele>
        <time>2024-08-13T08:30:25Z</time>
      </trkpt>
      <trkpt lat="44.81661" lon="6.19563">
        <ele>1107.8</ele>
        <time>2024-08-13T08:30:26Z</time>
      </trkpt>
      <trkpt lat="44.81661" lon="6.19563">
        <ele>1107.6</ele>
        <time>2024-08-13T08:30:27Z</time>
      </trkpt>
      <trkpt lat="44.81661" lon="6.19563">
        <ele>1107.6</ele>
        <time>2024-08-13T08:30:28Z</time>
      </trkpt>
      <trkpt lat="44.81661" lon="6.19563">
        <ele>1107.6</ele>
        <time>2024-08-13T08:30:29Z</time>
      </trkpt>
      <trkpt lat="44.81661" lon="6.19563">
        <ele>1107.6</ele>
        <time>2024-08-13T08:30:30Z</time>
      </trkpt>
      <trkpt lat="44.81661" lon="6.19563">
        <ele>1107.6</ele>
        <time>2024-08-13T08:30:31Z</time>
      </trkpt>
      <trkpt lat="44.81661" lon="6.19563">
        <ele>1107.6</ele>
        <time>2024-08-13T08:30:32Z</time>
      </trkpt>
      <trkpt lat="44.81661" lon="6.19563">
        <ele>1107.6</ele>
        <time>2024-08-13T08:30:33Z</time>
      </trkpt>
      <trkpt lat="44.81663" lon="6.19562">
        <ele>1107.6</ele>
        <time>2024-08-13T08:30:34Z</time>
      </trkpt>
      <trkpt lat="44.81663" lon="6.19562">
        <ele>1107.6</ele>
        <time>2024-08-13T08:30:35Z</time>
      </trkpt>
      <trkpt lat="44.81663" lon="6.19562">
        <ele>1107.4</ele>
        <time>2024-08-13T08:30:36Z</time>
      </trkpt>
      <trkpt lat="44.81661" lon="6.19563">
        <ele>1107.4</ele>
        <time>2024-08-13T08:30:37Z</time>
      </trkpt>
      <trkpt lat="44.81661" lon="6.19563">
        <ele>1108</ele>
        <time>2024-08-13T08:30:38Z</time>
      </trkpt>
      <trkpt lat="44.81658" lon="6.19563">
        <ele>1108</ele>
        <time>2024-08-13T08:30:39Z</time>
      </trkpt>
      <trkpt lat="44.81658" lon="6.19563">
        <ele>1107.8</ele>
        <time>2024-08-13T08:30:40Z</time>
      </trkpt>
      <trkpt lat="44.81655" lon="6.19562">
        <ele>1107</ele>
        <time>2024-08-13T08:30:41Z</time>
      </trkpt>
      <trkpt lat="44.81655" lon="6.19562">
        <ele>1107</ele>
        <time>2024-08-13T08:30:42Z</time>
      </trkpt>
      <trkpt lat="44.81655" lon="6.19562">
        <ele>1107</ele>
        <time>2024-08-13T08:30:43Z</time>
      </trkpt>
      <trkpt lat="44.81653" lon="6.1956">
        <ele>1107</ele>
        <time>2024-08-13T08:30:44Z</time>
      </trkpt>
      <trkpt lat="44.81653" lon="6.1956">
        <ele>1107</ele>
        <time>2024-08-13T08:30:45Z</time>
      </trkpt>
      <trkpt lat="44.81651" lon="6.19558">
        <ele>1107</ele>
        <time>2024-08-13T08:30:46Z</time>
      </trkpt>
      <trkpt lat="44.81651" lon="6.19558">
        <ele>1106.8</ele>
        <time>2024-08-13T08:30:47Z</time>
      </trkpt>
      <trkpt lat="44.81649" lon="6.19555">
        <ele>1106.8</ele>
        <time>2024-08-13T08:30:48Z</time>
      </trkpt>
      <trkpt lat="44.81649" lon="6.19555">
        <ele>1106.4</ele>
        <time>2024-08-13T08:30:49Z</time>
      </trkpt>
      <trkpt lat="44.81647" lon="6.19553">
        <ele>1106.4</ele>
        <time>2024-08-13T08:30:50Z</time>
      </trkpt>
      <trkpt lat="44.81647" lon="6.19553">
        <ele>1106.4</ele>
        <time>2024-08-13T08:30:51Z</time>
      </trkpt>
      <trkpt lat="44.81645" lon="6.1955">
        <ele>1106.4</ele>
        <time>2024-08-13T08:30:52Z</time>
      </trkpt>
      <trkpt lat="44.81645" lon="6.1955">
        <ele>1106</ele>
        <time>2024-08-13T08:30:53Z</time>
      </trkpt>
      <trkpt lat="44.81643" lon="6.19546">
        <ele>1106</ele>
        <time>2024-08-13T08:30:54Z</time>
      </trkpt>
      <trkpt lat="44.81643" lon="6.19546">
        <ele>1106</ele>
        <time>2024-08-13T08:30:55Z</time>
      </trkpt>
      <trkpt lat="44.81641" lon="6.19544">
        <ele>1105.8</ele>
        <time>2024-08-13T08:30:56Z</time>
      </trkpt>
      <trkpt lat="44.81641" lon="6.19544">
        <ele>1105.8</ele>
        <time>2024-08-13T08:30:57Z</time>
      </trkpt>
      <trkpt lat="44.81639" lon="6.1954">
        <ele>1106.4</ele>
        <time>2024-08-13T08:30:58Z</time>
      </trkpt>
      <trkpt lat="44.81639" lon="6.1954">
        <ele>1106.4</ele>
        <time>2024-08-13T08:30:59Z</time>
      </trkpt>
      <trkpt lat="44.81637" lon="6.19537">
        <ele>1106</ele>
        <time>2024-08-13T08:31:00Z</time>
      </trkpt>
      <trkpt lat="44.81637" lon="6.19533">
        <ele>1106</ele>
        <time>2024-08-13T08:31:01Z</time>
      </trkpt>
      <trkpt lat="44.81637" lon="6.19531">
        <ele>1106.4</ele>
        <time>2024-08-13T08:31:02Z</time>
      </trkpt>
      <trkpt lat="44.81637" lon="6.19531">
        <ele>1106.4</ele>
        <time>2024-08-13T08:31:03Z</time>
      </trkpt>
      <trkpt lat="44.81637" lon="6.19526">
        <ele>1106.4</ele>
        <time>2024-08-13T08:31:04Z</time>
      </trkpt>
      <trkpt lat="44.81637" lon="6.19526">
        <ele>1106.4</ele>
        <time>2024-08-13T08:31:05Z</time>
      </trkpt>
      <trkpt lat="44.81637" lon="6.19522">
        <ele>1106.2</ele>
        <time>2024-08-13T08:31:06Z</time>
      </trkpt>
      <trkpt lat="44.81637" lon="6.19522">
        <ele>1106.2</ele>
        <time>2024-08-13T08:31:07Z</time>
      </trkpt>
      <trkpt lat="44.81637" lon="6.19518">
        <ele>1106.2</ele>
        <time>2024-08-13T08:31:08Z</time>
      </trkpt>
      <trkpt lat="44.81637" lon="6.19518">
        <ele>1106.4</ele>
        <time>2024-08-13T08:31:09Z</time>
      </trkpt>
      <trkpt lat="44.81637" lon="6.19514">
        <ele>1106.4</ele>
        <time>2024-08-13T08:31:10Z</time>
      </trkpt>
      <trkpt lat="44.81637" lon="6.19514">
        <ele>1106.2</ele>
        <time>2024-08-13T08:31:11Z</time>
      </trkpt>
      <trkpt lat="44.81637" lon="6.19509">
        <ele>1106</ele>
        <time>2024-08-13T08:31:12Z</time>
      </trkpt>
      <trkpt lat="44.81637" lon="6.19509">
        <ele>1106</ele>
        <time>2024-08-13T08:31:13Z</time>
      </trkpt>
      <trkpt lat="44.81639" lon="6.19506">
        <ele>1105.8</ele>
        <time>2024-08-13T08:31:14Z</time>
      </trkpt>
      <trkpt lat="44.81639" lon="6.19506">
        <ele>1105.8</ele>
        <time>2024-08-13T08:31:15Z</time>
      </trkpt>
      <trkpt lat="44.81641" lon="6.19501">
        <ele>1105.8</ele>
        <time>2024-08-13T08:31:16Z</time>
      </trkpt>
      <trkpt lat="44.81641" lon="6.19501">
        <ele>1105.8</ele>
        <time>2024-08-13T08:31:17Z</time>
      </trkpt>
      <trkpt lat="44.81643" lon="6.19498">
        <ele>1105.8</ele>
        <time>2024-08-13T08:31:18Z</time>
      </trkpt>
      <trkpt lat="44.81643" lon="6.19498">
        <ele>1105.6</ele>
        <time>2024-08-13T08:31:19Z</time>
      </trkpt>
      <trkpt lat="44.81644" lon="6.19494">
        <ele>1105.6</ele>
        <time>2024-08-13T08:31:20Z</time>
      </trkpt>
      <trkpt lat="44.81644" lon="6.19494">
        <ele>1105.6</ele>
        <time>2024-08-13T08:31:21Z</time>
      </trkpt>
      <trkpt lat="44.81646" lon="6.19492">
        <ele>1105.6</ele>
        <time>2024-08-13T08:31:22Z</time>
      </trkpt>
      <trkpt lat="44.81646" lon="6.19492">
        <ele>1105.6</ele>
        <time>2024-08-13T08:31:23Z</time>
      </trkpt>
      <trkpt lat="44.81649" lon="6.1949">
        <ele>1105.4</ele>
        <time>2024-08-13T08:31:24Z</time>
      </trkpt>
      <trkpt lat="44.81649" lon="6.1949">
        <ele>1105.4</ele>
        <time>2024-08-13T08:31:25Z</time>
      </trkpt>
      <trkpt lat="44.81652" lon="6.19488">
        <ele>1105.2</ele>
        <time>2024-08-13T08:31:26Z</time>
      </trkpt>
      <trkpt lat="44.81652" lon="6.19488">
        <ele>1105.2</ele>
        <time>2024-08-13T08:31:27Z</time>
      </trkpt>
      <trkpt lat="44.81653" lon="6.19485">
        <ele>1105.2</ele>
        <time>2024-08-13T08:31:28Z</time>
      </trkpt>
      <trkpt lat="44.81653" lon="6.19485">
        <ele>1105.2</ele>
        <time>2024-08-13T08:31:29Z</time>
      </trkpt>
      <trkpt lat="44.81653" lon="6.19485">
        <ele>1105.2</ele>
        <time>2024-08-13T08:31:30Z</time>
      </trkpt>
      <trkpt lat="44.81653" lon="6.19485">
        <ele>1105.2</ele>
        <time>2024-08-13T08:31:31Z</time>
      </trkpt>
      <trkpt lat="44.81654" lon="6.19483">
        <ele>1105.2</ele>
        <time>2024-08-13T08:31:32Z</time>
      </trkpt>
      <trkpt lat="44.81654" lon="6.19483">
        <ele>1105.2</ele>
        <time>2024-08-13T08:31:33Z</time>
      </trkpt>
      <trkpt lat="44.81654" lon="6.1948">
        <ele>1105.2</ele>
        <time>2024-08-13T08:31:34Z</time>
      </trkpt>
      <trkpt lat="44.81654" lon="6.1948">
        <ele>1105.2</ele>
        <time>2024-08-13T08:31:35Z</time>
      </trkpt>
      <trkpt lat="44.81653" lon="6.19478">
        <ele>1105</ele>
        <time>2024-08-13T08:31:36Z</time>
      </trkpt>
      <trkpt lat="44.81653" lon="6.19478">
        <ele>1105</ele>
        <time>2024-08-13T08:31:37Z</time>
      </trkpt>
      <trkpt lat="44.81651" lon="6.19477">
        <ele>1105</ele>
        <time>2024-08-13T08:31:38Z</time>
      </trkpt>
      <trkpt lat="44.81651" lon="6.19477">
        <ele>1105</ele>
        <time>2024-08-13T08:31:39Z</time>
      </trkpt>
      <trkpt lat="44.81651" lon="6.19477">
        <ele>1105</ele>
        <time>2024-08-13T08:31:40Z</time>
      </trkpt>
      <trkpt lat="44.81651" lon="6.19477">
        <ele>1105</ele>
        <time>2024-08-13T08:31:41Z</time>
      </trkpt>
      <trkpt lat="44.81651" lon="6.19477">
        <ele>1105</ele>
        <time>2024-08-13T08:31:42Z</time>
      </trkpt>
      <trkpt lat="44.81651" lon="6.19477">
        <ele>1105</ele>
        <time>2024-08-13T08:31:43Z</time>
      </trkpt>
      <trkpt lat="44.81651" lon="6.19477">
        <ele>1105</ele>
        <time>2024-08-13T08:31:44Z</time>
      </trkpt>
      <trkpt lat="44.81651" lon="6.19477">
        <ele>1104.8</ele>
        <time>2024-08-13T08:31:45Z</time>
      </trkpt>
      <trkpt lat="44.81651" lon="6.19477">
        <ele>1104.8</ele>
        <time>2024-08-13T08:31:46Z</time>
      </trkpt>
      <trkpt lat="44.81651" lon="6.19477">
        <ele>1104.8</ele>
        <time>2024-08-13T08:31:47Z</time>
      </trkpt>
      <trkpt lat="44.81651" lon="6.19477">
        <ele>1104.8</ele>
        <time>2024-08-13T08:31:48Z</time>
      </trkpt>
      <trkpt lat="44.81651" lon="6.19477">
        <ele>1104.8</ele>
        <time>2024-08-13T08:31:49Z</time>
      </trkpt>
      <trkpt lat="44.81651" lon="6.19477">
        <ele>1104.8</ele>
        <time>2024-08-13T08:31:50Z</time>
      </trkpt>
      <trkpt lat="44.81651" lon="6.19477">
        <ele>1104.8</ele>
        <time>2024-08-13T08:31:51Z</time>
      </trkpt>
      <trkpt lat="44.81651" lon="6.19477">
        <ele>1104.8</ele>
        <time>2024-08-13T08:31:52Z</time>
      </trkpt>
      <trkpt lat="44.81651" lon="6.19477">
        <ele>1104.8</ele>
        <time>2024-08-13T08:31:53Z</time>
      </trkpt>
      <trkpt lat="44.81651" lon="6.19477">
        <ele>1104.8</ele>
        <time>2024-08-13T08:31:54Z</time>
      </trkpt>
      <trkpt lat="44.81651" lon="6.19477">
        <ele>1104.6</ele>
        <time>2024-08-13T08:31:55Z</time>
      </trkpt>
      <trkpt lat="44.81651" lon="6.19477">
        <ele>1104.6</ele>
        <time>2024-08-13T08:31:56Z</time>
      </trkpt>
      <trkpt lat="44.81651" lon="6.19477">
        <ele>1104.6</ele>
        <time>2024-08-13T08:31:57Z</time>
      </trkpt>
      <trkpt lat="44.81651" lon="6.19477">
        <ele>1104.6</ele>
        <time>2024-08-13T08:31:58Z</time>
      </trkpt>
      <trkpt lat="44.81649" lon="6.19474">
        <ele>1104.6</ele>
        <time>2024-08-13T08:31:59Z</time>
      </trkpt>
      <trkpt lat="44.81649" lon="6.19474">
        <ele>1104.6</ele>
        <time>2024-08-13T08:32:00Z</time>
      </trkpt>
      <trkpt lat="44.81649" lon="6.19474">
        <ele>1104.6</ele>
        <time>2024-08-13T08:32:01Z</time>
      </trkpt>
      <trkpt lat="44.81647" lon="6.19474">
        <ele>1104.6</ele>
        <time>2024-08-13T08:32:02Z</time>
      </trkpt>
      <trkpt lat="44.81647" lon="6.19474">
        <ele>1104.6</ele>
        <time>2024-08-13T08:32:03Z</time>
      </trkpt>
      <trkpt lat="44.81647" lon="6.19474">
        <ele>1104.6</ele>
        <time>2024-08-13T08:32:04Z</time>
      </trkpt>
      <trkpt lat="44.81647" lon="6.19474">
        <ele>1104.4</ele>
        <time>2024-08-13T08:32:05Z</time>
      </trkpt>
      <trkpt lat="44.81647" lon="6.19474">
        <ele>1104.4</ele>
        <time>2024-08-13T08:32:06Z</time>
      </trkpt>
      <trkpt lat="44.81645" lon="6.19472">
        <ele>1104.6</ele>
        <time>2024-08-13T08:32:07Z</time>
      </trkpt>
      <trkpt lat="44.81645" lon="6.19472">
        <ele>1104.6</ele>
        <time>2024-08-13T08:32:08Z</time>
      </trkpt>
      <trkpt lat="44.81645" lon="6.19472">
        <ele>1104.6</ele>
        <time>2024-08-13T08:32:09Z</time>
      </trkpt>
      <trkpt lat="44.81647" lon="6.19471">
        <ele>1104.6</ele>
        <time>2024-08-13T08:32:10Z</time>
      </trkpt>
      <trkpt lat="44.81647" lon="6.19471">
        <ele>1104.6</ele>
        <time>2024-08-13T08:32:11Z</time>
      </trkpt>
      <trkpt lat="44.81647" lon="6.19471">
        <ele>1104.6</ele>
        <time>2024-08-13T08:32:12Z</time>
      </trkpt>
      <trkpt lat="44.81647" lon="6.19471">
        <ele>1104.6</ele>
        <time>2024-08-13T08:32:13Z</time>
      </trkpt>
      <trkpt lat="44.81647" lon="6.19471">
        <ele>1104.6</ele>
        <time>2024-08-13T08:32:14Z</time>
      </trkpt>
      <trkpt lat="44.81647" lon="6.19471">
        <ele>1104.6</ele>
        <time>2024-08-13T08:32:15Z</time>
      </trkpt>
      <trkpt lat="44.81647" lon="6.19471">
        <ele>1104.6</ele>
        <time>2024-08-13T08:32:16Z</time>
      </trkpt>
      <trkpt lat="44.81647" lon="6.19471">
        <ele>1104.8</ele>
        <time>2024-08-13T08:32:17Z</time>
      </trkpt>
      <trkpt lat="44.81647" lon="6.19471">
        <ele>1104.8</ele>
        <time>2024-08-13T08:32:18Z</time>
      </trkpt>
      <trkpt lat="44.81647" lon="6.19471">
        <ele>1104.8</ele>
        <time>2024-08-13T08:32:19Z</time>
      </trkpt>
      <trkpt lat="44.81647" lon="6.19471">
        <ele>1104.8</ele>
        <time>2024-08-13T08:32:20Z</time>
      </trkpt>
      <trkpt lat="44.81649" lon="6.1947">
        <ele>1104.6</ele>
        <time>2024-08-13T08:32:21Z</time>
      </trkpt>
      <trkpt lat="44.81649" lon="6.1947">
        <ele>1104.4</ele>
        <time>2024-08-13T08:32:22Z</time>
      </trkpt>
      <trkpt lat="44.81649" lon="6.1947">
        <ele>1104.4</ele>
        <time>2024-08-13T08:32:23Z</time>
      </trkpt>
      <trkpt lat="44.81652" lon="6.19469">
        <ele>1104.4</ele>
        <time>2024-08-13T08:32:24Z</time>
      </trkpt>
      <trkpt lat="44.81652" lon="6.19469">
        <ele>1104.6</ele>
        <time>2024-08-13T08:32:25Z</time>
      </trkpt>
      <trkpt lat="44.81652" lon="6.19469">
        <ele>1104.6</ele>
        <time>2024-08-13T08:32:26Z</time>
      </trkpt>
      <trkpt lat="44.81652" lon="6.19469">
        <ele>1104.6</ele>
        <time>2024-08-13T08:32:27Z</time>
      </trkpt>
      <trkpt lat="44.81652" lon="6.19469">
        <ele>1104.6</ele>
        <time>2024-08-13T08:32:28Z</time>
      </trkpt>
      <trkpt lat="44.81653" lon="6.19467">
        <ele>1104.4</ele>
        <time>2024-08-13T08:32:29Z</time>
      </trkpt>
      <trkpt lat="44.81653" lon="6.19467">
        <ele>1104.4</ele>
        <time>2024-08-13T08:32:30Z</time>
      </trkpt>
      <trkpt lat="44.81653" lon="6.19467">
        <ele>1104.4</ele>
        <time>2024-08-13T08:32:31Z</time>
      </trkpt>
      <trkpt lat="44.81654" lon="6.19464">
        <ele>1104.4</ele>
        <time>2024-08-13T08:32:32Z</time>
      </trkpt>
      <trkpt lat="44.81654" lon="6.19464">
        <ele>1104.4</ele>
        <time>2024-08-13T08:32:33Z</time>
      </trkpt>
      <trkpt lat="44.81654" lon="6.19464">
        <ele>1104.4</ele>
        <time>2024-08-13T08:32:34Z</time>
      </trkpt>
      <trkpt lat="44.81654" lon="6.19464">
        <ele>1104.4</ele>
        <time>2024-08-13T08:32:35Z</time>
      </trkpt>
      <trkpt lat="44.81654" lon="6.19464">
        <ele>1104.4</ele>
        <time>2024-08-13T08:32:36Z</time>
      </trkpt>
      <trkpt lat="44.81654" lon="6.19464">
        <ele>1104.2</ele>
        <time>2024-08-13T08:32:37Z</time>
      </trkpt>
      <trkpt lat="44.81654" lon="6.19464">
        <ele>1104.2</ele>
        <time>2024-08-13T08:32:38Z</time>
      </trkpt>
      <trkpt lat="44.81654" lon="6.19464">
        <ele>1104.4</ele>
        <time>2024-08-13T08:32:39Z</time>
      </trkpt>
      <trkpt lat="44.81654" lon="6.19464">
        <ele>1104.4</ele>
        <time>2024-08-13T08:32:40Z</time>
      </trkpt>
      <trkpt lat="44.81654" lon="6.19464">
        <ele>1104.4</ele>
        <time>2024-08-13T08:32:41Z</time>
      </trkpt>
      <trkpt lat="44.81654" lon="6.19464">
        <ele>1104.4</ele>
        <time>2024-08-13T08:32:42Z</time>
      </trkpt>
      <trkpt lat="44.81654" lon="6.19464">
        <ele>1104.4</ele>
        <time>2024-08-13T08:32:43Z</time>
      </trkpt>
      <trkpt lat="44.81654" lon="6.19464">
        <ele>1104.4</ele>
        <time>2024-08-13T08:32:44Z</time>
      </trkpt>
      <trkpt lat="44.81654" lon="6.19464">
        <ele>1104.4</ele>
        <time>2024-08-13T08:32:45Z</time>
      </trkpt>
      <trkpt lat="44.81654" lon="6.19464">
        <ele>1104.4</ele>
        <time>2024-08-13T08:32:46Z</time>
      </trkpt>
      <trkpt lat="44.81654" lon="6.19464">
        <ele>1104.4</ele>
        <time>2024-08-13T08:32:47Z</time>
      </trkpt>
      <trkpt lat="44.81654" lon="6.19464">
        <ele>1104.2</ele>
        <time>2024-08-13T08:32:48Z</time>
      </trkpt>
      <trkpt lat="44.81654" lon="6.19464">
        <ele>1104.2</ele>
        <time>2024-08-13T08:32:49Z</time>
      </trkpt>
      <trkpt lat="44.81654" lon="6.19464">
        <ele>1104.2</ele>
        <time>2024-08-13T08:32:50Z</time>
      </trkpt>
      <trkpt lat="44.81654" lon="6.19464">
        <ele>1104.4</ele>
        <time>2024-08-13T08:32:51Z</time>
      </trkpt>
      <trkpt lat="44.81654" lon="6.19464">
        <ele>1104.4</ele>
        <time>2024-08-13T08:32:52Z</time>
      </trkpt>
      <trkpt lat="44.81654" lon="6.19464">
        <ele>1104.4</ele>
        <time>2024-08-13T08:32:53Z</time>
      </trkpt>
      <trkpt lat="44.81654" lon="6.19464">
        <ele>1104.4</ele>
        <time>2024-08-13T08:32:54Z</time>
      </trkpt>
      <trkpt lat="44.81654" lon="6.19464">
        <ele>1104.4</ele>
        <time>2024-08-13T08:32:55Z</time>
      </trkpt>
      <trkpt lat="44.81654" lon="6.19464">
        <ele>1104.4</ele>
        <time>2024-08-13T08:32:56Z</time>
      </trkpt>
      <trkpt lat="44.81654" lon="6.19464">
        <ele>1104.4</ele>
        <time>2024-08-13T08:32:57Z</time>
      </trkpt>
      <trkpt lat="44.81654" lon="6.19464">
        <ele>1104.4</ele>
        <time>2024-08-13T08:32:58Z</time>
      </trkpt>
      <trkpt lat="44.81654" lon="6.19464">
        <ele>1104.2</ele>
        <time>2024-08-13T08:32:59Z</time>
      </trkpt>
      <trkpt lat="44.81654" lon="6.19464">
        <ele>1104.2</ele>
        <time>2024-08-13T08:33:00Z</time>
      </trkpt>
      <trkpt lat="44.81654" lon="6.19464">
        <ele>1104.2</ele>
        <time>2024-08-13T08:33:01Z</time>
      </trkpt>
      <trkpt lat="44.81654" lon="6.19464">
        <ele>1104.2</ele>
        <time>2024-08-13T08:33:02Z</time>
      </trkpt>
      <trkpt lat="44.81654" lon="6.19464">
        <ele>1104.2</ele>
        <time>2024-08-13T08:33:03Z</time>
      </trkpt>
      <trkpt lat="44.81654" lon="6.19464">
        <ele>1104.2</ele>
        <time>2024-08-13T08:33:04Z</time>
      </trkpt>
      <trkpt lat="44.81654" lon="6.19464">
        <ele>1104.2</ele>
        <time>2024-08-13T08:33:05Z</time>
      </trkpt>
      <trkpt lat="44.81656" lon="6.19463">
        <ele>1104.2</ele>
        <time>2024-08-13T08:33:06Z</time>
      </trkpt>
      <trkpt lat="44.81656" lon="6.19463">
        <ele>1104.2</ele>
        <time>2024-08-13T08:33:07Z</time>
      </trkpt>
      <trkpt lat="44.81656" lon="6.19463">
        <ele>1104.2</ele>
        <time>2024-08-13T08:33:08Z</time>
      </trkpt>
      <trkpt lat="44.81656" lon="6.19463">
        <ele>1104.2</ele>
        <time>2024-08-13T08:33:09Z</time>
      </trkpt>
      <trkpt lat="44.81656" lon="6.19463">
        <ele>1104.2</ele>
        <time>2024-08-13T08:33:10Z</time>
      </trkpt>
      <trkpt lat="44.81656" lon="6.19463">
        <ele>1104.2</ele>
        <time>2024-08-13T08:33:11Z</time>
      </trkpt>
      <trkpt lat="44.81656" lon="6.19463">
        <ele>1104</ele>
        <time>2024-08-13T08:33:12Z</time>
      </trkpt>
      <trkpt lat="44.81656" lon="6.19463">
        <ele>1104</ele>
        <time>2024-08-13T08:33:13Z</time>
      </trkpt>
      <trkpt lat="44.81656" lon="6.19463">
        <ele>1104</ele>
        <time>2024-08-13T08:33:14Z</time>
      </trkpt>
      <trkpt lat="44.81656" lon="6.19463">
        <ele>1104</ele>
        <time>2024-08-13T08:33:15Z</time>
      </trkpt>
      <trkpt lat="44.81656" lon="6.19463">
        <ele>1104</ele>
        <time>2024-08-13T08:33:16Z</time>
      </trkpt>
      <trkpt lat="44.81656" lon="6.19463">
        <ele>1103.8</ele>
        <time>2024-08-13T08:33:17Z</time>
      </trkpt>
      <trkpt lat="44.81656" lon="6.19463">
        <ele>1103.8</ele>
        <time>2024-08-13T08:33:18Z</time>
      </trkpt>
      <trkpt lat="44.81656" lon="6.19463">
        <ele>1104</ele>
        <time>2024-08-13T08:33:19Z</time>
      </trkpt>
      <trkpt lat="44.81656" lon="6.19463">
        <ele>1104</ele>
        <time>2024-08-13T08:33:20Z</time>
      </trkpt>
      <trkpt lat="44.81656" lon="6.19463">
        <ele>1104</ele>
        <time>2024-08-13T08:33:21Z</time>
      </trkpt>
      <trkpt lat="44.81656" lon="6.19463">
        <ele>1104</ele>
        <time>2024-08-13T08:33:22Z</time>
      </trkpt>
      <trkpt lat="44.81657" lon="6.19466">
        <ele>1104</ele>
        <time>2024-08-13T08:33:23Z</time>
      </trkpt>
      <trkpt lat="44.81657" lon="6.19466">
        <ele>1104</ele>
        <time>2024-08-13T08:33:24Z</time>
      </trkpt>
      <trkpt lat="44.81657" lon="6.19466">
        <ele>1104</ele>
        <time>2024-08-13T08:33:25Z</time>
      </trkpt>
      <trkpt lat="44.81657" lon="6.19466">
        <ele>1104</ele>
        <time>2024-08-13T08:33:26Z</time>
      </trkpt>
      <trkpt lat="44.81657" lon="6.19466">
        <ele>1104</ele>
        <time>2024-08-13T08:33:27Z</time>
      </trkpt>
      <trkpt lat="44.81657" lon="6.19466">
        <ele>1104</ele>
        <time>2024-08-13T08:33:28Z</time>
      </trkpt>
      <trkpt lat="44.81657" lon="6.19466">
        <ele>1104</ele>
        <time>2024-08-13T08:33:29Z</time>
      </trkpt>
      <trkpt lat="44.81657" lon="6.19466">
        <ele>1104</ele>
        <time>2024-08-13T08:33:30Z</time>
      </trkpt>
      <trkpt lat="44.81657" lon="6.19466">
        <ele>1104</ele>
        <time>2024-08-13T08:33:31Z</time>
      </trkpt>
      <trkpt lat="44.81657" lon="6.19466">
        <ele>1104</ele>
        <time>2024-08-13T08:33:32Z</time>
      </trkpt>
      <trkpt lat="44.81657" lon="6.19466">
        <ele>1104</ele>
        <time>2024-08-13T08:33:33Z</time>
      </trkpt>
      <trkpt lat="44.81657" lon="6.19466">
        <ele>1104</ele>
        <time>2024-08-13T08:33:34Z</time>
      </trkpt>
      <trkpt lat="44.81657" lon="6.19466">
        <ele>1103.8</ele>
        <time>2024-08-13T08:33:35Z</time>
      </trkpt>
      <trkpt lat="44.81657" lon="6.19466">
        <ele>1103.8</ele>
        <time>2024-08-13T08:33:36Z</time>
      </trkpt>
      <trkpt lat="44.81659" lon="6.19464">
        <ele>1103.8</ele>
        <time>2024-08-13T08:33:37Z</time>
      </trkpt>
      <trkpt lat="44.81659" lon="6.19464">
        <ele>1104</ele>
        <time>2024-08-13T08:33:38Z</time>
      </trkpt>
      <trkpt lat="44.81659" lon="6.19462">
        <ele>1104</ele>
        <time>2024-08-13T08:33:39Z</time>
      </trkpt>
      <trkpt lat="44.81659" lon="6.19462">
        <ele>1104</ele>
        <time>2024-08-13T08:33:40Z</time>
      </trkpt>
      <trkpt lat="44.81659" lon="6.19462">
        <ele>1104</ele>
        <time>2024-08-13T08:33:41Z</time>
      </trkpt>
      <trkpt lat="44.81659" lon="6.19459">
        <ele>1104</ele>
        <time>2024-08-13T08:33:42Z</time>
      </trkpt>
      <trkpt lat="44.81659" lon="6.19459">
        <ele>1104</ele>
        <time>2024-08-13T08:33:43Z</time>
      </trkpt>
      <trkpt lat="44.81659" lon="6.19459">
        <ele>1104</ele>
        <time>2024-08-13T08:33:44Z</time>
      </trkpt>
      <trkpt lat="44.81659" lon="6.19459">
        <ele>1104</ele>
        <time>2024-08-13T08:33:45Z</time>
      </trkpt>
      <trkpt lat="44.81659" lon="6.19459">
        <ele>1103.8</ele>
        <time>2024-08-13T08:33:46Z</time>
      </trkpt>
      <trkpt lat="44.81659" lon="6.19459">
        <ele>1104</ele>
        <time>2024-08-13T08:33:47Z</time>
      </trkpt>
      <trkpt lat="44.81659" lon="6.19459">
        <ele>1103.8</ele>
        <time>2024-08-13T08:33:48Z</time>
      </trkpt>
      <trkpt lat="44.81659" lon="6.19459">
        <ele>1103.8</ele>
        <time>2024-08-13T08:33:49Z</time>
      </trkpt>
      <trkpt lat="44.81659" lon="6.19459">
        <ele>1103.8</ele>
        <time>2024-08-13T08:33:50Z</time>
      </trkpt>
      <trkpt lat="44.81659" lon="6.19459">
        <ele>1103.8</ele>
        <time>2024-08-13T08:33:51Z</time>
      </trkpt>
      <trkpt lat="44.81659" lon="6.19459">
        <ele>1103.8</ele>
        <time>2024-08-13T08:33:52Z</time>
      </trkpt>
      <trkpt lat="44.81659" lon="6.19459">
        <ele>1103.8</ele>
        <time>2024-08-13T08:33:53Z</time>
      </trkpt>
      <trkpt lat="44.81659" lon="6.19459">
        <ele>1103.8</ele>
        <time>2024-08-13T08:33:54Z</time>
      </trkpt>
      <trkpt lat="44.81659" lon="6.19459">
        <ele>1103.8</ele>
        <time>2024-08-13T08:33:55Z</time>
      </trkpt>
      <trkpt lat="44.81659" lon="6.19459">
        <ele>1103.8</ele>
        <time>2024-08-13T08:33:56Z</time>
      </trkpt>
      <trkpt lat="44.81659" lon="6.19459">
        <ele>1103.8</ele>
        <time>2024-08-13T08:33:57Z</time>
      </trkpt>
      <trkpt lat="44.81659" lon="6.19459">
        <ele>1103.8</ele>
        <time>2024-08-13T08:33:58Z</time>
      </trkpt>
      <trkpt lat="44.81659" lon="6.19459">
        <ele>1104</ele>
        <time>2024-08-13T08:33:59Z</time>
      </trkpt>
      <trkpt lat="44.81659" lon="6.19459">
        <ele>1104</ele>
        <time>2024-08-13T08:34:00Z</time>
      </trkpt>
      <trkpt lat="44.81657" lon="6.19461">
        <ele>1103.8</ele>
        <time>2024-08-13T08:34:01Z</time>
      </trkpt>
      <trkpt lat="44.81655" lon="6.19464">
        <ele>1103.8</ele>
        <time>2024-08-13T08:34:02Z</time>
      </trkpt>
      <trkpt lat="44.81654" lon="6.19468">
        <ele>1103.8</ele>
        <time>2024-08-13T08:34:03Z</time>
      </trkpt>
      <trkpt lat="44.81653" lon="6.19471">
        <ele>1103.8</ele>
        <time>2024-08-13T08:34:04Z</time>
      </trkpt>
      <trkpt lat="44.81653" lon="6.19471">
        <ele>1103.6</ele>
        <time>2024-08-13T08:34:05Z</time>
      </trkpt>
      <trkpt lat="44.81652" lon="6.19472">
        <ele>1103.6</ele>
        <time>2024-08-13T08:34:06Z</time>
      </trkpt>
      <trkpt lat="44.81651" lon="6.19474">
        <ele>1103.6</ele>
        <time>2024-08-13T08:34:07Z</time>
      </trkpt>
      <trkpt lat="44.81651" lon="6.19475">
        <ele>1103.8</ele>
        <time>2024-08-13T08:34:08Z</time>
      </trkpt>
      <trkpt lat="44.8165" lon="6.19476">
        <ele>1103.8</ele>
        <time>2024-08-13T08:34:09Z</time>
      </trkpt>
      <trkpt lat="44.8165" lon="6.19476">
        <ele>1103.8</ele>
        <time>2024-08-13T08:34:10Z</time>
      </trkpt>
      <trkpt lat="44.8165" lon="6.19476">
        <ele>1103.6</ele>
        <time>2024-08-13T08:34:11Z</time>
      </trkpt>
      <trkpt lat="44.8165" lon="6.19476">
        <ele>1103.6</ele>
        <time>2024-08-13T08:34:12Z</time>
      </trkpt>
      <trkpt lat="44.8165" lon="6.19476">
        <ele>1103.6</ele>
        <time>2024-08-13T08:34:13Z</time>
      </trkpt>
      <trkpt lat="44.8165" lon="6.19476">
        <ele>1103.4</ele>
        <time>2024-08-13T08:34:14Z</time>
      </trkpt>
      <trkpt lat="44.8165" lon="6.19476">
        <ele>1103.4</ele>
        <time>2024-08-13T08:34:15Z</time>
      </trkpt>
      <trkpt lat="44.8165" lon="6.19476">
        <ele>1103.6</ele>
        <time>2024-08-13T08:34:16Z</time>
      </trkpt>
      <trkpt lat="44.8165" lon="6.19476">
        <ele>1103.8</ele>
        <time>2024-08-13T08:34:17Z</time>
      </trkpt>
      <trkpt lat="44.8165" lon="6.19476">
        <ele>1104</ele>
        <time>2024-08-13T08:34:18Z</time>
      </trkpt>
      <trkpt lat="44.8165" lon="6.19476">
        <ele>1104</ele>
        <time>2024-08-13T08:34:19Z</time>
      </trkpt>
      <trkpt lat="44.8165" lon="6.19476">
        <ele>1104</ele>
        <time>2024-08-13T08:34:20Z</time>
      </trkpt>
      <trkpt lat="44.8165" lon="6.19476">
        <ele>1103.8</ele>
        <time>2024-08-13T08:34:21Z</time>
      </trkpt>
      <trkpt lat="44.8165" lon="6.19476">
        <ele>1103.6</ele>
        <time>2024-08-13T08:34:22Z</time>
      </trkpt>
      <trkpt lat="44.8165" lon="6.19476">
        <ele>1103.6</ele>
        <time>2024-08-13T08:34:23Z</time>
      </trkpt>
      <trkpt lat="44.8165" lon="6.19476">
        <ele>1103.6</ele>
        <time>2024-08-13T08:34:24Z</time>
      </trkpt>
      <trkpt lat="44.8165" lon="6.19476">
        <ele>1103.6</ele>
        <time>2024-08-13T08:34:25Z</time>
      </trkpt>
      <trkpt lat="44.8165" lon="6.19476">
        <ele>1103.8</ele>
        <time>2024-08-13T08:34:26Z</time>
      </trkpt>
      <trkpt lat="44.8165" lon="6.19476">
        <ele>1103.8</ele>
        <time>2024-08-13T08:34:27Z</time>
      </trkpt>
      <trkpt lat="44.8165" lon="6.19476">
        <ele>1103.8</ele>
        <time>2024-08-13T08:34:28Z</time>
      </trkpt>
      <trkpt lat="44.8165" lon="6.19476">
        <ele>1103.8</ele>
        <time>2024-08-13T08:34:29Z</time>
      </trkpt>
      <trkpt lat="44.8165" lon="6.19474">
        <ele>1103.6</ele>
        <time>2024-08-13T08:34:30Z</time>
      </trkpt>
      <trkpt lat="44.8165" lon="6.19474">
        <ele>1103.6</ele>
        <time>2024-08-13T08:34:31Z</time>
      </trkpt>
      <trkpt lat="44.81651" lon="6.19471">
        <ele>1103.6</ele>
        <time>2024-08-13T08:34:32Z</time>
      </trkpt>
      <trkpt lat="44.81651" lon="6.19471">
        <ele>1103.6</ele>
        <time>2024-08-13T08:34:33Z</time>
      </trkpt>
      <trkpt lat="44.81651" lon="6.19471">
        <ele>1103.6</ele>
        <time>2024-08-13T08:34:34Z</time>
      </trkpt>
      <trkpt lat="44.81651" lon="6.19471">
        <ele>1103.6</ele>
        <time>2024-08-13T08:34:35Z</time>
      </trkpt>
      <trkpt lat="44.81651" lon="6.19471">
        <ele>1103.6</ele>
        <time>2024-08-13T08:34:36Z</time>
      </trkpt>
      <trkpt lat="44.81651" lon="6.19471">
        <ele>1103.4</ele>
        <time>2024-08-13T08:34:37Z</time>
      </trkpt>
      <trkpt lat="44.81651" lon="6.19471">
        <ele>1103.4</ele>
        <time>2024-08-13T08:34:38Z</time>
      </trkpt>
      <trkpt lat="44.81651" lon="6.19471">
        <ele>1103.6</ele>
        <time>2024-08-13T08:34:39Z</time>
      </trkpt>
      <trkpt lat="44.81651" lon="6.19471">
        <ele>1103.6</ele>
        <time>2024-08-13T08:34:40Z</time>
      </trkpt>
      <trkpt lat="44.81651" lon="6.19471">
        <ele>1103.8</ele>
        <time>2024-08-13T08:34:41Z</time>
      </trkpt>
      <trkpt lat="44.81651" lon="6.19471">
        <ele>1103.8</ele>
        <time>2024-08-13T08:34:42Z</time>
      </trkpt>
      <trkpt lat="44.81651" lon="6.19471">
        <ele>1103.6</ele>
        <time>2024-08-13T08:34:43Z</time>
      </trkpt>
      <trkpt lat="44.81651" lon="6.19471">
        <ele>1103.6</ele>
        <time>2024-08-13T08:34:44Z</time>
      </trkpt>
      <trkpt lat="44.81651" lon="6.19471">
        <ele>1103.6</ele>
        <time>2024-08-13T08:34:45Z</time>
      </trkpt>
      <trkpt lat="44.81651" lon="6.19471">
        <ele>1103.6</ele>
        <time>2024-08-13T08:34:46Z</time>
      </trkpt>
      <trkpt lat="44.81651" lon="6.19471">
        <ele>1103.6</ele>
        <time>2024-08-13T08:34:47Z</time>
      </trkpt>
      <trkpt lat="44.81651" lon="6.19471">
        <ele>1103.4</ele>
        <time>2024-08-13T08:34:48Z</time>
      </trkpt>
      <trkpt lat="44.81651" lon="6.19471">
        <ele>1103.4</ele>
        <time>2024-08-13T08:34:49Z</time>
      </trkpt>
      <trkpt lat="44.81651" lon="6.19471">
        <ele>1103.6</ele>
        <time>2024-08-13T08:34:50Z</time>
      </trkpt>
      <trkpt lat="44.81651" lon="6.19471">
        <ele>1103.6</ele>
        <time>2024-08-13T08:34:51Z</time>
      </trkpt>
      <trkpt lat="44.81651" lon="6.19471">
        <ele>1103.6</ele>
        <time>2024-08-13T08:34:52Z</time>
      </trkpt>
      <trkpt lat="44.81651" lon="6.19471">
        <ele>1103.6</ele>
        <time>2024-08-13T08:34:53Z</time>
      </trkpt>
      <trkpt lat="44.81651" lon="6.19471">
        <ele>1103.4</ele>
        <time>2024-08-13T08:34:54Z</time>
      </trkpt>
      <trkpt lat="44.81651" lon="6.19471">
        <ele>1103.4</ele>
        <time>2024-08-13T08:34:55Z</time>
      </trkpt>
      <trkpt lat="44.81651" lon="6.19471">
        <ele>1103.4</ele>
        <time>2024-08-13T08:34:56Z</time>
      </trkpt>
      <trkpt lat="44.81651" lon="6.19471">
        <ele>1103.4</ele>
        <time>2024-08-13T08:34:57Z</time>
      </trkpt>
      <trkpt lat="44.81651" lon="6.19471">
        <ele>1103.4</ele>
        <time>2024-08-13T08:34:58Z</time>
      </trkpt>
      <trkpt lat="44.81651" lon="6.19471">
        <ele>1103.6</ele>
        <time>2024-08-13T08:34:59Z</time>
      </trkpt>
      <trkpt lat="44.81651" lon="6.19471">
        <ele>1103.4</ele>
        <time>2024-08-13T08:35:00Z</time>
      </trkpt>
      <trkpt lat="44.81651" lon="6.19471">
        <ele>1103.6</ele>
        <time>2024-08-13T08:35:01Z</time>
      </trkpt>
      <trkpt lat="44.81651" lon="6.19471">
        <ele>1103.4</ele>
        <time>2024-08-13T08:35:02Z</time>
      </trkpt>
      <trkpt lat="44.81651" lon="6.19471">
        <ele>1103.4</ele>
        <time>2024-08-13T08:35:03Z</time>
      </trkpt>
      <trkpt lat="44.81651" lon="6.19471">
        <ele>1103.4</ele>
        <time>2024-08-13T08:35:04Z</time>
      </trkpt>
      <trkpt lat="44.81651" lon="6.19471">
        <ele>1103.4</ele>
        <time>2024-08-13T08:35:05Z</time>
      </trkpt>
      <trkpt lat="44.81651" lon="6.19471">
        <ele>1103.4</ele>
        <time>2024-08-13T08:35:06Z</time>
      </trkpt>
      <trkpt lat="44.81651" lon="6.19471">
        <ele>1103.4</ele>
        <time>2024-08-13T08:35:07Z</time>
      </trkpt>
      <trkpt lat="44.81651" lon="6.19471">
        <ele>1103.4</ele>
        <time>2024-08-13T08:35:08Z</time>
      </trkpt>
      <trkpt lat="44.81651" lon="6.19471">
        <ele>1103.6</ele>
        <time>2024-08-13T08:35:09Z</time>
      </trkpt>
      <trkpt lat="44.81651" lon="6.19471">
        <ele>1103.6</ele>
        <time>2024-08-13T08:35:10Z</time>
      </trkpt>
      <trkpt lat="44.81651" lon="6.19471">
        <ele>1103.6</ele>
        <time>2024-08-13T08:35:11Z</time>
      </trkpt>
      <trkpt lat="44.81651" lon="6.19471">
        <ele>1103.4</ele>
        <time>2024-08-13T08:35:12Z</time>
      </trkpt>
      <trkpt lat="44.81651" lon="6.19471">
        <ele>1103.4</ele>
        <time>2024-08-13T08:35:13Z</time>
      </trkpt>
      <trkpt lat="44.81651" lon="6.19471">
        <ele>1103.4</ele>
        <time>2024-08-13T08:35:14Z</time>
      </trkpt>
      <trkpt lat="44.81651" lon="6.19471">
        <ele>1103.6</ele>
        <time>2024-08-13T08:35:15Z</time>
      </trkpt>
      <trkpt lat="44.81651" lon="6.19471">
        <ele>1103.6</ele>
        <time>2024-08-13T08:35:16Z</time>
      </trkpt>
      <trkpt lat="44.81651" lon="6.19471">
        <ele>1103.6</ele>
        <time>2024-08-13T08:35:17Z</time>
      </trkpt>
      <trkpt lat="44.81651" lon="6.19471">
        <ele>1103.6</ele>
        <time>2024-08-13T08:35:18Z</time>
      </trkpt>
      <trkpt lat="44.81651" lon="6.19471">
        <ele>1103.2</ele>
        <time>2024-08-13T08:35:19Z</time>
      </trkpt>
      <trkpt lat="44.81651" lon="6.19471">
        <ele>1103.2</ele>
        <time>2024-08-13T08:35:20Z</time>
      </trkpt>
      <trkpt lat="44.81651" lon="6.19471">
        <ele>1103.4</ele>
        <time>2024-08-13T08:35:21Z</time>
      </trkpt>
      <trkpt lat="44.81651" lon="6.19471">
        <ele>1103.4</ele>
        <time>2024-08-13T08:35:22Z</time>
      </trkpt>
      <trkpt lat="44.81651" lon="6.19471">
        <ele>1103.4</ele>
        <time>2024-08-13T08:35:23Z</time>
      </trkpt>
      <trkpt lat="44.81651" lon="6.19471">
        <ele>1103.4</ele>
        <time>2024-08-13T08:35:24Z</time>
      </trkpt>
      <trkpt lat="44.81651" lon="6.19471">
        <ele>1103.4</ele>
        <time>2024-08-13T08:35:25Z</time>
      </trkpt>
      <trkpt lat="44.81651" lon="6.19471">
        <ele>1103.4</ele>
        <time>2024-08-13T08:35:26Z</time>
      </trkpt>
      <trkpt lat="44.81651" lon="6.19471">
        <ele>1103.6</ele>
        <time>2024-08-13T08:35:27Z</time>
      </trkpt>
      <trkpt lat="44.81651" lon="6.19471">
        <ele>1103.6</ele>
        <time>2024-08-13T08:35:28Z</time>
      </trkpt>
      <trkpt lat="44.81651" lon="6.19471">
        <ele>1103.4</ele>
        <time>2024-08-13T08:35:29Z</time>
      </trkpt>
      <trkpt lat="44.81651" lon="6.19471">
        <ele>1103.4</ele>
        <time>2024-08-13T08:35:30Z</time>
      </trkpt>
      <trkpt lat="44.81651" lon="6.19471">
        <ele>1103.4</ele>
        <time>2024-08-13T08:35:31Z</time>
      </trkpt>
      <trkpt lat="44.81651" lon="6.19471">
        <ele>1103.4</ele>
        <time>2024-08-13T08:35:32Z</time>
      </trkpt>
      <trkpt lat="44.81651" lon="6.19471">
        <ele>1103.4</ele>
        <time>2024-08-13T08:35:33Z</time>
      </trkpt>
      <trkpt lat="44.81651" lon="6.19471">
        <ele>1103.4</ele>
        <time>2024-08-13T08:35:34Z</time>
      </trkpt>
      <trkpt lat="44.81651" lon="6.19471">
        <ele>1103.4</ele>
        <time>2024-08-13T08:35:35Z</time>
      </trkpt>
      <trkpt lat="44.81651" lon="6.19471">
        <ele>1103.4</ele>
        <time>2024-08-13T08:35:36Z</time>
      </trkpt>
      <trkpt lat="44.81651" lon="6.19471">
        <ele>1103.4</ele>
        <time>2024-08-13T08:35:37Z</time>
      </trkpt>
      <trkpt lat="44.81651" lon="6.19471">
        <ele>1103.4</ele>
        <time>2024-08-13T08:35:38Z</time>
      </trkpt>
      <trkpt lat="44.81651" lon="6.19471">
        <ele>1103.4</ele>
        <time>2024-08-13T08:35:39Z</time>
      </trkpt>
      <trkpt lat="44.81651" lon="6.19471">
        <ele>1103.2</ele>
        <time>2024-08-13T08:35:40Z</time>
      </trkpt>
      <trkpt lat="44.81651" lon="6.19471">
        <ele>1103.2</ele>
        <time>2024-08-13T08:35:41Z</time>
      </trkpt>
      <trkpt lat="44.81651" lon="6.19471">
        <ele>1103.2</ele>
        <time>2024-08-13T08:35:42Z</time>
      </trkpt>
      <trkpt lat="44.81651" lon="6.19471">
        <ele>1103.2</ele>
        <time>2024-08-13T08:35:43Z</time>
      </trkpt>
      <trkpt lat="44.81651" lon="6.19471">
        <ele>1103.2</ele>
        <time>2024-08-13T08:35:44Z</time>
      </trkpt>
      <trkpt lat="44.81651" lon="6.19471">
        <ele>1103.2</ele>
        <time>2024-08-13T08:35:45Z</time>
      </trkpt>
      <trkpt lat="44.81651" lon="6.19471">
        <ele>1103.2</ele>
        <time>2024-08-13T08:35:46Z</time>
      </trkpt>
      <trkpt lat="44.81651" lon="6.19471">
        <ele>1103.4</ele>
        <time>2024-08-13T08:35:47Z</time>
      </trkpt>
      <trkpt lat="44.81651" lon="6.19471">
        <ele>1103.4</ele>
        <time>2024-08-13T08:35:48Z</time>
      </trkpt>
      <trkpt lat="44.81651" lon="6.19471">
        <ele>1103.2</ele>
        <time>2024-08-13T08:35:49Z</time>
      </trkpt>
      <trkpt lat="44.81651" lon="6.19471">
        <ele>1103.2</ele>
        <time>2024-08-13T08:35:50Z</time>
      </trkpt>
      <trkpt lat="44.81651" lon="6.19471">
        <ele>1103.4</ele>
        <time>2024-08-13T08:35:51Z</time>
      </trkpt>
      <trkpt lat="44.81651" lon="6.19471">
        <ele>1103.4</ele>
        <time>2024-08-13T08:35:52Z</time>
      </trkpt>
      <trkpt lat="44.81651" lon="6.19471">
        <ele>1103.4</ele>
        <time>2024-08-13T08:35:53Z</time>
      </trkpt>
      <trkpt lat="44.81651" lon="6.19471">
        <ele>1103.4</ele>
        <time>2024-08-13T08:35:54Z</time>
      </trkpt>
      <trkpt lat="44.81651" lon="6.19471">
        <ele>1103.4</ele>
        <time>2024-08-13T08:35:55Z</time>
      </trkpt>
      <trkpt lat="44.81651" lon="6.19471">
        <ele>1103.4</ele>
        <time>2024-08-13T08:35:56Z</time>
      </trkpt>
      <trkpt lat="44.81651" lon="6.19471">
        <ele>1103.4</ele>
        <time>2024-08-13T08:35:57Z</time>
      </trkpt>
      <trkpt lat="44.81651" lon="6.19471">
        <ele>1103.4</ele>
        <time>2024-08-13T08:35:58Z</time>
      </trkpt>
      <trkpt lat="44.81651" lon="6.19471">
        <ele>1103.4</ele>
        <time>2024-08-13T08:35:59Z</time>
      </trkpt>
      <trkpt lat="44.81651" lon="6.19471">
        <ele>1103.2</ele>
        <time>2024-08-13T08:36:00Z</time>
      </trkpt>
      <trkpt lat="44.81651" lon="6.19471">
        <ele>1103.2</ele>
        <time>2024-08-13T08:36:01Z</time>
      </trkpt>
      <trkpt lat="44.81651" lon="6.19471">
        <ele>1103.4</ele>
        <time>2024-08-13T08:36:02Z</time>
      </trkpt>
      <trkpt lat="44.81651" lon="6.19471">
        <ele>1103.4</ele>
        <time>2024-08-13T08:36:03Z</time>
      </trkpt>
      <trkpt lat="44.81651" lon="6.19471">
        <ele>1103.4</ele>
        <time>2024-08-13T08:36:04Z</time>
      </trkpt>
      <trkpt lat="44.81651" lon="6.19471">
        <ele>1103.4</ele>
        <time>2024-08-13T08:36:05Z</time>
      </trkpt>
      <trkpt lat="44.81651" lon="6.19471">
        <ele>1103.4</ele>
        <time>2024-08-13T08:36:06Z</time>
      </trkpt>
      <trkpt lat="44.81649" lon="6.19474">
        <ele>1103.4</ele>
        <time>2024-08-13T08:36:07Z</time>
      </trkpt>
      <trkpt lat="44.81649" lon="6.19474">
        <ele>1103.4</ele>
        <time>2024-08-13T08:36:08Z</time>
      </trkpt>
      <trkpt lat="44.81647" lon="6.19477">
        <ele>1103.4</ele>
        <time>2024-08-13T08:36:09Z</time>
      </trkpt>
      <trkpt lat="44.81647" lon="6.19477">
        <ele>1103.4</ele>
        <time>2024-08-13T08:36:10Z</time>
      </trkpt>
      <trkpt lat="44.81647" lon="6.19477">
        <ele>1103.4</ele>
        <time>2024-08-13T08:36:11Z</time>
      </trkpt>
      <trkpt lat="44.81647" lon="6.19477">
        <ele>1103.4</ele>
        <time>2024-08-13T08:36:12Z</time>
      </trkpt>
      <trkpt lat="44.81647" lon="6.19477">
        <ele>1103.4</ele>
        <time>2024-08-13T08:36:13Z</time>
      </trkpt>
      <trkpt lat="44.81647" lon="6.19477">
        <ele>1103.4</ele>
        <time>2024-08-13T08:36:14Z</time>
      </trkpt>
      <trkpt lat="44.81647" lon="6.19477">
        <ele>1103.4</ele>
        <time>2024-08-13T08:36:15Z</time>
      </trkpt>
      <trkpt lat="44.81647" lon="6.19477">
        <ele>1103.4</ele>
        <time>2024-08-13T08:36:16Z</time>
      </trkpt>
      <trkpt lat="44.81647" lon="6.19477">
        <ele>1103.6</ele>
        <time>2024-08-13T08:36:17Z</time>
      </trkpt>
      <trkpt lat="44.81647" lon="6.19477">
        <ele>1103.6</ele>
        <time>2024-08-13T08:36:18Z</time>
      </trkpt>
      <trkpt lat="44.81647" lon="6.19477">
        <ele>1103.4</ele>
        <time>2024-08-13T08:36:19Z</time>
      </trkpt>
      <trkpt lat="44.81647" lon="6.19477">
        <ele>1103.2</ele>
        <time>2024-08-13T08:36:20Z</time>
      </trkpt>
      <trkpt lat="44.81647" lon="6.19477">
        <ele>1103.2</ele>
        <time>2024-08-13T08:36:21Z</time>
      </trkpt>
      <trkpt lat="44.81647" lon="6.19477">
        <ele>1103.2</ele>
        <time>2024-08-13T08:36:22Z</time>
      </trkpt>
      <trkpt lat="44.81647" lon="6.19477">
        <ele>1103.4</ele>
        <time>2024-08-13T08:36:23Z</time>
      </trkpt>
      <trkpt lat="44.81647" lon="6.19477">
        <ele>1103.4</ele>
        <time>2024-08-13T08:36:24Z</time>
      </trkpt>
      <trkpt lat="44.81647" lon="6.19477">
        <ele>1103.4</ele>
        <time>2024-08-13T08:36:25Z</time>
      </trkpt>
      <trkpt lat="44.81647" lon="6.19477">
        <ele>1103.2</ele>
        <time>2024-08-13T08:36:26Z</time>
      </trkpt>
      <trkpt lat="44.81647" lon="6.19477">
        <ele>1103.2</ele>
        <time>2024-08-13T08:36:27Z</time>
      </trkpt>
      <trkpt lat="44.81647" lon="6.19477">
        <ele>1103.2</ele>
        <time>2024-08-13T08:36:28Z</time>
      </trkpt>
      <trkpt lat="44.81647" lon="6.19477">
        <ele>1103.2</ele>
        <time>2024-08-13T08:36:29Z</time>
      </trkpt>
      <trkpt lat="44.81647" lon="6.19477">
        <ele>1103.2</ele>
        <time>2024-08-13T08:36:30Z</time>
      </trkpt>
      <trkpt lat="44.81647" lon="6.19477">
        <ele>1103.2</ele>
        <time>2024-08-13T08:36:31Z</time>
      </trkpt>
      <trkpt lat="44.81647" lon="6.19477">
        <ele>1103.2</ele>
        <time>2024-08-13T08:36:32Z</time>
      </trkpt>
      <trkpt lat="44.81647" lon="6.19477">
        <ele>1103.2</ele>
        <time>2024-08-13T08:36:33Z</time>
      </trkpt>
      <trkpt lat="44.81647" lon="6.19477">
        <ele>1103.2</ele>
        <time>2024-08-13T08:36:34Z</time>
      </trkpt>
      <trkpt lat="44.81646" lon="6.1948">
        <ele>1103</ele>
        <time>2024-08-13T08:36:35Z</time>
      </trkpt>
      <trkpt lat="44.81646" lon="6.1948">
        <ele>1103</ele>
        <time>2024-08-13T08:36:36Z</time>
      </trkpt>
      <trkpt lat="44.81646" lon="6.1948">
        <ele>1103.2</ele>
        <time>2024-08-13T08:36:37Z</time>
      </trkpt>
      <trkpt lat="44.81646" lon="6.1948">
        <ele>1103.2</ele>
        <time>2024-08-13T08:36:38Z</time>
      </trkpt>
      <trkpt lat="44.81646" lon="6.1948">
        <ele>1103.2</ele>
        <time>2024-08-13T08:36:39Z</time>
      </trkpt>
      <trkpt lat="44.81646" lon="6.1948">
        <ele>1103.2</ele>
        <time>2024-08-13T08:36:40Z</time>
      </trkpt>
      <trkpt lat="44.81646" lon="6.1948">
        <ele>1103.2</ele>
        <time>2024-08-13T08:36:41Z</time>
      </trkpt>
      <trkpt lat="44.81646" lon="6.1948">
        <ele>1103.2</ele>
        <time>2024-08-13T08:36:42Z</time>
      </trkpt>
      <trkpt lat="44.81646" lon="6.1948">
        <ele>1103.2</ele>
        <time>2024-08-13T08:36:43Z</time>
      </trkpt>
      <trkpt lat="44.81646" lon="6.1948">
        <ele>1103.2</ele>
        <time>2024-08-13T08:36:44Z</time>
      </trkpt>
      <trkpt lat="44.81646" lon="6.1948">
        <ele>1103.4</ele>
        <time>2024-08-13T08:36:45Z</time>
      </trkpt>
      <trkpt lat="44.81646" lon="6.1948">
        <ele>1103.4</ele>
        <time>2024-08-13T08:36:46Z</time>
      </trkpt>
      <trkpt lat="44.81646" lon="6.1948">
        <ele>1103.4</ele>
        <time>2024-08-13T08:36:47Z</time>
      </trkpt>
      <trkpt lat="44.81646" lon="6.1948">
        <ele>1103.4</ele>
        <time>2024-08-13T08:36:48Z</time>
      </trkpt>
      <trkpt lat="44.81646" lon="6.1948">
        <ele>1103.4</ele>
        <time>2024-08-13T08:36:49Z</time>
      </trkpt>
      <trkpt lat="44.81646" lon="6.1948">
        <ele>1103.4</ele>
        <time>2024-08-13T08:36:50Z</time>
      </trkpt>
      <trkpt lat="44.81646" lon="6.1948">
        <ele>1103.4</ele>
        <time>2024-08-13T08:36:51Z</time>
      </trkpt>
      <trkpt lat="44.81646" lon="6.1948">
        <ele>1103.4</ele>
        <time>2024-08-13T08:36:52Z</time>
      </trkpt>
      <trkpt lat="44.81646" lon="6.1948">
        <ele>1103.4</ele>
        <time>2024-08-13T08:36:53Z</time>
      </trkpt>
      <trkpt lat="44.81646" lon="6.1948">
        <ele>1103.4</ele>
        <time>2024-08-13T08:36:54Z</time>
      </trkpt>
      <trkpt lat="44.81646" lon="6.1948">
        <ele>1103.6</ele>
        <time>2024-08-13T08:36:55Z</time>
      </trkpt>
      <trkpt lat="44.81646" lon="6.1948">
        <ele>1103.6</ele>
        <time>2024-08-13T08:36:56Z</time>
      </trkpt>
      <trkpt lat="44.81646" lon="6.1948">
        <ele>1103.4</ele>
        <time>2024-08-13T08:36:57Z</time>
      </trkpt>
      <trkpt lat="44.81646" lon="6.1948">
        <ele>1103.2</ele>
        <time>2024-08-13T08:36:58Z</time>
      </trkpt>
      <trkpt lat="44.81646" lon="6.1948">
        <ele>1103.2</ele>
        <time>2024-08-13T08:36:59Z</time>
      </trkpt>
      <trkpt lat="44.81646" lon="6.1948">
        <ele>1103.2</ele>
        <time>2024-08-13T08:37:00Z</time>
      </trkpt>
      <trkpt lat="44.81645" lon="6.19477">
        <ele>1103.4</ele>
        <time>2024-08-13T08:37:01Z</time>
      </trkpt>
      <trkpt lat="44.81645" lon="6.19477">
        <ele>1103.4</ele>
        <time>2024-08-13T08:37:02Z</time>
      </trkpt>
      <trkpt lat="44.81645" lon="6.19477">
        <ele>1103.4</ele>
        <time>2024-08-13T08:37:03Z</time>
      </trkpt>
      <trkpt lat="44.81645" lon="6.19477">
        <ele>1103.2</ele>
        <time>2024-08-13T08:37:04Z</time>
      </trkpt>
      <trkpt lat="44.81645" lon="6.19477">
        <ele>1103.2</ele>
        <time>2024-08-13T08:37:05Z</time>
      </trkpt>
      <trkpt lat="44.81645" lon="6.19477">
        <ele>1103.2</ele>
        <time>2024-08-13T08:37:06Z</time>
      </trkpt>
      <trkpt lat="44.81645" lon="6.19477">
        <ele>1103.2</ele>
        <time>2024-08-13T08:37:07Z</time>
      </trkpt>
      <trkpt lat="44.81645" lon="6.19477">
        <ele>1103.4</ele>
        <time>2024-08-13T08:37:08Z</time>
      </trkpt>
      <trkpt lat="44.81645" lon="6.19477">
        <ele>1103.4</ele>
        <time>2024-08-13T08:37:09Z</time>
      </trkpt>
      <trkpt lat="44.81645" lon="6.19477">
        <ele>1103.4</ele>
        <time>2024-08-13T08:37:10Z</time>
      </trkpt>
      <trkpt lat="44.81645" lon="6.19477">
        <ele>1103.4</ele>
        <time>2024-08-13T08:37:11Z</time>
      </trkpt>
      <trkpt lat="44.81645" lon="6.19477">
        <ele>1103.2</ele>
        <time>2024-08-13T08:37:12Z</time>
      </trkpt>
      <trkpt lat="44.81645" lon="6.19477">
        <ele>1103.2</ele>
        <time>2024-08-13T08:37:13Z</time>
      </trkpt>
      <trkpt lat="44.81645" lon="6.19481">
        <ele>1103.2</ele>
        <time>2024-08-13T08:37:14Z</time>
      </trkpt>
      <trkpt lat="44.81645" lon="6.19481">
        <ele>1103.2</ele>
        <time>2024-08-13T08:37:15Z</time>
      </trkpt>
      <trkpt lat="44.81645" lon="6.19481">
        <ele>1103.2</ele>
        <time>2024-08-13T08:37:16Z</time>
      </trkpt>
      <trkpt lat="44.81645" lon="6.19484">
        <ele>1103.4</ele>
        <time>2024-08-13T08:37:17Z</time>
      </trkpt>
      <trkpt lat="44.81645" lon="6.19484">
        <ele>1103.4</ele>
        <time>2024-08-13T08:37:18Z</time>
      </trkpt>
      <trkpt lat="44.81645" lon="6.19484">
        <ele>1103.4</ele>
        <time>2024-08-13T08:37:19Z</time>
      </trkpt>
      <trkpt lat="44.81645" lon="6.19484">
        <ele>1103.4</ele>
        <time>2024-08-13T08:37:20Z</time>
      </trkpt>
      <trkpt lat="44.81645" lon="6.19484">
        <ele>1103.4</ele>
        <time>2024-08-13T08:37:21Z</time>
      </trkpt>
      <trkpt lat="44.81645" lon="6.19484">
        <ele>1103.2</ele>
        <time>2024-08-13T08:37:22Z</time>
      </trkpt>
      <trkpt lat="44.81645" lon="6.19484">
        <ele>1103</ele>
        <time>2024-08-13T08:37:23Z</time>
      </trkpt>
      <trkpt lat="44.81645" lon="6.19484">
        <ele>1103</ele>
        <time>2024-08-13T08:37:24Z</time>
      </trkpt>
      <trkpt lat="44.81645" lon="6.19484">
        <ele>1103.2</ele>
        <time>2024-08-13T08:37:25Z</time>
      </trkpt>
      <trkpt lat="44.81645" lon="6.19484">
        <ele>1103.2</ele>
        <time>2024-08-13T08:37:26Z</time>
      </trkpt>
      <trkpt lat="44.81645" lon="6.19484">
        <ele>1103.2</ele>
        <time>2024-08-13T08:37:27Z</time>
      </trkpt>
      <trkpt lat="44.81645" lon="6.19484">
        <ele>1103.2</ele>
        <time>2024-08-13T08:37:28Z</time>
      </trkpt>
      <trkpt lat="44.81645" lon="6.19484">
        <ele>1103.2</ele>
        <time>2024-08-13T08:37:29Z</time>
      </trkpt>
      <trkpt lat="44.81645" lon="6.19484">
        <ele>1103.2</ele>
        <time>2024-08-13T08:37:30Z</time>
      </trkpt>
      <trkpt lat="44.81645" lon="6.19484">
        <ele>1103.2</ele>
        <time>2024-08-13T08:37:31Z</time>
      </trkpt>
      <trkpt lat="44.81645" lon="6.19484">
        <ele>1103.4</ele>
        <time>2024-08-13T08:37:32Z</time>
      </trkpt>
      <trkpt lat="44.81645" lon="6.19484">
        <ele>1103.4</ele>
        <time>2024-08-13T08:37:33Z</time>
      </trkpt>
      <trkpt lat="44.81645" lon="6.19484">
        <ele>1103.4</ele>
        <time>2024-08-13T08:37:34Z</time>
      </trkpt>
      <trkpt lat="44.81645" lon="6.19484">
        <ele>1103.2</ele>
        <time>2024-08-13T08:37:35Z</time>
      </trkpt>
      <trkpt lat="44.81645" lon="6.19484">
        <ele>1103.2</ele>
        <time>2024-08-13T08:37:36Z</time>
      </trkpt>
      <trkpt lat="44.81645" lon="6.19484">
        <ele>1103.4</ele>
        <time>2024-08-13T08:37:37Z</time>
      </trkpt>
      <trkpt lat="44.81645" lon="6.19484">
        <ele>1103.6</ele>
        <time>2024-08-13T08:37:38Z</time>
      </trkpt>
      <trkpt lat="44.81645" lon="6.19484">
        <ele>1103.6</ele>
        <time>2024-08-13T08:37:39Z</time>
      </trkpt>
      <trkpt lat="44.81645" lon="6.19484">
        <ele>1103.6</ele>
        <time>2024-08-13T08:37:40Z</time>
      </trkpt>
      <trkpt lat="44.81645" lon="6.19484">
        <ele>1103.6</ele>
        <time>2024-08-13T08:37:41Z</time>
      </trkpt>
      <trkpt lat="44.81647" lon="6.19481">
        <ele>1103.6</ele>
        <time>2024-08-13T08:37:42Z</time>
      </trkpt>
      <trkpt lat="44.81647" lon="6.19481">
        <ele>1103.6</ele>
        <time>2024-08-13T08:37:43Z</time>
      </trkpt>
      <trkpt lat="44.81649" lon="6.19478">
        <ele>1103.4</ele>
        <time>2024-08-13T08:37:44Z</time>
      </trkpt>
      <trkpt lat="44.81649" lon="6.19478">
        <ele>1103.4</ele>
        <time>2024-08-13T08:37:45Z</time>
      </trkpt>
      <trkpt lat="44.81649" lon="6.19478">
        <ele>1103.4</ele>
        <time>2024-08-13T08:37:46Z</time>
      </trkpt>
      <trkpt lat="44.81649" lon="6.19478">
        <ele>1103.2</ele>
        <time>2024-08-13T08:37:47Z</time>
      </trkpt>
      <trkpt lat="44.81649" lon="6.19478">
        <ele>1103.4</ele>
        <time>2024-08-13T08:37:48Z</time>
      </trkpt>
      <trkpt lat="44.81649" lon="6.19478">
        <ele>1103.4</ele>
        <time>2024-08-13T08:37:49Z</time>
      </trkpt>
      <trkpt lat="44.81649" lon="6.19478">
        <ele>1103.4</ele>
        <time>2024-08-13T08:37:50Z</time>
      </trkpt>
      <trkpt lat="44.81649" lon="6.19478">
        <ele>1103.4</ele>
        <time>2024-08-13T08:37:51Z</time>
      </trkpt>
      <trkpt lat="44.81649" lon="6.19478">
        <ele>1103.4</ele>
        <time>2024-08-13T08:37:52Z</time>
      </trkpt>
      <trkpt lat="44.81649" lon="6.19478">
        <ele>1103.4</ele>
        <time>2024-08-13T08:37:53Z</time>
      </trkpt>
      <trkpt lat="44.81649" lon="6.19476">
        <ele>1103.4</ele>
        <time>2024-08-13T08:37:54Z</time>
      </trkpt>
      <trkpt lat="44.81649" lon="6.19476">
        <ele>1103.2</ele>
        <time>2024-08-13T08:37:55Z</time>
      </trkpt>
      <trkpt lat="44.81649" lon="6.19476">
        <ele>1103.2</ele>
        <time>2024-08-13T08:37:56Z</time>
      </trkpt>
      <trkpt lat="44.81649" lon="6.19476">
        <ele>1103.6</ele>
        <time>2024-08-13T08:37:57Z</time>
      </trkpt>
      <trkpt lat="44.81649" lon="6.19476">
        <ele>1103.6</ele>
        <time>2024-08-13T08:37:58Z</time>
      </trkpt>
      <trkpt lat="44.81649" lon="6.19476">
        <ele>1103.4</ele>
        <time>2024-08-13T08:37:59Z</time>
      </trkpt>
      <trkpt lat="44.81649" lon="6.19476">
        <ele>1103.4</ele>
        <time>2024-08-13T08:38:00Z</time>
      </trkpt>
      <trkpt lat="44.81649" lon="6.19476">
        <ele>1103.2</ele>
        <time>2024-08-13T08:38:01Z</time>
      </trkpt>
      <trkpt lat="44.81649" lon="6.19476">
        <ele>1103.2</ele>
        <time>2024-08-13T08:38:02Z</time>
      </trkpt>
      <trkpt lat="44.81649" lon="6.19476">
        <ele>1103.4</ele>
        <time>2024-08-13T08:38:03Z</time>
      </trkpt>
      <trkpt lat="44.81649" lon="6.19476">
        <ele>1103.4</ele>
        <time>2024-08-13T08:38:04Z</time>
      </trkpt>
      <trkpt lat="44.81649" lon="6.19476">
        <ele>1103.4</ele>
        <time>2024-08-13T08:38:05Z</time>
      </trkpt>
      <trkpt lat="44.81649" lon="6.19476">
        <ele>1103.4</ele>
        <time>2024-08-13T08:38:06Z</time>
      </trkpt>
      <trkpt lat="44.81649" lon="6.19476">
        <ele>1103.4</ele>
        <time>2024-08-13T08:38:07Z</time>
      </trkpt>
      <trkpt lat="44.81649" lon="6.19476">
        <ele>1103.2</ele>
        <time>2024-08-13T08:38:08Z</time>
      </trkpt>
      <trkpt lat="44.81649" lon="6.19476">
        <ele>1103.2</ele>
        <time>2024-08-13T08:38:09Z</time>
      </trkpt>
      <trkpt lat="44.81649" lon="6.19476">
        <ele>1103.2</ele>
        <time>2024-08-13T08:38:10Z</time>
      </trkpt>
      <trkpt lat="44.81649" lon="6.19476">
        <ele>1103.2</ele>
        <time>2024-08-13T08:38:11Z</time>
      </trkpt>
      <trkpt lat="44.81649" lon="6.19476">
        <ele>1103.4</ele>
        <time>2024-08-13T08:38:12Z</time>
      </trkpt>
      <trkpt lat="44.81649" lon="6.19476">
        <ele>1103.2</ele>
        <time>2024-08-13T08:38:13Z</time>
      </trkpt>
      <trkpt lat="44.81649" lon="6.19476">
        <ele>1103.4</ele>
        <time>2024-08-13T08:38:14Z</time>
      </trkpt>
      <trkpt lat="44.81649" lon="6.19476">
        <ele>1103.2</ele>
        <time>2024-08-13T08:38:15Z</time>
      </trkpt>
      <trkpt lat="44.81649" lon="6.19476">
        <ele>1103.2</ele>
        <time>2024-08-13T08:38:16Z</time>
      </trkpt>
      <trkpt lat="44.81649" lon="6.19476">
        <ele>1103.2</ele>
        <time>2024-08-13T08:38:17Z</time>
      </trkpt>
      <trkpt lat="44.81649" lon="6.19476">
        <ele>1103.2</ele>
        <time>2024-08-13T08:38:18Z</time>
      </trkpt>
      <trkpt lat="44.81649" lon="6.19476">
        <ele>1103.2</ele>
        <time>2024-08-13T08:38:19Z</time>
      </trkpt>
      <trkpt lat="44.81649" lon="6.19476">
        <ele>1103.2</ele>
        <time>2024-08-13T08:38:20Z</time>
      </trkpt>
      <trkpt lat="44.81649" lon="6.19476">
        <ele>1103.2</ele>
        <time>2024-08-13T08:38:21Z</time>
      </trkpt>
      <trkpt lat="44.81649" lon="6.19476">
        <ele>1103.2</ele>
        <time>2024-08-13T08:38:22Z</time>
      </trkpt>
      <trkpt lat="44.81649" lon="6.19476">
        <ele>1103.2</ele>
        <time>2024-08-13T08:38:23Z</time>
      </trkpt>
      <trkpt lat="44.81649" lon="6.19476">
        <ele>1103.2</ele>
        <time>2024-08-13T08:38:24Z</time>
      </trkpt>
      <trkpt lat="44.81649" lon="6.19476">
        <ele>1103.2</ele>
        <time>2024-08-13T08:38:25Z</time>
      </trkpt>
      <trkpt lat="44.81648" lon="6.19478">
        <ele>1103.2</ele>
        <time>2024-08-13T08:38:26Z</time>
      </trkpt>
      <trkpt lat="44.81648" lon="6.19478">
        <ele>1103</ele>
        <time>2024-08-13T08:38:27Z</time>
      </trkpt>
      <trkpt lat="44.81648" lon="6.19478">
        <ele>1103.2</ele>
        <time>2024-08-13T08:38:28Z</time>
      </trkpt>
      <trkpt lat="44.81648" lon="6.19478">
        <ele>1103.4</ele>
        <time>2024-08-13T08:38:29Z</time>
      </trkpt>
      <trkpt lat="44.81648" lon="6.19478">
        <ele>1103.4</ele>
        <time>2024-08-13T08:38:30Z</time>
      </trkpt>
      <trkpt lat="44.81648" lon="6.19478">
        <ele>1103.4</ele>
        <time>2024-08-13T08:38:31Z</time>
      </trkpt>
      <trkpt lat="44.81648" lon="6.19478">
        <ele>1103.4</ele>
        <time>2024-08-13T08:38:32Z</time>
      </trkpt>
      <trkpt lat="44.81648" lon="6.19478">
        <ele>1103.4</ele>
        <time>2024-08-13T08:38:33Z</time>
      </trkpt>
      <trkpt lat="44.81648" lon="6.19478">
        <ele>1103.4</ele>
        <time>2024-08-13T08:38:34Z</time>
      </trkpt>
      <trkpt lat="44.81648" lon="6.19478">
        <ele>1103.4</ele>
        <time>2024-08-13T08:38:35Z</time>
      </trkpt>
      <trkpt lat="44.81648" lon="6.19478">
        <ele>1103.4</ele>
        <time>2024-08-13T08:38:36Z</time>
      </trkpt>
      <trkpt lat="44.81648" lon="6.19478">
        <ele>1103.4</ele>
        <time>2024-08-13T08:38:37Z</time>
      </trkpt>
      <trkpt lat="44.81648" lon="6.19478">
        <ele>1103.2</ele>
        <time>2024-08-13T08:38:38Z</time>
      </trkpt>
      <trkpt lat="44.81648" lon="6.19478">
        <ele>1103.2</ele>
        <time>2024-08-13T08:38:39Z</time>
      </trkpt>
      <trkpt lat="44.81648" lon="6.19478">
        <ele>1103.2</ele>
        <time>2024-08-13T08:38:40Z</time>
      </trkpt>
      <trkpt lat="44.81648" lon="6.19478">
        <ele>1103.2</ele>
        <time>2024-08-13T08:38:41Z</time>
      </trkpt>
      <trkpt lat="44.81648" lon="6.19478">
        <ele>1103.2</ele>
        <time>2024-08-13T08:38:42Z</time>
      </trkpt>
      <trkpt lat="44.81648" lon="6.19478">
        <ele>1103.4</ele>
        <time>2024-08-13T08:38:43Z</time>
      </trkpt>
      <trkpt lat="44.81648" lon="6.19478">
        <ele>1103.4</ele>
        <time>2024-08-13T08:38:44Z</time>
      </trkpt>
      <trkpt lat="44.81648" lon="6.19478">
        <ele>1103.2</ele>
        <time>2024-08-13T08:38:45Z</time>
      </trkpt>
      <trkpt lat="44.81648" lon="6.19478">
        <ele>1103.2</ele>
        <time>2024-08-13T08:38:46Z</time>
      </trkpt>
      <trkpt lat="44.81648" lon="6.19478">
        <ele>1103.2</ele>
        <time>2024-08-13T08:38:47Z</time>
      </trkpt>
      <trkpt lat="44.81648" lon="6.19478">
        <ele>1103.2</ele>
        <time>2024-08-13T08:38:48Z</time>
      </trkpt>
      <trkpt lat="44.81648" lon="6.19478">
        <ele>1103.2</ele>
        <time>2024-08-13T08:38:49Z</time>
      </trkpt>
      <trkpt lat="44.81648" lon="6.19478">
        <ele>1103.2</ele>
        <time>2024-08-13T08:38:50Z</time>
      </trkpt>
      <trkpt lat="44.81648" lon="6.19478">
        <ele>1103.2</ele>
        <time>2024-08-13T08:38:51Z</time>
      </trkpt>
      <trkpt lat="44.81648" lon="6.19478">
        <ele>1103.2</ele>
        <time>2024-08-13T08:38:52Z</time>
      </trkpt>
      <trkpt lat="44.81648" lon="6.19478">
        <ele>1103.2</ele>
        <time>2024-08-13T08:38:53Z</time>
      </trkpt>
      <trkpt lat="44.81648" lon="6.19478">
        <ele>1103.2</ele>
        <time>2024-08-13T08:38:54Z</time>
      </trkpt>
      <trkpt lat="44.81648" lon="6.19478">
        <ele>1103.2</ele>
        <time>2024-08-13T08:38:55Z</time>
      </trkpt>
      <trkpt lat="44.81648" lon="6.19478">
        <ele>1103.4</ele>
        <time>2024-08-13T08:38:56Z</time>
      </trkpt>
      <trkpt lat="44.81648" lon="6.19478">
        <ele>1103.4</ele>
        <time>2024-08-13T08:38:57Z</time>
      </trkpt>
      <trkpt lat="44.81648" lon="6.19478">
        <ele>1103.2</ele>
        <time>2024-08-13T08:38:58Z</time>
      </trkpt>
      <trkpt lat="44.81648" lon="6.19478">
        <ele>1103.2</ele>
        <time>2024-08-13T08:38:59Z</time>
      </trkpt>
      <trkpt lat="44.81648" lon="6.19478">
        <ele>1103.2</ele>
        <time>2024-08-13T08:39:00Z</time>
      </trkpt>
      <trkpt lat="44.81648" lon="6.19478">
        <ele>1103.4</ele>
        <time>2024-08-13T08:39:01Z</time>
      </trkpt>
      <trkpt lat="44.81648" lon="6.19478">
        <ele>1103.4</ele>
        <time>2024-08-13T08:39:02Z</time>
      </trkpt>
      <trkpt lat="44.81648" lon="6.19478">
        <ele>1103.4</ele>
        <time>2024-08-13T08:39:03Z</time>
      </trkpt>
      <trkpt lat="44.81648" lon="6.19478">
        <ele>1103.4</ele>
        <time>2024-08-13T08:39:04Z</time>
      </trkpt>
      <trkpt lat="44.81648" lon="6.19478">
        <ele>1103.4</ele>
        <time>2024-08-13T08:39:05Z</time>
      </trkpt>
      <trkpt lat="44.81648" lon="6.19478">
        <ele>1103.4</ele>
        <time>2024-08-13T08:39:06Z</time>
      </trkpt>
      <trkpt lat="44.81648" lon="6.19478">
        <ele>1103.4</ele>
        <time>2024-08-13T08:39:07Z</time>
      </trkpt>
      <trkpt lat="44.81648" lon="6.19478">
        <ele>1103.4</ele>
        <time>2024-08-13T08:39:08Z</time>
      </trkpt>
      <trkpt lat="44.81648" lon="6.19478">
        <ele>1103.2</ele>
        <time>2024-08-13T08:39:09Z</time>
      </trkpt>
      <trkpt lat="44.81648" lon="6.19478">
        <ele>1103.2</ele>
        <time>2024-08-13T08:39:10Z</time>
      </trkpt>
      <trkpt lat="44.81648" lon="6.19478">
        <ele>1103.2</ele>
        <time>2024-08-13T08:39:11Z</time>
      </trkpt>
      <trkpt lat="44.81648" lon="6.19478">
        <ele>1103.4</ele>
        <time>2024-08-13T08:39:12Z</time>
      </trkpt>
      <trkpt lat="44.81648" lon="6.19478">
        <ele>1103.4</ele>
        <time>2024-08-13T08:39:13Z</time>
      </trkpt>
      <trkpt lat="44.81648" lon="6.19478">
        <ele>1103.4</ele>
        <time>2024-08-13T08:39:14Z</time>
      </trkpt>
      <trkpt lat="44.81648" lon="6.19478">
        <ele>1103.4</ele>
        <time>2024-08-13T08:39:15Z</time>
      </trkpt>
      <trkpt lat="44.81648" lon="6.19478">
        <ele>1103.4</ele>
        <time>2024-08-13T08:39:16Z</time>
      </trkpt>
      <trkpt lat="44.81648" lon="6.19478">
        <ele>1103.4</ele>
        <time>2024-08-13T08:39:17Z</time>
      </trkpt>
      <trkpt lat="44.81648" lon="6.19478">
        <ele>1103.4</ele>
        <time>2024-08-13T08:39:18Z</time>
      </trkpt>
      <trkpt lat="44.81648" lon="6.19478">
        <ele>1103.4</ele>
        <time>2024-08-13T08:39:19Z</time>
      </trkpt>
      <trkpt lat="44.81648" lon="6.19478">
        <ele>1103.4</ele>
        <time>2024-08-13T08:39:20Z</time>
      </trkpt>
      <trkpt lat="44.81648" lon="6.19478">
        <ele>1103.4</ele>
        <time>2024-08-13T08:39:21Z</time>
      </trkpt>
      <trkpt lat="44.81648" lon="6.19478">
        <ele>1103.4</ele>
        <time>2024-08-13T08:39:22Z</time>
      </trkpt>
      <trkpt lat="44.81648" lon="6.19478">
        <ele>1103.6</ele>
        <time>2024-08-13T08:39:23Z</time>
      </trkpt>
      <trkpt lat="44.81648" lon="6.19478">
        <ele>1103.6</ele>
        <time>2024-08-13T08:39:24Z</time>
      </trkpt>
      <trkpt lat="44.81648" lon="6.19478">
        <ele>1103.4</ele>
        <time>2024-08-13T08:39:25Z</time>
      </trkpt>
      <trkpt lat="44.81648" lon="6.19478">
        <ele>1103.4</ele>
        <time>2024-08-13T08:39:26Z</time>
      </trkpt>
      <trkpt lat="44.81648" lon="6.19478">
        <ele>1103.4</ele>
        <time>2024-08-13T08:39:27Z</time>
      </trkpt>
      <trkpt lat="44.81648" lon="6.19478">
        <ele>1103.2</ele>
        <time>2024-08-13T08:39:28Z</time>
      </trkpt>
      <trkpt lat="44.81648" lon="6.19478">
        <ele>1103.2</ele>
        <time>2024-08-13T08:39:29Z</time>
      </trkpt>
      <trkpt lat="44.81648" lon="6.19478">
        <ele>1103.2</ele>
        <time>2024-08-13T08:39:30Z</time>
      </trkpt>
      <trkpt lat="44.81648" lon="6.19478">
        <ele>1103.2</ele>
        <time>2024-08-13T08:39:31Z</time>
      </trkpt>
      <trkpt lat="44.81648" lon="6.19478">
        <ele>1103.2</ele>
        <time>2024-08-13T08:39:32Z</time>
      </trkpt>
      <trkpt lat="44.81648" lon="6.19478">
        <ele>1103.2</ele>
        <time>2024-08-13T08:39:33Z</time>
      </trkpt>
      <trkpt lat="44.81648" lon="6.19478">
        <ele>1103.2</ele>
        <time>2024-08-13T08:39:34Z</time>
      </trkpt>
      <trkpt lat="44.81648" lon="6.19478">
        <ele>1103.2</ele>
        <time>2024-08-13T08:39:35Z</time>
      </trkpt>
      <trkpt lat="44.81648" lon="6.19478">
        <ele>1103.2</ele>
        <time>2024-08-13T08:39:36Z</time>
      </trkpt>
      <trkpt lat="44.81648" lon="6.19478">
        <ele>1103.2</ele>
        <time>2024-08-13T08:39:37Z</time>
      </trkpt>
      <trkpt lat="44.81648" lon="6.19478">
        <ele>1103.2</ele>
        <time>2024-08-13T08:39:38Z</time>
      </trkpt>
      <trkpt lat="44.81648" lon="6.19478">
        <ele>1103.2</ele>
        <time>2024-08-13T08:39:39Z</time>
      </trkpt>
      <trkpt lat="44.81648" lon="6.19478">
        <ele>1103.2</ele>
        <time>2024-08-13T08:39:40Z</time>
      </trkpt>
      <trkpt lat="44.81648" lon="6.19478">
        <ele>1103.2</ele>
        <time>2024-08-13T08:39:41Z</time>
      </trkpt>
      <trkpt lat="44.81648" lon="6.19478">
        <ele>1103.2</ele>
        <time>2024-08-13T08:39:42Z</time>
      </trkpt>
      <trkpt lat="44.81648" lon="6.19478">
        <ele>1103.2</ele>
        <time>2024-08-13T08:39:43Z</time>
      </trkpt>
      <trkpt lat="44.81648" lon="6.19478">
        <ele>1103</ele>
        <time>2024-08-13T08:39:44Z</time>
      </trkpt>
      <trkpt lat="44.81648" lon="6.19478">
        <ele>1103</ele>
        <time>2024-08-13T08:39:45Z</time>
      </trkpt>
      <trkpt lat="44.81648" lon="6.19478">
        <ele>1103</ele>
        <time>2024-08-13T08:39:46Z</time>
      </trkpt>
      <trkpt lat="44.81648" lon="6.19478">
        <ele>1103</ele>
        <time>2024-08-13T08:39:47Z</time>
      </trkpt>
      <trkpt lat="44.81648" lon="6.19478">
        <ele>1103</ele>
        <time>2024-08-13T08:39:48Z</time>
      </trkpt>
      <trkpt lat="44.81648" lon="6.19478">
        <ele>1103</ele>
        <time>2024-08-13T08:39:49Z</time>
      </trkpt>
      <trkpt lat="44.81648" lon="6.19478">
        <ele>1103</ele>
        <time>2024-08-13T08:39:50Z</time>
      </trkpt>
      <trkpt lat="44.81648" lon="6.19478">
        <ele>1103</ele>
        <time>2024-08-13T08:39:51Z</time>
      </trkpt>
      <trkpt lat="44.81648" lon="6.19478">
        <ele>1103</ele>
        <time>2024-08-13T08:39:52Z</time>
      </trkpt>
      <trkpt lat="44.81648" lon="6.19478">
        <ele>1103</ele>
        <time>2024-08-13T08:39:53Z</time>
      </trkpt>
      <trkpt lat="44.81648" lon="6.19478">
        <ele>1103</ele>
        <time>2024-08-13T08:39:54Z</time>
      </trkpt>
      <trkpt lat="44.81648" lon="6.19478">
        <ele>1103</ele>
        <time>2024-08-13T08:39:55Z</time>
      </trkpt>
      <trkpt lat="44.81648" lon="6.19478">
        <ele>1103</ele>
        <time>2024-08-13T08:39:56Z</time>
      </trkpt>
      <trkpt lat="44.81648" lon="6.19478">
        <ele>1103.2</ele>
        <time>2024-08-13T08:39:57Z</time>
      </trkpt>
      <trkpt lat="44.81648" lon="6.19478">
        <ele>1103.2</ele>
        <time>2024-08-13T08:39:58Z</time>
      </trkpt>
      <trkpt lat="44.81648" lon="6.19478">
        <ele>1103.2</ele>
        <time>2024-08-13T08:39:59Z</time>
      </trkpt>
      <trkpt lat="44.81648" lon="6.19478">
        <ele>1103.2</ele>
        <time>2024-08-13T08:40:00Z</time>
      </trkpt>
      <trkpt lat="44.81648" lon="6.19478">
        <ele>1103.2</ele>
        <time>2024-08-13T08:40:01Z</time>
      </trkpt>
      <trkpt lat="44.81648" lon="6.19478">
        <ele>1103.2</ele>
        <time>2024-08-13T08:40:02Z</time>
      </trkpt>
      <trkpt lat="44.81648" lon="6.19478">
        <ele>1103.2</ele>
        <time>2024-08-13T08:40:03Z</time>
      </trkpt>
      <trkpt lat="44.81648" lon="6.19478">
        <ele>1103.2</ele>
        <time>2024-08-13T08:40:04Z</time>
      </trkpt>
      <trkpt lat="44.81648" lon="6.19478">
        <ele>1103.2</ele>
        <time>2024-08-13T08:40:05Z</time>
      </trkpt>
      <trkpt lat="44.81648" lon="6.19478">
        <ele>1103.4</ele>
        <time>2024-08-13T08:40:06Z</time>
      </trkpt>
      <trkpt lat="44.81648" lon="6.19478">
        <ele>1103.4</ele>
        <time>2024-08-13T08:40:07Z</time>
      </trkpt>
      <trkpt lat="44.81648" lon="6.19478">
        <ele>1103.4</ele>
        <time>2024-08-13T08:40:08Z</time>
      </trkpt>
      <trkpt lat="44.81648" lon="6.19478">
        <ele>1103.4</ele>
        <time>2024-08-13T08:40:09Z</time>
      </trkpt>
      <trkpt lat="44.81648" lon="6.19478">
        <ele>1103.2</ele>
        <time>2024-08-13T08:40:10Z</time>
      </trkpt>
      <trkpt lat="44.81648" lon="6.19478">
        <ele>1103.2</ele>
        <time>2024-08-13T08:40:11Z</time>
      </trkpt>
      <trkpt lat="44.81648" lon="6.19478">
        <ele>1103.2</ele>
        <time>2024-08-13T08:40:12Z</time>
      </trkpt>
      <trkpt lat="44.81648" lon="6.19478">
        <ele>1103.2</ele>
        <time>2024-08-13T08:40:13Z</time>
      </trkpt>
      <trkpt lat="44.81648" lon="6.19478">
        <ele>1103.2</ele>
        <time>2024-08-13T08:40:14Z</time>
      </trkpt>
      <trkpt lat="44.81648" lon="6.19478">
        <ele>1103.4</ele>
        <time>2024-08-13T08:40:15Z</time>
      </trkpt>
      <trkpt lat="44.81648" lon="6.19478">
        <ele>1103.4</ele>
        <time>2024-08-13T08:40:16Z</time>
      </trkpt>
      <trkpt lat="44.81648" lon="6.19478">
        <ele>1103</ele>
        <time>2024-08-13T08:40:17Z</time>
      </trkpt>
      <trkpt lat="44.81648" lon="6.19478">
        <ele>1103</ele>
        <time>2024-08-13T08:40:18Z</time>
      </trkpt>
      <trkpt lat="44.81646" lon="6.19481">
        <ele>1103</ele>
        <time>2024-08-13T08:40:19Z</time>
      </trkpt>
      <trkpt lat="44.81646" lon="6.19481">
        <ele>1103</ele>
        <time>2024-08-13T08:40:20Z</time>
      </trkpt>
      <trkpt lat="44.81646" lon="6.19481">
        <ele>1102.8</ele>
        <time>2024-08-13T08:40:21Z</time>
      </trkpt>
      <trkpt lat="44.81646" lon="6.19481">
        <ele>1102.8</ele>
        <time>2024-08-13T08:40:22Z</time>
      </trkpt>
      <trkpt lat="44.81646" lon="6.19481">
        <ele>1103</ele>
        <time>2024-08-13T08:40:23Z</time>
      </trkpt>
      <trkpt lat="44.81646" lon="6.19481">
        <ele>1103</ele>
        <time>2024-08-13T08:40:24Z</time>
      </trkpt>
      <trkpt lat="44.81646" lon="6.19481">
        <ele>1103</ele>
        <time>2024-08-13T08:40:25Z</time>
      </trkpt>
      <trkpt lat="44.81646" lon="6.19481">
        <ele>1102.8</ele>
        <time>2024-08-13T08:40:26Z</time>
      </trkpt>
      <trkpt lat="44.81646" lon="6.19481">
        <ele>1103</ele>
        <time>2024-08-13T08:40:27Z</time>
      </trkpt>
      <trkpt lat="44.81646" lon="6.19481">
        <ele>1103.2</ele>
        <time>2024-08-13T08:40:28Z</time>
      </trkpt>
      <trkpt lat="44.81646" lon="6.19481">
        <ele>1103.2</ele>
        <time>2024-08-13T08:40:29Z</time>
      </trkpt>
      <trkpt lat="44.81646" lon="6.19481">
        <ele>1103.2</ele>
        <time>2024-08-13T08:40:30Z</time>
      </trkpt>
      <trkpt lat="44.81646" lon="6.19481">
        <ele>1103</ele>
        <time>2024-08-13T08:40:31Z</time>
      </trkpt>
      <trkpt lat="44.81646" lon="6.19481">
        <ele>1103</ele>
        <time>2024-08-13T08:40:32Z</time>
      </trkpt>
      <trkpt lat="44.81646" lon="6.19481">
        <ele>1103.2</ele>
        <time>2024-08-13T08:40:33Z</time>
      </trkpt>
      <trkpt lat="44.81646" lon="6.19481">
        <ele>1103.2</ele>
        <time>2024-08-13T08:40:34Z</time>
      </trkpt>
      <trkpt lat="44.81646" lon="6.19481">
        <ele>1103</ele>
        <time>2024-08-13T08:40:35Z</time>
      </trkpt>
      <trkpt lat="44.81646" lon="6.19481">
        <ele>1103</ele>
        <time>2024-08-13T08:40:36Z</time>
      </trkpt>
      <trkpt lat="44.81646" lon="6.19481">
        <ele>1102.8</ele>
        <time>2024-08-13T08:40:37Z</time>
      </trkpt>
      <trkpt lat="44.81646" lon="6.19481">
        <ele>1102.8</ele>
        <time>2024-08-13T08:40:38Z</time>
      </trkpt>
      <trkpt lat="44.81646" lon="6.19481">
        <ele>1103</ele>
        <time>2024-08-13T08:40:39Z</time>
      </trkpt>
      <trkpt lat="44.81646" lon="6.19481">
        <ele>1103</ele>
        <time>2024-08-13T08:40:40Z</time>
      </trkpt>
      <trkpt lat="44.81646" lon="6.19481">
        <ele>1103</ele>
        <time>2024-08-13T08:40:41Z</time>
      </trkpt>
      <trkpt lat="44.81646" lon="6.19481">
        <ele>1103.2</ele>
        <time>2024-08-13T08:40:42Z</time>
      </trkpt>
      <trkpt lat="44.81646" lon="6.19481">
        <ele>1103.2</ele>
        <time>2024-08-13T08:40:43Z</time>
      </trkpt>
      <trkpt lat="44.81646" lon="6.19481">
        <ele>1103.2</ele>
        <time>2024-08-13T08:40:44Z</time>
      </trkpt>
      <trkpt lat="44.81646" lon="6.19481">
        <ele>1103.2</ele>
        <time>2024-08-13T08:40:45Z</time>
      </trkpt>
      <trkpt lat="44.81646" lon="6.19481">
        <ele>1103.2</ele>
        <time>2024-08-13T08:40:46Z</time>
      </trkpt>
      <trkpt lat="44.81646" lon="6.19481">
        <ele>1103</ele>
        <time>2024-08-13T08:40:47Z</time>
      </trkpt>
      <trkpt lat="44.81646" lon="6.19481">
        <ele>1103</ele>
        <time>2024-08-13T08:40:48Z</time>
      </trkpt>
      <trkpt lat="44.81646" lon="6.19481">
        <ele>1103</ele>
        <time>2024-08-13T08:40:49Z</time>
      </trkpt>
      <trkpt lat="44.81646" lon="6.19481">
        <ele>1103</ele>
        <time>2024-08-13T08:40:50Z</time>
      </trkpt>
      <trkpt lat="44.81646" lon="6.19481">
        <ele>1103</ele>
        <time>2024-08-13T08:40:51Z</time>
      </trkpt>
      <trkpt lat="44.81645" lon="6.19483">
        <ele>1103</ele>
        <time>2024-08-13T08:40:52Z</time>
      </trkpt>
      <trkpt lat="44.81645" lon="6.19483">
        <ele>1102.8</ele>
        <time>2024-08-13T08:40:53Z</time>
      </trkpt>
      <trkpt lat="44.81645" lon="6.19483">
        <ele>1102.8</ele>
        <time>2024-08-13T08:40:54Z</time>
      </trkpt>
      <trkpt lat="44.81645" lon="6.19483">
        <ele>1103</ele>
        <time>2024-08-13T08:40:55Z</time>
      </trkpt>
      <trkpt lat="44.81645" lon="6.19483">
        <ele>1103</ele>
        <time>2024-08-13T08:40:56Z</time>
      </trkpt>
      <trkpt lat="44.81645" lon="6.19483">
        <ele>1103</ele>
        <time>2024-08-13T08:40:57Z</time>
      </trkpt>
      <trkpt lat="44.81647" lon="6.19481">
        <ele>1103.2</ele>
        <time>2024-08-13T08:40:58Z</time>
      </trkpt>
      <trkpt lat="44.81647" lon="6.19481">
        <ele>1103.2</ele>
        <time>2024-08-13T08:40:59Z</time>
      </trkpt>
      <trkpt lat="44.81647" lon="6.19481">
        <ele>1103.2</ele>
        <time>2024-08-13T08:41:00Z</time>
      </trkpt>
      <trkpt lat="44.81647" lon="6.19481">
        <ele>1103.2</ele>
        <time>2024-08-13T08:41:01Z</time>
      </trkpt>
      <trkpt lat="44.81647" lon="6.19481">
        <ele>1103.2</ele>
        <time>2024-08-13T08:41:02Z</time>
      </trkpt>
      <trkpt lat="44.81647" lon="6.19481">
        <ele>1103.2</ele>
        <time>2024-08-13T08:41:03Z</time>
      </trkpt>
      <trkpt lat="44.81647" lon="6.19481">
        <ele>1103</ele>
        <time>2024-08-13T08:41:04Z</time>
      </trkpt>
      <trkpt lat="44.81647" lon="6.19481">
        <ele>1103</ele>
        <time>2024-08-13T08:41:05Z</time>
      </trkpt>
      <trkpt lat="44.81647" lon="6.19481">
        <ele>1103</ele>
        <time>2024-08-13T08:41:06Z</time>
      </trkpt>
      <trkpt lat="44.81647" lon="6.19481">
        <ele>1103</ele>
        <time>2024-08-13T08:41:07Z</time>
      </trkpt>
      <trkpt lat="44.81647" lon="6.19481">
        <ele>1103</ele>
        <time>2024-08-13T08:41:08Z</time>
      </trkpt>
      <trkpt lat="44.81647" lon="6.19481">
        <ele>1103</ele>
        <time>2024-08-13T08:41:09Z</time>
      </trkpt>
      <trkpt lat="44.81647" lon="6.19481">
        <ele>1103</ele>
        <time>2024-08-13T08:41:10Z</time>
      </trkpt>
      <trkpt lat="44.81647" lon="6.19481">
        <ele>1103</ele>
        <time>2024-08-13T08:41:11Z</time>
      </trkpt>
      <trkpt lat="44.81647" lon="6.19481">
        <ele>1103</ele>
        <time>2024-08-13T08:41:12Z</time>
      </trkpt>
      <trkpt lat="44.81647" lon="6.19481">
        <ele>1103.2</ele>
        <time>2024-08-13T08:41:13Z</time>
      </trkpt>
      <trkpt lat="44.81647" lon="6.19481">
        <ele>1103.2</ele>
        <time>2024-08-13T08:41:14Z</time>
      </trkpt>
      <trkpt lat="44.81647" lon="6.19481">
        <ele>1103</ele>
        <time>2024-08-13T08:41:15Z</time>
      </trkpt>
      <trkpt lat="44.81647" lon="6.19481">
        <ele>1103</ele>
        <time>2024-08-13T08:41:16Z</time>
      </trkpt>
      <trkpt lat="44.81647" lon="6.19481">
        <ele>1103.2</ele>
        <time>2024-08-13T08:41:17Z</time>
      </trkpt>
      <trkpt lat="44.81647" lon="6.19481">
        <ele>1103.2</ele>
        <time>2024-08-13T08:41:18Z</time>
      </trkpt>
      <trkpt lat="44.81647" lon="6.19478">
        <ele>1103.2</ele>
        <time>2024-08-13T08:41:19Z</time>
      </trkpt>
      <trkpt lat="44.81647" lon="6.19478">
        <ele>1103.2</ele>
        <time>2024-08-13T08:41:20Z</time>
      </trkpt>
      <trkpt lat="44.81647" lon="6.19478">
        <ele>1103.2</ele>
        <time>2024-08-13T08:41:21Z</time>
      </trkpt>
      <trkpt lat="44.81647" lon="6.19478">
        <ele>1103.2</ele>
        <time>2024-08-13T08:41:22Z</time>
      </trkpt>
      <trkpt lat="44.81647" lon="6.19478">
        <ele>1103.2</ele>
        <time>2024-08-13T08:41:23Z</time>
      </trkpt>
      <trkpt lat="44.81647" lon="6.19478">
        <ele>1103.2</ele>
        <time>2024-08-13T08:41:24Z</time>
      </trkpt>
      <trkpt lat="44.81647" lon="6.19478">
        <ele>1103.2</ele>
        <time>2024-08-13T08:41:25Z</time>
      </trkpt>
      <trkpt lat="44.81647" lon="6.19478">
        <ele>1103.2</ele>
        <time>2024-08-13T08:41:26Z</time>
      </trkpt>
      <trkpt lat="44.81647" lon="6.19478">
        <ele>1103</ele>
        <time>2024-08-13T08:41:27Z</time>
      </trkpt>
      <trkpt lat="44.81647" lon="6.19478">
        <ele>1103</ele>
        <time>2024-08-13T08:41:28Z</time>
      </trkpt>
      <trkpt lat="44.81647" lon="6.19478">
        <ele>1102.8</ele>
        <time>2024-08-13T08:41:29Z</time>
      </trkpt>
      <trkpt lat="44.81647" lon="6.19478">
        <ele>1102.8</ele>
        <time>2024-08-13T08:41:30Z</time>
      </trkpt>
      <trkpt lat="44.81647" lon="6.19478">
        <ele>1103</ele>
        <time>2024-08-13T08:41:31Z</time>
      </trkpt>
      <trkpt lat="44.81647" lon="6.19478">
        <ele>1103</ele>
        <time>2024-08-13T08:41:32Z</time>
      </trkpt>
      <trkpt lat="44.81647" lon="6.19478">
        <ele>1103</ele>
        <time>2024-08-13T08:41:33Z</time>
      </trkpt>
      <trkpt lat="44.81647" lon="6.19478">
        <ele>1102.8</ele>
        <time>2024-08-13T08:41:34Z</time>
      </trkpt>
      <trkpt lat="44.81647" lon="6.19478">
        <ele>1102.8</ele>
        <time>2024-08-13T08:41:35Z</time>
      </trkpt>
      <trkpt lat="44.81647" lon="6.19478">
        <ele>1102.8</ele>
        <time>2024-08-13T08:41:36Z</time>
      </trkpt>
      <trkpt lat="44.81647" lon="6.19478">
        <ele>1102.8</ele>
        <time>2024-08-13T08:41:37Z</time>
      </trkpt>
      <trkpt lat="44.81647" lon="6.19478">
        <ele>1103</ele>
        <time>2024-08-13T08:41:38Z</time>
      </trkpt>
      <trkpt lat="44.81647" lon="6.19478">
        <ele>1103</ele>
        <time>2024-08-13T08:41:39Z</time>
      </trkpt>
      <trkpt lat="44.81647" lon="6.19478">
        <ele>1102.8</ele>
        <time>2024-08-13T08:41:40Z</time>
      </trkpt>
      <trkpt lat="44.81647" lon="6.19478">
        <ele>1102.8</ele>
        <time>2024-08-13T08:41:41Z</time>
      </trkpt>
      <trkpt lat="44.81647" lon="6.19478">
        <ele>1102.6</ele>
        <time>2024-08-13T08:41:42Z</time>
      </trkpt>
      <trkpt lat="44.81647" lon="6.19478">
        <ele>1102.6</ele>
        <time>2024-08-13T08:41:43Z</time>
      </trkpt>
      <trkpt lat="44.81647" lon="6.19473">
        <ele>1102.6</ele>
        <time>2024-08-13T08:41:44Z</time>
      </trkpt>
      <trkpt lat="44.81647" lon="6.19473">
        <ele>1102.6</ele>
        <time>2024-08-13T08:41:45Z</time>
      </trkpt>
      <trkpt lat="44.81649" lon="6.1947">
        <ele>1102.6</ele>
        <time>2024-08-13T08:41:46Z</time>
      </trkpt>
      <trkpt lat="44.81649" lon="6.1947">
        <ele>1102.8</ele>
        <time>2024-08-13T08:41:47Z</time>
      </trkpt>
      <trkpt lat="44.81649" lon="6.1947">
        <ele>1102.8</ele>
        <time>2024-08-13T08:41:48Z</time>
      </trkpt>
      <trkpt lat="44.81648" lon="6.19473">
        <ele>1102.8</ele>
        <time>2024-08-13T08:41:49Z</time>
      </trkpt>
      <trkpt lat="44.81648" lon="6.19473">
        <ele>1102.8</ele>
        <time>2024-08-13T08:41:50Z</time>
      </trkpt>
      <trkpt lat="44.81647" lon="6.19475">
        <ele>1102.8</ele>
        <time>2024-08-13T08:41:51Z</time>
      </trkpt>
      <trkpt lat="44.81647" lon="6.19475">
        <ele>1102.8</ele>
        <time>2024-08-13T08:41:52Z</time>
      </trkpt>
      <trkpt lat="44.81647" lon="6.19475">
        <ele>1102.6</ele>
        <time>2024-08-13T08:41:53Z</time>
      </trkpt>
      <trkpt lat="44.81645" lon="6.19478">
        <ele>1102.6</ele>
        <time>2024-08-13T08:41:54Z</time>
      </trkpt>
      <trkpt lat="44.81645" lon="6.19478">
        <ele>1102.6</ele>
        <time>2024-08-13T08:41:55Z</time>
      </trkpt>
      <trkpt lat="44.81645" lon="6.19483">
        <ele>1102.6</ele>
        <time>2024-08-13T08:41:56Z</time>
      </trkpt>
      <trkpt lat="44.81645" lon="6.19483">
        <ele>1102.6</ele>
        <time>2024-08-13T08:41:57Z</time>
      </trkpt>
      <trkpt lat="44.81645" lon="6.19483">
        <ele>1102.6</ele>
        <time>2024-08-13T08:41:58Z</time>
      </trkpt>
      <trkpt lat="44.81645" lon="6.19483">
        <ele>1102.6</ele>
        <time>2024-08-13T08:41:59Z</time>
      </trkpt>
      <trkpt lat="44.81645" lon="6.19483">
        <ele>1102.6</ele>
        <time>2024-08-13T08:42:00Z</time>
      </trkpt>
      <trkpt lat="44.81645" lon="6.19483">
        <ele>1102.6</ele>
        <time>2024-08-13T08:42:01Z</time>
      </trkpt>
      <trkpt lat="44.81645" lon="6.19483">
        <ele>1102.6</ele>
        <time>2024-08-13T08:42:02Z</time>
      </trkpt>
      <trkpt lat="44.81645" lon="6.19483">
        <ele>1102.6</ele>
        <time>2024-08-13T08:42:03Z</time>
      </trkpt>
      <trkpt lat="44.81645" lon="6.19483">
        <ele>1102.6</ele>
        <time>2024-08-13T08:42:04Z</time>
      </trkpt>
      <trkpt lat="44.81645" lon="6.19483">
        <ele>1102.6</ele>
        <time>2024-08-13T08:42:05Z</time>
      </trkpt>
      <trkpt lat="44.81645" lon="6.19483">
        <ele>1102.6</ele>
        <time>2024-08-13T08:42:06Z</time>
      </trkpt>
      <trkpt lat="44.81645" lon="6.19483">
        <ele>1102.6</ele>
        <time>2024-08-13T08:42:07Z</time>
      </trkpt>
      <trkpt lat="44.81645" lon="6.19483">
        <ele>1102.6</ele>
        <time>2024-08-13T08:42:08Z</time>
      </trkpt>
      <trkpt lat="44.81645" lon="6.19483">
        <ele>1102.6</ele>
        <time>2024-08-13T08:42:09Z</time>
      </trkpt>
      <trkpt lat="44.81645" lon="6.19483">
        <ele>1102.6</ele>
        <time>2024-08-13T08:42:10Z</time>
      </trkpt>
      <trkpt lat="44.81645" lon="6.19483">
        <ele>1102.8</ele>
        <time>2024-08-13T08:42:11Z</time>
      </trkpt>
      <trkpt lat="44.81645" lon="6.19483">
        <ele>1102.8</ele>
        <time>2024-08-13T08:42:12Z</time>
      </trkpt>
      <trkpt lat="44.81645" lon="6.19483">
        <ele>1102.6</ele>
        <time>2024-08-13T08:42:13Z</time>
      </trkpt>
      <trkpt lat="44.81645" lon="6.19483">
        <ele>1102.6</ele>
        <time>2024-08-13T08:42:14Z</time>
      </trkpt>
      <trkpt lat="44.81645" lon="6.19483">
        <ele>1102.6</ele>
        <time>2024-08-13T08:42:15Z</time>
      </trkpt>
      <trkpt lat="44.81645" lon="6.19483">
        <ele>1102.6</ele>
        <time>2024-08-13T08:42:16Z</time>
      </trkpt>
      <trkpt lat="44.81645" lon="6.19483">
        <ele>1102.6</ele>
        <time>2024-08-13T08:42:17Z</time>
      </trkpt>
      <trkpt lat="44.81645" lon="6.19479">
        <ele>1102.6</ele>
        <time>2024-08-13T08:42:18Z</time>
      </trkpt>
      <trkpt lat="44.81645" lon="6.19479">
        <ele>1102.6</ele>
        <time>2024-08-13T08:42:19Z</time>
      </trkpt>
      <trkpt lat="44.81645" lon="6.19476">
        <ele>1102.6</ele>
        <time>2024-08-13T08:42:20Z</time>
      </trkpt>
      <trkpt lat="44.81645" lon="6.19476">
        <ele>1102.6</ele>
        <time>2024-08-13T08:42:21Z</time>
      </trkpt>
      <trkpt lat="44.81645" lon="6.19476">
        <ele>1102.6</ele>
        <time>2024-08-13T08:42:22Z</time>
      </trkpt>
      <trkpt lat="44.81645" lon="6.19476">
        <ele>1102.6</ele>
        <time>2024-08-13T08:42:23Z</time>
      </trkpt>
      <trkpt lat="44.81646" lon="6.19474">
        <ele>1102.6</ele>
        <time>2024-08-13T08:42:24Z</time>
      </trkpt>
      <trkpt lat="44.81646" lon="6.19474">
        <ele>1102.6</ele>
        <time>2024-08-13T08:42:25Z</time>
      </trkpt>
      <trkpt lat="44.81646" lon="6.19474">
        <ele>1102.6</ele>
        <time>2024-08-13T08:42:26Z</time>
      </trkpt>
      <trkpt lat="44.81646" lon="6.19474">
        <ele>1102.6</ele>
        <time>2024-08-13T08:42:27Z</time>
      </trkpt>
      <trkpt lat="44.81646" lon="6.19474">
        <ele>1102.6</ele>
        <time>2024-08-13T08:42:28Z</time>
      </trkpt>
      <trkpt lat="44.81646" lon="6.19474">
        <ele>1102.6</ele>
        <time>2024-08-13T08:42:29Z</time>
      </trkpt>
      <trkpt lat="44.81649" lon="6.19474">
        <ele>1102.6</ele>
        <time>2024-08-13T08:42:30Z</time>
      </trkpt>
      <trkpt lat="44.81649" lon="6.19474">
        <ele>1102.6</ele>
        <time>2024-08-13T08:42:31Z</time>
      </trkpt>
      <trkpt lat="44.81652" lon="6.19474">
        <ele>1102.6</ele>
        <time>2024-08-13T08:42:32Z</time>
      </trkpt>
      <trkpt lat="44.81655" lon="6.19474">
        <ele>1102.6</ele>
        <time>2024-08-13T08:42:33Z</time>
      </trkpt>
      <trkpt lat="44.81658" lon="6.19473">
        <ele>1102.6</ele>
        <time>2024-08-13T08:42:34Z</time>
      </trkpt>
      <trkpt lat="44.81662" lon="6.19471">
        <ele>1102.8</ele>
        <time>2024-08-13T08:42:35Z</time>
      </trkpt>
      <trkpt lat="44.81663" lon="6.1947">
        <ele>1102.8</ele>
        <time>2024-08-13T08:42:36Z</time>
      </trkpt>
      <trkpt lat="44.81663" lon="6.1947">
        <ele>1102.8</ele>
        <time>2024-08-13T08:42:37Z</time>
      </trkpt>
      <trkpt lat="44.81665" lon="6.19466">
        <ele>1102.8</ele>
        <time>2024-08-13T08:42:38Z</time>
      </trkpt>
      <trkpt lat="44.81665" lon="6.19466">
        <ele>1102.8</ele>
        <time>2024-08-13T08:42:39Z</time>
      </trkpt>
      <trkpt lat="44.81667" lon="6.19463">
        <ele>1102.8</ele>
        <time>2024-08-13T08:42:40Z</time>
      </trkpt>
      <trkpt lat="44.81669" lon="6.19462">
        <ele>1102.8</ele>
        <time>2024-08-13T08:42:41Z</time>
      </trkpt>
      <trkpt lat="44.81671" lon="6.19461">
        <ele>1102.8</ele>
        <time>2024-08-13T08:42:42Z</time>
      </trkpt>
      <trkpt lat="44.81673" lon="6.1946">
        <ele>1102.8</ele>
        <time>2024-08-13T08:42:43Z</time>
      </trkpt>
      <trkpt lat="44.81673" lon="6.1946">
        <ele>1102.8</ele>
        <time>2024-08-13T08:42:44Z</time>
      </trkpt>
      <trkpt lat="44.81675" lon="6.19457">
        <ele>1102.8</ele>
        <time>2024-08-13T08:42:45Z</time>
      </trkpt>
      <trkpt lat="44.81676" lon="6.19455">
        <ele>1102.6</ele>
        <time>2024-08-13T08:42:46Z</time>
      </trkpt>
      <trkpt lat="44.81676" lon="6.19455">
        <ele>1102.6</ele>
        <time>2024-08-13T08:42:47Z</time>
      </trkpt>
      <trkpt lat="44.81678" lon="6.19451">
        <ele>1102.6</ele>
        <time>2024-08-13T08:42:48Z</time>
      </trkpt>
      <trkpt lat="44.81678" lon="6.19451">
        <ele>1102.8</ele>
        <time>2024-08-13T08:42:49Z</time>
      </trkpt>
      <trkpt lat="44.8168" lon="6.19448">
        <ele>1102.8</ele>
        <time>2024-08-13T08:42:50Z</time>
      </trkpt>
      <trkpt lat="44.8168" lon="6.19448">
        <ele>1102.8</ele>
        <time>2024-08-13T08:42:51Z</time>
      </trkpt>
      <trkpt lat="44.81682" lon="6.19445">
        <ele>1102.8</ele>
        <time>2024-08-13T08:42:52Z</time>
      </trkpt>
      <trkpt lat="44.81682" lon="6.19445">
        <ele>1102.8</ele>
        <time>2024-08-13T08:42:53Z</time>
      </trkpt>
      <trkpt lat="44.81683" lon="6.19442">
        <ele>1102.8</ele>
        <time>2024-08-13T08:42:54Z</time>
      </trkpt>
      <trkpt lat="44.81683" lon="6.19442">
        <ele>1102.6</ele>
        <time>2024-08-13T08:42:55Z</time>
      </trkpt>
      <trkpt lat="44.81685" lon="6.19439">
        <ele>1102.4</ele>
        <time>2024-08-13T08:42:56Z</time>
      </trkpt>
      <trkpt lat="44.81685" lon="6.19439">
        <ele>1102.4</ele>
        <time>2024-08-13T08:42:57Z</time>
      </trkpt>
      <trkpt lat="44.81686" lon="6.19436">
        <ele>1102.2</ele>
        <time>2024-08-13T08:42:58Z</time>
      </trkpt>
      <trkpt lat="44.81686" lon="6.19436">
        <ele>1102.2</ele>
        <time>2024-08-13T08:42:59Z</time>
      </trkpt>
      <trkpt lat="44.81688" lon="6.19433">
        <ele>1102.2</ele>
        <time>2024-08-13T08:43:00Z</time>
      </trkpt>
      <trkpt lat="44.81688" lon="6.19433">
        <ele>1102.2</ele>
        <time>2024-08-13T08:43:01Z</time>
      </trkpt>
      <trkpt lat="44.8169" lon="6.19429">
        <ele>1102.2</ele>
        <time>2024-08-13T08:43:02Z</time>
      </trkpt>
      <trkpt lat="44.8169" lon="6.19429">
        <ele>1102.2</ele>
        <time>2024-08-13T08:43:03Z</time>
      </trkpt>
      <trkpt lat="44.81693" lon="6.19426">
        <ele>1101.8</ele>
        <time>2024-08-13T08:43:04Z</time>
      </trkpt>
      <trkpt lat="44.81693" lon="6.19426">
        <ele>1101.8</ele>
        <time>2024-08-13T08:43:05Z</time>
      </trkpt>
      <trkpt lat="44.81694" lon="6.19424">
        <ele>1101.6</ele>
        <time>2024-08-13T08:43:06Z</time>
      </trkpt>
      <trkpt lat="44.81694" lon="6.19424">
        <ele>1101.6</ele>
        <time>2024-08-13T08:43:07Z</time>
      </trkpt>
      <trkpt lat="44.81697" lon="6.19422">
        <ele>1101.6</ele>
        <time>2024-08-13T08:43:08Z</time>
      </trkpt>
      <trkpt lat="44.81698" lon="6.1942">
        <ele>1101.6</ele>
        <time>2024-08-13T08:43:09Z</time>
      </trkpt>
      <trkpt lat="44.817" lon="6.19419">
        <ele>1101.6</ele>
        <time>2024-08-13T08:43:10Z</time>
      </trkpt>
      <trkpt lat="44.81702" lon="6.19418">
        <ele>1101.4</ele>
        <time>2024-08-13T08:43:11Z</time>
      </trkpt>
      <trkpt lat="44.81702" lon="6.19418">
        <ele>1101.4</ele>
        <time>2024-08-13T08:43:12Z</time>
      </trkpt>
      <trkpt lat="44.81703" lon="6.19414">
        <ele>1101.4</ele>
        <time>2024-08-13T08:43:13Z</time>
      </trkpt>
      <trkpt lat="44.81703" lon="6.19414">
        <ele>1101.2</ele>
        <time>2024-08-13T08:43:14Z</time>
      </trkpt>
      <trkpt lat="44.81704" lon="6.19411">
        <ele>1101.2</ele>
        <time>2024-08-13T08:43:15Z</time>
      </trkpt>
      <trkpt lat="44.81704" lon="6.19411">
        <ele>1101.2</ele>
        <time>2024-08-13T08:43:16Z</time>
      </trkpt>
      <trkpt lat="44.81706" lon="6.19407">
        <ele>1101.2</ele>
        <time>2024-08-13T08:43:17Z</time>
      </trkpt>
      <trkpt lat="44.81706" lon="6.19407">
        <ele>1101</ele>
        <time>2024-08-13T08:43:18Z</time>
      </trkpt>
      <trkpt lat="44.81708" lon="6.19404">
        <ele>1100.8</ele>
        <time>2024-08-13T08:43:19Z</time>
      </trkpt>
      <trkpt lat="44.81708" lon="6.19404">
        <ele>1100.8</ele>
        <time>2024-08-13T08:43:20Z</time>
      </trkpt>
      <trkpt lat="44.8171" lon="6.19401">
        <ele>1100.8</ele>
        <time>2024-08-13T08:43:21Z</time>
      </trkpt>
      <trkpt lat="44.8171" lon="6.19401">
        <ele>1100.8</ele>
        <time>2024-08-13T08:43:22Z</time>
      </trkpt>
      <trkpt lat="44.81713" lon="6.19399">
        <ele>1100.6</ele>
        <time>2024-08-13T08:43:23Z</time>
      </trkpt>
      <trkpt lat="44.81713" lon="6.19399">
        <ele>1100.6</ele>
        <time>2024-08-13T08:43:24Z</time>
      </trkpt>
      <trkpt lat="44.81715" lon="6.19396">
        <ele>1100.6</ele>
        <time>2024-08-13T08:43:25Z</time>
      </trkpt>
      <trkpt lat="44.81715" lon="6.19396">
        <ele>1100.6</ele>
        <time>2024-08-13T08:43:26Z</time>
      </trkpt>
      <trkpt lat="44.81716" lon="6.19393">
        <ele>1100.4</ele>
        <time>2024-08-13T08:43:27Z</time>
      </trkpt>
      <trkpt lat="44.81716" lon="6.19393">
        <ele>1100.4</ele>
        <time>2024-08-13T08:43:28Z</time>
      </trkpt>
      <trkpt lat="44.81717" lon="6.1939">
        <ele>1100.4</ele>
        <time>2024-08-13T08:43:29Z</time>
      </trkpt>
      <trkpt lat="44.81717" lon="6.1939">
        <ele>1100.4</ele>
        <time>2024-08-13T08:43:30Z</time>
      </trkpt>
      <trkpt lat="44.81719" lon="6.19387">
        <ele>1100.2</ele>
        <time>2024-08-13T08:43:31Z</time>
      </trkpt>
      <trkpt lat="44.81719" lon="6.19387">
        <ele>1100.2</ele>
        <time>2024-08-13T08:43:32Z</time>
      </trkpt>
      <trkpt lat="44.81721" lon="6.19384">
        <ele>1100.2</ele>
        <time>2024-08-13T08:43:33Z</time>
      </trkpt>
      <trkpt lat="44.81721" lon="6.19384">
        <ele>1100.4</ele>
        <time>2024-08-13T08:43:34Z</time>
      </trkpt>
      <trkpt lat="44.81724" lon="6.19381">
        <ele>1100.4</ele>
        <time>2024-08-13T08:43:35Z</time>
      </trkpt>
      <trkpt lat="44.81724" lon="6.19381">
        <ele>1100.4</ele>
        <time>2024-08-13T08:43:36Z</time>
      </trkpt>
      <trkpt lat="44.81726" lon="6.19378">
        <ele>1100.2</ele>
        <time>2024-08-13T08:43:37Z</time>
      </trkpt>
      <trkpt lat="44.81726" lon="6.19378">
        <ele>1100.2</ele>
        <time>2024-08-13T08:43:38Z</time>
      </trkpt>
      <trkpt lat="44.81728" lon="6.19376">
        <ele>1100.2</ele>
        <time>2024-08-13T08:43:39Z</time>
      </trkpt>
      <trkpt lat="44.81728" lon="6.19376">
        <ele>1100</ele>
        <time>2024-08-13T08:43:40Z</time>
      </trkpt>
      <trkpt lat="44.8173" lon="6.19377">
        <ele>1100</ele>
        <time>2024-08-13T08:43:41Z</time>
      </trkpt>
      <trkpt lat="44.8173" lon="6.19377">
        <ele>1100</ele>
        <time>2024-08-13T08:43:42Z</time>
      </trkpt>
      <trkpt lat="44.8173" lon="6.1938">
        <ele>1099.8</ele>
        <time>2024-08-13T08:43:43Z</time>
      </trkpt>
      <trkpt lat="44.8173" lon="6.1938">
        <ele>1099.8</ele>
        <time>2024-08-13T08:43:44Z</time>
      </trkpt>
      <trkpt lat="44.8173" lon="6.1938">
        <ele>1099.8</ele>
        <time>2024-08-13T08:43:45Z</time>
      </trkpt>
      <trkpt lat="44.8173" lon="6.1938">
        <ele>1099.8</ele>
        <time>2024-08-13T08:43:46Z</time>
      </trkpt>
      <trkpt lat="44.8173" lon="6.1938">
        <ele>1099.8</ele>
        <time>2024-08-13T08:43:47Z</time>
      </trkpt>
      <trkpt lat="44.8173" lon="6.1938">
        <ele>1099.8</ele>
        <time>2024-08-13T08:43:48Z</time>
      </trkpt>
      <trkpt lat="44.8173" lon="6.1938">
        <ele>1099.8</ele>
        <time>2024-08-13T08:43:49Z</time>
      </trkpt>
      <trkpt lat="44.8173" lon="6.1938">
        <ele>1099.6</ele>
        <time>2024-08-13T08:43:50Z</time>
      </trkpt>
      <trkpt lat="44.8173" lon="6.1938">
        <ele>1099.2</ele>
        <time>2024-08-13T08:43:51Z</time>
      </trkpt>
      <trkpt lat="44.8173" lon="6.1938">
        <ele>1099</ele>
        <time>2024-08-13T08:43:52Z</time>
      </trkpt>
      <trkpt lat="44.8173" lon="6.1938">
        <ele>1099</ele>
        <time>2024-08-13T08:43:53Z</time>
      </trkpt>
      <trkpt lat="44.8173" lon="6.1938">
        <ele>1099</ele>
        <time>2024-08-13T08:43:54Z</time>
      </trkpt>
      <trkpt lat="44.8173" lon="6.1938">
        <ele>1099.2</ele>
        <time>2024-08-13T08:43:55Z</time>
      </trkpt>
      <trkpt lat="44.8173" lon="6.1938">
        <ele>1099.2</ele>
        <time>2024-08-13T08:43:56Z</time>
      </trkpt>
      <trkpt lat="44.8173" lon="6.1938">
        <ele>1099.2</ele>
        <time>2024-08-13T08:43:57Z</time>
      </trkpt>
      <trkpt lat="44.8173" lon="6.1938">
        <ele>1099.2</ele>
        <time>2024-08-13T08:43:58Z</time>
      </trkpt>
      <trkpt lat="44.8173" lon="6.1938">
        <ele>1099.2</ele>
        <time>2024-08-13T08:43:59Z</time>
      </trkpt>
      <trkpt lat="44.8173" lon="6.1938">
        <ele>1099.2</ele>
        <time>2024-08-13T08:44:00Z</time>
      </trkpt>
      <trkpt lat="44.8173" lon="6.1938">
        <ele>1099.2</ele>
        <time>2024-08-13T08:44:01Z</time>
      </trkpt>
      <trkpt lat="44.8173" lon="6.1938">
        <ele>1099.4</ele>
        <time>2024-08-13T08:44:02Z</time>
      </trkpt>
      <trkpt lat="44.8173" lon="6.1938">
        <ele>1099.4</ele>
        <time>2024-08-13T08:44:03Z</time>
      </trkpt>
      <trkpt lat="44.8173" lon="6.1938">
        <ele>1099.4</ele>
        <time>2024-08-13T08:44:04Z</time>
      </trkpt>
      <trkpt lat="44.8173" lon="6.1938">
        <ele>1099.2</ele>
        <time>2024-08-13T08:44:05Z</time>
      </trkpt>
      <trkpt lat="44.8173" lon="6.1938">
        <ele>1099.2</ele>
        <time>2024-08-13T08:44:06Z</time>
      </trkpt>
      <trkpt lat="44.8173" lon="6.1938">
        <ele>1099.4</ele>
        <time>2024-08-13T08:44:07Z</time>
      </trkpt>
      <trkpt lat="44.8173" lon="6.1938">
        <ele>1099.4</ele>
        <time>2024-08-13T08:44:08Z</time>
      </trkpt>
      <trkpt lat="44.8173" lon="6.1938">
        <ele>1099.6</ele>
        <time>2024-08-13T08:44:09Z</time>
      </trkpt>
      <trkpt lat="44.8173" lon="6.1938">
        <ele>1099.6</ele>
        <time>2024-08-13T08:44:10Z</time>
      </trkpt>
      <trkpt lat="44.8173" lon="6.1938">
        <ele>1099.4</ele>
        <time>2024-08-13T08:44:11Z</time>
      </trkpt>
      <trkpt lat="44.8173" lon="6.1938">
        <ele>1099.4</ele>
        <time>2024-08-13T08:44:12Z</time>
      </trkpt>
      <trkpt lat="44.8173" lon="6.1938">
        <ele>1099.4</ele>
        <time>2024-08-13T08:44:13Z</time>
      </trkpt>
      <trkpt lat="44.8173" lon="6.1938">
        <ele>1099.4</ele>
        <time>2024-08-13T08:44:14Z</time>
      </trkpt>
      <trkpt lat="44.8173" lon="6.1938">
        <ele>1099.4</ele>
        <time>2024-08-13T08:44:15Z</time>
      </trkpt>
      <trkpt lat="44.8173" lon="6.1938">
        <ele>1099.6</ele>
        <time>2024-08-13T08:44:16Z</time>
      </trkpt>
      <trkpt lat="44.8173" lon="6.1938">
        <ele>1099.6</ele>
        <time>2024-08-13T08:44:17Z</time>
      </trkpt>
      <trkpt lat="44.8173" lon="6.1938">
        <ele>1099.6</ele>
        <time>2024-08-13T08:44:18Z</time>
      </trkpt>
      <trkpt lat="44.8173" lon="6.1938">
        <ele>1099.6</ele>
        <time>2024-08-13T08:44:19Z</time>
      </trkpt>
      <trkpt lat="44.8173" lon="6.1938">
        <ele>1099.6</ele>
        <time>2024-08-13T08:44:20Z</time>
      </trkpt>
      <trkpt lat="44.8173" lon="6.1938">
        <ele>1099.6</ele>
        <time>2024-08-13T08:44:21Z</time>
      </trkpt>
      <trkpt lat="44.8173" lon="6.1938">
        <ele>1099.6</ele>
        <time>2024-08-13T08:44:22Z</time>
      </trkpt>
      <trkpt lat="44.8173" lon="6.1938">
        <ele>1099.4</ele>
        <time>2024-08-13T08:44:23Z</time>
      </trkpt>
      <trkpt lat="44.8173" lon="6.1938">
        <ele>1099.4</ele>
        <time>2024-08-13T08:44:24Z</time>
      </trkpt>
      <trkpt lat="44.8173" lon="6.1938">
        <ele>1099.6</ele>
        <time>2024-08-13T08:44:25Z</time>
      </trkpt>
      <trkpt lat="44.8173" lon="6.1938">
        <ele>1099.8</ele>
        <time>2024-08-13T08:44:26Z</time>
      </trkpt>
      <trkpt lat="44.8173" lon="6.1938">
        <ele>1099.8</ele>
        <time>2024-08-13T08:44:27Z</time>
      </trkpt>
      <trkpt lat="44.8173" lon="6.1938">
        <ele>1099.6</ele>
        <time>2024-08-13T08:44:28Z</time>
      </trkpt>
      <trkpt lat="44.8173" lon="6.1938">
        <ele>1099.6</ele>
        <time>2024-08-13T08:44:29Z</time>
      </trkpt>
      <trkpt lat="44.8173" lon="6.1938">
        <ele>1099.4</ele>
        <time>2024-08-13T08:44:30Z</time>
      </trkpt>
      <trkpt lat="44.8173" lon="6.1938">
        <ele>1099.4</ele>
        <time>2024-08-13T08:44:31Z</time>
      </trkpt>
      <trkpt lat="44.8173" lon="6.1938">
        <ele>1099.4</ele>
        <time>2024-08-13T08:44:32Z</time>
      </trkpt>
      <trkpt lat="44.8173" lon="6.1938">
        <ele>1099.6</ele>
        <time>2024-08-13T08:44:33Z</time>
      </trkpt>
      <trkpt lat="44.8173" lon="6.1938">
        <ele>1099.6</ele>
        <time>2024-08-13T08:44:34Z</time>
      </trkpt>
      <trkpt lat="44.8173" lon="6.1938">
        <ele>1099.6</ele>
        <time>2024-08-13T08:44:35Z</time>
      </trkpt>
      <trkpt lat="44.8173" lon="6.1938">
        <ele>1099.6</ele>
        <time>2024-08-13T08:44:36Z</time>
      </trkpt>
      <trkpt lat="44.8173" lon="6.1938">
        <ele>1099.6</ele>
        <time>2024-08-13T08:44:37Z</time>
      </trkpt>
      <trkpt lat="44.8173" lon="6.1938">
        <ele>1099.6</ele>
        <time>2024-08-13T08:44:38Z</time>
      </trkpt>
      <trkpt lat="44.8173" lon="6.1938">
        <ele>1099.6</ele>
        <time>2024-08-13T08:44:39Z</time>
      </trkpt>
      <trkpt lat="44.8173" lon="6.1938">
        <ele>1099.6</ele>
        <time>2024-08-13T08:44:40Z</time>
      </trkpt>
      <trkpt lat="44.8173" lon="6.1938">
        <ele>1099.6</ele>
        <time>2024-08-13T08:44:41Z</time>
      </trkpt>
      <trkpt lat="44.8173" lon="6.1938">
        <ele>1100</ele>
        <time>2024-08-13T08:44:42Z</time>
      </trkpt>
      <trkpt lat="44.8173" lon="6.1938">
        <ele>1100</ele>
        <time>2024-08-13T08:44:43Z</time>
      </trkpt>
      <trkpt lat="44.8173" lon="6.1938">
        <ele>1099.8</ele>
        <time>2024-08-13T08:44:44Z</time>
      </trkpt>
      <trkpt lat="44.8173" lon="6.1938">
        <ele>1099.6</ele>
        <time>2024-08-13T08:44:45Z</time>
      </trkpt>
      <trkpt lat="44.8173" lon="6.1938">
        <ele>1099.6</ele>
        <time>2024-08-13T08:44:46Z</time>
      </trkpt>
      <trkpt lat="44.8173" lon="6.1938">
        <ele>1099.6</ele>
        <time>2024-08-13T08:44:47Z</time>
      </trkpt>
      <trkpt lat="44.8173" lon="6.1938">
        <ele>1099.4</ele>
        <time>2024-08-13T08:44:48Z</time>
      </trkpt>
      <trkpt lat="44.8173" lon="6.1938">
        <ele>1099.4</ele>
        <time>2024-08-13T08:44:49Z</time>
      </trkpt>
      <trkpt lat="44.8173" lon="6.1938">
        <ele>1099.4</ele>
        <time>2024-08-13T08:44:50Z</time>
      </trkpt>
      <trkpt lat="44.8173" lon="6.1938">
        <ele>1099.6</ele>
        <time>2024-08-13T08:44:51Z</time>
      </trkpt>
      <trkpt lat="44.8173" lon="6.1938">
        <ele>1099.6</ele>
        <time>2024-08-13T08:44:52Z</time>
      </trkpt>
      <trkpt lat="44.8173" lon="6.1938">
        <ele>1099.4</ele>
        <time>2024-08-13T08:44:53Z</time>
      </trkpt>
      <trkpt lat="44.8173" lon="6.1938">
        <ele>1099.4</ele>
        <time>2024-08-13T08:44:54Z</time>
      </trkpt>
      <trkpt lat="44.8173" lon="6.1938">
        <ele>1099.4</ele>
        <time>2024-08-13T08:44:55Z</time>
      </trkpt>
      <trkpt lat="44.8173" lon="6.1938">
        <ele>1099.8</ele>
        <time>2024-08-13T08:44:56Z</time>
      </trkpt>
      <trkpt lat="44.81732" lon="6.19378">
        <ele>1100</ele>
        <time>2024-08-13T08:44:57Z</time>
      </trkpt>
      <trkpt lat="44.81733" lon="6.19375">
        <ele>1100.2</ele>
        <time>2024-08-13T08:44:58Z</time>
      </trkpt>
      <trkpt lat="44.81733" lon="6.19375">
        <ele>1100.2</ele>
        <time>2024-08-13T08:44:59Z</time>
      </trkpt>
      <trkpt lat="44.81734" lon="6.19371">
        <ele>1100.2</ele>
        <time>2024-08-13T08:45:00Z</time>
      </trkpt>
      <trkpt lat="44.81735" lon="6.19368">
        <ele>1100.2</ele>
        <time>2024-08-13T08:45:01Z</time>
      </trkpt>
      <trkpt lat="44.81735" lon="6.19368">
        <ele>1100.4</ele>
        <time>2024-08-13T08:45:02Z</time>
      </trkpt>
      <trkpt lat="44.81737" lon="6.19365">
        <ele>1100.4</ele>
        <time>2024-08-13T08:45:03Z</time>
      </trkpt>
      <trkpt lat="44.81737" lon="6.19365">
        <ele>1100.2</ele>
        <time>2024-08-13T08:45:04Z</time>
      </trkpt>
      <trkpt lat="44.8174" lon="6.19362">
        <ele>1100.2</ele>
        <time>2024-08-13T08:45:05Z</time>
      </trkpt>
      <trkpt lat="44.81741" lon="6.19361">
        <ele>1100.2</ele>
        <time>2024-08-13T08:45:06Z</time>
      </trkpt>
      <trkpt lat="44.81741" lon="6.19361">
        <ele>1100.2</ele>
        <time>2024-08-13T08:45:07Z</time>
      </trkpt>
      <trkpt lat="44.81744" lon="6.19358">
        <ele>1100.2</ele>
        <time>2024-08-13T08:45:08Z</time>
      </trkpt>
      <trkpt lat="44.81744" lon="6.19358">
        <ele>1100.2</ele>
        <time>2024-08-13T08:45:09Z</time>
      </trkpt>
      <trkpt lat="44.81746" lon="6.19354">
        <ele>1100.2</ele>
        <time>2024-08-13T08:45:10Z</time>
      </trkpt>
      <trkpt lat="44.81746" lon="6.19354">
        <ele>1100.2</ele>
        <time>2024-08-13T08:45:11Z</time>
      </trkpt>
      <trkpt lat="44.81747" lon="6.19351">
        <ele>1100.2</ele>
        <time>2024-08-13T08:45:12Z</time>
      </trkpt>
      <trkpt lat="44.81747" lon="6.19351">
        <ele>1100</ele>
        <time>2024-08-13T08:45:13Z</time>
      </trkpt>
      <trkpt lat="44.81749" lon="6.19347">
        <ele>1099.8</ele>
        <time>2024-08-13T08:45:14Z</time>
      </trkpt>
      <trkpt lat="44.81749" lon="6.19347">
        <ele>1099.8</ele>
        <time>2024-08-13T08:45:15Z</time>
      </trkpt>
      <trkpt lat="44.8175" lon="6.19343">
        <ele>1099.8</ele>
        <time>2024-08-13T08:45:16Z</time>
      </trkpt>
      <trkpt lat="44.8175" lon="6.19343">
        <ele>1099.8</ele>
        <time>2024-08-13T08:45:17Z</time>
      </trkpt>
      <trkpt lat="44.81751" lon="6.1934">
        <ele>1099.8</ele>
        <time>2024-08-13T08:45:18Z</time>
      </trkpt>
      <trkpt lat="44.81751" lon="6.1934">
        <ele>1099.8</ele>
        <time>2024-08-13T08:45:19Z</time>
      </trkpt>
      <trkpt lat="44.81752" lon="6.19336">
        <ele>1099.8</ele>
        <time>2024-08-13T08:45:20Z</time>
      </trkpt>
      <trkpt lat="44.81752" lon="6.19336">
        <ele>1099.8</ele>
        <time>2024-08-13T08:45:21Z</time>
      </trkpt>
      <trkpt lat="44.81753" lon="6.19332">
        <ele>1099.8</ele>
        <time>2024-08-13T08:45:22Z</time>
      </trkpt>
      <trkpt lat="44.81753" lon="6.19332">
        <ele>1100</ele>
        <time>2024-08-13T08:45:23Z</time>
      </trkpt>
      <trkpt lat="44.81754" lon="6.19327">
        <ele>1099.8</ele>
        <time>2024-08-13T08:45:24Z</time>
      </trkpt>
      <trkpt lat="44.81754" lon="6.19327">
        <ele>1099.8</ele>
        <time>2024-08-13T08:45:25Z</time>
      </trkpt>
      <trkpt lat="44.81754" lon="6.19324">
        <ele>1099.8</ele>
        <time>2024-08-13T08:45:26Z</time>
      </trkpt>
      <trkpt lat="44.81754" lon="6.19324">
        <ele>1100</ele>
        <time>2024-08-13T08:45:27Z</time>
      </trkpt>
      <trkpt lat="44.81755" lon="6.1932">
        <ele>1100</ele>
        <time>2024-08-13T08:45:28Z</time>
      </trkpt>
      <trkpt lat="44.81755" lon="6.1932">
        <ele>1100</ele>
        <time>2024-08-13T08:45:29Z</time>
      </trkpt>
      <trkpt lat="44.81755" lon="6.19316">
        <ele>1100</ele>
        <time>2024-08-13T08:45:30Z</time>
      </trkpt>
      <trkpt lat="44.81755" lon="6.19316">
        <ele>1099.8</ele>
        <time>2024-08-13T08:45:31Z</time>
      </trkpt>
      <trkpt lat="44.81756" lon="6.19312">
        <ele>1099.8</ele>
        <time>2024-08-13T08:45:32Z</time>
      </trkpt>
      <trkpt lat="44.81756" lon="6.19312">
        <ele>1099.8</ele>
        <time>2024-08-13T08:45:33Z</time>
      </trkpt>
      <trkpt lat="44.81756" lon="6.19308">
        <ele>1099.8</ele>
        <time>2024-08-13T08:45:34Z</time>
      </trkpt>
      <trkpt lat="44.81756" lon="6.19308">
        <ele>1100</ele>
        <time>2024-08-13T08:45:35Z</time>
      </trkpt>
      <trkpt lat="44.81756" lon="6.19303">
        <ele>1100</ele>
        <time>2024-08-13T08:45:36Z</time>
      </trkpt>
      <trkpt lat="44.81756" lon="6.19301">
        <ele>1100</ele>
        <time>2024-08-13T08:45:37Z</time>
      </trkpt>
      <trkpt lat="44.81756" lon="6.19301">
        <ele>1100</ele>
        <time>2024-08-13T08:45:38Z</time>
      </trkpt>
      <trkpt lat="44.81756" lon="6.19296">
        <ele>1099.8</ele>
        <time>2024-08-13T08:45:39Z</time>
      </trkpt>
      <trkpt lat="44.81756" lon="6.19296">
        <ele>1099.8</ele>
        <time>2024-08-13T08:45:40Z</time>
      </trkpt>
      <trkpt lat="44.81755" lon="6.19293">
        <ele>1099.8</ele>
        <time>2024-08-13T08:45:41Z</time>
      </trkpt>
      <trkpt lat="44.81755" lon="6.19293">
        <ele>1099.8</ele>
        <time>2024-08-13T08:45:42Z</time>
      </trkpt>
      <trkpt lat="44.81754" lon="6.19289">
        <ele>1099.8</ele>
        <time>2024-08-13T08:45:43Z</time>
      </trkpt>
      <trkpt lat="44.81754" lon="6.19289">
        <ele>1099.8</ele>
        <time>2024-08-13T08:45:44Z</time>
      </trkpt>
      <trkpt lat="44.81754" lon="6.19285">
        <ele>1099.8</ele>
        <time>2024-08-13T08:45:45Z</time>
      </trkpt>
      <trkpt lat="44.81754" lon="6.19285">
        <ele>1099.8</ele>
        <time>2024-08-13T08:45:46Z</time>
      </trkpt>
      <trkpt lat="44.81754" lon="6.19281">
        <ele>1099.8</ele>
        <time>2024-08-13T08:45:47Z</time>
      </trkpt>
      <trkpt lat="44.81754" lon="6.19281">
        <ele>1099.8</ele>
        <time>2024-08-13T08:45:48Z</time>
      </trkpt>
      <trkpt lat="44.81753" lon="6.19276">
        <ele>1100</ele>
        <time>2024-08-13T08:45:49Z</time>
      </trkpt>
      <trkpt lat="44.81753" lon="6.19276">
        <ele>1100.4</ele>
        <time>2024-08-13T08:45:50Z</time>
      </trkpt>
      <trkpt lat="44.81753" lon="6.19272">
        <ele>1100.4</ele>
        <time>2024-08-13T08:45:51Z</time>
      </trkpt>
      <trkpt lat="44.81753" lon="6.19272">
        <ele>1100.2</ele>
        <time>2024-08-13T08:45:52Z</time>
      </trkpt>
      <trkpt lat="44.81753" lon="6.19268">
        <ele>1100</ele>
        <time>2024-08-13T08:45:53Z</time>
      </trkpt>
      <trkpt lat="44.81753" lon="6.19268">
        <ele>1100</ele>
        <time>2024-08-13T08:45:54Z</time>
      </trkpt>
      <trkpt lat="44.81754" lon="6.19264">
        <ele>1100.2</ele>
        <time>2024-08-13T08:45:55Z</time>
      </trkpt>
      <trkpt lat="44.81754" lon="6.19264">
        <ele>1099.8</ele>
        <time>2024-08-13T08:45:56Z</time>
      </trkpt>
      <trkpt lat="44.81754" lon="6.1926">
        <ele>1099.8</ele>
        <time>2024-08-13T08:45:57Z</time>
      </trkpt>
      <trkpt lat="44.81754" lon="6.1926">
        <ele>1099.6</ele>
        <time>2024-08-13T08:45:58Z</time>
      </trkpt>
      <trkpt lat="44.81755" lon="6.19255">
        <ele>1099.6</ele>
        <time>2024-08-13T08:45:59Z</time>
      </trkpt>
      <trkpt lat="44.81755" lon="6.19255">
        <ele>1099.8</ele>
        <time>2024-08-13T08:46:00Z</time>
      </trkpt>
      <trkpt lat="44.81756" lon="6.19251">
        <ele>1099.8</ele>
        <time>2024-08-13T08:46:01Z</time>
      </trkpt>
      <trkpt lat="44.81756" lon="6.19251">
        <ele>1099.8</ele>
        <time>2024-08-13T08:46:02Z</time>
      </trkpt>
      <trkpt lat="44.81756" lon="6.19247">
        <ele>1099.8</ele>
        <time>2024-08-13T08:46:03Z</time>
      </trkpt>
      <trkpt lat="44.81756" lon="6.19247">
        <ele>1100.4</ele>
        <time>2024-08-13T08:46:04Z</time>
      </trkpt>
      <trkpt lat="44.81756" lon="6.19243">
        <ele>1100.4</ele>
        <time>2024-08-13T08:46:05Z</time>
      </trkpt>
      <trkpt lat="44.81756" lon="6.19243">
        <ele>1100.2</ele>
        <time>2024-08-13T08:46:06Z</time>
      </trkpt>
      <trkpt lat="44.81755" lon="6.19238">
        <ele>1099.8</ele>
        <time>2024-08-13T08:46:07Z</time>
      </trkpt>
      <trkpt lat="44.81755" lon="6.19238">
        <ele>1099.8</ele>
        <time>2024-08-13T08:46:08Z</time>
      </trkpt>
      <trkpt lat="44.81754" lon="6.19234">
        <ele>1100</ele>
        <time>2024-08-13T08:46:09Z</time>
      </trkpt>
      <trkpt lat="44.81755" lon="6.19231">
        <ele>1100</ele>
        <time>2024-08-13T08:46:10Z</time>
      </trkpt>
      <trkpt lat="44.81755" lon="6.19228">
        <ele>1099.8</ele>
        <time>2024-08-13T08:46:11Z</time>
      </trkpt>
      <trkpt lat="44.81755" lon="6.19228">
        <ele>1099.8</ele>
        <time>2024-08-13T08:46:12Z</time>
      </trkpt>
      <trkpt lat="44.81756" lon="6.19224">
        <ele>1099.8</ele>
        <time>2024-08-13T08:46:13Z</time>
      </trkpt>
      <trkpt lat="44.81756" lon="6.19224">
        <ele>1099.8</ele>
        <time>2024-08-13T08:46:14Z</time>
      </trkpt>
      <trkpt lat="44.81756" lon="6.19219">
        <ele>1099.8</ele>
        <time>2024-08-13T08:46:15Z</time>
      </trkpt>
      <trkpt lat="44.81756" lon="6.19219">
        <ele>1099.6</ele>
        <time>2024-08-13T08:46:16Z</time>
      </trkpt>
      <trkpt lat="44.81756" lon="6.19215">
        <ele>1099.6</ele>
        <time>2024-08-13T08:46:17Z</time>
      </trkpt>
      <trkpt lat="44.81756" lon="6.19215">
        <ele>1099.6</ele>
        <time>2024-08-13T08:46:18Z</time>
      </trkpt>
      <trkpt lat="44.81757" lon="6.19212">
        <ele>1099.8</ele>
        <time>2024-08-13T08:46:19Z</time>
      </trkpt>
      <trkpt lat="44.81757" lon="6.19212">
        <ele>1099.8</ele>
        <time>2024-08-13T08:46:20Z</time>
      </trkpt>
      <trkpt lat="44.81757" lon="6.19207">
        <ele>1099.8</ele>
        <time>2024-08-13T08:46:21Z</time>
      </trkpt>
      <trkpt lat="44.81757" lon="6.19207">
        <ele>1099.4</ele>
        <time>2024-08-13T08:46:22Z</time>
      </trkpt>
      <trkpt lat="44.81757" lon="6.19203">
        <ele>1099.4</ele>
        <time>2024-08-13T08:46:23Z</time>
      </trkpt>
      <trkpt lat="44.81757" lon="6.19203">
        <ele>1099.4</ele>
        <time>2024-08-13T08:46:24Z</time>
      </trkpt>
      <trkpt lat="44.81758" lon="6.19199">
        <ele>1099.4</ele>
        <time>2024-08-13T08:46:25Z</time>
      </trkpt>
      <trkpt lat="44.81758" lon="6.19199">
        <ele>1099.4</ele>
        <time>2024-08-13T08:46:26Z</time>
      </trkpt>
      <trkpt lat="44.81758" lon="6.19195">
        <ele>1099.2</ele>
        <time>2024-08-13T08:46:27Z</time>
      </trkpt>
      <trkpt lat="44.81758" lon="6.19195">
        <ele>1099.2</ele>
        <time>2024-08-13T08:46:28Z</time>
      </trkpt>
      <trkpt lat="44.8176" lon="6.19191">
        <ele>1099</ele>
        <time>2024-08-13T08:46:29Z</time>
      </trkpt>
      <trkpt lat="44.8176" lon="6.19191">
        <ele>1099</ele>
        <time>2024-08-13T08:46:30Z</time>
      </trkpt>
      <trkpt lat="44.81761" lon="6.19187">
        <ele>1099.2</ele>
        <time>2024-08-13T08:46:31Z</time>
      </trkpt>
      <trkpt lat="44.81761" lon="6.19187">
        <ele>1099.2</ele>
        <time>2024-08-13T08:46:32Z</time>
      </trkpt>
      <trkpt lat="44.81762" lon="6.19184">
        <ele>1099</ele>
        <time>2024-08-13T08:46:33Z</time>
      </trkpt>
      <trkpt lat="44.81762" lon="6.19184">
        <ele>1099</ele>
        <time>2024-08-13T08:46:34Z</time>
      </trkpt>
      <trkpt lat="44.81762" lon="6.19179">
        <ele>1099</ele>
        <time>2024-08-13T08:46:35Z</time>
      </trkpt>
      <trkpt lat="44.81762" lon="6.19179">
        <ele>1099</ele>
        <time>2024-08-13T08:46:36Z</time>
      </trkpt>
      <trkpt lat="44.81762" lon="6.19175">
        <ele>1099.2</ele>
        <time>2024-08-13T08:46:37Z</time>
      </trkpt>
      <trkpt lat="44.81762" lon="6.19172">
        <ele>1099.2</ele>
        <time>2024-08-13T08:46:38Z</time>
      </trkpt>
      <trkpt lat="44.81762" lon="6.19172">
        <ele>1099.2</ele>
        <time>2024-08-13T08:46:39Z</time>
      </trkpt>
      <trkpt lat="44.81763" lon="6.19167">
        <ele>1099.4</ele>
        <time>2024-08-13T08:46:40Z</time>
      </trkpt>
      <trkpt lat="44.81763" lon="6.19167">
        <ele>1099.4</ele>
        <time>2024-08-13T08:46:41Z</time>
      </trkpt>
      <trkpt lat="44.81763" lon="6.19163">
        <ele>1099.4</ele>
        <time>2024-08-13T08:46:42Z</time>
      </trkpt>
      <trkpt lat="44.81763" lon="6.19163">
        <ele>1099.4</ele>
        <time>2024-08-13T08:46:43Z</time>
      </trkpt>
      <trkpt lat="44.81764" lon="6.19159">
        <ele>1099.4</ele>
        <time>2024-08-13T08:46:44Z</time>
      </trkpt>
      <trkpt lat="44.81764" lon="6.19159">
        <ele>1099</ele>
        <time>2024-08-13T08:46:45Z</time>
      </trkpt>
      <trkpt lat="44.81765" lon="6.19155">
        <ele>1099.2</ele>
        <time>2024-08-13T08:46:46Z</time>
      </trkpt>
      <trkpt lat="44.81765" lon="6.19155">
        <ele>1099</ele>
        <time>2024-08-13T08:46:47Z</time>
      </trkpt>
      <trkpt lat="44.81765" lon="6.19151">
        <ele>1099</ele>
        <time>2024-08-13T08:46:48Z</time>
      </trkpt>
      <trkpt lat="44.81765" lon="6.19151">
        <ele>1099</ele>
        <time>2024-08-13T08:46:49Z</time>
      </trkpt>
      <trkpt lat="44.81766" lon="6.19148">
        <ele>1099</ele>
        <time>2024-08-13T08:46:50Z</time>
      </trkpt>
      <trkpt lat="44.81766" lon="6.19148">
        <ele>1098.8</ele>
        <time>2024-08-13T08:46:51Z</time>
      </trkpt>
      <trkpt lat="44.81767" lon="6.19144">
        <ele>1099</ele>
        <time>2024-08-13T08:46:52Z</time>
      </trkpt>
      <trkpt lat="44.81767" lon="6.19144">
        <ele>1099</ele>
        <time>2024-08-13T08:46:53Z</time>
      </trkpt>
      <trkpt lat="44.81768" lon="6.1914">
        <ele>1099</ele>
        <time>2024-08-13T08:46:54Z</time>
      </trkpt>
      <trkpt lat="44.81768" lon="6.1914">
        <ele>1099</ele>
        <time>2024-08-13T08:46:55Z</time>
      </trkpt>
      <trkpt lat="44.81769" lon="6.19136">
        <ele>1098.8</ele>
        <time>2024-08-13T08:46:56Z</time>
      </trkpt>
      <trkpt lat="44.81769" lon="6.19136">
        <ele>1098.8</ele>
        <time>2024-08-13T08:46:57Z</time>
      </trkpt>
      <trkpt lat="44.8177" lon="6.19132">
        <ele>1098.8</ele>
        <time>2024-08-13T08:46:58Z</time>
      </trkpt>
      <trkpt lat="44.8177" lon="6.19132">
        <ele>1098.8</ele>
        <time>2024-08-13T08:46:59Z</time>
      </trkpt>
      <trkpt lat="44.8177" lon="6.19129">
        <ele>1098.8</ele>
        <time>2024-08-13T08:47:00Z</time>
      </trkpt>
      <trkpt lat="44.8177" lon="6.19129">
        <ele>1098.8</ele>
        <time>2024-08-13T08:47:01Z</time>
      </trkpt>
      <trkpt lat="44.81772" lon="6.19125">
        <ele>1098.8</ele>
        <time>2024-08-13T08:47:02Z</time>
      </trkpt>
      <trkpt lat="44.81772" lon="6.19125">
        <ele>1098.8</ele>
        <time>2024-08-13T08:47:03Z</time>
      </trkpt>
      <trkpt lat="44.81772" lon="6.19121">
        <ele>1098.8</ele>
        <time>2024-08-13T08:47:04Z</time>
      </trkpt>
      <trkpt lat="44.81772" lon="6.19121">
        <ele>1098.8</ele>
        <time>2024-08-13T08:47:05Z</time>
      </trkpt>
      <trkpt lat="44.81773" lon="6.19116">
        <ele>1098.8</ele>
        <time>2024-08-13T08:47:06Z</time>
      </trkpt>
      <trkpt lat="44.81773" lon="6.19116">
        <ele>1098.8</ele>
        <time>2024-08-13T08:47:07Z</time>
      </trkpt>
      <trkpt lat="44.81773" lon="6.19112">
        <ele>1098.6</ele>
        <time>2024-08-13T08:47:08Z</time>
      </trkpt>
      <trkpt lat="44.81773" lon="6.19112">
        <ele>1098.4</ele>
        <time>2024-08-13T08:47:09Z</time>
      </trkpt>
      <trkpt lat="44.81774" lon="6.19108">
        <ele>1098.4</ele>
        <time>2024-08-13T08:47:10Z</time>
      </trkpt>
      <trkpt lat="44.81774" lon="6.19108">
        <ele>1098.4</ele>
        <time>2024-08-13T08:47:11Z</time>
      </trkpt>
      <trkpt lat="44.81775" lon="6.19104">
        <ele>1098.4</ele>
        <time>2024-08-13T08:47:12Z</time>
      </trkpt>
      <trkpt lat="44.81775" lon="6.19104">
        <ele>1098.2</ele>
        <time>2024-08-13T08:47:13Z</time>
      </trkpt>
      <trkpt lat="44.81776" lon="6.191">
        <ele>1098.2</ele>
        <time>2024-08-13T08:47:14Z</time>
      </trkpt>
      <trkpt lat="44.81776" lon="6.191">
        <ele>1098.2</ele>
        <time>2024-08-13T08:47:15Z</time>
      </trkpt>
      <trkpt lat="44.81777" lon="6.19096">
        <ele>1098.4</ele>
        <time>2024-08-13T08:47:16Z</time>
      </trkpt>
      <trkpt lat="44.81777" lon="6.19096">
        <ele>1098.4</ele>
        <time>2024-08-13T08:47:17Z</time>
      </trkpt>
      <trkpt lat="44.81778" lon="6.19091">
        <ele>1098.4</ele>
        <time>2024-08-13T08:47:18Z</time>
      </trkpt>
      <trkpt lat="44.81778" lon="6.19091">
        <ele>1098.4</ele>
        <time>2024-08-13T08:47:19Z</time>
      </trkpt>
      <trkpt lat="44.81778" lon="6.19087">
        <ele>1098.2</ele>
        <time>2024-08-13T08:47:20Z</time>
      </trkpt>
      <trkpt lat="44.81778" lon="6.19087">
        <ele>1098.2</ele>
        <time>2024-08-13T08:47:21Z</time>
      </trkpt>
      <trkpt lat="44.81779" lon="6.19083">
        <ele>1098.2</ele>
        <time>2024-08-13T08:47:22Z</time>
      </trkpt>
      <trkpt lat="44.81779" lon="6.19083">
        <ele>1098</ele>
        <time>2024-08-13T08:47:23Z</time>
      </trkpt>
      <trkpt lat="44.8178" lon="6.19079">
        <ele>1098</ele>
        <time>2024-08-13T08:47:24Z</time>
      </trkpt>
      <trkpt lat="44.8178" lon="6.19079">
        <ele>1098.2</ele>
        <time>2024-08-13T08:47:25Z</time>
      </trkpt>
      <trkpt lat="44.8178" lon="6.19074">
        <ele>1098.2</ele>
        <time>2024-08-13T08:47:26Z</time>
      </trkpt>
      <trkpt lat="44.8178" lon="6.19074">
        <ele>1098.2</ele>
        <time>2024-08-13T08:47:27Z</time>
      </trkpt>
      <trkpt lat="44.8178" lon="6.1907">
        <ele>1098.2</ele>
        <time>2024-08-13T08:47:28Z</time>
      </trkpt>
      <trkpt lat="44.8178" lon="6.1907">
        <ele>1098.2</ele>
        <time>2024-08-13T08:47:29Z</time>
      </trkpt>
      <trkpt lat="44.81781" lon="6.19066">
        <ele>1098.2</ele>
        <time>2024-08-13T08:47:30Z</time>
      </trkpt>
      <trkpt lat="44.81781" lon="6.19066">
        <ele>1098.2</ele>
        <time>2024-08-13T08:47:31Z</time>
      </trkpt>
      <trkpt lat="44.81782" lon="6.19062">
        <ele>1098.2</ele>
        <time>2024-08-13T08:47:32Z</time>
      </trkpt>
      <trkpt lat="44.81782" lon="6.19062">
        <ele>1098</ele>
        <time>2024-08-13T08:47:33Z</time>
      </trkpt>
      <trkpt lat="44.81782" lon="6.19057">
        <ele>1098</ele>
        <time>2024-08-13T08:47:34Z</time>
      </trkpt>
      <trkpt lat="44.81782" lon="6.19057">
        <ele>1098</ele>
        <time>2024-08-13T08:47:35Z</time>
      </trkpt>
      <trkpt lat="44.81783" lon="6.19054">
        <ele>1098.2</ele>
        <time>2024-08-13T08:47:36Z</time>
      </trkpt>
      <trkpt lat="44.81783" lon="6.19054">
        <ele>1098.2</ele>
        <time>2024-08-13T08:47:37Z</time>
      </trkpt>
      <trkpt lat="44.81784" lon="6.1905">
        <ele>1098.2</ele>
        <time>2024-08-13T08:47:38Z</time>
      </trkpt>
      <trkpt lat="44.81784" lon="6.1905">
        <ele>1098.2</ele>
        <time>2024-08-13T08:47:39Z</time>
      </trkpt>
      <trkpt lat="44.81784" lon="6.19045">
        <ele>1098</ele>
        <time>2024-08-13T08:47:40Z</time>
      </trkpt>
      <trkpt lat="44.81784" lon="6.19045">
        <ele>1097.8</ele>
        <time>2024-08-13T08:47:41Z</time>
      </trkpt>
      <trkpt lat="44.81784" lon="6.19041">
        <ele>1097.8</ele>
        <time>2024-08-13T08:47:42Z</time>
      </trkpt>
      <trkpt lat="44.81784" lon="6.19041">
        <ele>1097.6</ele>
        <time>2024-08-13T08:47:43Z</time>
      </trkpt>
      <trkpt lat="44.81784" lon="6.19037">
        <ele>1097.6</ele>
        <time>2024-08-13T08:47:44Z</time>
      </trkpt>
      <trkpt lat="44.81784" lon="6.19037">
        <ele>1097.6</ele>
        <time>2024-08-13T08:47:45Z</time>
      </trkpt>
      <trkpt lat="44.81784" lon="6.19033">
        <ele>1097.6</ele>
        <time>2024-08-13T08:47:46Z</time>
      </trkpt>
      <trkpt lat="44.81784" lon="6.19033">
        <ele>1097.6</ele>
        <time>2024-08-13T08:47:47Z</time>
      </trkpt>
      <trkpt lat="44.81785" lon="6.19029">
        <ele>1097.6</ele>
        <time>2024-08-13T08:47:48Z</time>
      </trkpt>
      <trkpt lat="44.81785" lon="6.19029">
        <ele>1097.4</ele>
        <time>2024-08-13T08:47:49Z</time>
      </trkpt>
      <trkpt lat="44.81786" lon="6.19024">
        <ele>1097.2</ele>
        <time>2024-08-13T08:47:50Z</time>
      </trkpt>
      <trkpt lat="44.81786" lon="6.19024">
        <ele>1097.2</ele>
        <time>2024-08-13T08:47:51Z</time>
      </trkpt>
      <trkpt lat="44.81787" lon="6.1902">
        <ele>1097.2</ele>
        <time>2024-08-13T08:47:52Z</time>
      </trkpt>
      <trkpt lat="44.81787" lon="6.1902">
        <ele>1097.2</ele>
        <time>2024-08-13T08:47:53Z</time>
      </trkpt>
      <trkpt lat="44.81789" lon="6.19017">
        <ele>1097.2</ele>
        <time>2024-08-13T08:47:54Z</time>
      </trkpt>
      <trkpt lat="44.81789" lon="6.19017">
        <ele>1097.2</ele>
        <time>2024-08-13T08:47:55Z</time>
      </trkpt>
      <trkpt lat="44.8179" lon="6.19013">
        <ele>1097.2</ele>
        <time>2024-08-13T08:47:56Z</time>
      </trkpt>
      <trkpt lat="44.8179" lon="6.19013">
        <ele>1097.2</ele>
        <time>2024-08-13T08:47:57Z</time>
      </trkpt>
      <trkpt lat="44.81792" lon="6.19009">
        <ele>1097</ele>
        <time>2024-08-13T08:47:58Z</time>
      </trkpt>
      <trkpt lat="44.81792" lon="6.19009">
        <ele>1097</ele>
        <time>2024-08-13T08:47:59Z</time>
      </trkpt>
      <trkpt lat="44.81794" lon="6.19005">
        <ele>1097</ele>
        <time>2024-08-13T08:48:00Z</time>
      </trkpt>
      <trkpt lat="44.81795" lon="6.19003">
        <ele>1097</ele>
        <time>2024-08-13T08:48:01Z</time>
      </trkpt>
      <trkpt lat="44.81795" lon="6.19003">
        <ele>1097</ele>
        <time>2024-08-13T08:48:02Z</time>
      </trkpt>
      <trkpt lat="44.81797" lon="6.19">
        <ele>1097</ele>
        <time>2024-08-13T08:48:03Z</time>
      </trkpt>
      <trkpt lat="44.81797" lon="6.19">
        <ele>1096.8</ele>
        <time>2024-08-13T08:48:04Z</time>
      </trkpt>
      <trkpt lat="44.81799" lon="6.18996">
        <ele>1096.8</ele>
        <time>2024-08-13T08:48:05Z</time>
      </trkpt>
      <trkpt lat="44.81801" lon="6.18994">
        <ele>1096.8</ele>
        <time>2024-08-13T08:48:06Z</time>
      </trkpt>
      <trkpt lat="44.81801" lon="6.18994">
        <ele>1096.8</ele>
        <time>2024-08-13T08:48:07Z</time>
      </trkpt>
      <trkpt lat="44.81803" lon="6.1899">
        <ele>1096.8</ele>
        <time>2024-08-13T08:48:08Z</time>
      </trkpt>
      <trkpt lat="44.81803" lon="6.1899">
        <ele>1096.8</ele>
        <time>2024-08-13T08:48:09Z</time>
      </trkpt>
      <trkpt lat="44.81805" lon="6.18988">
        <ele>1096.8</ele>
        <time>2024-08-13T08:48:10Z</time>
      </trkpt>
      <trkpt lat="44.81805" lon="6.18988">
        <ele>1096.8</ele>
        <time>2024-08-13T08:48:11Z</time>
      </trkpt>
      <trkpt lat="44.81807" lon="6.18987">
        <ele>1096.8</ele>
        <time>2024-08-13T08:48:12Z</time>
      </trkpt>
      <trkpt lat="44.81807" lon="6.18987">
        <ele>1096.8</ele>
        <time>2024-08-13T08:48:13Z</time>
      </trkpt>
      <trkpt lat="44.81809" lon="6.18983">
        <ele>1096.8</ele>
        <time>2024-08-13T08:48:14Z</time>
      </trkpt>
      <trkpt lat="44.81809" lon="6.18983">
        <ele>1096.8</ele>
        <time>2024-08-13T08:48:15Z</time>
      </trkpt>
      <trkpt lat="44.81812" lon="6.1898">
        <ele>1096.8</ele>
        <time>2024-08-13T08:48:16Z</time>
      </trkpt>
      <trkpt lat="44.81812" lon="6.1898">
        <ele>1096.6</ele>
        <time>2024-08-13T08:48:17Z</time>
      </trkpt>
      <trkpt lat="44.81814" lon="6.18977">
        <ele>1096.6</ele>
        <time>2024-08-13T08:48:18Z</time>
      </trkpt>
      <trkpt lat="44.81814" lon="6.18977">
        <ele>1096.8</ele>
        <time>2024-08-13T08:48:19Z</time>
      </trkpt>
      <trkpt lat="44.81816" lon="6.18973">
        <ele>1096.8</ele>
        <time>2024-08-13T08:48:20Z</time>
      </trkpt>
      <trkpt lat="44.81818" lon="6.18971">
        <ele>1096.6</ele>
        <time>2024-08-13T08:48:21Z</time>
      </trkpt>
      <trkpt lat="44.81819" lon="6.18969">
        <ele>1096.6</ele>
        <time>2024-08-13T08:48:22Z</time>
      </trkpt>
      <trkpt lat="44.81821" lon="6.18968">
        <ele>1096.4</ele>
        <time>2024-08-13T08:48:23Z</time>
      </trkpt>
      <trkpt lat="44.81821" lon="6.18968">
        <ele>1096.4</ele>
        <time>2024-08-13T08:48:24Z</time>
      </trkpt>
      <trkpt lat="44.81823" lon="6.18967">
        <ele>1096.2</ele>
        <time>2024-08-13T08:48:25Z</time>
      </trkpt>
      <trkpt lat="44.81823" lon="6.18967">
        <ele>1096.2</ele>
        <time>2024-08-13T08:48:26Z</time>
      </trkpt>
      <trkpt lat="44.81825" lon="6.18964">
        <ele>1096.2</ele>
        <time>2024-08-13T08:48:27Z</time>
      </trkpt>
      <trkpt lat="44.81825" lon="6.18964">
        <ele>1096.2</ele>
        <time>2024-08-13T08:48:28Z</time>
      </trkpt>
      <trkpt lat="44.81828" lon="6.18961">
        <ele>1096.2</ele>
        <time>2024-08-13T08:48:29Z</time>
      </trkpt>
      <trkpt lat="44.81828" lon="6.18961">
        <ele>1096</ele>
        <time>2024-08-13T08:48:30Z</time>
      </trkpt>
      <trkpt lat="44.8183" lon="6.18958">
        <ele>1096</ele>
        <time>2024-08-13T08:48:31Z</time>
      </trkpt>
      <trkpt lat="44.8183" lon="6.18958">
        <ele>1096</ele>
        <time>2024-08-13T08:48:32Z</time>
      </trkpt>
      <trkpt lat="44.81833" lon="6.18955">
        <ele>1096.4</ele>
        <time>2024-08-13T08:48:33Z</time>
      </trkpt>
      <trkpt lat="44.81835" lon="6.18954">
        <ele>1096.4</ele>
        <time>2024-08-13T08:48:34Z</time>
      </trkpt>
      <trkpt lat="44.81835" lon="6.18954">
        <ele>1096.4</ele>
        <time>2024-08-13T08:48:35Z</time>
      </trkpt>
      <trkpt lat="44.81837" lon="6.18952">
        <ele>1096.4</ele>
        <time>2024-08-13T08:48:36Z</time>
      </trkpt>
      <trkpt lat="44.81837" lon="6.18952">
        <ele>1096.2</ele>
        <time>2024-08-13T08:48:37Z</time>
      </trkpt>
      <trkpt lat="44.8184" lon="6.1895">
        <ele>1096.2</ele>
        <time>2024-08-13T08:48:38Z</time>
      </trkpt>
      <trkpt lat="44.8184" lon="6.1895">
        <ele>1096.2</ele>
        <time>2024-08-13T08:48:39Z</time>
      </trkpt>
      <trkpt lat="44.81843" lon="6.18949">
        <ele>1096.2</ele>
        <time>2024-08-13T08:48:40Z</time>
      </trkpt>
      <trkpt lat="44.81843" lon="6.18949">
        <ele>1096.4</ele>
        <time>2024-08-13T08:48:41Z</time>
      </trkpt>
      <trkpt lat="44.81845" lon="6.18947">
        <ele>1096.4</ele>
        <time>2024-08-13T08:48:42Z</time>
      </trkpt>
      <trkpt lat="44.81845" lon="6.18947">
        <ele>1096.2</ele>
        <time>2024-08-13T08:48:43Z</time>
      </trkpt>
      <trkpt lat="44.81848" lon="6.18946">
        <ele>1096.2</ele>
        <time>2024-08-13T08:48:44Z</time>
      </trkpt>
      <trkpt lat="44.81848" lon="6.18946">
        <ele>1096.2</ele>
        <time>2024-08-13T08:48:45Z</time>
      </trkpt>
      <trkpt lat="44.8185" lon="6.18944">
        <ele>1096.2</ele>
        <time>2024-08-13T08:48:46Z</time>
      </trkpt>
      <trkpt lat="44.8185" lon="6.18944">
        <ele>1096</ele>
        <time>2024-08-13T08:48:47Z</time>
      </trkpt>
      <trkpt lat="44.81853" lon="6.18942">
        <ele>1096</ele>
        <time>2024-08-13T08:48:48Z</time>
      </trkpt>
      <trkpt lat="44.81853" lon="6.18942">
        <ele>1096</ele>
        <time>2024-08-13T08:48:49Z</time>
      </trkpt>
      <trkpt lat="44.81856" lon="6.1894">
        <ele>1096</ele>
        <time>2024-08-13T08:48:50Z</time>
      </trkpt>
      <trkpt lat="44.81856" lon="6.1894">
        <ele>1096</ele>
        <time>2024-08-13T08:48:51Z</time>
      </trkpt>
      <trkpt lat="44.81859" lon="6.18939">
        <ele>1096</ele>
        <time>2024-08-13T08:48:52Z</time>
      </trkpt>
      <trkpt lat="44.81859" lon="6.18939">
        <ele>1096</ele>
        <time>2024-08-13T08:48:53Z</time>
      </trkpt>
      <trkpt lat="44.81861" lon="6.18937">
        <ele>1096</ele>
        <time>2024-08-13T08:48:54Z</time>
      </trkpt>
      <trkpt lat="44.81861" lon="6.18937">
        <ele>1096</ele>
        <time>2024-08-13T08:48:55Z</time>
      </trkpt>
      <trkpt lat="44.81864" lon="6.18936">
        <ele>1095.8</ele>
        <time>2024-08-13T08:48:56Z</time>
      </trkpt>
      <trkpt lat="44.81864" lon="6.18936">
        <ele>1095.8</ele>
        <time>2024-08-13T08:48:57Z</time>
      </trkpt>
      <trkpt lat="44.81867" lon="6.18934">
        <ele>1096</ele>
        <time>2024-08-13T08:48:58Z</time>
      </trkpt>
      <trkpt lat="44.81867" lon="6.18934">
        <ele>1096</ele>
        <time>2024-08-13T08:48:59Z</time>
      </trkpt>
      <trkpt lat="44.81869" lon="6.18932">
        <ele>1096.2</ele>
        <time>2024-08-13T08:49:00Z</time>
      </trkpt>
      <trkpt lat="44.81869" lon="6.18932">
        <ele>1096.2</ele>
        <time>2024-08-13T08:49:01Z</time>
      </trkpt>
      <trkpt lat="44.81872" lon="6.1893">
        <ele>1096</ele>
        <time>2024-08-13T08:49:02Z</time>
      </trkpt>
      <trkpt lat="44.81872" lon="6.1893">
        <ele>1096</ele>
        <time>2024-08-13T08:49:03Z</time>
      </trkpt>
      <trkpt lat="44.81875" lon="6.18929">
        <ele>1096</ele>
        <time>2024-08-13T08:49:04Z</time>
      </trkpt>
      <trkpt lat="44.81875" lon="6.18929">
        <ele>1096</ele>
        <time>2024-08-13T08:49:05Z</time>
      </trkpt>
      <trkpt lat="44.81877" lon="6.18928">
        <ele>1095.8</ele>
        <time>2024-08-13T08:49:06Z</time>
      </trkpt>
      <trkpt lat="44.81877" lon="6.18928">
        <ele>1095.8</ele>
        <time>2024-08-13T08:49:07Z</time>
      </trkpt>
      <trkpt lat="44.81881" lon="6.18926">
        <ele>1096</ele>
        <time>2024-08-13T08:49:08Z</time>
      </trkpt>
      <trkpt lat="44.81881" lon="6.18926">
        <ele>1096</ele>
        <time>2024-08-13T08:49:09Z</time>
      </trkpt>
      <trkpt lat="44.81884" lon="6.18925">
        <ele>1096</ele>
        <time>2024-08-13T08:49:10Z</time>
      </trkpt>
      <trkpt lat="44.81884" lon="6.18925">
        <ele>1096</ele>
        <time>2024-08-13T08:49:11Z</time>
      </trkpt>
      <trkpt lat="44.81885" lon="6.18922">
        <ele>1096</ele>
        <time>2024-08-13T08:49:12Z</time>
      </trkpt>
      <trkpt lat="44.81885" lon="6.18922">
        <ele>1095.8</ele>
        <time>2024-08-13T08:49:13Z</time>
      </trkpt>
      <trkpt lat="44.81888" lon="6.1892">
        <ele>1096</ele>
        <time>2024-08-13T08:49:14Z</time>
      </trkpt>
      <trkpt lat="44.81889" lon="6.18918">
        <ele>1096</ele>
        <time>2024-08-13T08:49:15Z</time>
      </trkpt>
      <trkpt lat="44.81889" lon="6.18918">
        <ele>1096</ele>
        <time>2024-08-13T08:49:16Z</time>
      </trkpt>
      <trkpt lat="44.81892" lon="6.18915">
        <ele>1096</ele>
        <time>2024-08-13T08:49:17Z</time>
      </trkpt>
      <trkpt lat="44.81892" lon="6.18915">
        <ele>1096</ele>
        <time>2024-08-13T08:49:18Z</time>
      </trkpt>
      <trkpt lat="44.81893" lon="6.18912">
        <ele>1096.2</ele>
        <time>2024-08-13T08:49:19Z</time>
      </trkpt>
      <trkpt lat="44.81893" lon="6.18912">
        <ele>1096.2</ele>
        <time>2024-08-13T08:49:20Z</time>
      </trkpt>
      <trkpt lat="44.81895" lon="6.18909">
        <ele>1096</ele>
        <time>2024-08-13T08:49:21Z</time>
      </trkpt>
      <trkpt lat="44.81895" lon="6.18909">
        <ele>1096</ele>
        <time>2024-08-13T08:49:22Z</time>
      </trkpt>
      <trkpt lat="44.81897" lon="6.18906">
        <ele>1096</ele>
        <time>2024-08-13T08:49:23Z</time>
      </trkpt>
      <trkpt lat="44.81897" lon="6.18906">
        <ele>1096</ele>
        <time>2024-08-13T08:49:24Z</time>
      </trkpt>
      <trkpt lat="44.81898" lon="6.18902">
        <ele>1095.8</ele>
        <time>2024-08-13T08:49:25Z</time>
      </trkpt>
      <trkpt lat="44.81899" lon="6.18899">
        <ele>1095.8</ele>
        <time>2024-08-13T08:49:26Z</time>
      </trkpt>
      <trkpt lat="44.81899" lon="6.18899">
        <ele>1095.8</ele>
        <time>2024-08-13T08:49:27Z</time>
      </trkpt>
      <trkpt lat="44.81901" lon="6.18896">
        <ele>1095.8</ele>
        <time>2024-08-13T08:49:28Z</time>
      </trkpt>
      <trkpt lat="44.81901" lon="6.18896">
        <ele>1095.8</ele>
        <time>2024-08-13T08:49:29Z</time>
      </trkpt>
      <trkpt lat="44.81902" lon="6.18892">
        <ele>1095.8</ele>
        <time>2024-08-13T08:49:30Z</time>
      </trkpt>
      <trkpt lat="44.81902" lon="6.18892">
        <ele>1095.8</ele>
        <time>2024-08-13T08:49:31Z</time>
      </trkpt>
      <trkpt lat="44.81903" lon="6.18888">
        <ele>1095.8</ele>
        <time>2024-08-13T08:49:32Z</time>
      </trkpt>
      <trkpt lat="44.81903" lon="6.18888">
        <ele>1095.8</ele>
        <time>2024-08-13T08:49:33Z</time>
      </trkpt>
      <trkpt lat="44.81904" lon="6.18884">
        <ele>1095.4</ele>
        <time>2024-08-13T08:49:34Z</time>
      </trkpt>
      <trkpt lat="44.81904" lon="6.18884">
        <ele>1095.2</ele>
        <time>2024-08-13T08:49:35Z</time>
      </trkpt>
      <trkpt lat="44.81905" lon="6.1888">
        <ele>1095.2</ele>
        <time>2024-08-13T08:49:36Z</time>
      </trkpt>
      <trkpt lat="44.81906" lon="6.18878">
        <ele>1095</ele>
        <time>2024-08-13T08:49:37Z</time>
      </trkpt>
      <trkpt lat="44.81906" lon="6.18878">
        <ele>1095</ele>
        <time>2024-08-13T08:49:38Z</time>
      </trkpt>
      <trkpt lat="44.81907" lon="6.18874">
        <ele>1094.6</ele>
        <time>2024-08-13T08:49:39Z</time>
      </trkpt>
      <trkpt lat="44.81907" lon="6.18874">
        <ele>1094.6</ele>
        <time>2024-08-13T08:49:40Z</time>
      </trkpt>
      <trkpt lat="44.81909" lon="6.1887">
        <ele>1094.6</ele>
        <time>2024-08-13T08:49:41Z</time>
      </trkpt>
      <trkpt lat="44.81909" lon="6.1887">
        <ele>1094.6</ele>
        <time>2024-08-13T08:49:42Z</time>
      </trkpt>
      <trkpt lat="44.8191" lon="6.18866">
        <ele>1094.4</ele>
        <time>2024-08-13T08:49:43Z</time>
      </trkpt>
      <trkpt lat="44.8191" lon="6.18866">
        <ele>1094.4</ele>
        <time>2024-08-13T08:49:44Z</time>
      </trkpt>
      <trkpt lat="44.81911" lon="6.18862">
        <ele>1094.2</ele>
        <time>2024-08-13T08:49:45Z</time>
      </trkpt>
      <trkpt lat="44.81911" lon="6.18862">
        <ele>1094.2</ele>
        <time>2024-08-13T08:49:46Z</time>
      </trkpt>
      <trkpt lat="44.81912" lon="6.18859">
        <ele>1094.2</ele>
        <time>2024-08-13T08:49:47Z</time>
      </trkpt>
      <trkpt lat="44.81912" lon="6.18859">
        <ele>1094.2</ele>
        <time>2024-08-13T08:49:48Z</time>
      </trkpt>
      <trkpt lat="44.81913" lon="6.18855">
        <ele>1094.2</ele>
        <time>2024-08-13T08:49:49Z</time>
      </trkpt>
      <trkpt lat="44.81913" lon="6.18855">
        <ele>1094</ele>
        <time>2024-08-13T08:49:50Z</time>
      </trkpt>
      <trkpt lat="44.81914" lon="6.18851">
        <ele>1094.2</ele>
        <time>2024-08-13T08:49:51Z</time>
      </trkpt>
      <trkpt lat="44.81914" lon="6.18851">
        <ele>1094.2</ele>
        <time>2024-08-13T08:49:52Z</time>
      </trkpt>
      <trkpt lat="44.81916" lon="6.18847">
        <ele>1094.2</ele>
        <time>2024-08-13T08:49:53Z</time>
      </trkpt>
      <trkpt lat="44.81916" lon="6.18847">
        <ele>1094.2</ele>
        <time>2024-08-13T08:49:54Z</time>
      </trkpt>
      <trkpt lat="44.81917" lon="6.18843">
        <ele>1094</ele>
        <time>2024-08-13T08:49:55Z</time>
      </trkpt>
      <trkpt lat="44.81917" lon="6.18843">
        <ele>1094</ele>
        <time>2024-08-13T08:49:56Z</time>
      </trkpt>
      <trkpt lat="44.81919" lon="6.1884">
        <ele>1094</ele>
        <time>2024-08-13T08:49:57Z</time>
      </trkpt>
      <trkpt lat="44.81919" lon="6.1884">
        <ele>1094</ele>
        <time>2024-08-13T08:49:58Z</time>
      </trkpt>
      <trkpt lat="44.8192" lon="6.18837">
        <ele>1094.4</ele>
        <time>2024-08-13T08:49:59Z</time>
      </trkpt>
      <trkpt lat="44.8192" lon="6.18837">
        <ele>1094.4</ele>
        <time>2024-08-13T08:50:00Z</time>
      </trkpt>
      <trkpt lat="44.81921" lon="6.18834">
        <ele>1094.2</ele>
        <time>2024-08-13T08:50:01Z</time>
      </trkpt>
      <trkpt lat="44.81921" lon="6.18834">
        <ele>1093.8</ele>
        <time>2024-08-13T08:50:02Z</time>
      </trkpt>
      <trkpt lat="44.81923" lon="6.1883">
        <ele>1093.8</ele>
        <time>2024-08-13T08:50:03Z</time>
      </trkpt>
      <trkpt lat="44.81923" lon="6.1883">
        <ele>1094</ele>
        <time>2024-08-13T08:50:04Z</time>
      </trkpt>
      <trkpt lat="44.81925" lon="6.18827">
        <ele>1094</ele>
        <time>2024-08-13T08:50:05Z</time>
      </trkpt>
      <trkpt lat="44.81925" lon="6.18827">
        <ele>1094.2</ele>
        <time>2024-08-13T08:50:06Z</time>
      </trkpt>
      <trkpt lat="44.81926" lon="6.18823">
        <ele>1094.2</ele>
        <time>2024-08-13T08:50:07Z</time>
      </trkpt>
      <trkpt lat="44.81926" lon="6.18823">
        <ele>1094.2</ele>
        <time>2024-08-13T08:50:08Z</time>
      </trkpt>
      <trkpt lat="44.81928" lon="6.18819">
        <ele>1094.2</ele>
        <time>2024-08-13T08:50:09Z</time>
      </trkpt>
      <trkpt lat="44.81928" lon="6.18819">
        <ele>1094.2</ele>
        <time>2024-08-13T08:50:10Z</time>
      </trkpt>
      <trkpt lat="44.81929" lon="6.18815">
        <ele>1094.2</ele>
        <time>2024-08-13T08:50:11Z</time>
      </trkpt>
      <trkpt lat="44.81929" lon="6.18815">
        <ele>1094</ele>
        <time>2024-08-13T08:50:12Z</time>
      </trkpt>
      <trkpt lat="44.81929" lon="6.18811">
        <ele>1094</ele>
        <time>2024-08-13T08:50:13Z</time>
      </trkpt>
      <trkpt lat="44.8193" lon="6.18809">
        <ele>1094.2</ele>
        <time>2024-08-13T08:50:14Z</time>
      </trkpt>
      <trkpt lat="44.8193" lon="6.18806">
        <ele>1094.2</ele>
        <time>2024-08-13T08:50:15Z</time>
      </trkpt>
      <trkpt lat="44.8193" lon="6.18806">
        <ele>1094.2</ele>
        <time>2024-08-13T08:50:16Z</time>
      </trkpt>
      <trkpt lat="44.8193" lon="6.18802">
        <ele>1094.2</ele>
        <time>2024-08-13T08:50:17Z</time>
      </trkpt>
      <trkpt lat="44.8193" lon="6.18802">
        <ele>1094.2</ele>
        <time>2024-08-13T08:50:18Z</time>
      </trkpt>
      <trkpt lat="44.81931" lon="6.18798">
        <ele>1094</ele>
        <time>2024-08-13T08:50:19Z</time>
      </trkpt>
      <trkpt lat="44.81931" lon="6.18798">
        <ele>1094.2</ele>
        <time>2024-08-13T08:50:20Z</time>
      </trkpt>
      <trkpt lat="44.81931" lon="6.18794">
        <ele>1094.2</ele>
        <time>2024-08-13T08:50:21Z</time>
      </trkpt>
      <trkpt lat="44.81932" lon="6.18792">
        <ele>1094.2</ele>
        <time>2024-08-13T08:50:22Z</time>
      </trkpt>
      <trkpt lat="44.81932" lon="6.18792">
        <ele>1094.4</ele>
        <time>2024-08-13T08:50:23Z</time>
      </trkpt>
      <trkpt lat="44.81933" lon="6.18788">
        <ele>1094.4</ele>
        <time>2024-08-13T08:50:24Z</time>
      </trkpt>
      <trkpt lat="44.81933" lon="6.18788">
        <ele>1094.2</ele>
        <time>2024-08-13T08:50:25Z</time>
      </trkpt>
      <trkpt lat="44.81933" lon="6.18783">
        <ele>1094.2</ele>
        <time>2024-08-13T08:50:26Z</time>
      </trkpt>
      <trkpt lat="44.81933" lon="6.18783">
        <ele>1094.2</ele>
        <time>2024-08-13T08:50:27Z</time>
      </trkpt>
      <trkpt lat="44.81933" lon="6.18779">
        <ele>1094.2</ele>
        <time>2024-08-13T08:50:28Z</time>
      </trkpt>
      <trkpt lat="44.81933" lon="6.18779">
        <ele>1094</ele>
        <time>2024-08-13T08:50:29Z</time>
      </trkpt>
      <trkpt lat="44.81934" lon="6.18776">
        <ele>1094</ele>
        <time>2024-08-13T08:50:30Z</time>
      </trkpt>
      <trkpt lat="44.81934" lon="6.18776">
        <ele>1094</ele>
        <time>2024-08-13T08:50:31Z</time>
      </trkpt>
      <trkpt lat="44.81935" lon="6.18771">
        <ele>1093.8</ele>
        <time>2024-08-13T08:50:32Z</time>
      </trkpt>
      <trkpt lat="44.81935" lon="6.18771">
        <ele>1093.8</ele>
        <time>2024-08-13T08:50:33Z</time>
      </trkpt>
      <trkpt lat="44.81935" lon="6.18767">
        <ele>1093.8</ele>
        <time>2024-08-13T08:50:34Z</time>
      </trkpt>
      <trkpt lat="44.81935" lon="6.18767">
        <ele>1093.8</ele>
        <time>2024-08-13T08:50:35Z</time>
      </trkpt>
      <trkpt lat="44.81935" lon="6.18764">
        <ele>1094</ele>
        <time>2024-08-13T08:50:36Z</time>
      </trkpt>
      <trkpt lat="44.81935" lon="6.18764">
        <ele>1094</ele>
        <time>2024-08-13T08:50:37Z</time>
      </trkpt>
      <trkpt lat="44.81937" lon="6.1876">
        <ele>1094</ele>
        <time>2024-08-13T08:50:38Z</time>
      </trkpt>
      <trkpt lat="44.81937" lon="6.1876">
        <ele>1093.8</ele>
        <time>2024-08-13T08:50:39Z</time>
      </trkpt>
      <trkpt lat="44.81939" lon="6.18756">
        <ele>1093.8</ele>
        <time>2024-08-13T08:50:40Z</time>
      </trkpt>
      <trkpt lat="44.81939" lon="6.18756">
        <ele>1093.6</ele>
        <time>2024-08-13T08:50:41Z</time>
      </trkpt>
      <trkpt lat="44.81941" lon="6.18754">
        <ele>1093.6</ele>
        <time>2024-08-13T08:50:42Z</time>
      </trkpt>
      <trkpt lat="44.81941" lon="6.18754">
        <ele>1093.6</ele>
        <time>2024-08-13T08:50:43Z</time>
      </trkpt>
      <trkpt lat="44.81943" lon="6.18752">
        <ele>1093.8</ele>
        <time>2024-08-13T08:50:44Z</time>
      </trkpt>
      <trkpt lat="44.81945" lon="6.18751">
        <ele>1094</ele>
        <time>2024-08-13T08:50:45Z</time>
      </trkpt>
      <trkpt lat="44.81945" lon="6.18751">
        <ele>1094</ele>
        <time>2024-08-13T08:50:46Z</time>
      </trkpt>
      <trkpt lat="44.81947" lon="6.18751">
        <ele>1094</ele>
        <time>2024-08-13T08:50:47Z</time>
      </trkpt>
      <trkpt lat="44.81947" lon="6.18751">
        <ele>1094.2</ele>
        <time>2024-08-13T08:50:48Z</time>
      </trkpt>
      <trkpt lat="44.8195" lon="6.1875">
        <ele>1094.2</ele>
        <time>2024-08-13T08:50:49Z</time>
      </trkpt>
      <trkpt lat="44.8195" lon="6.1875">
        <ele>1094.2</ele>
        <time>2024-08-13T08:50:50Z</time>
      </trkpt>
      <trkpt lat="44.81953" lon="6.18749">
        <ele>1094.4</ele>
        <time>2024-08-13T08:50:51Z</time>
      </trkpt>
      <trkpt lat="44.81953" lon="6.18749">
        <ele>1094.4</ele>
        <time>2024-08-13T08:50:52Z</time>
      </trkpt>
      <trkpt lat="44.81956" lon="6.18749">
        <ele>1094.4</ele>
        <time>2024-08-13T08:50:53Z</time>
      </trkpt>
      <trkpt lat="44.81956" lon="6.18749">
        <ele>1094.4</ele>
        <time>2024-08-13T08:50:54Z</time>
      </trkpt>
      <trkpt lat="44.81958" lon="6.18748">
        <ele>1094.4</ele>
        <time>2024-08-13T08:50:55Z</time>
      </trkpt>
      <trkpt lat="44.81958" lon="6.18748">
        <ele>1094.4</ele>
        <time>2024-08-13T08:50:56Z</time>
      </trkpt>
      <trkpt lat="44.81961" lon="6.18748">
        <ele>1094.4</ele>
        <time>2024-08-13T08:50:57Z</time>
      </trkpt>
      <trkpt lat="44.81961" lon="6.18748">
        <ele>1094.4</ele>
        <time>2024-08-13T08:50:58Z</time>
      </trkpt>
      <trkpt lat="44.81963" lon="6.18747">
        <ele>1094.4</ele>
        <time>2024-08-13T08:50:59Z</time>
      </trkpt>
      <trkpt lat="44.81963" lon="6.18747">
        <ele>1094.2</ele>
        <time>2024-08-13T08:51:00Z</time>
      </trkpt>
      <trkpt lat="44.81963" lon="6.18747">
        <ele>1094</ele>
        <time>2024-08-13T08:51:01Z</time>
      </trkpt>
      <trkpt lat="44.81964" lon="6.18744">
        <ele>1093.8</ele>
        <time>2024-08-13T08:51:02Z</time>
      </trkpt>
      <trkpt lat="44.81964" lon="6.18744">
        <ele>1093.8</ele>
        <time>2024-08-13T08:51:03Z</time>
      </trkpt>
      <trkpt lat="44.81964" lon="6.18744">
        <ele>1093.8</ele>
        <time>2024-08-13T08:51:04Z</time>
      </trkpt>
      <trkpt lat="44.81964" lon="6.18744">
        <ele>1093.6</ele>
        <time>2024-08-13T08:51:05Z</time>
      </trkpt>
      <trkpt lat="44.81964" lon="6.18744">
        <ele>1093.6</ele>
        <time>2024-08-13T08:51:06Z</time>
      </trkpt>
      <trkpt lat="44.81964" lon="6.18744">
        <ele>1093.6</ele>
        <time>2024-08-13T08:51:07Z</time>
      </trkpt>
      <trkpt lat="44.81964" lon="6.18744">
        <ele>1093.6</ele>
        <time>2024-08-13T08:51:08Z</time>
      </trkpt>
      <trkpt lat="44.81964" lon="6.1874">
        <ele>1093.4</ele>
        <time>2024-08-13T08:51:09Z</time>
      </trkpt>
      <trkpt lat="44.81964" lon="6.1874">
        <ele>1093.4</ele>
        <time>2024-08-13T08:51:10Z</time>
      </trkpt>
      <trkpt lat="44.81964" lon="6.1874">
        <ele>1093.6</ele>
        <time>2024-08-13T08:51:11Z</time>
      </trkpt>
      <trkpt lat="44.81964" lon="6.18737">
        <ele>1093.6</ele>
        <time>2024-08-13T08:51:12Z</time>
      </trkpt>
      <trkpt lat="44.81964" lon="6.18737">
        <ele>1093.6</ele>
        <time>2024-08-13T08:51:13Z</time>
      </trkpt>
      <trkpt lat="44.81965" lon="6.18733">
        <ele>1093.6</ele>
        <time>2024-08-13T08:51:14Z</time>
      </trkpt>
      <trkpt lat="44.81965" lon="6.18733">
        <ele>1093.6</ele>
        <time>2024-08-13T08:51:15Z</time>
      </trkpt>
      <trkpt lat="44.81965" lon="6.18731">
        <ele>1093.6</ele>
        <time>2024-08-13T08:51:16Z</time>
      </trkpt>
      <trkpt lat="44.81965" lon="6.18731">
        <ele>1093.6</ele>
        <time>2024-08-13T08:51:17Z</time>
      </trkpt>
      <trkpt lat="44.81965" lon="6.18727">
        <ele>1093.6</ele>
        <time>2024-08-13T08:51:18Z</time>
      </trkpt>
      <trkpt lat="44.81965" lon="6.18727">
        <ele>1093.6</ele>
        <time>2024-08-13T08:51:19Z</time>
      </trkpt>
      <trkpt lat="44.81964" lon="6.18722">
        <ele>1093.6</ele>
        <time>2024-08-13T08:51:20Z</time>
      </trkpt>
      <trkpt lat="44.81964" lon="6.18722">
        <ele>1093.6</ele>
        <time>2024-08-13T08:51:21Z</time>
      </trkpt>
      <trkpt lat="44.81963" lon="6.18718">
        <ele>1093.6</ele>
        <time>2024-08-13T08:51:22Z</time>
      </trkpt>
      <trkpt lat="44.81963" lon="6.18718">
        <ele>1093.6</ele>
        <time>2024-08-13T08:51:23Z</time>
      </trkpt>
      <trkpt lat="44.81962" lon="6.18714">
        <ele>1093.6</ele>
        <time>2024-08-13T08:51:24Z</time>
      </trkpt>
      <trkpt lat="44.81962" lon="6.18714">
        <ele>1093.6</ele>
        <time>2024-08-13T08:51:25Z</time>
      </trkpt>
      <trkpt lat="44.81962" lon="6.1871">
        <ele>1093.8</ele>
        <time>2024-08-13T08:51:26Z</time>
      </trkpt>
      <trkpt lat="44.81961" lon="6.18708">
        <ele>1093.8</ele>
        <time>2024-08-13T08:51:27Z</time>
      </trkpt>
      <trkpt lat="44.81961" lon="6.18708">
        <ele>1093.6</ele>
        <time>2024-08-13T08:51:28Z</time>
      </trkpt>
      <trkpt lat="44.8196" lon="6.18704">
        <ele>1093.6</ele>
        <time>2024-08-13T08:51:29Z</time>
      </trkpt>
      <trkpt lat="44.81958" lon="6.18702">
        <ele>1093.6</ele>
        <time>2024-08-13T08:51:30Z</time>
      </trkpt>
      <trkpt lat="44.81957" lon="6.18699">
        <ele>1093.6</ele>
        <time>2024-08-13T08:51:31Z</time>
      </trkpt>
      <trkpt lat="44.81957" lon="6.18699">
        <ele>1093.6</ele>
        <time>2024-08-13T08:51:32Z</time>
      </trkpt>
      <trkpt lat="44.81957" lon="6.18695">
        <ele>1093.6</ele>
        <time>2024-08-13T08:51:33Z</time>
      </trkpt>
      <trkpt lat="44.81957" lon="6.18695">
        <ele>1093.4</ele>
        <time>2024-08-13T08:51:34Z</time>
      </trkpt>
      <trkpt lat="44.81956" lon="6.18692">
        <ele>1093.2</ele>
        <time>2024-08-13T08:51:35Z</time>
      </trkpt>
      <trkpt lat="44.81956" lon="6.18692">
        <ele>1093</ele>
        <time>2024-08-13T08:51:36Z</time>
      </trkpt>
      <trkpt lat="44.81955" lon="6.18688">
        <ele>1093</ele>
        <time>2024-08-13T08:51:37Z</time>
      </trkpt>
      <trkpt lat="44.81955" lon="6.18688">
        <ele>1093</ele>
        <time>2024-08-13T08:51:38Z</time>
      </trkpt>
      <trkpt lat="44.81954" lon="6.18683">
        <ele>1093</ele>
        <time>2024-08-13T08:51:39Z</time>
      </trkpt>
      <trkpt lat="44.81954" lon="6.18683">
        <ele>1093</ele>
        <time>2024-08-13T08:51:40Z</time>
      </trkpt>
      <trkpt lat="44.81954" lon="6.18678">
        <ele>1093</ele>
        <time>2024-08-13T08:51:41Z</time>
      </trkpt>
      <trkpt lat="44.81954" lon="6.18678">
        <ele>1093</ele>
        <time>2024-08-13T08:51:42Z</time>
      </trkpt>
      <trkpt lat="44.81954" lon="6.18674">
        <ele>1093</ele>
        <time>2024-08-13T08:51:43Z</time>
      </trkpt>
      <trkpt lat="44.81954" lon="6.18674">
        <ele>1093</ele>
        <time>2024-08-13T08:51:44Z</time>
      </trkpt>
      <trkpt lat="44.81953" lon="6.1867">
        <ele>1092.8</ele>
        <time>2024-08-13T08:51:45Z</time>
      </trkpt>
      <trkpt lat="44.81953" lon="6.1867">
        <ele>1092.8</ele>
        <time>2024-08-13T08:51:46Z</time>
      </trkpt>
      <trkpt lat="44.81953" lon="6.18666">
        <ele>1092.8</ele>
        <time>2024-08-13T08:51:47Z</time>
      </trkpt>
      <trkpt lat="44.81953" lon="6.18666">
        <ele>1092.8</ele>
        <time>2024-08-13T08:51:48Z</time>
      </trkpt>
      <trkpt lat="44.81953" lon="6.18662">
        <ele>1092.8</ele>
        <time>2024-08-13T08:51:49Z</time>
      </trkpt>
      <trkpt lat="44.81953" lon="6.18662">
        <ele>1092.8</ele>
        <time>2024-08-13T08:51:50Z</time>
      </trkpt>
      <trkpt lat="44.81952" lon="6.18659">
        <ele>1093</ele>
        <time>2024-08-13T08:51:51Z</time>
      </trkpt>
      <trkpt lat="44.81952" lon="6.18659">
        <ele>1093</ele>
        <time>2024-08-13T08:51:52Z</time>
      </trkpt>
      <trkpt lat="44.81952" lon="6.18655">
        <ele>1092.8</ele>
        <time>2024-08-13T08:51:53Z</time>
      </trkpt>
      <trkpt lat="44.81952" lon="6.18655">
        <ele>1092.8</ele>
        <time>2024-08-13T08:51:54Z</time>
      </trkpt>
      <trkpt lat="44.81952" lon="6.18651">
        <ele>1092.6</ele>
        <time>2024-08-13T08:51:55Z</time>
      </trkpt>
      <trkpt lat="44.81952" lon="6.18651">
        <ele>1092.6</ele>
        <time>2024-08-13T08:51:56Z</time>
      </trkpt>
      <trkpt lat="44.81951" lon="6.18647">
        <ele>1092.6</ele>
        <time>2024-08-13T08:51:57Z</time>
      </trkpt>
      <trkpt lat="44.81951" lon="6.18647">
        <ele>1092.6</ele>
        <time>2024-08-13T08:51:58Z</time>
      </trkpt>
      <trkpt lat="44.8195" lon="6.18644">
        <ele>1092.4</ele>
        <time>2024-08-13T08:51:59Z</time>
      </trkpt>
      <trkpt lat="44.8195" lon="6.18644">
        <ele>1092.4</ele>
        <time>2024-08-13T08:52:00Z</time>
      </trkpt>
      <trkpt lat="44.8195" lon="6.18639">
        <ele>1092.6</ele>
        <time>2024-08-13T08:52:01Z</time>
      </trkpt>
      <trkpt lat="44.8195" lon="6.18639">
        <ele>1092.6</ele>
        <time>2024-08-13T08:52:02Z</time>
      </trkpt>
      <trkpt lat="44.81949" lon="6.18635">
        <ele>1092.6</ele>
        <time>2024-08-13T08:52:03Z</time>
      </trkpt>
      <trkpt lat="44.81949" lon="6.18635">
        <ele>1092.6</ele>
        <time>2024-08-13T08:52:04Z</time>
      </trkpt>
      <trkpt lat="44.81949" lon="6.18631">
        <ele>1092.6</ele>
        <time>2024-08-13T08:52:05Z</time>
      </trkpt>
      <trkpt lat="44.81949" lon="6.18631">
        <ele>1092.6</ele>
        <time>2024-08-13T08:52:06Z</time>
      </trkpt>
      <trkpt lat="44.81949" lon="6.18627">
        <ele>1092.2</ele>
        <time>2024-08-13T08:52:07Z</time>
      </trkpt>
      <trkpt lat="44.81949" lon="6.18627">
        <ele>1092.2</ele>
        <time>2024-08-13T08:52:08Z</time>
      </trkpt>
      <trkpt lat="44.8195" lon="6.18623">
        <ele>1092.4</ele>
        <time>2024-08-13T08:52:09Z</time>
      </trkpt>
      <trkpt lat="44.8195" lon="6.18623">
        <ele>1092.4</ele>
        <time>2024-08-13T08:52:10Z</time>
      </trkpt>
      <trkpt lat="44.81949" lon="6.18619">
        <ele>1092.4</ele>
        <time>2024-08-13T08:52:11Z</time>
      </trkpt>
      <trkpt lat="44.81949" lon="6.18619">
        <ele>1092.2</ele>
        <time>2024-08-13T08:52:12Z</time>
      </trkpt>
      <trkpt lat="44.81949" lon="6.18615">
        <ele>1092.2</ele>
        <time>2024-08-13T08:52:13Z</time>
      </trkpt>
      <trkpt lat="44.81949" lon="6.18615">
        <ele>1092.2</ele>
        <time>2024-08-13T08:52:14Z</time>
      </trkpt>
      <trkpt lat="44.81949" lon="6.18611">
        <ele>1092.4</ele>
        <time>2024-08-13T08:52:15Z</time>
      </trkpt>
      <trkpt lat="44.81949" lon="6.18611">
        <ele>1092.2</ele>
        <time>2024-08-13T08:52:16Z</time>
      </trkpt>
      <trkpt lat="44.81949" lon="6.18607">
        <ele>1092.2</ele>
        <time>2024-08-13T08:52:17Z</time>
      </trkpt>
      <trkpt lat="44.81949" lon="6.18607">
        <ele>1092.4</ele>
        <time>2024-08-13T08:52:18Z</time>
      </trkpt>
      <trkpt lat="44.81948" lon="6.18603">
        <ele>1092.4</ele>
        <time>2024-08-13T08:52:19Z</time>
      </trkpt>
      <trkpt lat="44.81948" lon="6.18603">
        <ele>1092.2</ele>
        <time>2024-08-13T08:52:20Z</time>
      </trkpt>
      <trkpt lat="44.81947" lon="6.18598">
        <ele>1092.2</ele>
        <time>2024-08-13T08:52:21Z</time>
      </trkpt>
      <trkpt lat="44.81947" lon="6.18598">
        <ele>1092.4</ele>
        <time>2024-08-13T08:52:22Z</time>
      </trkpt>
      <trkpt lat="44.81947" lon="6.18594">
        <ele>1092.4</ele>
        <time>2024-08-13T08:52:23Z</time>
      </trkpt>
      <trkpt lat="44.81947" lon="6.18594">
        <ele>1092.4</ele>
        <time>2024-08-13T08:52:24Z</time>
      </trkpt>
      <trkpt lat="44.81947" lon="6.1859">
        <ele>1092.4</ele>
        <time>2024-08-13T08:52:25Z</time>
      </trkpt>
      <trkpt lat="44.81947" lon="6.1859">
        <ele>1092.2</ele>
        <time>2024-08-13T08:52:26Z</time>
      </trkpt>
      <trkpt lat="44.81947" lon="6.18585">
        <ele>1092.2</ele>
        <time>2024-08-13T08:52:27Z</time>
      </trkpt>
      <trkpt lat="44.81947" lon="6.18585">
        <ele>1092.2</ele>
        <time>2024-08-13T08:52:28Z</time>
      </trkpt>
      <trkpt lat="44.81947" lon="6.18581">
        <ele>1092.2</ele>
        <time>2024-08-13T08:52:29Z</time>
      </trkpt>
      <trkpt lat="44.81947" lon="6.18581">
        <ele>1092</ele>
        <time>2024-08-13T08:52:30Z</time>
      </trkpt>
      <trkpt lat="44.81947" lon="6.18578">
        <ele>1091.8</ele>
        <time>2024-08-13T08:52:31Z</time>
      </trkpt>
      <trkpt lat="44.81947" lon="6.18578">
        <ele>1091.8</ele>
        <time>2024-08-13T08:52:32Z</time>
      </trkpt>
      <trkpt lat="44.81946" lon="6.18574">
        <ele>1091.8</ele>
        <time>2024-08-13T08:52:33Z</time>
      </trkpt>
      <trkpt lat="44.81946" lon="6.18574">
        <ele>1091.8</ele>
        <time>2024-08-13T08:52:34Z</time>
      </trkpt>
      <trkpt lat="44.81946" lon="6.1857">
        <ele>1091.8</ele>
        <time>2024-08-13T08:52:35Z</time>
      </trkpt>
      <trkpt lat="44.81946" lon="6.1857">
        <ele>1091.8</ele>
        <time>2024-08-13T08:52:36Z</time>
      </trkpt>
      <trkpt lat="44.81946" lon="6.18565">
        <ele>1091.8</ele>
        <time>2024-08-13T08:52:37Z</time>
      </trkpt>
      <trkpt lat="44.81946" lon="6.18565">
        <ele>1092</ele>
        <time>2024-08-13T08:52:38Z</time>
      </trkpt>
      <trkpt lat="44.81947" lon="6.18562">
        <ele>1091.6</ele>
        <time>2024-08-13T08:52:39Z</time>
      </trkpt>
      <trkpt lat="44.81947" lon="6.18562">
        <ele>1091.6</ele>
        <time>2024-08-13T08:52:40Z</time>
      </trkpt>
      <trkpt lat="44.81947" lon="6.18559">
        <ele>1091.8</ele>
        <time>2024-08-13T08:52:41Z</time>
      </trkpt>
      <trkpt lat="44.81947" lon="6.18559">
        <ele>1091.8</ele>
        <time>2024-08-13T08:52:42Z</time>
      </trkpt>
      <trkpt lat="44.81947" lon="6.18555">
        <ele>1091.8</ele>
        <time>2024-08-13T08:52:43Z</time>
      </trkpt>
      <trkpt lat="44.81947" lon="6.18555">
        <ele>1091.8</ele>
        <time>2024-08-13T08:52:44Z</time>
      </trkpt>
      <trkpt lat="44.81947" lon="6.18551">
        <ele>1091.6</ele>
        <time>2024-08-13T08:52:45Z</time>
      </trkpt>
      <trkpt lat="44.81947" lon="6.18551">
        <ele>1091.4</ele>
        <time>2024-08-13T08:52:46Z</time>
      </trkpt>
      <trkpt lat="44.81947" lon="6.18546">
        <ele>1091.4</ele>
        <time>2024-08-13T08:52:47Z</time>
      </trkpt>
      <trkpt lat="44.81947" lon="6.18546">
        <ele>1091.6</ele>
        <time>2024-08-13T08:52:48Z</time>
      </trkpt>
      <trkpt lat="44.81948" lon="6.18542">
        <ele>1091.6</ele>
        <time>2024-08-13T08:52:49Z</time>
      </trkpt>
      <trkpt lat="44.81948" lon="6.18542">
        <ele>1091.4</ele>
        <time>2024-08-13T08:52:50Z</time>
      </trkpt>
      <trkpt lat="44.81948" lon="6.18538">
        <ele>1091.4</ele>
        <time>2024-08-13T08:52:51Z</time>
      </trkpt>
      <trkpt lat="44.81948" lon="6.18535">
        <ele>1091.2</ele>
        <time>2024-08-13T08:52:52Z</time>
      </trkpt>
      <trkpt lat="44.81948" lon="6.18535">
        <ele>1091.4</ele>
        <time>2024-08-13T08:52:53Z</time>
      </trkpt>
      <trkpt lat="44.81948" lon="6.18531">
        <ele>1092</ele>
        <time>2024-08-13T08:52:54Z</time>
      </trkpt>
      <trkpt lat="44.81948" lon="6.18531">
        <ele>1092</ele>
        <time>2024-08-13T08:52:55Z</time>
      </trkpt>
      <trkpt lat="44.81947" lon="6.18527">
        <ele>1091.8</ele>
        <time>2024-08-13T08:52:56Z</time>
      </trkpt>
      <trkpt lat="44.81947" lon="6.18527">
        <ele>1091.8</ele>
        <time>2024-08-13T08:52:57Z</time>
      </trkpt>
      <trkpt lat="44.81947" lon="6.18523">
        <ele>1091.6</ele>
        <time>2024-08-13T08:52:58Z</time>
      </trkpt>
      <trkpt lat="44.81947" lon="6.18523">
        <ele>1091.6</ele>
        <time>2024-08-13T08:52:59Z</time>
      </trkpt>
      <trkpt lat="44.81947" lon="6.18519">
        <ele>1091.6</ele>
        <time>2024-08-13T08:53:00Z</time>
      </trkpt>
      <trkpt lat="44.81946" lon="6.18517">
        <ele>1091.8</ele>
        <time>2024-08-13T08:53:01Z</time>
      </trkpt>
      <trkpt lat="44.81946" lon="6.18517">
        <ele>1091.6</ele>
        <time>2024-08-13T08:53:02Z</time>
      </trkpt>
      <trkpt lat="44.81945" lon="6.18512">
        <ele>1091.6</ele>
        <time>2024-08-13T08:53:03Z</time>
      </trkpt>
      <trkpt lat="44.81945" lon="6.18512">
        <ele>1091.4</ele>
        <time>2024-08-13T08:53:04Z</time>
      </trkpt>
      <trkpt lat="44.81946" lon="6.18508">
        <ele>1091.4</ele>
        <time>2024-08-13T08:53:05Z</time>
      </trkpt>
      <trkpt lat="44.81946" lon="6.18508">
        <ele>1091.4</ele>
        <time>2024-08-13T08:53:06Z</time>
      </trkpt>
      <trkpt lat="44.81946" lon="6.18504">
        <ele>1091.4</ele>
        <time>2024-08-13T08:53:07Z</time>
      </trkpt>
      <trkpt lat="44.81946" lon="6.18504">
        <ele>1091.4</ele>
        <time>2024-08-13T08:53:08Z</time>
      </trkpt>
      <trkpt lat="44.81946" lon="6.18501">
        <ele>1091.4</ele>
        <time>2024-08-13T08:53:09Z</time>
      </trkpt>
      <trkpt lat="44.81946" lon="6.18501">
        <ele>1091.4</ele>
        <time>2024-08-13T08:53:10Z</time>
      </trkpt>
      <trkpt lat="44.81946" lon="6.18497">
        <ele>1091.4</ele>
        <time>2024-08-13T08:53:11Z</time>
      </trkpt>
      <trkpt lat="44.81946" lon="6.18497">
        <ele>1091.2</ele>
        <time>2024-08-13T08:53:12Z</time>
      </trkpt>
      <trkpt lat="44.81946" lon="6.18493">
        <ele>1091.2</ele>
        <time>2024-08-13T08:53:13Z</time>
      </trkpt>
      <trkpt lat="44.81946" lon="6.18493">
        <ele>1091.2</ele>
        <time>2024-08-13T08:53:14Z</time>
      </trkpt>
      <trkpt lat="44.81946" lon="6.18489">
        <ele>1091.2</ele>
        <time>2024-08-13T08:53:15Z</time>
      </trkpt>
      <trkpt lat="44.81946" lon="6.18489">
        <ele>1091.2</ele>
        <time>2024-08-13T08:53:16Z</time>
      </trkpt>
      <trkpt lat="44.81947" lon="6.18485">
        <ele>1091.2</ele>
        <time>2024-08-13T08:53:17Z</time>
      </trkpt>
      <trkpt lat="44.81947" lon="6.18485">
        <ele>1091</ele>
        <time>2024-08-13T08:53:18Z</time>
      </trkpt>
      <trkpt lat="44.81947" lon="6.18481">
        <ele>1091</ele>
        <time>2024-08-13T08:53:19Z</time>
      </trkpt>
      <trkpt lat="44.81947" lon="6.18481">
        <ele>1091</ele>
        <time>2024-08-13T08:53:20Z</time>
      </trkpt>
      <trkpt lat="44.81947" lon="6.18477">
        <ele>1090.8</ele>
        <time>2024-08-13T08:53:21Z</time>
      </trkpt>
      <trkpt lat="44.81947" lon="6.18477">
        <ele>1090.8</ele>
        <time>2024-08-13T08:53:22Z</time>
      </trkpt>
      <trkpt lat="44.81948" lon="6.18473">
        <ele>1090.8</ele>
        <time>2024-08-13T08:53:23Z</time>
      </trkpt>
      <trkpt lat="44.81948" lon="6.18473">
        <ele>1090.6</ele>
        <time>2024-08-13T08:53:24Z</time>
      </trkpt>
      <trkpt lat="44.81948" lon="6.18469">
        <ele>1090.6</ele>
        <time>2024-08-13T08:53:25Z</time>
      </trkpt>
      <trkpt lat="44.81948" lon="6.18469">
        <ele>1090.6</ele>
        <time>2024-08-13T08:53:26Z</time>
      </trkpt>
      <trkpt lat="44.81948" lon="6.18466">
        <ele>1090.8</ele>
        <time>2024-08-13T08:53:27Z</time>
      </trkpt>
      <trkpt lat="44.81948" lon="6.18466">
        <ele>1090.8</ele>
        <time>2024-08-13T08:53:28Z</time>
      </trkpt>
      <trkpt lat="44.81949" lon="6.18462">
        <ele>1090.8</ele>
        <time>2024-08-13T08:53:29Z</time>
      </trkpt>
      <trkpt lat="44.81949" lon="6.18462">
        <ele>1090.6</ele>
        <time>2024-08-13T08:53:30Z</time>
      </trkpt>
      <trkpt lat="44.81949" lon="6.18458">
        <ele>1090.6</ele>
        <time>2024-08-13T08:53:31Z</time>
      </trkpt>
      <trkpt lat="44.81949" lon="6.18458">
        <ele>1090.6</ele>
        <time>2024-08-13T08:53:32Z</time>
      </trkpt>
      <trkpt lat="44.8195" lon="6.18455">
        <ele>1090.6</ele>
        <time>2024-08-13T08:53:33Z</time>
      </trkpt>
      <trkpt lat="44.8195" lon="6.18455">
        <ele>1090.6</ele>
        <time>2024-08-13T08:53:34Z</time>
      </trkpt>
      <trkpt lat="44.81951" lon="6.18451">
        <ele>1090.6</ele>
        <time>2024-08-13T08:53:35Z</time>
      </trkpt>
      <trkpt lat="44.81952" lon="6.18449">
        <ele>1090.6</ele>
        <time>2024-08-13T08:53:36Z</time>
      </trkpt>
      <trkpt lat="44.81952" lon="6.18449">
        <ele>1090.4</ele>
        <time>2024-08-13T08:53:37Z</time>
      </trkpt>
      <trkpt lat="44.81953" lon="6.18445">
        <ele>1090.4</ele>
        <time>2024-08-13T08:53:38Z</time>
      </trkpt>
      <trkpt lat="44.81953" lon="6.18445">
        <ele>1090.6</ele>
        <time>2024-08-13T08:53:39Z</time>
      </trkpt>
      <trkpt lat="44.81954" lon="6.18441">
        <ele>1090.6</ele>
        <time>2024-08-13T08:53:40Z</time>
      </trkpt>
      <trkpt lat="44.81954" lon="6.18441">
        <ele>1090.6</ele>
        <time>2024-08-13T08:53:41Z</time>
      </trkpt>
      <trkpt lat="44.81955" lon="6.18438">
        <ele>1090.6</ele>
        <time>2024-08-13T08:53:42Z</time>
      </trkpt>
      <trkpt lat="44.81955" lon="6.18438">
        <ele>1090.6</ele>
        <time>2024-08-13T08:53:43Z</time>
      </trkpt>
      <trkpt lat="44.81957" lon="6.18434">
        <ele>1090.6</ele>
        <time>2024-08-13T08:53:44Z</time>
      </trkpt>
      <trkpt lat="44.81957" lon="6.18434">
        <ele>1090.6</ele>
        <time>2024-08-13T08:53:45Z</time>
      </trkpt>
      <trkpt lat="44.81958" lon="6.18431">
        <ele>1090.6</ele>
        <time>2024-08-13T08:53:46Z</time>
      </trkpt>
      <trkpt lat="44.81958" lon="6.18431">
        <ele>1090.8</ele>
        <time>2024-08-13T08:53:47Z</time>
      </trkpt>
      <trkpt lat="44.81959" lon="6.18427">
        <ele>1090.8</ele>
        <time>2024-08-13T08:53:48Z</time>
      </trkpt>
      <trkpt lat="44.81959" lon="6.18427">
        <ele>1090.6</ele>
        <time>2024-08-13T08:53:49Z</time>
      </trkpt>
      <trkpt lat="44.81961" lon="6.18422">
        <ele>1090.6</ele>
        <time>2024-08-13T08:53:50Z</time>
      </trkpt>
      <trkpt lat="44.81961" lon="6.18422">
        <ele>1090.6</ele>
        <time>2024-08-13T08:53:51Z</time>
      </trkpt>
      <trkpt lat="44.81962" lon="6.18418">
        <ele>1090.8</ele>
        <time>2024-08-13T08:53:52Z</time>
      </trkpt>
      <trkpt lat="44.81962" lon="6.18418">
        <ele>1090.8</ele>
        <time>2024-08-13T08:53:53Z</time>
      </trkpt>
      <trkpt lat="44.81963" lon="6.18415">
        <ele>1090.6</ele>
        <time>2024-08-13T08:53:54Z</time>
      </trkpt>
      <trkpt lat="44.81963" lon="6.18415">
        <ele>1090.6</ele>
        <time>2024-08-13T08:53:55Z</time>
      </trkpt>
      <trkpt lat="44.81964" lon="6.18411">
        <ele>1090.4</ele>
        <time>2024-08-13T08:53:56Z</time>
      </trkpt>
      <trkpt lat="44.81964" lon="6.18411">
        <ele>1090.4</ele>
        <time>2024-08-13T08:53:57Z</time>
      </trkpt>
      <trkpt lat="44.81965" lon="6.18407">
        <ele>1090.6</ele>
        <time>2024-08-13T08:53:58Z</time>
      </trkpt>
      <trkpt lat="44.81965" lon="6.18407">
        <ele>1090.6</ele>
        <time>2024-08-13T08:53:59Z</time>
      </trkpt>
      <trkpt lat="44.81966" lon="6.18404">
        <ele>1090.6</ele>
        <time>2024-08-13T08:54:00Z</time>
      </trkpt>
      <trkpt lat="44.81966" lon="6.18404">
        <ele>1090.4</ele>
        <time>2024-08-13T08:54:01Z</time>
      </trkpt>
      <trkpt lat="44.81967" lon="6.18401">
        <ele>1090.6</ele>
        <time>2024-08-13T08:54:02Z</time>
      </trkpt>
      <trkpt lat="44.81967" lon="6.18401">
        <ele>1090.6</ele>
        <time>2024-08-13T08:54:03Z</time>
      </trkpt>
      <trkpt lat="44.81968" lon="6.18397">
        <ele>1090.6</ele>
        <time>2024-08-13T08:54:04Z</time>
      </trkpt>
      <trkpt lat="44.81968" lon="6.18397">
        <ele>1090.4</ele>
        <time>2024-08-13T08:54:05Z</time>
      </trkpt>
      <trkpt lat="44.8197" lon="6.18395">
        <ele>1090.4</ele>
        <time>2024-08-13T08:54:06Z</time>
      </trkpt>
      <trkpt lat="44.8197" lon="6.18395">
        <ele>1090.4</ele>
        <time>2024-08-13T08:54:07Z</time>
      </trkpt>
      <trkpt lat="44.81971" lon="6.18391">
        <ele>1090.4</ele>
        <time>2024-08-13T08:54:08Z</time>
      </trkpt>
      <trkpt lat="44.81971" lon="6.18389">
        <ele>1090.4</ele>
        <time>2024-08-13T08:54:09Z</time>
      </trkpt>
      <trkpt lat="44.81971" lon="6.18387">
        <ele>1090.6</ele>
        <time>2024-08-13T08:54:10Z</time>
      </trkpt>
      <trkpt lat="44.81971" lon="6.18385">
        <ele>1090.6</ele>
        <time>2024-08-13T08:54:11Z</time>
      </trkpt>
      <trkpt lat="44.81971" lon="6.18384">
        <ele>1090.6</ele>
        <time>2024-08-13T08:54:12Z</time>
      </trkpt>
      <trkpt lat="44.81972" lon="6.18379">
        <ele>1090.4</ele>
        <time>2024-08-13T08:54:13Z</time>
      </trkpt>
      <trkpt lat="44.81972" lon="6.18379">
        <ele>1090.4</ele>
        <time>2024-08-13T08:54:14Z</time>
      </trkpt>
      <trkpt lat="44.81974" lon="6.18375">
        <ele>1090.2</ele>
        <time>2024-08-13T08:54:15Z</time>
      </trkpt>
      <trkpt lat="44.81974" lon="6.18375">
        <ele>1090.2</ele>
        <time>2024-08-13T08:54:16Z</time>
      </trkpt>
      <trkpt lat="44.81974" lon="6.18371">
        <ele>1090</ele>
        <time>2024-08-13T08:54:17Z</time>
      </trkpt>
      <trkpt lat="44.81974" lon="6.18371">
        <ele>1090</ele>
        <time>2024-08-13T08:54:18Z</time>
      </trkpt>
      <trkpt lat="44.81974" lon="6.18368">
        <ele>1090</ele>
        <time>2024-08-13T08:54:19Z</time>
      </trkpt>
      <trkpt lat="44.81974" lon="6.18368">
        <ele>1090</ele>
        <time>2024-08-13T08:54:20Z</time>
      </trkpt>
      <trkpt lat="44.81975" lon="6.18364">
        <ele>1089.8</ele>
        <time>2024-08-13T08:54:21Z</time>
      </trkpt>
      <trkpt lat="44.81975" lon="6.18364">
        <ele>1089.8</ele>
        <time>2024-08-13T08:54:22Z</time>
      </trkpt>
      <trkpt lat="44.81975" lon="6.1836">
        <ele>1089.8</ele>
        <time>2024-08-13T08:54:23Z</time>
      </trkpt>
      <trkpt lat="44.81975" lon="6.1836">
        <ele>1089.8</ele>
        <time>2024-08-13T08:54:24Z</time>
      </trkpt>
      <trkpt lat="44.81976" lon="6.18356">
        <ele>1089.8</ele>
        <time>2024-08-13T08:54:25Z</time>
      </trkpt>
      <trkpt lat="44.81976" lon="6.18356">
        <ele>1089.6</ele>
        <time>2024-08-13T08:54:26Z</time>
      </trkpt>
      <trkpt lat="44.81976" lon="6.18353">
        <ele>1089.4</ele>
        <time>2024-08-13T08:54:27Z</time>
      </trkpt>
      <trkpt lat="44.81976" lon="6.18353">
        <ele>1089.4</ele>
        <time>2024-08-13T08:54:28Z</time>
      </trkpt>
      <trkpt lat="44.81976" lon="6.18349">
        <ele>1089.4</ele>
        <time>2024-08-13T08:54:29Z</time>
      </trkpt>
      <trkpt lat="44.81976" lon="6.18349">
        <ele>1089.4</ele>
        <time>2024-08-13T08:54:30Z</time>
      </trkpt>
      <trkpt lat="44.81977" lon="6.18345">
        <ele>1089.4</ele>
        <time>2024-08-13T08:54:31Z</time>
      </trkpt>
      <trkpt lat="44.81977" lon="6.18345">
        <ele>1089.4</ele>
        <time>2024-08-13T08:54:32Z</time>
      </trkpt>
      <trkpt lat="44.81978" lon="6.18341">
        <ele>1089.2</ele>
        <time>2024-08-13T08:54:33Z</time>
      </trkpt>
      <trkpt lat="44.81978" lon="6.18341">
        <ele>1089.2</ele>
        <time>2024-08-13T08:54:34Z</time>
      </trkpt>
      <trkpt lat="44.81978" lon="6.18337">
        <ele>1089.4</ele>
        <time>2024-08-13T08:54:35Z</time>
      </trkpt>
      <trkpt lat="44.81978" lon="6.18337">
        <ele>1089.4</ele>
        <time>2024-08-13T08:54:36Z</time>
      </trkpt>
      <trkpt lat="44.81979" lon="6.18333">
        <ele>1089.4</ele>
        <time>2024-08-13T08:54:37Z</time>
      </trkpt>
      <trkpt lat="44.8198" lon="6.18331">
        <ele>1089.6</ele>
        <time>2024-08-13T08:54:38Z</time>
      </trkpt>
      <trkpt lat="44.8198" lon="6.18329">
        <ele>1089.6</ele>
        <time>2024-08-13T08:54:39Z</time>
      </trkpt>
      <trkpt lat="44.8198" lon="6.18328">
        <ele>1089.6</ele>
        <time>2024-08-13T08:54:40Z</time>
      </trkpt>
      <trkpt lat="44.81981" lon="6.18327">
        <ele>1089.6</ele>
        <time>2024-08-13T08:54:41Z</time>
      </trkpt>
      <trkpt lat="44.81982" lon="6.18323">
        <ele>1089.6</ele>
        <time>2024-08-13T08:54:42Z</time>
      </trkpt>
      <trkpt lat="44.81982" lon="6.18323">
        <ele>1089.8</ele>
        <time>2024-08-13T08:54:43Z</time>
      </trkpt>
      <trkpt lat="44.81983" lon="6.18319">
        <ele>1089.8</ele>
        <time>2024-08-13T08:54:44Z</time>
      </trkpt>
      <trkpt lat="44.81983" lon="6.18319">
        <ele>1089.8</ele>
        <time>2024-08-13T08:54:45Z</time>
      </trkpt>
      <trkpt lat="44.81984" lon="6.18316">
        <ele>1089.6</ele>
        <time>2024-08-13T08:54:46Z</time>
      </trkpt>
      <trkpt lat="44.81984" lon="6.18316">
        <ele>1089.4</ele>
        <time>2024-08-13T08:54:47Z</time>
      </trkpt>
      <trkpt lat="44.81984" lon="6.18316">
        <ele>1089.4</ele>
        <time>2024-08-13T08:54:48Z</time>
      </trkpt>
      <trkpt lat="44.81984" lon="6.18312">
        <ele>1089.6</ele>
        <time>2024-08-13T08:54:49Z</time>
      </trkpt>
      <trkpt lat="44.81984" lon="6.18312">
        <ele>1089.6</ele>
        <time>2024-08-13T08:54:50Z</time>
      </trkpt>
      <trkpt lat="44.81985" lon="6.18308">
        <ele>1089.4</ele>
        <time>2024-08-13T08:54:51Z</time>
      </trkpt>
      <trkpt lat="44.81985" lon="6.18308">
        <ele>1089.4</ele>
        <time>2024-08-13T08:54:52Z</time>
      </trkpt>
      <trkpt lat="44.81986" lon="6.18303">
        <ele>1089.4</ele>
        <time>2024-08-13T08:54:53Z</time>
      </trkpt>
      <trkpt lat="44.81986" lon="6.18303">
        <ele>1089.4</ele>
        <time>2024-08-13T08:54:54Z</time>
      </trkpt>
      <trkpt lat="44.81987" lon="6.183">
        <ele>1089.2</ele>
        <time>2024-08-13T08:54:55Z</time>
      </trkpt>
      <trkpt lat="44.81987" lon="6.183">
        <ele>1089</ele>
        <time>2024-08-13T08:54:56Z</time>
      </trkpt>
      <trkpt lat="44.81989" lon="6.18297">
        <ele>1089</ele>
        <time>2024-08-13T08:54:57Z</time>
      </trkpt>
      <trkpt lat="44.81989" lon="6.18297">
        <ele>1089</ele>
        <time>2024-08-13T08:54:58Z</time>
      </trkpt>
      <trkpt lat="44.8199" lon="6.18293">
        <ele>1089</ele>
        <time>2024-08-13T08:54:59Z</time>
      </trkpt>
      <trkpt lat="44.8199" lon="6.18293">
        <ele>1088.8</ele>
        <time>2024-08-13T08:55:00Z</time>
      </trkpt>
      <trkpt lat="44.81991" lon="6.18289">
        <ele>1088.8</ele>
        <time>2024-08-13T08:55:01Z</time>
      </trkpt>
      <trkpt lat="44.81991" lon="6.18289">
        <ele>1088.8</ele>
        <time>2024-08-13T08:55:02Z</time>
      </trkpt>
      <trkpt lat="44.81992" lon="6.18285">
        <ele>1088.8</ele>
        <time>2024-08-13T08:55:03Z</time>
      </trkpt>
      <trkpt lat="44.81992" lon="6.18285">
        <ele>1088.8</ele>
        <time>2024-08-13T08:55:04Z</time>
      </trkpt>
      <trkpt lat="44.81994" lon="6.18282">
        <ele>1088.6</ele>
        <time>2024-08-13T08:55:05Z</time>
      </trkpt>
      <trkpt lat="44.81994" lon="6.18282">
        <ele>1088.6</ele>
        <time>2024-08-13T08:55:06Z</time>
      </trkpt>
      <trkpt lat="44.81995" lon="6.18279">
        <ele>1088.6</ele>
        <time>2024-08-13T08:55:07Z</time>
      </trkpt>
      <trkpt lat="44.81996" lon="6.18276">
        <ele>1088.6</ele>
        <time>2024-08-13T08:55:08Z</time>
      </trkpt>
      <trkpt lat="44.81996" lon="6.18276">
        <ele>1088.6</ele>
        <time>2024-08-13T08:55:09Z</time>
      </trkpt>
      <trkpt lat="44.81997" lon="6.18273">
        <ele>1088.6</ele>
        <time>2024-08-13T08:55:10Z</time>
      </trkpt>
      <trkpt lat="44.81997" lon="6.18273">
        <ele>1088.6</ele>
        <time>2024-08-13T08:55:11Z</time>
      </trkpt>
      <trkpt lat="44.81998" lon="6.18269">
        <ele>1088.8</ele>
        <time>2024-08-13T08:55:12Z</time>
      </trkpt>
      <trkpt lat="44.81998" lon="6.18269">
        <ele>1088.8</ele>
        <time>2024-08-13T08:55:13Z</time>
      </trkpt>
      <trkpt lat="44.81998" lon="6.18265">
        <ele>1088.8</ele>
        <time>2024-08-13T08:55:14Z</time>
      </trkpt>
      <trkpt lat="44.81998" lon="6.18265">
        <ele>1088.8</ele>
        <time>2024-08-13T08:55:15Z</time>
      </trkpt>
      <trkpt lat="44.81999" lon="6.18262">
        <ele>1088.8</ele>
        <time>2024-08-13T08:55:16Z</time>
      </trkpt>
      <trkpt lat="44.81999" lon="6.18262">
        <ele>1088.6</ele>
        <time>2024-08-13T08:55:17Z</time>
      </trkpt>
      <trkpt lat="44.82" lon="6.18258">
        <ele>1088.2</ele>
        <time>2024-08-13T08:55:18Z</time>
      </trkpt>
      <trkpt lat="44.82" lon="6.18258">
        <ele>1088.2</ele>
        <time>2024-08-13T08:55:19Z</time>
      </trkpt>
      <trkpt lat="44.82001" lon="6.18255">
        <ele>1088.4</ele>
        <time>2024-08-13T08:55:20Z</time>
      </trkpt>
      <trkpt lat="44.82001" lon="6.18255">
        <ele>1088.4</ele>
        <time>2024-08-13T08:55:21Z</time>
      </trkpt>
      <trkpt lat="44.82002" lon="6.18251">
        <ele>1088.4</ele>
        <time>2024-08-13T08:55:22Z</time>
      </trkpt>
      <trkpt lat="44.82002" lon="6.18251">
        <ele>1088.2</ele>
        <time>2024-08-13T08:55:23Z</time>
      </trkpt>
      <trkpt lat="44.82003" lon="6.18247">
        <ele>1088.2</ele>
        <time>2024-08-13T08:55:24Z</time>
      </trkpt>
      <trkpt lat="44.82003" lon="6.18247">
        <ele>1088.4</ele>
        <time>2024-08-13T08:55:25Z</time>
      </trkpt>
      <trkpt lat="44.82004" lon="6.18244">
        <ele>1088.4</ele>
        <time>2024-08-13T08:55:26Z</time>
      </trkpt>
      <trkpt lat="44.82004" lon="6.18244">
        <ele>1088.2</ele>
        <time>2024-08-13T08:55:27Z</time>
      </trkpt>
      <trkpt lat="44.82004" lon="6.1824">
        <ele>1088</ele>
        <time>2024-08-13T08:55:28Z</time>
      </trkpt>
      <trkpt lat="44.82004" lon="6.1824">
        <ele>1088</ele>
        <time>2024-08-13T08:55:29Z</time>
      </trkpt>
      <trkpt lat="44.82004" lon="6.18235">
        <ele>1088.2</ele>
        <time>2024-08-13T08:55:30Z</time>
      </trkpt>
      <trkpt lat="44.82004" lon="6.18235">
        <ele>1088.2</ele>
        <time>2024-08-13T08:55:31Z</time>
      </trkpt>
      <trkpt lat="44.82005" lon="6.18231">
        <ele>1088.2</ele>
        <time>2024-08-13T08:55:32Z</time>
      </trkpt>
      <trkpt lat="44.82005" lon="6.18231">
        <ele>1088.4</ele>
        <time>2024-08-13T08:55:33Z</time>
      </trkpt>
      <trkpt lat="44.82006" lon="6.18228">
        <ele>1088.8</ele>
        <time>2024-08-13T08:55:34Z</time>
      </trkpt>
      <trkpt lat="44.82006" lon="6.18228">
        <ele>1088.8</ele>
        <time>2024-08-13T08:55:35Z</time>
      </trkpt>
      <trkpt lat="44.82007" lon="6.18224">
        <ele>1088.8</ele>
        <time>2024-08-13T08:55:36Z</time>
      </trkpt>
      <trkpt lat="44.82007" lon="6.18224">
        <ele>1088.4</ele>
        <time>2024-08-13T08:55:37Z</time>
      </trkpt>
      <trkpt lat="44.82008" lon="6.18221">
        <ele>1088.4</ele>
        <time>2024-08-13T08:55:38Z</time>
      </trkpt>
      <trkpt lat="44.82008" lon="6.18221">
        <ele>1088.4</ele>
        <time>2024-08-13T08:55:39Z</time>
      </trkpt>
      <trkpt lat="44.82008" lon="6.18217">
        <ele>1088.6</ele>
        <time>2024-08-13T08:55:40Z</time>
      </trkpt>
      <trkpt lat="44.82008" lon="6.18217">
        <ele>1088.6</ele>
        <time>2024-08-13T08:55:41Z</time>
      </trkpt>
      <trkpt lat="44.82009" lon="6.18213">
        <ele>1088.6</ele>
        <time>2024-08-13T08:55:42Z</time>
      </trkpt>
      <trkpt lat="44.82009" lon="6.18213">
        <ele>1088.6</ele>
        <time>2024-08-13T08:55:43Z</time>
      </trkpt>
      <trkpt lat="44.8201" lon="6.1821">
        <ele>1088.4</ele>
        <time>2024-08-13T08:55:44Z</time>
      </trkpt>
      <trkpt lat="44.8201" lon="6.1821">
        <ele>1088.4</ele>
        <time>2024-08-13T08:55:45Z</time>
      </trkpt>
      <trkpt lat="44.8201" lon="6.18206">
        <ele>1088.2</ele>
        <time>2024-08-13T08:55:46Z</time>
      </trkpt>
      <trkpt lat="44.8201" lon="6.18206">
        <ele>1088.2</ele>
        <time>2024-08-13T08:55:47Z</time>
      </trkpt>
      <trkpt lat="44.82008" lon="6.18202">
        <ele>1088.2</ele>
        <time>2024-08-13T08:55:48Z</time>
      </trkpt>
      <trkpt lat="44.82008" lon="6.18202">
        <ele>1088</ele>
        <time>2024-08-13T08:55:49Z</time>
      </trkpt>
      <trkpt lat="44.82006" lon="6.18199">
        <ele>1088</ele>
        <time>2024-08-13T08:55:50Z</time>
      </trkpt>
      <trkpt lat="44.82006" lon="6.18199">
        <ele>1088</ele>
        <time>2024-08-13T08:55:51Z</time>
      </trkpt>
      <trkpt lat="44.82005" lon="6.18196">
        <ele>1088</ele>
        <time>2024-08-13T08:55:52Z</time>
      </trkpt>
      <trkpt lat="44.82004" lon="6.18194">
        <ele>1088</ele>
        <time>2024-08-13T08:55:53Z</time>
      </trkpt>
      <trkpt lat="44.82004" lon="6.18194">
        <ele>1087.8</ele>
        <time>2024-08-13T08:55:54Z</time>
      </trkpt>
      <trkpt lat="44.82002" lon="6.18191">
        <ele>1087.8</ele>
        <time>2024-08-13T08:55:55Z</time>
      </trkpt>
      <trkpt lat="44.82002" lon="6.18191">
        <ele>1087.6</ele>
        <time>2024-08-13T08:55:56Z</time>
      </trkpt>
      <trkpt lat="44.82" lon="6.18189">
        <ele>1087.8</ele>
        <time>2024-08-13T08:55:57Z</time>
      </trkpt>
      <trkpt lat="44.82" lon="6.18189">
        <ele>1087.8</ele>
        <time>2024-08-13T08:55:58Z</time>
      </trkpt>
      <trkpt lat="44.81999" lon="6.18186">
        <ele>1087.8</ele>
        <time>2024-08-13T08:55:59Z</time>
      </trkpt>
      <trkpt lat="44.81999" lon="6.18186">
        <ele>1087.6</ele>
        <time>2024-08-13T08:56:00Z</time>
      </trkpt>
      <trkpt lat="44.81997" lon="6.18182">
        <ele>1087.4</ele>
        <time>2024-08-13T08:56:01Z</time>
      </trkpt>
      <trkpt lat="44.81997" lon="6.18182">
        <ele>1087.6</ele>
        <time>2024-08-13T08:56:02Z</time>
      </trkpt>
      <trkpt lat="44.81996" lon="6.18179">
        <ele>1087.6</ele>
        <time>2024-08-13T08:56:03Z</time>
      </trkpt>
      <trkpt lat="44.81996" lon="6.18179">
        <ele>1087.6</ele>
        <time>2024-08-13T08:56:04Z</time>
      </trkpt>
      <trkpt lat="44.81996" lon="6.18174">
        <ele>1087.4</ele>
        <time>2024-08-13T08:56:05Z</time>
      </trkpt>
      <trkpt lat="44.81996" lon="6.18174">
        <ele>1087.4</ele>
        <time>2024-08-13T08:56:06Z</time>
      </trkpt>
      <trkpt lat="44.81996" lon="6.18171">
        <ele>1087.4</ele>
        <time>2024-08-13T08:56:07Z</time>
      </trkpt>
      <trkpt lat="44.81996" lon="6.18171">
        <ele>1087.4</ele>
        <time>2024-08-13T08:56:08Z</time>
      </trkpt>
      <trkpt lat="44.81995" lon="6.18166">
        <ele>1087.4</ele>
        <time>2024-08-13T08:56:09Z</time>
      </trkpt>
      <trkpt lat="44.81995" lon="6.18166">
        <ele>1087.4</ele>
        <time>2024-08-13T08:56:10Z</time>
      </trkpt>
      <trkpt lat="44.81995" lon="6.18163">
        <ele>1087.4</ele>
        <time>2024-08-13T08:56:11Z</time>
      </trkpt>
      <trkpt lat="44.81995" lon="6.18163">
        <ele>1087.4</ele>
        <time>2024-08-13T08:56:12Z</time>
      </trkpt>
      <trkpt lat="44.81995" lon="6.18159">
        <ele>1087.2</ele>
        <time>2024-08-13T08:56:13Z</time>
      </trkpt>
      <trkpt lat="44.81995" lon="6.18159">
        <ele>1087.2</ele>
        <time>2024-08-13T08:56:14Z</time>
      </trkpt>
      <trkpt lat="44.81996" lon="6.18155">
        <ele>1087.4</ele>
        <time>2024-08-13T08:56:15Z</time>
      </trkpt>
      <trkpt lat="44.81996" lon="6.18155">
        <ele>1087.4</ele>
        <time>2024-08-13T08:56:16Z</time>
      </trkpt>
      <trkpt lat="44.81996" lon="6.18151">
        <ele>1087.4</ele>
        <time>2024-08-13T08:56:17Z</time>
      </trkpt>
      <trkpt lat="44.81996" lon="6.18151">
        <ele>1087.4</ele>
        <time>2024-08-13T08:56:18Z</time>
      </trkpt>
      <trkpt lat="44.81995" lon="6.18147">
        <ele>1087.4</ele>
        <time>2024-08-13T08:56:19Z</time>
      </trkpt>
      <trkpt lat="44.81995" lon="6.18147">
        <ele>1087.2</ele>
        <time>2024-08-13T08:56:20Z</time>
      </trkpt>
      <trkpt lat="44.81996" lon="6.18143">
        <ele>1087.2</ele>
        <time>2024-08-13T08:56:21Z</time>
      </trkpt>
      <trkpt lat="44.81996" lon="6.18143">
        <ele>1087.2</ele>
        <time>2024-08-13T08:56:22Z</time>
      </trkpt>
      <trkpt lat="44.81997" lon="6.18138">
        <ele>1087.4</ele>
        <time>2024-08-13T08:56:23Z</time>
      </trkpt>
      <trkpt lat="44.81997" lon="6.18138">
        <ele>1087.4</ele>
        <time>2024-08-13T08:56:24Z</time>
      </trkpt>
      <trkpt lat="44.81997" lon="6.18135">
        <ele>1087.2</ele>
        <time>2024-08-13T08:56:25Z</time>
      </trkpt>
      <trkpt lat="44.81997" lon="6.18135">
        <ele>1087.2</ele>
        <time>2024-08-13T08:56:26Z</time>
      </trkpt>
      <trkpt lat="44.81996" lon="6.18131">
        <ele>1087</ele>
        <time>2024-08-13T08:56:27Z</time>
      </trkpt>
      <trkpt lat="44.81996" lon="6.18131">
        <ele>1087</ele>
        <time>2024-08-13T08:56:28Z</time>
      </trkpt>
      <trkpt lat="44.81995" lon="6.18127">
        <ele>1087</ele>
        <time>2024-08-13T08:56:29Z</time>
      </trkpt>
      <trkpt lat="44.81995" lon="6.18127">
        <ele>1086.6</ele>
        <time>2024-08-13T08:56:30Z</time>
      </trkpt>
      <trkpt lat="44.81995" lon="6.18123">
        <ele>1086.6</ele>
        <time>2024-08-13T08:56:31Z</time>
      </trkpt>
      <trkpt lat="44.81995" lon="6.18123">
        <ele>1086.8</ele>
        <time>2024-08-13T08:56:32Z</time>
      </trkpt>
      <trkpt lat="44.81995" lon="6.18119">
        <ele>1086.8</ele>
        <time>2024-08-13T08:56:33Z</time>
      </trkpt>
      <trkpt lat="44.81995" lon="6.18119">
        <ele>1086.6</ele>
        <time>2024-08-13T08:56:34Z</time>
      </trkpt>
      <trkpt lat="44.81995" lon="6.18115">
        <ele>1086.6</ele>
        <time>2024-08-13T08:56:35Z</time>
      </trkpt>
      <trkpt lat="44.81995" lon="6.18115">
        <ele>1086.4</ele>
        <time>2024-08-13T08:56:36Z</time>
      </trkpt>
      <trkpt lat="44.81995" lon="6.18111">
        <ele>1086.4</ele>
        <time>2024-08-13T08:56:37Z</time>
      </trkpt>
      <trkpt lat="44.81995" lon="6.18111">
        <ele>1086.6</ele>
        <time>2024-08-13T08:56:38Z</time>
      </trkpt>
      <trkpt lat="44.81994" lon="6.18107">
        <ele>1086.6</ele>
        <time>2024-08-13T08:56:39Z</time>
      </trkpt>
      <trkpt lat="44.81994" lon="6.18107">
        <ele>1086.6</ele>
        <time>2024-08-13T08:56:40Z</time>
      </trkpt>
      <trkpt lat="44.81994" lon="6.18103">
        <ele>1086.6</ele>
        <time>2024-08-13T08:56:41Z</time>
      </trkpt>
      <trkpt lat="44.81994" lon="6.18103">
        <ele>1086.6</ele>
        <time>2024-08-13T08:56:42Z</time>
      </trkpt>
      <trkpt lat="44.81994" lon="6.181">
        <ele>1086.6</ele>
        <time>2024-08-13T08:56:43Z</time>
      </trkpt>
      <trkpt lat="44.81994" lon="6.181">
        <ele>1086.6</ele>
        <time>2024-08-13T08:56:44Z</time>
      </trkpt>
      <trkpt lat="44.81994" lon="6.18096">
        <ele>1086.8</ele>
        <time>2024-08-13T08:56:45Z</time>
      </trkpt>
      <trkpt lat="44.81994" lon="6.18096">
        <ele>1086.8</ele>
        <time>2024-08-13T08:56:46Z</time>
      </trkpt>
      <trkpt lat="44.81994" lon="6.18091">
        <ele>1086.8</ele>
        <time>2024-08-13T08:56:47Z</time>
      </trkpt>
      <trkpt lat="44.81994" lon="6.18091">
        <ele>1086.8</ele>
        <time>2024-08-13T08:56:48Z</time>
      </trkpt>
      <trkpt lat="44.81994" lon="6.18087">
        <ele>1086.8</ele>
        <time>2024-08-13T08:56:49Z</time>
      </trkpt>
      <trkpt lat="44.81994" lon="6.18087">
        <ele>1087</ele>
        <time>2024-08-13T08:56:50Z</time>
      </trkpt>
      <trkpt lat="44.81994" lon="6.18083">
        <ele>1087</ele>
        <time>2024-08-13T08:56:51Z</time>
      </trkpt>
      <trkpt lat="44.81994" lon="6.18083">
        <ele>1087</ele>
        <time>2024-08-13T08:56:52Z</time>
      </trkpt>
      <trkpt lat="44.81994" lon="6.1808">
        <ele>1086.6</ele>
        <time>2024-08-13T08:56:53Z</time>
      </trkpt>
      <trkpt lat="44.81994" lon="6.1808">
        <ele>1086.6</ele>
        <time>2024-08-13T08:56:54Z</time>
      </trkpt>
      <trkpt lat="44.81995" lon="6.18076">
        <ele>1086.8</ele>
        <time>2024-08-13T08:56:55Z</time>
      </trkpt>
      <trkpt lat="44.81995" lon="6.18076">
        <ele>1086.8</ele>
        <time>2024-08-13T08:56:56Z</time>
      </trkpt>
      <trkpt lat="44.81996" lon="6.18072">
        <ele>1086.8</ele>
        <time>2024-08-13T08:56:57Z</time>
      </trkpt>
      <trkpt lat="44.81996" lon="6.18072">
        <ele>1086.8</ele>
        <time>2024-08-13T08:56:58Z</time>
      </trkpt>
      <trkpt lat="44.81997" lon="6.18069">
        <ele>1086.6</ele>
        <time>2024-08-13T08:56:59Z</time>
      </trkpt>
      <trkpt lat="44.81997" lon="6.18069">
        <ele>1086.6</ele>
        <time>2024-08-13T08:57:00Z</time>
      </trkpt>
      <trkpt lat="44.81999" lon="6.18066">
        <ele>1086.6</ele>
        <time>2024-08-13T08:57:01Z</time>
      </trkpt>
      <trkpt lat="44.81999" lon="6.18066">
        <ele>1086.4</ele>
        <time>2024-08-13T08:57:02Z</time>
      </trkpt>
      <trkpt lat="44.82" lon="6.18062">
        <ele>1086.6</ele>
        <time>2024-08-13T08:57:03Z</time>
      </trkpt>
      <trkpt lat="44.82" lon="6.18062">
        <ele>1086.6</ele>
        <time>2024-08-13T08:57:04Z</time>
      </trkpt>
      <trkpt lat="44.82" lon="6.18058">
        <ele>1086.6</ele>
        <time>2024-08-13T08:57:05Z</time>
      </trkpt>
      <trkpt lat="44.82" lon="6.18058">
        <ele>1086.6</ele>
        <time>2024-08-13T08:57:06Z</time>
      </trkpt>
      <trkpt lat="44.82001" lon="6.18054">
        <ele>1086.6</ele>
        <time>2024-08-13T08:57:07Z</time>
      </trkpt>
      <trkpt lat="44.82001" lon="6.18054">
        <ele>1086.4</ele>
        <time>2024-08-13T08:57:08Z</time>
      </trkpt>
      <trkpt lat="44.82002" lon="6.18051">
        <ele>1086.2</ele>
        <time>2024-08-13T08:57:09Z</time>
      </trkpt>
      <trkpt lat="44.82002" lon="6.18051">
        <ele>1086.2</ele>
        <time>2024-08-13T08:57:10Z</time>
      </trkpt>
      <trkpt lat="44.82004" lon="6.18047">
        <ele>1086</ele>
        <time>2024-08-13T08:57:11Z</time>
      </trkpt>
      <trkpt lat="44.82004" lon="6.18047">
        <ele>1086</ele>
        <time>2024-08-13T08:57:12Z</time>
      </trkpt>
      <trkpt lat="44.82005" lon="6.18044">
        <ele>1085.8</ele>
        <time>2024-08-13T08:57:13Z</time>
      </trkpt>
      <trkpt lat="44.82005" lon="6.18044">
        <ele>1085.8</ele>
        <time>2024-08-13T08:57:14Z</time>
      </trkpt>
      <trkpt lat="44.82007" lon="6.18041">
        <ele>1085.8</ele>
        <time>2024-08-13T08:57:15Z</time>
      </trkpt>
      <trkpt lat="44.82007" lon="6.18041">
        <ele>1085.8</ele>
        <time>2024-08-13T08:57:16Z</time>
      </trkpt>
      <trkpt lat="44.82009" lon="6.18038">
        <ele>1085.8</ele>
        <time>2024-08-13T08:57:17Z</time>
      </trkpt>
      <trkpt lat="44.82009" lon="6.18038">
        <ele>1085.8</ele>
        <time>2024-08-13T08:57:18Z</time>
      </trkpt>
      <trkpt lat="44.82011" lon="6.18035">
        <ele>1085.8</ele>
        <time>2024-08-13T08:57:19Z</time>
      </trkpt>
      <trkpt lat="44.82011" lon="6.18035">
        <ele>1085.8</ele>
        <time>2024-08-13T08:57:20Z</time>
      </trkpt>
      <trkpt lat="44.82013" lon="6.18033">
        <ele>1085.8</ele>
        <time>2024-08-13T08:57:21Z</time>
      </trkpt>
      <trkpt lat="44.82013" lon="6.18033">
        <ele>1085.8</ele>
        <time>2024-08-13T08:57:22Z</time>
      </trkpt>
      <trkpt lat="44.82015" lon="6.18031">
        <ele>1085.8</ele>
        <time>2024-08-13T08:57:23Z</time>
      </trkpt>
      <trkpt lat="44.82015" lon="6.18031">
        <ele>1085.6</ele>
        <time>2024-08-13T08:57:24Z</time>
      </trkpt>
      <trkpt lat="44.82017" lon="6.18028">
        <ele>1085.4</ele>
        <time>2024-08-13T08:57:25Z</time>
      </trkpt>
      <trkpt lat="44.82017" lon="6.18028">
        <ele>1085.2</ele>
        <time>2024-08-13T08:57:26Z</time>
      </trkpt>
      <trkpt lat="44.82018" lon="6.18025">
        <ele>1085.2</ele>
        <time>2024-08-13T08:57:27Z</time>
      </trkpt>
      <trkpt lat="44.82018" lon="6.18025">
        <ele>1085.6</ele>
        <time>2024-08-13T08:57:28Z</time>
      </trkpt>
      <trkpt lat="44.8202" lon="6.18022">
        <ele>1085.6</ele>
        <time>2024-08-13T08:57:29Z</time>
      </trkpt>
      <trkpt lat="44.8202" lon="6.18022">
        <ele>1085.6</ele>
        <time>2024-08-13T08:57:30Z</time>
      </trkpt>
      <trkpt lat="44.82021" lon="6.18019">
        <ele>1085.4</ele>
        <time>2024-08-13T08:57:31Z</time>
      </trkpt>
      <trkpt lat="44.82021" lon="6.18019">
        <ele>1085.2</ele>
        <time>2024-08-13T08:57:32Z</time>
      </trkpt>
      <trkpt lat="44.82022" lon="6.18015">
        <ele>1085</ele>
        <time>2024-08-13T08:57:33Z</time>
      </trkpt>
      <trkpt lat="44.82024" lon="6.18013">
        <ele>1084.8</ele>
        <time>2024-08-13T08:57:34Z</time>
      </trkpt>
      <trkpt lat="44.82024" lon="6.18013">
        <ele>1084.8</ele>
        <time>2024-08-13T08:57:35Z</time>
      </trkpt>
      <trkpt lat="44.82025" lon="6.1801">
        <ele>1084.8</ele>
        <time>2024-08-13T08:57:36Z</time>
      </trkpt>
      <trkpt lat="44.82025" lon="6.1801">
        <ele>1084.8</ele>
        <time>2024-08-13T08:57:37Z</time>
      </trkpt>
      <trkpt lat="44.82027" lon="6.18007">
        <ele>1084.6</ele>
        <time>2024-08-13T08:57:38Z</time>
      </trkpt>
      <trkpt lat="44.82027" lon="6.18007">
        <ele>1084.4</ele>
        <time>2024-08-13T08:57:39Z</time>
      </trkpt>
      <trkpt lat="44.82029" lon="6.18004">
        <ele>1084.4</ele>
        <time>2024-08-13T08:57:40Z</time>
      </trkpt>
      <trkpt lat="44.82029" lon="6.18004">
        <ele>1084.4</ele>
        <time>2024-08-13T08:57:41Z</time>
      </trkpt>
      <trkpt lat="44.82029" lon="6.18004">
        <ele>1084.6</ele>
        <time>2024-08-13T08:57:42Z</time>
      </trkpt>
      <trkpt lat="44.8203" lon="6.18002">
        <ele>1084.6</ele>
        <time>2024-08-13T08:57:43Z</time>
      </trkpt>
      <trkpt lat="44.8203" lon="6.18002">
        <ele>1084.8</ele>
        <time>2024-08-13T08:57:44Z</time>
      </trkpt>
      <trkpt lat="44.8203" lon="6.18002">
        <ele>1085</ele>
        <time>2024-08-13T08:57:45Z</time>
      </trkpt>
      <trkpt lat="44.8203" lon="6.18002">
        <ele>1085</ele>
        <time>2024-08-13T08:57:46Z</time>
      </trkpt>
      <trkpt lat="44.8203" lon="6.18002">
        <ele>1085</ele>
        <time>2024-08-13T08:57:47Z</time>
      </trkpt>
      <trkpt lat="44.8203" lon="6.18002">
        <ele>1085.2</ele>
        <time>2024-08-13T08:57:48Z</time>
      </trkpt>
      <trkpt lat="44.8203" lon="6.18002">
        <ele>1085.2</ele>
        <time>2024-08-13T08:57:49Z</time>
      </trkpt>
      <trkpt lat="44.8203" lon="6.18002">
        <ele>1085</ele>
        <time>2024-08-13T08:57:50Z</time>
      </trkpt>
      <trkpt lat="44.8203" lon="6.18002">
        <ele>1084.8</ele>
        <time>2024-08-13T08:57:51Z</time>
      </trkpt>
      <trkpt lat="44.8203" lon="6.18002">
        <ele>1084.8</ele>
        <time>2024-08-13T08:57:52Z</time>
      </trkpt>
      <trkpt lat="44.8203" lon="6.18002">
        <ele>1084.8</ele>
        <time>2024-08-13T08:57:53Z</time>
      </trkpt>
      <trkpt lat="44.8203" lon="6.18002">
        <ele>1084.8</ele>
        <time>2024-08-13T08:57:54Z</time>
      </trkpt>
      <trkpt lat="44.8203" lon="6.18002">
        <ele>1085</ele>
        <time>2024-08-13T08:57:55Z</time>
      </trkpt>
      <trkpt lat="44.8203" lon="6.18002">
        <ele>1085</ele>
        <time>2024-08-13T08:57:56Z</time>
      </trkpt>
      <trkpt lat="44.8203" lon="6.18002">
        <ele>1084.6</ele>
        <time>2024-08-13T08:57:57Z</time>
      </trkpt>
      <trkpt lat="44.8203" lon="6.18002">
        <ele>1084.6</ele>
        <time>2024-08-13T08:57:58Z</time>
      </trkpt>
      <trkpt lat="44.8203" lon="6.18002">
        <ele>1084.8</ele>
        <time>2024-08-13T08:57:59Z</time>
      </trkpt>
      <trkpt lat="44.8203" lon="6.18002">
        <ele>1084.8</ele>
        <time>2024-08-13T08:58:00Z</time>
      </trkpt>
      <trkpt lat="44.8203" lon="6.18002">
        <ele>1085</ele>
        <time>2024-08-13T08:58:01Z</time>
      </trkpt>
      <trkpt lat="44.8203" lon="6.18002">
        <ele>1084.8</ele>
        <time>2024-08-13T08:58:02Z</time>
      </trkpt>
      <trkpt lat="44.8203" lon="6.18002">
        <ele>1084.8</ele>
        <time>2024-08-13T08:58:03Z</time>
      </trkpt>
      <trkpt lat="44.8203" lon="6.18002">
        <ele>1084.8</ele>
        <time>2024-08-13T08:58:04Z</time>
      </trkpt>
      <trkpt lat="44.8203" lon="6.18002">
        <ele>1084.8</ele>
        <time>2024-08-13T08:58:05Z</time>
      </trkpt>
      <trkpt lat="44.8203" lon="6.18002">
        <ele>1084.8</ele>
        <time>2024-08-13T08:58:06Z</time>
      </trkpt>
      <trkpt lat="44.8203" lon="6.18002">
        <ele>1084.6</ele>
        <time>2024-08-13T08:58:07Z</time>
      </trkpt>
      <trkpt lat="44.8203" lon="6.18002">
        <ele>1084.6</ele>
        <time>2024-08-13T08:58:08Z</time>
      </trkpt>
      <trkpt lat="44.8203" lon="6.18002">
        <ele>1084.8</ele>
        <time>2024-08-13T08:58:09Z</time>
      </trkpt>
      <trkpt lat="44.8203" lon="6.18002">
        <ele>1084.8</ele>
        <time>2024-08-13T08:58:10Z</time>
      </trkpt>
      <trkpt lat="44.8203" lon="6.18002">
        <ele>1085</ele>
        <time>2024-08-13T08:58:11Z</time>
      </trkpt>
      <trkpt lat="44.8203" lon="6.18002">
        <ele>1085.2</ele>
        <time>2024-08-13T08:58:12Z</time>
      </trkpt>
      <trkpt lat="44.8203" lon="6.18002">
        <ele>1085.2</ele>
        <time>2024-08-13T08:58:13Z</time>
      </trkpt>
      <trkpt lat="44.8203" lon="6.18002">
        <ele>1085.2</ele>
        <time>2024-08-13T08:58:14Z</time>
      </trkpt>
      <trkpt lat="44.8203" lon="6.18002">
        <ele>1085</ele>
        <time>2024-08-13T08:58:15Z</time>
      </trkpt>
      <trkpt lat="44.8203" lon="6.18002">
        <ele>1085</ele>
        <time>2024-08-13T08:58:16Z</time>
      </trkpt>
      <trkpt lat="44.82031" lon="6.17999">
        <ele>1084.6</ele>
        <time>2024-08-13T08:58:17Z</time>
      </trkpt>
      <trkpt lat="44.82032" lon="6.17996">
        <ele>1084.4</ele>
        <time>2024-08-13T08:58:18Z</time>
      </trkpt>
      <trkpt lat="44.82032" lon="6.17996">
        <ele>1084.4</ele>
        <time>2024-08-13T08:58:19Z</time>
      </trkpt>
      <trkpt lat="44.82033" lon="6.17992">
        <ele>1084.6</ele>
        <time>2024-08-13T08:58:20Z</time>
      </trkpt>
      <trkpt lat="44.82033" lon="6.17992">
        <ele>1084.6</ele>
        <time>2024-08-13T08:58:21Z</time>
      </trkpt>
      <trkpt lat="44.82034" lon="6.17989">
        <ele>1084.8</ele>
        <time>2024-08-13T08:58:22Z</time>
      </trkpt>
      <trkpt lat="44.82034" lon="6.17989">
        <ele>1084.8</ele>
        <time>2024-08-13T08:58:23Z</time>
      </trkpt>
      <trkpt lat="44.82034" lon="6.17989">
        <ele>1084.8</ele>
        <time>2024-08-13T08:58:24Z</time>
      </trkpt>
      <trkpt lat="44.82034" lon="6.17989">
        <ele>1085</ele>
        <time>2024-08-13T08:58:25Z</time>
      </trkpt>
      <trkpt lat="44.82034" lon="6.17989">
        <ele>1085.2</ele>
        <time>2024-08-13T08:58:26Z</time>
      </trkpt>
      <trkpt lat="44.82034" lon="6.17989">
        <ele>1085.2</ele>
        <time>2024-08-13T08:58:27Z</time>
      </trkpt>
      <trkpt lat="44.82034" lon="6.17989">
        <ele>1085.2</ele>
        <time>2024-08-13T08:58:28Z</time>
      </trkpt>
      <trkpt lat="44.82034" lon="6.17989">
        <ele>1085</ele>
        <time>2024-08-13T08:58:29Z</time>
      </trkpt>
      <trkpt lat="44.82034" lon="6.17989">
        <ele>1084.8</ele>
        <time>2024-08-13T08:58:30Z</time>
      </trkpt>
      <trkpt lat="44.82034" lon="6.17989">
        <ele>1084.8</ele>
        <time>2024-08-13T08:58:31Z</time>
      </trkpt>
      <trkpt lat="44.82034" lon="6.17989">
        <ele>1085</ele>
        <time>2024-08-13T08:58:32Z</time>
      </trkpt>
      <trkpt lat="44.82034" lon="6.17989">
        <ele>1085</ele>
        <time>2024-08-13T08:58:33Z</time>
      </trkpt>
      <trkpt lat="44.82034" lon="6.17989">
        <ele>1085</ele>
        <time>2024-08-13T08:58:34Z</time>
      </trkpt>
      <trkpt lat="44.82034" lon="6.17989">
        <ele>1085</ele>
        <time>2024-08-13T08:58:35Z</time>
      </trkpt>
      <trkpt lat="44.82034" lon="6.17989">
        <ele>1085</ele>
        <time>2024-08-13T08:58:36Z</time>
      </trkpt>
      <trkpt lat="44.82034" lon="6.17986">
        <ele>1085</ele>
        <time>2024-08-13T08:58:37Z</time>
      </trkpt>
      <trkpt lat="44.82034" lon="6.17986">
        <ele>1085</ele>
        <time>2024-08-13T08:58:38Z</time>
      </trkpt>
      <trkpt lat="44.82035" lon="6.17981">
        <ele>1085</ele>
        <time>2024-08-13T08:58:39Z</time>
      </trkpt>
      <trkpt lat="44.82035" lon="6.17979">
        <ele>1085</ele>
        <time>2024-08-13T08:58:40Z</time>
      </trkpt>
      <trkpt lat="44.82035" lon="6.17979">
        <ele>1084.8</ele>
        <time>2024-08-13T08:58:41Z</time>
      </trkpt>
      <trkpt lat="44.82037" lon="6.17974">
        <ele>1084.8</ele>
        <time>2024-08-13T08:58:42Z</time>
      </trkpt>
      <trkpt lat="44.82037" lon="6.17974">
        <ele>1084.8</ele>
        <time>2024-08-13T08:58:43Z</time>
      </trkpt>
      <trkpt lat="44.82039" lon="6.1797">
        <ele>1084.6</ele>
        <time>2024-08-13T08:58:44Z</time>
      </trkpt>
      <trkpt lat="44.82039" lon="6.1797">
        <ele>1084.6</ele>
        <time>2024-08-13T08:58:45Z</time>
      </trkpt>
      <trkpt lat="44.8204" lon="6.17967">
        <ele>1084.6</ele>
        <time>2024-08-13T08:58:46Z</time>
      </trkpt>
      <trkpt lat="44.8204" lon="6.17967">
        <ele>1084.6</ele>
        <time>2024-08-13T08:58:47Z</time>
      </trkpt>
      <trkpt lat="44.8204" lon="6.17963">
        <ele>1084.4</ele>
        <time>2024-08-13T08:58:48Z</time>
      </trkpt>
      <trkpt lat="44.8204" lon="6.17963">
        <ele>1084.4</ele>
        <time>2024-08-13T08:58:49Z</time>
      </trkpt>
      <trkpt lat="44.82041" lon="6.17959">
        <ele>1084.4</ele>
        <time>2024-08-13T08:58:50Z</time>
      </trkpt>
      <trkpt lat="44.82041" lon="6.17959">
        <ele>1084.2</ele>
        <time>2024-08-13T08:58:51Z</time>
      </trkpt>
      <trkpt lat="44.82042" lon="6.17954">
        <ele>1084.2</ele>
        <time>2024-08-13T08:58:52Z</time>
      </trkpt>
      <trkpt lat="44.82042" lon="6.17954">
        <ele>1084.2</ele>
        <time>2024-08-13T08:58:53Z</time>
      </trkpt>
      <trkpt lat="44.82044" lon="6.17951">
        <ele>1084.2</ele>
        <time>2024-08-13T08:58:54Z</time>
      </trkpt>
      <trkpt lat="44.82044" lon="6.17951">
        <ele>1084</ele>
        <time>2024-08-13T08:58:55Z</time>
      </trkpt>
      <trkpt lat="44.82045" lon="6.17947">
        <ele>1084</ele>
        <time>2024-08-13T08:58:56Z</time>
      </trkpt>
      <trkpt lat="44.82045" lon="6.17947">
        <ele>1084</ele>
        <time>2024-08-13T08:58:57Z</time>
      </trkpt>
      <trkpt lat="44.82047" lon="6.17944">
        <ele>1084</ele>
        <time>2024-08-13T08:58:58Z</time>
      </trkpt>
      <trkpt lat="44.82047" lon="6.17944">
        <ele>1084</ele>
        <time>2024-08-13T08:58:59Z</time>
      </trkpt>
      <trkpt lat="44.82048" lon="6.17939">
        <ele>1084</ele>
        <time>2024-08-13T08:59:00Z</time>
      </trkpt>
      <trkpt lat="44.82048" lon="6.17939">
        <ele>1084</ele>
        <time>2024-08-13T08:59:01Z</time>
      </trkpt>
      <trkpt lat="44.82048" lon="6.17935">
        <ele>1084</ele>
        <time>2024-08-13T08:59:02Z</time>
      </trkpt>
      <trkpt lat="44.82048" lon="6.17935">
        <ele>1084</ele>
        <time>2024-08-13T08:59:03Z</time>
      </trkpt>
      <trkpt lat="44.82049" lon="6.17931">
        <ele>1083.8</ele>
        <time>2024-08-13T08:59:04Z</time>
      </trkpt>
      <trkpt lat="44.82049" lon="6.17931">
        <ele>1083.8</ele>
        <time>2024-08-13T08:59:05Z</time>
      </trkpt>
      <trkpt lat="44.82049" lon="6.17927">
        <ele>1084</ele>
        <time>2024-08-13T08:59:06Z</time>
      </trkpt>
      <trkpt lat="44.82049" lon="6.17927">
        <ele>1084</ele>
        <time>2024-08-13T08:59:07Z</time>
      </trkpt>
      <trkpt lat="44.82049" lon="6.17923">
        <ele>1083.4</ele>
        <time>2024-08-13T08:59:08Z</time>
      </trkpt>
      <trkpt lat="44.82049" lon="6.17923">
        <ele>1083.4</ele>
        <time>2024-08-13T08:59:09Z</time>
      </trkpt>
      <trkpt lat="44.82049" lon="6.17919">
        <ele>1083.8</ele>
        <time>2024-08-13T08:59:10Z</time>
      </trkpt>
      <trkpt lat="44.82049" lon="6.17919">
        <ele>1083.8</ele>
        <time>2024-08-13T08:59:11Z</time>
      </trkpt>
      <trkpt lat="44.82048" lon="6.17915">
        <ele>1083.8</ele>
        <time>2024-08-13T08:59:12Z</time>
      </trkpt>
      <trkpt lat="44.82048" lon="6.17915">
        <ele>1084</ele>
        <time>2024-08-13T08:59:13Z</time>
      </trkpt>
      <trkpt lat="44.82048" lon="6.17911">
        <ele>1084.2</ele>
        <time>2024-08-13T08:59:14Z</time>
      </trkpt>
      <trkpt lat="44.82048" lon="6.17911">
        <ele>1084.2</ele>
        <time>2024-08-13T08:59:15Z</time>
      </trkpt>
      <trkpt lat="44.82048" lon="6.17907">
        <ele>1084.4</ele>
        <time>2024-08-13T08:59:16Z</time>
      </trkpt>
      <trkpt lat="44.82048" lon="6.17907">
        <ele>1084.6</ele>
        <time>2024-08-13T08:59:17Z</time>
      </trkpt>
      <trkpt lat="44.82047" lon="6.17903">
        <ele>1084.6</ele>
        <time>2024-08-13T08:59:18Z</time>
      </trkpt>
      <trkpt lat="44.82047" lon="6.17903">
        <ele>1084.4</ele>
        <time>2024-08-13T08:59:19Z</time>
      </trkpt>
      <trkpt lat="44.82046" lon="6.17899">
        <ele>1084.4</ele>
        <time>2024-08-13T08:59:20Z</time>
      </trkpt>
      <trkpt lat="44.82046" lon="6.17899">
        <ele>1084.4</ele>
        <time>2024-08-13T08:59:21Z</time>
      </trkpt>
      <trkpt lat="44.82046" lon="6.17895">
        <ele>1084.4</ele>
        <time>2024-08-13T08:59:22Z</time>
      </trkpt>
      <trkpt lat="44.82046" lon="6.17895">
        <ele>1084.4</ele>
        <time>2024-08-13T08:59:23Z</time>
      </trkpt>
      <trkpt lat="44.82046" lon="6.17891">
        <ele>1084.4</ele>
        <time>2024-08-13T08:59:24Z</time>
      </trkpt>
      <trkpt lat="44.82046" lon="6.17891">
        <ele>1084.4</ele>
        <time>2024-08-13T08:59:25Z</time>
      </trkpt>
      <trkpt lat="44.82046" lon="6.17888">
        <ele>1084.6</ele>
        <time>2024-08-13T08:59:26Z</time>
      </trkpt>
      <trkpt lat="44.82046" lon="6.17888">
        <ele>1084.6</ele>
        <time>2024-08-13T08:59:27Z</time>
      </trkpt>
      <trkpt lat="44.82046" lon="6.17885">
        <ele>1084.4</ele>
        <time>2024-08-13T08:59:28Z</time>
      </trkpt>
      <trkpt lat="44.82046" lon="6.17885">
        <ele>1084.4</ele>
        <time>2024-08-13T08:59:29Z</time>
      </trkpt>
      <trkpt lat="44.82046" lon="6.17882">
        <ele>1084.6</ele>
        <time>2024-08-13T08:59:30Z</time>
      </trkpt>
      <trkpt lat="44.82046" lon="6.17882">
        <ele>1085</ele>
        <time>2024-08-13T08:59:31Z</time>
      </trkpt>
      <trkpt lat="44.82046" lon="6.17879">
        <ele>1085</ele>
        <time>2024-08-13T08:59:32Z</time>
      </trkpt>
      <trkpt lat="44.82046" lon="6.17879">
        <ele>1085.4</ele>
        <time>2024-08-13T08:59:33Z</time>
      </trkpt>
      <trkpt lat="44.82046" lon="6.17875">
        <ele>1085.4</ele>
        <time>2024-08-13T08:59:34Z</time>
      </trkpt>
      <trkpt lat="44.82046" lon="6.17875">
        <ele>1085.4</ele>
        <time>2024-08-13T08:59:35Z</time>
      </trkpt>
      <trkpt lat="44.82045" lon="6.17871">
        <ele>1085.4</ele>
        <time>2024-08-13T08:59:36Z</time>
      </trkpt>
      <trkpt lat="44.82045" lon="6.17871">
        <ele>1085.2</ele>
        <time>2024-08-13T08:59:37Z</time>
      </trkpt>
      <trkpt lat="44.82045" lon="6.17868">
        <ele>1085.2</ele>
        <time>2024-08-13T08:59:38Z</time>
      </trkpt>
      <trkpt lat="44.82045" lon="6.17868">
        <ele>1085.2</ele>
        <time>2024-08-13T08:59:39Z</time>
      </trkpt>
      <trkpt lat="44.82045" lon="6.17865">
        <ele>1085.2</ele>
        <time>2024-08-13T08:59:40Z</time>
      </trkpt>
      <trkpt lat="44.82045" lon="6.17865">
        <ele>1085.2</ele>
        <time>2024-08-13T08:59:41Z</time>
      </trkpt>
      <trkpt lat="44.82045" lon="6.17861">
        <ele>1085.4</ele>
        <time>2024-08-13T08:59:42Z</time>
      </trkpt>
      <trkpt lat="44.82045" lon="6.17861">
        <ele>1085.2</ele>
        <time>2024-08-13T08:59:43Z</time>
      </trkpt>
      <trkpt lat="44.82045" lon="6.17858">
        <ele>1085.2</ele>
        <time>2024-08-13T08:59:44Z</time>
      </trkpt>
      <trkpt lat="44.82045" lon="6.17858">
        <ele>1084.8</ele>
        <time>2024-08-13T08:59:45Z</time>
      </trkpt>
      <trkpt lat="44.82044" lon="6.17855">
        <ele>1084.6</ele>
        <time>2024-08-13T08:59:46Z</time>
      </trkpt>
      <trkpt lat="44.82044" lon="6.17855">
        <ele>1084.6</ele>
        <time>2024-08-13T08:59:47Z</time>
      </trkpt>
      <trkpt lat="44.82044" lon="6.17851">
        <ele>1084.6</ele>
        <time>2024-08-13T08:59:48Z</time>
      </trkpt>
      <trkpt lat="44.82044" lon="6.17851">
        <ele>1084.6</ele>
        <time>2024-08-13T08:59:49Z</time>
      </trkpt>
      <trkpt lat="44.82043" lon="6.17847">
        <ele>1084.4</ele>
        <time>2024-08-13T08:59:50Z</time>
      </trkpt>
      <trkpt lat="44.82043" lon="6.17847">
        <ele>1084.2</ele>
        <time>2024-08-13T08:59:51Z</time>
      </trkpt>
      <trkpt lat="44.82042" lon="6.17843">
        <ele>1084.2</ele>
        <time>2024-08-13T08:59:52Z</time>
      </trkpt>
      <trkpt lat="44.82042" lon="6.17843">
        <ele>1084.2</ele>
        <time>2024-08-13T08:59:53Z</time>
      </trkpt>
      <trkpt lat="44.82041" lon="6.1784">
        <ele>1084</ele>
        <time>2024-08-13T08:59:54Z</time>
      </trkpt>
      <trkpt lat="44.82041" lon="6.1784">
        <ele>1084</ele>
        <time>2024-08-13T08:59:55Z</time>
      </trkpt>
      <trkpt lat="44.8204" lon="6.17836">
        <ele>1084</ele>
        <time>2024-08-13T08:59:56Z</time>
      </trkpt>
      <trkpt lat="44.8204" lon="6.17836">
        <ele>1084.4</ele>
        <time>2024-08-13T08:59:57Z</time>
      </trkpt>
      <trkpt lat="44.82038" lon="6.17832">
        <ele>1084.6</ele>
        <time>2024-08-13T08:59:58Z</time>
      </trkpt>
      <trkpt lat="44.82038" lon="6.17832">
        <ele>1084.6</ele>
        <time>2024-08-13T08:59:59Z</time>
      </trkpt>
      <trkpt lat="44.82038" lon="6.17829">
        <ele>1084.6</ele>
        <time>2024-08-13T09:00:00Z</time>
      </trkpt>
      <trkpt lat="44.82038" lon="6.17829">
        <ele>1084.6</ele>
        <time>2024-08-13T09:00:01Z</time>
      </trkpt>
      <trkpt lat="44.82036" lon="6.17826">
        <ele>1084.8</ele>
        <time>2024-08-13T09:00:02Z</time>
      </trkpt>
      <trkpt lat="44.82036" lon="6.17826">
        <ele>1084.8</ele>
        <time>2024-08-13T09:00:03Z</time>
      </trkpt>
      <trkpt lat="44.82036" lon="6.17822">
        <ele>1084.8</ele>
        <time>2024-08-13T09:00:04Z</time>
      </trkpt>
      <trkpt lat="44.82036" lon="6.17822">
        <ele>1084.6</ele>
        <time>2024-08-13T09:00:05Z</time>
      </trkpt>
      <trkpt lat="44.82035" lon="6.17818">
        <ele>1084.4</ele>
        <time>2024-08-13T09:00:06Z</time>
      </trkpt>
      <trkpt lat="44.82035" lon="6.17818">
        <ele>1084.2</ele>
        <time>2024-08-13T09:00:07Z</time>
      </trkpt>
      <trkpt lat="44.82034" lon="6.17814">
        <ele>1083.8</ele>
        <time>2024-08-13T09:00:08Z</time>
      </trkpt>
      <trkpt lat="44.82034" lon="6.17814">
        <ele>1083.4</ele>
        <time>2024-08-13T09:00:09Z</time>
      </trkpt>
      <trkpt lat="44.82033" lon="6.1781">
        <ele>1083.4</ele>
        <time>2024-08-13T09:00:10Z</time>
      </trkpt>
      <trkpt lat="44.82033" lon="6.1781">
        <ele>1083.2</ele>
        <time>2024-08-13T09:00:11Z</time>
      </trkpt>
      <trkpt lat="44.82032" lon="6.17806">
        <ele>1083</ele>
        <time>2024-08-13T09:00:12Z</time>
      </trkpt>
      <trkpt lat="44.82032" lon="6.17806">
        <ele>1082.8</ele>
        <time>2024-08-13T09:00:13Z</time>
      </trkpt>
      <trkpt lat="44.82031" lon="6.17801">
        <ele>1082.6</ele>
        <time>2024-08-13T09:00:14Z</time>
      </trkpt>
      <trkpt lat="44.82031" lon="6.17801">
        <ele>1082.6</ele>
        <time>2024-08-13T09:00:15Z</time>
      </trkpt>
      <trkpt lat="44.8203" lon="6.17797">
        <ele>1082.4</ele>
        <time>2024-08-13T09:00:16Z</time>
      </trkpt>
      <trkpt lat="44.8203" lon="6.17797">
        <ele>1082.2</ele>
        <time>2024-08-13T09:00:17Z</time>
      </trkpt>
      <trkpt lat="44.82029" lon="6.17793">
        <ele>1082.2</ele>
        <time>2024-08-13T09:00:18Z</time>
      </trkpt>
      <trkpt lat="44.82029" lon="6.17793">
        <ele>1082.2</ele>
        <time>2024-08-13T09:00:19Z</time>
      </trkpt>
      <trkpt lat="44.82029" lon="6.17788">
        <ele>1082.2</ele>
        <time>2024-08-13T09:00:20Z</time>
      </trkpt>
      <trkpt lat="44.82029" lon="6.17788">
        <ele>1082.2</ele>
        <time>2024-08-13T09:00:21Z</time>
      </trkpt>
      <trkpt lat="44.82028" lon="6.17784">
        <ele>1082.2</ele>
        <time>2024-08-13T09:00:22Z</time>
      </trkpt>
      <trkpt lat="44.82028" lon="6.17784">
        <ele>1082.2</ele>
        <time>2024-08-13T09:00:23Z</time>
      </trkpt>
      <trkpt lat="44.82028" lon="6.1778">
        <ele>1082</ele>
        <time>2024-08-13T09:00:24Z</time>
      </trkpt>
      <trkpt lat="44.82028" lon="6.1778">
        <ele>1082</ele>
        <time>2024-08-13T09:00:25Z</time>
      </trkpt>
      <trkpt lat="44.82028" lon="6.17776">
        <ele>1081.8</ele>
        <time>2024-08-13T09:00:26Z</time>
      </trkpt>
      <trkpt lat="44.82028" lon="6.17776">
        <ele>1081.8</ele>
        <time>2024-08-13T09:00:27Z</time>
      </trkpt>
      <trkpt lat="44.82027" lon="6.17772">
        <ele>1081.8</ele>
        <time>2024-08-13T09:00:28Z</time>
      </trkpt>
      <trkpt lat="44.82027" lon="6.17772">
        <ele>1081.8</ele>
        <time>2024-08-13T09:00:29Z</time>
      </trkpt>
      <trkpt lat="44.82026" lon="6.17768">
        <ele>1081.8</ele>
        <time>2024-08-13T09:00:30Z</time>
      </trkpt>
      <trkpt lat="44.82026" lon="6.17768">
        <ele>1081.8</ele>
        <time>2024-08-13T09:00:31Z</time>
      </trkpt>
      <trkpt lat="44.82025" lon="6.17764">
        <ele>1081.8</ele>
        <time>2024-08-13T09:00:32Z</time>
      </trkpt>
      <trkpt lat="44.82025" lon="6.17764">
        <ele>1081.6</ele>
        <time>2024-08-13T09:00:33Z</time>
      </trkpt>
      <trkpt lat="44.82025" lon="6.1776">
        <ele>1081.6</ele>
        <time>2024-08-13T09:00:34Z</time>
      </trkpt>
      <trkpt lat="44.82025" lon="6.1776">
        <ele>1081.6</ele>
        <time>2024-08-13T09:00:35Z</time>
      </trkpt>
      <trkpt lat="44.82026" lon="6.17757">
        <ele>1082</ele>
        <time>2024-08-13T09:00:36Z</time>
      </trkpt>
      <trkpt lat="44.82026" lon="6.17757">
        <ele>1082.2</ele>
        <time>2024-08-13T09:00:37Z</time>
      </trkpt>
      <trkpt lat="44.82028" lon="6.17754">
        <ele>1082.2</ele>
        <time>2024-08-13T09:00:38Z</time>
      </trkpt>
      <trkpt lat="44.82028" lon="6.17754">
        <ele>1082</ele>
        <time>2024-08-13T09:00:39Z</time>
      </trkpt>
      <trkpt lat="44.8203" lon="6.17751">
        <ele>1082</ele>
        <time>2024-08-13T09:00:40Z</time>
      </trkpt>
      <trkpt lat="44.82032" lon="6.17749">
        <ele>1082</ele>
        <time>2024-08-13T09:00:41Z</time>
      </trkpt>
      <trkpt lat="44.82034" lon="6.17748">
        <ele>1081.8</ele>
        <time>2024-08-13T09:00:42Z</time>
      </trkpt>
      <trkpt lat="44.82036" lon="6.17746">
        <ele>1081.8</ele>
        <time>2024-08-13T09:00:43Z</time>
      </trkpt>
      <trkpt lat="44.82036" lon="6.17746">
        <ele>1082</ele>
        <time>2024-08-13T09:00:44Z</time>
      </trkpt>
      <trkpt lat="44.82037" lon="6.17743">
        <ele>1082.2</ele>
        <time>2024-08-13T09:00:45Z</time>
      </trkpt>
      <trkpt lat="44.82038" lon="6.17742">
        <ele>1082.2</ele>
        <time>2024-08-13T09:00:46Z</time>
      </trkpt>
      <trkpt lat="44.8204" lon="6.1774">
        <ele>1082</ele>
        <time>2024-08-13T09:00:47Z</time>
      </trkpt>
      <trkpt lat="44.82041" lon="6.17739">
        <ele>1082</ele>
        <time>2024-08-13T09:00:48Z</time>
      </trkpt>
      <trkpt lat="44.82043" lon="6.17737">
        <ele>1082</ele>
        <time>2024-08-13T09:00:49Z</time>
      </trkpt>
      <trkpt lat="44.82043" lon="6.17737">
        <ele>1082</ele>
        <time>2024-08-13T09:00:50Z</time>
      </trkpt>
      <trkpt lat="44.82045" lon="6.17734">
        <ele>1082</ele>
        <time>2024-08-13T09:00:51Z</time>
      </trkpt>
      <trkpt lat="44.82045" lon="6.17734">
        <ele>1081.6</ele>
        <time>2024-08-13T09:00:52Z</time>
      </trkpt>
      <trkpt lat="44.82047" lon="6.1773">
        <ele>1081.6</ele>
        <time>2024-08-13T09:00:53Z</time>
      </trkpt>
      <trkpt lat="44.82047" lon="6.1773">
        <ele>1081.6</ele>
        <time>2024-08-13T09:00:54Z</time>
      </trkpt>
      <trkpt lat="44.82049" lon="6.17727">
        <ele>1081.6</ele>
        <time>2024-08-13T09:00:55Z</time>
      </trkpt>
      <trkpt lat="44.82049" lon="6.17727">
        <ele>1081.6</ele>
        <time>2024-08-13T09:00:56Z</time>
      </trkpt>
      <trkpt lat="44.8205" lon="6.17725">
        <ele>1081.6</ele>
        <time>2024-08-13T09:00:57Z</time>
      </trkpt>
      <trkpt lat="44.8205" lon="6.17725">
        <ele>1081.6</ele>
        <time>2024-08-13T09:00:58Z</time>
      </trkpt>
      <trkpt lat="44.82052" lon="6.17722">
        <ele>1081.4</ele>
        <time>2024-08-13T09:00:59Z</time>
      </trkpt>
      <trkpt lat="44.82052" lon="6.17722">
        <ele>1081.4</ele>
        <time>2024-08-13T09:01:00Z</time>
      </trkpt>
      <trkpt lat="44.82053" lon="6.17719">
        <ele>1081.4</ele>
        <time>2024-08-13T09:01:01Z</time>
      </trkpt>
      <trkpt lat="44.82053" lon="6.17719">
        <ele>1081.4</ele>
        <time>2024-08-13T09:01:02Z</time>
      </trkpt>
      <trkpt lat="44.82054" lon="6.17717">
        <ele>1081.4</ele>
        <time>2024-08-13T09:01:03Z</time>
      </trkpt>
      <trkpt lat="44.82056" lon="6.17715">
        <ele>1081.4</ele>
        <time>2024-08-13T09:01:04Z</time>
      </trkpt>
      <trkpt lat="44.82057" lon="6.17714">
        <ele>1081.4</ele>
        <time>2024-08-13T09:01:05Z</time>
      </trkpt>
      <trkpt lat="44.82057" lon="6.17714">
        <ele>1081.4</ele>
        <time>2024-08-13T09:01:06Z</time>
      </trkpt>
      <trkpt lat="44.8206" lon="6.17711">
        <ele>1081.4</ele>
        <time>2024-08-13T09:01:07Z</time>
      </trkpt>
      <trkpt lat="44.8206" lon="6.17711">
        <ele>1081.4</ele>
        <time>2024-08-13T09:01:08Z</time>
      </trkpt>
      <trkpt lat="44.82061" lon="6.17708">
        <ele>1081.4</ele>
        <time>2024-08-13T09:01:09Z</time>
      </trkpt>
      <trkpt lat="44.82062" lon="6.17706">
        <ele>1081.4</ele>
        <time>2024-08-13T09:01:10Z</time>
      </trkpt>
      <trkpt lat="44.82062" lon="6.17706">
        <ele>1081.4</ele>
        <time>2024-08-13T09:01:11Z</time>
      </trkpt>
      <trkpt lat="44.82062" lon="6.17702">
        <ele>1081.4</ele>
        <time>2024-08-13T09:01:12Z</time>
      </trkpt>
      <trkpt lat="44.82062" lon="6.17702">
        <ele>1081.4</ele>
        <time>2024-08-13T09:01:13Z</time>
      </trkpt>
      <trkpt lat="44.82062" lon="6.17698">
        <ele>1081.4</ele>
        <time>2024-08-13T09:01:14Z</time>
      </trkpt>
      <trkpt lat="44.82062" lon="6.17698">
        <ele>1081.4</ele>
        <time>2024-08-13T09:01:15Z</time>
      </trkpt>
      <trkpt lat="44.82063" lon="6.17694">
        <ele>1081.4</ele>
        <time>2024-08-13T09:01:16Z</time>
      </trkpt>
      <trkpt lat="44.82062" lon="6.17692">
        <ele>1081.2</ele>
        <time>2024-08-13T09:01:17Z</time>
      </trkpt>
      <trkpt lat="44.82062" lon="6.17692">
        <ele>1081.2</ele>
        <time>2024-08-13T09:01:18Z</time>
      </trkpt>
      <trkpt lat="44.82062" lon="6.17689">
        <ele>1081.4</ele>
        <time>2024-08-13T09:01:19Z</time>
      </trkpt>
      <trkpt lat="44.82062" lon="6.17689">
        <ele>1081.4</ele>
        <time>2024-08-13T09:01:20Z</time>
      </trkpt>
      <trkpt lat="44.82062" lon="6.17686">
        <ele>1081.4</ele>
        <time>2024-08-13T09:01:21Z</time>
      </trkpt>
      <trkpt lat="44.82062" lon="6.17686">
        <ele>1081.2</ele>
        <time>2024-08-13T09:01:22Z</time>
      </trkpt>
      <trkpt lat="44.82062" lon="6.17682">
        <ele>1081.4</ele>
        <time>2024-08-13T09:01:23Z</time>
      </trkpt>
      <trkpt lat="44.82062" lon="6.17682">
        <ele>1081.2</ele>
        <time>2024-08-13T09:01:24Z</time>
      </trkpt>
      <trkpt lat="44.82062" lon="6.17677">
        <ele>1081.4</ele>
        <time>2024-08-13T09:01:25Z</time>
      </trkpt>
      <trkpt lat="44.82062" lon="6.17677">
        <ele>1081.4</ele>
        <time>2024-08-13T09:01:26Z</time>
      </trkpt>
      <trkpt lat="44.82062" lon="6.17673">
        <ele>1081.4</ele>
        <time>2024-08-13T09:01:27Z</time>
      </trkpt>
      <trkpt lat="44.82062" lon="6.17673">
        <ele>1081.2</ele>
        <time>2024-08-13T09:01:28Z</time>
      </trkpt>
      <trkpt lat="44.82061" lon="6.17669">
        <ele>1081.2</ele>
        <time>2024-08-13T09:01:29Z</time>
      </trkpt>
      <trkpt lat="44.82061" lon="6.17669">
        <ele>1081.2</ele>
        <time>2024-08-13T09:01:30Z</time>
      </trkpt>
      <trkpt lat="44.82061" lon="6.17665">
        <ele>1081.4</ele>
        <time>2024-08-13T09:01:31Z</time>
      </trkpt>
      <trkpt lat="44.82061" lon="6.17665">
        <ele>1081.4</ele>
        <time>2024-08-13T09:01:32Z</time>
      </trkpt>
      <trkpt lat="44.82061" lon="6.17661">
        <ele>1081.4</ele>
        <time>2024-08-13T09:01:33Z</time>
      </trkpt>
      <trkpt lat="44.82061" lon="6.17661">
        <ele>1081.4</ele>
        <time>2024-08-13T09:01:34Z</time>
      </trkpt>
      <trkpt lat="44.82062" lon="6.17657">
        <ele>1081.4</ele>
        <time>2024-08-13T09:01:35Z</time>
      </trkpt>
      <trkpt lat="44.82062" lon="6.17657">
        <ele>1081.4</ele>
        <time>2024-08-13T09:01:36Z</time>
      </trkpt>
      <trkpt lat="44.82061" lon="6.17653">
        <ele>1081.4</ele>
        <time>2024-08-13T09:01:37Z</time>
      </trkpt>
      <trkpt lat="44.82061" lon="6.17653">
        <ele>1081.4</ele>
        <time>2024-08-13T09:01:38Z</time>
      </trkpt>
      <trkpt lat="44.82061" lon="6.17649">
        <ele>1081.4</ele>
        <time>2024-08-13T09:01:39Z</time>
      </trkpt>
      <trkpt lat="44.82061" lon="6.17649">
        <ele>1081.4</ele>
        <time>2024-08-13T09:01:40Z</time>
      </trkpt>
      <trkpt lat="44.82061" lon="6.17645">
        <ele>1081.6</ele>
        <time>2024-08-13T09:01:41Z</time>
      </trkpt>
      <trkpt lat="44.82061" lon="6.17645">
        <ele>1081.6</ele>
        <time>2024-08-13T09:01:42Z</time>
      </trkpt>
      <trkpt lat="44.8206" lon="6.17642">
        <ele>1081.4</ele>
        <time>2024-08-13T09:01:43Z</time>
      </trkpt>
      <trkpt lat="44.8206" lon="6.17642">
        <ele>1081.4</ele>
        <time>2024-08-13T09:01:44Z</time>
      </trkpt>
      <trkpt lat="44.8206" lon="6.17638">
        <ele>1081.4</ele>
        <time>2024-08-13T09:01:45Z</time>
      </trkpt>
      <trkpt lat="44.8206" lon="6.17638">
        <ele>1081.2</ele>
        <time>2024-08-13T09:01:46Z</time>
      </trkpt>
      <trkpt lat="44.82061" lon="6.17634">
        <ele>1081</ele>
        <time>2024-08-13T09:01:47Z</time>
      </trkpt>
      <trkpt lat="44.82061" lon="6.17634">
        <ele>1081</ele>
        <time>2024-08-13T09:01:48Z</time>
      </trkpt>
      <trkpt lat="44.82061" lon="6.1763">
        <ele>1080.8</ele>
        <time>2024-08-13T09:01:49Z</time>
      </trkpt>
      <trkpt lat="44.82061" lon="6.1763">
        <ele>1080.6</ele>
        <time>2024-08-13T09:01:50Z</time>
      </trkpt>
      <trkpt lat="44.82061" lon="6.17625">
        <ele>1080.4</ele>
        <time>2024-08-13T09:01:51Z</time>
      </trkpt>
      <trkpt lat="44.82061" lon="6.17625">
        <ele>1080.4</ele>
        <time>2024-08-13T09:01:52Z</time>
      </trkpt>
      <trkpt lat="44.82061" lon="6.17621">
        <ele>1080.2</ele>
        <time>2024-08-13T09:01:53Z</time>
      </trkpt>
      <trkpt lat="44.82061" lon="6.17621">
        <ele>1080.2</ele>
        <time>2024-08-13T09:01:54Z</time>
      </trkpt>
      <trkpt lat="44.8206" lon="6.17617">
        <ele>1080.2</ele>
        <time>2024-08-13T09:01:55Z</time>
      </trkpt>
      <trkpt lat="44.8206" lon="6.17617">
        <ele>1080.2</ele>
        <time>2024-08-13T09:01:56Z</time>
      </trkpt>
      <trkpt lat="44.82061" lon="6.17615">
        <ele>1080.2</ele>
        <time>2024-08-13T09:01:57Z</time>
      </trkpt>
      <trkpt lat="44.82061" lon="6.17615">
        <ele>1080.4</ele>
        <time>2024-08-13T09:01:58Z</time>
      </trkpt>
      <trkpt lat="44.82061" lon="6.17615">
        <ele>1080.4</ele>
        <time>2024-08-13T09:01:59Z</time>
      </trkpt>
      <trkpt lat="44.82061" lon="6.17611">
        <ele>1080.4</ele>
        <time>2024-08-13T09:02:00Z</time>
      </trkpt>
      <trkpt lat="44.82061" lon="6.17611">
        <ele>1080.4</ele>
        <time>2024-08-13T09:02:01Z</time>
      </trkpt>
      <trkpt lat="44.82061" lon="6.17607">
        <ele>1080.2</ele>
        <time>2024-08-13T09:02:02Z</time>
      </trkpt>
      <trkpt lat="44.82061" lon="6.17607">
        <ele>1080.2</ele>
        <time>2024-08-13T09:02:03Z</time>
      </trkpt>
      <trkpt lat="44.82062" lon="6.17604">
        <ele>1080.2</ele>
        <time>2024-08-13T09:02:04Z</time>
      </trkpt>
      <trkpt lat="44.82062" lon="6.17604">
        <ele>1080.2</ele>
        <time>2024-08-13T09:02:05Z</time>
      </trkpt>
      <trkpt lat="44.82061" lon="6.176">
        <ele>1080.2</ele>
        <time>2024-08-13T09:02:06Z</time>
      </trkpt>
      <trkpt lat="44.82061" lon="6.176">
        <ele>1080.4</ele>
        <time>2024-08-13T09:02:07Z</time>
      </trkpt>
      <trkpt lat="44.82062" lon="6.17596">
        <ele>1080.6</ele>
        <time>2024-08-13T09:02:08Z</time>
      </trkpt>
      <trkpt lat="44.82062" lon="6.17596">
        <ele>1080.4</ele>
        <time>2024-08-13T09:02:09Z</time>
      </trkpt>
      <trkpt lat="44.82063" lon="6.17593">
        <ele>1080.4</ele>
        <time>2024-08-13T09:02:10Z</time>
      </trkpt>
      <trkpt lat="44.82063" lon="6.17593">
        <ele>1080.4</ele>
        <time>2024-08-13T09:02:11Z</time>
      </trkpt>
      <trkpt lat="44.82064" lon="6.1759">
        <ele>1080.2</ele>
        <time>2024-08-13T09:02:12Z</time>
      </trkpt>
      <trkpt lat="44.82064" lon="6.1759">
        <ele>1080.2</ele>
        <time>2024-08-13T09:02:13Z</time>
      </trkpt>
      <trkpt lat="44.82067" lon="6.17588">
        <ele>1080.2</ele>
        <time>2024-08-13T09:02:14Z</time>
      </trkpt>
      <trkpt lat="44.82067" lon="6.17588">
        <ele>1080.2</ele>
        <time>2024-08-13T09:02:15Z</time>
      </trkpt>
      <trkpt lat="44.82068" lon="6.17584">
        <ele>1080.2</ele>
        <time>2024-08-13T09:02:16Z</time>
      </trkpt>
      <trkpt lat="44.82068" lon="6.17584">
        <ele>1080.2</ele>
        <time>2024-08-13T09:02:17Z</time>
      </trkpt>
      <trkpt lat="44.8207" lon="6.17581">
        <ele>1080.2</ele>
        <time>2024-08-13T09:02:18Z</time>
      </trkpt>
      <trkpt lat="44.8207" lon="6.17578">
        <ele>1080</ele>
        <time>2024-08-13T09:02:19Z</time>
      </trkpt>
      <trkpt lat="44.8207" lon="6.17578">
        <ele>1080</ele>
        <time>2024-08-13T09:02:20Z</time>
      </trkpt>
      <trkpt lat="44.8207" lon="6.17575">
        <ele>1080</ele>
        <time>2024-08-13T09:02:21Z</time>
      </trkpt>
      <trkpt lat="44.82071" lon="6.17573">
        <ele>1080</ele>
        <time>2024-08-13T09:02:22Z</time>
      </trkpt>
      <trkpt lat="44.82071" lon="6.17573">
        <ele>1079.8</ele>
        <time>2024-08-13T09:02:23Z</time>
      </trkpt>
      <trkpt lat="44.82071" lon="6.17568">
        <ele>1079.6</ele>
        <time>2024-08-13T09:02:24Z</time>
      </trkpt>
      <trkpt lat="44.8207" lon="6.17566">
        <ele>1079.4</ele>
        <time>2024-08-13T09:02:25Z</time>
      </trkpt>
      <trkpt lat="44.8207" lon="6.17566">
        <ele>1079.4</ele>
        <time>2024-08-13T09:02:26Z</time>
      </trkpt>
      <trkpt lat="44.8207" lon="6.17562">
        <ele>1079.4</ele>
        <time>2024-08-13T09:02:27Z</time>
      </trkpt>
      <trkpt lat="44.82069" lon="6.17559">
        <ele>1079.6</ele>
        <time>2024-08-13T09:02:28Z</time>
      </trkpt>
      <trkpt lat="44.82069" lon="6.17557">
        <ele>1079.6</ele>
        <time>2024-08-13T09:02:29Z</time>
      </trkpt>
      <trkpt lat="44.82069" lon="6.17554">
        <ele>1079.6</ele>
        <time>2024-08-13T09:02:30Z</time>
      </trkpt>
      <trkpt lat="44.82069" lon="6.17554">
        <ele>1079.4</ele>
        <time>2024-08-13T09:02:31Z</time>
      </trkpt>
      <trkpt lat="44.82069" lon="6.1755">
        <ele>1079.4</ele>
        <time>2024-08-13T09:02:32Z</time>
      </trkpt>
      <trkpt lat="44.82069" lon="6.1755">
        <ele>1079.2</ele>
        <time>2024-08-13T09:02:33Z</time>
      </trkpt>
      <trkpt lat="44.82069" lon="6.17546">
        <ele>1079.2</ele>
        <time>2024-08-13T09:02:34Z</time>
      </trkpt>
      <trkpt lat="44.82069" lon="6.17546">
        <ele>1079.2</ele>
        <time>2024-08-13T09:02:35Z</time>
      </trkpt>
      <trkpt lat="44.82069" lon="6.17543">
        <ele>1079.2</ele>
        <time>2024-08-13T09:02:36Z</time>
      </trkpt>
      <trkpt lat="44.82069" lon="6.17543">
        <ele>1079.2</ele>
        <time>2024-08-13T09:02:37Z</time>
      </trkpt>
      <trkpt lat="44.82068" lon="6.17538">
        <ele>1079.2</ele>
        <time>2024-08-13T09:02:38Z</time>
      </trkpt>
      <trkpt lat="44.82068" lon="6.17538">
        <ele>1079.4</ele>
        <time>2024-08-13T09:02:39Z</time>
      </trkpt>
      <trkpt lat="44.82068" lon="6.17534">
        <ele>1079.4</ele>
        <time>2024-08-13T09:02:40Z</time>
      </trkpt>
      <trkpt lat="44.82068" lon="6.17534">
        <ele>1079.4</ele>
        <time>2024-08-13T09:02:41Z</time>
      </trkpt>
      <trkpt lat="44.82068" lon="6.17531">
        <ele>1079.4</ele>
        <time>2024-08-13T09:02:42Z</time>
      </trkpt>
      <trkpt lat="44.82068" lon="6.17531">
        <ele>1079</ele>
        <time>2024-08-13T09:02:43Z</time>
      </trkpt>
      <trkpt lat="44.82068" lon="6.17528">
        <ele>1079</ele>
        <time>2024-08-13T09:02:44Z</time>
      </trkpt>
      <trkpt lat="44.82068" lon="6.17528">
        <ele>1079</ele>
        <time>2024-08-13T09:02:45Z</time>
      </trkpt>
      <trkpt lat="44.82068" lon="6.17525">
        <ele>1079</ele>
        <time>2024-08-13T09:02:46Z</time>
      </trkpt>
      <trkpt lat="44.82068" lon="6.17525">
        <ele>1079.2</ele>
        <time>2024-08-13T09:02:47Z</time>
      </trkpt>
      <trkpt lat="44.82069" lon="6.17522">
        <ele>1079</ele>
        <time>2024-08-13T09:02:48Z</time>
      </trkpt>
      <trkpt lat="44.82069" lon="6.17522">
        <ele>1079</ele>
        <time>2024-08-13T09:02:49Z</time>
      </trkpt>
      <trkpt lat="44.8207" lon="6.17518">
        <ele>1079</ele>
        <time>2024-08-13T09:02:50Z</time>
      </trkpt>
      <trkpt lat="44.8207" lon="6.17518">
        <ele>1079</ele>
        <time>2024-08-13T09:02:51Z</time>
      </trkpt>
      <trkpt lat="44.82072" lon="6.17515">
        <ele>1079</ele>
        <time>2024-08-13T09:02:52Z</time>
      </trkpt>
      <trkpt lat="44.82072" lon="6.17515">
        <ele>1079.2</ele>
        <time>2024-08-13T09:02:53Z</time>
      </trkpt>
      <trkpt lat="44.82072" lon="6.17511">
        <ele>1079.4</ele>
        <time>2024-08-13T09:02:54Z</time>
      </trkpt>
      <trkpt lat="44.82072" lon="6.17511">
        <ele>1079.4</ele>
        <time>2024-08-13T09:02:55Z</time>
      </trkpt>
      <trkpt lat="44.82072" lon="6.17507">
        <ele>1079</ele>
        <time>2024-08-13T09:02:56Z</time>
      </trkpt>
      <trkpt lat="44.82072" lon="6.17507">
        <ele>1079</ele>
        <time>2024-08-13T09:02:57Z</time>
      </trkpt>
      <trkpt lat="44.82073" lon="6.17503">
        <ele>1079.2</ele>
        <time>2024-08-13T09:02:58Z</time>
      </trkpt>
      <trkpt lat="44.82073" lon="6.17503">
        <ele>1079.2</ele>
        <time>2024-08-13T09:02:59Z</time>
      </trkpt>
      <trkpt lat="44.82072" lon="6.17499">
        <ele>1079</ele>
        <time>2024-08-13T09:03:00Z</time>
      </trkpt>
      <trkpt lat="44.82072" lon="6.17499">
        <ele>1079</ele>
        <time>2024-08-13T09:03:01Z</time>
      </trkpt>
      <trkpt lat="44.82072" lon="6.17495">
        <ele>1079.2</ele>
        <time>2024-08-13T09:03:02Z</time>
      </trkpt>
      <trkpt lat="44.82072" lon="6.17495">
        <ele>1079.2</ele>
        <time>2024-08-13T09:03:03Z</time>
      </trkpt>
      <trkpt lat="44.82072" lon="6.17492">
        <ele>1079</ele>
        <time>2024-08-13T09:03:04Z</time>
      </trkpt>
      <trkpt lat="44.82072" lon="6.17492">
        <ele>1079</ele>
        <time>2024-08-13T09:03:05Z</time>
      </trkpt>
      <trkpt lat="44.82072" lon="6.17488">
        <ele>1079</ele>
        <time>2024-08-13T09:03:06Z</time>
      </trkpt>
      <trkpt lat="44.82072" lon="6.17488">
        <ele>1079</ele>
        <time>2024-08-13T09:03:07Z</time>
      </trkpt>
      <trkpt lat="44.82072" lon="6.17485">
        <ele>1079</ele>
        <time>2024-08-13T09:03:08Z</time>
      </trkpt>
      <trkpt lat="44.82072" lon="6.17485">
        <ele>1078.8</ele>
        <time>2024-08-13T09:03:09Z</time>
      </trkpt>
      <trkpt lat="44.82072" lon="6.17481">
        <ele>1078.8</ele>
        <time>2024-08-13T09:03:10Z</time>
      </trkpt>
      <trkpt lat="44.82072" lon="6.17481">
        <ele>1078.8</ele>
        <time>2024-08-13T09:03:11Z</time>
      </trkpt>
      <trkpt lat="44.82073" lon="6.17478">
        <ele>1078.8</ele>
        <time>2024-08-13T09:03:12Z</time>
      </trkpt>
      <trkpt lat="44.82073" lon="6.17478">
        <ele>1078.8</ele>
        <time>2024-08-13T09:03:13Z</time>
      </trkpt>
      <trkpt lat="44.82074" lon="6.17474">
        <ele>1078.8</ele>
        <time>2024-08-13T09:03:14Z</time>
      </trkpt>
      <trkpt lat="44.82074" lon="6.17474">
        <ele>1078.8</ele>
        <time>2024-08-13T09:03:15Z</time>
      </trkpt>
      <trkpt lat="44.82073" lon="6.1747">
        <ele>1078.8</ele>
        <time>2024-08-13T09:03:16Z</time>
      </trkpt>
      <trkpt lat="44.82073" lon="6.1747">
        <ele>1078.8</ele>
        <time>2024-08-13T09:03:17Z</time>
      </trkpt>
      <trkpt lat="44.82072" lon="6.17466">
        <ele>1078.8</ele>
        <time>2024-08-13T09:03:18Z</time>
      </trkpt>
      <trkpt lat="44.82072" lon="6.17466">
        <ele>1079</ele>
        <time>2024-08-13T09:03:19Z</time>
      </trkpt>
      <trkpt lat="44.8207" lon="6.17463">
        <ele>1079</ele>
        <time>2024-08-13T09:03:20Z</time>
      </trkpt>
      <trkpt lat="44.8207" lon="6.17463">
        <ele>1078.8</ele>
        <time>2024-08-13T09:03:21Z</time>
      </trkpt>
      <trkpt lat="44.82068" lon="6.17459">
        <ele>1078.6</ele>
        <time>2024-08-13T09:03:22Z</time>
      </trkpt>
      <trkpt lat="44.82068" lon="6.17459">
        <ele>1078.4</ele>
        <time>2024-08-13T09:03:23Z</time>
      </trkpt>
      <trkpt lat="44.82067" lon="6.17457">
        <ele>1078.4</ele>
        <time>2024-08-13T09:03:24Z</time>
      </trkpt>
      <trkpt lat="44.82067" lon="6.17457">
        <ele>1078.2</ele>
        <time>2024-08-13T09:03:25Z</time>
      </trkpt>
      <trkpt lat="44.82066" lon="6.17453">
        <ele>1078.2</ele>
        <time>2024-08-13T09:03:26Z</time>
      </trkpt>
      <trkpt lat="44.82066" lon="6.17453">
        <ele>1078.2</ele>
        <time>2024-08-13T09:03:27Z</time>
      </trkpt>
      <trkpt lat="44.82066" lon="6.1745">
        <ele>1078</ele>
        <time>2024-08-13T09:03:28Z</time>
      </trkpt>
      <trkpt lat="44.82066" lon="6.1745">
        <ele>1078</ele>
        <time>2024-08-13T09:03:29Z</time>
      </trkpt>
      <trkpt lat="44.82066" lon="6.17446">
        <ele>1078</ele>
        <time>2024-08-13T09:03:30Z</time>
      </trkpt>
      <trkpt lat="44.82066" lon="6.17446">
        <ele>1078</ele>
        <time>2024-08-13T09:03:31Z</time>
      </trkpt>
      <trkpt lat="44.82066" lon="6.17442">
        <ele>1077.8</ele>
        <time>2024-08-13T09:03:32Z</time>
      </trkpt>
      <trkpt lat="44.82066" lon="6.17442">
        <ele>1077.8</ele>
        <time>2024-08-13T09:03:33Z</time>
      </trkpt>
      <trkpt lat="44.82065" lon="6.17438">
        <ele>1077.8</ele>
        <time>2024-08-13T09:03:34Z</time>
      </trkpt>
      <trkpt lat="44.82065" lon="6.17438">
        <ele>1077.8</ele>
        <time>2024-08-13T09:03:35Z</time>
      </trkpt>
      <trkpt lat="44.82065" lon="6.17435">
        <ele>1077.6</ele>
        <time>2024-08-13T09:03:36Z</time>
      </trkpt>
      <trkpt lat="44.82065" lon="6.17435">
        <ele>1077.4</ele>
        <time>2024-08-13T09:03:37Z</time>
      </trkpt>
      <trkpt lat="44.82066" lon="6.17432">
        <ele>1077.4</ele>
        <time>2024-08-13T09:03:38Z</time>
      </trkpt>
      <trkpt lat="44.82066" lon="6.17432">
        <ele>1077.4</ele>
        <time>2024-08-13T09:03:39Z</time>
      </trkpt>
      <trkpt lat="44.82066" lon="6.17428">
        <ele>1077.4</ele>
        <time>2024-08-13T09:03:40Z</time>
      </trkpt>
      <trkpt lat="44.82066" lon="6.17428">
        <ele>1077.4</ele>
        <time>2024-08-13T09:03:41Z</time>
      </trkpt>
      <trkpt lat="44.82066" lon="6.17423">
        <ele>1077.4</ele>
        <time>2024-08-13T09:03:42Z</time>
      </trkpt>
      <trkpt lat="44.82066" lon="6.17423">
        <ele>1077.6</ele>
        <time>2024-08-13T09:03:43Z</time>
      </trkpt>
      <trkpt lat="44.82066" lon="6.17418">
        <ele>1077.6</ele>
        <time>2024-08-13T09:03:44Z</time>
      </trkpt>
      <trkpt lat="44.82066" lon="6.17418">
        <ele>1077.6</ele>
        <time>2024-08-13T09:03:45Z</time>
      </trkpt>
      <trkpt lat="44.82068" lon="6.17415">
        <ele>1077.4</ele>
        <time>2024-08-13T09:03:46Z</time>
      </trkpt>
      <trkpt lat="44.82068" lon="6.17415">
        <ele>1077.6</ele>
        <time>2024-08-13T09:03:47Z</time>
      </trkpt>
      <trkpt lat="44.82069" lon="6.17412">
        <ele>1077.6</ele>
        <time>2024-08-13T09:03:48Z</time>
      </trkpt>
      <trkpt lat="44.82069" lon="6.17412">
        <ele>1077.8</ele>
        <time>2024-08-13T09:03:49Z</time>
      </trkpt>
      <trkpt lat="44.82071" lon="6.17408">
        <ele>1077.8</ele>
        <time>2024-08-13T09:03:50Z</time>
      </trkpt>
      <trkpt lat="44.82071" lon="6.17408">
        <ele>1077.4</ele>
        <time>2024-08-13T09:03:51Z</time>
      </trkpt>
      <trkpt lat="44.82073" lon="6.17407">
        <ele>1077.4</ele>
        <time>2024-08-13T09:03:52Z</time>
      </trkpt>
      <trkpt lat="44.82073" lon="6.17407">
        <ele>1077.4</ele>
        <time>2024-08-13T09:03:53Z</time>
      </trkpt>
      <trkpt lat="44.82074" lon="6.17404">
        <ele>1077.4</ele>
        <time>2024-08-13T09:03:54Z</time>
      </trkpt>
      <trkpt lat="44.82074" lon="6.17404">
        <ele>1077.4</ele>
        <time>2024-08-13T09:03:55Z</time>
      </trkpt>
      <trkpt lat="44.82075" lon="6.17401">
        <ele>1077.4</ele>
        <time>2024-08-13T09:03:56Z</time>
      </trkpt>
      <trkpt lat="44.82075" lon="6.17401">
        <ele>1077.4</ele>
        <time>2024-08-13T09:03:57Z</time>
      </trkpt>
      <trkpt lat="44.82077" lon="6.17398">
        <ele>1077.4</ele>
        <time>2024-08-13T09:03:58Z</time>
      </trkpt>
      <trkpt lat="44.82077" lon="6.17398">
        <ele>1077.4</ele>
        <time>2024-08-13T09:03:59Z</time>
      </trkpt>
      <trkpt lat="44.82079" lon="6.17395">
        <ele>1077.4</ele>
        <time>2024-08-13T09:04:00Z</time>
      </trkpt>
      <trkpt lat="44.82079" lon="6.17395">
        <ele>1077.2</ele>
        <time>2024-08-13T09:04:01Z</time>
      </trkpt>
      <trkpt lat="44.82081" lon="6.17393">
        <ele>1077.2</ele>
        <time>2024-08-13T09:04:02Z</time>
      </trkpt>
      <trkpt lat="44.82081" lon="6.17393">
        <ele>1077.2</ele>
        <time>2024-08-13T09:04:03Z</time>
      </trkpt>
      <trkpt lat="44.82082" lon="6.1739">
        <ele>1077.2</ele>
        <time>2024-08-13T09:04:04Z</time>
      </trkpt>
      <trkpt lat="44.82082" lon="6.1739">
        <ele>1077.4</ele>
        <time>2024-08-13T09:04:05Z</time>
      </trkpt>
      <trkpt lat="44.82084" lon="6.17386">
        <ele>1077.4</ele>
        <time>2024-08-13T09:04:06Z</time>
      </trkpt>
      <trkpt lat="44.82084" lon="6.17386">
        <ele>1077.4</ele>
        <time>2024-08-13T09:04:07Z</time>
      </trkpt>
      <trkpt lat="44.82085" lon="6.17382">
        <ele>1077.4</ele>
        <time>2024-08-13T09:04:08Z</time>
      </trkpt>
      <trkpt lat="44.82085" lon="6.17382">
        <ele>1077.2</ele>
        <time>2024-08-13T09:04:09Z</time>
      </trkpt>
      <trkpt lat="44.82087" lon="6.17379">
        <ele>1077.2</ele>
        <time>2024-08-13T09:04:10Z</time>
      </trkpt>
      <trkpt lat="44.82087" lon="6.17379">
        <ele>1077</ele>
        <time>2024-08-13T09:04:11Z</time>
      </trkpt>
      <trkpt lat="44.82088" lon="6.17376">
        <ele>1077</ele>
        <time>2024-08-13T09:04:12Z</time>
      </trkpt>
      <trkpt lat="44.82088" lon="6.17376">
        <ele>1077.2</ele>
        <time>2024-08-13T09:04:13Z</time>
      </trkpt>
      <trkpt lat="44.8209" lon="6.17372">
        <ele>1077.2</ele>
        <time>2024-08-13T09:04:14Z</time>
      </trkpt>
      <trkpt lat="44.8209" lon="6.17372">
        <ele>1077.2</ele>
        <time>2024-08-13T09:04:15Z</time>
      </trkpt>
      <trkpt lat="44.8209" lon="6.17369">
        <ele>1077</ele>
        <time>2024-08-13T09:04:16Z</time>
      </trkpt>
      <trkpt lat="44.8209" lon="6.17369">
        <ele>1077</ele>
        <time>2024-08-13T09:04:17Z</time>
      </trkpt>
      <trkpt lat="44.82092" lon="6.17367">
        <ele>1076.8</ele>
        <time>2024-08-13T09:04:18Z</time>
      </trkpt>
      <trkpt lat="44.82092" lon="6.17367">
        <ele>1076.8</ele>
        <time>2024-08-13T09:04:19Z</time>
      </trkpt>
      <trkpt lat="44.82093" lon="6.17365">
        <ele>1077</ele>
        <time>2024-08-13T09:04:20Z</time>
      </trkpt>
      <trkpt lat="44.82093" lon="6.17365">
        <ele>1077</ele>
        <time>2024-08-13T09:04:21Z</time>
      </trkpt>
      <trkpt lat="44.82095" lon="6.17361">
        <ele>1077.2</ele>
        <time>2024-08-13T09:04:22Z</time>
      </trkpt>
      <trkpt lat="44.82095" lon="6.17361">
        <ele>1077.2</ele>
        <time>2024-08-13T09:04:23Z</time>
      </trkpt>
      <trkpt lat="44.82096" lon="6.17358">
        <ele>1076.8</ele>
        <time>2024-08-13T09:04:24Z</time>
      </trkpt>
      <trkpt lat="44.82097" lon="6.17356">
        <ele>1076.8</ele>
        <time>2024-08-13T09:04:25Z</time>
      </trkpt>
      <trkpt lat="44.82097" lon="6.17356">
        <ele>1076.8</ele>
        <time>2024-08-13T09:04:26Z</time>
      </trkpt>
      <trkpt lat="44.82098" lon="6.17353">
        <ele>1076.8</ele>
        <time>2024-08-13T09:04:27Z</time>
      </trkpt>
      <trkpt lat="44.82099" lon="6.17351">
        <ele>1076.8</ele>
        <time>2024-08-13T09:04:28Z</time>
      </trkpt>
      <trkpt lat="44.82099" lon="6.17348">
        <ele>1077.2</ele>
        <time>2024-08-13T09:04:29Z</time>
      </trkpt>
      <trkpt lat="44.82099" lon="6.17348">
        <ele>1077.6</ele>
        <time>2024-08-13T09:04:30Z</time>
      </trkpt>
      <trkpt lat="44.821" lon="6.17344">
        <ele>1077.6</ele>
        <time>2024-08-13T09:04:31Z</time>
      </trkpt>
      <trkpt lat="44.821" lon="6.17344">
        <ele>1077.2</ele>
        <time>2024-08-13T09:04:32Z</time>
      </trkpt>
      <trkpt lat="44.82101" lon="6.17341">
        <ele>1077</ele>
        <time>2024-08-13T09:04:33Z</time>
      </trkpt>
      <trkpt lat="44.82101" lon="6.17341">
        <ele>1076.8</ele>
        <time>2024-08-13T09:04:34Z</time>
      </trkpt>
      <trkpt lat="44.82103" lon="6.17338">
        <ele>1076.8</ele>
        <time>2024-08-13T09:04:35Z</time>
      </trkpt>
      <trkpt lat="44.82103" lon="6.17338">
        <ele>1076.8</ele>
        <time>2024-08-13T09:04:36Z</time>
      </trkpt>
      <trkpt lat="44.82105" lon="6.17334">
        <ele>1077</ele>
        <time>2024-08-13T09:04:37Z</time>
      </trkpt>
      <trkpt lat="44.82105" lon="6.17334">
        <ele>1077</ele>
        <time>2024-08-13T09:04:38Z</time>
      </trkpt>
      <trkpt lat="44.82107" lon="6.17331">
        <ele>1077</ele>
        <time>2024-08-13T09:04:39Z</time>
      </trkpt>
      <trkpt lat="44.82107" lon="6.17331">
        <ele>1076.8</ele>
        <time>2024-08-13T09:04:40Z</time>
      </trkpt>
      <trkpt lat="44.82108" lon="6.17328">
        <ele>1076.8</ele>
        <time>2024-08-13T09:04:41Z</time>
      </trkpt>
      <trkpt lat="44.82108" lon="6.17328">
        <ele>1076.8</ele>
        <time>2024-08-13T09:04:42Z</time>
      </trkpt>
      <trkpt lat="44.8211" lon="6.17324">
        <ele>1076.8</ele>
        <time>2024-08-13T09:04:43Z</time>
      </trkpt>
      <trkpt lat="44.82111" lon="6.17322">
        <ele>1076.8</ele>
        <time>2024-08-13T09:04:44Z</time>
      </trkpt>
      <trkpt lat="44.82111" lon="6.17322">
        <ele>1077</ele>
        <time>2024-08-13T09:04:45Z</time>
      </trkpt>
      <trkpt lat="44.82113" lon="6.17319">
        <ele>1077</ele>
        <time>2024-08-13T09:04:46Z</time>
      </trkpt>
      <trkpt lat="44.82113" lon="6.17319">
        <ele>1076.8</ele>
        <time>2024-08-13T09:04:47Z</time>
      </trkpt>
      <trkpt lat="44.82114" lon="6.17316">
        <ele>1076.8</ele>
        <time>2024-08-13T09:04:48Z</time>
      </trkpt>
      <trkpt lat="44.82114" lon="6.17316">
        <ele>1076.8</ele>
        <time>2024-08-13T09:04:49Z</time>
      </trkpt>
      <trkpt lat="44.82115" lon="6.17313">
        <ele>1077</ele>
        <time>2024-08-13T09:04:50Z</time>
      </trkpt>
      <trkpt lat="44.82115" lon="6.17313">
        <ele>1077.4</ele>
        <time>2024-08-13T09:04:51Z</time>
      </trkpt>
      <trkpt lat="44.82115" lon="6.1731">
        <ele>1077.6</ele>
        <time>2024-08-13T09:04:52Z</time>
      </trkpt>
      <trkpt lat="44.82115" lon="6.1731">
        <ele>1077.8</ele>
        <time>2024-08-13T09:04:53Z</time>
      </trkpt>
      <trkpt lat="44.82112" lon="6.17307">
        <ele>1077.8</ele>
        <time>2024-08-13T09:04:54Z</time>
      </trkpt>
      <trkpt lat="44.82112" lon="6.17307">
        <ele>1077.8</ele>
        <time>2024-08-13T09:04:55Z</time>
      </trkpt>
      <trkpt lat="44.8211" lon="6.17306">
        <ele>1078</ele>
        <time>2024-08-13T09:04:56Z</time>
      </trkpt>
      <trkpt lat="44.8211" lon="6.17306">
        <ele>1078</ele>
        <time>2024-08-13T09:04:57Z</time>
      </trkpt>
      <trkpt lat="44.82108" lon="6.17304">
        <ele>1078.2</ele>
        <time>2024-08-13T09:04:58Z</time>
      </trkpt>
      <trkpt lat="44.82108" lon="6.17304">
        <ele>1078.2</ele>
        <time>2024-08-13T09:04:59Z</time>
      </trkpt>
      <trkpt lat="44.82105" lon="6.17304">
        <ele>1078.2</ele>
        <time>2024-08-13T09:05:00Z</time>
      </trkpt>
      <trkpt lat="44.82105" lon="6.17304">
        <ele>1078.4</ele>
        <time>2024-08-13T09:05:01Z</time>
      </trkpt>
      <trkpt lat="44.82103" lon="6.17303">
        <ele>1078.4</ele>
        <time>2024-08-13T09:05:02Z</time>
      </trkpt>
      <trkpt lat="44.82103" lon="6.17303">
        <ele>1078.4</ele>
        <time>2024-08-13T09:05:03Z</time>
      </trkpt>
      <trkpt lat="44.821" lon="6.17301">
        <ele>1078.4</ele>
        <time>2024-08-13T09:05:04Z</time>
      </trkpt>
      <trkpt lat="44.821" lon="6.17301">
        <ele>1078.6</ele>
        <time>2024-08-13T09:05:05Z</time>
      </trkpt>
      <trkpt lat="44.82098" lon="6.173">
        <ele>1078.6</ele>
        <time>2024-08-13T09:05:06Z</time>
      </trkpt>
      <trkpt lat="44.82098" lon="6.173">
        <ele>1078.4</ele>
        <time>2024-08-13T09:05:07Z</time>
      </trkpt>
      <trkpt lat="44.82096" lon="6.173">
        <ele>1078.4</ele>
        <time>2024-08-13T09:05:08Z</time>
      </trkpt>
      <trkpt lat="44.82096" lon="6.173">
        <ele>1078.4</ele>
        <time>2024-08-13T09:05:09Z</time>
      </trkpt>
      <trkpt lat="44.82093" lon="6.17302">
        <ele>1078.4</ele>
        <time>2024-08-13T09:05:10Z</time>
      </trkpt>
      <trkpt lat="44.82093" lon="6.17302">
        <ele>1078.2</ele>
        <time>2024-08-13T09:05:11Z</time>
      </trkpt>
      <trkpt lat="44.82092" lon="6.17304">
        <ele>1078.2</ele>
        <time>2024-08-13T09:05:12Z</time>
      </trkpt>
      <trkpt lat="44.82092" lon="6.17304">
        <ele>1078</ele>
        <time>2024-08-13T09:05:13Z</time>
      </trkpt>
      <trkpt lat="44.8209" lon="6.17306">
        <ele>1077.8</ele>
        <time>2024-08-13T09:05:14Z</time>
      </trkpt>
      <trkpt lat="44.8209" lon="6.17306">
        <ele>1077.8</ele>
        <time>2024-08-13T09:05:15Z</time>
      </trkpt>
      <trkpt lat="44.8209" lon="6.17306">
        <ele>1077.8</ele>
        <time>2024-08-13T09:05:16Z</time>
      </trkpt>
      <trkpt lat="44.8209" lon="6.17306">
        <ele>1077.8</ele>
        <time>2024-08-13T09:05:17Z</time>
      </trkpt>
      <trkpt lat="44.82088" lon="6.17307">
        <ele>1077.8</ele>
        <time>2024-08-13T09:05:18Z</time>
      </trkpt>
      <trkpt lat="44.82088" lon="6.17307">
        <ele>1078</ele>
        <time>2024-08-13T09:05:19Z</time>
      </trkpt>
      <trkpt lat="44.82088" lon="6.17307">
        <ele>1078</ele>
        <time>2024-08-13T09:05:20Z</time>
      </trkpt>
      <trkpt lat="44.82088" lon="6.17307">
        <ele>1078</ele>
        <time>2024-08-13T09:05:21Z</time>
      </trkpt>
      <trkpt lat="44.82088" lon="6.17307">
        <ele>1078</ele>
        <time>2024-08-13T09:05:22Z</time>
      </trkpt>
      <trkpt lat="44.82088" lon="6.17307">
        <ele>1078</ele>
        <time>2024-08-13T09:05:23Z</time>
      </trkpt>
      <trkpt lat="44.82088" lon="6.17307">
        <ele>1078</ele>
        <time>2024-08-13T09:05:24Z</time>
      </trkpt>
      <trkpt lat="44.82088" lon="6.17307">
        <ele>1078</ele>
        <time>2024-08-13T09:05:25Z</time>
      </trkpt>
      <trkpt lat="44.82088" lon="6.17307">
        <ele>1078</ele>
        <time>2024-08-13T09:05:26Z</time>
      </trkpt>
      <trkpt lat="44.82088" lon="6.17307">
        <ele>1078</ele>
        <time>2024-08-13T09:05:27Z</time>
      </trkpt>
      <trkpt lat="44.82088" lon="6.17307">
        <ele>1078</ele>
        <time>2024-08-13T09:05:28Z</time>
      </trkpt>
      <trkpt lat="44.82088" lon="6.17307">
        <ele>1078.2</ele>
        <time>2024-08-13T09:05:29Z</time>
      </trkpt>
      <trkpt lat="44.82088" lon="6.17307">
        <ele>1078.2</ele>
        <time>2024-08-13T09:05:30Z</time>
      </trkpt>
      <trkpt lat="44.82088" lon="6.17307">
        <ele>1078</ele>
        <time>2024-08-13T09:05:31Z</time>
      </trkpt>
      <trkpt lat="44.82088" lon="6.17307">
        <ele>1078</ele>
        <time>2024-08-13T09:05:32Z</time>
      </trkpt>
      <trkpt lat="44.82088" lon="6.17307">
        <ele>1078</ele>
        <time>2024-08-13T09:05:33Z</time>
      </trkpt>
      <trkpt lat="44.82088" lon="6.17307">
        <ele>1078</ele>
        <time>2024-08-13T09:05:34Z</time>
      </trkpt>
      <trkpt lat="44.82088" lon="6.17307">
        <ele>1078</ele>
        <time>2024-08-13T09:05:35Z</time>
      </trkpt>
      <trkpt lat="44.82088" lon="6.17307">
        <ele>1078</ele>
        <time>2024-08-13T09:05:36Z</time>
      </trkpt>
      <trkpt lat="44.82088" lon="6.17307">
        <ele>1078</ele>
        <time>2024-08-13T09:05:37Z</time>
      </trkpt>
      <trkpt lat="44.82088" lon="6.17307">
        <ele>1078</ele>
        <time>2024-08-13T09:05:38Z</time>
      </trkpt>
      <trkpt lat="44.82088" lon="6.17307">
        <ele>1077.8</ele>
        <time>2024-08-13T09:05:39Z</time>
      </trkpt>
      <trkpt lat="44.82088" lon="6.17307">
        <ele>1077.8</ele>
        <time>2024-08-13T09:05:40Z</time>
      </trkpt>
      <trkpt lat="44.82088" lon="6.17307">
        <ele>1077.8</ele>
        <time>2024-08-13T09:05:41Z</time>
      </trkpt>
      <trkpt lat="44.82088" lon="6.17307">
        <ele>1077.8</ele>
        <time>2024-08-13T09:05:42Z</time>
      </trkpt>
      <trkpt lat="44.82088" lon="6.17307">
        <ele>1077.8</ele>
        <time>2024-08-13T09:05:43Z</time>
      </trkpt>
      <trkpt lat="44.8209" lon="6.17306">
        <ele>1077.8</ele>
        <time>2024-08-13T09:05:44Z</time>
      </trkpt>
      <trkpt lat="44.8209" lon="6.17306">
        <ele>1077.6</ele>
        <time>2024-08-13T09:05:45Z</time>
      </trkpt>
      <trkpt lat="44.82093" lon="6.17302">
        <ele>1077.6</ele>
        <time>2024-08-13T09:05:46Z</time>
      </trkpt>
      <trkpt lat="44.82094" lon="6.173">
        <ele>1077.6</ele>
        <time>2024-08-13T09:05:47Z</time>
      </trkpt>
      <trkpt lat="44.82094" lon="6.173">
        <ele>1077.4</ele>
        <time>2024-08-13T09:05:48Z</time>
      </trkpt>
      <trkpt lat="44.82094" lon="6.17296">
        <ele>1077.4</ele>
        <time>2024-08-13T09:05:49Z</time>
      </trkpt>
      <trkpt lat="44.82094" lon="6.17293">
        <ele>1077.2</ele>
        <time>2024-08-13T09:05:50Z</time>
      </trkpt>
      <trkpt lat="44.82094" lon="6.17293">
        <ele>1077.2</ele>
        <time>2024-08-13T09:05:51Z</time>
      </trkpt>
      <trkpt lat="44.82095" lon="6.17288">
        <ele>1077</ele>
        <time>2024-08-13T09:05:52Z</time>
      </trkpt>
      <trkpt lat="44.82095" lon="6.17288">
        <ele>1077</ele>
        <time>2024-08-13T09:05:53Z</time>
      </trkpt>
      <trkpt lat="44.82097" lon="6.17284">
        <ele>1077</ele>
        <time>2024-08-13T09:05:54Z</time>
      </trkpt>
      <trkpt lat="44.82097" lon="6.17284">
        <ele>1077</ele>
        <time>2024-08-13T09:05:55Z</time>
      </trkpt>
      <trkpt lat="44.82097" lon="6.1728">
        <ele>1077</ele>
        <time>2024-08-13T09:05:56Z</time>
      </trkpt>
      <trkpt lat="44.82097" lon="6.1728">
        <ele>1077</ele>
        <time>2024-08-13T09:05:57Z</time>
      </trkpt>
      <trkpt lat="44.82097" lon="6.17276">
        <ele>1077.2</ele>
        <time>2024-08-13T09:05:58Z</time>
      </trkpt>
      <trkpt lat="44.82097" lon="6.17276">
        <ele>1078</ele>
        <time>2024-08-13T09:05:59Z</time>
      </trkpt>
      <trkpt lat="44.82098" lon="6.17272">
        <ele>1078</ele>
        <time>2024-08-13T09:06:00Z</time>
      </trkpt>
      <trkpt lat="44.82098" lon="6.17269">
        <ele>1077.6</ele>
        <time>2024-08-13T09:06:01Z</time>
      </trkpt>
      <trkpt lat="44.82099" lon="6.17268">
        <ele>1076.6</ele>
        <time>2024-08-13T09:06:02Z</time>
      </trkpt>
      <trkpt lat="44.82099" lon="6.17266">
        <ele>1076.6</ele>
        <time>2024-08-13T09:06:03Z</time>
      </trkpt>
      <trkpt lat="44.82099" lon="6.17265">
        <ele>1076.6</ele>
        <time>2024-08-13T09:06:04Z</time>
      </trkpt>
      <trkpt lat="44.821" lon="6.17261">
        <ele>1076.6</ele>
        <time>2024-08-13T09:06:05Z</time>
      </trkpt>
      <trkpt lat="44.821" lon="6.17261">
        <ele>1076.6</ele>
        <time>2024-08-13T09:06:06Z</time>
      </trkpt>
      <trkpt lat="44.821" lon="6.17256">
        <ele>1076.4</ele>
        <time>2024-08-13T09:06:07Z</time>
      </trkpt>
      <trkpt lat="44.821" lon="6.17256">
        <ele>1076.4</ele>
        <time>2024-08-13T09:06:08Z</time>
      </trkpt>
      <trkpt lat="44.82101" lon="6.17252">
        <ele>1076.4</ele>
        <time>2024-08-13T09:06:09Z</time>
      </trkpt>
      <trkpt lat="44.82101" lon="6.17252">
        <ele>1076.4</ele>
        <time>2024-08-13T09:06:10Z</time>
      </trkpt>
      <trkpt lat="44.82102" lon="6.17248">
        <ele>1076.4</ele>
        <time>2024-08-13T09:06:11Z</time>
      </trkpt>
      <trkpt lat="44.82102" lon="6.17248">
        <ele>1076.4</ele>
        <time>2024-08-13T09:06:12Z</time>
      </trkpt>
      <trkpt lat="44.82103" lon="6.17244">
        <ele>1076.4</ele>
        <time>2024-08-13T09:06:13Z</time>
      </trkpt>
      <trkpt lat="44.82103" lon="6.17244">
        <ele>1076.2</ele>
        <time>2024-08-13T09:06:14Z</time>
      </trkpt>
      <trkpt lat="44.82103" lon="6.1724">
        <ele>1076.2</ele>
        <time>2024-08-13T09:06:15Z</time>
      </trkpt>
      <trkpt lat="44.82103" lon="6.1724">
        <ele>1076.2</ele>
        <time>2024-08-13T09:06:16Z</time>
      </trkpt>
      <trkpt lat="44.82105" lon="6.17236">
        <ele>1076.4</ele>
        <time>2024-08-13T09:06:17Z</time>
      </trkpt>
      <trkpt lat="44.82105" lon="6.17236">
        <ele>1076.4</ele>
        <time>2024-08-13T09:06:18Z</time>
      </trkpt>
      <trkpt lat="44.82105" lon="6.17233">
        <ele>1076.2</ele>
        <time>2024-08-13T09:06:19Z</time>
      </trkpt>
      <trkpt lat="44.82105" lon="6.17233">
        <ele>1076.2</ele>
        <time>2024-08-13T09:06:20Z</time>
      </trkpt>
      <trkpt lat="44.82106" lon="6.17229">
        <ele>1076</ele>
        <time>2024-08-13T09:06:21Z</time>
      </trkpt>
      <trkpt lat="44.82106" lon="6.17229">
        <ele>1076</ele>
        <time>2024-08-13T09:06:22Z</time>
      </trkpt>
      <trkpt lat="44.82106" lon="6.17225">
        <ele>1076</ele>
        <time>2024-08-13T09:06:23Z</time>
      </trkpt>
      <trkpt lat="44.82106" lon="6.17225">
        <ele>1076</ele>
        <time>2024-08-13T09:06:24Z</time>
      </trkpt>
      <trkpt lat="44.82105" lon="6.17221">
        <ele>1075.8</ele>
        <time>2024-08-13T09:06:25Z</time>
      </trkpt>
      <trkpt lat="44.82105" lon="6.17221">
        <ele>1075.8</ele>
        <time>2024-08-13T09:06:26Z</time>
      </trkpt>
      <trkpt lat="44.82105" lon="6.17217">
        <ele>1076</ele>
        <time>2024-08-13T09:06:27Z</time>
      </trkpt>
      <trkpt lat="44.82105" lon="6.17217">
        <ele>1076.2</ele>
        <time>2024-08-13T09:06:28Z</time>
      </trkpt>
      <trkpt lat="44.82106" lon="6.17213">
        <ele>1076.2</ele>
        <time>2024-08-13T09:06:29Z</time>
      </trkpt>
      <trkpt lat="44.82106" lon="6.17213">
        <ele>1076.2</ele>
        <time>2024-08-13T09:06:30Z</time>
      </trkpt>
      <trkpt lat="44.82107" lon="6.17209">
        <ele>1076.2</ele>
        <time>2024-08-13T09:06:31Z</time>
      </trkpt>
      <trkpt lat="44.82107" lon="6.17209">
        <ele>1076.2</ele>
        <time>2024-08-13T09:06:32Z</time>
      </trkpt>
      <trkpt lat="44.82108" lon="6.17205">
        <ele>1076.4</ele>
        <time>2024-08-13T09:06:33Z</time>
      </trkpt>
      <trkpt lat="44.82108" lon="6.17205">
        <ele>1076.4</ele>
        <time>2024-08-13T09:06:34Z</time>
      </trkpt>
      <trkpt lat="44.82108" lon="6.17201">
        <ele>1076.4</ele>
        <time>2024-08-13T09:06:35Z</time>
      </trkpt>
      <trkpt lat="44.82108" lon="6.17201">
        <ele>1076.2</ele>
        <time>2024-08-13T09:06:36Z</time>
      </trkpt>
      <trkpt lat="44.82108" lon="6.17197">
        <ele>1076.2</ele>
        <time>2024-08-13T09:06:37Z</time>
      </trkpt>
      <trkpt lat="44.82108" lon="6.17197">
        <ele>1076.2</ele>
        <time>2024-08-13T09:06:38Z</time>
      </trkpt>
      <trkpt lat="44.82108" lon="6.17193">
        <ele>1076.2</ele>
        <time>2024-08-13T09:06:39Z</time>
      </trkpt>
      <trkpt lat="44.82108" lon="6.17193">
        <ele>1076.2</ele>
        <time>2024-08-13T09:06:40Z</time>
      </trkpt>
      <trkpt lat="44.82108" lon="6.17193">
        <ele>1076.2</ele>
        <time>2024-08-13T09:06:41Z</time>
      </trkpt>
      <trkpt lat="44.82108" lon="6.17193">
        <ele>1076.2</ele>
        <time>2024-08-13T09:06:42Z</time>
      </trkpt>
      <trkpt lat="44.82108" lon="6.1719">
        <ele>1076.4</ele>
        <time>2024-08-13T09:06:43Z</time>
      </trkpt>
      <trkpt lat="44.82108" lon="6.1719">
        <ele>1076.4</ele>
        <time>2024-08-13T09:06:44Z</time>
      </trkpt>
      <trkpt lat="44.82108" lon="6.17186">
        <ele>1076.2</ele>
        <time>2024-08-13T09:06:45Z</time>
      </trkpt>
      <trkpt lat="44.82108" lon="6.17186">
        <ele>1076</ele>
        <time>2024-08-13T09:06:46Z</time>
      </trkpt>
      <trkpt lat="44.82108" lon="6.17182">
        <ele>1076</ele>
        <time>2024-08-13T09:06:47Z</time>
      </trkpt>
      <trkpt lat="44.82108" lon="6.17182">
        <ele>1076</ele>
        <time>2024-08-13T09:06:48Z</time>
      </trkpt>
      <trkpt lat="44.82109" lon="6.17177">
        <ele>1075.8</ele>
        <time>2024-08-13T09:06:49Z</time>
      </trkpt>
      <trkpt lat="44.82109" lon="6.17177">
        <ele>1075.8</ele>
        <time>2024-08-13T09:06:50Z</time>
      </trkpt>
      <trkpt lat="44.82109" lon="6.17173">
        <ele>1076</ele>
        <time>2024-08-13T09:06:51Z</time>
      </trkpt>
      <trkpt lat="44.82109" lon="6.17173">
        <ele>1076</ele>
        <time>2024-08-13T09:06:52Z</time>
      </trkpt>
      <trkpt lat="44.82109" lon="6.17169">
        <ele>1076</ele>
        <time>2024-08-13T09:06:53Z</time>
      </trkpt>
      <trkpt lat="44.82109" lon="6.17169">
        <ele>1076</ele>
        <time>2024-08-13T09:06:54Z</time>
      </trkpt>
      <trkpt lat="44.8211" lon="6.17165">
        <ele>1076</ele>
        <time>2024-08-13T09:06:55Z</time>
      </trkpt>
      <trkpt lat="44.8211" lon="6.17165">
        <ele>1076</ele>
        <time>2024-08-13T09:06:56Z</time>
      </trkpt>
      <trkpt lat="44.82111" lon="6.17162">
        <ele>1076</ele>
        <time>2024-08-13T09:06:57Z</time>
      </trkpt>
      <trkpt lat="44.82111" lon="6.17162">
        <ele>1076.4</ele>
        <time>2024-08-13T09:06:58Z</time>
      </trkpt>
      <trkpt lat="44.82112" lon="6.17157">
        <ele>1076.4</ele>
        <time>2024-08-13T09:06:59Z</time>
      </trkpt>
      <trkpt lat="44.82112" lon="6.17157">
        <ele>1076.4</ele>
        <time>2024-08-13T09:07:00Z</time>
      </trkpt>
      <trkpt lat="44.82113" lon="6.17153">
        <ele>1076.2</ele>
        <time>2024-08-13T09:07:01Z</time>
      </trkpt>
      <trkpt lat="44.82113" lon="6.17153">
        <ele>1076.2</ele>
        <time>2024-08-13T09:07:02Z</time>
      </trkpt>
      <trkpt lat="44.82113" lon="6.17149">
        <ele>1076.2</ele>
        <time>2024-08-13T09:07:03Z</time>
      </trkpt>
      <trkpt lat="44.82113" lon="6.17149">
        <ele>1076.2</ele>
        <time>2024-08-13T09:07:04Z</time>
      </trkpt>
      <trkpt lat="44.82114" lon="6.17145">
        <ele>1076.4</ele>
        <time>2024-08-13T09:07:05Z</time>
      </trkpt>
      <trkpt lat="44.82114" lon="6.17145">
        <ele>1076.6</ele>
        <time>2024-08-13T09:07:06Z</time>
      </trkpt>
      <trkpt lat="44.82115" lon="6.17142">
        <ele>1076.8</ele>
        <time>2024-08-13T09:07:07Z</time>
      </trkpt>
      <trkpt lat="44.82115" lon="6.17142">
        <ele>1076.8</ele>
        <time>2024-08-13T09:07:08Z</time>
      </trkpt>
      <trkpt lat="44.82116" lon="6.17138">
        <ele>1076.8</ele>
        <time>2024-08-13T09:07:09Z</time>
      </trkpt>
      <trkpt lat="44.82117" lon="6.17136">
        <ele>1076.8</ele>
        <time>2024-08-13T09:07:10Z</time>
      </trkpt>
      <trkpt lat="44.82117" lon="6.17136">
        <ele>1076.8</ele>
        <time>2024-08-13T09:07:11Z</time>
      </trkpt>
      <trkpt lat="44.82118" lon="6.17131">
        <ele>1077</ele>
        <time>2024-08-13T09:07:12Z</time>
      </trkpt>
      <trkpt lat="44.82118" lon="6.17131">
        <ele>1077</ele>
        <time>2024-08-13T09:07:13Z</time>
      </trkpt>
      <trkpt lat="44.82119" lon="6.17127">
        <ele>1077</ele>
        <time>2024-08-13T09:07:14Z</time>
      </trkpt>
      <trkpt lat="44.82119" lon="6.17127">
        <ele>1077.2</ele>
        <time>2024-08-13T09:07:15Z</time>
      </trkpt>
      <trkpt lat="44.8212" lon="6.17123">
        <ele>1077.2</ele>
        <time>2024-08-13T09:07:16Z</time>
      </trkpt>
      <trkpt lat="44.8212" lon="6.17123">
        <ele>1077.2</ele>
        <time>2024-08-13T09:07:17Z</time>
      </trkpt>
      <trkpt lat="44.82121" lon="6.17121">
        <ele>1077.4</ele>
        <time>2024-08-13T09:07:18Z</time>
      </trkpt>
      <trkpt lat="44.82121" lon="6.17121">
        <ele>1077.4</ele>
        <time>2024-08-13T09:07:19Z</time>
      </trkpt>
      <trkpt lat="44.82122" lon="6.17116">
        <ele>1077</ele>
        <time>2024-08-13T09:07:20Z</time>
      </trkpt>
      <trkpt lat="44.82122" lon="6.17114">
        <ele>1077</ele>
        <time>2024-08-13T09:07:21Z</time>
      </trkpt>
      <trkpt lat="44.82122" lon="6.17114">
        <ele>1077</ele>
        <time>2024-08-13T09:07:22Z</time>
      </trkpt>
      <trkpt lat="44.82123" lon="6.1711">
        <ele>1077</ele>
        <time>2024-08-13T09:07:23Z</time>
      </trkpt>
      <trkpt lat="44.82123" lon="6.1711">
        <ele>1077</ele>
        <time>2024-08-13T09:07:24Z</time>
      </trkpt>
      <trkpt lat="44.82124" lon="6.17106">
        <ele>1077</ele>
        <time>2024-08-13T09:07:25Z</time>
      </trkpt>
      <trkpt lat="44.82124" lon="6.17106">
        <ele>1077</ele>
        <time>2024-08-13T09:07:26Z</time>
      </trkpt>
      <trkpt lat="44.82125" lon="6.17103">
        <ele>1077.2</ele>
        <time>2024-08-13T09:07:27Z</time>
      </trkpt>
      <trkpt lat="44.82125" lon="6.17103">
        <ele>1077.2</ele>
        <time>2024-08-13T09:07:28Z</time>
      </trkpt>
      <trkpt lat="44.82126" lon="6.17101">
        <ele>1077</ele>
        <time>2024-08-13T09:07:29Z</time>
      </trkpt>
      <trkpt lat="44.82126" lon="6.17101">
        <ele>1077</ele>
        <time>2024-08-13T09:07:30Z</time>
      </trkpt>
      <trkpt lat="44.82127" lon="6.17098">
        <ele>1076.8</ele>
        <time>2024-08-13T09:07:31Z</time>
      </trkpt>
      <trkpt lat="44.82127" lon="6.17098">
        <ele>1076.8</ele>
        <time>2024-08-13T09:07:32Z</time>
      </trkpt>
      <trkpt lat="44.82127" lon="6.17094">
        <ele>1077</ele>
        <time>2024-08-13T09:07:33Z</time>
      </trkpt>
      <trkpt lat="44.82127" lon="6.17094">
        <ele>1077</ele>
        <time>2024-08-13T09:07:34Z</time>
      </trkpt>
      <trkpt lat="44.82127" lon="6.1709">
        <ele>1077</ele>
        <time>2024-08-13T09:07:35Z</time>
      </trkpt>
      <trkpt lat="44.82127" lon="6.1709">
        <ele>1077</ele>
        <time>2024-08-13T09:07:36Z</time>
      </trkpt>
      <trkpt lat="44.82128" lon="6.17087">
        <ele>1077</ele>
        <time>2024-08-13T09:07:37Z</time>
      </trkpt>
      <trkpt lat="44.82128" lon="6.17087">
        <ele>1077</ele>
        <time>2024-08-13T09:07:38Z</time>
      </trkpt>
      <trkpt lat="44.8213" lon="6.17085">
        <ele>1076.8</ele>
        <time>2024-08-13T09:07:39Z</time>
      </trkpt>
      <trkpt lat="44.8213" lon="6.17085">
        <ele>1076.8</ele>
        <time>2024-08-13T09:07:40Z</time>
      </trkpt>
      <trkpt lat="44.82131" lon="6.17081">
        <ele>1076.8</ele>
        <time>2024-08-13T09:07:41Z</time>
      </trkpt>
      <trkpt lat="44.82131" lon="6.17081">
        <ele>1076.6</ele>
        <time>2024-08-13T09:07:42Z</time>
      </trkpt>
      <trkpt lat="44.82132" lon="6.17078">
        <ele>1076.6</ele>
        <time>2024-08-13T09:07:43Z</time>
      </trkpt>
      <trkpt lat="44.82134" lon="6.17076">
        <ele>1076.4</ele>
        <time>2024-08-13T09:07:44Z</time>
      </trkpt>
      <trkpt lat="44.82134" lon="6.17076">
        <ele>1076.4</ele>
        <time>2024-08-13T09:07:45Z</time>
      </trkpt>
      <trkpt lat="44.82136" lon="6.17074">
        <ele>1076.4</ele>
        <time>2024-08-13T09:07:46Z</time>
      </trkpt>
      <trkpt lat="44.82136" lon="6.17074">
        <ele>1076.4</ele>
        <time>2024-08-13T09:07:47Z</time>
      </trkpt>
      <trkpt lat="44.82138" lon="6.17071">
        <ele>1076.2</ele>
        <time>2024-08-13T09:07:48Z</time>
      </trkpt>
      <trkpt lat="44.82138" lon="6.17071">
        <ele>1076</ele>
        <time>2024-08-13T09:07:49Z</time>
      </trkpt>
      <trkpt lat="44.82139" lon="6.1707">
        <ele>1076</ele>
        <time>2024-08-13T09:07:50Z</time>
      </trkpt>
      <trkpt lat="44.82139" lon="6.1707">
        <ele>1076</ele>
        <time>2024-08-13T09:07:51Z</time>
      </trkpt>
      <trkpt lat="44.82141" lon="6.17067">
        <ele>1075.8</ele>
        <time>2024-08-13T09:07:52Z</time>
      </trkpt>
      <trkpt lat="44.82141" lon="6.17067">
        <ele>1075.6</ele>
        <time>2024-08-13T09:07:53Z</time>
      </trkpt>
      <trkpt lat="44.82143" lon="6.17064">
        <ele>1075.4</ele>
        <time>2024-08-13T09:07:54Z</time>
      </trkpt>
      <trkpt lat="44.82143" lon="6.17064">
        <ele>1075.4</ele>
        <time>2024-08-13T09:07:55Z</time>
      </trkpt>
      <trkpt lat="44.82145" lon="6.1706">
        <ele>1075.4</ele>
        <time>2024-08-13T09:07:56Z</time>
      </trkpt>
      <trkpt lat="44.82145" lon="6.1706">
        <ele>1075.4</ele>
        <time>2024-08-13T09:07:57Z</time>
      </trkpt>
      <trkpt lat="44.82146" lon="6.17056">
        <ele>1075.4</ele>
        <time>2024-08-13T09:07:58Z</time>
      </trkpt>
      <trkpt lat="44.82147" lon="6.17054">
        <ele>1075.4</ele>
        <time>2024-08-13T09:07:59Z</time>
      </trkpt>
      <trkpt lat="44.82149" lon="6.17052">
        <ele>1075.4</ele>
        <time>2024-08-13T09:08:00Z</time>
      </trkpt>
      <trkpt lat="44.82149" lon="6.17051">
        <ele>1075.4</ele>
        <time>2024-08-13T09:08:01Z</time>
      </trkpt>
      <trkpt lat="44.82149" lon="6.17049">
        <ele>1074.8</ele>
        <time>2024-08-13T09:08:02Z</time>
      </trkpt>
      <trkpt lat="44.82149" lon="6.17048">
        <ele>1074.8</ele>
        <time>2024-08-13T09:08:03Z</time>
      </trkpt>
      <trkpt lat="44.82151" lon="6.17046">
        <ele>1075</ele>
        <time>2024-08-13T09:08:04Z</time>
      </trkpt>
      <trkpt lat="44.82151" lon="6.17046">
        <ele>1075</ele>
        <time>2024-08-13T09:08:05Z</time>
      </trkpt>
      <trkpt lat="44.82153" lon="6.17043">
        <ele>1075</ele>
        <time>2024-08-13T09:08:06Z</time>
      </trkpt>
      <trkpt lat="44.82154" lon="6.17041">
        <ele>1075</ele>
        <time>2024-08-13T09:08:07Z</time>
      </trkpt>
      <trkpt lat="44.82154" lon="6.17041">
        <ele>1074.8</ele>
        <time>2024-08-13T09:08:08Z</time>
      </trkpt>
      <trkpt lat="44.82156" lon="6.17037">
        <ele>1074.8</ele>
        <time>2024-08-13T09:08:09Z</time>
      </trkpt>
      <trkpt lat="44.82156" lon="6.17037">
        <ele>1074.8</ele>
        <time>2024-08-13T09:08:10Z</time>
      </trkpt>
      <trkpt lat="44.82158" lon="6.17034">
        <ele>1074.8</ele>
        <time>2024-08-13T09:08:11Z</time>
      </trkpt>
      <trkpt lat="44.82159" lon="6.17032">
        <ele>1074.8</ele>
        <time>2024-08-13T09:08:12Z</time>
      </trkpt>
      <trkpt lat="44.82159" lon="6.17032">
        <ele>1074.6</ele>
        <time>2024-08-13T09:08:13Z</time>
      </trkpt>
      <trkpt lat="44.8216" lon="6.1703">
        <ele>1074.6</ele>
        <time>2024-08-13T09:08:14Z</time>
      </trkpt>
      <trkpt lat="44.8216" lon="6.1703">
        <ele>1074.8</ele>
        <time>2024-08-13T09:08:15Z</time>
      </trkpt>
      <trkpt lat="44.82161" lon="6.17027">
        <ele>1074.8</ele>
        <time>2024-08-13T09:08:16Z</time>
      </trkpt>
      <trkpt lat="44.82161" lon="6.17027">
        <ele>1074.8</ele>
        <time>2024-08-13T09:08:17Z</time>
      </trkpt>
      <trkpt lat="44.82163" lon="6.17024">
        <ele>1074.8</ele>
        <time>2024-08-13T09:08:18Z</time>
      </trkpt>
      <trkpt lat="44.82163" lon="6.17024">
        <ele>1074.8</ele>
        <time>2024-08-13T09:08:19Z</time>
      </trkpt>
      <trkpt lat="44.82164" lon="6.17021">
        <ele>1074.8</ele>
        <time>2024-08-13T09:08:20Z</time>
      </trkpt>
      <trkpt lat="44.82164" lon="6.17021">
        <ele>1074.6</ele>
        <time>2024-08-13T09:08:21Z</time>
      </trkpt>
      <trkpt lat="44.82165" lon="6.17018">
        <ele>1074.6</ele>
        <time>2024-08-13T09:08:22Z</time>
      </trkpt>
      <trkpt lat="44.82165" lon="6.17018">
        <ele>1074.6</ele>
        <time>2024-08-13T09:08:23Z</time>
      </trkpt>
      <trkpt lat="44.82167" lon="6.17015">
        <ele>1074.8</ele>
        <time>2024-08-13T09:08:24Z</time>
      </trkpt>
      <trkpt lat="44.82167" lon="6.17015">
        <ele>1074.8</ele>
        <time>2024-08-13T09:08:25Z</time>
      </trkpt>
      <trkpt lat="44.82169" lon="6.17013">
        <ele>1075</ele>
        <time>2024-08-13T09:08:26Z</time>
      </trkpt>
      <trkpt lat="44.82169" lon="6.17013">
        <ele>1075</ele>
        <time>2024-08-13T09:08:27Z</time>
      </trkpt>
      <trkpt lat="44.82171" lon="6.1701">
        <ele>1075</ele>
        <time>2024-08-13T09:08:28Z</time>
      </trkpt>
      <trkpt lat="44.82171" lon="6.1701">
        <ele>1075</ele>
        <time>2024-08-13T09:08:29Z</time>
      </trkpt>
      <trkpt lat="44.82173" lon="6.17007">
        <ele>1075</ele>
        <time>2024-08-13T09:08:30Z</time>
      </trkpt>
      <trkpt lat="44.82173" lon="6.17007">
        <ele>1074.8</ele>
        <time>2024-08-13T09:08:31Z</time>
      </trkpt>
      <trkpt lat="44.82175" lon="6.17004">
        <ele>1074.8</ele>
        <time>2024-08-13T09:08:32Z</time>
      </trkpt>
      <trkpt lat="44.82175" lon="6.17004">
        <ele>1075</ele>
        <time>2024-08-13T09:08:33Z</time>
      </trkpt>
      <trkpt lat="44.82175" lon="6.17004">
        <ele>1075</ele>
        <time>2024-08-13T09:08:34Z</time>
      </trkpt>
      <trkpt lat="44.82177" lon="6.17">
        <ele>1075</ele>
        <time>2024-08-13T09:08:35Z</time>
      </trkpt>
      <trkpt lat="44.82177" lon="6.17">
        <ele>1075</ele>
        <time>2024-08-13T09:08:36Z</time>
      </trkpt>
      <trkpt lat="44.82179" lon="6.16997">
        <ele>1075</ele>
        <time>2024-08-13T09:08:37Z</time>
      </trkpt>
      <trkpt lat="44.82179" lon="6.16997">
        <ele>1075</ele>
        <time>2024-08-13T09:08:38Z</time>
      </trkpt>
      <trkpt lat="44.82179" lon="6.16994">
        <ele>1074.8</ele>
        <time>2024-08-13T09:08:39Z</time>
      </trkpt>
      <trkpt lat="44.82179" lon="6.16994">
        <ele>1074.8</ele>
        <time>2024-08-13T09:08:40Z</time>
      </trkpt>
      <trkpt lat="44.82181" lon="6.16991">
        <ele>1074.8</ele>
        <time>2024-08-13T09:08:41Z</time>
      </trkpt>
      <trkpt lat="44.82181" lon="6.16991">
        <ele>1075</ele>
        <time>2024-08-13T09:08:42Z</time>
      </trkpt>
      <trkpt lat="44.82182" lon="6.16987">
        <ele>1075</ele>
        <time>2024-08-13T09:08:43Z</time>
      </trkpt>
      <trkpt lat="44.82182" lon="6.16987">
        <ele>1075</ele>
        <time>2024-08-13T09:08:44Z</time>
      </trkpt>
      <trkpt lat="44.82184" lon="6.16984">
        <ele>1075</ele>
        <time>2024-08-13T09:08:45Z</time>
      </trkpt>
      <trkpt lat="44.82184" lon="6.16984">
        <ele>1075</ele>
        <time>2024-08-13T09:08:46Z</time>
      </trkpt>
      <trkpt lat="44.82186" lon="6.16981">
        <ele>1075</ele>
        <time>2024-08-13T09:08:47Z</time>
      </trkpt>
      <trkpt lat="44.82186" lon="6.16981">
        <ele>1075</ele>
        <time>2024-08-13T09:08:48Z</time>
      </trkpt>
      <trkpt lat="44.82188" lon="6.16977">
        <ele>1075</ele>
        <time>2024-08-13T09:08:49Z</time>
      </trkpt>
      <trkpt lat="44.82189" lon="6.16975">
        <ele>1075</ele>
        <time>2024-08-13T09:08:50Z</time>
      </trkpt>
      <trkpt lat="44.82191" lon="6.16974">
        <ele>1074.8</ele>
        <time>2024-08-13T09:08:51Z</time>
      </trkpt>
      <trkpt lat="44.82191" lon="6.16974">
        <ele>1075</ele>
        <time>2024-08-13T09:08:52Z</time>
      </trkpt>
      <trkpt lat="44.82193" lon="6.16971">
        <ele>1075</ele>
        <time>2024-08-13T09:08:53Z</time>
      </trkpt>
      <trkpt lat="44.82193" lon="6.16971">
        <ele>1075</ele>
        <time>2024-08-13T09:08:54Z</time>
      </trkpt>
      <trkpt lat="44.82193" lon="6.16968">
        <ele>1075</ele>
        <time>2024-08-13T09:08:55Z</time>
      </trkpt>
      <trkpt lat="44.82193" lon="6.16968">
        <ele>1075.2</ele>
        <time>2024-08-13T09:08:56Z</time>
      </trkpt>
      <trkpt lat="44.82195" lon="6.16965">
        <ele>1075.2</ele>
        <time>2024-08-13T09:08:57Z</time>
      </trkpt>
      <trkpt lat="44.82195" lon="6.16965">
        <ele>1075.4</ele>
        <time>2024-08-13T09:08:58Z</time>
      </trkpt>
      <trkpt lat="44.82196" lon="6.16963">
        <ele>1075.4</ele>
        <time>2024-08-13T09:08:59Z</time>
      </trkpt>
      <trkpt lat="44.82196" lon="6.16963">
        <ele>1075.4</ele>
        <time>2024-08-13T09:09:00Z</time>
      </trkpt>
      <trkpt lat="44.82197" lon="6.16959">
        <ele>1075.2</ele>
        <time>2024-08-13T09:09:01Z</time>
      </trkpt>
      <trkpt lat="44.82197" lon="6.16959">
        <ele>1075.2</ele>
        <time>2024-08-13T09:09:02Z</time>
      </trkpt>
      <trkpt lat="44.82197" lon="6.16956">
        <ele>1075.2</ele>
        <time>2024-08-13T09:09:03Z</time>
      </trkpt>
      <trkpt lat="44.82197" lon="6.16956">
        <ele>1075.4</ele>
        <time>2024-08-13T09:09:04Z</time>
      </trkpt>
      <trkpt lat="44.82198" lon="6.16952">
        <ele>1075.4</ele>
        <time>2024-08-13T09:09:05Z</time>
      </trkpt>
      <trkpt lat="44.82199" lon="6.16949">
        <ele>1075.2</ele>
        <time>2024-08-13T09:09:06Z</time>
      </trkpt>
      <trkpt lat="44.82199" lon="6.16949">
        <ele>1075.2</ele>
        <time>2024-08-13T09:09:07Z</time>
      </trkpt>
      <trkpt lat="44.822" lon="6.16945">
        <ele>1075</ele>
        <time>2024-08-13T09:09:08Z</time>
      </trkpt>
      <trkpt lat="44.822" lon="6.16945">
        <ele>1075</ele>
        <time>2024-08-13T09:09:09Z</time>
      </trkpt>
      <trkpt lat="44.822" lon="6.1694">
        <ele>1075</ele>
        <time>2024-08-13T09:09:10Z</time>
      </trkpt>
      <trkpt lat="44.822" lon="6.1694">
        <ele>1075</ele>
        <time>2024-08-13T09:09:11Z</time>
      </trkpt>
      <trkpt lat="44.82201" lon="6.16937">
        <ele>1075</ele>
        <time>2024-08-13T09:09:12Z</time>
      </trkpt>
      <trkpt lat="44.82201" lon="6.16937">
        <ele>1075</ele>
        <time>2024-08-13T09:09:13Z</time>
      </trkpt>
      <trkpt lat="44.82204" lon="6.16935">
        <ele>1075</ele>
        <time>2024-08-13T09:09:14Z</time>
      </trkpt>
      <trkpt lat="44.82204" lon="6.16935">
        <ele>1075</ele>
        <time>2024-08-13T09:09:15Z</time>
      </trkpt>
      <trkpt lat="44.82205" lon="6.16932">
        <ele>1074.8</ele>
        <time>2024-08-13T09:09:16Z</time>
      </trkpt>
      <trkpt lat="44.82205" lon="6.16932">
        <ele>1074.8</ele>
        <time>2024-08-13T09:09:17Z</time>
      </trkpt>
      <trkpt lat="44.82207" lon="6.16929">
        <ele>1075</ele>
        <time>2024-08-13T09:09:18Z</time>
      </trkpt>
      <trkpt lat="44.82207" lon="6.16929">
        <ele>1075</ele>
        <time>2024-08-13T09:09:19Z</time>
      </trkpt>
      <trkpt lat="44.82208" lon="6.16925">
        <ele>1074.8</ele>
        <time>2024-08-13T09:09:20Z</time>
      </trkpt>
      <trkpt lat="44.82208" lon="6.16925">
        <ele>1074.8</ele>
        <time>2024-08-13T09:09:21Z</time>
      </trkpt>
      <trkpt lat="44.82208" lon="6.16921">
        <ele>1074.6</ele>
        <time>2024-08-13T09:09:22Z</time>
      </trkpt>
      <trkpt lat="44.82208" lon="6.16921">
        <ele>1074.4</ele>
        <time>2024-08-13T09:09:23Z</time>
      </trkpt>
      <trkpt lat="44.82208" lon="6.16918">
        <ele>1074.4</ele>
        <time>2024-08-13T09:09:24Z</time>
      </trkpt>
      <trkpt lat="44.82208" lon="6.16918">
        <ele>1074.6</ele>
        <time>2024-08-13T09:09:25Z</time>
      </trkpt>
      <trkpt lat="44.82208" lon="6.16915">
        <ele>1074.6</ele>
        <time>2024-08-13T09:09:26Z</time>
      </trkpt>
      <trkpt lat="44.82208" lon="6.16915">
        <ele>1074.4</ele>
        <time>2024-08-13T09:09:27Z</time>
      </trkpt>
      <trkpt lat="44.82209" lon="6.16912">
        <ele>1074.4</ele>
        <time>2024-08-13T09:09:28Z</time>
      </trkpt>
      <trkpt lat="44.82209" lon="6.16912">
        <ele>1074.4</ele>
        <time>2024-08-13T09:09:29Z</time>
      </trkpt>
      <trkpt lat="44.82209" lon="6.16907">
        <ele>1074.2</ele>
        <time>2024-08-13T09:09:30Z</time>
      </trkpt>
      <trkpt lat="44.8221" lon="6.16905">
        <ele>1074.2</ele>
        <time>2024-08-13T09:09:31Z</time>
      </trkpt>
      <trkpt lat="44.82212" lon="6.16903">
        <ele>1074.2</ele>
        <time>2024-08-13T09:09:32Z</time>
      </trkpt>
      <trkpt lat="44.82212" lon="6.16903">
        <ele>1073.8</ele>
        <time>2024-08-13T09:09:33Z</time>
      </trkpt>
      <trkpt lat="44.82213" lon="6.16899">
        <ele>1073.4</ele>
        <time>2024-08-13T09:09:34Z</time>
      </trkpt>
      <trkpt lat="44.82214" lon="6.16897">
        <ele>1073.2</ele>
        <time>2024-08-13T09:09:35Z</time>
      </trkpt>
      <trkpt lat="44.82214" lon="6.16897">
        <ele>1073.2</ele>
        <time>2024-08-13T09:09:36Z</time>
      </trkpt>
      <trkpt lat="44.82215" lon="6.16893">
        <ele>1073</ele>
        <time>2024-08-13T09:09:37Z</time>
      </trkpt>
      <trkpt lat="44.82215" lon="6.16893">
        <ele>1073</ele>
        <time>2024-08-13T09:09:38Z</time>
      </trkpt>
      <trkpt lat="44.82216" lon="6.16889">
        <ele>1072.8</ele>
        <time>2024-08-13T09:09:39Z</time>
      </trkpt>
      <trkpt lat="44.82216" lon="6.16889">
        <ele>1072.8</ele>
        <time>2024-08-13T09:09:40Z</time>
      </trkpt>
      <trkpt lat="44.82217" lon="6.16884">
        <ele>1072.8</ele>
        <time>2024-08-13T09:09:41Z</time>
      </trkpt>
      <trkpt lat="44.82217" lon="6.16884">
        <ele>1072.8</ele>
        <time>2024-08-13T09:09:42Z</time>
      </trkpt>
      <trkpt lat="44.82217" lon="6.16879">
        <ele>1072.8</ele>
        <time>2024-08-13T09:09:43Z</time>
      </trkpt>
      <trkpt lat="44.82217" lon="6.16879">
        <ele>1072.8</ele>
        <time>2024-08-13T09:09:44Z</time>
      </trkpt>
      <trkpt lat="44.82218" lon="6.16876">
        <ele>1072.6</ele>
        <time>2024-08-13T09:09:45Z</time>
      </trkpt>
      <trkpt lat="44.82218" lon="6.16876">
        <ele>1072.6</ele>
        <time>2024-08-13T09:09:46Z</time>
      </trkpt>
      <trkpt lat="44.82219" lon="6.16873">
        <ele>1072.6</ele>
        <time>2024-08-13T09:09:47Z</time>
      </trkpt>
      <trkpt lat="44.82219" lon="6.16873">
        <ele>1072.6</ele>
        <time>2024-08-13T09:09:48Z</time>
      </trkpt>
      <trkpt lat="44.82219" lon="6.1687">
        <ele>1072.6</ele>
        <time>2024-08-13T09:09:49Z</time>
      </trkpt>
      <trkpt lat="44.82219" lon="6.1687">
        <ele>1072.6</ele>
        <time>2024-08-13T09:09:50Z</time>
      </trkpt>
      <trkpt lat="44.8222" lon="6.16867">
        <ele>1072.6</ele>
        <time>2024-08-13T09:09:51Z</time>
      </trkpt>
      <trkpt lat="44.8222" lon="6.16867">
        <ele>1072.6</ele>
        <time>2024-08-13T09:09:52Z</time>
      </trkpt>
      <trkpt lat="44.8222" lon="6.16862">
        <ele>1072.6</ele>
        <time>2024-08-13T09:09:53Z</time>
      </trkpt>
      <trkpt lat="44.8222" lon="6.16862">
        <ele>1072.4</ele>
        <time>2024-08-13T09:09:54Z</time>
      </trkpt>
      <trkpt lat="44.82221" lon="6.16858">
        <ele>1072.4</ele>
        <time>2024-08-13T09:09:55Z</time>
      </trkpt>
      <trkpt lat="44.82221" lon="6.16858">
        <ele>1072.4</ele>
        <time>2024-08-13T09:09:56Z</time>
      </trkpt>
      <trkpt lat="44.82221" lon="6.16854">
        <ele>1072.4</ele>
        <time>2024-08-13T09:09:57Z</time>
      </trkpt>
      <trkpt lat="44.82221" lon="6.16854">
        <ele>1072.4</ele>
        <time>2024-08-13T09:09:58Z</time>
      </trkpt>
      <trkpt lat="44.82222" lon="6.1685">
        <ele>1072.4</ele>
        <time>2024-08-13T09:09:59Z</time>
      </trkpt>
      <trkpt lat="44.82222" lon="6.1685">
        <ele>1072.4</ele>
        <time>2024-08-13T09:10:00Z</time>
      </trkpt>
      <trkpt lat="44.82222" lon="6.16846">
        <ele>1072.4</ele>
        <time>2024-08-13T09:10:01Z</time>
      </trkpt>
      <trkpt lat="44.82222" lon="6.16846">
        <ele>1072.2</ele>
        <time>2024-08-13T09:10:02Z</time>
      </trkpt>
      <trkpt lat="44.82222" lon="6.16842">
        <ele>1072.2</ele>
        <time>2024-08-13T09:10:03Z</time>
      </trkpt>
      <trkpt lat="44.82222" lon="6.16842">
        <ele>1072.2</ele>
        <time>2024-08-13T09:10:04Z</time>
      </trkpt>
      <trkpt lat="44.82222" lon="6.16838">
        <ele>1072.2</ele>
        <time>2024-08-13T09:10:05Z</time>
      </trkpt>
      <trkpt lat="44.82222" lon="6.16838">
        <ele>1072.4</ele>
        <time>2024-08-13T09:10:06Z</time>
      </trkpt>
      <trkpt lat="44.82223" lon="6.16834">
        <ele>1072.2</ele>
        <time>2024-08-13T09:10:07Z</time>
      </trkpt>
      <trkpt lat="44.82223" lon="6.16834">
        <ele>1072.4</ele>
        <time>2024-08-13T09:10:08Z</time>
      </trkpt>
      <trkpt lat="44.82224" lon="6.16831">
        <ele>1072.6</ele>
        <time>2024-08-13T09:10:09Z</time>
      </trkpt>
      <trkpt lat="44.82224" lon="6.16831">
        <ele>1072.6</ele>
        <time>2024-08-13T09:10:10Z</time>
      </trkpt>
      <trkpt lat="44.82225" lon="6.16827">
        <ele>1072.6</ele>
        <time>2024-08-13T09:10:11Z</time>
      </trkpt>
      <trkpt lat="44.82225" lon="6.16827">
        <ele>1072.4</ele>
        <time>2024-08-13T09:10:12Z</time>
      </trkpt>
      <trkpt lat="44.82225" lon="6.16823">
        <ele>1072.2</ele>
        <time>2024-08-13T09:10:13Z</time>
      </trkpt>
      <trkpt lat="44.82225" lon="6.16823">
        <ele>1072.2</ele>
        <time>2024-08-13T09:10:14Z</time>
      </trkpt>
      <trkpt lat="44.82226" lon="6.16819">
        <ele>1072.8</ele>
        <time>2024-08-13T09:10:15Z</time>
      </trkpt>
      <trkpt lat="44.82226" lon="6.16819">
        <ele>1072.8</ele>
        <time>2024-08-13T09:10:16Z</time>
      </trkpt>
      <trkpt lat="44.82227" lon="6.16815">
        <ele>1072.6</ele>
        <time>2024-08-13T09:10:17Z</time>
      </trkpt>
      <trkpt lat="44.82227" lon="6.16815">
        <ele>1072.6</ele>
        <time>2024-08-13T09:10:18Z</time>
      </trkpt>
      <trkpt lat="44.82227" lon="6.16811">
        <ele>1072.6</ele>
        <time>2024-08-13T09:10:19Z</time>
      </trkpt>
      <trkpt lat="44.82227" lon="6.16811">
        <ele>1072.6</ele>
        <time>2024-08-13T09:10:20Z</time>
      </trkpt>
      <trkpt lat="44.82228" lon="6.16807">
        <ele>1072.6</ele>
        <time>2024-08-13T09:10:21Z</time>
      </trkpt>
      <trkpt lat="44.82228" lon="6.16807">
        <ele>1072.6</ele>
        <time>2024-08-13T09:10:22Z</time>
      </trkpt>
      <trkpt lat="44.82229" lon="6.16803">
        <ele>1072.8</ele>
        <time>2024-08-13T09:10:23Z</time>
      </trkpt>
      <trkpt lat="44.82229" lon="6.16803">
        <ele>1072.8</ele>
        <time>2024-08-13T09:10:24Z</time>
      </trkpt>
      <trkpt lat="44.82229" lon="6.16799">
        <ele>1072.6</ele>
        <time>2024-08-13T09:10:25Z</time>
      </trkpt>
      <trkpt lat="44.82229" lon="6.16799">
        <ele>1072.6</ele>
        <time>2024-08-13T09:10:26Z</time>
      </trkpt>
      <trkpt lat="44.82229" lon="6.16795">
        <ele>1072.6</ele>
        <time>2024-08-13T09:10:27Z</time>
      </trkpt>
      <trkpt lat="44.82229" lon="6.16795">
        <ele>1072.6</ele>
        <time>2024-08-13T09:10:28Z</time>
      </trkpt>
      <trkpt lat="44.82229" lon="6.16791">
        <ele>1072.6</ele>
        <time>2024-08-13T09:10:29Z</time>
      </trkpt>
      <trkpt lat="44.82229" lon="6.16791">
        <ele>1072.6</ele>
        <time>2024-08-13T09:10:30Z</time>
      </trkpt>
      <trkpt lat="44.8223" lon="6.16786">
        <ele>1072.6</ele>
        <time>2024-08-13T09:10:31Z</time>
      </trkpt>
      <trkpt lat="44.8223" lon="6.16786">
        <ele>1072.4</ele>
        <time>2024-08-13T09:10:32Z</time>
      </trkpt>
      <trkpt lat="44.82231" lon="6.16782">
        <ele>1072.4</ele>
        <time>2024-08-13T09:10:33Z</time>
      </trkpt>
      <trkpt lat="44.82231" lon="6.16782">
        <ele>1072.4</ele>
        <time>2024-08-13T09:10:34Z</time>
      </trkpt>
      <trkpt lat="44.82231" lon="6.16778">
        <ele>1072.4</ele>
        <time>2024-08-13T09:10:35Z</time>
      </trkpt>
      <trkpt lat="44.82232" lon="6.16775">
        <ele>1072.4</ele>
        <time>2024-08-13T09:10:36Z</time>
      </trkpt>
      <trkpt lat="44.82232" lon="6.16775">
        <ele>1072.4</ele>
        <time>2024-08-13T09:10:37Z</time>
      </trkpt>
      <trkpt lat="44.82233" lon="6.16771">
        <ele>1072.4</ele>
        <time>2024-08-13T09:10:38Z</time>
      </trkpt>
      <trkpt lat="44.82233" lon="6.16771">
        <ele>1072.4</ele>
        <time>2024-08-13T09:10:39Z</time>
      </trkpt>
      <trkpt lat="44.82233" lon="6.16767">
        <ele>1072.4</ele>
        <time>2024-08-13T09:10:40Z</time>
      </trkpt>
      <trkpt lat="44.82233" lon="6.16767">
        <ele>1072.6</ele>
        <time>2024-08-13T09:10:41Z</time>
      </trkpt>
      <trkpt lat="44.82235" lon="6.16764">
        <ele>1072.6</ele>
        <time>2024-08-13T09:10:42Z</time>
      </trkpt>
      <trkpt lat="44.82235" lon="6.16764">
        <ele>1072.2</ele>
        <time>2024-08-13T09:10:43Z</time>
      </trkpt>
      <trkpt lat="44.82236" lon="6.16761">
        <ele>1072.2</ele>
        <time>2024-08-13T09:10:44Z</time>
      </trkpt>
      <trkpt lat="44.82236" lon="6.16761">
        <ele>1072.6</ele>
        <time>2024-08-13T09:10:45Z</time>
      </trkpt>
      <trkpt lat="44.82237" lon="6.16757">
        <ele>1072.6</ele>
        <time>2024-08-13T09:10:46Z</time>
      </trkpt>
      <trkpt lat="44.82237" lon="6.16757">
        <ele>1072.6</ele>
        <time>2024-08-13T09:10:47Z</time>
      </trkpt>
      <trkpt lat="44.82237" lon="6.16753">
        <ele>1072.6</ele>
        <time>2024-08-13T09:10:48Z</time>
      </trkpt>
      <trkpt lat="44.82237" lon="6.16753">
        <ele>1072.6</ele>
        <time>2024-08-13T09:10:49Z</time>
      </trkpt>
      <trkpt lat="44.82235" lon="6.1675">
        <ele>1072.8</ele>
        <time>2024-08-13T09:10:50Z</time>
      </trkpt>
      <trkpt lat="44.82235" lon="6.1675">
        <ele>1072.8</ele>
        <time>2024-08-13T09:10:51Z</time>
      </trkpt>
      <trkpt lat="44.82235" lon="6.16746">
        <ele>1072.8</ele>
        <time>2024-08-13T09:10:52Z</time>
      </trkpt>
      <trkpt lat="44.82235" lon="6.16746">
        <ele>1072.8</ele>
        <time>2024-08-13T09:10:53Z</time>
      </trkpt>
      <trkpt lat="44.82235" lon="6.16742">
        <ele>1072.8</ele>
        <time>2024-08-13T09:10:54Z</time>
      </trkpt>
      <trkpt lat="44.82235" lon="6.16742">
        <ele>1072.8</ele>
        <time>2024-08-13T09:10:55Z</time>
      </trkpt>
      <trkpt lat="44.82237" lon="6.16739">
        <ele>1073</ele>
        <time>2024-08-13T09:10:56Z</time>
      </trkpt>
      <trkpt lat="44.82237" lon="6.16739">
        <ele>1073</ele>
        <time>2024-08-13T09:10:57Z</time>
      </trkpt>
      <trkpt lat="44.82238" lon="6.16735">
        <ele>1072.8</ele>
        <time>2024-08-13T09:10:58Z</time>
      </trkpt>
      <trkpt lat="44.82238" lon="6.16735">
        <ele>1072.8</ele>
        <time>2024-08-13T09:10:59Z</time>
      </trkpt>
      <trkpt lat="44.82237" lon="6.16731">
        <ele>1072.8</ele>
        <time>2024-08-13T09:11:00Z</time>
      </trkpt>
      <trkpt lat="44.82237" lon="6.16731">
        <ele>1073</ele>
        <time>2024-08-13T09:11:01Z</time>
      </trkpt>
      <trkpt lat="44.82238" lon="6.16727">
        <ele>1073</ele>
        <time>2024-08-13T09:11:02Z</time>
      </trkpt>
      <trkpt lat="44.82238" lon="6.16727">
        <ele>1072.8</ele>
        <time>2024-08-13T09:11:03Z</time>
      </trkpt>
      <trkpt lat="44.82238" lon="6.16723">
        <ele>1072.8</ele>
        <time>2024-08-13T09:11:04Z</time>
      </trkpt>
      <trkpt lat="44.82238" lon="6.16723">
        <ele>1072.8</ele>
        <time>2024-08-13T09:11:05Z</time>
      </trkpt>
      <trkpt lat="44.82238" lon="6.16719">
        <ele>1072.8</ele>
        <time>2024-08-13T09:11:06Z</time>
      </trkpt>
      <trkpt lat="44.82238" lon="6.16719">
        <ele>1072.6</ele>
        <time>2024-08-13T09:11:07Z</time>
      </trkpt>
      <trkpt lat="44.82237" lon="6.16716">
        <ele>1072.8</ele>
        <time>2024-08-13T09:11:08Z</time>
      </trkpt>
      <trkpt lat="44.82237" lon="6.16716">
        <ele>1072.8</ele>
        <time>2024-08-13T09:11:09Z</time>
      </trkpt>
      <trkpt lat="44.82235" lon="6.16713">
        <ele>1072.8</ele>
        <time>2024-08-13T09:11:10Z</time>
      </trkpt>
      <trkpt lat="44.82235" lon="6.16713">
        <ele>1072.8</ele>
        <time>2024-08-13T09:11:11Z</time>
      </trkpt>
      <trkpt lat="44.82234" lon="6.16709">
        <ele>1072.8</ele>
        <time>2024-08-13T09:11:12Z</time>
      </trkpt>
      <trkpt lat="44.82233" lon="6.16707">
        <ele>1072.8</ele>
        <time>2024-08-13T09:11:13Z</time>
      </trkpt>
      <trkpt lat="44.82233" lon="6.16707">
        <ele>1072.6</ele>
        <time>2024-08-13T09:11:14Z</time>
      </trkpt>
      <trkpt lat="44.82232" lon="6.16704">
        <ele>1072.6</ele>
        <time>2024-08-13T09:11:15Z</time>
      </trkpt>
      <trkpt lat="44.82232" lon="6.16704">
        <ele>1072.6</ele>
        <time>2024-08-13T09:11:16Z</time>
      </trkpt>
      <trkpt lat="44.82231" lon="6.167">
        <ele>1072.6</ele>
        <time>2024-08-13T09:11:17Z</time>
      </trkpt>
      <trkpt lat="44.82231" lon="6.167">
        <ele>1072.6</ele>
        <time>2024-08-13T09:11:18Z</time>
      </trkpt>
      <trkpt lat="44.8223" lon="6.16696">
        <ele>1072.6</ele>
        <time>2024-08-13T09:11:19Z</time>
      </trkpt>
      <trkpt lat="44.8223" lon="6.16696">
        <ele>1072.4</ele>
        <time>2024-08-13T09:11:20Z</time>
      </trkpt>
      <trkpt lat="44.8223" lon="6.16692">
        <ele>1072.2</ele>
        <time>2024-08-13T09:11:21Z</time>
      </trkpt>
      <trkpt lat="44.8223" lon="6.16692">
        <ele>1072</ele>
        <time>2024-08-13T09:11:22Z</time>
      </trkpt>
      <trkpt lat="44.82229" lon="6.16689">
        <ele>1072</ele>
        <time>2024-08-13T09:11:23Z</time>
      </trkpt>
      <trkpt lat="44.82229" lon="6.16689">
        <ele>1072</ele>
        <time>2024-08-13T09:11:24Z</time>
      </trkpt>
      <trkpt lat="44.82228" lon="6.16685">
        <ele>1072</ele>
        <time>2024-08-13T09:11:25Z</time>
      </trkpt>
      <trkpt lat="44.82228" lon="6.16685">
        <ele>1072</ele>
        <time>2024-08-13T09:11:26Z</time>
      </trkpt>
      <trkpt lat="44.82227" lon="6.16682">
        <ele>1071.8</ele>
        <time>2024-08-13T09:11:27Z</time>
      </trkpt>
      <trkpt lat="44.82227" lon="6.16682">
        <ele>1071.8</ele>
        <time>2024-08-13T09:11:28Z</time>
      </trkpt>
      <trkpt lat="44.82226" lon="6.16678">
        <ele>1071.8</ele>
        <time>2024-08-13T09:11:29Z</time>
      </trkpt>
      <trkpt lat="44.82226" lon="6.16678">
        <ele>1071.8</ele>
        <time>2024-08-13T09:11:30Z</time>
      </trkpt>
      <trkpt lat="44.82226" lon="6.16674">
        <ele>1071.8</ele>
        <time>2024-08-13T09:11:31Z</time>
      </trkpt>
      <trkpt lat="44.82226" lon="6.16674">
        <ele>1071.8</ele>
        <time>2024-08-13T09:11:32Z</time>
      </trkpt>
      <trkpt lat="44.82225" lon="6.1667">
        <ele>1071.8</ele>
        <time>2024-08-13T09:11:33Z</time>
      </trkpt>
      <trkpt lat="44.82225" lon="6.1667">
        <ele>1071.6</ele>
        <time>2024-08-13T09:11:34Z</time>
      </trkpt>
      <trkpt lat="44.82225" lon="6.16667">
        <ele>1071.8</ele>
        <time>2024-08-13T09:11:35Z</time>
      </trkpt>
      <trkpt lat="44.82225" lon="6.16667">
        <ele>1071.8</ele>
        <time>2024-08-13T09:11:36Z</time>
      </trkpt>
      <trkpt lat="44.82223" lon="6.16663">
        <ele>1071.8</ele>
        <time>2024-08-13T09:11:37Z</time>
      </trkpt>
      <trkpt lat="44.82223" lon="6.16663">
        <ele>1071.8</ele>
        <time>2024-08-13T09:11:38Z</time>
      </trkpt>
      <trkpt lat="44.82222" lon="6.16659">
        <ele>1071.8</ele>
        <time>2024-08-13T09:11:39Z</time>
      </trkpt>
      <trkpt lat="44.82222" lon="6.16659">
        <ele>1071.8</ele>
        <time>2024-08-13T09:11:40Z</time>
      </trkpt>
      <trkpt lat="44.82221" lon="6.16654">
        <ele>1071.8</ele>
        <time>2024-08-13T09:11:41Z</time>
      </trkpt>
      <trkpt lat="44.82221" lon="6.16654">
        <ele>1071.8</ele>
        <time>2024-08-13T09:11:42Z</time>
      </trkpt>
      <trkpt lat="44.82219" lon="6.16649">
        <ele>1071.8</ele>
        <time>2024-08-13T09:11:43Z</time>
      </trkpt>
      <trkpt lat="44.82219" lon="6.16649">
        <ele>1071.6</ele>
        <time>2024-08-13T09:11:44Z</time>
      </trkpt>
      <trkpt lat="44.82218" lon="6.16645">
        <ele>1071.4</ele>
        <time>2024-08-13T09:11:45Z</time>
      </trkpt>
      <trkpt lat="44.82218" lon="6.16645">
        <ele>1071.4</ele>
        <time>2024-08-13T09:11:46Z</time>
      </trkpt>
      <trkpt lat="44.82217" lon="6.16641">
        <ele>1071.2</ele>
        <time>2024-08-13T09:11:47Z</time>
      </trkpt>
      <trkpt lat="44.82217" lon="6.16641">
        <ele>1071.2</ele>
        <time>2024-08-13T09:11:48Z</time>
      </trkpt>
      <trkpt lat="44.82216" lon="6.16637">
        <ele>1071.2</ele>
        <time>2024-08-13T09:11:49Z</time>
      </trkpt>
      <trkpt lat="44.82216" lon="6.16637">
        <ele>1071.6</ele>
        <time>2024-08-13T09:11:50Z</time>
      </trkpt>
      <trkpt lat="44.82215" lon="6.16633">
        <ele>1071.8</ele>
        <time>2024-08-13T09:11:51Z</time>
      </trkpt>
      <trkpt lat="44.82215" lon="6.16633">
        <ele>1071.8</ele>
        <time>2024-08-13T09:11:52Z</time>
      </trkpt>
      <trkpt lat="44.82215" lon="6.16629">
        <ele>1071</ele>
        <time>2024-08-13T09:11:53Z</time>
      </trkpt>
      <trkpt lat="44.82215" lon="6.16629">
        <ele>1070.6</ele>
        <time>2024-08-13T09:11:54Z</time>
      </trkpt>
      <trkpt lat="44.82214" lon="6.16624">
        <ele>1070.2</ele>
        <time>2024-08-13T09:11:55Z</time>
      </trkpt>
      <trkpt lat="44.82214" lon="6.16624">
        <ele>1070.2</ele>
        <time>2024-08-13T09:11:56Z</time>
      </trkpt>
      <trkpt lat="44.82213" lon="6.1662">
        <ele>1070</ele>
        <time>2024-08-13T09:11:57Z</time>
      </trkpt>
      <trkpt lat="44.82213" lon="6.1662">
        <ele>1069.8</ele>
        <time>2024-08-13T09:11:58Z</time>
      </trkpt>
      <trkpt lat="44.82212" lon="6.16616">
        <ele>1069.6</ele>
        <time>2024-08-13T09:11:59Z</time>
      </trkpt>
      <trkpt lat="44.82212" lon="6.16616">
        <ele>1069.6</ele>
        <time>2024-08-13T09:12:00Z</time>
      </trkpt>
      <trkpt lat="44.82211" lon="6.16612">
        <ele>1069.6</ele>
        <time>2024-08-13T09:12:01Z</time>
      </trkpt>
      <trkpt lat="44.82211" lon="6.16612">
        <ele>1069.6</ele>
        <time>2024-08-13T09:12:02Z</time>
      </trkpt>
      <trkpt lat="44.82211" lon="6.16608">
        <ele>1069.6</ele>
        <time>2024-08-13T09:12:03Z</time>
      </trkpt>
      <trkpt lat="44.82211" lon="6.16608">
        <ele>1069.6</ele>
        <time>2024-08-13T09:12:04Z</time>
      </trkpt>
      <trkpt lat="44.8221" lon="6.16604">
        <ele>1069.6</ele>
        <time>2024-08-13T09:12:05Z</time>
      </trkpt>
      <trkpt lat="44.8221" lon="6.16604">
        <ele>1069.4</ele>
        <time>2024-08-13T09:12:06Z</time>
      </trkpt>
      <trkpt lat="44.82209" lon="6.166">
        <ele>1069.4</ele>
        <time>2024-08-13T09:12:07Z</time>
      </trkpt>
      <trkpt lat="44.82209" lon="6.166">
        <ele>1069.4</ele>
        <time>2024-08-13T09:12:08Z</time>
      </trkpt>
      <trkpt lat="44.82208" lon="6.16596">
        <ele>1069.2</ele>
        <time>2024-08-13T09:12:09Z</time>
      </trkpt>
      <trkpt lat="44.82208" lon="6.16596">
        <ele>1069.2</ele>
        <time>2024-08-13T09:12:10Z</time>
      </trkpt>
      <trkpt lat="44.82207" lon="6.16591">
        <ele>1069.2</ele>
        <time>2024-08-13T09:12:11Z</time>
      </trkpt>
      <trkpt lat="44.82207" lon="6.16591">
        <ele>1069.2</ele>
        <time>2024-08-13T09:12:12Z</time>
      </trkpt>
      <trkpt lat="44.82206" lon="6.16588">
        <ele>1069.2</ele>
        <time>2024-08-13T09:12:13Z</time>
      </trkpt>
      <trkpt lat="44.82206" lon="6.16588">
        <ele>1069</ele>
        <time>2024-08-13T09:12:14Z</time>
      </trkpt>
      <trkpt lat="44.82205" lon="6.16584">
        <ele>1069.4</ele>
        <time>2024-08-13T09:12:15Z</time>
      </trkpt>
      <trkpt lat="44.82205" lon="6.16584">
        <ele>1069.4</ele>
        <time>2024-08-13T09:12:16Z</time>
      </trkpt>
      <trkpt lat="44.82205" lon="6.1658">
        <ele>1069.2</ele>
        <time>2024-08-13T09:12:17Z</time>
      </trkpt>
      <trkpt lat="44.82205" lon="6.1658">
        <ele>1069</ele>
        <time>2024-08-13T09:12:18Z</time>
      </trkpt>
      <trkpt lat="44.82204" lon="6.16576">
        <ele>1068.8</ele>
        <time>2024-08-13T09:12:19Z</time>
      </trkpt>
      <trkpt lat="44.82204" lon="6.16576">
        <ele>1068.8</ele>
        <time>2024-08-13T09:12:20Z</time>
      </trkpt>
      <trkpt lat="44.82204" lon="6.16572">
        <ele>1068.8</ele>
        <time>2024-08-13T09:12:21Z</time>
      </trkpt>
      <trkpt lat="44.82204" lon="6.16572">
        <ele>1068.8</ele>
        <time>2024-08-13T09:12:22Z</time>
      </trkpt>
      <trkpt lat="44.82203" lon="6.16568">
        <ele>1068.8</ele>
        <time>2024-08-13T09:12:23Z</time>
      </trkpt>
      <trkpt lat="44.82203" lon="6.16568">
        <ele>1068.8</ele>
        <time>2024-08-13T09:12:24Z</time>
      </trkpt>
      <trkpt lat="44.82203" lon="6.16564">
        <ele>1068.8</ele>
        <time>2024-08-13T09:12:25Z</time>
      </trkpt>
      <trkpt lat="44.82203" lon="6.16564">
        <ele>1068.8</ele>
        <time>2024-08-13T09:12:26Z</time>
      </trkpt>
      <trkpt lat="44.82201" lon="6.1656">
        <ele>1068.8</ele>
        <time>2024-08-13T09:12:27Z</time>
      </trkpt>
      <trkpt lat="44.82201" lon="6.1656">
        <ele>1068.8</ele>
        <time>2024-08-13T09:12:28Z</time>
      </trkpt>
      <trkpt lat="44.82201" lon="6.16556">
        <ele>1068.8</ele>
        <time>2024-08-13T09:12:29Z</time>
      </trkpt>
      <trkpt lat="44.82201" lon="6.16556">
        <ele>1068.8</ele>
        <time>2024-08-13T09:12:30Z</time>
      </trkpt>
      <trkpt lat="44.822" lon="6.16552">
        <ele>1068.8</ele>
        <time>2024-08-13T09:12:31Z</time>
      </trkpt>
      <trkpt lat="44.822" lon="6.16552">
        <ele>1069</ele>
        <time>2024-08-13T09:12:32Z</time>
      </trkpt>
      <trkpt lat="44.82199" lon="6.16548">
        <ele>1069</ele>
        <time>2024-08-13T09:12:33Z</time>
      </trkpt>
      <trkpt lat="44.82199" lon="6.16548">
        <ele>1068.6</ele>
        <time>2024-08-13T09:12:34Z</time>
      </trkpt>
      <trkpt lat="44.82198" lon="6.16544">
        <ele>1068.4</ele>
        <time>2024-08-13T09:12:35Z</time>
      </trkpt>
      <trkpt lat="44.82198" lon="6.16544">
        <ele>1068.4</ele>
        <time>2024-08-13T09:12:36Z</time>
      </trkpt>
      <trkpt lat="44.82197" lon="6.16539">
        <ele>1068.6</ele>
        <time>2024-08-13T09:12:37Z</time>
      </trkpt>
      <trkpt lat="44.82197" lon="6.16539">
        <ele>1068.6</ele>
        <time>2024-08-13T09:12:38Z</time>
      </trkpt>
      <trkpt lat="44.82197" lon="6.16535">
        <ele>1068.6</ele>
        <time>2024-08-13T09:12:39Z</time>
      </trkpt>
      <trkpt lat="44.82197" lon="6.16535">
        <ele>1068.6</ele>
        <time>2024-08-13T09:12:40Z</time>
      </trkpt>
      <trkpt lat="44.82196" lon="6.16531">
        <ele>1068.4</ele>
        <time>2024-08-13T09:12:41Z</time>
      </trkpt>
      <trkpt lat="44.82196" lon="6.16531">
        <ele>1068.4</ele>
        <time>2024-08-13T09:12:42Z</time>
      </trkpt>
      <trkpt lat="44.82196" lon="6.16527">
        <ele>1068.4</ele>
        <time>2024-08-13T09:12:43Z</time>
      </trkpt>
      <trkpt lat="44.82196" lon="6.16527">
        <ele>1068.4</ele>
        <time>2024-08-13T09:12:44Z</time>
      </trkpt>
      <trkpt lat="44.82195" lon="6.16523">
        <ele>1068.4</ele>
        <time>2024-08-13T09:12:45Z</time>
      </trkpt>
      <trkpt lat="44.82195" lon="6.16523">
        <ele>1068.2</ele>
        <time>2024-08-13T09:12:46Z</time>
      </trkpt>
      <trkpt lat="44.82194" lon="6.16519">
        <ele>1068.2</ele>
        <time>2024-08-13T09:12:47Z</time>
      </trkpt>
      <trkpt lat="44.82194" lon="6.16519">
        <ele>1068</ele>
        <time>2024-08-13T09:12:48Z</time>
      </trkpt>
      <trkpt lat="44.82193" lon="6.16515">
        <ele>1067.8</ele>
        <time>2024-08-13T09:12:49Z</time>
      </trkpt>
      <trkpt lat="44.82193" lon="6.16515">
        <ele>1067.8</ele>
        <time>2024-08-13T09:12:50Z</time>
      </trkpt>
      <trkpt lat="44.82193" lon="6.16511">
        <ele>1067.8</ele>
        <time>2024-08-13T09:12:51Z</time>
      </trkpt>
      <trkpt lat="44.82193" lon="6.16511">
        <ele>1067.8</ele>
        <time>2024-08-13T09:12:52Z</time>
      </trkpt>
      <trkpt lat="44.82192" lon="6.16507">
        <ele>1067.8</ele>
        <time>2024-08-13T09:12:53Z</time>
      </trkpt>
      <trkpt lat="44.82192" lon="6.16507">
        <ele>1067.8</ele>
        <time>2024-08-13T09:12:54Z</time>
      </trkpt>
      <trkpt lat="44.82191" lon="6.16503">
        <ele>1068</ele>
        <time>2024-08-13T09:12:55Z</time>
      </trkpt>
      <trkpt lat="44.82191" lon="6.16503">
        <ele>1068</ele>
        <time>2024-08-13T09:12:56Z</time>
      </trkpt>
      <trkpt lat="44.8219" lon="6.16498">
        <ele>1068</ele>
        <time>2024-08-13T09:12:57Z</time>
      </trkpt>
      <trkpt lat="44.8219" lon="6.16498">
        <ele>1068</ele>
        <time>2024-08-13T09:12:58Z</time>
      </trkpt>
      <trkpt lat="44.82189" lon="6.16495">
        <ele>1068</ele>
        <time>2024-08-13T09:12:59Z</time>
      </trkpt>
      <trkpt lat="44.82189" lon="6.16495">
        <ele>1068</ele>
        <time>2024-08-13T09:13:00Z</time>
      </trkpt>
      <trkpt lat="44.82189" lon="6.16491">
        <ele>1068</ele>
        <time>2024-08-13T09:13:01Z</time>
      </trkpt>
      <trkpt lat="44.82189" lon="6.16491">
        <ele>1068</ele>
        <time>2024-08-13T09:13:02Z</time>
      </trkpt>
      <trkpt lat="44.82189" lon="6.16487">
        <ele>1068</ele>
        <time>2024-08-13T09:13:03Z</time>
      </trkpt>
      <trkpt lat="44.82189" lon="6.16487">
        <ele>1068</ele>
        <time>2024-08-13T09:13:04Z</time>
      </trkpt>
      <trkpt lat="44.82188" lon="6.16483">
        <ele>1068</ele>
        <time>2024-08-13T09:13:05Z</time>
      </trkpt>
      <trkpt lat="44.82188" lon="6.16483">
        <ele>1068.2</ele>
        <time>2024-08-13T09:13:06Z</time>
      </trkpt>
      <trkpt lat="44.82187" lon="6.16479">
        <ele>1068.2</ele>
        <time>2024-08-13T09:13:07Z</time>
      </trkpt>
      <trkpt lat="44.82187" lon="6.16479">
        <ele>1068.2</ele>
        <time>2024-08-13T09:13:08Z</time>
      </trkpt>
      <trkpt lat="44.82186" lon="6.16475">
        <ele>1067.8</ele>
        <time>2024-08-13T09:13:09Z</time>
      </trkpt>
      <trkpt lat="44.82186" lon="6.16475">
        <ele>1067.8</ele>
        <time>2024-08-13T09:13:10Z</time>
      </trkpt>
      <trkpt lat="44.82185" lon="6.16471">
        <ele>1067.8</ele>
        <time>2024-08-13T09:13:11Z</time>
      </trkpt>
      <trkpt lat="44.82185" lon="6.16471">
        <ele>1067.8</ele>
        <time>2024-08-13T09:13:12Z</time>
      </trkpt>
      <trkpt lat="44.82184" lon="6.16468">
        <ele>1067.6</ele>
        <time>2024-08-13T09:13:13Z</time>
      </trkpt>
      <trkpt lat="44.82184" lon="6.16468">
        <ele>1067.6</ele>
        <time>2024-08-13T09:13:14Z</time>
      </trkpt>
      <trkpt lat="44.82183" lon="6.16464">
        <ele>1067.8</ele>
        <time>2024-08-13T09:13:15Z</time>
      </trkpt>
      <trkpt lat="44.82183" lon="6.16464">
        <ele>1067.8</ele>
        <time>2024-08-13T09:13:16Z</time>
      </trkpt>
      <trkpt lat="44.82182" lon="6.16461">
        <ele>1067.6</ele>
        <time>2024-08-13T09:13:17Z</time>
      </trkpt>
      <trkpt lat="44.82182" lon="6.16461">
        <ele>1067.4</ele>
        <time>2024-08-13T09:13:18Z</time>
      </trkpt>
      <trkpt lat="44.82181" lon="6.16457">
        <ele>1067.4</ele>
        <time>2024-08-13T09:13:19Z</time>
      </trkpt>
      <trkpt lat="44.8218" lon="6.16455">
        <ele>1067.4</ele>
        <time>2024-08-13T09:13:20Z</time>
      </trkpt>
      <trkpt lat="44.8218" lon="6.16455">
        <ele>1067.4</ele>
        <time>2024-08-13T09:13:21Z</time>
      </trkpt>
      <trkpt lat="44.82179" lon="6.16451">
        <ele>1067.2</ele>
        <time>2024-08-13T09:13:22Z</time>
      </trkpt>
      <trkpt lat="44.82179" lon="6.16451">
        <ele>1067.2</ele>
        <time>2024-08-13T09:13:23Z</time>
      </trkpt>
      <trkpt lat="44.82178" lon="6.16448">
        <ele>1067.2</ele>
        <time>2024-08-13T09:13:24Z</time>
      </trkpt>
      <trkpt lat="44.82178" lon="6.16448">
        <ele>1067.2</ele>
        <time>2024-08-13T09:13:25Z</time>
      </trkpt>
      <trkpt lat="44.82177" lon="6.16444">
        <ele>1067.2</ele>
        <time>2024-08-13T09:13:26Z</time>
      </trkpt>
      <trkpt lat="44.82177" lon="6.16444">
        <ele>1067.2</ele>
        <time>2024-08-13T09:13:27Z</time>
      </trkpt>
      <trkpt lat="44.82176" lon="6.1644">
        <ele>1067.2</ele>
        <time>2024-08-13T09:13:28Z</time>
      </trkpt>
      <trkpt lat="44.82176" lon="6.1644">
        <ele>1067.2</ele>
        <time>2024-08-13T09:13:29Z</time>
      </trkpt>
      <trkpt lat="44.82175" lon="6.16436">
        <ele>1067.2</ele>
        <time>2024-08-13T09:13:30Z</time>
      </trkpt>
      <trkpt lat="44.82175" lon="6.16436">
        <ele>1067.2</ele>
        <time>2024-08-13T09:13:31Z</time>
      </trkpt>
      <trkpt lat="44.82173" lon="6.16432">
        <ele>1067.2</ele>
        <time>2024-08-13T09:13:32Z</time>
      </trkpt>
      <trkpt lat="44.82173" lon="6.16432">
        <ele>1067.2</ele>
        <time>2024-08-13T09:13:33Z</time>
      </trkpt>
      <trkpt lat="44.82173" lon="6.16429">
        <ele>1067.2</ele>
        <time>2024-08-13T09:13:34Z</time>
      </trkpt>
      <trkpt lat="44.82173" lon="6.16429">
        <ele>1067.2</ele>
        <time>2024-08-13T09:13:35Z</time>
      </trkpt>
      <trkpt lat="44.82171" lon="6.16426">
        <ele>1067.2</ele>
        <time>2024-08-13T09:13:36Z</time>
      </trkpt>
      <trkpt lat="44.82171" lon="6.16426">
        <ele>1067.2</ele>
        <time>2024-08-13T09:13:37Z</time>
      </trkpt>
      <trkpt lat="44.8217" lon="6.16423">
        <ele>1067.2</ele>
        <time>2024-08-13T09:13:38Z</time>
      </trkpt>
      <trkpt lat="44.8217" lon="6.16423">
        <ele>1067.2</ele>
        <time>2024-08-13T09:13:39Z</time>
      </trkpt>
      <trkpt lat="44.82168" lon="6.1642">
        <ele>1067.2</ele>
        <time>2024-08-13T09:13:40Z</time>
      </trkpt>
      <trkpt lat="44.82168" lon="6.1642">
        <ele>1067.2</ele>
        <time>2024-08-13T09:13:41Z</time>
      </trkpt>
      <trkpt lat="44.82167" lon="6.16416">
        <ele>1067.2</ele>
        <time>2024-08-13T09:13:42Z</time>
      </trkpt>
      <trkpt lat="44.82167" lon="6.16416">
        <ele>1067.2</ele>
        <time>2024-08-13T09:13:43Z</time>
      </trkpt>
      <trkpt lat="44.82165" lon="6.16412">
        <ele>1067.2</ele>
        <time>2024-08-13T09:13:44Z</time>
      </trkpt>
      <trkpt lat="44.82165" lon="6.16412">
        <ele>1067</ele>
        <time>2024-08-13T09:13:45Z</time>
      </trkpt>
      <trkpt lat="44.82165" lon="6.16408">
        <ele>1067</ele>
        <time>2024-08-13T09:13:46Z</time>
      </trkpt>
      <trkpt lat="44.82165" lon="6.16408">
        <ele>1067</ele>
        <time>2024-08-13T09:13:47Z</time>
      </trkpt>
      <trkpt lat="44.82163" lon="6.16405">
        <ele>1067</ele>
        <time>2024-08-13T09:13:48Z</time>
      </trkpt>
      <trkpt lat="44.82163" lon="6.16405">
        <ele>1067</ele>
        <time>2024-08-13T09:13:49Z</time>
      </trkpt>
      <trkpt lat="44.82162" lon="6.16401">
        <ele>1067</ele>
        <time>2024-08-13T09:13:50Z</time>
      </trkpt>
      <trkpt lat="44.82162" lon="6.16401">
        <ele>1067</ele>
        <time>2024-08-13T09:13:51Z</time>
      </trkpt>
      <trkpt lat="44.82161" lon="6.16398">
        <ele>1067</ele>
        <time>2024-08-13T09:13:52Z</time>
      </trkpt>
      <trkpt lat="44.82161" lon="6.16398">
        <ele>1067</ele>
        <time>2024-08-13T09:13:53Z</time>
      </trkpt>
      <trkpt lat="44.8216" lon="6.16394">
        <ele>1066.8</ele>
        <time>2024-08-13T09:13:54Z</time>
      </trkpt>
      <trkpt lat="44.8216" lon="6.16394">
        <ele>1066.6</ele>
        <time>2024-08-13T09:13:55Z</time>
      </trkpt>
      <trkpt lat="44.82158" lon="6.1639">
        <ele>1066.6</ele>
        <time>2024-08-13T09:13:56Z</time>
      </trkpt>
      <trkpt lat="44.82158" lon="6.1639">
        <ele>1066.6</ele>
        <time>2024-08-13T09:13:57Z</time>
      </trkpt>
      <trkpt lat="44.82157" lon="6.16387">
        <ele>1066.6</ele>
        <time>2024-08-13T09:13:58Z</time>
      </trkpt>
      <trkpt lat="44.82157" lon="6.16387">
        <ele>1066.4</ele>
        <time>2024-08-13T09:13:59Z</time>
      </trkpt>
      <trkpt lat="44.82157" lon="6.16383">
        <ele>1066.4</ele>
        <time>2024-08-13T09:14:00Z</time>
      </trkpt>
      <trkpt lat="44.82157" lon="6.16383">
        <ele>1066.6</ele>
        <time>2024-08-13T09:14:01Z</time>
      </trkpt>
      <trkpt lat="44.82155" lon="6.1638">
        <ele>1066.8</ele>
        <time>2024-08-13T09:14:02Z</time>
      </trkpt>
      <trkpt lat="44.82155" lon="6.1638">
        <ele>1066.6</ele>
        <time>2024-08-13T09:14:03Z</time>
      </trkpt>
      <trkpt lat="44.82153" lon="6.16377">
        <ele>1067</ele>
        <time>2024-08-13T09:14:04Z</time>
      </trkpt>
      <trkpt lat="44.82153" lon="6.16377">
        <ele>1067</ele>
        <time>2024-08-13T09:14:05Z</time>
      </trkpt>
      <trkpt lat="44.82152" lon="6.16375">
        <ele>1067</ele>
        <time>2024-08-13T09:14:06Z</time>
      </trkpt>
      <trkpt lat="44.82152" lon="6.16375">
        <ele>1066.8</ele>
        <time>2024-08-13T09:14:07Z</time>
      </trkpt>
      <trkpt lat="44.8215" lon="6.16372">
        <ele>1066.8</ele>
        <time>2024-08-13T09:14:08Z</time>
      </trkpt>
      <trkpt lat="44.8215" lon="6.16372">
        <ele>1066.8</ele>
        <time>2024-08-13T09:14:09Z</time>
      </trkpt>
      <trkpt lat="44.82149" lon="6.1637">
        <ele>1066.8</ele>
        <time>2024-08-13T09:14:10Z</time>
      </trkpt>
      <trkpt lat="44.82149" lon="6.1637">
        <ele>1066.8</ele>
        <time>2024-08-13T09:14:11Z</time>
      </trkpt>
      <trkpt lat="44.82147" lon="6.16366">
        <ele>1066.8</ele>
        <time>2024-08-13T09:14:12Z</time>
      </trkpt>
      <trkpt lat="44.82147" lon="6.16366">
        <ele>1067</ele>
        <time>2024-08-13T09:14:13Z</time>
      </trkpt>
      <trkpt lat="44.82146" lon="6.16363">
        <ele>1067</ele>
        <time>2024-08-13T09:14:14Z</time>
      </trkpt>
      <trkpt lat="44.82146" lon="6.16363">
        <ele>1066.8</ele>
        <time>2024-08-13T09:14:15Z</time>
      </trkpt>
      <trkpt lat="44.82144" lon="6.16359">
        <ele>1066.8</ele>
        <time>2024-08-13T09:14:16Z</time>
      </trkpt>
      <trkpt lat="44.82144" lon="6.16359">
        <ele>1066.8</ele>
        <time>2024-08-13T09:14:17Z</time>
      </trkpt>
      <trkpt lat="44.82142" lon="6.16356">
        <ele>1066.8</ele>
        <time>2024-08-13T09:14:18Z</time>
      </trkpt>
      <trkpt lat="44.82142" lon="6.16356">
        <ele>1066.8</ele>
        <time>2024-08-13T09:14:19Z</time>
      </trkpt>
      <trkpt lat="44.82141" lon="6.16352">
        <ele>1066.8</ele>
        <time>2024-08-13T09:14:20Z</time>
      </trkpt>
      <trkpt lat="44.82141" lon="6.16352">
        <ele>1066.8</ele>
        <time>2024-08-13T09:14:21Z</time>
      </trkpt>
      <trkpt lat="44.8214" lon="6.16348">
        <ele>1066.8</ele>
        <time>2024-08-13T09:14:22Z</time>
      </trkpt>
      <trkpt lat="44.8214" lon="6.16348">
        <ele>1066.8</ele>
        <time>2024-08-13T09:14:23Z</time>
      </trkpt>
      <trkpt lat="44.82139" lon="6.16344">
        <ele>1066.8</ele>
        <time>2024-08-13T09:14:24Z</time>
      </trkpt>
      <trkpt lat="44.82139" lon="6.16344">
        <ele>1066.8</ele>
        <time>2024-08-13T09:14:25Z</time>
      </trkpt>
      <trkpt lat="44.82138" lon="6.1634">
        <ele>1066.6</ele>
        <time>2024-08-13T09:14:26Z</time>
      </trkpt>
      <trkpt lat="44.82138" lon="6.1634">
        <ele>1066.6</ele>
        <time>2024-08-13T09:14:27Z</time>
      </trkpt>
      <trkpt lat="44.82137" lon="6.16336">
        <ele>1066.4</ele>
        <time>2024-08-13T09:14:28Z</time>
      </trkpt>
      <trkpt lat="44.82137" lon="6.16336">
        <ele>1066.4</ele>
        <time>2024-08-13T09:14:29Z</time>
      </trkpt>
      <trkpt lat="44.82136" lon="6.16333">
        <ele>1066.4</ele>
        <time>2024-08-13T09:14:30Z</time>
      </trkpt>
      <trkpt lat="44.82136" lon="6.16333">
        <ele>1066.4</ele>
        <time>2024-08-13T09:14:31Z</time>
      </trkpt>
      <trkpt lat="44.82135" lon="6.1633">
        <ele>1066.4</ele>
        <time>2024-08-13T09:14:32Z</time>
      </trkpt>
      <trkpt lat="44.82135" lon="6.1633">
        <ele>1066.4</ele>
        <time>2024-08-13T09:14:33Z</time>
      </trkpt>
      <trkpt lat="44.82133" lon="6.16326">
        <ele>1066.4</ele>
        <time>2024-08-13T09:14:34Z</time>
      </trkpt>
      <trkpt lat="44.82133" lon="6.16326">
        <ele>1066.2</ele>
        <time>2024-08-13T09:14:35Z</time>
      </trkpt>
      <trkpt lat="44.82132" lon="6.16323">
        <ele>1066.2</ele>
        <time>2024-08-13T09:14:36Z</time>
      </trkpt>
      <trkpt lat="44.82132" lon="6.16323">
        <ele>1066.2</ele>
        <time>2024-08-13T09:14:37Z</time>
      </trkpt>
      <trkpt lat="44.82131" lon="6.1632">
        <ele>1066.2</ele>
        <time>2024-08-13T09:14:38Z</time>
      </trkpt>
      <trkpt lat="44.82131" lon="6.1632">
        <ele>1066</ele>
        <time>2024-08-13T09:14:39Z</time>
      </trkpt>
      <trkpt lat="44.82129" lon="6.16316">
        <ele>1066</ele>
        <time>2024-08-13T09:14:40Z</time>
      </trkpt>
      <trkpt lat="44.82129" lon="6.16316">
        <ele>1066</ele>
        <time>2024-08-13T09:14:41Z</time>
      </trkpt>
      <trkpt lat="44.82128" lon="6.16312">
        <ele>1066.2</ele>
        <time>2024-08-13T09:14:42Z</time>
      </trkpt>
      <trkpt lat="44.82128" lon="6.16312">
        <ele>1066.2</ele>
        <time>2024-08-13T09:14:43Z</time>
      </trkpt>
      <trkpt lat="44.82127" lon="6.16309">
        <ele>1066</ele>
        <time>2024-08-13T09:14:44Z</time>
      </trkpt>
      <trkpt lat="44.82126" lon="6.16307">
        <ele>1066</ele>
        <time>2024-08-13T09:14:45Z</time>
      </trkpt>
      <trkpt lat="44.82125" lon="6.16304">
        <ele>1066</ele>
        <time>2024-08-13T09:14:46Z</time>
      </trkpt>
      <trkpt lat="44.82125" lon="6.16304">
        <ele>1065.8</ele>
        <time>2024-08-13T09:14:47Z</time>
      </trkpt>
      <trkpt lat="44.82123" lon="6.16301">
        <ele>1065.6</ele>
        <time>2024-08-13T09:14:48Z</time>
      </trkpt>
      <trkpt lat="44.82122" lon="6.16299">
        <ele>1065.6</ele>
        <time>2024-08-13T09:14:49Z</time>
      </trkpt>
      <trkpt lat="44.82122" lon="6.16299">
        <ele>1065.6</ele>
        <time>2024-08-13T09:14:50Z</time>
      </trkpt>
      <trkpt lat="44.82121" lon="6.16294">
        <ele>1065.6</ele>
        <time>2024-08-13T09:14:51Z</time>
      </trkpt>
      <trkpt lat="44.82121" lon="6.16294">
        <ele>1065.6</ele>
        <time>2024-08-13T09:14:52Z</time>
      </trkpt>
      <trkpt lat="44.8212" lon="6.1629">
        <ele>1065.4</ele>
        <time>2024-08-13T09:14:53Z</time>
      </trkpt>
      <trkpt lat="44.8212" lon="6.1629">
        <ele>1065</ele>
        <time>2024-08-13T09:14:54Z</time>
      </trkpt>
      <trkpt lat="44.82119" lon="6.16286">
        <ele>1064.8</ele>
        <time>2024-08-13T09:14:55Z</time>
      </trkpt>
      <trkpt lat="44.82117" lon="6.16284">
        <ele>1064.8</ele>
        <time>2024-08-13T09:14:56Z</time>
      </trkpt>
      <trkpt lat="44.82117" lon="6.16282">
        <ele>1064.6</ele>
        <time>2024-08-13T09:14:57Z</time>
      </trkpt>
      <trkpt lat="44.82117" lon="6.16282">
        <ele>1064.4</ele>
        <time>2024-08-13T09:14:58Z</time>
      </trkpt>
      <trkpt lat="44.82116" lon="6.16277">
        <ele>1064</ele>
        <time>2024-08-13T09:14:59Z</time>
      </trkpt>
      <trkpt lat="44.82116" lon="6.16277">
        <ele>1063.8</ele>
        <time>2024-08-13T09:15:00Z</time>
      </trkpt>
      <trkpt lat="44.82116" lon="6.16274">
        <ele>1063.4</ele>
        <time>2024-08-13T09:15:01Z</time>
      </trkpt>
      <trkpt lat="44.82116" lon="6.16274">
        <ele>1063</ele>
        <time>2024-08-13T09:15:02Z</time>
      </trkpt>
      <trkpt lat="44.82115" lon="6.1627">
        <ele>1063</ele>
        <time>2024-08-13T09:15:03Z</time>
      </trkpt>
      <trkpt lat="44.82115" lon="6.1627">
        <ele>1063</ele>
        <time>2024-08-13T09:15:04Z</time>
      </trkpt>
      <trkpt lat="44.82115" lon="6.16266">
        <ele>1063</ele>
        <time>2024-08-13T09:15:05Z</time>
      </trkpt>
      <trkpt lat="44.82115" lon="6.16266">
        <ele>1063</ele>
        <time>2024-08-13T09:15:06Z</time>
      </trkpt>
      <trkpt lat="44.82115" lon="6.16264">
        <ele>1063</ele>
        <time>2024-08-13T09:15:07Z</time>
      </trkpt>
      <trkpt lat="44.82115" lon="6.16264">
        <ele>1063.4</ele>
        <time>2024-08-13T09:15:08Z</time>
      </trkpt>
      <trkpt lat="44.82114" lon="6.16261">
        <ele>1063.8</ele>
        <time>2024-08-13T09:15:09Z</time>
      </trkpt>
      <trkpt lat="44.82114" lon="6.16261">
        <ele>1064.2</ele>
        <time>2024-08-13T09:15:10Z</time>
      </trkpt>
      <trkpt lat="44.82113" lon="6.16258">
        <ele>1064.4</ele>
        <time>2024-08-13T09:15:11Z</time>
      </trkpt>
      <trkpt lat="44.82113" lon="6.16258">
        <ele>1064.4</ele>
        <time>2024-08-13T09:15:12Z</time>
      </trkpt>
      <trkpt lat="44.82113" lon="6.16255">
        <ele>1064.6</ele>
        <time>2024-08-13T09:15:13Z</time>
      </trkpt>
      <trkpt lat="44.82113" lon="6.16255">
        <ele>1064.8</ele>
        <time>2024-08-13T09:15:14Z</time>
      </trkpt>
      <trkpt lat="44.82113" lon="6.16251">
        <ele>1064.8</ele>
        <time>2024-08-13T09:15:15Z</time>
      </trkpt>
      <trkpt lat="44.82113" lon="6.16251">
        <ele>1065</ele>
        <time>2024-08-13T09:15:16Z</time>
      </trkpt>
      <trkpt lat="44.82112" lon="6.16248">
        <ele>1065</ele>
        <time>2024-08-13T09:15:17Z</time>
      </trkpt>
      <trkpt lat="44.82112" lon="6.16248">
        <ele>1065.2</ele>
        <time>2024-08-13T09:15:18Z</time>
      </trkpt>
      <trkpt lat="44.82111" lon="6.16245">
        <ele>1065.4</ele>
        <time>2024-08-13T09:15:19Z</time>
      </trkpt>
      <trkpt lat="44.82111" lon="6.16245">
        <ele>1065.4</ele>
        <time>2024-08-13T09:15:20Z</time>
      </trkpt>
      <trkpt lat="44.82111" lon="6.16243">
        <ele>1065.4</ele>
        <time>2024-08-13T09:15:21Z</time>
      </trkpt>
      <trkpt lat="44.82111" lon="6.16243">
        <ele>1065.2</ele>
        <time>2024-08-13T09:15:22Z</time>
      </trkpt>
      <trkpt lat="44.82111" lon="6.16243">
        <ele>1065.4</ele>
        <time>2024-08-13T09:15:23Z</time>
      </trkpt>
      <trkpt lat="44.82109" lon="6.1624">
        <ele>1065.4</ele>
        <time>2024-08-13T09:15:24Z</time>
      </trkpt>
      <trkpt lat="44.82109" lon="6.1624">
        <ele>1065.4</ele>
        <time>2024-08-13T09:15:25Z</time>
      </trkpt>
      <trkpt lat="44.82107" lon="6.16239">
        <ele>1065.4</ele>
        <time>2024-08-13T09:15:26Z</time>
      </trkpt>
      <trkpt lat="44.82107" lon="6.16239">
        <ele>1065.4</ele>
        <time>2024-08-13T09:15:27Z</time>
      </trkpt>
      <trkpt lat="44.82105" lon="6.16238">
        <ele>1065.4</ele>
        <time>2024-08-13T09:15:28Z</time>
      </trkpt>
      <trkpt lat="44.82105" lon="6.16238">
        <ele>1065.4</ele>
        <time>2024-08-13T09:15:29Z</time>
      </trkpt>
      <trkpt lat="44.82103" lon="6.16235">
        <ele>1065.4</ele>
        <time>2024-08-13T09:15:30Z</time>
      </trkpt>
      <trkpt lat="44.82103" lon="6.16235">
        <ele>1065.4</ele>
        <time>2024-08-13T09:15:31Z</time>
      </trkpt>
      <trkpt lat="44.82101" lon="6.16234">
        <ele>1065.4</ele>
        <time>2024-08-13T09:15:32Z</time>
      </trkpt>
      <trkpt lat="44.82101" lon="6.16234">
        <ele>1065.2</ele>
        <time>2024-08-13T09:15:33Z</time>
      </trkpt>
      <trkpt lat="44.82099" lon="6.16232">
        <ele>1065.2</ele>
        <time>2024-08-13T09:15:34Z</time>
      </trkpt>
      <trkpt lat="44.82097" lon="6.16231">
        <ele>1065.2</ele>
        <time>2024-08-13T09:15:35Z</time>
      </trkpt>
      <trkpt lat="44.82097" lon="6.16231">
        <ele>1065.2</ele>
        <time>2024-08-13T09:15:36Z</time>
      </trkpt>
      <trkpt lat="44.82095" lon="6.1623">
        <ele>1065</ele>
        <time>2024-08-13T09:15:37Z</time>
      </trkpt>
      <trkpt lat="44.82095" lon="6.1623">
        <ele>1064.8</ele>
        <time>2024-08-13T09:15:38Z</time>
      </trkpt>
      <trkpt lat="44.82095" lon="6.1623">
        <ele>1064.6</ele>
        <time>2024-08-13T09:15:39Z</time>
      </trkpt>
      <trkpt lat="44.82093" lon="6.16229">
        <ele>1064.6</ele>
        <time>2024-08-13T09:15:40Z</time>
      </trkpt>
      <trkpt lat="44.82093" lon="6.16229">
        <ele>1064.2</ele>
        <time>2024-08-13T09:15:41Z</time>
      </trkpt>
      <trkpt lat="44.82093" lon="6.16229">
        <ele>1064.2</ele>
        <time>2024-08-13T09:15:42Z</time>
      </trkpt>
      <trkpt lat="44.82093" lon="6.16229">
        <ele>1064</ele>
        <time>2024-08-13T09:15:43Z</time>
      </trkpt>
      <trkpt lat="44.82093" lon="6.16229">
        <ele>1064</ele>
        <time>2024-08-13T09:15:44Z</time>
      </trkpt>
      <trkpt lat="44.82094" lon="6.16225">
        <ele>1064</ele>
        <time>2024-08-13T09:15:45Z</time>
      </trkpt>
      <trkpt lat="44.82094" lon="6.16225">
        <ele>1064</ele>
        <time>2024-08-13T09:15:46Z</time>
      </trkpt>
      <trkpt lat="44.82096" lon="6.16222">
        <ele>1064</ele>
        <time>2024-08-13T09:15:47Z</time>
      </trkpt>
      <trkpt lat="44.82096" lon="6.16222">
        <ele>1063.8</ele>
        <time>2024-08-13T09:15:48Z</time>
      </trkpt>
      <trkpt lat="44.82098" lon="6.16219">
        <ele>1063.6</ele>
        <time>2024-08-13T09:15:49Z</time>
      </trkpt>
      <trkpt lat="44.82098" lon="6.16219">
        <ele>1063.4</ele>
        <time>2024-08-13T09:15:50Z</time>
      </trkpt>
      <trkpt lat="44.821" lon="6.16216">
        <ele>1063.2</ele>
        <time>2024-08-13T09:15:51Z</time>
      </trkpt>
      <trkpt lat="44.82102" lon="6.16215">
        <ele>1063.2</ele>
        <time>2024-08-13T09:15:52Z</time>
      </trkpt>
      <trkpt lat="44.82102" lon="6.16215">
        <ele>1063.4</ele>
        <time>2024-08-13T09:15:53Z</time>
      </trkpt>
      <trkpt lat="44.82104" lon="6.16212">
        <ele>1063.4</ele>
        <time>2024-08-13T09:15:54Z</time>
      </trkpt>
      <trkpt lat="44.82104" lon="6.16212">
        <ele>1063.4</ele>
        <time>2024-08-13T09:15:55Z</time>
      </trkpt>
      <trkpt lat="44.82105" lon="6.16209">
        <ele>1063.6</ele>
        <time>2024-08-13T09:15:56Z</time>
      </trkpt>
      <trkpt lat="44.82105" lon="6.16209">
        <ele>1063.8</ele>
        <time>2024-08-13T09:15:57Z</time>
      </trkpt>
      <trkpt lat="44.82107" lon="6.16206">
        <ele>1063.8</ele>
        <time>2024-08-13T09:15:58Z</time>
      </trkpt>
      <trkpt lat="44.82107" lon="6.16206">
        <ele>1064</ele>
        <time>2024-08-13T09:15:59Z</time>
      </trkpt>
      <trkpt lat="44.82107" lon="6.16206">
        <ele>1064.2</ele>
        <time>2024-08-13T09:16:00Z</time>
      </trkpt>
      <trkpt lat="44.82108" lon="6.16202">
        <ele>1064.2</ele>
        <time>2024-08-13T09:16:01Z</time>
      </trkpt>
      <trkpt lat="44.82108" lon="6.16202">
        <ele>1064</ele>
        <time>2024-08-13T09:16:02Z</time>
      </trkpt>
      <trkpt lat="44.8211" lon="6.16199">
        <ele>1064</ele>
        <time>2024-08-13T09:16:03Z</time>
      </trkpt>
      <trkpt lat="44.8211" lon="6.16199">
        <ele>1064</ele>
        <time>2024-08-13T09:16:04Z</time>
      </trkpt>
      <trkpt lat="44.82111" lon="6.16196">
        <ele>1064</ele>
        <time>2024-08-13T09:16:05Z</time>
      </trkpt>
      <trkpt lat="44.82113" lon="6.16194">
        <ele>1064</ele>
        <time>2024-08-13T09:16:06Z</time>
      </trkpt>
      <trkpt lat="44.82113" lon="6.16194">
        <ele>1064</ele>
        <time>2024-08-13T09:16:07Z</time>
      </trkpt>
      <trkpt lat="44.82114" lon="6.16192">
        <ele>1064</ele>
        <time>2024-08-13T09:16:08Z</time>
      </trkpt>
      <trkpt lat="44.82114" lon="6.16192">
        <ele>1064.2</ele>
        <time>2024-08-13T09:16:09Z</time>
      </trkpt>
      <trkpt lat="44.82115" lon="6.16189">
        <ele>1064.4</ele>
        <time>2024-08-13T09:16:10Z</time>
      </trkpt>
      <trkpt lat="44.82115" lon="6.16189">
        <ele>1064.6</ele>
        <time>2024-08-13T09:16:11Z</time>
      </trkpt>
      <trkpt lat="44.82115" lon="6.16185">
        <ele>1064.6</ele>
        <time>2024-08-13T09:16:12Z</time>
      </trkpt>
      <trkpt lat="44.82115" lon="6.16185">
        <ele>1064.6</ele>
        <time>2024-08-13T09:16:13Z</time>
      </trkpt>
      <trkpt lat="44.82116" lon="6.16182">
        <ele>1064.6</ele>
        <time>2024-08-13T09:16:14Z</time>
      </trkpt>
      <trkpt lat="44.82116" lon="6.16182">
        <ele>1064.8</ele>
        <time>2024-08-13T09:16:15Z</time>
      </trkpt>
      <trkpt lat="44.82117" lon="6.16178">
        <ele>1064.8</ele>
        <time>2024-08-13T09:16:16Z</time>
      </trkpt>
      <trkpt lat="44.82117" lon="6.16178">
        <ele>1064.8</ele>
        <time>2024-08-13T09:16:17Z</time>
      </trkpt>
      <trkpt lat="44.82118" lon="6.16175">
        <ele>1065</ele>
        <time>2024-08-13T09:16:18Z</time>
      </trkpt>
      <trkpt lat="44.82118" lon="6.16175">
        <ele>1065.2</ele>
        <time>2024-08-13T09:16:19Z</time>
      </trkpt>
      <trkpt lat="44.82119" lon="6.16171">
        <ele>1065.2</ele>
        <time>2024-08-13T09:16:20Z</time>
      </trkpt>
      <trkpt lat="44.82119" lon="6.16171">
        <ele>1065.2</ele>
        <time>2024-08-13T09:16:21Z</time>
      </trkpt>
      <trkpt lat="44.8212" lon="6.16168">
        <ele>1065.2</ele>
        <time>2024-08-13T09:16:22Z</time>
      </trkpt>
      <trkpt lat="44.8212" lon="6.16168">
        <ele>1065.2</ele>
        <time>2024-08-13T09:16:23Z</time>
      </trkpt>
      <trkpt lat="44.8212" lon="6.16164">
        <ele>1065.2</ele>
        <time>2024-08-13T09:16:24Z</time>
      </trkpt>
      <trkpt lat="44.8212" lon="6.16164">
        <ele>1065.2</ele>
        <time>2024-08-13T09:16:25Z</time>
      </trkpt>
      <trkpt lat="44.82121" lon="6.1616">
        <ele>1065.2</ele>
        <time>2024-08-13T09:16:26Z</time>
      </trkpt>
      <trkpt lat="44.8212" lon="6.16157">
        <ele>1065.2</ele>
        <time>2024-08-13T09:16:27Z</time>
      </trkpt>
      <trkpt lat="44.8212" lon="6.16157">
        <ele>1065.2</ele>
        <time>2024-08-13T09:16:28Z</time>
      </trkpt>
      <trkpt lat="44.82119" lon="6.16152">
        <ele>1065.2</ele>
        <time>2024-08-13T09:16:29Z</time>
      </trkpt>
      <trkpt lat="44.82119" lon="6.16149">
        <ele>1065</ele>
        <time>2024-08-13T09:16:30Z</time>
      </trkpt>
      <trkpt lat="44.82119" lon="6.16149">
        <ele>1065</ele>
        <time>2024-08-13T09:16:31Z</time>
      </trkpt>
      <trkpt lat="44.82118" lon="6.16145">
        <ele>1065.2</ele>
        <time>2024-08-13T09:16:32Z</time>
      </trkpt>
      <trkpt lat="44.82118" lon="6.16145">
        <ele>1065.2</ele>
        <time>2024-08-13T09:16:33Z</time>
      </trkpt>
      <trkpt lat="44.82119" lon="6.16141">
        <ele>1065</ele>
        <time>2024-08-13T09:16:34Z</time>
      </trkpt>
      <trkpt lat="44.82119" lon="6.16141">
        <ele>1064.8</ele>
        <time>2024-08-13T09:16:35Z</time>
      </trkpt>
      <trkpt lat="44.8212" lon="6.16138">
        <ele>1064.8</ele>
        <time>2024-08-13T09:16:36Z</time>
      </trkpt>
      <trkpt lat="44.8212" lon="6.16138">
        <ele>1064.4</ele>
        <time>2024-08-13T09:16:37Z</time>
      </trkpt>
      <trkpt lat="44.82121" lon="6.16133">
        <ele>1064.4</ele>
        <time>2024-08-13T09:16:38Z</time>
      </trkpt>
      <trkpt lat="44.82121" lon="6.16133">
        <ele>1064.6</ele>
        <time>2024-08-13T09:16:39Z</time>
      </trkpt>
      <trkpt lat="44.82122" lon="6.1613">
        <ele>1064.6</ele>
        <time>2024-08-13T09:16:40Z</time>
      </trkpt>
      <trkpt lat="44.82122" lon="6.1613">
        <ele>1064.4</ele>
        <time>2024-08-13T09:16:41Z</time>
      </trkpt>
      <trkpt lat="44.82122" lon="6.16126">
        <ele>1064.2</ele>
        <time>2024-08-13T09:16:42Z</time>
      </trkpt>
      <trkpt lat="44.82122" lon="6.16126">
        <ele>1064.2</ele>
        <time>2024-08-13T09:16:43Z</time>
      </trkpt>
      <trkpt lat="44.82122" lon="6.16123">
        <ele>1064</ele>
        <time>2024-08-13T09:16:44Z</time>
      </trkpt>
      <trkpt lat="44.82122" lon="6.16123">
        <ele>1064</ele>
        <time>2024-08-13T09:16:45Z</time>
      </trkpt>
      <trkpt lat="44.82123" lon="6.16119">
        <ele>1063.6</ele>
        <time>2024-08-13T09:16:46Z</time>
      </trkpt>
      <trkpt lat="44.82123" lon="6.16119">
        <ele>1063.6</ele>
        <time>2024-08-13T09:16:47Z</time>
      </trkpt>
      <trkpt lat="44.82123" lon="6.16115">
        <ele>1063.8</ele>
        <time>2024-08-13T09:16:48Z</time>
      </trkpt>
      <trkpt lat="44.82123" lon="6.16115">
        <ele>1063.8</ele>
        <time>2024-08-13T09:16:49Z</time>
      </trkpt>
      <trkpt lat="44.82123" lon="6.16111">
        <ele>1063.6</ele>
        <time>2024-08-13T09:16:50Z</time>
      </trkpt>
      <trkpt lat="44.82123" lon="6.16111">
        <ele>1063.6</ele>
        <time>2024-08-13T09:16:51Z</time>
      </trkpt>
      <trkpt lat="44.82124" lon="6.16106">
        <ele>1063.6</ele>
        <time>2024-08-13T09:16:52Z</time>
      </trkpt>
      <trkpt lat="44.82124" lon="6.16106">
        <ele>1063.4</ele>
        <time>2024-08-13T09:16:53Z</time>
      </trkpt>
      <trkpt lat="44.82125" lon="6.16103">
        <ele>1063.4</ele>
        <time>2024-08-13T09:16:54Z</time>
      </trkpt>
      <trkpt lat="44.82125" lon="6.16103">
        <ele>1063.4</ele>
        <time>2024-08-13T09:16:55Z</time>
      </trkpt>
      <trkpt lat="44.82125" lon="6.16099">
        <ele>1063.2</ele>
        <time>2024-08-13T09:16:56Z</time>
      </trkpt>
      <trkpt lat="44.82125" lon="6.16099">
        <ele>1063.2</ele>
        <time>2024-08-13T09:16:57Z</time>
      </trkpt>
      <trkpt lat="44.82126" lon="6.16094">
        <ele>1063.2</ele>
        <time>2024-08-13T09:16:58Z</time>
      </trkpt>
      <trkpt lat="44.82126" lon="6.16094">
        <ele>1063</ele>
        <time>2024-08-13T09:16:59Z</time>
      </trkpt>
      <trkpt lat="44.82126" lon="6.1609">
        <ele>1062.8</ele>
        <time>2024-08-13T09:17:00Z</time>
      </trkpt>
      <trkpt lat="44.82126" lon="6.1609">
        <ele>1062.6</ele>
        <time>2024-08-13T09:17:01Z</time>
      </trkpt>
      <trkpt lat="44.82126" lon="6.16087">
        <ele>1062.6</ele>
        <time>2024-08-13T09:17:02Z</time>
      </trkpt>
      <trkpt lat="44.82126" lon="6.16087">
        <ele>1062.6</ele>
        <time>2024-08-13T09:17:03Z</time>
      </trkpt>
      <trkpt lat="44.82126" lon="6.16084">
        <ele>1062.6</ele>
        <time>2024-08-13T09:17:04Z</time>
      </trkpt>
      <trkpt lat="44.82126" lon="6.16084">
        <ele>1062.6</ele>
        <time>2024-08-13T09:17:05Z</time>
      </trkpt>
      <trkpt lat="44.82127" lon="6.1608">
        <ele>1062.6</ele>
        <time>2024-08-13T09:17:06Z</time>
      </trkpt>
      <trkpt lat="44.82127" lon="6.1608">
        <ele>1062.4</ele>
        <time>2024-08-13T09:17:07Z</time>
      </trkpt>
      <trkpt lat="44.82127" lon="6.16076">
        <ele>1062.4</ele>
        <time>2024-08-13T09:17:08Z</time>
      </trkpt>
      <trkpt lat="44.82127" lon="6.16076">
        <ele>1062.2</ele>
        <time>2024-08-13T09:17:09Z</time>
      </trkpt>
      <trkpt lat="44.82127" lon="6.16072">
        <ele>1062.2</ele>
        <time>2024-08-13T09:17:10Z</time>
      </trkpt>
      <trkpt lat="44.82127" lon="6.16072">
        <ele>1062</ele>
        <time>2024-08-13T09:17:11Z</time>
      </trkpt>
      <trkpt lat="44.82127" lon="6.16068">
        <ele>1062</ele>
        <time>2024-08-13T09:17:12Z</time>
      </trkpt>
      <trkpt lat="44.82127" lon="6.16065">
        <ele>1061.8</ele>
        <time>2024-08-13T09:17:13Z</time>
      </trkpt>
      <trkpt lat="44.82127" lon="6.16065">
        <ele>1061.6</ele>
        <time>2024-08-13T09:17:14Z</time>
      </trkpt>
      <trkpt lat="44.82127" lon="6.16061">
        <ele>1061.4</ele>
        <time>2024-08-13T09:17:15Z</time>
      </trkpt>
      <trkpt lat="44.82127" lon="6.16061">
        <ele>1061.2</ele>
        <time>2024-08-13T09:17:16Z</time>
      </trkpt>
      <trkpt lat="44.82128" lon="6.16057">
        <ele>1061.2</ele>
        <time>2024-08-13T09:17:17Z</time>
      </trkpt>
      <trkpt lat="44.82128" lon="6.16057">
        <ele>1061.2</ele>
        <time>2024-08-13T09:17:18Z</time>
      </trkpt>
      <trkpt lat="44.82128" lon="6.16053">
        <ele>1061</ele>
        <time>2024-08-13T09:17:19Z</time>
      </trkpt>
      <trkpt lat="44.82128" lon="6.16053">
        <ele>1061</ele>
        <time>2024-08-13T09:17:20Z</time>
      </trkpt>
      <trkpt lat="44.82129" lon="6.1605">
        <ele>1061</ele>
        <time>2024-08-13T09:17:21Z</time>
      </trkpt>
      <trkpt lat="44.82129" lon="6.1605">
        <ele>1060.8</ele>
        <time>2024-08-13T09:17:22Z</time>
      </trkpt>
      <trkpt lat="44.8213" lon="6.16046">
        <ele>1060.6</ele>
        <time>2024-08-13T09:17:23Z</time>
      </trkpt>
      <trkpt lat="44.8213" lon="6.16046">
        <ele>1060.6</ele>
        <time>2024-08-13T09:17:24Z</time>
      </trkpt>
      <trkpt lat="44.8213" lon="6.16041">
        <ele>1060.6</ele>
        <time>2024-08-13T09:17:25Z</time>
      </trkpt>
      <trkpt lat="44.8213" lon="6.16041">
        <ele>1060.6</ele>
        <time>2024-08-13T09:17:26Z</time>
      </trkpt>
      <trkpt lat="44.82132" lon="6.16037">
        <ele>1060.2</ele>
        <time>2024-08-13T09:17:27Z</time>
      </trkpt>
      <trkpt lat="44.82132" lon="6.16037">
        <ele>1060.2</ele>
        <time>2024-08-13T09:17:28Z</time>
      </trkpt>
      <trkpt lat="44.82132" lon="6.16033">
        <ele>1060.2</ele>
        <time>2024-08-13T09:17:29Z</time>
      </trkpt>
      <trkpt lat="44.82132" lon="6.16033">
        <ele>1060</ele>
        <time>2024-08-13T09:17:30Z</time>
      </trkpt>
      <trkpt lat="44.82133" lon="6.16029">
        <ele>1060</ele>
        <time>2024-08-13T09:17:31Z</time>
      </trkpt>
      <trkpt lat="44.82133" lon="6.16029">
        <ele>1060</ele>
        <time>2024-08-13T09:17:32Z</time>
      </trkpt>
      <trkpt lat="44.82133" lon="6.16025">
        <ele>1060</ele>
        <time>2024-08-13T09:17:33Z</time>
      </trkpt>
      <trkpt lat="44.82133" lon="6.16025">
        <ele>1060</ele>
        <time>2024-08-13T09:17:34Z</time>
      </trkpt>
      <trkpt lat="44.82133" lon="6.16021">
        <ele>1060</ele>
        <time>2024-08-13T09:17:35Z</time>
      </trkpt>
      <trkpt lat="44.82133" lon="6.16021">
        <ele>1060</ele>
        <time>2024-08-13T09:17:36Z</time>
      </trkpt>
      <trkpt lat="44.82135" lon="6.16016">
        <ele>1060</ele>
        <time>2024-08-13T09:17:37Z</time>
      </trkpt>
      <trkpt lat="44.82135" lon="6.16016">
        <ele>1060</ele>
        <time>2024-08-13T09:17:38Z</time>
      </trkpt>
      <trkpt lat="44.82134" lon="6.16012">
        <ele>1060</ele>
        <time>2024-08-13T09:17:39Z</time>
      </trkpt>
      <trkpt lat="44.82134" lon="6.16012">
        <ele>1060.2</ele>
        <time>2024-08-13T09:17:40Z</time>
      </trkpt>
      <trkpt lat="44.82135" lon="6.16008">
        <ele>1060.2</ele>
        <time>2024-08-13T09:17:41Z</time>
      </trkpt>
      <trkpt lat="44.82135" lon="6.16008">
        <ele>1060.2</ele>
        <time>2024-08-13T09:17:42Z</time>
      </trkpt>
      <trkpt lat="44.82136" lon="6.16004">
        <ele>1060</ele>
        <time>2024-08-13T09:17:43Z</time>
      </trkpt>
      <trkpt lat="44.82136" lon="6.16004">
        <ele>1060</ele>
        <time>2024-08-13T09:17:44Z</time>
      </trkpt>
      <trkpt lat="44.82137" lon="6.16">
        <ele>1060</ele>
        <time>2024-08-13T09:17:45Z</time>
      </trkpt>
      <trkpt lat="44.82137" lon="6.16">
        <ele>1060</ele>
        <time>2024-08-13T09:17:46Z</time>
      </trkpt>
      <trkpt lat="44.82137" lon="6.15996">
        <ele>1060</ele>
        <time>2024-08-13T09:17:47Z</time>
      </trkpt>
      <trkpt lat="44.82137" lon="6.15996">
        <ele>1060</ele>
        <time>2024-08-13T09:17:48Z</time>
      </trkpt>
      <trkpt lat="44.82138" lon="6.15993">
        <ele>1060</ele>
        <time>2024-08-13T09:17:49Z</time>
      </trkpt>
      <trkpt lat="44.82138" lon="6.15993">
        <ele>1060</ele>
        <time>2024-08-13T09:17:50Z</time>
      </trkpt>
      <trkpt lat="44.82138" lon="6.15989">
        <ele>1060</ele>
        <time>2024-08-13T09:17:51Z</time>
      </trkpt>
      <trkpt lat="44.82138" lon="6.15989">
        <ele>1060</ele>
        <time>2024-08-13T09:17:52Z</time>
      </trkpt>
      <trkpt lat="44.82138" lon="6.15985">
        <ele>1060</ele>
        <time>2024-08-13T09:17:53Z</time>
      </trkpt>
      <trkpt lat="44.82138" lon="6.15985">
        <ele>1060</ele>
        <time>2024-08-13T09:17:54Z</time>
      </trkpt>
      <trkpt lat="44.82139" lon="6.15981">
        <ele>1060</ele>
        <time>2024-08-13T09:17:55Z</time>
      </trkpt>
      <trkpt lat="44.82139" lon="6.15981">
        <ele>1060.2</ele>
        <time>2024-08-13T09:17:56Z</time>
      </trkpt>
      <trkpt lat="44.82138" lon="6.15976">
        <ele>1060.2</ele>
        <time>2024-08-13T09:17:57Z</time>
      </trkpt>
      <trkpt lat="44.82138" lon="6.15976">
        <ele>1060</ele>
        <time>2024-08-13T09:17:58Z</time>
      </trkpt>
      <trkpt lat="44.82138" lon="6.15972">
        <ele>1060</ele>
        <time>2024-08-13T09:17:59Z</time>
      </trkpt>
      <trkpt lat="44.82138" lon="6.15972">
        <ele>1060.2</ele>
        <time>2024-08-13T09:18:00Z</time>
      </trkpt>
      <trkpt lat="44.82139" lon="6.15968">
        <ele>1060.2</ele>
        <time>2024-08-13T09:18:01Z</time>
      </trkpt>
      <trkpt lat="44.82139" lon="6.15968">
        <ele>1060.2</ele>
        <time>2024-08-13T09:18:02Z</time>
      </trkpt>
      <trkpt lat="44.82139" lon="6.15964">
        <ele>1060.2</ele>
        <time>2024-08-13T09:18:03Z</time>
      </trkpt>
      <trkpt lat="44.82139" lon="6.15964">
        <ele>1060.4</ele>
        <time>2024-08-13T09:18:04Z</time>
      </trkpt>
      <trkpt lat="44.82139" lon="6.15961">
        <ele>1060.4</ele>
        <time>2024-08-13T09:18:05Z</time>
      </trkpt>
      <trkpt lat="44.82139" lon="6.15961">
        <ele>1060.4</ele>
        <time>2024-08-13T09:18:06Z</time>
      </trkpt>
      <trkpt lat="44.82139" lon="6.15956">
        <ele>1060.4</ele>
        <time>2024-08-13T09:18:07Z</time>
      </trkpt>
      <trkpt lat="44.82139" lon="6.15956">
        <ele>1060.6</ele>
        <time>2024-08-13T09:18:08Z</time>
      </trkpt>
      <trkpt lat="44.82139" lon="6.15951">
        <ele>1060.6</ele>
        <time>2024-08-13T09:18:09Z</time>
      </trkpt>
      <trkpt lat="44.82139" lon="6.15951">
        <ele>1060.6</ele>
        <time>2024-08-13T09:18:10Z</time>
      </trkpt>
      <trkpt lat="44.82139" lon="6.15947">
        <ele>1060.6</ele>
        <time>2024-08-13T09:18:11Z</time>
      </trkpt>
      <trkpt lat="44.82139" lon="6.15947">
        <ele>1060.6</ele>
        <time>2024-08-13T09:18:12Z</time>
      </trkpt>
      <trkpt lat="44.82141" lon="6.15942">
        <ele>1060.8</ele>
        <time>2024-08-13T09:18:13Z</time>
      </trkpt>
      <trkpt lat="44.82141" lon="6.15942">
        <ele>1060.8</ele>
        <time>2024-08-13T09:18:14Z</time>
      </trkpt>
      <trkpt lat="44.82141" lon="6.15939">
        <ele>1061</ele>
        <time>2024-08-13T09:18:15Z</time>
      </trkpt>
      <trkpt lat="44.82141" lon="6.15939">
        <ele>1061.2</ele>
        <time>2024-08-13T09:18:16Z</time>
      </trkpt>
      <trkpt lat="44.82141" lon="6.15939">
        <ele>1061.2</ele>
        <time>2024-08-13T09:18:17Z</time>
      </trkpt>
      <trkpt lat="44.82141" lon="6.15936">
        <ele>1061.2</ele>
        <time>2024-08-13T09:18:18Z</time>
      </trkpt>
      <trkpt lat="44.82141" lon="6.15936">
        <ele>1061</ele>
        <time>2024-08-13T09:18:19Z</time>
      </trkpt>
      <trkpt lat="44.82141" lon="6.15933">
        <ele>1061</ele>
        <time>2024-08-13T09:18:20Z</time>
      </trkpt>
      <trkpt lat="44.82141" lon="6.15933">
        <ele>1061</ele>
        <time>2024-08-13T09:18:21Z</time>
      </trkpt>
      <trkpt lat="44.82141" lon="6.15929">
        <ele>1061</ele>
        <time>2024-08-13T09:18:22Z</time>
      </trkpt>
      <trkpt lat="44.82141" lon="6.15929">
        <ele>1061</ele>
        <time>2024-08-13T09:18:23Z</time>
      </trkpt>
      <trkpt lat="44.82141" lon="6.15926">
        <ele>1061</ele>
        <time>2024-08-13T09:18:24Z</time>
      </trkpt>
      <trkpt lat="44.82141" lon="6.15926">
        <ele>1061</ele>
        <time>2024-08-13T09:18:25Z</time>
      </trkpt>
      <trkpt lat="44.8214" lon="6.15923">
        <ele>1060.8</ele>
        <time>2024-08-13T09:18:26Z</time>
      </trkpt>
      <trkpt lat="44.8214" lon="6.15923">
        <ele>1060.6</ele>
        <time>2024-08-13T09:18:27Z</time>
      </trkpt>
      <trkpt lat="44.8214" lon="6.15919">
        <ele>1060.4</ele>
        <time>2024-08-13T09:18:28Z</time>
      </trkpt>
      <trkpt lat="44.8214" lon="6.15919">
        <ele>1060.4</ele>
        <time>2024-08-13T09:18:29Z</time>
      </trkpt>
      <trkpt lat="44.82141" lon="6.15914">
        <ele>1060.2</ele>
        <time>2024-08-13T09:18:30Z</time>
      </trkpt>
      <trkpt lat="44.82141" lon="6.15914">
        <ele>1060</ele>
        <time>2024-08-13T09:18:31Z</time>
      </trkpt>
      <trkpt lat="44.82141" lon="6.1591">
        <ele>1060</ele>
        <time>2024-08-13T09:18:32Z</time>
      </trkpt>
      <trkpt lat="44.82141" lon="6.1591">
        <ele>1059.8</ele>
        <time>2024-08-13T09:18:33Z</time>
      </trkpt>
      <trkpt lat="44.82141" lon="6.15907">
        <ele>1059.6</ele>
        <time>2024-08-13T09:18:34Z</time>
      </trkpt>
      <trkpt lat="44.82141" lon="6.15907">
        <ele>1059.4</ele>
        <time>2024-08-13T09:18:35Z</time>
      </trkpt>
      <trkpt lat="44.82142" lon="6.15903">
        <ele>1059.4</ele>
        <time>2024-08-13T09:18:36Z</time>
      </trkpt>
      <trkpt lat="44.82142" lon="6.15903">
        <ele>1059.4</ele>
        <time>2024-08-13T09:18:37Z</time>
      </trkpt>
      <trkpt lat="44.82143" lon="6.159">
        <ele>1059.4</ele>
        <time>2024-08-13T09:18:38Z</time>
      </trkpt>
      <trkpt lat="44.82142" lon="6.15897">
        <ele>1059.4</ele>
        <time>2024-08-13T09:18:39Z</time>
      </trkpt>
      <trkpt lat="44.82142" lon="6.15897">
        <ele>1059.2</ele>
        <time>2024-08-13T09:18:40Z</time>
      </trkpt>
      <trkpt lat="44.82142" lon="6.15894">
        <ele>1059.2</ele>
        <time>2024-08-13T09:18:41Z</time>
      </trkpt>
      <trkpt lat="44.82142" lon="6.15894">
        <ele>1059.4</ele>
        <time>2024-08-13T09:18:42Z</time>
      </trkpt>
      <trkpt lat="44.82142" lon="6.1589">
        <ele>1059.4</ele>
        <time>2024-08-13T09:18:43Z</time>
      </trkpt>
      <trkpt lat="44.82142" lon="6.1589">
        <ele>1059.4</ele>
        <time>2024-08-13T09:18:44Z</time>
      </trkpt>
      <trkpt lat="44.82142" lon="6.15887">
        <ele>1059.4</ele>
        <time>2024-08-13T09:18:45Z</time>
      </trkpt>
      <trkpt lat="44.82142" lon="6.15887">
        <ele>1059.2</ele>
        <time>2024-08-13T09:18:46Z</time>
      </trkpt>
      <trkpt lat="44.82143" lon="6.15884">
        <ele>1059.2</ele>
        <time>2024-08-13T09:18:47Z</time>
      </trkpt>
      <trkpt lat="44.82143" lon="6.15884">
        <ele>1059.2</ele>
        <time>2024-08-13T09:18:48Z</time>
      </trkpt>
      <trkpt lat="44.82143" lon="6.1588">
        <ele>1059</ele>
        <time>2024-08-13T09:18:49Z</time>
      </trkpt>
      <trkpt lat="44.82143" lon="6.1588">
        <ele>1059</ele>
        <time>2024-08-13T09:18:50Z</time>
      </trkpt>
      <trkpt lat="44.82143" lon="6.15876">
        <ele>1059</ele>
        <time>2024-08-13T09:18:51Z</time>
      </trkpt>
      <trkpt lat="44.82143" lon="6.15876">
        <ele>1058.8</ele>
        <time>2024-08-13T09:18:52Z</time>
      </trkpt>
      <trkpt lat="44.82143" lon="6.15872">
        <ele>1058.8</ele>
        <time>2024-08-13T09:18:53Z</time>
      </trkpt>
      <trkpt lat="44.82143" lon="6.15872">
        <ele>1058.8</ele>
        <time>2024-08-13T09:18:54Z</time>
      </trkpt>
      <trkpt lat="44.82143" lon="6.15868">
        <ele>1058.8</ele>
        <time>2024-08-13T09:18:55Z</time>
      </trkpt>
      <trkpt lat="44.82143" lon="6.15868">
        <ele>1058.8</ele>
        <time>2024-08-13T09:18:56Z</time>
      </trkpt>
      <trkpt lat="44.82142" lon="6.15864">
        <ele>1058.6</ele>
        <time>2024-08-13T09:18:57Z</time>
      </trkpt>
      <trkpt lat="44.82142" lon="6.15861">
        <ele>1058.6</ele>
        <time>2024-08-13T09:18:58Z</time>
      </trkpt>
      <trkpt lat="44.82142" lon="6.15861">
        <ele>1058.6</ele>
        <time>2024-08-13T09:18:59Z</time>
      </trkpt>
      <trkpt lat="44.82142" lon="6.15857">
        <ele>1058.6</ele>
        <time>2024-08-13T09:19:00Z</time>
      </trkpt>
      <trkpt lat="44.82142" lon="6.15857">
        <ele>1058.4</ele>
        <time>2024-08-13T09:19:01Z</time>
      </trkpt>
      <trkpt lat="44.82143" lon="6.15853">
        <ele>1058.2</ele>
        <time>2024-08-13T09:19:02Z</time>
      </trkpt>
      <trkpt lat="44.82143" lon="6.15853">
        <ele>1058.2</ele>
        <time>2024-08-13T09:19:03Z</time>
      </trkpt>
      <trkpt lat="44.82142" lon="6.15848">
        <ele>1058.2</ele>
        <time>2024-08-13T09:19:04Z</time>
      </trkpt>
      <trkpt lat="44.82142" lon="6.15848">
        <ele>1058.2</ele>
        <time>2024-08-13T09:19:05Z</time>
      </trkpt>
      <trkpt lat="44.82142" lon="6.15844">
        <ele>1058</ele>
        <time>2024-08-13T09:19:06Z</time>
      </trkpt>
      <trkpt lat="44.82142" lon="6.15844">
        <ele>1058</ele>
        <time>2024-08-13T09:19:07Z</time>
      </trkpt>
      <trkpt lat="44.82143" lon="6.1584">
        <ele>1058</ele>
        <time>2024-08-13T09:19:08Z</time>
      </trkpt>
      <trkpt lat="44.82143" lon="6.1584">
        <ele>1057.8</ele>
        <time>2024-08-13T09:19:09Z</time>
      </trkpt>
      <trkpt lat="44.82144" lon="6.15836">
        <ele>1057.8</ele>
        <time>2024-08-13T09:19:10Z</time>
      </trkpt>
      <trkpt lat="44.82144" lon="6.15836">
        <ele>1057.8</ele>
        <time>2024-08-13T09:19:11Z</time>
      </trkpt>
      <trkpt lat="44.82145" lon="6.15831">
        <ele>1057.8</ele>
        <time>2024-08-13T09:19:12Z</time>
      </trkpt>
      <trkpt lat="44.82145" lon="6.15831">
        <ele>1057.8</ele>
        <time>2024-08-13T09:19:13Z</time>
      </trkpt>
      <trkpt lat="44.82146" lon="6.15828">
        <ele>1057.8</ele>
        <time>2024-08-13T09:19:14Z</time>
      </trkpt>
      <trkpt lat="44.82146" lon="6.15828">
        <ele>1058</ele>
        <time>2024-08-13T09:19:15Z</time>
      </trkpt>
      <trkpt lat="44.82147" lon="6.15824">
        <ele>1058.2</ele>
        <time>2024-08-13T09:19:16Z</time>
      </trkpt>
      <trkpt lat="44.82147" lon="6.15824">
        <ele>1058.2</ele>
        <time>2024-08-13T09:19:17Z</time>
      </trkpt>
      <trkpt lat="44.82149" lon="6.1582">
        <ele>1058.2</ele>
        <time>2024-08-13T09:19:18Z</time>
      </trkpt>
      <trkpt lat="44.82149" lon="6.1582">
        <ele>1058.2</ele>
        <time>2024-08-13T09:19:19Z</time>
      </trkpt>
      <trkpt lat="44.82149" lon="6.15817">
        <ele>1058.2</ele>
        <time>2024-08-13T09:19:20Z</time>
      </trkpt>
      <trkpt lat="44.82149" lon="6.15817">
        <ele>1058.2</ele>
        <time>2024-08-13T09:19:21Z</time>
      </trkpt>
      <trkpt lat="44.8215" lon="6.15813">
        <ele>1058</ele>
        <time>2024-08-13T09:19:22Z</time>
      </trkpt>
      <trkpt lat="44.8215" lon="6.15813">
        <ele>1058</ele>
        <time>2024-08-13T09:19:23Z</time>
      </trkpt>
      <trkpt lat="44.8215" lon="6.15808">
        <ele>1058</ele>
        <time>2024-08-13T09:19:24Z</time>
      </trkpt>
      <trkpt lat="44.8215" lon="6.15808">
        <ele>1058</ele>
        <time>2024-08-13T09:19:25Z</time>
      </trkpt>
      <trkpt lat="44.8215" lon="6.15805">
        <ele>1058</ele>
        <time>2024-08-13T09:19:26Z</time>
      </trkpt>
      <trkpt lat="44.8215" lon="6.15805">
        <ele>1058</ele>
        <time>2024-08-13T09:19:27Z</time>
      </trkpt>
      <trkpt lat="44.8215" lon="6.15805">
        <ele>1057.8</ele>
        <time>2024-08-13T09:19:28Z</time>
      </trkpt>
      <trkpt lat="44.82151" lon="6.15801">
        <ele>1057.8</ele>
        <time>2024-08-13T09:19:29Z</time>
      </trkpt>
      <trkpt lat="44.82151" lon="6.15801">
        <ele>1057.8</ele>
        <time>2024-08-13T09:19:30Z</time>
      </trkpt>
      <trkpt lat="44.82152" lon="6.15798">
        <ele>1057.8</ele>
        <time>2024-08-13T09:19:31Z</time>
      </trkpt>
      <trkpt lat="44.82152" lon="6.15798">
        <ele>1057.8</ele>
        <time>2024-08-13T09:19:32Z</time>
      </trkpt>
      <trkpt lat="44.82153" lon="6.15794">
        <ele>1057.8</ele>
        <time>2024-08-13T09:19:33Z</time>
      </trkpt>
      <trkpt lat="44.82153" lon="6.15794">
        <ele>1057.8</ele>
        <time>2024-08-13T09:19:34Z</time>
      </trkpt>
      <trkpt lat="44.82153" lon="6.1579">
        <ele>1057.6</ele>
        <time>2024-08-13T09:19:35Z</time>
      </trkpt>
      <trkpt lat="44.82153" lon="6.1579">
        <ele>1057.8</ele>
        <time>2024-08-13T09:19:36Z</time>
      </trkpt>
      <trkpt lat="44.82153" lon="6.15786">
        <ele>1057.8</ele>
        <time>2024-08-13T09:19:37Z</time>
      </trkpt>
      <trkpt lat="44.82153" lon="6.15786">
        <ele>1057.8</ele>
        <time>2024-08-13T09:19:38Z</time>
      </trkpt>
      <trkpt lat="44.82154" lon="6.15782">
        <ele>1057.6</ele>
        <time>2024-08-13T09:19:39Z</time>
      </trkpt>
      <trkpt lat="44.82154" lon="6.15782">
        <ele>1057.6</ele>
        <time>2024-08-13T09:19:40Z</time>
      </trkpt>
      <trkpt lat="44.82156" lon="6.15778">
        <ele>1057.4</ele>
        <time>2024-08-13T09:19:41Z</time>
      </trkpt>
      <trkpt lat="44.82156" lon="6.15778">
        <ele>1057.4</ele>
        <time>2024-08-13T09:19:42Z</time>
      </trkpt>
      <trkpt lat="44.82156" lon="6.15774">
        <ele>1057.4</ele>
        <time>2024-08-13T09:19:43Z</time>
      </trkpt>
      <trkpt lat="44.82156" lon="6.15774">
        <ele>1057.4</ele>
        <time>2024-08-13T09:19:44Z</time>
      </trkpt>
      <trkpt lat="44.82156" lon="6.1577">
        <ele>1057.4</ele>
        <time>2024-08-13T09:19:45Z</time>
      </trkpt>
      <trkpt lat="44.82156" lon="6.1577">
        <ele>1057.2</ele>
        <time>2024-08-13T09:19:46Z</time>
      </trkpt>
      <trkpt lat="44.82157" lon="6.15766">
        <ele>1057.2</ele>
        <time>2024-08-13T09:19:47Z</time>
      </trkpt>
      <trkpt lat="44.82157" lon="6.15766">
        <ele>1057.2</ele>
        <time>2024-08-13T09:19:48Z</time>
      </trkpt>
      <trkpt lat="44.82157" lon="6.15763">
        <ele>1057.2</ele>
        <time>2024-08-13T09:19:49Z</time>
      </trkpt>
      <trkpt lat="44.82157" lon="6.15763">
        <ele>1057.4</ele>
        <time>2024-08-13T09:19:50Z</time>
      </trkpt>
      <trkpt lat="44.82158" lon="6.1576">
        <ele>1057.4</ele>
        <time>2024-08-13T09:19:51Z</time>
      </trkpt>
      <trkpt lat="44.82158" lon="6.1576">
        <ele>1057.4</ele>
        <time>2024-08-13T09:19:52Z</time>
      </trkpt>
      <trkpt lat="44.8216" lon="6.15757">
        <ele>1057.4</ele>
        <time>2024-08-13T09:19:53Z</time>
      </trkpt>
      <trkpt lat="44.8216" lon="6.15757">
        <ele>1057.2</ele>
        <time>2024-08-13T09:19:54Z</time>
      </trkpt>
      <trkpt lat="44.82162" lon="6.15753">
        <ele>1057.2</ele>
        <time>2024-08-13T09:19:55Z</time>
      </trkpt>
      <trkpt lat="44.82162" lon="6.15753">
        <ele>1057.2</ele>
        <time>2024-08-13T09:19:56Z</time>
      </trkpt>
      <trkpt lat="44.82163" lon="6.1575">
        <ele>1057.2</ele>
        <time>2024-08-13T09:19:57Z</time>
      </trkpt>
      <trkpt lat="44.82163" lon="6.1575">
        <ele>1057.2</ele>
        <time>2024-08-13T09:19:58Z</time>
      </trkpt>
      <trkpt lat="44.82165" lon="6.15747">
        <ele>1057.2</ele>
        <time>2024-08-13T09:19:59Z</time>
      </trkpt>
      <trkpt lat="44.82165" lon="6.15747">
        <ele>1057</ele>
        <time>2024-08-13T09:20:00Z</time>
      </trkpt>
      <trkpt lat="44.82166" lon="6.15743">
        <ele>1056.8</ele>
        <time>2024-08-13T09:20:01Z</time>
      </trkpt>
      <trkpt lat="44.82166" lon="6.15743">
        <ele>1056.6</ele>
        <time>2024-08-13T09:20:02Z</time>
      </trkpt>
      <trkpt lat="44.82167" lon="6.15739">
        <ele>1056.6</ele>
        <time>2024-08-13T09:20:03Z</time>
      </trkpt>
      <trkpt lat="44.82167" lon="6.15739">
        <ele>1056.6</ele>
        <time>2024-08-13T09:20:04Z</time>
      </trkpt>
      <trkpt lat="44.82168" lon="6.15736">
        <ele>1056.4</ele>
        <time>2024-08-13T09:20:05Z</time>
      </trkpt>
      <trkpt lat="44.82169" lon="6.15734">
        <ele>1056</ele>
        <time>2024-08-13T09:20:06Z</time>
      </trkpt>
      <trkpt lat="44.82169" lon="6.15734">
        <ele>1056</ele>
        <time>2024-08-13T09:20:07Z</time>
      </trkpt>
      <trkpt lat="44.82169" lon="6.1573">
        <ele>1055.6</ele>
        <time>2024-08-13T09:20:08Z</time>
      </trkpt>
      <trkpt lat="44.82169" lon="6.1573">
        <ele>1055.6</ele>
        <time>2024-08-13T09:20:09Z</time>
      </trkpt>
      <trkpt lat="44.82169" lon="6.15726">
        <ele>1055.8</ele>
        <time>2024-08-13T09:20:10Z</time>
      </trkpt>
      <trkpt lat="44.82169" lon="6.15726">
        <ele>1055.8</ele>
        <time>2024-08-13T09:20:11Z</time>
      </trkpt>
      <trkpt lat="44.82169" lon="6.15722">
        <ele>1055.6</ele>
        <time>2024-08-13T09:20:12Z</time>
      </trkpt>
      <trkpt lat="44.82169" lon="6.15722">
        <ele>1055.4</ele>
        <time>2024-08-13T09:20:13Z</time>
      </trkpt>
      <trkpt lat="44.8217" lon="6.15718">
        <ele>1055.2</ele>
        <time>2024-08-13T09:20:14Z</time>
      </trkpt>
      <trkpt lat="44.8217" lon="6.15718">
        <ele>1055.2</ele>
        <time>2024-08-13T09:20:15Z</time>
      </trkpt>
      <trkpt lat="44.82169" lon="6.15714">
        <ele>1055.4</ele>
        <time>2024-08-13T09:20:16Z</time>
      </trkpt>
      <trkpt lat="44.82169" lon="6.15714">
        <ele>1055.4</ele>
        <time>2024-08-13T09:20:17Z</time>
      </trkpt>
      <trkpt lat="44.82169" lon="6.1571">
        <ele>1055.4</ele>
        <time>2024-08-13T09:20:18Z</time>
      </trkpt>
      <trkpt lat="44.82169" lon="6.1571">
        <ele>1055.4</ele>
        <time>2024-08-13T09:20:19Z</time>
      </trkpt>
      <trkpt lat="44.82169" lon="6.15706">
        <ele>1055.4</ele>
        <time>2024-08-13T09:20:20Z</time>
      </trkpt>
      <trkpt lat="44.82169" lon="6.15706">
        <ele>1055.4</ele>
        <time>2024-08-13T09:20:21Z</time>
      </trkpt>
      <trkpt lat="44.82169" lon="6.15702">
        <ele>1055.4</ele>
        <time>2024-08-13T09:20:22Z</time>
      </trkpt>
      <trkpt lat="44.82169" lon="6.15702">
        <ele>1055.6</ele>
        <time>2024-08-13T09:20:23Z</time>
      </trkpt>
      <trkpt lat="44.82167" lon="6.15695">
        <ele>1055.6</ele>
        <time>2024-08-13T09:20:24Z</time>
      </trkpt>
      <trkpt lat="44.82167" lon="6.15694">
        <ele>1055.6</ele>
        <time>2024-08-13T09:20:25Z</time>
      </trkpt>
      <trkpt lat="44.82167" lon="6.15694">
        <ele>1055.6</ele>
        <time>2024-08-13T09:20:26Z</time>
      </trkpt>
      <trkpt lat="44.82167" lon="6.1569">
        <ele>1055.6</ele>
        <time>2024-08-13T09:20:27Z</time>
      </trkpt>
      <trkpt lat="44.82167" lon="6.1569">
        <ele>1055.6</ele>
        <time>2024-08-13T09:20:28Z</time>
      </trkpt>
      <trkpt lat="44.82167" lon="6.15686">
        <ele>1055.4</ele>
        <time>2024-08-13T09:20:29Z</time>
      </trkpt>
      <trkpt lat="44.82167" lon="6.15686">
        <ele>1055.4</ele>
        <time>2024-08-13T09:20:30Z</time>
      </trkpt>
      <trkpt lat="44.82168" lon="6.15682">
        <ele>1055.4</ele>
        <time>2024-08-13T09:20:31Z</time>
      </trkpt>
      <trkpt lat="44.82168" lon="6.15682">
        <ele>1055.4</ele>
        <time>2024-08-13T09:20:32Z</time>
      </trkpt>
      <trkpt lat="44.82168" lon="6.15678">
        <ele>1055.4</ele>
        <time>2024-08-13T09:20:33Z</time>
      </trkpt>
      <trkpt lat="44.82168" lon="6.15678">
        <ele>1055.4</ele>
        <time>2024-08-13T09:20:34Z</time>
      </trkpt>
      <trkpt lat="44.82169" lon="6.15674">
        <ele>1055.2</ele>
        <time>2024-08-13T09:20:35Z</time>
      </trkpt>
      <trkpt lat="44.82169" lon="6.15674">
        <ele>1055.2</ele>
        <time>2024-08-13T09:20:36Z</time>
      </trkpt>
      <trkpt lat="44.82171" lon="6.15671">
        <ele>1055</ele>
        <time>2024-08-13T09:20:37Z</time>
      </trkpt>
      <trkpt lat="44.82171" lon="6.15671">
        <ele>1055</ele>
        <time>2024-08-13T09:20:38Z</time>
      </trkpt>
      <trkpt lat="44.82171" lon="6.15667">
        <ele>1055.2</ele>
        <time>2024-08-13T09:20:39Z</time>
      </trkpt>
      <trkpt lat="44.82171" lon="6.15667">
        <ele>1055.2</ele>
        <time>2024-08-13T09:20:40Z</time>
      </trkpt>
      <trkpt lat="44.82173" lon="6.15664">
        <ele>1055</ele>
        <time>2024-08-13T09:20:41Z</time>
      </trkpt>
      <trkpt lat="44.82173" lon="6.15664">
        <ele>1055</ele>
        <time>2024-08-13T09:20:42Z</time>
      </trkpt>
      <trkpt lat="44.82173" lon="6.1566">
        <ele>1055.2</ele>
        <time>2024-08-13T09:20:43Z</time>
      </trkpt>
      <trkpt lat="44.82173" lon="6.1566">
        <ele>1055.2</ele>
        <time>2024-08-13T09:20:44Z</time>
      </trkpt>
      <trkpt lat="44.82174" lon="6.15656">
        <ele>1055.2</ele>
        <time>2024-08-13T09:20:45Z</time>
      </trkpt>
      <trkpt lat="44.82174" lon="6.15656">
        <ele>1055.2</ele>
        <time>2024-08-13T09:20:46Z</time>
      </trkpt>
      <trkpt lat="44.82176" lon="6.15653">
        <ele>1055.2</ele>
        <time>2024-08-13T09:20:47Z</time>
      </trkpt>
      <trkpt lat="44.82176" lon="6.15653">
        <ele>1055.2</ele>
        <time>2024-08-13T09:20:48Z</time>
      </trkpt>
      <trkpt lat="44.82179" lon="6.15651">
        <ele>1055.2</ele>
        <time>2024-08-13T09:20:49Z</time>
      </trkpt>
      <trkpt lat="44.82179" lon="6.15651">
        <ele>1055</ele>
        <time>2024-08-13T09:20:50Z</time>
      </trkpt>
      <trkpt lat="44.82181" lon="6.15649">
        <ele>1054.8</ele>
        <time>2024-08-13T09:20:51Z</time>
      </trkpt>
      <trkpt lat="44.82181" lon="6.15649">
        <ele>1054.8</ele>
        <time>2024-08-13T09:20:52Z</time>
      </trkpt>
      <trkpt lat="44.82184" lon="6.15648">
        <ele>1054.8</ele>
        <time>2024-08-13T09:20:53Z</time>
      </trkpt>
      <trkpt lat="44.82184" lon="6.15648">
        <ele>1054.8</ele>
        <time>2024-08-13T09:20:54Z</time>
      </trkpt>
      <trkpt lat="44.82186" lon="6.15646">
        <ele>1055.2</ele>
        <time>2024-08-13T09:20:55Z</time>
      </trkpt>
      <trkpt lat="44.82186" lon="6.15646">
        <ele>1055.2</ele>
        <time>2024-08-13T09:20:56Z</time>
      </trkpt>
      <trkpt lat="44.82189" lon="6.15643">
        <ele>1055</ele>
        <time>2024-08-13T09:20:57Z</time>
      </trkpt>
      <trkpt lat="44.82189" lon="6.15643">
        <ele>1055</ele>
        <time>2024-08-13T09:20:58Z</time>
      </trkpt>
      <trkpt lat="44.8219" lon="6.15641">
        <ele>1054.8</ele>
        <time>2024-08-13T09:20:59Z</time>
      </trkpt>
      <trkpt lat="44.82192" lon="6.1564">
        <ele>1054.8</ele>
        <time>2024-08-13T09:21:00Z</time>
      </trkpt>
      <trkpt lat="44.82192" lon="6.1564">
        <ele>1054.8</ele>
        <time>2024-08-13T09:21:01Z</time>
      </trkpt>
      <trkpt lat="44.82194" lon="6.15638">
        <ele>1054.8</ele>
        <time>2024-08-13T09:21:02Z</time>
      </trkpt>
      <trkpt lat="44.82194" lon="6.15638">
        <ele>1054.8</ele>
        <time>2024-08-13T09:21:03Z</time>
      </trkpt>
      <trkpt lat="44.82197" lon="6.15636">
        <ele>1054.8</ele>
        <time>2024-08-13T09:21:04Z</time>
      </trkpt>
      <trkpt lat="44.82197" lon="6.15636">
        <ele>1054.6</ele>
        <time>2024-08-13T09:21:05Z</time>
      </trkpt>
      <trkpt lat="44.82199" lon="6.15633">
        <ele>1054.6</ele>
        <time>2024-08-13T09:21:06Z</time>
      </trkpt>
      <trkpt lat="44.82199" lon="6.15633">
        <ele>1054.6</ele>
        <time>2024-08-13T09:21:07Z</time>
      </trkpt>
      <trkpt lat="44.82201" lon="6.15631">
        <ele>1054.4</ele>
        <time>2024-08-13T09:21:08Z</time>
      </trkpt>
      <trkpt lat="44.82201" lon="6.15631">
        <ele>1054.4</ele>
        <time>2024-08-13T09:21:09Z</time>
      </trkpt>
      <trkpt lat="44.82204" lon="6.15628">
        <ele>1054.4</ele>
        <time>2024-08-13T09:21:10Z</time>
      </trkpt>
      <trkpt lat="44.82204" lon="6.15628">
        <ele>1054.2</ele>
        <time>2024-08-13T09:21:11Z</time>
      </trkpt>
      <trkpt lat="44.82206" lon="6.15626">
        <ele>1054.2</ele>
        <time>2024-08-13T09:21:12Z</time>
      </trkpt>
      <trkpt lat="44.82206" lon="6.15626">
        <ele>1054.2</ele>
        <time>2024-08-13T09:21:13Z</time>
      </trkpt>
      <trkpt lat="44.82208" lon="6.15623">
        <ele>1054.2</ele>
        <time>2024-08-13T09:21:14Z</time>
      </trkpt>
      <trkpt lat="44.82208" lon="6.15623">
        <ele>1054.2</ele>
        <time>2024-08-13T09:21:15Z</time>
      </trkpt>
      <trkpt lat="44.82211" lon="6.15621">
        <ele>1054</ele>
        <time>2024-08-13T09:21:16Z</time>
      </trkpt>
      <trkpt lat="44.82211" lon="6.15621">
        <ele>1054</ele>
        <time>2024-08-13T09:21:17Z</time>
      </trkpt>
      <trkpt lat="44.82213" lon="6.15619">
        <ele>1054</ele>
        <time>2024-08-13T09:21:18Z</time>
      </trkpt>
      <trkpt lat="44.82213" lon="6.15619">
        <ele>1054</ele>
        <time>2024-08-13T09:21:19Z</time>
      </trkpt>
      <trkpt lat="44.82215" lon="6.15617">
        <ele>1054.2</ele>
        <time>2024-08-13T09:21:20Z</time>
      </trkpt>
      <trkpt lat="44.82215" lon="6.15617">
        <ele>1054.2</ele>
        <time>2024-08-13T09:21:21Z</time>
      </trkpt>
      <trkpt lat="44.82218" lon="6.15616">
        <ele>1054.2</ele>
        <time>2024-08-13T09:21:22Z</time>
      </trkpt>
      <trkpt lat="44.82218" lon="6.15616">
        <ele>1054.4</ele>
        <time>2024-08-13T09:21:23Z</time>
      </trkpt>
      <trkpt lat="44.82221" lon="6.15614">
        <ele>1054.4</ele>
        <time>2024-08-13T09:21:24Z</time>
      </trkpt>
      <trkpt lat="44.82221" lon="6.15614">
        <ele>1054.2</ele>
        <time>2024-08-13T09:21:25Z</time>
      </trkpt>
      <trkpt lat="44.82223" lon="6.15613">
        <ele>1054</ele>
        <time>2024-08-13T09:21:26Z</time>
      </trkpt>
      <trkpt lat="44.82223" lon="6.15613">
        <ele>1054</ele>
        <time>2024-08-13T09:21:27Z</time>
      </trkpt>
      <trkpt lat="44.82225" lon="6.1561">
        <ele>1053.8</ele>
        <time>2024-08-13T09:21:28Z</time>
      </trkpt>
      <trkpt lat="44.82225" lon="6.1561">
        <ele>1053.8</ele>
        <time>2024-08-13T09:21:29Z</time>
      </trkpt>
      <trkpt lat="44.82228" lon="6.15608">
        <ele>1053.8</ele>
        <time>2024-08-13T09:21:30Z</time>
      </trkpt>
      <trkpt lat="44.82228" lon="6.15608">
        <ele>1054</ele>
        <time>2024-08-13T09:21:31Z</time>
      </trkpt>
      <trkpt lat="44.8223" lon="6.15606">
        <ele>1054</ele>
        <time>2024-08-13T09:21:32Z</time>
      </trkpt>
      <trkpt lat="44.8223" lon="6.15606">
        <ele>1053.8</ele>
        <time>2024-08-13T09:21:33Z</time>
      </trkpt>
      <trkpt lat="44.82232" lon="6.15604">
        <ele>1053.8</ele>
        <time>2024-08-13T09:21:34Z</time>
      </trkpt>
      <trkpt lat="44.82232" lon="6.15604">
        <ele>1053.4</ele>
        <time>2024-08-13T09:21:35Z</time>
      </trkpt>
      <trkpt lat="44.82234" lon="6.15602">
        <ele>1053.4</ele>
        <time>2024-08-13T09:21:36Z</time>
      </trkpt>
      <trkpt lat="44.82234" lon="6.15602">
        <ele>1053.4</ele>
        <time>2024-08-13T09:21:37Z</time>
      </trkpt>
      <trkpt lat="44.82237" lon="6.156">
        <ele>1053.2</ele>
        <time>2024-08-13T09:21:38Z</time>
      </trkpt>
      <trkpt lat="44.82237" lon="6.156">
        <ele>1053.2</ele>
        <time>2024-08-13T09:21:39Z</time>
      </trkpt>
      <trkpt lat="44.82239" lon="6.15597">
        <ele>1053.2</ele>
        <time>2024-08-13T09:21:40Z</time>
      </trkpt>
      <trkpt lat="44.82239" lon="6.15597">
        <ele>1053.2</ele>
        <time>2024-08-13T09:21:41Z</time>
      </trkpt>
      <trkpt lat="44.82241" lon="6.15595">
        <ele>1053.2</ele>
        <time>2024-08-13T09:21:42Z</time>
      </trkpt>
      <trkpt lat="44.82241" lon="6.15595">
        <ele>1053.2</ele>
        <time>2024-08-13T09:21:43Z</time>
      </trkpt>
      <trkpt lat="44.82243" lon="6.15593">
        <ele>1053.2</ele>
        <time>2024-08-13T09:21:44Z</time>
      </trkpt>
      <trkpt lat="44.82243" lon="6.15593">
        <ele>1053.2</ele>
        <time>2024-08-13T09:21:45Z</time>
      </trkpt>
      <trkpt lat="44.82246" lon="6.15591">
        <ele>1053.4</ele>
        <time>2024-08-13T09:21:46Z</time>
      </trkpt>
      <trkpt lat="44.82246" lon="6.15591">
        <ele>1053.4</ele>
        <time>2024-08-13T09:21:47Z</time>
      </trkpt>
      <trkpt lat="44.82248" lon="6.15588">
        <ele>1053.2</ele>
        <time>2024-08-13T09:21:48Z</time>
      </trkpt>
      <trkpt lat="44.82248" lon="6.15588">
        <ele>1053</ele>
        <time>2024-08-13T09:21:49Z</time>
      </trkpt>
      <trkpt lat="44.82251" lon="6.15586">
        <ele>1053</ele>
        <time>2024-08-13T09:21:50Z</time>
      </trkpt>
      <trkpt lat="44.82251" lon="6.15586">
        <ele>1053</ele>
        <time>2024-08-13T09:21:51Z</time>
      </trkpt>
      <trkpt lat="44.82253" lon="6.15583">
        <ele>1053</ele>
        <time>2024-08-13T09:21:52Z</time>
      </trkpt>
      <trkpt lat="44.82253" lon="6.15583">
        <ele>1052.8</ele>
        <time>2024-08-13T09:21:53Z</time>
      </trkpt>
      <trkpt lat="44.82255" lon="6.15581">
        <ele>1052.8</ele>
        <time>2024-08-13T09:21:54Z</time>
      </trkpt>
      <trkpt lat="44.82255" lon="6.15581">
        <ele>1053</ele>
        <time>2024-08-13T09:21:55Z</time>
      </trkpt>
      <trkpt lat="44.82257" lon="6.15578">
        <ele>1053</ele>
        <time>2024-08-13T09:21:56Z</time>
      </trkpt>
      <trkpt lat="44.82257" lon="6.15578">
        <ele>1052.2</ele>
        <time>2024-08-13T09:21:57Z</time>
      </trkpt>
      <trkpt lat="44.8226" lon="6.15575">
        <ele>1052.2</ele>
        <time>2024-08-13T09:21:58Z</time>
      </trkpt>
      <trkpt lat="44.8226" lon="6.15575">
        <ele>1052.6</ele>
        <time>2024-08-13T09:21:59Z</time>
      </trkpt>
      <trkpt lat="44.82261" lon="6.15572">
        <ele>1052.8</ele>
        <time>2024-08-13T09:22:00Z</time>
      </trkpt>
      <trkpt lat="44.82261" lon="6.15572">
        <ele>1052.8</ele>
        <time>2024-08-13T09:22:01Z</time>
      </trkpt>
      <trkpt lat="44.82262" lon="6.15569">
        <ele>1053.2</ele>
        <time>2024-08-13T09:22:02Z</time>
      </trkpt>
      <trkpt lat="44.82262" lon="6.15569">
        <ele>1053.2</ele>
        <time>2024-08-13T09:22:03Z</time>
      </trkpt>
      <trkpt lat="44.82265" lon="6.15566">
        <ele>1053.4</ele>
        <time>2024-08-13T09:22:04Z</time>
      </trkpt>
      <trkpt lat="44.82265" lon="6.15566">
        <ele>1053.4</ele>
        <time>2024-08-13T09:22:05Z</time>
      </trkpt>
      <trkpt lat="44.82267" lon="6.15564">
        <ele>1053.2</ele>
        <time>2024-08-13T09:22:06Z</time>
      </trkpt>
      <trkpt lat="44.82267" lon="6.15564">
        <ele>1053.2</ele>
        <time>2024-08-13T09:22:07Z</time>
      </trkpt>
      <trkpt lat="44.8227" lon="6.15561">
        <ele>1053.2</ele>
        <time>2024-08-13T09:22:08Z</time>
      </trkpt>
      <trkpt lat="44.8227" lon="6.15561">
        <ele>1053.2</ele>
        <time>2024-08-13T09:22:09Z</time>
      </trkpt>
      <trkpt lat="44.82272" lon="6.15559">
        <ele>1053.2</ele>
        <time>2024-08-13T09:22:10Z</time>
      </trkpt>
      <trkpt lat="44.82272" lon="6.15559">
        <ele>1053</ele>
        <time>2024-08-13T09:22:11Z</time>
      </trkpt>
      <trkpt lat="44.82274" lon="6.15556">
        <ele>1053</ele>
        <time>2024-08-13T09:22:12Z</time>
      </trkpt>
      <trkpt lat="44.82274" lon="6.15556">
        <ele>1052.8</ele>
        <time>2024-08-13T09:22:13Z</time>
      </trkpt>
      <trkpt lat="44.82276" lon="6.15553">
        <ele>1052.8</ele>
        <time>2024-08-13T09:22:14Z</time>
      </trkpt>
      <trkpt lat="44.82276" lon="6.15553">
        <ele>1052.6</ele>
        <time>2024-08-13T09:22:15Z</time>
      </trkpt>
      <trkpt lat="44.82278" lon="6.15551">
        <ele>1052.6</ele>
        <time>2024-08-13T09:22:16Z</time>
      </trkpt>
      <trkpt lat="44.82278" lon="6.15551">
        <ele>1052.6</ele>
        <time>2024-08-13T09:22:17Z</time>
      </trkpt>
      <trkpt lat="44.82279" lon="6.15548">
        <ele>1052.8</ele>
        <time>2024-08-13T09:22:18Z</time>
      </trkpt>
      <trkpt lat="44.82279" lon="6.15548">
        <ele>1052.8</ele>
        <time>2024-08-13T09:22:19Z</time>
      </trkpt>
      <trkpt lat="44.82282" lon="6.15545">
        <ele>1052.8</ele>
        <time>2024-08-13T09:22:20Z</time>
      </trkpt>
      <trkpt lat="44.82282" lon="6.15545">
        <ele>1052.8</ele>
        <time>2024-08-13T09:22:21Z</time>
      </trkpt>
      <trkpt lat="44.82284" lon="6.15542">
        <ele>1052.8</ele>
        <time>2024-08-13T09:22:22Z</time>
      </trkpt>
      <trkpt lat="44.82284" lon="6.15542">
        <ele>1053</ele>
        <time>2024-08-13T09:22:23Z</time>
      </trkpt>
      <trkpt lat="44.82285" lon="6.15539">
        <ele>1053</ele>
        <time>2024-08-13T09:22:24Z</time>
      </trkpt>
      <trkpt lat="44.82285" lon="6.15539">
        <ele>1053.2</ele>
        <time>2024-08-13T09:22:25Z</time>
      </trkpt>
      <trkpt lat="44.82287" lon="6.15535">
        <ele>1053.2</ele>
        <time>2024-08-13T09:22:26Z</time>
      </trkpt>
      <trkpt lat="44.82287" lon="6.15535">
        <ele>1053.2</ele>
        <time>2024-08-13T09:22:27Z</time>
      </trkpt>
      <trkpt lat="44.82289" lon="6.15532">
        <ele>1053</ele>
        <time>2024-08-13T09:22:28Z</time>
      </trkpt>
      <trkpt lat="44.82289" lon="6.15532">
        <ele>1052.6</ele>
        <time>2024-08-13T09:22:29Z</time>
      </trkpt>
      <trkpt lat="44.82291" lon="6.15529">
        <ele>1052.4</ele>
        <time>2024-08-13T09:22:30Z</time>
      </trkpt>
      <trkpt lat="44.82291" lon="6.15529">
        <ele>1052.2</ele>
        <time>2024-08-13T09:22:31Z</time>
      </trkpt>
      <trkpt lat="44.82293" lon="6.15526">
        <ele>1052.2</ele>
        <time>2024-08-13T09:22:32Z</time>
      </trkpt>
      <trkpt lat="44.82294" lon="6.15525">
        <ele>1052.2</ele>
        <time>2024-08-13T09:22:33Z</time>
      </trkpt>
      <trkpt lat="44.82295" lon="6.15524">
        <ele>1052.4</ele>
        <time>2024-08-13T09:22:34Z</time>
      </trkpt>
      <trkpt lat="44.82295" lon="6.15523">
        <ele>1052.6</ele>
        <time>2024-08-13T09:22:35Z</time>
      </trkpt>
      <trkpt lat="44.82296" lon="6.15522">
        <ele>1052.6</ele>
        <time>2024-08-13T09:22:36Z</time>
      </trkpt>
      <trkpt lat="44.82299" lon="6.15521">
        <ele>1052.6</ele>
        <time>2024-08-13T09:22:37Z</time>
      </trkpt>
      <trkpt lat="44.82299" lon="6.15521">
        <ele>1052.6</ele>
        <time>2024-08-13T09:22:38Z</time>
      </trkpt>
      <trkpt lat="44.823" lon="6.15518">
        <ele>1052.4</ele>
        <time>2024-08-13T09:22:39Z</time>
      </trkpt>
      <trkpt lat="44.823" lon="6.15518">
        <ele>1052.4</ele>
        <time>2024-08-13T09:22:40Z</time>
      </trkpt>
      <trkpt lat="44.82302" lon="6.15515">
        <ele>1052.4</ele>
        <time>2024-08-13T09:22:41Z</time>
      </trkpt>
      <trkpt lat="44.82302" lon="6.15515">
        <ele>1052.4</ele>
        <time>2024-08-13T09:22:42Z</time>
      </trkpt>
      <trkpt lat="44.82304" lon="6.15511">
        <ele>1052.2</ele>
        <time>2024-08-13T09:22:43Z</time>
      </trkpt>
      <trkpt lat="44.82304" lon="6.15511">
        <ele>1052.2</ele>
        <time>2024-08-13T09:22:44Z</time>
      </trkpt>
      <trkpt lat="44.82305" lon="6.15507">
        <ele>1052.2</ele>
        <time>2024-08-13T09:22:45Z</time>
      </trkpt>
      <trkpt lat="44.82305" lon="6.15507">
        <ele>1052.2</ele>
        <time>2024-08-13T09:22:46Z</time>
      </trkpt>
      <trkpt lat="44.82307" lon="6.15504">
        <ele>1052.4</ele>
        <time>2024-08-13T09:22:47Z</time>
      </trkpt>
      <trkpt lat="44.82307" lon="6.15504">
        <ele>1052.4</ele>
        <time>2024-08-13T09:22:48Z</time>
      </trkpt>
      <trkpt lat="44.82309" lon="6.15502">
        <ele>1052.4</ele>
        <time>2024-08-13T09:22:49Z</time>
      </trkpt>
      <trkpt lat="44.82309" lon="6.15502">
        <ele>1052.4</ele>
        <time>2024-08-13T09:22:50Z</time>
      </trkpt>
      <trkpt lat="44.8231" lon="6.15499">
        <ele>1052.2</ele>
        <time>2024-08-13T09:22:51Z</time>
      </trkpt>
      <trkpt lat="44.8231" lon="6.15499">
        <ele>1052</ele>
        <time>2024-08-13T09:22:52Z</time>
      </trkpt>
      <trkpt lat="44.82312" lon="6.15496">
        <ele>1052</ele>
        <time>2024-08-13T09:22:53Z</time>
      </trkpt>
      <trkpt lat="44.82312" lon="6.15496">
        <ele>1052</ele>
        <time>2024-08-13T09:22:54Z</time>
      </trkpt>
      <trkpt lat="44.82314" lon="6.15493">
        <ele>1052</ele>
        <time>2024-08-13T09:22:55Z</time>
      </trkpt>
      <trkpt lat="44.82314" lon="6.15493">
        <ele>1051.8</ele>
        <time>2024-08-13T09:22:56Z</time>
      </trkpt>
      <trkpt lat="44.82315" lon="6.1549">
        <ele>1051.6</ele>
        <time>2024-08-13T09:22:57Z</time>
      </trkpt>
      <trkpt lat="44.82315" lon="6.1549">
        <ele>1051.6</ele>
        <time>2024-08-13T09:22:58Z</time>
      </trkpt>
      <trkpt lat="44.82316" lon="6.15486">
        <ele>1051.6</ele>
        <time>2024-08-13T09:22:59Z</time>
      </trkpt>
      <trkpt lat="44.82316" lon="6.15486">
        <ele>1051.6</ele>
        <time>2024-08-13T09:23:00Z</time>
      </trkpt>
      <trkpt lat="44.82317" lon="6.15482">
        <ele>1051.6</ele>
        <time>2024-08-13T09:23:01Z</time>
      </trkpt>
      <trkpt lat="44.82317" lon="6.15482">
        <ele>1051.4</ele>
        <time>2024-08-13T09:23:02Z</time>
      </trkpt>
      <trkpt lat="44.82318" lon="6.15479">
        <ele>1051.4</ele>
        <time>2024-08-13T09:23:03Z</time>
      </trkpt>
      <trkpt lat="44.82318" lon="6.15479">
        <ele>1051.4</ele>
        <time>2024-08-13T09:23:04Z</time>
      </trkpt>
      <trkpt lat="44.8232" lon="6.15475">
        <ele>1051.4</ele>
        <time>2024-08-13T09:23:05Z</time>
      </trkpt>
      <trkpt lat="44.8232" lon="6.15475">
        <ele>1051.4</ele>
        <time>2024-08-13T09:23:06Z</time>
      </trkpt>
      <trkpt lat="44.82322" lon="6.15472">
        <ele>1051</ele>
        <time>2024-08-13T09:23:07Z</time>
      </trkpt>
      <trkpt lat="44.82322" lon="6.15472">
        <ele>1051</ele>
        <time>2024-08-13T09:23:08Z</time>
      </trkpt>
      <trkpt lat="44.82324" lon="6.15468">
        <ele>1051.2</ele>
        <time>2024-08-13T09:23:09Z</time>
      </trkpt>
      <trkpt lat="44.82324" lon="6.15468">
        <ele>1051.2</ele>
        <time>2024-08-13T09:23:10Z</time>
      </trkpt>
      <trkpt lat="44.82325" lon="6.15465">
        <ele>1051.4</ele>
        <time>2024-08-13T09:23:11Z</time>
      </trkpt>
      <trkpt lat="44.82325" lon="6.15465">
        <ele>1051.4</ele>
        <time>2024-08-13T09:23:12Z</time>
      </trkpt>
      <trkpt lat="44.82325" lon="6.15461">
        <ele>1051.4</ele>
        <time>2024-08-13T09:23:13Z</time>
      </trkpt>
      <trkpt lat="44.82325" lon="6.15461">
        <ele>1051.2</ele>
        <time>2024-08-13T09:23:14Z</time>
      </trkpt>
      <trkpt lat="44.82326" lon="6.15457">
        <ele>1051.4</ele>
        <time>2024-08-13T09:23:15Z</time>
      </trkpt>
      <trkpt lat="44.82326" lon="6.15457">
        <ele>1051.4</ele>
        <time>2024-08-13T09:23:16Z</time>
      </trkpt>
      <trkpt lat="44.82326" lon="6.15453">
        <ele>1051.4</ele>
        <time>2024-08-13T09:23:17Z</time>
      </trkpt>
      <trkpt lat="44.82326" lon="6.15453">
        <ele>1051.4</ele>
        <time>2024-08-13T09:23:18Z</time>
      </trkpt>
      <trkpt lat="44.82326" lon="6.15449">
        <ele>1051.2</ele>
        <time>2024-08-13T09:23:19Z</time>
      </trkpt>
      <trkpt lat="44.82325" lon="6.15447">
        <ele>1051.2</ele>
        <time>2024-08-13T09:23:20Z</time>
      </trkpt>
      <trkpt lat="44.82325" lon="6.15447">
        <ele>1051</ele>
        <time>2024-08-13T09:23:21Z</time>
      </trkpt>
      <trkpt lat="44.82326" lon="6.15442">
        <ele>1051</ele>
        <time>2024-08-13T09:23:22Z</time>
      </trkpt>
      <trkpt lat="44.82326" lon="6.15442">
        <ele>1051</ele>
        <time>2024-08-13T09:23:23Z</time>
      </trkpt>
      <trkpt lat="44.82326" lon="6.15438">
        <ele>1051.2</ele>
        <time>2024-08-13T09:23:24Z</time>
      </trkpt>
      <trkpt lat="44.82326" lon="6.15438">
        <ele>1051.2</ele>
        <time>2024-08-13T09:23:25Z</time>
      </trkpt>
      <trkpt lat="44.82327" lon="6.15434">
        <ele>1051.2</ele>
        <time>2024-08-13T09:23:26Z</time>
      </trkpt>
      <trkpt lat="44.82327" lon="6.15434">
        <ele>1051</ele>
        <time>2024-08-13T09:23:27Z</time>
      </trkpt>
      <trkpt lat="44.82328" lon="6.1543">
        <ele>1051</ele>
        <time>2024-08-13T09:23:28Z</time>
      </trkpt>
      <trkpt lat="44.82328" lon="6.1543">
        <ele>1051</ele>
        <time>2024-08-13T09:23:29Z</time>
      </trkpt>
      <trkpt lat="44.82328" lon="6.15426">
        <ele>1050.8</ele>
        <time>2024-08-13T09:23:30Z</time>
      </trkpt>
      <trkpt lat="44.82328" lon="6.15426">
        <ele>1050.8</ele>
        <time>2024-08-13T09:23:31Z</time>
      </trkpt>
      <trkpt lat="44.82329" lon="6.15422">
        <ele>1051</ele>
        <time>2024-08-13T09:23:32Z</time>
      </trkpt>
      <trkpt lat="44.82329" lon="6.15422">
        <ele>1051</ele>
        <time>2024-08-13T09:23:33Z</time>
      </trkpt>
      <trkpt lat="44.8233" lon="6.15418">
        <ele>1051</ele>
        <time>2024-08-13T09:23:34Z</time>
      </trkpt>
      <trkpt lat="44.8233" lon="6.15418">
        <ele>1051</ele>
        <time>2024-08-13T09:23:35Z</time>
      </trkpt>
      <trkpt lat="44.8233" lon="6.15414">
        <ele>1050.8</ele>
        <time>2024-08-13T09:23:36Z</time>
      </trkpt>
      <trkpt lat="44.8233" lon="6.15414">
        <ele>1050.8</ele>
        <time>2024-08-13T09:23:37Z</time>
      </trkpt>
      <trkpt lat="44.8233" lon="6.1541">
        <ele>1051</ele>
        <time>2024-08-13T09:23:38Z</time>
      </trkpt>
      <trkpt lat="44.8233" lon="6.1541">
        <ele>1051</ele>
        <time>2024-08-13T09:23:39Z</time>
      </trkpt>
      <trkpt lat="44.8233" lon="6.15406">
        <ele>1051</ele>
        <time>2024-08-13T09:23:40Z</time>
      </trkpt>
      <trkpt lat="44.8233" lon="6.15406">
        <ele>1050.8</ele>
        <time>2024-08-13T09:23:41Z</time>
      </trkpt>
      <trkpt lat="44.82329" lon="6.15403">
        <ele>1050.8</ele>
        <time>2024-08-13T09:23:42Z</time>
      </trkpt>
      <trkpt lat="44.82329" lon="6.15403">
        <ele>1050.8</ele>
        <time>2024-08-13T09:23:43Z</time>
      </trkpt>
      <trkpt lat="44.82328" lon="6.15399">
        <ele>1050.8</ele>
        <time>2024-08-13T09:23:44Z</time>
      </trkpt>
      <trkpt lat="44.82328" lon="6.15399">
        <ele>1050.8</ele>
        <time>2024-08-13T09:23:45Z</time>
      </trkpt>
      <trkpt lat="44.82328" lon="6.15395">
        <ele>1050.8</ele>
        <time>2024-08-13T09:23:46Z</time>
      </trkpt>
      <trkpt lat="44.82328" lon="6.15395">
        <ele>1050.6</ele>
        <time>2024-08-13T09:23:47Z</time>
      </trkpt>
      <trkpt lat="44.82326" lon="6.1539">
        <ele>1050.8</ele>
        <time>2024-08-13T09:23:48Z</time>
      </trkpt>
      <trkpt lat="44.82326" lon="6.1539">
        <ele>1050.6</ele>
        <time>2024-08-13T09:23:49Z</time>
      </trkpt>
      <trkpt lat="44.82326" lon="6.15386">
        <ele>1050.6</ele>
        <time>2024-08-13T09:23:50Z</time>
      </trkpt>
      <trkpt lat="44.82326" lon="6.15386">
        <ele>1050.4</ele>
        <time>2024-08-13T09:23:51Z</time>
      </trkpt>
      <trkpt lat="44.82325" lon="6.15382">
        <ele>1050.4</ele>
        <time>2024-08-13T09:23:52Z</time>
      </trkpt>
      <trkpt lat="44.82325" lon="6.15382">
        <ele>1050.2</ele>
        <time>2024-08-13T09:23:53Z</time>
      </trkpt>
      <trkpt lat="44.82325" lon="6.15379">
        <ele>1050.2</ele>
        <time>2024-08-13T09:23:54Z</time>
      </trkpt>
      <trkpt lat="44.82325" lon="6.15379">
        <ele>1050.2</ele>
        <time>2024-08-13T09:23:55Z</time>
      </trkpt>
      <trkpt lat="44.82324" lon="6.15374">
        <ele>1050.2</ele>
        <time>2024-08-13T09:23:56Z</time>
      </trkpt>
      <trkpt lat="44.82324" lon="6.15374">
        <ele>1050</ele>
        <time>2024-08-13T09:23:57Z</time>
      </trkpt>
      <trkpt lat="44.82323" lon="6.1537">
        <ele>1050</ele>
        <time>2024-08-13T09:23:58Z</time>
      </trkpt>
      <trkpt lat="44.82323" lon="6.1537">
        <ele>1050.2</ele>
        <time>2024-08-13T09:23:59Z</time>
      </trkpt>
      <trkpt lat="44.82324" lon="6.15366">
        <ele>1050.2</ele>
        <time>2024-08-13T09:24:00Z</time>
      </trkpt>
      <trkpt lat="44.82324" lon="6.15366">
        <ele>1050.2</ele>
        <time>2024-08-13T09:24:01Z</time>
      </trkpt>
      <trkpt lat="44.82323" lon="6.15363">
        <ele>1050.2</ele>
        <time>2024-08-13T09:24:02Z</time>
      </trkpt>
      <trkpt lat="44.82323" lon="6.15363">
        <ele>1050.2</ele>
        <time>2024-08-13T09:24:03Z</time>
      </trkpt>
      <trkpt lat="44.82323" lon="6.15359">
        <ele>1050.2</ele>
        <time>2024-08-13T09:24:04Z</time>
      </trkpt>
      <trkpt lat="44.82323" lon="6.15359">
        <ele>1050.2</ele>
        <time>2024-08-13T09:24:05Z</time>
      </trkpt>
      <trkpt lat="44.82322" lon="6.15356">
        <ele>1050.2</ele>
        <time>2024-08-13T09:24:06Z</time>
      </trkpt>
      <trkpt lat="44.82322" lon="6.15356">
        <ele>1050</ele>
        <time>2024-08-13T09:24:07Z</time>
      </trkpt>
      <trkpt lat="44.82321" lon="6.15353">
        <ele>1050</ele>
        <time>2024-08-13T09:24:08Z</time>
      </trkpt>
      <trkpt lat="44.82321" lon="6.15353">
        <ele>1049.6</ele>
        <time>2024-08-13T09:24:09Z</time>
      </trkpt>
      <trkpt lat="44.82321" lon="6.15349">
        <ele>1049.6</ele>
        <time>2024-08-13T09:24:10Z</time>
      </trkpt>
      <trkpt lat="44.82321" lon="6.15349">
        <ele>1049.8</ele>
        <time>2024-08-13T09:24:11Z</time>
      </trkpt>
      <trkpt lat="44.8232" lon="6.15345">
        <ele>1049.8</ele>
        <time>2024-08-13T09:24:12Z</time>
      </trkpt>
      <trkpt lat="44.8232" lon="6.15345">
        <ele>1049.4</ele>
        <time>2024-08-13T09:24:13Z</time>
      </trkpt>
      <trkpt lat="44.82319" lon="6.15341">
        <ele>1049.4</ele>
        <time>2024-08-13T09:24:14Z</time>
      </trkpt>
      <trkpt lat="44.82319" lon="6.15341">
        <ele>1049.4</ele>
        <time>2024-08-13T09:24:15Z</time>
      </trkpt>
      <trkpt lat="44.82317" lon="6.15337">
        <ele>1049.4</ele>
        <time>2024-08-13T09:24:16Z</time>
      </trkpt>
      <trkpt lat="44.82317" lon="6.15337">
        <ele>1049.4</ele>
        <time>2024-08-13T09:24:17Z</time>
      </trkpt>
      <trkpt lat="44.82316" lon="6.15333">
        <ele>1049.6</ele>
        <time>2024-08-13T09:24:18Z</time>
      </trkpt>
      <trkpt lat="44.82316" lon="6.15333">
        <ele>1049.6</ele>
        <time>2024-08-13T09:24:19Z</time>
      </trkpt>
      <trkpt lat="44.82316" lon="6.15328">
        <ele>1049.6</ele>
        <time>2024-08-13T09:24:20Z</time>
      </trkpt>
      <trkpt lat="44.82316" lon="6.15328">
        <ele>1049.6</ele>
        <time>2024-08-13T09:24:21Z</time>
      </trkpt>
      <trkpt lat="44.82314" lon="6.15325">
        <ele>1049.6</ele>
        <time>2024-08-13T09:24:22Z</time>
      </trkpt>
      <trkpt lat="44.82314" lon="6.15325">
        <ele>1049.4</ele>
        <time>2024-08-13T09:24:23Z</time>
      </trkpt>
      <trkpt lat="44.82314" lon="6.1532">
        <ele>1049.4</ele>
        <time>2024-08-13T09:24:24Z</time>
      </trkpt>
      <trkpt lat="44.82314" lon="6.1532">
        <ele>1049.6</ele>
        <time>2024-08-13T09:24:25Z</time>
      </trkpt>
      <trkpt lat="44.82313" lon="6.15316">
        <ele>1049.6</ele>
        <time>2024-08-13T09:24:26Z</time>
      </trkpt>
      <trkpt lat="44.82312" lon="6.15313">
        <ele>1049.6</ele>
        <time>2024-08-13T09:24:27Z</time>
      </trkpt>
      <trkpt lat="44.82312" lon="6.15313">
        <ele>1049.6</ele>
        <time>2024-08-13T09:24:28Z</time>
      </trkpt>
      <trkpt lat="44.82312" lon="6.15309">
        <ele>1049.4</ele>
        <time>2024-08-13T09:24:29Z</time>
      </trkpt>
      <trkpt lat="44.82312" lon="6.15309">
        <ele>1049.4</ele>
        <time>2024-08-13T09:24:30Z</time>
      </trkpt>
      <trkpt lat="44.82311" lon="6.15305">
        <ele>1049.4</ele>
        <time>2024-08-13T09:24:31Z</time>
      </trkpt>
      <trkpt lat="44.82311" lon="6.15305">
        <ele>1049.4</ele>
        <time>2024-08-13T09:24:32Z</time>
      </trkpt>
      <trkpt lat="44.82311" lon="6.15301">
        <ele>1049.4</ele>
        <time>2024-08-13T09:24:33Z</time>
      </trkpt>
      <trkpt lat="44.82311" lon="6.15301">
        <ele>1049.4</ele>
        <time>2024-08-13T09:24:34Z</time>
      </trkpt>
      <trkpt lat="44.82311" lon="6.15297">
        <ele>1049.2</ele>
        <time>2024-08-13T09:24:35Z</time>
      </trkpt>
      <trkpt lat="44.82311" lon="6.15297">
        <ele>1049.2</ele>
        <time>2024-08-13T09:24:36Z</time>
      </trkpt>
      <trkpt lat="44.8231" lon="6.15293">
        <ele>1049.6</ele>
        <time>2024-08-13T09:24:37Z</time>
      </trkpt>
      <trkpt lat="44.82312" lon="6.15292">
        <ele>1049.6</ele>
        <time>2024-08-13T09:24:38Z</time>
      </trkpt>
      <trkpt lat="44.82312" lon="6.15292">
        <ele>1049.4</ele>
        <time>2024-08-13T09:24:39Z</time>
      </trkpt>
      <trkpt lat="44.82313" lon="6.15288">
        <ele>1049.4</ele>
        <time>2024-08-13T09:24:40Z</time>
      </trkpt>
      <trkpt lat="44.82313" lon="6.15288">
        <ele>1049.4</ele>
        <time>2024-08-13T09:24:41Z</time>
      </trkpt>
      <trkpt lat="44.82312" lon="6.15283">
        <ele>1049.4</ele>
        <time>2024-08-13T09:24:42Z</time>
      </trkpt>
      <trkpt lat="44.82312" lon="6.15283">
        <ele>1049.6</ele>
        <time>2024-08-13T09:24:43Z</time>
      </trkpt>
      <trkpt lat="44.82313" lon="6.15279">
        <ele>1049.4</ele>
        <time>2024-08-13T09:24:44Z</time>
      </trkpt>
      <trkpt lat="44.82313" lon="6.15279">
        <ele>1049.2</ele>
        <time>2024-08-13T09:24:45Z</time>
      </trkpt>
      <trkpt lat="44.82313" lon="6.15275">
        <ele>1049</ele>
        <time>2024-08-13T09:24:46Z</time>
      </trkpt>
      <trkpt lat="44.82313" lon="6.15275">
        <ele>1048.8</ele>
        <time>2024-08-13T09:24:47Z</time>
      </trkpt>
      <trkpt lat="44.82314" lon="6.15272">
        <ele>1049</ele>
        <time>2024-08-13T09:24:48Z</time>
      </trkpt>
      <trkpt lat="44.82316" lon="6.1527">
        <ele>1049</ele>
        <time>2024-08-13T09:24:49Z</time>
      </trkpt>
      <trkpt lat="44.82316" lon="6.1527">
        <ele>1048.8</ele>
        <time>2024-08-13T09:24:50Z</time>
      </trkpt>
      <trkpt lat="44.82318" lon="6.15266">
        <ele>1048.8</ele>
        <time>2024-08-13T09:24:51Z</time>
      </trkpt>
      <trkpt lat="44.82318" lon="6.15266">
        <ele>1048.8</ele>
        <time>2024-08-13T09:24:52Z</time>
      </trkpt>
      <trkpt lat="44.8232" lon="6.15264">
        <ele>1048.8</ele>
        <time>2024-08-13T09:24:53Z</time>
      </trkpt>
      <trkpt lat="44.8232" lon="6.15264">
        <ele>1048.8</ele>
        <time>2024-08-13T09:24:54Z</time>
      </trkpt>
      <trkpt lat="44.82321" lon="6.15262">
        <ele>1048.8</ele>
        <time>2024-08-13T09:24:55Z</time>
      </trkpt>
      <trkpt lat="44.82321" lon="6.15262">
        <ele>1048.8</ele>
        <time>2024-08-13T09:24:56Z</time>
      </trkpt>
      <trkpt lat="44.82323" lon="6.1526">
        <ele>1048.4</ele>
        <time>2024-08-13T09:24:57Z</time>
      </trkpt>
      <trkpt lat="44.82323" lon="6.1526">
        <ele>1048.4</ele>
        <time>2024-08-13T09:24:58Z</time>
      </trkpt>
      <trkpt lat="44.82325" lon="6.15257">
        <ele>1048.4</ele>
        <time>2024-08-13T09:24:59Z</time>
      </trkpt>
      <trkpt lat="44.82325" lon="6.15257">
        <ele>1048.4</ele>
        <time>2024-08-13T09:25:00Z</time>
      </trkpt>
      <trkpt lat="44.82327" lon="6.15254">
        <ele>1048.4</ele>
        <time>2024-08-13T09:25:01Z</time>
      </trkpt>
      <trkpt lat="44.82327" lon="6.15254">
        <ele>1048.4</ele>
        <time>2024-08-13T09:25:02Z</time>
      </trkpt>
      <trkpt lat="44.82329" lon="6.1525">
        <ele>1048.4</ele>
        <time>2024-08-13T09:25:03Z</time>
      </trkpt>
      <trkpt lat="44.82329" lon="6.1525">
        <ele>1048.4</ele>
        <time>2024-08-13T09:25:04Z</time>
      </trkpt>
      <trkpt lat="44.82331" lon="6.15246">
        <ele>1048.2</ele>
        <time>2024-08-13T09:25:05Z</time>
      </trkpt>
      <trkpt lat="44.82331" lon="6.15246">
        <ele>1048.2</ele>
        <time>2024-08-13T09:25:06Z</time>
      </trkpt>
      <trkpt lat="44.82333" lon="6.15244">
        <ele>1048.2</ele>
        <time>2024-08-13T09:25:07Z</time>
      </trkpt>
      <trkpt lat="44.82333" lon="6.15244">
        <ele>1048.2</ele>
        <time>2024-08-13T09:25:08Z</time>
      </trkpt>
      <trkpt lat="44.82334" lon="6.15241">
        <ele>1048.2</ele>
        <time>2024-08-13T09:25:09Z</time>
      </trkpt>
      <trkpt lat="44.82334" lon="6.15241">
        <ele>1048.4</ele>
        <time>2024-08-13T09:25:10Z</time>
      </trkpt>
      <trkpt lat="44.82335" lon="6.15237">
        <ele>1048.4</ele>
        <time>2024-08-13T09:25:11Z</time>
      </trkpt>
      <trkpt lat="44.82335" lon="6.15237">
        <ele>1048.2</ele>
        <time>2024-08-13T09:25:12Z</time>
      </trkpt>
      <trkpt lat="44.82337" lon="6.15235">
        <ele>1048.2</ele>
        <time>2024-08-13T09:25:13Z</time>
      </trkpt>
      <trkpt lat="44.82337" lon="6.15235">
        <ele>1048.2</ele>
        <time>2024-08-13T09:25:14Z</time>
      </trkpt>
      <trkpt lat="44.82338" lon="6.15232">
        <ele>1048.2</ele>
        <time>2024-08-13T09:25:15Z</time>
      </trkpt>
      <trkpt lat="44.8234" lon="6.1523">
        <ele>1048.2</ele>
        <time>2024-08-13T09:25:16Z</time>
      </trkpt>
      <trkpt lat="44.8234" lon="6.1523">
        <ele>1048.2</ele>
        <time>2024-08-13T09:25:17Z</time>
      </trkpt>
      <trkpt lat="44.8234" lon="6.15227">
        <ele>1048.2</ele>
        <time>2024-08-13T09:25:18Z</time>
      </trkpt>
      <trkpt lat="44.8234" lon="6.15227">
        <ele>1048.2</ele>
        <time>2024-08-13T09:25:19Z</time>
      </trkpt>
      <trkpt lat="44.8234" lon="6.15223">
        <ele>1048</ele>
        <time>2024-08-13T09:25:20Z</time>
      </trkpt>
      <trkpt lat="44.82341" lon="6.15221">
        <ele>1047.8</ele>
        <time>2024-08-13T09:25:21Z</time>
      </trkpt>
      <trkpt lat="44.82341" lon="6.15221">
        <ele>1047.8</ele>
        <time>2024-08-13T09:25:22Z</time>
      </trkpt>
      <trkpt lat="44.82341" lon="6.15217">
        <ele>1047.8</ele>
        <time>2024-08-13T09:25:23Z</time>
      </trkpt>
      <trkpt lat="44.82341" lon="6.15217">
        <ele>1047.8</ele>
        <time>2024-08-13T09:25:24Z</time>
      </trkpt>
      <trkpt lat="44.82341" lon="6.15213">
        <ele>1048</ele>
        <time>2024-08-13T09:25:25Z</time>
      </trkpt>
      <trkpt lat="44.82341" lon="6.15213">
        <ele>1048</ele>
        <time>2024-08-13T09:25:26Z</time>
      </trkpt>
      <trkpt lat="44.82343" lon="6.15211">
        <ele>1048.4</ele>
        <time>2024-08-13T09:25:27Z</time>
      </trkpt>
      <trkpt lat="44.82343" lon="6.15211">
        <ele>1048.4</ele>
        <time>2024-08-13T09:25:28Z</time>
      </trkpt>
      <trkpt lat="44.82344" lon="6.15208">
        <ele>1048.4</ele>
        <time>2024-08-13T09:25:29Z</time>
      </trkpt>
      <trkpt lat="44.82344" lon="6.15208">
        <ele>1048.4</ele>
        <time>2024-08-13T09:25:30Z</time>
      </trkpt>
      <trkpt lat="44.82345" lon="6.15204">
        <ele>1048.2</ele>
        <time>2024-08-13T09:25:31Z</time>
      </trkpt>
      <trkpt lat="44.82345" lon="6.15204">
        <ele>1048.2</ele>
        <time>2024-08-13T09:25:32Z</time>
      </trkpt>
      <trkpt lat="44.82345" lon="6.15204">
        <ele>1048.2</ele>
        <time>2024-08-13T09:25:33Z</time>
      </trkpt>
      <trkpt lat="44.82345" lon="6.152">
        <ele>1048.2</ele>
        <time>2024-08-13T09:25:34Z</time>
      </trkpt>
      <trkpt lat="44.82345" lon="6.152">
        <ele>1048.2</ele>
        <time>2024-08-13T09:25:35Z</time>
      </trkpt>
      <trkpt lat="44.82346" lon="6.15197">
        <ele>1048.2</ele>
        <time>2024-08-13T09:25:36Z</time>
      </trkpt>
      <trkpt lat="44.82346" lon="6.15197">
        <ele>1048</ele>
        <time>2024-08-13T09:25:37Z</time>
      </trkpt>
      <trkpt lat="44.82348" lon="6.15193">
        <ele>1048</ele>
        <time>2024-08-13T09:25:38Z</time>
      </trkpt>
      <trkpt lat="44.82348" lon="6.15193">
        <ele>1047.8</ele>
        <time>2024-08-13T09:25:39Z</time>
      </trkpt>
      <trkpt lat="44.82349" lon="6.15188">
        <ele>1047.8</ele>
        <time>2024-08-13T09:25:40Z</time>
      </trkpt>
      <trkpt lat="44.82349" lon="6.15188">
        <ele>1048</ele>
        <time>2024-08-13T09:25:41Z</time>
      </trkpt>
      <trkpt lat="44.8235" lon="6.15185">
        <ele>1048</ele>
        <time>2024-08-13T09:25:42Z</time>
      </trkpt>
      <trkpt lat="44.8235" lon="6.15185">
        <ele>1048</ele>
        <time>2024-08-13T09:25:43Z</time>
      </trkpt>
      <trkpt lat="44.82351" lon="6.15182">
        <ele>1047.8</ele>
        <time>2024-08-13T09:25:44Z</time>
      </trkpt>
      <trkpt lat="44.82351" lon="6.15182">
        <ele>1047.6</ele>
        <time>2024-08-13T09:25:45Z</time>
      </trkpt>
      <trkpt lat="44.82352" lon="6.15178">
        <ele>1047.6</ele>
        <time>2024-08-13T09:25:46Z</time>
      </trkpt>
      <trkpt lat="44.82352" lon="6.15178">
        <ele>1047.6</ele>
        <time>2024-08-13T09:25:47Z</time>
      </trkpt>
      <trkpt lat="44.82353" lon="6.15174">
        <ele>1047.6</ele>
        <time>2024-08-13T09:25:48Z</time>
      </trkpt>
      <trkpt lat="44.82353" lon="6.15174">
        <ele>1047.6</ele>
        <time>2024-08-13T09:25:49Z</time>
      </trkpt>
      <trkpt lat="44.82353" lon="6.1517">
        <ele>1047.6</ele>
        <time>2024-08-13T09:25:50Z</time>
      </trkpt>
      <trkpt lat="44.82353" lon="6.1517">
        <ele>1047.6</ele>
        <time>2024-08-13T09:25:51Z</time>
      </trkpt>
      <trkpt lat="44.82353" lon="6.15167">
        <ele>1047.4</ele>
        <time>2024-08-13T09:25:52Z</time>
      </trkpt>
      <trkpt lat="44.82353" lon="6.15167">
        <ele>1047.4</ele>
        <time>2024-08-13T09:25:53Z</time>
      </trkpt>
      <trkpt lat="44.82352" lon="6.15165">
        <ele>1047.2</ele>
        <time>2024-08-13T09:25:54Z</time>
      </trkpt>
      <trkpt lat="44.82352" lon="6.15165">
        <ele>1047.4</ele>
        <time>2024-08-13T09:25:55Z</time>
      </trkpt>
      <trkpt lat="44.82352" lon="6.15161">
        <ele>1047.4</ele>
        <time>2024-08-13T09:25:56Z</time>
      </trkpt>
      <trkpt lat="44.82352" lon="6.15161">
        <ele>1047.4</ele>
        <time>2024-08-13T09:25:57Z</time>
      </trkpt>
      <trkpt lat="44.82352" lon="6.15157">
        <ele>1047.4</ele>
        <time>2024-08-13T09:25:58Z</time>
      </trkpt>
      <trkpt lat="44.82352" lon="6.15157">
        <ele>1047.4</ele>
        <time>2024-08-13T09:25:59Z</time>
      </trkpt>
      <trkpt lat="44.82351" lon="6.15154">
        <ele>1047.2</ele>
        <time>2024-08-13T09:26:00Z</time>
      </trkpt>
      <trkpt lat="44.82351" lon="6.15154">
        <ele>1047</ele>
        <time>2024-08-13T09:26:01Z</time>
      </trkpt>
      <trkpt lat="44.8235" lon="6.1515">
        <ele>1047.2</ele>
        <time>2024-08-13T09:26:02Z</time>
      </trkpt>
      <trkpt lat="44.82349" lon="6.15147">
        <ele>1047.2</ele>
        <time>2024-08-13T09:26:03Z</time>
      </trkpt>
      <trkpt lat="44.82349" lon="6.15147">
        <ele>1047.4</ele>
        <time>2024-08-13T09:26:04Z</time>
      </trkpt>
      <trkpt lat="44.82348" lon="6.15143">
        <ele>1047.6</ele>
        <time>2024-08-13T09:26:05Z</time>
      </trkpt>
      <trkpt lat="44.82348" lon="6.15143">
        <ele>1047.6</ele>
        <time>2024-08-13T09:26:06Z</time>
      </trkpt>
      <trkpt lat="44.82348" lon="6.1514">
        <ele>1047.2</ele>
        <time>2024-08-13T09:26:07Z</time>
      </trkpt>
      <trkpt lat="44.82348" lon="6.1514">
        <ele>1047.2</ele>
        <time>2024-08-13T09:26:08Z</time>
      </trkpt>
      <trkpt lat="44.82348" lon="6.15137">
        <ele>1047.2</ele>
        <time>2024-08-13T09:26:09Z</time>
      </trkpt>
      <trkpt lat="44.82348" lon="6.15137">
        <ele>1047.2</ele>
        <time>2024-08-13T09:26:10Z</time>
      </trkpt>
      <trkpt lat="44.82349" lon="6.15134">
        <ele>1047</ele>
        <time>2024-08-13T09:26:11Z</time>
      </trkpt>
      <trkpt lat="44.82349" lon="6.15134">
        <ele>1046.8</ele>
        <time>2024-08-13T09:26:12Z</time>
      </trkpt>
      <trkpt lat="44.82349" lon="6.15129">
        <ele>1046.8</ele>
        <time>2024-08-13T09:26:13Z</time>
      </trkpt>
      <trkpt lat="44.82349" lon="6.15129">
        <ele>1046.8</ele>
        <time>2024-08-13T09:26:14Z</time>
      </trkpt>
      <trkpt lat="44.82349" lon="6.15126">
        <ele>1046.8</ele>
        <time>2024-08-13T09:26:15Z</time>
      </trkpt>
      <trkpt lat="44.82349" lon="6.15126">
        <ele>1046.8</ele>
        <time>2024-08-13T09:26:16Z</time>
      </trkpt>
      <trkpt lat="44.82349" lon="6.15126">
        <ele>1046.8</ele>
        <time>2024-08-13T09:26:17Z</time>
      </trkpt>
      <trkpt lat="44.8235" lon="6.15122">
        <ele>1046.8</ele>
        <time>2024-08-13T09:26:18Z</time>
      </trkpt>
      <trkpt lat="44.8235" lon="6.15122">
        <ele>1046.6</ele>
        <time>2024-08-13T09:26:19Z</time>
      </trkpt>
      <trkpt lat="44.8235" lon="6.15119">
        <ele>1046.4</ele>
        <time>2024-08-13T09:26:20Z</time>
      </trkpt>
      <trkpt lat="44.8235" lon="6.15116">
        <ele>1046.4</ele>
        <time>2024-08-13T09:26:21Z</time>
      </trkpt>
      <trkpt lat="44.8235" lon="6.15116">
        <ele>1046.4</ele>
        <time>2024-08-13T09:26:22Z</time>
      </trkpt>
      <trkpt lat="44.8235" lon="6.15113">
        <ele>1046.4</ele>
        <time>2024-08-13T09:26:23Z</time>
      </trkpt>
      <trkpt lat="44.8235" lon="6.15109">
        <ele>1046.4</ele>
        <time>2024-08-13T09:26:24Z</time>
      </trkpt>
      <trkpt lat="44.8235" lon="6.15109">
        <ele>1046.4</ele>
        <time>2024-08-13T09:26:25Z</time>
      </trkpt>
      <trkpt lat="44.82351" lon="6.15105">
        <ele>1046.4</ele>
        <time>2024-08-13T09:26:26Z</time>
      </trkpt>
      <trkpt lat="44.82351" lon="6.15105">
        <ele>1046.4</ele>
        <time>2024-08-13T09:26:27Z</time>
      </trkpt>
      <trkpt lat="44.82351" lon="6.15102">
        <ele>1046.4</ele>
        <time>2024-08-13T09:26:28Z</time>
      </trkpt>
      <trkpt lat="44.82351" lon="6.15102">
        <ele>1046.4</ele>
        <time>2024-08-13T09:26:29Z</time>
      </trkpt>
      <trkpt lat="44.82352" lon="6.15099">
        <ele>1046.4</ele>
        <time>2024-08-13T09:26:30Z</time>
      </trkpt>
      <trkpt lat="44.82352" lon="6.15099">
        <ele>1046.6</ele>
        <time>2024-08-13T09:26:31Z</time>
      </trkpt>
      <trkpt lat="44.82352" lon="6.15094">
        <ele>1046.6</ele>
        <time>2024-08-13T09:26:32Z</time>
      </trkpt>
      <trkpt lat="44.82352" lon="6.15094">
        <ele>1046.6</ele>
        <time>2024-08-13T09:26:33Z</time>
      </trkpt>
      <trkpt lat="44.82353" lon="6.1509">
        <ele>1046.6</ele>
        <time>2024-08-13T09:26:34Z</time>
      </trkpt>
      <trkpt lat="44.82353" lon="6.1509">
        <ele>1046.8</ele>
        <time>2024-08-13T09:26:35Z</time>
      </trkpt>
      <trkpt lat="44.82355" lon="6.15086">
        <ele>1046.8</ele>
        <time>2024-08-13T09:26:36Z</time>
      </trkpt>
      <trkpt lat="44.82355" lon="6.15086">
        <ele>1046.6</ele>
        <time>2024-08-13T09:26:37Z</time>
      </trkpt>
      <trkpt lat="44.82355" lon="6.15082">
        <ele>1046.6</ele>
        <time>2024-08-13T09:26:38Z</time>
      </trkpt>
      <trkpt lat="44.82355" lon="6.15082">
        <ele>1046.6</ele>
        <time>2024-08-13T09:26:39Z</time>
      </trkpt>
      <trkpt lat="44.82356" lon="6.15079">
        <ele>1046.8</ele>
        <time>2024-08-13T09:26:40Z</time>
      </trkpt>
      <trkpt lat="44.82356" lon="6.15079">
        <ele>1046.8</ele>
        <time>2024-08-13T09:26:41Z</time>
      </trkpt>
      <trkpt lat="44.82357" lon="6.15076">
        <ele>1046.6</ele>
        <time>2024-08-13T09:26:42Z</time>
      </trkpt>
      <trkpt lat="44.82357" lon="6.15072">
        <ele>1046.6</ele>
        <time>2024-08-13T09:26:43Z</time>
      </trkpt>
      <trkpt lat="44.82357" lon="6.15072">
        <ele>1046.6</ele>
        <time>2024-08-13T09:26:44Z</time>
      </trkpt>
      <trkpt lat="44.82357" lon="6.15066">
        <ele>1046.6</ele>
        <time>2024-08-13T09:26:45Z</time>
      </trkpt>
      <trkpt lat="44.82357" lon="6.15066">
        <ele>1046.6</ele>
        <time>2024-08-13T09:26:46Z</time>
      </trkpt>
      <trkpt lat="44.82359" lon="6.15063">
        <ele>1046.6</ele>
        <time>2024-08-13T09:26:47Z</time>
      </trkpt>
      <trkpt lat="44.82359" lon="6.15063">
        <ele>1046.2</ele>
        <time>2024-08-13T09:26:48Z</time>
      </trkpt>
      <trkpt lat="44.82361" lon="6.1506">
        <ele>1046.2</ele>
        <time>2024-08-13T09:26:49Z</time>
      </trkpt>
      <trkpt lat="44.82362" lon="6.15057">
        <ele>1046.4</ele>
        <time>2024-08-13T09:26:50Z</time>
      </trkpt>
      <trkpt lat="44.82362" lon="6.15057">
        <ele>1046.4</ele>
        <time>2024-08-13T09:26:51Z</time>
      </trkpt>
      <trkpt lat="44.82362" lon="6.15053">
        <ele>1046.2</ele>
        <time>2024-08-13T09:26:52Z</time>
      </trkpt>
      <trkpt lat="44.82362" lon="6.1505">
        <ele>1046.2</ele>
        <time>2024-08-13T09:26:53Z</time>
      </trkpt>
      <trkpt lat="44.82362" lon="6.1505">
        <ele>1046.4</ele>
        <time>2024-08-13T09:26:54Z</time>
      </trkpt>
      <trkpt lat="44.82361" lon="6.15046">
        <ele>1046.4</ele>
        <time>2024-08-13T09:26:55Z</time>
      </trkpt>
      <trkpt lat="44.82361" lon="6.15046">
        <ele>1046.4</ele>
        <time>2024-08-13T09:26:56Z</time>
      </trkpt>
      <trkpt lat="44.8236" lon="6.15043">
        <ele>1046.4</ele>
        <time>2024-08-13T09:26:57Z</time>
      </trkpt>
      <trkpt lat="44.8236" lon="6.15043">
        <ele>1046.4</ele>
        <time>2024-08-13T09:26:58Z</time>
      </trkpt>
      <trkpt lat="44.8236" lon="6.15039">
        <ele>1046.4</ele>
        <time>2024-08-13T09:26:59Z</time>
      </trkpt>
      <trkpt lat="44.8236" lon="6.15039">
        <ele>1046.2</ele>
        <time>2024-08-13T09:27:00Z</time>
      </trkpt>
      <trkpt lat="44.82359" lon="6.15035">
        <ele>1046.2</ele>
        <time>2024-08-13T09:27:01Z</time>
      </trkpt>
      <trkpt lat="44.82359" lon="6.15035">
        <ele>1046</ele>
        <time>2024-08-13T09:27:02Z</time>
      </trkpt>
      <trkpt lat="44.8236" lon="6.15031">
        <ele>1046</ele>
        <time>2024-08-13T09:27:03Z</time>
      </trkpt>
      <trkpt lat="44.8236" lon="6.15031">
        <ele>1046.2</ele>
        <time>2024-08-13T09:27:04Z</time>
      </trkpt>
      <trkpt lat="44.82362" lon="6.15029">
        <ele>1046.2</ele>
        <time>2024-08-13T09:27:05Z</time>
      </trkpt>
      <trkpt lat="44.82362" lon="6.15029">
        <ele>1046.2</ele>
        <time>2024-08-13T09:27:06Z</time>
      </trkpt>
      <trkpt lat="44.82365" lon="6.15028">
        <ele>1046</ele>
        <time>2024-08-13T09:27:07Z</time>
      </trkpt>
      <trkpt lat="44.82367" lon="6.15027">
        <ele>1045.8</ele>
        <time>2024-08-13T09:27:08Z</time>
      </trkpt>
      <trkpt lat="44.82369" lon="6.15026">
        <ele>1045.6</ele>
        <time>2024-08-13T09:27:09Z</time>
      </trkpt>
      <trkpt lat="44.82369" lon="6.15026">
        <ele>1045.6</ele>
        <time>2024-08-13T09:27:10Z</time>
      </trkpt>
      <trkpt lat="44.82372" lon="6.15025">
        <ele>1045.6</ele>
        <time>2024-08-13T09:27:11Z</time>
      </trkpt>
      <trkpt lat="44.82372" lon="6.15025">
        <ele>1045.8</ele>
        <time>2024-08-13T09:27:12Z</time>
      </trkpt>
      <trkpt lat="44.82376" lon="6.15025">
        <ele>1046</ele>
        <time>2024-08-13T09:27:13Z</time>
      </trkpt>
      <trkpt lat="44.82376" lon="6.15025">
        <ele>1046</ele>
        <time>2024-08-13T09:27:14Z</time>
      </trkpt>
      <trkpt lat="44.82379" lon="6.15024">
        <ele>1046</ele>
        <time>2024-08-13T09:27:15Z</time>
      </trkpt>
      <trkpt lat="44.82379" lon="6.15024">
        <ele>1046.2</ele>
        <time>2024-08-13T09:27:16Z</time>
      </trkpt>
      <trkpt lat="44.82383" lon="6.15023">
        <ele>1046.4</ele>
        <time>2024-08-13T09:27:17Z</time>
      </trkpt>
      <trkpt lat="44.82383" lon="6.15023">
        <ele>1046.4</ele>
        <time>2024-08-13T09:27:18Z</time>
      </trkpt>
      <trkpt lat="44.82385" lon="6.15023">
        <ele>1046.4</ele>
        <time>2024-08-13T09:27:19Z</time>
      </trkpt>
      <trkpt lat="44.82385" lon="6.15023">
        <ele>1046.2</ele>
        <time>2024-08-13T09:27:20Z</time>
      </trkpt>
      <trkpt lat="44.82387" lon="6.15023">
        <ele>1046.2</ele>
        <time>2024-08-13T09:27:21Z</time>
      </trkpt>
      <trkpt lat="44.82387" lon="6.15023">
        <ele>1046</ele>
        <time>2024-08-13T09:27:22Z</time>
      </trkpt>
      <trkpt lat="44.8239" lon="6.15023">
        <ele>1046</ele>
        <time>2024-08-13T09:27:23Z</time>
      </trkpt>
      <trkpt lat="44.8239" lon="6.15023">
        <ele>1046</ele>
        <time>2024-08-13T09:27:24Z</time>
      </trkpt>
      <trkpt lat="44.82392" lon="6.15023">
        <ele>1046</ele>
        <time>2024-08-13T09:27:25Z</time>
      </trkpt>
      <trkpt lat="44.82392" lon="6.15023">
        <ele>1046</ele>
        <time>2024-08-13T09:27:26Z</time>
      </trkpt>
      <trkpt lat="44.82395" lon="6.15022">
        <ele>1046</ele>
        <time>2024-08-13T09:27:27Z</time>
      </trkpt>
      <trkpt lat="44.82395" lon="6.15022">
        <ele>1046</ele>
        <time>2024-08-13T09:27:28Z</time>
      </trkpt>
      <trkpt lat="44.82397" lon="6.15022">
        <ele>1046</ele>
        <time>2024-08-13T09:27:29Z</time>
      </trkpt>
      <trkpt lat="44.82397" lon="6.15022">
        <ele>1046</ele>
        <time>2024-08-13T09:27:30Z</time>
      </trkpt>
      <trkpt lat="44.824" lon="6.15021">
        <ele>1046.2</ele>
        <time>2024-08-13T09:27:31Z</time>
      </trkpt>
      <trkpt lat="44.824" lon="6.15021">
        <ele>1046.2</ele>
        <time>2024-08-13T09:27:32Z</time>
      </trkpt>
      <trkpt lat="44.82402" lon="6.1502">
        <ele>1046.2</ele>
        <time>2024-08-13T09:27:33Z</time>
      </trkpt>
      <trkpt lat="44.82404" lon="6.1502">
        <ele>1046.4</ele>
        <time>2024-08-13T09:27:34Z</time>
      </trkpt>
      <trkpt lat="44.82404" lon="6.1502">
        <ele>1046.4</ele>
        <time>2024-08-13T09:27:35Z</time>
      </trkpt>
      <trkpt lat="44.82407" lon="6.15018">
        <ele>1046.4</ele>
        <time>2024-08-13T09:27:36Z</time>
      </trkpt>
      <trkpt lat="44.82407" lon="6.15018">
        <ele>1046.6</ele>
        <time>2024-08-13T09:27:37Z</time>
      </trkpt>
      <trkpt lat="44.8241" lon="6.15016">
        <ele>1046.6</ele>
        <time>2024-08-13T09:27:38Z</time>
      </trkpt>
      <trkpt lat="44.8241" lon="6.15016">
        <ele>1046.6</ele>
        <time>2024-08-13T09:27:39Z</time>
      </trkpt>
      <trkpt lat="44.82413" lon="6.15015">
        <ele>1046.6</ele>
        <time>2024-08-13T09:27:40Z</time>
      </trkpt>
      <trkpt lat="44.82414" lon="6.15014">
        <ele>1046.4</ele>
        <time>2024-08-13T09:27:41Z</time>
      </trkpt>
      <trkpt lat="44.82414" lon="6.15014">
        <ele>1046.4</ele>
        <time>2024-08-13T09:27:42Z</time>
      </trkpt>
      <trkpt lat="44.82417" lon="6.15013">
        <ele>1046.4</ele>
        <time>2024-08-13T09:27:43Z</time>
      </trkpt>
      <trkpt lat="44.82417" lon="6.15013">
        <ele>1046.4</ele>
        <time>2024-08-13T09:27:44Z</time>
      </trkpt>
      <trkpt lat="44.8242" lon="6.15013">
        <ele>1046.2</ele>
        <time>2024-08-13T09:27:45Z</time>
      </trkpt>
      <trkpt lat="44.8242" lon="6.15013">
        <ele>1046</ele>
        <time>2024-08-13T09:27:46Z</time>
      </trkpt>
      <trkpt lat="44.82423" lon="6.15014">
        <ele>1046</ele>
        <time>2024-08-13T09:27:47Z</time>
      </trkpt>
      <trkpt lat="44.82423" lon="6.15014">
        <ele>1045.6</ele>
        <time>2024-08-13T09:27:48Z</time>
      </trkpt>
      <trkpt lat="44.82426" lon="6.15014">
        <ele>1045.6</ele>
        <time>2024-08-13T09:27:49Z</time>
      </trkpt>
      <trkpt lat="44.82426" lon="6.15014">
        <ele>1045.4</ele>
        <time>2024-08-13T09:27:50Z</time>
      </trkpt>
      <trkpt lat="44.82428" lon="6.15014">
        <ele>1045.4</ele>
        <time>2024-08-13T09:27:51Z</time>
      </trkpt>
      <trkpt lat="44.82428" lon="6.15014">
        <ele>1045.4</ele>
        <time>2024-08-13T09:27:52Z</time>
      </trkpt>
      <trkpt lat="44.82431" lon="6.15013">
        <ele>1045.6</ele>
        <time>2024-08-13T09:27:53Z</time>
      </trkpt>
      <trkpt lat="44.82431" lon="6.15013">
        <ele>1045.6</ele>
        <time>2024-08-13T09:27:54Z</time>
      </trkpt>
      <trkpt lat="44.82433" lon="6.15011">
        <ele>1045.6</ele>
        <time>2024-08-13T09:27:55Z</time>
      </trkpt>
      <trkpt lat="44.82435" lon="6.1501">
        <ele>1045.8</ele>
        <time>2024-08-13T09:27:56Z</time>
      </trkpt>
      <trkpt lat="44.82435" lon="6.1501">
        <ele>1045.8</ele>
        <time>2024-08-13T09:27:57Z</time>
      </trkpt>
      <trkpt lat="44.82436" lon="6.15006">
        <ele>1046</ele>
        <time>2024-08-13T09:27:58Z</time>
      </trkpt>
      <trkpt lat="44.82436" lon="6.15006">
        <ele>1046.2</ele>
        <time>2024-08-13T09:27:59Z</time>
      </trkpt>
      <trkpt lat="44.82437" lon="6.15002">
        <ele>1046.2</ele>
        <time>2024-08-13T09:28:00Z</time>
      </trkpt>
      <trkpt lat="44.82437" lon="6.15002">
        <ele>1046.2</ele>
        <time>2024-08-13T09:28:01Z</time>
      </trkpt>
      <trkpt lat="44.82437" lon="6.14998">
        <ele>1045.6</ele>
        <time>2024-08-13T09:28:02Z</time>
      </trkpt>
      <trkpt lat="44.82437" lon="6.14998">
        <ele>1045.6</ele>
        <time>2024-08-13T09:28:03Z</time>
      </trkpt>
      <trkpt lat="44.82437" lon="6.14994">
        <ele>1045.4</ele>
        <time>2024-08-13T09:28:04Z</time>
      </trkpt>
      <trkpt lat="44.82437" lon="6.14994">
        <ele>1045.2</ele>
        <time>2024-08-13T09:28:05Z</time>
      </trkpt>
      <trkpt lat="44.82436" lon="6.1499">
        <ele>1045.2</ele>
        <time>2024-08-13T09:28:06Z</time>
      </trkpt>
      <trkpt lat="44.82436" lon="6.1499">
        <ele>1045.2</ele>
        <time>2024-08-13T09:28:07Z</time>
      </trkpt>
      <trkpt lat="44.82435" lon="6.14986">
        <ele>1045.2</ele>
        <time>2024-08-13T09:28:08Z</time>
      </trkpt>
      <trkpt lat="44.82435" lon="6.14986">
        <ele>1045.2</ele>
        <time>2024-08-13T09:28:09Z</time>
      </trkpt>
      <trkpt lat="44.82434" lon="6.14982">
        <ele>1045.2</ele>
        <time>2024-08-13T09:28:10Z</time>
      </trkpt>
      <trkpt lat="44.82434" lon="6.14982">
        <ele>1045.2</ele>
        <time>2024-08-13T09:28:11Z</time>
      </trkpt>
      <trkpt lat="44.82433" lon="6.14978">
        <ele>1045.4</ele>
        <time>2024-08-13T09:28:12Z</time>
      </trkpt>
      <trkpt lat="44.82433" lon="6.14978">
        <ele>1045.4</ele>
        <time>2024-08-13T09:28:13Z</time>
      </trkpt>
      <trkpt lat="44.82432" lon="6.14974">
        <ele>1045.4</ele>
        <time>2024-08-13T09:28:14Z</time>
      </trkpt>
      <trkpt lat="44.82432" lon="6.14974">
        <ele>1045.4</ele>
        <time>2024-08-13T09:28:15Z</time>
      </trkpt>
      <trkpt lat="44.82431" lon="6.1497">
        <ele>1045</ele>
        <time>2024-08-13T09:28:16Z</time>
      </trkpt>
      <trkpt lat="44.82431" lon="6.1497">
        <ele>1045</ele>
        <time>2024-08-13T09:28:17Z</time>
      </trkpt>
      <trkpt lat="44.82431" lon="6.14966">
        <ele>1045</ele>
        <time>2024-08-13T09:28:18Z</time>
      </trkpt>
      <trkpt lat="44.82431" lon="6.14966">
        <ele>1045</ele>
        <time>2024-08-13T09:28:19Z</time>
      </trkpt>
      <trkpt lat="44.82431" lon="6.14962">
        <ele>1045</ele>
        <time>2024-08-13T09:28:20Z</time>
      </trkpt>
      <trkpt lat="44.82431" lon="6.14962">
        <ele>1045</ele>
        <time>2024-08-13T09:28:21Z</time>
      </trkpt>
      <trkpt lat="44.8243" lon="6.14958">
        <ele>1044.8</ele>
        <time>2024-08-13T09:28:22Z</time>
      </trkpt>
      <trkpt lat="44.8243" lon="6.14958">
        <ele>1044.8</ele>
        <time>2024-08-13T09:28:23Z</time>
      </trkpt>
      <trkpt lat="44.82429" lon="6.14954">
        <ele>1044.6</ele>
        <time>2024-08-13T09:28:24Z</time>
      </trkpt>
      <trkpt lat="44.82429" lon="6.14954">
        <ele>1044.6</ele>
        <time>2024-08-13T09:28:25Z</time>
      </trkpt>
      <trkpt lat="44.82428" lon="6.14951">
        <ele>1044.6</ele>
        <time>2024-08-13T09:28:26Z</time>
      </trkpt>
      <trkpt lat="44.82428" lon="6.14951">
        <ele>1044.8</ele>
        <time>2024-08-13T09:28:27Z</time>
      </trkpt>
      <trkpt lat="44.82427" lon="6.14947">
        <ele>1044.8</ele>
        <time>2024-08-13T09:28:28Z</time>
      </trkpt>
      <trkpt lat="44.82427" lon="6.14947">
        <ele>1044.8</ele>
        <time>2024-08-13T09:28:29Z</time>
      </trkpt>
      <trkpt lat="44.82426" lon="6.14943">
        <ele>1044.8</ele>
        <time>2024-08-13T09:28:30Z</time>
      </trkpt>
      <trkpt lat="44.82426" lon="6.14943">
        <ele>1044.8</ele>
        <time>2024-08-13T09:28:31Z</time>
      </trkpt>
      <trkpt lat="44.82425" lon="6.1494">
        <ele>1044.8</ele>
        <time>2024-08-13T09:28:32Z</time>
      </trkpt>
      <trkpt lat="44.82425" lon="6.1494">
        <ele>1044.6</ele>
        <time>2024-08-13T09:28:33Z</time>
      </trkpt>
      <trkpt lat="44.82425" lon="6.14936">
        <ele>1044.6</ele>
        <time>2024-08-13T09:28:34Z</time>
      </trkpt>
      <trkpt lat="44.82425" lon="6.14936">
        <ele>1044.4</ele>
        <time>2024-08-13T09:28:35Z</time>
      </trkpt>
      <trkpt lat="44.82425" lon="6.14932">
        <ele>1044.2</ele>
        <time>2024-08-13T09:28:36Z</time>
      </trkpt>
      <trkpt lat="44.82425" lon="6.14932">
        <ele>1044.2</ele>
        <time>2024-08-13T09:28:37Z</time>
      </trkpt>
      <trkpt lat="44.82425" lon="6.14928">
        <ele>1044</ele>
        <time>2024-08-13T09:28:38Z</time>
      </trkpt>
      <trkpt lat="44.82425" lon="6.14928">
        <ele>1044</ele>
        <time>2024-08-13T09:28:39Z</time>
      </trkpt>
      <trkpt lat="44.82425" lon="6.14924">
        <ele>1043.8</ele>
        <time>2024-08-13T09:28:40Z</time>
      </trkpt>
      <trkpt lat="44.82425" lon="6.14924">
        <ele>1043.8</ele>
        <time>2024-08-13T09:28:41Z</time>
      </trkpt>
      <trkpt lat="44.82425" lon="6.14921">
        <ele>1043.8</ele>
        <time>2024-08-13T09:28:42Z</time>
      </trkpt>
      <trkpt lat="44.82425" lon="6.14921">
        <ele>1043.6</ele>
        <time>2024-08-13T09:28:43Z</time>
      </trkpt>
      <trkpt lat="44.82425" lon="6.14917">
        <ele>1043.8</ele>
        <time>2024-08-13T09:28:44Z</time>
      </trkpt>
      <trkpt lat="44.82425" lon="6.14917">
        <ele>1043.6</ele>
        <time>2024-08-13T09:28:45Z</time>
      </trkpt>
      <trkpt lat="44.82425" lon="6.14914">
        <ele>1043.6</ele>
        <time>2024-08-13T09:28:46Z</time>
      </trkpt>
      <trkpt lat="44.82425" lon="6.14914">
        <ele>1043.6</ele>
        <time>2024-08-13T09:28:47Z</time>
      </trkpt>
      <trkpt lat="44.82426" lon="6.14912">
        <ele>1043.6</ele>
        <time>2024-08-13T09:28:48Z</time>
      </trkpt>
      <trkpt lat="44.82426" lon="6.14912">
        <ele>1043.6</ele>
        <time>2024-08-13T09:28:49Z</time>
      </trkpt>
      <trkpt lat="44.82429" lon="6.14911">
        <ele>1043.6</ele>
        <time>2024-08-13T09:28:50Z</time>
      </trkpt>
      <trkpt lat="44.82429" lon="6.14911">
        <ele>1043.6</ele>
        <time>2024-08-13T09:28:51Z</time>
      </trkpt>
      <trkpt lat="44.82432" lon="6.14911">
        <ele>1043.4</ele>
        <time>2024-08-13T09:28:52Z</time>
      </trkpt>
      <trkpt lat="44.82432" lon="6.14911">
        <ele>1043.4</ele>
        <time>2024-08-13T09:28:53Z</time>
      </trkpt>
      <trkpt lat="44.82435" lon="6.14911">
        <ele>1043.6</ele>
        <time>2024-08-13T09:28:54Z</time>
      </trkpt>
      <trkpt lat="44.82435" lon="6.14911">
        <ele>1043.8</ele>
        <time>2024-08-13T09:28:55Z</time>
      </trkpt>
      <trkpt lat="44.82437" lon="6.14911">
        <ele>1043.8</ele>
        <time>2024-08-13T09:28:56Z</time>
      </trkpt>
      <trkpt lat="44.82437" lon="6.14911">
        <ele>1044</ele>
        <time>2024-08-13T09:28:57Z</time>
      </trkpt>
      <trkpt lat="44.8244" lon="6.14909">
        <ele>1044.2</ele>
        <time>2024-08-13T09:28:58Z</time>
      </trkpt>
      <trkpt lat="44.8244" lon="6.14909">
        <ele>1044.4</ele>
        <time>2024-08-13T09:28:59Z</time>
      </trkpt>
      <trkpt lat="44.82443" lon="6.14907">
        <ele>1044.6</ele>
        <time>2024-08-13T09:29:00Z</time>
      </trkpt>
      <trkpt lat="44.82445" lon="6.14905">
        <ele>1044.6</ele>
        <time>2024-08-13T09:29:01Z</time>
      </trkpt>
      <trkpt lat="44.82445" lon="6.14905">
        <ele>1044.6</ele>
        <time>2024-08-13T09:29:02Z</time>
      </trkpt>
      <trkpt lat="44.82445" lon="6.14905">
        <ele>1044.6</ele>
        <time>2024-08-13T09:29:03Z</time>
      </trkpt>
      <trkpt lat="44.82446" lon="6.14903">
        <ele>1044.4</ele>
        <time>2024-08-13T09:29:04Z</time>
      </trkpt>
      <trkpt lat="44.82446" lon="6.14903">
        <ele>1044.2</ele>
        <time>2024-08-13T09:29:05Z</time>
      </trkpt>
      <trkpt lat="44.82446" lon="6.14903">
        <ele>1044.2</ele>
        <time>2024-08-13T09:29:06Z</time>
      </trkpt>
      <trkpt lat="44.82446" lon="6.149">
        <ele>1044.8</ele>
        <time>2024-08-13T09:29:07Z</time>
      </trkpt>
      <trkpt lat="44.82446" lon="6.149">
        <ele>1044.8</ele>
        <time>2024-08-13T09:29:08Z</time>
      </trkpt>
      <trkpt lat="44.82446" lon="6.149">
        <ele>1044.8</ele>
        <time>2024-08-13T09:29:09Z</time>
      </trkpt>
      <trkpt lat="44.82445" lon="6.14897">
        <ele>1044.4</ele>
        <time>2024-08-13T09:29:10Z</time>
      </trkpt>
      <trkpt lat="44.82445" lon="6.14897">
        <ele>1044.4</ele>
        <time>2024-08-13T09:29:11Z</time>
      </trkpt>
      <trkpt lat="44.82445" lon="6.14897">
        <ele>1044.6</ele>
        <time>2024-08-13T09:29:12Z</time>
      </trkpt>
      <trkpt lat="44.82445" lon="6.14897">
        <ele>1044.6</ele>
        <time>2024-08-13T09:29:13Z</time>
      </trkpt>
      <trkpt lat="44.82445" lon="6.14897">
        <ele>1044.4</ele>
        <time>2024-08-13T09:29:14Z</time>
      </trkpt>
      <trkpt lat="44.82445" lon="6.149">
        <ele>1044.4</ele>
        <time>2024-08-13T09:29:15Z</time>
      </trkpt>
      <trkpt lat="44.82445" lon="6.149">
        <ele>1044.6</ele>
        <time>2024-08-13T09:29:16Z</time>
      </trkpt>
      <trkpt lat="44.82445" lon="6.149">
        <ele>1044.6</ele>
        <time>2024-08-13T09:29:17Z</time>
      </trkpt>
      <trkpt lat="44.82447" lon="6.14902">
        <ele>1044.8</ele>
        <time>2024-08-13T09:29:18Z</time>
      </trkpt>
      <trkpt lat="44.82447" lon="6.14902">
        <ele>1044.8</ele>
        <time>2024-08-13T09:29:19Z</time>
      </trkpt>
      <trkpt lat="44.82449" lon="6.14902">
        <ele>1044.8</ele>
        <time>2024-08-13T09:29:20Z</time>
      </trkpt>
      <trkpt lat="44.82449" lon="6.14902">
        <ele>1045</ele>
        <time>2024-08-13T09:29:21Z</time>
      </trkpt>
      <trkpt lat="44.82451" lon="6.149">
        <ele>1045.2</ele>
        <time>2024-08-13T09:29:22Z</time>
      </trkpt>
      <trkpt lat="44.82451" lon="6.149">
        <ele>1045.2</ele>
        <time>2024-08-13T09:29:23Z</time>
      </trkpt>
      <trkpt lat="44.82453" lon="6.14899">
        <ele>1045.2</ele>
        <time>2024-08-13T09:29:24Z</time>
      </trkpt>
      <trkpt lat="44.82453" lon="6.14899">
        <ele>1045.4</ele>
        <time>2024-08-13T09:29:25Z</time>
      </trkpt>
      <trkpt lat="44.82456" lon="6.14898">
        <ele>1045.6</ele>
        <time>2024-08-13T09:29:26Z</time>
      </trkpt>
      <trkpt lat="44.82456" lon="6.14898">
        <ele>1045.4</ele>
        <time>2024-08-13T09:29:27Z</time>
      </trkpt>
      <trkpt lat="44.82459" lon="6.14896">
        <ele>1044.8</ele>
        <time>2024-08-13T09:29:28Z</time>
      </trkpt>
      <trkpt lat="44.82461" lon="6.14894">
        <ele>1044.6</ele>
        <time>2024-08-13T09:29:29Z</time>
      </trkpt>
      <trkpt lat="44.82461" lon="6.14894">
        <ele>1044.6</ele>
        <time>2024-08-13T09:29:30Z</time>
      </trkpt>
      <trkpt lat="44.82461" lon="6.14891">
        <ele>1044.8</ele>
        <time>2024-08-13T09:29:31Z</time>
      </trkpt>
      <trkpt lat="44.82461" lon="6.14891">
        <ele>1045.2</ele>
        <time>2024-08-13T09:29:32Z</time>
      </trkpt>
      <trkpt lat="44.82462" lon="6.14887">
        <ele>1045.4</ele>
        <time>2024-08-13T09:29:33Z</time>
      </trkpt>
      <trkpt lat="44.82462" lon="6.14887">
        <ele>1045.4</ele>
        <time>2024-08-13T09:29:34Z</time>
      </trkpt>
      <trkpt lat="44.82463" lon="6.14884">
        <ele>1045.4</ele>
        <time>2024-08-13T09:29:35Z</time>
      </trkpt>
      <trkpt lat="44.82463" lon="6.14884">
        <ele>1045.2</ele>
        <time>2024-08-13T09:29:36Z</time>
      </trkpt>
      <trkpt lat="44.82464" lon="6.1488">
        <ele>1045.2</ele>
        <time>2024-08-13T09:29:37Z</time>
      </trkpt>
      <trkpt lat="44.82464" lon="6.1488">
        <ele>1045.4</ele>
        <time>2024-08-13T09:29:38Z</time>
      </trkpt>
      <trkpt lat="44.82465" lon="6.14876">
        <ele>1045.4</ele>
        <time>2024-08-13T09:29:39Z</time>
      </trkpt>
      <trkpt lat="44.82465" lon="6.14876">
        <ele>1045.4</ele>
        <time>2024-08-13T09:29:40Z</time>
      </trkpt>
      <trkpt lat="44.82465" lon="6.14872">
        <ele>1045.2</ele>
        <time>2024-08-13T09:29:41Z</time>
      </trkpt>
      <trkpt lat="44.82465" lon="6.14872">
        <ele>1045</ele>
        <time>2024-08-13T09:29:42Z</time>
      </trkpt>
      <trkpt lat="44.82465" lon="6.14869">
        <ele>1045</ele>
        <time>2024-08-13T09:29:43Z</time>
      </trkpt>
      <trkpt lat="44.82465" lon="6.14869">
        <ele>1045</ele>
        <time>2024-08-13T09:29:44Z</time>
      </trkpt>
      <trkpt lat="44.82465" lon="6.14865">
        <ele>1045</ele>
        <time>2024-08-13T09:29:45Z</time>
      </trkpt>
      <trkpt lat="44.82465" lon="6.14865">
        <ele>1044.4</ele>
        <time>2024-08-13T09:29:46Z</time>
      </trkpt>
      <trkpt lat="44.82464" lon="6.1486">
        <ele>1044.4</ele>
        <time>2024-08-13T09:29:47Z</time>
      </trkpt>
      <trkpt lat="44.82464" lon="6.1486">
        <ele>1044.6</ele>
        <time>2024-08-13T09:29:48Z</time>
      </trkpt>
      <trkpt lat="44.82465" lon="6.14856">
        <ele>1044.4</ele>
        <time>2024-08-13T09:29:49Z</time>
      </trkpt>
      <trkpt lat="44.82465" lon="6.14856">
        <ele>1044.4</ele>
        <time>2024-08-13T09:29:50Z</time>
      </trkpt>
      <trkpt lat="44.82465" lon="6.14852">
        <ele>1044.4</ele>
        <time>2024-08-13T09:29:51Z</time>
      </trkpt>
      <trkpt lat="44.82465" lon="6.14852">
        <ele>1044.4</ele>
        <time>2024-08-13T09:29:52Z</time>
      </trkpt>
      <trkpt lat="44.82464" lon="6.14848">
        <ele>1044.2</ele>
        <time>2024-08-13T09:29:53Z</time>
      </trkpt>
      <trkpt lat="44.82464" lon="6.14848">
        <ele>1044</ele>
        <time>2024-08-13T09:29:54Z</time>
      </trkpt>
      <trkpt lat="44.82465" lon="6.14844">
        <ele>1044</ele>
        <time>2024-08-13T09:29:55Z</time>
      </trkpt>
      <trkpt lat="44.82465" lon="6.14844">
        <ele>1043.6</ele>
        <time>2024-08-13T09:29:56Z</time>
      </trkpt>
      <trkpt lat="44.82465" lon="6.1484">
        <ele>1043.4</ele>
        <time>2024-08-13T09:29:57Z</time>
      </trkpt>
      <trkpt lat="44.82465" lon="6.1484">
        <ele>1043.4</ele>
        <time>2024-08-13T09:29:58Z</time>
      </trkpt>
      <trkpt lat="44.82465" lon="6.14836">
        <ele>1043.4</ele>
        <time>2024-08-13T09:29:59Z</time>
      </trkpt>
      <trkpt lat="44.82465" lon="6.14836">
        <ele>1043.4</ele>
        <time>2024-08-13T09:30:00Z</time>
      </trkpt>
      <trkpt lat="44.82464" lon="6.14832">
        <ele>1043.4</ele>
        <time>2024-08-13T09:30:01Z</time>
      </trkpt>
      <trkpt lat="44.82464" lon="6.14832">
        <ele>1043</ele>
        <time>2024-08-13T09:30:02Z</time>
      </trkpt>
      <trkpt lat="44.82465" lon="6.14828">
        <ele>1043</ele>
        <time>2024-08-13T09:30:03Z</time>
      </trkpt>
      <trkpt lat="44.82465" lon="6.14828">
        <ele>1042.8</ele>
        <time>2024-08-13T09:30:04Z</time>
      </trkpt>
      <trkpt lat="44.82465" lon="6.14824">
        <ele>1043</ele>
        <time>2024-08-13T09:30:05Z</time>
      </trkpt>
      <trkpt lat="44.82465" lon="6.14824">
        <ele>1043.2</ele>
        <time>2024-08-13T09:30:06Z</time>
      </trkpt>
      <trkpt lat="44.82466" lon="6.1482">
        <ele>1043.4</ele>
        <time>2024-08-13T09:30:07Z</time>
      </trkpt>
      <trkpt lat="44.82466" lon="6.1482">
        <ele>1043.4</ele>
        <time>2024-08-13T09:30:08Z</time>
      </trkpt>
      <trkpt lat="44.82465" lon="6.14816">
        <ele>1043.2</ele>
        <time>2024-08-13T09:30:09Z</time>
      </trkpt>
      <trkpt lat="44.82465" lon="6.14816">
        <ele>1043.2</ele>
        <time>2024-08-13T09:30:10Z</time>
      </trkpt>
      <trkpt lat="44.82466" lon="6.14812">
        <ele>1043.2</ele>
        <time>2024-08-13T09:30:11Z</time>
      </trkpt>
      <trkpt lat="44.82466" lon="6.14812">
        <ele>1043.2</ele>
        <time>2024-08-13T09:30:12Z</time>
      </trkpt>
      <trkpt lat="44.82466" lon="6.14808">
        <ele>1042.8</ele>
        <time>2024-08-13T09:30:13Z</time>
      </trkpt>
      <trkpt lat="44.82466" lon="6.14808">
        <ele>1042.8</ele>
        <time>2024-08-13T09:30:14Z</time>
      </trkpt>
      <trkpt lat="44.82466" lon="6.14804">
        <ele>1043</ele>
        <time>2024-08-13T09:30:15Z</time>
      </trkpt>
      <trkpt lat="44.82466" lon="6.14804">
        <ele>1043</ele>
        <time>2024-08-13T09:30:16Z</time>
      </trkpt>
      <trkpt lat="44.82467" lon="6.148">
        <ele>1042.8</ele>
        <time>2024-08-13T09:30:17Z</time>
      </trkpt>
      <trkpt lat="44.82467" lon="6.148">
        <ele>1042.8</ele>
        <time>2024-08-13T09:30:18Z</time>
      </trkpt>
      <trkpt lat="44.82467" lon="6.14796">
        <ele>1042.8</ele>
        <time>2024-08-13T09:30:19Z</time>
      </trkpt>
      <trkpt lat="44.82467" lon="6.14796">
        <ele>1043</ele>
        <time>2024-08-13T09:30:20Z</time>
      </trkpt>
      <trkpt lat="44.82467" lon="6.14792">
        <ele>1043</ele>
        <time>2024-08-13T09:30:21Z</time>
      </trkpt>
      <trkpt lat="44.82467" lon="6.14792">
        <ele>1042.8</ele>
        <time>2024-08-13T09:30:22Z</time>
      </trkpt>
      <trkpt lat="44.82468" lon="6.14788">
        <ele>1042.8</ele>
        <time>2024-08-13T09:30:23Z</time>
      </trkpt>
      <trkpt lat="44.82468" lon="6.14788">
        <ele>1042.8</ele>
        <time>2024-08-13T09:30:24Z</time>
      </trkpt>
      <trkpt lat="44.82468" lon="6.14783">
        <ele>1043</ele>
        <time>2024-08-13T09:30:25Z</time>
      </trkpt>
      <trkpt lat="44.82468" lon="6.14783">
        <ele>1042.8</ele>
        <time>2024-08-13T09:30:26Z</time>
      </trkpt>
      <trkpt lat="44.82468" lon="6.14779">
        <ele>1042.8</ele>
        <time>2024-08-13T09:30:27Z</time>
      </trkpt>
      <trkpt lat="44.82468" lon="6.14779">
        <ele>1042.4</ele>
        <time>2024-08-13T09:30:28Z</time>
      </trkpt>
      <trkpt lat="44.82469" lon="6.14775">
        <ele>1042.4</ele>
        <time>2024-08-13T09:30:29Z</time>
      </trkpt>
      <trkpt lat="44.82469" lon="6.14775">
        <ele>1042.4</ele>
        <time>2024-08-13T09:30:30Z</time>
      </trkpt>
      <trkpt lat="44.82469" lon="6.14771">
        <ele>1042.4</ele>
        <time>2024-08-13T09:30:31Z</time>
      </trkpt>
      <trkpt lat="44.82469" lon="6.14771">
        <ele>1042.4</ele>
        <time>2024-08-13T09:30:32Z</time>
      </trkpt>
      <trkpt lat="44.82469" lon="6.14767">
        <ele>1042.4</ele>
        <time>2024-08-13T09:30:33Z</time>
      </trkpt>
      <trkpt lat="44.82469" lon="6.14767">
        <ele>1042.4</ele>
        <time>2024-08-13T09:30:34Z</time>
      </trkpt>
      <trkpt lat="44.8247" lon="6.14763">
        <ele>1042.6</ele>
        <time>2024-08-13T09:30:35Z</time>
      </trkpt>
      <trkpt lat="44.8247" lon="6.14763">
        <ele>1042.6</ele>
        <time>2024-08-13T09:30:36Z</time>
      </trkpt>
      <trkpt lat="44.8247" lon="6.14759">
        <ele>1042.2</ele>
        <time>2024-08-13T09:30:37Z</time>
      </trkpt>
      <trkpt lat="44.8247" lon="6.14759">
        <ele>1042.2</ele>
        <time>2024-08-13T09:30:38Z</time>
      </trkpt>
      <trkpt lat="44.82471" lon="6.14755">
        <ele>1042.6</ele>
        <time>2024-08-13T09:30:39Z</time>
      </trkpt>
      <trkpt lat="44.82471" lon="6.14755">
        <ele>1042.6</ele>
        <time>2024-08-13T09:30:40Z</time>
      </trkpt>
      <trkpt lat="44.82472" lon="6.14751">
        <ele>1042.8</ele>
        <time>2024-08-13T09:30:41Z</time>
      </trkpt>
      <trkpt lat="44.82472" lon="6.14751">
        <ele>1042.8</ele>
        <time>2024-08-13T09:30:42Z</time>
      </trkpt>
      <trkpt lat="44.82472" lon="6.14747">
        <ele>1042.6</ele>
        <time>2024-08-13T09:30:43Z</time>
      </trkpt>
      <trkpt lat="44.82473" lon="6.14744">
        <ele>1042.6</ele>
        <time>2024-08-13T09:30:44Z</time>
      </trkpt>
      <trkpt lat="44.82473" lon="6.14744">
        <ele>1042.6</ele>
        <time>2024-08-13T09:30:45Z</time>
      </trkpt>
      <trkpt lat="44.82474" lon="6.14741">
        <ele>1042.6</ele>
        <time>2024-08-13T09:30:46Z</time>
      </trkpt>
      <trkpt lat="44.82474" lon="6.14741">
        <ele>1042.8</ele>
        <time>2024-08-13T09:30:47Z</time>
      </trkpt>
      <trkpt lat="44.82475" lon="6.14737">
        <ele>1042.8</ele>
        <time>2024-08-13T09:30:48Z</time>
      </trkpt>
      <trkpt lat="44.82475" lon="6.14737">
        <ele>1042.6</ele>
        <time>2024-08-13T09:30:49Z</time>
      </trkpt>
      <trkpt lat="44.82475" lon="6.14733">
        <ele>1042.6</ele>
        <time>2024-08-13T09:30:50Z</time>
      </trkpt>
      <trkpt lat="44.82475" lon="6.14733">
        <ele>1042.6</ele>
        <time>2024-08-13T09:30:51Z</time>
      </trkpt>
      <trkpt lat="44.82476" lon="6.1473">
        <ele>1042.8</ele>
        <time>2024-08-13T09:30:52Z</time>
      </trkpt>
      <trkpt lat="44.82476" lon="6.1473">
        <ele>1042.8</ele>
        <time>2024-08-13T09:30:53Z</time>
      </trkpt>
      <trkpt lat="44.82477" lon="6.14727">
        <ele>1042.6</ele>
        <time>2024-08-13T09:30:54Z</time>
      </trkpt>
      <trkpt lat="44.82477" lon="6.14727">
        <ele>1042.4</ele>
        <time>2024-08-13T09:30:55Z</time>
      </trkpt>
      <trkpt lat="44.82477" lon="6.14722">
        <ele>1042.4</ele>
        <time>2024-08-13T09:30:56Z</time>
      </trkpt>
      <trkpt lat="44.82477" lon="6.14722">
        <ele>1042.4</ele>
        <time>2024-08-13T09:30:57Z</time>
      </trkpt>
      <trkpt lat="44.82476" lon="6.14718">
        <ele>1042.6</ele>
        <time>2024-08-13T09:30:58Z</time>
      </trkpt>
      <trkpt lat="44.82476" lon="6.14718">
        <ele>1042.8</ele>
        <time>2024-08-13T09:30:59Z</time>
      </trkpt>
      <trkpt lat="44.82476" lon="6.14715">
        <ele>1043</ele>
        <time>2024-08-13T09:31:00Z</time>
      </trkpt>
      <trkpt lat="44.82476" lon="6.14715">
        <ele>1043.4</ele>
        <time>2024-08-13T09:31:01Z</time>
      </trkpt>
      <trkpt lat="44.82476" lon="6.14711">
        <ele>1043.2</ele>
        <time>2024-08-13T09:31:02Z</time>
      </trkpt>
      <trkpt lat="44.82476" lon="6.14708">
        <ele>1043.2</ele>
        <time>2024-08-13T09:31:03Z</time>
      </trkpt>
      <trkpt lat="44.82475" lon="6.14705">
        <ele>1043.2</ele>
        <time>2024-08-13T09:31:04Z</time>
      </trkpt>
      <trkpt lat="44.82475" lon="6.14702">
        <ele>1043</ele>
        <time>2024-08-13T09:31:05Z</time>
      </trkpt>
      <trkpt lat="44.82475" lon="6.14702">
        <ele>1042.8</ele>
        <time>2024-08-13T09:31:06Z</time>
      </trkpt>
      <trkpt lat="44.82474" lon="6.14697">
        <ele>1042.8</ele>
        <time>2024-08-13T09:31:07Z</time>
      </trkpt>
      <trkpt lat="44.82474" lon="6.14697">
        <ele>1042.6</ele>
        <time>2024-08-13T09:31:08Z</time>
      </trkpt>
      <trkpt lat="44.82473" lon="6.14693">
        <ele>1042.6</ele>
        <time>2024-08-13T09:31:09Z</time>
      </trkpt>
      <trkpt lat="44.82473" lon="6.14693">
        <ele>1042.6</ele>
        <time>2024-08-13T09:31:10Z</time>
      </trkpt>
      <trkpt lat="44.82474" lon="6.14688">
        <ele>1042.6</ele>
        <time>2024-08-13T09:31:11Z</time>
      </trkpt>
      <trkpt lat="44.82474" lon="6.14688">
        <ele>1042.6</ele>
        <time>2024-08-13T09:31:12Z</time>
      </trkpt>
      <trkpt lat="44.82474" lon="6.14683">
        <ele>1042.6</ele>
        <time>2024-08-13T09:31:13Z</time>
      </trkpt>
      <trkpt lat="44.82474" lon="6.14683">
        <ele>1042.6</ele>
        <time>2024-08-13T09:31:14Z</time>
      </trkpt>
      <trkpt lat="44.82472" lon="6.14679">
        <ele>1042.8</ele>
        <time>2024-08-13T09:31:15Z</time>
      </trkpt>
      <trkpt lat="44.82472" lon="6.14679">
        <ele>1042.8</ele>
        <time>2024-08-13T09:31:16Z</time>
      </trkpt>
      <trkpt lat="44.82471" lon="6.14675">
        <ele>1042.8</ele>
        <time>2024-08-13T09:31:17Z</time>
      </trkpt>
      <trkpt lat="44.82471" lon="6.14675">
        <ele>1042.6</ele>
        <time>2024-08-13T09:31:18Z</time>
      </trkpt>
      <trkpt lat="44.8247" lon="6.14671">
        <ele>1042.6</ele>
        <time>2024-08-13T09:31:19Z</time>
      </trkpt>
      <trkpt lat="44.8247" lon="6.14671">
        <ele>1042.8</ele>
        <time>2024-08-13T09:31:20Z</time>
      </trkpt>
      <trkpt lat="44.82469" lon="6.14667">
        <ele>1043</ele>
        <time>2024-08-13T09:31:21Z</time>
      </trkpt>
      <trkpt lat="44.82469" lon="6.14667">
        <ele>1043.2</ele>
        <time>2024-08-13T09:31:22Z</time>
      </trkpt>
      <trkpt lat="44.82469" lon="6.14662">
        <ele>1043.2</ele>
        <time>2024-08-13T09:31:23Z</time>
      </trkpt>
      <trkpt lat="44.82469" lon="6.14662">
        <ele>1043.2</ele>
        <time>2024-08-13T09:31:24Z</time>
      </trkpt>
      <trkpt lat="44.82469" lon="6.14658">
        <ele>1043.2</ele>
        <time>2024-08-13T09:31:25Z</time>
      </trkpt>
      <trkpt lat="44.82469" lon="6.14658">
        <ele>1043.2</ele>
        <time>2024-08-13T09:31:26Z</time>
      </trkpt>
      <trkpt lat="44.82468" lon="6.14654">
        <ele>1043.4</ele>
        <time>2024-08-13T09:31:27Z</time>
      </trkpt>
      <trkpt lat="44.82468" lon="6.14654">
        <ele>1043.4</ele>
        <time>2024-08-13T09:31:28Z</time>
      </trkpt>
      <trkpt lat="44.82468" lon="6.1465">
        <ele>1043.4</ele>
        <time>2024-08-13T09:31:29Z</time>
      </trkpt>
      <trkpt lat="44.82468" lon="6.1465">
        <ele>1043.6</ele>
        <time>2024-08-13T09:31:30Z</time>
      </trkpt>
      <trkpt lat="44.82469" lon="6.14646">
        <ele>1043.6</ele>
        <time>2024-08-13T09:31:31Z</time>
      </trkpt>
      <trkpt lat="44.82469" lon="6.14646">
        <ele>1043.8</ele>
        <time>2024-08-13T09:31:32Z</time>
      </trkpt>
      <trkpt lat="44.82468" lon="6.14641">
        <ele>1043.8</ele>
        <time>2024-08-13T09:31:33Z</time>
      </trkpt>
      <trkpt lat="44.82468" lon="6.14641">
        <ele>1043.8</ele>
        <time>2024-08-13T09:31:34Z</time>
      </trkpt>
      <trkpt lat="44.82469" lon="6.14636">
        <ele>1043.8</ele>
        <time>2024-08-13T09:31:35Z</time>
      </trkpt>
      <trkpt lat="44.82469" lon="6.14636">
        <ele>1044</ele>
        <time>2024-08-13T09:31:36Z</time>
      </trkpt>
      <trkpt lat="44.82469" lon="6.14632">
        <ele>1044</ele>
        <time>2024-08-13T09:31:37Z</time>
      </trkpt>
      <trkpt lat="44.82469" lon="6.14632">
        <ele>1043.8</ele>
        <time>2024-08-13T09:31:38Z</time>
      </trkpt>
      <trkpt lat="44.82469" lon="6.14628">
        <ele>1043.8</ele>
        <time>2024-08-13T09:31:39Z</time>
      </trkpt>
      <trkpt lat="44.82469" lon="6.14628">
        <ele>1044</ele>
        <time>2024-08-13T09:31:40Z</time>
      </trkpt>
      <trkpt lat="44.82469" lon="6.14624">
        <ele>1044</ele>
        <time>2024-08-13T09:31:41Z</time>
      </trkpt>
      <trkpt lat="44.82469" lon="6.14624">
        <ele>1044</ele>
        <time>2024-08-13T09:31:42Z</time>
      </trkpt>
      <trkpt lat="44.8247" lon="6.1462">
        <ele>1043.8</ele>
        <time>2024-08-13T09:31:43Z</time>
      </trkpt>
      <trkpt lat="44.8247" lon="6.1462">
        <ele>1043.8</ele>
        <time>2024-08-13T09:31:44Z</time>
      </trkpt>
      <trkpt lat="44.82471" lon="6.14616">
        <ele>1044</ele>
        <time>2024-08-13T09:31:45Z</time>
      </trkpt>
      <trkpt lat="44.82471" lon="6.14616">
        <ele>1044</ele>
        <time>2024-08-13T09:31:46Z</time>
      </trkpt>
      <trkpt lat="44.82473" lon="6.14612">
        <ele>1044</ele>
        <time>2024-08-13T09:31:47Z</time>
      </trkpt>
      <trkpt lat="44.82473" lon="6.14612">
        <ele>1043.6</ele>
        <time>2024-08-13T09:31:48Z</time>
      </trkpt>
      <trkpt lat="44.82474" lon="6.14608">
        <ele>1043.6</ele>
        <time>2024-08-13T09:31:49Z</time>
      </trkpt>
      <trkpt lat="44.82474" lon="6.14608">
        <ele>1043.8</ele>
        <time>2024-08-13T09:31:50Z</time>
      </trkpt>
      <trkpt lat="44.82475" lon="6.14604">
        <ele>1043.8</ele>
        <time>2024-08-13T09:31:51Z</time>
      </trkpt>
      <trkpt lat="44.82475" lon="6.14604">
        <ele>1044</ele>
        <time>2024-08-13T09:31:52Z</time>
      </trkpt>
      <trkpt lat="44.82477" lon="6.146">
        <ele>1043.8</ele>
        <time>2024-08-13T09:31:53Z</time>
      </trkpt>
      <trkpt lat="44.82477" lon="6.146">
        <ele>1043.8</ele>
        <time>2024-08-13T09:31:54Z</time>
      </trkpt>
      <trkpt lat="44.82477" lon="6.14596">
        <ele>1043.6</ele>
        <time>2024-08-13T09:31:55Z</time>
      </trkpt>
      <trkpt lat="44.82477" lon="6.14596">
        <ele>1043.6</ele>
        <time>2024-08-13T09:31:56Z</time>
      </trkpt>
      <trkpt lat="44.82478" lon="6.14592">
        <ele>1043.8</ele>
        <time>2024-08-13T09:31:57Z</time>
      </trkpt>
      <trkpt lat="44.82478" lon="6.14592">
        <ele>1043.8</ele>
        <time>2024-08-13T09:31:58Z</time>
      </trkpt>
      <trkpt lat="44.82479" lon="6.14588">
        <ele>1043.8</ele>
        <time>2024-08-13T09:31:59Z</time>
      </trkpt>
      <trkpt lat="44.82479" lon="6.14588">
        <ele>1043.8</ele>
        <time>2024-08-13T09:32:00Z</time>
      </trkpt>
      <trkpt lat="44.82481" lon="6.14583">
        <ele>1043.8</ele>
        <time>2024-08-13T09:32:01Z</time>
      </trkpt>
      <trkpt lat="44.82481" lon="6.14583">
        <ele>1043.8</ele>
        <time>2024-08-13T09:32:02Z</time>
      </trkpt>
      <trkpt lat="44.82482" lon="6.14579">
        <ele>1043.8</ele>
        <time>2024-08-13T09:32:03Z</time>
      </trkpt>
      <trkpt lat="44.82482" lon="6.14579">
        <ele>1044</ele>
        <time>2024-08-13T09:32:04Z</time>
      </trkpt>
      <trkpt lat="44.82483" lon="6.14576">
        <ele>1044.2</ele>
        <time>2024-08-13T09:32:05Z</time>
      </trkpt>
      <trkpt lat="44.82483" lon="6.14576">
        <ele>1044.2</ele>
        <time>2024-08-13T09:32:06Z</time>
      </trkpt>
      <trkpt lat="44.82485" lon="6.14572">
        <ele>1044.2</ele>
        <time>2024-08-13T09:32:07Z</time>
      </trkpt>
      <trkpt lat="44.82485" lon="6.14572">
        <ele>1044.4</ele>
        <time>2024-08-13T09:32:08Z</time>
      </trkpt>
      <trkpt lat="44.82485" lon="6.14568">
        <ele>1044.4</ele>
        <time>2024-08-13T09:32:09Z</time>
      </trkpt>
      <trkpt lat="44.82485" lon="6.14568">
        <ele>1044.4</ele>
        <time>2024-08-13T09:32:10Z</time>
      </trkpt>
      <trkpt lat="44.82487" lon="6.14565">
        <ele>1044.4</ele>
        <time>2024-08-13T09:32:11Z</time>
      </trkpt>
      <trkpt lat="44.82487" lon="6.14565">
        <ele>1044.6</ele>
        <time>2024-08-13T09:32:12Z</time>
      </trkpt>
      <trkpt lat="44.82488" lon="6.14562">
        <ele>1044.6</ele>
        <time>2024-08-13T09:32:13Z</time>
      </trkpt>
      <trkpt lat="44.82488" lon="6.14562">
        <ele>1044.8</ele>
        <time>2024-08-13T09:32:14Z</time>
      </trkpt>
      <trkpt lat="44.82489" lon="6.14559">
        <ele>1044.8</ele>
        <time>2024-08-13T09:32:15Z</time>
      </trkpt>
      <trkpt lat="44.82489" lon="6.14559">
        <ele>1044.8</ele>
        <time>2024-08-13T09:32:16Z</time>
      </trkpt>
      <trkpt lat="44.8249" lon="6.14556">
        <ele>1044.8</ele>
        <time>2024-08-13T09:32:17Z</time>
      </trkpt>
      <trkpt lat="44.8249" lon="6.14556">
        <ele>1044.8</ele>
        <time>2024-08-13T09:32:18Z</time>
      </trkpt>
      <trkpt lat="44.82491" lon="6.14553">
        <ele>1044.8</ele>
        <time>2024-08-13T09:32:19Z</time>
      </trkpt>
      <trkpt lat="44.82492" lon="6.14551">
        <ele>1045.2</ele>
        <time>2024-08-13T09:32:20Z</time>
      </trkpt>
      <trkpt lat="44.82492" lon="6.14551">
        <ele>1045.2</ele>
        <time>2024-08-13T09:32:21Z</time>
      </trkpt>
      <trkpt lat="44.82493" lon="6.14548">
        <ele>1045.2</ele>
        <time>2024-08-13T09:32:22Z</time>
      </trkpt>
      <trkpt lat="44.82493" lon="6.14548">
        <ele>1045.2</ele>
        <time>2024-08-13T09:32:23Z</time>
      </trkpt>
      <trkpt lat="44.82494" lon="6.14544">
        <ele>1045.4</ele>
        <time>2024-08-13T09:32:24Z</time>
      </trkpt>
      <trkpt lat="44.82494" lon="6.14544">
        <ele>1045.4</ele>
        <time>2024-08-13T09:32:25Z</time>
      </trkpt>
      <trkpt lat="44.82495" lon="6.14541">
        <ele>1045.4</ele>
        <time>2024-08-13T09:32:26Z</time>
      </trkpt>
      <trkpt lat="44.82495" lon="6.14541">
        <ele>1045.4</ele>
        <time>2024-08-13T09:32:27Z</time>
      </trkpt>
      <trkpt lat="44.82497" lon="6.14538">
        <ele>1045.6</ele>
        <time>2024-08-13T09:32:28Z</time>
      </trkpt>
      <trkpt lat="44.82497" lon="6.14538">
        <ele>1045.8</ele>
        <time>2024-08-13T09:32:29Z</time>
      </trkpt>
      <trkpt lat="44.82499" lon="6.14533">
        <ele>1046</ele>
        <time>2024-08-13T09:32:30Z</time>
      </trkpt>
      <trkpt lat="44.825" lon="6.1453">
        <ele>1046</ele>
        <time>2024-08-13T09:32:31Z</time>
      </trkpt>
      <trkpt lat="44.825" lon="6.1453">
        <ele>1046.2</ele>
        <time>2024-08-13T09:32:32Z</time>
      </trkpt>
      <trkpt lat="44.82501" lon="6.14527">
        <ele>1046.2</ele>
        <time>2024-08-13T09:32:33Z</time>
      </trkpt>
      <trkpt lat="44.82501" lon="6.14527">
        <ele>1046.2</ele>
        <time>2024-08-13T09:32:34Z</time>
      </trkpt>
      <trkpt lat="44.82502" lon="6.14523">
        <ele>1046.2</ele>
        <time>2024-08-13T09:32:35Z</time>
      </trkpt>
      <trkpt lat="44.82502" lon="6.14523">
        <ele>1046.2</ele>
        <time>2024-08-13T09:32:36Z</time>
      </trkpt>
      <trkpt lat="44.82503" lon="6.14519">
        <ele>1046.2</ele>
        <time>2024-08-13T09:32:37Z</time>
      </trkpt>
      <trkpt lat="44.82503" lon="6.14519">
        <ele>1046.2</ele>
        <time>2024-08-13T09:32:38Z</time>
      </trkpt>
      <trkpt lat="44.82505" lon="6.14517">
        <ele>1046.4</ele>
        <time>2024-08-13T09:32:39Z</time>
      </trkpt>
      <trkpt lat="44.82505" lon="6.14517">
        <ele>1046.4</ele>
        <time>2024-08-13T09:32:40Z</time>
      </trkpt>
      <trkpt lat="44.82507" lon="6.14514">
        <ele>1046.6</ele>
        <time>2024-08-13T09:32:41Z</time>
      </trkpt>
      <trkpt lat="44.82507" lon="6.14514">
        <ele>1046.6</ele>
        <time>2024-08-13T09:32:42Z</time>
      </trkpt>
      <trkpt lat="44.82509" lon="6.14511">
        <ele>1046.6</ele>
        <time>2024-08-13T09:32:43Z</time>
      </trkpt>
      <trkpt lat="44.82509" lon="6.14511">
        <ele>1046.8</ele>
        <time>2024-08-13T09:32:44Z</time>
      </trkpt>
      <trkpt lat="44.8251" lon="6.14508">
        <ele>1046.8</ele>
        <time>2024-08-13T09:32:45Z</time>
      </trkpt>
      <trkpt lat="44.8251" lon="6.14508">
        <ele>1046.8</ele>
        <time>2024-08-13T09:32:46Z</time>
      </trkpt>
      <trkpt lat="44.82512" lon="6.14505">
        <ele>1046.8</ele>
        <time>2024-08-13T09:32:47Z</time>
      </trkpt>
      <trkpt lat="44.82512" lon="6.14505">
        <ele>1047</ele>
        <time>2024-08-13T09:32:48Z</time>
      </trkpt>
      <trkpt lat="44.82514" lon="6.14503">
        <ele>1047</ele>
        <time>2024-08-13T09:32:49Z</time>
      </trkpt>
      <trkpt lat="44.82514" lon="6.14503">
        <ele>1047</ele>
        <time>2024-08-13T09:32:50Z</time>
      </trkpt>
      <trkpt lat="44.82516" lon="6.14499">
        <ele>1047.2</ele>
        <time>2024-08-13T09:32:51Z</time>
      </trkpt>
      <trkpt lat="44.82516" lon="6.14499">
        <ele>1047.2</ele>
        <time>2024-08-13T09:32:52Z</time>
      </trkpt>
      <trkpt lat="44.82518" lon="6.14496">
        <ele>1047.2</ele>
        <time>2024-08-13T09:32:53Z</time>
      </trkpt>
      <trkpt lat="44.82518" lon="6.14496">
        <ele>1047.4</ele>
        <time>2024-08-13T09:32:54Z</time>
      </trkpt>
      <trkpt lat="44.82521" lon="6.14493">
        <ele>1047.4</ele>
        <time>2024-08-13T09:32:55Z</time>
      </trkpt>
      <trkpt lat="44.82521" lon="6.14493">
        <ele>1047.4</ele>
        <time>2024-08-13T09:32:56Z</time>
      </trkpt>
      <trkpt lat="44.82522" lon="6.14491">
        <ele>1047.4</ele>
        <time>2024-08-13T09:32:57Z</time>
      </trkpt>
      <trkpt lat="44.82522" lon="6.14491">
        <ele>1047.2</ele>
        <time>2024-08-13T09:32:58Z</time>
      </trkpt>
      <trkpt lat="44.82525" lon="6.14489">
        <ele>1047.2</ele>
        <time>2024-08-13T09:32:59Z</time>
      </trkpt>
      <trkpt lat="44.82525" lon="6.14489">
        <ele>1047.2</ele>
        <time>2024-08-13T09:33:00Z</time>
      </trkpt>
      <trkpt lat="44.82527" lon="6.14487">
        <ele>1047.2</ele>
        <time>2024-08-13T09:33:01Z</time>
      </trkpt>
      <trkpt lat="44.82527" lon="6.14487">
        <ele>1047.4</ele>
        <time>2024-08-13T09:33:02Z</time>
      </trkpt>
      <trkpt lat="44.8253" lon="6.14484">
        <ele>1047.4</ele>
        <time>2024-08-13T09:33:03Z</time>
      </trkpt>
      <trkpt lat="44.8253" lon="6.14484">
        <ele>1047.6</ele>
        <time>2024-08-13T09:33:04Z</time>
      </trkpt>
      <trkpt lat="44.82533" lon="6.14483">
        <ele>1047.8</ele>
        <time>2024-08-13T09:33:05Z</time>
      </trkpt>
      <trkpt lat="44.82533" lon="6.14483">
        <ele>1047.8</ele>
        <time>2024-08-13T09:33:06Z</time>
      </trkpt>
      <trkpt lat="44.82535" lon="6.14481">
        <ele>1047.8</ele>
        <time>2024-08-13T09:33:07Z</time>
      </trkpt>
      <trkpt lat="44.82535" lon="6.14481">
        <ele>1047.8</ele>
        <time>2024-08-13T09:33:08Z</time>
      </trkpt>
      <trkpt lat="44.82538" lon="6.1448">
        <ele>1048</ele>
        <time>2024-08-13T09:33:09Z</time>
      </trkpt>
      <trkpt lat="44.82538" lon="6.1448">
        <ele>1048.2</ele>
        <time>2024-08-13T09:33:10Z</time>
      </trkpt>
      <trkpt lat="44.82541" lon="6.14479">
        <ele>1048.2</ele>
        <time>2024-08-13T09:33:11Z</time>
      </trkpt>
      <trkpt lat="44.82541" lon="6.14479">
        <ele>1048.2</ele>
        <time>2024-08-13T09:33:12Z</time>
      </trkpt>
      <trkpt lat="44.82543" lon="6.14478">
        <ele>1048.4</ele>
        <time>2024-08-13T09:33:13Z</time>
      </trkpt>
      <trkpt lat="44.82543" lon="6.14478">
        <ele>1048.8</ele>
        <time>2024-08-13T09:33:14Z</time>
      </trkpt>
      <trkpt lat="44.82545" lon="6.14476">
        <ele>1048.8</ele>
        <time>2024-08-13T09:33:15Z</time>
      </trkpt>
      <trkpt lat="44.82545" lon="6.14476">
        <ele>1049</ele>
        <time>2024-08-13T09:33:16Z</time>
      </trkpt>
      <trkpt lat="44.82548" lon="6.14474">
        <ele>1049.4</ele>
        <time>2024-08-13T09:33:17Z</time>
      </trkpt>
      <trkpt lat="44.82548" lon="6.14474">
        <ele>1049.6</ele>
        <time>2024-08-13T09:33:18Z</time>
      </trkpt>
      <trkpt lat="44.8255" lon="6.14472">
        <ele>1049.6</ele>
        <time>2024-08-13T09:33:19Z</time>
      </trkpt>
      <trkpt lat="44.8255" lon="6.14472">
        <ele>1049.6</ele>
        <time>2024-08-13T09:33:20Z</time>
      </trkpt>
      <trkpt lat="44.82552" lon="6.14471">
        <ele>1049.6</ele>
        <time>2024-08-13T09:33:21Z</time>
      </trkpt>
      <trkpt lat="44.82552" lon="6.14471">
        <ele>1049.8</ele>
        <time>2024-08-13T09:33:22Z</time>
      </trkpt>
      <trkpt lat="44.82556" lon="6.1447">
        <ele>1050</ele>
        <time>2024-08-13T09:33:23Z</time>
      </trkpt>
      <trkpt lat="44.82556" lon="6.1447">
        <ele>1050</ele>
        <time>2024-08-13T09:33:24Z</time>
      </trkpt>
      <trkpt lat="44.82558" lon="6.1447">
        <ele>1049.8</ele>
        <time>2024-08-13T09:33:25Z</time>
      </trkpt>
      <trkpt lat="44.82558" lon="6.1447">
        <ele>1050.2</ele>
        <time>2024-08-13T09:33:26Z</time>
      </trkpt>
      <trkpt lat="44.82561" lon="6.14468">
        <ele>1050.2</ele>
        <time>2024-08-13T09:33:27Z</time>
      </trkpt>
      <trkpt lat="44.82561" lon="6.14468">
        <ele>1050.4</ele>
        <time>2024-08-13T09:33:28Z</time>
      </trkpt>
      <trkpt lat="44.82564" lon="6.14467">
        <ele>1050.4</ele>
        <time>2024-08-13T09:33:29Z</time>
      </trkpt>
      <trkpt lat="44.82565" lon="6.14465">
        <ele>1050.4</ele>
        <time>2024-08-13T09:33:30Z</time>
      </trkpt>
      <trkpt lat="44.82565" lon="6.14465">
        <ele>1050.6</ele>
        <time>2024-08-13T09:33:31Z</time>
      </trkpt>
      <trkpt lat="44.82568" lon="6.14463">
        <ele>1050.6</ele>
        <time>2024-08-13T09:33:32Z</time>
      </trkpt>
      <trkpt lat="44.82568" lon="6.14463">
        <ele>1050.6</ele>
        <time>2024-08-13T09:33:33Z</time>
      </trkpt>
      <trkpt lat="44.82571" lon="6.14462">
        <ele>1050.8</ele>
        <time>2024-08-13T09:33:34Z</time>
      </trkpt>
      <trkpt lat="44.82571" lon="6.14462">
        <ele>1050.8</ele>
        <time>2024-08-13T09:33:35Z</time>
      </trkpt>
      <trkpt lat="44.82571" lon="6.14462">
        <ele>1050.8</ele>
        <time>2024-08-13T09:33:36Z</time>
      </trkpt>
      <trkpt lat="44.82573" lon="6.14462">
        <ele>1050.8</ele>
        <time>2024-08-13T09:33:37Z</time>
      </trkpt>
      <trkpt lat="44.82573" lon="6.14462">
        <ele>1050.6</ele>
        <time>2024-08-13T09:33:38Z</time>
      </trkpt>
      <trkpt lat="44.82573" lon="6.14462">
        <ele>1050.6</ele>
        <time>2024-08-13T09:33:39Z</time>
      </trkpt>
      <trkpt lat="44.82571" lon="6.14461">
        <ele>1050.8</ele>
        <time>2024-08-13T09:33:40Z</time>
      </trkpt>
      <trkpt lat="44.82571" lon="6.14461">
        <ele>1050.8</ele>
        <time>2024-08-13T09:33:41Z</time>
      </trkpt>
      <trkpt lat="44.82571" lon="6.14461">
        <ele>1050.4</ele>
        <time>2024-08-13T09:33:42Z</time>
      </trkpt>
      <trkpt lat="44.82569" lon="6.14463">
        <ele>1050.4</ele>
        <time>2024-08-13T09:33:43Z</time>
      </trkpt>
      <trkpt lat="44.82569" lon="6.14463">
        <ele>1050.4</ele>
        <time>2024-08-13T09:33:44Z</time>
      </trkpt>
      <trkpt lat="44.82569" lon="6.14463">
        <ele>1050.2</ele>
        <time>2024-08-13T09:33:45Z</time>
      </trkpt>
      <trkpt lat="44.82569" lon="6.14463">
        <ele>1050.2</ele>
        <time>2024-08-13T09:33:46Z</time>
      </trkpt>
      <trkpt lat="44.82569" lon="6.14463">
        <ele>1050.4</ele>
        <time>2024-08-13T09:33:47Z</time>
      </trkpt>
      <trkpt lat="44.82569" lon="6.14463">
        <ele>1050.4</ele>
        <time>2024-08-13T09:33:48Z</time>
      </trkpt>
      <trkpt lat="44.82569" lon="6.14463">
        <ele>1050.4</ele>
        <time>2024-08-13T09:33:49Z</time>
      </trkpt>
      <trkpt lat="44.82569" lon="6.14463">
        <ele>1050.4</ele>
        <time>2024-08-13T09:33:50Z</time>
      </trkpt>
      <trkpt lat="44.82569" lon="6.14463">
        <ele>1050.2</ele>
        <time>2024-08-13T09:33:51Z</time>
      </trkpt>
      <trkpt lat="44.82569" lon="6.14463">
        <ele>1050.2</ele>
        <time>2024-08-13T09:33:52Z</time>
      </trkpt>
      <trkpt lat="44.82569" lon="6.14463">
        <ele>1050.2</ele>
        <time>2024-08-13T09:33:53Z</time>
      </trkpt>
      <trkpt lat="44.82569" lon="6.14463">
        <ele>1050</ele>
        <time>2024-08-13T09:33:54Z</time>
      </trkpt>
      <trkpt lat="44.82569" lon="6.14463">
        <ele>1050</ele>
        <time>2024-08-13T09:33:55Z</time>
      </trkpt>
      <trkpt lat="44.82569" lon="6.14463">
        <ele>1050.2</ele>
        <time>2024-08-13T09:33:56Z</time>
      </trkpt>
      <trkpt lat="44.82569" lon="6.14463">
        <ele>1050.2</ele>
        <time>2024-08-13T09:33:57Z</time>
      </trkpt>
      <trkpt lat="44.82569" lon="6.14463">
        <ele>1050.2</ele>
        <time>2024-08-13T09:33:58Z</time>
      </trkpt>
      <trkpt lat="44.82569" lon="6.14463">
        <ele>1050</ele>
        <time>2024-08-13T09:33:59Z</time>
      </trkpt>
      <trkpt lat="44.82569" lon="6.14463">
        <ele>1050</ele>
        <time>2024-08-13T09:34:00Z</time>
      </trkpt>
      <trkpt lat="44.82569" lon="6.14463">
        <ele>1050</ele>
        <time>2024-08-13T09:34:01Z</time>
      </trkpt>
      <trkpt lat="44.82569" lon="6.14463">
        <ele>1050</ele>
        <time>2024-08-13T09:34:02Z</time>
      </trkpt>
      <trkpt lat="44.82569" lon="6.14463">
        <ele>1050</ele>
        <time>2024-08-13T09:34:03Z</time>
      </trkpt>
      <trkpt lat="44.82569" lon="6.14463">
        <ele>1049.6</ele>
        <time>2024-08-13T09:34:04Z</time>
      </trkpt>
      <trkpt lat="44.82569" lon="6.14463">
        <ele>1049.6</ele>
        <time>2024-08-13T09:34:05Z</time>
      </trkpt>
      <trkpt lat="44.82569" lon="6.14463">
        <ele>1049.6</ele>
        <time>2024-08-13T09:34:06Z</time>
      </trkpt>
      <trkpt lat="44.82569" lon="6.14463">
        <ele>1050</ele>
        <time>2024-08-13T09:34:07Z</time>
      </trkpt>
      <trkpt lat="44.82569" lon="6.14463">
        <ele>1049.8</ele>
        <time>2024-08-13T09:34:08Z</time>
      </trkpt>
      <trkpt lat="44.82569" lon="6.14463">
        <ele>1049.6</ele>
        <time>2024-08-13T09:34:09Z</time>
      </trkpt>
      <trkpt lat="44.82569" lon="6.14463">
        <ele>1049.2</ele>
        <time>2024-08-13T09:34:10Z</time>
      </trkpt>
      <trkpt lat="44.82569" lon="6.14463">
        <ele>1049.2</ele>
        <time>2024-08-13T09:34:11Z</time>
      </trkpt>
      <trkpt lat="44.82569" lon="6.14463">
        <ele>1049.4</ele>
        <time>2024-08-13T09:34:12Z</time>
      </trkpt>
      <trkpt lat="44.82569" lon="6.14463">
        <ele>1049.4</ele>
        <time>2024-08-13T09:34:13Z</time>
      </trkpt>
      <trkpt lat="44.82569" lon="6.14463">
        <ele>1049.4</ele>
        <time>2024-08-13T09:34:14Z</time>
      </trkpt>
      <trkpt lat="44.82569" lon="6.14463">
        <ele>1049.4</ele>
        <time>2024-08-13T09:34:15Z</time>
      </trkpt>
      <trkpt lat="44.82569" lon="6.14463">
        <ele>1049.6</ele>
        <time>2024-08-13T09:34:16Z</time>
      </trkpt>
      <trkpt lat="44.82569" lon="6.14463">
        <ele>1049.8</ele>
        <time>2024-08-13T09:34:17Z</time>
      </trkpt>
      <trkpt lat="44.82569" lon="6.14463">
        <ele>1049.8</ele>
        <time>2024-08-13T09:34:18Z</time>
      </trkpt>
      <trkpt lat="44.82569" lon="6.14463">
        <ele>1049.8</ele>
        <time>2024-08-13T09:34:19Z</time>
      </trkpt>
      <trkpt lat="44.82569" lon="6.14463">
        <ele>1049.6</ele>
        <time>2024-08-13T09:34:20Z</time>
      </trkpt>
      <trkpt lat="44.82569" lon="6.14463">
        <ele>1049.4</ele>
        <time>2024-08-13T09:34:21Z</time>
      </trkpt>
      <trkpt lat="44.82569" lon="6.14463">
        <ele>1049.4</ele>
        <time>2024-08-13T09:34:22Z</time>
      </trkpt>
      <trkpt lat="44.82569" lon="6.14463">
        <ele>1049.4</ele>
        <time>2024-08-13T09:34:23Z</time>
      </trkpt>
      <trkpt lat="44.82569" lon="6.14463">
        <ele>1049.6</ele>
        <time>2024-08-13T09:34:24Z</time>
      </trkpt>
      <trkpt lat="44.82569" lon="6.14463">
        <ele>1049.6</ele>
        <time>2024-08-13T09:34:25Z</time>
      </trkpt>
      <trkpt lat="44.82569" lon="6.14463">
        <ele>1049.6</ele>
        <time>2024-08-13T09:34:26Z</time>
      </trkpt>
      <trkpt lat="44.82569" lon="6.14463">
        <ele>1049.6</ele>
        <time>2024-08-13T09:34:27Z</time>
      </trkpt>
      <trkpt lat="44.82569" lon="6.14463">
        <ele>1049.4</ele>
        <time>2024-08-13T09:34:28Z</time>
      </trkpt>
      <trkpt lat="44.82569" lon="6.14463">
        <ele>1049.4</ele>
        <time>2024-08-13T09:34:29Z</time>
      </trkpt>
      <trkpt lat="44.82569" lon="6.14463">
        <ele>1049</ele>
        <time>2024-08-13T09:34:30Z</time>
      </trkpt>
      <trkpt lat="44.82569" lon="6.14463">
        <ele>1049</ele>
        <time>2024-08-13T09:34:31Z</time>
      </trkpt>
      <trkpt lat="44.82569" lon="6.14463">
        <ele>1049</ele>
        <time>2024-08-13T09:34:32Z</time>
      </trkpt>
      <trkpt lat="44.82569" lon="6.14463">
        <ele>1049.4</ele>
        <time>2024-08-13T09:34:33Z</time>
      </trkpt>
      <trkpt lat="44.82569" lon="6.14463">
        <ele>1049.4</ele>
        <time>2024-08-13T09:34:34Z</time>
      </trkpt>
      <trkpt lat="44.82569" lon="6.14463">
        <ele>1049.2</ele>
        <time>2024-08-13T09:34:35Z</time>
      </trkpt>
      <trkpt lat="44.82569" lon="6.14463">
        <ele>1049.2</ele>
        <time>2024-08-13T09:34:36Z</time>
      </trkpt>
      <trkpt lat="44.82569" lon="6.14463">
        <ele>1049.4</ele>
        <time>2024-08-13T09:34:37Z</time>
      </trkpt>
      <trkpt lat="44.82569" lon="6.14463">
        <ele>1049.2</ele>
        <time>2024-08-13T09:34:38Z</time>
      </trkpt>
      <trkpt lat="44.82569" lon="6.14463">
        <ele>1049.2</ele>
        <time>2024-08-13T09:34:39Z</time>
      </trkpt>
      <trkpt lat="44.82569" lon="6.14463">
        <ele>1049</ele>
        <time>2024-08-13T09:34:40Z</time>
      </trkpt>
      <trkpt lat="44.82569" lon="6.14463">
        <ele>1049</ele>
        <time>2024-08-13T09:34:41Z</time>
      </trkpt>
      <trkpt lat="44.82569" lon="6.14463">
        <ele>1049.2</ele>
        <time>2024-08-13T09:34:42Z</time>
      </trkpt>
      <trkpt lat="44.82569" lon="6.14463">
        <ele>1049.2</ele>
        <time>2024-08-13T09:34:43Z</time>
      </trkpt>
      <trkpt lat="44.82569" lon="6.14463">
        <ele>1049.2</ele>
        <time>2024-08-13T09:34:44Z</time>
      </trkpt>
      <trkpt lat="44.82569" lon="6.14463">
        <ele>1049.2</ele>
        <time>2024-08-13T09:34:45Z</time>
      </trkpt>
      <trkpt lat="44.82569" lon="6.14463">
        <ele>1049.2</ele>
        <time>2024-08-13T09:34:46Z</time>
      </trkpt>
      <trkpt lat="44.82569" lon="6.14463">
        <ele>1049.2</ele>
        <time>2024-08-13T09:34:47Z</time>
      </trkpt>
      <trkpt lat="44.82569" lon="6.14463">
        <ele>1049</ele>
        <time>2024-08-13T09:34:48Z</time>
      </trkpt>
      <trkpt lat="44.82569" lon="6.14463">
        <ele>1049</ele>
        <time>2024-08-13T09:34:49Z</time>
      </trkpt>
      <trkpt lat="44.82569" lon="6.14463">
        <ele>1049</ele>
        <time>2024-08-13T09:34:50Z</time>
      </trkpt>
      <trkpt lat="44.82569" lon="6.14463">
        <ele>1049.2</ele>
        <time>2024-08-13T09:34:51Z</time>
      </trkpt>
      <trkpt lat="44.82569" lon="6.14463">
        <ele>1049</ele>
        <time>2024-08-13T09:34:52Z</time>
      </trkpt>
      <trkpt lat="44.82569" lon="6.14463">
        <ele>1048.8</ele>
        <time>2024-08-13T09:34:53Z</time>
      </trkpt>
      <trkpt lat="44.82569" lon="6.14463">
        <ele>1048.8</ele>
        <time>2024-08-13T09:34:54Z</time>
      </trkpt>
      <trkpt lat="44.82569" lon="6.14463">
        <ele>1048.8</ele>
        <time>2024-08-13T09:34:55Z</time>
      </trkpt>
      <trkpt lat="44.82569" lon="6.14463">
        <ele>1048.8</ele>
        <time>2024-08-13T09:34:56Z</time>
      </trkpt>
      <trkpt lat="44.82569" lon="6.14463">
        <ele>1048.8</ele>
        <time>2024-08-13T09:34:57Z</time>
      </trkpt>
      <trkpt lat="44.82569" lon="6.14463">
        <ele>1048.8</ele>
        <time>2024-08-13T09:34:58Z</time>
      </trkpt>
      <trkpt lat="44.82569" lon="6.14463">
        <ele>1048.8</ele>
        <time>2024-08-13T09:34:59Z</time>
      </trkpt>
      <trkpt lat="44.82569" lon="6.14463">
        <ele>1049</ele>
        <time>2024-08-13T09:35:00Z</time>
      </trkpt>
      <trkpt lat="44.82569" lon="6.14463">
        <ele>1049</ele>
        <time>2024-08-13T09:35:01Z</time>
      </trkpt>
      <trkpt lat="44.82569" lon="6.14463">
        <ele>1049</ele>
        <time>2024-08-13T09:35:02Z</time>
      </trkpt>
      <trkpt lat="44.82569" lon="6.14463">
        <ele>1048.8</ele>
        <time>2024-08-13T09:35:03Z</time>
      </trkpt>
      <trkpt lat="44.82569" lon="6.14463">
        <ele>1048.8</ele>
        <time>2024-08-13T09:35:04Z</time>
      </trkpt>
      <trkpt lat="44.8257" lon="6.14465">
        <ele>1048.8</ele>
        <time>2024-08-13T09:35:05Z</time>
      </trkpt>
      <trkpt lat="44.8257" lon="6.14465">
        <ele>1048.8</ele>
        <time>2024-08-13T09:35:06Z</time>
      </trkpt>
      <trkpt lat="44.8257" lon="6.14465">
        <ele>1048.8</ele>
        <time>2024-08-13T09:35:07Z</time>
      </trkpt>
      <trkpt lat="44.8257" lon="6.14465">
        <ele>1048.6</ele>
        <time>2024-08-13T09:35:08Z</time>
      </trkpt>
      <trkpt lat="44.8257" lon="6.14465">
        <ele>1048.6</ele>
        <time>2024-08-13T09:35:09Z</time>
      </trkpt>
      <trkpt lat="44.8257" lon="6.14465">
        <ele>1048.6</ele>
        <time>2024-08-13T09:35:10Z</time>
      </trkpt>
      <trkpt lat="44.8257" lon="6.14465">
        <ele>1048.6</ele>
        <time>2024-08-13T09:35:11Z</time>
      </trkpt>
      <trkpt lat="44.8257" lon="6.14465">
        <ele>1048.6</ele>
        <time>2024-08-13T09:35:12Z</time>
      </trkpt>
      <trkpt lat="44.8257" lon="6.14465">
        <ele>1048.6</ele>
        <time>2024-08-13T09:35:13Z</time>
      </trkpt>
      <trkpt lat="44.8257" lon="6.14465">
        <ele>1048.6</ele>
        <time>2024-08-13T09:35:14Z</time>
      </trkpt>
      <trkpt lat="44.8257" lon="6.14465">
        <ele>1048.6</ele>
        <time>2024-08-13T09:35:15Z</time>
      </trkpt>
      <trkpt lat="44.8257" lon="6.14465">
        <ele>1048.6</ele>
        <time>2024-08-13T09:35:16Z</time>
      </trkpt>
      <trkpt lat="44.8257" lon="6.14465">
        <ele>1048.6</ele>
        <time>2024-08-13T09:35:17Z</time>
      </trkpt>
      <trkpt lat="44.8257" lon="6.14465">
        <ele>1048.8</ele>
        <time>2024-08-13T09:35:18Z</time>
      </trkpt>
      <trkpt lat="44.8257" lon="6.14465">
        <ele>1048.8</ele>
        <time>2024-08-13T09:35:19Z</time>
      </trkpt>
      <trkpt lat="44.8257" lon="6.14465">
        <ele>1048.8</ele>
        <time>2024-08-13T09:35:20Z</time>
      </trkpt>
      <trkpt lat="44.8257" lon="6.14465">
        <ele>1048.6</ele>
        <time>2024-08-13T09:35:21Z</time>
      </trkpt>
      <trkpt lat="44.8257" lon="6.14465">
        <ele>1048.6</ele>
        <time>2024-08-13T09:35:22Z</time>
      </trkpt>
      <trkpt lat="44.8257" lon="6.14465">
        <ele>1048.6</ele>
        <time>2024-08-13T09:35:23Z</time>
      </trkpt>
      <trkpt lat="44.8257" lon="6.14465">
        <ele>1048.6</ele>
        <time>2024-08-13T09:35:24Z</time>
      </trkpt>
      <trkpt lat="44.8257" lon="6.14465">
        <ele>1049.2</ele>
        <time>2024-08-13T09:35:25Z</time>
      </trkpt>
      <trkpt lat="44.8257" lon="6.14465">
        <ele>1049.2</ele>
        <time>2024-08-13T09:35:26Z</time>
      </trkpt>
      <trkpt lat="44.8257" lon="6.14465">
        <ele>1049</ele>
        <time>2024-08-13T09:35:27Z</time>
      </trkpt>
      <trkpt lat="44.8257" lon="6.14465">
        <ele>1049</ele>
        <time>2024-08-13T09:35:28Z</time>
      </trkpt>
      <trkpt lat="44.8257" lon="6.14465">
        <ele>1048.8</ele>
        <time>2024-08-13T09:35:29Z</time>
      </trkpt>
      <trkpt lat="44.8257" lon="6.14465">
        <ele>1048.8</ele>
        <time>2024-08-13T09:35:30Z</time>
      </trkpt>
      <trkpt lat="44.8257" lon="6.14465">
        <ele>1048.8</ele>
        <time>2024-08-13T09:35:31Z</time>
      </trkpt>
      <trkpt lat="44.8257" lon="6.14465">
        <ele>1048.8</ele>
        <time>2024-08-13T09:35:32Z</time>
      </trkpt>
      <trkpt lat="44.8257" lon="6.14465">
        <ele>1048.6</ele>
        <time>2024-08-13T09:35:33Z</time>
      </trkpt>
      <trkpt lat="44.8257" lon="6.14465">
        <ele>1048.6</ele>
        <time>2024-08-13T09:35:34Z</time>
      </trkpt>
      <trkpt lat="44.8257" lon="6.14465">
        <ele>1048.8</ele>
        <time>2024-08-13T09:35:35Z</time>
      </trkpt>
      <trkpt lat="44.8257" lon="6.14465">
        <ele>1049</ele>
        <time>2024-08-13T09:35:36Z</time>
      </trkpt>
      <trkpt lat="44.8257" lon="6.14465">
        <ele>1049</ele>
        <time>2024-08-13T09:35:37Z</time>
      </trkpt>
      <trkpt lat="44.8257" lon="6.14465">
        <ele>1049</ele>
        <time>2024-08-13T09:35:38Z</time>
      </trkpt>
      <trkpt lat="44.8257" lon="6.14465">
        <ele>1049</ele>
        <time>2024-08-13T09:35:39Z</time>
      </trkpt>
      <trkpt lat="44.8257" lon="6.14465">
        <ele>1049</ele>
        <time>2024-08-13T09:35:40Z</time>
      </trkpt>
      <trkpt lat="44.8257" lon="6.14465">
        <ele>1049</ele>
        <time>2024-08-13T09:35:41Z</time>
      </trkpt>
      <trkpt lat="44.8257" lon="6.14465">
        <ele>1048.8</ele>
        <time>2024-08-13T09:35:42Z</time>
      </trkpt>
      <trkpt lat="44.8257" lon="6.14465">
        <ele>1048.8</ele>
        <time>2024-08-13T09:35:43Z</time>
      </trkpt>
      <trkpt lat="44.8257" lon="6.14465">
        <ele>1049</ele>
        <time>2024-08-13T09:35:44Z</time>
      </trkpt>
      <trkpt lat="44.8257" lon="6.14465">
        <ele>1049.4</ele>
        <time>2024-08-13T09:35:45Z</time>
      </trkpt>
      <trkpt lat="44.8257" lon="6.14465">
        <ele>1049.4</ele>
        <time>2024-08-13T09:35:46Z</time>
      </trkpt>
      <trkpt lat="44.8257" lon="6.14465">
        <ele>1049.2</ele>
        <time>2024-08-13T09:35:47Z</time>
      </trkpt>
      <trkpt lat="44.8257" lon="6.14465">
        <ele>1049.2</ele>
        <time>2024-08-13T09:35:48Z</time>
      </trkpt>
      <trkpt lat="44.8257" lon="6.14465">
        <ele>1049.2</ele>
        <time>2024-08-13T09:35:49Z</time>
      </trkpt>
      <trkpt lat="44.8257" lon="6.14465">
        <ele>1049.2</ele>
        <time>2024-08-13T09:35:50Z</time>
      </trkpt>
      <trkpt lat="44.8257" lon="6.14465">
        <ele>1049.2</ele>
        <time>2024-08-13T09:35:51Z</time>
      </trkpt>
      <trkpt lat="44.8257" lon="6.14465">
        <ele>1049.2</ele>
        <time>2024-08-13T09:35:52Z</time>
      </trkpt>
      <trkpt lat="44.8257" lon="6.14465">
        <ele>1049.2</ele>
        <time>2024-08-13T09:35:53Z</time>
      </trkpt>
      <trkpt lat="44.8257" lon="6.14465">
        <ele>1049.2</ele>
        <time>2024-08-13T09:35:54Z</time>
      </trkpt>
      <trkpt lat="44.8257" lon="6.14465">
        <ele>1049</ele>
        <time>2024-08-13T09:35:55Z</time>
      </trkpt>
      <trkpt lat="44.8257" lon="6.14465">
        <ele>1049</ele>
        <time>2024-08-13T09:35:56Z</time>
      </trkpt>
      <trkpt lat="44.8257" lon="6.14465">
        <ele>1049</ele>
        <time>2024-08-13T09:35:57Z</time>
      </trkpt>
      <trkpt lat="44.8257" lon="6.14465">
        <ele>1049</ele>
        <time>2024-08-13T09:35:58Z</time>
      </trkpt>
      <trkpt lat="44.8257" lon="6.14465">
        <ele>1049</ele>
        <time>2024-08-13T09:35:59Z</time>
      </trkpt>
      <trkpt lat="44.8257" lon="6.14465">
        <ele>1049</ele>
        <time>2024-08-13T09:36:00Z</time>
      </trkpt>
      <trkpt lat="44.8257" lon="6.14465">
        <ele>1049</ele>
        <time>2024-08-13T09:36:01Z</time>
      </trkpt>
      <trkpt lat="44.8257" lon="6.14465">
        <ele>1049.2</ele>
        <time>2024-08-13T09:36:02Z</time>
      </trkpt>
      <trkpt lat="44.8257" lon="6.14465">
        <ele>1049.2</ele>
        <time>2024-08-13T09:36:03Z</time>
      </trkpt>
      <trkpt lat="44.8257" lon="6.14465">
        <ele>1049.2</ele>
        <time>2024-08-13T09:36:04Z</time>
      </trkpt>
      <trkpt lat="44.82569" lon="6.14461">
        <ele>1049</ele>
        <time>2024-08-13T09:36:05Z</time>
      </trkpt>
      <trkpt lat="44.82569" lon="6.14461">
        <ele>1048.8</ele>
        <time>2024-08-13T09:36:06Z</time>
      </trkpt>
      <trkpt lat="44.82569" lon="6.14461">
        <ele>1048.8</ele>
        <time>2024-08-13T09:36:07Z</time>
      </trkpt>
      <trkpt lat="44.82569" lon="6.14461">
        <ele>1048.8</ele>
        <time>2024-08-13T09:36:08Z</time>
      </trkpt>
      <trkpt lat="44.82569" lon="6.14461">
        <ele>1048.8</ele>
        <time>2024-08-13T09:36:09Z</time>
      </trkpt>
      <trkpt lat="44.82569" lon="6.14461">
        <ele>1048.8</ele>
        <time>2024-08-13T09:36:10Z</time>
      </trkpt>
      <trkpt lat="44.82569" lon="6.14461">
        <ele>1048.6</ele>
        <time>2024-08-13T09:36:11Z</time>
      </trkpt>
      <trkpt lat="44.82569" lon="6.14461">
        <ele>1048.8</ele>
        <time>2024-08-13T09:36:12Z</time>
      </trkpt>
      <trkpt lat="44.82569" lon="6.14461">
        <ele>1048.8</ele>
        <time>2024-08-13T09:36:13Z</time>
      </trkpt>
      <trkpt lat="44.82569" lon="6.14461">
        <ele>1048.6</ele>
        <time>2024-08-13T09:36:14Z</time>
      </trkpt>
      <trkpt lat="44.82569" lon="6.14461">
        <ele>1048.6</ele>
        <time>2024-08-13T09:36:15Z</time>
      </trkpt>
      <trkpt lat="44.82569" lon="6.14461">
        <ele>1048.8</ele>
        <time>2024-08-13T09:36:16Z</time>
      </trkpt>
      <trkpt lat="44.82569" lon="6.14461">
        <ele>1048.8</ele>
        <time>2024-08-13T09:36:17Z</time>
      </trkpt>
      <trkpt lat="44.82569" lon="6.14461">
        <ele>1048.8</ele>
        <time>2024-08-13T09:36:18Z</time>
      </trkpt>
      <trkpt lat="44.82569" lon="6.14461">
        <ele>1048.8</ele>
        <time>2024-08-13T09:36:19Z</time>
      </trkpt>
      <trkpt lat="44.82569" lon="6.14461">
        <ele>1048.4</ele>
        <time>2024-08-13T09:36:20Z</time>
      </trkpt>
      <trkpt lat="44.82569" lon="6.14461">
        <ele>1048.4</ele>
        <time>2024-08-13T09:36:21Z</time>
      </trkpt>
      <trkpt lat="44.82569" lon="6.14461">
        <ele>1048.4</ele>
        <time>2024-08-13T09:36:22Z</time>
      </trkpt>
      <trkpt lat="44.82569" lon="6.14461">
        <ele>1048.4</ele>
        <time>2024-08-13T09:36:23Z</time>
      </trkpt>
      <trkpt lat="44.82569" lon="6.14461">
        <ele>1048.4</ele>
        <time>2024-08-13T09:36:24Z</time>
      </trkpt>
      <trkpt lat="44.82569" lon="6.14461">
        <ele>1048</ele>
        <time>2024-08-13T09:36:25Z</time>
      </trkpt>
      <trkpt lat="44.82569" lon="6.14461">
        <ele>1048</ele>
        <time>2024-08-13T09:36:26Z</time>
      </trkpt>
      <trkpt lat="44.82569" lon="6.14461">
        <ele>1048.2</ele>
        <time>2024-08-13T09:36:27Z</time>
      </trkpt>
      <trkpt lat="44.82569" lon="6.14461">
        <ele>1048.2</ele>
        <time>2024-08-13T09:36:28Z</time>
      </trkpt>
      <trkpt lat="44.82569" lon="6.14461">
        <ele>1048.2</ele>
        <time>2024-08-13T09:36:29Z</time>
      </trkpt>
      <trkpt lat="44.82569" lon="6.14461">
        <ele>1048</ele>
        <time>2024-08-13T09:36:30Z</time>
      </trkpt>
      <trkpt lat="44.82569" lon="6.14461">
        <ele>1048.2</ele>
        <time>2024-08-13T09:36:31Z</time>
      </trkpt>
      <trkpt lat="44.82569" lon="6.14461">
        <ele>1048.2</ele>
        <time>2024-08-13T09:36:32Z</time>
      </trkpt>
      <trkpt lat="44.82569" lon="6.14461">
        <ele>1048.2</ele>
        <time>2024-08-13T09:36:33Z</time>
      </trkpt>
      <trkpt lat="44.82569" lon="6.14461">
        <ele>1048.2</ele>
        <time>2024-08-13T09:36:34Z</time>
      </trkpt>
      <trkpt lat="44.82569" lon="6.14461">
        <ele>1048.2</ele>
        <time>2024-08-13T09:36:35Z</time>
      </trkpt>
      <trkpt lat="44.82569" lon="6.14461">
        <ele>1048.2</ele>
        <time>2024-08-13T09:36:36Z</time>
      </trkpt>
      <trkpt lat="44.82569" lon="6.14461">
        <ele>1048.4</ele>
        <time>2024-08-13T09:36:37Z</time>
      </trkpt>
      <trkpt lat="44.82569" lon="6.14461">
        <ele>1048.6</ele>
        <time>2024-08-13T09:36:38Z</time>
      </trkpt>
      <trkpt lat="44.82569" lon="6.14461">
        <ele>1048.6</ele>
        <time>2024-08-13T09:36:39Z</time>
      </trkpt>
      <trkpt lat="44.82569" lon="6.14461">
        <ele>1048.2</ele>
        <time>2024-08-13T09:36:40Z</time>
      </trkpt>
      <trkpt lat="44.82569" lon="6.14461">
        <ele>1048</ele>
        <time>2024-08-13T09:36:41Z</time>
      </trkpt>
      <trkpt lat="44.82569" lon="6.14461">
        <ele>1048</ele>
        <time>2024-08-13T09:36:42Z</time>
      </trkpt>
      <trkpt lat="44.82569" lon="6.14461">
        <ele>1048</ele>
        <time>2024-08-13T09:36:43Z</time>
      </trkpt>
      <trkpt lat="44.82569" lon="6.14461">
        <ele>1048.2</ele>
        <time>2024-08-13T09:36:44Z</time>
      </trkpt>
      <trkpt lat="44.82569" lon="6.14461">
        <ele>1048</ele>
        <time>2024-08-13T09:36:45Z</time>
      </trkpt>
      <trkpt lat="44.82569" lon="6.14461">
        <ele>1048</ele>
        <time>2024-08-13T09:36:46Z</time>
      </trkpt>
      <trkpt lat="44.82569" lon="6.14461">
        <ele>1048.2</ele>
        <time>2024-08-13T09:36:47Z</time>
      </trkpt>
      <trkpt lat="44.82569" lon="6.14461">
        <ele>1048</ele>
        <time>2024-08-13T09:36:48Z</time>
      </trkpt>
      <trkpt lat="44.82569" lon="6.14461">
        <ele>1048</ele>
        <time>2024-08-13T09:36:49Z</time>
      </trkpt>
      <trkpt lat="44.82569" lon="6.14461">
        <ele>1048</ele>
        <time>2024-08-13T09:36:50Z</time>
      </trkpt>
      <trkpt lat="44.82569" lon="6.14461">
        <ele>1047.8</ele>
        <time>2024-08-13T09:36:51Z</time>
      </trkpt>
      <trkpt lat="44.82569" lon="6.14461">
        <ele>1047.8</ele>
        <time>2024-08-13T09:36:52Z</time>
      </trkpt>
      <trkpt lat="44.82569" lon="6.14461">
        <ele>1047.8</ele>
        <time>2024-08-13T09:36:53Z</time>
      </trkpt>
      <trkpt lat="44.82569" lon="6.14461">
        <ele>1047.8</ele>
        <time>2024-08-13T09:36:54Z</time>
      </trkpt>
      <trkpt lat="44.82569" lon="6.14461">
        <ele>1047.6</ele>
        <time>2024-08-13T09:36:55Z</time>
      </trkpt>
      <trkpt lat="44.82569" lon="6.14461">
        <ele>1047.6</ele>
        <time>2024-08-13T09:36:56Z</time>
      </trkpt>
      <trkpt lat="44.82569" lon="6.14461">
        <ele>1047.6</ele>
        <time>2024-08-13T09:36:57Z</time>
      </trkpt>
      <trkpt lat="44.82569" lon="6.14461">
        <ele>1047.6</ele>
        <time>2024-08-13T09:36:58Z</time>
      </trkpt>
      <trkpt lat="44.82569" lon="6.14461">
        <ele>1047.6</ele>
        <time>2024-08-13T09:36:59Z</time>
      </trkpt>
      <trkpt lat="44.82569" lon="6.14461">
        <ele>1047.6</ele>
        <time>2024-08-13T09:37:00Z</time>
      </trkpt>
      <trkpt lat="44.82569" lon="6.14461">
        <ele>1047.8</ele>
        <time>2024-08-13T09:37:01Z</time>
      </trkpt>
      <trkpt lat="44.82569" lon="6.14461">
        <ele>1047.6</ele>
        <time>2024-08-13T09:37:02Z</time>
      </trkpt>
      <trkpt lat="44.82569" lon="6.14461">
        <ele>1047.6</ele>
        <time>2024-08-13T09:37:03Z</time>
      </trkpt>
      <trkpt lat="44.82569" lon="6.14461">
        <ele>1047.6</ele>
        <time>2024-08-13T09:37:04Z</time>
      </trkpt>
      <trkpt lat="44.82569" lon="6.14461">
        <ele>1047.6</ele>
        <time>2024-08-13T09:37:05Z</time>
      </trkpt>
      <trkpt lat="44.82569" lon="6.14461">
        <ele>1047.6</ele>
        <time>2024-08-13T09:37:06Z</time>
      </trkpt>
      <trkpt lat="44.82569" lon="6.14461">
        <ele>1047.6</ele>
        <time>2024-08-13T09:37:07Z</time>
      </trkpt>
      <trkpt lat="44.82569" lon="6.14461">
        <ele>1047.6</ele>
        <time>2024-08-13T09:37:08Z</time>
      </trkpt>
      <trkpt lat="44.82569" lon="6.14461">
        <ele>1047.4</ele>
        <time>2024-08-13T09:37:09Z</time>
      </trkpt>
      <trkpt lat="44.82569" lon="6.14461">
        <ele>1047.4</ele>
        <time>2024-08-13T09:37:10Z</time>
      </trkpt>
      <trkpt lat="44.82569" lon="6.14461">
        <ele>1047.4</ele>
        <time>2024-08-13T09:37:11Z</time>
      </trkpt>
      <trkpt lat="44.82569" lon="6.14461">
        <ele>1047.4</ele>
        <time>2024-08-13T09:37:12Z</time>
      </trkpt>
      <trkpt lat="44.82569" lon="6.14461">
        <ele>1047.4</ele>
        <time>2024-08-13T09:37:13Z</time>
      </trkpt>
      <trkpt lat="44.82569" lon="6.14461">
        <ele>1047.4</ele>
        <time>2024-08-13T09:37:14Z</time>
      </trkpt>
      <trkpt lat="44.82569" lon="6.14461">
        <ele>1047.4</ele>
        <time>2024-08-13T09:37:15Z</time>
      </trkpt>
      <trkpt lat="44.82569" lon="6.14461">
        <ele>1047.4</ele>
        <time>2024-08-13T09:37:16Z</time>
      </trkpt>
      <trkpt lat="44.82569" lon="6.14461">
        <ele>1047.4</ele>
        <time>2024-08-13T09:37:17Z</time>
      </trkpt>
      <trkpt lat="44.82569" lon="6.14461">
        <ele>1047.4</ele>
        <time>2024-08-13T09:37:18Z</time>
      </trkpt>
      <trkpt lat="44.82569" lon="6.14461">
        <ele>1047.4</ele>
        <time>2024-08-13T09:37:19Z</time>
      </trkpt>
      <trkpt lat="44.82569" lon="6.14461">
        <ele>1047.4</ele>
        <time>2024-08-13T09:37:20Z</time>
      </trkpt>
      <trkpt lat="44.82569" lon="6.14461">
        <ele>1047.4</ele>
        <time>2024-08-13T09:37:21Z</time>
      </trkpt>
      <trkpt lat="44.82569" lon="6.14461">
        <ele>1047.4</ele>
        <time>2024-08-13T09:37:22Z</time>
      </trkpt>
      <trkpt lat="44.82569" lon="6.14461">
        <ele>1047.2</ele>
        <time>2024-08-13T09:37:23Z</time>
      </trkpt>
      <trkpt lat="44.82569" lon="6.14461">
        <ele>1047</ele>
        <time>2024-08-13T09:37:24Z</time>
      </trkpt>
      <trkpt lat="44.82569" lon="6.14461">
        <ele>1047</ele>
        <time>2024-08-13T09:37:25Z</time>
      </trkpt>
      <trkpt lat="44.82569" lon="6.14461">
        <ele>1047</ele>
        <time>2024-08-13T09:37:26Z</time>
      </trkpt>
      <trkpt lat="44.82569" lon="6.14461">
        <ele>1047</ele>
        <time>2024-08-13T09:37:27Z</time>
      </trkpt>
      <trkpt lat="44.82569" lon="6.14461">
        <ele>1046.8</ele>
        <time>2024-08-13T09:37:28Z</time>
      </trkpt>
      <trkpt lat="44.82569" lon="6.14461">
        <ele>1046.6</ele>
        <time>2024-08-13T09:37:29Z</time>
      </trkpt>
      <trkpt lat="44.82569" lon="6.14461">
        <ele>1046.6</ele>
        <time>2024-08-13T09:37:30Z</time>
      </trkpt>
      <trkpt lat="44.82569" lon="6.14461">
        <ele>1046.8</ele>
        <time>2024-08-13T09:37:31Z</time>
      </trkpt>
      <trkpt lat="44.82569" lon="6.14461">
        <ele>1046.8</ele>
        <time>2024-08-13T09:37:32Z</time>
      </trkpt>
      <trkpt lat="44.82569" lon="6.14461">
        <ele>1046.8</ele>
        <time>2024-08-13T09:37:33Z</time>
      </trkpt>
      <trkpt lat="44.82569" lon="6.14461">
        <ele>1046.8</ele>
        <time>2024-08-13T09:37:34Z</time>
      </trkpt>
      <trkpt lat="44.82569" lon="6.14461">
        <ele>1046.8</ele>
        <time>2024-08-13T09:37:35Z</time>
      </trkpt>
      <trkpt lat="44.82569" lon="6.14461">
        <ele>1046.8</ele>
        <time>2024-08-13T09:37:36Z</time>
      </trkpt>
      <trkpt lat="44.82569" lon="6.14461">
        <ele>1046.8</ele>
        <time>2024-08-13T09:37:37Z</time>
      </trkpt>
      <trkpt lat="44.82569" lon="6.14461">
        <ele>1046.6</ele>
        <time>2024-08-13T09:37:38Z</time>
      </trkpt>
      <trkpt lat="44.82569" lon="6.14461">
        <ele>1046.6</ele>
        <time>2024-08-13T09:37:39Z</time>
      </trkpt>
      <trkpt lat="44.82569" lon="6.14461">
        <ele>1046.6</ele>
        <time>2024-08-13T09:37:40Z</time>
      </trkpt>
      <trkpt lat="44.82569" lon="6.14461">
        <ele>1046.6</ele>
        <time>2024-08-13T09:37:41Z</time>
      </trkpt>
      <trkpt lat="44.82569" lon="6.14461">
        <ele>1046.6</ele>
        <time>2024-08-13T09:37:42Z</time>
      </trkpt>
      <trkpt lat="44.82569" lon="6.14461">
        <ele>1046.6</ele>
        <time>2024-08-13T09:37:43Z</time>
      </trkpt>
      <trkpt lat="44.82569" lon="6.14461">
        <ele>1046.6</ele>
        <time>2024-08-13T09:37:44Z</time>
      </trkpt>
      <trkpt lat="44.82569" lon="6.14461">
        <ele>1046.6</ele>
        <time>2024-08-13T09:37:45Z</time>
      </trkpt>
      <trkpt lat="44.82569" lon="6.14461">
        <ele>1046.6</ele>
        <time>2024-08-13T09:37:46Z</time>
      </trkpt>
      <trkpt lat="44.82569" lon="6.14461">
        <ele>1046.4</ele>
        <time>2024-08-13T09:37:47Z</time>
      </trkpt>
      <trkpt lat="44.82569" lon="6.14461">
        <ele>1046.2</ele>
        <time>2024-08-13T09:37:48Z</time>
      </trkpt>
      <trkpt lat="44.82569" lon="6.14461">
        <ele>1046.2</ele>
        <time>2024-08-13T09:37:49Z</time>
      </trkpt>
      <trkpt lat="44.82569" lon="6.14461">
        <ele>1046.2</ele>
        <time>2024-08-13T09:37:50Z</time>
      </trkpt>
      <trkpt lat="44.82569" lon="6.14461">
        <ele>1046.4</ele>
        <time>2024-08-13T09:37:51Z</time>
      </trkpt>
      <trkpt lat="44.82569" lon="6.14461">
        <ele>1046.4</ele>
        <time>2024-08-13T09:37:52Z</time>
      </trkpt>
      <trkpt lat="44.82569" lon="6.14461">
        <ele>1046.4</ele>
        <time>2024-08-13T09:37:53Z</time>
      </trkpt>
      <trkpt lat="44.82569" lon="6.14461">
        <ele>1046</ele>
        <time>2024-08-13T09:37:54Z</time>
      </trkpt>
      <trkpt lat="44.82569" lon="6.14461">
        <ele>1046</ele>
        <time>2024-08-13T09:37:55Z</time>
      </trkpt>
      <trkpt lat="44.82569" lon="6.14461">
        <ele>1046</ele>
        <time>2024-08-13T09:37:56Z</time>
      </trkpt>
      <trkpt lat="44.82569" lon="6.14461">
        <ele>1046</ele>
        <time>2024-08-13T09:37:57Z</time>
      </trkpt>
      <trkpt lat="44.82569" lon="6.14461">
        <ele>1046</ele>
        <time>2024-08-13T09:37:58Z</time>
      </trkpt>
      <trkpt lat="44.82569" lon="6.14461">
        <ele>1046</ele>
        <time>2024-08-13T09:37:59Z</time>
      </trkpt>
      <trkpt lat="44.82569" lon="6.14461">
        <ele>1046</ele>
        <time>2024-08-13T09:38:00Z</time>
      </trkpt>
      <trkpt lat="44.82569" lon="6.14461">
        <ele>1046</ele>
        <time>2024-08-13T09:38:01Z</time>
      </trkpt>
      <trkpt lat="44.82569" lon="6.14461">
        <ele>1046.2</ele>
        <time>2024-08-13T09:38:02Z</time>
      </trkpt>
      <trkpt lat="44.82569" lon="6.14461">
        <ele>1046</ele>
        <time>2024-08-13T09:38:03Z</time>
      </trkpt>
      <trkpt lat="44.82569" lon="6.14461">
        <ele>1045.8</ele>
        <time>2024-08-13T09:38:04Z</time>
      </trkpt>
      <trkpt lat="44.82569" lon="6.14461">
        <ele>1045.8</ele>
        <time>2024-08-13T09:38:05Z</time>
      </trkpt>
      <trkpt lat="44.82569" lon="6.14461">
        <ele>1045.8</ele>
        <time>2024-08-13T09:38:06Z</time>
      </trkpt>
      <trkpt lat="44.82569" lon="6.14461">
        <ele>1046</ele>
        <time>2024-08-13T09:38:07Z</time>
      </trkpt>
      <trkpt lat="44.82569" lon="6.14461">
        <ele>1046</ele>
        <time>2024-08-13T09:38:08Z</time>
      </trkpt>
      <trkpt lat="44.82569" lon="6.14461">
        <ele>1046</ele>
        <time>2024-08-13T09:38:09Z</time>
      </trkpt>
      <trkpt lat="44.82569" lon="6.14461">
        <ele>1046</ele>
        <time>2024-08-13T09:38:10Z</time>
      </trkpt>
      <trkpt lat="44.82569" lon="6.14461">
        <ele>1046</ele>
        <time>2024-08-13T09:38:11Z</time>
      </trkpt>
      <trkpt lat="44.82569" lon="6.14461">
        <ele>1046</ele>
        <time>2024-08-13T09:38:12Z</time>
      </trkpt>
      <trkpt lat="44.82569" lon="6.14461">
        <ele>1046</ele>
        <time>2024-08-13T09:38:13Z</time>
      </trkpt>
      <trkpt lat="44.82569" lon="6.14461">
        <ele>1045.8</ele>
        <time>2024-08-13T09:38:14Z</time>
      </trkpt>
      <trkpt lat="44.82569" lon="6.14461">
        <ele>1045.8</ele>
        <time>2024-08-13T09:38:15Z</time>
      </trkpt>
      <trkpt lat="44.82569" lon="6.14461">
        <ele>1045.8</ele>
        <time>2024-08-13T09:38:16Z</time>
      </trkpt>
      <trkpt lat="44.82569" lon="6.14461">
        <ele>1045.8</ele>
        <time>2024-08-13T09:38:17Z</time>
      </trkpt>
      <trkpt lat="44.82569" lon="6.14461">
        <ele>1045.8</ele>
        <time>2024-08-13T09:38:18Z</time>
      </trkpt>
      <trkpt lat="44.82569" lon="6.14461">
        <ele>1045.8</ele>
        <time>2024-08-13T09:38:19Z</time>
      </trkpt>
      <trkpt lat="44.82569" lon="6.14461">
        <ele>1045.8</ele>
        <time>2024-08-13T09:38:20Z</time>
      </trkpt>
      <trkpt lat="44.82569" lon="6.14461">
        <ele>1045.6</ele>
        <time>2024-08-13T09:38:21Z</time>
      </trkpt>
      <trkpt lat="44.82569" lon="6.14461">
        <ele>1045.6</ele>
        <time>2024-08-13T09:38:22Z</time>
      </trkpt>
      <trkpt lat="44.82569" lon="6.14461">
        <ele>1045.4</ele>
        <time>2024-08-13T09:38:23Z</time>
      </trkpt>
      <trkpt lat="44.82569" lon="6.14461">
        <ele>1045.4</ele>
        <time>2024-08-13T09:38:24Z</time>
      </trkpt>
      <trkpt lat="44.82569" lon="6.14461">
        <ele>1045.4</ele>
        <time>2024-08-13T09:38:25Z</time>
      </trkpt>
      <trkpt lat="44.82569" lon="6.14461">
        <ele>1045.6</ele>
        <time>2024-08-13T09:38:26Z</time>
      </trkpt>
      <trkpt lat="44.82569" lon="6.14461">
        <ele>1045.6</ele>
        <time>2024-08-13T09:38:27Z</time>
      </trkpt>
      <trkpt lat="44.82569" lon="6.14461">
        <ele>1045.6</ele>
        <time>2024-08-13T09:38:28Z</time>
      </trkpt>
      <trkpt lat="44.82569" lon="6.14461">
        <ele>1045.6</ele>
        <time>2024-08-13T09:38:29Z</time>
      </trkpt>
      <trkpt lat="44.82569" lon="6.14461">
        <ele>1045.4</ele>
        <time>2024-08-13T09:38:30Z</time>
      </trkpt>
      <trkpt lat="44.82569" lon="6.14461">
        <ele>1045.4</ele>
        <time>2024-08-13T09:38:31Z</time>
      </trkpt>
      <trkpt lat="44.82569" lon="6.14461">
        <ele>1045.2</ele>
        <time>2024-08-13T09:38:32Z</time>
      </trkpt>
      <trkpt lat="44.82569" lon="6.14461">
        <ele>1045.2</ele>
        <time>2024-08-13T09:38:33Z</time>
      </trkpt>
      <trkpt lat="44.82569" lon="6.14461">
        <ele>1045.4</ele>
        <time>2024-08-13T09:38:34Z</time>
      </trkpt>
      <trkpt lat="44.82569" lon="6.14461">
        <ele>1045.4</ele>
        <time>2024-08-13T09:38:35Z</time>
      </trkpt>
      <trkpt lat="44.82569" lon="6.14461">
        <ele>1045.4</ele>
        <time>2024-08-13T09:38:36Z</time>
      </trkpt>
      <trkpt lat="44.82569" lon="6.14461">
        <ele>1045.2</ele>
        <time>2024-08-13T09:38:37Z</time>
      </trkpt>
      <trkpt lat="44.82569" lon="6.14461">
        <ele>1045.2</ele>
        <time>2024-08-13T09:38:38Z</time>
      </trkpt>
      <trkpt lat="44.82569" lon="6.14461">
        <ele>1045.2</ele>
        <time>2024-08-13T09:38:39Z</time>
      </trkpt>
      <trkpt lat="44.82569" lon="6.14461">
        <ele>1045.2</ele>
        <time>2024-08-13T09:38:40Z</time>
      </trkpt>
      <trkpt lat="44.82569" lon="6.14461">
        <ele>1045.2</ele>
        <time>2024-08-13T09:38:41Z</time>
      </trkpt>
      <trkpt lat="44.82569" lon="6.14461">
        <ele>1045</ele>
        <time>2024-08-13T09:38:42Z</time>
      </trkpt>
      <trkpt lat="44.82569" lon="6.14461">
        <ele>1045</ele>
        <time>2024-08-13T09:38:43Z</time>
      </trkpt>
      <trkpt lat="44.82569" lon="6.14461">
        <ele>1044.8</ele>
        <time>2024-08-13T09:38:44Z</time>
      </trkpt>
      <trkpt lat="44.82569" lon="6.14461">
        <ele>1044.6</ele>
        <time>2024-08-13T09:38:45Z</time>
      </trkpt>
      <trkpt lat="44.82569" lon="6.14461">
        <ele>1044.6</ele>
        <time>2024-08-13T09:38:46Z</time>
      </trkpt>
      <trkpt lat="44.82569" lon="6.14461">
        <ele>1044.6</ele>
        <time>2024-08-13T09:38:47Z</time>
      </trkpt>
      <trkpt lat="44.82569" lon="6.14461">
        <ele>1044.6</ele>
        <time>2024-08-13T09:38:48Z</time>
      </trkpt>
      <trkpt lat="44.82569" lon="6.14461">
        <ele>1044.6</ele>
        <time>2024-08-13T09:38:49Z</time>
      </trkpt>
      <trkpt lat="44.82569" lon="6.14461">
        <ele>1044.6</ele>
        <time>2024-08-13T09:38:50Z</time>
      </trkpt>
      <trkpt lat="44.82569" lon="6.14461">
        <ele>1044.4</ele>
        <time>2024-08-13T09:38:51Z</time>
      </trkpt>
      <trkpt lat="44.82569" lon="6.14461">
        <ele>1044.6</ele>
        <time>2024-08-13T09:38:52Z</time>
      </trkpt>
      <trkpt lat="44.82569" lon="6.14461">
        <ele>1044.6</ele>
        <time>2024-08-13T09:38:53Z</time>
      </trkpt>
      <trkpt lat="44.82569" lon="6.14461">
        <ele>1044.6</ele>
        <time>2024-08-13T09:38:54Z</time>
      </trkpt>
      <trkpt lat="44.82569" lon="6.14461">
        <ele>1044.4</ele>
        <time>2024-08-13T09:38:55Z</time>
      </trkpt>
      <trkpt lat="44.82569" lon="6.14461">
        <ele>1044.4</ele>
        <time>2024-08-13T09:38:56Z</time>
      </trkpt>
      <trkpt lat="44.82569" lon="6.14461">
        <ele>1044.4</ele>
        <time>2024-08-13T09:38:57Z</time>
      </trkpt>
      <trkpt lat="44.82569" lon="6.14461">
        <ele>1044.4</ele>
        <time>2024-08-13T09:38:58Z</time>
      </trkpt>
      <trkpt lat="44.82569" lon="6.14461">
        <ele>1044.4</ele>
        <time>2024-08-13T09:38:59Z</time>
      </trkpt>
      <trkpt lat="44.82569" lon="6.14461">
        <ele>1044.4</ele>
        <time>2024-08-13T09:39:00Z</time>
      </trkpt>
      <trkpt lat="44.82569" lon="6.14461">
        <ele>1044.4</ele>
        <time>2024-08-13T09:39:01Z</time>
      </trkpt>
      <trkpt lat="44.82569" lon="6.14461">
        <ele>1044.4</ele>
        <time>2024-08-13T09:39:02Z</time>
      </trkpt>
      <trkpt lat="44.82569" lon="6.14461">
        <ele>1044.4</ele>
        <time>2024-08-13T09:39:03Z</time>
      </trkpt>
      <trkpt lat="44.82569" lon="6.14461">
        <ele>1044.2</ele>
        <time>2024-08-13T09:39:04Z</time>
      </trkpt>
      <trkpt lat="44.82569" lon="6.14461">
        <ele>1044</ele>
        <time>2024-08-13T09:39:05Z</time>
      </trkpt>
      <trkpt lat="44.82569" lon="6.14461">
        <ele>1044</ele>
        <time>2024-08-13T09:39:06Z</time>
      </trkpt>
      <trkpt lat="44.82569" lon="6.14461">
        <ele>1044</ele>
        <time>2024-08-13T09:39:07Z</time>
      </trkpt>
      <trkpt lat="44.82569" lon="6.14461">
        <ele>1044</ele>
        <time>2024-08-13T09:39:08Z</time>
      </trkpt>
      <trkpt lat="44.82569" lon="6.14461">
        <ele>1044</ele>
        <time>2024-08-13T09:39:09Z</time>
      </trkpt>
      <trkpt lat="44.82569" lon="6.14461">
        <ele>1043.8</ele>
        <time>2024-08-13T09:39:10Z</time>
      </trkpt>
      <trkpt lat="44.82569" lon="6.14461">
        <ele>1044</ele>
        <time>2024-08-13T09:39:11Z</time>
      </trkpt>
      <trkpt lat="44.82569" lon="6.14461">
        <ele>1044</ele>
        <time>2024-08-13T09:39:12Z</time>
      </trkpt>
      <trkpt lat="44.82569" lon="6.14461">
        <ele>1044</ele>
        <time>2024-08-13T09:39:13Z</time>
      </trkpt>
      <trkpt lat="44.82569" lon="6.14461">
        <ele>1044</ele>
        <time>2024-08-13T09:39:14Z</time>
      </trkpt>
      <trkpt lat="44.82569" lon="6.14461">
        <ele>1044</ele>
        <time>2024-08-13T09:39:15Z</time>
      </trkpt>
      <trkpt lat="44.82569" lon="6.14461">
        <ele>1043.8</ele>
        <time>2024-08-13T09:39:16Z</time>
      </trkpt>
      <trkpt lat="44.82569" lon="6.14461">
        <ele>1043.8</ele>
        <time>2024-08-13T09:39:17Z</time>
      </trkpt>
      <trkpt lat="44.82569" lon="6.14461">
        <ele>1044</ele>
        <time>2024-08-13T09:39:18Z</time>
      </trkpt>
      <trkpt lat="44.82569" lon="6.14461">
        <ele>1044.2</ele>
        <time>2024-08-13T09:39:19Z</time>
      </trkpt>
      <trkpt lat="44.82569" lon="6.14461">
        <ele>1044.2</ele>
        <time>2024-08-13T09:39:20Z</time>
      </trkpt>
      <trkpt lat="44.82569" lon="6.14461">
        <ele>1044.2</ele>
        <time>2024-08-13T09:39:21Z</time>
      </trkpt>
      <trkpt lat="44.82569" lon="6.14461">
        <ele>1043.8</ele>
        <time>2024-08-13T09:39:22Z</time>
      </trkpt>
      <trkpt lat="44.82569" lon="6.14461">
        <ele>1043.8</ele>
        <time>2024-08-13T09:39:23Z</time>
      </trkpt>
      <trkpt lat="44.82569" lon="6.14461">
        <ele>1043.6</ele>
        <time>2024-08-13T09:39:24Z</time>
      </trkpt>
      <trkpt lat="44.82569" lon="6.14461">
        <ele>1043.8</ele>
        <time>2024-08-13T09:39:25Z</time>
      </trkpt>
      <trkpt lat="44.82569" lon="6.14461">
        <ele>1043.8</ele>
        <time>2024-08-13T09:39:26Z</time>
      </trkpt>
      <trkpt lat="44.82569" lon="6.14461">
        <ele>1043.8</ele>
        <time>2024-08-13T09:39:27Z</time>
      </trkpt>
      <trkpt lat="44.82569" lon="6.14461">
        <ele>1043.8</ele>
        <time>2024-08-13T09:39:28Z</time>
      </trkpt>
      <trkpt lat="44.82569" lon="6.14461">
        <ele>1044</ele>
        <time>2024-08-13T09:39:29Z</time>
      </trkpt>
      <trkpt lat="44.82569" lon="6.14461">
        <ele>1044</ele>
        <time>2024-08-13T09:39:30Z</time>
      </trkpt>
      <trkpt lat="44.82569" lon="6.14461">
        <ele>1044</ele>
        <time>2024-08-13T09:39:31Z</time>
      </trkpt>
      <trkpt lat="44.82569" lon="6.14461">
        <ele>1043.6</ele>
        <time>2024-08-13T09:39:32Z</time>
      </trkpt>
      <trkpt lat="44.82569" lon="6.14461">
        <ele>1043.4</ele>
        <time>2024-08-13T09:39:33Z</time>
      </trkpt>
      <trkpt lat="44.82569" lon="6.14461">
        <ele>1043.6</ele>
        <time>2024-08-13T09:39:34Z</time>
      </trkpt>
      <trkpt lat="44.82569" lon="6.14461">
        <ele>1043.6</ele>
        <time>2024-08-13T09:39:35Z</time>
      </trkpt>
      <trkpt lat="44.82569" lon="6.14461">
        <ele>1043.6</ele>
        <time>2024-08-13T09:39:36Z</time>
      </trkpt>
      <trkpt lat="44.82569" lon="6.14461">
        <ele>1043.6</ele>
        <time>2024-08-13T09:39:37Z</time>
      </trkpt>
      <trkpt lat="44.82569" lon="6.14461">
        <ele>1043.6</ele>
        <time>2024-08-13T09:39:38Z</time>
      </trkpt>
      <trkpt lat="44.82569" lon="6.14461">
        <ele>1043.6</ele>
        <time>2024-08-13T09:39:39Z</time>
      </trkpt>
      <trkpt lat="44.82569" lon="6.14461">
        <ele>1043.6</ele>
        <time>2024-08-13T09:39:40Z</time>
      </trkpt>
      <trkpt lat="44.82569" lon="6.14461">
        <ele>1043.4</ele>
        <time>2024-08-13T09:39:41Z</time>
      </trkpt>
      <trkpt lat="44.82569" lon="6.14461">
        <ele>1043.2</ele>
        <time>2024-08-13T09:39:42Z</time>
      </trkpt>
      <trkpt lat="44.82569" lon="6.14461">
        <ele>1043.2</ele>
        <time>2024-08-13T09:39:43Z</time>
      </trkpt>
      <trkpt lat="44.82569" lon="6.14461">
        <ele>1043.2</ele>
        <time>2024-08-13T09:39:44Z</time>
      </trkpt>
      <trkpt lat="44.82569" lon="6.14461">
        <ele>1043.2</ele>
        <time>2024-08-13T09:39:45Z</time>
      </trkpt>
      <trkpt lat="44.82569" lon="6.14461">
        <ele>1043.2</ele>
        <time>2024-08-13T09:39:46Z</time>
      </trkpt>
      <trkpt lat="44.82569" lon="6.14461">
        <ele>1043</ele>
        <time>2024-08-13T09:39:47Z</time>
      </trkpt>
      <trkpt lat="44.82569" lon="6.14461">
        <ele>1043</ele>
        <time>2024-08-13T09:39:48Z</time>
      </trkpt>
      <trkpt lat="44.82569" lon="6.14461">
        <ele>1043.2</ele>
        <time>2024-08-13T09:39:49Z</time>
      </trkpt>
      <trkpt lat="44.82569" lon="6.14461">
        <ele>1043</ele>
        <time>2024-08-13T09:39:50Z</time>
      </trkpt>
      <trkpt lat="44.82569" lon="6.14461">
        <ele>1043</ele>
        <time>2024-08-13T09:39:51Z</time>
      </trkpt>
      <trkpt lat="44.82569" lon="6.14461">
        <ele>1042.8</ele>
        <time>2024-08-13T09:39:52Z</time>
      </trkpt>
      <trkpt lat="44.82569" lon="6.14461">
        <ele>1043</ele>
        <time>2024-08-13T09:39:53Z</time>
      </trkpt>
      <trkpt lat="44.82569" lon="6.14461">
        <ele>1043</ele>
        <time>2024-08-13T09:39:54Z</time>
      </trkpt>
      <trkpt lat="44.82569" lon="6.14461">
        <ele>1043</ele>
        <time>2024-08-13T09:39:55Z</time>
      </trkpt>
      <trkpt lat="44.82569" lon="6.14461">
        <ele>1042.8</ele>
        <time>2024-08-13T09:39:56Z</time>
      </trkpt>
      <trkpt lat="44.82569" lon="6.14461">
        <ele>1042.8</ele>
        <time>2024-08-13T09:39:57Z</time>
      </trkpt>
      <trkpt lat="44.82569" lon="6.14461">
        <ele>1042.8</ele>
        <time>2024-08-13T09:39:58Z</time>
      </trkpt>
      <trkpt lat="44.82569" lon="6.14461">
        <ele>1043</ele>
        <time>2024-08-13T09:39:59Z</time>
      </trkpt>
      <trkpt lat="44.82569" lon="6.14461">
        <ele>1043</ele>
        <time>2024-08-13T09:40:00Z</time>
      </trkpt>
      <trkpt lat="44.82569" lon="6.14461">
        <ele>1043</ele>
        <time>2024-08-13T09:40:01Z</time>
      </trkpt>
      <trkpt lat="44.82569" lon="6.14461">
        <ele>1043</ele>
        <time>2024-08-13T09:40:02Z</time>
      </trkpt>
      <trkpt lat="44.82569" lon="6.14461">
        <ele>1043</ele>
        <time>2024-08-13T09:40:03Z</time>
      </trkpt>
      <trkpt lat="44.82569" lon="6.14461">
        <ele>1043.2</ele>
        <time>2024-08-13T09:40:04Z</time>
      </trkpt>
      <trkpt lat="44.82569" lon="6.14461">
        <ele>1043.2</ele>
        <time>2024-08-13T09:40:05Z</time>
      </trkpt>
      <trkpt lat="44.82569" lon="6.14461">
        <ele>1043.2</ele>
        <time>2024-08-13T09:40:06Z</time>
      </trkpt>
      <trkpt lat="44.82569" lon="6.14461">
        <ele>1043</ele>
        <time>2024-08-13T09:40:07Z</time>
      </trkpt>
      <trkpt lat="44.82569" lon="6.14461">
        <ele>1043</ele>
        <time>2024-08-13T09:40:08Z</time>
      </trkpt>
      <trkpt lat="44.82569" lon="6.14461">
        <ele>1043</ele>
        <time>2024-08-13T09:40:09Z</time>
      </trkpt>
      <trkpt lat="44.82569" lon="6.14461">
        <ele>1043</ele>
        <time>2024-08-13T09:40:10Z</time>
      </trkpt>
      <trkpt lat="44.82569" lon="6.14461">
        <ele>1043</ele>
        <time>2024-08-13T09:40:11Z</time>
      </trkpt>
      <trkpt lat="44.82569" lon="6.14461">
        <ele>1043.2</ele>
        <time>2024-08-13T09:40:12Z</time>
      </trkpt>
      <trkpt lat="44.82569" lon="6.14461">
        <ele>1043.6</ele>
        <time>2024-08-13T09:40:13Z</time>
      </trkpt>
      <trkpt lat="44.82569" lon="6.14461">
        <ele>1043.4</ele>
        <time>2024-08-13T09:40:14Z</time>
      </trkpt>
      <trkpt lat="44.82569" lon="6.14461">
        <ele>1043.4</ele>
        <time>2024-08-13T09:40:15Z</time>
      </trkpt>
      <trkpt lat="44.82569" lon="6.14461">
        <ele>1043</ele>
        <time>2024-08-13T09:40:16Z</time>
      </trkpt>
      <trkpt lat="44.82569" lon="6.14461">
        <ele>1043</ele>
        <time>2024-08-13T09:40:17Z</time>
      </trkpt>
      <trkpt lat="44.82569" lon="6.14461">
        <ele>1042.8</ele>
        <time>2024-08-13T09:40:18Z</time>
      </trkpt>
      <trkpt lat="44.82569" lon="6.14461">
        <ele>1042.8</ele>
        <time>2024-08-13T09:40:19Z</time>
      </trkpt>
      <trkpt lat="44.82569" lon="6.14461">
        <ele>1043</ele>
        <time>2024-08-13T09:40:20Z</time>
      </trkpt>
      <trkpt lat="44.82569" lon="6.14461">
        <ele>1043</ele>
        <time>2024-08-13T09:40:21Z</time>
      </trkpt>
      <trkpt lat="44.82569" lon="6.14461">
        <ele>1043.2</ele>
        <time>2024-08-13T09:40:22Z</time>
      </trkpt>
      <trkpt lat="44.82569" lon="6.14461">
        <ele>1043.2</ele>
        <time>2024-08-13T09:40:23Z</time>
      </trkpt>
      <trkpt lat="44.82569" lon="6.14461">
        <ele>1043.2</ele>
        <time>2024-08-13T09:40:24Z</time>
      </trkpt>
      <trkpt lat="44.82569" lon="6.14461">
        <ele>1042.8</ele>
        <time>2024-08-13T09:40:25Z</time>
      </trkpt>
      <trkpt lat="44.82569" lon="6.14461">
        <ele>1042.8</ele>
        <time>2024-08-13T09:40:26Z</time>
      </trkpt>
      <trkpt lat="44.82569" lon="6.14461">
        <ele>1042.8</ele>
        <time>2024-08-13T09:40:27Z</time>
      </trkpt>
      <trkpt lat="44.82569" lon="6.14461">
        <ele>1042.8</ele>
        <time>2024-08-13T09:40:28Z</time>
      </trkpt>
      <trkpt lat="44.82569" lon="6.14461">
        <ele>1042.8</ele>
        <time>2024-08-13T09:40:29Z</time>
      </trkpt>
      <trkpt lat="44.82569" lon="6.14461">
        <ele>1042.6</ele>
        <time>2024-08-13T09:40:30Z</time>
      </trkpt>
      <trkpt lat="44.82567" lon="6.1446">
        <ele>1042.6</ele>
        <time>2024-08-13T09:40:31Z</time>
      </trkpt>
      <trkpt lat="44.82567" lon="6.1446">
        <ele>1042.6</ele>
        <time>2024-08-13T09:40:32Z</time>
      </trkpt>
      <trkpt lat="44.82567" lon="6.1446">
        <ele>1042.8</ele>
        <time>2024-08-13T09:40:33Z</time>
      </trkpt>
      <trkpt lat="44.82567" lon="6.1446">
        <ele>1042.8</ele>
        <time>2024-08-13T09:40:34Z</time>
      </trkpt>
      <trkpt lat="44.82567" lon="6.1446">
        <ele>1042.8</ele>
        <time>2024-08-13T09:40:35Z</time>
      </trkpt>
      <trkpt lat="44.82567" lon="6.1446">
        <ele>1042.8</ele>
        <time>2024-08-13T09:40:36Z</time>
      </trkpt>
      <trkpt lat="44.82567" lon="6.1446">
        <ele>1042.8</ele>
        <time>2024-08-13T09:40:37Z</time>
      </trkpt>
      <trkpt lat="44.82567" lon="6.1446">
        <ele>1042.8</ele>
        <time>2024-08-13T09:40:38Z</time>
      </trkpt>
      <trkpt lat="44.82567" lon="6.1446">
        <ele>1043.4</ele>
        <time>2024-08-13T09:40:39Z</time>
      </trkpt>
      <trkpt lat="44.82567" lon="6.1446">
        <ele>1043.6</ele>
        <time>2024-08-13T09:40:40Z</time>
      </trkpt>
      <trkpt lat="44.82567" lon="6.1446">
        <ele>1043.6</ele>
        <time>2024-08-13T09:40:41Z</time>
      </trkpt>
      <trkpt lat="44.82567" lon="6.1446">
        <ele>1042.8</ele>
        <time>2024-08-13T09:40:42Z</time>
      </trkpt>
      <trkpt lat="44.82567" lon="6.1446">
        <ele>1042.8</ele>
        <time>2024-08-13T09:40:43Z</time>
      </trkpt>
      <trkpt lat="44.82567" lon="6.1446">
        <ele>1042.8</ele>
        <time>2024-08-13T09:40:44Z</time>
      </trkpt>
      <trkpt lat="44.82567" lon="6.1446">
        <ele>1042.6</ele>
        <time>2024-08-13T09:40:45Z</time>
      </trkpt>
      <trkpt lat="44.82567" lon="6.1446">
        <ele>1042.4</ele>
        <time>2024-08-13T09:40:46Z</time>
      </trkpt>
      <trkpt lat="44.82567" lon="6.1446">
        <ele>1042.4</ele>
        <time>2024-08-13T09:40:47Z</time>
      </trkpt>
      <trkpt lat="44.82567" lon="6.1446">
        <ele>1042.2</ele>
        <time>2024-08-13T09:40:48Z</time>
      </trkpt>
      <trkpt lat="44.82567" lon="6.1446">
        <ele>1042.2</ele>
        <time>2024-08-13T09:40:49Z</time>
      </trkpt>
      <trkpt lat="44.82567" lon="6.1446">
        <ele>1042.2</ele>
        <time>2024-08-13T09:40:50Z</time>
      </trkpt>
      <trkpt lat="44.82567" lon="6.1446">
        <ele>1042.2</ele>
        <time>2024-08-13T09:40:51Z</time>
      </trkpt>
      <trkpt lat="44.82567" lon="6.1446">
        <ele>1042.2</ele>
        <time>2024-08-13T09:40:52Z</time>
      </trkpt>
      <trkpt lat="44.82567" lon="6.1446">
        <ele>1042.4</ele>
        <time>2024-08-13T09:40:53Z</time>
      </trkpt>
      <trkpt lat="44.82567" lon="6.1446">
        <ele>1042.4</ele>
        <time>2024-08-13T09:40:54Z</time>
      </trkpt>
      <trkpt lat="44.82567" lon="6.1446">
        <ele>1042.4</ele>
        <time>2024-08-13T09:40:55Z</time>
      </trkpt>
      <trkpt lat="44.82567" lon="6.1446">
        <ele>1042.4</ele>
        <time>2024-08-13T09:40:56Z</time>
      </trkpt>
      <trkpt lat="44.82567" lon="6.1446">
        <ele>1042.4</ele>
        <time>2024-08-13T09:40:57Z</time>
      </trkpt>
      <trkpt lat="44.82567" lon="6.1446">
        <ele>1042.4</ele>
        <time>2024-08-13T09:40:58Z</time>
      </trkpt>
      <trkpt lat="44.82567" lon="6.1446">
        <ele>1042.2</ele>
        <time>2024-08-13T09:40:59Z</time>
      </trkpt>
      <trkpt lat="44.82567" lon="6.1446">
        <ele>1042.2</ele>
        <time>2024-08-13T09:41:00Z</time>
      </trkpt>
      <trkpt lat="44.82567" lon="6.1446">
        <ele>1042</ele>
        <time>2024-08-13T09:41:01Z</time>
      </trkpt>
      <trkpt lat="44.82567" lon="6.1446">
        <ele>1042.2</ele>
        <time>2024-08-13T09:41:02Z</time>
      </trkpt>
      <trkpt lat="44.82567" lon="6.1446">
        <ele>1042.2</ele>
        <time>2024-08-13T09:41:03Z</time>
      </trkpt>
      <trkpt lat="44.82567" lon="6.1446">
        <ele>1042.2</ele>
        <time>2024-08-13T09:41:04Z</time>
      </trkpt>
      <trkpt lat="44.82567" lon="6.1446">
        <ele>1042.2</ele>
        <time>2024-08-13T09:41:05Z</time>
      </trkpt>
      <trkpt lat="44.82567" lon="6.1446">
        <ele>1042.2</ele>
        <time>2024-08-13T09:41:06Z</time>
      </trkpt>
      <trkpt lat="44.82567" lon="6.1446">
        <ele>1042</ele>
        <time>2024-08-13T09:41:07Z</time>
      </trkpt>
      <trkpt lat="44.82567" lon="6.1446">
        <ele>1042</ele>
        <time>2024-08-13T09:41:08Z</time>
      </trkpt>
      <trkpt lat="44.82567" lon="6.1446">
        <ele>1042</ele>
        <time>2024-08-13T09:41:09Z</time>
      </trkpt>
      <trkpt lat="44.82567" lon="6.1446">
        <ele>1042</ele>
        <time>2024-08-13T09:41:10Z</time>
      </trkpt>
      <trkpt lat="44.82567" lon="6.1446">
        <ele>1042</ele>
        <time>2024-08-13T09:41:11Z</time>
      </trkpt>
      <trkpt lat="44.82567" lon="6.1446">
        <ele>1042</ele>
        <time>2024-08-13T09:41:12Z</time>
      </trkpt>
      <trkpt lat="44.82567" lon="6.1446">
        <ele>1042</ele>
        <time>2024-08-13T09:41:13Z</time>
      </trkpt>
      <trkpt lat="44.82567" lon="6.1446">
        <ele>1042.2</ele>
        <time>2024-08-13T09:41:14Z</time>
      </trkpt>
      <trkpt lat="44.82567" lon="6.1446">
        <ele>1042</ele>
        <time>2024-08-13T09:41:15Z</time>
      </trkpt>
      <trkpt lat="44.82567" lon="6.1446">
        <ele>1042</ele>
        <time>2024-08-13T09:41:16Z</time>
      </trkpt>
      <trkpt lat="44.82567" lon="6.1446">
        <ele>1042</ele>
        <time>2024-08-13T09:41:17Z</time>
      </trkpt>
      <trkpt lat="44.82567" lon="6.1446">
        <ele>1042</ele>
        <time>2024-08-13T09:41:18Z</time>
      </trkpt>
      <trkpt lat="44.82567" lon="6.1446">
        <ele>1042</ele>
        <time>2024-08-13T09:41:19Z</time>
      </trkpt>
      <trkpt lat="44.82567" lon="6.1446">
        <ele>1042</ele>
        <time>2024-08-13T09:41:20Z</time>
      </trkpt>
      <trkpt lat="44.82567" lon="6.1446">
        <ele>1041.8</ele>
        <time>2024-08-13T09:41:21Z</time>
      </trkpt>
      <trkpt lat="44.82567" lon="6.1446">
        <ele>1041.8</ele>
        <time>2024-08-13T09:41:22Z</time>
      </trkpt>
      <trkpt lat="44.82567" lon="6.1446">
        <ele>1042</ele>
        <time>2024-08-13T09:41:23Z</time>
      </trkpt>
      <trkpt lat="44.82567" lon="6.1446">
        <ele>1042</ele>
        <time>2024-08-13T09:41:24Z</time>
      </trkpt>
      <trkpt lat="44.82567" lon="6.1446">
        <ele>1042</ele>
        <time>2024-08-13T09:41:25Z</time>
      </trkpt>
      <trkpt lat="44.82567" lon="6.1446">
        <ele>1042</ele>
        <time>2024-08-13T09:41:26Z</time>
      </trkpt>
      <trkpt lat="44.82567" lon="6.1446">
        <ele>1042</ele>
        <time>2024-08-13T09:41:27Z</time>
      </trkpt>
      <trkpt lat="44.82567" lon="6.1446">
        <ele>1041.8</ele>
        <time>2024-08-13T09:41:28Z</time>
      </trkpt>
      <trkpt lat="44.82567" lon="6.1446">
        <ele>1041.8</ele>
        <time>2024-08-13T09:41:29Z</time>
      </trkpt>
      <trkpt lat="44.82567" lon="6.1446">
        <ele>1042.2</ele>
        <time>2024-08-13T09:41:30Z</time>
      </trkpt>
      <trkpt lat="44.82567" lon="6.1446">
        <ele>1042.2</ele>
        <time>2024-08-13T09:41:31Z</time>
      </trkpt>
      <trkpt lat="44.82567" lon="6.1446">
        <ele>1042.2</ele>
        <time>2024-08-13T09:41:32Z</time>
      </trkpt>
      <trkpt lat="44.82567" lon="6.1446">
        <ele>1042.2</ele>
        <time>2024-08-13T09:41:33Z</time>
      </trkpt>
      <trkpt lat="44.82567" lon="6.1446">
        <ele>1042.2</ele>
        <time>2024-08-13T09:41:34Z</time>
      </trkpt>
      <trkpt lat="44.82567" lon="6.1446">
        <ele>1042</ele>
        <time>2024-08-13T09:41:35Z</time>
      </trkpt>
      <trkpt lat="44.82567" lon="6.1446">
        <ele>1042</ele>
        <time>2024-08-13T09:41:36Z</time>
      </trkpt>
      <trkpt lat="44.82567" lon="6.1446">
        <ele>1041.8</ele>
        <time>2024-08-13T09:41:37Z</time>
      </trkpt>
      <trkpt lat="44.82567" lon="6.1446">
        <ele>1041.8</ele>
        <time>2024-08-13T09:41:38Z</time>
      </trkpt>
      <trkpt lat="44.82567" lon="6.1446">
        <ele>1041.8</ele>
        <time>2024-08-13T09:41:39Z</time>
      </trkpt>
      <trkpt lat="44.82567" lon="6.1446">
        <ele>1041.8</ele>
        <time>2024-08-13T09:41:40Z</time>
      </trkpt>
      <trkpt lat="44.82567" lon="6.1446">
        <ele>1041.8</ele>
        <time>2024-08-13T09:41:41Z</time>
      </trkpt>
      <trkpt lat="44.82567" lon="6.1446">
        <ele>1042</ele>
        <time>2024-08-13T09:41:42Z</time>
      </trkpt>
      <trkpt lat="44.82567" lon="6.1446">
        <ele>1042</ele>
        <time>2024-08-13T09:41:43Z</time>
      </trkpt>
      <trkpt lat="44.82567" lon="6.1446">
        <ele>1042</ele>
        <time>2024-08-13T09:41:44Z</time>
      </trkpt>
      <trkpt lat="44.82567" lon="6.1446">
        <ele>1041.8</ele>
        <time>2024-08-13T09:41:45Z</time>
      </trkpt>
      <trkpt lat="44.82567" lon="6.1446">
        <ele>1041.8</ele>
        <time>2024-08-13T09:41:46Z</time>
      </trkpt>
      <trkpt lat="44.82567" lon="6.1446">
        <ele>1041.8</ele>
        <time>2024-08-13T09:41:47Z</time>
      </trkpt>
      <trkpt lat="44.82567" lon="6.1446">
        <ele>1041.8</ele>
        <time>2024-08-13T09:41:48Z</time>
      </trkpt>
      <trkpt lat="44.82567" lon="6.1446">
        <ele>1042</ele>
        <time>2024-08-13T09:41:49Z</time>
      </trkpt>
      <trkpt lat="44.82567" lon="6.1446">
        <ele>1042.2</ele>
        <time>2024-08-13T09:41:50Z</time>
      </trkpt>
      <trkpt lat="44.82567" lon="6.1446">
        <ele>1042.2</ele>
        <time>2024-08-13T09:41:51Z</time>
      </trkpt>
      <trkpt lat="44.82567" lon="6.1446">
        <ele>1042.2</ele>
        <time>2024-08-13T09:41:52Z</time>
      </trkpt>
      <trkpt lat="44.82567" lon="6.1446">
        <ele>1042</ele>
        <time>2024-08-13T09:41:53Z</time>
      </trkpt>
      <trkpt lat="44.82567" lon="6.1446">
        <ele>1042</ele>
        <time>2024-08-13T09:41:54Z</time>
      </trkpt>
      <trkpt lat="44.82567" lon="6.1446">
        <ele>1041.8</ele>
        <time>2024-08-13T09:41:55Z</time>
      </trkpt>
      <trkpt lat="44.82567" lon="6.1446">
        <ele>1042</ele>
        <time>2024-08-13T09:41:56Z</time>
      </trkpt>
      <trkpt lat="44.82567" lon="6.1446">
        <ele>1042</ele>
        <time>2024-08-13T09:41:57Z</time>
      </trkpt>
      <trkpt lat="44.82567" lon="6.1446">
        <ele>1042</ele>
        <time>2024-08-13T09:41:58Z</time>
      </trkpt>
      <trkpt lat="44.82567" lon="6.1446">
        <ele>1041.8</ele>
        <time>2024-08-13T09:41:59Z</time>
      </trkpt>
      <trkpt lat="44.82567" lon="6.1446">
        <ele>1041.8</ele>
        <time>2024-08-13T09:42:00Z</time>
      </trkpt>
      <trkpt lat="44.82567" lon="6.1446">
        <ele>1041.6</ele>
        <time>2024-08-13T09:42:01Z</time>
      </trkpt>
      <trkpt lat="44.82567" lon="6.1446">
        <ele>1041.8</ele>
        <time>2024-08-13T09:42:02Z</time>
      </trkpt>
      <trkpt lat="44.82567" lon="6.1446">
        <ele>1041.8</ele>
        <time>2024-08-13T09:42:03Z</time>
      </trkpt>
      <trkpt lat="44.82567" lon="6.1446">
        <ele>1041.8</ele>
        <time>2024-08-13T09:42:04Z</time>
      </trkpt>
      <trkpt lat="44.82567" lon="6.1446">
        <ele>1041.6</ele>
        <time>2024-08-13T09:42:05Z</time>
      </trkpt>
      <trkpt lat="44.82567" lon="6.1446">
        <ele>1041.4</ele>
        <time>2024-08-13T09:42:06Z</time>
      </trkpt>
      <trkpt lat="44.82567" lon="6.1446">
        <ele>1041.4</ele>
        <time>2024-08-13T09:42:07Z</time>
      </trkpt>
      <trkpt lat="44.82567" lon="6.1446">
        <ele>1041.4</ele>
        <time>2024-08-13T09:42:08Z</time>
      </trkpt>
      <trkpt lat="44.82567" lon="6.1446">
        <ele>1041.6</ele>
        <time>2024-08-13T09:42:09Z</time>
      </trkpt>
      <trkpt lat="44.82567" lon="6.1446">
        <ele>1041.6</ele>
        <time>2024-08-13T09:42:10Z</time>
      </trkpt>
      <trkpt lat="44.82567" lon="6.1446">
        <ele>1041.6</ele>
        <time>2024-08-13T09:42:11Z</time>
      </trkpt>
      <trkpt lat="44.82567" lon="6.1446">
        <ele>1041.6</ele>
        <time>2024-08-13T09:42:12Z</time>
      </trkpt>
      <trkpt lat="44.82567" lon="6.1446">
        <ele>1041.8</ele>
        <time>2024-08-13T09:42:13Z</time>
      </trkpt>
      <trkpt lat="44.82567" lon="6.1446">
        <ele>1041.8</ele>
        <time>2024-08-13T09:42:14Z</time>
      </trkpt>
      <trkpt lat="44.82567" lon="6.1446">
        <ele>1041.8</ele>
        <time>2024-08-13T09:42:15Z</time>
      </trkpt>
      <trkpt lat="44.82567" lon="6.1446">
        <ele>1041.2</ele>
        <time>2024-08-13T09:42:16Z</time>
      </trkpt>
      <trkpt lat="44.82568" lon="6.14463">
        <ele>1041</ele>
        <time>2024-08-13T09:42:17Z</time>
      </trkpt>
      <trkpt lat="44.82568" lon="6.14463">
        <ele>1041</ele>
        <time>2024-08-13T09:42:18Z</time>
      </trkpt>
      <trkpt lat="44.82571" lon="6.14465">
        <ele>1041</ele>
        <time>2024-08-13T09:42:19Z</time>
      </trkpt>
      <trkpt lat="44.82571" lon="6.14465">
        <ele>1041</ele>
        <time>2024-08-13T09:42:20Z</time>
      </trkpt>
      <trkpt lat="44.82572" lon="6.14469">
        <ele>1041.4</ele>
        <time>2024-08-13T09:42:21Z</time>
      </trkpt>
      <trkpt lat="44.82572" lon="6.14469">
        <ele>1041.4</ele>
        <time>2024-08-13T09:42:22Z</time>
      </trkpt>
      <trkpt lat="44.82572" lon="6.14473">
        <ele>1041.4</ele>
        <time>2024-08-13T09:42:23Z</time>
      </trkpt>
      <trkpt lat="44.82572" lon="6.14473">
        <ele>1041.4</ele>
        <time>2024-08-13T09:42:24Z</time>
      </trkpt>
      <trkpt lat="44.8257" lon="6.14475">
        <ele>1041.6</ele>
        <time>2024-08-13T09:42:25Z</time>
      </trkpt>
      <trkpt lat="44.8257" lon="6.14475">
        <ele>1041.4</ele>
        <time>2024-08-13T09:42:26Z</time>
      </trkpt>
      <trkpt lat="44.8257" lon="6.14475">
        <ele>1041.4</ele>
        <time>2024-08-13T09:42:27Z</time>
      </trkpt>
      <trkpt lat="44.8257" lon="6.14475">
        <ele>1041.4</ele>
        <time>2024-08-13T09:42:28Z</time>
      </trkpt>
      <trkpt lat="44.8257" lon="6.14475">
        <ele>1041.4</ele>
        <time>2024-08-13T09:42:29Z</time>
      </trkpt>
      <trkpt lat="44.8257" lon="6.14475">
        <ele>1041.4</ele>
        <time>2024-08-13T09:42:30Z</time>
      </trkpt>
      <trkpt lat="44.8257" lon="6.14475">
        <ele>1041.6</ele>
        <time>2024-08-13T09:42:31Z</time>
      </trkpt>
      <trkpt lat="44.8257" lon="6.14475">
        <ele>1041.8</ele>
        <time>2024-08-13T09:42:32Z</time>
      </trkpt>
      <trkpt lat="44.8257" lon="6.14475">
        <ele>1041.8</ele>
        <time>2024-08-13T09:42:33Z</time>
      </trkpt>
      <trkpt lat="44.82571" lon="6.14472">
        <ele>1042</ele>
        <time>2024-08-13T09:42:34Z</time>
      </trkpt>
      <trkpt lat="44.82571" lon="6.14472">
        <ele>1042.4</ele>
        <time>2024-08-13T09:42:35Z</time>
      </trkpt>
      <trkpt lat="44.82572" lon="6.14468">
        <ele>1042.6</ele>
        <time>2024-08-13T09:42:36Z</time>
      </trkpt>
      <trkpt lat="44.82572" lon="6.14468">
        <ele>1042.6</ele>
        <time>2024-08-13T09:42:37Z</time>
      </trkpt>
      <trkpt lat="44.82573" lon="6.14463">
        <ele>1042.8</ele>
        <time>2024-08-13T09:42:38Z</time>
      </trkpt>
      <trkpt lat="44.82573" lon="6.14463">
        <ele>1042.8</ele>
        <time>2024-08-13T09:42:39Z</time>
      </trkpt>
      <trkpt lat="44.82575" lon="6.14461">
        <ele>1042.6</ele>
        <time>2024-08-13T09:42:40Z</time>
      </trkpt>
      <trkpt lat="44.82575" lon="6.14461">
        <ele>1042.6</ele>
        <time>2024-08-13T09:42:41Z</time>
      </trkpt>
      <trkpt lat="44.82578" lon="6.14461">
        <ele>1042.4</ele>
        <time>2024-08-13T09:42:42Z</time>
      </trkpt>
      <trkpt lat="44.82578" lon="6.14461">
        <ele>1042.4</ele>
        <time>2024-08-13T09:42:43Z</time>
      </trkpt>
      <trkpt lat="44.8258" lon="6.14461">
        <ele>1042.4</ele>
        <time>2024-08-13T09:42:44Z</time>
      </trkpt>
      <trkpt lat="44.8258" lon="6.14461">
        <ele>1042.6</ele>
        <time>2024-08-13T09:42:45Z</time>
      </trkpt>
      <trkpt lat="44.8258" lon="6.14461">
        <ele>1043</ele>
        <time>2024-08-13T09:42:46Z</time>
      </trkpt>
      <trkpt lat="44.82578" lon="6.1446">
        <ele>1043.2</ele>
        <time>2024-08-13T09:42:47Z</time>
      </trkpt>
      <trkpt lat="44.82578" lon="6.1446">
        <ele>1043.2</ele>
        <time>2024-08-13T09:42:48Z</time>
      </trkpt>
      <trkpt lat="44.82575" lon="6.14458">
        <ele>1043</ele>
        <time>2024-08-13T09:42:49Z</time>
      </trkpt>
      <trkpt lat="44.82575" lon="6.14458">
        <ele>1043</ele>
        <time>2024-08-13T09:42:50Z</time>
      </trkpt>
      <trkpt lat="44.82574" lon="6.14454">
        <ele>1042.6</ele>
        <time>2024-08-13T09:42:51Z</time>
      </trkpt>
      <trkpt lat="44.82574" lon="6.14454">
        <ele>1042.2</ele>
        <time>2024-08-13T09:42:52Z</time>
      </trkpt>
      <trkpt lat="44.82573" lon="6.1445">
        <ele>1042</ele>
        <time>2024-08-13T09:42:53Z</time>
      </trkpt>
      <trkpt lat="44.82573" lon="6.1445">
        <ele>1041.8</ele>
        <time>2024-08-13T09:42:54Z</time>
      </trkpt>
      <trkpt lat="44.82573" lon="6.14447">
        <ele>1041.6</ele>
        <time>2024-08-13T09:42:55Z</time>
      </trkpt>
      <trkpt lat="44.82573" lon="6.14447">
        <ele>1041.6</ele>
        <time>2024-08-13T09:42:56Z</time>
      </trkpt>
      <trkpt lat="44.82573" lon="6.14443">
        <ele>1041.4</ele>
        <time>2024-08-13T09:42:57Z</time>
      </trkpt>
      <trkpt lat="44.82573" lon="6.14443">
        <ele>1041.2</ele>
        <time>2024-08-13T09:42:58Z</time>
      </trkpt>
      <trkpt lat="44.82572" lon="6.14439">
        <ele>1041.2</ele>
        <time>2024-08-13T09:42:59Z</time>
      </trkpt>
      <trkpt lat="44.82572" lon="6.14439">
        <ele>1041.6</ele>
        <time>2024-08-13T09:43:00Z</time>
      </trkpt>
      <trkpt lat="44.82572" lon="6.14435">
        <ele>1041.6</ele>
        <time>2024-08-13T09:43:01Z</time>
      </trkpt>
      <trkpt lat="44.82572" lon="6.14435">
        <ele>1041.8</ele>
        <time>2024-08-13T09:43:02Z</time>
      </trkpt>
      <trkpt lat="44.82572" lon="6.14431">
        <ele>1041.8</ele>
        <time>2024-08-13T09:43:03Z</time>
      </trkpt>
      <trkpt lat="44.82572" lon="6.14431">
        <ele>1042</ele>
        <time>2024-08-13T09:43:04Z</time>
      </trkpt>
      <trkpt lat="44.82572" lon="6.14426">
        <ele>1042</ele>
        <time>2024-08-13T09:43:05Z</time>
      </trkpt>
      <trkpt lat="44.82572" lon="6.14426">
        <ele>1042</ele>
        <time>2024-08-13T09:43:06Z</time>
      </trkpt>
      <trkpt lat="44.82571" lon="6.14422">
        <ele>1042.2</ele>
        <time>2024-08-13T09:43:07Z</time>
      </trkpt>
      <trkpt lat="44.82571" lon="6.14422">
        <ele>1042.4</ele>
        <time>2024-08-13T09:43:08Z</time>
      </trkpt>
      <trkpt lat="44.8257" lon="6.14418">
        <ele>1042.6</ele>
        <time>2024-08-13T09:43:09Z</time>
      </trkpt>
      <trkpt lat="44.8257" lon="6.14418">
        <ele>1042.8</ele>
        <time>2024-08-13T09:43:10Z</time>
      </trkpt>
      <trkpt lat="44.82569" lon="6.14415">
        <ele>1043</ele>
        <time>2024-08-13T09:43:11Z</time>
      </trkpt>
      <trkpt lat="44.82569" lon="6.14415">
        <ele>1042.8</ele>
        <time>2024-08-13T09:43:12Z</time>
      </trkpt>
      <trkpt lat="44.82569" lon="6.14411">
        <ele>1043</ele>
        <time>2024-08-13T09:43:13Z</time>
      </trkpt>
      <trkpt lat="44.82569" lon="6.14411">
        <ele>1043.2</ele>
        <time>2024-08-13T09:43:14Z</time>
      </trkpt>
      <trkpt lat="44.82569" lon="6.14406">
        <ele>1043.6</ele>
        <time>2024-08-13T09:43:15Z</time>
      </trkpt>
      <trkpt lat="44.82569" lon="6.14406">
        <ele>1043.6</ele>
        <time>2024-08-13T09:43:16Z</time>
      </trkpt>
      <trkpt lat="44.82568" lon="6.14402">
        <ele>1043.6</ele>
        <time>2024-08-13T09:43:17Z</time>
      </trkpt>
      <trkpt lat="44.82568" lon="6.14402">
        <ele>1043.4</ele>
        <time>2024-08-13T09:43:18Z</time>
      </trkpt>
      <trkpt lat="44.82567" lon="6.14398">
        <ele>1043.6</ele>
        <time>2024-08-13T09:43:19Z</time>
      </trkpt>
      <trkpt lat="44.82567" lon="6.14398">
        <ele>1043.4</ele>
        <time>2024-08-13T09:43:20Z</time>
      </trkpt>
      <trkpt lat="44.82566" lon="6.14395">
        <ele>1043.4</ele>
        <time>2024-08-13T09:43:21Z</time>
      </trkpt>
      <trkpt lat="44.82566" lon="6.14395">
        <ele>1043.4</ele>
        <time>2024-08-13T09:43:22Z</time>
      </trkpt>
      <trkpt lat="44.82565" lon="6.14391">
        <ele>1043.4</ele>
        <time>2024-08-13T09:43:23Z</time>
      </trkpt>
      <trkpt lat="44.82565" lon="6.14391">
        <ele>1043.4</ele>
        <time>2024-08-13T09:43:24Z</time>
      </trkpt>
      <trkpt lat="44.82564" lon="6.14388">
        <ele>1043.4</ele>
        <time>2024-08-13T09:43:25Z</time>
      </trkpt>
      <trkpt lat="44.82564" lon="6.14388">
        <ele>1043.4</ele>
        <time>2024-08-13T09:43:26Z</time>
      </trkpt>
      <trkpt lat="44.82564" lon="6.14383">
        <ele>1043.4</ele>
        <time>2024-08-13T09:43:27Z</time>
      </trkpt>
      <trkpt lat="44.82564" lon="6.14383">
        <ele>1043.4</ele>
        <time>2024-08-13T09:43:28Z</time>
      </trkpt>
      <trkpt lat="44.82565" lon="6.14379">
        <ele>1043.6</ele>
        <time>2024-08-13T09:43:29Z</time>
      </trkpt>
      <trkpt lat="44.82565" lon="6.14379">
        <ele>1043.6</ele>
        <time>2024-08-13T09:43:30Z</time>
      </trkpt>
      <trkpt lat="44.82566" lon="6.14378">
        <ele>1043.8</ele>
        <time>2024-08-13T09:43:31Z</time>
      </trkpt>
      <trkpt lat="44.82566" lon="6.14378">
        <ele>1043.8</ele>
        <time>2024-08-13T09:43:32Z</time>
      </trkpt>
      <trkpt lat="44.82569" lon="6.1438">
        <ele>1043.8</ele>
        <time>2024-08-13T09:43:33Z</time>
      </trkpt>
      <trkpt lat="44.82569" lon="6.1438">
        <ele>1044</ele>
        <time>2024-08-13T09:43:34Z</time>
      </trkpt>
      <trkpt lat="44.82572" lon="6.14383">
        <ele>1044.4</ele>
        <time>2024-08-13T09:43:35Z</time>
      </trkpt>
      <trkpt lat="44.82572" lon="6.14383">
        <ele>1044.4</ele>
        <time>2024-08-13T09:43:36Z</time>
      </trkpt>
      <trkpt lat="44.82574" lon="6.14385">
        <ele>1044.4</ele>
        <time>2024-08-13T09:43:37Z</time>
      </trkpt>
      <trkpt lat="44.82574" lon="6.14385">
        <ele>1044.6</ele>
        <time>2024-08-13T09:43:38Z</time>
      </trkpt>
      <trkpt lat="44.82575" lon="6.14388">
        <ele>1044.8</ele>
        <time>2024-08-13T09:43:39Z</time>
      </trkpt>
      <trkpt lat="44.82575" lon="6.14388">
        <ele>1045</ele>
        <time>2024-08-13T09:43:40Z</time>
      </trkpt>
      <trkpt lat="44.82577" lon="6.14391">
        <ele>1045</ele>
        <time>2024-08-13T09:43:41Z</time>
      </trkpt>
      <trkpt lat="44.82577" lon="6.14391">
        <ele>1045.2</ele>
        <time>2024-08-13T09:43:42Z</time>
      </trkpt>
      <trkpt lat="44.82579" lon="6.14394">
        <ele>1045.4</ele>
        <time>2024-08-13T09:43:43Z</time>
      </trkpt>
      <trkpt lat="44.82579" lon="6.14394">
        <ele>1045.6</ele>
        <time>2024-08-13T09:43:44Z</time>
      </trkpt>
      <trkpt lat="44.82581" lon="6.14397">
        <ele>1045.8</ele>
        <time>2024-08-13T09:43:45Z</time>
      </trkpt>
      <trkpt lat="44.82581" lon="6.14397">
        <ele>1045.8</ele>
        <time>2024-08-13T09:43:46Z</time>
      </trkpt>
      <trkpt lat="44.82582" lon="6.144">
        <ele>1046</ele>
        <time>2024-08-13T09:43:47Z</time>
      </trkpt>
      <trkpt lat="44.82582" lon="6.144">
        <ele>1046.4</ele>
        <time>2024-08-13T09:43:48Z</time>
      </trkpt>
      <trkpt lat="44.82584" lon="6.14403">
        <ele>1046.8</ele>
        <time>2024-08-13T09:43:49Z</time>
      </trkpt>
      <trkpt lat="44.82584" lon="6.14403">
        <ele>1047.2</ele>
        <time>2024-08-13T09:43:50Z</time>
      </trkpt>
      <trkpt lat="44.82585" lon="6.14407">
        <ele>1047.2</ele>
        <time>2024-08-13T09:43:51Z</time>
      </trkpt>
      <trkpt lat="44.82585" lon="6.14407">
        <ele>1047.4</ele>
        <time>2024-08-13T09:43:52Z</time>
      </trkpt>
      <trkpt lat="44.82587" lon="6.14409">
        <ele>1047.4</ele>
        <time>2024-08-13T09:43:53Z</time>
      </trkpt>
      <trkpt lat="44.82587" lon="6.14409">
        <ele>1047.8</ele>
        <time>2024-08-13T09:43:54Z</time>
      </trkpt>
      <trkpt lat="44.82589" lon="6.14412">
        <ele>1048</ele>
        <time>2024-08-13T09:43:55Z</time>
      </trkpt>
      <trkpt lat="44.82589" lon="6.14412">
        <ele>1048</ele>
        <time>2024-08-13T09:43:56Z</time>
      </trkpt>
      <trkpt lat="44.8259" lon="6.14415">
        <ele>1048</ele>
        <time>2024-08-13T09:43:57Z</time>
      </trkpt>
      <trkpt lat="44.82592" lon="6.14417">
        <ele>1048</ele>
        <time>2024-08-13T09:43:58Z</time>
      </trkpt>
      <trkpt lat="44.82592" lon="6.14417">
        <ele>1048</ele>
        <time>2024-08-13T09:43:59Z</time>
      </trkpt>
      <trkpt lat="44.82594" lon="6.14419">
        <ele>1048</ele>
        <time>2024-08-13T09:44:00Z</time>
      </trkpt>
      <trkpt lat="44.82594" lon="6.14419">
        <ele>1048</ele>
        <time>2024-08-13T09:44:01Z</time>
      </trkpt>
      <trkpt lat="44.82596" lon="6.14421">
        <ele>1048</ele>
        <time>2024-08-13T09:44:02Z</time>
      </trkpt>
      <trkpt lat="44.82596" lon="6.14421">
        <ele>1048</ele>
        <time>2024-08-13T09:44:03Z</time>
      </trkpt>
      <trkpt lat="44.82597" lon="6.14423">
        <ele>1048</ele>
        <time>2024-08-13T09:44:04Z</time>
      </trkpt>
      <trkpt lat="44.82597" lon="6.14423">
        <ele>1048</ele>
        <time>2024-08-13T09:44:05Z</time>
      </trkpt>
      <trkpt lat="44.82598" lon="6.14426">
        <ele>1048</ele>
        <time>2024-08-13T09:44:06Z</time>
      </trkpt>
      <trkpt lat="44.82598" lon="6.14426">
        <ele>1048.2</ele>
        <time>2024-08-13T09:44:07Z</time>
      </trkpt>
      <trkpt lat="44.826" lon="6.14429">
        <ele>1048.2</ele>
        <time>2024-08-13T09:44:08Z</time>
      </trkpt>
      <trkpt lat="44.826" lon="6.14429">
        <ele>1048.4</ele>
        <time>2024-08-13T09:44:09Z</time>
      </trkpt>
      <trkpt lat="44.82602" lon="6.14432">
        <ele>1048.4</ele>
        <time>2024-08-13T09:44:10Z</time>
      </trkpt>
      <trkpt lat="44.82602" lon="6.14432">
        <ele>1048.4</ele>
        <time>2024-08-13T09:44:11Z</time>
      </trkpt>
      <trkpt lat="44.82603" lon="6.14435">
        <ele>1048.4</ele>
        <time>2024-08-13T09:44:12Z</time>
      </trkpt>
      <trkpt lat="44.82603" lon="6.14435">
        <ele>1048.2</ele>
        <time>2024-08-13T09:44:13Z</time>
      </trkpt>
      <trkpt lat="44.82605" lon="6.14437">
        <ele>1048.2</ele>
        <time>2024-08-13T09:44:14Z</time>
      </trkpt>
      <trkpt lat="44.82605" lon="6.14437">
        <ele>1048.6</ele>
        <time>2024-08-13T09:44:15Z</time>
      </trkpt>
      <trkpt lat="44.82607" lon="6.14438">
        <ele>1048.6</ele>
        <time>2024-08-13T09:44:16Z</time>
      </trkpt>
      <trkpt lat="44.82607" lon="6.14438">
        <ele>1048.8</ele>
        <time>2024-08-13T09:44:17Z</time>
      </trkpt>
      <trkpt lat="44.8261" lon="6.14439">
        <ele>1048.8</ele>
        <time>2024-08-13T09:44:18Z</time>
      </trkpt>
      <trkpt lat="44.8261" lon="6.14439">
        <ele>1048.8</ele>
        <time>2024-08-13T09:44:19Z</time>
      </trkpt>
      <trkpt lat="44.82612" lon="6.14441">
        <ele>1049</ele>
        <time>2024-08-13T09:44:20Z</time>
      </trkpt>
      <trkpt lat="44.82612" lon="6.14441">
        <ele>1049</ele>
        <time>2024-08-13T09:44:21Z</time>
      </trkpt>
      <trkpt lat="44.82614" lon="6.14443">
        <ele>1049.2</ele>
        <time>2024-08-13T09:44:22Z</time>
      </trkpt>
      <trkpt lat="44.82614" lon="6.14443">
        <ele>1049.2</ele>
        <time>2024-08-13T09:44:23Z</time>
      </trkpt>
      <trkpt lat="44.82616" lon="6.14446">
        <ele>1049.4</ele>
        <time>2024-08-13T09:44:24Z</time>
      </trkpt>
      <trkpt lat="44.82617" lon="6.14447">
        <ele>1049.6</ele>
        <time>2024-08-13T09:44:25Z</time>
      </trkpt>
      <trkpt lat="44.82617" lon="6.14447">
        <ele>1049.6</ele>
        <time>2024-08-13T09:44:26Z</time>
      </trkpt>
      <trkpt lat="44.82619" lon="6.14449">
        <ele>1049.8</ele>
        <time>2024-08-13T09:44:27Z</time>
      </trkpt>
      <trkpt lat="44.82619" lon="6.14449">
        <ele>1049.8</ele>
        <time>2024-08-13T09:44:28Z</time>
      </trkpt>
      <trkpt lat="44.82622" lon="6.14449">
        <ele>1049.8</ele>
        <time>2024-08-13T09:44:29Z</time>
      </trkpt>
      <trkpt lat="44.82622" lon="6.14449">
        <ele>1049.8</ele>
        <time>2024-08-13T09:44:30Z</time>
      </trkpt>
      <trkpt lat="44.82624" lon="6.1445">
        <ele>1050</ele>
        <time>2024-08-13T09:44:31Z</time>
      </trkpt>
      <trkpt lat="44.82624" lon="6.1445">
        <ele>1050.2</ele>
        <time>2024-08-13T09:44:32Z</time>
      </trkpt>
      <trkpt lat="44.82627" lon="6.1445">
        <ele>1050.2</ele>
        <time>2024-08-13T09:44:33Z</time>
      </trkpt>
      <trkpt lat="44.82627" lon="6.1445">
        <ele>1050.4</ele>
        <time>2024-08-13T09:44:34Z</time>
      </trkpt>
      <trkpt lat="44.82629" lon="6.14449">
        <ele>1050.4</ele>
        <time>2024-08-13T09:44:35Z</time>
      </trkpt>
      <trkpt lat="44.82629" lon="6.14449">
        <ele>1050.4</ele>
        <time>2024-08-13T09:44:36Z</time>
      </trkpt>
      <trkpt lat="44.82632" lon="6.14449">
        <ele>1050.4</ele>
        <time>2024-08-13T09:44:37Z</time>
      </trkpt>
      <trkpt lat="44.82632" lon="6.14449">
        <ele>1050.4</ele>
        <time>2024-08-13T09:44:38Z</time>
      </trkpt>
      <trkpt lat="44.82634" lon="6.1445">
        <ele>1050.6</ele>
        <time>2024-08-13T09:44:39Z</time>
      </trkpt>
      <trkpt lat="44.82634" lon="6.1445">
        <ele>1050.6</ele>
        <time>2024-08-13T09:44:40Z</time>
      </trkpt>
      <trkpt lat="44.82634" lon="6.1445">
        <ele>1050.8</ele>
        <time>2024-08-13T09:44:41Z</time>
      </trkpt>
      <trkpt lat="44.82636" lon="6.14452">
        <ele>1051</ele>
        <time>2024-08-13T09:44:42Z</time>
      </trkpt>
      <trkpt lat="44.82636" lon="6.14452">
        <ele>1051</ele>
        <time>2024-08-13T09:44:43Z</time>
      </trkpt>
      <trkpt lat="44.82636" lon="6.14452">
        <ele>1051</ele>
        <time>2024-08-13T09:44:44Z</time>
      </trkpt>
      <trkpt lat="44.82636" lon="6.14452">
        <ele>1051.2</ele>
        <time>2024-08-13T09:44:45Z</time>
      </trkpt>
      <trkpt lat="44.82636" lon="6.14452">
        <ele>1051.2</ele>
        <time>2024-08-13T09:44:46Z</time>
      </trkpt>
      <trkpt lat="44.82636" lon="6.14452">
        <ele>1051.2</ele>
        <time>2024-08-13T09:44:47Z</time>
      </trkpt>
      <trkpt lat="44.82636" lon="6.14452">
        <ele>1051.4</ele>
        <time>2024-08-13T09:44:48Z</time>
      </trkpt>
      <trkpt lat="44.82636" lon="6.14452">
        <ele>1051.4</ele>
        <time>2024-08-13T09:44:49Z</time>
      </trkpt>
      <trkpt lat="44.82636" lon="6.14452">
        <ele>1051.2</ele>
        <time>2024-08-13T09:44:50Z</time>
      </trkpt>
      <trkpt lat="44.82636" lon="6.14452">
        <ele>1051.2</ele>
        <time>2024-08-13T09:44:51Z</time>
      </trkpt>
      <trkpt lat="44.82636" lon="6.14452">
        <ele>1051.2</ele>
        <time>2024-08-13T09:44:52Z</time>
      </trkpt>
      <trkpt lat="44.82636" lon="6.14452">
        <ele>1051.2</ele>
        <time>2024-08-13T09:44:53Z</time>
      </trkpt>
      <trkpt lat="44.82636" lon="6.14452">
        <ele>1051.2</ele>
        <time>2024-08-13T09:44:54Z</time>
      </trkpt>
      <trkpt lat="44.82636" lon="6.14452">
        <ele>1051.2</ele>
        <time>2024-08-13T09:44:55Z</time>
      </trkpt>
      <trkpt lat="44.82636" lon="6.14452">
        <ele>1051.2</ele>
        <time>2024-08-13T09:44:56Z</time>
      </trkpt>
      <trkpt lat="44.82636" lon="6.14452">
        <ele>1051.2</ele>
        <time>2024-08-13T09:44:57Z</time>
      </trkpt>
      <trkpt lat="44.82636" lon="6.14452">
        <ele>1051.4</ele>
        <time>2024-08-13T09:44:58Z</time>
      </trkpt>
      <trkpt lat="44.82636" lon="6.14452">
        <ele>1051.2</ele>
        <time>2024-08-13T09:44:59Z</time>
      </trkpt>
      <trkpt lat="44.82636" lon="6.14452">
        <ele>1051</ele>
        <time>2024-08-13T09:45:00Z</time>
      </trkpt>
      <trkpt lat="44.82636" lon="6.14452">
        <ele>1051</ele>
        <time>2024-08-13T09:45:01Z</time>
      </trkpt>
      <trkpt lat="44.82636" lon="6.14452">
        <ele>1051</ele>
        <time>2024-08-13T09:45:02Z</time>
      </trkpt>
      <trkpt lat="44.82636" lon="6.14452">
        <ele>1051</ele>
        <time>2024-08-13T09:45:03Z</time>
      </trkpt>
      <trkpt lat="44.82636" lon="6.14452">
        <ele>1051</ele>
        <time>2024-08-13T09:45:04Z</time>
      </trkpt>
      <trkpt lat="44.82636" lon="6.14452">
        <ele>1051</ele>
        <time>2024-08-13T09:45:05Z</time>
      </trkpt>
      <trkpt lat="44.82636" lon="6.14452">
        <ele>1051</ele>
        <time>2024-08-13T09:45:06Z</time>
      </trkpt>
      <trkpt lat="44.82636" lon="6.14452">
        <ele>1051.2</ele>
        <time>2024-08-13T09:45:07Z</time>
      </trkpt>
      <trkpt lat="44.82637" lon="6.14451">
        <ele>1051.4</ele>
        <time>2024-08-13T09:45:08Z</time>
      </trkpt>
      <trkpt lat="44.82639" lon="6.14449">
        <ele>1051.6</ele>
        <time>2024-08-13T09:45:09Z</time>
      </trkpt>
      <trkpt lat="44.82639" lon="6.14449">
        <ele>1051.6</ele>
        <time>2024-08-13T09:45:10Z</time>
      </trkpt>
      <trkpt lat="44.82642" lon="6.14447">
        <ele>1051.6</ele>
        <time>2024-08-13T09:45:11Z</time>
      </trkpt>
      <trkpt lat="44.82644" lon="6.14446">
        <ele>1051.6</ele>
        <time>2024-08-13T09:45:12Z</time>
      </trkpt>
      <trkpt lat="44.82644" lon="6.14446">
        <ele>1051.6</ele>
        <time>2024-08-13T09:45:13Z</time>
      </trkpt>
      <trkpt lat="44.82647" lon="6.14445">
        <ele>1051.8</ele>
        <time>2024-08-13T09:45:14Z</time>
      </trkpt>
      <trkpt lat="44.82647" lon="6.14445">
        <ele>1052.2</ele>
        <time>2024-08-13T09:45:15Z</time>
      </trkpt>
      <trkpt lat="44.8265" lon="6.14444">
        <ele>1052.2</ele>
        <time>2024-08-13T09:45:16Z</time>
      </trkpt>
      <trkpt lat="44.8265" lon="6.14444">
        <ele>1052.2</ele>
        <time>2024-08-13T09:45:17Z</time>
      </trkpt>
      <trkpt lat="44.82652" lon="6.14444">
        <ele>1052.6</ele>
        <time>2024-08-13T09:45:18Z</time>
      </trkpt>
      <trkpt lat="44.82652" lon="6.14444">
        <ele>1052.6</ele>
        <time>2024-08-13T09:45:19Z</time>
      </trkpt>
      <trkpt lat="44.82655" lon="6.14444">
        <ele>1052.6</ele>
        <time>2024-08-13T09:45:20Z</time>
      </trkpt>
      <trkpt lat="44.82655" lon="6.14444">
        <ele>1053</ele>
        <time>2024-08-13T09:45:21Z</time>
      </trkpt>
      <trkpt lat="44.82657" lon="6.14444">
        <ele>1053.2</ele>
        <time>2024-08-13T09:45:22Z</time>
      </trkpt>
      <trkpt lat="44.82657" lon="6.14444">
        <ele>1053.2</ele>
        <time>2024-08-13T09:45:23Z</time>
      </trkpt>
      <trkpt lat="44.8266" lon="6.14444">
        <ele>1053.2</ele>
        <time>2024-08-13T09:45:24Z</time>
      </trkpt>
      <trkpt lat="44.8266" lon="6.14444">
        <ele>1053.2</ele>
        <time>2024-08-13T09:45:25Z</time>
      </trkpt>
      <trkpt lat="44.82662" lon="6.14443">
        <ele>1053.2</ele>
        <time>2024-08-13T09:45:26Z</time>
      </trkpt>
      <trkpt lat="44.82662" lon="6.14443">
        <ele>1053.2</ele>
        <time>2024-08-13T09:45:27Z</time>
      </trkpt>
      <trkpt lat="44.82664" lon="6.14444">
        <ele>1053.2</ele>
        <time>2024-08-13T09:45:28Z</time>
      </trkpt>
      <trkpt lat="44.82664" lon="6.14444">
        <ele>1053.4</ele>
        <time>2024-08-13T09:45:29Z</time>
      </trkpt>
      <trkpt lat="44.82667" lon="6.14445">
        <ele>1053.6</ele>
        <time>2024-08-13T09:45:30Z</time>
      </trkpt>
      <trkpt lat="44.82667" lon="6.14445">
        <ele>1053.6</ele>
        <time>2024-08-13T09:45:31Z</time>
      </trkpt>
      <trkpt lat="44.82669" lon="6.14447">
        <ele>1053.6</ele>
        <time>2024-08-13T09:45:32Z</time>
      </trkpt>
      <trkpt lat="44.82669" lon="6.14447">
        <ele>1053.6</ele>
        <time>2024-08-13T09:45:33Z</time>
      </trkpt>
      <trkpt lat="44.82671" lon="6.1445">
        <ele>1053.6</ele>
        <time>2024-08-13T09:45:34Z</time>
      </trkpt>
      <trkpt lat="44.82671" lon="6.1445">
        <ele>1053.6</ele>
        <time>2024-08-13T09:45:35Z</time>
      </trkpt>
      <trkpt lat="44.82673" lon="6.14453">
        <ele>1054</ele>
        <time>2024-08-13T09:45:36Z</time>
      </trkpt>
      <trkpt lat="44.82673" lon="6.14453">
        <ele>1054.2</ele>
        <time>2024-08-13T09:45:37Z</time>
      </trkpt>
      <trkpt lat="44.82673" lon="6.14457">
        <ele>1054.2</ele>
        <time>2024-08-13T09:45:38Z</time>
      </trkpt>
      <trkpt lat="44.82673" lon="6.14457">
        <ele>1054.2</ele>
        <time>2024-08-13T09:45:39Z</time>
      </trkpt>
      <trkpt lat="44.82673" lon="6.14461">
        <ele>1054.2</ele>
        <time>2024-08-13T09:45:40Z</time>
      </trkpt>
      <trkpt lat="44.82673" lon="6.14461">
        <ele>1054.4</ele>
        <time>2024-08-13T09:45:41Z</time>
      </trkpt>
      <trkpt lat="44.82672" lon="6.14464">
        <ele>1054.4</ele>
        <time>2024-08-13T09:45:42Z</time>
      </trkpt>
      <trkpt lat="44.82672" lon="6.14464">
        <ele>1054.4</ele>
        <time>2024-08-13T09:45:43Z</time>
      </trkpt>
      <trkpt lat="44.8267" lon="6.14468">
        <ele>1054.4</ele>
        <time>2024-08-13T09:45:44Z</time>
      </trkpt>
      <trkpt lat="44.8267" lon="6.14468">
        <ele>1054.6</ele>
        <time>2024-08-13T09:45:45Z</time>
      </trkpt>
      <trkpt lat="44.8267" lon="6.14468">
        <ele>1054.6</ele>
        <time>2024-08-13T09:45:46Z</time>
      </trkpt>
      <trkpt lat="44.82669" lon="6.14471">
        <ele>1054.8</ele>
        <time>2024-08-13T09:45:47Z</time>
      </trkpt>
      <trkpt lat="44.82669" lon="6.14471">
        <ele>1054.8</ele>
        <time>2024-08-13T09:45:48Z</time>
      </trkpt>
      <trkpt lat="44.82668" lon="6.14474">
        <ele>1054.8</ele>
        <time>2024-08-13T09:45:49Z</time>
      </trkpt>
      <trkpt lat="44.82668" lon="6.14474">
        <ele>1054.8</ele>
        <time>2024-08-13T09:45:50Z</time>
      </trkpt>
      <trkpt lat="44.82666" lon="6.14477">
        <ele>1055</ele>
        <time>2024-08-13T09:45:51Z</time>
      </trkpt>
      <trkpt lat="44.82666" lon="6.14477">
        <ele>1055</ele>
        <time>2024-08-13T09:45:52Z</time>
      </trkpt>
      <trkpt lat="44.82665" lon="6.1448">
        <ele>1055</ele>
        <time>2024-08-13T09:45:53Z</time>
      </trkpt>
      <trkpt lat="44.82665" lon="6.1448">
        <ele>1054.8</ele>
        <time>2024-08-13T09:45:54Z</time>
      </trkpt>
      <trkpt lat="44.82664" lon="6.14483">
        <ele>1054.8</ele>
        <time>2024-08-13T09:45:55Z</time>
      </trkpt>
      <trkpt lat="44.82664" lon="6.14483">
        <ele>1055</ele>
        <time>2024-08-13T09:45:56Z</time>
      </trkpt>
      <trkpt lat="44.82663" lon="6.14486">
        <ele>1055.4</ele>
        <time>2024-08-13T09:45:57Z</time>
      </trkpt>
      <trkpt lat="44.82663" lon="6.14486">
        <ele>1055.8</ele>
        <time>2024-08-13T09:45:58Z</time>
      </trkpt>
      <trkpt lat="44.8266" lon="6.14488">
        <ele>1055.8</ele>
        <time>2024-08-13T09:45:59Z</time>
      </trkpt>
      <trkpt lat="44.8266" lon="6.14488">
        <ele>1055.8</ele>
        <time>2024-08-13T09:46:00Z</time>
      </trkpt>
      <trkpt lat="44.82658" lon="6.14489">
        <ele>1055.6</ele>
        <time>2024-08-13T09:46:01Z</time>
      </trkpt>
      <trkpt lat="44.82658" lon="6.14489">
        <ele>1055.8</ele>
        <time>2024-08-13T09:46:02Z</time>
      </trkpt>
      <trkpt lat="44.82656" lon="6.14492">
        <ele>1055.8</ele>
        <time>2024-08-13T09:46:03Z</time>
      </trkpt>
      <trkpt lat="44.82656" lon="6.14492">
        <ele>1056</ele>
        <time>2024-08-13T09:46:04Z</time>
      </trkpt>
      <trkpt lat="44.82654" lon="6.14494">
        <ele>1056</ele>
        <time>2024-08-13T09:46:05Z</time>
      </trkpt>
      <trkpt lat="44.82654" lon="6.14494">
        <ele>1056</ele>
        <time>2024-08-13T09:46:06Z</time>
      </trkpt>
      <trkpt lat="44.82652" lon="6.14496">
        <ele>1056</ele>
        <time>2024-08-13T09:46:07Z</time>
      </trkpt>
      <trkpt lat="44.82652" lon="6.14496">
        <ele>1056</ele>
        <time>2024-08-13T09:46:08Z</time>
      </trkpt>
      <trkpt lat="44.8265" lon="6.14498">
        <ele>1056.2</ele>
        <time>2024-08-13T09:46:09Z</time>
      </trkpt>
      <trkpt lat="44.8265" lon="6.14498">
        <ele>1056.4</ele>
        <time>2024-08-13T09:46:10Z</time>
      </trkpt>
      <trkpt lat="44.82647" lon="6.145">
        <ele>1056.6</ele>
        <time>2024-08-13T09:46:11Z</time>
      </trkpt>
      <trkpt lat="44.82647" lon="6.145">
        <ele>1056.8</ele>
        <time>2024-08-13T09:46:12Z</time>
      </trkpt>
      <trkpt lat="44.82646" lon="6.14504">
        <ele>1057</ele>
        <time>2024-08-13T09:46:13Z</time>
      </trkpt>
      <trkpt lat="44.82646" lon="6.14504">
        <ele>1057</ele>
        <time>2024-08-13T09:46:14Z</time>
      </trkpt>
      <trkpt lat="44.82646" lon="6.14507">
        <ele>1057</ele>
        <time>2024-08-13T09:46:15Z</time>
      </trkpt>
      <trkpt lat="44.82646" lon="6.14507">
        <ele>1057</ele>
        <time>2024-08-13T09:46:16Z</time>
      </trkpt>
      <trkpt lat="44.82645" lon="6.1451">
        <ele>1057</ele>
        <time>2024-08-13T09:46:17Z</time>
      </trkpt>
      <trkpt lat="44.82645" lon="6.1451">
        <ele>1057.2</ele>
        <time>2024-08-13T09:46:18Z</time>
      </trkpt>
      <trkpt lat="44.82646" lon="6.14513">
        <ele>1057.2</ele>
        <time>2024-08-13T09:46:19Z</time>
      </trkpt>
      <trkpt lat="44.82646" lon="6.14513">
        <ele>1057.4</ele>
        <time>2024-08-13T09:46:20Z</time>
      </trkpt>
      <trkpt lat="44.82646" lon="6.14513">
        <ele>1057.4</ele>
        <time>2024-08-13T09:46:21Z</time>
      </trkpt>
      <trkpt lat="44.82646" lon="6.14513">
        <ele>1057.4</ele>
        <time>2024-08-13T09:46:22Z</time>
      </trkpt>
      <trkpt lat="44.82646" lon="6.14513">
        <ele>1057.4</ele>
        <time>2024-08-13T09:46:23Z</time>
      </trkpt>
      <trkpt lat="44.82646" lon="6.14513">
        <ele>1057.6</ele>
        <time>2024-08-13T09:46:24Z</time>
      </trkpt>
      <trkpt lat="44.82646" lon="6.14513">
        <ele>1057.6</ele>
        <time>2024-08-13T09:46:25Z</time>
      </trkpt>
      <trkpt lat="44.82646" lon="6.14513">
        <ele>1057.6</ele>
        <time>2024-08-13T09:46:26Z</time>
      </trkpt>
      <trkpt lat="44.82646" lon="6.14513">
        <ele>1057.4</ele>
        <time>2024-08-13T09:46:27Z</time>
      </trkpt>
      <trkpt lat="44.82646" lon="6.14513">
        <ele>1057.4</ele>
        <time>2024-08-13T09:46:28Z</time>
      </trkpt>
      <trkpt lat="44.82646" lon="6.14513">
        <ele>1057.4</ele>
        <time>2024-08-13T09:46:29Z</time>
      </trkpt>
      <trkpt lat="44.82646" lon="6.14513">
        <ele>1057.4</ele>
        <time>2024-08-13T09:46:30Z</time>
      </trkpt>
      <trkpt lat="44.82646" lon="6.14513">
        <ele>1057</ele>
        <time>2024-08-13T09:46:31Z</time>
      </trkpt>
      <trkpt lat="44.82646" lon="6.14513">
        <ele>1057</ele>
        <time>2024-08-13T09:46:32Z</time>
      </trkpt>
      <trkpt lat="44.82646" lon="6.14513">
        <ele>1057.2</ele>
        <time>2024-08-13T09:46:33Z</time>
      </trkpt>
      <trkpt lat="44.82646" lon="6.14513">
        <ele>1057.2</ele>
        <time>2024-08-13T09:46:34Z</time>
      </trkpt>
      <trkpt lat="44.82646" lon="6.14513">
        <ele>1057.2</ele>
        <time>2024-08-13T09:46:35Z</time>
      </trkpt>
      <trkpt lat="44.82646" lon="6.14513">
        <ele>1057.2</ele>
        <time>2024-08-13T09:46:36Z</time>
      </trkpt>
      <trkpt lat="44.82646" lon="6.14513">
        <ele>1057.2</ele>
        <time>2024-08-13T09:46:37Z</time>
      </trkpt>
      <trkpt lat="44.82646" lon="6.14513">
        <ele>1057.4</ele>
        <time>2024-08-13T09:46:38Z</time>
      </trkpt>
      <trkpt lat="44.82646" lon="6.14513">
        <ele>1057.4</ele>
        <time>2024-08-13T09:46:39Z</time>
      </trkpt>
      <trkpt lat="44.82646" lon="6.14513">
        <ele>1057.4</ele>
        <time>2024-08-13T09:46:40Z</time>
      </trkpt>
      <trkpt lat="44.82646" lon="6.14513">
        <ele>1057.6</ele>
        <time>2024-08-13T09:46:41Z</time>
      </trkpt>
      <trkpt lat="44.82646" lon="6.14513">
        <ele>1057.6</ele>
        <time>2024-08-13T09:46:42Z</time>
      </trkpt>
      <trkpt lat="44.82646" lon="6.14513">
        <ele>1057.4</ele>
        <time>2024-08-13T09:46:43Z</time>
      </trkpt>
      <trkpt lat="44.82645" lon="6.14515">
        <ele>1057.4</ele>
        <time>2024-08-13T09:46:44Z</time>
      </trkpt>
      <trkpt lat="44.82645" lon="6.14515">
        <ele>1057.6</ele>
        <time>2024-08-13T09:46:45Z</time>
      </trkpt>
      <trkpt lat="44.82642" lon="6.14518">
        <ele>1057.6</ele>
        <time>2024-08-13T09:46:46Z</time>
      </trkpt>
      <trkpt lat="44.82642" lon="6.14518">
        <ele>1057.8</ele>
        <time>2024-08-13T09:46:47Z</time>
      </trkpt>
      <trkpt lat="44.8264" lon="6.14521">
        <ele>1057.8</ele>
        <time>2024-08-13T09:46:48Z</time>
      </trkpt>
      <trkpt lat="44.8264" lon="6.14521">
        <ele>1057.8</ele>
        <time>2024-08-13T09:46:49Z</time>
      </trkpt>
      <trkpt lat="44.82638" lon="6.14524">
        <ele>1058</ele>
        <time>2024-08-13T09:46:50Z</time>
      </trkpt>
      <trkpt lat="44.82638" lon="6.14524">
        <ele>1058.2</ele>
        <time>2024-08-13T09:46:51Z</time>
      </trkpt>
      <trkpt lat="44.82638" lon="6.14524">
        <ele>1058.8</ele>
        <time>2024-08-13T09:46:52Z</time>
      </trkpt>
      <trkpt lat="44.82638" lon="6.14527">
        <ele>1059</ele>
        <time>2024-08-13T09:46:53Z</time>
      </trkpt>
      <trkpt lat="44.82638" lon="6.14527">
        <ele>1059</ele>
        <time>2024-08-13T09:46:54Z</time>
      </trkpt>
      <trkpt lat="44.82638" lon="6.1453">
        <ele>1059.2</ele>
        <time>2024-08-13T09:46:55Z</time>
      </trkpt>
      <trkpt lat="44.82638" lon="6.1453">
        <ele>1059.2</ele>
        <time>2024-08-13T09:46:56Z</time>
      </trkpt>
      <trkpt lat="44.82638" lon="6.14534">
        <ele>1059.4</ele>
        <time>2024-08-13T09:46:57Z</time>
      </trkpt>
      <trkpt lat="44.82638" lon="6.14534">
        <ele>1059.4</ele>
        <time>2024-08-13T09:46:58Z</time>
      </trkpt>
      <trkpt lat="44.82638" lon="6.14537">
        <ele>1059.8</ele>
        <time>2024-08-13T09:46:59Z</time>
      </trkpt>
      <trkpt lat="44.82638" lon="6.14537">
        <ele>1060.4</ele>
        <time>2024-08-13T09:47:00Z</time>
      </trkpt>
      <trkpt lat="44.82636" lon="6.14539">
        <ele>1060.4</ele>
        <time>2024-08-13T09:47:01Z</time>
      </trkpt>
      <trkpt lat="44.82636" lon="6.14539">
        <ele>1060.8</ele>
        <time>2024-08-13T09:47:02Z</time>
      </trkpt>
      <trkpt lat="44.82635" lon="6.14542">
        <ele>1060.8</ele>
        <time>2024-08-13T09:47:03Z</time>
      </trkpt>
      <trkpt lat="44.82635" lon="6.14542">
        <ele>1060.8</ele>
        <time>2024-08-13T09:47:04Z</time>
      </trkpt>
      <trkpt lat="44.82634" lon="6.14544">
        <ele>1061</ele>
        <time>2024-08-13T09:47:05Z</time>
      </trkpt>
      <trkpt lat="44.82634" lon="6.14544">
        <ele>1061.2</ele>
        <time>2024-08-13T09:47:06Z</time>
      </trkpt>
      <trkpt lat="44.82632" lon="6.14546">
        <ele>1061.4</ele>
        <time>2024-08-13T09:47:07Z</time>
      </trkpt>
      <trkpt lat="44.82632" lon="6.14546">
        <ele>1061.6</ele>
        <time>2024-08-13T09:47:08Z</time>
      </trkpt>
      <trkpt lat="44.82632" lon="6.14546">
        <ele>1061.6</ele>
        <time>2024-08-13T09:47:09Z</time>
      </trkpt>
      <trkpt lat="44.82631" lon="6.14548">
        <ele>1061.8</ele>
        <time>2024-08-13T09:47:10Z</time>
      </trkpt>
      <trkpt lat="44.82631" lon="6.14548">
        <ele>1062</ele>
        <time>2024-08-13T09:47:11Z</time>
      </trkpt>
      <trkpt lat="44.82629" lon="6.14549">
        <ele>1062.2</ele>
        <time>2024-08-13T09:47:12Z</time>
      </trkpt>
      <trkpt lat="44.82629" lon="6.14549">
        <ele>1062.4</ele>
        <time>2024-08-13T09:47:13Z</time>
      </trkpt>
      <trkpt lat="44.82629" lon="6.14552">
        <ele>1062.6</ele>
        <time>2024-08-13T09:47:14Z</time>
      </trkpt>
      <trkpt lat="44.82629" lon="6.14552">
        <ele>1062.8</ele>
        <time>2024-08-13T09:47:15Z</time>
      </trkpt>
      <trkpt lat="44.82627" lon="6.14554">
        <ele>1062.8</ele>
        <time>2024-08-13T09:47:16Z</time>
      </trkpt>
      <trkpt lat="44.82627" lon="6.14554">
        <ele>1063</ele>
        <time>2024-08-13T09:47:17Z</time>
      </trkpt>
      <trkpt lat="44.82626" lon="6.14556">
        <ele>1063</ele>
        <time>2024-08-13T09:47:18Z</time>
      </trkpt>
      <trkpt lat="44.82626" lon="6.14556">
        <ele>1063.4</ele>
        <time>2024-08-13T09:47:19Z</time>
      </trkpt>
      <trkpt lat="44.82624" lon="6.14558">
        <ele>1063.6</ele>
        <time>2024-08-13T09:47:20Z</time>
      </trkpt>
      <trkpt lat="44.82624" lon="6.14558">
        <ele>1063.8</ele>
        <time>2024-08-13T09:47:21Z</time>
      </trkpt>
      <trkpt lat="44.82622" lon="6.14559">
        <ele>1063.8</ele>
        <time>2024-08-13T09:47:22Z</time>
      </trkpt>
      <trkpt lat="44.82622" lon="6.14559">
        <ele>1064</ele>
        <time>2024-08-13T09:47:23Z</time>
      </trkpt>
      <trkpt lat="44.8262" lon="6.1456">
        <ele>1064.2</ele>
        <time>2024-08-13T09:47:24Z</time>
      </trkpt>
      <trkpt lat="44.8262" lon="6.1456">
        <ele>1064.4</ele>
        <time>2024-08-13T09:47:25Z</time>
      </trkpt>
      <trkpt lat="44.82618" lon="6.1456">
        <ele>1064.4</ele>
        <time>2024-08-13T09:47:26Z</time>
      </trkpt>
      <trkpt lat="44.82618" lon="6.1456">
        <ele>1064.6</ele>
        <time>2024-08-13T09:47:27Z</time>
      </trkpt>
      <trkpt lat="44.82616" lon="6.14562">
        <ele>1064.6</ele>
        <time>2024-08-13T09:47:28Z</time>
      </trkpt>
      <trkpt lat="44.82616" lon="6.14562">
        <ele>1064.6</ele>
        <time>2024-08-13T09:47:29Z</time>
      </trkpt>
      <trkpt lat="44.82616" lon="6.14562">
        <ele>1064.8</ele>
        <time>2024-08-13T09:47:30Z</time>
      </trkpt>
      <trkpt lat="44.82616" lon="6.14565">
        <ele>1064.8</ele>
        <time>2024-08-13T09:47:31Z</time>
      </trkpt>
      <trkpt lat="44.82616" lon="6.14565">
        <ele>1065</ele>
        <time>2024-08-13T09:47:32Z</time>
      </trkpt>
      <trkpt lat="44.82616" lon="6.14565">
        <ele>1065.2</ele>
        <time>2024-08-13T09:47:33Z</time>
      </trkpt>
      <trkpt lat="44.82616" lon="6.14568">
        <ele>1065.6</ele>
        <time>2024-08-13T09:47:34Z</time>
      </trkpt>
      <trkpt lat="44.82616" lon="6.14568">
        <ele>1065.6</ele>
        <time>2024-08-13T09:47:35Z</time>
      </trkpt>
      <trkpt lat="44.82616" lon="6.14568">
        <ele>1065.8</ele>
        <time>2024-08-13T09:47:36Z</time>
      </trkpt>
      <trkpt lat="44.82616" lon="6.14568">
        <ele>1065.8</ele>
        <time>2024-08-13T09:47:37Z</time>
      </trkpt>
      <trkpt lat="44.82616" lon="6.14568">
        <ele>1065.8</ele>
        <time>2024-08-13T09:47:38Z</time>
      </trkpt>
      <trkpt lat="44.82616" lon="6.14568">
        <ele>1065.8</ele>
        <time>2024-08-13T09:47:39Z</time>
      </trkpt>
      <trkpt lat="44.82616" lon="6.14568">
        <ele>1066</ele>
        <time>2024-08-13T09:47:40Z</time>
      </trkpt>
      <trkpt lat="44.82616" lon="6.14568">
        <ele>1066</ele>
        <time>2024-08-13T09:47:41Z</time>
      </trkpt>
      <trkpt lat="44.82616" lon="6.14568">
        <ele>1065.8</ele>
        <time>2024-08-13T09:47:42Z</time>
      </trkpt>
      <trkpt lat="44.82616" lon="6.14568">
        <ele>1065.8</ele>
        <time>2024-08-13T09:47:43Z</time>
      </trkpt>
      <trkpt lat="44.82616" lon="6.14568">
        <ele>1066</ele>
        <time>2024-08-13T09:47:44Z</time>
      </trkpt>
      <trkpt lat="44.82616" lon="6.14568">
        <ele>1066</ele>
        <time>2024-08-13T09:47:45Z</time>
      </trkpt>
      <trkpt lat="44.82616" lon="6.14568">
        <ele>1066</ele>
        <time>2024-08-13T09:47:46Z</time>
      </trkpt>
      <trkpt lat="44.82616" lon="6.14568">
        <ele>1066</ele>
        <time>2024-08-13T09:47:47Z</time>
      </trkpt>
      <trkpt lat="44.82616" lon="6.14568">
        <ele>1066</ele>
        <time>2024-08-13T09:47:48Z</time>
      </trkpt>
      <trkpt lat="44.82616" lon="6.14568">
        <ele>1066</ele>
        <time>2024-08-13T09:47:49Z</time>
      </trkpt>
      <trkpt lat="44.82616" lon="6.14568">
        <ele>1066</ele>
        <time>2024-08-13T09:47:50Z</time>
      </trkpt>
      <trkpt lat="44.82616" lon="6.14568">
        <ele>1066</ele>
        <time>2024-08-13T09:47:51Z</time>
      </trkpt>
      <trkpt lat="44.82616" lon="6.14568">
        <ele>1066</ele>
        <time>2024-08-13T09:47:52Z</time>
      </trkpt>
      <trkpt lat="44.82618" lon="6.14566">
        <ele>1066</ele>
        <time>2024-08-13T09:47:53Z</time>
      </trkpt>
      <trkpt lat="44.82619" lon="6.14565">
        <ele>1066</ele>
        <time>2024-08-13T09:47:54Z</time>
      </trkpt>
      <trkpt lat="44.82619" lon="6.14565">
        <ele>1066</ele>
        <time>2024-08-13T09:47:55Z</time>
      </trkpt>
      <trkpt lat="44.82622" lon="6.14563">
        <ele>1065.8</ele>
        <time>2024-08-13T09:47:56Z</time>
      </trkpt>
      <trkpt lat="44.82622" lon="6.14563">
        <ele>1066</ele>
        <time>2024-08-13T09:47:57Z</time>
      </trkpt>
      <trkpt lat="44.82625" lon="6.14563">
        <ele>1066</ele>
        <time>2024-08-13T09:47:58Z</time>
      </trkpt>
      <trkpt lat="44.82625" lon="6.14563">
        <ele>1066</ele>
        <time>2024-08-13T09:47:59Z</time>
      </trkpt>
      <trkpt lat="44.82628" lon="6.14563">
        <ele>1066.2</ele>
        <time>2024-08-13T09:48:00Z</time>
      </trkpt>
      <trkpt lat="44.82628" lon="6.14563">
        <ele>1066.4</ele>
        <time>2024-08-13T09:48:01Z</time>
      </trkpt>
      <trkpt lat="44.8263" lon="6.14562">
        <ele>1066.6</ele>
        <time>2024-08-13T09:48:02Z</time>
      </trkpt>
      <trkpt lat="44.8263" lon="6.14562">
        <ele>1066.6</ele>
        <time>2024-08-13T09:48:03Z</time>
      </trkpt>
      <trkpt lat="44.82632" lon="6.14559">
        <ele>1067</ele>
        <time>2024-08-13T09:48:04Z</time>
      </trkpt>
      <trkpt lat="44.82632" lon="6.14559">
        <ele>1067.2</ele>
        <time>2024-08-13T09:48:05Z</time>
      </trkpt>
      <trkpt lat="44.82634" lon="6.14557">
        <ele>1067.6</ele>
        <time>2024-08-13T09:48:06Z</time>
      </trkpt>
      <trkpt lat="44.82634" lon="6.14557">
        <ele>1067.6</ele>
        <time>2024-08-13T09:48:07Z</time>
      </trkpt>
      <trkpt lat="44.82636" lon="6.14556">
        <ele>1067.6</ele>
        <time>2024-08-13T09:48:08Z</time>
      </trkpt>
      <trkpt lat="44.82636" lon="6.14556">
        <ele>1067.8</ele>
        <time>2024-08-13T09:48:09Z</time>
      </trkpt>
      <trkpt lat="44.82638" lon="6.14554">
        <ele>1068.2</ele>
        <time>2024-08-13T09:48:10Z</time>
      </trkpt>
      <trkpt lat="44.82638" lon="6.14554">
        <ele>1068.2</ele>
        <time>2024-08-13T09:48:11Z</time>
      </trkpt>
      <trkpt lat="44.8264" lon="6.14553">
        <ele>1068.4</ele>
        <time>2024-08-13T09:48:12Z</time>
      </trkpt>
      <trkpt lat="44.8264" lon="6.14553">
        <ele>1068.4</ele>
        <time>2024-08-13T09:48:13Z</time>
      </trkpt>
      <trkpt lat="44.82642" lon="6.14553">
        <ele>1068.6</ele>
        <time>2024-08-13T09:48:14Z</time>
      </trkpt>
      <trkpt lat="44.82642" lon="6.14553">
        <ele>1068.8</ele>
        <time>2024-08-13T09:48:15Z</time>
      </trkpt>
      <trkpt lat="44.82644" lon="6.14552">
        <ele>1069</ele>
        <time>2024-08-13T09:48:16Z</time>
      </trkpt>
      <trkpt lat="44.82644" lon="6.14552">
        <ele>1069.2</ele>
        <time>2024-08-13T09:48:17Z</time>
      </trkpt>
      <trkpt lat="44.82646" lon="6.14551">
        <ele>1069.2</ele>
        <time>2024-08-13T09:48:18Z</time>
      </trkpt>
      <trkpt lat="44.82646" lon="6.14551">
        <ele>1069.4</ele>
        <time>2024-08-13T09:48:19Z</time>
      </trkpt>
      <trkpt lat="44.82648" lon="6.14549">
        <ele>1069.6</ele>
        <time>2024-08-13T09:48:20Z</time>
      </trkpt>
      <trkpt lat="44.82648" lon="6.14549">
        <ele>1069.6</ele>
        <time>2024-08-13T09:48:21Z</time>
      </trkpt>
      <trkpt lat="44.8265" lon="6.14546">
        <ele>1070</ele>
        <time>2024-08-13T09:48:22Z</time>
      </trkpt>
      <trkpt lat="44.8265" lon="6.14546">
        <ele>1070</ele>
        <time>2024-08-13T09:48:23Z</time>
      </trkpt>
      <trkpt lat="44.82652" lon="6.14545">
        <ele>1070.2</ele>
        <time>2024-08-13T09:48:24Z</time>
      </trkpt>
      <trkpt lat="44.82652" lon="6.14545">
        <ele>1070.2</ele>
        <time>2024-08-13T09:48:25Z</time>
      </trkpt>
      <trkpt lat="44.82654" lon="6.14544">
        <ele>1070.8</ele>
        <time>2024-08-13T09:48:26Z</time>
      </trkpt>
      <trkpt lat="44.82654" lon="6.14544">
        <ele>1071</ele>
        <time>2024-08-13T09:48:27Z</time>
      </trkpt>
      <trkpt lat="44.82656" lon="6.14545">
        <ele>1071</ele>
        <time>2024-08-13T09:48:28Z</time>
      </trkpt>
      <trkpt lat="44.82656" lon="6.14545">
        <ele>1071</ele>
        <time>2024-08-13T09:48:29Z</time>
      </trkpt>
      <trkpt lat="44.82658" lon="6.14546">
        <ele>1071.2</ele>
        <time>2024-08-13T09:48:30Z</time>
      </trkpt>
      <trkpt lat="44.82658" lon="6.14546">
        <ele>1071.6</ele>
        <time>2024-08-13T09:48:31Z</time>
      </trkpt>
      <trkpt lat="44.82658" lon="6.14546">
        <ele>1071.6</ele>
        <time>2024-08-13T09:48:32Z</time>
      </trkpt>
      <trkpt lat="44.82661" lon="6.14548">
        <ele>1071.6</ele>
        <time>2024-08-13T09:48:33Z</time>
      </trkpt>
      <trkpt lat="44.82661" lon="6.14548">
        <ele>1072</ele>
        <time>2024-08-13T09:48:34Z</time>
      </trkpt>
      <trkpt lat="44.82661" lon="6.14548">
        <ele>1072.2</ele>
        <time>2024-08-13T09:48:35Z</time>
      </trkpt>
      <trkpt lat="44.82663" lon="6.1455">
        <ele>1072.6</ele>
        <time>2024-08-13T09:48:36Z</time>
      </trkpt>
      <trkpt lat="44.82663" lon="6.1455">
        <ele>1072.8</ele>
        <time>2024-08-13T09:48:37Z</time>
      </trkpt>
      <trkpt lat="44.82663" lon="6.1455">
        <ele>1072.8</ele>
        <time>2024-08-13T09:48:38Z</time>
      </trkpt>
      <trkpt lat="44.82665" lon="6.14552">
        <ele>1073</ele>
        <time>2024-08-13T09:48:39Z</time>
      </trkpt>
      <trkpt lat="44.82665" lon="6.14552">
        <ele>1073.4</ele>
        <time>2024-08-13T09:48:40Z</time>
      </trkpt>
      <trkpt lat="44.82666" lon="6.14554">
        <ele>1073.8</ele>
        <time>2024-08-13T09:48:41Z</time>
      </trkpt>
      <trkpt lat="44.82666" lon="6.14554">
        <ele>1074</ele>
        <time>2024-08-13T09:48:42Z</time>
      </trkpt>
      <trkpt lat="44.82668" lon="6.14555">
        <ele>1074.2</ele>
        <time>2024-08-13T09:48:43Z</time>
      </trkpt>
      <trkpt lat="44.82668" lon="6.14555">
        <ele>1074.6</ele>
        <time>2024-08-13T09:48:44Z</time>
      </trkpt>
      <trkpt lat="44.82669" lon="6.14557">
        <ele>1074.8</ele>
        <time>2024-08-13T09:48:45Z</time>
      </trkpt>
      <trkpt lat="44.82669" lon="6.14557">
        <ele>1075</ele>
        <time>2024-08-13T09:48:46Z</time>
      </trkpt>
      <trkpt lat="44.82669" lon="6.14557">
        <ele>1075.2</ele>
        <time>2024-08-13T09:48:47Z</time>
      </trkpt>
      <trkpt lat="44.82671" lon="6.1456">
        <ele>1075.2</ele>
        <time>2024-08-13T09:48:48Z</time>
      </trkpt>
      <trkpt lat="44.82671" lon="6.1456">
        <ele>1075.6</ele>
        <time>2024-08-13T09:48:49Z</time>
      </trkpt>
      <trkpt lat="44.82671" lon="6.14563">
        <ele>1076</ele>
        <time>2024-08-13T09:48:50Z</time>
      </trkpt>
      <trkpt lat="44.82671" lon="6.14563">
        <ele>1076</ele>
        <time>2024-08-13T09:48:51Z</time>
      </trkpt>
      <trkpt lat="44.82672" lon="6.14566">
        <ele>1076.4</ele>
        <time>2024-08-13T09:48:52Z</time>
      </trkpt>
      <trkpt lat="44.82672" lon="6.14566">
        <ele>1076.8</ele>
        <time>2024-08-13T09:48:53Z</time>
      </trkpt>
      <trkpt lat="44.82672" lon="6.14566">
        <ele>1077</ele>
        <time>2024-08-13T09:48:54Z</time>
      </trkpt>
      <trkpt lat="44.82673" lon="6.14569">
        <ele>1077.2</ele>
        <time>2024-08-13T09:48:55Z</time>
      </trkpt>
      <trkpt lat="44.82673" lon="6.14569">
        <ele>1077.4</ele>
        <time>2024-08-13T09:48:56Z</time>
      </trkpt>
      <trkpt lat="44.82674" lon="6.14571">
        <ele>1077.6</ele>
        <time>2024-08-13T09:48:57Z</time>
      </trkpt>
      <trkpt lat="44.82674" lon="6.14571">
        <ele>1078</ele>
        <time>2024-08-13T09:48:58Z</time>
      </trkpt>
      <trkpt lat="44.82675" lon="6.14573">
        <ele>1078</ele>
        <time>2024-08-13T09:48:59Z</time>
      </trkpt>
      <trkpt lat="44.82675" lon="6.14573">
        <ele>1078.2</ele>
        <time>2024-08-13T09:49:00Z</time>
      </trkpt>
      <trkpt lat="44.82675" lon="6.14576">
        <ele>1078.4</ele>
        <time>2024-08-13T09:49:01Z</time>
      </trkpt>
      <trkpt lat="44.82675" lon="6.14576">
        <ele>1079</ele>
        <time>2024-08-13T09:49:02Z</time>
      </trkpt>
      <trkpt lat="44.82675" lon="6.14576">
        <ele>1079</ele>
        <time>2024-08-13T09:49:03Z</time>
      </trkpt>
      <trkpt lat="44.82676" lon="6.1458">
        <ele>1079.2</ele>
        <time>2024-08-13T09:49:04Z</time>
      </trkpt>
      <trkpt lat="44.82676" lon="6.1458">
        <ele>1079.4</ele>
        <time>2024-08-13T09:49:05Z</time>
      </trkpt>
      <trkpt lat="44.82676" lon="6.1458">
        <ele>1079.6</ele>
        <time>2024-08-13T09:49:06Z</time>
      </trkpt>
      <trkpt lat="44.82676" lon="6.14584">
        <ele>1079.8</ele>
        <time>2024-08-13T09:49:07Z</time>
      </trkpt>
      <trkpt lat="44.82676" lon="6.14584">
        <ele>1080</ele>
        <time>2024-08-13T09:49:08Z</time>
      </trkpt>
      <trkpt lat="44.82677" lon="6.14586">
        <ele>1080.2</ele>
        <time>2024-08-13T09:49:09Z</time>
      </trkpt>
      <trkpt lat="44.82677" lon="6.14586">
        <ele>1080.4</ele>
        <time>2024-08-13T09:49:10Z</time>
      </trkpt>
      <trkpt lat="44.82678" lon="6.14589">
        <ele>1080.6</ele>
        <time>2024-08-13T09:49:11Z</time>
      </trkpt>
      <trkpt lat="44.82678" lon="6.14589">
        <ele>1080.6</ele>
        <time>2024-08-13T09:49:12Z</time>
      </trkpt>
      <trkpt lat="44.82679" lon="6.14592">
        <ele>1080.8</ele>
        <time>2024-08-13T09:49:13Z</time>
      </trkpt>
      <trkpt lat="44.82679" lon="6.14592">
        <ele>1081</ele>
        <time>2024-08-13T09:49:14Z</time>
      </trkpt>
      <trkpt lat="44.82679" lon="6.14595">
        <ele>1081.2</ele>
        <time>2024-08-13T09:49:15Z</time>
      </trkpt>
      <trkpt lat="44.82679" lon="6.14595">
        <ele>1081.4</ele>
        <time>2024-08-13T09:49:16Z</time>
      </trkpt>
      <trkpt lat="44.8268" lon="6.14598">
        <ele>1081.6</ele>
        <time>2024-08-13T09:49:17Z</time>
      </trkpt>
      <trkpt lat="44.8268" lon="6.14598">
        <ele>1081.6</ele>
        <time>2024-08-13T09:49:18Z</time>
      </trkpt>
      <trkpt lat="44.8268" lon="6.14601">
        <ele>1081.8</ele>
        <time>2024-08-13T09:49:19Z</time>
      </trkpt>
      <trkpt lat="44.8268" lon="6.14601">
        <ele>1081.8</ele>
        <time>2024-08-13T09:49:20Z</time>
      </trkpt>
      <trkpt lat="44.8268" lon="6.14604">
        <ele>1082</ele>
        <time>2024-08-13T09:49:21Z</time>
      </trkpt>
      <trkpt lat="44.8268" lon="6.14604">
        <ele>1082</ele>
        <time>2024-08-13T09:49:22Z</time>
      </trkpt>
      <trkpt lat="44.82681" lon="6.14608">
        <ele>1082</ele>
        <time>2024-08-13T09:49:23Z</time>
      </trkpt>
      <trkpt lat="44.82681" lon="6.14608">
        <ele>1082</ele>
        <time>2024-08-13T09:49:24Z</time>
      </trkpt>
      <trkpt lat="44.82681" lon="6.14608">
        <ele>1082.2</ele>
        <time>2024-08-13T09:49:25Z</time>
      </trkpt>
      <trkpt lat="44.82681" lon="6.1461">
        <ele>1082.4</ele>
        <time>2024-08-13T09:49:26Z</time>
      </trkpt>
      <trkpt lat="44.82681" lon="6.1461">
        <ele>1082.6</ele>
        <time>2024-08-13T09:49:27Z</time>
      </trkpt>
      <trkpt lat="44.82681" lon="6.1461">
        <ele>1082.8</ele>
        <time>2024-08-13T09:49:28Z</time>
      </trkpt>
      <trkpt lat="44.82681" lon="6.1461">
        <ele>1083</ele>
        <time>2024-08-13T09:49:29Z</time>
      </trkpt>
      <trkpt lat="44.82681" lon="6.1461">
        <ele>1083</ele>
        <time>2024-08-13T09:49:30Z</time>
      </trkpt>
      <trkpt lat="44.82681" lon="6.1461">
        <ele>1082.8</ele>
        <time>2024-08-13T09:49:31Z</time>
      </trkpt>
      <trkpt lat="44.82681" lon="6.1461">
        <ele>1082.8</ele>
        <time>2024-08-13T09:49:32Z</time>
      </trkpt>
      <trkpt lat="44.82681" lon="6.1461">
        <ele>1082.8</ele>
        <time>2024-08-13T09:49:33Z</time>
      </trkpt>
      <trkpt lat="44.82681" lon="6.1461">
        <ele>1082.8</ele>
        <time>2024-08-13T09:49:34Z</time>
      </trkpt>
      <trkpt lat="44.82681" lon="6.1461">
        <ele>1082.8</ele>
        <time>2024-08-13T09:49:35Z</time>
      </trkpt>
      <trkpt lat="44.82681" lon="6.1461">
        <ele>1082.8</ele>
        <time>2024-08-13T09:49:36Z</time>
      </trkpt>
      <trkpt lat="44.82681" lon="6.1461">
        <ele>1082.8</ele>
        <time>2024-08-13T09:49:37Z</time>
      </trkpt>
      <trkpt lat="44.82681" lon="6.1461">
        <ele>1082.8</ele>
        <time>2024-08-13T09:49:38Z</time>
      </trkpt>
      <trkpt lat="44.82681" lon="6.1461">
        <ele>1083</ele>
        <time>2024-08-13T09:49:39Z</time>
      </trkpt>
      <trkpt lat="44.82681" lon="6.1461">
        <ele>1083.2</ele>
        <time>2024-08-13T09:49:40Z</time>
      </trkpt>
      <trkpt lat="44.82681" lon="6.1461">
        <ele>1083.4</ele>
        <time>2024-08-13T09:49:41Z</time>
      </trkpt>
      <trkpt lat="44.82681" lon="6.1461">
        <ele>1083.4</ele>
        <time>2024-08-13T09:49:42Z</time>
      </trkpt>
      <trkpt lat="44.82681" lon="6.1461">
        <ele>1083.6</ele>
        <time>2024-08-13T09:49:43Z</time>
      </trkpt>
      <trkpt lat="44.82681" lon="6.1461">
        <ele>1083.6</ele>
        <time>2024-08-13T09:49:44Z</time>
      </trkpt>
      <trkpt lat="44.82681" lon="6.1461">
        <ele>1083.6</ele>
        <time>2024-08-13T09:49:45Z</time>
      </trkpt>
      <trkpt lat="44.82681" lon="6.1461">
        <ele>1084</ele>
        <time>2024-08-13T09:49:46Z</time>
      </trkpt>
      <trkpt lat="44.82681" lon="6.1461">
        <ele>1084</ele>
        <time>2024-08-13T09:49:47Z</time>
      </trkpt>
      <trkpt lat="44.82681" lon="6.1461">
        <ele>1084</ele>
        <time>2024-08-13T09:49:48Z</time>
      </trkpt>
      <trkpt lat="44.82681" lon="6.1461">
        <ele>1084.2</ele>
        <time>2024-08-13T09:49:49Z</time>
      </trkpt>
      <trkpt lat="44.82681" lon="6.1461">
        <ele>1084.2</ele>
        <time>2024-08-13T09:49:50Z</time>
      </trkpt>
      <trkpt lat="44.82681" lon="6.1461">
        <ele>1084.2</ele>
        <time>2024-08-13T09:49:51Z</time>
      </trkpt>
      <trkpt lat="44.82681" lon="6.1461">
        <ele>1084.4</ele>
        <time>2024-08-13T09:49:52Z</time>
      </trkpt>
      <trkpt lat="44.82681" lon="6.1461">
        <ele>1084.6</ele>
        <time>2024-08-13T09:49:53Z</time>
      </trkpt>
      <trkpt lat="44.82681" lon="6.1461">
        <ele>1084.6</ele>
        <time>2024-08-13T09:49:54Z</time>
      </trkpt>
      <trkpt lat="44.82681" lon="6.1461">
        <ele>1084.2</ele>
        <time>2024-08-13T09:49:55Z</time>
      </trkpt>
      <trkpt lat="44.82681" lon="6.1461">
        <ele>1084.2</ele>
        <time>2024-08-13T09:49:56Z</time>
      </trkpt>
      <trkpt lat="44.82683" lon="6.14613">
        <ele>1084.4</ele>
        <time>2024-08-13T09:49:57Z</time>
      </trkpt>
      <trkpt lat="44.82683" lon="6.14613">
        <ele>1084.4</ele>
        <time>2024-08-13T09:49:58Z</time>
      </trkpt>
      <trkpt lat="44.82685" lon="6.14617">
        <ele>1084.4</ele>
        <time>2024-08-13T09:49:59Z</time>
      </trkpt>
      <trkpt lat="44.82687" lon="6.14618">
        <ele>1084.2</ele>
        <time>2024-08-13T09:50:00Z</time>
      </trkpt>
      <trkpt lat="44.82687" lon="6.14618">
        <ele>1084.2</ele>
        <time>2024-08-13T09:50:01Z</time>
      </trkpt>
      <trkpt lat="44.82689" lon="6.14621">
        <ele>1084.6</ele>
        <time>2024-08-13T09:50:02Z</time>
      </trkpt>
      <trkpt lat="44.82689" lon="6.14621">
        <ele>1084.6</ele>
        <time>2024-08-13T09:50:03Z</time>
      </trkpt>
      <trkpt lat="44.82691" lon="6.14622">
        <ele>1084.8</ele>
        <time>2024-08-13T09:50:04Z</time>
      </trkpt>
      <trkpt lat="44.82691" lon="6.14622">
        <ele>1085</ele>
        <time>2024-08-13T09:50:05Z</time>
      </trkpt>
      <trkpt lat="44.82693" lon="6.14623">
        <ele>1085.2</ele>
        <time>2024-08-13T09:50:06Z</time>
      </trkpt>
      <trkpt lat="44.82693" lon="6.14623">
        <ele>1085.4</ele>
        <time>2024-08-13T09:50:07Z</time>
      </trkpt>
      <trkpt lat="44.82696" lon="6.14624">
        <ele>1085.6</ele>
        <time>2024-08-13T09:50:08Z</time>
      </trkpt>
      <trkpt lat="44.82696" lon="6.14624">
        <ele>1085.8</ele>
        <time>2024-08-13T09:50:09Z</time>
      </trkpt>
      <trkpt lat="44.82698" lon="6.14625">
        <ele>1085.8</ele>
        <time>2024-08-13T09:50:10Z</time>
      </trkpt>
      <trkpt lat="44.82698" lon="6.14625">
        <ele>1085.8</ele>
        <time>2024-08-13T09:50:11Z</time>
      </trkpt>
      <trkpt lat="44.82698" lon="6.14625">
        <ele>1086</ele>
        <time>2024-08-13T09:50:12Z</time>
      </trkpt>
      <trkpt lat="44.82701" lon="6.14625">
        <ele>1086.2</ele>
        <time>2024-08-13T09:50:13Z</time>
      </trkpt>
      <trkpt lat="44.82701" lon="6.14625">
        <ele>1086.2</ele>
        <time>2024-08-13T09:50:14Z</time>
      </trkpt>
      <trkpt lat="44.82701" lon="6.14625">
        <ele>1086.2</ele>
        <time>2024-08-13T09:50:15Z</time>
      </trkpt>
      <trkpt lat="44.82703" lon="6.14625">
        <ele>1086.4</ele>
        <time>2024-08-13T09:50:16Z</time>
      </trkpt>
      <trkpt lat="44.82703" lon="6.14625">
        <ele>1087</ele>
        <time>2024-08-13T09:50:17Z</time>
      </trkpt>
      <trkpt lat="44.82703" lon="6.14625">
        <ele>1087.2</ele>
        <time>2024-08-13T09:50:18Z</time>
      </trkpt>
      <trkpt lat="44.82705" lon="6.14624">
        <ele>1087.2</ele>
        <time>2024-08-13T09:50:19Z</time>
      </trkpt>
      <trkpt lat="44.82705" lon="6.14624">
        <ele>1087.6</ele>
        <time>2024-08-13T09:50:20Z</time>
      </trkpt>
      <trkpt lat="44.82707" lon="6.14624">
        <ele>1087.6</ele>
        <time>2024-08-13T09:50:21Z</time>
      </trkpt>
      <trkpt lat="44.82707" lon="6.14624">
        <ele>1087.8</ele>
        <time>2024-08-13T09:50:22Z</time>
      </trkpt>
      <trkpt lat="44.82709" lon="6.14623">
        <ele>1087.8</ele>
        <time>2024-08-13T09:50:23Z</time>
      </trkpt>
      <trkpt lat="44.82709" lon="6.14623">
        <ele>1088</ele>
        <time>2024-08-13T09:50:24Z</time>
      </trkpt>
      <trkpt lat="44.82711" lon="6.14622">
        <ele>1088.2</ele>
        <time>2024-08-13T09:50:25Z</time>
      </trkpt>
      <trkpt lat="44.82711" lon="6.14622">
        <ele>1088.4</ele>
        <time>2024-08-13T09:50:26Z</time>
      </trkpt>
      <trkpt lat="44.82712" lon="6.14621">
        <ele>1088.6</ele>
        <time>2024-08-13T09:50:27Z</time>
      </trkpt>
      <trkpt lat="44.82712" lon="6.14621">
        <ele>1088.8</ele>
        <time>2024-08-13T09:50:28Z</time>
      </trkpt>
      <trkpt lat="44.82712" lon="6.14621">
        <ele>1088.8</ele>
        <time>2024-08-13T09:50:29Z</time>
      </trkpt>
      <trkpt lat="44.82714" lon="6.14619">
        <ele>1088.8</ele>
        <time>2024-08-13T09:50:30Z</time>
      </trkpt>
      <trkpt lat="44.82714" lon="6.14619">
        <ele>1088.8</ele>
        <time>2024-08-13T09:50:31Z</time>
      </trkpt>
      <trkpt lat="44.82715" lon="6.14616">
        <ele>1089</ele>
        <time>2024-08-13T09:50:32Z</time>
      </trkpt>
      <trkpt lat="44.82715" lon="6.14616">
        <ele>1089.2</ele>
        <time>2024-08-13T09:50:33Z</time>
      </trkpt>
      <trkpt lat="44.82715" lon="6.14616">
        <ele>1089.2</ele>
        <time>2024-08-13T09:50:34Z</time>
      </trkpt>
      <trkpt lat="44.82717" lon="6.14613">
        <ele>1089.6</ele>
        <time>2024-08-13T09:50:35Z</time>
      </trkpt>
      <trkpt lat="44.82717" lon="6.14613">
        <ele>1089.8</ele>
        <time>2024-08-13T09:50:36Z</time>
      </trkpt>
      <trkpt lat="44.82717" lon="6.14613">
        <ele>1090</ele>
        <time>2024-08-13T09:50:37Z</time>
      </trkpt>
      <trkpt lat="44.82717" lon="6.1461">
        <ele>1090.2</ele>
        <time>2024-08-13T09:50:38Z</time>
      </trkpt>
      <trkpt lat="44.82717" lon="6.1461">
        <ele>1090.2</ele>
        <time>2024-08-13T09:50:39Z</time>
      </trkpt>
      <trkpt lat="44.82717" lon="6.1461">
        <ele>1090.4</ele>
        <time>2024-08-13T09:50:40Z</time>
      </trkpt>
      <trkpt lat="44.82719" lon="6.14606">
        <ele>1090.6</ele>
        <time>2024-08-13T09:50:41Z</time>
      </trkpt>
      <trkpt lat="44.82719" lon="6.14606">
        <ele>1090.6</ele>
        <time>2024-08-13T09:50:42Z</time>
      </trkpt>
      <trkpt lat="44.8272" lon="6.14605">
        <ele>1090.8</ele>
        <time>2024-08-13T09:50:43Z</time>
      </trkpt>
      <trkpt lat="44.8272" lon="6.14605">
        <ele>1090.8</ele>
        <time>2024-08-13T09:50:44Z</time>
      </trkpt>
      <trkpt lat="44.82722" lon="6.14604">
        <ele>1091.2</ele>
        <time>2024-08-13T09:50:45Z</time>
      </trkpt>
      <trkpt lat="44.82722" lon="6.14604">
        <ele>1091.2</ele>
        <time>2024-08-13T09:50:46Z</time>
      </trkpt>
      <trkpt lat="44.82722" lon="6.14604">
        <ele>1091.4</ele>
        <time>2024-08-13T09:50:47Z</time>
      </trkpt>
      <trkpt lat="44.82724" lon="6.14602">
        <ele>1091.4</ele>
        <time>2024-08-13T09:50:48Z</time>
      </trkpt>
      <trkpt lat="44.82724" lon="6.14602">
        <ele>1091.4</ele>
        <time>2024-08-13T09:50:49Z</time>
      </trkpt>
      <trkpt lat="44.82724" lon="6.14598">
        <ele>1091.8</ele>
        <time>2024-08-13T09:50:50Z</time>
      </trkpt>
      <trkpt lat="44.82724" lon="6.14598">
        <ele>1091.8</ele>
        <time>2024-08-13T09:50:51Z</time>
      </trkpt>
      <trkpt lat="44.82725" lon="6.14596">
        <ele>1091.8</ele>
        <time>2024-08-13T09:50:52Z</time>
      </trkpt>
      <trkpt lat="44.82725" lon="6.14596">
        <ele>1092</ele>
        <time>2024-08-13T09:50:53Z</time>
      </trkpt>
      <trkpt lat="44.82725" lon="6.14596">
        <ele>1092.2</ele>
        <time>2024-08-13T09:50:54Z</time>
      </trkpt>
      <trkpt lat="44.82727" lon="6.14594">
        <ele>1092.4</ele>
        <time>2024-08-13T09:50:55Z</time>
      </trkpt>
      <trkpt lat="44.82727" lon="6.14594">
        <ele>1092.6</ele>
        <time>2024-08-13T09:50:56Z</time>
      </trkpt>
      <trkpt lat="44.82727" lon="6.14594">
        <ele>1092.6</ele>
        <time>2024-08-13T09:50:57Z</time>
      </trkpt>
      <trkpt lat="44.82728" lon="6.14592">
        <ele>1093.4</ele>
        <time>2024-08-13T09:50:58Z</time>
      </trkpt>
      <trkpt lat="44.82728" lon="6.14592">
        <ele>1093.4</ele>
        <time>2024-08-13T09:50:59Z</time>
      </trkpt>
      <trkpt lat="44.82729" lon="6.1459">
        <ele>1093.6</ele>
        <time>2024-08-13T09:51:00Z</time>
      </trkpt>
      <trkpt lat="44.82729" lon="6.1459">
        <ele>1093.8</ele>
        <time>2024-08-13T09:51:01Z</time>
      </trkpt>
      <trkpt lat="44.82729" lon="6.1459">
        <ele>1094</ele>
        <time>2024-08-13T09:51:02Z</time>
      </trkpt>
      <trkpt lat="44.82731" lon="6.14588">
        <ele>1094</ele>
        <time>2024-08-13T09:51:03Z</time>
      </trkpt>
      <trkpt lat="44.82731" lon="6.14588">
        <ele>1094.2</ele>
        <time>2024-08-13T09:51:04Z</time>
      </trkpt>
      <trkpt lat="44.82731" lon="6.14588">
        <ele>1094.4</ele>
        <time>2024-08-13T09:51:05Z</time>
      </trkpt>
      <trkpt lat="44.82732" lon="6.1459">
        <ele>1095</ele>
        <time>2024-08-13T09:51:06Z</time>
      </trkpt>
      <trkpt lat="44.82732" lon="6.1459">
        <ele>1095</ele>
        <time>2024-08-13T09:51:07Z</time>
      </trkpt>
      <trkpt lat="44.82732" lon="6.1459">
        <ele>1095.2</ele>
        <time>2024-08-13T09:51:08Z</time>
      </trkpt>
      <trkpt lat="44.82732" lon="6.1459">
        <ele>1095.6</ele>
        <time>2024-08-13T09:51:09Z</time>
      </trkpt>
      <trkpt lat="44.82733" lon="6.14593">
        <ele>1095.6</ele>
        <time>2024-08-13T09:51:10Z</time>
      </trkpt>
      <trkpt lat="44.82733" lon="6.14593">
        <ele>1095.6</ele>
        <time>2024-08-13T09:51:11Z</time>
      </trkpt>
      <trkpt lat="44.82733" lon="6.14593">
        <ele>1095.8</ele>
        <time>2024-08-13T09:51:12Z</time>
      </trkpt>
      <trkpt lat="44.82734" lon="6.14596">
        <ele>1096</ele>
        <time>2024-08-13T09:51:13Z</time>
      </trkpt>
      <trkpt lat="44.82734" lon="6.14596">
        <ele>1096.2</ele>
        <time>2024-08-13T09:51:14Z</time>
      </trkpt>
      <trkpt lat="44.82734" lon="6.14596">
        <ele>1096.6</ele>
        <time>2024-08-13T09:51:15Z</time>
      </trkpt>
      <trkpt lat="44.82735" lon="6.14599">
        <ele>1096.8</ele>
        <time>2024-08-13T09:51:16Z</time>
      </trkpt>
      <trkpt lat="44.82735" lon="6.14599">
        <ele>1097</ele>
        <time>2024-08-13T09:51:17Z</time>
      </trkpt>
      <trkpt lat="44.82737" lon="6.14601">
        <ele>1097.2</ele>
        <time>2024-08-13T09:51:18Z</time>
      </trkpt>
      <trkpt lat="44.82737" lon="6.14601">
        <ele>1097.2</ele>
        <time>2024-08-13T09:51:19Z</time>
      </trkpt>
      <trkpt lat="44.82737" lon="6.14601">
        <ele>1097.4</ele>
        <time>2024-08-13T09:51:20Z</time>
      </trkpt>
      <trkpt lat="44.82737" lon="6.14604">
        <ele>1097.6</ele>
        <time>2024-08-13T09:51:21Z</time>
      </trkpt>
      <trkpt lat="44.82737" lon="6.14604">
        <ele>1097.8</ele>
        <time>2024-08-13T09:51:22Z</time>
      </trkpt>
      <trkpt lat="44.82737" lon="6.14604">
        <ele>1097.8</ele>
        <time>2024-08-13T09:51:23Z</time>
      </trkpt>
      <trkpt lat="44.82737" lon="6.14608">
        <ele>1097.8</ele>
        <time>2024-08-13T09:51:24Z</time>
      </trkpt>
      <trkpt lat="44.82737" lon="6.14608">
        <ele>1097.8</ele>
        <time>2024-08-13T09:51:25Z</time>
      </trkpt>
      <trkpt lat="44.82737" lon="6.14608">
        <ele>1098</ele>
        <time>2024-08-13T09:51:26Z</time>
      </trkpt>
      <trkpt lat="44.82737" lon="6.14611">
        <ele>1098.2</ele>
        <time>2024-08-13T09:51:27Z</time>
      </trkpt>
      <trkpt lat="44.82737" lon="6.14611">
        <ele>1098.4</ele>
        <time>2024-08-13T09:51:28Z</time>
      </trkpt>
      <trkpt lat="44.82737" lon="6.14611">
        <ele>1098.8</ele>
        <time>2024-08-13T09:51:29Z</time>
      </trkpt>
      <trkpt lat="44.82737" lon="6.14614">
        <ele>1099</ele>
        <time>2024-08-13T09:51:30Z</time>
      </trkpt>
      <trkpt lat="44.82737" lon="6.14614">
        <ele>1099</ele>
        <time>2024-08-13T09:51:31Z</time>
      </trkpt>
      <trkpt lat="44.82738" lon="6.14617">
        <ele>1099.4</ele>
        <time>2024-08-13T09:51:32Z</time>
      </trkpt>
      <trkpt lat="44.82738" lon="6.14617">
        <ele>1099.4</ele>
        <time>2024-08-13T09:51:33Z</time>
      </trkpt>
      <trkpt lat="44.82739" lon="6.14619">
        <ele>1099.6</ele>
        <time>2024-08-13T09:51:34Z</time>
      </trkpt>
      <trkpt lat="44.82739" lon="6.14619">
        <ele>1099.6</ele>
        <time>2024-08-13T09:51:35Z</time>
      </trkpt>
      <trkpt lat="44.82739" lon="6.14619">
        <ele>1099.6</ele>
        <time>2024-08-13T09:51:36Z</time>
      </trkpt>
      <trkpt lat="44.82739" lon="6.14623">
        <ele>1100</ele>
        <time>2024-08-13T09:51:37Z</time>
      </trkpt>
      <trkpt lat="44.82739" lon="6.14623">
        <ele>1100.2</ele>
        <time>2024-08-13T09:51:38Z</time>
      </trkpt>
      <trkpt lat="44.82739" lon="6.14623">
        <ele>1100.2</ele>
        <time>2024-08-13T09:51:39Z</time>
      </trkpt>
      <trkpt lat="44.82739" lon="6.14623">
        <ele>1100.6</ele>
        <time>2024-08-13T09:51:40Z</time>
      </trkpt>
      <trkpt lat="44.82739" lon="6.14623">
        <ele>1100.8</ele>
        <time>2024-08-13T09:51:41Z</time>
      </trkpt>
      <trkpt lat="44.82739" lon="6.14626">
        <ele>1101</ele>
        <time>2024-08-13T09:51:42Z</time>
      </trkpt>
      <trkpt lat="44.82739" lon="6.14626">
        <ele>1101.2</ele>
        <time>2024-08-13T09:51:43Z</time>
      </trkpt>
      <trkpt lat="44.82739" lon="6.14626">
        <ele>1101.2</ele>
        <time>2024-08-13T09:51:44Z</time>
      </trkpt>
      <trkpt lat="44.82739" lon="6.14626">
        <ele>1101.4</ele>
        <time>2024-08-13T09:51:45Z</time>
      </trkpt>
      <trkpt lat="44.82739" lon="6.14629">
        <ele>1101.8</ele>
        <time>2024-08-13T09:51:46Z</time>
      </trkpt>
      <trkpt lat="44.82739" lon="6.14629">
        <ele>1101.8</ele>
        <time>2024-08-13T09:51:47Z</time>
      </trkpt>
      <trkpt lat="44.82739" lon="6.14629">
        <ele>1102.2</ele>
        <time>2024-08-13T09:51:48Z</time>
      </trkpt>
      <trkpt lat="44.82739" lon="6.14629">
        <ele>1102.4</ele>
        <time>2024-08-13T09:51:49Z</time>
      </trkpt>
      <trkpt lat="44.82739" lon="6.14632">
        <ele>1102.8</ele>
        <time>2024-08-13T09:51:50Z</time>
      </trkpt>
      <trkpt lat="44.82739" lon="6.14632">
        <ele>1102.8</ele>
        <time>2024-08-13T09:51:51Z</time>
      </trkpt>
      <trkpt lat="44.82739" lon="6.14632">
        <ele>1103</ele>
        <time>2024-08-13T09:51:52Z</time>
      </trkpt>
      <trkpt lat="44.82738" lon="6.14636">
        <ele>1103.2</ele>
        <time>2024-08-13T09:51:53Z</time>
      </trkpt>
      <trkpt lat="44.82738" lon="6.14636">
        <ele>1103.4</ele>
        <time>2024-08-13T09:51:54Z</time>
      </trkpt>
      <trkpt lat="44.82738" lon="6.14636">
        <ele>1103.8</ele>
        <time>2024-08-13T09:51:55Z</time>
      </trkpt>
      <trkpt lat="44.82737" lon="6.14639">
        <ele>1104</ele>
        <time>2024-08-13T09:51:56Z</time>
      </trkpt>
      <trkpt lat="44.82737" lon="6.14639">
        <ele>1104.2</ele>
        <time>2024-08-13T09:51:57Z</time>
      </trkpt>
      <trkpt lat="44.82737" lon="6.14639">
        <ele>1104.2</ele>
        <time>2024-08-13T09:51:58Z</time>
      </trkpt>
      <trkpt lat="44.82737" lon="6.14643">
        <ele>1104.4</ele>
        <time>2024-08-13T09:51:59Z</time>
      </trkpt>
      <trkpt lat="44.82737" lon="6.14643">
        <ele>1104.6</ele>
        <time>2024-08-13T09:52:00Z</time>
      </trkpt>
      <trkpt lat="44.82738" lon="6.14645">
        <ele>1104.8</ele>
        <time>2024-08-13T09:52:01Z</time>
      </trkpt>
      <trkpt lat="44.82738" lon="6.14645">
        <ele>1105</ele>
        <time>2024-08-13T09:52:02Z</time>
      </trkpt>
      <trkpt lat="44.82738" lon="6.14648">
        <ele>1105</ele>
        <time>2024-08-13T09:52:03Z</time>
      </trkpt>
      <trkpt lat="44.82738" lon="6.14648">
        <ele>1105.2</ele>
        <time>2024-08-13T09:52:04Z</time>
      </trkpt>
      <trkpt lat="44.82738" lon="6.14651">
        <ele>1106</ele>
        <time>2024-08-13T09:52:05Z</time>
      </trkpt>
      <trkpt lat="44.82738" lon="6.14651">
        <ele>1106</ele>
        <time>2024-08-13T09:52:06Z</time>
      </trkpt>
      <trkpt lat="44.82739" lon="6.14654">
        <ele>1106</ele>
        <time>2024-08-13T09:52:07Z</time>
      </trkpt>
      <trkpt lat="44.82739" lon="6.14654">
        <ele>1106</ele>
        <time>2024-08-13T09:52:08Z</time>
      </trkpt>
      <trkpt lat="44.82738" lon="6.14657">
        <ele>1106</ele>
        <time>2024-08-13T09:52:09Z</time>
      </trkpt>
      <trkpt lat="44.82738" lon="6.14657">
        <ele>1106.2</ele>
        <time>2024-08-13T09:52:10Z</time>
      </trkpt>
      <trkpt lat="44.82738" lon="6.1466">
        <ele>1106.2</ele>
        <time>2024-08-13T09:52:11Z</time>
      </trkpt>
      <trkpt lat="44.82738" lon="6.1466">
        <ele>1106.2</ele>
        <time>2024-08-13T09:52:12Z</time>
      </trkpt>
      <trkpt lat="44.82737" lon="6.14663">
        <ele>1106.2</ele>
        <time>2024-08-13T09:52:13Z</time>
      </trkpt>
      <trkpt lat="44.82737" lon="6.14663">
        <ele>1106.4</ele>
        <time>2024-08-13T09:52:14Z</time>
      </trkpt>
      <trkpt lat="44.82737" lon="6.14666">
        <ele>1106.8</ele>
        <time>2024-08-13T09:52:15Z</time>
      </trkpt>
      <trkpt lat="44.82737" lon="6.14666">
        <ele>1107</ele>
        <time>2024-08-13T09:52:16Z</time>
      </trkpt>
      <trkpt lat="44.82737" lon="6.14668">
        <ele>1107.2</ele>
        <time>2024-08-13T09:52:17Z</time>
      </trkpt>
      <trkpt lat="44.82737" lon="6.14668">
        <ele>1107.2</ele>
        <time>2024-08-13T09:52:18Z</time>
      </trkpt>
      <trkpt lat="44.82737" lon="6.14671">
        <ele>1107.2</ele>
        <time>2024-08-13T09:52:19Z</time>
      </trkpt>
      <trkpt lat="44.82737" lon="6.14671">
        <ele>1107.2</ele>
        <time>2024-08-13T09:52:20Z</time>
      </trkpt>
      <trkpt lat="44.82736" lon="6.14674">
        <ele>1107.6</ele>
        <time>2024-08-13T09:52:21Z</time>
      </trkpt>
      <trkpt lat="44.82736" lon="6.14674">
        <ele>1107.8</ele>
        <time>2024-08-13T09:52:22Z</time>
      </trkpt>
      <trkpt lat="44.82736" lon="6.14676">
        <ele>1107.8</ele>
        <time>2024-08-13T09:52:23Z</time>
      </trkpt>
      <trkpt lat="44.82736" lon="6.14676">
        <ele>1108</ele>
        <time>2024-08-13T09:52:24Z</time>
      </trkpt>
      <trkpt lat="44.82736" lon="6.14676">
        <ele>1108.2</ele>
        <time>2024-08-13T09:52:25Z</time>
      </trkpt>
      <trkpt lat="44.82735" lon="6.1468">
        <ele>1108.2</ele>
        <time>2024-08-13T09:52:26Z</time>
      </trkpt>
      <trkpt lat="44.82735" lon="6.1468">
        <ele>1108.4</ele>
        <time>2024-08-13T09:52:27Z</time>
      </trkpt>
      <trkpt lat="44.82735" lon="6.1468">
        <ele>1108.4</ele>
        <time>2024-08-13T09:52:28Z</time>
      </trkpt>
      <trkpt lat="44.82734" lon="6.14683">
        <ele>1108.6</ele>
        <time>2024-08-13T09:52:29Z</time>
      </trkpt>
      <trkpt lat="44.82734" lon="6.14683">
        <ele>1109</ele>
        <time>2024-08-13T09:52:30Z</time>
      </trkpt>
      <trkpt lat="44.82734" lon="6.14683">
        <ele>1109</ele>
        <time>2024-08-13T09:52:31Z</time>
      </trkpt>
      <trkpt lat="44.82734" lon="6.14686">
        <ele>1109</ele>
        <time>2024-08-13T09:52:32Z</time>
      </trkpt>
      <trkpt lat="44.82734" lon="6.14686">
        <ele>1109.6</ele>
        <time>2024-08-13T09:52:33Z</time>
      </trkpt>
      <trkpt lat="44.82734" lon="6.14686">
        <ele>1109.6</ele>
        <time>2024-08-13T09:52:34Z</time>
      </trkpt>
      <trkpt lat="44.82734" lon="6.14688">
        <ele>1110</ele>
        <time>2024-08-13T09:52:35Z</time>
      </trkpt>
      <trkpt lat="44.82734" lon="6.14688">
        <ele>1110</ele>
        <time>2024-08-13T09:52:36Z</time>
      </trkpt>
      <trkpt lat="44.82734" lon="6.14688">
        <ele>1110</ele>
        <time>2024-08-13T09:52:37Z</time>
      </trkpt>
      <trkpt lat="44.82734" lon="6.14688">
        <ele>1110.2</ele>
        <time>2024-08-13T09:52:38Z</time>
      </trkpt>
      <trkpt lat="44.82733" lon="6.14692">
        <ele>1110.4</ele>
        <time>2024-08-13T09:52:39Z</time>
      </trkpt>
      <trkpt lat="44.82733" lon="6.14692">
        <ele>1110.6</ele>
        <time>2024-08-13T09:52:40Z</time>
      </trkpt>
      <trkpt lat="44.82733" lon="6.14692">
        <ele>1111</ele>
        <time>2024-08-13T09:52:41Z</time>
      </trkpt>
      <trkpt lat="44.82733" lon="6.14695">
        <ele>1111.2</ele>
        <time>2024-08-13T09:52:42Z</time>
      </trkpt>
      <trkpt lat="44.82733" lon="6.14695">
        <ele>1111.6</ele>
        <time>2024-08-13T09:52:43Z</time>
      </trkpt>
      <trkpt lat="44.82733" lon="6.14695">
        <ele>1111.6</ele>
        <time>2024-08-13T09:52:44Z</time>
      </trkpt>
      <trkpt lat="44.82733" lon="6.14698">
        <ele>1111.8</ele>
        <time>2024-08-13T09:52:45Z</time>
      </trkpt>
      <trkpt lat="44.82733" lon="6.14698">
        <ele>1111.8</ele>
        <time>2024-08-13T09:52:46Z</time>
      </trkpt>
      <trkpt lat="44.82733" lon="6.14698">
        <ele>1111.8</ele>
        <time>2024-08-13T09:52:47Z</time>
      </trkpt>
      <trkpt lat="44.82733" lon="6.14698">
        <ele>1112.4</ele>
        <time>2024-08-13T09:52:48Z</time>
      </trkpt>
      <trkpt lat="44.82733" lon="6.14698">
        <ele>1112.8</ele>
        <time>2024-08-13T09:52:49Z</time>
      </trkpt>
      <trkpt lat="44.82735" lon="6.14698">
        <ele>1112.8</ele>
        <time>2024-08-13T09:52:50Z</time>
      </trkpt>
      <trkpt lat="44.82735" lon="6.14698">
        <ele>1113</ele>
        <time>2024-08-13T09:52:51Z</time>
      </trkpt>
      <trkpt lat="44.82735" lon="6.14698">
        <ele>1113.2</ele>
        <time>2024-08-13T09:52:52Z</time>
      </trkpt>
      <trkpt lat="44.82737" lon="6.14697">
        <ele>1113.4</ele>
        <time>2024-08-13T09:52:53Z</time>
      </trkpt>
      <trkpt lat="44.82737" lon="6.14697">
        <ele>1113.6</ele>
        <time>2024-08-13T09:52:54Z</time>
      </trkpt>
      <trkpt lat="44.82737" lon="6.14697">
        <ele>1113.8</ele>
        <time>2024-08-13T09:52:55Z</time>
      </trkpt>
      <trkpt lat="44.82737" lon="6.14697">
        <ele>1114</ele>
        <time>2024-08-13T09:52:56Z</time>
      </trkpt>
      <trkpt lat="44.82737" lon="6.14697">
        <ele>1114.4</ele>
        <time>2024-08-13T09:52:57Z</time>
      </trkpt>
      <trkpt lat="44.82738" lon="6.14695">
        <ele>1114.6</ele>
        <time>2024-08-13T09:52:58Z</time>
      </trkpt>
      <trkpt lat="44.82738" lon="6.14695">
        <ele>1114.8</ele>
        <time>2024-08-13T09:52:59Z</time>
      </trkpt>
      <trkpt lat="44.82738" lon="6.14695">
        <ele>1115</ele>
        <time>2024-08-13T09:53:00Z</time>
      </trkpt>
      <trkpt lat="44.8274" lon="6.14693">
        <ele>1115.2</ele>
        <time>2024-08-13T09:53:01Z</time>
      </trkpt>
      <trkpt lat="44.8274" lon="6.14693">
        <ele>1115.6</ele>
        <time>2024-08-13T09:53:02Z</time>
      </trkpt>
      <trkpt lat="44.82741" lon="6.1469">
        <ele>1115.6</ele>
        <time>2024-08-13T09:53:03Z</time>
      </trkpt>
      <trkpt lat="44.82741" lon="6.1469">
        <ele>1115.6</ele>
        <time>2024-08-13T09:53:04Z</time>
      </trkpt>
      <trkpt lat="44.82743" lon="6.14687">
        <ele>1115.6</ele>
        <time>2024-08-13T09:53:05Z</time>
      </trkpt>
      <trkpt lat="44.82743" lon="6.14687">
        <ele>1115.8</ele>
        <time>2024-08-13T09:53:06Z</time>
      </trkpt>
      <trkpt lat="44.82745" lon="6.14685">
        <ele>1115.8</ele>
        <time>2024-08-13T09:53:07Z</time>
      </trkpt>
      <trkpt lat="44.82745" lon="6.14685">
        <ele>1116</ele>
        <time>2024-08-13T09:53:08Z</time>
      </trkpt>
      <trkpt lat="44.82745" lon="6.14685">
        <ele>1116.2</ele>
        <time>2024-08-13T09:53:09Z</time>
      </trkpt>
      <trkpt lat="44.82746" lon="6.14683">
        <ele>1116.2</ele>
        <time>2024-08-13T09:53:10Z</time>
      </trkpt>
      <trkpt lat="44.82746" lon="6.14683">
        <ele>1116.6</ele>
        <time>2024-08-13T09:53:11Z</time>
      </trkpt>
      <trkpt lat="44.82746" lon="6.14683">
        <ele>1116.6</ele>
        <time>2024-08-13T09:53:12Z</time>
      </trkpt>
      <trkpt lat="44.82748" lon="6.14682">
        <ele>1117</ele>
        <time>2024-08-13T09:53:13Z</time>
      </trkpt>
      <trkpt lat="44.82748" lon="6.14682">
        <ele>1117.4</ele>
        <time>2024-08-13T09:53:14Z</time>
      </trkpt>
      <trkpt lat="44.82748" lon="6.14682">
        <ele>1117.4</ele>
        <time>2024-08-13T09:53:15Z</time>
      </trkpt>
      <trkpt lat="44.82748" lon="6.14682">
        <ele>1117.8</ele>
        <time>2024-08-13T09:53:16Z</time>
      </trkpt>
      <trkpt lat="44.82748" lon="6.14682">
        <ele>1118</ele>
        <time>2024-08-13T09:53:17Z</time>
      </trkpt>
      <trkpt lat="44.82748" lon="6.14682">
        <ele>1118.4</ele>
        <time>2024-08-13T09:53:18Z</time>
      </trkpt>
      <trkpt lat="44.82748" lon="6.14682">
        <ele>1118.6</ele>
        <time>2024-08-13T09:53:19Z</time>
      </trkpt>
      <trkpt lat="44.82748" lon="6.14682">
        <ele>1118.8</ele>
        <time>2024-08-13T09:53:20Z</time>
      </trkpt>
      <trkpt lat="44.82748" lon="6.14682">
        <ele>1118.8</ele>
        <time>2024-08-13T09:53:21Z</time>
      </trkpt>
      <trkpt lat="44.8275" lon="6.1468">
        <ele>1119</ele>
        <time>2024-08-13T09:53:22Z</time>
      </trkpt>
      <trkpt lat="44.8275" lon="6.1468">
        <ele>1119.2</ele>
        <time>2024-08-13T09:53:23Z</time>
      </trkpt>
      <trkpt lat="44.8275" lon="6.1468">
        <ele>1119.2</ele>
        <time>2024-08-13T09:53:24Z</time>
      </trkpt>
      <trkpt lat="44.82751" lon="6.14676">
        <ele>1119.2</ele>
        <time>2024-08-13T09:53:25Z</time>
      </trkpt>
      <trkpt lat="44.82751" lon="6.14676">
        <ele>1119.4</ele>
        <time>2024-08-13T09:53:26Z</time>
      </trkpt>
      <trkpt lat="44.82753" lon="6.14673">
        <ele>1120</ele>
        <time>2024-08-13T09:53:27Z</time>
      </trkpt>
      <trkpt lat="44.82753" lon="6.14673">
        <ele>1120.4</ele>
        <time>2024-08-13T09:53:28Z</time>
      </trkpt>
      <trkpt lat="44.82754" lon="6.1467">
        <ele>1120.4</ele>
        <time>2024-08-13T09:53:29Z</time>
      </trkpt>
      <trkpt lat="44.82754" lon="6.1467">
        <ele>1120.4</ele>
        <time>2024-08-13T09:53:30Z</time>
      </trkpt>
      <trkpt lat="44.82755" lon="6.14668">
        <ele>1120.4</ele>
        <time>2024-08-13T09:53:31Z</time>
      </trkpt>
      <trkpt lat="44.82755" lon="6.14668">
        <ele>1120.8</ele>
        <time>2024-08-13T09:53:32Z</time>
      </trkpt>
      <trkpt lat="44.82755" lon="6.14668">
        <ele>1120.8</ele>
        <time>2024-08-13T09:53:33Z</time>
      </trkpt>
      <trkpt lat="44.82756" lon="6.14666">
        <ele>1121</ele>
        <time>2024-08-13T09:53:34Z</time>
      </trkpt>
      <trkpt lat="44.82756" lon="6.14666">
        <ele>1121.4</ele>
        <time>2024-08-13T09:53:35Z</time>
      </trkpt>
      <trkpt lat="44.82756" lon="6.14666">
        <ele>1121.4</ele>
        <time>2024-08-13T09:53:36Z</time>
      </trkpt>
      <trkpt lat="44.82757" lon="6.14663">
        <ele>1121.6</ele>
        <time>2024-08-13T09:53:37Z</time>
      </trkpt>
      <trkpt lat="44.82757" lon="6.14663">
        <ele>1121.8</ele>
        <time>2024-08-13T09:53:38Z</time>
      </trkpt>
      <trkpt lat="44.82757" lon="6.14663">
        <ele>1122.2</ele>
        <time>2024-08-13T09:53:39Z</time>
      </trkpt>
      <trkpt lat="44.82757" lon="6.14659">
        <ele>1122.4</ele>
        <time>2024-08-13T09:53:40Z</time>
      </trkpt>
      <trkpt lat="44.82757" lon="6.14659">
        <ele>1122.4</ele>
        <time>2024-08-13T09:53:41Z</time>
      </trkpt>
      <trkpt lat="44.82757" lon="6.14659">
        <ele>1122.4</ele>
        <time>2024-08-13T09:53:42Z</time>
      </trkpt>
      <trkpt lat="44.82759" lon="6.14657">
        <ele>1122.8</ele>
        <time>2024-08-13T09:53:43Z</time>
      </trkpt>
      <trkpt lat="44.82759" lon="6.14657">
        <ele>1122.8</ele>
        <time>2024-08-13T09:53:44Z</time>
      </trkpt>
      <trkpt lat="44.8276" lon="6.14654">
        <ele>1123</ele>
        <time>2024-08-13T09:53:45Z</time>
      </trkpt>
      <trkpt lat="44.8276" lon="6.14654">
        <ele>1123</ele>
        <time>2024-08-13T09:53:46Z</time>
      </trkpt>
      <trkpt lat="44.8276" lon="6.14654">
        <ele>1123.2</ele>
        <time>2024-08-13T09:53:47Z</time>
      </trkpt>
      <trkpt lat="44.8276" lon="6.14654">
        <ele>1123.4</ele>
        <time>2024-08-13T09:53:48Z</time>
      </trkpt>
      <trkpt lat="44.82762" lon="6.14652">
        <ele>1123.4</ele>
        <time>2024-08-13T09:53:49Z</time>
      </trkpt>
      <trkpt lat="44.82762" lon="6.14652">
        <ele>1123.6</ele>
        <time>2024-08-13T09:53:50Z</time>
      </trkpt>
      <trkpt lat="44.82762" lon="6.14652">
        <ele>1123.6</ele>
        <time>2024-08-13T09:53:51Z</time>
      </trkpt>
      <trkpt lat="44.82763" lon="6.14649">
        <ele>1123.8</ele>
        <time>2024-08-13T09:53:52Z</time>
      </trkpt>
      <trkpt lat="44.82763" lon="6.14649">
        <ele>1123.8</ele>
        <time>2024-08-13T09:53:53Z</time>
      </trkpt>
      <trkpt lat="44.82763" lon="6.14649">
        <ele>1124.2</ele>
        <time>2024-08-13T09:53:54Z</time>
      </trkpt>
      <trkpt lat="44.82764" lon="6.14646">
        <ele>1124.2</ele>
        <time>2024-08-13T09:53:55Z</time>
      </trkpt>
      <trkpt lat="44.82764" lon="6.14646">
        <ele>1124.4</ele>
        <time>2024-08-13T09:53:56Z</time>
      </trkpt>
      <trkpt lat="44.82765" lon="6.14644">
        <ele>1124.8</ele>
        <time>2024-08-13T09:53:57Z</time>
      </trkpt>
      <trkpt lat="44.82765" lon="6.14644">
        <ele>1124.8</ele>
        <time>2024-08-13T09:53:58Z</time>
      </trkpt>
      <trkpt lat="44.82765" lon="6.14644">
        <ele>1125</ele>
        <time>2024-08-13T09:53:59Z</time>
      </trkpt>
      <trkpt lat="44.82767" lon="6.14642">
        <ele>1125.2</ele>
        <time>2024-08-13T09:54:00Z</time>
      </trkpt>
      <trkpt lat="44.82767" lon="6.14642">
        <ele>1125.4</ele>
        <time>2024-08-13T09:54:01Z</time>
      </trkpt>
      <trkpt lat="44.82768" lon="6.1464">
        <ele>1125.6</ele>
        <time>2024-08-13T09:54:02Z</time>
      </trkpt>
      <trkpt lat="44.82768" lon="6.1464">
        <ele>1125.6</ele>
        <time>2024-08-13T09:54:03Z</time>
      </trkpt>
      <trkpt lat="44.82768" lon="6.1464">
        <ele>1125.8</ele>
        <time>2024-08-13T09:54:04Z</time>
      </trkpt>
      <trkpt lat="44.82769" lon="6.14638">
        <ele>1126</ele>
        <time>2024-08-13T09:54:05Z</time>
      </trkpt>
      <trkpt lat="44.82769" lon="6.14638">
        <ele>1126.2</ele>
        <time>2024-08-13T09:54:06Z</time>
      </trkpt>
      <trkpt lat="44.8277" lon="6.14636">
        <ele>1126.6</ele>
        <time>2024-08-13T09:54:07Z</time>
      </trkpt>
      <trkpt lat="44.8277" lon="6.14636">
        <ele>1126.6</ele>
        <time>2024-08-13T09:54:08Z</time>
      </trkpt>
      <trkpt lat="44.8277" lon="6.14636">
        <ele>1126.8</ele>
        <time>2024-08-13T09:54:09Z</time>
      </trkpt>
      <trkpt lat="44.82771" lon="6.14633">
        <ele>1127</ele>
        <time>2024-08-13T09:54:10Z</time>
      </trkpt>
      <trkpt lat="44.82771" lon="6.14633">
        <ele>1127</ele>
        <time>2024-08-13T09:54:11Z</time>
      </trkpt>
      <trkpt lat="44.82771" lon="6.14633">
        <ele>1127</ele>
        <time>2024-08-13T09:54:12Z</time>
      </trkpt>
      <trkpt lat="44.82773" lon="6.1463">
        <ele>1127</ele>
        <time>2024-08-13T09:54:13Z</time>
      </trkpt>
      <trkpt lat="44.82773" lon="6.1463">
        <ele>1127.6</ele>
        <time>2024-08-13T09:54:14Z</time>
      </trkpt>
      <trkpt lat="44.82774" lon="6.14628">
        <ele>1127.6</ele>
        <time>2024-08-13T09:54:15Z</time>
      </trkpt>
      <trkpt lat="44.82774" lon="6.14628">
        <ele>1127.8</ele>
        <time>2024-08-13T09:54:16Z</time>
      </trkpt>
      <trkpt lat="44.82774" lon="6.14628">
        <ele>1127.8</ele>
        <time>2024-08-13T09:54:17Z</time>
      </trkpt>
      <trkpt lat="44.82775" lon="6.14626">
        <ele>1128</ele>
        <time>2024-08-13T09:54:18Z</time>
      </trkpt>
      <trkpt lat="44.82775" lon="6.14626">
        <ele>1128.2</ele>
        <time>2024-08-13T09:54:19Z</time>
      </trkpt>
      <trkpt lat="44.82777" lon="6.14624">
        <ele>1128.4</ele>
        <time>2024-08-13T09:54:20Z</time>
      </trkpt>
      <trkpt lat="44.82777" lon="6.14624">
        <ele>1128.4</ele>
        <time>2024-08-13T09:54:21Z</time>
      </trkpt>
      <trkpt lat="44.82778" lon="6.14622">
        <ele>1128.8</ele>
        <time>2024-08-13T09:54:22Z</time>
      </trkpt>
      <trkpt lat="44.82778" lon="6.14622">
        <ele>1129</ele>
        <time>2024-08-13T09:54:23Z</time>
      </trkpt>
      <trkpt lat="44.82778" lon="6.14622">
        <ele>1129</ele>
        <time>2024-08-13T09:54:24Z</time>
      </trkpt>
      <trkpt lat="44.8278" lon="6.1462">
        <ele>1129.2</ele>
        <time>2024-08-13T09:54:25Z</time>
      </trkpt>
      <trkpt lat="44.8278" lon="6.1462">
        <ele>1129.4</ele>
        <time>2024-08-13T09:54:26Z</time>
      </trkpt>
      <trkpt lat="44.8278" lon="6.1462">
        <ele>1129.6</ele>
        <time>2024-08-13T09:54:27Z</time>
      </trkpt>
      <trkpt lat="44.82782" lon="6.14617">
        <ele>1129.8</ele>
        <time>2024-08-13T09:54:28Z</time>
      </trkpt>
      <trkpt lat="44.82782" lon="6.14617">
        <ele>1130.2</ele>
        <time>2024-08-13T09:54:29Z</time>
      </trkpt>
      <trkpt lat="44.82782" lon="6.14615">
        <ele>1130.4</ele>
        <time>2024-08-13T09:54:30Z</time>
      </trkpt>
      <trkpt lat="44.82782" lon="6.14615">
        <ele>1130.4</ele>
        <time>2024-08-13T09:54:31Z</time>
      </trkpt>
      <trkpt lat="44.82782" lon="6.14615">
        <ele>1130.4</ele>
        <time>2024-08-13T09:54:32Z</time>
      </trkpt>
      <trkpt lat="44.82783" lon="6.14611">
        <ele>1130.6</ele>
        <time>2024-08-13T09:54:33Z</time>
      </trkpt>
      <trkpt lat="44.82783" lon="6.14611">
        <ele>1130.6</ele>
        <time>2024-08-13T09:54:34Z</time>
      </trkpt>
      <trkpt lat="44.82784" lon="6.14608">
        <ele>1130.8</ele>
        <time>2024-08-13T09:54:35Z</time>
      </trkpt>
      <trkpt lat="44.82784" lon="6.14608">
        <ele>1130.8</ele>
        <time>2024-08-13T09:54:36Z</time>
      </trkpt>
      <trkpt lat="44.82784" lon="6.14608">
        <ele>1131</ele>
        <time>2024-08-13T09:54:37Z</time>
      </trkpt>
      <trkpt lat="44.82785" lon="6.14605">
        <ele>1131.2</ele>
        <time>2024-08-13T09:54:38Z</time>
      </trkpt>
      <trkpt lat="44.82785" lon="6.14605">
        <ele>1131.4</ele>
        <time>2024-08-13T09:54:39Z</time>
      </trkpt>
      <trkpt lat="44.82785" lon="6.14605">
        <ele>1131.4</ele>
        <time>2024-08-13T09:54:40Z</time>
      </trkpt>
      <trkpt lat="44.82786" lon="6.14602">
        <ele>1131.8</ele>
        <time>2024-08-13T09:54:41Z</time>
      </trkpt>
      <trkpt lat="44.82786" lon="6.14602">
        <ele>1132</ele>
        <time>2024-08-13T09:54:42Z</time>
      </trkpt>
      <trkpt lat="44.82786" lon="6.14602">
        <ele>1132</ele>
        <time>2024-08-13T09:54:43Z</time>
      </trkpt>
      <trkpt lat="44.82787" lon="6.14599">
        <ele>1132.4</ele>
        <time>2024-08-13T09:54:44Z</time>
      </trkpt>
      <trkpt lat="44.82787" lon="6.14599">
        <ele>1132.6</ele>
        <time>2024-08-13T09:54:45Z</time>
      </trkpt>
      <trkpt lat="44.82787" lon="6.14599">
        <ele>1132.6</ele>
        <time>2024-08-13T09:54:46Z</time>
      </trkpt>
      <trkpt lat="44.82789" lon="6.14597">
        <ele>1132.6</ele>
        <time>2024-08-13T09:54:47Z</time>
      </trkpt>
      <trkpt lat="44.82789" lon="6.14597">
        <ele>1132.8</ele>
        <time>2024-08-13T09:54:48Z</time>
      </trkpt>
      <trkpt lat="44.82789" lon="6.14597">
        <ele>1132.8</ele>
        <time>2024-08-13T09:54:49Z</time>
      </trkpt>
      <trkpt lat="44.8279" lon="6.14595">
        <ele>1133.2</ele>
        <time>2024-08-13T09:54:50Z</time>
      </trkpt>
      <trkpt lat="44.8279" lon="6.14595">
        <ele>1133.4</ele>
        <time>2024-08-13T09:54:51Z</time>
      </trkpt>
      <trkpt lat="44.8279" lon="6.14595">
        <ele>1133.4</ele>
        <time>2024-08-13T09:54:52Z</time>
      </trkpt>
      <trkpt lat="44.82791" lon="6.14591">
        <ele>1133.8</ele>
        <time>2024-08-13T09:54:53Z</time>
      </trkpt>
      <trkpt lat="44.82791" lon="6.14591">
        <ele>1134</ele>
        <time>2024-08-13T09:54:54Z</time>
      </trkpt>
      <trkpt lat="44.82791" lon="6.14591">
        <ele>1134</ele>
        <time>2024-08-13T09:54:55Z</time>
      </trkpt>
      <trkpt lat="44.82793" lon="6.14589">
        <ele>1134</ele>
        <time>2024-08-13T09:54:56Z</time>
      </trkpt>
      <trkpt lat="44.82793" lon="6.14589">
        <ele>1134</ele>
        <time>2024-08-13T09:54:57Z</time>
      </trkpt>
      <trkpt lat="44.82793" lon="6.14589">
        <ele>1134</ele>
        <time>2024-08-13T09:54:58Z</time>
      </trkpt>
      <trkpt lat="44.82795" lon="6.14587">
        <ele>1134.4</ele>
        <time>2024-08-13T09:54:59Z</time>
      </trkpt>
      <trkpt lat="44.82795" lon="6.14587">
        <ele>1134.8</ele>
        <time>2024-08-13T09:55:00Z</time>
      </trkpt>
      <trkpt lat="44.82796" lon="6.14584">
        <ele>1134.8</ele>
        <time>2024-08-13T09:55:01Z</time>
      </trkpt>
      <trkpt lat="44.82796" lon="6.14584">
        <ele>1135.2</ele>
        <time>2024-08-13T09:55:02Z</time>
      </trkpt>
      <trkpt lat="44.82796" lon="6.14584">
        <ele>1135.2</ele>
        <time>2024-08-13T09:55:03Z</time>
      </trkpt>
      <trkpt lat="44.82797" lon="6.14582">
        <ele>1135.4</ele>
        <time>2024-08-13T09:55:04Z</time>
      </trkpt>
      <trkpt lat="44.82797" lon="6.14582">
        <ele>1135.4</ele>
        <time>2024-08-13T09:55:05Z</time>
      </trkpt>
      <trkpt lat="44.82799" lon="6.14581">
        <ele>1135.6</ele>
        <time>2024-08-13T09:55:06Z</time>
      </trkpt>
      <trkpt lat="44.82799" lon="6.14581">
        <ele>1135.8</ele>
        <time>2024-08-13T09:55:07Z</time>
      </trkpt>
      <trkpt lat="44.82799" lon="6.14581">
        <ele>1135.8</ele>
        <time>2024-08-13T09:55:08Z</time>
      </trkpt>
      <trkpt lat="44.828" lon="6.14579">
        <ele>1136</ele>
        <time>2024-08-13T09:55:09Z</time>
      </trkpt>
      <trkpt lat="44.828" lon="6.14579">
        <ele>1136.4</ele>
        <time>2024-08-13T09:55:10Z</time>
      </trkpt>
      <trkpt lat="44.828" lon="6.14579">
        <ele>1136.4</ele>
        <time>2024-08-13T09:55:11Z</time>
      </trkpt>
      <trkpt lat="44.828" lon="6.14579">
        <ele>1136.6</ele>
        <time>2024-08-13T09:55:12Z</time>
      </trkpt>
      <trkpt lat="44.82803" lon="6.14577">
        <ele>1136.6</ele>
        <time>2024-08-13T09:55:13Z</time>
      </trkpt>
      <trkpt lat="44.82803" lon="6.14577">
        <ele>1136.8</ele>
        <time>2024-08-13T09:55:14Z</time>
      </trkpt>
      <trkpt lat="44.82803" lon="6.14577">
        <ele>1137</ele>
        <time>2024-08-13T09:55:15Z</time>
      </trkpt>
      <trkpt lat="44.82803" lon="6.14577">
        <ele>1137.2</ele>
        <time>2024-08-13T09:55:16Z</time>
      </trkpt>
      <trkpt lat="44.82804" lon="6.14574">
        <ele>1137.6</ele>
        <time>2024-08-13T09:55:17Z</time>
      </trkpt>
      <trkpt lat="44.82804" lon="6.14574">
        <ele>1138</ele>
        <time>2024-08-13T09:55:18Z</time>
      </trkpt>
      <trkpt lat="44.82804" lon="6.14574">
        <ele>1138.2</ele>
        <time>2024-08-13T09:55:19Z</time>
      </trkpt>
      <trkpt lat="44.82805" lon="6.14571">
        <ele>1138.4</ele>
        <time>2024-08-13T09:55:20Z</time>
      </trkpt>
      <trkpt lat="44.82805" lon="6.14571">
        <ele>1138.6</ele>
        <time>2024-08-13T09:55:21Z</time>
      </trkpt>
      <trkpt lat="44.82805" lon="6.14571">
        <ele>1138.6</ele>
        <time>2024-08-13T09:55:22Z</time>
      </trkpt>
      <trkpt lat="44.82806" lon="6.14568">
        <ele>1138.8</ele>
        <time>2024-08-13T09:55:23Z</time>
      </trkpt>
      <trkpt lat="44.82806" lon="6.14568">
        <ele>1138.8</ele>
        <time>2024-08-13T09:55:24Z</time>
      </trkpt>
      <trkpt lat="44.82806" lon="6.14568">
        <ele>1138.8</ele>
        <time>2024-08-13T09:55:25Z</time>
      </trkpt>
      <trkpt lat="44.82808" lon="6.14567">
        <ele>1139.2</ele>
        <time>2024-08-13T09:55:26Z</time>
      </trkpt>
      <trkpt lat="44.82808" lon="6.14567">
        <ele>1139.4</ele>
        <time>2024-08-13T09:55:27Z</time>
      </trkpt>
      <trkpt lat="44.82808" lon="6.14567">
        <ele>1139.4</ele>
        <time>2024-08-13T09:55:28Z</time>
      </trkpt>
      <trkpt lat="44.8281" lon="6.14565">
        <ele>1139.4</ele>
        <time>2024-08-13T09:55:29Z</time>
      </trkpt>
      <trkpt lat="44.8281" lon="6.14565">
        <ele>1139.6</ele>
        <time>2024-08-13T09:55:30Z</time>
      </trkpt>
      <trkpt lat="44.8281" lon="6.14565">
        <ele>1140</ele>
        <time>2024-08-13T09:55:31Z</time>
      </trkpt>
      <trkpt lat="44.82812" lon="6.14564">
        <ele>1140</ele>
        <time>2024-08-13T09:55:32Z</time>
      </trkpt>
      <trkpt lat="44.82812" lon="6.14564">
        <ele>1140.6</ele>
        <time>2024-08-13T09:55:33Z</time>
      </trkpt>
      <trkpt lat="44.82812" lon="6.14564">
        <ele>1140.6</ele>
        <time>2024-08-13T09:55:34Z</time>
      </trkpt>
      <trkpt lat="44.82812" lon="6.14564">
        <ele>1140.8</ele>
        <time>2024-08-13T09:55:35Z</time>
      </trkpt>
      <trkpt lat="44.82812" lon="6.14564">
        <ele>1141</ele>
        <time>2024-08-13T09:55:36Z</time>
      </trkpt>
      <trkpt lat="44.82812" lon="6.14564">
        <ele>1141.4</ele>
        <time>2024-08-13T09:55:37Z</time>
      </trkpt>
      <trkpt lat="44.82812" lon="6.14564">
        <ele>1141.4</ele>
        <time>2024-08-13T09:55:38Z</time>
      </trkpt>
      <trkpt lat="44.82812" lon="6.14564">
        <ele>1141.2</ele>
        <time>2024-08-13T09:55:39Z</time>
      </trkpt>
      <trkpt lat="44.82812" lon="6.14564">
        <ele>1141.2</ele>
        <time>2024-08-13T09:55:40Z</time>
      </trkpt>
      <trkpt lat="44.82812" lon="6.14564">
        <ele>1141.4</ele>
        <time>2024-08-13T09:55:41Z</time>
      </trkpt>
      <trkpt lat="44.82812" lon="6.14564">
        <ele>1141.4</ele>
        <time>2024-08-13T09:55:42Z</time>
      </trkpt>
      <trkpt lat="44.82812" lon="6.14564">
        <ele>1141.4</ele>
        <time>2024-08-13T09:55:43Z</time>
      </trkpt>
      <trkpt lat="44.82812" lon="6.14564">
        <ele>1141.4</ele>
        <time>2024-08-13T09:55:44Z</time>
      </trkpt>
      <trkpt lat="44.82812" lon="6.14564">
        <ele>1141.4</ele>
        <time>2024-08-13T09:55:45Z</time>
      </trkpt>
      <trkpt lat="44.82812" lon="6.14564">
        <ele>1141.2</ele>
        <time>2024-08-13T09:55:46Z</time>
      </trkpt>
      <trkpt lat="44.82812" lon="6.14564">
        <ele>1141</ele>
        <time>2024-08-13T09:55:47Z</time>
      </trkpt>
      <trkpt lat="44.82812" lon="6.14564">
        <ele>1141</ele>
        <time>2024-08-13T09:55:48Z</time>
      </trkpt>
      <trkpt lat="44.82812" lon="6.14564">
        <ele>1141</ele>
        <time>2024-08-13T09:55:49Z</time>
      </trkpt>
      <trkpt lat="44.82812" lon="6.14564">
        <ele>1141.2</ele>
        <time>2024-08-13T09:55:50Z</time>
      </trkpt>
      <trkpt lat="44.82812" lon="6.14564">
        <ele>1141.4</ele>
        <time>2024-08-13T09:55:51Z</time>
      </trkpt>
      <trkpt lat="44.82812" lon="6.14564">
        <ele>1141.4</ele>
        <time>2024-08-13T09:55:52Z</time>
      </trkpt>
      <trkpt lat="44.82812" lon="6.14564">
        <ele>1141.4</ele>
        <time>2024-08-13T09:55:53Z</time>
      </trkpt>
      <trkpt lat="44.82812" lon="6.14564">
        <ele>1141.4</ele>
        <time>2024-08-13T09:55:54Z</time>
      </trkpt>
      <trkpt lat="44.82812" lon="6.14564">
        <ele>1141.4</ele>
        <time>2024-08-13T09:55:55Z</time>
      </trkpt>
      <trkpt lat="44.82812" lon="6.14564">
        <ele>1141.2</ele>
        <time>2024-08-13T09:55:56Z</time>
      </trkpt>
      <trkpt lat="44.82812" lon="6.14564">
        <ele>1141.2</ele>
        <time>2024-08-13T09:55:57Z</time>
      </trkpt>
      <trkpt lat="44.82812" lon="6.14564">
        <ele>1141.4</ele>
        <time>2024-08-13T09:55:58Z</time>
      </trkpt>
      <trkpt lat="44.82812" lon="6.14564">
        <ele>1141.4</ele>
        <time>2024-08-13T09:55:59Z</time>
      </trkpt>
      <trkpt lat="44.82812" lon="6.14564">
        <ele>1141.6</ele>
        <time>2024-08-13T09:56:00Z</time>
      </trkpt>
      <trkpt lat="44.82812" lon="6.14564">
        <ele>1141.6</ele>
        <time>2024-08-13T09:56:01Z</time>
      </trkpt>
      <trkpt lat="44.82812" lon="6.14564">
        <ele>1141.8</ele>
        <time>2024-08-13T09:56:02Z</time>
      </trkpt>
      <trkpt lat="44.82812" lon="6.14564">
        <ele>1141.8</ele>
        <time>2024-08-13T09:56:03Z</time>
      </trkpt>
      <trkpt lat="44.82812" lon="6.14564">
        <ele>1141.8</ele>
        <time>2024-08-13T09:56:04Z</time>
      </trkpt>
      <trkpt lat="44.82812" lon="6.14564">
        <ele>1141.6</ele>
        <time>2024-08-13T09:56:05Z</time>
      </trkpt>
      <trkpt lat="44.82812" lon="6.14564">
        <ele>1141.6</ele>
        <time>2024-08-13T09:56:06Z</time>
      </trkpt>
      <trkpt lat="44.82812" lon="6.14564">
        <ele>1141.6</ele>
        <time>2024-08-13T09:56:07Z</time>
      </trkpt>
      <trkpt lat="44.82812" lon="6.14564">
        <ele>1141.8</ele>
        <time>2024-08-13T09:56:08Z</time>
      </trkpt>
      <trkpt lat="44.82812" lon="6.14564">
        <ele>1141.8</ele>
        <time>2024-08-13T09:56:09Z</time>
      </trkpt>
      <trkpt lat="44.82812" lon="6.14564">
        <ele>1141.8</ele>
        <time>2024-08-13T09:56:10Z</time>
      </trkpt>
      <trkpt lat="44.82812" lon="6.14564">
        <ele>1141.8</ele>
        <time>2024-08-13T09:56:11Z</time>
      </trkpt>
      <trkpt lat="44.82812" lon="6.14564">
        <ele>1141.8</ele>
        <time>2024-08-13T09:56:12Z</time>
      </trkpt>
      <trkpt lat="44.82812" lon="6.14564">
        <ele>1141.6</ele>
        <time>2024-08-13T09:56:13Z</time>
      </trkpt>
      <trkpt lat="44.82812" lon="6.14564">
        <ele>1141.6</ele>
        <time>2024-08-13T09:56:14Z</time>
      </trkpt>
      <trkpt lat="44.82812" lon="6.14564">
        <ele>1141.6</ele>
        <time>2024-08-13T09:56:15Z</time>
      </trkpt>
      <trkpt lat="44.82812" lon="6.14564">
        <ele>1141.6</ele>
        <time>2024-08-13T09:56:16Z</time>
      </trkpt>
      <trkpt lat="44.82812" lon="6.14564">
        <ele>1141.6</ele>
        <time>2024-08-13T09:56:17Z</time>
      </trkpt>
      <trkpt lat="44.82812" lon="6.14564">
        <ele>1141.8</ele>
        <time>2024-08-13T09:56:18Z</time>
      </trkpt>
      <trkpt lat="44.82812" lon="6.14564">
        <ele>1141.8</ele>
        <time>2024-08-13T09:56:19Z</time>
      </trkpt>
      <trkpt lat="44.82812" lon="6.14564">
        <ele>1141.8</ele>
        <time>2024-08-13T09:56:20Z</time>
      </trkpt>
      <trkpt lat="44.82812" lon="6.14564">
        <ele>1141.8</ele>
        <time>2024-08-13T09:56:21Z</time>
      </trkpt>
      <trkpt lat="44.82812" lon="6.14564">
        <ele>1141.8</ele>
        <time>2024-08-13T09:56:22Z</time>
      </trkpt>
      <trkpt lat="44.82812" lon="6.14564">
        <ele>1141.8</ele>
        <time>2024-08-13T09:56:23Z</time>
      </trkpt>
      <trkpt lat="44.82812" lon="6.14564">
        <ele>1141.6</ele>
        <time>2024-08-13T09:56:24Z</time>
      </trkpt>
      <trkpt lat="44.82812" lon="6.14564">
        <ele>1141.8</ele>
        <time>2024-08-13T09:56:25Z</time>
      </trkpt>
      <trkpt lat="44.82812" lon="6.14564">
        <ele>1141.8</ele>
        <time>2024-08-13T09:56:26Z</time>
      </trkpt>
      <trkpt lat="44.82812" lon="6.14564">
        <ele>1142</ele>
        <time>2024-08-13T09:56:27Z</time>
      </trkpt>
      <trkpt lat="44.82812" lon="6.14564">
        <ele>1142</ele>
        <time>2024-08-13T09:56:28Z</time>
      </trkpt>
      <trkpt lat="44.82812" lon="6.14564">
        <ele>1142</ele>
        <time>2024-08-13T09:56:29Z</time>
      </trkpt>
      <trkpt lat="44.82812" lon="6.14564">
        <ele>1142</ele>
        <time>2024-08-13T09:56:30Z</time>
      </trkpt>
      <trkpt lat="44.82812" lon="6.14564">
        <ele>1142.2</ele>
        <time>2024-08-13T09:56:31Z</time>
      </trkpt>
      <trkpt lat="44.82812" lon="6.14564">
        <ele>1142.2</ele>
        <time>2024-08-13T09:56:32Z</time>
      </trkpt>
      <trkpt lat="44.82812" lon="6.14564">
        <ele>1142.2</ele>
        <time>2024-08-13T09:56:33Z</time>
      </trkpt>
      <trkpt lat="44.82812" lon="6.14564">
        <ele>1142.2</ele>
        <time>2024-08-13T09:56:34Z</time>
      </trkpt>
      <trkpt lat="44.82812" lon="6.14564">
        <ele>1142.2</ele>
        <time>2024-08-13T09:56:35Z</time>
      </trkpt>
      <trkpt lat="44.82812" lon="6.14564">
        <ele>1142</ele>
        <time>2024-08-13T09:56:36Z</time>
      </trkpt>
      <trkpt lat="44.82812" lon="6.14564">
        <ele>1141.8</ele>
        <time>2024-08-13T09:56:37Z</time>
      </trkpt>
      <trkpt lat="44.82812" lon="6.14564">
        <ele>1141.8</ele>
        <time>2024-08-13T09:56:38Z</time>
      </trkpt>
      <trkpt lat="44.82812" lon="6.14564">
        <ele>1142.2</ele>
        <time>2024-08-13T09:56:39Z</time>
      </trkpt>
      <trkpt lat="44.82812" lon="6.14564">
        <ele>1142.2</ele>
        <time>2024-08-13T09:56:40Z</time>
      </trkpt>
      <trkpt lat="44.82812" lon="6.14564">
        <ele>1142</ele>
        <time>2024-08-13T09:56:41Z</time>
      </trkpt>
      <trkpt lat="44.82812" lon="6.14564">
        <ele>1142</ele>
        <time>2024-08-13T09:56:42Z</time>
      </trkpt>
      <trkpt lat="44.82812" lon="6.14564">
        <ele>1142.2</ele>
        <time>2024-08-13T09:56:43Z</time>
      </trkpt>
      <trkpt lat="44.82812" lon="6.14564">
        <ele>1142.4</ele>
        <time>2024-08-13T09:56:44Z</time>
      </trkpt>
      <trkpt lat="44.82812" lon="6.14564">
        <ele>1142.4</ele>
        <time>2024-08-13T09:56:45Z</time>
      </trkpt>
      <trkpt lat="44.82812" lon="6.14564">
        <ele>1142.2</ele>
        <time>2024-08-13T09:56:46Z</time>
      </trkpt>
      <trkpt lat="44.82812" lon="6.14564">
        <ele>1142.2</ele>
        <time>2024-08-13T09:56:47Z</time>
      </trkpt>
      <trkpt lat="44.82812" lon="6.14564">
        <ele>1142.4</ele>
        <time>2024-08-13T09:56:48Z</time>
      </trkpt>
      <trkpt lat="44.82812" lon="6.14564">
        <ele>1142.4</ele>
        <time>2024-08-13T09:56:49Z</time>
      </trkpt>
      <trkpt lat="44.82812" lon="6.14564">
        <ele>1143</ele>
        <time>2024-08-13T09:56:50Z</time>
      </trkpt>
      <trkpt lat="44.82812" lon="6.14564">
        <ele>1143.2</ele>
        <time>2024-08-13T09:56:51Z</time>
      </trkpt>
      <trkpt lat="44.82812" lon="6.14564">
        <ele>1143.2</ele>
        <time>2024-08-13T09:56:52Z</time>
      </trkpt>
      <trkpt lat="44.82812" lon="6.14564">
        <ele>1143</ele>
        <time>2024-08-13T09:56:53Z</time>
      </trkpt>
      <trkpt lat="44.82812" lon="6.14564">
        <ele>1143</ele>
        <time>2024-08-13T09:56:54Z</time>
      </trkpt>
      <trkpt lat="44.82812" lon="6.14564">
        <ele>1143.2</ele>
        <time>2024-08-13T09:56:55Z</time>
      </trkpt>
      <trkpt lat="44.82812" lon="6.14564">
        <ele>1143.2</ele>
        <time>2024-08-13T09:56:56Z</time>
      </trkpt>
      <trkpt lat="44.82812" lon="6.14564">
        <ele>1143.2</ele>
        <time>2024-08-13T09:56:57Z</time>
      </trkpt>
      <trkpt lat="44.82812" lon="6.14564">
        <ele>1143.4</ele>
        <time>2024-08-13T09:56:58Z</time>
      </trkpt>
      <trkpt lat="44.82812" lon="6.14564">
        <ele>1143.6</ele>
        <time>2024-08-13T09:56:59Z</time>
      </trkpt>
      <trkpt lat="44.82814" lon="6.14561">
        <ele>1143.6</ele>
        <time>2024-08-13T09:57:00Z</time>
      </trkpt>
      <trkpt lat="44.82814" lon="6.14561">
        <ele>1143.6</ele>
        <time>2024-08-13T09:57:01Z</time>
      </trkpt>
      <trkpt lat="44.82816" lon="6.14559">
        <ele>1143.8</ele>
        <time>2024-08-13T09:57:02Z</time>
      </trkpt>
      <trkpt lat="44.82816" lon="6.14559">
        <ele>1143.8</ele>
        <time>2024-08-13T09:57:03Z</time>
      </trkpt>
      <trkpt lat="44.82818" lon="6.14557">
        <ele>1144.2</ele>
        <time>2024-08-13T09:57:04Z</time>
      </trkpt>
      <trkpt lat="44.82818" lon="6.14557">
        <ele>1144.2</ele>
        <time>2024-08-13T09:57:05Z</time>
      </trkpt>
      <trkpt lat="44.8282" lon="6.14555">
        <ele>1144.2</ele>
        <time>2024-08-13T09:57:06Z</time>
      </trkpt>
      <trkpt lat="44.8282" lon="6.14555">
        <ele>1145</ele>
        <time>2024-08-13T09:57:07Z</time>
      </trkpt>
      <trkpt lat="44.8282" lon="6.14555">
        <ele>1145</ele>
        <time>2024-08-13T09:57:08Z</time>
      </trkpt>
      <trkpt lat="44.82822" lon="6.14554">
        <ele>1145</ele>
        <time>2024-08-13T09:57:09Z</time>
      </trkpt>
      <trkpt lat="44.82822" lon="6.14554">
        <ele>1145</ele>
        <time>2024-08-13T09:57:10Z</time>
      </trkpt>
      <trkpt lat="44.82822" lon="6.14554">
        <ele>1145.6</ele>
        <time>2024-08-13T09:57:11Z</time>
      </trkpt>
      <trkpt lat="44.82823" lon="6.14552">
        <ele>1145.6</ele>
        <time>2024-08-13T09:57:12Z</time>
      </trkpt>
      <trkpt lat="44.82823" lon="6.14552">
        <ele>1145.6</ele>
        <time>2024-08-13T09:57:13Z</time>
      </trkpt>
      <trkpt lat="44.82823" lon="6.14552">
        <ele>1146</ele>
        <time>2024-08-13T09:57:14Z</time>
      </trkpt>
      <trkpt lat="44.82825" lon="6.1455">
        <ele>1146.2</ele>
        <time>2024-08-13T09:57:15Z</time>
      </trkpt>
      <trkpt lat="44.82825" lon="6.1455">
        <ele>1146.2</ele>
        <time>2024-08-13T09:57:16Z</time>
      </trkpt>
      <trkpt lat="44.82825" lon="6.1455">
        <ele>1146.6</ele>
        <time>2024-08-13T09:57:17Z</time>
      </trkpt>
      <trkpt lat="44.82826" lon="6.14548">
        <ele>1146.6</ele>
        <time>2024-08-13T09:57:18Z</time>
      </trkpt>
      <trkpt lat="44.82826" lon="6.14548">
        <ele>1147</ele>
        <time>2024-08-13T09:57:19Z</time>
      </trkpt>
      <trkpt lat="44.82826" lon="6.14548">
        <ele>1147.2</ele>
        <time>2024-08-13T09:57:20Z</time>
      </trkpt>
      <trkpt lat="44.82828" lon="6.14545">
        <ele>1147.4</ele>
        <time>2024-08-13T09:57:21Z</time>
      </trkpt>
      <trkpt lat="44.82828" lon="6.14545">
        <ele>1147.4</ele>
        <time>2024-08-13T09:57:22Z</time>
      </trkpt>
      <trkpt lat="44.82829" lon="6.14543">
        <ele>1147.6</ele>
        <time>2024-08-13T09:57:23Z</time>
      </trkpt>
      <trkpt lat="44.82829" lon="6.14543">
        <ele>1147.6</ele>
        <time>2024-08-13T09:57:24Z</time>
      </trkpt>
      <trkpt lat="44.8283" lon="6.1454">
        <ele>1147.6</ele>
        <time>2024-08-13T09:57:25Z</time>
      </trkpt>
      <trkpt lat="44.8283" lon="6.1454">
        <ele>1147.8</ele>
        <time>2024-08-13T09:57:26Z</time>
      </trkpt>
      <trkpt lat="44.8283" lon="6.1454">
        <ele>1147.8</ele>
        <time>2024-08-13T09:57:27Z</time>
      </trkpt>
      <trkpt lat="44.82831" lon="6.14537">
        <ele>1148</ele>
        <time>2024-08-13T09:57:28Z</time>
      </trkpt>
      <trkpt lat="44.82831" lon="6.14537">
        <ele>1148.2</ele>
        <time>2024-08-13T09:57:29Z</time>
      </trkpt>
      <trkpt lat="44.82832" lon="6.14535">
        <ele>1148.4</ele>
        <time>2024-08-13T09:57:30Z</time>
      </trkpt>
      <trkpt lat="44.82832" lon="6.14535">
        <ele>1148.6</ele>
        <time>2024-08-13T09:57:31Z</time>
      </trkpt>
      <trkpt lat="44.82832" lon="6.14535">
        <ele>1148.6</ele>
        <time>2024-08-13T09:57:32Z</time>
      </trkpt>
      <trkpt lat="44.82833" lon="6.14532">
        <ele>1149</ele>
        <time>2024-08-13T09:57:33Z</time>
      </trkpt>
      <trkpt lat="44.82833" lon="6.14532">
        <ele>1149</ele>
        <time>2024-08-13T09:57:34Z</time>
      </trkpt>
      <trkpt lat="44.82834" lon="6.1453">
        <ele>1149</ele>
        <time>2024-08-13T09:57:35Z</time>
      </trkpt>
      <trkpt lat="44.82834" lon="6.1453">
        <ele>1149.2</ele>
        <time>2024-08-13T09:57:36Z</time>
      </trkpt>
      <trkpt lat="44.82834" lon="6.1453">
        <ele>1149.2</ele>
        <time>2024-08-13T09:57:37Z</time>
      </trkpt>
      <trkpt lat="44.82836" lon="6.14528">
        <ele>1149.8</ele>
        <time>2024-08-13T09:57:38Z</time>
      </trkpt>
      <trkpt lat="44.82836" lon="6.14528">
        <ele>1149.8</ele>
        <time>2024-08-13T09:57:39Z</time>
      </trkpt>
      <trkpt lat="44.82836" lon="6.14528">
        <ele>1150</ele>
        <time>2024-08-13T09:57:40Z</time>
      </trkpt>
      <trkpt lat="44.82837" lon="6.14525">
        <ele>1150.2</ele>
        <time>2024-08-13T09:57:41Z</time>
      </trkpt>
      <trkpt lat="44.82837" lon="6.14525">
        <ele>1150.2</ele>
        <time>2024-08-13T09:57:42Z</time>
      </trkpt>
      <trkpt lat="44.82837" lon="6.14525">
        <ele>1150.2</ele>
        <time>2024-08-13T09:57:43Z</time>
      </trkpt>
      <trkpt lat="44.82838" lon="6.14523">
        <ele>1150.4</ele>
        <time>2024-08-13T09:57:44Z</time>
      </trkpt>
      <trkpt lat="44.82838" lon="6.14523">
        <ele>1150.6</ele>
        <time>2024-08-13T09:57:45Z</time>
      </trkpt>
      <trkpt lat="44.82838" lon="6.14523">
        <ele>1150.8</ele>
        <time>2024-08-13T09:57:46Z</time>
      </trkpt>
      <trkpt lat="44.8284" lon="6.14521">
        <ele>1150.8</ele>
        <time>2024-08-13T09:57:47Z</time>
      </trkpt>
      <trkpt lat="44.8284" lon="6.14521">
        <ele>1151</ele>
        <time>2024-08-13T09:57:48Z</time>
      </trkpt>
      <trkpt lat="44.8284" lon="6.14521">
        <ele>1151</ele>
        <time>2024-08-13T09:57:49Z</time>
      </trkpt>
      <trkpt lat="44.82841" lon="6.14519">
        <ele>1151.4</ele>
        <time>2024-08-13T09:57:50Z</time>
      </trkpt>
      <trkpt lat="44.82841" lon="6.14519">
        <ele>1151.8</ele>
        <time>2024-08-13T09:57:51Z</time>
      </trkpt>
      <trkpt lat="44.82841" lon="6.14519">
        <ele>1151.8</ele>
        <time>2024-08-13T09:57:52Z</time>
      </trkpt>
      <trkpt lat="44.82842" lon="6.14516">
        <ele>1152</ele>
        <time>2024-08-13T09:57:53Z</time>
      </trkpt>
      <trkpt lat="44.82842" lon="6.14516">
        <ele>1152.4</ele>
        <time>2024-08-13T09:57:54Z</time>
      </trkpt>
      <trkpt lat="44.82842" lon="6.14516">
        <ele>1152.6</ele>
        <time>2024-08-13T09:57:55Z</time>
      </trkpt>
      <trkpt lat="44.82844" lon="6.14513">
        <ele>1152.6</ele>
        <time>2024-08-13T09:57:56Z</time>
      </trkpt>
      <trkpt lat="44.82844" lon="6.14513">
        <ele>1152.8</ele>
        <time>2024-08-13T09:57:57Z</time>
      </trkpt>
      <trkpt lat="44.82844" lon="6.14513">
        <ele>1152.8</ele>
        <time>2024-08-13T09:57:58Z</time>
      </trkpt>
      <trkpt lat="44.82845" lon="6.14511">
        <ele>1153</ele>
        <time>2024-08-13T09:57:59Z</time>
      </trkpt>
      <trkpt lat="44.82845" lon="6.14511">
        <ele>1153.2</ele>
        <time>2024-08-13T09:58:00Z</time>
      </trkpt>
      <trkpt lat="44.82845" lon="6.14511">
        <ele>1153.2</ele>
        <time>2024-08-13T09:58:01Z</time>
      </trkpt>
      <trkpt lat="44.82847" lon="6.14509">
        <ele>1153.4</ele>
        <time>2024-08-13T09:58:02Z</time>
      </trkpt>
      <trkpt lat="44.82847" lon="6.14509">
        <ele>1153.4</ele>
        <time>2024-08-13T09:58:03Z</time>
      </trkpt>
      <trkpt lat="44.82847" lon="6.14509">
        <ele>1154</ele>
        <time>2024-08-13T09:58:04Z</time>
      </trkpt>
      <trkpt lat="44.8285" lon="6.14508">
        <ele>1154.2</ele>
        <time>2024-08-13T09:58:05Z</time>
      </trkpt>
      <trkpt lat="44.8285" lon="6.14508">
        <ele>1154.2</ele>
        <time>2024-08-13T09:58:06Z</time>
      </trkpt>
      <trkpt lat="44.8285" lon="6.14508">
        <ele>1154.2</ele>
        <time>2024-08-13T09:58:07Z</time>
      </trkpt>
      <trkpt lat="44.82852" lon="6.14508">
        <ele>1154.2</ele>
        <time>2024-08-13T09:58:08Z</time>
      </trkpt>
      <trkpt lat="44.82852" lon="6.14508">
        <ele>1154.6</ele>
        <time>2024-08-13T09:58:09Z</time>
      </trkpt>
      <trkpt lat="44.82852" lon="6.14508">
        <ele>1154.8</ele>
        <time>2024-08-13T09:58:10Z</time>
      </trkpt>
      <trkpt lat="44.82853" lon="6.14505">
        <ele>1154.8</ele>
        <time>2024-08-13T09:58:11Z</time>
      </trkpt>
      <trkpt lat="44.82853" lon="6.14505">
        <ele>1155</ele>
        <time>2024-08-13T09:58:12Z</time>
      </trkpt>
      <trkpt lat="44.82853" lon="6.14505">
        <ele>1155.2</ele>
        <time>2024-08-13T09:58:13Z</time>
      </trkpt>
      <trkpt lat="44.82855" lon="6.14502">
        <ele>1155.2</ele>
        <time>2024-08-13T09:58:14Z</time>
      </trkpt>
      <trkpt lat="44.82855" lon="6.14502">
        <ele>1155.8</ele>
        <time>2024-08-13T09:58:15Z</time>
      </trkpt>
      <trkpt lat="44.82855" lon="6.14502">
        <ele>1155.8</ele>
        <time>2024-08-13T09:58:16Z</time>
      </trkpt>
      <trkpt lat="44.82856" lon="6.14501">
        <ele>1155.8</ele>
        <time>2024-08-13T09:58:17Z</time>
      </trkpt>
      <trkpt lat="44.82856" lon="6.14501">
        <ele>1156.2</ele>
        <time>2024-08-13T09:58:18Z</time>
      </trkpt>
      <trkpt lat="44.82856" lon="6.14501">
        <ele>1156.2</ele>
        <time>2024-08-13T09:58:19Z</time>
      </trkpt>
      <trkpt lat="44.82856" lon="6.14501">
        <ele>1156.4</ele>
        <time>2024-08-13T09:58:20Z</time>
      </trkpt>
      <trkpt lat="44.82859" lon="6.145">
        <ele>1156.8</ele>
        <time>2024-08-13T09:58:21Z</time>
      </trkpt>
      <trkpt lat="44.82859" lon="6.145">
        <ele>1157</ele>
        <time>2024-08-13T09:58:22Z</time>
      </trkpt>
      <trkpt lat="44.82859" lon="6.145">
        <ele>1157.2</ele>
        <time>2024-08-13T09:58:23Z</time>
      </trkpt>
      <trkpt lat="44.8286" lon="6.14497">
        <ele>1157.2</ele>
        <time>2024-08-13T09:58:24Z</time>
      </trkpt>
      <trkpt lat="44.8286" lon="6.14497">
        <ele>1157.4</ele>
        <time>2024-08-13T09:58:25Z</time>
      </trkpt>
      <trkpt lat="44.8286" lon="6.14497">
        <ele>1157.6</ele>
        <time>2024-08-13T09:58:26Z</time>
      </trkpt>
      <trkpt lat="44.82861" lon="6.14494">
        <ele>1157.8</ele>
        <time>2024-08-13T09:58:27Z</time>
      </trkpt>
      <trkpt lat="44.82861" lon="6.14494">
        <ele>1157.8</ele>
        <time>2024-08-13T09:58:28Z</time>
      </trkpt>
      <trkpt lat="44.82861" lon="6.14494">
        <ele>1158</ele>
        <time>2024-08-13T09:58:29Z</time>
      </trkpt>
      <trkpt lat="44.82861" lon="6.14494">
        <ele>1158.2</ele>
        <time>2024-08-13T09:58:30Z</time>
      </trkpt>
      <trkpt lat="44.82863" lon="6.14493">
        <ele>1158.4</ele>
        <time>2024-08-13T09:58:31Z</time>
      </trkpt>
      <trkpt lat="44.82863" lon="6.14493">
        <ele>1158.4</ele>
        <time>2024-08-13T09:58:32Z</time>
      </trkpt>
      <trkpt lat="44.82863" lon="6.14493">
        <ele>1158.6</ele>
        <time>2024-08-13T09:58:33Z</time>
      </trkpt>
      <trkpt lat="44.82865" lon="6.1449">
        <ele>1158.8</ele>
        <time>2024-08-13T09:58:34Z</time>
      </trkpt>
      <trkpt lat="44.82865" lon="6.1449">
        <ele>1159.2</ele>
        <time>2024-08-13T09:58:35Z</time>
      </trkpt>
      <trkpt lat="44.82865" lon="6.1449">
        <ele>1159.6</ele>
        <time>2024-08-13T09:58:36Z</time>
      </trkpt>
      <trkpt lat="44.82866" lon="6.14487">
        <ele>1159.6</ele>
        <time>2024-08-13T09:58:37Z</time>
      </trkpt>
      <trkpt lat="44.82866" lon="6.14487">
        <ele>1159.6</ele>
        <time>2024-08-13T09:58:38Z</time>
      </trkpt>
      <trkpt lat="44.82867" lon="6.14485">
        <ele>1160.2</ele>
        <time>2024-08-13T09:58:39Z</time>
      </trkpt>
      <trkpt lat="44.82867" lon="6.14485">
        <ele>1160.2</ele>
        <time>2024-08-13T09:58:40Z</time>
      </trkpt>
      <trkpt lat="44.82868" lon="6.14482">
        <ele>1160.4</ele>
        <time>2024-08-13T09:58:41Z</time>
      </trkpt>
      <trkpt lat="44.82868" lon="6.14482">
        <ele>1160.4</ele>
        <time>2024-08-13T09:58:42Z</time>
      </trkpt>
      <trkpt lat="44.82868" lon="6.14482">
        <ele>1160.6</ele>
        <time>2024-08-13T09:58:43Z</time>
      </trkpt>
      <trkpt lat="44.82869" lon="6.14479">
        <ele>1160.6</ele>
        <time>2024-08-13T09:58:44Z</time>
      </trkpt>
      <trkpt lat="44.82869" lon="6.14479">
        <ele>1160.8</ele>
        <time>2024-08-13T09:58:45Z</time>
      </trkpt>
      <trkpt lat="44.82869" lon="6.14479">
        <ele>1160.8</ele>
        <time>2024-08-13T09:58:46Z</time>
      </trkpt>
      <trkpt lat="44.82871" lon="6.14477">
        <ele>1160.8</ele>
        <time>2024-08-13T09:58:47Z</time>
      </trkpt>
      <trkpt lat="44.82871" lon="6.14477">
        <ele>1161.6</ele>
        <time>2024-08-13T09:58:48Z</time>
      </trkpt>
      <trkpt lat="44.82871" lon="6.14477">
        <ele>1161.6</ele>
        <time>2024-08-13T09:58:49Z</time>
      </trkpt>
      <trkpt lat="44.82873" lon="6.14474">
        <ele>1161.8</ele>
        <time>2024-08-13T09:58:50Z</time>
      </trkpt>
      <trkpt lat="44.82873" lon="6.14474">
        <ele>1162</ele>
        <time>2024-08-13T09:58:51Z</time>
      </trkpt>
      <trkpt lat="44.82873" lon="6.14474">
        <ele>1162</ele>
        <time>2024-08-13T09:58:52Z</time>
      </trkpt>
      <trkpt lat="44.82873" lon="6.14474">
        <ele>1162.4</ele>
        <time>2024-08-13T09:58:53Z</time>
      </trkpt>
      <trkpt lat="44.82874" lon="6.14472">
        <ele>1162.4</ele>
        <time>2024-08-13T09:58:54Z</time>
      </trkpt>
      <trkpt lat="44.82874" lon="6.14472">
        <ele>1162.4</ele>
        <time>2024-08-13T09:58:55Z</time>
      </trkpt>
      <trkpt lat="44.82874" lon="6.14472">
        <ele>1162.4</ele>
        <time>2024-08-13T09:58:56Z</time>
      </trkpt>
      <trkpt lat="44.82876" lon="6.14469">
        <ele>1162.8</ele>
        <time>2024-08-13T09:58:57Z</time>
      </trkpt>
      <trkpt lat="44.82876" lon="6.14469">
        <ele>1162.8</ele>
        <time>2024-08-13T09:58:58Z</time>
      </trkpt>
      <trkpt lat="44.82876" lon="6.14469">
        <ele>1163.4</ele>
        <time>2024-08-13T09:58:59Z</time>
      </trkpt>
      <trkpt lat="44.82877" lon="6.14467">
        <ele>1163.4</ele>
        <time>2024-08-13T09:59:00Z</time>
      </trkpt>
      <trkpt lat="44.82877" lon="6.14467">
        <ele>1163.4</ele>
        <time>2024-08-13T09:59:01Z</time>
      </trkpt>
      <trkpt lat="44.82877" lon="6.14467">
        <ele>1163.8</ele>
        <time>2024-08-13T09:59:02Z</time>
      </trkpt>
      <trkpt lat="44.82878" lon="6.14465">
        <ele>1163.8</ele>
        <time>2024-08-13T09:59:03Z</time>
      </trkpt>
      <trkpt lat="44.82878" lon="6.14465">
        <ele>1163.8</ele>
        <time>2024-08-13T09:59:04Z</time>
      </trkpt>
      <trkpt lat="44.82878" lon="6.14465">
        <ele>1164.2</ele>
        <time>2024-08-13T09:59:05Z</time>
      </trkpt>
      <trkpt lat="44.82878" lon="6.14462">
        <ele>1164.2</ele>
        <time>2024-08-13T09:59:06Z</time>
      </trkpt>
      <trkpt lat="44.82878" lon="6.14462">
        <ele>1164.6</ele>
        <time>2024-08-13T09:59:07Z</time>
      </trkpt>
      <trkpt lat="44.82879" lon="6.1446">
        <ele>1165</ele>
        <time>2024-08-13T09:59:08Z</time>
      </trkpt>
      <trkpt lat="44.82879" lon="6.1446">
        <ele>1165</ele>
        <time>2024-08-13T09:59:09Z</time>
      </trkpt>
      <trkpt lat="44.82879" lon="6.1446">
        <ele>1165.2</ele>
        <time>2024-08-13T09:59:10Z</time>
      </trkpt>
      <trkpt lat="44.82881" lon="6.14458">
        <ele>1165.2</ele>
        <time>2024-08-13T09:59:11Z</time>
      </trkpt>
      <trkpt lat="44.82881" lon="6.14458">
        <ele>1165.4</ele>
        <time>2024-08-13T09:59:12Z</time>
      </trkpt>
      <trkpt lat="44.82881" lon="6.14458">
        <ele>1165.8</ele>
        <time>2024-08-13T09:59:13Z</time>
      </trkpt>
      <trkpt lat="44.82881" lon="6.14458">
        <ele>1165.8</ele>
        <time>2024-08-13T09:59:14Z</time>
      </trkpt>
      <trkpt lat="44.82883" lon="6.14455">
        <ele>1165.8</ele>
        <time>2024-08-13T09:59:15Z</time>
      </trkpt>
      <trkpt lat="44.82883" lon="6.14455">
        <ele>1165.8</ele>
        <time>2024-08-13T09:59:16Z</time>
      </trkpt>
      <trkpt lat="44.82883" lon="6.14455">
        <ele>1166.2</ele>
        <time>2024-08-13T09:59:17Z</time>
      </trkpt>
      <trkpt lat="44.82885" lon="6.14452">
        <ele>1166.4</ele>
        <time>2024-08-13T09:59:18Z</time>
      </trkpt>
      <trkpt lat="44.82885" lon="6.14452">
        <ele>1166.8</ele>
        <time>2024-08-13T09:59:19Z</time>
      </trkpt>
      <trkpt lat="44.82886" lon="6.14451">
        <ele>1166.8</ele>
        <time>2024-08-13T09:59:20Z</time>
      </trkpt>
      <trkpt lat="44.82886" lon="6.14451">
        <ele>1166.8</ele>
        <time>2024-08-13T09:59:21Z</time>
      </trkpt>
      <trkpt lat="44.82888" lon="6.14449">
        <ele>1167.2</ele>
        <time>2024-08-13T09:59:22Z</time>
      </trkpt>
      <trkpt lat="44.82888" lon="6.14449">
        <ele>1167.2</ele>
        <time>2024-08-13T09:59:23Z</time>
      </trkpt>
      <trkpt lat="44.82889" lon="6.14447">
        <ele>1167.4</ele>
        <time>2024-08-13T09:59:24Z</time>
      </trkpt>
      <trkpt lat="44.82889" lon="6.14447">
        <ele>1167.6</ele>
        <time>2024-08-13T09:59:25Z</time>
      </trkpt>
      <trkpt lat="44.82889" lon="6.14447">
        <ele>1167.8</ele>
        <time>2024-08-13T09:59:26Z</time>
      </trkpt>
      <trkpt lat="44.82891" lon="6.14445">
        <ele>1167.8</ele>
        <time>2024-08-13T09:59:27Z</time>
      </trkpt>
      <trkpt lat="44.82891" lon="6.14445">
        <ele>1168</ele>
        <time>2024-08-13T09:59:28Z</time>
      </trkpt>
      <trkpt lat="44.82891" lon="6.14445">
        <ele>1168</ele>
        <time>2024-08-13T09:59:29Z</time>
      </trkpt>
      <trkpt lat="44.82893" lon="6.14441">
        <ele>1168.2</ele>
        <time>2024-08-13T09:59:30Z</time>
      </trkpt>
      <trkpt lat="44.82893" lon="6.14441">
        <ele>1168.4</ele>
        <time>2024-08-13T09:59:31Z</time>
      </trkpt>
      <trkpt lat="44.82893" lon="6.14439">
        <ele>1168.6</ele>
        <time>2024-08-13T09:59:32Z</time>
      </trkpt>
      <trkpt lat="44.82893" lon="6.14439">
        <ele>1168.8</ele>
        <time>2024-08-13T09:59:33Z</time>
      </trkpt>
      <trkpt lat="44.82894" lon="6.14436">
        <ele>1168.8</ele>
        <time>2024-08-13T09:59:34Z</time>
      </trkpt>
      <trkpt lat="44.82894" lon="6.14436">
        <ele>1168.8</ele>
        <time>2024-08-13T09:59:35Z</time>
      </trkpt>
      <trkpt lat="44.82895" lon="6.14434">
        <ele>1168.8</ele>
        <time>2024-08-13T09:59:36Z</time>
      </trkpt>
      <trkpt lat="44.82895" lon="6.14434">
        <ele>1168.8</ele>
        <time>2024-08-13T09:59:37Z</time>
      </trkpt>
      <trkpt lat="44.82897" lon="6.14432">
        <ele>1168.8</ele>
        <time>2024-08-13T09:59:38Z</time>
      </trkpt>
      <trkpt lat="44.82897" lon="6.14432">
        <ele>1168.8</ele>
        <time>2024-08-13T09:59:39Z</time>
      </trkpt>
      <trkpt lat="44.82897" lon="6.14432">
        <ele>1168.8</ele>
        <time>2024-08-13T09:59:40Z</time>
      </trkpt>
      <trkpt lat="44.82898" lon="6.14429">
        <ele>1169.2</ele>
        <time>2024-08-13T09:59:41Z</time>
      </trkpt>
      <trkpt lat="44.82898" lon="6.14429">
        <ele>1169.4</ele>
        <time>2024-08-13T09:59:42Z</time>
      </trkpt>
      <trkpt lat="44.829" lon="6.14428">
        <ele>1169.6</ele>
        <time>2024-08-13T09:59:43Z</time>
      </trkpt>
      <trkpt lat="44.829" lon="6.14428">
        <ele>1169.8</ele>
        <time>2024-08-13T09:59:44Z</time>
      </trkpt>
      <trkpt lat="44.82901" lon="6.14426">
        <ele>1170.2</ele>
        <time>2024-08-13T09:59:45Z</time>
      </trkpt>
      <trkpt lat="44.82901" lon="6.14426">
        <ele>1170.2</ele>
        <time>2024-08-13T09:59:46Z</time>
      </trkpt>
      <trkpt lat="44.82901" lon="6.14426">
        <ele>1170.4</ele>
        <time>2024-08-13T09:59:47Z</time>
      </trkpt>
      <trkpt lat="44.82904" lon="6.14423">
        <ele>1170.4</ele>
        <time>2024-08-13T09:59:48Z</time>
      </trkpt>
      <trkpt lat="44.82904" lon="6.14423">
        <ele>1170.4</ele>
        <time>2024-08-13T09:59:49Z</time>
      </trkpt>
      <trkpt lat="44.82905" lon="6.14422">
        <ele>1171</ele>
        <time>2024-08-13T09:59:50Z</time>
      </trkpt>
      <trkpt lat="44.82905" lon="6.14422">
        <ele>1171.2</ele>
        <time>2024-08-13T09:59:51Z</time>
      </trkpt>
      <trkpt lat="44.82905" lon="6.14422">
        <ele>1171.4</ele>
        <time>2024-08-13T09:59:52Z</time>
      </trkpt>
      <trkpt lat="44.82906" lon="6.14419">
        <ele>1171.6</ele>
        <time>2024-08-13T09:59:53Z</time>
      </trkpt>
      <trkpt lat="44.82906" lon="6.14419">
        <ele>1171.6</ele>
        <time>2024-08-13T09:59:54Z</time>
      </trkpt>
      <trkpt lat="44.82908" lon="6.14418">
        <ele>1171.6</ele>
        <time>2024-08-13T09:59:55Z</time>
      </trkpt>
      <trkpt lat="44.82908" lon="6.14418">
        <ele>1171.8</ele>
        <time>2024-08-13T09:59:56Z</time>
      </trkpt>
      <trkpt lat="44.82909" lon="6.14416">
        <ele>1171.8</ele>
        <time>2024-08-13T09:59:57Z</time>
      </trkpt>
      <trkpt lat="44.82909" lon="6.14416">
        <ele>1172</ele>
        <time>2024-08-13T09:59:58Z</time>
      </trkpt>
      <trkpt lat="44.82909" lon="6.14416">
        <ele>1172.2</ele>
        <time>2024-08-13T09:59:59Z</time>
      </trkpt>
      <trkpt lat="44.82911" lon="6.14414">
        <ele>1172.4</ele>
        <time>2024-08-13T10:00:00Z</time>
      </trkpt>
      <trkpt lat="44.82911" lon="6.14414">
        <ele>1172.8</ele>
        <time>2024-08-13T10:00:01Z</time>
      </trkpt>
      <trkpt lat="44.82912" lon="6.14412">
        <ele>1173</ele>
        <time>2024-08-13T10:00:02Z</time>
      </trkpt>
      <trkpt lat="44.82912" lon="6.14412">
        <ele>1173</ele>
        <time>2024-08-13T10:00:03Z</time>
      </trkpt>
      <trkpt lat="44.82914" lon="6.1441">
        <ele>1173</ele>
        <time>2024-08-13T10:00:04Z</time>
      </trkpt>
      <trkpt lat="44.82914" lon="6.1441">
        <ele>1173.4</ele>
        <time>2024-08-13T10:00:05Z</time>
      </trkpt>
      <trkpt lat="44.82916" lon="6.14408">
        <ele>1173.4</ele>
        <time>2024-08-13T10:00:06Z</time>
      </trkpt>
      <trkpt lat="44.82916" lon="6.14408">
        <ele>1173.6</ele>
        <time>2024-08-13T10:00:07Z</time>
      </trkpt>
      <trkpt lat="44.82917" lon="6.14406">
        <ele>1173.8</ele>
        <time>2024-08-13T10:00:08Z</time>
      </trkpt>
      <trkpt lat="44.82917" lon="6.14406">
        <ele>1174</ele>
        <time>2024-08-13T10:00:09Z</time>
      </trkpt>
      <trkpt lat="44.82917" lon="6.14406">
        <ele>1174.2</ele>
        <time>2024-08-13T10:00:10Z</time>
      </trkpt>
      <trkpt lat="44.82918" lon="6.14403">
        <ele>1174.6</ele>
        <time>2024-08-13T10:00:11Z</time>
      </trkpt>
      <trkpt lat="44.82918" lon="6.14403">
        <ele>1174.6</ele>
        <time>2024-08-13T10:00:12Z</time>
      </trkpt>
      <trkpt lat="44.82919" lon="6.144">
        <ele>1174.8</ele>
        <time>2024-08-13T10:00:13Z</time>
      </trkpt>
      <trkpt lat="44.82919" lon="6.144">
        <ele>1174.8</ele>
        <time>2024-08-13T10:00:14Z</time>
      </trkpt>
      <trkpt lat="44.82919" lon="6.144">
        <ele>1175</ele>
        <time>2024-08-13T10:00:15Z</time>
      </trkpt>
      <trkpt lat="44.82918" lon="6.14397">
        <ele>1175</ele>
        <time>2024-08-13T10:00:16Z</time>
      </trkpt>
      <trkpt lat="44.82918" lon="6.14397">
        <ele>1175.4</ele>
        <time>2024-08-13T10:00:17Z</time>
      </trkpt>
      <trkpt lat="44.82918" lon="6.14397">
        <ele>1175.6</ele>
        <time>2024-08-13T10:00:18Z</time>
      </trkpt>
      <trkpt lat="44.82918" lon="6.14393">
        <ele>1175.6</ele>
        <time>2024-08-13T10:00:19Z</time>
      </trkpt>
      <trkpt lat="44.82918" lon="6.14393">
        <ele>1175.8</ele>
        <time>2024-08-13T10:00:20Z</time>
      </trkpt>
      <trkpt lat="44.82918" lon="6.1439">
        <ele>1175.8</ele>
        <time>2024-08-13T10:00:21Z</time>
      </trkpt>
      <trkpt lat="44.82918" lon="6.1439">
        <ele>1176</ele>
        <time>2024-08-13T10:00:22Z</time>
      </trkpt>
      <trkpt lat="44.82918" lon="6.1439">
        <ele>1176</ele>
        <time>2024-08-13T10:00:23Z</time>
      </trkpt>
      <trkpt lat="44.82918" lon="6.14387">
        <ele>1176.4</ele>
        <time>2024-08-13T10:00:24Z</time>
      </trkpt>
      <trkpt lat="44.82918" lon="6.14387">
        <ele>1177</ele>
        <time>2024-08-13T10:00:25Z</time>
      </trkpt>
      <trkpt lat="44.82918" lon="6.14387">
        <ele>1177</ele>
        <time>2024-08-13T10:00:26Z</time>
      </trkpt>
      <trkpt lat="44.82918" lon="6.14383">
        <ele>1177.2</ele>
        <time>2024-08-13T10:00:27Z</time>
      </trkpt>
      <trkpt lat="44.82918" lon="6.14383">
        <ele>1177.2</ele>
        <time>2024-08-13T10:00:28Z</time>
      </trkpt>
      <trkpt lat="44.82917" lon="6.1438">
        <ele>1177.2</ele>
        <time>2024-08-13T10:00:29Z</time>
      </trkpt>
      <trkpt lat="44.82917" lon="6.1438">
        <ele>1177.6</ele>
        <time>2024-08-13T10:00:30Z</time>
      </trkpt>
      <trkpt lat="44.82917" lon="6.1438">
        <ele>1177.8</ele>
        <time>2024-08-13T10:00:31Z</time>
      </trkpt>
      <trkpt lat="44.82917" lon="6.14376">
        <ele>1178</ele>
        <time>2024-08-13T10:00:32Z</time>
      </trkpt>
      <trkpt lat="44.82917" lon="6.14376">
        <ele>1178</ele>
        <time>2024-08-13T10:00:33Z</time>
      </trkpt>
      <trkpt lat="44.82917" lon="6.14374">
        <ele>1178.2</ele>
        <time>2024-08-13T10:00:34Z</time>
      </trkpt>
      <trkpt lat="44.82917" lon="6.14374">
        <ele>1178.2</ele>
        <time>2024-08-13T10:00:35Z</time>
      </trkpt>
      <trkpt lat="44.82917" lon="6.14374">
        <ele>1178.2</ele>
        <time>2024-08-13T10:00:36Z</time>
      </trkpt>
      <trkpt lat="44.82916" lon="6.1437">
        <ele>1178.6</ele>
        <time>2024-08-13T10:00:37Z</time>
      </trkpt>
      <trkpt lat="44.82916" lon="6.1437">
        <ele>1178.8</ele>
        <time>2024-08-13T10:00:38Z</time>
      </trkpt>
      <trkpt lat="44.82916" lon="6.1437">
        <ele>1178.8</ele>
        <time>2024-08-13T10:00:39Z</time>
      </trkpt>
      <trkpt lat="44.82917" lon="6.14366">
        <ele>1178.8</ele>
        <time>2024-08-13T10:00:40Z</time>
      </trkpt>
      <trkpt lat="44.82917" lon="6.14366">
        <ele>1178.8</ele>
        <time>2024-08-13T10:00:41Z</time>
      </trkpt>
      <trkpt lat="44.82917" lon="6.14363">
        <ele>1178.8</ele>
        <time>2024-08-13T10:00:42Z</time>
      </trkpt>
      <trkpt lat="44.82917" lon="6.14363">
        <ele>1179.2</ele>
        <time>2024-08-13T10:00:43Z</time>
      </trkpt>
      <trkpt lat="44.82919" lon="6.14361">
        <ele>1179.4</ele>
        <time>2024-08-13T10:00:44Z</time>
      </trkpt>
      <trkpt lat="44.82919" lon="6.14361">
        <ele>1179.4</ele>
        <time>2024-08-13T10:00:45Z</time>
      </trkpt>
      <trkpt lat="44.82919" lon="6.14361">
        <ele>1179.6</ele>
        <time>2024-08-13T10:00:46Z</time>
      </trkpt>
      <trkpt lat="44.82921" lon="6.14359">
        <ele>1179.6</ele>
        <time>2024-08-13T10:00:47Z</time>
      </trkpt>
      <trkpt lat="44.82921" lon="6.14359">
        <ele>1179.6</ele>
        <time>2024-08-13T10:00:48Z</time>
      </trkpt>
      <trkpt lat="44.82923" lon="6.14357">
        <ele>1179.6</ele>
        <time>2024-08-13T10:00:49Z</time>
      </trkpt>
      <trkpt lat="44.82923" lon="6.14357">
        <ele>1179.8</ele>
        <time>2024-08-13T10:00:50Z</time>
      </trkpt>
      <trkpt lat="44.82923" lon="6.14357">
        <ele>1180</ele>
        <time>2024-08-13T10:00:51Z</time>
      </trkpt>
      <trkpt lat="44.82925" lon="6.14355">
        <ele>1180.2</ele>
        <time>2024-08-13T10:00:52Z</time>
      </trkpt>
      <trkpt lat="44.82925" lon="6.14355">
        <ele>1180.4</ele>
        <time>2024-08-13T10:00:53Z</time>
      </trkpt>
      <trkpt lat="44.82927" lon="6.14354">
        <ele>1180.6</ele>
        <time>2024-08-13T10:00:54Z</time>
      </trkpt>
      <trkpt lat="44.82927" lon="6.14354">
        <ele>1180.6</ele>
        <time>2024-08-13T10:00:55Z</time>
      </trkpt>
      <trkpt lat="44.82929" lon="6.14353">
        <ele>1180.6</ele>
        <time>2024-08-13T10:00:56Z</time>
      </trkpt>
      <trkpt lat="44.82929" lon="6.14353">
        <ele>1180.8</ele>
        <time>2024-08-13T10:00:57Z</time>
      </trkpt>
      <trkpt lat="44.82929" lon="6.14353">
        <ele>1181</ele>
        <time>2024-08-13T10:00:58Z</time>
      </trkpt>
      <trkpt lat="44.82932" lon="6.14351">
        <ele>1181</ele>
        <time>2024-08-13T10:00:59Z</time>
      </trkpt>
      <trkpt lat="44.82932" lon="6.14351">
        <ele>1181.4</ele>
        <time>2024-08-13T10:01:00Z</time>
      </trkpt>
      <trkpt lat="44.82932" lon="6.14351">
        <ele>1181.4</ele>
        <time>2024-08-13T10:01:01Z</time>
      </trkpt>
      <trkpt lat="44.82934" lon="6.1435">
        <ele>1181.8</ele>
        <time>2024-08-13T10:01:02Z</time>
      </trkpt>
      <trkpt lat="44.82934" lon="6.1435">
        <ele>1181.8</ele>
        <time>2024-08-13T10:01:03Z</time>
      </trkpt>
      <trkpt lat="44.82934" lon="6.1435">
        <ele>1182</ele>
        <time>2024-08-13T10:01:04Z</time>
      </trkpt>
      <trkpt lat="44.82936" lon="6.14348">
        <ele>1182</ele>
        <time>2024-08-13T10:01:05Z</time>
      </trkpt>
      <trkpt lat="44.82936" lon="6.14348">
        <ele>1182.4</ele>
        <time>2024-08-13T10:01:06Z</time>
      </trkpt>
      <trkpt lat="44.82936" lon="6.14348">
        <ele>1182.6</ele>
        <time>2024-08-13T10:01:07Z</time>
      </trkpt>
      <trkpt lat="44.82938" lon="6.14349">
        <ele>1182.6</ele>
        <time>2024-08-13T10:01:08Z</time>
      </trkpt>
      <trkpt lat="44.82938" lon="6.14349">
        <ele>1182.8</ele>
        <time>2024-08-13T10:01:09Z</time>
      </trkpt>
      <trkpt lat="44.8294" lon="6.1435">
        <ele>1183</ele>
        <time>2024-08-13T10:01:10Z</time>
      </trkpt>
      <trkpt lat="44.8294" lon="6.1435">
        <ele>1183.4</ele>
        <time>2024-08-13T10:01:11Z</time>
      </trkpt>
      <trkpt lat="44.8294" lon="6.1435">
        <ele>1183.6</ele>
        <time>2024-08-13T10:01:12Z</time>
      </trkpt>
      <trkpt lat="44.82943" lon="6.14352">
        <ele>1183.8</ele>
        <time>2024-08-13T10:01:13Z</time>
      </trkpt>
      <trkpt lat="44.82943" lon="6.14352">
        <ele>1183.4</ele>
        <time>2024-08-13T10:01:14Z</time>
      </trkpt>
      <trkpt lat="44.82945" lon="6.14352">
        <ele>1183.4</ele>
        <time>2024-08-13T10:01:15Z</time>
      </trkpt>
      <trkpt lat="44.82945" lon="6.14352">
        <ele>1183.6</ele>
        <time>2024-08-13T10:01:16Z</time>
      </trkpt>
      <trkpt lat="44.82947" lon="6.14354">
        <ele>1183.8</ele>
        <time>2024-08-13T10:01:17Z</time>
      </trkpt>
      <trkpt lat="44.82947" lon="6.14354">
        <ele>1184</ele>
        <time>2024-08-13T10:01:18Z</time>
      </trkpt>
      <trkpt lat="44.82949" lon="6.14355">
        <ele>1184</ele>
        <time>2024-08-13T10:01:19Z</time>
      </trkpt>
      <trkpt lat="44.82949" lon="6.14355">
        <ele>1184.2</ele>
        <time>2024-08-13T10:01:20Z</time>
      </trkpt>
      <trkpt lat="44.82951" lon="6.14355">
        <ele>1184.4</ele>
        <time>2024-08-13T10:01:21Z</time>
      </trkpt>
      <trkpt lat="44.82951" lon="6.14355">
        <ele>1184.4</ele>
        <time>2024-08-13T10:01:22Z</time>
      </trkpt>
      <trkpt lat="44.82953" lon="6.14355">
        <ele>1184.4</ele>
        <time>2024-08-13T10:01:23Z</time>
      </trkpt>
      <trkpt lat="44.82953" lon="6.14355">
        <ele>1184.6</ele>
        <time>2024-08-13T10:01:24Z</time>
      </trkpt>
      <trkpt lat="44.82953" lon="6.14355">
        <ele>1184.8</ele>
        <time>2024-08-13T10:01:25Z</time>
      </trkpt>
      <trkpt lat="44.82956" lon="6.14355">
        <ele>1185.4</ele>
        <time>2024-08-13T10:01:26Z</time>
      </trkpt>
      <trkpt lat="44.82956" lon="6.14355">
        <ele>1185.4</ele>
        <time>2024-08-13T10:01:27Z</time>
      </trkpt>
      <trkpt lat="44.82958" lon="6.14354">
        <ele>1185.6</ele>
        <time>2024-08-13T10:01:28Z</time>
      </trkpt>
      <trkpt lat="44.8296" lon="6.14352">
        <ele>1185.6</ele>
        <time>2024-08-13T10:01:29Z</time>
      </trkpt>
      <trkpt lat="44.8296" lon="6.14352">
        <ele>1186</ele>
        <time>2024-08-13T10:01:30Z</time>
      </trkpt>
      <trkpt lat="44.82961" lon="6.1435">
        <ele>1186</ele>
        <time>2024-08-13T10:01:31Z</time>
      </trkpt>
      <trkpt lat="44.82961" lon="6.1435">
        <ele>1186.4</ele>
        <time>2024-08-13T10:01:32Z</time>
      </trkpt>
      <trkpt lat="44.82963" lon="6.14348">
        <ele>1186.4</ele>
        <time>2024-08-13T10:01:33Z</time>
      </trkpt>
      <trkpt lat="44.82963" lon="6.14348">
        <ele>1186.8</ele>
        <time>2024-08-13T10:01:34Z</time>
      </trkpt>
      <trkpt lat="44.82965" lon="6.14346">
        <ele>1187</ele>
        <time>2024-08-13T10:01:35Z</time>
      </trkpt>
      <trkpt lat="44.82965" lon="6.14346">
        <ele>1187.2</ele>
        <time>2024-08-13T10:01:36Z</time>
      </trkpt>
      <trkpt lat="44.82965" lon="6.14346">
        <ele>1187.4</ele>
        <time>2024-08-13T10:01:37Z</time>
      </trkpt>
      <trkpt lat="44.82967" lon="6.14344">
        <ele>1187.4</ele>
        <time>2024-08-13T10:01:38Z</time>
      </trkpt>
      <trkpt lat="44.82967" lon="6.14344">
        <ele>1187.4</ele>
        <time>2024-08-13T10:01:39Z</time>
      </trkpt>
      <trkpt lat="44.82969" lon="6.14343">
        <ele>1187.4</ele>
        <time>2024-08-13T10:01:40Z</time>
      </trkpt>
      <trkpt lat="44.82969" lon="6.14343">
        <ele>1187.6</ele>
        <time>2024-08-13T10:01:41Z</time>
      </trkpt>
      <trkpt lat="44.82971" lon="6.14341">
        <ele>1187.8</ele>
        <time>2024-08-13T10:01:42Z</time>
      </trkpt>
      <trkpt lat="44.82971" lon="6.14341">
        <ele>1188</ele>
        <time>2024-08-13T10:01:43Z</time>
      </trkpt>
      <trkpt lat="44.82973" lon="6.1434">
        <ele>1188</ele>
        <time>2024-08-13T10:01:44Z</time>
      </trkpt>
      <trkpt lat="44.82973" lon="6.1434">
        <ele>1188.4</ele>
        <time>2024-08-13T10:01:45Z</time>
      </trkpt>
      <trkpt lat="44.82973" lon="6.1434">
        <ele>1188.4</ele>
        <time>2024-08-13T10:01:46Z</time>
      </trkpt>
      <trkpt lat="44.82974" lon="6.14338">
        <ele>1188.8</ele>
        <time>2024-08-13T10:01:47Z</time>
      </trkpt>
      <trkpt lat="44.82974" lon="6.14338">
        <ele>1189.2</ele>
        <time>2024-08-13T10:01:48Z</time>
      </trkpt>
      <trkpt lat="44.82976" lon="6.14336">
        <ele>1189.2</ele>
        <time>2024-08-13T10:01:49Z</time>
      </trkpt>
      <trkpt lat="44.82976" lon="6.14336">
        <ele>1189.4</ele>
        <time>2024-08-13T10:01:50Z</time>
      </trkpt>
      <trkpt lat="44.82977" lon="6.14334">
        <ele>1189.4</ele>
        <time>2024-08-13T10:01:51Z</time>
      </trkpt>
      <trkpt lat="44.82977" lon="6.14334">
        <ele>1190.2</ele>
        <time>2024-08-13T10:01:52Z</time>
      </trkpt>
      <trkpt lat="44.82979" lon="6.14332">
        <ele>1190.4</ele>
        <time>2024-08-13T10:01:53Z</time>
      </trkpt>
      <trkpt lat="44.82979" lon="6.14332">
        <ele>1190.4</ele>
        <time>2024-08-13T10:01:54Z</time>
      </trkpt>
      <trkpt lat="44.82981" lon="6.14332">
        <ele>1190.2</ele>
        <time>2024-08-13T10:01:55Z</time>
      </trkpt>
      <trkpt lat="44.82981" lon="6.14332">
        <ele>1190.2</ele>
        <time>2024-08-13T10:01:56Z</time>
      </trkpt>
      <trkpt lat="44.82982" lon="6.14332">
        <ele>1190.4</ele>
        <time>2024-08-13T10:01:57Z</time>
      </trkpt>
      <trkpt lat="44.82982" lon="6.14332">
        <ele>1190.6</ele>
        <time>2024-08-13T10:01:58Z</time>
      </trkpt>
      <trkpt lat="44.82984" lon="6.14333">
        <ele>1190.6</ele>
        <time>2024-08-13T10:01:59Z</time>
      </trkpt>
      <trkpt lat="44.82984" lon="6.14333">
        <ele>1190.8</ele>
        <time>2024-08-13T10:02:00Z</time>
      </trkpt>
      <trkpt lat="44.82984" lon="6.14333">
        <ele>1191</ele>
        <time>2024-08-13T10:02:01Z</time>
      </trkpt>
      <trkpt lat="44.82987" lon="6.14332">
        <ele>1191.2</ele>
        <time>2024-08-13T10:02:02Z</time>
      </trkpt>
      <trkpt lat="44.82987" lon="6.14332">
        <ele>1191.2</ele>
        <time>2024-08-13T10:02:03Z</time>
      </trkpt>
      <trkpt lat="44.82989" lon="6.14331">
        <ele>1191.6</ele>
        <time>2024-08-13T10:02:04Z</time>
      </trkpt>
      <trkpt lat="44.82989" lon="6.14331">
        <ele>1191.6</ele>
        <time>2024-08-13T10:02:05Z</time>
      </trkpt>
      <trkpt lat="44.82991" lon="6.14331">
        <ele>1191.8</ele>
        <time>2024-08-13T10:02:06Z</time>
      </trkpt>
      <trkpt lat="44.82991" lon="6.14331">
        <ele>1191.8</ele>
        <time>2024-08-13T10:02:07Z</time>
      </trkpt>
      <trkpt lat="44.82991" lon="6.14331">
        <ele>1192.2</ele>
        <time>2024-08-13T10:02:08Z</time>
      </trkpt>
      <trkpt lat="44.82993" lon="6.1433">
        <ele>1192.4</ele>
        <time>2024-08-13T10:02:09Z</time>
      </trkpt>
      <trkpt lat="44.82993" lon="6.1433">
        <ele>1192.4</ele>
        <time>2024-08-13T10:02:10Z</time>
      </trkpt>
      <trkpt lat="44.82993" lon="6.1433">
        <ele>1192.6</ele>
        <time>2024-08-13T10:02:11Z</time>
      </trkpt>
      <trkpt lat="44.82996" lon="6.1433">
        <ele>1193</ele>
        <time>2024-08-13T10:02:12Z</time>
      </trkpt>
      <trkpt lat="44.82996" lon="6.1433">
        <ele>1193</ele>
        <time>2024-08-13T10:02:13Z</time>
      </trkpt>
      <trkpt lat="44.82997" lon="6.14331">
        <ele>1193.2</ele>
        <time>2024-08-13T10:02:14Z</time>
      </trkpt>
      <trkpt lat="44.82997" lon="6.14331">
        <ele>1193.2</ele>
        <time>2024-08-13T10:02:15Z</time>
      </trkpt>
      <trkpt lat="44.83" lon="6.14332">
        <ele>1193.4</ele>
        <time>2024-08-13T10:02:16Z</time>
      </trkpt>
      <trkpt lat="44.83" lon="6.14332">
        <ele>1193.4</ele>
        <time>2024-08-13T10:02:17Z</time>
      </trkpt>
      <trkpt lat="44.83002" lon="6.14333">
        <ele>1193.4</ele>
        <time>2024-08-13T10:02:18Z</time>
      </trkpt>
      <trkpt lat="44.83002" lon="6.14333">
        <ele>1193.6</ele>
        <time>2024-08-13T10:02:19Z</time>
      </trkpt>
      <trkpt lat="44.83004" lon="6.14334">
        <ele>1193.8</ele>
        <time>2024-08-13T10:02:20Z</time>
      </trkpt>
      <trkpt lat="44.83004" lon="6.14334">
        <ele>1193.8</ele>
        <time>2024-08-13T10:02:21Z</time>
      </trkpt>
      <trkpt lat="44.83006" lon="6.14335">
        <ele>1193.8</ele>
        <time>2024-08-13T10:02:22Z</time>
      </trkpt>
      <trkpt lat="44.83006" lon="6.14335">
        <ele>1194</ele>
        <time>2024-08-13T10:02:23Z</time>
      </trkpt>
      <trkpt lat="44.83008" lon="6.14336">
        <ele>1194</ele>
        <time>2024-08-13T10:02:24Z</time>
      </trkpt>
      <trkpt lat="44.83008" lon="6.14336">
        <ele>1194</ele>
        <time>2024-08-13T10:02:25Z</time>
      </trkpt>
      <trkpt lat="44.83011" lon="6.14337">
        <ele>1194.2</ele>
        <time>2024-08-13T10:02:26Z</time>
      </trkpt>
      <trkpt lat="44.83011" lon="6.14337">
        <ele>1194.4</ele>
        <time>2024-08-13T10:02:27Z</time>
      </trkpt>
      <trkpt lat="44.83012" lon="6.14338">
        <ele>1194.4</ele>
        <time>2024-08-13T10:02:28Z</time>
      </trkpt>
      <trkpt lat="44.83012" lon="6.14338">
        <ele>1194.4</ele>
        <time>2024-08-13T10:02:29Z</time>
      </trkpt>
      <trkpt lat="44.83014" lon="6.1434">
        <ele>1194.6</ele>
        <time>2024-08-13T10:02:30Z</time>
      </trkpt>
      <trkpt lat="44.83014" lon="6.1434">
        <ele>1194.8</ele>
        <time>2024-08-13T10:02:31Z</time>
      </trkpt>
      <trkpt lat="44.83016" lon="6.14341">
        <ele>1195</ele>
        <time>2024-08-13T10:02:32Z</time>
      </trkpt>
      <trkpt lat="44.83016" lon="6.14341">
        <ele>1195</ele>
        <time>2024-08-13T10:02:33Z</time>
      </trkpt>
      <trkpt lat="44.83019" lon="6.14342">
        <ele>1195.2</ele>
        <time>2024-08-13T10:02:34Z</time>
      </trkpt>
      <trkpt lat="44.83019" lon="6.14342">
        <ele>1195.2</ele>
        <time>2024-08-13T10:02:35Z</time>
      </trkpt>
      <trkpt lat="44.83019" lon="6.14342">
        <ele>1195.2</ele>
        <time>2024-08-13T10:02:36Z</time>
      </trkpt>
      <trkpt lat="44.83021" lon="6.14343">
        <ele>1195.2</ele>
        <time>2024-08-13T10:02:37Z</time>
      </trkpt>
      <trkpt lat="44.83021" lon="6.14343">
        <ele>1195.2</ele>
        <time>2024-08-13T10:02:38Z</time>
      </trkpt>
      <trkpt lat="44.83024" lon="6.14343">
        <ele>1195.4</ele>
        <time>2024-08-13T10:02:39Z</time>
      </trkpt>
      <trkpt lat="44.83024" lon="6.14343">
        <ele>1195.8</ele>
        <time>2024-08-13T10:02:40Z</time>
      </trkpt>
      <trkpt lat="44.83027" lon="6.14343">
        <ele>1195.8</ele>
        <time>2024-08-13T10:02:41Z</time>
      </trkpt>
      <trkpt lat="44.83027" lon="6.14343">
        <ele>1195.8</ele>
        <time>2024-08-13T10:02:42Z</time>
      </trkpt>
      <trkpt lat="44.83028" lon="6.1434">
        <ele>1195.8</ele>
        <time>2024-08-13T10:02:43Z</time>
      </trkpt>
      <trkpt lat="44.83028" lon="6.1434">
        <ele>1196</ele>
        <time>2024-08-13T10:02:44Z</time>
      </trkpt>
      <trkpt lat="44.8303" lon="6.14338">
        <ele>1196</ele>
        <time>2024-08-13T10:02:45Z</time>
      </trkpt>
      <trkpt lat="44.8303" lon="6.14338">
        <ele>1196</ele>
        <time>2024-08-13T10:02:46Z</time>
      </trkpt>
      <trkpt lat="44.83032" lon="6.14336">
        <ele>1196</ele>
        <time>2024-08-13T10:02:47Z</time>
      </trkpt>
      <trkpt lat="44.83032" lon="6.14336">
        <ele>1196</ele>
        <time>2024-08-13T10:02:48Z</time>
      </trkpt>
      <trkpt lat="44.83034" lon="6.14334">
        <ele>1196.2</ele>
        <time>2024-08-13T10:02:49Z</time>
      </trkpt>
      <trkpt lat="44.83034" lon="6.14334">
        <ele>1196.2</ele>
        <time>2024-08-13T10:02:50Z</time>
      </trkpt>
      <trkpt lat="44.83034" lon="6.14334">
        <ele>1196.2</ele>
        <time>2024-08-13T10:02:51Z</time>
      </trkpt>
      <trkpt lat="44.83036" lon="6.14332">
        <ele>1196.4</ele>
        <time>2024-08-13T10:02:52Z</time>
      </trkpt>
      <trkpt lat="44.83036" lon="6.14332">
        <ele>1196.6</ele>
        <time>2024-08-13T10:02:53Z</time>
      </trkpt>
      <trkpt lat="44.83038" lon="6.14331">
        <ele>1196.8</ele>
        <time>2024-08-13T10:02:54Z</time>
      </trkpt>
      <trkpt lat="44.83038" lon="6.14331">
        <ele>1197</ele>
        <time>2024-08-13T10:02:55Z</time>
      </trkpt>
      <trkpt lat="44.83041" lon="6.14331">
        <ele>1197</ele>
        <time>2024-08-13T10:02:56Z</time>
      </trkpt>
      <trkpt lat="44.83041" lon="6.14331">
        <ele>1197.2</ele>
        <time>2024-08-13T10:02:57Z</time>
      </trkpt>
      <trkpt lat="44.83043" lon="6.14331">
        <ele>1197.2</ele>
        <time>2024-08-13T10:02:58Z</time>
      </trkpt>
      <trkpt lat="44.83043" lon="6.14331">
        <ele>1197.4</ele>
        <time>2024-08-13T10:02:59Z</time>
      </trkpt>
      <trkpt lat="44.83045" lon="6.1433">
        <ele>1197.4</ele>
        <time>2024-08-13T10:03:00Z</time>
      </trkpt>
      <trkpt lat="44.83045" lon="6.1433">
        <ele>1197.4</ele>
        <time>2024-08-13T10:03:01Z</time>
      </trkpt>
      <trkpt lat="44.83047" lon="6.1433">
        <ele>1197.4</ele>
        <time>2024-08-13T10:03:02Z</time>
      </trkpt>
      <trkpt lat="44.83047" lon="6.1433">
        <ele>1197.4</ele>
        <time>2024-08-13T10:03:03Z</time>
      </trkpt>
      <trkpt lat="44.8305" lon="6.14329">
        <ele>1197.8</ele>
        <time>2024-08-13T10:03:04Z</time>
      </trkpt>
      <trkpt lat="44.8305" lon="6.14329">
        <ele>1197.8</ele>
        <time>2024-08-13T10:03:05Z</time>
      </trkpt>
      <trkpt lat="44.83052" lon="6.14328">
        <ele>1197.8</ele>
        <time>2024-08-13T10:03:06Z</time>
      </trkpt>
      <trkpt lat="44.83052" lon="6.14328">
        <ele>1197.6</ele>
        <time>2024-08-13T10:03:07Z</time>
      </trkpt>
      <trkpt lat="44.83054" lon="6.14326">
        <ele>1197.2</ele>
        <time>2024-08-13T10:03:08Z</time>
      </trkpt>
      <trkpt lat="44.83054" lon="6.14326">
        <ele>1197.2</ele>
        <time>2024-08-13T10:03:09Z</time>
      </trkpt>
      <trkpt lat="44.83056" lon="6.14324">
        <ele>1197.2</ele>
        <time>2024-08-13T10:03:10Z</time>
      </trkpt>
      <trkpt lat="44.83056" lon="6.14324">
        <ele>1197.2</ele>
        <time>2024-08-13T10:03:11Z</time>
      </trkpt>
      <trkpt lat="44.83058" lon="6.14323">
        <ele>1197.2</ele>
        <time>2024-08-13T10:03:12Z</time>
      </trkpt>
      <trkpt lat="44.83058" lon="6.14323">
        <ele>1197.6</ele>
        <time>2024-08-13T10:03:13Z</time>
      </trkpt>
      <trkpt lat="44.8306" lon="6.14321">
        <ele>1197.6</ele>
        <time>2024-08-13T10:03:14Z</time>
      </trkpt>
      <trkpt lat="44.8306" lon="6.14321">
        <ele>1197.8</ele>
        <time>2024-08-13T10:03:15Z</time>
      </trkpt>
      <trkpt lat="44.83062" lon="6.1432">
        <ele>1198</ele>
        <time>2024-08-13T10:03:16Z</time>
      </trkpt>
      <trkpt lat="44.83062" lon="6.1432">
        <ele>1198</ele>
        <time>2024-08-13T10:03:17Z</time>
      </trkpt>
      <trkpt lat="44.83064" lon="6.1432">
        <ele>1198.2</ele>
        <time>2024-08-13T10:03:18Z</time>
      </trkpt>
      <trkpt lat="44.83064" lon="6.1432">
        <ele>1198.2</ele>
        <time>2024-08-13T10:03:19Z</time>
      </trkpt>
      <trkpt lat="44.83066" lon="6.14318">
        <ele>1198.2</ele>
        <time>2024-08-13T10:03:20Z</time>
      </trkpt>
      <trkpt lat="44.83066" lon="6.14318">
        <ele>1198.6</ele>
        <time>2024-08-13T10:03:21Z</time>
      </trkpt>
      <trkpt lat="44.83066" lon="6.14318">
        <ele>1198.6</ele>
        <time>2024-08-13T10:03:22Z</time>
      </trkpt>
      <trkpt lat="44.83069" lon="6.14316">
        <ele>1198.8</ele>
        <time>2024-08-13T10:03:23Z</time>
      </trkpt>
      <trkpt lat="44.83069" lon="6.14316">
        <ele>1199</ele>
        <time>2024-08-13T10:03:24Z</time>
      </trkpt>
      <trkpt lat="44.83069" lon="6.14316">
        <ele>1199</ele>
        <time>2024-08-13T10:03:25Z</time>
      </trkpt>
      <trkpt lat="44.83069" lon="6.14316">
        <ele>1199.4</ele>
        <time>2024-08-13T10:03:26Z</time>
      </trkpt>
      <trkpt lat="44.83071" lon="6.14316">
        <ele>1199.4</ele>
        <time>2024-08-13T10:03:27Z</time>
      </trkpt>
      <trkpt lat="44.83071" lon="6.14316">
        <ele>1199.6</ele>
        <time>2024-08-13T10:03:28Z</time>
      </trkpt>
      <trkpt lat="44.83071" lon="6.14316">
        <ele>1199.8</ele>
        <time>2024-08-13T10:03:29Z</time>
      </trkpt>
      <trkpt lat="44.83072" lon="6.14315">
        <ele>1200.4</ele>
        <time>2024-08-13T10:03:30Z</time>
      </trkpt>
      <trkpt lat="44.83072" lon="6.14315">
        <ele>1200.6</ele>
        <time>2024-08-13T10:03:31Z</time>
      </trkpt>
      <trkpt lat="44.83072" lon="6.14315">
        <ele>1200.8</ele>
        <time>2024-08-13T10:03:32Z</time>
      </trkpt>
      <trkpt lat="44.83074" lon="6.14314">
        <ele>1200.8</ele>
        <time>2024-08-13T10:03:33Z</time>
      </trkpt>
      <trkpt lat="44.83074" lon="6.14314">
        <ele>1200.8</ele>
        <time>2024-08-13T10:03:34Z</time>
      </trkpt>
      <trkpt lat="44.83076" lon="6.14313">
        <ele>1201</ele>
        <time>2024-08-13T10:03:35Z</time>
      </trkpt>
      <trkpt lat="44.83076" lon="6.14313">
        <ele>1201</ele>
        <time>2024-08-13T10:03:36Z</time>
      </trkpt>
      <trkpt lat="44.83078" lon="6.14312">
        <ele>1201.4</ele>
        <time>2024-08-13T10:03:37Z</time>
      </trkpt>
      <trkpt lat="44.83078" lon="6.14312">
        <ele>1201.6</ele>
        <time>2024-08-13T10:03:38Z</time>
      </trkpt>
      <trkpt lat="44.83078" lon="6.14312">
        <ele>1201.6</ele>
        <time>2024-08-13T10:03:39Z</time>
      </trkpt>
      <trkpt lat="44.8308" lon="6.14311">
        <ele>1201.8</ele>
        <time>2024-08-13T10:03:40Z</time>
      </trkpt>
      <trkpt lat="44.8308" lon="6.14311">
        <ele>1202</ele>
        <time>2024-08-13T10:03:41Z</time>
      </trkpt>
      <trkpt lat="44.83082" lon="6.1431">
        <ele>1202</ele>
        <time>2024-08-13T10:03:42Z</time>
      </trkpt>
      <trkpt lat="44.83082" lon="6.1431">
        <ele>1202.6</ele>
        <time>2024-08-13T10:03:43Z</time>
      </trkpt>
      <trkpt lat="44.83084" lon="6.14309">
        <ele>1202.6</ele>
        <time>2024-08-13T10:03:44Z</time>
      </trkpt>
      <trkpt lat="44.83084" lon="6.14309">
        <ele>1202.8</ele>
        <time>2024-08-13T10:03:45Z</time>
      </trkpt>
      <trkpt lat="44.83084" lon="6.14309">
        <ele>1203</ele>
        <time>2024-08-13T10:03:46Z</time>
      </trkpt>
      <trkpt lat="44.83086" lon="6.14307">
        <ele>1203.4</ele>
        <time>2024-08-13T10:03:47Z</time>
      </trkpt>
      <trkpt lat="44.83088" lon="6.14306">
        <ele>1203.4</ele>
        <time>2024-08-13T10:03:48Z</time>
      </trkpt>
      <trkpt lat="44.83088" lon="6.14306">
        <ele>1203.4</ele>
        <time>2024-08-13T10:03:49Z</time>
      </trkpt>
      <trkpt lat="44.8309" lon="6.14304">
        <ele>1203.6</ele>
        <time>2024-08-13T10:03:50Z</time>
      </trkpt>
      <trkpt lat="44.8309" lon="6.14304">
        <ele>1203.6</ele>
        <time>2024-08-13T10:03:51Z</time>
      </trkpt>
      <trkpt lat="44.83092" lon="6.14303">
        <ele>1203.6</ele>
        <time>2024-08-13T10:03:52Z</time>
      </trkpt>
      <trkpt lat="44.83092" lon="6.14303">
        <ele>1203.6</ele>
        <time>2024-08-13T10:03:53Z</time>
      </trkpt>
      <trkpt lat="44.83092" lon="6.14303">
        <ele>1203.6</ele>
        <time>2024-08-13T10:03:54Z</time>
      </trkpt>
      <trkpt lat="44.83094" lon="6.14302">
        <ele>1203.6</ele>
        <time>2024-08-13T10:03:55Z</time>
      </trkpt>
      <trkpt lat="44.83094" lon="6.14302">
        <ele>1204.2</ele>
        <time>2024-08-13T10:03:56Z</time>
      </trkpt>
      <trkpt lat="44.83094" lon="6.14302">
        <ele>1204.4</ele>
        <time>2024-08-13T10:03:57Z</time>
      </trkpt>
      <trkpt lat="44.83096" lon="6.143">
        <ele>1204.4</ele>
        <time>2024-08-13T10:03:58Z</time>
      </trkpt>
      <trkpt lat="44.83096" lon="6.143">
        <ele>1204.6</ele>
        <time>2024-08-13T10:03:59Z</time>
      </trkpt>
      <trkpt lat="44.83098" lon="6.14298">
        <ele>1204.8</ele>
        <time>2024-08-13T10:04:00Z</time>
      </trkpt>
      <trkpt lat="44.83098" lon="6.14298">
        <ele>1204.8</ele>
        <time>2024-08-13T10:04:01Z</time>
      </trkpt>
      <trkpt lat="44.831" lon="6.14297">
        <ele>1205.2</ele>
        <time>2024-08-13T10:04:02Z</time>
      </trkpt>
      <trkpt lat="44.831" lon="6.14297">
        <ele>1205.2</ele>
        <time>2024-08-13T10:04:03Z</time>
      </trkpt>
      <trkpt lat="44.83102" lon="6.14296">
        <ele>1205.4</ele>
        <time>2024-08-13T10:04:04Z</time>
      </trkpt>
      <trkpt lat="44.83102" lon="6.14296">
        <ele>1205.4</ele>
        <time>2024-08-13T10:04:05Z</time>
      </trkpt>
      <trkpt lat="44.83102" lon="6.14296">
        <ele>1205.4</ele>
        <time>2024-08-13T10:04:06Z</time>
      </trkpt>
      <trkpt lat="44.83104" lon="6.14296">
        <ele>1205.6</ele>
        <time>2024-08-13T10:04:07Z</time>
      </trkpt>
      <trkpt lat="44.83104" lon="6.14296">
        <ele>1205.8</ele>
        <time>2024-08-13T10:04:08Z</time>
      </trkpt>
      <trkpt lat="44.83104" lon="6.14296">
        <ele>1206.2</ele>
        <time>2024-08-13T10:04:09Z</time>
      </trkpt>
      <trkpt lat="44.83107" lon="6.14297">
        <ele>1206.4</ele>
        <time>2024-08-13T10:04:10Z</time>
      </trkpt>
      <trkpt lat="44.83107" lon="6.14297">
        <ele>1206.4</ele>
        <time>2024-08-13T10:04:11Z</time>
      </trkpt>
      <trkpt lat="44.83107" lon="6.14297">
        <ele>1206.8</ele>
        <time>2024-08-13T10:04:12Z</time>
      </trkpt>
      <trkpt lat="44.83109" lon="6.14295">
        <ele>1206.8</ele>
        <time>2024-08-13T10:04:13Z</time>
      </trkpt>
      <trkpt lat="44.83109" lon="6.14295">
        <ele>1206.8</ele>
        <time>2024-08-13T10:04:14Z</time>
      </trkpt>
      <trkpt lat="44.83111" lon="6.14294">
        <ele>1207.2</ele>
        <time>2024-08-13T10:04:15Z</time>
      </trkpt>
      <trkpt lat="44.83111" lon="6.14294">
        <ele>1207.2</ele>
        <time>2024-08-13T10:04:16Z</time>
      </trkpt>
      <trkpt lat="44.83113" lon="6.14293">
        <ele>1207.2</ele>
        <time>2024-08-13T10:04:17Z</time>
      </trkpt>
      <trkpt lat="44.83113" lon="6.14293">
        <ele>1207.2</ele>
        <time>2024-08-13T10:04:18Z</time>
      </trkpt>
      <trkpt lat="44.83115" lon="6.14291">
        <ele>1207.4</ele>
        <time>2024-08-13T10:04:19Z</time>
      </trkpt>
      <trkpt lat="44.83115" lon="6.14291">
        <ele>1207.4</ele>
        <time>2024-08-13T10:04:20Z</time>
      </trkpt>
      <trkpt lat="44.83117" lon="6.14289">
        <ele>1207.6</ele>
        <time>2024-08-13T10:04:21Z</time>
      </trkpt>
      <trkpt lat="44.83117" lon="6.14289">
        <ele>1207.6</ele>
        <time>2024-08-13T10:04:22Z</time>
      </trkpt>
      <trkpt lat="44.83118" lon="6.14288">
        <ele>1207.6</ele>
        <time>2024-08-13T10:04:23Z</time>
      </trkpt>
      <trkpt lat="44.83118" lon="6.14288">
        <ele>1207.8</ele>
        <time>2024-08-13T10:04:24Z</time>
      </trkpt>
      <trkpt lat="44.8312" lon="6.14286">
        <ele>1208</ele>
        <time>2024-08-13T10:04:25Z</time>
      </trkpt>
      <trkpt lat="44.8312" lon="6.14286">
        <ele>1208</ele>
        <time>2024-08-13T10:04:26Z</time>
      </trkpt>
      <trkpt lat="44.8312" lon="6.14286">
        <ele>1208.2</ele>
        <time>2024-08-13T10:04:27Z</time>
      </trkpt>
      <trkpt lat="44.83122" lon="6.14285">
        <ele>1208.6</ele>
        <time>2024-08-13T10:04:28Z</time>
      </trkpt>
      <trkpt lat="44.83122" lon="6.14285">
        <ele>1208.8</ele>
        <time>2024-08-13T10:04:29Z</time>
      </trkpt>
      <trkpt lat="44.83122" lon="6.14285">
        <ele>1208.8</ele>
        <time>2024-08-13T10:04:30Z</time>
      </trkpt>
      <trkpt lat="44.83123" lon="6.14281">
        <ele>1209</ele>
        <time>2024-08-13T10:04:31Z</time>
      </trkpt>
      <trkpt lat="44.83123" lon="6.14281">
        <ele>1209</ele>
        <time>2024-08-13T10:04:32Z</time>
      </trkpt>
      <trkpt lat="44.83123" lon="6.14281">
        <ele>1209.4</ele>
        <time>2024-08-13T10:04:33Z</time>
      </trkpt>
      <trkpt lat="44.83124" lon="6.14279">
        <ele>1209.8</ele>
        <time>2024-08-13T10:04:34Z</time>
      </trkpt>
      <trkpt lat="44.83124" lon="6.14279">
        <ele>1210</ele>
        <time>2024-08-13T10:04:35Z</time>
      </trkpt>
      <trkpt lat="44.83126" lon="6.14278">
        <ele>1210</ele>
        <time>2024-08-13T10:04:36Z</time>
      </trkpt>
      <trkpt lat="44.83126" lon="6.14278">
        <ele>1210.2</ele>
        <time>2024-08-13T10:04:37Z</time>
      </trkpt>
      <trkpt lat="44.83126" lon="6.14278">
        <ele>1210.6</ele>
        <time>2024-08-13T10:04:38Z</time>
      </trkpt>
      <trkpt lat="44.83128" lon="6.14276">
        <ele>1210.8</ele>
        <time>2024-08-13T10:04:39Z</time>
      </trkpt>
      <trkpt lat="44.83128" lon="6.14276">
        <ele>1210.8</ele>
        <time>2024-08-13T10:04:40Z</time>
      </trkpt>
      <trkpt lat="44.83128" lon="6.14276">
        <ele>1211</ele>
        <time>2024-08-13T10:04:41Z</time>
      </trkpt>
      <trkpt lat="44.8313" lon="6.14275">
        <ele>1211.8</ele>
        <time>2024-08-13T10:04:42Z</time>
      </trkpt>
      <trkpt lat="44.8313" lon="6.14275">
        <ele>1211.8</ele>
        <time>2024-08-13T10:04:43Z</time>
      </trkpt>
      <trkpt lat="44.8313" lon="6.14275">
        <ele>1212</ele>
        <time>2024-08-13T10:04:44Z</time>
      </trkpt>
      <trkpt lat="44.83132" lon="6.14273">
        <ele>1212.4</ele>
        <time>2024-08-13T10:04:45Z</time>
      </trkpt>
      <trkpt lat="44.83132" lon="6.14273">
        <ele>1212.4</ele>
        <time>2024-08-13T10:04:46Z</time>
      </trkpt>
      <trkpt lat="44.83132" lon="6.14273">
        <ele>1212.6</ele>
        <time>2024-08-13T10:04:47Z</time>
      </trkpt>
      <trkpt lat="44.83132" lon="6.14273">
        <ele>1212.6</ele>
        <time>2024-08-13T10:04:48Z</time>
      </trkpt>
      <trkpt lat="44.83134" lon="6.14272">
        <ele>1213</ele>
        <time>2024-08-13T10:04:49Z</time>
      </trkpt>
      <trkpt lat="44.83134" lon="6.14272">
        <ele>1213.2</ele>
        <time>2024-08-13T10:04:50Z</time>
      </trkpt>
      <trkpt lat="44.83134" lon="6.14272">
        <ele>1213.2</ele>
        <time>2024-08-13T10:04:51Z</time>
      </trkpt>
      <trkpt lat="44.83134" lon="6.14272">
        <ele>1213.2</ele>
        <time>2024-08-13T10:04:52Z</time>
      </trkpt>
      <trkpt lat="44.83136" lon="6.14272">
        <ele>1213.4</ele>
        <time>2024-08-13T10:04:53Z</time>
      </trkpt>
      <trkpt lat="44.83136" lon="6.14272">
        <ele>1213.6</ele>
        <time>2024-08-13T10:04:54Z</time>
      </trkpt>
      <trkpt lat="44.83136" lon="6.14272">
        <ele>1213.8</ele>
        <time>2024-08-13T10:04:55Z</time>
      </trkpt>
      <trkpt lat="44.83138" lon="6.14271">
        <ele>1214</ele>
        <time>2024-08-13T10:04:56Z</time>
      </trkpt>
      <trkpt lat="44.83138" lon="6.14271">
        <ele>1214.2</ele>
        <time>2024-08-13T10:04:57Z</time>
      </trkpt>
      <trkpt lat="44.83138" lon="6.14271">
        <ele>1214.6</ele>
        <time>2024-08-13T10:04:58Z</time>
      </trkpt>
      <trkpt lat="44.83138" lon="6.14271">
        <ele>1214.8</ele>
        <time>2024-08-13T10:04:59Z</time>
      </trkpt>
      <trkpt lat="44.8314" lon="6.14269">
        <ele>1215</ele>
        <time>2024-08-13T10:05:00Z</time>
      </trkpt>
      <trkpt lat="44.8314" lon="6.14269">
        <ele>1215</ele>
        <time>2024-08-13T10:05:01Z</time>
      </trkpt>
      <trkpt lat="44.8314" lon="6.14269">
        <ele>1215.2</ele>
        <time>2024-08-13T10:05:02Z</time>
      </trkpt>
      <trkpt lat="44.83141" lon="6.14267">
        <ele>1215.2</ele>
        <time>2024-08-13T10:05:03Z</time>
      </trkpt>
      <trkpt lat="44.83141" lon="6.14267">
        <ele>1215.6</ele>
        <time>2024-08-13T10:05:04Z</time>
      </trkpt>
      <trkpt lat="44.83141" lon="6.14267">
        <ele>1215.6</ele>
        <time>2024-08-13T10:05:05Z</time>
      </trkpt>
      <trkpt lat="44.83141" lon="6.14267">
        <ele>1215.8</ele>
        <time>2024-08-13T10:05:06Z</time>
      </trkpt>
      <trkpt lat="44.83144" lon="6.14265">
        <ele>1215.8</ele>
        <time>2024-08-13T10:05:07Z</time>
      </trkpt>
      <trkpt lat="44.83144" lon="6.14265">
        <ele>1216.2</ele>
        <time>2024-08-13T10:05:08Z</time>
      </trkpt>
      <trkpt lat="44.83144" lon="6.14265">
        <ele>1216.2</ele>
        <time>2024-08-13T10:05:09Z</time>
      </trkpt>
      <trkpt lat="44.83145" lon="6.14263">
        <ele>1216.4</ele>
        <time>2024-08-13T10:05:10Z</time>
      </trkpt>
      <trkpt lat="44.83145" lon="6.14263">
        <ele>1216.6</ele>
        <time>2024-08-13T10:05:11Z</time>
      </trkpt>
      <trkpt lat="44.83145" lon="6.14263">
        <ele>1216.8</ele>
        <time>2024-08-13T10:05:12Z</time>
      </trkpt>
      <trkpt lat="44.83145" lon="6.14263">
        <ele>1217</ele>
        <time>2024-08-13T10:05:13Z</time>
      </trkpt>
      <trkpt lat="44.83145" lon="6.14263">
        <ele>1217.2</ele>
        <time>2024-08-13T10:05:14Z</time>
      </trkpt>
      <trkpt lat="44.83145" lon="6.14263">
        <ele>1217.4</ele>
        <time>2024-08-13T10:05:15Z</time>
      </trkpt>
      <trkpt lat="44.83145" lon="6.14263">
        <ele>1217.8</ele>
        <time>2024-08-13T10:05:16Z</time>
      </trkpt>
      <trkpt lat="44.83145" lon="6.14263">
        <ele>1217.8</ele>
        <time>2024-08-13T10:05:17Z</time>
      </trkpt>
      <trkpt lat="44.83145" lon="6.14263">
        <ele>1217.8</ele>
        <time>2024-08-13T10:05:18Z</time>
      </trkpt>
      <trkpt lat="44.83145" lon="6.14263">
        <ele>1217.6</ele>
        <time>2024-08-13T10:05:19Z</time>
      </trkpt>
      <trkpt lat="44.83145" lon="6.14263">
        <ele>1217.6</ele>
        <time>2024-08-13T10:05:20Z</time>
      </trkpt>
      <trkpt lat="44.83145" lon="6.14263">
        <ele>1217.6</ele>
        <time>2024-08-13T10:05:21Z</time>
      </trkpt>
      <trkpt lat="44.83145" lon="6.14263">
        <ele>1217.6</ele>
        <time>2024-08-13T10:05:22Z</time>
      </trkpt>
      <trkpt lat="44.83145" lon="6.14263">
        <ele>1217.6</ele>
        <time>2024-08-13T10:05:23Z</time>
      </trkpt>
      <trkpt lat="44.83145" lon="6.14263">
        <ele>1217.6</ele>
        <time>2024-08-13T10:05:24Z</time>
      </trkpt>
      <trkpt lat="44.83145" lon="6.14263">
        <ele>1217.8</ele>
        <time>2024-08-13T10:05:25Z</time>
      </trkpt>
      <trkpt lat="44.83145" lon="6.14263">
        <ele>1217.8</ele>
        <time>2024-08-13T10:05:26Z</time>
      </trkpt>
      <trkpt lat="44.83145" lon="6.14263">
        <ele>1217.6</ele>
        <time>2024-08-13T10:05:27Z</time>
      </trkpt>
      <trkpt lat="44.83145" lon="6.14263">
        <ele>1217.6</ele>
        <time>2024-08-13T10:05:28Z</time>
      </trkpt>
      <trkpt lat="44.83145" lon="6.14263">
        <ele>1217.8</ele>
        <time>2024-08-13T10:05:29Z</time>
      </trkpt>
      <trkpt lat="44.83145" lon="6.14263">
        <ele>1218</ele>
        <time>2024-08-13T10:05:30Z</time>
      </trkpt>
      <trkpt lat="44.83145" lon="6.14263">
        <ele>1218.2</ele>
        <time>2024-08-13T10:05:31Z</time>
      </trkpt>
      <trkpt lat="44.83145" lon="6.14263">
        <ele>1218.2</ele>
        <time>2024-08-13T10:05:32Z</time>
      </trkpt>
      <trkpt lat="44.83145" lon="6.14263">
        <ele>1218.2</ele>
        <time>2024-08-13T10:05:33Z</time>
      </trkpt>
      <trkpt lat="44.83145" lon="6.14263">
        <ele>1218.2</ele>
        <time>2024-08-13T10:05:34Z</time>
      </trkpt>
      <trkpt lat="44.83145" lon="6.14263">
        <ele>1218.2</ele>
        <time>2024-08-13T10:05:35Z</time>
      </trkpt>
      <trkpt lat="44.83145" lon="6.14263">
        <ele>1218.2</ele>
        <time>2024-08-13T10:05:36Z</time>
      </trkpt>
      <trkpt lat="44.83145" lon="6.14263">
        <ele>1218.2</ele>
        <time>2024-08-13T10:05:37Z</time>
      </trkpt>
      <trkpt lat="44.83145" lon="6.14263">
        <ele>1218.2</ele>
        <time>2024-08-13T10:05:38Z</time>
      </trkpt>
      <trkpt lat="44.83145" lon="6.14263">
        <ele>1218.2</ele>
        <time>2024-08-13T10:05:39Z</time>
      </trkpt>
      <trkpt lat="44.83145" lon="6.14263">
        <ele>1218.2</ele>
        <time>2024-08-13T10:05:40Z</time>
      </trkpt>
      <trkpt lat="44.83145" lon="6.14263">
        <ele>1218.2</ele>
        <time>2024-08-13T10:05:41Z</time>
      </trkpt>
      <trkpt lat="44.83145" lon="6.14263">
        <ele>1218.2</ele>
        <time>2024-08-13T10:05:42Z</time>
      </trkpt>
      <trkpt lat="44.83145" lon="6.14263">
        <ele>1218.2</ele>
        <time>2024-08-13T10:05:43Z</time>
      </trkpt>
      <trkpt lat="44.83145" lon="6.14263">
        <ele>1218.6</ele>
        <time>2024-08-13T10:05:44Z</time>
      </trkpt>
      <trkpt lat="44.83145" lon="6.14263">
        <ele>1219</ele>
        <time>2024-08-13T10:05:45Z</time>
      </trkpt>
      <trkpt lat="44.83145" lon="6.14263">
        <ele>1219</ele>
        <time>2024-08-13T10:05:46Z</time>
      </trkpt>
      <trkpt lat="44.83145" lon="6.14263">
        <ele>1218.6</ele>
        <time>2024-08-13T10:05:47Z</time>
      </trkpt>
      <trkpt lat="44.83145" lon="6.14263">
        <ele>1218.6</ele>
        <time>2024-08-13T10:05:48Z</time>
      </trkpt>
      <trkpt lat="44.83145" lon="6.14263">
        <ele>1218.4</ele>
        <time>2024-08-13T10:05:49Z</time>
      </trkpt>
      <trkpt lat="44.83145" lon="6.14263">
        <ele>1218.4</ele>
        <time>2024-08-13T10:05:50Z</time>
      </trkpt>
      <trkpt lat="44.83145" lon="6.14263">
        <ele>1218.2</ele>
        <time>2024-08-13T10:05:51Z</time>
      </trkpt>
      <trkpt lat="44.83145" lon="6.14263">
        <ele>1218.2</ele>
        <time>2024-08-13T10:05:52Z</time>
      </trkpt>
      <trkpt lat="44.83145" lon="6.14263">
        <ele>1218.4</ele>
        <time>2024-08-13T10:05:53Z</time>
      </trkpt>
      <trkpt lat="44.83145" lon="6.14263">
        <ele>1218.8</ele>
        <time>2024-08-13T10:05:54Z</time>
      </trkpt>
      <trkpt lat="44.83145" lon="6.14263">
        <ele>1218.8</ele>
        <time>2024-08-13T10:05:55Z</time>
      </trkpt>
      <trkpt lat="44.83145" lon="6.14263">
        <ele>1218.8</ele>
        <time>2024-08-13T10:05:56Z</time>
      </trkpt>
      <trkpt lat="44.83145" lon="6.14263">
        <ele>1218.8</ele>
        <time>2024-08-13T10:05:57Z</time>
      </trkpt>
      <trkpt lat="44.83145" lon="6.14263">
        <ele>1218.6</ele>
        <time>2024-08-13T10:05:58Z</time>
      </trkpt>
      <trkpt lat="44.83145" lon="6.14263">
        <ele>1218.6</ele>
        <time>2024-08-13T10:05:59Z</time>
      </trkpt>
      <trkpt lat="44.83145" lon="6.14263">
        <ele>1218.8</ele>
        <time>2024-08-13T10:06:00Z</time>
      </trkpt>
      <trkpt lat="44.83145" lon="6.14263">
        <ele>1219</ele>
        <time>2024-08-13T10:06:01Z</time>
      </trkpt>
      <trkpt lat="44.83145" lon="6.14263">
        <ele>1219</ele>
        <time>2024-08-13T10:06:02Z</time>
      </trkpt>
      <trkpt lat="44.83145" lon="6.14263">
        <ele>1219</ele>
        <time>2024-08-13T10:06:03Z</time>
      </trkpt>
      <trkpt lat="44.83145" lon="6.14263">
        <ele>1219</ele>
        <time>2024-08-13T10:06:04Z</time>
      </trkpt>
      <trkpt lat="44.83145" lon="6.14263">
        <ele>1219</ele>
        <time>2024-08-13T10:06:05Z</time>
      </trkpt>
      <trkpt lat="44.83145" lon="6.14263">
        <ele>1219</ele>
        <time>2024-08-13T10:06:06Z</time>
      </trkpt>
      <trkpt lat="44.83145" lon="6.14263">
        <ele>1219.2</ele>
        <time>2024-08-13T10:06:07Z</time>
      </trkpt>
      <trkpt lat="44.83145" lon="6.14263">
        <ele>1219</ele>
        <time>2024-08-13T10:06:08Z</time>
      </trkpt>
      <trkpt lat="44.83145" lon="6.14263">
        <ele>1219.2</ele>
        <time>2024-08-13T10:06:09Z</time>
      </trkpt>
      <trkpt lat="44.83145" lon="6.14263">
        <ele>1219.2</ele>
        <time>2024-08-13T10:06:10Z</time>
      </trkpt>
      <trkpt lat="44.83145" lon="6.14263">
        <ele>1219.2</ele>
        <time>2024-08-13T10:06:11Z</time>
      </trkpt>
      <trkpt lat="44.83145" lon="6.14263">
        <ele>1219</ele>
        <time>2024-08-13T10:06:12Z</time>
      </trkpt>
      <trkpt lat="44.83145" lon="6.14263">
        <ele>1219</ele>
        <time>2024-08-13T10:06:13Z</time>
      </trkpt>
      <trkpt lat="44.83145" lon="6.14263">
        <ele>1219</ele>
        <time>2024-08-13T10:06:14Z</time>
      </trkpt>
      <trkpt lat="44.83145" lon="6.14263">
        <ele>1219</ele>
        <time>2024-08-13T10:06:15Z</time>
      </trkpt>
      <trkpt lat="44.83145" lon="6.14263">
        <ele>1219</ele>
        <time>2024-08-13T10:06:16Z</time>
      </trkpt>
      <trkpt lat="44.83145" lon="6.14263">
        <ele>1219.2</ele>
        <time>2024-08-13T10:06:17Z</time>
      </trkpt>
      <trkpt lat="44.83145" lon="6.14263">
        <ele>1219.2</ele>
        <time>2024-08-13T10:06:18Z</time>
      </trkpt>
      <trkpt lat="44.83145" lon="6.14263">
        <ele>1219.2</ele>
        <time>2024-08-13T10:06:19Z</time>
      </trkpt>
      <trkpt lat="44.83145" lon="6.14263">
        <ele>1219.2</ele>
        <time>2024-08-13T10:06:20Z</time>
      </trkpt>
      <trkpt lat="44.83145" lon="6.14263">
        <ele>1219.4</ele>
        <time>2024-08-13T10:06:21Z</time>
      </trkpt>
      <trkpt lat="44.83145" lon="6.14263">
        <ele>1219.8</ele>
        <time>2024-08-13T10:06:22Z</time>
      </trkpt>
      <trkpt lat="44.83145" lon="6.14263">
        <ele>1219.8</ele>
        <time>2024-08-13T10:06:23Z</time>
      </trkpt>
      <trkpt lat="44.83145" lon="6.14263">
        <ele>1219.6</ele>
        <time>2024-08-13T10:06:24Z</time>
      </trkpt>
      <trkpt lat="44.83145" lon="6.14263">
        <ele>1219.6</ele>
        <time>2024-08-13T10:06:25Z</time>
      </trkpt>
      <trkpt lat="44.83145" lon="6.14263">
        <ele>1219.6</ele>
        <time>2024-08-13T10:06:26Z</time>
      </trkpt>
      <trkpt lat="44.83145" lon="6.14263">
        <ele>1219.4</ele>
        <time>2024-08-13T10:06:27Z</time>
      </trkpt>
      <trkpt lat="44.83145" lon="6.14263">
        <ele>1219.4</ele>
        <time>2024-08-13T10:06:28Z</time>
      </trkpt>
      <trkpt lat="44.83145" lon="6.14263">
        <ele>1219.2</ele>
        <time>2024-08-13T10:06:29Z</time>
      </trkpt>
      <trkpt lat="44.83145" lon="6.14263">
        <ele>1219</ele>
        <time>2024-08-13T10:06:30Z</time>
      </trkpt>
      <trkpt lat="44.83145" lon="6.14263">
        <ele>1218.8</ele>
        <time>2024-08-13T10:06:31Z</time>
      </trkpt>
      <trkpt lat="44.83145" lon="6.14263">
        <ele>1218.6</ele>
        <time>2024-08-13T10:06:32Z</time>
      </trkpt>
      <trkpt lat="44.83145" lon="6.14263">
        <ele>1218.6</ele>
        <time>2024-08-13T10:06:33Z</time>
      </trkpt>
      <trkpt lat="44.83145" lon="6.14263">
        <ele>1218.6</ele>
        <time>2024-08-13T10:06:34Z</time>
      </trkpt>
      <trkpt lat="44.83145" lon="6.14263">
        <ele>1218.6</ele>
        <time>2024-08-13T10:06:35Z</time>
      </trkpt>
      <trkpt lat="44.83145" lon="6.14263">
        <ele>1218.6</ele>
        <time>2024-08-13T10:06:36Z</time>
      </trkpt>
      <trkpt lat="44.83145" lon="6.14263">
        <ele>1218.6</ele>
        <time>2024-08-13T10:06:37Z</time>
      </trkpt>
      <trkpt lat="44.83145" lon="6.14263">
        <ele>1218.6</ele>
        <time>2024-08-13T10:06:38Z</time>
      </trkpt>
      <trkpt lat="44.83145" lon="6.14263">
        <ele>1218.8</ele>
        <time>2024-08-13T10:06:39Z</time>
      </trkpt>
      <trkpt lat="44.83145" lon="6.14263">
        <ele>1219</ele>
        <time>2024-08-13T10:06:40Z</time>
      </trkpt>
      <trkpt lat="44.83145" lon="6.14263">
        <ele>1219.2</ele>
        <time>2024-08-13T10:06:41Z</time>
      </trkpt>
      <trkpt lat="44.83145" lon="6.14263">
        <ele>1219.4</ele>
        <time>2024-08-13T10:06:42Z</time>
      </trkpt>
      <trkpt lat="44.83145" lon="6.14263">
        <ele>1219.4</ele>
        <time>2024-08-13T10:06:43Z</time>
      </trkpt>
      <trkpt lat="44.83145" lon="6.14263">
        <ele>1219.4</ele>
        <time>2024-08-13T10:06:44Z</time>
      </trkpt>
      <trkpt lat="44.83145" lon="6.14263">
        <ele>1219.4</ele>
        <time>2024-08-13T10:06:45Z</time>
      </trkpt>
      <trkpt lat="44.83145" lon="6.14263">
        <ele>1219</ele>
        <time>2024-08-13T10:06:46Z</time>
      </trkpt>
      <trkpt lat="44.83145" lon="6.14263">
        <ele>1219</ele>
        <time>2024-08-13T10:06:47Z</time>
      </trkpt>
      <trkpt lat="44.83145" lon="6.14263">
        <ele>1218.8</ele>
        <time>2024-08-13T10:06:48Z</time>
      </trkpt>
      <trkpt lat="44.83145" lon="6.14263">
        <ele>1219</ele>
        <time>2024-08-13T10:06:49Z</time>
      </trkpt>
      <trkpt lat="44.83145" lon="6.14263">
        <ele>1219</ele>
        <time>2024-08-13T10:06:50Z</time>
      </trkpt>
      <trkpt lat="44.83145" lon="6.14263">
        <ele>1219.2</ele>
        <time>2024-08-13T10:06:51Z</time>
      </trkpt>
      <trkpt lat="44.83145" lon="6.14263">
        <ele>1219.2</ele>
        <time>2024-08-13T10:06:52Z</time>
      </trkpt>
      <trkpt lat="44.83145" lon="6.14263">
        <ele>1219.2</ele>
        <time>2024-08-13T10:06:53Z</time>
      </trkpt>
      <trkpt lat="44.83145" lon="6.14263">
        <ele>1219.2</ele>
        <time>2024-08-13T10:06:54Z</time>
      </trkpt>
      <trkpt lat="44.83145" lon="6.14263">
        <ele>1219.4</ele>
        <time>2024-08-13T10:06:55Z</time>
      </trkpt>
      <trkpt lat="44.83145" lon="6.14263">
        <ele>1219.4</ele>
        <time>2024-08-13T10:06:56Z</time>
      </trkpt>
      <trkpt lat="44.83145" lon="6.14263">
        <ele>1219.4</ele>
        <time>2024-08-13T10:06:57Z</time>
      </trkpt>
      <trkpt lat="44.83145" lon="6.14263">
        <ele>1219.4</ele>
        <time>2024-08-13T10:06:58Z</time>
      </trkpt>
      <trkpt lat="44.83145" lon="6.14263">
        <ele>1219.4</ele>
        <time>2024-08-13T10:06:59Z</time>
      </trkpt>
      <trkpt lat="44.83145" lon="6.14263">
        <ele>1219.4</ele>
        <time>2024-08-13T10:07:00Z</time>
      </trkpt>
      <trkpt lat="44.83145" lon="6.14263">
        <ele>1219.4</ele>
        <time>2024-08-13T10:07:01Z</time>
      </trkpt>
      <trkpt lat="44.83145" lon="6.14263">
        <ele>1219.4</ele>
        <time>2024-08-13T10:07:02Z</time>
      </trkpt>
      <trkpt lat="44.83145" lon="6.14263">
        <ele>1219.4</ele>
        <time>2024-08-13T10:07:03Z</time>
      </trkpt>
      <trkpt lat="44.83145" lon="6.14263">
        <ele>1219.4</ele>
        <time>2024-08-13T10:07:04Z</time>
      </trkpt>
      <trkpt lat="44.83145" lon="6.14263">
        <ele>1219.6</ele>
        <time>2024-08-13T10:07:05Z</time>
      </trkpt>
      <trkpt lat="44.83145" lon="6.14263">
        <ele>1219.8</ele>
        <time>2024-08-13T10:07:06Z</time>
      </trkpt>
      <trkpt lat="44.83145" lon="6.14263">
        <ele>1219.8</ele>
        <time>2024-08-13T10:07:07Z</time>
      </trkpt>
      <trkpt lat="44.83145" lon="6.14263">
        <ele>1219.8</ele>
        <time>2024-08-13T10:07:08Z</time>
      </trkpt>
      <trkpt lat="44.83145" lon="6.14263">
        <ele>1219.8</ele>
        <time>2024-08-13T10:07:09Z</time>
      </trkpt>
      <trkpt lat="44.83145" lon="6.14263">
        <ele>1219.8</ele>
        <time>2024-08-13T10:07:10Z</time>
      </trkpt>
      <trkpt lat="44.83145" lon="6.14263">
        <ele>1219.6</ele>
        <time>2024-08-13T10:07:11Z</time>
      </trkpt>
      <trkpt lat="44.83145" lon="6.14263">
        <ele>1219.6</ele>
        <time>2024-08-13T10:07:12Z</time>
      </trkpt>
      <trkpt lat="44.83145" lon="6.14263">
        <ele>1219.6</ele>
        <time>2024-08-13T10:07:13Z</time>
      </trkpt>
      <trkpt lat="44.83145" lon="6.14263">
        <ele>1219.6</ele>
        <time>2024-08-13T10:07:14Z</time>
      </trkpt>
      <trkpt lat="44.83145" lon="6.14263">
        <ele>1219.4</ele>
        <time>2024-08-13T10:07:15Z</time>
      </trkpt>
      <trkpt lat="44.83148" lon="6.14262">
        <ele>1219.4</ele>
        <time>2024-08-13T10:07:16Z</time>
      </trkpt>
      <trkpt lat="44.83148" lon="6.14262">
        <ele>1220</ele>
        <time>2024-08-13T10:07:17Z</time>
      </trkpt>
      <trkpt lat="44.83149" lon="6.14261">
        <ele>1220.4</ele>
        <time>2024-08-13T10:07:18Z</time>
      </trkpt>
      <trkpt lat="44.83149" lon="6.14261">
        <ele>1221</ele>
        <time>2024-08-13T10:07:19Z</time>
      </trkpt>
      <trkpt lat="44.83151" lon="6.14261">
        <ele>1221</ele>
        <time>2024-08-13T10:07:20Z</time>
      </trkpt>
      <trkpt lat="44.83151" lon="6.14261">
        <ele>1221.4</ele>
        <time>2024-08-13T10:07:21Z</time>
      </trkpt>
      <trkpt lat="44.83151" lon="6.14261">
        <ele>1221.6</ele>
        <time>2024-08-13T10:07:22Z</time>
      </trkpt>
      <trkpt lat="44.83153" lon="6.14259">
        <ele>1221.6</ele>
        <time>2024-08-13T10:07:23Z</time>
      </trkpt>
      <trkpt lat="44.83153" lon="6.14259">
        <ele>1221.8</ele>
        <time>2024-08-13T10:07:24Z</time>
      </trkpt>
      <trkpt lat="44.83153" lon="6.14259">
        <ele>1221.8</ele>
        <time>2024-08-13T10:07:25Z</time>
      </trkpt>
      <trkpt lat="44.83156" lon="6.14257">
        <ele>1221.8</ele>
        <time>2024-08-13T10:07:26Z</time>
      </trkpt>
      <trkpt lat="44.83156" lon="6.14257">
        <ele>1221.8</ele>
        <time>2024-08-13T10:07:27Z</time>
      </trkpt>
      <trkpt lat="44.83156" lon="6.14257">
        <ele>1222.2</ele>
        <time>2024-08-13T10:07:28Z</time>
      </trkpt>
      <trkpt lat="44.83158" lon="6.14256">
        <ele>1222.2</ele>
        <time>2024-08-13T10:07:29Z</time>
      </trkpt>
      <trkpt lat="44.83158" lon="6.14256">
        <ele>1222.6</ele>
        <time>2024-08-13T10:07:30Z</time>
      </trkpt>
      <trkpt lat="44.83158" lon="6.14256">
        <ele>1222.8</ele>
        <time>2024-08-13T10:07:31Z</time>
      </trkpt>
      <trkpt lat="44.8316" lon="6.14255">
        <ele>1222.8</ele>
        <time>2024-08-13T10:07:32Z</time>
      </trkpt>
      <trkpt lat="44.8316" lon="6.14255">
        <ele>1223.2</ele>
        <time>2024-08-13T10:07:33Z</time>
      </trkpt>
      <trkpt lat="44.8316" lon="6.14255">
        <ele>1223.4</ele>
        <time>2024-08-13T10:07:34Z</time>
      </trkpt>
      <trkpt lat="44.83162" lon="6.14253">
        <ele>1223.6</ele>
        <time>2024-08-13T10:07:35Z</time>
      </trkpt>
      <trkpt lat="44.83162" lon="6.14253">
        <ele>1223.8</ele>
        <time>2024-08-13T10:07:36Z</time>
      </trkpt>
      <trkpt lat="44.83163" lon="6.14251">
        <ele>1223.8</ele>
        <time>2024-08-13T10:07:37Z</time>
      </trkpt>
      <trkpt lat="44.83163" lon="6.14251">
        <ele>1223.8</ele>
        <time>2024-08-13T10:07:38Z</time>
      </trkpt>
      <trkpt lat="44.83164" lon="6.14248">
        <ele>1224</ele>
        <time>2024-08-13T10:07:39Z</time>
      </trkpt>
      <trkpt lat="44.83164" lon="6.14248">
        <ele>1224</ele>
        <time>2024-08-13T10:07:40Z</time>
      </trkpt>
      <trkpt lat="44.83164" lon="6.14245">
        <ele>1224</ele>
        <time>2024-08-13T10:07:41Z</time>
      </trkpt>
      <trkpt lat="44.83164" lon="6.14245">
        <ele>1224</ele>
        <time>2024-08-13T10:07:42Z</time>
      </trkpt>
      <trkpt lat="44.83164" lon="6.14243">
        <ele>1224</ele>
        <time>2024-08-13T10:07:43Z</time>
      </trkpt>
      <trkpt lat="44.83164" lon="6.14243">
        <ele>1224</ele>
        <time>2024-08-13T10:07:44Z</time>
      </trkpt>
      <trkpt lat="44.83164" lon="6.14243">
        <ele>1224</ele>
        <time>2024-08-13T10:07:45Z</time>
      </trkpt>
      <trkpt lat="44.83164" lon="6.14243">
        <ele>1224.2</ele>
        <time>2024-08-13T10:07:46Z</time>
      </trkpt>
      <trkpt lat="44.83165" lon="6.1424">
        <ele>1224.2</ele>
        <time>2024-08-13T10:07:47Z</time>
      </trkpt>
      <trkpt lat="44.83165" lon="6.1424">
        <ele>1224.4</ele>
        <time>2024-08-13T10:07:48Z</time>
      </trkpt>
      <trkpt lat="44.83165" lon="6.1424">
        <ele>1224.4</ele>
        <time>2024-08-13T10:07:49Z</time>
      </trkpt>
      <trkpt lat="44.83168" lon="6.14238">
        <ele>1224.6</ele>
        <time>2024-08-13T10:07:50Z</time>
      </trkpt>
      <trkpt lat="44.83168" lon="6.14238">
        <ele>1224.8</ele>
        <time>2024-08-13T10:07:51Z</time>
      </trkpt>
      <trkpt lat="44.83168" lon="6.14238">
        <ele>1225</ele>
        <time>2024-08-13T10:07:52Z</time>
      </trkpt>
      <trkpt lat="44.8317" lon="6.14236">
        <ele>1225.2</ele>
        <time>2024-08-13T10:07:53Z</time>
      </trkpt>
      <trkpt lat="44.8317" lon="6.14236">
        <ele>1225.2</ele>
        <time>2024-08-13T10:07:54Z</time>
      </trkpt>
      <trkpt lat="44.8317" lon="6.14236">
        <ele>1225.6</ele>
        <time>2024-08-13T10:07:55Z</time>
      </trkpt>
      <trkpt lat="44.83172" lon="6.14235">
        <ele>1226</ele>
        <time>2024-08-13T10:07:56Z</time>
      </trkpt>
      <trkpt lat="44.83172" lon="6.14235">
        <ele>1226</ele>
        <time>2024-08-13T10:07:57Z</time>
      </trkpt>
      <trkpt lat="44.83172" lon="6.14235">
        <ele>1226</ele>
        <time>2024-08-13T10:07:58Z</time>
      </trkpt>
      <trkpt lat="44.83173" lon="6.14234">
        <ele>1226.4</ele>
        <time>2024-08-13T10:07:59Z</time>
      </trkpt>
      <trkpt lat="44.83173" lon="6.14234">
        <ele>1226.4</ele>
        <time>2024-08-13T10:08:00Z</time>
      </trkpt>
      <trkpt lat="44.83173" lon="6.14234">
        <ele>1226.4</ele>
        <time>2024-08-13T10:08:01Z</time>
      </trkpt>
      <trkpt lat="44.83175" lon="6.14233">
        <ele>1226.8</ele>
        <time>2024-08-13T10:08:02Z</time>
      </trkpt>
      <trkpt lat="44.83175" lon="6.14233">
        <ele>1226.8</ele>
        <time>2024-08-13T10:08:03Z</time>
      </trkpt>
      <trkpt lat="44.83175" lon="6.14233">
        <ele>1227</ele>
        <time>2024-08-13T10:08:04Z</time>
      </trkpt>
      <trkpt lat="44.83177" lon="6.14233">
        <ele>1227.6</ele>
        <time>2024-08-13T10:08:05Z</time>
      </trkpt>
      <trkpt lat="44.83177" lon="6.14233">
        <ele>1227.6</ele>
        <time>2024-08-13T10:08:06Z</time>
      </trkpt>
      <trkpt lat="44.83177" lon="6.14233">
        <ele>1227.6</ele>
        <time>2024-08-13T10:08:07Z</time>
      </trkpt>
      <trkpt lat="44.83177" lon="6.14233">
        <ele>1228</ele>
        <time>2024-08-13T10:08:08Z</time>
      </trkpt>
      <trkpt lat="44.83179" lon="6.14232">
        <ele>1228</ele>
        <time>2024-08-13T10:08:09Z</time>
      </trkpt>
      <trkpt lat="44.83179" lon="6.14232">
        <ele>1228.6</ele>
        <time>2024-08-13T10:08:10Z</time>
      </trkpt>
      <trkpt lat="44.83179" lon="6.14232">
        <ele>1228.6</ele>
        <time>2024-08-13T10:08:11Z</time>
      </trkpt>
      <trkpt lat="44.83179" lon="6.14232">
        <ele>1228.8</ele>
        <time>2024-08-13T10:08:12Z</time>
      </trkpt>
      <trkpt lat="44.83181" lon="6.14231">
        <ele>1229.2</ele>
        <time>2024-08-13T10:08:13Z</time>
      </trkpt>
      <trkpt lat="44.83181" lon="6.14231">
        <ele>1229.2</ele>
        <time>2024-08-13T10:08:14Z</time>
      </trkpt>
      <trkpt lat="44.83181" lon="6.14231">
        <ele>1229.2</ele>
        <time>2024-08-13T10:08:15Z</time>
      </trkpt>
      <trkpt lat="44.83184" lon="6.14229">
        <ele>1229.4</ele>
        <time>2024-08-13T10:08:16Z</time>
      </trkpt>
      <trkpt lat="44.83184" lon="6.14229">
        <ele>1230</ele>
        <time>2024-08-13T10:08:17Z</time>
      </trkpt>
      <trkpt lat="44.83184" lon="6.14229">
        <ele>1230</ele>
        <time>2024-08-13T10:08:18Z</time>
      </trkpt>
      <trkpt lat="44.83184" lon="6.14229">
        <ele>1230</ele>
        <time>2024-08-13T10:08:19Z</time>
      </trkpt>
      <trkpt lat="44.83184" lon="6.14232">
        <ele>1230.2</ele>
        <time>2024-08-13T10:08:20Z</time>
      </trkpt>
      <trkpt lat="44.83184" lon="6.14232">
        <ele>1230.4</ele>
        <time>2024-08-13T10:08:21Z</time>
      </trkpt>
      <trkpt lat="44.83184" lon="6.14232">
        <ele>1230.4</ele>
        <time>2024-08-13T10:08:22Z</time>
      </trkpt>
      <trkpt lat="44.83184" lon="6.14232">
        <ele>1230.6</ele>
        <time>2024-08-13T10:08:23Z</time>
      </trkpt>
      <trkpt lat="44.83183" lon="6.14236">
        <ele>1230.8</ele>
        <time>2024-08-13T10:08:24Z</time>
      </trkpt>
      <trkpt lat="44.83183" lon="6.14236">
        <ele>1230.8</ele>
        <time>2024-08-13T10:08:25Z</time>
      </trkpt>
      <trkpt lat="44.83183" lon="6.14236">
        <ele>1231.2</ele>
        <time>2024-08-13T10:08:26Z</time>
      </trkpt>
      <trkpt lat="44.83183" lon="6.14236">
        <ele>1231.6</ele>
        <time>2024-08-13T10:08:27Z</time>
      </trkpt>
      <trkpt lat="44.83183" lon="6.14236">
        <ele>1231.6</ele>
        <time>2024-08-13T10:08:28Z</time>
      </trkpt>
      <trkpt lat="44.83183" lon="6.14236">
        <ele>1231.6</ele>
        <time>2024-08-13T10:08:29Z</time>
      </trkpt>
      <trkpt lat="44.83183" lon="6.14236">
        <ele>1232.2</ele>
        <time>2024-08-13T10:08:30Z</time>
      </trkpt>
      <trkpt lat="44.83183" lon="6.14236">
        <ele>1232.6</ele>
        <time>2024-08-13T10:08:31Z</time>
      </trkpt>
      <trkpt lat="44.83182" lon="6.14238">
        <ele>1232.6</ele>
        <time>2024-08-13T10:08:32Z</time>
      </trkpt>
      <trkpt lat="44.83182" lon="6.14238">
        <ele>1232.8</ele>
        <time>2024-08-13T10:08:33Z</time>
      </trkpt>
      <trkpt lat="44.83181" lon="6.14241">
        <ele>1232.8</ele>
        <time>2024-08-13T10:08:34Z</time>
      </trkpt>
      <trkpt lat="44.83181" lon="6.14241">
        <ele>1233</ele>
        <time>2024-08-13T10:08:35Z</time>
      </trkpt>
      <trkpt lat="44.8318" lon="6.14244">
        <ele>1233.2</ele>
        <time>2024-08-13T10:08:36Z</time>
      </trkpt>
      <trkpt lat="44.8318" lon="6.14244">
        <ele>1233.6</ele>
        <time>2024-08-13T10:08:37Z</time>
      </trkpt>
      <trkpt lat="44.83179" lon="6.14246">
        <ele>1234</ele>
        <time>2024-08-13T10:08:38Z</time>
      </trkpt>
      <trkpt lat="44.83179" lon="6.14246">
        <ele>1234</ele>
        <time>2024-08-13T10:08:39Z</time>
      </trkpt>
      <trkpt lat="44.83179" lon="6.14246">
        <ele>1234.4</ele>
        <time>2024-08-13T10:08:40Z</time>
      </trkpt>
      <trkpt lat="44.83179" lon="6.14246">
        <ele>1235</ele>
        <time>2024-08-13T10:08:41Z</time>
      </trkpt>
      <trkpt lat="44.83179" lon="6.14246">
        <ele>1235.2</ele>
        <time>2024-08-13T10:08:42Z</time>
      </trkpt>
      <trkpt lat="44.83179" lon="6.14246">
        <ele>1235.4</ele>
        <time>2024-08-13T10:08:43Z</time>
      </trkpt>
      <trkpt lat="44.83179" lon="6.14246">
        <ele>1235.4</ele>
        <time>2024-08-13T10:08:44Z</time>
      </trkpt>
      <trkpt lat="44.83179" lon="6.14246">
        <ele>1235.4</ele>
        <time>2024-08-13T10:08:45Z</time>
      </trkpt>
      <trkpt lat="44.83179" lon="6.14246">
        <ele>1235.4</ele>
        <time>2024-08-13T10:08:46Z</time>
      </trkpt>
      <trkpt lat="44.83179" lon="6.14246">
        <ele>1235.4</ele>
        <time>2024-08-13T10:08:47Z</time>
      </trkpt>
      <trkpt lat="44.83179" lon="6.14246">
        <ele>1235.2</ele>
        <time>2024-08-13T10:08:48Z</time>
      </trkpt>
      <trkpt lat="44.83179" lon="6.14246">
        <ele>1235.2</ele>
        <time>2024-08-13T10:08:49Z</time>
      </trkpt>
      <trkpt lat="44.83179" lon="6.14246">
        <ele>1235.4</ele>
        <time>2024-08-13T10:08:50Z</time>
      </trkpt>
      <trkpt lat="44.83179" lon="6.14246">
        <ele>1235.4</ele>
        <time>2024-08-13T10:08:51Z</time>
      </trkpt>
      <trkpt lat="44.83179" lon="6.14246">
        <ele>1235.4</ele>
        <time>2024-08-13T10:08:52Z</time>
      </trkpt>
      <trkpt lat="44.83179" lon="6.14246">
        <ele>1235.4</ele>
        <time>2024-08-13T10:08:53Z</time>
      </trkpt>
      <trkpt lat="44.83179" lon="6.14246">
        <ele>1235.4</ele>
        <time>2024-08-13T10:08:54Z</time>
      </trkpt>
      <trkpt lat="44.83179" lon="6.14246">
        <ele>1235.4</ele>
        <time>2024-08-13T10:08:55Z</time>
      </trkpt>
      <trkpt lat="44.83179" lon="6.14246">
        <ele>1235.2</ele>
        <time>2024-08-13T10:08:56Z</time>
      </trkpt>
      <trkpt lat="44.83179" lon="6.14246">
        <ele>1235.2</ele>
        <time>2024-08-13T10:08:57Z</time>
      </trkpt>
      <trkpt lat="44.83179" lon="6.14246">
        <ele>1235.6</ele>
        <time>2024-08-13T10:08:58Z</time>
      </trkpt>
      <trkpt lat="44.83179" lon="6.14246">
        <ele>1235.6</ele>
        <time>2024-08-13T10:08:59Z</time>
      </trkpt>
      <trkpt lat="44.83181" lon="6.14246">
        <ele>1235.2</ele>
        <time>2024-08-13T10:09:00Z</time>
      </trkpt>
      <trkpt lat="44.83181" lon="6.14246">
        <ele>1235.2</ele>
        <time>2024-08-13T10:09:01Z</time>
      </trkpt>
      <trkpt lat="44.83183" lon="6.14244">
        <ele>1235.4</ele>
        <time>2024-08-13T10:09:02Z</time>
      </trkpt>
      <trkpt lat="44.83183" lon="6.14244">
        <ele>1235.4</ele>
        <time>2024-08-13T10:09:03Z</time>
      </trkpt>
      <trkpt lat="44.83185" lon="6.14243">
        <ele>1235.8</ele>
        <time>2024-08-13T10:09:04Z</time>
      </trkpt>
      <trkpt lat="44.83185" lon="6.14243">
        <ele>1235.8</ele>
        <time>2024-08-13T10:09:05Z</time>
      </trkpt>
      <trkpt lat="44.83187" lon="6.14242">
        <ele>1236</ele>
        <time>2024-08-13T10:09:06Z</time>
      </trkpt>
      <trkpt lat="44.83187" lon="6.14242">
        <ele>1236.2</ele>
        <time>2024-08-13T10:09:07Z</time>
      </trkpt>
      <trkpt lat="44.83187" lon="6.14242">
        <ele>1236.2</ele>
        <time>2024-08-13T10:09:08Z</time>
      </trkpt>
      <trkpt lat="44.83187" lon="6.14242">
        <ele>1236.6</ele>
        <time>2024-08-13T10:09:09Z</time>
      </trkpt>
      <trkpt lat="44.83189" lon="6.14242">
        <ele>1237</ele>
        <time>2024-08-13T10:09:10Z</time>
      </trkpt>
      <trkpt lat="44.83189" lon="6.14242">
        <ele>1237</ele>
        <time>2024-08-13T10:09:11Z</time>
      </trkpt>
      <trkpt lat="44.83189" lon="6.14242">
        <ele>1237</ele>
        <time>2024-08-13T10:09:12Z</time>
      </trkpt>
      <trkpt lat="44.83191" lon="6.14241">
        <ele>1237.4</ele>
        <time>2024-08-13T10:09:13Z</time>
      </trkpt>
      <trkpt lat="44.83191" lon="6.14241">
        <ele>1237.8</ele>
        <time>2024-08-13T10:09:14Z</time>
      </trkpt>
      <trkpt lat="44.83191" lon="6.14241">
        <ele>1237.8</ele>
        <time>2024-08-13T10:09:15Z</time>
      </trkpt>
      <trkpt lat="44.83193" lon="6.14241">
        <ele>1237.8</ele>
        <time>2024-08-13T10:09:16Z</time>
      </trkpt>
      <trkpt lat="44.83193" lon="6.14241">
        <ele>1238.2</ele>
        <time>2024-08-13T10:09:17Z</time>
      </trkpt>
      <trkpt lat="44.83193" lon="6.14241">
        <ele>1238.2</ele>
        <time>2024-08-13T10:09:18Z</time>
      </trkpt>
      <trkpt lat="44.83193" lon="6.14241">
        <ele>1238.4</ele>
        <time>2024-08-13T10:09:19Z</time>
      </trkpt>
      <trkpt lat="44.83195" lon="6.14241">
        <ele>1238.6</ele>
        <time>2024-08-13T10:09:20Z</time>
      </trkpt>
      <trkpt lat="44.83195" lon="6.14241">
        <ele>1238.8</ele>
        <time>2024-08-13T10:09:21Z</time>
      </trkpt>
      <trkpt lat="44.83195" lon="6.14241">
        <ele>1238.8</ele>
        <time>2024-08-13T10:09:22Z</time>
      </trkpt>
      <trkpt lat="44.83195" lon="6.14241">
        <ele>1239.2</ele>
        <time>2024-08-13T10:09:23Z</time>
      </trkpt>
      <trkpt lat="44.83195" lon="6.14241">
        <ele>1239.6</ele>
        <time>2024-08-13T10:09:24Z</time>
      </trkpt>
      <trkpt lat="44.83197" lon="6.14241">
        <ele>1239.8</ele>
        <time>2024-08-13T10:09:25Z</time>
      </trkpt>
      <trkpt lat="44.83197" lon="6.14241">
        <ele>1240.2</ele>
        <time>2024-08-13T10:09:26Z</time>
      </trkpt>
      <trkpt lat="44.83197" lon="6.14241">
        <ele>1240.2</ele>
        <time>2024-08-13T10:09:27Z</time>
      </trkpt>
      <trkpt lat="44.83196" lon="6.14243">
        <ele>1240.6</ele>
        <time>2024-08-13T10:09:28Z</time>
      </trkpt>
      <trkpt lat="44.83196" lon="6.14243">
        <ele>1240.8</ele>
        <time>2024-08-13T10:09:29Z</time>
      </trkpt>
      <trkpt lat="44.83196" lon="6.14243">
        <ele>1240.8</ele>
        <time>2024-08-13T10:09:30Z</time>
      </trkpt>
      <trkpt lat="44.83196" lon="6.14243">
        <ele>1240.8</ele>
        <time>2024-08-13T10:09:31Z</time>
      </trkpt>
      <trkpt lat="44.83196" lon="6.14243">
        <ele>1241</ele>
        <time>2024-08-13T10:09:32Z</time>
      </trkpt>
      <trkpt lat="44.83196" lon="6.14243">
        <ele>1241</ele>
        <time>2024-08-13T10:09:33Z</time>
      </trkpt>
      <trkpt lat="44.83196" lon="6.14243">
        <ele>1241.2</ele>
        <time>2024-08-13T10:09:34Z</time>
      </trkpt>
      <trkpt lat="44.83196" lon="6.14243">
        <ele>1241.2</ele>
        <time>2024-08-13T10:09:35Z</time>
      </trkpt>
      <trkpt lat="44.83196" lon="6.14243">
        <ele>1241.2</ele>
        <time>2024-08-13T10:09:36Z</time>
      </trkpt>
      <trkpt lat="44.83196" lon="6.14243">
        <ele>1241.2</ele>
        <time>2024-08-13T10:09:37Z</time>
      </trkpt>
      <trkpt lat="44.83196" lon="6.14243">
        <ele>1241.6</ele>
        <time>2024-08-13T10:09:38Z</time>
      </trkpt>
      <trkpt lat="44.83196" lon="6.14243">
        <ele>1241.8</ele>
        <time>2024-08-13T10:09:39Z</time>
      </trkpt>
      <trkpt lat="44.83196" lon="6.14243">
        <ele>1241.8</ele>
        <time>2024-08-13T10:09:40Z</time>
      </trkpt>
      <trkpt lat="44.83196" lon="6.14243">
        <ele>1242.2</ele>
        <time>2024-08-13T10:09:41Z</time>
      </trkpt>
      <trkpt lat="44.83196" lon="6.14243">
        <ele>1242.2</ele>
        <time>2024-08-13T10:09:42Z</time>
      </trkpt>
      <trkpt lat="44.83196" lon="6.14243">
        <ele>1242.6</ele>
        <time>2024-08-13T10:09:43Z</time>
      </trkpt>
      <trkpt lat="44.83194" lon="6.14247">
        <ele>1242.8</ele>
        <time>2024-08-13T10:09:44Z</time>
      </trkpt>
      <trkpt lat="44.83194" lon="6.14247">
        <ele>1243.2</ele>
        <time>2024-08-13T10:09:45Z</time>
      </trkpt>
      <trkpt lat="44.83192" lon="6.14251">
        <ele>1243.2</ele>
        <time>2024-08-13T10:09:46Z</time>
      </trkpt>
      <trkpt lat="44.83192" lon="6.14251">
        <ele>1243.2</ele>
        <time>2024-08-13T10:09:47Z</time>
      </trkpt>
      <trkpt lat="44.83191" lon="6.14254">
        <ele>1243.6</ele>
        <time>2024-08-13T10:09:48Z</time>
      </trkpt>
      <trkpt lat="44.83191" lon="6.14254">
        <ele>1243.8</ele>
        <time>2024-08-13T10:09:49Z</time>
      </trkpt>
      <trkpt lat="44.83191" lon="6.14254">
        <ele>1244</ele>
        <time>2024-08-13T10:09:50Z</time>
      </trkpt>
      <trkpt lat="44.83191" lon="6.14254">
        <ele>1245.2</ele>
        <time>2024-08-13T10:09:51Z</time>
      </trkpt>
      <trkpt lat="44.83191" lon="6.14254">
        <ele>1245.2</ele>
        <time>2024-08-13T10:09:52Z</time>
      </trkpt>
      <trkpt lat="44.83191" lon="6.14254">
        <ele>1245.2</ele>
        <time>2024-08-13T10:09:53Z</time>
      </trkpt>
      <trkpt lat="44.83191" lon="6.14254">
        <ele>1245.2</ele>
        <time>2024-08-13T10:09:54Z</time>
      </trkpt>
      <trkpt lat="44.83194" lon="6.14254">
        <ele>1245.2</ele>
        <time>2024-08-13T10:09:55Z</time>
      </trkpt>
      <trkpt lat="44.83194" lon="6.14254">
        <ele>1245.2</ele>
        <time>2024-08-13T10:09:56Z</time>
      </trkpt>
      <trkpt lat="44.83194" lon="6.14254">
        <ele>1245.6</ele>
        <time>2024-08-13T10:09:57Z</time>
      </trkpt>
      <trkpt lat="44.83195" lon="6.14253">
        <ele>1245.8</ele>
        <time>2024-08-13T10:09:58Z</time>
      </trkpt>
      <trkpt lat="44.83195" lon="6.14253">
        <ele>1245.8</ele>
        <time>2024-08-13T10:09:59Z</time>
      </trkpt>
      <trkpt lat="44.83195" lon="6.14253">
        <ele>1246.2</ele>
        <time>2024-08-13T10:10:00Z</time>
      </trkpt>
      <trkpt lat="44.83195" lon="6.14253">
        <ele>1246.4</ele>
        <time>2024-08-13T10:10:01Z</time>
      </trkpt>
      <trkpt lat="44.83195" lon="6.14253">
        <ele>1246.6</ele>
        <time>2024-08-13T10:10:02Z</time>
      </trkpt>
      <trkpt lat="44.83195" lon="6.14253">
        <ele>1246.8</ele>
        <time>2024-08-13T10:10:03Z</time>
      </trkpt>
      <trkpt lat="44.83198" lon="6.14251">
        <ele>1246.8</ele>
        <time>2024-08-13T10:10:04Z</time>
      </trkpt>
      <trkpt lat="44.83198" lon="6.14251">
        <ele>1247</ele>
        <time>2024-08-13T10:10:05Z</time>
      </trkpt>
      <trkpt lat="44.832" lon="6.1425">
        <ele>1247</ele>
        <time>2024-08-13T10:10:06Z</time>
      </trkpt>
      <trkpt lat="44.832" lon="6.1425">
        <ele>1247</ele>
        <time>2024-08-13T10:10:07Z</time>
      </trkpt>
      <trkpt lat="44.832" lon="6.1425">
        <ele>1247.4</ele>
        <time>2024-08-13T10:10:08Z</time>
      </trkpt>
      <trkpt lat="44.832" lon="6.1425">
        <ele>1247.6</ele>
        <time>2024-08-13T10:10:09Z</time>
      </trkpt>
      <trkpt lat="44.83201" lon="6.14252">
        <ele>1247.6</ele>
        <time>2024-08-13T10:10:10Z</time>
      </trkpt>
      <trkpt lat="44.83201" lon="6.14252">
        <ele>1248</ele>
        <time>2024-08-13T10:10:11Z</time>
      </trkpt>
      <trkpt lat="44.83201" lon="6.14252">
        <ele>1248.4</ele>
        <time>2024-08-13T10:10:12Z</time>
      </trkpt>
      <trkpt lat="44.83201" lon="6.14255">
        <ele>1248.4</ele>
        <time>2024-08-13T10:10:13Z</time>
      </trkpt>
      <trkpt lat="44.83201" lon="6.14255">
        <ele>1248.4</ele>
        <time>2024-08-13T10:10:14Z</time>
      </trkpt>
      <trkpt lat="44.83201" lon="6.14255">
        <ele>1248.6</ele>
        <time>2024-08-13T10:10:15Z</time>
      </trkpt>
      <trkpt lat="44.83201" lon="6.14255">
        <ele>1248.8</ele>
        <time>2024-08-13T10:10:16Z</time>
      </trkpt>
      <trkpt lat="44.83201" lon="6.14255">
        <ele>1249.2</ele>
        <time>2024-08-13T10:10:17Z</time>
      </trkpt>
      <trkpt lat="44.83201" lon="6.14255">
        <ele>1249.4</ele>
        <time>2024-08-13T10:10:18Z</time>
      </trkpt>
      <trkpt lat="44.83201" lon="6.14255">
        <ele>1249.6</ele>
        <time>2024-08-13T10:10:19Z</time>
      </trkpt>
      <trkpt lat="44.832" lon="6.14257">
        <ele>1249.8</ele>
        <time>2024-08-13T10:10:20Z</time>
      </trkpt>
      <trkpt lat="44.832" lon="6.14257">
        <ele>1250</ele>
        <time>2024-08-13T10:10:21Z</time>
      </trkpt>
      <trkpt lat="44.83199" lon="6.14259">
        <ele>1250</ele>
        <time>2024-08-13T10:10:22Z</time>
      </trkpt>
      <trkpt lat="44.83199" lon="6.14259">
        <ele>1250.2</ele>
        <time>2024-08-13T10:10:23Z</time>
      </trkpt>
      <trkpt lat="44.83198" lon="6.14262">
        <ele>1250.4</ele>
        <time>2024-08-13T10:10:24Z</time>
      </trkpt>
      <trkpt lat="44.83198" lon="6.14262">
        <ele>1250.4</ele>
        <time>2024-08-13T10:10:25Z</time>
      </trkpt>
      <trkpt lat="44.83197" lon="6.14265">
        <ele>1250.6</ele>
        <time>2024-08-13T10:10:26Z</time>
      </trkpt>
      <trkpt lat="44.83197" lon="6.14265">
        <ele>1250.6</ele>
        <time>2024-08-13T10:10:27Z</time>
      </trkpt>
      <trkpt lat="44.83197" lon="6.14265">
        <ele>1250.8</ele>
        <time>2024-08-13T10:10:28Z</time>
      </trkpt>
      <trkpt lat="44.83197" lon="6.14265">
        <ele>1251</ele>
        <time>2024-08-13T10:10:29Z</time>
      </trkpt>
      <trkpt lat="44.83197" lon="6.14265">
        <ele>1251</ele>
        <time>2024-08-13T10:10:30Z</time>
      </trkpt>
      <trkpt lat="44.83197" lon="6.14265">
        <ele>1251.2</ele>
        <time>2024-08-13T10:10:31Z</time>
      </trkpt>
      <trkpt lat="44.83199" lon="6.14264">
        <ele>1251.2</ele>
        <time>2024-08-13T10:10:32Z</time>
      </trkpt>
      <trkpt lat="44.83199" lon="6.14264">
        <ele>1251.4</ele>
        <time>2024-08-13T10:10:33Z</time>
      </trkpt>
      <trkpt lat="44.83199" lon="6.14264">
        <ele>1251.6</ele>
        <time>2024-08-13T10:10:34Z</time>
      </trkpt>
      <trkpt lat="44.83199" lon="6.14264">
        <ele>1251.8</ele>
        <time>2024-08-13T10:10:35Z</time>
      </trkpt>
      <trkpt lat="44.83199" lon="6.14264">
        <ele>1251.8</ele>
        <time>2024-08-13T10:10:36Z</time>
      </trkpt>
      <trkpt lat="44.83199" lon="6.14264">
        <ele>1251.8</ele>
        <time>2024-08-13T10:10:37Z</time>
      </trkpt>
      <trkpt lat="44.83199" lon="6.14264">
        <ele>1251.8</ele>
        <time>2024-08-13T10:10:38Z</time>
      </trkpt>
      <trkpt lat="44.83199" lon="6.14264">
        <ele>1252</ele>
        <time>2024-08-13T10:10:39Z</time>
      </trkpt>
      <trkpt lat="44.83201" lon="6.14262">
        <ele>1252.4</ele>
        <time>2024-08-13T10:10:40Z</time>
      </trkpt>
      <trkpt lat="44.83201" lon="6.14262">
        <ele>1252.4</ele>
        <time>2024-08-13T10:10:41Z</time>
      </trkpt>
      <trkpt lat="44.83204" lon="6.14259">
        <ele>1252.4</ele>
        <time>2024-08-13T10:10:42Z</time>
      </trkpt>
      <trkpt lat="44.83204" lon="6.14259">
        <ele>1252.4</ele>
        <time>2024-08-13T10:10:43Z</time>
      </trkpt>
      <trkpt lat="44.83205" lon="6.14256">
        <ele>1252.4</ele>
        <time>2024-08-13T10:10:44Z</time>
      </trkpt>
      <trkpt lat="44.83205" lon="6.14256">
        <ele>1252.4</ele>
        <time>2024-08-13T10:10:45Z</time>
      </trkpt>
      <trkpt lat="44.83205" lon="6.14256">
        <ele>1252.8</ele>
        <time>2024-08-13T10:10:46Z</time>
      </trkpt>
      <trkpt lat="44.83205" lon="6.14256">
        <ele>1253</ele>
        <time>2024-08-13T10:10:47Z</time>
      </trkpt>
      <trkpt lat="44.83205" lon="6.14256">
        <ele>1253.4</ele>
        <time>2024-08-13T10:10:48Z</time>
      </trkpt>
      <trkpt lat="44.83205" lon="6.14256">
        <ele>1253.6</ele>
        <time>2024-08-13T10:10:49Z</time>
      </trkpt>
      <trkpt lat="44.83206" lon="6.14259">
        <ele>1253.6</ele>
        <time>2024-08-13T10:10:50Z</time>
      </trkpt>
      <trkpt lat="44.83206" lon="6.14259">
        <ele>1253.8</ele>
        <time>2024-08-13T10:10:51Z</time>
      </trkpt>
      <trkpt lat="44.83206" lon="6.14259">
        <ele>1254</ele>
        <time>2024-08-13T10:10:52Z</time>
      </trkpt>
      <trkpt lat="44.83206" lon="6.14262">
        <ele>1254.4</ele>
        <time>2024-08-13T10:10:53Z</time>
      </trkpt>
      <trkpt lat="44.83206" lon="6.14262">
        <ele>1254.6</ele>
        <time>2024-08-13T10:10:54Z</time>
      </trkpt>
      <trkpt lat="44.83206" lon="6.14262">
        <ele>1254.6</ele>
        <time>2024-08-13T10:10:55Z</time>
      </trkpt>
      <trkpt lat="44.83206" lon="6.14262">
        <ele>1254.6</ele>
        <time>2024-08-13T10:10:56Z</time>
      </trkpt>
      <trkpt lat="44.83206" lon="6.14262">
        <ele>1255</ele>
        <time>2024-08-13T10:10:57Z</time>
      </trkpt>
      <trkpt lat="44.83206" lon="6.14262">
        <ele>1255.2</ele>
        <time>2024-08-13T10:10:58Z</time>
      </trkpt>
      <trkpt lat="44.83206" lon="6.14262">
        <ele>1255.2</ele>
        <time>2024-08-13T10:10:59Z</time>
      </trkpt>
      <trkpt lat="44.83206" lon="6.14262">
        <ele>1255.6</ele>
        <time>2024-08-13T10:11:00Z</time>
      </trkpt>
      <trkpt lat="44.83206" lon="6.14262">
        <ele>1255.6</ele>
        <time>2024-08-13T10:11:01Z</time>
      </trkpt>
      <trkpt lat="44.83206" lon="6.14262">
        <ele>1256</ele>
        <time>2024-08-13T10:11:02Z</time>
      </trkpt>
      <trkpt lat="44.83206" lon="6.14262">
        <ele>1256</ele>
        <time>2024-08-13T10:11:03Z</time>
      </trkpt>
      <trkpt lat="44.83206" lon="6.14262">
        <ele>1256</ele>
        <time>2024-08-13T10:11:04Z</time>
      </trkpt>
      <trkpt lat="44.83206" lon="6.14262">
        <ele>1256</ele>
        <time>2024-08-13T10:11:05Z</time>
      </trkpt>
      <trkpt lat="44.83206" lon="6.14262">
        <ele>1256.8</ele>
        <time>2024-08-13T10:11:06Z</time>
      </trkpt>
      <trkpt lat="44.83206" lon="6.14262">
        <ele>1256.8</ele>
        <time>2024-08-13T10:11:07Z</time>
      </trkpt>
      <trkpt lat="44.83206" lon="6.14262">
        <ele>1256.8</ele>
        <time>2024-08-13T10:11:08Z</time>
      </trkpt>
      <trkpt lat="44.83206" lon="6.14262">
        <ele>1257.2</ele>
        <time>2024-08-13T10:11:09Z</time>
      </trkpt>
      <trkpt lat="44.83206" lon="6.14262">
        <ele>1257.4</ele>
        <time>2024-08-13T10:11:10Z</time>
      </trkpt>
      <trkpt lat="44.83206" lon="6.14262">
        <ele>1257.6</ele>
        <time>2024-08-13T10:11:11Z</time>
      </trkpt>
      <trkpt lat="44.83206" lon="6.14262">
        <ele>1257.8</ele>
        <time>2024-08-13T10:11:12Z</time>
      </trkpt>
      <trkpt lat="44.83206" lon="6.14262">
        <ele>1258</ele>
        <time>2024-08-13T10:11:13Z</time>
      </trkpt>
      <trkpt lat="44.83206" lon="6.14262">
        <ele>1258</ele>
        <time>2024-08-13T10:11:14Z</time>
      </trkpt>
      <trkpt lat="44.83206" lon="6.14262">
        <ele>1258</ele>
        <time>2024-08-13T10:11:15Z</time>
      </trkpt>
      <trkpt lat="44.83206" lon="6.14262">
        <ele>1258</ele>
        <time>2024-08-13T10:11:16Z</time>
      </trkpt>
      <trkpt lat="44.83206" lon="6.14262">
        <ele>1258.4</ele>
        <time>2024-08-13T10:11:17Z</time>
      </trkpt>
      <trkpt lat="44.83206" lon="6.14262">
        <ele>1258.6</ele>
        <time>2024-08-13T10:11:18Z</time>
      </trkpt>
      <trkpt lat="44.83207" lon="6.14266">
        <ele>1258.8</ele>
        <time>2024-08-13T10:11:19Z</time>
      </trkpt>
      <trkpt lat="44.83207" lon="6.14266">
        <ele>1258.8</ele>
        <time>2024-08-13T10:11:20Z</time>
      </trkpt>
      <trkpt lat="44.83208" lon="6.14269">
        <ele>1258.8</ele>
        <time>2024-08-13T10:11:21Z</time>
      </trkpt>
      <trkpt lat="44.83208" lon="6.14269">
        <ele>1258.8</ele>
        <time>2024-08-13T10:11:22Z</time>
      </trkpt>
      <trkpt lat="44.83208" lon="6.14269">
        <ele>1259</ele>
        <time>2024-08-13T10:11:23Z</time>
      </trkpt>
      <trkpt lat="44.83211" lon="6.1427">
        <ele>1259</ele>
        <time>2024-08-13T10:11:24Z</time>
      </trkpt>
      <trkpt lat="44.83211" lon="6.1427">
        <ele>1259</ele>
        <time>2024-08-13T10:11:25Z</time>
      </trkpt>
      <trkpt lat="44.83211" lon="6.1427">
        <ele>1259</ele>
        <time>2024-08-13T10:11:26Z</time>
      </trkpt>
      <trkpt lat="44.83213" lon="6.14268">
        <ele>1259.6</ele>
        <time>2024-08-13T10:11:27Z</time>
      </trkpt>
      <trkpt lat="44.83213" lon="6.14268">
        <ele>1259.8</ele>
        <time>2024-08-13T10:11:28Z</time>
      </trkpt>
      <trkpt lat="44.83213" lon="6.14268">
        <ele>1260.2</ele>
        <time>2024-08-13T10:11:29Z</time>
      </trkpt>
      <trkpt lat="44.83214" lon="6.14265">
        <ele>1260.2</ele>
        <time>2024-08-13T10:11:30Z</time>
      </trkpt>
      <trkpt lat="44.83214" lon="6.14265">
        <ele>1260.6</ele>
        <time>2024-08-13T10:11:31Z</time>
      </trkpt>
      <trkpt lat="44.83214" lon="6.14265">
        <ele>1260.6</ele>
        <time>2024-08-13T10:11:32Z</time>
      </trkpt>
      <trkpt lat="44.83214" lon="6.14265">
        <ele>1260.8</ele>
        <time>2024-08-13T10:11:33Z</time>
      </trkpt>
      <trkpt lat="44.83214" lon="6.14265">
        <ele>1261.4</ele>
        <time>2024-08-13T10:11:34Z</time>
      </trkpt>
      <trkpt lat="44.83216" lon="6.14263">
        <ele>1261.6</ele>
        <time>2024-08-13T10:11:35Z</time>
      </trkpt>
      <trkpt lat="44.83216" lon="6.14263">
        <ele>1261.6</ele>
        <time>2024-08-13T10:11:36Z</time>
      </trkpt>
      <trkpt lat="44.83216" lon="6.14263">
        <ele>1261.8</ele>
        <time>2024-08-13T10:11:37Z</time>
      </trkpt>
      <trkpt lat="44.83216" lon="6.14263">
        <ele>1262</ele>
        <time>2024-08-13T10:11:38Z</time>
      </trkpt>
      <trkpt lat="44.83218" lon="6.14263">
        <ele>1262.6</ele>
        <time>2024-08-13T10:11:39Z</time>
      </trkpt>
      <trkpt lat="44.83218" lon="6.14263">
        <ele>1262.8</ele>
        <time>2024-08-13T10:11:40Z</time>
      </trkpt>
      <trkpt lat="44.83218" lon="6.14263">
        <ele>1262.8</ele>
        <time>2024-08-13T10:11:41Z</time>
      </trkpt>
      <trkpt lat="44.83218" lon="6.14263">
        <ele>1263</ele>
        <time>2024-08-13T10:11:42Z</time>
      </trkpt>
      <trkpt lat="44.83218" lon="6.14263">
        <ele>1263</ele>
        <time>2024-08-13T10:11:43Z</time>
      </trkpt>
      <trkpt lat="44.83219" lon="6.14265">
        <ele>1263</ele>
        <time>2024-08-13T10:11:44Z</time>
      </trkpt>
      <trkpt lat="44.83219" lon="6.14265">
        <ele>1263.4</ele>
        <time>2024-08-13T10:11:45Z</time>
      </trkpt>
      <trkpt lat="44.83219" lon="6.14265">
        <ele>1263.4</ele>
        <time>2024-08-13T10:11:46Z</time>
      </trkpt>
      <trkpt lat="44.83219" lon="6.14265">
        <ele>1263.4</ele>
        <time>2024-08-13T10:11:47Z</time>
      </trkpt>
      <trkpt lat="44.83219" lon="6.14265">
        <ele>1263.4</ele>
        <time>2024-08-13T10:11:48Z</time>
      </trkpt>
      <trkpt lat="44.83219" lon="6.14265">
        <ele>1264</ele>
        <time>2024-08-13T10:11:49Z</time>
      </trkpt>
      <trkpt lat="44.83218" lon="6.14268">
        <ele>1264</ele>
        <time>2024-08-13T10:11:50Z</time>
      </trkpt>
      <trkpt lat="44.83218" lon="6.14268">
        <ele>1264.6</ele>
        <time>2024-08-13T10:11:51Z</time>
      </trkpt>
      <trkpt lat="44.83218" lon="6.14268">
        <ele>1264.6</ele>
        <time>2024-08-13T10:11:52Z</time>
      </trkpt>
      <trkpt lat="44.83218" lon="6.14268">
        <ele>1264.8</ele>
        <time>2024-08-13T10:11:53Z</time>
      </trkpt>
      <trkpt lat="44.83218" lon="6.14268">
        <ele>1265</ele>
        <time>2024-08-13T10:11:54Z</time>
      </trkpt>
      <trkpt lat="44.83218" lon="6.14268">
        <ele>1265.2</ele>
        <time>2024-08-13T10:11:55Z</time>
      </trkpt>
      <trkpt lat="44.83218" lon="6.14268">
        <ele>1265.4</ele>
        <time>2024-08-13T10:11:56Z</time>
      </trkpt>
      <trkpt lat="44.83218" lon="6.14268">
        <ele>1266</ele>
        <time>2024-08-13T10:11:57Z</time>
      </trkpt>
      <trkpt lat="44.83218" lon="6.14271">
        <ele>1266</ele>
        <time>2024-08-13T10:11:58Z</time>
      </trkpt>
      <trkpt lat="44.83218" lon="6.14271">
        <ele>1266.2</ele>
        <time>2024-08-13T10:11:59Z</time>
      </trkpt>
      <trkpt lat="44.83217" lon="6.14275">
        <ele>1266.4</ele>
        <time>2024-08-13T10:12:00Z</time>
      </trkpt>
      <trkpt lat="44.83217" lon="6.14275">
        <ele>1266.6</ele>
        <time>2024-08-13T10:12:01Z</time>
      </trkpt>
      <trkpt lat="44.83216" lon="6.14279">
        <ele>1266.6</ele>
        <time>2024-08-13T10:12:02Z</time>
      </trkpt>
      <trkpt lat="44.83216" lon="6.14279">
        <ele>1266.6</ele>
        <time>2024-08-13T10:12:03Z</time>
      </trkpt>
      <trkpt lat="44.83215" lon="6.14282">
        <ele>1266.6</ele>
        <time>2024-08-13T10:12:04Z</time>
      </trkpt>
      <trkpt lat="44.83215" lon="6.14282">
        <ele>1266.8</ele>
        <time>2024-08-13T10:12:05Z</time>
      </trkpt>
      <trkpt lat="44.83215" lon="6.14282">
        <ele>1266.8</ele>
        <time>2024-08-13T10:12:06Z</time>
      </trkpt>
      <trkpt lat="44.83215" lon="6.14282">
        <ele>1267</ele>
        <time>2024-08-13T10:12:07Z</time>
      </trkpt>
      <trkpt lat="44.83215" lon="6.14285">
        <ele>1267</ele>
        <time>2024-08-13T10:12:08Z</time>
      </trkpt>
      <trkpt lat="44.83215" lon="6.14285">
        <ele>1267.4</ele>
        <time>2024-08-13T10:12:09Z</time>
      </trkpt>
      <trkpt lat="44.83215" lon="6.14285">
        <ele>1267.8</ele>
        <time>2024-08-13T10:12:10Z</time>
      </trkpt>
      <trkpt lat="44.83215" lon="6.14285">
        <ele>1267.8</ele>
        <time>2024-08-13T10:12:11Z</time>
      </trkpt>
      <trkpt lat="44.83215" lon="6.14285">
        <ele>1268</ele>
        <time>2024-08-13T10:12:12Z</time>
      </trkpt>
      <trkpt lat="44.83214" lon="6.14287">
        <ele>1268.4</ele>
        <time>2024-08-13T10:12:13Z</time>
      </trkpt>
      <trkpt lat="44.83214" lon="6.14287">
        <ele>1268.6</ele>
        <time>2024-08-13T10:12:14Z</time>
      </trkpt>
      <trkpt lat="44.83214" lon="6.14287">
        <ele>1269</ele>
        <time>2024-08-13T10:12:15Z</time>
      </trkpt>
      <trkpt lat="44.83214" lon="6.14287">
        <ele>1269.2</ele>
        <time>2024-08-13T10:12:16Z</time>
      </trkpt>
      <trkpt lat="44.83214" lon="6.14287">
        <ele>1269.4</ele>
        <time>2024-08-13T10:12:17Z</time>
      </trkpt>
      <trkpt lat="44.83214" lon="6.14287">
        <ele>1269.6</ele>
        <time>2024-08-13T10:12:18Z</time>
      </trkpt>
      <trkpt lat="44.83215" lon="6.14289">
        <ele>1269.8</ele>
        <time>2024-08-13T10:12:19Z</time>
      </trkpt>
      <trkpt lat="44.83215" lon="6.14289">
        <ele>1269.8</ele>
        <time>2024-08-13T10:12:20Z</time>
      </trkpt>
      <trkpt lat="44.83215" lon="6.14289">
        <ele>1269.8</ele>
        <time>2024-08-13T10:12:21Z</time>
      </trkpt>
      <trkpt lat="44.83215" lon="6.14289">
        <ele>1270</ele>
        <time>2024-08-13T10:12:22Z</time>
      </trkpt>
      <trkpt lat="44.83215" lon="6.14289">
        <ele>1270.6</ele>
        <time>2024-08-13T10:12:23Z</time>
      </trkpt>
      <trkpt lat="44.83215" lon="6.14289">
        <ele>1271</ele>
        <time>2024-08-13T10:12:24Z</time>
      </trkpt>
      <trkpt lat="44.83215" lon="6.14289">
        <ele>1271</ele>
        <time>2024-08-13T10:12:25Z</time>
      </trkpt>
      <trkpt lat="44.83215" lon="6.14289">
        <ele>1271</ele>
        <time>2024-08-13T10:12:26Z</time>
      </trkpt>
      <trkpt lat="44.83215" lon="6.14289">
        <ele>1271.4</ele>
        <time>2024-08-13T10:12:27Z</time>
      </trkpt>
      <trkpt lat="44.83215" lon="6.14289">
        <ele>1271.4</ele>
        <time>2024-08-13T10:12:28Z</time>
      </trkpt>
      <trkpt lat="44.83215" lon="6.14289">
        <ele>1271.8</ele>
        <time>2024-08-13T10:12:29Z</time>
      </trkpt>
      <trkpt lat="44.83215" lon="6.14289">
        <ele>1272.2</ele>
        <time>2024-08-13T10:12:30Z</time>
      </trkpt>
      <trkpt lat="44.83215" lon="6.14289">
        <ele>1272.2</ele>
        <time>2024-08-13T10:12:31Z</time>
      </trkpt>
      <trkpt lat="44.83217" lon="6.14287">
        <ele>1272.6</ele>
        <time>2024-08-13T10:12:32Z</time>
      </trkpt>
      <trkpt lat="44.83217" lon="6.14287">
        <ele>1272.8</ele>
        <time>2024-08-13T10:12:33Z</time>
      </trkpt>
      <trkpt lat="44.8322" lon="6.14284">
        <ele>1272.8</ele>
        <time>2024-08-13T10:12:34Z</time>
      </trkpt>
      <trkpt lat="44.8322" lon="6.14284">
        <ele>1273.2</ele>
        <time>2024-08-13T10:12:35Z</time>
      </trkpt>
      <trkpt lat="44.83222" lon="6.14283">
        <ele>1273.6</ele>
        <time>2024-08-13T10:12:36Z</time>
      </trkpt>
      <trkpt lat="44.83222" lon="6.14283">
        <ele>1273.6</ele>
        <time>2024-08-13T10:12:37Z</time>
      </trkpt>
      <trkpt lat="44.83222" lon="6.14283">
        <ele>1273.6</ele>
        <time>2024-08-13T10:12:38Z</time>
      </trkpt>
      <trkpt lat="44.83225" lon="6.14281">
        <ele>1273.6</ele>
        <time>2024-08-13T10:12:39Z</time>
      </trkpt>
      <trkpt lat="44.83225" lon="6.14281">
        <ele>1273.6</ele>
        <time>2024-08-13T10:12:40Z</time>
      </trkpt>
      <trkpt lat="44.83225" lon="6.14281">
        <ele>1273.8</ele>
        <time>2024-08-13T10:12:41Z</time>
      </trkpt>
      <trkpt lat="44.83225" lon="6.14281">
        <ele>1274</ele>
        <time>2024-08-13T10:12:42Z</time>
      </trkpt>
      <trkpt lat="44.83226" lon="6.14279">
        <ele>1274</ele>
        <time>2024-08-13T10:12:43Z</time>
      </trkpt>
      <trkpt lat="44.83226" lon="6.14279">
        <ele>1274.2</ele>
        <time>2024-08-13T10:12:44Z</time>
      </trkpt>
      <trkpt lat="44.83226" lon="6.14279">
        <ele>1274.4</ele>
        <time>2024-08-13T10:12:45Z</time>
      </trkpt>
      <trkpt lat="44.83228" lon="6.14278">
        <ele>1274.8</ele>
        <time>2024-08-13T10:12:46Z</time>
      </trkpt>
      <trkpt lat="44.83228" lon="6.14278">
        <ele>1274.8</ele>
        <time>2024-08-13T10:12:47Z</time>
      </trkpt>
      <trkpt lat="44.83228" lon="6.14278">
        <ele>1275.2</ele>
        <time>2024-08-13T10:12:48Z</time>
      </trkpt>
      <trkpt lat="44.83228" lon="6.14278">
        <ele>1275.4</ele>
        <time>2024-08-13T10:12:49Z</time>
      </trkpt>
      <trkpt lat="44.8323" lon="6.14276">
        <ele>1275.4</ele>
        <time>2024-08-13T10:12:50Z</time>
      </trkpt>
      <trkpt lat="44.8323" lon="6.14276">
        <ele>1275.6</ele>
        <time>2024-08-13T10:12:51Z</time>
      </trkpt>
      <trkpt lat="44.8323" lon="6.14276">
        <ele>1275.6</ele>
        <time>2024-08-13T10:12:52Z</time>
      </trkpt>
      <trkpt lat="44.8323" lon="6.14276">
        <ele>1276</ele>
        <time>2024-08-13T10:12:53Z</time>
      </trkpt>
      <trkpt lat="44.8323" lon="6.14276">
        <ele>1276.4</ele>
        <time>2024-08-13T10:12:54Z</time>
      </trkpt>
      <trkpt lat="44.8323" lon="6.14276">
        <ele>1276.6</ele>
        <time>2024-08-13T10:12:55Z</time>
      </trkpt>
      <trkpt lat="44.8323" lon="6.14279">
        <ele>1276.6</ele>
        <time>2024-08-13T10:12:56Z</time>
      </trkpt>
      <trkpt lat="44.8323" lon="6.14279">
        <ele>1276.6</ele>
        <time>2024-08-13T10:12:57Z</time>
      </trkpt>
      <trkpt lat="44.8323" lon="6.14279">
        <ele>1277</ele>
        <time>2024-08-13T10:12:58Z</time>
      </trkpt>
      <trkpt lat="44.8323" lon="6.14279">
        <ele>1277.2</ele>
        <time>2024-08-13T10:12:59Z</time>
      </trkpt>
      <trkpt lat="44.8323" lon="6.14279">
        <ele>1277.4</ele>
        <time>2024-08-13T10:13:00Z</time>
      </trkpt>
      <trkpt lat="44.8323" lon="6.14279">
        <ele>1277.4</ele>
        <time>2024-08-13T10:13:01Z</time>
      </trkpt>
      <trkpt lat="44.8323" lon="6.14279">
        <ele>1278</ele>
        <time>2024-08-13T10:13:02Z</time>
      </trkpt>
      <trkpt lat="44.8323" lon="6.14279">
        <ele>1278</ele>
        <time>2024-08-13T10:13:03Z</time>
      </trkpt>
      <trkpt lat="44.8323" lon="6.14279">
        <ele>1278.4</ele>
        <time>2024-08-13T10:13:04Z</time>
      </trkpt>
      <trkpt lat="44.8323" lon="6.14279">
        <ele>1278.6</ele>
        <time>2024-08-13T10:13:05Z</time>
      </trkpt>
      <trkpt lat="44.8323" lon="6.14279">
        <ele>1279</ele>
        <time>2024-08-13T10:13:06Z</time>
      </trkpt>
      <trkpt lat="44.83229" lon="6.14282">
        <ele>1279</ele>
        <time>2024-08-13T10:13:07Z</time>
      </trkpt>
      <trkpt lat="44.83229" lon="6.14282">
        <ele>1279</ele>
        <time>2024-08-13T10:13:08Z</time>
      </trkpt>
      <trkpt lat="44.83229" lon="6.14282">
        <ele>1279.2</ele>
        <time>2024-08-13T10:13:09Z</time>
      </trkpt>
      <trkpt lat="44.83229" lon="6.14282">
        <ele>1279.2</ele>
        <time>2024-08-13T10:13:10Z</time>
      </trkpt>
      <trkpt lat="44.83228" lon="6.14286">
        <ele>1279.2</ele>
        <time>2024-08-13T10:13:11Z</time>
      </trkpt>
      <trkpt lat="44.83228" lon="6.14286">
        <ele>1279.4</ele>
        <time>2024-08-13T10:13:12Z</time>
      </trkpt>
      <trkpt lat="44.83228" lon="6.14291">
        <ele>1279.8</ele>
        <time>2024-08-13T10:13:13Z</time>
      </trkpt>
      <trkpt lat="44.83228" lon="6.14291">
        <ele>1280.2</ele>
        <time>2024-08-13T10:13:14Z</time>
      </trkpt>
      <trkpt lat="44.83228" lon="6.14291">
        <ele>1280.2</ele>
        <time>2024-08-13T10:13:15Z</time>
      </trkpt>
      <trkpt lat="44.83227" lon="6.14294">
        <ele>1280.2</ele>
        <time>2024-08-13T10:13:16Z</time>
      </trkpt>
      <trkpt lat="44.83227" lon="6.14294">
        <ele>1280.2</ele>
        <time>2024-08-13T10:13:17Z</time>
      </trkpt>
      <trkpt lat="44.83227" lon="6.14294">
        <ele>1280.8</ele>
        <time>2024-08-13T10:13:18Z</time>
      </trkpt>
      <trkpt lat="44.83226" lon="6.14297">
        <ele>1280.8</ele>
        <time>2024-08-13T10:13:19Z</time>
      </trkpt>
      <trkpt lat="44.83226" lon="6.14297">
        <ele>1281</ele>
        <time>2024-08-13T10:13:20Z</time>
      </trkpt>
      <trkpt lat="44.83225" lon="6.143">
        <ele>1281</ele>
        <time>2024-08-13T10:13:21Z</time>
      </trkpt>
      <trkpt lat="44.83225" lon="6.143">
        <ele>1281.2</ele>
        <time>2024-08-13T10:13:22Z</time>
      </trkpt>
      <trkpt lat="44.83225" lon="6.14303">
        <ele>1281.2</ele>
        <time>2024-08-13T10:13:23Z</time>
      </trkpt>
      <trkpt lat="44.83225" lon="6.14303">
        <ele>1281.4</ele>
        <time>2024-08-13T10:13:24Z</time>
      </trkpt>
      <trkpt lat="44.83225" lon="6.14303">
        <ele>1281.4</ele>
        <time>2024-08-13T10:13:25Z</time>
      </trkpt>
      <trkpt lat="44.83225" lon="6.14303">
        <ele>1281.6</ele>
        <time>2024-08-13T10:13:26Z</time>
      </trkpt>
      <trkpt lat="44.83225" lon="6.14303">
        <ele>1281.6</ele>
        <time>2024-08-13T10:13:27Z</time>
      </trkpt>
      <trkpt lat="44.83225" lon="6.14303">
        <ele>1281.8</ele>
        <time>2024-08-13T10:13:28Z</time>
      </trkpt>
      <trkpt lat="44.83225" lon="6.14303">
        <ele>1282</ele>
        <time>2024-08-13T10:13:29Z</time>
      </trkpt>
      <trkpt lat="44.83225" lon="6.14303">
        <ele>1282</ele>
        <time>2024-08-13T10:13:30Z</time>
      </trkpt>
      <trkpt lat="44.83226" lon="6.14301">
        <ele>1282.4</ele>
        <time>2024-08-13T10:13:31Z</time>
      </trkpt>
      <trkpt lat="44.83226" lon="6.14301">
        <ele>1282.6</ele>
        <time>2024-08-13T10:13:32Z</time>
      </trkpt>
      <trkpt lat="44.83226" lon="6.14301">
        <ele>1282.6</ele>
        <time>2024-08-13T10:13:33Z</time>
      </trkpt>
      <trkpt lat="44.83226" lon="6.14301">
        <ele>1282.6</ele>
        <time>2024-08-13T10:13:34Z</time>
      </trkpt>
      <trkpt lat="44.83226" lon="6.14301">
        <ele>1282.6</ele>
        <time>2024-08-13T10:13:35Z</time>
      </trkpt>
      <trkpt lat="44.83226" lon="6.14301">
        <ele>1283.2</ele>
        <time>2024-08-13T10:13:36Z</time>
      </trkpt>
      <trkpt lat="44.83226" lon="6.14301">
        <ele>1283.2</ele>
        <time>2024-08-13T10:13:37Z</time>
      </trkpt>
      <trkpt lat="44.83228" lon="6.14298">
        <ele>1283.2</ele>
        <time>2024-08-13T10:13:38Z</time>
      </trkpt>
      <trkpt lat="44.83228" lon="6.14298">
        <ele>1283.8</ele>
        <time>2024-08-13T10:13:39Z</time>
      </trkpt>
      <trkpt lat="44.83228" lon="6.14298">
        <ele>1284</ele>
        <time>2024-08-13T10:13:40Z</time>
      </trkpt>
      <trkpt lat="44.83228" lon="6.14298">
        <ele>1284.2</ele>
        <time>2024-08-13T10:13:41Z</time>
      </trkpt>
      <trkpt lat="44.83228" lon="6.14298">
        <ele>1284.8</ele>
        <time>2024-08-13T10:13:42Z</time>
      </trkpt>
      <trkpt lat="44.83228" lon="6.14298">
        <ele>1284.8</ele>
        <time>2024-08-13T10:13:43Z</time>
      </trkpt>
      <trkpt lat="44.8323" lon="6.14296">
        <ele>1284.8</ele>
        <time>2024-08-13T10:13:44Z</time>
      </trkpt>
      <trkpt lat="44.8323" lon="6.14296">
        <ele>1285.2</ele>
        <time>2024-08-13T10:13:45Z</time>
      </trkpt>
      <trkpt lat="44.83233" lon="6.14293">
        <ele>1285.2</ele>
        <time>2024-08-13T10:13:46Z</time>
      </trkpt>
      <trkpt lat="44.83233" lon="6.14293">
        <ele>1285.6</ele>
        <time>2024-08-13T10:13:47Z</time>
      </trkpt>
      <trkpt lat="44.83235" lon="6.14292">
        <ele>1285.8</ele>
        <time>2024-08-13T10:13:48Z</time>
      </trkpt>
      <trkpt lat="44.83235" lon="6.14292">
        <ele>1286</ele>
        <time>2024-08-13T10:13:49Z</time>
      </trkpt>
      <trkpt lat="44.83235" lon="6.14292">
        <ele>1286.4</ele>
        <time>2024-08-13T10:13:50Z</time>
      </trkpt>
      <trkpt lat="44.83235" lon="6.14295">
        <ele>1286.6</ele>
        <time>2024-08-13T10:13:51Z</time>
      </trkpt>
      <trkpt lat="44.83235" lon="6.14295">
        <ele>1286.6</ele>
        <time>2024-08-13T10:13:52Z</time>
      </trkpt>
      <trkpt lat="44.83235" lon="6.14295">
        <ele>1286.8</ele>
        <time>2024-08-13T10:13:53Z</time>
      </trkpt>
      <trkpt lat="44.83235" lon="6.14295">
        <ele>1286.8</ele>
        <time>2024-08-13T10:13:54Z</time>
      </trkpt>
      <trkpt lat="44.83235" lon="6.14299">
        <ele>1287</ele>
        <time>2024-08-13T10:13:55Z</time>
      </trkpt>
      <trkpt lat="44.83235" lon="6.14299">
        <ele>1287.4</ele>
        <time>2024-08-13T10:13:56Z</time>
      </trkpt>
      <trkpt lat="44.83235" lon="6.14299">
        <ele>1287.8</ele>
        <time>2024-08-13T10:13:57Z</time>
      </trkpt>
      <trkpt lat="44.83235" lon="6.14299">
        <ele>1287.8</ele>
        <time>2024-08-13T10:13:58Z</time>
      </trkpt>
      <trkpt lat="44.83234" lon="6.14302">
        <ele>1287.8</ele>
        <time>2024-08-13T10:13:59Z</time>
      </trkpt>
      <trkpt lat="44.83234" lon="6.14302">
        <ele>1288</ele>
        <time>2024-08-13T10:14:00Z</time>
      </trkpt>
      <trkpt lat="44.83234" lon="6.14305">
        <ele>1288</ele>
        <time>2024-08-13T10:14:01Z</time>
      </trkpt>
      <trkpt lat="44.83234" lon="6.14305">
        <ele>1288.2</ele>
        <time>2024-08-13T10:14:02Z</time>
      </trkpt>
      <trkpt lat="44.83233" lon="6.14309">
        <ele>1288.2</ele>
        <time>2024-08-13T10:14:03Z</time>
      </trkpt>
      <trkpt lat="44.83233" lon="6.14309">
        <ele>1288.2</ele>
        <time>2024-08-13T10:14:04Z</time>
      </trkpt>
      <trkpt lat="44.83233" lon="6.14311">
        <ele>1288.8</ele>
        <time>2024-08-13T10:14:05Z</time>
      </trkpt>
      <trkpt lat="44.83233" lon="6.14311">
        <ele>1288.8</ele>
        <time>2024-08-13T10:14:06Z</time>
      </trkpt>
      <trkpt lat="44.83233" lon="6.14311">
        <ele>1289</ele>
        <time>2024-08-13T10:14:07Z</time>
      </trkpt>
      <trkpt lat="44.83233" lon="6.14311">
        <ele>1289.2</ele>
        <time>2024-08-13T10:14:08Z</time>
      </trkpt>
      <trkpt lat="44.83233" lon="6.14311">
        <ele>1289.4</ele>
        <time>2024-08-13T10:14:09Z</time>
      </trkpt>
      <trkpt lat="44.83233" lon="6.14311">
        <ele>1289.4</ele>
        <time>2024-08-13T10:14:10Z</time>
      </trkpt>
      <trkpt lat="44.83233" lon="6.14311">
        <ele>1289.8</ele>
        <time>2024-08-13T10:14:11Z</time>
      </trkpt>
      <trkpt lat="44.83233" lon="6.14311">
        <ele>1290.2</ele>
        <time>2024-08-13T10:14:12Z</time>
      </trkpt>
      <trkpt lat="44.83234" lon="6.14309">
        <ele>1290.6</ele>
        <time>2024-08-13T10:14:13Z</time>
      </trkpt>
      <trkpt lat="44.83234" lon="6.14309">
        <ele>1290.6</ele>
        <time>2024-08-13T10:14:14Z</time>
      </trkpt>
      <trkpt lat="44.83234" lon="6.14309">
        <ele>1290.6</ele>
        <time>2024-08-13T10:14:15Z</time>
      </trkpt>
      <trkpt lat="44.83236" lon="6.14307">
        <ele>1290.8</ele>
        <time>2024-08-13T10:14:16Z</time>
      </trkpt>
      <trkpt lat="44.83236" lon="6.14307">
        <ele>1291</ele>
        <time>2024-08-13T10:14:17Z</time>
      </trkpt>
      <trkpt lat="44.83236" lon="6.14307">
        <ele>1291</ele>
        <time>2024-08-13T10:14:18Z</time>
      </trkpt>
      <trkpt lat="44.83236" lon="6.14307">
        <ele>1291</ele>
        <time>2024-08-13T10:14:19Z</time>
      </trkpt>
      <trkpt lat="44.83236" lon="6.14307">
        <ele>1291.6</ele>
        <time>2024-08-13T10:14:20Z</time>
      </trkpt>
      <trkpt lat="44.83236" lon="6.14307">
        <ele>1291.6</ele>
        <time>2024-08-13T10:14:21Z</time>
      </trkpt>
      <trkpt lat="44.83237" lon="6.14304">
        <ele>1291.6</ele>
        <time>2024-08-13T10:14:22Z</time>
      </trkpt>
      <trkpt lat="44.83237" lon="6.14304">
        <ele>1291.8</ele>
        <time>2024-08-13T10:14:23Z</time>
      </trkpt>
      <trkpt lat="44.83239" lon="6.14303">
        <ele>1292</ele>
        <time>2024-08-13T10:14:24Z</time>
      </trkpt>
      <trkpt lat="44.83239" lon="6.14303">
        <ele>1292</ele>
        <time>2024-08-13T10:14:25Z</time>
      </trkpt>
      <trkpt lat="44.83239" lon="6.14303">
        <ele>1292.2</ele>
        <time>2024-08-13T10:14:26Z</time>
      </trkpt>
      <trkpt lat="44.83239" lon="6.14303">
        <ele>1292.6</ele>
        <time>2024-08-13T10:14:27Z</time>
      </trkpt>
      <trkpt lat="44.83239" lon="6.14306">
        <ele>1292.6</ele>
        <time>2024-08-13T10:14:28Z</time>
      </trkpt>
      <trkpt lat="44.83239" lon="6.14306">
        <ele>1292.8</ele>
        <time>2024-08-13T10:14:29Z</time>
      </trkpt>
      <trkpt lat="44.83238" lon="6.14309">
        <ele>1293.2</ele>
        <time>2024-08-13T10:14:30Z</time>
      </trkpt>
      <trkpt lat="44.83238" lon="6.14309">
        <ele>1293.4</ele>
        <time>2024-08-13T10:14:31Z</time>
      </trkpt>
      <trkpt lat="44.83238" lon="6.14309">
        <ele>1293.4</ele>
        <time>2024-08-13T10:14:32Z</time>
      </trkpt>
      <trkpt lat="44.83238" lon="6.14309">
        <ele>1293.6</ele>
        <time>2024-08-13T10:14:33Z</time>
      </trkpt>
      <trkpt lat="44.83237" lon="6.14312">
        <ele>1293.8</ele>
        <time>2024-08-13T10:14:34Z</time>
      </trkpt>
      <trkpt lat="44.83237" lon="6.14312">
        <ele>1293.8</ele>
        <time>2024-08-13T10:14:35Z</time>
      </trkpt>
      <trkpt lat="44.83237" lon="6.14312">
        <ele>1294</ele>
        <time>2024-08-13T10:14:36Z</time>
      </trkpt>
      <trkpt lat="44.83237" lon="6.14312">
        <ele>1294.2</ele>
        <time>2024-08-13T10:14:37Z</time>
      </trkpt>
      <trkpt lat="44.83237" lon="6.14312">
        <ele>1294.4</ele>
        <time>2024-08-13T10:14:38Z</time>
      </trkpt>
      <trkpt lat="44.83237" lon="6.14315">
        <ele>1294.6</ele>
        <time>2024-08-13T10:14:39Z</time>
      </trkpt>
      <trkpt lat="44.83237" lon="6.14315">
        <ele>1294.6</ele>
        <time>2024-08-13T10:14:40Z</time>
      </trkpt>
      <trkpt lat="44.83237" lon="6.14315">
        <ele>1295</ele>
        <time>2024-08-13T10:14:41Z</time>
      </trkpt>
      <trkpt lat="44.83237" lon="6.14315">
        <ele>1295.2</ele>
        <time>2024-08-13T10:14:42Z</time>
      </trkpt>
      <trkpt lat="44.83237" lon="6.14315">
        <ele>1295.4</ele>
        <time>2024-08-13T10:14:43Z</time>
      </trkpt>
      <trkpt lat="44.83237" lon="6.14315">
        <ele>1295.8</ele>
        <time>2024-08-13T10:14:44Z</time>
      </trkpt>
      <trkpt lat="44.83237" lon="6.14315">
        <ele>1295.8</ele>
        <time>2024-08-13T10:14:45Z</time>
      </trkpt>
      <trkpt lat="44.83237" lon="6.14315">
        <ele>1296</ele>
        <time>2024-08-13T10:14:46Z</time>
      </trkpt>
      <trkpt lat="44.83237" lon="6.14315">
        <ele>1296</ele>
        <time>2024-08-13T10:14:47Z</time>
      </trkpt>
      <trkpt lat="44.83237" lon="6.14315">
        <ele>1296.4</ele>
        <time>2024-08-13T10:14:48Z</time>
      </trkpt>
      <trkpt lat="44.83237" lon="6.14315">
        <ele>1296.4</ele>
        <time>2024-08-13T10:14:49Z</time>
      </trkpt>
      <trkpt lat="44.83237" lon="6.14315">
        <ele>1296.6</ele>
        <time>2024-08-13T10:14:50Z</time>
      </trkpt>
      <trkpt lat="44.83237" lon="6.14315">
        <ele>1296.6</ele>
        <time>2024-08-13T10:14:51Z</time>
      </trkpt>
      <trkpt lat="44.83237" lon="6.14315">
        <ele>1296.4</ele>
        <time>2024-08-13T10:14:52Z</time>
      </trkpt>
      <trkpt lat="44.83237" lon="6.14315">
        <ele>1296.4</ele>
        <time>2024-08-13T10:14:53Z</time>
      </trkpt>
      <trkpt lat="44.83237" lon="6.14315">
        <ele>1296.4</ele>
        <time>2024-08-13T10:14:54Z</time>
      </trkpt>
      <trkpt lat="44.83237" lon="6.14315">
        <ele>1296.4</ele>
        <time>2024-08-13T10:14:55Z</time>
      </trkpt>
      <trkpt lat="44.83237" lon="6.14315">
        <ele>1296.2</ele>
        <time>2024-08-13T10:14:56Z</time>
      </trkpt>
      <trkpt lat="44.83237" lon="6.14315">
        <ele>1296.2</ele>
        <time>2024-08-13T10:14:57Z</time>
      </trkpt>
      <trkpt lat="44.83237" lon="6.14315">
        <ele>1296.2</ele>
        <time>2024-08-13T10:14:58Z</time>
      </trkpt>
      <trkpt lat="44.83237" lon="6.14315">
        <ele>1296.2</ele>
        <time>2024-08-13T10:14:59Z</time>
      </trkpt>
      <trkpt lat="44.83237" lon="6.14315">
        <ele>1296.4</ele>
        <time>2024-08-13T10:15:00Z</time>
      </trkpt>
      <trkpt lat="44.83237" lon="6.14315">
        <ele>1296.4</ele>
        <time>2024-08-13T10:15:01Z</time>
      </trkpt>
      <trkpt lat="44.83237" lon="6.14315">
        <ele>1296.4</ele>
        <time>2024-08-13T10:15:02Z</time>
      </trkpt>
      <trkpt lat="44.83237" lon="6.14315">
        <ele>1296.4</ele>
        <time>2024-08-13T10:15:03Z</time>
      </trkpt>
      <trkpt lat="44.83237" lon="6.14315">
        <ele>1296.4</ele>
        <time>2024-08-13T10:15:04Z</time>
      </trkpt>
      <trkpt lat="44.83237" lon="6.14315">
        <ele>1296.4</ele>
        <time>2024-08-13T10:15:05Z</time>
      </trkpt>
      <trkpt lat="44.83237" lon="6.14315">
        <ele>1296.6</ele>
        <time>2024-08-13T10:15:06Z</time>
      </trkpt>
      <trkpt lat="44.83237" lon="6.14315">
        <ele>1296.6</ele>
        <time>2024-08-13T10:15:07Z</time>
      </trkpt>
      <trkpt lat="44.83237" lon="6.14315">
        <ele>1296.6</ele>
        <time>2024-08-13T10:15:08Z</time>
      </trkpt>
      <trkpt lat="44.83237" lon="6.14315">
        <ele>1296.8</ele>
        <time>2024-08-13T10:15:09Z</time>
      </trkpt>
      <trkpt lat="44.83237" lon="6.14315">
        <ele>1296.8</ele>
        <time>2024-08-13T10:15:10Z</time>
      </trkpt>
      <trkpt lat="44.83237" lon="6.14315">
        <ele>1296.8</ele>
        <time>2024-08-13T10:15:11Z</time>
      </trkpt>
      <trkpt lat="44.83237" lon="6.14315">
        <ele>1296.8</ele>
        <time>2024-08-13T10:15:12Z</time>
      </trkpt>
      <trkpt lat="44.83237" lon="6.14315">
        <ele>1296.8</ele>
        <time>2024-08-13T10:15:13Z</time>
      </trkpt>
      <trkpt lat="44.83237" lon="6.14315">
        <ele>1297</ele>
        <time>2024-08-13T10:15:14Z</time>
      </trkpt>
      <trkpt lat="44.83237" lon="6.14315">
        <ele>1297</ele>
        <time>2024-08-13T10:15:15Z</time>
      </trkpt>
      <trkpt lat="44.83237" lon="6.14315">
        <ele>1296.8</ele>
        <time>2024-08-13T10:15:16Z</time>
      </trkpt>
      <trkpt lat="44.83237" lon="6.14315">
        <ele>1296.8</ele>
        <time>2024-08-13T10:15:17Z</time>
      </trkpt>
      <trkpt lat="44.83237" lon="6.14315">
        <ele>1296.8</ele>
        <time>2024-08-13T10:15:18Z</time>
      </trkpt>
      <trkpt lat="44.83237" lon="6.14315">
        <ele>1296.8</ele>
        <time>2024-08-13T10:15:19Z</time>
      </trkpt>
      <trkpt lat="44.83237" lon="6.14315">
        <ele>1296.8</ele>
        <time>2024-08-13T10:15:20Z</time>
      </trkpt>
      <trkpt lat="44.83237" lon="6.14315">
        <ele>1296.8</ele>
        <time>2024-08-13T10:15:21Z</time>
      </trkpt>
      <trkpt lat="44.83237" lon="6.14315">
        <ele>1297.2</ele>
        <time>2024-08-13T10:15:22Z</time>
      </trkpt>
      <trkpt lat="44.83237" lon="6.14315">
        <ele>1297.2</ele>
        <time>2024-08-13T10:15:23Z</time>
      </trkpt>
      <trkpt lat="44.83237" lon="6.14315">
        <ele>1297.2</ele>
        <time>2024-08-13T10:15:24Z</time>
      </trkpt>
      <trkpt lat="44.83237" lon="6.14315">
        <ele>1297</ele>
        <time>2024-08-13T10:15:25Z</time>
      </trkpt>
      <trkpt lat="44.83237" lon="6.14315">
        <ele>1297</ele>
        <time>2024-08-13T10:15:26Z</time>
      </trkpt>
      <trkpt lat="44.83237" lon="6.14315">
        <ele>1297</ele>
        <time>2024-08-13T10:15:27Z</time>
      </trkpt>
      <trkpt lat="44.83237" lon="6.14315">
        <ele>1297</ele>
        <time>2024-08-13T10:15:28Z</time>
      </trkpt>
      <trkpt lat="44.83237" lon="6.14315">
        <ele>1297</ele>
        <time>2024-08-13T10:15:29Z</time>
      </trkpt>
      <trkpt lat="44.83237" lon="6.14315">
        <ele>1297.4</ele>
        <time>2024-08-13T10:15:30Z</time>
      </trkpt>
      <trkpt lat="44.83237" lon="6.14315">
        <ele>1297.8</ele>
        <time>2024-08-13T10:15:31Z</time>
      </trkpt>
      <trkpt lat="44.83237" lon="6.14315">
        <ele>1297.8</ele>
        <time>2024-08-13T10:15:32Z</time>
      </trkpt>
      <trkpt lat="44.83237" lon="6.14315">
        <ele>1297.8</ele>
        <time>2024-08-13T10:15:33Z</time>
      </trkpt>
      <trkpt lat="44.83237" lon="6.14315">
        <ele>1297.8</ele>
        <time>2024-08-13T10:15:34Z</time>
      </trkpt>
      <trkpt lat="44.83239" lon="6.14314">
        <ele>1297.8</ele>
        <time>2024-08-13T10:15:35Z</time>
      </trkpt>
      <trkpt lat="44.83239" lon="6.14314">
        <ele>1298</ele>
        <time>2024-08-13T10:15:36Z</time>
      </trkpt>
      <trkpt lat="44.83241" lon="6.14313">
        <ele>1298.6</ele>
        <time>2024-08-13T10:15:37Z</time>
      </trkpt>
      <trkpt lat="44.83241" lon="6.14313">
        <ele>1298.8</ele>
        <time>2024-08-13T10:15:38Z</time>
      </trkpt>
      <trkpt lat="44.83241" lon="6.14313">
        <ele>1299</ele>
        <time>2024-08-13T10:15:39Z</time>
      </trkpt>
      <trkpt lat="44.83242" lon="6.1431">
        <ele>1299.4</ele>
        <time>2024-08-13T10:15:40Z</time>
      </trkpt>
      <trkpt lat="44.83242" lon="6.1431">
        <ele>1299.4</ele>
        <time>2024-08-13T10:15:41Z</time>
      </trkpt>
      <trkpt lat="44.83242" lon="6.1431">
        <ele>1299.4</ele>
        <time>2024-08-13T10:15:42Z</time>
      </trkpt>
      <trkpt lat="44.83243" lon="6.14308">
        <ele>1299.8</ele>
        <time>2024-08-13T10:15:43Z</time>
      </trkpt>
      <trkpt lat="44.83243" lon="6.14308">
        <ele>1300</ele>
        <time>2024-08-13T10:15:44Z</time>
      </trkpt>
      <trkpt lat="44.83243" lon="6.14308">
        <ele>1300</ele>
        <time>2024-08-13T10:15:45Z</time>
      </trkpt>
      <trkpt lat="44.83243" lon="6.14308">
        <ele>1300.4</ele>
        <time>2024-08-13T10:15:46Z</time>
      </trkpt>
      <trkpt lat="44.83243" lon="6.14308">
        <ele>1300.4</ele>
        <time>2024-08-13T10:15:47Z</time>
      </trkpt>
      <trkpt lat="44.83243" lon="6.14308">
        <ele>1300.8</ele>
        <time>2024-08-13T10:15:48Z</time>
      </trkpt>
      <trkpt lat="44.83244" lon="6.14311">
        <ele>1301.4</ele>
        <time>2024-08-13T10:15:49Z</time>
      </trkpt>
      <trkpt lat="44.83244" lon="6.14311">
        <ele>1301.4</ele>
        <time>2024-08-13T10:15:50Z</time>
      </trkpt>
      <trkpt lat="44.83244" lon="6.14311">
        <ele>1301.2</ele>
        <time>2024-08-13T10:15:51Z</time>
      </trkpt>
      <trkpt lat="44.83243" lon="6.14314">
        <ele>1301.2</ele>
        <time>2024-08-13T10:15:52Z</time>
      </trkpt>
      <trkpt lat="44.83243" lon="6.14314">
        <ele>1301.2</ele>
        <time>2024-08-13T10:15:53Z</time>
      </trkpt>
      <trkpt lat="44.83243" lon="6.14314">
        <ele>1301.4</ele>
        <time>2024-08-13T10:15:54Z</time>
      </trkpt>
      <trkpt lat="44.83243" lon="6.14314">
        <ele>1302.2</ele>
        <time>2024-08-13T10:15:55Z</time>
      </trkpt>
      <trkpt lat="44.83242" lon="6.14317">
        <ele>1302.4</ele>
        <time>2024-08-13T10:15:56Z</time>
      </trkpt>
      <trkpt lat="44.83242" lon="6.14317">
        <ele>1302.4</ele>
        <time>2024-08-13T10:15:57Z</time>
      </trkpt>
      <trkpt lat="44.83242" lon="6.14317">
        <ele>1302.4</ele>
        <time>2024-08-13T10:15:58Z</time>
      </trkpt>
      <trkpt lat="44.83242" lon="6.14317">
        <ele>1302.4</ele>
        <time>2024-08-13T10:15:59Z</time>
      </trkpt>
      <trkpt lat="44.83242" lon="6.14317">
        <ele>1302.8</ele>
        <time>2024-08-13T10:16:00Z</time>
      </trkpt>
      <trkpt lat="44.83242" lon="6.14317">
        <ele>1302.8</ele>
        <time>2024-08-13T10:16:01Z</time>
      </trkpt>
      <trkpt lat="44.83242" lon="6.14317">
        <ele>1303.2</ele>
        <time>2024-08-13T10:16:02Z</time>
      </trkpt>
      <trkpt lat="44.83242" lon="6.14317">
        <ele>1303.2</ele>
        <time>2024-08-13T10:16:03Z</time>
      </trkpt>
      <trkpt lat="44.83242" lon="6.14317">
        <ele>1303.2</ele>
        <time>2024-08-13T10:16:04Z</time>
      </trkpt>
      <trkpt lat="44.83242" lon="6.14317">
        <ele>1303.4</ele>
        <time>2024-08-13T10:16:05Z</time>
      </trkpt>
      <trkpt lat="44.83242" lon="6.14317">
        <ele>1303.8</ele>
        <time>2024-08-13T10:16:06Z</time>
      </trkpt>
      <trkpt lat="44.83242" lon="6.14317">
        <ele>1303.8</ele>
        <time>2024-08-13T10:16:07Z</time>
      </trkpt>
      <trkpt lat="44.83242" lon="6.14317">
        <ele>1303.8</ele>
        <time>2024-08-13T10:16:08Z</time>
      </trkpt>
      <trkpt lat="44.83242" lon="6.14317">
        <ele>1303.8</ele>
        <time>2024-08-13T10:16:09Z</time>
      </trkpt>
      <trkpt lat="44.83242" lon="6.14317">
        <ele>1303.8</ele>
        <time>2024-08-13T10:16:10Z</time>
      </trkpt>
      <trkpt lat="44.83245" lon="6.14318">
        <ele>1304.2</ele>
        <time>2024-08-13T10:16:11Z</time>
      </trkpt>
      <trkpt lat="44.83245" lon="6.14318">
        <ele>1305</ele>
        <time>2024-08-13T10:16:12Z</time>
      </trkpt>
      <trkpt lat="44.83247" lon="6.14317">
        <ele>1305</ele>
        <time>2024-08-13T10:16:13Z</time>
      </trkpt>
      <trkpt lat="44.83247" lon="6.14317">
        <ele>1305</ele>
        <time>2024-08-13T10:16:14Z</time>
      </trkpt>
      <trkpt lat="44.83247" lon="6.14317">
        <ele>1305.2</ele>
        <time>2024-08-13T10:16:15Z</time>
      </trkpt>
      <trkpt lat="44.83247" lon="6.14317">
        <ele>1305.2</ele>
        <time>2024-08-13T10:16:16Z</time>
      </trkpt>
      <trkpt lat="44.83249" lon="6.14317">
        <ele>1305.4</ele>
        <time>2024-08-13T10:16:17Z</time>
      </trkpt>
      <trkpt lat="44.83249" lon="6.14317">
        <ele>1306.2</ele>
        <time>2024-08-13T10:16:18Z</time>
      </trkpt>
      <trkpt lat="44.83249" lon="6.14317">
        <ele>1306.4</ele>
        <time>2024-08-13T10:16:19Z</time>
      </trkpt>
      <trkpt lat="44.83249" lon="6.14317">
        <ele>1306.4</ele>
        <time>2024-08-13T10:16:20Z</time>
      </trkpt>
      <trkpt lat="44.83249" lon="6.1432">
        <ele>1306</ele>
        <time>2024-08-13T10:16:21Z</time>
      </trkpt>
      <trkpt lat="44.83249" lon="6.1432">
        <ele>1306</ele>
        <time>2024-08-13T10:16:22Z</time>
      </trkpt>
      <trkpt lat="44.83249" lon="6.1432">
        <ele>1306.6</ele>
        <time>2024-08-13T10:16:23Z</time>
      </trkpt>
      <trkpt lat="44.83249" lon="6.1432">
        <ele>1307.2</ele>
        <time>2024-08-13T10:16:24Z</time>
      </trkpt>
      <trkpt lat="44.83249" lon="6.1432">
        <ele>1307.2</ele>
        <time>2024-08-13T10:16:25Z</time>
      </trkpt>
      <trkpt lat="44.83249" lon="6.1432">
        <ele>1307.2</ele>
        <time>2024-08-13T10:16:26Z</time>
      </trkpt>
      <trkpt lat="44.83249" lon="6.1432">
        <ele>1307.6</ele>
        <time>2024-08-13T10:16:27Z</time>
      </trkpt>
      <trkpt lat="44.83249" lon="6.1432">
        <ele>1307.8</ele>
        <time>2024-08-13T10:16:28Z</time>
      </trkpt>
      <trkpt lat="44.83249" lon="6.1432">
        <ele>1308.2</ele>
        <time>2024-08-13T10:16:29Z</time>
      </trkpt>
      <trkpt lat="44.83249" lon="6.1432">
        <ele>1308.4</ele>
        <time>2024-08-13T10:16:30Z</time>
      </trkpt>
      <trkpt lat="44.83249" lon="6.1432">
        <ele>1308.6</ele>
        <time>2024-08-13T10:16:31Z</time>
      </trkpt>
      <trkpt lat="44.83249" lon="6.1432">
        <ele>1308.8</ele>
        <time>2024-08-13T10:16:32Z</time>
      </trkpt>
      <trkpt lat="44.83249" lon="6.1432">
        <ele>1309</ele>
        <time>2024-08-13T10:16:33Z</time>
      </trkpt>
      <trkpt lat="44.83249" lon="6.1432">
        <ele>1309.2</ele>
        <time>2024-08-13T10:16:34Z</time>
      </trkpt>
      <trkpt lat="44.83249" lon="6.1432">
        <ele>1309.2</ele>
        <time>2024-08-13T10:16:35Z</time>
      </trkpt>
      <trkpt lat="44.83249" lon="6.1432">
        <ele>1309.6</ele>
        <time>2024-08-13T10:16:36Z</time>
      </trkpt>
      <trkpt lat="44.83251" lon="6.14322">
        <ele>1309.6</ele>
        <time>2024-08-13T10:16:37Z</time>
      </trkpt>
      <trkpt lat="44.83251" lon="6.14322">
        <ele>1310</ele>
        <time>2024-08-13T10:16:38Z</time>
      </trkpt>
      <trkpt lat="44.83251" lon="6.14322">
        <ele>1310.2</ele>
        <time>2024-08-13T10:16:39Z</time>
      </trkpt>
      <trkpt lat="44.83253" lon="6.1432">
        <ele>1310.4</ele>
        <time>2024-08-13T10:16:40Z</time>
      </trkpt>
      <trkpt lat="44.83253" lon="6.1432">
        <ele>1310.6</ele>
        <time>2024-08-13T10:16:41Z</time>
      </trkpt>
      <trkpt lat="44.83253" lon="6.1432">
        <ele>1310.6</ele>
        <time>2024-08-13T10:16:42Z</time>
      </trkpt>
      <trkpt lat="44.83255" lon="6.14319">
        <ele>1310.6</ele>
        <time>2024-08-13T10:16:43Z</time>
      </trkpt>
      <trkpt lat="44.83255" lon="6.14319">
        <ele>1310.8</ele>
        <time>2024-08-13T10:16:44Z</time>
      </trkpt>
      <trkpt lat="44.83255" lon="6.14319">
        <ele>1311</ele>
        <time>2024-08-13T10:16:45Z</time>
      </trkpt>
      <trkpt lat="44.83255" lon="6.14319">
        <ele>1311</ele>
        <time>2024-08-13T10:16:46Z</time>
      </trkpt>
      <trkpt lat="44.83257" lon="6.14317">
        <ele>1311.4</ele>
        <time>2024-08-13T10:16:47Z</time>
      </trkpt>
      <trkpt lat="44.83257" lon="6.14317">
        <ele>1311.6</ele>
        <time>2024-08-13T10:16:48Z</time>
      </trkpt>
      <trkpt lat="44.83257" lon="6.14317">
        <ele>1311.8</ele>
        <time>2024-08-13T10:16:49Z</time>
      </trkpt>
      <trkpt lat="44.83259" lon="6.14316">
        <ele>1311.6</ele>
        <time>2024-08-13T10:16:50Z</time>
      </trkpt>
      <trkpt lat="44.83259" lon="6.14316">
        <ele>1311.6</ele>
        <time>2024-08-13T10:16:51Z</time>
      </trkpt>
      <trkpt lat="44.83261" lon="6.14315">
        <ele>1311.4</ele>
        <time>2024-08-13T10:16:52Z</time>
      </trkpt>
      <trkpt lat="44.83261" lon="6.14315">
        <ele>1311.4</ele>
        <time>2024-08-13T10:16:53Z</time>
      </trkpt>
      <trkpt lat="44.83261" lon="6.14315">
        <ele>1311.4</ele>
        <time>2024-08-13T10:16:54Z</time>
      </trkpt>
      <trkpt lat="44.83263" lon="6.14317">
        <ele>1311.4</ele>
        <time>2024-08-13T10:16:55Z</time>
      </trkpt>
      <trkpt lat="44.83263" lon="6.14317">
        <ele>1311.4</ele>
        <time>2024-08-13T10:16:56Z</time>
      </trkpt>
      <trkpt lat="44.83264" lon="6.14318">
        <ele>1311.4</ele>
        <time>2024-08-13T10:16:57Z</time>
      </trkpt>
      <trkpt lat="44.83264" lon="6.14318">
        <ele>1311.8</ele>
        <time>2024-08-13T10:16:58Z</time>
      </trkpt>
      <trkpt lat="44.83267" lon="6.1432">
        <ele>1312</ele>
        <time>2024-08-13T10:16:59Z</time>
      </trkpt>
      <trkpt lat="44.83267" lon="6.1432">
        <ele>1312</ele>
        <time>2024-08-13T10:17:00Z</time>
      </trkpt>
      <trkpt lat="44.83267" lon="6.1432">
        <ele>1312.4</ele>
        <time>2024-08-13T10:17:01Z</time>
      </trkpt>
      <trkpt lat="44.83269" lon="6.14322">
        <ele>1312.8</ele>
        <time>2024-08-13T10:17:02Z</time>
      </trkpt>
      <trkpt lat="44.83269" lon="6.14322">
        <ele>1312.8</ele>
        <time>2024-08-13T10:17:03Z</time>
      </trkpt>
      <trkpt lat="44.83269" lon="6.14322">
        <ele>1312.8</ele>
        <time>2024-08-13T10:17:04Z</time>
      </trkpt>
      <trkpt lat="44.83271" lon="6.14323">
        <ele>1313</ele>
        <time>2024-08-13T10:17:05Z</time>
      </trkpt>
      <trkpt lat="44.83271" lon="6.14323">
        <ele>1313</ele>
        <time>2024-08-13T10:17:06Z</time>
      </trkpt>
      <trkpt lat="44.83273" lon="6.14323">
        <ele>1313.4</ele>
        <time>2024-08-13T10:17:07Z</time>
      </trkpt>
      <trkpt lat="44.83273" lon="6.14323">
        <ele>1313.8</ele>
        <time>2024-08-13T10:17:08Z</time>
      </trkpt>
      <trkpt lat="44.83275" lon="6.14324">
        <ele>1313.8</ele>
        <time>2024-08-13T10:17:09Z</time>
      </trkpt>
      <trkpt lat="44.83275" lon="6.14324">
        <ele>1313.8</ele>
        <time>2024-08-13T10:17:10Z</time>
      </trkpt>
      <trkpt lat="44.83277" lon="6.14324">
        <ele>1313.8</ele>
        <time>2024-08-13T10:17:11Z</time>
      </trkpt>
      <trkpt lat="44.83277" lon="6.14324">
        <ele>1313.8</ele>
        <time>2024-08-13T10:17:12Z</time>
      </trkpt>
      <trkpt lat="44.83279" lon="6.14324">
        <ele>1314</ele>
        <time>2024-08-13T10:17:13Z</time>
      </trkpt>
      <trkpt lat="44.83279" lon="6.14324">
        <ele>1314</ele>
        <time>2024-08-13T10:17:14Z</time>
      </trkpt>
      <trkpt lat="44.83281" lon="6.14322">
        <ele>1314.2</ele>
        <time>2024-08-13T10:17:15Z</time>
      </trkpt>
      <trkpt lat="44.83281" lon="6.14322">
        <ele>1314.2</ele>
        <time>2024-08-13T10:17:16Z</time>
      </trkpt>
      <trkpt lat="44.83283" lon="6.1432">
        <ele>1314</ele>
        <time>2024-08-13T10:17:17Z</time>
      </trkpt>
      <trkpt lat="44.83283" lon="6.1432">
        <ele>1314</ele>
        <time>2024-08-13T10:17:18Z</time>
      </trkpt>
      <trkpt lat="44.83284" lon="6.14317">
        <ele>1314</ele>
        <time>2024-08-13T10:17:19Z</time>
      </trkpt>
      <trkpt lat="44.83284" lon="6.14317">
        <ele>1314</ele>
        <time>2024-08-13T10:17:20Z</time>
      </trkpt>
      <trkpt lat="44.83284" lon="6.14317">
        <ele>1314.2</ele>
        <time>2024-08-13T10:17:21Z</time>
      </trkpt>
      <trkpt lat="44.83285" lon="6.14313">
        <ele>1314.4</ele>
        <time>2024-08-13T10:17:22Z</time>
      </trkpt>
      <trkpt lat="44.83285" lon="6.14313">
        <ele>1314.6</ele>
        <time>2024-08-13T10:17:23Z</time>
      </trkpt>
      <trkpt lat="44.83285" lon="6.14313">
        <ele>1314.6</ele>
        <time>2024-08-13T10:17:24Z</time>
      </trkpt>
      <trkpt lat="44.83286" lon="6.1431">
        <ele>1314.6</ele>
        <time>2024-08-13T10:17:25Z</time>
      </trkpt>
      <trkpt lat="44.83286" lon="6.1431">
        <ele>1314.8</ele>
        <time>2024-08-13T10:17:26Z</time>
      </trkpt>
      <trkpt lat="44.83286" lon="6.1431">
        <ele>1315</ele>
        <time>2024-08-13T10:17:27Z</time>
      </trkpt>
      <trkpt lat="44.83286" lon="6.1431">
        <ele>1315.2</ele>
        <time>2024-08-13T10:17:28Z</time>
      </trkpt>
      <trkpt lat="44.83287" lon="6.14308">
        <ele>1315.6</ele>
        <time>2024-08-13T10:17:29Z</time>
      </trkpt>
      <trkpt lat="44.83287" lon="6.14308">
        <ele>1315.8</ele>
        <time>2024-08-13T10:17:30Z</time>
      </trkpt>
      <trkpt lat="44.83287" lon="6.14308">
        <ele>1316</ele>
        <time>2024-08-13T10:17:31Z</time>
      </trkpt>
      <trkpt lat="44.83288" lon="6.14306">
        <ele>1316.2</ele>
        <time>2024-08-13T10:17:32Z</time>
      </trkpt>
      <trkpt lat="44.83288" lon="6.14306">
        <ele>1316.4</ele>
        <time>2024-08-13T10:17:33Z</time>
      </trkpt>
      <trkpt lat="44.83288" lon="6.14306">
        <ele>1316.4</ele>
        <time>2024-08-13T10:17:34Z</time>
      </trkpt>
      <trkpt lat="44.83288" lon="6.14306">
        <ele>1316.8</ele>
        <time>2024-08-13T10:17:35Z</time>
      </trkpt>
      <trkpt lat="44.8329" lon="6.14304">
        <ele>1317</ele>
        <time>2024-08-13T10:17:36Z</time>
      </trkpt>
      <trkpt lat="44.8329" lon="6.14304">
        <ele>1317.2</ele>
        <time>2024-08-13T10:17:37Z</time>
      </trkpt>
      <trkpt lat="44.83291" lon="6.14301">
        <ele>1317.6</ele>
        <time>2024-08-13T10:17:38Z</time>
      </trkpt>
      <trkpt lat="44.83291" lon="6.14301">
        <ele>1317.8</ele>
        <time>2024-08-13T10:17:39Z</time>
      </trkpt>
      <trkpt lat="44.83293" lon="6.143">
        <ele>1317.8</ele>
        <time>2024-08-13T10:17:40Z</time>
      </trkpt>
      <trkpt lat="44.83293" lon="6.143">
        <ele>1317.6</ele>
        <time>2024-08-13T10:17:41Z</time>
      </trkpt>
      <trkpt lat="44.83296" lon="6.14299">
        <ele>1317.6</ele>
        <time>2024-08-13T10:17:42Z</time>
      </trkpt>
      <trkpt lat="44.83296" lon="6.14299">
        <ele>1318</ele>
        <time>2024-08-13T10:17:43Z</time>
      </trkpt>
      <trkpt lat="44.83298" lon="6.14299">
        <ele>1318</ele>
        <time>2024-08-13T10:17:44Z</time>
      </trkpt>
      <trkpt lat="44.83298" lon="6.14299">
        <ele>1318</ele>
        <time>2024-08-13T10:17:45Z</time>
      </trkpt>
      <trkpt lat="44.833" lon="6.14297">
        <ele>1318</ele>
        <time>2024-08-13T10:17:46Z</time>
      </trkpt>
      <trkpt lat="44.833" lon="6.14297">
        <ele>1318</ele>
        <time>2024-08-13T10:17:47Z</time>
      </trkpt>
      <trkpt lat="44.83301" lon="6.14295">
        <ele>1317.6</ele>
        <time>2024-08-13T10:17:48Z</time>
      </trkpt>
      <trkpt lat="44.83301" lon="6.14295">
        <ele>1317.6</ele>
        <time>2024-08-13T10:17:49Z</time>
      </trkpt>
      <trkpt lat="44.83303" lon="6.14294">
        <ele>1317.6</ele>
        <time>2024-08-13T10:17:50Z</time>
      </trkpt>
      <trkpt lat="44.83303" lon="6.14294">
        <ele>1317.8</ele>
        <time>2024-08-13T10:17:51Z</time>
      </trkpt>
      <trkpt lat="44.83304" lon="6.1429">
        <ele>1318.2</ele>
        <time>2024-08-13T10:17:52Z</time>
      </trkpt>
      <trkpt lat="44.83304" lon="6.1429">
        <ele>1318.4</ele>
        <time>2024-08-13T10:17:53Z</time>
      </trkpt>
      <trkpt lat="44.83305" lon="6.14288">
        <ele>1318.4</ele>
        <time>2024-08-13T10:17:54Z</time>
      </trkpt>
      <trkpt lat="44.83305" lon="6.14288">
        <ele>1318.2</ele>
        <time>2024-08-13T10:17:55Z</time>
      </trkpt>
      <trkpt lat="44.83305" lon="6.14288">
        <ele>1318</ele>
        <time>2024-08-13T10:17:56Z</time>
      </trkpt>
      <trkpt lat="44.83306" lon="6.14284">
        <ele>1317.8</ele>
        <time>2024-08-13T10:17:57Z</time>
      </trkpt>
      <trkpt lat="44.83306" lon="6.14284">
        <ele>1317.6</ele>
        <time>2024-08-13T10:17:58Z</time>
      </trkpt>
      <trkpt lat="44.83307" lon="6.14281">
        <ele>1317</ele>
        <time>2024-08-13T10:17:59Z</time>
      </trkpt>
      <trkpt lat="44.83307" lon="6.14281">
        <ele>1316.8</ele>
        <time>2024-08-13T10:18:00Z</time>
      </trkpt>
      <trkpt lat="44.83307" lon="6.14278">
        <ele>1316.6</ele>
        <time>2024-08-13T10:18:01Z</time>
      </trkpt>
      <trkpt lat="44.83307" lon="6.14278">
        <ele>1316.2</ele>
        <time>2024-08-13T10:18:02Z</time>
      </trkpt>
      <trkpt lat="44.83307" lon="6.14278">
        <ele>1316.2</ele>
        <time>2024-08-13T10:18:03Z</time>
      </trkpt>
      <trkpt lat="44.83308" lon="6.14275">
        <ele>1316.2</ele>
        <time>2024-08-13T10:18:04Z</time>
      </trkpt>
      <trkpt lat="44.83308" lon="6.14275">
        <ele>1316.4</ele>
        <time>2024-08-13T10:18:05Z</time>
      </trkpt>
      <trkpt lat="44.83308" lon="6.14275">
        <ele>1316.6</ele>
        <time>2024-08-13T10:18:06Z</time>
      </trkpt>
      <trkpt lat="44.83309" lon="6.14273">
        <ele>1316.8</ele>
        <time>2024-08-13T10:18:07Z</time>
      </trkpt>
      <trkpt lat="44.83309" lon="6.14273">
        <ele>1316.8</ele>
        <time>2024-08-13T10:18:08Z</time>
      </trkpt>
      <trkpt lat="44.83309" lon="6.14273">
        <ele>1317.4</ele>
        <time>2024-08-13T10:18:09Z</time>
      </trkpt>
      <trkpt lat="44.83309" lon="6.1427">
        <ele>1317.4</ele>
        <time>2024-08-13T10:18:10Z</time>
      </trkpt>
      <trkpt lat="44.83309" lon="6.1427">
        <ele>1317.2</ele>
        <time>2024-08-13T10:18:11Z</time>
      </trkpt>
      <trkpt lat="44.83309" lon="6.1427">
        <ele>1317.2</ele>
        <time>2024-08-13T10:18:12Z</time>
      </trkpt>
      <trkpt lat="44.8331" lon="6.14268">
        <ele>1317.2</ele>
        <time>2024-08-13T10:18:13Z</time>
      </trkpt>
      <trkpt lat="44.8331" lon="6.14268">
        <ele>1317.4</ele>
        <time>2024-08-13T10:18:14Z</time>
      </trkpt>
      <trkpt lat="44.83311" lon="6.14265">
        <ele>1317.4</ele>
        <time>2024-08-13T10:18:15Z</time>
      </trkpt>
      <trkpt lat="44.83311" lon="6.14265">
        <ele>1317.4</ele>
        <time>2024-08-13T10:18:16Z</time>
      </trkpt>
      <trkpt lat="44.83313" lon="6.14263">
        <ele>1317.4</ele>
        <time>2024-08-13T10:18:17Z</time>
      </trkpt>
      <trkpt lat="44.83313" lon="6.14263">
        <ele>1317.2</ele>
        <time>2024-08-13T10:18:18Z</time>
      </trkpt>
      <trkpt lat="44.83314" lon="6.1426">
        <ele>1316.8</ele>
        <time>2024-08-13T10:18:19Z</time>
      </trkpt>
      <trkpt lat="44.83314" lon="6.1426">
        <ele>1316.8</ele>
        <time>2024-08-13T10:18:20Z</time>
      </trkpt>
      <trkpt lat="44.83315" lon="6.14258">
        <ele>1316.6</ele>
        <time>2024-08-13T10:18:21Z</time>
      </trkpt>
      <trkpt lat="44.83315" lon="6.14258">
        <ele>1316.6</ele>
        <time>2024-08-13T10:18:22Z</time>
      </trkpt>
      <trkpt lat="44.83315" lon="6.14258">
        <ele>1316.6</ele>
        <time>2024-08-13T10:18:23Z</time>
      </trkpt>
      <trkpt lat="44.83317" lon="6.14257">
        <ele>1316.6</ele>
        <time>2024-08-13T10:18:24Z</time>
      </trkpt>
      <trkpt lat="44.83317" lon="6.14257">
        <ele>1316.8</ele>
        <time>2024-08-13T10:18:25Z</time>
      </trkpt>
      <trkpt lat="44.83319" lon="6.14257">
        <ele>1317</ele>
        <time>2024-08-13T10:18:26Z</time>
      </trkpt>
      <trkpt lat="44.83319" lon="6.14257">
        <ele>1317</ele>
        <time>2024-08-13T10:18:27Z</time>
      </trkpt>
      <trkpt lat="44.83322" lon="6.14258">
        <ele>1317</ele>
        <time>2024-08-13T10:18:28Z</time>
      </trkpt>
      <trkpt lat="44.83322" lon="6.14258">
        <ele>1317.4</ele>
        <time>2024-08-13T10:18:29Z</time>
      </trkpt>
      <trkpt lat="44.83322" lon="6.14258">
        <ele>1317.4</ele>
        <time>2024-08-13T10:18:30Z</time>
      </trkpt>
      <trkpt lat="44.83324" lon="6.14259">
        <ele>1317.4</ele>
        <time>2024-08-13T10:18:31Z</time>
      </trkpt>
      <trkpt lat="44.83324" lon="6.14259">
        <ele>1317.4</ele>
        <time>2024-08-13T10:18:32Z</time>
      </trkpt>
      <trkpt lat="44.83326" lon="6.14259">
        <ele>1317.6</ele>
        <time>2024-08-13T10:18:33Z</time>
      </trkpt>
      <trkpt lat="44.83326" lon="6.14259">
        <ele>1317.8</ele>
        <time>2024-08-13T10:18:34Z</time>
      </trkpt>
      <trkpt lat="44.83328" lon="6.14259">
        <ele>1318</ele>
        <time>2024-08-13T10:18:35Z</time>
      </trkpt>
      <trkpt lat="44.83328" lon="6.14259">
        <ele>1318</ele>
        <time>2024-08-13T10:18:36Z</time>
      </trkpt>
      <trkpt lat="44.8333" lon="6.14258">
        <ele>1318.2</ele>
        <time>2024-08-13T10:18:37Z</time>
      </trkpt>
      <trkpt lat="44.8333" lon="6.14258">
        <ele>1318.2</ele>
        <time>2024-08-13T10:18:38Z</time>
      </trkpt>
      <trkpt lat="44.83332" lon="6.14256">
        <ele>1318.4</ele>
        <time>2024-08-13T10:18:39Z</time>
      </trkpt>
      <trkpt lat="44.83332" lon="6.14256">
        <ele>1318.6</ele>
        <time>2024-08-13T10:18:40Z</time>
      </trkpt>
      <trkpt lat="44.83332" lon="6.14256">
        <ele>1318.6</ele>
        <time>2024-08-13T10:18:41Z</time>
      </trkpt>
      <trkpt lat="44.83333" lon="6.14254">
        <ele>1318.6</ele>
        <time>2024-08-13T10:18:42Z</time>
      </trkpt>
      <trkpt lat="44.83333" lon="6.14254">
        <ele>1318.6</ele>
        <time>2024-08-13T10:18:43Z</time>
      </trkpt>
      <trkpt lat="44.83333" lon="6.14254">
        <ele>1318.4</ele>
        <time>2024-08-13T10:18:44Z</time>
      </trkpt>
      <trkpt lat="44.83333" lon="6.14254">
        <ele>1318.2</ele>
        <time>2024-08-13T10:18:45Z</time>
      </trkpt>
      <trkpt lat="44.83333" lon="6.14254">
        <ele>1318</ele>
        <time>2024-08-13T10:18:46Z</time>
      </trkpt>
      <trkpt lat="44.83333" lon="6.14252">
        <ele>1317.8</ele>
        <time>2024-08-13T10:18:47Z</time>
      </trkpt>
      <trkpt lat="44.83333" lon="6.14252">
        <ele>1317.6</ele>
        <time>2024-08-13T10:18:48Z</time>
      </trkpt>
      <trkpt lat="44.83333" lon="6.14252">
        <ele>1317.4</ele>
        <time>2024-08-13T10:18:49Z</time>
      </trkpt>
      <trkpt lat="44.83333" lon="6.14252">
        <ele>1317.4</ele>
        <time>2024-08-13T10:18:50Z</time>
      </trkpt>
      <trkpt lat="44.83333" lon="6.14252">
        <ele>1317.2</ele>
        <time>2024-08-13T10:18:51Z</time>
      </trkpt>
      <trkpt lat="44.83333" lon="6.14252">
        <ele>1317</ele>
        <time>2024-08-13T10:18:52Z</time>
      </trkpt>
      <trkpt lat="44.83333" lon="6.14252">
        <ele>1316.6</ele>
        <time>2024-08-13T10:18:53Z</time>
      </trkpt>
      <trkpt lat="44.83333" lon="6.14252">
        <ele>1316.6</ele>
        <time>2024-08-13T10:18:54Z</time>
      </trkpt>
      <trkpt lat="44.83333" lon="6.14252">
        <ele>1316.4</ele>
        <time>2024-08-13T10:18:55Z</time>
      </trkpt>
      <trkpt lat="44.83333" lon="6.14252">
        <ele>1316.4</ele>
        <time>2024-08-13T10:18:56Z</time>
      </trkpt>
      <trkpt lat="44.83333" lon="6.14252">
        <ele>1316.4</ele>
        <time>2024-08-13T10:18:57Z</time>
      </trkpt>
      <trkpt lat="44.83333" lon="6.14252">
        <ele>1316.4</ele>
        <time>2024-08-13T10:18:58Z</time>
      </trkpt>
      <trkpt lat="44.83333" lon="6.14252">
        <ele>1316.2</ele>
        <time>2024-08-13T10:18:59Z</time>
      </trkpt>
      <trkpt lat="44.83333" lon="6.14252">
        <ele>1316</ele>
        <time>2024-08-13T10:19:00Z</time>
      </trkpt>
      <trkpt lat="44.83333" lon="6.14252">
        <ele>1316</ele>
        <time>2024-08-13T10:19:01Z</time>
      </trkpt>
      <trkpt lat="44.83333" lon="6.14252">
        <ele>1316.2</ele>
        <time>2024-08-13T10:19:02Z</time>
      </trkpt>
      <trkpt lat="44.83333" lon="6.14252">
        <ele>1316.2</ele>
        <time>2024-08-13T10:19:03Z</time>
      </trkpt>
      <trkpt lat="44.83333" lon="6.14252">
        <ele>1316.2</ele>
        <time>2024-08-13T10:19:04Z</time>
      </trkpt>
      <trkpt lat="44.83333" lon="6.14252">
        <ele>1316.2</ele>
        <time>2024-08-13T10:19:05Z</time>
      </trkpt>
      <trkpt lat="44.83333" lon="6.14252">
        <ele>1316.4</ele>
        <time>2024-08-13T10:19:06Z</time>
      </trkpt>
      <trkpt lat="44.83333" lon="6.14252">
        <ele>1316.4</ele>
        <time>2024-08-13T10:19:07Z</time>
      </trkpt>
      <trkpt lat="44.83333" lon="6.14252">
        <ele>1316.6</ele>
        <time>2024-08-13T10:19:08Z</time>
      </trkpt>
      <trkpt lat="44.83333" lon="6.14252">
        <ele>1316.6</ele>
        <time>2024-08-13T10:19:09Z</time>
      </trkpt>
      <trkpt lat="44.83333" lon="6.14252">
        <ele>1316.6</ele>
        <time>2024-08-13T10:19:10Z</time>
      </trkpt>
      <trkpt lat="44.83333" lon="6.14252">
        <ele>1316.6</ele>
        <time>2024-08-13T10:19:11Z</time>
      </trkpt>
      <trkpt lat="44.83333" lon="6.14252">
        <ele>1316.6</ele>
        <time>2024-08-13T10:19:12Z</time>
      </trkpt>
      <trkpt lat="44.83333" lon="6.14252">
        <ele>1316.4</ele>
        <time>2024-08-13T10:19:13Z</time>
      </trkpt>
      <trkpt lat="44.83333" lon="6.14252">
        <ele>1316.2</ele>
        <time>2024-08-13T10:19:14Z</time>
      </trkpt>
      <trkpt lat="44.83333" lon="6.14252">
        <ele>1316</ele>
        <time>2024-08-13T10:19:15Z</time>
      </trkpt>
      <trkpt lat="44.83333" lon="6.14252">
        <ele>1316</ele>
        <time>2024-08-13T10:19:16Z</time>
      </trkpt>
      <trkpt lat="44.83333" lon="6.14252">
        <ele>1316.4</ele>
        <time>2024-08-13T10:19:17Z</time>
      </trkpt>
      <trkpt lat="44.83333" lon="6.14252">
        <ele>1316.6</ele>
        <time>2024-08-13T10:19:18Z</time>
      </trkpt>
      <trkpt lat="44.83333" lon="6.14252">
        <ele>1316.6</ele>
        <time>2024-08-13T10:19:19Z</time>
      </trkpt>
      <trkpt lat="44.83333" lon="6.14252">
        <ele>1317</ele>
        <time>2024-08-13T10:19:20Z</time>
      </trkpt>
      <trkpt lat="44.83333" lon="6.14252">
        <ele>1317</ele>
        <time>2024-08-13T10:19:21Z</time>
      </trkpt>
      <trkpt lat="44.83333" lon="6.14252">
        <ele>1317.2</ele>
        <time>2024-08-13T10:19:22Z</time>
      </trkpt>
      <trkpt lat="44.83333" lon="6.14252">
        <ele>1317.2</ele>
        <time>2024-08-13T10:19:23Z</time>
      </trkpt>
      <trkpt lat="44.83333" lon="6.14252">
        <ele>1317.2</ele>
        <time>2024-08-13T10:19:24Z</time>
      </trkpt>
      <trkpt lat="44.83333" lon="6.14252">
        <ele>1317.2</ele>
        <time>2024-08-13T10:19:25Z</time>
      </trkpt>
      <trkpt lat="44.83333" lon="6.14252">
        <ele>1317</ele>
        <time>2024-08-13T10:19:26Z</time>
      </trkpt>
      <trkpt lat="44.83333" lon="6.14252">
        <ele>1317</ele>
        <time>2024-08-13T10:19:27Z</time>
      </trkpt>
      <trkpt lat="44.83333" lon="6.14252">
        <ele>1317.2</ele>
        <time>2024-08-13T10:19:28Z</time>
      </trkpt>
      <trkpt lat="44.83333" lon="6.14252">
        <ele>1317.4</ele>
        <time>2024-08-13T10:19:29Z</time>
      </trkpt>
      <trkpt lat="44.83333" lon="6.14252">
        <ele>1317.4</ele>
        <time>2024-08-13T10:19:30Z</time>
      </trkpt>
      <trkpt lat="44.83333" lon="6.14252">
        <ele>1317.4</ele>
        <time>2024-08-13T10:19:31Z</time>
      </trkpt>
      <trkpt lat="44.83333" lon="6.14252">
        <ele>1317.6</ele>
        <time>2024-08-13T10:19:32Z</time>
      </trkpt>
      <trkpt lat="44.83333" lon="6.14252">
        <ele>1317.6</ele>
        <time>2024-08-13T10:19:33Z</time>
      </trkpt>
      <trkpt lat="44.83333" lon="6.14252">
        <ele>1317.8</ele>
        <time>2024-08-13T10:19:34Z</time>
      </trkpt>
      <trkpt lat="44.83333" lon="6.14252">
        <ele>1317.8</ele>
        <time>2024-08-13T10:19:35Z</time>
      </trkpt>
      <trkpt lat="44.83333" lon="6.14252">
        <ele>1318</ele>
        <time>2024-08-13T10:19:36Z</time>
      </trkpt>
      <trkpt lat="44.83333" lon="6.14252">
        <ele>1318</ele>
        <time>2024-08-13T10:19:37Z</time>
      </trkpt>
      <trkpt lat="44.83333" lon="6.14252">
        <ele>1318</ele>
        <time>2024-08-13T10:19:38Z</time>
      </trkpt>
      <trkpt lat="44.83333" lon="6.14252">
        <ele>1318</ele>
        <time>2024-08-13T10:19:39Z</time>
      </trkpt>
      <trkpt lat="44.83333" lon="6.14252">
        <ele>1318.2</ele>
        <time>2024-08-13T10:19:40Z</time>
      </trkpt>
      <trkpt lat="44.83333" lon="6.14252">
        <ele>1318.2</ele>
        <time>2024-08-13T10:19:41Z</time>
      </trkpt>
      <trkpt lat="44.83333" lon="6.14252">
        <ele>1318.2</ele>
        <time>2024-08-13T10:19:42Z</time>
      </trkpt>
      <trkpt lat="44.83333" lon="6.14252">
        <ele>1318.2</ele>
        <time>2024-08-13T10:19:43Z</time>
      </trkpt>
      <trkpt lat="44.83333" lon="6.14252">
        <ele>1318.4</ele>
        <time>2024-08-13T10:19:44Z</time>
      </trkpt>
      <trkpt lat="44.83333" lon="6.14252">
        <ele>1318.4</ele>
        <time>2024-08-13T10:19:45Z</time>
      </trkpt>
      <trkpt lat="44.83333" lon="6.14252">
        <ele>1318.4</ele>
        <time>2024-08-13T10:19:46Z</time>
      </trkpt>
      <trkpt lat="44.83333" lon="6.14252">
        <ele>1318.4</ele>
        <time>2024-08-13T10:19:47Z</time>
      </trkpt>
      <trkpt lat="44.83333" lon="6.14252">
        <ele>1318.6</ele>
        <time>2024-08-13T10:19:48Z</time>
      </trkpt>
      <trkpt lat="44.83333" lon="6.14252">
        <ele>1318.6</ele>
        <time>2024-08-13T10:19:49Z</time>
      </trkpt>
      <trkpt lat="44.83333" lon="6.14252">
        <ele>1318.6</ele>
        <time>2024-08-13T10:19:50Z</time>
      </trkpt>
      <trkpt lat="44.83333" lon="6.14252">
        <ele>1318.4</ele>
        <time>2024-08-13T10:19:51Z</time>
      </trkpt>
      <trkpt lat="44.83333" lon="6.14252">
        <ele>1318.4</ele>
        <time>2024-08-13T10:19:52Z</time>
      </trkpt>
      <trkpt lat="44.83333" lon="6.14252">
        <ele>1318.2</ele>
        <time>2024-08-13T10:19:53Z</time>
      </trkpt>
      <trkpt lat="44.83333" lon="6.14252">
        <ele>1318</ele>
        <time>2024-08-13T10:19:54Z</time>
      </trkpt>
      <trkpt lat="44.83333" lon="6.14252">
        <ele>1318</ele>
        <time>2024-08-13T10:19:55Z</time>
      </trkpt>
      <trkpt lat="44.83333" lon="6.14252">
        <ele>1317.8</ele>
        <time>2024-08-13T10:19:56Z</time>
      </trkpt>
      <trkpt lat="44.83333" lon="6.14252">
        <ele>1317.8</ele>
        <time>2024-08-13T10:19:57Z</time>
      </trkpt>
      <trkpt lat="44.83333" lon="6.14252">
        <ele>1318</ele>
        <time>2024-08-13T10:19:58Z</time>
      </trkpt>
      <trkpt lat="44.83333" lon="6.14252">
        <ele>1318.2</ele>
        <time>2024-08-13T10:19:59Z</time>
      </trkpt>
      <trkpt lat="44.83333" lon="6.14252">
        <ele>1318.4</ele>
        <time>2024-08-13T10:20:00Z</time>
      </trkpt>
      <trkpt lat="44.83333" lon="6.14252">
        <ele>1318.6</ele>
        <time>2024-08-13T10:20:01Z</time>
      </trkpt>
      <trkpt lat="44.83333" lon="6.14252">
        <ele>1318.6</ele>
        <time>2024-08-13T10:20:02Z</time>
      </trkpt>
      <trkpt lat="44.83333" lon="6.14252">
        <ele>1318.4</ele>
        <time>2024-08-13T10:20:03Z</time>
      </trkpt>
      <trkpt lat="44.83333" lon="6.14252">
        <ele>1318.4</ele>
        <time>2024-08-13T10:20:04Z</time>
      </trkpt>
      <trkpt lat="44.83333" lon="6.14252">
        <ele>1318.4</ele>
        <time>2024-08-13T10:20:05Z</time>
      </trkpt>
      <trkpt lat="44.83333" lon="6.14252">
        <ele>1318.4</ele>
        <time>2024-08-13T10:20:06Z</time>
      </trkpt>
      <trkpt lat="44.83333" lon="6.14252">
        <ele>1318.4</ele>
        <time>2024-08-13T10:20:07Z</time>
      </trkpt>
      <trkpt lat="44.83333" lon="6.14252">
        <ele>1318.4</ele>
        <time>2024-08-13T10:20:08Z</time>
      </trkpt>
      <trkpt lat="44.83333" lon="6.14252">
        <ele>1318.4</ele>
        <time>2024-08-13T10:20:09Z</time>
      </trkpt>
      <trkpt lat="44.83333" lon="6.14252">
        <ele>1318.6</ele>
        <time>2024-08-13T10:20:10Z</time>
      </trkpt>
      <trkpt lat="44.83333" lon="6.14252">
        <ele>1318.8</ele>
        <time>2024-08-13T10:20:11Z</time>
      </trkpt>
      <trkpt lat="44.83333" lon="6.14252">
        <ele>1318.8</ele>
        <time>2024-08-13T10:20:12Z</time>
      </trkpt>
      <trkpt lat="44.83333" lon="6.14252">
        <ele>1318.8</ele>
        <time>2024-08-13T10:20:13Z</time>
      </trkpt>
      <trkpt lat="44.83333" lon="6.14252">
        <ele>1319</ele>
        <time>2024-08-13T10:20:14Z</time>
      </trkpt>
      <trkpt lat="44.83333" lon="6.14252">
        <ele>1319.6</ele>
        <time>2024-08-13T10:20:15Z</time>
      </trkpt>
      <trkpt lat="44.83333" lon="6.14252">
        <ele>1319.8</ele>
        <time>2024-08-13T10:20:16Z</time>
      </trkpt>
      <trkpt lat="44.83333" lon="6.14252">
        <ele>1320.4</ele>
        <time>2024-08-13T10:20:17Z</time>
      </trkpt>
      <trkpt lat="44.83333" lon="6.14252">
        <ele>1320.6</ele>
        <time>2024-08-13T10:20:18Z</time>
      </trkpt>
      <trkpt lat="44.83333" lon="6.14252">
        <ele>1320.6</ele>
        <time>2024-08-13T10:20:19Z</time>
      </trkpt>
      <trkpt lat="44.83333" lon="6.14252">
        <ele>1320.2</ele>
        <time>2024-08-13T10:20:20Z</time>
      </trkpt>
      <trkpt lat="44.83333" lon="6.14252">
        <ele>1320.2</ele>
        <time>2024-08-13T10:20:21Z</time>
      </trkpt>
      <trkpt lat="44.83333" lon="6.14252">
        <ele>1320.2</ele>
        <time>2024-08-13T10:20:22Z</time>
      </trkpt>
      <trkpt lat="44.83333" lon="6.14252">
        <ele>1320.2</ele>
        <time>2024-08-13T10:20:23Z</time>
      </trkpt>
      <trkpt lat="44.83333" lon="6.14252">
        <ele>1321</ele>
        <time>2024-08-13T10:20:24Z</time>
      </trkpt>
      <trkpt lat="44.83333" lon="6.14252">
        <ele>1321.4</ele>
        <time>2024-08-13T10:20:25Z</time>
      </trkpt>
      <trkpt lat="44.83333" lon="6.14252">
        <ele>1321.6</ele>
        <time>2024-08-13T10:20:26Z</time>
      </trkpt>
      <trkpt lat="44.83333" lon="6.14252">
        <ele>1321.8</ele>
        <time>2024-08-13T10:20:27Z</time>
      </trkpt>
      <trkpt lat="44.83333" lon="6.14252">
        <ele>1322.2</ele>
        <time>2024-08-13T10:20:28Z</time>
      </trkpt>
      <trkpt lat="44.83333" lon="6.14252">
        <ele>1322.2</ele>
        <time>2024-08-13T10:20:29Z</time>
      </trkpt>
      <trkpt lat="44.83333" lon="6.14252">
        <ele>1322.4</ele>
        <time>2024-08-13T10:20:30Z</time>
      </trkpt>
      <trkpt lat="44.83333" lon="6.14252">
        <ele>1322.4</ele>
        <time>2024-08-13T10:20:31Z</time>
      </trkpt>
      <trkpt lat="44.83333" lon="6.14252">
        <ele>1322.6</ele>
        <time>2024-08-13T10:20:32Z</time>
      </trkpt>
      <trkpt lat="44.83333" lon="6.14252">
        <ele>1322.6</ele>
        <time>2024-08-13T10:20:33Z</time>
      </trkpt>
      <trkpt lat="44.83333" lon="6.14252">
        <ele>1322.6</ele>
        <time>2024-08-13T10:20:34Z</time>
      </trkpt>
      <trkpt lat="44.83333" lon="6.14252">
        <ele>1322.6</ele>
        <time>2024-08-13T10:20:35Z</time>
      </trkpt>
      <trkpt lat="44.83333" lon="6.14252">
        <ele>1322.6</ele>
        <time>2024-08-13T10:20:36Z</time>
      </trkpt>
      <trkpt lat="44.83333" lon="6.14252">
        <ele>1322.6</ele>
        <time>2024-08-13T10:20:37Z</time>
      </trkpt>
      <trkpt lat="44.83333" lon="6.14252">
        <ele>1322.6</ele>
        <time>2024-08-13T10:20:38Z</time>
      </trkpt>
      <trkpt lat="44.83333" lon="6.14252">
        <ele>1323</ele>
        <time>2024-08-13T10:20:39Z</time>
      </trkpt>
      <trkpt lat="44.83333" lon="6.14252">
        <ele>1323</ele>
        <time>2024-08-13T10:20:40Z</time>
      </trkpt>
      <trkpt lat="44.83333" lon="6.14252">
        <ele>1322.8</ele>
        <time>2024-08-13T10:20:41Z</time>
      </trkpt>
      <trkpt lat="44.83333" lon="6.14252">
        <ele>1322.8</ele>
        <time>2024-08-13T10:20:42Z</time>
      </trkpt>
      <trkpt lat="44.83333" lon="6.14252">
        <ele>1323</ele>
        <time>2024-08-13T10:20:43Z</time>
      </trkpt>
      <trkpt lat="44.83333" lon="6.14252">
        <ele>1323</ele>
        <time>2024-08-13T10:20:44Z</time>
      </trkpt>
      <trkpt lat="44.83333" lon="6.14252">
        <ele>1323</ele>
        <time>2024-08-13T10:20:45Z</time>
      </trkpt>
      <trkpt lat="44.83333" lon="6.14252">
        <ele>1323.2</ele>
        <time>2024-08-13T10:20:46Z</time>
      </trkpt>
      <trkpt lat="44.83333" lon="6.14252">
        <ele>1323.4</ele>
        <time>2024-08-13T10:20:47Z</time>
      </trkpt>
      <trkpt lat="44.83331" lon="6.14254">
        <ele>1323.4</ele>
        <time>2024-08-13T10:20:48Z</time>
      </trkpt>
      <trkpt lat="44.83331" lon="6.14254">
        <ele>1323.2</ele>
        <time>2024-08-13T10:20:49Z</time>
      </trkpt>
      <trkpt lat="44.83331" lon="6.14254">
        <ele>1323.2</ele>
        <time>2024-08-13T10:20:50Z</time>
      </trkpt>
      <trkpt lat="44.83331" lon="6.14254">
        <ele>1323.2</ele>
        <time>2024-08-13T10:20:51Z</time>
      </trkpt>
      <trkpt lat="44.83331" lon="6.14254">
        <ele>1322.8</ele>
        <time>2024-08-13T10:20:52Z</time>
      </trkpt>
      <trkpt lat="44.83331" lon="6.14254">
        <ele>1322.8</ele>
        <time>2024-08-13T10:20:53Z</time>
      </trkpt>
      <trkpt lat="44.83331" lon="6.14254">
        <ele>1322.8</ele>
        <time>2024-08-13T10:20:54Z</time>
      </trkpt>
      <trkpt lat="44.83331" lon="6.14254">
        <ele>1322.8</ele>
        <time>2024-08-13T10:20:55Z</time>
      </trkpt>
      <trkpt lat="44.83331" lon="6.14254">
        <ele>1322.8</ele>
        <time>2024-08-13T10:20:56Z</time>
      </trkpt>
      <trkpt lat="44.83331" lon="6.14254">
        <ele>1322.8</ele>
        <time>2024-08-13T10:20:57Z</time>
      </trkpt>
      <trkpt lat="44.83331" lon="6.14254">
        <ele>1322.8</ele>
        <time>2024-08-13T10:20:58Z</time>
      </trkpt>
      <trkpt lat="44.83331" lon="6.14254">
        <ele>1323</ele>
        <time>2024-08-13T10:20:59Z</time>
      </trkpt>
      <trkpt lat="44.83331" lon="6.14254">
        <ele>1323.2</ele>
        <time>2024-08-13T10:21:00Z</time>
      </trkpt>
      <trkpt lat="44.83331" lon="6.14254">
        <ele>1323.4</ele>
        <time>2024-08-13T10:21:01Z</time>
      </trkpt>
      <trkpt lat="44.83331" lon="6.14254">
        <ele>1323.6</ele>
        <time>2024-08-13T10:21:02Z</time>
      </trkpt>
      <trkpt lat="44.83331" lon="6.14254">
        <ele>1323.6</ele>
        <time>2024-08-13T10:21:03Z</time>
      </trkpt>
      <trkpt lat="44.83331" lon="6.14254">
        <ele>1323.4</ele>
        <time>2024-08-13T10:21:04Z</time>
      </trkpt>
      <trkpt lat="44.83331" lon="6.14254">
        <ele>1323.4</ele>
        <time>2024-08-13T10:21:05Z</time>
      </trkpt>
      <trkpt lat="44.83331" lon="6.14254">
        <ele>1323.8</ele>
        <time>2024-08-13T10:21:06Z</time>
      </trkpt>
      <trkpt lat="44.83331" lon="6.14254">
        <ele>1323.8</ele>
        <time>2024-08-13T10:21:07Z</time>
      </trkpt>
      <trkpt lat="44.83331" lon="6.14254">
        <ele>1323.8</ele>
        <time>2024-08-13T10:21:08Z</time>
      </trkpt>
      <trkpt lat="44.83331" lon="6.14254">
        <ele>1323.6</ele>
        <time>2024-08-13T10:21:09Z</time>
      </trkpt>
      <trkpt lat="44.83331" lon="6.14254">
        <ele>1323.6</ele>
        <time>2024-08-13T10:21:10Z</time>
      </trkpt>
      <trkpt lat="44.83331" lon="6.14254">
        <ele>1323.8</ele>
        <time>2024-08-13T10:21:11Z</time>
      </trkpt>
      <trkpt lat="44.83331" lon="6.14254">
        <ele>1323.8</ele>
        <time>2024-08-13T10:21:12Z</time>
      </trkpt>
      <trkpt lat="44.83331" lon="6.14254">
        <ele>1323.6</ele>
        <time>2024-08-13T10:21:13Z</time>
      </trkpt>
      <trkpt lat="44.83331" lon="6.14254">
        <ele>1323.8</ele>
        <time>2024-08-13T10:21:14Z</time>
      </trkpt>
      <trkpt lat="44.83331" lon="6.14254">
        <ele>1323.8</ele>
        <time>2024-08-13T10:21:15Z</time>
      </trkpt>
      <trkpt lat="44.83331" lon="6.14254">
        <ele>1324</ele>
        <time>2024-08-13T10:21:16Z</time>
      </trkpt>
      <trkpt lat="44.83331" lon="6.14254">
        <ele>1324</ele>
        <time>2024-08-13T10:21:17Z</time>
      </trkpt>
      <trkpt lat="44.83331" lon="6.14254">
        <ele>1324.2</ele>
        <time>2024-08-13T10:21:18Z</time>
      </trkpt>
      <trkpt lat="44.83331" lon="6.14254">
        <ele>1324.2</ele>
        <time>2024-08-13T10:21:19Z</time>
      </trkpt>
      <trkpt lat="44.83331" lon="6.14254">
        <ele>1324</ele>
        <time>2024-08-13T10:21:20Z</time>
      </trkpt>
      <trkpt lat="44.83331" lon="6.14254">
        <ele>1323.6</ele>
        <time>2024-08-13T10:21:21Z</time>
      </trkpt>
      <trkpt lat="44.83331" lon="6.14254">
        <ele>1323.6</ele>
        <time>2024-08-13T10:21:22Z</time>
      </trkpt>
      <trkpt lat="44.83331" lon="6.14254">
        <ele>1323.6</ele>
        <time>2024-08-13T10:21:23Z</time>
      </trkpt>
      <trkpt lat="44.83331" lon="6.14254">
        <ele>1323.2</ele>
        <time>2024-08-13T10:21:24Z</time>
      </trkpt>
      <trkpt lat="44.83331" lon="6.14254">
        <ele>1323.2</ele>
        <time>2024-08-13T10:21:25Z</time>
      </trkpt>
      <trkpt lat="44.83331" lon="6.14254">
        <ele>1323.2</ele>
        <time>2024-08-13T10:21:26Z</time>
      </trkpt>
      <trkpt lat="44.83331" lon="6.14254">
        <ele>1323.2</ele>
        <time>2024-08-13T10:21:27Z</time>
      </trkpt>
      <trkpt lat="44.83331" lon="6.14254">
        <ele>1323.2</ele>
        <time>2024-08-13T10:21:28Z</time>
      </trkpt>
      <trkpt lat="44.83331" lon="6.14254">
        <ele>1323</ele>
        <time>2024-08-13T10:21:29Z</time>
      </trkpt>
      <trkpt lat="44.83331" lon="6.14254">
        <ele>1323</ele>
        <time>2024-08-13T10:21:30Z</time>
      </trkpt>
      <trkpt lat="44.83331" lon="6.14254">
        <ele>1323</ele>
        <time>2024-08-13T10:21:31Z</time>
      </trkpt>
      <trkpt lat="44.83331" lon="6.14254">
        <ele>1323</ele>
        <time>2024-08-13T10:21:32Z</time>
      </trkpt>
      <trkpt lat="44.83331" lon="6.14254">
        <ele>1323.2</ele>
        <time>2024-08-13T10:21:33Z</time>
      </trkpt>
      <trkpt lat="44.83331" lon="6.14254">
        <ele>1323.2</ele>
        <time>2024-08-13T10:21:34Z</time>
      </trkpt>
      <trkpt lat="44.83331" lon="6.14251">
        <ele>1323.2</ele>
        <time>2024-08-13T10:21:35Z</time>
      </trkpt>
      <trkpt lat="44.83331" lon="6.14251">
        <ele>1322.8</ele>
        <time>2024-08-13T10:21:36Z</time>
      </trkpt>
      <trkpt lat="44.83332" lon="6.14247">
        <ele>1322.8</ele>
        <time>2024-08-13T10:21:37Z</time>
      </trkpt>
      <trkpt lat="44.83333" lon="6.14245">
        <ele>1322.8</ele>
        <time>2024-08-13T10:21:38Z</time>
      </trkpt>
      <trkpt lat="44.83333" lon="6.14245">
        <ele>1322.8</ele>
        <time>2024-08-13T10:21:39Z</time>
      </trkpt>
      <trkpt lat="44.83333" lon="6.14242">
        <ele>1322.8</ele>
        <time>2024-08-13T10:21:40Z</time>
      </trkpt>
      <trkpt lat="44.83333" lon="6.14242">
        <ele>1322.6</ele>
        <time>2024-08-13T10:21:41Z</time>
      </trkpt>
      <trkpt lat="44.83333" lon="6.14239">
        <ele>1322.4</ele>
        <time>2024-08-13T10:21:42Z</time>
      </trkpt>
      <trkpt lat="44.83333" lon="6.14239">
        <ele>1322.4</ele>
        <time>2024-08-13T10:21:43Z</time>
      </trkpt>
      <trkpt lat="44.83333" lon="6.14236">
        <ele>1322.2</ele>
        <time>2024-08-13T10:21:44Z</time>
      </trkpt>
      <trkpt lat="44.83333" lon="6.14236">
        <ele>1322.2</ele>
        <time>2024-08-13T10:21:45Z</time>
      </trkpt>
      <trkpt lat="44.83333" lon="6.14234">
        <ele>1322.2</ele>
        <time>2024-08-13T10:21:46Z</time>
      </trkpt>
      <trkpt lat="44.83333" lon="6.14234">
        <ele>1322.4</ele>
        <time>2024-08-13T10:21:47Z</time>
      </trkpt>
      <trkpt lat="44.83333" lon="6.14234">
        <ele>1322.4</ele>
        <time>2024-08-13T10:21:48Z</time>
      </trkpt>
      <trkpt lat="44.83334" lon="6.14231">
        <ele>1322.8</ele>
        <time>2024-08-13T10:21:49Z</time>
      </trkpt>
      <trkpt lat="44.83334" lon="6.14231">
        <ele>1323.2</ele>
        <time>2024-08-13T10:21:50Z</time>
      </trkpt>
      <trkpt lat="44.83334" lon="6.14231">
        <ele>1323.2</ele>
        <time>2024-08-13T10:21:51Z</time>
      </trkpt>
      <trkpt lat="44.83333" lon="6.14229">
        <ele>1323.2</ele>
        <time>2024-08-13T10:21:52Z</time>
      </trkpt>
      <trkpt lat="44.83333" lon="6.14229">
        <ele>1323.4</ele>
        <time>2024-08-13T10:21:53Z</time>
      </trkpt>
      <trkpt lat="44.83333" lon="6.14229">
        <ele>1323.4</ele>
        <time>2024-08-13T10:21:54Z</time>
      </trkpt>
      <trkpt lat="44.83333" lon="6.14229">
        <ele>1323.4</ele>
        <time>2024-08-13T10:21:55Z</time>
      </trkpt>
      <trkpt lat="44.83332" lon="6.14227">
        <ele>1323</ele>
        <time>2024-08-13T10:21:56Z</time>
      </trkpt>
      <trkpt lat="44.83332" lon="6.14227">
        <ele>1322.8</ele>
        <time>2024-08-13T10:21:57Z</time>
      </trkpt>
      <trkpt lat="44.83332" lon="6.14227">
        <ele>1322.6</ele>
        <time>2024-08-13T10:21:58Z</time>
      </trkpt>
      <trkpt lat="44.8333" lon="6.14225">
        <ele>1322.4</ele>
        <time>2024-08-13T10:21:59Z</time>
      </trkpt>
      <trkpt lat="44.8333" lon="6.14225">
        <ele>1321.8</ele>
        <time>2024-08-13T10:22:00Z</time>
      </trkpt>
      <trkpt lat="44.8333" lon="6.14225">
        <ele>1321.4</ele>
        <time>2024-08-13T10:22:01Z</time>
      </trkpt>
      <trkpt lat="44.83329" lon="6.14222">
        <ele>1321.2</ele>
        <time>2024-08-13T10:22:02Z</time>
      </trkpt>
      <trkpt lat="44.83329" lon="6.14222">
        <ele>1321.2</ele>
        <time>2024-08-13T10:22:03Z</time>
      </trkpt>
      <trkpt lat="44.83329" lon="6.14222">
        <ele>1321.2</ele>
        <time>2024-08-13T10:22:04Z</time>
      </trkpt>
      <trkpt lat="44.83329" lon="6.14222">
        <ele>1321.4</ele>
        <time>2024-08-13T10:22:05Z</time>
      </trkpt>
      <trkpt lat="44.83329" lon="6.14222">
        <ele>1321.8</ele>
        <time>2024-08-13T10:22:06Z</time>
      </trkpt>
      <trkpt lat="44.83329" lon="6.14218">
        <ele>1322.2</ele>
        <time>2024-08-13T10:22:07Z</time>
      </trkpt>
      <trkpt lat="44.83329" lon="6.14218">
        <ele>1322.6</ele>
        <time>2024-08-13T10:22:08Z</time>
      </trkpt>
      <trkpt lat="44.83329" lon="6.14218">
        <ele>1322.6</ele>
        <time>2024-08-13T10:22:09Z</time>
      </trkpt>
      <trkpt lat="44.83327" lon="6.14216">
        <ele>1322.8</ele>
        <time>2024-08-13T10:22:10Z</time>
      </trkpt>
      <trkpt lat="44.83327" lon="6.14216">
        <ele>1322.8</ele>
        <time>2024-08-13T10:22:11Z</time>
      </trkpt>
      <trkpt lat="44.83327" lon="6.14216">
        <ele>1323</ele>
        <time>2024-08-13T10:22:12Z</time>
      </trkpt>
      <trkpt lat="44.83327" lon="6.14216">
        <ele>1323</ele>
        <time>2024-08-13T10:22:13Z</time>
      </trkpt>
      <trkpt lat="44.83326" lon="6.14213">
        <ele>1323.4</ele>
        <time>2024-08-13T10:22:14Z</time>
      </trkpt>
      <trkpt lat="44.83326" lon="6.14213">
        <ele>1323.6</ele>
        <time>2024-08-13T10:22:15Z</time>
      </trkpt>
      <trkpt lat="44.83326" lon="6.14213">
        <ele>1323.6</ele>
        <time>2024-08-13T10:22:16Z</time>
      </trkpt>
      <trkpt lat="44.83326" lon="6.14213">
        <ele>1323.6</ele>
        <time>2024-08-13T10:22:17Z</time>
      </trkpt>
      <trkpt lat="44.83326" lon="6.14213">
        <ele>1323.6</ele>
        <time>2024-08-13T10:22:18Z</time>
      </trkpt>
      <trkpt lat="44.83326" lon="6.14213">
        <ele>1324.2</ele>
        <time>2024-08-13T10:22:19Z</time>
      </trkpt>
      <trkpt lat="44.83326" lon="6.1421">
        <ele>1324.2</ele>
        <time>2024-08-13T10:22:20Z</time>
      </trkpt>
      <trkpt lat="44.83326" lon="6.1421">
        <ele>1324.6</ele>
        <time>2024-08-13T10:22:21Z</time>
      </trkpt>
      <trkpt lat="44.83326" lon="6.1421">
        <ele>1324.6</ele>
        <time>2024-08-13T10:22:22Z</time>
      </trkpt>
      <trkpt lat="44.83327" lon="6.14208">
        <ele>1324.6</ele>
        <time>2024-08-13T10:22:23Z</time>
      </trkpt>
      <trkpt lat="44.83327" lon="6.14208">
        <ele>1324.6</ele>
        <time>2024-08-13T10:22:24Z</time>
      </trkpt>
      <trkpt lat="44.83327" lon="6.14208">
        <ele>1325.2</ele>
        <time>2024-08-13T10:22:25Z</time>
      </trkpt>
      <trkpt lat="44.83327" lon="6.14208">
        <ele>1325.2</ele>
        <time>2024-08-13T10:22:26Z</time>
      </trkpt>
      <trkpt lat="44.83327" lon="6.14208">
        <ele>1325.4</ele>
        <time>2024-08-13T10:22:27Z</time>
      </trkpt>
      <trkpt lat="44.83327" lon="6.14208">
        <ele>1325.8</ele>
        <time>2024-08-13T10:22:28Z</time>
      </trkpt>
      <trkpt lat="44.83327" lon="6.14208">
        <ele>1326.4</ele>
        <time>2024-08-13T10:22:29Z</time>
      </trkpt>
      <trkpt lat="44.83327" lon="6.14208">
        <ele>1326.4</ele>
        <time>2024-08-13T10:22:30Z</time>
      </trkpt>
      <trkpt lat="44.83327" lon="6.14208">
        <ele>1326.2</ele>
        <time>2024-08-13T10:22:31Z</time>
      </trkpt>
      <trkpt lat="44.83327" lon="6.14208">
        <ele>1326.2</ele>
        <time>2024-08-13T10:22:32Z</time>
      </trkpt>
      <trkpt lat="44.83327" lon="6.14208">
        <ele>1326</ele>
        <time>2024-08-13T10:22:33Z</time>
      </trkpt>
      <trkpt lat="44.83327" lon="6.14208">
        <ele>1326</ele>
        <time>2024-08-13T10:22:34Z</time>
      </trkpt>
      <trkpt lat="44.83327" lon="6.14208">
        <ele>1326</ele>
        <time>2024-08-13T10:22:35Z</time>
      </trkpt>
      <trkpt lat="44.83327" lon="6.14208">
        <ele>1325.8</ele>
        <time>2024-08-13T10:22:36Z</time>
      </trkpt>
      <trkpt lat="44.83327" lon="6.14208">
        <ele>1326</ele>
        <time>2024-08-13T10:22:37Z</time>
      </trkpt>
      <trkpt lat="44.83327" lon="6.14208">
        <ele>1326</ele>
        <time>2024-08-13T10:22:38Z</time>
      </trkpt>
      <trkpt lat="44.83327" lon="6.14208">
        <ele>1326.4</ele>
        <time>2024-08-13T10:22:39Z</time>
      </trkpt>
      <trkpt lat="44.83327" lon="6.14208">
        <ele>1326.4</ele>
        <time>2024-08-13T10:22:40Z</time>
      </trkpt>
      <trkpt lat="44.83327" lon="6.14208">
        <ele>1326.8</ele>
        <time>2024-08-13T10:22:41Z</time>
      </trkpt>
      <trkpt lat="44.83327" lon="6.14208">
        <ele>1327</ele>
        <time>2024-08-13T10:22:42Z</time>
      </trkpt>
      <trkpt lat="44.83329" lon="6.14205">
        <ele>1327.4</ele>
        <time>2024-08-13T10:22:43Z</time>
      </trkpt>
      <trkpt lat="44.83329" lon="6.14205">
        <ele>1327.4</ele>
        <time>2024-08-13T10:22:44Z</time>
      </trkpt>
      <trkpt lat="44.8333" lon="6.14203">
        <ele>1327.6</ele>
        <time>2024-08-13T10:22:45Z</time>
      </trkpt>
      <trkpt lat="44.8333" lon="6.14203">
        <ele>1328</ele>
        <time>2024-08-13T10:22:46Z</time>
      </trkpt>
      <trkpt lat="44.8333" lon="6.14203">
        <ele>1328</ele>
        <time>2024-08-13T10:22:47Z</time>
      </trkpt>
      <trkpt lat="44.83331" lon="6.142">
        <ele>1328</ele>
        <time>2024-08-13T10:22:48Z</time>
      </trkpt>
      <trkpt lat="44.83331" lon="6.142">
        <ele>1328</ele>
        <time>2024-08-13T10:22:49Z</time>
      </trkpt>
      <trkpt lat="44.83331" lon="6.142">
        <ele>1328.6</ele>
        <time>2024-08-13T10:22:50Z</time>
      </trkpt>
      <trkpt lat="44.83333" lon="6.14198">
        <ele>1328.6</ele>
        <time>2024-08-13T10:22:51Z</time>
      </trkpt>
      <trkpt lat="44.83333" lon="6.14198">
        <ele>1329</ele>
        <time>2024-08-13T10:22:52Z</time>
      </trkpt>
      <trkpt lat="44.83333" lon="6.14198">
        <ele>1329</ele>
        <time>2024-08-13T10:22:53Z</time>
      </trkpt>
      <trkpt lat="44.83333" lon="6.14198">
        <ele>1329.2</ele>
        <time>2024-08-13T10:22:54Z</time>
      </trkpt>
      <trkpt lat="44.83334" lon="6.14196">
        <ele>1329.2</ele>
        <time>2024-08-13T10:22:55Z</time>
      </trkpt>
      <trkpt lat="44.83334" lon="6.14196">
        <ele>1329.4</ele>
        <time>2024-08-13T10:22:56Z</time>
      </trkpt>
      <trkpt lat="44.83334" lon="6.14196">
        <ele>1329.6</ele>
        <time>2024-08-13T10:22:57Z</time>
      </trkpt>
      <trkpt lat="44.83334" lon="6.14196">
        <ele>1329.8</ele>
        <time>2024-08-13T10:22:58Z</time>
      </trkpt>
      <trkpt lat="44.83335" lon="6.14194">
        <ele>1330</ele>
        <time>2024-08-13T10:22:59Z</time>
      </trkpt>
      <trkpt lat="44.83335" lon="6.14194">
        <ele>1330</ele>
        <time>2024-08-13T10:23:00Z</time>
      </trkpt>
      <trkpt lat="44.83335" lon="6.14194">
        <ele>1330</ele>
        <time>2024-08-13T10:23:01Z</time>
      </trkpt>
      <trkpt lat="44.83336" lon="6.14191">
        <ele>1330</ele>
        <time>2024-08-13T10:23:02Z</time>
      </trkpt>
      <trkpt lat="44.83336" lon="6.14191">
        <ele>1330</ele>
        <time>2024-08-13T10:23:03Z</time>
      </trkpt>
      <trkpt lat="44.83336" lon="6.14191">
        <ele>1330.2</ele>
        <time>2024-08-13T10:23:04Z</time>
      </trkpt>
      <trkpt lat="44.83336" lon="6.14191">
        <ele>1330.4</ele>
        <time>2024-08-13T10:23:05Z</time>
      </trkpt>
      <trkpt lat="44.83338" lon="6.14193">
        <ele>1330.6</ele>
        <time>2024-08-13T10:23:06Z</time>
      </trkpt>
      <trkpt lat="44.83338" lon="6.14193">
        <ele>1330.8</ele>
        <time>2024-08-13T10:23:07Z</time>
      </trkpt>
      <trkpt lat="44.83338" lon="6.14193">
        <ele>1330.8</ele>
        <time>2024-08-13T10:23:08Z</time>
      </trkpt>
      <trkpt lat="44.83339" lon="6.14196">
        <ele>1330.8</ele>
        <time>2024-08-13T10:23:09Z</time>
      </trkpt>
      <trkpt lat="44.83339" lon="6.14196">
        <ele>1330.8</ele>
        <time>2024-08-13T10:23:10Z</time>
      </trkpt>
      <trkpt lat="44.83339" lon="6.14196">
        <ele>1331.6</ele>
        <time>2024-08-13T10:23:11Z</time>
      </trkpt>
      <trkpt lat="44.83339" lon="6.14196">
        <ele>1331.8</ele>
        <time>2024-08-13T10:23:12Z</time>
      </trkpt>
      <trkpt lat="44.83339" lon="6.14196">
        <ele>1332</ele>
        <time>2024-08-13T10:23:13Z</time>
      </trkpt>
      <trkpt lat="44.83339" lon="6.14196">
        <ele>1332</ele>
        <time>2024-08-13T10:23:14Z</time>
      </trkpt>
      <trkpt lat="44.83339" lon="6.14196">
        <ele>1332.2</ele>
        <time>2024-08-13T10:23:15Z</time>
      </trkpt>
      <trkpt lat="44.83339" lon="6.14196">
        <ele>1332.2</ele>
        <time>2024-08-13T10:23:16Z</time>
      </trkpt>
      <trkpt lat="44.83339" lon="6.14196">
        <ele>1332.2</ele>
        <time>2024-08-13T10:23:17Z</time>
      </trkpt>
      <trkpt lat="44.83339" lon="6.14196">
        <ele>1332.4</ele>
        <time>2024-08-13T10:23:18Z</time>
      </trkpt>
      <trkpt lat="44.8334" lon="6.14199">
        <ele>1332.4</ele>
        <time>2024-08-13T10:23:19Z</time>
      </trkpt>
      <trkpt lat="44.8334" lon="6.14199">
        <ele>1332.6</ele>
        <time>2024-08-13T10:23:20Z</time>
      </trkpt>
      <trkpt lat="44.8334" lon="6.14199">
        <ele>1332.8</ele>
        <time>2024-08-13T10:23:21Z</time>
      </trkpt>
      <trkpt lat="44.83341" lon="6.14202">
        <ele>1333</ele>
        <time>2024-08-13T10:23:22Z</time>
      </trkpt>
      <trkpt lat="44.83341" lon="6.14202">
        <ele>1333.4</ele>
        <time>2024-08-13T10:23:23Z</time>
      </trkpt>
      <trkpt lat="44.83342" lon="6.14205">
        <ele>1333.6</ele>
        <time>2024-08-13T10:23:24Z</time>
      </trkpt>
      <trkpt lat="44.83342" lon="6.14205">
        <ele>1333.6</ele>
        <time>2024-08-13T10:23:25Z</time>
      </trkpt>
      <trkpt lat="44.83342" lon="6.14205">
        <ele>1333.6</ele>
        <time>2024-08-13T10:23:26Z</time>
      </trkpt>
      <trkpt lat="44.83342" lon="6.14207">
        <ele>1334</ele>
        <time>2024-08-13T10:23:27Z</time>
      </trkpt>
      <trkpt lat="44.83342" lon="6.14207">
        <ele>1334</ele>
        <time>2024-08-13T10:23:28Z</time>
      </trkpt>
      <trkpt lat="44.83342" lon="6.14207">
        <ele>1334.2</ele>
        <time>2024-08-13T10:23:29Z</time>
      </trkpt>
      <trkpt lat="44.83342" lon="6.14207">
        <ele>1334.2</ele>
        <time>2024-08-13T10:23:30Z</time>
      </trkpt>
      <trkpt lat="44.83342" lon="6.14207">
        <ele>1334.2</ele>
        <time>2024-08-13T10:23:31Z</time>
      </trkpt>
      <trkpt lat="44.83342" lon="6.14207">
        <ele>1334</ele>
        <time>2024-08-13T10:23:32Z</time>
      </trkpt>
      <trkpt lat="44.83342" lon="6.14207">
        <ele>1334</ele>
        <time>2024-08-13T10:23:33Z</time>
      </trkpt>
      <trkpt lat="44.83344" lon="6.14206">
        <ele>1334.2</ele>
        <time>2024-08-13T10:23:34Z</time>
      </trkpt>
      <trkpt lat="44.83344" lon="6.14206">
        <ele>1335</ele>
        <time>2024-08-13T10:23:35Z</time>
      </trkpt>
      <trkpt lat="44.83344" lon="6.14206">
        <ele>1335</ele>
        <time>2024-08-13T10:23:36Z</time>
      </trkpt>
      <trkpt lat="44.83344" lon="6.14206">
        <ele>1335</ele>
        <time>2024-08-13T10:23:37Z</time>
      </trkpt>
      <trkpt lat="44.83344" lon="6.14206">
        <ele>1335</ele>
        <time>2024-08-13T10:23:38Z</time>
      </trkpt>
      <trkpt lat="44.83344" lon="6.14206">
        <ele>1335.2</ele>
        <time>2024-08-13T10:23:39Z</time>
      </trkpt>
      <trkpt lat="44.83344" lon="6.14206">
        <ele>1335.2</ele>
        <time>2024-08-13T10:23:40Z</time>
      </trkpt>
      <trkpt lat="44.83344" lon="6.14206">
        <ele>1335.4</ele>
        <time>2024-08-13T10:23:41Z</time>
      </trkpt>
      <trkpt lat="44.83344" lon="6.14206">
        <ele>1336</ele>
        <time>2024-08-13T10:23:42Z</time>
      </trkpt>
      <trkpt lat="44.83344" lon="6.14206">
        <ele>1336.2</ele>
        <time>2024-08-13T10:23:43Z</time>
      </trkpt>
      <trkpt lat="44.83344" lon="6.14206">
        <ele>1336.4</ele>
        <time>2024-08-13T10:23:44Z</time>
      </trkpt>
      <trkpt lat="44.83344" lon="6.14206">
        <ele>1336.4</ele>
        <time>2024-08-13T10:23:45Z</time>
      </trkpt>
      <trkpt lat="44.83344" lon="6.14206">
        <ele>1336.6</ele>
        <time>2024-08-13T10:23:46Z</time>
      </trkpt>
      <trkpt lat="44.83346" lon="6.14205">
        <ele>1336.8</ele>
        <time>2024-08-13T10:23:47Z</time>
      </trkpt>
      <trkpt lat="44.83346" lon="6.14205">
        <ele>1336.8</ele>
        <time>2024-08-13T10:23:48Z</time>
      </trkpt>
      <trkpt lat="44.83346" lon="6.14205">
        <ele>1336.8</ele>
        <time>2024-08-13T10:23:49Z</time>
      </trkpt>
      <trkpt lat="44.83349" lon="6.14205">
        <ele>1337.2</ele>
        <time>2024-08-13T10:23:50Z</time>
      </trkpt>
      <trkpt lat="44.83349" lon="6.14205">
        <ele>1337.2</ele>
        <time>2024-08-13T10:23:51Z</time>
      </trkpt>
      <trkpt lat="44.83349" lon="6.14205">
        <ele>1337.4</ele>
        <time>2024-08-13T10:23:52Z</time>
      </trkpt>
      <trkpt lat="44.83349" lon="6.14205">
        <ele>1337.4</ele>
        <time>2024-08-13T10:23:53Z</time>
      </trkpt>
      <trkpt lat="44.8335" lon="6.14204">
        <ele>1338</ele>
        <time>2024-08-13T10:23:54Z</time>
      </trkpt>
      <trkpt lat="44.8335" lon="6.14204">
        <ele>1338</ele>
        <time>2024-08-13T10:23:55Z</time>
      </trkpt>
      <trkpt lat="44.8335" lon="6.14204">
        <ele>1338</ele>
        <time>2024-08-13T10:23:56Z</time>
      </trkpt>
      <trkpt lat="44.8335" lon="6.14204">
        <ele>1338</ele>
        <time>2024-08-13T10:23:57Z</time>
      </trkpt>
      <trkpt lat="44.8335" lon="6.14204">
        <ele>1338.6</ele>
        <time>2024-08-13T10:23:58Z</time>
      </trkpt>
      <trkpt lat="44.8335" lon="6.14204">
        <ele>1338.6</ele>
        <time>2024-08-13T10:23:59Z</time>
      </trkpt>
      <trkpt lat="44.8335" lon="6.14204">
        <ele>1339</ele>
        <time>2024-08-13T10:24:00Z</time>
      </trkpt>
      <trkpt lat="44.8335" lon="6.14204">
        <ele>1339.2</ele>
        <time>2024-08-13T10:24:01Z</time>
      </trkpt>
      <trkpt lat="44.8335" lon="6.14204">
        <ele>1339.8</ele>
        <time>2024-08-13T10:24:02Z</time>
      </trkpt>
      <trkpt lat="44.8335" lon="6.14204">
        <ele>1339.8</ele>
        <time>2024-08-13T10:24:03Z</time>
      </trkpt>
      <trkpt lat="44.8335" lon="6.14204">
        <ele>1340.2</ele>
        <time>2024-08-13T10:24:04Z</time>
      </trkpt>
      <trkpt lat="44.83352" lon="6.14202">
        <ele>1340.2</ele>
        <time>2024-08-13T10:24:05Z</time>
      </trkpt>
      <trkpt lat="44.83352" lon="6.14202">
        <ele>1340.4</ele>
        <time>2024-08-13T10:24:06Z</time>
      </trkpt>
      <trkpt lat="44.83352" lon="6.14202">
        <ele>1340.8</ele>
        <time>2024-08-13T10:24:07Z</time>
      </trkpt>
      <trkpt lat="44.83354" lon="6.14199">
        <ele>1341</ele>
        <time>2024-08-13T10:24:08Z</time>
      </trkpt>
      <trkpt lat="44.83354" lon="6.14199">
        <ele>1341</ele>
        <time>2024-08-13T10:24:09Z</time>
      </trkpt>
      <trkpt lat="44.83354" lon="6.14196">
        <ele>1341</ele>
        <time>2024-08-13T10:24:10Z</time>
      </trkpt>
      <trkpt lat="44.83354" lon="6.14196">
        <ele>1340.6</ele>
        <time>2024-08-13T10:24:11Z</time>
      </trkpt>
      <trkpt lat="44.83354" lon="6.14193">
        <ele>1340.4</ele>
        <time>2024-08-13T10:24:12Z</time>
      </trkpt>
      <trkpt lat="44.83354" lon="6.14193">
        <ele>1340.2</ele>
        <time>2024-08-13T10:24:13Z</time>
      </trkpt>
      <trkpt lat="44.83355" lon="6.14189">
        <ele>1340</ele>
        <time>2024-08-13T10:24:14Z</time>
      </trkpt>
      <trkpt lat="44.83355" lon="6.14189">
        <ele>1339.6</ele>
        <time>2024-08-13T10:24:15Z</time>
      </trkpt>
      <trkpt lat="44.83357" lon="6.14187">
        <ele>1339.6</ele>
        <time>2024-08-13T10:24:16Z</time>
      </trkpt>
      <trkpt lat="44.83357" lon="6.14187">
        <ele>1339.6</ele>
        <time>2024-08-13T10:24:17Z</time>
      </trkpt>
      <trkpt lat="44.83358" lon="6.14185">
        <ele>1339.6</ele>
        <time>2024-08-13T10:24:18Z</time>
      </trkpt>
      <trkpt lat="44.83358" lon="6.14185">
        <ele>1339.8</ele>
        <time>2024-08-13T10:24:19Z</time>
      </trkpt>
      <trkpt lat="44.8336" lon="6.14184">
        <ele>1339.8</ele>
        <time>2024-08-13T10:24:20Z</time>
      </trkpt>
      <trkpt lat="44.8336" lon="6.14184">
        <ele>1339.4</ele>
        <time>2024-08-13T10:24:21Z</time>
      </trkpt>
      <trkpt lat="44.8336" lon="6.14184">
        <ele>1339.4</ele>
        <time>2024-08-13T10:24:22Z</time>
      </trkpt>
      <trkpt lat="44.83361" lon="6.1418">
        <ele>1338.8</ele>
        <time>2024-08-13T10:24:23Z</time>
      </trkpt>
      <trkpt lat="44.83361" lon="6.1418">
        <ele>1338.6</ele>
        <time>2024-08-13T10:24:24Z</time>
      </trkpt>
      <trkpt lat="44.83363" lon="6.14178">
        <ele>1338.4</ele>
        <time>2024-08-13T10:24:25Z</time>
      </trkpt>
      <trkpt lat="44.83363" lon="6.14178">
        <ele>1338</ele>
        <time>2024-08-13T10:24:26Z</time>
      </trkpt>
      <trkpt lat="44.83365" lon="6.14176">
        <ele>1337.8</ele>
        <time>2024-08-13T10:24:27Z</time>
      </trkpt>
      <trkpt lat="44.83365" lon="6.14176">
        <ele>1337.6</ele>
        <time>2024-08-13T10:24:28Z</time>
      </trkpt>
      <trkpt lat="44.83367" lon="6.14175">
        <ele>1337.4</ele>
        <time>2024-08-13T10:24:29Z</time>
      </trkpt>
      <trkpt lat="44.83367" lon="6.14175">
        <ele>1337.4</ele>
        <time>2024-08-13T10:24:30Z</time>
      </trkpt>
      <trkpt lat="44.83369" lon="6.14173">
        <ele>1337.4</ele>
        <time>2024-08-13T10:24:31Z</time>
      </trkpt>
      <trkpt lat="44.83369" lon="6.14173">
        <ele>1337.4</ele>
        <time>2024-08-13T10:24:32Z</time>
      </trkpt>
      <trkpt lat="44.83371" lon="6.14171">
        <ele>1337.2</ele>
        <time>2024-08-13T10:24:33Z</time>
      </trkpt>
      <trkpt lat="44.83371" lon="6.14171">
        <ele>1336.8</ele>
        <time>2024-08-13T10:24:34Z</time>
      </trkpt>
      <trkpt lat="44.83372" lon="6.14168">
        <ele>1336.6</ele>
        <time>2024-08-13T10:24:35Z</time>
      </trkpt>
      <trkpt lat="44.83372" lon="6.14168">
        <ele>1336.6</ele>
        <time>2024-08-13T10:24:36Z</time>
      </trkpt>
      <trkpt lat="44.83374" lon="6.14166">
        <ele>1336.6</ele>
        <time>2024-08-13T10:24:37Z</time>
      </trkpt>
      <trkpt lat="44.83374" lon="6.14166">
        <ele>1336.8</ele>
        <time>2024-08-13T10:24:38Z</time>
      </trkpt>
      <trkpt lat="44.83374" lon="6.14166">
        <ele>1336.8</ele>
        <time>2024-08-13T10:24:39Z</time>
      </trkpt>
      <trkpt lat="44.83375" lon="6.14163">
        <ele>1336.4</ele>
        <time>2024-08-13T10:24:40Z</time>
      </trkpt>
      <trkpt lat="44.83375" lon="6.14163">
        <ele>1336.4</ele>
        <time>2024-08-13T10:24:41Z</time>
      </trkpt>
      <trkpt lat="44.83375" lon="6.14163">
        <ele>1336.4</ele>
        <time>2024-08-13T10:24:42Z</time>
      </trkpt>
      <trkpt lat="44.83377" lon="6.1416">
        <ele>1336</ele>
        <time>2024-08-13T10:24:43Z</time>
      </trkpt>
      <trkpt lat="44.83377" lon="6.1416">
        <ele>1335.8</ele>
        <time>2024-08-13T10:24:44Z</time>
      </trkpt>
      <trkpt lat="44.83378" lon="6.14158">
        <ele>1335.8</ele>
        <time>2024-08-13T10:24:45Z</time>
      </trkpt>
      <trkpt lat="44.83378" lon="6.14158">
        <ele>1335.4</ele>
        <time>2024-08-13T10:24:46Z</time>
      </trkpt>
      <trkpt lat="44.8338" lon="6.14156">
        <ele>1335.2</ele>
        <time>2024-08-13T10:24:47Z</time>
      </trkpt>
      <trkpt lat="44.8338" lon="6.14156">
        <ele>1334.8</ele>
        <time>2024-08-13T10:24:48Z</time>
      </trkpt>
      <trkpt lat="44.8338" lon="6.14156">
        <ele>1334.6</ele>
        <time>2024-08-13T10:24:49Z</time>
      </trkpt>
      <trkpt lat="44.83381" lon="6.14153">
        <ele>1334.6</ele>
        <time>2024-08-13T10:24:50Z</time>
      </trkpt>
      <trkpt lat="44.83381" lon="6.14153">
        <ele>1334.6</ele>
        <time>2024-08-13T10:24:51Z</time>
      </trkpt>
      <trkpt lat="44.83381" lon="6.14153">
        <ele>1334.2</ele>
        <time>2024-08-13T10:24:52Z</time>
      </trkpt>
      <trkpt lat="44.83382" lon="6.1415">
        <ele>1334</ele>
        <time>2024-08-13T10:24:53Z</time>
      </trkpt>
      <trkpt lat="44.83382" lon="6.1415">
        <ele>1333.6</ele>
        <time>2024-08-13T10:24:54Z</time>
      </trkpt>
      <trkpt lat="44.83383" lon="6.14147">
        <ele>1333.4</ele>
        <time>2024-08-13T10:24:55Z</time>
      </trkpt>
      <trkpt lat="44.83383" lon="6.14147">
        <ele>1333</ele>
        <time>2024-08-13T10:24:56Z</time>
      </trkpt>
      <trkpt lat="44.83384" lon="6.14144">
        <ele>1333</ele>
        <time>2024-08-13T10:24:57Z</time>
      </trkpt>
      <trkpt lat="44.83384" lon="6.14144">
        <ele>1332.6</ele>
        <time>2024-08-13T10:24:58Z</time>
      </trkpt>
      <trkpt lat="44.83386" lon="6.14142">
        <ele>1332.2</ele>
        <time>2024-08-13T10:24:59Z</time>
      </trkpt>
      <trkpt lat="44.83386" lon="6.14142">
        <ele>1331.8</ele>
        <time>2024-08-13T10:25:00Z</time>
      </trkpt>
      <trkpt lat="44.83387" lon="6.14139">
        <ele>1331.4</ele>
        <time>2024-08-13T10:25:01Z</time>
      </trkpt>
      <trkpt lat="44.83387" lon="6.14139">
        <ele>1331.2</ele>
        <time>2024-08-13T10:25:02Z</time>
      </trkpt>
      <trkpt lat="44.83388" lon="6.14138">
        <ele>1331.2</ele>
        <time>2024-08-13T10:25:03Z</time>
      </trkpt>
      <trkpt lat="44.83388" lon="6.14138">
        <ele>1331</ele>
        <time>2024-08-13T10:25:04Z</time>
      </trkpt>
      <trkpt lat="44.8339" lon="6.14136">
        <ele>1331</ele>
        <time>2024-08-13T10:25:05Z</time>
      </trkpt>
      <trkpt lat="44.8339" lon="6.14136">
        <ele>1331</ele>
        <time>2024-08-13T10:25:06Z</time>
      </trkpt>
      <trkpt lat="44.83391" lon="6.14134">
        <ele>1330.6</ele>
        <time>2024-08-13T10:25:07Z</time>
      </trkpt>
      <trkpt lat="44.83391" lon="6.14134">
        <ele>1330.6</ele>
        <time>2024-08-13T10:25:08Z</time>
      </trkpt>
      <trkpt lat="44.83391" lon="6.14134">
        <ele>1330.4</ele>
        <time>2024-08-13T10:25:09Z</time>
      </trkpt>
      <trkpt lat="44.83394" lon="6.14132">
        <ele>1330</ele>
        <time>2024-08-13T10:25:10Z</time>
      </trkpt>
      <trkpt lat="44.83394" lon="6.14132">
        <ele>1330</ele>
        <time>2024-08-13T10:25:11Z</time>
      </trkpt>
      <trkpt lat="44.83396" lon="6.14131">
        <ele>1329.6</ele>
        <time>2024-08-13T10:25:12Z</time>
      </trkpt>
      <trkpt lat="44.83396" lon="6.14131">
        <ele>1329.4</ele>
        <time>2024-08-13T10:25:13Z</time>
      </trkpt>
      <trkpt lat="44.83398" lon="6.14131">
        <ele>1329.2</ele>
        <time>2024-08-13T10:25:14Z</time>
      </trkpt>
      <trkpt lat="44.83398" lon="6.14131">
        <ele>1329.2</ele>
        <time>2024-08-13T10:25:15Z</time>
      </trkpt>
      <trkpt lat="44.83401" lon="6.1413">
        <ele>1329.2</ele>
        <time>2024-08-13T10:25:16Z</time>
      </trkpt>
      <trkpt lat="44.83401" lon="6.1413">
        <ele>1328.8</ele>
        <time>2024-08-13T10:25:17Z</time>
      </trkpt>
      <trkpt lat="44.83404" lon="6.14129">
        <ele>1328.6</ele>
        <time>2024-08-13T10:25:18Z</time>
      </trkpt>
      <trkpt lat="44.83404" lon="6.14129">
        <ele>1328.2</ele>
        <time>2024-08-13T10:25:19Z</time>
      </trkpt>
      <trkpt lat="44.83405" lon="6.14128">
        <ele>1327.8</ele>
        <time>2024-08-13T10:25:20Z</time>
      </trkpt>
      <trkpt lat="44.83405" lon="6.14128">
        <ele>1327.8</ele>
        <time>2024-08-13T10:25:21Z</time>
      </trkpt>
      <trkpt lat="44.83408" lon="6.14127">
        <ele>1327.8</ele>
        <time>2024-08-13T10:25:22Z</time>
      </trkpt>
      <trkpt lat="44.83408" lon="6.14127">
        <ele>1327.8</ele>
        <time>2024-08-13T10:25:23Z</time>
      </trkpt>
      <trkpt lat="44.83409" lon="6.14125">
        <ele>1327.4</ele>
        <time>2024-08-13T10:25:24Z</time>
      </trkpt>
      <trkpt lat="44.83409" lon="6.14125">
        <ele>1327.4</ele>
        <time>2024-08-13T10:25:25Z</time>
      </trkpt>
      <trkpt lat="44.8341" lon="6.14123">
        <ele>1327.4</ele>
        <time>2024-08-13T10:25:26Z</time>
      </trkpt>
      <trkpt lat="44.8341" lon="6.14123">
        <ele>1327.8</ele>
        <time>2024-08-13T10:25:27Z</time>
      </trkpt>
      <trkpt lat="44.8341" lon="6.14123">
        <ele>1327.8</ele>
        <time>2024-08-13T10:25:28Z</time>
      </trkpt>
      <trkpt lat="44.83412" lon="6.14122">
        <ele>1328.2</ele>
        <time>2024-08-13T10:25:29Z</time>
      </trkpt>
      <trkpt lat="44.83412" lon="6.14122">
        <ele>1328.2</ele>
        <time>2024-08-13T10:25:30Z</time>
      </trkpt>
      <trkpt lat="44.83412" lon="6.14122">
        <ele>1328.4</ele>
        <time>2024-08-13T10:25:31Z</time>
      </trkpt>
      <trkpt lat="44.83415" lon="6.14121">
        <ele>1328.4</ele>
        <time>2024-08-13T10:25:32Z</time>
      </trkpt>
      <trkpt lat="44.83415" lon="6.14121">
        <ele>1328.6</ele>
        <time>2024-08-13T10:25:33Z</time>
      </trkpt>
      <trkpt lat="44.83415" lon="6.14121">
        <ele>1329</ele>
        <time>2024-08-13T10:25:34Z</time>
      </trkpt>
      <trkpt lat="44.83415" lon="6.14121">
        <ele>1329.2</ele>
        <time>2024-08-13T10:25:35Z</time>
      </trkpt>
      <trkpt lat="44.83417" lon="6.1412">
        <ele>1329.2</ele>
        <time>2024-08-13T10:25:36Z</time>
      </trkpt>
      <trkpt lat="44.83417" lon="6.1412">
        <ele>1329.2</ele>
        <time>2024-08-13T10:25:37Z</time>
      </trkpt>
      <trkpt lat="44.83419" lon="6.14119">
        <ele>1329.4</ele>
        <time>2024-08-13T10:25:38Z</time>
      </trkpt>
      <trkpt lat="44.83419" lon="6.14119">
        <ele>1329.6</ele>
        <time>2024-08-13T10:25:39Z</time>
      </trkpt>
      <trkpt lat="44.83419" lon="6.14119">
        <ele>1329.8</ele>
        <time>2024-08-13T10:25:40Z</time>
      </trkpt>
      <trkpt lat="44.83421" lon="6.14118">
        <ele>1330.2</ele>
        <time>2024-08-13T10:25:41Z</time>
      </trkpt>
      <trkpt lat="44.83421" lon="6.14118">
        <ele>1330.4</ele>
        <time>2024-08-13T10:25:42Z</time>
      </trkpt>
      <trkpt lat="44.83422" lon="6.14117">
        <ele>1330.8</ele>
        <time>2024-08-13T10:25:43Z</time>
      </trkpt>
      <trkpt lat="44.83422" lon="6.14117">
        <ele>1330.8</ele>
        <time>2024-08-13T10:25:44Z</time>
      </trkpt>
      <trkpt lat="44.83424" lon="6.14115">
        <ele>1330.8</ele>
        <time>2024-08-13T10:25:45Z</time>
      </trkpt>
      <trkpt lat="44.83424" lon="6.14115">
        <ele>1330.8</ele>
        <time>2024-08-13T10:25:46Z</time>
      </trkpt>
      <trkpt lat="44.83426" lon="6.14114">
        <ele>1331</ele>
        <time>2024-08-13T10:25:47Z</time>
      </trkpt>
      <trkpt lat="44.83426" lon="6.14114">
        <ele>1331.2</ele>
        <time>2024-08-13T10:25:48Z</time>
      </trkpt>
      <trkpt lat="44.83428" lon="6.14112">
        <ele>1331.2</ele>
        <time>2024-08-13T10:25:49Z</time>
      </trkpt>
      <trkpt lat="44.83428" lon="6.14112">
        <ele>1331.2</ele>
        <time>2024-08-13T10:25:50Z</time>
      </trkpt>
      <trkpt lat="44.83428" lon="6.14112">
        <ele>1331.2</ele>
        <time>2024-08-13T10:25:51Z</time>
      </trkpt>
      <trkpt lat="44.8343" lon="6.14109">
        <ele>1331.4</ele>
        <time>2024-08-13T10:25:52Z</time>
      </trkpt>
      <trkpt lat="44.8343" lon="6.14109">
        <ele>1331.4</ele>
        <time>2024-08-13T10:25:53Z</time>
      </trkpt>
      <trkpt lat="44.8343" lon="6.14109">
        <ele>1331.4</ele>
        <time>2024-08-13T10:25:54Z</time>
      </trkpt>
      <trkpt lat="44.83432" lon="6.14107">
        <ele>1331.4</ele>
        <time>2024-08-13T10:25:55Z</time>
      </trkpt>
      <trkpt lat="44.83432" lon="6.14107">
        <ele>1331.6</ele>
        <time>2024-08-13T10:25:56Z</time>
      </trkpt>
      <trkpt lat="44.83433" lon="6.14105">
        <ele>1331.8</ele>
        <time>2024-08-13T10:25:57Z</time>
      </trkpt>
      <trkpt lat="44.83433" lon="6.14105">
        <ele>1331.8</ele>
        <time>2024-08-13T10:25:58Z</time>
      </trkpt>
      <trkpt lat="44.83433" lon="6.14105">
        <ele>1332</ele>
        <time>2024-08-13T10:25:59Z</time>
      </trkpt>
      <trkpt lat="44.83436" lon="6.14103">
        <ele>1332</ele>
        <time>2024-08-13T10:26:00Z</time>
      </trkpt>
      <trkpt lat="44.83436" lon="6.14103">
        <ele>1332</ele>
        <time>2024-08-13T10:26:01Z</time>
      </trkpt>
      <trkpt lat="44.83436" lon="6.14103">
        <ele>1332</ele>
        <time>2024-08-13T10:26:02Z</time>
      </trkpt>
      <trkpt lat="44.83437" lon="6.14101">
        <ele>1332</ele>
        <time>2024-08-13T10:26:03Z</time>
      </trkpt>
      <trkpt lat="44.83437" lon="6.14101">
        <ele>1332</ele>
        <time>2024-08-13T10:26:04Z</time>
      </trkpt>
      <trkpt lat="44.83437" lon="6.14101">
        <ele>1332.4</ele>
        <time>2024-08-13T10:26:05Z</time>
      </trkpt>
      <trkpt lat="44.83439" lon="6.14099">
        <ele>1332.6</ele>
        <time>2024-08-13T10:26:06Z</time>
      </trkpt>
      <trkpt lat="44.83439" lon="6.14099">
        <ele>1333</ele>
        <time>2024-08-13T10:26:07Z</time>
      </trkpt>
      <trkpt lat="44.83441" lon="6.14098">
        <ele>1333</ele>
        <time>2024-08-13T10:26:08Z</time>
      </trkpt>
      <trkpt lat="44.83441" lon="6.14098">
        <ele>1333</ele>
        <time>2024-08-13T10:26:09Z</time>
      </trkpt>
      <trkpt lat="44.83441" lon="6.14098">
        <ele>1333</ele>
        <time>2024-08-13T10:26:10Z</time>
      </trkpt>
      <trkpt lat="44.83444" lon="6.14097">
        <ele>1333</ele>
        <time>2024-08-13T10:26:11Z</time>
      </trkpt>
      <trkpt lat="44.83444" lon="6.14097">
        <ele>1333.4</ele>
        <time>2024-08-13T10:26:12Z</time>
      </trkpt>
      <trkpt lat="44.83446" lon="6.14095">
        <ele>1333.8</ele>
        <time>2024-08-13T10:26:13Z</time>
      </trkpt>
      <trkpt lat="44.83446" lon="6.14095">
        <ele>1333.8</ele>
        <time>2024-08-13T10:26:14Z</time>
      </trkpt>
      <trkpt lat="44.83448" lon="6.14095">
        <ele>1333.8</ele>
        <time>2024-08-13T10:26:15Z</time>
      </trkpt>
      <trkpt lat="44.83448" lon="6.14095">
        <ele>1333.8</ele>
        <time>2024-08-13T10:26:16Z</time>
      </trkpt>
      <trkpt lat="44.8345" lon="6.14095">
        <ele>1333.8</ele>
        <time>2024-08-13T10:26:17Z</time>
      </trkpt>
      <trkpt lat="44.8345" lon="6.14095">
        <ele>1334.2</ele>
        <time>2024-08-13T10:26:18Z</time>
      </trkpt>
      <trkpt lat="44.8345" lon="6.14095">
        <ele>1334.4</ele>
        <time>2024-08-13T10:26:19Z</time>
      </trkpt>
      <trkpt lat="44.83452" lon="6.14095">
        <ele>1334.6</ele>
        <time>2024-08-13T10:26:20Z</time>
      </trkpt>
      <trkpt lat="44.83452" lon="6.14095">
        <ele>1334.6</ele>
        <time>2024-08-13T10:26:21Z</time>
      </trkpt>
      <trkpt lat="44.83452" lon="6.14095">
        <ele>1334.6</ele>
        <time>2024-08-13T10:26:22Z</time>
      </trkpt>
      <trkpt lat="44.83454" lon="6.14096">
        <ele>1334.6</ele>
        <time>2024-08-13T10:26:23Z</time>
      </trkpt>
      <trkpt lat="44.83454" lon="6.14096">
        <ele>1334.6</ele>
        <time>2024-08-13T10:26:24Z</time>
      </trkpt>
      <trkpt lat="44.83454" lon="6.14096">
        <ele>1334.8</ele>
        <time>2024-08-13T10:26:25Z</time>
      </trkpt>
      <trkpt lat="44.83454" lon="6.14096">
        <ele>1335</ele>
        <time>2024-08-13T10:26:26Z</time>
      </trkpt>
      <trkpt lat="44.83454" lon="6.14096">
        <ele>1335.4</ele>
        <time>2024-08-13T10:26:27Z</time>
      </trkpt>
      <trkpt lat="44.83454" lon="6.14096">
        <ele>1335.4</ele>
        <time>2024-08-13T10:26:28Z</time>
      </trkpt>
      <trkpt lat="44.83454" lon="6.14096">
        <ele>1335.4</ele>
        <time>2024-08-13T10:26:29Z</time>
      </trkpt>
      <trkpt lat="44.83454" lon="6.14096">
        <ele>1335.6</ele>
        <time>2024-08-13T10:26:30Z</time>
      </trkpt>
      <trkpt lat="44.83454" lon="6.14096">
        <ele>1335.6</ele>
        <time>2024-08-13T10:26:31Z</time>
      </trkpt>
      <trkpt lat="44.83454" lon="6.14096">
        <ele>1335.6</ele>
        <time>2024-08-13T10:26:32Z</time>
      </trkpt>
      <trkpt lat="44.83454" lon="6.14096">
        <ele>1335.6</ele>
        <time>2024-08-13T10:26:33Z</time>
      </trkpt>
      <trkpt lat="44.83454" lon="6.14096">
        <ele>1335.6</ele>
        <time>2024-08-13T10:26:34Z</time>
      </trkpt>
      <trkpt lat="44.83454" lon="6.14096">
        <ele>1335.6</ele>
        <time>2024-08-13T10:26:35Z</time>
      </trkpt>
      <trkpt lat="44.83454" lon="6.14096">
        <ele>1335.8</ele>
        <time>2024-08-13T10:26:36Z</time>
      </trkpt>
      <trkpt lat="44.83456" lon="6.14096">
        <ele>1336</ele>
        <time>2024-08-13T10:26:37Z</time>
      </trkpt>
      <trkpt lat="44.83456" lon="6.14096">
        <ele>1336</ele>
        <time>2024-08-13T10:26:38Z</time>
      </trkpt>
      <trkpt lat="44.83458" lon="6.14095">
        <ele>1336</ele>
        <time>2024-08-13T10:26:39Z</time>
      </trkpt>
      <trkpt lat="44.83458" lon="6.14095">
        <ele>1336.4</ele>
        <time>2024-08-13T10:26:40Z</time>
      </trkpt>
      <trkpt lat="44.8346" lon="6.14094">
        <ele>1336.4</ele>
        <time>2024-08-13T10:26:41Z</time>
      </trkpt>
      <trkpt lat="44.8346" lon="6.14094">
        <ele>1336.4</ele>
        <time>2024-08-13T10:26:42Z</time>
      </trkpt>
      <trkpt lat="44.83462" lon="6.14091">
        <ele>1336.4</ele>
        <time>2024-08-13T10:26:43Z</time>
      </trkpt>
      <trkpt lat="44.83462" lon="6.14091">
        <ele>1336.4</ele>
        <time>2024-08-13T10:26:44Z</time>
      </trkpt>
      <trkpt lat="44.83463" lon="6.1409">
        <ele>1336.6</ele>
        <time>2024-08-13T10:26:45Z</time>
      </trkpt>
      <trkpt lat="44.83463" lon="6.1409">
        <ele>1336.8</ele>
        <time>2024-08-13T10:26:46Z</time>
      </trkpt>
      <trkpt lat="44.83465" lon="6.14088">
        <ele>1337.2</ele>
        <time>2024-08-13T10:26:47Z</time>
      </trkpt>
      <trkpt lat="44.83465" lon="6.14088">
        <ele>1337.4</ele>
        <time>2024-08-13T10:26:48Z</time>
      </trkpt>
      <trkpt lat="44.83466" lon="6.14085">
        <ele>1337.4</ele>
        <time>2024-08-13T10:26:49Z</time>
      </trkpt>
      <trkpt lat="44.83466" lon="6.14085">
        <ele>1337.2</ele>
        <time>2024-08-13T10:26:50Z</time>
      </trkpt>
      <trkpt lat="44.83467" lon="6.14083">
        <ele>1337.2</ele>
        <time>2024-08-13T10:26:51Z</time>
      </trkpt>
      <trkpt lat="44.83467" lon="6.14083">
        <ele>1337.2</ele>
        <time>2024-08-13T10:26:52Z</time>
      </trkpt>
      <trkpt lat="44.83467" lon="6.14083">
        <ele>1337.2</ele>
        <time>2024-08-13T10:26:53Z</time>
      </trkpt>
      <trkpt lat="44.83469" lon="6.1408">
        <ele>1337.2</ele>
        <time>2024-08-13T10:26:54Z</time>
      </trkpt>
      <trkpt lat="44.83469" lon="6.1408">
        <ele>1337.2</ele>
        <time>2024-08-13T10:26:55Z</time>
      </trkpt>
      <trkpt lat="44.83469" lon="6.1408">
        <ele>1337.4</ele>
        <time>2024-08-13T10:26:56Z</time>
      </trkpt>
      <trkpt lat="44.83471" lon="6.14077">
        <ele>1337.4</ele>
        <time>2024-08-13T10:26:57Z</time>
      </trkpt>
      <trkpt lat="44.83471" lon="6.14077">
        <ele>1337.6</ele>
        <time>2024-08-13T10:26:58Z</time>
      </trkpt>
      <trkpt lat="44.83471" lon="6.14077">
        <ele>1337.8</ele>
        <time>2024-08-13T10:26:59Z</time>
      </trkpt>
      <trkpt lat="44.83473" lon="6.14076">
        <ele>1337.8</ele>
        <time>2024-08-13T10:27:00Z</time>
      </trkpt>
      <trkpt lat="44.83473" lon="6.14076">
        <ele>1338</ele>
        <time>2024-08-13T10:27:01Z</time>
      </trkpt>
      <trkpt lat="44.83475" lon="6.14074">
        <ele>1338.2</ele>
        <time>2024-08-13T10:27:02Z</time>
      </trkpt>
      <trkpt lat="44.83475" lon="6.14074">
        <ele>1338.2</ele>
        <time>2024-08-13T10:27:03Z</time>
      </trkpt>
      <trkpt lat="44.83475" lon="6.14074">
        <ele>1338.4</ele>
        <time>2024-08-13T10:27:04Z</time>
      </trkpt>
      <trkpt lat="44.83477" lon="6.14071">
        <ele>1338.6</ele>
        <time>2024-08-13T10:27:05Z</time>
      </trkpt>
      <trkpt lat="44.83477" lon="6.14071">
        <ele>1338.8</ele>
        <time>2024-08-13T10:27:06Z</time>
      </trkpt>
      <trkpt lat="44.83477" lon="6.14071">
        <ele>1338.8</ele>
        <time>2024-08-13T10:27:07Z</time>
      </trkpt>
      <trkpt lat="44.83478" lon="6.14069">
        <ele>1338.8</ele>
        <time>2024-08-13T10:27:08Z</time>
      </trkpt>
      <trkpt lat="44.83478" lon="6.14069">
        <ele>1339</ele>
        <time>2024-08-13T10:27:09Z</time>
      </trkpt>
      <trkpt lat="44.83478" lon="6.14069">
        <ele>1339.6</ele>
        <time>2024-08-13T10:27:10Z</time>
      </trkpt>
      <trkpt lat="44.83478" lon="6.14069">
        <ele>1339.6</ele>
        <time>2024-08-13T10:27:11Z</time>
      </trkpt>
      <trkpt lat="44.83478" lon="6.14069">
        <ele>1339.6</ele>
        <time>2024-08-13T10:27:12Z</time>
      </trkpt>
      <trkpt lat="44.83478" lon="6.14069">
        <ele>1339.6</ele>
        <time>2024-08-13T10:27:13Z</time>
      </trkpt>
      <trkpt lat="44.83478" lon="6.14069">
        <ele>1339.6</ele>
        <time>2024-08-13T10:27:14Z</time>
      </trkpt>
      <trkpt lat="44.83477" lon="6.14065">
        <ele>1339.2</ele>
        <time>2024-08-13T10:27:15Z</time>
      </trkpt>
      <trkpt lat="44.83477" lon="6.14065">
        <ele>1339.2</ele>
        <time>2024-08-13T10:27:16Z</time>
      </trkpt>
      <trkpt lat="44.83477" lon="6.14062">
        <ele>1339.8</ele>
        <time>2024-08-13T10:27:17Z</time>
      </trkpt>
      <trkpt lat="44.83477" lon="6.14062">
        <ele>1340</ele>
        <time>2024-08-13T10:27:18Z</time>
      </trkpt>
      <trkpt lat="44.83477" lon="6.1406">
        <ele>1340</ele>
        <time>2024-08-13T10:27:19Z</time>
      </trkpt>
      <trkpt lat="44.83477" lon="6.1406">
        <ele>1340.2</ele>
        <time>2024-08-13T10:27:20Z</time>
      </trkpt>
      <trkpt lat="44.83477" lon="6.1406">
        <ele>1340.2</ele>
        <time>2024-08-13T10:27:21Z</time>
      </trkpt>
      <trkpt lat="44.83478" lon="6.14056">
        <ele>1340.2</ele>
        <time>2024-08-13T10:27:22Z</time>
      </trkpt>
      <trkpt lat="44.83478" lon="6.14056">
        <ele>1340.6</ele>
        <time>2024-08-13T10:27:23Z</time>
      </trkpt>
      <trkpt lat="44.83479" lon="6.14054">
        <ele>1340.6</ele>
        <time>2024-08-13T10:27:24Z</time>
      </trkpt>
      <trkpt lat="44.83479" lon="6.14054">
        <ele>1341.2</ele>
        <time>2024-08-13T10:27:25Z</time>
      </trkpt>
      <trkpt lat="44.83481" lon="6.14052">
        <ele>1341.6</ele>
        <time>2024-08-13T10:27:26Z</time>
      </trkpt>
      <trkpt lat="44.83481" lon="6.14052">
        <ele>1341.6</ele>
        <time>2024-08-13T10:27:27Z</time>
      </trkpt>
      <trkpt lat="44.83483" lon="6.14051">
        <ele>1341.6</ele>
        <time>2024-08-13T10:27:28Z</time>
      </trkpt>
      <trkpt lat="44.83483" lon="6.14051">
        <ele>1341.6</ele>
        <time>2024-08-13T10:27:29Z</time>
      </trkpt>
      <trkpt lat="44.83483" lon="6.14051">
        <ele>1341.8</ele>
        <time>2024-08-13T10:27:30Z</time>
      </trkpt>
      <trkpt lat="44.83485" lon="6.14049">
        <ele>1342</ele>
        <time>2024-08-13T10:27:31Z</time>
      </trkpt>
      <trkpt lat="44.83485" lon="6.14049">
        <ele>1342</ele>
        <time>2024-08-13T10:27:32Z</time>
      </trkpt>
      <trkpt lat="44.83487" lon="6.14049">
        <ele>1342</ele>
        <time>2024-08-13T10:27:33Z</time>
      </trkpt>
      <trkpt lat="44.83487" lon="6.14049">
        <ele>1342</ele>
        <time>2024-08-13T10:27:34Z</time>
      </trkpt>
      <trkpt lat="44.83489" lon="6.14049">
        <ele>1342</ele>
        <time>2024-08-13T10:27:35Z</time>
      </trkpt>
      <trkpt lat="44.83489" lon="6.14049">
        <ele>1342.6</ele>
        <time>2024-08-13T10:27:36Z</time>
      </trkpt>
      <trkpt lat="44.83489" lon="6.14049">
        <ele>1342.6</ele>
        <time>2024-08-13T10:27:37Z</time>
      </trkpt>
      <trkpt lat="44.83488" lon="6.14052">
        <ele>1342.6</ele>
        <time>2024-08-13T10:27:38Z</time>
      </trkpt>
      <trkpt lat="44.83488" lon="6.14052">
        <ele>1342.8</ele>
        <time>2024-08-13T10:27:39Z</time>
      </trkpt>
      <trkpt lat="44.83488" lon="6.14052">
        <ele>1343.2</ele>
        <time>2024-08-13T10:27:40Z</time>
      </trkpt>
      <trkpt lat="44.83487" lon="6.14055">
        <ele>1343.2</ele>
        <time>2024-08-13T10:27:41Z</time>
      </trkpt>
      <trkpt lat="44.83487" lon="6.14055">
        <ele>1343.2</ele>
        <time>2024-08-13T10:27:42Z</time>
      </trkpt>
      <trkpt lat="44.83487" lon="6.14055">
        <ele>1343.4</ele>
        <time>2024-08-13T10:27:43Z</time>
      </trkpt>
      <trkpt lat="44.83487" lon="6.14055">
        <ele>1343.4</ele>
        <time>2024-08-13T10:27:44Z</time>
      </trkpt>
      <trkpt lat="44.83487" lon="6.14058">
        <ele>1343.4</ele>
        <time>2024-08-13T10:27:45Z</time>
      </trkpt>
      <trkpt lat="44.83487" lon="6.14058">
        <ele>1343.8</ele>
        <time>2024-08-13T10:27:46Z</time>
      </trkpt>
      <trkpt lat="44.83487" lon="6.14058">
        <ele>1344</ele>
        <time>2024-08-13T10:27:47Z</time>
      </trkpt>
      <trkpt lat="44.83487" lon="6.14058">
        <ele>1344</ele>
        <time>2024-08-13T10:27:48Z</time>
      </trkpt>
      <trkpt lat="44.83487" lon="6.14058">
        <ele>1344.2</ele>
        <time>2024-08-13T10:27:49Z</time>
      </trkpt>
      <trkpt lat="44.83487" lon="6.14058">
        <ele>1344.6</ele>
        <time>2024-08-13T10:27:50Z</time>
      </trkpt>
      <trkpt lat="44.83487" lon="6.14061">
        <ele>1344.6</ele>
        <time>2024-08-13T10:27:51Z</time>
      </trkpt>
      <trkpt lat="44.83487" lon="6.14061">
        <ele>1344.8</ele>
        <time>2024-08-13T10:27:52Z</time>
      </trkpt>
      <trkpt lat="44.83488" lon="6.14063">
        <ele>1344.8</ele>
        <time>2024-08-13T10:27:53Z</time>
      </trkpt>
      <trkpt lat="44.83488" lon="6.14063">
        <ele>1344.8</ele>
        <time>2024-08-13T10:27:54Z</time>
      </trkpt>
      <trkpt lat="44.83488" lon="6.14063">
        <ele>1345</ele>
        <time>2024-08-13T10:27:55Z</time>
      </trkpt>
      <trkpt lat="44.83489" lon="6.14066">
        <ele>1345.2</ele>
        <time>2024-08-13T10:27:56Z</time>
      </trkpt>
      <trkpt lat="44.83489" lon="6.14066">
        <ele>1345.2</ele>
        <time>2024-08-13T10:27:57Z</time>
      </trkpt>
      <trkpt lat="44.83489" lon="6.14066">
        <ele>1345.8</ele>
        <time>2024-08-13T10:27:58Z</time>
      </trkpt>
      <trkpt lat="44.8349" lon="6.14069">
        <ele>1346</ele>
        <time>2024-08-13T10:27:59Z</time>
      </trkpt>
      <trkpt lat="44.8349" lon="6.14069">
        <ele>1346.2</ele>
        <time>2024-08-13T10:28:00Z</time>
      </trkpt>
      <trkpt lat="44.8349" lon="6.14072">
        <ele>1346.4</ele>
        <time>2024-08-13T10:28:01Z</time>
      </trkpt>
      <trkpt lat="44.8349" lon="6.14072">
        <ele>1346.6</ele>
        <time>2024-08-13T10:28:02Z</time>
      </trkpt>
      <trkpt lat="44.8349" lon="6.14075">
        <ele>1346.6</ele>
        <time>2024-08-13T10:28:03Z</time>
      </trkpt>
      <trkpt lat="44.8349" lon="6.14075">
        <ele>1346.8</ele>
        <time>2024-08-13T10:28:04Z</time>
      </trkpt>
      <trkpt lat="44.8349" lon="6.14075">
        <ele>1347</ele>
        <time>2024-08-13T10:28:05Z</time>
      </trkpt>
      <trkpt lat="44.8349" lon="6.14077">
        <ele>1347.2</ele>
        <time>2024-08-13T10:28:06Z</time>
      </trkpt>
      <trkpt lat="44.8349" lon="6.14077">
        <ele>1347.2</ele>
        <time>2024-08-13T10:28:07Z</time>
      </trkpt>
      <trkpt lat="44.8349" lon="6.14077">
        <ele>1347.2</ele>
        <time>2024-08-13T10:28:08Z</time>
      </trkpt>
      <trkpt lat="44.8349" lon="6.14077">
        <ele>1347.2</ele>
        <time>2024-08-13T10:28:09Z</time>
      </trkpt>
      <trkpt lat="44.8349" lon="6.14077">
        <ele>1347.4</ele>
        <time>2024-08-13T10:28:10Z</time>
      </trkpt>
      <trkpt lat="44.8349" lon="6.14077">
        <ele>1347.4</ele>
        <time>2024-08-13T10:28:11Z</time>
      </trkpt>
      <trkpt lat="44.8349" lon="6.14077">
        <ele>1348</ele>
        <time>2024-08-13T10:28:12Z</time>
      </trkpt>
      <trkpt lat="44.83492" lon="6.14075">
        <ele>1348.6</ele>
        <time>2024-08-13T10:28:13Z</time>
      </trkpt>
      <trkpt lat="44.83492" lon="6.14075">
        <ele>1348.6</ele>
        <time>2024-08-13T10:28:14Z</time>
      </trkpt>
      <trkpt lat="44.83492" lon="6.14075">
        <ele>1348.6</ele>
        <time>2024-08-13T10:28:15Z</time>
      </trkpt>
      <trkpt lat="44.83492" lon="6.14075">
        <ele>1349</ele>
        <time>2024-08-13T10:28:16Z</time>
      </trkpt>
      <trkpt lat="44.83492" lon="6.14072">
        <ele>1349</ele>
        <time>2024-08-13T10:28:17Z</time>
      </trkpt>
      <trkpt lat="44.83492" lon="6.14072">
        <ele>1349</ele>
        <time>2024-08-13T10:28:18Z</time>
      </trkpt>
      <trkpt lat="44.83492" lon="6.14072">
        <ele>1349.2</ele>
        <time>2024-08-13T10:28:19Z</time>
      </trkpt>
      <trkpt lat="44.83492" lon="6.14072">
        <ele>1349.2</ele>
        <time>2024-08-13T10:28:20Z</time>
      </trkpt>
      <trkpt lat="44.83492" lon="6.14072">
        <ele>1349.4</ele>
        <time>2024-08-13T10:28:21Z</time>
      </trkpt>
      <trkpt lat="44.83492" lon="6.14072">
        <ele>1349.6</ele>
        <time>2024-08-13T10:28:22Z</time>
      </trkpt>
      <trkpt lat="44.83492" lon="6.14072">
        <ele>1349.8</ele>
        <time>2024-08-13T10:28:23Z</time>
      </trkpt>
      <trkpt lat="44.83492" lon="6.14072">
        <ele>1350</ele>
        <time>2024-08-13T10:28:24Z</time>
      </trkpt>
      <trkpt lat="44.83493" lon="6.1407">
        <ele>1350.2</ele>
        <time>2024-08-13T10:28:25Z</time>
      </trkpt>
      <trkpt lat="44.83493" lon="6.1407">
        <ele>1350.4</ele>
        <time>2024-08-13T10:28:26Z</time>
      </trkpt>
      <trkpt lat="44.83495" lon="6.14068">
        <ele>1350.6</ele>
        <time>2024-08-13T10:28:27Z</time>
      </trkpt>
      <trkpt lat="44.83495" lon="6.14068">
        <ele>1351</ele>
        <time>2024-08-13T10:28:28Z</time>
      </trkpt>
      <trkpt lat="44.83496" lon="6.14065">
        <ele>1351.4</ele>
        <time>2024-08-13T10:28:29Z</time>
      </trkpt>
      <trkpt lat="44.83496" lon="6.14065">
        <ele>1352.4</ele>
        <time>2024-08-13T10:28:30Z</time>
      </trkpt>
      <trkpt lat="44.83498" lon="6.14063">
        <ele>1352.6</ele>
        <time>2024-08-13T10:28:31Z</time>
      </trkpt>
      <trkpt lat="44.83498" lon="6.14063">
        <ele>1353.2</ele>
        <time>2024-08-13T10:28:32Z</time>
      </trkpt>
      <trkpt lat="44.83499" lon="6.14062">
        <ele>1353.2</ele>
        <time>2024-08-13T10:28:33Z</time>
      </trkpt>
      <trkpt lat="44.83499" lon="6.14062">
        <ele>1353.2</ele>
        <time>2024-08-13T10:28:34Z</time>
      </trkpt>
      <trkpt lat="44.83499" lon="6.14062">
        <ele>1353.2</ele>
        <time>2024-08-13T10:28:35Z</time>
      </trkpt>
      <trkpt lat="44.83501" lon="6.14062">
        <ele>1353.2</ele>
        <time>2024-08-13T10:28:36Z</time>
      </trkpt>
      <trkpt lat="44.83501" lon="6.14062">
        <ele>1353.4</ele>
        <time>2024-08-13T10:28:37Z</time>
      </trkpt>
      <trkpt lat="44.83503" lon="6.14061">
        <ele>1353.6</ele>
        <time>2024-08-13T10:28:38Z</time>
      </trkpt>
      <trkpt lat="44.83503" lon="6.14061">
        <ele>1353.8</ele>
        <time>2024-08-13T10:28:39Z</time>
      </trkpt>
      <trkpt lat="44.83503" lon="6.14061">
        <ele>1354</ele>
        <time>2024-08-13T10:28:40Z</time>
      </trkpt>
      <trkpt lat="44.83505" lon="6.14061">
        <ele>1354</ele>
        <time>2024-08-13T10:28:41Z</time>
      </trkpt>
      <trkpt lat="44.83505" lon="6.14061">
        <ele>1354</ele>
        <time>2024-08-13T10:28:42Z</time>
      </trkpt>
      <trkpt lat="44.83505" lon="6.14061">
        <ele>1354</ele>
        <time>2024-08-13T10:28:43Z</time>
      </trkpt>
      <trkpt lat="44.83505" lon="6.14061">
        <ele>1354</ele>
        <time>2024-08-13T10:28:44Z</time>
      </trkpt>
      <trkpt lat="44.83505" lon="6.14061">
        <ele>1354.4</ele>
        <time>2024-08-13T10:28:45Z</time>
      </trkpt>
      <trkpt lat="44.83507" lon="6.14061">
        <ele>1355</ele>
        <time>2024-08-13T10:28:46Z</time>
      </trkpt>
      <trkpt lat="44.83507" lon="6.14061">
        <ele>1355</ele>
        <time>2024-08-13T10:28:47Z</time>
      </trkpt>
      <trkpt lat="44.83507" lon="6.14061">
        <ele>1355</ele>
        <time>2024-08-13T10:28:48Z</time>
      </trkpt>
      <trkpt lat="44.83507" lon="6.14061">
        <ele>1355</ele>
        <time>2024-08-13T10:28:49Z</time>
      </trkpt>
      <trkpt lat="44.83509" lon="6.14059">
        <ele>1355.4</ele>
        <time>2024-08-13T10:28:50Z</time>
      </trkpt>
      <trkpt lat="44.83509" lon="6.14059">
        <ele>1355.6</ele>
        <time>2024-08-13T10:28:51Z</time>
      </trkpt>
      <trkpt lat="44.83509" lon="6.14059">
        <ele>1355.6</ele>
        <time>2024-08-13T10:28:52Z</time>
      </trkpt>
      <trkpt lat="44.83509" lon="6.14059">
        <ele>1356.2</ele>
        <time>2024-08-13T10:28:53Z</time>
      </trkpt>
      <trkpt lat="44.83509" lon="6.14059">
        <ele>1356.2</ele>
        <time>2024-08-13T10:28:54Z</time>
      </trkpt>
      <trkpt lat="44.83509" lon="6.14056">
        <ele>1356.2</ele>
        <time>2024-08-13T10:28:55Z</time>
      </trkpt>
      <trkpt lat="44.83509" lon="6.14056">
        <ele>1356.6</ele>
        <time>2024-08-13T10:28:56Z</time>
      </trkpt>
      <trkpt lat="44.83509" lon="6.14056">
        <ele>1356.6</ele>
        <time>2024-08-13T10:28:57Z</time>
      </trkpt>
      <trkpt lat="44.83509" lon="6.14056">
        <ele>1356.8</ele>
        <time>2024-08-13T10:28:58Z</time>
      </trkpt>
      <trkpt lat="44.83509" lon="6.14056">
        <ele>1356.8</ele>
        <time>2024-08-13T10:28:59Z</time>
      </trkpt>
      <trkpt lat="44.8351" lon="6.14052">
        <ele>1357.2</ele>
        <time>2024-08-13T10:29:00Z</time>
      </trkpt>
      <trkpt lat="44.8351" lon="6.14052">
        <ele>1357.2</ele>
        <time>2024-08-13T10:29:01Z</time>
      </trkpt>
      <trkpt lat="44.8351" lon="6.14052">
        <ele>1357.4</ele>
        <time>2024-08-13T10:29:02Z</time>
      </trkpt>
      <trkpt lat="44.83511" lon="6.14049">
        <ele>1357.4</ele>
        <time>2024-08-13T10:29:03Z</time>
      </trkpt>
      <trkpt lat="44.83511" lon="6.14049">
        <ele>1357.6</ele>
        <time>2024-08-13T10:29:04Z</time>
      </trkpt>
      <trkpt lat="44.83511" lon="6.14049">
        <ele>1357.6</ele>
        <time>2024-08-13T10:29:05Z</time>
      </trkpt>
      <trkpt lat="44.83511" lon="6.14049">
        <ele>1357.8</ele>
        <time>2024-08-13T10:29:06Z</time>
      </trkpt>
      <trkpt lat="44.83512" lon="6.14046">
        <ele>1357.8</ele>
        <time>2024-08-13T10:29:07Z</time>
      </trkpt>
      <trkpt lat="44.83512" lon="6.14046">
        <ele>1357.8</ele>
        <time>2024-08-13T10:29:08Z</time>
      </trkpt>
      <trkpt lat="44.83512" lon="6.14046">
        <ele>1358</ele>
        <time>2024-08-13T10:29:09Z</time>
      </trkpt>
      <trkpt lat="44.83512" lon="6.14046">
        <ele>1358.2</ele>
        <time>2024-08-13T10:29:10Z</time>
      </trkpt>
      <trkpt lat="44.83513" lon="6.14043">
        <ele>1358.6</ele>
        <time>2024-08-13T10:29:11Z</time>
      </trkpt>
      <trkpt lat="44.83513" lon="6.14043">
        <ele>1358.8</ele>
        <time>2024-08-13T10:29:12Z</time>
      </trkpt>
      <trkpt lat="44.83513" lon="6.14043">
        <ele>1358.8</ele>
        <time>2024-08-13T10:29:13Z</time>
      </trkpt>
      <trkpt lat="44.83513" lon="6.14043">
        <ele>1358.8</ele>
        <time>2024-08-13T10:29:14Z</time>
      </trkpt>
      <trkpt lat="44.83514" lon="6.1404">
        <ele>1358.8</ele>
        <time>2024-08-13T10:29:15Z</time>
      </trkpt>
      <trkpt lat="44.83514" lon="6.1404">
        <ele>1358.8</ele>
        <time>2024-08-13T10:29:16Z</time>
      </trkpt>
      <trkpt lat="44.83514" lon="6.1404">
        <ele>1359.2</ele>
        <time>2024-08-13T10:29:17Z</time>
      </trkpt>
      <trkpt lat="44.83515" lon="6.14038">
        <ele>1359.4</ele>
        <time>2024-08-13T10:29:18Z</time>
      </trkpt>
      <trkpt lat="44.83515" lon="6.14038">
        <ele>1359.6</ele>
        <time>2024-08-13T10:29:19Z</time>
      </trkpt>
      <trkpt lat="44.83515" lon="6.14038">
        <ele>1359.6</ele>
        <time>2024-08-13T10:29:20Z</time>
      </trkpt>
      <trkpt lat="44.83515" lon="6.14038">
        <ele>1360.2</ele>
        <time>2024-08-13T10:29:21Z</time>
      </trkpt>
      <trkpt lat="44.83515" lon="6.14038">
        <ele>1360.6</ele>
        <time>2024-08-13T10:29:22Z</time>
      </trkpt>
      <trkpt lat="44.83515" lon="6.14038">
        <ele>1360.8</ele>
        <time>2024-08-13T10:29:23Z</time>
      </trkpt>
      <trkpt lat="44.83517" lon="6.1404">
        <ele>1360.8</ele>
        <time>2024-08-13T10:29:24Z</time>
      </trkpt>
      <trkpt lat="44.83517" lon="6.1404">
        <ele>1361</ele>
        <time>2024-08-13T10:29:25Z</time>
      </trkpt>
      <trkpt lat="44.83517" lon="6.1404">
        <ele>1361.2</ele>
        <time>2024-08-13T10:29:26Z</time>
      </trkpt>
      <trkpt lat="44.83517" lon="6.14043">
        <ele>1361.4</ele>
        <time>2024-08-13T10:29:27Z</time>
      </trkpt>
      <trkpt lat="44.83517" lon="6.14043">
        <ele>1361.4</ele>
        <time>2024-08-13T10:29:28Z</time>
      </trkpt>
      <trkpt lat="44.83517" lon="6.14043">
        <ele>1361.4</ele>
        <time>2024-08-13T10:29:29Z</time>
      </trkpt>
      <trkpt lat="44.83517" lon="6.14043">
        <ele>1361.6</ele>
        <time>2024-08-13T10:29:30Z</time>
      </trkpt>
      <trkpt lat="44.83517" lon="6.14043">
        <ele>1362</ele>
        <time>2024-08-13T10:29:31Z</time>
      </trkpt>
      <trkpt lat="44.83517" lon="6.14043">
        <ele>1362.2</ele>
        <time>2024-08-13T10:29:32Z</time>
      </trkpt>
      <trkpt lat="44.83518" lon="6.14045">
        <ele>1362.4</ele>
        <time>2024-08-13T10:29:33Z</time>
      </trkpt>
      <trkpt lat="44.83518" lon="6.14045">
        <ele>1362.6</ele>
        <time>2024-08-13T10:29:34Z</time>
      </trkpt>
      <trkpt lat="44.83518" lon="6.14045">
        <ele>1363</ele>
        <time>2024-08-13T10:29:35Z</time>
      </trkpt>
      <trkpt lat="44.83518" lon="6.14045">
        <ele>1363</ele>
        <time>2024-08-13T10:29:36Z</time>
      </trkpt>
      <trkpt lat="44.83518" lon="6.14045">
        <ele>1363.6</ele>
        <time>2024-08-13T10:29:37Z</time>
      </trkpt>
      <trkpt lat="44.83518" lon="6.14045">
        <ele>1364</ele>
        <time>2024-08-13T10:29:38Z</time>
      </trkpt>
      <trkpt lat="44.83519" lon="6.14049">
        <ele>1364.2</ele>
        <time>2024-08-13T10:29:39Z</time>
      </trkpt>
      <trkpt lat="44.83519" lon="6.14049">
        <ele>1364.4</ele>
        <time>2024-08-13T10:29:40Z</time>
      </trkpt>
      <trkpt lat="44.83519" lon="6.14053">
        <ele>1364.8</ele>
        <time>2024-08-13T10:29:41Z</time>
      </trkpt>
      <trkpt lat="44.83519" lon="6.14053">
        <ele>1364.8</ele>
        <time>2024-08-13T10:29:42Z</time>
      </trkpt>
      <trkpt lat="44.8352" lon="6.14057">
        <ele>1365.2</ele>
        <time>2024-08-13T10:29:43Z</time>
      </trkpt>
      <trkpt lat="44.8352" lon="6.14057">
        <ele>1365.2</ele>
        <time>2024-08-13T10:29:44Z</time>
      </trkpt>
      <trkpt lat="44.8352" lon="6.14057">
        <ele>1365.6</ele>
        <time>2024-08-13T10:29:45Z</time>
      </trkpt>
      <trkpt lat="44.8352" lon="6.1406">
        <ele>1365.8</ele>
        <time>2024-08-13T10:29:46Z</time>
      </trkpt>
      <trkpt lat="44.8352" lon="6.1406">
        <ele>1366.2</ele>
        <time>2024-08-13T10:29:47Z</time>
      </trkpt>
      <trkpt lat="44.8352" lon="6.1406">
        <ele>1366.2</ele>
        <time>2024-08-13T10:29:48Z</time>
      </trkpt>
      <trkpt lat="44.8352" lon="6.1406">
        <ele>1366.2</ele>
        <time>2024-08-13T10:29:49Z</time>
      </trkpt>
      <trkpt lat="44.8352" lon="6.1406">
        <ele>1366.4</ele>
        <time>2024-08-13T10:29:50Z</time>
      </trkpt>
      <trkpt lat="44.8352" lon="6.1406">
        <ele>1366.4</ele>
        <time>2024-08-13T10:29:51Z</time>
      </trkpt>
      <trkpt lat="44.8352" lon="6.1406">
        <ele>1366.4</ele>
        <time>2024-08-13T10:29:52Z</time>
      </trkpt>
      <trkpt lat="44.8352" lon="6.1406">
        <ele>1366.8</ele>
        <time>2024-08-13T10:29:53Z</time>
      </trkpt>
      <trkpt lat="44.8352" lon="6.1406">
        <ele>1367</ele>
        <time>2024-08-13T10:29:54Z</time>
      </trkpt>
      <trkpt lat="44.8352" lon="6.14057">
        <ele>1367.2</ele>
        <time>2024-08-13T10:29:55Z</time>
      </trkpt>
      <trkpt lat="44.8352" lon="6.14057">
        <ele>1367.8</ele>
        <time>2024-08-13T10:29:56Z</time>
      </trkpt>
      <trkpt lat="44.8352" lon="6.14057">
        <ele>1367.8</ele>
        <time>2024-08-13T10:29:57Z</time>
      </trkpt>
      <trkpt lat="44.83521" lon="6.14055">
        <ele>1368</ele>
        <time>2024-08-13T10:29:58Z</time>
      </trkpt>
      <trkpt lat="44.83521" lon="6.14055">
        <ele>1368</ele>
        <time>2024-08-13T10:29:59Z</time>
      </trkpt>
      <trkpt lat="44.83521" lon="6.14055">
        <ele>1368</ele>
        <time>2024-08-13T10:30:00Z</time>
      </trkpt>
      <trkpt lat="44.83521" lon="6.14055">
        <ele>1368</ele>
        <time>2024-08-13T10:30:01Z</time>
      </trkpt>
      <trkpt lat="44.83521" lon="6.14055">
        <ele>1368.6</ele>
        <time>2024-08-13T10:30:02Z</time>
      </trkpt>
      <trkpt lat="44.83523" lon="6.14052">
        <ele>1368.6</ele>
        <time>2024-08-13T10:30:03Z</time>
      </trkpt>
      <trkpt lat="44.83523" lon="6.14052">
        <ele>1368.8</ele>
        <time>2024-08-13T10:30:04Z</time>
      </trkpt>
      <trkpt lat="44.83523" lon="6.14052">
        <ele>1368.8</ele>
        <time>2024-08-13T10:30:05Z</time>
      </trkpt>
      <trkpt lat="44.83523" lon="6.14052">
        <ele>1369</ele>
        <time>2024-08-13T10:30:06Z</time>
      </trkpt>
      <trkpt lat="44.83524" lon="6.14048">
        <ele>1369</ele>
        <time>2024-08-13T10:30:07Z</time>
      </trkpt>
      <trkpt lat="44.83524" lon="6.14048">
        <ele>1369.2</ele>
        <time>2024-08-13T10:30:08Z</time>
      </trkpt>
      <trkpt lat="44.83525" lon="6.14045">
        <ele>1369.6</ele>
        <time>2024-08-13T10:30:09Z</time>
      </trkpt>
      <trkpt lat="44.83525" lon="6.14045">
        <ele>1369.6</ele>
        <time>2024-08-13T10:30:10Z</time>
      </trkpt>
      <trkpt lat="44.83526" lon="6.14041">
        <ele>1369.6</ele>
        <time>2024-08-13T10:30:11Z</time>
      </trkpt>
      <trkpt lat="44.83526" lon="6.14041">
        <ele>1369.6</ele>
        <time>2024-08-13T10:30:12Z</time>
      </trkpt>
      <trkpt lat="44.83527" lon="6.14039">
        <ele>1370</ele>
        <time>2024-08-13T10:30:13Z</time>
      </trkpt>
      <trkpt lat="44.83527" lon="6.14039">
        <ele>1370</ele>
        <time>2024-08-13T10:30:14Z</time>
      </trkpt>
      <trkpt lat="44.83529" lon="6.14037">
        <ele>1370</ele>
        <time>2024-08-13T10:30:15Z</time>
      </trkpt>
      <trkpt lat="44.83529" lon="6.14037">
        <ele>1370.2</ele>
        <time>2024-08-13T10:30:16Z</time>
      </trkpt>
      <trkpt lat="44.83529" lon="6.14037">
        <ele>1370.4</ele>
        <time>2024-08-13T10:30:17Z</time>
      </trkpt>
      <trkpt lat="44.8353" lon="6.14034">
        <ele>1370.4</ele>
        <time>2024-08-13T10:30:18Z</time>
      </trkpt>
      <trkpt lat="44.8353" lon="6.14034">
        <ele>1370.6</ele>
        <time>2024-08-13T10:30:19Z</time>
      </trkpt>
      <trkpt lat="44.83532" lon="6.14033">
        <ele>1370.8</ele>
        <time>2024-08-13T10:30:20Z</time>
      </trkpt>
      <trkpt lat="44.83532" lon="6.14033">
        <ele>1370.8</ele>
        <time>2024-08-13T10:30:21Z</time>
      </trkpt>
      <trkpt lat="44.83532" lon="6.14033">
        <ele>1370.8</ele>
        <time>2024-08-13T10:30:22Z</time>
      </trkpt>
      <trkpt lat="44.83534" lon="6.14031">
        <ele>1370.8</ele>
        <time>2024-08-13T10:30:23Z</time>
      </trkpt>
      <trkpt lat="44.83534" lon="6.14031">
        <ele>1371.2</ele>
        <time>2024-08-13T10:30:24Z</time>
      </trkpt>
      <trkpt lat="44.83535" lon="6.1403">
        <ele>1371.2</ele>
        <time>2024-08-13T10:30:25Z</time>
      </trkpt>
      <trkpt lat="44.83535" lon="6.1403">
        <ele>1371.4</ele>
        <time>2024-08-13T10:30:26Z</time>
      </trkpt>
      <trkpt lat="44.83538" lon="6.14028">
        <ele>1371.4</ele>
        <time>2024-08-13T10:30:27Z</time>
      </trkpt>
      <trkpt lat="44.83538" lon="6.14028">
        <ele>1371.4</ele>
        <time>2024-08-13T10:30:28Z</time>
      </trkpt>
      <trkpt lat="44.83538" lon="6.14028">
        <ele>1371.8</ele>
        <time>2024-08-13T10:30:29Z</time>
      </trkpt>
      <trkpt lat="44.8354" lon="6.14027">
        <ele>1372</ele>
        <time>2024-08-13T10:30:30Z</time>
      </trkpt>
      <trkpt lat="44.8354" lon="6.14027">
        <ele>1372.4</ele>
        <time>2024-08-13T10:30:31Z</time>
      </trkpt>
      <trkpt lat="44.8354" lon="6.14027">
        <ele>1372.4</ele>
        <time>2024-08-13T10:30:32Z</time>
      </trkpt>
      <trkpt lat="44.83541" lon="6.14025">
        <ele>1372.6</ele>
        <time>2024-08-13T10:30:33Z</time>
      </trkpt>
      <trkpt lat="44.83541" lon="6.14025">
        <ele>1372.6</ele>
        <time>2024-08-13T10:30:34Z</time>
      </trkpt>
      <trkpt lat="44.83541" lon="6.14025">
        <ele>1372.6</ele>
        <time>2024-08-13T10:30:35Z</time>
      </trkpt>
      <trkpt lat="44.83543" lon="6.14024">
        <ele>1373</ele>
        <time>2024-08-13T10:30:36Z</time>
      </trkpt>
      <trkpt lat="44.83543" lon="6.14024">
        <ele>1373.4</ele>
        <time>2024-08-13T10:30:37Z</time>
      </trkpt>
      <trkpt lat="44.83543" lon="6.14024">
        <ele>1373.4</ele>
        <time>2024-08-13T10:30:38Z</time>
      </trkpt>
      <trkpt lat="44.83545" lon="6.14022">
        <ele>1373.4</ele>
        <time>2024-08-13T10:30:39Z</time>
      </trkpt>
      <trkpt lat="44.83545" lon="6.14022">
        <ele>1373.4</ele>
        <time>2024-08-13T10:30:40Z</time>
      </trkpt>
      <trkpt lat="44.83547" lon="6.1402">
        <ele>1373.4</ele>
        <time>2024-08-13T10:30:41Z</time>
      </trkpt>
      <trkpt lat="44.83547" lon="6.1402">
        <ele>1373.4</ele>
        <time>2024-08-13T10:30:42Z</time>
      </trkpt>
      <trkpt lat="44.83547" lon="6.1402">
        <ele>1373.8</ele>
        <time>2024-08-13T10:30:43Z</time>
      </trkpt>
      <trkpt lat="44.83549" lon="6.14018">
        <ele>1373.8</ele>
        <time>2024-08-13T10:30:44Z</time>
      </trkpt>
      <trkpt lat="44.83549" lon="6.14018">
        <ele>1373.8</ele>
        <time>2024-08-13T10:30:45Z</time>
      </trkpt>
      <trkpt lat="44.83549" lon="6.14018">
        <ele>1373.8</ele>
        <time>2024-08-13T10:30:46Z</time>
      </trkpt>
      <trkpt lat="44.83551" lon="6.14016">
        <ele>1374</ele>
        <time>2024-08-13T10:30:47Z</time>
      </trkpt>
      <trkpt lat="44.83551" lon="6.14016">
        <ele>1374.4</ele>
        <time>2024-08-13T10:30:48Z</time>
      </trkpt>
      <trkpt lat="44.83552" lon="6.14015">
        <ele>1374.6</ele>
        <time>2024-08-13T10:30:49Z</time>
      </trkpt>
      <trkpt lat="44.83552" lon="6.14015">
        <ele>1374.8</ele>
        <time>2024-08-13T10:30:50Z</time>
      </trkpt>
      <trkpt lat="44.83552" lon="6.14015">
        <ele>1375</ele>
        <time>2024-08-13T10:30:51Z</time>
      </trkpt>
      <trkpt lat="44.83555" lon="6.14012">
        <ele>1375.6</ele>
        <time>2024-08-13T10:30:52Z</time>
      </trkpt>
      <trkpt lat="44.83555" lon="6.14012">
        <ele>1375.8</ele>
        <time>2024-08-13T10:30:53Z</time>
      </trkpt>
      <trkpt lat="44.83555" lon="6.14012">
        <ele>1375.8</ele>
        <time>2024-08-13T10:30:54Z</time>
      </trkpt>
      <trkpt lat="44.83557" lon="6.1401">
        <ele>1375.8</ele>
        <time>2024-08-13T10:30:55Z</time>
      </trkpt>
      <trkpt lat="44.83557" lon="6.1401">
        <ele>1375.6</ele>
        <time>2024-08-13T10:30:56Z</time>
      </trkpt>
      <trkpt lat="44.83557" lon="6.1401">
        <ele>1375.6</ele>
        <time>2024-08-13T10:30:57Z</time>
      </trkpt>
      <trkpt lat="44.83559" lon="6.14008">
        <ele>1375.6</ele>
        <time>2024-08-13T10:30:58Z</time>
      </trkpt>
      <trkpt lat="44.83559" lon="6.14008">
        <ele>1375.6</ele>
        <time>2024-08-13T10:30:59Z</time>
      </trkpt>
      <trkpt lat="44.8356" lon="6.14007">
        <ele>1375.6</ele>
        <time>2024-08-13T10:31:00Z</time>
      </trkpt>
      <trkpt lat="44.8356" lon="6.14007">
        <ele>1375.8</ele>
        <time>2024-08-13T10:31:01Z</time>
      </trkpt>
      <trkpt lat="44.8356" lon="6.14007">
        <ele>1376.2</ele>
        <time>2024-08-13T10:31:02Z</time>
      </trkpt>
      <trkpt lat="44.83563" lon="6.14005">
        <ele>1376.2</ele>
        <time>2024-08-13T10:31:03Z</time>
      </trkpt>
      <trkpt lat="44.83563" lon="6.14005">
        <ele>1376.6</ele>
        <time>2024-08-13T10:31:04Z</time>
      </trkpt>
      <trkpt lat="44.83563" lon="6.14005">
        <ele>1376.6</ele>
        <time>2024-08-13T10:31:05Z</time>
      </trkpt>
      <trkpt lat="44.83563" lon="6.14005">
        <ele>1377</ele>
        <time>2024-08-13T10:31:06Z</time>
      </trkpt>
      <trkpt lat="44.83565" lon="6.14003">
        <ele>1377.2</ele>
        <time>2024-08-13T10:31:07Z</time>
      </trkpt>
      <trkpt lat="44.83565" lon="6.14003">
        <ele>1377.2</ele>
        <time>2024-08-13T10:31:08Z</time>
      </trkpt>
      <trkpt lat="44.83565" lon="6.14003">
        <ele>1377.2</ele>
        <time>2024-08-13T10:31:09Z</time>
      </trkpt>
      <trkpt lat="44.83566" lon="6.14">
        <ele>1377.2</ele>
        <time>2024-08-13T10:31:10Z</time>
      </trkpt>
      <trkpt lat="44.83566" lon="6.14">
        <ele>1377.6</ele>
        <time>2024-08-13T10:31:11Z</time>
      </trkpt>
      <trkpt lat="44.83566" lon="6.14">
        <ele>1378</ele>
        <time>2024-08-13T10:31:12Z</time>
      </trkpt>
      <trkpt lat="44.83568" lon="6.13998">
        <ele>1378.2</ele>
        <time>2024-08-13T10:31:13Z</time>
      </trkpt>
      <trkpt lat="44.83568" lon="6.13998">
        <ele>1378.2</ele>
        <time>2024-08-13T10:31:14Z</time>
      </trkpt>
      <trkpt lat="44.83568" lon="6.13998">
        <ele>1378.4</ele>
        <time>2024-08-13T10:31:15Z</time>
      </trkpt>
      <trkpt lat="44.8357" lon="6.13997">
        <ele>1378.4</ele>
        <time>2024-08-13T10:31:16Z</time>
      </trkpt>
      <trkpt lat="44.8357" lon="6.13997">
        <ele>1378.8</ele>
        <time>2024-08-13T10:31:17Z</time>
      </trkpt>
      <trkpt lat="44.8357" lon="6.13997">
        <ele>1379</ele>
        <time>2024-08-13T10:31:18Z</time>
      </trkpt>
      <trkpt lat="44.83572" lon="6.13994">
        <ele>1379</ele>
        <time>2024-08-13T10:31:19Z</time>
      </trkpt>
      <trkpt lat="44.83572" lon="6.13994">
        <ele>1379.6</ele>
        <time>2024-08-13T10:31:20Z</time>
      </trkpt>
      <trkpt lat="44.83572" lon="6.13994">
        <ele>1379.6</ele>
        <time>2024-08-13T10:31:21Z</time>
      </trkpt>
      <trkpt lat="44.83573" lon="6.13993">
        <ele>1379.8</ele>
        <time>2024-08-13T10:31:22Z</time>
      </trkpt>
      <trkpt lat="44.83573" lon="6.13993">
        <ele>1380.2</ele>
        <time>2024-08-13T10:31:23Z</time>
      </trkpt>
      <trkpt lat="44.83573" lon="6.13993">
        <ele>1380.4</ele>
        <time>2024-08-13T10:31:24Z</time>
      </trkpt>
      <trkpt lat="44.83576" lon="6.1399">
        <ele>1380.4</ele>
        <time>2024-08-13T10:31:25Z</time>
      </trkpt>
      <trkpt lat="44.83576" lon="6.1399">
        <ele>1380.8</ele>
        <time>2024-08-13T10:31:26Z</time>
      </trkpt>
      <trkpt lat="44.83576" lon="6.1399">
        <ele>1381</ele>
        <time>2024-08-13T10:31:27Z</time>
      </trkpt>
      <trkpt lat="44.83578" lon="6.13988">
        <ele>1381</ele>
        <time>2024-08-13T10:31:28Z</time>
      </trkpt>
      <trkpt lat="44.83578" lon="6.13988">
        <ele>1381.2</ele>
        <time>2024-08-13T10:31:29Z</time>
      </trkpt>
      <trkpt lat="44.8358" lon="6.13988">
        <ele>1381.4</ele>
        <time>2024-08-13T10:31:30Z</time>
      </trkpt>
      <trkpt lat="44.8358" lon="6.13988">
        <ele>1382</ele>
        <time>2024-08-13T10:31:31Z</time>
      </trkpt>
      <trkpt lat="44.8358" lon="6.13988">
        <ele>1382.2</ele>
        <time>2024-08-13T10:31:32Z</time>
      </trkpt>
      <trkpt lat="44.83583" lon="6.13988">
        <ele>1382.4</ele>
        <time>2024-08-13T10:31:33Z</time>
      </trkpt>
      <trkpt lat="44.83583" lon="6.13988">
        <ele>1382.8</ele>
        <time>2024-08-13T10:31:34Z</time>
      </trkpt>
      <trkpt lat="44.83583" lon="6.13988">
        <ele>1382.8</ele>
        <time>2024-08-13T10:31:35Z</time>
      </trkpt>
      <trkpt lat="44.83585" lon="6.13987">
        <ele>1383</ele>
        <time>2024-08-13T10:31:36Z</time>
      </trkpt>
      <trkpt lat="44.83585" lon="6.13987">
        <ele>1383</ele>
        <time>2024-08-13T10:31:37Z</time>
      </trkpt>
      <trkpt lat="44.83587" lon="6.13985">
        <ele>1383</ele>
        <time>2024-08-13T10:31:38Z</time>
      </trkpt>
      <trkpt lat="44.83587" lon="6.13985">
        <ele>1383</ele>
        <time>2024-08-13T10:31:39Z</time>
      </trkpt>
      <trkpt lat="44.83587" lon="6.13985">
        <ele>1383.2</ele>
        <time>2024-08-13T10:31:40Z</time>
      </trkpt>
      <trkpt lat="44.83589" lon="6.13983">
        <ele>1383.4</ele>
        <time>2024-08-13T10:31:41Z</time>
      </trkpt>
      <trkpt lat="44.83589" lon="6.13983">
        <ele>1383.6</ele>
        <time>2024-08-13T10:31:42Z</time>
      </trkpt>
      <trkpt lat="44.83589" lon="6.13983">
        <ele>1383.6</ele>
        <time>2024-08-13T10:31:43Z</time>
      </trkpt>
      <trkpt lat="44.8359" lon="6.13981">
        <ele>1383.8</ele>
        <time>2024-08-13T10:31:44Z</time>
      </trkpt>
      <trkpt lat="44.8359" lon="6.13981">
        <ele>1384</ele>
        <time>2024-08-13T10:31:45Z</time>
      </trkpt>
      <trkpt lat="44.8359" lon="6.13981">
        <ele>1384</ele>
        <time>2024-08-13T10:31:46Z</time>
      </trkpt>
      <trkpt lat="44.83592" lon="6.13978">
        <ele>1384.2</ele>
        <time>2024-08-13T10:31:47Z</time>
      </trkpt>
      <trkpt lat="44.83592" lon="6.13978">
        <ele>1384.6</ele>
        <time>2024-08-13T10:31:48Z</time>
      </trkpt>
      <trkpt lat="44.83592" lon="6.13978">
        <ele>1384.6</ele>
        <time>2024-08-13T10:31:49Z</time>
      </trkpt>
      <trkpt lat="44.83593" lon="6.13976">
        <ele>1384.8</ele>
        <time>2024-08-13T10:31:50Z</time>
      </trkpt>
      <trkpt lat="44.83593" lon="6.13976">
        <ele>1385.2</ele>
        <time>2024-08-13T10:31:51Z</time>
      </trkpt>
      <trkpt lat="44.83593" lon="6.13976">
        <ele>1385.4</ele>
        <time>2024-08-13T10:31:52Z</time>
      </trkpt>
      <trkpt lat="44.83595" lon="6.13975">
        <ele>1385.4</ele>
        <time>2024-08-13T10:31:53Z</time>
      </trkpt>
      <trkpt lat="44.83595" lon="6.13975">
        <ele>1385.4</ele>
        <time>2024-08-13T10:31:54Z</time>
      </trkpt>
      <trkpt lat="44.83595" lon="6.13975">
        <ele>1385.6</ele>
        <time>2024-08-13T10:31:55Z</time>
      </trkpt>
      <trkpt lat="44.83596" lon="6.13977">
        <ele>1385.8</ele>
        <time>2024-08-13T10:31:56Z</time>
      </trkpt>
      <trkpt lat="44.83596" lon="6.13977">
        <ele>1386.2</ele>
        <time>2024-08-13T10:31:57Z</time>
      </trkpt>
      <trkpt lat="44.83596" lon="6.13977">
        <ele>1386.4</ele>
        <time>2024-08-13T10:31:58Z</time>
      </trkpt>
      <trkpt lat="44.83595" lon="6.1398">
        <ele>1386.6</ele>
        <time>2024-08-13T10:31:59Z</time>
      </trkpt>
      <trkpt lat="44.83595" lon="6.1398">
        <ele>1386.6</ele>
        <time>2024-08-13T10:32:00Z</time>
      </trkpt>
      <trkpt lat="44.83595" lon="6.1398">
        <ele>1387</ele>
        <time>2024-08-13T10:32:01Z</time>
      </trkpt>
      <trkpt lat="44.83595" lon="6.13983">
        <ele>1387.2</ele>
        <time>2024-08-13T10:32:02Z</time>
      </trkpt>
      <trkpt lat="44.83595" lon="6.13983">
        <ele>1387.2</ele>
        <time>2024-08-13T10:32:03Z</time>
      </trkpt>
      <trkpt lat="44.83596" lon="6.13986">
        <ele>1387.2</ele>
        <time>2024-08-13T10:32:04Z</time>
      </trkpt>
      <trkpt lat="44.83596" lon="6.13986">
        <ele>1387.2</ele>
        <time>2024-08-13T10:32:05Z</time>
      </trkpt>
      <trkpt lat="44.83596" lon="6.13989">
        <ele>1387.4</ele>
        <time>2024-08-13T10:32:06Z</time>
      </trkpt>
      <trkpt lat="44.83596" lon="6.13989">
        <ele>1387.4</ele>
        <time>2024-08-13T10:32:07Z</time>
      </trkpt>
      <trkpt lat="44.83596" lon="6.13992">
        <ele>1387.6</ele>
        <time>2024-08-13T10:32:08Z</time>
      </trkpt>
      <trkpt lat="44.83596" lon="6.13992">
        <ele>1387.6</ele>
        <time>2024-08-13T10:32:09Z</time>
      </trkpt>
      <trkpt lat="44.83596" lon="6.13992">
        <ele>1387.6</ele>
        <time>2024-08-13T10:32:10Z</time>
      </trkpt>
      <trkpt lat="44.83595" lon="6.13996">
        <ele>1387.6</ele>
        <time>2024-08-13T10:32:11Z</time>
      </trkpt>
      <trkpt lat="44.83595" lon="6.13996">
        <ele>1388.2</ele>
        <time>2024-08-13T10:32:12Z</time>
      </trkpt>
      <trkpt lat="44.83593" lon="6.13997">
        <ele>1388.2</ele>
        <time>2024-08-13T10:32:13Z</time>
      </trkpt>
      <trkpt lat="44.83593" lon="6.13997">
        <ele>1388.2</ele>
        <time>2024-08-13T10:32:14Z</time>
      </trkpt>
      <trkpt lat="44.83591" lon="6.13999">
        <ele>1388.2</ele>
        <time>2024-08-13T10:32:15Z</time>
      </trkpt>
      <trkpt lat="44.83591" lon="6.13999">
        <ele>1388.4</ele>
        <time>2024-08-13T10:32:16Z</time>
      </trkpt>
      <trkpt lat="44.8359" lon="6.14002">
        <ele>1388.6</ele>
        <time>2024-08-13T10:32:17Z</time>
      </trkpt>
      <trkpt lat="44.8359" lon="6.14002">
        <ele>1388.6</ele>
        <time>2024-08-13T10:32:18Z</time>
      </trkpt>
      <trkpt lat="44.8359" lon="6.14002">
        <ele>1388.6</ele>
        <time>2024-08-13T10:32:19Z</time>
      </trkpt>
      <trkpt lat="44.83589" lon="6.14004">
        <ele>1388.8</ele>
        <time>2024-08-13T10:32:20Z</time>
      </trkpt>
      <trkpt lat="44.83589" lon="6.14004">
        <ele>1389</ele>
        <time>2024-08-13T10:32:21Z</time>
      </trkpt>
      <trkpt lat="44.83589" lon="6.14004">
        <ele>1389.2</ele>
        <time>2024-08-13T10:32:22Z</time>
      </trkpt>
      <trkpt lat="44.83587" lon="6.14007">
        <ele>1389.2</ele>
        <time>2024-08-13T10:32:23Z</time>
      </trkpt>
      <trkpt lat="44.83587" lon="6.14007">
        <ele>1389.8</ele>
        <time>2024-08-13T10:32:24Z</time>
      </trkpt>
      <trkpt lat="44.83586" lon="6.1401">
        <ele>1390</ele>
        <time>2024-08-13T10:32:25Z</time>
      </trkpt>
      <trkpt lat="44.83586" lon="6.1401">
        <ele>1390</ele>
        <time>2024-08-13T10:32:26Z</time>
      </trkpt>
      <trkpt lat="44.83585" lon="6.14013">
        <ele>1390.2</ele>
        <time>2024-08-13T10:32:27Z</time>
      </trkpt>
      <trkpt lat="44.83585" lon="6.14013">
        <ele>1390.4</ele>
        <time>2024-08-13T10:32:28Z</time>
      </trkpt>
      <trkpt lat="44.83585" lon="6.14013">
        <ele>1390.6</ele>
        <time>2024-08-13T10:32:29Z</time>
      </trkpt>
      <trkpt lat="44.83585" lon="6.14016">
        <ele>1390.8</ele>
        <time>2024-08-13T10:32:30Z</time>
      </trkpt>
      <trkpt lat="44.83585" lon="6.14016">
        <ele>1390.8</ele>
        <time>2024-08-13T10:32:31Z</time>
      </trkpt>
      <trkpt lat="44.83585" lon="6.14016">
        <ele>1391</ele>
        <time>2024-08-13T10:32:32Z</time>
      </trkpt>
      <trkpt lat="44.83584" lon="6.1402">
        <ele>1391.2</ele>
        <time>2024-08-13T10:32:33Z</time>
      </trkpt>
      <trkpt lat="44.83584" lon="6.1402">
        <ele>1391.4</ele>
        <time>2024-08-13T10:32:34Z</time>
      </trkpt>
      <trkpt lat="44.83583" lon="6.14023">
        <ele>1391.4</ele>
        <time>2024-08-13T10:32:35Z</time>
      </trkpt>
      <trkpt lat="44.83583" lon="6.14023">
        <ele>1391.6</ele>
        <time>2024-08-13T10:32:36Z</time>
      </trkpt>
      <trkpt lat="44.83583" lon="6.14023">
        <ele>1391.6</ele>
        <time>2024-08-13T10:32:37Z</time>
      </trkpt>
      <trkpt lat="44.83581" lon="6.14026">
        <ele>1391.6</ele>
        <time>2024-08-13T10:32:38Z</time>
      </trkpt>
      <trkpt lat="44.83581" lon="6.14026">
        <ele>1392</ele>
        <time>2024-08-13T10:32:39Z</time>
      </trkpt>
      <trkpt lat="44.83581" lon="6.14026">
        <ele>1392</ele>
        <time>2024-08-13T10:32:40Z</time>
      </trkpt>
      <trkpt lat="44.8358" lon="6.1403">
        <ele>1392</ele>
        <time>2024-08-13T10:32:41Z</time>
      </trkpt>
      <trkpt lat="44.8358" lon="6.1403">
        <ele>1392</ele>
        <time>2024-08-13T10:32:42Z</time>
      </trkpt>
      <trkpt lat="44.8358" lon="6.1403">
        <ele>1392</ele>
        <time>2024-08-13T10:32:43Z</time>
      </trkpt>
      <trkpt lat="44.8358" lon="6.1403">
        <ele>1392.4</ele>
        <time>2024-08-13T10:32:44Z</time>
      </trkpt>
      <trkpt lat="44.8358" lon="6.1403">
        <ele>1392.6</ele>
        <time>2024-08-13T10:32:45Z</time>
      </trkpt>
      <trkpt lat="44.8358" lon="6.1403">
        <ele>1392.8</ele>
        <time>2024-08-13T10:32:46Z</time>
      </trkpt>
      <trkpt lat="44.8358" lon="6.1403">
        <ele>1393</ele>
        <time>2024-08-13T10:32:47Z</time>
      </trkpt>
      <trkpt lat="44.8358" lon="6.1403">
        <ele>1393</ele>
        <time>2024-08-13T10:32:48Z</time>
      </trkpt>
      <trkpt lat="44.8358" lon="6.1403">
        <ele>1393</ele>
        <time>2024-08-13T10:32:49Z</time>
      </trkpt>
      <trkpt lat="44.8358" lon="6.1403">
        <ele>1393.2</ele>
        <time>2024-08-13T10:32:50Z</time>
      </trkpt>
      <trkpt lat="44.8358" lon="6.1403">
        <ele>1393.2</ele>
        <time>2024-08-13T10:32:51Z</time>
      </trkpt>
      <trkpt lat="44.8358" lon="6.1403">
        <ele>1393.4</ele>
        <time>2024-08-13T10:32:52Z</time>
      </trkpt>
      <trkpt lat="44.8358" lon="6.1403">
        <ele>1393.4</ele>
        <time>2024-08-13T10:32:53Z</time>
      </trkpt>
      <trkpt lat="44.83579" lon="6.14032">
        <ele>1393.4</ele>
        <time>2024-08-13T10:32:54Z</time>
      </trkpt>
      <trkpt lat="44.83579" lon="6.14032">
        <ele>1393.6</ele>
        <time>2024-08-13T10:32:55Z</time>
      </trkpt>
      <trkpt lat="44.83578" lon="6.14035">
        <ele>1393.6</ele>
        <time>2024-08-13T10:32:56Z</time>
      </trkpt>
      <trkpt lat="44.83578" lon="6.14035">
        <ele>1394</ele>
        <time>2024-08-13T10:32:57Z</time>
      </trkpt>
      <trkpt lat="44.83578" lon="6.14035">
        <ele>1394.2</ele>
        <time>2024-08-13T10:32:58Z</time>
      </trkpt>
      <trkpt lat="44.83578" lon="6.14035">
        <ele>1394.2</ele>
        <time>2024-08-13T10:32:59Z</time>
      </trkpt>
      <trkpt lat="44.83577" lon="6.14038">
        <ele>1394.6</ele>
        <time>2024-08-13T10:33:00Z</time>
      </trkpt>
      <trkpt lat="44.83577" lon="6.14038">
        <ele>1394.6</ele>
        <time>2024-08-13T10:33:01Z</time>
      </trkpt>
      <trkpt lat="44.83577" lon="6.14042">
        <ele>1395.2</ele>
        <time>2024-08-13T10:33:02Z</time>
      </trkpt>
      <trkpt lat="44.83577" lon="6.14042">
        <ele>1395.2</ele>
        <time>2024-08-13T10:33:03Z</time>
      </trkpt>
      <trkpt lat="44.83576" lon="6.14046">
        <ele>1395.2</ele>
        <time>2024-08-13T10:33:04Z</time>
      </trkpt>
      <trkpt lat="44.83576" lon="6.14046">
        <ele>1395.6</ele>
        <time>2024-08-13T10:33:05Z</time>
      </trkpt>
      <trkpt lat="44.83576" lon="6.14049">
        <ele>1395.6</ele>
        <time>2024-08-13T10:33:06Z</time>
      </trkpt>
      <trkpt lat="44.83576" lon="6.14049">
        <ele>1395.6</ele>
        <time>2024-08-13T10:33:07Z</time>
      </trkpt>
      <trkpt lat="44.83576" lon="6.14052">
        <ele>1395.8</ele>
        <time>2024-08-13T10:33:08Z</time>
      </trkpt>
      <trkpt lat="44.83576" lon="6.14052">
        <ele>1396</ele>
        <time>2024-08-13T10:33:09Z</time>
      </trkpt>
      <trkpt lat="44.83575" lon="6.14055">
        <ele>1396</ele>
        <time>2024-08-13T10:33:10Z</time>
      </trkpt>
      <trkpt lat="44.83575" lon="6.14055">
        <ele>1396</ele>
        <time>2024-08-13T10:33:11Z</time>
      </trkpt>
      <trkpt lat="44.83575" lon="6.14055">
        <ele>1396.2</ele>
        <time>2024-08-13T10:33:12Z</time>
      </trkpt>
      <trkpt lat="44.83573" lon="6.14057">
        <ele>1396.2</ele>
        <time>2024-08-13T10:33:13Z</time>
      </trkpt>
      <trkpt lat="44.83573" lon="6.14057">
        <ele>1396.4</ele>
        <time>2024-08-13T10:33:14Z</time>
      </trkpt>
      <trkpt lat="44.83573" lon="6.14057">
        <ele>1396.6</ele>
        <time>2024-08-13T10:33:15Z</time>
      </trkpt>
      <trkpt lat="44.83571" lon="6.14059">
        <ele>1396.6</ele>
        <time>2024-08-13T10:33:16Z</time>
      </trkpt>
      <trkpt lat="44.83571" lon="6.14059">
        <ele>1396.6</ele>
        <time>2024-08-13T10:33:17Z</time>
      </trkpt>
      <trkpt lat="44.83569" lon="6.14062">
        <ele>1396.8</ele>
        <time>2024-08-13T10:33:18Z</time>
      </trkpt>
      <trkpt lat="44.83569" lon="6.14062">
        <ele>1396.8</ele>
        <time>2024-08-13T10:33:19Z</time>
      </trkpt>
      <trkpt lat="44.83569" lon="6.14062">
        <ele>1396.8</ele>
        <time>2024-08-13T10:33:20Z</time>
      </trkpt>
      <trkpt lat="44.83568" lon="6.14065">
        <ele>1396.8</ele>
        <time>2024-08-13T10:33:21Z</time>
      </trkpt>
      <trkpt lat="44.83568" lon="6.14065">
        <ele>1396.8</ele>
        <time>2024-08-13T10:33:22Z</time>
      </trkpt>
      <trkpt lat="44.83568" lon="6.14065">
        <ele>1396.8</ele>
        <time>2024-08-13T10:33:23Z</time>
      </trkpt>
      <trkpt lat="44.83567" lon="6.14068">
        <ele>1396.8</ele>
        <time>2024-08-13T10:33:24Z</time>
      </trkpt>
      <trkpt lat="44.83567" lon="6.14068">
        <ele>1397.4</ele>
        <time>2024-08-13T10:33:25Z</time>
      </trkpt>
      <trkpt lat="44.83567" lon="6.14068">
        <ele>1397.6</ele>
        <time>2024-08-13T10:33:26Z</time>
      </trkpt>
      <trkpt lat="44.83566" lon="6.14071">
        <ele>1397.8</ele>
        <time>2024-08-13T10:33:27Z</time>
      </trkpt>
      <trkpt lat="44.83566" lon="6.14071">
        <ele>1398</ele>
        <time>2024-08-13T10:33:28Z</time>
      </trkpt>
      <trkpt lat="44.83566" lon="6.14071">
        <ele>1398.2</ele>
        <time>2024-08-13T10:33:29Z</time>
      </trkpt>
      <trkpt lat="44.83565" lon="6.14076">
        <ele>1398.2</ele>
        <time>2024-08-13T10:33:30Z</time>
      </trkpt>
      <trkpt lat="44.83565" lon="6.14076">
        <ele>1398.4</ele>
        <time>2024-08-13T10:33:31Z</time>
      </trkpt>
      <trkpt lat="44.83564" lon="6.14078">
        <ele>1398.6</ele>
        <time>2024-08-13T10:33:32Z</time>
      </trkpt>
      <trkpt lat="44.83564" lon="6.14078">
        <ele>1398.6</ele>
        <time>2024-08-13T10:33:33Z</time>
      </trkpt>
      <trkpt lat="44.83564" lon="6.14078">
        <ele>1398.8</ele>
        <time>2024-08-13T10:33:34Z</time>
      </trkpt>
      <trkpt lat="44.83564" lon="6.1408">
        <ele>1399</ele>
        <time>2024-08-13T10:33:35Z</time>
      </trkpt>
      <trkpt lat="44.83564" lon="6.1408">
        <ele>1399</ele>
        <time>2024-08-13T10:33:36Z</time>
      </trkpt>
      <trkpt lat="44.83564" lon="6.1408">
        <ele>1399.2</ele>
        <time>2024-08-13T10:33:37Z</time>
      </trkpt>
      <trkpt lat="44.83563" lon="6.14083">
        <ele>1399.2</ele>
        <time>2024-08-13T10:33:38Z</time>
      </trkpt>
      <trkpt lat="44.83563" lon="6.14083">
        <ele>1399.4</ele>
        <time>2024-08-13T10:33:39Z</time>
      </trkpt>
      <trkpt lat="44.83563" lon="6.14083">
        <ele>1399.6</ele>
        <time>2024-08-13T10:33:40Z</time>
      </trkpt>
      <trkpt lat="44.83562" lon="6.14087">
        <ele>1399.8</ele>
        <time>2024-08-13T10:33:41Z</time>
      </trkpt>
      <trkpt lat="44.83562" lon="6.14087">
        <ele>1399.8</ele>
        <time>2024-08-13T10:33:42Z</time>
      </trkpt>
      <trkpt lat="44.83562" lon="6.14087">
        <ele>1400</ele>
        <time>2024-08-13T10:33:43Z</time>
      </trkpt>
      <trkpt lat="44.83561" lon="6.14089">
        <ele>1400.4</ele>
        <time>2024-08-13T10:33:44Z</time>
      </trkpt>
      <trkpt lat="44.83561" lon="6.14089">
        <ele>1400.4</ele>
        <time>2024-08-13T10:33:45Z</time>
      </trkpt>
      <trkpt lat="44.8356" lon="6.14092">
        <ele>1400.6</ele>
        <time>2024-08-13T10:33:46Z</time>
      </trkpt>
      <trkpt lat="44.8356" lon="6.14092">
        <ele>1400.6</ele>
        <time>2024-08-13T10:33:47Z</time>
      </trkpt>
      <trkpt lat="44.83559" lon="6.14095">
        <ele>1400.8</ele>
        <time>2024-08-13T10:33:48Z</time>
      </trkpt>
      <trkpt lat="44.83559" lon="6.14095">
        <ele>1401.4</ele>
        <time>2024-08-13T10:33:49Z</time>
      </trkpt>
      <trkpt lat="44.83559" lon="6.14095">
        <ele>1401.6</ele>
        <time>2024-08-13T10:33:50Z</time>
      </trkpt>
      <trkpt lat="44.83558" lon="6.14097">
        <ele>1401.6</ele>
        <time>2024-08-13T10:33:51Z</time>
      </trkpt>
      <trkpt lat="44.83558" lon="6.14097">
        <ele>1401.8</ele>
        <time>2024-08-13T10:33:52Z</time>
      </trkpt>
      <trkpt lat="44.83558" lon="6.14097">
        <ele>1401.8</ele>
        <time>2024-08-13T10:33:53Z</time>
      </trkpt>
      <trkpt lat="44.83557" lon="6.14101">
        <ele>1401.6</ele>
        <time>2024-08-13T10:33:54Z</time>
      </trkpt>
      <trkpt lat="44.83557" lon="6.14101">
        <ele>1401.8</ele>
        <time>2024-08-13T10:33:55Z</time>
      </trkpt>
      <trkpt lat="44.83555" lon="6.14103">
        <ele>1402</ele>
        <time>2024-08-13T10:33:56Z</time>
      </trkpt>
      <trkpt lat="44.83555" lon="6.14103">
        <ele>1402.2</ele>
        <time>2024-08-13T10:33:57Z</time>
      </trkpt>
      <trkpt lat="44.83554" lon="6.14104">
        <ele>1402.2</ele>
        <time>2024-08-13T10:33:58Z</time>
      </trkpt>
      <trkpt lat="44.83554" lon="6.14104">
        <ele>1402.4</ele>
        <time>2024-08-13T10:33:59Z</time>
      </trkpt>
      <trkpt lat="44.83554" lon="6.14104">
        <ele>1402.4</ele>
        <time>2024-08-13T10:34:00Z</time>
      </trkpt>
      <trkpt lat="44.83552" lon="6.14108">
        <ele>1402.4</ele>
        <time>2024-08-13T10:34:01Z</time>
      </trkpt>
      <trkpt lat="44.83552" lon="6.14108">
        <ele>1402.8</ele>
        <time>2024-08-13T10:34:02Z</time>
      </trkpt>
      <trkpt lat="44.83552" lon="6.14108">
        <ele>1403</ele>
        <time>2024-08-13T10:34:03Z</time>
      </trkpt>
      <trkpt lat="44.83551" lon="6.14111">
        <ele>1403.2</ele>
        <time>2024-08-13T10:34:04Z</time>
      </trkpt>
      <trkpt lat="44.83551" lon="6.14111">
        <ele>1403.4</ele>
        <time>2024-08-13T10:34:05Z</time>
      </trkpt>
      <trkpt lat="44.83551" lon="6.14111">
        <ele>1403.6</ele>
        <time>2024-08-13T10:34:06Z</time>
      </trkpt>
      <trkpt lat="44.8355" lon="6.14114">
        <ele>1403.8</ele>
        <time>2024-08-13T10:34:07Z</time>
      </trkpt>
      <trkpt lat="44.8355" lon="6.14114">
        <ele>1403.8</ele>
        <time>2024-08-13T10:34:08Z</time>
      </trkpt>
      <trkpt lat="44.83549" lon="6.14116">
        <ele>1404</ele>
        <time>2024-08-13T10:34:09Z</time>
      </trkpt>
      <trkpt lat="44.83549" lon="6.14116">
        <ele>1404.2</ele>
        <time>2024-08-13T10:34:10Z</time>
      </trkpt>
      <trkpt lat="44.83548" lon="6.14118">
        <ele>1404.4</ele>
        <time>2024-08-13T10:34:11Z</time>
      </trkpt>
      <trkpt lat="44.83548" lon="6.14118">
        <ele>1404.4</ele>
        <time>2024-08-13T10:34:12Z</time>
      </trkpt>
      <trkpt lat="44.83546" lon="6.14121">
        <ele>1404.6</ele>
        <time>2024-08-13T10:34:13Z</time>
      </trkpt>
      <trkpt lat="44.83546" lon="6.14121">
        <ele>1404.6</ele>
        <time>2024-08-13T10:34:14Z</time>
      </trkpt>
      <trkpt lat="44.83546" lon="6.14121">
        <ele>1405</ele>
        <time>2024-08-13T10:34:15Z</time>
      </trkpt>
      <trkpt lat="44.83545" lon="6.14123">
        <ele>1405.4</ele>
        <time>2024-08-13T10:34:16Z</time>
      </trkpt>
      <trkpt lat="44.83545" lon="6.14123">
        <ele>1405.4</ele>
        <time>2024-08-13T10:34:17Z</time>
      </trkpt>
      <trkpt lat="44.83545" lon="6.14123">
        <ele>1405.6</ele>
        <time>2024-08-13T10:34:18Z</time>
      </trkpt>
      <trkpt lat="44.83544" lon="6.14126">
        <ele>1405.6</ele>
        <time>2024-08-13T10:34:19Z</time>
      </trkpt>
      <trkpt lat="44.83544" lon="6.14126">
        <ele>1405.6</ele>
        <time>2024-08-13T10:34:20Z</time>
      </trkpt>
      <trkpt lat="44.83544" lon="6.14129">
        <ele>1405.8</ele>
        <time>2024-08-13T10:34:21Z</time>
      </trkpt>
      <trkpt lat="44.83544" lon="6.14129">
        <ele>1406</ele>
        <time>2024-08-13T10:34:22Z</time>
      </trkpt>
      <trkpt lat="44.83544" lon="6.14129">
        <ele>1406</ele>
        <time>2024-08-13T10:34:23Z</time>
      </trkpt>
      <trkpt lat="44.83544" lon="6.14132">
        <ele>1406.2</ele>
        <time>2024-08-13T10:34:24Z</time>
      </trkpt>
      <trkpt lat="44.83544" lon="6.14132">
        <ele>1406.2</ele>
        <time>2024-08-13T10:34:25Z</time>
      </trkpt>
      <trkpt lat="44.83544" lon="6.14132">
        <ele>1406.8</ele>
        <time>2024-08-13T10:34:26Z</time>
      </trkpt>
      <trkpt lat="44.83543" lon="6.14136">
        <ele>1406.8</ele>
        <time>2024-08-13T10:34:27Z</time>
      </trkpt>
      <trkpt lat="44.83543" lon="6.14136">
        <ele>1406.8</ele>
        <time>2024-08-13T10:34:28Z</time>
      </trkpt>
      <trkpt lat="44.83543" lon="6.14139">
        <ele>1407.4</ele>
        <time>2024-08-13T10:34:29Z</time>
      </trkpt>
      <trkpt lat="44.83543" lon="6.14139">
        <ele>1407.8</ele>
        <time>2024-08-13T10:34:30Z</time>
      </trkpt>
      <trkpt lat="44.83543" lon="6.14142">
        <ele>1408</ele>
        <time>2024-08-13T10:34:31Z</time>
      </trkpt>
      <trkpt lat="44.83543" lon="6.14142">
        <ele>1408</ele>
        <time>2024-08-13T10:34:32Z</time>
      </trkpt>
      <trkpt lat="44.83542" lon="6.14144">
        <ele>1408.4</ele>
        <time>2024-08-13T10:34:33Z</time>
      </trkpt>
      <trkpt lat="44.83542" lon="6.14144">
        <ele>1408.4</ele>
        <time>2024-08-13T10:34:34Z</time>
      </trkpt>
      <trkpt lat="44.83541" lon="6.14147">
        <ele>1408.6</ele>
        <time>2024-08-13T10:34:35Z</time>
      </trkpt>
      <trkpt lat="44.83541" lon="6.14147">
        <ele>1408.6</ele>
        <time>2024-08-13T10:34:36Z</time>
      </trkpt>
      <trkpt lat="44.83539" lon="6.14148">
        <ele>1408.8</ele>
        <time>2024-08-13T10:34:37Z</time>
      </trkpt>
      <trkpt lat="44.83539" lon="6.14148">
        <ele>1408.8</ele>
        <time>2024-08-13T10:34:38Z</time>
      </trkpt>
      <trkpt lat="44.83539" lon="6.14148">
        <ele>1409</ele>
        <time>2024-08-13T10:34:39Z</time>
      </trkpt>
      <trkpt lat="44.83537" lon="6.14151">
        <ele>1409</ele>
        <time>2024-08-13T10:34:40Z</time>
      </trkpt>
      <trkpt lat="44.83537" lon="6.14151">
        <ele>1409</ele>
        <time>2024-08-13T10:34:41Z</time>
      </trkpt>
      <trkpt lat="44.83535" lon="6.14153">
        <ele>1409.2</ele>
        <time>2024-08-13T10:34:42Z</time>
      </trkpt>
      <trkpt lat="44.83535" lon="6.14153">
        <ele>1409.4</ele>
        <time>2024-08-13T10:34:43Z</time>
      </trkpt>
      <trkpt lat="44.83533" lon="6.14155">
        <ele>1409.6</ele>
        <time>2024-08-13T10:34:44Z</time>
      </trkpt>
      <trkpt lat="44.83533" lon="6.14155">
        <ele>1409.6</ele>
        <time>2024-08-13T10:34:45Z</time>
      </trkpt>
      <trkpt lat="44.83532" lon="6.14157">
        <ele>1409.6</ele>
        <time>2024-08-13T10:34:46Z</time>
      </trkpt>
      <trkpt lat="44.83532" lon="6.14157">
        <ele>1410</ele>
        <time>2024-08-13T10:34:47Z</time>
      </trkpt>
      <trkpt lat="44.83532" lon="6.14157">
        <ele>1410</ele>
        <time>2024-08-13T10:34:48Z</time>
      </trkpt>
      <trkpt lat="44.8353" lon="6.14159">
        <ele>1410</ele>
        <time>2024-08-13T10:34:49Z</time>
      </trkpt>
      <trkpt lat="44.8353" lon="6.14159">
        <ele>1410.2</ele>
        <time>2024-08-13T10:34:50Z</time>
      </trkpt>
      <trkpt lat="44.8353" lon="6.14159">
        <ele>1410.2</ele>
        <time>2024-08-13T10:34:51Z</time>
      </trkpt>
      <trkpt lat="44.83528" lon="6.14161">
        <ele>1410.2</ele>
        <time>2024-08-13T10:34:52Z</time>
      </trkpt>
      <trkpt lat="44.83528" lon="6.14161">
        <ele>1410.6</ele>
        <time>2024-08-13T10:34:53Z</time>
      </trkpt>
      <trkpt lat="44.83528" lon="6.14161">
        <ele>1410.6</ele>
        <time>2024-08-13T10:34:54Z</time>
      </trkpt>
      <trkpt lat="44.83526" lon="6.14164">
        <ele>1411</ele>
        <time>2024-08-13T10:34:55Z</time>
      </trkpt>
      <trkpt lat="44.83526" lon="6.14164">
        <ele>1411</ele>
        <time>2024-08-13T10:34:56Z</time>
      </trkpt>
      <trkpt lat="44.83526" lon="6.14164">
        <ele>1411</ele>
        <time>2024-08-13T10:34:57Z</time>
      </trkpt>
      <trkpt lat="44.83525" lon="6.14167">
        <ele>1411.2</ele>
        <time>2024-08-13T10:34:58Z</time>
      </trkpt>
      <trkpt lat="44.83525" lon="6.14167">
        <ele>1411.4</ele>
        <time>2024-08-13T10:34:59Z</time>
      </trkpt>
      <trkpt lat="44.83525" lon="6.14167">
        <ele>1411.6</ele>
        <time>2024-08-13T10:35:00Z</time>
      </trkpt>
      <trkpt lat="44.83525" lon="6.1417">
        <ele>1412.2</ele>
        <time>2024-08-13T10:35:01Z</time>
      </trkpt>
      <trkpt lat="44.83525" lon="6.1417">
        <ele>1412.4</ele>
        <time>2024-08-13T10:35:02Z</time>
      </trkpt>
      <trkpt lat="44.83524" lon="6.14173">
        <ele>1412.4</ele>
        <time>2024-08-13T10:35:03Z</time>
      </trkpt>
      <trkpt lat="44.83524" lon="6.14173">
        <ele>1412.6</ele>
        <time>2024-08-13T10:35:04Z</time>
      </trkpt>
      <trkpt lat="44.83522" lon="6.14176">
        <ele>1412.6</ele>
        <time>2024-08-13T10:35:05Z</time>
      </trkpt>
      <trkpt lat="44.83522" lon="6.14176">
        <ele>1412.6</ele>
        <time>2024-08-13T10:35:06Z</time>
      </trkpt>
      <trkpt lat="44.8352" lon="6.14178">
        <ele>1412.8</ele>
        <time>2024-08-13T10:35:07Z</time>
      </trkpt>
      <trkpt lat="44.8352" lon="6.14178">
        <ele>1412.8</ele>
        <time>2024-08-13T10:35:08Z</time>
      </trkpt>
      <trkpt lat="44.83517" lon="6.14179">
        <ele>1413</ele>
        <time>2024-08-13T10:35:09Z</time>
      </trkpt>
      <trkpt lat="44.83517" lon="6.14179">
        <ele>1413</ele>
        <time>2024-08-13T10:35:10Z</time>
      </trkpt>
      <trkpt lat="44.83517" lon="6.14179">
        <ele>1413</ele>
        <time>2024-08-13T10:35:11Z</time>
      </trkpt>
      <trkpt lat="44.83515" lon="6.1418">
        <ele>1413</ele>
        <time>2024-08-13T10:35:12Z</time>
      </trkpt>
      <trkpt lat="44.83515" lon="6.1418">
        <ele>1413</ele>
        <time>2024-08-13T10:35:13Z</time>
      </trkpt>
      <trkpt lat="44.83515" lon="6.1418">
        <ele>1413</ele>
        <time>2024-08-13T10:35:14Z</time>
      </trkpt>
      <trkpt lat="44.83513" lon="6.14181">
        <ele>1413.2</ele>
        <time>2024-08-13T10:35:15Z</time>
      </trkpt>
      <trkpt lat="44.83513" lon="6.14181">
        <ele>1413.2</ele>
        <time>2024-08-13T10:35:16Z</time>
      </trkpt>
      <trkpt lat="44.83511" lon="6.14183">
        <ele>1413.2</ele>
        <time>2024-08-13T10:35:17Z</time>
      </trkpt>
      <trkpt lat="44.83511" lon="6.14183">
        <ele>1413.2</ele>
        <time>2024-08-13T10:35:18Z</time>
      </trkpt>
      <trkpt lat="44.83511" lon="6.14183">
        <ele>1413.2</ele>
        <time>2024-08-13T10:35:19Z</time>
      </trkpt>
      <trkpt lat="44.83509" lon="6.14186">
        <ele>1413.6</ele>
        <time>2024-08-13T10:35:20Z</time>
      </trkpt>
      <trkpt lat="44.83509" lon="6.14186">
        <ele>1413.6</ele>
        <time>2024-08-13T10:35:21Z</time>
      </trkpt>
      <trkpt lat="44.83508" lon="6.14188">
        <ele>1413.6</ele>
        <time>2024-08-13T10:35:22Z</time>
      </trkpt>
      <trkpt lat="44.83508" lon="6.14188">
        <ele>1413.6</ele>
        <time>2024-08-13T10:35:23Z</time>
      </trkpt>
      <trkpt lat="44.83506" lon="6.1419">
        <ele>1413.8</ele>
        <time>2024-08-13T10:35:24Z</time>
      </trkpt>
      <trkpt lat="44.83506" lon="6.1419">
        <ele>1413.8</ele>
        <time>2024-08-13T10:35:25Z</time>
      </trkpt>
      <trkpt lat="44.83505" lon="6.14193">
        <ele>1414</ele>
        <time>2024-08-13T10:35:26Z</time>
      </trkpt>
      <trkpt lat="44.83505" lon="6.14193">
        <ele>1414.2</ele>
        <time>2024-08-13T10:35:27Z</time>
      </trkpt>
      <trkpt lat="44.83505" lon="6.14193">
        <ele>1414.2</ele>
        <time>2024-08-13T10:35:28Z</time>
      </trkpt>
      <trkpt lat="44.83504" lon="6.14195">
        <ele>1414.4</ele>
        <time>2024-08-13T10:35:29Z</time>
      </trkpt>
      <trkpt lat="44.83504" lon="6.14195">
        <ele>1414.4</ele>
        <time>2024-08-13T10:35:30Z</time>
      </trkpt>
      <trkpt lat="44.83502" lon="6.14197">
        <ele>1414.8</ele>
        <time>2024-08-13T10:35:31Z</time>
      </trkpt>
      <trkpt lat="44.83502" lon="6.14197">
        <ele>1415</ele>
        <time>2024-08-13T10:35:32Z</time>
      </trkpt>
      <trkpt lat="44.835" lon="6.14199">
        <ele>1415</ele>
        <time>2024-08-13T10:35:33Z</time>
      </trkpt>
      <trkpt lat="44.835" lon="6.14199">
        <ele>1415</ele>
        <time>2024-08-13T10:35:34Z</time>
      </trkpt>
      <trkpt lat="44.83498" lon="6.14201">
        <ele>1415</ele>
        <time>2024-08-13T10:35:35Z</time>
      </trkpt>
      <trkpt lat="44.83498" lon="6.14201">
        <ele>1415.2</ele>
        <time>2024-08-13T10:35:36Z</time>
      </trkpt>
      <trkpt lat="44.83497" lon="6.14204">
        <ele>1415.4</ele>
        <time>2024-08-13T10:35:37Z</time>
      </trkpt>
      <trkpt lat="44.83497" lon="6.14204">
        <ele>1415.4</ele>
        <time>2024-08-13T10:35:38Z</time>
      </trkpt>
      <trkpt lat="44.83495" lon="6.14205">
        <ele>1415.4</ele>
        <time>2024-08-13T10:35:39Z</time>
      </trkpt>
      <trkpt lat="44.83495" lon="6.14205">
        <ele>1415.6</ele>
        <time>2024-08-13T10:35:40Z</time>
      </trkpt>
      <trkpt lat="44.83495" lon="6.14205">
        <ele>1416</ele>
        <time>2024-08-13T10:35:41Z</time>
      </trkpt>
      <trkpt lat="44.83494" lon="6.14209">
        <ele>1416</ele>
        <time>2024-08-13T10:35:42Z</time>
      </trkpt>
      <trkpt lat="44.83494" lon="6.14209">
        <ele>1416</ele>
        <time>2024-08-13T10:35:43Z</time>
      </trkpt>
      <trkpt lat="44.83493" lon="6.14212">
        <ele>1416.2</ele>
        <time>2024-08-13T10:35:44Z</time>
      </trkpt>
      <trkpt lat="44.83493" lon="6.14212">
        <ele>1416.4</ele>
        <time>2024-08-13T10:35:45Z</time>
      </trkpt>
      <trkpt lat="44.83493" lon="6.14212">
        <ele>1416.4</ele>
        <time>2024-08-13T10:35:46Z</time>
      </trkpt>
      <trkpt lat="44.83492" lon="6.14215">
        <ele>1416.4</ele>
        <time>2024-08-13T10:35:47Z</time>
      </trkpt>
      <trkpt lat="44.83492" lon="6.14215">
        <ele>1416.4</ele>
        <time>2024-08-13T10:35:48Z</time>
      </trkpt>
      <trkpt lat="44.83491" lon="6.14217">
        <ele>1416.6</ele>
        <time>2024-08-13T10:35:49Z</time>
      </trkpt>
      <trkpt lat="44.83491" lon="6.14217">
        <ele>1416.8</ele>
        <time>2024-08-13T10:35:50Z</time>
      </trkpt>
      <trkpt lat="44.8349" lon="6.14219">
        <ele>1416.8</ele>
        <time>2024-08-13T10:35:51Z</time>
      </trkpt>
      <trkpt lat="44.8349" lon="6.14219">
        <ele>1417</ele>
        <time>2024-08-13T10:35:52Z</time>
      </trkpt>
      <trkpt lat="44.8349" lon="6.14219">
        <ele>1417.2</ele>
        <time>2024-08-13T10:35:53Z</time>
      </trkpt>
      <trkpt lat="44.83488" lon="6.14222">
        <ele>1417.4</ele>
        <time>2024-08-13T10:35:54Z</time>
      </trkpt>
      <trkpt lat="44.83488" lon="6.14222">
        <ele>1417.4</ele>
        <time>2024-08-13T10:35:55Z</time>
      </trkpt>
      <trkpt lat="44.83487" lon="6.14225">
        <ele>1417.4</ele>
        <time>2024-08-13T10:35:56Z</time>
      </trkpt>
      <trkpt lat="44.83487" lon="6.14225">
        <ele>1417.6</ele>
        <time>2024-08-13T10:35:57Z</time>
      </trkpt>
      <trkpt lat="44.83486" lon="6.14228">
        <ele>1417.6</ele>
        <time>2024-08-13T10:35:58Z</time>
      </trkpt>
      <trkpt lat="44.83486" lon="6.14228">
        <ele>1417.6</ele>
        <time>2024-08-13T10:35:59Z</time>
      </trkpt>
      <trkpt lat="44.83485" lon="6.14231">
        <ele>1417.6</ele>
        <time>2024-08-13T10:36:00Z</time>
      </trkpt>
      <trkpt lat="44.83485" lon="6.14231">
        <ele>1417.6</ele>
        <time>2024-08-13T10:36:01Z</time>
      </trkpt>
      <trkpt lat="44.83485" lon="6.14233">
        <ele>1417.8</ele>
        <time>2024-08-13T10:36:02Z</time>
      </trkpt>
      <trkpt lat="44.83485" lon="6.14233">
        <ele>1417.8</ele>
        <time>2024-08-13T10:36:03Z</time>
      </trkpt>
      <trkpt lat="44.83485" lon="6.14233">
        <ele>1418</ele>
        <time>2024-08-13T10:36:04Z</time>
      </trkpt>
      <trkpt lat="44.83484" lon="6.14236">
        <ele>1418</ele>
        <time>2024-08-13T10:36:05Z</time>
      </trkpt>
      <trkpt lat="44.83484" lon="6.14236">
        <ele>1418</ele>
        <time>2024-08-13T10:36:06Z</time>
      </trkpt>
      <trkpt lat="44.83484" lon="6.14236">
        <ele>1418.4</ele>
        <time>2024-08-13T10:36:07Z</time>
      </trkpt>
      <trkpt lat="44.83483" lon="6.1424">
        <ele>1418.6</ele>
        <time>2024-08-13T10:36:08Z</time>
      </trkpt>
      <trkpt lat="44.83483" lon="6.1424">
        <ele>1418.6</ele>
        <time>2024-08-13T10:36:09Z</time>
      </trkpt>
      <trkpt lat="44.83482" lon="6.14242">
        <ele>1418.6</ele>
        <time>2024-08-13T10:36:10Z</time>
      </trkpt>
      <trkpt lat="44.83482" lon="6.14242">
        <ele>1419.2</ele>
        <time>2024-08-13T10:36:11Z</time>
      </trkpt>
      <trkpt lat="44.83482" lon="6.14242">
        <ele>1419.8</ele>
        <time>2024-08-13T10:36:12Z</time>
      </trkpt>
      <trkpt lat="44.83481" lon="6.14245">
        <ele>1419.8</ele>
        <time>2024-08-13T10:36:13Z</time>
      </trkpt>
      <trkpt lat="44.83481" lon="6.14245">
        <ele>1419.8</ele>
        <time>2024-08-13T10:36:14Z</time>
      </trkpt>
      <trkpt lat="44.83481" lon="6.14245">
        <ele>1419.4</ele>
        <time>2024-08-13T10:36:15Z</time>
      </trkpt>
      <trkpt lat="44.83481" lon="6.14245">
        <ele>1419.4</ele>
        <time>2024-08-13T10:36:16Z</time>
      </trkpt>
      <trkpt lat="44.83481" lon="6.14245">
        <ele>1419.8</ele>
        <time>2024-08-13T10:36:17Z</time>
      </trkpt>
      <trkpt lat="44.83481" lon="6.14245">
        <ele>1419.8</ele>
        <time>2024-08-13T10:36:18Z</time>
      </trkpt>
      <trkpt lat="44.83481" lon="6.14245">
        <ele>1419.8</ele>
        <time>2024-08-13T10:36:19Z</time>
      </trkpt>
      <trkpt lat="44.83481" lon="6.14245">
        <ele>1420</ele>
        <time>2024-08-13T10:36:20Z</time>
      </trkpt>
      <trkpt lat="44.83481" lon="6.14245">
        <ele>1420</ele>
        <time>2024-08-13T10:36:21Z</time>
      </trkpt>
      <trkpt lat="44.83481" lon="6.14245">
        <ele>1420</ele>
        <time>2024-08-13T10:36:22Z</time>
      </trkpt>
      <trkpt lat="44.83481" lon="6.14245">
        <ele>1420</ele>
        <time>2024-08-13T10:36:23Z</time>
      </trkpt>
      <trkpt lat="44.83481" lon="6.14245">
        <ele>1420</ele>
        <time>2024-08-13T10:36:24Z</time>
      </trkpt>
      <trkpt lat="44.83481" lon="6.14245">
        <ele>1420</ele>
        <time>2024-08-13T10:36:25Z</time>
      </trkpt>
      <trkpt lat="44.8348" lon="6.14249">
        <ele>1420.2</ele>
        <time>2024-08-13T10:36:26Z</time>
      </trkpt>
      <trkpt lat="44.8348" lon="6.14249">
        <ele>1420.4</ele>
        <time>2024-08-13T10:36:27Z</time>
      </trkpt>
      <trkpt lat="44.83478" lon="6.14252">
        <ele>1420.6</ele>
        <time>2024-08-13T10:36:28Z</time>
      </trkpt>
      <trkpt lat="44.83478" lon="6.14252">
        <ele>1420.6</ele>
        <time>2024-08-13T10:36:29Z</time>
      </trkpt>
      <trkpt lat="44.83477" lon="6.14254">
        <ele>1420.6</ele>
        <time>2024-08-13T10:36:30Z</time>
      </trkpt>
      <trkpt lat="44.83477" lon="6.14254">
        <ele>1420.6</ele>
        <time>2024-08-13T10:36:31Z</time>
      </trkpt>
      <trkpt lat="44.83476" lon="6.14258">
        <ele>1421</ele>
        <time>2024-08-13T10:36:32Z</time>
      </trkpt>
      <trkpt lat="44.83476" lon="6.14258">
        <ele>1421.2</ele>
        <time>2024-08-13T10:36:33Z</time>
      </trkpt>
      <trkpt lat="44.83475" lon="6.1426">
        <ele>1421.4</ele>
        <time>2024-08-13T10:36:34Z</time>
      </trkpt>
      <trkpt lat="44.83475" lon="6.1426">
        <ele>1421.4</ele>
        <time>2024-08-13T10:36:35Z</time>
      </trkpt>
      <trkpt lat="44.83474" lon="6.14262">
        <ele>1421.6</ele>
        <time>2024-08-13T10:36:36Z</time>
      </trkpt>
      <trkpt lat="44.83474" lon="6.14262">
        <ele>1421.8</ele>
        <time>2024-08-13T10:36:37Z</time>
      </trkpt>
      <trkpt lat="44.83474" lon="6.14262">
        <ele>1422</ele>
        <time>2024-08-13T10:36:38Z</time>
      </trkpt>
      <trkpt lat="44.83474" lon="6.14265">
        <ele>1422.2</ele>
        <time>2024-08-13T10:36:39Z</time>
      </trkpt>
      <trkpt lat="44.83474" lon="6.14265">
        <ele>1422.4</ele>
        <time>2024-08-13T10:36:40Z</time>
      </trkpt>
      <trkpt lat="44.83472" lon="6.14267">
        <ele>1422.4</ele>
        <time>2024-08-13T10:36:41Z</time>
      </trkpt>
      <trkpt lat="44.83472" lon="6.14267">
        <ele>1423</ele>
        <time>2024-08-13T10:36:42Z</time>
      </trkpt>
      <trkpt lat="44.83471" lon="6.14269">
        <ele>1423.2</ele>
        <time>2024-08-13T10:36:43Z</time>
      </trkpt>
      <trkpt lat="44.83471" lon="6.14269">
        <ele>1423.2</ele>
        <time>2024-08-13T10:36:44Z</time>
      </trkpt>
      <trkpt lat="44.83471" lon="6.14269">
        <ele>1423.6</ele>
        <time>2024-08-13T10:36:45Z</time>
      </trkpt>
      <trkpt lat="44.83469" lon="6.1427">
        <ele>1423.6</ele>
        <time>2024-08-13T10:36:46Z</time>
      </trkpt>
      <trkpt lat="44.83469" lon="6.1427">
        <ele>1423.8</ele>
        <time>2024-08-13T10:36:47Z</time>
      </trkpt>
      <trkpt lat="44.83469" lon="6.1427">
        <ele>1424</ele>
        <time>2024-08-13T10:36:48Z</time>
      </trkpt>
      <trkpt lat="44.83468" lon="6.14272">
        <ele>1424.2</ele>
        <time>2024-08-13T10:36:49Z</time>
      </trkpt>
      <trkpt lat="44.83468" lon="6.14272">
        <ele>1424.2</ele>
        <time>2024-08-13T10:36:50Z</time>
      </trkpt>
      <trkpt lat="44.83468" lon="6.14272">
        <ele>1424.4</ele>
        <time>2024-08-13T10:36:51Z</time>
      </trkpt>
      <trkpt lat="44.83468" lon="6.14272">
        <ele>1424.4</ele>
        <time>2024-08-13T10:36:52Z</time>
      </trkpt>
      <trkpt lat="44.83468" lon="6.14272">
        <ele>1424.6</ele>
        <time>2024-08-13T10:36:53Z</time>
      </trkpt>
      <trkpt lat="44.83468" lon="6.14272">
        <ele>1424.8</ele>
        <time>2024-08-13T10:36:54Z</time>
      </trkpt>
      <trkpt lat="44.83469" lon="6.14271">
        <ele>1424.8</ele>
        <time>2024-08-13T10:36:55Z</time>
      </trkpt>
      <trkpt lat="44.83469" lon="6.14271">
        <ele>1425.2</ele>
        <time>2024-08-13T10:36:56Z</time>
      </trkpt>
      <trkpt lat="44.83471" lon="6.1427">
        <ele>1425.6</ele>
        <time>2024-08-13T10:36:57Z</time>
      </trkpt>
      <trkpt lat="44.83471" lon="6.1427">
        <ele>1425.6</ele>
        <time>2024-08-13T10:36:58Z</time>
      </trkpt>
      <trkpt lat="44.83471" lon="6.1427">
        <ele>1425.8</ele>
        <time>2024-08-13T10:36:59Z</time>
      </trkpt>
      <trkpt lat="44.83471" lon="6.1427">
        <ele>1426.2</ele>
        <time>2024-08-13T10:37:00Z</time>
      </trkpt>
      <trkpt lat="44.83471" lon="6.1427">
        <ele>1426.2</ele>
        <time>2024-08-13T10:37:01Z</time>
      </trkpt>
      <trkpt lat="44.83471" lon="6.1427">
        <ele>1426.4</ele>
        <time>2024-08-13T10:37:02Z</time>
      </trkpt>
      <trkpt lat="44.83471" lon="6.1427">
        <ele>1426.4</ele>
        <time>2024-08-13T10:37:03Z</time>
      </trkpt>
      <trkpt lat="44.83471" lon="6.1427">
        <ele>1426.4</ele>
        <time>2024-08-13T10:37:04Z</time>
      </trkpt>
      <trkpt lat="44.83471" lon="6.1427">
        <ele>1426.6</ele>
        <time>2024-08-13T10:37:05Z</time>
      </trkpt>
      <trkpt lat="44.83473" lon="6.14269">
        <ele>1426.6</ele>
        <time>2024-08-13T10:37:06Z</time>
      </trkpt>
      <trkpt lat="44.83473" lon="6.14269">
        <ele>1427</ele>
        <time>2024-08-13T10:37:07Z</time>
      </trkpt>
      <trkpt lat="44.83475" lon="6.14267">
        <ele>1427</ele>
        <time>2024-08-13T10:37:08Z</time>
      </trkpt>
      <trkpt lat="44.83475" lon="6.14267">
        <ele>1427</ele>
        <time>2024-08-13T10:37:09Z</time>
      </trkpt>
      <trkpt lat="44.83477" lon="6.14265">
        <ele>1427.2</ele>
        <time>2024-08-13T10:37:10Z</time>
      </trkpt>
      <trkpt lat="44.83477" lon="6.14265">
        <ele>1427.4</ele>
        <time>2024-08-13T10:37:11Z</time>
      </trkpt>
      <trkpt lat="44.83477" lon="6.14265">
        <ele>1427.4</ele>
        <time>2024-08-13T10:37:12Z</time>
      </trkpt>
      <trkpt lat="44.83477" lon="6.14265">
        <ele>1427.6</ele>
        <time>2024-08-13T10:37:13Z</time>
      </trkpt>
      <trkpt lat="44.8348" lon="6.14265">
        <ele>1427.8</ele>
        <time>2024-08-13T10:37:14Z</time>
      </trkpt>
      <trkpt lat="44.8348" lon="6.14265">
        <ele>1427.8</ele>
        <time>2024-08-13T10:37:15Z</time>
      </trkpt>
      <trkpt lat="44.8348" lon="6.14265">
        <ele>1427.8</ele>
        <time>2024-08-13T10:37:16Z</time>
      </trkpt>
      <trkpt lat="44.83482" lon="6.14265">
        <ele>1428.2</ele>
        <time>2024-08-13T10:37:17Z</time>
      </trkpt>
      <trkpt lat="44.83482" lon="6.14265">
        <ele>1428.2</ele>
        <time>2024-08-13T10:37:18Z</time>
      </trkpt>
      <trkpt lat="44.83482" lon="6.14265">
        <ele>1428.4</ele>
        <time>2024-08-13T10:37:19Z</time>
      </trkpt>
      <trkpt lat="44.83484" lon="6.14264">
        <ele>1428.8</ele>
        <time>2024-08-13T10:37:20Z</time>
      </trkpt>
      <trkpt lat="44.83484" lon="6.14264">
        <ele>1429</ele>
        <time>2024-08-13T10:37:21Z</time>
      </trkpt>
      <trkpt lat="44.83484" lon="6.14264">
        <ele>1429.2</ele>
        <time>2024-08-13T10:37:22Z</time>
      </trkpt>
      <trkpt lat="44.83484" lon="6.14264">
        <ele>1429.4</ele>
        <time>2024-08-13T10:37:23Z</time>
      </trkpt>
      <trkpt lat="44.83484" lon="6.14264">
        <ele>1429.8</ele>
        <time>2024-08-13T10:37:24Z</time>
      </trkpt>
      <trkpt lat="44.83484" lon="6.14264">
        <ele>1429.8</ele>
        <time>2024-08-13T10:37:25Z</time>
      </trkpt>
      <trkpt lat="44.83484" lon="6.14264">
        <ele>1429.6</ele>
        <time>2024-08-13T10:37:26Z</time>
      </trkpt>
      <trkpt lat="44.83485" lon="6.14261">
        <ele>1429.6</ele>
        <time>2024-08-13T10:37:27Z</time>
      </trkpt>
      <trkpt lat="44.83485" lon="6.14261">
        <ele>1429.8</ele>
        <time>2024-08-13T10:37:28Z</time>
      </trkpt>
      <trkpt lat="44.83485" lon="6.14261">
        <ele>1430</ele>
        <time>2024-08-13T10:37:29Z</time>
      </trkpt>
      <trkpt lat="44.83485" lon="6.14261">
        <ele>1430.2</ele>
        <time>2024-08-13T10:37:30Z</time>
      </trkpt>
      <trkpt lat="44.83486" lon="6.14258">
        <ele>1430.2</ele>
        <time>2024-08-13T10:37:31Z</time>
      </trkpt>
      <trkpt lat="44.83486" lon="6.14258">
        <ele>1430.4</ele>
        <time>2024-08-13T10:37:32Z</time>
      </trkpt>
      <trkpt lat="44.83486" lon="6.14258">
        <ele>1430.8</ele>
        <time>2024-08-13T10:37:33Z</time>
      </trkpt>
      <trkpt lat="44.83486" lon="6.14258">
        <ele>1431</ele>
        <time>2024-08-13T10:37:34Z</time>
      </trkpt>
      <trkpt lat="44.83487" lon="6.14256">
        <ele>1431.2</ele>
        <time>2024-08-13T10:37:35Z</time>
      </trkpt>
      <trkpt lat="44.83487" lon="6.14256">
        <ele>1431.6</ele>
        <time>2024-08-13T10:37:36Z</time>
      </trkpt>
      <trkpt lat="44.83487" lon="6.14256">
        <ele>1432</ele>
        <time>2024-08-13T10:37:37Z</time>
      </trkpt>
      <trkpt lat="44.8349" lon="6.14256">
        <ele>1432.4</ele>
        <time>2024-08-13T10:37:38Z</time>
      </trkpt>
      <trkpt lat="44.8349" lon="6.14256">
        <ele>1432.4</ele>
        <time>2024-08-13T10:37:39Z</time>
      </trkpt>
      <trkpt lat="44.8349" lon="6.14256">
        <ele>1432.6</ele>
        <time>2024-08-13T10:37:40Z</time>
      </trkpt>
      <trkpt lat="44.83492" lon="6.14255">
        <ele>1432.6</ele>
        <time>2024-08-13T10:37:41Z</time>
      </trkpt>
      <trkpt lat="44.83492" lon="6.14255">
        <ele>1432.8</ele>
        <time>2024-08-13T10:37:42Z</time>
      </trkpt>
      <trkpt lat="44.83492" lon="6.14255">
        <ele>1432.8</ele>
        <time>2024-08-13T10:37:43Z</time>
      </trkpt>
      <trkpt lat="44.83493" lon="6.14253">
        <ele>1432.8</ele>
        <time>2024-08-13T10:37:44Z</time>
      </trkpt>
      <trkpt lat="44.83493" lon="6.14253">
        <ele>1432.8</ele>
        <time>2024-08-13T10:37:45Z</time>
      </trkpt>
      <trkpt lat="44.83493" lon="6.14253">
        <ele>1433.4</ele>
        <time>2024-08-13T10:37:46Z</time>
      </trkpt>
      <trkpt lat="44.83495" lon="6.14252">
        <ele>1433.4</ele>
        <time>2024-08-13T10:37:47Z</time>
      </trkpt>
      <trkpt lat="44.83495" lon="6.14252">
        <ele>1433.6</ele>
        <time>2024-08-13T10:37:48Z</time>
      </trkpt>
      <trkpt lat="44.83495" lon="6.14252">
        <ele>1433.8</ele>
        <time>2024-08-13T10:37:49Z</time>
      </trkpt>
      <trkpt lat="44.83495" lon="6.14252">
        <ele>1433.8</ele>
        <time>2024-08-13T10:37:50Z</time>
      </trkpt>
      <trkpt lat="44.83497" lon="6.1425">
        <ele>1433.8</ele>
        <time>2024-08-13T10:37:51Z</time>
      </trkpt>
      <trkpt lat="44.83497" lon="6.1425">
        <ele>1433.8</ele>
        <time>2024-08-13T10:37:52Z</time>
      </trkpt>
      <trkpt lat="44.83497" lon="6.1425">
        <ele>1434</ele>
        <time>2024-08-13T10:37:53Z</time>
      </trkpt>
      <trkpt lat="44.83498" lon="6.14248">
        <ele>1434.2</ele>
        <time>2024-08-13T10:37:54Z</time>
      </trkpt>
      <trkpt lat="44.83498" lon="6.14248">
        <ele>1434.2</ele>
        <time>2024-08-13T10:37:55Z</time>
      </trkpt>
      <trkpt lat="44.83498" lon="6.14248">
        <ele>1434.6</ele>
        <time>2024-08-13T10:37:56Z</time>
      </trkpt>
      <trkpt lat="44.835" lon="6.14246">
        <ele>1435</ele>
        <time>2024-08-13T10:37:57Z</time>
      </trkpt>
      <trkpt lat="44.835" lon="6.14246">
        <ele>1435</ele>
        <time>2024-08-13T10:37:58Z</time>
      </trkpt>
      <trkpt lat="44.835" lon="6.14246">
        <ele>1435.2</ele>
        <time>2024-08-13T10:37:59Z</time>
      </trkpt>
      <trkpt lat="44.83501" lon="6.14245">
        <ele>1435.4</ele>
        <time>2024-08-13T10:38:00Z</time>
      </trkpt>
      <trkpt lat="44.83501" lon="6.14245">
        <ele>1436</ele>
        <time>2024-08-13T10:38:01Z</time>
      </trkpt>
      <trkpt lat="44.83503" lon="6.14243">
        <ele>1436.4</ele>
        <time>2024-08-13T10:38:02Z</time>
      </trkpt>
      <trkpt lat="44.83503" lon="6.14243">
        <ele>1436.4</ele>
        <time>2024-08-13T10:38:03Z</time>
      </trkpt>
      <trkpt lat="44.83503" lon="6.14243">
        <ele>1436.4</ele>
        <time>2024-08-13T10:38:04Z</time>
      </trkpt>
      <trkpt lat="44.83505" lon="6.14242">
        <ele>1436.4</ele>
        <time>2024-08-13T10:38:05Z</time>
      </trkpt>
      <trkpt lat="44.83505" lon="6.14242">
        <ele>1436.4</ele>
        <time>2024-08-13T10:38:06Z</time>
      </trkpt>
      <trkpt lat="44.83505" lon="6.14242">
        <ele>1436.8</ele>
        <time>2024-08-13T10:38:07Z</time>
      </trkpt>
      <trkpt lat="44.83506" lon="6.1424">
        <ele>1436.8</ele>
        <time>2024-08-13T10:38:08Z</time>
      </trkpt>
      <trkpt lat="44.83506" lon="6.1424">
        <ele>1437</ele>
        <time>2024-08-13T10:38:09Z</time>
      </trkpt>
      <trkpt lat="44.83506" lon="6.1424">
        <ele>1437.2</ele>
        <time>2024-08-13T10:38:10Z</time>
      </trkpt>
      <trkpt lat="44.83508" lon="6.14238">
        <ele>1437.2</ele>
        <time>2024-08-13T10:38:11Z</time>
      </trkpt>
      <trkpt lat="44.83508" lon="6.14238">
        <ele>1437.4</ele>
        <time>2024-08-13T10:38:12Z</time>
      </trkpt>
      <trkpt lat="44.83508" lon="6.14238">
        <ele>1437.6</ele>
        <time>2024-08-13T10:38:13Z</time>
      </trkpt>
      <trkpt lat="44.83511" lon="6.14237">
        <ele>1437.6</ele>
        <time>2024-08-13T10:38:14Z</time>
      </trkpt>
      <trkpt lat="44.83511" lon="6.14237">
        <ele>1437.8</ele>
        <time>2024-08-13T10:38:15Z</time>
      </trkpt>
      <trkpt lat="44.83511" lon="6.14237">
        <ele>1438.2</ele>
        <time>2024-08-13T10:38:16Z</time>
      </trkpt>
      <trkpt lat="44.83513" lon="6.14236">
        <ele>1438.2</ele>
        <time>2024-08-13T10:38:17Z</time>
      </trkpt>
      <trkpt lat="44.83513" lon="6.14236">
        <ele>1438.4</ele>
        <time>2024-08-13T10:38:18Z</time>
      </trkpt>
      <trkpt lat="44.83513" lon="6.14236">
        <ele>1438.6</ele>
        <time>2024-08-13T10:38:19Z</time>
      </trkpt>
      <trkpt lat="44.83516" lon="6.14235">
        <ele>1439</ele>
        <time>2024-08-13T10:38:20Z</time>
      </trkpt>
      <trkpt lat="44.83516" lon="6.14235">
        <ele>1439.4</ele>
        <time>2024-08-13T10:38:21Z</time>
      </trkpt>
      <trkpt lat="44.83516" lon="6.14235">
        <ele>1439.6</ele>
        <time>2024-08-13T10:38:22Z</time>
      </trkpt>
      <trkpt lat="44.83517" lon="6.14234">
        <ele>1439.6</ele>
        <time>2024-08-13T10:38:23Z</time>
      </trkpt>
      <trkpt lat="44.83517" lon="6.14234">
        <ele>1439.8</ele>
        <time>2024-08-13T10:38:24Z</time>
      </trkpt>
      <trkpt lat="44.83517" lon="6.14234">
        <ele>1440</ele>
        <time>2024-08-13T10:38:25Z</time>
      </trkpt>
      <trkpt lat="44.83517" lon="6.14234">
        <ele>1440</ele>
        <time>2024-08-13T10:38:26Z</time>
      </trkpt>
      <trkpt lat="44.8352" lon="6.14233">
        <ele>1440</ele>
        <time>2024-08-13T10:38:27Z</time>
      </trkpt>
      <trkpt lat="44.8352" lon="6.14233">
        <ele>1440.4</ele>
        <time>2024-08-13T10:38:28Z</time>
      </trkpt>
      <trkpt lat="44.8352" lon="6.14233">
        <ele>1440.4</ele>
        <time>2024-08-13T10:38:29Z</time>
      </trkpt>
      <trkpt lat="44.83522" lon="6.14232">
        <ele>1440.6</ele>
        <time>2024-08-13T10:38:30Z</time>
      </trkpt>
      <trkpt lat="44.83522" lon="6.14232">
        <ele>1441</ele>
        <time>2024-08-13T10:38:31Z</time>
      </trkpt>
      <trkpt lat="44.83522" lon="6.14232">
        <ele>1441</ele>
        <time>2024-08-13T10:38:32Z</time>
      </trkpt>
      <trkpt lat="44.83522" lon="6.14232">
        <ele>1441.2</ele>
        <time>2024-08-13T10:38:33Z</time>
      </trkpt>
      <trkpt lat="44.83524" lon="6.14231">
        <ele>1441.4</ele>
        <time>2024-08-13T10:38:34Z</time>
      </trkpt>
      <trkpt lat="44.83524" lon="6.14231">
        <ele>1441.8</ele>
        <time>2024-08-13T10:38:35Z</time>
      </trkpt>
      <trkpt lat="44.83524" lon="6.14231">
        <ele>1442.2</ele>
        <time>2024-08-13T10:38:36Z</time>
      </trkpt>
      <trkpt lat="44.83525" lon="6.1423">
        <ele>1442.4</ele>
        <time>2024-08-13T10:38:37Z</time>
      </trkpt>
      <trkpt lat="44.83525" lon="6.1423">
        <ele>1442.6</ele>
        <time>2024-08-13T10:38:38Z</time>
      </trkpt>
      <trkpt lat="44.83527" lon="6.14229">
        <ele>1442.6</ele>
        <time>2024-08-13T10:38:39Z</time>
      </trkpt>
      <trkpt lat="44.83527" lon="6.14229">
        <ele>1443</ele>
        <time>2024-08-13T10:38:40Z</time>
      </trkpt>
      <trkpt lat="44.83527" lon="6.14229">
        <ele>1443</ele>
        <time>2024-08-13T10:38:41Z</time>
      </trkpt>
      <trkpt lat="44.83527" lon="6.14229">
        <ele>1443.2</ele>
        <time>2024-08-13T10:38:42Z</time>
      </trkpt>
      <trkpt lat="44.83529" lon="6.14229">
        <ele>1443.4</ele>
        <time>2024-08-13T10:38:43Z</time>
      </trkpt>
      <trkpt lat="44.83529" lon="6.14229">
        <ele>1443.6</ele>
        <time>2024-08-13T10:38:44Z</time>
      </trkpt>
      <trkpt lat="44.83529" lon="6.14229">
        <ele>1443.8</ele>
        <time>2024-08-13T10:38:45Z</time>
      </trkpt>
      <trkpt lat="44.83529" lon="6.14229">
        <ele>1443.8</ele>
        <time>2024-08-13T10:38:46Z</time>
      </trkpt>
      <trkpt lat="44.83531" lon="6.14228">
        <ele>1444.4</ele>
        <time>2024-08-13T10:38:47Z</time>
      </trkpt>
      <trkpt lat="44.83531" lon="6.14228">
        <ele>1444.6</ele>
        <time>2024-08-13T10:38:48Z</time>
      </trkpt>
      <trkpt lat="44.83531" lon="6.14228">
        <ele>1444.6</ele>
        <time>2024-08-13T10:38:49Z</time>
      </trkpt>
      <trkpt lat="44.83533" lon="6.14228">
        <ele>1444.6</ele>
        <time>2024-08-13T10:38:50Z</time>
      </trkpt>
      <trkpt lat="44.83533" lon="6.14228">
        <ele>1445</ele>
        <time>2024-08-13T10:38:51Z</time>
      </trkpt>
      <trkpt lat="44.83533" lon="6.14228">
        <ele>1445.2</ele>
        <time>2024-08-13T10:38:52Z</time>
      </trkpt>
      <trkpt lat="44.83533" lon="6.14228">
        <ele>1445.2</ele>
        <time>2024-08-13T10:38:53Z</time>
      </trkpt>
      <trkpt lat="44.83533" lon="6.14228">
        <ele>1445.6</ele>
        <time>2024-08-13T10:38:54Z</time>
      </trkpt>
      <trkpt lat="44.83533" lon="6.14228">
        <ele>1445.8</ele>
        <time>2024-08-13T10:38:55Z</time>
      </trkpt>
      <trkpt lat="44.83533" lon="6.14228">
        <ele>1446</ele>
        <time>2024-08-13T10:38:56Z</time>
      </trkpt>
      <trkpt lat="44.83533" lon="6.14228">
        <ele>1446.2</ele>
        <time>2024-08-13T10:38:57Z</time>
      </trkpt>
      <trkpt lat="44.83533" lon="6.14228">
        <ele>1446.2</ele>
        <time>2024-08-13T10:38:58Z</time>
      </trkpt>
      <trkpt lat="44.83533" lon="6.14228">
        <ele>1446</ele>
        <time>2024-08-13T10:38:59Z</time>
      </trkpt>
      <trkpt lat="44.83533" lon="6.14228">
        <ele>1445.8</ele>
        <time>2024-08-13T10:39:00Z</time>
      </trkpt>
      <trkpt lat="44.83533" lon="6.14228">
        <ele>1445.8</ele>
        <time>2024-08-13T10:39:01Z</time>
      </trkpt>
      <trkpt lat="44.83533" lon="6.14228">
        <ele>1446</ele>
        <time>2024-08-13T10:39:02Z</time>
      </trkpt>
      <trkpt lat="44.83533" lon="6.14228">
        <ele>1446</ele>
        <time>2024-08-13T10:39:03Z</time>
      </trkpt>
      <trkpt lat="44.83533" lon="6.14228">
        <ele>1446</ele>
        <time>2024-08-13T10:39:04Z</time>
      </trkpt>
      <trkpt lat="44.83533" lon="6.14228">
        <ele>1446</ele>
        <time>2024-08-13T10:39:05Z</time>
      </trkpt>
      <trkpt lat="44.83533" lon="6.14228">
        <ele>1446</ele>
        <time>2024-08-13T10:39:06Z</time>
      </trkpt>
      <trkpt lat="44.83533" lon="6.14228">
        <ele>1446</ele>
        <time>2024-08-13T10:39:07Z</time>
      </trkpt>
      <trkpt lat="44.83533" lon="6.14228">
        <ele>1446</ele>
        <time>2024-08-13T10:39:08Z</time>
      </trkpt>
      <trkpt lat="44.83533" lon="6.14228">
        <ele>1446.2</ele>
        <time>2024-08-13T10:39:09Z</time>
      </trkpt>
      <trkpt lat="44.83533" lon="6.14228">
        <ele>1446.2</ele>
        <time>2024-08-13T10:39:10Z</time>
      </trkpt>
      <trkpt lat="44.83533" lon="6.14228">
        <ele>1446.2</ele>
        <time>2024-08-13T10:39:11Z</time>
      </trkpt>
      <trkpt lat="44.83533" lon="6.14228">
        <ele>1446.4</ele>
        <time>2024-08-13T10:39:12Z</time>
      </trkpt>
      <trkpt lat="44.83533" lon="6.14228">
        <ele>1446.4</ele>
        <time>2024-08-13T10:39:13Z</time>
      </trkpt>
      <trkpt lat="44.83533" lon="6.14228">
        <ele>1446.4</ele>
        <time>2024-08-13T10:39:14Z</time>
      </trkpt>
      <trkpt lat="44.83533" lon="6.14228">
        <ele>1446.4</ele>
        <time>2024-08-13T10:39:15Z</time>
      </trkpt>
      <trkpt lat="44.83533" lon="6.14228">
        <ele>1446.4</ele>
        <time>2024-08-13T10:39:16Z</time>
      </trkpt>
      <trkpt lat="44.83533" lon="6.14228">
        <ele>1446.4</ele>
        <time>2024-08-13T10:39:17Z</time>
      </trkpt>
      <trkpt lat="44.83533" lon="6.14228">
        <ele>1446.6</ele>
        <time>2024-08-13T10:39:18Z</time>
      </trkpt>
      <trkpt lat="44.83533" lon="6.14228">
        <ele>1446.8</ele>
        <time>2024-08-13T10:39:19Z</time>
      </trkpt>
      <trkpt lat="44.83533" lon="6.14228">
        <ele>1447</ele>
        <time>2024-08-13T10:39:20Z</time>
      </trkpt>
      <trkpt lat="44.83533" lon="6.14228">
        <ele>1447.2</ele>
        <time>2024-08-13T10:39:21Z</time>
      </trkpt>
      <trkpt lat="44.83533" lon="6.14228">
        <ele>1447.2</ele>
        <time>2024-08-13T10:39:22Z</time>
      </trkpt>
      <trkpt lat="44.83533" lon="6.14228">
        <ele>1447.2</ele>
        <time>2024-08-13T10:39:23Z</time>
      </trkpt>
      <trkpt lat="44.83533" lon="6.14228">
        <ele>1447.4</ele>
        <time>2024-08-13T10:39:24Z</time>
      </trkpt>
      <trkpt lat="44.83533" lon="6.14228">
        <ele>1447.2</ele>
        <time>2024-08-13T10:39:25Z</time>
      </trkpt>
      <trkpt lat="44.83535" lon="6.14229">
        <ele>1447.2</ele>
        <time>2024-08-13T10:39:26Z</time>
      </trkpt>
      <trkpt lat="44.83535" lon="6.14229">
        <ele>1447.4</ele>
        <time>2024-08-13T10:39:27Z</time>
      </trkpt>
      <trkpt lat="44.83535" lon="6.14229">
        <ele>1447.6</ele>
        <time>2024-08-13T10:39:28Z</time>
      </trkpt>
      <trkpt lat="44.83538" lon="6.14228">
        <ele>1447.6</ele>
        <time>2024-08-13T10:39:29Z</time>
      </trkpt>
      <trkpt lat="44.83538" lon="6.14228">
        <ele>1448.2</ele>
        <time>2024-08-13T10:39:30Z</time>
      </trkpt>
      <trkpt lat="44.8354" lon="6.14228">
        <ele>1448.4</ele>
        <time>2024-08-13T10:39:31Z</time>
      </trkpt>
      <trkpt lat="44.8354" lon="6.14228">
        <ele>1448.6</ele>
        <time>2024-08-13T10:39:32Z</time>
      </trkpt>
      <trkpt lat="44.8354" lon="6.14228">
        <ele>1449</ele>
        <time>2024-08-13T10:39:33Z</time>
      </trkpt>
      <trkpt lat="44.8354" lon="6.14228">
        <ele>1449</ele>
        <time>2024-08-13T10:39:34Z</time>
      </trkpt>
      <trkpt lat="44.83539" lon="6.14231">
        <ele>1449.2</ele>
        <time>2024-08-13T10:39:35Z</time>
      </trkpt>
      <trkpt lat="44.83539" lon="6.14231">
        <ele>1449.2</ele>
        <time>2024-08-13T10:39:36Z</time>
      </trkpt>
      <trkpt lat="44.83539" lon="6.14231">
        <ele>1449.6</ele>
        <time>2024-08-13T10:39:37Z</time>
      </trkpt>
      <trkpt lat="44.83538" lon="6.14234">
        <ele>1449.6</ele>
        <time>2024-08-13T10:39:38Z</time>
      </trkpt>
      <trkpt lat="44.83538" lon="6.14234">
        <ele>1449.8</ele>
        <time>2024-08-13T10:39:39Z</time>
      </trkpt>
      <trkpt lat="44.83538" lon="6.14234">
        <ele>1450.2</ele>
        <time>2024-08-13T10:39:40Z</time>
      </trkpt>
      <trkpt lat="44.83537" lon="6.14237">
        <ele>1450.2</ele>
        <time>2024-08-13T10:39:41Z</time>
      </trkpt>
      <trkpt lat="44.83537" lon="6.14237">
        <ele>1450.4</ele>
        <time>2024-08-13T10:39:42Z</time>
      </trkpt>
      <trkpt lat="44.83537" lon="6.14237">
        <ele>1450.4</ele>
        <time>2024-08-13T10:39:43Z</time>
      </trkpt>
      <trkpt lat="44.83537" lon="6.14237">
        <ele>1450.6</ele>
        <time>2024-08-13T10:39:44Z</time>
      </trkpt>
      <trkpt lat="44.83537" lon="6.14237">
        <ele>1450.8</ele>
        <time>2024-08-13T10:39:45Z</time>
      </trkpt>
      <trkpt lat="44.83536" lon="6.14239">
        <ele>1450.8</ele>
        <time>2024-08-13T10:39:46Z</time>
      </trkpt>
      <trkpt lat="44.83536" lon="6.14239">
        <ele>1451</ele>
        <time>2024-08-13T10:39:47Z</time>
      </trkpt>
      <trkpt lat="44.83534" lon="6.14242">
        <ele>1451</ele>
        <time>2024-08-13T10:39:48Z</time>
      </trkpt>
      <trkpt lat="44.83534" lon="6.14242">
        <ele>1451.2</ele>
        <time>2024-08-13T10:39:49Z</time>
      </trkpt>
      <trkpt lat="44.83533" lon="6.14244">
        <ele>1451.4</ele>
        <time>2024-08-13T10:39:50Z</time>
      </trkpt>
      <trkpt lat="44.83533" lon="6.14244">
        <ele>1451.6</ele>
        <time>2024-08-13T10:39:51Z</time>
      </trkpt>
      <trkpt lat="44.83532" lon="6.14247">
        <ele>1451.6</ele>
        <time>2024-08-13T10:39:52Z</time>
      </trkpt>
      <trkpt lat="44.83532" lon="6.14247">
        <ele>1451.6</ele>
        <time>2024-08-13T10:39:53Z</time>
      </trkpt>
      <trkpt lat="44.83531" lon="6.1425">
        <ele>1452</ele>
        <time>2024-08-13T10:39:54Z</time>
      </trkpt>
      <trkpt lat="44.83531" lon="6.1425">
        <ele>1452.2</ele>
        <time>2024-08-13T10:39:55Z</time>
      </trkpt>
      <trkpt lat="44.83531" lon="6.1425">
        <ele>1452.4</ele>
        <time>2024-08-13T10:39:56Z</time>
      </trkpt>
      <trkpt lat="44.83531" lon="6.1425">
        <ele>1452.8</ele>
        <time>2024-08-13T10:39:57Z</time>
      </trkpt>
      <trkpt lat="44.83531" lon="6.14254">
        <ele>1453</ele>
        <time>2024-08-13T10:39:58Z</time>
      </trkpt>
      <trkpt lat="44.83531" lon="6.14254">
        <ele>1453</ele>
        <time>2024-08-13T10:39:59Z</time>
      </trkpt>
      <trkpt lat="44.83531" lon="6.14254">
        <ele>1453.2</ele>
        <time>2024-08-13T10:40:00Z</time>
      </trkpt>
      <trkpt lat="44.83529" lon="6.14257">
        <ele>1453.4</ele>
        <time>2024-08-13T10:40:01Z</time>
      </trkpt>
      <trkpt lat="44.83529" lon="6.14257">
        <ele>1453.4</ele>
        <time>2024-08-13T10:40:02Z</time>
      </trkpt>
      <trkpt lat="44.83529" lon="6.14257">
        <ele>1453.4</ele>
        <time>2024-08-13T10:40:03Z</time>
      </trkpt>
      <trkpt lat="44.83528" lon="6.14258">
        <ele>1453.4</ele>
        <time>2024-08-13T10:40:04Z</time>
      </trkpt>
      <trkpt lat="44.83528" lon="6.14258">
        <ele>1453.4</ele>
        <time>2024-08-13T10:40:05Z</time>
      </trkpt>
      <trkpt lat="44.83528" lon="6.14258">
        <ele>1453.6</ele>
        <time>2024-08-13T10:40:06Z</time>
      </trkpt>
      <trkpt lat="44.83526" lon="6.14261">
        <ele>1453.6</ele>
        <time>2024-08-13T10:40:07Z</time>
      </trkpt>
      <trkpt lat="44.83526" lon="6.14261">
        <ele>1453.8</ele>
        <time>2024-08-13T10:40:08Z</time>
      </trkpt>
      <trkpt lat="44.83526" lon="6.14261">
        <ele>1454</ele>
        <time>2024-08-13T10:40:09Z</time>
      </trkpt>
      <trkpt lat="44.83526" lon="6.14261">
        <ele>1454.2</ele>
        <time>2024-08-13T10:40:10Z</time>
      </trkpt>
      <trkpt lat="44.83526" lon="6.14263">
        <ele>1454.4</ele>
        <time>2024-08-13T10:40:11Z</time>
      </trkpt>
      <trkpt lat="44.83526" lon="6.14263">
        <ele>1454.6</ele>
        <time>2024-08-13T10:40:12Z</time>
      </trkpt>
      <trkpt lat="44.83526" lon="6.14263">
        <ele>1455</ele>
        <time>2024-08-13T10:40:13Z</time>
      </trkpt>
      <trkpt lat="44.83525" lon="6.14267">
        <ele>1455</ele>
        <time>2024-08-13T10:40:14Z</time>
      </trkpt>
      <trkpt lat="44.83525" lon="6.14267">
        <ele>1455</ele>
        <time>2024-08-13T10:40:15Z</time>
      </trkpt>
      <trkpt lat="44.83524" lon="6.14269">
        <ele>1455.2</ele>
        <time>2024-08-13T10:40:16Z</time>
      </trkpt>
      <trkpt lat="44.83524" lon="6.14269">
        <ele>1455.6</ele>
        <time>2024-08-13T10:40:17Z</time>
      </trkpt>
      <trkpt lat="44.83524" lon="6.14269">
        <ele>1456</ele>
        <time>2024-08-13T10:40:18Z</time>
      </trkpt>
      <trkpt lat="44.83523" lon="6.14272">
        <ele>1456.4</ele>
        <time>2024-08-13T10:40:19Z</time>
      </trkpt>
      <trkpt lat="44.83523" lon="6.14272">
        <ele>1456.6</ele>
        <time>2024-08-13T10:40:20Z</time>
      </trkpt>
      <trkpt lat="44.83523" lon="6.14272">
        <ele>1456.6</ele>
        <time>2024-08-13T10:40:21Z</time>
      </trkpt>
      <trkpt lat="44.83522" lon="6.14274">
        <ele>1456.8</ele>
        <time>2024-08-13T10:40:22Z</time>
      </trkpt>
      <trkpt lat="44.83522" lon="6.14274">
        <ele>1456.8</ele>
        <time>2024-08-13T10:40:23Z</time>
      </trkpt>
      <trkpt lat="44.83522" lon="6.14274">
        <ele>1457.2</ele>
        <time>2024-08-13T10:40:24Z</time>
      </trkpt>
      <trkpt lat="44.83521" lon="6.14277">
        <ele>1457.2</ele>
        <time>2024-08-13T10:40:25Z</time>
      </trkpt>
      <trkpt lat="44.83521" lon="6.14277">
        <ele>1457.2</ele>
        <time>2024-08-13T10:40:26Z</time>
      </trkpt>
      <trkpt lat="44.83521" lon="6.14277">
        <ele>1457.4</ele>
        <time>2024-08-13T10:40:27Z</time>
      </trkpt>
      <trkpt lat="44.83521" lon="6.14277">
        <ele>1457.6</ele>
        <time>2024-08-13T10:40:28Z</time>
      </trkpt>
      <trkpt lat="44.83521" lon="6.14277">
        <ele>1458.2</ele>
        <time>2024-08-13T10:40:29Z</time>
      </trkpt>
      <trkpt lat="44.83523" lon="6.14276">
        <ele>1458.6</ele>
        <time>2024-08-13T10:40:30Z</time>
      </trkpt>
      <trkpt lat="44.83523" lon="6.14276">
        <ele>1458.6</ele>
        <time>2024-08-13T10:40:31Z</time>
      </trkpt>
      <trkpt lat="44.83523" lon="6.14276">
        <ele>1458.6</ele>
        <time>2024-08-13T10:40:32Z</time>
      </trkpt>
      <trkpt lat="44.83523" lon="6.14276">
        <ele>1458.6</ele>
        <time>2024-08-13T10:40:33Z</time>
      </trkpt>
      <trkpt lat="44.83523" lon="6.14276">
        <ele>1459.2</ele>
        <time>2024-08-13T10:40:34Z</time>
      </trkpt>
      <trkpt lat="44.83525" lon="6.14274">
        <ele>1459.2</ele>
        <time>2024-08-13T10:40:35Z</time>
      </trkpt>
      <trkpt lat="44.83525" lon="6.14274">
        <ele>1459.4</ele>
        <time>2024-08-13T10:40:36Z</time>
      </trkpt>
      <trkpt lat="44.83525" lon="6.14274">
        <ele>1459.4</ele>
        <time>2024-08-13T10:40:37Z</time>
      </trkpt>
      <trkpt lat="44.83527" lon="6.14272">
        <ele>1459.6</ele>
        <time>2024-08-13T10:40:38Z</time>
      </trkpt>
      <trkpt lat="44.83527" lon="6.14272">
        <ele>1459.6</ele>
        <time>2024-08-13T10:40:39Z</time>
      </trkpt>
      <trkpt lat="44.83527" lon="6.14272">
        <ele>1459.6</ele>
        <time>2024-08-13T10:40:40Z</time>
      </trkpt>
      <trkpt lat="44.83527" lon="6.14272">
        <ele>1459.8</ele>
        <time>2024-08-13T10:40:41Z</time>
      </trkpt>
      <trkpt lat="44.83527" lon="6.14272">
        <ele>1459.8</ele>
        <time>2024-08-13T10:40:42Z</time>
      </trkpt>
      <trkpt lat="44.83527" lon="6.14272">
        <ele>1459.8</ele>
        <time>2024-08-13T10:40:43Z</time>
      </trkpt>
      <trkpt lat="44.83529" lon="6.1427">
        <ele>1460.2</ele>
        <time>2024-08-13T10:40:44Z</time>
      </trkpt>
      <trkpt lat="44.83529" lon="6.1427">
        <ele>1460.4</ele>
        <time>2024-08-13T10:40:45Z</time>
      </trkpt>
      <trkpt lat="44.83531" lon="6.14269">
        <ele>1460.4</ele>
        <time>2024-08-13T10:40:46Z</time>
      </trkpt>
      <trkpt lat="44.83531" lon="6.14269">
        <ele>1460.6</ele>
        <time>2024-08-13T10:40:47Z</time>
      </trkpt>
      <trkpt lat="44.83532" lon="6.14267">
        <ele>1461.2</ele>
        <time>2024-08-13T10:40:48Z</time>
      </trkpt>
      <trkpt lat="44.83532" lon="6.14267">
        <ele>1461.2</ele>
        <time>2024-08-13T10:40:49Z</time>
      </trkpt>
      <trkpt lat="44.83532" lon="6.14267">
        <ele>1461.4</ele>
        <time>2024-08-13T10:40:50Z</time>
      </trkpt>
      <trkpt lat="44.83534" lon="6.14266">
        <ele>1461.4</ele>
        <time>2024-08-13T10:40:51Z</time>
      </trkpt>
      <trkpt lat="44.83534" lon="6.14266">
        <ele>1461.4</ele>
        <time>2024-08-13T10:40:52Z</time>
      </trkpt>
      <trkpt lat="44.83534" lon="6.14266">
        <ele>1461.6</ele>
        <time>2024-08-13T10:40:53Z</time>
      </trkpt>
      <trkpt lat="44.83534" lon="6.14266">
        <ele>1461.8</ele>
        <time>2024-08-13T10:40:54Z</time>
      </trkpt>
      <trkpt lat="44.83535" lon="6.14264">
        <ele>1461.8</ele>
        <time>2024-08-13T10:40:55Z</time>
      </trkpt>
      <trkpt lat="44.83535" lon="6.14264">
        <ele>1461.8</ele>
        <time>2024-08-13T10:40:56Z</time>
      </trkpt>
      <trkpt lat="44.83535" lon="6.14264">
        <ele>1462.2</ele>
        <time>2024-08-13T10:40:57Z</time>
      </trkpt>
      <trkpt lat="44.83538" lon="6.14262">
        <ele>1462.4</ele>
        <time>2024-08-13T10:40:58Z</time>
      </trkpt>
      <trkpt lat="44.83538" lon="6.14262">
        <ele>1462.8</ele>
        <time>2024-08-13T10:40:59Z</time>
      </trkpt>
      <trkpt lat="44.83538" lon="6.14262">
        <ele>1462.8</ele>
        <time>2024-08-13T10:41:00Z</time>
      </trkpt>
      <trkpt lat="44.8354" lon="6.1426">
        <ele>1462.8</ele>
        <time>2024-08-13T10:41:01Z</time>
      </trkpt>
      <trkpt lat="44.8354" lon="6.1426">
        <ele>1463.2</ele>
        <time>2024-08-13T10:41:02Z</time>
      </trkpt>
      <trkpt lat="44.8354" lon="6.1426">
        <ele>1463.2</ele>
        <time>2024-08-13T10:41:03Z</time>
      </trkpt>
      <trkpt lat="44.83541" lon="6.14259">
        <ele>1463.4</ele>
        <time>2024-08-13T10:41:04Z</time>
      </trkpt>
      <trkpt lat="44.83541" lon="6.14259">
        <ele>1463.6</ele>
        <time>2024-08-13T10:41:05Z</time>
      </trkpt>
      <trkpt lat="44.83541" lon="6.14259">
        <ele>1463.6</ele>
        <time>2024-08-13T10:41:06Z</time>
      </trkpt>
      <trkpt lat="44.83543" lon="6.14258">
        <ele>1463.8</ele>
        <time>2024-08-13T10:41:07Z</time>
      </trkpt>
      <trkpt lat="44.83543" lon="6.14258">
        <ele>1464</ele>
        <time>2024-08-13T10:41:08Z</time>
      </trkpt>
      <trkpt lat="44.83543" lon="6.14258">
        <ele>1464.2</ele>
        <time>2024-08-13T10:41:09Z</time>
      </trkpt>
      <trkpt lat="44.83545" lon="6.14257">
        <ele>1464.4</ele>
        <time>2024-08-13T10:41:10Z</time>
      </trkpt>
      <trkpt lat="44.83545" lon="6.14257">
        <ele>1464.4</ele>
        <time>2024-08-13T10:41:11Z</time>
      </trkpt>
      <trkpt lat="44.83545" lon="6.14257">
        <ele>1464.4</ele>
        <time>2024-08-13T10:41:12Z</time>
      </trkpt>
      <trkpt lat="44.83548" lon="6.14256">
        <ele>1464.8</ele>
        <time>2024-08-13T10:41:13Z</time>
      </trkpt>
      <trkpt lat="44.83548" lon="6.14256">
        <ele>1465.2</ele>
        <time>2024-08-13T10:41:14Z</time>
      </trkpt>
      <trkpt lat="44.83548" lon="6.14256">
        <ele>1465.2</ele>
        <time>2024-08-13T10:41:15Z</time>
      </trkpt>
      <trkpt lat="44.83549" lon="6.14254">
        <ele>1465.6</ele>
        <time>2024-08-13T10:41:16Z</time>
      </trkpt>
      <trkpt lat="44.83549" lon="6.14254">
        <ele>1465.6</ele>
        <time>2024-08-13T10:41:17Z</time>
      </trkpt>
      <trkpt lat="44.83549" lon="6.14254">
        <ele>1465.6</ele>
        <time>2024-08-13T10:41:18Z</time>
      </trkpt>
      <trkpt lat="44.83552" lon="6.14254">
        <ele>1465.6</ele>
        <time>2024-08-13T10:41:19Z</time>
      </trkpt>
      <trkpt lat="44.83552" lon="6.14254">
        <ele>1465.6</ele>
        <time>2024-08-13T10:41:20Z</time>
      </trkpt>
      <trkpt lat="44.83552" lon="6.14254">
        <ele>1465.6</ele>
        <time>2024-08-13T10:41:21Z</time>
      </trkpt>
      <trkpt lat="44.83555" lon="6.14253">
        <ele>1466.2</ele>
        <time>2024-08-13T10:41:22Z</time>
      </trkpt>
      <trkpt lat="44.83555" lon="6.14253">
        <ele>1466.2</ele>
        <time>2024-08-13T10:41:23Z</time>
      </trkpt>
      <trkpt lat="44.83555" lon="6.14253">
        <ele>1466.6</ele>
        <time>2024-08-13T10:41:24Z</time>
      </trkpt>
      <trkpt lat="44.83557" lon="6.14253">
        <ele>1466.6</ele>
        <time>2024-08-13T10:41:25Z</time>
      </trkpt>
      <trkpt lat="44.83557" lon="6.14253">
        <ele>1466.8</ele>
        <time>2024-08-13T10:41:26Z</time>
      </trkpt>
      <trkpt lat="44.83558" lon="6.14253">
        <ele>1466.8</ele>
        <time>2024-08-13T10:41:27Z</time>
      </trkpt>
      <trkpt lat="44.83558" lon="6.14253">
        <ele>1466.8</ele>
        <time>2024-08-13T10:41:28Z</time>
      </trkpt>
      <trkpt lat="44.83558" lon="6.14253">
        <ele>1467</ele>
        <time>2024-08-13T10:41:29Z</time>
      </trkpt>
      <trkpt lat="44.83558" lon="6.14253">
        <ele>1467.2</ele>
        <time>2024-08-13T10:41:30Z</time>
      </trkpt>
      <trkpt lat="44.83561" lon="6.14252">
        <ele>1467.4</ele>
        <time>2024-08-13T10:41:31Z</time>
      </trkpt>
      <trkpt lat="44.83561" lon="6.14252">
        <ele>1467.6</ele>
        <time>2024-08-13T10:41:32Z</time>
      </trkpt>
      <trkpt lat="44.83561" lon="6.14252">
        <ele>1467.8</ele>
        <time>2024-08-13T10:41:33Z</time>
      </trkpt>
      <trkpt lat="44.83563" lon="6.14252">
        <ele>1467.8</ele>
        <time>2024-08-13T10:41:34Z</time>
      </trkpt>
      <trkpt lat="44.83563" lon="6.14252">
        <ele>1468.4</ele>
        <time>2024-08-13T10:41:35Z</time>
      </trkpt>
      <trkpt lat="44.83563" lon="6.14252">
        <ele>1468.6</ele>
        <time>2024-08-13T10:41:36Z</time>
      </trkpt>
      <trkpt lat="44.83565" lon="6.14252">
        <ele>1468.6</ele>
        <time>2024-08-13T10:41:37Z</time>
      </trkpt>
      <trkpt lat="44.83565" lon="6.14252">
        <ele>1469</ele>
        <time>2024-08-13T10:41:38Z</time>
      </trkpt>
      <trkpt lat="44.83565" lon="6.14252">
        <ele>1469.4</ele>
        <time>2024-08-13T10:41:39Z</time>
      </trkpt>
      <trkpt lat="44.83567" lon="6.14253">
        <ele>1469.6</ele>
        <time>2024-08-13T10:41:40Z</time>
      </trkpt>
      <trkpt lat="44.83567" lon="6.14253">
        <ele>1469.6</ele>
        <time>2024-08-13T10:41:41Z</time>
      </trkpt>
      <trkpt lat="44.83567" lon="6.14255">
        <ele>1469.6</ele>
        <time>2024-08-13T10:41:42Z</time>
      </trkpt>
      <trkpt lat="44.83567" lon="6.14255">
        <ele>1469.6</ele>
        <time>2024-08-13T10:41:43Z</time>
      </trkpt>
      <trkpt lat="44.83566" lon="6.14257">
        <ele>1469.8</ele>
        <time>2024-08-13T10:41:44Z</time>
      </trkpt>
      <trkpt lat="44.83566" lon="6.14257">
        <ele>1470</ele>
        <time>2024-08-13T10:41:45Z</time>
      </trkpt>
      <trkpt lat="44.83566" lon="6.14257">
        <ele>1470.2</ele>
        <time>2024-08-13T10:41:46Z</time>
      </trkpt>
      <trkpt lat="44.83566" lon="6.14257">
        <ele>1470.6</ele>
        <time>2024-08-13T10:41:47Z</time>
      </trkpt>
      <trkpt lat="44.83564" lon="6.14259">
        <ele>1470.6</ele>
        <time>2024-08-13T10:41:48Z</time>
      </trkpt>
      <trkpt lat="44.83564" lon="6.14259">
        <ele>1470.6</ele>
        <time>2024-08-13T10:41:49Z</time>
      </trkpt>
      <trkpt lat="44.83564" lon="6.14259">
        <ele>1470.8</ele>
        <time>2024-08-13T10:41:50Z</time>
      </trkpt>
      <trkpt lat="44.83562" lon="6.1426">
        <ele>1470.8</ele>
        <time>2024-08-13T10:41:51Z</time>
      </trkpt>
      <trkpt lat="44.83562" lon="6.1426">
        <ele>1470.8</ele>
        <time>2024-08-13T10:41:52Z</time>
      </trkpt>
      <trkpt lat="44.8356" lon="6.14261">
        <ele>1471</ele>
        <time>2024-08-13T10:41:53Z</time>
      </trkpt>
      <trkpt lat="44.8356" lon="6.14261">
        <ele>1471</ele>
        <time>2024-08-13T10:41:54Z</time>
      </trkpt>
      <trkpt lat="44.83559" lon="6.14262">
        <ele>1471</ele>
        <time>2024-08-13T10:41:55Z</time>
      </trkpt>
      <trkpt lat="44.83559" lon="6.14262">
        <ele>1471.4</ele>
        <time>2024-08-13T10:41:56Z</time>
      </trkpt>
      <trkpt lat="44.83557" lon="6.14264">
        <ele>1471.4</ele>
        <time>2024-08-13T10:41:57Z</time>
      </trkpt>
      <trkpt lat="44.83557" lon="6.14264">
        <ele>1471.4</ele>
        <time>2024-08-13T10:41:58Z</time>
      </trkpt>
      <trkpt lat="44.83555" lon="6.14266">
        <ele>1471.6</ele>
        <time>2024-08-13T10:41:59Z</time>
      </trkpt>
      <trkpt lat="44.83555" lon="6.14266">
        <ele>1471.8</ele>
        <time>2024-08-13T10:42:00Z</time>
      </trkpt>
      <trkpt lat="44.83555" lon="6.14269">
        <ele>1471.8</ele>
        <time>2024-08-13T10:42:01Z</time>
      </trkpt>
      <trkpt lat="44.83555" lon="6.14269">
        <ele>1471.8</ele>
        <time>2024-08-13T10:42:02Z</time>
      </trkpt>
      <trkpt lat="44.83553" lon="6.14271">
        <ele>1471.8</ele>
        <time>2024-08-13T10:42:03Z</time>
      </trkpt>
      <trkpt lat="44.83553" lon="6.14271">
        <ele>1472</ele>
        <time>2024-08-13T10:42:04Z</time>
      </trkpt>
      <trkpt lat="44.83553" lon="6.14271">
        <ele>1472.2</ele>
        <time>2024-08-13T10:42:05Z</time>
      </trkpt>
      <trkpt lat="44.83552" lon="6.14275">
        <ele>1472.2</ele>
        <time>2024-08-13T10:42:06Z</time>
      </trkpt>
      <trkpt lat="44.83552" lon="6.14275">
        <ele>1472.2</ele>
        <time>2024-08-13T10:42:07Z</time>
      </trkpt>
      <trkpt lat="44.83551" lon="6.14277">
        <ele>1472.4</ele>
        <time>2024-08-13T10:42:08Z</time>
      </trkpt>
      <trkpt lat="44.83551" lon="6.14277">
        <ele>1472.8</ele>
        <time>2024-08-13T10:42:09Z</time>
      </trkpt>
      <trkpt lat="44.83551" lon="6.14277">
        <ele>1473</ele>
        <time>2024-08-13T10:42:10Z</time>
      </trkpt>
      <trkpt lat="44.8355" lon="6.1428">
        <ele>1473</ele>
        <time>2024-08-13T10:42:11Z</time>
      </trkpt>
      <trkpt lat="44.8355" lon="6.1428">
        <ele>1473.4</ele>
        <time>2024-08-13T10:42:12Z</time>
      </trkpt>
      <trkpt lat="44.8355" lon="6.1428">
        <ele>1473.4</ele>
        <time>2024-08-13T10:42:13Z</time>
      </trkpt>
      <trkpt lat="44.83548" lon="6.14282">
        <ele>1473.6</ele>
        <time>2024-08-13T10:42:14Z</time>
      </trkpt>
      <trkpt lat="44.83548" lon="6.14282">
        <ele>1473.6</ele>
        <time>2024-08-13T10:42:15Z</time>
      </trkpt>
      <trkpt lat="44.83548" lon="6.14282">
        <ele>1474</ele>
        <time>2024-08-13T10:42:16Z</time>
      </trkpt>
      <trkpt lat="44.83548" lon="6.14282">
        <ele>1474.2</ele>
        <time>2024-08-13T10:42:17Z</time>
      </trkpt>
      <trkpt lat="44.83548" lon="6.14282">
        <ele>1474.2</ele>
        <time>2024-08-13T10:42:18Z</time>
      </trkpt>
      <trkpt lat="44.83548" lon="6.14282">
        <ele>1474.4</ele>
        <time>2024-08-13T10:42:19Z</time>
      </trkpt>
      <trkpt lat="44.83548" lon="6.14282">
        <ele>1474.4</ele>
        <time>2024-08-13T10:42:20Z</time>
      </trkpt>
      <trkpt lat="44.83548" lon="6.14282">
        <ele>1474.6</ele>
        <time>2024-08-13T10:42:21Z</time>
      </trkpt>
      <trkpt lat="44.83548" lon="6.14282">
        <ele>1474.8</ele>
        <time>2024-08-13T10:42:22Z</time>
      </trkpt>
      <trkpt lat="44.8355" lon="6.14281">
        <ele>1475.2</ele>
        <time>2024-08-13T10:42:23Z</time>
      </trkpt>
      <trkpt lat="44.8355" lon="6.14281">
        <ele>1475.2</ele>
        <time>2024-08-13T10:42:24Z</time>
      </trkpt>
      <trkpt lat="44.8355" lon="6.14281">
        <ele>1475.4</ele>
        <time>2024-08-13T10:42:25Z</time>
      </trkpt>
      <trkpt lat="44.8355" lon="6.14281">
        <ele>1475.6</ele>
        <time>2024-08-13T10:42:26Z</time>
      </trkpt>
      <trkpt lat="44.8355" lon="6.14281">
        <ele>1476</ele>
        <time>2024-08-13T10:42:27Z</time>
      </trkpt>
      <trkpt lat="44.8355" lon="6.14281">
        <ele>1476</ele>
        <time>2024-08-13T10:42:28Z</time>
      </trkpt>
      <trkpt lat="44.8355" lon="6.14281">
        <ele>1476</ele>
        <time>2024-08-13T10:42:29Z</time>
      </trkpt>
      <trkpt lat="44.8355" lon="6.14281">
        <ele>1476.2</ele>
        <time>2024-08-13T10:42:30Z</time>
      </trkpt>
      <trkpt lat="44.83551" lon="6.1428">
        <ele>1476.6</ele>
        <time>2024-08-13T10:42:31Z</time>
      </trkpt>
      <trkpt lat="44.83551" lon="6.1428">
        <ele>1476.8</ele>
        <time>2024-08-13T10:42:32Z</time>
      </trkpt>
      <trkpt lat="44.83551" lon="6.1428">
        <ele>1477</ele>
        <time>2024-08-13T10:42:33Z</time>
      </trkpt>
      <trkpt lat="44.83551" lon="6.1428">
        <ele>1477.2</ele>
        <time>2024-08-13T10:42:34Z</time>
      </trkpt>
      <trkpt lat="44.83551" lon="6.1428">
        <ele>1477.2</ele>
        <time>2024-08-13T10:42:35Z</time>
      </trkpt>
      <trkpt lat="44.83554" lon="6.14278">
        <ele>1477.2</ele>
        <time>2024-08-13T10:42:36Z</time>
      </trkpt>
      <trkpt lat="44.83554" lon="6.14278">
        <ele>1477.6</ele>
        <time>2024-08-13T10:42:37Z</time>
      </trkpt>
      <trkpt lat="44.83557" lon="6.14276">
        <ele>1478</ele>
        <time>2024-08-13T10:42:38Z</time>
      </trkpt>
      <trkpt lat="44.83557" lon="6.14276">
        <ele>1478.4</ele>
        <time>2024-08-13T10:42:39Z</time>
      </trkpt>
      <trkpt lat="44.8356" lon="6.14275">
        <ele>1478.4</ele>
        <time>2024-08-13T10:42:40Z</time>
      </trkpt>
      <trkpt lat="44.8356" lon="6.14275">
        <ele>1478.6</ele>
        <time>2024-08-13T10:42:41Z</time>
      </trkpt>
      <trkpt lat="44.83563" lon="6.14273">
        <ele>1479</ele>
        <time>2024-08-13T10:42:42Z</time>
      </trkpt>
      <trkpt lat="44.83563" lon="6.14273">
        <ele>1479.2</ele>
        <time>2024-08-13T10:42:43Z</time>
      </trkpt>
      <trkpt lat="44.83563" lon="6.14273">
        <ele>1479.6</ele>
        <time>2024-08-13T10:42:44Z</time>
      </trkpt>
      <trkpt lat="44.83563" lon="6.14273">
        <ele>1479.6</ele>
        <time>2024-08-13T10:42:45Z</time>
      </trkpt>
      <trkpt lat="44.83563" lon="6.14273">
        <ele>1479.6</ele>
        <time>2024-08-13T10:42:46Z</time>
      </trkpt>
      <trkpt lat="44.83563" lon="6.14273">
        <ele>1479.6</ele>
        <time>2024-08-13T10:42:47Z</time>
      </trkpt>
      <trkpt lat="44.83563" lon="6.14273">
        <ele>1479.8</ele>
        <time>2024-08-13T10:42:48Z</time>
      </trkpt>
      <trkpt lat="44.83563" lon="6.14273">
        <ele>1479.8</ele>
        <time>2024-08-13T10:42:49Z</time>
      </trkpt>
      <trkpt lat="44.83563" lon="6.14273">
        <ele>1479.8</ele>
        <time>2024-08-13T10:42:50Z</time>
      </trkpt>
      <trkpt lat="44.83564" lon="6.14276">
        <ele>1479.8</ele>
        <time>2024-08-13T10:42:51Z</time>
      </trkpt>
      <trkpt lat="44.83564" lon="6.14276">
        <ele>1479.6</ele>
        <time>2024-08-13T10:42:52Z</time>
      </trkpt>
      <trkpt lat="44.83564" lon="6.14276">
        <ele>1479.6</ele>
        <time>2024-08-13T10:42:53Z</time>
      </trkpt>
      <trkpt lat="44.83564" lon="6.14276">
        <ele>1479.4</ele>
        <time>2024-08-13T10:42:54Z</time>
      </trkpt>
      <trkpt lat="44.83564" lon="6.14276">
        <ele>1479.2</ele>
        <time>2024-08-13T10:42:55Z</time>
      </trkpt>
      <trkpt lat="44.83564" lon="6.14276">
        <ele>1479.2</ele>
        <time>2024-08-13T10:42:56Z</time>
      </trkpt>
      <trkpt lat="44.83564" lon="6.14276">
        <ele>1479.2</ele>
        <time>2024-08-13T10:42:57Z</time>
      </trkpt>
      <trkpt lat="44.83564" lon="6.14276">
        <ele>1479.2</ele>
        <time>2024-08-13T10:42:58Z</time>
      </trkpt>
      <trkpt lat="44.83564" lon="6.14276">
        <ele>1479.2</ele>
        <time>2024-08-13T10:42:59Z</time>
      </trkpt>
      <trkpt lat="44.83564" lon="6.14276">
        <ele>1479</ele>
        <time>2024-08-13T10:43:00Z</time>
      </trkpt>
      <trkpt lat="44.83564" lon="6.14276">
        <ele>1479</ele>
        <time>2024-08-13T10:43:01Z</time>
      </trkpt>
      <trkpt lat="44.83564" lon="6.14276">
        <ele>1479</ele>
        <time>2024-08-13T10:43:02Z</time>
      </trkpt>
      <trkpt lat="44.83564" lon="6.14276">
        <ele>1479</ele>
        <time>2024-08-13T10:43:03Z</time>
      </trkpt>
      <trkpt lat="44.83564" lon="6.14276">
        <ele>1479</ele>
        <time>2024-08-13T10:43:04Z</time>
      </trkpt>
      <trkpt lat="44.83564" lon="6.14276">
        <ele>1479.2</ele>
        <time>2024-08-13T10:43:05Z</time>
      </trkpt>
      <trkpt lat="44.83564" lon="6.14276">
        <ele>1479.2</ele>
        <time>2024-08-13T10:43:06Z</time>
      </trkpt>
      <trkpt lat="44.83564" lon="6.14276">
        <ele>1479.2</ele>
        <time>2024-08-13T10:43:07Z</time>
      </trkpt>
      <trkpt lat="44.83564" lon="6.14276">
        <ele>1479.2</ele>
        <time>2024-08-13T10:43:08Z</time>
      </trkpt>
      <trkpt lat="44.83564" lon="6.14276">
        <ele>1479.2</ele>
        <time>2024-08-13T10:43:09Z</time>
      </trkpt>
      <trkpt lat="44.83564" lon="6.14276">
        <ele>1479.4</ele>
        <time>2024-08-13T10:43:10Z</time>
      </trkpt>
      <trkpt lat="44.83564" lon="6.14276">
        <ele>1479.4</ele>
        <time>2024-08-13T10:43:11Z</time>
      </trkpt>
      <trkpt lat="44.83564" lon="6.14276">
        <ele>1479.4</ele>
        <time>2024-08-13T10:43:12Z</time>
      </trkpt>
      <trkpt lat="44.83564" lon="6.14276">
        <ele>1479.2</ele>
        <time>2024-08-13T10:43:13Z</time>
      </trkpt>
      <trkpt lat="44.83564" lon="6.14276">
        <ele>1479.2</ele>
        <time>2024-08-13T10:43:14Z</time>
      </trkpt>
      <trkpt lat="44.83564" lon="6.14276">
        <ele>1479.4</ele>
        <time>2024-08-13T10:43:15Z</time>
      </trkpt>
      <trkpt lat="44.83564" lon="6.14276">
        <ele>1479.4</ele>
        <time>2024-08-13T10:43:16Z</time>
      </trkpt>
      <trkpt lat="44.83564" lon="6.14276">
        <ele>1479.6</ele>
        <time>2024-08-13T10:43:17Z</time>
      </trkpt>
      <trkpt lat="44.83564" lon="6.14276">
        <ele>1479.6</ele>
        <time>2024-08-13T10:43:18Z</time>
      </trkpt>
      <trkpt lat="44.83564" lon="6.14276">
        <ele>1479.4</ele>
        <time>2024-08-13T10:43:19Z</time>
      </trkpt>
      <trkpt lat="44.83564" lon="6.14276">
        <ele>1479.4</ele>
        <time>2024-08-13T10:43:20Z</time>
      </trkpt>
      <trkpt lat="44.83564" lon="6.14276">
        <ele>1479.4</ele>
        <time>2024-08-13T10:43:21Z</time>
      </trkpt>
      <trkpt lat="44.83564" lon="6.14276">
        <ele>1479.4</ele>
        <time>2024-08-13T10:43:22Z</time>
      </trkpt>
      <trkpt lat="44.83564" lon="6.14276">
        <ele>1479.8</ele>
        <time>2024-08-13T10:43:23Z</time>
      </trkpt>
      <trkpt lat="44.83564" lon="6.14276">
        <ele>1480.4</ele>
        <time>2024-08-13T10:43:24Z</time>
      </trkpt>
      <trkpt lat="44.83564" lon="6.14276">
        <ele>1480.4</ele>
        <time>2024-08-13T10:43:25Z</time>
      </trkpt>
      <trkpt lat="44.83564" lon="6.14276">
        <ele>1480.8</ele>
        <time>2024-08-13T10:43:26Z</time>
      </trkpt>
      <trkpt lat="44.83565" lon="6.14276">
        <ele>1481.4</ele>
        <time>2024-08-13T10:43:27Z</time>
      </trkpt>
      <trkpt lat="44.83565" lon="6.14276">
        <ele>1481.4</ele>
        <time>2024-08-13T10:43:28Z</time>
      </trkpt>
      <trkpt lat="44.83565" lon="6.14276">
        <ele>1481.8</ele>
        <time>2024-08-13T10:43:29Z</time>
      </trkpt>
      <trkpt lat="44.83568" lon="6.14273">
        <ele>1481.8</ele>
        <time>2024-08-13T10:43:30Z</time>
      </trkpt>
      <trkpt lat="44.83568" lon="6.14273">
        <ele>1482</ele>
        <time>2024-08-13T10:43:31Z</time>
      </trkpt>
      <trkpt lat="44.8357" lon="6.14273">
        <ele>1482</ele>
        <time>2024-08-13T10:43:32Z</time>
      </trkpt>
      <trkpt lat="44.8357" lon="6.14273">
        <ele>1482.6</ele>
        <time>2024-08-13T10:43:33Z</time>
      </trkpt>
      <trkpt lat="44.83572" lon="6.14272">
        <ele>1482.8</ele>
        <time>2024-08-13T10:43:34Z</time>
      </trkpt>
      <trkpt lat="44.83572" lon="6.14272">
        <ele>1482.8</ele>
        <time>2024-08-13T10:43:35Z</time>
      </trkpt>
      <trkpt lat="44.83572" lon="6.14272">
        <ele>1483.2</ele>
        <time>2024-08-13T10:43:36Z</time>
      </trkpt>
      <trkpt lat="44.83572" lon="6.14272">
        <ele>1483.2</ele>
        <time>2024-08-13T10:43:37Z</time>
      </trkpt>
      <trkpt lat="44.83575" lon="6.14272">
        <ele>1483.2</ele>
        <time>2024-08-13T10:43:38Z</time>
      </trkpt>
      <trkpt lat="44.83575" lon="6.14272">
        <ele>1483.4</ele>
        <time>2024-08-13T10:43:39Z</time>
      </trkpt>
      <trkpt lat="44.83575" lon="6.14272">
        <ele>1483.6</ele>
        <time>2024-08-13T10:43:40Z</time>
      </trkpt>
      <trkpt lat="44.83577" lon="6.14273">
        <ele>1483.8</ele>
        <time>2024-08-13T10:43:41Z</time>
      </trkpt>
      <trkpt lat="44.83577" lon="6.14273">
        <ele>1484</ele>
        <time>2024-08-13T10:43:42Z</time>
      </trkpt>
      <trkpt lat="44.83577" lon="6.14273">
        <ele>1484.2</ele>
        <time>2024-08-13T10:43:43Z</time>
      </trkpt>
      <trkpt lat="44.8358" lon="6.14274">
        <ele>1484.2</ele>
        <time>2024-08-13T10:43:44Z</time>
      </trkpt>
      <trkpt lat="44.8358" lon="6.14274">
        <ele>1484.6</ele>
        <time>2024-08-13T10:43:45Z</time>
      </trkpt>
      <trkpt lat="44.8358" lon="6.14274">
        <ele>1484.8</ele>
        <time>2024-08-13T10:43:46Z</time>
      </trkpt>
      <trkpt lat="44.8358" lon="6.14274">
        <ele>1485</ele>
        <time>2024-08-13T10:43:47Z</time>
      </trkpt>
      <trkpt lat="44.8358" lon="6.14274">
        <ele>1485</ele>
        <time>2024-08-13T10:43:48Z</time>
      </trkpt>
      <trkpt lat="44.83581" lon="6.14275">
        <ele>1485.2</ele>
        <time>2024-08-13T10:43:49Z</time>
      </trkpt>
      <trkpt lat="44.83581" lon="6.14275">
        <ele>1485.4</ele>
        <time>2024-08-13T10:43:50Z</time>
      </trkpt>
      <trkpt lat="44.83581" lon="6.14275">
        <ele>1485.8</ele>
        <time>2024-08-13T10:43:51Z</time>
      </trkpt>
      <trkpt lat="44.83584" lon="6.14275">
        <ele>1486.2</ele>
        <time>2024-08-13T10:43:52Z</time>
      </trkpt>
      <trkpt lat="44.83584" lon="6.14275">
        <ele>1486.2</ele>
        <time>2024-08-13T10:43:53Z</time>
      </trkpt>
      <trkpt lat="44.83584" lon="6.14275">
        <ele>1486.6</ele>
        <time>2024-08-13T10:43:54Z</time>
      </trkpt>
      <trkpt lat="44.83586" lon="6.14275">
        <ele>1486.8</ele>
        <time>2024-08-13T10:43:55Z</time>
      </trkpt>
      <trkpt lat="44.83586" lon="6.14275">
        <ele>1486.8</ele>
        <time>2024-08-13T10:43:56Z</time>
      </trkpt>
      <trkpt lat="44.83586" lon="6.14275">
        <ele>1487</ele>
        <time>2024-08-13T10:43:57Z</time>
      </trkpt>
      <trkpt lat="44.83588" lon="6.14272">
        <ele>1487</ele>
        <time>2024-08-13T10:43:58Z</time>
      </trkpt>
      <trkpt lat="44.83588" lon="6.14272">
        <ele>1487</ele>
        <time>2024-08-13T10:43:59Z</time>
      </trkpt>
      <trkpt lat="44.83589" lon="6.14269">
        <ele>1487.4</ele>
        <time>2024-08-13T10:44:00Z</time>
      </trkpt>
      <trkpt lat="44.83589" lon="6.14269">
        <ele>1487.4</ele>
        <time>2024-08-13T10:44:01Z</time>
      </trkpt>
      <trkpt lat="44.83589" lon="6.14269">
        <ele>1487.8</ele>
        <time>2024-08-13T10:44:02Z</time>
      </trkpt>
      <trkpt lat="44.8359" lon="6.14266">
        <ele>1487.8</ele>
        <time>2024-08-13T10:44:03Z</time>
      </trkpt>
      <trkpt lat="44.8359" lon="6.14266">
        <ele>1487.8</ele>
        <time>2024-08-13T10:44:04Z</time>
      </trkpt>
      <trkpt lat="44.8359" lon="6.14264">
        <ele>1487.8</ele>
        <time>2024-08-13T10:44:05Z</time>
      </trkpt>
      <trkpt lat="44.8359" lon="6.14264">
        <ele>1488</ele>
        <time>2024-08-13T10:44:06Z</time>
      </trkpt>
      <trkpt lat="44.83591" lon="6.14261">
        <ele>1488</ele>
        <time>2024-08-13T10:44:07Z</time>
      </trkpt>
      <trkpt lat="44.83591" lon="6.14261">
        <ele>1488</ele>
        <time>2024-08-13T10:44:08Z</time>
      </trkpt>
      <trkpt lat="44.83591" lon="6.14261">
        <ele>1488.2</ele>
        <time>2024-08-13T10:44:09Z</time>
      </trkpt>
      <trkpt lat="44.83592" lon="6.14257">
        <ele>1488.2</ele>
        <time>2024-08-13T10:44:10Z</time>
      </trkpt>
      <trkpt lat="44.83592" lon="6.14257">
        <ele>1488.4</ele>
        <time>2024-08-13T10:44:11Z</time>
      </trkpt>
      <trkpt lat="44.83592" lon="6.14257">
        <ele>1488.6</ele>
        <time>2024-08-13T10:44:12Z</time>
      </trkpt>
      <trkpt lat="44.83593" lon="6.14253">
        <ele>1488.4</ele>
        <time>2024-08-13T10:44:13Z</time>
      </trkpt>
      <trkpt lat="44.83593" lon="6.14253">
        <ele>1488.4</ele>
        <time>2024-08-13T10:44:14Z</time>
      </trkpt>
      <trkpt lat="44.83595" lon="6.14251">
        <ele>1488.4</ele>
        <time>2024-08-13T10:44:15Z</time>
      </trkpt>
      <trkpt lat="44.83595" lon="6.14251">
        <ele>1488.6</ele>
        <time>2024-08-13T10:44:16Z</time>
      </trkpt>
      <trkpt lat="44.83595" lon="6.14251">
        <ele>1488.6</ele>
        <time>2024-08-13T10:44:17Z</time>
      </trkpt>
      <trkpt lat="44.83597" lon="6.14249">
        <ele>1488.8</ele>
        <time>2024-08-13T10:44:18Z</time>
      </trkpt>
      <trkpt lat="44.83597" lon="6.14249">
        <ele>1489.2</ele>
        <time>2024-08-13T10:44:19Z</time>
      </trkpt>
      <trkpt lat="44.83599" lon="6.14247">
        <ele>1489.4</ele>
        <time>2024-08-13T10:44:20Z</time>
      </trkpt>
      <trkpt lat="44.83599" lon="6.14247">
        <ele>1489.6</ele>
        <time>2024-08-13T10:44:21Z</time>
      </trkpt>
      <trkpt lat="44.83601" lon="6.14246">
        <ele>1489.4</ele>
        <time>2024-08-13T10:44:22Z</time>
      </trkpt>
      <trkpt lat="44.83601" lon="6.14246">
        <ele>1489.6</ele>
        <time>2024-08-13T10:44:23Z</time>
      </trkpt>
      <trkpt lat="44.83601" lon="6.14246">
        <ele>1489.6</ele>
        <time>2024-08-13T10:44:24Z</time>
      </trkpt>
      <trkpt lat="44.83603" lon="6.14245">
        <ele>1489.8</ele>
        <time>2024-08-13T10:44:25Z</time>
      </trkpt>
      <trkpt lat="44.83603" lon="6.14245">
        <ele>1490</ele>
        <time>2024-08-13T10:44:26Z</time>
      </trkpt>
      <trkpt lat="44.83605" lon="6.14245">
        <ele>1490.2</ele>
        <time>2024-08-13T10:44:27Z</time>
      </trkpt>
      <trkpt lat="44.83605" lon="6.14245">
        <ele>1490.4</ele>
        <time>2024-08-13T10:44:28Z</time>
      </trkpt>
      <trkpt lat="44.83605" lon="6.14245">
        <ele>1490.4</ele>
        <time>2024-08-13T10:44:29Z</time>
      </trkpt>
      <trkpt lat="44.83607" lon="6.14244">
        <ele>1490.8</ele>
        <time>2024-08-13T10:44:30Z</time>
      </trkpt>
      <trkpt lat="44.83607" lon="6.14244">
        <ele>1490.8</ele>
        <time>2024-08-13T10:44:31Z</time>
      </trkpt>
      <trkpt lat="44.83607" lon="6.14244">
        <ele>1491</ele>
        <time>2024-08-13T10:44:32Z</time>
      </trkpt>
      <trkpt lat="44.8361" lon="6.14244">
        <ele>1491.2</ele>
        <time>2024-08-13T10:44:33Z</time>
      </trkpt>
      <trkpt lat="44.8361" lon="6.14244">
        <ele>1491.2</ele>
        <time>2024-08-13T10:44:34Z</time>
      </trkpt>
      <trkpt lat="44.8361" lon="6.14244">
        <ele>1491.4</ele>
        <time>2024-08-13T10:44:35Z</time>
      </trkpt>
      <trkpt lat="44.83613" lon="6.14244">
        <ele>1491.8</ele>
        <time>2024-08-13T10:44:36Z</time>
      </trkpt>
      <trkpt lat="44.83613" lon="6.14244">
        <ele>1492.4</ele>
        <time>2024-08-13T10:44:37Z</time>
      </trkpt>
      <trkpt lat="44.83613" lon="6.14244">
        <ele>1492.4</ele>
        <time>2024-08-13T10:44:38Z</time>
      </trkpt>
      <trkpt lat="44.83613" lon="6.14244">
        <ele>1492.4</ele>
        <time>2024-08-13T10:44:39Z</time>
      </trkpt>
      <trkpt lat="44.83615" lon="6.14244">
        <ele>1493</ele>
        <time>2024-08-13T10:44:40Z</time>
      </trkpt>
      <trkpt lat="44.83615" lon="6.14244">
        <ele>1493</ele>
        <time>2024-08-13T10:44:41Z</time>
      </trkpt>
      <trkpt lat="44.83615" lon="6.14244">
        <ele>1493</ele>
        <time>2024-08-13T10:44:42Z</time>
      </trkpt>
      <trkpt lat="44.83616" lon="6.14242">
        <ele>1493.4</ele>
        <time>2024-08-13T10:44:43Z</time>
      </trkpt>
      <trkpt lat="44.83616" lon="6.14242">
        <ele>1493.8</ele>
        <time>2024-08-13T10:44:44Z</time>
      </trkpt>
      <trkpt lat="44.83616" lon="6.14242">
        <ele>1493.8</ele>
        <time>2024-08-13T10:44:45Z</time>
      </trkpt>
      <trkpt lat="44.83616" lon="6.14242">
        <ele>1493.8</ele>
        <time>2024-08-13T10:44:46Z</time>
      </trkpt>
      <trkpt lat="44.83618" lon="6.14241">
        <ele>1494.2</ele>
        <time>2024-08-13T10:44:47Z</time>
      </trkpt>
      <trkpt lat="44.83618" lon="6.14241">
        <ele>1494.2</ele>
        <time>2024-08-13T10:44:48Z</time>
      </trkpt>
      <trkpt lat="44.83618" lon="6.14241">
        <ele>1494.2</ele>
        <time>2024-08-13T10:44:49Z</time>
      </trkpt>
      <trkpt lat="44.83621" lon="6.1424">
        <ele>1494.8</ele>
        <time>2024-08-13T10:44:50Z</time>
      </trkpt>
      <trkpt lat="44.83621" lon="6.1424">
        <ele>1495</ele>
        <time>2024-08-13T10:44:51Z</time>
      </trkpt>
      <trkpt lat="44.83621" lon="6.1424">
        <ele>1495.4</ele>
        <time>2024-08-13T10:44:52Z</time>
      </trkpt>
      <trkpt lat="44.83623" lon="6.14239">
        <ele>1495.4</ele>
        <time>2024-08-13T10:44:53Z</time>
      </trkpt>
      <trkpt lat="44.83623" lon="6.14239">
        <ele>1495.4</ele>
        <time>2024-08-13T10:44:54Z</time>
      </trkpt>
      <trkpt lat="44.83625" lon="6.1424">
        <ele>1495.6</ele>
        <time>2024-08-13T10:44:55Z</time>
      </trkpt>
      <trkpt lat="44.83625" lon="6.1424">
        <ele>1495.6</ele>
        <time>2024-08-13T10:44:56Z</time>
      </trkpt>
      <trkpt lat="44.83625" lon="6.1424">
        <ele>1495.6</ele>
        <time>2024-08-13T10:44:57Z</time>
      </trkpt>
      <trkpt lat="44.83625" lon="6.1424">
        <ele>1496.2</ele>
        <time>2024-08-13T10:44:58Z</time>
      </trkpt>
      <trkpt lat="44.83625" lon="6.1424">
        <ele>1496.2</ele>
        <time>2024-08-13T10:44:59Z</time>
      </trkpt>
      <trkpt lat="44.83627" lon="6.14241">
        <ele>1496.2</ele>
        <time>2024-08-13T10:45:00Z</time>
      </trkpt>
      <trkpt lat="44.83627" lon="6.14241">
        <ele>1497</ele>
        <time>2024-08-13T10:45:01Z</time>
      </trkpt>
      <trkpt lat="44.83627" lon="6.14241">
        <ele>1497.2</ele>
        <time>2024-08-13T10:45:02Z</time>
      </trkpt>
      <trkpt lat="44.83629" lon="6.1424">
        <ele>1497.2</ele>
        <time>2024-08-13T10:45:03Z</time>
      </trkpt>
      <trkpt lat="44.83629" lon="6.1424">
        <ele>1497.4</ele>
        <time>2024-08-13T10:45:04Z</time>
      </trkpt>
      <trkpt lat="44.83629" lon="6.1424">
        <ele>1497.4</ele>
        <time>2024-08-13T10:45:05Z</time>
      </trkpt>
      <trkpt lat="44.83631" lon="6.1424">
        <ele>1497.6</ele>
        <time>2024-08-13T10:45:06Z</time>
      </trkpt>
      <trkpt lat="44.83631" lon="6.1424">
        <ele>1497.8</ele>
        <time>2024-08-13T10:45:07Z</time>
      </trkpt>
      <trkpt lat="44.83631" lon="6.1424">
        <ele>1498</ele>
        <time>2024-08-13T10:45:08Z</time>
      </trkpt>
      <trkpt lat="44.83631" lon="6.1424">
        <ele>1498.2</ele>
        <time>2024-08-13T10:45:09Z</time>
      </trkpt>
      <trkpt lat="44.83633" lon="6.14239">
        <ele>1498.6</ele>
        <time>2024-08-13T10:45:10Z</time>
      </trkpt>
      <trkpt lat="44.83633" lon="6.14239">
        <ele>1498.8</ele>
        <time>2024-08-13T10:45:11Z</time>
      </trkpt>
      <trkpt lat="44.83633" lon="6.14239">
        <ele>1498.8</ele>
        <time>2024-08-13T10:45:12Z</time>
      </trkpt>
      <trkpt lat="44.83635" lon="6.14237">
        <ele>1499.2</ele>
        <time>2024-08-13T10:45:13Z</time>
      </trkpt>
      <trkpt lat="44.83635" lon="6.14237">
        <ele>1499.2</ele>
        <time>2024-08-13T10:45:14Z</time>
      </trkpt>
      <trkpt lat="44.83635" lon="6.14237">
        <ele>1499.2</ele>
        <time>2024-08-13T10:45:15Z</time>
      </trkpt>
      <trkpt lat="44.83637" lon="6.14236">
        <ele>1499.4</ele>
        <time>2024-08-13T10:45:16Z</time>
      </trkpt>
      <trkpt lat="44.83637" lon="6.14236">
        <ele>1500</ele>
        <time>2024-08-13T10:45:17Z</time>
      </trkpt>
      <trkpt lat="44.83637" lon="6.14236">
        <ele>1500</ele>
        <time>2024-08-13T10:45:18Z</time>
      </trkpt>
      <trkpt lat="44.83639" lon="6.14235">
        <ele>1500</ele>
        <time>2024-08-13T10:45:19Z</time>
      </trkpt>
      <trkpt lat="44.83639" lon="6.14235">
        <ele>1500.2</ele>
        <time>2024-08-13T10:45:20Z</time>
      </trkpt>
      <trkpt lat="44.83639" lon="6.14235">
        <ele>1500.2</ele>
        <time>2024-08-13T10:45:21Z</time>
      </trkpt>
      <trkpt lat="44.83641" lon="6.14234">
        <ele>1500.2</ele>
        <time>2024-08-13T10:45:22Z</time>
      </trkpt>
      <trkpt lat="44.83641" lon="6.14234">
        <ele>1500.4</ele>
        <time>2024-08-13T10:45:23Z</time>
      </trkpt>
      <trkpt lat="44.83643" lon="6.14233">
        <ele>1501</ele>
        <time>2024-08-13T10:45:24Z</time>
      </trkpt>
      <trkpt lat="44.83643" lon="6.14233">
        <ele>1501</ele>
        <time>2024-08-13T10:45:25Z</time>
      </trkpt>
      <trkpt lat="44.83643" lon="6.14233">
        <ele>1501.4</ele>
        <time>2024-08-13T10:45:26Z</time>
      </trkpt>
      <trkpt lat="44.83645" lon="6.14232">
        <ele>1501.6</ele>
        <time>2024-08-13T10:45:27Z</time>
      </trkpt>
      <trkpt lat="44.83645" lon="6.14232">
        <ele>1501.6</ele>
        <time>2024-08-13T10:45:28Z</time>
      </trkpt>
      <trkpt lat="44.83645" lon="6.14232">
        <ele>1501.8</ele>
        <time>2024-08-13T10:45:29Z</time>
      </trkpt>
      <trkpt lat="44.83646" lon="6.14231">
        <ele>1502.2</ele>
        <time>2024-08-13T10:45:30Z</time>
      </trkpt>
      <trkpt lat="44.83646" lon="6.14231">
        <ele>1502.2</ele>
        <time>2024-08-13T10:45:31Z</time>
      </trkpt>
      <trkpt lat="44.83646" lon="6.14231">
        <ele>1502.6</ele>
        <time>2024-08-13T10:45:32Z</time>
      </trkpt>
      <trkpt lat="44.83646" lon="6.14231">
        <ele>1503</ele>
        <time>2024-08-13T10:45:33Z</time>
      </trkpt>
      <trkpt lat="44.83648" lon="6.14229">
        <ele>1503</ele>
        <time>2024-08-13T10:45:34Z</time>
      </trkpt>
      <trkpt lat="44.83648" lon="6.14229">
        <ele>1503.2</ele>
        <time>2024-08-13T10:45:35Z</time>
      </trkpt>
      <trkpt lat="44.83648" lon="6.14229">
        <ele>1503.2</ele>
        <time>2024-08-13T10:45:36Z</time>
      </trkpt>
      <trkpt lat="44.8365" lon="6.14228">
        <ele>1503.2</ele>
        <time>2024-08-13T10:45:37Z</time>
      </trkpt>
      <trkpt lat="44.8365" lon="6.14228">
        <ele>1503.4</ele>
        <time>2024-08-13T10:45:38Z</time>
      </trkpt>
      <trkpt lat="44.8365" lon="6.14228">
        <ele>1503.6</ele>
        <time>2024-08-13T10:45:39Z</time>
      </trkpt>
      <trkpt lat="44.83652" lon="6.14227">
        <ele>1503.6</ele>
        <time>2024-08-13T10:45:40Z</time>
      </trkpt>
      <trkpt lat="44.83652" lon="6.14227">
        <ele>1504.4</ele>
        <time>2024-08-13T10:45:41Z</time>
      </trkpt>
      <trkpt lat="44.83652" lon="6.14227">
        <ele>1504.4</ele>
        <time>2024-08-13T10:45:42Z</time>
      </trkpt>
      <trkpt lat="44.83652" lon="6.14227">
        <ele>1504.6</ele>
        <time>2024-08-13T10:45:43Z</time>
      </trkpt>
      <trkpt lat="44.83654" lon="6.14226">
        <ele>1505</ele>
        <time>2024-08-13T10:45:44Z</time>
      </trkpt>
      <trkpt lat="44.83654" lon="6.14226">
        <ele>1505.2</ele>
        <time>2024-08-13T10:45:45Z</time>
      </trkpt>
      <trkpt lat="44.83654" lon="6.14226">
        <ele>1505.2</ele>
        <time>2024-08-13T10:45:46Z</time>
      </trkpt>
      <trkpt lat="44.83654" lon="6.14226">
        <ele>1505.2</ele>
        <time>2024-08-13T10:45:47Z</time>
      </trkpt>
      <trkpt lat="44.83655" lon="6.14224">
        <ele>1505.2</ele>
        <time>2024-08-13T10:45:48Z</time>
      </trkpt>
      <trkpt lat="44.83655" lon="6.14224">
        <ele>1505.4</ele>
        <time>2024-08-13T10:45:49Z</time>
      </trkpt>
      <trkpt lat="44.83658" lon="6.14223">
        <ele>1505.6</ele>
        <time>2024-08-13T10:45:50Z</time>
      </trkpt>
      <trkpt lat="44.83658" lon="6.14223">
        <ele>1505.6</ele>
        <time>2024-08-13T10:45:51Z</time>
      </trkpt>
      <trkpt lat="44.8366" lon="6.14222">
        <ele>1505.8</ele>
        <time>2024-08-13T10:45:52Z</time>
      </trkpt>
      <trkpt lat="44.8366" lon="6.14222">
        <ele>1506.2</ele>
        <time>2024-08-13T10:45:53Z</time>
      </trkpt>
      <trkpt lat="44.83662" lon="6.14221">
        <ele>1506.2</ele>
        <time>2024-08-13T10:45:54Z</time>
      </trkpt>
      <trkpt lat="44.83662" lon="6.14221">
        <ele>1506.4</ele>
        <time>2024-08-13T10:45:55Z</time>
      </trkpt>
      <trkpt lat="44.83662" lon="6.14221">
        <ele>1506.4</ele>
        <time>2024-08-13T10:45:56Z</time>
      </trkpt>
      <trkpt lat="44.83664" lon="6.14221">
        <ele>1506.6</ele>
        <time>2024-08-13T10:45:57Z</time>
      </trkpt>
      <trkpt lat="44.83664" lon="6.14221">
        <ele>1506.8</ele>
        <time>2024-08-13T10:45:58Z</time>
      </trkpt>
      <trkpt lat="44.83664" lon="6.14221">
        <ele>1507</ele>
        <time>2024-08-13T10:45:59Z</time>
      </trkpt>
      <trkpt lat="44.83664" lon="6.14221">
        <ele>1507</ele>
        <time>2024-08-13T10:46:00Z</time>
      </trkpt>
      <trkpt lat="44.83664" lon="6.14221">
        <ele>1507</ele>
        <time>2024-08-13T10:46:01Z</time>
      </trkpt>
      <trkpt lat="44.83664" lon="6.14221">
        <ele>1507.6</ele>
        <time>2024-08-13T10:46:02Z</time>
      </trkpt>
      <trkpt lat="44.83666" lon="6.14221">
        <ele>1507.6</ele>
        <time>2024-08-13T10:46:03Z</time>
      </trkpt>
      <trkpt lat="44.83666" lon="6.14221">
        <ele>1508</ele>
        <time>2024-08-13T10:46:04Z</time>
      </trkpt>
      <trkpt lat="44.83666" lon="6.14221">
        <ele>1508</ele>
        <time>2024-08-13T10:46:05Z</time>
      </trkpt>
      <trkpt lat="44.83668" lon="6.14219">
        <ele>1508</ele>
        <time>2024-08-13T10:46:06Z</time>
      </trkpt>
      <trkpt lat="44.83668" lon="6.14219">
        <ele>1508.2</ele>
        <time>2024-08-13T10:46:07Z</time>
      </trkpt>
      <trkpt lat="44.83668" lon="6.14219">
        <ele>1508.4</ele>
        <time>2024-08-13T10:46:08Z</time>
      </trkpt>
      <trkpt lat="44.8367" lon="6.1422">
        <ele>1508.6</ele>
        <time>2024-08-13T10:46:09Z</time>
      </trkpt>
      <trkpt lat="44.8367" lon="6.1422">
        <ele>1508.6</ele>
        <time>2024-08-13T10:46:10Z</time>
      </trkpt>
      <trkpt lat="44.8367" lon="6.1422">
        <ele>1508.6</ele>
        <time>2024-08-13T10:46:11Z</time>
      </trkpt>
      <trkpt lat="44.83673" lon="6.14219">
        <ele>1509</ele>
        <time>2024-08-13T10:46:12Z</time>
      </trkpt>
      <trkpt lat="44.83673" lon="6.14219">
        <ele>1509</ele>
        <time>2024-08-13T10:46:13Z</time>
      </trkpt>
      <trkpt lat="44.83673" lon="6.14219">
        <ele>1509.2</ele>
        <time>2024-08-13T10:46:14Z</time>
      </trkpt>
      <trkpt lat="44.83673" lon="6.14219">
        <ele>1509.6</ele>
        <time>2024-08-13T10:46:15Z</time>
      </trkpt>
      <trkpt lat="44.83675" lon="6.14219">
        <ele>1509.8</ele>
        <time>2024-08-13T10:46:16Z</time>
      </trkpt>
      <trkpt lat="44.83675" lon="6.14219">
        <ele>1510</ele>
        <time>2024-08-13T10:46:17Z</time>
      </trkpt>
      <trkpt lat="44.83677" lon="6.14218">
        <ele>1510.2</ele>
        <time>2024-08-13T10:46:18Z</time>
      </trkpt>
      <trkpt lat="44.83677" lon="6.14218">
        <ele>1510.4</ele>
        <time>2024-08-13T10:46:19Z</time>
      </trkpt>
      <trkpt lat="44.83677" lon="6.14218">
        <ele>1510.4</ele>
        <time>2024-08-13T10:46:20Z</time>
      </trkpt>
      <trkpt lat="44.8368" lon="6.14217">
        <ele>1510.6</ele>
        <time>2024-08-13T10:46:21Z</time>
      </trkpt>
      <trkpt lat="44.8368" lon="6.14217">
        <ele>1510.8</ele>
        <time>2024-08-13T10:46:22Z</time>
      </trkpt>
      <trkpt lat="44.8368" lon="6.14217">
        <ele>1511</ele>
        <time>2024-08-13T10:46:23Z</time>
      </trkpt>
      <trkpt lat="44.83682" lon="6.14216">
        <ele>1511.2</ele>
        <time>2024-08-13T10:46:24Z</time>
      </trkpt>
      <trkpt lat="44.83682" lon="6.14216">
        <ele>1511.6</ele>
        <time>2024-08-13T10:46:25Z</time>
      </trkpt>
      <trkpt lat="44.83682" lon="6.14216">
        <ele>1511.8</ele>
        <time>2024-08-13T10:46:26Z</time>
      </trkpt>
      <trkpt lat="44.83684" lon="6.14215">
        <ele>1512</ele>
        <time>2024-08-13T10:46:27Z</time>
      </trkpt>
      <trkpt lat="44.83684" lon="6.14215">
        <ele>1512</ele>
        <time>2024-08-13T10:46:28Z</time>
      </trkpt>
      <trkpt lat="44.83684" lon="6.14215">
        <ele>1512.2</ele>
        <time>2024-08-13T10:46:29Z</time>
      </trkpt>
      <trkpt lat="44.83686" lon="6.14214">
        <ele>1512.4</ele>
        <time>2024-08-13T10:46:30Z</time>
      </trkpt>
      <trkpt lat="44.83686" lon="6.14214">
        <ele>1512.4</ele>
        <time>2024-08-13T10:46:31Z</time>
      </trkpt>
      <trkpt lat="44.83686" lon="6.14214">
        <ele>1512.6</ele>
        <time>2024-08-13T10:46:32Z</time>
      </trkpt>
      <trkpt lat="44.83687" lon="6.14212">
        <ele>1512.6</ele>
        <time>2024-08-13T10:46:33Z</time>
      </trkpt>
      <trkpt lat="44.83687" lon="6.14212">
        <ele>1513</ele>
        <time>2024-08-13T10:46:34Z</time>
      </trkpt>
      <trkpt lat="44.83687" lon="6.14212">
        <ele>1513.2</ele>
        <time>2024-08-13T10:46:35Z</time>
      </trkpt>
      <trkpt lat="44.8369" lon="6.14211">
        <ele>1513.2</ele>
        <time>2024-08-13T10:46:36Z</time>
      </trkpt>
      <trkpt lat="44.8369" lon="6.14211">
        <ele>1513.4</ele>
        <time>2024-08-13T10:46:37Z</time>
      </trkpt>
      <trkpt lat="44.8369" lon="6.14211">
        <ele>1513.8</ele>
        <time>2024-08-13T10:46:38Z</time>
      </trkpt>
      <trkpt lat="44.8369" lon="6.14211">
        <ele>1514</ele>
        <time>2024-08-13T10:46:39Z</time>
      </trkpt>
      <trkpt lat="44.83692" lon="6.14209">
        <ele>1514.6</ele>
        <time>2024-08-13T10:46:40Z</time>
      </trkpt>
      <trkpt lat="44.83692" lon="6.14209">
        <ele>1514.6</ele>
        <time>2024-08-13T10:46:41Z</time>
      </trkpt>
      <trkpt lat="44.83692" lon="6.14209">
        <ele>1514.8</ele>
        <time>2024-08-13T10:46:42Z</time>
      </trkpt>
      <trkpt lat="44.83694" lon="6.14208">
        <ele>1514.8</ele>
        <time>2024-08-13T10:46:43Z</time>
      </trkpt>
      <trkpt lat="44.83694" lon="6.14208">
        <ele>1515</ele>
        <time>2024-08-13T10:46:44Z</time>
      </trkpt>
      <trkpt lat="44.83694" lon="6.14208">
        <ele>1515.2</ele>
        <time>2024-08-13T10:46:45Z</time>
      </trkpt>
      <trkpt lat="44.83694" lon="6.14208">
        <ele>1515.6</ele>
        <time>2024-08-13T10:46:46Z</time>
      </trkpt>
      <trkpt lat="44.83694" lon="6.14208">
        <ele>1515.6</ele>
        <time>2024-08-13T10:46:47Z</time>
      </trkpt>
      <trkpt lat="44.83696" lon="6.14208">
        <ele>1516</ele>
        <time>2024-08-13T10:46:48Z</time>
      </trkpt>
      <trkpt lat="44.83696" lon="6.14208">
        <ele>1516</ele>
        <time>2024-08-13T10:46:49Z</time>
      </trkpt>
      <trkpt lat="44.83696" lon="6.14208">
        <ele>1516.2</ele>
        <time>2024-08-13T10:46:50Z</time>
      </trkpt>
      <trkpt lat="44.83699" lon="6.14205">
        <ele>1516.4</ele>
        <time>2024-08-13T10:46:51Z</time>
      </trkpt>
      <trkpt lat="44.83699" lon="6.14205">
        <ele>1516.6</ele>
        <time>2024-08-13T10:46:52Z</time>
      </trkpt>
      <trkpt lat="44.837" lon="6.14204">
        <ele>1516.8</ele>
        <time>2024-08-13T10:46:53Z</time>
      </trkpt>
      <trkpt lat="44.837" lon="6.14204">
        <ele>1516.8</ele>
        <time>2024-08-13T10:46:54Z</time>
      </trkpt>
      <trkpt lat="44.837" lon="6.14204">
        <ele>1517</ele>
        <time>2024-08-13T10:46:55Z</time>
      </trkpt>
      <trkpt lat="44.83702" lon="6.14205">
        <ele>1517</ele>
        <time>2024-08-13T10:46:56Z</time>
      </trkpt>
      <trkpt lat="44.83702" lon="6.14205">
        <ele>1517.2</ele>
        <time>2024-08-13T10:46:57Z</time>
      </trkpt>
      <trkpt lat="44.83702" lon="6.14207">
        <ele>1517.6</ele>
        <time>2024-08-13T10:46:58Z</time>
      </trkpt>
      <trkpt lat="44.83702" lon="6.14207">
        <ele>1517.6</ele>
        <time>2024-08-13T10:46:59Z</time>
      </trkpt>
      <trkpt lat="44.83702" lon="6.14207">
        <ele>1517.8</ele>
        <time>2024-08-13T10:47:00Z</time>
      </trkpt>
      <trkpt lat="44.83701" lon="6.1421">
        <ele>1518</ele>
        <time>2024-08-13T10:47:01Z</time>
      </trkpt>
      <trkpt lat="44.83701" lon="6.1421">
        <ele>1518.2</ele>
        <time>2024-08-13T10:47:02Z</time>
      </trkpt>
      <trkpt lat="44.83699" lon="6.14212">
        <ele>1518.4</ele>
        <time>2024-08-13T10:47:03Z</time>
      </trkpt>
      <trkpt lat="44.83699" lon="6.14212">
        <ele>1518.4</ele>
        <time>2024-08-13T10:47:04Z</time>
      </trkpt>
      <trkpt lat="44.83698" lon="6.14214">
        <ele>1518.6</ele>
        <time>2024-08-13T10:47:05Z</time>
      </trkpt>
      <trkpt lat="44.83698" lon="6.14214">
        <ele>1518.6</ele>
        <time>2024-08-13T10:47:06Z</time>
      </trkpt>
      <trkpt lat="44.83697" lon="6.14217">
        <ele>1518.6</ele>
        <time>2024-08-13T10:47:07Z</time>
      </trkpt>
      <trkpt lat="44.83697" lon="6.14217">
        <ele>1518.6</ele>
        <time>2024-08-13T10:47:08Z</time>
      </trkpt>
      <trkpt lat="44.83696" lon="6.1422">
        <ele>1518.8</ele>
        <time>2024-08-13T10:47:09Z</time>
      </trkpt>
      <trkpt lat="44.83696" lon="6.1422">
        <ele>1519</ele>
        <time>2024-08-13T10:47:10Z</time>
      </trkpt>
      <trkpt lat="44.83694" lon="6.14222">
        <ele>1519.2</ele>
        <time>2024-08-13T10:47:11Z</time>
      </trkpt>
      <trkpt lat="44.83694" lon="6.14222">
        <ele>1519.4</ele>
        <time>2024-08-13T10:47:12Z</time>
      </trkpt>
      <trkpt lat="44.83693" lon="6.14224">
        <ele>1519.4</ele>
        <time>2024-08-13T10:47:13Z</time>
      </trkpt>
      <trkpt lat="44.83693" lon="6.14224">
        <ele>1519.6</ele>
        <time>2024-08-13T10:47:14Z</time>
      </trkpt>
      <trkpt lat="44.83693" lon="6.14224">
        <ele>1519.6</ele>
        <time>2024-08-13T10:47:15Z</time>
      </trkpt>
      <trkpt lat="44.83691" lon="6.14227">
        <ele>1519.8</ele>
        <time>2024-08-13T10:47:16Z</time>
      </trkpt>
      <trkpt lat="44.8369" lon="6.14229">
        <ele>1520</ele>
        <time>2024-08-13T10:47:17Z</time>
      </trkpt>
      <trkpt lat="44.8369" lon="6.14229">
        <ele>1520.4</ele>
        <time>2024-08-13T10:47:18Z</time>
      </trkpt>
      <trkpt lat="44.83688" lon="6.14231">
        <ele>1520.4</ele>
        <time>2024-08-13T10:47:19Z</time>
      </trkpt>
      <trkpt lat="44.83688" lon="6.14231">
        <ele>1520.4</ele>
        <time>2024-08-13T10:47:20Z</time>
      </trkpt>
      <trkpt lat="44.83686" lon="6.14231">
        <ele>1520.4</ele>
        <time>2024-08-13T10:47:21Z</time>
      </trkpt>
      <trkpt lat="44.83686" lon="6.14231">
        <ele>1520.6</ele>
        <time>2024-08-13T10:47:22Z</time>
      </trkpt>
      <trkpt lat="44.83685" lon="6.14233">
        <ele>1520.6</ele>
        <time>2024-08-13T10:47:23Z</time>
      </trkpt>
      <trkpt lat="44.83685" lon="6.14233">
        <ele>1520.8</ele>
        <time>2024-08-13T10:47:24Z</time>
      </trkpt>
      <trkpt lat="44.83683" lon="6.14236">
        <ele>1520.8</ele>
        <time>2024-08-13T10:47:25Z</time>
      </trkpt>
      <trkpt lat="44.83683" lon="6.14236">
        <ele>1521.2</ele>
        <time>2024-08-13T10:47:26Z</time>
      </trkpt>
      <trkpt lat="44.83683" lon="6.14236">
        <ele>1521.2</ele>
        <time>2024-08-13T10:47:27Z</time>
      </trkpt>
      <trkpt lat="44.83683" lon="6.14236">
        <ele>1521.4</ele>
        <time>2024-08-13T10:47:28Z</time>
      </trkpt>
      <trkpt lat="44.83683" lon="6.14236">
        <ele>1521.6</ele>
        <time>2024-08-13T10:47:29Z</time>
      </trkpt>
      <trkpt lat="44.83682" lon="6.14239">
        <ele>1521.6</ele>
        <time>2024-08-13T10:47:30Z</time>
      </trkpt>
      <trkpt lat="44.83682" lon="6.14239">
        <ele>1522</ele>
        <time>2024-08-13T10:47:31Z</time>
      </trkpt>
      <trkpt lat="44.8368" lon="6.14241">
        <ele>1522</ele>
        <time>2024-08-13T10:47:32Z</time>
      </trkpt>
      <trkpt lat="44.8368" lon="6.14241">
        <ele>1522.2</ele>
        <time>2024-08-13T10:47:33Z</time>
      </trkpt>
      <trkpt lat="44.8368" lon="6.14241">
        <ele>1522.2</ele>
        <time>2024-08-13T10:47:34Z</time>
      </trkpt>
      <trkpt lat="44.83679" lon="6.14244">
        <ele>1522.2</ele>
        <time>2024-08-13T10:47:35Z</time>
      </trkpt>
      <trkpt lat="44.83679" lon="6.14244">
        <ele>1522.2</ele>
        <time>2024-08-13T10:47:36Z</time>
      </trkpt>
      <trkpt lat="44.83678" lon="6.14246">
        <ele>1522.4</ele>
        <time>2024-08-13T10:47:37Z</time>
      </trkpt>
      <trkpt lat="44.83678" lon="6.14246">
        <ele>1522.4</ele>
        <time>2024-08-13T10:47:38Z</time>
      </trkpt>
      <trkpt lat="44.83677" lon="6.14249">
        <ele>1522.6</ele>
        <time>2024-08-13T10:47:39Z</time>
      </trkpt>
      <trkpt lat="44.83677" lon="6.14249">
        <ele>1522.8</ele>
        <time>2024-08-13T10:47:40Z</time>
      </trkpt>
      <trkpt lat="44.83676" lon="6.14252">
        <ele>1522.8</ele>
        <time>2024-08-13T10:47:41Z</time>
      </trkpt>
      <trkpt lat="44.83676" lon="6.14252">
        <ele>1523.2</ele>
        <time>2024-08-13T10:47:42Z</time>
      </trkpt>
      <trkpt lat="44.83676" lon="6.14252">
        <ele>1523.4</ele>
        <time>2024-08-13T10:47:43Z</time>
      </trkpt>
      <trkpt lat="44.83674" lon="6.14254">
        <ele>1523.8</ele>
        <time>2024-08-13T10:47:44Z</time>
      </trkpt>
      <trkpt lat="44.83674" lon="6.14254">
        <ele>1523.8</ele>
        <time>2024-08-13T10:47:45Z</time>
      </trkpt>
      <trkpt lat="44.83673" lon="6.14255">
        <ele>1523.8</ele>
        <time>2024-08-13T10:47:46Z</time>
      </trkpt>
      <trkpt lat="44.83673" lon="6.14255">
        <ele>1524.2</ele>
        <time>2024-08-13T10:47:47Z</time>
      </trkpt>
      <trkpt lat="44.83671" lon="6.14257">
        <ele>1524.2</ele>
        <time>2024-08-13T10:47:48Z</time>
      </trkpt>
      <trkpt lat="44.83671" lon="6.14257">
        <ele>1524.4</ele>
        <time>2024-08-13T10:47:49Z</time>
      </trkpt>
      <trkpt lat="44.83671" lon="6.14257">
        <ele>1524.4</ele>
        <time>2024-08-13T10:47:50Z</time>
      </trkpt>
      <trkpt lat="44.83671" lon="6.14257">
        <ele>1524.4</ele>
        <time>2024-08-13T10:47:51Z</time>
      </trkpt>
      <trkpt lat="44.83671" lon="6.14257">
        <ele>1524.6</ele>
        <time>2024-08-13T10:47:52Z</time>
      </trkpt>
      <trkpt lat="44.83671" lon="6.14257">
        <ele>1524.8</ele>
        <time>2024-08-13T10:47:53Z</time>
      </trkpt>
      <trkpt lat="44.83671" lon="6.14257">
        <ele>1525</ele>
        <time>2024-08-13T10:47:54Z</time>
      </trkpt>
      <trkpt lat="44.83671" lon="6.14257">
        <ele>1525</ele>
        <time>2024-08-13T10:47:55Z</time>
      </trkpt>
      <trkpt lat="44.83671" lon="6.14257">
        <ele>1525</ele>
        <time>2024-08-13T10:47:56Z</time>
      </trkpt>
      <trkpt lat="44.83671" lon="6.14257">
        <ele>1525</ele>
        <time>2024-08-13T10:47:57Z</time>
      </trkpt>
      <trkpt lat="44.83671" lon="6.14257">
        <ele>1525</ele>
        <time>2024-08-13T10:47:58Z</time>
      </trkpt>
      <trkpt lat="44.83671" lon="6.14257">
        <ele>1525.2</ele>
        <time>2024-08-13T10:47:59Z</time>
      </trkpt>
      <trkpt lat="44.83673" lon="6.14257">
        <ele>1525.6</ele>
        <time>2024-08-13T10:48:00Z</time>
      </trkpt>
      <trkpt lat="44.83673" lon="6.14257">
        <ele>1526</ele>
        <time>2024-08-13T10:48:01Z</time>
      </trkpt>
      <trkpt lat="44.83673" lon="6.14257">
        <ele>1526.2</ele>
        <time>2024-08-13T10:48:02Z</time>
      </trkpt>
      <trkpt lat="44.83673" lon="6.14257">
        <ele>1526.2</ele>
        <time>2024-08-13T10:48:03Z</time>
      </trkpt>
      <trkpt lat="44.83673" lon="6.14257">
        <ele>1526.6</ele>
        <time>2024-08-13T10:48:04Z</time>
      </trkpt>
      <trkpt lat="44.83676" lon="6.14254">
        <ele>1527</ele>
        <time>2024-08-13T10:48:05Z</time>
      </trkpt>
      <trkpt lat="44.83676" lon="6.14254">
        <ele>1527</ele>
        <time>2024-08-13T10:48:06Z</time>
      </trkpt>
      <trkpt lat="44.83678" lon="6.14251">
        <ele>1527</ele>
        <time>2024-08-13T10:48:07Z</time>
      </trkpt>
      <trkpt lat="44.83678" lon="6.14251">
        <ele>1527.2</ele>
        <time>2024-08-13T10:48:08Z</time>
      </trkpt>
      <trkpt lat="44.8368" lon="6.14248">
        <ele>1527.2</ele>
        <time>2024-08-13T10:48:09Z</time>
      </trkpt>
      <trkpt lat="44.8368" lon="6.14248">
        <ele>1527.2</ele>
        <time>2024-08-13T10:48:10Z</time>
      </trkpt>
      <trkpt lat="44.83683" lon="6.14247">
        <ele>1527.4</ele>
        <time>2024-08-13T10:48:11Z</time>
      </trkpt>
      <trkpt lat="44.83683" lon="6.14247">
        <ele>1527.4</ele>
        <time>2024-08-13T10:48:12Z</time>
      </trkpt>
      <trkpt lat="44.83685" lon="6.14247">
        <ele>1527.4</ele>
        <time>2024-08-13T10:48:13Z</time>
      </trkpt>
      <trkpt lat="44.83685" lon="6.14247">
        <ele>1527.8</ele>
        <time>2024-08-13T10:48:14Z</time>
      </trkpt>
      <trkpt lat="44.83685" lon="6.14247">
        <ele>1528</ele>
        <time>2024-08-13T10:48:15Z</time>
      </trkpt>
      <trkpt lat="44.83687" lon="6.14247">
        <ele>1528.4</ele>
        <time>2024-08-13T10:48:16Z</time>
      </trkpt>
      <trkpt lat="44.83687" lon="6.14247">
        <ele>1528.4</ele>
        <time>2024-08-13T10:48:17Z</time>
      </trkpt>
      <trkpt lat="44.83687" lon="6.14247">
        <ele>1528.4</ele>
        <time>2024-08-13T10:48:18Z</time>
      </trkpt>
      <trkpt lat="44.83687" lon="6.14247">
        <ele>1528.4</ele>
        <time>2024-08-13T10:48:19Z</time>
      </trkpt>
      <trkpt lat="44.83689" lon="6.14246">
        <ele>1528.4</ele>
        <time>2024-08-13T10:48:20Z</time>
      </trkpt>
      <trkpt lat="44.83689" lon="6.14246">
        <ele>1528.4</ele>
        <time>2024-08-13T10:48:21Z</time>
      </trkpt>
      <trkpt lat="44.83689" lon="6.14246">
        <ele>1528.4</ele>
        <time>2024-08-13T10:48:22Z</time>
      </trkpt>
      <trkpt lat="44.83692" lon="6.14243">
        <ele>1528.6</ele>
        <time>2024-08-13T10:48:23Z</time>
      </trkpt>
      <trkpt lat="44.83692" lon="6.14243">
        <ele>1528.8</ele>
        <time>2024-08-13T10:48:24Z</time>
      </trkpt>
      <trkpt lat="44.83692" lon="6.14243">
        <ele>1528.8</ele>
        <time>2024-08-13T10:48:25Z</time>
      </trkpt>
      <trkpt lat="44.83692" lon="6.14243">
        <ele>1529</ele>
        <time>2024-08-13T10:48:26Z</time>
      </trkpt>
      <trkpt lat="44.83693" lon="6.1424">
        <ele>1529</ele>
        <time>2024-08-13T10:48:27Z</time>
      </trkpt>
      <trkpt lat="44.83693" lon="6.1424">
        <ele>1529</ele>
        <time>2024-08-13T10:48:28Z</time>
      </trkpt>
      <trkpt lat="44.83695" lon="6.14238">
        <ele>1529.2</ele>
        <time>2024-08-13T10:48:29Z</time>
      </trkpt>
      <trkpt lat="44.83695" lon="6.14238">
        <ele>1529.4</ele>
        <time>2024-08-13T10:48:30Z</time>
      </trkpt>
      <trkpt lat="44.83697" lon="6.14236">
        <ele>1529.6</ele>
        <time>2024-08-13T10:48:31Z</time>
      </trkpt>
      <trkpt lat="44.83697" lon="6.14236">
        <ele>1529.6</ele>
        <time>2024-08-13T10:48:32Z</time>
      </trkpt>
      <trkpt lat="44.83698" lon="6.14235">
        <ele>1529.8</ele>
        <time>2024-08-13T10:48:33Z</time>
      </trkpt>
      <trkpt lat="44.83698" lon="6.14235">
        <ele>1530</ele>
        <time>2024-08-13T10:48:34Z</time>
      </trkpt>
      <trkpt lat="44.83701" lon="6.14234">
        <ele>1530.4</ele>
        <time>2024-08-13T10:48:35Z</time>
      </trkpt>
      <trkpt lat="44.83701" lon="6.14234">
        <ele>1530.4</ele>
        <time>2024-08-13T10:48:36Z</time>
      </trkpt>
      <trkpt lat="44.83701" lon="6.14234">
        <ele>1530.6</ele>
        <time>2024-08-13T10:48:37Z</time>
      </trkpt>
      <trkpt lat="44.83701" lon="6.14234">
        <ele>1530.8</ele>
        <time>2024-08-13T10:48:38Z</time>
      </trkpt>
      <trkpt lat="44.83701" lon="6.14234">
        <ele>1531.2</ele>
        <time>2024-08-13T10:48:39Z</time>
      </trkpt>
      <trkpt lat="44.83701" lon="6.14234">
        <ele>1531.4</ele>
        <time>2024-08-13T10:48:40Z</time>
      </trkpt>
      <trkpt lat="44.83702" lon="6.14233">
        <ele>1531.6</ele>
        <time>2024-08-13T10:48:41Z</time>
      </trkpt>
      <trkpt lat="44.83702" lon="6.14233">
        <ele>1531.6</ele>
        <time>2024-08-13T10:48:42Z</time>
      </trkpt>
      <trkpt lat="44.83704" lon="6.14232">
        <ele>1531.8</ele>
        <time>2024-08-13T10:48:43Z</time>
      </trkpt>
      <trkpt lat="44.83704" lon="6.14232">
        <ele>1532</ele>
        <time>2024-08-13T10:48:44Z</time>
      </trkpt>
      <trkpt lat="44.83706" lon="6.14231">
        <ele>1532.2</ele>
        <time>2024-08-13T10:48:45Z</time>
      </trkpt>
      <trkpt lat="44.83706" lon="6.14231">
        <ele>1532.6</ele>
        <time>2024-08-13T10:48:46Z</time>
      </trkpt>
      <trkpt lat="44.83708" lon="6.14229">
        <ele>1532.6</ele>
        <time>2024-08-13T10:48:47Z</time>
      </trkpt>
      <trkpt lat="44.83708" lon="6.14229">
        <ele>1532.6</ele>
        <time>2024-08-13T10:48:48Z</time>
      </trkpt>
      <trkpt lat="44.83708" lon="6.14229">
        <ele>1533</ele>
        <time>2024-08-13T10:48:49Z</time>
      </trkpt>
      <trkpt lat="44.8371" lon="6.14227">
        <ele>1533.4</ele>
        <time>2024-08-13T10:48:50Z</time>
      </trkpt>
      <trkpt lat="44.8371" lon="6.14227">
        <ele>1533.6</ele>
        <time>2024-08-13T10:48:51Z</time>
      </trkpt>
      <trkpt lat="44.8371" lon="6.14227">
        <ele>1534</ele>
        <time>2024-08-13T10:48:52Z</time>
      </trkpt>
      <trkpt lat="44.83712" lon="6.14227">
        <ele>1534.4</ele>
        <time>2024-08-13T10:48:53Z</time>
      </trkpt>
      <trkpt lat="44.83712" lon="6.14227">
        <ele>1534.4</ele>
        <time>2024-08-13T10:48:54Z</time>
      </trkpt>
      <trkpt lat="44.83712" lon="6.14227">
        <ele>1534.4</ele>
        <time>2024-08-13T10:48:55Z</time>
      </trkpt>
      <trkpt lat="44.83714" lon="6.14226">
        <ele>1534.4</ele>
        <time>2024-08-13T10:48:56Z</time>
      </trkpt>
      <trkpt lat="44.83714" lon="6.14226">
        <ele>1534.6</ele>
        <time>2024-08-13T10:48:57Z</time>
      </trkpt>
      <trkpt lat="44.83714" lon="6.14226">
        <ele>1534.8</ele>
        <time>2024-08-13T10:48:58Z</time>
      </trkpt>
      <trkpt lat="44.83716" lon="6.14225">
        <ele>1535</ele>
        <time>2024-08-13T10:48:59Z</time>
      </trkpt>
      <trkpt lat="44.83716" lon="6.14225">
        <ele>1535</ele>
        <time>2024-08-13T10:49:00Z</time>
      </trkpt>
      <trkpt lat="44.83716" lon="6.14225">
        <ele>1535.2</ele>
        <time>2024-08-13T10:49:01Z</time>
      </trkpt>
      <trkpt lat="44.83716" lon="6.14225">
        <ele>1535.6</ele>
        <time>2024-08-13T10:49:02Z</time>
      </trkpt>
      <trkpt lat="44.83716" lon="6.14225">
        <ele>1535.6</ele>
        <time>2024-08-13T10:49:03Z</time>
      </trkpt>
      <trkpt lat="44.83718" lon="6.14224">
        <ele>1535.6</ele>
        <time>2024-08-13T10:49:04Z</time>
      </trkpt>
      <trkpt lat="44.83718" lon="6.14224">
        <ele>1535.6</ele>
        <time>2024-08-13T10:49:05Z</time>
      </trkpt>
      <trkpt lat="44.8372" lon="6.14223">
        <ele>1536</ele>
        <time>2024-08-13T10:49:06Z</time>
      </trkpt>
      <trkpt lat="44.8372" lon="6.14223">
        <ele>1536.2</ele>
        <time>2024-08-13T10:49:07Z</time>
      </trkpt>
      <trkpt lat="44.83722" lon="6.14222">
        <ele>1536.2</ele>
        <time>2024-08-13T10:49:08Z</time>
      </trkpt>
      <trkpt lat="44.83722" lon="6.14222">
        <ele>1536.2</ele>
        <time>2024-08-13T10:49:09Z</time>
      </trkpt>
      <trkpt lat="44.83722" lon="6.14222">
        <ele>1536.2</ele>
        <time>2024-08-13T10:49:10Z</time>
      </trkpt>
      <trkpt lat="44.83724" lon="6.14221">
        <ele>1536.2</ele>
        <time>2024-08-13T10:49:11Z</time>
      </trkpt>
      <trkpt lat="44.83724" lon="6.14221">
        <ele>1536.2</ele>
        <time>2024-08-13T10:49:12Z</time>
      </trkpt>
      <trkpt lat="44.83724" lon="6.14221">
        <ele>1536</ele>
        <time>2024-08-13T10:49:13Z</time>
      </trkpt>
      <trkpt lat="44.83725" lon="6.1422">
        <ele>1536.2</ele>
        <time>2024-08-13T10:49:14Z</time>
      </trkpt>
      <trkpt lat="44.83725" lon="6.1422">
        <ele>1536.4</ele>
        <time>2024-08-13T10:49:15Z</time>
      </trkpt>
      <trkpt lat="44.83725" lon="6.1422">
        <ele>1537.2</ele>
        <time>2024-08-13T10:49:16Z</time>
      </trkpt>
      <trkpt lat="44.83725" lon="6.1422">
        <ele>1537.2</ele>
        <time>2024-08-13T10:49:17Z</time>
      </trkpt>
      <trkpt lat="44.83727" lon="6.14217">
        <ele>1537.6</ele>
        <time>2024-08-13T10:49:18Z</time>
      </trkpt>
      <trkpt lat="44.83727" lon="6.14217">
        <ele>1538</ele>
        <time>2024-08-13T10:49:19Z</time>
      </trkpt>
      <trkpt lat="44.83727" lon="6.14217">
        <ele>1538.2</ele>
        <time>2024-08-13T10:49:20Z</time>
      </trkpt>
      <trkpt lat="44.83729" lon="6.14216">
        <ele>1538.2</ele>
        <time>2024-08-13T10:49:21Z</time>
      </trkpt>
      <trkpt lat="44.83729" lon="6.14216">
        <ele>1538.4</ele>
        <time>2024-08-13T10:49:22Z</time>
      </trkpt>
      <trkpt lat="44.83729" lon="6.14216">
        <ele>1538.4</ele>
        <time>2024-08-13T10:49:23Z</time>
      </trkpt>
      <trkpt lat="44.83729" lon="6.14216">
        <ele>1538.4</ele>
        <time>2024-08-13T10:49:24Z</time>
      </trkpt>
      <trkpt lat="44.83732" lon="6.14214">
        <ele>1538.8</ele>
        <time>2024-08-13T10:49:25Z</time>
      </trkpt>
      <trkpt lat="44.83732" lon="6.14214">
        <ele>1538.8</ele>
        <time>2024-08-13T10:49:26Z</time>
      </trkpt>
      <trkpt lat="44.83732" lon="6.14214">
        <ele>1538.8</ele>
        <time>2024-08-13T10:49:27Z</time>
      </trkpt>
      <trkpt lat="44.83734" lon="6.14213">
        <ele>1539.2</ele>
        <time>2024-08-13T10:49:28Z</time>
      </trkpt>
      <trkpt lat="44.83734" lon="6.14213">
        <ele>1539.4</ele>
        <time>2024-08-13T10:49:29Z</time>
      </trkpt>
      <trkpt lat="44.83736" lon="6.14211">
        <ele>1539.6</ele>
        <time>2024-08-13T10:49:30Z</time>
      </trkpt>
      <trkpt lat="44.83736" lon="6.14211">
        <ele>1539.6</ele>
        <time>2024-08-13T10:49:31Z</time>
      </trkpt>
      <trkpt lat="44.83736" lon="6.14211">
        <ele>1539.6</ele>
        <time>2024-08-13T10:49:32Z</time>
      </trkpt>
      <trkpt lat="44.83738" lon="6.1421">
        <ele>1539.8</ele>
        <time>2024-08-13T10:49:33Z</time>
      </trkpt>
      <trkpt lat="44.83738" lon="6.1421">
        <ele>1540</ele>
        <time>2024-08-13T10:49:34Z</time>
      </trkpt>
      <trkpt lat="44.83738" lon="6.1421">
        <ele>1540.2</ele>
        <time>2024-08-13T10:49:35Z</time>
      </trkpt>
      <trkpt lat="44.8374" lon="6.14209">
        <ele>1540.2</ele>
        <time>2024-08-13T10:49:36Z</time>
      </trkpt>
      <trkpt lat="44.8374" lon="6.14209">
        <ele>1540.6</ele>
        <time>2024-08-13T10:49:37Z</time>
      </trkpt>
      <trkpt lat="44.8374" lon="6.14209">
        <ele>1540.6</ele>
        <time>2024-08-13T10:49:38Z</time>
      </trkpt>
      <trkpt lat="44.83741" lon="6.14207">
        <ele>1540.8</ele>
        <time>2024-08-13T10:49:39Z</time>
      </trkpt>
      <trkpt lat="44.83741" lon="6.14207">
        <ele>1541.2</ele>
        <time>2024-08-13T10:49:40Z</time>
      </trkpt>
      <trkpt lat="44.83741" lon="6.14207">
        <ele>1541.2</ele>
        <time>2024-08-13T10:49:41Z</time>
      </trkpt>
      <trkpt lat="44.83743" lon="6.14206">
        <ele>1541.4</ele>
        <time>2024-08-13T10:49:42Z</time>
      </trkpt>
      <trkpt lat="44.83743" lon="6.14206">
        <ele>1541.4</ele>
        <time>2024-08-13T10:49:43Z</time>
      </trkpt>
      <trkpt lat="44.83743" lon="6.14206">
        <ele>1541.6</ele>
        <time>2024-08-13T10:49:44Z</time>
      </trkpt>
      <trkpt lat="44.83743" lon="6.14206">
        <ele>1541.6</ele>
        <time>2024-08-13T10:49:45Z</time>
      </trkpt>
      <trkpt lat="44.83745" lon="6.14204">
        <ele>1541.8</ele>
        <time>2024-08-13T10:49:46Z</time>
      </trkpt>
      <trkpt lat="44.83745" lon="6.14204">
        <ele>1542</ele>
        <time>2024-08-13T10:49:47Z</time>
      </trkpt>
      <trkpt lat="44.83745" lon="6.14204">
        <ele>1542.2</ele>
        <time>2024-08-13T10:49:48Z</time>
      </trkpt>
      <trkpt lat="44.83746" lon="6.14202">
        <ele>1542.6</ele>
        <time>2024-08-13T10:49:49Z</time>
      </trkpt>
      <trkpt lat="44.83746" lon="6.14202">
        <ele>1542.8</ele>
        <time>2024-08-13T10:49:50Z</time>
      </trkpt>
      <trkpt lat="44.83748" lon="6.142">
        <ele>1542.8</ele>
        <time>2024-08-13T10:49:51Z</time>
      </trkpt>
      <trkpt lat="44.83748" lon="6.142">
        <ele>1542.8</ele>
        <time>2024-08-13T10:49:52Z</time>
      </trkpt>
      <trkpt lat="44.83749" lon="6.14198">
        <ele>1543</ele>
        <time>2024-08-13T10:49:53Z</time>
      </trkpt>
      <trkpt lat="44.83749" lon="6.14198">
        <ele>1543.2</ele>
        <time>2024-08-13T10:49:54Z</time>
      </trkpt>
      <trkpt lat="44.83749" lon="6.14198">
        <ele>1543.4</ele>
        <time>2024-08-13T10:49:55Z</time>
      </trkpt>
      <trkpt lat="44.83751" lon="6.14195">
        <ele>1543.6</ele>
        <time>2024-08-13T10:49:56Z</time>
      </trkpt>
      <trkpt lat="44.83751" lon="6.14195">
        <ele>1544</ele>
        <time>2024-08-13T10:49:57Z</time>
      </trkpt>
      <trkpt lat="44.83753" lon="6.14194">
        <ele>1544</ele>
        <time>2024-08-13T10:49:58Z</time>
      </trkpt>
      <trkpt lat="44.83753" lon="6.14194">
        <ele>1544.2</ele>
        <time>2024-08-13T10:49:59Z</time>
      </trkpt>
      <trkpt lat="44.83753" lon="6.14194">
        <ele>1544.4</ele>
        <time>2024-08-13T10:50:00Z</time>
      </trkpt>
      <trkpt lat="44.83755" lon="6.14193">
        <ele>1544.6</ele>
        <time>2024-08-13T10:50:01Z</time>
      </trkpt>
      <trkpt lat="44.83755" lon="6.14193">
        <ele>1544.8</ele>
        <time>2024-08-13T10:50:02Z</time>
      </trkpt>
      <trkpt lat="44.83755" lon="6.14193">
        <ele>1545</ele>
        <time>2024-08-13T10:50:03Z</time>
      </trkpt>
      <trkpt lat="44.83757" lon="6.14191">
        <ele>1545</ele>
        <time>2024-08-13T10:50:04Z</time>
      </trkpt>
      <trkpt lat="44.83757" lon="6.14191">
        <ele>1545.4</ele>
        <time>2024-08-13T10:50:05Z</time>
      </trkpt>
      <trkpt lat="44.83757" lon="6.14191">
        <ele>1545.8</ele>
        <time>2024-08-13T10:50:06Z</time>
      </trkpt>
      <trkpt lat="44.83758" lon="6.1419">
        <ele>1546.2</ele>
        <time>2024-08-13T10:50:07Z</time>
      </trkpt>
      <trkpt lat="44.83758" lon="6.1419">
        <ele>1546.2</ele>
        <time>2024-08-13T10:50:08Z</time>
      </trkpt>
      <trkpt lat="44.83758" lon="6.1419">
        <ele>1546.2</ele>
        <time>2024-08-13T10:50:09Z</time>
      </trkpt>
      <trkpt lat="44.8376" lon="6.14189">
        <ele>1546.4</ele>
        <time>2024-08-13T10:50:10Z</time>
      </trkpt>
      <trkpt lat="44.8376" lon="6.14189">
        <ele>1546.4</ele>
        <time>2024-08-13T10:50:11Z</time>
      </trkpt>
      <trkpt lat="44.8376" lon="6.14189">
        <ele>1546.6</ele>
        <time>2024-08-13T10:50:12Z</time>
      </trkpt>
      <trkpt lat="44.83762" lon="6.14187">
        <ele>1547.2</ele>
        <time>2024-08-13T10:50:13Z</time>
      </trkpt>
      <trkpt lat="44.83762" lon="6.14187">
        <ele>1547.2</ele>
        <time>2024-08-13T10:50:14Z</time>
      </trkpt>
      <trkpt lat="44.83762" lon="6.14187">
        <ele>1547.6</ele>
        <time>2024-08-13T10:50:15Z</time>
      </trkpt>
      <trkpt lat="44.83764" lon="6.14186">
        <ele>1547.8</ele>
        <time>2024-08-13T10:50:16Z</time>
      </trkpt>
      <trkpt lat="44.83764" lon="6.14186">
        <ele>1547.8</ele>
        <time>2024-08-13T10:50:17Z</time>
      </trkpt>
      <trkpt lat="44.83764" lon="6.14186">
        <ele>1547.8</ele>
        <time>2024-08-13T10:50:18Z</time>
      </trkpt>
      <trkpt lat="44.83764" lon="6.14186">
        <ele>1548.2</ele>
        <time>2024-08-13T10:50:19Z</time>
      </trkpt>
      <trkpt lat="44.83764" lon="6.14186">
        <ele>1548.2</ele>
        <time>2024-08-13T10:50:20Z</time>
      </trkpt>
      <trkpt lat="44.83764" lon="6.14186">
        <ele>1548.2</ele>
        <time>2024-08-13T10:50:21Z</time>
      </trkpt>
      <trkpt lat="44.83766" lon="6.14186">
        <ele>1548.4</ele>
        <time>2024-08-13T10:50:22Z</time>
      </trkpt>
      <trkpt lat="44.83766" lon="6.14186">
        <ele>1548.6</ele>
        <time>2024-08-13T10:50:23Z</time>
      </trkpt>
      <trkpt lat="44.83766" lon="6.14186">
        <ele>1548.8</ele>
        <time>2024-08-13T10:50:24Z</time>
      </trkpt>
      <trkpt lat="44.83768" lon="6.14185">
        <ele>1549.2</ele>
        <time>2024-08-13T10:50:25Z</time>
      </trkpt>
      <trkpt lat="44.83768" lon="6.14185">
        <ele>1549.2</ele>
        <time>2024-08-13T10:50:26Z</time>
      </trkpt>
      <trkpt lat="44.83768" lon="6.14185">
        <ele>1549.8</ele>
        <time>2024-08-13T10:50:27Z</time>
      </trkpt>
      <trkpt lat="44.8377" lon="6.14183">
        <ele>1550</ele>
        <time>2024-08-13T10:50:28Z</time>
      </trkpt>
      <trkpt lat="44.8377" lon="6.14183">
        <ele>1550.2</ele>
        <time>2024-08-13T10:50:29Z</time>
      </trkpt>
      <trkpt lat="44.83772" lon="6.14182">
        <ele>1550.2</ele>
        <time>2024-08-13T10:50:30Z</time>
      </trkpt>
      <trkpt lat="44.83772" lon="6.14182">
        <ele>1550.2</ele>
        <time>2024-08-13T10:50:31Z</time>
      </trkpt>
      <trkpt lat="44.83772" lon="6.14182">
        <ele>1550.4</ele>
        <time>2024-08-13T10:50:32Z</time>
      </trkpt>
      <trkpt lat="44.83775" lon="6.14181">
        <ele>1550.8</ele>
        <time>2024-08-13T10:50:33Z</time>
      </trkpt>
      <trkpt lat="44.83775" lon="6.14181">
        <ele>1550.8</ele>
        <time>2024-08-13T10:50:34Z</time>
      </trkpt>
      <trkpt lat="44.83775" lon="6.14181">
        <ele>1551.2</ele>
        <time>2024-08-13T10:50:35Z</time>
      </trkpt>
      <trkpt lat="44.83777" lon="6.1418">
        <ele>1551.6</ele>
        <time>2024-08-13T10:50:36Z</time>
      </trkpt>
      <trkpt lat="44.83777" lon="6.1418">
        <ele>1551.6</ele>
        <time>2024-08-13T10:50:37Z</time>
      </trkpt>
      <trkpt lat="44.83777" lon="6.1418">
        <ele>1551.6</ele>
        <time>2024-08-13T10:50:38Z</time>
      </trkpt>
      <trkpt lat="44.83779" lon="6.14179">
        <ele>1551.6</ele>
        <time>2024-08-13T10:50:39Z</time>
      </trkpt>
      <trkpt lat="44.83779" lon="6.14179">
        <ele>1551.8</ele>
        <time>2024-08-13T10:50:40Z</time>
      </trkpt>
      <trkpt lat="44.83779" lon="6.14179">
        <ele>1551.8</ele>
        <time>2024-08-13T10:50:41Z</time>
      </trkpt>
      <trkpt lat="44.83779" lon="6.14179">
        <ele>1552</ele>
        <time>2024-08-13T10:50:42Z</time>
      </trkpt>
      <trkpt lat="44.83781" lon="6.14178">
        <ele>1552.6</ele>
        <time>2024-08-13T10:50:43Z</time>
      </trkpt>
      <trkpt lat="44.83781" lon="6.14178">
        <ele>1552.6</ele>
        <time>2024-08-13T10:50:44Z</time>
      </trkpt>
      <trkpt lat="44.83781" lon="6.14178">
        <ele>1552.6</ele>
        <time>2024-08-13T10:50:45Z</time>
      </trkpt>
      <trkpt lat="44.83781" lon="6.14178">
        <ele>1552.6</ele>
        <time>2024-08-13T10:50:46Z</time>
      </trkpt>
      <trkpt lat="44.83783" lon="6.14177">
        <ele>1552.8</ele>
        <time>2024-08-13T10:50:47Z</time>
      </trkpt>
      <trkpt lat="44.83783" lon="6.14177">
        <ele>1553</ele>
        <time>2024-08-13T10:50:48Z</time>
      </trkpt>
      <trkpt lat="44.83783" lon="6.14177">
        <ele>1553.2</ele>
        <time>2024-08-13T10:50:49Z</time>
      </trkpt>
      <trkpt lat="44.83783" lon="6.14177">
        <ele>1553.4</ele>
        <time>2024-08-13T10:50:50Z</time>
      </trkpt>
      <trkpt lat="44.83783" lon="6.14177">
        <ele>1553.6</ele>
        <time>2024-08-13T10:50:51Z</time>
      </trkpt>
      <trkpt lat="44.83785" lon="6.14177">
        <ele>1553.6</ele>
        <time>2024-08-13T10:50:52Z</time>
      </trkpt>
      <trkpt lat="44.83785" lon="6.14177">
        <ele>1553.6</ele>
        <time>2024-08-13T10:50:53Z</time>
      </trkpt>
      <trkpt lat="44.83785" lon="6.14177">
        <ele>1554.2</ele>
        <time>2024-08-13T10:50:54Z</time>
      </trkpt>
      <trkpt lat="44.83785" lon="6.14177">
        <ele>1554.4</ele>
        <time>2024-08-13T10:50:55Z</time>
      </trkpt>
      <trkpt lat="44.83785" lon="6.14177">
        <ele>1554.4</ele>
        <time>2024-08-13T10:50:56Z</time>
      </trkpt>
      <trkpt lat="44.83787" lon="6.14177">
        <ele>1554.4</ele>
        <time>2024-08-13T10:50:57Z</time>
      </trkpt>
      <trkpt lat="44.83787" lon="6.14177">
        <ele>1554.6</ele>
        <time>2024-08-13T10:50:58Z</time>
      </trkpt>
      <trkpt lat="44.83787" lon="6.14177">
        <ele>1555</ele>
        <time>2024-08-13T10:50:59Z</time>
      </trkpt>
      <trkpt lat="44.83789" lon="6.14176">
        <ele>1555.2</ele>
        <time>2024-08-13T10:51:00Z</time>
      </trkpt>
      <trkpt lat="44.83789" lon="6.14176">
        <ele>1555.2</ele>
        <time>2024-08-13T10:51:01Z</time>
      </trkpt>
      <trkpt lat="44.83789" lon="6.14176">
        <ele>1555.8</ele>
        <time>2024-08-13T10:51:02Z</time>
      </trkpt>
      <trkpt lat="44.83791" lon="6.14175">
        <ele>1555.8</ele>
        <time>2024-08-13T10:51:03Z</time>
      </trkpt>
      <trkpt lat="44.83791" lon="6.14175">
        <ele>1556</ele>
        <time>2024-08-13T10:51:04Z</time>
      </trkpt>
      <trkpt lat="44.83793" lon="6.14176">
        <ele>1556</ele>
        <time>2024-08-13T10:51:05Z</time>
      </trkpt>
      <trkpt lat="44.83793" lon="6.14176">
        <ele>1556.2</ele>
        <time>2024-08-13T10:51:06Z</time>
      </trkpt>
      <trkpt lat="44.83793" lon="6.14179">
        <ele>1556.2</ele>
        <time>2024-08-13T10:51:07Z</time>
      </trkpt>
      <trkpt lat="44.83793" lon="6.14179">
        <ele>1556.4</ele>
        <time>2024-08-13T10:51:08Z</time>
      </trkpt>
      <trkpt lat="44.83793" lon="6.14179">
        <ele>1556.6</ele>
        <time>2024-08-13T10:51:09Z</time>
      </trkpt>
      <trkpt lat="44.83792" lon="6.14181">
        <ele>1556.6</ele>
        <time>2024-08-13T10:51:10Z</time>
      </trkpt>
      <trkpt lat="44.83792" lon="6.14181">
        <ele>1557</ele>
        <time>2024-08-13T10:51:11Z</time>
      </trkpt>
      <trkpt lat="44.83792" lon="6.14181">
        <ele>1557</ele>
        <time>2024-08-13T10:51:12Z</time>
      </trkpt>
      <trkpt lat="44.83791" lon="6.14184">
        <ele>1557.2</ele>
        <time>2024-08-13T10:51:13Z</time>
      </trkpt>
      <trkpt lat="44.83791" lon="6.14184">
        <ele>1557.6</ele>
        <time>2024-08-13T10:51:14Z</time>
      </trkpt>
      <trkpt lat="44.83791" lon="6.14184">
        <ele>1558</ele>
        <time>2024-08-13T10:51:15Z</time>
      </trkpt>
      <trkpt lat="44.83791" lon="6.14184">
        <ele>1558</ele>
        <time>2024-08-13T10:51:16Z</time>
      </trkpt>
      <trkpt lat="44.83791" lon="6.14184">
        <ele>1558</ele>
        <time>2024-08-13T10:51:17Z</time>
      </trkpt>
      <trkpt lat="44.83791" lon="6.14187">
        <ele>1558.2</ele>
        <time>2024-08-13T10:51:18Z</time>
      </trkpt>
      <trkpt lat="44.83791" lon="6.14187">
        <ele>1558.6</ele>
        <time>2024-08-13T10:51:19Z</time>
      </trkpt>
      <trkpt lat="44.83791" lon="6.14187">
        <ele>1558.6</ele>
        <time>2024-08-13T10:51:20Z</time>
      </trkpt>
      <trkpt lat="44.8379" lon="6.1419">
        <ele>1558.8</ele>
        <time>2024-08-13T10:51:21Z</time>
      </trkpt>
      <trkpt lat="44.8379" lon="6.1419">
        <ele>1558.8</ele>
        <time>2024-08-13T10:51:22Z</time>
      </trkpt>
      <trkpt lat="44.8379" lon="6.1419">
        <ele>1558.8</ele>
        <time>2024-08-13T10:51:23Z</time>
      </trkpt>
      <trkpt lat="44.83789" lon="6.14193">
        <ele>1558.8</ele>
        <time>2024-08-13T10:51:24Z</time>
      </trkpt>
      <trkpt lat="44.83789" lon="6.14193">
        <ele>1559</ele>
        <time>2024-08-13T10:51:25Z</time>
      </trkpt>
      <trkpt lat="44.83789" lon="6.14193">
        <ele>1559.2</ele>
        <time>2024-08-13T10:51:26Z</time>
      </trkpt>
      <trkpt lat="44.83789" lon="6.14193">
        <ele>1559.4</ele>
        <time>2024-08-13T10:51:27Z</time>
      </trkpt>
      <trkpt lat="44.83788" lon="6.14197">
        <ele>1559.6</ele>
        <time>2024-08-13T10:51:28Z</time>
      </trkpt>
      <trkpt lat="44.83788" lon="6.14197">
        <ele>1560.2</ele>
        <time>2024-08-13T10:51:29Z</time>
      </trkpt>
      <trkpt lat="44.83788" lon="6.14197">
        <ele>1560.2</ele>
        <time>2024-08-13T10:51:30Z</time>
      </trkpt>
      <trkpt lat="44.83786" lon="6.14199">
        <ele>1560.2</ele>
        <time>2024-08-13T10:51:31Z</time>
      </trkpt>
      <trkpt lat="44.83786" lon="6.14199">
        <ele>1560.4</ele>
        <time>2024-08-13T10:51:32Z</time>
      </trkpt>
      <trkpt lat="44.83786" lon="6.14199">
        <ele>1560.6</ele>
        <time>2024-08-13T10:51:33Z</time>
      </trkpt>
      <trkpt lat="44.83785" lon="6.14202">
        <ele>1560.8</ele>
        <time>2024-08-13T10:51:34Z</time>
      </trkpt>
      <trkpt lat="44.83785" lon="6.14202">
        <ele>1561</ele>
        <time>2024-08-13T10:51:35Z</time>
      </trkpt>
      <trkpt lat="44.83783" lon="6.14204">
        <ele>1561</ele>
        <time>2024-08-13T10:51:36Z</time>
      </trkpt>
      <trkpt lat="44.83783" lon="6.14204">
        <ele>1561.4</ele>
        <time>2024-08-13T10:51:37Z</time>
      </trkpt>
      <trkpt lat="44.83783" lon="6.14204">
        <ele>1561.4</ele>
        <time>2024-08-13T10:51:38Z</time>
      </trkpt>
      <trkpt lat="44.83782" lon="6.14206">
        <ele>1561.4</ele>
        <time>2024-08-13T10:51:39Z</time>
      </trkpt>
      <trkpt lat="44.83782" lon="6.14206">
        <ele>1561.6</ele>
        <time>2024-08-13T10:51:40Z</time>
      </trkpt>
      <trkpt lat="44.83782" lon="6.14206">
        <ele>1561.8</ele>
        <time>2024-08-13T10:51:41Z</time>
      </trkpt>
      <trkpt lat="44.8378" lon="6.14209">
        <ele>1562</ele>
        <time>2024-08-13T10:51:42Z</time>
      </trkpt>
      <trkpt lat="44.8378" lon="6.14209">
        <ele>1562.2</ele>
        <time>2024-08-13T10:51:43Z</time>
      </trkpt>
      <trkpt lat="44.83779" lon="6.14212">
        <ele>1562.4</ele>
        <time>2024-08-13T10:51:44Z</time>
      </trkpt>
      <trkpt lat="44.83779" lon="6.14212">
        <ele>1562.4</ele>
        <time>2024-08-13T10:51:45Z</time>
      </trkpt>
      <trkpt lat="44.83779" lon="6.14212">
        <ele>1562.8</ele>
        <time>2024-08-13T10:51:46Z</time>
      </trkpt>
      <trkpt lat="44.83778" lon="6.14215">
        <ele>1562.8</ele>
        <time>2024-08-13T10:51:47Z</time>
      </trkpt>
      <trkpt lat="44.83778" lon="6.14215">
        <ele>1563.2</ele>
        <time>2024-08-13T10:51:48Z</time>
      </trkpt>
      <trkpt lat="44.83778" lon="6.14215">
        <ele>1563.4</ele>
        <time>2024-08-13T10:51:49Z</time>
      </trkpt>
      <trkpt lat="44.83777" lon="6.14218">
        <ele>1563.4</ele>
        <time>2024-08-13T10:51:50Z</time>
      </trkpt>
      <trkpt lat="44.83777" lon="6.14218">
        <ele>1563.6</ele>
        <time>2024-08-13T10:51:51Z</time>
      </trkpt>
      <trkpt lat="44.83777" lon="6.14218">
        <ele>1563.8</ele>
        <time>2024-08-13T10:51:52Z</time>
      </trkpt>
      <trkpt lat="44.83776" lon="6.14221">
        <ele>1563.8</ele>
        <time>2024-08-13T10:51:53Z</time>
      </trkpt>
      <trkpt lat="44.83776" lon="6.14221">
        <ele>1564</ele>
        <time>2024-08-13T10:51:54Z</time>
      </trkpt>
      <trkpt lat="44.83776" lon="6.14221">
        <ele>1564</ele>
        <time>2024-08-13T10:51:55Z</time>
      </trkpt>
      <trkpt lat="44.83775" lon="6.14224">
        <ele>1564.4</ele>
        <time>2024-08-13T10:51:56Z</time>
      </trkpt>
      <trkpt lat="44.83775" lon="6.14224">
        <ele>1564.8</ele>
        <time>2024-08-13T10:51:57Z</time>
      </trkpt>
      <trkpt lat="44.83775" lon="6.14224">
        <ele>1564.8</ele>
        <time>2024-08-13T10:51:58Z</time>
      </trkpt>
      <trkpt lat="44.83773" lon="6.14227">
        <ele>1565.2</ele>
        <time>2024-08-13T10:51:59Z</time>
      </trkpt>
      <trkpt lat="44.83773" lon="6.14227">
        <ele>1565.2</ele>
        <time>2024-08-13T10:52:00Z</time>
      </trkpt>
      <trkpt lat="44.83773" lon="6.14227">
        <ele>1565.2</ele>
        <time>2024-08-13T10:52:01Z</time>
      </trkpt>
      <trkpt lat="44.83773" lon="6.14227">
        <ele>1565.6</ele>
        <time>2024-08-13T10:52:02Z</time>
      </trkpt>
      <trkpt lat="44.83772" lon="6.14231">
        <ele>1565.6</ele>
        <time>2024-08-13T10:52:03Z</time>
      </trkpt>
      <trkpt lat="44.83772" lon="6.14231">
        <ele>1565.8</ele>
        <time>2024-08-13T10:52:04Z</time>
      </trkpt>
      <trkpt lat="44.83772" lon="6.14231">
        <ele>1566</ele>
        <time>2024-08-13T10:52:05Z</time>
      </trkpt>
      <trkpt lat="44.83771" lon="6.14234">
        <ele>1566</ele>
        <time>2024-08-13T10:52:06Z</time>
      </trkpt>
      <trkpt lat="44.83771" lon="6.14234">
        <ele>1566</ele>
        <time>2024-08-13T10:52:07Z</time>
      </trkpt>
      <trkpt lat="44.83771" lon="6.14234">
        <ele>1566.2</ele>
        <time>2024-08-13T10:52:08Z</time>
      </trkpt>
      <trkpt lat="44.8377" lon="6.14237">
        <ele>1566.4</ele>
        <time>2024-08-13T10:52:09Z</time>
      </trkpt>
      <trkpt lat="44.8377" lon="6.14237">
        <ele>1566.8</ele>
        <time>2024-08-13T10:52:10Z</time>
      </trkpt>
      <trkpt lat="44.8377" lon="6.14237">
        <ele>1566.8</ele>
        <time>2024-08-13T10:52:11Z</time>
      </trkpt>
      <trkpt lat="44.83767" lon="6.14241">
        <ele>1566.6</ele>
        <time>2024-08-13T10:52:12Z</time>
      </trkpt>
      <trkpt lat="44.83767" lon="6.14241">
        <ele>1566.6</ele>
        <time>2024-08-13T10:52:13Z</time>
      </trkpt>
      <trkpt lat="44.83765" lon="6.14243">
        <ele>1566.8</ele>
        <time>2024-08-13T10:52:14Z</time>
      </trkpt>
      <trkpt lat="44.83764" lon="6.14245">
        <ele>1567</ele>
        <time>2024-08-13T10:52:15Z</time>
      </trkpt>
      <trkpt lat="44.83764" lon="6.14245">
        <ele>1567.2</ele>
        <time>2024-08-13T10:52:16Z</time>
      </trkpt>
      <trkpt lat="44.83764" lon="6.14245">
        <ele>1567.4</ele>
        <time>2024-08-13T10:52:17Z</time>
      </trkpt>
      <trkpt lat="44.83762" lon="6.14247">
        <ele>1567.6</ele>
        <time>2024-08-13T10:52:18Z</time>
      </trkpt>
      <trkpt lat="44.83762" lon="6.14247">
        <ele>1567.6</ele>
        <time>2024-08-13T10:52:19Z</time>
      </trkpt>
      <trkpt lat="44.83761" lon="6.1425">
        <ele>1567.6</ele>
        <time>2024-08-13T10:52:20Z</time>
      </trkpt>
      <trkpt lat="44.83761" lon="6.1425">
        <ele>1567.6</ele>
        <time>2024-08-13T10:52:21Z</time>
      </trkpt>
      <trkpt lat="44.83761" lon="6.1425">
        <ele>1567.6</ele>
        <time>2024-08-13T10:52:22Z</time>
      </trkpt>
      <trkpt lat="44.8376" lon="6.14253">
        <ele>1567.8</ele>
        <time>2024-08-13T10:52:23Z</time>
      </trkpt>
      <trkpt lat="44.8376" lon="6.14253">
        <ele>1567.8</ele>
        <time>2024-08-13T10:52:24Z</time>
      </trkpt>
      <trkpt lat="44.8376" lon="6.14253">
        <ele>1567.8</ele>
        <time>2024-08-13T10:52:25Z</time>
      </trkpt>
      <trkpt lat="44.83759" lon="6.14256">
        <ele>1567.8</ele>
        <time>2024-08-13T10:52:26Z</time>
      </trkpt>
      <trkpt lat="44.83759" lon="6.14256">
        <ele>1568</ele>
        <time>2024-08-13T10:52:27Z</time>
      </trkpt>
      <trkpt lat="44.83757" lon="6.14258">
        <ele>1568.4</ele>
        <time>2024-08-13T10:52:28Z</time>
      </trkpt>
      <trkpt lat="44.83757" lon="6.14258">
        <ele>1568.6</ele>
        <time>2024-08-13T10:52:29Z</time>
      </trkpt>
      <trkpt lat="44.83757" lon="6.14258">
        <ele>1568.6</ele>
        <time>2024-08-13T10:52:30Z</time>
      </trkpt>
      <trkpt lat="44.83756" lon="6.1426">
        <ele>1568.8</ele>
        <time>2024-08-13T10:52:31Z</time>
      </trkpt>
      <trkpt lat="44.83756" lon="6.1426">
        <ele>1569</ele>
        <time>2024-08-13T10:52:32Z</time>
      </trkpt>
      <trkpt lat="44.83753" lon="6.14261">
        <ele>1569</ele>
        <time>2024-08-13T10:52:33Z</time>
      </trkpt>
      <trkpt lat="44.83753" lon="6.14261">
        <ele>1569.4</ele>
        <time>2024-08-13T10:52:34Z</time>
      </trkpt>
      <trkpt lat="44.83753" lon="6.14261">
        <ele>1570</ele>
        <time>2024-08-13T10:52:35Z</time>
      </trkpt>
      <trkpt lat="44.83753" lon="6.14261">
        <ele>1570.4</ele>
        <time>2024-08-13T10:52:36Z</time>
      </trkpt>
      <trkpt lat="44.83753" lon="6.14261">
        <ele>1570.6</ele>
        <time>2024-08-13T10:52:37Z</time>
      </trkpt>
      <trkpt lat="44.83753" lon="6.14261">
        <ele>1570.6</ele>
        <time>2024-08-13T10:52:38Z</time>
      </trkpt>
      <trkpt lat="44.83753" lon="6.14261">
        <ele>1570.6</ele>
        <time>2024-08-13T10:52:39Z</time>
      </trkpt>
      <trkpt lat="44.83753" lon="6.14261">
        <ele>1570.6</ele>
        <time>2024-08-13T10:52:40Z</time>
      </trkpt>
      <trkpt lat="44.83753" lon="6.14261">
        <ele>1570.6</ele>
        <time>2024-08-13T10:52:41Z</time>
      </trkpt>
      <trkpt lat="44.83753" lon="6.14261">
        <ele>1570.8</ele>
        <time>2024-08-13T10:52:42Z</time>
      </trkpt>
      <trkpt lat="44.83753" lon="6.14261">
        <ele>1570.8</ele>
        <time>2024-08-13T10:52:43Z</time>
      </trkpt>
      <trkpt lat="44.83753" lon="6.14261">
        <ele>1570.6</ele>
        <time>2024-08-13T10:52:44Z</time>
      </trkpt>
      <trkpt lat="44.83753" lon="6.14261">
        <ele>1570.6</ele>
        <time>2024-08-13T10:52:45Z</time>
      </trkpt>
      <trkpt lat="44.83753" lon="6.14261">
        <ele>1570.8</ele>
        <time>2024-08-13T10:52:46Z</time>
      </trkpt>
      <trkpt lat="44.83753" lon="6.14261">
        <ele>1571</ele>
        <time>2024-08-13T10:52:47Z</time>
      </trkpt>
      <trkpt lat="44.83753" lon="6.14261">
        <ele>1571</ele>
        <time>2024-08-13T10:52:48Z</time>
      </trkpt>
      <trkpt lat="44.83753" lon="6.14261">
        <ele>1571</ele>
        <time>2024-08-13T10:52:49Z</time>
      </trkpt>
      <trkpt lat="44.83753" lon="6.14261">
        <ele>1571.2</ele>
        <time>2024-08-13T10:52:50Z</time>
      </trkpt>
      <trkpt lat="44.83753" lon="6.14261">
        <ele>1571.2</ele>
        <time>2024-08-13T10:52:51Z</time>
      </trkpt>
      <trkpt lat="44.83753" lon="6.14261">
        <ele>1571.2</ele>
        <time>2024-08-13T10:52:52Z</time>
      </trkpt>
      <trkpt lat="44.83753" lon="6.14261">
        <ele>1571.2</ele>
        <time>2024-08-13T10:52:53Z</time>
      </trkpt>
      <trkpt lat="44.83756" lon="6.1426">
        <ele>1571.4</ele>
        <time>2024-08-13T10:52:54Z</time>
      </trkpt>
      <trkpt lat="44.83756" lon="6.1426">
        <ele>1571.6</ele>
        <time>2024-08-13T10:52:55Z</time>
      </trkpt>
      <trkpt lat="44.83756" lon="6.1426">
        <ele>1572</ele>
        <time>2024-08-13T10:52:56Z</time>
      </trkpt>
      <trkpt lat="44.83758" lon="6.14259">
        <ele>1572</ele>
        <time>2024-08-13T10:52:57Z</time>
      </trkpt>
      <trkpt lat="44.83758" lon="6.14259">
        <ele>1572.4</ele>
        <time>2024-08-13T10:52:58Z</time>
      </trkpt>
      <trkpt lat="44.83759" lon="6.14258">
        <ele>1572.4</ele>
        <time>2024-08-13T10:52:59Z</time>
      </trkpt>
      <trkpt lat="44.83759" lon="6.14258">
        <ele>1572.6</ele>
        <time>2024-08-13T10:53:00Z</time>
      </trkpt>
      <trkpt lat="44.83759" lon="6.14258">
        <ele>1572.8</ele>
        <time>2024-08-13T10:53:01Z</time>
      </trkpt>
      <trkpt lat="44.83761" lon="6.14256">
        <ele>1573.4</ele>
        <time>2024-08-13T10:53:02Z</time>
      </trkpt>
      <trkpt lat="44.83761" lon="6.14256">
        <ele>1573.4</ele>
        <time>2024-08-13T10:53:03Z</time>
      </trkpt>
      <trkpt lat="44.83763" lon="6.14255">
        <ele>1573.4</ele>
        <time>2024-08-13T10:53:04Z</time>
      </trkpt>
      <trkpt lat="44.83763" lon="6.14255">
        <ele>1573.8</ele>
        <time>2024-08-13T10:53:05Z</time>
      </trkpt>
      <trkpt lat="44.83765" lon="6.14253">
        <ele>1573.8</ele>
        <time>2024-08-13T10:53:06Z</time>
      </trkpt>
      <trkpt lat="44.83765" lon="6.14253">
        <ele>1574</ele>
        <time>2024-08-13T10:53:07Z</time>
      </trkpt>
      <trkpt lat="44.83766" lon="6.14251">
        <ele>1574</ele>
        <time>2024-08-13T10:53:08Z</time>
      </trkpt>
      <trkpt lat="44.83766" lon="6.14251">
        <ele>1574</ele>
        <time>2024-08-13T10:53:09Z</time>
      </trkpt>
      <trkpt lat="44.83767" lon="6.14249">
        <ele>1574.2</ele>
        <time>2024-08-13T10:53:10Z</time>
      </trkpt>
      <trkpt lat="44.83768" lon="6.14246">
        <ele>1574.4</ele>
        <time>2024-08-13T10:53:11Z</time>
      </trkpt>
      <trkpt lat="44.83768" lon="6.14246">
        <ele>1574.4</ele>
        <time>2024-08-13T10:53:12Z</time>
      </trkpt>
      <trkpt lat="44.83768" lon="6.14246">
        <ele>1574.8</ele>
        <time>2024-08-13T10:53:13Z</time>
      </trkpt>
      <trkpt lat="44.83769" lon="6.14243">
        <ele>1574.8</ele>
        <time>2024-08-13T10:53:14Z</time>
      </trkpt>
      <trkpt lat="44.83769" lon="6.14243">
        <ele>1575</ele>
        <time>2024-08-13T10:53:15Z</time>
      </trkpt>
      <trkpt lat="44.83771" lon="6.14242">
        <ele>1575.4</ele>
        <time>2024-08-13T10:53:16Z</time>
      </trkpt>
      <trkpt lat="44.83771" lon="6.14242">
        <ele>1575.4</ele>
        <time>2024-08-13T10:53:17Z</time>
      </trkpt>
      <trkpt lat="44.83773" lon="6.14241">
        <ele>1575.8</ele>
        <time>2024-08-13T10:53:18Z</time>
      </trkpt>
      <trkpt lat="44.83773" lon="6.14241">
        <ele>1575.8</ele>
        <time>2024-08-13T10:53:19Z</time>
      </trkpt>
      <trkpt lat="44.83773" lon="6.14241">
        <ele>1575.8</ele>
        <time>2024-08-13T10:53:20Z</time>
      </trkpt>
      <trkpt lat="44.83773" lon="6.14241">
        <ele>1575.8</ele>
        <time>2024-08-13T10:53:21Z</time>
      </trkpt>
      <trkpt lat="44.83775" lon="6.1424">
        <ele>1576</ele>
        <time>2024-08-13T10:53:22Z</time>
      </trkpt>
      <trkpt lat="44.83775" lon="6.1424">
        <ele>1576</ele>
        <time>2024-08-13T10:53:23Z</time>
      </trkpt>
      <trkpt lat="44.83775" lon="6.1424">
        <ele>1576</ele>
        <time>2024-08-13T10:53:24Z</time>
      </trkpt>
      <trkpt lat="44.83777" lon="6.14238">
        <ele>1576.6</ele>
        <time>2024-08-13T10:53:25Z</time>
      </trkpt>
      <trkpt lat="44.83777" lon="6.14238">
        <ele>1576.8</ele>
        <time>2024-08-13T10:53:26Z</time>
      </trkpt>
      <trkpt lat="44.83777" lon="6.14238">
        <ele>1577</ele>
        <time>2024-08-13T10:53:27Z</time>
      </trkpt>
      <trkpt lat="44.83779" lon="6.14236">
        <ele>1577</ele>
        <time>2024-08-13T10:53:28Z</time>
      </trkpt>
      <trkpt lat="44.83779" lon="6.14236">
        <ele>1577</ele>
        <time>2024-08-13T10:53:29Z</time>
      </trkpt>
      <trkpt lat="44.83781" lon="6.14235">
        <ele>1577.4</ele>
        <time>2024-08-13T10:53:30Z</time>
      </trkpt>
      <trkpt lat="44.83781" lon="6.14235">
        <ele>1577.4</ele>
        <time>2024-08-13T10:53:31Z</time>
      </trkpt>
      <trkpt lat="44.83781" lon="6.14235">
        <ele>1577.4</ele>
        <time>2024-08-13T10:53:32Z</time>
      </trkpt>
      <trkpt lat="44.83783" lon="6.14233">
        <ele>1577.6</ele>
        <time>2024-08-13T10:53:33Z</time>
      </trkpt>
      <trkpt lat="44.83783" lon="6.14233">
        <ele>1577.8</ele>
        <time>2024-08-13T10:53:34Z</time>
      </trkpt>
      <trkpt lat="44.83783" lon="6.14233">
        <ele>1577.8</ele>
        <time>2024-08-13T10:53:35Z</time>
      </trkpt>
      <trkpt lat="44.83785" lon="6.14231">
        <ele>1578.2</ele>
        <time>2024-08-13T10:53:36Z</time>
      </trkpt>
      <trkpt lat="44.83785" lon="6.14231">
        <ele>1578.4</ele>
        <time>2024-08-13T10:53:37Z</time>
      </trkpt>
      <trkpt lat="44.83785" lon="6.14231">
        <ele>1578.4</ele>
        <time>2024-08-13T10:53:38Z</time>
      </trkpt>
      <trkpt lat="44.83788" lon="6.1423">
        <ele>1578.6</ele>
        <time>2024-08-13T10:53:39Z</time>
      </trkpt>
      <trkpt lat="44.83788" lon="6.1423">
        <ele>1578.6</ele>
        <time>2024-08-13T10:53:40Z</time>
      </trkpt>
      <trkpt lat="44.83788" lon="6.1423">
        <ele>1578.8</ele>
        <time>2024-08-13T10:53:41Z</time>
      </trkpt>
      <trkpt lat="44.8379" lon="6.14229">
        <ele>1578.8</ele>
        <time>2024-08-13T10:53:42Z</time>
      </trkpt>
      <trkpt lat="44.8379" lon="6.14229">
        <ele>1579</ele>
        <time>2024-08-13T10:53:43Z</time>
      </trkpt>
      <trkpt lat="44.83792" lon="6.14228">
        <ele>1579.2</ele>
        <time>2024-08-13T10:53:44Z</time>
      </trkpt>
      <trkpt lat="44.83792" lon="6.14228">
        <ele>1579.4</ele>
        <time>2024-08-13T10:53:45Z</time>
      </trkpt>
      <trkpt lat="44.83792" lon="6.14228">
        <ele>1579.6</ele>
        <time>2024-08-13T10:53:46Z</time>
      </trkpt>
      <trkpt lat="44.83794" lon="6.14228">
        <ele>1579.8</ele>
        <time>2024-08-13T10:53:47Z</time>
      </trkpt>
      <trkpt lat="44.83794" lon="6.14228">
        <ele>1579.8</ele>
        <time>2024-08-13T10:53:48Z</time>
      </trkpt>
      <trkpt lat="44.83794" lon="6.14228">
        <ele>1580</ele>
        <time>2024-08-13T10:53:49Z</time>
      </trkpt>
      <trkpt lat="44.83796" lon="6.14227">
        <ele>1580.4</ele>
        <time>2024-08-13T10:53:50Z</time>
      </trkpt>
      <trkpt lat="44.83796" lon="6.14227">
        <ele>1580.6</ele>
        <time>2024-08-13T10:53:51Z</time>
      </trkpt>
      <trkpt lat="44.83798" lon="6.14225">
        <ele>1580.8</ele>
        <time>2024-08-13T10:53:52Z</time>
      </trkpt>
      <trkpt lat="44.83798" lon="6.14225">
        <ele>1580.8</ele>
        <time>2024-08-13T10:53:53Z</time>
      </trkpt>
      <trkpt lat="44.83801" lon="6.14224">
        <ele>1580.8</ele>
        <time>2024-08-13T10:53:54Z</time>
      </trkpt>
      <trkpt lat="44.83801" lon="6.14224">
        <ele>1581</ele>
        <time>2024-08-13T10:53:55Z</time>
      </trkpt>
      <trkpt lat="44.83803" lon="6.14222">
        <ele>1581</ele>
        <time>2024-08-13T10:53:56Z</time>
      </trkpt>
      <trkpt lat="44.83803" lon="6.14222">
        <ele>1581</ele>
        <time>2024-08-13T10:53:57Z</time>
      </trkpt>
      <trkpt lat="44.83803" lon="6.14222">
        <ele>1581</ele>
        <time>2024-08-13T10:53:58Z</time>
      </trkpt>
      <trkpt lat="44.83805" lon="6.14222">
        <ele>1581.2</ele>
        <time>2024-08-13T10:53:59Z</time>
      </trkpt>
      <trkpt lat="44.83805" lon="6.14222">
        <ele>1581.4</ele>
        <time>2024-08-13T10:54:00Z</time>
      </trkpt>
      <trkpt lat="44.83805" lon="6.14222">
        <ele>1581.4</ele>
        <time>2024-08-13T10:54:01Z</time>
      </trkpt>
      <trkpt lat="44.83805" lon="6.14222">
        <ele>1582.2</ele>
        <time>2024-08-13T10:54:02Z</time>
      </trkpt>
      <trkpt lat="44.83807" lon="6.14221">
        <ele>1582.2</ele>
        <time>2024-08-13T10:54:03Z</time>
      </trkpt>
      <trkpt lat="44.83807" lon="6.14221">
        <ele>1582.2</ele>
        <time>2024-08-13T10:54:04Z</time>
      </trkpt>
      <trkpt lat="44.83807" lon="6.14221">
        <ele>1582.2</ele>
        <time>2024-08-13T10:54:05Z</time>
      </trkpt>
      <trkpt lat="44.83809" lon="6.14219">
        <ele>1582.4</ele>
        <time>2024-08-13T10:54:06Z</time>
      </trkpt>
      <trkpt lat="44.83809" lon="6.14219">
        <ele>1582.4</ele>
        <time>2024-08-13T10:54:07Z</time>
      </trkpt>
      <trkpt lat="44.83809" lon="6.14219">
        <ele>1582.2</ele>
        <time>2024-08-13T10:54:08Z</time>
      </trkpt>
      <trkpt lat="44.83811" lon="6.14218">
        <ele>1582.2</ele>
        <time>2024-08-13T10:54:09Z</time>
      </trkpt>
      <trkpt lat="44.83811" lon="6.14218">
        <ele>1582.4</ele>
        <time>2024-08-13T10:54:10Z</time>
      </trkpt>
      <trkpt lat="44.83813" lon="6.14217">
        <ele>1582.6</ele>
        <time>2024-08-13T10:54:11Z</time>
      </trkpt>
      <trkpt lat="44.83813" lon="6.14217">
        <ele>1583</ele>
        <time>2024-08-13T10:54:12Z</time>
      </trkpt>
      <trkpt lat="44.83813" lon="6.14217">
        <ele>1583.2</ele>
        <time>2024-08-13T10:54:13Z</time>
      </trkpt>
      <trkpt lat="44.83815" lon="6.14217">
        <ele>1583.4</ele>
        <time>2024-08-13T10:54:14Z</time>
      </trkpt>
      <trkpt lat="44.83815" lon="6.14217">
        <ele>1583.4</ele>
        <time>2024-08-13T10:54:15Z</time>
      </trkpt>
      <trkpt lat="44.83815" lon="6.14217">
        <ele>1583.4</ele>
        <time>2024-08-13T10:54:16Z</time>
      </trkpt>
      <trkpt lat="44.83817" lon="6.14217">
        <ele>1583.8</ele>
        <time>2024-08-13T10:54:17Z</time>
      </trkpt>
      <trkpt lat="44.83817" lon="6.14217">
        <ele>1583.8</ele>
        <time>2024-08-13T10:54:18Z</time>
      </trkpt>
      <trkpt lat="44.83817" lon="6.14217">
        <ele>1583.8</ele>
        <time>2024-08-13T10:54:19Z</time>
      </trkpt>
      <trkpt lat="44.83819" lon="6.14216">
        <ele>1584</ele>
        <time>2024-08-13T10:54:20Z</time>
      </trkpt>
      <trkpt lat="44.83819" lon="6.14216">
        <ele>1584</ele>
        <time>2024-08-13T10:54:21Z</time>
      </trkpt>
      <trkpt lat="44.83819" lon="6.14216">
        <ele>1584.2</ele>
        <time>2024-08-13T10:54:22Z</time>
      </trkpt>
      <trkpt lat="44.83819" lon="6.14216">
        <ele>1584.4</ele>
        <time>2024-08-13T10:54:23Z</time>
      </trkpt>
      <trkpt lat="44.83821" lon="6.14215">
        <ele>1584.8</ele>
        <time>2024-08-13T10:54:24Z</time>
      </trkpt>
      <trkpt lat="44.83821" lon="6.14215">
        <ele>1585</ele>
        <time>2024-08-13T10:54:25Z</time>
      </trkpt>
      <trkpt lat="44.83821" lon="6.14215">
        <ele>1585.2</ele>
        <time>2024-08-13T10:54:26Z</time>
      </trkpt>
      <trkpt lat="44.83823" lon="6.14215">
        <ele>1585.6</ele>
        <time>2024-08-13T10:54:27Z</time>
      </trkpt>
      <trkpt lat="44.83823" lon="6.14215">
        <ele>1585.6</ele>
        <time>2024-08-13T10:54:28Z</time>
      </trkpt>
      <trkpt lat="44.83823" lon="6.14215">
        <ele>1585.6</ele>
        <time>2024-08-13T10:54:29Z</time>
      </trkpt>
      <trkpt lat="44.83826" lon="6.14213">
        <ele>1585.8</ele>
        <time>2024-08-13T10:54:30Z</time>
      </trkpt>
      <trkpt lat="44.83826" lon="6.14213">
        <ele>1585.8</ele>
        <time>2024-08-13T10:54:31Z</time>
      </trkpt>
      <trkpt lat="44.83826" lon="6.14213">
        <ele>1585.8</ele>
        <time>2024-08-13T10:54:32Z</time>
      </trkpt>
      <trkpt lat="44.83828" lon="6.14211">
        <ele>1586.2</ele>
        <time>2024-08-13T10:54:33Z</time>
      </trkpt>
      <trkpt lat="44.83828" lon="6.14211">
        <ele>1586.2</ele>
        <time>2024-08-13T10:54:34Z</time>
      </trkpt>
      <trkpt lat="44.83828" lon="6.14211">
        <ele>1586.6</ele>
        <time>2024-08-13T10:54:35Z</time>
      </trkpt>
      <trkpt lat="44.8383" lon="6.1421">
        <ele>1586.8</ele>
        <time>2024-08-13T10:54:36Z</time>
      </trkpt>
      <trkpt lat="44.8383" lon="6.1421">
        <ele>1587.4</ele>
        <time>2024-08-13T10:54:37Z</time>
      </trkpt>
      <trkpt lat="44.8383" lon="6.1421">
        <ele>1587.6</ele>
        <time>2024-08-13T10:54:38Z</time>
      </trkpt>
      <trkpt lat="44.83832" lon="6.14209">
        <ele>1587.6</ele>
        <time>2024-08-13T10:54:39Z</time>
      </trkpt>
      <trkpt lat="44.83832" lon="6.14209">
        <ele>1587.8</ele>
        <time>2024-08-13T10:54:40Z</time>
      </trkpt>
      <trkpt lat="44.83832" lon="6.14209">
        <ele>1587.8</ele>
        <time>2024-08-13T10:54:41Z</time>
      </trkpt>
      <trkpt lat="44.83832" lon="6.14209">
        <ele>1587.8</ele>
        <time>2024-08-13T10:54:42Z</time>
      </trkpt>
      <trkpt lat="44.83834" lon="6.14207">
        <ele>1588</ele>
        <time>2024-08-13T10:54:43Z</time>
      </trkpt>
      <trkpt lat="44.83834" lon="6.14207">
        <ele>1588.4</ele>
        <time>2024-08-13T10:54:44Z</time>
      </trkpt>
      <trkpt lat="44.83834" lon="6.14207">
        <ele>1588.4</ele>
        <time>2024-08-13T10:54:45Z</time>
      </trkpt>
      <trkpt lat="44.83834" lon="6.14207">
        <ele>1588.8</ele>
        <time>2024-08-13T10:54:46Z</time>
      </trkpt>
      <trkpt lat="44.83834" lon="6.14207">
        <ele>1589</ele>
        <time>2024-08-13T10:54:47Z</time>
      </trkpt>
      <trkpt lat="44.83836" lon="6.14206">
        <ele>1589</ele>
        <time>2024-08-13T10:54:48Z</time>
      </trkpt>
      <trkpt lat="44.83836" lon="6.14206">
        <ele>1589</ele>
        <time>2024-08-13T10:54:49Z</time>
      </trkpt>
      <trkpt lat="44.83837" lon="6.14205">
        <ele>1589.6</ele>
        <time>2024-08-13T10:54:50Z</time>
      </trkpt>
      <trkpt lat="44.83837" lon="6.14205">
        <ele>1589.6</ele>
        <time>2024-08-13T10:54:51Z</time>
      </trkpt>
      <trkpt lat="44.83837" lon="6.14205">
        <ele>1590</ele>
        <time>2024-08-13T10:54:52Z</time>
      </trkpt>
      <trkpt lat="44.83839" lon="6.14204">
        <ele>1590.2</ele>
        <time>2024-08-13T10:54:53Z</time>
      </trkpt>
      <trkpt lat="44.83839" lon="6.14204">
        <ele>1590.2</ele>
        <time>2024-08-13T10:54:54Z</time>
      </trkpt>
      <trkpt lat="44.83841" lon="6.14204">
        <ele>1590.6</ele>
        <time>2024-08-13T10:54:55Z</time>
      </trkpt>
      <trkpt lat="44.83841" lon="6.14204">
        <ele>1590.8</ele>
        <time>2024-08-13T10:54:56Z</time>
      </trkpt>
      <trkpt lat="44.83841" lon="6.14204">
        <ele>1591</ele>
        <time>2024-08-13T10:54:57Z</time>
      </trkpt>
      <trkpt lat="44.83844" lon="6.14203">
        <ele>1591</ele>
        <time>2024-08-13T10:54:58Z</time>
      </trkpt>
      <trkpt lat="44.83844" lon="6.14203">
        <ele>1591</ele>
        <time>2024-08-13T10:54:59Z</time>
      </trkpt>
      <trkpt lat="44.83844" lon="6.14203">
        <ele>1591.2</ele>
        <time>2024-08-13T10:55:00Z</time>
      </trkpt>
      <trkpt lat="44.83846" lon="6.14204">
        <ele>1591.2</ele>
        <time>2024-08-13T10:55:01Z</time>
      </trkpt>
      <trkpt lat="44.83846" lon="6.14204">
        <ele>1592</ele>
        <time>2024-08-13T10:55:02Z</time>
      </trkpt>
      <trkpt lat="44.83846" lon="6.14204">
        <ele>1592</ele>
        <time>2024-08-13T10:55:03Z</time>
      </trkpt>
      <trkpt lat="44.83848" lon="6.14205">
        <ele>1592.2</ele>
        <time>2024-08-13T10:55:04Z</time>
      </trkpt>
      <trkpt lat="44.83848" lon="6.14205">
        <ele>1592.2</ele>
        <time>2024-08-13T10:55:05Z</time>
      </trkpt>
      <trkpt lat="44.83848" lon="6.14205">
        <ele>1592.4</ele>
        <time>2024-08-13T10:55:06Z</time>
      </trkpt>
      <trkpt lat="44.83849" lon="6.14207">
        <ele>1592.6</ele>
        <time>2024-08-13T10:55:07Z</time>
      </trkpt>
      <trkpt lat="44.83849" lon="6.14207">
        <ele>1592.8</ele>
        <time>2024-08-13T10:55:08Z</time>
      </trkpt>
      <trkpt lat="44.83852" lon="6.14208">
        <ele>1592.8</ele>
        <time>2024-08-13T10:55:09Z</time>
      </trkpt>
      <trkpt lat="44.83852" lon="6.14208">
        <ele>1593.2</ele>
        <time>2024-08-13T10:55:10Z</time>
      </trkpt>
      <trkpt lat="44.83852" lon="6.14208">
        <ele>1593.2</ele>
        <time>2024-08-13T10:55:11Z</time>
      </trkpt>
      <trkpt lat="44.83852" lon="6.14208">
        <ele>1593.2</ele>
        <time>2024-08-13T10:55:12Z</time>
      </trkpt>
      <trkpt lat="44.83854" lon="6.14209">
        <ele>1593.6</ele>
        <time>2024-08-13T10:55:13Z</time>
      </trkpt>
      <trkpt lat="44.83854" lon="6.14209">
        <ele>1593.8</ele>
        <time>2024-08-13T10:55:14Z</time>
      </trkpt>
      <trkpt lat="44.83854" lon="6.14209">
        <ele>1593.8</ele>
        <time>2024-08-13T10:55:15Z</time>
      </trkpt>
      <trkpt lat="44.83854" lon="6.14209">
        <ele>1594</ele>
        <time>2024-08-13T10:55:16Z</time>
      </trkpt>
      <trkpt lat="44.83856" lon="6.14208">
        <ele>1594.4</ele>
        <time>2024-08-13T10:55:17Z</time>
      </trkpt>
      <trkpt lat="44.83856" lon="6.14208">
        <ele>1594.6</ele>
        <time>2024-08-13T10:55:18Z</time>
      </trkpt>
      <trkpt lat="44.83856" lon="6.14208">
        <ele>1594.6</ele>
        <time>2024-08-13T10:55:19Z</time>
      </trkpt>
      <trkpt lat="44.83857" lon="6.14206">
        <ele>1595</ele>
        <time>2024-08-13T10:55:20Z</time>
      </trkpt>
      <trkpt lat="44.83857" lon="6.14206">
        <ele>1595.4</ele>
        <time>2024-08-13T10:55:21Z</time>
      </trkpt>
      <trkpt lat="44.83857" lon="6.14206">
        <ele>1595.4</ele>
        <time>2024-08-13T10:55:22Z</time>
      </trkpt>
      <trkpt lat="44.83859" lon="6.14203">
        <ele>1595.4</ele>
        <time>2024-08-13T10:55:23Z</time>
      </trkpt>
      <trkpt lat="44.83859" lon="6.14203">
        <ele>1595.8</ele>
        <time>2024-08-13T10:55:24Z</time>
      </trkpt>
      <trkpt lat="44.83859" lon="6.14203">
        <ele>1596</ele>
        <time>2024-08-13T10:55:25Z</time>
      </trkpt>
      <trkpt lat="44.83859" lon="6.14203">
        <ele>1596.2</ele>
        <time>2024-08-13T10:55:26Z</time>
      </trkpt>
      <trkpt lat="44.83859" lon="6.14203">
        <ele>1596.6</ele>
        <time>2024-08-13T10:55:27Z</time>
      </trkpt>
      <trkpt lat="44.83859" lon="6.14203">
        <ele>1596.6</ele>
        <time>2024-08-13T10:55:28Z</time>
      </trkpt>
      <trkpt lat="44.83859" lon="6.14203">
        <ele>1596.6</ele>
        <time>2024-08-13T10:55:29Z</time>
      </trkpt>
      <trkpt lat="44.83859" lon="6.14203">
        <ele>1596.6</ele>
        <time>2024-08-13T10:55:30Z</time>
      </trkpt>
      <trkpt lat="44.83859" lon="6.14203">
        <ele>1596.6</ele>
        <time>2024-08-13T10:55:31Z</time>
      </trkpt>
      <trkpt lat="44.83859" lon="6.14203">
        <ele>1596.8</ele>
        <time>2024-08-13T10:55:32Z</time>
      </trkpt>
      <trkpt lat="44.83859" lon="6.14203">
        <ele>1596.8</ele>
        <time>2024-08-13T10:55:33Z</time>
      </trkpt>
      <trkpt lat="44.83859" lon="6.14203">
        <ele>1596.8</ele>
        <time>2024-08-13T10:55:34Z</time>
      </trkpt>
      <trkpt lat="44.83859" lon="6.14201">
        <ele>1596.8</ele>
        <time>2024-08-13T10:55:35Z</time>
      </trkpt>
      <trkpt lat="44.83859" lon="6.14201">
        <ele>1596.8</ele>
        <time>2024-08-13T10:55:36Z</time>
      </trkpt>
      <trkpt lat="44.8386" lon="6.14199">
        <ele>1597</ele>
        <time>2024-08-13T10:55:37Z</time>
      </trkpt>
      <trkpt lat="44.8386" lon="6.14199">
        <ele>1597.2</ele>
        <time>2024-08-13T10:55:38Z</time>
      </trkpt>
      <trkpt lat="44.83863" lon="6.14197">
        <ele>1597.2</ele>
        <time>2024-08-13T10:55:39Z</time>
      </trkpt>
      <trkpt lat="44.83863" lon="6.14197">
        <ele>1597.6</ele>
        <time>2024-08-13T10:55:40Z</time>
      </trkpt>
      <trkpt lat="44.83865" lon="6.14196">
        <ele>1597.6</ele>
        <time>2024-08-13T10:55:41Z</time>
      </trkpt>
      <trkpt lat="44.83865" lon="6.14196">
        <ele>1597.6</ele>
        <time>2024-08-13T10:55:42Z</time>
      </trkpt>
      <trkpt lat="44.83869" lon="6.14194">
        <ele>1597.6</ele>
        <time>2024-08-13T10:55:43Z</time>
      </trkpt>
      <trkpt lat="44.83869" lon="6.14194">
        <ele>1597.8</ele>
        <time>2024-08-13T10:55:44Z</time>
      </trkpt>
      <trkpt lat="44.8387" lon="6.14193">
        <ele>1597.8</ele>
        <time>2024-08-13T10:55:45Z</time>
      </trkpt>
      <trkpt lat="44.8387" lon="6.14193">
        <ele>1598</ele>
        <time>2024-08-13T10:55:46Z</time>
      </trkpt>
      <trkpt lat="44.83872" lon="6.14192">
        <ele>1598.2</ele>
        <time>2024-08-13T10:55:47Z</time>
      </trkpt>
      <trkpt lat="44.83872" lon="6.14192">
        <ele>1598.2</ele>
        <time>2024-08-13T10:55:48Z</time>
      </trkpt>
      <trkpt lat="44.83872" lon="6.14192">
        <ele>1598.6</ele>
        <time>2024-08-13T10:55:49Z</time>
      </trkpt>
      <trkpt lat="44.83875" lon="6.14191">
        <ele>1598.6</ele>
        <time>2024-08-13T10:55:50Z</time>
      </trkpt>
      <trkpt lat="44.83875" lon="6.14191">
        <ele>1598.8</ele>
        <time>2024-08-13T10:55:51Z</time>
      </trkpt>
      <trkpt lat="44.83875" lon="6.14191">
        <ele>1598.8</ele>
        <time>2024-08-13T10:55:52Z</time>
      </trkpt>
      <trkpt lat="44.83875" lon="6.14191">
        <ele>1598.8</ele>
        <time>2024-08-13T10:55:53Z</time>
      </trkpt>
      <trkpt lat="44.83877" lon="6.14191">
        <ele>1599.2</ele>
        <time>2024-08-13T10:55:54Z</time>
      </trkpt>
      <trkpt lat="44.83877" lon="6.14191">
        <ele>1599.6</ele>
        <time>2024-08-13T10:55:55Z</time>
      </trkpt>
      <trkpt lat="44.83877" lon="6.14191">
        <ele>1599.6</ele>
        <time>2024-08-13T10:55:56Z</time>
      </trkpt>
      <trkpt lat="44.83879" lon="6.1419">
        <ele>1599.8</ele>
        <time>2024-08-13T10:55:57Z</time>
      </trkpt>
      <trkpt lat="44.83879" lon="6.1419">
        <ele>1600</ele>
        <time>2024-08-13T10:55:58Z</time>
      </trkpt>
      <trkpt lat="44.83879" lon="6.1419">
        <ele>1600.2</ele>
        <time>2024-08-13T10:55:59Z</time>
      </trkpt>
      <trkpt lat="44.83882" lon="6.14189">
        <ele>1600.4</ele>
        <time>2024-08-13T10:56:00Z</time>
      </trkpt>
      <trkpt lat="44.83882" lon="6.14189">
        <ele>1600.4</ele>
        <time>2024-08-13T10:56:01Z</time>
      </trkpt>
      <trkpt lat="44.83882" lon="6.14189">
        <ele>1600.4</ele>
        <time>2024-08-13T10:56:02Z</time>
      </trkpt>
      <trkpt lat="44.83882" lon="6.14189">
        <ele>1600.4</ele>
        <time>2024-08-13T10:56:03Z</time>
      </trkpt>
      <trkpt lat="44.83884" lon="6.14189">
        <ele>1600.4</ele>
        <time>2024-08-13T10:56:04Z</time>
      </trkpt>
      <trkpt lat="44.83884" lon="6.14189">
        <ele>1600.4</ele>
        <time>2024-08-13T10:56:05Z</time>
      </trkpt>
      <trkpt lat="44.83886" lon="6.14189">
        <ele>1600.6</ele>
        <time>2024-08-13T10:56:06Z</time>
      </trkpt>
      <trkpt lat="44.83886" lon="6.14189">
        <ele>1601</ele>
        <time>2024-08-13T10:56:07Z</time>
      </trkpt>
      <trkpt lat="44.83886" lon="6.14189">
        <ele>1601</ele>
        <time>2024-08-13T10:56:08Z</time>
      </trkpt>
      <trkpt lat="44.83889" lon="6.14189">
        <ele>1601.2</ele>
        <time>2024-08-13T10:56:09Z</time>
      </trkpt>
      <trkpt lat="44.83889" lon="6.14189">
        <ele>1601.4</ele>
        <time>2024-08-13T10:56:10Z</time>
      </trkpt>
      <trkpt lat="44.83889" lon="6.14189">
        <ele>1601.4</ele>
        <time>2024-08-13T10:56:11Z</time>
      </trkpt>
      <trkpt lat="44.83892" lon="6.14188">
        <ele>1601.4</ele>
        <time>2024-08-13T10:56:12Z</time>
      </trkpt>
      <trkpt lat="44.83892" lon="6.14188">
        <ele>1601.6</ele>
        <time>2024-08-13T10:56:13Z</time>
      </trkpt>
      <trkpt lat="44.83892" lon="6.14188">
        <ele>1601.6</ele>
        <time>2024-08-13T10:56:14Z</time>
      </trkpt>
      <trkpt lat="44.83894" lon="6.14188">
        <ele>1601.6</ele>
        <time>2024-08-13T10:56:15Z</time>
      </trkpt>
      <trkpt lat="44.83894" lon="6.14188">
        <ele>1602</ele>
        <time>2024-08-13T10:56:16Z</time>
      </trkpt>
      <trkpt lat="44.83894" lon="6.14188">
        <ele>1602</ele>
        <time>2024-08-13T10:56:17Z</time>
      </trkpt>
      <trkpt lat="44.83896" lon="6.14188">
        <ele>1602.4</ele>
        <time>2024-08-13T10:56:18Z</time>
      </trkpt>
      <trkpt lat="44.83896" lon="6.14188">
        <ele>1602.6</ele>
        <time>2024-08-13T10:56:19Z</time>
      </trkpt>
      <trkpt lat="44.83898" lon="6.14188">
        <ele>1602.8</ele>
        <time>2024-08-13T10:56:20Z</time>
      </trkpt>
      <trkpt lat="44.83898" lon="6.14188">
        <ele>1602.8</ele>
        <time>2024-08-13T10:56:21Z</time>
      </trkpt>
      <trkpt lat="44.83898" lon="6.14188">
        <ele>1603.2</ele>
        <time>2024-08-13T10:56:22Z</time>
      </trkpt>
      <trkpt lat="44.83901" lon="6.14187">
        <ele>1603.2</ele>
        <time>2024-08-13T10:56:23Z</time>
      </trkpt>
      <trkpt lat="44.83901" lon="6.14187">
        <ele>1603.4</ele>
        <time>2024-08-13T10:56:24Z</time>
      </trkpt>
      <trkpt lat="44.83901" lon="6.14187">
        <ele>1603.6</ele>
        <time>2024-08-13T10:56:25Z</time>
      </trkpt>
      <trkpt lat="44.83901" lon="6.14187">
        <ele>1603.6</ele>
        <time>2024-08-13T10:56:26Z</time>
      </trkpt>
      <trkpt lat="44.83903" lon="6.14186">
        <ele>1604</ele>
        <time>2024-08-13T10:56:27Z</time>
      </trkpt>
      <trkpt lat="44.83903" lon="6.14186">
        <ele>1604</ele>
        <time>2024-08-13T10:56:28Z</time>
      </trkpt>
      <trkpt lat="44.83903" lon="6.14186">
        <ele>1604</ele>
        <time>2024-08-13T10:56:29Z</time>
      </trkpt>
      <trkpt lat="44.83906" lon="6.14186">
        <ele>1604.4</ele>
        <time>2024-08-13T10:56:30Z</time>
      </trkpt>
      <trkpt lat="44.83906" lon="6.14186">
        <ele>1604.4</ele>
        <time>2024-08-13T10:56:31Z</time>
      </trkpt>
      <trkpt lat="44.83906" lon="6.14186">
        <ele>1604.4</ele>
        <time>2024-08-13T10:56:32Z</time>
      </trkpt>
      <trkpt lat="44.83908" lon="6.14184">
        <ele>1604.8</ele>
        <time>2024-08-13T10:56:33Z</time>
      </trkpt>
      <trkpt lat="44.83908" lon="6.14184">
        <ele>1605</ele>
        <time>2024-08-13T10:56:34Z</time>
      </trkpt>
      <trkpt lat="44.83908" lon="6.14184">
        <ele>1605</ele>
        <time>2024-08-13T10:56:35Z</time>
      </trkpt>
      <trkpt lat="44.8391" lon="6.14183">
        <ele>1605.4</ele>
        <time>2024-08-13T10:56:36Z</time>
      </trkpt>
      <trkpt lat="44.8391" lon="6.14183">
        <ele>1605.6</ele>
        <time>2024-08-13T10:56:37Z</time>
      </trkpt>
      <trkpt lat="44.8391" lon="6.14183">
        <ele>1605.8</ele>
        <time>2024-08-13T10:56:38Z</time>
      </trkpt>
      <trkpt lat="44.83912" lon="6.14183">
        <ele>1605.8</ele>
        <time>2024-08-13T10:56:39Z</time>
      </trkpt>
      <trkpt lat="44.83912" lon="6.14183">
        <ele>1605.8</ele>
        <time>2024-08-13T10:56:40Z</time>
      </trkpt>
      <trkpt lat="44.83912" lon="6.14183">
        <ele>1605.8</ele>
        <time>2024-08-13T10:56:41Z</time>
      </trkpt>
      <trkpt lat="44.83914" lon="6.14182">
        <ele>1606</ele>
        <time>2024-08-13T10:56:42Z</time>
      </trkpt>
      <trkpt lat="44.83914" lon="6.14182">
        <ele>1606.2</ele>
        <time>2024-08-13T10:56:43Z</time>
      </trkpt>
      <trkpt lat="44.83916" lon="6.14181">
        <ele>1606.6</ele>
        <time>2024-08-13T10:56:44Z</time>
      </trkpt>
      <trkpt lat="44.83916" lon="6.14181">
        <ele>1607.2</ele>
        <time>2024-08-13T10:56:45Z</time>
      </trkpt>
      <trkpt lat="44.83918" lon="6.14181">
        <ele>1607.2</ele>
        <time>2024-08-13T10:56:46Z</time>
      </trkpt>
      <trkpt lat="44.83918" lon="6.14181">
        <ele>1607.2</ele>
        <time>2024-08-13T10:56:47Z</time>
      </trkpt>
      <trkpt lat="44.83918" lon="6.14181">
        <ele>1607.2</ele>
        <time>2024-08-13T10:56:48Z</time>
      </trkpt>
      <trkpt lat="44.8392" lon="6.14179">
        <ele>1607.4</ele>
        <time>2024-08-13T10:56:49Z</time>
      </trkpt>
      <trkpt lat="44.8392" lon="6.14179">
        <ele>1607.6</ele>
        <time>2024-08-13T10:56:50Z</time>
      </trkpt>
      <trkpt lat="44.8392" lon="6.14179">
        <ele>1607.8</ele>
        <time>2024-08-13T10:56:51Z</time>
      </trkpt>
      <trkpt lat="44.83922" lon="6.14179">
        <ele>1607.8</ele>
        <time>2024-08-13T10:56:52Z</time>
      </trkpt>
      <trkpt lat="44.83922" lon="6.14179">
        <ele>1608.2</ele>
        <time>2024-08-13T10:56:53Z</time>
      </trkpt>
      <trkpt lat="44.83922" lon="6.14179">
        <ele>1608.6</ele>
        <time>2024-08-13T10:56:54Z</time>
      </trkpt>
      <trkpt lat="44.83925" lon="6.14178">
        <ele>1608.8</ele>
        <time>2024-08-13T10:56:55Z</time>
      </trkpt>
      <trkpt lat="44.83925" lon="6.14178">
        <ele>1609.2</ele>
        <time>2024-08-13T10:56:56Z</time>
      </trkpt>
      <trkpt lat="44.83925" lon="6.14178">
        <ele>1609.2</ele>
        <time>2024-08-13T10:56:57Z</time>
      </trkpt>
      <trkpt lat="44.83926" lon="6.14177">
        <ele>1609.4</ele>
        <time>2024-08-13T10:56:58Z</time>
      </trkpt>
      <trkpt lat="44.83926" lon="6.14177">
        <ele>1609.8</ele>
        <time>2024-08-13T10:56:59Z</time>
      </trkpt>
      <trkpt lat="44.83926" lon="6.14177">
        <ele>1610</ele>
        <time>2024-08-13T10:57:00Z</time>
      </trkpt>
      <trkpt lat="44.83928" lon="6.14176">
        <ele>1610</ele>
        <time>2024-08-13T10:57:01Z</time>
      </trkpt>
      <trkpt lat="44.83928" lon="6.14176">
        <ele>1610.4</ele>
        <time>2024-08-13T10:57:02Z</time>
      </trkpt>
      <trkpt lat="44.83928" lon="6.14176">
        <ele>1610.4</ele>
        <time>2024-08-13T10:57:03Z</time>
      </trkpt>
      <trkpt lat="44.8393" lon="6.14175">
        <ele>1610.8</ele>
        <time>2024-08-13T10:57:04Z</time>
      </trkpt>
      <trkpt lat="44.8393" lon="6.14175">
        <ele>1610.8</ele>
        <time>2024-08-13T10:57:05Z</time>
      </trkpt>
      <trkpt lat="44.83932" lon="6.14174">
        <ele>1610.8</ele>
        <time>2024-08-13T10:57:06Z</time>
      </trkpt>
      <trkpt lat="44.83932" lon="6.14174">
        <ele>1611.2</ele>
        <time>2024-08-13T10:57:07Z</time>
      </trkpt>
      <trkpt lat="44.83934" lon="6.14173">
        <ele>1611.2</ele>
        <time>2024-08-13T10:57:08Z</time>
      </trkpt>
      <trkpt lat="44.83934" lon="6.14173">
        <ele>1611.4</ele>
        <time>2024-08-13T10:57:09Z</time>
      </trkpt>
      <trkpt lat="44.83934" lon="6.14173">
        <ele>1611.4</ele>
        <time>2024-08-13T10:57:10Z</time>
      </trkpt>
      <trkpt lat="44.83936" lon="6.14172">
        <ele>1611.8</ele>
        <time>2024-08-13T10:57:11Z</time>
      </trkpt>
      <trkpt lat="44.83936" lon="6.14172">
        <ele>1612</ele>
        <time>2024-08-13T10:57:12Z</time>
      </trkpt>
      <trkpt lat="44.83936" lon="6.14172">
        <ele>1612</ele>
        <time>2024-08-13T10:57:13Z</time>
      </trkpt>
      <trkpt lat="44.83938" lon="6.14172">
        <ele>1612</ele>
        <time>2024-08-13T10:57:14Z</time>
      </trkpt>
      <trkpt lat="44.83938" lon="6.14172">
        <ele>1612.2</ele>
        <time>2024-08-13T10:57:15Z</time>
      </trkpt>
      <trkpt lat="44.83938" lon="6.14172">
        <ele>1612.2</ele>
        <time>2024-08-13T10:57:16Z</time>
      </trkpt>
      <trkpt lat="44.8394" lon="6.14171">
        <ele>1612.6</ele>
        <time>2024-08-13T10:57:17Z</time>
      </trkpt>
      <trkpt lat="44.8394" lon="6.14171">
        <ele>1612.6</ele>
        <time>2024-08-13T10:57:18Z</time>
      </trkpt>
      <trkpt lat="44.8394" lon="6.14171">
        <ele>1612.8</ele>
        <time>2024-08-13T10:57:19Z</time>
      </trkpt>
      <trkpt lat="44.83942" lon="6.1417">
        <ele>1613</ele>
        <time>2024-08-13T10:57:20Z</time>
      </trkpt>
      <trkpt lat="44.83942" lon="6.1417">
        <ele>1613.4</ele>
        <time>2024-08-13T10:57:21Z</time>
      </trkpt>
      <trkpt lat="44.83944" lon="6.14169">
        <ele>1613.4</ele>
        <time>2024-08-13T10:57:22Z</time>
      </trkpt>
      <trkpt lat="44.83944" lon="6.14169">
        <ele>1613.6</ele>
        <time>2024-08-13T10:57:23Z</time>
      </trkpt>
      <trkpt lat="44.83944" lon="6.14169">
        <ele>1613.8</ele>
        <time>2024-08-13T10:57:24Z</time>
      </trkpt>
      <trkpt lat="44.83946" lon="6.14167">
        <ele>1613.8</ele>
        <time>2024-08-13T10:57:25Z</time>
      </trkpt>
      <trkpt lat="44.83946" lon="6.14167">
        <ele>1614</ele>
        <time>2024-08-13T10:57:26Z</time>
      </trkpt>
      <trkpt lat="44.83946" lon="6.14167">
        <ele>1614</ele>
        <time>2024-08-13T10:57:27Z</time>
      </trkpt>
      <trkpt lat="44.83948" lon="6.14167">
        <ele>1614</ele>
        <time>2024-08-13T10:57:28Z</time>
      </trkpt>
      <trkpt lat="44.83948" lon="6.14167">
        <ele>1614.4</ele>
        <time>2024-08-13T10:57:29Z</time>
      </trkpt>
      <trkpt lat="44.8395" lon="6.14166">
        <ele>1614.6</ele>
        <time>2024-08-13T10:57:30Z</time>
      </trkpt>
      <trkpt lat="44.8395" lon="6.14166">
        <ele>1614.6</ele>
        <time>2024-08-13T10:57:31Z</time>
      </trkpt>
      <trkpt lat="44.8395" lon="6.14166">
        <ele>1615.2</ele>
        <time>2024-08-13T10:57:32Z</time>
      </trkpt>
      <trkpt lat="44.83952" lon="6.14165">
        <ele>1615.2</ele>
        <time>2024-08-13T10:57:33Z</time>
      </trkpt>
      <trkpt lat="44.83952" lon="6.14165">
        <ele>1615.2</ele>
        <time>2024-08-13T10:57:34Z</time>
      </trkpt>
      <trkpt lat="44.83954" lon="6.14164">
        <ele>1615.2</ele>
        <time>2024-08-13T10:57:35Z</time>
      </trkpt>
      <trkpt lat="44.83954" lon="6.14164">
        <ele>1615.4</ele>
        <time>2024-08-13T10:57:36Z</time>
      </trkpt>
      <trkpt lat="44.83956" lon="6.14164">
        <ele>1615.8</ele>
        <time>2024-08-13T10:57:37Z</time>
      </trkpt>
      <trkpt lat="44.83956" lon="6.14164">
        <ele>1615.8</ele>
        <time>2024-08-13T10:57:38Z</time>
      </trkpt>
      <trkpt lat="44.83956" lon="6.14164">
        <ele>1616.2</ele>
        <time>2024-08-13T10:57:39Z</time>
      </trkpt>
      <trkpt lat="44.83958" lon="6.14163">
        <ele>1616.2</ele>
        <time>2024-08-13T10:57:40Z</time>
      </trkpt>
      <trkpt lat="44.83958" lon="6.14163">
        <ele>1616.2</ele>
        <time>2024-08-13T10:57:41Z</time>
      </trkpt>
      <trkpt lat="44.8396" lon="6.14163">
        <ele>1616.2</ele>
        <time>2024-08-13T10:57:42Z</time>
      </trkpt>
      <trkpt lat="44.8396" lon="6.14163">
        <ele>1616.6</ele>
        <time>2024-08-13T10:57:43Z</time>
      </trkpt>
      <trkpt lat="44.8396" lon="6.14163">
        <ele>1616.6</ele>
        <time>2024-08-13T10:57:44Z</time>
      </trkpt>
      <trkpt lat="44.83962" lon="6.14158">
        <ele>1616.8</ele>
        <time>2024-08-13T10:57:45Z</time>
      </trkpt>
      <trkpt lat="44.83962" lon="6.14158">
        <ele>1617.2</ele>
        <time>2024-08-13T10:57:46Z</time>
      </trkpt>
      <trkpt lat="44.83962" lon="6.14158">
        <ele>1617.4</ele>
        <time>2024-08-13T10:57:47Z</time>
      </trkpt>
      <trkpt lat="44.83964" lon="6.14157">
        <ele>1617.6</ele>
        <time>2024-08-13T10:57:48Z</time>
      </trkpt>
      <trkpt lat="44.83964" lon="6.14157">
        <ele>1617.6</ele>
        <time>2024-08-13T10:57:49Z</time>
      </trkpt>
      <trkpt lat="44.83964" lon="6.14157">
        <ele>1617.8</ele>
        <time>2024-08-13T10:57:50Z</time>
      </trkpt>
      <trkpt lat="44.83966" lon="6.14157">
        <ele>1617.8</ele>
        <time>2024-08-13T10:57:51Z</time>
      </trkpt>
      <trkpt lat="44.83966" lon="6.14157">
        <ele>1618</ele>
        <time>2024-08-13T10:57:52Z</time>
      </trkpt>
      <trkpt lat="44.83966" lon="6.14157">
        <ele>1618.2</ele>
        <time>2024-08-13T10:57:53Z</time>
      </trkpt>
      <trkpt lat="44.83968" lon="6.14156">
        <ele>1618.2</ele>
        <time>2024-08-13T10:57:54Z</time>
      </trkpt>
      <trkpt lat="44.83968" lon="6.14156">
        <ele>1618.6</ele>
        <time>2024-08-13T10:57:55Z</time>
      </trkpt>
      <trkpt lat="44.83968" lon="6.14156">
        <ele>1618.6</ele>
        <time>2024-08-13T10:57:56Z</time>
      </trkpt>
      <trkpt lat="44.83971" lon="6.14156">
        <ele>1618.8</ele>
        <time>2024-08-13T10:57:57Z</time>
      </trkpt>
      <trkpt lat="44.83971" lon="6.14156">
        <ele>1619.4</ele>
        <time>2024-08-13T10:57:58Z</time>
      </trkpt>
      <trkpt lat="44.83973" lon="6.14156">
        <ele>1619.4</ele>
        <time>2024-08-13T10:57:59Z</time>
      </trkpt>
      <trkpt lat="44.83973" lon="6.14156">
        <ele>1619.4</ele>
        <time>2024-08-13T10:58:00Z</time>
      </trkpt>
      <trkpt lat="44.83973" lon="6.14156">
        <ele>1619.6</ele>
        <time>2024-08-13T10:58:01Z</time>
      </trkpt>
      <trkpt lat="44.83976" lon="6.14155">
        <ele>1620</ele>
        <time>2024-08-13T10:58:02Z</time>
      </trkpt>
      <trkpt lat="44.83976" lon="6.14155">
        <ele>1620</ele>
        <time>2024-08-13T10:58:03Z</time>
      </trkpt>
      <trkpt lat="44.83976" lon="6.14155">
        <ele>1620.4</ele>
        <time>2024-08-13T10:58:04Z</time>
      </trkpt>
      <trkpt lat="44.83976" lon="6.14155">
        <ele>1620.6</ele>
        <time>2024-08-13T10:58:05Z</time>
      </trkpt>
      <trkpt lat="44.83978" lon="6.14156">
        <ele>1620.6</ele>
        <time>2024-08-13T10:58:06Z</time>
      </trkpt>
      <trkpt lat="44.83978" lon="6.14156">
        <ele>1621</ele>
        <time>2024-08-13T10:58:07Z</time>
      </trkpt>
      <trkpt lat="44.83978" lon="6.14156">
        <ele>1621</ele>
        <time>2024-08-13T10:58:08Z</time>
      </trkpt>
      <trkpt lat="44.83977" lon="6.1416">
        <ele>1621</ele>
        <time>2024-08-13T10:58:09Z</time>
      </trkpt>
      <trkpt lat="44.83977" lon="6.1416">
        <ele>1621.2</ele>
        <time>2024-08-13T10:58:10Z</time>
      </trkpt>
      <trkpt lat="44.83976" lon="6.14163">
        <ele>1621.2</ele>
        <time>2024-08-13T10:58:11Z</time>
      </trkpt>
      <trkpt lat="44.83976" lon="6.14163">
        <ele>1622</ele>
        <time>2024-08-13T10:58:12Z</time>
      </trkpt>
      <trkpt lat="44.83975" lon="6.14165">
        <ele>1622</ele>
        <time>2024-08-13T10:58:13Z</time>
      </trkpt>
      <trkpt lat="44.83975" lon="6.14165">
        <ele>1622</ele>
        <time>2024-08-13T10:58:14Z</time>
      </trkpt>
      <trkpt lat="44.83974" lon="6.14167">
        <ele>1622.4</ele>
        <time>2024-08-13T10:58:15Z</time>
      </trkpt>
      <trkpt lat="44.83974" lon="6.14167">
        <ele>1622.4</ele>
        <time>2024-08-13T10:58:16Z</time>
      </trkpt>
      <trkpt lat="44.83974" lon="6.14167">
        <ele>1622.8</ele>
        <time>2024-08-13T10:58:17Z</time>
      </trkpt>
      <trkpt lat="44.83972" lon="6.1417">
        <ele>1623</ele>
        <time>2024-08-13T10:58:18Z</time>
      </trkpt>
      <trkpt lat="44.83972" lon="6.1417">
        <ele>1623.2</ele>
        <time>2024-08-13T10:58:19Z</time>
      </trkpt>
      <trkpt lat="44.83972" lon="6.1417">
        <ele>1623</ele>
        <time>2024-08-13T10:58:20Z</time>
      </trkpt>
      <trkpt lat="44.83971" lon="6.14172">
        <ele>1623</ele>
        <time>2024-08-13T10:58:21Z</time>
      </trkpt>
      <trkpt lat="44.83971" lon="6.14172">
        <ele>1623</ele>
        <time>2024-08-13T10:58:22Z</time>
      </trkpt>
      <trkpt lat="44.83971" lon="6.14172">
        <ele>1623.2</ele>
        <time>2024-08-13T10:58:23Z</time>
      </trkpt>
      <trkpt lat="44.83971" lon="6.14172">
        <ele>1623.4</ele>
        <time>2024-08-13T10:58:24Z</time>
      </trkpt>
      <trkpt lat="44.83969" lon="6.14175">
        <ele>1623.6</ele>
        <time>2024-08-13T10:58:25Z</time>
      </trkpt>
      <trkpt lat="44.83969" lon="6.14175">
        <ele>1623.6</ele>
        <time>2024-08-13T10:58:26Z</time>
      </trkpt>
      <trkpt lat="44.83967" lon="6.14178">
        <ele>1624</ele>
        <time>2024-08-13T10:58:27Z</time>
      </trkpt>
      <trkpt lat="44.83967" lon="6.14178">
        <ele>1624</ele>
        <time>2024-08-13T10:58:28Z</time>
      </trkpt>
      <trkpt lat="44.83966" lon="6.1418">
        <ele>1624.2</ele>
        <time>2024-08-13T10:58:29Z</time>
      </trkpt>
      <trkpt lat="44.83966" lon="6.1418">
        <ele>1624.2</ele>
        <time>2024-08-13T10:58:30Z</time>
      </trkpt>
      <trkpt lat="44.83964" lon="6.14182">
        <ele>1624.4</ele>
        <time>2024-08-13T10:58:31Z</time>
      </trkpt>
      <trkpt lat="44.83964" lon="6.14182">
        <ele>1624.8</ele>
        <time>2024-08-13T10:58:32Z</time>
      </trkpt>
      <trkpt lat="44.83964" lon="6.14182">
        <ele>1624.8</ele>
        <time>2024-08-13T10:58:33Z</time>
      </trkpt>
      <trkpt lat="44.83964" lon="6.14182">
        <ele>1624.8</ele>
        <time>2024-08-13T10:58:34Z</time>
      </trkpt>
      <trkpt lat="44.83963" lon="6.14184">
        <ele>1625</ele>
        <time>2024-08-13T10:58:35Z</time>
      </trkpt>
      <trkpt lat="44.83963" lon="6.14184">
        <ele>1625.2</ele>
        <time>2024-08-13T10:58:36Z</time>
      </trkpt>
      <trkpt lat="44.83963" lon="6.14184">
        <ele>1625.2</ele>
        <time>2024-08-13T10:58:37Z</time>
      </trkpt>
      <trkpt lat="44.83963" lon="6.14184">
        <ele>1625.2</ele>
        <time>2024-08-13T10:58:38Z</time>
      </trkpt>
      <trkpt lat="44.83963" lon="6.14184">
        <ele>1625.4</ele>
        <time>2024-08-13T10:58:39Z</time>
      </trkpt>
      <trkpt lat="44.83963" lon="6.14184">
        <ele>1625.6</ele>
        <time>2024-08-13T10:58:40Z</time>
      </trkpt>
      <trkpt lat="44.83963" lon="6.14184">
        <ele>1625.6</ele>
        <time>2024-08-13T10:58:41Z</time>
      </trkpt>
      <trkpt lat="44.83963" lon="6.14184">
        <ele>1625.6</ele>
        <time>2024-08-13T10:58:42Z</time>
      </trkpt>
      <trkpt lat="44.83963" lon="6.14184">
        <ele>1625.8</ele>
        <time>2024-08-13T10:58:43Z</time>
      </trkpt>
      <trkpt lat="44.83963" lon="6.14184">
        <ele>1625.8</ele>
        <time>2024-08-13T10:58:44Z</time>
      </trkpt>
      <trkpt lat="44.83963" lon="6.14184">
        <ele>1625.8</ele>
        <time>2024-08-13T10:58:45Z</time>
      </trkpt>
      <trkpt lat="44.83963" lon="6.14184">
        <ele>1625.6</ele>
        <time>2024-08-13T10:58:46Z</time>
      </trkpt>
      <trkpt lat="44.83963" lon="6.14184">
        <ele>1625.4</ele>
        <time>2024-08-13T10:58:47Z</time>
      </trkpt>
      <trkpt lat="44.83963" lon="6.14184">
        <ele>1625.4</ele>
        <time>2024-08-13T10:58:48Z</time>
      </trkpt>
      <trkpt lat="44.83963" lon="6.14184">
        <ele>1625.4</ele>
        <time>2024-08-13T10:58:49Z</time>
      </trkpt>
      <trkpt lat="44.83963" lon="6.14184">
        <ele>1625.4</ele>
        <time>2024-08-13T10:58:50Z</time>
      </trkpt>
      <trkpt lat="44.83963" lon="6.14184">
        <ele>1625.8</ele>
        <time>2024-08-13T10:58:51Z</time>
      </trkpt>
      <trkpt lat="44.83963" lon="6.14184">
        <ele>1626.4</ele>
        <time>2024-08-13T10:58:52Z</time>
      </trkpt>
      <trkpt lat="44.83963" lon="6.14184">
        <ele>1626.8</ele>
        <time>2024-08-13T10:58:53Z</time>
      </trkpt>
      <trkpt lat="44.83963" lon="6.14184">
        <ele>1626.8</ele>
        <time>2024-08-13T10:58:54Z</time>
      </trkpt>
      <trkpt lat="44.83963" lon="6.14184">
        <ele>1626.6</ele>
        <time>2024-08-13T10:58:55Z</time>
      </trkpt>
      <trkpt lat="44.83963" lon="6.14184">
        <ele>1626.6</ele>
        <time>2024-08-13T10:58:56Z</time>
      </trkpt>
      <trkpt lat="44.83963" lon="6.14184">
        <ele>1626.8</ele>
        <time>2024-08-13T10:58:57Z</time>
      </trkpt>
      <trkpt lat="44.83963" lon="6.14184">
        <ele>1626.8</ele>
        <time>2024-08-13T10:58:58Z</time>
      </trkpt>
      <trkpt lat="44.83963" lon="6.14184">
        <ele>1626.8</ele>
        <time>2024-08-13T10:58:59Z</time>
      </trkpt>
      <trkpt lat="44.83963" lon="6.14184">
        <ele>1626.8</ele>
        <time>2024-08-13T10:59:00Z</time>
      </trkpt>
      <trkpt lat="44.83963" lon="6.14184">
        <ele>1626.8</ele>
        <time>2024-08-13T10:59:01Z</time>
      </trkpt>
      <trkpt lat="44.83963" lon="6.14184">
        <ele>1627</ele>
        <time>2024-08-13T10:59:02Z</time>
      </trkpt>
      <trkpt lat="44.83963" lon="6.14184">
        <ele>1627</ele>
        <time>2024-08-13T10:59:03Z</time>
      </trkpt>
      <trkpt lat="44.83963" lon="6.14184">
        <ele>1627</ele>
        <time>2024-08-13T10:59:04Z</time>
      </trkpt>
      <trkpt lat="44.83963" lon="6.14184">
        <ele>1627</ele>
        <time>2024-08-13T10:59:05Z</time>
      </trkpt>
      <trkpt lat="44.83963" lon="6.14184">
        <ele>1627</ele>
        <time>2024-08-13T10:59:06Z</time>
      </trkpt>
      <trkpt lat="44.83963" lon="6.14184">
        <ele>1627</ele>
        <time>2024-08-13T10:59:07Z</time>
      </trkpt>
      <trkpt lat="44.83963" lon="6.14184">
        <ele>1627.2</ele>
        <time>2024-08-13T10:59:08Z</time>
      </trkpt>
      <trkpt lat="44.83963" lon="6.14184">
        <ele>1627.2</ele>
        <time>2024-08-13T10:59:09Z</time>
      </trkpt>
      <trkpt lat="44.83963" lon="6.14184">
        <ele>1627.2</ele>
        <time>2024-08-13T10:59:10Z</time>
      </trkpt>
      <trkpt lat="44.83963" lon="6.14184">
        <ele>1627.2</ele>
        <time>2024-08-13T10:59:11Z</time>
      </trkpt>
      <trkpt lat="44.83963" lon="6.14184">
        <ele>1627</ele>
        <time>2024-08-13T10:59:12Z</time>
      </trkpt>
      <trkpt lat="44.83963" lon="6.14184">
        <ele>1627</ele>
        <time>2024-08-13T10:59:13Z</time>
      </trkpt>
      <trkpt lat="44.83963" lon="6.14184">
        <ele>1627</ele>
        <time>2024-08-13T10:59:14Z</time>
      </trkpt>
      <trkpt lat="44.83963" lon="6.14184">
        <ele>1627</ele>
        <time>2024-08-13T10:59:15Z</time>
      </trkpt>
      <trkpt lat="44.83963" lon="6.14184">
        <ele>1627</ele>
        <time>2024-08-13T10:59:16Z</time>
      </trkpt>
      <trkpt lat="44.83963" lon="6.14184">
        <ele>1626.8</ele>
        <time>2024-08-13T10:59:17Z</time>
      </trkpt>
      <trkpt lat="44.83963" lon="6.14184">
        <ele>1626.8</ele>
        <time>2024-08-13T10:59:18Z</time>
      </trkpt>
      <trkpt lat="44.83963" lon="6.14184">
        <ele>1626.4</ele>
        <time>2024-08-13T10:59:19Z</time>
      </trkpt>
      <trkpt lat="44.83963" lon="6.14184">
        <ele>1626.4</ele>
        <time>2024-08-13T10:59:20Z</time>
      </trkpt>
      <trkpt lat="44.83963" lon="6.14184">
        <ele>1626.4</ele>
        <time>2024-08-13T10:59:21Z</time>
      </trkpt>
      <trkpt lat="44.83963" lon="6.14184">
        <ele>1626.4</ele>
        <time>2024-08-13T10:59:22Z</time>
      </trkpt>
      <trkpt lat="44.83963" lon="6.14184">
        <ele>1626.4</ele>
        <time>2024-08-13T10:59:23Z</time>
      </trkpt>
      <trkpt lat="44.83963" lon="6.14184">
        <ele>1626.4</ele>
        <time>2024-08-13T10:59:24Z</time>
      </trkpt>
      <trkpt lat="44.83963" lon="6.14184">
        <ele>1626.4</ele>
        <time>2024-08-13T10:59:25Z</time>
      </trkpt>
      <trkpt lat="44.83963" lon="6.14184">
        <ele>1626.4</ele>
        <time>2024-08-13T10:59:26Z</time>
      </trkpt>
      <trkpt lat="44.83963" lon="6.14184">
        <ele>1626.4</ele>
        <time>2024-08-13T10:59:27Z</time>
      </trkpt>
      <trkpt lat="44.83963" lon="6.14184">
        <ele>1626.2</ele>
        <time>2024-08-13T10:59:28Z</time>
      </trkpt>
      <trkpt lat="44.83963" lon="6.14184">
        <ele>1626.2</ele>
        <time>2024-08-13T10:59:29Z</time>
      </trkpt>
      <trkpt lat="44.83963" lon="6.14184">
        <ele>1626.2</ele>
        <time>2024-08-13T10:59:30Z</time>
      </trkpt>
      <trkpt lat="44.83963" lon="6.14184">
        <ele>1626.6</ele>
        <time>2024-08-13T10:59:31Z</time>
      </trkpt>
      <trkpt lat="44.83963" lon="6.14184">
        <ele>1626.8</ele>
        <time>2024-08-13T10:59:32Z</time>
      </trkpt>
      <trkpt lat="44.83963" lon="6.14184">
        <ele>1626.8</ele>
        <time>2024-08-13T10:59:33Z</time>
      </trkpt>
      <trkpt lat="44.83963" lon="6.14184">
        <ele>1626.8</ele>
        <time>2024-08-13T10:59:34Z</time>
      </trkpt>
      <trkpt lat="44.83963" lon="6.14184">
        <ele>1626.6</ele>
        <time>2024-08-13T10:59:35Z</time>
      </trkpt>
      <trkpt lat="44.83963" lon="6.14184">
        <ele>1626.6</ele>
        <time>2024-08-13T10:59:36Z</time>
      </trkpt>
      <trkpt lat="44.83963" lon="6.14184">
        <ele>1626.4</ele>
        <time>2024-08-13T10:59:37Z</time>
      </trkpt>
      <trkpt lat="44.83963" lon="6.14184">
        <ele>1626.4</ele>
        <time>2024-08-13T10:59:38Z</time>
      </trkpt>
      <trkpt lat="44.83963" lon="6.14184">
        <ele>1626.4</ele>
        <time>2024-08-13T10:59:39Z</time>
      </trkpt>
      <trkpt lat="44.83963" lon="6.14184">
        <ele>1626.4</ele>
        <time>2024-08-13T10:59:40Z</time>
      </trkpt>
      <trkpt lat="44.83963" lon="6.14184">
        <ele>1626.4</ele>
        <time>2024-08-13T10:59:41Z</time>
      </trkpt>
      <trkpt lat="44.83963" lon="6.14184">
        <ele>1626.4</ele>
        <time>2024-08-13T10:59:42Z</time>
      </trkpt>
      <trkpt lat="44.83963" lon="6.14184">
        <ele>1626.4</ele>
        <time>2024-08-13T10:59:43Z</time>
      </trkpt>
      <trkpt lat="44.83963" lon="6.14184">
        <ele>1626.4</ele>
        <time>2024-08-13T10:59:44Z</time>
      </trkpt>
      <trkpt lat="44.83963" lon="6.14184">
        <ele>1626.6</ele>
        <time>2024-08-13T10:59:45Z</time>
      </trkpt>
      <trkpt lat="44.83963" lon="6.14184">
        <ele>1626.6</ele>
        <time>2024-08-13T10:59:46Z</time>
      </trkpt>
      <trkpt lat="44.83963" lon="6.14184">
        <ele>1626.8</ele>
        <time>2024-08-13T10:59:47Z</time>
      </trkpt>
      <trkpt lat="44.83963" lon="6.14184">
        <ele>1627</ele>
        <time>2024-08-13T10:59:48Z</time>
      </trkpt>
      <trkpt lat="44.83963" lon="6.14184">
        <ele>1627.2</ele>
        <time>2024-08-13T10:59:49Z</time>
      </trkpt>
      <trkpt lat="44.83963" lon="6.14184">
        <ele>1627.4</ele>
        <time>2024-08-13T10:59:50Z</time>
      </trkpt>
      <trkpt lat="44.83963" lon="6.14184">
        <ele>1627.6</ele>
        <time>2024-08-13T10:59:51Z</time>
      </trkpt>
      <trkpt lat="44.83963" lon="6.14184">
        <ele>1628</ele>
        <time>2024-08-13T10:59:52Z</time>
      </trkpt>
      <trkpt lat="44.83963" lon="6.14184">
        <ele>1628.4</ele>
        <time>2024-08-13T10:59:53Z</time>
      </trkpt>
      <trkpt lat="44.83963" lon="6.14184">
        <ele>1628.4</ele>
        <time>2024-08-13T10:59:54Z</time>
      </trkpt>
      <trkpt lat="44.83963" lon="6.14184">
        <ele>1628.4</ele>
        <time>2024-08-13T10:59:55Z</time>
      </trkpt>
      <trkpt lat="44.83963" lon="6.14184">
        <ele>1628.6</ele>
        <time>2024-08-13T10:59:56Z</time>
      </trkpt>
      <trkpt lat="44.83963" lon="6.14184">
        <ele>1628.8</ele>
        <time>2024-08-13T10:59:57Z</time>
      </trkpt>
      <trkpt lat="44.83963" lon="6.14184">
        <ele>1629.2</ele>
        <time>2024-08-13T10:59:58Z</time>
      </trkpt>
      <trkpt lat="44.83963" lon="6.14184">
        <ele>1629.2</ele>
        <time>2024-08-13T10:59:59Z</time>
      </trkpt>
      <trkpt lat="44.83963" lon="6.14184">
        <ele>1628.8</ele>
        <time>2024-08-13T11:00:00Z</time>
      </trkpt>
      <trkpt lat="44.83963" lon="6.14184">
        <ele>1628.8</ele>
        <time>2024-08-13T11:00:01Z</time>
      </trkpt>
      <trkpt lat="44.83963" lon="6.14184">
        <ele>1628.8</ele>
        <time>2024-08-13T11:00:02Z</time>
      </trkpt>
      <trkpt lat="44.83963" lon="6.14184">
        <ele>1628.8</ele>
        <time>2024-08-13T11:00:03Z</time>
      </trkpt>
      <trkpt lat="44.83963" lon="6.14184">
        <ele>1628.8</ele>
        <time>2024-08-13T11:00:04Z</time>
      </trkpt>
      <trkpt lat="44.83963" lon="6.14184">
        <ele>1628.6</ele>
        <time>2024-08-13T11:00:05Z</time>
      </trkpt>
      <trkpt lat="44.83963" lon="6.14184">
        <ele>1628.4</ele>
        <time>2024-08-13T11:00:06Z</time>
      </trkpt>
      <trkpt lat="44.83963" lon="6.14184">
        <ele>1628.2</ele>
        <time>2024-08-13T11:00:07Z</time>
      </trkpt>
      <trkpt lat="44.83963" lon="6.14184">
        <ele>1627.8</ele>
        <time>2024-08-13T11:00:08Z</time>
      </trkpt>
      <trkpt lat="44.83963" lon="6.14184">
        <ele>1627.8</ele>
        <time>2024-08-13T11:00:09Z</time>
      </trkpt>
      <trkpt lat="44.83963" lon="6.14184">
        <ele>1627.6</ele>
        <time>2024-08-13T11:00:10Z</time>
      </trkpt>
      <trkpt lat="44.83963" lon="6.14184">
        <ele>1627.6</ele>
        <time>2024-08-13T11:00:11Z</time>
      </trkpt>
      <trkpt lat="44.83963" lon="6.14184">
        <ele>1627.4</ele>
        <time>2024-08-13T11:00:12Z</time>
      </trkpt>
      <trkpt lat="44.83963" lon="6.14184">
        <ele>1627.4</ele>
        <time>2024-08-13T11:00:13Z</time>
      </trkpt>
      <trkpt lat="44.83963" lon="6.14184">
        <ele>1627.4</ele>
        <time>2024-08-13T11:00:14Z</time>
      </trkpt>
      <trkpt lat="44.83963" lon="6.14184">
        <ele>1627.4</ele>
        <time>2024-08-13T11:00:15Z</time>
      </trkpt>
      <trkpt lat="44.83963" lon="6.14184">
        <ele>1627.4</ele>
        <time>2024-08-13T11:00:16Z</time>
      </trkpt>
      <trkpt lat="44.83963" lon="6.14184">
        <ele>1627.4</ele>
        <time>2024-08-13T11:00:17Z</time>
      </trkpt>
      <trkpt lat="44.83963" lon="6.14184">
        <ele>1627.4</ele>
        <time>2024-08-13T11:00:18Z</time>
      </trkpt>
      <trkpt lat="44.83963" lon="6.14184">
        <ele>1627.4</ele>
        <time>2024-08-13T11:00:19Z</time>
      </trkpt>
      <trkpt lat="44.83963" lon="6.14184">
        <ele>1627.4</ele>
        <time>2024-08-13T11:00:20Z</time>
      </trkpt>
      <trkpt lat="44.83963" lon="6.14184">
        <ele>1627.2</ele>
        <time>2024-08-13T11:00:21Z</time>
      </trkpt>
      <trkpt lat="44.83963" lon="6.14184">
        <ele>1627.2</ele>
        <time>2024-08-13T11:00:22Z</time>
      </trkpt>
      <trkpt lat="44.83963" lon="6.14184">
        <ele>1627</ele>
        <time>2024-08-13T11:00:23Z</time>
      </trkpt>
      <trkpt lat="44.83963" lon="6.14184">
        <ele>1626.6</ele>
        <time>2024-08-13T11:00:24Z</time>
      </trkpt>
      <trkpt lat="44.83963" lon="6.14184">
        <ele>1626.4</ele>
        <time>2024-08-13T11:00:25Z</time>
      </trkpt>
      <trkpt lat="44.83963" lon="6.14184">
        <ele>1626.4</ele>
        <time>2024-08-13T11:00:26Z</time>
      </trkpt>
      <trkpt lat="44.83963" lon="6.14184">
        <ele>1626.6</ele>
        <time>2024-08-13T11:00:27Z</time>
      </trkpt>
      <trkpt lat="44.83963" lon="6.14184">
        <ele>1627.2</ele>
        <time>2024-08-13T11:00:28Z</time>
      </trkpt>
      <trkpt lat="44.83963" lon="6.14184">
        <ele>1627.2</ele>
        <time>2024-08-13T11:00:29Z</time>
      </trkpt>
      <trkpt lat="44.83963" lon="6.14184">
        <ele>1627.2</ele>
        <time>2024-08-13T11:00:30Z</time>
      </trkpt>
      <trkpt lat="44.83963" lon="6.14184">
        <ele>1627.6</ele>
        <time>2024-08-13T11:00:31Z</time>
      </trkpt>
      <trkpt lat="44.83963" lon="6.14184">
        <ele>1627.6</ele>
        <time>2024-08-13T11:00:32Z</time>
      </trkpt>
      <trkpt lat="44.83963" lon="6.14184">
        <ele>1627.6</ele>
        <time>2024-08-13T11:00:33Z</time>
      </trkpt>
      <trkpt lat="44.83963" lon="6.14184">
        <ele>1627.4</ele>
        <time>2024-08-13T11:00:34Z</time>
      </trkpt>
      <trkpt lat="44.83963" lon="6.14184">
        <ele>1627.4</ele>
        <time>2024-08-13T11:00:35Z</time>
      </trkpt>
      <trkpt lat="44.83963" lon="6.14184">
        <ele>1627.6</ele>
        <time>2024-08-13T11:00:36Z</time>
      </trkpt>
      <trkpt lat="44.83963" lon="6.14184">
        <ele>1627.6</ele>
        <time>2024-08-13T11:00:37Z</time>
      </trkpt>
      <trkpt lat="44.83963" lon="6.14184">
        <ele>1627.6</ele>
        <time>2024-08-13T11:00:38Z</time>
      </trkpt>
      <trkpt lat="44.83963" lon="6.14184">
        <ele>1627.6</ele>
        <time>2024-08-13T11:00:39Z</time>
      </trkpt>
      <trkpt lat="44.83963" lon="6.14184">
        <ele>1627.8</ele>
        <time>2024-08-13T11:00:40Z</time>
      </trkpt>
      <trkpt lat="44.83963" lon="6.14184">
        <ele>1627.8</ele>
        <time>2024-08-13T11:00:41Z</time>
      </trkpt>
      <trkpt lat="44.83963" lon="6.14184">
        <ele>1627.8</ele>
        <time>2024-08-13T11:00:42Z</time>
      </trkpt>
      <trkpt lat="44.83963" lon="6.14184">
        <ele>1627.8</ele>
        <time>2024-08-13T11:00:43Z</time>
      </trkpt>
      <trkpt lat="44.83963" lon="6.14184">
        <ele>1627.8</ele>
        <time>2024-08-13T11:00:44Z</time>
      </trkpt>
      <trkpt lat="44.83963" lon="6.14184">
        <ele>1627.6</ele>
        <time>2024-08-13T11:00:45Z</time>
      </trkpt>
      <trkpt lat="44.83963" lon="6.14184">
        <ele>1627.4</ele>
        <time>2024-08-13T11:00:46Z</time>
      </trkpt>
      <trkpt lat="44.83963" lon="6.14184">
        <ele>1627.4</ele>
        <time>2024-08-13T11:00:47Z</time>
      </trkpt>
      <trkpt lat="44.83963" lon="6.14184">
        <ele>1627.6</ele>
        <time>2024-08-13T11:00:48Z</time>
      </trkpt>
      <trkpt lat="44.83963" lon="6.14184">
        <ele>1627.6</ele>
        <time>2024-08-13T11:00:49Z</time>
      </trkpt>
      <trkpt lat="44.83963" lon="6.14184">
        <ele>1627.6</ele>
        <time>2024-08-13T11:00:50Z</time>
      </trkpt>
      <trkpt lat="44.83963" lon="6.14184">
        <ele>1627.6</ele>
        <time>2024-08-13T11:00:51Z</time>
      </trkpt>
      <trkpt lat="44.83963" lon="6.14184">
        <ele>1627.6</ele>
        <time>2024-08-13T11:00:52Z</time>
      </trkpt>
      <trkpt lat="44.83963" lon="6.14184">
        <ele>1627.6</ele>
        <time>2024-08-13T11:00:53Z</time>
      </trkpt>
      <trkpt lat="44.83963" lon="6.14184">
        <ele>1627.8</ele>
        <time>2024-08-13T11:00:54Z</time>
      </trkpt>
      <trkpt lat="44.83961" lon="6.14187">
        <ele>1627.8</ele>
        <time>2024-08-13T11:00:55Z</time>
      </trkpt>
      <trkpt lat="44.83961" lon="6.14187">
        <ele>1628.2</ele>
        <time>2024-08-13T11:00:56Z</time>
      </trkpt>
      <trkpt lat="44.8396" lon="6.1419">
        <ele>1628.4</ele>
        <time>2024-08-13T11:00:57Z</time>
      </trkpt>
      <trkpt lat="44.8396" lon="6.1419">
        <ele>1628.6</ele>
        <time>2024-08-13T11:00:58Z</time>
      </trkpt>
      <trkpt lat="44.83958" lon="6.14192">
        <ele>1628.6</ele>
        <time>2024-08-13T11:00:59Z</time>
      </trkpt>
      <trkpt lat="44.83958" lon="6.14192">
        <ele>1629.2</ele>
        <time>2024-08-13T11:01:00Z</time>
      </trkpt>
      <trkpt lat="44.83956" lon="6.14193">
        <ele>1629.2</ele>
        <time>2024-08-13T11:01:01Z</time>
      </trkpt>
      <trkpt lat="44.83956" lon="6.14193">
        <ele>1629.2</ele>
        <time>2024-08-13T11:01:02Z</time>
      </trkpt>
      <trkpt lat="44.83955" lon="6.14194">
        <ele>1629.2</ele>
        <time>2024-08-13T11:01:03Z</time>
      </trkpt>
      <trkpt lat="44.83955" lon="6.14194">
        <ele>1629.2</ele>
        <time>2024-08-13T11:01:04Z</time>
      </trkpt>
      <trkpt lat="44.83955" lon="6.14194">
        <ele>1629.4</ele>
        <time>2024-08-13T11:01:05Z</time>
      </trkpt>
      <trkpt lat="44.83953" lon="6.14196">
        <ele>1629.4</ele>
        <time>2024-08-13T11:01:06Z</time>
      </trkpt>
      <trkpt lat="44.83953" lon="6.14196">
        <ele>1629.8</ele>
        <time>2024-08-13T11:01:07Z</time>
      </trkpt>
      <trkpt lat="44.83951" lon="6.14198">
        <ele>1630</ele>
        <time>2024-08-13T11:01:08Z</time>
      </trkpt>
      <trkpt lat="44.83951" lon="6.14198">
        <ele>1630</ele>
        <time>2024-08-13T11:01:09Z</time>
      </trkpt>
      <trkpt lat="44.83951" lon="6.14198">
        <ele>1630.6</ele>
        <time>2024-08-13T11:01:10Z</time>
      </trkpt>
      <trkpt lat="44.83951" lon="6.14201">
        <ele>1630.6</ele>
        <time>2024-08-13T11:01:11Z</time>
      </trkpt>
      <trkpt lat="44.83951" lon="6.14201">
        <ele>1630.6</ele>
        <time>2024-08-13T11:01:12Z</time>
      </trkpt>
      <trkpt lat="44.83949" lon="6.14204">
        <ele>1630.6</ele>
        <time>2024-08-13T11:01:13Z</time>
      </trkpt>
      <trkpt lat="44.83949" lon="6.14204">
        <ele>1631</ele>
        <time>2024-08-13T11:01:14Z</time>
      </trkpt>
      <trkpt lat="44.83949" lon="6.14204">
        <ele>1631</ele>
        <time>2024-08-13T11:01:15Z</time>
      </trkpt>
      <trkpt lat="44.83948" lon="6.14207">
        <ele>1631.2</ele>
        <time>2024-08-13T11:01:16Z</time>
      </trkpt>
      <trkpt lat="44.83948" lon="6.14207">
        <ele>1631.2</ele>
        <time>2024-08-13T11:01:17Z</time>
      </trkpt>
      <trkpt lat="44.83946" lon="6.1421">
        <ele>1631.4</ele>
        <time>2024-08-13T11:01:18Z</time>
      </trkpt>
      <trkpt lat="44.83946" lon="6.1421">
        <ele>1631.8</ele>
        <time>2024-08-13T11:01:19Z</time>
      </trkpt>
      <trkpt lat="44.83945" lon="6.14212">
        <ele>1632</ele>
        <time>2024-08-13T11:01:20Z</time>
      </trkpt>
      <trkpt lat="44.83945" lon="6.14212">
        <ele>1632.2</ele>
        <time>2024-08-13T11:01:21Z</time>
      </trkpt>
      <trkpt lat="44.83944" lon="6.14215">
        <ele>1632.2</ele>
        <time>2024-08-13T11:01:22Z</time>
      </trkpt>
      <trkpt lat="44.83944" lon="6.14215">
        <ele>1632.4</ele>
        <time>2024-08-13T11:01:23Z</time>
      </trkpt>
      <trkpt lat="44.83943" lon="6.14217">
        <ele>1632.4</ele>
        <time>2024-08-13T11:01:24Z</time>
      </trkpt>
      <trkpt lat="44.83943" lon="6.14217">
        <ele>1632.4</ele>
        <time>2024-08-13T11:01:25Z</time>
      </trkpt>
      <trkpt lat="44.83943" lon="6.14217">
        <ele>1632.4</ele>
        <time>2024-08-13T11:01:26Z</time>
      </trkpt>
      <trkpt lat="44.83941" lon="6.14221">
        <ele>1632.6</ele>
        <time>2024-08-13T11:01:27Z</time>
      </trkpt>
      <trkpt lat="44.83941" lon="6.14221">
        <ele>1632.6</ele>
        <time>2024-08-13T11:01:28Z</time>
      </trkpt>
      <trkpt lat="44.83941" lon="6.14221">
        <ele>1632.6</ele>
        <time>2024-08-13T11:01:29Z</time>
      </trkpt>
      <trkpt lat="44.8394" lon="6.14223">
        <ele>1632.8</ele>
        <time>2024-08-13T11:01:30Z</time>
      </trkpt>
      <trkpt lat="44.8394" lon="6.14223">
        <ele>1633.2</ele>
        <time>2024-08-13T11:01:31Z</time>
      </trkpt>
      <trkpt lat="44.83939" lon="6.14226">
        <ele>1633.4</ele>
        <time>2024-08-13T11:01:32Z</time>
      </trkpt>
      <trkpt lat="44.83939" lon="6.14226">
        <ele>1633.4</ele>
        <time>2024-08-13T11:01:33Z</time>
      </trkpt>
      <trkpt lat="44.83939" lon="6.14226">
        <ele>1633.6</ele>
        <time>2024-08-13T11:01:34Z</time>
      </trkpt>
      <trkpt lat="44.83937" lon="6.14228">
        <ele>1633.8</ele>
        <time>2024-08-13T11:01:35Z</time>
      </trkpt>
      <trkpt lat="44.83937" lon="6.14228">
        <ele>1633.8</ele>
        <time>2024-08-13T11:01:36Z</time>
      </trkpt>
      <trkpt lat="44.83937" lon="6.14228">
        <ele>1634</ele>
        <time>2024-08-13T11:01:37Z</time>
      </trkpt>
      <trkpt lat="44.83936" lon="6.1423">
        <ele>1634</ele>
        <time>2024-08-13T11:01:38Z</time>
      </trkpt>
      <trkpt lat="44.83936" lon="6.1423">
        <ele>1634</ele>
        <time>2024-08-13T11:01:39Z</time>
      </trkpt>
      <trkpt lat="44.83935" lon="6.14232">
        <ele>1634.2</ele>
        <time>2024-08-13T11:01:40Z</time>
      </trkpt>
      <trkpt lat="44.83935" lon="6.14232">
        <ele>1634.2</ele>
        <time>2024-08-13T11:01:41Z</time>
      </trkpt>
      <trkpt lat="44.83935" lon="6.14232">
        <ele>1634.6</ele>
        <time>2024-08-13T11:01:42Z</time>
      </trkpt>
      <trkpt lat="44.83933" lon="6.14235">
        <ele>1634.6</ele>
        <time>2024-08-13T11:01:43Z</time>
      </trkpt>
      <trkpt lat="44.83933" lon="6.14235">
        <ele>1634.6</ele>
        <time>2024-08-13T11:01:44Z</time>
      </trkpt>
      <trkpt lat="44.83931" lon="6.14236">
        <ele>1635</ele>
        <time>2024-08-13T11:01:45Z</time>
      </trkpt>
      <trkpt lat="44.83931" lon="6.14236">
        <ele>1635</ele>
        <time>2024-08-13T11:01:46Z</time>
      </trkpt>
      <trkpt lat="44.83931" lon="6.14236">
        <ele>1635</ele>
        <time>2024-08-13T11:01:47Z</time>
      </trkpt>
      <trkpt lat="44.83931" lon="6.14236">
        <ele>1635</ele>
        <time>2024-08-13T11:01:48Z</time>
      </trkpt>
      <trkpt lat="44.83929" lon="6.14238">
        <ele>1635.2</ele>
        <time>2024-08-13T11:01:49Z</time>
      </trkpt>
      <trkpt lat="44.83929" lon="6.14238">
        <ele>1635.2</ele>
        <time>2024-08-13T11:01:50Z</time>
      </trkpt>
      <trkpt lat="44.83929" lon="6.14238">
        <ele>1635.6</ele>
        <time>2024-08-13T11:01:51Z</time>
      </trkpt>
      <trkpt lat="44.83926" lon="6.1424">
        <ele>1636.2</ele>
        <time>2024-08-13T11:01:52Z</time>
      </trkpt>
      <trkpt lat="44.83926" lon="6.1424">
        <ele>1636.2</ele>
        <time>2024-08-13T11:01:53Z</time>
      </trkpt>
      <trkpt lat="44.83926" lon="6.1424">
        <ele>1636.2</ele>
        <time>2024-08-13T11:01:54Z</time>
      </trkpt>
      <trkpt lat="44.83925" lon="6.14242">
        <ele>1636.2</ele>
        <time>2024-08-13T11:01:55Z</time>
      </trkpt>
      <trkpt lat="44.83925" lon="6.14242">
        <ele>1636</ele>
        <time>2024-08-13T11:01:56Z</time>
      </trkpt>
      <trkpt lat="44.83923" lon="6.14244">
        <ele>1636</ele>
        <time>2024-08-13T11:01:57Z</time>
      </trkpt>
      <trkpt lat="44.83923" lon="6.14244">
        <ele>1636.2</ele>
        <time>2024-08-13T11:01:58Z</time>
      </trkpt>
      <trkpt lat="44.83923" lon="6.14244">
        <ele>1636.4</ele>
        <time>2024-08-13T11:01:59Z</time>
      </trkpt>
      <trkpt lat="44.83922" lon="6.14246">
        <ele>1636.6</ele>
        <time>2024-08-13T11:02:00Z</time>
      </trkpt>
      <trkpt lat="44.83922" lon="6.14246">
        <ele>1636.6</ele>
        <time>2024-08-13T11:02:01Z</time>
      </trkpt>
      <trkpt lat="44.83921" lon="6.14248">
        <ele>1636.8</ele>
        <time>2024-08-13T11:02:02Z</time>
      </trkpt>
      <trkpt lat="44.83921" lon="6.14248">
        <ele>1636.8</ele>
        <time>2024-08-13T11:02:03Z</time>
      </trkpt>
      <trkpt lat="44.83921" lon="6.14248">
        <ele>1637</ele>
        <time>2024-08-13T11:02:04Z</time>
      </trkpt>
      <trkpt lat="44.83918" lon="6.1425">
        <ele>1637.2</ele>
        <time>2024-08-13T11:02:05Z</time>
      </trkpt>
      <trkpt lat="44.83918" lon="6.1425">
        <ele>1637.4</ele>
        <time>2024-08-13T11:02:06Z</time>
      </trkpt>
      <trkpt lat="44.83917" lon="6.14251">
        <ele>1637.4</ele>
        <time>2024-08-13T11:02:07Z</time>
      </trkpt>
      <trkpt lat="44.83917" lon="6.14251">
        <ele>1637.4</ele>
        <time>2024-08-13T11:02:08Z</time>
      </trkpt>
      <trkpt lat="44.83917" lon="6.14251">
        <ele>1637.4</ele>
        <time>2024-08-13T11:02:09Z</time>
      </trkpt>
      <trkpt lat="44.83915" lon="6.14253">
        <ele>1637.8</ele>
        <time>2024-08-13T11:02:10Z</time>
      </trkpt>
      <trkpt lat="44.83915" lon="6.14253">
        <ele>1638.2</ele>
        <time>2024-08-13T11:02:11Z</time>
      </trkpt>
      <trkpt lat="44.83913" lon="6.14255">
        <ele>1638.2</ele>
        <time>2024-08-13T11:02:12Z</time>
      </trkpt>
      <trkpt lat="44.83913" lon="6.14255">
        <ele>1638.4</ele>
        <time>2024-08-13T11:02:13Z</time>
      </trkpt>
      <trkpt lat="44.83913" lon="6.14255">
        <ele>1638.8</ele>
        <time>2024-08-13T11:02:14Z</time>
      </trkpt>
      <trkpt lat="44.83913" lon="6.14255">
        <ele>1638.8</ele>
        <time>2024-08-13T11:02:15Z</time>
      </trkpt>
      <trkpt lat="44.83912" lon="6.14257">
        <ele>1639</ele>
        <time>2024-08-13T11:02:16Z</time>
      </trkpt>
      <trkpt lat="44.83912" lon="6.14257">
        <ele>1639</ele>
        <time>2024-08-13T11:02:17Z</time>
      </trkpt>
      <trkpt lat="44.83912" lon="6.14257">
        <ele>1639</ele>
        <time>2024-08-13T11:02:18Z</time>
      </trkpt>
      <trkpt lat="44.8391" lon="6.14259">
        <ele>1639</ele>
        <time>2024-08-13T11:02:19Z</time>
      </trkpt>
      <trkpt lat="44.8391" lon="6.14259">
        <ele>1639.2</ele>
        <time>2024-08-13T11:02:20Z</time>
      </trkpt>
      <trkpt lat="44.8391" lon="6.14259">
        <ele>1639.2</ele>
        <time>2024-08-13T11:02:21Z</time>
      </trkpt>
      <trkpt lat="44.83908" lon="6.14262">
        <ele>1639.4</ele>
        <time>2024-08-13T11:02:22Z</time>
      </trkpt>
      <trkpt lat="44.83908" lon="6.14262">
        <ele>1639.6</ele>
        <time>2024-08-13T11:02:23Z</time>
      </trkpt>
      <trkpt lat="44.83907" lon="6.14263">
        <ele>1639.6</ele>
        <time>2024-08-13T11:02:24Z</time>
      </trkpt>
      <trkpt lat="44.83907" lon="6.14263">
        <ele>1640.2</ele>
        <time>2024-08-13T11:02:25Z</time>
      </trkpt>
      <trkpt lat="44.83905" lon="6.14265">
        <ele>1640.6</ele>
        <time>2024-08-13T11:02:26Z</time>
      </trkpt>
      <trkpt lat="44.83905" lon="6.14265">
        <ele>1640.6</ele>
        <time>2024-08-13T11:02:27Z</time>
      </trkpt>
      <trkpt lat="44.83905" lon="6.14265">
        <ele>1640.6</ele>
        <time>2024-08-13T11:02:28Z</time>
      </trkpt>
      <trkpt lat="44.83903" lon="6.14267">
        <ele>1640.8</ele>
        <time>2024-08-13T11:02:29Z</time>
      </trkpt>
      <trkpt lat="44.83903" lon="6.14267">
        <ele>1640.8</ele>
        <time>2024-08-13T11:02:30Z</time>
      </trkpt>
      <trkpt lat="44.83901" lon="6.14268">
        <ele>1640.8</ele>
        <time>2024-08-13T11:02:31Z</time>
      </trkpt>
      <trkpt lat="44.83901" lon="6.14268">
        <ele>1641.2</ele>
        <time>2024-08-13T11:02:32Z</time>
      </trkpt>
      <trkpt lat="44.83901" lon="6.14268">
        <ele>1641.2</ele>
        <time>2024-08-13T11:02:33Z</time>
      </trkpt>
      <trkpt lat="44.83899" lon="6.14271">
        <ele>1641.2</ele>
        <time>2024-08-13T11:02:34Z</time>
      </trkpt>
      <trkpt lat="44.83899" lon="6.14271">
        <ele>1641.6</ele>
        <time>2024-08-13T11:02:35Z</time>
      </trkpt>
      <trkpt lat="44.83899" lon="6.14271">
        <ele>1641.6</ele>
        <time>2024-08-13T11:02:36Z</time>
      </trkpt>
      <trkpt lat="44.83898" lon="6.14273">
        <ele>1641.6</ele>
        <time>2024-08-13T11:02:37Z</time>
      </trkpt>
      <trkpt lat="44.83898" lon="6.14273">
        <ele>1641.6</ele>
        <time>2024-08-13T11:02:38Z</time>
      </trkpt>
      <trkpt lat="44.83898" lon="6.14273">
        <ele>1641.8</ele>
        <time>2024-08-13T11:02:39Z</time>
      </trkpt>
      <trkpt lat="44.83898" lon="6.14273">
        <ele>1642</ele>
        <time>2024-08-13T11:02:40Z</time>
      </trkpt>
      <trkpt lat="44.83898" lon="6.14273">
        <ele>1642.2</ele>
        <time>2024-08-13T11:02:41Z</time>
      </trkpt>
      <trkpt lat="44.83898" lon="6.14273">
        <ele>1642.4</ele>
        <time>2024-08-13T11:02:42Z</time>
      </trkpt>
      <trkpt lat="44.83898" lon="6.14273">
        <ele>1642.4</ele>
        <time>2024-08-13T11:02:43Z</time>
      </trkpt>
      <trkpt lat="44.83898" lon="6.14273">
        <ele>1642.6</ele>
        <time>2024-08-13T11:02:44Z</time>
      </trkpt>
      <trkpt lat="44.83898" lon="6.14273">
        <ele>1642.8</ele>
        <time>2024-08-13T11:02:45Z</time>
      </trkpt>
      <trkpt lat="44.83898" lon="6.14273">
        <ele>1642.8</ele>
        <time>2024-08-13T11:02:46Z</time>
      </trkpt>
      <trkpt lat="44.83898" lon="6.14273">
        <ele>1643</ele>
        <time>2024-08-13T11:02:47Z</time>
      </trkpt>
      <trkpt lat="44.839" lon="6.14272">
        <ele>1643</ele>
        <time>2024-08-13T11:02:48Z</time>
      </trkpt>
      <trkpt lat="44.839" lon="6.14272">
        <ele>1643.2</ele>
        <time>2024-08-13T11:02:49Z</time>
      </trkpt>
      <trkpt lat="44.839" lon="6.14272">
        <ele>1643.4</ele>
        <time>2024-08-13T11:02:50Z</time>
      </trkpt>
      <trkpt lat="44.839" lon="6.14272">
        <ele>1643.6</ele>
        <time>2024-08-13T11:02:51Z</time>
      </trkpt>
      <trkpt lat="44.839" lon="6.14272">
        <ele>1644</ele>
        <time>2024-08-13T11:02:52Z</time>
      </trkpt>
      <trkpt lat="44.839" lon="6.14272">
        <ele>1644</ele>
        <time>2024-08-13T11:02:53Z</time>
      </trkpt>
      <trkpt lat="44.839" lon="6.14272">
        <ele>1644.2</ele>
        <time>2024-08-13T11:02:54Z</time>
      </trkpt>
      <trkpt lat="44.839" lon="6.14272">
        <ele>1644.2</ele>
        <time>2024-08-13T11:02:55Z</time>
      </trkpt>
      <trkpt lat="44.83902" lon="6.14272">
        <ele>1644.4</ele>
        <time>2024-08-13T11:02:56Z</time>
      </trkpt>
      <trkpt lat="44.83902" lon="6.14272">
        <ele>1644.4</ele>
        <time>2024-08-13T11:02:57Z</time>
      </trkpt>
      <trkpt lat="44.83905" lon="6.14272">
        <ele>1644.8</ele>
        <time>2024-08-13T11:02:58Z</time>
      </trkpt>
      <trkpt lat="44.83905" lon="6.14272">
        <ele>1644.8</ele>
        <time>2024-08-13T11:02:59Z</time>
      </trkpt>
      <trkpt lat="44.83909" lon="6.14272">
        <ele>1644.8</ele>
        <time>2024-08-13T11:03:00Z</time>
      </trkpt>
      <trkpt lat="44.83909" lon="6.14272">
        <ele>1645.2</ele>
        <time>2024-08-13T11:03:01Z</time>
      </trkpt>
      <trkpt lat="44.83909" lon="6.14272">
        <ele>1645.4</ele>
        <time>2024-08-13T11:03:02Z</time>
      </trkpt>
      <trkpt lat="44.83911" lon="6.14271">
        <ele>1645.4</ele>
        <time>2024-08-13T11:03:03Z</time>
      </trkpt>
      <trkpt lat="44.83911" lon="6.14271">
        <ele>1645.8</ele>
        <time>2024-08-13T11:03:04Z</time>
      </trkpt>
      <trkpt lat="44.83913" lon="6.1427">
        <ele>1645.8</ele>
        <time>2024-08-13T11:03:05Z</time>
      </trkpt>
      <trkpt lat="44.83913" lon="6.1427">
        <ele>1645.8</ele>
        <time>2024-08-13T11:03:06Z</time>
      </trkpt>
      <trkpt lat="44.83914" lon="6.14268">
        <ele>1646</ele>
        <time>2024-08-13T11:03:07Z</time>
      </trkpt>
      <trkpt lat="44.83914" lon="6.14268">
        <ele>1646</ele>
        <time>2024-08-13T11:03:08Z</time>
      </trkpt>
      <trkpt lat="44.83914" lon="6.14268">
        <ele>1646.2</ele>
        <time>2024-08-13T11:03:09Z</time>
      </trkpt>
      <trkpt lat="44.83917" lon="6.14268">
        <ele>1646.2</ele>
        <time>2024-08-13T11:03:10Z</time>
      </trkpt>
      <trkpt lat="44.83917" lon="6.14268">
        <ele>1646.4</ele>
        <time>2024-08-13T11:03:11Z</time>
      </trkpt>
      <trkpt lat="44.83917" lon="6.14268">
        <ele>1646.4</ele>
        <time>2024-08-13T11:03:12Z</time>
      </trkpt>
      <trkpt lat="44.83918" lon="6.14267">
        <ele>1646.8</ele>
        <time>2024-08-13T11:03:13Z</time>
      </trkpt>
      <trkpt lat="44.83918" lon="6.14267">
        <ele>1647.2</ele>
        <time>2024-08-13T11:03:14Z</time>
      </trkpt>
      <trkpt lat="44.83918" lon="6.14267">
        <ele>1647.2</ele>
        <time>2024-08-13T11:03:15Z</time>
      </trkpt>
      <trkpt lat="44.83921" lon="6.14267">
        <ele>1647.4</ele>
        <time>2024-08-13T11:03:16Z</time>
      </trkpt>
      <trkpt lat="44.83921" lon="6.14267">
        <ele>1647.6</ele>
        <time>2024-08-13T11:03:17Z</time>
      </trkpt>
      <trkpt lat="44.83921" lon="6.14267">
        <ele>1647.6</ele>
        <time>2024-08-13T11:03:18Z</time>
      </trkpt>
      <trkpt lat="44.83923" lon="6.14267">
        <ele>1648</ele>
        <time>2024-08-13T11:03:19Z</time>
      </trkpt>
      <trkpt lat="44.83923" lon="6.14267">
        <ele>1648.2</ele>
        <time>2024-08-13T11:03:20Z</time>
      </trkpt>
      <trkpt lat="44.83923" lon="6.14267">
        <ele>1648.4</ele>
        <time>2024-08-13T11:03:21Z</time>
      </trkpt>
      <trkpt lat="44.83923" lon="6.14267">
        <ele>1648.4</ele>
        <time>2024-08-13T11:03:22Z</time>
      </trkpt>
      <trkpt lat="44.83923" lon="6.14267">
        <ele>1648.4</ele>
        <time>2024-08-13T11:03:23Z</time>
      </trkpt>
      <trkpt lat="44.83925" lon="6.14267">
        <ele>1648.4</ele>
        <time>2024-08-13T11:03:24Z</time>
      </trkpt>
      <trkpt lat="44.83925" lon="6.14267">
        <ele>1648.8</ele>
        <time>2024-08-13T11:03:25Z</time>
      </trkpt>
      <trkpt lat="44.83925" lon="6.14267">
        <ele>1648.8</ele>
        <time>2024-08-13T11:03:26Z</time>
      </trkpt>
      <trkpt lat="44.83928" lon="6.14267">
        <ele>1649</ele>
        <time>2024-08-13T11:03:27Z</time>
      </trkpt>
      <trkpt lat="44.83928" lon="6.14267">
        <ele>1649</ele>
        <time>2024-08-13T11:03:28Z</time>
      </trkpt>
      <trkpt lat="44.83931" lon="6.14267">
        <ele>1649.2</ele>
        <time>2024-08-13T11:03:29Z</time>
      </trkpt>
      <trkpt lat="44.83931" lon="6.14267">
        <ele>1649.2</ele>
        <time>2024-08-13T11:03:30Z</time>
      </trkpt>
      <trkpt lat="44.83931" lon="6.14267">
        <ele>1649.4</ele>
        <time>2024-08-13T11:03:31Z</time>
      </trkpt>
      <trkpt lat="44.83933" lon="6.14267">
        <ele>1650</ele>
        <time>2024-08-13T11:03:32Z</time>
      </trkpt>
      <trkpt lat="44.83933" lon="6.14267">
        <ele>1650</ele>
        <time>2024-08-13T11:03:33Z</time>
      </trkpt>
      <trkpt lat="44.83933" lon="6.14267">
        <ele>1650</ele>
        <time>2024-08-13T11:03:34Z</time>
      </trkpt>
      <trkpt lat="44.83935" lon="6.14266">
        <ele>1650.4</ele>
        <time>2024-08-13T11:03:35Z</time>
      </trkpt>
      <trkpt lat="44.83935" lon="6.14266">
        <ele>1650.4</ele>
        <time>2024-08-13T11:03:36Z</time>
      </trkpt>
      <trkpt lat="44.83935" lon="6.14266">
        <ele>1650.4</ele>
        <time>2024-08-13T11:03:37Z</time>
      </trkpt>
      <trkpt lat="44.83937" lon="6.14266">
        <ele>1650.4</ele>
        <time>2024-08-13T11:03:38Z</time>
      </trkpt>
      <trkpt lat="44.83937" lon="6.14266">
        <ele>1650.8</ele>
        <time>2024-08-13T11:03:39Z</time>
      </trkpt>
      <trkpt lat="44.83939" lon="6.14266">
        <ele>1651</ele>
        <time>2024-08-13T11:03:40Z</time>
      </trkpt>
      <trkpt lat="44.83939" lon="6.14266">
        <ele>1651.4</ele>
        <time>2024-08-13T11:03:41Z</time>
      </trkpt>
      <trkpt lat="44.83939" lon="6.14266">
        <ele>1651.4</ele>
        <time>2024-08-13T11:03:42Z</time>
      </trkpt>
      <trkpt lat="44.83939" lon="6.14266">
        <ele>1651.4</ele>
        <time>2024-08-13T11:03:43Z</time>
      </trkpt>
      <trkpt lat="44.83939" lon="6.14266">
        <ele>1651.2</ele>
        <time>2024-08-13T11:03:44Z</time>
      </trkpt>
      <trkpt lat="44.83941" lon="6.14265">
        <ele>1651.2</ele>
        <time>2024-08-13T11:03:45Z</time>
      </trkpt>
      <trkpt lat="44.83941" lon="6.14265">
        <ele>1651.4</ele>
        <time>2024-08-13T11:03:46Z</time>
      </trkpt>
      <trkpt lat="44.83941" lon="6.14265">
        <ele>1651.4</ele>
        <time>2024-08-13T11:03:47Z</time>
      </trkpt>
      <trkpt lat="44.83943" lon="6.14265">
        <ele>1651.8</ele>
        <time>2024-08-13T11:03:48Z</time>
      </trkpt>
      <trkpt lat="44.83943" lon="6.14265">
        <ele>1652</ele>
        <time>2024-08-13T11:03:49Z</time>
      </trkpt>
      <trkpt lat="44.83943" lon="6.14265">
        <ele>1652.2</ele>
        <time>2024-08-13T11:03:50Z</time>
      </trkpt>
      <trkpt lat="44.83946" lon="6.14264">
        <ele>1652.2</ele>
        <time>2024-08-13T11:03:51Z</time>
      </trkpt>
      <trkpt lat="44.83946" lon="6.14264">
        <ele>1652.4</ele>
        <time>2024-08-13T11:03:52Z</time>
      </trkpt>
      <trkpt lat="44.83946" lon="6.14264">
        <ele>1652.6</ele>
        <time>2024-08-13T11:03:53Z</time>
      </trkpt>
      <trkpt lat="44.83948" lon="6.14263">
        <ele>1653</ele>
        <time>2024-08-13T11:03:54Z</time>
      </trkpt>
      <trkpt lat="44.83948" lon="6.14263">
        <ele>1653</ele>
        <time>2024-08-13T11:03:55Z</time>
      </trkpt>
      <trkpt lat="44.83948" lon="6.14263">
        <ele>1653.6</ele>
        <time>2024-08-13T11:03:56Z</time>
      </trkpt>
      <trkpt lat="44.8395" lon="6.14262">
        <ele>1653.6</ele>
        <time>2024-08-13T11:03:57Z</time>
      </trkpt>
      <trkpt lat="44.8395" lon="6.14262">
        <ele>1654</ele>
        <time>2024-08-13T11:03:58Z</time>
      </trkpt>
      <trkpt lat="44.8395" lon="6.14262">
        <ele>1654.2</ele>
        <time>2024-08-13T11:03:59Z</time>
      </trkpt>
      <trkpt lat="44.83952" lon="6.14261">
        <ele>1654.2</ele>
        <time>2024-08-13T11:04:00Z</time>
      </trkpt>
      <trkpt lat="44.83952" lon="6.14261">
        <ele>1654.4</ele>
        <time>2024-08-13T11:04:01Z</time>
      </trkpt>
      <trkpt lat="44.83954" lon="6.1426">
        <ele>1654.4</ele>
        <time>2024-08-13T11:04:02Z</time>
      </trkpt>
      <trkpt lat="44.83954" lon="6.1426">
        <ele>1654.4</ele>
        <time>2024-08-13T11:04:03Z</time>
      </trkpt>
      <trkpt lat="44.83954" lon="6.1426">
        <ele>1654.6</ele>
        <time>2024-08-13T11:04:04Z</time>
      </trkpt>
      <trkpt lat="44.83954" lon="6.1426">
        <ele>1654.6</ele>
        <time>2024-08-13T11:04:05Z</time>
      </trkpt>
      <trkpt lat="44.83957" lon="6.14258">
        <ele>1654.6</ele>
        <time>2024-08-13T11:04:06Z</time>
      </trkpt>
      <trkpt lat="44.83957" lon="6.14258">
        <ele>1655.4</ele>
        <time>2024-08-13T11:04:07Z</time>
      </trkpt>
      <trkpt lat="44.83958" lon="6.14257">
        <ele>1655.4</ele>
        <time>2024-08-13T11:04:08Z</time>
      </trkpt>
      <trkpt lat="44.83958" lon="6.14257">
        <ele>1655</ele>
        <time>2024-08-13T11:04:09Z</time>
      </trkpt>
      <trkpt lat="44.83958" lon="6.14257">
        <ele>1655</ele>
        <time>2024-08-13T11:04:10Z</time>
      </trkpt>
      <trkpt lat="44.83958" lon="6.14257">
        <ele>1655.2</ele>
        <time>2024-08-13T11:04:11Z</time>
      </trkpt>
      <trkpt lat="44.8396" lon="6.14256">
        <ele>1655.6</ele>
        <time>2024-08-13T11:04:12Z</time>
      </trkpt>
      <trkpt lat="44.8396" lon="6.14256">
        <ele>1655.6</ele>
        <time>2024-08-13T11:04:13Z</time>
      </trkpt>
      <trkpt lat="44.83962" lon="6.14255">
        <ele>1655.8</ele>
        <time>2024-08-13T11:04:14Z</time>
      </trkpt>
      <trkpt lat="44.83962" lon="6.14255">
        <ele>1655.8</ele>
        <time>2024-08-13T11:04:15Z</time>
      </trkpt>
      <trkpt lat="44.83962" lon="6.14255">
        <ele>1656.4</ele>
        <time>2024-08-13T11:04:16Z</time>
      </trkpt>
      <trkpt lat="44.83964" lon="6.14254">
        <ele>1656.8</ele>
        <time>2024-08-13T11:04:17Z</time>
      </trkpt>
      <trkpt lat="44.83964" lon="6.14254">
        <ele>1656.8</ele>
        <time>2024-08-13T11:04:18Z</time>
      </trkpt>
      <trkpt lat="44.83964" lon="6.14254">
        <ele>1656.8</ele>
        <time>2024-08-13T11:04:19Z</time>
      </trkpt>
      <trkpt lat="44.83965" lon="6.14253">
        <ele>1657</ele>
        <time>2024-08-13T11:04:20Z</time>
      </trkpt>
      <trkpt lat="44.83965" lon="6.14253">
        <ele>1657</ele>
        <time>2024-08-13T11:04:21Z</time>
      </trkpt>
      <trkpt lat="44.83965" lon="6.14253">
        <ele>1657.2</ele>
        <time>2024-08-13T11:04:22Z</time>
      </trkpt>
      <trkpt lat="44.83967" lon="6.14251">
        <ele>1657.4</ele>
        <time>2024-08-13T11:04:23Z</time>
      </trkpt>
      <trkpt lat="44.83967" lon="6.14251">
        <ele>1657.6</ele>
        <time>2024-08-13T11:04:24Z</time>
      </trkpt>
      <trkpt lat="44.83967" lon="6.14251">
        <ele>1657.8</ele>
        <time>2024-08-13T11:04:25Z</time>
      </trkpt>
      <trkpt lat="44.83968" lon="6.14249">
        <ele>1658.4</ele>
        <time>2024-08-13T11:04:26Z</time>
      </trkpt>
      <trkpt lat="44.83968" lon="6.14249">
        <ele>1658.6</ele>
        <time>2024-08-13T11:04:27Z</time>
      </trkpt>
      <trkpt lat="44.83968" lon="6.14249">
        <ele>1658.6</ele>
        <time>2024-08-13T11:04:28Z</time>
      </trkpt>
      <trkpt lat="44.83968" lon="6.14249">
        <ele>1659</ele>
        <time>2024-08-13T11:04:29Z</time>
      </trkpt>
      <trkpt lat="44.83972" lon="6.14247">
        <ele>1659</ele>
        <time>2024-08-13T11:04:30Z</time>
      </trkpt>
      <trkpt lat="44.83972" lon="6.14247">
        <ele>1659</ele>
        <time>2024-08-13T11:04:31Z</time>
      </trkpt>
      <trkpt lat="44.83972" lon="6.14247">
        <ele>1659</ele>
        <time>2024-08-13T11:04:32Z</time>
      </trkpt>
      <trkpt lat="44.83972" lon="6.14247">
        <ele>1659.6</ele>
        <time>2024-08-13T11:04:33Z</time>
      </trkpt>
      <trkpt lat="44.83974" lon="6.14247">
        <ele>1659.6</ele>
        <time>2024-08-13T11:04:34Z</time>
      </trkpt>
      <trkpt lat="44.83974" lon="6.14247">
        <ele>1659.6</ele>
        <time>2024-08-13T11:04:35Z</time>
      </trkpt>
      <trkpt lat="44.83974" lon="6.14247">
        <ele>1659.8</ele>
        <time>2024-08-13T11:04:36Z</time>
      </trkpt>
      <trkpt lat="44.83974" lon="6.14247">
        <ele>1660</ele>
        <time>2024-08-13T11:04:37Z</time>
      </trkpt>
      <trkpt lat="44.83976" lon="6.14249">
        <ele>1660.2</ele>
        <time>2024-08-13T11:04:38Z</time>
      </trkpt>
      <trkpt lat="44.83976" lon="6.14249">
        <ele>1660.6</ele>
        <time>2024-08-13T11:04:39Z</time>
      </trkpt>
      <trkpt lat="44.83976" lon="6.14249">
        <ele>1660.8</ele>
        <time>2024-08-13T11:04:40Z</time>
      </trkpt>
      <trkpt lat="44.83976" lon="6.14249">
        <ele>1661.2</ele>
        <time>2024-08-13T11:04:41Z</time>
      </trkpt>
      <trkpt lat="44.83975" lon="6.1425">
        <ele>1662</ele>
        <time>2024-08-13T11:04:42Z</time>
      </trkpt>
      <trkpt lat="44.83975" lon="6.1425">
        <ele>1662</ele>
        <time>2024-08-13T11:04:43Z</time>
      </trkpt>
      <trkpt lat="44.83975" lon="6.1425">
        <ele>1662</ele>
        <time>2024-08-13T11:04:44Z</time>
      </trkpt>
      <trkpt lat="44.83975" lon="6.1425">
        <ele>1662</ele>
        <time>2024-08-13T11:04:45Z</time>
      </trkpt>
      <trkpt lat="44.83975" lon="6.1425">
        <ele>1662</ele>
        <time>2024-08-13T11:04:46Z</time>
      </trkpt>
      <trkpt lat="44.83975" lon="6.1425">
        <ele>1662.2</ele>
        <time>2024-08-13T11:04:47Z</time>
      </trkpt>
      <trkpt lat="44.83975" lon="6.1425">
        <ele>1662.4</ele>
        <time>2024-08-13T11:04:48Z</time>
      </trkpt>
      <trkpt lat="44.83975" lon="6.1425">
        <ele>1662.4</ele>
        <time>2024-08-13T11:04:49Z</time>
      </trkpt>
      <trkpt lat="44.83973" lon="6.14253">
        <ele>1662.4</ele>
        <time>2024-08-13T11:04:50Z</time>
      </trkpt>
      <trkpt lat="44.83973" lon="6.14253">
        <ele>1662.4</ele>
        <time>2024-08-13T11:04:51Z</time>
      </trkpt>
      <trkpt lat="44.83973" lon="6.14253">
        <ele>1662.4</ele>
        <time>2024-08-13T11:04:52Z</time>
      </trkpt>
      <trkpt lat="44.83973" lon="6.14253">
        <ele>1662.6</ele>
        <time>2024-08-13T11:04:53Z</time>
      </trkpt>
      <trkpt lat="44.83972" lon="6.14255">
        <ele>1663.2</ele>
        <time>2024-08-13T11:04:54Z</time>
      </trkpt>
      <trkpt lat="44.83972" lon="6.14255">
        <ele>1663.2</ele>
        <time>2024-08-13T11:04:55Z</time>
      </trkpt>
      <trkpt lat="44.83971" lon="6.14259">
        <ele>1663.2</ele>
        <time>2024-08-13T11:04:56Z</time>
      </trkpt>
      <trkpt lat="44.83971" lon="6.14259">
        <ele>1663.6</ele>
        <time>2024-08-13T11:04:57Z</time>
      </trkpt>
      <trkpt lat="44.8397" lon="6.14262">
        <ele>1664</ele>
        <time>2024-08-13T11:04:58Z</time>
      </trkpt>
      <trkpt lat="44.83968" lon="6.14264">
        <ele>1664</ele>
        <time>2024-08-13T11:04:59Z</time>
      </trkpt>
      <trkpt lat="44.83968" lon="6.14264">
        <ele>1664.2</ele>
        <time>2024-08-13T11:05:00Z</time>
      </trkpt>
      <trkpt lat="44.83967" lon="6.14267">
        <ele>1664.4</ele>
        <time>2024-08-13T11:05:01Z</time>
      </trkpt>
      <trkpt lat="44.83967" lon="6.14267">
        <ele>1665</ele>
        <time>2024-08-13T11:05:02Z</time>
      </trkpt>
      <trkpt lat="44.83966" lon="6.14268">
        <ele>1665</ele>
        <time>2024-08-13T11:05:03Z</time>
      </trkpt>
      <trkpt lat="44.83966" lon="6.14268">
        <ele>1665</ele>
        <time>2024-08-13T11:05:04Z</time>
      </trkpt>
      <trkpt lat="44.83965" lon="6.1427">
        <ele>1665.2</ele>
        <time>2024-08-13T11:05:05Z</time>
      </trkpt>
      <trkpt lat="44.83965" lon="6.1427">
        <ele>1665.4</ele>
        <time>2024-08-13T11:05:06Z</time>
      </trkpt>
      <trkpt lat="44.83963" lon="6.14272">
        <ele>1665.4</ele>
        <time>2024-08-13T11:05:07Z</time>
      </trkpt>
      <trkpt lat="44.83963" lon="6.14272">
        <ele>1666</ele>
        <time>2024-08-13T11:05:08Z</time>
      </trkpt>
      <trkpt lat="44.83962" lon="6.14274">
        <ele>1666.4</ele>
        <time>2024-08-13T11:05:09Z</time>
      </trkpt>
      <trkpt lat="44.83962" lon="6.14274">
        <ele>1666.4</ele>
        <time>2024-08-13T11:05:10Z</time>
      </trkpt>
      <trkpt lat="44.83962" lon="6.14277">
        <ele>1666.4</ele>
        <time>2024-08-13T11:05:11Z</time>
      </trkpt>
      <trkpt lat="44.83962" lon="6.14277">
        <ele>1666.4</ele>
        <time>2024-08-13T11:05:12Z</time>
      </trkpt>
      <trkpt lat="44.83962" lon="6.14277">
        <ele>1666.6</ele>
        <time>2024-08-13T11:05:13Z</time>
      </trkpt>
      <trkpt lat="44.8396" lon="6.1428">
        <ele>1667.4</ele>
        <time>2024-08-13T11:05:14Z</time>
      </trkpt>
      <trkpt lat="44.8396" lon="6.1428">
        <ele>1667.4</ele>
        <time>2024-08-13T11:05:15Z</time>
      </trkpt>
      <trkpt lat="44.8396" lon="6.14284">
        <ele>1667.2</ele>
        <time>2024-08-13T11:05:16Z</time>
      </trkpt>
      <trkpt lat="44.8396" lon="6.14284">
        <ele>1667</ele>
        <time>2024-08-13T11:05:17Z</time>
      </trkpt>
      <trkpt lat="44.8396" lon="6.14284">
        <ele>1667</ele>
        <time>2024-08-13T11:05:18Z</time>
      </trkpt>
      <trkpt lat="44.8396" lon="6.14284">
        <ele>1667.4</ele>
        <time>2024-08-13T11:05:19Z</time>
      </trkpt>
      <trkpt lat="44.8396" lon="6.14284">
        <ele>1667.4</ele>
        <time>2024-08-13T11:05:20Z</time>
      </trkpt>
      <trkpt lat="44.8396" lon="6.14284">
        <ele>1667.8</ele>
        <time>2024-08-13T11:05:21Z</time>
      </trkpt>
      <trkpt lat="44.83962" lon="6.14283">
        <ele>1667.8</ele>
        <time>2024-08-13T11:05:22Z</time>
      </trkpt>
      <trkpt lat="44.83962" lon="6.14283">
        <ele>1668.2</ele>
        <time>2024-08-13T11:05:23Z</time>
      </trkpt>
      <trkpt lat="44.83962" lon="6.14283">
        <ele>1668.4</ele>
        <time>2024-08-13T11:05:24Z</time>
      </trkpt>
      <trkpt lat="44.83964" lon="6.14281">
        <ele>1668.6</ele>
        <time>2024-08-13T11:05:25Z</time>
      </trkpt>
      <trkpt lat="44.83964" lon="6.14281">
        <ele>1669</ele>
        <time>2024-08-13T11:05:26Z</time>
      </trkpt>
      <trkpt lat="44.83964" lon="6.14281">
        <ele>1669.4</ele>
        <time>2024-08-13T11:05:27Z</time>
      </trkpt>
      <trkpt lat="44.83966" lon="6.1428">
        <ele>1669.4</ele>
        <time>2024-08-13T11:05:28Z</time>
      </trkpt>
      <trkpt lat="44.83966" lon="6.1428">
        <ele>1669.6</ele>
        <time>2024-08-13T11:05:29Z</time>
      </trkpt>
      <trkpt lat="44.83966" lon="6.1428">
        <ele>1669.8</ele>
        <time>2024-08-13T11:05:30Z</time>
      </trkpt>
      <trkpt lat="44.83968" lon="6.14279">
        <ele>1669.8</ele>
        <time>2024-08-13T11:05:31Z</time>
      </trkpt>
      <trkpt lat="44.83968" lon="6.14279">
        <ele>1669.8</ele>
        <time>2024-08-13T11:05:32Z</time>
      </trkpt>
      <trkpt lat="44.83968" lon="6.14279">
        <ele>1670.2</ele>
        <time>2024-08-13T11:05:33Z</time>
      </trkpt>
      <trkpt lat="44.83968" lon="6.14279">
        <ele>1670.2</ele>
        <time>2024-08-13T11:05:34Z</time>
      </trkpt>
      <trkpt lat="44.8397" lon="6.14277">
        <ele>1670.6</ele>
        <time>2024-08-13T11:05:35Z</time>
      </trkpt>
      <trkpt lat="44.8397" lon="6.14277">
        <ele>1670.6</ele>
        <time>2024-08-13T11:05:36Z</time>
      </trkpt>
      <trkpt lat="44.83972" lon="6.14276">
        <ele>1670.6</ele>
        <time>2024-08-13T11:05:37Z</time>
      </trkpt>
      <trkpt lat="44.83972" lon="6.14276">
        <ele>1670.8</ele>
        <time>2024-08-13T11:05:38Z</time>
      </trkpt>
      <trkpt lat="44.83972" lon="6.14276">
        <ele>1671.2</ele>
        <time>2024-08-13T11:05:39Z</time>
      </trkpt>
      <trkpt lat="44.83975" lon="6.14275">
        <ele>1671.2</ele>
        <time>2024-08-13T11:05:40Z</time>
      </trkpt>
      <trkpt lat="44.83975" lon="6.14275">
        <ele>1671.4</ele>
        <time>2024-08-13T11:05:41Z</time>
      </trkpt>
      <trkpt lat="44.83975" lon="6.14275">
        <ele>1671.6</ele>
        <time>2024-08-13T11:05:42Z</time>
      </trkpt>
      <trkpt lat="44.83977" lon="6.14274">
        <ele>1671.6</ele>
        <time>2024-08-13T11:05:43Z</time>
      </trkpt>
      <trkpt lat="44.83977" lon="6.14274">
        <ele>1671.6</ele>
        <time>2024-08-13T11:05:44Z</time>
      </trkpt>
      <trkpt lat="44.83977" lon="6.14274">
        <ele>1672</ele>
        <time>2024-08-13T11:05:45Z</time>
      </trkpt>
      <trkpt lat="44.83977" lon="6.14274">
        <ele>1672.2</ele>
        <time>2024-08-13T11:05:46Z</time>
      </trkpt>
      <trkpt lat="44.83977" lon="6.14274">
        <ele>1672.4</ele>
        <time>2024-08-13T11:05:47Z</time>
      </trkpt>
      <trkpt lat="44.83979" lon="6.14272">
        <ele>1672.4</ele>
        <time>2024-08-13T11:05:48Z</time>
      </trkpt>
      <trkpt lat="44.83979" lon="6.14272">
        <ele>1672.6</ele>
        <time>2024-08-13T11:05:49Z</time>
      </trkpt>
      <trkpt lat="44.83979" lon="6.14272">
        <ele>1672.8</ele>
        <time>2024-08-13T11:05:50Z</time>
      </trkpt>
      <trkpt lat="44.83979" lon="6.14272">
        <ele>1673.2</ele>
        <time>2024-08-13T11:05:51Z</time>
      </trkpt>
      <trkpt lat="44.83979" lon="6.14272">
        <ele>1673.2</ele>
        <time>2024-08-13T11:05:52Z</time>
      </trkpt>
      <trkpt lat="44.83978" lon="6.14274">
        <ele>1673.2</ele>
        <time>2024-08-13T11:05:53Z</time>
      </trkpt>
      <trkpt lat="44.83978" lon="6.14274">
        <ele>1673.6</ele>
        <time>2024-08-13T11:05:54Z</time>
      </trkpt>
      <trkpt lat="44.83978" lon="6.14274">
        <ele>1673.8</ele>
        <time>2024-08-13T11:05:55Z</time>
      </trkpt>
      <trkpt lat="44.83978" lon="6.14274">
        <ele>1674.2</ele>
        <time>2024-08-13T11:05:56Z</time>
      </trkpt>
      <trkpt lat="44.83978" lon="6.14274">
        <ele>1674.2</ele>
        <time>2024-08-13T11:05:57Z</time>
      </trkpt>
      <trkpt lat="44.83978" lon="6.14274">
        <ele>1674.4</ele>
        <time>2024-08-13T11:05:58Z</time>
      </trkpt>
      <trkpt lat="44.83978" lon="6.14274">
        <ele>1674.8</ele>
        <time>2024-08-13T11:05:59Z</time>
      </trkpt>
      <trkpt lat="44.83978" lon="6.14274">
        <ele>1675</ele>
        <time>2024-08-13T11:06:00Z</time>
      </trkpt>
      <trkpt lat="44.83978" lon="6.14274">
        <ele>1675.4</ele>
        <time>2024-08-13T11:06:01Z</time>
      </trkpt>
      <trkpt lat="44.83978" lon="6.14274">
        <ele>1675.2</ele>
        <time>2024-08-13T11:06:02Z</time>
      </trkpt>
      <trkpt lat="44.83978" lon="6.14274">
        <ele>1675.2</ele>
        <time>2024-08-13T11:06:03Z</time>
      </trkpt>
      <trkpt lat="44.83978" lon="6.14274">
        <ele>1675.4</ele>
        <time>2024-08-13T11:06:04Z</time>
      </trkpt>
      <trkpt lat="44.83978" lon="6.14274">
        <ele>1675.6</ele>
        <time>2024-08-13T11:06:05Z</time>
      </trkpt>
      <trkpt lat="44.83978" lon="6.14274">
        <ele>1675.6</ele>
        <time>2024-08-13T11:06:06Z</time>
      </trkpt>
      <trkpt lat="44.83978" lon="6.14274">
        <ele>1675.6</ele>
        <time>2024-08-13T11:06:07Z</time>
      </trkpt>
      <trkpt lat="44.83978" lon="6.14274">
        <ele>1675.6</ele>
        <time>2024-08-13T11:06:08Z</time>
      </trkpt>
      <trkpt lat="44.83978" lon="6.14274">
        <ele>1675.6</ele>
        <time>2024-08-13T11:06:09Z</time>
      </trkpt>
      <trkpt lat="44.83978" lon="6.14274">
        <ele>1675.6</ele>
        <time>2024-08-13T11:06:10Z</time>
      </trkpt>
      <trkpt lat="44.83978" lon="6.14274">
        <ele>1676</ele>
        <time>2024-08-13T11:06:11Z</time>
      </trkpt>
      <trkpt lat="44.83978" lon="6.14274">
        <ele>1676</ele>
        <time>2024-08-13T11:06:12Z</time>
      </trkpt>
      <trkpt lat="44.83978" lon="6.14274">
        <ele>1676.2</ele>
        <time>2024-08-13T11:06:13Z</time>
      </trkpt>
      <trkpt lat="44.83978" lon="6.14274">
        <ele>1676.4</ele>
        <time>2024-08-13T11:06:14Z</time>
      </trkpt>
      <trkpt lat="44.83978" lon="6.14274">
        <ele>1676.6</ele>
        <time>2024-08-13T11:06:15Z</time>
      </trkpt>
      <trkpt lat="44.83978" lon="6.14274">
        <ele>1676.8</ele>
        <time>2024-08-13T11:06:16Z</time>
      </trkpt>
      <trkpt lat="44.83978" lon="6.14274">
        <ele>1677.2</ele>
        <time>2024-08-13T11:06:17Z</time>
      </trkpt>
      <trkpt lat="44.83978" lon="6.14274">
        <ele>1677.4</ele>
        <time>2024-08-13T11:06:18Z</time>
      </trkpt>
      <trkpt lat="44.83978" lon="6.14274">
        <ele>1677.6</ele>
        <time>2024-08-13T11:06:19Z</time>
      </trkpt>
      <trkpt lat="44.83978" lon="6.14274">
        <ele>1678</ele>
        <time>2024-08-13T11:06:20Z</time>
      </trkpt>
      <trkpt lat="44.83978" lon="6.14274">
        <ele>1678</ele>
        <time>2024-08-13T11:06:21Z</time>
      </trkpt>
      <trkpt lat="44.83978" lon="6.14274">
        <ele>1677.6</ele>
        <time>2024-08-13T11:06:22Z</time>
      </trkpt>
      <trkpt lat="44.83978" lon="6.14274">
        <ele>1677.2</ele>
        <time>2024-08-13T11:06:23Z</time>
      </trkpt>
      <trkpt lat="44.83978" lon="6.14274">
        <ele>1677</ele>
        <time>2024-08-13T11:06:24Z</time>
      </trkpt>
      <trkpt lat="44.83978" lon="6.14274">
        <ele>1677</ele>
        <time>2024-08-13T11:06:25Z</time>
      </trkpt>
      <trkpt lat="44.83978" lon="6.14274">
        <ele>1677</ele>
        <time>2024-08-13T11:06:26Z</time>
      </trkpt>
      <trkpt lat="44.83978" lon="6.14274">
        <ele>1677.2</ele>
        <time>2024-08-13T11:06:27Z</time>
      </trkpt>
      <trkpt lat="44.83978" lon="6.14274">
        <ele>1677.2</ele>
        <time>2024-08-13T11:06:28Z</time>
      </trkpt>
      <trkpt lat="44.83978" lon="6.14274">
        <ele>1677.2</ele>
        <time>2024-08-13T11:06:29Z</time>
      </trkpt>
      <trkpt lat="44.83978" lon="6.14274">
        <ele>1677.4</ele>
        <time>2024-08-13T11:06:30Z</time>
      </trkpt>
      <trkpt lat="44.83978" lon="6.14274">
        <ele>1677.4</ele>
        <time>2024-08-13T11:06:31Z</time>
      </trkpt>
      <trkpt lat="44.83978" lon="6.14274">
        <ele>1677.4</ele>
        <time>2024-08-13T11:06:32Z</time>
      </trkpt>
      <trkpt lat="44.83978" lon="6.14274">
        <ele>1677.4</ele>
        <time>2024-08-13T11:06:33Z</time>
      </trkpt>
      <trkpt lat="44.83978" lon="6.14274">
        <ele>1677.4</ele>
        <time>2024-08-13T11:06:34Z</time>
      </trkpt>
      <trkpt lat="44.83978" lon="6.14274">
        <ele>1677.4</ele>
        <time>2024-08-13T11:06:35Z</time>
      </trkpt>
      <trkpt lat="44.83978" lon="6.14274">
        <ele>1677.6</ele>
        <time>2024-08-13T11:06:36Z</time>
      </trkpt>
      <trkpt lat="44.83977" lon="6.14278">
        <ele>1677.8</ele>
        <time>2024-08-13T11:06:37Z</time>
      </trkpt>
      <trkpt lat="44.83977" lon="6.14278">
        <ele>1677.8</ele>
        <time>2024-08-13T11:06:38Z</time>
      </trkpt>
      <trkpt lat="44.83977" lon="6.14282">
        <ele>1677.4</ele>
        <time>2024-08-13T11:06:39Z</time>
      </trkpt>
      <trkpt lat="44.83977" lon="6.14282">
        <ele>1677.4</ele>
        <time>2024-08-13T11:06:40Z</time>
      </trkpt>
      <trkpt lat="44.83977" lon="6.14286">
        <ele>1677.4</ele>
        <time>2024-08-13T11:06:41Z</time>
      </trkpt>
      <trkpt lat="44.83977" lon="6.14286">
        <ele>1677</ele>
        <time>2024-08-13T11:06:42Z</time>
      </trkpt>
      <trkpt lat="44.83976" lon="6.14289">
        <ele>1677</ele>
        <time>2024-08-13T11:06:43Z</time>
      </trkpt>
      <trkpt lat="44.83976" lon="6.14289">
        <ele>1677.6</ele>
        <time>2024-08-13T11:06:44Z</time>
      </trkpt>
      <trkpt lat="44.83976" lon="6.14289">
        <ele>1677.6</ele>
        <time>2024-08-13T11:06:45Z</time>
      </trkpt>
      <trkpt lat="44.83976" lon="6.14292">
        <ele>1677.6</ele>
        <time>2024-08-13T11:06:46Z</time>
      </trkpt>
      <trkpt lat="44.83976" lon="6.14292">
        <ele>1678</ele>
        <time>2024-08-13T11:06:47Z</time>
      </trkpt>
      <trkpt lat="44.83976" lon="6.14292">
        <ele>1678</ele>
        <time>2024-08-13T11:06:48Z</time>
      </trkpt>
      <trkpt lat="44.83976" lon="6.14292">
        <ele>1678.2</ele>
        <time>2024-08-13T11:06:49Z</time>
      </trkpt>
      <trkpt lat="44.83976" lon="6.14292">
        <ele>1678.4</ele>
        <time>2024-08-13T11:06:50Z</time>
      </trkpt>
      <trkpt lat="44.83976" lon="6.14292">
        <ele>1678.8</ele>
        <time>2024-08-13T11:06:51Z</time>
      </trkpt>
      <trkpt lat="44.83976" lon="6.14295">
        <ele>1679</ele>
        <time>2024-08-13T11:06:52Z</time>
      </trkpt>
      <trkpt lat="44.83976" lon="6.14295">
        <ele>1679</ele>
        <time>2024-08-13T11:06:53Z</time>
      </trkpt>
      <trkpt lat="44.83976" lon="6.14295">
        <ele>1679.4</ele>
        <time>2024-08-13T11:06:54Z</time>
      </trkpt>
      <trkpt lat="44.83977" lon="6.14293">
        <ele>1679.8</ele>
        <time>2024-08-13T11:06:55Z</time>
      </trkpt>
      <trkpt lat="44.83977" lon="6.14293">
        <ele>1680</ele>
        <time>2024-08-13T11:06:56Z</time>
      </trkpt>
      <trkpt lat="44.83977" lon="6.14293">
        <ele>1680.2</ele>
        <time>2024-08-13T11:06:57Z</time>
      </trkpt>
      <trkpt lat="44.83977" lon="6.14293">
        <ele>1680.4</ele>
        <time>2024-08-13T11:06:58Z</time>
      </trkpt>
      <trkpt lat="44.83977" lon="6.14293">
        <ele>1681</ele>
        <time>2024-08-13T11:06:59Z</time>
      </trkpt>
      <trkpt lat="44.83979" lon="6.14291">
        <ele>1681</ele>
        <time>2024-08-13T11:07:00Z</time>
      </trkpt>
      <trkpt lat="44.83979" lon="6.14291">
        <ele>1681</ele>
        <time>2024-08-13T11:07:01Z</time>
      </trkpt>
      <trkpt lat="44.83979" lon="6.14291">
        <ele>1681.6</ele>
        <time>2024-08-13T11:07:02Z</time>
      </trkpt>
      <trkpt lat="44.83979" lon="6.14291">
        <ele>1681.6</ele>
        <time>2024-08-13T11:07:03Z</time>
      </trkpt>
      <trkpt lat="44.83979" lon="6.14291">
        <ele>1682</ele>
        <time>2024-08-13T11:07:04Z</time>
      </trkpt>
      <trkpt lat="44.83981" lon="6.14289">
        <ele>1682.2</ele>
        <time>2024-08-13T11:07:05Z</time>
      </trkpt>
      <trkpt lat="44.83982" lon="6.14287">
        <ele>1682.2</ele>
        <time>2024-08-13T11:07:06Z</time>
      </trkpt>
      <trkpt lat="44.83982" lon="6.14287">
        <ele>1682.6</ele>
        <time>2024-08-13T11:07:07Z</time>
      </trkpt>
      <trkpt lat="44.83984" lon="6.14285">
        <ele>1683</ele>
        <time>2024-08-13T11:07:08Z</time>
      </trkpt>
      <trkpt lat="44.83984" lon="6.14285">
        <ele>1683</ele>
        <time>2024-08-13T11:07:09Z</time>
      </trkpt>
      <trkpt lat="44.83985" lon="6.14284">
        <ele>1683</ele>
        <time>2024-08-13T11:07:10Z</time>
      </trkpt>
      <trkpt lat="44.83985" lon="6.14284">
        <ele>1683</ele>
        <time>2024-08-13T11:07:11Z</time>
      </trkpt>
      <trkpt lat="44.83985" lon="6.14284">
        <ele>1683.4</ele>
        <time>2024-08-13T11:07:12Z</time>
      </trkpt>
      <trkpt lat="44.83987" lon="6.14284">
        <ele>1683.6</ele>
        <time>2024-08-13T11:07:13Z</time>
      </trkpt>
      <trkpt lat="44.83987" lon="6.14284">
        <ele>1683.8</ele>
        <time>2024-08-13T11:07:14Z</time>
      </trkpt>
      <trkpt lat="44.83987" lon="6.14284">
        <ele>1684.2</ele>
        <time>2024-08-13T11:07:15Z</time>
      </trkpt>
      <trkpt lat="44.8399" lon="6.14284">
        <ele>1684.2</ele>
        <time>2024-08-13T11:07:16Z</time>
      </trkpt>
      <trkpt lat="44.8399" lon="6.14284">
        <ele>1684.2</ele>
        <time>2024-08-13T11:07:17Z</time>
      </trkpt>
      <trkpt lat="44.83992" lon="6.14284">
        <ele>1684.6</ele>
        <time>2024-08-13T11:07:18Z</time>
      </trkpt>
      <trkpt lat="44.83992" lon="6.14284">
        <ele>1684.8</ele>
        <time>2024-08-13T11:07:19Z</time>
      </trkpt>
      <trkpt lat="44.83992" lon="6.14284">
        <ele>1685</ele>
        <time>2024-08-13T11:07:20Z</time>
      </trkpt>
      <trkpt lat="44.83992" lon="6.14284">
        <ele>1685.2</ele>
        <time>2024-08-13T11:07:21Z</time>
      </trkpt>
      <trkpt lat="44.83992" lon="6.14284">
        <ele>1685.6</ele>
        <time>2024-08-13T11:07:22Z</time>
      </trkpt>
      <trkpt lat="44.83992" lon="6.14284">
        <ele>1685.8</ele>
        <time>2024-08-13T11:07:23Z</time>
      </trkpt>
      <trkpt lat="44.83992" lon="6.14284">
        <ele>1685.8</ele>
        <time>2024-08-13T11:07:24Z</time>
      </trkpt>
      <trkpt lat="44.83992" lon="6.14284">
        <ele>1685.8</ele>
        <time>2024-08-13T11:07:25Z</time>
      </trkpt>
      <trkpt lat="44.83992" lon="6.14284">
        <ele>1685.8</ele>
        <time>2024-08-13T11:07:26Z</time>
      </trkpt>
      <trkpt lat="44.83992" lon="6.14284">
        <ele>1685.8</ele>
        <time>2024-08-13T11:07:27Z</time>
      </trkpt>
      <trkpt lat="44.83992" lon="6.14284">
        <ele>1686</ele>
        <time>2024-08-13T11:07:28Z</time>
      </trkpt>
      <trkpt lat="44.83992" lon="6.14284">
        <ele>1686.2</ele>
        <time>2024-08-13T11:07:29Z</time>
      </trkpt>
      <trkpt lat="44.83992" lon="6.14284">
        <ele>1686.6</ele>
        <time>2024-08-13T11:07:30Z</time>
      </trkpt>
      <trkpt lat="44.83992" lon="6.14284">
        <ele>1686.6</ele>
        <time>2024-08-13T11:07:31Z</time>
      </trkpt>
      <trkpt lat="44.83992" lon="6.14284">
        <ele>1686.6</ele>
        <time>2024-08-13T11:07:32Z</time>
      </trkpt>
      <trkpt lat="44.83992" lon="6.14284">
        <ele>1686.6</ele>
        <time>2024-08-13T11:07:33Z</time>
      </trkpt>
      <trkpt lat="44.83992" lon="6.14284">
        <ele>1686.6</ele>
        <time>2024-08-13T11:07:34Z</time>
      </trkpt>
      <trkpt lat="44.83992" lon="6.14284">
        <ele>1686.6</ele>
        <time>2024-08-13T11:07:35Z</time>
      </trkpt>
      <trkpt lat="44.83992" lon="6.14284">
        <ele>1686.6</ele>
        <time>2024-08-13T11:07:36Z</time>
      </trkpt>
      <trkpt lat="44.83992" lon="6.14284">
        <ele>1686.6</ele>
        <time>2024-08-13T11:07:37Z</time>
      </trkpt>
      <trkpt lat="44.83992" lon="6.14284">
        <ele>1686.6</ele>
        <time>2024-08-13T11:07:38Z</time>
      </trkpt>
      <trkpt lat="44.83995" lon="6.14284">
        <ele>1686.4</ele>
        <time>2024-08-13T11:07:39Z</time>
      </trkpt>
      <trkpt lat="44.83997" lon="6.14284">
        <ele>1686.6</ele>
        <time>2024-08-13T11:07:40Z</time>
      </trkpt>
      <trkpt lat="44.83997" lon="6.14284">
        <ele>1686.6</ele>
        <time>2024-08-13T11:07:41Z</time>
      </trkpt>
      <trkpt lat="44.84" lon="6.14284">
        <ele>1686.6</ele>
        <time>2024-08-13T11:07:42Z</time>
      </trkpt>
      <trkpt lat="44.84" lon="6.14284">
        <ele>1686.6</ele>
        <time>2024-08-13T11:07:43Z</time>
      </trkpt>
      <trkpt lat="44.84003" lon="6.14285">
        <ele>1686.8</ele>
        <time>2024-08-13T11:07:44Z</time>
      </trkpt>
      <trkpt lat="44.84003" lon="6.14285">
        <ele>1687.2</ele>
        <time>2024-08-13T11:07:45Z</time>
      </trkpt>
      <trkpt lat="44.84005" lon="6.14284">
        <ele>1687.6</ele>
        <time>2024-08-13T11:07:46Z</time>
      </trkpt>
      <trkpt lat="44.84005" lon="6.14284">
        <ele>1687.8</ele>
        <time>2024-08-13T11:07:47Z</time>
      </trkpt>
      <trkpt lat="44.84005" lon="6.14284">
        <ele>1687.8</ele>
        <time>2024-08-13T11:07:48Z</time>
      </trkpt>
      <trkpt lat="44.84008" lon="6.14285">
        <ele>1687.8</ele>
        <time>2024-08-13T11:07:49Z</time>
      </trkpt>
      <trkpt lat="44.84008" lon="6.14285">
        <ele>1687.8</ele>
        <time>2024-08-13T11:07:50Z</time>
      </trkpt>
      <trkpt lat="44.84008" lon="6.14285">
        <ele>1688</ele>
        <time>2024-08-13T11:07:51Z</time>
      </trkpt>
      <trkpt lat="44.8401" lon="6.14285">
        <ele>1688.2</ele>
        <time>2024-08-13T11:07:52Z</time>
      </trkpt>
      <trkpt lat="44.8401" lon="6.14285">
        <ele>1688.2</ele>
        <time>2024-08-13T11:07:53Z</time>
      </trkpt>
      <trkpt lat="44.8401" lon="6.14285">
        <ele>1688.6</ele>
        <time>2024-08-13T11:07:54Z</time>
      </trkpt>
      <trkpt lat="44.8401" lon="6.14285">
        <ele>1688.8</ele>
        <time>2024-08-13T11:07:55Z</time>
      </trkpt>
      <trkpt lat="44.84012" lon="6.14284">
        <ele>1689.2</ele>
        <time>2024-08-13T11:07:56Z</time>
      </trkpt>
      <trkpt lat="44.84012" lon="6.14284">
        <ele>1689.6</ele>
        <time>2024-08-13T11:07:57Z</time>
      </trkpt>
      <trkpt lat="44.84014" lon="6.14283">
        <ele>1689.6</ele>
        <time>2024-08-13T11:07:58Z</time>
      </trkpt>
      <trkpt lat="44.84014" lon="6.14283">
        <ele>1689.6</ele>
        <time>2024-08-13T11:07:59Z</time>
      </trkpt>
      <trkpt lat="44.84016" lon="6.14283">
        <ele>1689.6</ele>
        <time>2024-08-13T11:08:00Z</time>
      </trkpt>
      <trkpt lat="44.84016" lon="6.14283">
        <ele>1689.6</ele>
        <time>2024-08-13T11:08:01Z</time>
      </trkpt>
      <trkpt lat="44.84016" lon="6.14283">
        <ele>1689.6</ele>
        <time>2024-08-13T11:08:02Z</time>
      </trkpt>
      <trkpt lat="44.84018" lon="6.14282">
        <ele>1689.8</ele>
        <time>2024-08-13T11:08:03Z</time>
      </trkpt>
      <trkpt lat="44.84018" lon="6.14282">
        <ele>1690</ele>
        <time>2024-08-13T11:08:04Z</time>
      </trkpt>
      <trkpt lat="44.84018" lon="6.14282">
        <ele>1690</ele>
        <time>2024-08-13T11:08:05Z</time>
      </trkpt>
      <trkpt lat="44.8402" lon="6.14282">
        <ele>1690</ele>
        <time>2024-08-13T11:08:06Z</time>
      </trkpt>
      <trkpt lat="44.8402" lon="6.14282">
        <ele>1690.2</ele>
        <time>2024-08-13T11:08:07Z</time>
      </trkpt>
      <trkpt lat="44.8402" lon="6.14282">
        <ele>1690.2</ele>
        <time>2024-08-13T11:08:08Z</time>
      </trkpt>
      <trkpt lat="44.84021" lon="6.14282">
        <ele>1690.4</ele>
        <time>2024-08-13T11:08:09Z</time>
      </trkpt>
      <trkpt lat="44.84021" lon="6.14282">
        <ele>1690.8</ele>
        <time>2024-08-13T11:08:10Z</time>
      </trkpt>
      <trkpt lat="44.84021" lon="6.14282">
        <ele>1690.8</ele>
        <time>2024-08-13T11:08:11Z</time>
      </trkpt>
      <trkpt lat="44.84024" lon="6.14281">
        <ele>1691</ele>
        <time>2024-08-13T11:08:12Z</time>
      </trkpt>
      <trkpt lat="44.84024" lon="6.14281">
        <ele>1691.2</ele>
        <time>2024-08-13T11:08:13Z</time>
      </trkpt>
      <trkpt lat="44.84024" lon="6.14281">
        <ele>1691.4</ele>
        <time>2024-08-13T11:08:14Z</time>
      </trkpt>
      <trkpt lat="44.84026" lon="6.14281">
        <ele>1691.8</ele>
        <time>2024-08-13T11:08:15Z</time>
      </trkpt>
      <trkpt lat="44.84026" lon="6.14281">
        <ele>1692.2</ele>
        <time>2024-08-13T11:08:16Z</time>
      </trkpt>
      <trkpt lat="44.84026" lon="6.14281">
        <ele>1692.2</ele>
        <time>2024-08-13T11:08:17Z</time>
      </trkpt>
      <trkpt lat="44.84028" lon="6.14281">
        <ele>1692.6</ele>
        <time>2024-08-13T11:08:18Z</time>
      </trkpt>
      <trkpt lat="44.84028" lon="6.14281">
        <ele>1692.6</ele>
        <time>2024-08-13T11:08:19Z</time>
      </trkpt>
      <trkpt lat="44.84028" lon="6.14281">
        <ele>1692.8</ele>
        <time>2024-08-13T11:08:20Z</time>
      </trkpt>
      <trkpt lat="44.84028" lon="6.14281">
        <ele>1692.8</ele>
        <time>2024-08-13T11:08:21Z</time>
      </trkpt>
      <trkpt lat="44.8403" lon="6.1428">
        <ele>1692.8</ele>
        <time>2024-08-13T11:08:22Z</time>
      </trkpt>
      <trkpt lat="44.8403" lon="6.1428">
        <ele>1693</ele>
        <time>2024-08-13T11:08:23Z</time>
      </trkpt>
      <trkpt lat="44.8403" lon="6.1428">
        <ele>1693.2</ele>
        <time>2024-08-13T11:08:24Z</time>
      </trkpt>
      <trkpt lat="44.84032" lon="6.1428">
        <ele>1693.2</ele>
        <time>2024-08-13T11:08:25Z</time>
      </trkpt>
      <trkpt lat="44.84032" lon="6.1428">
        <ele>1693.4</ele>
        <time>2024-08-13T11:08:26Z</time>
      </trkpt>
      <trkpt lat="44.84032" lon="6.1428">
        <ele>1693.8</ele>
        <time>2024-08-13T11:08:27Z</time>
      </trkpt>
      <trkpt lat="44.84034" lon="6.1428">
        <ele>1693.8</ele>
        <time>2024-08-13T11:08:28Z</time>
      </trkpt>
      <trkpt lat="44.84034" lon="6.1428">
        <ele>1694</ele>
        <time>2024-08-13T11:08:29Z</time>
      </trkpt>
      <trkpt lat="44.84034" lon="6.1428">
        <ele>1694.2</ele>
        <time>2024-08-13T11:08:30Z</time>
      </trkpt>
      <trkpt lat="44.84036" lon="6.14279">
        <ele>1694.6</ele>
        <time>2024-08-13T11:08:31Z</time>
      </trkpt>
      <trkpt lat="44.84036" lon="6.14279">
        <ele>1694.6</ele>
        <time>2024-08-13T11:08:32Z</time>
      </trkpt>
      <trkpt lat="44.84036" lon="6.14279">
        <ele>1694.6</ele>
        <time>2024-08-13T11:08:33Z</time>
      </trkpt>
      <trkpt lat="44.84036" lon="6.14279">
        <ele>1694.6</ele>
        <time>2024-08-13T11:08:34Z</time>
      </trkpt>
      <trkpt lat="44.84037" lon="6.14276">
        <ele>1694.8</ele>
        <time>2024-08-13T11:08:35Z</time>
      </trkpt>
      <trkpt lat="44.84037" lon="6.14276">
        <ele>1695</ele>
        <time>2024-08-13T11:08:36Z</time>
      </trkpt>
      <trkpt lat="44.84037" lon="6.14276">
        <ele>1695</ele>
        <time>2024-08-13T11:08:37Z</time>
      </trkpt>
      <trkpt lat="44.84038" lon="6.14273">
        <ele>1695</ele>
        <time>2024-08-13T11:08:38Z</time>
      </trkpt>
      <trkpt lat="44.84038" lon="6.14273">
        <ele>1695.2</ele>
        <time>2024-08-13T11:08:39Z</time>
      </trkpt>
      <trkpt lat="44.84038" lon="6.14273">
        <ele>1695.6</ele>
        <time>2024-08-13T11:08:40Z</time>
      </trkpt>
      <trkpt lat="44.8404" lon="6.1427">
        <ele>1695.6</ele>
        <time>2024-08-13T11:08:41Z</time>
      </trkpt>
      <trkpt lat="44.8404" lon="6.1427">
        <ele>1695.8</ele>
        <time>2024-08-13T11:08:42Z</time>
      </trkpt>
      <trkpt lat="44.8404" lon="6.1427">
        <ele>1695.8</ele>
        <time>2024-08-13T11:08:43Z</time>
      </trkpt>
      <trkpt lat="44.84042" lon="6.14268">
        <ele>1695.8</ele>
        <time>2024-08-13T11:08:44Z</time>
      </trkpt>
      <trkpt lat="44.84042" lon="6.14268">
        <ele>1696.2</ele>
        <time>2024-08-13T11:08:45Z</time>
      </trkpt>
      <trkpt lat="44.84042" lon="6.14268">
        <ele>1696.4</ele>
        <time>2024-08-13T11:08:46Z</time>
      </trkpt>
      <trkpt lat="44.84045" lon="6.14268">
        <ele>1696.4</ele>
        <time>2024-08-13T11:08:47Z</time>
      </trkpt>
      <trkpt lat="44.84045" lon="6.14268">
        <ele>1696.6</ele>
        <time>2024-08-13T11:08:48Z</time>
      </trkpt>
      <trkpt lat="44.84045" lon="6.14268">
        <ele>1696.8</ele>
        <time>2024-08-13T11:08:49Z</time>
      </trkpt>
      <trkpt lat="44.84047" lon="6.14268">
        <ele>1696.8</ele>
        <time>2024-08-13T11:08:50Z</time>
      </trkpt>
      <trkpt lat="44.84047" lon="6.14268">
        <ele>1697</ele>
        <time>2024-08-13T11:08:51Z</time>
      </trkpt>
      <trkpt lat="44.84047" lon="6.14268">
        <ele>1697</ele>
        <time>2024-08-13T11:08:52Z</time>
      </trkpt>
      <trkpt lat="44.8405" lon="6.14269">
        <ele>1697.2</ele>
        <time>2024-08-13T11:08:53Z</time>
      </trkpt>
      <trkpt lat="44.8405" lon="6.14269">
        <ele>1697.2</ele>
        <time>2024-08-13T11:08:54Z</time>
      </trkpt>
      <trkpt lat="44.84052" lon="6.14269">
        <ele>1697.6</ele>
        <time>2024-08-13T11:08:55Z</time>
      </trkpt>
      <trkpt lat="44.84052" lon="6.14269">
        <ele>1697.8</ele>
        <time>2024-08-13T11:08:56Z</time>
      </trkpt>
      <trkpt lat="44.84052" lon="6.14269">
        <ele>1697.8</ele>
        <time>2024-08-13T11:08:57Z</time>
      </trkpt>
      <trkpt lat="44.84055" lon="6.14268">
        <ele>1697.8</ele>
        <time>2024-08-13T11:08:58Z</time>
      </trkpt>
      <trkpt lat="44.84055" lon="6.14268">
        <ele>1698.4</ele>
        <time>2024-08-13T11:08:59Z</time>
      </trkpt>
      <trkpt lat="44.84055" lon="6.14268">
        <ele>1698.4</ele>
        <time>2024-08-13T11:09:00Z</time>
      </trkpt>
      <trkpt lat="44.84057" lon="6.14268">
        <ele>1698.6</ele>
        <time>2024-08-13T11:09:01Z</time>
      </trkpt>
      <trkpt lat="44.84057" lon="6.14268">
        <ele>1698.8</ele>
        <time>2024-08-13T11:09:02Z</time>
      </trkpt>
      <trkpt lat="44.84059" lon="6.14267">
        <ele>1698.8</ele>
        <time>2024-08-13T11:09:03Z</time>
      </trkpt>
      <trkpt lat="44.84059" lon="6.14267">
        <ele>1698.8</ele>
        <time>2024-08-13T11:09:04Z</time>
      </trkpt>
      <trkpt lat="44.84059" lon="6.14267">
        <ele>1699.2</ele>
        <time>2024-08-13T11:09:05Z</time>
      </trkpt>
      <trkpt lat="44.84059" lon="6.14267">
        <ele>1699.2</ele>
        <time>2024-08-13T11:09:06Z</time>
      </trkpt>
      <trkpt lat="44.84061" lon="6.14266">
        <ele>1699.6</ele>
        <time>2024-08-13T11:09:07Z</time>
      </trkpt>
      <trkpt lat="44.84061" lon="6.14266">
        <ele>1699.6</ele>
        <time>2024-08-13T11:09:08Z</time>
      </trkpt>
      <trkpt lat="44.84061" lon="6.14266">
        <ele>1700</ele>
        <time>2024-08-13T11:09:09Z</time>
      </trkpt>
      <trkpt lat="44.84061" lon="6.14266">
        <ele>1700.2</ele>
        <time>2024-08-13T11:09:10Z</time>
      </trkpt>
      <trkpt lat="44.84061" lon="6.14266">
        <ele>1700.2</ele>
        <time>2024-08-13T11:09:11Z</time>
      </trkpt>
      <trkpt lat="44.84061" lon="6.14266">
        <ele>1700.4</ele>
        <time>2024-08-13T11:09:12Z</time>
      </trkpt>
      <trkpt lat="44.84063" lon="6.14264">
        <ele>1700.6</ele>
        <time>2024-08-13T11:09:13Z</time>
      </trkpt>
      <trkpt lat="44.84063" lon="6.14264">
        <ele>1700.6</ele>
        <time>2024-08-13T11:09:14Z</time>
      </trkpt>
      <trkpt lat="44.84065" lon="6.14262">
        <ele>1701</ele>
        <time>2024-08-13T11:09:15Z</time>
      </trkpt>
      <trkpt lat="44.84065" lon="6.14262">
        <ele>1701</ele>
        <time>2024-08-13T11:09:16Z</time>
      </trkpt>
      <trkpt lat="44.84065" lon="6.14262">
        <ele>1701</ele>
        <time>2024-08-13T11:09:17Z</time>
      </trkpt>
      <trkpt lat="44.84067" lon="6.1426">
        <ele>1701.6</ele>
        <time>2024-08-13T11:09:18Z</time>
      </trkpt>
      <trkpt lat="44.84067" lon="6.1426">
        <ele>1701.6</ele>
        <time>2024-08-13T11:09:19Z</time>
      </trkpt>
      <trkpt lat="44.84069" lon="6.14258">
        <ele>1701.8</ele>
        <time>2024-08-13T11:09:20Z</time>
      </trkpt>
      <trkpt lat="44.84069" lon="6.14258">
        <ele>1701.8</ele>
        <time>2024-08-13T11:09:21Z</time>
      </trkpt>
      <trkpt lat="44.84072" lon="6.14257">
        <ele>1701.8</ele>
        <time>2024-08-13T11:09:22Z</time>
      </trkpt>
      <trkpt lat="44.84072" lon="6.14257">
        <ele>1702</ele>
        <time>2024-08-13T11:09:23Z</time>
      </trkpt>
      <trkpt lat="44.84074" lon="6.14257">
        <ele>1702.2</ele>
        <time>2024-08-13T11:09:24Z</time>
      </trkpt>
      <trkpt lat="44.84074" lon="6.14257">
        <ele>1702.2</ele>
        <time>2024-08-13T11:09:25Z</time>
      </trkpt>
      <trkpt lat="44.84075" lon="6.1426">
        <ele>1702.2</ele>
        <time>2024-08-13T11:09:26Z</time>
      </trkpt>
      <trkpt lat="44.84075" lon="6.1426">
        <ele>1702.4</ele>
        <time>2024-08-13T11:09:27Z</time>
      </trkpt>
      <trkpt lat="44.84073" lon="6.14262">
        <ele>1702.8</ele>
        <time>2024-08-13T11:09:28Z</time>
      </trkpt>
      <trkpt lat="44.84073" lon="6.14262">
        <ele>1703.4</ele>
        <time>2024-08-13T11:09:29Z</time>
      </trkpt>
      <trkpt lat="44.84073" lon="6.14262">
        <ele>1703.4</ele>
        <time>2024-08-13T11:09:30Z</time>
      </trkpt>
      <trkpt lat="44.84072" lon="6.14266">
        <ele>1703.4</ele>
        <time>2024-08-13T11:09:31Z</time>
      </trkpt>
      <trkpt lat="44.84072" lon="6.14266">
        <ele>1703.4</ele>
        <time>2024-08-13T11:09:32Z</time>
      </trkpt>
      <trkpt lat="44.84072" lon="6.14266">
        <ele>1703.4</ele>
        <time>2024-08-13T11:09:33Z</time>
      </trkpt>
      <trkpt lat="44.84071" lon="6.14269">
        <ele>1703.4</ele>
        <time>2024-08-13T11:09:34Z</time>
      </trkpt>
      <trkpt lat="44.84071" lon="6.14269">
        <ele>1703.6</ele>
        <time>2024-08-13T11:09:35Z</time>
      </trkpt>
      <trkpt lat="44.84071" lon="6.14269">
        <ele>1703.8</ele>
        <time>2024-08-13T11:09:36Z</time>
      </trkpt>
      <trkpt lat="44.84069" lon="6.14271">
        <ele>1703.8</ele>
        <time>2024-08-13T11:09:37Z</time>
      </trkpt>
      <trkpt lat="44.84069" lon="6.14271">
        <ele>1704.2</ele>
        <time>2024-08-13T11:09:38Z</time>
      </trkpt>
      <trkpt lat="44.84068" lon="6.14273">
        <ele>1704.2</ele>
        <time>2024-08-13T11:09:39Z</time>
      </trkpt>
      <trkpt lat="44.84068" lon="6.14273">
        <ele>1704.2</ele>
        <time>2024-08-13T11:09:40Z</time>
      </trkpt>
      <trkpt lat="44.84068" lon="6.14273">
        <ele>1704.2</ele>
        <time>2024-08-13T11:09:41Z</time>
      </trkpt>
      <trkpt lat="44.84066" lon="6.14274">
        <ele>1704.4</ele>
        <time>2024-08-13T11:09:42Z</time>
      </trkpt>
      <trkpt lat="44.84066" lon="6.14274">
        <ele>1704.6</ele>
        <time>2024-08-13T11:09:43Z</time>
      </trkpt>
      <trkpt lat="44.84066" lon="6.14274">
        <ele>1704.6</ele>
        <time>2024-08-13T11:09:44Z</time>
      </trkpt>
      <trkpt lat="44.84063" lon="6.14276">
        <ele>1704.6</ele>
        <time>2024-08-13T11:09:45Z</time>
      </trkpt>
      <trkpt lat="44.84063" lon="6.14276">
        <ele>1704.8</ele>
        <time>2024-08-13T11:09:46Z</time>
      </trkpt>
      <trkpt lat="44.84061" lon="6.14277">
        <ele>1704.8</ele>
        <time>2024-08-13T11:09:47Z</time>
      </trkpt>
      <trkpt lat="44.84061" lon="6.14277">
        <ele>1704.6</ele>
        <time>2024-08-13T11:09:48Z</time>
      </trkpt>
      <trkpt lat="44.84061" lon="6.14277">
        <ele>1704.6</ele>
        <time>2024-08-13T11:09:49Z</time>
      </trkpt>
      <trkpt lat="44.84058" lon="6.14277">
        <ele>1704.8</ele>
        <time>2024-08-13T11:09:50Z</time>
      </trkpt>
      <trkpt lat="44.84058" lon="6.14277">
        <ele>1705</ele>
        <time>2024-08-13T11:09:51Z</time>
      </trkpt>
      <trkpt lat="44.84058" lon="6.14277">
        <ele>1705.4</ele>
        <time>2024-08-13T11:09:52Z</time>
      </trkpt>
      <trkpt lat="44.84056" lon="6.14279">
        <ele>1705.4</ele>
        <time>2024-08-13T11:09:53Z</time>
      </trkpt>
      <trkpt lat="44.84056" lon="6.14279">
        <ele>1705.6</ele>
        <time>2024-08-13T11:09:54Z</time>
      </trkpt>
      <trkpt lat="44.84055" lon="6.14281">
        <ele>1705.6</ele>
        <time>2024-08-13T11:09:55Z</time>
      </trkpt>
      <trkpt lat="44.84055" lon="6.14281">
        <ele>1705.6</ele>
        <time>2024-08-13T11:09:56Z</time>
      </trkpt>
      <trkpt lat="44.84055" lon="6.14281">
        <ele>1705.8</ele>
        <time>2024-08-13T11:09:57Z</time>
      </trkpt>
      <trkpt lat="44.84055" lon="6.14281">
        <ele>1706.2</ele>
        <time>2024-08-13T11:09:58Z</time>
      </trkpt>
      <trkpt lat="44.84055" lon="6.14281">
        <ele>1706.2</ele>
        <time>2024-08-13T11:09:59Z</time>
      </trkpt>
      <trkpt lat="44.84055" lon="6.14281">
        <ele>1706.2</ele>
        <time>2024-08-13T11:10:00Z</time>
      </trkpt>
      <trkpt lat="44.84057" lon="6.14281">
        <ele>1706.4</ele>
        <time>2024-08-13T11:10:01Z</time>
      </trkpt>
      <trkpt lat="44.84057" lon="6.14281">
        <ele>1707.2</ele>
        <time>2024-08-13T11:10:02Z</time>
      </trkpt>
      <trkpt lat="44.84059" lon="6.14281">
        <ele>1707.2</ele>
        <time>2024-08-13T11:10:03Z</time>
      </trkpt>
      <trkpt lat="44.84059" lon="6.14281">
        <ele>1707.2</ele>
        <time>2024-08-13T11:10:04Z</time>
      </trkpt>
      <trkpt lat="44.84059" lon="6.14281">
        <ele>1707.2</ele>
        <time>2024-08-13T11:10:05Z</time>
      </trkpt>
      <trkpt lat="44.84061" lon="6.14281">
        <ele>1707.8</ele>
        <time>2024-08-13T11:10:06Z</time>
      </trkpt>
      <trkpt lat="44.84061" lon="6.14281">
        <ele>1707.8</ele>
        <time>2024-08-13T11:10:07Z</time>
      </trkpt>
      <trkpt lat="44.84063" lon="6.1428">
        <ele>1708</ele>
        <time>2024-08-13T11:10:08Z</time>
      </trkpt>
      <trkpt lat="44.84063" lon="6.1428">
        <ele>1708.2</ele>
        <time>2024-08-13T11:10:09Z</time>
      </trkpt>
      <trkpt lat="44.84063" lon="6.1428">
        <ele>1708.2</ele>
        <time>2024-08-13T11:10:10Z</time>
      </trkpt>
      <trkpt lat="44.84065" lon="6.1428">
        <ele>1708.4</ele>
        <time>2024-08-13T11:10:11Z</time>
      </trkpt>
      <trkpt lat="44.84065" lon="6.1428">
        <ele>1708.4</ele>
        <time>2024-08-13T11:10:12Z</time>
      </trkpt>
      <trkpt lat="44.84068" lon="6.14279">
        <ele>1708.6</ele>
        <time>2024-08-13T11:10:13Z</time>
      </trkpt>
      <trkpt lat="44.84068" lon="6.14279">
        <ele>1709</ele>
        <time>2024-08-13T11:10:14Z</time>
      </trkpt>
      <trkpt lat="44.84068" lon="6.14279">
        <ele>1709</ele>
        <time>2024-08-13T11:10:15Z</time>
      </trkpt>
      <trkpt lat="44.8407" lon="6.1428">
        <ele>1709.2</ele>
        <time>2024-08-13T11:10:16Z</time>
      </trkpt>
      <trkpt lat="44.8407" lon="6.1428">
        <ele>1709.4</ele>
        <time>2024-08-13T11:10:17Z</time>
      </trkpt>
      <trkpt lat="44.8407" lon="6.1428">
        <ele>1709.6</ele>
        <time>2024-08-13T11:10:18Z</time>
      </trkpt>
      <trkpt lat="44.8407" lon="6.1428">
        <ele>1709.8</ele>
        <time>2024-08-13T11:10:19Z</time>
      </trkpt>
      <trkpt lat="44.8407" lon="6.1428">
        <ele>1709.8</ele>
        <time>2024-08-13T11:10:20Z</time>
      </trkpt>
      <trkpt lat="44.8407" lon="6.1428">
        <ele>1709.8</ele>
        <time>2024-08-13T11:10:21Z</time>
      </trkpt>
      <trkpt lat="44.84071" lon="6.14282">
        <ele>1709.8</ele>
        <time>2024-08-13T11:10:22Z</time>
      </trkpt>
      <trkpt lat="44.84071" lon="6.14282">
        <ele>1710</ele>
        <time>2024-08-13T11:10:23Z</time>
      </trkpt>
      <trkpt lat="44.84071" lon="6.14282">
        <ele>1710.2</ele>
        <time>2024-08-13T11:10:24Z</time>
      </trkpt>
      <trkpt lat="44.84071" lon="6.14282">
        <ele>1710.2</ele>
        <time>2024-08-13T11:10:25Z</time>
      </trkpt>
      <trkpt lat="44.84073" lon="6.1428">
        <ele>1710.2</ele>
        <time>2024-08-13T11:10:26Z</time>
      </trkpt>
      <trkpt lat="44.84073" lon="6.1428">
        <ele>1710.2</ele>
        <time>2024-08-13T11:10:27Z</time>
      </trkpt>
      <trkpt lat="44.84076" lon="6.14279">
        <ele>1710.2</ele>
        <time>2024-08-13T11:10:28Z</time>
      </trkpt>
      <trkpt lat="44.84076" lon="6.14279">
        <ele>1710.4</ele>
        <time>2024-08-13T11:10:29Z</time>
      </trkpt>
      <trkpt lat="44.84076" lon="6.14279">
        <ele>1710.4</ele>
        <time>2024-08-13T11:10:30Z</time>
      </trkpt>
      <trkpt lat="44.84076" lon="6.14279">
        <ele>1711</ele>
        <time>2024-08-13T11:10:31Z</time>
      </trkpt>
      <trkpt lat="44.84076" lon="6.14279">
        <ele>1711.2</ele>
        <time>2024-08-13T11:10:32Z</time>
      </trkpt>
      <trkpt lat="44.84078" lon="6.14276">
        <ele>1711.4</ele>
        <time>2024-08-13T11:10:33Z</time>
      </trkpt>
      <trkpt lat="44.84078" lon="6.14276">
        <ele>1711.8</ele>
        <time>2024-08-13T11:10:34Z</time>
      </trkpt>
      <trkpt lat="44.84079" lon="6.14274">
        <ele>1712</ele>
        <time>2024-08-13T11:10:35Z</time>
      </trkpt>
      <trkpt lat="44.84079" lon="6.14274">
        <ele>1712</ele>
        <time>2024-08-13T11:10:36Z</time>
      </trkpt>
      <trkpt lat="44.84081" lon="6.14274">
        <ele>1712.6</ele>
        <time>2024-08-13T11:10:37Z</time>
      </trkpt>
      <trkpt lat="44.84081" lon="6.14274">
        <ele>1712.6</ele>
        <time>2024-08-13T11:10:38Z</time>
      </trkpt>
      <trkpt lat="44.84084" lon="6.14274">
        <ele>1712.8</ele>
        <time>2024-08-13T11:10:39Z</time>
      </trkpt>
      <trkpt lat="44.84084" lon="6.14274">
        <ele>1713.2</ele>
        <time>2024-08-13T11:10:40Z</time>
      </trkpt>
      <trkpt lat="44.84084" lon="6.14274">
        <ele>1713.2</ele>
        <time>2024-08-13T11:10:41Z</time>
      </trkpt>
      <trkpt lat="44.84085" lon="6.14277">
        <ele>1713.4</ele>
        <time>2024-08-13T11:10:42Z</time>
      </trkpt>
      <trkpt lat="44.84085" lon="6.14277">
        <ele>1713.4</ele>
        <time>2024-08-13T11:10:43Z</time>
      </trkpt>
      <trkpt lat="44.84085" lon="6.1428">
        <ele>1713.8</ele>
        <time>2024-08-13T11:10:44Z</time>
      </trkpt>
      <trkpt lat="44.84085" lon="6.1428">
        <ele>1714</ele>
        <time>2024-08-13T11:10:45Z</time>
      </trkpt>
      <trkpt lat="44.84085" lon="6.1428">
        <ele>1714.2</ele>
        <time>2024-08-13T11:10:46Z</time>
      </trkpt>
      <trkpt lat="44.84082" lon="6.14282">
        <ele>1714.4</ele>
        <time>2024-08-13T11:10:47Z</time>
      </trkpt>
      <trkpt lat="44.84082" lon="6.14282">
        <ele>1714.8</ele>
        <time>2024-08-13T11:10:48Z</time>
      </trkpt>
      <trkpt lat="44.84082" lon="6.14282">
        <ele>1714.8</ele>
        <time>2024-08-13T11:10:49Z</time>
      </trkpt>
      <trkpt lat="44.84082" lon="6.14282">
        <ele>1714.8</ele>
        <time>2024-08-13T11:10:50Z</time>
      </trkpt>
      <trkpt lat="44.84082" lon="6.14285">
        <ele>1715.6</ele>
        <time>2024-08-13T11:10:51Z</time>
      </trkpt>
      <trkpt lat="44.84082" lon="6.14285">
        <ele>1715.6</ele>
        <time>2024-08-13T11:10:52Z</time>
      </trkpt>
      <trkpt lat="44.84082" lon="6.14285">
        <ele>1715.8</ele>
        <time>2024-08-13T11:10:53Z</time>
      </trkpt>
      <trkpt lat="44.84082" lon="6.14285">
        <ele>1716</ele>
        <time>2024-08-13T11:10:54Z</time>
      </trkpt>
      <trkpt lat="44.84082" lon="6.14285">
        <ele>1716</ele>
        <time>2024-08-13T11:10:55Z</time>
      </trkpt>
      <trkpt lat="44.84082" lon="6.14285">
        <ele>1716.2</ele>
        <time>2024-08-13T11:10:56Z</time>
      </trkpt>
      <trkpt lat="44.84081" lon="6.14289">
        <ele>1716.8</ele>
        <time>2024-08-13T11:10:57Z</time>
      </trkpt>
      <trkpt lat="44.84081" lon="6.14289">
        <ele>1717.2</ele>
        <time>2024-08-13T11:10:58Z</time>
      </trkpt>
      <trkpt lat="44.84081" lon="6.14289">
        <ele>1717.4</ele>
        <time>2024-08-13T11:10:59Z</time>
      </trkpt>
      <trkpt lat="44.84079" lon="6.14291">
        <ele>1718</ele>
        <time>2024-08-13T11:11:00Z</time>
      </trkpt>
      <trkpt lat="44.84079" lon="6.14291">
        <ele>1718</ele>
        <time>2024-08-13T11:11:01Z</time>
      </trkpt>
      <trkpt lat="44.84079" lon="6.14291">
        <ele>1718</ele>
        <time>2024-08-13T11:11:02Z</time>
      </trkpt>
      <trkpt lat="44.84079" lon="6.14291">
        <ele>1718</ele>
        <time>2024-08-13T11:11:03Z</time>
      </trkpt>
      <trkpt lat="44.84079" lon="6.14291">
        <ele>1718.4</ele>
        <time>2024-08-13T11:11:04Z</time>
      </trkpt>
      <trkpt lat="44.84079" lon="6.14291">
        <ele>1718.8</ele>
        <time>2024-08-13T11:11:05Z</time>
      </trkpt>
      <trkpt lat="44.84079" lon="6.14291">
        <ele>1719</ele>
        <time>2024-08-13T11:11:06Z</time>
      </trkpt>
      <trkpt lat="44.84079" lon="6.14291">
        <ele>1719</ele>
        <time>2024-08-13T11:11:07Z</time>
      </trkpt>
      <trkpt lat="44.84079" lon="6.14291">
        <ele>1719.2</ele>
        <time>2024-08-13T11:11:08Z</time>
      </trkpt>
      <trkpt lat="44.84079" lon="6.14294">
        <ele>1719.4</ele>
        <time>2024-08-13T11:11:09Z</time>
      </trkpt>
      <trkpt lat="44.84079" lon="6.14294">
        <ele>1719.4</ele>
        <time>2024-08-13T11:11:10Z</time>
      </trkpt>
      <trkpt lat="44.84079" lon="6.14294">
        <ele>1719.2</ele>
        <time>2024-08-13T11:11:11Z</time>
      </trkpt>
      <trkpt lat="44.84079" lon="6.14294">
        <ele>1719.2</ele>
        <time>2024-08-13T11:11:12Z</time>
      </trkpt>
      <trkpt lat="44.84079" lon="6.14294">
        <ele>1719.4</ele>
        <time>2024-08-13T11:11:13Z</time>
      </trkpt>
      <trkpt lat="44.84079" lon="6.14294">
        <ele>1719.2</ele>
        <time>2024-08-13T11:11:14Z</time>
      </trkpt>
      <trkpt lat="44.84079" lon="6.14294">
        <ele>1719.2</ele>
        <time>2024-08-13T11:11:15Z</time>
      </trkpt>
      <trkpt lat="44.84079" lon="6.14294">
        <ele>1719.2</ele>
        <time>2024-08-13T11:11:16Z</time>
      </trkpt>
      <trkpt lat="44.84079" lon="6.14294">
        <ele>1719.4</ele>
        <time>2024-08-13T11:11:17Z</time>
      </trkpt>
      <trkpt lat="44.84079" lon="6.14294">
        <ele>1719.4</ele>
        <time>2024-08-13T11:11:18Z</time>
      </trkpt>
      <trkpt lat="44.84079" lon="6.14294">
        <ele>1719.4</ele>
        <time>2024-08-13T11:11:19Z</time>
      </trkpt>
      <trkpt lat="44.84079" lon="6.14294">
        <ele>1719.6</ele>
        <time>2024-08-13T11:11:20Z</time>
      </trkpt>
      <trkpt lat="44.84079" lon="6.14294">
        <ele>1720</ele>
        <time>2024-08-13T11:11:21Z</time>
      </trkpt>
      <trkpt lat="44.84079" lon="6.14294">
        <ele>1720</ele>
        <time>2024-08-13T11:11:22Z</time>
      </trkpt>
      <trkpt lat="44.84079" lon="6.14294">
        <ele>1720</ele>
        <time>2024-08-13T11:11:23Z</time>
      </trkpt>
      <trkpt lat="44.84079" lon="6.14294">
        <ele>1720</ele>
        <time>2024-08-13T11:11:24Z</time>
      </trkpt>
      <trkpt lat="44.84079" lon="6.14294">
        <ele>1720</ele>
        <time>2024-08-13T11:11:25Z</time>
      </trkpt>
      <trkpt lat="44.84079" lon="6.14294">
        <ele>1719.8</ele>
        <time>2024-08-13T11:11:26Z</time>
      </trkpt>
      <trkpt lat="44.84079" lon="6.14294">
        <ele>1719.8</ele>
        <time>2024-08-13T11:11:27Z</time>
      </trkpt>
      <trkpt lat="44.84079" lon="6.14294">
        <ele>1719.8</ele>
        <time>2024-08-13T11:11:28Z</time>
      </trkpt>
      <trkpt lat="44.84079" lon="6.14294">
        <ele>1720</ele>
        <time>2024-08-13T11:11:29Z</time>
      </trkpt>
      <trkpt lat="44.84079" lon="6.14294">
        <ele>1720</ele>
        <time>2024-08-13T11:11:30Z</time>
      </trkpt>
      <trkpt lat="44.84079" lon="6.14294">
        <ele>1720</ele>
        <time>2024-08-13T11:11:31Z</time>
      </trkpt>
      <trkpt lat="44.84079" lon="6.14294">
        <ele>1720</ele>
        <time>2024-08-13T11:11:32Z</time>
      </trkpt>
      <trkpt lat="44.84079" lon="6.14294">
        <ele>1720.2</ele>
        <time>2024-08-13T11:11:33Z</time>
      </trkpt>
      <trkpt lat="44.84079" lon="6.14294">
        <ele>1720.2</ele>
        <time>2024-08-13T11:11:34Z</time>
      </trkpt>
      <trkpt lat="44.84079" lon="6.14294">
        <ele>1720.2</ele>
        <time>2024-08-13T11:11:35Z</time>
      </trkpt>
      <trkpt lat="44.84079" lon="6.14294">
        <ele>1720</ele>
        <time>2024-08-13T11:11:36Z</time>
      </trkpt>
      <trkpt lat="44.84079" lon="6.14294">
        <ele>1720</ele>
        <time>2024-08-13T11:11:37Z</time>
      </trkpt>
      <trkpt lat="44.84079" lon="6.14294">
        <ele>1720.2</ele>
        <time>2024-08-13T11:11:38Z</time>
      </trkpt>
      <trkpt lat="44.84079" lon="6.14294">
        <ele>1720.4</ele>
        <time>2024-08-13T11:11:39Z</time>
      </trkpt>
      <trkpt lat="44.84079" lon="6.14294">
        <ele>1720.6</ele>
        <time>2024-08-13T11:11:40Z</time>
      </trkpt>
      <trkpt lat="44.84079" lon="6.14297">
        <ele>1720.6</ele>
        <time>2024-08-13T11:11:41Z</time>
      </trkpt>
      <trkpt lat="44.84079" lon="6.14297">
        <ele>1720.6</ele>
        <time>2024-08-13T11:11:42Z</time>
      </trkpt>
      <trkpt lat="44.84079" lon="6.14297">
        <ele>1721</ele>
        <time>2024-08-13T11:11:43Z</time>
      </trkpt>
      <trkpt lat="44.84079" lon="6.14297">
        <ele>1721.2</ele>
        <time>2024-08-13T11:11:44Z</time>
      </trkpt>
      <trkpt lat="44.84077" lon="6.14299">
        <ele>1721.4</ele>
        <time>2024-08-13T11:11:45Z</time>
      </trkpt>
      <trkpt lat="44.84077" lon="6.14299">
        <ele>1721.4</ele>
        <time>2024-08-13T11:11:46Z</time>
      </trkpt>
      <trkpt lat="44.84076" lon="6.143">
        <ele>1721.4</ele>
        <time>2024-08-13T11:11:47Z</time>
      </trkpt>
      <trkpt lat="44.84076" lon="6.143">
        <ele>1721.8</ele>
        <time>2024-08-13T11:11:48Z</time>
      </trkpt>
      <trkpt lat="44.84076" lon="6.143">
        <ele>1722.2</ele>
        <time>2024-08-13T11:11:49Z</time>
      </trkpt>
      <trkpt lat="44.84076" lon="6.143">
        <ele>1722.2</ele>
        <time>2024-08-13T11:11:50Z</time>
      </trkpt>
      <trkpt lat="44.84076" lon="6.143">
        <ele>1722.8</ele>
        <time>2024-08-13T11:11:51Z</time>
      </trkpt>
      <trkpt lat="44.84076" lon="6.143">
        <ele>1723</ele>
        <time>2024-08-13T11:11:52Z</time>
      </trkpt>
      <trkpt lat="44.84076" lon="6.143">
        <ele>1723</ele>
        <time>2024-08-13T11:11:53Z</time>
      </trkpt>
      <trkpt lat="44.84076" lon="6.143">
        <ele>1723.2</ele>
        <time>2024-08-13T11:11:54Z</time>
      </trkpt>
      <trkpt lat="44.84076" lon="6.143">
        <ele>1723.6</ele>
        <time>2024-08-13T11:11:55Z</time>
      </trkpt>
      <trkpt lat="44.84076" lon="6.143">
        <ele>1724</ele>
        <time>2024-08-13T11:11:56Z</time>
      </trkpt>
      <trkpt lat="44.84076" lon="6.143">
        <ele>1724</ele>
        <time>2024-08-13T11:11:57Z</time>
      </trkpt>
      <trkpt lat="44.84076" lon="6.143">
        <ele>1724.4</ele>
        <time>2024-08-13T11:11:58Z</time>
      </trkpt>
      <trkpt lat="44.84076" lon="6.143">
        <ele>1724.6</ele>
        <time>2024-08-13T11:11:59Z</time>
      </trkpt>
      <trkpt lat="44.84076" lon="6.143">
        <ele>1724.6</ele>
        <time>2024-08-13T11:12:00Z</time>
      </trkpt>
      <trkpt lat="44.84076" lon="6.143">
        <ele>1725</ele>
        <time>2024-08-13T11:12:01Z</time>
      </trkpt>
      <trkpt lat="44.84076" lon="6.143">
        <ele>1725.2</ele>
        <time>2024-08-13T11:12:02Z</time>
      </trkpt>
      <trkpt lat="44.84076" lon="6.143">
        <ele>1725.2</ele>
        <time>2024-08-13T11:12:03Z</time>
      </trkpt>
      <trkpt lat="44.84076" lon="6.143">
        <ele>1725.4</ele>
        <time>2024-08-13T11:12:04Z</time>
      </trkpt>
      <trkpt lat="44.84076" lon="6.143">
        <ele>1725.8</ele>
        <time>2024-08-13T11:12:05Z</time>
      </trkpt>
      <trkpt lat="44.84076" lon="6.143">
        <ele>1725.8</ele>
        <time>2024-08-13T11:12:06Z</time>
      </trkpt>
      <trkpt lat="44.84076" lon="6.143">
        <ele>1725.8</ele>
        <time>2024-08-13T11:12:07Z</time>
      </trkpt>
      <trkpt lat="44.84076" lon="6.143">
        <ele>1725.8</ele>
        <time>2024-08-13T11:12:08Z</time>
      </trkpt>
      <trkpt lat="44.84076" lon="6.143">
        <ele>1725.8</ele>
        <time>2024-08-13T11:12:09Z</time>
      </trkpt>
      <trkpt lat="44.84076" lon="6.143">
        <ele>1725.8</ele>
        <time>2024-08-13T11:12:10Z</time>
      </trkpt>
      <trkpt lat="44.84076" lon="6.143">
        <ele>1726</ele>
        <time>2024-08-13T11:12:11Z</time>
      </trkpt>
      <trkpt lat="44.84076" lon="6.143">
        <ele>1726</ele>
        <time>2024-08-13T11:12:12Z</time>
      </trkpt>
      <trkpt lat="44.84076" lon="6.143">
        <ele>1725.8</ele>
        <time>2024-08-13T11:12:13Z</time>
      </trkpt>
      <trkpt lat="44.84076" lon="6.143">
        <ele>1725.8</ele>
        <time>2024-08-13T11:12:14Z</time>
      </trkpt>
      <trkpt lat="44.84076" lon="6.143">
        <ele>1725.6</ele>
        <time>2024-08-13T11:12:15Z</time>
      </trkpt>
      <trkpt lat="44.84076" lon="6.143">
        <ele>1725.4</ele>
        <time>2024-08-13T11:12:16Z</time>
      </trkpt>
      <trkpt lat="44.84076" lon="6.143">
        <ele>1725.4</ele>
        <time>2024-08-13T11:12:17Z</time>
      </trkpt>
      <trkpt lat="44.84076" lon="6.143">
        <ele>1725.6</ele>
        <time>2024-08-13T11:12:18Z</time>
      </trkpt>
      <trkpt lat="44.84076" lon="6.143">
        <ele>1725.8</ele>
        <time>2024-08-13T11:12:19Z</time>
      </trkpt>
      <trkpt lat="44.84076" lon="6.143">
        <ele>1725.8</ele>
        <time>2024-08-13T11:12:20Z</time>
      </trkpt>
      <trkpt lat="44.84076" lon="6.143">
        <ele>1725.8</ele>
        <time>2024-08-13T11:12:21Z</time>
      </trkpt>
      <trkpt lat="44.84076" lon="6.143">
        <ele>1725.8</ele>
        <time>2024-08-13T11:12:22Z</time>
      </trkpt>
      <trkpt lat="44.84076" lon="6.143">
        <ele>1725.8</ele>
        <time>2024-08-13T11:12:23Z</time>
      </trkpt>
      <trkpt lat="44.84076" lon="6.143">
        <ele>1726</ele>
        <time>2024-08-13T11:12:24Z</time>
      </trkpt>
      <trkpt lat="44.84076" lon="6.143">
        <ele>1726</ele>
        <time>2024-08-13T11:12:25Z</time>
      </trkpt>
      <trkpt lat="44.84076" lon="6.143">
        <ele>1726</ele>
        <time>2024-08-13T11:12:26Z</time>
      </trkpt>
      <trkpt lat="44.84076" lon="6.143">
        <ele>1726</ele>
        <time>2024-08-13T11:12:27Z</time>
      </trkpt>
      <trkpt lat="44.84076" lon="6.143">
        <ele>1726</ele>
        <time>2024-08-13T11:12:28Z</time>
      </trkpt>
      <trkpt lat="44.84076" lon="6.143">
        <ele>1726</ele>
        <time>2024-08-13T11:12:29Z</time>
      </trkpt>
      <trkpt lat="44.84077" lon="6.143">
        <ele>1726.4</ele>
        <time>2024-08-13T11:12:30Z</time>
      </trkpt>
      <trkpt lat="44.84077" lon="6.143">
        <ele>1726.4</ele>
        <time>2024-08-13T11:12:31Z</time>
      </trkpt>
      <trkpt lat="44.8408" lon="6.14299">
        <ele>1726.4</ele>
        <time>2024-08-13T11:12:32Z</time>
      </trkpt>
      <trkpt lat="44.8408" lon="6.14299">
        <ele>1726.6</ele>
        <time>2024-08-13T11:12:33Z</time>
      </trkpt>
      <trkpt lat="44.84082" lon="6.143">
        <ele>1726.8</ele>
        <time>2024-08-13T11:12:34Z</time>
      </trkpt>
      <trkpt lat="44.84082" lon="6.143">
        <ele>1726.8</ele>
        <time>2024-08-13T11:12:35Z</time>
      </trkpt>
      <trkpt lat="44.84085" lon="6.14299">
        <ele>1727.4</ele>
        <time>2024-08-13T11:12:36Z</time>
      </trkpt>
      <trkpt lat="44.84085" lon="6.14299">
        <ele>1727.4</ele>
        <time>2024-08-13T11:12:37Z</time>
      </trkpt>
      <trkpt lat="44.84085" lon="6.14299">
        <ele>1727.6</ele>
        <time>2024-08-13T11:12:38Z</time>
      </trkpt>
      <trkpt lat="44.84085" lon="6.14299">
        <ele>1727.8</ele>
        <time>2024-08-13T11:12:39Z</time>
      </trkpt>
      <trkpt lat="44.84086" lon="6.14297">
        <ele>1728</ele>
        <time>2024-08-13T11:12:40Z</time>
      </trkpt>
      <trkpt lat="44.84086" lon="6.14297">
        <ele>1728</ele>
        <time>2024-08-13T11:12:41Z</time>
      </trkpt>
      <trkpt lat="44.84088" lon="6.14298">
        <ele>1728.4</ele>
        <time>2024-08-13T11:12:42Z</time>
      </trkpt>
      <trkpt lat="44.84088" lon="6.14298">
        <ele>1728.8</ele>
        <time>2024-08-13T11:12:43Z</time>
      </trkpt>
      <trkpt lat="44.8409" lon="6.14301">
        <ele>1729</ele>
        <time>2024-08-13T11:12:44Z</time>
      </trkpt>
      <trkpt lat="44.8409" lon="6.14301">
        <ele>1729.4</ele>
        <time>2024-08-13T11:12:45Z</time>
      </trkpt>
      <trkpt lat="44.8409" lon="6.14301">
        <ele>1729.4</ele>
        <time>2024-08-13T11:12:46Z</time>
      </trkpt>
      <trkpt lat="44.8409" lon="6.14301">
        <ele>1729.4</ele>
        <time>2024-08-13T11:12:47Z</time>
      </trkpt>
      <trkpt lat="44.84089" lon="6.14304">
        <ele>1729.4</ele>
        <time>2024-08-13T11:12:48Z</time>
      </trkpt>
      <trkpt lat="44.84089" lon="6.14304">
        <ele>1729.4</ele>
        <time>2024-08-13T11:12:49Z</time>
      </trkpt>
      <trkpt lat="44.84089" lon="6.14304">
        <ele>1729.4</ele>
        <time>2024-08-13T11:12:50Z</time>
      </trkpt>
      <trkpt lat="44.84089" lon="6.14304">
        <ele>1729.6</ele>
        <time>2024-08-13T11:12:51Z</time>
      </trkpt>
      <trkpt lat="44.84088" lon="6.14307">
        <ele>1730.2</ele>
        <time>2024-08-13T11:12:52Z</time>
      </trkpt>
      <trkpt lat="44.84088" lon="6.14307">
        <ele>1730.2</ele>
        <time>2024-08-13T11:12:53Z</time>
      </trkpt>
      <trkpt lat="44.84088" lon="6.14307">
        <ele>1730.4</ele>
        <time>2024-08-13T11:12:54Z</time>
      </trkpt>
      <trkpt lat="44.84088" lon="6.14307">
        <ele>1730.8</ele>
        <time>2024-08-13T11:12:55Z</time>
      </trkpt>
      <trkpt lat="44.84086" lon="6.14309">
        <ele>1730.8</ele>
        <time>2024-08-13T11:12:56Z</time>
      </trkpt>
      <trkpt lat="44.84086" lon="6.14309">
        <ele>1730.8</ele>
        <time>2024-08-13T11:12:57Z</time>
      </trkpt>
      <trkpt lat="44.84085" lon="6.14311">
        <ele>1731.4</ele>
        <time>2024-08-13T11:12:58Z</time>
      </trkpt>
      <trkpt lat="44.84085" lon="6.14311">
        <ele>1731.4</ele>
        <time>2024-08-13T11:12:59Z</time>
      </trkpt>
      <trkpt lat="44.84083" lon="6.14314">
        <ele>1731.4</ele>
        <time>2024-08-13T11:13:00Z</time>
      </trkpt>
      <trkpt lat="44.84083" lon="6.14314">
        <ele>1731.6</ele>
        <time>2024-08-13T11:13:01Z</time>
      </trkpt>
      <trkpt lat="44.84081" lon="6.14316">
        <ele>1731.8</ele>
        <time>2024-08-13T11:13:02Z</time>
      </trkpt>
      <trkpt lat="44.84081" lon="6.14316">
        <ele>1731.8</ele>
        <time>2024-08-13T11:13:03Z</time>
      </trkpt>
      <trkpt lat="44.84079" lon="6.14316">
        <ele>1732</ele>
        <time>2024-08-13T11:13:04Z</time>
      </trkpt>
      <trkpt lat="44.84079" lon="6.14316">
        <ele>1732.4</ele>
        <time>2024-08-13T11:13:05Z</time>
      </trkpt>
      <trkpt lat="44.84077" lon="6.14317">
        <ele>1732.6</ele>
        <time>2024-08-13T11:13:06Z</time>
      </trkpt>
      <trkpt lat="44.84075" lon="6.14319">
        <ele>1733.2</ele>
        <time>2024-08-13T11:13:07Z</time>
      </trkpt>
      <trkpt lat="44.84075" lon="6.14319">
        <ele>1733.4</ele>
        <time>2024-08-13T11:13:08Z</time>
      </trkpt>
      <trkpt lat="44.84075" lon="6.14319">
        <ele>1733.4</ele>
        <time>2024-08-13T11:13:09Z</time>
      </trkpt>
      <trkpt lat="44.84075" lon="6.14319">
        <ele>1733.6</ele>
        <time>2024-08-13T11:13:10Z</time>
      </trkpt>
      <trkpt lat="44.84073" lon="6.14322">
        <ele>1733.6</ele>
        <time>2024-08-13T11:13:11Z</time>
      </trkpt>
      <trkpt lat="44.84073" lon="6.14322">
        <ele>1733.4</ele>
        <time>2024-08-13T11:13:12Z</time>
      </trkpt>
      <trkpt lat="44.84071" lon="6.14323">
        <ele>1733.4</ele>
        <time>2024-08-13T11:13:13Z</time>
      </trkpt>
      <trkpt lat="44.84071" lon="6.14323">
        <ele>1733.6</ele>
        <time>2024-08-13T11:13:14Z</time>
      </trkpt>
      <trkpt lat="44.84071" lon="6.14323">
        <ele>1734</ele>
        <time>2024-08-13T11:13:15Z</time>
      </trkpt>
      <trkpt lat="44.8407" lon="6.14326">
        <ele>1734.2</ele>
        <time>2024-08-13T11:13:16Z</time>
      </trkpt>
      <trkpt lat="44.8407" lon="6.14326">
        <ele>1734.4</ele>
        <time>2024-08-13T11:13:17Z</time>
      </trkpt>
      <trkpt lat="44.8407" lon="6.14326">
        <ele>1734.8</ele>
        <time>2024-08-13T11:13:18Z</time>
      </trkpt>
      <trkpt lat="44.8407" lon="6.14326">
        <ele>1735</ele>
        <time>2024-08-13T11:13:19Z</time>
      </trkpt>
      <trkpt lat="44.8407" lon="6.14329">
        <ele>1735</ele>
        <time>2024-08-13T11:13:20Z</time>
      </trkpt>
      <trkpt lat="44.8407" lon="6.14329">
        <ele>1735</ele>
        <time>2024-08-13T11:13:21Z</time>
      </trkpt>
      <trkpt lat="44.8407" lon="6.14329">
        <ele>1735.4</ele>
        <time>2024-08-13T11:13:22Z</time>
      </trkpt>
      <trkpt lat="44.8407" lon="6.14331">
        <ele>1735.4</ele>
        <time>2024-08-13T11:13:23Z</time>
      </trkpt>
      <trkpt lat="44.8407" lon="6.14331">
        <ele>1735.6</ele>
        <time>2024-08-13T11:13:24Z</time>
      </trkpt>
      <trkpt lat="44.8407" lon="6.14331">
        <ele>1735.6</ele>
        <time>2024-08-13T11:13:25Z</time>
      </trkpt>
      <trkpt lat="44.84071" lon="6.14335">
        <ele>1735.8</ele>
        <time>2024-08-13T11:13:26Z</time>
      </trkpt>
      <trkpt lat="44.84071" lon="6.14335">
        <ele>1735.8</ele>
        <time>2024-08-13T11:13:27Z</time>
      </trkpt>
      <trkpt lat="44.84071" lon="6.14335">
        <ele>1736</ele>
        <time>2024-08-13T11:13:28Z</time>
      </trkpt>
      <trkpt lat="44.84071" lon="6.14335">
        <ele>1736.4</ele>
        <time>2024-08-13T11:13:29Z</time>
      </trkpt>
      <trkpt lat="44.84071" lon="6.14335">
        <ele>1736.6</ele>
        <time>2024-08-13T11:13:30Z</time>
      </trkpt>
      <trkpt lat="44.84071" lon="6.14335">
        <ele>1736.8</ele>
        <time>2024-08-13T11:13:31Z</time>
      </trkpt>
      <trkpt lat="44.84071" lon="6.14335">
        <ele>1737</ele>
        <time>2024-08-13T11:13:32Z</time>
      </trkpt>
      <trkpt lat="44.84071" lon="6.14335">
        <ele>1737</ele>
        <time>2024-08-13T11:13:33Z</time>
      </trkpt>
      <trkpt lat="44.84071" lon="6.14335">
        <ele>1736.8</ele>
        <time>2024-08-13T11:13:34Z</time>
      </trkpt>
      <trkpt lat="44.84071" lon="6.14335">
        <ele>1736.8</ele>
        <time>2024-08-13T11:13:35Z</time>
      </trkpt>
      <trkpt lat="44.84071" lon="6.14335">
        <ele>1736.8</ele>
        <time>2024-08-13T11:13:36Z</time>
      </trkpt>
      <trkpt lat="44.84071" lon="6.14335">
        <ele>1736.8</ele>
        <time>2024-08-13T11:13:37Z</time>
      </trkpt>
      <trkpt lat="44.84071" lon="6.14335">
        <ele>1737.2</ele>
        <time>2024-08-13T11:13:38Z</time>
      </trkpt>
      <trkpt lat="44.84071" lon="6.14335">
        <ele>1737.2</ele>
        <time>2024-08-13T11:13:39Z</time>
      </trkpt>
      <trkpt lat="44.84073" lon="6.14335">
        <ele>1737.4</ele>
        <time>2024-08-13T11:13:40Z</time>
      </trkpt>
      <trkpt lat="44.84073" lon="6.14335">
        <ele>1737.6</ele>
        <time>2024-08-13T11:13:41Z</time>
      </trkpt>
      <trkpt lat="44.84073" lon="6.14335">
        <ele>1737.8</ele>
        <time>2024-08-13T11:13:42Z</time>
      </trkpt>
      <trkpt lat="44.84073" lon="6.14335">
        <ele>1737.8</ele>
        <time>2024-08-13T11:13:43Z</time>
      </trkpt>
      <trkpt lat="44.84073" lon="6.14335">
        <ele>1738</ele>
        <time>2024-08-13T11:13:44Z</time>
      </trkpt>
      <trkpt lat="44.84073" lon="6.14335">
        <ele>1738.6</ele>
        <time>2024-08-13T11:13:45Z</time>
      </trkpt>
      <trkpt lat="44.84073" lon="6.14332">
        <ele>1738.6</ele>
        <time>2024-08-13T11:13:46Z</time>
      </trkpt>
      <trkpt lat="44.84073" lon="6.14332">
        <ele>1738.6</ele>
        <time>2024-08-13T11:13:47Z</time>
      </trkpt>
      <trkpt lat="44.84076" lon="6.14329">
        <ele>1738.6</ele>
        <time>2024-08-13T11:13:48Z</time>
      </trkpt>
      <trkpt lat="44.84077" lon="6.14328">
        <ele>1738.8</ele>
        <time>2024-08-13T11:13:49Z</time>
      </trkpt>
      <trkpt lat="44.84077" lon="6.14328">
        <ele>1738.8</ele>
        <time>2024-08-13T11:13:50Z</time>
      </trkpt>
      <trkpt lat="44.8408" lon="6.14326">
        <ele>1739</ele>
        <time>2024-08-13T11:13:51Z</time>
      </trkpt>
      <trkpt lat="44.8408" lon="6.14326">
        <ele>1739</ele>
        <time>2024-08-13T11:13:52Z</time>
      </trkpt>
      <trkpt lat="44.84082" lon="6.14325">
        <ele>1739</ele>
        <time>2024-08-13T11:13:53Z</time>
      </trkpt>
      <trkpt lat="44.84082" lon="6.14325">
        <ele>1739</ele>
        <time>2024-08-13T11:13:54Z</time>
      </trkpt>
      <trkpt lat="44.84084" lon="6.14324">
        <ele>1739.2</ele>
        <time>2024-08-13T11:13:55Z</time>
      </trkpt>
      <trkpt lat="44.84084" lon="6.14324">
        <ele>1739.4</ele>
        <time>2024-08-13T11:13:56Z</time>
      </trkpt>
      <trkpt lat="44.84086" lon="6.14323">
        <ele>1739.4</ele>
        <time>2024-08-13T11:13:57Z</time>
      </trkpt>
      <trkpt lat="44.84086" lon="6.14323">
        <ele>1739.4</ele>
        <time>2024-08-13T11:13:58Z</time>
      </trkpt>
      <trkpt lat="44.84086" lon="6.14323">
        <ele>1739.4</ele>
        <time>2024-08-13T11:13:59Z</time>
      </trkpt>
      <trkpt lat="44.84088" lon="6.14322">
        <ele>1739.4</ele>
        <time>2024-08-13T11:14:00Z</time>
      </trkpt>
      <trkpt lat="44.84088" lon="6.14322">
        <ele>1739.4</ele>
        <time>2024-08-13T11:14:01Z</time>
      </trkpt>
      <trkpt lat="44.84088" lon="6.14322">
        <ele>1740</ele>
        <time>2024-08-13T11:14:02Z</time>
      </trkpt>
      <trkpt lat="44.8409" lon="6.14321">
        <ele>1740</ele>
        <time>2024-08-13T11:14:03Z</time>
      </trkpt>
      <trkpt lat="44.8409" lon="6.14321">
        <ele>1740.2</ele>
        <time>2024-08-13T11:14:04Z</time>
      </trkpt>
      <trkpt lat="44.84092" lon="6.14319">
        <ele>1740.4</ele>
        <time>2024-08-13T11:14:05Z</time>
      </trkpt>
      <trkpt lat="44.84092" lon="6.14319">
        <ele>1740.6</ele>
        <time>2024-08-13T11:14:06Z</time>
      </trkpt>
      <trkpt lat="44.84093" lon="6.14318">
        <ele>1740.8</ele>
        <time>2024-08-13T11:14:07Z</time>
      </trkpt>
      <trkpt lat="44.84093" lon="6.14318">
        <ele>1740.8</ele>
        <time>2024-08-13T11:14:08Z</time>
      </trkpt>
      <trkpt lat="44.84095" lon="6.14317">
        <ele>1741.2</ele>
        <time>2024-08-13T11:14:09Z</time>
      </trkpt>
      <trkpt lat="44.84095" lon="6.14317">
        <ele>1741.2</ele>
        <time>2024-08-13T11:14:10Z</time>
      </trkpt>
      <trkpt lat="44.84097" lon="6.14317">
        <ele>1741.4</ele>
        <time>2024-08-13T11:14:11Z</time>
      </trkpt>
      <trkpt lat="44.84097" lon="6.14317">
        <ele>1741.4</ele>
        <time>2024-08-13T11:14:12Z</time>
      </trkpt>
      <trkpt lat="44.84097" lon="6.14317">
        <ele>1741.4</ele>
        <time>2024-08-13T11:14:13Z</time>
      </trkpt>
      <trkpt lat="44.84099" lon="6.14318">
        <ele>1741.6</ele>
        <time>2024-08-13T11:14:14Z</time>
      </trkpt>
      <trkpt lat="44.84099" lon="6.14318">
        <ele>1741.6</ele>
        <time>2024-08-13T11:14:15Z</time>
      </trkpt>
      <trkpt lat="44.84101" lon="6.14319">
        <ele>1742</ele>
        <time>2024-08-13T11:14:16Z</time>
      </trkpt>
      <trkpt lat="44.84101" lon="6.14319">
        <ele>1742</ele>
        <time>2024-08-13T11:14:17Z</time>
      </trkpt>
      <trkpt lat="44.84103" lon="6.14321">
        <ele>1742.4</ele>
        <time>2024-08-13T11:14:18Z</time>
      </trkpt>
      <trkpt lat="44.84103" lon="6.14321">
        <ele>1742.6</ele>
        <time>2024-08-13T11:14:19Z</time>
      </trkpt>
      <trkpt lat="44.84103" lon="6.14321">
        <ele>1742.8</ele>
        <time>2024-08-13T11:14:20Z</time>
      </trkpt>
      <trkpt lat="44.84105" lon="6.14322">
        <ele>1743.2</ele>
        <time>2024-08-13T11:14:21Z</time>
      </trkpt>
      <trkpt lat="44.84105" lon="6.14322">
        <ele>1743.4</ele>
        <time>2024-08-13T11:14:22Z</time>
      </trkpt>
      <trkpt lat="44.84107" lon="6.14323">
        <ele>1743.4</ele>
        <time>2024-08-13T11:14:23Z</time>
      </trkpt>
      <trkpt lat="44.84107" lon="6.14323">
        <ele>1743.4</ele>
        <time>2024-08-13T11:14:24Z</time>
      </trkpt>
      <trkpt lat="44.84107" lon="6.14323">
        <ele>1743.6</ele>
        <time>2024-08-13T11:14:25Z</time>
      </trkpt>
      <trkpt lat="44.84107" lon="6.14323">
        <ele>1743.8</ele>
        <time>2024-08-13T11:14:26Z</time>
      </trkpt>
      <trkpt lat="44.84109" lon="6.14325">
        <ele>1744.2</ele>
        <time>2024-08-13T11:14:27Z</time>
      </trkpt>
      <trkpt lat="44.84109" lon="6.14325">
        <ele>1744.4</ele>
        <time>2024-08-13T11:14:28Z</time>
      </trkpt>
      <trkpt lat="44.84109" lon="6.14325">
        <ele>1744.6</ele>
        <time>2024-08-13T11:14:29Z</time>
      </trkpt>
      <trkpt lat="44.84109" lon="6.14325">
        <ele>1744.8</ele>
        <time>2024-08-13T11:14:30Z</time>
      </trkpt>
      <trkpt lat="44.84109" lon="6.14325">
        <ele>1744.8</ele>
        <time>2024-08-13T11:14:31Z</time>
      </trkpt>
      <trkpt lat="44.84109" lon="6.14325">
        <ele>1745.4</ele>
        <time>2024-08-13T11:14:32Z</time>
      </trkpt>
      <trkpt lat="44.84111" lon="6.14327">
        <ele>1745.8</ele>
        <time>2024-08-13T11:14:33Z</time>
      </trkpt>
      <trkpt lat="44.84111" lon="6.14327">
        <ele>1745.8</ele>
        <time>2024-08-13T11:14:34Z</time>
      </trkpt>
      <trkpt lat="44.84111" lon="6.14327">
        <ele>1745.8</ele>
        <time>2024-08-13T11:14:35Z</time>
      </trkpt>
      <trkpt lat="44.84113" lon="6.14328">
        <ele>1745.8</ele>
        <time>2024-08-13T11:14:36Z</time>
      </trkpt>
      <trkpt lat="44.84113" lon="6.14328">
        <ele>1746</ele>
        <time>2024-08-13T11:14:37Z</time>
      </trkpt>
      <trkpt lat="44.84113" lon="6.14328">
        <ele>1746.4</ele>
        <time>2024-08-13T11:14:38Z</time>
      </trkpt>
      <trkpt lat="44.84114" lon="6.14331">
        <ele>1746.4</ele>
        <time>2024-08-13T11:14:39Z</time>
      </trkpt>
      <trkpt lat="44.84114" lon="6.14331">
        <ele>1746.8</ele>
        <time>2024-08-13T11:14:40Z</time>
      </trkpt>
      <trkpt lat="44.84114" lon="6.14331">
        <ele>1746.8</ele>
        <time>2024-08-13T11:14:41Z</time>
      </trkpt>
      <trkpt lat="44.84116" lon="6.14332">
        <ele>1746.8</ele>
        <time>2024-08-13T11:14:42Z</time>
      </trkpt>
      <trkpt lat="44.84116" lon="6.14332">
        <ele>1747.4</ele>
        <time>2024-08-13T11:14:43Z</time>
      </trkpt>
      <trkpt lat="44.84116" lon="6.14332">
        <ele>1747.4</ele>
        <time>2024-08-13T11:14:44Z</time>
      </trkpt>
      <trkpt lat="44.84117" lon="6.14334">
        <ele>1747.6</ele>
        <time>2024-08-13T11:14:45Z</time>
      </trkpt>
      <trkpt lat="44.84117" lon="6.14334">
        <ele>1748</ele>
        <time>2024-08-13T11:14:46Z</time>
      </trkpt>
      <trkpt lat="44.84117" lon="6.14334">
        <ele>1748.2</ele>
        <time>2024-08-13T11:14:47Z</time>
      </trkpt>
      <trkpt lat="44.84118" lon="6.14339">
        <ele>1748.6</ele>
        <time>2024-08-13T11:14:48Z</time>
      </trkpt>
      <trkpt lat="44.84119" lon="6.14341">
        <ele>1749.2</ele>
        <time>2024-08-13T11:14:49Z</time>
      </trkpt>
      <trkpt lat="44.84119" lon="6.14341">
        <ele>1749.2</ele>
        <time>2024-08-13T11:14:50Z</time>
      </trkpt>
      <trkpt lat="44.84121" lon="6.14343">
        <ele>1749.2</ele>
        <time>2024-08-13T11:14:51Z</time>
      </trkpt>
      <trkpt lat="44.84121" lon="6.14343">
        <ele>1749.2</ele>
        <time>2024-08-13T11:14:52Z</time>
      </trkpt>
      <trkpt lat="44.84122" lon="6.14345">
        <ele>1749.6</ele>
        <time>2024-08-13T11:14:53Z</time>
      </trkpt>
      <trkpt lat="44.84122" lon="6.14345">
        <ele>1749.6</ele>
        <time>2024-08-13T11:14:54Z</time>
      </trkpt>
      <trkpt lat="44.84124" lon="6.14347">
        <ele>1750</ele>
        <time>2024-08-13T11:14:55Z</time>
      </trkpt>
      <trkpt lat="44.84124" lon="6.14347">
        <ele>1750.2</ele>
        <time>2024-08-13T11:14:56Z</time>
      </trkpt>
      <trkpt lat="44.84124" lon="6.14347">
        <ele>1750.2</ele>
        <time>2024-08-13T11:14:57Z</time>
      </trkpt>
      <trkpt lat="44.84124" lon="6.14347">
        <ele>1750.6</ele>
        <time>2024-08-13T11:14:58Z</time>
      </trkpt>
      <trkpt lat="44.84124" lon="6.14347">
        <ele>1751</ele>
        <time>2024-08-13T11:14:59Z</time>
      </trkpt>
      <trkpt lat="44.84124" lon="6.14347">
        <ele>1751</ele>
        <time>2024-08-13T11:15:00Z</time>
      </trkpt>
      <trkpt lat="44.84124" lon="6.14347">
        <ele>1751.2</ele>
        <time>2024-08-13T11:15:01Z</time>
      </trkpt>
      <trkpt lat="44.84124" lon="6.14347">
        <ele>1751.4</ele>
        <time>2024-08-13T11:15:02Z</time>
      </trkpt>
      <trkpt lat="44.84124" lon="6.14347">
        <ele>1751.4</ele>
        <time>2024-08-13T11:15:03Z</time>
      </trkpt>
      <trkpt lat="44.84124" lon="6.14347">
        <ele>1751.2</ele>
        <time>2024-08-13T11:15:04Z</time>
      </trkpt>
      <trkpt lat="44.84124" lon="6.14347">
        <ele>1751.2</ele>
        <time>2024-08-13T11:15:05Z</time>
      </trkpt>
      <trkpt lat="44.84124" lon="6.14347">
        <ele>1751.2</ele>
        <time>2024-08-13T11:15:06Z</time>
      </trkpt>
      <trkpt lat="44.84124" lon="6.14347">
        <ele>1751.2</ele>
        <time>2024-08-13T11:15:07Z</time>
      </trkpt>
      <trkpt lat="44.84124" lon="6.14347">
        <ele>1751.2</ele>
        <time>2024-08-13T11:15:08Z</time>
      </trkpt>
      <trkpt lat="44.84124" lon="6.14347">
        <ele>1751.2</ele>
        <time>2024-08-13T11:15:09Z</time>
      </trkpt>
      <trkpt lat="44.84124" lon="6.14347">
        <ele>1751.2</ele>
        <time>2024-08-13T11:15:10Z</time>
      </trkpt>
      <trkpt lat="44.84124" lon="6.14347">
        <ele>1751.4</ele>
        <time>2024-08-13T11:15:11Z</time>
      </trkpt>
      <trkpt lat="44.84124" lon="6.14347">
        <ele>1751.4</ele>
        <time>2024-08-13T11:15:12Z</time>
      </trkpt>
      <trkpt lat="44.84124" lon="6.14347">
        <ele>1751.4</ele>
        <time>2024-08-13T11:15:13Z</time>
      </trkpt>
      <trkpt lat="44.84124" lon="6.14347">
        <ele>1751.2</ele>
        <time>2024-08-13T11:15:14Z</time>
      </trkpt>
      <trkpt lat="44.84124" lon="6.14347">
        <ele>1751</ele>
        <time>2024-08-13T11:15:15Z</time>
      </trkpt>
      <trkpt lat="44.84124" lon="6.14347">
        <ele>1751</ele>
        <time>2024-08-13T11:15:16Z</time>
      </trkpt>
      <trkpt lat="44.84124" lon="6.14347">
        <ele>1751</ele>
        <time>2024-08-13T11:15:17Z</time>
      </trkpt>
      <trkpt lat="44.84124" lon="6.14347">
        <ele>1751</ele>
        <time>2024-08-13T11:15:18Z</time>
      </trkpt>
      <trkpt lat="44.84124" lon="6.14347">
        <ele>1751.2</ele>
        <time>2024-08-13T11:15:19Z</time>
      </trkpt>
      <trkpt lat="44.84124" lon="6.14347">
        <ele>1751.4</ele>
        <time>2024-08-13T11:15:20Z</time>
      </trkpt>
      <trkpt lat="44.84124" lon="6.14347">
        <ele>1751.4</ele>
        <time>2024-08-13T11:15:21Z</time>
      </trkpt>
      <trkpt lat="44.84124" lon="6.14347">
        <ele>1751.4</ele>
        <time>2024-08-13T11:15:22Z</time>
      </trkpt>
      <trkpt lat="44.84124" lon="6.14347">
        <ele>1751.4</ele>
        <time>2024-08-13T11:15:23Z</time>
      </trkpt>
      <trkpt lat="44.84124" lon="6.14347">
        <ele>1751.4</ele>
        <time>2024-08-13T11:15:24Z</time>
      </trkpt>
      <trkpt lat="44.84124" lon="6.14347">
        <ele>1751.4</ele>
        <time>2024-08-13T11:15:25Z</time>
      </trkpt>
      <trkpt lat="44.84124" lon="6.14347">
        <ele>1751.4</ele>
        <time>2024-08-13T11:15:26Z</time>
      </trkpt>
      <trkpt lat="44.84125" lon="6.1435">
        <ele>1751.4</ele>
        <time>2024-08-13T11:15:27Z</time>
      </trkpt>
      <trkpt lat="44.84125" lon="6.1435">
        <ele>1751.6</ele>
        <time>2024-08-13T11:15:28Z</time>
      </trkpt>
      <trkpt lat="44.84125" lon="6.14354">
        <ele>1751.6</ele>
        <time>2024-08-13T11:15:29Z</time>
      </trkpt>
      <trkpt lat="44.84125" lon="6.14354">
        <ele>1752.4</ele>
        <time>2024-08-13T11:15:30Z</time>
      </trkpt>
      <trkpt lat="44.84126" lon="6.14358">
        <ele>1752.6</ele>
        <time>2024-08-13T11:15:31Z</time>
      </trkpt>
      <trkpt lat="44.84126" lon="6.14358">
        <ele>1752.8</ele>
        <time>2024-08-13T11:15:32Z</time>
      </trkpt>
      <trkpt lat="44.84126" lon="6.14358">
        <ele>1753</ele>
        <time>2024-08-13T11:15:33Z</time>
      </trkpt>
      <trkpt lat="44.84126" lon="6.14361">
        <ele>1753.2</ele>
        <time>2024-08-13T11:15:34Z</time>
      </trkpt>
      <trkpt lat="44.84126" lon="6.14361">
        <ele>1753.4</ele>
        <time>2024-08-13T11:15:35Z</time>
      </trkpt>
      <trkpt lat="44.84126" lon="6.14361">
        <ele>1753.6</ele>
        <time>2024-08-13T11:15:36Z</time>
      </trkpt>
      <trkpt lat="44.84126" lon="6.14361">
        <ele>1754</ele>
        <time>2024-08-13T11:15:37Z</time>
      </trkpt>
      <trkpt lat="44.84126" lon="6.14361">
        <ele>1754.2</ele>
        <time>2024-08-13T11:15:38Z</time>
      </trkpt>
      <trkpt lat="44.84126" lon="6.14364">
        <ele>1754.8</ele>
        <time>2024-08-13T11:15:39Z</time>
      </trkpt>
      <trkpt lat="44.84126" lon="6.14364">
        <ele>1754.8</ele>
        <time>2024-08-13T11:15:40Z</time>
      </trkpt>
      <trkpt lat="44.84126" lon="6.14364">
        <ele>1755.2</ele>
        <time>2024-08-13T11:15:41Z</time>
      </trkpt>
      <trkpt lat="44.84126" lon="6.14364">
        <ele>1755.6</ele>
        <time>2024-08-13T11:15:42Z</time>
      </trkpt>
      <trkpt lat="44.84129" lon="6.14365">
        <ele>1755.8</ele>
        <time>2024-08-13T11:15:43Z</time>
      </trkpt>
      <trkpt lat="44.84129" lon="6.14365">
        <ele>1756.2</ele>
        <time>2024-08-13T11:15:44Z</time>
      </trkpt>
      <trkpt lat="44.84131" lon="6.14365">
        <ele>1756.2</ele>
        <time>2024-08-13T11:15:45Z</time>
      </trkpt>
      <trkpt lat="44.84131" lon="6.14365">
        <ele>1756.6</ele>
        <time>2024-08-13T11:15:46Z</time>
      </trkpt>
      <trkpt lat="44.84133" lon="6.14366">
        <ele>1756.8</ele>
        <time>2024-08-13T11:15:47Z</time>
      </trkpt>
      <trkpt lat="44.84133" lon="6.14366">
        <ele>1757</ele>
        <time>2024-08-13T11:15:48Z</time>
      </trkpt>
      <trkpt lat="44.84133" lon="6.14366">
        <ele>1757.2</ele>
        <time>2024-08-13T11:15:49Z</time>
      </trkpt>
      <trkpt lat="44.84135" lon="6.14365">
        <ele>1757.4</ele>
        <time>2024-08-13T11:15:50Z</time>
      </trkpt>
      <trkpt lat="44.84135" lon="6.14365">
        <ele>1757.4</ele>
        <time>2024-08-13T11:15:51Z</time>
      </trkpt>
      <trkpt lat="44.84137" lon="6.14364">
        <ele>1757.4</ele>
        <time>2024-08-13T11:15:52Z</time>
      </trkpt>
      <trkpt lat="44.84137" lon="6.14364">
        <ele>1757.4</ele>
        <time>2024-08-13T11:15:53Z</time>
      </trkpt>
      <trkpt lat="44.84139" lon="6.14365">
        <ele>1757.4</ele>
        <time>2024-08-13T11:15:54Z</time>
      </trkpt>
      <trkpt lat="44.84141" lon="6.14366">
        <ele>1757.6</ele>
        <time>2024-08-13T11:15:55Z</time>
      </trkpt>
      <trkpt lat="44.84141" lon="6.14366">
        <ele>1757.6</ele>
        <time>2024-08-13T11:15:56Z</time>
      </trkpt>
      <trkpt lat="44.84143" lon="6.14368">
        <ele>1757.4</ele>
        <time>2024-08-13T11:15:57Z</time>
      </trkpt>
      <trkpt lat="44.84143" lon="6.14368">
        <ele>1757.4</ele>
        <time>2024-08-13T11:15:58Z</time>
      </trkpt>
      <trkpt lat="44.84143" lon="6.14368">
        <ele>1757.4</ele>
        <time>2024-08-13T11:15:59Z</time>
      </trkpt>
      <trkpt lat="44.84145" lon="6.1437">
        <ele>1757.4</ele>
        <time>2024-08-13T11:16:00Z</time>
      </trkpt>
      <trkpt lat="44.84145" lon="6.1437">
        <ele>1757.4</ele>
        <time>2024-08-13T11:16:01Z</time>
      </trkpt>
      <trkpt lat="44.84145" lon="6.1437">
        <ele>1757.8</ele>
        <time>2024-08-13T11:16:02Z</time>
      </trkpt>
      <trkpt lat="44.84147" lon="6.14372">
        <ele>1758</ele>
        <time>2024-08-13T11:16:03Z</time>
      </trkpt>
      <trkpt lat="44.84147" lon="6.14372">
        <ele>1758.2</ele>
        <time>2024-08-13T11:16:04Z</time>
      </trkpt>
      <trkpt lat="44.84147" lon="6.14372">
        <ele>1758.2</ele>
        <time>2024-08-13T11:16:05Z</time>
      </trkpt>
      <trkpt lat="44.84149" lon="6.14373">
        <ele>1758.4</ele>
        <time>2024-08-13T11:16:06Z</time>
      </trkpt>
      <trkpt lat="44.84149" lon="6.14373">
        <ele>1758.6</ele>
        <time>2024-08-13T11:16:07Z</time>
      </trkpt>
      <trkpt lat="44.8415" lon="6.14373">
        <ele>1759</ele>
        <time>2024-08-13T11:16:08Z</time>
      </trkpt>
      <trkpt lat="44.8415" lon="6.14373">
        <ele>1759</ele>
        <time>2024-08-13T11:16:09Z</time>
      </trkpt>
      <trkpt lat="44.8415" lon="6.14373">
        <ele>1759.2</ele>
        <time>2024-08-13T11:16:10Z</time>
      </trkpt>
      <trkpt lat="44.84153" lon="6.14372">
        <ele>1759.4</ele>
        <time>2024-08-13T11:16:11Z</time>
      </trkpt>
      <trkpt lat="44.84153" lon="6.14372">
        <ele>1759.4</ele>
        <time>2024-08-13T11:16:12Z</time>
      </trkpt>
      <trkpt lat="44.84155" lon="6.1437">
        <ele>1759.8</ele>
        <time>2024-08-13T11:16:13Z</time>
      </trkpt>
      <trkpt lat="44.84155" lon="6.1437">
        <ele>1760</ele>
        <time>2024-08-13T11:16:14Z</time>
      </trkpt>
      <trkpt lat="44.84156" lon="6.14366">
        <ele>1760.2</ele>
        <time>2024-08-13T11:16:15Z</time>
      </trkpt>
      <trkpt lat="44.84156" lon="6.14366">
        <ele>1760.4</ele>
        <time>2024-08-13T11:16:16Z</time>
      </trkpt>
      <trkpt lat="44.84157" lon="6.14363">
        <ele>1760.6</ele>
        <time>2024-08-13T11:16:17Z</time>
      </trkpt>
      <trkpt lat="44.84157" lon="6.14363">
        <ele>1760.8</ele>
        <time>2024-08-13T11:16:18Z</time>
      </trkpt>
      <trkpt lat="44.84158" lon="6.14361">
        <ele>1760.8</ele>
        <time>2024-08-13T11:16:19Z</time>
      </trkpt>
      <trkpt lat="44.84158" lon="6.14361">
        <ele>1760.6</ele>
        <time>2024-08-13T11:16:20Z</time>
      </trkpt>
      <trkpt lat="44.84159" lon="6.14358">
        <ele>1760.6</ele>
        <time>2024-08-13T11:16:21Z</time>
      </trkpt>
      <trkpt lat="44.84159" lon="6.14358">
        <ele>1760.4</ele>
        <time>2024-08-13T11:16:22Z</time>
      </trkpt>
      <trkpt lat="44.8416" lon="6.14356">
        <ele>1760.4</ele>
        <time>2024-08-13T11:16:23Z</time>
      </trkpt>
      <trkpt lat="44.8416" lon="6.14356">
        <ele>1760.4</ele>
        <time>2024-08-13T11:16:24Z</time>
      </trkpt>
      <trkpt lat="44.84162" lon="6.14353">
        <ele>1760.4</ele>
        <time>2024-08-13T11:16:25Z</time>
      </trkpt>
      <trkpt lat="44.84162" lon="6.14353">
        <ele>1760.2</ele>
        <time>2024-08-13T11:16:26Z</time>
      </trkpt>
      <trkpt lat="44.84163" lon="6.14351">
        <ele>1760.2</ele>
        <time>2024-08-13T11:16:27Z</time>
      </trkpt>
      <trkpt lat="44.84163" lon="6.14351">
        <ele>1760.2</ele>
        <time>2024-08-13T11:16:28Z</time>
      </trkpt>
      <trkpt lat="44.84165" lon="6.14349">
        <ele>1760.2</ele>
        <time>2024-08-13T11:16:29Z</time>
      </trkpt>
      <trkpt lat="44.84165" lon="6.14349">
        <ele>1760.6</ele>
        <time>2024-08-13T11:16:30Z</time>
      </trkpt>
      <trkpt lat="44.84165" lon="6.14349">
        <ele>1760.6</ele>
        <time>2024-08-13T11:16:31Z</time>
      </trkpt>
      <trkpt lat="44.84166" lon="6.14346">
        <ele>1760.2</ele>
        <time>2024-08-13T11:16:32Z</time>
      </trkpt>
      <trkpt lat="44.84166" lon="6.14346">
        <ele>1760.2</ele>
        <time>2024-08-13T11:16:33Z</time>
      </trkpt>
      <trkpt lat="44.84166" lon="6.14346">
        <ele>1760.2</ele>
        <time>2024-08-13T11:16:34Z</time>
      </trkpt>
      <trkpt lat="44.84166" lon="6.14346">
        <ele>1760.6</ele>
        <time>2024-08-13T11:16:35Z</time>
      </trkpt>
      <trkpt lat="44.84167" lon="6.14342">
        <ele>1760.8</ele>
        <time>2024-08-13T11:16:36Z</time>
      </trkpt>
      <trkpt lat="44.84167" lon="6.14342">
        <ele>1760.8</ele>
        <time>2024-08-13T11:16:37Z</time>
      </trkpt>
      <trkpt lat="44.84168" lon="6.14341">
        <ele>1760.8</ele>
        <time>2024-08-13T11:16:38Z</time>
      </trkpt>
      <trkpt lat="44.84168" lon="6.14341">
        <ele>1760.8</ele>
        <time>2024-08-13T11:16:39Z</time>
      </trkpt>
      <trkpt lat="44.84171" lon="6.14338">
        <ele>1761</ele>
        <time>2024-08-13T11:16:40Z</time>
      </trkpt>
      <trkpt lat="44.84171" lon="6.14338">
        <ele>1761</ele>
        <time>2024-08-13T11:16:41Z</time>
      </trkpt>
      <trkpt lat="44.84171" lon="6.14336">
        <ele>1760.8</ele>
        <time>2024-08-13T11:16:42Z</time>
      </trkpt>
      <trkpt lat="44.84171" lon="6.14336">
        <ele>1760.8</ele>
        <time>2024-08-13T11:16:43Z</time>
      </trkpt>
      <trkpt lat="44.84173" lon="6.14333">
        <ele>1761</ele>
        <time>2024-08-13T11:16:44Z</time>
      </trkpt>
      <trkpt lat="44.84173" lon="6.14333">
        <ele>1761</ele>
        <time>2024-08-13T11:16:45Z</time>
      </trkpt>
      <trkpt lat="44.84174" lon="6.14332">
        <ele>1761</ele>
        <time>2024-08-13T11:16:46Z</time>
      </trkpt>
      <trkpt lat="44.84174" lon="6.14332">
        <ele>1760.8</ele>
        <time>2024-08-13T11:16:47Z</time>
      </trkpt>
      <trkpt lat="44.84174" lon="6.14332">
        <ele>1760.8</ele>
        <time>2024-08-13T11:16:48Z</time>
      </trkpt>
      <trkpt lat="44.84176" lon="6.14329">
        <ele>1760.8</ele>
        <time>2024-08-13T11:16:49Z</time>
      </trkpt>
      <trkpt lat="44.84176" lon="6.14329">
        <ele>1761</ele>
        <time>2024-08-13T11:16:50Z</time>
      </trkpt>
      <trkpt lat="44.84176" lon="6.14329">
        <ele>1761.2</ele>
        <time>2024-08-13T11:16:51Z</time>
      </trkpt>
      <trkpt lat="44.84178" lon="6.14326">
        <ele>1761.2</ele>
        <time>2024-08-13T11:16:52Z</time>
      </trkpt>
      <trkpt lat="44.84178" lon="6.14326">
        <ele>1761.2</ele>
        <time>2024-08-13T11:16:53Z</time>
      </trkpt>
      <trkpt lat="44.84178" lon="6.14326">
        <ele>1761.6</ele>
        <time>2024-08-13T11:16:54Z</time>
      </trkpt>
      <trkpt lat="44.8418" lon="6.14323">
        <ele>1761.8</ele>
        <time>2024-08-13T11:16:55Z</time>
      </trkpt>
      <trkpt lat="44.8418" lon="6.14323">
        <ele>1762</ele>
        <time>2024-08-13T11:16:56Z</time>
      </trkpt>
      <trkpt lat="44.8418" lon="6.14323">
        <ele>1762.2</ele>
        <time>2024-08-13T11:16:57Z</time>
      </trkpt>
      <trkpt lat="44.84181" lon="6.1432">
        <ele>1762.2</ele>
        <time>2024-08-13T11:16:58Z</time>
      </trkpt>
      <trkpt lat="44.84181" lon="6.1432">
        <ele>1762.4</ele>
        <time>2024-08-13T11:16:59Z</time>
      </trkpt>
      <trkpt lat="44.84181" lon="6.1432">
        <ele>1762.8</ele>
        <time>2024-08-13T11:17:00Z</time>
      </trkpt>
      <trkpt lat="44.84183" lon="6.14318">
        <ele>1763</ele>
        <time>2024-08-13T11:17:01Z</time>
      </trkpt>
      <trkpt lat="44.84183" lon="6.14318">
        <ele>1763.2</ele>
        <time>2024-08-13T11:17:02Z</time>
      </trkpt>
      <trkpt lat="44.84183" lon="6.14318">
        <ele>1763.2</ele>
        <time>2024-08-13T11:17:03Z</time>
      </trkpt>
      <trkpt lat="44.84185" lon="6.14316">
        <ele>1763.2</ele>
        <time>2024-08-13T11:17:04Z</time>
      </trkpt>
      <trkpt lat="44.84185" lon="6.14316">
        <ele>1763.4</ele>
        <time>2024-08-13T11:17:05Z</time>
      </trkpt>
      <trkpt lat="44.84187" lon="6.14315">
        <ele>1763.8</ele>
        <time>2024-08-13T11:17:06Z</time>
      </trkpt>
      <trkpt lat="44.84187" lon="6.14315">
        <ele>1763.8</ele>
        <time>2024-08-13T11:17:07Z</time>
      </trkpt>
      <trkpt lat="44.84187" lon="6.14315">
        <ele>1763.4</ele>
        <time>2024-08-13T11:17:08Z</time>
      </trkpt>
      <trkpt lat="44.84189" lon="6.14312">
        <ele>1762.8</ele>
        <time>2024-08-13T11:17:09Z</time>
      </trkpt>
      <trkpt lat="44.84189" lon="6.14312">
        <ele>1762.8</ele>
        <time>2024-08-13T11:17:10Z</time>
      </trkpt>
      <trkpt lat="44.8419" lon="6.1431">
        <ele>1763</ele>
        <time>2024-08-13T11:17:11Z</time>
      </trkpt>
      <trkpt lat="44.8419" lon="6.1431">
        <ele>1763.2</ele>
        <time>2024-08-13T11:17:12Z</time>
      </trkpt>
      <trkpt lat="44.8419" lon="6.1431">
        <ele>1763.4</ele>
        <time>2024-08-13T11:17:13Z</time>
      </trkpt>
      <trkpt lat="44.8419" lon="6.1431">
        <ele>1763.6</ele>
        <time>2024-08-13T11:17:14Z</time>
      </trkpt>
      <trkpt lat="44.84191" lon="6.14308">
        <ele>1764.2</ele>
        <time>2024-08-13T11:17:15Z</time>
      </trkpt>
      <trkpt lat="44.84191" lon="6.14308">
        <ele>1764.6</ele>
        <time>2024-08-13T11:17:16Z</time>
      </trkpt>
      <trkpt lat="44.84191" lon="6.14308">
        <ele>1765.2</ele>
        <time>2024-08-13T11:17:17Z</time>
      </trkpt>
      <trkpt lat="44.84191" lon="6.14308">
        <ele>1765.8</ele>
        <time>2024-08-13T11:17:18Z</time>
      </trkpt>
      <trkpt lat="44.84191" lon="6.14308">
        <ele>1766.2</ele>
        <time>2024-08-13T11:17:19Z</time>
      </trkpt>
      <trkpt lat="44.84193" lon="6.14307">
        <ele>1766.4</ele>
        <time>2024-08-13T11:17:20Z</time>
      </trkpt>
      <trkpt lat="44.84193" lon="6.14307">
        <ele>1766.4</ele>
        <time>2024-08-13T11:17:21Z</time>
      </trkpt>
      <trkpt lat="44.84195" lon="6.14305">
        <ele>1766.6</ele>
        <time>2024-08-13T11:17:22Z</time>
      </trkpt>
      <trkpt lat="44.84195" lon="6.14305">
        <ele>1767.2</ele>
        <time>2024-08-13T11:17:23Z</time>
      </trkpt>
      <trkpt lat="44.84195" lon="6.14305">
        <ele>1767.6</ele>
        <time>2024-08-13T11:17:24Z</time>
      </trkpt>
      <trkpt lat="44.84195" lon="6.14302">
        <ele>1767.6</ele>
        <time>2024-08-13T11:17:25Z</time>
      </trkpt>
      <trkpt lat="44.84195" lon="6.14302">
        <ele>1767.4</ele>
        <time>2024-08-13T11:17:26Z</time>
      </trkpt>
      <trkpt lat="44.84197" lon="6.143">
        <ele>1767.4</ele>
        <time>2024-08-13T11:17:27Z</time>
      </trkpt>
      <trkpt lat="44.84197" lon="6.143">
        <ele>1767.6</ele>
        <time>2024-08-13T11:17:28Z</time>
      </trkpt>
      <trkpt lat="44.84197" lon="6.143">
        <ele>1768</ele>
        <time>2024-08-13T11:17:29Z</time>
      </trkpt>
      <trkpt lat="44.84198" lon="6.14297">
        <ele>1768.2</ele>
        <time>2024-08-13T11:17:30Z</time>
      </trkpt>
      <trkpt lat="44.84198" lon="6.14297">
        <ele>1768.2</ele>
        <time>2024-08-13T11:17:31Z</time>
      </trkpt>
      <trkpt lat="44.84199" lon="6.14295">
        <ele>1768.6</ele>
        <time>2024-08-13T11:17:32Z</time>
      </trkpt>
      <trkpt lat="44.84199" lon="6.14295">
        <ele>1768.6</ele>
        <time>2024-08-13T11:17:33Z</time>
      </trkpt>
      <trkpt lat="44.84199" lon="6.14295">
        <ele>1768.6</ele>
        <time>2024-08-13T11:17:34Z</time>
      </trkpt>
      <trkpt lat="44.84199" lon="6.14295">
        <ele>1768.6</ele>
        <time>2024-08-13T11:17:35Z</time>
      </trkpt>
      <trkpt lat="44.842" lon="6.14292">
        <ele>1768.6</ele>
        <time>2024-08-13T11:17:36Z</time>
      </trkpt>
      <trkpt lat="44.842" lon="6.14292">
        <ele>1768.8</ele>
        <time>2024-08-13T11:17:37Z</time>
      </trkpt>
      <trkpt lat="44.84201" lon="6.14289">
        <ele>1769</ele>
        <time>2024-08-13T11:17:38Z</time>
      </trkpt>
      <trkpt lat="44.84201" lon="6.14289">
        <ele>1769</ele>
        <time>2024-08-13T11:17:39Z</time>
      </trkpt>
      <trkpt lat="44.84202" lon="6.14287">
        <ele>1769</ele>
        <time>2024-08-13T11:17:40Z</time>
      </trkpt>
      <trkpt lat="44.84202" lon="6.14287">
        <ele>1769</ele>
        <time>2024-08-13T11:17:41Z</time>
      </trkpt>
      <trkpt lat="44.84202" lon="6.14287">
        <ele>1769</ele>
        <time>2024-08-13T11:17:42Z</time>
      </trkpt>
      <trkpt lat="44.84204" lon="6.14284">
        <ele>1769.4</ele>
        <time>2024-08-13T11:17:43Z</time>
      </trkpt>
      <trkpt lat="44.84204" lon="6.14284">
        <ele>1769.6</ele>
        <time>2024-08-13T11:17:44Z</time>
      </trkpt>
      <trkpt lat="44.84206" lon="6.14282">
        <ele>1770</ele>
        <time>2024-08-13T11:17:45Z</time>
      </trkpt>
      <trkpt lat="44.84206" lon="6.14282">
        <ele>1770.6</ele>
        <time>2024-08-13T11:17:46Z</time>
      </trkpt>
      <trkpt lat="44.84206" lon="6.14282">
        <ele>1770.6</ele>
        <time>2024-08-13T11:17:47Z</time>
      </trkpt>
      <trkpt lat="44.84208" lon="6.1428">
        <ele>1770.8</ele>
        <time>2024-08-13T11:17:48Z</time>
      </trkpt>
      <trkpt lat="44.84208" lon="6.1428">
        <ele>1771.2</ele>
        <time>2024-08-13T11:17:49Z</time>
      </trkpt>
      <trkpt lat="44.84208" lon="6.1428">
        <ele>1771.2</ele>
        <time>2024-08-13T11:17:50Z</time>
      </trkpt>
      <trkpt lat="44.8421" lon="6.14279">
        <ele>1771.2</ele>
        <time>2024-08-13T11:17:51Z</time>
      </trkpt>
      <trkpt lat="44.8421" lon="6.14279">
        <ele>1771.4</ele>
        <time>2024-08-13T11:17:52Z</time>
      </trkpt>
      <trkpt lat="44.84213" lon="6.14278">
        <ele>1772</ele>
        <time>2024-08-13T11:17:53Z</time>
      </trkpt>
      <trkpt lat="44.84213" lon="6.14278">
        <ele>1772.2</ele>
        <time>2024-08-13T11:17:54Z</time>
      </trkpt>
      <trkpt lat="44.84213" lon="6.14278">
        <ele>1772.2</ele>
        <time>2024-08-13T11:17:55Z</time>
      </trkpt>
      <trkpt lat="44.84213" lon="6.14282">
        <ele>1772.6</ele>
        <time>2024-08-13T11:17:56Z</time>
      </trkpt>
      <trkpt lat="44.84213" lon="6.14282">
        <ele>1772.8</ele>
        <time>2024-08-13T11:17:57Z</time>
      </trkpt>
      <trkpt lat="44.84213" lon="6.14285">
        <ele>1772.8</ele>
        <time>2024-08-13T11:17:58Z</time>
      </trkpt>
      <trkpt lat="44.84213" lon="6.14285">
        <ele>1773.4</ele>
        <time>2024-08-13T11:17:59Z</time>
      </trkpt>
      <trkpt lat="44.84214" lon="6.14288">
        <ele>1773.8</ele>
        <time>2024-08-13T11:18:00Z</time>
      </trkpt>
      <trkpt lat="44.84214" lon="6.14288">
        <ele>1774</ele>
        <time>2024-08-13T11:18:01Z</time>
      </trkpt>
      <trkpt lat="44.84214" lon="6.14288">
        <ele>1774.2</ele>
        <time>2024-08-13T11:18:02Z</time>
      </trkpt>
      <trkpt lat="44.84214" lon="6.14288">
        <ele>1774.2</ele>
        <time>2024-08-13T11:18:03Z</time>
      </trkpt>
      <trkpt lat="44.84213" lon="6.14291">
        <ele>1774.2</ele>
        <time>2024-08-13T11:18:04Z</time>
      </trkpt>
      <trkpt lat="44.84213" lon="6.14291">
        <ele>1774.4</ele>
        <time>2024-08-13T11:18:05Z</time>
      </trkpt>
      <trkpt lat="44.84213" lon="6.14291">
        <ele>1774.4</ele>
        <time>2024-08-13T11:18:06Z</time>
      </trkpt>
      <trkpt lat="44.84213" lon="6.14291">
        <ele>1774.8</ele>
        <time>2024-08-13T11:18:07Z</time>
      </trkpt>
      <trkpt lat="44.84213" lon="6.14291">
        <ele>1774.8</ele>
        <time>2024-08-13T11:18:08Z</time>
      </trkpt>
      <trkpt lat="44.84213" lon="6.14291">
        <ele>1774.8</ele>
        <time>2024-08-13T11:18:09Z</time>
      </trkpt>
      <trkpt lat="44.84213" lon="6.14291">
        <ele>1774.8</ele>
        <time>2024-08-13T11:18:10Z</time>
      </trkpt>
      <trkpt lat="44.84213" lon="6.14291">
        <ele>1774.8</ele>
        <time>2024-08-13T11:18:11Z</time>
      </trkpt>
      <trkpt lat="44.84214" lon="6.14293">
        <ele>1774.8</ele>
        <time>2024-08-13T11:18:12Z</time>
      </trkpt>
      <trkpt lat="44.84214" lon="6.14293">
        <ele>1774.8</ele>
        <time>2024-08-13T11:18:13Z</time>
      </trkpt>
      <trkpt lat="44.84214" lon="6.14293">
        <ele>1774.8</ele>
        <time>2024-08-13T11:18:14Z</time>
      </trkpt>
      <trkpt lat="44.84214" lon="6.14293">
        <ele>1775.2</ele>
        <time>2024-08-13T11:18:15Z</time>
      </trkpt>
      <trkpt lat="44.84214" lon="6.14293">
        <ele>1775.6</ele>
        <time>2024-08-13T11:18:16Z</time>
      </trkpt>
      <trkpt lat="44.84214" lon="6.14293">
        <ele>1775.6</ele>
        <time>2024-08-13T11:18:17Z</time>
      </trkpt>
      <trkpt lat="44.84214" lon="6.14293">
        <ele>1775.6</ele>
        <time>2024-08-13T11:18:18Z</time>
      </trkpt>
      <trkpt lat="44.84214" lon="6.14293">
        <ele>1775.6</ele>
        <time>2024-08-13T11:18:19Z</time>
      </trkpt>
      <trkpt lat="44.84214" lon="6.14293">
        <ele>1775.8</ele>
        <time>2024-08-13T11:18:20Z</time>
      </trkpt>
      <trkpt lat="44.84214" lon="6.14293">
        <ele>1776</ele>
        <time>2024-08-13T11:18:21Z</time>
      </trkpt>
      <trkpt lat="44.84216" lon="6.14292">
        <ele>1776.2</ele>
        <time>2024-08-13T11:18:22Z</time>
      </trkpt>
      <trkpt lat="44.84216" lon="6.14292">
        <ele>1776.6</ele>
        <time>2024-08-13T11:18:23Z</time>
      </trkpt>
      <trkpt lat="44.84216" lon="6.14292">
        <ele>1776.6</ele>
        <time>2024-08-13T11:18:24Z</time>
      </trkpt>
      <trkpt lat="44.84216" lon="6.14292">
        <ele>1776.6</ele>
        <time>2024-08-13T11:18:25Z</time>
      </trkpt>
      <trkpt lat="44.84216" lon="6.14292">
        <ele>1776.8</ele>
        <time>2024-08-13T11:18:26Z</time>
      </trkpt>
      <trkpt lat="44.84216" lon="6.14292">
        <ele>1776.8</ele>
        <time>2024-08-13T11:18:27Z</time>
      </trkpt>
      <trkpt lat="44.84216" lon="6.14292">
        <ele>1777.2</ele>
        <time>2024-08-13T11:18:28Z</time>
      </trkpt>
      <trkpt lat="44.84216" lon="6.14292">
        <ele>1777.2</ele>
        <time>2024-08-13T11:18:29Z</time>
      </trkpt>
      <trkpt lat="44.84216" lon="6.14292">
        <ele>1777.2</ele>
        <time>2024-08-13T11:18:30Z</time>
      </trkpt>
      <trkpt lat="44.84216" lon="6.14292">
        <ele>1777.2</ele>
        <time>2024-08-13T11:18:31Z</time>
      </trkpt>
      <trkpt lat="44.84216" lon="6.14292">
        <ele>1777.2</ele>
        <time>2024-08-13T11:18:32Z</time>
      </trkpt>
      <trkpt lat="44.84216" lon="6.14292">
        <ele>1777.2</ele>
        <time>2024-08-13T11:18:33Z</time>
      </trkpt>
      <trkpt lat="44.84216" lon="6.14292">
        <ele>1777.2</ele>
        <time>2024-08-13T11:18:34Z</time>
      </trkpt>
      <trkpt lat="44.84216" lon="6.14292">
        <ele>1777.2</ele>
        <time>2024-08-13T11:18:35Z</time>
      </trkpt>
      <trkpt lat="44.84216" lon="6.14292">
        <ele>1777.2</ele>
        <time>2024-08-13T11:18:36Z</time>
      </trkpt>
      <trkpt lat="44.84216" lon="6.14292">
        <ele>1777.2</ele>
        <time>2024-08-13T11:18:37Z</time>
      </trkpt>
      <trkpt lat="44.84216" lon="6.14292">
        <ele>1777.2</ele>
        <time>2024-08-13T11:18:38Z</time>
      </trkpt>
      <trkpt lat="44.84216" lon="6.14292">
        <ele>1777.2</ele>
        <time>2024-08-13T11:18:39Z</time>
      </trkpt>
      <trkpt lat="44.84216" lon="6.14292">
        <ele>1777.2</ele>
        <time>2024-08-13T11:18:40Z</time>
      </trkpt>
      <trkpt lat="44.84216" lon="6.14292">
        <ele>1777.2</ele>
        <time>2024-08-13T11:18:41Z</time>
      </trkpt>
      <trkpt lat="44.84216" lon="6.14292">
        <ele>1777.4</ele>
        <time>2024-08-13T11:18:42Z</time>
      </trkpt>
      <trkpt lat="44.84216" lon="6.14292">
        <ele>1777.2</ele>
        <time>2024-08-13T11:18:43Z</time>
      </trkpt>
      <trkpt lat="44.84216" lon="6.14292">
        <ele>1777</ele>
        <time>2024-08-13T11:18:44Z</time>
      </trkpt>
      <trkpt lat="44.84216" lon="6.14292">
        <ele>1777</ele>
        <time>2024-08-13T11:18:45Z</time>
      </trkpt>
      <trkpt lat="44.84216" lon="6.14292">
        <ele>1777</ele>
        <time>2024-08-13T11:18:46Z</time>
      </trkpt>
      <trkpt lat="44.84216" lon="6.14292">
        <ele>1777</ele>
        <time>2024-08-13T11:18:47Z</time>
      </trkpt>
      <trkpt lat="44.84216" lon="6.14292">
        <ele>1776.8</ele>
        <time>2024-08-13T11:18:48Z</time>
      </trkpt>
      <trkpt lat="44.84216" lon="6.14292">
        <ele>1776.8</ele>
        <time>2024-08-13T11:18:49Z</time>
      </trkpt>
      <trkpt lat="44.84216" lon="6.14292">
        <ele>1777</ele>
        <time>2024-08-13T11:18:50Z</time>
      </trkpt>
      <trkpt lat="44.84219" lon="6.14292">
        <ele>1777.2</ele>
        <time>2024-08-13T11:18:51Z</time>
      </trkpt>
      <trkpt lat="44.84221" lon="6.14293">
        <ele>1777.6</ele>
        <time>2024-08-13T11:18:52Z</time>
      </trkpt>
      <trkpt lat="44.84223" lon="6.14293">
        <ele>1777.6</ele>
        <time>2024-08-13T11:18:53Z</time>
      </trkpt>
      <trkpt lat="44.84223" lon="6.14293">
        <ele>1777.8</ele>
        <time>2024-08-13T11:18:54Z</time>
      </trkpt>
      <trkpt lat="44.84226" lon="6.14293">
        <ele>1778</ele>
        <time>2024-08-13T11:18:55Z</time>
      </trkpt>
      <trkpt lat="44.84226" lon="6.14293">
        <ele>1778.4</ele>
        <time>2024-08-13T11:18:56Z</time>
      </trkpt>
      <trkpt lat="44.84226" lon="6.14293">
        <ele>1778.6</ele>
        <time>2024-08-13T11:18:57Z</time>
      </trkpt>
      <trkpt lat="44.84228" lon="6.14293">
        <ele>1778.6</ele>
        <time>2024-08-13T11:18:58Z</time>
      </trkpt>
      <trkpt lat="44.84228" lon="6.14293">
        <ele>1779</ele>
        <time>2024-08-13T11:18:59Z</time>
      </trkpt>
      <trkpt lat="44.8423" lon="6.14293">
        <ele>1779.2</ele>
        <time>2024-08-13T11:19:00Z</time>
      </trkpt>
      <trkpt lat="44.8423" lon="6.14293">
        <ele>1779.2</ele>
        <time>2024-08-13T11:19:01Z</time>
      </trkpt>
      <trkpt lat="44.8423" lon="6.14293">
        <ele>1779.4</ele>
        <time>2024-08-13T11:19:02Z</time>
      </trkpt>
      <trkpt lat="44.8423" lon="6.14293">
        <ele>1779.4</ele>
        <time>2024-08-13T11:19:03Z</time>
      </trkpt>
      <trkpt lat="44.8423" lon="6.14293">
        <ele>1779.8</ele>
        <time>2024-08-13T11:19:04Z</time>
      </trkpt>
      <trkpt lat="44.8423" lon="6.14293">
        <ele>1780.4</ele>
        <time>2024-08-13T11:19:05Z</time>
      </trkpt>
      <trkpt lat="44.84232" lon="6.14294">
        <ele>1780.4</ele>
        <time>2024-08-13T11:19:06Z</time>
      </trkpt>
      <trkpt lat="44.84232" lon="6.14294">
        <ele>1780.6</ele>
        <time>2024-08-13T11:19:07Z</time>
      </trkpt>
      <trkpt lat="44.84232" lon="6.14294">
        <ele>1780.8</ele>
        <time>2024-08-13T11:19:08Z</time>
      </trkpt>
      <trkpt lat="44.84234" lon="6.14295">
        <ele>1780.8</ele>
        <time>2024-08-13T11:19:09Z</time>
      </trkpt>
      <trkpt lat="44.84234" lon="6.14295">
        <ele>1781</ele>
        <time>2024-08-13T11:19:10Z</time>
      </trkpt>
      <trkpt lat="44.84236" lon="6.14297">
        <ele>1781.2</ele>
        <time>2024-08-13T11:19:11Z</time>
      </trkpt>
      <trkpt lat="44.84236" lon="6.14297">
        <ele>1781.4</ele>
        <time>2024-08-13T11:19:12Z</time>
      </trkpt>
      <trkpt lat="44.84236" lon="6.14297">
        <ele>1782</ele>
        <time>2024-08-13T11:19:13Z</time>
      </trkpt>
      <trkpt lat="44.84237" lon="6.14298">
        <ele>1782</ele>
        <time>2024-08-13T11:19:14Z</time>
      </trkpt>
      <trkpt lat="44.84237" lon="6.14298">
        <ele>1782</ele>
        <time>2024-08-13T11:19:15Z</time>
      </trkpt>
      <trkpt lat="44.84237" lon="6.14298">
        <ele>1782</ele>
        <time>2024-08-13T11:19:16Z</time>
      </trkpt>
      <trkpt lat="44.84237" lon="6.14298">
        <ele>1782.4</ele>
        <time>2024-08-13T11:19:17Z</time>
      </trkpt>
      <trkpt lat="44.84237" lon="6.14298">
        <ele>1782.8</ele>
        <time>2024-08-13T11:19:18Z</time>
      </trkpt>
      <trkpt lat="44.8424" lon="6.14298">
        <ele>1782.8</ele>
        <time>2024-08-13T11:19:19Z</time>
      </trkpt>
      <trkpt lat="44.8424" lon="6.14298">
        <ele>1782.8</ele>
        <time>2024-08-13T11:19:20Z</time>
      </trkpt>
      <trkpt lat="44.8424" lon="6.14298">
        <ele>1783.2</ele>
        <time>2024-08-13T11:19:21Z</time>
      </trkpt>
      <trkpt lat="44.84242" lon="6.14297">
        <ele>1783.4</ele>
        <time>2024-08-13T11:19:22Z</time>
      </trkpt>
      <trkpt lat="44.84242" lon="6.14297">
        <ele>1783.4</ele>
        <time>2024-08-13T11:19:23Z</time>
      </trkpt>
      <trkpt lat="44.84242" lon="6.14297">
        <ele>1783.4</ele>
        <time>2024-08-13T11:19:24Z</time>
      </trkpt>
      <trkpt lat="44.84244" lon="6.14298">
        <ele>1783.6</ele>
        <time>2024-08-13T11:19:25Z</time>
      </trkpt>
      <trkpt lat="44.84244" lon="6.14298">
        <ele>1783.8</ele>
        <time>2024-08-13T11:19:26Z</time>
      </trkpt>
      <trkpt lat="44.84244" lon="6.14301">
        <ele>1784.6</ele>
        <time>2024-08-13T11:19:27Z</time>
      </trkpt>
      <trkpt lat="44.84244" lon="6.14301">
        <ele>1784.6</ele>
        <time>2024-08-13T11:19:28Z</time>
      </trkpt>
      <trkpt lat="44.84244" lon="6.14301">
        <ele>1784.6</ele>
        <time>2024-08-13T11:19:29Z</time>
      </trkpt>
      <trkpt lat="44.84243" lon="6.14303">
        <ele>1785</ele>
        <time>2024-08-13T11:19:30Z</time>
      </trkpt>
      <trkpt lat="44.84243" lon="6.14303">
        <ele>1785</ele>
        <time>2024-08-13T11:19:31Z</time>
      </trkpt>
      <trkpt lat="44.84243" lon="6.14303">
        <ele>1785</ele>
        <time>2024-08-13T11:19:32Z</time>
      </trkpt>
      <trkpt lat="44.84241" lon="6.14305">
        <ele>1785</ele>
        <time>2024-08-13T11:19:33Z</time>
      </trkpt>
      <trkpt lat="44.84241" lon="6.14305">
        <ele>1785.2</ele>
        <time>2024-08-13T11:19:34Z</time>
      </trkpt>
      <trkpt lat="44.84241" lon="6.14305">
        <ele>1785.2</ele>
        <time>2024-08-13T11:19:35Z</time>
      </trkpt>
      <trkpt lat="44.84239" lon="6.14305">
        <ele>1785.4</ele>
        <time>2024-08-13T11:19:36Z</time>
      </trkpt>
      <trkpt lat="44.84239" lon="6.14305">
        <ele>1785.6</ele>
        <time>2024-08-13T11:19:37Z</time>
      </trkpt>
      <trkpt lat="44.84237" lon="6.14306">
        <ele>1785.8</ele>
        <time>2024-08-13T11:19:38Z</time>
      </trkpt>
      <trkpt lat="44.84237" lon="6.14306">
        <ele>1785.8</ele>
        <time>2024-08-13T11:19:39Z</time>
      </trkpt>
      <trkpt lat="44.84235" lon="6.14307">
        <ele>1785.8</ele>
        <time>2024-08-13T11:19:40Z</time>
      </trkpt>
      <trkpt lat="44.84235" lon="6.14307">
        <ele>1786</ele>
        <time>2024-08-13T11:19:41Z</time>
      </trkpt>
      <trkpt lat="44.84233" lon="6.14308">
        <ele>1786</ele>
        <time>2024-08-13T11:19:42Z</time>
      </trkpt>
      <trkpt lat="44.84233" lon="6.14308">
        <ele>1786.2</ele>
        <time>2024-08-13T11:19:43Z</time>
      </trkpt>
      <trkpt lat="44.84233" lon="6.14308">
        <ele>1786.2</ele>
        <time>2024-08-13T11:19:44Z</time>
      </trkpt>
      <trkpt lat="44.84231" lon="6.1431">
        <ele>1786.4</ele>
        <time>2024-08-13T11:19:45Z</time>
      </trkpt>
      <trkpt lat="44.84231" lon="6.1431">
        <ele>1787</ele>
        <time>2024-08-13T11:19:46Z</time>
      </trkpt>
      <trkpt lat="44.84231" lon="6.1431">
        <ele>1787</ele>
        <time>2024-08-13T11:19:47Z</time>
      </trkpt>
      <trkpt lat="44.84229" lon="6.14311">
        <ele>1787</ele>
        <time>2024-08-13T11:19:48Z</time>
      </trkpt>
      <trkpt lat="44.84229" lon="6.14311">
        <ele>1787.2</ele>
        <time>2024-08-13T11:19:49Z</time>
      </trkpt>
      <trkpt lat="44.84229" lon="6.14311">
        <ele>1787.2</ele>
        <time>2024-08-13T11:19:50Z</time>
      </trkpt>
      <trkpt lat="44.84227" lon="6.14313">
        <ele>1787.2</ele>
        <time>2024-08-13T11:19:51Z</time>
      </trkpt>
      <trkpt lat="44.84227" lon="6.14313">
        <ele>1787.2</ele>
        <time>2024-08-13T11:19:52Z</time>
      </trkpt>
      <trkpt lat="44.84226" lon="6.14316">
        <ele>1787.8</ele>
        <time>2024-08-13T11:19:53Z</time>
      </trkpt>
      <trkpt lat="44.84224" lon="6.14318">
        <ele>1787.8</ele>
        <time>2024-08-13T11:19:54Z</time>
      </trkpt>
      <trkpt lat="44.84224" lon="6.14318">
        <ele>1787.8</ele>
        <time>2024-08-13T11:19:55Z</time>
      </trkpt>
      <trkpt lat="44.84224" lon="6.14318">
        <ele>1787.8</ele>
        <time>2024-08-13T11:19:56Z</time>
      </trkpt>
      <trkpt lat="44.84223" lon="6.1432">
        <ele>1788</ele>
        <time>2024-08-13T11:19:57Z</time>
      </trkpt>
      <trkpt lat="44.84223" lon="6.1432">
        <ele>1788.4</ele>
        <time>2024-08-13T11:19:58Z</time>
      </trkpt>
      <trkpt lat="44.84223" lon="6.1432">
        <ele>1788.4</ele>
        <time>2024-08-13T11:19:59Z</time>
      </trkpt>
      <trkpt lat="44.84223" lon="6.1432">
        <ele>1788.6</ele>
        <time>2024-08-13T11:20:00Z</time>
      </trkpt>
      <trkpt lat="44.84224" lon="6.14322">
        <ele>1788.8</ele>
        <time>2024-08-13T11:20:01Z</time>
      </trkpt>
      <trkpt lat="44.84224" lon="6.14322">
        <ele>1789</ele>
        <time>2024-08-13T11:20:02Z</time>
      </trkpt>
      <trkpt lat="44.84223" lon="6.14324">
        <ele>1789.2</ele>
        <time>2024-08-13T11:20:03Z</time>
      </trkpt>
      <trkpt lat="44.84223" lon="6.14324">
        <ele>1789.4</ele>
        <time>2024-08-13T11:20:04Z</time>
      </trkpt>
      <trkpt lat="44.84223" lon="6.14324">
        <ele>1789.6</ele>
        <time>2024-08-13T11:20:05Z</time>
      </trkpt>
      <trkpt lat="44.84223" lon="6.14328">
        <ele>1790</ele>
        <time>2024-08-13T11:20:06Z</time>
      </trkpt>
      <trkpt lat="44.84223" lon="6.14328">
        <ele>1791</ele>
        <time>2024-08-13T11:20:07Z</time>
      </trkpt>
      <trkpt lat="44.84222" lon="6.1433">
        <ele>1791</ele>
        <time>2024-08-13T11:20:08Z</time>
      </trkpt>
      <trkpt lat="44.84222" lon="6.1433">
        <ele>1791.2</ele>
        <time>2024-08-13T11:20:09Z</time>
      </trkpt>
      <trkpt lat="44.84222" lon="6.1433">
        <ele>1791.2</ele>
        <time>2024-08-13T11:20:10Z</time>
      </trkpt>
      <trkpt lat="44.84222" lon="6.1433">
        <ele>1791.2</ele>
        <time>2024-08-13T11:20:11Z</time>
      </trkpt>
      <trkpt lat="44.84222" lon="6.1433">
        <ele>1791.2</ele>
        <time>2024-08-13T11:20:12Z</time>
      </trkpt>
      <trkpt lat="44.84222" lon="6.1433">
        <ele>1791.4</ele>
        <time>2024-08-13T11:20:13Z</time>
      </trkpt>
      <trkpt lat="44.84222" lon="6.1433">
        <ele>1791.4</ele>
        <time>2024-08-13T11:20:14Z</time>
      </trkpt>
      <trkpt lat="44.84222" lon="6.1433">
        <ele>1791.4</ele>
        <time>2024-08-13T11:20:15Z</time>
      </trkpt>
      <trkpt lat="44.84222" lon="6.1433">
        <ele>1791.4</ele>
        <time>2024-08-13T11:20:16Z</time>
      </trkpt>
      <trkpt lat="44.84222" lon="6.1433">
        <ele>1791.4</ele>
        <time>2024-08-13T11:20:17Z</time>
      </trkpt>
      <trkpt lat="44.84222" lon="6.1433">
        <ele>1792</ele>
        <time>2024-08-13T11:20:18Z</time>
      </trkpt>
      <trkpt lat="44.84222" lon="6.1433">
        <ele>1792.4</ele>
        <time>2024-08-13T11:20:19Z</time>
      </trkpt>
      <trkpt lat="44.84222" lon="6.1433">
        <ele>1792.8</ele>
        <time>2024-08-13T11:20:20Z</time>
      </trkpt>
      <trkpt lat="44.84222" lon="6.1433">
        <ele>1793</ele>
        <time>2024-08-13T11:20:21Z</time>
      </trkpt>
      <trkpt lat="44.84222" lon="6.1433">
        <ele>1793</ele>
        <time>2024-08-13T11:20:22Z</time>
      </trkpt>
      <trkpt lat="44.84224" lon="6.14328">
        <ele>1793.2</ele>
        <time>2024-08-13T11:20:23Z</time>
      </trkpt>
      <trkpt lat="44.84224" lon="6.14328">
        <ele>1793.4</ele>
        <time>2024-08-13T11:20:24Z</time>
      </trkpt>
      <trkpt lat="44.84224" lon="6.14328">
        <ele>1793.4</ele>
        <time>2024-08-13T11:20:25Z</time>
      </trkpt>
      <trkpt lat="44.84224" lon="6.14328">
        <ele>1793.6</ele>
        <time>2024-08-13T11:20:26Z</time>
      </trkpt>
      <trkpt lat="44.84224" lon="6.14328">
        <ele>1793.8</ele>
        <time>2024-08-13T11:20:27Z</time>
      </trkpt>
      <trkpt lat="44.84224" lon="6.14328">
        <ele>1793.8</ele>
        <time>2024-08-13T11:20:28Z</time>
      </trkpt>
      <trkpt lat="44.84224" lon="6.14328">
        <ele>1794.2</ele>
        <time>2024-08-13T11:20:29Z</time>
      </trkpt>
      <trkpt lat="44.84226" lon="6.14326">
        <ele>1794.2</ele>
        <time>2024-08-13T11:20:30Z</time>
      </trkpt>
      <trkpt lat="44.84226" lon="6.14326">
        <ele>1794.4</ele>
        <time>2024-08-13T11:20:31Z</time>
      </trkpt>
      <trkpt lat="44.84229" lon="6.14325">
        <ele>1794.8</ele>
        <time>2024-08-13T11:20:32Z</time>
      </trkpt>
      <trkpt lat="44.84229" lon="6.14325">
        <ele>1795</ele>
        <time>2024-08-13T11:20:33Z</time>
      </trkpt>
      <trkpt lat="44.84229" lon="6.14325">
        <ele>1795.4</ele>
        <time>2024-08-13T11:20:34Z</time>
      </trkpt>
      <trkpt lat="44.84231" lon="6.14323">
        <ele>1795.4</ele>
        <time>2024-08-13T11:20:35Z</time>
      </trkpt>
      <trkpt lat="44.84231" lon="6.14323">
        <ele>1795.4</ele>
        <time>2024-08-13T11:20:36Z</time>
      </trkpt>
      <trkpt lat="44.84234" lon="6.14322">
        <ele>1795.6</ele>
        <time>2024-08-13T11:20:37Z</time>
      </trkpt>
      <trkpt lat="44.84234" lon="6.14322">
        <ele>1795.8</ele>
        <time>2024-08-13T11:20:38Z</time>
      </trkpt>
      <trkpt lat="44.84234" lon="6.14322">
        <ele>1795.8</ele>
        <time>2024-08-13T11:20:39Z</time>
      </trkpt>
      <trkpt lat="44.84235" lon="6.14325">
        <ele>1796</ele>
        <time>2024-08-13T11:20:40Z</time>
      </trkpt>
      <trkpt lat="44.84235" lon="6.14325">
        <ele>1796</ele>
        <time>2024-08-13T11:20:41Z</time>
      </trkpt>
      <trkpt lat="44.84235" lon="6.14325">
        <ele>1796.2</ele>
        <time>2024-08-13T11:20:42Z</time>
      </trkpt>
      <trkpt lat="44.84235" lon="6.14329">
        <ele>1796.4</ele>
        <time>2024-08-13T11:20:43Z</time>
      </trkpt>
      <trkpt lat="44.84235" lon="6.14329">
        <ele>1796.6</ele>
        <time>2024-08-13T11:20:44Z</time>
      </trkpt>
      <trkpt lat="44.84235" lon="6.14329">
        <ele>1797</ele>
        <time>2024-08-13T11:20:45Z</time>
      </trkpt>
      <trkpt lat="44.84234" lon="6.14333">
        <ele>1797</ele>
        <time>2024-08-13T11:20:46Z</time>
      </trkpt>
      <trkpt lat="44.84234" lon="6.14333">
        <ele>1797.4</ele>
        <time>2024-08-13T11:20:47Z</time>
      </trkpt>
      <trkpt lat="44.84234" lon="6.14333">
        <ele>1797.6</ele>
        <time>2024-08-13T11:20:48Z</time>
      </trkpt>
      <trkpt lat="44.84234" lon="6.14333">
        <ele>1797.6</ele>
        <time>2024-08-13T11:20:49Z</time>
      </trkpt>
      <trkpt lat="44.84234" lon="6.14333">
        <ele>1798</ele>
        <time>2024-08-13T11:20:50Z</time>
      </trkpt>
      <trkpt lat="44.84234" lon="6.14333">
        <ele>1798.2</ele>
        <time>2024-08-13T11:20:51Z</time>
      </trkpt>
      <trkpt lat="44.84234" lon="6.14333">
        <ele>1798.4</ele>
        <time>2024-08-13T11:20:52Z</time>
      </trkpt>
      <trkpt lat="44.84234" lon="6.14333">
        <ele>1798.6</ele>
        <time>2024-08-13T11:20:53Z</time>
      </trkpt>
      <trkpt lat="44.84234" lon="6.14333">
        <ele>1798.6</ele>
        <time>2024-08-13T11:20:54Z</time>
      </trkpt>
      <trkpt lat="44.84236" lon="6.14334">
        <ele>1798.6</ele>
        <time>2024-08-13T11:20:55Z</time>
      </trkpt>
      <trkpt lat="44.84236" lon="6.14334">
        <ele>1798.8</ele>
        <time>2024-08-13T11:20:56Z</time>
      </trkpt>
      <trkpt lat="44.84236" lon="6.14334">
        <ele>1799.2</ele>
        <time>2024-08-13T11:20:57Z</time>
      </trkpt>
      <trkpt lat="44.84238" lon="6.14332">
        <ele>1799.4</ele>
        <time>2024-08-13T11:20:58Z</time>
      </trkpt>
      <trkpt lat="44.84238" lon="6.14332">
        <ele>1799.6</ele>
        <time>2024-08-13T11:20:59Z</time>
      </trkpt>
      <trkpt lat="44.84238" lon="6.14332">
        <ele>1799.8</ele>
        <time>2024-08-13T11:21:00Z</time>
      </trkpt>
      <trkpt lat="44.84238" lon="6.14332">
        <ele>1799.8</ele>
        <time>2024-08-13T11:21:01Z</time>
      </trkpt>
      <trkpt lat="44.84238" lon="6.14332">
        <ele>1800.2</ele>
        <time>2024-08-13T11:21:02Z</time>
      </trkpt>
      <trkpt lat="44.84238" lon="6.14332">
        <ele>1800.2</ele>
        <time>2024-08-13T11:21:03Z</time>
      </trkpt>
      <trkpt lat="44.84238" lon="6.14332">
        <ele>1800.2</ele>
        <time>2024-08-13T11:21:04Z</time>
      </trkpt>
      <trkpt lat="44.8424" lon="6.14332">
        <ele>1800.6</ele>
        <time>2024-08-13T11:21:05Z</time>
      </trkpt>
      <trkpt lat="44.8424" lon="6.14332">
        <ele>1800.6</ele>
        <time>2024-08-13T11:21:06Z</time>
      </trkpt>
      <trkpt lat="44.84242" lon="6.14333">
        <ele>1800.8</ele>
        <time>2024-08-13T11:21:07Z</time>
      </trkpt>
      <trkpt lat="44.84242" lon="6.14333">
        <ele>1801</ele>
        <time>2024-08-13T11:21:08Z</time>
      </trkpt>
      <trkpt lat="44.84242" lon="6.14333">
        <ele>1801</ele>
        <time>2024-08-13T11:21:09Z</time>
      </trkpt>
      <trkpt lat="44.84242" lon="6.14333">
        <ele>1801.2</ele>
        <time>2024-08-13T11:21:10Z</time>
      </trkpt>
      <trkpt lat="44.84242" lon="6.14333">
        <ele>1801.4</ele>
        <time>2024-08-13T11:21:11Z</time>
      </trkpt>
      <trkpt lat="44.84242" lon="6.14333">
        <ele>1801.6</ele>
        <time>2024-08-13T11:21:12Z</time>
      </trkpt>
      <trkpt lat="44.84242" lon="6.14333">
        <ele>1801.6</ele>
        <time>2024-08-13T11:21:13Z</time>
      </trkpt>
      <trkpt lat="44.84242" lon="6.14333">
        <ele>1801.6</ele>
        <time>2024-08-13T11:21:14Z</time>
      </trkpt>
      <trkpt lat="44.84242" lon="6.14333">
        <ele>1801.4</ele>
        <time>2024-08-13T11:21:15Z</time>
      </trkpt>
      <trkpt lat="44.84242" lon="6.14333">
        <ele>1801.6</ele>
        <time>2024-08-13T11:21:16Z</time>
      </trkpt>
      <trkpt lat="44.84242" lon="6.14333">
        <ele>1801.6</ele>
        <time>2024-08-13T11:21:17Z</time>
      </trkpt>
      <trkpt lat="44.84242" lon="6.14333">
        <ele>1802</ele>
        <time>2024-08-13T11:21:18Z</time>
      </trkpt>
      <trkpt lat="44.84242" lon="6.14333">
        <ele>1802</ele>
        <time>2024-08-13T11:21:19Z</time>
      </trkpt>
      <trkpt lat="44.84242" lon="6.14333">
        <ele>1802</ele>
        <time>2024-08-13T11:21:20Z</time>
      </trkpt>
      <trkpt lat="44.84242" lon="6.14333">
        <ele>1802</ele>
        <time>2024-08-13T11:21:21Z</time>
      </trkpt>
      <trkpt lat="44.84242" lon="6.14333">
        <ele>1801.8</ele>
        <time>2024-08-13T11:21:22Z</time>
      </trkpt>
      <trkpt lat="44.84242" lon="6.14333">
        <ele>1801.6</ele>
        <time>2024-08-13T11:21:23Z</time>
      </trkpt>
      <trkpt lat="44.84242" lon="6.14333">
        <ele>1801.6</ele>
        <time>2024-08-13T11:21:24Z</time>
      </trkpt>
      <trkpt lat="44.84242" lon="6.14333">
        <ele>1801.6</ele>
        <time>2024-08-13T11:21:25Z</time>
      </trkpt>
      <trkpt lat="44.84242" lon="6.14333">
        <ele>1801.6</ele>
        <time>2024-08-13T11:21:26Z</time>
      </trkpt>
      <trkpt lat="44.84242" lon="6.14333">
        <ele>1801.6</ele>
        <time>2024-08-13T11:21:27Z</time>
      </trkpt>
      <trkpt lat="44.84244" lon="6.14333">
        <ele>1801.6</ele>
        <time>2024-08-13T11:21:28Z</time>
      </trkpt>
      <trkpt lat="44.84244" lon="6.14333">
        <ele>1801.6</ele>
        <time>2024-08-13T11:21:29Z</time>
      </trkpt>
      <trkpt lat="44.84244" lon="6.14333">
        <ele>1801.6</ele>
        <time>2024-08-13T11:21:30Z</time>
      </trkpt>
      <trkpt lat="44.84246" lon="6.14333">
        <ele>1802.2</ele>
        <time>2024-08-13T11:21:31Z</time>
      </trkpt>
      <trkpt lat="44.84246" lon="6.14333">
        <ele>1802.2</ele>
        <time>2024-08-13T11:21:32Z</time>
      </trkpt>
      <trkpt lat="44.84248" lon="6.14333">
        <ele>1802.2</ele>
        <time>2024-08-13T11:21:33Z</time>
      </trkpt>
      <trkpt lat="44.84248" lon="6.14333">
        <ele>1802.8</ele>
        <time>2024-08-13T11:21:34Z</time>
      </trkpt>
      <trkpt lat="44.8425" lon="6.14333">
        <ele>1803</ele>
        <time>2024-08-13T11:21:35Z</time>
      </trkpt>
      <trkpt lat="44.8425" lon="6.14333">
        <ele>1803</ele>
        <time>2024-08-13T11:21:36Z</time>
      </trkpt>
      <trkpt lat="44.8425" lon="6.14333">
        <ele>1803.2</ele>
        <time>2024-08-13T11:21:37Z</time>
      </trkpt>
      <trkpt lat="44.84253" lon="6.14333">
        <ele>1803.4</ele>
        <time>2024-08-13T11:21:38Z</time>
      </trkpt>
      <trkpt lat="44.84253" lon="6.14333">
        <ele>1803.6</ele>
        <time>2024-08-13T11:21:39Z</time>
      </trkpt>
      <trkpt lat="44.84256" lon="6.14334">
        <ele>1803.8</ele>
        <time>2024-08-13T11:21:40Z</time>
      </trkpt>
      <trkpt lat="44.84257" lon="6.14336">
        <ele>1803.8</ele>
        <time>2024-08-13T11:21:41Z</time>
      </trkpt>
      <trkpt lat="44.84257" lon="6.14336">
        <ele>1804</ele>
        <time>2024-08-13T11:21:42Z</time>
      </trkpt>
      <trkpt lat="44.84257" lon="6.14336">
        <ele>1804.2</ele>
        <time>2024-08-13T11:21:43Z</time>
      </trkpt>
      <trkpt lat="44.84257" lon="6.14336">
        <ele>1804.6</ele>
        <time>2024-08-13T11:21:44Z</time>
      </trkpt>
      <trkpt lat="44.84257" lon="6.14336">
        <ele>1805</ele>
        <time>2024-08-13T11:21:45Z</time>
      </trkpt>
      <trkpt lat="44.84256" lon="6.14338">
        <ele>1805</ele>
        <time>2024-08-13T11:21:46Z</time>
      </trkpt>
      <trkpt lat="44.84256" lon="6.14338">
        <ele>1805.4</ele>
        <time>2024-08-13T11:21:47Z</time>
      </trkpt>
      <trkpt lat="44.84256" lon="6.14338">
        <ele>1805.8</ele>
        <time>2024-08-13T11:21:48Z</time>
      </trkpt>
      <trkpt lat="44.84256" lon="6.14338">
        <ele>1805.8</ele>
        <time>2024-08-13T11:21:49Z</time>
      </trkpt>
      <trkpt lat="44.84253" lon="6.14339">
        <ele>1805.8</ele>
        <time>2024-08-13T11:21:50Z</time>
      </trkpt>
      <trkpt lat="44.84253" lon="6.14339">
        <ele>1805.8</ele>
        <time>2024-08-13T11:21:51Z</time>
      </trkpt>
      <trkpt lat="44.84253" lon="6.14339">
        <ele>1806</ele>
        <time>2024-08-13T11:21:52Z</time>
      </trkpt>
      <trkpt lat="44.84251" lon="6.1434">
        <ele>1806</ele>
        <time>2024-08-13T11:21:53Z</time>
      </trkpt>
      <trkpt lat="44.84251" lon="6.1434">
        <ele>1806</ele>
        <time>2024-08-13T11:21:54Z</time>
      </trkpt>
      <trkpt lat="44.84249" lon="6.1434">
        <ele>1806.2</ele>
        <time>2024-08-13T11:21:55Z</time>
      </trkpt>
      <trkpt lat="44.84249" lon="6.1434">
        <ele>1806.2</ele>
        <time>2024-08-13T11:21:56Z</time>
      </trkpt>
      <trkpt lat="44.84249" lon="6.1434">
        <ele>1806.4</ele>
        <time>2024-08-13T11:21:57Z</time>
      </trkpt>
      <trkpt lat="44.84249" lon="6.1434">
        <ele>1806.4</ele>
        <time>2024-08-13T11:21:58Z</time>
      </trkpt>
      <trkpt lat="44.84249" lon="6.1434">
        <ele>1806.8</ele>
        <time>2024-08-13T11:21:59Z</time>
      </trkpt>
      <trkpt lat="44.84249" lon="6.1434">
        <ele>1807</ele>
        <time>2024-08-13T11:22:00Z</time>
      </trkpt>
      <trkpt lat="44.84247" lon="6.14343">
        <ele>1807</ele>
        <time>2024-08-13T11:22:01Z</time>
      </trkpt>
      <trkpt lat="44.84247" lon="6.14343">
        <ele>1807.6</ele>
        <time>2024-08-13T11:22:02Z</time>
      </trkpt>
      <trkpt lat="44.84246" lon="6.14346">
        <ele>1807.6</ele>
        <time>2024-08-13T11:22:03Z</time>
      </trkpt>
      <trkpt lat="44.84246" lon="6.14346">
        <ele>1807.8</ele>
        <time>2024-08-13T11:22:04Z</time>
      </trkpt>
      <trkpt lat="44.84245" lon="6.14349">
        <ele>1808</ele>
        <time>2024-08-13T11:22:05Z</time>
      </trkpt>
      <trkpt lat="44.84245" lon="6.14349">
        <ele>1808</ele>
        <time>2024-08-13T11:22:06Z</time>
      </trkpt>
      <trkpt lat="44.84244" lon="6.14353">
        <ele>1808.4</ele>
        <time>2024-08-13T11:22:07Z</time>
      </trkpt>
      <trkpt lat="44.84244" lon="6.14353">
        <ele>1808.4</ele>
        <time>2024-08-13T11:22:08Z</time>
      </trkpt>
      <trkpt lat="44.84241" lon="6.14356">
        <ele>1808.6</ele>
        <time>2024-08-13T11:22:09Z</time>
      </trkpt>
      <trkpt lat="44.84241" lon="6.14356">
        <ele>1809</ele>
        <time>2024-08-13T11:22:10Z</time>
      </trkpt>
      <trkpt lat="44.84241" lon="6.14356">
        <ele>1809.2</ele>
        <time>2024-08-13T11:22:11Z</time>
      </trkpt>
      <trkpt lat="44.84239" lon="6.14359">
        <ele>1809.2</ele>
        <time>2024-08-13T11:22:12Z</time>
      </trkpt>
      <trkpt lat="44.84239" lon="6.14359">
        <ele>1809.2</ele>
        <time>2024-08-13T11:22:13Z</time>
      </trkpt>
      <trkpt lat="44.84239" lon="6.14359">
        <ele>1809.4</ele>
        <time>2024-08-13T11:22:14Z</time>
      </trkpt>
      <trkpt lat="44.84238" lon="6.14362">
        <ele>1809.4</ele>
        <time>2024-08-13T11:22:15Z</time>
      </trkpt>
      <trkpt lat="44.84238" lon="6.14362">
        <ele>1809.6</ele>
        <time>2024-08-13T11:22:16Z</time>
      </trkpt>
      <trkpt lat="44.84238" lon="6.14362">
        <ele>1809.8</ele>
        <time>2024-08-13T11:22:17Z</time>
      </trkpt>
      <trkpt lat="44.84236" lon="6.14365">
        <ele>1810</ele>
        <time>2024-08-13T11:22:18Z</time>
      </trkpt>
      <trkpt lat="44.84236" lon="6.14365">
        <ele>1810.4</ele>
        <time>2024-08-13T11:22:19Z</time>
      </trkpt>
      <trkpt lat="44.84236" lon="6.14365">
        <ele>1810.6</ele>
        <time>2024-08-13T11:22:20Z</time>
      </trkpt>
      <trkpt lat="44.84236" lon="6.14365">
        <ele>1810.6</ele>
        <time>2024-08-13T11:22:21Z</time>
      </trkpt>
      <trkpt lat="44.84236" lon="6.14365">
        <ele>1810.6</ele>
        <time>2024-08-13T11:22:22Z</time>
      </trkpt>
      <trkpt lat="44.84236" lon="6.14365">
        <ele>1810.8</ele>
        <time>2024-08-13T11:22:23Z</time>
      </trkpt>
      <trkpt lat="44.84238" lon="6.14365">
        <ele>1810.8</ele>
        <time>2024-08-13T11:22:24Z</time>
      </trkpt>
      <trkpt lat="44.84238" lon="6.14365">
        <ele>1811.2</ele>
        <time>2024-08-13T11:22:25Z</time>
      </trkpt>
      <trkpt lat="44.84238" lon="6.14365">
        <ele>1811.2</ele>
        <time>2024-08-13T11:22:26Z</time>
      </trkpt>
      <trkpt lat="44.84238" lon="6.14365">
        <ele>1811.4</ele>
        <time>2024-08-13T11:22:27Z</time>
      </trkpt>
      <trkpt lat="44.84238" lon="6.14365">
        <ele>1812.2</ele>
        <time>2024-08-13T11:22:28Z</time>
      </trkpt>
      <trkpt lat="44.8424" lon="6.14364">
        <ele>1812.4</ele>
        <time>2024-08-13T11:22:29Z</time>
      </trkpt>
      <trkpt lat="44.8424" lon="6.14364">
        <ele>1812.6</ele>
        <time>2024-08-13T11:22:30Z</time>
      </trkpt>
      <trkpt lat="44.8424" lon="6.14364">
        <ele>1812.8</ele>
        <time>2024-08-13T11:22:31Z</time>
      </trkpt>
      <trkpt lat="44.8424" lon="6.14364">
        <ele>1813</ele>
        <time>2024-08-13T11:22:32Z</time>
      </trkpt>
      <trkpt lat="44.8424" lon="6.14364">
        <ele>1813</ele>
        <time>2024-08-13T11:22:33Z</time>
      </trkpt>
      <trkpt lat="44.8424" lon="6.14364">
        <ele>1813</ele>
        <time>2024-08-13T11:22:34Z</time>
      </trkpt>
      <trkpt lat="44.8424" lon="6.14364">
        <ele>1813.4</ele>
        <time>2024-08-13T11:22:35Z</time>
      </trkpt>
      <trkpt lat="44.8424" lon="6.14364">
        <ele>1813.4</ele>
        <time>2024-08-13T11:22:36Z</time>
      </trkpt>
      <trkpt lat="44.8424" lon="6.14364">
        <ele>1813.6</ele>
        <time>2024-08-13T11:22:37Z</time>
      </trkpt>
      <trkpt lat="44.8424" lon="6.14364">
        <ele>1813.6</ele>
        <time>2024-08-13T11:22:38Z</time>
      </trkpt>
      <trkpt lat="44.84242" lon="6.14362">
        <ele>1814</ele>
        <time>2024-08-13T11:22:39Z</time>
      </trkpt>
      <trkpt lat="44.84242" lon="6.14362">
        <ele>1814</ele>
        <time>2024-08-13T11:22:40Z</time>
      </trkpt>
      <trkpt lat="44.84244" lon="6.1436">
        <ele>1814.2</ele>
        <time>2024-08-13T11:22:41Z</time>
      </trkpt>
      <trkpt lat="44.84245" lon="6.14358">
        <ele>1814.2</ele>
        <time>2024-08-13T11:22:42Z</time>
      </trkpt>
      <trkpt lat="44.84245" lon="6.14358">
        <ele>1814.8</ele>
        <time>2024-08-13T11:22:43Z</time>
      </trkpt>
      <trkpt lat="44.84248" lon="6.14356">
        <ele>1814.8</ele>
        <time>2024-08-13T11:22:44Z</time>
      </trkpt>
      <trkpt lat="44.84248" lon="6.14356">
        <ele>1814.8</ele>
        <time>2024-08-13T11:22:45Z</time>
      </trkpt>
      <trkpt lat="44.84248" lon="6.14356">
        <ele>1815</ele>
        <time>2024-08-13T11:22:46Z</time>
      </trkpt>
      <trkpt lat="44.8425" lon="6.14355">
        <ele>1815.2</ele>
        <time>2024-08-13T11:22:47Z</time>
      </trkpt>
      <trkpt lat="44.8425" lon="6.14355">
        <ele>1815.2</ele>
        <time>2024-08-13T11:22:48Z</time>
      </trkpt>
      <trkpt lat="44.8425" lon="6.14355">
        <ele>1815.2</ele>
        <time>2024-08-13T11:22:49Z</time>
      </trkpt>
      <trkpt lat="44.84252" lon="6.14355">
        <ele>1815.2</ele>
        <time>2024-08-13T11:22:50Z</time>
      </trkpt>
      <trkpt lat="44.84252" lon="6.14355">
        <ele>1815.2</ele>
        <time>2024-08-13T11:22:51Z</time>
      </trkpt>
      <trkpt lat="44.84252" lon="6.14355">
        <ele>1815.6</ele>
        <time>2024-08-13T11:22:52Z</time>
      </trkpt>
      <trkpt lat="44.84254" lon="6.14355">
        <ele>1815.8</ele>
        <time>2024-08-13T11:22:53Z</time>
      </trkpt>
      <trkpt lat="44.84254" lon="6.14355">
        <ele>1816.2</ele>
        <time>2024-08-13T11:22:54Z</time>
      </trkpt>
      <trkpt lat="44.84254" lon="6.14355">
        <ele>1816.6</ele>
        <time>2024-08-13T11:22:55Z</time>
      </trkpt>
      <trkpt lat="44.84257" lon="6.14355">
        <ele>1816.8</ele>
        <time>2024-08-13T11:22:56Z</time>
      </trkpt>
      <trkpt lat="44.84257" lon="6.14355">
        <ele>1816.8</ele>
        <time>2024-08-13T11:22:57Z</time>
      </trkpt>
      <trkpt lat="44.84257" lon="6.14355">
        <ele>1816.6</ele>
        <time>2024-08-13T11:22:58Z</time>
      </trkpt>
      <trkpt lat="44.84257" lon="6.14355">
        <ele>1816.6</ele>
        <time>2024-08-13T11:22:59Z</time>
      </trkpt>
      <trkpt lat="44.84257" lon="6.14355">
        <ele>1816.8</ele>
        <time>2024-08-13T11:23:00Z</time>
      </trkpt>
      <trkpt lat="44.8426" lon="6.14354">
        <ele>1817.2</ele>
        <time>2024-08-13T11:23:01Z</time>
      </trkpt>
      <trkpt lat="44.8426" lon="6.14354">
        <ele>1817.4</ele>
        <time>2024-08-13T11:23:02Z</time>
      </trkpt>
      <trkpt lat="44.8426" lon="6.14354">
        <ele>1817.4</ele>
        <time>2024-08-13T11:23:03Z</time>
      </trkpt>
      <trkpt lat="44.84263" lon="6.14355">
        <ele>1817.6</ele>
        <time>2024-08-13T11:23:04Z</time>
      </trkpt>
      <trkpt lat="44.84263" lon="6.14355">
        <ele>1818</ele>
        <time>2024-08-13T11:23:05Z</time>
      </trkpt>
      <trkpt lat="44.84263" lon="6.14355">
        <ele>1818</ele>
        <time>2024-08-13T11:23:06Z</time>
      </trkpt>
      <trkpt lat="44.84265" lon="6.14356">
        <ele>1818.2</ele>
        <time>2024-08-13T11:23:07Z</time>
      </trkpt>
      <trkpt lat="44.84265" lon="6.14356">
        <ele>1818.2</ele>
        <time>2024-08-13T11:23:08Z</time>
      </trkpt>
      <trkpt lat="44.84265" lon="6.14356">
        <ele>1818.2</ele>
        <time>2024-08-13T11:23:09Z</time>
      </trkpt>
      <trkpt lat="44.84268" lon="6.14356">
        <ele>1818.6</ele>
        <time>2024-08-13T11:23:10Z</time>
      </trkpt>
      <trkpt lat="44.84268" lon="6.14356">
        <ele>1818.6</ele>
        <time>2024-08-13T11:23:11Z</time>
      </trkpt>
      <trkpt lat="44.8427" lon="6.14356">
        <ele>1818.6</ele>
        <time>2024-08-13T11:23:12Z</time>
      </trkpt>
      <trkpt lat="44.8427" lon="6.14356">
        <ele>1818.6</ele>
        <time>2024-08-13T11:23:13Z</time>
      </trkpt>
      <trkpt lat="44.8427" lon="6.14356">
        <ele>1819</ele>
        <time>2024-08-13T11:23:14Z</time>
      </trkpt>
      <trkpt lat="44.84272" lon="6.14356">
        <ele>1819.2</ele>
        <time>2024-08-13T11:23:15Z</time>
      </trkpt>
      <trkpt lat="44.84272" lon="6.14356">
        <ele>1819.2</ele>
        <time>2024-08-13T11:23:16Z</time>
      </trkpt>
      <trkpt lat="44.84272" lon="6.14356">
        <ele>1819.4</ele>
        <time>2024-08-13T11:23:17Z</time>
      </trkpt>
      <trkpt lat="44.84275" lon="6.14356">
        <ele>1819.6</ele>
        <time>2024-08-13T11:23:18Z</time>
      </trkpt>
      <trkpt lat="44.84275" lon="6.14356">
        <ele>1820.4</ele>
        <time>2024-08-13T11:23:19Z</time>
      </trkpt>
      <trkpt lat="44.84275" lon="6.14356">
        <ele>1820.4</ele>
        <time>2024-08-13T11:23:20Z</time>
      </trkpt>
      <trkpt lat="44.84277" lon="6.14357">
        <ele>1820.4</ele>
        <time>2024-08-13T11:23:21Z</time>
      </trkpt>
      <trkpt lat="44.84277" lon="6.14357">
        <ele>1820.6</ele>
        <time>2024-08-13T11:23:22Z</time>
      </trkpt>
      <trkpt lat="44.84277" lon="6.14357">
        <ele>1820.6</ele>
        <time>2024-08-13T11:23:23Z</time>
      </trkpt>
      <trkpt lat="44.8428" lon="6.14357">
        <ele>1820.6</ele>
        <time>2024-08-13T11:23:24Z</time>
      </trkpt>
      <trkpt lat="44.8428" lon="6.14357">
        <ele>1821</ele>
        <time>2024-08-13T11:23:25Z</time>
      </trkpt>
      <trkpt lat="44.8428" lon="6.14357">
        <ele>1821</ele>
        <time>2024-08-13T11:23:26Z</time>
      </trkpt>
      <trkpt lat="44.84282" lon="6.14357">
        <ele>1821</ele>
        <time>2024-08-13T11:23:27Z</time>
      </trkpt>
      <trkpt lat="44.84282" lon="6.14357">
        <ele>1821</ele>
        <time>2024-08-13T11:23:28Z</time>
      </trkpt>
      <trkpt lat="44.84284" lon="6.14357">
        <ele>1821.4</ele>
        <time>2024-08-13T11:23:29Z</time>
      </trkpt>
      <trkpt lat="44.84284" lon="6.14357">
        <ele>1821.4</ele>
        <time>2024-08-13T11:23:30Z</time>
      </trkpt>
      <trkpt lat="44.84284" lon="6.14357">
        <ele>1821.4</ele>
        <time>2024-08-13T11:23:31Z</time>
      </trkpt>
      <trkpt lat="44.84286" lon="6.14357">
        <ele>1821.6</ele>
        <time>2024-08-13T11:23:32Z</time>
      </trkpt>
      <trkpt lat="44.84286" lon="6.14357">
        <ele>1821.6</ele>
        <time>2024-08-13T11:23:33Z</time>
      </trkpt>
      <trkpt lat="44.84286" lon="6.14357">
        <ele>1822</ele>
        <time>2024-08-13T11:23:34Z</time>
      </trkpt>
      <trkpt lat="44.84289" lon="6.14357">
        <ele>1822</ele>
        <time>2024-08-13T11:23:35Z</time>
      </trkpt>
      <trkpt lat="44.84289" lon="6.14357">
        <ele>1822.4</ele>
        <time>2024-08-13T11:23:36Z</time>
      </trkpt>
      <trkpt lat="44.84289" lon="6.14357">
        <ele>1822.6</ele>
        <time>2024-08-13T11:23:37Z</time>
      </trkpt>
      <trkpt lat="44.84291" lon="6.14355">
        <ele>1822.6</ele>
        <time>2024-08-13T11:23:38Z</time>
      </trkpt>
      <trkpt lat="44.84291" lon="6.14355">
        <ele>1822.6</ele>
        <time>2024-08-13T11:23:39Z</time>
      </trkpt>
      <trkpt lat="44.84291" lon="6.14355">
        <ele>1822.6</ele>
        <time>2024-08-13T11:23:40Z</time>
      </trkpt>
      <trkpt lat="44.84291" lon="6.14355">
        <ele>1823</ele>
        <time>2024-08-13T11:23:41Z</time>
      </trkpt>
      <trkpt lat="44.84291" lon="6.14355">
        <ele>1823.6</ele>
        <time>2024-08-13T11:23:42Z</time>
      </trkpt>
      <trkpt lat="44.84293" lon="6.14354">
        <ele>1823.6</ele>
        <time>2024-08-13T11:23:43Z</time>
      </trkpt>
      <trkpt lat="44.84293" lon="6.14354">
        <ele>1823.8</ele>
        <time>2024-08-13T11:23:44Z</time>
      </trkpt>
      <trkpt lat="44.84293" lon="6.14354">
        <ele>1824</ele>
        <time>2024-08-13T11:23:45Z</time>
      </trkpt>
      <trkpt lat="44.84295" lon="6.14353">
        <ele>1824</ele>
        <time>2024-08-13T11:23:46Z</time>
      </trkpt>
      <trkpt lat="44.84297" lon="6.14352">
        <ele>1824</ele>
        <time>2024-08-13T11:23:47Z</time>
      </trkpt>
      <trkpt lat="44.84297" lon="6.14352">
        <ele>1823.8</ele>
        <time>2024-08-13T11:23:48Z</time>
      </trkpt>
      <trkpt lat="44.84297" lon="6.14352">
        <ele>1824</ele>
        <time>2024-08-13T11:23:49Z</time>
      </trkpt>
      <trkpt lat="44.843" lon="6.14352">
        <ele>1824.2</ele>
        <time>2024-08-13T11:23:50Z</time>
      </trkpt>
      <trkpt lat="44.843" lon="6.14352">
        <ele>1824.4</ele>
        <time>2024-08-13T11:23:51Z</time>
      </trkpt>
      <trkpt lat="44.843" lon="6.14352">
        <ele>1824.4</ele>
        <time>2024-08-13T11:23:52Z</time>
      </trkpt>
      <trkpt lat="44.84301" lon="6.14352">
        <ele>1824.8</ele>
        <time>2024-08-13T11:23:53Z</time>
      </trkpt>
      <trkpt lat="44.84301" lon="6.14352">
        <ele>1825</ele>
        <time>2024-08-13T11:23:54Z</time>
      </trkpt>
      <trkpt lat="44.84301" lon="6.14352">
        <ele>1825.2</ele>
        <time>2024-08-13T11:23:55Z</time>
      </trkpt>
      <trkpt lat="44.84304" lon="6.14351">
        <ele>1825.6</ele>
        <time>2024-08-13T11:23:56Z</time>
      </trkpt>
      <trkpt lat="44.84304" lon="6.14351">
        <ele>1825.8</ele>
        <time>2024-08-13T11:23:57Z</time>
      </trkpt>
      <trkpt lat="44.84306" lon="6.14351">
        <ele>1825.8</ele>
        <time>2024-08-13T11:23:58Z</time>
      </trkpt>
      <trkpt lat="44.84306" lon="6.14351">
        <ele>1825.8</ele>
        <time>2024-08-13T11:23:59Z</time>
      </trkpt>
      <trkpt lat="44.84306" lon="6.14351">
        <ele>1826.2</ele>
        <time>2024-08-13T11:24:00Z</time>
      </trkpt>
      <trkpt lat="44.84307" lon="6.14354">
        <ele>1826.2</ele>
        <time>2024-08-13T11:24:01Z</time>
      </trkpt>
      <trkpt lat="44.84307" lon="6.14354">
        <ele>1826.2</ele>
        <time>2024-08-13T11:24:02Z</time>
      </trkpt>
      <trkpt lat="44.84306" lon="6.14356">
        <ele>1826.4</ele>
        <time>2024-08-13T11:24:03Z</time>
      </trkpt>
      <trkpt lat="44.84306" lon="6.14356">
        <ele>1827</ele>
        <time>2024-08-13T11:24:04Z</time>
      </trkpt>
      <trkpt lat="44.84306" lon="6.14356">
        <ele>1827.4</ele>
        <time>2024-08-13T11:24:05Z</time>
      </trkpt>
      <trkpt lat="44.84305" lon="6.14359">
        <ele>1827.6</ele>
        <time>2024-08-13T11:24:06Z</time>
      </trkpt>
      <trkpt lat="44.84304" lon="6.14361">
        <ele>1827.8</ele>
        <time>2024-08-13T11:24:07Z</time>
      </trkpt>
      <trkpt lat="44.84304" lon="6.14361">
        <ele>1828</ele>
        <time>2024-08-13T11:24:08Z</time>
      </trkpt>
      <trkpt lat="44.84304" lon="6.14361">
        <ele>1828.2</ele>
        <time>2024-08-13T11:24:09Z</time>
      </trkpt>
      <trkpt lat="44.84302" lon="6.14363">
        <ele>1828.4</ele>
        <time>2024-08-13T11:24:10Z</time>
      </trkpt>
      <trkpt lat="44.84302" lon="6.14363">
        <ele>1828.6</ele>
        <time>2024-08-13T11:24:11Z</time>
      </trkpt>
      <trkpt lat="44.84302" lon="6.14363">
        <ele>1828.6</ele>
        <time>2024-08-13T11:24:12Z</time>
      </trkpt>
      <trkpt lat="44.84301" lon="6.14365">
        <ele>1829</ele>
        <time>2024-08-13T11:24:13Z</time>
      </trkpt>
      <trkpt lat="44.84301" lon="6.14365">
        <ele>1829.2</ele>
        <time>2024-08-13T11:24:14Z</time>
      </trkpt>
      <trkpt lat="44.84301" lon="6.14365">
        <ele>1829.4</ele>
        <time>2024-08-13T11:24:15Z</time>
      </trkpt>
      <trkpt lat="44.84301" lon="6.14365">
        <ele>1829.4</ele>
        <time>2024-08-13T11:24:16Z</time>
      </trkpt>
      <trkpt lat="44.84301" lon="6.14365">
        <ele>1829.2</ele>
        <time>2024-08-13T11:24:17Z</time>
      </trkpt>
      <trkpt lat="44.84298" lon="6.14366">
        <ele>1829.2</ele>
        <time>2024-08-13T11:24:18Z</time>
      </trkpt>
      <trkpt lat="44.84297" lon="6.14368">
        <ele>1830</ele>
        <time>2024-08-13T11:24:19Z</time>
      </trkpt>
      <trkpt lat="44.84297" lon="6.14368">
        <ele>1830</ele>
        <time>2024-08-13T11:24:20Z</time>
      </trkpt>
      <trkpt lat="44.84295" lon="6.14371">
        <ele>1830.2</ele>
        <time>2024-08-13T11:24:21Z</time>
      </trkpt>
      <trkpt lat="44.84295" lon="6.14371">
        <ele>1830.6</ele>
        <time>2024-08-13T11:24:22Z</time>
      </trkpt>
      <trkpt lat="44.84295" lon="6.14371">
        <ele>1830.6</ele>
        <time>2024-08-13T11:24:23Z</time>
      </trkpt>
      <trkpt lat="44.84295" lon="6.14371">
        <ele>1831.2</ele>
        <time>2024-08-13T11:24:24Z</time>
      </trkpt>
      <trkpt lat="44.84293" lon="6.14373">
        <ele>1831.4</ele>
        <time>2024-08-13T11:24:25Z</time>
      </trkpt>
      <trkpt lat="44.84293" lon="6.14373">
        <ele>1831.6</ele>
        <time>2024-08-13T11:24:26Z</time>
      </trkpt>
      <trkpt lat="44.84293" lon="6.14373">
        <ele>1831.8</ele>
        <time>2024-08-13T11:24:27Z</time>
      </trkpt>
      <trkpt lat="44.84292" lon="6.14375">
        <ele>1831.8</ele>
        <time>2024-08-13T11:24:28Z</time>
      </trkpt>
      <trkpt lat="44.84292" lon="6.14375">
        <ele>1832</ele>
        <time>2024-08-13T11:24:29Z</time>
      </trkpt>
      <trkpt lat="44.8429" lon="6.14377">
        <ele>1832</ele>
        <time>2024-08-13T11:24:30Z</time>
      </trkpt>
      <trkpt lat="44.8429" lon="6.14377">
        <ele>1832.2</ele>
        <time>2024-08-13T11:24:31Z</time>
      </trkpt>
      <trkpt lat="44.8429" lon="6.14377">
        <ele>1832.4</ele>
        <time>2024-08-13T11:24:32Z</time>
      </trkpt>
      <trkpt lat="44.84288" lon="6.14379">
        <ele>1832.8</ele>
        <time>2024-08-13T11:24:33Z</time>
      </trkpt>
      <trkpt lat="44.84288" lon="6.14379">
        <ele>1833</ele>
        <time>2024-08-13T11:24:34Z</time>
      </trkpt>
      <trkpt lat="44.84286" lon="6.14381">
        <ele>1833.2</ele>
        <time>2024-08-13T11:24:35Z</time>
      </trkpt>
      <trkpt lat="44.84286" lon="6.14381">
        <ele>1833.4</ele>
        <time>2024-08-13T11:24:36Z</time>
      </trkpt>
      <trkpt lat="44.84285" lon="6.14383">
        <ele>1833.4</ele>
        <time>2024-08-13T11:24:37Z</time>
      </trkpt>
      <trkpt lat="44.84285" lon="6.14383">
        <ele>1833.8</ele>
        <time>2024-08-13T11:24:38Z</time>
      </trkpt>
      <trkpt lat="44.84285" lon="6.14383">
        <ele>1834</ele>
        <time>2024-08-13T11:24:39Z</time>
      </trkpt>
      <trkpt lat="44.84282" lon="6.14384">
        <ele>1834</ele>
        <time>2024-08-13T11:24:40Z</time>
      </trkpt>
      <trkpt lat="44.84282" lon="6.14384">
        <ele>1834</ele>
        <time>2024-08-13T11:24:41Z</time>
      </trkpt>
      <trkpt lat="44.8428" lon="6.14384">
        <ele>1834</ele>
        <time>2024-08-13T11:24:42Z</time>
      </trkpt>
      <trkpt lat="44.8428" lon="6.14384">
        <ele>1834.4</ele>
        <time>2024-08-13T11:24:43Z</time>
      </trkpt>
      <trkpt lat="44.84278" lon="6.14386">
        <ele>1834.4</ele>
        <time>2024-08-13T11:24:44Z</time>
      </trkpt>
      <trkpt lat="44.84278" lon="6.14386">
        <ele>1834.4</ele>
        <time>2024-08-13T11:24:45Z</time>
      </trkpt>
      <trkpt lat="44.84278" lon="6.14386">
        <ele>1835</ele>
        <time>2024-08-13T11:24:46Z</time>
      </trkpt>
      <trkpt lat="44.84278" lon="6.14386">
        <ele>1835</ele>
        <time>2024-08-13T11:24:47Z</time>
      </trkpt>
      <trkpt lat="44.84276" lon="6.14388">
        <ele>1835.2</ele>
        <time>2024-08-13T11:24:48Z</time>
      </trkpt>
      <trkpt lat="44.84276" lon="6.14388">
        <ele>1835.2</ele>
        <time>2024-08-13T11:24:49Z</time>
      </trkpt>
      <trkpt lat="44.84275" lon="6.14389">
        <ele>1835.4</ele>
        <time>2024-08-13T11:24:50Z</time>
      </trkpt>
      <trkpt lat="44.84275" lon="6.14389">
        <ele>1835.4</ele>
        <time>2024-08-13T11:24:51Z</time>
      </trkpt>
      <trkpt lat="44.84275" lon="6.14389">
        <ele>1835.6</ele>
        <time>2024-08-13T11:24:52Z</time>
      </trkpt>
      <trkpt lat="44.84272" lon="6.1439">
        <ele>1835.8</ele>
        <time>2024-08-13T11:24:53Z</time>
      </trkpt>
      <trkpt lat="44.84272" lon="6.1439">
        <ele>1836</ele>
        <time>2024-08-13T11:24:54Z</time>
      </trkpt>
      <trkpt lat="44.8427" lon="6.14391">
        <ele>1836</ele>
        <time>2024-08-13T11:24:55Z</time>
      </trkpt>
      <trkpt lat="44.8427" lon="6.14391">
        <ele>1836.2</ele>
        <time>2024-08-13T11:24:56Z</time>
      </trkpt>
      <trkpt lat="44.8427" lon="6.14391">
        <ele>1836.4</ele>
        <time>2024-08-13T11:24:57Z</time>
      </trkpt>
      <trkpt lat="44.84268" lon="6.14391">
        <ele>1836.4</ele>
        <time>2024-08-13T11:24:58Z</time>
      </trkpt>
      <trkpt lat="44.84268" lon="6.14391">
        <ele>1836.8</ele>
        <time>2024-08-13T11:24:59Z</time>
      </trkpt>
      <trkpt lat="44.84268" lon="6.14391">
        <ele>1837.2</ele>
        <time>2024-08-13T11:25:00Z</time>
      </trkpt>
      <trkpt lat="44.84266" lon="6.14393">
        <ele>1837.2</ele>
        <time>2024-08-13T11:25:01Z</time>
      </trkpt>
      <trkpt lat="44.84266" lon="6.14393">
        <ele>1837.4</ele>
        <time>2024-08-13T11:25:02Z</time>
      </trkpt>
      <trkpt lat="44.84266" lon="6.14393">
        <ele>1837.4</ele>
        <time>2024-08-13T11:25:03Z</time>
      </trkpt>
      <trkpt lat="44.84265" lon="6.14394">
        <ele>1837.8</ele>
        <time>2024-08-13T11:25:04Z</time>
      </trkpt>
      <trkpt lat="44.84265" lon="6.14394">
        <ele>1838</ele>
        <time>2024-08-13T11:25:05Z</time>
      </trkpt>
      <trkpt lat="44.84265" lon="6.14394">
        <ele>1838.2</ele>
        <time>2024-08-13T11:25:06Z</time>
      </trkpt>
      <trkpt lat="44.84263" lon="6.14396">
        <ele>1838.2</ele>
        <time>2024-08-13T11:25:07Z</time>
      </trkpt>
      <trkpt lat="44.84263" lon="6.14396">
        <ele>1838.2</ele>
        <time>2024-08-13T11:25:08Z</time>
      </trkpt>
      <trkpt lat="44.84263" lon="6.14396">
        <ele>1838.2</ele>
        <time>2024-08-13T11:25:09Z</time>
      </trkpt>
      <trkpt lat="44.84262" lon="6.144">
        <ele>1838.2</ele>
        <time>2024-08-13T11:25:10Z</time>
      </trkpt>
      <trkpt lat="44.84262" lon="6.144">
        <ele>1838.6</ele>
        <time>2024-08-13T11:25:11Z</time>
      </trkpt>
      <trkpt lat="44.84262" lon="6.144">
        <ele>1838.8</ele>
        <time>2024-08-13T11:25:12Z</time>
      </trkpt>
      <trkpt lat="44.84261" lon="6.14402">
        <ele>1839</ele>
        <time>2024-08-13T11:25:13Z</time>
      </trkpt>
      <trkpt lat="44.84261" lon="6.14402">
        <ele>1839</ele>
        <time>2024-08-13T11:25:14Z</time>
      </trkpt>
      <trkpt lat="44.8426" lon="6.14404">
        <ele>1839.4</ele>
        <time>2024-08-13T11:25:15Z</time>
      </trkpt>
      <trkpt lat="44.8426" lon="6.14404">
        <ele>1839.4</ele>
        <time>2024-08-13T11:25:16Z</time>
      </trkpt>
      <trkpt lat="44.84259" lon="6.14408">
        <ele>1840</ele>
        <time>2024-08-13T11:25:17Z</time>
      </trkpt>
      <trkpt lat="44.84259" lon="6.14408">
        <ele>1840</ele>
        <time>2024-08-13T11:25:18Z</time>
      </trkpt>
      <trkpt lat="44.84258" lon="6.1441">
        <ele>1839.6</ele>
        <time>2024-08-13T11:25:19Z</time>
      </trkpt>
      <trkpt lat="44.84258" lon="6.1441">
        <ele>1839.6</ele>
        <time>2024-08-13T11:25:20Z</time>
      </trkpt>
      <trkpt lat="44.84256" lon="6.14412">
        <ele>1839.8</ele>
        <time>2024-08-13T11:25:21Z</time>
      </trkpt>
      <trkpt lat="44.84256" lon="6.14412">
        <ele>1839.8</ele>
        <time>2024-08-13T11:25:22Z</time>
      </trkpt>
      <trkpt lat="44.84255" lon="6.14414">
        <ele>1839.8</ele>
        <time>2024-08-13T11:25:23Z</time>
      </trkpt>
      <trkpt lat="44.84255" lon="6.14414">
        <ele>1840</ele>
        <time>2024-08-13T11:25:24Z</time>
      </trkpt>
      <trkpt lat="44.84255" lon="6.14414">
        <ele>1840</ele>
        <time>2024-08-13T11:25:25Z</time>
      </trkpt>
      <trkpt lat="44.84253" lon="6.14417">
        <ele>1840</ele>
        <time>2024-08-13T11:25:26Z</time>
      </trkpt>
      <trkpt lat="44.84253" lon="6.14417">
        <ele>1840.4</ele>
        <time>2024-08-13T11:25:27Z</time>
      </trkpt>
      <trkpt lat="44.84253" lon="6.14417">
        <ele>1840.8</ele>
        <time>2024-08-13T11:25:28Z</time>
      </trkpt>
      <trkpt lat="44.84251" lon="6.14419">
        <ele>1840.8</ele>
        <time>2024-08-13T11:25:29Z</time>
      </trkpt>
      <trkpt lat="44.84251" lon="6.14419">
        <ele>1840.8</ele>
        <time>2024-08-13T11:25:30Z</time>
      </trkpt>
      <trkpt lat="44.84251" lon="6.14419">
        <ele>1840.8</ele>
        <time>2024-08-13T11:25:31Z</time>
      </trkpt>
      <trkpt lat="44.8425" lon="6.14422">
        <ele>1841</ele>
        <time>2024-08-13T11:25:32Z</time>
      </trkpt>
      <trkpt lat="44.8425" lon="6.14422">
        <ele>1841.4</ele>
        <time>2024-08-13T11:25:33Z</time>
      </trkpt>
      <trkpt lat="44.8425" lon="6.14422">
        <ele>1841.6</ele>
        <time>2024-08-13T11:25:34Z</time>
      </trkpt>
      <trkpt lat="44.84248" lon="6.14425">
        <ele>1841.8</ele>
        <time>2024-08-13T11:25:35Z</time>
      </trkpt>
      <trkpt lat="44.84248" lon="6.14425">
        <ele>1841.8</ele>
        <time>2024-08-13T11:25:36Z</time>
      </trkpt>
      <trkpt lat="44.84248" lon="6.14425">
        <ele>1841.8</ele>
        <time>2024-08-13T11:25:37Z</time>
      </trkpt>
      <trkpt lat="44.84247" lon="6.14427">
        <ele>1842.2</ele>
        <time>2024-08-13T11:25:38Z</time>
      </trkpt>
      <trkpt lat="44.84247" lon="6.14427">
        <ele>1842.2</ele>
        <time>2024-08-13T11:25:39Z</time>
      </trkpt>
      <trkpt lat="44.84245" lon="6.14429">
        <ele>1842.6</ele>
        <time>2024-08-13T11:25:40Z</time>
      </trkpt>
      <trkpt lat="44.84245" lon="6.14429">
        <ele>1842.6</ele>
        <time>2024-08-13T11:25:41Z</time>
      </trkpt>
      <trkpt lat="44.84244" lon="6.14432">
        <ele>1842.6</ele>
        <time>2024-08-13T11:25:42Z</time>
      </trkpt>
      <trkpt lat="44.84244" lon="6.14432">
        <ele>1842.6</ele>
        <time>2024-08-13T11:25:43Z</time>
      </trkpt>
      <trkpt lat="44.84242" lon="6.14433">
        <ele>1843</ele>
        <time>2024-08-13T11:25:44Z</time>
      </trkpt>
      <trkpt lat="44.84242" lon="6.14433">
        <ele>1843.2</ele>
        <time>2024-08-13T11:25:45Z</time>
      </trkpt>
      <trkpt lat="44.8424" lon="6.14435">
        <ele>1843.2</ele>
        <time>2024-08-13T11:25:46Z</time>
      </trkpt>
      <trkpt lat="44.8424" lon="6.14435">
        <ele>1843.4</ele>
        <time>2024-08-13T11:25:47Z</time>
      </trkpt>
      <trkpt lat="44.84239" lon="6.14437">
        <ele>1843.4</ele>
        <time>2024-08-13T11:25:48Z</time>
      </trkpt>
      <trkpt lat="44.84239" lon="6.14437">
        <ele>1843.6</ele>
        <time>2024-08-13T11:25:49Z</time>
      </trkpt>
      <trkpt lat="44.84239" lon="6.14437">
        <ele>1843.8</ele>
        <time>2024-08-13T11:25:50Z</time>
      </trkpt>
      <trkpt lat="44.84237" lon="6.1444">
        <ele>1844</ele>
        <time>2024-08-13T11:25:51Z</time>
      </trkpt>
      <trkpt lat="44.84237" lon="6.1444">
        <ele>1844.4</ele>
        <time>2024-08-13T11:25:52Z</time>
      </trkpt>
      <trkpt lat="44.84237" lon="6.1444">
        <ele>1844.4</ele>
        <time>2024-08-13T11:25:53Z</time>
      </trkpt>
      <trkpt lat="44.84235" lon="6.14443">
        <ele>1844.6</ele>
        <time>2024-08-13T11:25:54Z</time>
      </trkpt>
      <trkpt lat="44.84235" lon="6.14443">
        <ele>1844.6</ele>
        <time>2024-08-13T11:25:55Z</time>
      </trkpt>
      <trkpt lat="44.84234" lon="6.14445">
        <ele>1844.6</ele>
        <time>2024-08-13T11:25:56Z</time>
      </trkpt>
      <trkpt lat="44.84234" lon="6.14445">
        <ele>1844.6</ele>
        <time>2024-08-13T11:25:57Z</time>
      </trkpt>
      <trkpt lat="44.84234" lon="6.14445">
        <ele>1844.8</ele>
        <time>2024-08-13T11:25:58Z</time>
      </trkpt>
      <trkpt lat="44.84232" lon="6.14448">
        <ele>1845</ele>
        <time>2024-08-13T11:25:59Z</time>
      </trkpt>
      <trkpt lat="44.84232" lon="6.14448">
        <ele>1845</ele>
        <time>2024-08-13T11:26:00Z</time>
      </trkpt>
      <trkpt lat="44.84232" lon="6.14448">
        <ele>1845.2</ele>
        <time>2024-08-13T11:26:01Z</time>
      </trkpt>
      <trkpt lat="44.84231" lon="6.14451">
        <ele>1845.6</ele>
        <time>2024-08-13T11:26:02Z</time>
      </trkpt>
      <trkpt lat="44.84231" lon="6.14451">
        <ele>1845.6</ele>
        <time>2024-08-13T11:26:03Z</time>
      </trkpt>
      <trkpt lat="44.84231" lon="6.14451">
        <ele>1845.6</ele>
        <time>2024-08-13T11:26:04Z</time>
      </trkpt>
      <trkpt lat="44.8423" lon="6.14454">
        <ele>1845.6</ele>
        <time>2024-08-13T11:26:05Z</time>
      </trkpt>
      <trkpt lat="44.8423" lon="6.14454">
        <ele>1846</ele>
        <time>2024-08-13T11:26:06Z</time>
      </trkpt>
      <trkpt lat="44.8423" lon="6.14457">
        <ele>1846</ele>
        <time>2024-08-13T11:26:07Z</time>
      </trkpt>
      <trkpt lat="44.8423" lon="6.14457">
        <ele>1846</ele>
        <time>2024-08-13T11:26:08Z</time>
      </trkpt>
      <trkpt lat="44.84228" lon="6.14459">
        <ele>1846.4</ele>
        <time>2024-08-13T11:26:09Z</time>
      </trkpt>
      <trkpt lat="44.84228" lon="6.14459">
        <ele>1847</ele>
        <time>2024-08-13T11:26:10Z</time>
      </trkpt>
      <trkpt lat="44.84226" lon="6.14459">
        <ele>1847</ele>
        <time>2024-08-13T11:26:11Z</time>
      </trkpt>
      <trkpt lat="44.84226" lon="6.14459">
        <ele>1847</ele>
        <time>2024-08-13T11:26:12Z</time>
      </trkpt>
      <trkpt lat="44.84226" lon="6.14459">
        <ele>1847.2</ele>
        <time>2024-08-13T11:26:13Z</time>
      </trkpt>
      <trkpt lat="44.84226" lon="6.14459">
        <ele>1847.2</ele>
        <time>2024-08-13T11:26:14Z</time>
      </trkpt>
      <trkpt lat="44.84224" lon="6.14461">
        <ele>1847</ele>
        <time>2024-08-13T11:26:15Z</time>
      </trkpt>
      <trkpt lat="44.84223" lon="6.14462">
        <ele>1847</ele>
        <time>2024-08-13T11:26:16Z</time>
      </trkpt>
      <trkpt lat="44.84221" lon="6.14464">
        <ele>1847.2</ele>
        <time>2024-08-13T11:26:17Z</time>
      </trkpt>
      <trkpt lat="44.84221" lon="6.14464">
        <ele>1847.4</ele>
        <time>2024-08-13T11:26:18Z</time>
      </trkpt>
      <trkpt lat="44.8422" lon="6.14464">
        <ele>1847.6</ele>
        <time>2024-08-13T11:26:19Z</time>
      </trkpt>
      <trkpt lat="44.8422" lon="6.14464">
        <ele>1847.6</ele>
        <time>2024-08-13T11:26:20Z</time>
      </trkpt>
      <trkpt lat="44.84219" lon="6.14465">
        <ele>1847.8</ele>
        <time>2024-08-13T11:26:21Z</time>
      </trkpt>
      <trkpt lat="44.84219" lon="6.14465">
        <ele>1848</ele>
        <time>2024-08-13T11:26:22Z</time>
      </trkpt>
      <trkpt lat="44.84219" lon="6.14465">
        <ele>1848</ele>
        <time>2024-08-13T11:26:23Z</time>
      </trkpt>
      <trkpt lat="44.84217" lon="6.14465">
        <ele>1848</ele>
        <time>2024-08-13T11:26:24Z</time>
      </trkpt>
      <trkpt lat="44.84217" lon="6.14465">
        <ele>1848</ele>
        <time>2024-08-13T11:26:25Z</time>
      </trkpt>
      <trkpt lat="44.84217" lon="6.14465">
        <ele>1848.2</ele>
        <time>2024-08-13T11:26:26Z</time>
      </trkpt>
      <trkpt lat="44.84214" lon="6.14467">
        <ele>1848.4</ele>
        <time>2024-08-13T11:26:27Z</time>
      </trkpt>
      <trkpt lat="44.84214" lon="6.14467">
        <ele>1848.6</ele>
        <time>2024-08-13T11:26:28Z</time>
      </trkpt>
      <trkpt lat="44.84216" lon="6.14468">
        <ele>1848.8</ele>
        <time>2024-08-13T11:26:29Z</time>
      </trkpt>
      <trkpt lat="44.84216" lon="6.14468">
        <ele>1848.8</ele>
        <time>2024-08-13T11:26:30Z</time>
      </trkpt>
      <trkpt lat="44.84216" lon="6.14468">
        <ele>1849</ele>
        <time>2024-08-13T11:26:31Z</time>
      </trkpt>
      <trkpt lat="44.84216" lon="6.14468">
        <ele>1849.2</ele>
        <time>2024-08-13T11:26:32Z</time>
      </trkpt>
      <trkpt lat="44.84218" lon="6.14467">
        <ele>1849.4</ele>
        <time>2024-08-13T11:26:33Z</time>
      </trkpt>
      <trkpt lat="44.84218" lon="6.14467">
        <ele>1850</ele>
        <time>2024-08-13T11:26:34Z</time>
      </trkpt>
      <trkpt lat="44.84218" lon="6.14467">
        <ele>1850.2</ele>
        <time>2024-08-13T11:26:35Z</time>
      </trkpt>
      <trkpt lat="44.84218" lon="6.14467">
        <ele>1850.2</ele>
        <time>2024-08-13T11:26:36Z</time>
      </trkpt>
      <trkpt lat="44.84218" lon="6.14467">
        <ele>1850.6</ele>
        <time>2024-08-13T11:26:37Z</time>
      </trkpt>
      <trkpt lat="44.8422" lon="6.14467">
        <ele>1851</ele>
        <time>2024-08-13T11:26:38Z</time>
      </trkpt>
      <trkpt lat="44.8422" lon="6.14467">
        <ele>1851</ele>
        <time>2024-08-13T11:26:39Z</time>
      </trkpt>
      <trkpt lat="44.84222" lon="6.14467">
        <ele>1851.4</ele>
        <time>2024-08-13T11:26:40Z</time>
      </trkpt>
      <trkpt lat="44.84222" lon="6.14467">
        <ele>1851.6</ele>
        <time>2024-08-13T11:26:41Z</time>
      </trkpt>
      <trkpt lat="44.84222" lon="6.14467">
        <ele>1851.6</ele>
        <time>2024-08-13T11:26:42Z</time>
      </trkpt>
      <trkpt lat="44.84222" lon="6.14467">
        <ele>1852</ele>
        <time>2024-08-13T11:26:43Z</time>
      </trkpt>
      <trkpt lat="44.84222" lon="6.14467">
        <ele>1852.2</ele>
        <time>2024-08-13T11:26:44Z</time>
      </trkpt>
      <trkpt lat="44.84222" lon="6.14467">
        <ele>1852.2</ele>
        <time>2024-08-13T11:26:45Z</time>
      </trkpt>
      <trkpt lat="44.84224" lon="6.14467">
        <ele>1852.4</ele>
        <time>2024-08-13T11:26:46Z</time>
      </trkpt>
      <trkpt lat="44.84224" lon="6.14467">
        <ele>1852.6</ele>
        <time>2024-08-13T11:26:47Z</time>
      </trkpt>
      <trkpt lat="44.84228" lon="6.14466">
        <ele>1853</ele>
        <time>2024-08-13T11:26:48Z</time>
      </trkpt>
      <trkpt lat="44.8423" lon="6.14466">
        <ele>1853</ele>
        <time>2024-08-13T11:26:49Z</time>
      </trkpt>
      <trkpt lat="44.8423" lon="6.14466">
        <ele>1853.4</ele>
        <time>2024-08-13T11:26:50Z</time>
      </trkpt>
      <trkpt lat="44.84234" lon="6.14466">
        <ele>1853.6</ele>
        <time>2024-08-13T11:26:51Z</time>
      </trkpt>
      <trkpt lat="44.84234" lon="6.14466">
        <ele>1853.6</ele>
        <time>2024-08-13T11:26:52Z</time>
      </trkpt>
      <trkpt lat="44.84236" lon="6.14466">
        <ele>1854.2</ele>
        <time>2024-08-13T11:26:53Z</time>
      </trkpt>
      <trkpt lat="44.84236" lon="6.14466">
        <ele>1854.2</ele>
        <time>2024-08-13T11:26:54Z</time>
      </trkpt>
      <trkpt lat="44.84236" lon="6.14466">
        <ele>1854.4</ele>
        <time>2024-08-13T11:26:55Z</time>
      </trkpt>
      <trkpt lat="44.84236" lon="6.14466">
        <ele>1854.4</ele>
        <time>2024-08-13T11:26:56Z</time>
      </trkpt>
      <trkpt lat="44.84236" lon="6.14466">
        <ele>1854.6</ele>
        <time>2024-08-13T11:26:57Z</time>
      </trkpt>
      <trkpt lat="44.84238" lon="6.14464">
        <ele>1855.2</ele>
        <time>2024-08-13T11:26:58Z</time>
      </trkpt>
      <trkpt lat="44.84238" lon="6.14464">
        <ele>1855.6</ele>
        <time>2024-08-13T11:26:59Z</time>
      </trkpt>
      <trkpt lat="44.8424" lon="6.14464">
        <ele>1855.6</ele>
        <time>2024-08-13T11:27:00Z</time>
      </trkpt>
      <trkpt lat="44.8424" lon="6.14464">
        <ele>1856</ele>
        <time>2024-08-13T11:27:01Z</time>
      </trkpt>
      <trkpt lat="44.8424" lon="6.14464">
        <ele>1856.2</ele>
        <time>2024-08-13T11:27:02Z</time>
      </trkpt>
      <trkpt lat="44.8424" lon="6.14464">
        <ele>1856.2</ele>
        <time>2024-08-13T11:27:03Z</time>
      </trkpt>
      <trkpt lat="44.84242" lon="6.14462">
        <ele>1856.2</ele>
        <time>2024-08-13T11:27:04Z</time>
      </trkpt>
      <trkpt lat="44.84242" lon="6.14462">
        <ele>1856.6</ele>
        <time>2024-08-13T11:27:05Z</time>
      </trkpt>
      <trkpt lat="44.84242" lon="6.14462">
        <ele>1856.8</ele>
        <time>2024-08-13T11:27:06Z</time>
      </trkpt>
      <trkpt lat="44.84244" lon="6.14461">
        <ele>1856.8</ele>
        <time>2024-08-13T11:27:07Z</time>
      </trkpt>
      <trkpt lat="44.84244" lon="6.14461">
        <ele>1857</ele>
        <time>2024-08-13T11:27:08Z</time>
      </trkpt>
      <trkpt lat="44.84246" lon="6.1446">
        <ele>1857.2</ele>
        <time>2024-08-13T11:27:09Z</time>
      </trkpt>
      <trkpt lat="44.84246" lon="6.1446">
        <ele>1857.4</ele>
        <time>2024-08-13T11:27:10Z</time>
      </trkpt>
      <trkpt lat="44.84246" lon="6.1446">
        <ele>1857.6</ele>
        <time>2024-08-13T11:27:11Z</time>
      </trkpt>
      <trkpt lat="44.84248" lon="6.1446">
        <ele>1857.6</ele>
        <time>2024-08-13T11:27:12Z</time>
      </trkpt>
      <trkpt lat="44.84248" lon="6.1446">
        <ele>1858.2</ele>
        <time>2024-08-13T11:27:13Z</time>
      </trkpt>
      <trkpt lat="44.84248" lon="6.1446">
        <ele>1858.4</ele>
        <time>2024-08-13T11:27:14Z</time>
      </trkpt>
      <trkpt lat="44.8425" lon="6.1446">
        <ele>1858.4</ele>
        <time>2024-08-13T11:27:15Z</time>
      </trkpt>
      <trkpt lat="44.8425" lon="6.1446">
        <ele>1858.6</ele>
        <time>2024-08-13T11:27:16Z</time>
      </trkpt>
      <trkpt lat="44.8425" lon="6.1446">
        <ele>1858.8</ele>
        <time>2024-08-13T11:27:17Z</time>
      </trkpt>
      <trkpt lat="44.84252" lon="6.1446">
        <ele>1859</ele>
        <time>2024-08-13T11:27:18Z</time>
      </trkpt>
      <trkpt lat="44.84252" lon="6.1446">
        <ele>1859.4</ele>
        <time>2024-08-13T11:27:19Z</time>
      </trkpt>
      <trkpt lat="44.84254" lon="6.1446">
        <ele>1859.8</ele>
        <time>2024-08-13T11:27:20Z</time>
      </trkpt>
      <trkpt lat="44.84254" lon="6.1446">
        <ele>1859.8</ele>
        <time>2024-08-13T11:27:21Z</time>
      </trkpt>
      <trkpt lat="44.84254" lon="6.1446">
        <ele>1859.8</ele>
        <time>2024-08-13T11:27:22Z</time>
      </trkpt>
      <trkpt lat="44.84257" lon="6.1446">
        <ele>1860</ele>
        <time>2024-08-13T11:27:23Z</time>
      </trkpt>
      <trkpt lat="44.84257" lon="6.1446">
        <ele>1860</ele>
        <time>2024-08-13T11:27:24Z</time>
      </trkpt>
      <trkpt lat="44.84257" lon="6.1446">
        <ele>1860</ele>
        <time>2024-08-13T11:27:25Z</time>
      </trkpt>
      <trkpt lat="44.84259" lon="6.1446">
        <ele>1860</ele>
        <time>2024-08-13T11:27:26Z</time>
      </trkpt>
      <trkpt lat="44.84259" lon="6.1446">
        <ele>1860.6</ele>
        <time>2024-08-13T11:27:27Z</time>
      </trkpt>
      <trkpt lat="44.84259" lon="6.1446">
        <ele>1860.8</ele>
        <time>2024-08-13T11:27:28Z</time>
      </trkpt>
      <trkpt lat="44.84261" lon="6.1446">
        <ele>1861</ele>
        <time>2024-08-13T11:27:29Z</time>
      </trkpt>
      <trkpt lat="44.84261" lon="6.1446">
        <ele>1861.2</ele>
        <time>2024-08-13T11:27:30Z</time>
      </trkpt>
      <trkpt lat="44.84261" lon="6.1446">
        <ele>1861.4</ele>
        <time>2024-08-13T11:27:31Z</time>
      </trkpt>
      <trkpt lat="44.84261" lon="6.1446">
        <ele>1861.8</ele>
        <time>2024-08-13T11:27:32Z</time>
      </trkpt>
      <trkpt lat="44.84264" lon="6.1446">
        <ele>1862</ele>
        <time>2024-08-13T11:27:33Z</time>
      </trkpt>
      <trkpt lat="44.84264" lon="6.1446">
        <ele>1862</ele>
        <time>2024-08-13T11:27:34Z</time>
      </trkpt>
      <trkpt lat="44.84266" lon="6.1446">
        <ele>1862</ele>
        <time>2024-08-13T11:27:35Z</time>
      </trkpt>
      <trkpt lat="44.84266" lon="6.1446">
        <ele>1862.2</ele>
        <time>2024-08-13T11:27:36Z</time>
      </trkpt>
      <trkpt lat="44.84266" lon="6.1446">
        <ele>1862.2</ele>
        <time>2024-08-13T11:27:37Z</time>
      </trkpt>
      <trkpt lat="44.84268" lon="6.1446">
        <ele>1862.4</ele>
        <time>2024-08-13T11:27:38Z</time>
      </trkpt>
      <trkpt lat="44.84268" lon="6.1446">
        <ele>1862.6</ele>
        <time>2024-08-13T11:27:39Z</time>
      </trkpt>
      <trkpt lat="44.84268" lon="6.1446">
        <ele>1862.6</ele>
        <time>2024-08-13T11:27:40Z</time>
      </trkpt>
      <trkpt lat="44.84268" lon="6.1446">
        <ele>1862.6</ele>
        <time>2024-08-13T11:27:41Z</time>
      </trkpt>
      <trkpt lat="44.8427" lon="6.1446">
        <ele>1863</ele>
        <time>2024-08-13T11:27:42Z</time>
      </trkpt>
      <trkpt lat="44.8427" lon="6.1446">
        <ele>1863.2</ele>
        <time>2024-08-13T11:27:43Z</time>
      </trkpt>
      <trkpt lat="44.8427" lon="6.1446">
        <ele>1863.2</ele>
        <time>2024-08-13T11:27:44Z</time>
      </trkpt>
      <trkpt lat="44.84273" lon="6.1446">
        <ele>1863.4</ele>
        <time>2024-08-13T11:27:45Z</time>
      </trkpt>
      <trkpt lat="44.84273" lon="6.1446">
        <ele>1863.8</ele>
        <time>2024-08-13T11:27:46Z</time>
      </trkpt>
      <trkpt lat="44.84275" lon="6.1446">
        <ele>1864</ele>
        <time>2024-08-13T11:27:47Z</time>
      </trkpt>
      <trkpt lat="44.84275" lon="6.1446">
        <ele>1864</ele>
        <time>2024-08-13T11:27:48Z</time>
      </trkpt>
      <trkpt lat="44.84277" lon="6.14461">
        <ele>1864.2</ele>
        <time>2024-08-13T11:27:49Z</time>
      </trkpt>
      <trkpt lat="44.84277" lon="6.14461">
        <ele>1864.4</ele>
        <time>2024-08-13T11:27:50Z</time>
      </trkpt>
      <trkpt lat="44.84277" lon="6.14461">
        <ele>1864.6</ele>
        <time>2024-08-13T11:27:51Z</time>
      </trkpt>
      <trkpt lat="44.8428" lon="6.14462">
        <ele>1864.6</ele>
        <time>2024-08-13T11:27:52Z</time>
      </trkpt>
      <trkpt lat="44.8428" lon="6.14462">
        <ele>1864.8</ele>
        <time>2024-08-13T11:27:53Z</time>
      </trkpt>
      <trkpt lat="44.8428" lon="6.14462">
        <ele>1864.8</ele>
        <time>2024-08-13T11:27:54Z</time>
      </trkpt>
      <trkpt lat="44.84282" lon="6.14462">
        <ele>1865</ele>
        <time>2024-08-13T11:27:55Z</time>
      </trkpt>
      <trkpt lat="44.84282" lon="6.14462">
        <ele>1865.6</ele>
        <time>2024-08-13T11:27:56Z</time>
      </trkpt>
      <trkpt lat="44.84282" lon="6.14462">
        <ele>1866</ele>
        <time>2024-08-13T11:27:57Z</time>
      </trkpt>
      <trkpt lat="44.84284" lon="6.14462">
        <ele>1866.2</ele>
        <time>2024-08-13T11:27:58Z</time>
      </trkpt>
      <trkpt lat="44.84284" lon="6.14462">
        <ele>1866.2</ele>
        <time>2024-08-13T11:27:59Z</time>
      </trkpt>
      <trkpt lat="44.84286" lon="6.14462">
        <ele>1866.2</ele>
        <time>2024-08-13T11:28:00Z</time>
      </trkpt>
      <trkpt lat="44.84286" lon="6.14462">
        <ele>1866.4</ele>
        <time>2024-08-13T11:28:01Z</time>
      </trkpt>
      <trkpt lat="44.84286" lon="6.14462">
        <ele>1866.4</ele>
        <time>2024-08-13T11:28:02Z</time>
      </trkpt>
      <trkpt lat="44.84288" lon="6.14462">
        <ele>1866.4</ele>
        <time>2024-08-13T11:28:03Z</time>
      </trkpt>
      <trkpt lat="44.84288" lon="6.14462">
        <ele>1866.8</ele>
        <time>2024-08-13T11:28:04Z</time>
      </trkpt>
      <trkpt lat="44.84288" lon="6.14462">
        <ele>1867</ele>
        <time>2024-08-13T11:28:05Z</time>
      </trkpt>
      <trkpt lat="44.8429" lon="6.14461">
        <ele>1867</ele>
        <time>2024-08-13T11:28:06Z</time>
      </trkpt>
      <trkpt lat="44.8429" lon="6.14461">
        <ele>1867.4</ele>
        <time>2024-08-13T11:28:07Z</time>
      </trkpt>
      <trkpt lat="44.84292" lon="6.1446">
        <ele>1867.8</ele>
        <time>2024-08-13T11:28:08Z</time>
      </trkpt>
      <trkpt lat="44.84292" lon="6.1446">
        <ele>1867.8</ele>
        <time>2024-08-13T11:28:09Z</time>
      </trkpt>
      <trkpt lat="44.84292" lon="6.1446">
        <ele>1867.8</ele>
        <time>2024-08-13T11:28:10Z</time>
      </trkpt>
      <trkpt lat="44.84293" lon="6.14456">
        <ele>1867.6</ele>
        <time>2024-08-13T11:28:11Z</time>
      </trkpt>
      <trkpt lat="44.84293" lon="6.14456">
        <ele>1867.6</ele>
        <time>2024-08-13T11:28:12Z</time>
      </trkpt>
      <trkpt lat="44.84293" lon="6.14456">
        <ele>1867.8</ele>
        <time>2024-08-13T11:28:13Z</time>
      </trkpt>
      <trkpt lat="44.84295" lon="6.14454">
        <ele>1867.6</ele>
        <time>2024-08-13T11:28:14Z</time>
      </trkpt>
      <trkpt lat="44.84295" lon="6.14454">
        <ele>1867.6</ele>
        <time>2024-08-13T11:28:15Z</time>
      </trkpt>
      <trkpt lat="44.84295" lon="6.14454">
        <ele>1868.4</ele>
        <time>2024-08-13T11:28:16Z</time>
      </trkpt>
      <trkpt lat="44.84297" lon="6.14452">
        <ele>1868.4</ele>
        <time>2024-08-13T11:28:17Z</time>
      </trkpt>
      <trkpt lat="44.84297" lon="6.14452">
        <ele>1868.4</ele>
        <time>2024-08-13T11:28:18Z</time>
      </trkpt>
      <trkpt lat="44.84297" lon="6.14452">
        <ele>1868.4</ele>
        <time>2024-08-13T11:28:19Z</time>
      </trkpt>
      <trkpt lat="44.843" lon="6.14451">
        <ele>1868.8</ele>
        <time>2024-08-13T11:28:20Z</time>
      </trkpt>
      <trkpt lat="44.843" lon="6.14451">
        <ele>1869</ele>
        <time>2024-08-13T11:28:21Z</time>
      </trkpt>
      <trkpt lat="44.843" lon="6.14451">
        <ele>1869.2</ele>
        <time>2024-08-13T11:28:22Z</time>
      </trkpt>
      <trkpt lat="44.84301" lon="6.1445">
        <ele>1869.4</ele>
        <time>2024-08-13T11:28:23Z</time>
      </trkpt>
      <trkpt lat="44.84301" lon="6.1445">
        <ele>1869.8</ele>
        <time>2024-08-13T11:28:24Z</time>
      </trkpt>
      <trkpt lat="44.84301" lon="6.1445">
        <ele>1869.8</ele>
        <time>2024-08-13T11:28:25Z</time>
      </trkpt>
      <trkpt lat="44.84301" lon="6.1445">
        <ele>1870</ele>
        <time>2024-08-13T11:28:26Z</time>
      </trkpt>
      <trkpt lat="44.84303" lon="6.14447">
        <ele>1870</ele>
        <time>2024-08-13T11:28:27Z</time>
      </trkpt>
      <trkpt lat="44.84303" lon="6.14447">
        <ele>1870.8</ele>
        <time>2024-08-13T11:28:28Z</time>
      </trkpt>
      <trkpt lat="44.84303" lon="6.14447">
        <ele>1870.8</ele>
        <time>2024-08-13T11:28:29Z</time>
      </trkpt>
      <trkpt lat="44.84304" lon="6.14444">
        <ele>1871</ele>
        <time>2024-08-13T11:28:30Z</time>
      </trkpt>
      <trkpt lat="44.84304" lon="6.14444">
        <ele>1871</ele>
        <time>2024-08-13T11:28:31Z</time>
      </trkpt>
      <trkpt lat="44.84304" lon="6.14444">
        <ele>1871.4</ele>
        <time>2024-08-13T11:28:32Z</time>
      </trkpt>
      <trkpt lat="44.84306" lon="6.14442">
        <ele>1871.6</ele>
        <time>2024-08-13T11:28:33Z</time>
      </trkpt>
      <trkpt lat="44.84306" lon="6.14442">
        <ele>1871.6</ele>
        <time>2024-08-13T11:28:34Z</time>
      </trkpt>
      <trkpt lat="44.84306" lon="6.14442">
        <ele>1871.6</ele>
        <time>2024-08-13T11:28:35Z</time>
      </trkpt>
      <trkpt lat="44.84307" lon="6.14439">
        <ele>1871.6</ele>
        <time>2024-08-13T11:28:36Z</time>
      </trkpt>
      <trkpt lat="44.84307" lon="6.14439">
        <ele>1871.6</ele>
        <time>2024-08-13T11:28:37Z</time>
      </trkpt>
      <trkpt lat="44.84307" lon="6.14439">
        <ele>1871.8</ele>
        <time>2024-08-13T11:28:38Z</time>
      </trkpt>
      <trkpt lat="44.84308" lon="6.14437">
        <ele>1872.2</ele>
        <time>2024-08-13T11:28:39Z</time>
      </trkpt>
      <trkpt lat="44.84308" lon="6.14437">
        <ele>1872.2</ele>
        <time>2024-08-13T11:28:40Z</time>
      </trkpt>
      <trkpt lat="44.8431" lon="6.14435">
        <ele>1872</ele>
        <time>2024-08-13T11:28:41Z</time>
      </trkpt>
      <trkpt lat="44.8431" lon="6.14435">
        <ele>1872.2</ele>
        <time>2024-08-13T11:28:42Z</time>
      </trkpt>
      <trkpt lat="44.8431" lon="6.14435">
        <ele>1872.2</ele>
        <time>2024-08-13T11:28:43Z</time>
      </trkpt>
      <trkpt lat="44.84311" lon="6.14434">
        <ele>1872.6</ele>
        <time>2024-08-13T11:28:44Z</time>
      </trkpt>
      <trkpt lat="44.84311" lon="6.14434">
        <ele>1872.6</ele>
        <time>2024-08-13T11:28:45Z</time>
      </trkpt>
      <trkpt lat="44.84313" lon="6.14433">
        <ele>1872.6</ele>
        <time>2024-08-13T11:28:46Z</time>
      </trkpt>
      <trkpt lat="44.84313" lon="6.14433">
        <ele>1873</ele>
        <time>2024-08-13T11:28:47Z</time>
      </trkpt>
      <trkpt lat="44.84313" lon="6.14433">
        <ele>1873.2</ele>
        <time>2024-08-13T11:28:48Z</time>
      </trkpt>
      <trkpt lat="44.84315" lon="6.14431">
        <ele>1873.4</ele>
        <time>2024-08-13T11:28:49Z</time>
      </trkpt>
      <trkpt lat="44.84315" lon="6.14431">
        <ele>1873.6</ele>
        <time>2024-08-13T11:28:50Z</time>
      </trkpt>
      <trkpt lat="44.84315" lon="6.14431">
        <ele>1873.6</ele>
        <time>2024-08-13T11:28:51Z</time>
      </trkpt>
      <trkpt lat="44.84317" lon="6.14429">
        <ele>1873.8</ele>
        <time>2024-08-13T11:28:52Z</time>
      </trkpt>
      <trkpt lat="44.84317" lon="6.14429">
        <ele>1873.8</ele>
        <time>2024-08-13T11:28:53Z</time>
      </trkpt>
      <trkpt lat="44.84317" lon="6.14429">
        <ele>1874.2</ele>
        <time>2024-08-13T11:28:54Z</time>
      </trkpt>
      <trkpt lat="44.8432" lon="6.14428">
        <ele>1874.4</ele>
        <time>2024-08-13T11:28:55Z</time>
      </trkpt>
      <trkpt lat="44.8432" lon="6.14428">
        <ele>1874.8</ele>
        <time>2024-08-13T11:28:56Z</time>
      </trkpt>
      <trkpt lat="44.8432" lon="6.14428">
        <ele>1875.2</ele>
        <time>2024-08-13T11:28:57Z</time>
      </trkpt>
      <trkpt lat="44.84322" lon="6.14426">
        <ele>1875.2</ele>
        <time>2024-08-13T11:28:58Z</time>
      </trkpt>
      <trkpt lat="44.84322" lon="6.14426">
        <ele>1875.2</ele>
        <time>2024-08-13T11:28:59Z</time>
      </trkpt>
      <trkpt lat="44.84322" lon="6.14426">
        <ele>1875.4</ele>
        <time>2024-08-13T11:29:00Z</time>
      </trkpt>
      <trkpt lat="44.84324" lon="6.14424">
        <ele>1875.6</ele>
        <time>2024-08-13T11:29:01Z</time>
      </trkpt>
      <trkpt lat="44.84324" lon="6.14424">
        <ele>1876</ele>
        <time>2024-08-13T11:29:02Z</time>
      </trkpt>
      <trkpt lat="44.84326" lon="6.14422">
        <ele>1876</ele>
        <time>2024-08-13T11:29:03Z</time>
      </trkpt>
      <trkpt lat="44.84326" lon="6.14422">
        <ele>1876.4</ele>
        <time>2024-08-13T11:29:04Z</time>
      </trkpt>
      <trkpt lat="44.84328" lon="6.14421">
        <ele>1876.8</ele>
        <time>2024-08-13T11:29:05Z</time>
      </trkpt>
      <trkpt lat="44.84328" lon="6.14421">
        <ele>1877</ele>
        <time>2024-08-13T11:29:06Z</time>
      </trkpt>
      <trkpt lat="44.84329" lon="6.14419">
        <ele>1877</ele>
        <time>2024-08-13T11:29:07Z</time>
      </trkpt>
      <trkpt lat="44.84329" lon="6.14419">
        <ele>1877</ele>
        <time>2024-08-13T11:29:08Z</time>
      </trkpt>
      <trkpt lat="44.84331" lon="6.14418">
        <ele>1877</ele>
        <time>2024-08-13T11:29:09Z</time>
      </trkpt>
      <trkpt lat="44.84331" lon="6.14418">
        <ele>1877.4</ele>
        <time>2024-08-13T11:29:10Z</time>
      </trkpt>
      <trkpt lat="44.84333" lon="6.14416">
        <ele>1877.8</ele>
        <time>2024-08-13T11:29:11Z</time>
      </trkpt>
      <trkpt lat="44.84333" lon="6.14416">
        <ele>1878.2</ele>
        <time>2024-08-13T11:29:12Z</time>
      </trkpt>
      <trkpt lat="44.84333" lon="6.14416">
        <ele>1878.4</ele>
        <time>2024-08-13T11:29:13Z</time>
      </trkpt>
      <trkpt lat="44.84334" lon="6.14414">
        <ele>1878.6</ele>
        <time>2024-08-13T11:29:14Z</time>
      </trkpt>
      <trkpt lat="44.84334" lon="6.14414">
        <ele>1878.6</ele>
        <time>2024-08-13T11:29:15Z</time>
      </trkpt>
      <trkpt lat="44.84334" lon="6.14414">
        <ele>1878.6</ele>
        <time>2024-08-13T11:29:16Z</time>
      </trkpt>
      <trkpt lat="44.84336" lon="6.14411">
        <ele>1879</ele>
        <time>2024-08-13T11:29:17Z</time>
      </trkpt>
      <trkpt lat="44.84336" lon="6.14411">
        <ele>1879.2</ele>
        <time>2024-08-13T11:29:18Z</time>
      </trkpt>
      <trkpt lat="44.84338" lon="6.1441">
        <ele>1879.2</ele>
        <time>2024-08-13T11:29:19Z</time>
      </trkpt>
      <trkpt lat="44.84338" lon="6.1441">
        <ele>1879.6</ele>
        <time>2024-08-13T11:29:20Z</time>
      </trkpt>
      <trkpt lat="44.8434" lon="6.14409">
        <ele>1879.6</ele>
        <time>2024-08-13T11:29:21Z</time>
      </trkpt>
      <trkpt lat="44.8434" lon="6.14409">
        <ele>1879.8</ele>
        <time>2024-08-13T11:29:22Z</time>
      </trkpt>
      <trkpt lat="44.84342" lon="6.14409">
        <ele>1879.8</ele>
        <time>2024-08-13T11:29:23Z</time>
      </trkpt>
      <trkpt lat="44.84342" lon="6.14409">
        <ele>1880</ele>
        <time>2024-08-13T11:29:24Z</time>
      </trkpt>
      <trkpt lat="44.84344" lon="6.14408">
        <ele>1880.2</ele>
        <time>2024-08-13T11:29:25Z</time>
      </trkpt>
      <trkpt lat="44.84344" lon="6.14408">
        <ele>1880.4</ele>
        <time>2024-08-13T11:29:26Z</time>
      </trkpt>
      <trkpt lat="44.84344" lon="6.14408">
        <ele>1880.6</ele>
        <time>2024-08-13T11:29:27Z</time>
      </trkpt>
      <trkpt lat="44.84347" lon="6.14408">
        <ele>1880.6</ele>
        <time>2024-08-13T11:29:28Z</time>
      </trkpt>
      <trkpt lat="44.84347" lon="6.14408">
        <ele>1880.6</ele>
        <time>2024-08-13T11:29:29Z</time>
      </trkpt>
      <trkpt lat="44.84347" lon="6.14408">
        <ele>1881.4</ele>
        <time>2024-08-13T11:29:30Z</time>
      </trkpt>
      <trkpt lat="44.84349" lon="6.14408">
        <ele>1881.6</ele>
        <time>2024-08-13T11:29:31Z</time>
      </trkpt>
      <trkpt lat="44.84349" lon="6.14408">
        <ele>1881.8</ele>
        <time>2024-08-13T11:29:32Z</time>
      </trkpt>
      <trkpt lat="44.84349" lon="6.14408">
        <ele>1881.8</ele>
        <time>2024-08-13T11:29:33Z</time>
      </trkpt>
      <trkpt lat="44.84352" lon="6.14408">
        <ele>1882</ele>
        <time>2024-08-13T11:29:34Z</time>
      </trkpt>
      <trkpt lat="44.84352" lon="6.14408">
        <ele>1882.4</ele>
        <time>2024-08-13T11:29:35Z</time>
      </trkpt>
      <trkpt lat="44.84352" lon="6.14408">
        <ele>1882.4</ele>
        <time>2024-08-13T11:29:36Z</time>
      </trkpt>
      <trkpt lat="44.84355" lon="6.1441">
        <ele>1882.4</ele>
        <time>2024-08-13T11:29:37Z</time>
      </trkpt>
      <trkpt lat="44.84355" lon="6.1441">
        <ele>1882.6</ele>
        <time>2024-08-13T11:29:38Z</time>
      </trkpt>
      <trkpt lat="44.84357" lon="6.1441">
        <ele>1882.8</ele>
        <time>2024-08-13T11:29:39Z</time>
      </trkpt>
      <trkpt lat="44.84357" lon="6.1441">
        <ele>1882.8</ele>
        <time>2024-08-13T11:29:40Z</time>
      </trkpt>
      <trkpt lat="44.84359" lon="6.14411">
        <ele>1883.2</ele>
        <time>2024-08-13T11:29:41Z</time>
      </trkpt>
      <trkpt lat="44.84359" lon="6.14411">
        <ele>1883.2</ele>
        <time>2024-08-13T11:29:42Z</time>
      </trkpt>
      <trkpt lat="44.84359" lon="6.14411">
        <ele>1883.4</ele>
        <time>2024-08-13T11:29:43Z</time>
      </trkpt>
      <trkpt lat="44.84362" lon="6.14412">
        <ele>1883.4</ele>
        <time>2024-08-13T11:29:44Z</time>
      </trkpt>
      <trkpt lat="44.84362" lon="6.14412">
        <ele>1883.4</ele>
        <time>2024-08-13T11:29:45Z</time>
      </trkpt>
      <trkpt lat="44.84362" lon="6.14412">
        <ele>1883.6</ele>
        <time>2024-08-13T11:29:46Z</time>
      </trkpt>
      <trkpt lat="44.84362" lon="6.14412">
        <ele>1883.8</ele>
        <time>2024-08-13T11:29:47Z</time>
      </trkpt>
      <trkpt lat="44.84364" lon="6.14414">
        <ele>1884</ele>
        <time>2024-08-13T11:29:48Z</time>
      </trkpt>
      <trkpt lat="44.84364" lon="6.14414">
        <ele>1884.4</ele>
        <time>2024-08-13T11:29:49Z</time>
      </trkpt>
      <trkpt lat="44.84364" lon="6.14414">
        <ele>1884.4</ele>
        <time>2024-08-13T11:29:50Z</time>
      </trkpt>
      <trkpt lat="44.84366" lon="6.14416">
        <ele>1884.4</ele>
        <time>2024-08-13T11:29:51Z</time>
      </trkpt>
      <trkpt lat="44.84366" lon="6.14416">
        <ele>1884.6</ele>
        <time>2024-08-13T11:29:52Z</time>
      </trkpt>
      <trkpt lat="44.84367" lon="6.14418">
        <ele>1884.8</ele>
        <time>2024-08-13T11:29:53Z</time>
      </trkpt>
      <trkpt lat="44.84367" lon="6.14418">
        <ele>1885</ele>
        <time>2024-08-13T11:29:54Z</time>
      </trkpt>
      <trkpt lat="44.84367" lon="6.14418">
        <ele>1885.4</ele>
        <time>2024-08-13T11:29:55Z</time>
      </trkpt>
      <trkpt lat="44.84367" lon="6.14418">
        <ele>1885.4</ele>
        <time>2024-08-13T11:29:56Z</time>
      </trkpt>
      <trkpt lat="44.84369" lon="6.1442">
        <ele>1885.4</ele>
        <time>2024-08-13T11:29:57Z</time>
      </trkpt>
      <trkpt lat="44.84369" lon="6.1442">
        <ele>1886</ele>
        <time>2024-08-13T11:29:58Z</time>
      </trkpt>
      <trkpt lat="44.84371" lon="6.14422">
        <ele>1886.2</ele>
        <time>2024-08-13T11:29:59Z</time>
      </trkpt>
      <trkpt lat="44.84371" lon="6.14422">
        <ele>1886.2</ele>
        <time>2024-08-13T11:30:00Z</time>
      </trkpt>
      <trkpt lat="44.84371" lon="6.14422">
        <ele>1886.2</ele>
        <time>2024-08-13T11:30:01Z</time>
      </trkpt>
      <trkpt lat="44.84372" lon="6.14424">
        <ele>1886.6</ele>
        <time>2024-08-13T11:30:02Z</time>
      </trkpt>
      <trkpt lat="44.84372" lon="6.14424">
        <ele>1886.8</ele>
        <time>2024-08-13T11:30:03Z</time>
      </trkpt>
      <trkpt lat="44.84372" lon="6.14424">
        <ele>1886.8</ele>
        <time>2024-08-13T11:30:04Z</time>
      </trkpt>
      <trkpt lat="44.84373" lon="6.14426">
        <ele>1886.8</ele>
        <time>2024-08-13T11:30:05Z</time>
      </trkpt>
      <trkpt lat="44.84375" lon="6.14426">
        <ele>1887</ele>
        <time>2024-08-13T11:30:06Z</time>
      </trkpt>
      <trkpt lat="44.84375" lon="6.14426">
        <ele>1887.2</ele>
        <time>2024-08-13T11:30:07Z</time>
      </trkpt>
      <trkpt lat="44.84377" lon="6.14426">
        <ele>1887.4</ele>
        <time>2024-08-13T11:30:08Z</time>
      </trkpt>
      <trkpt lat="44.84377" lon="6.14426">
        <ele>1887.6</ele>
        <time>2024-08-13T11:30:09Z</time>
      </trkpt>
      <trkpt lat="44.84377" lon="6.14426">
        <ele>1887.8</ele>
        <time>2024-08-13T11:30:10Z</time>
      </trkpt>
      <trkpt lat="44.8438" lon="6.14426">
        <ele>1888.2</ele>
        <time>2024-08-13T11:30:11Z</time>
      </trkpt>
      <trkpt lat="44.8438" lon="6.14426">
        <ele>1888.4</ele>
        <time>2024-08-13T11:30:12Z</time>
      </trkpt>
      <trkpt lat="44.8438" lon="6.14426">
        <ele>1888.6</ele>
        <time>2024-08-13T11:30:13Z</time>
      </trkpt>
      <trkpt lat="44.84381" lon="6.14425">
        <ele>1889</ele>
        <time>2024-08-13T11:30:14Z</time>
      </trkpt>
      <trkpt lat="44.84381" lon="6.14425">
        <ele>1889</ele>
        <time>2024-08-13T11:30:15Z</time>
      </trkpt>
      <trkpt lat="44.84381" lon="6.14425">
        <ele>1889.6</ele>
        <time>2024-08-13T11:30:16Z</time>
      </trkpt>
      <trkpt lat="44.84383" lon="6.14424">
        <ele>1889.6</ele>
        <time>2024-08-13T11:30:17Z</time>
      </trkpt>
      <trkpt lat="44.84383" lon="6.14424">
        <ele>1890</ele>
        <time>2024-08-13T11:30:18Z</time>
      </trkpt>
      <trkpt lat="44.84383" lon="6.14424">
        <ele>1890.2</ele>
        <time>2024-08-13T11:30:19Z</time>
      </trkpt>
      <trkpt lat="44.84385" lon="6.14422">
        <ele>1890.2</ele>
        <time>2024-08-13T11:30:20Z</time>
      </trkpt>
      <trkpt lat="44.84385" lon="6.14422">
        <ele>1890.2</ele>
        <time>2024-08-13T11:30:21Z</time>
      </trkpt>
      <trkpt lat="44.84387" lon="6.14421">
        <ele>1890.2</ele>
        <time>2024-08-13T11:30:22Z</time>
      </trkpt>
      <trkpt lat="44.84387" lon="6.14421">
        <ele>1890.2</ele>
        <time>2024-08-13T11:30:23Z</time>
      </trkpt>
      <trkpt lat="44.84387" lon="6.14421">
        <ele>1890.6</ele>
        <time>2024-08-13T11:30:24Z</time>
      </trkpt>
      <trkpt lat="44.84389" lon="6.1442">
        <ele>1890.6</ele>
        <time>2024-08-13T11:30:25Z</time>
      </trkpt>
      <trkpt lat="44.84389" lon="6.1442">
        <ele>1891</ele>
        <time>2024-08-13T11:30:26Z</time>
      </trkpt>
      <trkpt lat="44.84392" lon="6.14419">
        <ele>1891.2</ele>
        <time>2024-08-13T11:30:27Z</time>
      </trkpt>
      <trkpt lat="44.84392" lon="6.14419">
        <ele>1891.2</ele>
        <time>2024-08-13T11:30:28Z</time>
      </trkpt>
      <trkpt lat="44.84395" lon="6.14419">
        <ele>1891.6</ele>
        <time>2024-08-13T11:30:29Z</time>
      </trkpt>
      <trkpt lat="44.84395" lon="6.14419">
        <ele>1891.6</ele>
        <time>2024-08-13T11:30:30Z</time>
      </trkpt>
      <trkpt lat="44.84397" lon="6.14419">
        <ele>1891.6</ele>
        <time>2024-08-13T11:30:31Z</time>
      </trkpt>
      <trkpt lat="44.84397" lon="6.14419">
        <ele>1891.6</ele>
        <time>2024-08-13T11:30:32Z</time>
      </trkpt>
      <trkpt lat="44.84399" lon="6.14419">
        <ele>1892</ele>
        <time>2024-08-13T11:30:33Z</time>
      </trkpt>
      <trkpt lat="44.84399" lon="6.14419">
        <ele>1892</ele>
        <time>2024-08-13T11:30:34Z</time>
      </trkpt>
      <trkpt lat="44.84401" lon="6.14419">
        <ele>1892.2</ele>
        <time>2024-08-13T11:30:35Z</time>
      </trkpt>
      <trkpt lat="44.84401" lon="6.14419">
        <ele>1892.8</ele>
        <time>2024-08-13T11:30:36Z</time>
      </trkpt>
      <trkpt lat="44.84403" lon="6.1442">
        <ele>1893</ele>
        <time>2024-08-13T11:30:37Z</time>
      </trkpt>
      <trkpt lat="44.84403" lon="6.1442">
        <ele>1893</ele>
        <time>2024-08-13T11:30:38Z</time>
      </trkpt>
      <trkpt lat="44.84403" lon="6.1442">
        <ele>1893.2</ele>
        <time>2024-08-13T11:30:39Z</time>
      </trkpt>
      <trkpt lat="44.84406" lon="6.14422">
        <ele>1893.4</ele>
        <time>2024-08-13T11:30:40Z</time>
      </trkpt>
      <trkpt lat="44.84406" lon="6.14422">
        <ele>1893.8</ele>
        <time>2024-08-13T11:30:41Z</time>
      </trkpt>
      <trkpt lat="44.84408" lon="6.14425">
        <ele>1893.8</ele>
        <time>2024-08-13T11:30:42Z</time>
      </trkpt>
      <trkpt lat="44.84408" lon="6.14425">
        <ele>1894</ele>
        <time>2024-08-13T11:30:43Z</time>
      </trkpt>
      <trkpt lat="44.84408" lon="6.14425">
        <ele>1894.2</ele>
        <time>2024-08-13T11:30:44Z</time>
      </trkpt>
      <trkpt lat="44.84411" lon="6.14425">
        <ele>1894.4</ele>
        <time>2024-08-13T11:30:45Z</time>
      </trkpt>
      <trkpt lat="44.84411" lon="6.14425">
        <ele>1895</ele>
        <time>2024-08-13T11:30:46Z</time>
      </trkpt>
      <trkpt lat="44.84413" lon="6.14427">
        <ele>1895</ele>
        <time>2024-08-13T11:30:47Z</time>
      </trkpt>
      <trkpt lat="44.84413" lon="6.14427">
        <ele>1895.4</ele>
        <time>2024-08-13T11:30:48Z</time>
      </trkpt>
      <trkpt lat="44.84415" lon="6.14429">
        <ele>1895.6</ele>
        <time>2024-08-13T11:30:49Z</time>
      </trkpt>
      <trkpt lat="44.84415" lon="6.14429">
        <ele>1895.6</ele>
        <time>2024-08-13T11:30:50Z</time>
      </trkpt>
      <trkpt lat="44.84415" lon="6.14431">
        <ele>1895.8</ele>
        <time>2024-08-13T11:30:51Z</time>
      </trkpt>
      <trkpt lat="44.84415" lon="6.14431">
        <ele>1896</ele>
        <time>2024-08-13T11:30:52Z</time>
      </trkpt>
      <trkpt lat="44.84417" lon="6.14432">
        <ele>1896.2</ele>
        <time>2024-08-13T11:30:53Z</time>
      </trkpt>
      <trkpt lat="44.84417" lon="6.14432">
        <ele>1896.4</ele>
        <time>2024-08-13T11:30:54Z</time>
      </trkpt>
      <trkpt lat="44.84419" lon="6.14433">
        <ele>1896.8</ele>
        <time>2024-08-13T11:30:55Z</time>
      </trkpt>
      <trkpt lat="44.84419" lon="6.14433">
        <ele>1896.8</ele>
        <time>2024-08-13T11:30:56Z</time>
      </trkpt>
      <trkpt lat="44.84419" lon="6.14433">
        <ele>1896.8</ele>
        <time>2024-08-13T11:30:57Z</time>
      </trkpt>
      <trkpt lat="44.84421" lon="6.14434">
        <ele>1897</ele>
        <time>2024-08-13T11:30:58Z</time>
      </trkpt>
      <trkpt lat="44.84421" lon="6.14434">
        <ele>1897</ele>
        <time>2024-08-13T11:30:59Z</time>
      </trkpt>
      <trkpt lat="44.84421" lon="6.14434">
        <ele>1897.2</ele>
        <time>2024-08-13T11:31:00Z</time>
      </trkpt>
      <trkpt lat="44.84423" lon="6.14435">
        <ele>1897.6</ele>
        <time>2024-08-13T11:31:01Z</time>
      </trkpt>
      <trkpt lat="44.84423" lon="6.14435">
        <ele>1898</ele>
        <time>2024-08-13T11:31:02Z</time>
      </trkpt>
      <trkpt lat="44.84425" lon="6.14436">
        <ele>1898</ele>
        <time>2024-08-13T11:31:03Z</time>
      </trkpt>
      <trkpt lat="44.84425" lon="6.14436">
        <ele>1898</ele>
        <time>2024-08-13T11:31:04Z</time>
      </trkpt>
      <trkpt lat="44.84425" lon="6.14436">
        <ele>1898.4</ele>
        <time>2024-08-13T11:31:05Z</time>
      </trkpt>
      <trkpt lat="44.84427" lon="6.14438">
        <ele>1898.4</ele>
        <time>2024-08-13T11:31:06Z</time>
      </trkpt>
      <trkpt lat="44.84427" lon="6.14438">
        <ele>1898.6</ele>
        <time>2024-08-13T11:31:07Z</time>
      </trkpt>
      <trkpt lat="44.84427" lon="6.14438">
        <ele>1898.8</ele>
        <time>2024-08-13T11:31:08Z</time>
      </trkpt>
      <trkpt lat="44.84428" lon="6.1444">
        <ele>1899</ele>
        <time>2024-08-13T11:31:09Z</time>
      </trkpt>
      <trkpt lat="44.84428" lon="6.1444">
        <ele>1899.2</ele>
        <time>2024-08-13T11:31:10Z</time>
      </trkpt>
      <trkpt lat="44.84428" lon="6.1444">
        <ele>1899.4</ele>
        <time>2024-08-13T11:31:11Z</time>
      </trkpt>
      <trkpt lat="44.84431" lon="6.14441">
        <ele>1899.6</ele>
        <time>2024-08-13T11:31:12Z</time>
      </trkpt>
      <trkpt lat="44.84431" lon="6.14441">
        <ele>1899.6</ele>
        <time>2024-08-13T11:31:13Z</time>
      </trkpt>
      <trkpt lat="44.84431" lon="6.14441">
        <ele>1899.8</ele>
        <time>2024-08-13T11:31:14Z</time>
      </trkpt>
      <trkpt lat="44.84433" lon="6.14442">
        <ele>1900</ele>
        <time>2024-08-13T11:31:15Z</time>
      </trkpt>
      <trkpt lat="44.84433" lon="6.14442">
        <ele>1900.2</ele>
        <time>2024-08-13T11:31:16Z</time>
      </trkpt>
      <trkpt lat="44.84435" lon="6.14443">
        <ele>1900.4</ele>
        <time>2024-08-13T11:31:17Z</time>
      </trkpt>
      <trkpt lat="44.84435" lon="6.14443">
        <ele>1900.6</ele>
        <time>2024-08-13T11:31:18Z</time>
      </trkpt>
      <trkpt lat="44.84437" lon="6.14443">
        <ele>1900.8</ele>
        <time>2024-08-13T11:31:19Z</time>
      </trkpt>
      <trkpt lat="44.84437" lon="6.14443">
        <ele>1901</ele>
        <time>2024-08-13T11:31:20Z</time>
      </trkpt>
      <trkpt lat="44.84439" lon="6.14445">
        <ele>1901.2</ele>
        <time>2024-08-13T11:31:21Z</time>
      </trkpt>
      <trkpt lat="44.84439" lon="6.14445">
        <ele>1901.4</ele>
        <time>2024-08-13T11:31:22Z</time>
      </trkpt>
      <trkpt lat="44.84439" lon="6.14445">
        <ele>1901.6</ele>
        <time>2024-08-13T11:31:23Z</time>
      </trkpt>
      <trkpt lat="44.84441" lon="6.14447">
        <ele>1902</ele>
        <time>2024-08-13T11:31:24Z</time>
      </trkpt>
      <trkpt lat="44.84441" lon="6.14447">
        <ele>1902.2</ele>
        <time>2024-08-13T11:31:25Z</time>
      </trkpt>
      <trkpt lat="44.84442" lon="6.14449">
        <ele>1902.4</ele>
        <time>2024-08-13T11:31:26Z</time>
      </trkpt>
      <trkpt lat="44.84442" lon="6.14449">
        <ele>1902.8</ele>
        <time>2024-08-13T11:31:27Z</time>
      </trkpt>
      <trkpt lat="44.84442" lon="6.14449">
        <ele>1902.8</ele>
        <time>2024-08-13T11:31:28Z</time>
      </trkpt>
      <trkpt lat="44.84444" lon="6.14452">
        <ele>1902.8</ele>
        <time>2024-08-13T11:31:29Z</time>
      </trkpt>
      <trkpt lat="44.84444" lon="6.14452">
        <ele>1903.2</ele>
        <time>2024-08-13T11:31:30Z</time>
      </trkpt>
      <trkpt lat="44.84444" lon="6.14452">
        <ele>1903.2</ele>
        <time>2024-08-13T11:31:31Z</time>
      </trkpt>
      <trkpt lat="44.84446" lon="6.14454">
        <ele>1903.4</ele>
        <time>2024-08-13T11:31:32Z</time>
      </trkpt>
      <trkpt lat="44.84446" lon="6.14454">
        <ele>1903.6</ele>
        <time>2024-08-13T11:31:33Z</time>
      </trkpt>
      <trkpt lat="44.84446" lon="6.14454">
        <ele>1903.8</ele>
        <time>2024-08-13T11:31:34Z</time>
      </trkpt>
      <trkpt lat="44.84447" lon="6.14456">
        <ele>1904</ele>
        <time>2024-08-13T11:31:35Z</time>
      </trkpt>
      <trkpt lat="44.84447" lon="6.14456">
        <ele>1904</ele>
        <time>2024-08-13T11:31:36Z</time>
      </trkpt>
      <trkpt lat="44.84449" lon="6.14457">
        <ele>1904.2</ele>
        <time>2024-08-13T11:31:37Z</time>
      </trkpt>
      <trkpt lat="44.84449" lon="6.14457">
        <ele>1904.2</ele>
        <time>2024-08-13T11:31:38Z</time>
      </trkpt>
      <trkpt lat="44.84449" lon="6.14457">
        <ele>1904.8</ele>
        <time>2024-08-13T11:31:39Z</time>
      </trkpt>
      <trkpt lat="44.84451" lon="6.14459">
        <ele>1905</ele>
        <time>2024-08-13T11:31:40Z</time>
      </trkpt>
      <trkpt lat="44.84451" lon="6.14459">
        <ele>1905.2</ele>
        <time>2024-08-13T11:31:41Z</time>
      </trkpt>
      <trkpt lat="44.84451" lon="6.14459">
        <ele>1905.6</ele>
        <time>2024-08-13T11:31:42Z</time>
      </trkpt>
      <trkpt lat="44.84453" lon="6.14461">
        <ele>1905.6</ele>
        <time>2024-08-13T11:31:43Z</time>
      </trkpt>
      <trkpt lat="44.84453" lon="6.14461">
        <ele>1905.6</ele>
        <time>2024-08-13T11:31:44Z</time>
      </trkpt>
      <trkpt lat="44.84453" lon="6.14461">
        <ele>1906</ele>
        <time>2024-08-13T11:31:45Z</time>
      </trkpt>
      <trkpt lat="44.84454" lon="6.14462">
        <ele>1906</ele>
        <time>2024-08-13T11:31:46Z</time>
      </trkpt>
      <trkpt lat="44.84454" lon="6.14462">
        <ele>1906.2</ele>
        <time>2024-08-13T11:31:47Z</time>
      </trkpt>
      <trkpt lat="44.84454" lon="6.14462">
        <ele>1906.8</ele>
        <time>2024-08-13T11:31:48Z</time>
      </trkpt>
      <trkpt lat="44.84456" lon="6.14464">
        <ele>1906.8</ele>
        <time>2024-08-13T11:31:49Z</time>
      </trkpt>
      <trkpt lat="44.84456" lon="6.14464">
        <ele>1906.8</ele>
        <time>2024-08-13T11:31:50Z</time>
      </trkpt>
      <trkpt lat="44.84456" lon="6.14464">
        <ele>1906.8</ele>
        <time>2024-08-13T11:31:51Z</time>
      </trkpt>
      <trkpt lat="44.84458" lon="6.14466">
        <ele>1907.2</ele>
        <time>2024-08-13T11:31:52Z</time>
      </trkpt>
      <trkpt lat="44.84458" lon="6.14466">
        <ele>1907.4</ele>
        <time>2024-08-13T11:31:53Z</time>
      </trkpt>
      <trkpt lat="44.84458" lon="6.14466">
        <ele>1907.8</ele>
        <time>2024-08-13T11:31:54Z</time>
      </trkpt>
      <trkpt lat="44.84461" lon="6.14467">
        <ele>1908.2</ele>
        <time>2024-08-13T11:31:55Z</time>
      </trkpt>
      <trkpt lat="44.84461" lon="6.14467">
        <ele>1908.2</ele>
        <time>2024-08-13T11:31:56Z</time>
      </trkpt>
      <trkpt lat="44.84462" lon="6.14469">
        <ele>1908.2</ele>
        <time>2024-08-13T11:31:57Z</time>
      </trkpt>
      <trkpt lat="44.84462" lon="6.14469">
        <ele>1908.6</ele>
        <time>2024-08-13T11:31:58Z</time>
      </trkpt>
      <trkpt lat="44.84462" lon="6.14469">
        <ele>1908.6</ele>
        <time>2024-08-13T11:31:59Z</time>
      </trkpt>
      <trkpt lat="44.84465" lon="6.1447">
        <ele>1908.8</ele>
        <time>2024-08-13T11:32:00Z</time>
      </trkpt>
      <trkpt lat="44.84465" lon="6.1447">
        <ele>1908.8</ele>
        <time>2024-08-13T11:32:01Z</time>
      </trkpt>
      <trkpt lat="44.84466" lon="6.14471">
        <ele>1909.4</ele>
        <time>2024-08-13T11:32:02Z</time>
      </trkpt>
      <trkpt lat="44.84466" lon="6.14471">
        <ele>1909.4</ele>
        <time>2024-08-13T11:32:03Z</time>
      </trkpt>
      <trkpt lat="44.84466" lon="6.14471">
        <ele>1909.6</ele>
        <time>2024-08-13T11:32:04Z</time>
      </trkpt>
      <trkpt lat="44.84468" lon="6.14473">
        <ele>1909.8</ele>
        <time>2024-08-13T11:32:05Z</time>
      </trkpt>
      <trkpt lat="44.84468" lon="6.14473">
        <ele>1910</ele>
        <time>2024-08-13T11:32:06Z</time>
      </trkpt>
      <trkpt lat="44.8447" lon="6.14474">
        <ele>1910.4</ele>
        <time>2024-08-13T11:32:07Z</time>
      </trkpt>
      <trkpt lat="44.8447" lon="6.14474">
        <ele>1910.6</ele>
        <time>2024-08-13T11:32:08Z</time>
      </trkpt>
      <trkpt lat="44.8447" lon="6.14474">
        <ele>1910.8</ele>
        <time>2024-08-13T11:32:09Z</time>
      </trkpt>
      <trkpt lat="44.8447" lon="6.14474">
        <ele>1911.2</ele>
        <time>2024-08-13T11:32:10Z</time>
      </trkpt>
      <trkpt lat="44.8447" lon="6.14474">
        <ele>1911.4</ele>
        <time>2024-08-13T11:32:11Z</time>
      </trkpt>
      <trkpt lat="44.84472" lon="6.14476">
        <ele>1911.4</ele>
        <time>2024-08-13T11:32:12Z</time>
      </trkpt>
      <trkpt lat="44.84472" lon="6.14476">
        <ele>1911.8</ele>
        <time>2024-08-13T11:32:13Z</time>
      </trkpt>
      <trkpt lat="44.84474" lon="6.14477">
        <ele>1912</ele>
        <time>2024-08-13T11:32:14Z</time>
      </trkpt>
      <trkpt lat="44.84474" lon="6.14477">
        <ele>1912.2</ele>
        <time>2024-08-13T11:32:15Z</time>
      </trkpt>
      <trkpt lat="44.84474" lon="6.14477">
        <ele>1912.6</ele>
        <time>2024-08-13T11:32:16Z</time>
      </trkpt>
      <trkpt lat="44.84477" lon="6.14478">
        <ele>1912.8</ele>
        <time>2024-08-13T11:32:17Z</time>
      </trkpt>
      <trkpt lat="44.84477" lon="6.14478">
        <ele>1913</ele>
        <time>2024-08-13T11:32:18Z</time>
      </trkpt>
      <trkpt lat="44.8448" lon="6.14478">
        <ele>1913</ele>
        <time>2024-08-13T11:32:19Z</time>
      </trkpt>
      <trkpt lat="44.8448" lon="6.14478">
        <ele>1913.2</ele>
        <time>2024-08-13T11:32:20Z</time>
      </trkpt>
      <trkpt lat="44.8448" lon="6.14478">
        <ele>1913.2</ele>
        <time>2024-08-13T11:32:21Z</time>
      </trkpt>
      <trkpt lat="44.84481" lon="6.14481">
        <ele>1913.2</ele>
        <time>2024-08-13T11:32:22Z</time>
      </trkpt>
      <trkpt lat="44.84481" lon="6.14481">
        <ele>1913.4</ele>
        <time>2024-08-13T11:32:23Z</time>
      </trkpt>
      <trkpt lat="44.84481" lon="6.14481">
        <ele>1913.4</ele>
        <time>2024-08-13T11:32:24Z</time>
      </trkpt>
      <trkpt lat="44.84481" lon="6.14484">
        <ele>1913.6</ele>
        <time>2024-08-13T11:32:25Z</time>
      </trkpt>
      <trkpt lat="44.84481" lon="6.14484">
        <ele>1914</ele>
        <time>2024-08-13T11:32:26Z</time>
      </trkpt>
      <trkpt lat="44.84478" lon="6.14484">
        <ele>1914</ele>
        <time>2024-08-13T11:32:27Z</time>
      </trkpt>
      <trkpt lat="44.84478" lon="6.14484">
        <ele>1914.2</ele>
        <time>2024-08-13T11:32:28Z</time>
      </trkpt>
      <trkpt lat="44.84475" lon="6.14485">
        <ele>1914.2</ele>
        <time>2024-08-13T11:32:29Z</time>
      </trkpt>
      <trkpt lat="44.84475" lon="6.14485">
        <ele>1914.4</ele>
        <time>2024-08-13T11:32:30Z</time>
      </trkpt>
      <trkpt lat="44.84473" lon="6.14486">
        <ele>1914.4</ele>
        <time>2024-08-13T11:32:31Z</time>
      </trkpt>
      <trkpt lat="44.84473" lon="6.14486">
        <ele>1914.4</ele>
        <time>2024-08-13T11:32:32Z</time>
      </trkpt>
      <trkpt lat="44.84473" lon="6.14486">
        <ele>1915.2</ele>
        <time>2024-08-13T11:32:33Z</time>
      </trkpt>
      <trkpt lat="44.84473" lon="6.14486">
        <ele>1915.6</ele>
        <time>2024-08-13T11:32:34Z</time>
      </trkpt>
      <trkpt lat="44.84473" lon="6.14486">
        <ele>1915.6</ele>
        <time>2024-08-13T11:32:35Z</time>
      </trkpt>
      <trkpt lat="44.84473" lon="6.14486">
        <ele>1915.8</ele>
        <time>2024-08-13T11:32:36Z</time>
      </trkpt>
      <trkpt lat="44.84473" lon="6.14486">
        <ele>1915.8</ele>
        <time>2024-08-13T11:32:37Z</time>
      </trkpt>
      <trkpt lat="44.84473" lon="6.14486">
        <ele>1915.8</ele>
        <time>2024-08-13T11:32:38Z</time>
      </trkpt>
      <trkpt lat="44.84473" lon="6.14486">
        <ele>1915.8</ele>
        <time>2024-08-13T11:32:39Z</time>
      </trkpt>
      <trkpt lat="44.84473" lon="6.14486">
        <ele>1915.8</ele>
        <time>2024-08-13T11:32:40Z</time>
      </trkpt>
      <trkpt lat="44.84476" lon="6.14486">
        <ele>1915.6</ele>
        <time>2024-08-13T11:32:41Z</time>
      </trkpt>
      <trkpt lat="44.84478" lon="6.14486">
        <ele>1915.6</ele>
        <time>2024-08-13T11:32:42Z</time>
      </trkpt>
      <trkpt lat="44.84478" lon="6.14486">
        <ele>1916</ele>
        <time>2024-08-13T11:32:43Z</time>
      </trkpt>
      <trkpt lat="44.84478" lon="6.14486">
        <ele>1916.2</ele>
        <time>2024-08-13T11:32:44Z</time>
      </trkpt>
      <trkpt lat="44.8448" lon="6.14487">
        <ele>1916.4</ele>
        <time>2024-08-13T11:32:45Z</time>
      </trkpt>
      <trkpt lat="44.8448" lon="6.14487">
        <ele>1916.8</ele>
        <time>2024-08-13T11:32:46Z</time>
      </trkpt>
      <trkpt lat="44.8448" lon="6.14487">
        <ele>1916.8</ele>
        <time>2024-08-13T11:32:47Z</time>
      </trkpt>
      <trkpt lat="44.84483" lon="6.14489">
        <ele>1916.8</ele>
        <time>2024-08-13T11:32:48Z</time>
      </trkpt>
      <trkpt lat="44.84483" lon="6.14489">
        <ele>1917</ele>
        <time>2024-08-13T11:32:49Z</time>
      </trkpt>
      <trkpt lat="44.84483" lon="6.14489">
        <ele>1917.4</ele>
        <time>2024-08-13T11:32:50Z</time>
      </trkpt>
      <trkpt lat="44.84483" lon="6.14489">
        <ele>1917.8</ele>
        <time>2024-08-13T11:32:51Z</time>
      </trkpt>
      <trkpt lat="44.84485" lon="6.1449">
        <ele>1918</ele>
        <time>2024-08-13T11:32:52Z</time>
      </trkpt>
      <trkpt lat="44.84485" lon="6.1449">
        <ele>1918</ele>
        <time>2024-08-13T11:32:53Z</time>
      </trkpt>
      <trkpt lat="44.84487" lon="6.14491">
        <ele>1918.2</ele>
        <time>2024-08-13T11:32:54Z</time>
      </trkpt>
      <trkpt lat="44.84487" lon="6.14491">
        <ele>1918.2</ele>
        <time>2024-08-13T11:32:55Z</time>
      </trkpt>
      <trkpt lat="44.84489" lon="6.14492">
        <ele>1918.4</ele>
        <time>2024-08-13T11:32:56Z</time>
      </trkpt>
      <trkpt lat="44.84489" lon="6.14492">
        <ele>1918.4</ele>
        <time>2024-08-13T11:32:57Z</time>
      </trkpt>
      <trkpt lat="44.84491" lon="6.14494">
        <ele>1918.6</ele>
        <time>2024-08-13T11:32:58Z</time>
      </trkpt>
      <trkpt lat="44.84491" lon="6.14494">
        <ele>1918.6</ele>
        <time>2024-08-13T11:32:59Z</time>
      </trkpt>
      <trkpt lat="44.84491" lon="6.14494">
        <ele>1918.8</ele>
        <time>2024-08-13T11:33:00Z</time>
      </trkpt>
      <trkpt lat="44.84493" lon="6.14495">
        <ele>1919.2</ele>
        <time>2024-08-13T11:33:01Z</time>
      </trkpt>
      <trkpt lat="44.84493" lon="6.14495">
        <ele>1919.2</ele>
        <time>2024-08-13T11:33:02Z</time>
      </trkpt>
      <trkpt lat="44.84494" lon="6.14497">
        <ele>1919.4</ele>
        <time>2024-08-13T11:33:03Z</time>
      </trkpt>
      <trkpt lat="44.84494" lon="6.14497">
        <ele>1919.6</ele>
        <time>2024-08-13T11:33:04Z</time>
      </trkpt>
      <trkpt lat="44.84494" lon="6.14497">
        <ele>1919.8</ele>
        <time>2024-08-13T11:33:05Z</time>
      </trkpt>
      <trkpt lat="44.84496" lon="6.145">
        <ele>1920</ele>
        <time>2024-08-13T11:33:06Z</time>
      </trkpt>
      <trkpt lat="44.84496" lon="6.145">
        <ele>1920.2</ele>
        <time>2024-08-13T11:33:07Z</time>
      </trkpt>
      <trkpt lat="44.84498" lon="6.14501">
        <ele>1920.8</ele>
        <time>2024-08-13T11:33:08Z</time>
      </trkpt>
      <trkpt lat="44.84498" lon="6.14501">
        <ele>1921</ele>
        <time>2024-08-13T11:33:09Z</time>
      </trkpt>
      <trkpt lat="44.84499" lon="6.14503">
        <ele>1921.2</ele>
        <time>2024-08-13T11:33:10Z</time>
      </trkpt>
      <trkpt lat="44.84499" lon="6.14503">
        <ele>1921.4</ele>
        <time>2024-08-13T11:33:11Z</time>
      </trkpt>
      <trkpt lat="44.84502" lon="6.14504">
        <ele>1921.4</ele>
        <time>2024-08-13T11:33:12Z</time>
      </trkpt>
      <trkpt lat="44.84502" lon="6.14504">
        <ele>1921.6</ele>
        <time>2024-08-13T11:33:13Z</time>
      </trkpt>
      <trkpt lat="44.84504" lon="6.14505">
        <ele>1921.6</ele>
        <time>2024-08-13T11:33:14Z</time>
      </trkpt>
      <trkpt lat="44.84504" lon="6.14505">
        <ele>1922</ele>
        <time>2024-08-13T11:33:15Z</time>
      </trkpt>
      <trkpt lat="44.84506" lon="6.14506">
        <ele>1922.2</ele>
        <time>2024-08-13T11:33:16Z</time>
      </trkpt>
      <trkpt lat="44.84506" lon="6.14506">
        <ele>1922.6</ele>
        <time>2024-08-13T11:33:17Z</time>
      </trkpt>
      <trkpt lat="44.84509" lon="6.14507">
        <ele>1922.8</ele>
        <time>2024-08-13T11:33:18Z</time>
      </trkpt>
      <trkpt lat="44.84509" lon="6.14507">
        <ele>1922.8</ele>
        <time>2024-08-13T11:33:19Z</time>
      </trkpt>
      <trkpt lat="44.8451" lon="6.14509">
        <ele>1923</ele>
        <time>2024-08-13T11:33:20Z</time>
      </trkpt>
      <trkpt lat="44.8451" lon="6.14509">
        <ele>1923.2</ele>
        <time>2024-08-13T11:33:21Z</time>
      </trkpt>
      <trkpt lat="44.84512" lon="6.14511">
        <ele>1923.4</ele>
        <time>2024-08-13T11:33:22Z</time>
      </trkpt>
      <trkpt lat="44.84512" lon="6.14511">
        <ele>1923.4</ele>
        <time>2024-08-13T11:33:23Z</time>
      </trkpt>
      <trkpt lat="44.84514" lon="6.14513">
        <ele>1923.6</ele>
        <time>2024-08-13T11:33:24Z</time>
      </trkpt>
      <trkpt lat="44.84514" lon="6.14513">
        <ele>1923.6</ele>
        <time>2024-08-13T11:33:25Z</time>
      </trkpt>
      <trkpt lat="44.84514" lon="6.14513">
        <ele>1923.8</ele>
        <time>2024-08-13T11:33:26Z</time>
      </trkpt>
      <trkpt lat="44.84516" lon="6.14515">
        <ele>1923.8</ele>
        <time>2024-08-13T11:33:27Z</time>
      </trkpt>
      <trkpt lat="44.84516" lon="6.14515">
        <ele>1924.2</ele>
        <time>2024-08-13T11:33:28Z</time>
      </trkpt>
      <trkpt lat="44.84516" lon="6.14515">
        <ele>1924.6</ele>
        <time>2024-08-13T11:33:29Z</time>
      </trkpt>
      <trkpt lat="44.84516" lon="6.14518">
        <ele>1924.8</ele>
        <time>2024-08-13T11:33:30Z</time>
      </trkpt>
      <trkpt lat="44.84516" lon="6.14518">
        <ele>1924.8</ele>
        <time>2024-08-13T11:33:31Z</time>
      </trkpt>
      <trkpt lat="44.84516" lon="6.14518">
        <ele>1925</ele>
        <time>2024-08-13T11:33:32Z</time>
      </trkpt>
      <trkpt lat="44.84516" lon="6.14518">
        <ele>1925.2</ele>
        <time>2024-08-13T11:33:33Z</time>
      </trkpt>
      <trkpt lat="44.84516" lon="6.14518">
        <ele>1925.6</ele>
        <time>2024-08-13T11:33:34Z</time>
      </trkpt>
      <trkpt lat="44.84516" lon="6.14518">
        <ele>1925.6</ele>
        <time>2024-08-13T11:33:35Z</time>
      </trkpt>
      <trkpt lat="44.84516" lon="6.14518">
        <ele>1925.6</ele>
        <time>2024-08-13T11:33:36Z</time>
      </trkpt>
      <trkpt lat="44.84516" lon="6.14518">
        <ele>1925.6</ele>
        <time>2024-08-13T11:33:37Z</time>
      </trkpt>
      <trkpt lat="44.84516" lon="6.14518">
        <ele>1925.4</ele>
        <time>2024-08-13T11:33:38Z</time>
      </trkpt>
      <trkpt lat="44.84516" lon="6.14518">
        <ele>1925.4</ele>
        <time>2024-08-13T11:33:39Z</time>
      </trkpt>
      <trkpt lat="44.84516" lon="6.14518">
        <ele>1925.8</ele>
        <time>2024-08-13T11:33:40Z</time>
      </trkpt>
      <trkpt lat="44.84516" lon="6.14518">
        <ele>1925.8</ele>
        <time>2024-08-13T11:33:41Z</time>
      </trkpt>
      <trkpt lat="44.84516" lon="6.14518">
        <ele>1925.8</ele>
        <time>2024-08-13T11:33:42Z</time>
      </trkpt>
      <trkpt lat="44.84516" lon="6.14518">
        <ele>1926</ele>
        <time>2024-08-13T11:33:43Z</time>
      </trkpt>
      <trkpt lat="44.84516" lon="6.14518">
        <ele>1926</ele>
        <time>2024-08-13T11:33:44Z</time>
      </trkpt>
      <trkpt lat="44.84516" lon="6.14518">
        <ele>1926</ele>
        <time>2024-08-13T11:33:45Z</time>
      </trkpt>
      <trkpt lat="44.84516" lon="6.14518">
        <ele>1926</ele>
        <time>2024-08-13T11:33:46Z</time>
      </trkpt>
      <trkpt lat="44.84516" lon="6.14518">
        <ele>1926</ele>
        <time>2024-08-13T11:33:47Z</time>
      </trkpt>
      <trkpt lat="44.84516" lon="6.14518">
        <ele>1926</ele>
        <time>2024-08-13T11:33:48Z</time>
      </trkpt>
      <trkpt lat="44.84516" lon="6.14518">
        <ele>1926</ele>
        <time>2024-08-13T11:33:49Z</time>
      </trkpt>
      <trkpt lat="44.84516" lon="6.14518">
        <ele>1926</ele>
        <time>2024-08-13T11:33:50Z</time>
      </trkpt>
      <trkpt lat="44.84516" lon="6.14518">
        <ele>1926</ele>
        <time>2024-08-13T11:33:51Z</time>
      </trkpt>
      <trkpt lat="44.84516" lon="6.14518">
        <ele>1926</ele>
        <time>2024-08-13T11:33:52Z</time>
      </trkpt>
      <trkpt lat="44.84516" lon="6.14518">
        <ele>1926.2</ele>
        <time>2024-08-13T11:33:53Z</time>
      </trkpt>
      <trkpt lat="44.84516" lon="6.14518">
        <ele>1926.4</ele>
        <time>2024-08-13T11:33:54Z</time>
      </trkpt>
      <trkpt lat="44.84516" lon="6.14518">
        <ele>1926.4</ele>
        <time>2024-08-13T11:33:55Z</time>
      </trkpt>
      <trkpt lat="44.84516" lon="6.14518">
        <ele>1926.6</ele>
        <time>2024-08-13T11:33:56Z</time>
      </trkpt>
      <trkpt lat="44.84514" lon="6.14518">
        <ele>1926.6</ele>
        <time>2024-08-13T11:33:57Z</time>
      </trkpt>
      <trkpt lat="44.84514" lon="6.14518">
        <ele>1926.8</ele>
        <time>2024-08-13T11:33:58Z</time>
      </trkpt>
      <trkpt lat="44.84512" lon="6.14517">
        <ele>1927</ele>
        <time>2024-08-13T11:33:59Z</time>
      </trkpt>
      <trkpt lat="44.84512" lon="6.14517">
        <ele>1927.2</ele>
        <time>2024-08-13T11:34:00Z</time>
      </trkpt>
      <trkpt lat="44.8451" lon="6.14516">
        <ele>1927.8</ele>
        <time>2024-08-13T11:34:01Z</time>
      </trkpt>
      <trkpt lat="44.8451" lon="6.14516">
        <ele>1928.6</ele>
        <time>2024-08-13T11:34:02Z</time>
      </trkpt>
      <trkpt lat="44.8451" lon="6.14516">
        <ele>1928.6</ele>
        <time>2024-08-13T11:34:03Z</time>
      </trkpt>
      <trkpt lat="44.8451" lon="6.14516">
        <ele>1928.6</ele>
        <time>2024-08-13T11:34:04Z</time>
      </trkpt>
      <trkpt lat="44.84508" lon="6.14515">
        <ele>1928.4</ele>
        <time>2024-08-13T11:34:05Z</time>
      </trkpt>
      <trkpt lat="44.84508" lon="6.14515">
        <ele>1928.4</ele>
        <time>2024-08-13T11:34:06Z</time>
      </trkpt>
      <trkpt lat="44.84508" lon="6.14515">
        <ele>1928.4</ele>
        <time>2024-08-13T11:34:07Z</time>
      </trkpt>
      <trkpt lat="44.84508" lon="6.14515">
        <ele>1928.6</ele>
        <time>2024-08-13T11:34:08Z</time>
      </trkpt>
      <trkpt lat="44.84508" lon="6.14515">
        <ele>1929</ele>
        <time>2024-08-13T11:34:09Z</time>
      </trkpt>
      <trkpt lat="44.84508" lon="6.14515">
        <ele>1929.2</ele>
        <time>2024-08-13T11:34:10Z</time>
      </trkpt>
      <trkpt lat="44.84508" lon="6.14515">
        <ele>1929.2</ele>
        <time>2024-08-13T11:34:11Z</time>
      </trkpt>
      <trkpt lat="44.84508" lon="6.14515">
        <ele>1929.2</ele>
        <time>2024-08-13T11:34:12Z</time>
      </trkpt>
      <trkpt lat="44.84508" lon="6.14515">
        <ele>1929</ele>
        <time>2024-08-13T11:34:13Z</time>
      </trkpt>
      <trkpt lat="44.84508" lon="6.14515">
        <ele>1929</ele>
        <time>2024-08-13T11:34:14Z</time>
      </trkpt>
      <trkpt lat="44.84508" lon="6.14515">
        <ele>1929</ele>
        <time>2024-08-13T11:34:15Z</time>
      </trkpt>
      <trkpt lat="44.84508" lon="6.14515">
        <ele>1929.2</ele>
        <time>2024-08-13T11:34:16Z</time>
      </trkpt>
      <trkpt lat="44.84508" lon="6.14515">
        <ele>1929.2</ele>
        <time>2024-08-13T11:34:17Z</time>
      </trkpt>
      <trkpt lat="44.84506" lon="6.14515">
        <ele>1929.2</ele>
        <time>2024-08-13T11:34:18Z</time>
      </trkpt>
      <trkpt lat="44.84506" lon="6.14515">
        <ele>1929</ele>
        <time>2024-08-13T11:34:19Z</time>
      </trkpt>
      <trkpt lat="44.84503" lon="6.14514">
        <ele>1928.8</ele>
        <time>2024-08-13T11:34:20Z</time>
      </trkpt>
      <trkpt lat="44.84503" lon="6.14514">
        <ele>1928.8</ele>
        <time>2024-08-13T11:34:21Z</time>
      </trkpt>
      <trkpt lat="44.845" lon="6.14513">
        <ele>1928.8</ele>
        <time>2024-08-13T11:34:22Z</time>
      </trkpt>
      <trkpt lat="44.845" lon="6.14513">
        <ele>1928.6</ele>
        <time>2024-08-13T11:34:23Z</time>
      </trkpt>
      <trkpt lat="44.845" lon="6.14513">
        <ele>1928.6</ele>
        <time>2024-08-13T11:34:24Z</time>
      </trkpt>
      <trkpt lat="44.845" lon="6.14513">
        <ele>1928.6</ele>
        <time>2024-08-13T11:34:25Z</time>
      </trkpt>
      <trkpt lat="44.845" lon="6.14513">
        <ele>1929</ele>
        <time>2024-08-13T11:34:26Z</time>
      </trkpt>
      <trkpt lat="44.845" lon="6.14513">
        <ele>1929.4</ele>
        <time>2024-08-13T11:34:27Z</time>
      </trkpt>
      <trkpt lat="44.845" lon="6.14513">
        <ele>1929.6</ele>
        <time>2024-08-13T11:34:28Z</time>
      </trkpt>
      <trkpt lat="44.845" lon="6.14513">
        <ele>1929.6</ele>
        <time>2024-08-13T11:34:29Z</time>
      </trkpt>
      <trkpt lat="44.84501" lon="6.14515">
        <ele>1930</ele>
        <time>2024-08-13T11:34:30Z</time>
      </trkpt>
      <trkpt lat="44.84501" lon="6.14515">
        <ele>1930.8</ele>
        <time>2024-08-13T11:34:31Z</time>
      </trkpt>
      <trkpt lat="44.84501" lon="6.14515">
        <ele>1931</ele>
        <time>2024-08-13T11:34:32Z</time>
      </trkpt>
      <trkpt lat="44.84501" lon="6.14515">
        <ele>1931</ele>
        <time>2024-08-13T11:34:33Z</time>
      </trkpt>
      <trkpt lat="44.84502" lon="6.14516">
        <ele>1931.6</ele>
        <time>2024-08-13T11:34:34Z</time>
      </trkpt>
      <trkpt lat="44.84502" lon="6.14516">
        <ele>1931.6</ele>
        <time>2024-08-13T11:34:35Z</time>
      </trkpt>
      <trkpt lat="44.84502" lon="6.14516">
        <ele>1931.6</ele>
        <time>2024-08-13T11:34:36Z</time>
      </trkpt>
      <trkpt lat="44.84502" lon="6.14516">
        <ele>1931.6</ele>
        <time>2024-08-13T11:34:37Z</time>
      </trkpt>
      <trkpt lat="44.84504" lon="6.14518">
        <ele>1932.2</ele>
        <time>2024-08-13T11:34:38Z</time>
      </trkpt>
      <trkpt lat="44.84504" lon="6.14518">
        <ele>1932.4</ele>
        <time>2024-08-13T11:34:39Z</time>
      </trkpt>
      <trkpt lat="44.84504" lon="6.14518">
        <ele>1932.4</ele>
        <time>2024-08-13T11:34:40Z</time>
      </trkpt>
      <trkpt lat="44.84504" lon="6.14518">
        <ele>1932.8</ele>
        <time>2024-08-13T11:34:41Z</time>
      </trkpt>
      <trkpt lat="44.84506" lon="6.14521">
        <ele>1933</ele>
        <time>2024-08-13T11:34:42Z</time>
      </trkpt>
      <trkpt lat="44.84506" lon="6.14521">
        <ele>1933.2</ele>
        <time>2024-08-13T11:34:43Z</time>
      </trkpt>
      <trkpt lat="44.84509" lon="6.14525">
        <ele>1933.6</ele>
        <time>2024-08-13T11:34:44Z</time>
      </trkpt>
      <trkpt lat="44.84509" lon="6.14525">
        <ele>1933.8</ele>
        <time>2024-08-13T11:34:45Z</time>
      </trkpt>
      <trkpt lat="44.8451" lon="6.14528">
        <ele>1933.6</ele>
        <time>2024-08-13T11:34:46Z</time>
      </trkpt>
      <trkpt lat="44.8451" lon="6.14528">
        <ele>1933.6</ele>
        <time>2024-08-13T11:34:47Z</time>
      </trkpt>
      <trkpt lat="44.84512" lon="6.1453">
        <ele>1934</ele>
        <time>2024-08-13T11:34:48Z</time>
      </trkpt>
      <trkpt lat="44.84512" lon="6.1453">
        <ele>1934</ele>
        <time>2024-08-13T11:34:49Z</time>
      </trkpt>
      <trkpt lat="44.84512" lon="6.1453">
        <ele>1934.2</ele>
        <time>2024-08-13T11:34:50Z</time>
      </trkpt>
      <trkpt lat="44.84514" lon="6.14532">
        <ele>1934.2</ele>
        <time>2024-08-13T11:34:51Z</time>
      </trkpt>
      <trkpt lat="44.84514" lon="6.14532">
        <ele>1934.6</ele>
        <time>2024-08-13T11:34:52Z</time>
      </trkpt>
      <trkpt lat="44.84514" lon="6.14532">
        <ele>1934.8</ele>
        <time>2024-08-13T11:34:53Z</time>
      </trkpt>
      <trkpt lat="44.84516" lon="6.14535">
        <ele>1934.8</ele>
        <time>2024-08-13T11:34:54Z</time>
      </trkpt>
      <trkpt lat="44.84516" lon="6.14535">
        <ele>1935.2</ele>
        <time>2024-08-13T11:34:55Z</time>
      </trkpt>
      <trkpt lat="44.84516" lon="6.14535">
        <ele>1935.6</ele>
        <time>2024-08-13T11:34:56Z</time>
      </trkpt>
      <trkpt lat="44.84516" lon="6.14535">
        <ele>1935.6</ele>
        <time>2024-08-13T11:34:57Z</time>
      </trkpt>
      <trkpt lat="44.84516" lon="6.14535">
        <ele>1935.6</ele>
        <time>2024-08-13T11:34:58Z</time>
      </trkpt>
      <trkpt lat="44.84514" lon="6.14535">
        <ele>1935.6</ele>
        <time>2024-08-13T11:34:59Z</time>
      </trkpt>
      <trkpt lat="44.84514" lon="6.14535">
        <ele>1936.2</ele>
        <time>2024-08-13T11:35:00Z</time>
      </trkpt>
      <trkpt lat="44.84514" lon="6.14535">
        <ele>1936.2</ele>
        <time>2024-08-13T11:35:01Z</time>
      </trkpt>
      <trkpt lat="44.84511" lon="6.14534">
        <ele>1936.4</ele>
        <time>2024-08-13T11:35:02Z</time>
      </trkpt>
      <trkpt lat="44.84511" lon="6.14534">
        <ele>1936.4</ele>
        <time>2024-08-13T11:35:03Z</time>
      </trkpt>
      <trkpt lat="44.84511" lon="6.14534">
        <ele>1936.4</ele>
        <time>2024-08-13T11:35:04Z</time>
      </trkpt>
      <trkpt lat="44.84509" lon="6.14532">
        <ele>1936.2</ele>
        <time>2024-08-13T11:35:05Z</time>
      </trkpt>
      <trkpt lat="44.84509" lon="6.14532">
        <ele>1936.2</ele>
        <time>2024-08-13T11:35:06Z</time>
      </trkpt>
      <trkpt lat="44.84509" lon="6.14532">
        <ele>1936.6</ele>
        <time>2024-08-13T11:35:07Z</time>
      </trkpt>
      <trkpt lat="44.84507" lon="6.14532">
        <ele>1936.6</ele>
        <time>2024-08-13T11:35:08Z</time>
      </trkpt>
      <trkpt lat="44.84507" lon="6.14532">
        <ele>1936.8</ele>
        <time>2024-08-13T11:35:09Z</time>
      </trkpt>
      <trkpt lat="44.84507" lon="6.14532">
        <ele>1937.2</ele>
        <time>2024-08-13T11:35:10Z</time>
      </trkpt>
      <trkpt lat="44.84504" lon="6.1453">
        <ele>1937.2</ele>
        <time>2024-08-13T11:35:11Z</time>
      </trkpt>
      <trkpt lat="44.84504" lon="6.1453">
        <ele>1937.2</ele>
        <time>2024-08-13T11:35:12Z</time>
      </trkpt>
      <trkpt lat="44.84502" lon="6.14529">
        <ele>1937.4</ele>
        <time>2024-08-13T11:35:13Z</time>
      </trkpt>
      <trkpt lat="44.84502" lon="6.14529">
        <ele>1937.8</ele>
        <time>2024-08-13T11:35:14Z</time>
      </trkpt>
      <trkpt lat="44.845" lon="6.14529">
        <ele>1937.8</ele>
        <time>2024-08-13T11:35:15Z</time>
      </trkpt>
      <trkpt lat="44.845" lon="6.14529">
        <ele>1938.4</ele>
        <time>2024-08-13T11:35:16Z</time>
      </trkpt>
      <trkpt lat="44.84498" lon="6.14529">
        <ele>1938.6</ele>
        <time>2024-08-13T11:35:17Z</time>
      </trkpt>
      <trkpt lat="44.84498" lon="6.14529">
        <ele>1938.6</ele>
        <time>2024-08-13T11:35:18Z</time>
      </trkpt>
      <trkpt lat="44.84498" lon="6.14529">
        <ele>1938.6</ele>
        <time>2024-08-13T11:35:19Z</time>
      </trkpt>
      <trkpt lat="44.84495" lon="6.14529">
        <ele>1938.6</ele>
        <time>2024-08-13T11:35:20Z</time>
      </trkpt>
      <trkpt lat="44.84495" lon="6.14529">
        <ele>1939</ele>
        <time>2024-08-13T11:35:21Z</time>
      </trkpt>
      <trkpt lat="44.84493" lon="6.14531">
        <ele>1939</ele>
        <time>2024-08-13T11:35:22Z</time>
      </trkpt>
      <trkpt lat="44.84493" lon="6.14531">
        <ele>1939.2</ele>
        <time>2024-08-13T11:35:23Z</time>
      </trkpt>
      <trkpt lat="44.84492" lon="6.14533">
        <ele>1939.4</ele>
        <time>2024-08-13T11:35:24Z</time>
      </trkpt>
      <trkpt lat="44.84492" lon="6.14533">
        <ele>1939.6</ele>
        <time>2024-08-13T11:35:25Z</time>
      </trkpt>
      <trkpt lat="44.84491" lon="6.14536">
        <ele>1939.8</ele>
        <time>2024-08-13T11:35:26Z</time>
      </trkpt>
      <trkpt lat="44.84491" lon="6.14536">
        <ele>1939.8</ele>
        <time>2024-08-13T11:35:27Z</time>
      </trkpt>
      <trkpt lat="44.8449" lon="6.14539">
        <ele>1940.2</ele>
        <time>2024-08-13T11:35:28Z</time>
      </trkpt>
      <trkpt lat="44.8449" lon="6.14539">
        <ele>1940.2</ele>
        <time>2024-08-13T11:35:29Z</time>
      </trkpt>
      <trkpt lat="44.8449" lon="6.14542">
        <ele>1940.4</ele>
        <time>2024-08-13T11:35:30Z</time>
      </trkpt>
      <trkpt lat="44.8449" lon="6.14542">
        <ele>1940.4</ele>
        <time>2024-08-13T11:35:31Z</time>
      </trkpt>
      <trkpt lat="44.84489" lon="6.14546">
        <ele>1940.6</ele>
        <time>2024-08-13T11:35:32Z</time>
      </trkpt>
      <trkpt lat="44.84489" lon="6.14546">
        <ele>1940.6</ele>
        <time>2024-08-13T11:35:33Z</time>
      </trkpt>
      <trkpt lat="44.84489" lon="6.14546">
        <ele>1940.8</ele>
        <time>2024-08-13T11:35:34Z</time>
      </trkpt>
      <trkpt lat="44.84489" lon="6.14546">
        <ele>1941</ele>
        <time>2024-08-13T11:35:35Z</time>
      </trkpt>
      <trkpt lat="44.84489" lon="6.14546">
        <ele>1941.2</ele>
        <time>2024-08-13T11:35:36Z</time>
      </trkpt>
      <trkpt lat="44.84489" lon="6.14546">
        <ele>1941.2</ele>
        <time>2024-08-13T11:35:37Z</time>
      </trkpt>
      <trkpt lat="44.84489" lon="6.14546">
        <ele>1941.2</ele>
        <time>2024-08-13T11:35:38Z</time>
      </trkpt>
      <trkpt lat="44.84489" lon="6.14546">
        <ele>1941.4</ele>
        <time>2024-08-13T11:35:39Z</time>
      </trkpt>
      <trkpt lat="44.84489" lon="6.14546">
        <ele>1941.4</ele>
        <time>2024-08-13T11:35:40Z</time>
      </trkpt>
      <trkpt lat="44.84489" lon="6.14546">
        <ele>1941</ele>
        <time>2024-08-13T11:35:41Z</time>
      </trkpt>
      <trkpt lat="44.84489" lon="6.14546">
        <ele>1941</ele>
        <time>2024-08-13T11:35:42Z</time>
      </trkpt>
      <trkpt lat="44.84489" lon="6.14546">
        <ele>1941.2</ele>
        <time>2024-08-13T11:35:43Z</time>
      </trkpt>
      <trkpt lat="44.84489" lon="6.14546">
        <ele>1941.2</ele>
        <time>2024-08-13T11:35:44Z</time>
      </trkpt>
      <trkpt lat="44.84489" lon="6.14546">
        <ele>1941</ele>
        <time>2024-08-13T11:35:45Z</time>
      </trkpt>
      <trkpt lat="44.84489" lon="6.14546">
        <ele>1941</ele>
        <time>2024-08-13T11:35:46Z</time>
      </trkpt>
      <trkpt lat="44.84489" lon="6.14546">
        <ele>1941</ele>
        <time>2024-08-13T11:35:47Z</time>
      </trkpt>
      <trkpt lat="44.84489" lon="6.14546">
        <ele>1941</ele>
        <time>2024-08-13T11:35:48Z</time>
      </trkpt>
      <trkpt lat="44.84489" lon="6.14546">
        <ele>1940.6</ele>
        <time>2024-08-13T11:35:49Z</time>
      </trkpt>
      <trkpt lat="44.84489" lon="6.14546">
        <ele>1940.6</ele>
        <time>2024-08-13T11:35:50Z</time>
      </trkpt>
      <trkpt lat="44.84489" lon="6.14546">
        <ele>1940.8</ele>
        <time>2024-08-13T11:35:51Z</time>
      </trkpt>
      <trkpt lat="44.84489" lon="6.14546">
        <ele>1940.8</ele>
        <time>2024-08-13T11:35:52Z</time>
      </trkpt>
      <trkpt lat="44.84489" lon="6.14546">
        <ele>1940.6</ele>
        <time>2024-08-13T11:35:53Z</time>
      </trkpt>
      <trkpt lat="44.84489" lon="6.14546">
        <ele>1940.6</ele>
        <time>2024-08-13T11:35:54Z</time>
      </trkpt>
      <trkpt lat="44.84489" lon="6.14546">
        <ele>1940.8</ele>
        <time>2024-08-13T11:35:55Z</time>
      </trkpt>
      <trkpt lat="44.84489" lon="6.14546">
        <ele>1940.8</ele>
        <time>2024-08-13T11:35:56Z</time>
      </trkpt>
      <trkpt lat="44.84489" lon="6.14546">
        <ele>1940.8</ele>
        <time>2024-08-13T11:35:57Z</time>
      </trkpt>
      <trkpt lat="44.84489" lon="6.14546">
        <ele>1940.8</ele>
        <time>2024-08-13T11:35:58Z</time>
      </trkpt>
      <trkpt lat="44.84489" lon="6.14546">
        <ele>1940.8</ele>
        <time>2024-08-13T11:35:59Z</time>
      </trkpt>
      <trkpt lat="44.84489" lon="6.14546">
        <ele>1940.8</ele>
        <time>2024-08-13T11:36:00Z</time>
      </trkpt>
      <trkpt lat="44.84489" lon="6.14546">
        <ele>1940.8</ele>
        <time>2024-08-13T11:36:01Z</time>
      </trkpt>
      <trkpt lat="44.84489" lon="6.14546">
        <ele>1940.8</ele>
        <time>2024-08-13T11:36:02Z</time>
      </trkpt>
      <trkpt lat="44.84489" lon="6.14546">
        <ele>1940.8</ele>
        <time>2024-08-13T11:36:03Z</time>
      </trkpt>
      <trkpt lat="44.84489" lon="6.14546">
        <ele>1940.8</ele>
        <time>2024-08-13T11:36:04Z</time>
      </trkpt>
      <trkpt lat="44.84489" lon="6.14546">
        <ele>1940.6</ele>
        <time>2024-08-13T11:36:05Z</time>
      </trkpt>
      <trkpt lat="44.84489" lon="6.14546">
        <ele>1940.4</ele>
        <time>2024-08-13T11:36:06Z</time>
      </trkpt>
      <trkpt lat="44.84489" lon="6.14546">
        <ele>1940.4</ele>
        <time>2024-08-13T11:36:07Z</time>
      </trkpt>
      <trkpt lat="44.84489" lon="6.14546">
        <ele>1940.4</ele>
        <time>2024-08-13T11:36:08Z</time>
      </trkpt>
      <trkpt lat="44.84489" lon="6.14546">
        <ele>1940.4</ele>
        <time>2024-08-13T11:36:09Z</time>
      </trkpt>
      <trkpt lat="44.84489" lon="6.14546">
        <ele>1940.4</ele>
        <time>2024-08-13T11:36:10Z</time>
      </trkpt>
      <trkpt lat="44.84489" lon="6.14546">
        <ele>1940.4</ele>
        <time>2024-08-13T11:36:11Z</time>
      </trkpt>
      <trkpt lat="44.84489" lon="6.14546">
        <ele>1940.4</ele>
        <time>2024-08-13T11:36:12Z</time>
      </trkpt>
      <trkpt lat="44.84489" lon="6.14546">
        <ele>1940.4</ele>
        <time>2024-08-13T11:36:13Z</time>
      </trkpt>
      <trkpt lat="44.84489" lon="6.14546">
        <ele>1940.4</ele>
        <time>2024-08-13T11:36:14Z</time>
      </trkpt>
      <trkpt lat="44.84489" lon="6.14546">
        <ele>1940.2</ele>
        <time>2024-08-13T11:36:15Z</time>
      </trkpt>
      <trkpt lat="44.84489" lon="6.14546">
        <ele>1940.2</ele>
        <time>2024-08-13T11:36:16Z</time>
      </trkpt>
      <trkpt lat="44.84489" lon="6.14546">
        <ele>1940.4</ele>
        <time>2024-08-13T11:36:17Z</time>
      </trkpt>
      <trkpt lat="44.84489" lon="6.14546">
        <ele>1940.6</ele>
        <time>2024-08-13T11:36:18Z</time>
      </trkpt>
      <trkpt lat="44.84489" lon="6.14546">
        <ele>1940.6</ele>
        <time>2024-08-13T11:36:19Z</time>
      </trkpt>
      <trkpt lat="44.84489" lon="6.14546">
        <ele>1940.6</ele>
        <time>2024-08-13T11:36:20Z</time>
      </trkpt>
      <trkpt lat="44.84489" lon="6.14546">
        <ele>1940.6</ele>
        <time>2024-08-13T11:36:21Z</time>
      </trkpt>
      <trkpt lat="44.84489" lon="6.14546">
        <ele>1940.8</ele>
        <time>2024-08-13T11:36:22Z</time>
      </trkpt>
      <trkpt lat="44.84489" lon="6.14546">
        <ele>1940.8</ele>
        <time>2024-08-13T11:36:23Z</time>
      </trkpt>
      <trkpt lat="44.84489" lon="6.14546">
        <ele>1940.8</ele>
        <time>2024-08-13T11:36:24Z</time>
      </trkpt>
      <trkpt lat="44.84489" lon="6.14546">
        <ele>1940.8</ele>
        <time>2024-08-13T11:36:25Z</time>
      </trkpt>
      <trkpt lat="44.84489" lon="6.14546">
        <ele>1940.8</ele>
        <time>2024-08-13T11:36:26Z</time>
      </trkpt>
      <trkpt lat="44.84489" lon="6.14546">
        <ele>1941</ele>
        <time>2024-08-13T11:36:27Z</time>
      </trkpt>
      <trkpt lat="44.84489" lon="6.14546">
        <ele>1941.2</ele>
        <time>2024-08-13T11:36:28Z</time>
      </trkpt>
      <trkpt lat="44.84489" lon="6.14546">
        <ele>1941.2</ele>
        <time>2024-08-13T11:36:29Z</time>
      </trkpt>
      <trkpt lat="44.84489" lon="6.14546">
        <ele>1941.2</ele>
        <time>2024-08-13T11:36:30Z</time>
      </trkpt>
      <trkpt lat="44.84489" lon="6.14546">
        <ele>1941.2</ele>
        <time>2024-08-13T11:36:31Z</time>
      </trkpt>
      <trkpt lat="44.84489" lon="6.14546">
        <ele>1941</ele>
        <time>2024-08-13T11:36:32Z</time>
      </trkpt>
      <trkpt lat="44.84489" lon="6.14546">
        <ele>1941</ele>
        <time>2024-08-13T11:36:33Z</time>
      </trkpt>
      <trkpt lat="44.84489" lon="6.14546">
        <ele>1941.2</ele>
        <time>2024-08-13T11:36:34Z</time>
      </trkpt>
      <trkpt lat="44.84489" lon="6.14546">
        <ele>1941.2</ele>
        <time>2024-08-13T11:36:35Z</time>
      </trkpt>
      <trkpt lat="44.84489" lon="6.14546">
        <ele>1941.2</ele>
        <time>2024-08-13T11:36:36Z</time>
      </trkpt>
      <trkpt lat="44.84489" lon="6.14546">
        <ele>1941.2</ele>
        <time>2024-08-13T11:36:37Z</time>
      </trkpt>
      <trkpt lat="44.84489" lon="6.14546">
        <ele>1941.2</ele>
        <time>2024-08-13T11:36:38Z</time>
      </trkpt>
      <trkpt lat="44.84489" lon="6.14546">
        <ele>1941.4</ele>
        <time>2024-08-13T11:36:39Z</time>
      </trkpt>
      <trkpt lat="44.84489" lon="6.14546">
        <ele>1941.4</ele>
        <time>2024-08-13T11:36:40Z</time>
      </trkpt>
      <trkpt lat="44.84489" lon="6.14546">
        <ele>1941.4</ele>
        <time>2024-08-13T11:36:41Z</time>
      </trkpt>
      <trkpt lat="44.84489" lon="6.14546">
        <ele>1941.8</ele>
        <time>2024-08-13T11:36:42Z</time>
      </trkpt>
      <trkpt lat="44.84489" lon="6.14546">
        <ele>1941.8</ele>
        <time>2024-08-13T11:36:43Z</time>
      </trkpt>
      <trkpt lat="44.84489" lon="6.14546">
        <ele>1941.8</ele>
        <time>2024-08-13T11:36:44Z</time>
      </trkpt>
      <trkpt lat="44.84489" lon="6.14546">
        <ele>1941.8</ele>
        <time>2024-08-13T11:36:45Z</time>
      </trkpt>
      <trkpt lat="44.84489" lon="6.14546">
        <ele>1941.6</ele>
        <time>2024-08-13T11:36:46Z</time>
      </trkpt>
      <trkpt lat="44.84489" lon="6.14546">
        <ele>1941.6</ele>
        <time>2024-08-13T11:36:47Z</time>
      </trkpt>
      <trkpt lat="44.84489" lon="6.14546">
        <ele>1941.8</ele>
        <time>2024-08-13T11:36:48Z</time>
      </trkpt>
      <trkpt lat="44.84489" lon="6.14546">
        <ele>1942</ele>
        <time>2024-08-13T11:36:49Z</time>
      </trkpt>
      <trkpt lat="44.84489" lon="6.14546">
        <ele>1942</ele>
        <time>2024-08-13T11:36:50Z</time>
      </trkpt>
      <trkpt lat="44.84489" lon="6.14546">
        <ele>1941.6</ele>
        <time>2024-08-13T11:36:51Z</time>
      </trkpt>
      <trkpt lat="44.84489" lon="6.14546">
        <ele>1941.6</ele>
        <time>2024-08-13T11:36:52Z</time>
      </trkpt>
      <trkpt lat="44.84489" lon="6.14546">
        <ele>1941.6</ele>
        <time>2024-08-13T11:36:53Z</time>
      </trkpt>
      <trkpt lat="44.84489" lon="6.14546">
        <ele>1941.8</ele>
        <time>2024-08-13T11:36:54Z</time>
      </trkpt>
      <trkpt lat="44.84489" lon="6.14546">
        <ele>1942</ele>
        <time>2024-08-13T11:36:55Z</time>
      </trkpt>
      <trkpt lat="44.84489" lon="6.14546">
        <ele>1942</ele>
        <time>2024-08-13T11:36:56Z</time>
      </trkpt>
      <trkpt lat="44.84489" lon="6.14546">
        <ele>1942</ele>
        <time>2024-08-13T11:36:57Z</time>
      </trkpt>
      <trkpt lat="44.84489" lon="6.14546">
        <ele>1941.8</ele>
        <time>2024-08-13T11:36:58Z</time>
      </trkpt>
      <trkpt lat="44.84489" lon="6.14546">
        <ele>1941.6</ele>
        <time>2024-08-13T11:36:59Z</time>
      </trkpt>
      <trkpt lat="44.84489" lon="6.14546">
        <ele>1941.6</ele>
        <time>2024-08-13T11:37:00Z</time>
      </trkpt>
      <trkpt lat="44.84489" lon="6.14546">
        <ele>1941.6</ele>
        <time>2024-08-13T11:37:01Z</time>
      </trkpt>
      <trkpt lat="44.84489" lon="6.14546">
        <ele>1941.6</ele>
        <time>2024-08-13T11:37:02Z</time>
      </trkpt>
      <trkpt lat="44.84489" lon="6.14546">
        <ele>1941.6</ele>
        <time>2024-08-13T11:37:03Z</time>
      </trkpt>
      <trkpt lat="44.84489" lon="6.14546">
        <ele>1941.8</ele>
        <time>2024-08-13T11:37:04Z</time>
      </trkpt>
      <trkpt lat="44.84489" lon="6.14546">
        <ele>1941.8</ele>
        <time>2024-08-13T11:37:05Z</time>
      </trkpt>
      <trkpt lat="44.84489" lon="6.14546">
        <ele>1941.6</ele>
        <time>2024-08-13T11:37:06Z</time>
      </trkpt>
      <trkpt lat="44.84489" lon="6.14546">
        <ele>1941.6</ele>
        <time>2024-08-13T11:37:07Z</time>
      </trkpt>
      <trkpt lat="44.84489" lon="6.14546">
        <ele>1941.6</ele>
        <time>2024-08-13T11:37:08Z</time>
      </trkpt>
      <trkpt lat="44.84489" lon="6.14546">
        <ele>1941.6</ele>
        <time>2024-08-13T11:37:09Z</time>
      </trkpt>
      <trkpt lat="44.84489" lon="6.14546">
        <ele>1941.6</ele>
        <time>2024-08-13T11:37:10Z</time>
      </trkpt>
      <trkpt lat="44.84489" lon="6.14546">
        <ele>1941.4</ele>
        <time>2024-08-13T11:37:11Z</time>
      </trkpt>
      <trkpt lat="44.84489" lon="6.14546">
        <ele>1941.4</ele>
        <time>2024-08-13T11:37:12Z</time>
      </trkpt>
      <trkpt lat="44.84489" lon="6.14546">
        <ele>1941.6</ele>
        <time>2024-08-13T11:37:13Z</time>
      </trkpt>
      <trkpt lat="44.84489" lon="6.14546">
        <ele>1941.6</ele>
        <time>2024-08-13T11:37:14Z</time>
      </trkpt>
      <trkpt lat="44.84489" lon="6.14546">
        <ele>1941.6</ele>
        <time>2024-08-13T11:37:15Z</time>
      </trkpt>
      <trkpt lat="44.84489" lon="6.14546">
        <ele>1941.6</ele>
        <time>2024-08-13T11:37:16Z</time>
      </trkpt>
      <trkpt lat="44.84489" lon="6.14546">
        <ele>1941.6</ele>
        <time>2024-08-13T11:37:17Z</time>
      </trkpt>
      <trkpt lat="44.84489" lon="6.14546">
        <ele>1941.6</ele>
        <time>2024-08-13T11:37:18Z</time>
      </trkpt>
      <trkpt lat="44.84489" lon="6.14546">
        <ele>1941.8</ele>
        <time>2024-08-13T11:37:19Z</time>
      </trkpt>
      <trkpt lat="44.84489" lon="6.14546">
        <ele>1941.8</ele>
        <time>2024-08-13T11:37:20Z</time>
      </trkpt>
      <trkpt lat="44.84489" lon="6.14546">
        <ele>1941.8</ele>
        <time>2024-08-13T11:37:21Z</time>
      </trkpt>
      <trkpt lat="44.84489" lon="6.14546">
        <ele>1941.8</ele>
        <time>2024-08-13T11:37:22Z</time>
      </trkpt>
      <trkpt lat="44.84489" lon="6.14546">
        <ele>1942</ele>
        <time>2024-08-13T11:37:23Z</time>
      </trkpt>
      <trkpt lat="44.84489" lon="6.14546">
        <ele>1942.2</ele>
        <time>2024-08-13T11:37:24Z</time>
      </trkpt>
      <trkpt lat="44.84489" lon="6.14546">
        <ele>1942.2</ele>
        <time>2024-08-13T11:37:25Z</time>
      </trkpt>
      <trkpt lat="44.84489" lon="6.14546">
        <ele>1941.8</ele>
        <time>2024-08-13T11:37:26Z</time>
      </trkpt>
      <trkpt lat="44.84489" lon="6.14546">
        <ele>1941.8</ele>
        <time>2024-08-13T11:37:27Z</time>
      </trkpt>
      <trkpt lat="44.84489" lon="6.14546">
        <ele>1941.8</ele>
        <time>2024-08-13T11:37:28Z</time>
      </trkpt>
      <trkpt lat="44.84489" lon="6.14546">
        <ele>1941.8</ele>
        <time>2024-08-13T11:37:29Z</time>
      </trkpt>
      <trkpt lat="44.84489" lon="6.14546">
        <ele>1941.8</ele>
        <time>2024-08-13T11:37:30Z</time>
      </trkpt>
      <trkpt lat="44.84489" lon="6.14546">
        <ele>1942</ele>
        <time>2024-08-13T11:37:31Z</time>
      </trkpt>
      <trkpt lat="44.84489" lon="6.14546">
        <ele>1942.2</ele>
        <time>2024-08-13T11:37:32Z</time>
      </trkpt>
      <trkpt lat="44.84489" lon="6.14546">
        <ele>1942.2</ele>
        <time>2024-08-13T11:37:33Z</time>
      </trkpt>
      <trkpt lat="44.84489" lon="6.14546">
        <ele>1942</ele>
        <time>2024-08-13T11:37:34Z</time>
      </trkpt>
      <trkpt lat="44.84489" lon="6.14546">
        <ele>1942</ele>
        <time>2024-08-13T11:37:35Z</time>
      </trkpt>
      <trkpt lat="44.84489" lon="6.14546">
        <ele>1941.8</ele>
        <time>2024-08-13T11:37:36Z</time>
      </trkpt>
      <trkpt lat="44.84489" lon="6.14546">
        <ele>1941.8</ele>
        <time>2024-08-13T11:37:37Z</time>
      </trkpt>
      <trkpt lat="44.84489" lon="6.14546">
        <ele>1941.8</ele>
        <time>2024-08-13T11:37:38Z</time>
      </trkpt>
      <trkpt lat="44.84489" lon="6.14546">
        <ele>1941.8</ele>
        <time>2024-08-13T11:37:39Z</time>
      </trkpt>
      <trkpt lat="44.84489" lon="6.14546">
        <ele>1941.8</ele>
        <time>2024-08-13T11:37:40Z</time>
      </trkpt>
      <trkpt lat="44.84489" lon="6.14546">
        <ele>1941.6</ele>
        <time>2024-08-13T11:37:41Z</time>
      </trkpt>
      <trkpt lat="44.84489" lon="6.14546">
        <ele>1941.4</ele>
        <time>2024-08-13T11:37:42Z</time>
      </trkpt>
      <trkpt lat="44.84489" lon="6.14546">
        <ele>1941.4</ele>
        <time>2024-08-13T11:37:43Z</time>
      </trkpt>
      <trkpt lat="44.84489" lon="6.14546">
        <ele>1941.6</ele>
        <time>2024-08-13T11:37:44Z</time>
      </trkpt>
      <trkpt lat="44.84489" lon="6.14546">
        <ele>1941.6</ele>
        <time>2024-08-13T11:37:45Z</time>
      </trkpt>
      <trkpt lat="44.84489" lon="6.14546">
        <ele>1941.6</ele>
        <time>2024-08-13T11:37:46Z</time>
      </trkpt>
      <trkpt lat="44.84489" lon="6.14546">
        <ele>1941.6</ele>
        <time>2024-08-13T11:37:47Z</time>
      </trkpt>
      <trkpt lat="44.84489" lon="6.14546">
        <ele>1941.4</ele>
        <time>2024-08-13T11:37:48Z</time>
      </trkpt>
      <trkpt lat="44.84489" lon="6.14546">
        <ele>1941.4</ele>
        <time>2024-08-13T11:37:49Z</time>
      </trkpt>
      <trkpt lat="44.84489" lon="6.14546">
        <ele>1941.4</ele>
        <time>2024-08-13T11:37:50Z</time>
      </trkpt>
      <trkpt lat="44.84489" lon="6.14546">
        <ele>1941.4</ele>
        <time>2024-08-13T11:37:51Z</time>
      </trkpt>
      <trkpt lat="44.84489" lon="6.14546">
        <ele>1941.2</ele>
        <time>2024-08-13T11:37:52Z</time>
      </trkpt>
      <trkpt lat="44.84489" lon="6.14546">
        <ele>1941.2</ele>
        <time>2024-08-13T11:37:53Z</time>
      </trkpt>
      <trkpt lat="44.84489" lon="6.14546">
        <ele>1941.2</ele>
        <time>2024-08-13T11:37:54Z</time>
      </trkpt>
      <trkpt lat="44.84489" lon="6.14546">
        <ele>1941.4</ele>
        <time>2024-08-13T11:37:55Z</time>
      </trkpt>
      <trkpt lat="44.84489" lon="6.14546">
        <ele>1941.4</ele>
        <time>2024-08-13T11:37:56Z</time>
      </trkpt>
      <trkpt lat="44.84489" lon="6.14546">
        <ele>1941</ele>
        <time>2024-08-13T11:37:57Z</time>
      </trkpt>
      <trkpt lat="44.84489" lon="6.14546">
        <ele>1941</ele>
        <time>2024-08-13T11:37:58Z</time>
      </trkpt>
      <trkpt lat="44.84489" lon="6.14546">
        <ele>1941</ele>
        <time>2024-08-13T11:37:59Z</time>
      </trkpt>
      <trkpt lat="44.84489" lon="6.14546">
        <ele>1941</ele>
        <time>2024-08-13T11:38:00Z</time>
      </trkpt>
      <trkpt lat="44.84489" lon="6.14546">
        <ele>1941</ele>
        <time>2024-08-13T11:38:01Z</time>
      </trkpt>
      <trkpt lat="44.84489" lon="6.14546">
        <ele>1941.2</ele>
        <time>2024-08-13T11:38:02Z</time>
      </trkpt>
      <trkpt lat="44.84489" lon="6.14546">
        <ele>1941.2</ele>
        <time>2024-08-13T11:38:03Z</time>
      </trkpt>
      <trkpt lat="44.84489" lon="6.14546">
        <ele>1941.2</ele>
        <time>2024-08-13T11:38:04Z</time>
      </trkpt>
      <trkpt lat="44.84489" lon="6.14546">
        <ele>1941.2</ele>
        <time>2024-08-13T11:38:05Z</time>
      </trkpt>
      <trkpt lat="44.84489" lon="6.14546">
        <ele>1941.2</ele>
        <time>2024-08-13T11:38:06Z</time>
      </trkpt>
      <trkpt lat="44.84489" lon="6.14546">
        <ele>1941.4</ele>
        <time>2024-08-13T11:38:07Z</time>
      </trkpt>
      <trkpt lat="44.84489" lon="6.14546">
        <ele>1941.6</ele>
        <time>2024-08-13T11:38:08Z</time>
      </trkpt>
      <trkpt lat="44.84489" lon="6.14546">
        <ele>1941.6</ele>
        <time>2024-08-13T11:38:09Z</time>
      </trkpt>
      <trkpt lat="44.84489" lon="6.14546">
        <ele>1941.6</ele>
        <time>2024-08-13T11:38:10Z</time>
      </trkpt>
      <trkpt lat="44.84489" lon="6.14546">
        <ele>1941.8</ele>
        <time>2024-08-13T11:38:11Z</time>
      </trkpt>
      <trkpt lat="44.84489" lon="6.14546">
        <ele>1942</ele>
        <time>2024-08-13T11:38:12Z</time>
      </trkpt>
      <trkpt lat="44.84489" lon="6.14546">
        <ele>1942</ele>
        <time>2024-08-13T11:38:13Z</time>
      </trkpt>
      <trkpt lat="44.84489" lon="6.14546">
        <ele>1941.8</ele>
        <time>2024-08-13T11:38:14Z</time>
      </trkpt>
      <trkpt lat="44.84489" lon="6.14546">
        <ele>1941.8</ele>
        <time>2024-08-13T11:38:15Z</time>
      </trkpt>
      <trkpt lat="44.84489" lon="6.14546">
        <ele>1941.6</ele>
        <time>2024-08-13T11:38:16Z</time>
      </trkpt>
      <trkpt lat="44.84489" lon="6.14546">
        <ele>1941.6</ele>
        <time>2024-08-13T11:38:17Z</time>
      </trkpt>
      <trkpt lat="44.84489" lon="6.14546">
        <ele>1941.6</ele>
        <time>2024-08-13T11:38:18Z</time>
      </trkpt>
      <trkpt lat="44.84489" lon="6.14546">
        <ele>1941.6</ele>
        <time>2024-08-13T11:38:19Z</time>
      </trkpt>
      <trkpt lat="44.84489" lon="6.14546">
        <ele>1941.6</ele>
        <time>2024-08-13T11:38:20Z</time>
      </trkpt>
      <trkpt lat="44.84489" lon="6.14546">
        <ele>1941.6</ele>
        <time>2024-08-13T11:38:21Z</time>
      </trkpt>
      <trkpt lat="44.84489" lon="6.14546">
        <ele>1941.6</ele>
        <time>2024-08-13T11:38:22Z</time>
      </trkpt>
      <trkpt lat="44.84489" lon="6.14546">
        <ele>1941.6</ele>
        <time>2024-08-13T11:38:23Z</time>
      </trkpt>
      <trkpt lat="44.84489" lon="6.14546">
        <ele>1941.6</ele>
        <time>2024-08-13T11:38:24Z</time>
      </trkpt>
      <trkpt lat="44.84489" lon="6.14546">
        <ele>1941.6</ele>
        <time>2024-08-13T11:38:25Z</time>
      </trkpt>
      <trkpt lat="44.84489" lon="6.14546">
        <ele>1941.2</ele>
        <time>2024-08-13T11:38:26Z</time>
      </trkpt>
      <trkpt lat="44.84489" lon="6.14546">
        <ele>1941</ele>
        <time>2024-08-13T11:38:27Z</time>
      </trkpt>
      <trkpt lat="44.84489" lon="6.14546">
        <ele>1941</ele>
        <time>2024-08-13T11:38:28Z</time>
      </trkpt>
      <trkpt lat="44.84489" lon="6.14546">
        <ele>1941</ele>
        <time>2024-08-13T11:38:29Z</time>
      </trkpt>
      <trkpt lat="44.84489" lon="6.14546">
        <ele>1941</ele>
        <time>2024-08-13T11:38:30Z</time>
      </trkpt>
      <trkpt lat="44.84489" lon="6.14546">
        <ele>1941</ele>
        <time>2024-08-13T11:38:31Z</time>
      </trkpt>
      <trkpt lat="44.84489" lon="6.14546">
        <ele>1941</ele>
        <time>2024-08-13T11:38:32Z</time>
      </trkpt>
      <trkpt lat="44.84489" lon="6.14546">
        <ele>1941</ele>
        <time>2024-08-13T11:38:33Z</time>
      </trkpt>
      <trkpt lat="44.84489" lon="6.14546">
        <ele>1941</ele>
        <time>2024-08-13T11:38:34Z</time>
      </trkpt>
      <trkpt lat="44.84489" lon="6.14546">
        <ele>1941</ele>
        <time>2024-08-13T11:38:35Z</time>
      </trkpt>
      <trkpt lat="44.84489" lon="6.14546">
        <ele>1941.2</ele>
        <time>2024-08-13T11:38:36Z</time>
      </trkpt>
      <trkpt lat="44.84489" lon="6.14546">
        <ele>1941.2</ele>
        <time>2024-08-13T11:38:37Z</time>
      </trkpt>
      <trkpt lat="44.84489" lon="6.14546">
        <ele>1941.2</ele>
        <time>2024-08-13T11:38:38Z</time>
      </trkpt>
      <trkpt lat="44.84489" lon="6.14546">
        <ele>1941.2</ele>
        <time>2024-08-13T11:38:39Z</time>
      </trkpt>
      <trkpt lat="44.84489" lon="6.14546">
        <ele>1941.2</ele>
        <time>2024-08-13T11:38:40Z</time>
      </trkpt>
      <trkpt lat="44.84489" lon="6.14546">
        <ele>1941.2</ele>
        <time>2024-08-13T11:38:41Z</time>
      </trkpt>
      <trkpt lat="44.84489" lon="6.14546">
        <ele>1941.2</ele>
        <time>2024-08-13T11:38:42Z</time>
      </trkpt>
      <trkpt lat="44.84489" lon="6.14546">
        <ele>1941.4</ele>
        <time>2024-08-13T11:38:43Z</time>
      </trkpt>
      <trkpt lat="44.84489" lon="6.14546">
        <ele>1941.4</ele>
        <time>2024-08-13T11:38:44Z</time>
      </trkpt>
      <trkpt lat="44.84489" lon="6.14546">
        <ele>1941.4</ele>
        <time>2024-08-13T11:38:45Z</time>
      </trkpt>
      <trkpt lat="44.84489" lon="6.14546">
        <ele>1941.4</ele>
        <time>2024-08-13T11:38:46Z</time>
      </trkpt>
      <trkpt lat="44.84489" lon="6.14546">
        <ele>1941.2</ele>
        <time>2024-08-13T11:38:47Z</time>
      </trkpt>
      <trkpt lat="44.84489" lon="6.14546">
        <ele>1941.2</ele>
        <time>2024-08-13T11:38:48Z</time>
      </trkpt>
      <trkpt lat="44.84489" lon="6.14546">
        <ele>1941.2</ele>
        <time>2024-08-13T11:38:49Z</time>
      </trkpt>
      <trkpt lat="44.84489" lon="6.14546">
        <ele>1941.2</ele>
        <time>2024-08-13T11:38:50Z</time>
      </trkpt>
      <trkpt lat="44.84489" lon="6.14546">
        <ele>1941.2</ele>
        <time>2024-08-13T11:38:51Z</time>
      </trkpt>
      <trkpt lat="44.84489" lon="6.14546">
        <ele>1941.2</ele>
        <time>2024-08-13T11:38:52Z</time>
      </trkpt>
      <trkpt lat="44.84489" lon="6.14546">
        <ele>1941.2</ele>
        <time>2024-08-13T11:38:53Z</time>
      </trkpt>
      <trkpt lat="44.84489" lon="6.14546">
        <ele>1941.2</ele>
        <time>2024-08-13T11:38:54Z</time>
      </trkpt>
      <trkpt lat="44.84489" lon="6.14546">
        <ele>1941.2</ele>
        <time>2024-08-13T11:38:55Z</time>
      </trkpt>
      <trkpt lat="44.84489" lon="6.14546">
        <ele>1941.2</ele>
        <time>2024-08-13T11:38:56Z</time>
      </trkpt>
      <trkpt lat="44.84489" lon="6.14546">
        <ele>1941.2</ele>
        <time>2024-08-13T11:38:57Z</time>
      </trkpt>
      <trkpt lat="44.84489" lon="6.14546">
        <ele>1941.2</ele>
        <time>2024-08-13T11:38:58Z</time>
      </trkpt>
      <trkpt lat="44.84489" lon="6.14546">
        <ele>1941</ele>
        <time>2024-08-13T11:38:59Z</time>
      </trkpt>
      <trkpt lat="44.84489" lon="6.14546">
        <ele>1940.8</ele>
        <time>2024-08-13T11:39:00Z</time>
      </trkpt>
      <trkpt lat="44.84489" lon="6.14546">
        <ele>1940.8</ele>
        <time>2024-08-13T11:39:01Z</time>
      </trkpt>
      <trkpt lat="44.84489" lon="6.14546">
        <ele>1940.8</ele>
        <time>2024-08-13T11:39:02Z</time>
      </trkpt>
      <trkpt lat="44.84489" lon="6.14546">
        <ele>1940.8</ele>
        <time>2024-08-13T11:39:03Z</time>
      </trkpt>
      <trkpt lat="44.84489" lon="6.14546">
        <ele>1941.2</ele>
        <time>2024-08-13T11:39:04Z</time>
      </trkpt>
      <trkpt lat="44.84489" lon="6.14546">
        <ele>1941.2</ele>
        <time>2024-08-13T11:39:05Z</time>
      </trkpt>
      <trkpt lat="44.84489" lon="6.14546">
        <ele>1941.2</ele>
        <time>2024-08-13T11:39:06Z</time>
      </trkpt>
      <trkpt lat="44.84489" lon="6.14546">
        <ele>1941</ele>
        <time>2024-08-13T11:39:07Z</time>
      </trkpt>
      <trkpt lat="44.84489" lon="6.14546">
        <ele>1940.8</ele>
        <time>2024-08-13T11:39:08Z</time>
      </trkpt>
      <trkpt lat="44.84489" lon="6.14546">
        <ele>1940.8</ele>
        <time>2024-08-13T11:39:09Z</time>
      </trkpt>
      <trkpt lat="44.84489" lon="6.14546">
        <ele>1941</ele>
        <time>2024-08-13T11:39:10Z</time>
      </trkpt>
      <trkpt lat="44.84489" lon="6.14546">
        <ele>1941.2</ele>
        <time>2024-08-13T11:39:11Z</time>
      </trkpt>
      <trkpt lat="44.84489" lon="6.14546">
        <ele>1941.2</ele>
        <time>2024-08-13T11:39:12Z</time>
      </trkpt>
      <trkpt lat="44.84489" lon="6.14546">
        <ele>1941.2</ele>
        <time>2024-08-13T11:39:13Z</time>
      </trkpt>
      <trkpt lat="44.84489" lon="6.14546">
        <ele>1941</ele>
        <time>2024-08-13T11:39:14Z</time>
      </trkpt>
      <trkpt lat="44.84489" lon="6.14546">
        <ele>1941</ele>
        <time>2024-08-13T11:39:15Z</time>
      </trkpt>
      <trkpt lat="44.84489" lon="6.14546">
        <ele>1941</ele>
        <time>2024-08-13T11:39:16Z</time>
      </trkpt>
      <trkpt lat="44.84489" lon="6.14546">
        <ele>1941</ele>
        <time>2024-08-13T11:39:17Z</time>
      </trkpt>
      <trkpt lat="44.84489" lon="6.14546">
        <ele>1941</ele>
        <time>2024-08-13T11:39:18Z</time>
      </trkpt>
      <trkpt lat="44.84489" lon="6.14546">
        <ele>1941.2</ele>
        <time>2024-08-13T11:39:19Z</time>
      </trkpt>
      <trkpt lat="44.84489" lon="6.14546">
        <ele>1941.2</ele>
        <time>2024-08-13T11:39:20Z</time>
      </trkpt>
      <trkpt lat="44.84489" lon="6.14546">
        <ele>1941.2</ele>
        <time>2024-08-13T11:39:21Z</time>
      </trkpt>
      <trkpt lat="44.84489" lon="6.14546">
        <ele>1941.2</ele>
        <time>2024-08-13T11:39:22Z</time>
      </trkpt>
      <trkpt lat="44.84489" lon="6.14546">
        <ele>1941.2</ele>
        <time>2024-08-13T11:39:23Z</time>
      </trkpt>
      <trkpt lat="44.84489" lon="6.14546">
        <ele>1941.4</ele>
        <time>2024-08-13T11:39:24Z</time>
      </trkpt>
      <trkpt lat="44.84489" lon="6.14546">
        <ele>1941.4</ele>
        <time>2024-08-13T11:39:25Z</time>
      </trkpt>
      <trkpt lat="44.84489" lon="6.14546">
        <ele>1941.4</ele>
        <time>2024-08-13T11:39:26Z</time>
      </trkpt>
      <trkpt lat="44.84489" lon="6.14546">
        <ele>1941.4</ele>
        <time>2024-08-13T11:39:27Z</time>
      </trkpt>
      <trkpt lat="44.84489" lon="6.14546">
        <ele>1941.4</ele>
        <time>2024-08-13T11:39:28Z</time>
      </trkpt>
      <trkpt lat="44.84489" lon="6.14546">
        <ele>1941.2</ele>
        <time>2024-08-13T11:39:29Z</time>
      </trkpt>
      <trkpt lat="44.84489" lon="6.14546">
        <ele>1941.2</ele>
        <time>2024-08-13T11:39:30Z</time>
      </trkpt>
      <trkpt lat="44.84489" lon="6.14546">
        <ele>1941.2</ele>
        <time>2024-08-13T11:39:31Z</time>
      </trkpt>
      <trkpt lat="44.84489" lon="6.14546">
        <ele>1941.4</ele>
        <time>2024-08-13T11:39:32Z</time>
      </trkpt>
      <trkpt lat="44.84489" lon="6.14546">
        <ele>1941.4</ele>
        <time>2024-08-13T11:39:33Z</time>
      </trkpt>
      <trkpt lat="44.84489" lon="6.14546">
        <ele>1941.2</ele>
        <time>2024-08-13T11:39:34Z</time>
      </trkpt>
      <trkpt lat="44.84489" lon="6.14546">
        <ele>1941.4</ele>
        <time>2024-08-13T11:39:35Z</time>
      </trkpt>
      <trkpt lat="44.84489" lon="6.14546">
        <ele>1941.4</ele>
        <time>2024-08-13T11:39:36Z</time>
      </trkpt>
      <trkpt lat="44.84489" lon="6.14546">
        <ele>1941.4</ele>
        <time>2024-08-13T11:39:37Z</time>
      </trkpt>
      <trkpt lat="44.84489" lon="6.14546">
        <ele>1941.2</ele>
        <time>2024-08-13T11:39:38Z</time>
      </trkpt>
      <trkpt lat="44.84489" lon="6.14546">
        <ele>1941.2</ele>
        <time>2024-08-13T11:39:39Z</time>
      </trkpt>
      <trkpt lat="44.84489" lon="6.14546">
        <ele>1941.2</ele>
        <time>2024-08-13T11:39:40Z</time>
      </trkpt>
      <trkpt lat="44.84489" lon="6.14546">
        <ele>1941.2</ele>
        <time>2024-08-13T11:39:41Z</time>
      </trkpt>
      <trkpt lat="44.84489" lon="6.14546">
        <ele>1941.2</ele>
        <time>2024-08-13T11:39:42Z</time>
      </trkpt>
      <trkpt lat="44.84489" lon="6.14546">
        <ele>1941.2</ele>
        <time>2024-08-13T11:39:43Z</time>
      </trkpt>
      <trkpt lat="44.84489" lon="6.14546">
        <ele>1941</ele>
        <time>2024-08-13T11:39:44Z</time>
      </trkpt>
      <trkpt lat="44.84489" lon="6.14546">
        <ele>1941</ele>
        <time>2024-08-13T11:39:45Z</time>
      </trkpt>
      <trkpt lat="44.84489" lon="6.14546">
        <ele>1941</ele>
        <time>2024-08-13T11:39:46Z</time>
      </trkpt>
      <trkpt lat="44.84489" lon="6.14546">
        <ele>1941</ele>
        <time>2024-08-13T11:39:47Z</time>
      </trkpt>
      <trkpt lat="44.84489" lon="6.14546">
        <ele>1941</ele>
        <time>2024-08-13T11:39:48Z</time>
      </trkpt>
      <trkpt lat="44.84489" lon="6.14546">
        <ele>1941</ele>
        <time>2024-08-13T11:39:49Z</time>
      </trkpt>
      <trkpt lat="44.84489" lon="6.14546">
        <ele>1941</ele>
        <time>2024-08-13T11:39:50Z</time>
      </trkpt>
      <trkpt lat="44.84489" lon="6.14546">
        <ele>1941.2</ele>
        <time>2024-08-13T11:39:51Z</time>
      </trkpt>
      <trkpt lat="44.84489" lon="6.14546">
        <ele>1941.2</ele>
        <time>2024-08-13T11:39:52Z</time>
      </trkpt>
      <trkpt lat="44.84489" lon="6.14546">
        <ele>1941.2</ele>
        <time>2024-08-13T11:39:53Z</time>
      </trkpt>
      <trkpt lat="44.84489" lon="6.14546">
        <ele>1941.2</ele>
        <time>2024-08-13T11:39:54Z</time>
      </trkpt>
      <trkpt lat="44.84489" lon="6.14546">
        <ele>1941.2</ele>
        <time>2024-08-13T11:39:55Z</time>
      </trkpt>
      <trkpt lat="44.84489" lon="6.14546">
        <ele>1941.2</ele>
        <time>2024-08-13T11:39:56Z</time>
      </trkpt>
      <trkpt lat="44.84489" lon="6.14546">
        <ele>1941.2</ele>
        <time>2024-08-13T11:39:57Z</time>
      </trkpt>
      <trkpt lat="44.84489" lon="6.14546">
        <ele>1941.2</ele>
        <time>2024-08-13T11:39:58Z</time>
      </trkpt>
      <trkpt lat="44.84489" lon="6.14546">
        <ele>1941.2</ele>
        <time>2024-08-13T11:39:59Z</time>
      </trkpt>
      <trkpt lat="44.84489" lon="6.14546">
        <ele>1941.2</ele>
        <time>2024-08-13T11:40:00Z</time>
      </trkpt>
      <trkpt lat="44.84489" lon="6.14546">
        <ele>1941.2</ele>
        <time>2024-08-13T11:40:01Z</time>
      </trkpt>
      <trkpt lat="44.84489" lon="6.14546">
        <ele>1941.2</ele>
        <time>2024-08-13T11:40:02Z</time>
      </trkpt>
      <trkpt lat="44.84489" lon="6.14546">
        <ele>1941.2</ele>
        <time>2024-08-13T11:40:03Z</time>
      </trkpt>
      <trkpt lat="44.84489" lon="6.14546">
        <ele>1941.4</ele>
        <time>2024-08-13T11:40:04Z</time>
      </trkpt>
      <trkpt lat="44.84489" lon="6.14546">
        <ele>1941.4</ele>
        <time>2024-08-13T11:40:05Z</time>
      </trkpt>
      <trkpt lat="44.84489" lon="6.14546">
        <ele>1941.4</ele>
        <time>2024-08-13T11:40:06Z</time>
      </trkpt>
      <trkpt lat="44.84489" lon="6.14546">
        <ele>1941.2</ele>
        <time>2024-08-13T11:40:07Z</time>
      </trkpt>
      <trkpt lat="44.84489" lon="6.14546">
        <ele>1941.2</ele>
        <time>2024-08-13T11:40:08Z</time>
      </trkpt>
      <trkpt lat="44.84489" lon="6.14546">
        <ele>1941</ele>
        <time>2024-08-13T11:40:09Z</time>
      </trkpt>
      <trkpt lat="44.84489" lon="6.14546">
        <ele>1941</ele>
        <time>2024-08-13T11:40:10Z</time>
      </trkpt>
      <trkpt lat="44.84489" lon="6.14546">
        <ele>1941</ele>
        <time>2024-08-13T11:40:11Z</time>
      </trkpt>
      <trkpt lat="44.84489" lon="6.14546">
        <ele>1941.2</ele>
        <time>2024-08-13T11:40:12Z</time>
      </trkpt>
      <trkpt lat="44.84489" lon="6.14546">
        <ele>1941.2</ele>
        <time>2024-08-13T11:40:13Z</time>
      </trkpt>
      <trkpt lat="44.84489" lon="6.14546">
        <ele>1941.2</ele>
        <time>2024-08-13T11:40:14Z</time>
      </trkpt>
      <trkpt lat="44.84489" lon="6.14546">
        <ele>1941.2</ele>
        <time>2024-08-13T11:40:15Z</time>
      </trkpt>
      <trkpt lat="44.84489" lon="6.14546">
        <ele>1941</ele>
        <time>2024-08-13T11:40:16Z</time>
      </trkpt>
      <trkpt lat="44.84489" lon="6.14546">
        <ele>1940.8</ele>
        <time>2024-08-13T11:40:17Z</time>
      </trkpt>
      <trkpt lat="44.84489" lon="6.14546">
        <ele>1940.8</ele>
        <time>2024-08-13T11:40:18Z</time>
      </trkpt>
      <trkpt lat="44.84489" lon="6.14546">
        <ele>1940.8</ele>
        <time>2024-08-13T11:40:19Z</time>
      </trkpt>
      <trkpt lat="44.84489" lon="6.14546">
        <ele>1940.8</ele>
        <time>2024-08-13T11:40:20Z</time>
      </trkpt>
      <trkpt lat="44.84489" lon="6.14546">
        <ele>1941</ele>
        <time>2024-08-13T11:40:21Z</time>
      </trkpt>
      <trkpt lat="44.84489" lon="6.14546">
        <ele>1941</ele>
        <time>2024-08-13T11:40:22Z</time>
      </trkpt>
      <trkpt lat="44.84489" lon="6.14546">
        <ele>1941</ele>
        <time>2024-08-13T11:40:23Z</time>
      </trkpt>
      <trkpt lat="44.84489" lon="6.14546">
        <ele>1941</ele>
        <time>2024-08-13T11:40:24Z</time>
      </trkpt>
      <trkpt lat="44.84489" lon="6.14546">
        <ele>1941</ele>
        <time>2024-08-13T11:40:25Z</time>
      </trkpt>
      <trkpt lat="44.84489" lon="6.14546">
        <ele>1941</ele>
        <time>2024-08-13T11:40:26Z</time>
      </trkpt>
      <trkpt lat="44.84489" lon="6.14546">
        <ele>1941</ele>
        <time>2024-08-13T11:40:27Z</time>
      </trkpt>
      <trkpt lat="44.84489" lon="6.14546">
        <ele>1941</ele>
        <time>2024-08-13T11:40:28Z</time>
      </trkpt>
      <trkpt lat="44.84489" lon="6.14546">
        <ele>1941</ele>
        <time>2024-08-13T11:40:29Z</time>
      </trkpt>
      <trkpt lat="44.84489" lon="6.14546">
        <ele>1941.2</ele>
        <time>2024-08-13T11:40:30Z</time>
      </trkpt>
      <trkpt lat="44.84489" lon="6.14546">
        <ele>1941.2</ele>
        <time>2024-08-13T11:40:31Z</time>
      </trkpt>
      <trkpt lat="44.84489" lon="6.14546">
        <ele>1941.2</ele>
        <time>2024-08-13T11:40:32Z</time>
      </trkpt>
      <trkpt lat="44.84489" lon="6.14546">
        <ele>1941</ele>
        <time>2024-08-13T11:40:33Z</time>
      </trkpt>
      <trkpt lat="44.84489" lon="6.14546">
        <ele>1941</ele>
        <time>2024-08-13T11:40:34Z</time>
      </trkpt>
      <trkpt lat="44.84489" lon="6.14546">
        <ele>1941</ele>
        <time>2024-08-13T11:40:35Z</time>
      </trkpt>
      <trkpt lat="44.84489" lon="6.14546">
        <ele>1941</ele>
        <time>2024-08-13T11:40:36Z</time>
      </trkpt>
      <trkpt lat="44.84489" lon="6.14546">
        <ele>1941</ele>
        <time>2024-08-13T11:40:37Z</time>
      </trkpt>
      <trkpt lat="44.84489" lon="6.14546">
        <ele>1941</ele>
        <time>2024-08-13T11:40:38Z</time>
      </trkpt>
      <trkpt lat="44.84489" lon="6.14546">
        <ele>1941</ele>
        <time>2024-08-13T11:40:39Z</time>
      </trkpt>
      <trkpt lat="44.84489" lon="6.14546">
        <ele>1941</ele>
        <time>2024-08-13T11:40:40Z</time>
      </trkpt>
      <trkpt lat="44.84489" lon="6.14546">
        <ele>1940.8</ele>
        <time>2024-08-13T11:40:41Z</time>
      </trkpt>
      <trkpt lat="44.84489" lon="6.14546">
        <ele>1940.8</ele>
        <time>2024-08-13T11:40:42Z</time>
      </trkpt>
      <trkpt lat="44.84489" lon="6.14546">
        <ele>1940.8</ele>
        <time>2024-08-13T11:40:43Z</time>
      </trkpt>
      <trkpt lat="44.84489" lon="6.14546">
        <ele>1940.8</ele>
        <time>2024-08-13T11:40:44Z</time>
      </trkpt>
      <trkpt lat="44.84489" lon="6.14546">
        <ele>1941.2</ele>
        <time>2024-08-13T11:40:45Z</time>
      </trkpt>
      <trkpt lat="44.84489" lon="6.14546">
        <ele>1941.2</ele>
        <time>2024-08-13T11:40:46Z</time>
      </trkpt>
      <trkpt lat="44.84489" lon="6.14546">
        <ele>1941.2</ele>
        <time>2024-08-13T11:40:47Z</time>
      </trkpt>
      <trkpt lat="44.84489" lon="6.14546">
        <ele>1941.2</ele>
        <time>2024-08-13T11:40:48Z</time>
      </trkpt>
      <trkpt lat="44.84489" lon="6.14546">
        <ele>1941.2</ele>
        <time>2024-08-13T11:40:49Z</time>
      </trkpt>
      <trkpt lat="44.84489" lon="6.14546">
        <ele>1941.6</ele>
        <time>2024-08-13T11:40:50Z</time>
      </trkpt>
      <trkpt lat="44.84489" lon="6.14546">
        <ele>1941.6</ele>
        <time>2024-08-13T11:40:51Z</time>
      </trkpt>
      <trkpt lat="44.84489" lon="6.14546">
        <ele>1941.6</ele>
        <time>2024-08-13T11:40:52Z</time>
      </trkpt>
      <trkpt lat="44.84489" lon="6.14546">
        <ele>1941.4</ele>
        <time>2024-08-13T11:40:53Z</time>
      </trkpt>
      <trkpt lat="44.84489" lon="6.14546">
        <ele>1941.4</ele>
        <time>2024-08-13T11:40:54Z</time>
      </trkpt>
      <trkpt lat="44.84489" lon="6.14546">
        <ele>1941.4</ele>
        <time>2024-08-13T11:40:55Z</time>
      </trkpt>
      <trkpt lat="44.84489" lon="6.14546">
        <ele>1941.2</ele>
        <time>2024-08-13T11:40:56Z</time>
      </trkpt>
      <trkpt lat="44.84489" lon="6.14546">
        <ele>1941.2</ele>
        <time>2024-08-13T11:40:57Z</time>
      </trkpt>
      <trkpt lat="44.84489" lon="6.14546">
        <ele>1941</ele>
        <time>2024-08-13T11:40:58Z</time>
      </trkpt>
      <trkpt lat="44.84489" lon="6.14546">
        <ele>1941</ele>
        <time>2024-08-13T11:40:59Z</time>
      </trkpt>
      <trkpt lat="44.84489" lon="6.14546">
        <ele>1941</ele>
        <time>2024-08-13T11:41:00Z</time>
      </trkpt>
      <trkpt lat="44.84489" lon="6.14546">
        <ele>1941</ele>
        <time>2024-08-13T11:41:01Z</time>
      </trkpt>
      <trkpt lat="44.84489" lon="6.14546">
        <ele>1941.2</ele>
        <time>2024-08-13T11:41:02Z</time>
      </trkpt>
      <trkpt lat="44.84489" lon="6.14546">
        <ele>1941.2</ele>
        <time>2024-08-13T11:41:03Z</time>
      </trkpt>
      <trkpt lat="44.84489" lon="6.14546">
        <ele>1941.2</ele>
        <time>2024-08-13T11:41:04Z</time>
      </trkpt>
      <trkpt lat="44.84489" lon="6.14546">
        <ele>1941.4</ele>
        <time>2024-08-13T11:41:05Z</time>
      </trkpt>
      <trkpt lat="44.84489" lon="6.14546">
        <ele>1941.4</ele>
        <time>2024-08-13T11:41:06Z</time>
      </trkpt>
      <trkpt lat="44.84489" lon="6.14546">
        <ele>1941.4</ele>
        <time>2024-08-13T11:41:07Z</time>
      </trkpt>
      <trkpt lat="44.84489" lon="6.14546">
        <ele>1941.4</ele>
        <time>2024-08-13T11:41:08Z</time>
      </trkpt>
      <trkpt lat="44.84489" lon="6.14546">
        <ele>1941.4</ele>
        <time>2024-08-13T11:41:09Z</time>
      </trkpt>
      <trkpt lat="44.84489" lon="6.14546">
        <ele>1941.4</ele>
        <time>2024-08-13T11:41:10Z</time>
      </trkpt>
      <trkpt lat="44.84489" lon="6.14546">
        <ele>1941.4</ele>
        <time>2024-08-13T11:41:11Z</time>
      </trkpt>
      <trkpt lat="44.84489" lon="6.14546">
        <ele>1941.2</ele>
        <time>2024-08-13T11:41:12Z</time>
      </trkpt>
      <trkpt lat="44.84489" lon="6.14546">
        <ele>1940.8</ele>
        <time>2024-08-13T11:41:13Z</time>
      </trkpt>
      <trkpt lat="44.84489" lon="6.14546">
        <ele>1940.6</ele>
        <time>2024-08-13T11:41:14Z</time>
      </trkpt>
      <trkpt lat="44.84489" lon="6.14546">
        <ele>1940.6</ele>
        <time>2024-08-13T11:41:15Z</time>
      </trkpt>
      <trkpt lat="44.84489" lon="6.14546">
        <ele>1940.6</ele>
        <time>2024-08-13T11:41:16Z</time>
      </trkpt>
      <trkpt lat="44.84489" lon="6.14546">
        <ele>1940.8</ele>
        <time>2024-08-13T11:41:17Z</time>
      </trkpt>
      <trkpt lat="44.84489" lon="6.14546">
        <ele>1940.8</ele>
        <time>2024-08-13T11:41:18Z</time>
      </trkpt>
      <trkpt lat="44.84489" lon="6.14546">
        <ele>1941</ele>
        <time>2024-08-13T11:41:19Z</time>
      </trkpt>
      <trkpt lat="44.84489" lon="6.14546">
        <ele>1941</ele>
        <time>2024-08-13T11:41:20Z</time>
      </trkpt>
      <trkpt lat="44.84489" lon="6.14546">
        <ele>1941.2</ele>
        <time>2024-08-13T11:41:21Z</time>
      </trkpt>
      <trkpt lat="44.84489" lon="6.14546">
        <ele>1941.2</ele>
        <time>2024-08-13T11:41:22Z</time>
      </trkpt>
      <trkpt lat="44.84489" lon="6.14546">
        <ele>1941</ele>
        <time>2024-08-13T11:41:23Z</time>
      </trkpt>
      <trkpt lat="44.84489" lon="6.14546">
        <ele>1940.8</ele>
        <time>2024-08-13T11:41:24Z</time>
      </trkpt>
      <trkpt lat="44.84489" lon="6.14546">
        <ele>1940.8</ele>
        <time>2024-08-13T11:41:25Z</time>
      </trkpt>
      <trkpt lat="44.84489" lon="6.14546">
        <ele>1940.8</ele>
        <time>2024-08-13T11:41:26Z</time>
      </trkpt>
      <trkpt lat="44.84489" lon="6.14546">
        <ele>1940.6</ele>
        <time>2024-08-13T11:41:27Z</time>
      </trkpt>
      <trkpt lat="44.84489" lon="6.14546">
        <ele>1940.6</ele>
        <time>2024-08-13T11:41:28Z</time>
      </trkpt>
      <trkpt lat="44.84489" lon="6.14546">
        <ele>1940.6</ele>
        <time>2024-08-13T11:41:29Z</time>
      </trkpt>
      <trkpt lat="44.84489" lon="6.14546">
        <ele>1940.6</ele>
        <time>2024-08-13T11:41:30Z</time>
      </trkpt>
      <trkpt lat="44.84489" lon="6.14546">
        <ele>1940.6</ele>
        <time>2024-08-13T11:41:31Z</time>
      </trkpt>
      <trkpt lat="44.84489" lon="6.14546">
        <ele>1940.6</ele>
        <time>2024-08-13T11:41:32Z</time>
      </trkpt>
      <trkpt lat="44.84489" lon="6.14546">
        <ele>1940.6</ele>
        <time>2024-08-13T11:41:33Z</time>
      </trkpt>
      <trkpt lat="44.84489" lon="6.14546">
        <ele>1940.6</ele>
        <time>2024-08-13T11:41:34Z</time>
      </trkpt>
      <trkpt lat="44.84489" lon="6.14546">
        <ele>1940.6</ele>
        <time>2024-08-13T11:41:35Z</time>
      </trkpt>
      <trkpt lat="44.84489" lon="6.14546">
        <ele>1940.8</ele>
        <time>2024-08-13T11:41:36Z</time>
      </trkpt>
      <trkpt lat="44.84489" lon="6.14546">
        <ele>1941</ele>
        <time>2024-08-13T11:41:37Z</time>
      </trkpt>
      <trkpt lat="44.84489" lon="6.14546">
        <ele>1941</ele>
        <time>2024-08-13T11:41:38Z</time>
      </trkpt>
      <trkpt lat="44.84489" lon="6.14546">
        <ele>1940.8</ele>
        <time>2024-08-13T11:41:39Z</time>
      </trkpt>
      <trkpt lat="44.84489" lon="6.14546">
        <ele>1940.8</ele>
        <time>2024-08-13T11:41:40Z</time>
      </trkpt>
      <trkpt lat="44.84489" lon="6.14546">
        <ele>1940.8</ele>
        <time>2024-08-13T11:41:41Z</time>
      </trkpt>
      <trkpt lat="44.84489" lon="6.14546">
        <ele>1940.6</ele>
        <time>2024-08-13T11:41:42Z</time>
      </trkpt>
      <trkpt lat="44.84489" lon="6.14546">
        <ele>1940.6</ele>
        <time>2024-08-13T11:41:43Z</time>
      </trkpt>
      <trkpt lat="44.84489" lon="6.14546">
        <ele>1940.6</ele>
        <time>2024-08-13T11:41:44Z</time>
      </trkpt>
      <trkpt lat="44.84489" lon="6.14546">
        <ele>1940.8</ele>
        <time>2024-08-13T11:41:45Z</time>
      </trkpt>
      <trkpt lat="44.84489" lon="6.14546">
        <ele>1940.8</ele>
        <time>2024-08-13T11:41:46Z</time>
      </trkpt>
      <trkpt lat="44.84489" lon="6.14546">
        <ele>1940.8</ele>
        <time>2024-08-13T11:41:47Z</time>
      </trkpt>
      <trkpt lat="44.84489" lon="6.14546">
        <ele>1940.8</ele>
        <time>2024-08-13T11:41:48Z</time>
      </trkpt>
      <trkpt lat="44.84489" lon="6.14546">
        <ele>1940.8</ele>
        <time>2024-08-13T11:41:49Z</time>
      </trkpt>
      <trkpt lat="44.84489" lon="6.14546">
        <ele>1940.8</ele>
        <time>2024-08-13T11:41:50Z</time>
      </trkpt>
      <trkpt lat="44.84489" lon="6.14546">
        <ele>1940.8</ele>
        <time>2024-08-13T11:41:51Z</time>
      </trkpt>
      <trkpt lat="44.84489" lon="6.14546">
        <ele>1940.8</ele>
        <time>2024-08-13T11:41:52Z</time>
      </trkpt>
      <trkpt lat="44.84489" lon="6.14546">
        <ele>1940.8</ele>
        <time>2024-08-13T11:41:53Z</time>
      </trkpt>
      <trkpt lat="44.84489" lon="6.14546">
        <ele>1940.8</ele>
        <time>2024-08-13T11:41:54Z</time>
      </trkpt>
      <trkpt lat="44.84489" lon="6.14546">
        <ele>1940.6</ele>
        <time>2024-08-13T11:41:55Z</time>
      </trkpt>
      <trkpt lat="44.84489" lon="6.14546">
        <ele>1940.6</ele>
        <time>2024-08-13T11:41:56Z</time>
      </trkpt>
      <trkpt lat="44.84489" lon="6.14546">
        <ele>1940.8</ele>
        <time>2024-08-13T11:41:57Z</time>
      </trkpt>
      <trkpt lat="44.84489" lon="6.14546">
        <ele>1940.8</ele>
        <time>2024-08-13T11:41:58Z</time>
      </trkpt>
      <trkpt lat="44.84489" lon="6.14546">
        <ele>1940.8</ele>
        <time>2024-08-13T11:41:59Z</time>
      </trkpt>
      <trkpt lat="44.84489" lon="6.14546">
        <ele>1940.8</ele>
        <time>2024-08-13T11:42:00Z</time>
      </trkpt>
      <trkpt lat="44.84489" lon="6.14546">
        <ele>1940.6</ele>
        <time>2024-08-13T11:42:01Z</time>
      </trkpt>
      <trkpt lat="44.84489" lon="6.14546">
        <ele>1940.6</ele>
        <time>2024-08-13T11:42:02Z</time>
      </trkpt>
      <trkpt lat="44.84489" lon="6.14546">
        <ele>1940.6</ele>
        <time>2024-08-13T11:42:03Z</time>
      </trkpt>
      <trkpt lat="44.84489" lon="6.14546">
        <ele>1940.8</ele>
        <time>2024-08-13T11:42:04Z</time>
      </trkpt>
      <trkpt lat="44.84489" lon="6.14546">
        <ele>1940.8</ele>
        <time>2024-08-13T11:42:05Z</time>
      </trkpt>
      <trkpt lat="44.84489" lon="6.14546">
        <ele>1940.8</ele>
        <time>2024-08-13T11:42:06Z</time>
      </trkpt>
      <trkpt lat="44.84489" lon="6.14546">
        <ele>1940.8</ele>
        <time>2024-08-13T11:42:07Z</time>
      </trkpt>
      <trkpt lat="44.84489" lon="6.14546">
        <ele>1940.6</ele>
        <time>2024-08-13T11:42:08Z</time>
      </trkpt>
      <trkpt lat="44.84489" lon="6.14546">
        <ele>1940.6</ele>
        <time>2024-08-13T11:42:09Z</time>
      </trkpt>
      <trkpt lat="44.84489" lon="6.14546">
        <ele>1940.6</ele>
        <time>2024-08-13T11:42:10Z</time>
      </trkpt>
      <trkpt lat="44.84489" lon="6.14546">
        <ele>1940.8</ele>
        <time>2024-08-13T11:42:11Z</time>
      </trkpt>
      <trkpt lat="44.84489" lon="6.14546">
        <ele>1940.8</ele>
        <time>2024-08-13T11:42:12Z</time>
      </trkpt>
      <trkpt lat="44.84489" lon="6.14546">
        <ele>1940.8</ele>
        <time>2024-08-13T11:42:13Z</time>
      </trkpt>
      <trkpt lat="44.84489" lon="6.14546">
        <ele>1940.6</ele>
        <time>2024-08-13T11:42:14Z</time>
      </trkpt>
      <trkpt lat="44.84489" lon="6.14546">
        <ele>1940.6</ele>
        <time>2024-08-13T11:42:15Z</time>
      </trkpt>
      <trkpt lat="44.84489" lon="6.14546">
        <ele>1940.8</ele>
        <time>2024-08-13T11:42:16Z</time>
      </trkpt>
      <trkpt lat="44.84489" lon="6.14546">
        <ele>1940.8</ele>
        <time>2024-08-13T11:42:17Z</time>
      </trkpt>
      <trkpt lat="44.84489" lon="6.14546">
        <ele>1940.6</ele>
        <time>2024-08-13T11:42:18Z</time>
      </trkpt>
      <trkpt lat="44.84489" lon="6.14546">
        <ele>1940.6</ele>
        <time>2024-08-13T11:42:19Z</time>
      </trkpt>
      <trkpt lat="44.84489" lon="6.14546">
        <ele>1940.8</ele>
        <time>2024-08-13T11:42:20Z</time>
      </trkpt>
      <trkpt lat="44.84489" lon="6.14546">
        <ele>1940.8</ele>
        <time>2024-08-13T11:42:21Z</time>
      </trkpt>
      <trkpt lat="44.84489" lon="6.14546">
        <ele>1940.4</ele>
        <time>2024-08-13T11:42:22Z</time>
      </trkpt>
      <trkpt lat="44.84489" lon="6.14546">
        <ele>1940.4</ele>
        <time>2024-08-13T11:42:23Z</time>
      </trkpt>
      <trkpt lat="44.84489" lon="6.14546">
        <ele>1940.2</ele>
        <time>2024-08-13T11:42:24Z</time>
      </trkpt>
      <trkpt lat="44.84489" lon="6.14546">
        <ele>1940.4</ele>
        <time>2024-08-13T11:42:25Z</time>
      </trkpt>
      <trkpt lat="44.84489" lon="6.14546">
        <ele>1940.4</ele>
        <time>2024-08-13T11:42:26Z</time>
      </trkpt>
      <trkpt lat="44.84489" lon="6.14546">
        <ele>1940.6</ele>
        <time>2024-08-13T11:42:27Z</time>
      </trkpt>
      <trkpt lat="44.84489" lon="6.14546">
        <ele>1940.6</ele>
        <time>2024-08-13T11:42:28Z</time>
      </trkpt>
      <trkpt lat="44.84489" lon="6.14546">
        <ele>1940.6</ele>
        <time>2024-08-13T11:42:29Z</time>
      </trkpt>
      <trkpt lat="44.84489" lon="6.14546">
        <ele>1941</ele>
        <time>2024-08-13T11:42:30Z</time>
      </trkpt>
      <trkpt lat="44.84489" lon="6.14546">
        <ele>1941</ele>
        <time>2024-08-13T11:42:31Z</time>
      </trkpt>
      <trkpt lat="44.84489" lon="6.14546">
        <ele>1941</ele>
        <time>2024-08-13T11:42:32Z</time>
      </trkpt>
      <trkpt lat="44.84489" lon="6.14546">
        <ele>1941</ele>
        <time>2024-08-13T11:42:33Z</time>
      </trkpt>
      <trkpt lat="44.84489" lon="6.14546">
        <ele>1941</ele>
        <time>2024-08-13T11:42:34Z</time>
      </trkpt>
      <trkpt lat="44.84489" lon="6.14546">
        <ele>1941.2</ele>
        <time>2024-08-13T11:42:35Z</time>
      </trkpt>
      <trkpt lat="44.84489" lon="6.14546">
        <ele>1941.2</ele>
        <time>2024-08-13T11:42:36Z</time>
      </trkpt>
      <trkpt lat="44.84489" lon="6.14546">
        <ele>1941</ele>
        <time>2024-08-13T11:42:37Z</time>
      </trkpt>
      <trkpt lat="44.84489" lon="6.14546">
        <ele>1941</ele>
        <time>2024-08-13T11:42:38Z</time>
      </trkpt>
      <trkpt lat="44.84489" lon="6.14546">
        <ele>1941</ele>
        <time>2024-08-13T11:42:39Z</time>
      </trkpt>
      <trkpt lat="44.84489" lon="6.14546">
        <ele>1941</ele>
        <time>2024-08-13T11:42:40Z</time>
      </trkpt>
      <trkpt lat="44.84489" lon="6.14546">
        <ele>1941</ele>
        <time>2024-08-13T11:42:41Z</time>
      </trkpt>
      <trkpt lat="44.84489" lon="6.14546">
        <ele>1941.2</ele>
        <time>2024-08-13T11:42:42Z</time>
      </trkpt>
      <trkpt lat="44.84489" lon="6.14546">
        <ele>1941.2</ele>
        <time>2024-08-13T11:42:43Z</time>
      </trkpt>
      <trkpt lat="44.84489" lon="6.14546">
        <ele>1941.4</ele>
        <time>2024-08-13T11:42:44Z</time>
      </trkpt>
      <trkpt lat="44.84489" lon="6.14546">
        <ele>1941.6</ele>
        <time>2024-08-13T11:42:45Z</time>
      </trkpt>
      <trkpt lat="44.84489" lon="6.14546">
        <ele>1941.6</ele>
        <time>2024-08-13T11:42:46Z</time>
      </trkpt>
      <trkpt lat="44.84489" lon="6.14546">
        <ele>1941.6</ele>
        <time>2024-08-13T11:42:47Z</time>
      </trkpt>
      <trkpt lat="44.84489" lon="6.14546">
        <ele>1941.6</ele>
        <time>2024-08-13T11:42:48Z</time>
      </trkpt>
      <trkpt lat="44.84489" lon="6.14546">
        <ele>1941.6</ele>
        <time>2024-08-13T11:42:49Z</time>
      </trkpt>
      <trkpt lat="44.84489" lon="6.14546">
        <ele>1941.6</ele>
        <time>2024-08-13T11:42:50Z</time>
      </trkpt>
      <trkpt lat="44.84489" lon="6.14546">
        <ele>1941.8</ele>
        <time>2024-08-13T11:42:51Z</time>
      </trkpt>
      <trkpt lat="44.84489" lon="6.14546">
        <ele>1941.6</ele>
        <time>2024-08-13T11:42:52Z</time>
      </trkpt>
      <trkpt lat="44.84489" lon="6.14546">
        <ele>1941.6</ele>
        <time>2024-08-13T11:42:53Z</time>
      </trkpt>
      <trkpt lat="44.84489" lon="6.14546">
        <ele>1941.6</ele>
        <time>2024-08-13T11:42:54Z</time>
      </trkpt>
      <trkpt lat="44.8449" lon="6.14548">
        <ele>1941.6</ele>
        <time>2024-08-13T11:42:55Z</time>
      </trkpt>
      <trkpt lat="44.8449" lon="6.14548">
        <ele>1941.8</ele>
        <time>2024-08-13T11:42:56Z</time>
      </trkpt>
      <trkpt lat="44.84489" lon="6.14552">
        <ele>1941.8</ele>
        <time>2024-08-13T11:42:57Z</time>
      </trkpt>
      <trkpt lat="44.84489" lon="6.14552">
        <ele>1942</ele>
        <time>2024-08-13T11:42:58Z</time>
      </trkpt>
      <trkpt lat="44.84488" lon="6.14556">
        <ele>1942</ele>
        <time>2024-08-13T11:42:59Z</time>
      </trkpt>
      <trkpt lat="44.84488" lon="6.14556">
        <ele>1942</ele>
        <time>2024-08-13T11:43:00Z</time>
      </trkpt>
      <trkpt lat="44.84486" lon="6.1456">
        <ele>1942</ele>
        <time>2024-08-13T11:43:01Z</time>
      </trkpt>
      <trkpt lat="44.84486" lon="6.1456">
        <ele>1942</ele>
        <time>2024-08-13T11:43:02Z</time>
      </trkpt>
      <trkpt lat="44.84485" lon="6.14562">
        <ele>1942</ele>
        <time>2024-08-13T11:43:03Z</time>
      </trkpt>
      <trkpt lat="44.84485" lon="6.14562">
        <ele>1942</ele>
        <time>2024-08-13T11:43:04Z</time>
      </trkpt>
      <trkpt lat="44.84484" lon="6.14564">
        <ele>1942</ele>
        <time>2024-08-13T11:43:05Z</time>
      </trkpt>
      <trkpt lat="44.84484" lon="6.14564">
        <ele>1942</ele>
        <time>2024-08-13T11:43:06Z</time>
      </trkpt>
      <trkpt lat="44.84483" lon="6.14566">
        <ele>1942.2</ele>
        <time>2024-08-13T11:43:07Z</time>
      </trkpt>
      <trkpt lat="44.84483" lon="6.14566">
        <ele>1942.4</ele>
        <time>2024-08-13T11:43:08Z</time>
      </trkpt>
      <trkpt lat="44.84483" lon="6.14566">
        <ele>1942.6</ele>
        <time>2024-08-13T11:43:09Z</time>
      </trkpt>
      <trkpt lat="44.84482" lon="6.14569">
        <ele>1942.8</ele>
        <time>2024-08-13T11:43:10Z</time>
      </trkpt>
      <trkpt lat="44.84482" lon="6.14569">
        <ele>1942.8</ele>
        <time>2024-08-13T11:43:11Z</time>
      </trkpt>
      <trkpt lat="44.84482" lon="6.14569">
        <ele>1942.6</ele>
        <time>2024-08-13T11:43:12Z</time>
      </trkpt>
      <trkpt lat="44.84481" lon="6.14571">
        <ele>1942.6</ele>
        <time>2024-08-13T11:43:13Z</time>
      </trkpt>
      <trkpt lat="44.84481" lon="6.14571">
        <ele>1943</ele>
        <time>2024-08-13T11:43:14Z</time>
      </trkpt>
      <trkpt lat="44.84479" lon="6.14573">
        <ele>1943</ele>
        <time>2024-08-13T11:43:15Z</time>
      </trkpt>
      <trkpt lat="44.84479" lon="6.14573">
        <ele>1943.2</ele>
        <time>2024-08-13T11:43:16Z</time>
      </trkpt>
      <trkpt lat="44.84479" lon="6.14573">
        <ele>1943.4</ele>
        <time>2024-08-13T11:43:17Z</time>
      </trkpt>
      <trkpt lat="44.84477" lon="6.14576">
        <ele>1943.6</ele>
        <time>2024-08-13T11:43:18Z</time>
      </trkpt>
      <trkpt lat="44.84477" lon="6.14576">
        <ele>1943.8</ele>
        <time>2024-08-13T11:43:19Z</time>
      </trkpt>
      <trkpt lat="44.84477" lon="6.14576">
        <ele>1943.8</ele>
        <time>2024-08-13T11:43:20Z</time>
      </trkpt>
      <trkpt lat="44.84476" lon="6.14579">
        <ele>1944</ele>
        <time>2024-08-13T11:43:21Z</time>
      </trkpt>
      <trkpt lat="44.84476" lon="6.14579">
        <ele>1944</ele>
        <time>2024-08-13T11:43:22Z</time>
      </trkpt>
      <trkpt lat="44.84476" lon="6.14579">
        <ele>1944</ele>
        <time>2024-08-13T11:43:23Z</time>
      </trkpt>
      <trkpt lat="44.84475" lon="6.1458">
        <ele>1944</ele>
        <time>2024-08-13T11:43:24Z</time>
      </trkpt>
      <trkpt lat="44.84475" lon="6.1458">
        <ele>1944.2</ele>
        <time>2024-08-13T11:43:25Z</time>
      </trkpt>
      <trkpt lat="44.84475" lon="6.1458">
        <ele>1944.2</ele>
        <time>2024-08-13T11:43:26Z</time>
      </trkpt>
      <trkpt lat="44.84475" lon="6.1458">
        <ele>1944.2</ele>
        <time>2024-08-13T11:43:27Z</time>
      </trkpt>
      <trkpt lat="44.84474" lon="6.14583">
        <ele>1944.2</ele>
        <time>2024-08-13T11:43:28Z</time>
      </trkpt>
      <trkpt lat="44.84474" lon="6.14583">
        <ele>1944.2</ele>
        <time>2024-08-13T11:43:29Z</time>
      </trkpt>
      <trkpt lat="44.84474" lon="6.14583">
        <ele>1944.4</ele>
        <time>2024-08-13T11:43:30Z</time>
      </trkpt>
      <trkpt lat="44.84474" lon="6.14583">
        <ele>1944.6</ele>
        <time>2024-08-13T11:43:31Z</time>
      </trkpt>
      <trkpt lat="44.84472" lon="6.14585">
        <ele>1944.6</ele>
        <time>2024-08-13T11:43:32Z</time>
      </trkpt>
      <trkpt lat="44.84472" lon="6.14585">
        <ele>1944.6</ele>
        <time>2024-08-13T11:43:33Z</time>
      </trkpt>
      <trkpt lat="44.8447" lon="6.14587">
        <ele>1944.6</ele>
        <time>2024-08-13T11:43:34Z</time>
      </trkpt>
      <trkpt lat="44.8447" lon="6.14587">
        <ele>1944.8</ele>
        <time>2024-08-13T11:43:35Z</time>
      </trkpt>
      <trkpt lat="44.8447" lon="6.14587">
        <ele>1945.4</ele>
        <time>2024-08-13T11:43:36Z</time>
      </trkpt>
      <trkpt lat="44.84468" lon="6.14587">
        <ele>1945.4</ele>
        <time>2024-08-13T11:43:37Z</time>
      </trkpt>
      <trkpt lat="44.84468" lon="6.14587">
        <ele>1945.6</ele>
        <time>2024-08-13T11:43:38Z</time>
      </trkpt>
      <trkpt lat="44.84466" lon="6.14587">
        <ele>1945.8</ele>
        <time>2024-08-13T11:43:39Z</time>
      </trkpt>
      <trkpt lat="44.84466" lon="6.14587">
        <ele>1946</ele>
        <time>2024-08-13T11:43:40Z</time>
      </trkpt>
      <trkpt lat="44.84466" lon="6.14587">
        <ele>1945.8</ele>
        <time>2024-08-13T11:43:41Z</time>
      </trkpt>
      <trkpt lat="44.84464" lon="6.14587">
        <ele>1946</ele>
        <time>2024-08-13T11:43:42Z</time>
      </trkpt>
      <trkpt lat="44.84464" lon="6.14587">
        <ele>1946.2</ele>
        <time>2024-08-13T11:43:43Z</time>
      </trkpt>
      <trkpt lat="44.84464" lon="6.14587">
        <ele>1946.8</ele>
        <time>2024-08-13T11:43:44Z</time>
      </trkpt>
      <trkpt lat="44.84464" lon="6.14587">
        <ele>1946.8</ele>
        <time>2024-08-13T11:43:45Z</time>
      </trkpt>
      <trkpt lat="44.84464" lon="6.14587">
        <ele>1946.8</ele>
        <time>2024-08-13T11:43:46Z</time>
      </trkpt>
      <trkpt lat="44.84465" lon="6.1459">
        <ele>1946.6</ele>
        <time>2024-08-13T11:43:47Z</time>
      </trkpt>
      <trkpt lat="44.84465" lon="6.1459">
        <ele>1946.6</ele>
        <time>2024-08-13T11:43:48Z</time>
      </trkpt>
      <trkpt lat="44.84467" lon="6.14591">
        <ele>1946.6</ele>
        <time>2024-08-13T11:43:49Z</time>
      </trkpt>
      <trkpt lat="44.84467" lon="6.14591">
        <ele>1946.8</ele>
        <time>2024-08-13T11:43:50Z</time>
      </trkpt>
      <trkpt lat="44.84467" lon="6.14591">
        <ele>1946.8</ele>
        <time>2024-08-13T11:43:51Z</time>
      </trkpt>
      <trkpt lat="44.84469" lon="6.14593">
        <ele>1947</ele>
        <time>2024-08-13T11:43:52Z</time>
      </trkpt>
      <trkpt lat="44.84469" lon="6.14593">
        <ele>1947</ele>
        <time>2024-08-13T11:43:53Z</time>
      </trkpt>
      <trkpt lat="44.84469" lon="6.14593">
        <ele>1947</ele>
        <time>2024-08-13T11:43:54Z</time>
      </trkpt>
      <trkpt lat="44.84469" lon="6.14593">
        <ele>1947.2</ele>
        <time>2024-08-13T11:43:55Z</time>
      </trkpt>
      <trkpt lat="44.84469" lon="6.14593">
        <ele>1947.6</ele>
        <time>2024-08-13T11:43:56Z</time>
      </trkpt>
      <trkpt lat="44.84469" lon="6.14593">
        <ele>1947.6</ele>
        <time>2024-08-13T11:43:57Z</time>
      </trkpt>
      <trkpt lat="44.84471" lon="6.14594">
        <ele>1947.6</ele>
        <time>2024-08-13T11:43:58Z</time>
      </trkpt>
      <trkpt lat="44.84471" lon="6.14594">
        <ele>1948.2</ele>
        <time>2024-08-13T11:43:59Z</time>
      </trkpt>
      <trkpt lat="44.84473" lon="6.14595">
        <ele>1948.2</ele>
        <time>2024-08-13T11:44:00Z</time>
      </trkpt>
      <trkpt lat="44.84473" lon="6.14595">
        <ele>1948</ele>
        <time>2024-08-13T11:44:01Z</time>
      </trkpt>
      <trkpt lat="44.84475" lon="6.14596">
        <ele>1948</ele>
        <time>2024-08-13T11:44:02Z</time>
      </trkpt>
      <trkpt lat="44.84475" lon="6.14596">
        <ele>1948</ele>
        <time>2024-08-13T11:44:03Z</time>
      </trkpt>
      <trkpt lat="44.84477" lon="6.14597">
        <ele>1948.4</ele>
        <time>2024-08-13T11:44:04Z</time>
      </trkpt>
      <trkpt lat="44.84477" lon="6.14597">
        <ele>1948.4</ele>
        <time>2024-08-13T11:44:05Z</time>
      </trkpt>
      <trkpt lat="44.84477" lon="6.14597">
        <ele>1948.4</ele>
        <time>2024-08-13T11:44:06Z</time>
      </trkpt>
      <trkpt lat="44.84479" lon="6.14598">
        <ele>1948.6</ele>
        <time>2024-08-13T11:44:07Z</time>
      </trkpt>
      <trkpt lat="44.84479" lon="6.14598">
        <ele>1948.8</ele>
        <time>2024-08-13T11:44:08Z</time>
      </trkpt>
      <trkpt lat="44.84479" lon="6.14598">
        <ele>1948.8</ele>
        <time>2024-08-13T11:44:09Z</time>
      </trkpt>
      <trkpt lat="44.84479" lon="6.14598">
        <ele>1949</ele>
        <time>2024-08-13T11:44:10Z</time>
      </trkpt>
      <trkpt lat="44.84481" lon="6.14598">
        <ele>1949</ele>
        <time>2024-08-13T11:44:11Z</time>
      </trkpt>
      <trkpt lat="44.84481" lon="6.14598">
        <ele>1949.2</ele>
        <time>2024-08-13T11:44:12Z</time>
      </trkpt>
      <trkpt lat="44.84481" lon="6.14598">
        <ele>1949.2</ele>
        <time>2024-08-13T11:44:13Z</time>
      </trkpt>
      <trkpt lat="44.84483" lon="6.14598">
        <ele>1949.6</ele>
        <time>2024-08-13T11:44:14Z</time>
      </trkpt>
      <trkpt lat="44.84483" lon="6.14598">
        <ele>1949.8</ele>
        <time>2024-08-13T11:44:15Z</time>
      </trkpt>
      <trkpt lat="44.84483" lon="6.14598">
        <ele>1949.8</ele>
        <time>2024-08-13T11:44:16Z</time>
      </trkpt>
      <trkpt lat="44.84486" lon="6.14598">
        <ele>1949.8</ele>
        <time>2024-08-13T11:44:17Z</time>
      </trkpt>
      <trkpt lat="44.84486" lon="6.14598">
        <ele>1949.8</ele>
        <time>2024-08-13T11:44:18Z</time>
      </trkpt>
      <trkpt lat="44.84486" lon="6.14598">
        <ele>1950</ele>
        <time>2024-08-13T11:44:19Z</time>
      </trkpt>
      <trkpt lat="44.84488" lon="6.14598">
        <ele>1950.2</ele>
        <time>2024-08-13T11:44:20Z</time>
      </trkpt>
      <trkpt lat="44.84488" lon="6.14598">
        <ele>1950.6</ele>
        <time>2024-08-13T11:44:21Z</time>
      </trkpt>
      <trkpt lat="44.84488" lon="6.14598">
        <ele>1950.8</ele>
        <time>2024-08-13T11:44:22Z</time>
      </trkpt>
      <trkpt lat="44.8449" lon="6.14599">
        <ele>1950.8</ele>
        <time>2024-08-13T11:44:23Z</time>
      </trkpt>
      <trkpt lat="44.8449" lon="6.14599">
        <ele>1951</ele>
        <time>2024-08-13T11:44:24Z</time>
      </trkpt>
      <trkpt lat="44.8449" lon="6.14599">
        <ele>1951.2</ele>
        <time>2024-08-13T11:44:25Z</time>
      </trkpt>
      <trkpt lat="44.8449" lon="6.14599">
        <ele>1951.2</ele>
        <time>2024-08-13T11:44:26Z</time>
      </trkpt>
      <trkpt lat="44.84492" lon="6.146">
        <ele>1951.4</ele>
        <time>2024-08-13T11:44:27Z</time>
      </trkpt>
      <trkpt lat="44.84492" lon="6.146">
        <ele>1951.6</ele>
        <time>2024-08-13T11:44:28Z</time>
      </trkpt>
      <trkpt lat="44.84492" lon="6.146">
        <ele>1951.8</ele>
        <time>2024-08-13T11:44:29Z</time>
      </trkpt>
      <trkpt lat="44.84492" lon="6.146">
        <ele>1952</ele>
        <time>2024-08-13T11:44:30Z</time>
      </trkpt>
      <trkpt lat="44.84492" lon="6.146">
        <ele>1952</ele>
        <time>2024-08-13T11:44:31Z</time>
      </trkpt>
      <trkpt lat="44.84492" lon="6.146">
        <ele>1952</ele>
        <time>2024-08-13T11:44:32Z</time>
      </trkpt>
      <trkpt lat="44.84492" lon="6.146">
        <ele>1951.8</ele>
        <time>2024-08-13T11:44:33Z</time>
      </trkpt>
      <trkpt lat="44.84492" lon="6.146">
        <ele>1951.6</ele>
        <time>2024-08-13T11:44:34Z</time>
      </trkpt>
      <trkpt lat="44.84492" lon="6.146">
        <ele>1951.6</ele>
        <time>2024-08-13T11:44:35Z</time>
      </trkpt>
      <trkpt lat="44.84492" lon="6.146">
        <ele>1951.6</ele>
        <time>2024-08-13T11:44:36Z</time>
      </trkpt>
      <trkpt lat="44.84492" lon="6.146">
        <ele>1951.6</ele>
        <time>2024-08-13T11:44:37Z</time>
      </trkpt>
      <trkpt lat="44.84492" lon="6.146">
        <ele>1951.6</ele>
        <time>2024-08-13T11:44:38Z</time>
      </trkpt>
      <trkpt lat="44.84492" lon="6.146">
        <ele>1951.6</ele>
        <time>2024-08-13T11:44:39Z</time>
      </trkpt>
      <trkpt lat="44.84492" lon="6.146">
        <ele>1951.6</ele>
        <time>2024-08-13T11:44:40Z</time>
      </trkpt>
      <trkpt lat="44.84492" lon="6.146">
        <ele>1951.6</ele>
        <time>2024-08-13T11:44:41Z</time>
      </trkpt>
      <trkpt lat="44.84492" lon="6.146">
        <ele>1951.4</ele>
        <time>2024-08-13T11:44:42Z</time>
      </trkpt>
      <trkpt lat="44.84492" lon="6.146">
        <ele>1951.4</ele>
        <time>2024-08-13T11:44:43Z</time>
      </trkpt>
      <trkpt lat="44.84492" lon="6.146">
        <ele>1951.4</ele>
        <time>2024-08-13T11:44:44Z</time>
      </trkpt>
      <trkpt lat="44.84492" lon="6.146">
        <ele>1951.4</ele>
        <time>2024-08-13T11:44:45Z</time>
      </trkpt>
      <trkpt lat="44.84492" lon="6.146">
        <ele>1951.6</ele>
        <time>2024-08-13T11:44:46Z</time>
      </trkpt>
      <trkpt lat="44.84492" lon="6.146">
        <ele>1951.6</ele>
        <time>2024-08-13T11:44:47Z</time>
      </trkpt>
      <trkpt lat="44.84492" lon="6.146">
        <ele>1951.8</ele>
        <time>2024-08-13T11:44:48Z</time>
      </trkpt>
      <trkpt lat="44.84492" lon="6.146">
        <ele>1951.8</ele>
        <time>2024-08-13T11:44:49Z</time>
      </trkpt>
      <trkpt lat="44.84492" lon="6.146">
        <ele>1951.8</ele>
        <time>2024-08-13T11:44:50Z</time>
      </trkpt>
      <trkpt lat="44.84492" lon="6.146">
        <ele>1951.6</ele>
        <time>2024-08-13T11:44:51Z</time>
      </trkpt>
      <trkpt lat="44.84492" lon="6.146">
        <ele>1951.6</ele>
        <time>2024-08-13T11:44:52Z</time>
      </trkpt>
      <trkpt lat="44.84492" lon="6.146">
        <ele>1951.6</ele>
        <time>2024-08-13T11:44:53Z</time>
      </trkpt>
      <trkpt lat="44.84492" lon="6.146">
        <ele>1951.6</ele>
        <time>2024-08-13T11:44:54Z</time>
      </trkpt>
      <trkpt lat="44.84492" lon="6.146">
        <ele>1952</ele>
        <time>2024-08-13T11:44:55Z</time>
      </trkpt>
      <trkpt lat="44.84492" lon="6.146">
        <ele>1952</ele>
        <time>2024-08-13T11:44:56Z</time>
      </trkpt>
      <trkpt lat="44.84492" lon="6.146">
        <ele>1952</ele>
        <time>2024-08-13T11:44:57Z</time>
      </trkpt>
      <trkpt lat="44.84492" lon="6.146">
        <ele>1952</ele>
        <time>2024-08-13T11:44:58Z</time>
      </trkpt>
      <trkpt lat="44.84492" lon="6.146">
        <ele>1951.8</ele>
        <time>2024-08-13T11:44:59Z</time>
      </trkpt>
      <trkpt lat="44.84492" lon="6.146">
        <ele>1951.8</ele>
        <time>2024-08-13T11:45:00Z</time>
      </trkpt>
      <trkpt lat="44.84492" lon="6.146">
        <ele>1951.8</ele>
        <time>2024-08-13T11:45:01Z</time>
      </trkpt>
      <trkpt lat="44.84492" lon="6.146">
        <ele>1951.6</ele>
        <time>2024-08-13T11:45:02Z</time>
      </trkpt>
      <trkpt lat="44.84492" lon="6.146">
        <ele>1951.6</ele>
        <time>2024-08-13T11:45:03Z</time>
      </trkpt>
      <trkpt lat="44.84492" lon="6.146">
        <ele>1951.6</ele>
        <time>2024-08-13T11:45:04Z</time>
      </trkpt>
      <trkpt lat="44.84492" lon="6.146">
        <ele>1951.6</ele>
        <time>2024-08-13T11:45:05Z</time>
      </trkpt>
      <trkpt lat="44.84492" lon="6.146">
        <ele>1951.6</ele>
        <time>2024-08-13T11:45:06Z</time>
      </trkpt>
      <trkpt lat="44.84492" lon="6.146">
        <ele>1951.6</ele>
        <time>2024-08-13T11:45:07Z</time>
      </trkpt>
      <trkpt lat="44.84492" lon="6.146">
        <ele>1951.6</ele>
        <time>2024-08-13T11:45:08Z</time>
      </trkpt>
      <trkpt lat="44.84492" lon="6.146">
        <ele>1951.6</ele>
        <time>2024-08-13T11:45:09Z</time>
      </trkpt>
      <trkpt lat="44.84492" lon="6.146">
        <ele>1951.6</ele>
        <time>2024-08-13T11:45:10Z</time>
      </trkpt>
      <trkpt lat="44.84492" lon="6.146">
        <ele>1951.4</ele>
        <time>2024-08-13T11:45:11Z</time>
      </trkpt>
      <trkpt lat="44.84492" lon="6.146">
        <ele>1951.4</ele>
        <time>2024-08-13T11:45:12Z</time>
      </trkpt>
      <trkpt lat="44.84492" lon="6.146">
        <ele>1951.4</ele>
        <time>2024-08-13T11:45:13Z</time>
      </trkpt>
      <trkpt lat="44.84492" lon="6.146">
        <ele>1951.4</ele>
        <time>2024-08-13T11:45:14Z</time>
      </trkpt>
      <trkpt lat="44.84492" lon="6.146">
        <ele>1951.4</ele>
        <time>2024-08-13T11:45:15Z</time>
      </trkpt>
      <trkpt lat="44.84492" lon="6.146">
        <ele>1951.4</ele>
        <time>2024-08-13T11:45:16Z</time>
      </trkpt>
      <trkpt lat="44.84492" lon="6.146">
        <ele>1951.4</ele>
        <time>2024-08-13T11:45:17Z</time>
      </trkpt>
      <trkpt lat="44.84494" lon="6.146">
        <ele>1951.6</ele>
        <time>2024-08-13T11:45:18Z</time>
      </trkpt>
      <trkpt lat="44.84494" lon="6.146">
        <ele>1952.2</ele>
        <time>2024-08-13T11:45:19Z</time>
      </trkpt>
      <trkpt lat="44.84497" lon="6.14602">
        <ele>1952.2</ele>
        <time>2024-08-13T11:45:20Z</time>
      </trkpt>
      <trkpt lat="44.84497" lon="6.14602">
        <ele>1952.2</ele>
        <time>2024-08-13T11:45:21Z</time>
      </trkpt>
      <trkpt lat="44.84499" lon="6.14606">
        <ele>1952</ele>
        <time>2024-08-13T11:45:22Z</time>
      </trkpt>
      <trkpt lat="44.84499" lon="6.14606">
        <ele>1952</ele>
        <time>2024-08-13T11:45:23Z</time>
      </trkpt>
      <trkpt lat="44.84499" lon="6.14606">
        <ele>1952.4</ele>
        <time>2024-08-13T11:45:24Z</time>
      </trkpt>
      <trkpt lat="44.84497" lon="6.14607">
        <ele>1953</ele>
        <time>2024-08-13T11:45:25Z</time>
      </trkpt>
      <trkpt lat="44.84497" lon="6.14607">
        <ele>1953</ele>
        <time>2024-08-13T11:45:26Z</time>
      </trkpt>
      <trkpt lat="44.84495" lon="6.14608">
        <ele>1953.2</ele>
        <time>2024-08-13T11:45:27Z</time>
      </trkpt>
      <trkpt lat="44.84495" lon="6.14608">
        <ele>1953.4</ele>
        <time>2024-08-13T11:45:28Z</time>
      </trkpt>
      <trkpt lat="44.84495" lon="6.14608">
        <ele>1953.6</ele>
        <time>2024-08-13T11:45:29Z</time>
      </trkpt>
      <trkpt lat="44.84493" lon="6.14608">
        <ele>1954</ele>
        <time>2024-08-13T11:45:30Z</time>
      </trkpt>
      <trkpt lat="44.84493" lon="6.14608">
        <ele>1954.2</ele>
        <time>2024-08-13T11:45:31Z</time>
      </trkpt>
      <trkpt lat="44.84493" lon="6.14608">
        <ele>1954.4</ele>
        <time>2024-08-13T11:45:32Z</time>
      </trkpt>
      <trkpt lat="44.8449" lon="6.14609">
        <ele>1954.6</ele>
        <time>2024-08-13T11:45:33Z</time>
      </trkpt>
      <trkpt lat="44.8449" lon="6.14609">
        <ele>1954.8</ele>
        <time>2024-08-13T11:45:34Z</time>
      </trkpt>
      <trkpt lat="44.8449" lon="6.14609">
        <ele>1955</ele>
        <time>2024-08-13T11:45:35Z</time>
      </trkpt>
      <trkpt lat="44.84488" lon="6.14611">
        <ele>1955</ele>
        <time>2024-08-13T11:45:36Z</time>
      </trkpt>
      <trkpt lat="44.84488" lon="6.14611">
        <ele>1955.2</ele>
        <time>2024-08-13T11:45:37Z</time>
      </trkpt>
      <trkpt lat="44.84488" lon="6.14611">
        <ele>1955.4</ele>
        <time>2024-08-13T11:45:38Z</time>
      </trkpt>
      <trkpt lat="44.84486" lon="6.14612">
        <ele>1955.4</ele>
        <time>2024-08-13T11:45:39Z</time>
      </trkpt>
      <trkpt lat="44.84485" lon="6.14614">
        <ele>1955.4</ele>
        <time>2024-08-13T11:45:40Z</time>
      </trkpt>
      <trkpt lat="44.84485" lon="6.14614">
        <ele>1955.4</ele>
        <time>2024-08-13T11:45:41Z</time>
      </trkpt>
      <trkpt lat="44.84483" lon="6.14617">
        <ele>1955.6</ele>
        <time>2024-08-13T11:45:42Z</time>
      </trkpt>
      <trkpt lat="44.84483" lon="6.14617">
        <ele>1955.8</ele>
        <time>2024-08-13T11:45:43Z</time>
      </trkpt>
      <trkpt lat="44.84483" lon="6.14617">
        <ele>1955.8</ele>
        <time>2024-08-13T11:45:44Z</time>
      </trkpt>
      <trkpt lat="44.84483" lon="6.14617">
        <ele>1956.6</ele>
        <time>2024-08-13T11:45:45Z</time>
      </trkpt>
      <trkpt lat="44.84483" lon="6.14617">
        <ele>1956.6</ele>
        <time>2024-08-13T11:45:46Z</time>
      </trkpt>
      <trkpt lat="44.84483" lon="6.14617">
        <ele>1956.6</ele>
        <time>2024-08-13T11:45:47Z</time>
      </trkpt>
      <trkpt lat="44.84483" lon="6.14617">
        <ele>1956.6</ele>
        <time>2024-08-13T11:45:48Z</time>
      </trkpt>
      <trkpt lat="44.84483" lon="6.14617">
        <ele>1956.8</ele>
        <time>2024-08-13T11:45:49Z</time>
      </trkpt>
      <trkpt lat="44.84483" lon="6.14617">
        <ele>1956.8</ele>
        <time>2024-08-13T11:45:50Z</time>
      </trkpt>
      <trkpt lat="44.84483" lon="6.14617">
        <ele>1957</ele>
        <time>2024-08-13T11:45:51Z</time>
      </trkpt>
      <trkpt lat="44.84483" lon="6.14617">
        <ele>1957</ele>
        <time>2024-08-13T11:45:52Z</time>
      </trkpt>
      <trkpt lat="44.84485" lon="6.14618">
        <ele>1957</ele>
        <time>2024-08-13T11:45:53Z</time>
      </trkpt>
      <trkpt lat="44.84485" lon="6.14618">
        <ele>1957.4</ele>
        <time>2024-08-13T11:45:54Z</time>
      </trkpt>
      <trkpt lat="44.84487" lon="6.14618">
        <ele>1957.8</ele>
        <time>2024-08-13T11:45:55Z</time>
      </trkpt>
      <trkpt lat="44.84487" lon="6.14618">
        <ele>1957.8</ele>
        <time>2024-08-13T11:45:56Z</time>
      </trkpt>
      <trkpt lat="44.84489" lon="6.14619">
        <ele>1957.8</ele>
        <time>2024-08-13T11:45:57Z</time>
      </trkpt>
      <trkpt lat="44.84489" lon="6.14619">
        <ele>1958.2</ele>
        <time>2024-08-13T11:45:58Z</time>
      </trkpt>
      <trkpt lat="44.84491" lon="6.1462">
        <ele>1958.2</ele>
        <time>2024-08-13T11:45:59Z</time>
      </trkpt>
      <trkpt lat="44.84491" lon="6.1462">
        <ele>1958.4</ele>
        <time>2024-08-13T11:46:00Z</time>
      </trkpt>
      <trkpt lat="44.84491" lon="6.1462">
        <ele>1958.6</ele>
        <time>2024-08-13T11:46:01Z</time>
      </trkpt>
      <trkpt lat="44.84491" lon="6.1462">
        <ele>1958.8</ele>
        <time>2024-08-13T11:46:02Z</time>
      </trkpt>
      <trkpt lat="44.84491" lon="6.1462">
        <ele>1958.8</ele>
        <time>2024-08-13T11:46:03Z</time>
      </trkpt>
      <trkpt lat="44.84491" lon="6.14623">
        <ele>1958.8</ele>
        <time>2024-08-13T11:46:04Z</time>
      </trkpt>
      <trkpt lat="44.84491" lon="6.14623">
        <ele>1959</ele>
        <time>2024-08-13T11:46:05Z</time>
      </trkpt>
      <trkpt lat="44.84493" lon="6.14625">
        <ele>1959</ele>
        <time>2024-08-13T11:46:06Z</time>
      </trkpt>
      <trkpt lat="44.84493" lon="6.14625">
        <ele>1959.6</ele>
        <time>2024-08-13T11:46:07Z</time>
      </trkpt>
      <trkpt lat="44.84494" lon="6.14627">
        <ele>1959.8</ele>
        <time>2024-08-13T11:46:08Z</time>
      </trkpt>
      <trkpt lat="44.84494" lon="6.14627">
        <ele>1959.8</ele>
        <time>2024-08-13T11:46:09Z</time>
      </trkpt>
      <trkpt lat="44.84496" lon="6.14629">
        <ele>1959.8</ele>
        <time>2024-08-13T11:46:10Z</time>
      </trkpt>
      <trkpt lat="44.84496" lon="6.14629">
        <ele>1959.8</ele>
        <time>2024-08-13T11:46:11Z</time>
      </trkpt>
      <trkpt lat="44.84498" lon="6.1463">
        <ele>1959.8</ele>
        <time>2024-08-13T11:46:12Z</time>
      </trkpt>
      <trkpt lat="44.84498" lon="6.1463">
        <ele>1959.8</ele>
        <time>2024-08-13T11:46:13Z</time>
      </trkpt>
      <trkpt lat="44.84498" lon="6.1463">
        <ele>1960.2</ele>
        <time>2024-08-13T11:46:14Z</time>
      </trkpt>
      <trkpt lat="44.84499" lon="6.14633">
        <ele>1960.4</ele>
        <time>2024-08-13T11:46:15Z</time>
      </trkpt>
      <trkpt lat="44.84499" lon="6.14633">
        <ele>1960.4</ele>
        <time>2024-08-13T11:46:16Z</time>
      </trkpt>
      <trkpt lat="44.84499" lon="6.14633">
        <ele>1960.6</ele>
        <time>2024-08-13T11:46:17Z</time>
      </trkpt>
      <trkpt lat="44.84499" lon="6.14635">
        <ele>1960.6</ele>
        <time>2024-08-13T11:46:18Z</time>
      </trkpt>
      <trkpt lat="44.84499" lon="6.14635">
        <ele>1961</ele>
        <time>2024-08-13T11:46:19Z</time>
      </trkpt>
      <trkpt lat="44.84499" lon="6.14635">
        <ele>1961</ele>
        <time>2024-08-13T11:46:20Z</time>
      </trkpt>
      <trkpt lat="44.84499" lon="6.14639">
        <ele>1961.2</ele>
        <time>2024-08-13T11:46:21Z</time>
      </trkpt>
      <trkpt lat="44.84499" lon="6.14639">
        <ele>1961.4</ele>
        <time>2024-08-13T11:46:22Z</time>
      </trkpt>
      <trkpt lat="44.84499" lon="6.14639">
        <ele>1961.4</ele>
        <time>2024-08-13T11:46:23Z</time>
      </trkpt>
      <trkpt lat="44.84499" lon="6.14642">
        <ele>1961.4</ele>
        <time>2024-08-13T11:46:24Z</time>
      </trkpt>
      <trkpt lat="44.84499" lon="6.14642">
        <ele>1961.6</ele>
        <time>2024-08-13T11:46:25Z</time>
      </trkpt>
      <trkpt lat="44.84499" lon="6.14642">
        <ele>1961.6</ele>
        <time>2024-08-13T11:46:26Z</time>
      </trkpt>
      <trkpt lat="44.84501" lon="6.14645">
        <ele>1961.8</ele>
        <time>2024-08-13T11:46:27Z</time>
      </trkpt>
      <trkpt lat="44.84501" lon="6.14645">
        <ele>1962</ele>
        <time>2024-08-13T11:46:28Z</time>
      </trkpt>
      <trkpt lat="44.84501" lon="6.14645">
        <ele>1962.4</ele>
        <time>2024-08-13T11:46:29Z</time>
      </trkpt>
      <trkpt lat="44.84502" lon="6.14647">
        <ele>1962.4</ele>
        <time>2024-08-13T11:46:30Z</time>
      </trkpt>
      <trkpt lat="44.84502" lon="6.14647">
        <ele>1962.8</ele>
        <time>2024-08-13T11:46:31Z</time>
      </trkpt>
      <trkpt lat="44.84502" lon="6.14647">
        <ele>1963</ele>
        <time>2024-08-13T11:46:32Z</time>
      </trkpt>
      <trkpt lat="44.84502" lon="6.14649">
        <ele>1963</ele>
        <time>2024-08-13T11:46:33Z</time>
      </trkpt>
      <trkpt lat="44.84502" lon="6.14649">
        <ele>1963.4</ele>
        <time>2024-08-13T11:46:34Z</time>
      </trkpt>
      <trkpt lat="44.845" lon="6.1465">
        <ele>1963.4</ele>
        <time>2024-08-13T11:46:35Z</time>
      </trkpt>
      <trkpt lat="44.845" lon="6.1465">
        <ele>1963.4</ele>
        <time>2024-08-13T11:46:36Z</time>
      </trkpt>
      <trkpt lat="44.84498" lon="6.14649">
        <ele>1963.4</ele>
        <time>2024-08-13T11:46:37Z</time>
      </trkpt>
      <trkpt lat="44.84498" lon="6.14649">
        <ele>1963.4</ele>
        <time>2024-08-13T11:46:38Z</time>
      </trkpt>
      <trkpt lat="44.84495" lon="6.14648">
        <ele>1963.6</ele>
        <time>2024-08-13T11:46:39Z</time>
      </trkpt>
      <trkpt lat="44.84495" lon="6.14648">
        <ele>1963.6</ele>
        <time>2024-08-13T11:46:40Z</time>
      </trkpt>
      <trkpt lat="44.84495" lon="6.14648">
        <ele>1963.6</ele>
        <time>2024-08-13T11:46:41Z</time>
      </trkpt>
      <trkpt lat="44.84493" lon="6.14646">
        <ele>1963.8</ele>
        <time>2024-08-13T11:46:42Z</time>
      </trkpt>
      <trkpt lat="44.84493" lon="6.14646">
        <ele>1963.8</ele>
        <time>2024-08-13T11:46:43Z</time>
      </trkpt>
      <trkpt lat="44.84493" lon="6.14646">
        <ele>1964</ele>
        <time>2024-08-13T11:46:44Z</time>
      </trkpt>
      <trkpt lat="44.8449" lon="6.14645">
        <ele>1964.6</ele>
        <time>2024-08-13T11:46:45Z</time>
      </trkpt>
      <trkpt lat="44.8449" lon="6.14645">
        <ele>1964.8</ele>
        <time>2024-08-13T11:46:46Z</time>
      </trkpt>
      <trkpt lat="44.8449" lon="6.14645">
        <ele>1964.8</ele>
        <time>2024-08-13T11:46:47Z</time>
      </trkpt>
      <trkpt lat="44.84488" lon="6.14645">
        <ele>1964.8</ele>
        <time>2024-08-13T11:46:48Z</time>
      </trkpt>
      <trkpt lat="44.84488" lon="6.14645">
        <ele>1964.8</ele>
        <time>2024-08-13T11:46:49Z</time>
      </trkpt>
      <trkpt lat="44.84486" lon="6.14645">
        <ele>1964.8</ele>
        <time>2024-08-13T11:46:50Z</time>
      </trkpt>
      <trkpt lat="44.84486" lon="6.14645">
        <ele>1964.8</ele>
        <time>2024-08-13T11:46:51Z</time>
      </trkpt>
      <trkpt lat="44.84484" lon="6.14645">
        <ele>1964.8</ele>
        <time>2024-08-13T11:46:52Z</time>
      </trkpt>
      <trkpt lat="44.84484" lon="6.14645">
        <ele>1965</ele>
        <time>2024-08-13T11:46:53Z</time>
      </trkpt>
      <trkpt lat="44.84481" lon="6.14645">
        <ele>1965.2</ele>
        <time>2024-08-13T11:46:54Z</time>
      </trkpt>
      <trkpt lat="44.84481" lon="6.14645">
        <ele>1965.2</ele>
        <time>2024-08-13T11:46:55Z</time>
      </trkpt>
      <trkpt lat="44.84481" lon="6.14645">
        <ele>1965.2</ele>
        <time>2024-08-13T11:46:56Z</time>
      </trkpt>
      <trkpt lat="44.84478" lon="6.14645">
        <ele>1965.2</ele>
        <time>2024-08-13T11:46:57Z</time>
      </trkpt>
      <trkpt lat="44.84478" lon="6.14645">
        <ele>1965.2</ele>
        <time>2024-08-13T11:46:58Z</time>
      </trkpt>
      <trkpt lat="44.84478" lon="6.14645">
        <ele>1965.4</ele>
        <time>2024-08-13T11:46:59Z</time>
      </trkpt>
      <trkpt lat="44.84476" lon="6.14645">
        <ele>1965.6</ele>
        <time>2024-08-13T11:47:00Z</time>
      </trkpt>
      <trkpt lat="44.84476" lon="6.14645">
        <ele>1965.6</ele>
        <time>2024-08-13T11:47:01Z</time>
      </trkpt>
      <trkpt lat="44.84476" lon="6.14645">
        <ele>1965.6</ele>
        <time>2024-08-13T11:47:02Z</time>
      </trkpt>
      <trkpt lat="44.84476" lon="6.14645">
        <ele>1965.6</ele>
        <time>2024-08-13T11:47:03Z</time>
      </trkpt>
      <trkpt lat="44.84476" lon="6.14645">
        <ele>1965.6</ele>
        <time>2024-08-13T11:47:04Z</time>
      </trkpt>
      <trkpt lat="44.84476" lon="6.14645">
        <ele>1966</ele>
        <time>2024-08-13T11:47:05Z</time>
      </trkpt>
      <trkpt lat="44.84476" lon="6.14645">
        <ele>1966.4</ele>
        <time>2024-08-13T11:47:06Z</time>
      </trkpt>
      <trkpt lat="44.84476" lon="6.14645">
        <ele>1966.4</ele>
        <time>2024-08-13T11:47:07Z</time>
      </trkpt>
      <trkpt lat="44.84476" lon="6.14645">
        <ele>1966.4</ele>
        <time>2024-08-13T11:47:08Z</time>
      </trkpt>
      <trkpt lat="44.84476" lon="6.14645">
        <ele>1966</ele>
        <time>2024-08-13T11:47:09Z</time>
      </trkpt>
      <trkpt lat="44.84476" lon="6.14645">
        <ele>1965.8</ele>
        <time>2024-08-13T11:47:10Z</time>
      </trkpt>
      <trkpt lat="44.84476" lon="6.14645">
        <ele>1965.6</ele>
        <time>2024-08-13T11:47:11Z</time>
      </trkpt>
      <trkpt lat="44.84474" lon="6.14646">
        <ele>1965.6</ele>
        <time>2024-08-13T11:47:12Z</time>
      </trkpt>
      <trkpt lat="44.84474" lon="6.14646">
        <ele>1966</ele>
        <time>2024-08-13T11:47:13Z</time>
      </trkpt>
      <trkpt lat="44.84474" lon="6.14646">
        <ele>1966</ele>
        <time>2024-08-13T11:47:14Z</time>
      </trkpt>
      <trkpt lat="44.84474" lon="6.14646">
        <ele>1965.8</ele>
        <time>2024-08-13T11:47:15Z</time>
      </trkpt>
      <trkpt lat="44.84474" lon="6.14646">
        <ele>1965.8</ele>
        <time>2024-08-13T11:47:16Z</time>
      </trkpt>
      <trkpt lat="44.84474" lon="6.14646">
        <ele>1965.8</ele>
        <time>2024-08-13T11:47:17Z</time>
      </trkpt>
      <trkpt lat="44.84474" lon="6.14646">
        <ele>1965.8</ele>
        <time>2024-08-13T11:47:18Z</time>
      </trkpt>
      <trkpt lat="44.84474" lon="6.14646">
        <ele>1966.2</ele>
        <time>2024-08-13T11:47:19Z</time>
      </trkpt>
      <trkpt lat="44.84474" lon="6.14646">
        <ele>1966.2</ele>
        <time>2024-08-13T11:47:20Z</time>
      </trkpt>
      <trkpt lat="44.84474" lon="6.14646">
        <ele>1966</ele>
        <time>2024-08-13T11:47:21Z</time>
      </trkpt>
      <trkpt lat="44.84474" lon="6.14646">
        <ele>1966</ele>
        <time>2024-08-13T11:47:22Z</time>
      </trkpt>
      <trkpt lat="44.84471" lon="6.14646">
        <ele>1966</ele>
        <time>2024-08-13T11:47:23Z</time>
      </trkpt>
      <trkpt lat="44.84471" lon="6.14646">
        <ele>1966</ele>
        <time>2024-08-13T11:47:24Z</time>
      </trkpt>
      <trkpt lat="44.84469" lon="6.14648">
        <ele>1966.4</ele>
        <time>2024-08-13T11:47:25Z</time>
      </trkpt>
      <trkpt lat="44.84469" lon="6.14648">
        <ele>1966.4</ele>
        <time>2024-08-13T11:47:26Z</time>
      </trkpt>
      <trkpt lat="44.84469" lon="6.14648">
        <ele>1966.4</ele>
        <time>2024-08-13T11:47:27Z</time>
      </trkpt>
      <trkpt lat="44.84467" lon="6.1465">
        <ele>1966.4</ele>
        <time>2024-08-13T11:47:28Z</time>
      </trkpt>
      <trkpt lat="44.84467" lon="6.1465">
        <ele>1966.2</ele>
        <time>2024-08-13T11:47:29Z</time>
      </trkpt>
      <trkpt lat="44.84467" lon="6.1465">
        <ele>1966.2</ele>
        <time>2024-08-13T11:47:30Z</time>
      </trkpt>
      <trkpt lat="44.84467" lon="6.1465">
        <ele>1966</ele>
        <time>2024-08-13T11:47:31Z</time>
      </trkpt>
      <trkpt lat="44.84467" lon="6.1465">
        <ele>1966</ele>
        <time>2024-08-13T11:47:32Z</time>
      </trkpt>
      <trkpt lat="44.84467" lon="6.1465">
        <ele>1966</ele>
        <time>2024-08-13T11:47:33Z</time>
      </trkpt>
      <trkpt lat="44.84467" lon="6.1465">
        <ele>1966.2</ele>
        <time>2024-08-13T11:47:34Z</time>
      </trkpt>
      <trkpt lat="44.84467" lon="6.1465">
        <ele>1966.2</ele>
        <time>2024-08-13T11:47:35Z</time>
      </trkpt>
      <trkpt lat="44.84467" lon="6.1465">
        <ele>1966</ele>
        <time>2024-08-13T11:47:36Z</time>
      </trkpt>
      <trkpt lat="44.84467" lon="6.1465">
        <ele>1966</ele>
        <time>2024-08-13T11:47:37Z</time>
      </trkpt>
      <trkpt lat="44.84467" lon="6.1465">
        <ele>1966</ele>
        <time>2024-08-13T11:47:38Z</time>
      </trkpt>
      <trkpt lat="44.84467" lon="6.1465">
        <ele>1966</ele>
        <time>2024-08-13T11:47:39Z</time>
      </trkpt>
      <trkpt lat="44.84467" lon="6.1465">
        <ele>1966.2</ele>
        <time>2024-08-13T11:47:40Z</time>
      </trkpt>
      <trkpt lat="44.84467" lon="6.1465">
        <ele>1966.2</ele>
        <time>2024-08-13T11:47:41Z</time>
      </trkpt>
      <trkpt lat="44.84467" lon="6.1465">
        <ele>1966.4</ele>
        <time>2024-08-13T11:47:42Z</time>
      </trkpt>
      <trkpt lat="44.84467" lon="6.1465">
        <ele>1966.4</ele>
        <time>2024-08-13T11:47:43Z</time>
      </trkpt>
      <trkpt lat="44.84467" lon="6.1465">
        <ele>1966.6</ele>
        <time>2024-08-13T11:47:44Z</time>
      </trkpt>
      <trkpt lat="44.84467" lon="6.1465">
        <ele>1966.6</ele>
        <time>2024-08-13T11:47:45Z</time>
      </trkpt>
      <trkpt lat="44.84467" lon="6.1465">
        <ele>1966.6</ele>
        <time>2024-08-13T11:47:46Z</time>
      </trkpt>
      <trkpt lat="44.84467" lon="6.1465">
        <ele>1966.8</ele>
        <time>2024-08-13T11:47:47Z</time>
      </trkpt>
      <trkpt lat="44.84467" lon="6.1465">
        <ele>1966.8</ele>
        <time>2024-08-13T11:47:48Z</time>
      </trkpt>
      <trkpt lat="44.84467" lon="6.1465">
        <ele>1966.8</ele>
        <time>2024-08-13T11:47:49Z</time>
      </trkpt>
      <trkpt lat="44.84467" lon="6.1465">
        <ele>1966.8</ele>
        <time>2024-08-13T11:47:50Z</time>
      </trkpt>
      <trkpt lat="44.84467" lon="6.1465">
        <ele>1966.8</ele>
        <time>2024-08-13T11:47:51Z</time>
      </trkpt>
      <trkpt lat="44.84467" lon="6.1465">
        <ele>1966.8</ele>
        <time>2024-08-13T11:47:52Z</time>
      </trkpt>
      <trkpt lat="44.84467" lon="6.1465">
        <ele>1967.2</ele>
        <time>2024-08-13T11:47:53Z</time>
      </trkpt>
      <trkpt lat="44.84467" lon="6.1465">
        <ele>1967.2</ele>
        <time>2024-08-13T11:47:54Z</time>
      </trkpt>
      <trkpt lat="44.84467" lon="6.1465">
        <ele>1967</ele>
        <time>2024-08-13T11:47:55Z</time>
      </trkpt>
      <trkpt lat="44.84467" lon="6.1465">
        <ele>1967</ele>
        <time>2024-08-13T11:47:56Z</time>
      </trkpt>
      <trkpt lat="44.84467" lon="6.1465">
        <ele>1967</ele>
        <time>2024-08-13T11:47:57Z</time>
      </trkpt>
      <trkpt lat="44.84467" lon="6.1465">
        <ele>1967</ele>
        <time>2024-08-13T11:47:58Z</time>
      </trkpt>
      <trkpt lat="44.84467" lon="6.1465">
        <ele>1967.2</ele>
        <time>2024-08-13T11:47:59Z</time>
      </trkpt>
      <trkpt lat="44.84467" lon="6.1465">
        <ele>1967.2</ele>
        <time>2024-08-13T11:48:00Z</time>
      </trkpt>
      <trkpt lat="44.84467" lon="6.1465">
        <ele>1967.2</ele>
        <time>2024-08-13T11:48:01Z</time>
      </trkpt>
      <trkpt lat="44.84467" lon="6.1465">
        <ele>1967.4</ele>
        <time>2024-08-13T11:48:02Z</time>
      </trkpt>
      <trkpt lat="44.84467" lon="6.1465">
        <ele>1967.4</ele>
        <time>2024-08-13T11:48:03Z</time>
      </trkpt>
      <trkpt lat="44.84467" lon="6.1465">
        <ele>1967.2</ele>
        <time>2024-08-13T11:48:04Z</time>
      </trkpt>
      <trkpt lat="44.84467" lon="6.1465">
        <ele>1967.2</ele>
        <time>2024-08-13T11:48:05Z</time>
      </trkpt>
      <trkpt lat="44.84467" lon="6.1465">
        <ele>1967.2</ele>
        <time>2024-08-13T11:48:06Z</time>
      </trkpt>
      <trkpt lat="44.84467" lon="6.1465">
        <ele>1967.4</ele>
        <time>2024-08-13T11:48:07Z</time>
      </trkpt>
      <trkpt lat="44.84467" lon="6.1465">
        <ele>1967.4</ele>
        <time>2024-08-13T11:48:08Z</time>
      </trkpt>
      <trkpt lat="44.84467" lon="6.1465">
        <ele>1967.4</ele>
        <time>2024-08-13T11:48:09Z</time>
      </trkpt>
      <trkpt lat="44.84467" lon="6.1465">
        <ele>1967.4</ele>
        <time>2024-08-13T11:48:10Z</time>
      </trkpt>
      <trkpt lat="44.84467" lon="6.1465">
        <ele>1967.4</ele>
        <time>2024-08-13T11:48:11Z</time>
      </trkpt>
      <trkpt lat="44.84467" lon="6.1465">
        <ele>1967.4</ele>
        <time>2024-08-13T11:48:12Z</time>
      </trkpt>
      <trkpt lat="44.84467" lon="6.1465">
        <ele>1967.4</ele>
        <time>2024-08-13T11:48:13Z</time>
      </trkpt>
      <trkpt lat="44.84467" lon="6.1465">
        <ele>1967.4</ele>
        <time>2024-08-13T11:48:14Z</time>
      </trkpt>
      <trkpt lat="44.84467" lon="6.1465">
        <ele>1967.6</ele>
        <time>2024-08-13T11:48:15Z</time>
      </trkpt>
      <trkpt lat="44.84467" lon="6.1465">
        <ele>1967.8</ele>
        <time>2024-08-13T11:48:16Z</time>
      </trkpt>
      <trkpt lat="44.84467" lon="6.1465">
        <ele>1967.8</ele>
        <time>2024-08-13T11:48:17Z</time>
      </trkpt>
      <trkpt lat="44.84467" lon="6.1465">
        <ele>1967.6</ele>
        <time>2024-08-13T11:48:18Z</time>
      </trkpt>
      <trkpt lat="44.84467" lon="6.1465">
        <ele>1967.4</ele>
        <time>2024-08-13T11:48:19Z</time>
      </trkpt>
      <trkpt lat="44.84467" lon="6.1465">
        <ele>1967.4</ele>
        <time>2024-08-13T11:48:20Z</time>
      </trkpt>
      <trkpt lat="44.84467" lon="6.1465">
        <ele>1967.6</ele>
        <time>2024-08-13T11:48:21Z</time>
      </trkpt>
      <trkpt lat="44.84467" lon="6.1465">
        <ele>1967.6</ele>
        <time>2024-08-13T11:48:22Z</time>
      </trkpt>
      <trkpt lat="44.84467" lon="6.1465">
        <ele>1967.6</ele>
        <time>2024-08-13T11:48:23Z</time>
      </trkpt>
      <trkpt lat="44.84467" lon="6.1465">
        <ele>1967.6</ele>
        <time>2024-08-13T11:48:24Z</time>
      </trkpt>
      <trkpt lat="44.84467" lon="6.1465">
        <ele>1967.6</ele>
        <time>2024-08-13T11:48:25Z</time>
      </trkpt>
      <trkpt lat="44.84467" lon="6.1465">
        <ele>1967.6</ele>
        <time>2024-08-13T11:48:26Z</time>
      </trkpt>
      <trkpt lat="44.84467" lon="6.1465">
        <ele>1967.6</ele>
        <time>2024-08-13T11:48:27Z</time>
      </trkpt>
      <trkpt lat="44.84467" lon="6.1465">
        <ele>1967.6</ele>
        <time>2024-08-13T11:48:28Z</time>
      </trkpt>
      <trkpt lat="44.84467" lon="6.1465">
        <ele>1967.6</ele>
        <time>2024-08-13T11:48:29Z</time>
      </trkpt>
      <trkpt lat="44.84467" lon="6.1465">
        <ele>1967.4</ele>
        <time>2024-08-13T11:48:30Z</time>
      </trkpt>
      <trkpt lat="44.84477" lon="6.14646">
        <ele>1967.2</ele>
        <time>2024-08-13T11:48:31Z</time>
      </trkpt>
      <trkpt lat="44.84477" lon="6.14646">
        <ele>1967.2</ele>
        <time>2024-08-13T11:48:32Z</time>
      </trkpt>
      <trkpt lat="44.84477" lon="6.14646">
        <ele>1967.2</ele>
        <time>2024-08-13T11:48:33Z</time>
      </trkpt>
      <trkpt lat="44.84477" lon="6.14646">
        <ele>1967.2</ele>
        <time>2024-08-13T11:48:34Z</time>
      </trkpt>
      <trkpt lat="44.84477" lon="6.14646">
        <ele>1967.4</ele>
        <time>2024-08-13T11:48:35Z</time>
      </trkpt>
      <trkpt lat="44.84477" lon="6.14646">
        <ele>1967.4</ele>
        <time>2024-08-13T11:48:36Z</time>
      </trkpt>
      <trkpt lat="44.84477" lon="6.14646">
        <ele>1967.4</ele>
        <time>2024-08-13T11:48:37Z</time>
      </trkpt>
      <trkpt lat="44.84477" lon="6.14646">
        <ele>1967.6</ele>
        <time>2024-08-13T11:48:38Z</time>
      </trkpt>
      <trkpt lat="44.84477" lon="6.14646">
        <ele>1967.6</ele>
        <time>2024-08-13T11:48:39Z</time>
      </trkpt>
      <trkpt lat="44.84477" lon="6.14646">
        <ele>1967.8</ele>
        <time>2024-08-13T11:48:40Z</time>
      </trkpt>
      <trkpt lat="44.84477" lon="6.14646">
        <ele>1967.8</ele>
        <time>2024-08-13T11:48:41Z</time>
      </trkpt>
      <trkpt lat="44.84477" lon="6.14646">
        <ele>1967.8</ele>
        <time>2024-08-13T11:48:42Z</time>
      </trkpt>
      <trkpt lat="44.84477" lon="6.14646">
        <ele>1967.8</ele>
        <time>2024-08-13T11:48:43Z</time>
      </trkpt>
      <trkpt lat="44.84477" lon="6.14646">
        <ele>1967.8</ele>
        <time>2024-08-13T11:48:44Z</time>
      </trkpt>
      <trkpt lat="44.84477" lon="6.14646">
        <ele>1967.8</ele>
        <time>2024-08-13T11:48:45Z</time>
      </trkpt>
      <trkpt lat="44.84477" lon="6.14646">
        <ele>1967.8</ele>
        <time>2024-08-13T11:48:46Z</time>
      </trkpt>
      <trkpt lat="44.84474" lon="6.14643">
        <ele>1967.8</ele>
        <time>2024-08-13T11:48:47Z</time>
      </trkpt>
      <trkpt lat="44.84472" lon="6.14642">
        <ele>1967.8</ele>
        <time>2024-08-13T11:48:48Z</time>
      </trkpt>
      <trkpt lat="44.8447" lon="6.14642">
        <ele>1968</ele>
        <time>2024-08-13T11:48:49Z</time>
      </trkpt>
      <trkpt lat="44.8447" lon="6.14642">
        <ele>1968</ele>
        <time>2024-08-13T11:48:50Z</time>
      </trkpt>
      <trkpt lat="44.84468" lon="6.1464">
        <ele>1968</ele>
        <time>2024-08-13T11:48:51Z</time>
      </trkpt>
      <trkpt lat="44.84468" lon="6.1464">
        <ele>1968</ele>
        <time>2024-08-13T11:48:52Z</time>
      </trkpt>
      <trkpt lat="44.84468" lon="6.14637">
        <ele>1968</ele>
        <time>2024-08-13T11:48:53Z</time>
      </trkpt>
      <trkpt lat="44.84468" lon="6.14637">
        <ele>1968</ele>
        <time>2024-08-13T11:48:54Z</time>
      </trkpt>
      <trkpt lat="44.84468" lon="6.14637">
        <ele>1968.2</ele>
        <time>2024-08-13T11:48:55Z</time>
      </trkpt>
      <trkpt lat="44.84468" lon="6.14637">
        <ele>1968.2</ele>
        <time>2024-08-13T11:48:56Z</time>
      </trkpt>
      <trkpt lat="44.84468" lon="6.14637">
        <ele>1968.2</ele>
        <time>2024-08-13T11:48:57Z</time>
      </trkpt>
      <trkpt lat="44.84468" lon="6.14637">
        <ele>1968.2</ele>
        <time>2024-08-13T11:48:58Z</time>
      </trkpt>
      <trkpt lat="44.84468" lon="6.14637">
        <ele>1968</ele>
        <time>2024-08-13T11:48:59Z</time>
      </trkpt>
      <trkpt lat="44.84468" lon="6.14637">
        <ele>1968</ele>
        <time>2024-08-13T11:49:00Z</time>
      </trkpt>
      <trkpt lat="44.84468" lon="6.14637">
        <ele>1968</ele>
        <time>2024-08-13T11:49:01Z</time>
      </trkpt>
      <trkpt lat="44.84468" lon="6.14637">
        <ele>1968</ele>
        <time>2024-08-13T11:49:02Z</time>
      </trkpt>
      <trkpt lat="44.84468" lon="6.14637">
        <ele>1968</ele>
        <time>2024-08-13T11:49:03Z</time>
      </trkpt>
      <trkpt lat="44.84468" lon="6.14637">
        <ele>1968</ele>
        <time>2024-08-13T11:49:04Z</time>
      </trkpt>
      <trkpt lat="44.84468" lon="6.14637">
        <ele>1968</ele>
        <time>2024-08-13T11:49:05Z</time>
      </trkpt>
      <trkpt lat="44.84468" lon="6.14637">
        <ele>1968</ele>
        <time>2024-08-13T11:49:06Z</time>
      </trkpt>
      <trkpt lat="44.84468" lon="6.14637">
        <ele>1968</ele>
        <time>2024-08-13T11:49:07Z</time>
      </trkpt>
      <trkpt lat="44.84468" lon="6.14637">
        <ele>1968</ele>
        <time>2024-08-13T11:49:08Z</time>
      </trkpt>
      <trkpt lat="44.84468" lon="6.14637">
        <ele>1967.8</ele>
        <time>2024-08-13T11:49:09Z</time>
      </trkpt>
      <trkpt lat="44.84468" lon="6.14637">
        <ele>1967.6</ele>
        <time>2024-08-13T11:49:10Z</time>
      </trkpt>
      <trkpt lat="44.84468" lon="6.14637">
        <ele>1967.6</ele>
        <time>2024-08-13T11:49:11Z</time>
      </trkpt>
      <trkpt lat="44.84468" lon="6.14637">
        <ele>1967.6</ele>
        <time>2024-08-13T11:49:12Z</time>
      </trkpt>
      <trkpt lat="44.84468" lon="6.14637">
        <ele>1967.6</ele>
        <time>2024-08-13T11:49:13Z</time>
      </trkpt>
      <trkpt lat="44.84468" lon="6.14637">
        <ele>1967.8</ele>
        <time>2024-08-13T11:49:14Z</time>
      </trkpt>
      <trkpt lat="44.84468" lon="6.14637">
        <ele>1967.8</ele>
        <time>2024-08-13T11:49:15Z</time>
      </trkpt>
      <trkpt lat="44.84468" lon="6.14637">
        <ele>1968</ele>
        <time>2024-08-13T11:49:16Z</time>
      </trkpt>
      <trkpt lat="44.84468" lon="6.14637">
        <ele>1968</ele>
        <time>2024-08-13T11:49:17Z</time>
      </trkpt>
      <trkpt lat="44.84468" lon="6.14637">
        <ele>1968.2</ele>
        <time>2024-08-13T11:49:18Z</time>
      </trkpt>
      <trkpt lat="44.84468" lon="6.14637">
        <ele>1968.2</ele>
        <time>2024-08-13T11:49:19Z</time>
      </trkpt>
      <trkpt lat="44.84468" lon="6.14637">
        <ele>1968.2</ele>
        <time>2024-08-13T11:49:20Z</time>
      </trkpt>
      <trkpt lat="44.84468" lon="6.14637">
        <ele>1967.8</ele>
        <time>2024-08-13T11:49:21Z</time>
      </trkpt>
      <trkpt lat="44.84468" lon="6.14637">
        <ele>1967.8</ele>
        <time>2024-08-13T11:49:22Z</time>
      </trkpt>
      <trkpt lat="44.84468" lon="6.14637">
        <ele>1967.8</ele>
        <time>2024-08-13T11:49:23Z</time>
      </trkpt>
      <trkpt lat="44.84468" lon="6.14637">
        <ele>1967.8</ele>
        <time>2024-08-13T11:49:24Z</time>
      </trkpt>
      <trkpt lat="44.84468" lon="6.14637">
        <ele>1967.8</ele>
        <time>2024-08-13T11:49:25Z</time>
      </trkpt>
      <trkpt lat="44.84468" lon="6.14637">
        <ele>1968</ele>
        <time>2024-08-13T11:49:26Z</time>
      </trkpt>
      <trkpt lat="44.84468" lon="6.14637">
        <ele>1968.2</ele>
        <time>2024-08-13T11:49:27Z</time>
      </trkpt>
      <trkpt lat="44.84468" lon="6.14637">
        <ele>1968.2</ele>
        <time>2024-08-13T11:49:28Z</time>
      </trkpt>
      <trkpt lat="44.84468" lon="6.14637">
        <ele>1968.2</ele>
        <time>2024-08-13T11:49:29Z</time>
      </trkpt>
      <trkpt lat="44.84468" lon="6.14637">
        <ele>1968.2</ele>
        <time>2024-08-13T11:49:30Z</time>
      </trkpt>
      <trkpt lat="44.84468" lon="6.14637">
        <ele>1968.2</ele>
        <time>2024-08-13T11:49:31Z</time>
      </trkpt>
      <trkpt lat="44.84468" lon="6.14637">
        <ele>1968.2</ele>
        <time>2024-08-13T11:49:32Z</time>
      </trkpt>
      <trkpt lat="44.84468" lon="6.14637">
        <ele>1968.2</ele>
        <time>2024-08-13T11:49:33Z</time>
      </trkpt>
      <trkpt lat="44.84468" lon="6.14637">
        <ele>1968.2</ele>
        <time>2024-08-13T11:49:34Z</time>
      </trkpt>
      <trkpt lat="44.84468" lon="6.14637">
        <ele>1968.6</ele>
        <time>2024-08-13T11:49:35Z</time>
      </trkpt>
      <trkpt lat="44.84468" lon="6.14637">
        <ele>1968.6</ele>
        <time>2024-08-13T11:49:36Z</time>
      </trkpt>
      <trkpt lat="44.84468" lon="6.14637">
        <ele>1968.6</ele>
        <time>2024-08-13T11:49:37Z</time>
      </trkpt>
      <trkpt lat="44.84468" lon="6.14637">
        <ele>1968.4</ele>
        <time>2024-08-13T11:49:38Z</time>
      </trkpt>
      <trkpt lat="44.84468" lon="6.14637">
        <ele>1968.4</ele>
        <time>2024-08-13T11:49:39Z</time>
      </trkpt>
      <trkpt lat="44.84468" lon="6.14637">
        <ele>1968.4</ele>
        <time>2024-08-13T11:49:40Z</time>
      </trkpt>
      <trkpt lat="44.84468" lon="6.14637">
        <ele>1968.4</ele>
        <time>2024-08-13T11:49:41Z</time>
      </trkpt>
      <trkpt lat="44.84468" lon="6.14637">
        <ele>1968.4</ele>
        <time>2024-08-13T11:49:42Z</time>
      </trkpt>
      <trkpt lat="44.84468" lon="6.14637">
        <ele>1968.4</ele>
        <time>2024-08-13T11:49:43Z</time>
      </trkpt>
      <trkpt lat="44.84467" lon="6.1464">
        <ele>1968.4</ele>
        <time>2024-08-13T11:49:44Z</time>
      </trkpt>
      <trkpt lat="44.84467" lon="6.1464">
        <ele>1968.8</ele>
        <time>2024-08-13T11:49:45Z</time>
      </trkpt>
      <trkpt lat="44.84466" lon="6.14646">
        <ele>1968.8</ele>
        <time>2024-08-13T11:49:46Z</time>
      </trkpt>
      <trkpt lat="44.84466" lon="6.14646">
        <ele>1968.8</ele>
        <time>2024-08-13T11:49:47Z</time>
      </trkpt>
      <trkpt lat="44.84467" lon="6.14649">
        <ele>1968.6</ele>
        <time>2024-08-13T11:49:48Z</time>
      </trkpt>
      <trkpt lat="44.84467" lon="6.14649">
        <ele>1969</ele>
        <time>2024-08-13T11:49:49Z</time>
      </trkpt>
      <trkpt lat="44.84467" lon="6.14649">
        <ele>1969</ele>
        <time>2024-08-13T11:49:50Z</time>
      </trkpt>
      <trkpt lat="44.84467" lon="6.14649">
        <ele>1969</ele>
        <time>2024-08-13T11:49:51Z</time>
      </trkpt>
      <trkpt lat="44.84467" lon="6.14649">
        <ele>1969.2</ele>
        <time>2024-08-13T11:49:52Z</time>
      </trkpt>
      <trkpt lat="44.84467" lon="6.14649">
        <ele>1969.2</ele>
        <time>2024-08-13T11:49:53Z</time>
      </trkpt>
      <trkpt lat="44.84467" lon="6.14649">
        <ele>1968.8</ele>
        <time>2024-08-13T11:49:54Z</time>
      </trkpt>
      <trkpt lat="44.84467" lon="6.14649">
        <ele>1968.6</ele>
        <time>2024-08-13T11:49:55Z</time>
      </trkpt>
      <trkpt lat="44.84467" lon="6.14649">
        <ele>1968.6</ele>
        <time>2024-08-13T11:49:56Z</time>
      </trkpt>
      <trkpt lat="44.84467" lon="6.14649">
        <ele>1968.6</ele>
        <time>2024-08-13T11:49:57Z</time>
      </trkpt>
      <trkpt lat="44.84467" lon="6.14649">
        <ele>1968.6</ele>
        <time>2024-08-13T11:49:58Z</time>
      </trkpt>
      <trkpt lat="44.84467" lon="6.14649">
        <ele>1968.6</ele>
        <time>2024-08-13T11:49:59Z</time>
      </trkpt>
      <trkpt lat="44.84467" lon="6.14649">
        <ele>1968.6</ele>
        <time>2024-08-13T11:50:00Z</time>
      </trkpt>
      <trkpt lat="44.84467" lon="6.14649">
        <ele>1968.8</ele>
        <time>2024-08-13T11:50:01Z</time>
      </trkpt>
      <trkpt lat="44.84467" lon="6.14649">
        <ele>1969</ele>
        <time>2024-08-13T11:50:02Z</time>
      </trkpt>
      <trkpt lat="44.84467" lon="6.14649">
        <ele>1969</ele>
        <time>2024-08-13T11:50:03Z</time>
      </trkpt>
      <trkpt lat="44.84467" lon="6.14649">
        <ele>1969</ele>
        <time>2024-08-13T11:50:04Z</time>
      </trkpt>
      <trkpt lat="44.84467" lon="6.14649">
        <ele>1969</ele>
        <time>2024-08-13T11:50:05Z</time>
      </trkpt>
      <trkpt lat="44.84467" lon="6.14649">
        <ele>1969.2</ele>
        <time>2024-08-13T11:50:06Z</time>
      </trkpt>
      <trkpt lat="44.84467" lon="6.14649">
        <ele>1969</ele>
        <time>2024-08-13T11:50:07Z</time>
      </trkpt>
      <trkpt lat="44.84467" lon="6.14649">
        <ele>1969</ele>
        <time>2024-08-13T11:50:08Z</time>
      </trkpt>
      <trkpt lat="44.84467" lon="6.14649">
        <ele>1969</ele>
        <time>2024-08-13T11:50:09Z</time>
      </trkpt>
      <trkpt lat="44.84467" lon="6.14649">
        <ele>1969.4</ele>
        <time>2024-08-13T11:50:10Z</time>
      </trkpt>
      <trkpt lat="44.84467" lon="6.14649">
        <ele>1969.4</ele>
        <time>2024-08-13T11:50:11Z</time>
      </trkpt>
      <trkpt lat="44.84467" lon="6.14649">
        <ele>1969.2</ele>
        <time>2024-08-13T11:50:12Z</time>
      </trkpt>
      <trkpt lat="44.84467" lon="6.14649">
        <ele>1969.2</ele>
        <time>2024-08-13T11:50:13Z</time>
      </trkpt>
      <trkpt lat="44.84467" lon="6.14649">
        <ele>1969</ele>
        <time>2024-08-13T11:50:14Z</time>
      </trkpt>
      <trkpt lat="44.84467" lon="6.14649">
        <ele>1969</ele>
        <time>2024-08-13T11:50:15Z</time>
      </trkpt>
      <trkpt lat="44.84467" lon="6.14649">
        <ele>1969</ele>
        <time>2024-08-13T11:50:16Z</time>
      </trkpt>
      <trkpt lat="44.84467" lon="6.14649">
        <ele>1969.2</ele>
        <time>2024-08-13T11:50:17Z</time>
      </trkpt>
      <trkpt lat="44.84467" lon="6.14649">
        <ele>1969.4</ele>
        <time>2024-08-13T11:50:18Z</time>
      </trkpt>
      <trkpt lat="44.84467" lon="6.14649">
        <ele>1969.4</ele>
        <time>2024-08-13T11:50:19Z</time>
      </trkpt>
      <trkpt lat="44.84467" lon="6.14649">
        <ele>1969.6</ele>
        <time>2024-08-13T11:50:20Z</time>
      </trkpt>
      <trkpt lat="44.84467" lon="6.14649">
        <ele>1969.4</ele>
        <time>2024-08-13T11:50:21Z</time>
      </trkpt>
      <trkpt lat="44.84467" lon="6.14649">
        <ele>1969.4</ele>
        <time>2024-08-13T11:50:22Z</time>
      </trkpt>
      <trkpt lat="44.84467" lon="6.14649">
        <ele>1969.4</ele>
        <time>2024-08-13T11:50:23Z</time>
      </trkpt>
      <trkpt lat="44.84467" lon="6.14649">
        <ele>1969.2</ele>
        <time>2024-08-13T11:50:24Z</time>
      </trkpt>
      <trkpt lat="44.84467" lon="6.14649">
        <ele>1969</ele>
        <time>2024-08-13T11:50:25Z</time>
      </trkpt>
      <trkpt lat="44.84467" lon="6.14649">
        <ele>1969</ele>
        <time>2024-08-13T11:50:26Z</time>
      </trkpt>
      <trkpt lat="44.84467" lon="6.14649">
        <ele>1969</ele>
        <time>2024-08-13T11:50:27Z</time>
      </trkpt>
      <trkpt lat="44.84467" lon="6.14649">
        <ele>1969.4</ele>
        <time>2024-08-13T11:50:28Z</time>
      </trkpt>
      <trkpt lat="44.84467" lon="6.14649">
        <ele>1969.4</ele>
        <time>2024-08-13T11:50:29Z</time>
      </trkpt>
      <trkpt lat="44.84467" lon="6.14649">
        <ele>1969</ele>
        <time>2024-08-13T11:50:30Z</time>
      </trkpt>
      <trkpt lat="44.84467" lon="6.14649">
        <ele>1968.8</ele>
        <time>2024-08-13T11:50:31Z</time>
      </trkpt>
      <trkpt lat="44.84467" lon="6.14649">
        <ele>1969</ele>
        <time>2024-08-13T11:50:32Z</time>
      </trkpt>
      <trkpt lat="44.84467" lon="6.14649">
        <ele>1969.2</ele>
        <time>2024-08-13T11:50:33Z</time>
      </trkpt>
      <trkpt lat="44.84467" lon="6.14649">
        <ele>1969.2</ele>
        <time>2024-08-13T11:50:34Z</time>
      </trkpt>
      <trkpt lat="44.84467" lon="6.14649">
        <ele>1969.2</ele>
        <time>2024-08-13T11:50:35Z</time>
      </trkpt>
      <trkpt lat="44.84467" lon="6.14649">
        <ele>1969.6</ele>
        <time>2024-08-13T11:50:36Z</time>
      </trkpt>
      <trkpt lat="44.84468" lon="6.14651">
        <ele>1969.6</ele>
        <time>2024-08-13T11:50:37Z</time>
      </trkpt>
      <trkpt lat="44.84468" lon="6.14651">
        <ele>1969.6</ele>
        <time>2024-08-13T11:50:38Z</time>
      </trkpt>
      <trkpt lat="44.84468" lon="6.14651">
        <ele>1969.6</ele>
        <time>2024-08-13T11:50:39Z</time>
      </trkpt>
      <trkpt lat="44.84468" lon="6.14651">
        <ele>1969.8</ele>
        <time>2024-08-13T11:50:40Z</time>
      </trkpt>
      <trkpt lat="44.84468" lon="6.14651">
        <ele>1969.8</ele>
        <time>2024-08-13T11:50:41Z</time>
      </trkpt>
      <trkpt lat="44.8447" lon="6.14653">
        <ele>1969.8</ele>
        <time>2024-08-13T11:50:42Z</time>
      </trkpt>
      <trkpt lat="44.8447" lon="6.14653">
        <ele>1970</ele>
        <time>2024-08-13T11:50:43Z</time>
      </trkpt>
      <trkpt lat="44.8447" lon="6.14653">
        <ele>1970</ele>
        <time>2024-08-13T11:50:44Z</time>
      </trkpt>
      <trkpt lat="44.8447" lon="6.14653">
        <ele>1970</ele>
        <time>2024-08-13T11:50:45Z</time>
      </trkpt>
      <trkpt lat="44.8447" lon="6.14653">
        <ele>1970</ele>
        <time>2024-08-13T11:50:46Z</time>
      </trkpt>
      <trkpt lat="44.8447" lon="6.14653">
        <ele>1970</ele>
        <time>2024-08-13T11:50:47Z</time>
      </trkpt>
      <trkpt lat="44.8447" lon="6.14653">
        <ele>1970</ele>
        <time>2024-08-13T11:50:48Z</time>
      </trkpt>
      <trkpt lat="44.8447" lon="6.14653">
        <ele>1970</ele>
        <time>2024-08-13T11:50:49Z</time>
      </trkpt>
      <trkpt lat="44.8447" lon="6.14653">
        <ele>1970</ele>
        <time>2024-08-13T11:50:50Z</time>
      </trkpt>
      <trkpt lat="44.8447" lon="6.14653">
        <ele>1970</ele>
        <time>2024-08-13T11:50:51Z</time>
      </trkpt>
      <trkpt lat="44.8447" lon="6.14653">
        <ele>1970</ele>
        <time>2024-08-13T11:50:52Z</time>
      </trkpt>
      <trkpt lat="44.8447" lon="6.14653">
        <ele>1970</ele>
        <time>2024-08-13T11:50:53Z</time>
      </trkpt>
      <trkpt lat="44.8447" lon="6.14653">
        <ele>1970.2</ele>
        <time>2024-08-13T11:50:54Z</time>
      </trkpt>
      <trkpt lat="44.8447" lon="6.14653">
        <ele>1970.2</ele>
        <time>2024-08-13T11:50:55Z</time>
      </trkpt>
      <trkpt lat="44.8447" lon="6.14653">
        <ele>1970</ele>
        <time>2024-08-13T11:50:56Z</time>
      </trkpt>
      <trkpt lat="44.8447" lon="6.14653">
        <ele>1970</ele>
        <time>2024-08-13T11:50:57Z</time>
      </trkpt>
      <trkpt lat="44.8447" lon="6.14653">
        <ele>1970</ele>
        <time>2024-08-13T11:50:58Z</time>
      </trkpt>
      <trkpt lat="44.8447" lon="6.14653">
        <ele>1970.2</ele>
        <time>2024-08-13T11:50:59Z</time>
      </trkpt>
      <trkpt lat="44.8447" lon="6.14653">
        <ele>1970.2</ele>
        <time>2024-08-13T11:51:00Z</time>
      </trkpt>
      <trkpt lat="44.8447" lon="6.14653">
        <ele>1970.2</ele>
        <time>2024-08-13T11:51:01Z</time>
      </trkpt>
      <trkpt lat="44.8447" lon="6.14653">
        <ele>1970.2</ele>
        <time>2024-08-13T11:51:02Z</time>
      </trkpt>
      <trkpt lat="44.8447" lon="6.14653">
        <ele>1970.2</ele>
        <time>2024-08-13T11:51:03Z</time>
      </trkpt>
      <trkpt lat="44.8447" lon="6.14653">
        <ele>1970.4</ele>
        <time>2024-08-13T11:51:04Z</time>
      </trkpt>
      <trkpt lat="44.8447" lon="6.14653">
        <ele>1970.4</ele>
        <time>2024-08-13T11:51:05Z</time>
      </trkpt>
      <trkpt lat="44.8447" lon="6.14653">
        <ele>1970.2</ele>
        <time>2024-08-13T11:51:06Z</time>
      </trkpt>
      <trkpt lat="44.8447" lon="6.14653">
        <ele>1970.2</ele>
        <time>2024-08-13T11:51:07Z</time>
      </trkpt>
      <trkpt lat="44.8447" lon="6.14653">
        <ele>1970</ele>
        <time>2024-08-13T11:51:08Z</time>
      </trkpt>
      <trkpt lat="44.8447" lon="6.14653">
        <ele>1970</ele>
        <time>2024-08-13T11:51:09Z</time>
      </trkpt>
      <trkpt lat="44.8447" lon="6.14653">
        <ele>1970</ele>
        <time>2024-08-13T11:51:10Z</time>
      </trkpt>
      <trkpt lat="44.8447" lon="6.14653">
        <ele>1970</ele>
        <time>2024-08-13T11:51:11Z</time>
      </trkpt>
      <trkpt lat="44.8447" lon="6.14653">
        <ele>1970</ele>
        <time>2024-08-13T11:51:12Z</time>
      </trkpt>
      <trkpt lat="44.8447" lon="6.14653">
        <ele>1970</ele>
        <time>2024-08-13T11:51:13Z</time>
      </trkpt>
      <trkpt lat="44.8447" lon="6.14653">
        <ele>1969.8</ele>
        <time>2024-08-13T11:51:14Z</time>
      </trkpt>
      <trkpt lat="44.8447" lon="6.14653">
        <ele>1970</ele>
        <time>2024-08-13T11:51:15Z</time>
      </trkpt>
      <trkpt lat="44.8447" lon="6.14653">
        <ele>1970</ele>
        <time>2024-08-13T11:51:16Z</time>
      </trkpt>
      <trkpt lat="44.8447" lon="6.14653">
        <ele>1970</ele>
        <time>2024-08-13T11:51:17Z</time>
      </trkpt>
      <trkpt lat="44.8447" lon="6.14653">
        <ele>1970.2</ele>
        <time>2024-08-13T11:51:18Z</time>
      </trkpt>
      <trkpt lat="44.8447" lon="6.14653">
        <ele>1970.2</ele>
        <time>2024-08-13T11:51:19Z</time>
      </trkpt>
      <trkpt lat="44.8447" lon="6.14653">
        <ele>1970</ele>
        <time>2024-08-13T11:51:20Z</time>
      </trkpt>
      <trkpt lat="44.8447" lon="6.14653">
        <ele>1970</ele>
        <time>2024-08-13T11:51:21Z</time>
      </trkpt>
      <trkpt lat="44.8447" lon="6.14653">
        <ele>1970</ele>
        <time>2024-08-13T11:51:22Z</time>
      </trkpt>
      <trkpt lat="44.84471" lon="6.14649">
        <ele>1970</ele>
        <time>2024-08-13T11:51:23Z</time>
      </trkpt>
      <trkpt lat="44.84471" lon="6.14649">
        <ele>1970.2</ele>
        <time>2024-08-13T11:51:24Z</time>
      </trkpt>
      <trkpt lat="44.84471" lon="6.14649">
        <ele>1970</ele>
        <time>2024-08-13T11:51:25Z</time>
      </trkpt>
      <trkpt lat="44.8447" lon="6.14646">
        <ele>1969.8</ele>
        <time>2024-08-13T11:51:26Z</time>
      </trkpt>
      <trkpt lat="44.8447" lon="6.14646">
        <ele>1969.8</ele>
        <time>2024-08-13T11:51:27Z</time>
      </trkpt>
      <trkpt lat="44.8447" lon="6.14646">
        <ele>1969.8</ele>
        <time>2024-08-13T11:51:28Z</time>
      </trkpt>
      <trkpt lat="44.8447" lon="6.14646">
        <ele>1969.6</ele>
        <time>2024-08-13T11:51:29Z</time>
      </trkpt>
      <trkpt lat="44.8447" lon="6.14646">
        <ele>1969.6</ele>
        <time>2024-08-13T11:51:30Z</time>
      </trkpt>
      <trkpt lat="44.8447" lon="6.14646">
        <ele>1969.6</ele>
        <time>2024-08-13T11:51:31Z</time>
      </trkpt>
      <trkpt lat="44.8447" lon="6.14646">
        <ele>1969.8</ele>
        <time>2024-08-13T11:51:32Z</time>
      </trkpt>
      <trkpt lat="44.8447" lon="6.14646">
        <ele>1969.8</ele>
        <time>2024-08-13T11:51:33Z</time>
      </trkpt>
      <trkpt lat="44.8447" lon="6.14646">
        <ele>1969.8</ele>
        <time>2024-08-13T11:51:34Z</time>
      </trkpt>
      <trkpt lat="44.8447" lon="6.14646">
        <ele>1969.8</ele>
        <time>2024-08-13T11:51:35Z</time>
      </trkpt>
      <trkpt lat="44.8447" lon="6.14646">
        <ele>1969.6</ele>
        <time>2024-08-13T11:51:36Z</time>
      </trkpt>
      <trkpt lat="44.8447" lon="6.14646">
        <ele>1969.6</ele>
        <time>2024-08-13T11:51:37Z</time>
      </trkpt>
      <trkpt lat="44.8447" lon="6.14646">
        <ele>1969.8</ele>
        <time>2024-08-13T11:51:38Z</time>
      </trkpt>
      <trkpt lat="44.8447" lon="6.14646">
        <ele>1969.8</ele>
        <time>2024-08-13T11:51:39Z</time>
      </trkpt>
      <trkpt lat="44.8447" lon="6.14646">
        <ele>1969.8</ele>
        <time>2024-08-13T11:51:40Z</time>
      </trkpt>
      <trkpt lat="44.8447" lon="6.14646">
        <ele>1969.8</ele>
        <time>2024-08-13T11:51:41Z</time>
      </trkpt>
      <trkpt lat="44.8447" lon="6.14646">
        <ele>1970</ele>
        <time>2024-08-13T11:51:42Z</time>
      </trkpt>
      <trkpt lat="44.8447" lon="6.14646">
        <ele>1970</ele>
        <time>2024-08-13T11:51:43Z</time>
      </trkpt>
      <trkpt lat="44.8447" lon="6.14646">
        <ele>1970</ele>
        <time>2024-08-13T11:51:44Z</time>
      </trkpt>
      <trkpt lat="44.8447" lon="6.14646">
        <ele>1970</ele>
        <time>2024-08-13T11:51:45Z</time>
      </trkpt>
      <trkpt lat="44.8447" lon="6.14646">
        <ele>1970</ele>
        <time>2024-08-13T11:51:46Z</time>
      </trkpt>
      <trkpt lat="44.8447" lon="6.14646">
        <ele>1970.2</ele>
        <time>2024-08-13T11:51:47Z</time>
      </trkpt>
      <trkpt lat="44.8447" lon="6.14646">
        <ele>1970.2</ele>
        <time>2024-08-13T11:51:48Z</time>
      </trkpt>
      <trkpt lat="44.8447" lon="6.14646">
        <ele>1970.2</ele>
        <time>2024-08-13T11:51:49Z</time>
      </trkpt>
      <trkpt lat="44.8447" lon="6.14646">
        <ele>1970</ele>
        <time>2024-08-13T11:51:50Z</time>
      </trkpt>
      <trkpt lat="44.8447" lon="6.14646">
        <ele>1970</ele>
        <time>2024-08-13T11:51:51Z</time>
      </trkpt>
      <trkpt lat="44.8447" lon="6.14646">
        <ele>1970</ele>
        <time>2024-08-13T11:51:52Z</time>
      </trkpt>
      <trkpt lat="44.8447" lon="6.14646">
        <ele>1970</ele>
        <time>2024-08-13T11:51:53Z</time>
      </trkpt>
      <trkpt lat="44.8447" lon="6.14646">
        <ele>1970</ele>
        <time>2024-08-13T11:51:54Z</time>
      </trkpt>
      <trkpt lat="44.8447" lon="6.14646">
        <ele>1969.8</ele>
        <time>2024-08-13T11:51:55Z</time>
      </trkpt>
      <trkpt lat="44.8447" lon="6.14646">
        <ele>1970</ele>
        <time>2024-08-13T11:51:56Z</time>
      </trkpt>
      <trkpt lat="44.8447" lon="6.14646">
        <ele>1970</ele>
        <time>2024-08-13T11:51:57Z</time>
      </trkpt>
      <trkpt lat="44.8447" lon="6.14646">
        <ele>1970</ele>
        <time>2024-08-13T11:51:58Z</time>
      </trkpt>
      <trkpt lat="44.8447" lon="6.14646">
        <ele>1970</ele>
        <time>2024-08-13T11:51:59Z</time>
      </trkpt>
      <trkpt lat="44.8447" lon="6.14646">
        <ele>1970.2</ele>
        <time>2024-08-13T11:52:00Z</time>
      </trkpt>
      <trkpt lat="44.8447" lon="6.14646">
        <ele>1970.2</ele>
        <time>2024-08-13T11:52:01Z</time>
      </trkpt>
      <trkpt lat="44.8447" lon="6.14646">
        <ele>1970.4</ele>
        <time>2024-08-13T11:52:02Z</time>
      </trkpt>
      <trkpt lat="44.8447" lon="6.14646">
        <ele>1970.4</ele>
        <time>2024-08-13T11:52:03Z</time>
      </trkpt>
      <trkpt lat="44.8447" lon="6.14646">
        <ele>1970.4</ele>
        <time>2024-08-13T11:52:04Z</time>
      </trkpt>
      <trkpt lat="44.8447" lon="6.14646">
        <ele>1970.4</ele>
        <time>2024-08-13T11:52:05Z</time>
      </trkpt>
      <trkpt lat="44.8447" lon="6.14646">
        <ele>1970.4</ele>
        <time>2024-08-13T11:52:06Z</time>
      </trkpt>
      <trkpt lat="44.8447" lon="6.14646">
        <ele>1970.4</ele>
        <time>2024-08-13T11:52:07Z</time>
      </trkpt>
      <trkpt lat="44.8447" lon="6.14646">
        <ele>1970.2</ele>
        <time>2024-08-13T11:52:08Z</time>
      </trkpt>
      <trkpt lat="44.8447" lon="6.14646">
        <ele>1970.2</ele>
        <time>2024-08-13T11:52:09Z</time>
      </trkpt>
      <trkpt lat="44.8447" lon="6.14646">
        <ele>1970.4</ele>
        <time>2024-08-13T11:52:10Z</time>
      </trkpt>
      <trkpt lat="44.8447" lon="6.14646">
        <ele>1970.4</ele>
        <time>2024-08-13T11:52:11Z</time>
      </trkpt>
      <trkpt lat="44.8447" lon="6.14646">
        <ele>1970.2</ele>
        <time>2024-08-13T11:52:12Z</time>
      </trkpt>
      <trkpt lat="44.8447" lon="6.14646">
        <ele>1970.4</ele>
        <time>2024-08-13T11:52:13Z</time>
      </trkpt>
      <trkpt lat="44.8447" lon="6.14646">
        <ele>1970.4</ele>
        <time>2024-08-13T11:52:14Z</time>
      </trkpt>
      <trkpt lat="44.8447" lon="6.14646">
        <ele>1970.4</ele>
        <time>2024-08-13T11:52:15Z</time>
      </trkpt>
      <trkpt lat="44.8447" lon="6.14646">
        <ele>1970.4</ele>
        <time>2024-08-13T11:52:16Z</time>
      </trkpt>
      <trkpt lat="44.8447" lon="6.14646">
        <ele>1970.6</ele>
        <time>2024-08-13T11:52:17Z</time>
      </trkpt>
      <trkpt lat="44.8447" lon="6.14646">
        <ele>1970.6</ele>
        <time>2024-08-13T11:52:18Z</time>
      </trkpt>
      <trkpt lat="44.8447" lon="6.14646">
        <ele>1970.6</ele>
        <time>2024-08-13T11:52:19Z</time>
      </trkpt>
      <trkpt lat="44.8447" lon="6.14646">
        <ele>1970.4</ele>
        <time>2024-08-13T11:52:20Z</time>
      </trkpt>
      <trkpt lat="44.8447" lon="6.14646">
        <ele>1970.4</ele>
        <time>2024-08-13T11:52:21Z</time>
      </trkpt>
      <trkpt lat="44.8447" lon="6.14646">
        <ele>1970.4</ele>
        <time>2024-08-13T11:52:22Z</time>
      </trkpt>
      <trkpt lat="44.8447" lon="6.14646">
        <ele>1970.4</ele>
        <time>2024-08-13T11:52:23Z</time>
      </trkpt>
      <trkpt lat="44.8447" lon="6.14646">
        <ele>1970.4</ele>
        <time>2024-08-13T11:52:24Z</time>
      </trkpt>
      <trkpt lat="44.8447" lon="6.14646">
        <ele>1970.4</ele>
        <time>2024-08-13T11:52:25Z</time>
      </trkpt>
      <trkpt lat="44.84469" lon="6.14646">
        <ele>1970.4</ele>
        <time>2024-08-13T11:52:26Z</time>
      </trkpt>
      <trkpt lat="44.84469" lon="6.14646">
        <ele>1970.2</ele>
        <time>2024-08-13T11:52:27Z</time>
      </trkpt>
      <trkpt lat="44.84469" lon="6.14646">
        <ele>1970.4</ele>
        <time>2024-08-13T11:52:28Z</time>
      </trkpt>
      <trkpt lat="44.84469" lon="6.14646">
        <ele>1970.4</ele>
        <time>2024-08-13T11:52:29Z</time>
      </trkpt>
      <trkpt lat="44.84469" lon="6.14646">
        <ele>1970.4</ele>
        <time>2024-08-13T11:52:30Z</time>
      </trkpt>
      <trkpt lat="44.84469" lon="6.14646">
        <ele>1970.4</ele>
        <time>2024-08-13T11:52:31Z</time>
      </trkpt>
      <trkpt lat="44.84469" lon="6.14646">
        <ele>1970.4</ele>
        <time>2024-08-13T11:52:32Z</time>
      </trkpt>
      <trkpt lat="44.84469" lon="6.14646">
        <ele>1970.4</ele>
        <time>2024-08-13T11:52:33Z</time>
      </trkpt>
      <trkpt lat="44.84469" lon="6.14646">
        <ele>1970.4</ele>
        <time>2024-08-13T11:52:34Z</time>
      </trkpt>
      <trkpt lat="44.84469" lon="6.14646">
        <ele>1970.4</ele>
        <time>2024-08-13T11:52:35Z</time>
      </trkpt>
      <trkpt lat="44.84469" lon="6.14646">
        <ele>1970.4</ele>
        <time>2024-08-13T11:52:36Z</time>
      </trkpt>
      <trkpt lat="44.84469" lon="6.14646">
        <ele>1970.4</ele>
        <time>2024-08-13T11:52:37Z</time>
      </trkpt>
      <trkpt lat="44.84469" lon="6.14646">
        <ele>1970.2</ele>
        <time>2024-08-13T11:52:38Z</time>
      </trkpt>
      <trkpt lat="44.84469" lon="6.14646">
        <ele>1970.2</ele>
        <time>2024-08-13T11:52:39Z</time>
      </trkpt>
      <trkpt lat="44.84469" lon="6.14646">
        <ele>1970.4</ele>
        <time>2024-08-13T11:52:40Z</time>
      </trkpt>
      <trkpt lat="44.84469" lon="6.14646">
        <ele>1970.4</ele>
        <time>2024-08-13T11:52:41Z</time>
      </trkpt>
      <trkpt lat="44.84469" lon="6.14646">
        <ele>1970.6</ele>
        <time>2024-08-13T11:52:42Z</time>
      </trkpt>
      <trkpt lat="44.84469" lon="6.14646">
        <ele>1970.6</ele>
        <time>2024-08-13T11:52:43Z</time>
      </trkpt>
      <trkpt lat="44.84469" lon="6.14646">
        <ele>1970.6</ele>
        <time>2024-08-13T11:52:44Z</time>
      </trkpt>
      <trkpt lat="44.84469" lon="6.14646">
        <ele>1970.6</ele>
        <time>2024-08-13T11:52:45Z</time>
      </trkpt>
      <trkpt lat="44.84469" lon="6.14646">
        <ele>1970.4</ele>
        <time>2024-08-13T11:52:46Z</time>
      </trkpt>
      <trkpt lat="44.84469" lon="6.14646">
        <ele>1970.2</ele>
        <time>2024-08-13T11:52:47Z</time>
      </trkpt>
      <trkpt lat="44.84469" lon="6.14646">
        <ele>1970.2</ele>
        <time>2024-08-13T11:52:48Z</time>
      </trkpt>
      <trkpt lat="44.84469" lon="6.14646">
        <ele>1970.4</ele>
        <time>2024-08-13T11:52:49Z</time>
      </trkpt>
      <trkpt lat="44.84469" lon="6.14646">
        <ele>1970.4</ele>
        <time>2024-08-13T11:52:50Z</time>
      </trkpt>
      <trkpt lat="44.84469" lon="6.14646">
        <ele>1970.4</ele>
        <time>2024-08-13T11:52:51Z</time>
      </trkpt>
      <trkpt lat="44.84469" lon="6.14646">
        <ele>1970.6</ele>
        <time>2024-08-13T11:52:52Z</time>
      </trkpt>
      <trkpt lat="44.84469" lon="6.14646">
        <ele>1970.6</ele>
        <time>2024-08-13T11:52:53Z</time>
      </trkpt>
      <trkpt lat="44.84469" lon="6.14646">
        <ele>1970.6</ele>
        <time>2024-08-13T11:52:54Z</time>
      </trkpt>
      <trkpt lat="44.84469" lon="6.14646">
        <ele>1970.6</ele>
        <time>2024-08-13T11:52:55Z</time>
      </trkpt>
      <trkpt lat="44.84469" lon="6.14646">
        <ele>1970.6</ele>
        <time>2024-08-13T11:52:56Z</time>
      </trkpt>
      <trkpt lat="44.84469" lon="6.14646">
        <ele>1970.4</ele>
        <time>2024-08-13T11:52:57Z</time>
      </trkpt>
      <trkpt lat="44.84469" lon="6.14646">
        <ele>1970.4</ele>
        <time>2024-08-13T11:52:58Z</time>
      </trkpt>
      <trkpt lat="44.84469" lon="6.14646">
        <ele>1970.6</ele>
        <time>2024-08-13T11:52:59Z</time>
      </trkpt>
      <trkpt lat="44.84469" lon="6.14646">
        <ele>1970.6</ele>
        <time>2024-08-13T11:53:00Z</time>
      </trkpt>
      <trkpt lat="44.84469" lon="6.14646">
        <ele>1970.4</ele>
        <time>2024-08-13T11:53:01Z</time>
      </trkpt>
      <trkpt lat="44.84469" lon="6.14646">
        <ele>1970.6</ele>
        <time>2024-08-13T11:53:02Z</time>
      </trkpt>
      <trkpt lat="44.84469" lon="6.14646">
        <ele>1970.6</ele>
        <time>2024-08-13T11:53:03Z</time>
      </trkpt>
      <trkpt lat="44.84469" lon="6.14646">
        <ele>1970.6</ele>
        <time>2024-08-13T11:53:04Z</time>
      </trkpt>
      <trkpt lat="44.84469" lon="6.14646">
        <ele>1970.6</ele>
        <time>2024-08-13T11:53:05Z</time>
      </trkpt>
      <trkpt lat="44.84469" lon="6.14646">
        <ele>1970.6</ele>
        <time>2024-08-13T11:53:06Z</time>
      </trkpt>
      <trkpt lat="44.84469" lon="6.14646">
        <ele>1970.8</ele>
        <time>2024-08-13T11:53:07Z</time>
      </trkpt>
      <trkpt lat="44.84469" lon="6.14646">
        <ele>1970.8</ele>
        <time>2024-08-13T11:53:08Z</time>
      </trkpt>
      <trkpt lat="44.84469" lon="6.14646">
        <ele>1970.8</ele>
        <time>2024-08-13T11:53:09Z</time>
      </trkpt>
      <trkpt lat="44.84469" lon="6.14646">
        <ele>1970.8</ele>
        <time>2024-08-13T11:53:10Z</time>
      </trkpt>
      <trkpt lat="44.84469" lon="6.14646">
        <ele>1970.8</ele>
        <time>2024-08-13T11:53:11Z</time>
      </trkpt>
      <trkpt lat="44.84469" lon="6.14646">
        <ele>1970.8</ele>
        <time>2024-08-13T11:53:12Z</time>
      </trkpt>
      <trkpt lat="44.84469" lon="6.14646">
        <ele>1970.8</ele>
        <time>2024-08-13T11:53:13Z</time>
      </trkpt>
      <trkpt lat="44.84469" lon="6.14646">
        <ele>1970.8</ele>
        <time>2024-08-13T11:53:14Z</time>
      </trkpt>
      <trkpt lat="44.84469" lon="6.14646">
        <ele>1970.8</ele>
        <time>2024-08-13T11:53:15Z</time>
      </trkpt>
      <trkpt lat="44.84469" lon="6.14646">
        <ele>1970.8</ele>
        <time>2024-08-13T11:53:16Z</time>
      </trkpt>
      <trkpt lat="44.84469" lon="6.14646">
        <ele>1970.8</ele>
        <time>2024-08-13T11:53:17Z</time>
      </trkpt>
      <trkpt lat="44.84469" lon="6.14646">
        <ele>1970.8</ele>
        <time>2024-08-13T11:53:18Z</time>
      </trkpt>
      <trkpt lat="44.84469" lon="6.14646">
        <ele>1971.2</ele>
        <time>2024-08-13T11:53:19Z</time>
      </trkpt>
      <trkpt lat="44.84469" lon="6.14646">
        <ele>1971.2</ele>
        <time>2024-08-13T11:53:20Z</time>
      </trkpt>
      <trkpt lat="44.84469" lon="6.14646">
        <ele>1971.2</ele>
        <time>2024-08-13T11:53:21Z</time>
      </trkpt>
      <trkpt lat="44.84469" lon="6.14646">
        <ele>1971.2</ele>
        <time>2024-08-13T11:53:22Z</time>
      </trkpt>
      <trkpt lat="44.84469" lon="6.14646">
        <ele>1971.2</ele>
        <time>2024-08-13T11:53:23Z</time>
      </trkpt>
      <trkpt lat="44.84469" lon="6.14646">
        <ele>1971.4</ele>
        <time>2024-08-13T11:53:24Z</time>
      </trkpt>
      <trkpt lat="44.84469" lon="6.14646">
        <ele>1971.4</ele>
        <time>2024-08-13T11:53:25Z</time>
      </trkpt>
      <trkpt lat="44.84469" lon="6.14646">
        <ele>1971.2</ele>
        <time>2024-08-13T11:53:26Z</time>
      </trkpt>
      <trkpt lat="44.84468" lon="6.14646">
        <ele>1971.2</ele>
        <time>2024-08-13T11:53:27Z</time>
      </trkpt>
      <trkpt lat="44.84468" lon="6.14646">
        <ele>1971.2</ele>
        <time>2024-08-13T11:53:28Z</time>
      </trkpt>
      <trkpt lat="44.84468" lon="6.14646">
        <ele>1971.4</ele>
        <time>2024-08-13T11:53:29Z</time>
      </trkpt>
      <trkpt lat="44.84468" lon="6.14646">
        <ele>1971.6</ele>
        <time>2024-08-13T11:53:30Z</time>
      </trkpt>
      <trkpt lat="44.84468" lon="6.14646">
        <ele>1971.8</ele>
        <time>2024-08-13T11:53:31Z</time>
      </trkpt>
      <trkpt lat="44.84468" lon="6.14646">
        <ele>1971.8</ele>
        <time>2024-08-13T11:53:32Z</time>
      </trkpt>
      <trkpt lat="44.84468" lon="6.14646">
        <ele>1971.6</ele>
        <time>2024-08-13T11:53:33Z</time>
      </trkpt>
      <trkpt lat="44.84468" lon="6.14646">
        <ele>1971.6</ele>
        <time>2024-08-13T11:53:34Z</time>
      </trkpt>
      <trkpt lat="44.84468" lon="6.14646">
        <ele>1971.6</ele>
        <time>2024-08-13T11:53:35Z</time>
      </trkpt>
      <trkpt lat="44.84468" lon="6.14646">
        <ele>1971.6</ele>
        <time>2024-08-13T11:53:36Z</time>
      </trkpt>
      <trkpt lat="44.84468" lon="6.14646">
        <ele>1971.6</ele>
        <time>2024-08-13T11:53:37Z</time>
      </trkpt>
      <trkpt lat="44.84468" lon="6.14646">
        <ele>1971.6</ele>
        <time>2024-08-13T11:53:38Z</time>
      </trkpt>
      <trkpt lat="44.84468" lon="6.14646">
        <ele>1971.6</ele>
        <time>2024-08-13T11:53:39Z</time>
      </trkpt>
      <trkpt lat="44.84468" lon="6.14646">
        <ele>1971.8</ele>
        <time>2024-08-13T11:53:40Z</time>
      </trkpt>
      <trkpt lat="44.84468" lon="6.14646">
        <ele>1971.6</ele>
        <time>2024-08-13T11:53:41Z</time>
      </trkpt>
      <trkpt lat="44.84468" lon="6.14646">
        <ele>1971.6</ele>
        <time>2024-08-13T11:53:42Z</time>
      </trkpt>
      <trkpt lat="44.84468" lon="6.14646">
        <ele>1971.6</ele>
        <time>2024-08-13T11:53:43Z</time>
      </trkpt>
      <trkpt lat="44.84468" lon="6.14646">
        <ele>1971.6</ele>
        <time>2024-08-13T11:53:44Z</time>
      </trkpt>
      <trkpt lat="44.84468" lon="6.14646">
        <ele>1971.6</ele>
        <time>2024-08-13T11:53:45Z</time>
      </trkpt>
      <trkpt lat="44.84468" lon="6.14646">
        <ele>1971.8</ele>
        <time>2024-08-13T11:53:46Z</time>
      </trkpt>
      <trkpt lat="44.84468" lon="6.14646">
        <ele>1971.6</ele>
        <time>2024-08-13T11:53:47Z</time>
      </trkpt>
      <trkpt lat="44.84468" lon="6.14646">
        <ele>1971.4</ele>
        <time>2024-08-13T11:53:48Z</time>
      </trkpt>
      <trkpt lat="44.84468" lon="6.14646">
        <ele>1971.4</ele>
        <time>2024-08-13T11:53:49Z</time>
      </trkpt>
      <trkpt lat="44.84468" lon="6.14646">
        <ele>1971.2</ele>
        <time>2024-08-13T11:53:50Z</time>
      </trkpt>
      <trkpt lat="44.84468" lon="6.14646">
        <ele>1971.2</ele>
        <time>2024-08-13T11:53:51Z</time>
      </trkpt>
      <trkpt lat="44.84468" lon="6.14646">
        <ele>1971.2</ele>
        <time>2024-08-13T11:53:52Z</time>
      </trkpt>
      <trkpt lat="44.84468" lon="6.14646">
        <ele>1971.2</ele>
        <time>2024-08-13T11:53:53Z</time>
      </trkpt>
      <trkpt lat="44.84468" lon="6.14646">
        <ele>1971.2</ele>
        <time>2024-08-13T11:53:54Z</time>
      </trkpt>
      <trkpt lat="44.84468" lon="6.14646">
        <ele>1971.2</ele>
        <time>2024-08-13T11:53:55Z</time>
      </trkpt>
      <trkpt lat="44.84468" lon="6.14646">
        <ele>1971.4</ele>
        <time>2024-08-13T11:53:56Z</time>
      </trkpt>
      <trkpt lat="44.84468" lon="6.14646">
        <ele>1971.4</ele>
        <time>2024-08-13T11:53:57Z</time>
      </trkpt>
      <trkpt lat="44.84468" lon="6.14646">
        <ele>1971.4</ele>
        <time>2024-08-13T11:53:58Z</time>
      </trkpt>
      <trkpt lat="44.84468" lon="6.14646">
        <ele>1971.2</ele>
        <time>2024-08-13T11:53:59Z</time>
      </trkpt>
      <trkpt lat="44.84468" lon="6.14646">
        <ele>1971.2</ele>
        <time>2024-08-13T11:54:00Z</time>
      </trkpt>
      <trkpt lat="44.84468" lon="6.14646">
        <ele>1971.2</ele>
        <time>2024-08-13T11:54:01Z</time>
      </trkpt>
      <trkpt lat="44.84468" lon="6.14646">
        <ele>1971.2</ele>
        <time>2024-08-13T11:54:02Z</time>
      </trkpt>
      <trkpt lat="44.84468" lon="6.14646">
        <ele>1971.2</ele>
        <time>2024-08-13T11:54:03Z</time>
      </trkpt>
      <trkpt lat="44.84468" lon="6.14645">
        <ele>1971.2</ele>
        <time>2024-08-13T11:54:04Z</time>
      </trkpt>
      <trkpt lat="44.84468" lon="6.14645">
        <ele>1971.6</ele>
        <time>2024-08-13T11:54:05Z</time>
      </trkpt>
      <trkpt lat="44.84468" lon="6.14645">
        <ele>1971.6</ele>
        <time>2024-08-13T11:54:06Z</time>
      </trkpt>
      <trkpt lat="44.84468" lon="6.14645">
        <ele>1971.6</ele>
        <time>2024-08-13T11:54:07Z</time>
      </trkpt>
      <trkpt lat="44.84468" lon="6.14645">
        <ele>1971.6</ele>
        <time>2024-08-13T11:54:08Z</time>
      </trkpt>
      <trkpt lat="44.84468" lon="6.14645">
        <ele>1971.8</ele>
        <time>2024-08-13T11:54:09Z</time>
      </trkpt>
      <trkpt lat="44.84468" lon="6.14645">
        <ele>1971.8</ele>
        <time>2024-08-13T11:54:10Z</time>
      </trkpt>
      <trkpt lat="44.84468" lon="6.14645">
        <ele>1971.6</ele>
        <time>2024-08-13T11:54:11Z</time>
      </trkpt>
      <trkpt lat="44.84468" lon="6.14645">
        <ele>1971.4</ele>
        <time>2024-08-13T11:54:12Z</time>
      </trkpt>
      <trkpt lat="44.84468" lon="6.14645">
        <ele>1971.4</ele>
        <time>2024-08-13T11:54:13Z</time>
      </trkpt>
      <trkpt lat="44.84468" lon="6.14645">
        <ele>1971.4</ele>
        <time>2024-08-13T11:54:14Z</time>
      </trkpt>
      <trkpt lat="44.84468" lon="6.14645">
        <ele>1971.4</ele>
        <time>2024-08-13T11:54:15Z</time>
      </trkpt>
      <trkpt lat="44.84468" lon="6.14645">
        <ele>1971.4</ele>
        <time>2024-08-13T11:54:16Z</time>
      </trkpt>
      <trkpt lat="44.84468" lon="6.14645">
        <ele>1971.4</ele>
        <time>2024-08-13T11:54:17Z</time>
      </trkpt>
      <trkpt lat="44.84468" lon="6.14645">
        <ele>1971.4</ele>
        <time>2024-08-13T11:54:18Z</time>
      </trkpt>
      <trkpt lat="44.84468" lon="6.14645">
        <ele>1971.4</ele>
        <time>2024-08-13T11:54:19Z</time>
      </trkpt>
      <trkpt lat="44.84468" lon="6.14645">
        <ele>1971.4</ele>
        <time>2024-08-13T11:54:20Z</time>
      </trkpt>
      <trkpt lat="44.84468" lon="6.14645">
        <ele>1971.4</ele>
        <time>2024-08-13T11:54:21Z</time>
      </trkpt>
      <trkpt lat="44.84468" lon="6.14645">
        <ele>1971.4</ele>
        <time>2024-08-13T11:54:22Z</time>
      </trkpt>
      <trkpt lat="44.84468" lon="6.14645">
        <ele>1971.4</ele>
        <time>2024-08-13T11:54:23Z</time>
      </trkpt>
      <trkpt lat="44.84468" lon="6.14645">
        <ele>1971.4</ele>
        <time>2024-08-13T11:54:24Z</time>
      </trkpt>
      <trkpt lat="44.84468" lon="6.14645">
        <ele>1971.4</ele>
        <time>2024-08-13T11:54:25Z</time>
      </trkpt>
      <trkpt lat="44.84468" lon="6.14645">
        <ele>1971.4</ele>
        <time>2024-08-13T11:54:26Z</time>
      </trkpt>
      <trkpt lat="44.84468" lon="6.14645">
        <ele>1971.6</ele>
        <time>2024-08-13T11:54:27Z</time>
      </trkpt>
      <trkpt lat="44.84467" lon="6.14645">
        <ele>1971.6</ele>
        <time>2024-08-13T11:54:28Z</time>
      </trkpt>
      <trkpt lat="44.84467" lon="6.14645">
        <ele>1971.6</ele>
        <time>2024-08-13T11:54:29Z</time>
      </trkpt>
      <trkpt lat="44.84467" lon="6.14645">
        <ele>1971.6</ele>
        <time>2024-08-13T11:54:30Z</time>
      </trkpt>
      <trkpt lat="44.84467" lon="6.14645">
        <ele>1971.6</ele>
        <time>2024-08-13T11:54:31Z</time>
      </trkpt>
      <trkpt lat="44.84467" lon="6.14645">
        <ele>1971.8</ele>
        <time>2024-08-13T11:54:32Z</time>
      </trkpt>
      <trkpt lat="44.84467" lon="6.14645">
        <ele>1971.8</ele>
        <time>2024-08-13T11:54:33Z</time>
      </trkpt>
      <trkpt lat="44.84467" lon="6.14645">
        <ele>1971.4</ele>
        <time>2024-08-13T11:54:34Z</time>
      </trkpt>
      <trkpt lat="44.84467" lon="6.14645">
        <ele>1971.2</ele>
        <time>2024-08-13T11:54:35Z</time>
      </trkpt>
      <trkpt lat="44.84467" lon="6.14645">
        <ele>1971.2</ele>
        <time>2024-08-13T11:54:36Z</time>
      </trkpt>
      <trkpt lat="44.84467" lon="6.14645">
        <ele>1971.4</ele>
        <time>2024-08-13T11:54:37Z</time>
      </trkpt>
      <trkpt lat="44.84467" lon="6.14645">
        <ele>1971.4</ele>
        <time>2024-08-13T11:54:38Z</time>
      </trkpt>
      <trkpt lat="44.84467" lon="6.14645">
        <ele>1971.6</ele>
        <time>2024-08-13T11:54:39Z</time>
      </trkpt>
      <trkpt lat="44.84467" lon="6.14645">
        <ele>1971.6</ele>
        <time>2024-08-13T11:54:40Z</time>
      </trkpt>
      <trkpt lat="44.84467" lon="6.14645">
        <ele>1971.6</ele>
        <time>2024-08-13T11:54:41Z</time>
      </trkpt>
      <trkpt lat="44.84467" lon="6.14645">
        <ele>1971.6</ele>
        <time>2024-08-13T11:54:42Z</time>
      </trkpt>
      <trkpt lat="44.84467" lon="6.14645">
        <ele>1971.4</ele>
        <time>2024-08-13T11:54:43Z</time>
      </trkpt>
      <trkpt lat="44.84467" lon="6.14645">
        <ele>1971.2</ele>
        <time>2024-08-13T11:54:44Z</time>
      </trkpt>
      <trkpt lat="44.84467" lon="6.14645">
        <ele>1971.2</ele>
        <time>2024-08-13T11:54:45Z</time>
      </trkpt>
      <trkpt lat="44.84467" lon="6.14645">
        <ele>1971.6</ele>
        <time>2024-08-13T11:54:46Z</time>
      </trkpt>
      <trkpt lat="44.84467" lon="6.14645">
        <ele>1971.6</ele>
        <time>2024-08-13T11:54:47Z</time>
      </trkpt>
      <trkpt lat="44.84467" lon="6.14645">
        <ele>1971.6</ele>
        <time>2024-08-13T11:54:48Z</time>
      </trkpt>
      <trkpt lat="44.84467" lon="6.14645">
        <ele>1971.6</ele>
        <time>2024-08-13T11:54:49Z</time>
      </trkpt>
      <trkpt lat="44.84467" lon="6.14645">
        <ele>1971.6</ele>
        <time>2024-08-13T11:54:50Z</time>
      </trkpt>
      <trkpt lat="44.84467" lon="6.14645">
        <ele>1971.4</ele>
        <time>2024-08-13T11:54:51Z</time>
      </trkpt>
      <trkpt lat="44.84467" lon="6.14645">
        <ele>1971.4</ele>
        <time>2024-08-13T11:54:52Z</time>
      </trkpt>
      <trkpt lat="44.84467" lon="6.14645">
        <ele>1971.4</ele>
        <time>2024-08-13T11:54:53Z</time>
      </trkpt>
      <trkpt lat="44.84467" lon="6.14645">
        <ele>1971.6</ele>
        <time>2024-08-13T11:54:54Z</time>
      </trkpt>
      <trkpt lat="44.84467" lon="6.14645">
        <ele>1971.6</ele>
        <time>2024-08-13T11:54:55Z</time>
      </trkpt>
      <trkpt lat="44.84467" lon="6.14645">
        <ele>1971.8</ele>
        <time>2024-08-13T11:54:56Z</time>
      </trkpt>
      <trkpt lat="44.84467" lon="6.14645">
        <ele>1971.8</ele>
        <time>2024-08-13T11:54:57Z</time>
      </trkpt>
      <trkpt lat="44.84467" lon="6.14645">
        <ele>1971.8</ele>
        <time>2024-08-13T11:54:58Z</time>
      </trkpt>
      <trkpt lat="44.84467" lon="6.14645">
        <ele>1971.8</ele>
        <time>2024-08-13T11:54:59Z</time>
      </trkpt>
      <trkpt lat="44.84467" lon="6.14645">
        <ele>1972</ele>
        <time>2024-08-13T11:55:00Z</time>
      </trkpt>
      <trkpt lat="44.84467" lon="6.14645">
        <ele>1972</ele>
        <time>2024-08-13T11:55:01Z</time>
      </trkpt>
      <trkpt lat="44.84467" lon="6.14645">
        <ele>1972</ele>
        <time>2024-08-13T11:55:02Z</time>
      </trkpt>
      <trkpt lat="44.84467" lon="6.14645">
        <ele>1972</ele>
        <time>2024-08-13T11:55:03Z</time>
      </trkpt>
      <trkpt lat="44.84467" lon="6.14645">
        <ele>1972</ele>
        <time>2024-08-13T11:55:04Z</time>
      </trkpt>
      <trkpt lat="44.84467" lon="6.14645">
        <ele>1971.8</ele>
        <time>2024-08-13T11:55:05Z</time>
      </trkpt>
      <trkpt lat="44.84467" lon="6.14645">
        <ele>1971.8</ele>
        <time>2024-08-13T11:55:06Z</time>
      </trkpt>
      <trkpt lat="44.84467" lon="6.14645">
        <ele>1971.8</ele>
        <time>2024-08-13T11:55:07Z</time>
      </trkpt>
      <trkpt lat="44.84467" lon="6.14645">
        <ele>1972</ele>
        <time>2024-08-13T11:55:08Z</time>
      </trkpt>
      <trkpt lat="44.84467" lon="6.14645">
        <ele>1972</ele>
        <time>2024-08-13T11:55:09Z</time>
      </trkpt>
      <trkpt lat="44.84467" lon="6.14645">
        <ele>1971.8</ele>
        <time>2024-08-13T11:55:10Z</time>
      </trkpt>
      <trkpt lat="44.84467" lon="6.14645">
        <ele>1971.8</ele>
        <time>2024-08-13T11:55:11Z</time>
      </trkpt>
      <trkpt lat="44.84467" lon="6.14645">
        <ele>1972</ele>
        <time>2024-08-13T11:55:12Z</time>
      </trkpt>
      <trkpt lat="44.84467" lon="6.14645">
        <ele>1972.2</ele>
        <time>2024-08-13T11:55:13Z</time>
      </trkpt>
      <trkpt lat="44.84467" lon="6.14645">
        <ele>1972.2</ele>
        <time>2024-08-13T11:55:14Z</time>
      </trkpt>
      <trkpt lat="44.84467" lon="6.14645">
        <ele>1972.2</ele>
        <time>2024-08-13T11:55:15Z</time>
      </trkpt>
      <trkpt lat="44.84467" lon="6.14645">
        <ele>1972.2</ele>
        <time>2024-08-13T11:55:16Z</time>
      </trkpt>
      <trkpt lat="44.84467" lon="6.14645">
        <ele>1972.4</ele>
        <time>2024-08-13T11:55:17Z</time>
      </trkpt>
      <trkpt lat="44.84467" lon="6.14645">
        <ele>1972.4</ele>
        <time>2024-08-13T11:55:18Z</time>
      </trkpt>
      <trkpt lat="44.84467" lon="6.14645">
        <ele>1972.4</ele>
        <time>2024-08-13T11:55:19Z</time>
      </trkpt>
      <trkpt lat="44.84467" lon="6.14645">
        <ele>1972.2</ele>
        <time>2024-08-13T11:55:20Z</time>
      </trkpt>
      <trkpt lat="44.84467" lon="6.14645">
        <ele>1972.2</ele>
        <time>2024-08-13T11:55:21Z</time>
      </trkpt>
      <trkpt lat="44.84467" lon="6.14645">
        <ele>1972.2</ele>
        <time>2024-08-13T11:55:22Z</time>
      </trkpt>
      <trkpt lat="44.84467" lon="6.14645">
        <ele>1972.2</ele>
        <time>2024-08-13T11:55:23Z</time>
      </trkpt>
      <trkpt lat="44.84467" lon="6.14645">
        <ele>1972</ele>
        <time>2024-08-13T11:55:24Z</time>
      </trkpt>
      <trkpt lat="44.84467" lon="6.14645">
        <ele>1972</ele>
        <time>2024-08-13T11:55:25Z</time>
      </trkpt>
      <trkpt lat="44.84467" lon="6.14645">
        <ele>1972</ele>
        <time>2024-08-13T11:55:26Z</time>
      </trkpt>
      <trkpt lat="44.84467" lon="6.14645">
        <ele>1972</ele>
        <time>2024-08-13T11:55:27Z</time>
      </trkpt>
      <trkpt lat="44.84467" lon="6.14645">
        <ele>1972.2</ele>
        <time>2024-08-13T11:55:28Z</time>
      </trkpt>
      <trkpt lat="44.84466" lon="6.14645">
        <ele>1972.2</ele>
        <time>2024-08-13T11:55:29Z</time>
      </trkpt>
      <trkpt lat="44.84466" lon="6.14645">
        <ele>1972.2</ele>
        <time>2024-08-13T11:55:30Z</time>
      </trkpt>
      <trkpt lat="44.84466" lon="6.14645">
        <ele>1972.2</ele>
        <time>2024-08-13T11:55:31Z</time>
      </trkpt>
      <trkpt lat="44.84466" lon="6.14645">
        <ele>1972.2</ele>
        <time>2024-08-13T11:55:32Z</time>
      </trkpt>
      <trkpt lat="44.84466" lon="6.14645">
        <ele>1972.2</ele>
        <time>2024-08-13T11:55:33Z</time>
      </trkpt>
      <trkpt lat="44.84466" lon="6.14645">
        <ele>1972.2</ele>
        <time>2024-08-13T11:55:34Z</time>
      </trkpt>
      <trkpt lat="44.84466" lon="6.14645">
        <ele>1972</ele>
        <time>2024-08-13T11:55:35Z</time>
      </trkpt>
      <trkpt lat="44.84466" lon="6.14645">
        <ele>1972</ele>
        <time>2024-08-13T11:55:36Z</time>
      </trkpt>
      <trkpt lat="44.84466" lon="6.14645">
        <ele>1972.2</ele>
        <time>2024-08-13T11:55:37Z</time>
      </trkpt>
      <trkpt lat="44.84466" lon="6.14645">
        <ele>1972.2</ele>
        <time>2024-08-13T11:55:38Z</time>
      </trkpt>
      <trkpt lat="44.84466" lon="6.14645">
        <ele>1972.2</ele>
        <time>2024-08-13T11:55:39Z</time>
      </trkpt>
      <trkpt lat="44.84466" lon="6.14645">
        <ele>1972.2</ele>
        <time>2024-08-13T11:55:40Z</time>
      </trkpt>
      <trkpt lat="44.84466" lon="6.14645">
        <ele>1972.2</ele>
        <time>2024-08-13T11:55:41Z</time>
      </trkpt>
      <trkpt lat="44.84466" lon="6.14645">
        <ele>1972.2</ele>
        <time>2024-08-13T11:55:42Z</time>
      </trkpt>
      <trkpt lat="44.84466" lon="6.14645">
        <ele>1972</ele>
        <time>2024-08-13T11:55:43Z</time>
      </trkpt>
      <trkpt lat="44.84466" lon="6.14645">
        <ele>1972.2</ele>
        <time>2024-08-13T11:55:44Z</time>
      </trkpt>
      <trkpt lat="44.84466" lon="6.14645">
        <ele>1972.2</ele>
        <time>2024-08-13T11:55:45Z</time>
      </trkpt>
      <trkpt lat="44.84466" lon="6.14645">
        <ele>1972.4</ele>
        <time>2024-08-13T11:55:46Z</time>
      </trkpt>
      <trkpt lat="44.84466" lon="6.14645">
        <ele>1972.6</ele>
        <time>2024-08-13T11:55:47Z</time>
      </trkpt>
      <trkpt lat="44.84466" lon="6.14645">
        <ele>1972.4</ele>
        <time>2024-08-13T11:55:48Z</time>
      </trkpt>
      <trkpt lat="44.84466" lon="6.14645">
        <ele>1972.4</ele>
        <time>2024-08-13T11:55:49Z</time>
      </trkpt>
      <trkpt lat="44.84466" lon="6.14645">
        <ele>1972.4</ele>
        <time>2024-08-13T11:55:50Z</time>
      </trkpt>
      <trkpt lat="44.84466" lon="6.14645">
        <ele>1972.4</ele>
        <time>2024-08-13T11:55:51Z</time>
      </trkpt>
      <trkpt lat="44.84466" lon="6.14645">
        <ele>1972.4</ele>
        <time>2024-08-13T11:55:52Z</time>
      </trkpt>
      <trkpt lat="44.84466" lon="6.14645">
        <ele>1972.4</ele>
        <time>2024-08-13T11:55:53Z</time>
      </trkpt>
      <trkpt lat="44.84466" lon="6.14645">
        <ele>1972.4</ele>
        <time>2024-08-13T11:55:54Z</time>
      </trkpt>
      <trkpt lat="44.84466" lon="6.14645">
        <ele>1972.6</ele>
        <time>2024-08-13T11:55:55Z</time>
      </trkpt>
      <trkpt lat="44.84466" lon="6.14645">
        <ele>1972.6</ele>
        <time>2024-08-13T11:55:56Z</time>
      </trkpt>
      <trkpt lat="44.84466" lon="6.14645">
        <ele>1972.6</ele>
        <time>2024-08-13T11:55:57Z</time>
      </trkpt>
      <trkpt lat="44.84466" lon="6.14645">
        <ele>1972.4</ele>
        <time>2024-08-13T11:55:58Z</time>
      </trkpt>
      <trkpt lat="44.84466" lon="6.14645">
        <ele>1972.4</ele>
        <time>2024-08-13T11:55:59Z</time>
      </trkpt>
      <trkpt lat="44.84466" lon="6.14645">
        <ele>1972.4</ele>
        <time>2024-08-13T11:56:00Z</time>
      </trkpt>
      <trkpt lat="44.84466" lon="6.14645">
        <ele>1972.4</ele>
        <time>2024-08-13T11:56:01Z</time>
      </trkpt>
      <trkpt lat="44.84457" lon="6.14642">
        <ele>1972.4</ele>
        <time>2024-08-13T11:56:02Z</time>
      </trkpt>
      <trkpt lat="44.84454" lon="6.14642">
        <ele>1972.4</ele>
        <time>2024-08-13T11:56:03Z</time>
      </trkpt>
      <trkpt lat="44.84452" lon="6.14641">
        <ele>1972.2</ele>
        <time>2024-08-13T11:56:04Z</time>
      </trkpt>
      <trkpt lat="44.84452" lon="6.14641">
        <ele>1972.2</ele>
        <time>2024-08-13T11:56:05Z</time>
      </trkpt>
      <trkpt lat="44.84452" lon="6.14641">
        <ele>1972.4</ele>
        <time>2024-08-13T11:56:06Z</time>
      </trkpt>
      <trkpt lat="44.84452" lon="6.14641">
        <ele>1972.4</ele>
        <time>2024-08-13T11:56:07Z</time>
      </trkpt>
      <trkpt lat="44.84452" lon="6.14641">
        <ele>1972.4</ele>
        <time>2024-08-13T11:56:08Z</time>
      </trkpt>
      <trkpt lat="44.84452" lon="6.14641">
        <ele>1972.2</ele>
        <time>2024-08-13T11:56:09Z</time>
      </trkpt>
      <trkpt lat="44.84452" lon="6.14641">
        <ele>1972</ele>
        <time>2024-08-13T11:56:10Z</time>
      </trkpt>
      <trkpt lat="44.84452" lon="6.14641">
        <ele>1972</ele>
        <time>2024-08-13T11:56:11Z</time>
      </trkpt>
      <trkpt lat="44.84452" lon="6.14641">
        <ele>1972.2</ele>
        <time>2024-08-13T11:56:12Z</time>
      </trkpt>
      <trkpt lat="44.84452" lon="6.14641">
        <ele>1972.2</ele>
        <time>2024-08-13T11:56:13Z</time>
      </trkpt>
      <trkpt lat="44.84452" lon="6.14641">
        <ele>1972.2</ele>
        <time>2024-08-13T11:56:14Z</time>
      </trkpt>
      <trkpt lat="44.84452" lon="6.14641">
        <ele>1972.2</ele>
        <time>2024-08-13T11:56:15Z</time>
      </trkpt>
      <trkpt lat="44.84452" lon="6.14641">
        <ele>1972.2</ele>
        <time>2024-08-13T11:56:16Z</time>
      </trkpt>
      <trkpt lat="44.84452" lon="6.14641">
        <ele>1972.2</ele>
        <time>2024-08-13T11:56:17Z</time>
      </trkpt>
      <trkpt lat="44.84452" lon="6.14641">
        <ele>1972.2</ele>
        <time>2024-08-13T11:56:18Z</time>
      </trkpt>
      <trkpt lat="44.84452" lon="6.14641">
        <ele>1972.6</ele>
        <time>2024-08-13T11:56:19Z</time>
      </trkpt>
      <trkpt lat="44.84452" lon="6.14641">
        <ele>1972.6</ele>
        <time>2024-08-13T11:56:20Z</time>
      </trkpt>
      <trkpt lat="44.84452" lon="6.14641">
        <ele>1972.4</ele>
        <time>2024-08-13T11:56:21Z</time>
      </trkpt>
      <trkpt lat="44.84452" lon="6.14641">
        <ele>1972.4</ele>
        <time>2024-08-13T11:56:22Z</time>
      </trkpt>
      <trkpt lat="44.84452" lon="6.14641">
        <ele>1972.4</ele>
        <time>2024-08-13T11:56:23Z</time>
      </trkpt>
      <trkpt lat="44.84452" lon="6.14641">
        <ele>1972.4</ele>
        <time>2024-08-13T11:56:24Z</time>
      </trkpt>
      <trkpt lat="44.84452" lon="6.14641">
        <ele>1972.2</ele>
        <time>2024-08-13T11:56:25Z</time>
      </trkpt>
      <trkpt lat="44.84452" lon="6.14641">
        <ele>1972.2</ele>
        <time>2024-08-13T11:56:26Z</time>
      </trkpt>
      <trkpt lat="44.84452" lon="6.14641">
        <ele>1972.2</ele>
        <time>2024-08-13T11:56:27Z</time>
      </trkpt>
      <trkpt lat="44.84452" lon="6.14641">
        <ele>1972</ele>
        <time>2024-08-13T11:56:28Z</time>
      </trkpt>
      <trkpt lat="44.84452" lon="6.14641">
        <ele>1972</ele>
        <time>2024-08-13T11:56:29Z</time>
      </trkpt>
      <trkpt lat="44.84452" lon="6.14641">
        <ele>1972</ele>
        <time>2024-08-13T11:56:30Z</time>
      </trkpt>
      <trkpt lat="44.84452" lon="6.14641">
        <ele>1972</ele>
        <time>2024-08-13T11:56:31Z</time>
      </trkpt>
      <trkpt lat="44.84452" lon="6.14641">
        <ele>1972</ele>
        <time>2024-08-13T11:56:32Z</time>
      </trkpt>
      <trkpt lat="44.84452" lon="6.14641">
        <ele>1972</ele>
        <time>2024-08-13T11:56:33Z</time>
      </trkpt>
      <trkpt lat="44.84452" lon="6.14641">
        <ele>1972</ele>
        <time>2024-08-13T11:56:34Z</time>
      </trkpt>
      <trkpt lat="44.84452" lon="6.14641">
        <ele>1972</ele>
        <time>2024-08-13T11:56:35Z</time>
      </trkpt>
      <trkpt lat="44.84452" lon="6.14641">
        <ele>1972</ele>
        <time>2024-08-13T11:56:36Z</time>
      </trkpt>
      <trkpt lat="44.84452" lon="6.14641">
        <ele>1972</ele>
        <time>2024-08-13T11:56:37Z</time>
      </trkpt>
      <trkpt lat="44.84452" lon="6.14641">
        <ele>1972</ele>
        <time>2024-08-13T11:56:38Z</time>
      </trkpt>
      <trkpt lat="44.84455" lon="6.14644">
        <ele>1972</ele>
        <time>2024-08-13T11:56:39Z</time>
      </trkpt>
      <trkpt lat="44.84457" lon="6.14646">
        <ele>1972.2</ele>
        <time>2024-08-13T11:56:40Z</time>
      </trkpt>
      <trkpt lat="44.84457" lon="6.14646">
        <ele>1972.2</ele>
        <time>2024-08-13T11:56:41Z</time>
      </trkpt>
      <trkpt lat="44.84459" lon="6.14646">
        <ele>1972.2</ele>
        <time>2024-08-13T11:56:42Z</time>
      </trkpt>
      <trkpt lat="44.84459" lon="6.14646">
        <ele>1972</ele>
        <time>2024-08-13T11:56:43Z</time>
      </trkpt>
      <trkpt lat="44.84459" lon="6.14646">
        <ele>1972</ele>
        <time>2024-08-13T11:56:44Z</time>
      </trkpt>
      <trkpt lat="44.84457" lon="6.14644">
        <ele>1972</ele>
        <time>2024-08-13T11:56:45Z</time>
      </trkpt>
      <trkpt lat="44.84457" lon="6.14644">
        <ele>1972.2</ele>
        <time>2024-08-13T11:56:46Z</time>
      </trkpt>
      <trkpt lat="44.84457" lon="6.14644">
        <ele>1972.2</ele>
        <time>2024-08-13T11:56:47Z</time>
      </trkpt>
      <trkpt lat="44.84457" lon="6.14644">
        <ele>1972.2</ele>
        <time>2024-08-13T11:56:48Z</time>
      </trkpt>
      <trkpt lat="44.84457" lon="6.14644">
        <ele>1972.2</ele>
        <time>2024-08-13T11:56:49Z</time>
      </trkpt>
      <trkpt lat="44.84457" lon="6.14644">
        <ele>1972</ele>
        <time>2024-08-13T11:56:50Z</time>
      </trkpt>
      <trkpt lat="44.84457" lon="6.14644">
        <ele>1972</ele>
        <time>2024-08-13T11:56:51Z</time>
      </trkpt>
      <trkpt lat="44.84457" lon="6.14644">
        <ele>1972</ele>
        <time>2024-08-13T11:56:52Z</time>
      </trkpt>
      <trkpt lat="44.84457" lon="6.14644">
        <ele>1972</ele>
        <time>2024-08-13T11:56:53Z</time>
      </trkpt>
      <trkpt lat="44.84457" lon="6.14644">
        <ele>1972</ele>
        <time>2024-08-13T11:56:54Z</time>
      </trkpt>
      <trkpt lat="44.84457" lon="6.14644">
        <ele>1972</ele>
        <time>2024-08-13T11:56:55Z</time>
      </trkpt>
      <trkpt lat="44.84457" lon="6.14644">
        <ele>1972</ele>
        <time>2024-08-13T11:56:56Z</time>
      </trkpt>
      <trkpt lat="44.84457" lon="6.14644">
        <ele>1972.2</ele>
        <time>2024-08-13T11:56:57Z</time>
      </trkpt>
      <trkpt lat="44.84457" lon="6.14644">
        <ele>1972.2</ele>
        <time>2024-08-13T11:56:58Z</time>
      </trkpt>
      <trkpt lat="44.84457" lon="6.14644">
        <ele>1972.2</ele>
        <time>2024-08-13T11:56:59Z</time>
      </trkpt>
      <trkpt lat="44.84457" lon="6.14644">
        <ele>1972.2</ele>
        <time>2024-08-13T11:57:00Z</time>
      </trkpt>
      <trkpt lat="44.84457" lon="6.14644">
        <ele>1972.2</ele>
        <time>2024-08-13T11:57:01Z</time>
      </trkpt>
      <trkpt lat="44.84457" lon="6.14644">
        <ele>1972</ele>
        <time>2024-08-13T11:57:02Z</time>
      </trkpt>
      <trkpt lat="44.84457" lon="6.14644">
        <ele>1972</ele>
        <time>2024-08-13T11:57:03Z</time>
      </trkpt>
      <trkpt lat="44.84457" lon="6.14644">
        <ele>1972</ele>
        <time>2024-08-13T11:57:04Z</time>
      </trkpt>
      <trkpt lat="44.84457" lon="6.14644">
        <ele>1971.8</ele>
        <time>2024-08-13T11:57:05Z</time>
      </trkpt>
      <trkpt lat="44.84457" lon="6.14644">
        <ele>1971.8</ele>
        <time>2024-08-13T11:57:06Z</time>
      </trkpt>
      <trkpt lat="44.84457" lon="6.14644">
        <ele>1971.8</ele>
        <time>2024-08-13T11:57:07Z</time>
      </trkpt>
      <trkpt lat="44.84457" lon="6.14644">
        <ele>1971.8</ele>
        <time>2024-08-13T11:57:08Z</time>
      </trkpt>
      <trkpt lat="44.84457" lon="6.14644">
        <ele>1971.8</ele>
        <time>2024-08-13T11:57:09Z</time>
      </trkpt>
      <trkpt lat="44.84457" lon="6.14644">
        <ele>1971.8</ele>
        <time>2024-08-13T11:57:10Z</time>
      </trkpt>
      <trkpt lat="44.84457" lon="6.14644">
        <ele>1971.8</ele>
        <time>2024-08-13T11:57:11Z</time>
      </trkpt>
      <trkpt lat="44.84457" lon="6.14644">
        <ele>1971.8</ele>
        <time>2024-08-13T11:57:12Z</time>
      </trkpt>
      <trkpt lat="44.84457" lon="6.14644">
        <ele>1971.8</ele>
        <time>2024-08-13T11:57:13Z</time>
      </trkpt>
      <trkpt lat="44.84457" lon="6.14644">
        <ele>1971.8</ele>
        <time>2024-08-13T11:57:14Z</time>
      </trkpt>
      <trkpt lat="44.84457" lon="6.14644">
        <ele>1971.8</ele>
        <time>2024-08-13T11:57:15Z</time>
      </trkpt>
      <trkpt lat="44.84457" lon="6.14644">
        <ele>1971.8</ele>
        <time>2024-08-13T11:57:16Z</time>
      </trkpt>
      <trkpt lat="44.84457" lon="6.14644">
        <ele>1971.8</ele>
        <time>2024-08-13T11:57:17Z</time>
      </trkpt>
      <trkpt lat="44.84457" lon="6.14644">
        <ele>1971.8</ele>
        <time>2024-08-13T11:57:18Z</time>
      </trkpt>
      <trkpt lat="44.84457" lon="6.14644">
        <ele>1971.8</ele>
        <time>2024-08-13T11:57:19Z</time>
      </trkpt>
      <trkpt lat="44.84457" lon="6.14644">
        <ele>1971.6</ele>
        <time>2024-08-13T11:57:20Z</time>
      </trkpt>
      <trkpt lat="44.84457" lon="6.14644">
        <ele>1971.6</ele>
        <time>2024-08-13T11:57:21Z</time>
      </trkpt>
      <trkpt lat="44.84457" lon="6.14644">
        <ele>1971.6</ele>
        <time>2024-08-13T11:57:22Z</time>
      </trkpt>
      <trkpt lat="44.84457" lon="6.14644">
        <ele>1971.6</ele>
        <time>2024-08-13T11:57:23Z</time>
      </trkpt>
      <trkpt lat="44.84457" lon="6.14644">
        <ele>1971.6</ele>
        <time>2024-08-13T11:57:24Z</time>
      </trkpt>
      <trkpt lat="44.84457" lon="6.14644">
        <ele>1971.8</ele>
        <time>2024-08-13T11:57:25Z</time>
      </trkpt>
      <trkpt lat="44.84457" lon="6.14644">
        <ele>1971.8</ele>
        <time>2024-08-13T11:57:26Z</time>
      </trkpt>
      <trkpt lat="44.84457" lon="6.14644">
        <ele>1971.8</ele>
        <time>2024-08-13T11:57:27Z</time>
      </trkpt>
      <trkpt lat="44.84457" lon="6.14644">
        <ele>1971.8</ele>
        <time>2024-08-13T11:57:28Z</time>
      </trkpt>
      <trkpt lat="44.84457" lon="6.14644">
        <ele>1971.8</ele>
        <time>2024-08-13T11:57:29Z</time>
      </trkpt>
      <trkpt lat="44.84457" lon="6.14644">
        <ele>1971.6</ele>
        <time>2024-08-13T11:57:30Z</time>
      </trkpt>
      <trkpt lat="44.84457" lon="6.14644">
        <ele>1971.6</ele>
        <time>2024-08-13T11:57:31Z</time>
      </trkpt>
      <trkpt lat="44.84457" lon="6.14644">
        <ele>1972</ele>
        <time>2024-08-13T11:57:32Z</time>
      </trkpt>
      <trkpt lat="44.84457" lon="6.14644">
        <ele>1971.8</ele>
        <time>2024-08-13T11:57:33Z</time>
      </trkpt>
      <trkpt lat="44.84457" lon="6.14644">
        <ele>1971.8</ele>
        <time>2024-08-13T11:57:34Z</time>
      </trkpt>
      <trkpt lat="44.84457" lon="6.14644">
        <ele>1971.6</ele>
        <time>2024-08-13T11:57:35Z</time>
      </trkpt>
      <trkpt lat="44.84457" lon="6.14644">
        <ele>1971.6</ele>
        <time>2024-08-13T11:57:36Z</time>
      </trkpt>
      <trkpt lat="44.84457" lon="6.14644">
        <ele>1971.6</ele>
        <time>2024-08-13T11:57:37Z</time>
      </trkpt>
      <trkpt lat="44.84457" lon="6.14644">
        <ele>1971.6</ele>
        <time>2024-08-13T11:57:38Z</time>
      </trkpt>
      <trkpt lat="44.84457" lon="6.14644">
        <ele>1971.6</ele>
        <time>2024-08-13T11:57:39Z</time>
      </trkpt>
      <trkpt lat="44.84457" lon="6.14644">
        <ele>1971.6</ele>
        <time>2024-08-13T11:57:40Z</time>
      </trkpt>
      <trkpt lat="44.84457" lon="6.14644">
        <ele>1971.6</ele>
        <time>2024-08-13T11:57:41Z</time>
      </trkpt>
      <trkpt lat="44.84457" lon="6.14644">
        <ele>1971.4</ele>
        <time>2024-08-13T11:57:42Z</time>
      </trkpt>
      <trkpt lat="44.84457" lon="6.14644">
        <ele>1971.4</ele>
        <time>2024-08-13T11:57:43Z</time>
      </trkpt>
      <trkpt lat="44.84457" lon="6.14644">
        <ele>1971.4</ele>
        <time>2024-08-13T11:57:44Z</time>
      </trkpt>
      <trkpt lat="44.84457" lon="6.14644">
        <ele>1971.6</ele>
        <time>2024-08-13T11:57:45Z</time>
      </trkpt>
      <trkpt lat="44.84457" lon="6.14644">
        <ele>1971.6</ele>
        <time>2024-08-13T11:57:46Z</time>
      </trkpt>
      <trkpt lat="44.84457" lon="6.14644">
        <ele>1971.4</ele>
        <time>2024-08-13T11:57:47Z</time>
      </trkpt>
      <trkpt lat="44.84457" lon="6.14644">
        <ele>1971.2</ele>
        <time>2024-08-13T11:57:48Z</time>
      </trkpt>
      <trkpt lat="44.84457" lon="6.14644">
        <ele>1971.2</ele>
        <time>2024-08-13T11:57:49Z</time>
      </trkpt>
      <trkpt lat="44.84457" lon="6.14644">
        <ele>1971.2</ele>
        <time>2024-08-13T11:57:50Z</time>
      </trkpt>
      <trkpt lat="44.84457" lon="6.14644">
        <ele>1971.2</ele>
        <time>2024-08-13T11:57:51Z</time>
      </trkpt>
      <trkpt lat="44.84457" lon="6.14644">
        <ele>1971.2</ele>
        <time>2024-08-13T11:57:52Z</time>
      </trkpt>
      <trkpt lat="44.84457" lon="6.14644">
        <ele>1971.2</ele>
        <time>2024-08-13T11:57:53Z</time>
      </trkpt>
      <trkpt lat="44.84457" lon="6.14644">
        <ele>1971.2</ele>
        <time>2024-08-13T11:57:54Z</time>
      </trkpt>
      <trkpt lat="44.84457" lon="6.14644">
        <ele>1971.2</ele>
        <time>2024-08-13T11:57:55Z</time>
      </trkpt>
      <trkpt lat="44.84457" lon="6.14644">
        <ele>1971.2</ele>
        <time>2024-08-13T11:57:56Z</time>
      </trkpt>
      <trkpt lat="44.84457" lon="6.14644">
        <ele>1971.2</ele>
        <time>2024-08-13T11:57:57Z</time>
      </trkpt>
      <trkpt lat="44.84457" lon="6.14644">
        <ele>1971.2</ele>
        <time>2024-08-13T11:57:58Z</time>
      </trkpt>
      <trkpt lat="44.84457" lon="6.14644">
        <ele>1971</ele>
        <time>2024-08-13T11:57:59Z</time>
      </trkpt>
      <trkpt lat="44.84457" lon="6.14644">
        <ele>1971</ele>
        <time>2024-08-13T11:58:00Z</time>
      </trkpt>
      <trkpt lat="44.84457" lon="6.14644">
        <ele>1970.8</ele>
        <time>2024-08-13T11:58:01Z</time>
      </trkpt>
      <trkpt lat="44.84457" lon="6.14644">
        <ele>1971</ele>
        <time>2024-08-13T11:58:02Z</time>
      </trkpt>
      <trkpt lat="44.84457" lon="6.14644">
        <ele>1971</ele>
        <time>2024-08-13T11:58:03Z</time>
      </trkpt>
      <trkpt lat="44.84457" lon="6.14644">
        <ele>1971</ele>
        <time>2024-08-13T11:58:04Z</time>
      </trkpt>
      <trkpt lat="44.84457" lon="6.14644">
        <ele>1971</ele>
        <time>2024-08-13T11:58:05Z</time>
      </trkpt>
      <trkpt lat="44.84457" lon="6.14644">
        <ele>1971</ele>
        <time>2024-08-13T11:58:06Z</time>
      </trkpt>
      <trkpt lat="44.84457" lon="6.14644">
        <ele>1971</ele>
        <time>2024-08-13T11:58:07Z</time>
      </trkpt>
      <trkpt lat="44.84457" lon="6.14644">
        <ele>1970.8</ele>
        <time>2024-08-13T11:58:08Z</time>
      </trkpt>
      <trkpt lat="44.84457" lon="6.14644">
        <ele>1970.8</ele>
        <time>2024-08-13T11:58:09Z</time>
      </trkpt>
      <trkpt lat="44.84457" lon="6.14644">
        <ele>1970.8</ele>
        <time>2024-08-13T11:58:10Z</time>
      </trkpt>
      <trkpt lat="44.84457" lon="6.14644">
        <ele>1970.8</ele>
        <time>2024-08-13T11:58:11Z</time>
      </trkpt>
      <trkpt lat="44.84457" lon="6.14644">
        <ele>1970.8</ele>
        <time>2024-08-13T11:58:12Z</time>
      </trkpt>
      <trkpt lat="44.84457" lon="6.14644">
        <ele>1970.8</ele>
        <time>2024-08-13T11:58:13Z</time>
      </trkpt>
      <trkpt lat="44.84457" lon="6.14644">
        <ele>1970.8</ele>
        <time>2024-08-13T11:58:14Z</time>
      </trkpt>
      <trkpt lat="44.84457" lon="6.14644">
        <ele>1970.8</ele>
        <time>2024-08-13T11:58:15Z</time>
      </trkpt>
      <trkpt lat="44.84457" lon="6.14644">
        <ele>1970.8</ele>
        <time>2024-08-13T11:58:16Z</time>
      </trkpt>
      <trkpt lat="44.84457" lon="6.14644">
        <ele>1970.8</ele>
        <time>2024-08-13T11:58:17Z</time>
      </trkpt>
      <trkpt lat="44.84457" lon="6.14644">
        <ele>1970.8</ele>
        <time>2024-08-13T11:58:18Z</time>
      </trkpt>
      <trkpt lat="44.84457" lon="6.14644">
        <ele>1970.6</ele>
        <time>2024-08-13T11:58:19Z</time>
      </trkpt>
      <trkpt lat="44.84457" lon="6.14644">
        <ele>1970.6</ele>
        <time>2024-08-13T11:58:20Z</time>
      </trkpt>
      <trkpt lat="44.84457" lon="6.14644">
        <ele>1970.6</ele>
        <time>2024-08-13T11:58:21Z</time>
      </trkpt>
      <trkpt lat="44.84457" lon="6.14644">
        <ele>1970.6</ele>
        <time>2024-08-13T11:58:22Z</time>
      </trkpt>
      <trkpt lat="44.84457" lon="6.14644">
        <ele>1970.6</ele>
        <time>2024-08-13T11:58:23Z</time>
      </trkpt>
      <trkpt lat="44.84457" lon="6.14644">
        <ele>1970.8</ele>
        <time>2024-08-13T11:58:24Z</time>
      </trkpt>
      <trkpt lat="44.84457" lon="6.14644">
        <ele>1970.6</ele>
        <time>2024-08-13T11:58:25Z</time>
      </trkpt>
      <trkpt lat="44.84457" lon="6.14644">
        <ele>1970.6</ele>
        <time>2024-08-13T11:58:26Z</time>
      </trkpt>
      <trkpt lat="44.84457" lon="6.14644">
        <ele>1970.6</ele>
        <time>2024-08-13T11:58:27Z</time>
      </trkpt>
      <trkpt lat="44.84457" lon="6.14644">
        <ele>1970.6</ele>
        <time>2024-08-13T11:58:28Z</time>
      </trkpt>
      <trkpt lat="44.84457" lon="6.14644">
        <ele>1970.6</ele>
        <time>2024-08-13T11:58:29Z</time>
      </trkpt>
      <trkpt lat="44.84457" lon="6.14644">
        <ele>1970.4</ele>
        <time>2024-08-13T11:58:30Z</time>
      </trkpt>
      <trkpt lat="44.84457" lon="6.14644">
        <ele>1970.4</ele>
        <time>2024-08-13T11:58:31Z</time>
      </trkpt>
      <trkpt lat="44.84457" lon="6.14644">
        <ele>1970.4</ele>
        <time>2024-08-13T11:58:32Z</time>
      </trkpt>
      <trkpt lat="44.84457" lon="6.14644">
        <ele>1970.4</ele>
        <time>2024-08-13T11:58:33Z</time>
      </trkpt>
      <trkpt lat="44.84457" lon="6.14644">
        <ele>1970.4</ele>
        <time>2024-08-13T11:58:34Z</time>
      </trkpt>
      <trkpt lat="44.84457" lon="6.14644">
        <ele>1970.4</ele>
        <time>2024-08-13T11:58:35Z</time>
      </trkpt>
      <trkpt lat="44.84457" lon="6.14644">
        <ele>1970.4</ele>
        <time>2024-08-13T11:58:36Z</time>
      </trkpt>
      <trkpt lat="44.84457" lon="6.14644">
        <ele>1970.4</ele>
        <time>2024-08-13T11:58:37Z</time>
      </trkpt>
      <trkpt lat="44.84457" lon="6.14644">
        <ele>1970.4</ele>
        <time>2024-08-13T11:58:38Z</time>
      </trkpt>
      <trkpt lat="44.84457" lon="6.14644">
        <ele>1970.4</ele>
        <time>2024-08-13T11:58:39Z</time>
      </trkpt>
      <trkpt lat="44.84457" lon="6.14644">
        <ele>1970.6</ele>
        <time>2024-08-13T11:58:40Z</time>
      </trkpt>
      <trkpt lat="44.84457" lon="6.14644">
        <ele>1970.6</ele>
        <time>2024-08-13T11:58:41Z</time>
      </trkpt>
      <trkpt lat="44.84457" lon="6.14644">
        <ele>1970.6</ele>
        <time>2024-08-13T11:58:42Z</time>
      </trkpt>
      <trkpt lat="44.84457" lon="6.14644">
        <ele>1970.6</ele>
        <time>2024-08-13T11:58:43Z</time>
      </trkpt>
      <trkpt lat="44.84457" lon="6.14644">
        <ele>1970.4</ele>
        <time>2024-08-13T11:58:44Z</time>
      </trkpt>
      <trkpt lat="44.84457" lon="6.14644">
        <ele>1970.4</ele>
        <time>2024-08-13T11:58:45Z</time>
      </trkpt>
      <trkpt lat="44.84457" lon="6.14644">
        <ele>1970.4</ele>
        <time>2024-08-13T11:58:46Z</time>
      </trkpt>
      <trkpt lat="44.84457" lon="6.14644">
        <ele>1970.4</ele>
        <time>2024-08-13T11:58:47Z</time>
      </trkpt>
      <trkpt lat="44.84457" lon="6.14644">
        <ele>1970.4</ele>
        <time>2024-08-13T11:58:48Z</time>
      </trkpt>
      <trkpt lat="44.84457" lon="6.14644">
        <ele>1970.2</ele>
        <time>2024-08-13T11:58:49Z</time>
      </trkpt>
      <trkpt lat="44.84457" lon="6.14644">
        <ele>1970.2</ele>
        <time>2024-08-13T11:58:50Z</time>
      </trkpt>
      <trkpt lat="44.84457" lon="6.14644">
        <ele>1970.2</ele>
        <time>2024-08-13T11:58:51Z</time>
      </trkpt>
      <trkpt lat="44.84457" lon="6.14644">
        <ele>1970.4</ele>
        <time>2024-08-13T11:58:52Z</time>
      </trkpt>
      <trkpt lat="44.84457" lon="6.14644">
        <ele>1970.4</ele>
        <time>2024-08-13T11:58:53Z</time>
      </trkpt>
      <trkpt lat="44.84457" lon="6.14644">
        <ele>1970.4</ele>
        <time>2024-08-13T11:58:54Z</time>
      </trkpt>
      <trkpt lat="44.84457" lon="6.14644">
        <ele>1970.2</ele>
        <time>2024-08-13T11:58:55Z</time>
      </trkpt>
      <trkpt lat="44.84457" lon="6.14644">
        <ele>1970.2</ele>
        <time>2024-08-13T11:58:56Z</time>
      </trkpt>
      <trkpt lat="44.84457" lon="6.14644">
        <ele>1970.2</ele>
        <time>2024-08-13T11:58:57Z</time>
      </trkpt>
      <trkpt lat="44.84457" lon="6.14644">
        <ele>1970.4</ele>
        <time>2024-08-13T11:58:58Z</time>
      </trkpt>
      <trkpt lat="44.84457" lon="6.14644">
        <ele>1970.4</ele>
        <time>2024-08-13T11:58:59Z</time>
      </trkpt>
      <trkpt lat="44.84457" lon="6.14644">
        <ele>1970.4</ele>
        <time>2024-08-13T11:59:00Z</time>
      </trkpt>
      <trkpt lat="44.84457" lon="6.14644">
        <ele>1970.4</ele>
        <time>2024-08-13T11:59:01Z</time>
      </trkpt>
      <trkpt lat="44.84457" lon="6.14644">
        <ele>1970.4</ele>
        <time>2024-08-13T11:59:02Z</time>
      </trkpt>
      <trkpt lat="44.84457" lon="6.14644">
        <ele>1970.4</ele>
        <time>2024-08-13T11:59:03Z</time>
      </trkpt>
      <trkpt lat="44.84457" lon="6.14644">
        <ele>1970.2</ele>
        <time>2024-08-13T11:59:04Z</time>
      </trkpt>
      <trkpt lat="44.84457" lon="6.14644">
        <ele>1970.2</ele>
        <time>2024-08-13T11:59:05Z</time>
      </trkpt>
      <trkpt lat="44.84457" lon="6.14644">
        <ele>1970</ele>
        <time>2024-08-13T11:59:06Z</time>
      </trkpt>
      <trkpt lat="44.84457" lon="6.14644">
        <ele>1970</ele>
        <time>2024-08-13T11:59:07Z</time>
      </trkpt>
      <trkpt lat="44.84457" lon="6.14644">
        <ele>1970</ele>
        <time>2024-08-13T11:59:08Z</time>
      </trkpt>
      <trkpt lat="44.84457" lon="6.14644">
        <ele>1970</ele>
        <time>2024-08-13T11:59:09Z</time>
      </trkpt>
      <trkpt lat="44.84457" lon="6.14644">
        <ele>1970</ele>
        <time>2024-08-13T11:59:10Z</time>
      </trkpt>
      <trkpt lat="44.84457" lon="6.14644">
        <ele>1970</ele>
        <time>2024-08-13T11:59:11Z</time>
      </trkpt>
      <trkpt lat="44.84457" lon="6.14644">
        <ele>1970</ele>
        <time>2024-08-13T11:59:12Z</time>
      </trkpt>
      <trkpt lat="44.84457" lon="6.14644">
        <ele>1970</ele>
        <time>2024-08-13T11:59:13Z</time>
      </trkpt>
      <trkpt lat="44.84457" lon="6.14644">
        <ele>1970</ele>
        <time>2024-08-13T11:59:14Z</time>
      </trkpt>
      <trkpt lat="44.84457" lon="6.14644">
        <ele>1970.2</ele>
        <time>2024-08-13T11:59:15Z</time>
      </trkpt>
      <trkpt lat="44.84457" lon="6.14644">
        <ele>1970.2</ele>
        <time>2024-08-13T11:59:16Z</time>
      </trkpt>
      <trkpt lat="44.84457" lon="6.14644">
        <ele>1970.2</ele>
        <time>2024-08-13T11:59:17Z</time>
      </trkpt>
      <trkpt lat="44.84457" lon="6.14644">
        <ele>1970.2</ele>
        <time>2024-08-13T11:59:18Z</time>
      </trkpt>
      <trkpt lat="44.84457" lon="6.14644">
        <ele>1970.2</ele>
        <time>2024-08-13T11:59:19Z</time>
      </trkpt>
      <trkpt lat="44.84457" lon="6.14644">
        <ele>1969.8</ele>
        <time>2024-08-13T11:59:20Z</time>
      </trkpt>
      <trkpt lat="44.84457" lon="6.14644">
        <ele>1969.8</ele>
        <time>2024-08-13T11:59:21Z</time>
      </trkpt>
      <trkpt lat="44.84457" lon="6.14644">
        <ele>1969.8</ele>
        <time>2024-08-13T11:59:22Z</time>
      </trkpt>
      <trkpt lat="44.84457" lon="6.14644">
        <ele>1970</ele>
        <time>2024-08-13T11:59:23Z</time>
      </trkpt>
      <trkpt lat="44.84457" lon="6.14644">
        <ele>1970</ele>
        <time>2024-08-13T11:59:24Z</time>
      </trkpt>
      <trkpt lat="44.84457" lon="6.14644">
        <ele>1969.6</ele>
        <time>2024-08-13T11:59:25Z</time>
      </trkpt>
      <trkpt lat="44.84457" lon="6.14644">
        <ele>1969.6</ele>
        <time>2024-08-13T11:59:26Z</time>
      </trkpt>
      <trkpt lat="44.84457" lon="6.14644">
        <ele>1969.8</ele>
        <time>2024-08-13T11:59:27Z</time>
      </trkpt>
      <trkpt lat="44.84457" lon="6.14644">
        <ele>1969.8</ele>
        <time>2024-08-13T11:59:28Z</time>
      </trkpt>
      <trkpt lat="44.84457" lon="6.14644">
        <ele>1969.6</ele>
        <time>2024-08-13T11:59:29Z</time>
      </trkpt>
      <trkpt lat="44.84457" lon="6.14644">
        <ele>1969.6</ele>
        <time>2024-08-13T11:59:30Z</time>
      </trkpt>
      <trkpt lat="44.84457" lon="6.14644">
        <ele>1969.6</ele>
        <time>2024-08-13T11:59:31Z</time>
      </trkpt>
      <trkpt lat="44.84457" lon="6.14644">
        <ele>1969.6</ele>
        <time>2024-08-13T11:59:32Z</time>
      </trkpt>
      <trkpt lat="44.84457" lon="6.14644">
        <ele>1969.6</ele>
        <time>2024-08-13T11:59:33Z</time>
      </trkpt>
      <trkpt lat="44.84457" lon="6.14644">
        <ele>1969.6</ele>
        <time>2024-08-13T11:59:34Z</time>
      </trkpt>
      <trkpt lat="44.84457" lon="6.14644">
        <ele>1969.6</ele>
        <time>2024-08-13T11:59:35Z</time>
      </trkpt>
      <trkpt lat="44.84457" lon="6.14644">
        <ele>1969.6</ele>
        <time>2024-08-13T11:59:36Z</time>
      </trkpt>
      <trkpt lat="44.84457" lon="6.14644">
        <ele>1969.6</ele>
        <time>2024-08-13T11:59:37Z</time>
      </trkpt>
      <trkpt lat="44.84457" lon="6.14644">
        <ele>1969.6</ele>
        <time>2024-08-13T11:59:38Z</time>
      </trkpt>
      <trkpt lat="44.84457" lon="6.14644">
        <ele>1969.6</ele>
        <time>2024-08-13T11:59:39Z</time>
      </trkpt>
      <trkpt lat="44.84457" lon="6.14644">
        <ele>1969.6</ele>
        <time>2024-08-13T11:59:40Z</time>
      </trkpt>
      <trkpt lat="44.84457" lon="6.14644">
        <ele>1969.6</ele>
        <time>2024-08-13T11:59:41Z</time>
      </trkpt>
      <trkpt lat="44.84457" lon="6.14644">
        <ele>1969.6</ele>
        <time>2024-08-13T11:59:42Z</time>
      </trkpt>
      <trkpt lat="44.84457" lon="6.14644">
        <ele>1969.6</ele>
        <time>2024-08-13T11:59:43Z</time>
      </trkpt>
      <trkpt lat="44.84457" lon="6.14644">
        <ele>1969.6</ele>
        <time>2024-08-13T11:59:44Z</time>
      </trkpt>
      <trkpt lat="44.84457" lon="6.14644">
        <ele>1969.6</ele>
        <time>2024-08-13T11:59:45Z</time>
      </trkpt>
      <trkpt lat="44.84457" lon="6.14644">
        <ele>1969.4</ele>
        <time>2024-08-13T11:59:46Z</time>
      </trkpt>
      <trkpt lat="44.84457" lon="6.14644">
        <ele>1969.4</ele>
        <time>2024-08-13T11:59:47Z</time>
      </trkpt>
      <trkpt lat="44.84457" lon="6.14644">
        <ele>1969.4</ele>
        <time>2024-08-13T11:59:48Z</time>
      </trkpt>
      <trkpt lat="44.84457" lon="6.14644">
        <ele>1969.6</ele>
        <time>2024-08-13T11:59:49Z</time>
      </trkpt>
      <trkpt lat="44.84457" lon="6.14644">
        <ele>1969.6</ele>
        <time>2024-08-13T11:59:50Z</time>
      </trkpt>
      <trkpt lat="44.84457" lon="6.14644">
        <ele>1969.4</ele>
        <time>2024-08-13T11:59:51Z</time>
      </trkpt>
      <trkpt lat="44.84457" lon="6.14644">
        <ele>1969.4</ele>
        <time>2024-08-13T11:59:52Z</time>
      </trkpt>
      <trkpt lat="44.84457" lon="6.14644">
        <ele>1969.4</ele>
        <time>2024-08-13T11:59:53Z</time>
      </trkpt>
      <trkpt lat="44.84457" lon="6.14644">
        <ele>1969.4</ele>
        <time>2024-08-13T11:59:54Z</time>
      </trkpt>
      <trkpt lat="44.84457" lon="6.14644">
        <ele>1969.4</ele>
        <time>2024-08-13T11:59:55Z</time>
      </trkpt>
      <trkpt lat="44.84457" lon="6.14644">
        <ele>1969.2</ele>
        <time>2024-08-13T11:59:56Z</time>
      </trkpt>
      <trkpt lat="44.84457" lon="6.14644">
        <ele>1969.2</ele>
        <time>2024-08-13T11:59:57Z</time>
      </trkpt>
      <trkpt lat="44.84457" lon="6.14644">
        <ele>1969.2</ele>
        <time>2024-08-13T11:59:58Z</time>
      </trkpt>
      <trkpt lat="44.84457" lon="6.14644">
        <ele>1969.4</ele>
        <time>2024-08-13T11:59:59Z</time>
      </trkpt>
      <trkpt lat="44.84457" lon="6.14644">
        <ele>1969.4</ele>
        <time>2024-08-13T12:00:00Z</time>
      </trkpt>
      <trkpt lat="44.84457" lon="6.14644">
        <ele>1969.2</ele>
        <time>2024-08-13T12:00:01Z</time>
      </trkpt>
      <trkpt lat="44.84457" lon="6.14644">
        <ele>1969.2</ele>
        <time>2024-08-13T12:00:02Z</time>
      </trkpt>
      <trkpt lat="44.84457" lon="6.14644">
        <ele>1969.4</ele>
        <time>2024-08-13T12:00:03Z</time>
      </trkpt>
      <trkpt lat="44.84457" lon="6.14644">
        <ele>1969.4</ele>
        <time>2024-08-13T12:00:04Z</time>
      </trkpt>
      <trkpt lat="44.84457" lon="6.14644">
        <ele>1969.4</ele>
        <time>2024-08-13T12:00:05Z</time>
      </trkpt>
      <trkpt lat="44.84457" lon="6.14644">
        <ele>1969.4</ele>
        <time>2024-08-13T12:00:06Z</time>
      </trkpt>
      <trkpt lat="44.84457" lon="6.14644">
        <ele>1969.4</ele>
        <time>2024-08-13T12:00:07Z</time>
      </trkpt>
      <trkpt lat="44.84457" lon="6.14644">
        <ele>1969.4</ele>
        <time>2024-08-13T12:00:08Z</time>
      </trkpt>
      <trkpt lat="44.84457" lon="6.14644">
        <ele>1969.2</ele>
        <time>2024-08-13T12:00:09Z</time>
      </trkpt>
      <trkpt lat="44.84457" lon="6.14644">
        <ele>1969.2</ele>
        <time>2024-08-13T12:00:10Z</time>
      </trkpt>
      <trkpt lat="44.84457" lon="6.14644">
        <ele>1969.2</ele>
        <time>2024-08-13T12:00:11Z</time>
      </trkpt>
      <trkpt lat="44.84457" lon="6.14644">
        <ele>1969.4</ele>
        <time>2024-08-13T12:00:12Z</time>
      </trkpt>
      <trkpt lat="44.84457" lon="6.14644">
        <ele>1969.4</ele>
        <time>2024-08-13T12:00:13Z</time>
      </trkpt>
      <trkpt lat="44.84457" lon="6.14644">
        <ele>1969.4</ele>
        <time>2024-08-13T12:00:14Z</time>
      </trkpt>
      <trkpt lat="44.84457" lon="6.14644">
        <ele>1969.2</ele>
        <time>2024-08-13T12:00:15Z</time>
      </trkpt>
      <trkpt lat="44.84457" lon="6.14644">
        <ele>1969.2</ele>
        <time>2024-08-13T12:00:16Z</time>
      </trkpt>
      <trkpt lat="44.84457" lon="6.14644">
        <ele>1969</ele>
        <time>2024-08-13T12:00:17Z</time>
      </trkpt>
      <trkpt lat="44.84457" lon="6.14644">
        <ele>1969</ele>
        <time>2024-08-13T12:00:18Z</time>
      </trkpt>
      <trkpt lat="44.84457" lon="6.14644">
        <ele>1969</ele>
        <time>2024-08-13T12:00:19Z</time>
      </trkpt>
      <trkpt lat="44.84457" lon="6.14644">
        <ele>1969</ele>
        <time>2024-08-13T12:00:20Z</time>
      </trkpt>
      <trkpt lat="44.84457" lon="6.14644">
        <ele>1969</ele>
        <time>2024-08-13T12:00:21Z</time>
      </trkpt>
      <trkpt lat="44.84457" lon="6.14644">
        <ele>1969</ele>
        <time>2024-08-13T12:00:22Z</time>
      </trkpt>
      <trkpt lat="44.84457" lon="6.14644">
        <ele>1969</ele>
        <time>2024-08-13T12:00:23Z</time>
      </trkpt>
      <trkpt lat="44.84457" lon="6.14644">
        <ele>1969</ele>
        <time>2024-08-13T12:00:24Z</time>
      </trkpt>
      <trkpt lat="44.84457" lon="6.14644">
        <ele>1969.2</ele>
        <time>2024-08-13T12:00:25Z</time>
      </trkpt>
      <trkpt lat="44.84457" lon="6.14644">
        <ele>1969.2</ele>
        <time>2024-08-13T12:00:26Z</time>
      </trkpt>
      <trkpt lat="44.84457" lon="6.14644">
        <ele>1969</ele>
        <time>2024-08-13T12:00:27Z</time>
      </trkpt>
      <trkpt lat="44.84457" lon="6.14644">
        <ele>1969</ele>
        <time>2024-08-13T12:00:28Z</time>
      </trkpt>
      <trkpt lat="44.84457" lon="6.14644">
        <ele>1969</ele>
        <time>2024-08-13T12:00:29Z</time>
      </trkpt>
      <trkpt lat="44.84457" lon="6.14644">
        <ele>1969</ele>
        <time>2024-08-13T12:00:30Z</time>
      </trkpt>
      <trkpt lat="44.84457" lon="6.14644">
        <ele>1969</ele>
        <time>2024-08-13T12:00:31Z</time>
      </trkpt>
      <trkpt lat="44.84457" lon="6.14644">
        <ele>1969</ele>
        <time>2024-08-13T12:00:32Z</time>
      </trkpt>
      <trkpt lat="44.84457" lon="6.14644">
        <ele>1969</ele>
        <time>2024-08-13T12:00:33Z</time>
      </trkpt>
      <trkpt lat="44.84457" lon="6.14644">
        <ele>1969</ele>
        <time>2024-08-13T12:00:34Z</time>
      </trkpt>
      <trkpt lat="44.84457" lon="6.14644">
        <ele>1969</ele>
        <time>2024-08-13T12:00:35Z</time>
      </trkpt>
      <trkpt lat="44.84457" lon="6.14644">
        <ele>1969</ele>
        <time>2024-08-13T12:00:36Z</time>
      </trkpt>
      <trkpt lat="44.84457" lon="6.14644">
        <ele>1969</ele>
        <time>2024-08-13T12:00:37Z</time>
      </trkpt>
      <trkpt lat="44.84457" lon="6.14644">
        <ele>1969</ele>
        <time>2024-08-13T12:00:38Z</time>
      </trkpt>
      <trkpt lat="44.84457" lon="6.14644">
        <ele>1969</ele>
        <time>2024-08-13T12:00:39Z</time>
      </trkpt>
      <trkpt lat="44.84457" lon="6.14644">
        <ele>1969</ele>
        <time>2024-08-13T12:00:40Z</time>
      </trkpt>
      <trkpt lat="44.84457" lon="6.14644">
        <ele>1969</ele>
        <time>2024-08-13T12:00:41Z</time>
      </trkpt>
      <trkpt lat="44.84457" lon="6.14644">
        <ele>1969</ele>
        <time>2024-08-13T12:00:42Z</time>
      </trkpt>
      <trkpt lat="44.84457" lon="6.14644">
        <ele>1968.8</ele>
        <time>2024-08-13T12:00:43Z</time>
      </trkpt>
      <trkpt lat="44.84457" lon="6.14644">
        <ele>1968.8</ele>
        <time>2024-08-13T12:00:44Z</time>
      </trkpt>
      <trkpt lat="44.84457" lon="6.14644">
        <ele>1968.8</ele>
        <time>2024-08-13T12:00:45Z</time>
      </trkpt>
      <trkpt lat="44.84457" lon="6.14644">
        <ele>1968.6</ele>
        <time>2024-08-13T12:00:46Z</time>
      </trkpt>
      <trkpt lat="44.84457" lon="6.14644">
        <ele>1968.6</ele>
        <time>2024-08-13T12:00:47Z</time>
      </trkpt>
      <trkpt lat="44.84457" lon="6.14644">
        <ele>1968.4</ele>
        <time>2024-08-13T12:00:48Z</time>
      </trkpt>
      <trkpt lat="44.84457" lon="6.14644">
        <ele>1968.2</ele>
        <time>2024-08-13T12:00:49Z</time>
      </trkpt>
      <trkpt lat="44.84457" lon="6.14644">
        <ele>1968.2</ele>
        <time>2024-08-13T12:00:50Z</time>
      </trkpt>
      <trkpt lat="44.84457" lon="6.14644">
        <ele>1968.2</ele>
        <time>2024-08-13T12:00:51Z</time>
      </trkpt>
      <trkpt lat="44.84457" lon="6.14644">
        <ele>1968.4</ele>
        <time>2024-08-13T12:00:52Z</time>
      </trkpt>
      <trkpt lat="44.84457" lon="6.14644">
        <ele>1968.4</ele>
        <time>2024-08-13T12:00:53Z</time>
      </trkpt>
      <trkpt lat="44.84457" lon="6.14644">
        <ele>1968.6</ele>
        <time>2024-08-13T12:00:54Z</time>
      </trkpt>
      <trkpt lat="44.84457" lon="6.14644">
        <ele>1968.6</ele>
        <time>2024-08-13T12:00:55Z</time>
      </trkpt>
      <trkpt lat="44.84457" lon="6.14644">
        <ele>1968.6</ele>
        <time>2024-08-13T12:00:56Z</time>
      </trkpt>
      <trkpt lat="44.84457" lon="6.14644">
        <ele>1968.4</ele>
        <time>2024-08-13T12:00:57Z</time>
      </trkpt>
      <trkpt lat="44.84457" lon="6.14644">
        <ele>1968.6</ele>
        <time>2024-08-13T12:00:58Z</time>
      </trkpt>
      <trkpt lat="44.84457" lon="6.14644">
        <ele>1968.6</ele>
        <time>2024-08-13T12:00:59Z</time>
      </trkpt>
      <trkpt lat="44.84457" lon="6.14644">
        <ele>1968.6</ele>
        <time>2024-08-13T12:01:00Z</time>
      </trkpt>
      <trkpt lat="44.84457" lon="6.14644">
        <ele>1968.6</ele>
        <time>2024-08-13T12:01:01Z</time>
      </trkpt>
      <trkpt lat="44.84457" lon="6.14644">
        <ele>1968.6</ele>
        <time>2024-08-13T12:01:02Z</time>
      </trkpt>
      <trkpt lat="44.84457" lon="6.14644">
        <ele>1968.6</ele>
        <time>2024-08-13T12:01:03Z</time>
      </trkpt>
      <trkpt lat="44.84457" lon="6.14644">
        <ele>1968.8</ele>
        <time>2024-08-13T12:01:04Z</time>
      </trkpt>
      <trkpt lat="44.84457" lon="6.14644">
        <ele>1968.8</ele>
        <time>2024-08-13T12:01:05Z</time>
      </trkpt>
      <trkpt lat="44.84457" lon="6.14644">
        <ele>1968.8</ele>
        <time>2024-08-13T12:01:06Z</time>
      </trkpt>
      <trkpt lat="44.84457" lon="6.14644">
        <ele>1968.8</ele>
        <time>2024-08-13T12:01:07Z</time>
      </trkpt>
      <trkpt lat="44.84457" lon="6.14644">
        <ele>1968.6</ele>
        <time>2024-08-13T12:01:08Z</time>
      </trkpt>
      <trkpt lat="44.84457" lon="6.14644">
        <ele>1968.6</ele>
        <time>2024-08-13T12:01:09Z</time>
      </trkpt>
      <trkpt lat="44.84457" lon="6.14644">
        <ele>1968.6</ele>
        <time>2024-08-13T12:01:10Z</time>
      </trkpt>
      <trkpt lat="44.84457" lon="6.14644">
        <ele>1968.6</ele>
        <time>2024-08-13T12:01:11Z</time>
      </trkpt>
      <trkpt lat="44.84457" lon="6.14644">
        <ele>1968.6</ele>
        <time>2024-08-13T12:01:12Z</time>
      </trkpt>
      <trkpt lat="44.84457" lon="6.14644">
        <ele>1968.6</ele>
        <time>2024-08-13T12:01:13Z</time>
      </trkpt>
      <trkpt lat="44.84457" lon="6.14644">
        <ele>1968.8</ele>
        <time>2024-08-13T12:01:14Z</time>
      </trkpt>
      <trkpt lat="44.84457" lon="6.14644">
        <ele>1968.8</ele>
        <time>2024-08-13T12:01:15Z</time>
      </trkpt>
      <trkpt lat="44.84457" lon="6.14644">
        <ele>1968.6</ele>
        <time>2024-08-13T12:01:16Z</time>
      </trkpt>
      <trkpt lat="44.84457" lon="6.14644">
        <ele>1968.6</ele>
        <time>2024-08-13T12:01:17Z</time>
      </trkpt>
      <trkpt lat="44.84457" lon="6.14644">
        <ele>1968.6</ele>
        <time>2024-08-13T12:01:18Z</time>
      </trkpt>
      <trkpt lat="44.84457" lon="6.14644">
        <ele>1968.8</ele>
        <time>2024-08-13T12:01:19Z</time>
      </trkpt>
      <trkpt lat="44.84457" lon="6.14644">
        <ele>1968.8</ele>
        <time>2024-08-13T12:01:20Z</time>
      </trkpt>
      <trkpt lat="44.84457" lon="6.14644">
        <ele>1968.8</ele>
        <time>2024-08-13T12:01:21Z</time>
      </trkpt>
      <trkpt lat="44.84457" lon="6.14644">
        <ele>1968.6</ele>
        <time>2024-08-13T12:01:22Z</time>
      </trkpt>
      <trkpt lat="44.84457" lon="6.14644">
        <ele>1968.6</ele>
        <time>2024-08-13T12:01:23Z</time>
      </trkpt>
      <trkpt lat="44.84457" lon="6.14644">
        <ele>1968.6</ele>
        <time>2024-08-13T12:01:24Z</time>
      </trkpt>
      <trkpt lat="44.84457" lon="6.14644">
        <ele>1968.6</ele>
        <time>2024-08-13T12:01:25Z</time>
      </trkpt>
      <trkpt lat="44.84457" lon="6.14644">
        <ele>1968.6</ele>
        <time>2024-08-13T12:01:26Z</time>
      </trkpt>
      <trkpt lat="44.84457" lon="6.14644">
        <ele>1968.4</ele>
        <time>2024-08-13T12:01:27Z</time>
      </trkpt>
      <trkpt lat="44.84457" lon="6.14644">
        <ele>1968.4</ele>
        <time>2024-08-13T12:01:28Z</time>
      </trkpt>
      <trkpt lat="44.84457" lon="6.14644">
        <ele>1968.4</ele>
        <time>2024-08-13T12:01:29Z</time>
      </trkpt>
      <trkpt lat="44.84457" lon="6.14644">
        <ele>1968.4</ele>
        <time>2024-08-13T12:01:30Z</time>
      </trkpt>
      <trkpt lat="44.84457" lon="6.14644">
        <ele>1968.4</ele>
        <time>2024-08-13T12:01:31Z</time>
      </trkpt>
      <trkpt lat="44.84457" lon="6.14644">
        <ele>1968.4</ele>
        <time>2024-08-13T12:01:32Z</time>
      </trkpt>
      <trkpt lat="44.84457" lon="6.14644">
        <ele>1968.4</ele>
        <time>2024-08-13T12:01:33Z</time>
      </trkpt>
      <trkpt lat="44.84457" lon="6.14644">
        <ele>1968.6</ele>
        <time>2024-08-13T12:01:34Z</time>
      </trkpt>
      <trkpt lat="44.84457" lon="6.14644">
        <ele>1968.6</ele>
        <time>2024-08-13T12:01:35Z</time>
      </trkpt>
      <trkpt lat="44.84457" lon="6.14644">
        <ele>1968.6</ele>
        <time>2024-08-13T12:01:36Z</time>
      </trkpt>
      <trkpt lat="44.84457" lon="6.14644">
        <ele>1968.6</ele>
        <time>2024-08-13T12:01:37Z</time>
      </trkpt>
      <trkpt lat="44.84457" lon="6.14644">
        <ele>1968.6</ele>
        <time>2024-08-13T12:01:38Z</time>
      </trkpt>
      <trkpt lat="44.84457" lon="6.14644">
        <ele>1968.6</ele>
        <time>2024-08-13T12:01:39Z</time>
      </trkpt>
      <trkpt lat="44.84457" lon="6.14644">
        <ele>1968.6</ele>
        <time>2024-08-13T12:01:40Z</time>
      </trkpt>
      <trkpt lat="44.84457" lon="6.14644">
        <ele>1968.6</ele>
        <time>2024-08-13T12:01:41Z</time>
      </trkpt>
      <trkpt lat="44.84457" lon="6.14644">
        <ele>1968.6</ele>
        <time>2024-08-13T12:01:42Z</time>
      </trkpt>
      <trkpt lat="44.84457" lon="6.14644">
        <ele>1968.6</ele>
        <time>2024-08-13T12:01:43Z</time>
      </trkpt>
      <trkpt lat="44.84457" lon="6.14644">
        <ele>1968.6</ele>
        <time>2024-08-13T12:01:44Z</time>
      </trkpt>
      <trkpt lat="44.84457" lon="6.14644">
        <ele>1968.6</ele>
        <time>2024-08-13T12:01:45Z</time>
      </trkpt>
      <trkpt lat="44.84457" lon="6.14644">
        <ele>1968.6</ele>
        <time>2024-08-13T12:01:46Z</time>
      </trkpt>
      <trkpt lat="44.84457" lon="6.14644">
        <ele>1968.6</ele>
        <time>2024-08-13T12:01:47Z</time>
      </trkpt>
      <trkpt lat="44.84457" lon="6.14644">
        <ele>1968.4</ele>
        <time>2024-08-13T12:01:48Z</time>
      </trkpt>
      <trkpt lat="44.84457" lon="6.14644">
        <ele>1968.4</ele>
        <time>2024-08-13T12:01:49Z</time>
      </trkpt>
      <trkpt lat="44.84457" lon="6.14644">
        <ele>1968.4</ele>
        <time>2024-08-13T12:01:50Z</time>
      </trkpt>
      <trkpt lat="44.84457" lon="6.14644">
        <ele>1968.4</ele>
        <time>2024-08-13T12:01:51Z</time>
      </trkpt>
      <trkpt lat="44.84457" lon="6.14644">
        <ele>1968.4</ele>
        <time>2024-08-13T12:01:52Z</time>
      </trkpt>
      <trkpt lat="44.84457" lon="6.14644">
        <ele>1968.4</ele>
        <time>2024-08-13T12:01:53Z</time>
      </trkpt>
      <trkpt lat="44.84457" lon="6.14644">
        <ele>1968.4</ele>
        <time>2024-08-13T12:01:54Z</time>
      </trkpt>
      <trkpt lat="44.84457" lon="6.14644">
        <ele>1968.4</ele>
        <time>2024-08-13T12:01:55Z</time>
      </trkpt>
      <trkpt lat="44.84457" lon="6.14644">
        <ele>1968.6</ele>
        <time>2024-08-13T12:01:56Z</time>
      </trkpt>
      <trkpt lat="44.84457" lon="6.14644">
        <ele>1968.6</ele>
        <time>2024-08-13T12:01:57Z</time>
      </trkpt>
      <trkpt lat="44.84457" lon="6.14644">
        <ele>1968.4</ele>
        <time>2024-08-13T12:01:58Z</time>
      </trkpt>
      <trkpt lat="44.84457" lon="6.14644">
        <ele>1968.4</ele>
        <time>2024-08-13T12:01:59Z</time>
      </trkpt>
      <trkpt lat="44.84457" lon="6.14644">
        <ele>1968.8</ele>
        <time>2024-08-13T12:02:00Z</time>
      </trkpt>
      <trkpt lat="44.84457" lon="6.14644">
        <ele>1968.8</ele>
        <time>2024-08-13T12:02:01Z</time>
      </trkpt>
      <trkpt lat="44.84454" lon="6.14645">
        <ele>1968.8</ele>
        <time>2024-08-13T12:02:02Z</time>
      </trkpt>
      <trkpt lat="44.84453" lon="6.14647">
        <ele>1968.8</ele>
        <time>2024-08-13T12:02:03Z</time>
      </trkpt>
      <trkpt lat="44.84453" lon="6.14647">
        <ele>1968.8</ele>
        <time>2024-08-13T12:02:04Z</time>
      </trkpt>
      <trkpt lat="44.84454" lon="6.14646">
        <ele>1968.8</ele>
        <time>2024-08-13T12:02:05Z</time>
      </trkpt>
      <trkpt lat="44.84455" lon="6.14646">
        <ele>1968.6</ele>
        <time>2024-08-13T12:02:06Z</time>
      </trkpt>
      <trkpt lat="44.84456" lon="6.14646">
        <ele>1968.6</ele>
        <time>2024-08-13T12:02:07Z</time>
      </trkpt>
      <trkpt lat="44.84457" lon="6.14645">
        <ele>1968.6</ele>
        <time>2024-08-13T12:02:08Z</time>
      </trkpt>
      <trkpt lat="44.84458" lon="6.14645">
        <ele>1968.6</ele>
        <time>2024-08-13T12:02:09Z</time>
      </trkpt>
      <trkpt lat="44.8446" lon="6.14644">
        <ele>1968.6</ele>
        <time>2024-08-13T12:02:10Z</time>
      </trkpt>
      <trkpt lat="44.84461" lon="6.14644">
        <ele>1968.8</ele>
        <time>2024-08-13T12:02:11Z</time>
      </trkpt>
      <trkpt lat="44.84462" lon="6.14644">
        <ele>1968.8</ele>
        <time>2024-08-13T12:02:12Z</time>
      </trkpt>
      <trkpt lat="44.84463" lon="6.14643">
        <ele>1968.8</ele>
        <time>2024-08-13T12:02:13Z</time>
      </trkpt>
      <trkpt lat="44.84464" lon="6.14643">
        <ele>1968.8</ele>
        <time>2024-08-13T12:02:14Z</time>
      </trkpt>
      <trkpt lat="44.84465" lon="6.14643">
        <ele>1969</ele>
        <time>2024-08-13T12:02:15Z</time>
      </trkpt>
      <trkpt lat="44.84466" lon="6.14642">
        <ele>1969</ele>
        <time>2024-08-13T12:02:16Z</time>
      </trkpt>
      <trkpt lat="44.84468" lon="6.14642">
        <ele>1969</ele>
        <time>2024-08-13T12:02:17Z</time>
      </trkpt>
      <trkpt lat="44.84469" lon="6.14641">
        <ele>1969.2</ele>
        <time>2024-08-13T12:02:18Z</time>
      </trkpt>
      <trkpt lat="44.8447" lon="6.14641">
        <ele>1969.2</ele>
        <time>2024-08-13T12:02:19Z</time>
      </trkpt>
      <trkpt lat="44.84471" lon="6.14641">
        <ele>1969</ele>
        <time>2024-08-13T12:02:20Z</time>
      </trkpt>
      <trkpt lat="44.84472" lon="6.1464">
        <ele>1969</ele>
        <time>2024-08-13T12:02:21Z</time>
      </trkpt>
      <trkpt lat="44.84473" lon="6.1464">
        <ele>1969</ele>
        <time>2024-08-13T12:02:22Z</time>
      </trkpt>
      <trkpt lat="44.84474" lon="6.1464">
        <ele>1968.8</ele>
        <time>2024-08-13T12:02:23Z</time>
      </trkpt>
      <trkpt lat="44.84475" lon="6.14639">
        <ele>1968.8</ele>
        <time>2024-08-13T12:02:24Z</time>
      </trkpt>
      <trkpt lat="44.84477" lon="6.14639">
        <ele>1968.8</ele>
        <time>2024-08-13T12:02:25Z</time>
      </trkpt>
      <trkpt lat="44.84478" lon="6.14637">
        <ele>1968.8</ele>
        <time>2024-08-13T12:02:26Z</time>
      </trkpt>
      <trkpt lat="44.84478" lon="6.14637">
        <ele>1968.8</ele>
        <time>2024-08-13T12:02:27Z</time>
      </trkpt>
      <trkpt lat="44.84478" lon="6.14637">
        <ele>1968.8</ele>
        <time>2024-08-13T12:02:28Z</time>
      </trkpt>
      <trkpt lat="44.84478" lon="6.14637">
        <ele>1968.8</ele>
        <time>2024-08-13T12:02:29Z</time>
      </trkpt>
      <trkpt lat="44.8448" lon="6.14638">
        <ele>1968.8</ele>
        <time>2024-08-13T12:02:30Z</time>
      </trkpt>
      <trkpt lat="44.8448" lon="6.14638">
        <ele>1969</ele>
        <time>2024-08-13T12:02:31Z</time>
      </trkpt>
      <trkpt lat="44.8448" lon="6.14638">
        <ele>1969</ele>
        <time>2024-08-13T12:02:32Z</time>
      </trkpt>
      <trkpt lat="44.8448" lon="6.14638">
        <ele>1969</ele>
        <time>2024-08-13T12:02:33Z</time>
      </trkpt>
      <trkpt lat="44.8448" lon="6.14638">
        <ele>1969</ele>
        <time>2024-08-13T12:02:34Z</time>
      </trkpt>
      <trkpt lat="44.8448" lon="6.14638">
        <ele>1969</ele>
        <time>2024-08-13T12:02:35Z</time>
      </trkpt>
      <trkpt lat="44.8448" lon="6.14638">
        <ele>1969.2</ele>
        <time>2024-08-13T12:02:36Z</time>
      </trkpt>
      <trkpt lat="44.8448" lon="6.14638">
        <ele>1969.2</ele>
        <time>2024-08-13T12:02:37Z</time>
      </trkpt>
      <trkpt lat="44.8448" lon="6.14638">
        <ele>1969.2</ele>
        <time>2024-08-13T12:02:38Z</time>
      </trkpt>
      <trkpt lat="44.8448" lon="6.14638">
        <ele>1969.2</ele>
        <time>2024-08-13T12:02:39Z</time>
      </trkpt>
      <trkpt lat="44.8448" lon="6.14638">
        <ele>1969.2</ele>
        <time>2024-08-13T12:02:40Z</time>
      </trkpt>
      <trkpt lat="44.8448" lon="6.14638">
        <ele>1969.2</ele>
        <time>2024-08-13T12:02:41Z</time>
      </trkpt>
      <trkpt lat="44.8448" lon="6.14638">
        <ele>1969.2</ele>
        <time>2024-08-13T12:02:42Z</time>
      </trkpt>
      <trkpt lat="44.8448" lon="6.14638">
        <ele>1969.2</ele>
        <time>2024-08-13T12:02:43Z</time>
      </trkpt>
      <trkpt lat="44.8448" lon="6.14638">
        <ele>1969.2</ele>
        <time>2024-08-13T12:02:44Z</time>
      </trkpt>
      <trkpt lat="44.8448" lon="6.14638">
        <ele>1969</ele>
        <time>2024-08-13T12:02:45Z</time>
      </trkpt>
      <trkpt lat="44.8448" lon="6.14638">
        <ele>1969</ele>
        <time>2024-08-13T12:02:46Z</time>
      </trkpt>
      <trkpt lat="44.8448" lon="6.14638">
        <ele>1969</ele>
        <time>2024-08-13T12:02:47Z</time>
      </trkpt>
      <trkpt lat="44.8448" lon="6.14638">
        <ele>1969</ele>
        <time>2024-08-13T12:02:48Z</time>
      </trkpt>
      <trkpt lat="44.8448" lon="6.14638">
        <ele>1969</ele>
        <time>2024-08-13T12:02:49Z</time>
      </trkpt>
      <trkpt lat="44.8448" lon="6.14638">
        <ele>1969</ele>
        <time>2024-08-13T12:02:50Z</time>
      </trkpt>
      <trkpt lat="44.8448" lon="6.14638">
        <ele>1969</ele>
        <time>2024-08-13T12:02:51Z</time>
      </trkpt>
      <trkpt lat="44.8448" lon="6.14638">
        <ele>1969.2</ele>
        <time>2024-08-13T12:02:52Z</time>
      </trkpt>
      <trkpt lat="44.8448" lon="6.14638">
        <ele>1969.2</ele>
        <time>2024-08-13T12:02:53Z</time>
      </trkpt>
      <trkpt lat="44.8448" lon="6.14638">
        <ele>1969</ele>
        <time>2024-08-13T12:02:54Z</time>
      </trkpt>
      <trkpt lat="44.8448" lon="6.14638">
        <ele>1969</ele>
        <time>2024-08-13T12:02:55Z</time>
      </trkpt>
      <trkpt lat="44.8448" lon="6.14638">
        <ele>1969</ele>
        <time>2024-08-13T12:02:56Z</time>
      </trkpt>
      <trkpt lat="44.8448" lon="6.14638">
        <ele>1969</ele>
        <time>2024-08-13T12:02:57Z</time>
      </trkpt>
      <trkpt lat="44.8448" lon="6.14638">
        <ele>1969.2</ele>
        <time>2024-08-13T12:02:58Z</time>
      </trkpt>
      <trkpt lat="44.8448" lon="6.14638">
        <ele>1969.2</ele>
        <time>2024-08-13T12:02:59Z</time>
      </trkpt>
      <trkpt lat="44.8448" lon="6.14638">
        <ele>1969.2</ele>
        <time>2024-08-13T12:03:00Z</time>
      </trkpt>
      <trkpt lat="44.8448" lon="6.14638">
        <ele>1969.2</ele>
        <time>2024-08-13T12:03:01Z</time>
      </trkpt>
      <trkpt lat="44.8448" lon="6.14638">
        <ele>1969.2</ele>
        <time>2024-08-13T12:03:02Z</time>
      </trkpt>
      <trkpt lat="44.8448" lon="6.14638">
        <ele>1969.2</ele>
        <time>2024-08-13T12:03:03Z</time>
      </trkpt>
      <trkpt lat="44.8448" lon="6.14638">
        <ele>1969.2</ele>
        <time>2024-08-13T12:03:04Z</time>
      </trkpt>
      <trkpt lat="44.8448" lon="6.14638">
        <ele>1969</ele>
        <time>2024-08-13T12:03:05Z</time>
      </trkpt>
      <trkpt lat="44.8448" lon="6.14638">
        <ele>1969</ele>
        <time>2024-08-13T12:03:06Z</time>
      </trkpt>
      <trkpt lat="44.8448" lon="6.14638">
        <ele>1969.2</ele>
        <time>2024-08-13T12:03:07Z</time>
      </trkpt>
      <trkpt lat="44.8448" lon="6.14638">
        <ele>1969.6</ele>
        <time>2024-08-13T12:03:08Z</time>
      </trkpt>
      <trkpt lat="44.8448" lon="6.14638">
        <ele>1969.6</ele>
        <time>2024-08-13T12:03:09Z</time>
      </trkpt>
      <trkpt lat="44.8448" lon="6.14638">
        <ele>1969.2</ele>
        <time>2024-08-13T12:03:10Z</time>
      </trkpt>
      <trkpt lat="44.8448" lon="6.14638">
        <ele>1969.2</ele>
        <time>2024-08-13T12:03:11Z</time>
      </trkpt>
      <trkpt lat="44.8448" lon="6.14638">
        <ele>1969.2</ele>
        <time>2024-08-13T12:03:12Z</time>
      </trkpt>
      <trkpt lat="44.8448" lon="6.14638">
        <ele>1969.2</ele>
        <time>2024-08-13T12:03:13Z</time>
      </trkpt>
      <trkpt lat="44.8448" lon="6.14638">
        <ele>1969.2</ele>
        <time>2024-08-13T12:03:14Z</time>
      </trkpt>
      <trkpt lat="44.8448" lon="6.14638">
        <ele>1969.2</ele>
        <time>2024-08-13T12:03:15Z</time>
      </trkpt>
      <trkpt lat="44.8448" lon="6.14638">
        <ele>1969.2</ele>
        <time>2024-08-13T12:03:16Z</time>
      </trkpt>
      <trkpt lat="44.8448" lon="6.14638">
        <ele>1969.2</ele>
        <time>2024-08-13T12:03:17Z</time>
      </trkpt>
      <trkpt lat="44.8448" lon="6.14638">
        <ele>1969.2</ele>
        <time>2024-08-13T12:03:18Z</time>
      </trkpt>
      <trkpt lat="44.8448" lon="6.14638">
        <ele>1969.2</ele>
        <time>2024-08-13T12:03:19Z</time>
      </trkpt>
      <trkpt lat="44.8448" lon="6.14638">
        <ele>1969.2</ele>
        <time>2024-08-13T12:03:20Z</time>
      </trkpt>
      <trkpt lat="44.8448" lon="6.14638">
        <ele>1969</ele>
        <time>2024-08-13T12:03:21Z</time>
      </trkpt>
      <trkpt lat="44.8448" lon="6.14638">
        <ele>1968.8</ele>
        <time>2024-08-13T12:03:22Z</time>
      </trkpt>
      <trkpt lat="44.8448" lon="6.14641">
        <ele>1968.8</ele>
        <time>2024-08-13T12:03:23Z</time>
      </trkpt>
      <trkpt lat="44.8448" lon="6.14641">
        <ele>1968.8</ele>
        <time>2024-08-13T12:03:24Z</time>
      </trkpt>
      <trkpt lat="44.8448" lon="6.14645">
        <ele>1968.8</ele>
        <time>2024-08-13T12:03:25Z</time>
      </trkpt>
      <trkpt lat="44.8448" lon="6.14645">
        <ele>1968.6</ele>
        <time>2024-08-13T12:03:26Z</time>
      </trkpt>
      <trkpt lat="44.84479" lon="6.14647">
        <ele>1968.6</ele>
        <time>2024-08-13T12:03:27Z</time>
      </trkpt>
      <trkpt lat="44.84479" lon="6.14647">
        <ele>1968.6</ele>
        <time>2024-08-13T12:03:28Z</time>
      </trkpt>
      <trkpt lat="44.84479" lon="6.14647">
        <ele>1968.6</ele>
        <time>2024-08-13T12:03:29Z</time>
      </trkpt>
      <trkpt lat="44.84479" lon="6.14647">
        <ele>1968.4</ele>
        <time>2024-08-13T12:03:30Z</time>
      </trkpt>
      <trkpt lat="44.84478" lon="6.14644">
        <ele>1968.4</ele>
        <time>2024-08-13T12:03:31Z</time>
      </trkpt>
      <trkpt lat="44.84478" lon="6.14644">
        <ele>1968.6</ele>
        <time>2024-08-13T12:03:32Z</time>
      </trkpt>
      <trkpt lat="44.84478" lon="6.14644">
        <ele>1968.6</ele>
        <time>2024-08-13T12:03:33Z</time>
      </trkpt>
      <trkpt lat="44.84478" lon="6.14644">
        <ele>1968.4</ele>
        <time>2024-08-13T12:03:34Z</time>
      </trkpt>
      <trkpt lat="44.84478" lon="6.14644">
        <ele>1968.4</ele>
        <time>2024-08-13T12:03:35Z</time>
      </trkpt>
      <trkpt lat="44.84478" lon="6.14644">
        <ele>1968.2</ele>
        <time>2024-08-13T12:03:36Z</time>
      </trkpt>
      <trkpt lat="44.84478" lon="6.14644">
        <ele>1968.2</ele>
        <time>2024-08-13T12:03:37Z</time>
      </trkpt>
      <trkpt lat="44.84478" lon="6.14644">
        <ele>1968.2</ele>
        <time>2024-08-13T12:03:38Z</time>
      </trkpt>
      <trkpt lat="44.84478" lon="6.14644">
        <ele>1968.2</ele>
        <time>2024-08-13T12:03:39Z</time>
      </trkpt>
      <trkpt lat="44.84478" lon="6.14644">
        <ele>1968.4</ele>
        <time>2024-08-13T12:03:40Z</time>
      </trkpt>
      <trkpt lat="44.84478" lon="6.14644">
        <ele>1968.4</ele>
        <time>2024-08-13T12:03:41Z</time>
      </trkpt>
      <trkpt lat="44.84478" lon="6.14644">
        <ele>1968.4</ele>
        <time>2024-08-13T12:03:42Z</time>
      </trkpt>
      <trkpt lat="44.84478" lon="6.14644">
        <ele>1968.6</ele>
        <time>2024-08-13T12:03:43Z</time>
      </trkpt>
      <trkpt lat="44.84478" lon="6.14644">
        <ele>1968.8</ele>
        <time>2024-08-13T12:03:44Z</time>
      </trkpt>
      <trkpt lat="44.84478" lon="6.14644">
        <ele>1968.8</ele>
        <time>2024-08-13T12:03:45Z</time>
      </trkpt>
      <trkpt lat="44.84478" lon="6.14644">
        <ele>1968.6</ele>
        <time>2024-08-13T12:03:46Z</time>
      </trkpt>
      <trkpt lat="44.84478" lon="6.14644">
        <ele>1968.6</ele>
        <time>2024-08-13T12:03:47Z</time>
      </trkpt>
      <trkpt lat="44.84478" lon="6.14644">
        <ele>1968.6</ele>
        <time>2024-08-13T12:03:48Z</time>
      </trkpt>
      <trkpt lat="44.84478" lon="6.14644">
        <ele>1969</ele>
        <time>2024-08-13T12:03:49Z</time>
      </trkpt>
      <trkpt lat="44.84478" lon="6.14644">
        <ele>1969</ele>
        <time>2024-08-13T12:03:50Z</time>
      </trkpt>
      <trkpt lat="44.84478" lon="6.14644">
        <ele>1968.8</ele>
        <time>2024-08-13T12:03:51Z</time>
      </trkpt>
      <trkpt lat="44.84478" lon="6.14644">
        <ele>1968.8</ele>
        <time>2024-08-13T12:03:52Z</time>
      </trkpt>
      <trkpt lat="44.84478" lon="6.14644">
        <ele>1968.6</ele>
        <time>2024-08-13T12:03:53Z</time>
      </trkpt>
      <trkpt lat="44.84478" lon="6.14644">
        <ele>1968.6</ele>
        <time>2024-08-13T12:03:54Z</time>
      </trkpt>
      <trkpt lat="44.84478" lon="6.14644">
        <ele>1968.6</ele>
        <time>2024-08-13T12:03:55Z</time>
      </trkpt>
      <trkpt lat="44.84478" lon="6.14644">
        <ele>1968.6</ele>
        <time>2024-08-13T12:03:56Z</time>
      </trkpt>
      <trkpt lat="44.84478" lon="6.14644">
        <ele>1968.6</ele>
        <time>2024-08-13T12:03:57Z</time>
      </trkpt>
      <trkpt lat="44.84478" lon="6.14644">
        <ele>1968.6</ele>
        <time>2024-08-13T12:03:58Z</time>
      </trkpt>
      <trkpt lat="44.84478" lon="6.14644">
        <ele>1968.6</ele>
        <time>2024-08-13T12:03:59Z</time>
      </trkpt>
      <trkpt lat="44.84478" lon="6.14644">
        <ele>1968.6</ele>
        <time>2024-08-13T12:04:00Z</time>
      </trkpt>
      <trkpt lat="44.84478" lon="6.14644">
        <ele>1969</ele>
        <time>2024-08-13T12:04:01Z</time>
      </trkpt>
      <trkpt lat="44.84478" lon="6.14644">
        <ele>1969.4</ele>
        <time>2024-08-13T12:04:02Z</time>
      </trkpt>
      <trkpt lat="44.84478" lon="6.14644">
        <ele>1969.4</ele>
        <time>2024-08-13T12:04:03Z</time>
      </trkpt>
      <trkpt lat="44.84478" lon="6.14644">
        <ele>1969.4</ele>
        <time>2024-08-13T12:04:04Z</time>
      </trkpt>
      <trkpt lat="44.84478" lon="6.14644">
        <ele>1969.4</ele>
        <time>2024-08-13T12:04:05Z</time>
      </trkpt>
      <trkpt lat="44.84478" lon="6.14644">
        <ele>1969.2</ele>
        <time>2024-08-13T12:04:06Z</time>
      </trkpt>
      <trkpt lat="44.84478" lon="6.14644">
        <ele>1969.2</ele>
        <time>2024-08-13T12:04:07Z</time>
      </trkpt>
      <trkpt lat="44.84478" lon="6.14644">
        <ele>1969</ele>
        <time>2024-08-13T12:04:08Z</time>
      </trkpt>
      <trkpt lat="44.84478" lon="6.14644">
        <ele>1969.2</ele>
        <time>2024-08-13T12:04:09Z</time>
      </trkpt>
      <trkpt lat="44.84478" lon="6.14644">
        <ele>1969.2</ele>
        <time>2024-08-13T12:04:10Z</time>
      </trkpt>
      <trkpt lat="44.84478" lon="6.14644">
        <ele>1969.4</ele>
        <time>2024-08-13T12:04:11Z</time>
      </trkpt>
      <trkpt lat="44.84478" lon="6.14644">
        <ele>1969.4</ele>
        <time>2024-08-13T12:04:12Z</time>
      </trkpt>
      <trkpt lat="44.84478" lon="6.14644">
        <ele>1969.4</ele>
        <time>2024-08-13T12:04:13Z</time>
      </trkpt>
      <trkpt lat="44.84478" lon="6.14644">
        <ele>1969.4</ele>
        <time>2024-08-13T12:04:14Z</time>
      </trkpt>
      <trkpt lat="44.84478" lon="6.14644">
        <ele>1969.6</ele>
        <time>2024-08-13T12:04:15Z</time>
      </trkpt>
      <trkpt lat="44.84478" lon="6.14644">
        <ele>1969.4</ele>
        <time>2024-08-13T12:04:16Z</time>
      </trkpt>
      <trkpt lat="44.84478" lon="6.14644">
        <ele>1969.4</ele>
        <time>2024-08-13T12:04:17Z</time>
      </trkpt>
      <trkpt lat="44.84478" lon="6.14644">
        <ele>1969.4</ele>
        <time>2024-08-13T12:04:18Z</time>
      </trkpt>
      <trkpt lat="44.84478" lon="6.14644">
        <ele>1969.4</ele>
        <time>2024-08-13T12:04:19Z</time>
      </trkpt>
      <trkpt lat="44.84478" lon="6.14644">
        <ele>1969.4</ele>
        <time>2024-08-13T12:04:20Z</time>
      </trkpt>
      <trkpt lat="44.84478" lon="6.14644">
        <ele>1969.4</ele>
        <time>2024-08-13T12:04:21Z</time>
      </trkpt>
      <trkpt lat="44.84478" lon="6.14644">
        <ele>1969.6</ele>
        <time>2024-08-13T12:04:22Z</time>
      </trkpt>
      <trkpt lat="44.84478" lon="6.14644">
        <ele>1969.8</ele>
        <time>2024-08-13T12:04:23Z</time>
      </trkpt>
      <trkpt lat="44.84478" lon="6.14644">
        <ele>1969.8</ele>
        <time>2024-08-13T12:04:24Z</time>
      </trkpt>
      <trkpt lat="44.84478" lon="6.14644">
        <ele>1969.6</ele>
        <time>2024-08-13T12:04:25Z</time>
      </trkpt>
      <trkpt lat="44.84478" lon="6.14644">
        <ele>1969.6</ele>
        <time>2024-08-13T12:04:26Z</time>
      </trkpt>
      <trkpt lat="44.84478" lon="6.14644">
        <ele>1969.6</ele>
        <time>2024-08-13T12:04:27Z</time>
      </trkpt>
      <trkpt lat="44.84478" lon="6.14644">
        <ele>1969.6</ele>
        <time>2024-08-13T12:04:28Z</time>
      </trkpt>
      <trkpt lat="44.84478" lon="6.14644">
        <ele>1969.6</ele>
        <time>2024-08-13T12:04:29Z</time>
      </trkpt>
      <trkpt lat="44.84478" lon="6.14644">
        <ele>1969.6</ele>
        <time>2024-08-13T12:04:30Z</time>
      </trkpt>
      <trkpt lat="44.84478" lon="6.14644">
        <ele>1969.8</ele>
        <time>2024-08-13T12:04:31Z</time>
      </trkpt>
      <trkpt lat="44.84478" lon="6.14644">
        <ele>1969.8</ele>
        <time>2024-08-13T12:04:32Z</time>
      </trkpt>
      <trkpt lat="44.84478" lon="6.14644">
        <ele>1969.8</ele>
        <time>2024-08-13T12:04:33Z</time>
      </trkpt>
      <trkpt lat="44.84478" lon="6.14644">
        <ele>1969.8</ele>
        <time>2024-08-13T12:04:34Z</time>
      </trkpt>
      <trkpt lat="44.84478" lon="6.14644">
        <ele>1970</ele>
        <time>2024-08-13T12:04:35Z</time>
      </trkpt>
      <trkpt lat="44.84478" lon="6.14644">
        <ele>1970</ele>
        <time>2024-08-13T12:04:36Z</time>
      </trkpt>
      <trkpt lat="44.84478" lon="6.14644">
        <ele>1970</ele>
        <time>2024-08-13T12:04:37Z</time>
      </trkpt>
      <trkpt lat="44.84478" lon="6.14644">
        <ele>1970</ele>
        <time>2024-08-13T12:04:38Z</time>
      </trkpt>
      <trkpt lat="44.84478" lon="6.14644">
        <ele>1970.2</ele>
        <time>2024-08-13T12:04:39Z</time>
      </trkpt>
      <trkpt lat="44.84478" lon="6.14644">
        <ele>1970.4</ele>
        <time>2024-08-13T12:04:40Z</time>
      </trkpt>
      <trkpt lat="44.84478" lon="6.14644">
        <ele>1970.4</ele>
        <time>2024-08-13T12:04:41Z</time>
      </trkpt>
      <trkpt lat="44.84478" lon="6.14644">
        <ele>1970.4</ele>
        <time>2024-08-13T12:04:42Z</time>
      </trkpt>
      <trkpt lat="44.84478" lon="6.14644">
        <ele>1970.4</ele>
        <time>2024-08-13T12:04:43Z</time>
      </trkpt>
      <trkpt lat="44.84478" lon="6.14644">
        <ele>1970.6</ele>
        <time>2024-08-13T12:04:44Z</time>
      </trkpt>
      <trkpt lat="44.84478" lon="6.14644">
        <ele>1970.6</ele>
        <time>2024-08-13T12:04:45Z</time>
      </trkpt>
      <trkpt lat="44.84478" lon="6.14644">
        <ele>1970.4</ele>
        <time>2024-08-13T12:04:46Z</time>
      </trkpt>
      <trkpt lat="44.84478" lon="6.14644">
        <ele>1970.6</ele>
        <time>2024-08-13T12:04:47Z</time>
      </trkpt>
      <trkpt lat="44.84478" lon="6.14644">
        <ele>1970.6</ele>
        <time>2024-08-13T12:04:48Z</time>
      </trkpt>
      <trkpt lat="44.84478" lon="6.14644">
        <ele>1970.4</ele>
        <time>2024-08-13T12:04:49Z</time>
      </trkpt>
      <trkpt lat="44.84478" lon="6.14644">
        <ele>1970.4</ele>
        <time>2024-08-13T12:04:50Z</time>
      </trkpt>
      <trkpt lat="44.84478" lon="6.14644">
        <ele>1970.4</ele>
        <time>2024-08-13T12:04:51Z</time>
      </trkpt>
      <trkpt lat="44.84478" lon="6.14644">
        <ele>1970.4</ele>
        <time>2024-08-13T12:04:52Z</time>
      </trkpt>
      <trkpt lat="44.84478" lon="6.14644">
        <ele>1970.4</ele>
        <time>2024-08-13T12:04:53Z</time>
      </trkpt>
      <trkpt lat="44.84478" lon="6.14644">
        <ele>1970.6</ele>
        <time>2024-08-13T12:04:54Z</time>
      </trkpt>
      <trkpt lat="44.84478" lon="6.14644">
        <ele>1970.4</ele>
        <time>2024-08-13T12:04:55Z</time>
      </trkpt>
      <trkpt lat="44.84478" lon="6.14644">
        <ele>1970.6</ele>
        <time>2024-08-13T12:04:56Z</time>
      </trkpt>
      <trkpt lat="44.84478" lon="6.14644">
        <ele>1970.6</ele>
        <time>2024-08-13T12:04:57Z</time>
      </trkpt>
      <trkpt lat="44.84478" lon="6.14644">
        <ele>1970.6</ele>
        <time>2024-08-13T12:04:58Z</time>
      </trkpt>
      <trkpt lat="44.84478" lon="6.14644">
        <ele>1970.6</ele>
        <time>2024-08-13T12:04:59Z</time>
      </trkpt>
      <trkpt lat="44.84478" lon="6.14644">
        <ele>1970.8</ele>
        <time>2024-08-13T12:05:00Z</time>
      </trkpt>
      <trkpt lat="44.84478" lon="6.14644">
        <ele>1971</ele>
        <time>2024-08-13T12:05:01Z</time>
      </trkpt>
      <trkpt lat="44.84478" lon="6.14644">
        <ele>1971</ele>
        <time>2024-08-13T12:05:02Z</time>
      </trkpt>
      <trkpt lat="44.84478" lon="6.14644">
        <ele>1971</ele>
        <time>2024-08-13T12:05:03Z</time>
      </trkpt>
      <trkpt lat="44.84478" lon="6.14644">
        <ele>1971</ele>
        <time>2024-08-13T12:05:04Z</time>
      </trkpt>
      <trkpt lat="44.84478" lon="6.14644">
        <ele>1971</ele>
        <time>2024-08-13T12:05:05Z</time>
      </trkpt>
      <trkpt lat="44.84478" lon="6.14644">
        <ele>1970.8</ele>
        <time>2024-08-13T12:05:06Z</time>
      </trkpt>
      <trkpt lat="44.84478" lon="6.14644">
        <ele>1970.8</ele>
        <time>2024-08-13T12:05:07Z</time>
      </trkpt>
      <trkpt lat="44.84478" lon="6.14644">
        <ele>1970.8</ele>
        <time>2024-08-13T12:05:08Z</time>
      </trkpt>
      <trkpt lat="44.84478" lon="6.14644">
        <ele>1971.4</ele>
        <time>2024-08-13T12:05:09Z</time>
      </trkpt>
      <trkpt lat="44.84478" lon="6.14644">
        <ele>1971.4</ele>
        <time>2024-08-13T12:05:10Z</time>
      </trkpt>
      <trkpt lat="44.84478" lon="6.14644">
        <ele>1971.4</ele>
        <time>2024-08-13T12:05:11Z</time>
      </trkpt>
      <trkpt lat="44.84478" lon="6.14644">
        <ele>1971.4</ele>
        <time>2024-08-13T12:05:12Z</time>
      </trkpt>
      <trkpt lat="44.84478" lon="6.14644">
        <ele>1971.4</ele>
        <time>2024-08-13T12:05:13Z</time>
      </trkpt>
      <trkpt lat="44.84478" lon="6.14644">
        <ele>1971.2</ele>
        <time>2024-08-13T12:05:14Z</time>
      </trkpt>
      <trkpt lat="44.84478" lon="6.14644">
        <ele>1971.2</ele>
        <time>2024-08-13T12:05:15Z</time>
      </trkpt>
      <trkpt lat="44.84478" lon="6.14644">
        <ele>1971.2</ele>
        <time>2024-08-13T12:05:16Z</time>
      </trkpt>
      <trkpt lat="44.84478" lon="6.14644">
        <ele>1971.8</ele>
        <time>2024-08-13T12:05:17Z</time>
      </trkpt>
      <trkpt lat="44.84478" lon="6.14644">
        <ele>1971.8</ele>
        <time>2024-08-13T12:05:18Z</time>
      </trkpt>
      <trkpt lat="44.84478" lon="6.14644">
        <ele>1971.6</ele>
        <time>2024-08-13T12:05:19Z</time>
      </trkpt>
      <trkpt lat="44.84478" lon="6.14644">
        <ele>1971.4</ele>
        <time>2024-08-13T12:05:20Z</time>
      </trkpt>
      <trkpt lat="44.84478" lon="6.14644">
        <ele>1971.4</ele>
        <time>2024-08-13T12:05:21Z</time>
      </trkpt>
      <trkpt lat="44.84478" lon="6.14644">
        <ele>1971.4</ele>
        <time>2024-08-13T12:05:22Z</time>
      </trkpt>
      <trkpt lat="44.84478" lon="6.14644">
        <ele>1971.4</ele>
        <time>2024-08-13T12:05:23Z</time>
      </trkpt>
      <trkpt lat="44.84478" lon="6.14644">
        <ele>1971.8</ele>
        <time>2024-08-13T12:05:24Z</time>
      </trkpt>
      <trkpt lat="44.84478" lon="6.14644">
        <ele>1971.8</ele>
        <time>2024-08-13T12:05:25Z</time>
      </trkpt>
      <trkpt lat="44.84478" lon="6.14644">
        <ele>1971.8</ele>
        <time>2024-08-13T12:05:26Z</time>
      </trkpt>
      <trkpt lat="44.84478" lon="6.14644">
        <ele>1971.6</ele>
        <time>2024-08-13T12:05:27Z</time>
      </trkpt>
      <trkpt lat="44.84478" lon="6.14644">
        <ele>1971.6</ele>
        <time>2024-08-13T12:05:28Z</time>
      </trkpt>
      <trkpt lat="44.84478" lon="6.14644">
        <ele>1971.4</ele>
        <time>2024-08-13T12:05:29Z</time>
      </trkpt>
      <trkpt lat="44.84478" lon="6.14644">
        <ele>1971.4</ele>
        <time>2024-08-13T12:05:30Z</time>
      </trkpt>
      <trkpt lat="44.84478" lon="6.14644">
        <ele>1971.4</ele>
        <time>2024-08-13T12:05:31Z</time>
      </trkpt>
      <trkpt lat="44.84478" lon="6.14644">
        <ele>1971.4</ele>
        <time>2024-08-13T12:05:32Z</time>
      </trkpt>
      <trkpt lat="44.84478" lon="6.14644">
        <ele>1971.6</ele>
        <time>2024-08-13T12:05:33Z</time>
      </trkpt>
      <trkpt lat="44.84478" lon="6.14644">
        <ele>1971.6</ele>
        <time>2024-08-13T12:05:34Z</time>
      </trkpt>
      <trkpt lat="44.84478" lon="6.14644">
        <ele>1971.6</ele>
        <time>2024-08-13T12:05:35Z</time>
      </trkpt>
      <trkpt lat="44.84478" lon="6.14644">
        <ele>1971.8</ele>
        <time>2024-08-13T12:05:36Z</time>
      </trkpt>
      <trkpt lat="44.84478" lon="6.14644">
        <ele>1971.8</ele>
        <time>2024-08-13T12:05:37Z</time>
      </trkpt>
      <trkpt lat="44.84478" lon="6.14644">
        <ele>1971.8</ele>
        <time>2024-08-13T12:05:38Z</time>
      </trkpt>
      <trkpt lat="44.84478" lon="6.14644">
        <ele>1971.6</ele>
        <time>2024-08-13T12:05:39Z</time>
      </trkpt>
      <trkpt lat="44.84478" lon="6.14644">
        <ele>1971.8</ele>
        <time>2024-08-13T12:05:40Z</time>
      </trkpt>
      <trkpt lat="44.84478" lon="6.14644">
        <ele>1971.8</ele>
        <time>2024-08-13T12:05:41Z</time>
      </trkpt>
      <trkpt lat="44.84478" lon="6.14644">
        <ele>1972</ele>
        <time>2024-08-13T12:05:42Z</time>
      </trkpt>
      <trkpt lat="44.84478" lon="6.14644">
        <ele>1972</ele>
        <time>2024-08-13T12:05:43Z</time>
      </trkpt>
      <trkpt lat="44.84478" lon="6.14644">
        <ele>1972</ele>
        <time>2024-08-13T12:05:44Z</time>
      </trkpt>
      <trkpt lat="44.84478" lon="6.14644">
        <ele>1971.8</ele>
        <time>2024-08-13T12:05:45Z</time>
      </trkpt>
      <trkpt lat="44.84478" lon="6.14644">
        <ele>1971.8</ele>
        <time>2024-08-13T12:05:46Z</time>
      </trkpt>
      <trkpt lat="44.84478" lon="6.14644">
        <ele>1972</ele>
        <time>2024-08-13T12:05:47Z</time>
      </trkpt>
      <trkpt lat="44.84478" lon="6.14644">
        <ele>1972</ele>
        <time>2024-08-13T12:05:48Z</time>
      </trkpt>
      <trkpt lat="44.84478" lon="6.14644">
        <ele>1972</ele>
        <time>2024-08-13T12:05:49Z</time>
      </trkpt>
      <trkpt lat="44.84478" lon="6.14644">
        <ele>1972</ele>
        <time>2024-08-13T12:05:50Z</time>
      </trkpt>
      <trkpt lat="44.84478" lon="6.14644">
        <ele>1972</ele>
        <time>2024-08-13T12:05:51Z</time>
      </trkpt>
      <trkpt lat="44.84478" lon="6.14644">
        <ele>1972.2</ele>
        <time>2024-08-13T12:05:52Z</time>
      </trkpt>
      <trkpt lat="44.84478" lon="6.14644">
        <ele>1972.2</ele>
        <time>2024-08-13T12:05:53Z</time>
      </trkpt>
      <trkpt lat="44.84478" lon="6.14644">
        <ele>1972.4</ele>
        <time>2024-08-13T12:05:54Z</time>
      </trkpt>
      <trkpt lat="44.84478" lon="6.14644">
        <ele>1972.4</ele>
        <time>2024-08-13T12:05:55Z</time>
      </trkpt>
      <trkpt lat="44.84478" lon="6.14644">
        <ele>1972.2</ele>
        <time>2024-08-13T12:05:56Z</time>
      </trkpt>
      <trkpt lat="44.84478" lon="6.14644">
        <ele>1972.2</ele>
        <time>2024-08-13T12:05:57Z</time>
      </trkpt>
      <trkpt lat="44.84478" lon="6.14644">
        <ele>1972.2</ele>
        <time>2024-08-13T12:05:58Z</time>
      </trkpt>
      <trkpt lat="44.84478" lon="6.14644">
        <ele>1972</ele>
        <time>2024-08-13T12:05:59Z</time>
      </trkpt>
      <trkpt lat="44.84478" lon="6.14644">
        <ele>1972</ele>
        <time>2024-08-13T12:06:00Z</time>
      </trkpt>
      <trkpt lat="44.84478" lon="6.14644">
        <ele>1972</ele>
        <time>2024-08-13T12:06:01Z</time>
      </trkpt>
      <trkpt lat="44.84478" lon="6.14644">
        <ele>1971.8</ele>
        <time>2024-08-13T12:06:02Z</time>
      </trkpt>
      <trkpt lat="44.84478" lon="6.14644">
        <ele>1971.8</ele>
        <time>2024-08-13T12:06:03Z</time>
      </trkpt>
      <trkpt lat="44.84478" lon="6.14644">
        <ele>1972</ele>
        <time>2024-08-13T12:06:04Z</time>
      </trkpt>
      <trkpt lat="44.84478" lon="6.14644">
        <ele>1972</ele>
        <time>2024-08-13T12:06:05Z</time>
      </trkpt>
      <trkpt lat="44.84478" lon="6.14644">
        <ele>1972.2</ele>
        <time>2024-08-13T12:06:06Z</time>
      </trkpt>
      <trkpt lat="44.84478" lon="6.14644">
        <ele>1972.2</ele>
        <time>2024-08-13T12:06:07Z</time>
      </trkpt>
      <trkpt lat="44.84478" lon="6.14644">
        <ele>1972.2</ele>
        <time>2024-08-13T12:06:08Z</time>
      </trkpt>
      <trkpt lat="44.84478" lon="6.14644">
        <ele>1972.2</ele>
        <time>2024-08-13T12:06:09Z</time>
      </trkpt>
      <trkpt lat="44.84478" lon="6.14644">
        <ele>1972.2</ele>
        <time>2024-08-13T12:06:10Z</time>
      </trkpt>
      <trkpt lat="44.84478" lon="6.14644">
        <ele>1972.2</ele>
        <time>2024-08-13T12:06:11Z</time>
      </trkpt>
      <trkpt lat="44.84478" lon="6.14644">
        <ele>1972.2</ele>
        <time>2024-08-13T12:06:12Z</time>
      </trkpt>
      <trkpt lat="44.84478" lon="6.14644">
        <ele>1972</ele>
        <time>2024-08-13T12:06:13Z</time>
      </trkpt>
      <trkpt lat="44.84478" lon="6.14644">
        <ele>1972</ele>
        <time>2024-08-13T12:06:14Z</time>
      </trkpt>
      <trkpt lat="44.84478" lon="6.14644">
        <ele>1972</ele>
        <time>2024-08-13T12:06:15Z</time>
      </trkpt>
      <trkpt lat="44.84478" lon="6.14644">
        <ele>1972</ele>
        <time>2024-08-13T12:06:16Z</time>
      </trkpt>
      <trkpt lat="44.84478" lon="6.14644">
        <ele>1972</ele>
        <time>2024-08-13T12:06:17Z</time>
      </trkpt>
      <trkpt lat="44.84478" lon="6.14644">
        <ele>1972.2</ele>
        <time>2024-08-13T12:06:18Z</time>
      </trkpt>
      <trkpt lat="44.84478" lon="6.14644">
        <ele>1972.2</ele>
        <time>2024-08-13T12:06:19Z</time>
      </trkpt>
      <trkpt lat="44.84478" lon="6.14644">
        <ele>1972.2</ele>
        <time>2024-08-13T12:06:20Z</time>
      </trkpt>
      <trkpt lat="44.84478" lon="6.14644">
        <ele>1972.4</ele>
        <time>2024-08-13T12:06:21Z</time>
      </trkpt>
      <trkpt lat="44.84478" lon="6.14644">
        <ele>1972.4</ele>
        <time>2024-08-13T12:06:22Z</time>
      </trkpt>
      <trkpt lat="44.84478" lon="6.14644">
        <ele>1972.4</ele>
        <time>2024-08-13T12:06:23Z</time>
      </trkpt>
      <trkpt lat="44.84478" lon="6.14644">
        <ele>1972.4</ele>
        <time>2024-08-13T12:06:24Z</time>
      </trkpt>
      <trkpt lat="44.84478" lon="6.14644">
        <ele>1972.4</ele>
        <time>2024-08-13T12:06:25Z</time>
      </trkpt>
      <trkpt lat="44.84478" lon="6.14644">
        <ele>1972.4</ele>
        <time>2024-08-13T12:06:26Z</time>
      </trkpt>
      <trkpt lat="44.84478" lon="6.14644">
        <ele>1972.4</ele>
        <time>2024-08-13T12:06:27Z</time>
      </trkpt>
      <trkpt lat="44.84478" lon="6.14644">
        <ele>1972.4</ele>
        <time>2024-08-13T12:06:28Z</time>
      </trkpt>
      <trkpt lat="44.84478" lon="6.14644">
        <ele>1972.4</ele>
        <time>2024-08-13T12:06:29Z</time>
      </trkpt>
      <trkpt lat="44.84478" lon="6.14644">
        <ele>1972.4</ele>
        <time>2024-08-13T12:06:30Z</time>
      </trkpt>
      <trkpt lat="44.84478" lon="6.14644">
        <ele>1972.2</ele>
        <time>2024-08-13T12:06:31Z</time>
      </trkpt>
      <trkpt lat="44.84475" lon="6.14644">
        <ele>1972.4</ele>
        <time>2024-08-13T12:06:32Z</time>
      </trkpt>
      <trkpt lat="44.84475" lon="6.14644">
        <ele>1972.4</ele>
        <time>2024-08-13T12:06:33Z</time>
      </trkpt>
      <trkpt lat="44.84475" lon="6.14644">
        <ele>1972.2</ele>
        <time>2024-08-13T12:06:34Z</time>
      </trkpt>
      <trkpt lat="44.84475" lon="6.14644">
        <ele>1972.2</ele>
        <time>2024-08-13T12:06:35Z</time>
      </trkpt>
      <trkpt lat="44.84475" lon="6.14644">
        <ele>1972.2</ele>
        <time>2024-08-13T12:06:36Z</time>
      </trkpt>
      <trkpt lat="44.84475" lon="6.14644">
        <ele>1972.2</ele>
        <time>2024-08-13T12:06:37Z</time>
      </trkpt>
      <trkpt lat="44.84475" lon="6.14644">
        <ele>1972.2</ele>
        <time>2024-08-13T12:06:38Z</time>
      </trkpt>
      <trkpt lat="44.84475" lon="6.14644">
        <ele>1972.2</ele>
        <time>2024-08-13T12:06:39Z</time>
      </trkpt>
      <trkpt lat="44.84475" lon="6.14644">
        <ele>1972.2</ele>
        <time>2024-08-13T12:06:40Z</time>
      </trkpt>
      <trkpt lat="44.84475" lon="6.14644">
        <ele>1972</ele>
        <time>2024-08-13T12:06:41Z</time>
      </trkpt>
      <trkpt lat="44.84475" lon="6.14644">
        <ele>1972</ele>
        <time>2024-08-13T12:06:42Z</time>
      </trkpt>
      <trkpt lat="44.84475" lon="6.14644">
        <ele>1972</ele>
        <time>2024-08-13T12:06:43Z</time>
      </trkpt>
      <trkpt lat="44.84475" lon="6.14644">
        <ele>1972</ele>
        <time>2024-08-13T12:06:44Z</time>
      </trkpt>
      <trkpt lat="44.84475" lon="6.14644">
        <ele>1972.2</ele>
        <time>2024-08-13T12:06:45Z</time>
      </trkpt>
      <trkpt lat="44.84475" lon="6.14644">
        <ele>1972.4</ele>
        <time>2024-08-13T12:06:46Z</time>
      </trkpt>
      <trkpt lat="44.84475" lon="6.14644">
        <ele>1972.4</ele>
        <time>2024-08-13T12:06:47Z</time>
      </trkpt>
      <trkpt lat="44.84475" lon="6.14644">
        <ele>1972.4</ele>
        <time>2024-08-13T12:06:48Z</time>
      </trkpt>
      <trkpt lat="44.84475" lon="6.14644">
        <ele>1972.6</ele>
        <time>2024-08-13T12:06:49Z</time>
      </trkpt>
      <trkpt lat="44.84475" lon="6.14644">
        <ele>1972.6</ele>
        <time>2024-08-13T12:06:50Z</time>
      </trkpt>
      <trkpt lat="44.84475" lon="6.14644">
        <ele>1972.6</ele>
        <time>2024-08-13T12:06:51Z</time>
      </trkpt>
      <trkpt lat="44.84475" lon="6.14644">
        <ele>1972.6</ele>
        <time>2024-08-13T12:06:52Z</time>
      </trkpt>
      <trkpt lat="44.84475" lon="6.14644">
        <ele>1973</ele>
        <time>2024-08-13T12:06:53Z</time>
      </trkpt>
      <trkpt lat="44.84475" lon="6.14644">
        <ele>1973.2</ele>
        <time>2024-08-13T12:06:54Z</time>
      </trkpt>
      <trkpt lat="44.84475" lon="6.14644">
        <ele>1973</ele>
        <time>2024-08-13T12:06:55Z</time>
      </trkpt>
      <trkpt lat="44.84475" lon="6.14644">
        <ele>1973</ele>
        <time>2024-08-13T12:06:56Z</time>
      </trkpt>
      <trkpt lat="44.84475" lon="6.14644">
        <ele>1973</ele>
        <time>2024-08-13T12:06:57Z</time>
      </trkpt>
      <trkpt lat="44.84475" lon="6.14644">
        <ele>1972.8</ele>
        <time>2024-08-13T12:06:58Z</time>
      </trkpt>
      <trkpt lat="44.84475" lon="6.14644">
        <ele>1972.8</ele>
        <time>2024-08-13T12:06:59Z</time>
      </trkpt>
      <trkpt lat="44.84475" lon="6.14644">
        <ele>1972.8</ele>
        <time>2024-08-13T12:07:00Z</time>
      </trkpt>
      <trkpt lat="44.84475" lon="6.14644">
        <ele>1972.8</ele>
        <time>2024-08-13T12:07:01Z</time>
      </trkpt>
      <trkpt lat="44.84475" lon="6.14644">
        <ele>1972.6</ele>
        <time>2024-08-13T12:07:02Z</time>
      </trkpt>
      <trkpt lat="44.84475" lon="6.14644">
        <ele>1972.6</ele>
        <time>2024-08-13T12:07:03Z</time>
      </trkpt>
      <trkpt lat="44.84475" lon="6.14644">
        <ele>1972.6</ele>
        <time>2024-08-13T12:07:04Z</time>
      </trkpt>
      <trkpt lat="44.84475" lon="6.14644">
        <ele>1972.8</ele>
        <time>2024-08-13T12:07:05Z</time>
      </trkpt>
      <trkpt lat="44.84475" lon="6.14644">
        <ele>1972.8</ele>
        <time>2024-08-13T12:07:06Z</time>
      </trkpt>
      <trkpt lat="44.84475" lon="6.14644">
        <ele>1972.8</ele>
        <time>2024-08-13T12:07:07Z</time>
      </trkpt>
      <trkpt lat="44.84475" lon="6.14644">
        <ele>1972.8</ele>
        <time>2024-08-13T12:07:08Z</time>
      </trkpt>
      <trkpt lat="44.84475" lon="6.14644">
        <ele>1972.8</ele>
        <time>2024-08-13T12:07:09Z</time>
      </trkpt>
      <trkpt lat="44.84475" lon="6.14644">
        <ele>1973</ele>
        <time>2024-08-13T12:07:10Z</time>
      </trkpt>
      <trkpt lat="44.84475" lon="6.14644">
        <ele>1973</ele>
        <time>2024-08-13T12:07:11Z</time>
      </trkpt>
      <trkpt lat="44.84475" lon="6.14644">
        <ele>1973</ele>
        <time>2024-08-13T12:07:12Z</time>
      </trkpt>
      <trkpt lat="44.84475" lon="6.14644">
        <ele>1973</ele>
        <time>2024-08-13T12:07:13Z</time>
      </trkpt>
      <trkpt lat="44.84475" lon="6.14644">
        <ele>1973</ele>
        <time>2024-08-13T12:07:14Z</time>
      </trkpt>
      <trkpt lat="44.84475" lon="6.14644">
        <ele>1973</ele>
        <time>2024-08-13T12:07:15Z</time>
      </trkpt>
      <trkpt lat="44.84475" lon="6.14644">
        <ele>1973.2</ele>
        <time>2024-08-13T12:07:16Z</time>
      </trkpt>
      <trkpt lat="44.84475" lon="6.14644">
        <ele>1973.2</ele>
        <time>2024-08-13T12:07:17Z</time>
      </trkpt>
      <trkpt lat="44.84475" lon="6.14644">
        <ele>1973.2</ele>
        <time>2024-08-13T12:07:18Z</time>
      </trkpt>
      <trkpt lat="44.84475" lon="6.14644">
        <ele>1973</ele>
        <time>2024-08-13T12:07:19Z</time>
      </trkpt>
      <trkpt lat="44.84475" lon="6.14644">
        <ele>1973</ele>
        <time>2024-08-13T12:07:20Z</time>
      </trkpt>
      <trkpt lat="44.84475" lon="6.14644">
        <ele>1973</ele>
        <time>2024-08-13T12:07:21Z</time>
      </trkpt>
      <trkpt lat="44.84475" lon="6.14644">
        <ele>1973</ele>
        <time>2024-08-13T12:07:22Z</time>
      </trkpt>
      <trkpt lat="44.84475" lon="6.14644">
        <ele>1973</ele>
        <time>2024-08-13T12:07:23Z</time>
      </trkpt>
      <trkpt lat="44.84475" lon="6.14644">
        <ele>1973.2</ele>
        <time>2024-08-13T12:07:24Z</time>
      </trkpt>
      <trkpt lat="44.84475" lon="6.14644">
        <ele>1973.2</ele>
        <time>2024-08-13T12:07:25Z</time>
      </trkpt>
      <trkpt lat="44.84475" lon="6.14644">
        <ele>1973.2</ele>
        <time>2024-08-13T12:07:26Z</time>
      </trkpt>
      <trkpt lat="44.84475" lon="6.14644">
        <ele>1973.2</ele>
        <time>2024-08-13T12:07:27Z</time>
      </trkpt>
      <trkpt lat="44.84475" lon="6.14644">
        <ele>1973.2</ele>
        <time>2024-08-13T12:07:28Z</time>
      </trkpt>
      <trkpt lat="44.84475" lon="6.14644">
        <ele>1973.4</ele>
        <time>2024-08-13T12:07:29Z</time>
      </trkpt>
      <trkpt lat="44.84475" lon="6.14644">
        <ele>1973.4</ele>
        <time>2024-08-13T12:07:30Z</time>
      </trkpt>
      <trkpt lat="44.84474" lon="6.14646">
        <ele>1973.4</ele>
        <time>2024-08-13T12:07:31Z</time>
      </trkpt>
      <trkpt lat="44.84474" lon="6.14646">
        <ele>1973.4</ele>
        <time>2024-08-13T12:07:32Z</time>
      </trkpt>
      <trkpt lat="44.84474" lon="6.14646">
        <ele>1973.4</ele>
        <time>2024-08-13T12:07:33Z</time>
      </trkpt>
      <trkpt lat="44.84473" lon="6.1465">
        <ele>1973.4</ele>
        <time>2024-08-13T12:07:34Z</time>
      </trkpt>
      <trkpt lat="44.84473" lon="6.1465">
        <ele>1973.4</ele>
        <time>2024-08-13T12:07:35Z</time>
      </trkpt>
      <trkpt lat="44.84473" lon="6.1465">
        <ele>1973.4</ele>
        <time>2024-08-13T12:07:36Z</time>
      </trkpt>
      <trkpt lat="44.84473" lon="6.1465">
        <ele>1973.4</ele>
        <time>2024-08-13T12:07:37Z</time>
      </trkpt>
      <trkpt lat="44.84473" lon="6.1465">
        <ele>1973.6</ele>
        <time>2024-08-13T12:07:38Z</time>
      </trkpt>
      <trkpt lat="44.84473" lon="6.1465">
        <ele>1973.6</ele>
        <time>2024-08-13T12:07:39Z</time>
      </trkpt>
      <trkpt lat="44.84473" lon="6.1465">
        <ele>1974</ele>
        <time>2024-08-13T12:07:40Z</time>
      </trkpt>
      <trkpt lat="44.84473" lon="6.1465">
        <ele>1974</ele>
        <time>2024-08-13T12:07:41Z</time>
      </trkpt>
      <trkpt lat="44.84473" lon="6.1465">
        <ele>1974</ele>
        <time>2024-08-13T12:07:42Z</time>
      </trkpt>
      <trkpt lat="44.84473" lon="6.1465">
        <ele>1974</ele>
        <time>2024-08-13T12:07:43Z</time>
      </trkpt>
      <trkpt lat="44.84473" lon="6.1465">
        <ele>1974</ele>
        <time>2024-08-13T12:07:44Z</time>
      </trkpt>
      <trkpt lat="44.84473" lon="6.1465">
        <ele>1974</ele>
        <time>2024-08-13T12:07:45Z</time>
      </trkpt>
      <trkpt lat="44.84473" lon="6.1465">
        <ele>1974</ele>
        <time>2024-08-13T12:07:46Z</time>
      </trkpt>
      <trkpt lat="44.84473" lon="6.1465">
        <ele>1974</ele>
        <time>2024-08-13T12:07:47Z</time>
      </trkpt>
      <trkpt lat="44.84473" lon="6.1465">
        <ele>1974.2</ele>
        <time>2024-08-13T12:07:48Z</time>
      </trkpt>
      <trkpt lat="44.84473" lon="6.1465">
        <ele>1974.2</ele>
        <time>2024-08-13T12:07:49Z</time>
      </trkpt>
      <trkpt lat="44.84473" lon="6.1465">
        <ele>1974.2</ele>
        <time>2024-08-13T12:07:50Z</time>
      </trkpt>
      <trkpt lat="44.84473" lon="6.1465">
        <ele>1974.2</ele>
        <time>2024-08-13T12:07:51Z</time>
      </trkpt>
      <trkpt lat="44.84473" lon="6.1465">
        <ele>1974.2</ele>
        <time>2024-08-13T12:07:52Z</time>
      </trkpt>
      <trkpt lat="44.84473" lon="6.1465">
        <ele>1974.4</ele>
        <time>2024-08-13T12:07:53Z</time>
      </trkpt>
      <trkpt lat="44.84473" lon="6.1465">
        <ele>1974.4</ele>
        <time>2024-08-13T12:07:54Z</time>
      </trkpt>
      <trkpt lat="44.84473" lon="6.1465">
        <ele>1974.8</ele>
        <time>2024-08-13T12:07:55Z</time>
      </trkpt>
      <trkpt lat="44.84473" lon="6.1465">
        <ele>1975</ele>
        <time>2024-08-13T12:07:56Z</time>
      </trkpt>
      <trkpt lat="44.84473" lon="6.1465">
        <ele>1975</ele>
        <time>2024-08-13T12:07:57Z</time>
      </trkpt>
      <trkpt lat="44.84473" lon="6.1465">
        <ele>1974.6</ele>
        <time>2024-08-13T12:07:58Z</time>
      </trkpt>
      <trkpt lat="44.84473" lon="6.1465">
        <ele>1974</ele>
        <time>2024-08-13T12:07:59Z</time>
      </trkpt>
      <trkpt lat="44.84473" lon="6.1465">
        <ele>1974</ele>
        <time>2024-08-13T12:08:00Z</time>
      </trkpt>
      <trkpt lat="44.84473" lon="6.1465">
        <ele>1974.2</ele>
        <time>2024-08-13T12:08:01Z</time>
      </trkpt>
      <trkpt lat="44.84473" lon="6.1465">
        <ele>1974.2</ele>
        <time>2024-08-13T12:08:02Z</time>
      </trkpt>
      <trkpt lat="44.84473" lon="6.1465">
        <ele>1974.2</ele>
        <time>2024-08-13T12:08:03Z</time>
      </trkpt>
      <trkpt lat="44.84473" lon="6.1465">
        <ele>1974.2</ele>
        <time>2024-08-13T12:08:04Z</time>
      </trkpt>
      <trkpt lat="44.84473" lon="6.1465">
        <ele>1974.2</ele>
        <time>2024-08-13T12:08:05Z</time>
      </trkpt>
      <trkpt lat="44.84473" lon="6.1465">
        <ele>1974.4</ele>
        <time>2024-08-13T12:08:06Z</time>
      </trkpt>
      <trkpt lat="44.84473" lon="6.1465">
        <ele>1974.4</ele>
        <time>2024-08-13T12:08:07Z</time>
      </trkpt>
      <trkpt lat="44.84473" lon="6.1465">
        <ele>1974.4</ele>
        <time>2024-08-13T12:08:08Z</time>
      </trkpt>
      <trkpt lat="44.84473" lon="6.1465">
        <ele>1974.4</ele>
        <time>2024-08-13T12:08:09Z</time>
      </trkpt>
      <trkpt lat="44.84473" lon="6.1465">
        <ele>1974.4</ele>
        <time>2024-08-13T12:08:10Z</time>
      </trkpt>
      <trkpt lat="44.84473" lon="6.1465">
        <ele>1974.4</ele>
        <time>2024-08-13T12:08:11Z</time>
      </trkpt>
      <trkpt lat="44.84473" lon="6.1465">
        <ele>1974.4</ele>
        <time>2024-08-13T12:08:12Z</time>
      </trkpt>
      <trkpt lat="44.84473" lon="6.1465">
        <ele>1974.4</ele>
        <time>2024-08-13T12:08:13Z</time>
      </trkpt>
      <trkpt lat="44.84473" lon="6.1465">
        <ele>1974.6</ele>
        <time>2024-08-13T12:08:14Z</time>
      </trkpt>
      <trkpt lat="44.84473" lon="6.1465">
        <ele>1974.6</ele>
        <time>2024-08-13T12:08:15Z</time>
      </trkpt>
      <trkpt lat="44.84473" lon="6.1465">
        <ele>1974.6</ele>
        <time>2024-08-13T12:08:16Z</time>
      </trkpt>
      <trkpt lat="44.84473" lon="6.1465">
        <ele>1974.6</ele>
        <time>2024-08-13T12:08:17Z</time>
      </trkpt>
      <trkpt lat="44.84473" lon="6.1465">
        <ele>1974.6</ele>
        <time>2024-08-13T12:08:18Z</time>
      </trkpt>
      <trkpt lat="44.84473" lon="6.1465">
        <ele>1974.6</ele>
        <time>2024-08-13T12:08:19Z</time>
      </trkpt>
      <trkpt lat="44.84473" lon="6.1465">
        <ele>1974.4</ele>
        <time>2024-08-13T12:08:20Z</time>
      </trkpt>
      <trkpt lat="44.84473" lon="6.1465">
        <ele>1974.2</ele>
        <time>2024-08-13T12:08:21Z</time>
      </trkpt>
      <trkpt lat="44.84473" lon="6.1465">
        <ele>1974.2</ele>
        <time>2024-08-13T12:08:22Z</time>
      </trkpt>
      <trkpt lat="44.84473" lon="6.1465">
        <ele>1974.4</ele>
        <time>2024-08-13T12:08:23Z</time>
      </trkpt>
      <trkpt lat="44.84473" lon="6.1465">
        <ele>1974.4</ele>
        <time>2024-08-13T12:08:24Z</time>
      </trkpt>
      <trkpt lat="44.84473" lon="6.1465">
        <ele>1974.4</ele>
        <time>2024-08-13T12:08:25Z</time>
      </trkpt>
      <trkpt lat="44.84473" lon="6.1465">
        <ele>1974.6</ele>
        <time>2024-08-13T12:08:26Z</time>
      </trkpt>
      <trkpt lat="44.84473" lon="6.1465">
        <ele>1974.6</ele>
        <time>2024-08-13T12:08:27Z</time>
      </trkpt>
      <trkpt lat="44.84473" lon="6.1465">
        <ele>1974.6</ele>
        <time>2024-08-13T12:08:28Z</time>
      </trkpt>
      <trkpt lat="44.84473" lon="6.1465">
        <ele>1974.6</ele>
        <time>2024-08-13T12:08:29Z</time>
      </trkpt>
      <trkpt lat="44.84473" lon="6.1465">
        <ele>1974.6</ele>
        <time>2024-08-13T12:08:30Z</time>
      </trkpt>
      <trkpt lat="44.84473" lon="6.1465">
        <ele>1974.6</ele>
        <time>2024-08-13T12:08:31Z</time>
      </trkpt>
      <trkpt lat="44.84473" lon="6.1465">
        <ele>1974.6</ele>
        <time>2024-08-13T12:08:32Z</time>
      </trkpt>
      <trkpt lat="44.84473" lon="6.1465">
        <ele>1974.8</ele>
        <time>2024-08-13T12:08:33Z</time>
      </trkpt>
      <trkpt lat="44.84473" lon="6.1465">
        <ele>1974.8</ele>
        <time>2024-08-13T12:08:34Z</time>
      </trkpt>
      <trkpt lat="44.84473" lon="6.1465">
        <ele>1974.8</ele>
        <time>2024-08-13T12:08:35Z</time>
      </trkpt>
      <trkpt lat="44.84473" lon="6.1465">
        <ele>1974.8</ele>
        <time>2024-08-13T12:08:36Z</time>
      </trkpt>
      <trkpt lat="44.84473" lon="6.1465">
        <ele>1974.8</ele>
        <time>2024-08-13T12:08:37Z</time>
      </trkpt>
      <trkpt lat="44.84473" lon="6.1465">
        <ele>1974.8</ele>
        <time>2024-08-13T12:08:38Z</time>
      </trkpt>
      <trkpt lat="44.84473" lon="6.1465">
        <ele>1974.8</ele>
        <time>2024-08-13T12:08:39Z</time>
      </trkpt>
      <trkpt lat="44.84473" lon="6.1465">
        <ele>1975.2</ele>
        <time>2024-08-13T12:08:40Z</time>
      </trkpt>
      <trkpt lat="44.84473" lon="6.1465">
        <ele>1975.2</ele>
        <time>2024-08-13T12:08:41Z</time>
      </trkpt>
      <trkpt lat="44.84473" lon="6.1465">
        <ele>1975.2</ele>
        <time>2024-08-13T12:08:42Z</time>
      </trkpt>
      <trkpt lat="44.84473" lon="6.1465">
        <ele>1975.4</ele>
        <time>2024-08-13T12:08:43Z</time>
      </trkpt>
      <trkpt lat="44.84473" lon="6.1465">
        <ele>1975.4</ele>
        <time>2024-08-13T12:08:44Z</time>
      </trkpt>
      <trkpt lat="44.84473" lon="6.1465">
        <ele>1975.2</ele>
        <time>2024-08-13T12:08:45Z</time>
      </trkpt>
      <trkpt lat="44.84473" lon="6.1465">
        <ele>1975.2</ele>
        <time>2024-08-13T12:08:46Z</time>
      </trkpt>
      <trkpt lat="44.84473" lon="6.1465">
        <ele>1975.4</ele>
        <time>2024-08-13T12:08:47Z</time>
      </trkpt>
      <trkpt lat="44.84473" lon="6.1465">
        <ele>1975.4</ele>
        <time>2024-08-13T12:08:48Z</time>
      </trkpt>
      <trkpt lat="44.84473" lon="6.1465">
        <ele>1975.4</ele>
        <time>2024-08-13T12:08:49Z</time>
      </trkpt>
      <trkpt lat="44.84473" lon="6.1465">
        <ele>1975.4</ele>
        <time>2024-08-13T12:08:50Z</time>
      </trkpt>
      <trkpt lat="44.84473" lon="6.1465">
        <ele>1975.4</ele>
        <time>2024-08-13T12:08:51Z</time>
      </trkpt>
      <trkpt lat="44.84473" lon="6.1465">
        <ele>1975.4</ele>
        <time>2024-08-13T12:08:52Z</time>
      </trkpt>
      <trkpt lat="44.84473" lon="6.1465">
        <ele>1975.6</ele>
        <time>2024-08-13T12:08:53Z</time>
      </trkpt>
      <trkpt lat="44.84473" lon="6.1465">
        <ele>1975.8</ele>
        <time>2024-08-13T12:08:54Z</time>
      </trkpt>
      <trkpt lat="44.84473" lon="6.1465">
        <ele>1975.8</ele>
        <time>2024-08-13T12:08:55Z</time>
      </trkpt>
      <trkpt lat="44.84473" lon="6.1465">
        <ele>1975.6</ele>
        <time>2024-08-13T12:08:56Z</time>
      </trkpt>
      <trkpt lat="44.84473" lon="6.1465">
        <ele>1975.6</ele>
        <time>2024-08-13T12:08:57Z</time>
      </trkpt>
      <trkpt lat="44.84473" lon="6.1465">
        <ele>1975.4</ele>
        <time>2024-08-13T12:08:58Z</time>
      </trkpt>
      <trkpt lat="44.84473" lon="6.1465">
        <ele>1975.2</ele>
        <time>2024-08-13T12:08:59Z</time>
      </trkpt>
      <trkpt lat="44.84473" lon="6.1465">
        <ele>1975.2</ele>
        <time>2024-08-13T12:09:00Z</time>
      </trkpt>
      <trkpt lat="44.84473" lon="6.1465">
        <ele>1975.2</ele>
        <time>2024-08-13T12:09:01Z</time>
      </trkpt>
      <trkpt lat="44.84473" lon="6.1465">
        <ele>1975.6</ele>
        <time>2024-08-13T12:09:02Z</time>
      </trkpt>
      <trkpt lat="44.84473" lon="6.1465">
        <ele>1975.6</ele>
        <time>2024-08-13T12:09:03Z</time>
      </trkpt>
      <trkpt lat="44.84473" lon="6.1465">
        <ele>1975.6</ele>
        <time>2024-08-13T12:09:04Z</time>
      </trkpt>
      <trkpt lat="44.84473" lon="6.1465">
        <ele>1975.2</ele>
        <time>2024-08-13T12:09:05Z</time>
      </trkpt>
      <trkpt lat="44.84473" lon="6.1465">
        <ele>1975.2</ele>
        <time>2024-08-13T12:09:06Z</time>
      </trkpt>
      <trkpt lat="44.84473" lon="6.1465">
        <ele>1975.2</ele>
        <time>2024-08-13T12:09:07Z</time>
      </trkpt>
      <trkpt lat="44.84473" lon="6.1465">
        <ele>1975.2</ele>
        <time>2024-08-13T12:09:08Z</time>
      </trkpt>
      <trkpt lat="44.84473" lon="6.1465">
        <ele>1975.2</ele>
        <time>2024-08-13T12:09:09Z</time>
      </trkpt>
      <trkpt lat="44.84473" lon="6.1465">
        <ele>1975.2</ele>
        <time>2024-08-13T12:09:10Z</time>
      </trkpt>
      <trkpt lat="44.84473" lon="6.1465">
        <ele>1975.2</ele>
        <time>2024-08-13T12:09:11Z</time>
      </trkpt>
      <trkpt lat="44.84473" lon="6.1465">
        <ele>1975.2</ele>
        <time>2024-08-13T12:09:12Z</time>
      </trkpt>
      <trkpt lat="44.84473" lon="6.1465">
        <ele>1975.2</ele>
        <time>2024-08-13T12:09:13Z</time>
      </trkpt>
      <trkpt lat="44.84473" lon="6.1465">
        <ele>1975.2</ele>
        <time>2024-08-13T12:09:14Z</time>
      </trkpt>
      <trkpt lat="44.84473" lon="6.1465">
        <ele>1975</ele>
        <time>2024-08-13T12:09:15Z</time>
      </trkpt>
      <trkpt lat="44.84473" lon="6.1465">
        <ele>1975</ele>
        <time>2024-08-13T12:09:16Z</time>
      </trkpt>
      <trkpt lat="44.84473" lon="6.1465">
        <ele>1975.2</ele>
        <time>2024-08-13T12:09:17Z</time>
      </trkpt>
      <trkpt lat="44.84473" lon="6.1465">
        <ele>1975.6</ele>
        <time>2024-08-13T12:09:18Z</time>
      </trkpt>
      <trkpt lat="44.84473" lon="6.1465">
        <ele>1975.6</ele>
        <time>2024-08-13T12:09:19Z</time>
      </trkpt>
      <trkpt lat="44.84473" lon="6.1465">
        <ele>1975.2</ele>
        <time>2024-08-13T12:09:20Z</time>
      </trkpt>
      <trkpt lat="44.84473" lon="6.1465">
        <ele>1975.2</ele>
        <time>2024-08-13T12:09:21Z</time>
      </trkpt>
      <trkpt lat="44.84473" lon="6.1465">
        <ele>1975.4</ele>
        <time>2024-08-13T12:09:22Z</time>
      </trkpt>
      <trkpt lat="44.84473" lon="6.1465">
        <ele>1975.6</ele>
        <time>2024-08-13T12:09:23Z</time>
      </trkpt>
      <trkpt lat="44.84473" lon="6.1465">
        <ele>1975.6</ele>
        <time>2024-08-13T12:09:24Z</time>
      </trkpt>
      <trkpt lat="44.84473" lon="6.1465">
        <ele>1975.6</ele>
        <time>2024-08-13T12:09:25Z</time>
      </trkpt>
      <trkpt lat="44.84473" lon="6.1465">
        <ele>1975.4</ele>
        <time>2024-08-13T12:09:26Z</time>
      </trkpt>
      <trkpt lat="44.84473" lon="6.1465">
        <ele>1975.4</ele>
        <time>2024-08-13T12:09:27Z</time>
      </trkpt>
      <trkpt lat="44.84473" lon="6.1465">
        <ele>1975.2</ele>
        <time>2024-08-13T12:09:28Z</time>
      </trkpt>
      <trkpt lat="44.84473" lon="6.1465">
        <ele>1975</ele>
        <time>2024-08-13T12:09:29Z</time>
      </trkpt>
      <trkpt lat="44.84473" lon="6.1465">
        <ele>1975</ele>
        <time>2024-08-13T12:09:30Z</time>
      </trkpt>
      <trkpt lat="44.84473" lon="6.1465">
        <ele>1975</ele>
        <time>2024-08-13T12:09:31Z</time>
      </trkpt>
      <trkpt lat="44.84473" lon="6.1465">
        <ele>1975</ele>
        <time>2024-08-13T12:09:32Z</time>
      </trkpt>
      <trkpt lat="44.84473" lon="6.1465">
        <ele>1974.8</ele>
        <time>2024-08-13T12:09:33Z</time>
      </trkpt>
      <trkpt lat="44.84473" lon="6.1465">
        <ele>1975</ele>
        <time>2024-08-13T12:09:34Z</time>
      </trkpt>
      <trkpt lat="44.84473" lon="6.1465">
        <ele>1975</ele>
        <time>2024-08-13T12:09:35Z</time>
      </trkpt>
      <trkpt lat="44.84473" lon="6.1465">
        <ele>1975</ele>
        <time>2024-08-13T12:09:36Z</time>
      </trkpt>
      <trkpt lat="44.84473" lon="6.1465">
        <ele>1975</ele>
        <time>2024-08-13T12:09:37Z</time>
      </trkpt>
      <trkpt lat="44.84473" lon="6.1465">
        <ele>1974.8</ele>
        <time>2024-08-13T12:09:38Z</time>
      </trkpt>
      <trkpt lat="44.84473" lon="6.1465">
        <ele>1974.8</ele>
        <time>2024-08-13T12:09:39Z</time>
      </trkpt>
      <trkpt lat="44.84473" lon="6.1465">
        <ele>1974.8</ele>
        <time>2024-08-13T12:09:40Z</time>
      </trkpt>
      <trkpt lat="44.84473" lon="6.1465">
        <ele>1974.6</ele>
        <time>2024-08-13T12:09:41Z</time>
      </trkpt>
      <trkpt lat="44.84473" lon="6.1465">
        <ele>1974.6</ele>
        <time>2024-08-13T12:09:42Z</time>
      </trkpt>
      <trkpt lat="44.84473" lon="6.1465">
        <ele>1975</ele>
        <time>2024-08-13T12:09:43Z</time>
      </trkpt>
      <trkpt lat="44.84473" lon="6.1465">
        <ele>1975</ele>
        <time>2024-08-13T12:09:44Z</time>
      </trkpt>
      <trkpt lat="44.84473" lon="6.1465">
        <ele>1974.8</ele>
        <time>2024-08-13T12:09:45Z</time>
      </trkpt>
      <trkpt lat="44.84473" lon="6.1465">
        <ele>1974.8</ele>
        <time>2024-08-13T12:09:46Z</time>
      </trkpt>
      <trkpt lat="44.84473" lon="6.1465">
        <ele>1974.8</ele>
        <time>2024-08-13T12:09:47Z</time>
      </trkpt>
      <trkpt lat="44.84473" lon="6.1465">
        <ele>1974.8</ele>
        <time>2024-08-13T12:09:48Z</time>
      </trkpt>
      <trkpt lat="44.84473" lon="6.1465">
        <ele>1974.8</ele>
        <time>2024-08-13T12:09:49Z</time>
      </trkpt>
      <trkpt lat="44.84473" lon="6.1465">
        <ele>1974.8</ele>
        <time>2024-08-13T12:09:50Z</time>
      </trkpt>
      <trkpt lat="44.84473" lon="6.1465">
        <ele>1974.8</ele>
        <time>2024-08-13T12:09:51Z</time>
      </trkpt>
      <trkpt lat="44.84473" lon="6.1465">
        <ele>1975</ele>
        <time>2024-08-13T12:09:52Z</time>
      </trkpt>
      <trkpt lat="44.84473" lon="6.1465">
        <ele>1975.2</ele>
        <time>2024-08-13T12:09:53Z</time>
      </trkpt>
      <trkpt lat="44.84473" lon="6.1465">
        <ele>1975.4</ele>
        <time>2024-08-13T12:09:54Z</time>
      </trkpt>
      <trkpt lat="44.84473" lon="6.1465">
        <ele>1975.4</ele>
        <time>2024-08-13T12:09:55Z</time>
      </trkpt>
      <trkpt lat="44.84473" lon="6.1465">
        <ele>1975.4</ele>
        <time>2024-08-13T12:09:56Z</time>
      </trkpt>
      <trkpt lat="44.84473" lon="6.1465">
        <ele>1975.4</ele>
        <time>2024-08-13T12:09:57Z</time>
      </trkpt>
      <trkpt lat="44.84473" lon="6.1465">
        <ele>1975.4</ele>
        <time>2024-08-13T12:09:58Z</time>
      </trkpt>
      <trkpt lat="44.84473" lon="6.1465">
        <ele>1975.4</ele>
        <time>2024-08-13T12:09:59Z</time>
      </trkpt>
      <trkpt lat="44.84473" lon="6.1465">
        <ele>1975.4</ele>
        <time>2024-08-13T12:10:00Z</time>
      </trkpt>
      <trkpt lat="44.84473" lon="6.1465">
        <ele>1975.4</ele>
        <time>2024-08-13T12:10:01Z</time>
      </trkpt>
      <trkpt lat="44.84473" lon="6.1465">
        <ele>1975.2</ele>
        <time>2024-08-13T12:10:02Z</time>
      </trkpt>
      <trkpt lat="44.84473" lon="6.1465">
        <ele>1975.2</ele>
        <time>2024-08-13T12:10:03Z</time>
      </trkpt>
      <trkpt lat="44.84473" lon="6.1465">
        <ele>1975.2</ele>
        <time>2024-08-13T12:10:04Z</time>
      </trkpt>
      <trkpt lat="44.84473" lon="6.1465">
        <ele>1975.2</ele>
        <time>2024-08-13T12:10:05Z</time>
      </trkpt>
      <trkpt lat="44.84473" lon="6.1465">
        <ele>1975.4</ele>
        <time>2024-08-13T12:10:06Z</time>
      </trkpt>
      <trkpt lat="44.84473" lon="6.1465">
        <ele>1975.4</ele>
        <time>2024-08-13T12:10:07Z</time>
      </trkpt>
      <trkpt lat="44.84473" lon="6.1465">
        <ele>1975.4</ele>
        <time>2024-08-13T12:10:08Z</time>
      </trkpt>
      <trkpt lat="44.84473" lon="6.1465">
        <ele>1975.2</ele>
        <time>2024-08-13T12:10:09Z</time>
      </trkpt>
      <trkpt lat="44.84473" lon="6.1465">
        <ele>1974.8</ele>
        <time>2024-08-13T12:10:10Z</time>
      </trkpt>
      <trkpt lat="44.84473" lon="6.1465">
        <ele>1974.6</ele>
        <time>2024-08-13T12:10:11Z</time>
      </trkpt>
      <trkpt lat="44.84473" lon="6.1465">
        <ele>1974.6</ele>
        <time>2024-08-13T12:10:12Z</time>
      </trkpt>
      <trkpt lat="44.84473" lon="6.1465">
        <ele>1974.8</ele>
        <time>2024-08-13T12:10:13Z</time>
      </trkpt>
      <trkpt lat="44.84473" lon="6.1465">
        <ele>1974.8</ele>
        <time>2024-08-13T12:10:14Z</time>
      </trkpt>
      <trkpt lat="44.84473" lon="6.1465">
        <ele>1974.8</ele>
        <time>2024-08-13T12:10:15Z</time>
      </trkpt>
      <trkpt lat="44.84473" lon="6.1465">
        <ele>1974.8</ele>
        <time>2024-08-13T12:10:16Z</time>
      </trkpt>
      <trkpt lat="44.84475" lon="6.14648">
        <ele>1974.8</ele>
        <time>2024-08-13T12:10:17Z</time>
      </trkpt>
      <trkpt lat="44.84475" lon="6.14648">
        <ele>1974.8</ele>
        <time>2024-08-13T12:10:18Z</time>
      </trkpt>
      <trkpt lat="44.84475" lon="6.14646">
        <ele>1975</ele>
        <time>2024-08-13T12:10:19Z</time>
      </trkpt>
      <trkpt lat="44.84475" lon="6.14646">
        <ele>1975.2</ele>
        <time>2024-08-13T12:10:20Z</time>
      </trkpt>
      <trkpt lat="44.84475" lon="6.14646">
        <ele>1975.2</ele>
        <time>2024-08-13T12:10:21Z</time>
      </trkpt>
      <trkpt lat="44.84475" lon="6.14646">
        <ele>1975</ele>
        <time>2024-08-13T12:10:22Z</time>
      </trkpt>
      <trkpt lat="44.84473" lon="6.14643">
        <ele>1974.8</ele>
        <time>2024-08-13T12:10:23Z</time>
      </trkpt>
      <trkpt lat="44.84473" lon="6.14643">
        <ele>1974.6</ele>
        <time>2024-08-13T12:10:24Z</time>
      </trkpt>
      <trkpt lat="44.84473" lon="6.14643">
        <ele>1974.6</ele>
        <time>2024-08-13T12:10:25Z</time>
      </trkpt>
      <trkpt lat="44.84471" lon="6.14645">
        <ele>1974.8</ele>
        <time>2024-08-13T12:10:26Z</time>
      </trkpt>
      <trkpt lat="44.84471" lon="6.14645">
        <ele>1975</ele>
        <time>2024-08-13T12:10:27Z</time>
      </trkpt>
      <trkpt lat="44.84471" lon="6.14645">
        <ele>1975.4</ele>
        <time>2024-08-13T12:10:28Z</time>
      </trkpt>
      <trkpt lat="44.84471" lon="6.14645">
        <ele>1975.8</ele>
        <time>2024-08-13T12:10:29Z</time>
      </trkpt>
      <trkpt lat="44.84471" lon="6.14645">
        <ele>1975.8</ele>
        <time>2024-08-13T12:10:30Z</time>
      </trkpt>
      <trkpt lat="44.84471" lon="6.14645">
        <ele>1975.4</ele>
        <time>2024-08-13T12:10:31Z</time>
      </trkpt>
      <trkpt lat="44.8447" lon="6.14648">
        <ele>1975.4</ele>
        <time>2024-08-13T12:10:32Z</time>
      </trkpt>
      <trkpt lat="44.8447" lon="6.14648">
        <ele>1975.4</ele>
        <time>2024-08-13T12:10:33Z</time>
      </trkpt>
      <trkpt lat="44.8447" lon="6.14648">
        <ele>1975.4</ele>
        <time>2024-08-13T12:10:34Z</time>
      </trkpt>
      <trkpt lat="44.8447" lon="6.14648">
        <ele>1975.6</ele>
        <time>2024-08-13T12:10:35Z</time>
      </trkpt>
      <trkpt lat="44.8447" lon="6.14648">
        <ele>1975.6</ele>
        <time>2024-08-13T12:10:36Z</time>
      </trkpt>
      <trkpt lat="44.8447" lon="6.14648">
        <ele>1975.4</ele>
        <time>2024-08-13T12:10:37Z</time>
      </trkpt>
      <trkpt lat="44.8447" lon="6.14648">
        <ele>1975.4</ele>
        <time>2024-08-13T12:10:38Z</time>
      </trkpt>
      <trkpt lat="44.8447" lon="6.14648">
        <ele>1976</ele>
        <time>2024-08-13T12:10:39Z</time>
      </trkpt>
      <trkpt lat="44.8447" lon="6.14648">
        <ele>1976</ele>
        <time>2024-08-13T12:10:40Z</time>
      </trkpt>
      <trkpt lat="44.8447" lon="6.14648">
        <ele>1976</ele>
        <time>2024-08-13T12:10:41Z</time>
      </trkpt>
      <trkpt lat="44.8447" lon="6.14648">
        <ele>1976.2</ele>
        <time>2024-08-13T12:10:42Z</time>
      </trkpt>
      <trkpt lat="44.8447" lon="6.14648">
        <ele>1976.4</ele>
        <time>2024-08-13T12:10:43Z</time>
      </trkpt>
      <trkpt lat="44.8447" lon="6.14648">
        <ele>1976.4</ele>
        <time>2024-08-13T12:10:44Z</time>
      </trkpt>
      <trkpt lat="44.8447" lon="6.14648">
        <ele>1976.2</ele>
        <time>2024-08-13T12:10:45Z</time>
      </trkpt>
      <trkpt lat="44.8447" lon="6.14648">
        <ele>1976.2</ele>
        <time>2024-08-13T12:10:46Z</time>
      </trkpt>
      <trkpt lat="44.8447" lon="6.14648">
        <ele>1976.2</ele>
        <time>2024-08-13T12:10:47Z</time>
      </trkpt>
      <trkpt lat="44.8447" lon="6.14648">
        <ele>1976.6</ele>
        <time>2024-08-13T12:10:48Z</time>
      </trkpt>
      <trkpt lat="44.8447" lon="6.14648">
        <ele>1976.6</ele>
        <time>2024-08-13T12:10:49Z</time>
      </trkpt>
      <trkpt lat="44.8447" lon="6.14648">
        <ele>1976.4</ele>
        <time>2024-08-13T12:10:50Z</time>
      </trkpt>
      <trkpt lat="44.8447" lon="6.14648">
        <ele>1976.2</ele>
        <time>2024-08-13T12:10:51Z</time>
      </trkpt>
      <trkpt lat="44.8447" lon="6.14648">
        <ele>1976.2</ele>
        <time>2024-08-13T12:10:52Z</time>
      </trkpt>
      <trkpt lat="44.8447" lon="6.14648">
        <ele>1976</ele>
        <time>2024-08-13T12:10:53Z</time>
      </trkpt>
      <trkpt lat="44.8447" lon="6.14648">
        <ele>1976</ele>
        <time>2024-08-13T12:10:54Z</time>
      </trkpt>
      <trkpt lat="44.8447" lon="6.14648">
        <ele>1976.2</ele>
        <time>2024-08-13T12:10:55Z</time>
      </trkpt>
      <trkpt lat="44.8447" lon="6.14648">
        <ele>1976.2</ele>
        <time>2024-08-13T12:10:56Z</time>
      </trkpt>
      <trkpt lat="44.8447" lon="6.14648">
        <ele>1976.2</ele>
        <time>2024-08-13T12:10:57Z</time>
      </trkpt>
      <trkpt lat="44.8447" lon="6.14648">
        <ele>1976.2</ele>
        <time>2024-08-13T12:10:58Z</time>
      </trkpt>
      <trkpt lat="44.8447" lon="6.14648">
        <ele>1976.2</ele>
        <time>2024-08-13T12:10:59Z</time>
      </trkpt>
      <trkpt lat="44.8447" lon="6.14648">
        <ele>1976.4</ele>
        <time>2024-08-13T12:11:00Z</time>
      </trkpt>
      <trkpt lat="44.8447" lon="6.14648">
        <ele>1976.4</ele>
        <time>2024-08-13T12:11:01Z</time>
      </trkpt>
      <trkpt lat="44.8447" lon="6.14648">
        <ele>1976.4</ele>
        <time>2024-08-13T12:11:02Z</time>
      </trkpt>
      <trkpt lat="44.8447" lon="6.14648">
        <ele>1976.4</ele>
        <time>2024-08-13T12:11:03Z</time>
      </trkpt>
      <trkpt lat="44.8447" lon="6.14648">
        <ele>1976.6</ele>
        <time>2024-08-13T12:11:04Z</time>
      </trkpt>
      <trkpt lat="44.8447" lon="6.14648">
        <ele>1976.6</ele>
        <time>2024-08-13T12:11:05Z</time>
      </trkpt>
      <trkpt lat="44.8447" lon="6.14648">
        <ele>1976.6</ele>
        <time>2024-08-13T12:11:06Z</time>
      </trkpt>
      <trkpt lat="44.84472" lon="6.14648">
        <ele>1976.4</ele>
        <time>2024-08-13T12:11:07Z</time>
      </trkpt>
      <trkpt lat="44.84472" lon="6.14648">
        <ele>1976.4</ele>
        <time>2024-08-13T12:11:08Z</time>
      </trkpt>
      <trkpt lat="44.84475" lon="6.14647">
        <ele>1976.4</ele>
        <time>2024-08-13T12:11:09Z</time>
      </trkpt>
      <trkpt lat="44.84477" lon="6.14646">
        <ele>1976.4</ele>
        <time>2024-08-13T12:11:10Z</time>
      </trkpt>
      <trkpt lat="44.84478" lon="6.14646">
        <ele>1976.6</ele>
        <time>2024-08-13T12:11:11Z</time>
      </trkpt>
      <trkpt lat="44.84478" lon="6.14646">
        <ele>1976.6</ele>
        <time>2024-08-13T12:11:12Z</time>
      </trkpt>
      <trkpt lat="44.84482" lon="6.14645">
        <ele>1976.8</ele>
        <time>2024-08-13T12:11:13Z</time>
      </trkpt>
      <trkpt lat="44.84484" lon="6.14645">
        <ele>1977</ele>
        <time>2024-08-13T12:11:14Z</time>
      </trkpt>
      <trkpt lat="44.84484" lon="6.14645">
        <ele>1977</ele>
        <time>2024-08-13T12:11:15Z</time>
      </trkpt>
      <trkpt lat="44.84486" lon="6.14646">
        <ele>1977</ele>
        <time>2024-08-13T12:11:16Z</time>
      </trkpt>
      <trkpt lat="44.84486" lon="6.14646">
        <ele>1977</ele>
        <time>2024-08-13T12:11:17Z</time>
      </trkpt>
      <trkpt lat="44.84489" lon="6.14646">
        <ele>1976.4</ele>
        <time>2024-08-13T12:11:18Z</time>
      </trkpt>
      <trkpt lat="44.84489" lon="6.14646">
        <ele>1976.4</ele>
        <time>2024-08-13T12:11:19Z</time>
      </trkpt>
      <trkpt lat="44.84489" lon="6.14646">
        <ele>1976.4</ele>
        <time>2024-08-13T12:11:20Z</time>
      </trkpt>
      <trkpt lat="44.84491" lon="6.14647">
        <ele>1976.2</ele>
        <time>2024-08-13T12:11:21Z</time>
      </trkpt>
      <trkpt lat="44.84491" lon="6.14647">
        <ele>1976</ele>
        <time>2024-08-13T12:11:22Z</time>
      </trkpt>
      <trkpt lat="44.84491" lon="6.14647">
        <ele>1975.6</ele>
        <time>2024-08-13T12:11:23Z</time>
      </trkpt>
      <trkpt lat="44.84491" lon="6.14647">
        <ele>1975.2</ele>
        <time>2024-08-13T12:11:24Z</time>
      </trkpt>
      <trkpt lat="44.84491" lon="6.14647">
        <ele>1975</ele>
        <time>2024-08-13T12:11:25Z</time>
      </trkpt>
      <trkpt lat="44.84491" lon="6.14647">
        <ele>1975</ele>
        <time>2024-08-13T12:11:26Z</time>
      </trkpt>
      <trkpt lat="44.84491" lon="6.14647">
        <ele>1975</ele>
        <time>2024-08-13T12:11:27Z</time>
      </trkpt>
      <trkpt lat="44.84491" lon="6.14647">
        <ele>1975</ele>
        <time>2024-08-13T12:11:28Z</time>
      </trkpt>
      <trkpt lat="44.84491" lon="6.14647">
        <ele>1975</ele>
        <time>2024-08-13T12:11:29Z</time>
      </trkpt>
      <trkpt lat="44.84492" lon="6.14649">
        <ele>1975</ele>
        <time>2024-08-13T12:11:30Z</time>
      </trkpt>
      <trkpt lat="44.84492" lon="6.14649">
        <ele>1975</ele>
        <time>2024-08-13T12:11:31Z</time>
      </trkpt>
      <trkpt lat="44.84494" lon="6.1465">
        <ele>1974.8</ele>
        <time>2024-08-13T12:11:32Z</time>
      </trkpt>
      <trkpt lat="44.84494" lon="6.1465">
        <ele>1974.8</ele>
        <time>2024-08-13T12:11:33Z</time>
      </trkpt>
      <trkpt lat="44.84496" lon="6.14651">
        <ele>1974.6</ele>
        <time>2024-08-13T12:11:34Z</time>
      </trkpt>
      <trkpt lat="44.84496" lon="6.14651">
        <ele>1974.6</ele>
        <time>2024-08-13T12:11:35Z</time>
      </trkpt>
      <trkpt lat="44.84499" lon="6.1465">
        <ele>1974.4</ele>
        <time>2024-08-13T12:11:36Z</time>
      </trkpt>
      <trkpt lat="44.84499" lon="6.1465">
        <ele>1974</ele>
        <time>2024-08-13T12:11:37Z</time>
      </trkpt>
      <trkpt lat="44.84499" lon="6.1465">
        <ele>1974</ele>
        <time>2024-08-13T12:11:38Z</time>
      </trkpt>
      <trkpt lat="44.84499" lon="6.1465">
        <ele>1973.8</ele>
        <time>2024-08-13T12:11:39Z</time>
      </trkpt>
      <trkpt lat="44.84499" lon="6.1465">
        <ele>1973.8</ele>
        <time>2024-08-13T12:11:40Z</time>
      </trkpt>
      <trkpt lat="44.84499" lon="6.1465">
        <ele>1973.6</ele>
        <time>2024-08-13T12:11:41Z</time>
      </trkpt>
      <trkpt lat="44.84498" lon="6.14647">
        <ele>1973.4</ele>
        <time>2024-08-13T12:11:42Z</time>
      </trkpt>
      <trkpt lat="44.84498" lon="6.14647">
        <ele>1973.2</ele>
        <time>2024-08-13T12:11:43Z</time>
      </trkpt>
      <trkpt lat="44.84498" lon="6.14644">
        <ele>1972.8</ele>
        <time>2024-08-13T12:11:44Z</time>
      </trkpt>
      <trkpt lat="44.84498" lon="6.14644">
        <ele>1972.6</ele>
        <time>2024-08-13T12:11:45Z</time>
      </trkpt>
      <trkpt lat="44.84498" lon="6.14641">
        <ele>1972.4</ele>
        <time>2024-08-13T12:11:46Z</time>
      </trkpt>
      <trkpt lat="44.84498" lon="6.14641">
        <ele>1972.2</ele>
        <time>2024-08-13T12:11:47Z</time>
      </trkpt>
      <trkpt lat="44.84498" lon="6.14639">
        <ele>1971.8</ele>
        <time>2024-08-13T12:11:48Z</time>
      </trkpt>
      <trkpt lat="44.84498" lon="6.14639">
        <ele>1971.4</ele>
        <time>2024-08-13T12:11:49Z</time>
      </trkpt>
      <trkpt lat="44.84498" lon="6.14639">
        <ele>1971</ele>
        <time>2024-08-13T12:11:50Z</time>
      </trkpt>
      <trkpt lat="44.84498" lon="6.14635">
        <ele>1971</ele>
        <time>2024-08-13T12:11:51Z</time>
      </trkpt>
      <trkpt lat="44.84498" lon="6.14635">
        <ele>1970.6</ele>
        <time>2024-08-13T12:11:52Z</time>
      </trkpt>
      <trkpt lat="44.84498" lon="6.14635">
        <ele>1970.4</ele>
        <time>2024-08-13T12:11:53Z</time>
      </trkpt>
      <trkpt lat="44.84498" lon="6.14632">
        <ele>1970</ele>
        <time>2024-08-13T12:11:54Z</time>
      </trkpt>
      <trkpt lat="44.84498" lon="6.14632">
        <ele>1969.8</ele>
        <time>2024-08-13T12:11:55Z</time>
      </trkpt>
      <trkpt lat="44.84496" lon="6.14631">
        <ele>1969.8</ele>
        <time>2024-08-13T12:11:56Z</time>
      </trkpt>
      <trkpt lat="44.84496" lon="6.14631">
        <ele>1969.6</ele>
        <time>2024-08-13T12:11:57Z</time>
      </trkpt>
      <trkpt lat="44.84494" lon="6.1463">
        <ele>1969.4</ele>
        <time>2024-08-13T12:11:58Z</time>
      </trkpt>
      <trkpt lat="44.84494" lon="6.1463">
        <ele>1969.4</ele>
        <time>2024-08-13T12:11:59Z</time>
      </trkpt>
      <trkpt lat="44.84494" lon="6.1463">
        <ele>1969.2</ele>
        <time>2024-08-13T12:12:00Z</time>
      </trkpt>
      <trkpt lat="44.84492" lon="6.14626">
        <ele>1969</ele>
        <time>2024-08-13T12:12:01Z</time>
      </trkpt>
      <trkpt lat="44.84492" lon="6.14626">
        <ele>1968.8</ele>
        <time>2024-08-13T12:12:02Z</time>
      </trkpt>
      <trkpt lat="44.84491" lon="6.14624">
        <ele>1968.8</ele>
        <time>2024-08-13T12:12:03Z</time>
      </trkpt>
      <trkpt lat="44.84491" lon="6.14624">
        <ele>1968.8</ele>
        <time>2024-08-13T12:12:04Z</time>
      </trkpt>
      <trkpt lat="44.84491" lon="6.14624">
        <ele>1968.6</ele>
        <time>2024-08-13T12:12:05Z</time>
      </trkpt>
      <trkpt lat="44.8449" lon="6.14621">
        <ele>1968.4</ele>
        <time>2024-08-13T12:12:06Z</time>
      </trkpt>
      <trkpt lat="44.8449" lon="6.14621">
        <ele>1968.2</ele>
        <time>2024-08-13T12:12:07Z</time>
      </trkpt>
      <trkpt lat="44.84488" lon="6.1462">
        <ele>1968.2</ele>
        <time>2024-08-13T12:12:08Z</time>
      </trkpt>
      <trkpt lat="44.84488" lon="6.1462">
        <ele>1968</ele>
        <time>2024-08-13T12:12:09Z</time>
      </trkpt>
      <trkpt lat="44.84486" lon="6.1462">
        <ele>1967.8</ele>
        <time>2024-08-13T12:12:10Z</time>
      </trkpt>
      <trkpt lat="44.84486" lon="6.1462">
        <ele>1967.6</ele>
        <time>2024-08-13T12:12:11Z</time>
      </trkpt>
      <trkpt lat="44.84484" lon="6.1462">
        <ele>1967.4</ele>
        <time>2024-08-13T12:12:12Z</time>
      </trkpt>
      <trkpt lat="44.84484" lon="6.1462">
        <ele>1967.4</ele>
        <time>2024-08-13T12:12:13Z</time>
      </trkpt>
      <trkpt lat="44.84484" lon="6.1462">
        <ele>1967.4</ele>
        <time>2024-08-13T12:12:14Z</time>
      </trkpt>
      <trkpt lat="44.84481" lon="6.1462">
        <ele>1967.2</ele>
        <time>2024-08-13T12:12:15Z</time>
      </trkpt>
      <trkpt lat="44.84481" lon="6.1462">
        <ele>1967</ele>
        <time>2024-08-13T12:12:16Z</time>
      </trkpt>
      <trkpt lat="44.84481" lon="6.1462">
        <ele>1967</ele>
        <time>2024-08-13T12:12:17Z</time>
      </trkpt>
      <trkpt lat="44.84481" lon="6.1462">
        <ele>1966.4</ele>
        <time>2024-08-13T12:12:18Z</time>
      </trkpt>
      <trkpt lat="44.84482" lon="6.14617">
        <ele>1966</ele>
        <time>2024-08-13T12:12:19Z</time>
      </trkpt>
      <trkpt lat="44.84482" lon="6.14617">
        <ele>1966</ele>
        <time>2024-08-13T12:12:20Z</time>
      </trkpt>
      <trkpt lat="44.84484" lon="6.14615">
        <ele>1966</ele>
        <time>2024-08-13T12:12:21Z</time>
      </trkpt>
      <trkpt lat="44.84484" lon="6.14615">
        <ele>1966</ele>
        <time>2024-08-13T12:12:22Z</time>
      </trkpt>
      <trkpt lat="44.84484" lon="6.14615">
        <ele>1966</ele>
        <time>2024-08-13T12:12:23Z</time>
      </trkpt>
      <trkpt lat="44.84486" lon="6.14613">
        <ele>1965.8</ele>
        <time>2024-08-13T12:12:24Z</time>
      </trkpt>
      <trkpt lat="44.84486" lon="6.14613">
        <ele>1965.4</ele>
        <time>2024-08-13T12:12:25Z</time>
      </trkpt>
      <trkpt lat="44.84486" lon="6.14613">
        <ele>1965</ele>
        <time>2024-08-13T12:12:26Z</time>
      </trkpt>
      <trkpt lat="44.84488" lon="6.14611">
        <ele>1965</ele>
        <time>2024-08-13T12:12:27Z</time>
      </trkpt>
      <trkpt lat="44.84488" lon="6.14611">
        <ele>1965.2</ele>
        <time>2024-08-13T12:12:28Z</time>
      </trkpt>
      <trkpt lat="44.84488" lon="6.14611">
        <ele>1965.2</ele>
        <time>2024-08-13T12:12:29Z</time>
      </trkpt>
      <trkpt lat="44.8449" lon="6.14611">
        <ele>1965</ele>
        <time>2024-08-13T12:12:30Z</time>
      </trkpt>
      <trkpt lat="44.8449" lon="6.14611">
        <ele>1965</ele>
        <time>2024-08-13T12:12:31Z</time>
      </trkpt>
      <trkpt lat="44.84492" lon="6.1461">
        <ele>1965.2</ele>
        <time>2024-08-13T12:12:32Z</time>
      </trkpt>
      <trkpt lat="44.84492" lon="6.1461">
        <ele>1965.2</ele>
        <time>2024-08-13T12:12:33Z</time>
      </trkpt>
      <trkpt lat="44.84494" lon="6.14609">
        <ele>1964.8</ele>
        <time>2024-08-13T12:12:34Z</time>
      </trkpt>
      <trkpt lat="44.84494" lon="6.14609">
        <ele>1964.8</ele>
        <time>2024-08-13T12:12:35Z</time>
      </trkpt>
      <trkpt lat="44.84494" lon="6.14609">
        <ele>1964.6</ele>
        <time>2024-08-13T12:12:36Z</time>
      </trkpt>
      <trkpt lat="44.84496" lon="6.14608">
        <ele>1964.2</ele>
        <time>2024-08-13T12:12:37Z</time>
      </trkpt>
      <trkpt lat="44.84496" lon="6.14608">
        <ele>1964</ele>
        <time>2024-08-13T12:12:38Z</time>
      </trkpt>
      <trkpt lat="44.84496" lon="6.14608">
        <ele>1963.8</ele>
        <time>2024-08-13T12:12:39Z</time>
      </trkpt>
      <trkpt lat="44.84495" lon="6.14605">
        <ele>1963.6</ele>
        <time>2024-08-13T12:12:40Z</time>
      </trkpt>
      <trkpt lat="44.84495" lon="6.14605">
        <ele>1963.6</ele>
        <time>2024-08-13T12:12:41Z</time>
      </trkpt>
      <trkpt lat="44.84495" lon="6.14605">
        <ele>1963.4</ele>
        <time>2024-08-13T12:12:42Z</time>
      </trkpt>
      <trkpt lat="44.84495" lon="6.14605">
        <ele>1963</ele>
        <time>2024-08-13T12:12:43Z</time>
      </trkpt>
      <trkpt lat="44.84493" lon="6.14603">
        <ele>1962.8</ele>
        <time>2024-08-13T12:12:44Z</time>
      </trkpt>
      <trkpt lat="44.84493" lon="6.14603">
        <ele>1962.8</ele>
        <time>2024-08-13T12:12:45Z</time>
      </trkpt>
      <trkpt lat="44.84493" lon="6.14603">
        <ele>1962.6</ele>
        <time>2024-08-13T12:12:46Z</time>
      </trkpt>
      <trkpt lat="44.84493" lon="6.14603">
        <ele>1962.2</ele>
        <time>2024-08-13T12:12:47Z</time>
      </trkpt>
      <trkpt lat="44.84495" lon="6.14601">
        <ele>1962</ele>
        <time>2024-08-13T12:12:48Z</time>
      </trkpt>
      <trkpt lat="44.84495" lon="6.14601">
        <ele>1962</ele>
        <time>2024-08-13T12:12:49Z</time>
      </trkpt>
      <trkpt lat="44.84495" lon="6.14601">
        <ele>1962</ele>
        <time>2024-08-13T12:12:50Z</time>
      </trkpt>
      <trkpt lat="44.84495" lon="6.14601">
        <ele>1962.2</ele>
        <time>2024-08-13T12:12:51Z</time>
      </trkpt>
      <trkpt lat="44.84497" lon="6.14602">
        <ele>1962.2</ele>
        <time>2024-08-13T12:12:52Z</time>
      </trkpt>
      <trkpt lat="44.84497" lon="6.14602">
        <ele>1962.2</ele>
        <time>2024-08-13T12:12:53Z</time>
      </trkpt>
      <trkpt lat="44.845" lon="6.14603">
        <ele>1962</ele>
        <time>2024-08-13T12:12:54Z</time>
      </trkpt>
      <trkpt lat="44.845" lon="6.14603">
        <ele>1961.6</ele>
        <time>2024-08-13T12:12:55Z</time>
      </trkpt>
      <trkpt lat="44.84502" lon="6.14603">
        <ele>1961.6</ele>
        <time>2024-08-13T12:12:56Z</time>
      </trkpt>
      <trkpt lat="44.84502" lon="6.14603">
        <ele>1961.4</ele>
        <time>2024-08-13T12:12:57Z</time>
      </trkpt>
      <trkpt lat="44.84505" lon="6.14601">
        <ele>1961.2</ele>
        <time>2024-08-13T12:12:58Z</time>
      </trkpt>
      <trkpt lat="44.84505" lon="6.14601">
        <ele>1961.2</ele>
        <time>2024-08-13T12:12:59Z</time>
      </trkpt>
      <trkpt lat="44.84507" lon="6.14599">
        <ele>1961</ele>
        <time>2024-08-13T12:13:00Z</time>
      </trkpt>
      <trkpt lat="44.84507" lon="6.14599">
        <ele>1961</ele>
        <time>2024-08-13T12:13:01Z</time>
      </trkpt>
      <trkpt lat="44.84509" lon="6.14598">
        <ele>1961.2</ele>
        <time>2024-08-13T12:13:02Z</time>
      </trkpt>
      <trkpt lat="44.84509" lon="6.14598">
        <ele>1961.2</ele>
        <time>2024-08-13T12:13:03Z</time>
      </trkpt>
      <trkpt lat="44.8451" lon="6.14596">
        <ele>1961</ele>
        <time>2024-08-13T12:13:04Z</time>
      </trkpt>
      <trkpt lat="44.8451" lon="6.14596">
        <ele>1961</ele>
        <time>2024-08-13T12:13:05Z</time>
      </trkpt>
      <trkpt lat="44.84512" lon="6.14595">
        <ele>1961</ele>
        <time>2024-08-13T12:13:06Z</time>
      </trkpt>
      <trkpt lat="44.84512" lon="6.14595">
        <ele>1961</ele>
        <time>2024-08-13T12:13:07Z</time>
      </trkpt>
      <trkpt lat="44.84514" lon="6.14593">
        <ele>1960.8</ele>
        <time>2024-08-13T12:13:08Z</time>
      </trkpt>
      <trkpt lat="44.84514" lon="6.14593">
        <ele>1960.8</ele>
        <time>2024-08-13T12:13:09Z</time>
      </trkpt>
      <trkpt lat="44.84516" lon="6.14591">
        <ele>1960.6</ele>
        <time>2024-08-13T12:13:10Z</time>
      </trkpt>
      <trkpt lat="44.84516" lon="6.14591">
        <ele>1960.6</ele>
        <time>2024-08-13T12:13:11Z</time>
      </trkpt>
      <trkpt lat="44.84518" lon="6.14589">
        <ele>1960.6</ele>
        <time>2024-08-13T12:13:12Z</time>
      </trkpt>
      <trkpt lat="44.84518" lon="6.14589">
        <ele>1960.4</ele>
        <time>2024-08-13T12:13:13Z</time>
      </trkpt>
      <trkpt lat="44.8452" lon="6.14587">
        <ele>1960.2</ele>
        <time>2024-08-13T12:13:14Z</time>
      </trkpt>
      <trkpt lat="44.8452" lon="6.14587">
        <ele>1960.2</ele>
        <time>2024-08-13T12:13:15Z</time>
      </trkpt>
      <trkpt lat="44.84522" lon="6.14586">
        <ele>1960.2</ele>
        <time>2024-08-13T12:13:16Z</time>
      </trkpt>
      <trkpt lat="44.84522" lon="6.14586">
        <ele>1960</ele>
        <time>2024-08-13T12:13:17Z</time>
      </trkpt>
      <trkpt lat="44.84524" lon="6.14584">
        <ele>1960</ele>
        <time>2024-08-13T12:13:18Z</time>
      </trkpt>
      <trkpt lat="44.84524" lon="6.14584">
        <ele>1959.6</ele>
        <time>2024-08-13T12:13:19Z</time>
      </trkpt>
      <trkpt lat="44.84526" lon="6.14583">
        <ele>1959.6</ele>
        <time>2024-08-13T12:13:20Z</time>
      </trkpt>
      <trkpt lat="44.84526" lon="6.14583">
        <ele>1959.6</ele>
        <time>2024-08-13T12:13:21Z</time>
      </trkpt>
      <trkpt lat="44.84528" lon="6.14581">
        <ele>1959.4</ele>
        <time>2024-08-13T12:13:22Z</time>
      </trkpt>
      <trkpt lat="44.84528" lon="6.14581">
        <ele>1959.4</ele>
        <time>2024-08-13T12:13:23Z</time>
      </trkpt>
      <trkpt lat="44.8453" lon="6.1458">
        <ele>1959.4</ele>
        <time>2024-08-13T12:13:24Z</time>
      </trkpt>
      <trkpt lat="44.8453" lon="6.1458">
        <ele>1959.4</ele>
        <time>2024-08-13T12:13:25Z</time>
      </trkpt>
      <trkpt lat="44.84533" lon="6.14579">
        <ele>1959.2</ele>
        <time>2024-08-13T12:13:26Z</time>
      </trkpt>
      <trkpt lat="44.84533" lon="6.14579">
        <ele>1958.8</ele>
        <time>2024-08-13T12:13:27Z</time>
      </trkpt>
      <trkpt lat="44.84535" lon="6.14579">
        <ele>1958.8</ele>
        <time>2024-08-13T12:13:28Z</time>
      </trkpt>
      <trkpt lat="44.84535" lon="6.14579">
        <ele>1958.8</ele>
        <time>2024-08-13T12:13:29Z</time>
      </trkpt>
      <trkpt lat="44.84537" lon="6.14579">
        <ele>1958.8</ele>
        <time>2024-08-13T12:13:30Z</time>
      </trkpt>
      <trkpt lat="44.84537" lon="6.14579">
        <ele>1958.8</ele>
        <time>2024-08-13T12:13:31Z</time>
      </trkpt>
      <trkpt lat="44.84537" lon="6.14579">
        <ele>1958.6</ele>
        <time>2024-08-13T12:13:32Z</time>
      </trkpt>
      <trkpt lat="44.8454" lon="6.14579">
        <ele>1958.4</ele>
        <time>2024-08-13T12:13:33Z</time>
      </trkpt>
      <trkpt lat="44.8454" lon="6.14579">
        <ele>1958.2</ele>
        <time>2024-08-13T12:13:34Z</time>
      </trkpt>
      <trkpt lat="44.84543" lon="6.14579">
        <ele>1958</ele>
        <time>2024-08-13T12:13:35Z</time>
      </trkpt>
      <trkpt lat="44.84543" lon="6.14579">
        <ele>1958</ele>
        <time>2024-08-13T12:13:36Z</time>
      </trkpt>
      <trkpt lat="44.84545" lon="6.1458">
        <ele>1958</ele>
        <time>2024-08-13T12:13:37Z</time>
      </trkpt>
      <trkpt lat="44.84545" lon="6.1458">
        <ele>1958.2</ele>
        <time>2024-08-13T12:13:38Z</time>
      </trkpt>
      <trkpt lat="44.84547" lon="6.14581">
        <ele>1958.2</ele>
        <time>2024-08-13T12:13:39Z</time>
      </trkpt>
      <trkpt lat="44.84547" lon="6.14581">
        <ele>1958</ele>
        <time>2024-08-13T12:13:40Z</time>
      </trkpt>
      <trkpt lat="44.84547" lon="6.14581">
        <ele>1958</ele>
        <time>2024-08-13T12:13:41Z</time>
      </trkpt>
      <trkpt lat="44.8455" lon="6.14582">
        <ele>1958.4</ele>
        <time>2024-08-13T12:13:42Z</time>
      </trkpt>
      <trkpt lat="44.8455" lon="6.14582">
        <ele>1958.4</ele>
        <time>2024-08-13T12:13:43Z</time>
      </trkpt>
      <trkpt lat="44.84553" lon="6.1458">
        <ele>1957.6</ele>
        <time>2024-08-13T12:13:44Z</time>
      </trkpt>
      <trkpt lat="44.84553" lon="6.1458">
        <ele>1957.4</ele>
        <time>2024-08-13T12:13:45Z</time>
      </trkpt>
      <trkpt lat="44.84556" lon="6.14579">
        <ele>1957.4</ele>
        <time>2024-08-13T12:13:46Z</time>
      </trkpt>
      <trkpt lat="44.84556" lon="6.14579">
        <ele>1957.4</ele>
        <time>2024-08-13T12:13:47Z</time>
      </trkpt>
      <trkpt lat="44.84558" lon="6.14578">
        <ele>1957.4</ele>
        <time>2024-08-13T12:13:48Z</time>
      </trkpt>
      <trkpt lat="44.84558" lon="6.14578">
        <ele>1957.2</ele>
        <time>2024-08-13T12:13:49Z</time>
      </trkpt>
      <trkpt lat="44.8456" lon="6.14576">
        <ele>1957.2</ele>
        <time>2024-08-13T12:13:50Z</time>
      </trkpt>
      <trkpt lat="44.8456" lon="6.14576">
        <ele>1957</ele>
        <time>2024-08-13T12:13:51Z</time>
      </trkpt>
      <trkpt lat="44.84562" lon="6.14574">
        <ele>1956.8</ele>
        <time>2024-08-13T12:13:52Z</time>
      </trkpt>
      <trkpt lat="44.84562" lon="6.14574">
        <ele>1956.8</ele>
        <time>2024-08-13T12:13:53Z</time>
      </trkpt>
      <trkpt lat="44.84564" lon="6.14572">
        <ele>1956.8</ele>
        <time>2024-08-13T12:13:54Z</time>
      </trkpt>
      <trkpt lat="44.84564" lon="6.14572">
        <ele>1957.2</ele>
        <time>2024-08-13T12:13:55Z</time>
      </trkpt>
      <trkpt lat="44.84566" lon="6.1457">
        <ele>1957.2</ele>
        <time>2024-08-13T12:13:56Z</time>
      </trkpt>
      <trkpt lat="44.84566" lon="6.1457">
        <ele>1957</ele>
        <time>2024-08-13T12:13:57Z</time>
      </trkpt>
      <trkpt lat="44.84568" lon="6.14568">
        <ele>1956.8</ele>
        <time>2024-08-13T12:13:58Z</time>
      </trkpt>
      <trkpt lat="44.84568" lon="6.14568">
        <ele>1956.8</ele>
        <time>2024-08-13T12:13:59Z</time>
      </trkpt>
      <trkpt lat="44.8457" lon="6.14567">
        <ele>1957</ele>
        <time>2024-08-13T12:14:00Z</time>
      </trkpt>
      <trkpt lat="44.8457" lon="6.14567">
        <ele>1957.2</ele>
        <time>2024-08-13T12:14:01Z</time>
      </trkpt>
      <trkpt lat="44.84572" lon="6.14565">
        <ele>1957</ele>
        <time>2024-08-13T12:14:02Z</time>
      </trkpt>
      <trkpt lat="44.84572" lon="6.14565">
        <ele>1957</ele>
        <time>2024-08-13T12:14:03Z</time>
      </trkpt>
      <trkpt lat="44.84573" lon="6.14563">
        <ele>1957</ele>
        <time>2024-08-13T12:14:04Z</time>
      </trkpt>
      <trkpt lat="44.84573" lon="6.14563">
        <ele>1957.2</ele>
        <time>2024-08-13T12:14:05Z</time>
      </trkpt>
      <trkpt lat="44.84575" lon="6.14561">
        <ele>1957.2</ele>
        <time>2024-08-13T12:14:06Z</time>
      </trkpt>
      <trkpt lat="44.84575" lon="6.14561">
        <ele>1957.2</ele>
        <time>2024-08-13T12:14:07Z</time>
      </trkpt>
      <trkpt lat="44.84577" lon="6.1456">
        <ele>1957.4</ele>
        <time>2024-08-13T12:14:08Z</time>
      </trkpt>
      <trkpt lat="44.84577" lon="6.1456">
        <ele>1957.6</ele>
        <time>2024-08-13T12:14:09Z</time>
      </trkpt>
      <trkpt lat="44.84579" lon="6.14558">
        <ele>1957.6</ele>
        <time>2024-08-13T12:14:10Z</time>
      </trkpt>
      <trkpt lat="44.84579" lon="6.14558">
        <ele>1957.2</ele>
        <time>2024-08-13T12:14:11Z</time>
      </trkpt>
      <trkpt lat="44.84581" lon="6.14556">
        <ele>1956.4</ele>
        <time>2024-08-13T12:14:12Z</time>
      </trkpt>
      <trkpt lat="44.84581" lon="6.14556">
        <ele>1956.2</ele>
        <time>2024-08-13T12:14:13Z</time>
      </trkpt>
      <trkpt lat="44.84582" lon="6.14553">
        <ele>1956</ele>
        <time>2024-08-13T12:14:14Z</time>
      </trkpt>
      <trkpt lat="44.84582" lon="6.14553">
        <ele>1955.8</ele>
        <time>2024-08-13T12:14:15Z</time>
      </trkpt>
      <trkpt lat="44.84584" lon="6.14551">
        <ele>1955.8</ele>
        <time>2024-08-13T12:14:16Z</time>
      </trkpt>
      <trkpt lat="44.84584" lon="6.14551">
        <ele>1955.8</ele>
        <time>2024-08-13T12:14:17Z</time>
      </trkpt>
      <trkpt lat="44.84585" lon="6.14548">
        <ele>1956</ele>
        <time>2024-08-13T12:14:18Z</time>
      </trkpt>
      <trkpt lat="44.84585" lon="6.14548">
        <ele>1956</ele>
        <time>2024-08-13T12:14:19Z</time>
      </trkpt>
      <trkpt lat="44.84587" lon="6.14546">
        <ele>1956.2</ele>
        <time>2024-08-13T12:14:20Z</time>
      </trkpt>
      <trkpt lat="44.84587" lon="6.14546">
        <ele>1956.2</ele>
        <time>2024-08-13T12:14:21Z</time>
      </trkpt>
      <trkpt lat="44.84589" lon="6.14544">
        <ele>1956</ele>
        <time>2024-08-13T12:14:22Z</time>
      </trkpt>
      <trkpt lat="44.84591" lon="6.14544">
        <ele>1955.8</ele>
        <time>2024-08-13T12:14:23Z</time>
      </trkpt>
      <trkpt lat="44.84591" lon="6.14544">
        <ele>1955.6</ele>
        <time>2024-08-13T12:14:24Z</time>
      </trkpt>
      <trkpt lat="44.84593" lon="6.14543">
        <ele>1955.6</ele>
        <time>2024-08-13T12:14:25Z</time>
      </trkpt>
      <trkpt lat="44.84593" lon="6.14543">
        <ele>1955.6</ele>
        <time>2024-08-13T12:14:26Z</time>
      </trkpt>
      <trkpt lat="44.84596" lon="6.14542">
        <ele>1955.8</ele>
        <time>2024-08-13T12:14:27Z</time>
      </trkpt>
      <trkpt lat="44.84596" lon="6.14542">
        <ele>1955.8</ele>
        <time>2024-08-13T12:14:28Z</time>
      </trkpt>
      <trkpt lat="44.84597" lon="6.14541">
        <ele>1955.8</ele>
        <time>2024-08-13T12:14:29Z</time>
      </trkpt>
      <trkpt lat="44.84597" lon="6.14541">
        <ele>1955.8</ele>
        <time>2024-08-13T12:14:30Z</time>
      </trkpt>
      <trkpt lat="44.846" lon="6.1454">
        <ele>1955.6</ele>
        <time>2024-08-13T12:14:31Z</time>
      </trkpt>
      <trkpt lat="44.846" lon="6.1454">
        <ele>1955.6</ele>
        <time>2024-08-13T12:14:32Z</time>
      </trkpt>
      <trkpt lat="44.84602" lon="6.14538">
        <ele>1955.4</ele>
        <time>2024-08-13T12:14:33Z</time>
      </trkpt>
      <trkpt lat="44.84602" lon="6.14538">
        <ele>1955.6</ele>
        <time>2024-08-13T12:14:34Z</time>
      </trkpt>
      <trkpt lat="44.84604" lon="6.14536">
        <ele>1955.4</ele>
        <time>2024-08-13T12:14:35Z</time>
      </trkpt>
      <trkpt lat="44.84604" lon="6.14536">
        <ele>1955.2</ele>
        <time>2024-08-13T12:14:36Z</time>
      </trkpt>
      <trkpt lat="44.84605" lon="6.14534">
        <ele>1955.2</ele>
        <time>2024-08-13T12:14:37Z</time>
      </trkpt>
      <trkpt lat="44.84605" lon="6.14534">
        <ele>1955.2</ele>
        <time>2024-08-13T12:14:38Z</time>
      </trkpt>
      <trkpt lat="44.84605" lon="6.14534">
        <ele>1955</ele>
        <time>2024-08-13T12:14:39Z</time>
      </trkpt>
      <trkpt lat="44.84605" lon="6.14534">
        <ele>1955</ele>
        <time>2024-08-13T12:14:40Z</time>
      </trkpt>
      <trkpt lat="44.84605" lon="6.14534">
        <ele>1955</ele>
        <time>2024-08-13T12:14:41Z</time>
      </trkpt>
      <trkpt lat="44.84605" lon="6.14534">
        <ele>1955</ele>
        <time>2024-08-13T12:14:42Z</time>
      </trkpt>
      <trkpt lat="44.84605" lon="6.14534">
        <ele>1955</ele>
        <time>2024-08-13T12:14:43Z</time>
      </trkpt>
      <trkpt lat="44.84605" lon="6.14534">
        <ele>1955.2</ele>
        <time>2024-08-13T12:14:44Z</time>
      </trkpt>
      <trkpt lat="44.84605" lon="6.14534">
        <ele>1955.2</ele>
        <time>2024-08-13T12:14:45Z</time>
      </trkpt>
      <trkpt lat="44.84607" lon="6.14534">
        <ele>1955.4</ele>
        <time>2024-08-13T12:14:46Z</time>
      </trkpt>
      <trkpt lat="44.84607" lon="6.14534">
        <ele>1955.4</ele>
        <time>2024-08-13T12:14:47Z</time>
      </trkpt>
      <trkpt lat="44.84609" lon="6.14532">
        <ele>1954.8</ele>
        <time>2024-08-13T12:14:48Z</time>
      </trkpt>
      <trkpt lat="44.84609" lon="6.14532">
        <ele>1954.4</ele>
        <time>2024-08-13T12:14:49Z</time>
      </trkpt>
      <trkpt lat="44.84612" lon="6.14531">
        <ele>1954.4</ele>
        <time>2024-08-13T12:14:50Z</time>
      </trkpt>
      <trkpt lat="44.84612" lon="6.14531">
        <ele>1954.4</ele>
        <time>2024-08-13T12:14:51Z</time>
      </trkpt>
      <trkpt lat="44.84614" lon="6.1453">
        <ele>1954.4</ele>
        <time>2024-08-13T12:14:52Z</time>
      </trkpt>
      <trkpt lat="44.84614" lon="6.1453">
        <ele>1954</ele>
        <time>2024-08-13T12:14:53Z</time>
      </trkpt>
      <trkpt lat="44.84616" lon="6.14528">
        <ele>1954</ele>
        <time>2024-08-13T12:14:54Z</time>
      </trkpt>
      <trkpt lat="44.84616" lon="6.14528">
        <ele>1954</ele>
        <time>2024-08-13T12:14:55Z</time>
      </trkpt>
      <trkpt lat="44.84618" lon="6.14526">
        <ele>1954</ele>
        <time>2024-08-13T12:14:56Z</time>
      </trkpt>
      <trkpt lat="44.84618" lon="6.14526">
        <ele>1954</ele>
        <time>2024-08-13T12:14:57Z</time>
      </trkpt>
      <trkpt lat="44.84619" lon="6.14523">
        <ele>1954</ele>
        <time>2024-08-13T12:14:58Z</time>
      </trkpt>
      <trkpt lat="44.84619" lon="6.14523">
        <ele>1954</ele>
        <time>2024-08-13T12:14:59Z</time>
      </trkpt>
      <trkpt lat="44.84619" lon="6.14523">
        <ele>1954</ele>
        <time>2024-08-13T12:15:00Z</time>
      </trkpt>
      <trkpt lat="44.84618" lon="6.14519">
        <ele>1954.2</ele>
        <time>2024-08-13T12:15:01Z</time>
      </trkpt>
      <trkpt lat="44.84618" lon="6.14519">
        <ele>1954.4</ele>
        <time>2024-08-13T12:15:02Z</time>
      </trkpt>
      <trkpt lat="44.84618" lon="6.14516">
        <ele>1954.4</ele>
        <time>2024-08-13T12:15:03Z</time>
      </trkpt>
      <trkpt lat="44.84618" lon="6.14516">
        <ele>1954.2</ele>
        <time>2024-08-13T12:15:04Z</time>
      </trkpt>
      <trkpt lat="44.84617" lon="6.14512">
        <ele>1954.2</ele>
        <time>2024-08-13T12:15:05Z</time>
      </trkpt>
      <trkpt lat="44.84617" lon="6.14512">
        <ele>1954</ele>
        <time>2024-08-13T12:15:06Z</time>
      </trkpt>
      <trkpt lat="44.84617" lon="6.14512">
        <ele>1954</ele>
        <time>2024-08-13T12:15:07Z</time>
      </trkpt>
      <trkpt lat="44.84617" lon="6.1451">
        <ele>1953.8</ele>
        <time>2024-08-13T12:15:08Z</time>
      </trkpt>
      <trkpt lat="44.84617" lon="6.1451">
        <ele>1953.8</ele>
        <time>2024-08-13T12:15:09Z</time>
      </trkpt>
      <trkpt lat="44.84617" lon="6.1451">
        <ele>1953.8</ele>
        <time>2024-08-13T12:15:10Z</time>
      </trkpt>
      <trkpt lat="44.84617" lon="6.1451">
        <ele>1954</ele>
        <time>2024-08-13T12:15:11Z</time>
      </trkpt>
      <trkpt lat="44.84617" lon="6.1451">
        <ele>1954</ele>
        <time>2024-08-13T12:15:12Z</time>
      </trkpt>
      <trkpt lat="44.84617" lon="6.1451">
        <ele>1954</ele>
        <time>2024-08-13T12:15:13Z</time>
      </trkpt>
      <trkpt lat="44.84617" lon="6.1451">
        <ele>1954</ele>
        <time>2024-08-13T12:15:14Z</time>
      </trkpt>
      <trkpt lat="44.84617" lon="6.1451">
        <ele>1954</ele>
        <time>2024-08-13T12:15:15Z</time>
      </trkpt>
      <trkpt lat="44.84617" lon="6.1451">
        <ele>1954</ele>
        <time>2024-08-13T12:15:16Z</time>
      </trkpt>
      <trkpt lat="44.84617" lon="6.1451">
        <ele>1954</ele>
        <time>2024-08-13T12:15:17Z</time>
      </trkpt>
      <trkpt lat="44.84617" lon="6.1451">
        <ele>1954</ele>
        <time>2024-08-13T12:15:18Z</time>
      </trkpt>
      <trkpt lat="44.84617" lon="6.1451">
        <ele>1953.8</ele>
        <time>2024-08-13T12:15:19Z</time>
      </trkpt>
      <trkpt lat="44.84617" lon="6.1451">
        <ele>1953.6</ele>
        <time>2024-08-13T12:15:20Z</time>
      </trkpt>
      <trkpt lat="44.84617" lon="6.1451">
        <ele>1953.6</ele>
        <time>2024-08-13T12:15:21Z</time>
      </trkpt>
      <trkpt lat="44.84617" lon="6.1451">
        <ele>1953.6</ele>
        <time>2024-08-13T12:15:22Z</time>
      </trkpt>
      <trkpt lat="44.84617" lon="6.1451">
        <ele>1953.4</ele>
        <time>2024-08-13T12:15:23Z</time>
      </trkpt>
      <trkpt lat="44.84617" lon="6.1451">
        <ele>1953.4</ele>
        <time>2024-08-13T12:15:24Z</time>
      </trkpt>
      <trkpt lat="44.84617" lon="6.1451">
        <ele>1953.4</ele>
        <time>2024-08-13T12:15:25Z</time>
      </trkpt>
      <trkpt lat="44.84617" lon="6.1451">
        <ele>1953.4</ele>
        <time>2024-08-13T12:15:26Z</time>
      </trkpt>
      <trkpt lat="44.84617" lon="6.1451">
        <ele>1953.4</ele>
        <time>2024-08-13T12:15:27Z</time>
      </trkpt>
      <trkpt lat="44.84617" lon="6.1451">
        <ele>1953.4</ele>
        <time>2024-08-13T12:15:28Z</time>
      </trkpt>
      <trkpt lat="44.84617" lon="6.1451">
        <ele>1953.8</ele>
        <time>2024-08-13T12:15:29Z</time>
      </trkpt>
      <trkpt lat="44.84617" lon="6.1451">
        <ele>1953.8</ele>
        <time>2024-08-13T12:15:30Z</time>
      </trkpt>
      <trkpt lat="44.84617" lon="6.1451">
        <ele>1953.8</ele>
        <time>2024-08-13T12:15:31Z</time>
      </trkpt>
      <trkpt lat="44.84617" lon="6.1451">
        <ele>1953.8</ele>
        <time>2024-08-13T12:15:32Z</time>
      </trkpt>
      <trkpt lat="44.84617" lon="6.1451">
        <ele>1953.8</ele>
        <time>2024-08-13T12:15:33Z</time>
      </trkpt>
      <trkpt lat="44.84617" lon="6.1451">
        <ele>1953.6</ele>
        <time>2024-08-13T12:15:34Z</time>
      </trkpt>
      <trkpt lat="44.84617" lon="6.1451">
        <ele>1953.6</ele>
        <time>2024-08-13T12:15:35Z</time>
      </trkpt>
      <trkpt lat="44.84617" lon="6.1451">
        <ele>1953.6</ele>
        <time>2024-08-13T12:15:36Z</time>
      </trkpt>
      <trkpt lat="44.84617" lon="6.1451">
        <ele>1953.8</ele>
        <time>2024-08-13T12:15:37Z</time>
      </trkpt>
      <trkpt lat="44.84617" lon="6.1451">
        <ele>1954</ele>
        <time>2024-08-13T12:15:38Z</time>
      </trkpt>
      <trkpt lat="44.84617" lon="6.1451">
        <ele>1954</ele>
        <time>2024-08-13T12:15:39Z</time>
      </trkpt>
      <trkpt lat="44.84617" lon="6.1451">
        <ele>1954</ele>
        <time>2024-08-13T12:15:40Z</time>
      </trkpt>
      <trkpt lat="44.84617" lon="6.1451">
        <ele>1954</ele>
        <time>2024-08-13T12:15:41Z</time>
      </trkpt>
      <trkpt lat="44.84617" lon="6.1451">
        <ele>1954</ele>
        <time>2024-08-13T12:15:42Z</time>
      </trkpt>
      <trkpt lat="44.84617" lon="6.1451">
        <ele>1954</ele>
        <time>2024-08-13T12:15:43Z</time>
      </trkpt>
      <trkpt lat="44.84617" lon="6.1451">
        <ele>1954</ele>
        <time>2024-08-13T12:15:44Z</time>
      </trkpt>
      <trkpt lat="44.84617" lon="6.1451">
        <ele>1954</ele>
        <time>2024-08-13T12:15:45Z</time>
      </trkpt>
      <trkpt lat="44.84617" lon="6.1451">
        <ele>1954</ele>
        <time>2024-08-13T12:15:46Z</time>
      </trkpt>
      <trkpt lat="44.84617" lon="6.1451">
        <ele>1954</ele>
        <time>2024-08-13T12:15:47Z</time>
      </trkpt>
      <trkpt lat="44.84617" lon="6.1451">
        <ele>1954</ele>
        <time>2024-08-13T12:15:48Z</time>
      </trkpt>
      <trkpt lat="44.84617" lon="6.1451">
        <ele>1954</ele>
        <time>2024-08-13T12:15:49Z</time>
      </trkpt>
      <trkpt lat="44.84617" lon="6.1451">
        <ele>1953.8</ele>
        <time>2024-08-13T12:15:50Z</time>
      </trkpt>
      <trkpt lat="44.84617" lon="6.1451">
        <ele>1953.8</ele>
        <time>2024-08-13T12:15:51Z</time>
      </trkpt>
      <trkpt lat="44.84617" lon="6.1451">
        <ele>1953.8</ele>
        <time>2024-08-13T12:15:52Z</time>
      </trkpt>
      <trkpt lat="44.84617" lon="6.1451">
        <ele>1953.8</ele>
        <time>2024-08-13T12:15:53Z</time>
      </trkpt>
      <trkpt lat="44.84617" lon="6.1451">
        <ele>1953.8</ele>
        <time>2024-08-13T12:15:54Z</time>
      </trkpt>
      <trkpt lat="44.84617" lon="6.1451">
        <ele>1953.6</ele>
        <time>2024-08-13T12:15:55Z</time>
      </trkpt>
      <trkpt lat="44.84617" lon="6.1451">
        <ele>1953.4</ele>
        <time>2024-08-13T12:15:56Z</time>
      </trkpt>
      <trkpt lat="44.84617" lon="6.1451">
        <ele>1953.4</ele>
        <time>2024-08-13T12:15:57Z</time>
      </trkpt>
      <trkpt lat="44.84617" lon="6.1451">
        <ele>1953.6</ele>
        <time>2024-08-13T12:15:58Z</time>
      </trkpt>
      <trkpt lat="44.84617" lon="6.1451">
        <ele>1953.6</ele>
        <time>2024-08-13T12:15:59Z</time>
      </trkpt>
      <trkpt lat="44.84617" lon="6.1451">
        <ele>1953.6</ele>
        <time>2024-08-13T12:16:00Z</time>
      </trkpt>
      <trkpt lat="44.84617" lon="6.1451">
        <ele>1953.6</ele>
        <time>2024-08-13T12:16:01Z</time>
      </trkpt>
      <trkpt lat="44.84617" lon="6.1451">
        <ele>1953.6</ele>
        <time>2024-08-13T12:16:02Z</time>
      </trkpt>
      <trkpt lat="44.84617" lon="6.1451">
        <ele>1953.6</ele>
        <time>2024-08-13T12:16:03Z</time>
      </trkpt>
      <trkpt lat="44.84617" lon="6.1451">
        <ele>1953.6</ele>
        <time>2024-08-13T12:16:04Z</time>
      </trkpt>
      <trkpt lat="44.84617" lon="6.1451">
        <ele>1953.6</ele>
        <time>2024-08-13T12:16:05Z</time>
      </trkpt>
      <trkpt lat="44.84617" lon="6.14507">
        <ele>1953.6</ele>
        <time>2024-08-13T12:16:06Z</time>
      </trkpt>
      <trkpt lat="44.84617" lon="6.14507">
        <ele>1953.6</ele>
        <time>2024-08-13T12:16:07Z</time>
      </trkpt>
      <trkpt lat="44.84617" lon="6.14503">
        <ele>1953.6</ele>
        <time>2024-08-13T12:16:08Z</time>
      </trkpt>
      <trkpt lat="44.84618" lon="6.145">
        <ele>1953.2</ele>
        <time>2024-08-13T12:16:09Z</time>
      </trkpt>
      <trkpt lat="44.84619" lon="6.14498">
        <ele>1953</ele>
        <time>2024-08-13T12:16:10Z</time>
      </trkpt>
      <trkpt lat="44.84619" lon="6.14498">
        <ele>1953</ele>
        <time>2024-08-13T12:16:11Z</time>
      </trkpt>
      <trkpt lat="44.84619" lon="6.14494">
        <ele>1953</ele>
        <time>2024-08-13T12:16:12Z</time>
      </trkpt>
      <trkpt lat="44.84619" lon="6.14494">
        <ele>1953</ele>
        <time>2024-08-13T12:16:13Z</time>
      </trkpt>
      <trkpt lat="44.84618" lon="6.14491">
        <ele>1952.6</ele>
        <time>2024-08-13T12:16:14Z</time>
      </trkpt>
      <trkpt lat="44.84618" lon="6.14491">
        <ele>1952.2</ele>
        <time>2024-08-13T12:16:15Z</time>
      </trkpt>
      <trkpt lat="44.84618" lon="6.14487">
        <ele>1952.2</ele>
        <time>2024-08-13T12:16:16Z</time>
      </trkpt>
      <trkpt lat="44.84618" lon="6.14487">
        <ele>1952.2</ele>
        <time>2024-08-13T12:16:17Z</time>
      </trkpt>
      <trkpt lat="44.84618" lon="6.14483">
        <ele>1952.2</ele>
        <time>2024-08-13T12:16:18Z</time>
      </trkpt>
      <trkpt lat="44.84618" lon="6.14483">
        <ele>1952</ele>
        <time>2024-08-13T12:16:19Z</time>
      </trkpt>
      <trkpt lat="44.84618" lon="6.1448">
        <ele>1952</ele>
        <time>2024-08-13T12:16:20Z</time>
      </trkpt>
      <trkpt lat="44.84618" lon="6.1448">
        <ele>1952.2</ele>
        <time>2024-08-13T12:16:21Z</time>
      </trkpt>
      <trkpt lat="44.84619" lon="6.14477">
        <ele>1952</ele>
        <time>2024-08-13T12:16:22Z</time>
      </trkpt>
      <trkpt lat="44.84619" lon="6.14477">
        <ele>1951.6</ele>
        <time>2024-08-13T12:16:23Z</time>
      </trkpt>
      <trkpt lat="44.8462" lon="6.14473">
        <ele>1951.2</ele>
        <time>2024-08-13T12:16:24Z</time>
      </trkpt>
      <trkpt lat="44.8462" lon="6.14473">
        <ele>1951.2</ele>
        <time>2024-08-13T12:16:25Z</time>
      </trkpt>
      <trkpt lat="44.8462" lon="6.1447">
        <ele>1951.4</ele>
        <time>2024-08-13T12:16:26Z</time>
      </trkpt>
      <trkpt lat="44.8462" lon="6.1447">
        <ele>1951.4</ele>
        <time>2024-08-13T12:16:27Z</time>
      </trkpt>
      <trkpt lat="44.8462" lon="6.14466">
        <ele>1951.2</ele>
        <time>2024-08-13T12:16:28Z</time>
      </trkpt>
      <trkpt lat="44.8462" lon="6.14466">
        <ele>1951.2</ele>
        <time>2024-08-13T12:16:29Z</time>
      </trkpt>
      <trkpt lat="44.84621" lon="6.14464">
        <ele>1951.4</ele>
        <time>2024-08-13T12:16:30Z</time>
      </trkpt>
      <trkpt lat="44.84621" lon="6.14464">
        <ele>1951.8</ele>
        <time>2024-08-13T12:16:31Z</time>
      </trkpt>
      <trkpt lat="44.84621" lon="6.1446">
        <ele>1952</ele>
        <time>2024-08-13T12:16:32Z</time>
      </trkpt>
      <trkpt lat="44.84621" lon="6.1446">
        <ele>1952</ele>
        <time>2024-08-13T12:16:33Z</time>
      </trkpt>
      <trkpt lat="44.84623" lon="6.14457">
        <ele>1952</ele>
        <time>2024-08-13T12:16:34Z</time>
      </trkpt>
      <trkpt lat="44.84623" lon="6.14457">
        <ele>1951.4</ele>
        <time>2024-08-13T12:16:35Z</time>
      </trkpt>
      <trkpt lat="44.84625" lon="6.14455">
        <ele>1950.6</ele>
        <time>2024-08-13T12:16:36Z</time>
      </trkpt>
      <trkpt lat="44.84625" lon="6.14455">
        <ele>1950.4</ele>
        <time>2024-08-13T12:16:37Z</time>
      </trkpt>
      <trkpt lat="44.84627" lon="6.14455">
        <ele>1950.4</ele>
        <time>2024-08-13T12:16:38Z</time>
      </trkpt>
      <trkpt lat="44.84627" lon="6.14455">
        <ele>1950.4</ele>
        <time>2024-08-13T12:16:39Z</time>
      </trkpt>
      <trkpt lat="44.84629" lon="6.14456">
        <ele>1950.6</ele>
        <time>2024-08-13T12:16:40Z</time>
      </trkpt>
      <trkpt lat="44.84629" lon="6.14456">
        <ele>1950.6</ele>
        <time>2024-08-13T12:16:41Z</time>
      </trkpt>
      <trkpt lat="44.84629" lon="6.14456">
        <ele>1950.8</ele>
        <time>2024-08-13T12:16:42Z</time>
      </trkpt>
      <trkpt lat="44.84631" lon="6.14456">
        <ele>1950.8</ele>
        <time>2024-08-13T12:16:43Z</time>
      </trkpt>
      <trkpt lat="44.84631" lon="6.14456">
        <ele>1950.8</ele>
        <time>2024-08-13T12:16:44Z</time>
      </trkpt>
      <trkpt lat="44.84631" lon="6.14456">
        <ele>1951</ele>
        <time>2024-08-13T12:16:45Z</time>
      </trkpt>
      <trkpt lat="44.84633" lon="6.14455">
        <ele>1951</ele>
        <time>2024-08-13T12:16:46Z</time>
      </trkpt>
      <trkpt lat="44.84633" lon="6.14455">
        <ele>1951</ele>
        <time>2024-08-13T12:16:47Z</time>
      </trkpt>
      <trkpt lat="44.84634" lon="6.14452">
        <ele>1951.2</ele>
        <time>2024-08-13T12:16:48Z</time>
      </trkpt>
      <trkpt lat="44.84634" lon="6.14452">
        <ele>1951.4</ele>
        <time>2024-08-13T12:16:49Z</time>
      </trkpt>
      <trkpt lat="44.84634" lon="6.14449">
        <ele>1951.4</ele>
        <time>2024-08-13T12:16:50Z</time>
      </trkpt>
      <trkpt lat="44.84634" lon="6.14449">
        <ele>1951.4</ele>
        <time>2024-08-13T12:16:51Z</time>
      </trkpt>
      <trkpt lat="44.84636" lon="6.14448">
        <ele>1951.6</ele>
        <time>2024-08-13T12:16:52Z</time>
      </trkpt>
      <trkpt lat="44.84636" lon="6.14448">
        <ele>1951.8</ele>
        <time>2024-08-13T12:16:53Z</time>
      </trkpt>
      <trkpt lat="44.84637" lon="6.14446">
        <ele>1952</ele>
        <time>2024-08-13T12:16:54Z</time>
      </trkpt>
      <trkpt lat="44.84637" lon="6.14446">
        <ele>1952</ele>
        <time>2024-08-13T12:16:55Z</time>
      </trkpt>
      <trkpt lat="44.84637" lon="6.14446">
        <ele>1952</ele>
        <time>2024-08-13T12:16:56Z</time>
      </trkpt>
      <trkpt lat="44.84639" lon="6.14443">
        <ele>1952</ele>
        <time>2024-08-13T12:16:57Z</time>
      </trkpt>
      <trkpt lat="44.84639" lon="6.14443">
        <ele>1952</ele>
        <time>2024-08-13T12:16:58Z</time>
      </trkpt>
      <trkpt lat="44.84639" lon="6.14443">
        <ele>1952.2</ele>
        <time>2024-08-13T12:16:59Z</time>
      </trkpt>
      <trkpt lat="44.84641" lon="6.14442">
        <ele>1952.4</ele>
        <time>2024-08-13T12:17:00Z</time>
      </trkpt>
      <trkpt lat="44.84641" lon="6.14442">
        <ele>1952.6</ele>
        <time>2024-08-13T12:17:01Z</time>
      </trkpt>
      <trkpt lat="44.84641" lon="6.14442">
        <ele>1952.8</ele>
        <time>2024-08-13T12:17:02Z</time>
      </trkpt>
      <trkpt lat="44.84643" lon="6.1444">
        <ele>1952.8</ele>
        <time>2024-08-13T12:17:03Z</time>
      </trkpt>
      <trkpt lat="44.84643" lon="6.1444">
        <ele>1952.8</ele>
        <time>2024-08-13T12:17:04Z</time>
      </trkpt>
      <trkpt lat="44.84643" lon="6.1444">
        <ele>1953</ele>
        <time>2024-08-13T12:17:05Z</time>
      </trkpt>
      <trkpt lat="44.84644" lon="6.14438">
        <ele>1953</ele>
        <time>2024-08-13T12:17:06Z</time>
      </trkpt>
      <trkpt lat="44.84644" lon="6.14438">
        <ele>1953.4</ele>
        <time>2024-08-13T12:17:07Z</time>
      </trkpt>
      <trkpt lat="44.84646" lon="6.14437">
        <ele>1953.4</ele>
        <time>2024-08-13T12:17:08Z</time>
      </trkpt>
      <trkpt lat="44.84646" lon="6.14437">
        <ele>1953.6</ele>
        <time>2024-08-13T12:17:09Z</time>
      </trkpt>
      <trkpt lat="44.84646" lon="6.14437">
        <ele>1953.6</ele>
        <time>2024-08-13T12:17:10Z</time>
      </trkpt>
      <trkpt lat="44.84648" lon="6.14435">
        <ele>1953.6</ele>
        <time>2024-08-13T12:17:11Z</time>
      </trkpt>
      <trkpt lat="44.84648" lon="6.14435">
        <ele>1953.8</ele>
        <time>2024-08-13T12:17:12Z</time>
      </trkpt>
      <trkpt lat="44.8465" lon="6.14433">
        <ele>1953.8</ele>
        <time>2024-08-13T12:17:13Z</time>
      </trkpt>
      <trkpt lat="44.8465" lon="6.14433">
        <ele>1954</ele>
        <time>2024-08-13T12:17:14Z</time>
      </trkpt>
      <trkpt lat="44.84652" lon="6.14432">
        <ele>1954.2</ele>
        <time>2024-08-13T12:17:15Z</time>
      </trkpt>
      <trkpt lat="44.84652" lon="6.14432">
        <ele>1954.4</ele>
        <time>2024-08-13T12:17:16Z</time>
      </trkpt>
      <trkpt lat="44.84653" lon="6.14431">
        <ele>1954.4</ele>
        <time>2024-08-13T12:17:17Z</time>
      </trkpt>
      <trkpt lat="44.84653" lon="6.14431">
        <ele>1954.4</ele>
        <time>2024-08-13T12:17:18Z</time>
      </trkpt>
      <trkpt lat="44.84655" lon="6.14429">
        <ele>1954.6</ele>
        <time>2024-08-13T12:17:19Z</time>
      </trkpt>
      <trkpt lat="44.84655" lon="6.14429">
        <ele>1954.8</ele>
        <time>2024-08-13T12:17:20Z</time>
      </trkpt>
      <trkpt lat="44.84657" lon="6.14428">
        <ele>1954.8</ele>
        <time>2024-08-13T12:17:21Z</time>
      </trkpt>
      <trkpt lat="44.84657" lon="6.14428">
        <ele>1954.8</ele>
        <time>2024-08-13T12:17:22Z</time>
      </trkpt>
      <trkpt lat="44.84657" lon="6.14428">
        <ele>1955</ele>
        <time>2024-08-13T12:17:23Z</time>
      </trkpt>
      <trkpt lat="44.84659" lon="6.14426">
        <ele>1955.6</ele>
        <time>2024-08-13T12:17:24Z</time>
      </trkpt>
      <trkpt lat="44.84659" lon="6.14426">
        <ele>1955.8</ele>
        <time>2024-08-13T12:17:25Z</time>
      </trkpt>
      <trkpt lat="44.84661" lon="6.14425">
        <ele>1955.8</ele>
        <time>2024-08-13T12:17:26Z</time>
      </trkpt>
      <trkpt lat="44.84661" lon="6.14425">
        <ele>1955.8</ele>
        <time>2024-08-13T12:17:27Z</time>
      </trkpt>
      <trkpt lat="44.84663" lon="6.14424">
        <ele>1956</ele>
        <time>2024-08-13T12:17:28Z</time>
      </trkpt>
      <trkpt lat="44.84663" lon="6.14424">
        <ele>1956.6</ele>
        <time>2024-08-13T12:17:29Z</time>
      </trkpt>
      <trkpt lat="44.84663" lon="6.14424">
        <ele>1956.6</ele>
        <time>2024-08-13T12:17:30Z</time>
      </trkpt>
      <trkpt lat="44.84665" lon="6.14424">
        <ele>1956.8</ele>
        <time>2024-08-13T12:17:31Z</time>
      </trkpt>
      <trkpt lat="44.84665" lon="6.14424">
        <ele>1957</ele>
        <time>2024-08-13T12:17:32Z</time>
      </trkpt>
      <trkpt lat="44.84667" lon="6.14424">
        <ele>1957.6</ele>
        <time>2024-08-13T12:17:33Z</time>
      </trkpt>
      <trkpt lat="44.84667" lon="6.14424">
        <ele>1957.8</ele>
        <time>2024-08-13T12:17:34Z</time>
      </trkpt>
      <trkpt lat="44.84667" lon="6.14424">
        <ele>1958.2</ele>
        <time>2024-08-13T12:17:35Z</time>
      </trkpt>
      <trkpt lat="44.84669" lon="6.14424">
        <ele>1958.6</ele>
        <time>2024-08-13T12:17:36Z</time>
      </trkpt>
      <trkpt lat="44.84669" lon="6.14424">
        <ele>1958.6</ele>
        <time>2024-08-13T12:17:37Z</time>
      </trkpt>
      <trkpt lat="44.84669" lon="6.14424">
        <ele>1958.8</ele>
        <time>2024-08-13T12:17:38Z</time>
      </trkpt>
      <trkpt lat="44.84672" lon="6.14424">
        <ele>1959.4</ele>
        <time>2024-08-13T12:17:39Z</time>
      </trkpt>
      <trkpt lat="44.84672" lon="6.14424">
        <ele>1959.6</ele>
        <time>2024-08-13T12:17:40Z</time>
      </trkpt>
      <trkpt lat="44.84675" lon="6.14424">
        <ele>1960</ele>
        <time>2024-08-13T12:17:41Z</time>
      </trkpt>
      <trkpt lat="44.84675" lon="6.14424">
        <ele>1960.2</ele>
        <time>2024-08-13T12:17:42Z</time>
      </trkpt>
      <trkpt lat="44.84677" lon="6.14424">
        <ele>1960.6</ele>
        <time>2024-08-13T12:17:43Z</time>
      </trkpt>
      <trkpt lat="44.84677" lon="6.14424">
        <ele>1960.8</ele>
        <time>2024-08-13T12:17:44Z</time>
      </trkpt>
      <trkpt lat="44.84677" lon="6.14424">
        <ele>1961</ele>
        <time>2024-08-13T12:17:45Z</time>
      </trkpt>
      <trkpt lat="44.84677" lon="6.14424">
        <ele>1961.4</ele>
        <time>2024-08-13T12:17:46Z</time>
      </trkpt>
      <trkpt lat="44.84677" lon="6.14424">
        <ele>1961.6</ele>
        <time>2024-08-13T12:17:47Z</time>
      </trkpt>
      <trkpt lat="44.84679" lon="6.14423">
        <ele>1961.8</ele>
        <time>2024-08-13T12:17:48Z</time>
      </trkpt>
      <trkpt lat="44.84679" lon="6.14423">
        <ele>1961.8</ele>
        <time>2024-08-13T12:17:49Z</time>
      </trkpt>
      <trkpt lat="44.84681" lon="6.14423">
        <ele>1961.6</ele>
        <time>2024-08-13T12:17:50Z</time>
      </trkpt>
      <trkpt lat="44.84681" lon="6.14423">
        <ele>1961.6</ele>
        <time>2024-08-13T12:17:51Z</time>
      </trkpt>
      <trkpt lat="44.84681" lon="6.14423">
        <ele>1961.8</ele>
        <time>2024-08-13T12:17:52Z</time>
      </trkpt>
      <trkpt lat="44.84683" lon="6.14422">
        <ele>1961.8</ele>
        <time>2024-08-13T12:17:53Z</time>
      </trkpt>
      <trkpt lat="44.84683" lon="6.14422">
        <ele>1961.8</ele>
        <time>2024-08-13T12:17:54Z</time>
      </trkpt>
      <trkpt lat="44.84685" lon="6.14422">
        <ele>1962</ele>
        <time>2024-08-13T12:17:55Z</time>
      </trkpt>
      <trkpt lat="44.84685" lon="6.14422">
        <ele>1962</ele>
        <time>2024-08-13T12:17:56Z</time>
      </trkpt>
      <trkpt lat="44.84685" lon="6.14422">
        <ele>1962.4</ele>
        <time>2024-08-13T12:17:57Z</time>
      </trkpt>
      <trkpt lat="44.84687" lon="6.14422">
        <ele>1962.6</ele>
        <time>2024-08-13T12:17:58Z</time>
      </trkpt>
      <trkpt lat="44.84687" lon="6.14422">
        <ele>1962.8</ele>
        <time>2024-08-13T12:17:59Z</time>
      </trkpt>
      <trkpt lat="44.84689" lon="6.14422">
        <ele>1962.8</ele>
        <time>2024-08-13T12:18:00Z</time>
      </trkpt>
      <trkpt lat="44.84689" lon="6.14422">
        <ele>1963</ele>
        <time>2024-08-13T12:18:01Z</time>
      </trkpt>
      <trkpt lat="44.84692" lon="6.14422">
        <ele>1963.6</ele>
        <time>2024-08-13T12:18:02Z</time>
      </trkpt>
      <trkpt lat="44.84692" lon="6.14422">
        <ele>1963.6</ele>
        <time>2024-08-13T12:18:03Z</time>
      </trkpt>
      <trkpt lat="44.84692" lon="6.14422">
        <ele>1963.8</ele>
        <time>2024-08-13T12:18:04Z</time>
      </trkpt>
      <trkpt lat="44.84694" lon="6.14423">
        <ele>1963.8</ele>
        <time>2024-08-13T12:18:05Z</time>
      </trkpt>
      <trkpt lat="44.84694" lon="6.14423">
        <ele>1963.6</ele>
        <time>2024-08-13T12:18:06Z</time>
      </trkpt>
      <trkpt lat="44.84696" lon="6.14422">
        <ele>1963.6</ele>
        <time>2024-08-13T12:18:07Z</time>
      </trkpt>
      <trkpt lat="44.84696" lon="6.14422">
        <ele>1963.6</ele>
        <time>2024-08-13T12:18:08Z</time>
      </trkpt>
      <trkpt lat="44.84698" lon="6.14422">
        <ele>1963.4</ele>
        <time>2024-08-13T12:18:09Z</time>
      </trkpt>
      <trkpt lat="44.84698" lon="6.14422">
        <ele>1963</ele>
        <time>2024-08-13T12:18:10Z</time>
      </trkpt>
      <trkpt lat="44.847" lon="6.14423">
        <ele>1963</ele>
        <time>2024-08-13T12:18:11Z</time>
      </trkpt>
      <trkpt lat="44.847" lon="6.14423">
        <ele>1963</ele>
        <time>2024-08-13T12:18:12Z</time>
      </trkpt>
      <trkpt lat="44.847" lon="6.14423">
        <ele>1963</ele>
        <time>2024-08-13T12:18:13Z</time>
      </trkpt>
      <trkpt lat="44.84703" lon="6.14423">
        <ele>1963.2</ele>
        <time>2024-08-13T12:18:14Z</time>
      </trkpt>
      <trkpt lat="44.84703" lon="6.14423">
        <ele>1963.4</ele>
        <time>2024-08-13T12:18:15Z</time>
      </trkpt>
      <trkpt lat="44.84705" lon="6.14422">
        <ele>1963.6</ele>
        <time>2024-08-13T12:18:16Z</time>
      </trkpt>
      <trkpt lat="44.84705" lon="6.14422">
        <ele>1963.8</ele>
        <time>2024-08-13T12:18:17Z</time>
      </trkpt>
      <trkpt lat="44.84707" lon="6.14422">
        <ele>1963.8</ele>
        <time>2024-08-13T12:18:18Z</time>
      </trkpt>
      <trkpt lat="44.84707" lon="6.14422">
        <ele>1964.2</ele>
        <time>2024-08-13T12:18:19Z</time>
      </trkpt>
      <trkpt lat="44.84709" lon="6.14421">
        <ele>1964.2</ele>
        <time>2024-08-13T12:18:20Z</time>
      </trkpt>
      <trkpt lat="44.84709" lon="6.14421">
        <ele>1964.2</ele>
        <time>2024-08-13T12:18:21Z</time>
      </trkpt>
      <trkpt lat="44.84711" lon="6.1442">
        <ele>1964.2</ele>
        <time>2024-08-13T12:18:22Z</time>
      </trkpt>
      <trkpt lat="44.84711" lon="6.1442">
        <ele>1964</ele>
        <time>2024-08-13T12:18:23Z</time>
      </trkpt>
      <trkpt lat="44.84713" lon="6.14419">
        <ele>1963.8</ele>
        <time>2024-08-13T12:18:24Z</time>
      </trkpt>
      <trkpt lat="44.84713" lon="6.14419">
        <ele>1963.8</ele>
        <time>2024-08-13T12:18:25Z</time>
      </trkpt>
      <trkpt lat="44.84714" lon="6.14418">
        <ele>1963.8</ele>
        <time>2024-08-13T12:18:26Z</time>
      </trkpt>
      <trkpt lat="44.84714" lon="6.14418">
        <ele>1963.8</ele>
        <time>2024-08-13T12:18:27Z</time>
      </trkpt>
      <trkpt lat="44.84714" lon="6.14418">
        <ele>1963.8</ele>
        <time>2024-08-13T12:18:28Z</time>
      </trkpt>
      <trkpt lat="44.84716" lon="6.14415">
        <ele>1964.2</ele>
        <time>2024-08-13T12:18:29Z</time>
      </trkpt>
      <trkpt lat="44.84716" lon="6.14415">
        <ele>1964.2</ele>
        <time>2024-08-13T12:18:30Z</time>
      </trkpt>
      <trkpt lat="44.84717" lon="6.14413">
        <ele>1964.2</ele>
        <time>2024-08-13T12:18:31Z</time>
      </trkpt>
      <trkpt lat="44.84717" lon="6.14413">
        <ele>1964.2</ele>
        <time>2024-08-13T12:18:32Z</time>
      </trkpt>
      <trkpt lat="44.84718" lon="6.1441">
        <ele>1964.4</ele>
        <time>2024-08-13T12:18:33Z</time>
      </trkpt>
      <trkpt lat="44.84718" lon="6.1441">
        <ele>1964.6</ele>
        <time>2024-08-13T12:18:34Z</time>
      </trkpt>
      <trkpt lat="44.84719" lon="6.14407">
        <ele>1964.6</ele>
        <time>2024-08-13T12:18:35Z</time>
      </trkpt>
      <trkpt lat="44.84719" lon="6.14407">
        <ele>1965</ele>
        <time>2024-08-13T12:18:36Z</time>
      </trkpt>
      <trkpt lat="44.8472" lon="6.14405">
        <ele>1965.2</ele>
        <time>2024-08-13T12:18:37Z</time>
      </trkpt>
      <trkpt lat="44.8472" lon="6.14405">
        <ele>1965.2</ele>
        <time>2024-08-13T12:18:38Z</time>
      </trkpt>
      <trkpt lat="44.84721" lon="6.14402">
        <ele>1965.2</ele>
        <time>2024-08-13T12:18:39Z</time>
      </trkpt>
      <trkpt lat="44.84721" lon="6.14402">
        <ele>1965.4</ele>
        <time>2024-08-13T12:18:40Z</time>
      </trkpt>
      <trkpt lat="44.84721" lon="6.14399">
        <ele>1965.4</ele>
        <time>2024-08-13T12:18:41Z</time>
      </trkpt>
      <trkpt lat="44.84721" lon="6.14399">
        <ele>1965.6</ele>
        <time>2024-08-13T12:18:42Z</time>
      </trkpt>
      <trkpt lat="44.84722" lon="6.14396">
        <ele>1966</ele>
        <time>2024-08-13T12:18:43Z</time>
      </trkpt>
      <trkpt lat="44.84722" lon="6.14396">
        <ele>1966.2</ele>
        <time>2024-08-13T12:18:44Z</time>
      </trkpt>
      <trkpt lat="44.84722" lon="6.14393">
        <ele>1966.2</ele>
        <time>2024-08-13T12:18:45Z</time>
      </trkpt>
      <trkpt lat="44.84722" lon="6.14393">
        <ele>1966.2</ele>
        <time>2024-08-13T12:18:46Z</time>
      </trkpt>
      <trkpt lat="44.84723" lon="6.14391">
        <ele>1966.2</ele>
        <time>2024-08-13T12:18:47Z</time>
      </trkpt>
      <trkpt lat="44.84723" lon="6.14391">
        <ele>1966.4</ele>
        <time>2024-08-13T12:18:48Z</time>
      </trkpt>
      <trkpt lat="44.84723" lon="6.14391">
        <ele>1966.4</ele>
        <time>2024-08-13T12:18:49Z</time>
      </trkpt>
      <trkpt lat="44.84725" lon="6.14387">
        <ele>1966.4</ele>
        <time>2024-08-13T12:18:50Z</time>
      </trkpt>
      <trkpt lat="44.84725" lon="6.14387">
        <ele>1966.6</ele>
        <time>2024-08-13T12:18:51Z</time>
      </trkpt>
      <trkpt lat="44.84726" lon="6.14386">
        <ele>1966.6</ele>
        <time>2024-08-13T12:18:52Z</time>
      </trkpt>
      <trkpt lat="44.84726" lon="6.14386">
        <ele>1966.6</ele>
        <time>2024-08-13T12:18:53Z</time>
      </trkpt>
      <trkpt lat="44.84728" lon="6.14384">
        <ele>1966.6</ele>
        <time>2024-08-13T12:18:54Z</time>
      </trkpt>
      <trkpt lat="44.84728" lon="6.14384">
        <ele>1966.8</ele>
        <time>2024-08-13T12:18:55Z</time>
      </trkpt>
      <trkpt lat="44.84728" lon="6.14384">
        <ele>1966.8</ele>
        <time>2024-08-13T12:18:56Z</time>
      </trkpt>
      <trkpt lat="44.84731" lon="6.14383">
        <ele>1967</ele>
        <time>2024-08-13T12:18:57Z</time>
      </trkpt>
      <trkpt lat="44.84731" lon="6.14383">
        <ele>1967.2</ele>
        <time>2024-08-13T12:18:58Z</time>
      </trkpt>
      <trkpt lat="44.84733" lon="6.14382">
        <ele>1967.4</ele>
        <time>2024-08-13T12:18:59Z</time>
      </trkpt>
      <trkpt lat="44.84733" lon="6.14382">
        <ele>1967.4</ele>
        <time>2024-08-13T12:19:00Z</time>
      </trkpt>
      <trkpt lat="44.84733" lon="6.14382">
        <ele>1967.6</ele>
        <time>2024-08-13T12:19:01Z</time>
      </trkpt>
      <trkpt lat="44.84735" lon="6.1438">
        <ele>1968</ele>
        <time>2024-08-13T12:19:02Z</time>
      </trkpt>
      <trkpt lat="44.84735" lon="6.1438">
        <ele>1968</ele>
        <time>2024-08-13T12:19:03Z</time>
      </trkpt>
      <trkpt lat="44.84735" lon="6.1438">
        <ele>1968.2</ele>
        <time>2024-08-13T12:19:04Z</time>
      </trkpt>
      <trkpt lat="44.84735" lon="6.1438">
        <ele>1968.4</ele>
        <time>2024-08-13T12:19:05Z</time>
      </trkpt>
      <trkpt lat="44.84737" lon="6.14378">
        <ele>1968.4</ele>
        <time>2024-08-13T12:19:06Z</time>
      </trkpt>
      <trkpt lat="44.84737" lon="6.14378">
        <ele>1968.6</ele>
        <time>2024-08-13T12:19:07Z</time>
      </trkpt>
      <trkpt lat="44.84738" lon="6.14375">
        <ele>1969</ele>
        <time>2024-08-13T12:19:08Z</time>
      </trkpt>
      <trkpt lat="44.84738" lon="6.14375">
        <ele>1969</ele>
        <time>2024-08-13T12:19:09Z</time>
      </trkpt>
      <trkpt lat="44.8474" lon="6.14373">
        <ele>1969</ele>
        <time>2024-08-13T12:19:10Z</time>
      </trkpt>
      <trkpt lat="44.8474" lon="6.14373">
        <ele>1969</ele>
        <time>2024-08-13T12:19:11Z</time>
      </trkpt>
      <trkpt lat="44.84741" lon="6.14371">
        <ele>1969</ele>
        <time>2024-08-13T12:19:12Z</time>
      </trkpt>
      <trkpt lat="44.84741" lon="6.14371">
        <ele>1969</ele>
        <time>2024-08-13T12:19:13Z</time>
      </trkpt>
      <trkpt lat="44.84741" lon="6.14371">
        <ele>1968.8</ele>
        <time>2024-08-13T12:19:14Z</time>
      </trkpt>
      <trkpt lat="44.84742" lon="6.14367">
        <ele>1968.8</ele>
        <time>2024-08-13T12:19:15Z</time>
      </trkpt>
      <trkpt lat="44.84742" lon="6.14367">
        <ele>1969</ele>
        <time>2024-08-13T12:19:16Z</time>
      </trkpt>
      <trkpt lat="44.84743" lon="6.14365">
        <ele>1969</ele>
        <time>2024-08-13T12:19:17Z</time>
      </trkpt>
      <trkpt lat="44.84743" lon="6.14365">
        <ele>1969</ele>
        <time>2024-08-13T12:19:18Z</time>
      </trkpt>
      <trkpt lat="44.84743" lon="6.14365">
        <ele>1969.4</ele>
        <time>2024-08-13T12:19:19Z</time>
      </trkpt>
      <trkpt lat="44.84744" lon="6.14361">
        <ele>1969.4</ele>
        <time>2024-08-13T12:19:20Z</time>
      </trkpt>
      <trkpt lat="44.84744" lon="6.14361">
        <ele>1969.6</ele>
        <time>2024-08-13T12:19:21Z</time>
      </trkpt>
      <trkpt lat="44.84744" lon="6.14359">
        <ele>1970</ele>
        <time>2024-08-13T12:19:22Z</time>
      </trkpt>
      <trkpt lat="44.84744" lon="6.14359">
        <ele>1970</ele>
        <time>2024-08-13T12:19:23Z</time>
      </trkpt>
      <trkpt lat="44.84744" lon="6.14356">
        <ele>1970.2</ele>
        <time>2024-08-13T12:19:24Z</time>
      </trkpt>
      <trkpt lat="44.84744" lon="6.14356">
        <ele>1970.4</ele>
        <time>2024-08-13T12:19:25Z</time>
      </trkpt>
      <trkpt lat="44.84745" lon="6.14353">
        <ele>1970.4</ele>
        <time>2024-08-13T12:19:26Z</time>
      </trkpt>
      <trkpt lat="44.84745" lon="6.14353">
        <ele>1970.4</ele>
        <time>2024-08-13T12:19:27Z</time>
      </trkpt>
      <trkpt lat="44.84746" lon="6.1435">
        <ele>1970.4</ele>
        <time>2024-08-13T12:19:28Z</time>
      </trkpt>
      <trkpt lat="44.84746" lon="6.1435">
        <ele>1970.6</ele>
        <time>2024-08-13T12:19:29Z</time>
      </trkpt>
      <trkpt lat="44.84746" lon="6.1435">
        <ele>1970.8</ele>
        <time>2024-08-13T12:19:30Z</time>
      </trkpt>
      <trkpt lat="44.84747" lon="6.14347">
        <ele>1970.8</ele>
        <time>2024-08-13T12:19:31Z</time>
      </trkpt>
      <trkpt lat="44.84747" lon="6.14347">
        <ele>1970.8</ele>
        <time>2024-08-13T12:19:32Z</time>
      </trkpt>
      <trkpt lat="44.84747" lon="6.14344">
        <ele>1970.8</ele>
        <time>2024-08-13T12:19:33Z</time>
      </trkpt>
      <trkpt lat="44.84747" lon="6.14344">
        <ele>1971</ele>
        <time>2024-08-13T12:19:34Z</time>
      </trkpt>
      <trkpt lat="44.84747" lon="6.14344">
        <ele>1971</ele>
        <time>2024-08-13T12:19:35Z</time>
      </trkpt>
      <trkpt lat="44.84749" lon="6.14341">
        <ele>1971.2</ele>
        <time>2024-08-13T12:19:36Z</time>
      </trkpt>
      <trkpt lat="44.84749" lon="6.14341">
        <ele>1971.4</ele>
        <time>2024-08-13T12:19:37Z</time>
      </trkpt>
      <trkpt lat="44.84749" lon="6.14341">
        <ele>1971.4</ele>
        <time>2024-08-13T12:19:38Z</time>
      </trkpt>
      <trkpt lat="44.84749" lon="6.14338">
        <ele>1971.4</ele>
        <time>2024-08-13T12:19:39Z</time>
      </trkpt>
      <trkpt lat="44.84749" lon="6.14338">
        <ele>1971.6</ele>
        <time>2024-08-13T12:19:40Z</time>
      </trkpt>
      <trkpt lat="44.84751" lon="6.14335">
        <ele>1972</ele>
        <time>2024-08-13T12:19:41Z</time>
      </trkpt>
      <trkpt lat="44.84751" lon="6.14335">
        <ele>1972</ele>
        <time>2024-08-13T12:19:42Z</time>
      </trkpt>
      <trkpt lat="44.84751" lon="6.14335">
        <ele>1972.4</ele>
        <time>2024-08-13T12:19:43Z</time>
      </trkpt>
      <trkpt lat="44.84753" lon="6.14334">
        <ele>1972.6</ele>
        <time>2024-08-13T12:19:44Z</time>
      </trkpt>
      <trkpt lat="44.84753" lon="6.14334">
        <ele>1972.8</ele>
        <time>2024-08-13T12:19:45Z</time>
      </trkpt>
      <trkpt lat="44.84753" lon="6.14334">
        <ele>1972.8</ele>
        <time>2024-08-13T12:19:46Z</time>
      </trkpt>
      <trkpt lat="44.84753" lon="6.14331">
        <ele>1973.2</ele>
        <time>2024-08-13T12:19:47Z</time>
      </trkpt>
      <trkpt lat="44.84753" lon="6.14331">
        <ele>1973.4</ele>
        <time>2024-08-13T12:19:48Z</time>
      </trkpt>
      <trkpt lat="44.84753" lon="6.14331">
        <ele>1973.6</ele>
        <time>2024-08-13T12:19:49Z</time>
      </trkpt>
      <trkpt lat="44.84754" lon="6.14328">
        <ele>1973.8</ele>
        <time>2024-08-13T12:19:50Z</time>
      </trkpt>
      <trkpt lat="44.84754" lon="6.14328">
        <ele>1973.8</ele>
        <time>2024-08-13T12:19:51Z</time>
      </trkpt>
      <trkpt lat="44.84754" lon="6.14328">
        <ele>1974</ele>
        <time>2024-08-13T12:19:52Z</time>
      </trkpt>
      <trkpt lat="44.84755" lon="6.14325">
        <ele>1974.2</ele>
        <time>2024-08-13T12:19:53Z</time>
      </trkpt>
      <trkpt lat="44.84755" lon="6.14325">
        <ele>1974.4</ele>
        <time>2024-08-13T12:19:54Z</time>
      </trkpt>
      <trkpt lat="44.84755" lon="6.14325">
        <ele>1974.4</ele>
        <time>2024-08-13T12:19:55Z</time>
      </trkpt>
      <trkpt lat="44.84755" lon="6.14325">
        <ele>1974.4</ele>
        <time>2024-08-13T12:19:56Z</time>
      </trkpt>
      <trkpt lat="44.84756" lon="6.14322">
        <ele>1974.8</ele>
        <time>2024-08-13T12:19:57Z</time>
      </trkpt>
      <trkpt lat="44.84756" lon="6.14322">
        <ele>1975</ele>
        <time>2024-08-13T12:19:58Z</time>
      </trkpt>
      <trkpt lat="44.84756" lon="6.14322">
        <ele>1975</ele>
        <time>2024-08-13T12:19:59Z</time>
      </trkpt>
      <trkpt lat="44.84757" lon="6.14319">
        <ele>1975.2</ele>
        <time>2024-08-13T12:20:00Z</time>
      </trkpt>
      <trkpt lat="44.84757" lon="6.14319">
        <ele>1975.4</ele>
        <time>2024-08-13T12:20:01Z</time>
      </trkpt>
      <trkpt lat="44.84757" lon="6.14319">
        <ele>1975.4</ele>
        <time>2024-08-13T12:20:02Z</time>
      </trkpt>
      <trkpt lat="44.84757" lon="6.14319">
        <ele>1975.6</ele>
        <time>2024-08-13T12:20:03Z</time>
      </trkpt>
      <trkpt lat="44.84757" lon="6.14319">
        <ele>1975.8</ele>
        <time>2024-08-13T12:20:04Z</time>
      </trkpt>
      <trkpt lat="44.84757" lon="6.14319">
        <ele>1976</ele>
        <time>2024-08-13T12:20:05Z</time>
      </trkpt>
      <trkpt lat="44.84757" lon="6.14319">
        <ele>1976</ele>
        <time>2024-08-13T12:20:06Z</time>
      </trkpt>
      <trkpt lat="44.84757" lon="6.14319">
        <ele>1976.2</ele>
        <time>2024-08-13T12:20:07Z</time>
      </trkpt>
      <trkpt lat="44.84757" lon="6.14319">
        <ele>1976.2</ele>
        <time>2024-08-13T12:20:08Z</time>
      </trkpt>
      <trkpt lat="44.84757" lon="6.14319">
        <ele>1976.2</ele>
        <time>2024-08-13T12:20:09Z</time>
      </trkpt>
      <trkpt lat="44.84757" lon="6.14316">
        <ele>1976</ele>
        <time>2024-08-13T12:20:10Z</time>
      </trkpt>
      <trkpt lat="44.84757" lon="6.14316">
        <ele>1976</ele>
        <time>2024-08-13T12:20:11Z</time>
      </trkpt>
      <trkpt lat="44.84758" lon="6.14315">
        <ele>1975.8</ele>
        <time>2024-08-13T12:20:12Z</time>
      </trkpt>
      <trkpt lat="44.84758" lon="6.14315">
        <ele>1976</ele>
        <time>2024-08-13T12:20:13Z</time>
      </trkpt>
      <trkpt lat="44.84761" lon="6.14314">
        <ele>1976</ele>
        <time>2024-08-13T12:20:14Z</time>
      </trkpt>
      <trkpt lat="44.84761" lon="6.14314">
        <ele>1976.2</ele>
        <time>2024-08-13T12:20:15Z</time>
      </trkpt>
      <trkpt lat="44.84764" lon="6.14312">
        <ele>1976.2</ele>
        <time>2024-08-13T12:20:16Z</time>
      </trkpt>
      <trkpt lat="44.84764" lon="6.14312">
        <ele>1976</ele>
        <time>2024-08-13T12:20:17Z</time>
      </trkpt>
      <trkpt lat="44.84766" lon="6.1431">
        <ele>1976</ele>
        <time>2024-08-13T12:20:18Z</time>
      </trkpt>
      <trkpt lat="44.84766" lon="6.1431">
        <ele>1976.6</ele>
        <time>2024-08-13T12:20:19Z</time>
      </trkpt>
      <trkpt lat="44.84766" lon="6.1431">
        <ele>1976.6</ele>
        <time>2024-08-13T12:20:20Z</time>
      </trkpt>
      <trkpt lat="44.84768" lon="6.14309">
        <ele>1976.6</ele>
        <time>2024-08-13T12:20:21Z</time>
      </trkpt>
      <trkpt lat="44.84768" lon="6.14309">
        <ele>1976.6</ele>
        <time>2024-08-13T12:20:22Z</time>
      </trkpt>
      <trkpt lat="44.84768" lon="6.14309">
        <ele>1976.8</ele>
        <time>2024-08-13T12:20:23Z</time>
      </trkpt>
      <trkpt lat="44.8477" lon="6.14307">
        <ele>1976.8</ele>
        <time>2024-08-13T12:20:24Z</time>
      </trkpt>
      <trkpt lat="44.8477" lon="6.14307">
        <ele>1977</ele>
        <time>2024-08-13T12:20:25Z</time>
      </trkpt>
      <trkpt lat="44.8477" lon="6.14307">
        <ele>1977</ele>
        <time>2024-08-13T12:20:26Z</time>
      </trkpt>
      <trkpt lat="44.84771" lon="6.14303">
        <ele>1977</ele>
        <time>2024-08-13T12:20:27Z</time>
      </trkpt>
      <trkpt lat="44.84771" lon="6.14303">
        <ele>1976.8</ele>
        <time>2024-08-13T12:20:28Z</time>
      </trkpt>
      <trkpt lat="44.84772" lon="6.14299">
        <ele>1976.8</ele>
        <time>2024-08-13T12:20:29Z</time>
      </trkpt>
      <trkpt lat="44.84772" lon="6.14299">
        <ele>1977.2</ele>
        <time>2024-08-13T12:20:30Z</time>
      </trkpt>
      <trkpt lat="44.84772" lon="6.14297">
        <ele>1977.2</ele>
        <time>2024-08-13T12:20:31Z</time>
      </trkpt>
      <trkpt lat="44.84772" lon="6.14297">
        <ele>1977.4</ele>
        <time>2024-08-13T12:20:32Z</time>
      </trkpt>
      <trkpt lat="44.84772" lon="6.14297">
        <ele>1977.2</ele>
        <time>2024-08-13T12:20:33Z</time>
      </trkpt>
      <trkpt lat="44.84772" lon="6.14293">
        <ele>1977.4</ele>
        <time>2024-08-13T12:20:34Z</time>
      </trkpt>
      <trkpt lat="44.84772" lon="6.14293">
        <ele>1977.4</ele>
        <time>2024-08-13T12:20:35Z</time>
      </trkpt>
      <trkpt lat="44.84773" lon="6.14291">
        <ele>1977.4</ele>
        <time>2024-08-13T12:20:36Z</time>
      </trkpt>
      <trkpt lat="44.84773" lon="6.14291">
        <ele>1977.6</ele>
        <time>2024-08-13T12:20:37Z</time>
      </trkpt>
      <trkpt lat="44.84774" lon="6.14288">
        <ele>1977.6</ele>
        <time>2024-08-13T12:20:38Z</time>
      </trkpt>
      <trkpt lat="44.84774" lon="6.14288">
        <ele>1977.8</ele>
        <time>2024-08-13T12:20:39Z</time>
      </trkpt>
      <trkpt lat="44.84776" lon="6.14285">
        <ele>1977.8</ele>
        <time>2024-08-13T12:20:40Z</time>
      </trkpt>
      <trkpt lat="44.84776" lon="6.14285">
        <ele>1977.8</ele>
        <time>2024-08-13T12:20:41Z</time>
      </trkpt>
      <trkpt lat="44.84776" lon="6.14282">
        <ele>1977.8</ele>
        <time>2024-08-13T12:20:42Z</time>
      </trkpt>
      <trkpt lat="44.84776" lon="6.14282">
        <ele>1978</ele>
        <time>2024-08-13T12:20:43Z</time>
      </trkpt>
      <trkpt lat="44.84777" lon="6.1428">
        <ele>1978.4</ele>
        <time>2024-08-13T12:20:44Z</time>
      </trkpt>
      <trkpt lat="44.84777" lon="6.1428">
        <ele>1978.4</ele>
        <time>2024-08-13T12:20:45Z</time>
      </trkpt>
      <trkpt lat="44.84779" lon="6.14277">
        <ele>1978.4</ele>
        <time>2024-08-13T12:20:46Z</time>
      </trkpt>
      <trkpt lat="44.84779" lon="6.14277">
        <ele>1978.4</ele>
        <time>2024-08-13T12:20:47Z</time>
      </trkpt>
      <trkpt lat="44.8478" lon="6.14275">
        <ele>1978.6</ele>
        <time>2024-08-13T12:20:48Z</time>
      </trkpt>
      <trkpt lat="44.8478" lon="6.14275">
        <ele>1978.6</ele>
        <time>2024-08-13T12:20:49Z</time>
      </trkpt>
      <trkpt lat="44.84782" lon="6.14272">
        <ele>1978.6</ele>
        <time>2024-08-13T12:20:50Z</time>
      </trkpt>
      <trkpt lat="44.84782" lon="6.14272">
        <ele>1978.6</ele>
        <time>2024-08-13T12:20:51Z</time>
      </trkpt>
      <trkpt lat="44.84782" lon="6.14272">
        <ele>1978.6</ele>
        <time>2024-08-13T12:20:52Z</time>
      </trkpt>
      <trkpt lat="44.84783" lon="6.1427">
        <ele>1978.8</ele>
        <time>2024-08-13T12:20:53Z</time>
      </trkpt>
      <trkpt lat="44.84783" lon="6.1427">
        <ele>1979</ele>
        <time>2024-08-13T12:20:54Z</time>
      </trkpt>
      <trkpt lat="44.84785" lon="6.14268">
        <ele>1979</ele>
        <time>2024-08-13T12:20:55Z</time>
      </trkpt>
      <trkpt lat="44.84785" lon="6.14268">
        <ele>1979.2</ele>
        <time>2024-08-13T12:20:56Z</time>
      </trkpt>
      <trkpt lat="44.84787" lon="6.14266">
        <ele>1979.6</ele>
        <time>2024-08-13T12:20:57Z</time>
      </trkpt>
      <trkpt lat="44.84787" lon="6.14266">
        <ele>1979.6</ele>
        <time>2024-08-13T12:20:58Z</time>
      </trkpt>
      <trkpt lat="44.84787" lon="6.14266">
        <ele>1979.8</ele>
        <time>2024-08-13T12:20:59Z</time>
      </trkpt>
      <trkpt lat="44.84789" lon="6.14265">
        <ele>1979.8</ele>
        <time>2024-08-13T12:21:00Z</time>
      </trkpt>
      <trkpt lat="44.84789" lon="6.14265">
        <ele>1979.8</ele>
        <time>2024-08-13T12:21:01Z</time>
      </trkpt>
      <trkpt lat="44.84789" lon="6.14265">
        <ele>1979.4</ele>
        <time>2024-08-13T12:21:02Z</time>
      </trkpt>
      <trkpt lat="44.8479" lon="6.14262">
        <ele>1979.4</ele>
        <time>2024-08-13T12:21:03Z</time>
      </trkpt>
      <trkpt lat="44.8479" lon="6.14262">
        <ele>1979.2</ele>
        <time>2024-08-13T12:21:04Z</time>
      </trkpt>
      <trkpt lat="44.8479" lon="6.14262">
        <ele>1979</ele>
        <time>2024-08-13T12:21:05Z</time>
      </trkpt>
      <trkpt lat="44.84791" lon="6.1426">
        <ele>1979</ele>
        <time>2024-08-13T12:21:06Z</time>
      </trkpt>
      <trkpt lat="44.84791" lon="6.1426">
        <ele>1978.6</ele>
        <time>2024-08-13T12:21:07Z</time>
      </trkpt>
      <trkpt lat="44.84792" lon="6.14258">
        <ele>1978.2</ele>
        <time>2024-08-13T12:21:08Z</time>
      </trkpt>
      <trkpt lat="44.84792" lon="6.14258">
        <ele>1978</ele>
        <time>2024-08-13T12:21:09Z</time>
      </trkpt>
      <trkpt lat="44.84794" lon="6.14255">
        <ele>1977.6</ele>
        <time>2024-08-13T12:21:10Z</time>
      </trkpt>
      <trkpt lat="44.84794" lon="6.14255">
        <ele>1977.4</ele>
        <time>2024-08-13T12:21:11Z</time>
      </trkpt>
      <trkpt lat="44.84795" lon="6.14252">
        <ele>1977.2</ele>
        <time>2024-08-13T12:21:12Z</time>
      </trkpt>
      <trkpt lat="44.84795" lon="6.14252">
        <ele>1977</ele>
        <time>2024-08-13T12:21:13Z</time>
      </trkpt>
      <trkpt lat="44.84797" lon="6.1425">
        <ele>1976.6</ele>
        <time>2024-08-13T12:21:14Z</time>
      </trkpt>
      <trkpt lat="44.84797" lon="6.1425">
        <ele>1976.4</ele>
        <time>2024-08-13T12:21:15Z</time>
      </trkpt>
      <trkpt lat="44.84798" lon="6.14247">
        <ele>1976.2</ele>
        <time>2024-08-13T12:21:16Z</time>
      </trkpt>
      <trkpt lat="44.84798" lon="6.14247">
        <ele>1976.2</ele>
        <time>2024-08-13T12:21:17Z</time>
      </trkpt>
      <trkpt lat="44.84798" lon="6.14247">
        <ele>1976</ele>
        <time>2024-08-13T12:21:18Z</time>
      </trkpt>
      <trkpt lat="44.848" lon="6.14244">
        <ele>1975.8</ele>
        <time>2024-08-13T12:21:19Z</time>
      </trkpt>
      <trkpt lat="44.848" lon="6.14244">
        <ele>1975.4</ele>
        <time>2024-08-13T12:21:20Z</time>
      </trkpt>
      <trkpt lat="44.848" lon="6.14244">
        <ele>1975.2</ele>
        <time>2024-08-13T12:21:21Z</time>
      </trkpt>
      <trkpt lat="44.84802" lon="6.14242">
        <ele>1975</ele>
        <time>2024-08-13T12:21:22Z</time>
      </trkpt>
      <trkpt lat="44.84802" lon="6.14242">
        <ele>1975</ele>
        <time>2024-08-13T12:21:23Z</time>
      </trkpt>
      <trkpt lat="44.84802" lon="6.14242">
        <ele>1974.6</ele>
        <time>2024-08-13T12:21:24Z</time>
      </trkpt>
      <trkpt lat="44.84803" lon="6.14238">
        <ele>1974.4</ele>
        <time>2024-08-13T12:21:25Z</time>
      </trkpt>
      <trkpt lat="44.84803" lon="6.14238">
        <ele>1974.2</ele>
        <time>2024-08-13T12:21:26Z</time>
      </trkpt>
      <trkpt lat="44.84804" lon="6.14236">
        <ele>1974.2</ele>
        <time>2024-08-13T12:21:27Z</time>
      </trkpt>
      <trkpt lat="44.84804" lon="6.14236">
        <ele>1974</ele>
        <time>2024-08-13T12:21:28Z</time>
      </trkpt>
      <trkpt lat="44.84805" lon="6.14234">
        <ele>1974</ele>
        <time>2024-08-13T12:21:29Z</time>
      </trkpt>
      <trkpt lat="44.84805" lon="6.14234">
        <ele>1974</ele>
        <time>2024-08-13T12:21:30Z</time>
      </trkpt>
      <trkpt lat="44.84805" lon="6.14234">
        <ele>1973.6</ele>
        <time>2024-08-13T12:21:31Z</time>
      </trkpt>
      <trkpt lat="44.84806" lon="6.14231">
        <ele>1973.4</ele>
        <time>2024-08-13T12:21:32Z</time>
      </trkpt>
      <trkpt lat="44.84806" lon="6.14231">
        <ele>1973.2</ele>
        <time>2024-08-13T12:21:33Z</time>
      </trkpt>
      <trkpt lat="44.84807" lon="6.14228">
        <ele>1973.2</ele>
        <time>2024-08-13T12:21:34Z</time>
      </trkpt>
      <trkpt lat="44.84807" lon="6.14228">
        <ele>1972.8</ele>
        <time>2024-08-13T12:21:35Z</time>
      </trkpt>
      <trkpt lat="44.84809" lon="6.14226">
        <ele>1972.2</ele>
        <time>2024-08-13T12:21:36Z</time>
      </trkpt>
      <trkpt lat="44.84809" lon="6.14226">
        <ele>1972</ele>
        <time>2024-08-13T12:21:37Z</time>
      </trkpt>
      <trkpt lat="44.8481" lon="6.14224">
        <ele>1972</ele>
        <time>2024-08-13T12:21:38Z</time>
      </trkpt>
      <trkpt lat="44.8481" lon="6.14224">
        <ele>1971.8</ele>
        <time>2024-08-13T12:21:39Z</time>
      </trkpt>
      <trkpt lat="44.8481" lon="6.14224">
        <ele>1971.4</ele>
        <time>2024-08-13T12:21:40Z</time>
      </trkpt>
      <trkpt lat="44.84812" lon="6.14222">
        <ele>1971</ele>
        <time>2024-08-13T12:21:41Z</time>
      </trkpt>
      <trkpt lat="44.84812" lon="6.14222">
        <ele>1970.6</ele>
        <time>2024-08-13T12:21:42Z</time>
      </trkpt>
      <trkpt lat="44.84812" lon="6.14222">
        <ele>1970.6</ele>
        <time>2024-08-13T12:21:43Z</time>
      </trkpt>
      <trkpt lat="44.84813" lon="6.14219">
        <ele>1970.6</ele>
        <time>2024-08-13T12:21:44Z</time>
      </trkpt>
      <trkpt lat="44.84813" lon="6.14219">
        <ele>1970.6</ele>
        <time>2024-08-13T12:21:45Z</time>
      </trkpt>
      <trkpt lat="44.84813" lon="6.14219">
        <ele>1970</ele>
        <time>2024-08-13T12:21:46Z</time>
      </trkpt>
      <trkpt lat="44.84813" lon="6.14219">
        <ele>1969.8</ele>
        <time>2024-08-13T12:21:47Z</time>
      </trkpt>
      <trkpt lat="44.84813" lon="6.14219">
        <ele>1969.8</ele>
        <time>2024-08-13T12:21:48Z</time>
      </trkpt>
      <trkpt lat="44.84813" lon="6.14219">
        <ele>1969.8</ele>
        <time>2024-08-13T12:21:49Z</time>
      </trkpt>
      <trkpt lat="44.84813" lon="6.14219">
        <ele>1969.8</ele>
        <time>2024-08-13T12:21:50Z</time>
      </trkpt>
      <trkpt lat="44.84813" lon="6.14219">
        <ele>1969.8</ele>
        <time>2024-08-13T12:21:51Z</time>
      </trkpt>
      <trkpt lat="44.84813" lon="6.14219">
        <ele>1969.8</ele>
        <time>2024-08-13T12:21:52Z</time>
      </trkpt>
      <trkpt lat="44.84813" lon="6.14219">
        <ele>1969.6</ele>
        <time>2024-08-13T12:21:53Z</time>
      </trkpt>
      <trkpt lat="44.84813" lon="6.14219">
        <ele>1969.6</ele>
        <time>2024-08-13T12:21:54Z</time>
      </trkpt>
      <trkpt lat="44.84814" lon="6.14217">
        <ele>1969.4</ele>
        <time>2024-08-13T12:21:55Z</time>
      </trkpt>
      <trkpt lat="44.84814" lon="6.14217">
        <ele>1969.4</ele>
        <time>2024-08-13T12:21:56Z</time>
      </trkpt>
      <trkpt lat="44.84814" lon="6.14217">
        <ele>1969.4</ele>
        <time>2024-08-13T12:21:57Z</time>
      </trkpt>
      <trkpt lat="44.84815" lon="6.14213">
        <ele>1969.4</ele>
        <time>2024-08-13T12:21:58Z</time>
      </trkpt>
      <trkpt lat="44.84815" lon="6.14213">
        <ele>1969.6</ele>
        <time>2024-08-13T12:21:59Z</time>
      </trkpt>
      <trkpt lat="44.84816" lon="6.14209">
        <ele>1969.8</ele>
        <time>2024-08-13T12:22:00Z</time>
      </trkpt>
      <trkpt lat="44.84816" lon="6.14209">
        <ele>1969.8</ele>
        <time>2024-08-13T12:22:01Z</time>
      </trkpt>
      <trkpt lat="44.84817" lon="6.14205">
        <ele>1970.2</ele>
        <time>2024-08-13T12:22:02Z</time>
      </trkpt>
      <trkpt lat="44.84817" lon="6.14205">
        <ele>1970.2</ele>
        <time>2024-08-13T12:22:03Z</time>
      </trkpt>
      <trkpt lat="44.84816" lon="6.14202">
        <ele>1970.2</ele>
        <time>2024-08-13T12:22:04Z</time>
      </trkpt>
      <trkpt lat="44.84816" lon="6.14202">
        <ele>1970.4</ele>
        <time>2024-08-13T12:22:05Z</time>
      </trkpt>
      <trkpt lat="44.84817" lon="6.142">
        <ele>1970.6</ele>
        <time>2024-08-13T12:22:06Z</time>
      </trkpt>
      <trkpt lat="44.84817" lon="6.142">
        <ele>1970.6</ele>
        <time>2024-08-13T12:22:07Z</time>
      </trkpt>
      <trkpt lat="44.84817" lon="6.142">
        <ele>1970.8</ele>
        <time>2024-08-13T12:22:08Z</time>
      </trkpt>
      <trkpt lat="44.84817" lon="6.14197">
        <ele>1970.8</ele>
        <time>2024-08-13T12:22:09Z</time>
      </trkpt>
      <trkpt lat="44.84817" lon="6.14197">
        <ele>1971</ele>
        <time>2024-08-13T12:22:10Z</time>
      </trkpt>
      <trkpt lat="44.84818" lon="6.14194">
        <ele>1971.4</ele>
        <time>2024-08-13T12:22:11Z</time>
      </trkpt>
      <trkpt lat="44.84818" lon="6.14194">
        <ele>1971.4</ele>
        <time>2024-08-13T12:22:12Z</time>
      </trkpt>
      <trkpt lat="44.84819" lon="6.14192">
        <ele>1971.8</ele>
        <time>2024-08-13T12:22:13Z</time>
      </trkpt>
      <trkpt lat="44.84819" lon="6.14192">
        <ele>1972.2</ele>
        <time>2024-08-13T12:22:14Z</time>
      </trkpt>
      <trkpt lat="44.84821" lon="6.1419">
        <ele>1972.2</ele>
        <time>2024-08-13T12:22:15Z</time>
      </trkpt>
      <trkpt lat="44.84821" lon="6.1419">
        <ele>1972</ele>
        <time>2024-08-13T12:22:16Z</time>
      </trkpt>
      <trkpt lat="44.84824" lon="6.14189">
        <ele>1971.8</ele>
        <time>2024-08-13T12:22:17Z</time>
      </trkpt>
      <trkpt lat="44.84824" lon="6.14189">
        <ele>1971.8</ele>
        <time>2024-08-13T12:22:18Z</time>
      </trkpt>
      <trkpt lat="44.84826" lon="6.14187">
        <ele>1971.8</ele>
        <time>2024-08-13T12:22:19Z</time>
      </trkpt>
      <trkpt lat="44.84826" lon="6.14187">
        <ele>1971.8</ele>
        <time>2024-08-13T12:22:20Z</time>
      </trkpt>
      <trkpt lat="44.84826" lon="6.14187">
        <ele>1971.6</ele>
        <time>2024-08-13T12:22:21Z</time>
      </trkpt>
      <trkpt lat="44.84827" lon="6.14183">
        <ele>1971.6</ele>
        <time>2024-08-13T12:22:22Z</time>
      </trkpt>
      <trkpt lat="44.84827" lon="6.14183">
        <ele>1971.6</ele>
        <time>2024-08-13T12:22:23Z</time>
      </trkpt>
      <trkpt lat="44.84828" lon="6.14181">
        <ele>1971.6</ele>
        <time>2024-08-13T12:22:24Z</time>
      </trkpt>
      <trkpt lat="44.84828" lon="6.14181">
        <ele>1971.4</ele>
        <time>2024-08-13T12:22:25Z</time>
      </trkpt>
      <trkpt lat="44.8483" lon="6.1418">
        <ele>1971</ele>
        <time>2024-08-13T12:22:26Z</time>
      </trkpt>
      <trkpt lat="44.8483" lon="6.1418">
        <ele>1971</ele>
        <time>2024-08-13T12:22:27Z</time>
      </trkpt>
      <trkpt lat="44.84831" lon="6.14178">
        <ele>1971.4</ele>
        <time>2024-08-13T12:22:28Z</time>
      </trkpt>
      <trkpt lat="44.84831" lon="6.14178">
        <ele>1971.4</ele>
        <time>2024-08-13T12:22:29Z</time>
      </trkpt>
      <trkpt lat="44.84831" lon="6.14178">
        <ele>1971.6</ele>
        <time>2024-08-13T12:22:30Z</time>
      </trkpt>
      <trkpt lat="44.84833" lon="6.14175">
        <ele>1971.6</ele>
        <time>2024-08-13T12:22:31Z</time>
      </trkpt>
      <trkpt lat="44.84833" lon="6.14175">
        <ele>1972</ele>
        <time>2024-08-13T12:22:32Z</time>
      </trkpt>
      <trkpt lat="44.84835" lon="6.14173">
        <ele>1972</ele>
        <time>2024-08-13T12:22:33Z</time>
      </trkpt>
      <trkpt lat="44.84835" lon="6.14173">
        <ele>1972</ele>
        <time>2024-08-13T12:22:34Z</time>
      </trkpt>
      <trkpt lat="44.84835" lon="6.14173">
        <ele>1972.2</ele>
        <time>2024-08-13T12:22:35Z</time>
      </trkpt>
      <trkpt lat="44.84836" lon="6.1417">
        <ele>1972.2</ele>
        <time>2024-08-13T12:22:36Z</time>
      </trkpt>
      <trkpt lat="44.84836" lon="6.1417">
        <ele>1972.2</ele>
        <time>2024-08-13T12:22:37Z</time>
      </trkpt>
      <trkpt lat="44.84836" lon="6.1417">
        <ele>1972.2</ele>
        <time>2024-08-13T12:22:38Z</time>
      </trkpt>
      <trkpt lat="44.84837" lon="6.14167">
        <ele>1972.2</ele>
        <time>2024-08-13T12:22:39Z</time>
      </trkpt>
      <trkpt lat="44.84837" lon="6.14167">
        <ele>1972.2</ele>
        <time>2024-08-13T12:22:40Z</time>
      </trkpt>
      <trkpt lat="44.84837" lon="6.14167">
        <ele>1972.6</ele>
        <time>2024-08-13T12:22:41Z</time>
      </trkpt>
      <trkpt lat="44.84837" lon="6.14163">
        <ele>1972.8</ele>
        <time>2024-08-13T12:22:42Z</time>
      </trkpt>
      <trkpt lat="44.84837" lon="6.14163">
        <ele>1973.2</ele>
        <time>2024-08-13T12:22:43Z</time>
      </trkpt>
      <trkpt lat="44.84837" lon="6.1416">
        <ele>1973.4</ele>
        <time>2024-08-13T12:22:44Z</time>
      </trkpt>
      <trkpt lat="44.84837" lon="6.1416">
        <ele>1973.6</ele>
        <time>2024-08-13T12:22:45Z</time>
      </trkpt>
      <trkpt lat="44.84837" lon="6.14157">
        <ele>1973.6</ele>
        <time>2024-08-13T12:22:46Z</time>
      </trkpt>
      <trkpt lat="44.84837" lon="6.14157">
        <ele>1974</ele>
        <time>2024-08-13T12:22:47Z</time>
      </trkpt>
      <trkpt lat="44.84837" lon="6.14153">
        <ele>1974</ele>
        <time>2024-08-13T12:22:48Z</time>
      </trkpt>
      <trkpt lat="44.84837" lon="6.14153">
        <ele>1974.4</ele>
        <time>2024-08-13T12:22:49Z</time>
      </trkpt>
      <trkpt lat="44.84838" lon="6.14148">
        <ele>1974.6</ele>
        <time>2024-08-13T12:22:50Z</time>
      </trkpt>
      <trkpt lat="44.84838" lon="6.14148">
        <ele>1974.6</ele>
        <time>2024-08-13T12:22:51Z</time>
      </trkpt>
      <trkpt lat="44.84837" lon="6.14144">
        <ele>1975</ele>
        <time>2024-08-13T12:22:52Z</time>
      </trkpt>
      <trkpt lat="44.84837" lon="6.14144">
        <ele>1975</ele>
        <time>2024-08-13T12:22:53Z</time>
      </trkpt>
      <trkpt lat="44.84836" lon="6.14141">
        <ele>1975</ele>
        <time>2024-08-13T12:22:54Z</time>
      </trkpt>
      <trkpt lat="44.84836" lon="6.14141">
        <ele>1975.2</ele>
        <time>2024-08-13T12:22:55Z</time>
      </trkpt>
      <trkpt lat="44.84837" lon="6.14137">
        <ele>1975.2</ele>
        <time>2024-08-13T12:22:56Z</time>
      </trkpt>
      <trkpt lat="44.84837" lon="6.14137">
        <ele>1975.2</ele>
        <time>2024-08-13T12:22:57Z</time>
      </trkpt>
      <trkpt lat="44.84837" lon="6.14134">
        <ele>1975.2</ele>
        <time>2024-08-13T12:22:58Z</time>
      </trkpt>
      <trkpt lat="44.84837" lon="6.14134">
        <ele>1975</ele>
        <time>2024-08-13T12:22:59Z</time>
      </trkpt>
      <trkpt lat="44.84838" lon="6.14131">
        <ele>1974.4</ele>
        <time>2024-08-13T12:23:00Z</time>
      </trkpt>
      <trkpt lat="44.84838" lon="6.14131">
        <ele>1974.4</ele>
        <time>2024-08-13T12:23:01Z</time>
      </trkpt>
      <trkpt lat="44.84839" lon="6.14128">
        <ele>1974.4</ele>
        <time>2024-08-13T12:23:02Z</time>
      </trkpt>
      <trkpt lat="44.84839" lon="6.14128">
        <ele>1974.4</ele>
        <time>2024-08-13T12:23:03Z</time>
      </trkpt>
      <trkpt lat="44.8484" lon="6.14125">
        <ele>1974</ele>
        <time>2024-08-13T12:23:04Z</time>
      </trkpt>
      <trkpt lat="44.8484" lon="6.14125">
        <ele>1973.8</ele>
        <time>2024-08-13T12:23:05Z</time>
      </trkpt>
      <trkpt lat="44.8484" lon="6.14123">
        <ele>1973.8</ele>
        <time>2024-08-13T12:23:06Z</time>
      </trkpt>
      <trkpt lat="44.8484" lon="6.14123">
        <ele>1973.6</ele>
        <time>2024-08-13T12:23:07Z</time>
      </trkpt>
      <trkpt lat="44.8484" lon="6.14119">
        <ele>1973.6</ele>
        <time>2024-08-13T12:23:08Z</time>
      </trkpt>
      <trkpt lat="44.8484" lon="6.14119">
        <ele>1973.6</ele>
        <time>2024-08-13T12:23:09Z</time>
      </trkpt>
      <trkpt lat="44.8484" lon="6.14116">
        <ele>1973.6</ele>
        <time>2024-08-13T12:23:10Z</time>
      </trkpt>
      <trkpt lat="44.8484" lon="6.14116">
        <ele>1973.6</ele>
        <time>2024-08-13T12:23:11Z</time>
      </trkpt>
      <trkpt lat="44.84841" lon="6.14112">
        <ele>1973.8</ele>
        <time>2024-08-13T12:23:12Z</time>
      </trkpt>
      <trkpt lat="44.84841" lon="6.14112">
        <ele>1974</ele>
        <time>2024-08-13T12:23:13Z</time>
      </trkpt>
      <trkpt lat="44.84842" lon="6.14109">
        <ele>1974</ele>
        <time>2024-08-13T12:23:14Z</time>
      </trkpt>
      <trkpt lat="44.84842" lon="6.14109">
        <ele>1974</ele>
        <time>2024-08-13T12:23:15Z</time>
      </trkpt>
      <trkpt lat="44.84844" lon="6.14107">
        <ele>1974</ele>
        <time>2024-08-13T12:23:16Z</time>
      </trkpt>
      <trkpt lat="44.84844" lon="6.14107">
        <ele>1974</ele>
        <time>2024-08-13T12:23:17Z</time>
      </trkpt>
      <trkpt lat="44.84844" lon="6.14107">
        <ele>1974.2</ele>
        <time>2024-08-13T12:23:18Z</time>
      </trkpt>
      <trkpt lat="44.84845" lon="6.14103">
        <ele>1974.2</ele>
        <time>2024-08-13T12:23:19Z</time>
      </trkpt>
      <trkpt lat="44.84845" lon="6.14103">
        <ele>1974.6</ele>
        <time>2024-08-13T12:23:20Z</time>
      </trkpt>
      <trkpt lat="44.84846" lon="6.141">
        <ele>1974.6</ele>
        <time>2024-08-13T12:23:21Z</time>
      </trkpt>
      <trkpt lat="44.84846" lon="6.141">
        <ele>1974.6</ele>
        <time>2024-08-13T12:23:22Z</time>
      </trkpt>
      <trkpt lat="44.84846" lon="6.14097">
        <ele>1974.6</ele>
        <time>2024-08-13T12:23:23Z</time>
      </trkpt>
      <trkpt lat="44.84846" lon="6.14097">
        <ele>1974.6</ele>
        <time>2024-08-13T12:23:24Z</time>
      </trkpt>
      <trkpt lat="44.84848" lon="6.14094">
        <ele>1975</ele>
        <time>2024-08-13T12:23:25Z</time>
      </trkpt>
      <trkpt lat="44.84848" lon="6.14094">
        <ele>1975</ele>
        <time>2024-08-13T12:23:26Z</time>
      </trkpt>
      <trkpt lat="44.84848" lon="6.14094">
        <ele>1975</ele>
        <time>2024-08-13T12:23:27Z</time>
      </trkpt>
      <trkpt lat="44.84849" lon="6.14092">
        <ele>1975.2</ele>
        <time>2024-08-13T12:23:28Z</time>
      </trkpt>
      <trkpt lat="44.84849" lon="6.14092">
        <ele>1975.2</ele>
        <time>2024-08-13T12:23:29Z</time>
      </trkpt>
      <trkpt lat="44.84849" lon="6.14092">
        <ele>1975.4</ele>
        <time>2024-08-13T12:23:30Z</time>
      </trkpt>
      <trkpt lat="44.8485" lon="6.14087">
        <ele>1975.6</ele>
        <time>2024-08-13T12:23:31Z</time>
      </trkpt>
      <trkpt lat="44.8485" lon="6.14087">
        <ele>1976.2</ele>
        <time>2024-08-13T12:23:32Z</time>
      </trkpt>
      <trkpt lat="44.8485" lon="6.14087">
        <ele>1976.2</ele>
        <time>2024-08-13T12:23:33Z</time>
      </trkpt>
      <trkpt lat="44.8485" lon="6.14085">
        <ele>1976.2</ele>
        <time>2024-08-13T12:23:34Z</time>
      </trkpt>
      <trkpt lat="44.8485" lon="6.14085">
        <ele>1976.4</ele>
        <time>2024-08-13T12:23:35Z</time>
      </trkpt>
      <trkpt lat="44.8485" lon="6.14085">
        <ele>1976.6</ele>
        <time>2024-08-13T12:23:36Z</time>
      </trkpt>
      <trkpt lat="44.84852" lon="6.14083">
        <ele>1976.6</ele>
        <time>2024-08-13T12:23:37Z</time>
      </trkpt>
      <trkpt lat="44.84852" lon="6.14083">
        <ele>1976.8</ele>
        <time>2024-08-13T12:23:38Z</time>
      </trkpt>
      <trkpt lat="44.84852" lon="6.14083">
        <ele>1977.2</ele>
        <time>2024-08-13T12:23:39Z</time>
      </trkpt>
      <trkpt lat="44.84852" lon="6.14079">
        <ele>1977.2</ele>
        <time>2024-08-13T12:23:40Z</time>
      </trkpt>
      <trkpt lat="44.84852" lon="6.14079">
        <ele>1977.4</ele>
        <time>2024-08-13T12:23:41Z</time>
      </trkpt>
      <trkpt lat="44.84852" lon="6.14079">
        <ele>1977.6</ele>
        <time>2024-08-13T12:23:42Z</time>
      </trkpt>
      <trkpt lat="44.84852" lon="6.14077">
        <ele>1977.6</ele>
        <time>2024-08-13T12:23:43Z</time>
      </trkpt>
      <trkpt lat="44.84852" lon="6.14077">
        <ele>1977.8</ele>
        <time>2024-08-13T12:23:44Z</time>
      </trkpt>
      <trkpt lat="44.84853" lon="6.14074">
        <ele>1977.8</ele>
        <time>2024-08-13T12:23:45Z</time>
      </trkpt>
      <trkpt lat="44.84853" lon="6.14074">
        <ele>1978</ele>
        <time>2024-08-13T12:23:46Z</time>
      </trkpt>
      <trkpt lat="44.84853" lon="6.14074">
        <ele>1978</ele>
        <time>2024-08-13T12:23:47Z</time>
      </trkpt>
      <trkpt lat="44.84854" lon="6.1407">
        <ele>1978.2</ele>
        <time>2024-08-13T12:23:48Z</time>
      </trkpt>
      <trkpt lat="44.84854" lon="6.1407">
        <ele>1978.8</ele>
        <time>2024-08-13T12:23:49Z</time>
      </trkpt>
      <trkpt lat="44.84855" lon="6.14068">
        <ele>1978.8</ele>
        <time>2024-08-13T12:23:50Z</time>
      </trkpt>
      <trkpt lat="44.84855" lon="6.14068">
        <ele>1979</ele>
        <time>2024-08-13T12:23:51Z</time>
      </trkpt>
      <trkpt lat="44.84857" lon="6.14064">
        <ele>1979.2</ele>
        <time>2024-08-13T12:23:52Z</time>
      </trkpt>
      <trkpt lat="44.84857" lon="6.14064">
        <ele>1979.4</ele>
        <time>2024-08-13T12:23:53Z</time>
      </trkpt>
      <trkpt lat="44.84858" lon="6.14062">
        <ele>1979.4</ele>
        <time>2024-08-13T12:23:54Z</time>
      </trkpt>
      <trkpt lat="44.84858" lon="6.14062">
        <ele>1979.8</ele>
        <time>2024-08-13T12:23:55Z</time>
      </trkpt>
      <trkpt lat="44.84858" lon="6.14062">
        <ele>1980</ele>
        <time>2024-08-13T12:23:56Z</time>
      </trkpt>
      <trkpt lat="44.84858" lon="6.14062">
        <ele>1980.2</ele>
        <time>2024-08-13T12:23:57Z</time>
      </trkpt>
      <trkpt lat="44.8486" lon="6.1406">
        <ele>1980.6</ele>
        <time>2024-08-13T12:23:58Z</time>
      </trkpt>
      <trkpt lat="44.8486" lon="6.1406">
        <ele>1980.8</ele>
        <time>2024-08-13T12:23:59Z</time>
      </trkpt>
      <trkpt lat="44.8486" lon="6.1406">
        <ele>1981</ele>
        <time>2024-08-13T12:24:00Z</time>
      </trkpt>
      <trkpt lat="44.84861" lon="6.14058">
        <ele>1981.2</ele>
        <time>2024-08-13T12:24:01Z</time>
      </trkpt>
      <trkpt lat="44.84861" lon="6.14058">
        <ele>1981.6</ele>
        <time>2024-08-13T12:24:02Z</time>
      </trkpt>
      <trkpt lat="44.84861" lon="6.14058">
        <ele>1981.6</ele>
        <time>2024-08-13T12:24:03Z</time>
      </trkpt>
      <trkpt lat="44.84863" lon="6.14056">
        <ele>1981.8</ele>
        <time>2024-08-13T12:24:04Z</time>
      </trkpt>
      <trkpt lat="44.84863" lon="6.14056">
        <ele>1982</ele>
        <time>2024-08-13T12:24:05Z</time>
      </trkpt>
      <trkpt lat="44.84863" lon="6.14056">
        <ele>1982.2</ele>
        <time>2024-08-13T12:24:06Z</time>
      </trkpt>
      <trkpt lat="44.84865" lon="6.14054">
        <ele>1982.4</ele>
        <time>2024-08-13T12:24:07Z</time>
      </trkpt>
      <trkpt lat="44.84865" lon="6.14054">
        <ele>1982.4</ele>
        <time>2024-08-13T12:24:08Z</time>
      </trkpt>
      <trkpt lat="44.84865" lon="6.14054">
        <ele>1983</ele>
        <time>2024-08-13T12:24:09Z</time>
      </trkpt>
      <trkpt lat="44.84866" lon="6.14052">
        <ele>1983</ele>
        <time>2024-08-13T12:24:10Z</time>
      </trkpt>
      <trkpt lat="44.84866" lon="6.14052">
        <ele>1983</ele>
        <time>2024-08-13T12:24:11Z</time>
      </trkpt>
      <trkpt lat="44.84866" lon="6.14052">
        <ele>1983.2</ele>
        <time>2024-08-13T12:24:12Z</time>
      </trkpt>
      <trkpt lat="44.84868" lon="6.14049">
        <ele>1983.6</ele>
        <time>2024-08-13T12:24:13Z</time>
      </trkpt>
      <trkpt lat="44.84868" lon="6.14049">
        <ele>1984</ele>
        <time>2024-08-13T12:24:14Z</time>
      </trkpt>
      <trkpt lat="44.84869" lon="6.14048">
        <ele>1984.6</ele>
        <time>2024-08-13T12:24:15Z</time>
      </trkpt>
      <trkpt lat="44.84869" lon="6.14048">
        <ele>1984.8</ele>
        <time>2024-08-13T12:24:16Z</time>
      </trkpt>
      <trkpt lat="44.84871" lon="6.14045">
        <ele>1985</ele>
        <time>2024-08-13T12:24:17Z</time>
      </trkpt>
      <trkpt lat="44.84871" lon="6.14045">
        <ele>1985.4</ele>
        <time>2024-08-13T12:24:18Z</time>
      </trkpt>
      <trkpt lat="44.84871" lon="6.14045">
        <ele>1985.4</ele>
        <time>2024-08-13T12:24:19Z</time>
      </trkpt>
      <trkpt lat="44.84873" lon="6.14043">
        <ele>1985.6</ele>
        <time>2024-08-13T12:24:20Z</time>
      </trkpt>
      <trkpt lat="44.84873" lon="6.14043">
        <ele>1985.6</ele>
        <time>2024-08-13T12:24:21Z</time>
      </trkpt>
      <trkpt lat="44.84874" lon="6.1404">
        <ele>1985.6</ele>
        <time>2024-08-13T12:24:22Z</time>
      </trkpt>
      <trkpt lat="44.84874" lon="6.1404">
        <ele>1985.6</ele>
        <time>2024-08-13T12:24:23Z</time>
      </trkpt>
      <trkpt lat="44.84874" lon="6.1404">
        <ele>1985.6</ele>
        <time>2024-08-13T12:24:24Z</time>
      </trkpt>
      <trkpt lat="44.84876" lon="6.14037">
        <ele>1985.8</ele>
        <time>2024-08-13T12:24:25Z</time>
      </trkpt>
      <trkpt lat="44.84876" lon="6.14037">
        <ele>1985.8</ele>
        <time>2024-08-13T12:24:26Z</time>
      </trkpt>
      <trkpt lat="44.84876" lon="6.14037">
        <ele>1986</ele>
        <time>2024-08-13T12:24:27Z</time>
      </trkpt>
      <trkpt lat="44.84876" lon="6.14034">
        <ele>1986</ele>
        <time>2024-08-13T12:24:28Z</time>
      </trkpt>
      <trkpt lat="44.84876" lon="6.14034">
        <ele>1986.4</ele>
        <time>2024-08-13T12:24:29Z</time>
      </trkpt>
      <trkpt lat="44.84876" lon="6.14034">
        <ele>1986.6</ele>
        <time>2024-08-13T12:24:30Z</time>
      </trkpt>
      <trkpt lat="44.84876" lon="6.14034">
        <ele>1986.6</ele>
        <time>2024-08-13T12:24:31Z</time>
      </trkpt>
      <trkpt lat="44.84877" lon="6.14032">
        <ele>1987.2</ele>
        <time>2024-08-13T12:24:32Z</time>
      </trkpt>
      <trkpt lat="44.84877" lon="6.14032">
        <ele>1987.6</ele>
        <time>2024-08-13T12:24:33Z</time>
      </trkpt>
      <trkpt lat="44.84878" lon="6.14029">
        <ele>1987.8</ele>
        <time>2024-08-13T12:24:34Z</time>
      </trkpt>
      <trkpt lat="44.84878" lon="6.14029">
        <ele>1988.2</ele>
        <time>2024-08-13T12:24:35Z</time>
      </trkpt>
      <trkpt lat="44.8488" lon="6.14027">
        <ele>1988.2</ele>
        <time>2024-08-13T12:24:36Z</time>
      </trkpt>
      <trkpt lat="44.8488" lon="6.14027">
        <ele>1988.6</ele>
        <time>2024-08-13T12:24:37Z</time>
      </trkpt>
      <trkpt lat="44.8488" lon="6.14024">
        <ele>1988.8</ele>
        <time>2024-08-13T12:24:38Z</time>
      </trkpt>
      <trkpt lat="44.8488" lon="6.14024">
        <ele>1988.8</ele>
        <time>2024-08-13T12:24:39Z</time>
      </trkpt>
      <trkpt lat="44.8488" lon="6.14024">
        <ele>1988.6</ele>
        <time>2024-08-13T12:24:40Z</time>
      </trkpt>
      <trkpt lat="44.8488" lon="6.1402">
        <ele>1988.6</ele>
        <time>2024-08-13T12:24:41Z</time>
      </trkpt>
      <trkpt lat="44.8488" lon="6.1402">
        <ele>1988.6</ele>
        <time>2024-08-13T12:24:42Z</time>
      </trkpt>
      <trkpt lat="44.8488" lon="6.1402">
        <ele>1989</ele>
        <time>2024-08-13T12:24:43Z</time>
      </trkpt>
      <trkpt lat="44.84881" lon="6.14017">
        <ele>1989.2</ele>
        <time>2024-08-13T12:24:44Z</time>
      </trkpt>
      <trkpt lat="44.84881" lon="6.14017">
        <ele>1989.4</ele>
        <time>2024-08-13T12:24:45Z</time>
      </trkpt>
      <trkpt lat="44.84881" lon="6.14017">
        <ele>1989.6</ele>
        <time>2024-08-13T12:24:46Z</time>
      </trkpt>
      <trkpt lat="44.84883" lon="6.14015">
        <ele>1989.6</ele>
        <time>2024-08-13T12:24:47Z</time>
      </trkpt>
      <trkpt lat="44.84883" lon="6.14015">
        <ele>1989.8</ele>
        <time>2024-08-13T12:24:48Z</time>
      </trkpt>
      <trkpt lat="44.84883" lon="6.14015">
        <ele>1989.8</ele>
        <time>2024-08-13T12:24:49Z</time>
      </trkpt>
      <trkpt lat="44.84885" lon="6.14013">
        <ele>1990.2</ele>
        <time>2024-08-13T12:24:50Z</time>
      </trkpt>
      <trkpt lat="44.84885" lon="6.14013">
        <ele>1990.6</ele>
        <time>2024-08-13T12:24:51Z</time>
      </trkpt>
      <trkpt lat="44.84885" lon="6.14013">
        <ele>1990.6</ele>
        <time>2024-08-13T12:24:52Z</time>
      </trkpt>
      <trkpt lat="44.84885" lon="6.14013">
        <ele>1990.8</ele>
        <time>2024-08-13T12:24:53Z</time>
      </trkpt>
      <trkpt lat="44.84887" lon="6.14012">
        <ele>1990.8</ele>
        <time>2024-08-13T12:24:54Z</time>
      </trkpt>
      <trkpt lat="44.84887" lon="6.14012">
        <ele>1990.8</ele>
        <time>2024-08-13T12:24:55Z</time>
      </trkpt>
      <trkpt lat="44.84887" lon="6.14012">
        <ele>1990.8</ele>
        <time>2024-08-13T12:24:56Z</time>
      </trkpt>
      <trkpt lat="44.84889" lon="6.1401">
        <ele>1991.2</ele>
        <time>2024-08-13T12:24:57Z</time>
      </trkpt>
      <trkpt lat="44.84889" lon="6.1401">
        <ele>1991.2</ele>
        <time>2024-08-13T12:24:58Z</time>
      </trkpt>
      <trkpt lat="44.84889" lon="6.1401">
        <ele>1991.2</ele>
        <time>2024-08-13T12:24:59Z</time>
      </trkpt>
      <trkpt lat="44.84889" lon="6.1401">
        <ele>1991.2</ele>
        <time>2024-08-13T12:25:00Z</time>
      </trkpt>
      <trkpt lat="44.84889" lon="6.1401">
        <ele>1991.2</ele>
        <time>2024-08-13T12:25:01Z</time>
      </trkpt>
      <trkpt lat="44.84889" lon="6.1401">
        <ele>1991.4</ele>
        <time>2024-08-13T12:25:02Z</time>
      </trkpt>
      <trkpt lat="44.84891" lon="6.14009">
        <ele>1991.4</ele>
        <time>2024-08-13T12:25:03Z</time>
      </trkpt>
      <trkpt lat="44.84891" lon="6.14009">
        <ele>1991.4</ele>
        <time>2024-08-13T12:25:04Z</time>
      </trkpt>
      <trkpt lat="44.84891" lon="6.14009">
        <ele>1991.2</ele>
        <time>2024-08-13T12:25:05Z</time>
      </trkpt>
      <trkpt lat="44.84891" lon="6.14009">
        <ele>1991</ele>
        <time>2024-08-13T12:25:06Z</time>
      </trkpt>
      <trkpt lat="44.84891" lon="6.14009">
        <ele>1990.8</ele>
        <time>2024-08-13T12:25:07Z</time>
      </trkpt>
      <trkpt lat="44.84891" lon="6.14009">
        <ele>1990.8</ele>
        <time>2024-08-13T12:25:08Z</time>
      </trkpt>
      <trkpt lat="44.84891" lon="6.14009">
        <ele>1990.8</ele>
        <time>2024-08-13T12:25:09Z</time>
      </trkpt>
      <trkpt lat="44.84891" lon="6.14009">
        <ele>1991.2</ele>
        <time>2024-08-13T12:25:10Z</time>
      </trkpt>
      <trkpt lat="44.84891" lon="6.14009">
        <ele>1991.6</ele>
        <time>2024-08-13T12:25:11Z</time>
      </trkpt>
      <trkpt lat="44.84891" lon="6.14009">
        <ele>1991.6</ele>
        <time>2024-08-13T12:25:12Z</time>
      </trkpt>
      <trkpt lat="44.84891" lon="6.14009">
        <ele>1992.2</ele>
        <time>2024-08-13T12:25:13Z</time>
      </trkpt>
      <trkpt lat="44.84891" lon="6.14009">
        <ele>1992.2</ele>
        <time>2024-08-13T12:25:14Z</time>
      </trkpt>
      <trkpt lat="44.84892" lon="6.14005">
        <ele>1992</ele>
        <time>2024-08-13T12:25:15Z</time>
      </trkpt>
      <trkpt lat="44.84892" lon="6.14005">
        <ele>1992</ele>
        <time>2024-08-13T12:25:16Z</time>
      </trkpt>
      <trkpt lat="44.84893" lon="6.14003">
        <ele>1992.4</ele>
        <time>2024-08-13T12:25:17Z</time>
      </trkpt>
      <trkpt lat="44.84893" lon="6.14003">
        <ele>1992.6</ele>
        <time>2024-08-13T12:25:18Z</time>
      </trkpt>
      <trkpt lat="44.84893" lon="6.14003">
        <ele>1992.8</ele>
        <time>2024-08-13T12:25:19Z</time>
      </trkpt>
      <trkpt lat="44.84894" lon="6.14">
        <ele>1993</ele>
        <time>2024-08-13T12:25:20Z</time>
      </trkpt>
      <trkpt lat="44.84894" lon="6.14">
        <ele>1993</ele>
        <time>2024-08-13T12:25:21Z</time>
      </trkpt>
      <trkpt lat="44.84895" lon="6.13998">
        <ele>1993.2</ele>
        <time>2024-08-13T12:25:22Z</time>
      </trkpt>
      <trkpt lat="44.84895" lon="6.13998">
        <ele>1993.2</ele>
        <time>2024-08-13T12:25:23Z</time>
      </trkpt>
      <trkpt lat="44.84895" lon="6.13998">
        <ele>1993.2</ele>
        <time>2024-08-13T12:25:24Z</time>
      </trkpt>
      <trkpt lat="44.84895" lon="6.13998">
        <ele>1993.2</ele>
        <time>2024-08-13T12:25:25Z</time>
      </trkpt>
      <trkpt lat="44.84897" lon="6.13996">
        <ele>1993.2</ele>
        <time>2024-08-13T12:25:26Z</time>
      </trkpt>
      <trkpt lat="44.84897" lon="6.13996">
        <ele>1992.8</ele>
        <time>2024-08-13T12:25:27Z</time>
      </trkpt>
      <trkpt lat="44.84897" lon="6.13996">
        <ele>1992.8</ele>
        <time>2024-08-13T12:25:28Z</time>
      </trkpt>
      <trkpt lat="44.84899" lon="6.13994">
        <ele>1993.2</ele>
        <time>2024-08-13T12:25:29Z</time>
      </trkpt>
      <trkpt lat="44.84899" lon="6.13994">
        <ele>1993.4</ele>
        <time>2024-08-13T12:25:30Z</time>
      </trkpt>
      <trkpt lat="44.84899" lon="6.13994">
        <ele>1993.8</ele>
        <time>2024-08-13T12:25:31Z</time>
      </trkpt>
      <trkpt lat="44.849" lon="6.13992">
        <ele>1993.8</ele>
        <time>2024-08-13T12:25:32Z</time>
      </trkpt>
      <trkpt lat="44.849" lon="6.13992">
        <ele>1994</ele>
        <time>2024-08-13T12:25:33Z</time>
      </trkpt>
      <trkpt lat="44.849" lon="6.13992">
        <ele>1994</ele>
        <time>2024-08-13T12:25:34Z</time>
      </trkpt>
      <trkpt lat="44.84902" lon="6.13989">
        <ele>1994.2</ele>
        <time>2024-08-13T12:25:35Z</time>
      </trkpt>
      <trkpt lat="44.84902" lon="6.13989">
        <ele>1994.4</ele>
        <time>2024-08-13T12:25:36Z</time>
      </trkpt>
      <trkpt lat="44.84902" lon="6.13989">
        <ele>1994.4</ele>
        <time>2024-08-13T12:25:37Z</time>
      </trkpt>
      <trkpt lat="44.84903" lon="6.13987">
        <ele>1994.6</ele>
        <time>2024-08-13T12:25:38Z</time>
      </trkpt>
      <trkpt lat="44.84903" lon="6.13987">
        <ele>1994.6</ele>
        <time>2024-08-13T12:25:39Z</time>
      </trkpt>
      <trkpt lat="44.84903" lon="6.13987">
        <ele>1994.8</ele>
        <time>2024-08-13T12:25:40Z</time>
      </trkpt>
      <trkpt lat="44.84905" lon="6.13984">
        <ele>1994.8</ele>
        <time>2024-08-13T12:25:41Z</time>
      </trkpt>
      <trkpt lat="44.84905" lon="6.13984">
        <ele>1994.8</ele>
        <time>2024-08-13T12:25:42Z</time>
      </trkpt>
      <trkpt lat="44.84905" lon="6.13984">
        <ele>1994.8</ele>
        <time>2024-08-13T12:25:43Z</time>
      </trkpt>
      <trkpt lat="44.84907" lon="6.13981">
        <ele>1994.8</ele>
        <time>2024-08-13T12:25:44Z</time>
      </trkpt>
      <trkpt lat="44.84907" lon="6.13981">
        <ele>1994.6</ele>
        <time>2024-08-13T12:25:45Z</time>
      </trkpt>
      <trkpt lat="44.84907" lon="6.13981">
        <ele>1994.4</ele>
        <time>2024-08-13T12:25:46Z</time>
      </trkpt>
      <trkpt lat="44.84909" lon="6.13979">
        <ele>1994.4</ele>
        <time>2024-08-13T12:25:47Z</time>
      </trkpt>
      <trkpt lat="44.84909" lon="6.13979">
        <ele>1995.2</ele>
        <time>2024-08-13T12:25:48Z</time>
      </trkpt>
      <trkpt lat="44.84909" lon="6.13979">
        <ele>1995.2</ele>
        <time>2024-08-13T12:25:49Z</time>
      </trkpt>
      <trkpt lat="44.84909" lon="6.13979">
        <ele>1995.2</ele>
        <time>2024-08-13T12:25:50Z</time>
      </trkpt>
      <trkpt lat="44.84911" lon="6.13977">
        <ele>1995.6</ele>
        <time>2024-08-13T12:25:51Z</time>
      </trkpt>
      <trkpt lat="44.84911" lon="6.13977">
        <ele>1995.8</ele>
        <time>2024-08-13T12:25:52Z</time>
      </trkpt>
      <trkpt lat="44.84911" lon="6.13977">
        <ele>1995.8</ele>
        <time>2024-08-13T12:25:53Z</time>
      </trkpt>
      <trkpt lat="44.84911" lon="6.13977">
        <ele>1996.2</ele>
        <time>2024-08-13T12:25:54Z</time>
      </trkpt>
      <trkpt lat="44.84913" lon="6.13974">
        <ele>1996.4</ele>
        <time>2024-08-13T12:25:55Z</time>
      </trkpt>
      <trkpt lat="44.84913" lon="6.13974">
        <ele>1996.8</ele>
        <time>2024-08-13T12:25:56Z</time>
      </trkpt>
      <trkpt lat="44.84913" lon="6.13974">
        <ele>1997.2</ele>
        <time>2024-08-13T12:25:57Z</time>
      </trkpt>
      <trkpt lat="44.84914" lon="6.13973">
        <ele>1997.4</ele>
        <time>2024-08-13T12:25:58Z</time>
      </trkpt>
      <trkpt lat="44.84914" lon="6.13973">
        <ele>1998.2</ele>
        <time>2024-08-13T12:25:59Z</time>
      </trkpt>
      <trkpt lat="44.84914" lon="6.13973">
        <ele>1998.4</ele>
        <time>2024-08-13T12:26:00Z</time>
      </trkpt>
      <trkpt lat="44.84916" lon="6.13971">
        <ele>1998.6</ele>
        <time>2024-08-13T12:26:01Z</time>
      </trkpt>
      <trkpt lat="44.84916" lon="6.13971">
        <ele>1999.4</ele>
        <time>2024-08-13T12:26:02Z</time>
      </trkpt>
      <trkpt lat="44.84916" lon="6.13971">
        <ele>1999.4</ele>
        <time>2024-08-13T12:26:03Z</time>
      </trkpt>
      <trkpt lat="44.84919" lon="6.13971">
        <ele>1999.4</ele>
        <time>2024-08-13T12:26:04Z</time>
      </trkpt>
      <trkpt lat="44.84919" lon="6.13971">
        <ele>1999.8</ele>
        <time>2024-08-13T12:26:05Z</time>
      </trkpt>
      <trkpt lat="44.84919" lon="6.13971">
        <ele>2000.4</ele>
        <time>2024-08-13T12:26:06Z</time>
      </trkpt>
      <trkpt lat="44.84921" lon="6.1397">
        <ele>2000.6</ele>
        <time>2024-08-13T12:26:07Z</time>
      </trkpt>
      <trkpt lat="44.84921" lon="6.1397">
        <ele>2000.6</ele>
        <time>2024-08-13T12:26:08Z</time>
      </trkpt>
      <trkpt lat="44.84921" lon="6.1397">
        <ele>2000.8</ele>
        <time>2024-08-13T12:26:09Z</time>
      </trkpt>
      <trkpt lat="44.84921" lon="6.1397">
        <ele>2000.8</ele>
        <time>2024-08-13T12:26:10Z</time>
      </trkpt>
      <trkpt lat="44.84921" lon="6.1397">
        <ele>2000.8</ele>
        <time>2024-08-13T12:26:11Z</time>
      </trkpt>
      <trkpt lat="44.84921" lon="6.1397">
        <ele>2001.2</ele>
        <time>2024-08-13T12:26:12Z</time>
      </trkpt>
      <trkpt lat="44.84921" lon="6.1397">
        <ele>2001.4</ele>
        <time>2024-08-13T12:26:13Z</time>
      </trkpt>
      <trkpt lat="44.84921" lon="6.1397">
        <ele>2001.8</ele>
        <time>2024-08-13T12:26:14Z</time>
      </trkpt>
      <trkpt lat="44.84921" lon="6.1397">
        <ele>2001.8</ele>
        <time>2024-08-13T12:26:15Z</time>
      </trkpt>
      <trkpt lat="44.84921" lon="6.1397">
        <ele>2001.8</ele>
        <time>2024-08-13T12:26:16Z</time>
      </trkpt>
      <trkpt lat="44.84921" lon="6.1397">
        <ele>2001.8</ele>
        <time>2024-08-13T12:26:17Z</time>
      </trkpt>
      <trkpt lat="44.84921" lon="6.1397">
        <ele>2001.8</ele>
        <time>2024-08-13T12:26:18Z</time>
      </trkpt>
      <trkpt lat="44.84921" lon="6.1397">
        <ele>2001.8</ele>
        <time>2024-08-13T12:26:19Z</time>
      </trkpt>
      <trkpt lat="44.84921" lon="6.1397">
        <ele>2001.8</ele>
        <time>2024-08-13T12:26:20Z</time>
      </trkpt>
      <trkpt lat="44.84921" lon="6.1397">
        <ele>2001.8</ele>
        <time>2024-08-13T12:26:21Z</time>
      </trkpt>
      <trkpt lat="44.84921" lon="6.1397">
        <ele>2001.6</ele>
        <time>2024-08-13T12:26:22Z</time>
      </trkpt>
      <trkpt lat="44.84921" lon="6.1397">
        <ele>2001.6</ele>
        <time>2024-08-13T12:26:23Z</time>
      </trkpt>
      <trkpt lat="44.84921" lon="6.1397">
        <ele>2001.4</ele>
        <time>2024-08-13T12:26:24Z</time>
      </trkpt>
      <trkpt lat="44.84921" lon="6.1397">
        <ele>2001</ele>
        <time>2024-08-13T12:26:25Z</time>
      </trkpt>
      <trkpt lat="44.84921" lon="6.1397">
        <ele>2001</ele>
        <time>2024-08-13T12:26:26Z</time>
      </trkpt>
      <trkpt lat="44.84921" lon="6.1397">
        <ele>2001.2</ele>
        <time>2024-08-13T12:26:27Z</time>
      </trkpt>
      <trkpt lat="44.84921" lon="6.1397">
        <ele>2001.2</ele>
        <time>2024-08-13T12:26:28Z</time>
      </trkpt>
      <trkpt lat="44.84921" lon="6.1397">
        <ele>2001</ele>
        <time>2024-08-13T12:26:29Z</time>
      </trkpt>
      <trkpt lat="44.84921" lon="6.1397">
        <ele>2001</ele>
        <time>2024-08-13T12:26:30Z</time>
      </trkpt>
      <trkpt lat="44.84921" lon="6.1397">
        <ele>2001</ele>
        <time>2024-08-13T12:26:31Z</time>
      </trkpt>
      <trkpt lat="44.84921" lon="6.1397">
        <ele>2001</ele>
        <time>2024-08-13T12:26:32Z</time>
      </trkpt>
      <trkpt lat="44.84921" lon="6.1397">
        <ele>2000.8</ele>
        <time>2024-08-13T12:26:33Z</time>
      </trkpt>
      <trkpt lat="44.84921" lon="6.1397">
        <ele>2000.6</ele>
        <time>2024-08-13T12:26:34Z</time>
      </trkpt>
      <trkpt lat="44.84921" lon="6.1397">
        <ele>2000.6</ele>
        <time>2024-08-13T12:26:35Z</time>
      </trkpt>
      <trkpt lat="44.84921" lon="6.1397">
        <ele>2000.6</ele>
        <time>2024-08-13T12:26:36Z</time>
      </trkpt>
      <trkpt lat="44.84922" lon="6.13967">
        <ele>2000.8</ele>
        <time>2024-08-13T12:26:37Z</time>
      </trkpt>
      <trkpt lat="44.84922" lon="6.13967">
        <ele>2001</ele>
        <time>2024-08-13T12:26:38Z</time>
      </trkpt>
      <trkpt lat="44.84923" lon="6.13965">
        <ele>2001</ele>
        <time>2024-08-13T12:26:39Z</time>
      </trkpt>
      <trkpt lat="44.84923" lon="6.13965">
        <ele>2001.2</ele>
        <time>2024-08-13T12:26:40Z</time>
      </trkpt>
      <trkpt lat="44.84923" lon="6.13965">
        <ele>2001.4</ele>
        <time>2024-08-13T12:26:41Z</time>
      </trkpt>
      <trkpt lat="44.84923" lon="6.13965">
        <ele>2001.4</ele>
        <time>2024-08-13T12:26:42Z</time>
      </trkpt>
      <trkpt lat="44.84923" lon="6.13965">
        <ele>2001.6</ele>
        <time>2024-08-13T12:26:43Z</time>
      </trkpt>
      <trkpt lat="44.84923" lon="6.13965">
        <ele>2001.6</ele>
        <time>2024-08-13T12:26:44Z</time>
      </trkpt>
      <trkpt lat="44.84923" lon="6.13965">
        <ele>2001.6</ele>
        <time>2024-08-13T12:26:45Z</time>
      </trkpt>
      <trkpt lat="44.84923" lon="6.13965">
        <ele>2001.6</ele>
        <time>2024-08-13T12:26:46Z</time>
      </trkpt>
      <trkpt lat="44.84923" lon="6.13965">
        <ele>2001.8</ele>
        <time>2024-08-13T12:26:47Z</time>
      </trkpt>
      <trkpt lat="44.84923" lon="6.13965">
        <ele>2002</ele>
        <time>2024-08-13T12:26:48Z</time>
      </trkpt>
      <trkpt lat="44.84923" lon="6.13965">
        <ele>2002.2</ele>
        <time>2024-08-13T12:26:49Z</time>
      </trkpt>
      <trkpt lat="44.84923" lon="6.13965">
        <ele>2002.2</ele>
        <time>2024-08-13T12:26:50Z</time>
      </trkpt>
      <trkpt lat="44.84923" lon="6.13965">
        <ele>2002.2</ele>
        <time>2024-08-13T12:26:51Z</time>
      </trkpt>
      <trkpt lat="44.84923" lon="6.13965">
        <ele>2002.2</ele>
        <time>2024-08-13T12:26:52Z</time>
      </trkpt>
      <trkpt lat="44.84923" lon="6.13965">
        <ele>2002.6</ele>
        <time>2024-08-13T12:26:53Z</time>
      </trkpt>
      <trkpt lat="44.84923" lon="6.13965">
        <ele>2002.6</ele>
        <time>2024-08-13T12:26:54Z</time>
      </trkpt>
      <trkpt lat="44.84923" lon="6.13965">
        <ele>2002.6</ele>
        <time>2024-08-13T12:26:55Z</time>
      </trkpt>
      <trkpt lat="44.84923" lon="6.13965">
        <ele>2002.8</ele>
        <time>2024-08-13T12:26:56Z</time>
      </trkpt>
      <trkpt lat="44.84923" lon="6.13965">
        <ele>2002.8</ele>
        <time>2024-08-13T12:26:57Z</time>
      </trkpt>
      <trkpt lat="44.84923" lon="6.13965">
        <ele>2002.8</ele>
        <time>2024-08-13T12:26:58Z</time>
      </trkpt>
      <trkpt lat="44.84923" lon="6.13965">
        <ele>2003</ele>
        <time>2024-08-13T12:26:59Z</time>
      </trkpt>
      <trkpt lat="44.84923" lon="6.13965">
        <ele>2003.2</ele>
        <time>2024-08-13T12:27:00Z</time>
      </trkpt>
      <trkpt lat="44.84923" lon="6.13965">
        <ele>2003.4</ele>
        <time>2024-08-13T12:27:01Z</time>
      </trkpt>
      <trkpt lat="44.84923" lon="6.13965">
        <ele>2003.4</ele>
        <time>2024-08-13T12:27:02Z</time>
      </trkpt>
      <trkpt lat="44.84923" lon="6.13965">
        <ele>2003.4</ele>
        <time>2024-08-13T12:27:03Z</time>
      </trkpt>
      <trkpt lat="44.84923" lon="6.13965">
        <ele>2003.4</ele>
        <time>2024-08-13T12:27:04Z</time>
      </trkpt>
      <trkpt lat="44.84923" lon="6.13965">
        <ele>2003.4</ele>
        <time>2024-08-13T12:27:05Z</time>
      </trkpt>
      <trkpt lat="44.84923" lon="6.13965">
        <ele>2003.4</ele>
        <time>2024-08-13T12:27:06Z</time>
      </trkpt>
      <trkpt lat="44.84923" lon="6.13965">
        <ele>2003.6</ele>
        <time>2024-08-13T12:27:07Z</time>
      </trkpt>
      <trkpt lat="44.84923" lon="6.13965">
        <ele>2003.6</ele>
        <time>2024-08-13T12:27:08Z</time>
      </trkpt>
      <trkpt lat="44.84923" lon="6.13965">
        <ele>2003.6</ele>
        <time>2024-08-13T12:27:09Z</time>
      </trkpt>
      <trkpt lat="44.84923" lon="6.13965">
        <ele>2003.6</ele>
        <time>2024-08-13T12:27:10Z</time>
      </trkpt>
      <trkpt lat="44.84923" lon="6.13965">
        <ele>2003.4</ele>
        <time>2024-08-13T12:27:11Z</time>
      </trkpt>
      <trkpt lat="44.84923" lon="6.13965">
        <ele>2003.4</ele>
        <time>2024-08-13T12:27:12Z</time>
      </trkpt>
      <trkpt lat="44.84923" lon="6.13965">
        <ele>2003.6</ele>
        <time>2024-08-13T12:27:13Z</time>
      </trkpt>
      <trkpt lat="44.84923" lon="6.13965">
        <ele>2003.8</ele>
        <time>2024-08-13T12:27:14Z</time>
      </trkpt>
      <trkpt lat="44.84923" lon="6.13965">
        <ele>2004</ele>
        <time>2024-08-13T12:27:15Z</time>
      </trkpt>
      <trkpt lat="44.84923" lon="6.13965">
        <ele>2004</ele>
        <time>2024-08-13T12:27:16Z</time>
      </trkpt>
      <trkpt lat="44.84923" lon="6.13965">
        <ele>2004</ele>
        <time>2024-08-13T12:27:17Z</time>
      </trkpt>
      <trkpt lat="44.84923" lon="6.13965">
        <ele>2003.8</ele>
        <time>2024-08-13T12:27:18Z</time>
      </trkpt>
      <trkpt lat="44.84925" lon="6.13964">
        <ele>2003.8</ele>
        <time>2024-08-13T12:27:19Z</time>
      </trkpt>
      <trkpt lat="44.84925" lon="6.13964">
        <ele>2004.2</ele>
        <time>2024-08-13T12:27:20Z</time>
      </trkpt>
      <trkpt lat="44.84928" lon="6.13964">
        <ele>2004.4</ele>
        <time>2024-08-13T12:27:21Z</time>
      </trkpt>
      <trkpt lat="44.84928" lon="6.13964">
        <ele>2004.6</ele>
        <time>2024-08-13T12:27:22Z</time>
      </trkpt>
      <trkpt lat="44.8493" lon="6.13964">
        <ele>2004.8</ele>
        <time>2024-08-13T12:27:23Z</time>
      </trkpt>
      <trkpt lat="44.8493" lon="6.13964">
        <ele>2004.8</ele>
        <time>2024-08-13T12:27:24Z</time>
      </trkpt>
      <trkpt lat="44.84932" lon="6.13962">
        <ele>2005</ele>
        <time>2024-08-13T12:27:25Z</time>
      </trkpt>
      <trkpt lat="44.84932" lon="6.13962">
        <ele>2005</ele>
        <time>2024-08-13T12:27:26Z</time>
      </trkpt>
      <trkpt lat="44.84933" lon="6.13961">
        <ele>2004.6</ele>
        <time>2024-08-13T12:27:27Z</time>
      </trkpt>
      <trkpt lat="44.84933" lon="6.13961">
        <ele>2004.6</ele>
        <time>2024-08-13T12:27:28Z</time>
      </trkpt>
      <trkpt lat="44.84933" lon="6.13961">
        <ele>2004.4</ele>
        <time>2024-08-13T12:27:29Z</time>
      </trkpt>
      <trkpt lat="44.84934" lon="6.13958">
        <ele>2004.4</ele>
        <time>2024-08-13T12:27:30Z</time>
      </trkpt>
      <trkpt lat="44.84934" lon="6.13958">
        <ele>2004.4</ele>
        <time>2024-08-13T12:27:31Z</time>
      </trkpt>
      <trkpt lat="44.84934" lon="6.13958">
        <ele>2004.4</ele>
        <time>2024-08-13T12:27:32Z</time>
      </trkpt>
      <trkpt lat="44.84935" lon="6.13955">
        <ele>2004.2</ele>
        <time>2024-08-13T12:27:33Z</time>
      </trkpt>
      <trkpt lat="44.84935" lon="6.13955">
        <ele>2004.2</ele>
        <time>2024-08-13T12:27:34Z</time>
      </trkpt>
      <trkpt lat="44.84935" lon="6.13955">
        <ele>2004.8</ele>
        <time>2024-08-13T12:27:35Z</time>
      </trkpt>
      <trkpt lat="44.84936" lon="6.13952">
        <ele>2005.2</ele>
        <time>2024-08-13T12:27:36Z</time>
      </trkpt>
      <trkpt lat="44.84936" lon="6.13952">
        <ele>2005.4</ele>
        <time>2024-08-13T12:27:37Z</time>
      </trkpt>
      <trkpt lat="44.84936" lon="6.13952">
        <ele>2005.4</ele>
        <time>2024-08-13T12:27:38Z</time>
      </trkpt>
      <trkpt lat="44.84937" lon="6.13949">
        <ele>2005.6</ele>
        <time>2024-08-13T12:27:39Z</time>
      </trkpt>
      <trkpt lat="44.84937" lon="6.13949">
        <ele>2005.8</ele>
        <time>2024-08-13T12:27:40Z</time>
      </trkpt>
      <trkpt lat="44.84937" lon="6.13949">
        <ele>2005.6</ele>
        <time>2024-08-13T12:27:41Z</time>
      </trkpt>
      <trkpt lat="44.84938" lon="6.13946">
        <ele>2005.8</ele>
        <time>2024-08-13T12:27:42Z</time>
      </trkpt>
      <trkpt lat="44.84938" lon="6.13946">
        <ele>2005.8</ele>
        <time>2024-08-13T12:27:43Z</time>
      </trkpt>
      <trkpt lat="44.84938" lon="6.13946">
        <ele>2006.2</ele>
        <time>2024-08-13T12:27:44Z</time>
      </trkpt>
      <trkpt lat="44.84939" lon="6.13943">
        <ele>2006.8</ele>
        <time>2024-08-13T12:27:45Z</time>
      </trkpt>
      <trkpt lat="44.84939" lon="6.13943">
        <ele>2007.2</ele>
        <time>2024-08-13T12:27:46Z</time>
      </trkpt>
      <trkpt lat="44.84939" lon="6.13943">
        <ele>2007.4</ele>
        <time>2024-08-13T12:27:47Z</time>
      </trkpt>
      <trkpt lat="44.8494" lon="6.1394">
        <ele>2007.6</ele>
        <time>2024-08-13T12:27:48Z</time>
      </trkpt>
      <trkpt lat="44.8494" lon="6.1394">
        <ele>2007.6</ele>
        <time>2024-08-13T12:27:49Z</time>
      </trkpt>
      <trkpt lat="44.84941" lon="6.13938">
        <ele>2007.6</ele>
        <time>2024-08-13T12:27:50Z</time>
      </trkpt>
      <trkpt lat="44.84941" lon="6.13938">
        <ele>2007.8</ele>
        <time>2024-08-13T12:27:51Z</time>
      </trkpt>
      <trkpt lat="44.84941" lon="6.13938">
        <ele>2007.8</ele>
        <time>2024-08-13T12:27:52Z</time>
      </trkpt>
      <trkpt lat="44.84942" lon="6.13935">
        <ele>2008</ele>
        <time>2024-08-13T12:27:53Z</time>
      </trkpt>
      <trkpt lat="44.84942" lon="6.13935">
        <ele>2008.2</ele>
        <time>2024-08-13T12:27:54Z</time>
      </trkpt>
      <trkpt lat="44.84942" lon="6.13935">
        <ele>2008.2</ele>
        <time>2024-08-13T12:27:55Z</time>
      </trkpt>
      <trkpt lat="44.84943" lon="6.13933">
        <ele>2008.2</ele>
        <time>2024-08-13T12:27:56Z</time>
      </trkpt>
      <trkpt lat="44.84943" lon="6.13933">
        <ele>2008.4</ele>
        <time>2024-08-13T12:27:57Z</time>
      </trkpt>
      <trkpt lat="44.84943" lon="6.13933">
        <ele>2008.4</ele>
        <time>2024-08-13T12:27:58Z</time>
      </trkpt>
      <trkpt lat="44.84944" lon="6.13931">
        <ele>2008.4</ele>
        <time>2024-08-13T12:27:59Z</time>
      </trkpt>
      <trkpt lat="44.84944" lon="6.13931">
        <ele>2008.4</ele>
        <time>2024-08-13T12:28:00Z</time>
      </trkpt>
      <trkpt lat="44.84944" lon="6.13931">
        <ele>2008.8</ele>
        <time>2024-08-13T12:28:01Z</time>
      </trkpt>
      <trkpt lat="44.84945" lon="6.13928">
        <ele>2009.4</ele>
        <time>2024-08-13T12:28:02Z</time>
      </trkpt>
      <trkpt lat="44.84945" lon="6.13928">
        <ele>2009.4</ele>
        <time>2024-08-13T12:28:03Z</time>
      </trkpt>
      <trkpt lat="44.84945" lon="6.13928">
        <ele>2009.4</ele>
        <time>2024-08-13T12:28:04Z</time>
      </trkpt>
      <trkpt lat="44.84947" lon="6.13926">
        <ele>2009.4</ele>
        <time>2024-08-13T12:28:05Z</time>
      </trkpt>
      <trkpt lat="44.84947" lon="6.13926">
        <ele>2009.6</ele>
        <time>2024-08-13T12:28:06Z</time>
      </trkpt>
      <trkpt lat="44.84947" lon="6.13926">
        <ele>2009.6</ele>
        <time>2024-08-13T12:28:07Z</time>
      </trkpt>
      <trkpt lat="44.84947" lon="6.13926">
        <ele>2009.6</ele>
        <time>2024-08-13T12:28:08Z</time>
      </trkpt>
      <trkpt lat="44.84949" lon="6.13924">
        <ele>2009.6</ele>
        <time>2024-08-13T12:28:09Z</time>
      </trkpt>
      <trkpt lat="44.84949" lon="6.13924">
        <ele>2009.6</ele>
        <time>2024-08-13T12:28:10Z</time>
      </trkpt>
      <trkpt lat="44.84949" lon="6.13924">
        <ele>2009.6</ele>
        <time>2024-08-13T12:28:11Z</time>
      </trkpt>
      <trkpt lat="44.84949" lon="6.13924">
        <ele>2009.8</ele>
        <time>2024-08-13T12:28:12Z</time>
      </trkpt>
      <trkpt lat="44.8495" lon="6.13921">
        <ele>2009.8</ele>
        <time>2024-08-13T12:28:13Z</time>
      </trkpt>
      <trkpt lat="44.8495" lon="6.13921">
        <ele>2009.8</ele>
        <time>2024-08-13T12:28:14Z</time>
      </trkpt>
      <trkpt lat="44.8495" lon="6.13921">
        <ele>2009.8</ele>
        <time>2024-08-13T12:28:15Z</time>
      </trkpt>
      <trkpt lat="44.8495" lon="6.13921">
        <ele>2010</ele>
        <time>2024-08-13T12:28:16Z</time>
      </trkpt>
      <trkpt lat="44.84952" lon="6.13919">
        <ele>2010.4</ele>
        <time>2024-08-13T12:28:17Z</time>
      </trkpt>
      <trkpt lat="44.84952" lon="6.13919">
        <ele>2010.8</ele>
        <time>2024-08-13T12:28:18Z</time>
      </trkpt>
      <trkpt lat="44.84952" lon="6.13919">
        <ele>2010.8</ele>
        <time>2024-08-13T12:28:19Z</time>
      </trkpt>
      <trkpt lat="44.84955" lon="6.13919">
        <ele>2011.4</ele>
        <time>2024-08-13T12:28:20Z</time>
      </trkpt>
      <trkpt lat="44.84955" lon="6.13919">
        <ele>2012</ele>
        <time>2024-08-13T12:28:21Z</time>
      </trkpt>
      <trkpt lat="44.84955" lon="6.13919">
        <ele>2012</ele>
        <time>2024-08-13T12:28:22Z</time>
      </trkpt>
      <trkpt lat="44.84957" lon="6.13919">
        <ele>2012</ele>
        <time>2024-08-13T12:28:23Z</time>
      </trkpt>
      <trkpt lat="44.84957" lon="6.13919">
        <ele>2012</ele>
        <time>2024-08-13T12:28:24Z</time>
      </trkpt>
      <trkpt lat="44.84957" lon="6.13919">
        <ele>2012.2</ele>
        <time>2024-08-13T12:28:25Z</time>
      </trkpt>
      <trkpt lat="44.84958" lon="6.13918">
        <ele>2012.4</ele>
        <time>2024-08-13T12:28:26Z</time>
      </trkpt>
      <trkpt lat="44.84958" lon="6.13918">
        <ele>2012.6</ele>
        <time>2024-08-13T12:28:27Z</time>
      </trkpt>
      <trkpt lat="44.84958" lon="6.13918">
        <ele>2012.8</ele>
        <time>2024-08-13T12:28:28Z</time>
      </trkpt>
      <trkpt lat="44.8496" lon="6.13919">
        <ele>2013</ele>
        <time>2024-08-13T12:28:29Z</time>
      </trkpt>
      <trkpt lat="44.8496" lon="6.13919">
        <ele>2013.2</ele>
        <time>2024-08-13T12:28:30Z</time>
      </trkpt>
      <trkpt lat="44.8496" lon="6.13919">
        <ele>2013.4</ele>
        <time>2024-08-13T12:28:31Z</time>
      </trkpt>
      <trkpt lat="44.8496" lon="6.13919">
        <ele>2013.8</ele>
        <time>2024-08-13T12:28:32Z</time>
      </trkpt>
      <trkpt lat="44.8496" lon="6.13919">
        <ele>2014</ele>
        <time>2024-08-13T12:28:33Z</time>
      </trkpt>
      <trkpt lat="44.8496" lon="6.13922">
        <ele>2014.2</ele>
        <time>2024-08-13T12:28:34Z</time>
      </trkpt>
      <trkpt lat="44.8496" lon="6.13922">
        <ele>2014.6</ele>
        <time>2024-08-13T12:28:35Z</time>
      </trkpt>
      <trkpt lat="44.8496" lon="6.13922">
        <ele>2014.8</ele>
        <time>2024-08-13T12:28:36Z</time>
      </trkpt>
      <trkpt lat="44.84959" lon="6.13924">
        <ele>2015</ele>
        <time>2024-08-13T12:28:37Z</time>
      </trkpt>
      <trkpt lat="44.84959" lon="6.13924">
        <ele>2015.2</ele>
        <time>2024-08-13T12:28:38Z</time>
      </trkpt>
      <trkpt lat="44.84959" lon="6.13924">
        <ele>2015.2</ele>
        <time>2024-08-13T12:28:39Z</time>
      </trkpt>
      <trkpt lat="44.84959" lon="6.13924">
        <ele>2015.2</ele>
        <time>2024-08-13T12:28:40Z</time>
      </trkpt>
      <trkpt lat="44.84959" lon="6.13924">
        <ele>2015.6</ele>
        <time>2024-08-13T12:28:41Z</time>
      </trkpt>
      <trkpt lat="44.84959" lon="6.13928">
        <ele>2015.6</ele>
        <time>2024-08-13T12:28:42Z</time>
      </trkpt>
      <trkpt lat="44.84959" lon="6.13928">
        <ele>2015.6</ele>
        <time>2024-08-13T12:28:43Z</time>
      </trkpt>
      <trkpt lat="44.84959" lon="6.13928">
        <ele>2015.2</ele>
        <time>2024-08-13T12:28:44Z</time>
      </trkpt>
      <trkpt lat="44.84959" lon="6.13931">
        <ele>2015.2</ele>
        <time>2024-08-13T12:28:45Z</time>
      </trkpt>
      <trkpt lat="44.84959" lon="6.13931">
        <ele>2015.2</ele>
        <time>2024-08-13T12:28:46Z</time>
      </trkpt>
      <trkpt lat="44.84959" lon="6.13934">
        <ele>2015.8</ele>
        <time>2024-08-13T12:28:47Z</time>
      </trkpt>
      <trkpt lat="44.84959" lon="6.13934">
        <ele>2016</ele>
        <time>2024-08-13T12:28:48Z</time>
      </trkpt>
      <trkpt lat="44.84959" lon="6.13938">
        <ele>2016</ele>
        <time>2024-08-13T12:28:49Z</time>
      </trkpt>
      <trkpt lat="44.84959" lon="6.13938">
        <ele>2016</ele>
        <time>2024-08-13T12:28:50Z</time>
      </trkpt>
      <trkpt lat="44.84958" lon="6.13941">
        <ele>2016</ele>
        <time>2024-08-13T12:28:51Z</time>
      </trkpt>
      <trkpt lat="44.84958" lon="6.13941">
        <ele>2016</ele>
        <time>2024-08-13T12:28:52Z</time>
      </trkpt>
      <trkpt lat="44.84958" lon="6.13941">
        <ele>2016</ele>
        <time>2024-08-13T12:28:53Z</time>
      </trkpt>
      <trkpt lat="44.84959" lon="6.13944">
        <ele>2016.2</ele>
        <time>2024-08-13T12:28:54Z</time>
      </trkpt>
      <trkpt lat="44.84959" lon="6.13944">
        <ele>2016.2</ele>
        <time>2024-08-13T12:28:55Z</time>
      </trkpt>
      <trkpt lat="44.84959" lon="6.13944">
        <ele>2016.4</ele>
        <time>2024-08-13T12:28:56Z</time>
      </trkpt>
      <trkpt lat="44.8496" lon="6.13947">
        <ele>2016.6</ele>
        <time>2024-08-13T12:28:57Z</time>
      </trkpt>
      <trkpt lat="44.8496" lon="6.13947">
        <ele>2016.6</ele>
        <time>2024-08-13T12:28:58Z</time>
      </trkpt>
      <trkpt lat="44.8496" lon="6.13947">
        <ele>2017</ele>
        <time>2024-08-13T12:28:59Z</time>
      </trkpt>
      <trkpt lat="44.84961" lon="6.1395">
        <ele>2017.2</ele>
        <time>2024-08-13T12:29:00Z</time>
      </trkpt>
      <trkpt lat="44.84961" lon="6.1395">
        <ele>2017.2</ele>
        <time>2024-08-13T12:29:01Z</time>
      </trkpt>
      <trkpt lat="44.84961" lon="6.1395">
        <ele>2017.4</ele>
        <time>2024-08-13T12:29:02Z</time>
      </trkpt>
      <trkpt lat="44.84961" lon="6.1395">
        <ele>2017.4</ele>
        <time>2024-08-13T12:29:03Z</time>
      </trkpt>
      <trkpt lat="44.84961" lon="6.1395">
        <ele>2017.6</ele>
        <time>2024-08-13T12:29:04Z</time>
      </trkpt>
      <trkpt lat="44.84961" lon="6.13953">
        <ele>2017.8</ele>
        <time>2024-08-13T12:29:05Z</time>
      </trkpt>
      <trkpt lat="44.84961" lon="6.13953">
        <ele>2018</ele>
        <time>2024-08-13T12:29:06Z</time>
      </trkpt>
      <trkpt lat="44.84961" lon="6.13953">
        <ele>2018.2</ele>
        <time>2024-08-13T12:29:07Z</time>
      </trkpt>
      <trkpt lat="44.84961" lon="6.13956">
        <ele>2018.4</ele>
        <time>2024-08-13T12:29:08Z</time>
      </trkpt>
      <trkpt lat="44.84961" lon="6.13956">
        <ele>2018.4</ele>
        <time>2024-08-13T12:29:09Z</time>
      </trkpt>
      <trkpt lat="44.84961" lon="6.13956">
        <ele>2018.6</ele>
        <time>2024-08-13T12:29:10Z</time>
      </trkpt>
      <trkpt lat="44.8496" lon="6.13959">
        <ele>2018.6</ele>
        <time>2024-08-13T12:29:11Z</time>
      </trkpt>
      <trkpt lat="44.8496" lon="6.13959">
        <ele>2018.8</ele>
        <time>2024-08-13T12:29:12Z</time>
      </trkpt>
      <trkpt lat="44.8496" lon="6.13959">
        <ele>2019</ele>
        <time>2024-08-13T12:29:13Z</time>
      </trkpt>
      <trkpt lat="44.84961" lon="6.13963">
        <ele>2019</ele>
        <time>2024-08-13T12:29:14Z</time>
      </trkpt>
      <trkpt lat="44.84961" lon="6.13963">
        <ele>2019.2</ele>
        <time>2024-08-13T12:29:15Z</time>
      </trkpt>
      <trkpt lat="44.84961" lon="6.13966">
        <ele>2019.2</ele>
        <time>2024-08-13T12:29:16Z</time>
      </trkpt>
      <trkpt lat="44.84961" lon="6.13966">
        <ele>2019.4</ele>
        <time>2024-08-13T12:29:17Z</time>
      </trkpt>
      <trkpt lat="44.84961" lon="6.13966">
        <ele>2019.6</ele>
        <time>2024-08-13T12:29:18Z</time>
      </trkpt>
      <trkpt lat="44.84961" lon="6.13966">
        <ele>2019.6</ele>
        <time>2024-08-13T12:29:19Z</time>
      </trkpt>
      <trkpt lat="44.84962" lon="6.13969">
        <ele>2019.6</ele>
        <time>2024-08-13T12:29:20Z</time>
      </trkpt>
      <trkpt lat="44.84962" lon="6.13969">
        <ele>2019.8</ele>
        <time>2024-08-13T12:29:21Z</time>
      </trkpt>
      <trkpt lat="44.84962" lon="6.13969">
        <ele>2020.2</ele>
        <time>2024-08-13T12:29:22Z</time>
      </trkpt>
      <trkpt lat="44.84963" lon="6.13971">
        <ele>2020.2</ele>
        <time>2024-08-13T12:29:23Z</time>
      </trkpt>
      <trkpt lat="44.84963" lon="6.13971">
        <ele>2020.4</ele>
        <time>2024-08-13T12:29:24Z</time>
      </trkpt>
      <trkpt lat="44.84963" lon="6.13971">
        <ele>2020.6</ele>
        <time>2024-08-13T12:29:25Z</time>
      </trkpt>
      <trkpt lat="44.84963" lon="6.13971">
        <ele>2020.6</ele>
        <time>2024-08-13T12:29:26Z</time>
      </trkpt>
      <trkpt lat="44.84963" lon="6.13974">
        <ele>2020.8</ele>
        <time>2024-08-13T12:29:27Z</time>
      </trkpt>
      <trkpt lat="44.84963" lon="6.13974">
        <ele>2021</ele>
        <time>2024-08-13T12:29:28Z</time>
      </trkpt>
      <trkpt lat="44.84963" lon="6.13974">
        <ele>2021.2</ele>
        <time>2024-08-13T12:29:29Z</time>
      </trkpt>
      <trkpt lat="44.84964" lon="6.13976">
        <ele>2021.2</ele>
        <time>2024-08-13T12:29:30Z</time>
      </trkpt>
      <trkpt lat="44.84964" lon="6.13976">
        <ele>2021.2</ele>
        <time>2024-08-13T12:29:31Z</time>
      </trkpt>
      <trkpt lat="44.84964" lon="6.13976">
        <ele>2021.4</ele>
        <time>2024-08-13T12:29:32Z</time>
      </trkpt>
      <trkpt lat="44.84964" lon="6.13979">
        <ele>2021.6</ele>
        <time>2024-08-13T12:29:33Z</time>
      </trkpt>
      <trkpt lat="44.84964" lon="6.13979">
        <ele>2021.6</ele>
        <time>2024-08-13T12:29:34Z</time>
      </trkpt>
      <trkpt lat="44.84964" lon="6.13979">
        <ele>2021.8</ele>
        <time>2024-08-13T12:29:35Z</time>
      </trkpt>
      <trkpt lat="44.84964" lon="6.13982">
        <ele>2022.2</ele>
        <time>2024-08-13T12:29:36Z</time>
      </trkpt>
      <trkpt lat="44.84964" lon="6.13982">
        <ele>2022.4</ele>
        <time>2024-08-13T12:29:37Z</time>
      </trkpt>
      <trkpt lat="44.84964" lon="6.13982">
        <ele>2022.6</ele>
        <time>2024-08-13T12:29:38Z</time>
      </trkpt>
      <trkpt lat="44.84963" lon="6.13985">
        <ele>2022.6</ele>
        <time>2024-08-13T12:29:39Z</time>
      </trkpt>
      <trkpt lat="44.84963" lon="6.13985">
        <ele>2023.2</ele>
        <time>2024-08-13T12:29:40Z</time>
      </trkpt>
      <trkpt lat="44.84961" lon="6.13988">
        <ele>2023.2</ele>
        <time>2024-08-13T12:29:41Z</time>
      </trkpt>
      <trkpt lat="44.84961" lon="6.13988">
        <ele>2023</ele>
        <time>2024-08-13T12:29:42Z</time>
      </trkpt>
      <trkpt lat="44.8496" lon="6.1399">
        <ele>2023</ele>
        <time>2024-08-13T12:29:43Z</time>
      </trkpt>
      <trkpt lat="44.8496" lon="6.1399">
        <ele>2023</ele>
        <time>2024-08-13T12:29:44Z</time>
      </trkpt>
      <trkpt lat="44.8496" lon="6.1399">
        <ele>2023</ele>
        <time>2024-08-13T12:29:45Z</time>
      </trkpt>
      <trkpt lat="44.84959" lon="6.13993">
        <ele>2023.2</ele>
        <time>2024-08-13T12:29:46Z</time>
      </trkpt>
      <trkpt lat="44.84959" lon="6.13993">
        <ele>2023.2</ele>
        <time>2024-08-13T12:29:47Z</time>
      </trkpt>
      <trkpt lat="44.84959" lon="6.13993">
        <ele>2023.4</ele>
        <time>2024-08-13T12:29:48Z</time>
      </trkpt>
      <trkpt lat="44.84959" lon="6.13996">
        <ele>2023.4</ele>
        <time>2024-08-13T12:29:49Z</time>
      </trkpt>
      <trkpt lat="44.84959" lon="6.13996">
        <ele>2023.8</ele>
        <time>2024-08-13T12:29:50Z</time>
      </trkpt>
      <trkpt lat="44.84959" lon="6.13996">
        <ele>2024</ele>
        <time>2024-08-13T12:29:51Z</time>
      </trkpt>
      <trkpt lat="44.84959" lon="6.14">
        <ele>2024.4</ele>
        <time>2024-08-13T12:29:52Z</time>
      </trkpt>
      <trkpt lat="44.84959" lon="6.14">
        <ele>2024.4</ele>
        <time>2024-08-13T12:29:53Z</time>
      </trkpt>
      <trkpt lat="44.84959" lon="6.14">
        <ele>2024.4</ele>
        <time>2024-08-13T12:29:54Z</time>
      </trkpt>
      <trkpt lat="44.84958" lon="6.14003">
        <ele>2024.6</ele>
        <time>2024-08-13T12:29:55Z</time>
      </trkpt>
      <trkpt lat="44.84958" lon="6.14003">
        <ele>2024.6</ele>
        <time>2024-08-13T12:29:56Z</time>
      </trkpt>
      <trkpt lat="44.84958" lon="6.14003">
        <ele>2024.8</ele>
        <time>2024-08-13T12:29:57Z</time>
      </trkpt>
      <trkpt lat="44.84957" lon="6.14007">
        <ele>2025.4</ele>
        <time>2024-08-13T12:29:58Z</time>
      </trkpt>
      <trkpt lat="44.84957" lon="6.14007">
        <ele>2025.8</ele>
        <time>2024-08-13T12:29:59Z</time>
      </trkpt>
      <trkpt lat="44.84957" lon="6.1401">
        <ele>2025.8</ele>
        <time>2024-08-13T12:30:00Z</time>
      </trkpt>
      <trkpt lat="44.84957" lon="6.1401">
        <ele>2025.8</ele>
        <time>2024-08-13T12:30:01Z</time>
      </trkpt>
      <trkpt lat="44.84957" lon="6.1401">
        <ele>2026.4</ele>
        <time>2024-08-13T12:30:02Z</time>
      </trkpt>
      <trkpt lat="44.84956" lon="6.14013">
        <ele>2026.4</ele>
        <time>2024-08-13T12:30:03Z</time>
      </trkpt>
      <trkpt lat="44.84956" lon="6.14013">
        <ele>2026.4</ele>
        <time>2024-08-13T12:30:04Z</time>
      </trkpt>
      <trkpt lat="44.84956" lon="6.14013">
        <ele>2026.4</ele>
        <time>2024-08-13T12:30:05Z</time>
      </trkpt>
      <trkpt lat="44.84955" lon="6.14016">
        <ele>2026.4</ele>
        <time>2024-08-13T12:30:06Z</time>
      </trkpt>
      <trkpt lat="44.84955" lon="6.14016">
        <ele>2026.6</ele>
        <time>2024-08-13T12:30:07Z</time>
      </trkpt>
      <trkpt lat="44.84955" lon="6.14016">
        <ele>2026.6</ele>
        <time>2024-08-13T12:30:08Z</time>
      </trkpt>
      <trkpt lat="44.84953" lon="6.14019">
        <ele>2026.8</ele>
        <time>2024-08-13T12:30:09Z</time>
      </trkpt>
      <trkpt lat="44.84953" lon="6.14019">
        <ele>2027</ele>
        <time>2024-08-13T12:30:10Z</time>
      </trkpt>
      <trkpt lat="44.84953" lon="6.14019">
        <ele>2027</ele>
        <time>2024-08-13T12:30:11Z</time>
      </trkpt>
      <trkpt lat="44.84953" lon="6.14019">
        <ele>2027.2</ele>
        <time>2024-08-13T12:30:12Z</time>
      </trkpt>
      <trkpt lat="44.84953" lon="6.14021">
        <ele>2027.6</ele>
        <time>2024-08-13T12:30:13Z</time>
      </trkpt>
      <trkpt lat="44.84953" lon="6.14021">
        <ele>2027.6</ele>
        <time>2024-08-13T12:30:14Z</time>
      </trkpt>
      <trkpt lat="44.84953" lon="6.14021">
        <ele>2027.6</ele>
        <time>2024-08-13T12:30:15Z</time>
      </trkpt>
      <trkpt lat="44.84952" lon="6.14024">
        <ele>2027.8</ele>
        <time>2024-08-13T12:30:16Z</time>
      </trkpt>
      <trkpt lat="44.84952" lon="6.14024">
        <ele>2027.8</ele>
        <time>2024-08-13T12:30:17Z</time>
      </trkpt>
      <trkpt lat="44.84952" lon="6.14024">
        <ele>2028</ele>
        <time>2024-08-13T12:30:18Z</time>
      </trkpt>
      <trkpt lat="44.84952" lon="6.14026">
        <ele>2028.2</ele>
        <time>2024-08-13T12:30:19Z</time>
      </trkpt>
      <trkpt lat="44.84952" lon="6.14026">
        <ele>2028.6</ele>
        <time>2024-08-13T12:30:20Z</time>
      </trkpt>
      <trkpt lat="44.84952" lon="6.14026">
        <ele>2028.6</ele>
        <time>2024-08-13T12:30:21Z</time>
      </trkpt>
      <trkpt lat="44.84952" lon="6.14026">
        <ele>2028.6</ele>
        <time>2024-08-13T12:30:22Z</time>
      </trkpt>
      <trkpt lat="44.84951" lon="6.1403">
        <ele>2028.8</ele>
        <time>2024-08-13T12:30:23Z</time>
      </trkpt>
      <trkpt lat="44.84951" lon="6.1403">
        <ele>2028.8</ele>
        <time>2024-08-13T12:30:24Z</time>
      </trkpt>
      <trkpt lat="44.8495" lon="6.14033">
        <ele>2029.2</ele>
        <time>2024-08-13T12:30:25Z</time>
      </trkpt>
      <trkpt lat="44.8495" lon="6.14033">
        <ele>2029.2</ele>
        <time>2024-08-13T12:30:26Z</time>
      </trkpt>
      <trkpt lat="44.8495" lon="6.14033">
        <ele>2029.4</ele>
        <time>2024-08-13T12:30:27Z</time>
      </trkpt>
      <trkpt lat="44.84949" lon="6.14036">
        <ele>2029.8</ele>
        <time>2024-08-13T12:30:28Z</time>
      </trkpt>
      <trkpt lat="44.84949" lon="6.14036">
        <ele>2029.8</ele>
        <time>2024-08-13T12:30:29Z</time>
      </trkpt>
      <trkpt lat="44.84949" lon="6.14036">
        <ele>2030</ele>
        <time>2024-08-13T12:30:30Z</time>
      </trkpt>
      <trkpt lat="44.84949" lon="6.14039">
        <ele>2030.4</ele>
        <time>2024-08-13T12:30:31Z</time>
      </trkpt>
      <trkpt lat="44.84949" lon="6.14039">
        <ele>2030.4</ele>
        <time>2024-08-13T12:30:32Z</time>
      </trkpt>
      <trkpt lat="44.84949" lon="6.14039">
        <ele>2030.4</ele>
        <time>2024-08-13T12:30:33Z</time>
      </trkpt>
      <trkpt lat="44.84948" lon="6.14042">
        <ele>2031</ele>
        <time>2024-08-13T12:30:34Z</time>
      </trkpt>
      <trkpt lat="44.84948" lon="6.14042">
        <ele>2031.2</ele>
        <time>2024-08-13T12:30:35Z</time>
      </trkpt>
      <trkpt lat="44.84948" lon="6.14042">
        <ele>2031.2</ele>
        <time>2024-08-13T12:30:36Z</time>
      </trkpt>
      <trkpt lat="44.84947" lon="6.14045">
        <ele>2031.2</ele>
        <time>2024-08-13T12:30:37Z</time>
      </trkpt>
      <trkpt lat="44.84947" lon="6.14045">
        <ele>2031.4</ele>
        <time>2024-08-13T12:30:38Z</time>
      </trkpt>
      <trkpt lat="44.84947" lon="6.14045">
        <ele>2031.4</ele>
        <time>2024-08-13T12:30:39Z</time>
      </trkpt>
      <trkpt lat="44.84947" lon="6.14045">
        <ele>2031.6</ele>
        <time>2024-08-13T12:30:40Z</time>
      </trkpt>
      <trkpt lat="44.84947" lon="6.14049">
        <ele>2031.6</ele>
        <time>2024-08-13T12:30:41Z</time>
      </trkpt>
      <trkpt lat="44.84947" lon="6.14049">
        <ele>2031.6</ele>
        <time>2024-08-13T12:30:42Z</time>
      </trkpt>
      <trkpt lat="44.84947" lon="6.14049">
        <ele>2031.8</ele>
        <time>2024-08-13T12:30:43Z</time>
      </trkpt>
      <trkpt lat="44.84945" lon="6.14051">
        <ele>2032.2</ele>
        <time>2024-08-13T12:30:44Z</time>
      </trkpt>
      <trkpt lat="44.84945" lon="6.14051">
        <ele>2032.4</ele>
        <time>2024-08-13T12:30:45Z</time>
      </trkpt>
      <trkpt lat="44.84945" lon="6.14051">
        <ele>2032.4</ele>
        <time>2024-08-13T12:30:46Z</time>
      </trkpt>
      <trkpt lat="44.84945" lon="6.14054">
        <ele>2032.4</ele>
        <time>2024-08-13T12:30:47Z</time>
      </trkpt>
      <trkpt lat="44.84945" lon="6.14054">
        <ele>2032.4</ele>
        <time>2024-08-13T12:30:48Z</time>
      </trkpt>
      <trkpt lat="44.84945" lon="6.14054">
        <ele>2032.4</ele>
        <time>2024-08-13T12:30:49Z</time>
      </trkpt>
      <trkpt lat="44.84944" lon="6.14057">
        <ele>2033</ele>
        <time>2024-08-13T12:30:50Z</time>
      </trkpt>
      <trkpt lat="44.84944" lon="6.14057">
        <ele>2033</ele>
        <time>2024-08-13T12:30:51Z</time>
      </trkpt>
      <trkpt lat="44.84944" lon="6.14057">
        <ele>2033.2</ele>
        <time>2024-08-13T12:30:52Z</time>
      </trkpt>
      <trkpt lat="44.84941" lon="6.14059">
        <ele>2033.2</ele>
        <time>2024-08-13T12:30:53Z</time>
      </trkpt>
      <trkpt lat="44.84941" lon="6.14059">
        <ele>2033.4</ele>
        <time>2024-08-13T12:30:54Z</time>
      </trkpt>
      <trkpt lat="44.84941" lon="6.14059">
        <ele>2033.4</ele>
        <time>2024-08-13T12:30:55Z</time>
      </trkpt>
      <trkpt lat="44.84941" lon="6.14062">
        <ele>2033.4</ele>
        <time>2024-08-13T12:30:56Z</time>
      </trkpt>
      <trkpt lat="44.84941" lon="6.14062">
        <ele>2033.4</ele>
        <time>2024-08-13T12:30:57Z</time>
      </trkpt>
      <trkpt lat="44.84939" lon="6.14063">
        <ele>2033.6</ele>
        <time>2024-08-13T12:30:58Z</time>
      </trkpt>
      <trkpt lat="44.84939" lon="6.14063">
        <ele>2033.8</ele>
        <time>2024-08-13T12:30:59Z</time>
      </trkpt>
      <trkpt lat="44.84939" lon="6.14063">
        <ele>2033.8</ele>
        <time>2024-08-13T12:31:00Z</time>
      </trkpt>
      <trkpt lat="44.84938" lon="6.14066">
        <ele>2034.2</ele>
        <time>2024-08-13T12:31:01Z</time>
      </trkpt>
      <trkpt lat="44.84938" lon="6.14066">
        <ele>2034.4</ele>
        <time>2024-08-13T12:31:02Z</time>
      </trkpt>
      <trkpt lat="44.84938" lon="6.14066">
        <ele>2034.4</ele>
        <time>2024-08-13T12:31:03Z</time>
      </trkpt>
      <trkpt lat="44.84938" lon="6.14066">
        <ele>2034.8</ele>
        <time>2024-08-13T12:31:04Z</time>
      </trkpt>
      <trkpt lat="44.84938" lon="6.14066">
        <ele>2034.8</ele>
        <time>2024-08-13T12:31:05Z</time>
      </trkpt>
      <trkpt lat="44.84939" lon="6.14063">
        <ele>2035</ele>
        <time>2024-08-13T12:31:06Z</time>
      </trkpt>
      <trkpt lat="44.84939" lon="6.14063">
        <ele>2035.2</ele>
        <time>2024-08-13T12:31:07Z</time>
      </trkpt>
      <trkpt lat="44.84939" lon="6.14063">
        <ele>2035.4</ele>
        <time>2024-08-13T12:31:08Z</time>
      </trkpt>
      <trkpt lat="44.8494" lon="6.14061">
        <ele>2035.4</ele>
        <time>2024-08-13T12:31:09Z</time>
      </trkpt>
      <trkpt lat="44.8494" lon="6.14061">
        <ele>2035.4</ele>
        <time>2024-08-13T12:31:10Z</time>
      </trkpt>
      <trkpt lat="44.8494" lon="6.14061">
        <ele>2035.4</ele>
        <time>2024-08-13T12:31:11Z</time>
      </trkpt>
      <trkpt lat="44.8494" lon="6.14061">
        <ele>2035.6</ele>
        <time>2024-08-13T12:31:12Z</time>
      </trkpt>
      <trkpt lat="44.8494" lon="6.14061">
        <ele>2036</ele>
        <time>2024-08-13T12:31:13Z</time>
      </trkpt>
      <trkpt lat="44.8494" lon="6.14061">
        <ele>2036.2</ele>
        <time>2024-08-13T12:31:14Z</time>
      </trkpt>
      <trkpt lat="44.8494" lon="6.14061">
        <ele>2036.4</ele>
        <time>2024-08-13T12:31:15Z</time>
      </trkpt>
      <trkpt lat="44.84941" lon="6.14059">
        <ele>2036.6</ele>
        <time>2024-08-13T12:31:16Z</time>
      </trkpt>
      <trkpt lat="44.84941" lon="6.14059">
        <ele>2036.6</ele>
        <time>2024-08-13T12:31:17Z</time>
      </trkpt>
      <trkpt lat="44.84941" lon="6.14059">
        <ele>2036.8</ele>
        <time>2024-08-13T12:31:18Z</time>
      </trkpt>
      <trkpt lat="44.84941" lon="6.14059">
        <ele>2037.2</ele>
        <time>2024-08-13T12:31:19Z</time>
      </trkpt>
      <trkpt lat="44.84943" lon="6.14057">
        <ele>2037.4</ele>
        <time>2024-08-13T12:31:20Z</time>
      </trkpt>
      <trkpt lat="44.84943" lon="6.14057">
        <ele>2037.4</ele>
        <time>2024-08-13T12:31:21Z</time>
      </trkpt>
      <trkpt lat="44.84946" lon="6.14054">
        <ele>2037.6</ele>
        <time>2024-08-13T12:31:22Z</time>
      </trkpt>
      <trkpt lat="44.84946" lon="6.14054">
        <ele>2037.8</ele>
        <time>2024-08-13T12:31:23Z</time>
      </trkpt>
      <trkpt lat="44.84948" lon="6.14053">
        <ele>2037.8</ele>
        <time>2024-08-13T12:31:24Z</time>
      </trkpt>
      <trkpt lat="44.84948" lon="6.14053">
        <ele>2037.8</ele>
        <time>2024-08-13T12:31:25Z</time>
      </trkpt>
      <trkpt lat="44.84949" lon="6.14051">
        <ele>2037.8</ele>
        <time>2024-08-13T12:31:26Z</time>
      </trkpt>
      <trkpt lat="44.84949" lon="6.14051">
        <ele>2037.8</ele>
        <time>2024-08-13T12:31:27Z</time>
      </trkpt>
      <trkpt lat="44.84951" lon="6.1405">
        <ele>2038.2</ele>
        <time>2024-08-13T12:31:28Z</time>
      </trkpt>
      <trkpt lat="44.84951" lon="6.1405">
        <ele>2038.2</ele>
        <time>2024-08-13T12:31:29Z</time>
      </trkpt>
      <trkpt lat="44.84951" lon="6.1405">
        <ele>2038.2</ele>
        <time>2024-08-13T12:31:30Z</time>
      </trkpt>
      <trkpt lat="44.84951" lon="6.1405">
        <ele>2038.4</ele>
        <time>2024-08-13T12:31:31Z</time>
      </trkpt>
      <trkpt lat="44.84952" lon="6.14046">
        <ele>2038.4</ele>
        <time>2024-08-13T12:31:32Z</time>
      </trkpt>
      <trkpt lat="44.84952" lon="6.14046">
        <ele>2038.4</ele>
        <time>2024-08-13T12:31:33Z</time>
      </trkpt>
      <trkpt lat="44.84952" lon="6.14046">
        <ele>2038.4</ele>
        <time>2024-08-13T12:31:34Z</time>
      </trkpt>
      <trkpt lat="44.84954" lon="6.14044">
        <ele>2038.8</ele>
        <time>2024-08-13T12:31:35Z</time>
      </trkpt>
      <trkpt lat="44.84954" lon="6.14044">
        <ele>2038.8</ele>
        <time>2024-08-13T12:31:36Z</time>
      </trkpt>
      <trkpt lat="44.84954" lon="6.14044">
        <ele>2038.8</ele>
        <time>2024-08-13T12:31:37Z</time>
      </trkpt>
      <trkpt lat="44.84956" lon="6.14042">
        <ele>2039</ele>
        <time>2024-08-13T12:31:38Z</time>
      </trkpt>
      <trkpt lat="44.84956" lon="6.14042">
        <ele>2039</ele>
        <time>2024-08-13T12:31:39Z</time>
      </trkpt>
      <trkpt lat="44.84956" lon="6.14042">
        <ele>2039</ele>
        <time>2024-08-13T12:31:40Z</time>
      </trkpt>
      <trkpt lat="44.84957" lon="6.1404">
        <ele>2039.4</ele>
        <time>2024-08-13T12:31:41Z</time>
      </trkpt>
      <trkpt lat="44.84957" lon="6.1404">
        <ele>2039.6</ele>
        <time>2024-08-13T12:31:42Z</time>
      </trkpt>
      <trkpt lat="44.84957" lon="6.1404">
        <ele>2039.8</ele>
        <time>2024-08-13T12:31:43Z</time>
      </trkpt>
      <trkpt lat="44.84959" lon="6.14038">
        <ele>2039.8</ele>
        <time>2024-08-13T12:31:44Z</time>
      </trkpt>
      <trkpt lat="44.84959" lon="6.14038">
        <ele>2040.2</ele>
        <time>2024-08-13T12:31:45Z</time>
      </trkpt>
      <trkpt lat="44.84961" lon="6.14037">
        <ele>2040.2</ele>
        <time>2024-08-13T12:31:46Z</time>
      </trkpt>
      <trkpt lat="44.84961" lon="6.14037">
        <ele>2040.2</ele>
        <time>2024-08-13T12:31:47Z</time>
      </trkpt>
      <trkpt lat="44.84961" lon="6.14037">
        <ele>2040.4</ele>
        <time>2024-08-13T12:31:48Z</time>
      </trkpt>
      <trkpt lat="44.84963" lon="6.14034">
        <ele>2040.4</ele>
        <time>2024-08-13T12:31:49Z</time>
      </trkpt>
      <trkpt lat="44.84963" lon="6.14034">
        <ele>2040.6</ele>
        <time>2024-08-13T12:31:50Z</time>
      </trkpt>
      <trkpt lat="44.84963" lon="6.14034">
        <ele>2040.6</ele>
        <time>2024-08-13T12:31:51Z</time>
      </trkpt>
      <trkpt lat="44.84965" lon="6.14032">
        <ele>2040.6</ele>
        <time>2024-08-13T12:31:52Z</time>
      </trkpt>
      <trkpt lat="44.84965" lon="6.14032">
        <ele>2041</ele>
        <time>2024-08-13T12:31:53Z</time>
      </trkpt>
      <trkpt lat="44.84965" lon="6.14032">
        <ele>2041.2</ele>
        <time>2024-08-13T12:31:54Z</time>
      </trkpt>
      <trkpt lat="44.84966" lon="6.1403">
        <ele>2041.2</ele>
        <time>2024-08-13T12:31:55Z</time>
      </trkpt>
      <trkpt lat="44.84966" lon="6.1403">
        <ele>2041.2</ele>
        <time>2024-08-13T12:31:56Z</time>
      </trkpt>
      <trkpt lat="44.84966" lon="6.1403">
        <ele>2041.4</ele>
        <time>2024-08-13T12:31:57Z</time>
      </trkpt>
      <trkpt lat="44.84968" lon="6.14028">
        <ele>2041.4</ele>
        <time>2024-08-13T12:31:58Z</time>
      </trkpt>
      <trkpt lat="44.84968" lon="6.14028">
        <ele>2041.6</ele>
        <time>2024-08-13T12:31:59Z</time>
      </trkpt>
      <trkpt lat="44.84968" lon="6.14028">
        <ele>2041.4</ele>
        <time>2024-08-13T12:32:00Z</time>
      </trkpt>
      <trkpt lat="44.8497" lon="6.14025">
        <ele>2041.4</ele>
        <time>2024-08-13T12:32:01Z</time>
      </trkpt>
      <trkpt lat="44.8497" lon="6.14025">
        <ele>2041.8</ele>
        <time>2024-08-13T12:32:02Z</time>
      </trkpt>
      <trkpt lat="44.8497" lon="6.14025">
        <ele>2041.8</ele>
        <time>2024-08-13T12:32:03Z</time>
      </trkpt>
      <trkpt lat="44.84972" lon="6.14023">
        <ele>2042</ele>
        <time>2024-08-13T12:32:04Z</time>
      </trkpt>
      <trkpt lat="44.84972" lon="6.14023">
        <ele>2042.2</ele>
        <time>2024-08-13T12:32:05Z</time>
      </trkpt>
      <trkpt lat="44.84972" lon="6.14023">
        <ele>2042.2</ele>
        <time>2024-08-13T12:32:06Z</time>
      </trkpt>
      <trkpt lat="44.84973" lon="6.14022">
        <ele>2042.8</ele>
        <time>2024-08-13T12:32:07Z</time>
      </trkpt>
      <trkpt lat="44.84973" lon="6.14022">
        <ele>2042.8</ele>
        <time>2024-08-13T12:32:08Z</time>
      </trkpt>
      <trkpt lat="44.84973" lon="6.14022">
        <ele>2042.8</ele>
        <time>2024-08-13T12:32:09Z</time>
      </trkpt>
      <trkpt lat="44.84973" lon="6.14022">
        <ele>2043.2</ele>
        <time>2024-08-13T12:32:10Z</time>
      </trkpt>
      <trkpt lat="44.84975" lon="6.1402">
        <ele>2043.6</ele>
        <time>2024-08-13T12:32:11Z</time>
      </trkpt>
      <trkpt lat="44.84975" lon="6.1402">
        <ele>2043.6</ele>
        <time>2024-08-13T12:32:12Z</time>
      </trkpt>
      <trkpt lat="44.84975" lon="6.1402">
        <ele>2043.8</ele>
        <time>2024-08-13T12:32:13Z</time>
      </trkpt>
      <trkpt lat="44.84975" lon="6.1402">
        <ele>2044.2</ele>
        <time>2024-08-13T12:32:14Z</time>
      </trkpt>
      <trkpt lat="44.84976" lon="6.14017">
        <ele>2044.4</ele>
        <time>2024-08-13T12:32:15Z</time>
      </trkpt>
      <trkpt lat="44.84976" lon="6.14017">
        <ele>2044.4</ele>
        <time>2024-08-13T12:32:16Z</time>
      </trkpt>
      <trkpt lat="44.84976" lon="6.14017">
        <ele>2044.4</ele>
        <time>2024-08-13T12:32:17Z</time>
      </trkpt>
      <trkpt lat="44.84978" lon="6.14014">
        <ele>2044.8</ele>
        <time>2024-08-13T12:32:18Z</time>
      </trkpt>
      <trkpt lat="44.84978" lon="6.14014">
        <ele>2044.8</ele>
        <time>2024-08-13T12:32:19Z</time>
      </trkpt>
      <trkpt lat="44.84978" lon="6.14014">
        <ele>2044.8</ele>
        <time>2024-08-13T12:32:20Z</time>
      </trkpt>
      <trkpt lat="44.8498" lon="6.14011">
        <ele>2044.8</ele>
        <time>2024-08-13T12:32:21Z</time>
      </trkpt>
      <trkpt lat="44.8498" lon="6.14011">
        <ele>2045.2</ele>
        <time>2024-08-13T12:32:22Z</time>
      </trkpt>
      <trkpt lat="44.8498" lon="6.14011">
        <ele>2045.2</ele>
        <time>2024-08-13T12:32:23Z</time>
      </trkpt>
      <trkpt lat="44.8498" lon="6.14011">
        <ele>2045.2</ele>
        <time>2024-08-13T12:32:24Z</time>
      </trkpt>
      <trkpt lat="44.8498" lon="6.14011">
        <ele>2045.6</ele>
        <time>2024-08-13T12:32:25Z</time>
      </trkpt>
      <trkpt lat="44.8498" lon="6.14011">
        <ele>2045.6</ele>
        <time>2024-08-13T12:32:26Z</time>
      </trkpt>
      <trkpt lat="44.8498" lon="6.14011">
        <ele>2045.6</ele>
        <time>2024-08-13T12:32:27Z</time>
      </trkpt>
      <trkpt lat="44.8498" lon="6.14011">
        <ele>2045.6</ele>
        <time>2024-08-13T12:32:28Z</time>
      </trkpt>
      <trkpt lat="44.8498" lon="6.14011">
        <ele>2045.6</ele>
        <time>2024-08-13T12:32:29Z</time>
      </trkpt>
      <trkpt lat="44.8498" lon="6.14011">
        <ele>2045.8</ele>
        <time>2024-08-13T12:32:30Z</time>
      </trkpt>
      <trkpt lat="44.8498" lon="6.14011">
        <ele>2045.8</ele>
        <time>2024-08-13T12:32:31Z</time>
      </trkpt>
      <trkpt lat="44.8498" lon="6.14011">
        <ele>2045.8</ele>
        <time>2024-08-13T12:32:32Z</time>
      </trkpt>
      <trkpt lat="44.8498" lon="6.14011">
        <ele>2045.8</ele>
        <time>2024-08-13T12:32:33Z</time>
      </trkpt>
      <trkpt lat="44.84982" lon="6.14009">
        <ele>2045.6</ele>
        <time>2024-08-13T12:32:34Z</time>
      </trkpt>
      <trkpt lat="44.84982" lon="6.14009">
        <ele>2045.6</ele>
        <time>2024-08-13T12:32:35Z</time>
      </trkpt>
      <trkpt lat="44.84984" lon="6.14008">
        <ele>2045.6</ele>
        <time>2024-08-13T12:32:36Z</time>
      </trkpt>
      <trkpt lat="44.84984" lon="6.14008">
        <ele>2046.2</ele>
        <time>2024-08-13T12:32:37Z</time>
      </trkpt>
      <trkpt lat="44.84986" lon="6.14007">
        <ele>2046.4</ele>
        <time>2024-08-13T12:32:38Z</time>
      </trkpt>
      <trkpt lat="44.84986" lon="6.14007">
        <ele>2046.4</ele>
        <time>2024-08-13T12:32:39Z</time>
      </trkpt>
      <trkpt lat="44.84988" lon="6.14006">
        <ele>2046.6</ele>
        <time>2024-08-13T12:32:40Z</time>
      </trkpt>
      <trkpt lat="44.84988" lon="6.14006">
        <ele>2046.6</ele>
        <time>2024-08-13T12:32:41Z</time>
      </trkpt>
      <trkpt lat="44.84988" lon="6.14006">
        <ele>2046.8</ele>
        <time>2024-08-13T12:32:42Z</time>
      </trkpt>
      <trkpt lat="44.84989" lon="6.14005">
        <ele>2047</ele>
        <time>2024-08-13T12:32:43Z</time>
      </trkpt>
      <trkpt lat="44.84989" lon="6.14005">
        <ele>2047.2</ele>
        <time>2024-08-13T12:32:44Z</time>
      </trkpt>
      <trkpt lat="44.84989" lon="6.14005">
        <ele>2047.6</ele>
        <time>2024-08-13T12:32:45Z</time>
      </trkpt>
      <trkpt lat="44.84991" lon="6.14003">
        <ele>2047.8</ele>
        <time>2024-08-13T12:32:46Z</time>
      </trkpt>
      <trkpt lat="44.84991" lon="6.14003">
        <ele>2048</ele>
        <time>2024-08-13T12:32:47Z</time>
      </trkpt>
      <trkpt lat="44.84991" lon="6.14003">
        <ele>2048.2</ele>
        <time>2024-08-13T12:32:48Z</time>
      </trkpt>
      <trkpt lat="44.84994" lon="6.14001">
        <ele>2048.4</ele>
        <time>2024-08-13T12:32:49Z</time>
      </trkpt>
      <trkpt lat="44.84994" lon="6.14001">
        <ele>2048.8</ele>
        <time>2024-08-13T12:32:50Z</time>
      </trkpt>
      <trkpt lat="44.84994" lon="6.14001">
        <ele>2048.8</ele>
        <time>2024-08-13T12:32:51Z</time>
      </trkpt>
      <trkpt lat="44.84995" lon="6.13999">
        <ele>2048.8</ele>
        <time>2024-08-13T12:32:52Z</time>
      </trkpt>
      <trkpt lat="44.84995" lon="6.13999">
        <ele>2049</ele>
        <time>2024-08-13T12:32:53Z</time>
      </trkpt>
      <trkpt lat="44.84995" lon="6.13999">
        <ele>2049.2</ele>
        <time>2024-08-13T12:32:54Z</time>
      </trkpt>
      <trkpt lat="44.84997" lon="6.13997">
        <ele>2049.2</ele>
        <time>2024-08-13T12:32:55Z</time>
      </trkpt>
      <trkpt lat="44.84997" lon="6.13997">
        <ele>2049.6</ele>
        <time>2024-08-13T12:32:56Z</time>
      </trkpt>
      <trkpt lat="44.84997" lon="6.13997">
        <ele>2049.8</ele>
        <time>2024-08-13T12:32:57Z</time>
      </trkpt>
      <trkpt lat="44.84997" lon="6.13997">
        <ele>2050</ele>
        <time>2024-08-13T12:32:58Z</time>
      </trkpt>
      <trkpt lat="44.84998" lon="6.13994">
        <ele>2050.2</ele>
        <time>2024-08-13T12:32:59Z</time>
      </trkpt>
      <trkpt lat="44.84998" lon="6.13994">
        <ele>2050.2</ele>
        <time>2024-08-13T12:33:00Z</time>
      </trkpt>
      <trkpt lat="44.84998" lon="6.13994">
        <ele>2050.2</ele>
        <time>2024-08-13T12:33:01Z</time>
      </trkpt>
      <trkpt lat="44.84999" lon="6.13992">
        <ele>2050.6</ele>
        <time>2024-08-13T12:33:02Z</time>
      </trkpt>
      <trkpt lat="44.84999" lon="6.13992">
        <ele>2050.6</ele>
        <time>2024-08-13T12:33:03Z</time>
      </trkpt>
      <trkpt lat="44.84999" lon="6.13992">
        <ele>2050.6</ele>
        <time>2024-08-13T12:33:04Z</time>
      </trkpt>
      <trkpt lat="44.85001" lon="6.1399">
        <ele>2051</ele>
        <time>2024-08-13T12:33:05Z</time>
      </trkpt>
      <trkpt lat="44.85001" lon="6.1399">
        <ele>2051.2</ele>
        <time>2024-08-13T12:33:06Z</time>
      </trkpt>
      <trkpt lat="44.85001" lon="6.1399">
        <ele>2051.2</ele>
        <time>2024-08-13T12:33:07Z</time>
      </trkpt>
      <trkpt lat="44.85003" lon="6.13988">
        <ele>2051.4</ele>
        <time>2024-08-13T12:33:08Z</time>
      </trkpt>
      <trkpt lat="44.85003" lon="6.13988">
        <ele>2051.6</ele>
        <time>2024-08-13T12:33:09Z</time>
      </trkpt>
      <trkpt lat="44.85003" lon="6.13988">
        <ele>2051.8</ele>
        <time>2024-08-13T12:33:10Z</time>
      </trkpt>
      <trkpt lat="44.85003" lon="6.13988">
        <ele>2052.2</ele>
        <time>2024-08-13T12:33:11Z</time>
      </trkpt>
      <trkpt lat="44.85004" lon="6.13985">
        <ele>2052.4</ele>
        <time>2024-08-13T12:33:12Z</time>
      </trkpt>
      <trkpt lat="44.85004" lon="6.13985">
        <ele>2052.6</ele>
        <time>2024-08-13T12:33:13Z</time>
      </trkpt>
      <trkpt lat="44.85004" lon="6.13985">
        <ele>2053</ele>
        <time>2024-08-13T12:33:14Z</time>
      </trkpt>
      <trkpt lat="44.85005" lon="6.13982">
        <ele>2053</ele>
        <time>2024-08-13T12:33:15Z</time>
      </trkpt>
      <trkpt lat="44.85005" lon="6.13982">
        <ele>2053</ele>
        <time>2024-08-13T12:33:16Z</time>
      </trkpt>
      <trkpt lat="44.85005" lon="6.13982">
        <ele>2053.2</ele>
        <time>2024-08-13T12:33:17Z</time>
      </trkpt>
      <trkpt lat="44.85006" lon="6.13979">
        <ele>2053.2</ele>
        <time>2024-08-13T12:33:18Z</time>
      </trkpt>
      <trkpt lat="44.85006" lon="6.13979">
        <ele>2053.2</ele>
        <time>2024-08-13T12:33:19Z</time>
      </trkpt>
      <trkpt lat="44.85006" lon="6.13979">
        <ele>2053.4</ele>
        <time>2024-08-13T12:33:20Z</time>
      </trkpt>
      <trkpt lat="44.85006" lon="6.13979">
        <ele>2053.4</ele>
        <time>2024-08-13T12:33:21Z</time>
      </trkpt>
      <trkpt lat="44.85007" lon="6.13976">
        <ele>2053.8</ele>
        <time>2024-08-13T12:33:22Z</time>
      </trkpt>
      <trkpt lat="44.85007" lon="6.13976">
        <ele>2053.8</ele>
        <time>2024-08-13T12:33:23Z</time>
      </trkpt>
      <trkpt lat="44.85007" lon="6.13976">
        <ele>2053.8</ele>
        <time>2024-08-13T12:33:24Z</time>
      </trkpt>
      <trkpt lat="44.85009" lon="6.13973">
        <ele>2054</ele>
        <time>2024-08-13T12:33:25Z</time>
      </trkpt>
      <trkpt lat="44.85009" lon="6.13973">
        <ele>2054.2</ele>
        <time>2024-08-13T12:33:26Z</time>
      </trkpt>
      <trkpt lat="44.85009" lon="6.13973">
        <ele>2054.4</ele>
        <time>2024-08-13T12:33:27Z</time>
      </trkpt>
      <trkpt lat="44.85011" lon="6.13971">
        <ele>2054.4</ele>
        <time>2024-08-13T12:33:28Z</time>
      </trkpt>
      <trkpt lat="44.85011" lon="6.13971">
        <ele>2054.6</ele>
        <time>2024-08-13T12:33:29Z</time>
      </trkpt>
      <trkpt lat="44.85011" lon="6.13971">
        <ele>2054.6</ele>
        <time>2024-08-13T12:33:30Z</time>
      </trkpt>
      <trkpt lat="44.85013" lon="6.13969">
        <ele>2054.6</ele>
        <time>2024-08-13T12:33:31Z</time>
      </trkpt>
      <trkpt lat="44.85013" lon="6.13969">
        <ele>2054.8</ele>
        <time>2024-08-13T12:33:32Z</time>
      </trkpt>
      <trkpt lat="44.85014" lon="6.13968">
        <ele>2054.8</ele>
        <time>2024-08-13T12:33:33Z</time>
      </trkpt>
      <trkpt lat="44.85014" lon="6.13968">
        <ele>2055</ele>
        <time>2024-08-13T12:33:34Z</time>
      </trkpt>
      <trkpt lat="44.85014" lon="6.13968">
        <ele>2055.4</ele>
        <time>2024-08-13T12:33:35Z</time>
      </trkpt>
      <trkpt lat="44.85017" lon="6.13966">
        <ele>2055.4</ele>
        <time>2024-08-13T12:33:36Z</time>
      </trkpt>
      <trkpt lat="44.85017" lon="6.13966">
        <ele>2055.4</ele>
        <time>2024-08-13T12:33:37Z</time>
      </trkpt>
      <trkpt lat="44.85017" lon="6.13966">
        <ele>2055.6</ele>
        <time>2024-08-13T12:33:38Z</time>
      </trkpt>
      <trkpt lat="44.85019" lon="6.13964">
        <ele>2055.6</ele>
        <time>2024-08-13T12:33:39Z</time>
      </trkpt>
      <trkpt lat="44.85019" lon="6.13964">
        <ele>2056.2</ele>
        <time>2024-08-13T12:33:40Z</time>
      </trkpt>
      <trkpt lat="44.85019" lon="6.13964">
        <ele>2056.2</ele>
        <time>2024-08-13T12:33:41Z</time>
      </trkpt>
      <trkpt lat="44.85021" lon="6.13961">
        <ele>2056.2</ele>
        <time>2024-08-13T12:33:42Z</time>
      </trkpt>
      <trkpt lat="44.85021" lon="6.13961">
        <ele>2056.4</ele>
        <time>2024-08-13T12:33:43Z</time>
      </trkpt>
      <trkpt lat="44.85021" lon="6.13961">
        <ele>2056.8</ele>
        <time>2024-08-13T12:33:44Z</time>
      </trkpt>
      <trkpt lat="44.85022" lon="6.13959">
        <ele>2057.2</ele>
        <time>2024-08-13T12:33:45Z</time>
      </trkpt>
      <trkpt lat="44.85022" lon="6.13959">
        <ele>2057.2</ele>
        <time>2024-08-13T12:33:46Z</time>
      </trkpt>
      <trkpt lat="44.85024" lon="6.13958">
        <ele>2057.2</ele>
        <time>2024-08-13T12:33:47Z</time>
      </trkpt>
      <trkpt lat="44.85024" lon="6.13958">
        <ele>2057.2</ele>
        <time>2024-08-13T12:33:48Z</time>
      </trkpt>
      <trkpt lat="44.85024" lon="6.13958">
        <ele>2057.8</ele>
        <time>2024-08-13T12:33:49Z</time>
      </trkpt>
      <trkpt lat="44.85025" lon="6.13955">
        <ele>2057.8</ele>
        <time>2024-08-13T12:33:50Z</time>
      </trkpt>
      <trkpt lat="44.85025" lon="6.13955">
        <ele>2058</ele>
        <time>2024-08-13T12:33:51Z</time>
      </trkpt>
      <trkpt lat="44.85027" lon="6.13954">
        <ele>2058.2</ele>
        <time>2024-08-13T12:33:52Z</time>
      </trkpt>
      <trkpt lat="44.85027" lon="6.13954">
        <ele>2058.2</ele>
        <time>2024-08-13T12:33:53Z</time>
      </trkpt>
      <trkpt lat="44.85027" lon="6.13954">
        <ele>2058.2</ele>
        <time>2024-08-13T12:33:54Z</time>
      </trkpt>
      <trkpt lat="44.85028" lon="6.13951">
        <ele>2058.4</ele>
        <time>2024-08-13T12:33:55Z</time>
      </trkpt>
      <trkpt lat="44.85028" lon="6.13951">
        <ele>2058.6</ele>
        <time>2024-08-13T12:33:56Z</time>
      </trkpt>
      <trkpt lat="44.85028" lon="6.13951">
        <ele>2058.8</ele>
        <time>2024-08-13T12:33:57Z</time>
      </trkpt>
      <trkpt lat="44.85029" lon="6.13949">
        <ele>2059</ele>
        <time>2024-08-13T12:33:58Z</time>
      </trkpt>
      <trkpt lat="44.85029" lon="6.13949">
        <ele>2059</ele>
        <time>2024-08-13T12:33:59Z</time>
      </trkpt>
      <trkpt lat="44.85029" lon="6.13949">
        <ele>2059.2</ele>
        <time>2024-08-13T12:34:00Z</time>
      </trkpt>
      <trkpt lat="44.8503" lon="6.13946">
        <ele>2059.4</ele>
        <time>2024-08-13T12:34:01Z</time>
      </trkpt>
      <trkpt lat="44.8503" lon="6.13946">
        <ele>2059.8</ele>
        <time>2024-08-13T12:34:02Z</time>
      </trkpt>
      <trkpt lat="44.8503" lon="6.13946">
        <ele>2059.8</ele>
        <time>2024-08-13T12:34:03Z</time>
      </trkpt>
      <trkpt lat="44.85032" lon="6.13944">
        <ele>2059.8</ele>
        <time>2024-08-13T12:34:04Z</time>
      </trkpt>
      <trkpt lat="44.85032" lon="6.13944">
        <ele>2059.8</ele>
        <time>2024-08-13T12:34:05Z</time>
      </trkpt>
      <trkpt lat="44.85032" lon="6.13944">
        <ele>2059.8</ele>
        <time>2024-08-13T12:34:06Z</time>
      </trkpt>
      <trkpt lat="44.85033" lon="6.13941">
        <ele>2060</ele>
        <time>2024-08-13T12:34:07Z</time>
      </trkpt>
      <trkpt lat="44.85033" lon="6.13941">
        <ele>2060</ele>
        <time>2024-08-13T12:34:08Z</time>
      </trkpt>
      <trkpt lat="44.85034" lon="6.13939">
        <ele>2060.2</ele>
        <time>2024-08-13T12:34:09Z</time>
      </trkpt>
      <trkpt lat="44.85034" lon="6.13939">
        <ele>2060.2</ele>
        <time>2024-08-13T12:34:10Z</time>
      </trkpt>
      <trkpt lat="44.85034" lon="6.13939">
        <ele>2060.4</ele>
        <time>2024-08-13T12:34:11Z</time>
      </trkpt>
      <trkpt lat="44.85036" lon="6.13936">
        <ele>2060.6</ele>
        <time>2024-08-13T12:34:12Z</time>
      </trkpt>
      <trkpt lat="44.85036" lon="6.13936">
        <ele>2060.6</ele>
        <time>2024-08-13T12:34:13Z</time>
      </trkpt>
      <trkpt lat="44.85036" lon="6.13936">
        <ele>2060.8</ele>
        <time>2024-08-13T12:34:14Z</time>
      </trkpt>
      <trkpt lat="44.85036" lon="6.13936">
        <ele>2060.8</ele>
        <time>2024-08-13T12:34:15Z</time>
      </trkpt>
      <trkpt lat="44.85038" lon="6.13934">
        <ele>2061</ele>
        <time>2024-08-13T12:34:16Z</time>
      </trkpt>
      <trkpt lat="44.85038" lon="6.13934">
        <ele>2061.4</ele>
        <time>2024-08-13T12:34:17Z</time>
      </trkpt>
      <trkpt lat="44.85038" lon="6.13934">
        <ele>2061.6</ele>
        <time>2024-08-13T12:34:18Z</time>
      </trkpt>
      <trkpt lat="44.85038" lon="6.13934">
        <ele>2061.6</ele>
        <time>2024-08-13T12:34:19Z</time>
      </trkpt>
      <trkpt lat="44.8504" lon="6.13932">
        <ele>2061.8</ele>
        <time>2024-08-13T12:34:20Z</time>
      </trkpt>
      <trkpt lat="44.8504" lon="6.13932">
        <ele>2062.2</ele>
        <time>2024-08-13T12:34:21Z</time>
      </trkpt>
      <trkpt lat="44.8504" lon="6.13932">
        <ele>2062.4</ele>
        <time>2024-08-13T12:34:22Z</time>
      </trkpt>
      <trkpt lat="44.8504" lon="6.13932">
        <ele>2062.6</ele>
        <time>2024-08-13T12:34:23Z</time>
      </trkpt>
      <trkpt lat="44.85041" lon="6.1393">
        <ele>2062.6</ele>
        <time>2024-08-13T12:34:24Z</time>
      </trkpt>
      <trkpt lat="44.85041" lon="6.1393">
        <ele>2062.8</ele>
        <time>2024-08-13T12:34:25Z</time>
      </trkpt>
      <trkpt lat="44.85041" lon="6.1393">
        <ele>2063.2</ele>
        <time>2024-08-13T12:34:26Z</time>
      </trkpt>
      <trkpt lat="44.85043" lon="6.13927">
        <ele>2063.8</ele>
        <time>2024-08-13T12:34:27Z</time>
      </trkpt>
      <trkpt lat="44.85043" lon="6.13927">
        <ele>2063.8</ele>
        <time>2024-08-13T12:34:28Z</time>
      </trkpt>
      <trkpt lat="44.85043" lon="6.13927">
        <ele>2063.8</ele>
        <time>2024-08-13T12:34:29Z</time>
      </trkpt>
      <trkpt lat="44.85045" lon="6.13925">
        <ele>2063.8</ele>
        <time>2024-08-13T12:34:30Z</time>
      </trkpt>
      <trkpt lat="44.85045" lon="6.13925">
        <ele>2064.2</ele>
        <time>2024-08-13T12:34:31Z</time>
      </trkpt>
      <trkpt lat="44.85045" lon="6.13925">
        <ele>2064.2</ele>
        <time>2024-08-13T12:34:32Z</time>
      </trkpt>
      <trkpt lat="44.85045" lon="6.13925">
        <ele>2064.4</ele>
        <time>2024-08-13T12:34:33Z</time>
      </trkpt>
      <trkpt lat="44.85046" lon="6.13923">
        <ele>2064.8</ele>
        <time>2024-08-13T12:34:34Z</time>
      </trkpt>
      <trkpt lat="44.85046" lon="6.13923">
        <ele>2064.8</ele>
        <time>2024-08-13T12:34:35Z</time>
      </trkpt>
      <trkpt lat="44.85046" lon="6.13923">
        <ele>2065.2</ele>
        <time>2024-08-13T12:34:36Z</time>
      </trkpt>
      <trkpt lat="44.85046" lon="6.13923">
        <ele>2065.2</ele>
        <time>2024-08-13T12:34:37Z</time>
      </trkpt>
      <trkpt lat="44.85046" lon="6.13919">
        <ele>2065.2</ele>
        <time>2024-08-13T12:34:38Z</time>
      </trkpt>
      <trkpt lat="44.85046" lon="6.13919">
        <ele>2065.2</ele>
        <time>2024-08-13T12:34:39Z</time>
      </trkpt>
      <trkpt lat="44.85046" lon="6.13919">
        <ele>2065.4</ele>
        <time>2024-08-13T12:34:40Z</time>
      </trkpt>
      <trkpt lat="44.85048" lon="6.13917">
        <ele>2065.4</ele>
        <time>2024-08-13T12:34:41Z</time>
      </trkpt>
      <trkpt lat="44.85048" lon="6.13917">
        <ele>2065.4</ele>
        <time>2024-08-13T12:34:42Z</time>
      </trkpt>
      <trkpt lat="44.85048" lon="6.13917">
        <ele>2066</ele>
        <time>2024-08-13T12:34:43Z</time>
      </trkpt>
      <trkpt lat="44.85048" lon="6.13917">
        <ele>2066.2</ele>
        <time>2024-08-13T12:34:44Z</time>
      </trkpt>
      <trkpt lat="44.8505" lon="6.13915">
        <ele>2066.4</ele>
        <time>2024-08-13T12:34:45Z</time>
      </trkpt>
      <trkpt lat="44.8505" lon="6.13915">
        <ele>2066.4</ele>
        <time>2024-08-13T12:34:46Z</time>
      </trkpt>
      <trkpt lat="44.8505" lon="6.13915">
        <ele>2066.6</ele>
        <time>2024-08-13T12:34:47Z</time>
      </trkpt>
      <trkpt lat="44.85051" lon="6.13912">
        <ele>2066.8</ele>
        <time>2024-08-13T12:34:48Z</time>
      </trkpt>
      <trkpt lat="44.85051" lon="6.13912">
        <ele>2067</ele>
        <time>2024-08-13T12:34:49Z</time>
      </trkpt>
      <trkpt lat="44.85051" lon="6.13912">
        <ele>2067.4</ele>
        <time>2024-08-13T12:34:50Z</time>
      </trkpt>
      <trkpt lat="44.85052" lon="6.1391">
        <ele>2067.4</ele>
        <time>2024-08-13T12:34:51Z</time>
      </trkpt>
      <trkpt lat="44.85052" lon="6.1391">
        <ele>2067.6</ele>
        <time>2024-08-13T12:34:52Z</time>
      </trkpt>
      <trkpt lat="44.85052" lon="6.1391">
        <ele>2067.6</ele>
        <time>2024-08-13T12:34:53Z</time>
      </trkpt>
      <trkpt lat="44.85052" lon="6.1391">
        <ele>2067.6</ele>
        <time>2024-08-13T12:34:54Z</time>
      </trkpt>
      <trkpt lat="44.85053" lon="6.13907">
        <ele>2068</ele>
        <time>2024-08-13T12:34:55Z</time>
      </trkpt>
      <trkpt lat="44.85053" lon="6.13907">
        <ele>2068.2</ele>
        <time>2024-08-13T12:34:56Z</time>
      </trkpt>
      <trkpt lat="44.85053" lon="6.13907">
        <ele>2068.4</ele>
        <time>2024-08-13T12:34:57Z</time>
      </trkpt>
      <trkpt lat="44.85053" lon="6.13907">
        <ele>2068.4</ele>
        <time>2024-08-13T12:34:58Z</time>
      </trkpt>
      <trkpt lat="44.85053" lon="6.13907">
        <ele>2068.4</ele>
        <time>2024-08-13T12:34:59Z</time>
      </trkpt>
      <trkpt lat="44.85053" lon="6.13907">
        <ele>2068.4</ele>
        <time>2024-08-13T12:35:00Z</time>
      </trkpt>
      <trkpt lat="44.85053" lon="6.13907">
        <ele>2068.4</ele>
        <time>2024-08-13T12:35:01Z</time>
      </trkpt>
      <trkpt lat="44.85053" lon="6.13907">
        <ele>2068.2</ele>
        <time>2024-08-13T12:35:02Z</time>
      </trkpt>
      <trkpt lat="44.85053" lon="6.13907">
        <ele>2068.2</ele>
        <time>2024-08-13T12:35:03Z</time>
      </trkpt>
      <trkpt lat="44.85053" lon="6.13907">
        <ele>2068.2</ele>
        <time>2024-08-13T12:35:04Z</time>
      </trkpt>
      <trkpt lat="44.85053" lon="6.13907">
        <ele>2068.2</ele>
        <time>2024-08-13T12:35:05Z</time>
      </trkpt>
      <trkpt lat="44.85053" lon="6.13907">
        <ele>2068.4</ele>
        <time>2024-08-13T12:35:06Z</time>
      </trkpt>
      <trkpt lat="44.85053" lon="6.13907">
        <ele>2068.6</ele>
        <time>2024-08-13T12:35:07Z</time>
      </trkpt>
      <trkpt lat="44.85053" lon="6.13907">
        <ele>2068.6</ele>
        <time>2024-08-13T12:35:08Z</time>
      </trkpt>
      <trkpt lat="44.85053" lon="6.13907">
        <ele>2068.6</ele>
        <time>2024-08-13T12:35:09Z</time>
      </trkpt>
      <trkpt lat="44.85053" lon="6.13907">
        <ele>2068.4</ele>
        <time>2024-08-13T12:35:10Z</time>
      </trkpt>
      <trkpt lat="44.85053" lon="6.13907">
        <ele>2067.8</ele>
        <time>2024-08-13T12:35:11Z</time>
      </trkpt>
      <trkpt lat="44.85053" lon="6.13907">
        <ele>2067.8</ele>
        <time>2024-08-13T12:35:12Z</time>
      </trkpt>
      <trkpt lat="44.85053" lon="6.13907">
        <ele>2068.4</ele>
        <time>2024-08-13T12:35:13Z</time>
      </trkpt>
      <trkpt lat="44.85053" lon="6.13907">
        <ele>2068.8</ele>
        <time>2024-08-13T12:35:14Z</time>
      </trkpt>
      <trkpt lat="44.85053" lon="6.13907">
        <ele>2069</ele>
        <time>2024-08-13T12:35:15Z</time>
      </trkpt>
      <trkpt lat="44.85053" lon="6.13907">
        <ele>2069</ele>
        <time>2024-08-13T12:35:16Z</time>
      </trkpt>
      <trkpt lat="44.85053" lon="6.13907">
        <ele>2069.4</ele>
        <time>2024-08-13T12:35:17Z</time>
      </trkpt>
      <trkpt lat="44.85054" lon="6.13905">
        <ele>2069.4</ele>
        <time>2024-08-13T12:35:18Z</time>
      </trkpt>
      <trkpt lat="44.85054" lon="6.13905">
        <ele>2069.4</ele>
        <time>2024-08-13T12:35:19Z</time>
      </trkpt>
      <trkpt lat="44.85057" lon="6.13901">
        <ele>2069.8</ele>
        <time>2024-08-13T12:35:20Z</time>
      </trkpt>
      <trkpt lat="44.85058" lon="6.139">
        <ele>2070.4</ele>
        <time>2024-08-13T12:35:21Z</time>
      </trkpt>
      <trkpt lat="44.85058" lon="6.139">
        <ele>2070.4</ele>
        <time>2024-08-13T12:35:22Z</time>
      </trkpt>
      <trkpt lat="44.85059" lon="6.13897">
        <ele>2070.4</ele>
        <time>2024-08-13T12:35:23Z</time>
      </trkpt>
      <trkpt lat="44.85059" lon="6.13897">
        <ele>2071.4</ele>
        <time>2024-08-13T12:35:24Z</time>
      </trkpt>
      <trkpt lat="44.85061" lon="6.13895">
        <ele>2071.4</ele>
        <time>2024-08-13T12:35:25Z</time>
      </trkpt>
      <trkpt lat="44.85061" lon="6.13895">
        <ele>2071.4</ele>
        <time>2024-08-13T12:35:26Z</time>
      </trkpt>
      <trkpt lat="44.85061" lon="6.13895">
        <ele>2071.8</ele>
        <time>2024-08-13T12:35:27Z</time>
      </trkpt>
      <trkpt lat="44.85062" lon="6.13893">
        <ele>2071.8</ele>
        <time>2024-08-13T12:35:28Z</time>
      </trkpt>
      <trkpt lat="44.85062" lon="6.13893">
        <ele>2072</ele>
        <time>2024-08-13T12:35:29Z</time>
      </trkpt>
      <trkpt lat="44.85062" lon="6.13893">
        <ele>2072.8</ele>
        <time>2024-08-13T12:35:30Z</time>
      </trkpt>
      <trkpt lat="44.85062" lon="6.13893">
        <ele>2072.8</ele>
        <time>2024-08-13T12:35:31Z</time>
      </trkpt>
      <trkpt lat="44.85063" lon="6.1389">
        <ele>2072.8</ele>
        <time>2024-08-13T12:35:32Z</time>
      </trkpt>
      <trkpt lat="44.85063" lon="6.1389">
        <ele>2073</ele>
        <time>2024-08-13T12:35:33Z</time>
      </trkpt>
      <trkpt lat="44.85063" lon="6.1389">
        <ele>2073.4</ele>
        <time>2024-08-13T12:35:34Z</time>
      </trkpt>
      <trkpt lat="44.85064" lon="6.13888">
        <ele>2073.6</ele>
        <time>2024-08-13T12:35:35Z</time>
      </trkpt>
      <trkpt lat="44.85064" lon="6.13888">
        <ele>2073.6</ele>
        <time>2024-08-13T12:35:36Z</time>
      </trkpt>
      <trkpt lat="44.85064" lon="6.13888">
        <ele>2073.8</ele>
        <time>2024-08-13T12:35:37Z</time>
      </trkpt>
      <trkpt lat="44.85066" lon="6.13886">
        <ele>2074</ele>
        <time>2024-08-13T12:35:38Z</time>
      </trkpt>
      <trkpt lat="44.85066" lon="6.13886">
        <ele>2074.2</ele>
        <time>2024-08-13T12:35:39Z</time>
      </trkpt>
      <trkpt lat="44.85066" lon="6.13886">
        <ele>2074.2</ele>
        <time>2024-08-13T12:35:40Z</time>
      </trkpt>
      <trkpt lat="44.85066" lon="6.13883">
        <ele>2074.8</ele>
        <time>2024-08-13T12:35:41Z</time>
      </trkpt>
      <trkpt lat="44.85066" lon="6.13883">
        <ele>2074.8</ele>
        <time>2024-08-13T12:35:42Z</time>
      </trkpt>
      <trkpt lat="44.85066" lon="6.13883">
        <ele>2074.8</ele>
        <time>2024-08-13T12:35:43Z</time>
      </trkpt>
      <trkpt lat="44.85067" lon="6.13881">
        <ele>2075.2</ele>
        <time>2024-08-13T12:35:44Z</time>
      </trkpt>
      <trkpt lat="44.85067" lon="6.13881">
        <ele>2075.2</ele>
        <time>2024-08-13T12:35:45Z</time>
      </trkpt>
      <trkpt lat="44.85067" lon="6.13881">
        <ele>2075.4</ele>
        <time>2024-08-13T12:35:46Z</time>
      </trkpt>
      <trkpt lat="44.85067" lon="6.13878">
        <ele>2075.8</ele>
        <time>2024-08-13T12:35:47Z</time>
      </trkpt>
      <trkpt lat="44.85067" lon="6.13878">
        <ele>2076</ele>
        <time>2024-08-13T12:35:48Z</time>
      </trkpt>
      <trkpt lat="44.85067" lon="6.13878">
        <ele>2076.2</ele>
        <time>2024-08-13T12:35:49Z</time>
      </trkpt>
      <trkpt lat="44.85067" lon="6.13878">
        <ele>2076.8</ele>
        <time>2024-08-13T12:35:50Z</time>
      </trkpt>
      <trkpt lat="44.85067" lon="6.13875">
        <ele>2076.8</ele>
        <time>2024-08-13T12:35:51Z</time>
      </trkpt>
      <trkpt lat="44.85067" lon="6.13875">
        <ele>2076.8</ele>
        <time>2024-08-13T12:35:52Z</time>
      </trkpt>
      <trkpt lat="44.85067" lon="6.13872">
        <ele>2077</ele>
        <time>2024-08-13T12:35:53Z</time>
      </trkpt>
      <trkpt lat="44.85067" lon="6.13872">
        <ele>2077</ele>
        <time>2024-08-13T12:35:54Z</time>
      </trkpt>
      <trkpt lat="44.85067" lon="6.13872">
        <ele>2077</ele>
        <time>2024-08-13T12:35:55Z</time>
      </trkpt>
      <trkpt lat="44.85068" lon="6.13869">
        <ele>2077.4</ele>
        <time>2024-08-13T12:35:56Z</time>
      </trkpt>
      <trkpt lat="44.85068" lon="6.13869">
        <ele>2077.4</ele>
        <time>2024-08-13T12:35:57Z</time>
      </trkpt>
      <trkpt lat="44.85068" lon="6.13869">
        <ele>2077.4</ele>
        <time>2024-08-13T12:35:58Z</time>
      </trkpt>
      <trkpt lat="44.85069" lon="6.13867">
        <ele>2077.6</ele>
        <time>2024-08-13T12:35:59Z</time>
      </trkpt>
      <trkpt lat="44.85069" lon="6.13867">
        <ele>2077.6</ele>
        <time>2024-08-13T12:36:00Z</time>
      </trkpt>
      <trkpt lat="44.85069" lon="6.13867">
        <ele>2078</ele>
        <time>2024-08-13T12:36:01Z</time>
      </trkpt>
      <trkpt lat="44.85071" lon="6.13866">
        <ele>2078.2</ele>
        <time>2024-08-13T12:36:02Z</time>
      </trkpt>
      <trkpt lat="44.85071" lon="6.13866">
        <ele>2078.2</ele>
        <time>2024-08-13T12:36:03Z</time>
      </trkpt>
      <trkpt lat="44.85071" lon="6.13866">
        <ele>2078.2</ele>
        <time>2024-08-13T12:36:04Z</time>
      </trkpt>
      <trkpt lat="44.85074" lon="6.13865">
        <ele>2078.4</ele>
        <time>2024-08-13T12:36:05Z</time>
      </trkpt>
      <trkpt lat="44.85074" lon="6.13865">
        <ele>2078.6</ele>
        <time>2024-08-13T12:36:06Z</time>
      </trkpt>
      <trkpt lat="44.85074" lon="6.13865">
        <ele>2078.6</ele>
        <time>2024-08-13T12:36:07Z</time>
      </trkpt>
      <trkpt lat="44.85076" lon="6.13864">
        <ele>2078.6</ele>
        <time>2024-08-13T12:36:08Z</time>
      </trkpt>
      <trkpt lat="44.85076" lon="6.13864">
        <ele>2079</ele>
        <time>2024-08-13T12:36:09Z</time>
      </trkpt>
      <trkpt lat="44.85076" lon="6.13864">
        <ele>2079</ele>
        <time>2024-08-13T12:36:10Z</time>
      </trkpt>
      <trkpt lat="44.85078" lon="6.13863">
        <ele>2079.2</ele>
        <time>2024-08-13T12:36:11Z</time>
      </trkpt>
      <trkpt lat="44.85078" lon="6.13863">
        <ele>2079.2</ele>
        <time>2024-08-13T12:36:12Z</time>
      </trkpt>
      <trkpt lat="44.85078" lon="6.13863">
        <ele>2079.2</ele>
        <time>2024-08-13T12:36:13Z</time>
      </trkpt>
      <trkpt lat="44.8508" lon="6.13861">
        <ele>2079.4</ele>
        <time>2024-08-13T12:36:14Z</time>
      </trkpt>
      <trkpt lat="44.8508" lon="6.13861">
        <ele>2079.6</ele>
        <time>2024-08-13T12:36:15Z</time>
      </trkpt>
      <trkpt lat="44.8508" lon="6.13861">
        <ele>2079.8</ele>
        <time>2024-08-13T12:36:16Z</time>
      </trkpt>
      <trkpt lat="44.85082" lon="6.13858">
        <ele>2080</ele>
        <time>2024-08-13T12:36:17Z</time>
      </trkpt>
      <trkpt lat="44.85082" lon="6.13858">
        <ele>2080</ele>
        <time>2024-08-13T12:36:18Z</time>
      </trkpt>
      <trkpt lat="44.85082" lon="6.13858">
        <ele>2080.2</ele>
        <time>2024-08-13T12:36:19Z</time>
      </trkpt>
      <trkpt lat="44.85083" lon="6.13855">
        <ele>2080.4</ele>
        <time>2024-08-13T12:36:20Z</time>
      </trkpt>
      <trkpt lat="44.85083" lon="6.13855">
        <ele>2080.6</ele>
        <time>2024-08-13T12:36:21Z</time>
      </trkpt>
      <trkpt lat="44.85083" lon="6.13855">
        <ele>2080.8</ele>
        <time>2024-08-13T12:36:22Z</time>
      </trkpt>
      <trkpt lat="44.85085" lon="6.13853">
        <ele>2081</ele>
        <time>2024-08-13T12:36:23Z</time>
      </trkpt>
      <trkpt lat="44.85085" lon="6.13853">
        <ele>2081</ele>
        <time>2024-08-13T12:36:24Z</time>
      </trkpt>
      <trkpt lat="44.85085" lon="6.13853">
        <ele>2081</ele>
        <time>2024-08-13T12:36:25Z</time>
      </trkpt>
      <trkpt lat="44.85086" lon="6.13851">
        <ele>2081.6</ele>
        <time>2024-08-13T12:36:26Z</time>
      </trkpt>
      <trkpt lat="44.85086" lon="6.13851">
        <ele>2081.8</ele>
        <time>2024-08-13T12:36:27Z</time>
      </trkpt>
      <trkpt lat="44.85086" lon="6.13851">
        <ele>2081.8</ele>
        <time>2024-08-13T12:36:28Z</time>
      </trkpt>
      <trkpt lat="44.85088" lon="6.13848">
        <ele>2081.8</ele>
        <time>2024-08-13T12:36:29Z</time>
      </trkpt>
      <trkpt lat="44.85088" lon="6.13848">
        <ele>2082</ele>
        <time>2024-08-13T12:36:30Z</time>
      </trkpt>
      <trkpt lat="44.85089" lon="6.13846">
        <ele>2082.2</ele>
        <time>2024-08-13T12:36:31Z</time>
      </trkpt>
      <trkpt lat="44.85089" lon="6.13846">
        <ele>2082.2</ele>
        <time>2024-08-13T12:36:32Z</time>
      </trkpt>
      <trkpt lat="44.85089" lon="6.13846">
        <ele>2082.2</ele>
        <time>2024-08-13T12:36:33Z</time>
      </trkpt>
      <trkpt lat="44.85091" lon="6.13845">
        <ele>2082.2</ele>
        <time>2024-08-13T12:36:34Z</time>
      </trkpt>
      <trkpt lat="44.85091" lon="6.13845">
        <ele>2082.2</ele>
        <time>2024-08-13T12:36:35Z</time>
      </trkpt>
      <trkpt lat="44.85091" lon="6.13845">
        <ele>2082.4</ele>
        <time>2024-08-13T12:36:36Z</time>
      </trkpt>
      <trkpt lat="44.85093" lon="6.13843">
        <ele>2082.6</ele>
        <time>2024-08-13T12:36:37Z</time>
      </trkpt>
      <trkpt lat="44.85093" lon="6.13843">
        <ele>2082.8</ele>
        <time>2024-08-13T12:36:38Z</time>
      </trkpt>
      <trkpt lat="44.85093" lon="6.13843">
        <ele>2082.8</ele>
        <time>2024-08-13T12:36:39Z</time>
      </trkpt>
      <trkpt lat="44.85094" lon="6.13841">
        <ele>2082.8</ele>
        <time>2024-08-13T12:36:40Z</time>
      </trkpt>
      <trkpt lat="44.85094" lon="6.13841">
        <ele>2083</ele>
        <time>2024-08-13T12:36:41Z</time>
      </trkpt>
      <trkpt lat="44.85094" lon="6.13841">
        <ele>2083</ele>
        <time>2024-08-13T12:36:42Z</time>
      </trkpt>
      <trkpt lat="44.85096" lon="6.13838">
        <ele>2083</ele>
        <time>2024-08-13T12:36:43Z</time>
      </trkpt>
      <trkpt lat="44.85096" lon="6.13838">
        <ele>2083.4</ele>
        <time>2024-08-13T12:36:44Z</time>
      </trkpt>
      <trkpt lat="44.85096" lon="6.13838">
        <ele>2083.6</ele>
        <time>2024-08-13T12:36:45Z</time>
      </trkpt>
      <trkpt lat="44.85098" lon="6.13835">
        <ele>2083.6</ele>
        <time>2024-08-13T12:36:46Z</time>
      </trkpt>
      <trkpt lat="44.85098" lon="6.13835">
        <ele>2083.8</ele>
        <time>2024-08-13T12:36:47Z</time>
      </trkpt>
      <trkpt lat="44.85098" lon="6.13835">
        <ele>2084</ele>
        <time>2024-08-13T12:36:48Z</time>
      </trkpt>
      <trkpt lat="44.85099" lon="6.13832">
        <ele>2084</ele>
        <time>2024-08-13T12:36:49Z</time>
      </trkpt>
      <trkpt lat="44.85099" lon="6.13832">
        <ele>2084</ele>
        <time>2024-08-13T12:36:50Z</time>
      </trkpt>
      <trkpt lat="44.85101" lon="6.13831">
        <ele>2084</ele>
        <time>2024-08-13T12:36:51Z</time>
      </trkpt>
      <trkpt lat="44.85101" lon="6.13831">
        <ele>2084</ele>
        <time>2024-08-13T12:36:52Z</time>
      </trkpt>
      <trkpt lat="44.85102" lon="6.13829">
        <ele>2083.8</ele>
        <time>2024-08-13T12:36:53Z</time>
      </trkpt>
      <trkpt lat="44.85102" lon="6.13829">
        <ele>2083.6</ele>
        <time>2024-08-13T12:36:54Z</time>
      </trkpt>
      <trkpt lat="44.85104" lon="6.13827">
        <ele>2083.4</ele>
        <time>2024-08-13T12:36:55Z</time>
      </trkpt>
      <trkpt lat="44.85104" lon="6.13827">
        <ele>2083.4</ele>
        <time>2024-08-13T12:36:56Z</time>
      </trkpt>
      <trkpt lat="44.85104" lon="6.13827">
        <ele>2083.4</ele>
        <time>2024-08-13T12:36:57Z</time>
      </trkpt>
      <trkpt lat="44.85105" lon="6.13825">
        <ele>2083.6</ele>
        <time>2024-08-13T12:36:58Z</time>
      </trkpt>
      <trkpt lat="44.85105" lon="6.13825">
        <ele>2083.6</ele>
        <time>2024-08-13T12:36:59Z</time>
      </trkpt>
      <trkpt lat="44.85105" lon="6.13825">
        <ele>2083.6</ele>
        <time>2024-08-13T12:37:00Z</time>
      </trkpt>
      <trkpt lat="44.85106" lon="6.13822">
        <ele>2083.6</ele>
        <time>2024-08-13T12:37:01Z</time>
      </trkpt>
      <trkpt lat="44.85106" lon="6.13822">
        <ele>2084</ele>
        <time>2024-08-13T12:37:02Z</time>
      </trkpt>
      <trkpt lat="44.85106" lon="6.13822">
        <ele>2084</ele>
        <time>2024-08-13T12:37:03Z</time>
      </trkpt>
      <trkpt lat="44.85106" lon="6.13822">
        <ele>2084</ele>
        <time>2024-08-13T12:37:04Z</time>
      </trkpt>
      <trkpt lat="44.85106" lon="6.13822">
        <ele>2084.2</ele>
        <time>2024-08-13T12:37:05Z</time>
      </trkpt>
      <trkpt lat="44.85107" lon="6.1382">
        <ele>2084.2</ele>
        <time>2024-08-13T12:37:06Z</time>
      </trkpt>
      <trkpt lat="44.85107" lon="6.1382">
        <ele>2084.2</ele>
        <time>2024-08-13T12:37:07Z</time>
      </trkpt>
      <trkpt lat="44.85107" lon="6.1382">
        <ele>2084.2</ele>
        <time>2024-08-13T12:37:08Z</time>
      </trkpt>
      <trkpt lat="44.85107" lon="6.1382">
        <ele>2084.4</ele>
        <time>2024-08-13T12:37:09Z</time>
      </trkpt>
      <trkpt lat="44.85107" lon="6.1382">
        <ele>2084.4</ele>
        <time>2024-08-13T12:37:10Z</time>
      </trkpt>
      <trkpt lat="44.85107" lon="6.1382">
        <ele>2084.4</ele>
        <time>2024-08-13T12:37:11Z</time>
      </trkpt>
      <trkpt lat="44.85107" lon="6.1382">
        <ele>2084.8</ele>
        <time>2024-08-13T12:37:12Z</time>
      </trkpt>
      <trkpt lat="44.85109" lon="6.13819">
        <ele>2084.8</ele>
        <time>2024-08-13T12:37:13Z</time>
      </trkpt>
      <trkpt lat="44.85109" lon="6.13819">
        <ele>2084.8</ele>
        <time>2024-08-13T12:37:14Z</time>
      </trkpt>
      <trkpt lat="44.85109" lon="6.13819">
        <ele>2085</ele>
        <time>2024-08-13T12:37:15Z</time>
      </trkpt>
      <trkpt lat="44.85109" lon="6.13819">
        <ele>2085</ele>
        <time>2024-08-13T12:37:16Z</time>
      </trkpt>
      <trkpt lat="44.85109" lon="6.13819">
        <ele>2085</ele>
        <time>2024-08-13T12:37:17Z</time>
      </trkpt>
      <trkpt lat="44.85109" lon="6.13819">
        <ele>2085.2</ele>
        <time>2024-08-13T12:37:18Z</time>
      </trkpt>
      <trkpt lat="44.85109" lon="6.13819">
        <ele>2085.4</ele>
        <time>2024-08-13T12:37:19Z</time>
      </trkpt>
      <trkpt lat="44.85109" lon="6.13819">
        <ele>2085.6</ele>
        <time>2024-08-13T12:37:20Z</time>
      </trkpt>
      <trkpt lat="44.85109" lon="6.13819">
        <ele>2085.6</ele>
        <time>2024-08-13T12:37:21Z</time>
      </trkpt>
      <trkpt lat="44.85109" lon="6.13819">
        <ele>2085.6</ele>
        <time>2024-08-13T12:37:22Z</time>
      </trkpt>
      <trkpt lat="44.85109" lon="6.13819">
        <ele>2085.6</ele>
        <time>2024-08-13T12:37:23Z</time>
      </trkpt>
      <trkpt lat="44.85109" lon="6.13819">
        <ele>2086</ele>
        <time>2024-08-13T12:37:24Z</time>
      </trkpt>
      <trkpt lat="44.85109" lon="6.13819">
        <ele>2086</ele>
        <time>2024-08-13T12:37:25Z</time>
      </trkpt>
      <trkpt lat="44.85109" lon="6.13819">
        <ele>2086.2</ele>
        <time>2024-08-13T12:37:26Z</time>
      </trkpt>
      <trkpt lat="44.85109" lon="6.13819">
        <ele>2086.2</ele>
        <time>2024-08-13T12:37:27Z</time>
      </trkpt>
      <trkpt lat="44.85109" lon="6.13822">
        <ele>2086</ele>
        <time>2024-08-13T12:37:28Z</time>
      </trkpt>
      <trkpt lat="44.85109" lon="6.13822">
        <ele>2085.6</ele>
        <time>2024-08-13T12:37:29Z</time>
      </trkpt>
      <trkpt lat="44.85108" lon="6.13825">
        <ele>2085.4</ele>
        <time>2024-08-13T12:37:30Z</time>
      </trkpt>
      <trkpt lat="44.85108" lon="6.13825">
        <ele>2085.4</ele>
        <time>2024-08-13T12:37:31Z</time>
      </trkpt>
      <trkpt lat="44.85106" lon="6.13827">
        <ele>2085.6</ele>
        <time>2024-08-13T12:37:32Z</time>
      </trkpt>
      <trkpt lat="44.85106" lon="6.13827">
        <ele>2085.8</ele>
        <time>2024-08-13T12:37:33Z</time>
      </trkpt>
      <trkpt lat="44.85104" lon="6.1383">
        <ele>2085.8</ele>
        <time>2024-08-13T12:37:34Z</time>
      </trkpt>
      <trkpt lat="44.85104" lon="6.1383">
        <ele>2085.6</ele>
        <time>2024-08-13T12:37:35Z</time>
      </trkpt>
      <trkpt lat="44.85102" lon="6.13831">
        <ele>2085.6</ele>
        <time>2024-08-13T12:37:36Z</time>
      </trkpt>
      <trkpt lat="44.85102" lon="6.13831">
        <ele>2085.2</ele>
        <time>2024-08-13T12:37:37Z</time>
      </trkpt>
      <trkpt lat="44.851" lon="6.13831">
        <ele>2085.2</ele>
        <time>2024-08-13T12:37:38Z</time>
      </trkpt>
      <trkpt lat="44.851" lon="6.13831">
        <ele>2085.2</ele>
        <time>2024-08-13T12:37:39Z</time>
      </trkpt>
      <trkpt lat="44.85098" lon="6.13832">
        <ele>2085.2</ele>
        <time>2024-08-13T12:37:40Z</time>
      </trkpt>
      <trkpt lat="44.85098" lon="6.13832">
        <ele>2085</ele>
        <time>2024-08-13T12:37:41Z</time>
      </trkpt>
      <trkpt lat="44.85095" lon="6.13831">
        <ele>2084.8</ele>
        <time>2024-08-13T12:37:42Z</time>
      </trkpt>
      <trkpt lat="44.85095" lon="6.13831">
        <ele>2084.8</ele>
        <time>2024-08-13T12:37:43Z</time>
      </trkpt>
      <trkpt lat="44.85093" lon="6.1383">
        <ele>2084.6</ele>
        <time>2024-08-13T12:37:44Z</time>
      </trkpt>
      <trkpt lat="44.85093" lon="6.1383">
        <ele>2084.6</ele>
        <time>2024-08-13T12:37:45Z</time>
      </trkpt>
      <trkpt lat="44.85092" lon="6.13829">
        <ele>2084.6</ele>
        <time>2024-08-13T12:37:46Z</time>
      </trkpt>
      <trkpt lat="44.85092" lon="6.13829">
        <ele>2084.6</ele>
        <time>2024-08-13T12:37:47Z</time>
      </trkpt>
      <trkpt lat="44.8509" lon="6.13828">
        <ele>2084.4</ele>
        <time>2024-08-13T12:37:48Z</time>
      </trkpt>
      <trkpt lat="44.8509" lon="6.13828">
        <ele>2084.4</ele>
        <time>2024-08-13T12:37:49Z</time>
      </trkpt>
      <trkpt lat="44.8509" lon="6.13828">
        <ele>2084</ele>
        <time>2024-08-13T12:37:50Z</time>
      </trkpt>
      <trkpt lat="44.85087" lon="6.13828">
        <ele>2084</ele>
        <time>2024-08-13T12:37:51Z</time>
      </trkpt>
      <trkpt lat="44.85087" lon="6.13828">
        <ele>2084</ele>
        <time>2024-08-13T12:37:52Z</time>
      </trkpt>
      <trkpt lat="44.85085" lon="6.13829">
        <ele>2083.6</ele>
        <time>2024-08-13T12:37:53Z</time>
      </trkpt>
      <trkpt lat="44.85085" lon="6.13829">
        <ele>2083.4</ele>
        <time>2024-08-13T12:37:54Z</time>
      </trkpt>
      <trkpt lat="44.85083" lon="6.13829">
        <ele>2083.4</ele>
        <time>2024-08-13T12:37:55Z</time>
      </trkpt>
      <trkpt lat="44.85083" lon="6.13829">
        <ele>2083.2</ele>
        <time>2024-08-13T12:37:56Z</time>
      </trkpt>
      <trkpt lat="44.85083" lon="6.13829">
        <ele>2083.2</ele>
        <time>2024-08-13T12:37:57Z</time>
      </trkpt>
      <trkpt lat="44.85081" lon="6.13828">
        <ele>2083.2</ele>
        <time>2024-08-13T12:37:58Z</time>
      </trkpt>
      <trkpt lat="44.85081" lon="6.13828">
        <ele>2082.8</ele>
        <time>2024-08-13T12:37:59Z</time>
      </trkpt>
      <trkpt lat="44.85079" lon="6.13825">
        <ele>2082.6</ele>
        <time>2024-08-13T12:38:00Z</time>
      </trkpt>
      <trkpt lat="44.85079" lon="6.13825">
        <ele>2082.6</ele>
        <time>2024-08-13T12:38:01Z</time>
      </trkpt>
      <trkpt lat="44.85078" lon="6.13822">
        <ele>2082.4</ele>
        <time>2024-08-13T12:38:02Z</time>
      </trkpt>
      <trkpt lat="44.85078" lon="6.13822">
        <ele>2082.4</ele>
        <time>2024-08-13T12:38:03Z</time>
      </trkpt>
      <trkpt lat="44.85076" lon="6.13819">
        <ele>2082.2</ele>
        <time>2024-08-13T12:38:04Z</time>
      </trkpt>
      <trkpt lat="44.85076" lon="6.13819">
        <ele>2081.8</ele>
        <time>2024-08-13T12:38:05Z</time>
      </trkpt>
      <trkpt lat="44.85075" lon="6.13816">
        <ele>2081.8</ele>
        <time>2024-08-13T12:38:06Z</time>
      </trkpt>
      <trkpt lat="44.85075" lon="6.13816">
        <ele>2081.8</ele>
        <time>2024-08-13T12:38:07Z</time>
      </trkpt>
      <trkpt lat="44.85074" lon="6.13814">
        <ele>2081.6</ele>
        <time>2024-08-13T12:38:08Z</time>
      </trkpt>
      <trkpt lat="44.85074" lon="6.13814">
        <ele>2081.2</ele>
        <time>2024-08-13T12:38:09Z</time>
      </trkpt>
      <trkpt lat="44.85073" lon="6.13809">
        <ele>2081.2</ele>
        <time>2024-08-13T12:38:10Z</time>
      </trkpt>
      <trkpt lat="44.85073" lon="6.13809">
        <ele>2081.2</ele>
        <time>2024-08-13T12:38:11Z</time>
      </trkpt>
      <trkpt lat="44.85072" lon="6.13806">
        <ele>2081</ele>
        <time>2024-08-13T12:38:12Z</time>
      </trkpt>
      <trkpt lat="44.85072" lon="6.13806">
        <ele>2080.8</ele>
        <time>2024-08-13T12:38:13Z</time>
      </trkpt>
      <trkpt lat="44.85072" lon="6.13803">
        <ele>2080.6</ele>
        <time>2024-08-13T12:38:14Z</time>
      </trkpt>
      <trkpt lat="44.85072" lon="6.13803">
        <ele>2080.6</ele>
        <time>2024-08-13T12:38:15Z</time>
      </trkpt>
      <trkpt lat="44.85071" lon="6.138">
        <ele>2080.4</ele>
        <time>2024-08-13T12:38:16Z</time>
      </trkpt>
      <trkpt lat="44.85071" lon="6.138">
        <ele>2080</ele>
        <time>2024-08-13T12:38:17Z</time>
      </trkpt>
      <trkpt lat="44.85071" lon="6.138">
        <ele>2080</ele>
        <time>2024-08-13T12:38:18Z</time>
      </trkpt>
      <trkpt lat="44.8507" lon="6.13795">
        <ele>2080</ele>
        <time>2024-08-13T12:38:19Z</time>
      </trkpt>
      <trkpt lat="44.8507" lon="6.13795">
        <ele>2080.2</ele>
        <time>2024-08-13T12:38:20Z</time>
      </trkpt>
      <trkpt lat="44.8507" lon="6.13791">
        <ele>2080.2</ele>
        <time>2024-08-13T12:38:21Z</time>
      </trkpt>
      <trkpt lat="44.8507" lon="6.13791">
        <ele>2079.8</ele>
        <time>2024-08-13T12:38:22Z</time>
      </trkpt>
      <trkpt lat="44.85069" lon="6.13788">
        <ele>2079.4</ele>
        <time>2024-08-13T12:38:23Z</time>
      </trkpt>
      <trkpt lat="44.85069" lon="6.13788">
        <ele>2079.4</ele>
        <time>2024-08-13T12:38:24Z</time>
      </trkpt>
      <trkpt lat="44.85069" lon="6.13786">
        <ele>2079.4</ele>
        <time>2024-08-13T12:38:25Z</time>
      </trkpt>
      <trkpt lat="44.85069" lon="6.13786">
        <ele>2079.2</ele>
        <time>2024-08-13T12:38:26Z</time>
      </trkpt>
      <trkpt lat="44.85069" lon="6.13783">
        <ele>2079.2</ele>
        <time>2024-08-13T12:38:27Z</time>
      </trkpt>
      <trkpt lat="44.85069" lon="6.13783">
        <ele>2079</ele>
        <time>2024-08-13T12:38:28Z</time>
      </trkpt>
      <trkpt lat="44.85068" lon="6.1378">
        <ele>2079</ele>
        <time>2024-08-13T12:38:29Z</time>
      </trkpt>
      <trkpt lat="44.85068" lon="6.1378">
        <ele>2078.8</ele>
        <time>2024-08-13T12:38:30Z</time>
      </trkpt>
      <trkpt lat="44.85068" lon="6.13777">
        <ele>2078.4</ele>
        <time>2024-08-13T12:38:31Z</time>
      </trkpt>
      <trkpt lat="44.85068" lon="6.13777">
        <ele>2078.4</ele>
        <time>2024-08-13T12:38:32Z</time>
      </trkpt>
      <trkpt lat="44.85067" lon="6.13774">
        <ele>2078.6</ele>
        <time>2024-08-13T12:38:33Z</time>
      </trkpt>
      <trkpt lat="44.85067" lon="6.13774">
        <ele>2079</ele>
        <time>2024-08-13T12:38:34Z</time>
      </trkpt>
      <trkpt lat="44.85066" lon="6.13772">
        <ele>2079</ele>
        <time>2024-08-13T12:38:35Z</time>
      </trkpt>
      <trkpt lat="44.85066" lon="6.13772">
        <ele>2079</ele>
        <time>2024-08-13T12:38:36Z</time>
      </trkpt>
      <trkpt lat="44.85066" lon="6.13769">
        <ele>2078.8</ele>
        <time>2024-08-13T12:38:37Z</time>
      </trkpt>
      <trkpt lat="44.85066" lon="6.13769">
        <ele>2078.8</ele>
        <time>2024-08-13T12:38:38Z</time>
      </trkpt>
      <trkpt lat="44.85066" lon="6.13765">
        <ele>2078.8</ele>
        <time>2024-08-13T12:38:39Z</time>
      </trkpt>
      <trkpt lat="44.85066" lon="6.13765">
        <ele>2078.8</ele>
        <time>2024-08-13T12:38:40Z</time>
      </trkpt>
      <trkpt lat="44.85066" lon="6.13763">
        <ele>2078.6</ele>
        <time>2024-08-13T12:38:41Z</time>
      </trkpt>
      <trkpt lat="44.85066" lon="6.13763">
        <ele>2078.6</ele>
        <time>2024-08-13T12:38:42Z</time>
      </trkpt>
      <trkpt lat="44.85066" lon="6.13759">
        <ele>2078.4</ele>
        <time>2024-08-13T12:38:43Z</time>
      </trkpt>
      <trkpt lat="44.85066" lon="6.13759">
        <ele>2078.4</ele>
        <time>2024-08-13T12:38:44Z</time>
      </trkpt>
      <trkpt lat="44.85065" lon="6.13757">
        <ele>2078</ele>
        <time>2024-08-13T12:38:45Z</time>
      </trkpt>
      <trkpt lat="44.85065" lon="6.13757">
        <ele>2078</ele>
        <time>2024-08-13T12:38:46Z</time>
      </trkpt>
      <trkpt lat="44.85066" lon="6.13753">
        <ele>2078</ele>
        <time>2024-08-13T12:38:47Z</time>
      </trkpt>
      <trkpt lat="44.85066" lon="6.13753">
        <ele>2078</ele>
        <time>2024-08-13T12:38:48Z</time>
      </trkpt>
      <trkpt lat="44.85066" lon="6.13753">
        <ele>2077.2</ele>
        <time>2024-08-13T12:38:49Z</time>
      </trkpt>
      <trkpt lat="44.85066" lon="6.13749">
        <ele>2077</ele>
        <time>2024-08-13T12:38:50Z</time>
      </trkpt>
      <trkpt lat="44.85066" lon="6.13749">
        <ele>2076.6</ele>
        <time>2024-08-13T12:38:51Z</time>
      </trkpt>
      <trkpt lat="44.85066" lon="6.13746">
        <ele>2076.6</ele>
        <time>2024-08-13T12:38:52Z</time>
      </trkpt>
      <trkpt lat="44.85066" lon="6.13746">
        <ele>2076.2</ele>
        <time>2024-08-13T12:38:53Z</time>
      </trkpt>
      <trkpt lat="44.85067" lon="6.13744">
        <ele>2075.8</ele>
        <time>2024-08-13T12:38:54Z</time>
      </trkpt>
      <trkpt lat="44.85067" lon="6.13744">
        <ele>2075.6</ele>
        <time>2024-08-13T12:38:55Z</time>
      </trkpt>
      <trkpt lat="44.85067" lon="6.13741">
        <ele>2075.6</ele>
        <time>2024-08-13T12:38:56Z</time>
      </trkpt>
      <trkpt lat="44.85067" lon="6.13741">
        <ele>2075.6</ele>
        <time>2024-08-13T12:38:57Z</time>
      </trkpt>
      <trkpt lat="44.85067" lon="6.13737">
        <ele>2075.6</ele>
        <time>2024-08-13T12:38:58Z</time>
      </trkpt>
      <trkpt lat="44.85067" lon="6.13737">
        <ele>2075.6</ele>
        <time>2024-08-13T12:38:59Z</time>
      </trkpt>
      <trkpt lat="44.85068" lon="6.13734">
        <ele>2075.4</ele>
        <time>2024-08-13T12:39:00Z</time>
      </trkpt>
      <trkpt lat="44.85068" lon="6.13734">
        <ele>2075</ele>
        <time>2024-08-13T12:39:01Z</time>
      </trkpt>
      <trkpt lat="44.85069" lon="6.13731">
        <ele>2075</ele>
        <time>2024-08-13T12:39:02Z</time>
      </trkpt>
      <trkpt lat="44.85069" lon="6.13731">
        <ele>2075</ele>
        <time>2024-08-13T12:39:03Z</time>
      </trkpt>
      <trkpt lat="44.8507" lon="6.13728">
        <ele>2074.8</ele>
        <time>2024-08-13T12:39:04Z</time>
      </trkpt>
      <trkpt lat="44.8507" lon="6.13728">
        <ele>2074.8</ele>
        <time>2024-08-13T12:39:05Z</time>
      </trkpt>
      <trkpt lat="44.85071" lon="6.13726">
        <ele>2074.8</ele>
        <time>2024-08-13T12:39:06Z</time>
      </trkpt>
      <trkpt lat="44.85071" lon="6.13726">
        <ele>2074.8</ele>
        <time>2024-08-13T12:39:07Z</time>
      </trkpt>
      <trkpt lat="44.85072" lon="6.13722">
        <ele>2074.2</ele>
        <time>2024-08-13T12:39:08Z</time>
      </trkpt>
      <trkpt lat="44.85072" lon="6.13722">
        <ele>2073.8</ele>
        <time>2024-08-13T12:39:09Z</time>
      </trkpt>
      <trkpt lat="44.85072" lon="6.13719">
        <ele>2073.6</ele>
        <time>2024-08-13T12:39:10Z</time>
      </trkpt>
      <trkpt lat="44.85072" lon="6.13719">
        <ele>2073.6</ele>
        <time>2024-08-13T12:39:11Z</time>
      </trkpt>
      <trkpt lat="44.85073" lon="6.13716">
        <ele>2073.4</ele>
        <time>2024-08-13T12:39:12Z</time>
      </trkpt>
      <trkpt lat="44.85073" lon="6.13716">
        <ele>2073.4</ele>
        <time>2024-08-13T12:39:13Z</time>
      </trkpt>
      <trkpt lat="44.85074" lon="6.13712">
        <ele>2073.4</ele>
        <time>2024-08-13T12:39:14Z</time>
      </trkpt>
      <trkpt lat="44.85074" lon="6.13712">
        <ele>2073.4</ele>
        <time>2024-08-13T12:39:15Z</time>
      </trkpt>
      <trkpt lat="44.85074" lon="6.13712">
        <ele>2073.2</ele>
        <time>2024-08-13T12:39:16Z</time>
      </trkpt>
      <trkpt lat="44.85074" lon="6.1371">
        <ele>2073.2</ele>
        <time>2024-08-13T12:39:17Z</time>
      </trkpt>
      <trkpt lat="44.85074" lon="6.1371">
        <ele>2073.4</ele>
        <time>2024-08-13T12:39:18Z</time>
      </trkpt>
      <trkpt lat="44.85074" lon="6.1371">
        <ele>2073.4</ele>
        <time>2024-08-13T12:39:19Z</time>
      </trkpt>
      <trkpt lat="44.85072" lon="6.13712">
        <ele>2073</ele>
        <time>2024-08-13T12:39:20Z</time>
      </trkpt>
      <trkpt lat="44.85072" lon="6.13712">
        <ele>2073</ele>
        <time>2024-08-13T12:39:21Z</time>
      </trkpt>
      <trkpt lat="44.8507" lon="6.13716">
        <ele>2072.6</ele>
        <time>2024-08-13T12:39:22Z</time>
      </trkpt>
      <trkpt lat="44.8507" lon="6.13716">
        <ele>2072.4</ele>
        <time>2024-08-13T12:39:23Z</time>
      </trkpt>
      <trkpt lat="44.85069" lon="6.13719">
        <ele>2072.2</ele>
        <time>2024-08-13T12:39:24Z</time>
      </trkpt>
      <trkpt lat="44.85069" lon="6.13719">
        <ele>2072.2</ele>
        <time>2024-08-13T12:39:25Z</time>
      </trkpt>
      <trkpt lat="44.85068" lon="6.13723">
        <ele>2072</ele>
        <time>2024-08-13T12:39:26Z</time>
      </trkpt>
      <trkpt lat="44.85068" lon="6.13723">
        <ele>2071.8</ele>
        <time>2024-08-13T12:39:27Z</time>
      </trkpt>
      <trkpt lat="44.85067" lon="6.13726">
        <ele>2071.6</ele>
        <time>2024-08-13T12:39:28Z</time>
      </trkpt>
      <trkpt lat="44.85067" lon="6.13726">
        <ele>2071.6</ele>
        <time>2024-08-13T12:39:29Z</time>
      </trkpt>
      <trkpt lat="44.85065" lon="6.13728">
        <ele>2071.4</ele>
        <time>2024-08-13T12:39:30Z</time>
      </trkpt>
      <trkpt lat="44.85065" lon="6.13728">
        <ele>2071.2</ele>
        <time>2024-08-13T12:39:31Z</time>
      </trkpt>
      <trkpt lat="44.85063" lon="6.1373">
        <ele>2071.2</ele>
        <time>2024-08-13T12:39:32Z</time>
      </trkpt>
      <trkpt lat="44.85063" lon="6.1373">
        <ele>2070.8</ele>
        <time>2024-08-13T12:39:33Z</time>
      </trkpt>
      <trkpt lat="44.85061" lon="6.13732">
        <ele>2070.6</ele>
        <time>2024-08-13T12:39:34Z</time>
      </trkpt>
      <trkpt lat="44.85061" lon="6.13732">
        <ele>2070.6</ele>
        <time>2024-08-13T12:39:35Z</time>
      </trkpt>
      <trkpt lat="44.85059" lon="6.13734">
        <ele>2070.6</ele>
        <time>2024-08-13T12:39:36Z</time>
      </trkpt>
      <trkpt lat="44.85059" lon="6.13734">
        <ele>2070.4</ele>
        <time>2024-08-13T12:39:37Z</time>
      </trkpt>
      <trkpt lat="44.85057" lon="6.13735">
        <ele>2070.4</ele>
        <time>2024-08-13T12:39:38Z</time>
      </trkpt>
      <trkpt lat="44.85057" lon="6.13735">
        <ele>2070.4</ele>
        <time>2024-08-13T12:39:39Z</time>
      </trkpt>
      <trkpt lat="44.85054" lon="6.13735">
        <ele>2070.2</ele>
        <time>2024-08-13T12:39:40Z</time>
      </trkpt>
      <trkpt lat="44.85054" lon="6.13735">
        <ele>2070</ele>
        <time>2024-08-13T12:39:41Z</time>
      </trkpt>
      <trkpt lat="44.85052" lon="6.13734">
        <ele>2069.8</ele>
        <time>2024-08-13T12:39:42Z</time>
      </trkpt>
      <trkpt lat="44.85052" lon="6.13734">
        <ele>2069.8</ele>
        <time>2024-08-13T12:39:43Z</time>
      </trkpt>
      <trkpt lat="44.85052" lon="6.13734">
        <ele>2069.6</ele>
        <time>2024-08-13T12:39:44Z</time>
      </trkpt>
      <trkpt lat="44.8505" lon="6.13735">
        <ele>2069.4</ele>
        <time>2024-08-13T12:39:45Z</time>
      </trkpt>
      <trkpt lat="44.8505" lon="6.13735">
        <ele>2069.2</ele>
        <time>2024-08-13T12:39:46Z</time>
      </trkpt>
      <trkpt lat="44.8505" lon="6.13735">
        <ele>2069.2</ele>
        <time>2024-08-13T12:39:47Z</time>
      </trkpt>
      <trkpt lat="44.85048" lon="6.13736">
        <ele>2069</ele>
        <time>2024-08-13T12:39:48Z</time>
      </trkpt>
      <trkpt lat="44.85048" lon="6.13736">
        <ele>2069</ele>
        <time>2024-08-13T12:39:49Z</time>
      </trkpt>
      <trkpt lat="44.85048" lon="6.13733">
        <ele>2068.6</ele>
        <time>2024-08-13T12:39:50Z</time>
      </trkpt>
      <trkpt lat="44.85048" lon="6.13733">
        <ele>2068.4</ele>
        <time>2024-08-13T12:39:51Z</time>
      </trkpt>
      <trkpt lat="44.85049" lon="6.1373">
        <ele>2068</ele>
        <time>2024-08-13T12:39:52Z</time>
      </trkpt>
      <trkpt lat="44.85049" lon="6.1373">
        <ele>2067.8</ele>
        <time>2024-08-13T12:39:53Z</time>
      </trkpt>
      <trkpt lat="44.8505" lon="6.13727">
        <ele>2067.8</ele>
        <time>2024-08-13T12:39:54Z</time>
      </trkpt>
      <trkpt lat="44.8505" lon="6.13727">
        <ele>2067.8</ele>
        <time>2024-08-13T12:39:55Z</time>
      </trkpt>
      <trkpt lat="44.85052" lon="6.13724">
        <ele>2067.6</ele>
        <time>2024-08-13T12:39:56Z</time>
      </trkpt>
      <trkpt lat="44.85052" lon="6.13724">
        <ele>2067.4</ele>
        <time>2024-08-13T12:39:57Z</time>
      </trkpt>
      <trkpt lat="44.85054" lon="6.13722">
        <ele>2067.4</ele>
        <time>2024-08-13T12:39:58Z</time>
      </trkpt>
      <trkpt lat="44.85054" lon="6.13722">
        <ele>2067.4</ele>
        <time>2024-08-13T12:39:59Z</time>
      </trkpt>
      <trkpt lat="44.85056" lon="6.13721">
        <ele>2067.2</ele>
        <time>2024-08-13T12:40:00Z</time>
      </trkpt>
      <trkpt lat="44.85056" lon="6.13721">
        <ele>2067</ele>
        <time>2024-08-13T12:40:01Z</time>
      </trkpt>
      <trkpt lat="44.85058" lon="6.13719">
        <ele>2067</ele>
        <time>2024-08-13T12:40:02Z</time>
      </trkpt>
      <trkpt lat="44.85058" lon="6.13719">
        <ele>2067</ele>
        <time>2024-08-13T12:40:03Z</time>
      </trkpt>
      <trkpt lat="44.85059" lon="6.13715">
        <ele>2067.4</ele>
        <time>2024-08-13T12:40:04Z</time>
      </trkpt>
      <trkpt lat="44.85059" lon="6.13715">
        <ele>2067.4</ele>
        <time>2024-08-13T12:40:05Z</time>
      </trkpt>
      <trkpt lat="44.85059" lon="6.13712">
        <ele>2067</ele>
        <time>2024-08-13T12:40:06Z</time>
      </trkpt>
      <trkpt lat="44.85059" lon="6.13712">
        <ele>2066.8</ele>
        <time>2024-08-13T12:40:07Z</time>
      </trkpt>
      <trkpt lat="44.8506" lon="6.13708">
        <ele>2066.8</ele>
        <time>2024-08-13T12:40:08Z</time>
      </trkpt>
      <trkpt lat="44.8506" lon="6.13708">
        <ele>2066.8</ele>
        <time>2024-08-13T12:40:09Z</time>
      </trkpt>
      <trkpt lat="44.85061" lon="6.13706">
        <ele>2066.8</ele>
        <time>2024-08-13T12:40:10Z</time>
      </trkpt>
      <trkpt lat="44.85061" lon="6.13706">
        <ele>2066.6</ele>
        <time>2024-08-13T12:40:11Z</time>
      </trkpt>
      <trkpt lat="44.85063" lon="6.13704">
        <ele>2066.4</ele>
        <time>2024-08-13T12:40:12Z</time>
      </trkpt>
      <trkpt lat="44.85063" lon="6.13704">
        <ele>2066.4</ele>
        <time>2024-08-13T12:40:13Z</time>
      </trkpt>
      <trkpt lat="44.85065" lon="6.13703">
        <ele>2066.4</ele>
        <time>2024-08-13T12:40:14Z</time>
      </trkpt>
      <trkpt lat="44.85065" lon="6.13703">
        <ele>2066.4</ele>
        <time>2024-08-13T12:40:15Z</time>
      </trkpt>
      <trkpt lat="44.85066" lon="6.13701">
        <ele>2066.4</ele>
        <time>2024-08-13T12:40:16Z</time>
      </trkpt>
      <trkpt lat="44.85066" lon="6.13701">
        <ele>2066.2</ele>
        <time>2024-08-13T12:40:17Z</time>
      </trkpt>
      <trkpt lat="44.85066" lon="6.13701">
        <ele>2065.8</ele>
        <time>2024-08-13T12:40:18Z</time>
      </trkpt>
      <trkpt lat="44.85068" lon="6.13699">
        <ele>2065.4</ele>
        <time>2024-08-13T12:40:19Z</time>
      </trkpt>
      <trkpt lat="44.85068" lon="6.13699">
        <ele>2065.4</ele>
        <time>2024-08-13T12:40:20Z</time>
      </trkpt>
      <trkpt lat="44.85068" lon="6.13699">
        <ele>2065.4</ele>
        <time>2024-08-13T12:40:21Z</time>
      </trkpt>
      <trkpt lat="44.85068" lon="6.13699">
        <ele>2065.2</ele>
        <time>2024-08-13T12:40:22Z</time>
      </trkpt>
      <trkpt lat="44.85068" lon="6.13695">
        <ele>2064.8</ele>
        <time>2024-08-13T12:40:23Z</time>
      </trkpt>
      <trkpt lat="44.85068" lon="6.13695">
        <ele>2064.8</ele>
        <time>2024-08-13T12:40:24Z</time>
      </trkpt>
      <trkpt lat="44.85068" lon="6.13695">
        <ele>2064.4</ele>
        <time>2024-08-13T12:40:25Z</time>
      </trkpt>
      <trkpt lat="44.8507" lon="6.13693">
        <ele>2064</ele>
        <time>2024-08-13T12:40:26Z</time>
      </trkpt>
      <trkpt lat="44.8507" lon="6.13693">
        <ele>2063.8</ele>
        <time>2024-08-13T12:40:27Z</time>
      </trkpt>
      <trkpt lat="44.85072" lon="6.13691">
        <ele>2063.8</ele>
        <time>2024-08-13T12:40:28Z</time>
      </trkpt>
      <trkpt lat="44.85072" lon="6.13691">
        <ele>2063.4</ele>
        <time>2024-08-13T12:40:29Z</time>
      </trkpt>
      <trkpt lat="44.85072" lon="6.13691">
        <ele>2063.2</ele>
        <time>2024-08-13T12:40:30Z</time>
      </trkpt>
      <trkpt lat="44.85074" lon="6.1369">
        <ele>2063.2</ele>
        <time>2024-08-13T12:40:31Z</time>
      </trkpt>
      <trkpt lat="44.85074" lon="6.1369">
        <ele>2062.8</ele>
        <time>2024-08-13T12:40:32Z</time>
      </trkpt>
      <trkpt lat="44.85074" lon="6.1369">
        <ele>2062.6</ele>
        <time>2024-08-13T12:40:33Z</time>
      </trkpt>
      <trkpt lat="44.85074" lon="6.1369">
        <ele>2062.4</ele>
        <time>2024-08-13T12:40:34Z</time>
      </trkpt>
      <trkpt lat="44.85074" lon="6.13687">
        <ele>2062.2</ele>
        <time>2024-08-13T12:40:35Z</time>
      </trkpt>
      <trkpt lat="44.85074" lon="6.13687">
        <ele>2062</ele>
        <time>2024-08-13T12:40:36Z</time>
      </trkpt>
      <trkpt lat="44.85075" lon="6.13684">
        <ele>2061.8</ele>
        <time>2024-08-13T12:40:37Z</time>
      </trkpt>
      <trkpt lat="44.85075" lon="6.13684">
        <ele>2061.6</ele>
        <time>2024-08-13T12:40:38Z</time>
      </trkpt>
      <trkpt lat="44.85076" lon="6.13681">
        <ele>2061.2</ele>
        <time>2024-08-13T12:40:39Z</time>
      </trkpt>
      <trkpt lat="44.85076" lon="6.13681">
        <ele>2061.2</ele>
        <time>2024-08-13T12:40:40Z</time>
      </trkpt>
      <trkpt lat="44.85077" lon="6.13678">
        <ele>2061</ele>
        <time>2024-08-13T12:40:41Z</time>
      </trkpt>
      <trkpt lat="44.85077" lon="6.13678">
        <ele>2061</ele>
        <time>2024-08-13T12:40:42Z</time>
      </trkpt>
      <trkpt lat="44.85077" lon="6.13678">
        <ele>2061</ele>
        <time>2024-08-13T12:40:43Z</time>
      </trkpt>
      <trkpt lat="44.85077" lon="6.13675">
        <ele>2060.6</ele>
        <time>2024-08-13T12:40:44Z</time>
      </trkpt>
      <trkpt lat="44.85077" lon="6.13675">
        <ele>2060.4</ele>
        <time>2024-08-13T12:40:45Z</time>
      </trkpt>
      <trkpt lat="44.85078" lon="6.13672">
        <ele>2060</ele>
        <time>2024-08-13T12:40:46Z</time>
      </trkpt>
      <trkpt lat="44.85078" lon="6.13672">
        <ele>2060</ele>
        <time>2024-08-13T12:40:47Z</time>
      </trkpt>
      <trkpt lat="44.85078" lon="6.13672">
        <ele>2060</ele>
        <time>2024-08-13T12:40:48Z</time>
      </trkpt>
      <trkpt lat="44.85077" lon="6.13668">
        <ele>2059.4</ele>
        <time>2024-08-13T12:40:49Z</time>
      </trkpt>
      <trkpt lat="44.85077" lon="6.13668">
        <ele>2059</ele>
        <time>2024-08-13T12:40:50Z</time>
      </trkpt>
      <trkpt lat="44.85077" lon="6.13665">
        <ele>2059</ele>
        <time>2024-08-13T12:40:51Z</time>
      </trkpt>
      <trkpt lat="44.85077" lon="6.13665">
        <ele>2058.6</ele>
        <time>2024-08-13T12:40:52Z</time>
      </trkpt>
      <trkpt lat="44.85077" lon="6.13663">
        <ele>2058.6</ele>
        <time>2024-08-13T12:40:53Z</time>
      </trkpt>
      <trkpt lat="44.85077" lon="6.13663">
        <ele>2058.4</ele>
        <time>2024-08-13T12:40:54Z</time>
      </trkpt>
      <trkpt lat="44.85077" lon="6.1366">
        <ele>2058.4</ele>
        <time>2024-08-13T12:40:55Z</time>
      </trkpt>
      <trkpt lat="44.85077" lon="6.1366">
        <ele>2058.2</ele>
        <time>2024-08-13T12:40:56Z</time>
      </trkpt>
      <trkpt lat="44.85077" lon="6.1366">
        <ele>2057.4</ele>
        <time>2024-08-13T12:40:57Z</time>
      </trkpt>
      <trkpt lat="44.85078" lon="6.13657">
        <ele>2057.4</ele>
        <time>2024-08-13T12:40:58Z</time>
      </trkpt>
      <trkpt lat="44.85078" lon="6.13657">
        <ele>2057.2</ele>
        <time>2024-08-13T12:40:59Z</time>
      </trkpt>
      <trkpt lat="44.85078" lon="6.13657">
        <ele>2057.2</ele>
        <time>2024-08-13T12:41:00Z</time>
      </trkpt>
      <trkpt lat="44.85077" lon="6.13653">
        <ele>2056.4</ele>
        <time>2024-08-13T12:41:01Z</time>
      </trkpt>
      <trkpt lat="44.85077" lon="6.13653">
        <ele>2055.6</ele>
        <time>2024-08-13T12:41:02Z</time>
      </trkpt>
      <trkpt lat="44.85077" lon="6.13649">
        <ele>2055.6</ele>
        <time>2024-08-13T12:41:03Z</time>
      </trkpt>
      <trkpt lat="44.85077" lon="6.13649">
        <ele>2055.4</ele>
        <time>2024-08-13T12:41:04Z</time>
      </trkpt>
      <trkpt lat="44.85077" lon="6.13646">
        <ele>2055</ele>
        <time>2024-08-13T12:41:05Z</time>
      </trkpt>
      <trkpt lat="44.85077" lon="6.13646">
        <ele>2055</ele>
        <time>2024-08-13T12:41:06Z</time>
      </trkpt>
      <trkpt lat="44.85077" lon="6.13643">
        <ele>2055.2</ele>
        <time>2024-08-13T12:41:07Z</time>
      </trkpt>
      <trkpt lat="44.85077" lon="6.13643">
        <ele>2055.2</ele>
        <time>2024-08-13T12:41:08Z</time>
      </trkpt>
      <trkpt lat="44.85077" lon="6.13641">
        <ele>2054.8</ele>
        <time>2024-08-13T12:41:09Z</time>
      </trkpt>
      <trkpt lat="44.85077" lon="6.13641">
        <ele>2054.2</ele>
        <time>2024-08-13T12:41:10Z</time>
      </trkpt>
      <trkpt lat="44.85077" lon="6.13641">
        <ele>2054</ele>
        <time>2024-08-13T12:41:11Z</time>
      </trkpt>
      <trkpt lat="44.85077" lon="6.13637">
        <ele>2053.8</ele>
        <time>2024-08-13T12:41:12Z</time>
      </trkpt>
      <trkpt lat="44.85077" lon="6.13637">
        <ele>2053.6</ele>
        <time>2024-08-13T12:41:13Z</time>
      </trkpt>
      <trkpt lat="44.85076" lon="6.13633">
        <ele>2053.6</ele>
        <time>2024-08-13T12:41:14Z</time>
      </trkpt>
      <trkpt lat="44.85076" lon="6.13633">
        <ele>2053.4</ele>
        <time>2024-08-13T12:41:15Z</time>
      </trkpt>
      <trkpt lat="44.85077" lon="6.13631">
        <ele>2053.4</ele>
        <time>2024-08-13T12:41:16Z</time>
      </trkpt>
      <trkpt lat="44.85077" lon="6.13631">
        <ele>2053</ele>
        <time>2024-08-13T12:41:17Z</time>
      </trkpt>
      <trkpt lat="44.85078" lon="6.13629">
        <ele>2053</ele>
        <time>2024-08-13T12:41:18Z</time>
      </trkpt>
      <trkpt lat="44.85078" lon="6.13629">
        <ele>2052.8</ele>
        <time>2024-08-13T12:41:19Z</time>
      </trkpt>
      <trkpt lat="44.85078" lon="6.13629">
        <ele>2052.8</ele>
        <time>2024-08-13T12:41:20Z</time>
      </trkpt>
      <trkpt lat="44.8508" lon="6.13626">
        <ele>2052.6</ele>
        <time>2024-08-13T12:41:21Z</time>
      </trkpt>
      <trkpt lat="44.8508" lon="6.13626">
        <ele>2052.4</ele>
        <time>2024-08-13T12:41:22Z</time>
      </trkpt>
      <trkpt lat="44.85081" lon="6.13623">
        <ele>2052.2</ele>
        <time>2024-08-13T12:41:23Z</time>
      </trkpt>
      <trkpt lat="44.85081" lon="6.13623">
        <ele>2052</ele>
        <time>2024-08-13T12:41:24Z</time>
      </trkpt>
      <trkpt lat="44.85082" lon="6.13621">
        <ele>2051.8</ele>
        <time>2024-08-13T12:41:25Z</time>
      </trkpt>
      <trkpt lat="44.85082" lon="6.13621">
        <ele>2051.8</ele>
        <time>2024-08-13T12:41:26Z</time>
      </trkpt>
      <trkpt lat="44.85082" lon="6.13621">
        <ele>2051.6</ele>
        <time>2024-08-13T12:41:27Z</time>
      </trkpt>
      <trkpt lat="44.85082" lon="6.13621">
        <ele>2051.6</ele>
        <time>2024-08-13T12:41:28Z</time>
      </trkpt>
      <trkpt lat="44.85084" lon="6.13619">
        <ele>2051.4</ele>
        <time>2024-08-13T12:41:29Z</time>
      </trkpt>
      <trkpt lat="44.85084" lon="6.13619">
        <ele>2051.4</ele>
        <time>2024-08-13T12:41:30Z</time>
      </trkpt>
      <trkpt lat="44.85084" lon="6.13619">
        <ele>2051.2</ele>
        <time>2024-08-13T12:41:31Z</time>
      </trkpt>
      <trkpt lat="44.85085" lon="6.13615">
        <ele>2051</ele>
        <time>2024-08-13T12:41:32Z</time>
      </trkpt>
      <trkpt lat="44.85085" lon="6.13615">
        <ele>2051</ele>
        <time>2024-08-13T12:41:33Z</time>
      </trkpt>
      <trkpt lat="44.85086" lon="6.13613">
        <ele>2050.8</ele>
        <time>2024-08-13T12:41:34Z</time>
      </trkpt>
      <trkpt lat="44.85086" lon="6.13613">
        <ele>2050.8</ele>
        <time>2024-08-13T12:41:35Z</time>
      </trkpt>
      <trkpt lat="44.85088" lon="6.13611">
        <ele>2050.8</ele>
        <time>2024-08-13T12:41:36Z</time>
      </trkpt>
      <trkpt lat="44.85088" lon="6.13611">
        <ele>2050.8</ele>
        <time>2024-08-13T12:41:37Z</time>
      </trkpt>
      <trkpt lat="44.8509" lon="6.1361">
        <ele>2050.8</ele>
        <time>2024-08-13T12:41:38Z</time>
      </trkpt>
      <trkpt lat="44.8509" lon="6.1361">
        <ele>2050.6</ele>
        <time>2024-08-13T12:41:39Z</time>
      </trkpt>
      <trkpt lat="44.85092" lon="6.13609">
        <ele>2050.6</ele>
        <time>2024-08-13T12:41:40Z</time>
      </trkpt>
      <trkpt lat="44.85092" lon="6.13609">
        <ele>2050.6</ele>
        <time>2024-08-13T12:41:41Z</time>
      </trkpt>
      <trkpt lat="44.85092" lon="6.13609">
        <ele>2050.6</ele>
        <time>2024-08-13T12:41:42Z</time>
      </trkpt>
      <trkpt lat="44.85092" lon="6.13609">
        <ele>2050.6</ele>
        <time>2024-08-13T12:41:43Z</time>
      </trkpt>
      <trkpt lat="44.85094" lon="6.13608">
        <ele>2050.6</ele>
        <time>2024-08-13T12:41:44Z</time>
      </trkpt>
      <trkpt lat="44.85094" lon="6.13608">
        <ele>2050.4</ele>
        <time>2024-08-13T12:41:45Z</time>
      </trkpt>
      <trkpt lat="44.85094" lon="6.13608">
        <ele>2050.2</ele>
        <time>2024-08-13T12:41:46Z</time>
      </trkpt>
      <trkpt lat="44.85096" lon="6.13607">
        <ele>2050.2</ele>
        <time>2024-08-13T12:41:47Z</time>
      </trkpt>
      <trkpt lat="44.85096" lon="6.13607">
        <ele>2050.2</ele>
        <time>2024-08-13T12:41:48Z</time>
      </trkpt>
      <trkpt lat="44.85096" lon="6.13607">
        <ele>2050.2</ele>
        <time>2024-08-13T12:41:49Z</time>
      </trkpt>
      <trkpt lat="44.85098" lon="6.13606">
        <ele>2049.6</ele>
        <time>2024-08-13T12:41:50Z</time>
      </trkpt>
      <trkpt lat="44.85098" lon="6.13606">
        <ele>2049.6</ele>
        <time>2024-08-13T12:41:51Z</time>
      </trkpt>
      <trkpt lat="44.85098" lon="6.13606">
        <ele>2049.6</ele>
        <time>2024-08-13T12:41:52Z</time>
      </trkpt>
      <trkpt lat="44.851" lon="6.13603">
        <ele>2049.4</ele>
        <time>2024-08-13T12:41:53Z</time>
      </trkpt>
      <trkpt lat="44.851" lon="6.13603">
        <ele>2049.2</ele>
        <time>2024-08-13T12:41:54Z</time>
      </trkpt>
      <trkpt lat="44.85101" lon="6.13602">
        <ele>2049</ele>
        <time>2024-08-13T12:41:55Z</time>
      </trkpt>
      <trkpt lat="44.85101" lon="6.13602">
        <ele>2049</ele>
        <time>2024-08-13T12:41:56Z</time>
      </trkpt>
      <trkpt lat="44.85101" lon="6.13602">
        <ele>2049.2</ele>
        <time>2024-08-13T12:41:57Z</time>
      </trkpt>
      <trkpt lat="44.85103" lon="6.13599">
        <ele>2049.2</ele>
        <time>2024-08-13T12:41:58Z</time>
      </trkpt>
      <trkpt lat="44.85103" lon="6.13599">
        <ele>2049.4</ele>
        <time>2024-08-13T12:41:59Z</time>
      </trkpt>
      <trkpt lat="44.85103" lon="6.13599">
        <ele>2049.6</ele>
        <time>2024-08-13T12:42:00Z</time>
      </trkpt>
      <trkpt lat="44.85105" lon="6.13596">
        <ele>2049.6</ele>
        <time>2024-08-13T12:42:01Z</time>
      </trkpt>
      <trkpt lat="44.85105" lon="6.13596">
        <ele>2050.2</ele>
        <time>2024-08-13T12:42:02Z</time>
      </trkpt>
      <trkpt lat="44.85105" lon="6.13596">
        <ele>2050.2</ele>
        <time>2024-08-13T12:42:03Z</time>
      </trkpt>
      <trkpt lat="44.85106" lon="6.13594">
        <ele>2050.2</ele>
        <time>2024-08-13T12:42:04Z</time>
      </trkpt>
      <trkpt lat="44.85106" lon="6.13594">
        <ele>2050.2</ele>
        <time>2024-08-13T12:42:05Z</time>
      </trkpt>
      <trkpt lat="44.85106" lon="6.13594">
        <ele>2050.4</ele>
        <time>2024-08-13T12:42:06Z</time>
      </trkpt>
      <trkpt lat="44.85108" lon="6.13591">
        <ele>2050.4</ele>
        <time>2024-08-13T12:42:07Z</time>
      </trkpt>
      <trkpt lat="44.85108" lon="6.13591">
        <ele>2050.4</ele>
        <time>2024-08-13T12:42:08Z</time>
      </trkpt>
      <trkpt lat="44.85108" lon="6.13591">
        <ele>2050.6</ele>
        <time>2024-08-13T12:42:09Z</time>
      </trkpt>
      <trkpt lat="44.85108" lon="6.13591">
        <ele>2050.6</ele>
        <time>2024-08-13T12:42:10Z</time>
      </trkpt>
      <trkpt lat="44.85108" lon="6.13589">
        <ele>2050.6</ele>
        <time>2024-08-13T12:42:11Z</time>
      </trkpt>
      <trkpt lat="44.85108" lon="6.13589">
        <ele>2050.6</ele>
        <time>2024-08-13T12:42:12Z</time>
      </trkpt>
      <trkpt lat="44.85108" lon="6.13589">
        <ele>2050.6</ele>
        <time>2024-08-13T12:42:13Z</time>
      </trkpt>
      <trkpt lat="44.85108" lon="6.13589">
        <ele>2050.6</ele>
        <time>2024-08-13T12:42:14Z</time>
      </trkpt>
      <trkpt lat="44.85108" lon="6.13585">
        <ele>2050.6</ele>
        <time>2024-08-13T12:42:15Z</time>
      </trkpt>
      <trkpt lat="44.85108" lon="6.13585">
        <ele>2050.6</ele>
        <time>2024-08-13T12:42:16Z</time>
      </trkpt>
      <trkpt lat="44.85108" lon="6.13585">
        <ele>2050.8</ele>
        <time>2024-08-13T12:42:17Z</time>
      </trkpt>
      <trkpt lat="44.85108" lon="6.13585">
        <ele>2050.8</ele>
        <time>2024-08-13T12:42:18Z</time>
      </trkpt>
      <trkpt lat="44.85108" lon="6.13585">
        <ele>2050.8</ele>
        <time>2024-08-13T12:42:19Z</time>
      </trkpt>
      <trkpt lat="44.85108" lon="6.13585">
        <ele>2051</ele>
        <time>2024-08-13T12:42:20Z</time>
      </trkpt>
      <trkpt lat="44.85108" lon="6.13585">
        <ele>2051.2</ele>
        <time>2024-08-13T12:42:21Z</time>
      </trkpt>
      <trkpt lat="44.85108" lon="6.13585">
        <ele>2051.2</ele>
        <time>2024-08-13T12:42:22Z</time>
      </trkpt>
      <trkpt lat="44.85106" lon="6.13584">
        <ele>2051.2</ele>
        <time>2024-08-13T12:42:23Z</time>
      </trkpt>
      <trkpt lat="44.85106" lon="6.13584">
        <ele>2051.2</ele>
        <time>2024-08-13T12:42:24Z</time>
      </trkpt>
      <trkpt lat="44.85106" lon="6.13584">
        <ele>2051.4</ele>
        <time>2024-08-13T12:42:25Z</time>
      </trkpt>
      <trkpt lat="44.85106" lon="6.13584">
        <ele>2051.4</ele>
        <time>2024-08-13T12:42:26Z</time>
      </trkpt>
      <trkpt lat="44.85106" lon="6.13584">
        <ele>2051.4</ele>
        <time>2024-08-13T12:42:27Z</time>
      </trkpt>
      <trkpt lat="44.85106" lon="6.13584">
        <ele>2051.6</ele>
        <time>2024-08-13T12:42:28Z</time>
      </trkpt>
      <trkpt lat="44.85104" lon="6.13585">
        <ele>2051.6</ele>
        <time>2024-08-13T12:42:29Z</time>
      </trkpt>
      <trkpt lat="44.85104" lon="6.13585">
        <ele>2052</ele>
        <time>2024-08-13T12:42:30Z</time>
      </trkpt>
      <trkpt lat="44.85104" lon="6.13585">
        <ele>2052</ele>
        <time>2024-08-13T12:42:31Z</time>
      </trkpt>
      <trkpt lat="44.85104" lon="6.13585">
        <ele>2052.4</ele>
        <time>2024-08-13T12:42:32Z</time>
      </trkpt>
      <trkpt lat="44.85102" lon="6.13585">
        <ele>2052.4</ele>
        <time>2024-08-13T12:42:33Z</time>
      </trkpt>
      <trkpt lat="44.85102" lon="6.13585">
        <ele>2052.8</ele>
        <time>2024-08-13T12:42:34Z</time>
      </trkpt>
      <trkpt lat="44.85099" lon="6.13585">
        <ele>2053</ele>
        <time>2024-08-13T12:42:35Z</time>
      </trkpt>
      <trkpt lat="44.85099" lon="6.13585">
        <ele>2053</ele>
        <time>2024-08-13T12:42:36Z</time>
      </trkpt>
      <trkpt lat="44.85099" lon="6.13585">
        <ele>2052.8</ele>
        <time>2024-08-13T12:42:37Z</time>
      </trkpt>
      <trkpt lat="44.85096" lon="6.13585">
        <ele>2052.8</ele>
        <time>2024-08-13T12:42:38Z</time>
      </trkpt>
      <trkpt lat="44.85096" lon="6.13585">
        <ele>2053.2</ele>
        <time>2024-08-13T12:42:39Z</time>
      </trkpt>
      <trkpt lat="44.85096" lon="6.13585">
        <ele>2053.6</ele>
        <time>2024-08-13T12:42:40Z</time>
      </trkpt>
      <trkpt lat="44.85094" lon="6.13586">
        <ele>2053.6</ele>
        <time>2024-08-13T12:42:41Z</time>
      </trkpt>
      <trkpt lat="44.85094" lon="6.13586">
        <ele>2053.6</ele>
        <time>2024-08-13T12:42:42Z</time>
      </trkpt>
      <trkpt lat="44.85094" lon="6.13586">
        <ele>2053.6</ele>
        <time>2024-08-13T12:42:43Z</time>
      </trkpt>
      <trkpt lat="44.85092" lon="6.13585">
        <ele>2053.6</ele>
        <time>2024-08-13T12:42:44Z</time>
      </trkpt>
      <trkpt lat="44.85092" lon="6.13585">
        <ele>2053.6</ele>
        <time>2024-08-13T12:42:45Z</time>
      </trkpt>
      <trkpt lat="44.85092" lon="6.13585">
        <ele>2053.8</ele>
        <time>2024-08-13T12:42:46Z</time>
      </trkpt>
      <trkpt lat="44.85089" lon="6.13584">
        <ele>2054</ele>
        <time>2024-08-13T12:42:47Z</time>
      </trkpt>
      <trkpt lat="44.85089" lon="6.13584">
        <ele>2054.2</ele>
        <time>2024-08-13T12:42:48Z</time>
      </trkpt>
      <trkpt lat="44.85087" lon="6.13583">
        <ele>2054.2</ele>
        <time>2024-08-13T12:42:49Z</time>
      </trkpt>
      <trkpt lat="44.85087" lon="6.13583">
        <ele>2054.2</ele>
        <time>2024-08-13T12:42:50Z</time>
      </trkpt>
      <trkpt lat="44.85085" lon="6.13582">
        <ele>2054.4</ele>
        <time>2024-08-13T12:42:51Z</time>
      </trkpt>
      <trkpt lat="44.85085" lon="6.13582">
        <ele>2054.4</ele>
        <time>2024-08-13T12:42:52Z</time>
      </trkpt>
      <trkpt lat="44.85083" lon="6.13581">
        <ele>2054.6</ele>
        <time>2024-08-13T12:42:53Z</time>
      </trkpt>
      <trkpt lat="44.85083" lon="6.13581">
        <ele>2054.4</ele>
        <time>2024-08-13T12:42:54Z</time>
      </trkpt>
      <trkpt lat="44.85081" lon="6.13579">
        <ele>2054.4</ele>
        <time>2024-08-13T12:42:55Z</time>
      </trkpt>
      <trkpt lat="44.85081" lon="6.13579">
        <ele>2054.4</ele>
        <time>2024-08-13T12:42:56Z</time>
      </trkpt>
      <trkpt lat="44.85081" lon="6.13579">
        <ele>2054.6</ele>
        <time>2024-08-13T12:42:57Z</time>
      </trkpt>
      <trkpt lat="44.85078" lon="6.13576">
        <ele>2054.6</ele>
        <time>2024-08-13T12:42:58Z</time>
      </trkpt>
      <trkpt lat="44.85078" lon="6.13576">
        <ele>2054.6</ele>
        <time>2024-08-13T12:42:59Z</time>
      </trkpt>
      <trkpt lat="44.85077" lon="6.13574">
        <ele>2054.6</ele>
        <time>2024-08-13T12:43:00Z</time>
      </trkpt>
      <trkpt lat="44.85077" lon="6.13574">
        <ele>2054.6</ele>
        <time>2024-08-13T12:43:01Z</time>
      </trkpt>
      <trkpt lat="44.85075" lon="6.13573">
        <ele>2054.4</ele>
        <time>2024-08-13T12:43:02Z</time>
      </trkpt>
      <trkpt lat="44.85075" lon="6.13573">
        <ele>2054.4</ele>
        <time>2024-08-13T12:43:03Z</time>
      </trkpt>
      <trkpt lat="44.85073" lon="6.13571">
        <ele>2054.2</ele>
        <time>2024-08-13T12:43:04Z</time>
      </trkpt>
      <trkpt lat="44.85073" lon="6.13571">
        <ele>2054.2</ele>
        <time>2024-08-13T12:43:05Z</time>
      </trkpt>
      <trkpt lat="44.85073" lon="6.13571">
        <ele>2054</ele>
        <time>2024-08-13T12:43:06Z</time>
      </trkpt>
      <trkpt lat="44.85071" lon="6.13569">
        <ele>2053.8</ele>
        <time>2024-08-13T12:43:07Z</time>
      </trkpt>
      <trkpt lat="44.85071" lon="6.13569">
        <ele>2053.6</ele>
        <time>2024-08-13T12:43:08Z</time>
      </trkpt>
      <trkpt lat="44.85071" lon="6.13569">
        <ele>2053.6</ele>
        <time>2024-08-13T12:43:09Z</time>
      </trkpt>
      <trkpt lat="44.85068" lon="6.13568">
        <ele>2053.8</ele>
        <time>2024-08-13T12:43:10Z</time>
      </trkpt>
      <trkpt lat="44.85068" lon="6.13568">
        <ele>2054.2</ele>
        <time>2024-08-13T12:43:11Z</time>
      </trkpt>
      <trkpt lat="44.85066" lon="6.13568">
        <ele>2054.2</ele>
        <time>2024-08-13T12:43:12Z</time>
      </trkpt>
      <trkpt lat="44.85066" lon="6.13568">
        <ele>2054.2</ele>
        <time>2024-08-13T12:43:13Z</time>
      </trkpt>
      <trkpt lat="44.85066" lon="6.13568">
        <ele>2054</ele>
        <time>2024-08-13T12:43:14Z</time>
      </trkpt>
      <trkpt lat="44.85064" lon="6.13566">
        <ele>2053.8</ele>
        <time>2024-08-13T12:43:15Z</time>
      </trkpt>
      <trkpt lat="44.85064" lon="6.13566">
        <ele>2053.6</ele>
        <time>2024-08-13T12:43:16Z</time>
      </trkpt>
      <trkpt lat="44.85062" lon="6.13564">
        <ele>2053.6</ele>
        <time>2024-08-13T12:43:17Z</time>
      </trkpt>
      <trkpt lat="44.85062" lon="6.13564">
        <ele>2053.2</ele>
        <time>2024-08-13T12:43:18Z</time>
      </trkpt>
      <trkpt lat="44.85061" lon="6.13563">
        <ele>2053.2</ele>
        <time>2024-08-13T12:43:19Z</time>
      </trkpt>
      <trkpt lat="44.85061" lon="6.13563">
        <ele>2053.4</ele>
        <time>2024-08-13T12:43:20Z</time>
      </trkpt>
      <trkpt lat="44.85059" lon="6.13561">
        <ele>2053.6</ele>
        <time>2024-08-13T12:43:21Z</time>
      </trkpt>
      <trkpt lat="44.85059" lon="6.13561">
        <ele>2053.6</ele>
        <time>2024-08-13T12:43:22Z</time>
      </trkpt>
      <trkpt lat="44.85058" lon="6.13558">
        <ele>2053.6</ele>
        <time>2024-08-13T12:43:23Z</time>
      </trkpt>
      <trkpt lat="44.85058" lon="6.13558">
        <ele>2053.8</ele>
        <time>2024-08-13T12:43:24Z</time>
      </trkpt>
      <trkpt lat="44.85058" lon="6.13558">
        <ele>2053.6</ele>
        <time>2024-08-13T12:43:25Z</time>
      </trkpt>
      <trkpt lat="44.85056" lon="6.13556">
        <ele>2053.6</ele>
        <time>2024-08-13T12:43:26Z</time>
      </trkpt>
      <trkpt lat="44.85056" lon="6.13556">
        <ele>2054</ele>
        <time>2024-08-13T12:43:27Z</time>
      </trkpt>
      <trkpt lat="44.85056" lon="6.13556">
        <ele>2054</ele>
        <time>2024-08-13T12:43:28Z</time>
      </trkpt>
      <trkpt lat="44.85053" lon="6.13554">
        <ele>2054</ele>
        <time>2024-08-13T12:43:29Z</time>
      </trkpt>
      <trkpt lat="44.85053" lon="6.13554">
        <ele>2054.2</ele>
        <time>2024-08-13T12:43:30Z</time>
      </trkpt>
      <trkpt lat="44.8505" lon="6.13553">
        <ele>2054.2</ele>
        <time>2024-08-13T12:43:31Z</time>
      </trkpt>
      <trkpt lat="44.8505" lon="6.13553">
        <ele>2054.4</ele>
        <time>2024-08-13T12:43:32Z</time>
      </trkpt>
      <trkpt lat="44.85048" lon="6.13551">
        <ele>2054.6</ele>
        <time>2024-08-13T12:43:33Z</time>
      </trkpt>
      <trkpt lat="44.85048" lon="6.13551">
        <ele>2054.8</ele>
        <time>2024-08-13T12:43:34Z</time>
      </trkpt>
      <trkpt lat="44.85047" lon="6.1355">
        <ele>2054.8</ele>
        <time>2024-08-13T12:43:35Z</time>
      </trkpt>
      <trkpt lat="44.85047" lon="6.1355">
        <ele>2054.2</ele>
        <time>2024-08-13T12:43:36Z</time>
      </trkpt>
      <trkpt lat="44.85045" lon="6.13548">
        <ele>2054</ele>
        <time>2024-08-13T12:43:37Z</time>
      </trkpt>
      <trkpt lat="44.85045" lon="6.13548">
        <ele>2053.6</ele>
        <time>2024-08-13T12:43:38Z</time>
      </trkpt>
      <trkpt lat="44.85045" lon="6.13548">
        <ele>2053.6</ele>
        <time>2024-08-13T12:43:39Z</time>
      </trkpt>
      <trkpt lat="44.85044" lon="6.13546">
        <ele>2054.2</ele>
        <time>2024-08-13T12:43:40Z</time>
      </trkpt>
      <trkpt lat="44.85044" lon="6.13546">
        <ele>2054.6</ele>
        <time>2024-08-13T12:43:41Z</time>
      </trkpt>
      <trkpt lat="44.85043" lon="6.13543">
        <ele>2055.4</ele>
        <time>2024-08-13T12:43:42Z</time>
      </trkpt>
      <trkpt lat="44.85043" lon="6.13543">
        <ele>2055.4</ele>
        <time>2024-08-13T12:43:43Z</time>
      </trkpt>
      <trkpt lat="44.85044" lon="6.1354">
        <ele>2055.8</ele>
        <time>2024-08-13T12:43:44Z</time>
      </trkpt>
      <trkpt lat="44.85044" lon="6.1354">
        <ele>2056.8</ele>
        <time>2024-08-13T12:43:45Z</time>
      </trkpt>
      <trkpt lat="44.85044" lon="6.1354">
        <ele>2057</ele>
        <time>2024-08-13T12:43:46Z</time>
      </trkpt>
      <trkpt lat="44.85045" lon="6.13537">
        <ele>2057.8</ele>
        <time>2024-08-13T12:43:47Z</time>
      </trkpt>
      <trkpt lat="44.85045" lon="6.13537">
        <ele>2058</ele>
        <time>2024-08-13T12:43:48Z</time>
      </trkpt>
      <trkpt lat="44.85046" lon="6.13535">
        <ele>2058.2</ele>
        <time>2024-08-13T12:43:49Z</time>
      </trkpt>
      <trkpt lat="44.85046" lon="6.13535">
        <ele>2058.4</ele>
        <time>2024-08-13T12:43:50Z</time>
      </trkpt>
      <trkpt lat="44.85046" lon="6.13535">
        <ele>2058.6</ele>
        <time>2024-08-13T12:43:51Z</time>
      </trkpt>
      <trkpt lat="44.85046" lon="6.13531">
        <ele>2058.6</ele>
        <time>2024-08-13T12:43:52Z</time>
      </trkpt>
      <trkpt lat="44.85046" lon="6.13531">
        <ele>2058.6</ele>
        <time>2024-08-13T12:43:53Z</time>
      </trkpt>
      <trkpt lat="44.85046" lon="6.13529">
        <ele>2058.6</ele>
        <time>2024-08-13T12:43:54Z</time>
      </trkpt>
      <trkpt lat="44.85046" lon="6.13529">
        <ele>2058.2</ele>
        <time>2024-08-13T12:43:55Z</time>
      </trkpt>
      <trkpt lat="44.85046" lon="6.13526">
        <ele>2058</ele>
        <time>2024-08-13T12:43:56Z</time>
      </trkpt>
      <trkpt lat="44.85046" lon="6.13526">
        <ele>2058</ele>
        <time>2024-08-13T12:43:57Z</time>
      </trkpt>
      <trkpt lat="44.85046" lon="6.13526">
        <ele>2058</ele>
        <time>2024-08-13T12:43:58Z</time>
      </trkpt>
      <trkpt lat="44.85046" lon="6.13522">
        <ele>2058.2</ele>
        <time>2024-08-13T12:43:59Z</time>
      </trkpt>
      <trkpt lat="44.85046" lon="6.13522">
        <ele>2058.4</ele>
        <time>2024-08-13T12:44:00Z</time>
      </trkpt>
      <trkpt lat="44.85045" lon="6.13518">
        <ele>2058.4</ele>
        <time>2024-08-13T12:44:01Z</time>
      </trkpt>
      <trkpt lat="44.85045" lon="6.13518">
        <ele>2058.2</ele>
        <time>2024-08-13T12:44:02Z</time>
      </trkpt>
      <trkpt lat="44.85044" lon="6.13515">
        <ele>2058.2</ele>
        <time>2024-08-13T12:44:03Z</time>
      </trkpt>
      <trkpt lat="44.85044" lon="6.13515">
        <ele>2058.4</ele>
        <time>2024-08-13T12:44:04Z</time>
      </trkpt>
      <trkpt lat="44.85043" lon="6.13512">
        <ele>2058.6</ele>
        <time>2024-08-13T12:44:05Z</time>
      </trkpt>
      <trkpt lat="44.85043" lon="6.13512">
        <ele>2058.6</ele>
        <time>2024-08-13T12:44:06Z</time>
      </trkpt>
      <trkpt lat="44.85043" lon="6.1351">
        <ele>2058.8</ele>
        <time>2024-08-13T12:44:07Z</time>
      </trkpt>
      <trkpt lat="44.85043" lon="6.1351">
        <ele>2058.8</ele>
        <time>2024-08-13T12:44:08Z</time>
      </trkpt>
      <trkpt lat="44.85042" lon="6.13507">
        <ele>2058.8</ele>
        <time>2024-08-13T12:44:09Z</time>
      </trkpt>
      <trkpt lat="44.85042" lon="6.13507">
        <ele>2058.6</ele>
        <time>2024-08-13T12:44:10Z</time>
      </trkpt>
      <trkpt lat="44.85041" lon="6.13504">
        <ele>2058.6</ele>
        <time>2024-08-13T12:44:11Z</time>
      </trkpt>
      <trkpt lat="44.85041" lon="6.13504">
        <ele>2058.6</ele>
        <time>2024-08-13T12:44:12Z</time>
      </trkpt>
      <trkpt lat="44.85041" lon="6.13501">
        <ele>2059.2</ele>
        <time>2024-08-13T12:44:13Z</time>
      </trkpt>
      <trkpt lat="44.85041" lon="6.13501">
        <ele>2059.2</ele>
        <time>2024-08-13T12:44:14Z</time>
      </trkpt>
      <trkpt lat="44.85041" lon="6.13501">
        <ele>2059.2</ele>
        <time>2024-08-13T12:44:15Z</time>
      </trkpt>
      <trkpt lat="44.85038" lon="6.13499">
        <ele>2059.2</ele>
        <time>2024-08-13T12:44:16Z</time>
      </trkpt>
      <trkpt lat="44.85038" lon="6.13499">
        <ele>2059.4</ele>
        <time>2024-08-13T12:44:17Z</time>
      </trkpt>
      <trkpt lat="44.85038" lon="6.13499">
        <ele>2059.6</ele>
        <time>2024-08-13T12:44:18Z</time>
      </trkpt>
      <trkpt lat="44.85035" lon="6.13497">
        <ele>2059.8</ele>
        <time>2024-08-13T12:44:19Z</time>
      </trkpt>
      <trkpt lat="44.85035" lon="6.13497">
        <ele>2059.8</ele>
        <time>2024-08-13T12:44:20Z</time>
      </trkpt>
      <trkpt lat="44.85035" lon="6.13497">
        <ele>2060</ele>
        <time>2024-08-13T12:44:21Z</time>
      </trkpt>
      <trkpt lat="44.85033" lon="6.13497">
        <ele>2060</ele>
        <time>2024-08-13T12:44:22Z</time>
      </trkpt>
      <trkpt lat="44.85033" lon="6.13497">
        <ele>2059.6</ele>
        <time>2024-08-13T12:44:23Z</time>
      </trkpt>
      <trkpt lat="44.85033" lon="6.13497">
        <ele>2059.4</ele>
        <time>2024-08-13T12:44:24Z</time>
      </trkpt>
      <trkpt lat="44.8503" lon="6.13497">
        <ele>2059.4</ele>
        <time>2024-08-13T12:44:25Z</time>
      </trkpt>
      <trkpt lat="44.8503" lon="6.13497">
        <ele>2059.4</ele>
        <time>2024-08-13T12:44:26Z</time>
      </trkpt>
      <trkpt lat="44.85029" lon="6.13498">
        <ele>2059.4</ele>
        <time>2024-08-13T12:44:27Z</time>
      </trkpt>
      <trkpt lat="44.85029" lon="6.13498">
        <ele>2059.8</ele>
        <time>2024-08-13T12:44:28Z</time>
      </trkpt>
      <trkpt lat="44.85027" lon="6.13498">
        <ele>2059.8</ele>
        <time>2024-08-13T12:44:29Z</time>
      </trkpt>
      <trkpt lat="44.85027" lon="6.13498">
        <ele>2059.4</ele>
        <time>2024-08-13T12:44:30Z</time>
      </trkpt>
      <trkpt lat="44.85025" lon="6.13498">
        <ele>2059.4</ele>
        <time>2024-08-13T12:44:31Z</time>
      </trkpt>
      <trkpt lat="44.85025" lon="6.13498">
        <ele>2059.8</ele>
        <time>2024-08-13T12:44:32Z</time>
      </trkpt>
      <trkpt lat="44.85022" lon="6.13498">
        <ele>2060</ele>
        <time>2024-08-13T12:44:33Z</time>
      </trkpt>
      <trkpt lat="44.85022" lon="6.13498">
        <ele>2060.2</ele>
        <time>2024-08-13T12:44:34Z</time>
      </trkpt>
      <trkpt lat="44.8502" lon="6.13497">
        <ele>2060.2</ele>
        <time>2024-08-13T12:44:35Z</time>
      </trkpt>
      <trkpt lat="44.8502" lon="6.13497">
        <ele>2060.4</ele>
        <time>2024-08-13T12:44:36Z</time>
      </trkpt>
      <trkpt lat="44.85017" lon="6.13497">
        <ele>2060.4</ele>
        <time>2024-08-13T12:44:37Z</time>
      </trkpt>
      <trkpt lat="44.85017" lon="6.13497">
        <ele>2060.4</ele>
        <time>2024-08-13T12:44:38Z</time>
      </trkpt>
      <trkpt lat="44.85015" lon="6.13496">
        <ele>2060.2</ele>
        <time>2024-08-13T12:44:39Z</time>
      </trkpt>
      <trkpt lat="44.85015" lon="6.13496">
        <ele>2060</ele>
        <time>2024-08-13T12:44:40Z</time>
      </trkpt>
      <trkpt lat="44.85013" lon="6.13495">
        <ele>2060</ele>
        <time>2024-08-13T12:44:41Z</time>
      </trkpt>
      <trkpt lat="44.85013" lon="6.13495">
        <ele>2060</ele>
        <time>2024-08-13T12:44:42Z</time>
      </trkpt>
      <trkpt lat="44.85011" lon="6.13492">
        <ele>2059.8</ele>
        <time>2024-08-13T12:44:43Z</time>
      </trkpt>
      <trkpt lat="44.85011" lon="6.13492">
        <ele>2059.6</ele>
        <time>2024-08-13T12:44:44Z</time>
      </trkpt>
      <trkpt lat="44.85009" lon="6.1349">
        <ele>2059.6</ele>
        <time>2024-08-13T12:44:45Z</time>
      </trkpt>
      <trkpt lat="44.85009" lon="6.1349">
        <ele>2059.4</ele>
        <time>2024-08-13T12:44:46Z</time>
      </trkpt>
      <trkpt lat="44.85007" lon="6.13488">
        <ele>2059.4</ele>
        <time>2024-08-13T12:44:47Z</time>
      </trkpt>
      <trkpt lat="44.85007" lon="6.13488">
        <ele>2059.4</ele>
        <time>2024-08-13T12:44:48Z</time>
      </trkpt>
      <trkpt lat="44.85005" lon="6.13486">
        <ele>2059.6</ele>
        <time>2024-08-13T12:44:49Z</time>
      </trkpt>
      <trkpt lat="44.85005" lon="6.13486">
        <ele>2060.2</ele>
        <time>2024-08-13T12:44:50Z</time>
      </trkpt>
      <trkpt lat="44.85003" lon="6.13484">
        <ele>2060.6</ele>
        <time>2024-08-13T12:44:51Z</time>
      </trkpt>
      <trkpt lat="44.85003" lon="6.13484">
        <ele>2060.8</ele>
        <time>2024-08-13T12:44:52Z</time>
      </trkpt>
      <trkpt lat="44.85001" lon="6.13482">
        <ele>2060.8</ele>
        <time>2024-08-13T12:44:53Z</time>
      </trkpt>
      <trkpt lat="44.85001" lon="6.13482">
        <ele>2060.8</ele>
        <time>2024-08-13T12:44:54Z</time>
      </trkpt>
      <trkpt lat="44.84999" lon="6.1348">
        <ele>2060.8</ele>
        <time>2024-08-13T12:44:55Z</time>
      </trkpt>
      <trkpt lat="44.84999" lon="6.1348">
        <ele>2060.8</ele>
        <time>2024-08-13T12:44:56Z</time>
      </trkpt>
      <trkpt lat="44.84997" lon="6.13479">
        <ele>2061</ele>
        <time>2024-08-13T12:44:57Z</time>
      </trkpt>
      <trkpt lat="44.84997" lon="6.13479">
        <ele>2061</ele>
        <time>2024-08-13T12:44:58Z</time>
      </trkpt>
      <trkpt lat="44.84994" lon="6.13479">
        <ele>2061</ele>
        <time>2024-08-13T12:44:59Z</time>
      </trkpt>
      <trkpt lat="44.84994" lon="6.13479">
        <ele>2061.2</ele>
        <time>2024-08-13T12:45:00Z</time>
      </trkpt>
      <trkpt lat="44.84991" lon="6.13478">
        <ele>2061.4</ele>
        <time>2024-08-13T12:45:01Z</time>
      </trkpt>
      <trkpt lat="44.84991" lon="6.13478">
        <ele>2061.4</ele>
        <time>2024-08-13T12:45:02Z</time>
      </trkpt>
      <trkpt lat="44.84989" lon="6.13479">
        <ele>2061.4</ele>
        <time>2024-08-13T12:45:03Z</time>
      </trkpt>
      <trkpt lat="44.84989" lon="6.13479">
        <ele>2060.8</ele>
        <time>2024-08-13T12:45:04Z</time>
      </trkpt>
      <trkpt lat="44.84985" lon="6.13479">
        <ele>2060.6</ele>
        <time>2024-08-13T12:45:05Z</time>
      </trkpt>
      <trkpt lat="44.84985" lon="6.13479">
        <ele>2060.4</ele>
        <time>2024-08-13T12:45:06Z</time>
      </trkpt>
      <trkpt lat="44.84983" lon="6.13478">
        <ele>2059.8</ele>
        <time>2024-08-13T12:45:07Z</time>
      </trkpt>
      <trkpt lat="44.84983" lon="6.13478">
        <ele>2059.8</ele>
        <time>2024-08-13T12:45:08Z</time>
      </trkpt>
      <trkpt lat="44.84981" lon="6.13477">
        <ele>2060</ele>
        <time>2024-08-13T12:45:09Z</time>
      </trkpt>
      <trkpt lat="44.84979" lon="6.13476">
        <ele>2060</ele>
        <time>2024-08-13T12:45:10Z</time>
      </trkpt>
      <trkpt lat="44.84979" lon="6.13476">
        <ele>2059.6</ele>
        <time>2024-08-13T12:45:11Z</time>
      </trkpt>
      <trkpt lat="44.84977" lon="6.13473">
        <ele>2059.6</ele>
        <time>2024-08-13T12:45:12Z</time>
      </trkpt>
      <trkpt lat="44.84977" lon="6.13473">
        <ele>2059.8</ele>
        <time>2024-08-13T12:45:13Z</time>
      </trkpt>
      <trkpt lat="44.84977" lon="6.13469">
        <ele>2059.8</ele>
        <time>2024-08-13T12:45:14Z</time>
      </trkpt>
      <trkpt lat="44.84977" lon="6.13469">
        <ele>2059.8</ele>
        <time>2024-08-13T12:45:15Z</time>
      </trkpt>
      <trkpt lat="44.84977" lon="6.13465">
        <ele>2059.8</ele>
        <time>2024-08-13T12:45:16Z</time>
      </trkpt>
      <trkpt lat="44.84977" lon="6.13465">
        <ele>2059.8</ele>
        <time>2024-08-13T12:45:17Z</time>
      </trkpt>
      <trkpt lat="44.84977" lon="6.13461">
        <ele>2059.8</ele>
        <time>2024-08-13T12:45:18Z</time>
      </trkpt>
      <trkpt lat="44.84977" lon="6.13461">
        <ele>2059.8</ele>
        <time>2024-08-13T12:45:19Z</time>
      </trkpt>
      <trkpt lat="44.84976" lon="6.13458">
        <ele>2059.6</ele>
        <time>2024-08-13T12:45:20Z</time>
      </trkpt>
      <trkpt lat="44.84976" lon="6.13458">
        <ele>2059.4</ele>
        <time>2024-08-13T12:45:21Z</time>
      </trkpt>
      <trkpt lat="44.84974" lon="6.13455">
        <ele>2059.2</ele>
        <time>2024-08-13T12:45:22Z</time>
      </trkpt>
      <trkpt lat="44.84973" lon="6.13453">
        <ele>2059.2</ele>
        <time>2024-08-13T12:45:23Z</time>
      </trkpt>
      <trkpt lat="44.84973" lon="6.13453">
        <ele>2059.2</ele>
        <time>2024-08-13T12:45:24Z</time>
      </trkpt>
      <trkpt lat="44.84972" lon="6.13451">
        <ele>2059.2</ele>
        <time>2024-08-13T12:45:25Z</time>
      </trkpt>
      <trkpt lat="44.84972" lon="6.13451">
        <ele>2059.2</ele>
        <time>2024-08-13T12:45:26Z</time>
      </trkpt>
      <trkpt lat="44.8497" lon="6.13448">
        <ele>2059</ele>
        <time>2024-08-13T12:45:27Z</time>
      </trkpt>
      <trkpt lat="44.8497" lon="6.13448">
        <ele>2058.8</ele>
        <time>2024-08-13T12:45:28Z</time>
      </trkpt>
      <trkpt lat="44.84969" lon="6.13445">
        <ele>2058.8</ele>
        <time>2024-08-13T12:45:29Z</time>
      </trkpt>
      <trkpt lat="44.84969" lon="6.13445">
        <ele>2058.6</ele>
        <time>2024-08-13T12:45:30Z</time>
      </trkpt>
      <trkpt lat="44.84969" lon="6.13441">
        <ele>2058.6</ele>
        <time>2024-08-13T12:45:31Z</time>
      </trkpt>
      <trkpt lat="44.84969" lon="6.13441">
        <ele>2058.4</ele>
        <time>2024-08-13T12:45:32Z</time>
      </trkpt>
      <trkpt lat="44.84969" lon="6.13438">
        <ele>2058.4</ele>
        <time>2024-08-13T12:45:33Z</time>
      </trkpt>
      <trkpt lat="44.84969" lon="6.13438">
        <ele>2058.4</ele>
        <time>2024-08-13T12:45:34Z</time>
      </trkpt>
      <trkpt lat="44.84969" lon="6.13435">
        <ele>2058.2</ele>
        <time>2024-08-13T12:45:35Z</time>
      </trkpt>
      <trkpt lat="44.84969" lon="6.13435">
        <ele>2058.2</ele>
        <time>2024-08-13T12:45:36Z</time>
      </trkpt>
      <trkpt lat="44.8497" lon="6.13432">
        <ele>2058.2</ele>
        <time>2024-08-13T12:45:37Z</time>
      </trkpt>
      <trkpt lat="44.8497" lon="6.13432">
        <ele>2058.2</ele>
        <time>2024-08-13T12:45:38Z</time>
      </trkpt>
      <trkpt lat="44.8497" lon="6.13432">
        <ele>2058.2</ele>
        <time>2024-08-13T12:45:39Z</time>
      </trkpt>
      <trkpt lat="44.84971" lon="6.13429">
        <ele>2058.4</ele>
        <time>2024-08-13T12:45:40Z</time>
      </trkpt>
      <trkpt lat="44.84971" lon="6.13429">
        <ele>2058.4</ele>
        <time>2024-08-13T12:45:41Z</time>
      </trkpt>
      <trkpt lat="44.84971" lon="6.13429">
        <ele>2058.2</ele>
        <time>2024-08-13T12:45:42Z</time>
      </trkpt>
      <trkpt lat="44.8497" lon="6.13425">
        <ele>2057.8</ele>
        <time>2024-08-13T12:45:43Z</time>
      </trkpt>
      <trkpt lat="44.8497" lon="6.13425">
        <ele>2057.8</ele>
        <time>2024-08-13T12:45:44Z</time>
      </trkpt>
      <trkpt lat="44.8497" lon="6.13425">
        <ele>2057.8</ele>
        <time>2024-08-13T12:45:45Z</time>
      </trkpt>
      <trkpt lat="44.84969" lon="6.13422">
        <ele>2057.6</ele>
        <time>2024-08-13T12:45:46Z</time>
      </trkpt>
      <trkpt lat="44.84969" lon="6.13422">
        <ele>2057.2</ele>
        <time>2024-08-13T12:45:47Z</time>
      </trkpt>
      <trkpt lat="44.84967" lon="6.13422">
        <ele>2057.4</ele>
        <time>2024-08-13T12:45:48Z</time>
      </trkpt>
      <trkpt lat="44.84967" lon="6.13422">
        <ele>2057.4</ele>
        <time>2024-08-13T12:45:49Z</time>
      </trkpt>
      <trkpt lat="44.84965" lon="6.13421">
        <ele>2057.2</ele>
        <time>2024-08-13T12:45:50Z</time>
      </trkpt>
      <trkpt lat="44.84965" lon="6.13421">
        <ele>2057</ele>
        <time>2024-08-13T12:45:51Z</time>
      </trkpt>
      <trkpt lat="44.84962" lon="6.13421">
        <ele>2057</ele>
        <time>2024-08-13T12:45:52Z</time>
      </trkpt>
      <trkpt lat="44.84962" lon="6.13421">
        <ele>2056.8</ele>
        <time>2024-08-13T12:45:53Z</time>
      </trkpt>
      <trkpt lat="44.8496" lon="6.13421">
        <ele>2056.8</ele>
        <time>2024-08-13T12:45:54Z</time>
      </trkpt>
      <trkpt lat="44.8496" lon="6.13421">
        <ele>2057</ele>
        <time>2024-08-13T12:45:55Z</time>
      </trkpt>
      <trkpt lat="44.84958" lon="6.1342">
        <ele>2057.2</ele>
        <time>2024-08-13T12:45:56Z</time>
      </trkpt>
      <trkpt lat="44.84958" lon="6.1342">
        <ele>2057.2</ele>
        <time>2024-08-13T12:45:57Z</time>
      </trkpt>
      <trkpt lat="44.84956" lon="6.13419">
        <ele>2057.2</ele>
        <time>2024-08-13T12:45:58Z</time>
      </trkpt>
      <trkpt lat="44.84956" lon="6.13419">
        <ele>2057.2</ele>
        <time>2024-08-13T12:45:59Z</time>
      </trkpt>
      <trkpt lat="44.84954" lon="6.13419">
        <ele>2057</ele>
        <time>2024-08-13T12:46:00Z</time>
      </trkpt>
      <trkpt lat="44.84954" lon="6.13419">
        <ele>2057</ele>
        <time>2024-08-13T12:46:01Z</time>
      </trkpt>
      <trkpt lat="44.84952" lon="6.13418">
        <ele>2057.8</ele>
        <time>2024-08-13T12:46:02Z</time>
      </trkpt>
      <trkpt lat="44.84952" lon="6.13418">
        <ele>2057.8</ele>
        <time>2024-08-13T12:46:03Z</time>
      </trkpt>
      <trkpt lat="44.8495" lon="6.13417">
        <ele>2057.8</ele>
        <time>2024-08-13T12:46:04Z</time>
      </trkpt>
      <trkpt lat="44.8495" lon="6.13417">
        <ele>2057.8</ele>
        <time>2024-08-13T12:46:05Z</time>
      </trkpt>
      <trkpt lat="44.84948" lon="6.13416">
        <ele>2057.8</ele>
        <time>2024-08-13T12:46:06Z</time>
      </trkpt>
      <trkpt lat="44.84948" lon="6.13416">
        <ele>2057.8</ele>
        <time>2024-08-13T12:46:07Z</time>
      </trkpt>
      <trkpt lat="44.84946" lon="6.13413">
        <ele>2058</ele>
        <time>2024-08-13T12:46:08Z</time>
      </trkpt>
      <trkpt lat="44.84946" lon="6.13413">
        <ele>2058</ele>
        <time>2024-08-13T12:46:09Z</time>
      </trkpt>
      <trkpt lat="44.84945" lon="6.1341">
        <ele>2058.2</ele>
        <time>2024-08-13T12:46:10Z</time>
      </trkpt>
      <trkpt lat="44.84945" lon="6.1341">
        <ele>2058.2</ele>
        <time>2024-08-13T12:46:11Z</time>
      </trkpt>
      <trkpt lat="44.84945" lon="6.13407">
        <ele>2058.2</ele>
        <time>2024-08-13T12:46:12Z</time>
      </trkpt>
      <trkpt lat="44.84945" lon="6.13407">
        <ele>2058.2</ele>
        <time>2024-08-13T12:46:13Z</time>
      </trkpt>
      <trkpt lat="44.84945" lon="6.13403">
        <ele>2058.2</ele>
        <time>2024-08-13T12:46:14Z</time>
      </trkpt>
      <trkpt lat="44.84945" lon="6.13403">
        <ele>2058.2</ele>
        <time>2024-08-13T12:46:15Z</time>
      </trkpt>
      <trkpt lat="44.84944" lon="6.13399">
        <ele>2058.2</ele>
        <time>2024-08-13T12:46:16Z</time>
      </trkpt>
      <trkpt lat="44.84944" lon="6.13399">
        <ele>2058.4</ele>
        <time>2024-08-13T12:46:17Z</time>
      </trkpt>
      <trkpt lat="44.84943" lon="6.13396">
        <ele>2058.4</ele>
        <time>2024-08-13T12:46:18Z</time>
      </trkpt>
      <trkpt lat="44.84943" lon="6.13396">
        <ele>2058.6</ele>
        <time>2024-08-13T12:46:19Z</time>
      </trkpt>
      <trkpt lat="44.84943" lon="6.13396">
        <ele>2058.6</ele>
        <time>2024-08-13T12:46:20Z</time>
      </trkpt>
      <trkpt lat="44.84941" lon="6.13393">
        <ele>2058.8</ele>
        <time>2024-08-13T12:46:21Z</time>
      </trkpt>
      <trkpt lat="44.84941" lon="6.13393">
        <ele>2058.8</ele>
        <time>2024-08-13T12:46:22Z</time>
      </trkpt>
      <trkpt lat="44.8494" lon="6.13391">
        <ele>2058.8</ele>
        <time>2024-08-13T12:46:23Z</time>
      </trkpt>
      <trkpt lat="44.8494" lon="6.13391">
        <ele>2058.8</ele>
        <time>2024-08-13T12:46:24Z</time>
      </trkpt>
      <trkpt lat="44.84939" lon="6.13389">
        <ele>2058.8</ele>
        <time>2024-08-13T12:46:25Z</time>
      </trkpt>
      <trkpt lat="44.84939" lon="6.13389">
        <ele>2059.2</ele>
        <time>2024-08-13T12:46:26Z</time>
      </trkpt>
      <trkpt lat="44.84938" lon="6.13387">
        <ele>2059.4</ele>
        <time>2024-08-13T12:46:27Z</time>
      </trkpt>
      <trkpt lat="44.84938" lon="6.13387">
        <ele>2059.4</ele>
        <time>2024-08-13T12:46:28Z</time>
      </trkpt>
      <trkpt lat="44.84937" lon="6.13385">
        <ele>2059.4</ele>
        <time>2024-08-13T12:46:29Z</time>
      </trkpt>
      <trkpt lat="44.84937" lon="6.13385">
        <ele>2059</ele>
        <time>2024-08-13T12:46:30Z</time>
      </trkpt>
      <trkpt lat="44.84935" lon="6.13381">
        <ele>2059</ele>
        <time>2024-08-13T12:46:31Z</time>
      </trkpt>
      <trkpt lat="44.84935" lon="6.13381">
        <ele>2059</ele>
        <time>2024-08-13T12:46:32Z</time>
      </trkpt>
      <trkpt lat="44.84933" lon="6.13379">
        <ele>2059.2</ele>
        <time>2024-08-13T12:46:33Z</time>
      </trkpt>
      <trkpt lat="44.84933" lon="6.13379">
        <ele>2059.4</ele>
        <time>2024-08-13T12:46:34Z</time>
      </trkpt>
      <trkpt lat="44.84932" lon="6.13376">
        <ele>2059.6</ele>
        <time>2024-08-13T12:46:35Z</time>
      </trkpt>
      <trkpt lat="44.84932" lon="6.13376">
        <ele>2059.4</ele>
        <time>2024-08-13T12:46:36Z</time>
      </trkpt>
      <trkpt lat="44.8493" lon="6.13374">
        <ele>2059.6</ele>
        <time>2024-08-13T12:46:37Z</time>
      </trkpt>
      <trkpt lat="44.8493" lon="6.13374">
        <ele>2059.6</ele>
        <time>2024-08-13T12:46:38Z</time>
      </trkpt>
      <trkpt lat="44.84929" lon="6.13371">
        <ele>2059.6</ele>
        <time>2024-08-13T12:46:39Z</time>
      </trkpt>
      <trkpt lat="44.84929" lon="6.13371">
        <ele>2059.2</ele>
        <time>2024-08-13T12:46:40Z</time>
      </trkpt>
      <trkpt lat="44.84927" lon="6.1337">
        <ele>2059.2</ele>
        <time>2024-08-13T12:46:41Z</time>
      </trkpt>
      <trkpt lat="44.84927" lon="6.1337">
        <ele>2059.4</ele>
        <time>2024-08-13T12:46:42Z</time>
      </trkpt>
      <trkpt lat="44.84924" lon="6.13369">
        <ele>2059.8</ele>
        <time>2024-08-13T12:46:43Z</time>
      </trkpt>
      <trkpt lat="44.84924" lon="6.13369">
        <ele>2059.8</ele>
        <time>2024-08-13T12:46:44Z</time>
      </trkpt>
      <trkpt lat="44.84924" lon="6.13369">
        <ele>2059.4</ele>
        <time>2024-08-13T12:46:45Z</time>
      </trkpt>
      <trkpt lat="44.84922" lon="6.13367">
        <ele>2059.4</ele>
        <time>2024-08-13T12:46:46Z</time>
      </trkpt>
      <trkpt lat="44.84922" lon="6.13367">
        <ele>2059.8</ele>
        <time>2024-08-13T12:46:47Z</time>
      </trkpt>
      <trkpt lat="44.84921" lon="6.13365">
        <ele>2059.8</ele>
        <time>2024-08-13T12:46:48Z</time>
      </trkpt>
      <trkpt lat="44.84921" lon="6.13365">
        <ele>2059.8</ele>
        <time>2024-08-13T12:46:49Z</time>
      </trkpt>
      <trkpt lat="44.84919" lon="6.13363">
        <ele>2059.8</ele>
        <time>2024-08-13T12:46:50Z</time>
      </trkpt>
      <trkpt lat="44.84919" lon="6.13363">
        <ele>2059.8</ele>
        <time>2024-08-13T12:46:51Z</time>
      </trkpt>
      <trkpt lat="44.84918" lon="6.1336">
        <ele>2059.8</ele>
        <time>2024-08-13T12:46:52Z</time>
      </trkpt>
      <trkpt lat="44.84918" lon="6.1336">
        <ele>2060</ele>
        <time>2024-08-13T12:46:53Z</time>
      </trkpt>
      <trkpt lat="44.84917" lon="6.13357">
        <ele>2060</ele>
        <time>2024-08-13T12:46:54Z</time>
      </trkpt>
      <trkpt lat="44.84917" lon="6.13357">
        <ele>2060.4</ele>
        <time>2024-08-13T12:46:55Z</time>
      </trkpt>
      <trkpt lat="44.84916" lon="6.13354">
        <ele>2060.6</ele>
        <time>2024-08-13T12:46:56Z</time>
      </trkpt>
      <trkpt lat="44.84916" lon="6.13354">
        <ele>2060.8</ele>
        <time>2024-08-13T12:46:57Z</time>
      </trkpt>
      <trkpt lat="44.84914" lon="6.13352">
        <ele>2060.8</ele>
        <time>2024-08-13T12:46:58Z</time>
      </trkpt>
      <trkpt lat="44.84914" lon="6.13352">
        <ele>2060.6</ele>
        <time>2024-08-13T12:46:59Z</time>
      </trkpt>
      <trkpt lat="44.84913" lon="6.13349">
        <ele>2060.4</ele>
        <time>2024-08-13T12:47:00Z</time>
      </trkpt>
      <trkpt lat="44.84913" lon="6.13349">
        <ele>2060.4</ele>
        <time>2024-08-13T12:47:01Z</time>
      </trkpt>
      <trkpt lat="44.84913" lon="6.13345">
        <ele>2060.4</ele>
        <time>2024-08-13T12:47:02Z</time>
      </trkpt>
      <trkpt lat="44.84913" lon="6.13345">
        <ele>2060.4</ele>
        <time>2024-08-13T12:47:03Z</time>
      </trkpt>
      <trkpt lat="44.84912" lon="6.13342">
        <ele>2060.4</ele>
        <time>2024-08-13T12:47:04Z</time>
      </trkpt>
      <trkpt lat="44.84912" lon="6.13342">
        <ele>2060.4</ele>
        <time>2024-08-13T12:47:05Z</time>
      </trkpt>
      <trkpt lat="44.84912" lon="6.13339">
        <ele>2060.4</ele>
        <time>2024-08-13T12:47:06Z</time>
      </trkpt>
      <trkpt lat="44.84912" lon="6.13339">
        <ele>2060.2</ele>
        <time>2024-08-13T12:47:07Z</time>
      </trkpt>
      <trkpt lat="44.84912" lon="6.13335">
        <ele>2060.2</ele>
        <time>2024-08-13T12:47:08Z</time>
      </trkpt>
      <trkpt lat="44.84912" lon="6.13335">
        <ele>2060.2</ele>
        <time>2024-08-13T12:47:09Z</time>
      </trkpt>
      <trkpt lat="44.84912" lon="6.13332">
        <ele>2060.4</ele>
        <time>2024-08-13T12:47:10Z</time>
      </trkpt>
      <trkpt lat="44.84912" lon="6.13332">
        <ele>2060.4</ele>
        <time>2024-08-13T12:47:11Z</time>
      </trkpt>
      <trkpt lat="44.84912" lon="6.13332">
        <ele>2060.2</ele>
        <time>2024-08-13T12:47:12Z</time>
      </trkpt>
      <trkpt lat="44.8491" lon="6.13329">
        <ele>2060.2</ele>
        <time>2024-08-13T12:47:13Z</time>
      </trkpt>
      <trkpt lat="44.8491" lon="6.13329">
        <ele>2060.2</ele>
        <time>2024-08-13T12:47:14Z</time>
      </trkpt>
      <trkpt lat="44.8491" lon="6.13326">
        <ele>2060.2</ele>
        <time>2024-08-13T12:47:15Z</time>
      </trkpt>
      <trkpt lat="44.8491" lon="6.13326">
        <ele>2060.4</ele>
        <time>2024-08-13T12:47:16Z</time>
      </trkpt>
      <trkpt lat="44.84911" lon="6.13324">
        <ele>2060.4</ele>
        <time>2024-08-13T12:47:17Z</time>
      </trkpt>
      <trkpt lat="44.84911" lon="6.13324">
        <ele>2060.4</ele>
        <time>2024-08-13T12:47:18Z</time>
      </trkpt>
      <trkpt lat="44.84911" lon="6.13324">
        <ele>2060.4</ele>
        <time>2024-08-13T12:47:19Z</time>
      </trkpt>
      <trkpt lat="44.84911" lon="6.13321">
        <ele>2060.4</ele>
        <time>2024-08-13T12:47:20Z</time>
      </trkpt>
      <trkpt lat="44.84911" lon="6.13321">
        <ele>2060.2</ele>
        <time>2024-08-13T12:47:21Z</time>
      </trkpt>
      <trkpt lat="44.84911" lon="6.13321">
        <ele>2060.4</ele>
        <time>2024-08-13T12:47:22Z</time>
      </trkpt>
      <trkpt lat="44.84911" lon="6.13321">
        <ele>2060.2</ele>
        <time>2024-08-13T12:47:23Z</time>
      </trkpt>
      <trkpt lat="44.84911" lon="6.13321">
        <ele>2060.2</ele>
        <time>2024-08-13T12:47:24Z</time>
      </trkpt>
      <trkpt lat="44.84911" lon="6.13321">
        <ele>2060.2</ele>
        <time>2024-08-13T12:47:25Z</time>
      </trkpt>
      <trkpt lat="44.84911" lon="6.13321">
        <ele>2060.6</ele>
        <time>2024-08-13T12:47:26Z</time>
      </trkpt>
      <trkpt lat="44.84911" lon="6.13321">
        <ele>2060.6</ele>
        <time>2024-08-13T12:47:27Z</time>
      </trkpt>
      <trkpt lat="44.84911" lon="6.13321">
        <ele>2060.8</ele>
        <time>2024-08-13T12:47:28Z</time>
      </trkpt>
      <trkpt lat="44.84911" lon="6.13321">
        <ele>2060.8</ele>
        <time>2024-08-13T12:47:29Z</time>
      </trkpt>
      <trkpt lat="44.84911" lon="6.13321">
        <ele>2060.6</ele>
        <time>2024-08-13T12:47:30Z</time>
      </trkpt>
      <trkpt lat="44.84911" lon="6.13321">
        <ele>2060.2</ele>
        <time>2024-08-13T12:47:31Z</time>
      </trkpt>
      <trkpt lat="44.84911" lon="6.13321">
        <ele>2060</ele>
        <time>2024-08-13T12:47:32Z</time>
      </trkpt>
      <trkpt lat="44.84911" lon="6.13321">
        <ele>2059.8</ele>
        <time>2024-08-13T12:47:33Z</time>
      </trkpt>
      <trkpt lat="44.84912" lon="6.13318">
        <ele>2059.8</ele>
        <time>2024-08-13T12:47:34Z</time>
      </trkpt>
      <trkpt lat="44.84912" lon="6.13318">
        <ele>2059.8</ele>
        <time>2024-08-13T12:47:35Z</time>
      </trkpt>
      <trkpt lat="44.84912" lon="6.13318">
        <ele>2060</ele>
        <time>2024-08-13T12:47:36Z</time>
      </trkpt>
      <trkpt lat="44.84912" lon="6.13315">
        <ele>2060.2</ele>
        <time>2024-08-13T12:47:37Z</time>
      </trkpt>
      <trkpt lat="44.84912" lon="6.13315">
        <ele>2060.2</ele>
        <time>2024-08-13T12:47:38Z</time>
      </trkpt>
      <trkpt lat="44.84912" lon="6.13315">
        <ele>2060.2</ele>
        <time>2024-08-13T12:47:39Z</time>
      </trkpt>
      <trkpt lat="44.84911" lon="6.13312">
        <ele>2059.6</ele>
        <time>2024-08-13T12:47:40Z</time>
      </trkpt>
      <trkpt lat="44.84911" lon="6.13312">
        <ele>2058.6</ele>
        <time>2024-08-13T12:47:41Z</time>
      </trkpt>
      <trkpt lat="44.84911" lon="6.13312">
        <ele>2058.4</ele>
        <time>2024-08-13T12:47:42Z</time>
      </trkpt>
      <trkpt lat="44.84911" lon="6.13312">
        <ele>2058</ele>
        <time>2024-08-13T12:47:43Z</time>
      </trkpt>
      <trkpt lat="44.84911" lon="6.13312">
        <ele>2058</ele>
        <time>2024-08-13T12:47:44Z</time>
      </trkpt>
      <trkpt lat="44.8491" lon="6.13308">
        <ele>2058.6</ele>
        <time>2024-08-13T12:47:45Z</time>
      </trkpt>
      <trkpt lat="44.8491" lon="6.13308">
        <ele>2058.6</ele>
        <time>2024-08-13T12:47:46Z</time>
      </trkpt>
      <trkpt lat="44.8491" lon="6.13308">
        <ele>2058.4</ele>
        <time>2024-08-13T12:47:47Z</time>
      </trkpt>
      <trkpt lat="44.8491" lon="6.13305">
        <ele>2058.2</ele>
        <time>2024-08-13T12:47:48Z</time>
      </trkpt>
      <trkpt lat="44.8491" lon="6.13305">
        <ele>2058</ele>
        <time>2024-08-13T12:47:49Z</time>
      </trkpt>
      <trkpt lat="44.8491" lon="6.13305">
        <ele>2058</ele>
        <time>2024-08-13T12:47:50Z</time>
      </trkpt>
      <trkpt lat="44.84908" lon="6.13302">
        <ele>2058</ele>
        <time>2024-08-13T12:47:51Z</time>
      </trkpt>
      <trkpt lat="44.84908" lon="6.13302">
        <ele>2057.6</ele>
        <time>2024-08-13T12:47:52Z</time>
      </trkpt>
      <trkpt lat="44.84907" lon="6.13299">
        <ele>2057.6</ele>
        <time>2024-08-13T12:47:53Z</time>
      </trkpt>
      <trkpt lat="44.84907" lon="6.13299">
        <ele>2057.2</ele>
        <time>2024-08-13T12:47:54Z</time>
      </trkpt>
      <trkpt lat="44.84904" lon="6.13298">
        <ele>2056.8</ele>
        <time>2024-08-13T12:47:55Z</time>
      </trkpt>
      <trkpt lat="44.84904" lon="6.13298">
        <ele>2056.6</ele>
        <time>2024-08-13T12:47:56Z</time>
      </trkpt>
      <trkpt lat="44.84903" lon="6.13296">
        <ele>2056.6</ele>
        <time>2024-08-13T12:47:57Z</time>
      </trkpt>
      <trkpt lat="44.84903" lon="6.13296">
        <ele>2056.6</ele>
        <time>2024-08-13T12:47:58Z</time>
      </trkpt>
      <trkpt lat="44.84901" lon="6.13293">
        <ele>2056.4</ele>
        <time>2024-08-13T12:47:59Z</time>
      </trkpt>
      <trkpt lat="44.84901" lon="6.13293">
        <ele>2056.2</ele>
        <time>2024-08-13T12:48:00Z</time>
      </trkpt>
      <trkpt lat="44.84899" lon="6.13292">
        <ele>2055.8</ele>
        <time>2024-08-13T12:48:01Z</time>
      </trkpt>
      <trkpt lat="44.84899" lon="6.13292">
        <ele>2055.8</ele>
        <time>2024-08-13T12:48:02Z</time>
      </trkpt>
      <trkpt lat="44.84897" lon="6.13289">
        <ele>2055.8</ele>
        <time>2024-08-13T12:48:03Z</time>
      </trkpt>
      <trkpt lat="44.84897" lon="6.13289">
        <ele>2055.8</ele>
        <time>2024-08-13T12:48:04Z</time>
      </trkpt>
      <trkpt lat="44.84894" lon="6.13287">
        <ele>2055.4</ele>
        <time>2024-08-13T12:48:05Z</time>
      </trkpt>
      <trkpt lat="44.84894" lon="6.13287">
        <ele>2055</ele>
        <time>2024-08-13T12:48:06Z</time>
      </trkpt>
      <trkpt lat="44.84892" lon="6.13285">
        <ele>2055</ele>
        <time>2024-08-13T12:48:07Z</time>
      </trkpt>
      <trkpt lat="44.84892" lon="6.13285">
        <ele>2054.8</ele>
        <time>2024-08-13T12:48:08Z</time>
      </trkpt>
      <trkpt lat="44.8489" lon="6.13284">
        <ele>2054.8</ele>
        <time>2024-08-13T12:48:09Z</time>
      </trkpt>
      <trkpt lat="44.8489" lon="6.13284">
        <ele>2054.6</ele>
        <time>2024-08-13T12:48:10Z</time>
      </trkpt>
      <trkpt lat="44.84888" lon="6.13282">
        <ele>2054.4</ele>
        <time>2024-08-13T12:48:11Z</time>
      </trkpt>
      <trkpt lat="44.84888" lon="6.13282">
        <ele>2054</ele>
        <time>2024-08-13T12:48:12Z</time>
      </trkpt>
      <trkpt lat="44.84886" lon="6.1328">
        <ele>2054</ele>
        <time>2024-08-13T12:48:13Z</time>
      </trkpt>
      <trkpt lat="44.84886" lon="6.1328">
        <ele>2054</ele>
        <time>2024-08-13T12:48:14Z</time>
      </trkpt>
      <trkpt lat="44.84884" lon="6.13279">
        <ele>2053.8</ele>
        <time>2024-08-13T12:48:15Z</time>
      </trkpt>
      <trkpt lat="44.84884" lon="6.13279">
        <ele>2053.4</ele>
        <time>2024-08-13T12:48:16Z</time>
      </trkpt>
      <trkpt lat="44.84882" lon="6.13276">
        <ele>2053.4</ele>
        <time>2024-08-13T12:48:17Z</time>
      </trkpt>
      <trkpt lat="44.84882" lon="6.13276">
        <ele>2053.4</ele>
        <time>2024-08-13T12:48:18Z</time>
      </trkpt>
      <trkpt lat="44.8488" lon="6.13273">
        <ele>2053.4</ele>
        <time>2024-08-13T12:48:19Z</time>
      </trkpt>
      <trkpt lat="44.8488" lon="6.13273">
        <ele>2053.4</ele>
        <time>2024-08-13T12:48:20Z</time>
      </trkpt>
      <trkpt lat="44.8488" lon="6.13269">
        <ele>2053.2</ele>
        <time>2024-08-13T12:48:21Z</time>
      </trkpt>
      <trkpt lat="44.8488" lon="6.13269">
        <ele>2053.2</ele>
        <time>2024-08-13T12:48:22Z</time>
      </trkpt>
      <trkpt lat="44.84879" lon="6.13266">
        <ele>2052.8</ele>
        <time>2024-08-13T12:48:23Z</time>
      </trkpt>
      <trkpt lat="44.84879" lon="6.13266">
        <ele>2052.6</ele>
        <time>2024-08-13T12:48:24Z</time>
      </trkpt>
      <trkpt lat="44.84878" lon="6.13263">
        <ele>2052.4</ele>
        <time>2024-08-13T12:48:25Z</time>
      </trkpt>
      <trkpt lat="44.84878" lon="6.13263">
        <ele>2052.4</ele>
        <time>2024-08-13T12:48:26Z</time>
      </trkpt>
      <trkpt lat="44.84878" lon="6.13259">
        <ele>2052.2</ele>
        <time>2024-08-13T12:48:27Z</time>
      </trkpt>
      <trkpt lat="44.84878" lon="6.13259">
        <ele>2052.2</ele>
        <time>2024-08-13T12:48:28Z</time>
      </trkpt>
      <trkpt lat="44.84877" lon="6.13257">
        <ele>2052</ele>
        <time>2024-08-13T12:48:29Z</time>
      </trkpt>
      <trkpt lat="44.84877" lon="6.13257">
        <ele>2051.8</ele>
        <time>2024-08-13T12:48:30Z</time>
      </trkpt>
      <trkpt lat="44.84875" lon="6.13255">
        <ele>2051.6</ele>
        <time>2024-08-13T12:48:31Z</time>
      </trkpt>
      <trkpt lat="44.84875" lon="6.13255">
        <ele>2051.6</ele>
        <time>2024-08-13T12:48:32Z</time>
      </trkpt>
      <trkpt lat="44.84873" lon="6.13254">
        <ele>2051.6</ele>
        <time>2024-08-13T12:48:33Z</time>
      </trkpt>
      <trkpt lat="44.84873" lon="6.13254">
        <ele>2051.8</ele>
        <time>2024-08-13T12:48:34Z</time>
      </trkpt>
      <trkpt lat="44.84872" lon="6.13252">
        <ele>2051.8</ele>
        <time>2024-08-13T12:48:35Z</time>
      </trkpt>
      <trkpt lat="44.84872" lon="6.13252">
        <ele>2051.2</ele>
        <time>2024-08-13T12:48:36Z</time>
      </trkpt>
      <trkpt lat="44.84869" lon="6.1325">
        <ele>2051.2</ele>
        <time>2024-08-13T12:48:37Z</time>
      </trkpt>
      <trkpt lat="44.84869" lon="6.1325">
        <ele>2051.4</ele>
        <time>2024-08-13T12:48:38Z</time>
      </trkpt>
      <trkpt lat="44.84868" lon="6.13249">
        <ele>2051.4</ele>
        <time>2024-08-13T12:48:39Z</time>
      </trkpt>
      <trkpt lat="44.84868" lon="6.13249">
        <ele>2051</ele>
        <time>2024-08-13T12:48:40Z</time>
      </trkpt>
      <trkpt lat="44.84866" lon="6.13247">
        <ele>2050.6</ele>
        <time>2024-08-13T12:48:41Z</time>
      </trkpt>
      <trkpt lat="44.84866" lon="6.13247">
        <ele>2050.2</ele>
        <time>2024-08-13T12:48:42Z</time>
      </trkpt>
      <trkpt lat="44.84864" lon="6.13245">
        <ele>2050.2</ele>
        <time>2024-08-13T12:48:43Z</time>
      </trkpt>
      <trkpt lat="44.84864" lon="6.13245">
        <ele>2050.4</ele>
        <time>2024-08-13T12:48:44Z</time>
      </trkpt>
      <trkpt lat="44.84862" lon="6.13243">
        <ele>2050.4</ele>
        <time>2024-08-13T12:48:45Z</time>
      </trkpt>
      <trkpt lat="44.84862" lon="6.13243">
        <ele>2050.2</ele>
        <time>2024-08-13T12:48:46Z</time>
      </trkpt>
      <trkpt lat="44.8486" lon="6.13241">
        <ele>2049.8</ele>
        <time>2024-08-13T12:48:47Z</time>
      </trkpt>
      <trkpt lat="44.8486" lon="6.13241">
        <ele>2049.8</ele>
        <time>2024-08-13T12:48:48Z</time>
      </trkpt>
      <trkpt lat="44.84858" lon="6.13239">
        <ele>2049.6</ele>
        <time>2024-08-13T12:48:49Z</time>
      </trkpt>
      <trkpt lat="44.84858" lon="6.13239">
        <ele>2049.4</ele>
        <time>2024-08-13T12:48:50Z</time>
      </trkpt>
      <trkpt lat="44.84856" lon="6.13237">
        <ele>2049.2</ele>
        <time>2024-08-13T12:48:51Z</time>
      </trkpt>
      <trkpt lat="44.84856" lon="6.13237">
        <ele>2049.2</ele>
        <time>2024-08-13T12:48:52Z</time>
      </trkpt>
      <trkpt lat="44.84854" lon="6.13235">
        <ele>2049.2</ele>
        <time>2024-08-13T12:48:53Z</time>
      </trkpt>
      <trkpt lat="44.84854" lon="6.13235">
        <ele>2048.8</ele>
        <time>2024-08-13T12:48:54Z</time>
      </trkpt>
      <trkpt lat="44.84851" lon="6.13234">
        <ele>2048.4</ele>
        <time>2024-08-13T12:48:55Z</time>
      </trkpt>
      <trkpt lat="44.84851" lon="6.13234">
        <ele>2048</ele>
        <time>2024-08-13T12:48:56Z</time>
      </trkpt>
      <trkpt lat="44.84848" lon="6.13234">
        <ele>2046.8</ele>
        <time>2024-08-13T12:48:57Z</time>
      </trkpt>
      <trkpt lat="44.84848" lon="6.13234">
        <ele>2046.4</ele>
        <time>2024-08-13T12:48:58Z</time>
      </trkpt>
      <trkpt lat="44.84846" lon="6.13233">
        <ele>2046.4</ele>
        <time>2024-08-13T12:48:59Z</time>
      </trkpt>
      <trkpt lat="44.84846" lon="6.13233">
        <ele>2046.8</ele>
        <time>2024-08-13T12:49:00Z</time>
      </trkpt>
      <trkpt lat="44.84844" lon="6.13231">
        <ele>2046.8</ele>
        <time>2024-08-13T12:49:01Z</time>
      </trkpt>
      <trkpt lat="44.84844" lon="6.13231">
        <ele>2046.4</ele>
        <time>2024-08-13T12:49:02Z</time>
      </trkpt>
      <trkpt lat="44.84843" lon="6.13227">
        <ele>2046.4</ele>
        <time>2024-08-13T12:49:03Z</time>
      </trkpt>
      <trkpt lat="44.84843" lon="6.13227">
        <ele>2046</ele>
        <time>2024-08-13T12:49:04Z</time>
      </trkpt>
      <trkpt lat="44.84841" lon="6.13224">
        <ele>2046</ele>
        <time>2024-08-13T12:49:05Z</time>
      </trkpt>
      <trkpt lat="44.84841" lon="6.13224">
        <ele>2045.8</ele>
        <time>2024-08-13T12:49:06Z</time>
      </trkpt>
      <trkpt lat="44.8484" lon="6.13221">
        <ele>2045.6</ele>
        <time>2024-08-13T12:49:07Z</time>
      </trkpt>
      <trkpt lat="44.8484" lon="6.13221">
        <ele>2045.2</ele>
        <time>2024-08-13T12:49:08Z</time>
      </trkpt>
      <trkpt lat="44.84838" lon="6.13218">
        <ele>2045.2</ele>
        <time>2024-08-13T12:49:09Z</time>
      </trkpt>
      <trkpt lat="44.84838" lon="6.13218">
        <ele>2045.2</ele>
        <time>2024-08-13T12:49:10Z</time>
      </trkpt>
      <trkpt lat="44.84837" lon="6.13215">
        <ele>2045</ele>
        <time>2024-08-13T12:49:11Z</time>
      </trkpt>
      <trkpt lat="44.84837" lon="6.13215">
        <ele>2044.6</ele>
        <time>2024-08-13T12:49:12Z</time>
      </trkpt>
      <trkpt lat="44.84836" lon="6.13213">
        <ele>2044.6</ele>
        <time>2024-08-13T12:49:13Z</time>
      </trkpt>
      <trkpt lat="44.84836" lon="6.13213">
        <ele>2044.6</ele>
        <time>2024-08-13T12:49:14Z</time>
      </trkpt>
      <trkpt lat="44.84834" lon="6.13212">
        <ele>2044.2</ele>
        <time>2024-08-13T12:49:15Z</time>
      </trkpt>
      <trkpt lat="44.84834" lon="6.13212">
        <ele>2044.2</ele>
        <time>2024-08-13T12:49:16Z</time>
      </trkpt>
      <trkpt lat="44.84833" lon="6.1321">
        <ele>2044.2</ele>
        <time>2024-08-13T12:49:17Z</time>
      </trkpt>
      <trkpt lat="44.84833" lon="6.1321">
        <ele>2044</ele>
        <time>2024-08-13T12:49:18Z</time>
      </trkpt>
      <trkpt lat="44.84831" lon="6.13207">
        <ele>2043.4</ele>
        <time>2024-08-13T12:49:19Z</time>
      </trkpt>
      <trkpt lat="44.84831" lon="6.13207">
        <ele>2043.2</ele>
        <time>2024-08-13T12:49:20Z</time>
      </trkpt>
      <trkpt lat="44.84829" lon="6.13204">
        <ele>2043</ele>
        <time>2024-08-13T12:49:21Z</time>
      </trkpt>
      <trkpt lat="44.84829" lon="6.13204">
        <ele>2042.6</ele>
        <time>2024-08-13T12:49:22Z</time>
      </trkpt>
      <trkpt lat="44.84828" lon="6.13201">
        <ele>2042.6</ele>
        <time>2024-08-13T12:49:23Z</time>
      </trkpt>
      <trkpt lat="44.84828" lon="6.13201">
        <ele>2042.4</ele>
        <time>2024-08-13T12:49:24Z</time>
      </trkpt>
      <trkpt lat="44.84828" lon="6.13199">
        <ele>2042.4</ele>
        <time>2024-08-13T12:49:25Z</time>
      </trkpt>
      <trkpt lat="44.84828" lon="6.13199">
        <ele>2042.2</ele>
        <time>2024-08-13T12:49:26Z</time>
      </trkpt>
      <trkpt lat="44.84828" lon="6.13199">
        <ele>2042.2</ele>
        <time>2024-08-13T12:49:27Z</time>
      </trkpt>
      <trkpt lat="44.84828" lon="6.13199">
        <ele>2041.8</ele>
        <time>2024-08-13T12:49:28Z</time>
      </trkpt>
      <trkpt lat="44.84828" lon="6.13195">
        <ele>2041.6</ele>
        <time>2024-08-13T12:49:29Z</time>
      </trkpt>
      <trkpt lat="44.84828" lon="6.13195">
        <ele>2041.4</ele>
        <time>2024-08-13T12:49:30Z</time>
      </trkpt>
      <trkpt lat="44.84828" lon="6.13195">
        <ele>2040.8</ele>
        <time>2024-08-13T12:49:31Z</time>
      </trkpt>
      <trkpt lat="44.84827" lon="6.13192">
        <ele>2040.4</ele>
        <time>2024-08-13T12:49:32Z</time>
      </trkpt>
      <trkpt lat="44.84827" lon="6.13192">
        <ele>2040</ele>
        <time>2024-08-13T12:49:33Z</time>
      </trkpt>
      <trkpt lat="44.84827" lon="6.13188">
        <ele>2040</ele>
        <time>2024-08-13T12:49:34Z</time>
      </trkpt>
      <trkpt lat="44.84827" lon="6.13188">
        <ele>2040</ele>
        <time>2024-08-13T12:49:35Z</time>
      </trkpt>
      <trkpt lat="44.84827" lon="6.13188">
        <ele>2040</ele>
        <time>2024-08-13T12:49:36Z</time>
      </trkpt>
      <trkpt lat="44.84826" lon="6.13185">
        <ele>2039.6</ele>
        <time>2024-08-13T12:49:37Z</time>
      </trkpt>
      <trkpt lat="44.84826" lon="6.13185">
        <ele>2039.6</ele>
        <time>2024-08-13T12:49:38Z</time>
      </trkpt>
      <trkpt lat="44.84826" lon="6.13185">
        <ele>2039.6</ele>
        <time>2024-08-13T12:49:39Z</time>
      </trkpt>
      <trkpt lat="44.84826" lon="6.13183">
        <ele>2039.2</ele>
        <time>2024-08-13T12:49:40Z</time>
      </trkpt>
      <trkpt lat="44.84826" lon="6.13183">
        <ele>2039</ele>
        <time>2024-08-13T12:49:41Z</time>
      </trkpt>
      <trkpt lat="44.84825" lon="6.1318">
        <ele>2038.8</ele>
        <time>2024-08-13T12:49:42Z</time>
      </trkpt>
      <trkpt lat="44.84825" lon="6.1318">
        <ele>2038.6</ele>
        <time>2024-08-13T12:49:43Z</time>
      </trkpt>
      <trkpt lat="44.84825" lon="6.1318">
        <ele>2038.4</ele>
        <time>2024-08-13T12:49:44Z</time>
      </trkpt>
      <trkpt lat="44.84825" lon="6.13177">
        <ele>2037.8</ele>
        <time>2024-08-13T12:49:45Z</time>
      </trkpt>
      <trkpt lat="44.84825" lon="6.13177">
        <ele>2037.8</ele>
        <time>2024-08-13T12:49:46Z</time>
      </trkpt>
      <trkpt lat="44.84825" lon="6.13177">
        <ele>2038</ele>
        <time>2024-08-13T12:49:47Z</time>
      </trkpt>
      <trkpt lat="44.84822" lon="6.13174">
        <ele>2038.2</ele>
        <time>2024-08-13T12:49:48Z</time>
      </trkpt>
      <trkpt lat="44.84822" lon="6.13174">
        <ele>2038.2</ele>
        <time>2024-08-13T12:49:49Z</time>
      </trkpt>
      <trkpt lat="44.84822" lon="6.13174">
        <ele>2038</ele>
        <time>2024-08-13T12:49:50Z</time>
      </trkpt>
      <trkpt lat="44.84822" lon="6.13174">
        <ele>2038</ele>
        <time>2024-08-13T12:49:51Z</time>
      </trkpt>
      <trkpt lat="44.84822" lon="6.13171">
        <ele>2038</ele>
        <time>2024-08-13T12:49:52Z</time>
      </trkpt>
      <trkpt lat="44.84822" lon="6.13171">
        <ele>2037.6</ele>
        <time>2024-08-13T12:49:53Z</time>
      </trkpt>
      <trkpt lat="44.84822" lon="6.13171">
        <ele>2037.6</ele>
        <time>2024-08-13T12:49:54Z</time>
      </trkpt>
      <trkpt lat="44.84821" lon="6.13168">
        <ele>2037.6</ele>
        <time>2024-08-13T12:49:55Z</time>
      </trkpt>
      <trkpt lat="44.84821" lon="6.13168">
        <ele>2037.2</ele>
        <time>2024-08-13T12:49:56Z</time>
      </trkpt>
      <trkpt lat="44.84821" lon="6.13168">
        <ele>2036.6</ele>
        <time>2024-08-13T12:49:57Z</time>
      </trkpt>
      <trkpt lat="44.8482" lon="6.13166">
        <ele>2036</ele>
        <time>2024-08-13T12:49:58Z</time>
      </trkpt>
      <trkpt lat="44.8482" lon="6.13166">
        <ele>2035.8</ele>
        <time>2024-08-13T12:49:59Z</time>
      </trkpt>
      <trkpt lat="44.84819" lon="6.13163">
        <ele>2035.8</ele>
        <time>2024-08-13T12:50:00Z</time>
      </trkpt>
      <trkpt lat="44.84819" lon="6.13163">
        <ele>2036.2</ele>
        <time>2024-08-13T12:50:01Z</time>
      </trkpt>
      <trkpt lat="44.84819" lon="6.13163">
        <ele>2036</ele>
        <time>2024-08-13T12:50:02Z</time>
      </trkpt>
      <trkpt lat="44.84819" lon="6.1316">
        <ele>2036</ele>
        <time>2024-08-13T12:50:03Z</time>
      </trkpt>
      <trkpt lat="44.84819" lon="6.1316">
        <ele>2035.8</ele>
        <time>2024-08-13T12:50:04Z</time>
      </trkpt>
      <trkpt lat="44.84819" lon="6.1316">
        <ele>2035.6</ele>
        <time>2024-08-13T12:50:05Z</time>
      </trkpt>
      <trkpt lat="44.84818" lon="6.13157">
        <ele>2035.6</ele>
        <time>2024-08-13T12:50:06Z</time>
      </trkpt>
      <trkpt lat="44.84818" lon="6.13157">
        <ele>2035.4</ele>
        <time>2024-08-13T12:50:07Z</time>
      </trkpt>
      <trkpt lat="44.84818" lon="6.13157">
        <ele>2035.4</ele>
        <time>2024-08-13T12:50:08Z</time>
      </trkpt>
      <trkpt lat="44.84817" lon="6.13154">
        <ele>2035.2</ele>
        <time>2024-08-13T12:50:09Z</time>
      </trkpt>
      <trkpt lat="44.84817" lon="6.13154">
        <ele>2035.2</ele>
        <time>2024-08-13T12:50:10Z</time>
      </trkpt>
      <trkpt lat="44.84816" lon="6.13151">
        <ele>2035</ele>
        <time>2024-08-13T12:50:11Z</time>
      </trkpt>
      <trkpt lat="44.84816" lon="6.13151">
        <ele>2035</ele>
        <time>2024-08-13T12:50:12Z</time>
      </trkpt>
      <trkpt lat="44.84816" lon="6.13151">
        <ele>2034.6</ele>
        <time>2024-08-13T12:50:13Z</time>
      </trkpt>
      <trkpt lat="44.84816" lon="6.13147">
        <ele>2034.2</ele>
        <time>2024-08-13T12:50:14Z</time>
      </trkpt>
      <trkpt lat="44.84816" lon="6.13147">
        <ele>2034</ele>
        <time>2024-08-13T12:50:15Z</time>
      </trkpt>
      <trkpt lat="44.84815" lon="6.13145">
        <ele>2034</ele>
        <time>2024-08-13T12:50:16Z</time>
      </trkpt>
      <trkpt lat="44.84815" lon="6.13145">
        <ele>2033.8</ele>
        <time>2024-08-13T12:50:17Z</time>
      </trkpt>
      <trkpt lat="44.84814" lon="6.13142">
        <ele>2033.8</ele>
        <time>2024-08-13T12:50:18Z</time>
      </trkpt>
      <trkpt lat="44.84814" lon="6.13142">
        <ele>2033.4</ele>
        <time>2024-08-13T12:50:19Z</time>
      </trkpt>
      <trkpt lat="44.84814" lon="6.13139">
        <ele>2033.4</ele>
        <time>2024-08-13T12:50:20Z</time>
      </trkpt>
      <trkpt lat="44.84814" lon="6.13139">
        <ele>2033.4</ele>
        <time>2024-08-13T12:50:21Z</time>
      </trkpt>
      <trkpt lat="44.84813" lon="6.13137">
        <ele>2033.4</ele>
        <time>2024-08-13T12:50:22Z</time>
      </trkpt>
      <trkpt lat="44.84813" lon="6.13137">
        <ele>2033.6</ele>
        <time>2024-08-13T12:50:23Z</time>
      </trkpt>
      <trkpt lat="44.84812" lon="6.13133">
        <ele>2033.8</ele>
        <time>2024-08-13T12:50:24Z</time>
      </trkpt>
      <trkpt lat="44.84812" lon="6.13133">
        <ele>2033.8</ele>
        <time>2024-08-13T12:50:25Z</time>
      </trkpt>
      <trkpt lat="44.84811" lon="6.1313">
        <ele>2033.6</ele>
        <time>2024-08-13T12:50:26Z</time>
      </trkpt>
      <trkpt lat="44.84811" lon="6.1313">
        <ele>2033.6</ele>
        <time>2024-08-13T12:50:27Z</time>
      </trkpt>
      <trkpt lat="44.84811" lon="6.1313">
        <ele>2033.4</ele>
        <time>2024-08-13T12:50:28Z</time>
      </trkpt>
      <trkpt lat="44.8481" lon="6.13126">
        <ele>2033.4</ele>
        <time>2024-08-13T12:50:29Z</time>
      </trkpt>
      <trkpt lat="44.8481" lon="6.13126">
        <ele>2033.4</ele>
        <time>2024-08-13T12:50:30Z</time>
      </trkpt>
      <trkpt lat="44.8481" lon="6.13124">
        <ele>2033.4</ele>
        <time>2024-08-13T12:50:31Z</time>
      </trkpt>
      <trkpt lat="44.8481" lon="6.13124">
        <ele>2033</ele>
        <time>2024-08-13T12:50:32Z</time>
      </trkpt>
      <trkpt lat="44.8481" lon="6.1312">
        <ele>2032.8</ele>
        <time>2024-08-13T12:50:33Z</time>
      </trkpt>
      <trkpt lat="44.8481" lon="6.1312">
        <ele>2032.8</ele>
        <time>2024-08-13T12:50:34Z</time>
      </trkpt>
      <trkpt lat="44.8481" lon="6.13116">
        <ele>2032.6</ele>
        <time>2024-08-13T12:50:35Z</time>
      </trkpt>
      <trkpt lat="44.8481" lon="6.13116">
        <ele>2032.4</ele>
        <time>2024-08-13T12:50:36Z</time>
      </trkpt>
      <trkpt lat="44.8481" lon="6.13113">
        <ele>2032.2</ele>
        <time>2024-08-13T12:50:37Z</time>
      </trkpt>
      <trkpt lat="44.8481" lon="6.13113">
        <ele>2032</ele>
        <time>2024-08-13T12:50:38Z</time>
      </trkpt>
      <trkpt lat="44.8481" lon="6.13113">
        <ele>2032</ele>
        <time>2024-08-13T12:50:39Z</time>
      </trkpt>
      <trkpt lat="44.8481" lon="6.1311">
        <ele>2032</ele>
        <time>2024-08-13T12:50:40Z</time>
      </trkpt>
      <trkpt lat="44.8481" lon="6.1311">
        <ele>2032</ele>
        <time>2024-08-13T12:50:41Z</time>
      </trkpt>
      <trkpt lat="44.84811" lon="6.13107">
        <ele>2031.8</ele>
        <time>2024-08-13T12:50:42Z</time>
      </trkpt>
      <trkpt lat="44.84811" lon="6.13107">
        <ele>2031.8</ele>
        <time>2024-08-13T12:50:43Z</time>
      </trkpt>
      <trkpt lat="44.84811" lon="6.13107">
        <ele>2031.6</ele>
        <time>2024-08-13T12:50:44Z</time>
      </trkpt>
      <trkpt lat="44.84812" lon="6.13103">
        <ele>2031.6</ele>
        <time>2024-08-13T12:50:45Z</time>
      </trkpt>
      <trkpt lat="44.84812" lon="6.13103">
        <ele>2031.6</ele>
        <time>2024-08-13T12:50:46Z</time>
      </trkpt>
      <trkpt lat="44.84812" lon="6.13103">
        <ele>2031.6</ele>
        <time>2024-08-13T12:50:47Z</time>
      </trkpt>
      <trkpt lat="44.84813" lon="6.13101">
        <ele>2031.4</ele>
        <time>2024-08-13T12:50:48Z</time>
      </trkpt>
      <trkpt lat="44.84813" lon="6.13101">
        <ele>2031.4</ele>
        <time>2024-08-13T12:50:49Z</time>
      </trkpt>
      <trkpt lat="44.84813" lon="6.13101">
        <ele>2031.6</ele>
        <time>2024-08-13T12:50:50Z</time>
      </trkpt>
      <trkpt lat="44.84813" lon="6.13097">
        <ele>2031.8</ele>
        <time>2024-08-13T12:50:51Z</time>
      </trkpt>
      <trkpt lat="44.84813" lon="6.13097">
        <ele>2031.8</ele>
        <time>2024-08-13T12:50:52Z</time>
      </trkpt>
      <trkpt lat="44.84812" lon="6.13095">
        <ele>2031.8</ele>
        <time>2024-08-13T12:50:53Z</time>
      </trkpt>
      <trkpt lat="44.84812" lon="6.13095">
        <ele>2031.8</ele>
        <time>2024-08-13T12:50:54Z</time>
      </trkpt>
      <trkpt lat="44.84812" lon="6.13091">
        <ele>2032</ele>
        <time>2024-08-13T12:50:55Z</time>
      </trkpt>
      <trkpt lat="44.84812" lon="6.13091">
        <ele>2032</ele>
        <time>2024-08-13T12:50:56Z</time>
      </trkpt>
      <trkpt lat="44.84811" lon="6.13087">
        <ele>2031.6</ele>
        <time>2024-08-13T12:50:57Z</time>
      </trkpt>
      <trkpt lat="44.84811" lon="6.13087">
        <ele>2031.6</ele>
        <time>2024-08-13T12:50:58Z</time>
      </trkpt>
      <trkpt lat="44.84811" lon="6.13085">
        <ele>2031.6</ele>
        <time>2024-08-13T12:50:59Z</time>
      </trkpt>
      <trkpt lat="44.84811" lon="6.13085">
        <ele>2031.4</ele>
        <time>2024-08-13T12:51:00Z</time>
      </trkpt>
      <trkpt lat="44.84811" lon="6.13085">
        <ele>2031.4</ele>
        <time>2024-08-13T12:51:01Z</time>
      </trkpt>
      <trkpt lat="44.8481" lon="6.13082">
        <ele>2031.8</ele>
        <time>2024-08-13T12:51:02Z</time>
      </trkpt>
      <trkpt lat="44.8481" lon="6.13082">
        <ele>2031.8</ele>
        <time>2024-08-13T12:51:03Z</time>
      </trkpt>
      <trkpt lat="44.84808" lon="6.13078">
        <ele>2032</ele>
        <time>2024-08-13T12:51:04Z</time>
      </trkpt>
      <trkpt lat="44.84808" lon="6.13078">
        <ele>2032</ele>
        <time>2024-08-13T12:51:05Z</time>
      </trkpt>
      <trkpt lat="44.84808" lon="6.13075">
        <ele>2032</ele>
        <time>2024-08-13T12:51:06Z</time>
      </trkpt>
      <trkpt lat="44.84808" lon="6.13075">
        <ele>2031.8</ele>
        <time>2024-08-13T12:51:07Z</time>
      </trkpt>
      <trkpt lat="44.84806" lon="6.13072">
        <ele>2031.8</ele>
        <time>2024-08-13T12:51:08Z</time>
      </trkpt>
      <trkpt lat="44.84806" lon="6.13072">
        <ele>2032.2</ele>
        <time>2024-08-13T12:51:09Z</time>
      </trkpt>
      <trkpt lat="44.84806" lon="6.13069">
        <ele>2032.2</ele>
        <time>2024-08-13T12:51:10Z</time>
      </trkpt>
      <trkpt lat="44.84806" lon="6.13069">
        <ele>2032.2</ele>
        <time>2024-08-13T12:51:11Z</time>
      </trkpt>
      <trkpt lat="44.84805" lon="6.13066">
        <ele>2032.4</ele>
        <time>2024-08-13T12:51:12Z</time>
      </trkpt>
      <trkpt lat="44.84805" lon="6.13066">
        <ele>2032.4</ele>
        <time>2024-08-13T12:51:13Z</time>
      </trkpt>
      <trkpt lat="44.84804" lon="6.13063">
        <ele>2032.4</ele>
        <time>2024-08-13T12:51:14Z</time>
      </trkpt>
      <trkpt lat="44.84804" lon="6.13063">
        <ele>2032.2</ele>
        <time>2024-08-13T12:51:15Z</time>
      </trkpt>
      <trkpt lat="44.84804" lon="6.13059">
        <ele>2032.4</ele>
        <time>2024-08-13T12:51:16Z</time>
      </trkpt>
      <trkpt lat="44.84804" lon="6.13059">
        <ele>2032.4</ele>
        <time>2024-08-13T12:51:17Z</time>
      </trkpt>
      <trkpt lat="44.84803" lon="6.13056">
        <ele>2032.4</ele>
        <time>2024-08-13T12:51:18Z</time>
      </trkpt>
      <trkpt lat="44.84803" lon="6.13056">
        <ele>2032.4</ele>
        <time>2024-08-13T12:51:19Z</time>
      </trkpt>
      <trkpt lat="44.84802" lon="6.13053">
        <ele>2032.6</ele>
        <time>2024-08-13T12:51:20Z</time>
      </trkpt>
      <trkpt lat="44.84802" lon="6.13053">
        <ele>2032.6</ele>
        <time>2024-08-13T12:51:21Z</time>
      </trkpt>
      <trkpt lat="44.84801" lon="6.13049">
        <ele>2032.6</ele>
        <time>2024-08-13T12:51:22Z</time>
      </trkpt>
      <trkpt lat="44.84801" lon="6.13049">
        <ele>2032.4</ele>
        <time>2024-08-13T12:51:23Z</time>
      </trkpt>
      <trkpt lat="44.848" lon="6.13046">
        <ele>2032.4</ele>
        <time>2024-08-13T12:51:24Z</time>
      </trkpt>
      <trkpt lat="44.848" lon="6.13046">
        <ele>2032.6</ele>
        <time>2024-08-13T12:51:25Z</time>
      </trkpt>
      <trkpt lat="44.848" lon="6.13042">
        <ele>2032.6</ele>
        <time>2024-08-13T12:51:26Z</time>
      </trkpt>
      <trkpt lat="44.848" lon="6.13042">
        <ele>2032.8</ele>
        <time>2024-08-13T12:51:27Z</time>
      </trkpt>
      <trkpt lat="44.84799" lon="6.13039">
        <ele>2032.8</ele>
        <time>2024-08-13T12:51:28Z</time>
      </trkpt>
      <trkpt lat="44.84799" lon="6.13039">
        <ele>2032.8</ele>
        <time>2024-08-13T12:51:29Z</time>
      </trkpt>
      <trkpt lat="44.84798" lon="6.13036">
        <ele>2032.8</ele>
        <time>2024-08-13T12:51:30Z</time>
      </trkpt>
      <trkpt lat="44.84798" lon="6.13036">
        <ele>2032.8</ele>
        <time>2024-08-13T12:51:31Z</time>
      </trkpt>
      <trkpt lat="44.84798" lon="6.13033">
        <ele>2032.8</ele>
        <time>2024-08-13T12:51:32Z</time>
      </trkpt>
      <trkpt lat="44.84798" lon="6.13033">
        <ele>2033.2</ele>
        <time>2024-08-13T12:51:33Z</time>
      </trkpt>
      <trkpt lat="44.84797" lon="6.13031">
        <ele>2033.2</ele>
        <time>2024-08-13T12:51:34Z</time>
      </trkpt>
      <trkpt lat="44.84797" lon="6.13031">
        <ele>2033.2</ele>
        <time>2024-08-13T12:51:35Z</time>
      </trkpt>
      <trkpt lat="44.84796" lon="6.13028">
        <ele>2033.2</ele>
        <time>2024-08-13T12:51:36Z</time>
      </trkpt>
      <trkpt lat="44.84796" lon="6.13028">
        <ele>2033.2</ele>
        <time>2024-08-13T12:51:37Z</time>
      </trkpt>
      <trkpt lat="44.84794" lon="6.13025">
        <ele>2033.2</ele>
        <time>2024-08-13T12:51:38Z</time>
      </trkpt>
      <trkpt lat="44.84794" lon="6.13025">
        <ele>2033.6</ele>
        <time>2024-08-13T12:51:39Z</time>
      </trkpt>
      <trkpt lat="44.84793" lon="6.13023">
        <ele>2033.6</ele>
        <time>2024-08-13T12:51:40Z</time>
      </trkpt>
      <trkpt lat="44.84793" lon="6.13023">
        <ele>2033.6</ele>
        <time>2024-08-13T12:51:41Z</time>
      </trkpt>
      <trkpt lat="44.84793" lon="6.13023">
        <ele>2033.8</ele>
        <time>2024-08-13T12:51:42Z</time>
      </trkpt>
      <trkpt lat="44.84792" lon="6.1302">
        <ele>2033.8</ele>
        <time>2024-08-13T12:51:43Z</time>
      </trkpt>
      <trkpt lat="44.84792" lon="6.1302">
        <ele>2033.8</ele>
        <time>2024-08-13T12:51:44Z</time>
      </trkpt>
      <trkpt lat="44.8479" lon="6.13018">
        <ele>2033.8</ele>
        <time>2024-08-13T12:51:45Z</time>
      </trkpt>
      <trkpt lat="44.8479" lon="6.13018">
        <ele>2034</ele>
        <time>2024-08-13T12:51:46Z</time>
      </trkpt>
      <trkpt lat="44.84789" lon="6.13015">
        <ele>2034.2</ele>
        <time>2024-08-13T12:51:47Z</time>
      </trkpt>
      <trkpt lat="44.84789" lon="6.13015">
        <ele>2034.4</ele>
        <time>2024-08-13T12:51:48Z</time>
      </trkpt>
      <trkpt lat="44.84789" lon="6.13015">
        <ele>2034.4</ele>
        <time>2024-08-13T12:51:49Z</time>
      </trkpt>
      <trkpt lat="44.84787" lon="6.13012">
        <ele>2034.4</ele>
        <time>2024-08-13T12:51:50Z</time>
      </trkpt>
      <trkpt lat="44.84787" lon="6.13012">
        <ele>2034.4</ele>
        <time>2024-08-13T12:51:51Z</time>
      </trkpt>
      <trkpt lat="44.84785" lon="6.1301">
        <ele>2034.4</ele>
        <time>2024-08-13T12:51:52Z</time>
      </trkpt>
      <trkpt lat="44.84785" lon="6.1301">
        <ele>2034.4</ele>
        <time>2024-08-13T12:51:53Z</time>
      </trkpt>
      <trkpt lat="44.84784" lon="6.13007">
        <ele>2034.4</ele>
        <time>2024-08-13T12:51:54Z</time>
      </trkpt>
      <trkpt lat="44.84784" lon="6.13007">
        <ele>2034.8</ele>
        <time>2024-08-13T12:51:55Z</time>
      </trkpt>
      <trkpt lat="44.84783" lon="6.13004">
        <ele>2035</ele>
        <time>2024-08-13T12:51:56Z</time>
      </trkpt>
      <trkpt lat="44.84783" lon="6.13004">
        <ele>2035</ele>
        <time>2024-08-13T12:51:57Z</time>
      </trkpt>
      <trkpt lat="44.84781" lon="6.13002">
        <ele>2035</ele>
        <time>2024-08-13T12:51:58Z</time>
      </trkpt>
      <trkpt lat="44.84781" lon="6.13002">
        <ele>2035.2</ele>
        <time>2024-08-13T12:51:59Z</time>
      </trkpt>
      <trkpt lat="44.84781" lon="6.12999">
        <ele>2035.2</ele>
        <time>2024-08-13T12:52:00Z</time>
      </trkpt>
      <trkpt lat="44.84781" lon="6.12999">
        <ele>2035.2</ele>
        <time>2024-08-13T12:52:01Z</time>
      </trkpt>
      <trkpt lat="44.84779" lon="6.12997">
        <ele>2035</ele>
        <time>2024-08-13T12:52:02Z</time>
      </trkpt>
      <trkpt lat="44.84779" lon="6.12997">
        <ele>2035</ele>
        <time>2024-08-13T12:52:03Z</time>
      </trkpt>
      <trkpt lat="44.84778" lon="6.12994">
        <ele>2035.2</ele>
        <time>2024-08-13T12:52:04Z</time>
      </trkpt>
      <trkpt lat="44.84778" lon="6.12994">
        <ele>2035.4</ele>
        <time>2024-08-13T12:52:05Z</time>
      </trkpt>
      <trkpt lat="44.84778" lon="6.12992">
        <ele>2035.6</ele>
        <time>2024-08-13T12:52:06Z</time>
      </trkpt>
      <trkpt lat="44.84778" lon="6.12992">
        <ele>2035.6</ele>
        <time>2024-08-13T12:52:07Z</time>
      </trkpt>
      <trkpt lat="44.84777" lon="6.12989">
        <ele>2036</ele>
        <time>2024-08-13T12:52:08Z</time>
      </trkpt>
      <trkpt lat="44.84777" lon="6.12989">
        <ele>2036</ele>
        <time>2024-08-13T12:52:09Z</time>
      </trkpt>
      <trkpt lat="44.84777" lon="6.12986">
        <ele>2036</ele>
        <time>2024-08-13T12:52:10Z</time>
      </trkpt>
      <trkpt lat="44.84777" lon="6.12986">
        <ele>2036.2</ele>
        <time>2024-08-13T12:52:11Z</time>
      </trkpt>
      <trkpt lat="44.84776" lon="6.12983">
        <ele>2037</ele>
        <time>2024-08-13T12:52:12Z</time>
      </trkpt>
      <trkpt lat="44.84776" lon="6.12983">
        <ele>2037</ele>
        <time>2024-08-13T12:52:13Z</time>
      </trkpt>
      <trkpt lat="44.84776" lon="6.1298">
        <ele>2037</ele>
        <time>2024-08-13T12:52:14Z</time>
      </trkpt>
      <trkpt lat="44.84776" lon="6.1298">
        <ele>2037</ele>
        <time>2024-08-13T12:52:15Z</time>
      </trkpt>
      <trkpt lat="44.84775" lon="6.12978">
        <ele>2037</ele>
        <time>2024-08-13T12:52:16Z</time>
      </trkpt>
      <trkpt lat="44.84775" lon="6.12978">
        <ele>2037.4</ele>
        <time>2024-08-13T12:52:17Z</time>
      </trkpt>
      <trkpt lat="44.84774" lon="6.12975">
        <ele>2037.4</ele>
        <time>2024-08-13T12:52:18Z</time>
      </trkpt>
      <trkpt lat="44.84774" lon="6.12975">
        <ele>2037.4</ele>
        <time>2024-08-13T12:52:19Z</time>
      </trkpt>
      <trkpt lat="44.84773" lon="6.12972">
        <ele>2037.4</ele>
        <time>2024-08-13T12:52:20Z</time>
      </trkpt>
      <trkpt lat="44.84773" lon="6.12972">
        <ele>2037.4</ele>
        <time>2024-08-13T12:52:21Z</time>
      </trkpt>
      <trkpt lat="44.84772" lon="6.12969">
        <ele>2037.6</ele>
        <time>2024-08-13T12:52:22Z</time>
      </trkpt>
      <trkpt lat="44.84772" lon="6.12969">
        <ele>2037.6</ele>
        <time>2024-08-13T12:52:23Z</time>
      </trkpt>
      <trkpt lat="44.84772" lon="6.12969">
        <ele>2037.8</ele>
        <time>2024-08-13T12:52:24Z</time>
      </trkpt>
      <trkpt lat="44.84771" lon="6.12965">
        <ele>2038.2</ele>
        <time>2024-08-13T12:52:25Z</time>
      </trkpt>
      <trkpt lat="44.84771" lon="6.12965">
        <ele>2038.2</ele>
        <time>2024-08-13T12:52:26Z</time>
      </trkpt>
      <trkpt lat="44.84771" lon="6.12962">
        <ele>2038.2</ele>
        <time>2024-08-13T12:52:27Z</time>
      </trkpt>
      <trkpt lat="44.84771" lon="6.12962">
        <ele>2038.2</ele>
        <time>2024-08-13T12:52:28Z</time>
      </trkpt>
      <trkpt lat="44.84771" lon="6.1296">
        <ele>2038.4</ele>
        <time>2024-08-13T12:52:29Z</time>
      </trkpt>
      <trkpt lat="44.84771" lon="6.1296">
        <ele>2038.6</ele>
        <time>2024-08-13T12:52:30Z</time>
      </trkpt>
      <trkpt lat="44.8477" lon="6.12956">
        <ele>2038.6</ele>
        <time>2024-08-13T12:52:31Z</time>
      </trkpt>
      <trkpt lat="44.8477" lon="6.12956">
        <ele>2038.6</ele>
        <time>2024-08-13T12:52:32Z</time>
      </trkpt>
      <trkpt lat="44.8477" lon="6.12953">
        <ele>2038.6</ele>
        <time>2024-08-13T12:52:33Z</time>
      </trkpt>
      <trkpt lat="44.8477" lon="6.12953">
        <ele>2038.6</ele>
        <time>2024-08-13T12:52:34Z</time>
      </trkpt>
      <trkpt lat="44.8477" lon="6.1295">
        <ele>2038.8</ele>
        <time>2024-08-13T12:52:35Z</time>
      </trkpt>
      <trkpt lat="44.8477" lon="6.1295">
        <ele>2038.8</ele>
        <time>2024-08-13T12:52:36Z</time>
      </trkpt>
      <trkpt lat="44.8477" lon="6.12947">
        <ele>2038.8</ele>
        <time>2024-08-13T12:52:37Z</time>
      </trkpt>
      <trkpt lat="44.8477" lon="6.12947">
        <ele>2038.8</ele>
        <time>2024-08-13T12:52:38Z</time>
      </trkpt>
      <trkpt lat="44.8477" lon="6.12944">
        <ele>2038.8</ele>
        <time>2024-08-13T12:52:39Z</time>
      </trkpt>
      <trkpt lat="44.8477" lon="6.12944">
        <ele>2039.2</ele>
        <time>2024-08-13T12:52:40Z</time>
      </trkpt>
      <trkpt lat="44.8477" lon="6.12944">
        <ele>2039</ele>
        <time>2024-08-13T12:52:41Z</time>
      </trkpt>
      <trkpt lat="44.84771" lon="6.1294">
        <ele>2039</ele>
        <time>2024-08-13T12:52:42Z</time>
      </trkpt>
      <trkpt lat="44.84771" lon="6.1294">
        <ele>2039</ele>
        <time>2024-08-13T12:52:43Z</time>
      </trkpt>
      <trkpt lat="44.84771" lon="6.1294">
        <ele>2039</ele>
        <time>2024-08-13T12:52:44Z</time>
      </trkpt>
      <trkpt lat="44.8477" lon="6.12936">
        <ele>2039.6</ele>
        <time>2024-08-13T12:52:45Z</time>
      </trkpt>
      <trkpt lat="44.8477" lon="6.12936">
        <ele>2039.8</ele>
        <time>2024-08-13T12:52:46Z</time>
      </trkpt>
      <trkpt lat="44.84769" lon="6.12933">
        <ele>2039.8</ele>
        <time>2024-08-13T12:52:47Z</time>
      </trkpt>
      <trkpt lat="44.84769" lon="6.12933">
        <ele>2039.8</ele>
        <time>2024-08-13T12:52:48Z</time>
      </trkpt>
      <trkpt lat="44.84768" lon="6.1293">
        <ele>2039.8</ele>
        <time>2024-08-13T12:52:49Z</time>
      </trkpt>
      <trkpt lat="44.84768" lon="6.1293">
        <ele>2039.6</ele>
        <time>2024-08-13T12:52:50Z</time>
      </trkpt>
      <trkpt lat="44.84768" lon="6.12928">
        <ele>2039.6</ele>
        <time>2024-08-13T12:52:51Z</time>
      </trkpt>
      <trkpt lat="44.84768" lon="6.12928">
        <ele>2040</ele>
        <time>2024-08-13T12:52:52Z</time>
      </trkpt>
      <trkpt lat="44.84768" lon="6.12928">
        <ele>2040</ele>
        <time>2024-08-13T12:52:53Z</time>
      </trkpt>
      <trkpt lat="44.84767" lon="6.12924">
        <ele>2040</ele>
        <time>2024-08-13T12:52:54Z</time>
      </trkpt>
      <trkpt lat="44.84767" lon="6.12924">
        <ele>2040.4</ele>
        <time>2024-08-13T12:52:55Z</time>
      </trkpt>
      <trkpt lat="44.84766" lon="6.12922">
        <ele>2040.4</ele>
        <time>2024-08-13T12:52:56Z</time>
      </trkpt>
      <trkpt lat="44.84766" lon="6.12922">
        <ele>2040.2</ele>
        <time>2024-08-13T12:52:57Z</time>
      </trkpt>
      <trkpt lat="44.84764" lon="6.1292">
        <ele>2040</ele>
        <time>2024-08-13T12:52:58Z</time>
      </trkpt>
      <trkpt lat="44.84764" lon="6.1292">
        <ele>2040</ele>
        <time>2024-08-13T12:52:59Z</time>
      </trkpt>
      <trkpt lat="44.84763" lon="6.12917">
        <ele>2040</ele>
        <time>2024-08-13T12:53:00Z</time>
      </trkpt>
      <trkpt lat="44.84763" lon="6.12917">
        <ele>2040</ele>
        <time>2024-08-13T12:53:01Z</time>
      </trkpt>
      <trkpt lat="44.84761" lon="6.12915">
        <ele>2039.8</ele>
        <time>2024-08-13T12:53:02Z</time>
      </trkpt>
      <trkpt lat="44.84761" lon="6.12915">
        <ele>2039.8</ele>
        <time>2024-08-13T12:53:03Z</time>
      </trkpt>
      <trkpt lat="44.84761" lon="6.12912">
        <ele>2040</ele>
        <time>2024-08-13T12:53:04Z</time>
      </trkpt>
      <trkpt lat="44.84761" lon="6.12912">
        <ele>2040</ele>
        <time>2024-08-13T12:53:05Z</time>
      </trkpt>
      <trkpt lat="44.8476" lon="6.12909">
        <ele>2040</ele>
        <time>2024-08-13T12:53:06Z</time>
      </trkpt>
      <trkpt lat="44.8476" lon="6.12909">
        <ele>2040</ele>
        <time>2024-08-13T12:53:07Z</time>
      </trkpt>
      <trkpt lat="44.8476" lon="6.12909">
        <ele>2040</ele>
        <time>2024-08-13T12:53:08Z</time>
      </trkpt>
      <trkpt lat="44.8476" lon="6.12905">
        <ele>2040.6</ele>
        <time>2024-08-13T12:53:09Z</time>
      </trkpt>
      <trkpt lat="44.8476" lon="6.12905">
        <ele>2040.6</ele>
        <time>2024-08-13T12:53:10Z</time>
      </trkpt>
      <trkpt lat="44.84759" lon="6.12902">
        <ele>2040.6</ele>
        <time>2024-08-13T12:53:11Z</time>
      </trkpt>
      <trkpt lat="44.84759" lon="6.12902">
        <ele>2041</ele>
        <time>2024-08-13T12:53:12Z</time>
      </trkpt>
      <trkpt lat="44.84758" lon="6.12899">
        <ele>2041.4</ele>
        <time>2024-08-13T12:53:13Z</time>
      </trkpt>
      <trkpt lat="44.84758" lon="6.12899">
        <ele>2041.6</ele>
        <time>2024-08-13T12:53:14Z</time>
      </trkpt>
      <trkpt lat="44.84758" lon="6.12896">
        <ele>2041.6</ele>
        <time>2024-08-13T12:53:15Z</time>
      </trkpt>
      <trkpt lat="44.84758" lon="6.12896">
        <ele>2041.4</ele>
        <time>2024-08-13T12:53:16Z</time>
      </trkpt>
      <trkpt lat="44.84758" lon="6.12893">
        <ele>2041.4</ele>
        <time>2024-08-13T12:53:17Z</time>
      </trkpt>
      <trkpt lat="44.84758" lon="6.12893">
        <ele>2041.4</ele>
        <time>2024-08-13T12:53:18Z</time>
      </trkpt>
      <trkpt lat="44.84758" lon="6.1289">
        <ele>2041.6</ele>
        <time>2024-08-13T12:53:19Z</time>
      </trkpt>
      <trkpt lat="44.84758" lon="6.1289">
        <ele>2041.4</ele>
        <time>2024-08-13T12:53:20Z</time>
      </trkpt>
      <trkpt lat="44.84758" lon="6.12887">
        <ele>2041.6</ele>
        <time>2024-08-13T12:53:21Z</time>
      </trkpt>
      <trkpt lat="44.84758" lon="6.12887">
        <ele>2041.6</ele>
        <time>2024-08-13T12:53:22Z</time>
      </trkpt>
      <trkpt lat="44.84758" lon="6.12887">
        <ele>2041.6</ele>
        <time>2024-08-13T12:53:23Z</time>
      </trkpt>
      <trkpt lat="44.84757" lon="6.12883">
        <ele>2041.6</ele>
        <time>2024-08-13T12:53:24Z</time>
      </trkpt>
      <trkpt lat="44.84757" lon="6.12883">
        <ele>2042</ele>
        <time>2024-08-13T12:53:25Z</time>
      </trkpt>
      <trkpt lat="44.84757" lon="6.1288">
        <ele>2042</ele>
        <time>2024-08-13T12:53:26Z</time>
      </trkpt>
      <trkpt lat="44.84757" lon="6.1288">
        <ele>2042</ele>
        <time>2024-08-13T12:53:27Z</time>
      </trkpt>
      <trkpt lat="44.84757" lon="6.12877">
        <ele>2042.6</ele>
        <time>2024-08-13T12:53:28Z</time>
      </trkpt>
      <trkpt lat="44.84757" lon="6.12877">
        <ele>2042.6</ele>
        <time>2024-08-13T12:53:29Z</time>
      </trkpt>
      <trkpt lat="44.84757" lon="6.12874">
        <ele>2042.8</ele>
        <time>2024-08-13T12:53:30Z</time>
      </trkpt>
      <trkpt lat="44.84757" lon="6.12874">
        <ele>2043</ele>
        <time>2024-08-13T12:53:31Z</time>
      </trkpt>
      <trkpt lat="44.84758" lon="6.12871">
        <ele>2043.2</ele>
        <time>2024-08-13T12:53:32Z</time>
      </trkpt>
      <trkpt lat="44.84758" lon="6.12871">
        <ele>2043.2</ele>
        <time>2024-08-13T12:53:33Z</time>
      </trkpt>
      <trkpt lat="44.84758" lon="6.12871">
        <ele>2043.2</ele>
        <time>2024-08-13T12:53:34Z</time>
      </trkpt>
      <trkpt lat="44.84759" lon="6.12868">
        <ele>2043.2</ele>
        <time>2024-08-13T12:53:35Z</time>
      </trkpt>
      <trkpt lat="44.84759" lon="6.12868">
        <ele>2043</ele>
        <time>2024-08-13T12:53:36Z</time>
      </trkpt>
      <trkpt lat="44.8476" lon="6.12865">
        <ele>2043</ele>
        <time>2024-08-13T12:53:37Z</time>
      </trkpt>
      <trkpt lat="44.8476" lon="6.12865">
        <ele>2043.2</ele>
        <time>2024-08-13T12:53:38Z</time>
      </trkpt>
      <trkpt lat="44.8476" lon="6.12862">
        <ele>2043.4</ele>
        <time>2024-08-13T12:53:39Z</time>
      </trkpt>
      <trkpt lat="44.8476" lon="6.12862">
        <ele>2043.4</ele>
        <time>2024-08-13T12:53:40Z</time>
      </trkpt>
      <trkpt lat="44.84761" lon="6.12858">
        <ele>2043.6</ele>
        <time>2024-08-13T12:53:41Z</time>
      </trkpt>
      <trkpt lat="44.84761" lon="6.12858">
        <ele>2043.8</ele>
        <time>2024-08-13T12:53:42Z</time>
      </trkpt>
      <trkpt lat="44.84761" lon="6.12855">
        <ele>2043.8</ele>
        <time>2024-08-13T12:53:43Z</time>
      </trkpt>
      <trkpt lat="44.84761" lon="6.12855">
        <ele>2043.8</ele>
        <time>2024-08-13T12:53:44Z</time>
      </trkpt>
      <trkpt lat="44.84762" lon="6.12852">
        <ele>2044.2</ele>
        <time>2024-08-13T12:53:45Z</time>
      </trkpt>
      <trkpt lat="44.84762" lon="6.12852">
        <ele>2044.2</ele>
        <time>2024-08-13T12:53:46Z</time>
      </trkpt>
      <trkpt lat="44.84762" lon="6.12849">
        <ele>2044.2</ele>
        <time>2024-08-13T12:53:47Z</time>
      </trkpt>
      <trkpt lat="44.84762" lon="6.12849">
        <ele>2044.2</ele>
        <time>2024-08-13T12:53:48Z</time>
      </trkpt>
      <trkpt lat="44.84762" lon="6.12845">
        <ele>2044.2</ele>
        <time>2024-08-13T12:53:49Z</time>
      </trkpt>
      <trkpt lat="44.84762" lon="6.12845">
        <ele>2044</ele>
        <time>2024-08-13T12:53:50Z</time>
      </trkpt>
      <trkpt lat="44.84762" lon="6.12842">
        <ele>2044</ele>
        <time>2024-08-13T12:53:51Z</time>
      </trkpt>
      <trkpt lat="44.84762" lon="6.12842">
        <ele>2044</ele>
        <time>2024-08-13T12:53:52Z</time>
      </trkpt>
      <trkpt lat="44.84762" lon="6.12839">
        <ele>2043.8</ele>
        <time>2024-08-13T12:53:53Z</time>
      </trkpt>
      <trkpt lat="44.84762" lon="6.12839">
        <ele>2043.8</ele>
        <time>2024-08-13T12:53:54Z</time>
      </trkpt>
      <trkpt lat="44.84762" lon="6.12836">
        <ele>2044</ele>
        <time>2024-08-13T12:53:55Z</time>
      </trkpt>
      <trkpt lat="44.84762" lon="6.12836">
        <ele>2044</ele>
        <time>2024-08-13T12:53:56Z</time>
      </trkpt>
      <trkpt lat="44.84762" lon="6.12836">
        <ele>2044</ele>
        <time>2024-08-13T12:53:57Z</time>
      </trkpt>
      <trkpt lat="44.84762" lon="6.12836">
        <ele>2044</ele>
        <time>2024-08-13T12:53:58Z</time>
      </trkpt>
      <trkpt lat="44.84762" lon="6.12833">
        <ele>2044</ele>
        <time>2024-08-13T12:53:59Z</time>
      </trkpt>
      <trkpt lat="44.84762" lon="6.12833">
        <ele>2044</ele>
        <time>2024-08-13T12:54:00Z</time>
      </trkpt>
      <trkpt lat="44.84761" lon="6.12831">
        <ele>2044.2</ele>
        <time>2024-08-13T12:54:01Z</time>
      </trkpt>
      <trkpt lat="44.84761" lon="6.12831">
        <ele>2044</ele>
        <time>2024-08-13T12:54:02Z</time>
      </trkpt>
      <trkpt lat="44.8476" lon="6.12828">
        <ele>2044</ele>
        <time>2024-08-13T12:54:03Z</time>
      </trkpt>
      <trkpt lat="44.8476" lon="6.12828">
        <ele>2044.2</ele>
        <time>2024-08-13T12:54:04Z</time>
      </trkpt>
      <trkpt lat="44.84758" lon="6.12826">
        <ele>2044.4</ele>
        <time>2024-08-13T12:54:05Z</time>
      </trkpt>
      <trkpt lat="44.84758" lon="6.12826">
        <ele>2044.4</ele>
        <time>2024-08-13T12:54:06Z</time>
      </trkpt>
      <trkpt lat="44.84756" lon="6.12823">
        <ele>2044.4</ele>
        <time>2024-08-13T12:54:07Z</time>
      </trkpt>
      <trkpt lat="44.84756" lon="6.12823">
        <ele>2044.6</ele>
        <time>2024-08-13T12:54:08Z</time>
      </trkpt>
      <trkpt lat="44.84755" lon="6.12821">
        <ele>2044.8</ele>
        <time>2024-08-13T12:54:09Z</time>
      </trkpt>
      <trkpt lat="44.84755" lon="6.12821">
        <ele>2044.8</ele>
        <time>2024-08-13T12:54:10Z</time>
      </trkpt>
      <trkpt lat="44.84754" lon="6.12818">
        <ele>2045</ele>
        <time>2024-08-13T12:54:11Z</time>
      </trkpt>
      <trkpt lat="44.84754" lon="6.12818">
        <ele>2045.2</ele>
        <time>2024-08-13T12:54:12Z</time>
      </trkpt>
      <trkpt lat="44.84754" lon="6.12818">
        <ele>2045.4</ele>
        <time>2024-08-13T12:54:13Z</time>
      </trkpt>
      <trkpt lat="44.84753" lon="6.12815">
        <ele>2045.4</ele>
        <time>2024-08-13T12:54:14Z</time>
      </trkpt>
      <trkpt lat="44.84753" lon="6.12815">
        <ele>2045.4</ele>
        <time>2024-08-13T12:54:15Z</time>
      </trkpt>
      <trkpt lat="44.84752" lon="6.12812">
        <ele>2045.6</ele>
        <time>2024-08-13T12:54:16Z</time>
      </trkpt>
      <trkpt lat="44.84752" lon="6.12812">
        <ele>2045.6</ele>
        <time>2024-08-13T12:54:17Z</time>
      </trkpt>
      <trkpt lat="44.84751" lon="6.1281">
        <ele>2045.8</ele>
        <time>2024-08-13T12:54:18Z</time>
      </trkpt>
      <trkpt lat="44.84751" lon="6.1281">
        <ele>2046</ele>
        <time>2024-08-13T12:54:19Z</time>
      </trkpt>
      <trkpt lat="44.8475" lon="6.12808">
        <ele>2046.2</ele>
        <time>2024-08-13T12:54:20Z</time>
      </trkpt>
      <trkpt lat="44.8475" lon="6.12808">
        <ele>2046.4</ele>
        <time>2024-08-13T12:54:21Z</time>
      </trkpt>
      <trkpt lat="44.84749" lon="6.12805">
        <ele>2046.6</ele>
        <time>2024-08-13T12:54:22Z</time>
      </trkpt>
      <trkpt lat="44.84749" lon="6.12805">
        <ele>2046.6</ele>
        <time>2024-08-13T12:54:23Z</time>
      </trkpt>
      <trkpt lat="44.84749" lon="6.12805">
        <ele>2046.8</ele>
        <time>2024-08-13T12:54:24Z</time>
      </trkpt>
      <trkpt lat="44.84748" lon="6.12802">
        <ele>2047.2</ele>
        <time>2024-08-13T12:54:25Z</time>
      </trkpt>
      <trkpt lat="44.84748" lon="6.12802">
        <ele>2047.2</ele>
        <time>2024-08-13T12:54:26Z</time>
      </trkpt>
      <trkpt lat="44.84747" lon="6.128">
        <ele>2047.4</ele>
        <time>2024-08-13T12:54:27Z</time>
      </trkpt>
      <trkpt lat="44.84747" lon="6.128">
        <ele>2047.6</ele>
        <time>2024-08-13T12:54:28Z</time>
      </trkpt>
      <trkpt lat="44.84747" lon="6.128">
        <ele>2047.8</ele>
        <time>2024-08-13T12:54:29Z</time>
      </trkpt>
      <trkpt lat="44.84746" lon="6.12796">
        <ele>2048.2</ele>
        <time>2024-08-13T12:54:30Z</time>
      </trkpt>
      <trkpt lat="44.84746" lon="6.12796">
        <ele>2048.2</ele>
        <time>2024-08-13T12:54:31Z</time>
      </trkpt>
      <trkpt lat="44.84745" lon="6.12793">
        <ele>2048.2</ele>
        <time>2024-08-13T12:54:32Z</time>
      </trkpt>
      <trkpt lat="44.84745" lon="6.12793">
        <ele>2048.4</ele>
        <time>2024-08-13T12:54:33Z</time>
      </trkpt>
      <trkpt lat="44.84745" lon="6.12793">
        <ele>2048.8</ele>
        <time>2024-08-13T12:54:34Z</time>
      </trkpt>
      <trkpt lat="44.84743" lon="6.12789">
        <ele>2048.8</ele>
        <time>2024-08-13T12:54:35Z</time>
      </trkpt>
      <trkpt lat="44.84743" lon="6.12789">
        <ele>2048.8</ele>
        <time>2024-08-13T12:54:36Z</time>
      </trkpt>
      <trkpt lat="44.84742" lon="6.12787">
        <ele>2048.6</ele>
        <time>2024-08-13T12:54:37Z</time>
      </trkpt>
      <trkpt lat="44.84742" lon="6.12787">
        <ele>2048.6</ele>
        <time>2024-08-13T12:54:38Z</time>
      </trkpt>
      <trkpt lat="44.84741" lon="6.12784">
        <ele>2048.6</ele>
        <time>2024-08-13T12:54:39Z</time>
      </trkpt>
      <trkpt lat="44.84741" lon="6.12784">
        <ele>2048.8</ele>
        <time>2024-08-13T12:54:40Z</time>
      </trkpt>
      <trkpt lat="44.84741" lon="6.12784">
        <ele>2049</ele>
        <time>2024-08-13T12:54:41Z</time>
      </trkpt>
      <trkpt lat="44.84741" lon="6.12782">
        <ele>2049.4</ele>
        <time>2024-08-13T12:54:42Z</time>
      </trkpt>
      <trkpt lat="44.84741" lon="6.12782">
        <ele>2049.4</ele>
        <time>2024-08-13T12:54:43Z</time>
      </trkpt>
      <trkpt lat="44.84741" lon="6.12779">
        <ele>2049.4</ele>
        <time>2024-08-13T12:54:44Z</time>
      </trkpt>
      <trkpt lat="44.84741" lon="6.12779">
        <ele>2049.6</ele>
        <time>2024-08-13T12:54:45Z</time>
      </trkpt>
      <trkpt lat="44.84741" lon="6.12779">
        <ele>2049.6</ele>
        <time>2024-08-13T12:54:46Z</time>
      </trkpt>
      <trkpt lat="44.84741" lon="6.12775">
        <ele>2050</ele>
        <time>2024-08-13T12:54:47Z</time>
      </trkpt>
      <trkpt lat="44.84741" lon="6.12775">
        <ele>2050.4</ele>
        <time>2024-08-13T12:54:48Z</time>
      </trkpt>
      <trkpt lat="44.84741" lon="6.12775">
        <ele>2050.4</ele>
        <time>2024-08-13T12:54:49Z</time>
      </trkpt>
      <trkpt lat="44.84741" lon="6.12772">
        <ele>2050.4</ele>
        <time>2024-08-13T12:54:50Z</time>
      </trkpt>
      <trkpt lat="44.84741" lon="6.12772">
        <ele>2050.4</ele>
        <time>2024-08-13T12:54:51Z</time>
      </trkpt>
      <trkpt lat="44.84741" lon="6.12772">
        <ele>2050.6</ele>
        <time>2024-08-13T12:54:52Z</time>
      </trkpt>
      <trkpt lat="44.84741" lon="6.12768">
        <ele>2050.8</ele>
        <time>2024-08-13T12:54:53Z</time>
      </trkpt>
      <trkpt lat="44.84741" lon="6.12768">
        <ele>2051.4</ele>
        <time>2024-08-13T12:54:54Z</time>
      </trkpt>
      <trkpt lat="44.84741" lon="6.12768">
        <ele>2051.6</ele>
        <time>2024-08-13T12:54:55Z</time>
      </trkpt>
      <trkpt lat="44.84741" lon="6.12765">
        <ele>2051.8</ele>
        <time>2024-08-13T12:54:56Z</time>
      </trkpt>
      <trkpt lat="44.84741" lon="6.12765">
        <ele>2052</ele>
        <time>2024-08-13T12:54:57Z</time>
      </trkpt>
      <trkpt lat="44.8474" lon="6.12763">
        <ele>2052</ele>
        <time>2024-08-13T12:54:58Z</time>
      </trkpt>
      <trkpt lat="44.8474" lon="6.12763">
        <ele>2052.2</ele>
        <time>2024-08-13T12:54:59Z</time>
      </trkpt>
      <trkpt lat="44.8474" lon="6.12763">
        <ele>2052.2</ele>
        <time>2024-08-13T12:55:00Z</time>
      </trkpt>
      <trkpt lat="44.84738" lon="6.1276">
        <ele>2052.2</ele>
        <time>2024-08-13T12:55:01Z</time>
      </trkpt>
      <trkpt lat="44.84738" lon="6.1276">
        <ele>2052.8</ele>
        <time>2024-08-13T12:55:02Z</time>
      </trkpt>
      <trkpt lat="44.84738" lon="6.1276">
        <ele>2052.8</ele>
        <time>2024-08-13T12:55:03Z</time>
      </trkpt>
      <trkpt lat="44.84738" lon="6.1276">
        <ele>2053</ele>
        <time>2024-08-13T12:55:04Z</time>
      </trkpt>
      <trkpt lat="44.84736" lon="6.12758">
        <ele>2053</ele>
        <time>2024-08-13T12:55:05Z</time>
      </trkpt>
      <trkpt lat="44.84736" lon="6.12758">
        <ele>2053</ele>
        <time>2024-08-13T12:55:06Z</time>
      </trkpt>
      <trkpt lat="44.84736" lon="6.12758">
        <ele>2053</ele>
        <time>2024-08-13T12:55:07Z</time>
      </trkpt>
      <trkpt lat="44.84734" lon="6.12755">
        <ele>2053</ele>
        <time>2024-08-13T12:55:08Z</time>
      </trkpt>
      <trkpt lat="44.84734" lon="6.12755">
        <ele>2053.4</ele>
        <time>2024-08-13T12:55:09Z</time>
      </trkpt>
      <trkpt lat="44.84733" lon="6.12753">
        <ele>2053.6</ele>
        <time>2024-08-13T12:55:10Z</time>
      </trkpt>
      <trkpt lat="44.84733" lon="6.12753">
        <ele>2053.6</ele>
        <time>2024-08-13T12:55:11Z</time>
      </trkpt>
      <trkpt lat="44.84733" lon="6.12751">
        <ele>2053.6</ele>
        <time>2024-08-13T12:55:12Z</time>
      </trkpt>
      <trkpt lat="44.84733" lon="6.12751">
        <ele>2053.6</ele>
        <time>2024-08-13T12:55:13Z</time>
      </trkpt>
      <trkpt lat="44.84732" lon="6.12748">
        <ele>2053.6</ele>
        <time>2024-08-13T12:55:14Z</time>
      </trkpt>
      <trkpt lat="44.84732" lon="6.12748">
        <ele>2053.6</ele>
        <time>2024-08-13T12:55:15Z</time>
      </trkpt>
      <trkpt lat="44.84731" lon="6.12745">
        <ele>2053.6</ele>
        <time>2024-08-13T12:55:16Z</time>
      </trkpt>
      <trkpt lat="44.84731" lon="6.12745">
        <ele>2053.6</ele>
        <time>2024-08-13T12:55:17Z</time>
      </trkpt>
      <trkpt lat="44.84731" lon="6.12745">
        <ele>2053.6</ele>
        <time>2024-08-13T12:55:18Z</time>
      </trkpt>
      <trkpt lat="44.84729" lon="6.12742">
        <ele>2054</ele>
        <time>2024-08-13T12:55:19Z</time>
      </trkpt>
      <trkpt lat="44.84729" lon="6.12742">
        <ele>2054</ele>
        <time>2024-08-13T12:55:20Z</time>
      </trkpt>
      <trkpt lat="44.84727" lon="6.1274">
        <ele>2054</ele>
        <time>2024-08-13T12:55:21Z</time>
      </trkpt>
      <trkpt lat="44.84727" lon="6.1274">
        <ele>2054</ele>
        <time>2024-08-13T12:55:22Z</time>
      </trkpt>
      <trkpt lat="44.84727" lon="6.12737">
        <ele>2054</ele>
        <time>2024-08-13T12:55:23Z</time>
      </trkpt>
      <trkpt lat="44.84727" lon="6.12737">
        <ele>2054</ele>
        <time>2024-08-13T12:55:24Z</time>
      </trkpt>
      <trkpt lat="44.84727" lon="6.12737">
        <ele>2054</ele>
        <time>2024-08-13T12:55:25Z</time>
      </trkpt>
      <trkpt lat="44.84726" lon="6.12733">
        <ele>2054</ele>
        <time>2024-08-13T12:55:26Z</time>
      </trkpt>
      <trkpt lat="44.84726" lon="6.12733">
        <ele>2054.2</ele>
        <time>2024-08-13T12:55:27Z</time>
      </trkpt>
      <trkpt lat="44.84725" lon="6.12731">
        <ele>2054.4</ele>
        <time>2024-08-13T12:55:28Z</time>
      </trkpt>
      <trkpt lat="44.84725" lon="6.12731">
        <ele>2054.4</ele>
        <time>2024-08-13T12:55:29Z</time>
      </trkpt>
      <trkpt lat="44.84725" lon="6.12727">
        <ele>2055</ele>
        <time>2024-08-13T12:55:30Z</time>
      </trkpt>
      <trkpt lat="44.84725" lon="6.12727">
        <ele>2055.2</ele>
        <time>2024-08-13T12:55:31Z</time>
      </trkpt>
      <trkpt lat="44.84724" lon="6.12724">
        <ele>2055.2</ele>
        <time>2024-08-13T12:55:32Z</time>
      </trkpt>
      <trkpt lat="44.84724" lon="6.12724">
        <ele>2055.2</ele>
        <time>2024-08-13T12:55:33Z</time>
      </trkpt>
      <trkpt lat="44.84724" lon="6.12721">
        <ele>2055.4</ele>
        <time>2024-08-13T12:55:34Z</time>
      </trkpt>
      <trkpt lat="44.84724" lon="6.12721">
        <ele>2055.4</ele>
        <time>2024-08-13T12:55:35Z</time>
      </trkpt>
      <trkpt lat="44.84724" lon="6.12721">
        <ele>2055.6</ele>
        <time>2024-08-13T12:55:36Z</time>
      </trkpt>
      <trkpt lat="44.84724" lon="6.12721">
        <ele>2055.6</ele>
        <time>2024-08-13T12:55:37Z</time>
      </trkpt>
      <trkpt lat="44.84724" lon="6.12721">
        <ele>2055.8</ele>
        <time>2024-08-13T12:55:38Z</time>
      </trkpt>
      <trkpt lat="44.84724" lon="6.12721">
        <ele>2055.8</ele>
        <time>2024-08-13T12:55:39Z</time>
      </trkpt>
      <trkpt lat="44.84724" lon="6.12721">
        <ele>2056</ele>
        <time>2024-08-13T12:55:40Z</time>
      </trkpt>
      <trkpt lat="44.84724" lon="6.12721">
        <ele>2056.4</ele>
        <time>2024-08-13T12:55:41Z</time>
      </trkpt>
      <trkpt lat="44.84724" lon="6.12721">
        <ele>2056.6</ele>
        <time>2024-08-13T12:55:42Z</time>
      </trkpt>
      <trkpt lat="44.84724" lon="6.12721">
        <ele>2056.6</ele>
        <time>2024-08-13T12:55:43Z</time>
      </trkpt>
      <trkpt lat="44.84724" lon="6.12721">
        <ele>2056.6</ele>
        <time>2024-08-13T12:55:44Z</time>
      </trkpt>
      <trkpt lat="44.84724" lon="6.12721">
        <ele>2056.6</ele>
        <time>2024-08-13T12:55:45Z</time>
      </trkpt>
      <trkpt lat="44.84724" lon="6.12721">
        <ele>2056.6</ele>
        <time>2024-08-13T12:55:46Z</time>
      </trkpt>
      <trkpt lat="44.84724" lon="6.12721">
        <ele>2056.6</ele>
        <time>2024-08-13T12:55:47Z</time>
      </trkpt>
      <trkpt lat="44.84724" lon="6.12721">
        <ele>2057</ele>
        <time>2024-08-13T12:55:48Z</time>
      </trkpt>
      <trkpt lat="44.84724" lon="6.12721">
        <ele>2057</ele>
        <time>2024-08-13T12:55:49Z</time>
      </trkpt>
      <trkpt lat="44.84724" lon="6.12721">
        <ele>2056.8</ele>
        <time>2024-08-13T12:55:50Z</time>
      </trkpt>
      <trkpt lat="44.84724" lon="6.12721">
        <ele>2056.4</ele>
        <time>2024-08-13T12:55:51Z</time>
      </trkpt>
      <trkpt lat="44.84724" lon="6.12721">
        <ele>2056.4</ele>
        <time>2024-08-13T12:55:52Z</time>
      </trkpt>
      <trkpt lat="44.84724" lon="6.12721">
        <ele>2056.2</ele>
        <time>2024-08-13T12:55:53Z</time>
      </trkpt>
      <trkpt lat="44.84722" lon="6.12719">
        <ele>2056.2</ele>
        <time>2024-08-13T12:55:54Z</time>
      </trkpt>
      <trkpt lat="44.84722" lon="6.12719">
        <ele>2056</ele>
        <time>2024-08-13T12:55:55Z</time>
      </trkpt>
      <trkpt lat="44.84721" lon="6.12717">
        <ele>2056</ele>
        <time>2024-08-13T12:55:56Z</time>
      </trkpt>
      <trkpt lat="44.84721" lon="6.12717">
        <ele>2055.8</ele>
        <time>2024-08-13T12:55:57Z</time>
      </trkpt>
      <trkpt lat="44.8472" lon="6.12713">
        <ele>2055.8</ele>
        <time>2024-08-13T12:55:58Z</time>
      </trkpt>
      <trkpt lat="44.8472" lon="6.12713">
        <ele>2055.4</ele>
        <time>2024-08-13T12:55:59Z</time>
      </trkpt>
      <trkpt lat="44.84719" lon="6.12709">
        <ele>2055.4</ele>
        <time>2024-08-13T12:56:00Z</time>
      </trkpt>
      <trkpt lat="44.84719" lon="6.12709">
        <ele>2056</ele>
        <time>2024-08-13T12:56:01Z</time>
      </trkpt>
      <trkpt lat="44.84718" lon="6.12707">
        <ele>2056</ele>
        <time>2024-08-13T12:56:02Z</time>
      </trkpt>
      <trkpt lat="44.84718" lon="6.12707">
        <ele>2056</ele>
        <time>2024-08-13T12:56:03Z</time>
      </trkpt>
      <trkpt lat="44.84717" lon="6.12704">
        <ele>2056</ele>
        <time>2024-08-13T12:56:04Z</time>
      </trkpt>
      <trkpt lat="44.84717" lon="6.12704">
        <ele>2056</ele>
        <time>2024-08-13T12:56:05Z</time>
      </trkpt>
      <trkpt lat="44.84717" lon="6.127">
        <ele>2056.2</ele>
        <time>2024-08-13T12:56:06Z</time>
      </trkpt>
      <trkpt lat="44.84717" lon="6.127">
        <ele>2056.2</ele>
        <time>2024-08-13T12:56:07Z</time>
      </trkpt>
      <trkpt lat="44.84717" lon="6.12697">
        <ele>2056.6</ele>
        <time>2024-08-13T12:56:08Z</time>
      </trkpt>
      <trkpt lat="44.84717" lon="6.12697">
        <ele>2056.6</ele>
        <time>2024-08-13T12:56:09Z</time>
      </trkpt>
      <trkpt lat="44.84717" lon="6.12695">
        <ele>2056.6</ele>
        <time>2024-08-13T12:56:10Z</time>
      </trkpt>
      <trkpt lat="44.84717" lon="6.12695">
        <ele>2056.8</ele>
        <time>2024-08-13T12:56:11Z</time>
      </trkpt>
      <trkpt lat="44.84718" lon="6.12691">
        <ele>2056.8</ele>
        <time>2024-08-13T12:56:12Z</time>
      </trkpt>
      <trkpt lat="44.84718" lon="6.12691">
        <ele>2057.2</ele>
        <time>2024-08-13T12:56:13Z</time>
      </trkpt>
      <trkpt lat="44.84718" lon="6.12691">
        <ele>2057.2</ele>
        <time>2024-08-13T12:56:14Z</time>
      </trkpt>
      <trkpt lat="44.84719" lon="6.12688">
        <ele>2057.6</ele>
        <time>2024-08-13T12:56:15Z</time>
      </trkpt>
      <trkpt lat="44.84719" lon="6.12688">
        <ele>2058</ele>
        <time>2024-08-13T12:56:16Z</time>
      </trkpt>
      <trkpt lat="44.84719" lon="6.12688">
        <ele>2058</ele>
        <time>2024-08-13T12:56:17Z</time>
      </trkpt>
      <trkpt lat="44.84718" lon="6.12684">
        <ele>2058.4</ele>
        <time>2024-08-13T12:56:18Z</time>
      </trkpt>
      <trkpt lat="44.84718" lon="6.12684">
        <ele>2058.8</ele>
        <time>2024-08-13T12:56:19Z</time>
      </trkpt>
      <trkpt lat="44.84717" lon="6.12681">
        <ele>2058.8</ele>
        <time>2024-08-13T12:56:20Z</time>
      </trkpt>
      <trkpt lat="44.84717" lon="6.12681">
        <ele>2059</ele>
        <time>2024-08-13T12:56:21Z</time>
      </trkpt>
      <trkpt lat="44.84717" lon="6.12679">
        <ele>2059</ele>
        <time>2024-08-13T12:56:22Z</time>
      </trkpt>
      <trkpt lat="44.84717" lon="6.12679">
        <ele>2059.2</ele>
        <time>2024-08-13T12:56:23Z</time>
      </trkpt>
      <trkpt lat="44.84717" lon="6.12676">
        <ele>2059.2</ele>
        <time>2024-08-13T12:56:24Z</time>
      </trkpt>
      <trkpt lat="44.84717" lon="6.12676">
        <ele>2059.4</ele>
        <time>2024-08-13T12:56:25Z</time>
      </trkpt>
      <trkpt lat="44.84717" lon="6.12676">
        <ele>2059.4</ele>
        <time>2024-08-13T12:56:26Z</time>
      </trkpt>
      <trkpt lat="44.84717" lon="6.12673">
        <ele>2059.4</ele>
        <time>2024-08-13T12:56:27Z</time>
      </trkpt>
      <trkpt lat="44.84717" lon="6.12673">
        <ele>2059.8</ele>
        <time>2024-08-13T12:56:28Z</time>
      </trkpt>
      <trkpt lat="44.84717" lon="6.1267">
        <ele>2059.8</ele>
        <time>2024-08-13T12:56:29Z</time>
      </trkpt>
      <trkpt lat="44.84717" lon="6.1267">
        <ele>2059.8</ele>
        <time>2024-08-13T12:56:30Z</time>
      </trkpt>
      <trkpt lat="44.84717" lon="6.12667">
        <ele>2060</ele>
        <time>2024-08-13T12:56:31Z</time>
      </trkpt>
      <trkpt lat="44.84717" lon="6.12667">
        <ele>2060.2</ele>
        <time>2024-08-13T12:56:32Z</time>
      </trkpt>
      <trkpt lat="44.84717" lon="6.12664">
        <ele>2060.2</ele>
        <time>2024-08-13T12:56:33Z</time>
      </trkpt>
      <trkpt lat="44.84717" lon="6.12664">
        <ele>2060.2</ele>
        <time>2024-08-13T12:56:34Z</time>
      </trkpt>
      <trkpt lat="44.84717" lon="6.12661">
        <ele>2060.4</ele>
        <time>2024-08-13T12:56:35Z</time>
      </trkpt>
      <trkpt lat="44.84717" lon="6.12661">
        <ele>2060.4</ele>
        <time>2024-08-13T12:56:36Z</time>
      </trkpt>
      <trkpt lat="44.84717" lon="6.12658">
        <ele>2060.6</ele>
        <time>2024-08-13T12:56:37Z</time>
      </trkpt>
      <trkpt lat="44.84717" lon="6.12658">
        <ele>2060.8</ele>
        <time>2024-08-13T12:56:38Z</time>
      </trkpt>
      <trkpt lat="44.84717" lon="6.12655">
        <ele>2061</ele>
        <time>2024-08-13T12:56:39Z</time>
      </trkpt>
      <trkpt lat="44.84717" lon="6.12655">
        <ele>2061</ele>
        <time>2024-08-13T12:56:40Z</time>
      </trkpt>
      <trkpt lat="44.84717" lon="6.12652">
        <ele>2061</ele>
        <time>2024-08-13T12:56:41Z</time>
      </trkpt>
      <trkpt lat="44.84717" lon="6.12652">
        <ele>2061</ele>
        <time>2024-08-13T12:56:42Z</time>
      </trkpt>
      <trkpt lat="44.84717" lon="6.12649">
        <ele>2061</ele>
        <time>2024-08-13T12:56:43Z</time>
      </trkpt>
      <trkpt lat="44.84717" lon="6.12649">
        <ele>2061.4</ele>
        <time>2024-08-13T12:56:44Z</time>
      </trkpt>
      <trkpt lat="44.84717" lon="6.12649">
        <ele>2061.4</ele>
        <time>2024-08-13T12:56:45Z</time>
      </trkpt>
      <trkpt lat="44.84717" lon="6.12645">
        <ele>2061.8</ele>
        <time>2024-08-13T12:56:46Z</time>
      </trkpt>
      <trkpt lat="44.84717" lon="6.12645">
        <ele>2061.8</ele>
        <time>2024-08-13T12:56:47Z</time>
      </trkpt>
      <trkpt lat="44.84717" lon="6.12643">
        <ele>2062</ele>
        <time>2024-08-13T12:56:48Z</time>
      </trkpt>
      <trkpt lat="44.84717" lon="6.12643">
        <ele>2062</ele>
        <time>2024-08-13T12:56:49Z</time>
      </trkpt>
      <trkpt lat="44.84717" lon="6.1264">
        <ele>2062</ele>
        <time>2024-08-13T12:56:50Z</time>
      </trkpt>
      <trkpt lat="44.84717" lon="6.1264">
        <ele>2062</ele>
        <time>2024-08-13T12:56:51Z</time>
      </trkpt>
      <trkpt lat="44.84717" lon="6.12637">
        <ele>2062.2</ele>
        <time>2024-08-13T12:56:52Z</time>
      </trkpt>
      <trkpt lat="44.84717" lon="6.12637">
        <ele>2062.4</ele>
        <time>2024-08-13T12:56:53Z</time>
      </trkpt>
      <trkpt lat="44.84717" lon="6.12634">
        <ele>2062.6</ele>
        <time>2024-08-13T12:56:54Z</time>
      </trkpt>
      <trkpt lat="44.84717" lon="6.12634">
        <ele>2062.6</ele>
        <time>2024-08-13T12:56:55Z</time>
      </trkpt>
      <trkpt lat="44.84717" lon="6.12631">
        <ele>2062.6</ele>
        <time>2024-08-13T12:56:56Z</time>
      </trkpt>
      <trkpt lat="44.84717" lon="6.12631">
        <ele>2062.8</ele>
        <time>2024-08-13T12:56:57Z</time>
      </trkpt>
      <trkpt lat="44.84717" lon="6.12627">
        <ele>2062.8</ele>
        <time>2024-08-13T12:56:58Z</time>
      </trkpt>
      <trkpt lat="44.84717" lon="6.12627">
        <ele>2063.2</ele>
        <time>2024-08-13T12:56:59Z</time>
      </trkpt>
      <trkpt lat="44.84717" lon="6.12624">
        <ele>2063.2</ele>
        <time>2024-08-13T12:57:00Z</time>
      </trkpt>
      <trkpt lat="44.84717" lon="6.12624">
        <ele>2063.4</ele>
        <time>2024-08-13T12:57:01Z</time>
      </trkpt>
      <trkpt lat="44.84717" lon="6.12621">
        <ele>2064</ele>
        <time>2024-08-13T12:57:02Z</time>
      </trkpt>
      <trkpt lat="44.84717" lon="6.12621">
        <ele>2064</ele>
        <time>2024-08-13T12:57:03Z</time>
      </trkpt>
      <trkpt lat="44.84718" lon="6.12619">
        <ele>2063.8</ele>
        <time>2024-08-13T12:57:04Z</time>
      </trkpt>
      <trkpt lat="44.84718" lon="6.12619">
        <ele>2063.8</ele>
        <time>2024-08-13T12:57:05Z</time>
      </trkpt>
      <trkpt lat="44.84718" lon="6.12619">
        <ele>2063.8</ele>
        <time>2024-08-13T12:57:06Z</time>
      </trkpt>
      <trkpt lat="44.84718" lon="6.12615">
        <ele>2064</ele>
        <time>2024-08-13T12:57:07Z</time>
      </trkpt>
      <trkpt lat="44.84718" lon="6.12615">
        <ele>2064</ele>
        <time>2024-08-13T12:57:08Z</time>
      </trkpt>
      <trkpt lat="44.84719" lon="6.12612">
        <ele>2064</ele>
        <time>2024-08-13T12:57:09Z</time>
      </trkpt>
      <trkpt lat="44.84719" lon="6.12612">
        <ele>2064.2</ele>
        <time>2024-08-13T12:57:10Z</time>
      </trkpt>
      <trkpt lat="44.84719" lon="6.12612">
        <ele>2064.4</ele>
        <time>2024-08-13T12:57:11Z</time>
      </trkpt>
      <trkpt lat="44.84719" lon="6.12608">
        <ele>2064.4</ele>
        <time>2024-08-13T12:57:12Z</time>
      </trkpt>
      <trkpt lat="44.84719" lon="6.12608">
        <ele>2064.6</ele>
        <time>2024-08-13T12:57:13Z</time>
      </trkpt>
      <trkpt lat="44.8472" lon="6.12606">
        <ele>2064.6</ele>
        <time>2024-08-13T12:57:14Z</time>
      </trkpt>
      <trkpt lat="44.8472" lon="6.12606">
        <ele>2064.8</ele>
        <time>2024-08-13T12:57:15Z</time>
      </trkpt>
      <trkpt lat="44.8472" lon="6.12606">
        <ele>2065</ele>
        <time>2024-08-13T12:57:16Z</time>
      </trkpt>
      <trkpt lat="44.84721" lon="6.12602">
        <ele>2065</ele>
        <time>2024-08-13T12:57:17Z</time>
      </trkpt>
      <trkpt lat="44.84721" lon="6.12602">
        <ele>2065</ele>
        <time>2024-08-13T12:57:18Z</time>
      </trkpt>
      <trkpt lat="44.8472" lon="6.126">
        <ele>2065.4</ele>
        <time>2024-08-13T12:57:19Z</time>
      </trkpt>
      <trkpt lat="44.8472" lon="6.126">
        <ele>2065.4</ele>
        <time>2024-08-13T12:57:20Z</time>
      </trkpt>
      <trkpt lat="44.8472" lon="6.126">
        <ele>2065.8</ele>
        <time>2024-08-13T12:57:21Z</time>
      </trkpt>
      <trkpt lat="44.8472" lon="6.12597">
        <ele>2065.8</ele>
        <time>2024-08-13T12:57:22Z</time>
      </trkpt>
      <trkpt lat="44.8472" lon="6.12597">
        <ele>2066.2</ele>
        <time>2024-08-13T12:57:23Z</time>
      </trkpt>
      <trkpt lat="44.8472" lon="6.12597">
        <ele>2066.4</ele>
        <time>2024-08-13T12:57:24Z</time>
      </trkpt>
      <trkpt lat="44.84718" lon="6.12594">
        <ele>2066.4</ele>
        <time>2024-08-13T12:57:25Z</time>
      </trkpt>
      <trkpt lat="44.84718" lon="6.12594">
        <ele>2066.4</ele>
        <time>2024-08-13T12:57:26Z</time>
      </trkpt>
      <trkpt lat="44.84717" lon="6.12592">
        <ele>2066.6</ele>
        <time>2024-08-13T12:57:27Z</time>
      </trkpt>
      <trkpt lat="44.84717" lon="6.12592">
        <ele>2066.6</ele>
        <time>2024-08-13T12:57:28Z</time>
      </trkpt>
      <trkpt lat="44.84716" lon="6.12589">
        <ele>2066.6</ele>
        <time>2024-08-13T12:57:29Z</time>
      </trkpt>
      <trkpt lat="44.84716" lon="6.12589">
        <ele>2066.6</ele>
        <time>2024-08-13T12:57:30Z</time>
      </trkpt>
      <trkpt lat="44.84715" lon="6.12586">
        <ele>2066.4</ele>
        <time>2024-08-13T12:57:31Z</time>
      </trkpt>
      <trkpt lat="44.84715" lon="6.12586">
        <ele>2066.4</ele>
        <time>2024-08-13T12:57:32Z</time>
      </trkpt>
      <trkpt lat="44.84714" lon="6.12584">
        <ele>2066.6</ele>
        <time>2024-08-13T12:57:33Z</time>
      </trkpt>
      <trkpt lat="44.84714" lon="6.12584">
        <ele>2066.6</ele>
        <time>2024-08-13T12:57:34Z</time>
      </trkpt>
      <trkpt lat="44.84715" lon="6.12581">
        <ele>2066.8</ele>
        <time>2024-08-13T12:57:35Z</time>
      </trkpt>
      <trkpt lat="44.84715" lon="6.12581">
        <ele>2067</ele>
        <time>2024-08-13T12:57:36Z</time>
      </trkpt>
      <trkpt lat="44.84715" lon="6.12577">
        <ele>2067</ele>
        <time>2024-08-13T12:57:37Z</time>
      </trkpt>
      <trkpt lat="44.84715" lon="6.12577">
        <ele>2067</ele>
        <time>2024-08-13T12:57:38Z</time>
      </trkpt>
      <trkpt lat="44.84715" lon="6.12577">
        <ele>2067.2</ele>
        <time>2024-08-13T12:57:39Z</time>
      </trkpt>
      <trkpt lat="44.84713" lon="6.12574">
        <ele>2067.4</ele>
        <time>2024-08-13T12:57:40Z</time>
      </trkpt>
      <trkpt lat="44.84713" lon="6.12574">
        <ele>2067.4</ele>
        <time>2024-08-13T12:57:41Z</time>
      </trkpt>
      <trkpt lat="44.84713" lon="6.12571">
        <ele>2067.4</ele>
        <time>2024-08-13T12:57:42Z</time>
      </trkpt>
      <trkpt lat="44.84713" lon="6.12571">
        <ele>2067.6</ele>
        <time>2024-08-13T12:57:43Z</time>
      </trkpt>
      <trkpt lat="44.84712" lon="6.12568">
        <ele>2067.6</ele>
        <time>2024-08-13T12:57:44Z</time>
      </trkpt>
      <trkpt lat="44.84712" lon="6.12568">
        <ele>2067.6</ele>
        <time>2024-08-13T12:57:45Z</time>
      </trkpt>
      <trkpt lat="44.84711" lon="6.12565">
        <ele>2068</ele>
        <time>2024-08-13T12:57:46Z</time>
      </trkpt>
      <trkpt lat="44.84711" lon="6.12565">
        <ele>2068.2</ele>
        <time>2024-08-13T12:57:47Z</time>
      </trkpt>
      <trkpt lat="44.84711" lon="6.12562">
        <ele>2068.2</ele>
        <time>2024-08-13T12:57:48Z</time>
      </trkpt>
      <trkpt lat="44.84711" lon="6.12562">
        <ele>2068.2</ele>
        <time>2024-08-13T12:57:49Z</time>
      </trkpt>
      <trkpt lat="44.84711" lon="6.12562">
        <ele>2068.2</ele>
        <time>2024-08-13T12:57:50Z</time>
      </trkpt>
      <trkpt lat="44.84709" lon="6.12559">
        <ele>2068.2</ele>
        <time>2024-08-13T12:57:51Z</time>
      </trkpt>
      <trkpt lat="44.84709" lon="6.12559">
        <ele>2068.6</ele>
        <time>2024-08-13T12:57:52Z</time>
      </trkpt>
      <trkpt lat="44.84709" lon="6.12556">
        <ele>2068.8</ele>
        <time>2024-08-13T12:57:53Z</time>
      </trkpt>
      <trkpt lat="44.84709" lon="6.12556">
        <ele>2069</ele>
        <time>2024-08-13T12:57:54Z</time>
      </trkpt>
      <trkpt lat="44.84709" lon="6.12556">
        <ele>2069.4</ele>
        <time>2024-08-13T12:57:55Z</time>
      </trkpt>
      <trkpt lat="44.84709" lon="6.12552">
        <ele>2069.4</ele>
        <time>2024-08-13T12:57:56Z</time>
      </trkpt>
      <trkpt lat="44.84709" lon="6.12552">
        <ele>2069.4</ele>
        <time>2024-08-13T12:57:57Z</time>
      </trkpt>
      <trkpt lat="44.84707" lon="6.1255">
        <ele>2069.4</ele>
        <time>2024-08-13T12:57:58Z</time>
      </trkpt>
      <trkpt lat="44.84707" lon="6.1255">
        <ele>2069.6</ele>
        <time>2024-08-13T12:57:59Z</time>
      </trkpt>
      <trkpt lat="44.84706" lon="6.12547">
        <ele>2069.8</ele>
        <time>2024-08-13T12:58:00Z</time>
      </trkpt>
      <trkpt lat="44.84706" lon="6.12547">
        <ele>2070</ele>
        <time>2024-08-13T12:58:01Z</time>
      </trkpt>
      <trkpt lat="44.84705" lon="6.12544">
        <ele>2069.8</ele>
        <time>2024-08-13T12:58:02Z</time>
      </trkpt>
      <trkpt lat="44.84705" lon="6.12544">
        <ele>2069.8</ele>
        <time>2024-08-13T12:58:03Z</time>
      </trkpt>
      <trkpt lat="44.84704" lon="6.1254">
        <ele>2069.8</ele>
        <time>2024-08-13T12:58:04Z</time>
      </trkpt>
      <trkpt lat="44.84704" lon="6.1254">
        <ele>2069.8</ele>
        <time>2024-08-13T12:58:05Z</time>
      </trkpt>
      <trkpt lat="44.84703" lon="6.12537">
        <ele>2070</ele>
        <time>2024-08-13T12:58:06Z</time>
      </trkpt>
      <trkpt lat="44.84703" lon="6.12537">
        <ele>2070</ele>
        <time>2024-08-13T12:58:07Z</time>
      </trkpt>
      <trkpt lat="44.84703" lon="6.12537">
        <ele>2070</ele>
        <time>2024-08-13T12:58:08Z</time>
      </trkpt>
      <trkpt lat="44.84701" lon="6.12534">
        <ele>2070.2</ele>
        <time>2024-08-13T12:58:09Z</time>
      </trkpt>
      <trkpt lat="44.84701" lon="6.12534">
        <ele>2070.4</ele>
        <time>2024-08-13T12:58:10Z</time>
      </trkpt>
      <trkpt lat="44.84699" lon="6.12532">
        <ele>2070.4</ele>
        <time>2024-08-13T12:58:11Z</time>
      </trkpt>
      <trkpt lat="44.84699" lon="6.12532">
        <ele>2070.4</ele>
        <time>2024-08-13T12:58:12Z</time>
      </trkpt>
      <trkpt lat="44.84698" lon="6.1253">
        <ele>2070.8</ele>
        <time>2024-08-13T12:58:13Z</time>
      </trkpt>
      <trkpt lat="44.84698" lon="6.1253">
        <ele>2071</ele>
        <time>2024-08-13T12:58:14Z</time>
      </trkpt>
      <trkpt lat="44.84695" lon="6.12529">
        <ele>2071</ele>
        <time>2024-08-13T12:58:15Z</time>
      </trkpt>
      <trkpt lat="44.84695" lon="6.12529">
        <ele>2071</ele>
        <time>2024-08-13T12:58:16Z</time>
      </trkpt>
      <trkpt lat="44.84693" lon="6.12527">
        <ele>2071</ele>
        <time>2024-08-13T12:58:17Z</time>
      </trkpt>
      <trkpt lat="44.84693" lon="6.12527">
        <ele>2071</ele>
        <time>2024-08-13T12:58:18Z</time>
      </trkpt>
      <trkpt lat="44.84693" lon="6.12527">
        <ele>2071</ele>
        <time>2024-08-13T12:58:19Z</time>
      </trkpt>
      <trkpt lat="44.84691" lon="6.12524">
        <ele>2071.6</ele>
        <time>2024-08-13T12:58:20Z</time>
      </trkpt>
      <trkpt lat="44.84691" lon="6.12524">
        <ele>2071.6</ele>
        <time>2024-08-13T12:58:21Z</time>
      </trkpt>
      <trkpt lat="44.84689" lon="6.12521">
        <ele>2071.4</ele>
        <time>2024-08-13T12:58:22Z</time>
      </trkpt>
      <trkpt lat="44.84689" lon="6.12521">
        <ele>2071.4</ele>
        <time>2024-08-13T12:58:23Z</time>
      </trkpt>
      <trkpt lat="44.84687" lon="6.1252">
        <ele>2071.4</ele>
        <time>2024-08-13T12:58:24Z</time>
      </trkpt>
      <trkpt lat="44.84687" lon="6.1252">
        <ele>2071.8</ele>
        <time>2024-08-13T12:58:25Z</time>
      </trkpt>
      <trkpt lat="44.84685" lon="6.12518">
        <ele>2072.2</ele>
        <time>2024-08-13T12:58:26Z</time>
      </trkpt>
      <trkpt lat="44.84685" lon="6.12518">
        <ele>2072.6</ele>
        <time>2024-08-13T12:58:27Z</time>
      </trkpt>
      <trkpt lat="44.84684" lon="6.12517">
        <ele>2072.6</ele>
        <time>2024-08-13T12:58:28Z</time>
      </trkpt>
      <trkpt lat="44.84684" lon="6.12517">
        <ele>2072.6</ele>
        <time>2024-08-13T12:58:29Z</time>
      </trkpt>
      <trkpt lat="44.84682" lon="6.12516">
        <ele>2072.8</ele>
        <time>2024-08-13T12:58:30Z</time>
      </trkpt>
      <trkpt lat="44.84682" lon="6.12516">
        <ele>2072.8</ele>
        <time>2024-08-13T12:58:31Z</time>
      </trkpt>
      <trkpt lat="44.84679" lon="6.12515">
        <ele>2073</ele>
        <time>2024-08-13T12:58:32Z</time>
      </trkpt>
      <trkpt lat="44.84679" lon="6.12515">
        <ele>2073</ele>
        <time>2024-08-13T12:58:33Z</time>
      </trkpt>
      <trkpt lat="44.84677" lon="6.12513">
        <ele>2073.2</ele>
        <time>2024-08-13T12:58:34Z</time>
      </trkpt>
      <trkpt lat="44.84677" lon="6.12513">
        <ele>2073.2</ele>
        <time>2024-08-13T12:58:35Z</time>
      </trkpt>
      <trkpt lat="44.84675" lon="6.12513">
        <ele>2073.6</ele>
        <time>2024-08-13T12:58:36Z</time>
      </trkpt>
      <trkpt lat="44.84675" lon="6.12513">
        <ele>2073.6</ele>
        <time>2024-08-13T12:58:37Z</time>
      </trkpt>
      <trkpt lat="44.84672" lon="6.12511">
        <ele>2073.4</ele>
        <time>2024-08-13T12:58:38Z</time>
      </trkpt>
      <trkpt lat="44.84672" lon="6.12511">
        <ele>2073.4</ele>
        <time>2024-08-13T12:58:39Z</time>
      </trkpt>
      <trkpt lat="44.84671" lon="6.12509">
        <ele>2073.6</ele>
        <time>2024-08-13T12:58:40Z</time>
      </trkpt>
      <trkpt lat="44.84671" lon="6.12509">
        <ele>2073.8</ele>
        <time>2024-08-13T12:58:41Z</time>
      </trkpt>
      <trkpt lat="44.84669" lon="6.12508">
        <ele>2074</ele>
        <time>2024-08-13T12:58:42Z</time>
      </trkpt>
      <trkpt lat="44.84669" lon="6.12508">
        <ele>2074.2</ele>
        <time>2024-08-13T12:58:43Z</time>
      </trkpt>
      <trkpt lat="44.84667" lon="6.12506">
        <ele>2074.4</ele>
        <time>2024-08-13T12:58:44Z</time>
      </trkpt>
      <trkpt lat="44.84667" lon="6.12506">
        <ele>2074.4</ele>
        <time>2024-08-13T12:58:45Z</time>
      </trkpt>
      <trkpt lat="44.84665" lon="6.12504">
        <ele>2074.4</ele>
        <time>2024-08-13T12:58:46Z</time>
      </trkpt>
      <trkpt lat="44.84665" lon="6.12504">
        <ele>2074.4</ele>
        <time>2024-08-13T12:58:47Z</time>
      </trkpt>
      <trkpt lat="44.84663" lon="6.12502">
        <ele>2074.6</ele>
        <time>2024-08-13T12:58:48Z</time>
      </trkpt>
      <trkpt lat="44.84663" lon="6.12502">
        <ele>2075</ele>
        <time>2024-08-13T12:58:49Z</time>
      </trkpt>
      <trkpt lat="44.84661" lon="6.125">
        <ele>2075.2</ele>
        <time>2024-08-13T12:58:50Z</time>
      </trkpt>
      <trkpt lat="44.84661" lon="6.125">
        <ele>2075.2</ele>
        <time>2024-08-13T12:58:51Z</time>
      </trkpt>
      <trkpt lat="44.8466" lon="6.12497">
        <ele>2075.2</ele>
        <time>2024-08-13T12:58:52Z</time>
      </trkpt>
      <trkpt lat="44.8466" lon="6.12497">
        <ele>2075.2</ele>
        <time>2024-08-13T12:58:53Z</time>
      </trkpt>
      <trkpt lat="44.84658" lon="6.12495">
        <ele>2075.2</ele>
        <time>2024-08-13T12:58:54Z</time>
      </trkpt>
      <trkpt lat="44.84658" lon="6.12495">
        <ele>2075.2</ele>
        <time>2024-08-13T12:58:55Z</time>
      </trkpt>
      <trkpt lat="44.84655" lon="6.12493">
        <ele>2075.2</ele>
        <time>2024-08-13T12:58:56Z</time>
      </trkpt>
      <trkpt lat="44.84655" lon="6.12493">
        <ele>2075.2</ele>
        <time>2024-08-13T12:58:57Z</time>
      </trkpt>
      <trkpt lat="44.84653" lon="6.12491">
        <ele>2075.2</ele>
        <time>2024-08-13T12:58:58Z</time>
      </trkpt>
      <trkpt lat="44.84653" lon="6.12491">
        <ele>2075.4</ele>
        <time>2024-08-13T12:58:59Z</time>
      </trkpt>
      <trkpt lat="44.84652" lon="6.12489">
        <ele>2075.8</ele>
        <time>2024-08-13T12:59:00Z</time>
      </trkpt>
      <trkpt lat="44.84652" lon="6.12489">
        <ele>2076</ele>
        <time>2024-08-13T12:59:01Z</time>
      </trkpt>
      <trkpt lat="44.8465" lon="6.12488">
        <ele>2075.8</ele>
        <time>2024-08-13T12:59:02Z</time>
      </trkpt>
      <trkpt lat="44.8465" lon="6.12488">
        <ele>2075.8</ele>
        <time>2024-08-13T12:59:03Z</time>
      </trkpt>
      <trkpt lat="44.84647" lon="6.12486">
        <ele>2076.4</ele>
        <time>2024-08-13T12:59:04Z</time>
      </trkpt>
      <trkpt lat="44.84647" lon="6.12486">
        <ele>2076.6</ele>
        <time>2024-08-13T12:59:05Z</time>
      </trkpt>
      <trkpt lat="44.84645" lon="6.12484">
        <ele>2076.8</ele>
        <time>2024-08-13T12:59:06Z</time>
      </trkpt>
      <trkpt lat="44.84645" lon="6.12484">
        <ele>2076.8</ele>
        <time>2024-08-13T12:59:07Z</time>
      </trkpt>
      <trkpt lat="44.84644" lon="6.12483">
        <ele>2076.8</ele>
        <time>2024-08-13T12:59:08Z</time>
      </trkpt>
      <trkpt lat="44.84644" lon="6.12483">
        <ele>2076.8</ele>
        <time>2024-08-13T12:59:09Z</time>
      </trkpt>
      <trkpt lat="44.84642" lon="6.12481">
        <ele>2076.6</ele>
        <time>2024-08-13T12:59:10Z</time>
      </trkpt>
      <trkpt lat="44.84642" lon="6.12481">
        <ele>2076.6</ele>
        <time>2024-08-13T12:59:11Z</time>
      </trkpt>
      <trkpt lat="44.8464" lon="6.12478">
        <ele>2077</ele>
        <time>2024-08-13T12:59:12Z</time>
      </trkpt>
      <trkpt lat="44.8464" lon="6.12478">
        <ele>2077</ele>
        <time>2024-08-13T12:59:13Z</time>
      </trkpt>
      <trkpt lat="44.84638" lon="6.12476">
        <ele>2077.2</ele>
        <time>2024-08-13T12:59:14Z</time>
      </trkpt>
      <trkpt lat="44.84638" lon="6.12476">
        <ele>2077.4</ele>
        <time>2024-08-13T12:59:15Z</time>
      </trkpt>
      <trkpt lat="44.84637" lon="6.12472">
        <ele>2077.8</ele>
        <time>2024-08-13T12:59:16Z</time>
      </trkpt>
      <trkpt lat="44.84637" lon="6.12472">
        <ele>2077.8</ele>
        <time>2024-08-13T12:59:17Z</time>
      </trkpt>
      <trkpt lat="44.84637" lon="6.12469">
        <ele>2077.8</ele>
        <time>2024-08-13T12:59:18Z</time>
      </trkpt>
      <trkpt lat="44.84637" lon="6.12469">
        <ele>2078</ele>
        <time>2024-08-13T12:59:19Z</time>
      </trkpt>
      <trkpt lat="44.84637" lon="6.12466">
        <ele>2078.2</ele>
        <time>2024-08-13T12:59:20Z</time>
      </trkpt>
      <trkpt lat="44.84637" lon="6.12466">
        <ele>2078.2</ele>
        <time>2024-08-13T12:59:21Z</time>
      </trkpt>
      <trkpt lat="44.84637" lon="6.12466">
        <ele>2078.4</ele>
        <time>2024-08-13T12:59:22Z</time>
      </trkpt>
      <trkpt lat="44.84636" lon="6.12462">
        <ele>2078.6</ele>
        <time>2024-08-13T12:59:23Z</time>
      </trkpt>
      <trkpt lat="44.84636" lon="6.12462">
        <ele>2078.8</ele>
        <time>2024-08-13T12:59:24Z</time>
      </trkpt>
      <trkpt lat="44.84636" lon="6.12462">
        <ele>2079</ele>
        <time>2024-08-13T12:59:25Z</time>
      </trkpt>
      <trkpt lat="44.84634" lon="6.1246">
        <ele>2079.2</ele>
        <time>2024-08-13T12:59:26Z</time>
      </trkpt>
      <trkpt lat="44.84634" lon="6.1246">
        <ele>2079.2</ele>
        <time>2024-08-13T12:59:27Z</time>
      </trkpt>
      <trkpt lat="44.84634" lon="6.1246">
        <ele>2079.4</ele>
        <time>2024-08-13T12:59:28Z</time>
      </trkpt>
      <trkpt lat="44.84631" lon="6.12458">
        <ele>2079.4</ele>
        <time>2024-08-13T12:59:29Z</time>
      </trkpt>
      <trkpt lat="44.84631" lon="6.12458">
        <ele>2079.8</ele>
        <time>2024-08-13T12:59:30Z</time>
      </trkpt>
      <trkpt lat="44.84629" lon="6.12458">
        <ele>2080</ele>
        <time>2024-08-13T12:59:31Z</time>
      </trkpt>
      <trkpt lat="44.84629" lon="6.12458">
        <ele>2080</ele>
        <time>2024-08-13T12:59:32Z</time>
      </trkpt>
      <trkpt lat="44.84626" lon="6.12456">
        <ele>2080</ele>
        <time>2024-08-13T12:59:33Z</time>
      </trkpt>
      <trkpt lat="44.84626" lon="6.12456">
        <ele>2080</ele>
        <time>2024-08-13T12:59:34Z</time>
      </trkpt>
      <trkpt lat="44.84625" lon="6.12454">
        <ele>2080</ele>
        <time>2024-08-13T12:59:35Z</time>
      </trkpt>
      <trkpt lat="44.84625" lon="6.12454">
        <ele>2080</ele>
        <time>2024-08-13T12:59:36Z</time>
      </trkpt>
      <trkpt lat="44.84624" lon="6.12451">
        <ele>2080</ele>
        <time>2024-08-13T12:59:37Z</time>
      </trkpt>
      <trkpt lat="44.84624" lon="6.12451">
        <ele>2080.2</ele>
        <time>2024-08-13T12:59:38Z</time>
      </trkpt>
      <trkpt lat="44.84623" lon="6.12448">
        <ele>2080.4</ele>
        <time>2024-08-13T12:59:39Z</time>
      </trkpt>
      <trkpt lat="44.84623" lon="6.12448">
        <ele>2080.4</ele>
        <time>2024-08-13T12:59:40Z</time>
      </trkpt>
      <trkpt lat="44.84621" lon="6.12446">
        <ele>2080.6</ele>
        <time>2024-08-13T12:59:41Z</time>
      </trkpt>
      <trkpt lat="44.84621" lon="6.12446">
        <ele>2080.8</ele>
        <time>2024-08-13T12:59:42Z</time>
      </trkpt>
      <trkpt lat="44.8462" lon="6.12443">
        <ele>2081</ele>
        <time>2024-08-13T12:59:43Z</time>
      </trkpt>
      <trkpt lat="44.8462" lon="6.12443">
        <ele>2081</ele>
        <time>2024-08-13T12:59:44Z</time>
      </trkpt>
      <trkpt lat="44.8462" lon="6.1244">
        <ele>2081</ele>
        <time>2024-08-13T12:59:45Z</time>
      </trkpt>
      <trkpt lat="44.8462" lon="6.1244">
        <ele>2081</ele>
        <time>2024-08-13T12:59:46Z</time>
      </trkpt>
      <trkpt lat="44.8462" lon="6.12437">
        <ele>2081.2</ele>
        <time>2024-08-13T12:59:47Z</time>
      </trkpt>
      <trkpt lat="44.8462" lon="6.12437">
        <ele>2081.4</ele>
        <time>2024-08-13T12:59:48Z</time>
      </trkpt>
      <trkpt lat="44.84619" lon="6.12434">
        <ele>2081.8</ele>
        <time>2024-08-13T12:59:49Z</time>
      </trkpt>
      <trkpt lat="44.84619" lon="6.12434">
        <ele>2081.8</ele>
        <time>2024-08-13T12:59:50Z</time>
      </trkpt>
      <trkpt lat="44.8462" lon="6.12431">
        <ele>2081.8</ele>
        <time>2024-08-13T12:59:51Z</time>
      </trkpt>
      <trkpt lat="44.8462" lon="6.12431">
        <ele>2082.2</ele>
        <time>2024-08-13T12:59:52Z</time>
      </trkpt>
      <trkpt lat="44.8462" lon="6.12428">
        <ele>2082.2</ele>
        <time>2024-08-13T12:59:53Z</time>
      </trkpt>
      <trkpt lat="44.8462" lon="6.12428">
        <ele>2082.4</ele>
        <time>2024-08-13T12:59:54Z</time>
      </trkpt>
      <trkpt lat="44.8462" lon="6.12425">
        <ele>2082.4</ele>
        <time>2024-08-13T12:59:55Z</time>
      </trkpt>
      <trkpt lat="44.8462" lon="6.12425">
        <ele>2082.4</ele>
        <time>2024-08-13T12:59:56Z</time>
      </trkpt>
      <trkpt lat="44.8462" lon="6.12422">
        <ele>2082.4</ele>
        <time>2024-08-13T12:59:57Z</time>
      </trkpt>
      <trkpt lat="44.8462" lon="6.12422">
        <ele>2082.6</ele>
        <time>2024-08-13T12:59:58Z</time>
      </trkpt>
      <trkpt lat="44.84619" lon="6.12419">
        <ele>2082.8</ele>
        <time>2024-08-13T12:59:59Z</time>
      </trkpt>
      <trkpt lat="44.84619" lon="6.12419">
        <ele>2082.8</ele>
        <time>2024-08-13T13:00:00Z</time>
      </trkpt>
      <trkpt lat="44.84619" lon="6.12419">
        <ele>2082.8</ele>
        <time>2024-08-13T13:00:01Z</time>
      </trkpt>
      <trkpt lat="44.84618" lon="6.12415">
        <ele>2082.8</ele>
        <time>2024-08-13T13:00:02Z</time>
      </trkpt>
      <trkpt lat="44.84618" lon="6.12415">
        <ele>2083</ele>
        <time>2024-08-13T13:00:03Z</time>
      </trkpt>
      <trkpt lat="44.84618" lon="6.12415">
        <ele>2083.4</ele>
        <time>2024-08-13T13:00:04Z</time>
      </trkpt>
      <trkpt lat="44.84618" lon="6.12412">
        <ele>2083.8</ele>
        <time>2024-08-13T13:00:05Z</time>
      </trkpt>
      <trkpt lat="44.84618" lon="6.12412">
        <ele>2083.8</ele>
        <time>2024-08-13T13:00:06Z</time>
      </trkpt>
      <trkpt lat="44.84618" lon="6.12412">
        <ele>2083.8</ele>
        <time>2024-08-13T13:00:07Z</time>
      </trkpt>
      <trkpt lat="44.84618" lon="6.12409">
        <ele>2084.2</ele>
        <time>2024-08-13T13:00:08Z</time>
      </trkpt>
      <trkpt lat="44.84618" lon="6.12409">
        <ele>2084.4</ele>
        <time>2024-08-13T13:00:09Z</time>
      </trkpt>
      <trkpt lat="44.84618" lon="6.12409">
        <ele>2084.4</ele>
        <time>2024-08-13T13:00:10Z</time>
      </trkpt>
      <trkpt lat="44.84617" lon="6.12406">
        <ele>2084.8</ele>
        <time>2024-08-13T13:00:11Z</time>
      </trkpt>
      <trkpt lat="44.84617" lon="6.12406">
        <ele>2085.2</ele>
        <time>2024-08-13T13:00:12Z</time>
      </trkpt>
      <trkpt lat="44.84617" lon="6.12406">
        <ele>2085.4</ele>
        <time>2024-08-13T13:00:13Z</time>
      </trkpt>
      <trkpt lat="44.84616" lon="6.12403">
        <ele>2085.8</ele>
        <time>2024-08-13T13:00:14Z</time>
      </trkpt>
      <trkpt lat="44.84616" lon="6.12403">
        <ele>2085.8</ele>
        <time>2024-08-13T13:00:15Z</time>
      </trkpt>
      <trkpt lat="44.84616" lon="6.12403">
        <ele>2086</ele>
        <time>2024-08-13T13:00:16Z</time>
      </trkpt>
      <trkpt lat="44.84615" lon="6.124">
        <ele>2086.2</ele>
        <time>2024-08-13T13:00:17Z</time>
      </trkpt>
      <trkpt lat="44.84615" lon="6.124">
        <ele>2086.2</ele>
        <time>2024-08-13T13:00:18Z</time>
      </trkpt>
      <trkpt lat="44.84615" lon="6.124">
        <ele>2086.4</ele>
        <time>2024-08-13T13:00:19Z</time>
      </trkpt>
      <trkpt lat="44.84613" lon="6.12396">
        <ele>2086.4</ele>
        <time>2024-08-13T13:00:20Z</time>
      </trkpt>
      <trkpt lat="44.84613" lon="6.12396">
        <ele>2086.4</ele>
        <time>2024-08-13T13:00:21Z</time>
      </trkpt>
      <trkpt lat="44.84613" lon="6.12396">
        <ele>2086.4</ele>
        <time>2024-08-13T13:00:22Z</time>
      </trkpt>
      <trkpt lat="44.84613" lon="6.12393">
        <ele>2086.2</ele>
        <time>2024-08-13T13:00:23Z</time>
      </trkpt>
      <trkpt lat="44.84613" lon="6.12393">
        <ele>2086.2</ele>
        <time>2024-08-13T13:00:24Z</time>
      </trkpt>
      <trkpt lat="44.84612" lon="6.1239">
        <ele>2086</ele>
        <time>2024-08-13T13:00:25Z</time>
      </trkpt>
      <trkpt lat="44.84612" lon="6.1239">
        <ele>2086</ele>
        <time>2024-08-13T13:00:26Z</time>
      </trkpt>
      <trkpt lat="44.84612" lon="6.1239">
        <ele>2086</ele>
        <time>2024-08-13T13:00:27Z</time>
      </trkpt>
      <trkpt lat="44.84612" lon="6.12387">
        <ele>2086.2</ele>
        <time>2024-08-13T13:00:28Z</time>
      </trkpt>
      <trkpt lat="44.84612" lon="6.12387">
        <ele>2086.2</ele>
        <time>2024-08-13T13:00:29Z</time>
      </trkpt>
      <trkpt lat="44.8461" lon="6.12385">
        <ele>2086.2</ele>
        <time>2024-08-13T13:00:30Z</time>
      </trkpt>
      <trkpt lat="44.8461" lon="6.12385">
        <ele>2086.4</ele>
        <time>2024-08-13T13:00:31Z</time>
      </trkpt>
      <trkpt lat="44.8461" lon="6.12382">
        <ele>2086.6</ele>
        <time>2024-08-13T13:00:32Z</time>
      </trkpt>
      <trkpt lat="44.8461" lon="6.12382">
        <ele>2086.8</ele>
        <time>2024-08-13T13:00:33Z</time>
      </trkpt>
      <trkpt lat="44.84608" lon="6.1238">
        <ele>2087.2</ele>
        <time>2024-08-13T13:00:34Z</time>
      </trkpt>
      <trkpt lat="44.84608" lon="6.1238">
        <ele>2087.2</ele>
        <time>2024-08-13T13:00:35Z</time>
      </trkpt>
      <trkpt lat="44.84608" lon="6.12377">
        <ele>2087.2</ele>
        <time>2024-08-13T13:00:36Z</time>
      </trkpt>
      <trkpt lat="44.84608" lon="6.12377">
        <ele>2087.2</ele>
        <time>2024-08-13T13:00:37Z</time>
      </trkpt>
      <trkpt lat="44.84607" lon="6.12374">
        <ele>2087</ele>
        <time>2024-08-13T13:00:38Z</time>
      </trkpt>
      <trkpt lat="44.84607" lon="6.12374">
        <ele>2087.4</ele>
        <time>2024-08-13T13:00:39Z</time>
      </trkpt>
      <trkpt lat="44.84606" lon="6.12371">
        <ele>2087</ele>
        <time>2024-08-13T13:00:40Z</time>
      </trkpt>
      <trkpt lat="44.84606" lon="6.12371">
        <ele>2087.2</ele>
        <time>2024-08-13T13:00:41Z</time>
      </trkpt>
      <trkpt lat="44.84606" lon="6.12368">
        <ele>2087.2</ele>
        <time>2024-08-13T13:00:42Z</time>
      </trkpt>
      <trkpt lat="44.84606" lon="6.12368">
        <ele>2087.2</ele>
        <time>2024-08-13T13:00:43Z</time>
      </trkpt>
      <trkpt lat="44.84606" lon="6.12365">
        <ele>2087.4</ele>
        <time>2024-08-13T13:00:44Z</time>
      </trkpt>
      <trkpt lat="44.84606" lon="6.12365">
        <ele>2087.6</ele>
        <time>2024-08-13T13:00:45Z</time>
      </trkpt>
      <trkpt lat="44.84606" lon="6.12362">
        <ele>2087.8</ele>
        <time>2024-08-13T13:00:46Z</time>
      </trkpt>
      <trkpt lat="44.84606" lon="6.12362">
        <ele>2088</ele>
        <time>2024-08-13T13:00:47Z</time>
      </trkpt>
      <trkpt lat="44.84606" lon="6.12359">
        <ele>2088</ele>
        <time>2024-08-13T13:00:48Z</time>
      </trkpt>
      <trkpt lat="44.84606" lon="6.12359">
        <ele>2088.4</ele>
        <time>2024-08-13T13:00:49Z</time>
      </trkpt>
      <trkpt lat="44.84606" lon="6.12355">
        <ele>2088.6</ele>
        <time>2024-08-13T13:00:50Z</time>
      </trkpt>
      <trkpt lat="44.84606" lon="6.12355">
        <ele>2088.6</ele>
        <time>2024-08-13T13:00:51Z</time>
      </trkpt>
      <trkpt lat="44.84606" lon="6.12353">
        <ele>2088.8</ele>
        <time>2024-08-13T13:00:52Z</time>
      </trkpt>
      <trkpt lat="44.84606" lon="6.12353">
        <ele>2089</ele>
        <time>2024-08-13T13:00:53Z</time>
      </trkpt>
      <trkpt lat="44.84606" lon="6.12349">
        <ele>2089</ele>
        <time>2024-08-13T13:00:54Z</time>
      </trkpt>
      <trkpt lat="44.84606" lon="6.12349">
        <ele>2089</ele>
        <time>2024-08-13T13:00:55Z</time>
      </trkpt>
      <trkpt lat="44.84607" lon="6.12346">
        <ele>2089</ele>
        <time>2024-08-13T13:00:56Z</time>
      </trkpt>
      <trkpt lat="44.84607" lon="6.12346">
        <ele>2089</ele>
        <time>2024-08-13T13:00:57Z</time>
      </trkpt>
      <trkpt lat="44.84607" lon="6.12343">
        <ele>2089</ele>
        <time>2024-08-13T13:00:58Z</time>
      </trkpt>
      <trkpt lat="44.84607" lon="6.12343">
        <ele>2089</ele>
        <time>2024-08-13T13:00:59Z</time>
      </trkpt>
      <trkpt lat="44.84607" lon="6.12343">
        <ele>2089.2</ele>
        <time>2024-08-13T13:01:00Z</time>
      </trkpt>
      <trkpt lat="44.84607" lon="6.12339">
        <ele>2089.6</ele>
        <time>2024-08-13T13:01:01Z</time>
      </trkpt>
      <trkpt lat="44.84607" lon="6.12339">
        <ele>2089.6</ele>
        <time>2024-08-13T13:01:02Z</time>
      </trkpt>
      <trkpt lat="44.84607" lon="6.12336">
        <ele>2089.6</ele>
        <time>2024-08-13T13:01:03Z</time>
      </trkpt>
      <trkpt lat="44.84607" lon="6.12336">
        <ele>2090</ele>
        <time>2024-08-13T13:01:04Z</time>
      </trkpt>
      <trkpt lat="44.84607" lon="6.12333">
        <ele>2090.4</ele>
        <time>2024-08-13T13:01:05Z</time>
      </trkpt>
      <trkpt lat="44.84607" lon="6.12333">
        <ele>2090.4</ele>
        <time>2024-08-13T13:01:06Z</time>
      </trkpt>
      <trkpt lat="44.84607" lon="6.12329">
        <ele>2090</ele>
        <time>2024-08-13T13:01:07Z</time>
      </trkpt>
      <trkpt lat="44.84607" lon="6.12329">
        <ele>2090</ele>
        <time>2024-08-13T13:01:08Z</time>
      </trkpt>
      <trkpt lat="44.84607" lon="6.12326">
        <ele>2090.4</ele>
        <time>2024-08-13T13:01:09Z</time>
      </trkpt>
      <trkpt lat="44.84607" lon="6.12326">
        <ele>2090.4</ele>
        <time>2024-08-13T13:01:10Z</time>
      </trkpt>
      <trkpt lat="44.84607" lon="6.12323">
        <ele>2090.4</ele>
        <time>2024-08-13T13:01:11Z</time>
      </trkpt>
      <trkpt lat="44.84607" lon="6.12323">
        <ele>2090.6</ele>
        <time>2024-08-13T13:01:12Z</time>
      </trkpt>
      <trkpt lat="44.84607" lon="6.12323">
        <ele>2090.6</ele>
        <time>2024-08-13T13:01:13Z</time>
      </trkpt>
      <trkpt lat="44.84607" lon="6.1232">
        <ele>2090.8</ele>
        <time>2024-08-13T13:01:14Z</time>
      </trkpt>
      <trkpt lat="44.84607" lon="6.1232">
        <ele>2091</ele>
        <time>2024-08-13T13:01:15Z</time>
      </trkpt>
      <trkpt lat="44.84607" lon="6.1232">
        <ele>2091.2</ele>
        <time>2024-08-13T13:01:16Z</time>
      </trkpt>
      <trkpt lat="44.84606" lon="6.12317">
        <ele>2091.2</ele>
        <time>2024-08-13T13:01:17Z</time>
      </trkpt>
      <trkpt lat="44.84606" lon="6.12317">
        <ele>2091.4</ele>
        <time>2024-08-13T13:01:18Z</time>
      </trkpt>
      <trkpt lat="44.84604" lon="6.12315">
        <ele>2091.4</ele>
        <time>2024-08-13T13:01:19Z</time>
      </trkpt>
      <trkpt lat="44.84604" lon="6.12315">
        <ele>2091.8</ele>
        <time>2024-08-13T13:01:20Z</time>
      </trkpt>
      <trkpt lat="44.84603" lon="6.12313">
        <ele>2091.8</ele>
        <time>2024-08-13T13:01:21Z</time>
      </trkpt>
      <trkpt lat="44.84603" lon="6.12313">
        <ele>2091.8</ele>
        <time>2024-08-13T13:01:22Z</time>
      </trkpt>
      <trkpt lat="44.84602" lon="6.1231">
        <ele>2091.6</ele>
        <time>2024-08-13T13:01:23Z</time>
      </trkpt>
      <trkpt lat="44.84602" lon="6.1231">
        <ele>2091.6</ele>
        <time>2024-08-13T13:01:24Z</time>
      </trkpt>
      <trkpt lat="44.846" lon="6.12307">
        <ele>2091.4</ele>
        <time>2024-08-13T13:01:25Z</time>
      </trkpt>
      <trkpt lat="44.846" lon="6.12307">
        <ele>2091.4</ele>
        <time>2024-08-13T13:01:26Z</time>
      </trkpt>
      <trkpt lat="44.846" lon="6.12307">
        <ele>2091.4</ele>
        <time>2024-08-13T13:01:27Z</time>
      </trkpt>
      <trkpt lat="44.846" lon="6.12303">
        <ele>2091.8</ele>
        <time>2024-08-13T13:01:28Z</time>
      </trkpt>
      <trkpt lat="44.846" lon="6.12303">
        <ele>2091.8</ele>
        <time>2024-08-13T13:01:29Z</time>
      </trkpt>
      <trkpt lat="44.846" lon="6.12299">
        <ele>2091.6</ele>
        <time>2024-08-13T13:01:30Z</time>
      </trkpt>
      <trkpt lat="44.846" lon="6.12299">
        <ele>2091.6</ele>
        <time>2024-08-13T13:01:31Z</time>
      </trkpt>
      <trkpt lat="44.846" lon="6.12297">
        <ele>2091.8</ele>
        <time>2024-08-13T13:01:32Z</time>
      </trkpt>
      <trkpt lat="44.846" lon="6.12297">
        <ele>2091.8</ele>
        <time>2024-08-13T13:01:33Z</time>
      </trkpt>
      <trkpt lat="44.84598" lon="6.12295">
        <ele>2092</ele>
        <time>2024-08-13T13:01:34Z</time>
      </trkpt>
      <trkpt lat="44.84598" lon="6.12295">
        <ele>2092.2</ele>
        <time>2024-08-13T13:01:35Z</time>
      </trkpt>
      <trkpt lat="44.84596" lon="6.12295">
        <ele>2092.2</ele>
        <time>2024-08-13T13:01:36Z</time>
      </trkpt>
      <trkpt lat="44.84596" lon="6.12295">
        <ele>2092</ele>
        <time>2024-08-13T13:01:37Z</time>
      </trkpt>
      <trkpt lat="44.84594" lon="6.12296">
        <ele>2092</ele>
        <time>2024-08-13T13:01:38Z</time>
      </trkpt>
      <trkpt lat="44.84594" lon="6.12296">
        <ele>2092</ele>
        <time>2024-08-13T13:01:39Z</time>
      </trkpt>
      <trkpt lat="44.84591" lon="6.12298">
        <ele>2092</ele>
        <time>2024-08-13T13:01:40Z</time>
      </trkpt>
      <trkpt lat="44.84591" lon="6.12298">
        <ele>2092</ele>
        <time>2024-08-13T13:01:41Z</time>
      </trkpt>
      <trkpt lat="44.84591" lon="6.12298">
        <ele>2092.2</ele>
        <time>2024-08-13T13:01:42Z</time>
      </trkpt>
      <trkpt lat="44.84589" lon="6.12299">
        <ele>2092.2</ele>
        <time>2024-08-13T13:01:43Z</time>
      </trkpt>
      <trkpt lat="44.84589" lon="6.12299">
        <ele>2092.2</ele>
        <time>2024-08-13T13:01:44Z</time>
      </trkpt>
      <trkpt lat="44.84587" lon="6.12299">
        <ele>2092.2</ele>
        <time>2024-08-13T13:01:45Z</time>
      </trkpt>
      <trkpt lat="44.84587" lon="6.12299">
        <ele>2092.2</ele>
        <time>2024-08-13T13:01:46Z</time>
      </trkpt>
      <trkpt lat="44.84584" lon="6.123">
        <ele>2092.2</ele>
        <time>2024-08-13T13:01:47Z</time>
      </trkpt>
      <trkpt lat="44.84584" lon="6.123">
        <ele>2092.6</ele>
        <time>2024-08-13T13:01:48Z</time>
      </trkpt>
      <trkpt lat="44.84582" lon="6.12301">
        <ele>2092.8</ele>
        <time>2024-08-13T13:01:49Z</time>
      </trkpt>
      <trkpt lat="44.84582" lon="6.12301">
        <ele>2092.8</ele>
        <time>2024-08-13T13:01:50Z</time>
      </trkpt>
      <trkpt lat="44.8458" lon="6.12301">
        <ele>2092.8</ele>
        <time>2024-08-13T13:01:51Z</time>
      </trkpt>
      <trkpt lat="44.8458" lon="6.12301">
        <ele>2092.8</ele>
        <time>2024-08-13T13:01:52Z</time>
      </trkpt>
      <trkpt lat="44.84578" lon="6.12301">
        <ele>2093</ele>
        <time>2024-08-13T13:01:53Z</time>
      </trkpt>
      <trkpt lat="44.84578" lon="6.12301">
        <ele>2093</ele>
        <time>2024-08-13T13:01:54Z</time>
      </trkpt>
      <trkpt lat="44.84575" lon="6.12301">
        <ele>2093.2</ele>
        <time>2024-08-13T13:01:55Z</time>
      </trkpt>
      <trkpt lat="44.84575" lon="6.12301">
        <ele>2093.6</ele>
        <time>2024-08-13T13:01:56Z</time>
      </trkpt>
      <trkpt lat="44.84573" lon="6.12301">
        <ele>2093.8</ele>
        <time>2024-08-13T13:01:57Z</time>
      </trkpt>
      <trkpt lat="44.84573" lon="6.12301">
        <ele>2094</ele>
        <time>2024-08-13T13:01:58Z</time>
      </trkpt>
      <trkpt lat="44.8457" lon="6.12302">
        <ele>2094</ele>
        <time>2024-08-13T13:01:59Z</time>
      </trkpt>
      <trkpt lat="44.8457" lon="6.12302">
        <ele>2094</ele>
        <time>2024-08-13T13:02:00Z</time>
      </trkpt>
      <trkpt lat="44.84568" lon="6.12301">
        <ele>2094</ele>
        <time>2024-08-13T13:02:01Z</time>
      </trkpt>
      <trkpt lat="44.84568" lon="6.12301">
        <ele>2094.2</ele>
        <time>2024-08-13T13:02:02Z</time>
      </trkpt>
      <trkpt lat="44.84566" lon="6.12301">
        <ele>2094.2</ele>
        <time>2024-08-13T13:02:03Z</time>
      </trkpt>
      <trkpt lat="44.84566" lon="6.12301">
        <ele>2094.4</ele>
        <time>2024-08-13T13:02:04Z</time>
      </trkpt>
      <trkpt lat="44.84564" lon="6.12301">
        <ele>2094.4</ele>
        <time>2024-08-13T13:02:05Z</time>
      </trkpt>
      <trkpt lat="44.84564" lon="6.12301">
        <ele>2094.6</ele>
        <time>2024-08-13T13:02:06Z</time>
      </trkpt>
      <trkpt lat="44.84562" lon="6.12302">
        <ele>2095</ele>
        <time>2024-08-13T13:02:07Z</time>
      </trkpt>
      <trkpt lat="44.84562" lon="6.12302">
        <ele>2095</ele>
        <time>2024-08-13T13:02:08Z</time>
      </trkpt>
      <trkpt lat="44.84559" lon="6.12303">
        <ele>2095</ele>
        <time>2024-08-13T13:02:09Z</time>
      </trkpt>
      <trkpt lat="44.84559" lon="6.12303">
        <ele>2094.8</ele>
        <time>2024-08-13T13:02:10Z</time>
      </trkpt>
      <trkpt lat="44.84557" lon="6.12303">
        <ele>2094.8</ele>
        <time>2024-08-13T13:02:11Z</time>
      </trkpt>
      <trkpt lat="44.84557" lon="6.12303">
        <ele>2094.8</ele>
        <time>2024-08-13T13:02:12Z</time>
      </trkpt>
      <trkpt lat="44.84555" lon="6.12304">
        <ele>2095</ele>
        <time>2024-08-13T13:02:13Z</time>
      </trkpt>
      <trkpt lat="44.84555" lon="6.12304">
        <ele>2095</ele>
        <time>2024-08-13T13:02:14Z</time>
      </trkpt>
      <trkpt lat="44.84555" lon="6.12304">
        <ele>2094.8</ele>
        <time>2024-08-13T13:02:15Z</time>
      </trkpt>
      <trkpt lat="44.84552" lon="6.12307">
        <ele>2094.8</ele>
        <time>2024-08-13T13:02:16Z</time>
      </trkpt>
      <trkpt lat="44.84552" lon="6.12307">
        <ele>2094.8</ele>
        <time>2024-08-13T13:02:17Z</time>
      </trkpt>
      <trkpt lat="44.8455" lon="6.12309">
        <ele>2094.8</ele>
        <time>2024-08-13T13:02:18Z</time>
      </trkpt>
      <trkpt lat="44.8455" lon="6.12309">
        <ele>2094.8</ele>
        <time>2024-08-13T13:02:19Z</time>
      </trkpt>
      <trkpt lat="44.84549" lon="6.1231">
        <ele>2095.4</ele>
        <time>2024-08-13T13:02:20Z</time>
      </trkpt>
      <trkpt lat="44.84549" lon="6.1231">
        <ele>2095.6</ele>
        <time>2024-08-13T13:02:21Z</time>
      </trkpt>
      <trkpt lat="44.84547" lon="6.12311">
        <ele>2096.2</ele>
        <time>2024-08-13T13:02:22Z</time>
      </trkpt>
      <trkpt lat="44.84547" lon="6.12311">
        <ele>2096.4</ele>
        <time>2024-08-13T13:02:23Z</time>
      </trkpt>
      <trkpt lat="44.84547" lon="6.12311">
        <ele>2096.4</ele>
        <time>2024-08-13T13:02:24Z</time>
      </trkpt>
      <trkpt lat="44.84544" lon="6.12312">
        <ele>2096.4</ele>
        <time>2024-08-13T13:02:25Z</time>
      </trkpt>
      <trkpt lat="44.84544" lon="6.12312">
        <ele>2097</ele>
        <time>2024-08-13T13:02:26Z</time>
      </trkpt>
      <trkpt lat="44.84543" lon="6.12315">
        <ele>2097</ele>
        <time>2024-08-13T13:02:27Z</time>
      </trkpt>
      <trkpt lat="44.84543" lon="6.12315">
        <ele>2096.8</ele>
        <time>2024-08-13T13:02:28Z</time>
      </trkpt>
      <trkpt lat="44.84542" lon="6.12317">
        <ele>2096.8</ele>
        <time>2024-08-13T13:02:29Z</time>
      </trkpt>
      <trkpt lat="44.84542" lon="6.12317">
        <ele>2097</ele>
        <time>2024-08-13T13:02:30Z</time>
      </trkpt>
      <trkpt lat="44.84541" lon="6.1232">
        <ele>2097.4</ele>
        <time>2024-08-13T13:02:31Z</time>
      </trkpt>
      <trkpt lat="44.84541" lon="6.1232">
        <ele>2097.4</ele>
        <time>2024-08-13T13:02:32Z</time>
      </trkpt>
      <trkpt lat="44.8454" lon="6.12323">
        <ele>2097.6</ele>
        <time>2024-08-13T13:02:33Z</time>
      </trkpt>
      <trkpt lat="44.8454" lon="6.12323">
        <ele>2097.6</ele>
        <time>2024-08-13T13:02:34Z</time>
      </trkpt>
      <trkpt lat="44.84538" lon="6.12325">
        <ele>2097.6</ele>
        <time>2024-08-13T13:02:35Z</time>
      </trkpt>
      <trkpt lat="44.84538" lon="6.12325">
        <ele>2097.8</ele>
        <time>2024-08-13T13:02:36Z</time>
      </trkpt>
      <trkpt lat="44.84536" lon="6.12327">
        <ele>2098.4</ele>
        <time>2024-08-13T13:02:37Z</time>
      </trkpt>
      <trkpt lat="44.84536" lon="6.12327">
        <ele>2098.6</ele>
        <time>2024-08-13T13:02:38Z</time>
      </trkpt>
      <trkpt lat="44.84535" lon="6.1233">
        <ele>2098.6</ele>
        <time>2024-08-13T13:02:39Z</time>
      </trkpt>
      <trkpt lat="44.84535" lon="6.1233">
        <ele>2098.8</ele>
        <time>2024-08-13T13:02:40Z</time>
      </trkpt>
      <trkpt lat="44.84534" lon="6.12332">
        <ele>2098.8</ele>
        <time>2024-08-13T13:02:41Z</time>
      </trkpt>
      <trkpt lat="44.84534" lon="6.12332">
        <ele>2099</ele>
        <time>2024-08-13T13:02:42Z</time>
      </trkpt>
      <trkpt lat="44.84532" lon="6.12335">
        <ele>2099.2</ele>
        <time>2024-08-13T13:02:43Z</time>
      </trkpt>
      <trkpt lat="44.84532" lon="6.12335">
        <ele>2099.6</ele>
        <time>2024-08-13T13:02:44Z</time>
      </trkpt>
      <trkpt lat="44.8453" lon="6.12338">
        <ele>2099.6</ele>
        <time>2024-08-13T13:02:45Z</time>
      </trkpt>
      <trkpt lat="44.8453" lon="6.12338">
        <ele>2100</ele>
        <time>2024-08-13T13:02:46Z</time>
      </trkpt>
      <trkpt lat="44.84528" lon="6.1234">
        <ele>2100.2</ele>
        <time>2024-08-13T13:02:47Z</time>
      </trkpt>
      <trkpt lat="44.84528" lon="6.1234">
        <ele>2100.6</ele>
        <time>2024-08-13T13:02:48Z</time>
      </trkpt>
      <trkpt lat="44.84527" lon="6.12342">
        <ele>2101</ele>
        <time>2024-08-13T13:02:49Z</time>
      </trkpt>
      <trkpt lat="44.84527" lon="6.12342">
        <ele>2101</ele>
        <time>2024-08-13T13:02:50Z</time>
      </trkpt>
      <trkpt lat="44.84525" lon="6.12344">
        <ele>2101</ele>
        <time>2024-08-13T13:02:51Z</time>
      </trkpt>
      <trkpt lat="44.84525" lon="6.12344">
        <ele>2101</ele>
        <time>2024-08-13T13:02:52Z</time>
      </trkpt>
      <trkpt lat="44.84524" lon="6.12346">
        <ele>2101</ele>
        <time>2024-08-13T13:02:53Z</time>
      </trkpt>
      <trkpt lat="44.84524" lon="6.12346">
        <ele>2101.2</ele>
        <time>2024-08-13T13:02:54Z</time>
      </trkpt>
      <trkpt lat="44.84522" lon="6.12348">
        <ele>2101.2</ele>
        <time>2024-08-13T13:02:55Z</time>
      </trkpt>
      <trkpt lat="44.84522" lon="6.12348">
        <ele>2101.8</ele>
        <time>2024-08-13T13:02:56Z</time>
      </trkpt>
      <trkpt lat="44.8452" lon="6.1235">
        <ele>2102</ele>
        <time>2024-08-13T13:02:57Z</time>
      </trkpt>
      <trkpt lat="44.8452" lon="6.1235">
        <ele>2102</ele>
        <time>2024-08-13T13:02:58Z</time>
      </trkpt>
      <trkpt lat="44.84518" lon="6.12352">
        <ele>2102</ele>
        <time>2024-08-13T13:02:59Z</time>
      </trkpt>
      <trkpt lat="44.84518" lon="6.12352">
        <ele>2102</ele>
        <time>2024-08-13T13:03:00Z</time>
      </trkpt>
      <trkpt lat="44.84515" lon="6.12354">
        <ele>2102.2</ele>
        <time>2024-08-13T13:03:01Z</time>
      </trkpt>
      <trkpt lat="44.84515" lon="6.12354">
        <ele>2102.6</ele>
        <time>2024-08-13T13:03:02Z</time>
      </trkpt>
      <trkpt lat="44.84513" lon="6.12355">
        <ele>2102.6</ele>
        <time>2024-08-13T13:03:03Z</time>
      </trkpt>
      <trkpt lat="44.84513" lon="6.12355">
        <ele>2102.2</ele>
        <time>2024-08-13T13:03:04Z</time>
      </trkpt>
      <trkpt lat="44.84513" lon="6.12355">
        <ele>2102.2</ele>
        <time>2024-08-13T13:03:05Z</time>
      </trkpt>
      <trkpt lat="44.84511" lon="6.12358">
        <ele>2102.2</ele>
        <time>2024-08-13T13:03:06Z</time>
      </trkpt>
      <trkpt lat="44.84511" lon="6.12358">
        <ele>2102.4</ele>
        <time>2024-08-13T13:03:07Z</time>
      </trkpt>
      <trkpt lat="44.84511" lon="6.12358">
        <ele>2102.4</ele>
        <time>2024-08-13T13:03:08Z</time>
      </trkpt>
      <trkpt lat="44.84509" lon="6.1236">
        <ele>2103</ele>
        <time>2024-08-13T13:03:09Z</time>
      </trkpt>
      <trkpt lat="44.84509" lon="6.1236">
        <ele>2103</ele>
        <time>2024-08-13T13:03:10Z</time>
      </trkpt>
      <trkpt lat="44.84508" lon="6.12362">
        <ele>2103.2</ele>
        <time>2024-08-13T13:03:11Z</time>
      </trkpt>
      <trkpt lat="44.84508" lon="6.12362">
        <ele>2103.4</ele>
        <time>2024-08-13T13:03:12Z</time>
      </trkpt>
      <trkpt lat="44.84506" lon="6.12364">
        <ele>2103.6</ele>
        <time>2024-08-13T13:03:13Z</time>
      </trkpt>
      <trkpt lat="44.84506" lon="6.12364">
        <ele>2103.8</ele>
        <time>2024-08-13T13:03:14Z</time>
      </trkpt>
      <trkpt lat="44.84504" lon="6.12365">
        <ele>2103.8</ele>
        <time>2024-08-13T13:03:15Z</time>
      </trkpt>
      <trkpt lat="44.84504" lon="6.12365">
        <ele>2104.8</ele>
        <time>2024-08-13T13:03:16Z</time>
      </trkpt>
      <trkpt lat="44.84502" lon="6.12366">
        <ele>2104.8</ele>
        <time>2024-08-13T13:03:17Z</time>
      </trkpt>
      <trkpt lat="44.84502" lon="6.12366">
        <ele>2104.8</ele>
        <time>2024-08-13T13:03:18Z</time>
      </trkpt>
      <trkpt lat="44.84499" lon="6.12367">
        <ele>2105.2</ele>
        <time>2024-08-13T13:03:19Z</time>
      </trkpt>
      <trkpt lat="44.84499" lon="6.12367">
        <ele>2105.2</ele>
        <time>2024-08-13T13:03:20Z</time>
      </trkpt>
      <trkpt lat="44.84497" lon="6.12369">
        <ele>2105.2</ele>
        <time>2024-08-13T13:03:21Z</time>
      </trkpt>
      <trkpt lat="44.84497" lon="6.12369">
        <ele>2105.4</ele>
        <time>2024-08-13T13:03:22Z</time>
      </trkpt>
      <trkpt lat="44.84495" lon="6.1237">
        <ele>2105.8</ele>
        <time>2024-08-13T13:03:23Z</time>
      </trkpt>
      <trkpt lat="44.84495" lon="6.1237">
        <ele>2105.8</ele>
        <time>2024-08-13T13:03:24Z</time>
      </trkpt>
      <trkpt lat="44.84493" lon="6.12372">
        <ele>2105.8</ele>
        <time>2024-08-13T13:03:25Z</time>
      </trkpt>
      <trkpt lat="44.84493" lon="6.12372">
        <ele>2105.8</ele>
        <time>2024-08-13T13:03:26Z</time>
      </trkpt>
      <trkpt lat="44.84491" lon="6.12374">
        <ele>2105.8</ele>
        <time>2024-08-13T13:03:27Z</time>
      </trkpt>
      <trkpt lat="44.84491" lon="6.12374">
        <ele>2105.8</ele>
        <time>2024-08-13T13:03:28Z</time>
      </trkpt>
      <trkpt lat="44.84489" lon="6.12375">
        <ele>2106</ele>
        <time>2024-08-13T13:03:29Z</time>
      </trkpt>
      <trkpt lat="44.84489" lon="6.12375">
        <ele>2106</ele>
        <time>2024-08-13T13:03:30Z</time>
      </trkpt>
      <trkpt lat="44.84486" lon="6.12377">
        <ele>2106.2</ele>
        <time>2024-08-13T13:03:31Z</time>
      </trkpt>
      <trkpt lat="44.84486" lon="6.12377">
        <ele>2106.6</ele>
        <time>2024-08-13T13:03:32Z</time>
      </trkpt>
      <trkpt lat="44.84485" lon="6.12378">
        <ele>2106.6</ele>
        <time>2024-08-13T13:03:33Z</time>
      </trkpt>
      <trkpt lat="44.84485" lon="6.12378">
        <ele>2106.6</ele>
        <time>2024-08-13T13:03:34Z</time>
      </trkpt>
      <trkpt lat="44.84483" lon="6.1238">
        <ele>2106.8</ele>
        <time>2024-08-13T13:03:35Z</time>
      </trkpt>
      <trkpt lat="44.84483" lon="6.1238">
        <ele>2106.8</ele>
        <time>2024-08-13T13:03:36Z</time>
      </trkpt>
      <trkpt lat="44.84481" lon="6.1238">
        <ele>2107</ele>
        <time>2024-08-13T13:03:37Z</time>
      </trkpt>
      <trkpt lat="44.84481" lon="6.1238">
        <ele>2107</ele>
        <time>2024-08-13T13:03:38Z</time>
      </trkpt>
      <trkpt lat="44.84479" lon="6.12382">
        <ele>2107.6</ele>
        <time>2024-08-13T13:03:39Z</time>
      </trkpt>
      <trkpt lat="44.84479" lon="6.12382">
        <ele>2107.6</ele>
        <time>2024-08-13T13:03:40Z</time>
      </trkpt>
      <trkpt lat="44.84477" lon="6.12383">
        <ele>2107.6</ele>
        <time>2024-08-13T13:03:41Z</time>
      </trkpt>
      <trkpt lat="44.84477" lon="6.12383">
        <ele>2107.6</ele>
        <time>2024-08-13T13:03:42Z</time>
      </trkpt>
      <trkpt lat="44.84475" lon="6.12384">
        <ele>2107.8</ele>
        <time>2024-08-13T13:03:43Z</time>
      </trkpt>
      <trkpt lat="44.84475" lon="6.12384">
        <ele>2107.8</ele>
        <time>2024-08-13T13:03:44Z</time>
      </trkpt>
      <trkpt lat="44.84473" lon="6.12385">
        <ele>2107.8</ele>
        <time>2024-08-13T13:03:45Z</time>
      </trkpt>
      <trkpt lat="44.84473" lon="6.12385">
        <ele>2108.2</ele>
        <time>2024-08-13T13:03:46Z</time>
      </trkpt>
      <trkpt lat="44.84471" lon="6.12386">
        <ele>2108.4</ele>
        <time>2024-08-13T13:03:47Z</time>
      </trkpt>
      <trkpt lat="44.84471" lon="6.12386">
        <ele>2108.4</ele>
        <time>2024-08-13T13:03:48Z</time>
      </trkpt>
      <trkpt lat="44.84469" lon="6.12386">
        <ele>2108.8</ele>
        <time>2024-08-13T13:03:49Z</time>
      </trkpt>
      <trkpt lat="44.84469" lon="6.12386">
        <ele>2109</ele>
        <time>2024-08-13T13:03:50Z</time>
      </trkpt>
      <trkpt lat="44.84467" lon="6.12388">
        <ele>2109</ele>
        <time>2024-08-13T13:03:51Z</time>
      </trkpt>
      <trkpt lat="44.84467" lon="6.12388">
        <ele>2109</ele>
        <time>2024-08-13T13:03:52Z</time>
      </trkpt>
      <trkpt lat="44.84465" lon="6.12389">
        <ele>2109.2</ele>
        <time>2024-08-13T13:03:53Z</time>
      </trkpt>
      <trkpt lat="44.84465" lon="6.12389">
        <ele>2109.4</ele>
        <time>2024-08-13T13:03:54Z</time>
      </trkpt>
      <trkpt lat="44.84463" lon="6.1239">
        <ele>2109.6</ele>
        <time>2024-08-13T13:03:55Z</time>
      </trkpt>
      <trkpt lat="44.84463" lon="6.1239">
        <ele>2109.6</ele>
        <time>2024-08-13T13:03:56Z</time>
      </trkpt>
      <trkpt lat="44.84461" lon="6.12392">
        <ele>2109.8</ele>
        <time>2024-08-13T13:03:57Z</time>
      </trkpt>
      <trkpt lat="44.84461" lon="6.12392">
        <ele>2109.8</ele>
        <time>2024-08-13T13:03:58Z</time>
      </trkpt>
      <trkpt lat="44.84461" lon="6.12392">
        <ele>2110.2</ele>
        <time>2024-08-13T13:03:59Z</time>
      </trkpt>
      <trkpt lat="44.84461" lon="6.12396">
        <ele>2110.2</ele>
        <time>2024-08-13T13:04:00Z</time>
      </trkpt>
      <trkpt lat="44.84461" lon="6.12396">
        <ele>2110.2</ele>
        <time>2024-08-13T13:04:01Z</time>
      </trkpt>
      <trkpt lat="44.8446" lon="6.12399">
        <ele>2110.8</ele>
        <time>2024-08-13T13:04:02Z</time>
      </trkpt>
      <trkpt lat="44.8446" lon="6.12399">
        <ele>2110.8</ele>
        <time>2024-08-13T13:04:03Z</time>
      </trkpt>
      <trkpt lat="44.84459" lon="6.12401">
        <ele>2110.8</ele>
        <time>2024-08-13T13:04:04Z</time>
      </trkpt>
      <trkpt lat="44.84459" lon="6.12401">
        <ele>2110.8</ele>
        <time>2024-08-13T13:04:05Z</time>
      </trkpt>
      <trkpt lat="44.84457" lon="6.12403">
        <ele>2110.8</ele>
        <time>2024-08-13T13:04:06Z</time>
      </trkpt>
      <trkpt lat="44.84457" lon="6.12403">
        <ele>2110.8</ele>
        <time>2024-08-13T13:04:07Z</time>
      </trkpt>
      <trkpt lat="44.84455" lon="6.12404">
        <ele>2110.8</ele>
        <time>2024-08-13T13:04:08Z</time>
      </trkpt>
      <trkpt lat="44.84455" lon="6.12404">
        <ele>2111.2</ele>
        <time>2024-08-13T13:04:09Z</time>
      </trkpt>
      <trkpt lat="44.84453" lon="6.12405">
        <ele>2111.2</ele>
        <time>2024-08-13T13:04:10Z</time>
      </trkpt>
      <trkpt lat="44.84453" lon="6.12405">
        <ele>2111.4</ele>
        <time>2024-08-13T13:04:11Z</time>
      </trkpt>
      <trkpt lat="44.84451" lon="6.12407">
        <ele>2111.6</ele>
        <time>2024-08-13T13:04:12Z</time>
      </trkpt>
      <trkpt lat="44.84451" lon="6.12407">
        <ele>2111.8</ele>
        <time>2024-08-13T13:04:13Z</time>
      </trkpt>
      <trkpt lat="44.84449" lon="6.12408">
        <ele>2112</ele>
        <time>2024-08-13T13:04:14Z</time>
      </trkpt>
      <trkpt lat="44.84449" lon="6.12408">
        <ele>2112.2</ele>
        <time>2024-08-13T13:04:15Z</time>
      </trkpt>
      <trkpt lat="44.84449" lon="6.12408">
        <ele>2112.2</ele>
        <time>2024-08-13T13:04:16Z</time>
      </trkpt>
      <trkpt lat="44.84447" lon="6.12411">
        <ele>2112.6</ele>
        <time>2024-08-13T13:04:17Z</time>
      </trkpt>
      <trkpt lat="44.84447" lon="6.12411">
        <ele>2113</ele>
        <time>2024-08-13T13:04:18Z</time>
      </trkpt>
      <trkpt lat="44.84446" lon="6.12413">
        <ele>2113</ele>
        <time>2024-08-13T13:04:19Z</time>
      </trkpt>
      <trkpt lat="44.84446" lon="6.12413">
        <ele>2113.4</ele>
        <time>2024-08-13T13:04:20Z</time>
      </trkpt>
      <trkpt lat="44.84445" lon="6.12415">
        <ele>2113.6</ele>
        <time>2024-08-13T13:04:21Z</time>
      </trkpt>
      <trkpt lat="44.84445" lon="6.12415">
        <ele>2113.6</ele>
        <time>2024-08-13T13:04:22Z</time>
      </trkpt>
      <trkpt lat="44.84443" lon="6.12417">
        <ele>2113.8</ele>
        <time>2024-08-13T13:04:23Z</time>
      </trkpt>
      <trkpt lat="44.84443" lon="6.12417">
        <ele>2113.8</ele>
        <time>2024-08-13T13:04:24Z</time>
      </trkpt>
      <trkpt lat="44.84441" lon="6.12418">
        <ele>2114</ele>
        <time>2024-08-13T13:04:25Z</time>
      </trkpt>
      <trkpt lat="44.84441" lon="6.12418">
        <ele>2114</ele>
        <time>2024-08-13T13:04:26Z</time>
      </trkpt>
      <trkpt lat="44.84441" lon="6.12418">
        <ele>2114.2</ele>
        <time>2024-08-13T13:04:27Z</time>
      </trkpt>
      <trkpt lat="44.84439" lon="6.12421">
        <ele>2114.2</ele>
        <time>2024-08-13T13:04:28Z</time>
      </trkpt>
      <trkpt lat="44.84439" lon="6.12421">
        <ele>2114.4</ele>
        <time>2024-08-13T13:04:29Z</time>
      </trkpt>
      <trkpt lat="44.84437" lon="6.12423">
        <ele>2114.4</ele>
        <time>2024-08-13T13:04:30Z</time>
      </trkpt>
      <trkpt lat="44.84437" lon="6.12423">
        <ele>2114.8</ele>
        <time>2024-08-13T13:04:31Z</time>
      </trkpt>
      <trkpt lat="44.84436" lon="6.12425">
        <ele>2114.8</ele>
        <time>2024-08-13T13:04:32Z</time>
      </trkpt>
      <trkpt lat="44.84436" lon="6.12425">
        <ele>2114.8</ele>
        <time>2024-08-13T13:04:33Z</time>
      </trkpt>
      <trkpt lat="44.84436" lon="6.12425">
        <ele>2114.8</ele>
        <time>2024-08-13T13:04:34Z</time>
      </trkpt>
      <trkpt lat="44.84434" lon="6.12427">
        <ele>2115.2</ele>
        <time>2024-08-13T13:04:35Z</time>
      </trkpt>
      <trkpt lat="44.84434" lon="6.12427">
        <ele>2115.2</ele>
        <time>2024-08-13T13:04:36Z</time>
      </trkpt>
      <trkpt lat="44.84432" lon="6.12428">
        <ele>2115.4</ele>
        <time>2024-08-13T13:04:37Z</time>
      </trkpt>
      <trkpt lat="44.84432" lon="6.12428">
        <ele>2115.4</ele>
        <time>2024-08-13T13:04:38Z</time>
      </trkpt>
      <trkpt lat="44.84432" lon="6.12428">
        <ele>2115.6</ele>
        <time>2024-08-13T13:04:39Z</time>
      </trkpt>
      <trkpt lat="44.8443" lon="6.12431">
        <ele>2115.6</ele>
        <time>2024-08-13T13:04:40Z</time>
      </trkpt>
      <trkpt lat="44.8443" lon="6.12431">
        <ele>2115.8</ele>
        <time>2024-08-13T13:04:41Z</time>
      </trkpt>
      <trkpt lat="44.84428" lon="6.12432">
        <ele>2115.8</ele>
        <time>2024-08-13T13:04:42Z</time>
      </trkpt>
      <trkpt lat="44.84428" lon="6.12432">
        <ele>2116</ele>
        <time>2024-08-13T13:04:43Z</time>
      </trkpt>
      <trkpt lat="44.84426" lon="6.12434">
        <ele>2116.2</ele>
        <time>2024-08-13T13:04:44Z</time>
      </trkpt>
      <trkpt lat="44.84426" lon="6.12434">
        <ele>2116.4</ele>
        <time>2024-08-13T13:04:45Z</time>
      </trkpt>
      <trkpt lat="44.84424" lon="6.12435">
        <ele>2116.4</ele>
        <time>2024-08-13T13:04:46Z</time>
      </trkpt>
      <trkpt lat="44.84424" lon="6.12435">
        <ele>2116.4</ele>
        <time>2024-08-13T13:04:47Z</time>
      </trkpt>
      <trkpt lat="44.84424" lon="6.12435">
        <ele>2116.4</ele>
        <time>2024-08-13T13:04:48Z</time>
      </trkpt>
      <trkpt lat="44.84421" lon="6.12437">
        <ele>2116.6</ele>
        <time>2024-08-13T13:04:49Z</time>
      </trkpt>
      <trkpt lat="44.84421" lon="6.12437">
        <ele>2117</ele>
        <time>2024-08-13T13:04:50Z</time>
      </trkpt>
      <trkpt lat="44.84421" lon="6.12437">
        <ele>2117.2</ele>
        <time>2024-08-13T13:04:51Z</time>
      </trkpt>
      <trkpt lat="44.84419" lon="6.12438">
        <ele>2117.4</ele>
        <time>2024-08-13T13:04:52Z</time>
      </trkpt>
      <trkpt lat="44.84419" lon="6.12438">
        <ele>2117.4</ele>
        <time>2024-08-13T13:04:53Z</time>
      </trkpt>
      <trkpt lat="44.84417" lon="6.12439">
        <ele>2117.4</ele>
        <time>2024-08-13T13:04:54Z</time>
      </trkpt>
      <trkpt lat="44.84417" lon="6.12439">
        <ele>2117.6</ele>
        <time>2024-08-13T13:04:55Z</time>
      </trkpt>
      <trkpt lat="44.84417" lon="6.12439">
        <ele>2117.8</ele>
        <time>2024-08-13T13:04:56Z</time>
      </trkpt>
      <trkpt lat="44.84415" lon="6.1244">
        <ele>2117.8</ele>
        <time>2024-08-13T13:04:57Z</time>
      </trkpt>
      <trkpt lat="44.84415" lon="6.1244">
        <ele>2118</ele>
        <time>2024-08-13T13:04:58Z</time>
      </trkpt>
      <trkpt lat="44.84413" lon="6.1244">
        <ele>2118</ele>
        <time>2024-08-13T13:04:59Z</time>
      </trkpt>
      <trkpt lat="44.84413" lon="6.1244">
        <ele>2118.4</ele>
        <time>2024-08-13T13:05:00Z</time>
      </trkpt>
      <trkpt lat="44.84413" lon="6.1244">
        <ele>2119</ele>
        <time>2024-08-13T13:05:01Z</time>
      </trkpt>
      <trkpt lat="44.84413" lon="6.12437">
        <ele>2119.2</ele>
        <time>2024-08-13T13:05:02Z</time>
      </trkpt>
      <trkpt lat="44.84413" lon="6.12437">
        <ele>2119.2</ele>
        <time>2024-08-13T13:05:03Z</time>
      </trkpt>
      <trkpt lat="44.84413" lon="6.12437">
        <ele>2119.2</ele>
        <time>2024-08-13T13:05:04Z</time>
      </trkpt>
      <trkpt lat="44.84413" lon="6.12437">
        <ele>2119.2</ele>
        <time>2024-08-13T13:05:05Z</time>
      </trkpt>
      <trkpt lat="44.84413" lon="6.12437">
        <ele>2119.4</ele>
        <time>2024-08-13T13:05:06Z</time>
      </trkpt>
      <trkpt lat="44.84413" lon="6.12437">
        <ele>2119.6</ele>
        <time>2024-08-13T13:05:07Z</time>
      </trkpt>
      <trkpt lat="44.84413" lon="6.12437">
        <ele>2119.6</ele>
        <time>2024-08-13T13:05:08Z</time>
      </trkpt>
      <trkpt lat="44.84413" lon="6.12437">
        <ele>2119.4</ele>
        <time>2024-08-13T13:05:09Z</time>
      </trkpt>
      <trkpt lat="44.84413" lon="6.12437">
        <ele>2119.4</ele>
        <time>2024-08-13T13:05:10Z</time>
      </trkpt>
      <trkpt lat="44.84413" lon="6.12437">
        <ele>2119.4</ele>
        <time>2024-08-13T13:05:11Z</time>
      </trkpt>
      <trkpt lat="44.84413" lon="6.12437">
        <ele>2119.6</ele>
        <time>2024-08-13T13:05:12Z</time>
      </trkpt>
      <trkpt lat="44.84413" lon="6.12437">
        <ele>2119.8</ele>
        <time>2024-08-13T13:05:13Z</time>
      </trkpt>
      <trkpt lat="44.84413" lon="6.12437">
        <ele>2119.8</ele>
        <time>2024-08-13T13:05:14Z</time>
      </trkpt>
      <trkpt lat="44.84413" lon="6.12437">
        <ele>2119.6</ele>
        <time>2024-08-13T13:05:15Z</time>
      </trkpt>
      <trkpt lat="44.84413" lon="6.12437">
        <ele>2119.6</ele>
        <time>2024-08-13T13:05:16Z</time>
      </trkpt>
      <trkpt lat="44.84413" lon="6.12437">
        <ele>2119.8</ele>
        <time>2024-08-13T13:05:17Z</time>
      </trkpt>
      <trkpt lat="44.84413" lon="6.12437">
        <ele>2120</ele>
        <time>2024-08-13T13:05:18Z</time>
      </trkpt>
      <trkpt lat="44.84413" lon="6.12437">
        <ele>2120.2</ele>
        <time>2024-08-13T13:05:19Z</time>
      </trkpt>
      <trkpt lat="44.84415" lon="6.12434">
        <ele>2120.2</ele>
        <time>2024-08-13T13:05:20Z</time>
      </trkpt>
      <trkpt lat="44.84415" lon="6.12434">
        <ele>2120.8</ele>
        <time>2024-08-13T13:05:21Z</time>
      </trkpt>
      <trkpt lat="44.84417" lon="6.12432">
        <ele>2120.8</ele>
        <time>2024-08-13T13:05:22Z</time>
      </trkpt>
      <trkpt lat="44.84417" lon="6.12432">
        <ele>2120.8</ele>
        <time>2024-08-13T13:05:23Z</time>
      </trkpt>
      <trkpt lat="44.84418" lon="6.12428">
        <ele>2121</ele>
        <time>2024-08-13T13:05:24Z</time>
      </trkpt>
      <trkpt lat="44.84418" lon="6.12428">
        <ele>2121.2</ele>
        <time>2024-08-13T13:05:25Z</time>
      </trkpt>
      <trkpt lat="44.84417" lon="6.12426">
        <ele>2121.4</ele>
        <time>2024-08-13T13:05:26Z</time>
      </trkpt>
      <trkpt lat="44.84417" lon="6.12426">
        <ele>2122</ele>
        <time>2024-08-13T13:05:27Z</time>
      </trkpt>
      <trkpt lat="44.84415" lon="6.12423">
        <ele>2122</ele>
        <time>2024-08-13T13:05:28Z</time>
      </trkpt>
      <trkpt lat="44.84415" lon="6.12423">
        <ele>2122</ele>
        <time>2024-08-13T13:05:29Z</time>
      </trkpt>
      <trkpt lat="44.84413" lon="6.12421">
        <ele>2122.4</ele>
        <time>2024-08-13T13:05:30Z</time>
      </trkpt>
      <trkpt lat="44.84413" lon="6.12421">
        <ele>2122.4</ele>
        <time>2024-08-13T13:05:31Z</time>
      </trkpt>
      <trkpt lat="44.84413" lon="6.12421">
        <ele>2122.8</ele>
        <time>2024-08-13T13:05:32Z</time>
      </trkpt>
      <trkpt lat="44.84415" lon="6.12419">
        <ele>2122.8</ele>
        <time>2024-08-13T13:05:33Z</time>
      </trkpt>
      <trkpt lat="44.84415" lon="6.12419">
        <ele>2123</ele>
        <time>2024-08-13T13:05:34Z</time>
      </trkpt>
      <trkpt lat="44.84417" lon="6.12418">
        <ele>2123.2</ele>
        <time>2024-08-13T13:05:35Z</time>
      </trkpt>
      <trkpt lat="44.84417" lon="6.12418">
        <ele>2123.4</ele>
        <time>2024-08-13T13:05:36Z</time>
      </trkpt>
      <trkpt lat="44.84419" lon="6.12416">
        <ele>2123.8</ele>
        <time>2024-08-13T13:05:37Z</time>
      </trkpt>
      <trkpt lat="44.84419" lon="6.12416">
        <ele>2123.8</ele>
        <time>2024-08-13T13:05:38Z</time>
      </trkpt>
      <trkpt lat="44.84419" lon="6.12416">
        <ele>2124.2</ele>
        <time>2024-08-13T13:05:39Z</time>
      </trkpt>
      <trkpt lat="44.84419" lon="6.12416">
        <ele>2124.2</ele>
        <time>2024-08-13T13:05:40Z</time>
      </trkpt>
      <trkpt lat="44.84419" lon="6.12412">
        <ele>2124.2</ele>
        <time>2024-08-13T13:05:41Z</time>
      </trkpt>
      <trkpt lat="44.84419" lon="6.12412">
        <ele>2124.4</ele>
        <time>2024-08-13T13:05:42Z</time>
      </trkpt>
      <trkpt lat="44.84419" lon="6.12412">
        <ele>2124.8</ele>
        <time>2024-08-13T13:05:43Z</time>
      </trkpt>
      <trkpt lat="44.8442" lon="6.12409">
        <ele>2125</ele>
        <time>2024-08-13T13:05:44Z</time>
      </trkpt>
      <trkpt lat="44.8442" lon="6.12409">
        <ele>2125</ele>
        <time>2024-08-13T13:05:45Z</time>
      </trkpt>
      <trkpt lat="44.8442" lon="6.12409">
        <ele>2125.2</ele>
        <time>2024-08-13T13:05:46Z</time>
      </trkpt>
      <trkpt lat="44.84422" lon="6.12407">
        <ele>2125.2</ele>
        <time>2024-08-13T13:05:47Z</time>
      </trkpt>
      <trkpt lat="44.84422" lon="6.12407">
        <ele>2125.6</ele>
        <time>2024-08-13T13:05:48Z</time>
      </trkpt>
      <trkpt lat="44.84422" lon="6.12407">
        <ele>2125.8</ele>
        <time>2024-08-13T13:05:49Z</time>
      </trkpt>
      <trkpt lat="44.84423" lon="6.12404">
        <ele>2126</ele>
        <time>2024-08-13T13:05:50Z</time>
      </trkpt>
      <trkpt lat="44.84423" lon="6.12404">
        <ele>2126</ele>
        <time>2024-08-13T13:05:51Z</time>
      </trkpt>
      <trkpt lat="44.84423" lon="6.12404">
        <ele>2126</ele>
        <time>2024-08-13T13:05:52Z</time>
      </trkpt>
      <trkpt lat="44.84425" lon="6.12401">
        <ele>2126.2</ele>
        <time>2024-08-13T13:05:53Z</time>
      </trkpt>
      <trkpt lat="44.84425" lon="6.12401">
        <ele>2126.4</ele>
        <time>2024-08-13T13:05:54Z</time>
      </trkpt>
      <trkpt lat="44.84425" lon="6.12401">
        <ele>2126.4</ele>
        <time>2024-08-13T13:05:55Z</time>
      </trkpt>
      <trkpt lat="44.84425" lon="6.12398">
        <ele>2126.6</ele>
        <time>2024-08-13T13:05:56Z</time>
      </trkpt>
      <trkpt lat="44.84425" lon="6.12398">
        <ele>2126.8</ele>
        <time>2024-08-13T13:05:57Z</time>
      </trkpt>
      <trkpt lat="44.84425" lon="6.12398">
        <ele>2126.8</ele>
        <time>2024-08-13T13:05:58Z</time>
      </trkpt>
      <trkpt lat="44.84427" lon="6.12394">
        <ele>2127</ele>
        <time>2024-08-13T13:05:59Z</time>
      </trkpt>
      <trkpt lat="44.84427" lon="6.12394">
        <ele>2127.2</ele>
        <time>2024-08-13T13:06:00Z</time>
      </trkpt>
      <trkpt lat="44.84427" lon="6.12394">
        <ele>2127.4</ele>
        <time>2024-08-13T13:06:01Z</time>
      </trkpt>
      <trkpt lat="44.84427" lon="6.1239">
        <ele>2127.8</ele>
        <time>2024-08-13T13:06:02Z</time>
      </trkpt>
      <trkpt lat="44.84427" lon="6.1239">
        <ele>2127.8</ele>
        <time>2024-08-13T13:06:03Z</time>
      </trkpt>
      <trkpt lat="44.84427" lon="6.1239">
        <ele>2127.8</ele>
        <time>2024-08-13T13:06:04Z</time>
      </trkpt>
      <trkpt lat="44.84428" lon="6.12387">
        <ele>2128.4</ele>
        <time>2024-08-13T13:06:05Z</time>
      </trkpt>
      <trkpt lat="44.84428" lon="6.12387">
        <ele>2128.4</ele>
        <time>2024-08-13T13:06:06Z</time>
      </trkpt>
      <trkpt lat="44.84428" lon="6.12387">
        <ele>2128.4</ele>
        <time>2024-08-13T13:06:07Z</time>
      </trkpt>
      <trkpt lat="44.84429" lon="6.12384">
        <ele>2128.4</ele>
        <time>2024-08-13T13:06:08Z</time>
      </trkpt>
      <trkpt lat="44.84429" lon="6.12384">
        <ele>2129</ele>
        <time>2024-08-13T13:06:09Z</time>
      </trkpt>
      <trkpt lat="44.84429" lon="6.12381">
        <ele>2129.2</ele>
        <time>2024-08-13T13:06:10Z</time>
      </trkpt>
      <trkpt lat="44.84429" lon="6.12381">
        <ele>2129.2</ele>
        <time>2024-08-13T13:06:11Z</time>
      </trkpt>
      <trkpt lat="44.8443" lon="6.1238">
        <ele>2129.6</ele>
        <time>2024-08-13T13:06:12Z</time>
      </trkpt>
      <trkpt lat="44.8443" lon="6.1238">
        <ele>2129.6</ele>
        <time>2024-08-13T13:06:13Z</time>
      </trkpt>
      <trkpt lat="44.8443" lon="6.1238">
        <ele>2129.8</ele>
        <time>2024-08-13T13:06:14Z</time>
      </trkpt>
      <trkpt lat="44.84432" lon="6.12377">
        <ele>2129.8</ele>
        <time>2024-08-13T13:06:15Z</time>
      </trkpt>
      <trkpt lat="44.84432" lon="6.12377">
        <ele>2129.6</ele>
        <time>2024-08-13T13:06:16Z</time>
      </trkpt>
      <trkpt lat="44.84433" lon="6.12374">
        <ele>2129.6</ele>
        <time>2024-08-13T13:06:17Z</time>
      </trkpt>
      <trkpt lat="44.84433" lon="6.12374">
        <ele>2130</ele>
        <time>2024-08-13T13:06:18Z</time>
      </trkpt>
      <trkpt lat="44.84433" lon="6.12374">
        <ele>2130</ele>
        <time>2024-08-13T13:06:19Z</time>
      </trkpt>
      <trkpt lat="44.84433" lon="6.12374">
        <ele>2130</ele>
        <time>2024-08-13T13:06:20Z</time>
      </trkpt>
      <trkpt lat="44.84433" lon="6.12374">
        <ele>2130.2</ele>
        <time>2024-08-13T13:06:21Z</time>
      </trkpt>
      <trkpt lat="44.84433" lon="6.12374">
        <ele>2130.2</ele>
        <time>2024-08-13T13:06:22Z</time>
      </trkpt>
      <trkpt lat="44.84433" lon="6.12374">
        <ele>2130.2</ele>
        <time>2024-08-13T13:06:23Z</time>
      </trkpt>
      <trkpt lat="44.84433" lon="6.12374">
        <ele>2130</ele>
        <time>2024-08-13T13:06:24Z</time>
      </trkpt>
      <trkpt lat="44.84433" lon="6.12374">
        <ele>2130.2</ele>
        <time>2024-08-13T13:06:25Z</time>
      </trkpt>
      <trkpt lat="44.84433" lon="6.12374">
        <ele>2130.2</ele>
        <time>2024-08-13T13:06:26Z</time>
      </trkpt>
      <trkpt lat="44.84433" lon="6.12374">
        <ele>2130.2</ele>
        <time>2024-08-13T13:06:27Z</time>
      </trkpt>
      <trkpt lat="44.84433" lon="6.12374">
        <ele>2130.2</ele>
        <time>2024-08-13T13:06:28Z</time>
      </trkpt>
      <trkpt lat="44.84433" lon="6.12374">
        <ele>2130.2</ele>
        <time>2024-08-13T13:06:29Z</time>
      </trkpt>
      <trkpt lat="44.84433" lon="6.12374">
        <ele>2130.2</ele>
        <time>2024-08-13T13:06:30Z</time>
      </trkpt>
      <trkpt lat="44.84433" lon="6.12374">
        <ele>2130.2</ele>
        <time>2024-08-13T13:06:31Z</time>
      </trkpt>
      <trkpt lat="44.84433" lon="6.12374">
        <ele>2130.2</ele>
        <time>2024-08-13T13:06:32Z</time>
      </trkpt>
      <trkpt lat="44.84433" lon="6.12374">
        <ele>2130.2</ele>
        <time>2024-08-13T13:06:33Z</time>
      </trkpt>
      <trkpt lat="44.84433" lon="6.12374">
        <ele>2130.2</ele>
        <time>2024-08-13T13:06:34Z</time>
      </trkpt>
      <trkpt lat="44.84433" lon="6.12374">
        <ele>2130.4</ele>
        <time>2024-08-13T13:06:35Z</time>
      </trkpt>
      <trkpt lat="44.84433" lon="6.12374">
        <ele>2130.4</ele>
        <time>2024-08-13T13:06:36Z</time>
      </trkpt>
      <trkpt lat="44.84433" lon="6.12374">
        <ele>2130.2</ele>
        <time>2024-08-13T13:06:37Z</time>
      </trkpt>
      <trkpt lat="44.84433" lon="6.12374">
        <ele>2130.2</ele>
        <time>2024-08-13T13:06:38Z</time>
      </trkpt>
      <trkpt lat="44.84433" lon="6.12374">
        <ele>2130</ele>
        <time>2024-08-13T13:06:39Z</time>
      </trkpt>
      <trkpt lat="44.84433" lon="6.12374">
        <ele>2129.8</ele>
        <time>2024-08-13T13:06:40Z</time>
      </trkpt>
      <trkpt lat="44.84431" lon="6.12376">
        <ele>2129.8</ele>
        <time>2024-08-13T13:06:41Z</time>
      </trkpt>
      <trkpt lat="44.84431" lon="6.12376">
        <ele>2130.2</ele>
        <time>2024-08-13T13:06:42Z</time>
      </trkpt>
      <trkpt lat="44.8443" lon="6.12379">
        <ele>2130.4</ele>
        <time>2024-08-13T13:06:43Z</time>
      </trkpt>
      <trkpt lat="44.8443" lon="6.12379">
        <ele>2130.6</ele>
        <time>2024-08-13T13:06:44Z</time>
      </trkpt>
      <trkpt lat="44.84429" lon="6.12382">
        <ele>2130.8</ele>
        <time>2024-08-13T13:06:45Z</time>
      </trkpt>
      <trkpt lat="44.84429" lon="6.12382">
        <ele>2130.8</ele>
        <time>2024-08-13T13:06:46Z</time>
      </trkpt>
      <trkpt lat="44.84429" lon="6.12385">
        <ele>2130.8</ele>
        <time>2024-08-13T13:06:47Z</time>
      </trkpt>
      <trkpt lat="44.84429" lon="6.12385">
        <ele>2130.8</ele>
        <time>2024-08-13T13:06:48Z</time>
      </trkpt>
      <trkpt lat="44.84429" lon="6.12385">
        <ele>2131</ele>
        <time>2024-08-13T13:06:49Z</time>
      </trkpt>
      <trkpt lat="44.84428" lon="6.12388">
        <ele>2131.2</ele>
        <time>2024-08-13T13:06:50Z</time>
      </trkpt>
      <trkpt lat="44.84428" lon="6.12388">
        <ele>2131.4</ele>
        <time>2024-08-13T13:06:51Z</time>
      </trkpt>
      <trkpt lat="44.84428" lon="6.12388">
        <ele>2131.4</ele>
        <time>2024-08-13T13:06:52Z</time>
      </trkpt>
      <trkpt lat="44.84427" lon="6.12391">
        <ele>2132</ele>
        <time>2024-08-13T13:06:53Z</time>
      </trkpt>
      <trkpt lat="44.84427" lon="6.12391">
        <ele>2132</ele>
        <time>2024-08-13T13:06:54Z</time>
      </trkpt>
      <trkpt lat="44.84427" lon="6.12391">
        <ele>2132</ele>
        <time>2024-08-13T13:06:55Z</time>
      </trkpt>
      <trkpt lat="44.84426" lon="6.12394">
        <ele>2132.2</ele>
        <time>2024-08-13T13:06:56Z</time>
      </trkpt>
      <trkpt lat="44.84426" lon="6.12394">
        <ele>2132.2</ele>
        <time>2024-08-13T13:06:57Z</time>
      </trkpt>
      <trkpt lat="44.84426" lon="6.12394">
        <ele>2132.4</ele>
        <time>2024-08-13T13:06:58Z</time>
      </trkpt>
      <trkpt lat="44.84424" lon="6.12396">
        <ele>2132.6</ele>
        <time>2024-08-13T13:06:59Z</time>
      </trkpt>
      <trkpt lat="44.84424" lon="6.12396">
        <ele>2132.6</ele>
        <time>2024-08-13T13:07:00Z</time>
      </trkpt>
      <trkpt lat="44.84424" lon="6.12396">
        <ele>2133</ele>
        <time>2024-08-13T13:07:01Z</time>
      </trkpt>
      <trkpt lat="44.84421" lon="6.12398">
        <ele>2133.2</ele>
        <time>2024-08-13T13:07:02Z</time>
      </trkpt>
      <trkpt lat="44.84421" lon="6.12398">
        <ele>2133.2</ele>
        <time>2024-08-13T13:07:03Z</time>
      </trkpt>
      <trkpt lat="44.84419" lon="6.12399">
        <ele>2133.4</ele>
        <time>2024-08-13T13:07:04Z</time>
      </trkpt>
      <trkpt lat="44.84419" lon="6.12399">
        <ele>2133.8</ele>
        <time>2024-08-13T13:07:05Z</time>
      </trkpt>
      <trkpt lat="44.84418" lon="6.124">
        <ele>2133.8</ele>
        <time>2024-08-13T13:07:06Z</time>
      </trkpt>
      <trkpt lat="44.84418" lon="6.124">
        <ele>2134</ele>
        <time>2024-08-13T13:07:07Z</time>
      </trkpt>
      <trkpt lat="44.84418" lon="6.124">
        <ele>2134.2</ele>
        <time>2024-08-13T13:07:08Z</time>
      </trkpt>
      <trkpt lat="44.84415" lon="6.12402">
        <ele>2134.4</ele>
        <time>2024-08-13T13:07:09Z</time>
      </trkpt>
      <trkpt lat="44.84415" lon="6.12402">
        <ele>2134.4</ele>
        <time>2024-08-13T13:07:10Z</time>
      </trkpt>
      <trkpt lat="44.84415" lon="6.12402">
        <ele>2134.4</ele>
        <time>2024-08-13T13:07:11Z</time>
      </trkpt>
      <trkpt lat="44.84414" lon="6.12405">
        <ele>2134.6</ele>
        <time>2024-08-13T13:07:12Z</time>
      </trkpt>
      <trkpt lat="44.84414" lon="6.12405">
        <ele>2134.8</ele>
        <time>2024-08-13T13:07:13Z</time>
      </trkpt>
      <trkpt lat="44.84412" lon="6.12406">
        <ele>2134.8</ele>
        <time>2024-08-13T13:07:14Z</time>
      </trkpt>
      <trkpt lat="44.84412" lon="6.12406">
        <ele>2135.2</ele>
        <time>2024-08-13T13:07:15Z</time>
      </trkpt>
      <trkpt lat="44.84412" lon="6.12406">
        <ele>2135.4</ele>
        <time>2024-08-13T13:07:16Z</time>
      </trkpt>
      <trkpt lat="44.8441" lon="6.12407">
        <ele>2135.4</ele>
        <time>2024-08-13T13:07:17Z</time>
      </trkpt>
      <trkpt lat="44.8441" lon="6.12407">
        <ele>2135.4</ele>
        <time>2024-08-13T13:07:18Z</time>
      </trkpt>
      <trkpt lat="44.8441" lon="6.12407">
        <ele>2135.6</ele>
        <time>2024-08-13T13:07:19Z</time>
      </trkpt>
      <trkpt lat="44.84408" lon="6.12409">
        <ele>2135.8</ele>
        <time>2024-08-13T13:07:20Z</time>
      </trkpt>
      <trkpt lat="44.84408" lon="6.12409">
        <ele>2136</ele>
        <time>2024-08-13T13:07:21Z</time>
      </trkpt>
      <trkpt lat="44.84408" lon="6.12409">
        <ele>2136.2</ele>
        <time>2024-08-13T13:07:22Z</time>
      </trkpt>
      <trkpt lat="44.84406" lon="6.1241">
        <ele>2136.4</ele>
        <time>2024-08-13T13:07:23Z</time>
      </trkpt>
      <trkpt lat="44.84406" lon="6.1241">
        <ele>2136.4</ele>
        <time>2024-08-13T13:07:24Z</time>
      </trkpt>
      <trkpt lat="44.84406" lon="6.1241">
        <ele>2136.6</ele>
        <time>2024-08-13T13:07:25Z</time>
      </trkpt>
      <trkpt lat="44.84406" lon="6.1241">
        <ele>2137</ele>
        <time>2024-08-13T13:07:26Z</time>
      </trkpt>
      <trkpt lat="44.84404" lon="6.12409">
        <ele>2137</ele>
        <time>2024-08-13T13:07:27Z</time>
      </trkpt>
      <trkpt lat="44.84404" lon="6.12409">
        <ele>2137.2</ele>
        <time>2024-08-13T13:07:28Z</time>
      </trkpt>
      <trkpt lat="44.84404" lon="6.12409">
        <ele>2137.4</ele>
        <time>2024-08-13T13:07:29Z</time>
      </trkpt>
      <trkpt lat="44.84405" lon="6.12406">
        <ele>2137.4</ele>
        <time>2024-08-13T13:07:30Z</time>
      </trkpt>
      <trkpt lat="44.84405" lon="6.12406">
        <ele>2138</ele>
        <time>2024-08-13T13:07:31Z</time>
      </trkpt>
      <trkpt lat="44.84405" lon="6.12406">
        <ele>2138</ele>
        <time>2024-08-13T13:07:32Z</time>
      </trkpt>
      <trkpt lat="44.84406" lon="6.12404">
        <ele>2138.2</ele>
        <time>2024-08-13T13:07:33Z</time>
      </trkpt>
      <trkpt lat="44.84406" lon="6.12404">
        <ele>2138.2</ele>
        <time>2024-08-13T13:07:34Z</time>
      </trkpt>
      <trkpt lat="44.84407" lon="6.12401">
        <ele>2138.2</ele>
        <time>2024-08-13T13:07:35Z</time>
      </trkpt>
      <trkpt lat="44.84407" lon="6.12401">
        <ele>2138.2</ele>
        <time>2024-08-13T13:07:36Z</time>
      </trkpt>
      <trkpt lat="44.84407" lon="6.12401">
        <ele>2138.2</ele>
        <time>2024-08-13T13:07:37Z</time>
      </trkpt>
      <trkpt lat="44.84407" lon="6.12401">
        <ele>2138.2</ele>
        <time>2024-08-13T13:07:38Z</time>
      </trkpt>
      <trkpt lat="44.84407" lon="6.12401">
        <ele>2138.6</ele>
        <time>2024-08-13T13:07:39Z</time>
      </trkpt>
      <trkpt lat="44.84407" lon="6.12399">
        <ele>2139</ele>
        <time>2024-08-13T13:07:40Z</time>
      </trkpt>
      <trkpt lat="44.84407" lon="6.12399">
        <ele>2139</ele>
        <time>2024-08-13T13:07:41Z</time>
      </trkpt>
      <trkpt lat="44.84407" lon="6.12399">
        <ele>2139</ele>
        <time>2024-08-13T13:07:42Z</time>
      </trkpt>
      <trkpt lat="44.84408" lon="6.12395">
        <ele>2139.2</ele>
        <time>2024-08-13T13:07:43Z</time>
      </trkpt>
      <trkpt lat="44.84408" lon="6.12395">
        <ele>2139.6</ele>
        <time>2024-08-13T13:07:44Z</time>
      </trkpt>
      <trkpt lat="44.84409" lon="6.12393">
        <ele>2139.8</ele>
        <time>2024-08-13T13:07:45Z</time>
      </trkpt>
      <trkpt lat="44.84409" lon="6.12393">
        <ele>2140</ele>
        <time>2024-08-13T13:07:46Z</time>
      </trkpt>
      <trkpt lat="44.8441" lon="6.1239">
        <ele>2140</ele>
        <time>2024-08-13T13:07:47Z</time>
      </trkpt>
      <trkpt lat="44.8441" lon="6.1239">
        <ele>2140.4</ele>
        <time>2024-08-13T13:07:48Z</time>
      </trkpt>
      <trkpt lat="44.8441" lon="6.1239">
        <ele>2140.6</ele>
        <time>2024-08-13T13:07:49Z</time>
      </trkpt>
      <trkpt lat="44.84411" lon="6.12387">
        <ele>2140.8</ele>
        <time>2024-08-13T13:07:50Z</time>
      </trkpt>
      <trkpt lat="44.84411" lon="6.12387">
        <ele>2141</ele>
        <time>2024-08-13T13:07:51Z</time>
      </trkpt>
      <trkpt lat="44.84411" lon="6.12387">
        <ele>2141.2</ele>
        <time>2024-08-13T13:07:52Z</time>
      </trkpt>
      <trkpt lat="44.84411" lon="6.12385">
        <ele>2141.4</ele>
        <time>2024-08-13T13:07:53Z</time>
      </trkpt>
      <trkpt lat="44.84411" lon="6.12385">
        <ele>2141.4</ele>
        <time>2024-08-13T13:07:54Z</time>
      </trkpt>
      <trkpt lat="44.84411" lon="6.12385">
        <ele>2141.4</ele>
        <time>2024-08-13T13:07:55Z</time>
      </trkpt>
      <trkpt lat="44.84412" lon="6.12382">
        <ele>2141.8</ele>
        <time>2024-08-13T13:07:56Z</time>
      </trkpt>
      <trkpt lat="44.84412" lon="6.12382">
        <ele>2141.8</ele>
        <time>2024-08-13T13:07:57Z</time>
      </trkpt>
      <trkpt lat="44.84412" lon="6.12382">
        <ele>2142.2</ele>
        <time>2024-08-13T13:07:58Z</time>
      </trkpt>
      <trkpt lat="44.84412" lon="6.12382">
        <ele>2142.2</ele>
        <time>2024-08-13T13:07:59Z</time>
      </trkpt>
      <trkpt lat="44.84411" lon="6.12379">
        <ele>2142.4</ele>
        <time>2024-08-13T13:08:00Z</time>
      </trkpt>
      <trkpt lat="44.84411" lon="6.12379">
        <ele>2142.4</ele>
        <time>2024-08-13T13:08:01Z</time>
      </trkpt>
      <trkpt lat="44.84411" lon="6.12379">
        <ele>2142.8</ele>
        <time>2024-08-13T13:08:02Z</time>
      </trkpt>
      <trkpt lat="44.84412" lon="6.12376">
        <ele>2142.8</ele>
        <time>2024-08-13T13:08:03Z</time>
      </trkpt>
      <trkpt lat="44.84412" lon="6.12376">
        <ele>2143.2</ele>
        <time>2024-08-13T13:08:04Z</time>
      </trkpt>
      <trkpt lat="44.84412" lon="6.12376">
        <ele>2143.4</ele>
        <time>2024-08-13T13:08:05Z</time>
      </trkpt>
      <trkpt lat="44.84413" lon="6.12373">
        <ele>2143.6</ele>
        <time>2024-08-13T13:08:06Z</time>
      </trkpt>
      <trkpt lat="44.84413" lon="6.12373">
        <ele>2143.8</ele>
        <time>2024-08-13T13:08:07Z</time>
      </trkpt>
      <trkpt lat="44.84413" lon="6.12373">
        <ele>2143.8</ele>
        <time>2024-08-13T13:08:08Z</time>
      </trkpt>
      <trkpt lat="44.84413" lon="6.12371">
        <ele>2144.2</ele>
        <time>2024-08-13T13:08:09Z</time>
      </trkpt>
      <trkpt lat="44.84413" lon="6.12371">
        <ele>2144.6</ele>
        <time>2024-08-13T13:08:10Z</time>
      </trkpt>
      <trkpt lat="44.84413" lon="6.12371">
        <ele>2144.6</ele>
        <time>2024-08-13T13:08:11Z</time>
      </trkpt>
      <trkpt lat="44.84413" lon="6.12371">
        <ele>2144.6</ele>
        <time>2024-08-13T13:08:12Z</time>
      </trkpt>
      <trkpt lat="44.84414" lon="6.12368">
        <ele>2144.6</ele>
        <time>2024-08-13T13:08:13Z</time>
      </trkpt>
      <trkpt lat="44.84414" lon="6.12368">
        <ele>2145.4</ele>
        <time>2024-08-13T13:08:14Z</time>
      </trkpt>
      <trkpt lat="44.84415" lon="6.12365">
        <ele>2145.4</ele>
        <time>2024-08-13T13:08:15Z</time>
      </trkpt>
      <trkpt lat="44.84415" lon="6.12365">
        <ele>2145.4</ele>
        <time>2024-08-13T13:08:16Z</time>
      </trkpt>
      <trkpt lat="44.84417" lon="6.12363">
        <ele>2145.4</ele>
        <time>2024-08-13T13:08:17Z</time>
      </trkpt>
      <trkpt lat="44.84417" lon="6.12363">
        <ele>2146.4</ele>
        <time>2024-08-13T13:08:18Z</time>
      </trkpt>
      <trkpt lat="44.84419" lon="6.12361">
        <ele>2146.4</ele>
        <time>2024-08-13T13:08:19Z</time>
      </trkpt>
      <trkpt lat="44.84419" lon="6.12361">
        <ele>2146.6</ele>
        <time>2024-08-13T13:08:20Z</time>
      </trkpt>
      <trkpt lat="44.8442" lon="6.12359">
        <ele>2146.6</ele>
        <time>2024-08-13T13:08:21Z</time>
      </trkpt>
      <trkpt lat="44.8442" lon="6.12359">
        <ele>2146.6</ele>
        <time>2024-08-13T13:08:22Z</time>
      </trkpt>
      <trkpt lat="44.84422" lon="6.12357">
        <ele>2146.6</ele>
        <time>2024-08-13T13:08:23Z</time>
      </trkpt>
      <trkpt lat="44.84422" lon="6.12357">
        <ele>2146.8</ele>
        <time>2024-08-13T13:08:24Z</time>
      </trkpt>
      <trkpt lat="44.84424" lon="6.12357">
        <ele>2146.8</ele>
        <time>2024-08-13T13:08:25Z</time>
      </trkpt>
      <trkpt lat="44.84424" lon="6.12357">
        <ele>2147</ele>
        <time>2024-08-13T13:08:26Z</time>
      </trkpt>
      <trkpt lat="44.84427" lon="6.12357">
        <ele>2147.4</ele>
        <time>2024-08-13T13:08:27Z</time>
      </trkpt>
      <trkpt lat="44.84427" lon="6.12357">
        <ele>2147.4</ele>
        <time>2024-08-13T13:08:28Z</time>
      </trkpt>
      <trkpt lat="44.84427" lon="6.12357">
        <ele>2148</ele>
        <time>2024-08-13T13:08:29Z</time>
      </trkpt>
      <trkpt lat="44.84427" lon="6.12357">
        <ele>2148.2</ele>
        <time>2024-08-13T13:08:30Z</time>
      </trkpt>
      <trkpt lat="44.84425" lon="6.12355">
        <ele>2148.4</ele>
        <time>2024-08-13T13:08:31Z</time>
      </trkpt>
      <trkpt lat="44.84425" lon="6.12355">
        <ele>2148.4</ele>
        <time>2024-08-13T13:08:32Z</time>
      </trkpt>
      <trkpt lat="44.84423" lon="6.12356">
        <ele>2148.4</ele>
        <time>2024-08-13T13:08:33Z</time>
      </trkpt>
      <trkpt lat="44.84423" lon="6.12356">
        <ele>2147.8</ele>
        <time>2024-08-13T13:08:34Z</time>
      </trkpt>
      <trkpt lat="44.84423" lon="6.12356">
        <ele>2147.8</ele>
        <time>2024-08-13T13:08:35Z</time>
      </trkpt>
      <trkpt lat="44.84421" lon="6.12358">
        <ele>2148</ele>
        <time>2024-08-13T13:08:36Z</time>
      </trkpt>
      <trkpt lat="44.84421" lon="6.12358">
        <ele>2148</ele>
        <time>2024-08-13T13:08:37Z</time>
      </trkpt>
      <trkpt lat="44.84419" lon="6.1236">
        <ele>2148.2</ele>
        <time>2024-08-13T13:08:38Z</time>
      </trkpt>
      <trkpt lat="44.84419" lon="6.1236">
        <ele>2148</ele>
        <time>2024-08-13T13:08:39Z</time>
      </trkpt>
      <trkpt lat="44.84417" lon="6.12361">
        <ele>2148</ele>
        <time>2024-08-13T13:08:40Z</time>
      </trkpt>
      <trkpt lat="44.84417" lon="6.12361">
        <ele>2148</ele>
        <time>2024-08-13T13:08:41Z</time>
      </trkpt>
      <trkpt lat="44.84415" lon="6.12363">
        <ele>2148.2</ele>
        <time>2024-08-13T13:08:42Z</time>
      </trkpt>
      <trkpt lat="44.84415" lon="6.12363">
        <ele>2148.4</ele>
        <time>2024-08-13T13:08:43Z</time>
      </trkpt>
      <trkpt lat="44.84414" lon="6.12364">
        <ele>2148.4</ele>
        <time>2024-08-13T13:08:44Z</time>
      </trkpt>
      <trkpt lat="44.84414" lon="6.12364">
        <ele>2148.6</ele>
        <time>2024-08-13T13:08:45Z</time>
      </trkpt>
      <trkpt lat="44.84414" lon="6.12364">
        <ele>2148.6</ele>
        <time>2024-08-13T13:08:46Z</time>
      </trkpt>
      <trkpt lat="44.84412" lon="6.12367">
        <ele>2148.8</ele>
        <time>2024-08-13T13:08:47Z</time>
      </trkpt>
      <trkpt lat="44.84412" lon="6.12367">
        <ele>2148.8</ele>
        <time>2024-08-13T13:08:48Z</time>
      </trkpt>
      <trkpt lat="44.84411" lon="6.12369">
        <ele>2148.8</ele>
        <time>2024-08-13T13:08:49Z</time>
      </trkpt>
      <trkpt lat="44.8441" lon="6.12371">
        <ele>2148.8</ele>
        <time>2024-08-13T13:08:50Z</time>
      </trkpt>
      <trkpt lat="44.8441" lon="6.12371">
        <ele>2148.8</ele>
        <time>2024-08-13T13:08:51Z</time>
      </trkpt>
      <trkpt lat="44.8441" lon="6.12371">
        <ele>2149</ele>
        <time>2024-08-13T13:08:52Z</time>
      </trkpt>
      <trkpt lat="44.84408" lon="6.12373">
        <ele>2149.4</ele>
        <time>2024-08-13T13:08:53Z</time>
      </trkpt>
      <trkpt lat="44.84408" lon="6.12373">
        <ele>2149.6</ele>
        <time>2024-08-13T13:08:54Z</time>
      </trkpt>
      <trkpt lat="44.84407" lon="6.12375">
        <ele>2149.6</ele>
        <time>2024-08-13T13:08:55Z</time>
      </trkpt>
      <trkpt lat="44.84407" lon="6.12375">
        <ele>2149.8</ele>
        <time>2024-08-13T13:08:56Z</time>
      </trkpt>
      <trkpt lat="44.84407" lon="6.12375">
        <ele>2150.2</ele>
        <time>2024-08-13T13:08:57Z</time>
      </trkpt>
      <trkpt lat="44.84405" lon="6.12377">
        <ele>2150.2</ele>
        <time>2024-08-13T13:08:58Z</time>
      </trkpt>
      <trkpt lat="44.84405" lon="6.12377">
        <ele>2150.2</ele>
        <time>2024-08-13T13:08:59Z</time>
      </trkpt>
      <trkpt lat="44.84403" lon="6.12379">
        <ele>2150.4</ele>
        <time>2024-08-13T13:09:00Z</time>
      </trkpt>
      <trkpt lat="44.84403" lon="6.12379">
        <ele>2150.6</ele>
        <time>2024-08-13T13:09:01Z</time>
      </trkpt>
      <trkpt lat="44.84402" lon="6.12381">
        <ele>2150.6</ele>
        <time>2024-08-13T13:09:02Z</time>
      </trkpt>
      <trkpt lat="44.84402" lon="6.12381">
        <ele>2150.6</ele>
        <time>2024-08-13T13:09:03Z</time>
      </trkpt>
      <trkpt lat="44.84402" lon="6.12381">
        <ele>2150.8</ele>
        <time>2024-08-13T13:09:04Z</time>
      </trkpt>
      <trkpt lat="44.84402" lon="6.12381">
        <ele>2151.2</ele>
        <time>2024-08-13T13:09:05Z</time>
      </trkpt>
      <trkpt lat="44.844" lon="6.12383">
        <ele>2151.2</ele>
        <time>2024-08-13T13:09:06Z</time>
      </trkpt>
      <trkpt lat="44.844" lon="6.12383">
        <ele>2151.6</ele>
        <time>2024-08-13T13:09:07Z</time>
      </trkpt>
      <trkpt lat="44.844" lon="6.12383">
        <ele>2151.8</ele>
        <time>2024-08-13T13:09:08Z</time>
      </trkpt>
      <trkpt lat="44.84399" lon="6.12384">
        <ele>2152.2</ele>
        <time>2024-08-13T13:09:09Z</time>
      </trkpt>
      <trkpt lat="44.84399" lon="6.12384">
        <ele>2152.4</ele>
        <time>2024-08-13T13:09:10Z</time>
      </trkpt>
      <trkpt lat="44.84399" lon="6.12384">
        <ele>2152.4</ele>
        <time>2024-08-13T13:09:11Z</time>
      </trkpt>
      <trkpt lat="44.84397" lon="6.12385">
        <ele>2152.6</ele>
        <time>2024-08-13T13:09:12Z</time>
      </trkpt>
      <trkpt lat="44.84397" lon="6.12385">
        <ele>2152.6</ele>
        <time>2024-08-13T13:09:13Z</time>
      </trkpt>
      <trkpt lat="44.84397" lon="6.12385">
        <ele>2152.6</ele>
        <time>2024-08-13T13:09:14Z</time>
      </trkpt>
      <trkpt lat="44.84395" lon="6.12386">
        <ele>2152.6</ele>
        <time>2024-08-13T13:09:15Z</time>
      </trkpt>
      <trkpt lat="44.84395" lon="6.12386">
        <ele>2153</ele>
        <time>2024-08-13T13:09:16Z</time>
      </trkpt>
      <trkpt lat="44.84393" lon="6.12387">
        <ele>2153.4</ele>
        <time>2024-08-13T13:09:17Z</time>
      </trkpt>
      <trkpt lat="44.84393" lon="6.12387">
        <ele>2153.6</ele>
        <time>2024-08-13T13:09:18Z</time>
      </trkpt>
      <trkpt lat="44.84393" lon="6.12387">
        <ele>2153.8</ele>
        <time>2024-08-13T13:09:19Z</time>
      </trkpt>
      <trkpt lat="44.84392" lon="6.1239">
        <ele>2154</ele>
        <time>2024-08-13T13:09:20Z</time>
      </trkpt>
      <trkpt lat="44.84392" lon="6.1239">
        <ele>2154.2</ele>
        <time>2024-08-13T13:09:21Z</time>
      </trkpt>
      <trkpt lat="44.84392" lon="6.1239">
        <ele>2154.2</ele>
        <time>2024-08-13T13:09:22Z</time>
      </trkpt>
      <trkpt lat="44.84392" lon="6.1239">
        <ele>2154.4</ele>
        <time>2024-08-13T13:09:23Z</time>
      </trkpt>
      <trkpt lat="44.84392" lon="6.1239">
        <ele>2154.4</ele>
        <time>2024-08-13T13:09:24Z</time>
      </trkpt>
      <trkpt lat="44.8439" lon="6.12391">
        <ele>2154.4</ele>
        <time>2024-08-13T13:09:25Z</time>
      </trkpt>
      <trkpt lat="44.8439" lon="6.12391">
        <ele>2154.8</ele>
        <time>2024-08-13T13:09:26Z</time>
      </trkpt>
      <trkpt lat="44.8439" lon="6.12391">
        <ele>2155</ele>
        <time>2024-08-13T13:09:27Z</time>
      </trkpt>
      <trkpt lat="44.8439" lon="6.12391">
        <ele>2155</ele>
        <time>2024-08-13T13:09:28Z</time>
      </trkpt>
      <trkpt lat="44.84389" lon="6.1239">
        <ele>2155.2</ele>
        <time>2024-08-13T13:09:29Z</time>
      </trkpt>
      <trkpt lat="44.84389" lon="6.1239">
        <ele>2155.2</ele>
        <time>2024-08-13T13:09:30Z</time>
      </trkpt>
      <trkpt lat="44.84389" lon="6.1239">
        <ele>2155.2</ele>
        <time>2024-08-13T13:09:31Z</time>
      </trkpt>
      <trkpt lat="44.84389" lon="6.12387">
        <ele>2155.4</ele>
        <time>2024-08-13T13:09:32Z</time>
      </trkpt>
      <trkpt lat="44.84389" lon="6.12387">
        <ele>2155.6</ele>
        <time>2024-08-13T13:09:33Z</time>
      </trkpt>
      <trkpt lat="44.8439" lon="6.12384">
        <ele>2156</ele>
        <time>2024-08-13T13:09:34Z</time>
      </trkpt>
      <trkpt lat="44.8439" lon="6.12384">
        <ele>2156</ele>
        <time>2024-08-13T13:09:35Z</time>
      </trkpt>
      <trkpt lat="44.84391" lon="6.12381">
        <ele>2156.2</ele>
        <time>2024-08-13T13:09:36Z</time>
      </trkpt>
      <trkpt lat="44.84391" lon="6.12381">
        <ele>2156.4</ele>
        <time>2024-08-13T13:09:37Z</time>
      </trkpt>
      <trkpt lat="44.84391" lon="6.12381">
        <ele>2156.4</ele>
        <time>2024-08-13T13:09:38Z</time>
      </trkpt>
      <trkpt lat="44.84391" lon="6.12381">
        <ele>2156.6</ele>
        <time>2024-08-13T13:09:39Z</time>
      </trkpt>
      <trkpt lat="44.84391" lon="6.12381">
        <ele>2156.6</ele>
        <time>2024-08-13T13:09:40Z</time>
      </trkpt>
      <trkpt lat="44.84392" lon="6.12378">
        <ele>2156.8</ele>
        <time>2024-08-13T13:09:41Z</time>
      </trkpt>
      <trkpt lat="44.84392" lon="6.12378">
        <ele>2156.8</ele>
        <time>2024-08-13T13:09:42Z</time>
      </trkpt>
      <trkpt lat="44.84392" lon="6.12378">
        <ele>2157</ele>
        <time>2024-08-13T13:09:43Z</time>
      </trkpt>
      <trkpt lat="44.84392" lon="6.12378">
        <ele>2157.2</ele>
        <time>2024-08-13T13:09:44Z</time>
      </trkpt>
      <trkpt lat="44.84392" lon="6.12374">
        <ele>2157.4</ele>
        <time>2024-08-13T13:09:45Z</time>
      </trkpt>
      <trkpt lat="44.84392" lon="6.12374">
        <ele>2157.6</ele>
        <time>2024-08-13T13:09:46Z</time>
      </trkpt>
      <trkpt lat="44.84392" lon="6.12374">
        <ele>2157.8</ele>
        <time>2024-08-13T13:09:47Z</time>
      </trkpt>
      <trkpt lat="44.84392" lon="6.12372">
        <ele>2158.4</ele>
        <time>2024-08-13T13:09:48Z</time>
      </trkpt>
      <trkpt lat="44.84392" lon="6.12372">
        <ele>2158.4</ele>
        <time>2024-08-13T13:09:49Z</time>
      </trkpt>
      <trkpt lat="44.84392" lon="6.12372">
        <ele>2158.6</ele>
        <time>2024-08-13T13:09:50Z</time>
      </trkpt>
      <trkpt lat="44.84393" lon="6.12369">
        <ele>2158.6</ele>
        <time>2024-08-13T13:09:51Z</time>
      </trkpt>
      <trkpt lat="44.84393" lon="6.12369">
        <ele>2158.8</ele>
        <time>2024-08-13T13:09:52Z</time>
      </trkpt>
      <trkpt lat="44.84393" lon="6.12369">
        <ele>2159</ele>
        <time>2024-08-13T13:09:53Z</time>
      </trkpt>
      <trkpt lat="44.84393" lon="6.12365">
        <ele>2159</ele>
        <time>2024-08-13T13:09:54Z</time>
      </trkpt>
      <trkpt lat="44.84393" lon="6.12365">
        <ele>2159.2</ele>
        <time>2024-08-13T13:09:55Z</time>
      </trkpt>
      <trkpt lat="44.84393" lon="6.12365">
        <ele>2159.4</ele>
        <time>2024-08-13T13:09:56Z</time>
      </trkpt>
      <trkpt lat="44.84394" lon="6.12362">
        <ele>2160</ele>
        <time>2024-08-13T13:09:57Z</time>
      </trkpt>
      <trkpt lat="44.84394" lon="6.12362">
        <ele>2160</ele>
        <time>2024-08-13T13:09:58Z</time>
      </trkpt>
      <trkpt lat="44.84394" lon="6.12362">
        <ele>2160</ele>
        <time>2024-08-13T13:09:59Z</time>
      </trkpt>
      <trkpt lat="44.84394" lon="6.12362">
        <ele>2160.4</ele>
        <time>2024-08-13T13:10:00Z</time>
      </trkpt>
      <trkpt lat="44.84394" lon="6.12362">
        <ele>2160.8</ele>
        <time>2024-08-13T13:10:01Z</time>
      </trkpt>
      <trkpt lat="44.84394" lon="6.12362">
        <ele>2160.8</ele>
        <time>2024-08-13T13:10:02Z</time>
      </trkpt>
      <trkpt lat="44.84394" lon="6.12362">
        <ele>2160.8</ele>
        <time>2024-08-13T13:10:03Z</time>
      </trkpt>
      <trkpt lat="44.84394" lon="6.12362">
        <ele>2160.6</ele>
        <time>2024-08-13T13:10:04Z</time>
      </trkpt>
      <trkpt lat="44.84394" lon="6.12362">
        <ele>2160.6</ele>
        <time>2024-08-13T13:10:05Z</time>
      </trkpt>
      <trkpt lat="44.84394" lon="6.12362">
        <ele>2160.8</ele>
        <time>2024-08-13T13:10:06Z</time>
      </trkpt>
      <trkpt lat="44.84394" lon="6.12362">
        <ele>2160.8</ele>
        <time>2024-08-13T13:10:07Z</time>
      </trkpt>
      <trkpt lat="44.84394" lon="6.12362">
        <ele>2160.6</ele>
        <time>2024-08-13T13:10:08Z</time>
      </trkpt>
      <trkpt lat="44.84394" lon="6.12362">
        <ele>2160.6</ele>
        <time>2024-08-13T13:10:09Z</time>
      </trkpt>
      <trkpt lat="44.84394" lon="6.12362">
        <ele>2161.2</ele>
        <time>2024-08-13T13:10:10Z</time>
      </trkpt>
      <trkpt lat="44.84392" lon="6.12365">
        <ele>2161.6</ele>
        <time>2024-08-13T13:10:11Z</time>
      </trkpt>
      <trkpt lat="44.84392" lon="6.12365">
        <ele>2161.6</ele>
        <time>2024-08-13T13:10:12Z</time>
      </trkpt>
      <trkpt lat="44.84392" lon="6.12365">
        <ele>2161.6</ele>
        <time>2024-08-13T13:10:13Z</time>
      </trkpt>
      <trkpt lat="44.8439" lon="6.12367">
        <ele>2162.2</ele>
        <time>2024-08-13T13:10:14Z</time>
      </trkpt>
      <trkpt lat="44.8439" lon="6.12367">
        <ele>2162.4</ele>
        <time>2024-08-13T13:10:15Z</time>
      </trkpt>
      <trkpt lat="44.8439" lon="6.12367">
        <ele>2162.4</ele>
        <time>2024-08-13T13:10:16Z</time>
      </trkpt>
      <trkpt lat="44.84388" lon="6.1237">
        <ele>2162.4</ele>
        <time>2024-08-13T13:10:17Z</time>
      </trkpt>
      <trkpt lat="44.84388" lon="6.1237">
        <ele>2162.4</ele>
        <time>2024-08-13T13:10:18Z</time>
      </trkpt>
      <trkpt lat="44.84386" lon="6.12371">
        <ele>2162.4</ele>
        <time>2024-08-13T13:10:19Z</time>
      </trkpt>
      <trkpt lat="44.84386" lon="6.12371">
        <ele>2162.4</ele>
        <time>2024-08-13T13:10:20Z</time>
      </trkpt>
      <trkpt lat="44.84386" lon="6.12371">
        <ele>2163</ele>
        <time>2024-08-13T13:10:21Z</time>
      </trkpt>
      <trkpt lat="44.84385" lon="6.12369">
        <ele>2163.2</ele>
        <time>2024-08-13T13:10:22Z</time>
      </trkpt>
      <trkpt lat="44.84385" lon="6.12369">
        <ele>2163.6</ele>
        <time>2024-08-13T13:10:23Z</time>
      </trkpt>
      <trkpt lat="44.84385" lon="6.12369">
        <ele>2164.2</ele>
        <time>2024-08-13T13:10:24Z</time>
      </trkpt>
      <trkpt lat="44.84386" lon="6.12366">
        <ele>2164.2</ele>
        <time>2024-08-13T13:10:25Z</time>
      </trkpt>
      <trkpt lat="44.84386" lon="6.12366">
        <ele>2164.2</ele>
        <time>2024-08-13T13:10:26Z</time>
      </trkpt>
      <trkpt lat="44.84386" lon="6.12364">
        <ele>2164.2</ele>
        <time>2024-08-13T13:10:27Z</time>
      </trkpt>
      <trkpt lat="44.84386" lon="6.12364">
        <ele>2164.8</ele>
        <time>2024-08-13T13:10:28Z</time>
      </trkpt>
      <trkpt lat="44.84387" lon="6.12361">
        <ele>2164.8</ele>
        <time>2024-08-13T13:10:29Z</time>
      </trkpt>
      <trkpt lat="44.84387" lon="6.12361">
        <ele>2164.8</ele>
        <time>2024-08-13T13:10:30Z</time>
      </trkpt>
      <trkpt lat="44.84388" lon="6.12359">
        <ele>2164.8</ele>
        <time>2024-08-13T13:10:31Z</time>
      </trkpt>
      <trkpt lat="44.84388" lon="6.12359">
        <ele>2164.8</ele>
        <time>2024-08-13T13:10:32Z</time>
      </trkpt>
      <trkpt lat="44.84389" lon="6.12357">
        <ele>2165</ele>
        <time>2024-08-13T13:10:33Z</time>
      </trkpt>
      <trkpt lat="44.84389" lon="6.12357">
        <ele>2165.4</ele>
        <time>2024-08-13T13:10:34Z</time>
      </trkpt>
      <trkpt lat="44.84389" lon="6.12357">
        <ele>2165.4</ele>
        <time>2024-08-13T13:10:35Z</time>
      </trkpt>
      <trkpt lat="44.84389" lon="6.12353">
        <ele>2165.6</ele>
        <time>2024-08-13T13:10:36Z</time>
      </trkpt>
      <trkpt lat="44.84389" lon="6.12353">
        <ele>2166</ele>
        <time>2024-08-13T13:10:37Z</time>
      </trkpt>
      <trkpt lat="44.84389" lon="6.12353">
        <ele>2166</ele>
        <time>2024-08-13T13:10:38Z</time>
      </trkpt>
      <trkpt lat="44.84391" lon="6.1235">
        <ele>2166.6</ele>
        <time>2024-08-13T13:10:39Z</time>
      </trkpt>
      <trkpt lat="44.84391" lon="6.1235">
        <ele>2166.6</ele>
        <time>2024-08-13T13:10:40Z</time>
      </trkpt>
      <trkpt lat="44.84392" lon="6.12348">
        <ele>2166.6</ele>
        <time>2024-08-13T13:10:41Z</time>
      </trkpt>
      <trkpt lat="44.84392" lon="6.12348">
        <ele>2166.6</ele>
        <time>2024-08-13T13:10:42Z</time>
      </trkpt>
      <trkpt lat="44.84392" lon="6.12348">
        <ele>2166.6</ele>
        <time>2024-08-13T13:10:43Z</time>
      </trkpt>
      <trkpt lat="44.84395" lon="6.12346">
        <ele>2166.8</ele>
        <time>2024-08-13T13:10:44Z</time>
      </trkpt>
      <trkpt lat="44.84395" lon="6.12346">
        <ele>2166.8</ele>
        <time>2024-08-13T13:10:45Z</time>
      </trkpt>
      <trkpt lat="44.84395" lon="6.12346">
        <ele>2166.8</ele>
        <time>2024-08-13T13:10:46Z</time>
      </trkpt>
      <trkpt lat="44.84397" lon="6.12344">
        <ele>2167</ele>
        <time>2024-08-13T13:10:47Z</time>
      </trkpt>
      <trkpt lat="44.84397" lon="6.12344">
        <ele>2167</ele>
        <time>2024-08-13T13:10:48Z</time>
      </trkpt>
      <trkpt lat="44.84397" lon="6.12344">
        <ele>2167.2</ele>
        <time>2024-08-13T13:10:49Z</time>
      </trkpt>
      <trkpt lat="44.84397" lon="6.12344">
        <ele>2167.6</ele>
        <time>2024-08-13T13:10:50Z</time>
      </trkpt>
      <trkpt lat="44.84397" lon="6.12344">
        <ele>2167.8</ele>
        <time>2024-08-13T13:10:51Z</time>
      </trkpt>
      <trkpt lat="44.84397" lon="6.12344">
        <ele>2168</ele>
        <time>2024-08-13T13:10:52Z</time>
      </trkpt>
      <trkpt lat="44.84397" lon="6.12344">
        <ele>2168</ele>
        <time>2024-08-13T13:10:53Z</time>
      </trkpt>
      <trkpt lat="44.84397" lon="6.12344">
        <ele>2168</ele>
        <time>2024-08-13T13:10:54Z</time>
      </trkpt>
      <trkpt lat="44.84395" lon="6.12345">
        <ele>2168</ele>
        <time>2024-08-13T13:10:55Z</time>
      </trkpt>
      <trkpt lat="44.84395" lon="6.12345">
        <ele>2168.6</ele>
        <time>2024-08-13T13:10:56Z</time>
      </trkpt>
      <trkpt lat="44.84395" lon="6.12345">
        <ele>2168.8</ele>
        <time>2024-08-13T13:10:57Z</time>
      </trkpt>
      <trkpt lat="44.84395" lon="6.12345">
        <ele>2169.2</ele>
        <time>2024-08-13T13:10:58Z</time>
      </trkpt>
      <trkpt lat="44.84395" lon="6.12345">
        <ele>2169.4</ele>
        <time>2024-08-13T13:10:59Z</time>
      </trkpt>
      <trkpt lat="44.84395" lon="6.12345">
        <ele>2169.6</ele>
        <time>2024-08-13T13:11:00Z</time>
      </trkpt>
      <trkpt lat="44.84395" lon="6.12345">
        <ele>2170.2</ele>
        <time>2024-08-13T13:11:01Z</time>
      </trkpt>
      <trkpt lat="44.84393" lon="6.12347">
        <ele>2169.8</ele>
        <time>2024-08-13T13:11:02Z</time>
      </trkpt>
      <trkpt lat="44.84393" lon="6.12347">
        <ele>2169.8</ele>
        <time>2024-08-13T13:11:03Z</time>
      </trkpt>
      <trkpt lat="44.84391" lon="6.12348">
        <ele>2170</ele>
        <time>2024-08-13T13:11:04Z</time>
      </trkpt>
      <trkpt lat="44.84391" lon="6.12348">
        <ele>2170</ele>
        <time>2024-08-13T13:11:05Z</time>
      </trkpt>
      <trkpt lat="44.84391" lon="6.12348">
        <ele>2170</ele>
        <time>2024-08-13T13:11:06Z</time>
      </trkpt>
      <trkpt lat="44.84391" lon="6.12348">
        <ele>2170</ele>
        <time>2024-08-13T13:11:07Z</time>
      </trkpt>
      <trkpt lat="44.84389" lon="6.1235">
        <ele>2170</ele>
        <time>2024-08-13T13:11:08Z</time>
      </trkpt>
      <trkpt lat="44.84389" lon="6.1235">
        <ele>2170.2</ele>
        <time>2024-08-13T13:11:09Z</time>
      </trkpt>
      <trkpt lat="44.84388" lon="6.12352">
        <ele>2170.2</ele>
        <time>2024-08-13T13:11:10Z</time>
      </trkpt>
      <trkpt lat="44.84388" lon="6.12352">
        <ele>2170.4</ele>
        <time>2024-08-13T13:11:11Z</time>
      </trkpt>
      <trkpt lat="44.84388" lon="6.12352">
        <ele>2170.4</ele>
        <time>2024-08-13T13:11:12Z</time>
      </trkpt>
      <trkpt lat="44.84385" lon="6.12354">
        <ele>2170.4</ele>
        <time>2024-08-13T13:11:13Z</time>
      </trkpt>
      <trkpt lat="44.84385" lon="6.12354">
        <ele>2170.8</ele>
        <time>2024-08-13T13:11:14Z</time>
      </trkpt>
      <trkpt lat="44.84384" lon="6.12355">
        <ele>2171</ele>
        <time>2024-08-13T13:11:15Z</time>
      </trkpt>
      <trkpt lat="44.84384" lon="6.12355">
        <ele>2171.4</ele>
        <time>2024-08-13T13:11:16Z</time>
      </trkpt>
      <trkpt lat="44.84383" lon="6.12358">
        <ele>2171.4</ele>
        <time>2024-08-13T13:11:17Z</time>
      </trkpt>
      <trkpt lat="44.84383" lon="6.12358">
        <ele>2171.2</ele>
        <time>2024-08-13T13:11:18Z</time>
      </trkpt>
      <trkpt lat="44.84383" lon="6.12358">
        <ele>2171.2</ele>
        <time>2024-08-13T13:11:19Z</time>
      </trkpt>
      <trkpt lat="44.84382" lon="6.12361">
        <ele>2171.2</ele>
        <time>2024-08-13T13:11:20Z</time>
      </trkpt>
      <trkpt lat="44.84382" lon="6.12361">
        <ele>2171.4</ele>
        <time>2024-08-13T13:11:21Z</time>
      </trkpt>
      <trkpt lat="44.84382" lon="6.12361">
        <ele>2172</ele>
        <time>2024-08-13T13:11:22Z</time>
      </trkpt>
      <trkpt lat="44.8438" lon="6.12361">
        <ele>2172</ele>
        <time>2024-08-13T13:11:23Z</time>
      </trkpt>
      <trkpt lat="44.8438" lon="6.12361">
        <ele>2172.2</ele>
        <time>2024-08-13T13:11:24Z</time>
      </trkpt>
      <trkpt lat="44.8438" lon="6.12361">
        <ele>2172.4</ele>
        <time>2024-08-13T13:11:25Z</time>
      </trkpt>
      <trkpt lat="44.84379" lon="6.12358">
        <ele>2172.6</ele>
        <time>2024-08-13T13:11:26Z</time>
      </trkpt>
      <trkpt lat="44.84379" lon="6.12358">
        <ele>2172.6</ele>
        <time>2024-08-13T13:11:27Z</time>
      </trkpt>
      <trkpt lat="44.84379" lon="6.12358">
        <ele>2172.6</ele>
        <time>2024-08-13T13:11:28Z</time>
      </trkpt>
      <trkpt lat="44.84379" lon="6.12355">
        <ele>2173</ele>
        <time>2024-08-13T13:11:29Z</time>
      </trkpt>
      <trkpt lat="44.84379" lon="6.12355">
        <ele>2173</ele>
        <time>2024-08-13T13:11:30Z</time>
      </trkpt>
      <trkpt lat="44.84379" lon="6.12355">
        <ele>2173</ele>
        <time>2024-08-13T13:11:31Z</time>
      </trkpt>
      <trkpt lat="44.84379" lon="6.12355">
        <ele>2173</ele>
        <time>2024-08-13T13:11:32Z</time>
      </trkpt>
      <trkpt lat="44.84379" lon="6.12355">
        <ele>2173.2</ele>
        <time>2024-08-13T13:11:33Z</time>
      </trkpt>
      <trkpt lat="44.84379" lon="6.12355">
        <ele>2173.2</ele>
        <time>2024-08-13T13:11:34Z</time>
      </trkpt>
      <trkpt lat="44.84379" lon="6.12355">
        <ele>2173.2</ele>
        <time>2024-08-13T13:11:35Z</time>
      </trkpt>
      <trkpt lat="44.84379" lon="6.12355">
        <ele>2173.2</ele>
        <time>2024-08-13T13:11:36Z</time>
      </trkpt>
      <trkpt lat="44.84379" lon="6.12352">
        <ele>2173.2</ele>
        <time>2024-08-13T13:11:37Z</time>
      </trkpt>
      <trkpt lat="44.84379" lon="6.12352">
        <ele>2173.4</ele>
        <time>2024-08-13T13:11:38Z</time>
      </trkpt>
      <trkpt lat="44.84381" lon="6.1235">
        <ele>2173.4</ele>
        <time>2024-08-13T13:11:39Z</time>
      </trkpt>
      <trkpt lat="44.84381" lon="6.1235">
        <ele>2173.4</ele>
        <time>2024-08-13T13:11:40Z</time>
      </trkpt>
      <trkpt lat="44.84383" lon="6.12347">
        <ele>2173.4</ele>
        <time>2024-08-13T13:11:41Z</time>
      </trkpt>
      <trkpt lat="44.84383" lon="6.12347">
        <ele>2173.4</ele>
        <time>2024-08-13T13:11:42Z</time>
      </trkpt>
      <trkpt lat="44.84385" lon="6.12344">
        <ele>2173.4</ele>
        <time>2024-08-13T13:11:43Z</time>
      </trkpt>
      <trkpt lat="44.84385" lon="6.12344">
        <ele>2173.4</ele>
        <time>2024-08-13T13:11:44Z</time>
      </trkpt>
      <trkpt lat="44.84385" lon="6.12344">
        <ele>2173.6</ele>
        <time>2024-08-13T13:11:45Z</time>
      </trkpt>
      <trkpt lat="44.84385" lon="6.12341">
        <ele>2174</ele>
        <time>2024-08-13T13:11:46Z</time>
      </trkpt>
      <trkpt lat="44.84385" lon="6.12341">
        <ele>2174.4</ele>
        <time>2024-08-13T13:11:47Z</time>
      </trkpt>
      <trkpt lat="44.84386" lon="6.12338">
        <ele>2174.4</ele>
        <time>2024-08-13T13:11:48Z</time>
      </trkpt>
      <trkpt lat="44.84386" lon="6.12338">
        <ele>2174.8</ele>
        <time>2024-08-13T13:11:49Z</time>
      </trkpt>
      <trkpt lat="44.84386" lon="6.12338">
        <ele>2174.8</ele>
        <time>2024-08-13T13:11:50Z</time>
      </trkpt>
      <trkpt lat="44.84386" lon="6.12338">
        <ele>2175</ele>
        <time>2024-08-13T13:11:51Z</time>
      </trkpt>
      <trkpt lat="44.84387" lon="6.12336">
        <ele>2175.2</ele>
        <time>2024-08-13T13:11:52Z</time>
      </trkpt>
      <trkpt lat="44.84387" lon="6.12336">
        <ele>2175.4</ele>
        <time>2024-08-13T13:11:53Z</time>
      </trkpt>
      <trkpt lat="44.84387" lon="6.12336">
        <ele>2175.6</ele>
        <time>2024-08-13T13:11:54Z</time>
      </trkpt>
      <trkpt lat="44.84389" lon="6.12334">
        <ele>2176</ele>
        <time>2024-08-13T13:11:55Z</time>
      </trkpt>
      <trkpt lat="44.84389" lon="6.12334">
        <ele>2176.2</ele>
        <time>2024-08-13T13:11:56Z</time>
      </trkpt>
      <trkpt lat="44.84389" lon="6.12334">
        <ele>2176.2</ele>
        <time>2024-08-13T13:11:57Z</time>
      </trkpt>
      <trkpt lat="44.84389" lon="6.12334">
        <ele>2176.6</ele>
        <time>2024-08-13T13:11:58Z</time>
      </trkpt>
      <trkpt lat="44.84389" lon="6.12334">
        <ele>2176.8</ele>
        <time>2024-08-13T13:11:59Z</time>
      </trkpt>
      <trkpt lat="44.84391" lon="6.12335">
        <ele>2177.2</ele>
        <time>2024-08-13T13:12:00Z</time>
      </trkpt>
      <trkpt lat="44.84391" lon="6.12335">
        <ele>2177.8</ele>
        <time>2024-08-13T13:12:01Z</time>
      </trkpt>
      <trkpt lat="44.84391" lon="6.12335">
        <ele>2177.8</ele>
        <time>2024-08-13T13:12:02Z</time>
      </trkpt>
      <trkpt lat="44.84391" lon="6.12335">
        <ele>2177.8</ele>
        <time>2024-08-13T13:12:03Z</time>
      </trkpt>
      <trkpt lat="44.84392" lon="6.12332">
        <ele>2177.8</ele>
        <time>2024-08-13T13:12:04Z</time>
      </trkpt>
      <trkpt lat="44.84392" lon="6.12332">
        <ele>2178</ele>
        <time>2024-08-13T13:12:05Z</time>
      </trkpt>
      <trkpt lat="44.84392" lon="6.12332">
        <ele>2177.8</ele>
        <time>2024-08-13T13:12:06Z</time>
      </trkpt>
      <trkpt lat="44.84394" lon="6.1233">
        <ele>2177.8</ele>
        <time>2024-08-13T13:12:07Z</time>
      </trkpt>
      <trkpt lat="44.84394" lon="6.1233">
        <ele>2177.4</ele>
        <time>2024-08-13T13:12:08Z</time>
      </trkpt>
      <trkpt lat="44.84394" lon="6.1233">
        <ele>2177.4</ele>
        <time>2024-08-13T13:12:09Z</time>
      </trkpt>
      <trkpt lat="44.84396" lon="6.12328">
        <ele>2177.6</ele>
        <time>2024-08-13T13:12:10Z</time>
      </trkpt>
      <trkpt lat="44.84396" lon="6.12328">
        <ele>2177.8</ele>
        <time>2024-08-13T13:12:11Z</time>
      </trkpt>
      <trkpt lat="44.84396" lon="6.12328">
        <ele>2177.8</ele>
        <time>2024-08-13T13:12:12Z</time>
      </trkpt>
      <trkpt lat="44.84397" lon="6.12325">
        <ele>2178</ele>
        <time>2024-08-13T13:12:13Z</time>
      </trkpt>
      <trkpt lat="44.84397" lon="6.12325">
        <ele>2178.4</ele>
        <time>2024-08-13T13:12:14Z</time>
      </trkpt>
      <trkpt lat="44.84399" lon="6.12323">
        <ele>2179.4</ele>
        <time>2024-08-13T13:12:15Z</time>
      </trkpt>
      <trkpt lat="44.84399" lon="6.12323">
        <ele>2179.4</ele>
        <time>2024-08-13T13:12:16Z</time>
      </trkpt>
      <trkpt lat="44.84401" lon="6.12321">
        <ele>2179</ele>
        <time>2024-08-13T13:12:17Z</time>
      </trkpt>
      <trkpt lat="44.84401" lon="6.12321">
        <ele>2179</ele>
        <time>2024-08-13T13:12:18Z</time>
      </trkpt>
      <trkpt lat="44.84401" lon="6.12321">
        <ele>2179</ele>
        <time>2024-08-13T13:12:19Z</time>
      </trkpt>
      <trkpt lat="44.84402" lon="6.12318">
        <ele>2179.2</ele>
        <time>2024-08-13T13:12:20Z</time>
      </trkpt>
      <trkpt lat="44.84402" lon="6.12318">
        <ele>2179.6</ele>
        <time>2024-08-13T13:12:21Z</time>
      </trkpt>
      <trkpt lat="44.84402" lon="6.12318">
        <ele>2179.6</ele>
        <time>2024-08-13T13:12:22Z</time>
      </trkpt>
      <trkpt lat="44.84404" lon="6.12316">
        <ele>2179.8</ele>
        <time>2024-08-13T13:12:23Z</time>
      </trkpt>
      <trkpt lat="44.84404" lon="6.12316">
        <ele>2180</ele>
        <time>2024-08-13T13:12:24Z</time>
      </trkpt>
      <trkpt lat="44.84404" lon="6.12316">
        <ele>2180.6</ele>
        <time>2024-08-13T13:12:25Z</time>
      </trkpt>
      <trkpt lat="44.84406" lon="6.12316">
        <ele>2181</ele>
        <time>2024-08-13T13:12:26Z</time>
      </trkpt>
      <trkpt lat="44.84406" lon="6.12316">
        <ele>2181</ele>
        <time>2024-08-13T13:12:27Z</time>
      </trkpt>
      <trkpt lat="44.84408" lon="6.12315">
        <ele>2181.2</ele>
        <time>2024-08-13T13:12:28Z</time>
      </trkpt>
      <trkpt lat="44.84408" lon="6.12315">
        <ele>2181.2</ele>
        <time>2024-08-13T13:12:29Z</time>
      </trkpt>
      <trkpt lat="44.8441" lon="6.12315">
        <ele>2181.8</ele>
        <time>2024-08-13T13:12:30Z</time>
      </trkpt>
      <trkpt lat="44.8441" lon="6.12315">
        <ele>2182</ele>
        <time>2024-08-13T13:12:31Z</time>
      </trkpt>
      <trkpt lat="44.84412" lon="6.12314">
        <ele>2182.2</ele>
        <time>2024-08-13T13:12:32Z</time>
      </trkpt>
      <trkpt lat="44.84412" lon="6.12314">
        <ele>2182.2</ele>
        <time>2024-08-13T13:12:33Z</time>
      </trkpt>
      <trkpt lat="44.84412" lon="6.12314">
        <ele>2182.4</ele>
        <time>2024-08-13T13:12:34Z</time>
      </trkpt>
      <trkpt lat="44.84413" lon="6.12314">
        <ele>2182.4</ele>
        <time>2024-08-13T13:12:35Z</time>
      </trkpt>
      <trkpt lat="44.84413" lon="6.12314">
        <ele>2182.6</ele>
        <time>2024-08-13T13:12:36Z</time>
      </trkpt>
      <trkpt lat="44.84415" lon="6.12313">
        <ele>2182.6</ele>
        <time>2024-08-13T13:12:37Z</time>
      </trkpt>
      <trkpt lat="44.84415" lon="6.12313">
        <ele>2182.8</ele>
        <time>2024-08-13T13:12:38Z</time>
      </trkpt>
      <trkpt lat="44.84419" lon="6.12312">
        <ele>2183.2</ele>
        <time>2024-08-13T13:12:39Z</time>
      </trkpt>
      <trkpt lat="44.84419" lon="6.12312">
        <ele>2183.4</ele>
        <time>2024-08-13T13:12:40Z</time>
      </trkpt>
      <trkpt lat="44.84419" lon="6.12312">
        <ele>2183.4</ele>
        <time>2024-08-13T13:12:41Z</time>
      </trkpt>
      <trkpt lat="44.84419" lon="6.12312">
        <ele>2183.4</ele>
        <time>2024-08-13T13:12:42Z</time>
      </trkpt>
      <trkpt lat="44.84419" lon="6.12312">
        <ele>2183.4</ele>
        <time>2024-08-13T13:12:43Z</time>
      </trkpt>
      <trkpt lat="44.84419" lon="6.12312">
        <ele>2183.4</ele>
        <time>2024-08-13T13:12:44Z</time>
      </trkpt>
      <trkpt lat="44.84416" lon="6.12312">
        <ele>2183.4</ele>
        <time>2024-08-13T13:12:45Z</time>
      </trkpt>
      <trkpt lat="44.84416" lon="6.12312">
        <ele>2183.6</ele>
        <time>2024-08-13T13:12:46Z</time>
      </trkpt>
      <trkpt lat="44.84416" lon="6.12312">
        <ele>2183.8</ele>
        <time>2024-08-13T13:12:47Z</time>
      </trkpt>
      <trkpt lat="44.84416" lon="6.12312">
        <ele>2183.6</ele>
        <time>2024-08-13T13:12:48Z</time>
      </trkpt>
      <trkpt lat="44.84414" lon="6.12312">
        <ele>2183.8</ele>
        <time>2024-08-13T13:12:49Z</time>
      </trkpt>
      <trkpt lat="44.84414" lon="6.12312">
        <ele>2183.8</ele>
        <time>2024-08-13T13:12:50Z</time>
      </trkpt>
      <trkpt lat="44.84414" lon="6.12312">
        <ele>2184</ele>
        <time>2024-08-13T13:12:51Z</time>
      </trkpt>
      <trkpt lat="44.84414" lon="6.12312">
        <ele>2184</ele>
        <time>2024-08-13T13:12:52Z</time>
      </trkpt>
      <trkpt lat="44.84412" lon="6.12313">
        <ele>2183.8</ele>
        <time>2024-08-13T13:12:53Z</time>
      </trkpt>
      <trkpt lat="44.84412" lon="6.12313">
        <ele>2183.8</ele>
        <time>2024-08-13T13:12:54Z</time>
      </trkpt>
      <trkpt lat="44.8441" lon="6.12313">
        <ele>2184.2</ele>
        <time>2024-08-13T13:12:55Z</time>
      </trkpt>
      <trkpt lat="44.8441" lon="6.12313">
        <ele>2184.4</ele>
        <time>2024-08-13T13:12:56Z</time>
      </trkpt>
      <trkpt lat="44.8441" lon="6.12313">
        <ele>2184.4</ele>
        <time>2024-08-13T13:12:57Z</time>
      </trkpt>
      <trkpt lat="44.8441" lon="6.12313">
        <ele>2184.2</ele>
        <time>2024-08-13T13:12:58Z</time>
      </trkpt>
      <trkpt lat="44.8441" lon="6.12313">
        <ele>2184.2</ele>
        <time>2024-08-13T13:12:59Z</time>
      </trkpt>
      <trkpt lat="44.8441" lon="6.12313">
        <ele>2184.8</ele>
        <time>2024-08-13T13:13:00Z</time>
      </trkpt>
      <trkpt lat="44.84408" lon="6.12313">
        <ele>2185</ele>
        <time>2024-08-13T13:13:01Z</time>
      </trkpt>
      <trkpt lat="44.84408" lon="6.12313">
        <ele>2185</ele>
        <time>2024-08-13T13:13:02Z</time>
      </trkpt>
      <trkpt lat="44.84406" lon="6.12313">
        <ele>2185.2</ele>
        <time>2024-08-13T13:13:03Z</time>
      </trkpt>
      <trkpt lat="44.84406" lon="6.12313">
        <ele>2185.4</ele>
        <time>2024-08-13T13:13:04Z</time>
      </trkpt>
      <trkpt lat="44.84404" lon="6.12314">
        <ele>2185.4</ele>
        <time>2024-08-13T13:13:05Z</time>
      </trkpt>
      <trkpt lat="44.84404" lon="6.12314">
        <ele>2185.2</ele>
        <time>2024-08-13T13:13:06Z</time>
      </trkpt>
      <trkpt lat="44.84401" lon="6.12315">
        <ele>2185.2</ele>
        <time>2024-08-13T13:13:07Z</time>
      </trkpt>
      <trkpt lat="44.84401" lon="6.12315">
        <ele>2185.4</ele>
        <time>2024-08-13T13:13:08Z</time>
      </trkpt>
      <trkpt lat="44.84399" lon="6.12316">
        <ele>2185.6</ele>
        <time>2024-08-13T13:13:09Z</time>
      </trkpt>
      <trkpt lat="44.84399" lon="6.12316">
        <ele>2185.6</ele>
        <time>2024-08-13T13:13:10Z</time>
      </trkpt>
      <trkpt lat="44.84399" lon="6.12316">
        <ele>2185.8</ele>
        <time>2024-08-13T13:13:11Z</time>
      </trkpt>
      <trkpt lat="44.84397" lon="6.12317">
        <ele>2186</ele>
        <time>2024-08-13T13:13:12Z</time>
      </trkpt>
      <trkpt lat="44.84397" lon="6.12317">
        <ele>2186</ele>
        <time>2024-08-13T13:13:13Z</time>
      </trkpt>
      <trkpt lat="44.84395" lon="6.12317">
        <ele>2186</ele>
        <time>2024-08-13T13:13:14Z</time>
      </trkpt>
      <trkpt lat="44.84395" lon="6.12317">
        <ele>2186.2</ele>
        <time>2024-08-13T13:13:15Z</time>
      </trkpt>
      <trkpt lat="44.84395" lon="6.12317">
        <ele>2186.4</ele>
        <time>2024-08-13T13:13:16Z</time>
      </trkpt>
      <trkpt lat="44.84393" lon="6.12319">
        <ele>2186.8</ele>
        <time>2024-08-13T13:13:17Z</time>
      </trkpt>
      <trkpt lat="44.84393" lon="6.12319">
        <ele>2186.8</ele>
        <time>2024-08-13T13:13:18Z</time>
      </trkpt>
      <trkpt lat="44.84391" lon="6.1232">
        <ele>2187.2</ele>
        <time>2024-08-13T13:13:19Z</time>
      </trkpt>
      <trkpt lat="44.84391" lon="6.1232">
        <ele>2187.2</ele>
        <time>2024-08-13T13:13:20Z</time>
      </trkpt>
      <trkpt lat="44.84389" lon="6.12321">
        <ele>2187.2</ele>
        <time>2024-08-13T13:13:21Z</time>
      </trkpt>
      <trkpt lat="44.84389" lon="6.12321">
        <ele>2187.4</ele>
        <time>2024-08-13T13:13:22Z</time>
      </trkpt>
      <trkpt lat="44.84389" lon="6.12321">
        <ele>2187.6</ele>
        <time>2024-08-13T13:13:23Z</time>
      </trkpt>
      <trkpt lat="44.84388" lon="6.12323">
        <ele>2187.8</ele>
        <time>2024-08-13T13:13:24Z</time>
      </trkpt>
      <trkpt lat="44.84388" lon="6.12323">
        <ele>2187.8</ele>
        <time>2024-08-13T13:13:25Z</time>
      </trkpt>
      <trkpt lat="44.84386" lon="6.12325">
        <ele>2188</ele>
        <time>2024-08-13T13:13:26Z</time>
      </trkpt>
      <trkpt lat="44.84386" lon="6.12325">
        <ele>2188</ele>
        <time>2024-08-13T13:13:27Z</time>
      </trkpt>
      <trkpt lat="44.84386" lon="6.12325">
        <ele>2188.2</ele>
        <time>2024-08-13T13:13:28Z</time>
      </trkpt>
      <trkpt lat="44.84383" lon="6.12326">
        <ele>2188.2</ele>
        <time>2024-08-13T13:13:29Z</time>
      </trkpt>
      <trkpt lat="44.84383" lon="6.12326">
        <ele>2188.4</ele>
        <time>2024-08-13T13:13:30Z</time>
      </trkpt>
      <trkpt lat="44.84383" lon="6.12326">
        <ele>2188.4</ele>
        <time>2024-08-13T13:13:31Z</time>
      </trkpt>
      <trkpt lat="44.84381" lon="6.12327">
        <ele>2188.4</ele>
        <time>2024-08-13T13:13:32Z</time>
      </trkpt>
      <trkpt lat="44.84381" lon="6.12327">
        <ele>2188.4</ele>
        <time>2024-08-13T13:13:33Z</time>
      </trkpt>
      <trkpt lat="44.84379" lon="6.12329">
        <ele>2189</ele>
        <time>2024-08-13T13:13:34Z</time>
      </trkpt>
      <trkpt lat="44.84379" lon="6.12329">
        <ele>2189</ele>
        <time>2024-08-13T13:13:35Z</time>
      </trkpt>
      <trkpt lat="44.84379" lon="6.12329">
        <ele>2188.8</ele>
        <time>2024-08-13T13:13:36Z</time>
      </trkpt>
      <trkpt lat="44.84379" lon="6.12329">
        <ele>2188.8</ele>
        <time>2024-08-13T13:13:37Z</time>
      </trkpt>
      <trkpt lat="44.84379" lon="6.12329">
        <ele>2189</ele>
        <time>2024-08-13T13:13:38Z</time>
      </trkpt>
      <trkpt lat="44.84379" lon="6.12329">
        <ele>2189.2</ele>
        <time>2024-08-13T13:13:39Z</time>
      </trkpt>
      <trkpt lat="44.84379" lon="6.12329">
        <ele>2189.2</ele>
        <time>2024-08-13T13:13:40Z</time>
      </trkpt>
      <trkpt lat="44.84379" lon="6.12325">
        <ele>2189.2</ele>
        <time>2024-08-13T13:13:41Z</time>
      </trkpt>
      <trkpt lat="44.84379" lon="6.12325">
        <ele>2189.2</ele>
        <time>2024-08-13T13:13:42Z</time>
      </trkpt>
      <trkpt lat="44.84379" lon="6.12325">
        <ele>2189.2</ele>
        <time>2024-08-13T13:13:43Z</time>
      </trkpt>
      <trkpt lat="44.84379" lon="6.12321">
        <ele>2189.6</ele>
        <time>2024-08-13T13:13:44Z</time>
      </trkpt>
      <trkpt lat="44.84379" lon="6.12321">
        <ele>2189.6</ele>
        <time>2024-08-13T13:13:45Z</time>
      </trkpt>
      <trkpt lat="44.84379" lon="6.12321">
        <ele>2190</ele>
        <time>2024-08-13T13:13:46Z</time>
      </trkpt>
      <trkpt lat="44.84379" lon="6.12321">
        <ele>2190.4</ele>
        <time>2024-08-13T13:13:47Z</time>
      </trkpt>
      <trkpt lat="44.84379" lon="6.12321">
        <ele>2190.8</ele>
        <time>2024-08-13T13:13:48Z</time>
      </trkpt>
      <trkpt lat="44.84379" lon="6.12321">
        <ele>2191.6</ele>
        <time>2024-08-13T13:13:49Z</time>
      </trkpt>
      <trkpt lat="44.84378" lon="6.12319">
        <ele>2191.8</ele>
        <time>2024-08-13T13:13:50Z</time>
      </trkpt>
      <trkpt lat="44.84378" lon="6.12319">
        <ele>2191.8</ele>
        <time>2024-08-13T13:13:51Z</time>
      </trkpt>
      <trkpt lat="44.84378" lon="6.12319">
        <ele>2191.8</ele>
        <time>2024-08-13T13:13:52Z</time>
      </trkpt>
      <trkpt lat="44.84377" lon="6.12315">
        <ele>2192.4</ele>
        <time>2024-08-13T13:13:53Z</time>
      </trkpt>
      <trkpt lat="44.84377" lon="6.12315">
        <ele>2192.4</ele>
        <time>2024-08-13T13:13:54Z</time>
      </trkpt>
      <trkpt lat="44.84378" lon="6.12313">
        <ele>2192.4</ele>
        <time>2024-08-13T13:13:55Z</time>
      </trkpt>
      <trkpt lat="44.84378" lon="6.12313">
        <ele>2192.8</ele>
        <time>2024-08-13T13:13:56Z</time>
      </trkpt>
      <trkpt lat="44.84379" lon="6.12311">
        <ele>2193</ele>
        <time>2024-08-13T13:13:57Z</time>
      </trkpt>
      <trkpt lat="44.84379" lon="6.12311">
        <ele>2193.2</ele>
        <time>2024-08-13T13:13:58Z</time>
      </trkpt>
      <trkpt lat="44.84379" lon="6.12311">
        <ele>2193.2</ele>
        <time>2024-08-13T13:13:59Z</time>
      </trkpt>
      <trkpt lat="44.84381" lon="6.12308">
        <ele>2193.4</ele>
        <time>2024-08-13T13:14:00Z</time>
      </trkpt>
      <trkpt lat="44.84381" lon="6.12308">
        <ele>2193.4</ele>
        <time>2024-08-13T13:14:01Z</time>
      </trkpt>
      <trkpt lat="44.84381" lon="6.12308">
        <ele>2193.6</ele>
        <time>2024-08-13T13:14:02Z</time>
      </trkpt>
      <trkpt lat="44.84382" lon="6.12306">
        <ele>2193.6</ele>
        <time>2024-08-13T13:14:03Z</time>
      </trkpt>
      <trkpt lat="44.84382" lon="6.12306">
        <ele>2193.8</ele>
        <time>2024-08-13T13:14:04Z</time>
      </trkpt>
      <trkpt lat="44.84382" lon="6.12306">
        <ele>2194</ele>
        <time>2024-08-13T13:14:05Z</time>
      </trkpt>
      <trkpt lat="44.84382" lon="6.12306">
        <ele>2194.2</ele>
        <time>2024-08-13T13:14:06Z</time>
      </trkpt>
      <trkpt lat="44.84382" lon="6.12306">
        <ele>2194.2</ele>
        <time>2024-08-13T13:14:07Z</time>
      </trkpt>
      <trkpt lat="44.84382" lon="6.12306">
        <ele>2194.4</ele>
        <time>2024-08-13T13:14:08Z</time>
      </trkpt>
      <trkpt lat="44.84382" lon="6.12306">
        <ele>2194.4</ele>
        <time>2024-08-13T13:14:09Z</time>
      </trkpt>
      <trkpt lat="44.84382" lon="6.12306">
        <ele>2194.4</ele>
        <time>2024-08-13T13:14:10Z</time>
      </trkpt>
      <trkpt lat="44.84382" lon="6.12306">
        <ele>2194.4</ele>
        <time>2024-08-13T13:14:11Z</time>
      </trkpt>
      <trkpt lat="44.84382" lon="6.12306">
        <ele>2194.4</ele>
        <time>2024-08-13T13:14:12Z</time>
      </trkpt>
      <trkpt lat="44.84382" lon="6.12306">
        <ele>2194.4</ele>
        <time>2024-08-13T13:14:13Z</time>
      </trkpt>
      <trkpt lat="44.84382" lon="6.12306">
        <ele>2194.2</ele>
        <time>2024-08-13T13:14:14Z</time>
      </trkpt>
      <trkpt lat="44.84382" lon="6.12306">
        <ele>2194</ele>
        <time>2024-08-13T13:14:15Z</time>
      </trkpt>
      <trkpt lat="44.84384" lon="6.12305">
        <ele>2194</ele>
        <time>2024-08-13T13:14:16Z</time>
      </trkpt>
      <trkpt lat="44.84384" lon="6.12305">
        <ele>2194</ele>
        <time>2024-08-13T13:14:17Z</time>
      </trkpt>
      <trkpt lat="44.84386" lon="6.12303">
        <ele>2194.2</ele>
        <time>2024-08-13T13:14:18Z</time>
      </trkpt>
      <trkpt lat="44.84386" lon="6.12303">
        <ele>2194.6</ele>
        <time>2024-08-13T13:14:19Z</time>
      </trkpt>
      <trkpt lat="44.84388" lon="6.123">
        <ele>2194.6</ele>
        <time>2024-08-13T13:14:20Z</time>
      </trkpt>
      <trkpt lat="44.84388" lon="6.123">
        <ele>2194.8</ele>
        <time>2024-08-13T13:14:21Z</time>
      </trkpt>
      <trkpt lat="44.8439" lon="6.12297">
        <ele>2194.8</ele>
        <time>2024-08-13T13:14:22Z</time>
      </trkpt>
      <trkpt lat="44.8439" lon="6.12297">
        <ele>2194.8</ele>
        <time>2024-08-13T13:14:23Z</time>
      </trkpt>
      <trkpt lat="44.84392" lon="6.12296">
        <ele>2194.8</ele>
        <time>2024-08-13T13:14:24Z</time>
      </trkpt>
      <trkpt lat="44.84392" lon="6.12296">
        <ele>2194.8</ele>
        <time>2024-08-13T13:14:25Z</time>
      </trkpt>
      <trkpt lat="44.84392" lon="6.12296">
        <ele>2195</ele>
        <time>2024-08-13T13:14:26Z</time>
      </trkpt>
      <trkpt lat="44.84395" lon="6.12295">
        <ele>2195.6</ele>
        <time>2024-08-13T13:14:27Z</time>
      </trkpt>
      <trkpt lat="44.84395" lon="6.12295">
        <ele>2195.6</ele>
        <time>2024-08-13T13:14:28Z</time>
      </trkpt>
      <trkpt lat="44.84397" lon="6.12293">
        <ele>2195.6</ele>
        <time>2024-08-13T13:14:29Z</time>
      </trkpt>
      <trkpt lat="44.84397" lon="6.12293">
        <ele>2196</ele>
        <time>2024-08-13T13:14:30Z</time>
      </trkpt>
      <trkpt lat="44.84398" lon="6.12291">
        <ele>2196</ele>
        <time>2024-08-13T13:14:31Z</time>
      </trkpt>
      <trkpt lat="44.84398" lon="6.12291">
        <ele>2196</ele>
        <time>2024-08-13T13:14:32Z</time>
      </trkpt>
      <trkpt lat="44.84399" lon="6.1229">
        <ele>2196</ele>
        <time>2024-08-13T13:14:33Z</time>
      </trkpt>
      <trkpt lat="44.84399" lon="6.1229">
        <ele>2196.2</ele>
        <time>2024-08-13T13:14:34Z</time>
      </trkpt>
      <trkpt lat="44.84401" lon="6.12288">
        <ele>2196.4</ele>
        <time>2024-08-13T13:14:35Z</time>
      </trkpt>
      <trkpt lat="44.84401" lon="6.12288">
        <ele>2196.4</ele>
        <time>2024-08-13T13:14:36Z</time>
      </trkpt>
      <trkpt lat="44.84403" lon="6.12287">
        <ele>2196.6</ele>
        <time>2024-08-13T13:14:37Z</time>
      </trkpt>
      <trkpt lat="44.84403" lon="6.12287">
        <ele>2196.6</ele>
        <time>2024-08-13T13:14:38Z</time>
      </trkpt>
      <trkpt lat="44.84405" lon="6.12287">
        <ele>2196.8</ele>
        <time>2024-08-13T13:14:39Z</time>
      </trkpt>
      <trkpt lat="44.84405" lon="6.12287">
        <ele>2197</ele>
        <time>2024-08-13T13:14:40Z</time>
      </trkpt>
      <trkpt lat="44.84405" lon="6.12287">
        <ele>2197.2</ele>
        <time>2024-08-13T13:14:41Z</time>
      </trkpt>
      <trkpt lat="44.84407" lon="6.12286">
        <ele>2197.4</ele>
        <time>2024-08-13T13:14:42Z</time>
      </trkpt>
      <trkpt lat="44.84407" lon="6.12286">
        <ele>2197.6</ele>
        <time>2024-08-13T13:14:43Z</time>
      </trkpt>
      <trkpt lat="44.84407" lon="6.12286">
        <ele>2197.8</ele>
        <time>2024-08-13T13:14:44Z</time>
      </trkpt>
      <trkpt lat="44.84409" lon="6.12284">
        <ele>2197.8</ele>
        <time>2024-08-13T13:14:45Z</time>
      </trkpt>
      <trkpt lat="44.84409" lon="6.12284">
        <ele>2198.2</ele>
        <time>2024-08-13T13:14:46Z</time>
      </trkpt>
      <trkpt lat="44.84409" lon="6.12284">
        <ele>2198.2</ele>
        <time>2024-08-13T13:14:47Z</time>
      </trkpt>
      <trkpt lat="44.84412" lon="6.12283">
        <ele>2198.2</ele>
        <time>2024-08-13T13:14:48Z</time>
      </trkpt>
      <trkpt lat="44.84412" lon="6.12283">
        <ele>2198.4</ele>
        <time>2024-08-13T13:14:49Z</time>
      </trkpt>
      <trkpt lat="44.84412" lon="6.12283">
        <ele>2198.4</ele>
        <time>2024-08-13T13:14:50Z</time>
      </trkpt>
      <trkpt lat="44.84414" lon="6.12283">
        <ele>2198.4</ele>
        <time>2024-08-13T13:14:51Z</time>
      </trkpt>
      <trkpt lat="44.84414" lon="6.12283">
        <ele>2199</ele>
        <time>2024-08-13T13:14:52Z</time>
      </trkpt>
      <trkpt lat="44.84414" lon="6.12283">
        <ele>2199</ele>
        <time>2024-08-13T13:14:53Z</time>
      </trkpt>
      <trkpt lat="44.84417" lon="6.12283">
        <ele>2199.4</ele>
        <time>2024-08-13T13:14:54Z</time>
      </trkpt>
      <trkpt lat="44.84417" lon="6.12283">
        <ele>2199.4</ele>
        <time>2024-08-13T13:14:55Z</time>
      </trkpt>
      <trkpt lat="44.84419" lon="6.12283">
        <ele>2199.6</ele>
        <time>2024-08-13T13:14:56Z</time>
      </trkpt>
      <trkpt lat="44.84419" lon="6.12283">
        <ele>2199.6</ele>
        <time>2024-08-13T13:14:57Z</time>
      </trkpt>
      <trkpt lat="44.84421" lon="6.12282">
        <ele>2199.6</ele>
        <time>2024-08-13T13:14:58Z</time>
      </trkpt>
      <trkpt lat="44.84421" lon="6.12282">
        <ele>2199.8</ele>
        <time>2024-08-13T13:14:59Z</time>
      </trkpt>
      <trkpt lat="44.84421" lon="6.12282">
        <ele>2200.2</ele>
        <time>2024-08-13T13:15:00Z</time>
      </trkpt>
      <trkpt lat="44.84421" lon="6.12282">
        <ele>2200.2</ele>
        <time>2024-08-13T13:15:01Z</time>
      </trkpt>
      <trkpt lat="44.84421" lon="6.12282">
        <ele>2200.6</ele>
        <time>2024-08-13T13:15:02Z</time>
      </trkpt>
      <trkpt lat="44.84421" lon="6.12282">
        <ele>2200.6</ele>
        <time>2024-08-13T13:15:03Z</time>
      </trkpt>
      <trkpt lat="44.84421" lon="6.12282">
        <ele>2200</ele>
        <time>2024-08-13T13:15:04Z</time>
      </trkpt>
      <trkpt lat="44.84421" lon="6.12282">
        <ele>2199.8</ele>
        <time>2024-08-13T13:15:05Z</time>
      </trkpt>
      <trkpt lat="44.84421" lon="6.12282">
        <ele>2199.8</ele>
        <time>2024-08-13T13:15:06Z</time>
      </trkpt>
      <trkpt lat="44.84421" lon="6.12282">
        <ele>2199.8</ele>
        <time>2024-08-13T13:15:07Z</time>
      </trkpt>
      <trkpt lat="44.84421" lon="6.12282">
        <ele>2199.8</ele>
        <time>2024-08-13T13:15:08Z</time>
      </trkpt>
      <trkpt lat="44.84421" lon="6.12282">
        <ele>2199.8</ele>
        <time>2024-08-13T13:15:09Z</time>
      </trkpt>
      <trkpt lat="44.84421" lon="6.12282">
        <ele>2199.8</ele>
        <time>2024-08-13T13:15:10Z</time>
      </trkpt>
      <trkpt lat="44.84421" lon="6.12282">
        <ele>2199.8</ele>
        <time>2024-08-13T13:15:11Z</time>
      </trkpt>
      <trkpt lat="44.84421" lon="6.12282">
        <ele>2199.4</ele>
        <time>2024-08-13T13:15:12Z</time>
      </trkpt>
      <trkpt lat="44.84421" lon="6.12282">
        <ele>2199.4</ele>
        <time>2024-08-13T13:15:13Z</time>
      </trkpt>
      <trkpt lat="44.84421" lon="6.12282">
        <ele>2199.4</ele>
        <time>2024-08-13T13:15:14Z</time>
      </trkpt>
      <trkpt lat="44.84421" lon="6.12282">
        <ele>2199.4</ele>
        <time>2024-08-13T13:15:15Z</time>
      </trkpt>
      <trkpt lat="44.84421" lon="6.12282">
        <ele>2199.6</ele>
        <time>2024-08-13T13:15:16Z</time>
      </trkpt>
      <trkpt lat="44.84421" lon="6.12282">
        <ele>2199.8</ele>
        <time>2024-08-13T13:15:17Z</time>
      </trkpt>
      <trkpt lat="44.84421" lon="6.12282">
        <ele>2199.8</ele>
        <time>2024-08-13T13:15:18Z</time>
      </trkpt>
      <trkpt lat="44.84421" lon="6.12282">
        <ele>2199.8</ele>
        <time>2024-08-13T13:15:19Z</time>
      </trkpt>
      <trkpt lat="44.84421" lon="6.12282">
        <ele>2200.2</ele>
        <time>2024-08-13T13:15:20Z</time>
      </trkpt>
      <trkpt lat="44.84421" lon="6.12282">
        <ele>2200.2</ele>
        <time>2024-08-13T13:15:21Z</time>
      </trkpt>
      <trkpt lat="44.84421" lon="6.12282">
        <ele>2200.2</ele>
        <time>2024-08-13T13:15:22Z</time>
      </trkpt>
      <trkpt lat="44.84421" lon="6.12282">
        <ele>2200.2</ele>
        <time>2024-08-13T13:15:23Z</time>
      </trkpt>
      <trkpt lat="44.84421" lon="6.12282">
        <ele>2200.2</ele>
        <time>2024-08-13T13:15:24Z</time>
      </trkpt>
      <trkpt lat="44.84421" lon="6.12282">
        <ele>2200.2</ele>
        <time>2024-08-13T13:15:25Z</time>
      </trkpt>
      <trkpt lat="44.84421" lon="6.12282">
        <ele>2200.2</ele>
        <time>2024-08-13T13:15:26Z</time>
      </trkpt>
      <trkpt lat="44.84421" lon="6.12282">
        <ele>2200</ele>
        <time>2024-08-13T13:15:27Z</time>
      </trkpt>
      <trkpt lat="44.84421" lon="6.12282">
        <ele>2199.8</ele>
        <time>2024-08-13T13:15:28Z</time>
      </trkpt>
      <trkpt lat="44.84421" lon="6.12282">
        <ele>2199.8</ele>
        <time>2024-08-13T13:15:29Z</time>
      </trkpt>
      <trkpt lat="44.84421" lon="6.12282">
        <ele>2199.8</ele>
        <time>2024-08-13T13:15:30Z</time>
      </trkpt>
      <trkpt lat="44.84421" lon="6.12282">
        <ele>2200.2</ele>
        <time>2024-08-13T13:15:31Z</time>
      </trkpt>
      <trkpt lat="44.84421" lon="6.12282">
        <ele>2200.8</ele>
        <time>2024-08-13T13:15:32Z</time>
      </trkpt>
      <trkpt lat="44.84419" lon="6.12281">
        <ele>2201</ele>
        <time>2024-08-13T13:15:33Z</time>
      </trkpt>
      <trkpt lat="44.84419" lon="6.12281">
        <ele>2201</ele>
        <time>2024-08-13T13:15:34Z</time>
      </trkpt>
      <trkpt lat="44.84417" lon="6.1228">
        <ele>2201</ele>
        <time>2024-08-13T13:15:35Z</time>
      </trkpt>
      <trkpt lat="44.84417" lon="6.1228">
        <ele>2201</ele>
        <time>2024-08-13T13:15:36Z</time>
      </trkpt>
      <trkpt lat="44.84415" lon="6.12278">
        <ele>2201.2</ele>
        <time>2024-08-13T13:15:37Z</time>
      </trkpt>
      <trkpt lat="44.84415" lon="6.12278">
        <ele>2201.2</ele>
        <time>2024-08-13T13:15:38Z</time>
      </trkpt>
      <trkpt lat="44.84413" lon="6.12276">
        <ele>2201.2</ele>
        <time>2024-08-13T13:15:39Z</time>
      </trkpt>
      <trkpt lat="44.84413" lon="6.12276">
        <ele>2201.4</ele>
        <time>2024-08-13T13:15:40Z</time>
      </trkpt>
      <trkpt lat="44.84411" lon="6.12275">
        <ele>2201.4</ele>
        <time>2024-08-13T13:15:41Z</time>
      </trkpt>
      <trkpt lat="44.84411" lon="6.12275">
        <ele>2201.2</ele>
        <time>2024-08-13T13:15:42Z</time>
      </trkpt>
      <trkpt lat="44.84409" lon="6.12273">
        <ele>2201.2</ele>
        <time>2024-08-13T13:15:43Z</time>
      </trkpt>
      <trkpt lat="44.84409" lon="6.12273">
        <ele>2201.6</ele>
        <time>2024-08-13T13:15:44Z</time>
      </trkpt>
      <trkpt lat="44.84407" lon="6.12271">
        <ele>2201.6</ele>
        <time>2024-08-13T13:15:45Z</time>
      </trkpt>
      <trkpt lat="44.84407" lon="6.12271">
        <ele>2201.6</ele>
        <time>2024-08-13T13:15:46Z</time>
      </trkpt>
      <trkpt lat="44.84405" lon="6.12269">
        <ele>2201.4</ele>
        <time>2024-08-13T13:15:47Z</time>
      </trkpt>
      <trkpt lat="44.84404" lon="6.12268">
        <ele>2201.4</ele>
        <time>2024-08-13T13:15:48Z</time>
      </trkpt>
      <trkpt lat="44.84404" lon="6.12268">
        <ele>2201.2</ele>
        <time>2024-08-13T13:15:49Z</time>
      </trkpt>
      <trkpt lat="44.84402" lon="6.12266">
        <ele>2201</ele>
        <time>2024-08-13T13:15:50Z</time>
      </trkpt>
      <trkpt lat="44.84402" lon="6.12266">
        <ele>2200.8</ele>
        <time>2024-08-13T13:15:51Z</time>
      </trkpt>
      <trkpt lat="44.844" lon="6.12263">
        <ele>2200.4</ele>
        <time>2024-08-13T13:15:52Z</time>
      </trkpt>
      <trkpt lat="44.844" lon="6.12263">
        <ele>2200.4</ele>
        <time>2024-08-13T13:15:53Z</time>
      </trkpt>
      <trkpt lat="44.84398" lon="6.12261">
        <ele>2200.2</ele>
        <time>2024-08-13T13:15:54Z</time>
      </trkpt>
      <trkpt lat="44.84398" lon="6.12261">
        <ele>2200.2</ele>
        <time>2024-08-13T13:15:55Z</time>
      </trkpt>
      <trkpt lat="44.84397" lon="6.1226">
        <ele>2200.2</ele>
        <time>2024-08-13T13:15:56Z</time>
      </trkpt>
      <trkpt lat="44.84397" lon="6.1226">
        <ele>2200.2</ele>
        <time>2024-08-13T13:15:57Z</time>
      </trkpt>
      <trkpt lat="44.84397" lon="6.1226">
        <ele>2200.2</ele>
        <time>2024-08-13T13:15:58Z</time>
      </trkpt>
      <trkpt lat="44.84395" lon="6.12258">
        <ele>2200.4</ele>
        <time>2024-08-13T13:15:59Z</time>
      </trkpt>
      <trkpt lat="44.84395" lon="6.12258">
        <ele>2200.6</ele>
        <time>2024-08-13T13:16:00Z</time>
      </trkpt>
      <trkpt lat="44.84393" lon="6.12257">
        <ele>2200.6</ele>
        <time>2024-08-13T13:16:01Z</time>
      </trkpt>
      <trkpt lat="44.84393" lon="6.12257">
        <ele>2200.6</ele>
        <time>2024-08-13T13:16:02Z</time>
      </trkpt>
      <trkpt lat="44.84391" lon="6.12257">
        <ele>2200.6</ele>
        <time>2024-08-13T13:16:03Z</time>
      </trkpt>
      <trkpt lat="44.84391" lon="6.12257">
        <ele>2200.8</ele>
        <time>2024-08-13T13:16:04Z</time>
      </trkpt>
      <trkpt lat="44.84391" lon="6.12257">
        <ele>2200.8</ele>
        <time>2024-08-13T13:16:05Z</time>
      </trkpt>
      <trkpt lat="44.84388" lon="6.12257">
        <ele>2200.6</ele>
        <time>2024-08-13T13:16:06Z</time>
      </trkpt>
      <trkpt lat="44.84388" lon="6.12257">
        <ele>2200.6</ele>
        <time>2024-08-13T13:16:07Z</time>
      </trkpt>
      <trkpt lat="44.84386" lon="6.12258">
        <ele>2200.8</ele>
        <time>2024-08-13T13:16:08Z</time>
      </trkpt>
      <trkpt lat="44.84386" lon="6.12258">
        <ele>2200.8</ele>
        <time>2024-08-13T13:16:09Z</time>
      </trkpt>
      <trkpt lat="44.84385" lon="6.1226">
        <ele>2200.8</ele>
        <time>2024-08-13T13:16:10Z</time>
      </trkpt>
      <trkpt lat="44.84385" lon="6.1226">
        <ele>2200.8</ele>
        <time>2024-08-13T13:16:11Z</time>
      </trkpt>
      <trkpt lat="44.84383" lon="6.12262">
        <ele>2201</ele>
        <time>2024-08-13T13:16:12Z</time>
      </trkpt>
      <trkpt lat="44.84383" lon="6.12262">
        <ele>2201</ele>
        <time>2024-08-13T13:16:13Z</time>
      </trkpt>
      <trkpt lat="44.84381" lon="6.12265">
        <ele>2201</ele>
        <time>2024-08-13T13:16:14Z</time>
      </trkpt>
      <trkpt lat="44.84381" lon="6.12265">
        <ele>2201</ele>
        <time>2024-08-13T13:16:15Z</time>
      </trkpt>
      <trkpt lat="44.84379" lon="6.12266">
        <ele>2201</ele>
        <time>2024-08-13T13:16:16Z</time>
      </trkpt>
      <trkpt lat="44.84379" lon="6.12266">
        <ele>2201.2</ele>
        <time>2024-08-13T13:16:17Z</time>
      </trkpt>
      <trkpt lat="44.84377" lon="6.12268">
        <ele>2201.4</ele>
        <time>2024-08-13T13:16:18Z</time>
      </trkpt>
      <trkpt lat="44.84377" lon="6.12268">
        <ele>2201.6</ele>
        <time>2024-08-13T13:16:19Z</time>
      </trkpt>
      <trkpt lat="44.84375" lon="6.12269">
        <ele>2201.8</ele>
        <time>2024-08-13T13:16:20Z</time>
      </trkpt>
      <trkpt lat="44.84375" lon="6.12269">
        <ele>2201.8</ele>
        <time>2024-08-13T13:16:21Z</time>
      </trkpt>
      <trkpt lat="44.84373" lon="6.1227">
        <ele>2201.8</ele>
        <time>2024-08-13T13:16:22Z</time>
      </trkpt>
      <trkpt lat="44.84373" lon="6.1227">
        <ele>2202.4</ele>
        <time>2024-08-13T13:16:23Z</time>
      </trkpt>
      <trkpt lat="44.84372" lon="6.12272">
        <ele>2202.4</ele>
        <time>2024-08-13T13:16:24Z</time>
      </trkpt>
      <trkpt lat="44.84372" lon="6.12272">
        <ele>2202.6</ele>
        <time>2024-08-13T13:16:25Z</time>
      </trkpt>
      <trkpt lat="44.8437" lon="6.12274">
        <ele>2202.6</ele>
        <time>2024-08-13T13:16:26Z</time>
      </trkpt>
      <trkpt lat="44.8437" lon="6.12274">
        <ele>2202.6</ele>
        <time>2024-08-13T13:16:27Z</time>
      </trkpt>
      <trkpt lat="44.8437" lon="6.12274">
        <ele>2202.8</ele>
        <time>2024-08-13T13:16:28Z</time>
      </trkpt>
      <trkpt lat="44.84368" lon="6.12275">
        <ele>2203</ele>
        <time>2024-08-13T13:16:29Z</time>
      </trkpt>
      <trkpt lat="44.84368" lon="6.12275">
        <ele>2203</ele>
        <time>2024-08-13T13:16:30Z</time>
      </trkpt>
      <trkpt lat="44.84366" lon="6.12276">
        <ele>2203</ele>
        <time>2024-08-13T13:16:31Z</time>
      </trkpt>
      <trkpt lat="44.84366" lon="6.12276">
        <ele>2203.4</ele>
        <time>2024-08-13T13:16:32Z</time>
      </trkpt>
      <trkpt lat="44.84366" lon="6.12276">
        <ele>2203.4</ele>
        <time>2024-08-13T13:16:33Z</time>
      </trkpt>
      <trkpt lat="44.84364" lon="6.12278">
        <ele>2203.8</ele>
        <time>2024-08-13T13:16:34Z</time>
      </trkpt>
      <trkpt lat="44.84364" lon="6.12278">
        <ele>2203.8</ele>
        <time>2024-08-13T13:16:35Z</time>
      </trkpt>
      <trkpt lat="44.84364" lon="6.12278">
        <ele>2204.2</ele>
        <time>2024-08-13T13:16:36Z</time>
      </trkpt>
      <trkpt lat="44.84363" lon="6.12281">
        <ele>2204.2</ele>
        <time>2024-08-13T13:16:37Z</time>
      </trkpt>
      <trkpt lat="44.84363" lon="6.12281">
        <ele>2204.2</ele>
        <time>2024-08-13T13:16:38Z</time>
      </trkpt>
      <trkpt lat="44.84363" lon="6.12281">
        <ele>2204.2</ele>
        <time>2024-08-13T13:16:39Z</time>
      </trkpt>
      <trkpt lat="44.84362" lon="6.12283">
        <ele>2204.2</ele>
        <time>2024-08-13T13:16:40Z</time>
      </trkpt>
      <trkpt lat="44.84362" lon="6.12283">
        <ele>2204.2</ele>
        <time>2024-08-13T13:16:41Z</time>
      </trkpt>
      <trkpt lat="44.84362" lon="6.12283">
        <ele>2204.2</ele>
        <time>2024-08-13T13:16:42Z</time>
      </trkpt>
      <trkpt lat="44.8436" lon="6.12285">
        <ele>2204.2</ele>
        <time>2024-08-13T13:16:43Z</time>
      </trkpt>
      <trkpt lat="44.8436" lon="6.12285">
        <ele>2204.6</ele>
        <time>2024-08-13T13:16:44Z</time>
      </trkpt>
      <trkpt lat="44.8436" lon="6.12285">
        <ele>2204.8</ele>
        <time>2024-08-13T13:16:45Z</time>
      </trkpt>
      <trkpt lat="44.8436" lon="6.12285">
        <ele>2204.8</ele>
        <time>2024-08-13T13:16:46Z</time>
      </trkpt>
      <trkpt lat="44.84359" lon="6.12288">
        <ele>2205</ele>
        <time>2024-08-13T13:16:47Z</time>
      </trkpt>
      <trkpt lat="44.84359" lon="6.12288">
        <ele>2205.2</ele>
        <time>2024-08-13T13:16:48Z</time>
      </trkpt>
      <trkpt lat="44.84359" lon="6.12288">
        <ele>2205.4</ele>
        <time>2024-08-13T13:16:49Z</time>
      </trkpt>
      <trkpt lat="44.84358" lon="6.1229">
        <ele>2205.6</ele>
        <time>2024-08-13T13:16:50Z</time>
      </trkpt>
      <trkpt lat="44.84358" lon="6.1229">
        <ele>2205.6</ele>
        <time>2024-08-13T13:16:51Z</time>
      </trkpt>
      <trkpt lat="44.84358" lon="6.1229">
        <ele>2205.8</ele>
        <time>2024-08-13T13:16:52Z</time>
      </trkpt>
      <trkpt lat="44.84358" lon="6.12293">
        <ele>2206</ele>
        <time>2024-08-13T13:16:53Z</time>
      </trkpt>
      <trkpt lat="44.84358" lon="6.12293">
        <ele>2206.2</ele>
        <time>2024-08-13T13:16:54Z</time>
      </trkpt>
      <trkpt lat="44.84358" lon="6.12293">
        <ele>2206.4</ele>
        <time>2024-08-13T13:16:55Z</time>
      </trkpt>
      <trkpt lat="44.84358" lon="6.12297">
        <ele>2206.6</ele>
        <time>2024-08-13T13:16:56Z</time>
      </trkpt>
      <trkpt lat="44.84358" lon="6.12297">
        <ele>2207.2</ele>
        <time>2024-08-13T13:16:57Z</time>
      </trkpt>
      <trkpt lat="44.84358" lon="6.12297">
        <ele>2207.4</ele>
        <time>2024-08-13T13:16:58Z</time>
      </trkpt>
      <trkpt lat="44.84358" lon="6.123">
        <ele>2207.4</ele>
        <time>2024-08-13T13:16:59Z</time>
      </trkpt>
      <trkpt lat="44.84358" lon="6.123">
        <ele>2207.4</ele>
        <time>2024-08-13T13:17:00Z</time>
      </trkpt>
      <trkpt lat="44.84357" lon="6.12303">
        <ele>2207.2</ele>
        <time>2024-08-13T13:17:01Z</time>
      </trkpt>
      <trkpt lat="44.84357" lon="6.12303">
        <ele>2207</ele>
        <time>2024-08-13T13:17:02Z</time>
      </trkpt>
      <trkpt lat="44.84357" lon="6.12303">
        <ele>2207</ele>
        <time>2024-08-13T13:17:03Z</time>
      </trkpt>
      <trkpt lat="44.84357" lon="6.12307">
        <ele>2207</ele>
        <time>2024-08-13T13:17:04Z</time>
      </trkpt>
      <trkpt lat="44.84357" lon="6.12307">
        <ele>2207.2</ele>
        <time>2024-08-13T13:17:05Z</time>
      </trkpt>
      <trkpt lat="44.84357" lon="6.12307">
        <ele>2207.4</ele>
        <time>2024-08-13T13:17:06Z</time>
      </trkpt>
      <trkpt lat="44.84356" lon="6.1231">
        <ele>2207.6</ele>
        <time>2024-08-13T13:17:07Z</time>
      </trkpt>
      <trkpt lat="44.84356" lon="6.1231">
        <ele>2207.8</ele>
        <time>2024-08-13T13:17:08Z</time>
      </trkpt>
      <trkpt lat="44.84356" lon="6.12313">
        <ele>2207.8</ele>
        <time>2024-08-13T13:17:09Z</time>
      </trkpt>
      <trkpt lat="44.84356" lon="6.12313">
        <ele>2207.8</ele>
        <time>2024-08-13T13:17:10Z</time>
      </trkpt>
      <trkpt lat="44.84356" lon="6.12313">
        <ele>2208</ele>
        <time>2024-08-13T13:17:11Z</time>
      </trkpt>
      <trkpt lat="44.84355" lon="6.12316">
        <ele>2208.4</ele>
        <time>2024-08-13T13:17:12Z</time>
      </trkpt>
      <trkpt lat="44.84355" lon="6.12316">
        <ele>2208.6</ele>
        <time>2024-08-13T13:17:13Z</time>
      </trkpt>
      <trkpt lat="44.84353" lon="6.12319">
        <ele>2209.2</ele>
        <time>2024-08-13T13:17:14Z</time>
      </trkpt>
      <trkpt lat="44.84353" lon="6.12319">
        <ele>2209.4</ele>
        <time>2024-08-13T13:17:15Z</time>
      </trkpt>
      <trkpt lat="44.84353" lon="6.12319">
        <ele>2209.4</ele>
        <time>2024-08-13T13:17:16Z</time>
      </trkpt>
      <trkpt lat="44.84352" lon="6.12316">
        <ele>2209.4</ele>
        <time>2024-08-13T13:17:17Z</time>
      </trkpt>
      <trkpt lat="44.84352" lon="6.12316">
        <ele>2209.8</ele>
        <time>2024-08-13T13:17:18Z</time>
      </trkpt>
      <trkpt lat="44.84352" lon="6.12314">
        <ele>2210</ele>
        <time>2024-08-13T13:17:19Z</time>
      </trkpt>
      <trkpt lat="44.84352" lon="6.12314">
        <ele>2210.2</ele>
        <time>2024-08-13T13:17:20Z</time>
      </trkpt>
      <trkpt lat="44.84352" lon="6.12314">
        <ele>2210.4</ele>
        <time>2024-08-13T13:17:21Z</time>
      </trkpt>
      <trkpt lat="44.84352" lon="6.1231">
        <ele>2210.6</ele>
        <time>2024-08-13T13:17:22Z</time>
      </trkpt>
      <trkpt lat="44.84352" lon="6.1231">
        <ele>2210.8</ele>
        <time>2024-08-13T13:17:23Z</time>
      </trkpt>
      <trkpt lat="44.84353" lon="6.12308">
        <ele>2210.8</ele>
        <time>2024-08-13T13:17:24Z</time>
      </trkpt>
      <trkpt lat="44.84353" lon="6.12308">
        <ele>2211</ele>
        <time>2024-08-13T13:17:25Z</time>
      </trkpt>
      <trkpt lat="44.84354" lon="6.12305">
        <ele>2211.4</ele>
        <time>2024-08-13T13:17:26Z</time>
      </trkpt>
      <trkpt lat="44.84354" lon="6.12305">
        <ele>2211.8</ele>
        <time>2024-08-13T13:17:27Z</time>
      </trkpt>
      <trkpt lat="44.84354" lon="6.12302">
        <ele>2212</ele>
        <time>2024-08-13T13:17:28Z</time>
      </trkpt>
      <trkpt lat="44.84354" lon="6.12302">
        <ele>2212</ele>
        <time>2024-08-13T13:17:29Z</time>
      </trkpt>
      <trkpt lat="44.84354" lon="6.12302">
        <ele>2212</ele>
        <time>2024-08-13T13:17:30Z</time>
      </trkpt>
      <trkpt lat="44.84354" lon="6.12298">
        <ele>2212</ele>
        <time>2024-08-13T13:17:31Z</time>
      </trkpt>
      <trkpt lat="44.84354" lon="6.12298">
        <ele>2212.4</ele>
        <time>2024-08-13T13:17:32Z</time>
      </trkpt>
      <trkpt lat="44.84353" lon="6.12295">
        <ele>2212.4</ele>
        <time>2024-08-13T13:17:33Z</time>
      </trkpt>
      <trkpt lat="44.84353" lon="6.12295">
        <ele>2212</ele>
        <time>2024-08-13T13:17:34Z</time>
      </trkpt>
      <trkpt lat="44.84353" lon="6.12293">
        <ele>2212</ele>
        <time>2024-08-13T13:17:35Z</time>
      </trkpt>
      <trkpt lat="44.84353" lon="6.12293">
        <ele>2212</ele>
        <time>2024-08-13T13:17:36Z</time>
      </trkpt>
      <trkpt lat="44.84352" lon="6.1229">
        <ele>2212.2</ele>
        <time>2024-08-13T13:17:37Z</time>
      </trkpt>
      <trkpt lat="44.84352" lon="6.1229">
        <ele>2212.4</ele>
        <time>2024-08-13T13:17:38Z</time>
      </trkpt>
      <trkpt lat="44.84352" lon="6.1229">
        <ele>2212.6</ele>
        <time>2024-08-13T13:17:39Z</time>
      </trkpt>
      <trkpt lat="44.84352" lon="6.12286">
        <ele>2213</ele>
        <time>2024-08-13T13:17:40Z</time>
      </trkpt>
      <trkpt lat="44.84352" lon="6.12286">
        <ele>2213</ele>
        <time>2024-08-13T13:17:41Z</time>
      </trkpt>
      <trkpt lat="44.84352" lon="6.12286">
        <ele>2213</ele>
        <time>2024-08-13T13:17:42Z</time>
      </trkpt>
      <trkpt lat="44.84351" lon="6.12283">
        <ele>2213</ele>
        <time>2024-08-13T13:17:43Z</time>
      </trkpt>
      <trkpt lat="44.84351" lon="6.12283">
        <ele>2213.4</ele>
        <time>2024-08-13T13:17:44Z</time>
      </trkpt>
      <trkpt lat="44.84351" lon="6.12283">
        <ele>2213.4</ele>
        <time>2024-08-13T13:17:45Z</time>
      </trkpt>
      <trkpt lat="44.84351" lon="6.12283">
        <ele>2213.4</ele>
        <time>2024-08-13T13:17:46Z</time>
      </trkpt>
      <trkpt lat="44.84351" lon="6.1228">
        <ele>2213.4</ele>
        <time>2024-08-13T13:17:47Z</time>
      </trkpt>
      <trkpt lat="44.84351" lon="6.1228">
        <ele>2213.6</ele>
        <time>2024-08-13T13:17:48Z</time>
      </trkpt>
      <trkpt lat="44.84351" lon="6.1228">
        <ele>2213.8</ele>
        <time>2024-08-13T13:17:49Z</time>
      </trkpt>
      <trkpt lat="44.84351" lon="6.12277">
        <ele>2214.2</ele>
        <time>2024-08-13T13:17:50Z</time>
      </trkpt>
      <trkpt lat="44.84351" lon="6.12277">
        <ele>2214.2</ele>
        <time>2024-08-13T13:17:51Z</time>
      </trkpt>
      <trkpt lat="44.84351" lon="6.12277">
        <ele>2214</ele>
        <time>2024-08-13T13:17:52Z</time>
      </trkpt>
      <trkpt lat="44.84351" lon="6.12274">
        <ele>2214</ele>
        <time>2024-08-13T13:17:53Z</time>
      </trkpt>
      <trkpt lat="44.84351" lon="6.12274">
        <ele>2214</ele>
        <time>2024-08-13T13:17:54Z</time>
      </trkpt>
      <trkpt lat="44.84351" lon="6.12274">
        <ele>2214</ele>
        <time>2024-08-13T13:17:55Z</time>
      </trkpt>
      <trkpt lat="44.84351" lon="6.12271">
        <ele>2214</ele>
        <time>2024-08-13T13:17:56Z</time>
      </trkpt>
      <trkpt lat="44.84351" lon="6.12271">
        <ele>2214</ele>
        <time>2024-08-13T13:17:57Z</time>
      </trkpt>
      <trkpt lat="44.84353" lon="6.12268">
        <ele>2214.2</ele>
        <time>2024-08-13T13:17:58Z</time>
      </trkpt>
      <trkpt lat="44.84353" lon="6.12268">
        <ele>2214.2</ele>
        <time>2024-08-13T13:17:59Z</time>
      </trkpt>
      <trkpt lat="44.84354" lon="6.12266">
        <ele>2214.2</ele>
        <time>2024-08-13T13:18:00Z</time>
      </trkpt>
      <trkpt lat="44.84354" lon="6.12266">
        <ele>2214.2</ele>
        <time>2024-08-13T13:18:01Z</time>
      </trkpt>
      <trkpt lat="44.84355" lon="6.12264">
        <ele>2214.8</ele>
        <time>2024-08-13T13:18:02Z</time>
      </trkpt>
      <trkpt lat="44.84355" lon="6.12264">
        <ele>2214.8</ele>
        <time>2024-08-13T13:18:03Z</time>
      </trkpt>
      <trkpt lat="44.84355" lon="6.12264">
        <ele>2214.8</ele>
        <time>2024-08-13T13:18:04Z</time>
      </trkpt>
      <trkpt lat="44.84355" lon="6.12261">
        <ele>2214.8</ele>
        <time>2024-08-13T13:18:05Z</time>
      </trkpt>
      <trkpt lat="44.84355" lon="6.12261">
        <ele>2214.8</ele>
        <time>2024-08-13T13:18:06Z</time>
      </trkpt>
      <trkpt lat="44.84355" lon="6.12261">
        <ele>2215.6</ele>
        <time>2024-08-13T13:18:07Z</time>
      </trkpt>
      <trkpt lat="44.84357" lon="6.12258">
        <ele>2215.6</ele>
        <time>2024-08-13T13:18:08Z</time>
      </trkpt>
      <trkpt lat="44.84357" lon="6.12258">
        <ele>2215.6</ele>
        <time>2024-08-13T13:18:09Z</time>
      </trkpt>
      <trkpt lat="44.84357" lon="6.12258">
        <ele>2215.8</ele>
        <time>2024-08-13T13:18:10Z</time>
      </trkpt>
      <trkpt lat="44.84358" lon="6.12255">
        <ele>2215.8</ele>
        <time>2024-08-13T13:18:11Z</time>
      </trkpt>
      <trkpt lat="44.84358" lon="6.12255">
        <ele>2215.8</ele>
        <time>2024-08-13T13:18:12Z</time>
      </trkpt>
      <trkpt lat="44.84358" lon="6.12255">
        <ele>2216</ele>
        <time>2024-08-13T13:18:13Z</time>
      </trkpt>
      <trkpt lat="44.8436" lon="6.12252">
        <ele>2216.4</ele>
        <time>2024-08-13T13:18:14Z</time>
      </trkpt>
      <trkpt lat="44.8436" lon="6.12252">
        <ele>2216.4</ele>
        <time>2024-08-13T13:18:15Z</time>
      </trkpt>
      <trkpt lat="44.84361" lon="6.12249">
        <ele>2216.4</ele>
        <time>2024-08-13T13:18:16Z</time>
      </trkpt>
      <trkpt lat="44.84361" lon="6.12249">
        <ele>2216.4</ele>
        <time>2024-08-13T13:18:17Z</time>
      </trkpt>
      <trkpt lat="44.84361" lon="6.12249">
        <ele>2216.4</ele>
        <time>2024-08-13T13:18:18Z</time>
      </trkpt>
      <trkpt lat="44.84362" lon="6.12246">
        <ele>2216.2</ele>
        <time>2024-08-13T13:18:19Z</time>
      </trkpt>
      <trkpt lat="44.84362" lon="6.12246">
        <ele>2216.4</ele>
        <time>2024-08-13T13:18:20Z</time>
      </trkpt>
      <trkpt lat="44.84362" lon="6.12246">
        <ele>2216.6</ele>
        <time>2024-08-13T13:18:21Z</time>
      </trkpt>
      <trkpt lat="44.84361" lon="6.12243">
        <ele>2216.8</ele>
        <time>2024-08-13T13:18:22Z</time>
      </trkpt>
      <trkpt lat="44.84361" lon="6.12243">
        <ele>2217</ele>
        <time>2024-08-13T13:18:23Z</time>
      </trkpt>
      <trkpt lat="44.84363" lon="6.12241">
        <ele>2217.2</ele>
        <time>2024-08-13T13:18:24Z</time>
      </trkpt>
      <trkpt lat="44.84363" lon="6.12241">
        <ele>2217.2</ele>
        <time>2024-08-13T13:18:25Z</time>
      </trkpt>
      <trkpt lat="44.84364" lon="6.12239">
        <ele>2217.2</ele>
        <time>2024-08-13T13:18:26Z</time>
      </trkpt>
      <trkpt lat="44.84364" lon="6.12239">
        <ele>2217.6</ele>
        <time>2024-08-13T13:18:27Z</time>
      </trkpt>
      <trkpt lat="44.84365" lon="6.12237">
        <ele>2217.6</ele>
        <time>2024-08-13T13:18:28Z</time>
      </trkpt>
      <trkpt lat="44.84365" lon="6.12237">
        <ele>2217.8</ele>
        <time>2024-08-13T13:18:29Z</time>
      </trkpt>
      <trkpt lat="44.84365" lon="6.12237">
        <ele>2217.8</ele>
        <time>2024-08-13T13:18:30Z</time>
      </trkpt>
      <trkpt lat="44.84366" lon="6.12233">
        <ele>2217.8</ele>
        <time>2024-08-13T13:18:31Z</time>
      </trkpt>
      <trkpt lat="44.84366" lon="6.12233">
        <ele>2218</ele>
        <time>2024-08-13T13:18:32Z</time>
      </trkpt>
      <trkpt lat="44.84366" lon="6.12233">
        <ele>2218.2</ele>
        <time>2024-08-13T13:18:33Z</time>
      </trkpt>
      <trkpt lat="44.84368" lon="6.1223">
        <ele>2218.4</ele>
        <time>2024-08-13T13:18:34Z</time>
      </trkpt>
      <trkpt lat="44.84368" lon="6.1223">
        <ele>2218.4</ele>
        <time>2024-08-13T13:18:35Z</time>
      </trkpt>
      <trkpt lat="44.84369" lon="6.12228">
        <ele>2218.2</ele>
        <time>2024-08-13T13:18:36Z</time>
      </trkpt>
      <trkpt lat="44.84369" lon="6.12228">
        <ele>2218.2</ele>
        <time>2024-08-13T13:18:37Z</time>
      </trkpt>
      <trkpt lat="44.84369" lon="6.12228">
        <ele>2218.4</ele>
        <time>2024-08-13T13:18:38Z</time>
      </trkpt>
      <trkpt lat="44.8437" lon="6.12225">
        <ele>2218.4</ele>
        <time>2024-08-13T13:18:39Z</time>
      </trkpt>
      <trkpt lat="44.8437" lon="6.12225">
        <ele>2218.8</ele>
        <time>2024-08-13T13:18:40Z</time>
      </trkpt>
      <trkpt lat="44.84371" lon="6.12223">
        <ele>2219</ele>
        <time>2024-08-13T13:18:41Z</time>
      </trkpt>
      <trkpt lat="44.84371" lon="6.12223">
        <ele>2219.2</ele>
        <time>2024-08-13T13:18:42Z</time>
      </trkpt>
      <trkpt lat="44.84371" lon="6.12223">
        <ele>2219.4</ele>
        <time>2024-08-13T13:18:43Z</time>
      </trkpt>
      <trkpt lat="44.8437" lon="6.1222">
        <ele>2219.6</ele>
        <time>2024-08-13T13:18:44Z</time>
      </trkpt>
      <trkpt lat="44.8437" lon="6.1222">
        <ele>2219.6</ele>
        <time>2024-08-13T13:18:45Z</time>
      </trkpt>
      <trkpt lat="44.84371" lon="6.12218">
        <ele>2219.6</ele>
        <time>2024-08-13T13:18:46Z</time>
      </trkpt>
      <trkpt lat="44.84371" lon="6.12218">
        <ele>2219.8</ele>
        <time>2024-08-13T13:18:47Z</time>
      </trkpt>
      <trkpt lat="44.84371" lon="6.12218">
        <ele>2219.8</ele>
        <time>2024-08-13T13:18:48Z</time>
      </trkpt>
      <trkpt lat="44.84371" lon="6.12215">
        <ele>2219.8</ele>
        <time>2024-08-13T13:18:49Z</time>
      </trkpt>
      <trkpt lat="44.84371" lon="6.12215">
        <ele>2220</ele>
        <time>2024-08-13T13:18:50Z</time>
      </trkpt>
      <trkpt lat="44.84371" lon="6.12215">
        <ele>2220.4</ele>
        <time>2024-08-13T13:18:51Z</time>
      </trkpt>
      <trkpt lat="44.84372" lon="6.12212">
        <ele>2220.4</ele>
        <time>2024-08-13T13:18:52Z</time>
      </trkpt>
      <trkpt lat="44.84372" lon="6.12212">
        <ele>2220.6</ele>
        <time>2024-08-13T13:18:53Z</time>
      </trkpt>
      <trkpt lat="44.84372" lon="6.12212">
        <ele>2220.8</ele>
        <time>2024-08-13T13:18:54Z</time>
      </trkpt>
      <trkpt lat="44.84373" lon="6.12209">
        <ele>2220.8</ele>
        <time>2024-08-13T13:18:55Z</time>
      </trkpt>
      <trkpt lat="44.84373" lon="6.12209">
        <ele>2221</ele>
        <time>2024-08-13T13:18:56Z</time>
      </trkpt>
      <trkpt lat="44.84373" lon="6.12209">
        <ele>2221</ele>
        <time>2024-08-13T13:18:57Z</time>
      </trkpt>
      <trkpt lat="44.84373" lon="6.12205">
        <ele>2221.2</ele>
        <time>2024-08-13T13:18:58Z</time>
      </trkpt>
      <trkpt lat="44.84373" lon="6.12205">
        <ele>2221.2</ele>
        <time>2024-08-13T13:18:59Z</time>
      </trkpt>
      <trkpt lat="44.84373" lon="6.12205">
        <ele>2221.4</ele>
        <time>2024-08-13T13:19:00Z</time>
      </trkpt>
      <trkpt lat="44.84373" lon="6.12202">
        <ele>2221.4</ele>
        <time>2024-08-13T13:19:01Z</time>
      </trkpt>
      <trkpt lat="44.84373" lon="6.12202">
        <ele>2221.6</ele>
        <time>2024-08-13T13:19:02Z</time>
      </trkpt>
      <trkpt lat="44.84373" lon="6.12202">
        <ele>2221.6</ele>
        <time>2024-08-13T13:19:03Z</time>
      </trkpt>
      <trkpt lat="44.84373" lon="6.12199">
        <ele>2221.6</ele>
        <time>2024-08-13T13:19:04Z</time>
      </trkpt>
      <trkpt lat="44.84373" lon="6.12199">
        <ele>2221.6</ele>
        <time>2024-08-13T13:19:05Z</time>
      </trkpt>
      <trkpt lat="44.84373" lon="6.12199">
        <ele>2222</ele>
        <time>2024-08-13T13:19:06Z</time>
      </trkpt>
      <trkpt lat="44.84375" lon="6.12195">
        <ele>2222</ele>
        <time>2024-08-13T13:19:07Z</time>
      </trkpt>
      <trkpt lat="44.84375" lon="6.12195">
        <ele>2221.8</ele>
        <time>2024-08-13T13:19:08Z</time>
      </trkpt>
      <trkpt lat="44.84376" lon="6.12192">
        <ele>2221.8</ele>
        <time>2024-08-13T13:19:09Z</time>
      </trkpt>
      <trkpt lat="44.84376" lon="6.12192">
        <ele>2221.8</ele>
        <time>2024-08-13T13:19:10Z</time>
      </trkpt>
      <trkpt lat="44.84376" lon="6.12189">
        <ele>2222</ele>
        <time>2024-08-13T13:19:11Z</time>
      </trkpt>
      <trkpt lat="44.84376" lon="6.12189">
        <ele>2222</ele>
        <time>2024-08-13T13:19:12Z</time>
      </trkpt>
      <trkpt lat="44.84377" lon="6.12186">
        <ele>2221.8</ele>
        <time>2024-08-13T13:19:13Z</time>
      </trkpt>
      <trkpt lat="44.84377" lon="6.12186">
        <ele>2221.8</ele>
        <time>2024-08-13T13:19:14Z</time>
      </trkpt>
      <trkpt lat="44.84377" lon="6.12186">
        <ele>2222</ele>
        <time>2024-08-13T13:19:15Z</time>
      </trkpt>
      <trkpt lat="44.84377" lon="6.12186">
        <ele>2222</ele>
        <time>2024-08-13T13:19:16Z</time>
      </trkpt>
      <trkpt lat="44.84378" lon="6.12183">
        <ele>2222</ele>
        <time>2024-08-13T13:19:17Z</time>
      </trkpt>
      <trkpt lat="44.84378" lon="6.12183">
        <ele>2222</ele>
        <time>2024-08-13T13:19:18Z</time>
      </trkpt>
      <trkpt lat="44.84379" lon="6.12181">
        <ele>2222.2</ele>
        <time>2024-08-13T13:19:19Z</time>
      </trkpt>
      <trkpt lat="44.84379" lon="6.12181">
        <ele>2222.4</ele>
        <time>2024-08-13T13:19:20Z</time>
      </trkpt>
      <trkpt lat="44.84379" lon="6.12181">
        <ele>2222.8</ele>
        <time>2024-08-13T13:19:21Z</time>
      </trkpt>
      <trkpt lat="44.84381" lon="6.12179">
        <ele>2222.8</ele>
        <time>2024-08-13T13:19:22Z</time>
      </trkpt>
      <trkpt lat="44.84381" lon="6.12179">
        <ele>2222.8</ele>
        <time>2024-08-13T13:19:23Z</time>
      </trkpt>
      <trkpt lat="44.84381" lon="6.12179">
        <ele>2222.8</ele>
        <time>2024-08-13T13:19:24Z</time>
      </trkpt>
      <trkpt lat="44.84382" lon="6.12177">
        <ele>2223.2</ele>
        <time>2024-08-13T13:19:25Z</time>
      </trkpt>
      <trkpt lat="44.84382" lon="6.12177">
        <ele>2223.2</ele>
        <time>2024-08-13T13:19:26Z</time>
      </trkpt>
      <trkpt lat="44.84382" lon="6.12177">
        <ele>2223.2</ele>
        <time>2024-08-13T13:19:27Z</time>
      </trkpt>
      <trkpt lat="44.84382" lon="6.12177">
        <ele>2224</ele>
        <time>2024-08-13T13:19:28Z</time>
      </trkpt>
      <trkpt lat="44.84383" lon="6.12174">
        <ele>2224.2</ele>
        <time>2024-08-13T13:19:29Z</time>
      </trkpt>
      <trkpt lat="44.84383" lon="6.12174">
        <ele>2224.2</ele>
        <time>2024-08-13T13:19:30Z</time>
      </trkpt>
      <trkpt lat="44.84383" lon="6.12174">
        <ele>2224.2</ele>
        <time>2024-08-13T13:19:31Z</time>
      </trkpt>
      <trkpt lat="44.84383" lon="6.12171">
        <ele>2224.2</ele>
        <time>2024-08-13T13:19:32Z</time>
      </trkpt>
      <trkpt lat="44.84383" lon="6.12171">
        <ele>2224.2</ele>
        <time>2024-08-13T13:19:33Z</time>
      </trkpt>
      <trkpt lat="44.84385" lon="6.1217">
        <ele>2223.8</ele>
        <time>2024-08-13T13:19:34Z</time>
      </trkpt>
      <trkpt lat="44.84385" lon="6.1217">
        <ele>2223.8</ele>
        <time>2024-08-13T13:19:35Z</time>
      </trkpt>
      <trkpt lat="44.84385" lon="6.1217">
        <ele>2224</ele>
        <time>2024-08-13T13:19:36Z</time>
      </trkpt>
      <trkpt lat="44.84387" lon="6.12168">
        <ele>2224</ele>
        <time>2024-08-13T13:19:37Z</time>
      </trkpt>
      <trkpt lat="44.84387" lon="6.12168">
        <ele>2224.6</ele>
        <time>2024-08-13T13:19:38Z</time>
      </trkpt>
      <trkpt lat="44.84387" lon="6.12168">
        <ele>2224.6</ele>
        <time>2024-08-13T13:19:39Z</time>
      </trkpt>
      <trkpt lat="44.84389" lon="6.12167">
        <ele>2224.4</ele>
        <time>2024-08-13T13:19:40Z</time>
      </trkpt>
      <trkpt lat="44.84389" lon="6.12167">
        <ele>2224.6</ele>
        <time>2024-08-13T13:19:41Z</time>
      </trkpt>
      <trkpt lat="44.84389" lon="6.12167">
        <ele>2224.8</ele>
        <time>2024-08-13T13:19:42Z</time>
      </trkpt>
      <trkpt lat="44.84391" lon="6.12166">
        <ele>2225</ele>
        <time>2024-08-13T13:19:43Z</time>
      </trkpt>
      <trkpt lat="44.84391" lon="6.12166">
        <ele>2225.2</ele>
        <time>2024-08-13T13:19:44Z</time>
      </trkpt>
      <trkpt lat="44.84391" lon="6.12166">
        <ele>2225.2</ele>
        <time>2024-08-13T13:19:45Z</time>
      </trkpt>
      <trkpt lat="44.84392" lon="6.12163">
        <ele>2225.2</ele>
        <time>2024-08-13T13:19:46Z</time>
      </trkpt>
      <trkpt lat="44.84392" lon="6.12163">
        <ele>2225.2</ele>
        <time>2024-08-13T13:19:47Z</time>
      </trkpt>
      <trkpt lat="44.84392" lon="6.12163">
        <ele>2225</ele>
        <time>2024-08-13T13:19:48Z</time>
      </trkpt>
      <trkpt lat="44.84394" lon="6.12162">
        <ele>2225</ele>
        <time>2024-08-13T13:19:49Z</time>
      </trkpt>
      <trkpt lat="44.84394" lon="6.12162">
        <ele>2225.2</ele>
        <time>2024-08-13T13:19:50Z</time>
      </trkpt>
      <trkpt lat="44.84394" lon="6.12162">
        <ele>2225.6</ele>
        <time>2024-08-13T13:19:51Z</time>
      </trkpt>
      <trkpt lat="44.84394" lon="6.12162">
        <ele>2225.8</ele>
        <time>2024-08-13T13:19:52Z</time>
      </trkpt>
      <trkpt lat="44.84396" lon="6.1216">
        <ele>2226.2</ele>
        <time>2024-08-13T13:19:53Z</time>
      </trkpt>
      <trkpt lat="44.84396" lon="6.1216">
        <ele>2226.2</ele>
        <time>2024-08-13T13:19:54Z</time>
      </trkpt>
      <trkpt lat="44.84396" lon="6.1216">
        <ele>2226.4</ele>
        <time>2024-08-13T13:19:55Z</time>
      </trkpt>
      <trkpt lat="44.84396" lon="6.1216">
        <ele>2227</ele>
        <time>2024-08-13T13:19:56Z</time>
      </trkpt>
      <trkpt lat="44.84398" lon="6.1216">
        <ele>2227</ele>
        <time>2024-08-13T13:19:57Z</time>
      </trkpt>
      <trkpt lat="44.84398" lon="6.1216">
        <ele>2227.2</ele>
        <time>2024-08-13T13:19:58Z</time>
      </trkpt>
      <trkpt lat="44.844" lon="6.12161">
        <ele>2227.2</ele>
        <time>2024-08-13T13:19:59Z</time>
      </trkpt>
      <trkpt lat="44.844" lon="6.12161">
        <ele>2227.2</ele>
        <time>2024-08-13T13:20:00Z</time>
      </trkpt>
      <trkpt lat="44.844" lon="6.12161">
        <ele>2227.6</ele>
        <time>2024-08-13T13:20:01Z</time>
      </trkpt>
      <trkpt lat="44.84403" lon="6.12162">
        <ele>2228.2</ele>
        <time>2024-08-13T13:20:02Z</time>
      </trkpt>
      <trkpt lat="44.84403" lon="6.12162">
        <ele>2228.2</ele>
        <time>2024-08-13T13:20:03Z</time>
      </trkpt>
      <trkpt lat="44.84405" lon="6.12162">
        <ele>2228.2</ele>
        <time>2024-08-13T13:20:04Z</time>
      </trkpt>
      <trkpt lat="44.84405" lon="6.12162">
        <ele>2228</ele>
        <time>2024-08-13T13:20:05Z</time>
      </trkpt>
      <trkpt lat="44.84406" lon="6.12162">
        <ele>2228</ele>
        <time>2024-08-13T13:20:06Z</time>
      </trkpt>
      <trkpt lat="44.84406" lon="6.12162">
        <ele>2228</ele>
        <time>2024-08-13T13:20:07Z</time>
      </trkpt>
      <trkpt lat="44.84409" lon="6.12163">
        <ele>2228.4</ele>
        <time>2024-08-13T13:20:08Z</time>
      </trkpt>
      <trkpt lat="44.84409" lon="6.12163">
        <ele>2228.4</ele>
        <time>2024-08-13T13:20:09Z</time>
      </trkpt>
      <trkpt lat="44.84411" lon="6.12164">
        <ele>2228.6</ele>
        <time>2024-08-13T13:20:10Z</time>
      </trkpt>
      <trkpt lat="44.84411" lon="6.12164">
        <ele>2228.8</ele>
        <time>2024-08-13T13:20:11Z</time>
      </trkpt>
      <trkpt lat="44.84413" lon="6.12165">
        <ele>2228.8</ele>
        <time>2024-08-13T13:20:12Z</time>
      </trkpt>
      <trkpt lat="44.84413" lon="6.12165">
        <ele>2229.2</ele>
        <time>2024-08-13T13:20:13Z</time>
      </trkpt>
      <trkpt lat="44.84414" lon="6.12167">
        <ele>2229.2</ele>
        <time>2024-08-13T13:20:14Z</time>
      </trkpt>
      <trkpt lat="44.84414" lon="6.12167">
        <ele>2229.4</ele>
        <time>2024-08-13T13:20:15Z</time>
      </trkpt>
      <trkpt lat="44.84416" lon="6.12168">
        <ele>2229.4</ele>
        <time>2024-08-13T13:20:16Z</time>
      </trkpt>
      <trkpt lat="44.84416" lon="6.12168">
        <ele>2229.2</ele>
        <time>2024-08-13T13:20:17Z</time>
      </trkpt>
      <trkpt lat="44.84419" lon="6.1217">
        <ele>2229.2</ele>
        <time>2024-08-13T13:20:18Z</time>
      </trkpt>
      <trkpt lat="44.84419" lon="6.1217">
        <ele>2228.8</ele>
        <time>2024-08-13T13:20:19Z</time>
      </trkpt>
      <trkpt lat="44.8442" lon="6.12171">
        <ele>2228.8</ele>
        <time>2024-08-13T13:20:20Z</time>
      </trkpt>
      <trkpt lat="44.8442" lon="6.12171">
        <ele>2229.4</ele>
        <time>2024-08-13T13:20:21Z</time>
      </trkpt>
      <trkpt lat="44.8442" lon="6.12171">
        <ele>2229.6</ele>
        <time>2024-08-13T13:20:22Z</time>
      </trkpt>
      <trkpt lat="44.84421" lon="6.12174">
        <ele>2229.6</ele>
        <time>2024-08-13T13:20:23Z</time>
      </trkpt>
      <trkpt lat="44.84421" lon="6.12174">
        <ele>2229.6</ele>
        <time>2024-08-13T13:20:24Z</time>
      </trkpt>
      <trkpt lat="44.84421" lon="6.12174">
        <ele>2230</ele>
        <time>2024-08-13T13:20:25Z</time>
      </trkpt>
      <trkpt lat="44.84423" lon="6.12177">
        <ele>2230.4</ele>
        <time>2024-08-13T13:20:26Z</time>
      </trkpt>
      <trkpt lat="44.84423" lon="6.12177">
        <ele>2230.8</ele>
        <time>2024-08-13T13:20:27Z</time>
      </trkpt>
      <trkpt lat="44.84425" lon="6.12178">
        <ele>2231.4</ele>
        <time>2024-08-13T13:20:28Z</time>
      </trkpt>
      <trkpt lat="44.84425" lon="6.12178">
        <ele>2231.8</ele>
        <time>2024-08-13T13:20:29Z</time>
      </trkpt>
      <trkpt lat="44.84426" lon="6.12181">
        <ele>2232.2</ele>
        <time>2024-08-13T13:20:30Z</time>
      </trkpt>
      <trkpt lat="44.84426" lon="6.12181">
        <ele>2232.4</ele>
        <time>2024-08-13T13:20:31Z</time>
      </trkpt>
      <trkpt lat="44.84428" lon="6.12183">
        <ele>2232.6</ele>
        <time>2024-08-13T13:20:32Z</time>
      </trkpt>
      <trkpt lat="44.84428" lon="6.12183">
        <ele>2232.8</ele>
        <time>2024-08-13T13:20:33Z</time>
      </trkpt>
      <trkpt lat="44.84428" lon="6.12183">
        <ele>2232.8</ele>
        <time>2024-08-13T13:20:34Z</time>
      </trkpt>
      <trkpt lat="44.84429" lon="6.12185">
        <ele>2232.8</ele>
        <time>2024-08-13T13:20:35Z</time>
      </trkpt>
      <trkpt lat="44.84429" lon="6.12185">
        <ele>2233.2</ele>
        <time>2024-08-13T13:20:36Z</time>
      </trkpt>
      <trkpt lat="44.84432" lon="6.12186">
        <ele>2233.2</ele>
        <time>2024-08-13T13:20:37Z</time>
      </trkpt>
      <trkpt lat="44.84432" lon="6.12186">
        <ele>2233</ele>
        <time>2024-08-13T13:20:38Z</time>
      </trkpt>
      <trkpt lat="44.84432" lon="6.12186">
        <ele>2233</ele>
        <time>2024-08-13T13:20:39Z</time>
      </trkpt>
      <trkpt lat="44.84432" lon="6.12186">
        <ele>2233.2</ele>
        <time>2024-08-13T13:20:40Z</time>
      </trkpt>
      <trkpt lat="44.84431" lon="6.12183">
        <ele>2233.6</ele>
        <time>2024-08-13T13:20:41Z</time>
      </trkpt>
      <trkpt lat="44.84431" lon="6.12183">
        <ele>2233.6</ele>
        <time>2024-08-13T13:20:42Z</time>
      </trkpt>
      <trkpt lat="44.84431" lon="6.12183">
        <ele>2233</ele>
        <time>2024-08-13T13:20:43Z</time>
      </trkpt>
      <trkpt lat="44.84429" lon="6.1218">
        <ele>2233</ele>
        <time>2024-08-13T13:20:44Z</time>
      </trkpt>
      <trkpt lat="44.84429" lon="6.1218">
        <ele>2233.2</ele>
        <time>2024-08-13T13:20:45Z</time>
      </trkpt>
      <trkpt lat="44.84428" lon="6.12177">
        <ele>2233.4</ele>
        <time>2024-08-13T13:20:46Z</time>
      </trkpt>
      <trkpt lat="44.84428" lon="6.12177">
        <ele>2233.4</ele>
        <time>2024-08-13T13:20:47Z</time>
      </trkpt>
      <trkpt lat="44.84428" lon="6.12177">
        <ele>2233.8</ele>
        <time>2024-08-13T13:20:48Z</time>
      </trkpt>
      <trkpt lat="44.84427" lon="6.12174">
        <ele>2233.8</ele>
        <time>2024-08-13T13:20:49Z</time>
      </trkpt>
      <trkpt lat="44.84427" lon="6.12174">
        <ele>2234</ele>
        <time>2024-08-13T13:20:50Z</time>
      </trkpt>
      <trkpt lat="44.84425" lon="6.12172">
        <ele>2234.6</ele>
        <time>2024-08-13T13:20:51Z</time>
      </trkpt>
      <trkpt lat="44.84425" lon="6.12172">
        <ele>2234.8</ele>
        <time>2024-08-13T13:20:52Z</time>
      </trkpt>
      <trkpt lat="44.84425" lon="6.12172">
        <ele>2234.8</ele>
        <time>2024-08-13T13:20:53Z</time>
      </trkpt>
      <trkpt lat="44.84424" lon="6.12169">
        <ele>2234.8</ele>
        <time>2024-08-13T13:20:54Z</time>
      </trkpt>
      <trkpt lat="44.84424" lon="6.12169">
        <ele>2235</ele>
        <time>2024-08-13T13:20:55Z</time>
      </trkpt>
      <trkpt lat="44.84424" lon="6.12169">
        <ele>2235</ele>
        <time>2024-08-13T13:20:56Z</time>
      </trkpt>
      <trkpt lat="44.84422" lon="6.12166">
        <ele>2235</ele>
        <time>2024-08-13T13:20:57Z</time>
      </trkpt>
      <trkpt lat="44.84422" lon="6.12166">
        <ele>2235</ele>
        <time>2024-08-13T13:20:58Z</time>
      </trkpt>
      <trkpt lat="44.84422" lon="6.12166">
        <ele>2235</ele>
        <time>2024-08-13T13:20:59Z</time>
      </trkpt>
      <trkpt lat="44.84421" lon="6.12163">
        <ele>2234.8</ele>
        <time>2024-08-13T13:21:00Z</time>
      </trkpt>
      <trkpt lat="44.84421" lon="6.12163">
        <ele>2234.4</ele>
        <time>2024-08-13T13:21:01Z</time>
      </trkpt>
      <trkpt lat="44.84421" lon="6.12163">
        <ele>2234.6</ele>
        <time>2024-08-13T13:21:02Z</time>
      </trkpt>
      <trkpt lat="44.84422" lon="6.1216">
        <ele>2234.6</ele>
        <time>2024-08-13T13:21:03Z</time>
      </trkpt>
      <trkpt lat="44.84422" lon="6.1216">
        <ele>2234.8</ele>
        <time>2024-08-13T13:21:04Z</time>
      </trkpt>
      <trkpt lat="44.84422" lon="6.1216">
        <ele>2235</ele>
        <time>2024-08-13T13:21:05Z</time>
      </trkpt>
      <trkpt lat="44.84421" lon="6.12156">
        <ele>2235</ele>
        <time>2024-08-13T13:21:06Z</time>
      </trkpt>
      <trkpt lat="44.84421" lon="6.12156">
        <ele>2235</ele>
        <time>2024-08-13T13:21:07Z</time>
      </trkpt>
      <trkpt lat="44.84421" lon="6.12156">
        <ele>2235</ele>
        <time>2024-08-13T13:21:08Z</time>
      </trkpt>
      <trkpt lat="44.84421" lon="6.12152">
        <ele>2234.8</ele>
        <time>2024-08-13T13:21:09Z</time>
      </trkpt>
      <trkpt lat="44.84421" lon="6.12152">
        <ele>2234.6</ele>
        <time>2024-08-13T13:21:10Z</time>
      </trkpt>
      <trkpt lat="44.84421" lon="6.1215">
        <ele>2234.6</ele>
        <time>2024-08-13T13:21:11Z</time>
      </trkpt>
      <trkpt lat="44.84421" lon="6.1215">
        <ele>2234.6</ele>
        <time>2024-08-13T13:21:12Z</time>
      </trkpt>
      <trkpt lat="44.84421" lon="6.1215">
        <ele>2235.2</ele>
        <time>2024-08-13T13:21:13Z</time>
      </trkpt>
      <trkpt lat="44.84421" lon="6.1215">
        <ele>2235.2</ele>
        <time>2024-08-13T13:21:14Z</time>
      </trkpt>
      <trkpt lat="44.84421" lon="6.1215">
        <ele>2235.4</ele>
        <time>2024-08-13T13:21:15Z</time>
      </trkpt>
      <trkpt lat="44.8442" lon="6.12147">
        <ele>2235.8</ele>
        <time>2024-08-13T13:21:16Z</time>
      </trkpt>
      <trkpt lat="44.8442" lon="6.12147">
        <ele>2235.8</ele>
        <time>2024-08-13T13:21:17Z</time>
      </trkpt>
      <trkpt lat="44.8442" lon="6.12147">
        <ele>2235.8</ele>
        <time>2024-08-13T13:21:18Z</time>
      </trkpt>
      <trkpt lat="44.8442" lon="6.12147">
        <ele>2236</ele>
        <time>2024-08-13T13:21:19Z</time>
      </trkpt>
      <trkpt lat="44.8442" lon="6.12147">
        <ele>2236.2</ele>
        <time>2024-08-13T13:21:20Z</time>
      </trkpt>
      <trkpt lat="44.8442" lon="6.12144">
        <ele>2236.2</ele>
        <time>2024-08-13T13:21:21Z</time>
      </trkpt>
      <trkpt lat="44.8442" lon="6.12144">
        <ele>2236.4</ele>
        <time>2024-08-13T13:21:22Z</time>
      </trkpt>
      <trkpt lat="44.8442" lon="6.12144">
        <ele>2236.8</ele>
        <time>2024-08-13T13:21:23Z</time>
      </trkpt>
      <trkpt lat="44.84419" lon="6.1214">
        <ele>2236.8</ele>
        <time>2024-08-13T13:21:24Z</time>
      </trkpt>
      <trkpt lat="44.84419" lon="6.1214">
        <ele>2237</ele>
        <time>2024-08-13T13:21:25Z</time>
      </trkpt>
      <trkpt lat="44.84419" lon="6.12137">
        <ele>2237</ele>
        <time>2024-08-13T13:21:26Z</time>
      </trkpt>
      <trkpt lat="44.84419" lon="6.12137">
        <ele>2237</ele>
        <time>2024-08-13T13:21:27Z</time>
      </trkpt>
      <trkpt lat="44.84418" lon="6.12135">
        <ele>2237</ele>
        <time>2024-08-13T13:21:28Z</time>
      </trkpt>
      <trkpt lat="44.84418" lon="6.12135">
        <ele>2237</ele>
        <time>2024-08-13T13:21:29Z</time>
      </trkpt>
      <trkpt lat="44.84418" lon="6.12135">
        <ele>2237.4</ele>
        <time>2024-08-13T13:21:30Z</time>
      </trkpt>
      <trkpt lat="44.84417" lon="6.12132">
        <ele>2237.4</ele>
        <time>2024-08-13T13:21:31Z</time>
      </trkpt>
      <trkpt lat="44.84417" lon="6.12132">
        <ele>2237.4</ele>
        <time>2024-08-13T13:21:32Z</time>
      </trkpt>
      <trkpt lat="44.84417" lon="6.12132">
        <ele>2237.6</ele>
        <time>2024-08-13T13:21:33Z</time>
      </trkpt>
      <trkpt lat="44.84417" lon="6.12132">
        <ele>2237.8</ele>
        <time>2024-08-13T13:21:34Z</time>
      </trkpt>
      <trkpt lat="44.84416" lon="6.12129">
        <ele>2238.4</ele>
        <time>2024-08-13T13:21:35Z</time>
      </trkpt>
      <trkpt lat="44.84416" lon="6.12129">
        <ele>2238.8</ele>
        <time>2024-08-13T13:21:36Z</time>
      </trkpt>
      <trkpt lat="44.84415" lon="6.12127">
        <ele>2239.4</ele>
        <time>2024-08-13T13:21:37Z</time>
      </trkpt>
      <trkpt lat="44.84415" lon="6.12127">
        <ele>2239.6</ele>
        <time>2024-08-13T13:21:38Z</time>
      </trkpt>
      <trkpt lat="44.84415" lon="6.12127">
        <ele>2239.8</ele>
        <time>2024-08-13T13:21:39Z</time>
      </trkpt>
      <trkpt lat="44.84413" lon="6.12125">
        <ele>2240.2</ele>
        <time>2024-08-13T13:21:40Z</time>
      </trkpt>
      <trkpt lat="44.84413" lon="6.12125">
        <ele>2240.2</ele>
        <time>2024-08-13T13:21:41Z</time>
      </trkpt>
      <trkpt lat="44.84413" lon="6.12125">
        <ele>2240.2</ele>
        <time>2024-08-13T13:21:42Z</time>
      </trkpt>
      <trkpt lat="44.84411" lon="6.12123">
        <ele>2239.8</ele>
        <time>2024-08-13T13:21:43Z</time>
      </trkpt>
      <trkpt lat="44.84411" lon="6.12123">
        <ele>2239.8</ele>
        <time>2024-08-13T13:21:44Z</time>
      </trkpt>
      <trkpt lat="44.84411" lon="6.12123">
        <ele>2239.8</ele>
        <time>2024-08-13T13:21:45Z</time>
      </trkpt>
      <trkpt lat="44.84409" lon="6.12122">
        <ele>2239.8</ele>
        <time>2024-08-13T13:21:46Z</time>
      </trkpt>
      <trkpt lat="44.84409" lon="6.12122">
        <ele>2239.8</ele>
        <time>2024-08-13T13:21:47Z</time>
      </trkpt>
      <trkpt lat="44.84409" lon="6.12122">
        <ele>2239.6</ele>
        <time>2024-08-13T13:21:48Z</time>
      </trkpt>
      <trkpt lat="44.84407" lon="6.12122">
        <ele>2239.6</ele>
        <time>2024-08-13T13:21:49Z</time>
      </trkpt>
      <trkpt lat="44.84407" lon="6.12122">
        <ele>2239.6</ele>
        <time>2024-08-13T13:21:50Z</time>
      </trkpt>
      <trkpt lat="44.84407" lon="6.12122">
        <ele>2239.6</ele>
        <time>2024-08-13T13:21:51Z</time>
      </trkpt>
      <trkpt lat="44.84405" lon="6.12121">
        <ele>2239.6</ele>
        <time>2024-08-13T13:21:52Z</time>
      </trkpt>
      <trkpt lat="44.84405" lon="6.12121">
        <ele>2239.8</ele>
        <time>2024-08-13T13:21:53Z</time>
      </trkpt>
      <trkpt lat="44.84404" lon="6.12121">
        <ele>2240</ele>
        <time>2024-08-13T13:21:54Z</time>
      </trkpt>
      <trkpt lat="44.84404" lon="6.12121">
        <ele>2240.2</ele>
        <time>2024-08-13T13:21:55Z</time>
      </trkpt>
      <trkpt lat="44.84404" lon="6.12121">
        <ele>2240.2</ele>
        <time>2024-08-13T13:21:56Z</time>
      </trkpt>
      <trkpt lat="44.84401" lon="6.12122">
        <ele>2240.6</ele>
        <time>2024-08-13T13:21:57Z</time>
      </trkpt>
      <trkpt lat="44.84401" lon="6.12122">
        <ele>2240.6</ele>
        <time>2024-08-13T13:21:58Z</time>
      </trkpt>
      <trkpt lat="44.84401" lon="6.12122">
        <ele>2240.6</ele>
        <time>2024-08-13T13:21:59Z</time>
      </trkpt>
      <trkpt lat="44.84399" lon="6.12122">
        <ele>2240.8</ele>
        <time>2024-08-13T13:22:00Z</time>
      </trkpt>
      <trkpt lat="44.84399" lon="6.12122">
        <ele>2240.8</ele>
        <time>2024-08-13T13:22:01Z</time>
      </trkpt>
      <trkpt lat="44.84399" lon="6.12122">
        <ele>2240.8</ele>
        <time>2024-08-13T13:22:02Z</time>
      </trkpt>
      <trkpt lat="44.84397" lon="6.12122">
        <ele>2240.8</ele>
        <time>2024-08-13T13:22:03Z</time>
      </trkpt>
      <trkpt lat="44.84397" lon="6.12122">
        <ele>2240.8</ele>
        <time>2024-08-13T13:22:04Z</time>
      </trkpt>
      <trkpt lat="44.84397" lon="6.12122">
        <ele>2240.8</ele>
        <time>2024-08-13T13:22:05Z</time>
      </trkpt>
      <trkpt lat="44.84394" lon="6.12123">
        <ele>2240.8</ele>
        <time>2024-08-13T13:22:06Z</time>
      </trkpt>
      <trkpt lat="44.84394" lon="6.12123">
        <ele>2240.8</ele>
        <time>2024-08-13T13:22:07Z</time>
      </trkpt>
      <trkpt lat="44.84392" lon="6.12124">
        <ele>2240.8</ele>
        <time>2024-08-13T13:22:08Z</time>
      </trkpt>
      <trkpt lat="44.84392" lon="6.12124">
        <ele>2240.6</ele>
        <time>2024-08-13T13:22:09Z</time>
      </trkpt>
      <trkpt lat="44.84389" lon="6.12124">
        <ele>2240.6</ele>
        <time>2024-08-13T13:22:10Z</time>
      </trkpt>
      <trkpt lat="44.84389" lon="6.12124">
        <ele>2240.4</ele>
        <time>2024-08-13T13:22:11Z</time>
      </trkpt>
      <trkpt lat="44.84388" lon="6.12126">
        <ele>2240.4</ele>
        <time>2024-08-13T13:22:12Z</time>
      </trkpt>
      <trkpt lat="44.84388" lon="6.12126">
        <ele>2240.6</ele>
        <time>2024-08-13T13:22:13Z</time>
      </trkpt>
      <trkpt lat="44.84386" lon="6.12126">
        <ele>2240.8</ele>
        <time>2024-08-13T13:22:14Z</time>
      </trkpt>
      <trkpt lat="44.84386" lon="6.12126">
        <ele>2241.4</ele>
        <time>2024-08-13T13:22:15Z</time>
      </trkpt>
      <trkpt lat="44.84386" lon="6.12126">
        <ele>2241.8</ele>
        <time>2024-08-13T13:22:16Z</time>
      </trkpt>
      <trkpt lat="44.84383" lon="6.12127">
        <ele>2242.4</ele>
        <time>2024-08-13T13:22:17Z</time>
      </trkpt>
      <trkpt lat="44.84383" lon="6.12127">
        <ele>2243</ele>
        <time>2024-08-13T13:22:18Z</time>
      </trkpt>
      <trkpt lat="44.84383" lon="6.12127">
        <ele>2243.4</ele>
        <time>2024-08-13T13:22:19Z</time>
      </trkpt>
      <trkpt lat="44.84381" lon="6.12128">
        <ele>2243.8</ele>
        <time>2024-08-13T13:22:20Z</time>
      </trkpt>
      <trkpt lat="44.84381" lon="6.12128">
        <ele>2243.8</ele>
        <time>2024-08-13T13:22:21Z</time>
      </trkpt>
      <trkpt lat="44.84379" lon="6.12129">
        <ele>2243.2</ele>
        <time>2024-08-13T13:22:22Z</time>
      </trkpt>
      <trkpt lat="44.84379" lon="6.12129">
        <ele>2243.2</ele>
        <time>2024-08-13T13:22:23Z</time>
      </trkpt>
      <trkpt lat="44.84378" lon="6.12131">
        <ele>2243.2</ele>
        <time>2024-08-13T13:22:24Z</time>
      </trkpt>
      <trkpt lat="44.84378" lon="6.12131">
        <ele>2243.8</ele>
        <time>2024-08-13T13:22:25Z</time>
      </trkpt>
      <trkpt lat="44.84376" lon="6.12132">
        <ele>2243.8</ele>
        <time>2024-08-13T13:22:26Z</time>
      </trkpt>
      <trkpt lat="44.84376" lon="6.12132">
        <ele>2243.8</ele>
        <time>2024-08-13T13:22:27Z</time>
      </trkpt>
      <trkpt lat="44.84374" lon="6.12134">
        <ele>2243.8</ele>
        <time>2024-08-13T13:22:28Z</time>
      </trkpt>
      <trkpt lat="44.84374" lon="6.12134">
        <ele>2244.2</ele>
        <time>2024-08-13T13:22:29Z</time>
      </trkpt>
      <trkpt lat="44.84374" lon="6.12134">
        <ele>2244.4</ele>
        <time>2024-08-13T13:22:30Z</time>
      </trkpt>
      <trkpt lat="44.84372" lon="6.12136">
        <ele>2244.4</ele>
        <time>2024-08-13T13:22:31Z</time>
      </trkpt>
      <trkpt lat="44.84372" lon="6.12136">
        <ele>2244.4</ele>
        <time>2024-08-13T13:22:32Z</time>
      </trkpt>
      <trkpt lat="44.8437" lon="6.12138">
        <ele>2244.4</ele>
        <time>2024-08-13T13:22:33Z</time>
      </trkpt>
      <trkpt lat="44.8437" lon="6.12138">
        <ele>2244.6</ele>
        <time>2024-08-13T13:22:34Z</time>
      </trkpt>
      <trkpt lat="44.84369" lon="6.1214">
        <ele>2244.6</ele>
        <time>2024-08-13T13:22:35Z</time>
      </trkpt>
      <trkpt lat="44.84369" lon="6.1214">
        <ele>2244.8</ele>
        <time>2024-08-13T13:22:36Z</time>
      </trkpt>
      <trkpt lat="44.84367" lon="6.12142">
        <ele>2244.8</ele>
        <time>2024-08-13T13:22:37Z</time>
      </trkpt>
      <trkpt lat="44.84367" lon="6.12142">
        <ele>2244.8</ele>
        <time>2024-08-13T13:22:38Z</time>
      </trkpt>
      <trkpt lat="44.84365" lon="6.12143">
        <ele>2244.6</ele>
        <time>2024-08-13T13:22:39Z</time>
      </trkpt>
      <trkpt lat="44.84365" lon="6.12143">
        <ele>2244.8</ele>
        <time>2024-08-13T13:22:40Z</time>
      </trkpt>
      <trkpt lat="44.84363" lon="6.12145">
        <ele>2245</ele>
        <time>2024-08-13T13:22:41Z</time>
      </trkpt>
      <trkpt lat="44.84363" lon="6.12145">
        <ele>2245.6</ele>
        <time>2024-08-13T13:22:42Z</time>
      </trkpt>
      <trkpt lat="44.84362" lon="6.12147">
        <ele>2246.6</ele>
        <time>2024-08-13T13:22:43Z</time>
      </trkpt>
      <trkpt lat="44.84362" lon="6.12147">
        <ele>2247.2</ele>
        <time>2024-08-13T13:22:44Z</time>
      </trkpt>
      <trkpt lat="44.84362" lon="6.12147">
        <ele>2247.8</ele>
        <time>2024-08-13T13:22:45Z</time>
      </trkpt>
      <trkpt lat="44.8436" lon="6.12149">
        <ele>2248.2</ele>
        <time>2024-08-13T13:22:46Z</time>
      </trkpt>
      <trkpt lat="44.8436" lon="6.12149">
        <ele>2248.8</ele>
        <time>2024-08-13T13:22:47Z</time>
      </trkpt>
      <trkpt lat="44.8436" lon="6.12149">
        <ele>2249</ele>
        <time>2024-08-13T13:22:48Z</time>
      </trkpt>
      <trkpt lat="44.84358" lon="6.1215">
        <ele>2249</ele>
        <time>2024-08-13T13:22:49Z</time>
      </trkpt>
      <trkpt lat="44.84358" lon="6.1215">
        <ele>2249</ele>
        <time>2024-08-13T13:22:50Z</time>
      </trkpt>
      <trkpt lat="44.84356" lon="6.12151">
        <ele>2249.2</ele>
        <time>2024-08-13T13:22:51Z</time>
      </trkpt>
      <trkpt lat="44.84356" lon="6.12151">
        <ele>2249.2</ele>
        <time>2024-08-13T13:22:52Z</time>
      </trkpt>
      <trkpt lat="44.84354" lon="6.12153">
        <ele>2249.2</ele>
        <time>2024-08-13T13:22:53Z</time>
      </trkpt>
      <trkpt lat="44.84354" lon="6.12153">
        <ele>2249.2</ele>
        <time>2024-08-13T13:22:54Z</time>
      </trkpt>
      <trkpt lat="44.84354" lon="6.12153">
        <ele>2249.4</ele>
        <time>2024-08-13T13:22:55Z</time>
      </trkpt>
      <trkpt lat="44.84354" lon="6.12153">
        <ele>2249.6</ele>
        <time>2024-08-13T13:22:56Z</time>
      </trkpt>
      <trkpt lat="44.84352" lon="6.12154">
        <ele>2249.8</ele>
        <time>2024-08-13T13:22:57Z</time>
      </trkpt>
      <trkpt lat="44.84352" lon="6.12154">
        <ele>2249.8</ele>
        <time>2024-08-13T13:22:58Z</time>
      </trkpt>
      <trkpt lat="44.84352" lon="6.12154">
        <ele>2249.8</ele>
        <time>2024-08-13T13:22:59Z</time>
      </trkpt>
      <trkpt lat="44.84349" lon="6.12155">
        <ele>2249.8</ele>
        <time>2024-08-13T13:23:00Z</time>
      </trkpt>
      <trkpt lat="44.84349" lon="6.12155">
        <ele>2249.8</ele>
        <time>2024-08-13T13:23:01Z</time>
      </trkpt>
      <trkpt lat="44.84349" lon="6.12155">
        <ele>2250.4</ele>
        <time>2024-08-13T13:23:02Z</time>
      </trkpt>
      <trkpt lat="44.84349" lon="6.12152">
        <ele>2250.4</ele>
        <time>2024-08-13T13:23:03Z</time>
      </trkpt>
      <trkpt lat="44.84349" lon="6.12152">
        <ele>2251</ele>
        <time>2024-08-13T13:23:04Z</time>
      </trkpt>
      <trkpt lat="44.84351" lon="6.12149">
        <ele>2251.2</ele>
        <time>2024-08-13T13:23:05Z</time>
      </trkpt>
      <trkpt lat="44.84351" lon="6.12149">
        <ele>2251.4</ele>
        <time>2024-08-13T13:23:06Z</time>
      </trkpt>
      <trkpt lat="44.84353" lon="6.12146">
        <ele>2251.8</ele>
        <time>2024-08-13T13:23:07Z</time>
      </trkpt>
      <trkpt lat="44.84353" lon="6.12146">
        <ele>2252</ele>
        <time>2024-08-13T13:23:08Z</time>
      </trkpt>
      <trkpt lat="44.84353" lon="6.12146">
        <ele>2252.2</ele>
        <time>2024-08-13T13:23:09Z</time>
      </trkpt>
      <trkpt lat="44.84355" lon="6.12144">
        <ele>2252.4</ele>
        <time>2024-08-13T13:23:10Z</time>
      </trkpt>
      <trkpt lat="44.84355" lon="6.12144">
        <ele>2252.4</ele>
        <time>2024-08-13T13:23:11Z</time>
      </trkpt>
      <trkpt lat="44.84355" lon="6.12144">
        <ele>2252.6</ele>
        <time>2024-08-13T13:23:12Z</time>
      </trkpt>
      <trkpt lat="44.84356" lon="6.12141">
        <ele>2253</ele>
        <time>2024-08-13T13:23:13Z</time>
      </trkpt>
      <trkpt lat="44.84356" lon="6.12141">
        <ele>2253</ele>
        <time>2024-08-13T13:23:14Z</time>
      </trkpt>
      <trkpt lat="44.84357" lon="6.12139">
        <ele>2253.4</ele>
        <time>2024-08-13T13:23:15Z</time>
      </trkpt>
      <trkpt lat="44.84357" lon="6.12139">
        <ele>2253.6</ele>
        <time>2024-08-13T13:23:16Z</time>
      </trkpt>
      <trkpt lat="44.8436" lon="6.12136">
        <ele>2253.8</ele>
        <time>2024-08-13T13:23:17Z</time>
      </trkpt>
      <trkpt lat="44.8436" lon="6.12136">
        <ele>2254</ele>
        <time>2024-08-13T13:23:18Z</time>
      </trkpt>
      <trkpt lat="44.84362" lon="6.12133">
        <ele>2254.2</ele>
        <time>2024-08-13T13:23:19Z</time>
      </trkpt>
      <trkpt lat="44.84362" lon="6.12133">
        <ele>2254.2</ele>
        <time>2024-08-13T13:23:20Z</time>
      </trkpt>
      <trkpt lat="44.84363" lon="6.1213">
        <ele>2254.4</ele>
        <time>2024-08-13T13:23:21Z</time>
      </trkpt>
      <trkpt lat="44.84363" lon="6.1213">
        <ele>2254.8</ele>
        <time>2024-08-13T13:23:22Z</time>
      </trkpt>
      <trkpt lat="44.84364" lon="6.12128">
        <ele>2254.8</ele>
        <time>2024-08-13T13:23:23Z</time>
      </trkpt>
      <trkpt lat="44.84364" lon="6.12128">
        <ele>2255</ele>
        <time>2024-08-13T13:23:24Z</time>
      </trkpt>
      <trkpt lat="44.84365" lon="6.12125">
        <ele>2255</ele>
        <time>2024-08-13T13:23:25Z</time>
      </trkpt>
      <trkpt lat="44.84365" lon="6.12125">
        <ele>2255</ele>
        <time>2024-08-13T13:23:26Z</time>
      </trkpt>
      <trkpt lat="44.84365" lon="6.12125">
        <ele>2255</ele>
        <time>2024-08-13T13:23:27Z</time>
      </trkpt>
      <trkpt lat="44.84366" lon="6.12123">
        <ele>2255.2</ele>
        <time>2024-08-13T13:23:28Z</time>
      </trkpt>
      <trkpt lat="44.84366" lon="6.12123">
        <ele>2255.2</ele>
        <time>2024-08-13T13:23:29Z</time>
      </trkpt>
      <trkpt lat="44.84367" lon="6.1212">
        <ele>2255.6</ele>
        <time>2024-08-13T13:23:30Z</time>
      </trkpt>
      <trkpt lat="44.84367" lon="6.1212">
        <ele>2255.8</ele>
        <time>2024-08-13T13:23:31Z</time>
      </trkpt>
      <trkpt lat="44.84369" lon="6.12118">
        <ele>2255.8</ele>
        <time>2024-08-13T13:23:32Z</time>
      </trkpt>
      <trkpt lat="44.84369" lon="6.12118">
        <ele>2255.8</ele>
        <time>2024-08-13T13:23:33Z</time>
      </trkpt>
      <trkpt lat="44.84369" lon="6.12118">
        <ele>2255.8</ele>
        <time>2024-08-13T13:23:34Z</time>
      </trkpt>
      <trkpt lat="44.8437" lon="6.12115">
        <ele>2256</ele>
        <time>2024-08-13T13:23:35Z</time>
      </trkpt>
      <trkpt lat="44.8437" lon="6.12115">
        <ele>2256.4</ele>
        <time>2024-08-13T13:23:36Z</time>
      </trkpt>
      <trkpt lat="44.8437" lon="6.12112">
        <ele>2256.4</ele>
        <time>2024-08-13T13:23:37Z</time>
      </trkpt>
      <trkpt lat="44.8437" lon="6.12112">
        <ele>2256.4</ele>
        <time>2024-08-13T13:23:38Z</time>
      </trkpt>
      <trkpt lat="44.84371" lon="6.1211">
        <ele>2256.4</ele>
        <time>2024-08-13T13:23:39Z</time>
      </trkpt>
      <trkpt lat="44.84371" lon="6.1211">
        <ele>2256.4</ele>
        <time>2024-08-13T13:23:40Z</time>
      </trkpt>
      <trkpt lat="44.84371" lon="6.12107">
        <ele>2256.6</ele>
        <time>2024-08-13T13:23:41Z</time>
      </trkpt>
      <trkpt lat="44.84371" lon="6.12107">
        <ele>2257</ele>
        <time>2024-08-13T13:23:42Z</time>
      </trkpt>
      <trkpt lat="44.84371" lon="6.12107">
        <ele>2257</ele>
        <time>2024-08-13T13:23:43Z</time>
      </trkpt>
      <trkpt lat="44.84373" lon="6.12105">
        <ele>2257.2</ele>
        <time>2024-08-13T13:23:44Z</time>
      </trkpt>
      <trkpt lat="44.84373" lon="6.12105">
        <ele>2257.2</ele>
        <time>2024-08-13T13:23:45Z</time>
      </trkpt>
      <trkpt lat="44.84373" lon="6.12105">
        <ele>2257.2</ele>
        <time>2024-08-13T13:23:46Z</time>
      </trkpt>
      <trkpt lat="44.84374" lon="6.12101">
        <ele>2257.2</ele>
        <time>2024-08-13T13:23:47Z</time>
      </trkpt>
      <trkpt lat="44.84374" lon="6.12101">
        <ele>2257.6</ele>
        <time>2024-08-13T13:23:48Z</time>
      </trkpt>
      <trkpt lat="44.84374" lon="6.12101">
        <ele>2257.8</ele>
        <time>2024-08-13T13:23:49Z</time>
      </trkpt>
      <trkpt lat="44.84375" lon="6.12098">
        <ele>2258.2</ele>
        <time>2024-08-13T13:23:50Z</time>
      </trkpt>
      <trkpt lat="44.84375" lon="6.12098">
        <ele>2257.8</ele>
        <time>2024-08-13T13:23:51Z</time>
      </trkpt>
      <trkpt lat="44.84377" lon="6.12096">
        <ele>2258.2</ele>
        <time>2024-08-13T13:23:52Z</time>
      </trkpt>
      <trkpt lat="44.84377" lon="6.12096">
        <ele>2258.2</ele>
        <time>2024-08-13T13:23:53Z</time>
      </trkpt>
      <trkpt lat="44.84377" lon="6.12096">
        <ele>2258.6</ele>
        <time>2024-08-13T13:23:54Z</time>
      </trkpt>
      <trkpt lat="44.84379" lon="6.12094">
        <ele>2258.8</ele>
        <time>2024-08-13T13:23:55Z</time>
      </trkpt>
      <trkpt lat="44.84379" lon="6.12094">
        <ele>2258.8</ele>
        <time>2024-08-13T13:23:56Z</time>
      </trkpt>
      <trkpt lat="44.84381" lon="6.12091">
        <ele>2258.6</ele>
        <time>2024-08-13T13:23:57Z</time>
      </trkpt>
      <trkpt lat="44.84381" lon="6.12091">
        <ele>2258.6</ele>
        <time>2024-08-13T13:23:58Z</time>
      </trkpt>
      <trkpt lat="44.84381" lon="6.12091">
        <ele>2258.6</ele>
        <time>2024-08-13T13:23:59Z</time>
      </trkpt>
      <trkpt lat="44.84382" lon="6.12089">
        <ele>2258.8</ele>
        <time>2024-08-13T13:24:00Z</time>
      </trkpt>
      <trkpt lat="44.84382" lon="6.12089">
        <ele>2259</ele>
        <time>2024-08-13T13:24:01Z</time>
      </trkpt>
      <trkpt lat="44.84384" lon="6.12088">
        <ele>2259.2</ele>
        <time>2024-08-13T13:24:02Z</time>
      </trkpt>
      <trkpt lat="44.84384" lon="6.12088">
        <ele>2259.2</ele>
        <time>2024-08-13T13:24:03Z</time>
      </trkpt>
      <trkpt lat="44.84386" lon="6.12086">
        <ele>2259.2</ele>
        <time>2024-08-13T13:24:04Z</time>
      </trkpt>
      <trkpt lat="44.84386" lon="6.12086">
        <ele>2259.2</ele>
        <time>2024-08-13T13:24:05Z</time>
      </trkpt>
      <trkpt lat="44.84387" lon="6.12084">
        <ele>2259</ele>
        <time>2024-08-13T13:24:06Z</time>
      </trkpt>
      <trkpt lat="44.84387" lon="6.12084">
        <ele>2259</ele>
        <time>2024-08-13T13:24:07Z</time>
      </trkpt>
      <trkpt lat="44.84389" lon="6.12082">
        <ele>2259</ele>
        <time>2024-08-13T13:24:08Z</time>
      </trkpt>
      <trkpt lat="44.84389" lon="6.12082">
        <ele>2259</ele>
        <time>2024-08-13T13:24:09Z</time>
      </trkpt>
      <trkpt lat="44.84391" lon="6.1208">
        <ele>2259.2</ele>
        <time>2024-08-13T13:24:10Z</time>
      </trkpt>
      <trkpt lat="44.84391" lon="6.1208">
        <ele>2259.2</ele>
        <time>2024-08-13T13:24:11Z</time>
      </trkpt>
      <trkpt lat="44.84393" lon="6.12078">
        <ele>2259.2</ele>
        <time>2024-08-13T13:24:12Z</time>
      </trkpt>
      <trkpt lat="44.84393" lon="6.12078">
        <ele>2259.4</ele>
        <time>2024-08-13T13:24:13Z</time>
      </trkpt>
      <trkpt lat="44.84395" lon="6.12077">
        <ele>2259.4</ele>
        <time>2024-08-13T13:24:14Z</time>
      </trkpt>
      <trkpt lat="44.84395" lon="6.12077">
        <ele>2259.4</ele>
        <time>2024-08-13T13:24:15Z</time>
      </trkpt>
      <trkpt lat="44.84395" lon="6.12077">
        <ele>2259.6</ele>
        <time>2024-08-13T13:24:16Z</time>
      </trkpt>
      <trkpt lat="44.84396" lon="6.12075">
        <ele>2259.8</ele>
        <time>2024-08-13T13:24:17Z</time>
      </trkpt>
      <trkpt lat="44.84396" lon="6.12075">
        <ele>2259.8</ele>
        <time>2024-08-13T13:24:18Z</time>
      </trkpt>
      <trkpt lat="44.84396" lon="6.12075">
        <ele>2260</ele>
        <time>2024-08-13T13:24:19Z</time>
      </trkpt>
      <trkpt lat="44.84397" lon="6.12072">
        <ele>2260</ele>
        <time>2024-08-13T13:24:20Z</time>
      </trkpt>
      <trkpt lat="44.84397" lon="6.12072">
        <ele>2260</ele>
        <time>2024-08-13T13:24:21Z</time>
      </trkpt>
      <trkpt lat="44.84397" lon="6.12072">
        <ele>2260</ele>
        <time>2024-08-13T13:24:22Z</time>
      </trkpt>
      <trkpt lat="44.84398" lon="6.1207">
        <ele>2260.4</ele>
        <time>2024-08-13T13:24:23Z</time>
      </trkpt>
      <trkpt lat="44.84398" lon="6.1207">
        <ele>2260.4</ele>
        <time>2024-08-13T13:24:24Z</time>
      </trkpt>
      <trkpt lat="44.84398" lon="6.1207">
        <ele>2260.4</ele>
        <time>2024-08-13T13:24:25Z</time>
      </trkpt>
      <trkpt lat="44.84399" lon="6.12067">
        <ele>2261</ele>
        <time>2024-08-13T13:24:26Z</time>
      </trkpt>
      <trkpt lat="44.84399" lon="6.12067">
        <ele>2261</ele>
        <time>2024-08-13T13:24:27Z</time>
      </trkpt>
      <trkpt lat="44.84399" lon="6.12067">
        <ele>2261</ele>
        <time>2024-08-13T13:24:28Z</time>
      </trkpt>
      <trkpt lat="44.84401" lon="6.12064">
        <ele>2261</ele>
        <time>2024-08-13T13:24:29Z</time>
      </trkpt>
      <trkpt lat="44.84401" lon="6.12064">
        <ele>2261</ele>
        <time>2024-08-13T13:24:30Z</time>
      </trkpt>
      <trkpt lat="44.84402" lon="6.12061">
        <ele>2261</ele>
        <time>2024-08-13T13:24:31Z</time>
      </trkpt>
      <trkpt lat="44.84402" lon="6.12061">
        <ele>2261</ele>
        <time>2024-08-13T13:24:32Z</time>
      </trkpt>
      <trkpt lat="44.84403" lon="6.12059">
        <ele>2261.2</ele>
        <time>2024-08-13T13:24:33Z</time>
      </trkpt>
      <trkpt lat="44.84403" lon="6.12059">
        <ele>2261.2</ele>
        <time>2024-08-13T13:24:34Z</time>
      </trkpt>
      <trkpt lat="44.84403" lon="6.12059">
        <ele>2261.2</ele>
        <time>2024-08-13T13:24:35Z</time>
      </trkpt>
      <trkpt lat="44.84405" lon="6.12057">
        <ele>2261.2</ele>
        <time>2024-08-13T13:24:36Z</time>
      </trkpt>
      <trkpt lat="44.84405" lon="6.12057">
        <ele>2261.2</ele>
        <time>2024-08-13T13:24:37Z</time>
      </trkpt>
      <trkpt lat="44.84406" lon="6.12055">
        <ele>2261.4</ele>
        <time>2024-08-13T13:24:38Z</time>
      </trkpt>
      <trkpt lat="44.84406" lon="6.12055">
        <ele>2261.6</ele>
        <time>2024-08-13T13:24:39Z</time>
      </trkpt>
      <trkpt lat="44.84406" lon="6.12055">
        <ele>2261.8</ele>
        <time>2024-08-13T13:24:40Z</time>
      </trkpt>
      <trkpt lat="44.84409" lon="6.12054">
        <ele>2261.6</ele>
        <time>2024-08-13T13:24:41Z</time>
      </trkpt>
      <trkpt lat="44.84409" lon="6.12054">
        <ele>2261.6</ele>
        <time>2024-08-13T13:24:42Z</time>
      </trkpt>
      <trkpt lat="44.84411" lon="6.12052">
        <ele>2262</ele>
        <time>2024-08-13T13:24:43Z</time>
      </trkpt>
      <trkpt lat="44.84411" lon="6.12052">
        <ele>2262</ele>
        <time>2024-08-13T13:24:44Z</time>
      </trkpt>
      <trkpt lat="44.84411" lon="6.12052">
        <ele>2262</ele>
        <time>2024-08-13T13:24:45Z</time>
      </trkpt>
      <trkpt lat="44.84413" lon="6.1205">
        <ele>2262</ele>
        <time>2024-08-13T13:24:46Z</time>
      </trkpt>
      <trkpt lat="44.84413" lon="6.1205">
        <ele>2262.2</ele>
        <time>2024-08-13T13:24:47Z</time>
      </trkpt>
      <trkpt lat="44.84413" lon="6.1205">
        <ele>2262.4</ele>
        <time>2024-08-13T13:24:48Z</time>
      </trkpt>
      <trkpt lat="44.84415" lon="6.12048">
        <ele>2262.6</ele>
        <time>2024-08-13T13:24:49Z</time>
      </trkpt>
      <trkpt lat="44.84415" lon="6.12048">
        <ele>2262.8</ele>
        <time>2024-08-13T13:24:50Z</time>
      </trkpt>
      <trkpt lat="44.84416" lon="6.12047">
        <ele>2262.8</ele>
        <time>2024-08-13T13:24:51Z</time>
      </trkpt>
      <trkpt lat="44.84416" lon="6.12047">
        <ele>2262.8</ele>
        <time>2024-08-13T13:24:52Z</time>
      </trkpt>
      <trkpt lat="44.84418" lon="6.12047">
        <ele>2262.8</ele>
        <time>2024-08-13T13:24:53Z</time>
      </trkpt>
      <trkpt lat="44.84418" lon="6.12047">
        <ele>2262.8</ele>
        <time>2024-08-13T13:24:54Z</time>
      </trkpt>
      <trkpt lat="44.8442" lon="6.12048">
        <ele>2262.8</ele>
        <time>2024-08-13T13:24:55Z</time>
      </trkpt>
      <trkpt lat="44.8442" lon="6.12048">
        <ele>2263</ele>
        <time>2024-08-13T13:24:56Z</time>
      </trkpt>
      <trkpt lat="44.8442" lon="6.12048">
        <ele>2263</ele>
        <time>2024-08-13T13:24:57Z</time>
      </trkpt>
      <trkpt lat="44.8442" lon="6.12048">
        <ele>2263</ele>
        <time>2024-08-13T13:24:58Z</time>
      </trkpt>
      <trkpt lat="44.84422" lon="6.12046">
        <ele>2263.4</ele>
        <time>2024-08-13T13:24:59Z</time>
      </trkpt>
      <trkpt lat="44.84422" lon="6.12046">
        <ele>2263.6</ele>
        <time>2024-08-13T13:25:00Z</time>
      </trkpt>
      <trkpt lat="44.84422" lon="6.12046">
        <ele>2263.6</ele>
        <time>2024-08-13T13:25:01Z</time>
      </trkpt>
      <trkpt lat="44.84422" lon="6.12046">
        <ele>2263.6</ele>
        <time>2024-08-13T13:25:02Z</time>
      </trkpt>
      <trkpt lat="44.84424" lon="6.12046">
        <ele>2263.6</ele>
        <time>2024-08-13T13:25:03Z</time>
      </trkpt>
      <trkpt lat="44.84424" lon="6.12046">
        <ele>2264</ele>
        <time>2024-08-13T13:25:04Z</time>
      </trkpt>
      <trkpt lat="44.84424" lon="6.12046">
        <ele>2264.4</ele>
        <time>2024-08-13T13:25:05Z</time>
      </trkpt>
      <trkpt lat="44.84426" lon="6.12045">
        <ele>2264.8</ele>
        <time>2024-08-13T13:25:06Z</time>
      </trkpt>
      <trkpt lat="44.84426" lon="6.12045">
        <ele>2265.4</ele>
        <time>2024-08-13T13:25:07Z</time>
      </trkpt>
      <trkpt lat="44.84426" lon="6.12045">
        <ele>2265.4</ele>
        <time>2024-08-13T13:25:08Z</time>
      </trkpt>
      <trkpt lat="44.84428" lon="6.12045">
        <ele>2265.4</ele>
        <time>2024-08-13T13:25:09Z</time>
      </trkpt>
      <trkpt lat="44.84428" lon="6.12045">
        <ele>2265.4</ele>
        <time>2024-08-13T13:25:10Z</time>
      </trkpt>
      <trkpt lat="44.84428" lon="6.12045">
        <ele>2265.6</ele>
        <time>2024-08-13T13:25:11Z</time>
      </trkpt>
      <trkpt lat="44.8443" lon="6.12045">
        <ele>2265.8</ele>
        <time>2024-08-13T13:25:12Z</time>
      </trkpt>
      <trkpt lat="44.8443" lon="6.12045">
        <ele>2265.8</ele>
        <time>2024-08-13T13:25:13Z</time>
      </trkpt>
      <trkpt lat="44.8443" lon="6.12045">
        <ele>2266.4</ele>
        <time>2024-08-13T13:25:14Z</time>
      </trkpt>
      <trkpt lat="44.84432" lon="6.12046">
        <ele>2266.4</ele>
        <time>2024-08-13T13:25:15Z</time>
      </trkpt>
      <trkpt lat="44.84432" lon="6.12046">
        <ele>2266.6</ele>
        <time>2024-08-13T13:25:16Z</time>
      </trkpt>
      <trkpt lat="44.84432" lon="6.12046">
        <ele>2266.6</ele>
        <time>2024-08-13T13:25:17Z</time>
      </trkpt>
      <trkpt lat="44.84435" lon="6.12046">
        <ele>2266.6</ele>
        <time>2024-08-13T13:25:18Z</time>
      </trkpt>
      <trkpt lat="44.84435" lon="6.12046">
        <ele>2266.6</ele>
        <time>2024-08-13T13:25:19Z</time>
      </trkpt>
      <trkpt lat="44.84435" lon="6.12046">
        <ele>2267.2</ele>
        <time>2024-08-13T13:25:20Z</time>
      </trkpt>
      <trkpt lat="44.84437" lon="6.12048">
        <ele>2267.4</ele>
        <time>2024-08-13T13:25:21Z</time>
      </trkpt>
      <trkpt lat="44.84437" lon="6.12048">
        <ele>2267.4</ele>
        <time>2024-08-13T13:25:22Z</time>
      </trkpt>
      <trkpt lat="44.84437" lon="6.12048">
        <ele>2267.4</ele>
        <time>2024-08-13T13:25:23Z</time>
      </trkpt>
      <trkpt lat="44.8444" lon="6.12048">
        <ele>2267.4</ele>
        <time>2024-08-13T13:25:24Z</time>
      </trkpt>
      <trkpt lat="44.8444" lon="6.12048">
        <ele>2267.4</ele>
        <time>2024-08-13T13:25:25Z</time>
      </trkpt>
      <trkpt lat="44.84442" lon="6.12049">
        <ele>2267.4</ele>
        <time>2024-08-13T13:25:26Z</time>
      </trkpt>
      <trkpt lat="44.84442" lon="6.12049">
        <ele>2267.6</ele>
        <time>2024-08-13T13:25:27Z</time>
      </trkpt>
      <trkpt lat="44.84444" lon="6.1205">
        <ele>2267.6</ele>
        <time>2024-08-13T13:25:28Z</time>
      </trkpt>
      <trkpt lat="44.84444" lon="6.1205">
        <ele>2267.8</ele>
        <time>2024-08-13T13:25:29Z</time>
      </trkpt>
      <trkpt lat="44.84446" lon="6.12052">
        <ele>2268</ele>
        <time>2024-08-13T13:25:30Z</time>
      </trkpt>
      <trkpt lat="44.84446" lon="6.12052">
        <ele>2268.4</ele>
        <time>2024-08-13T13:25:31Z</time>
      </trkpt>
      <trkpt lat="44.84446" lon="6.12052">
        <ele>2268.4</ele>
        <time>2024-08-13T13:25:32Z</time>
      </trkpt>
      <trkpt lat="44.84448" lon="6.12053">
        <ele>2268.4</ele>
        <time>2024-08-13T13:25:33Z</time>
      </trkpt>
      <trkpt lat="44.84448" lon="6.12053">
        <ele>2268.6</ele>
        <time>2024-08-13T13:25:34Z</time>
      </trkpt>
      <trkpt lat="44.84448" lon="6.12053">
        <ele>2268.8</ele>
        <time>2024-08-13T13:25:35Z</time>
      </trkpt>
      <trkpt lat="44.84451" lon="6.12052">
        <ele>2269.4</ele>
        <time>2024-08-13T13:25:36Z</time>
      </trkpt>
      <trkpt lat="44.84451" lon="6.12052">
        <ele>2269.6</ele>
        <time>2024-08-13T13:25:37Z</time>
      </trkpt>
      <trkpt lat="44.84451" lon="6.12052">
        <ele>2269.6</ele>
        <time>2024-08-13T13:25:38Z</time>
      </trkpt>
      <trkpt lat="44.84453" lon="6.12051">
        <ele>2269.6</ele>
        <time>2024-08-13T13:25:39Z</time>
      </trkpt>
      <trkpt lat="44.84453" lon="6.12051">
        <ele>2269.6</ele>
        <time>2024-08-13T13:25:40Z</time>
      </trkpt>
      <trkpt lat="44.84454" lon="6.12052">
        <ele>2270</ele>
        <time>2024-08-13T13:25:41Z</time>
      </trkpt>
      <trkpt lat="44.84454" lon="6.12052">
        <ele>2270.2</ele>
        <time>2024-08-13T13:25:42Z</time>
      </trkpt>
      <trkpt lat="44.84454" lon="6.12052">
        <ele>2270.6</ele>
        <time>2024-08-13T13:25:43Z</time>
      </trkpt>
      <trkpt lat="44.84454" lon="6.12052">
        <ele>2271</ele>
        <time>2024-08-13T13:25:44Z</time>
      </trkpt>
      <trkpt lat="44.84455" lon="6.12049">
        <ele>2271.2</ele>
        <time>2024-08-13T13:25:45Z</time>
      </trkpt>
      <trkpt lat="44.84455" lon="6.12049">
        <ele>2271.2</ele>
        <time>2024-08-13T13:25:46Z</time>
      </trkpt>
      <trkpt lat="44.84455" lon="6.12049">
        <ele>2271</ele>
        <time>2024-08-13T13:25:47Z</time>
      </trkpt>
      <trkpt lat="44.84456" lon="6.12046">
        <ele>2271</ele>
        <time>2024-08-13T13:25:48Z</time>
      </trkpt>
      <trkpt lat="44.84456" lon="6.12046">
        <ele>2271.2</ele>
        <time>2024-08-13T13:25:49Z</time>
      </trkpt>
      <trkpt lat="44.84456" lon="6.12046">
        <ele>2271.2</ele>
        <time>2024-08-13T13:25:50Z</time>
      </trkpt>
      <trkpt lat="44.84456" lon="6.12046">
        <ele>2271.2</ele>
        <time>2024-08-13T13:25:51Z</time>
      </trkpt>
      <trkpt lat="44.84456" lon="6.12046">
        <ele>2271.2</ele>
        <time>2024-08-13T13:25:52Z</time>
      </trkpt>
      <trkpt lat="44.84456" lon="6.12046">
        <ele>2271.2</ele>
        <time>2024-08-13T13:25:53Z</time>
      </trkpt>
      <trkpt lat="44.84456" lon="6.12046">
        <ele>2271.6</ele>
        <time>2024-08-13T13:25:54Z</time>
      </trkpt>
      <trkpt lat="44.84456" lon="6.12046">
        <ele>2271.8</ele>
        <time>2024-08-13T13:25:55Z</time>
      </trkpt>
      <trkpt lat="44.84456" lon="6.12046">
        <ele>2271.8</ele>
        <time>2024-08-13T13:25:56Z</time>
      </trkpt>
      <trkpt lat="44.84456" lon="6.12046">
        <ele>2271.6</ele>
        <time>2024-08-13T13:25:57Z</time>
      </trkpt>
      <trkpt lat="44.84456" lon="6.12046">
        <ele>2271.4</ele>
        <time>2024-08-13T13:25:58Z</time>
      </trkpt>
      <trkpt lat="44.84456" lon="6.12046">
        <ele>2271</ele>
        <time>2024-08-13T13:25:59Z</time>
      </trkpt>
      <trkpt lat="44.84457" lon="6.12044">
        <ele>2271</ele>
        <time>2024-08-13T13:26:00Z</time>
      </trkpt>
      <trkpt lat="44.84457" lon="6.12044">
        <ele>2270.8</ele>
        <time>2024-08-13T13:26:01Z</time>
      </trkpt>
      <trkpt lat="44.84457" lon="6.1204">
        <ele>2270.8</ele>
        <time>2024-08-13T13:26:02Z</time>
      </trkpt>
      <trkpt lat="44.84457" lon="6.1204">
        <ele>2270.8</ele>
        <time>2024-08-13T13:26:03Z</time>
      </trkpt>
      <trkpt lat="44.84458" lon="6.12037">
        <ele>2270.8</ele>
        <time>2024-08-13T13:26:04Z</time>
      </trkpt>
      <trkpt lat="44.84458" lon="6.12037">
        <ele>2270.8</ele>
        <time>2024-08-13T13:26:05Z</time>
      </trkpt>
      <trkpt lat="44.8446" lon="6.12035">
        <ele>2271</ele>
        <time>2024-08-13T13:26:06Z</time>
      </trkpt>
      <trkpt lat="44.8446" lon="6.12035">
        <ele>2271</ele>
        <time>2024-08-13T13:26:07Z</time>
      </trkpt>
      <trkpt lat="44.84461" lon="6.12032">
        <ele>2271.4</ele>
        <time>2024-08-13T13:26:08Z</time>
      </trkpt>
      <trkpt lat="44.84461" lon="6.12032">
        <ele>2271.4</ele>
        <time>2024-08-13T13:26:09Z</time>
      </trkpt>
      <trkpt lat="44.84462" lon="6.1203">
        <ele>2272</ele>
        <time>2024-08-13T13:26:10Z</time>
      </trkpt>
      <trkpt lat="44.84462" lon="6.1203">
        <ele>2272</ele>
        <time>2024-08-13T13:26:11Z</time>
      </trkpt>
      <trkpt lat="44.84463" lon="6.12027">
        <ele>2272</ele>
        <time>2024-08-13T13:26:12Z</time>
      </trkpt>
      <trkpt lat="44.84463" lon="6.12027">
        <ele>2272</ele>
        <time>2024-08-13T13:26:13Z</time>
      </trkpt>
      <trkpt lat="44.84464" lon="6.12024">
        <ele>2272.2</ele>
        <time>2024-08-13T13:26:14Z</time>
      </trkpt>
      <trkpt lat="44.84464" lon="6.12024">
        <ele>2272.2</ele>
        <time>2024-08-13T13:26:15Z</time>
      </trkpt>
      <trkpt lat="44.84466" lon="6.12022">
        <ele>2272.8</ele>
        <time>2024-08-13T13:26:16Z</time>
      </trkpt>
      <trkpt lat="44.84466" lon="6.12022">
        <ele>2272.8</ele>
        <time>2024-08-13T13:26:17Z</time>
      </trkpt>
      <trkpt lat="44.84467" lon="6.12019">
        <ele>2272.6</ele>
        <time>2024-08-13T13:26:18Z</time>
      </trkpt>
      <trkpt lat="44.84467" lon="6.12019">
        <ele>2272.6</ele>
        <time>2024-08-13T13:26:19Z</time>
      </trkpt>
      <trkpt lat="44.84467" lon="6.12019">
        <ele>2272.8</ele>
        <time>2024-08-13T13:26:20Z</time>
      </trkpt>
      <trkpt lat="44.84469" lon="6.12016">
        <ele>2272.8</ele>
        <time>2024-08-13T13:26:21Z</time>
      </trkpt>
      <trkpt lat="44.84469" lon="6.12016">
        <ele>2273</ele>
        <time>2024-08-13T13:26:22Z</time>
      </trkpt>
      <trkpt lat="44.8447" lon="6.12014">
        <ele>2273.2</ele>
        <time>2024-08-13T13:26:23Z</time>
      </trkpt>
      <trkpt lat="44.8447" lon="6.12014">
        <ele>2273.2</ele>
        <time>2024-08-13T13:26:24Z</time>
      </trkpt>
      <trkpt lat="44.84471" lon="6.12013">
        <ele>2273.2</ele>
        <time>2024-08-13T13:26:25Z</time>
      </trkpt>
      <trkpt lat="44.84471" lon="6.12013">
        <ele>2273.2</ele>
        <time>2024-08-13T13:26:26Z</time>
      </trkpt>
      <trkpt lat="44.84473" lon="6.12011">
        <ele>2273.6</ele>
        <time>2024-08-13T13:26:27Z</time>
      </trkpt>
      <trkpt lat="44.84473" lon="6.12011">
        <ele>2273.6</ele>
        <time>2024-08-13T13:26:28Z</time>
      </trkpt>
      <trkpt lat="44.84475" lon="6.12009">
        <ele>2274.2</ele>
        <time>2024-08-13T13:26:29Z</time>
      </trkpt>
      <trkpt lat="44.84475" lon="6.12009">
        <ele>2274.2</ele>
        <time>2024-08-13T13:26:30Z</time>
      </trkpt>
      <trkpt lat="44.84476" lon="6.12007">
        <ele>2274.4</ele>
        <time>2024-08-13T13:26:31Z</time>
      </trkpt>
      <trkpt lat="44.84476" lon="6.12007">
        <ele>2274.4</ele>
        <time>2024-08-13T13:26:32Z</time>
      </trkpt>
      <trkpt lat="44.84478" lon="6.12004">
        <ele>2274.8</ele>
        <time>2024-08-13T13:26:33Z</time>
      </trkpt>
      <trkpt lat="44.84478" lon="6.12004">
        <ele>2275</ele>
        <time>2024-08-13T13:26:34Z</time>
      </trkpt>
      <trkpt lat="44.84478" lon="6.12004">
        <ele>2275</ele>
        <time>2024-08-13T13:26:35Z</time>
      </trkpt>
      <trkpt lat="44.8448" lon="6.12002">
        <ele>2275</ele>
        <time>2024-08-13T13:26:36Z</time>
      </trkpt>
      <trkpt lat="44.8448" lon="6.12002">
        <ele>2275</ele>
        <time>2024-08-13T13:26:37Z</time>
      </trkpt>
      <trkpt lat="44.8448" lon="6.12002">
        <ele>2275.2</ele>
        <time>2024-08-13T13:26:38Z</time>
      </trkpt>
      <trkpt lat="44.84482" lon="6.12">
        <ele>2275.6</ele>
        <time>2024-08-13T13:26:39Z</time>
      </trkpt>
      <trkpt lat="44.84482" lon="6.12">
        <ele>2275.6</ele>
        <time>2024-08-13T13:26:40Z</time>
      </trkpt>
      <trkpt lat="44.84482" lon="6.12">
        <ele>2275.4</ele>
        <time>2024-08-13T13:26:41Z</time>
      </trkpt>
      <trkpt lat="44.84484" lon="6.11998">
        <ele>2275</ele>
        <time>2024-08-13T13:26:42Z</time>
      </trkpt>
      <trkpt lat="44.84484" lon="6.11998">
        <ele>2274.6</ele>
        <time>2024-08-13T13:26:43Z</time>
      </trkpt>
      <trkpt lat="44.84486" lon="6.11997">
        <ele>2274.4</ele>
        <time>2024-08-13T13:26:44Z</time>
      </trkpt>
      <trkpt lat="44.84486" lon="6.11997">
        <ele>2274.4</ele>
        <time>2024-08-13T13:26:45Z</time>
      </trkpt>
      <trkpt lat="44.84488" lon="6.11996">
        <ele>2274.6</ele>
        <time>2024-08-13T13:26:46Z</time>
      </trkpt>
      <trkpt lat="44.84488" lon="6.11996">
        <ele>2274.6</ele>
        <time>2024-08-13T13:26:47Z</time>
      </trkpt>
      <trkpt lat="44.84488" lon="6.11996">
        <ele>2274.6</ele>
        <time>2024-08-13T13:26:48Z</time>
      </trkpt>
      <trkpt lat="44.84491" lon="6.11995">
        <ele>2274.6</ele>
        <time>2024-08-13T13:26:49Z</time>
      </trkpt>
      <trkpt lat="44.84491" lon="6.11995">
        <ele>2274.8</ele>
        <time>2024-08-13T13:26:50Z</time>
      </trkpt>
      <trkpt lat="44.84493" lon="6.11995">
        <ele>2274.8</ele>
        <time>2024-08-13T13:26:51Z</time>
      </trkpt>
      <trkpt lat="44.84493" lon="6.11995">
        <ele>2274.8</ele>
        <time>2024-08-13T13:26:52Z</time>
      </trkpt>
      <trkpt lat="44.84494" lon="6.11994">
        <ele>2274.8</ele>
        <time>2024-08-13T13:26:53Z</time>
      </trkpt>
      <trkpt lat="44.84494" lon="6.11994">
        <ele>2275.2</ele>
        <time>2024-08-13T13:26:54Z</time>
      </trkpt>
      <trkpt lat="44.84496" lon="6.11993">
        <ele>2275.4</ele>
        <time>2024-08-13T13:26:55Z</time>
      </trkpt>
      <trkpt lat="44.84496" lon="6.11993">
        <ele>2275.6</ele>
        <time>2024-08-13T13:26:56Z</time>
      </trkpt>
      <trkpt lat="44.84499" lon="6.11992">
        <ele>2275.8</ele>
        <time>2024-08-13T13:26:57Z</time>
      </trkpt>
      <trkpt lat="44.84499" lon="6.11992">
        <ele>2275.8</ele>
        <time>2024-08-13T13:26:58Z</time>
      </trkpt>
      <trkpt lat="44.84501" lon="6.11992">
        <ele>2275.8</ele>
        <time>2024-08-13T13:26:59Z</time>
      </trkpt>
      <trkpt lat="44.84501" lon="6.11992">
        <ele>2276</ele>
        <time>2024-08-13T13:27:00Z</time>
      </trkpt>
      <trkpt lat="44.84502" lon="6.11991">
        <ele>2276.2</ele>
        <time>2024-08-13T13:27:01Z</time>
      </trkpt>
      <trkpt lat="44.84502" lon="6.11991">
        <ele>2276</ele>
        <time>2024-08-13T13:27:02Z</time>
      </trkpt>
      <trkpt lat="44.84504" lon="6.1199">
        <ele>2276</ele>
        <time>2024-08-13T13:27:03Z</time>
      </trkpt>
      <trkpt lat="44.84504" lon="6.1199">
        <ele>2276.2</ele>
        <time>2024-08-13T13:27:04Z</time>
      </trkpt>
      <trkpt lat="44.84506" lon="6.11988">
        <ele>2276.8</ele>
        <time>2024-08-13T13:27:05Z</time>
      </trkpt>
      <trkpt lat="44.84506" lon="6.11988">
        <ele>2277.2</ele>
        <time>2024-08-13T13:27:06Z</time>
      </trkpt>
      <trkpt lat="44.84509" lon="6.11987">
        <ele>2277.6</ele>
        <time>2024-08-13T13:27:07Z</time>
      </trkpt>
      <trkpt lat="44.84509" lon="6.11987">
        <ele>2278</ele>
        <time>2024-08-13T13:27:08Z</time>
      </trkpt>
      <trkpt lat="44.84511" lon="6.11987">
        <ele>2278.2</ele>
        <time>2024-08-13T13:27:09Z</time>
      </trkpt>
      <trkpt lat="44.84511" lon="6.11987">
        <ele>2278.2</ele>
        <time>2024-08-13T13:27:10Z</time>
      </trkpt>
      <trkpt lat="44.84513" lon="6.11987">
        <ele>2278.2</ele>
        <time>2024-08-13T13:27:11Z</time>
      </trkpt>
      <trkpt lat="44.84513" lon="6.11987">
        <ele>2278.2</ele>
        <time>2024-08-13T13:27:12Z</time>
      </trkpt>
      <trkpt lat="44.84515" lon="6.11985">
        <ele>2278.6</ele>
        <time>2024-08-13T13:27:13Z</time>
      </trkpt>
      <trkpt lat="44.84515" lon="6.11985">
        <ele>2278.6</ele>
        <time>2024-08-13T13:27:14Z</time>
      </trkpt>
      <trkpt lat="44.84517" lon="6.11984">
        <ele>2278.6</ele>
        <time>2024-08-13T13:27:15Z</time>
      </trkpt>
      <trkpt lat="44.84517" lon="6.11984">
        <ele>2278.2</ele>
        <time>2024-08-13T13:27:16Z</time>
      </trkpt>
      <trkpt lat="44.84519" lon="6.11983">
        <ele>2278.2</ele>
        <time>2024-08-13T13:27:17Z</time>
      </trkpt>
      <trkpt lat="44.84519" lon="6.11983">
        <ele>2278.6</ele>
        <time>2024-08-13T13:27:18Z</time>
      </trkpt>
      <trkpt lat="44.84521" lon="6.11982">
        <ele>2279</ele>
        <time>2024-08-13T13:27:19Z</time>
      </trkpt>
      <trkpt lat="44.84521" lon="6.11982">
        <ele>2279.4</ele>
        <time>2024-08-13T13:27:20Z</time>
      </trkpt>
      <trkpt lat="44.84523" lon="6.11981">
        <ele>2279.2</ele>
        <time>2024-08-13T13:27:21Z</time>
      </trkpt>
      <trkpt lat="44.84523" lon="6.11981">
        <ele>2279.4</ele>
        <time>2024-08-13T13:27:22Z</time>
      </trkpt>
      <trkpt lat="44.84525" lon="6.1198">
        <ele>2279.4</ele>
        <time>2024-08-13T13:27:23Z</time>
      </trkpt>
      <trkpt lat="44.84525" lon="6.1198">
        <ele>2279.4</ele>
        <time>2024-08-13T13:27:24Z</time>
      </trkpt>
      <trkpt lat="44.84527" lon="6.11977">
        <ele>2280</ele>
        <time>2024-08-13T13:27:25Z</time>
      </trkpt>
      <trkpt lat="44.84527" lon="6.11977">
        <ele>2280.2</ele>
        <time>2024-08-13T13:27:26Z</time>
      </trkpt>
      <trkpt lat="44.84528" lon="6.11975">
        <ele>2280.2</ele>
        <time>2024-08-13T13:27:27Z</time>
      </trkpt>
      <trkpt lat="44.84528" lon="6.11975">
        <ele>2280.2</ele>
        <time>2024-08-13T13:27:28Z</time>
      </trkpt>
      <trkpt lat="44.8453" lon="6.11973">
        <ele>2280.4</ele>
        <time>2024-08-13T13:27:29Z</time>
      </trkpt>
      <trkpt lat="44.8453" lon="6.11973">
        <ele>2280.6</ele>
        <time>2024-08-13T13:27:30Z</time>
      </trkpt>
      <trkpt lat="44.84531" lon="6.11971">
        <ele>2280.6</ele>
        <time>2024-08-13T13:27:31Z</time>
      </trkpt>
      <trkpt lat="44.84531" lon="6.11971">
        <ele>2280.8</ele>
        <time>2024-08-13T13:27:32Z</time>
      </trkpt>
      <trkpt lat="44.84532" lon="6.11968">
        <ele>2280.8</ele>
        <time>2024-08-13T13:27:33Z</time>
      </trkpt>
      <trkpt lat="44.84532" lon="6.11968">
        <ele>2281</ele>
        <time>2024-08-13T13:27:34Z</time>
      </trkpt>
      <trkpt lat="44.84533" lon="6.11967">
        <ele>2281.2</ele>
        <time>2024-08-13T13:27:35Z</time>
      </trkpt>
      <trkpt lat="44.84533" lon="6.11967">
        <ele>2281.4</ele>
        <time>2024-08-13T13:27:36Z</time>
      </trkpt>
      <trkpt lat="44.84535" lon="6.11967">
        <ele>2281.4</ele>
        <time>2024-08-13T13:27:37Z</time>
      </trkpt>
      <trkpt lat="44.84535" lon="6.11967">
        <ele>2281.8</ele>
        <time>2024-08-13T13:27:38Z</time>
      </trkpt>
      <trkpt lat="44.84538" lon="6.11966">
        <ele>2281.8</ele>
        <time>2024-08-13T13:27:39Z</time>
      </trkpt>
      <trkpt lat="44.84538" lon="6.11966">
        <ele>2281.8</ele>
        <time>2024-08-13T13:27:40Z</time>
      </trkpt>
      <trkpt lat="44.8454" lon="6.11966">
        <ele>2281.8</ele>
        <time>2024-08-13T13:27:41Z</time>
      </trkpt>
      <trkpt lat="44.8454" lon="6.11966">
        <ele>2281.8</ele>
        <time>2024-08-13T13:27:42Z</time>
      </trkpt>
      <trkpt lat="44.84542" lon="6.11967">
        <ele>2281.8</ele>
        <time>2024-08-13T13:27:43Z</time>
      </trkpt>
      <trkpt lat="44.84542" lon="6.11967">
        <ele>2281.8</ele>
        <time>2024-08-13T13:27:44Z</time>
      </trkpt>
      <trkpt lat="44.84544" lon="6.11967">
        <ele>2281.6</ele>
        <time>2024-08-13T13:27:45Z</time>
      </trkpt>
      <trkpt lat="44.84546" lon="6.11967">
        <ele>2281.6</ele>
        <time>2024-08-13T13:27:46Z</time>
      </trkpt>
      <trkpt lat="44.84546" lon="6.11967">
        <ele>2281.6</ele>
        <time>2024-08-13T13:27:47Z</time>
      </trkpt>
      <trkpt lat="44.84548" lon="6.11967">
        <ele>2281.8</ele>
        <time>2024-08-13T13:27:48Z</time>
      </trkpt>
      <trkpt lat="44.84548" lon="6.11967">
        <ele>2281.8</ele>
        <time>2024-08-13T13:27:49Z</time>
      </trkpt>
      <trkpt lat="44.8455" lon="6.11968">
        <ele>2281.8</ele>
        <time>2024-08-13T13:27:50Z</time>
      </trkpt>
      <trkpt lat="44.8455" lon="6.11968">
        <ele>2281.6</ele>
        <time>2024-08-13T13:27:51Z</time>
      </trkpt>
      <trkpt lat="44.84552" lon="6.11969">
        <ele>2281.6</ele>
        <time>2024-08-13T13:27:52Z</time>
      </trkpt>
      <trkpt lat="44.84552" lon="6.11969">
        <ele>2281.6</ele>
        <time>2024-08-13T13:27:53Z</time>
      </trkpt>
      <trkpt lat="44.84552" lon="6.11969">
        <ele>2281.6</ele>
        <time>2024-08-13T13:27:54Z</time>
      </trkpt>
      <trkpt lat="44.84554" lon="6.1197">
        <ele>2281.4</ele>
        <time>2024-08-13T13:27:55Z</time>
      </trkpt>
      <trkpt lat="44.84554" lon="6.1197">
        <ele>2281.4</ele>
        <time>2024-08-13T13:27:56Z</time>
      </trkpt>
      <trkpt lat="44.84554" lon="6.1197">
        <ele>2281.4</ele>
        <time>2024-08-13T13:27:57Z</time>
      </trkpt>
      <trkpt lat="44.84556" lon="6.1197">
        <ele>2281.6</ele>
        <time>2024-08-13T13:27:58Z</time>
      </trkpt>
      <trkpt lat="44.84556" lon="6.1197">
        <ele>2281.6</ele>
        <time>2024-08-13T13:27:59Z</time>
      </trkpt>
      <trkpt lat="44.84558" lon="6.11971">
        <ele>2281.8</ele>
        <time>2024-08-13T13:28:00Z</time>
      </trkpt>
      <trkpt lat="44.84558" lon="6.11971">
        <ele>2282</ele>
        <time>2024-08-13T13:28:01Z</time>
      </trkpt>
      <trkpt lat="44.8456" lon="6.11972">
        <ele>2282</ele>
        <time>2024-08-13T13:28:02Z</time>
      </trkpt>
      <trkpt lat="44.84562" lon="6.11973">
        <ele>2282</ele>
        <time>2024-08-13T13:28:03Z</time>
      </trkpt>
      <trkpt lat="44.84562" lon="6.11973">
        <ele>2282.4</ele>
        <time>2024-08-13T13:28:04Z</time>
      </trkpt>
      <trkpt lat="44.84565" lon="6.11975">
        <ele>2282.6</ele>
        <time>2024-08-13T13:28:05Z</time>
      </trkpt>
      <trkpt lat="44.84567" lon="6.11976">
        <ele>2282.6</ele>
        <time>2024-08-13T13:28:06Z</time>
      </trkpt>
      <trkpt lat="44.84567" lon="6.11976">
        <ele>2283</ele>
        <time>2024-08-13T13:28:07Z</time>
      </trkpt>
      <trkpt lat="44.8457" lon="6.11978">
        <ele>2283</ele>
        <time>2024-08-13T13:28:08Z</time>
      </trkpt>
      <trkpt lat="44.8457" lon="6.11978">
        <ele>2283</ele>
        <time>2024-08-13T13:28:09Z</time>
      </trkpt>
      <trkpt lat="44.8457" lon="6.11978">
        <ele>2283.2</ele>
        <time>2024-08-13T13:28:10Z</time>
      </trkpt>
      <trkpt lat="44.84572" lon="6.1198">
        <ele>2283.2</ele>
        <time>2024-08-13T13:28:11Z</time>
      </trkpt>
      <trkpt lat="44.84572" lon="6.1198">
        <ele>2283.2</ele>
        <time>2024-08-13T13:28:12Z</time>
      </trkpt>
      <trkpt lat="44.84573" lon="6.11982">
        <ele>2283.4</ele>
        <time>2024-08-13T13:28:13Z</time>
      </trkpt>
      <trkpt lat="44.84573" lon="6.11982">
        <ele>2283.4</ele>
        <time>2024-08-13T13:28:14Z</time>
      </trkpt>
      <trkpt lat="44.84573" lon="6.11982">
        <ele>2283.4</ele>
        <time>2024-08-13T13:28:15Z</time>
      </trkpt>
      <trkpt lat="44.84573" lon="6.11982">
        <ele>2283.2</ele>
        <time>2024-08-13T13:28:16Z</time>
      </trkpt>
      <trkpt lat="44.84573" lon="6.11982">
        <ele>2283.2</ele>
        <time>2024-08-13T13:28:17Z</time>
      </trkpt>
      <trkpt lat="44.84573" lon="6.11982">
        <ele>2282.4</ele>
        <time>2024-08-13T13:28:18Z</time>
      </trkpt>
      <trkpt lat="44.84573" lon="6.11982">
        <ele>2282.4</ele>
        <time>2024-08-13T13:28:19Z</time>
      </trkpt>
      <trkpt lat="44.84573" lon="6.11982">
        <ele>2282.2</ele>
        <time>2024-08-13T13:28:20Z</time>
      </trkpt>
      <trkpt lat="44.84573" lon="6.11982">
        <ele>2282</ele>
        <time>2024-08-13T13:28:21Z</time>
      </trkpt>
      <trkpt lat="44.84573" lon="6.11982">
        <ele>2282</ele>
        <time>2024-08-13T13:28:22Z</time>
      </trkpt>
      <trkpt lat="44.84573" lon="6.11982">
        <ele>2283</ele>
        <time>2024-08-13T13:28:23Z</time>
      </trkpt>
      <trkpt lat="44.84573" lon="6.11982">
        <ele>2283.6</ele>
        <time>2024-08-13T13:28:24Z</time>
      </trkpt>
      <trkpt lat="44.84573" lon="6.11982">
        <ele>2283.6</ele>
        <time>2024-08-13T13:28:25Z</time>
      </trkpt>
      <trkpt lat="44.84573" lon="6.11982">
        <ele>2283.6</ele>
        <time>2024-08-13T13:28:26Z</time>
      </trkpt>
      <trkpt lat="44.84573" lon="6.11982">
        <ele>2283.6</ele>
        <time>2024-08-13T13:28:27Z</time>
      </trkpt>
      <trkpt lat="44.84573" lon="6.11982">
        <ele>2283.6</ele>
        <time>2024-08-13T13:28:28Z</time>
      </trkpt>
      <trkpt lat="44.84573" lon="6.11982">
        <ele>2283.8</ele>
        <time>2024-08-13T13:28:29Z</time>
      </trkpt>
      <trkpt lat="44.84573" lon="6.11982">
        <ele>2283.8</ele>
        <time>2024-08-13T13:28:30Z</time>
      </trkpt>
      <trkpt lat="44.84573" lon="6.11982">
        <ele>2283.8</ele>
        <time>2024-08-13T13:28:31Z</time>
      </trkpt>
      <trkpt lat="44.84573" lon="6.11982">
        <ele>2283.8</ele>
        <time>2024-08-13T13:28:32Z</time>
      </trkpt>
      <trkpt lat="44.84573" lon="6.11982">
        <ele>2283.8</ele>
        <time>2024-08-13T13:28:33Z</time>
      </trkpt>
      <trkpt lat="44.84573" lon="6.11982">
        <ele>2284</ele>
        <time>2024-08-13T13:28:34Z</time>
      </trkpt>
      <trkpt lat="44.84573" lon="6.11982">
        <ele>2284.4</ele>
        <time>2024-08-13T13:28:35Z</time>
      </trkpt>
      <trkpt lat="44.84573" lon="6.11982">
        <ele>2284.4</ele>
        <time>2024-08-13T13:28:36Z</time>
      </trkpt>
      <trkpt lat="44.84573" lon="6.11982">
        <ele>2284.4</ele>
        <time>2024-08-13T13:28:37Z</time>
      </trkpt>
      <trkpt lat="44.84573" lon="6.11982">
        <ele>2284.6</ele>
        <time>2024-08-13T13:28:38Z</time>
      </trkpt>
      <trkpt lat="44.84574" lon="6.11985">
        <ele>2284.6</ele>
        <time>2024-08-13T13:28:39Z</time>
      </trkpt>
      <trkpt lat="44.84574" lon="6.11985">
        <ele>2284.6</ele>
        <time>2024-08-13T13:28:40Z</time>
      </trkpt>
      <trkpt lat="44.84574" lon="6.11985">
        <ele>2284.2</ele>
        <time>2024-08-13T13:28:41Z</time>
      </trkpt>
      <trkpt lat="44.84575" lon="6.11988">
        <ele>2284</ele>
        <time>2024-08-13T13:28:42Z</time>
      </trkpt>
      <trkpt lat="44.84575" lon="6.11988">
        <ele>2284</ele>
        <time>2024-08-13T13:28:43Z</time>
      </trkpt>
      <trkpt lat="44.84575" lon="6.11988">
        <ele>2283.8</ele>
        <time>2024-08-13T13:28:44Z</time>
      </trkpt>
      <trkpt lat="44.84577" lon="6.11991">
        <ele>2283.6</ele>
        <time>2024-08-13T13:28:45Z</time>
      </trkpt>
      <trkpt lat="44.84577" lon="6.11991">
        <ele>2283.6</ele>
        <time>2024-08-13T13:28:46Z</time>
      </trkpt>
      <trkpt lat="44.84577" lon="6.11991">
        <ele>2283.4</ele>
        <time>2024-08-13T13:28:47Z</time>
      </trkpt>
      <trkpt lat="44.84579" lon="6.11992">
        <ele>2282.8</ele>
        <time>2024-08-13T13:28:48Z</time>
      </trkpt>
      <trkpt lat="44.84579" lon="6.11992">
        <ele>2282.8</ele>
        <time>2024-08-13T13:28:49Z</time>
      </trkpt>
      <trkpt lat="44.84579" lon="6.11992">
        <ele>2283.2</ele>
        <time>2024-08-13T13:28:50Z</time>
      </trkpt>
      <trkpt lat="44.84579" lon="6.11992">
        <ele>2283.4</ele>
        <time>2024-08-13T13:28:51Z</time>
      </trkpt>
      <trkpt lat="44.84579" lon="6.11992">
        <ele>2283.8</ele>
        <time>2024-08-13T13:28:52Z</time>
      </trkpt>
      <trkpt lat="44.84581" lon="6.11994">
        <ele>2284</ele>
        <time>2024-08-13T13:28:53Z</time>
      </trkpt>
      <trkpt lat="44.84581" lon="6.11994">
        <ele>2284</ele>
        <time>2024-08-13T13:28:54Z</time>
      </trkpt>
      <trkpt lat="44.84581" lon="6.11994">
        <ele>2284</ele>
        <time>2024-08-13T13:28:55Z</time>
      </trkpt>
      <trkpt lat="44.84582" lon="6.11996">
        <ele>2284.2</ele>
        <time>2024-08-13T13:28:56Z</time>
      </trkpt>
      <trkpt lat="44.84582" lon="6.11996">
        <ele>2284.6</ele>
        <time>2024-08-13T13:28:57Z</time>
      </trkpt>
      <trkpt lat="44.84584" lon="6.11998">
        <ele>2284.8</ele>
        <time>2024-08-13T13:28:58Z</time>
      </trkpt>
      <trkpt lat="44.84584" lon="6.11998">
        <ele>2285</ele>
        <time>2024-08-13T13:28:59Z</time>
      </trkpt>
      <trkpt lat="44.84584" lon="6.11998">
        <ele>2285</ele>
        <time>2024-08-13T13:29:00Z</time>
      </trkpt>
      <trkpt lat="44.84584" lon="6.11998">
        <ele>2285.4</ele>
        <time>2024-08-13T13:29:01Z</time>
      </trkpt>
      <trkpt lat="44.84584" lon="6.11998">
        <ele>2285.2</ele>
        <time>2024-08-13T13:29:02Z</time>
      </trkpt>
      <trkpt lat="44.84586" lon="6.11999">
        <ele>2285.2</ele>
        <time>2024-08-13T13:29:03Z</time>
      </trkpt>
      <trkpt lat="44.84586" lon="6.11999">
        <ele>2285.2</ele>
        <time>2024-08-13T13:29:04Z</time>
      </trkpt>
      <trkpt lat="44.84588" lon="6.12">
        <ele>2285.4</ele>
        <time>2024-08-13T13:29:05Z</time>
      </trkpt>
      <trkpt lat="44.84588" lon="6.12">
        <ele>2285.4</ele>
        <time>2024-08-13T13:29:06Z</time>
      </trkpt>
      <trkpt lat="44.84588" lon="6.12">
        <ele>2285.4</ele>
        <time>2024-08-13T13:29:07Z</time>
      </trkpt>
      <trkpt lat="44.8459" lon="6.12001">
        <ele>2285.4</ele>
        <time>2024-08-13T13:29:08Z</time>
      </trkpt>
      <trkpt lat="44.8459" lon="6.12001">
        <ele>2285.2</ele>
        <time>2024-08-13T13:29:09Z</time>
      </trkpt>
      <trkpt lat="44.8459" lon="6.12001">
        <ele>2285.2</ele>
        <time>2024-08-13T13:29:10Z</time>
      </trkpt>
      <trkpt lat="44.84592" lon="6.12001">
        <ele>2286</ele>
        <time>2024-08-13T13:29:11Z</time>
      </trkpt>
      <trkpt lat="44.84592" lon="6.12001">
        <ele>2286.4</ele>
        <time>2024-08-13T13:29:12Z</time>
      </trkpt>
      <trkpt lat="44.84594" lon="6.12">
        <ele>2286.8</ele>
        <time>2024-08-13T13:29:13Z</time>
      </trkpt>
      <trkpt lat="44.84594" lon="6.12">
        <ele>2287</ele>
        <time>2024-08-13T13:29:14Z</time>
      </trkpt>
      <trkpt lat="44.84596" lon="6.12">
        <ele>2287.2</ele>
        <time>2024-08-13T13:29:15Z</time>
      </trkpt>
      <trkpt lat="44.84596" lon="6.12">
        <ele>2287.2</ele>
        <time>2024-08-13T13:29:16Z</time>
      </trkpt>
      <trkpt lat="44.84598" lon="6.12">
        <ele>2287.2</ele>
        <time>2024-08-13T13:29:17Z</time>
      </trkpt>
      <trkpt lat="44.84598" lon="6.12">
        <ele>2287.2</ele>
        <time>2024-08-13T13:29:18Z</time>
      </trkpt>
      <trkpt lat="44.84598" lon="6.12">
        <ele>2287.2</ele>
        <time>2024-08-13T13:29:19Z</time>
      </trkpt>
      <trkpt lat="44.84601" lon="6.12001">
        <ele>2286.2</ele>
        <time>2024-08-13T13:29:20Z</time>
      </trkpt>
      <trkpt lat="44.84601" lon="6.12001">
        <ele>2286.2</ele>
        <time>2024-08-13T13:29:21Z</time>
      </trkpt>
      <trkpt lat="44.84601" lon="6.12001">
        <ele>2286.6</ele>
        <time>2024-08-13T13:29:22Z</time>
      </trkpt>
      <trkpt lat="44.84603" lon="6.12002">
        <ele>2287</ele>
        <time>2024-08-13T13:29:23Z</time>
      </trkpt>
      <trkpt lat="44.84603" lon="6.12002">
        <ele>2287.6</ele>
        <time>2024-08-13T13:29:24Z</time>
      </trkpt>
      <trkpt lat="44.84605" lon="6.12004">
        <ele>2288</ele>
        <time>2024-08-13T13:29:25Z</time>
      </trkpt>
      <trkpt lat="44.84605" lon="6.12004">
        <ele>2288.4</ele>
        <time>2024-08-13T13:29:26Z</time>
      </trkpt>
      <trkpt lat="44.84605" lon="6.12004">
        <ele>2288.2</ele>
        <time>2024-08-13T13:29:27Z</time>
      </trkpt>
      <trkpt lat="44.84607" lon="6.12006">
        <ele>2288</ele>
        <time>2024-08-13T13:29:28Z</time>
      </trkpt>
      <trkpt lat="44.84607" lon="6.12006">
        <ele>2288</ele>
        <time>2024-08-13T13:29:29Z</time>
      </trkpt>
      <trkpt lat="44.84607" lon="6.12006">
        <ele>2288.2</ele>
        <time>2024-08-13T13:29:30Z</time>
      </trkpt>
      <trkpt lat="44.84609" lon="6.12008">
        <ele>2288.6</ele>
        <time>2024-08-13T13:29:31Z</time>
      </trkpt>
      <trkpt lat="44.84609" lon="6.12008">
        <ele>2288.8</ele>
        <time>2024-08-13T13:29:32Z</time>
      </trkpt>
      <trkpt lat="44.84609" lon="6.12008">
        <ele>2288.8</ele>
        <time>2024-08-13T13:29:33Z</time>
      </trkpt>
      <trkpt lat="44.8461" lon="6.12011">
        <ele>2288.8</ele>
        <time>2024-08-13T13:29:34Z</time>
      </trkpt>
      <trkpt lat="44.8461" lon="6.12011">
        <ele>2288.8</ele>
        <time>2024-08-13T13:29:35Z</time>
      </trkpt>
      <trkpt lat="44.8461" lon="6.12011">
        <ele>2289.2</ele>
        <time>2024-08-13T13:29:36Z</time>
      </trkpt>
      <trkpt lat="44.84612" lon="6.12009">
        <ele>2289.4</ele>
        <time>2024-08-13T13:29:37Z</time>
      </trkpt>
      <trkpt lat="44.84612" lon="6.12009">
        <ele>2289.6</ele>
        <time>2024-08-13T13:29:38Z</time>
      </trkpt>
      <trkpt lat="44.84612" lon="6.12009">
        <ele>2289.8</ele>
        <time>2024-08-13T13:29:39Z</time>
      </trkpt>
      <trkpt lat="44.84612" lon="6.12009">
        <ele>2290</ele>
        <time>2024-08-13T13:29:40Z</time>
      </trkpt>
      <trkpt lat="44.84612" lon="6.12006">
        <ele>2290.2</ele>
        <time>2024-08-13T13:29:41Z</time>
      </trkpt>
      <trkpt lat="44.84612" lon="6.12006">
        <ele>2290.2</ele>
        <time>2024-08-13T13:29:42Z</time>
      </trkpt>
      <trkpt lat="44.84612" lon="6.12006">
        <ele>2290.2</ele>
        <time>2024-08-13T13:29:43Z</time>
      </trkpt>
      <trkpt lat="44.84612" lon="6.12006">
        <ele>2290.4</ele>
        <time>2024-08-13T13:29:44Z</time>
      </trkpt>
      <trkpt lat="44.84612" lon="6.12006">
        <ele>2290.6</ele>
        <time>2024-08-13T13:29:45Z</time>
      </trkpt>
      <trkpt lat="44.84612" lon="6.12006">
        <ele>2290.8</ele>
        <time>2024-08-13T13:29:46Z</time>
      </trkpt>
      <trkpt lat="44.84612" lon="6.12006">
        <ele>2291.4</ele>
        <time>2024-08-13T13:29:47Z</time>
      </trkpt>
      <trkpt lat="44.84612" lon="6.12006">
        <ele>2291.8</ele>
        <time>2024-08-13T13:29:48Z</time>
      </trkpt>
      <trkpt lat="44.84612" lon="6.12006">
        <ele>2291.8</ele>
        <time>2024-08-13T13:29:49Z</time>
      </trkpt>
      <trkpt lat="44.84613" lon="6.12003">
        <ele>2291.8</ele>
        <time>2024-08-13T13:29:50Z</time>
      </trkpt>
      <trkpt lat="44.84613" lon="6.12003">
        <ele>2291.4</ele>
        <time>2024-08-13T13:29:51Z</time>
      </trkpt>
      <trkpt lat="44.84613" lon="6.12003">
        <ele>2291.6</ele>
        <time>2024-08-13T13:29:52Z</time>
      </trkpt>
      <trkpt lat="44.84615" lon="6.12001">
        <ele>2292.2</ele>
        <time>2024-08-13T13:29:53Z</time>
      </trkpt>
      <trkpt lat="44.84615" lon="6.12001">
        <ele>2292.8</ele>
        <time>2024-08-13T13:29:54Z</time>
      </trkpt>
      <trkpt lat="44.84617" lon="6.12">
        <ele>2292.8</ele>
        <time>2024-08-13T13:29:55Z</time>
      </trkpt>
      <trkpt lat="44.84617" lon="6.12">
        <ele>2292.8</ele>
        <time>2024-08-13T13:29:56Z</time>
      </trkpt>
      <trkpt lat="44.84617" lon="6.12">
        <ele>2292.6</ele>
        <time>2024-08-13T13:29:57Z</time>
      </trkpt>
      <trkpt lat="44.84617" lon="6.12">
        <ele>2292.4</ele>
        <time>2024-08-13T13:29:58Z</time>
      </trkpt>
      <trkpt lat="44.84617" lon="6.12">
        <ele>2292.4</ele>
        <time>2024-08-13T13:29:59Z</time>
      </trkpt>
      <trkpt lat="44.84616" lon="6.11998">
        <ele>2292.4</ele>
        <time>2024-08-13T13:30:00Z</time>
      </trkpt>
      <trkpt lat="44.84616" lon="6.11998">
        <ele>2292.6</ele>
        <time>2024-08-13T13:30:01Z</time>
      </trkpt>
      <trkpt lat="44.84616" lon="6.11998">
        <ele>2292.8</ele>
        <time>2024-08-13T13:30:02Z</time>
      </trkpt>
      <trkpt lat="44.84613" lon="6.11996">
        <ele>2292.8</ele>
        <time>2024-08-13T13:30:03Z</time>
      </trkpt>
      <trkpt lat="44.84613" lon="6.11996">
        <ele>2292.8</ele>
        <time>2024-08-13T13:30:04Z</time>
      </trkpt>
      <trkpt lat="44.84612" lon="6.11993">
        <ele>2292.8</ele>
        <time>2024-08-13T13:30:05Z</time>
      </trkpt>
      <trkpt lat="44.84612" lon="6.11993">
        <ele>2293</ele>
        <time>2024-08-13T13:30:06Z</time>
      </trkpt>
      <trkpt lat="44.84612" lon="6.11993">
        <ele>2293</ele>
        <time>2024-08-13T13:30:07Z</time>
      </trkpt>
      <trkpt lat="44.8461" lon="6.11991">
        <ele>2293.6</ele>
        <time>2024-08-13T13:30:08Z</time>
      </trkpt>
      <trkpt lat="44.8461" lon="6.11991">
        <ele>2293.6</ele>
        <time>2024-08-13T13:30:09Z</time>
      </trkpt>
      <trkpt lat="44.84609" lon="6.11989">
        <ele>2293.8</ele>
        <time>2024-08-13T13:30:10Z</time>
      </trkpt>
      <trkpt lat="44.84609" lon="6.11989">
        <ele>2293.8</ele>
        <time>2024-08-13T13:30:11Z</time>
      </trkpt>
      <trkpt lat="44.84608" lon="6.11986">
        <ele>2293.6</ele>
        <time>2024-08-13T13:30:12Z</time>
      </trkpt>
      <trkpt lat="44.84608" lon="6.11986">
        <ele>2294</ele>
        <time>2024-08-13T13:30:13Z</time>
      </trkpt>
      <trkpt lat="44.84608" lon="6.11986">
        <ele>2294.2</ele>
        <time>2024-08-13T13:30:14Z</time>
      </trkpt>
      <trkpt lat="44.84606" lon="6.11984">
        <ele>2294.2</ele>
        <time>2024-08-13T13:30:15Z</time>
      </trkpt>
      <trkpt lat="44.84606" lon="6.11984">
        <ele>2294.6</ele>
        <time>2024-08-13T13:30:16Z</time>
      </trkpt>
      <trkpt lat="44.84606" lon="6.11984">
        <ele>2294.6</ele>
        <time>2024-08-13T13:30:17Z</time>
      </trkpt>
      <trkpt lat="44.84604" lon="6.11981">
        <ele>2294.6</ele>
        <time>2024-08-13T13:30:18Z</time>
      </trkpt>
      <trkpt lat="44.84604" lon="6.11981">
        <ele>2294.6</ele>
        <time>2024-08-13T13:30:19Z</time>
      </trkpt>
      <trkpt lat="44.84604" lon="6.11981">
        <ele>2294.6</ele>
        <time>2024-08-13T13:30:20Z</time>
      </trkpt>
      <trkpt lat="44.84602" lon="6.11979">
        <ele>2294.8</ele>
        <time>2024-08-13T13:30:21Z</time>
      </trkpt>
      <trkpt lat="44.84602" lon="6.11979">
        <ele>2295</ele>
        <time>2024-08-13T13:30:22Z</time>
      </trkpt>
      <trkpt lat="44.846" lon="6.11978">
        <ele>2295</ele>
        <time>2024-08-13T13:30:23Z</time>
      </trkpt>
      <trkpt lat="44.846" lon="6.11978">
        <ele>2295</ele>
        <time>2024-08-13T13:30:24Z</time>
      </trkpt>
      <trkpt lat="44.846" lon="6.11978">
        <ele>2295</ele>
        <time>2024-08-13T13:30:25Z</time>
      </trkpt>
      <trkpt lat="44.84598" lon="6.11977">
        <ele>2295</ele>
        <time>2024-08-13T13:30:26Z</time>
      </trkpt>
      <trkpt lat="44.84598" lon="6.11977">
        <ele>2295.4</ele>
        <time>2024-08-13T13:30:27Z</time>
      </trkpt>
      <trkpt lat="44.84596" lon="6.11976">
        <ele>2295.6</ele>
        <time>2024-08-13T13:30:28Z</time>
      </trkpt>
      <trkpt lat="44.84596" lon="6.11976">
        <ele>2295.6</ele>
        <time>2024-08-13T13:30:29Z</time>
      </trkpt>
      <trkpt lat="44.84593" lon="6.11975">
        <ele>2295.8</ele>
        <time>2024-08-13T13:30:30Z</time>
      </trkpt>
      <trkpt lat="44.84593" lon="6.11975">
        <ele>2296</ele>
        <time>2024-08-13T13:30:31Z</time>
      </trkpt>
      <trkpt lat="44.84591" lon="6.11974">
        <ele>2296.4</ele>
        <time>2024-08-13T13:30:32Z</time>
      </trkpt>
      <trkpt lat="44.84591" lon="6.11974">
        <ele>2296.4</ele>
        <time>2024-08-13T13:30:33Z</time>
      </trkpt>
      <trkpt lat="44.84589" lon="6.11974">
        <ele>2296.6</ele>
        <time>2024-08-13T13:30:34Z</time>
      </trkpt>
      <trkpt lat="44.84589" lon="6.11974">
        <ele>2296.6</ele>
        <time>2024-08-13T13:30:35Z</time>
      </trkpt>
      <trkpt lat="44.84589" lon="6.11974">
        <ele>2296.6</ele>
        <time>2024-08-13T13:30:36Z</time>
      </trkpt>
      <trkpt lat="44.84586" lon="6.11973">
        <ele>2297</ele>
        <time>2024-08-13T13:30:37Z</time>
      </trkpt>
      <trkpt lat="44.84586" lon="6.11973">
        <ele>2297.2</ele>
        <time>2024-08-13T13:30:38Z</time>
      </trkpt>
      <trkpt lat="44.84584" lon="6.11972">
        <ele>2297.4</ele>
        <time>2024-08-13T13:30:39Z</time>
      </trkpt>
      <trkpt lat="44.84584" lon="6.11972">
        <ele>2298.6</ele>
        <time>2024-08-13T13:30:40Z</time>
      </trkpt>
      <trkpt lat="44.84584" lon="6.11972">
        <ele>2298.6</ele>
        <time>2024-08-13T13:30:41Z</time>
      </trkpt>
      <trkpt lat="44.84584" lon="6.11972">
        <ele>2298</ele>
        <time>2024-08-13T13:30:42Z</time>
      </trkpt>
      <trkpt lat="44.84584" lon="6.11972">
        <ele>2297.8</ele>
        <time>2024-08-13T13:30:43Z</time>
      </trkpt>
      <trkpt lat="44.84586" lon="6.1197">
        <ele>2297.6</ele>
        <time>2024-08-13T13:30:44Z</time>
      </trkpt>
      <trkpt lat="44.84586" lon="6.1197">
        <ele>2297.6</ele>
        <time>2024-08-13T13:30:45Z</time>
      </trkpt>
      <trkpt lat="44.84586" lon="6.1197">
        <ele>2298.2</ele>
        <time>2024-08-13T13:30:46Z</time>
      </trkpt>
      <trkpt lat="44.84586" lon="6.1197">
        <ele>2298.4</ele>
        <time>2024-08-13T13:30:47Z</time>
      </trkpt>
      <trkpt lat="44.84588" lon="6.11969">
        <ele>2298.4</ele>
        <time>2024-08-13T13:30:48Z</time>
      </trkpt>
      <trkpt lat="44.84588" lon="6.11969">
        <ele>2298.6</ele>
        <time>2024-08-13T13:30:49Z</time>
      </trkpt>
      <trkpt lat="44.84588" lon="6.11969">
        <ele>2299.6</ele>
        <time>2024-08-13T13:30:50Z</time>
      </trkpt>
      <trkpt lat="44.8459" lon="6.11968">
        <ele>2299.6</ele>
        <time>2024-08-13T13:30:51Z</time>
      </trkpt>
      <trkpt lat="44.8459" lon="6.11968">
        <ele>2299.6</ele>
        <time>2024-08-13T13:30:52Z</time>
      </trkpt>
      <trkpt lat="44.8459" lon="6.11968">
        <ele>2299.8</ele>
        <time>2024-08-13T13:30:53Z</time>
      </trkpt>
      <trkpt lat="44.84592" lon="6.11967">
        <ele>2299.8</ele>
        <time>2024-08-13T13:30:54Z</time>
      </trkpt>
      <trkpt lat="44.84592" lon="6.11967">
        <ele>2300.4</ele>
        <time>2024-08-13T13:30:55Z</time>
      </trkpt>
      <trkpt lat="44.84594" lon="6.11966">
        <ele>2300.4</ele>
        <time>2024-08-13T13:30:56Z</time>
      </trkpt>
      <trkpt lat="44.84594" lon="6.11966">
        <ele>2300.8</ele>
        <time>2024-08-13T13:30:57Z</time>
      </trkpt>
      <trkpt lat="44.84596" lon="6.11966">
        <ele>2301</ele>
        <time>2024-08-13T13:30:58Z</time>
      </trkpt>
      <trkpt lat="44.84596" lon="6.11966">
        <ele>2301</ele>
        <time>2024-08-13T13:30:59Z</time>
      </trkpt>
      <trkpt lat="44.84598" lon="6.11965">
        <ele>2301.4</ele>
        <time>2024-08-13T13:31:00Z</time>
      </trkpt>
      <trkpt lat="44.84598" lon="6.11965">
        <ele>2301.4</ele>
        <time>2024-08-13T13:31:01Z</time>
      </trkpt>
      <trkpt lat="44.84598" lon="6.11965">
        <ele>2301.8</ele>
        <time>2024-08-13T13:31:02Z</time>
      </trkpt>
      <trkpt lat="44.84601" lon="6.11965">
        <ele>2301.8</ele>
        <time>2024-08-13T13:31:03Z</time>
      </trkpt>
      <trkpt lat="44.84601" lon="6.11965">
        <ele>2302</ele>
        <time>2024-08-13T13:31:04Z</time>
      </trkpt>
      <trkpt lat="44.84603" lon="6.11965">
        <ele>2302.4</ele>
        <time>2024-08-13T13:31:05Z</time>
      </trkpt>
      <trkpt lat="44.84603" lon="6.11965">
        <ele>2302.6</ele>
        <time>2024-08-13T13:31:06Z</time>
      </trkpt>
      <trkpt lat="44.84605" lon="6.11965">
        <ele>2302.6</ele>
        <time>2024-08-13T13:31:07Z</time>
      </trkpt>
      <trkpt lat="44.84605" lon="6.11965">
        <ele>2302.6</ele>
        <time>2024-08-13T13:31:08Z</time>
      </trkpt>
      <trkpt lat="44.84605" lon="6.11965">
        <ele>2302.6</ele>
        <time>2024-08-13T13:31:09Z</time>
      </trkpt>
      <trkpt lat="44.84605" lon="6.11965">
        <ele>2302.6</ele>
        <time>2024-08-13T13:31:10Z</time>
      </trkpt>
      <trkpt lat="44.84607" lon="6.11966">
        <ele>2302.8</ele>
        <time>2024-08-13T13:31:11Z</time>
      </trkpt>
      <trkpt lat="44.84607" lon="6.11966">
        <ele>2302.8</ele>
        <time>2024-08-13T13:31:12Z</time>
      </trkpt>
      <trkpt lat="44.84609" lon="6.11966">
        <ele>2302.8</ele>
        <time>2024-08-13T13:31:13Z</time>
      </trkpt>
      <trkpt lat="44.84609" lon="6.11966">
        <ele>2303.6</ele>
        <time>2024-08-13T13:31:14Z</time>
      </trkpt>
      <trkpt lat="44.84611" lon="6.11966">
        <ele>2304</ele>
        <time>2024-08-13T13:31:15Z</time>
      </trkpt>
      <trkpt lat="44.84611" lon="6.11966">
        <ele>2304</ele>
        <time>2024-08-13T13:31:16Z</time>
      </trkpt>
      <trkpt lat="44.84611" lon="6.11966">
        <ele>2304.2</ele>
        <time>2024-08-13T13:31:17Z</time>
      </trkpt>
      <trkpt lat="44.84613" lon="6.11965">
        <ele>2304.2</ele>
        <time>2024-08-13T13:31:18Z</time>
      </trkpt>
      <trkpt lat="44.84613" lon="6.11965">
        <ele>2304.2</ele>
        <time>2024-08-13T13:31:19Z</time>
      </trkpt>
      <trkpt lat="44.84613" lon="6.11965">
        <ele>2304.4</ele>
        <time>2024-08-13T13:31:20Z</time>
      </trkpt>
      <trkpt lat="44.84616" lon="6.11964">
        <ele>2304.4</ele>
        <time>2024-08-13T13:31:21Z</time>
      </trkpt>
      <trkpt lat="44.84616" lon="6.11964">
        <ele>2304.8</ele>
        <time>2024-08-13T13:31:22Z</time>
      </trkpt>
      <trkpt lat="44.84616" lon="6.11964">
        <ele>2304.8</ele>
        <time>2024-08-13T13:31:23Z</time>
      </trkpt>
      <trkpt lat="44.84617" lon="6.11962">
        <ele>2304.8</ele>
        <time>2024-08-13T13:31:24Z</time>
      </trkpt>
      <trkpt lat="44.84617" lon="6.11962">
        <ele>2305</ele>
        <time>2024-08-13T13:31:25Z</time>
      </trkpt>
      <trkpt lat="44.84619" lon="6.1196">
        <ele>2305.2</ele>
        <time>2024-08-13T13:31:26Z</time>
      </trkpt>
      <trkpt lat="44.84619" lon="6.1196">
        <ele>2305.6</ele>
        <time>2024-08-13T13:31:27Z</time>
      </trkpt>
      <trkpt lat="44.8462" lon="6.11959">
        <ele>2305.6</ele>
        <time>2024-08-13T13:31:28Z</time>
      </trkpt>
      <trkpt lat="44.8462" lon="6.11959">
        <ele>2305.6</ele>
        <time>2024-08-13T13:31:29Z</time>
      </trkpt>
      <trkpt lat="44.84622" lon="6.11956">
        <ele>2305.6</ele>
        <time>2024-08-13T13:31:30Z</time>
      </trkpt>
      <trkpt lat="44.84622" lon="6.11956">
        <ele>2305.6</ele>
        <time>2024-08-13T13:31:31Z</time>
      </trkpt>
      <trkpt lat="44.84624" lon="6.11954">
        <ele>2305.2</ele>
        <time>2024-08-13T13:31:32Z</time>
      </trkpt>
      <trkpt lat="44.84624" lon="6.11954">
        <ele>2305.2</ele>
        <time>2024-08-13T13:31:33Z</time>
      </trkpt>
      <trkpt lat="44.84626" lon="6.11952">
        <ele>2305.2</ele>
        <time>2024-08-13T13:31:34Z</time>
      </trkpt>
      <trkpt lat="44.84626" lon="6.11952">
        <ele>2305.4</ele>
        <time>2024-08-13T13:31:35Z</time>
      </trkpt>
      <trkpt lat="44.84628" lon="6.1195">
        <ele>2305.6</ele>
        <time>2024-08-13T13:31:36Z</time>
      </trkpt>
      <trkpt lat="44.84628" lon="6.1195">
        <ele>2305.6</ele>
        <time>2024-08-13T13:31:37Z</time>
      </trkpt>
      <trkpt lat="44.84629" lon="6.11948">
        <ele>2305.6</ele>
        <time>2024-08-13T13:31:38Z</time>
      </trkpt>
      <trkpt lat="44.84629" lon="6.11948">
        <ele>2305.6</ele>
        <time>2024-08-13T13:31:39Z</time>
      </trkpt>
      <trkpt lat="44.84631" lon="6.11946">
        <ele>2305.6</ele>
        <time>2024-08-13T13:31:40Z</time>
      </trkpt>
      <trkpt lat="44.84631" lon="6.11946">
        <ele>2305.8</ele>
        <time>2024-08-13T13:31:41Z</time>
      </trkpt>
      <trkpt lat="44.84633" lon="6.11945">
        <ele>2305.8</ele>
        <time>2024-08-13T13:31:42Z</time>
      </trkpt>
      <trkpt lat="44.84633" lon="6.11945">
        <ele>2306.2</ele>
        <time>2024-08-13T13:31:43Z</time>
      </trkpt>
      <trkpt lat="44.84633" lon="6.11945">
        <ele>2306.8</ele>
        <time>2024-08-13T13:31:44Z</time>
      </trkpt>
      <trkpt lat="44.84636" lon="6.11944">
        <ele>2306.8</ele>
        <time>2024-08-13T13:31:45Z</time>
      </trkpt>
      <trkpt lat="44.84636" lon="6.11944">
        <ele>2307.6</ele>
        <time>2024-08-13T13:31:46Z</time>
      </trkpt>
      <trkpt lat="44.84637" lon="6.11943">
        <ele>2307.6</ele>
        <time>2024-08-13T13:31:47Z</time>
      </trkpt>
      <trkpt lat="44.84637" lon="6.11943">
        <ele>2307.8</ele>
        <time>2024-08-13T13:31:48Z</time>
      </trkpt>
      <trkpt lat="44.8464" lon="6.11941">
        <ele>2307.6</ele>
        <time>2024-08-13T13:31:49Z</time>
      </trkpt>
      <trkpt lat="44.8464" lon="6.11941">
        <ele>2307.6</ele>
        <time>2024-08-13T13:31:50Z</time>
      </trkpt>
      <trkpt lat="44.84643" lon="6.1194">
        <ele>2307.6</ele>
        <time>2024-08-13T13:31:51Z</time>
      </trkpt>
      <trkpt lat="44.84643" lon="6.1194">
        <ele>2307.6</ele>
        <time>2024-08-13T13:31:52Z</time>
      </trkpt>
      <trkpt lat="44.84643" lon="6.1194">
        <ele>2307.6</ele>
        <time>2024-08-13T13:31:53Z</time>
      </trkpt>
      <trkpt lat="44.84645" lon="6.11938">
        <ele>2307.6</ele>
        <time>2024-08-13T13:31:54Z</time>
      </trkpt>
      <trkpt lat="44.84645" lon="6.11938">
        <ele>2307.8</ele>
        <time>2024-08-13T13:31:55Z</time>
      </trkpt>
      <trkpt lat="44.84645" lon="6.11938">
        <ele>2307.8</ele>
        <time>2024-08-13T13:31:56Z</time>
      </trkpt>
      <trkpt lat="44.84647" lon="6.11938">
        <ele>2307.8</ele>
        <time>2024-08-13T13:31:57Z</time>
      </trkpt>
      <trkpt lat="44.84647" lon="6.11938">
        <ele>2307.8</ele>
        <time>2024-08-13T13:31:58Z</time>
      </trkpt>
      <trkpt lat="44.84649" lon="6.11937">
        <ele>2308</ele>
        <time>2024-08-13T13:31:59Z</time>
      </trkpt>
      <trkpt lat="44.84649" lon="6.11937">
        <ele>2308.2</ele>
        <time>2024-08-13T13:32:00Z</time>
      </trkpt>
      <trkpt lat="44.84651" lon="6.11937">
        <ele>2308.2</ele>
        <time>2024-08-13T13:32:01Z</time>
      </trkpt>
      <trkpt lat="44.84651" lon="6.11937">
        <ele>2308</ele>
        <time>2024-08-13T13:32:02Z</time>
      </trkpt>
      <trkpt lat="44.84653" lon="6.11936">
        <ele>2308</ele>
        <time>2024-08-13T13:32:03Z</time>
      </trkpt>
      <trkpt lat="44.84653" lon="6.11936">
        <ele>2308.2</ele>
        <time>2024-08-13T13:32:04Z</time>
      </trkpt>
      <trkpt lat="44.84653" lon="6.11936">
        <ele>2308.2</ele>
        <time>2024-08-13T13:32:05Z</time>
      </trkpt>
      <trkpt lat="44.84655" lon="6.11935">
        <ele>2308.4</ele>
        <time>2024-08-13T13:32:06Z</time>
      </trkpt>
      <trkpt lat="44.84655" lon="6.11935">
        <ele>2308.4</ele>
        <time>2024-08-13T13:32:07Z</time>
      </trkpt>
      <trkpt lat="44.84658" lon="6.11934">
        <ele>2308.6</ele>
        <time>2024-08-13T13:32:08Z</time>
      </trkpt>
      <trkpt lat="44.84658" lon="6.11934">
        <ele>2308.6</ele>
        <time>2024-08-13T13:32:09Z</time>
      </trkpt>
      <trkpt lat="44.84658" lon="6.11934">
        <ele>2309</ele>
        <time>2024-08-13T13:32:10Z</time>
      </trkpt>
      <trkpt lat="44.8466" lon="6.11932">
        <ele>2309.4</ele>
        <time>2024-08-13T13:32:11Z</time>
      </trkpt>
      <trkpt lat="44.8466" lon="6.11932">
        <ele>2309.4</ele>
        <time>2024-08-13T13:32:12Z</time>
      </trkpt>
      <trkpt lat="44.84662" lon="6.11931">
        <ele>2310</ele>
        <time>2024-08-13T13:32:13Z</time>
      </trkpt>
      <trkpt lat="44.84662" lon="6.11931">
        <ele>2310.2</ele>
        <time>2024-08-13T13:32:14Z</time>
      </trkpt>
      <trkpt lat="44.84662" lon="6.11931">
        <ele>2310.2</ele>
        <time>2024-08-13T13:32:15Z</time>
      </trkpt>
      <trkpt lat="44.84665" lon="6.1193">
        <ele>2310.2</ele>
        <time>2024-08-13T13:32:16Z</time>
      </trkpt>
      <trkpt lat="44.84665" lon="6.1193">
        <ele>2310.6</ele>
        <time>2024-08-13T13:32:17Z</time>
      </trkpt>
      <trkpt lat="44.84665" lon="6.1193">
        <ele>2310.6</ele>
        <time>2024-08-13T13:32:18Z</time>
      </trkpt>
      <trkpt lat="44.84667" lon="6.11929">
        <ele>2310.6</ele>
        <time>2024-08-13T13:32:19Z</time>
      </trkpt>
      <trkpt lat="44.84667" lon="6.11929">
        <ele>2311.4</ele>
        <time>2024-08-13T13:32:20Z</time>
      </trkpt>
      <trkpt lat="44.84667" lon="6.11929">
        <ele>2311.4</ele>
        <time>2024-08-13T13:32:21Z</time>
      </trkpt>
      <trkpt lat="44.8467" lon="6.11928">
        <ele>2311.4</ele>
        <time>2024-08-13T13:32:22Z</time>
      </trkpt>
      <trkpt lat="44.8467" lon="6.11928">
        <ele>2311.6</ele>
        <time>2024-08-13T13:32:23Z</time>
      </trkpt>
      <trkpt lat="44.84672" lon="6.11928">
        <ele>2311.8</ele>
        <time>2024-08-13T13:32:24Z</time>
      </trkpt>
      <trkpt lat="44.84672" lon="6.11928">
        <ele>2312</ele>
        <time>2024-08-13T13:32:25Z</time>
      </trkpt>
      <trkpt lat="44.84672" lon="6.11928">
        <ele>2312.2</ele>
        <time>2024-08-13T13:32:26Z</time>
      </trkpt>
      <trkpt lat="44.84675" lon="6.11929">
        <ele>2312.4</ele>
        <time>2024-08-13T13:32:27Z</time>
      </trkpt>
      <trkpt lat="44.84675" lon="6.11929">
        <ele>2312.4</ele>
        <time>2024-08-13T13:32:28Z</time>
      </trkpt>
      <trkpt lat="44.84677" lon="6.11929">
        <ele>2312.4</ele>
        <time>2024-08-13T13:32:29Z</time>
      </trkpt>
      <trkpt lat="44.84677" lon="6.11929">
        <ele>2312.8</ele>
        <time>2024-08-13T13:32:30Z</time>
      </trkpt>
      <trkpt lat="44.8468" lon="6.11929">
        <ele>2312.8</ele>
        <time>2024-08-13T13:32:31Z</time>
      </trkpt>
      <trkpt lat="44.8468" lon="6.11929">
        <ele>2312.6</ele>
        <time>2024-08-13T13:32:32Z</time>
      </trkpt>
      <trkpt lat="44.84683" lon="6.11928">
        <ele>2312.6</ele>
        <time>2024-08-13T13:32:33Z</time>
      </trkpt>
      <trkpt lat="44.84683" lon="6.11928">
        <ele>2312.4</ele>
        <time>2024-08-13T13:32:34Z</time>
      </trkpt>
      <trkpt lat="44.84685" lon="6.11927">
        <ele>2312</ele>
        <time>2024-08-13T13:32:35Z</time>
      </trkpt>
      <trkpt lat="44.84685" lon="6.11927">
        <ele>2312</ele>
        <time>2024-08-13T13:32:36Z</time>
      </trkpt>
      <trkpt lat="44.84685" lon="6.11927">
        <ele>2312.6</ele>
        <time>2024-08-13T13:32:37Z</time>
      </trkpt>
      <trkpt lat="44.84687" lon="6.11926">
        <ele>2312.6</ele>
        <time>2024-08-13T13:32:38Z</time>
      </trkpt>
      <trkpt lat="44.84687" lon="6.11926">
        <ele>2312.8</ele>
        <time>2024-08-13T13:32:39Z</time>
      </trkpt>
      <trkpt lat="44.84689" lon="6.11926">
        <ele>2312.8</ele>
        <time>2024-08-13T13:32:40Z</time>
      </trkpt>
      <trkpt lat="44.84689" lon="6.11926">
        <ele>2313.6</ele>
        <time>2024-08-13T13:32:41Z</time>
      </trkpt>
      <trkpt lat="44.84691" lon="6.11926">
        <ele>2313.8</ele>
        <time>2024-08-13T13:32:42Z</time>
      </trkpt>
      <trkpt lat="44.84691" lon="6.11926">
        <ele>2313.8</ele>
        <time>2024-08-13T13:32:43Z</time>
      </trkpt>
      <trkpt lat="44.84693" lon="6.11926">
        <ele>2314.6</ele>
        <time>2024-08-13T13:32:44Z</time>
      </trkpt>
      <trkpt lat="44.84693" lon="6.11926">
        <ele>2314.6</ele>
        <time>2024-08-13T13:32:45Z</time>
      </trkpt>
      <trkpt lat="44.84693" lon="6.11926">
        <ele>2314.6</ele>
        <time>2024-08-13T13:32:46Z</time>
      </trkpt>
      <trkpt lat="44.84696" lon="6.11926">
        <ele>2314.8</ele>
        <time>2024-08-13T13:32:47Z</time>
      </trkpt>
      <trkpt lat="44.84696" lon="6.11926">
        <ele>2314.8</ele>
        <time>2024-08-13T13:32:48Z</time>
      </trkpt>
      <trkpt lat="44.84696" lon="6.11926">
        <ele>2315</ele>
        <time>2024-08-13T13:32:49Z</time>
      </trkpt>
      <trkpt lat="44.84698" lon="6.11926">
        <ele>2315.2</ele>
        <time>2024-08-13T13:32:50Z</time>
      </trkpt>
      <trkpt lat="44.84698" lon="6.11926">
        <ele>2315.4</ele>
        <time>2024-08-13T13:32:51Z</time>
      </trkpt>
      <trkpt lat="44.847" lon="6.11926">
        <ele>2315.6</ele>
        <time>2024-08-13T13:32:52Z</time>
      </trkpt>
      <trkpt lat="44.847" lon="6.11926">
        <ele>2315.8</ele>
        <time>2024-08-13T13:32:53Z</time>
      </trkpt>
      <trkpt lat="44.84702" lon="6.11926">
        <ele>2315.8</ele>
        <time>2024-08-13T13:32:54Z</time>
      </trkpt>
      <trkpt lat="44.84702" lon="6.11926">
        <ele>2315.8</ele>
        <time>2024-08-13T13:32:55Z</time>
      </trkpt>
      <trkpt lat="44.84704" lon="6.11928">
        <ele>2315.8</ele>
        <time>2024-08-13T13:32:56Z</time>
      </trkpt>
      <trkpt lat="44.84704" lon="6.11928">
        <ele>2315.8</ele>
        <time>2024-08-13T13:32:57Z</time>
      </trkpt>
      <trkpt lat="44.84706" lon="6.11928">
        <ele>2315.6</ele>
        <time>2024-08-13T13:32:58Z</time>
      </trkpt>
      <trkpt lat="44.84706" lon="6.11928">
        <ele>2315.6</ele>
        <time>2024-08-13T13:32:59Z</time>
      </trkpt>
      <trkpt lat="44.84706" lon="6.11928">
        <ele>2315.6</ele>
        <time>2024-08-13T13:33:00Z</time>
      </trkpt>
      <trkpt lat="44.84706" lon="6.11928">
        <ele>2315.8</ele>
        <time>2024-08-13T13:33:01Z</time>
      </trkpt>
      <trkpt lat="44.84706" lon="6.11928">
        <ele>2315.4</ele>
        <time>2024-08-13T13:33:02Z</time>
      </trkpt>
      <trkpt lat="44.84706" lon="6.11928">
        <ele>2315.4</ele>
        <time>2024-08-13T13:33:03Z</time>
      </trkpt>
      <trkpt lat="44.84706" lon="6.11928">
        <ele>2315.4</ele>
        <time>2024-08-13T13:33:04Z</time>
      </trkpt>
      <trkpt lat="44.84705" lon="6.11924">
        <ele>2315.8</ele>
        <time>2024-08-13T13:33:05Z</time>
      </trkpt>
      <trkpt lat="44.84705" lon="6.11924">
        <ele>2316</ele>
        <time>2024-08-13T13:33:06Z</time>
      </trkpt>
      <trkpt lat="44.84703" lon="6.11922">
        <ele>2316</ele>
        <time>2024-08-13T13:33:07Z</time>
      </trkpt>
      <trkpt lat="44.84703" lon="6.11922">
        <ele>2316.4</ele>
        <time>2024-08-13T13:33:08Z</time>
      </trkpt>
      <trkpt lat="44.84703" lon="6.11922">
        <ele>2316.4</ele>
        <time>2024-08-13T13:33:09Z</time>
      </trkpt>
      <trkpt lat="44.84703" lon="6.11922">
        <ele>2316.4</ele>
        <time>2024-08-13T13:33:10Z</time>
      </trkpt>
      <trkpt lat="44.84701" lon="6.11921">
        <ele>2316.4</ele>
        <time>2024-08-13T13:33:11Z</time>
      </trkpt>
      <trkpt lat="44.84701" lon="6.11921">
        <ele>2316.6</ele>
        <time>2024-08-13T13:33:12Z</time>
      </trkpt>
      <trkpt lat="44.84699" lon="6.1192">
        <ele>2317</ele>
        <time>2024-08-13T13:33:13Z</time>
      </trkpt>
      <trkpt lat="44.84699" lon="6.1192">
        <ele>2317</ele>
        <time>2024-08-13T13:33:14Z</time>
      </trkpt>
      <trkpt lat="44.84696" lon="6.11918">
        <ele>2317.4</ele>
        <time>2024-08-13T13:33:15Z</time>
      </trkpt>
      <trkpt lat="44.84696" lon="6.11918">
        <ele>2317.4</ele>
        <time>2024-08-13T13:33:16Z</time>
      </trkpt>
      <trkpt lat="44.84694" lon="6.11916">
        <ele>2317.6</ele>
        <time>2024-08-13T13:33:17Z</time>
      </trkpt>
      <trkpt lat="44.84694" lon="6.11916">
        <ele>2317.8</ele>
        <time>2024-08-13T13:33:18Z</time>
      </trkpt>
      <trkpt lat="44.84692" lon="6.11915">
        <ele>2318</ele>
        <time>2024-08-13T13:33:19Z</time>
      </trkpt>
      <trkpt lat="44.84692" lon="6.11915">
        <ele>2318</ele>
        <time>2024-08-13T13:33:20Z</time>
      </trkpt>
      <trkpt lat="44.84689" lon="6.11915">
        <ele>2318.2</ele>
        <time>2024-08-13T13:33:21Z</time>
      </trkpt>
      <trkpt lat="44.84689" lon="6.11915">
        <ele>2318.2</ele>
        <time>2024-08-13T13:33:22Z</time>
      </trkpt>
      <trkpt lat="44.84689" lon="6.11915">
        <ele>2318.4</ele>
        <time>2024-08-13T13:33:23Z</time>
      </trkpt>
      <trkpt lat="44.84687" lon="6.11913">
        <ele>2318.6</ele>
        <time>2024-08-13T13:33:24Z</time>
      </trkpt>
      <trkpt lat="44.84687" lon="6.11913">
        <ele>2319</ele>
        <time>2024-08-13T13:33:25Z</time>
      </trkpt>
      <trkpt lat="44.84685" lon="6.11912">
        <ele>2319.2</ele>
        <time>2024-08-13T13:33:26Z</time>
      </trkpt>
      <trkpt lat="44.84685" lon="6.11912">
        <ele>2319.2</ele>
        <time>2024-08-13T13:33:27Z</time>
      </trkpt>
      <trkpt lat="44.84684" lon="6.1191">
        <ele>2319.2</ele>
        <time>2024-08-13T13:33:28Z</time>
      </trkpt>
      <trkpt lat="44.84684" lon="6.1191">
        <ele>2319.4</ele>
        <time>2024-08-13T13:33:29Z</time>
      </trkpt>
      <trkpt lat="44.84684" lon="6.1191">
        <ele>2319.4</ele>
        <time>2024-08-13T13:33:30Z</time>
      </trkpt>
      <trkpt lat="44.84683" lon="6.11906">
        <ele>2319.4</ele>
        <time>2024-08-13T13:33:31Z</time>
      </trkpt>
      <trkpt lat="44.84683" lon="6.11906">
        <ele>2319.4</ele>
        <time>2024-08-13T13:33:32Z</time>
      </trkpt>
      <trkpt lat="44.84683" lon="6.11906">
        <ele>2319.6</ele>
        <time>2024-08-13T13:33:33Z</time>
      </trkpt>
      <trkpt lat="44.84682" lon="6.11904">
        <ele>2319.8</ele>
        <time>2024-08-13T13:33:34Z</time>
      </trkpt>
      <trkpt lat="44.84682" lon="6.11904">
        <ele>2319.8</ele>
        <time>2024-08-13T13:33:35Z</time>
      </trkpt>
      <trkpt lat="44.84682" lon="6.11904">
        <ele>2320.2</ele>
        <time>2024-08-13T13:33:36Z</time>
      </trkpt>
      <trkpt lat="44.8468" lon="6.11902">
        <ele>2320.6</ele>
        <time>2024-08-13T13:33:37Z</time>
      </trkpt>
      <trkpt lat="44.8468" lon="6.11902">
        <ele>2321</ele>
        <time>2024-08-13T13:33:38Z</time>
      </trkpt>
      <trkpt lat="44.84678" lon="6.119">
        <ele>2321</ele>
        <time>2024-08-13T13:33:39Z</time>
      </trkpt>
      <trkpt lat="44.84678" lon="6.119">
        <ele>2320.8</ele>
        <time>2024-08-13T13:33:40Z</time>
      </trkpt>
      <trkpt lat="44.84678" lon="6.119">
        <ele>2320.8</ele>
        <time>2024-08-13T13:33:41Z</time>
      </trkpt>
      <trkpt lat="44.84676" lon="6.11898">
        <ele>2321</ele>
        <time>2024-08-13T13:33:42Z</time>
      </trkpt>
      <trkpt lat="44.84676" lon="6.11898">
        <ele>2321.2</ele>
        <time>2024-08-13T13:33:43Z</time>
      </trkpt>
      <trkpt lat="44.84673" lon="6.11898">
        <ele>2321.4</ele>
        <time>2024-08-13T13:33:44Z</time>
      </trkpt>
      <trkpt lat="44.84673" lon="6.11898">
        <ele>2321.4</ele>
        <time>2024-08-13T13:33:45Z</time>
      </trkpt>
      <trkpt lat="44.84671" lon="6.11898">
        <ele>2321.4</ele>
        <time>2024-08-13T13:33:46Z</time>
      </trkpt>
      <trkpt lat="44.84671" lon="6.11898">
        <ele>2321.6</ele>
        <time>2024-08-13T13:33:47Z</time>
      </trkpt>
      <trkpt lat="44.84671" lon="6.11898">
        <ele>2321.6</ele>
        <time>2024-08-13T13:33:48Z</time>
      </trkpt>
      <trkpt lat="44.84669" lon="6.119">
        <ele>2322.2</ele>
        <time>2024-08-13T13:33:49Z</time>
      </trkpt>
      <trkpt lat="44.84669" lon="6.119">
        <ele>2322.2</ele>
        <time>2024-08-13T13:33:50Z</time>
      </trkpt>
      <trkpt lat="44.84667" lon="6.11901">
        <ele>2322.4</ele>
        <time>2024-08-13T13:33:51Z</time>
      </trkpt>
      <trkpt lat="44.84667" lon="6.11901">
        <ele>2322.4</ele>
        <time>2024-08-13T13:33:52Z</time>
      </trkpt>
      <trkpt lat="44.84665" lon="6.11902">
        <ele>2323.4</ele>
        <time>2024-08-13T13:33:53Z</time>
      </trkpt>
      <trkpt lat="44.84665" lon="6.11902">
        <ele>2323.8</ele>
        <time>2024-08-13T13:33:54Z</time>
      </trkpt>
      <trkpt lat="44.84665" lon="6.11902">
        <ele>2324</ele>
        <time>2024-08-13T13:33:55Z</time>
      </trkpt>
      <trkpt lat="44.84662" lon="6.11903">
        <ele>2324.2</ele>
        <time>2024-08-13T13:33:56Z</time>
      </trkpt>
      <trkpt lat="44.84662" lon="6.11903">
        <ele>2325</ele>
        <time>2024-08-13T13:33:57Z</time>
      </trkpt>
      <trkpt lat="44.84661" lon="6.11903">
        <ele>2325</ele>
        <time>2024-08-13T13:33:58Z</time>
      </trkpt>
      <trkpt lat="44.84661" lon="6.11903">
        <ele>2324.4</ele>
        <time>2024-08-13T13:33:59Z</time>
      </trkpt>
      <trkpt lat="44.84661" lon="6.11903">
        <ele>2324.4</ele>
        <time>2024-08-13T13:34:00Z</time>
      </trkpt>
      <trkpt lat="44.84658" lon="6.11903">
        <ele>2325.2</ele>
        <time>2024-08-13T13:34:01Z</time>
      </trkpt>
      <trkpt lat="44.84658" lon="6.11903">
        <ele>2325.4</ele>
        <time>2024-08-13T13:34:02Z</time>
      </trkpt>
      <trkpt lat="44.84658" lon="6.11903">
        <ele>2325.4</ele>
        <time>2024-08-13T13:34:03Z</time>
      </trkpt>
      <trkpt lat="44.84655" lon="6.11902">
        <ele>2326</ele>
        <time>2024-08-13T13:34:04Z</time>
      </trkpt>
      <trkpt lat="44.84655" lon="6.11902">
        <ele>2326.2</ele>
        <time>2024-08-13T13:34:05Z</time>
      </trkpt>
      <trkpt lat="44.84653" lon="6.11902">
        <ele>2326.2</ele>
        <time>2024-08-13T13:34:06Z</time>
      </trkpt>
      <trkpt lat="44.84653" lon="6.11902">
        <ele>2326.6</ele>
        <time>2024-08-13T13:34:07Z</time>
      </trkpt>
      <trkpt lat="44.84651" lon="6.11902">
        <ele>2326.6</ele>
        <time>2024-08-13T13:34:08Z</time>
      </trkpt>
      <trkpt lat="44.84651" lon="6.11902">
        <ele>2326.8</ele>
        <time>2024-08-13T13:34:09Z</time>
      </trkpt>
      <trkpt lat="44.84649" lon="6.11902">
        <ele>2327</ele>
        <time>2024-08-13T13:34:10Z</time>
      </trkpt>
      <trkpt lat="44.84649" lon="6.11902">
        <ele>2327</ele>
        <time>2024-08-13T13:34:11Z</time>
      </trkpt>
      <trkpt lat="44.84647" lon="6.11902">
        <ele>2327</ele>
        <time>2024-08-13T13:34:12Z</time>
      </trkpt>
      <trkpt lat="44.84647" lon="6.11902">
        <ele>2327</ele>
        <time>2024-08-13T13:34:13Z</time>
      </trkpt>
      <trkpt lat="44.84647" lon="6.11902">
        <ele>2327.2</ele>
        <time>2024-08-13T13:34:14Z</time>
      </trkpt>
      <trkpt lat="44.84645" lon="6.11903">
        <ele>2327.6</ele>
        <time>2024-08-13T13:34:15Z</time>
      </trkpt>
      <trkpt lat="44.84645" lon="6.11903">
        <ele>2328.2</ele>
        <time>2024-08-13T13:34:16Z</time>
      </trkpt>
      <trkpt lat="44.84643" lon="6.11903">
        <ele>2328.2</ele>
        <time>2024-08-13T13:34:17Z</time>
      </trkpt>
      <trkpt lat="44.84643" lon="6.11903">
        <ele>2328.6</ele>
        <time>2024-08-13T13:34:18Z</time>
      </trkpt>
      <trkpt lat="44.84641" lon="6.11904">
        <ele>2328.6</ele>
        <time>2024-08-13T13:34:19Z</time>
      </trkpt>
      <trkpt lat="44.84641" lon="6.11904">
        <ele>2328.8</ele>
        <time>2024-08-13T13:34:20Z</time>
      </trkpt>
      <trkpt lat="44.84639" lon="6.11904">
        <ele>2329</ele>
        <time>2024-08-13T13:34:21Z</time>
      </trkpt>
      <trkpt lat="44.84639" lon="6.11904">
        <ele>2329</ele>
        <time>2024-08-13T13:34:22Z</time>
      </trkpt>
      <trkpt lat="44.84639" lon="6.11904">
        <ele>2329</ele>
        <time>2024-08-13T13:34:23Z</time>
      </trkpt>
      <trkpt lat="44.84637" lon="6.11905">
        <ele>2329</ele>
        <time>2024-08-13T13:34:24Z</time>
      </trkpt>
      <trkpt lat="44.84637" lon="6.11905">
        <ele>2329</ele>
        <time>2024-08-13T13:34:25Z</time>
      </trkpt>
      <trkpt lat="44.84635" lon="6.11906">
        <ele>2329.2</ele>
        <time>2024-08-13T13:34:26Z</time>
      </trkpt>
      <trkpt lat="44.84635" lon="6.11906">
        <ele>2329.2</ele>
        <time>2024-08-13T13:34:27Z</time>
      </trkpt>
      <trkpt lat="44.84633" lon="6.11906">
        <ele>2330</ele>
        <time>2024-08-13T13:34:28Z</time>
      </trkpt>
      <trkpt lat="44.84633" lon="6.11906">
        <ele>2330</ele>
        <time>2024-08-13T13:34:29Z</time>
      </trkpt>
      <trkpt lat="44.84631" lon="6.11906">
        <ele>2330.2</ele>
        <time>2024-08-13T13:34:30Z</time>
      </trkpt>
      <trkpt lat="44.84631" lon="6.11906">
        <ele>2330.2</ele>
        <time>2024-08-13T13:34:31Z</time>
      </trkpt>
      <trkpt lat="44.84631" lon="6.11906">
        <ele>2330.4</ele>
        <time>2024-08-13T13:34:32Z</time>
      </trkpt>
      <trkpt lat="44.84628" lon="6.11905">
        <ele>2331</ele>
        <time>2024-08-13T13:34:33Z</time>
      </trkpt>
      <trkpt lat="44.84628" lon="6.11905">
        <ele>2331.2</ele>
        <time>2024-08-13T13:34:34Z</time>
      </trkpt>
      <trkpt lat="44.84626" lon="6.11905">
        <ele>2332</ele>
        <time>2024-08-13T13:34:35Z</time>
      </trkpt>
      <trkpt lat="44.84626" lon="6.11905">
        <ele>2332.2</ele>
        <time>2024-08-13T13:34:36Z</time>
      </trkpt>
      <trkpt lat="44.84626" lon="6.11905">
        <ele>2332.2</ele>
        <time>2024-08-13T13:34:37Z</time>
      </trkpt>
      <trkpt lat="44.84624" lon="6.11904">
        <ele>2332</ele>
        <time>2024-08-13T13:34:38Z</time>
      </trkpt>
      <trkpt lat="44.84624" lon="6.11904">
        <ele>2332</ele>
        <time>2024-08-13T13:34:39Z</time>
      </trkpt>
      <trkpt lat="44.84622" lon="6.11903">
        <ele>2332</ele>
        <time>2024-08-13T13:34:40Z</time>
      </trkpt>
      <trkpt lat="44.84622" lon="6.11903">
        <ele>2332</ele>
        <time>2024-08-13T13:34:41Z</time>
      </trkpt>
      <trkpt lat="44.84622" lon="6.11903">
        <ele>2332.2</ele>
        <time>2024-08-13T13:34:42Z</time>
      </trkpt>
      <trkpt lat="44.8462" lon="6.11901">
        <ele>2332.2</ele>
        <time>2024-08-13T13:34:43Z</time>
      </trkpt>
      <trkpt lat="44.8462" lon="6.11901">
        <ele>2332.2</ele>
        <time>2024-08-13T13:34:44Z</time>
      </trkpt>
      <trkpt lat="44.84618" lon="6.11899">
        <ele>2332.2</ele>
        <time>2024-08-13T13:34:45Z</time>
      </trkpt>
      <trkpt lat="44.84618" lon="6.11899">
        <ele>2332.2</ele>
        <time>2024-08-13T13:34:46Z</time>
      </trkpt>
      <trkpt lat="44.84618" lon="6.11899">
        <ele>2333</ele>
        <time>2024-08-13T13:34:47Z</time>
      </trkpt>
      <trkpt lat="44.84616" lon="6.11898">
        <ele>2333.4</ele>
        <time>2024-08-13T13:34:48Z</time>
      </trkpt>
      <trkpt lat="44.84616" lon="6.11898">
        <ele>2334.2</ele>
        <time>2024-08-13T13:34:49Z</time>
      </trkpt>
      <trkpt lat="44.84616" lon="6.11898">
        <ele>2334.2</ele>
        <time>2024-08-13T13:34:50Z</time>
      </trkpt>
      <trkpt lat="44.84613" lon="6.11896">
        <ele>2334.2</ele>
        <time>2024-08-13T13:34:51Z</time>
      </trkpt>
      <trkpt lat="44.84613" lon="6.11896">
        <ele>2334.2</ele>
        <time>2024-08-13T13:34:52Z</time>
      </trkpt>
      <trkpt lat="44.84613" lon="6.11896">
        <ele>2334.8</ele>
        <time>2024-08-13T13:34:53Z</time>
      </trkpt>
      <trkpt lat="44.84612" lon="6.11895">
        <ele>2334.8</ele>
        <time>2024-08-13T13:34:54Z</time>
      </trkpt>
      <trkpt lat="44.84612" lon="6.11895">
        <ele>2334.8</ele>
        <time>2024-08-13T13:34:55Z</time>
      </trkpt>
      <trkpt lat="44.8461" lon="6.11894">
        <ele>2334.6</ele>
        <time>2024-08-13T13:34:56Z</time>
      </trkpt>
      <trkpt lat="44.8461" lon="6.11894">
        <ele>2335</ele>
        <time>2024-08-13T13:34:57Z</time>
      </trkpt>
      <trkpt lat="44.84608" lon="6.11892">
        <ele>2335</ele>
        <time>2024-08-13T13:34:58Z</time>
      </trkpt>
      <trkpt lat="44.84608" lon="6.11892">
        <ele>2335</ele>
        <time>2024-08-13T13:34:59Z</time>
      </trkpt>
      <trkpt lat="44.84607" lon="6.1189">
        <ele>2335.2</ele>
        <time>2024-08-13T13:35:00Z</time>
      </trkpt>
      <trkpt lat="44.84607" lon="6.1189">
        <ele>2335.4</ele>
        <time>2024-08-13T13:35:01Z</time>
      </trkpt>
      <trkpt lat="44.84605" lon="6.11889">
        <ele>2336</ele>
        <time>2024-08-13T13:35:02Z</time>
      </trkpt>
      <trkpt lat="44.84605" lon="6.11889">
        <ele>2336</ele>
        <time>2024-08-13T13:35:03Z</time>
      </trkpt>
      <trkpt lat="44.84604" lon="6.11888">
        <ele>2336.2</ele>
        <time>2024-08-13T13:35:04Z</time>
      </trkpt>
      <trkpt lat="44.84604" lon="6.11888">
        <ele>2336.4</ele>
        <time>2024-08-13T13:35:05Z</time>
      </trkpt>
      <trkpt lat="44.84604" lon="6.11888">
        <ele>2336.4</ele>
        <time>2024-08-13T13:35:06Z</time>
      </trkpt>
      <trkpt lat="44.84601" lon="6.11886">
        <ele>2336.8</ele>
        <time>2024-08-13T13:35:07Z</time>
      </trkpt>
      <trkpt lat="44.84601" lon="6.11886">
        <ele>2336.8</ele>
        <time>2024-08-13T13:35:08Z</time>
      </trkpt>
      <trkpt lat="44.84599" lon="6.11885">
        <ele>2336.8</ele>
        <time>2024-08-13T13:35:09Z</time>
      </trkpt>
      <trkpt lat="44.84599" lon="6.11885">
        <ele>2337.4</ele>
        <time>2024-08-13T13:35:10Z</time>
      </trkpt>
      <trkpt lat="44.84597" lon="6.11884">
        <ele>2337.4</ele>
        <time>2024-08-13T13:35:11Z</time>
      </trkpt>
      <trkpt lat="44.84597" lon="6.11884">
        <ele>2337.4</ele>
        <time>2024-08-13T13:35:12Z</time>
      </trkpt>
      <trkpt lat="44.84597" lon="6.11884">
        <ele>2337.4</ele>
        <time>2024-08-13T13:35:13Z</time>
      </trkpt>
      <trkpt lat="44.84596" lon="6.11882">
        <ele>2337.6</ele>
        <time>2024-08-13T13:35:14Z</time>
      </trkpt>
      <trkpt lat="44.84596" lon="6.11882">
        <ele>2337.8</ele>
        <time>2024-08-13T13:35:15Z</time>
      </trkpt>
      <trkpt lat="44.84594" lon="6.11881">
        <ele>2338</ele>
        <time>2024-08-13T13:35:16Z</time>
      </trkpt>
      <trkpt lat="44.84594" lon="6.11881">
        <ele>2338.2</ele>
        <time>2024-08-13T13:35:17Z</time>
      </trkpt>
      <trkpt lat="44.84592" lon="6.11879">
        <ele>2338.4</ele>
        <time>2024-08-13T13:35:18Z</time>
      </trkpt>
      <trkpt lat="44.84592" lon="6.11879">
        <ele>2338.8</ele>
        <time>2024-08-13T13:35:19Z</time>
      </trkpt>
      <trkpt lat="44.8459" lon="6.11878">
        <ele>2338.8</ele>
        <time>2024-08-13T13:35:20Z</time>
      </trkpt>
      <trkpt lat="44.8459" lon="6.11878">
        <ele>2338.8</ele>
        <time>2024-08-13T13:35:21Z</time>
      </trkpt>
      <trkpt lat="44.84588" lon="6.11877">
        <ele>2339</ele>
        <time>2024-08-13T13:35:22Z</time>
      </trkpt>
      <trkpt lat="44.84588" lon="6.11877">
        <ele>2339</ele>
        <time>2024-08-13T13:35:23Z</time>
      </trkpt>
      <trkpt lat="44.84586" lon="6.11875">
        <ele>2339.4</ele>
        <time>2024-08-13T13:35:24Z</time>
      </trkpt>
      <trkpt lat="44.84586" lon="6.11875">
        <ele>2339.4</ele>
        <time>2024-08-13T13:35:25Z</time>
      </trkpt>
      <trkpt lat="44.84586" lon="6.11875">
        <ele>2339.6</ele>
        <time>2024-08-13T13:35:26Z</time>
      </trkpt>
      <trkpt lat="44.84584" lon="6.11873">
        <ele>2339.8</ele>
        <time>2024-08-13T13:35:27Z</time>
      </trkpt>
      <trkpt lat="44.84584" lon="6.11873">
        <ele>2339.8</ele>
        <time>2024-08-13T13:35:28Z</time>
      </trkpt>
      <trkpt lat="44.84582" lon="6.11872">
        <ele>2340</ele>
        <time>2024-08-13T13:35:29Z</time>
      </trkpt>
      <trkpt lat="44.84582" lon="6.11872">
        <ele>2340</ele>
        <time>2024-08-13T13:35:30Z</time>
      </trkpt>
      <trkpt lat="44.8458" lon="6.11871">
        <ele>2340.2</ele>
        <time>2024-08-13T13:35:31Z</time>
      </trkpt>
      <trkpt lat="44.8458" lon="6.11871">
        <ele>2340.4</ele>
        <time>2024-08-13T13:35:32Z</time>
      </trkpt>
      <trkpt lat="44.84578" lon="6.11869">
        <ele>2340.4</ele>
        <time>2024-08-13T13:35:33Z</time>
      </trkpt>
      <trkpt lat="44.84578" lon="6.11869">
        <ele>2340.4</ele>
        <time>2024-08-13T13:35:34Z</time>
      </trkpt>
      <trkpt lat="44.84576" lon="6.11868">
        <ele>2340.8</ele>
        <time>2024-08-13T13:35:35Z</time>
      </trkpt>
      <trkpt lat="44.84576" lon="6.11868">
        <ele>2340.8</ele>
        <time>2024-08-13T13:35:36Z</time>
      </trkpt>
      <trkpt lat="44.84574" lon="6.11868">
        <ele>2341</ele>
        <time>2024-08-13T13:35:37Z</time>
      </trkpt>
      <trkpt lat="44.84574" lon="6.11868">
        <ele>2341</ele>
        <time>2024-08-13T13:35:38Z</time>
      </trkpt>
      <trkpt lat="44.84573" lon="6.11866">
        <ele>2341</ele>
        <time>2024-08-13T13:35:39Z</time>
      </trkpt>
      <trkpt lat="44.84573" lon="6.11866">
        <ele>2341.4</ele>
        <time>2024-08-13T13:35:40Z</time>
      </trkpt>
      <trkpt lat="44.84572" lon="6.11864">
        <ele>2341.4</ele>
        <time>2024-08-13T13:35:41Z</time>
      </trkpt>
      <trkpt lat="44.84572" lon="6.11864">
        <ele>2341.4</ele>
        <time>2024-08-13T13:35:42Z</time>
      </trkpt>
      <trkpt lat="44.8457" lon="6.11862">
        <ele>2341.4</ele>
        <time>2024-08-13T13:35:43Z</time>
      </trkpt>
      <trkpt lat="44.8457" lon="6.11862">
        <ele>2341.4</ele>
        <time>2024-08-13T13:35:44Z</time>
      </trkpt>
      <trkpt lat="44.84568" lon="6.11859">
        <ele>2341.4</ele>
        <time>2024-08-13T13:35:45Z</time>
      </trkpt>
      <trkpt lat="44.84568" lon="6.11859">
        <ele>2341.4</ele>
        <time>2024-08-13T13:35:46Z</time>
      </trkpt>
      <trkpt lat="44.84567" lon="6.11856">
        <ele>2341.4</ele>
        <time>2024-08-13T13:35:47Z</time>
      </trkpt>
      <trkpt lat="44.84567" lon="6.11856">
        <ele>2341.4</ele>
        <time>2024-08-13T13:35:48Z</time>
      </trkpt>
      <trkpt lat="44.84566" lon="6.11853">
        <ele>2341.4</ele>
        <time>2024-08-13T13:35:49Z</time>
      </trkpt>
      <trkpt lat="44.84566" lon="6.11853">
        <ele>2341.2</ele>
        <time>2024-08-13T13:35:50Z</time>
      </trkpt>
      <trkpt lat="44.84564" lon="6.11851">
        <ele>2341.2</ele>
        <time>2024-08-13T13:35:51Z</time>
      </trkpt>
      <trkpt lat="44.84564" lon="6.11851">
        <ele>2341.2</ele>
        <time>2024-08-13T13:35:52Z</time>
      </trkpt>
      <trkpt lat="44.84563" lon="6.11849">
        <ele>2341.2</ele>
        <time>2024-08-13T13:35:53Z</time>
      </trkpt>
      <trkpt lat="44.84563" lon="6.11849">
        <ele>2341.2</ele>
        <time>2024-08-13T13:35:54Z</time>
      </trkpt>
      <trkpt lat="44.84562" lon="6.11846">
        <ele>2341.8</ele>
        <time>2024-08-13T13:35:55Z</time>
      </trkpt>
      <trkpt lat="44.84562" lon="6.11846">
        <ele>2341.8</ele>
        <time>2024-08-13T13:35:56Z</time>
      </trkpt>
      <trkpt lat="44.8456" lon="6.11844">
        <ele>2341.6</ele>
        <time>2024-08-13T13:35:57Z</time>
      </trkpt>
      <trkpt lat="44.8456" lon="6.11844">
        <ele>2341.4</ele>
        <time>2024-08-13T13:35:58Z</time>
      </trkpt>
      <trkpt lat="44.8456" lon="6.11844">
        <ele>2341.4</ele>
        <time>2024-08-13T13:35:59Z</time>
      </trkpt>
      <trkpt lat="44.8456" lon="6.11842">
        <ele>2341.6</ele>
        <time>2024-08-13T13:36:00Z</time>
      </trkpt>
      <trkpt lat="44.8456" lon="6.11842">
        <ele>2341.6</ele>
        <time>2024-08-13T13:36:01Z</time>
      </trkpt>
      <trkpt lat="44.84558" lon="6.11839">
        <ele>2342.2</ele>
        <time>2024-08-13T13:36:02Z</time>
      </trkpt>
      <trkpt lat="44.84558" lon="6.11839">
        <ele>2342.4</ele>
        <time>2024-08-13T13:36:03Z</time>
      </trkpt>
      <trkpt lat="44.84556" lon="6.11838">
        <ele>2342.6</ele>
        <time>2024-08-13T13:36:04Z</time>
      </trkpt>
      <trkpt lat="44.84556" lon="6.11838">
        <ele>2342.8</ele>
        <time>2024-08-13T13:36:05Z</time>
      </trkpt>
      <trkpt lat="44.84554" lon="6.11836">
        <ele>2342.8</ele>
        <time>2024-08-13T13:36:06Z</time>
      </trkpt>
      <trkpt lat="44.84554" lon="6.11836">
        <ele>2343</ele>
        <time>2024-08-13T13:36:07Z</time>
      </trkpt>
      <trkpt lat="44.84552" lon="6.11833">
        <ele>2342.8</ele>
        <time>2024-08-13T13:36:08Z</time>
      </trkpt>
      <trkpt lat="44.84552" lon="6.11833">
        <ele>2342.8</ele>
        <time>2024-08-13T13:36:09Z</time>
      </trkpt>
      <trkpt lat="44.8455" lon="6.11832">
        <ele>2342.4</ele>
        <time>2024-08-13T13:36:10Z</time>
      </trkpt>
      <trkpt lat="44.8455" lon="6.11832">
        <ele>2342.4</ele>
        <time>2024-08-13T13:36:11Z</time>
      </trkpt>
      <trkpt lat="44.84549" lon="6.1183">
        <ele>2342.6</ele>
        <time>2024-08-13T13:36:12Z</time>
      </trkpt>
      <trkpt lat="44.84549" lon="6.1183">
        <ele>2342.8</ele>
        <time>2024-08-13T13:36:13Z</time>
      </trkpt>
      <trkpt lat="44.84547" lon="6.11829">
        <ele>2343</ele>
        <time>2024-08-13T13:36:14Z</time>
      </trkpt>
      <trkpt lat="44.84547" lon="6.11829">
        <ele>2343</ele>
        <time>2024-08-13T13:36:15Z</time>
      </trkpt>
      <trkpt lat="44.84547" lon="6.11829">
        <ele>2343.6</ele>
        <time>2024-08-13T13:36:16Z</time>
      </trkpt>
      <trkpt lat="44.84545" lon="6.11827">
        <ele>2343.8</ele>
        <time>2024-08-13T13:36:17Z</time>
      </trkpt>
      <trkpt lat="44.84545" lon="6.11827">
        <ele>2343.8</ele>
        <time>2024-08-13T13:36:18Z</time>
      </trkpt>
      <trkpt lat="44.84543" lon="6.11826">
        <ele>2343.8</ele>
        <time>2024-08-13T13:36:19Z</time>
      </trkpt>
      <trkpt lat="44.84543" lon="6.11826">
        <ele>2343.8</ele>
        <time>2024-08-13T13:36:20Z</time>
      </trkpt>
      <trkpt lat="44.84543" lon="6.11826">
        <ele>2344</ele>
        <time>2024-08-13T13:36:21Z</time>
      </trkpt>
      <trkpt lat="44.8454" lon="6.11825">
        <ele>2344.2</ele>
        <time>2024-08-13T13:36:22Z</time>
      </trkpt>
      <trkpt lat="44.8454" lon="6.11825">
        <ele>2344.6</ele>
        <time>2024-08-13T13:36:23Z</time>
      </trkpt>
      <trkpt lat="44.84538" lon="6.11825">
        <ele>2344.8</ele>
        <time>2024-08-13T13:36:24Z</time>
      </trkpt>
      <trkpt lat="44.84538" lon="6.11825">
        <ele>2344.8</ele>
        <time>2024-08-13T13:36:25Z</time>
      </trkpt>
      <trkpt lat="44.84538" lon="6.11825">
        <ele>2344.8</ele>
        <time>2024-08-13T13:36:26Z</time>
      </trkpt>
      <trkpt lat="44.84535" lon="6.11826">
        <ele>2344.8</ele>
        <time>2024-08-13T13:36:27Z</time>
      </trkpt>
      <trkpt lat="44.84535" lon="6.11826">
        <ele>2345.2</ele>
        <time>2024-08-13T13:36:28Z</time>
      </trkpt>
      <trkpt lat="44.84535" lon="6.11826">
        <ele>2345.2</ele>
        <time>2024-08-13T13:36:29Z</time>
      </trkpt>
      <trkpt lat="44.84532" lon="6.11826">
        <ele>2345.2</ele>
        <time>2024-08-13T13:36:30Z</time>
      </trkpt>
      <trkpt lat="44.84532" lon="6.11826">
        <ele>2345.2</ele>
        <time>2024-08-13T13:36:31Z</time>
      </trkpt>
      <trkpt lat="44.8453" lon="6.11825">
        <ele>2345.6</ele>
        <time>2024-08-13T13:36:32Z</time>
      </trkpt>
      <trkpt lat="44.8453" lon="6.11825">
        <ele>2345.6</ele>
        <time>2024-08-13T13:36:33Z</time>
      </trkpt>
      <trkpt lat="44.84528" lon="6.11824">
        <ele>2345.6</ele>
        <time>2024-08-13T13:36:34Z</time>
      </trkpt>
      <trkpt lat="44.84528" lon="6.11824">
        <ele>2346</ele>
        <time>2024-08-13T13:36:35Z</time>
      </trkpt>
      <trkpt lat="44.84526" lon="6.11823">
        <ele>2346</ele>
        <time>2024-08-13T13:36:36Z</time>
      </trkpt>
      <trkpt lat="44.84526" lon="6.11823">
        <ele>2346</ele>
        <time>2024-08-13T13:36:37Z</time>
      </trkpt>
      <trkpt lat="44.84525" lon="6.11821">
        <ele>2346.4</ele>
        <time>2024-08-13T13:36:38Z</time>
      </trkpt>
      <trkpt lat="44.84525" lon="6.11821">
        <ele>2346.4</ele>
        <time>2024-08-13T13:36:39Z</time>
      </trkpt>
      <trkpt lat="44.84523" lon="6.11819">
        <ele>2346.6</ele>
        <time>2024-08-13T13:36:40Z</time>
      </trkpt>
      <trkpt lat="44.84523" lon="6.11819">
        <ele>2346.8</ele>
        <time>2024-08-13T13:36:41Z</time>
      </trkpt>
      <trkpt lat="44.84523" lon="6.11819">
        <ele>2347</ele>
        <time>2024-08-13T13:36:42Z</time>
      </trkpt>
      <trkpt lat="44.84521" lon="6.11818">
        <ele>2347</ele>
        <time>2024-08-13T13:36:43Z</time>
      </trkpt>
      <trkpt lat="44.84521" lon="6.11818">
        <ele>2347.2</ele>
        <time>2024-08-13T13:36:44Z</time>
      </trkpt>
      <trkpt lat="44.84521" lon="6.11818">
        <ele>2347.2</ele>
        <time>2024-08-13T13:36:45Z</time>
      </trkpt>
      <trkpt lat="44.84519" lon="6.11816">
        <ele>2347.6</ele>
        <time>2024-08-13T13:36:46Z</time>
      </trkpt>
      <trkpt lat="44.84519" lon="6.11816">
        <ele>2347.8</ele>
        <time>2024-08-13T13:36:47Z</time>
      </trkpt>
      <trkpt lat="44.84517" lon="6.11816">
        <ele>2348</ele>
        <time>2024-08-13T13:36:48Z</time>
      </trkpt>
      <trkpt lat="44.84517" lon="6.11816">
        <ele>2348</ele>
        <time>2024-08-13T13:36:49Z</time>
      </trkpt>
      <trkpt lat="44.84517" lon="6.11816">
        <ele>2348.2</ele>
        <time>2024-08-13T13:36:50Z</time>
      </trkpt>
      <trkpt lat="44.84515" lon="6.11815">
        <ele>2348.4</ele>
        <time>2024-08-13T13:36:51Z</time>
      </trkpt>
      <trkpt lat="44.84515" lon="6.11815">
        <ele>2348.4</ele>
        <time>2024-08-13T13:36:52Z</time>
      </trkpt>
      <trkpt lat="44.84513" lon="6.11815">
        <ele>2348.4</ele>
        <time>2024-08-13T13:36:53Z</time>
      </trkpt>
      <trkpt lat="44.84513" lon="6.11815">
        <ele>2348.6</ele>
        <time>2024-08-13T13:36:54Z</time>
      </trkpt>
      <trkpt lat="44.84513" lon="6.11815">
        <ele>2348.8</ele>
        <time>2024-08-13T13:36:55Z</time>
      </trkpt>
      <trkpt lat="44.8451" lon="6.11815">
        <ele>2348.8</ele>
        <time>2024-08-13T13:36:56Z</time>
      </trkpt>
      <trkpt lat="44.8451" lon="6.11815">
        <ele>2349.4</ele>
        <time>2024-08-13T13:36:57Z</time>
      </trkpt>
      <trkpt lat="44.84509" lon="6.11815">
        <ele>2349.6</ele>
        <time>2024-08-13T13:36:58Z</time>
      </trkpt>
      <trkpt lat="44.84509" lon="6.11815">
        <ele>2349.8</ele>
        <time>2024-08-13T13:36:59Z</time>
      </trkpt>
      <trkpt lat="44.84506" lon="6.11816">
        <ele>2350.2</ele>
        <time>2024-08-13T13:37:00Z</time>
      </trkpt>
      <trkpt lat="44.84506" lon="6.11816">
        <ele>2350.4</ele>
        <time>2024-08-13T13:37:01Z</time>
      </trkpt>
      <trkpt lat="44.84506" lon="6.11816">
        <ele>2350.8</ele>
        <time>2024-08-13T13:37:02Z</time>
      </trkpt>
      <trkpt lat="44.84504" lon="6.11816">
        <ele>2350.8</ele>
        <time>2024-08-13T13:37:03Z</time>
      </trkpt>
      <trkpt lat="44.84504" lon="6.11816">
        <ele>2350.8</ele>
        <time>2024-08-13T13:37:04Z</time>
      </trkpt>
      <trkpt lat="44.84502" lon="6.11817">
        <ele>2350.8</ele>
        <time>2024-08-13T13:37:05Z</time>
      </trkpt>
      <trkpt lat="44.84502" lon="6.11817">
        <ele>2350.8</ele>
        <time>2024-08-13T13:37:06Z</time>
      </trkpt>
      <trkpt lat="44.84499" lon="6.11816">
        <ele>2350.8</ele>
        <time>2024-08-13T13:37:07Z</time>
      </trkpt>
      <trkpt lat="44.84499" lon="6.11816">
        <ele>2351</ele>
        <time>2024-08-13T13:37:08Z</time>
      </trkpt>
      <trkpt lat="44.84499" lon="6.11816">
        <ele>2351</ele>
        <time>2024-08-13T13:37:09Z</time>
      </trkpt>
      <trkpt lat="44.84496" lon="6.11816">
        <ele>2350.8</ele>
        <time>2024-08-13T13:37:10Z</time>
      </trkpt>
      <trkpt lat="44.84496" lon="6.11816">
        <ele>2350.8</ele>
        <time>2024-08-13T13:37:11Z</time>
      </trkpt>
      <trkpt lat="44.84496" lon="6.11816">
        <ele>2351</ele>
        <time>2024-08-13T13:37:12Z</time>
      </trkpt>
      <trkpt lat="44.84494" lon="6.11816">
        <ele>2351.4</ele>
        <time>2024-08-13T13:37:13Z</time>
      </trkpt>
      <trkpt lat="44.84494" lon="6.11816">
        <ele>2351.4</ele>
        <time>2024-08-13T13:37:14Z</time>
      </trkpt>
      <trkpt lat="44.84494" lon="6.11816">
        <ele>2351.6</ele>
        <time>2024-08-13T13:37:15Z</time>
      </trkpt>
      <trkpt lat="44.84492" lon="6.11815">
        <ele>2351.6</ele>
        <time>2024-08-13T13:37:16Z</time>
      </trkpt>
      <trkpt lat="44.84492" lon="6.11815">
        <ele>2351.8</ele>
        <time>2024-08-13T13:37:17Z</time>
      </trkpt>
      <trkpt lat="44.8449" lon="6.11815">
        <ele>2352.2</ele>
        <time>2024-08-13T13:37:18Z</time>
      </trkpt>
      <trkpt lat="44.8449" lon="6.11815">
        <ele>2352.4</ele>
        <time>2024-08-13T13:37:19Z</time>
      </trkpt>
      <trkpt lat="44.84488" lon="6.11815">
        <ele>2352.6</ele>
        <time>2024-08-13T13:37:20Z</time>
      </trkpt>
      <trkpt lat="44.84488" lon="6.11815">
        <ele>2352.8</ele>
        <time>2024-08-13T13:37:21Z</time>
      </trkpt>
      <trkpt lat="44.84486" lon="6.11815">
        <ele>2353</ele>
        <time>2024-08-13T13:37:22Z</time>
      </trkpt>
      <trkpt lat="44.84486" lon="6.11815">
        <ele>2353.2</ele>
        <time>2024-08-13T13:37:23Z</time>
      </trkpt>
      <trkpt lat="44.84486" lon="6.11815">
        <ele>2353.4</ele>
        <time>2024-08-13T13:37:24Z</time>
      </trkpt>
      <trkpt lat="44.84484" lon="6.11815">
        <ele>2353.6</ele>
        <time>2024-08-13T13:37:25Z</time>
      </trkpt>
      <trkpt lat="44.84484" lon="6.11815">
        <ele>2353.6</ele>
        <time>2024-08-13T13:37:26Z</time>
      </trkpt>
      <trkpt lat="44.84482" lon="6.11815">
        <ele>2353.8</ele>
        <time>2024-08-13T13:37:27Z</time>
      </trkpt>
      <trkpt lat="44.84482" lon="6.11815">
        <ele>2353.8</ele>
        <time>2024-08-13T13:37:28Z</time>
      </trkpt>
      <trkpt lat="44.84482" lon="6.11815">
        <ele>2353.8</ele>
        <time>2024-08-13T13:37:29Z</time>
      </trkpt>
      <trkpt lat="44.8448" lon="6.11816">
        <ele>2354</ele>
        <time>2024-08-13T13:37:30Z</time>
      </trkpt>
      <trkpt lat="44.8448" lon="6.11816">
        <ele>2354</ele>
        <time>2024-08-13T13:37:31Z</time>
      </trkpt>
      <trkpt lat="44.84478" lon="6.11817">
        <ele>2354.2</ele>
        <time>2024-08-13T13:37:32Z</time>
      </trkpt>
      <trkpt lat="44.84478" lon="6.11817">
        <ele>2354.4</ele>
        <time>2024-08-13T13:37:33Z</time>
      </trkpt>
      <trkpt lat="44.84478" lon="6.11817">
        <ele>2354.6</ele>
        <time>2024-08-13T13:37:34Z</time>
      </trkpt>
      <trkpt lat="44.84475" lon="6.11816">
        <ele>2355</ele>
        <time>2024-08-13T13:37:35Z</time>
      </trkpt>
      <trkpt lat="44.84475" lon="6.11816">
        <ele>2355</ele>
        <time>2024-08-13T13:37:36Z</time>
      </trkpt>
      <trkpt lat="44.84475" lon="6.11816">
        <ele>2355.2</ele>
        <time>2024-08-13T13:37:37Z</time>
      </trkpt>
      <trkpt lat="44.84475" lon="6.11816">
        <ele>2355.4</ele>
        <time>2024-08-13T13:37:38Z</time>
      </trkpt>
      <trkpt lat="44.84473" lon="6.11818">
        <ele>2355.8</ele>
        <time>2024-08-13T13:37:39Z</time>
      </trkpt>
      <trkpt lat="44.84473" lon="6.11818">
        <ele>2355.8</ele>
        <time>2024-08-13T13:37:40Z</time>
      </trkpt>
      <trkpt lat="44.84471" lon="6.1182">
        <ele>2356.2</ele>
        <time>2024-08-13T13:37:41Z</time>
      </trkpt>
      <trkpt lat="44.84471" lon="6.1182">
        <ele>2356.2</ele>
        <time>2024-08-13T13:37:42Z</time>
      </trkpt>
      <trkpt lat="44.84471" lon="6.1182">
        <ele>2356.4</ele>
        <time>2024-08-13T13:37:43Z</time>
      </trkpt>
      <trkpt lat="44.84471" lon="6.1182">
        <ele>2356.4</ele>
        <time>2024-08-13T13:37:44Z</time>
      </trkpt>
      <trkpt lat="44.84471" lon="6.1182">
        <ele>2356.6</ele>
        <time>2024-08-13T13:37:45Z</time>
      </trkpt>
      <trkpt lat="44.84471" lon="6.1182">
        <ele>2356.6</ele>
        <time>2024-08-13T13:37:46Z</time>
      </trkpt>
      <trkpt lat="44.84471" lon="6.1182">
        <ele>2356.6</ele>
        <time>2024-08-13T13:37:47Z</time>
      </trkpt>
      <trkpt lat="44.84471" lon="6.1182">
        <ele>2356.8</ele>
        <time>2024-08-13T13:37:48Z</time>
      </trkpt>
      <trkpt lat="44.84471" lon="6.1182">
        <ele>2356.8</ele>
        <time>2024-08-13T13:37:49Z</time>
      </trkpt>
      <trkpt lat="44.84471" lon="6.1182">
        <ele>2356.8</ele>
        <time>2024-08-13T13:37:50Z</time>
      </trkpt>
      <trkpt lat="44.84471" lon="6.1182">
        <ele>2356.6</ele>
        <time>2024-08-13T13:37:51Z</time>
      </trkpt>
      <trkpt lat="44.84471" lon="6.1182">
        <ele>2356.6</ele>
        <time>2024-08-13T13:37:52Z</time>
      </trkpt>
      <trkpt lat="44.84471" lon="6.1182">
        <ele>2356.6</ele>
        <time>2024-08-13T13:37:53Z</time>
      </trkpt>
      <trkpt lat="44.84471" lon="6.1182">
        <ele>2356.6</ele>
        <time>2024-08-13T13:37:54Z</time>
      </trkpt>
      <trkpt lat="44.84471" lon="6.1182">
        <ele>2356.6</ele>
        <time>2024-08-13T13:37:55Z</time>
      </trkpt>
      <trkpt lat="44.84471" lon="6.1182">
        <ele>2356.8</ele>
        <time>2024-08-13T13:37:56Z</time>
      </trkpt>
      <trkpt lat="44.84472" lon="6.11817">
        <ele>2356.8</ele>
        <time>2024-08-13T13:37:57Z</time>
      </trkpt>
      <trkpt lat="44.84472" lon="6.11817">
        <ele>2357.2</ele>
        <time>2024-08-13T13:37:58Z</time>
      </trkpt>
      <trkpt lat="44.84473" lon="6.11814">
        <ele>2357.2</ele>
        <time>2024-08-13T13:37:59Z</time>
      </trkpt>
      <trkpt lat="44.84473" lon="6.11814">
        <ele>2357.4</ele>
        <time>2024-08-13T13:38:00Z</time>
      </trkpt>
      <trkpt lat="44.84475" lon="6.11812">
        <ele>2357.8</ele>
        <time>2024-08-13T13:38:01Z</time>
      </trkpt>
      <trkpt lat="44.84475" lon="6.11812">
        <ele>2358.2</ele>
        <time>2024-08-13T13:38:02Z</time>
      </trkpt>
      <trkpt lat="44.84477" lon="6.1181">
        <ele>2358.2</ele>
        <time>2024-08-13T13:38:03Z</time>
      </trkpt>
      <trkpt lat="44.84477" lon="6.1181">
        <ele>2358.2</ele>
        <time>2024-08-13T13:38:04Z</time>
      </trkpt>
      <trkpt lat="44.84478" lon="6.11808">
        <ele>2358.6</ele>
        <time>2024-08-13T13:38:05Z</time>
      </trkpt>
      <trkpt lat="44.84478" lon="6.11808">
        <ele>2358.8</ele>
        <time>2024-08-13T13:38:06Z</time>
      </trkpt>
      <trkpt lat="44.84478" lon="6.11808">
        <ele>2359.4</ele>
        <time>2024-08-13T13:38:07Z</time>
      </trkpt>
      <trkpt lat="44.8448" lon="6.11805">
        <ele>2359.4</ele>
        <time>2024-08-13T13:38:08Z</time>
      </trkpt>
      <trkpt lat="44.8448" lon="6.11805">
        <ele>2359.4</ele>
        <time>2024-08-13T13:38:09Z</time>
      </trkpt>
      <trkpt lat="44.84481" lon="6.11803">
        <ele>2359.4</ele>
        <time>2024-08-13T13:38:10Z</time>
      </trkpt>
      <trkpt lat="44.84481" lon="6.11803">
        <ele>2359.8</ele>
        <time>2024-08-13T13:38:11Z</time>
      </trkpt>
      <trkpt lat="44.84481" lon="6.11803">
        <ele>2360.2</ele>
        <time>2024-08-13T13:38:12Z</time>
      </trkpt>
      <trkpt lat="44.84483" lon="6.11801">
        <ele>2360.2</ele>
        <time>2024-08-13T13:38:13Z</time>
      </trkpt>
      <trkpt lat="44.84483" lon="6.11801">
        <ele>2360.4</ele>
        <time>2024-08-13T13:38:14Z</time>
      </trkpt>
      <trkpt lat="44.84485" lon="6.11799">
        <ele>2360.6</ele>
        <time>2024-08-13T13:38:15Z</time>
      </trkpt>
      <trkpt lat="44.84485" lon="6.11799">
        <ele>2360.6</ele>
        <time>2024-08-13T13:38:16Z</time>
      </trkpt>
      <trkpt lat="44.84487" lon="6.11798">
        <ele>2360.8</ele>
        <time>2024-08-13T13:38:17Z</time>
      </trkpt>
      <trkpt lat="44.84487" lon="6.11798">
        <ele>2360.8</ele>
        <time>2024-08-13T13:38:18Z</time>
      </trkpt>
      <trkpt lat="44.84489" lon="6.11797">
        <ele>2361</ele>
        <time>2024-08-13T13:38:19Z</time>
      </trkpt>
      <trkpt lat="44.84489" lon="6.11797">
        <ele>2361.4</ele>
        <time>2024-08-13T13:38:20Z</time>
      </trkpt>
      <trkpt lat="44.84489" lon="6.11797">
        <ele>2361.4</ele>
        <time>2024-08-13T13:38:21Z</time>
      </trkpt>
      <trkpt lat="44.8449" lon="6.11795">
        <ele>2361.8</ele>
        <time>2024-08-13T13:38:22Z</time>
      </trkpt>
      <trkpt lat="44.8449" lon="6.11795">
        <ele>2362.2</ele>
        <time>2024-08-13T13:38:23Z</time>
      </trkpt>
      <trkpt lat="44.8449" lon="6.11795">
        <ele>2362.4</ele>
        <time>2024-08-13T13:38:24Z</time>
      </trkpt>
      <trkpt lat="44.84492" lon="6.11792">
        <ele>2362.4</ele>
        <time>2024-08-13T13:38:25Z</time>
      </trkpt>
      <trkpt lat="44.84492" lon="6.11792">
        <ele>2362.6</ele>
        <time>2024-08-13T13:38:26Z</time>
      </trkpt>
      <trkpt lat="44.84492" lon="6.11792">
        <ele>2362.6</ele>
        <time>2024-08-13T13:38:27Z</time>
      </trkpt>
      <trkpt lat="44.84494" lon="6.1179">
        <ele>2362.8</ele>
        <time>2024-08-13T13:38:28Z</time>
      </trkpt>
      <trkpt lat="44.84494" lon="6.1179">
        <ele>2363</ele>
        <time>2024-08-13T13:38:29Z</time>
      </trkpt>
      <trkpt lat="44.84496" lon="6.11789">
        <ele>2363</ele>
        <time>2024-08-13T13:38:30Z</time>
      </trkpt>
      <trkpt lat="44.84496" lon="6.11789">
        <ele>2363</ele>
        <time>2024-08-13T13:38:31Z</time>
      </trkpt>
      <trkpt lat="44.84496" lon="6.11789">
        <ele>2363.4</ele>
        <time>2024-08-13T13:38:32Z</time>
      </trkpt>
      <trkpt lat="44.84498" lon="6.11788">
        <ele>2363.6</ele>
        <time>2024-08-13T13:38:33Z</time>
      </trkpt>
      <trkpt lat="44.84498" lon="6.11788">
        <ele>2363.6</ele>
        <time>2024-08-13T13:38:34Z</time>
      </trkpt>
      <trkpt lat="44.84501" lon="6.11786">
        <ele>2363.8</ele>
        <time>2024-08-13T13:38:35Z</time>
      </trkpt>
      <trkpt lat="44.84501" lon="6.11786">
        <ele>2363.8</ele>
        <time>2024-08-13T13:38:36Z</time>
      </trkpt>
      <trkpt lat="44.84502" lon="6.11785">
        <ele>2363.8</ele>
        <time>2024-08-13T13:38:37Z</time>
      </trkpt>
      <trkpt lat="44.84502" lon="6.11785">
        <ele>2364</ele>
        <time>2024-08-13T13:38:38Z</time>
      </trkpt>
      <trkpt lat="44.84502" lon="6.11785">
        <ele>2364</ele>
        <time>2024-08-13T13:38:39Z</time>
      </trkpt>
      <trkpt lat="44.84504" lon="6.11783">
        <ele>2364</ele>
        <time>2024-08-13T13:38:40Z</time>
      </trkpt>
      <trkpt lat="44.84504" lon="6.11783">
        <ele>2364</ele>
        <time>2024-08-13T13:38:41Z</time>
      </trkpt>
      <trkpt lat="44.84504" lon="6.11783">
        <ele>2364.4</ele>
        <time>2024-08-13T13:38:42Z</time>
      </trkpt>
      <trkpt lat="44.84506" lon="6.11781">
        <ele>2364.4</ele>
        <time>2024-08-13T13:38:43Z</time>
      </trkpt>
      <trkpt lat="44.84506" lon="6.11781">
        <ele>2364.6</ele>
        <time>2024-08-13T13:38:44Z</time>
      </trkpt>
      <trkpt lat="44.84508" lon="6.1178">
        <ele>2364.8</ele>
        <time>2024-08-13T13:38:45Z</time>
      </trkpt>
      <trkpt lat="44.84508" lon="6.1178">
        <ele>2364.8</ele>
        <time>2024-08-13T13:38:46Z</time>
      </trkpt>
      <trkpt lat="44.8451" lon="6.11778">
        <ele>2364.8</ele>
        <time>2024-08-13T13:38:47Z</time>
      </trkpt>
      <trkpt lat="44.8451" lon="6.11778">
        <ele>2365</ele>
        <time>2024-08-13T13:38:48Z</time>
      </trkpt>
      <trkpt lat="44.8451" lon="6.11778">
        <ele>2365</ele>
        <time>2024-08-13T13:38:49Z</time>
      </trkpt>
      <trkpt lat="44.84512" lon="6.11776">
        <ele>2365</ele>
        <time>2024-08-13T13:38:50Z</time>
      </trkpt>
      <trkpt lat="44.84512" lon="6.11776">
        <ele>2365.4</ele>
        <time>2024-08-13T13:38:51Z</time>
      </trkpt>
      <trkpt lat="44.84514" lon="6.11775">
        <ele>2365.4</ele>
        <time>2024-08-13T13:38:52Z</time>
      </trkpt>
      <trkpt lat="44.84514" lon="6.11775">
        <ele>2365.6</ele>
        <time>2024-08-13T13:38:53Z</time>
      </trkpt>
      <trkpt lat="44.84516" lon="6.11774">
        <ele>2366</ele>
        <time>2024-08-13T13:38:54Z</time>
      </trkpt>
      <trkpt lat="44.84516" lon="6.11774">
        <ele>2366</ele>
        <time>2024-08-13T13:38:55Z</time>
      </trkpt>
      <trkpt lat="44.84516" lon="6.11774">
        <ele>2366</ele>
        <time>2024-08-13T13:38:56Z</time>
      </trkpt>
      <trkpt lat="44.84516" lon="6.11774">
        <ele>2366</ele>
        <time>2024-08-13T13:38:57Z</time>
      </trkpt>
      <trkpt lat="44.84518" lon="6.11774">
        <ele>2366</ele>
        <time>2024-08-13T13:38:58Z</time>
      </trkpt>
      <trkpt lat="44.84518" lon="6.11774">
        <ele>2366</ele>
        <time>2024-08-13T13:38:59Z</time>
      </trkpt>
      <trkpt lat="44.84518" lon="6.11774">
        <ele>2366.4</ele>
        <time>2024-08-13T13:39:00Z</time>
      </trkpt>
      <trkpt lat="44.8452" lon="6.11773">
        <ele>2366.4</ele>
        <time>2024-08-13T13:39:01Z</time>
      </trkpt>
      <trkpt lat="44.8452" lon="6.11773">
        <ele>2367.2</ele>
        <time>2024-08-13T13:39:02Z</time>
      </trkpt>
      <trkpt lat="44.84523" lon="6.11772">
        <ele>2367.2</ele>
        <time>2024-08-13T13:39:03Z</time>
      </trkpt>
      <trkpt lat="44.84523" lon="6.11772">
        <ele>2367.4</ele>
        <time>2024-08-13T13:39:04Z</time>
      </trkpt>
      <trkpt lat="44.84525" lon="6.11771">
        <ele>2367.6</ele>
        <time>2024-08-13T13:39:05Z</time>
      </trkpt>
      <trkpt lat="44.84525" lon="6.11771">
        <ele>2368</ele>
        <time>2024-08-13T13:39:06Z</time>
      </trkpt>
      <trkpt lat="44.84526" lon="6.11771">
        <ele>2368</ele>
        <time>2024-08-13T13:39:07Z</time>
      </trkpt>
      <trkpt lat="44.84526" lon="6.11771">
        <ele>2368.2</ele>
        <time>2024-08-13T13:39:08Z</time>
      </trkpt>
      <trkpt lat="44.84526" lon="6.11771">
        <ele>2368.4</ele>
        <time>2024-08-13T13:39:09Z</time>
      </trkpt>
      <trkpt lat="44.84526" lon="6.11771">
        <ele>2368.8</ele>
        <time>2024-08-13T13:39:10Z</time>
      </trkpt>
      <trkpt lat="44.84528" lon="6.1177">
        <ele>2368.8</ele>
        <time>2024-08-13T13:39:11Z</time>
      </trkpt>
      <trkpt lat="44.84528" lon="6.1177">
        <ele>2369</ele>
        <time>2024-08-13T13:39:12Z</time>
      </trkpt>
      <trkpt lat="44.84528" lon="6.1177">
        <ele>2369</ele>
        <time>2024-08-13T13:39:13Z</time>
      </trkpt>
      <trkpt lat="44.84528" lon="6.1177">
        <ele>2369.2</ele>
        <time>2024-08-13T13:39:14Z</time>
      </trkpt>
      <trkpt lat="44.8453" lon="6.11771">
        <ele>2369.2</ele>
        <time>2024-08-13T13:39:15Z</time>
      </trkpt>
      <trkpt lat="44.8453" lon="6.11771">
        <ele>2369.4</ele>
        <time>2024-08-13T13:39:16Z</time>
      </trkpt>
      <trkpt lat="44.8453" lon="6.11771">
        <ele>2369.4</ele>
        <time>2024-08-13T13:39:17Z</time>
      </trkpt>
      <trkpt lat="44.84532" lon="6.1177">
        <ele>2369.2</ele>
        <time>2024-08-13T13:39:18Z</time>
      </trkpt>
      <trkpt lat="44.84532" lon="6.1177">
        <ele>2369.2</ele>
        <time>2024-08-13T13:39:19Z</time>
      </trkpt>
      <trkpt lat="44.84532" lon="6.1177">
        <ele>2369.2</ele>
        <time>2024-08-13T13:39:20Z</time>
      </trkpt>
      <trkpt lat="44.84534" lon="6.11769">
        <ele>2369</ele>
        <time>2024-08-13T13:39:21Z</time>
      </trkpt>
      <trkpt lat="44.84534" lon="6.11769">
        <ele>2369</ele>
        <time>2024-08-13T13:39:22Z</time>
      </trkpt>
      <trkpt lat="44.84536" lon="6.11768">
        <ele>2369.2</ele>
        <time>2024-08-13T13:39:23Z</time>
      </trkpt>
      <trkpt lat="44.84536" lon="6.11768">
        <ele>2369.4</ele>
        <time>2024-08-13T13:39:24Z</time>
      </trkpt>
      <trkpt lat="44.84538" lon="6.11768">
        <ele>2369.4</ele>
        <time>2024-08-13T13:39:25Z</time>
      </trkpt>
      <trkpt lat="44.84538" lon="6.11768">
        <ele>2369.6</ele>
        <time>2024-08-13T13:39:26Z</time>
      </trkpt>
      <trkpt lat="44.8454" lon="6.11768">
        <ele>2369.6</ele>
        <time>2024-08-13T13:39:27Z</time>
      </trkpt>
      <trkpt lat="44.8454" lon="6.11768">
        <ele>2370.4</ele>
        <time>2024-08-13T13:39:28Z</time>
      </trkpt>
      <trkpt lat="44.84542" lon="6.11768">
        <ele>2371.4</ele>
        <time>2024-08-13T13:39:29Z</time>
      </trkpt>
      <trkpt lat="44.84542" lon="6.11768">
        <ele>2371.4</ele>
        <time>2024-08-13T13:39:30Z</time>
      </trkpt>
      <trkpt lat="44.84544" lon="6.11768">
        <ele>2371.6</ele>
        <time>2024-08-13T13:39:31Z</time>
      </trkpt>
      <trkpt lat="44.84544" lon="6.11768">
        <ele>2371.6</ele>
        <time>2024-08-13T13:39:32Z</time>
      </trkpt>
      <trkpt lat="44.84544" lon="6.11768">
        <ele>2371.6</ele>
        <time>2024-08-13T13:39:33Z</time>
      </trkpt>
      <trkpt lat="44.84547" lon="6.11767">
        <ele>2371.4</ele>
        <time>2024-08-13T13:39:34Z</time>
      </trkpt>
      <trkpt lat="44.84547" lon="6.11767">
        <ele>2371.4</ele>
        <time>2024-08-13T13:39:35Z</time>
      </trkpt>
      <trkpt lat="44.84547" lon="6.11767">
        <ele>2371.4</ele>
        <time>2024-08-13T13:39:36Z</time>
      </trkpt>
      <trkpt lat="44.84549" lon="6.11767">
        <ele>2371.4</ele>
        <time>2024-08-13T13:39:37Z</time>
      </trkpt>
      <trkpt lat="44.84549" lon="6.11767">
        <ele>2371.6</ele>
        <time>2024-08-13T13:39:38Z</time>
      </trkpt>
      <trkpt lat="44.84551" lon="6.11766">
        <ele>2371.8</ele>
        <time>2024-08-13T13:39:39Z</time>
      </trkpt>
      <trkpt lat="44.84551" lon="6.11766">
        <ele>2371.8</ele>
        <time>2024-08-13T13:39:40Z</time>
      </trkpt>
      <trkpt lat="44.84553" lon="6.11766">
        <ele>2372.2</ele>
        <time>2024-08-13T13:39:41Z</time>
      </trkpt>
      <trkpt lat="44.84553" lon="6.11766">
        <ele>2372.4</ele>
        <time>2024-08-13T13:39:42Z</time>
      </trkpt>
      <trkpt lat="44.84553" lon="6.11766">
        <ele>2372.4</ele>
        <time>2024-08-13T13:39:43Z</time>
      </trkpt>
      <trkpt lat="44.84556" lon="6.11765">
        <ele>2372.6</ele>
        <time>2024-08-13T13:39:44Z</time>
      </trkpt>
      <trkpt lat="44.84556" lon="6.11765">
        <ele>2373</ele>
        <time>2024-08-13T13:39:45Z</time>
      </trkpt>
      <trkpt lat="44.84558" lon="6.11765">
        <ele>2373</ele>
        <time>2024-08-13T13:39:46Z</time>
      </trkpt>
      <trkpt lat="44.84558" lon="6.11765">
        <ele>2373</ele>
        <time>2024-08-13T13:39:47Z</time>
      </trkpt>
      <trkpt lat="44.84558" lon="6.11765">
        <ele>2373</ele>
        <time>2024-08-13T13:39:48Z</time>
      </trkpt>
      <trkpt lat="44.8456" lon="6.11764">
        <ele>2373.2</ele>
        <time>2024-08-13T13:39:49Z</time>
      </trkpt>
      <trkpt lat="44.8456" lon="6.11764">
        <ele>2373.8</ele>
        <time>2024-08-13T13:39:50Z</time>
      </trkpt>
      <trkpt lat="44.84562" lon="6.11763">
        <ele>2373.8</ele>
        <time>2024-08-13T13:39:51Z</time>
      </trkpt>
      <trkpt lat="44.84562" lon="6.11763">
        <ele>2374</ele>
        <time>2024-08-13T13:39:52Z</time>
      </trkpt>
      <trkpt lat="44.84564" lon="6.11763">
        <ele>2374</ele>
        <time>2024-08-13T13:39:53Z</time>
      </trkpt>
      <trkpt lat="44.84564" lon="6.11763">
        <ele>2374.2</ele>
        <time>2024-08-13T13:39:54Z</time>
      </trkpt>
      <trkpt lat="44.84564" lon="6.11763">
        <ele>2374.2</ele>
        <time>2024-08-13T13:39:55Z</time>
      </trkpt>
      <trkpt lat="44.84566" lon="6.11763">
        <ele>2374.4</ele>
        <time>2024-08-13T13:39:56Z</time>
      </trkpt>
      <trkpt lat="44.84566" lon="6.11763">
        <ele>2375</ele>
        <time>2024-08-13T13:39:57Z</time>
      </trkpt>
      <trkpt lat="44.84566" lon="6.11763">
        <ele>2375</ele>
        <time>2024-08-13T13:39:58Z</time>
      </trkpt>
      <trkpt lat="44.84568" lon="6.11764">
        <ele>2375</ele>
        <time>2024-08-13T13:39:59Z</time>
      </trkpt>
      <trkpt lat="44.84568" lon="6.11764">
        <ele>2375.4</ele>
        <time>2024-08-13T13:40:00Z</time>
      </trkpt>
      <trkpt lat="44.84568" lon="6.11764">
        <ele>2375.4</ele>
        <time>2024-08-13T13:40:01Z</time>
      </trkpt>
      <trkpt lat="44.8457" lon="6.11765">
        <ele>2375.8</ele>
        <time>2024-08-13T13:40:02Z</time>
      </trkpt>
      <trkpt lat="44.8457" lon="6.11765">
        <ele>2375.8</ele>
        <time>2024-08-13T13:40:03Z</time>
      </trkpt>
      <trkpt lat="44.84573" lon="6.11766">
        <ele>2375.8</ele>
        <time>2024-08-13T13:40:04Z</time>
      </trkpt>
      <trkpt lat="44.84573" lon="6.11766">
        <ele>2376.2</ele>
        <time>2024-08-13T13:40:05Z</time>
      </trkpt>
      <trkpt lat="44.84573" lon="6.11766">
        <ele>2376.8</ele>
        <time>2024-08-13T13:40:06Z</time>
      </trkpt>
      <trkpt lat="44.84573" lon="6.11766">
        <ele>2376.8</ele>
        <time>2024-08-13T13:40:07Z</time>
      </trkpt>
      <trkpt lat="44.84575" lon="6.11767">
        <ele>2376.8</ele>
        <time>2024-08-13T13:40:08Z</time>
      </trkpt>
      <trkpt lat="44.84575" lon="6.11767">
        <ele>2376.8</ele>
        <time>2024-08-13T13:40:09Z</time>
      </trkpt>
      <trkpt lat="44.84575" lon="6.11767">
        <ele>2376.8</ele>
        <time>2024-08-13T13:40:10Z</time>
      </trkpt>
      <trkpt lat="44.84578" lon="6.11768">
        <ele>2376.8</ele>
        <time>2024-08-13T13:40:11Z</time>
      </trkpt>
      <trkpt lat="44.84578" lon="6.11768">
        <ele>2377</ele>
        <time>2024-08-13T13:40:12Z</time>
      </trkpt>
      <trkpt lat="44.84578" lon="6.11768">
        <ele>2377.2</ele>
        <time>2024-08-13T13:40:13Z</time>
      </trkpt>
      <trkpt lat="44.8458" lon="6.11768">
        <ele>2377.2</ele>
        <time>2024-08-13T13:40:14Z</time>
      </trkpt>
      <trkpt lat="44.8458" lon="6.11768">
        <ele>2377.4</ele>
        <time>2024-08-13T13:40:15Z</time>
      </trkpt>
      <trkpt lat="44.84582" lon="6.11769">
        <ele>2377.6</ele>
        <time>2024-08-13T13:40:16Z</time>
      </trkpt>
      <trkpt lat="44.84582" lon="6.11769">
        <ele>2377.6</ele>
        <time>2024-08-13T13:40:17Z</time>
      </trkpt>
      <trkpt lat="44.84582" lon="6.11769">
        <ele>2378.4</ele>
        <time>2024-08-13T13:40:18Z</time>
      </trkpt>
      <trkpt lat="44.84585" lon="6.1177">
        <ele>2378.4</ele>
        <time>2024-08-13T13:40:19Z</time>
      </trkpt>
      <trkpt lat="44.84585" lon="6.1177">
        <ele>2378.2</ele>
        <time>2024-08-13T13:40:20Z</time>
      </trkpt>
      <trkpt lat="44.84587" lon="6.11771">
        <ele>2378.2</ele>
        <time>2024-08-13T13:40:21Z</time>
      </trkpt>
      <trkpt lat="44.84587" lon="6.11771">
        <ele>2378.4</ele>
        <time>2024-08-13T13:40:22Z</time>
      </trkpt>
      <trkpt lat="44.84587" lon="6.11771">
        <ele>2378.8</ele>
        <time>2024-08-13T13:40:23Z</time>
      </trkpt>
      <trkpt lat="44.84587" lon="6.11771">
        <ele>2378.8</ele>
        <time>2024-08-13T13:40:24Z</time>
      </trkpt>
      <trkpt lat="44.84588" lon="6.11773">
        <ele>2378.8</ele>
        <time>2024-08-13T13:40:25Z</time>
      </trkpt>
      <trkpt lat="44.84588" lon="6.11773">
        <ele>2379.2</ele>
        <time>2024-08-13T13:40:26Z</time>
      </trkpt>
      <trkpt lat="44.84588" lon="6.11773">
        <ele>2379.4</ele>
        <time>2024-08-13T13:40:27Z</time>
      </trkpt>
      <trkpt lat="44.84591" lon="6.11774">
        <ele>2379.4</ele>
        <time>2024-08-13T13:40:28Z</time>
      </trkpt>
      <trkpt lat="44.84591" lon="6.11774">
        <ele>2379.4</ele>
        <time>2024-08-13T13:40:29Z</time>
      </trkpt>
      <trkpt lat="44.84593" lon="6.11775">
        <ele>2379.4</ele>
        <time>2024-08-13T13:40:30Z</time>
      </trkpt>
      <trkpt lat="44.84593" lon="6.11775">
        <ele>2379.6</ele>
        <time>2024-08-13T13:40:31Z</time>
      </trkpt>
      <trkpt lat="44.84593" lon="6.11775">
        <ele>2379.8</ele>
        <time>2024-08-13T13:40:32Z</time>
      </trkpt>
      <trkpt lat="44.84593" lon="6.11775">
        <ele>2380</ele>
        <time>2024-08-13T13:40:33Z</time>
      </trkpt>
      <trkpt lat="44.84595" lon="6.11776">
        <ele>2380.4</ele>
        <time>2024-08-13T13:40:34Z</time>
      </trkpt>
      <trkpt lat="44.84595" lon="6.11776">
        <ele>2380.4</ele>
        <time>2024-08-13T13:40:35Z</time>
      </trkpt>
      <trkpt lat="44.84597" lon="6.11776">
        <ele>2380.6</ele>
        <time>2024-08-13T13:40:36Z</time>
      </trkpt>
      <trkpt lat="44.84597" lon="6.11776">
        <ele>2381.2</ele>
        <time>2024-08-13T13:40:37Z</time>
      </trkpt>
      <trkpt lat="44.84599" lon="6.11777">
        <ele>2381.4</ele>
        <time>2024-08-13T13:40:38Z</time>
      </trkpt>
      <trkpt lat="44.84599" lon="6.11777">
        <ele>2381.4</ele>
        <time>2024-08-13T13:40:39Z</time>
      </trkpt>
      <trkpt lat="44.84602" lon="6.11777">
        <ele>2381.4</ele>
        <time>2024-08-13T13:40:40Z</time>
      </trkpt>
      <trkpt lat="44.84602" lon="6.11777">
        <ele>2381.6</ele>
        <time>2024-08-13T13:40:41Z</time>
      </trkpt>
      <trkpt lat="44.84604" lon="6.11777">
        <ele>2381.6</ele>
        <time>2024-08-13T13:40:42Z</time>
      </trkpt>
      <trkpt lat="44.84604" lon="6.11777">
        <ele>2381.6</ele>
        <time>2024-08-13T13:40:43Z</time>
      </trkpt>
      <trkpt lat="44.84604" lon="6.11777">
        <ele>2382</ele>
        <time>2024-08-13T13:40:44Z</time>
      </trkpt>
      <trkpt lat="44.84606" lon="6.11777">
        <ele>2382</ele>
        <time>2024-08-13T13:40:45Z</time>
      </trkpt>
      <trkpt lat="44.84606" lon="6.11777">
        <ele>2382.2</ele>
        <time>2024-08-13T13:40:46Z</time>
      </trkpt>
      <trkpt lat="44.84609" lon="6.11777">
        <ele>2382.6</ele>
        <time>2024-08-13T13:40:47Z</time>
      </trkpt>
      <trkpt lat="44.84609" lon="6.11777">
        <ele>2382.6</ele>
        <time>2024-08-13T13:40:48Z</time>
      </trkpt>
      <trkpt lat="44.84611" lon="6.11777">
        <ele>2382.8</ele>
        <time>2024-08-13T13:40:49Z</time>
      </trkpt>
      <trkpt lat="44.84611" lon="6.11777">
        <ele>2382.8</ele>
        <time>2024-08-13T13:40:50Z</time>
      </trkpt>
      <trkpt lat="44.84613" lon="6.11777">
        <ele>2382.8</ele>
        <time>2024-08-13T13:40:51Z</time>
      </trkpt>
      <trkpt lat="44.84613" lon="6.11777">
        <ele>2383.2</ele>
        <time>2024-08-13T13:40:52Z</time>
      </trkpt>
      <trkpt lat="44.84615" lon="6.11776">
        <ele>2383.4</ele>
        <time>2024-08-13T13:40:53Z</time>
      </trkpt>
      <trkpt lat="44.84615" lon="6.11776">
        <ele>2383.4</ele>
        <time>2024-08-13T13:40:54Z</time>
      </trkpt>
      <trkpt lat="44.84617" lon="6.11775">
        <ele>2383.6</ele>
        <time>2024-08-13T13:40:55Z</time>
      </trkpt>
      <trkpt lat="44.84617" lon="6.11775">
        <ele>2383.6</ele>
        <time>2024-08-13T13:40:56Z</time>
      </trkpt>
      <trkpt lat="44.84617" lon="6.11775">
        <ele>2383.8</ele>
        <time>2024-08-13T13:40:57Z</time>
      </trkpt>
      <trkpt lat="44.84619" lon="6.11773">
        <ele>2384.2</ele>
        <time>2024-08-13T13:40:58Z</time>
      </trkpt>
      <trkpt lat="44.84619" lon="6.11773">
        <ele>2384.6</ele>
        <time>2024-08-13T13:40:59Z</time>
      </trkpt>
      <trkpt lat="44.84621" lon="6.11772">
        <ele>2384.8</ele>
        <time>2024-08-13T13:41:00Z</time>
      </trkpt>
      <trkpt lat="44.84621" lon="6.11772">
        <ele>2385</ele>
        <time>2024-08-13T13:41:01Z</time>
      </trkpt>
      <trkpt lat="44.84623" lon="6.11771">
        <ele>2385.2</ele>
        <time>2024-08-13T13:41:02Z</time>
      </trkpt>
      <trkpt lat="44.84623" lon="6.11771">
        <ele>2385.2</ele>
        <time>2024-08-13T13:41:03Z</time>
      </trkpt>
      <trkpt lat="44.84626" lon="6.1177">
        <ele>2385.2</ele>
        <time>2024-08-13T13:41:04Z</time>
      </trkpt>
      <trkpt lat="44.84626" lon="6.1177">
        <ele>2385</ele>
        <time>2024-08-13T13:41:05Z</time>
      </trkpt>
      <trkpt lat="44.84628" lon="6.11769">
        <ele>2385</ele>
        <time>2024-08-13T13:41:06Z</time>
      </trkpt>
      <trkpt lat="44.84628" lon="6.11769">
        <ele>2385</ele>
        <time>2024-08-13T13:41:07Z</time>
      </trkpt>
      <trkpt lat="44.8463" lon="6.11767">
        <ele>2385.2</ele>
        <time>2024-08-13T13:41:08Z</time>
      </trkpt>
      <trkpt lat="44.8463" lon="6.11767">
        <ele>2385.6</ele>
        <time>2024-08-13T13:41:09Z</time>
      </trkpt>
      <trkpt lat="44.84632" lon="6.11766">
        <ele>2386.6</ele>
        <time>2024-08-13T13:41:10Z</time>
      </trkpt>
      <trkpt lat="44.84632" lon="6.11766">
        <ele>2386.6</ele>
        <time>2024-08-13T13:41:11Z</time>
      </trkpt>
      <trkpt lat="44.84633" lon="6.11764">
        <ele>2386.8</ele>
        <time>2024-08-13T13:41:12Z</time>
      </trkpt>
      <trkpt lat="44.84633" lon="6.11764">
        <ele>2386.8</ele>
        <time>2024-08-13T13:41:13Z</time>
      </trkpt>
      <trkpt lat="44.84633" lon="6.11764">
        <ele>2387</ele>
        <time>2024-08-13T13:41:14Z</time>
      </trkpt>
      <trkpt lat="44.84635" lon="6.11762">
        <ele>2387</ele>
        <time>2024-08-13T13:41:15Z</time>
      </trkpt>
      <trkpt lat="44.84635" lon="6.11762">
        <ele>2387.6</ele>
        <time>2024-08-13T13:41:16Z</time>
      </trkpt>
      <trkpt lat="44.84636" lon="6.11759">
        <ele>2388</ele>
        <time>2024-08-13T13:41:17Z</time>
      </trkpt>
      <trkpt lat="44.84636" lon="6.11759">
        <ele>2388.6</ele>
        <time>2024-08-13T13:41:18Z</time>
      </trkpt>
      <trkpt lat="44.84637" lon="6.11757">
        <ele>2388.8</ele>
        <time>2024-08-13T13:41:19Z</time>
      </trkpt>
      <trkpt lat="44.84637" lon="6.11757">
        <ele>2389</ele>
        <time>2024-08-13T13:41:20Z</time>
      </trkpt>
      <trkpt lat="44.84637" lon="6.11757">
        <ele>2389.4</ele>
        <time>2024-08-13T13:41:21Z</time>
      </trkpt>
      <trkpt lat="44.84638" lon="6.11753">
        <ele>2389.4</ele>
        <time>2024-08-13T13:41:22Z</time>
      </trkpt>
      <trkpt lat="44.84638" lon="6.11753">
        <ele>2389.8</ele>
        <time>2024-08-13T13:41:23Z</time>
      </trkpt>
      <trkpt lat="44.84638" lon="6.11753">
        <ele>2390.2</ele>
        <time>2024-08-13T13:41:24Z</time>
      </trkpt>
      <trkpt lat="44.84641" lon="6.11751">
        <ele>2390.4</ele>
        <time>2024-08-13T13:41:25Z</time>
      </trkpt>
      <trkpt lat="44.84641" lon="6.11751">
        <ele>2390.6</ele>
        <time>2024-08-13T13:41:26Z</time>
      </trkpt>
      <trkpt lat="44.84643" lon="6.1175">
        <ele>2391.4</ele>
        <time>2024-08-13T13:41:27Z</time>
      </trkpt>
      <trkpt lat="44.84643" lon="6.1175">
        <ele>2391.6</ele>
        <time>2024-08-13T13:41:28Z</time>
      </trkpt>
      <trkpt lat="44.84644" lon="6.11748">
        <ele>2391.8</ele>
        <time>2024-08-13T13:41:29Z</time>
      </trkpt>
      <trkpt lat="44.84644" lon="6.11748">
        <ele>2392</ele>
        <time>2024-08-13T13:41:30Z</time>
      </trkpt>
      <trkpt lat="44.84646" lon="6.11747">
        <ele>2392.4</ele>
        <time>2024-08-13T13:41:31Z</time>
      </trkpt>
      <trkpt lat="44.84646" lon="6.11747">
        <ele>2393</ele>
        <time>2024-08-13T13:41:32Z</time>
      </trkpt>
      <trkpt lat="44.84649" lon="6.11745">
        <ele>2393.2</ele>
        <time>2024-08-13T13:41:33Z</time>
      </trkpt>
      <trkpt lat="44.84649" lon="6.11745">
        <ele>2393.2</ele>
        <time>2024-08-13T13:41:34Z</time>
      </trkpt>
      <trkpt lat="44.84649" lon="6.11745">
        <ele>2393.2</ele>
        <time>2024-08-13T13:41:35Z</time>
      </trkpt>
      <trkpt lat="44.84651" lon="6.11743">
        <ele>2393.4</ele>
        <time>2024-08-13T13:41:36Z</time>
      </trkpt>
      <trkpt lat="44.84651" lon="6.11743">
        <ele>2393.4</ele>
        <time>2024-08-13T13:41:37Z</time>
      </trkpt>
      <trkpt lat="44.84651" lon="6.1174">
        <ele>2393.4</ele>
        <time>2024-08-13T13:41:38Z</time>
      </trkpt>
      <trkpt lat="44.84651" lon="6.1174">
        <ele>2393.4</ele>
        <time>2024-08-13T13:41:39Z</time>
      </trkpt>
      <trkpt lat="44.84653" lon="6.11737">
        <ele>2393.8</ele>
        <time>2024-08-13T13:41:40Z</time>
      </trkpt>
      <trkpt lat="44.84653" lon="6.11737">
        <ele>2394.4</ele>
        <time>2024-08-13T13:41:41Z</time>
      </trkpt>
      <trkpt lat="44.84655" lon="6.11735">
        <ele>2394.4</ele>
        <time>2024-08-13T13:41:42Z</time>
      </trkpt>
      <trkpt lat="44.84655" lon="6.11735">
        <ele>2394.6</ele>
        <time>2024-08-13T13:41:43Z</time>
      </trkpt>
      <trkpt lat="44.84655" lon="6.11735">
        <ele>2394.8</ele>
        <time>2024-08-13T13:41:44Z</time>
      </trkpt>
      <trkpt lat="44.84655" lon="6.11735">
        <ele>2394.6</ele>
        <time>2024-08-13T13:41:45Z</time>
      </trkpt>
      <trkpt lat="44.84655" lon="6.11735">
        <ele>2394.6</ele>
        <time>2024-08-13T13:41:46Z</time>
      </trkpt>
      <trkpt lat="44.84653" lon="6.11733">
        <ele>2394.6</ele>
        <time>2024-08-13T13:41:47Z</time>
      </trkpt>
      <trkpt lat="44.84653" lon="6.11733">
        <ele>2394.2</ele>
        <time>2024-08-13T13:41:48Z</time>
      </trkpt>
      <trkpt lat="44.84653" lon="6.11733">
        <ele>2394.2</ele>
        <time>2024-08-13T13:41:49Z</time>
      </trkpt>
      <trkpt lat="44.84651" lon="6.11734">
        <ele>2394.2</ele>
        <time>2024-08-13T13:41:50Z</time>
      </trkpt>
      <trkpt lat="44.84651" lon="6.11734">
        <ele>2394.2</ele>
        <time>2024-08-13T13:41:51Z</time>
      </trkpt>
      <trkpt lat="44.84649" lon="6.11734">
        <ele>2394.6</ele>
        <time>2024-08-13T13:41:52Z</time>
      </trkpt>
      <trkpt lat="44.84649" lon="6.11734">
        <ele>2395</ele>
        <time>2024-08-13T13:41:53Z</time>
      </trkpt>
      <trkpt lat="44.84647" lon="6.11734">
        <ele>2395.2</ele>
        <time>2024-08-13T13:41:54Z</time>
      </trkpt>
      <trkpt lat="44.84647" lon="6.11734">
        <ele>2395.2</ele>
        <time>2024-08-13T13:41:55Z</time>
      </trkpt>
      <trkpt lat="44.84644" lon="6.11733">
        <ele>2395.2</ele>
        <time>2024-08-13T13:41:56Z</time>
      </trkpt>
      <trkpt lat="44.84644" lon="6.11733">
        <ele>2395</ele>
        <time>2024-08-13T13:41:57Z</time>
      </trkpt>
      <trkpt lat="44.84642" lon="6.11733">
        <ele>2394.6</ele>
        <time>2024-08-13T13:41:58Z</time>
      </trkpt>
      <trkpt lat="44.84642" lon="6.11733">
        <ele>2394</ele>
        <time>2024-08-13T13:41:59Z</time>
      </trkpt>
      <trkpt lat="44.8464" lon="6.11734">
        <ele>2393.8</ele>
        <time>2024-08-13T13:42:00Z</time>
      </trkpt>
      <trkpt lat="44.8464" lon="6.11734">
        <ele>2393.8</ele>
        <time>2024-08-13T13:42:01Z</time>
      </trkpt>
      <trkpt lat="44.84638" lon="6.11736">
        <ele>2394</ele>
        <time>2024-08-13T13:42:02Z</time>
      </trkpt>
      <trkpt lat="44.84638" lon="6.11736">
        <ele>2394</ele>
        <time>2024-08-13T13:42:03Z</time>
      </trkpt>
      <trkpt lat="44.84636" lon="6.11738">
        <ele>2393.6</ele>
        <time>2024-08-13T13:42:04Z</time>
      </trkpt>
      <trkpt lat="44.84636" lon="6.11738">
        <ele>2393.4</ele>
        <time>2024-08-13T13:42:05Z</time>
      </trkpt>
      <trkpt lat="44.84634" lon="6.1174">
        <ele>2393.2</ele>
        <time>2024-08-13T13:42:06Z</time>
      </trkpt>
      <trkpt lat="44.84634" lon="6.1174">
        <ele>2393.2</ele>
        <time>2024-08-13T13:42:07Z</time>
      </trkpt>
      <trkpt lat="44.84633" lon="6.11742">
        <ele>2393.2</ele>
        <time>2024-08-13T13:42:08Z</time>
      </trkpt>
      <trkpt lat="44.84633" lon="6.11742">
        <ele>2393.4</ele>
        <time>2024-08-13T13:42:09Z</time>
      </trkpt>
      <trkpt lat="44.84631" lon="6.11744">
        <ele>2393.4</ele>
        <time>2024-08-13T13:42:10Z</time>
      </trkpt>
      <trkpt lat="44.84631" lon="6.11744">
        <ele>2393.6</ele>
        <time>2024-08-13T13:42:11Z</time>
      </trkpt>
      <trkpt lat="44.84629" lon="6.11746">
        <ele>2393.8</ele>
        <time>2024-08-13T13:42:12Z</time>
      </trkpt>
      <trkpt lat="44.84629" lon="6.11746">
        <ele>2394</ele>
        <time>2024-08-13T13:42:13Z</time>
      </trkpt>
      <trkpt lat="44.84627" lon="6.11748">
        <ele>2394.2</ele>
        <time>2024-08-13T13:42:14Z</time>
      </trkpt>
      <trkpt lat="44.84627" lon="6.11748">
        <ele>2394.2</ele>
        <time>2024-08-13T13:42:15Z</time>
      </trkpt>
      <trkpt lat="44.84625" lon="6.11749">
        <ele>2394.6</ele>
        <time>2024-08-13T13:42:16Z</time>
      </trkpt>
      <trkpt lat="44.84625" lon="6.11749">
        <ele>2394.8</ele>
        <time>2024-08-13T13:42:17Z</time>
      </trkpt>
      <trkpt lat="44.84623" lon="6.11751">
        <ele>2395.8</ele>
        <time>2024-08-13T13:42:18Z</time>
      </trkpt>
      <trkpt lat="44.84621" lon="6.11752">
        <ele>2396.4</ele>
        <time>2024-08-13T13:42:19Z</time>
      </trkpt>
      <trkpt lat="44.84621" lon="6.11752">
        <ele>2396.4</ele>
        <time>2024-08-13T13:42:20Z</time>
      </trkpt>
      <trkpt lat="44.84619" lon="6.11754">
        <ele>2396.8</ele>
        <time>2024-08-13T13:42:21Z</time>
      </trkpt>
      <trkpt lat="44.84619" lon="6.11754">
        <ele>2397.2</ele>
        <time>2024-08-13T13:42:22Z</time>
      </trkpt>
      <trkpt lat="44.84616" lon="6.11754">
        <ele>2397.8</ele>
        <time>2024-08-13T13:42:23Z</time>
      </trkpt>
      <trkpt lat="44.84616" lon="6.11754">
        <ele>2398</ele>
        <time>2024-08-13T13:42:24Z</time>
      </trkpt>
      <trkpt lat="44.84614" lon="6.11754">
        <ele>2398.4</ele>
        <time>2024-08-13T13:42:25Z</time>
      </trkpt>
      <trkpt lat="44.84614" lon="6.11754">
        <ele>2399</ele>
        <time>2024-08-13T13:42:26Z</time>
      </trkpt>
      <trkpt lat="44.84612" lon="6.11753">
        <ele>2399.2</ele>
        <time>2024-08-13T13:42:27Z</time>
      </trkpt>
      <trkpt lat="44.84612" lon="6.11753">
        <ele>2399.6</ele>
        <time>2024-08-13T13:42:28Z</time>
      </trkpt>
      <trkpt lat="44.8461" lon="6.11751">
        <ele>2399.6</ele>
        <time>2024-08-13T13:42:29Z</time>
      </trkpt>
      <trkpt lat="44.8461" lon="6.11751">
        <ele>2399.4</ele>
        <time>2024-08-13T13:42:30Z</time>
      </trkpt>
      <trkpt lat="44.84609" lon="6.11749">
        <ele>2399.4</ele>
        <time>2024-08-13T13:42:31Z</time>
      </trkpt>
      <trkpt lat="44.84609" lon="6.11749">
        <ele>2399.2</ele>
        <time>2024-08-13T13:42:32Z</time>
      </trkpt>
      <trkpt lat="44.84608" lon="6.11746">
        <ele>2399</ele>
        <time>2024-08-13T13:42:33Z</time>
      </trkpt>
      <trkpt lat="44.84608" lon="6.11746">
        <ele>2399</ele>
        <time>2024-08-13T13:42:34Z</time>
      </trkpt>
      <trkpt lat="44.84607" lon="6.11743">
        <ele>2398.8</ele>
        <time>2024-08-13T13:42:35Z</time>
      </trkpt>
      <trkpt lat="44.84607" lon="6.11743">
        <ele>2398.8</ele>
        <time>2024-08-13T13:42:36Z</time>
      </trkpt>
      <trkpt lat="44.84606" lon="6.11741">
        <ele>2398.6</ele>
        <time>2024-08-13T13:42:37Z</time>
      </trkpt>
      <trkpt lat="44.84606" lon="6.11741">
        <ele>2398.6</ele>
        <time>2024-08-13T13:42:38Z</time>
      </trkpt>
      <trkpt lat="44.84606" lon="6.11741">
        <ele>2398.6</ele>
        <time>2024-08-13T13:42:39Z</time>
      </trkpt>
      <trkpt lat="44.84604" lon="6.11738">
        <ele>2398.6</ele>
        <time>2024-08-13T13:42:40Z</time>
      </trkpt>
      <trkpt lat="44.84604" lon="6.11738">
        <ele>2398.6</ele>
        <time>2024-08-13T13:42:41Z</time>
      </trkpt>
      <trkpt lat="44.84601" lon="6.11738">
        <ele>2399.2</ele>
        <time>2024-08-13T13:42:42Z</time>
      </trkpt>
      <trkpt lat="44.84601" lon="6.11738">
        <ele>2399.2</ele>
        <time>2024-08-13T13:42:43Z</time>
      </trkpt>
      <trkpt lat="44.84601" lon="6.11738">
        <ele>2399.2</ele>
        <time>2024-08-13T13:42:44Z</time>
      </trkpt>
      <trkpt lat="44.84598" lon="6.11739">
        <ele>2399</ele>
        <time>2024-08-13T13:42:45Z</time>
      </trkpt>
      <trkpt lat="44.84598" lon="6.11739">
        <ele>2399</ele>
        <time>2024-08-13T13:42:46Z</time>
      </trkpt>
      <trkpt lat="44.84596" lon="6.11739">
        <ele>2399.4</ele>
        <time>2024-08-13T13:42:47Z</time>
      </trkpt>
      <trkpt lat="44.84596" lon="6.11739">
        <ele>2400.4</ele>
        <time>2024-08-13T13:42:48Z</time>
      </trkpt>
      <trkpt lat="44.84594" lon="6.11737">
        <ele>2401</ele>
        <time>2024-08-13T13:42:49Z</time>
      </trkpt>
      <trkpt lat="44.84594" lon="6.11737">
        <ele>2401.2</ele>
        <time>2024-08-13T13:42:50Z</time>
      </trkpt>
      <trkpt lat="44.84592" lon="6.11736">
        <ele>2401.2</ele>
        <time>2024-08-13T13:42:51Z</time>
      </trkpt>
      <trkpt lat="44.84592" lon="6.11736">
        <ele>2400.8</ele>
        <time>2024-08-13T13:42:52Z</time>
      </trkpt>
      <trkpt lat="44.84592" lon="6.11736">
        <ele>2400.8</ele>
        <time>2024-08-13T13:42:53Z</time>
      </trkpt>
      <trkpt lat="44.8459" lon="6.11734">
        <ele>2400.6</ele>
        <time>2024-08-13T13:42:54Z</time>
      </trkpt>
      <trkpt lat="44.8459" lon="6.11734">
        <ele>2400.6</ele>
        <time>2024-08-13T13:42:55Z</time>
      </trkpt>
      <trkpt lat="44.84588" lon="6.11732">
        <ele>2400.8</ele>
        <time>2024-08-13T13:42:56Z</time>
      </trkpt>
      <trkpt lat="44.84588" lon="6.11732">
        <ele>2400.8</ele>
        <time>2024-08-13T13:42:57Z</time>
      </trkpt>
      <trkpt lat="44.84586" lon="6.11731">
        <ele>2401</ele>
        <time>2024-08-13T13:42:58Z</time>
      </trkpt>
      <trkpt lat="44.84586" lon="6.11731">
        <ele>2401</ele>
        <time>2024-08-13T13:42:59Z</time>
      </trkpt>
      <trkpt lat="44.84584" lon="6.1173">
        <ele>2401</ele>
        <time>2024-08-13T13:43:00Z</time>
      </trkpt>
      <trkpt lat="44.84584" lon="6.1173">
        <ele>2401</ele>
        <time>2024-08-13T13:43:01Z</time>
      </trkpt>
      <trkpt lat="44.84582" lon="6.11728">
        <ele>2401</ele>
        <time>2024-08-13T13:43:02Z</time>
      </trkpt>
      <trkpt lat="44.84582" lon="6.11728">
        <ele>2401</ele>
        <time>2024-08-13T13:43:03Z</time>
      </trkpt>
      <trkpt lat="44.84581" lon="6.11727">
        <ele>2401.6</ele>
        <time>2024-08-13T13:43:04Z</time>
      </trkpt>
      <trkpt lat="44.84581" lon="6.11727">
        <ele>2401.8</ele>
        <time>2024-08-13T13:43:05Z</time>
      </trkpt>
      <trkpt lat="44.84581" lon="6.11727">
        <ele>2401.8</ele>
        <time>2024-08-13T13:43:06Z</time>
      </trkpt>
      <trkpt lat="44.84578" lon="6.11725">
        <ele>2401.8</ele>
        <time>2024-08-13T13:43:07Z</time>
      </trkpt>
      <trkpt lat="44.84578" lon="6.11725">
        <ele>2401.8</ele>
        <time>2024-08-13T13:43:08Z</time>
      </trkpt>
      <trkpt lat="44.84578" lon="6.11725">
        <ele>2402</ele>
        <time>2024-08-13T13:43:09Z</time>
      </trkpt>
      <trkpt lat="44.84578" lon="6.11725">
        <ele>2402.2</ele>
        <time>2024-08-13T13:43:10Z</time>
      </trkpt>
      <trkpt lat="44.84578" lon="6.11725">
        <ele>2402.8</ele>
        <time>2024-08-13T13:43:11Z</time>
      </trkpt>
      <trkpt lat="44.84578" lon="6.11725">
        <ele>2402.8</ele>
        <time>2024-08-13T13:43:12Z</time>
      </trkpt>
      <trkpt lat="44.84578" lon="6.11725">
        <ele>2402.6</ele>
        <time>2024-08-13T13:43:13Z</time>
      </trkpt>
      <trkpt lat="44.84578" lon="6.11725">
        <ele>2402.6</ele>
        <time>2024-08-13T13:43:14Z</time>
      </trkpt>
      <trkpt lat="44.84578" lon="6.11725">
        <ele>2403</ele>
        <time>2024-08-13T13:43:15Z</time>
      </trkpt>
      <trkpt lat="44.84578" lon="6.11725">
        <ele>2403</ele>
        <time>2024-08-13T13:43:16Z</time>
      </trkpt>
      <trkpt lat="44.84578" lon="6.11725">
        <ele>2403</ele>
        <time>2024-08-13T13:43:17Z</time>
      </trkpt>
      <trkpt lat="44.84578" lon="6.11725">
        <ele>2402.8</ele>
        <time>2024-08-13T13:43:18Z</time>
      </trkpt>
      <trkpt lat="44.84578" lon="6.11725">
        <ele>2402.8</ele>
        <time>2024-08-13T13:43:19Z</time>
      </trkpt>
      <trkpt lat="44.84578" lon="6.11725">
        <ele>2402.6</ele>
        <time>2024-08-13T13:43:20Z</time>
      </trkpt>
      <trkpt lat="44.84578" lon="6.11725">
        <ele>2402.4</ele>
        <time>2024-08-13T13:43:21Z</time>
      </trkpt>
      <trkpt lat="44.84578" lon="6.11725">
        <ele>2402.4</ele>
        <time>2024-08-13T13:43:22Z</time>
      </trkpt>
      <trkpt lat="44.84576" lon="6.11724">
        <ele>2402.4</ele>
        <time>2024-08-13T13:43:23Z</time>
      </trkpt>
      <trkpt lat="44.84576" lon="6.11724">
        <ele>2402.4</ele>
        <time>2024-08-13T13:43:24Z</time>
      </trkpt>
      <trkpt lat="44.84574" lon="6.11722">
        <ele>2402.6</ele>
        <time>2024-08-13T13:43:25Z</time>
      </trkpt>
      <trkpt lat="44.84574" lon="6.11722">
        <ele>2402.8</ele>
        <time>2024-08-13T13:43:26Z</time>
      </trkpt>
      <trkpt lat="44.84573" lon="6.11721">
        <ele>2403</ele>
        <time>2024-08-13T13:43:27Z</time>
      </trkpt>
      <trkpt lat="44.84573" lon="6.11721">
        <ele>2403</ele>
        <time>2024-08-13T13:43:28Z</time>
      </trkpt>
      <trkpt lat="44.84573" lon="6.11721">
        <ele>2403</ele>
        <time>2024-08-13T13:43:29Z</time>
      </trkpt>
      <trkpt lat="44.84573" lon="6.11721">
        <ele>2403.2</ele>
        <time>2024-08-13T13:43:30Z</time>
      </trkpt>
      <trkpt lat="44.84573" lon="6.11721">
        <ele>2403.4</ele>
        <time>2024-08-13T13:43:31Z</time>
      </trkpt>
      <trkpt lat="44.84573" lon="6.11721">
        <ele>2403.6</ele>
        <time>2024-08-13T13:43:32Z</time>
      </trkpt>
      <trkpt lat="44.84573" lon="6.11721">
        <ele>2403.8</ele>
        <time>2024-08-13T13:43:33Z</time>
      </trkpt>
      <trkpt lat="44.84573" lon="6.11721">
        <ele>2404</ele>
        <time>2024-08-13T13:43:34Z</time>
      </trkpt>
      <trkpt lat="44.84573" lon="6.11721">
        <ele>2404</ele>
        <time>2024-08-13T13:43:35Z</time>
      </trkpt>
      <trkpt lat="44.84571" lon="6.1172">
        <ele>2404</ele>
        <time>2024-08-13T13:43:36Z</time>
      </trkpt>
      <trkpt lat="44.84571" lon="6.1172">
        <ele>2403.4</ele>
        <time>2024-08-13T13:43:37Z</time>
      </trkpt>
      <trkpt lat="44.84569" lon="6.11719">
        <ele>2403.2</ele>
        <time>2024-08-13T13:43:38Z</time>
      </trkpt>
      <trkpt lat="44.84569" lon="6.11719">
        <ele>2403.2</ele>
        <time>2024-08-13T13:43:39Z</time>
      </trkpt>
      <trkpt lat="44.84567" lon="6.11718">
        <ele>2403.2</ele>
        <time>2024-08-13T13:43:40Z</time>
      </trkpt>
      <trkpt lat="44.84567" lon="6.11718">
        <ele>2403.6</ele>
        <time>2024-08-13T13:43:41Z</time>
      </trkpt>
      <trkpt lat="44.84565" lon="6.11716">
        <ele>2403.8</ele>
        <time>2024-08-13T13:43:42Z</time>
      </trkpt>
      <trkpt lat="44.84565" lon="6.11716">
        <ele>2403.8</ele>
        <time>2024-08-13T13:43:43Z</time>
      </trkpt>
      <trkpt lat="44.84564" lon="6.11714">
        <ele>2404</ele>
        <time>2024-08-13T13:43:44Z</time>
      </trkpt>
      <trkpt lat="44.84564" lon="6.11714">
        <ele>2404</ele>
        <time>2024-08-13T13:43:45Z</time>
      </trkpt>
      <trkpt lat="44.84562" lon="6.11713">
        <ele>2404.2</ele>
        <time>2024-08-13T13:43:46Z</time>
      </trkpt>
      <trkpt lat="44.84562" lon="6.11713">
        <ele>2404.6</ele>
        <time>2024-08-13T13:43:47Z</time>
      </trkpt>
      <trkpt lat="44.84562" lon="6.11713">
        <ele>2404.6</ele>
        <time>2024-08-13T13:43:48Z</time>
      </trkpt>
      <trkpt lat="44.84559" lon="6.11712">
        <ele>2404.8</ele>
        <time>2024-08-13T13:43:49Z</time>
      </trkpt>
      <trkpt lat="44.84559" lon="6.11712">
        <ele>2405</ele>
        <time>2024-08-13T13:43:50Z</time>
      </trkpt>
      <trkpt lat="44.84556" lon="6.11711">
        <ele>2405</ele>
        <time>2024-08-13T13:43:51Z</time>
      </trkpt>
      <trkpt lat="44.84556" lon="6.11711">
        <ele>2405</ele>
        <time>2024-08-13T13:43:52Z</time>
      </trkpt>
      <trkpt lat="44.84554" lon="6.11711">
        <ele>2405</ele>
        <time>2024-08-13T13:43:53Z</time>
      </trkpt>
      <trkpt lat="44.84554" lon="6.11711">
        <ele>2404.8</ele>
        <time>2024-08-13T13:43:54Z</time>
      </trkpt>
      <trkpt lat="44.84554" lon="6.11711">
        <ele>2404.8</ele>
        <time>2024-08-13T13:43:55Z</time>
      </trkpt>
      <trkpt lat="44.84551" lon="6.1171">
        <ele>2405</ele>
        <time>2024-08-13T13:43:56Z</time>
      </trkpt>
      <trkpt lat="44.84551" lon="6.1171">
        <ele>2405.4</ele>
        <time>2024-08-13T13:43:57Z</time>
      </trkpt>
      <trkpt lat="44.84549" lon="6.11709">
        <ele>2406</ele>
        <time>2024-08-13T13:43:58Z</time>
      </trkpt>
      <trkpt lat="44.84549" lon="6.11709">
        <ele>2406</ele>
        <time>2024-08-13T13:43:59Z</time>
      </trkpt>
      <trkpt lat="44.84547" lon="6.11709">
        <ele>2406</ele>
        <time>2024-08-13T13:44:00Z</time>
      </trkpt>
      <trkpt lat="44.84547" lon="6.11709">
        <ele>2406.2</ele>
        <time>2024-08-13T13:44:01Z</time>
      </trkpt>
      <trkpt lat="44.84545" lon="6.11708">
        <ele>2406.2</ele>
        <time>2024-08-13T13:44:02Z</time>
      </trkpt>
      <trkpt lat="44.84545" lon="6.11708">
        <ele>2406.2</ele>
        <time>2024-08-13T13:44:03Z</time>
      </trkpt>
      <trkpt lat="44.84543" lon="6.11708">
        <ele>2406.4</ele>
        <time>2024-08-13T13:44:04Z</time>
      </trkpt>
      <trkpt lat="44.84543" lon="6.11708">
        <ele>2406.6</ele>
        <time>2024-08-13T13:44:05Z</time>
      </trkpt>
      <trkpt lat="44.84541" lon="6.11708">
        <ele>2406.6</ele>
        <time>2024-08-13T13:44:06Z</time>
      </trkpt>
      <trkpt lat="44.84541" lon="6.11708">
        <ele>2407</ele>
        <time>2024-08-13T13:44:07Z</time>
      </trkpt>
      <trkpt lat="44.84539" lon="6.11708">
        <ele>2407.2</ele>
        <time>2024-08-13T13:44:08Z</time>
      </trkpt>
      <trkpt lat="44.84539" lon="6.11708">
        <ele>2407.2</ele>
        <time>2024-08-13T13:44:09Z</time>
      </trkpt>
      <trkpt lat="44.84536" lon="6.11708">
        <ele>2407.2</ele>
        <time>2024-08-13T13:44:10Z</time>
      </trkpt>
      <trkpt lat="44.84536" lon="6.11708">
        <ele>2407.2</ele>
        <time>2024-08-13T13:44:11Z</time>
      </trkpt>
      <trkpt lat="44.84534" lon="6.11708">
        <ele>2407.2</ele>
        <time>2024-08-13T13:44:12Z</time>
      </trkpt>
      <trkpt lat="44.84534" lon="6.11708">
        <ele>2407.2</ele>
        <time>2024-08-13T13:44:13Z</time>
      </trkpt>
      <trkpt lat="44.84532" lon="6.11708">
        <ele>2407.2</ele>
        <time>2024-08-13T13:44:14Z</time>
      </trkpt>
      <trkpt lat="44.84532" lon="6.11708">
        <ele>2407.2</ele>
        <time>2024-08-13T13:44:15Z</time>
      </trkpt>
      <trkpt lat="44.8453" lon="6.11708">
        <ele>2407.6</ele>
        <time>2024-08-13T13:44:16Z</time>
      </trkpt>
      <trkpt lat="44.8453" lon="6.11708">
        <ele>2407.6</ele>
        <time>2024-08-13T13:44:17Z</time>
      </trkpt>
      <trkpt lat="44.84528" lon="6.11707">
        <ele>2407.4</ele>
        <time>2024-08-13T13:44:18Z</time>
      </trkpt>
      <trkpt lat="44.84528" lon="6.11707">
        <ele>2407.4</ele>
        <time>2024-08-13T13:44:19Z</time>
      </trkpt>
      <trkpt lat="44.84526" lon="6.11706">
        <ele>2407.6</ele>
        <time>2024-08-13T13:44:20Z</time>
      </trkpt>
      <trkpt lat="44.84526" lon="6.11706">
        <ele>2407.8</ele>
        <time>2024-08-13T13:44:21Z</time>
      </trkpt>
      <trkpt lat="44.84524" lon="6.11705">
        <ele>2408</ele>
        <time>2024-08-13T13:44:22Z</time>
      </trkpt>
      <trkpt lat="44.84524" lon="6.11705">
        <ele>2408.4</ele>
        <time>2024-08-13T13:44:23Z</time>
      </trkpt>
      <trkpt lat="44.84524" lon="6.11705">
        <ele>2408.8</ele>
        <time>2024-08-13T13:44:24Z</time>
      </trkpt>
      <trkpt lat="44.84521" lon="6.11704">
        <ele>2408.8</ele>
        <time>2024-08-13T13:44:25Z</time>
      </trkpt>
      <trkpt lat="44.84521" lon="6.11704">
        <ele>2409</ele>
        <time>2024-08-13T13:44:26Z</time>
      </trkpt>
      <trkpt lat="44.84519" lon="6.11703">
        <ele>2409.2</ele>
        <time>2024-08-13T13:44:27Z</time>
      </trkpt>
      <trkpt lat="44.84519" lon="6.11703">
        <ele>2409.8</ele>
        <time>2024-08-13T13:44:28Z</time>
      </trkpt>
      <trkpt lat="44.84519" lon="6.11703">
        <ele>2409.8</ele>
        <time>2024-08-13T13:44:29Z</time>
      </trkpt>
      <trkpt lat="44.84519" lon="6.11703">
        <ele>2409.8</ele>
        <time>2024-08-13T13:44:30Z</time>
      </trkpt>
      <trkpt lat="44.8452" lon="6.117">
        <ele>2410.2</ele>
        <time>2024-08-13T13:44:31Z</time>
      </trkpt>
      <trkpt lat="44.8452" lon="6.117">
        <ele>2410.2</ele>
        <time>2024-08-13T13:44:32Z</time>
      </trkpt>
      <trkpt lat="44.8452" lon="6.117">
        <ele>2410.4</ele>
        <time>2024-08-13T13:44:33Z</time>
      </trkpt>
      <trkpt lat="44.84522" lon="6.117">
        <ele>2410.8</ele>
        <time>2024-08-13T13:44:34Z</time>
      </trkpt>
      <trkpt lat="44.84522" lon="6.117">
        <ele>2411</ele>
        <time>2024-08-13T13:44:35Z</time>
      </trkpt>
      <trkpt lat="44.84525" lon="6.11699">
        <ele>2411.2</ele>
        <time>2024-08-13T13:44:36Z</time>
      </trkpt>
      <trkpt lat="44.84525" lon="6.11699">
        <ele>2411.4</ele>
        <time>2024-08-13T13:44:37Z</time>
      </trkpt>
      <trkpt lat="44.84527" lon="6.11699">
        <ele>2411.6</ele>
        <time>2024-08-13T13:44:38Z</time>
      </trkpt>
      <trkpt lat="44.84527" lon="6.11699">
        <ele>2411.8</ele>
        <time>2024-08-13T13:44:39Z</time>
      </trkpt>
      <trkpt lat="44.8453" lon="6.11699">
        <ele>2412.4</ele>
        <time>2024-08-13T13:44:40Z</time>
      </trkpt>
      <trkpt lat="44.8453" lon="6.11699">
        <ele>2412.4</ele>
        <time>2024-08-13T13:44:41Z</time>
      </trkpt>
      <trkpt lat="44.84532" lon="6.11699">
        <ele>2412.6</ele>
        <time>2024-08-13T13:44:42Z</time>
      </trkpt>
      <trkpt lat="44.84532" lon="6.11699">
        <ele>2412.6</ele>
        <time>2024-08-13T13:44:43Z</time>
      </trkpt>
      <trkpt lat="44.84533" lon="6.11699">
        <ele>2412.8</ele>
        <time>2024-08-13T13:44:44Z</time>
      </trkpt>
      <trkpt lat="44.84533" lon="6.11699">
        <ele>2413</ele>
        <time>2024-08-13T13:44:45Z</time>
      </trkpt>
      <trkpt lat="44.84536" lon="6.11698">
        <ele>2413</ele>
        <time>2024-08-13T13:44:46Z</time>
      </trkpt>
      <trkpt lat="44.84536" lon="6.11698">
        <ele>2413</ele>
        <time>2024-08-13T13:44:47Z</time>
      </trkpt>
      <trkpt lat="44.84538" lon="6.11697">
        <ele>2413.2</ele>
        <time>2024-08-13T13:44:48Z</time>
      </trkpt>
      <trkpt lat="44.84538" lon="6.11697">
        <ele>2413.4</ele>
        <time>2024-08-13T13:44:49Z</time>
      </trkpt>
      <trkpt lat="44.8454" lon="6.11697">
        <ele>2413.4</ele>
        <time>2024-08-13T13:44:50Z</time>
      </trkpt>
      <trkpt lat="44.8454" lon="6.11697">
        <ele>2413.8</ele>
        <time>2024-08-13T13:44:51Z</time>
      </trkpt>
      <trkpt lat="44.8454" lon="6.11697">
        <ele>2413.8</ele>
        <time>2024-08-13T13:44:52Z</time>
      </trkpt>
      <trkpt lat="44.84542" lon="6.11696">
        <ele>2413.8</ele>
        <time>2024-08-13T13:44:53Z</time>
      </trkpt>
      <trkpt lat="44.84542" lon="6.11696">
        <ele>2413.8</ele>
        <time>2024-08-13T13:44:54Z</time>
      </trkpt>
      <trkpt lat="44.84542" lon="6.11696">
        <ele>2413.8</ele>
        <time>2024-08-13T13:44:55Z</time>
      </trkpt>
      <trkpt lat="44.84545" lon="6.11695">
        <ele>2414</ele>
        <time>2024-08-13T13:44:56Z</time>
      </trkpt>
      <trkpt lat="44.84545" lon="6.11695">
        <ele>2414</ele>
        <time>2024-08-13T13:44:57Z</time>
      </trkpt>
      <trkpt lat="44.84545" lon="6.11695">
        <ele>2414.2</ele>
        <time>2024-08-13T13:44:58Z</time>
      </trkpt>
      <trkpt lat="44.84547" lon="6.11694">
        <ele>2414.4</ele>
        <time>2024-08-13T13:44:59Z</time>
      </trkpt>
      <trkpt lat="44.84547" lon="6.11694">
        <ele>2415</ele>
        <time>2024-08-13T13:45:00Z</time>
      </trkpt>
      <trkpt lat="44.84547" lon="6.11694">
        <ele>2415.2</ele>
        <time>2024-08-13T13:45:01Z</time>
      </trkpt>
      <trkpt lat="44.8455" lon="6.11692">
        <ele>2415.8</ele>
        <time>2024-08-13T13:45:02Z</time>
      </trkpt>
      <trkpt lat="44.8455" lon="6.11692">
        <ele>2415.8</ele>
        <time>2024-08-13T13:45:03Z</time>
      </trkpt>
      <trkpt lat="44.84551" lon="6.11691">
        <ele>2415.8</ele>
        <time>2024-08-13T13:45:04Z</time>
      </trkpt>
      <trkpt lat="44.84551" lon="6.11691">
        <ele>2416</ele>
        <time>2024-08-13T13:45:05Z</time>
      </trkpt>
      <trkpt lat="44.84551" lon="6.11691">
        <ele>2416.4</ele>
        <time>2024-08-13T13:45:06Z</time>
      </trkpt>
      <trkpt lat="44.84552" lon="6.11688">
        <ele>2416.4</ele>
        <time>2024-08-13T13:45:07Z</time>
      </trkpt>
      <trkpt lat="44.84552" lon="6.11688">
        <ele>2416.6</ele>
        <time>2024-08-13T13:45:08Z</time>
      </trkpt>
      <trkpt lat="44.84552" lon="6.11685">
        <ele>2416.8</ele>
        <time>2024-08-13T13:45:09Z</time>
      </trkpt>
      <trkpt lat="44.84552" lon="6.11685">
        <ele>2417</ele>
        <time>2024-08-13T13:45:10Z</time>
      </trkpt>
      <trkpt lat="44.84552" lon="6.11682">
        <ele>2417</ele>
        <time>2024-08-13T13:45:11Z</time>
      </trkpt>
      <trkpt lat="44.84552" lon="6.11682">
        <ele>2416.6</ele>
        <time>2024-08-13T13:45:12Z</time>
      </trkpt>
      <trkpt lat="44.84552" lon="6.11679">
        <ele>2416.6</ele>
        <time>2024-08-13T13:45:13Z</time>
      </trkpt>
      <trkpt lat="44.84552" lon="6.11679">
        <ele>2416.6</ele>
        <time>2024-08-13T13:45:14Z</time>
      </trkpt>
      <trkpt lat="44.84551" lon="6.11676">
        <ele>2416.8</ele>
        <time>2024-08-13T13:45:15Z</time>
      </trkpt>
      <trkpt lat="44.84551" lon="6.11676">
        <ele>2417</ele>
        <time>2024-08-13T13:45:16Z</time>
      </trkpt>
      <trkpt lat="44.84551" lon="6.11673">
        <ele>2417.4</ele>
        <time>2024-08-13T13:45:17Z</time>
      </trkpt>
      <trkpt lat="44.84551" lon="6.11673">
        <ele>2417.4</ele>
        <time>2024-08-13T13:45:18Z</time>
      </trkpt>
      <trkpt lat="44.84551" lon="6.1167">
        <ele>2417.6</ele>
        <time>2024-08-13T13:45:19Z</time>
      </trkpt>
      <trkpt lat="44.84551" lon="6.1167">
        <ele>2417.8</ele>
        <time>2024-08-13T13:45:20Z</time>
      </trkpt>
      <trkpt lat="44.84551" lon="6.11667">
        <ele>2418.4</ele>
        <time>2024-08-13T13:45:21Z</time>
      </trkpt>
      <trkpt lat="44.84551" lon="6.11667">
        <ele>2418.4</ele>
        <time>2024-08-13T13:45:22Z</time>
      </trkpt>
      <trkpt lat="44.84551" lon="6.11664">
        <ele>2418.4</ele>
        <time>2024-08-13T13:45:23Z</time>
      </trkpt>
      <trkpt lat="44.84551" lon="6.11664">
        <ele>2418.4</ele>
        <time>2024-08-13T13:45:24Z</time>
      </trkpt>
      <trkpt lat="44.84551" lon="6.11664">
        <ele>2418.4</ele>
        <time>2024-08-13T13:45:25Z</time>
      </trkpt>
      <trkpt lat="44.84551" lon="6.11664">
        <ele>2418.4</ele>
        <time>2024-08-13T13:45:26Z</time>
      </trkpt>
      <trkpt lat="44.84551" lon="6.11664">
        <ele>2418.6</ele>
        <time>2024-08-13T13:45:27Z</time>
      </trkpt>
      <trkpt lat="44.84551" lon="6.11664">
        <ele>2418.6</ele>
        <time>2024-08-13T13:45:28Z</time>
      </trkpt>
      <trkpt lat="44.84551" lon="6.11664">
        <ele>2418.8</ele>
        <time>2024-08-13T13:45:29Z</time>
      </trkpt>
      <trkpt lat="44.84551" lon="6.11664">
        <ele>2419</ele>
        <time>2024-08-13T13:45:30Z</time>
      </trkpt>
      <trkpt lat="44.84551" lon="6.11664">
        <ele>2419</ele>
        <time>2024-08-13T13:45:31Z</time>
      </trkpt>
      <trkpt lat="44.84551" lon="6.11664">
        <ele>2419</ele>
        <time>2024-08-13T13:45:32Z</time>
      </trkpt>
      <trkpt lat="44.84551" lon="6.11664">
        <ele>2419</ele>
        <time>2024-08-13T13:45:33Z</time>
      </trkpt>
      <trkpt lat="44.84551" lon="6.11664">
        <ele>2418.8</ele>
        <time>2024-08-13T13:45:34Z</time>
      </trkpt>
      <trkpt lat="44.84551" lon="6.11664">
        <ele>2418.8</ele>
        <time>2024-08-13T13:45:35Z</time>
      </trkpt>
      <trkpt lat="44.84551" lon="6.11664">
        <ele>2418.8</ele>
        <time>2024-08-13T13:45:36Z</time>
      </trkpt>
      <trkpt lat="44.84551" lon="6.11664">
        <ele>2418.8</ele>
        <time>2024-08-13T13:45:37Z</time>
      </trkpt>
      <trkpt lat="44.84551" lon="6.11664">
        <ele>2419.4</ele>
        <time>2024-08-13T13:45:38Z</time>
      </trkpt>
      <trkpt lat="44.84551" lon="6.11664">
        <ele>2419.4</ele>
        <time>2024-08-13T13:45:39Z</time>
      </trkpt>
      <trkpt lat="44.84551" lon="6.11664">
        <ele>2419.4</ele>
        <time>2024-08-13T13:45:40Z</time>
      </trkpt>
      <trkpt lat="44.84551" lon="6.11664">
        <ele>2419.4</ele>
        <time>2024-08-13T13:45:41Z</time>
      </trkpt>
      <trkpt lat="44.84551" lon="6.11664">
        <ele>2419.4</ele>
        <time>2024-08-13T13:45:42Z</time>
      </trkpt>
      <trkpt lat="44.84551" lon="6.11664">
        <ele>2419</ele>
        <time>2024-08-13T13:45:43Z</time>
      </trkpt>
      <trkpt lat="44.84551" lon="6.11664">
        <ele>2418.8</ele>
        <time>2024-08-13T13:45:44Z</time>
      </trkpt>
      <trkpt lat="44.84551" lon="6.11664">
        <ele>2418.6</ele>
        <time>2024-08-13T13:45:45Z</time>
      </trkpt>
      <trkpt lat="44.84551" lon="6.11664">
        <ele>2418.6</ele>
        <time>2024-08-13T13:45:46Z</time>
      </trkpt>
      <trkpt lat="44.84551" lon="6.11664">
        <ele>2418.6</ele>
        <time>2024-08-13T13:45:47Z</time>
      </trkpt>
      <trkpt lat="44.84551" lon="6.11664">
        <ele>2418.6</ele>
        <time>2024-08-13T13:45:48Z</time>
      </trkpt>
      <trkpt lat="44.84551" lon="6.11664">
        <ele>2418.6</ele>
        <time>2024-08-13T13:45:49Z</time>
      </trkpt>
      <trkpt lat="44.84551" lon="6.11664">
        <ele>2418.8</ele>
        <time>2024-08-13T13:45:50Z</time>
      </trkpt>
      <trkpt lat="44.84551" lon="6.11664">
        <ele>2419</ele>
        <time>2024-08-13T13:45:51Z</time>
      </trkpt>
      <trkpt lat="44.84551" lon="6.11664">
        <ele>2419</ele>
        <time>2024-08-13T13:45:52Z</time>
      </trkpt>
      <trkpt lat="44.84552" lon="6.11661">
        <ele>2419</ele>
        <time>2024-08-13T13:45:53Z</time>
      </trkpt>
      <trkpt lat="44.84552" lon="6.11661">
        <ele>2419</ele>
        <time>2024-08-13T13:45:54Z</time>
      </trkpt>
      <trkpt lat="44.84552" lon="6.11661">
        <ele>2419</ele>
        <time>2024-08-13T13:45:55Z</time>
      </trkpt>
      <trkpt lat="44.84552" lon="6.11657">
        <ele>2419</ele>
        <time>2024-08-13T13:45:56Z</time>
      </trkpt>
      <trkpt lat="44.84552" lon="6.11657">
        <ele>2419</ele>
        <time>2024-08-13T13:45:57Z</time>
      </trkpt>
      <trkpt lat="44.84552" lon="6.11657">
        <ele>2419.2</ele>
        <time>2024-08-13T13:45:58Z</time>
      </trkpt>
      <trkpt lat="44.84552" lon="6.11657">
        <ele>2420</ele>
        <time>2024-08-13T13:45:59Z</time>
      </trkpt>
      <trkpt lat="44.84552" lon="6.11657">
        <ele>2420</ele>
        <time>2024-08-13T13:46:00Z</time>
      </trkpt>
      <trkpt lat="44.84552" lon="6.11657">
        <ele>2419.8</ele>
        <time>2024-08-13T13:46:01Z</time>
      </trkpt>
      <trkpt lat="44.84552" lon="6.11657">
        <ele>2419.8</ele>
        <time>2024-08-13T13:46:02Z</time>
      </trkpt>
      <trkpt lat="44.84554" lon="6.11654">
        <ele>2419.8</ele>
        <time>2024-08-13T13:46:03Z</time>
      </trkpt>
      <trkpt lat="44.84554" lon="6.11654">
        <ele>2419.8</ele>
        <time>2024-08-13T13:46:04Z</time>
      </trkpt>
      <trkpt lat="44.84556" lon="6.1165">
        <ele>2419.8</ele>
        <time>2024-08-13T13:46:05Z</time>
      </trkpt>
      <trkpt lat="44.84556" lon="6.1165">
        <ele>2419.8</ele>
        <time>2024-08-13T13:46:06Z</time>
      </trkpt>
      <trkpt lat="44.84557" lon="6.11646">
        <ele>2420</ele>
        <time>2024-08-13T13:46:07Z</time>
      </trkpt>
      <trkpt lat="44.84557" lon="6.11646">
        <ele>2420</ele>
        <time>2024-08-13T13:46:08Z</time>
      </trkpt>
      <trkpt lat="44.84558" lon="6.11643">
        <ele>2420.8</ele>
        <time>2024-08-13T13:46:09Z</time>
      </trkpt>
      <trkpt lat="44.84558" lon="6.11643">
        <ele>2420.8</ele>
        <time>2024-08-13T13:46:10Z</time>
      </trkpt>
      <trkpt lat="44.8456" lon="6.11641">
        <ele>2420.8</ele>
        <time>2024-08-13T13:46:11Z</time>
      </trkpt>
      <trkpt lat="44.8456" lon="6.11641">
        <ele>2420.8</ele>
        <time>2024-08-13T13:46:12Z</time>
      </trkpt>
      <trkpt lat="44.84562" lon="6.11638">
        <ele>2421</ele>
        <time>2024-08-13T13:46:13Z</time>
      </trkpt>
      <trkpt lat="44.84562" lon="6.11638">
        <ele>2421.4</ele>
        <time>2024-08-13T13:46:14Z</time>
      </trkpt>
      <trkpt lat="44.84563" lon="6.11637">
        <ele>2421.4</ele>
        <time>2024-08-13T13:46:15Z</time>
      </trkpt>
      <trkpt lat="44.84563" lon="6.11637">
        <ele>2421.4</ele>
        <time>2024-08-13T13:46:16Z</time>
      </trkpt>
      <trkpt lat="44.84563" lon="6.11637">
        <ele>2421.8</ele>
        <time>2024-08-13T13:46:17Z</time>
      </trkpt>
      <trkpt lat="44.84565" lon="6.11635">
        <ele>2421.8</ele>
        <time>2024-08-13T13:46:18Z</time>
      </trkpt>
      <trkpt lat="44.84565" lon="6.11635">
        <ele>2422</ele>
        <time>2024-08-13T13:46:19Z</time>
      </trkpt>
      <trkpt lat="44.84568" lon="6.11634">
        <ele>2422</ele>
        <time>2024-08-13T13:46:20Z</time>
      </trkpt>
      <trkpt lat="44.84568" lon="6.11634">
        <ele>2422.2</ele>
        <time>2024-08-13T13:46:21Z</time>
      </trkpt>
      <trkpt lat="44.84569" lon="6.11632">
        <ele>2422.2</ele>
        <time>2024-08-13T13:46:22Z</time>
      </trkpt>
      <trkpt lat="44.84569" lon="6.11632">
        <ele>2422.2</ele>
        <time>2024-08-13T13:46:23Z</time>
      </trkpt>
      <trkpt lat="44.84569" lon="6.11632">
        <ele>2422.4</ele>
        <time>2024-08-13T13:46:24Z</time>
      </trkpt>
      <trkpt lat="44.8457" lon="6.11628">
        <ele>2422.4</ele>
        <time>2024-08-13T13:46:25Z</time>
      </trkpt>
      <trkpt lat="44.8457" lon="6.11628">
        <ele>2422.8</ele>
        <time>2024-08-13T13:46:26Z</time>
      </trkpt>
      <trkpt lat="44.84572" lon="6.11626">
        <ele>2423</ele>
        <time>2024-08-13T13:46:27Z</time>
      </trkpt>
      <trkpt lat="44.84572" lon="6.11626">
        <ele>2423.2</ele>
        <time>2024-08-13T13:46:28Z</time>
      </trkpt>
      <trkpt lat="44.84573" lon="6.11624">
        <ele>2423.6</ele>
        <time>2024-08-13T13:46:29Z</time>
      </trkpt>
      <trkpt lat="44.84573" lon="6.11624">
        <ele>2423.6</ele>
        <time>2024-08-13T13:46:30Z</time>
      </trkpt>
      <trkpt lat="44.84574" lon="6.11622">
        <ele>2424</ele>
        <time>2024-08-13T13:46:31Z</time>
      </trkpt>
      <trkpt lat="44.84574" lon="6.11622">
        <ele>2424</ele>
        <time>2024-08-13T13:46:32Z</time>
      </trkpt>
      <trkpt lat="44.84575" lon="6.11619">
        <ele>2424.2</ele>
        <time>2024-08-13T13:46:33Z</time>
      </trkpt>
      <trkpt lat="44.84575" lon="6.11619">
        <ele>2424.4</ele>
        <time>2024-08-13T13:46:34Z</time>
      </trkpt>
      <trkpt lat="44.84575" lon="6.11619">
        <ele>2424.4</ele>
        <time>2024-08-13T13:46:35Z</time>
      </trkpt>
      <trkpt lat="44.84577" lon="6.11617">
        <ele>2424.8</ele>
        <time>2024-08-13T13:46:36Z</time>
      </trkpt>
      <trkpt lat="44.84577" lon="6.11617">
        <ele>2424.8</ele>
        <time>2024-08-13T13:46:37Z</time>
      </trkpt>
      <trkpt lat="44.84578" lon="6.11615">
        <ele>2424.8</ele>
        <time>2024-08-13T13:46:38Z</time>
      </trkpt>
      <trkpt lat="44.84578" lon="6.11615">
        <ele>2425.2</ele>
        <time>2024-08-13T13:46:39Z</time>
      </trkpt>
      <trkpt lat="44.8458" lon="6.11613">
        <ele>2425.4</ele>
        <time>2024-08-13T13:46:40Z</time>
      </trkpt>
      <trkpt lat="44.8458" lon="6.11613">
        <ele>2425.2</ele>
        <time>2024-08-13T13:46:41Z</time>
      </trkpt>
      <trkpt lat="44.84582" lon="6.11611">
        <ele>2425.2</ele>
        <time>2024-08-13T13:46:42Z</time>
      </trkpt>
      <trkpt lat="44.84582" lon="6.11611">
        <ele>2425.2</ele>
        <time>2024-08-13T13:46:43Z</time>
      </trkpt>
      <trkpt lat="44.84584" lon="6.11609">
        <ele>2425.4</ele>
        <time>2024-08-13T13:46:44Z</time>
      </trkpt>
      <trkpt lat="44.84584" lon="6.11609">
        <ele>2425.6</ele>
        <time>2024-08-13T13:46:45Z</time>
      </trkpt>
      <trkpt lat="44.84585" lon="6.11607">
        <ele>2425.6</ele>
        <time>2024-08-13T13:46:46Z</time>
      </trkpt>
      <trkpt lat="44.84585" lon="6.11607">
        <ele>2425.4</ele>
        <time>2024-08-13T13:46:47Z</time>
      </trkpt>
      <trkpt lat="44.84587" lon="6.11605">
        <ele>2425.4</ele>
        <time>2024-08-13T13:46:48Z</time>
      </trkpt>
      <trkpt lat="44.84587" lon="6.11605">
        <ele>2425.6</ele>
        <time>2024-08-13T13:46:49Z</time>
      </trkpt>
      <trkpt lat="44.84589" lon="6.11602">
        <ele>2425.6</ele>
        <time>2024-08-13T13:46:50Z</time>
      </trkpt>
      <trkpt lat="44.84589" lon="6.11602">
        <ele>2425.6</ele>
        <time>2024-08-13T13:46:51Z</time>
      </trkpt>
      <trkpt lat="44.84591" lon="6.116">
        <ele>2425.4</ele>
        <time>2024-08-13T13:46:52Z</time>
      </trkpt>
      <trkpt lat="44.84591" lon="6.116">
        <ele>2425.4</ele>
        <time>2024-08-13T13:46:53Z</time>
      </trkpt>
      <trkpt lat="44.84593" lon="6.11598">
        <ele>2425.4</ele>
        <time>2024-08-13T13:46:54Z</time>
      </trkpt>
      <trkpt lat="44.84593" lon="6.11598">
        <ele>2425.6</ele>
        <time>2024-08-13T13:46:55Z</time>
      </trkpt>
      <trkpt lat="44.84596" lon="6.11596">
        <ele>2426</ele>
        <time>2024-08-13T13:46:56Z</time>
      </trkpt>
      <trkpt lat="44.84596" lon="6.11596">
        <ele>2426</ele>
        <time>2024-08-13T13:46:57Z</time>
      </trkpt>
      <trkpt lat="44.84598" lon="6.11594">
        <ele>2426.2</ele>
        <time>2024-08-13T13:46:58Z</time>
      </trkpt>
      <trkpt lat="44.84598" lon="6.11594">
        <ele>2426.2</ele>
        <time>2024-08-13T13:46:59Z</time>
      </trkpt>
      <trkpt lat="44.84598" lon="6.11594">
        <ele>2426.2</ele>
        <time>2024-08-13T13:47:00Z</time>
      </trkpt>
      <trkpt lat="44.846" lon="6.11592">
        <ele>2426.4</ele>
        <time>2024-08-13T13:47:01Z</time>
      </trkpt>
      <trkpt lat="44.846" lon="6.11592">
        <ele>2426.6</ele>
        <time>2024-08-13T13:47:02Z</time>
      </trkpt>
      <trkpt lat="44.84602" lon="6.11591">
        <ele>2426.6</ele>
        <time>2024-08-13T13:47:03Z</time>
      </trkpt>
      <trkpt lat="44.84602" lon="6.11591">
        <ele>2426.8</ele>
        <time>2024-08-13T13:47:04Z</time>
      </trkpt>
      <trkpt lat="44.84604" lon="6.1159">
        <ele>2427</ele>
        <time>2024-08-13T13:47:05Z</time>
      </trkpt>
      <trkpt lat="44.84604" lon="6.1159">
        <ele>2427</ele>
        <time>2024-08-13T13:47:06Z</time>
      </trkpt>
      <trkpt lat="44.84605" lon="6.11588">
        <ele>2427</ele>
        <time>2024-08-13T13:47:07Z</time>
      </trkpt>
      <trkpt lat="44.84605" lon="6.11588">
        <ele>2427</ele>
        <time>2024-08-13T13:47:08Z</time>
      </trkpt>
      <trkpt lat="44.84607" lon="6.11587">
        <ele>2427</ele>
        <time>2024-08-13T13:47:09Z</time>
      </trkpt>
      <trkpt lat="44.84607" lon="6.11587">
        <ele>2427.6</ele>
        <time>2024-08-13T13:47:10Z</time>
      </trkpt>
      <trkpt lat="44.84607" lon="6.11587">
        <ele>2427.6</ele>
        <time>2024-08-13T13:47:11Z</time>
      </trkpt>
      <trkpt lat="44.84609" lon="6.11585">
        <ele>2427.8</ele>
        <time>2024-08-13T13:47:12Z</time>
      </trkpt>
      <trkpt lat="44.84609" lon="6.11585">
        <ele>2428.4</ele>
        <time>2024-08-13T13:47:13Z</time>
      </trkpt>
      <trkpt lat="44.84609" lon="6.11585">
        <ele>2428.8</ele>
        <time>2024-08-13T13:47:14Z</time>
      </trkpt>
      <trkpt lat="44.8461" lon="6.11582">
        <ele>2428.8</ele>
        <time>2024-08-13T13:47:15Z</time>
      </trkpt>
      <trkpt lat="44.8461" lon="6.11582">
        <ele>2428.8</ele>
        <time>2024-08-13T13:47:16Z</time>
      </trkpt>
      <trkpt lat="44.8461" lon="6.11582">
        <ele>2428.8</ele>
        <time>2024-08-13T13:47:17Z</time>
      </trkpt>
      <trkpt lat="44.84613" lon="6.11582">
        <ele>2429.2</ele>
        <time>2024-08-13T13:47:18Z</time>
      </trkpt>
      <trkpt lat="44.84613" lon="6.11582">
        <ele>2429.2</ele>
        <time>2024-08-13T13:47:19Z</time>
      </trkpt>
      <trkpt lat="44.84615" lon="6.11582">
        <ele>2429.2</ele>
        <time>2024-08-13T13:47:20Z</time>
      </trkpt>
      <trkpt lat="44.84615" lon="6.11582">
        <ele>2429.2</ele>
        <time>2024-08-13T13:47:21Z</time>
      </trkpt>
      <trkpt lat="44.84617" lon="6.11581">
        <ele>2429</ele>
        <time>2024-08-13T13:47:22Z</time>
      </trkpt>
      <trkpt lat="44.84617" lon="6.11581">
        <ele>2428.8</ele>
        <time>2024-08-13T13:47:23Z</time>
      </trkpt>
      <trkpt lat="44.84619" lon="6.11582">
        <ele>2428.8</ele>
        <time>2024-08-13T13:47:24Z</time>
      </trkpt>
      <trkpt lat="44.84619" lon="6.11582">
        <ele>2429</ele>
        <time>2024-08-13T13:47:25Z</time>
      </trkpt>
      <trkpt lat="44.84621" lon="6.11581">
        <ele>2429.4</ele>
        <time>2024-08-13T13:47:26Z</time>
      </trkpt>
      <trkpt lat="44.84621" lon="6.11581">
        <ele>2429.6</ele>
        <time>2024-08-13T13:47:27Z</time>
      </trkpt>
      <trkpt lat="44.84623" lon="6.11581">
        <ele>2429.6</ele>
        <time>2024-08-13T13:47:28Z</time>
      </trkpt>
      <trkpt lat="44.84623" lon="6.11581">
        <ele>2429.6</ele>
        <time>2024-08-13T13:47:29Z</time>
      </trkpt>
      <trkpt lat="44.84625" lon="6.11581">
        <ele>2430.6</ele>
        <time>2024-08-13T13:47:30Z</time>
      </trkpt>
      <trkpt lat="44.84625" lon="6.11581">
        <ele>2430.6</ele>
        <time>2024-08-13T13:47:31Z</time>
      </trkpt>
      <trkpt lat="44.84628" lon="6.11581">
        <ele>2430.6</ele>
        <time>2024-08-13T13:47:32Z</time>
      </trkpt>
      <trkpt lat="44.84628" lon="6.11581">
        <ele>2430.6</ele>
        <time>2024-08-13T13:47:33Z</time>
      </trkpt>
      <trkpt lat="44.84629" lon="6.11581">
        <ele>2430.6</ele>
        <time>2024-08-13T13:47:34Z</time>
      </trkpt>
      <trkpt lat="44.84629" lon="6.11581">
        <ele>2431.2</ele>
        <time>2024-08-13T13:47:35Z</time>
      </trkpt>
      <trkpt lat="44.84631" lon="6.1158">
        <ele>2431.4</ele>
        <time>2024-08-13T13:47:36Z</time>
      </trkpt>
      <trkpt lat="44.84631" lon="6.1158">
        <ele>2431.4</ele>
        <time>2024-08-13T13:47:37Z</time>
      </trkpt>
      <trkpt lat="44.84633" lon="6.11578">
        <ele>2431.4</ele>
        <time>2024-08-13T13:47:38Z</time>
      </trkpt>
      <trkpt lat="44.84633" lon="6.11578">
        <ele>2431.4</ele>
        <time>2024-08-13T13:47:39Z</time>
      </trkpt>
      <trkpt lat="44.84635" lon="6.11577">
        <ele>2431.6</ele>
        <time>2024-08-13T13:47:40Z</time>
      </trkpt>
      <trkpt lat="44.84635" lon="6.11577">
        <ele>2431.6</ele>
        <time>2024-08-13T13:47:41Z</time>
      </trkpt>
      <trkpt lat="44.84637" lon="6.11578">
        <ele>2432</ele>
        <time>2024-08-13T13:47:42Z</time>
      </trkpt>
      <trkpt lat="44.84637" lon="6.11578">
        <ele>2432.6</ele>
        <time>2024-08-13T13:47:43Z</time>
      </trkpt>
      <trkpt lat="44.84639" lon="6.11578">
        <ele>2432.6</ele>
        <time>2024-08-13T13:47:44Z</time>
      </trkpt>
      <trkpt lat="44.84639" lon="6.11578">
        <ele>2432.8</ele>
        <time>2024-08-13T13:47:45Z</time>
      </trkpt>
      <trkpt lat="44.84639" lon="6.11578">
        <ele>2432.8</ele>
        <time>2024-08-13T13:47:46Z</time>
      </trkpt>
      <trkpt lat="44.84639" lon="6.11578">
        <ele>2433</ele>
        <time>2024-08-13T13:47:47Z</time>
      </trkpt>
      <trkpt lat="44.84639" lon="6.11578">
        <ele>2433.4</ele>
        <time>2024-08-13T13:47:48Z</time>
      </trkpt>
      <trkpt lat="44.84639" lon="6.11578">
        <ele>2433.6</ele>
        <time>2024-08-13T13:47:49Z</time>
      </trkpt>
      <trkpt lat="44.84641" lon="6.11578">
        <ele>2433.6</ele>
        <time>2024-08-13T13:47:50Z</time>
      </trkpt>
      <trkpt lat="44.84641" lon="6.11578">
        <ele>2433.6</ele>
        <time>2024-08-13T13:47:51Z</time>
      </trkpt>
      <trkpt lat="44.84643" lon="6.11578">
        <ele>2434.2</ele>
        <time>2024-08-13T13:47:52Z</time>
      </trkpt>
      <trkpt lat="44.84643" lon="6.11578">
        <ele>2434.2</ele>
        <time>2024-08-13T13:47:53Z</time>
      </trkpt>
      <trkpt lat="44.84645" lon="6.11578">
        <ele>2434.2</ele>
        <time>2024-08-13T13:47:54Z</time>
      </trkpt>
      <trkpt lat="44.84645" lon="6.11578">
        <ele>2434.2</ele>
        <time>2024-08-13T13:47:55Z</time>
      </trkpt>
      <trkpt lat="44.84647" lon="6.11579">
        <ele>2434</ele>
        <time>2024-08-13T13:47:56Z</time>
      </trkpt>
      <trkpt lat="44.84647" lon="6.11579">
        <ele>2434</ele>
        <time>2024-08-13T13:47:57Z</time>
      </trkpt>
      <trkpt lat="44.8465" lon="6.1158">
        <ele>2434.2</ele>
        <time>2024-08-13T13:47:58Z</time>
      </trkpt>
      <trkpt lat="44.8465" lon="6.1158">
        <ele>2434</ele>
        <time>2024-08-13T13:47:59Z</time>
      </trkpt>
      <trkpt lat="44.84653" lon="6.11581">
        <ele>2434</ele>
        <time>2024-08-13T13:48:00Z</time>
      </trkpt>
      <trkpt lat="44.84653" lon="6.11581">
        <ele>2434.2</ele>
        <time>2024-08-13T13:48:01Z</time>
      </trkpt>
      <trkpt lat="44.84655" lon="6.11583">
        <ele>2434</ele>
        <time>2024-08-13T13:48:02Z</time>
      </trkpt>
      <trkpt lat="44.84655" lon="6.11583">
        <ele>2434.2</ele>
        <time>2024-08-13T13:48:03Z</time>
      </trkpt>
      <trkpt lat="44.84657" lon="6.11584">
        <ele>2434.2</ele>
        <time>2024-08-13T13:48:04Z</time>
      </trkpt>
      <trkpt lat="44.84657" lon="6.11584">
        <ele>2434.2</ele>
        <time>2024-08-13T13:48:05Z</time>
      </trkpt>
      <trkpt lat="44.84659" lon="6.11584">
        <ele>2434.6</ele>
        <time>2024-08-13T13:48:06Z</time>
      </trkpt>
      <trkpt lat="44.84659" lon="6.11584">
        <ele>2435.2</ele>
        <time>2024-08-13T13:48:07Z</time>
      </trkpt>
      <trkpt lat="44.84659" lon="6.11584">
        <ele>2435.4</ele>
        <time>2024-08-13T13:48:08Z</time>
      </trkpt>
      <trkpt lat="44.84661" lon="6.11586">
        <ele>2435.8</ele>
        <time>2024-08-13T13:48:09Z</time>
      </trkpt>
      <trkpt lat="44.84661" lon="6.11586">
        <ele>2436.6</ele>
        <time>2024-08-13T13:48:10Z</time>
      </trkpt>
      <trkpt lat="44.84661" lon="6.11586">
        <ele>2436.6</ele>
        <time>2024-08-13T13:48:11Z</time>
      </trkpt>
      <trkpt lat="44.84662" lon="6.11587">
        <ele>2436.8</ele>
        <time>2024-08-13T13:48:12Z</time>
      </trkpt>
      <trkpt lat="44.84662" lon="6.11587">
        <ele>2436.8</ele>
        <time>2024-08-13T13:48:13Z</time>
      </trkpt>
      <trkpt lat="44.84662" lon="6.11587">
        <ele>2437</ele>
        <time>2024-08-13T13:48:14Z</time>
      </trkpt>
      <trkpt lat="44.84663" lon="6.11589">
        <ele>2437</ele>
        <time>2024-08-13T13:48:15Z</time>
      </trkpt>
      <trkpt lat="44.84663" lon="6.11589">
        <ele>2437.6</ele>
        <time>2024-08-13T13:48:16Z</time>
      </trkpt>
      <trkpt lat="44.84663" lon="6.11589">
        <ele>2437.6</ele>
        <time>2024-08-13T13:48:17Z</time>
      </trkpt>
      <trkpt lat="44.84664" lon="6.11592">
        <ele>2437.8</ele>
        <time>2024-08-13T13:48:18Z</time>
      </trkpt>
      <trkpt lat="44.84664" lon="6.11592">
        <ele>2438.4</ele>
        <time>2024-08-13T13:48:19Z</time>
      </trkpt>
      <trkpt lat="44.84664" lon="6.11592">
        <ele>2438.8</ele>
        <time>2024-08-13T13:48:20Z</time>
      </trkpt>
      <trkpt lat="44.84664" lon="6.11592">
        <ele>2439</ele>
        <time>2024-08-13T13:48:21Z</time>
      </trkpt>
      <trkpt lat="44.84666" lon="6.11593">
        <ele>2439.6</ele>
        <time>2024-08-13T13:48:22Z</time>
      </trkpt>
      <trkpt lat="44.84666" lon="6.11593">
        <ele>2439.6</ele>
        <time>2024-08-13T13:48:23Z</time>
      </trkpt>
      <trkpt lat="44.84666" lon="6.11593">
        <ele>2439.4</ele>
        <time>2024-08-13T13:48:24Z</time>
      </trkpt>
      <trkpt lat="44.84666" lon="6.11593">
        <ele>2439.4</ele>
        <time>2024-08-13T13:48:25Z</time>
      </trkpt>
      <trkpt lat="44.84668" lon="6.11593">
        <ele>2440.2</ele>
        <time>2024-08-13T13:48:26Z</time>
      </trkpt>
      <trkpt lat="44.84668" lon="6.11593">
        <ele>2440.2</ele>
        <time>2024-08-13T13:48:27Z</time>
      </trkpt>
      <trkpt lat="44.84668" lon="6.11593">
        <ele>2440.4</ele>
        <time>2024-08-13T13:48:28Z</time>
      </trkpt>
      <trkpt lat="44.84671" lon="6.11596">
        <ele>2440.6</ele>
        <time>2024-08-13T13:48:29Z</time>
      </trkpt>
      <trkpt lat="44.84671" lon="6.11596">
        <ele>2440.8</ele>
        <time>2024-08-13T13:48:30Z</time>
      </trkpt>
      <trkpt lat="44.84672" lon="6.11598">
        <ele>2441</ele>
        <time>2024-08-13T13:48:31Z</time>
      </trkpt>
      <trkpt lat="44.84672" lon="6.11598">
        <ele>2441</ele>
        <time>2024-08-13T13:48:32Z</time>
      </trkpt>
      <trkpt lat="44.84674" lon="6.116">
        <ele>2441.2</ele>
        <time>2024-08-13T13:48:33Z</time>
      </trkpt>
      <trkpt lat="44.84674" lon="6.116">
        <ele>2441.4</ele>
        <time>2024-08-13T13:48:34Z</time>
      </trkpt>
      <trkpt lat="44.84676" lon="6.11602">
        <ele>2441.4</ele>
        <time>2024-08-13T13:48:35Z</time>
      </trkpt>
      <trkpt lat="44.84676" lon="6.11602">
        <ele>2441.4</ele>
        <time>2024-08-13T13:48:36Z</time>
      </trkpt>
      <trkpt lat="44.84677" lon="6.11604">
        <ele>2442</ele>
        <time>2024-08-13T13:48:37Z</time>
      </trkpt>
      <trkpt lat="44.84677" lon="6.11604">
        <ele>2442</ele>
        <time>2024-08-13T13:48:38Z</time>
      </trkpt>
      <trkpt lat="44.84679" lon="6.11605">
        <ele>2442</ele>
        <time>2024-08-13T13:48:39Z</time>
      </trkpt>
      <trkpt lat="44.84679" lon="6.11605">
        <ele>2442</ele>
        <time>2024-08-13T13:48:40Z</time>
      </trkpt>
      <trkpt lat="44.84679" lon="6.11605">
        <ele>2442</ele>
        <time>2024-08-13T13:48:41Z</time>
      </trkpt>
      <trkpt lat="44.84681" lon="6.11607">
        <ele>2442.2</ele>
        <time>2024-08-13T13:48:42Z</time>
      </trkpt>
      <trkpt lat="44.84681" lon="6.11607">
        <ele>2442.4</ele>
        <time>2024-08-13T13:48:43Z</time>
      </trkpt>
      <trkpt lat="44.84683" lon="6.11608">
        <ele>2442.6</ele>
        <time>2024-08-13T13:48:44Z</time>
      </trkpt>
      <trkpt lat="44.84683" lon="6.11608">
        <ele>2442.6</ele>
        <time>2024-08-13T13:48:45Z</time>
      </trkpt>
      <trkpt lat="44.84683" lon="6.11608">
        <ele>2442.8</ele>
        <time>2024-08-13T13:48:46Z</time>
      </trkpt>
      <trkpt lat="44.84683" lon="6.11608">
        <ele>2442.8</ele>
        <time>2024-08-13T13:48:47Z</time>
      </trkpt>
      <trkpt lat="44.84683" lon="6.11608">
        <ele>2443.4</ele>
        <time>2024-08-13T13:48:48Z</time>
      </trkpt>
      <trkpt lat="44.84685" lon="6.1161">
        <ele>2443.6</ele>
        <time>2024-08-13T13:48:49Z</time>
      </trkpt>
      <trkpt lat="44.84685" lon="6.1161">
        <ele>2443.8</ele>
        <time>2024-08-13T13:48:50Z</time>
      </trkpt>
      <trkpt lat="44.84685" lon="6.1161">
        <ele>2443.8</ele>
        <time>2024-08-13T13:48:51Z</time>
      </trkpt>
      <trkpt lat="44.84686" lon="6.11613">
        <ele>2444</ele>
        <time>2024-08-13T13:48:52Z</time>
      </trkpt>
      <trkpt lat="44.84686" lon="6.11613">
        <ele>2444</ele>
        <time>2024-08-13T13:48:53Z</time>
      </trkpt>
      <trkpt lat="44.84686" lon="6.11613">
        <ele>2444.2</ele>
        <time>2024-08-13T13:48:54Z</time>
      </trkpt>
      <trkpt lat="44.84688" lon="6.11616">
        <ele>2444.4</ele>
        <time>2024-08-13T13:48:55Z</time>
      </trkpt>
      <trkpt lat="44.84688" lon="6.11616">
        <ele>2444.4</ele>
        <time>2024-08-13T13:48:56Z</time>
      </trkpt>
      <trkpt lat="44.84688" lon="6.11616">
        <ele>2444.6</ele>
        <time>2024-08-13T13:48:57Z</time>
      </trkpt>
      <trkpt lat="44.8469" lon="6.11617">
        <ele>2445</ele>
        <time>2024-08-13T13:48:58Z</time>
      </trkpt>
      <trkpt lat="44.8469" lon="6.11617">
        <ele>2445.4</ele>
        <time>2024-08-13T13:48:59Z</time>
      </trkpt>
      <trkpt lat="44.84692" lon="6.11617">
        <ele>2445.4</ele>
        <time>2024-08-13T13:49:00Z</time>
      </trkpt>
      <trkpt lat="44.84692" lon="6.11617">
        <ele>2445.4</ele>
        <time>2024-08-13T13:49:01Z</time>
      </trkpt>
      <trkpt lat="44.84694" lon="6.11619">
        <ele>2445.6</ele>
        <time>2024-08-13T13:49:02Z</time>
      </trkpt>
      <trkpt lat="44.84694" lon="6.11619">
        <ele>2445.6</ele>
        <time>2024-08-13T13:49:03Z</time>
      </trkpt>
      <trkpt lat="44.84696" lon="6.1162">
        <ele>2445.8</ele>
        <time>2024-08-13T13:49:04Z</time>
      </trkpt>
      <trkpt lat="44.84696" lon="6.1162">
        <ele>2445.8</ele>
        <time>2024-08-13T13:49:05Z</time>
      </trkpt>
      <trkpt lat="44.84697" lon="6.11621">
        <ele>2446.4</ele>
        <time>2024-08-13T13:49:06Z</time>
      </trkpt>
      <trkpt lat="44.84697" lon="6.11621">
        <ele>2446.4</ele>
        <time>2024-08-13T13:49:07Z</time>
      </trkpt>
      <trkpt lat="44.84697" lon="6.11621">
        <ele>2446.4</ele>
        <time>2024-08-13T13:49:08Z</time>
      </trkpt>
      <trkpt lat="44.84699" lon="6.11622">
        <ele>2446.8</ele>
        <time>2024-08-13T13:49:09Z</time>
      </trkpt>
      <trkpt lat="44.84699" lon="6.11622">
        <ele>2447.2</ele>
        <time>2024-08-13T13:49:10Z</time>
      </trkpt>
      <trkpt lat="44.84699" lon="6.11622">
        <ele>2447.4</ele>
        <time>2024-08-13T13:49:11Z</time>
      </trkpt>
      <trkpt lat="44.84701" lon="6.11624">
        <ele>2447.4</ele>
        <time>2024-08-13T13:49:12Z</time>
      </trkpt>
      <trkpt lat="44.84701" lon="6.11624">
        <ele>2447.8</ele>
        <time>2024-08-13T13:49:13Z</time>
      </trkpt>
      <trkpt lat="44.84701" lon="6.11624">
        <ele>2448</ele>
        <time>2024-08-13T13:49:14Z</time>
      </trkpt>
      <trkpt lat="44.84701" lon="6.11624">
        <ele>2448</ele>
        <time>2024-08-13T13:49:15Z</time>
      </trkpt>
      <trkpt lat="44.84703" lon="6.11625">
        <ele>2448</ele>
        <time>2024-08-13T13:49:16Z</time>
      </trkpt>
      <trkpt lat="44.84703" lon="6.11625">
        <ele>2448.4</ele>
        <time>2024-08-13T13:49:17Z</time>
      </trkpt>
      <trkpt lat="44.84703" lon="6.11625">
        <ele>2449</ele>
        <time>2024-08-13T13:49:18Z</time>
      </trkpt>
      <trkpt lat="44.84705" lon="6.11626">
        <ele>2449</ele>
        <time>2024-08-13T13:49:19Z</time>
      </trkpt>
      <trkpt lat="44.84705" lon="6.11626">
        <ele>2449.2</ele>
        <time>2024-08-13T13:49:20Z</time>
      </trkpt>
      <trkpt lat="44.84708" lon="6.11627">
        <ele>2449.4</ele>
        <time>2024-08-13T13:49:21Z</time>
      </trkpt>
      <trkpt lat="44.84708" lon="6.11627">
        <ele>2449.6</ele>
        <time>2024-08-13T13:49:22Z</time>
      </trkpt>
      <trkpt lat="44.84709" lon="6.11628">
        <ele>2449.6</ele>
        <time>2024-08-13T13:49:23Z</time>
      </trkpt>
      <trkpt lat="44.84709" lon="6.11628">
        <ele>2449.6</ele>
        <time>2024-08-13T13:49:24Z</time>
      </trkpt>
      <trkpt lat="44.84711" lon="6.11629">
        <ele>2450</ele>
        <time>2024-08-13T13:49:25Z</time>
      </trkpt>
      <trkpt lat="44.84711" lon="6.11629">
        <ele>2450.2</ele>
        <time>2024-08-13T13:49:26Z</time>
      </trkpt>
      <trkpt lat="44.84713" lon="6.1163">
        <ele>2450.6</ele>
        <time>2024-08-13T13:49:27Z</time>
      </trkpt>
      <trkpt lat="44.84713" lon="6.1163">
        <ele>2450.6</ele>
        <time>2024-08-13T13:49:28Z</time>
      </trkpt>
      <trkpt lat="44.84716" lon="6.11631">
        <ele>2450.8</ele>
        <time>2024-08-13T13:49:29Z</time>
      </trkpt>
      <trkpt lat="44.84716" lon="6.11631">
        <ele>2450.8</ele>
        <time>2024-08-13T13:49:30Z</time>
      </trkpt>
      <trkpt lat="44.84718" lon="6.11632">
        <ele>2450.6</ele>
        <time>2024-08-13T13:49:31Z</time>
      </trkpt>
      <trkpt lat="44.84718" lon="6.11632">
        <ele>2450.6</ele>
        <time>2024-08-13T13:49:32Z</time>
      </trkpt>
      <trkpt lat="44.84721" lon="6.11633">
        <ele>2450.6</ele>
        <time>2024-08-13T13:49:33Z</time>
      </trkpt>
      <trkpt lat="44.84721" lon="6.11633">
        <ele>2451</ele>
        <time>2024-08-13T13:49:34Z</time>
      </trkpt>
      <trkpt lat="44.84721" lon="6.11633">
        <ele>2451.2</ele>
        <time>2024-08-13T13:49:35Z</time>
      </trkpt>
      <trkpt lat="44.84723" lon="6.11634">
        <ele>2451.4</ele>
        <time>2024-08-13T13:49:36Z</time>
      </trkpt>
      <trkpt lat="44.84723" lon="6.11634">
        <ele>2451.6</ele>
        <time>2024-08-13T13:49:37Z</time>
      </trkpt>
      <trkpt lat="44.84725" lon="6.11635">
        <ele>2451.6</ele>
        <time>2024-08-13T13:49:38Z</time>
      </trkpt>
      <trkpt lat="44.84725" lon="6.11635">
        <ele>2451.6</ele>
        <time>2024-08-13T13:49:39Z</time>
      </trkpt>
      <trkpt lat="44.84726" lon="6.11637">
        <ele>2451.6</ele>
        <time>2024-08-13T13:49:40Z</time>
      </trkpt>
      <trkpt lat="44.84726" lon="6.11637">
        <ele>2451.8</ele>
        <time>2024-08-13T13:49:41Z</time>
      </trkpt>
      <trkpt lat="44.84728" lon="6.11638">
        <ele>2451.8</ele>
        <time>2024-08-13T13:49:42Z</time>
      </trkpt>
      <trkpt lat="44.84728" lon="6.11638">
        <ele>2452</ele>
        <time>2024-08-13T13:49:43Z</time>
      </trkpt>
      <trkpt lat="44.84728" lon="6.11638">
        <ele>2452.6</ele>
        <time>2024-08-13T13:49:44Z</time>
      </trkpt>
      <trkpt lat="44.8473" lon="6.11639">
        <ele>2452.6</ele>
        <time>2024-08-13T13:49:45Z</time>
      </trkpt>
      <trkpt lat="44.8473" lon="6.11639">
        <ele>2452.6</ele>
        <time>2024-08-13T13:49:46Z</time>
      </trkpt>
      <trkpt lat="44.84732" lon="6.1164">
        <ele>2452.8</ele>
        <time>2024-08-13T13:49:47Z</time>
      </trkpt>
      <trkpt lat="44.84732" lon="6.1164">
        <ele>2452.8</ele>
        <time>2024-08-13T13:49:48Z</time>
      </trkpt>
      <trkpt lat="44.84734" lon="6.1164">
        <ele>2453</ele>
        <time>2024-08-13T13:49:49Z</time>
      </trkpt>
      <trkpt lat="44.84734" lon="6.1164">
        <ele>2453.4</ele>
        <time>2024-08-13T13:49:50Z</time>
      </trkpt>
      <trkpt lat="44.84736" lon="6.11642">
        <ele>2453.4</ele>
        <time>2024-08-13T13:49:51Z</time>
      </trkpt>
      <trkpt lat="44.84736" lon="6.11642">
        <ele>2453.8</ele>
        <time>2024-08-13T13:49:52Z</time>
      </trkpt>
      <trkpt lat="44.84738" lon="6.11643">
        <ele>2454</ele>
        <time>2024-08-13T13:49:53Z</time>
      </trkpt>
      <trkpt lat="44.84738" lon="6.11643">
        <ele>2454</ele>
        <time>2024-08-13T13:49:54Z</time>
      </trkpt>
      <trkpt lat="44.84738" lon="6.11643">
        <ele>2454.2</ele>
        <time>2024-08-13T13:49:55Z</time>
      </trkpt>
      <trkpt lat="44.84741" lon="6.11643">
        <ele>2454.2</ele>
        <time>2024-08-13T13:49:56Z</time>
      </trkpt>
      <trkpt lat="44.84741" lon="6.11643">
        <ele>2454.6</ele>
        <time>2024-08-13T13:49:57Z</time>
      </trkpt>
      <trkpt lat="44.84741" lon="6.11643">
        <ele>2454.6</ele>
        <time>2024-08-13T13:49:58Z</time>
      </trkpt>
      <trkpt lat="44.84743" lon="6.11643">
        <ele>2454.6</ele>
        <time>2024-08-13T13:49:59Z</time>
      </trkpt>
      <trkpt lat="44.84743" lon="6.11643">
        <ele>2455</ele>
        <time>2024-08-13T13:50:00Z</time>
      </trkpt>
      <trkpt lat="44.84743" lon="6.11643">
        <ele>2455.2</ele>
        <time>2024-08-13T13:50:01Z</time>
      </trkpt>
      <trkpt lat="44.84745" lon="6.11643">
        <ele>2455.8</ele>
        <time>2024-08-13T13:50:02Z</time>
      </trkpt>
      <trkpt lat="44.84745" lon="6.11643">
        <ele>2455.8</ele>
        <time>2024-08-13T13:50:03Z</time>
      </trkpt>
      <trkpt lat="44.84747" lon="6.11643">
        <ele>2456</ele>
        <time>2024-08-13T13:50:04Z</time>
      </trkpt>
      <trkpt lat="44.84747" lon="6.11643">
        <ele>2456.2</ele>
        <time>2024-08-13T13:50:05Z</time>
      </trkpt>
      <trkpt lat="44.84747" lon="6.11643">
        <ele>2456.6</ele>
        <time>2024-08-13T13:50:06Z</time>
      </trkpt>
      <trkpt lat="44.8475" lon="6.11644">
        <ele>2456.6</ele>
        <time>2024-08-13T13:50:07Z</time>
      </trkpt>
      <trkpt lat="44.8475" lon="6.11644">
        <ele>2457</ele>
        <time>2024-08-13T13:50:08Z</time>
      </trkpt>
      <trkpt lat="44.8475" lon="6.11644">
        <ele>2457.2</ele>
        <time>2024-08-13T13:50:09Z</time>
      </trkpt>
      <trkpt lat="44.84752" lon="6.11644">
        <ele>2457.2</ele>
        <time>2024-08-13T13:50:10Z</time>
      </trkpt>
      <trkpt lat="44.84752" lon="6.11644">
        <ele>2457.2</ele>
        <time>2024-08-13T13:50:11Z</time>
      </trkpt>
      <trkpt lat="44.84754" lon="6.11644">
        <ele>2457.2</ele>
        <time>2024-08-13T13:50:12Z</time>
      </trkpt>
      <trkpt lat="44.84754" lon="6.11644">
        <ele>2457.2</ele>
        <time>2024-08-13T13:50:13Z</time>
      </trkpt>
      <trkpt lat="44.84754" lon="6.11644">
        <ele>2457.6</ele>
        <time>2024-08-13T13:50:14Z</time>
      </trkpt>
      <trkpt lat="44.84754" lon="6.11644">
        <ele>2457.6</ele>
        <time>2024-08-13T13:50:15Z</time>
      </trkpt>
      <trkpt lat="44.84754" lon="6.11644">
        <ele>2457.8</ele>
        <time>2024-08-13T13:50:16Z</time>
      </trkpt>
      <trkpt lat="44.84754" lon="6.11644">
        <ele>2458.2</ele>
        <time>2024-08-13T13:50:17Z</time>
      </trkpt>
      <trkpt lat="44.84754" lon="6.11644">
        <ele>2458.4</ele>
        <time>2024-08-13T13:50:18Z</time>
      </trkpt>
      <trkpt lat="44.84754" lon="6.11644">
        <ele>2458.6</ele>
        <time>2024-08-13T13:50:19Z</time>
      </trkpt>
      <trkpt lat="44.84754" lon="6.11644">
        <ele>2459</ele>
        <time>2024-08-13T13:50:20Z</time>
      </trkpt>
      <trkpt lat="44.84754" lon="6.11644">
        <ele>2459.2</ele>
        <time>2024-08-13T13:50:21Z</time>
      </trkpt>
      <trkpt lat="44.84754" lon="6.11644">
        <ele>2459.6</ele>
        <time>2024-08-13T13:50:22Z</time>
      </trkpt>
      <trkpt lat="44.84754" lon="6.11644">
        <ele>2459.6</ele>
        <time>2024-08-13T13:50:23Z</time>
      </trkpt>
      <trkpt lat="44.84752" lon="6.11642">
        <ele>2459.4</ele>
        <time>2024-08-13T13:50:24Z</time>
      </trkpt>
      <trkpt lat="44.84752" lon="6.11642">
        <ele>2459.2</ele>
        <time>2024-08-13T13:50:25Z</time>
      </trkpt>
      <trkpt lat="44.84751" lon="6.11641">
        <ele>2459.2</ele>
        <time>2024-08-13T13:50:26Z</time>
      </trkpt>
      <trkpt lat="44.84751" lon="6.11641">
        <ele>2459.4</ele>
        <time>2024-08-13T13:50:27Z</time>
      </trkpt>
      <trkpt lat="44.84749" lon="6.11638">
        <ele>2459.4</ele>
        <time>2024-08-13T13:50:28Z</time>
      </trkpt>
      <trkpt lat="44.84749" lon="6.11638">
        <ele>2460</ele>
        <time>2024-08-13T13:50:29Z</time>
      </trkpt>
      <trkpt lat="44.84747" lon="6.11636">
        <ele>2460</ele>
        <time>2024-08-13T13:50:30Z</time>
      </trkpt>
      <trkpt lat="44.84747" lon="6.11636">
        <ele>2460.4</ele>
        <time>2024-08-13T13:50:31Z</time>
      </trkpt>
      <trkpt lat="44.84745" lon="6.11634">
        <ele>2460.6</ele>
        <time>2024-08-13T13:50:32Z</time>
      </trkpt>
      <trkpt lat="44.84745" lon="6.11634">
        <ele>2460.6</ele>
        <time>2024-08-13T13:50:33Z</time>
      </trkpt>
      <trkpt lat="44.84745" lon="6.11634">
        <ele>2460.4</ele>
        <time>2024-08-13T13:50:34Z</time>
      </trkpt>
      <trkpt lat="44.84743" lon="6.11632">
        <ele>2460.4</ele>
        <time>2024-08-13T13:50:35Z</time>
      </trkpt>
      <trkpt lat="44.84743" lon="6.11632">
        <ele>2460.6</ele>
        <time>2024-08-13T13:50:36Z</time>
      </trkpt>
      <trkpt lat="44.84743" lon="6.11632">
        <ele>2460.6</ele>
        <time>2024-08-13T13:50:37Z</time>
      </trkpt>
      <trkpt lat="44.84743" lon="6.11629">
        <ele>2461</ele>
        <time>2024-08-13T13:50:38Z</time>
      </trkpt>
      <trkpt lat="44.84743" lon="6.11629">
        <ele>2461.4</ele>
        <time>2024-08-13T13:50:39Z</time>
      </trkpt>
      <trkpt lat="44.84743" lon="6.11629">
        <ele>2461.6</ele>
        <time>2024-08-13T13:50:40Z</time>
      </trkpt>
      <trkpt lat="44.84741" lon="6.11627">
        <ele>2461.8</ele>
        <time>2024-08-13T13:50:41Z</time>
      </trkpt>
      <trkpt lat="44.84741" lon="6.11627">
        <ele>2462</ele>
        <time>2024-08-13T13:50:42Z</time>
      </trkpt>
      <trkpt lat="44.84741" lon="6.11627">
        <ele>2462</ele>
        <time>2024-08-13T13:50:43Z</time>
      </trkpt>
      <trkpt lat="44.8474" lon="6.11624">
        <ele>2462.6</ele>
        <time>2024-08-13T13:50:44Z</time>
      </trkpt>
      <trkpt lat="44.8474" lon="6.11624">
        <ele>2462.8</ele>
        <time>2024-08-13T13:50:45Z</time>
      </trkpt>
      <trkpt lat="44.8474" lon="6.11624">
        <ele>2463</ele>
        <time>2024-08-13T13:50:46Z</time>
      </trkpt>
      <trkpt lat="44.84738" lon="6.11622">
        <ele>2463.2</ele>
        <time>2024-08-13T13:50:47Z</time>
      </trkpt>
      <trkpt lat="44.84738" lon="6.11622">
        <ele>2463.2</ele>
        <time>2024-08-13T13:50:48Z</time>
      </trkpt>
      <trkpt lat="44.84736" lon="6.11621">
        <ele>2463.4</ele>
        <time>2024-08-13T13:50:49Z</time>
      </trkpt>
      <trkpt lat="44.84736" lon="6.11621">
        <ele>2463.8</ele>
        <time>2024-08-13T13:50:50Z</time>
      </trkpt>
      <trkpt lat="44.84736" lon="6.11621">
        <ele>2463.8</ele>
        <time>2024-08-13T13:50:51Z</time>
      </trkpt>
      <trkpt lat="44.84735" lon="6.11618">
        <ele>2464</ele>
        <time>2024-08-13T13:50:52Z</time>
      </trkpt>
      <trkpt lat="44.84735" lon="6.11618">
        <ele>2464.4</ele>
        <time>2024-08-13T13:50:53Z</time>
      </trkpt>
      <trkpt lat="44.84734" lon="6.11615">
        <ele>2464.6</ele>
        <time>2024-08-13T13:50:54Z</time>
      </trkpt>
      <trkpt lat="44.84734" lon="6.11615">
        <ele>2464.8</ele>
        <time>2024-08-13T13:50:55Z</time>
      </trkpt>
      <trkpt lat="44.84734" lon="6.11615">
        <ele>2464.8</ele>
        <time>2024-08-13T13:50:56Z</time>
      </trkpt>
      <trkpt lat="44.84733" lon="6.11614">
        <ele>2464.8</ele>
        <time>2024-08-13T13:50:57Z</time>
      </trkpt>
      <trkpt lat="44.84733" lon="6.11614">
        <ele>2465</ele>
        <time>2024-08-13T13:50:58Z</time>
      </trkpt>
      <trkpt lat="44.84733" lon="6.11614">
        <ele>2465</ele>
        <time>2024-08-13T13:50:59Z</time>
      </trkpt>
      <trkpt lat="44.84731" lon="6.11612">
        <ele>2465.6</ele>
        <time>2024-08-13T13:51:00Z</time>
      </trkpt>
      <trkpt lat="44.84731" lon="6.11612">
        <ele>2465.8</ele>
        <time>2024-08-13T13:51:01Z</time>
      </trkpt>
      <trkpt lat="44.84729" lon="6.1161">
        <ele>2466.2</ele>
        <time>2024-08-13T13:51:02Z</time>
      </trkpt>
      <trkpt lat="44.84729" lon="6.1161">
        <ele>2466.2</ele>
        <time>2024-08-13T13:51:03Z</time>
      </trkpt>
      <trkpt lat="44.84729" lon="6.1161">
        <ele>2466.4</ele>
        <time>2024-08-13T13:51:04Z</time>
      </trkpt>
      <trkpt lat="44.84728" lon="6.11607">
        <ele>2466.4</ele>
        <time>2024-08-13T13:51:05Z</time>
      </trkpt>
      <trkpt lat="44.84728" lon="6.11607">
        <ele>2466.6</ele>
        <time>2024-08-13T13:51:06Z</time>
      </trkpt>
      <trkpt lat="44.84727" lon="6.11605">
        <ele>2466.8</ele>
        <time>2024-08-13T13:51:07Z</time>
      </trkpt>
      <trkpt lat="44.84727" lon="6.11605">
        <ele>2467.2</ele>
        <time>2024-08-13T13:51:08Z</time>
      </trkpt>
      <trkpt lat="44.84727" lon="6.11602">
        <ele>2467.2</ele>
        <time>2024-08-13T13:51:09Z</time>
      </trkpt>
      <trkpt lat="44.84727" lon="6.11602">
        <ele>2467.4</ele>
        <time>2024-08-13T13:51:10Z</time>
      </trkpt>
      <trkpt lat="44.84727" lon="6.11602">
        <ele>2467.4</ele>
        <time>2024-08-13T13:51:11Z</time>
      </trkpt>
      <trkpt lat="44.84726" lon="6.11599">
        <ele>2467.6</ele>
        <time>2024-08-13T13:51:12Z</time>
      </trkpt>
      <trkpt lat="44.84726" lon="6.11599">
        <ele>2468</ele>
        <time>2024-08-13T13:51:13Z</time>
      </trkpt>
      <trkpt lat="44.84726" lon="6.11599">
        <ele>2468</ele>
        <time>2024-08-13T13:51:14Z</time>
      </trkpt>
      <trkpt lat="44.84726" lon="6.11595">
        <ele>2468.2</ele>
        <time>2024-08-13T13:51:15Z</time>
      </trkpt>
      <trkpt lat="44.84726" lon="6.11595">
        <ele>2468.4</ele>
        <time>2024-08-13T13:51:16Z</time>
      </trkpt>
      <trkpt lat="44.84726" lon="6.11595">
        <ele>2468.8</ele>
        <time>2024-08-13T13:51:17Z</time>
      </trkpt>
      <trkpt lat="44.84725" lon="6.11593">
        <ele>2469</ele>
        <time>2024-08-13T13:51:18Z</time>
      </trkpt>
      <trkpt lat="44.84725" lon="6.11593">
        <ele>2469.2</ele>
        <time>2024-08-13T13:51:19Z</time>
      </trkpt>
      <trkpt lat="44.84725" lon="6.11593">
        <ele>2469.4</ele>
        <time>2024-08-13T13:51:20Z</time>
      </trkpt>
      <trkpt lat="44.84724" lon="6.11591">
        <ele>2469.6</ele>
        <time>2024-08-13T13:51:21Z</time>
      </trkpt>
      <trkpt lat="44.84724" lon="6.11591">
        <ele>2470</ele>
        <time>2024-08-13T13:51:22Z</time>
      </trkpt>
      <trkpt lat="44.84724" lon="6.11591">
        <ele>2470</ele>
        <time>2024-08-13T13:51:23Z</time>
      </trkpt>
      <trkpt lat="44.84723" lon="6.11588">
        <ele>2470.2</ele>
        <time>2024-08-13T13:51:24Z</time>
      </trkpt>
      <trkpt lat="44.84723" lon="6.11588">
        <ele>2470.4</ele>
        <time>2024-08-13T13:51:25Z</time>
      </trkpt>
      <trkpt lat="44.84721" lon="6.11586">
        <ele>2470.6</ele>
        <time>2024-08-13T13:51:26Z</time>
      </trkpt>
      <trkpt lat="44.84721" lon="6.11586">
        <ele>2470.8</ele>
        <time>2024-08-13T13:51:27Z</time>
      </trkpt>
      <trkpt lat="44.84721" lon="6.11586">
        <ele>2471</ele>
        <time>2024-08-13T13:51:28Z</time>
      </trkpt>
      <trkpt lat="44.8472" lon="6.11583">
        <ele>2471.2</ele>
        <time>2024-08-13T13:51:29Z</time>
      </trkpt>
      <trkpt lat="44.8472" lon="6.11583">
        <ele>2471.2</ele>
        <time>2024-08-13T13:51:30Z</time>
      </trkpt>
      <trkpt lat="44.84719" lon="6.11581">
        <ele>2471.4</ele>
        <time>2024-08-13T13:51:31Z</time>
      </trkpt>
      <trkpt lat="44.84719" lon="6.11581">
        <ele>2471.4</ele>
        <time>2024-08-13T13:51:32Z</time>
      </trkpt>
      <trkpt lat="44.84717" lon="6.11578">
        <ele>2472</ele>
        <time>2024-08-13T13:51:33Z</time>
      </trkpt>
      <trkpt lat="44.84717" lon="6.11578">
        <ele>2472.2</ele>
        <time>2024-08-13T13:51:34Z</time>
      </trkpt>
      <trkpt lat="44.84717" lon="6.11578">
        <ele>2472.2</ele>
        <time>2024-08-13T13:51:35Z</time>
      </trkpt>
      <trkpt lat="44.84717" lon="6.11575">
        <ele>2472.2</ele>
        <time>2024-08-13T13:51:36Z</time>
      </trkpt>
      <trkpt lat="44.84717" lon="6.11575">
        <ele>2472.4</ele>
        <time>2024-08-13T13:51:37Z</time>
      </trkpt>
      <trkpt lat="44.84717" lon="6.11575">
        <ele>2472.4</ele>
        <time>2024-08-13T13:51:38Z</time>
      </trkpt>
      <trkpt lat="44.84715" lon="6.11572">
        <ele>2472.6</ele>
        <time>2024-08-13T13:51:39Z</time>
      </trkpt>
      <trkpt lat="44.84715" lon="6.11572">
        <ele>2472.8</ele>
        <time>2024-08-13T13:51:40Z</time>
      </trkpt>
      <trkpt lat="44.84715" lon="6.11572">
        <ele>2472.8</ele>
        <time>2024-08-13T13:51:41Z</time>
      </trkpt>
      <trkpt lat="44.84714" lon="6.11569">
        <ele>2472.8</ele>
        <time>2024-08-13T13:51:42Z</time>
      </trkpt>
      <trkpt lat="44.84714" lon="6.11569">
        <ele>2473</ele>
        <time>2024-08-13T13:51:43Z</time>
      </trkpt>
      <trkpt lat="44.84714" lon="6.11569">
        <ele>2473.4</ele>
        <time>2024-08-13T13:51:44Z</time>
      </trkpt>
      <trkpt lat="44.84714" lon="6.11569">
        <ele>2474</ele>
        <time>2024-08-13T13:51:45Z</time>
      </trkpt>
      <trkpt lat="44.84712" lon="6.11566">
        <ele>2474</ele>
        <time>2024-08-13T13:51:46Z</time>
      </trkpt>
      <trkpt lat="44.84712" lon="6.11566">
        <ele>2474.4</ele>
        <time>2024-08-13T13:51:47Z</time>
      </trkpt>
      <trkpt lat="44.84712" lon="6.11566">
        <ele>2474.8</ele>
        <time>2024-08-13T13:51:48Z</time>
      </trkpt>
      <trkpt lat="44.84711" lon="6.11563">
        <ele>2474.8</ele>
        <time>2024-08-13T13:51:49Z</time>
      </trkpt>
      <trkpt lat="44.84711" lon="6.11563">
        <ele>2474.8</ele>
        <time>2024-08-13T13:51:50Z</time>
      </trkpt>
      <trkpt lat="44.84711" lon="6.11563">
        <ele>2475</ele>
        <time>2024-08-13T13:51:51Z</time>
      </trkpt>
      <trkpt lat="44.84709" lon="6.1156">
        <ele>2475.2</ele>
        <time>2024-08-13T13:51:52Z</time>
      </trkpt>
      <trkpt lat="44.84709" lon="6.1156">
        <ele>2475.8</ele>
        <time>2024-08-13T13:51:53Z</time>
      </trkpt>
      <trkpt lat="44.84709" lon="6.1156">
        <ele>2475.8</ele>
        <time>2024-08-13T13:51:54Z</time>
      </trkpt>
      <trkpt lat="44.84708" lon="6.11557">
        <ele>2476.2</ele>
        <time>2024-08-13T13:51:55Z</time>
      </trkpt>
      <trkpt lat="44.84708" lon="6.11557">
        <ele>2476.4</ele>
        <time>2024-08-13T13:51:56Z</time>
      </trkpt>
      <trkpt lat="44.84708" lon="6.11557">
        <ele>2476.6</ele>
        <time>2024-08-13T13:51:57Z</time>
      </trkpt>
      <trkpt lat="44.84708" lon="6.11557">
        <ele>2476.6</ele>
        <time>2024-08-13T13:51:58Z</time>
      </trkpt>
      <trkpt lat="44.84708" lon="6.11557">
        <ele>2476.8</ele>
        <time>2024-08-13T13:51:59Z</time>
      </trkpt>
      <trkpt lat="44.84707" lon="6.11554">
        <ele>2477</ele>
        <time>2024-08-13T13:52:00Z</time>
      </trkpt>
      <trkpt lat="44.84707" lon="6.11554">
        <ele>2477</ele>
        <time>2024-08-13T13:52:01Z</time>
      </trkpt>
      <trkpt lat="44.84707" lon="6.11554">
        <ele>2477.8</ele>
        <time>2024-08-13T13:52:02Z</time>
      </trkpt>
      <trkpt lat="44.84706" lon="6.11551">
        <ele>2477.8</ele>
        <time>2024-08-13T13:52:03Z</time>
      </trkpt>
      <trkpt lat="44.84706" lon="6.11551">
        <ele>2478</ele>
        <time>2024-08-13T13:52:04Z</time>
      </trkpt>
      <trkpt lat="44.84704" lon="6.1155">
        <ele>2478.2</ele>
        <time>2024-08-13T13:52:05Z</time>
      </trkpt>
      <trkpt lat="44.84704" lon="6.1155">
        <ele>2478.2</ele>
        <time>2024-08-13T13:52:06Z</time>
      </trkpt>
      <trkpt lat="44.84704" lon="6.1155">
        <ele>2478.2</ele>
        <time>2024-08-13T13:52:07Z</time>
      </trkpt>
      <trkpt lat="44.84702" lon="6.11547">
        <ele>2478.4</ele>
        <time>2024-08-13T13:52:08Z</time>
      </trkpt>
      <trkpt lat="44.84702" lon="6.11547">
        <ele>2478.8</ele>
        <time>2024-08-13T13:52:09Z</time>
      </trkpt>
      <trkpt lat="44.84702" lon="6.11547">
        <ele>2479</ele>
        <time>2024-08-13T13:52:10Z</time>
      </trkpt>
      <trkpt lat="44.84701" lon="6.11544">
        <ele>2479.4</ele>
        <time>2024-08-13T13:52:11Z</time>
      </trkpt>
      <trkpt lat="44.84701" lon="6.11544">
        <ele>2480</ele>
        <time>2024-08-13T13:52:12Z</time>
      </trkpt>
      <trkpt lat="44.84701" lon="6.11544">
        <ele>2480.2</ele>
        <time>2024-08-13T13:52:13Z</time>
      </trkpt>
      <trkpt lat="44.847" lon="6.11541">
        <ele>2480.4</ele>
        <time>2024-08-13T13:52:14Z</time>
      </trkpt>
      <trkpt lat="44.847" lon="6.11541">
        <ele>2480.4</ele>
        <time>2024-08-13T13:52:15Z</time>
      </trkpt>
      <trkpt lat="44.84699" lon="6.11539">
        <ele>2480.4</ele>
        <time>2024-08-13T13:52:16Z</time>
      </trkpt>
      <trkpt lat="44.84699" lon="6.11539">
        <ele>2480.4</ele>
        <time>2024-08-13T13:52:17Z</time>
      </trkpt>
      <trkpt lat="44.84698" lon="6.11537">
        <ele>2480.6</ele>
        <time>2024-08-13T13:52:18Z</time>
      </trkpt>
      <trkpt lat="44.84698" lon="6.11537">
        <ele>2481.2</ele>
        <time>2024-08-13T13:52:19Z</time>
      </trkpt>
      <trkpt lat="44.84698" lon="6.11537">
        <ele>2481.4</ele>
        <time>2024-08-13T13:52:20Z</time>
      </trkpt>
      <trkpt lat="44.84696" lon="6.11535">
        <ele>2481.4</ele>
        <time>2024-08-13T13:52:21Z</time>
      </trkpt>
      <trkpt lat="44.84696" lon="6.11535">
        <ele>2482</ele>
        <time>2024-08-13T13:52:22Z</time>
      </trkpt>
      <trkpt lat="44.84695" lon="6.11533">
        <ele>2482</ele>
        <time>2024-08-13T13:52:23Z</time>
      </trkpt>
      <trkpt lat="44.84695" lon="6.11533">
        <ele>2482.2</ele>
        <time>2024-08-13T13:52:24Z</time>
      </trkpt>
      <trkpt lat="44.84695" lon="6.11533">
        <ele>2482.4</ele>
        <time>2024-08-13T13:52:25Z</time>
      </trkpt>
      <trkpt lat="44.84695" lon="6.1153">
        <ele>2482.6</ele>
        <time>2024-08-13T13:52:26Z</time>
      </trkpt>
      <trkpt lat="44.84695" lon="6.1153">
        <ele>2483.2</ele>
        <time>2024-08-13T13:52:27Z</time>
      </trkpt>
      <trkpt lat="44.84693" lon="6.11529">
        <ele>2483.2</ele>
        <time>2024-08-13T13:52:28Z</time>
      </trkpt>
      <trkpt lat="44.84693" lon="6.11529">
        <ele>2483.4</ele>
        <time>2024-08-13T13:52:29Z</time>
      </trkpt>
      <trkpt lat="44.84693" lon="6.11529">
        <ele>2483.4</ele>
        <time>2024-08-13T13:52:30Z</time>
      </trkpt>
      <trkpt lat="44.84691" lon="6.11526">
        <ele>2483.8</ele>
        <time>2024-08-13T13:52:31Z</time>
      </trkpt>
      <trkpt lat="44.84691" lon="6.11526">
        <ele>2484</ele>
        <time>2024-08-13T13:52:32Z</time>
      </trkpt>
      <trkpt lat="44.8469" lon="6.11525">
        <ele>2484.2</ele>
        <time>2024-08-13T13:52:33Z</time>
      </trkpt>
      <trkpt lat="44.8469" lon="6.11525">
        <ele>2484.6</ele>
        <time>2024-08-13T13:52:34Z</time>
      </trkpt>
      <trkpt lat="44.84688" lon="6.11522">
        <ele>2484.8</ele>
        <time>2024-08-13T13:52:35Z</time>
      </trkpt>
      <trkpt lat="44.84688" lon="6.11522">
        <ele>2485</ele>
        <time>2024-08-13T13:52:36Z</time>
      </trkpt>
      <trkpt lat="44.84688" lon="6.11522">
        <ele>2485.2</ele>
        <time>2024-08-13T13:52:37Z</time>
      </trkpt>
      <trkpt lat="44.84686" lon="6.11521">
        <ele>2485.4</ele>
        <time>2024-08-13T13:52:38Z</time>
      </trkpt>
      <trkpt lat="44.84686" lon="6.11521">
        <ele>2485.4</ele>
        <time>2024-08-13T13:52:39Z</time>
      </trkpt>
      <trkpt lat="44.84686" lon="6.11521">
        <ele>2485.6</ele>
        <time>2024-08-13T13:52:40Z</time>
      </trkpt>
      <trkpt lat="44.84684" lon="6.11518">
        <ele>2485.8</ele>
        <time>2024-08-13T13:52:41Z</time>
      </trkpt>
      <trkpt lat="44.84684" lon="6.11518">
        <ele>2486</ele>
        <time>2024-08-13T13:52:42Z</time>
      </trkpt>
      <trkpt lat="44.84684" lon="6.11518">
        <ele>2486.2</ele>
        <time>2024-08-13T13:52:43Z</time>
      </trkpt>
      <trkpt lat="44.84683" lon="6.11516">
        <ele>2486.8</ele>
        <time>2024-08-13T13:52:44Z</time>
      </trkpt>
      <trkpt lat="44.84683" lon="6.11516">
        <ele>2486.8</ele>
        <time>2024-08-13T13:52:45Z</time>
      </trkpt>
      <trkpt lat="44.84681" lon="6.11515">
        <ele>2487.2</ele>
        <time>2024-08-13T13:52:46Z</time>
      </trkpt>
      <trkpt lat="44.84681" lon="6.11515">
        <ele>2487</ele>
        <time>2024-08-13T13:52:47Z</time>
      </trkpt>
      <trkpt lat="44.84681" lon="6.11515">
        <ele>2487.2</ele>
        <time>2024-08-13T13:52:48Z</time>
      </trkpt>
      <trkpt lat="44.84679" lon="6.11513">
        <ele>2487.6</ele>
        <time>2024-08-13T13:52:49Z</time>
      </trkpt>
      <trkpt lat="44.84679" lon="6.11513">
        <ele>2487.8</ele>
        <time>2024-08-13T13:52:50Z</time>
      </trkpt>
      <trkpt lat="44.84679" lon="6.11513">
        <ele>2487.8</ele>
        <time>2024-08-13T13:52:51Z</time>
      </trkpt>
      <trkpt lat="44.84679" lon="6.11513">
        <ele>2488.6</ele>
        <time>2024-08-13T13:52:52Z</time>
      </trkpt>
      <trkpt lat="44.84677" lon="6.11511">
        <ele>2488.6</ele>
        <time>2024-08-13T13:52:53Z</time>
      </trkpt>
      <trkpt lat="44.84677" lon="6.11511">
        <ele>2488.8</ele>
        <time>2024-08-13T13:52:54Z</time>
      </trkpt>
      <trkpt lat="44.84677" lon="6.11511">
        <ele>2488.8</ele>
        <time>2024-08-13T13:52:55Z</time>
      </trkpt>
      <trkpt lat="44.84675" lon="6.11509">
        <ele>2489</ele>
        <time>2024-08-13T13:52:56Z</time>
      </trkpt>
      <trkpt lat="44.84675" lon="6.11509">
        <ele>2489.4</ele>
        <time>2024-08-13T13:52:57Z</time>
      </trkpt>
      <trkpt lat="44.84674" lon="6.11507">
        <ele>2490</ele>
        <time>2024-08-13T13:52:58Z</time>
      </trkpt>
      <trkpt lat="44.84674" lon="6.11507">
        <ele>2490</ele>
        <time>2024-08-13T13:52:59Z</time>
      </trkpt>
      <trkpt lat="44.84671" lon="6.11505">
        <ele>2490.2</ele>
        <time>2024-08-13T13:53:00Z</time>
      </trkpt>
      <trkpt lat="44.84671" lon="6.11505">
        <ele>2490.4</ele>
        <time>2024-08-13T13:53:01Z</time>
      </trkpt>
      <trkpt lat="44.84671" lon="6.11505">
        <ele>2490.8</ele>
        <time>2024-08-13T13:53:02Z</time>
      </trkpt>
      <trkpt lat="44.84671" lon="6.11505">
        <ele>2490.8</ele>
        <time>2024-08-13T13:53:03Z</time>
      </trkpt>
      <trkpt lat="44.84671" lon="6.11505">
        <ele>2491</ele>
        <time>2024-08-13T13:53:04Z</time>
      </trkpt>
      <trkpt lat="44.84671" lon="6.11505">
        <ele>2491</ele>
        <time>2024-08-13T13:53:05Z</time>
      </trkpt>
      <trkpt lat="44.84671" lon="6.11505">
        <ele>2491</ele>
        <time>2024-08-13T13:53:06Z</time>
      </trkpt>
      <trkpt lat="44.84671" lon="6.11505">
        <ele>2491</ele>
        <time>2024-08-13T13:53:07Z</time>
      </trkpt>
      <trkpt lat="44.84669" lon="6.11503">
        <ele>2491.4</ele>
        <time>2024-08-13T13:53:08Z</time>
      </trkpt>
      <trkpt lat="44.84669" lon="6.11503">
        <ele>2491.6</ele>
        <time>2024-08-13T13:53:09Z</time>
      </trkpt>
      <trkpt lat="44.84668" lon="6.115">
        <ele>2490.8</ele>
        <time>2024-08-13T13:53:10Z</time>
      </trkpt>
      <trkpt lat="44.84668" lon="6.115">
        <ele>2490.8</ele>
        <time>2024-08-13T13:53:11Z</time>
      </trkpt>
      <trkpt lat="44.84667" lon="6.11497">
        <ele>2491.2</ele>
        <time>2024-08-13T13:53:12Z</time>
      </trkpt>
      <trkpt lat="44.84667" lon="6.11497">
        <ele>2491.2</ele>
        <time>2024-08-13T13:53:13Z</time>
      </trkpt>
      <trkpt lat="44.84665" lon="6.11494">
        <ele>2491.4</ele>
        <time>2024-08-13T13:53:14Z</time>
      </trkpt>
      <trkpt lat="44.84665" lon="6.11494">
        <ele>2491.6</ele>
        <time>2024-08-13T13:53:15Z</time>
      </trkpt>
      <trkpt lat="44.84665" lon="6.11494">
        <ele>2491.8</ele>
        <time>2024-08-13T13:53:16Z</time>
      </trkpt>
      <trkpt lat="44.84663" lon="6.11492">
        <ele>2491.8</ele>
        <time>2024-08-13T13:53:17Z</time>
      </trkpt>
      <trkpt lat="44.84663" lon="6.11492">
        <ele>2492.4</ele>
        <time>2024-08-13T13:53:18Z</time>
      </trkpt>
      <trkpt lat="44.84663" lon="6.11492">
        <ele>2492.4</ele>
        <time>2024-08-13T13:53:19Z</time>
      </trkpt>
      <trkpt lat="44.84662" lon="6.1149">
        <ele>2492.4</ele>
        <time>2024-08-13T13:53:20Z</time>
      </trkpt>
      <trkpt lat="44.84662" lon="6.1149">
        <ele>2492.6</ele>
        <time>2024-08-13T13:53:21Z</time>
      </trkpt>
      <trkpt lat="44.84662" lon="6.1149">
        <ele>2492.6</ele>
        <time>2024-08-13T13:53:22Z</time>
      </trkpt>
      <trkpt lat="44.84661" lon="6.11487">
        <ele>2492.8</ele>
        <time>2024-08-13T13:53:23Z</time>
      </trkpt>
      <trkpt lat="44.84661" lon="6.11487">
        <ele>2493.2</ele>
        <time>2024-08-13T13:53:24Z</time>
      </trkpt>
      <trkpt lat="44.84661" lon="6.11487">
        <ele>2494</ele>
        <time>2024-08-13T13:53:25Z</time>
      </trkpt>
      <trkpt lat="44.84661" lon="6.11487">
        <ele>2494.2</ele>
        <time>2024-08-13T13:53:26Z</time>
      </trkpt>
      <trkpt lat="44.84661" lon="6.11484">
        <ele>2494.4</ele>
        <time>2024-08-13T13:53:27Z</time>
      </trkpt>
      <trkpt lat="44.84661" lon="6.11484">
        <ele>2494.6</ele>
        <time>2024-08-13T13:53:28Z</time>
      </trkpt>
      <trkpt lat="44.84663" lon="6.11483">
        <ele>2495.2</ele>
        <time>2024-08-13T13:53:29Z</time>
      </trkpt>
      <trkpt lat="44.84663" lon="6.11483">
        <ele>2495.2</ele>
        <time>2024-08-13T13:53:30Z</time>
      </trkpt>
      <trkpt lat="44.84663" lon="6.11483">
        <ele>2495.4</ele>
        <time>2024-08-13T13:53:31Z</time>
      </trkpt>
      <trkpt lat="44.84665" lon="6.11483">
        <ele>2495.8</ele>
        <time>2024-08-13T13:53:32Z</time>
      </trkpt>
      <trkpt lat="44.84665" lon="6.11483">
        <ele>2496</ele>
        <time>2024-08-13T13:53:33Z</time>
      </trkpt>
      <trkpt lat="44.84665" lon="6.11483">
        <ele>2496.2</ele>
        <time>2024-08-13T13:53:34Z</time>
      </trkpt>
      <trkpt lat="44.84668" lon="6.11483">
        <ele>2496.4</ele>
        <time>2024-08-13T13:53:35Z</time>
      </trkpt>
      <trkpt lat="44.84668" lon="6.11483">
        <ele>2496.4</ele>
        <time>2024-08-13T13:53:36Z</time>
      </trkpt>
      <trkpt lat="44.84669" lon="6.11484">
        <ele>2496.8</ele>
        <time>2024-08-13T13:53:37Z</time>
      </trkpt>
      <trkpt lat="44.84669" lon="6.11484">
        <ele>2496.8</ele>
        <time>2024-08-13T13:53:38Z</time>
      </trkpt>
      <trkpt lat="44.84669" lon="6.11484">
        <ele>2496.8</ele>
        <time>2024-08-13T13:53:39Z</time>
      </trkpt>
      <trkpt lat="44.84672" lon="6.11485">
        <ele>2497.2</ele>
        <time>2024-08-13T13:53:40Z</time>
      </trkpt>
      <trkpt lat="44.84672" lon="6.11485">
        <ele>2497.6</ele>
        <time>2024-08-13T13:53:41Z</time>
      </trkpt>
      <trkpt lat="44.84672" lon="6.11485">
        <ele>2498</ele>
        <time>2024-08-13T13:53:42Z</time>
      </trkpt>
      <trkpt lat="44.84673" lon="6.11488">
        <ele>2498.2</ele>
        <time>2024-08-13T13:53:43Z</time>
      </trkpt>
      <trkpt lat="44.84673" lon="6.11488">
        <ele>2498.6</ele>
        <time>2024-08-13T13:53:44Z</time>
      </trkpt>
      <trkpt lat="44.84673" lon="6.11488">
        <ele>2499.2</ele>
        <time>2024-08-13T13:53:45Z</time>
      </trkpt>
      <trkpt lat="44.84675" lon="6.1149">
        <ele>2499.2</ele>
        <time>2024-08-13T13:53:46Z</time>
      </trkpt>
      <trkpt lat="44.84675" lon="6.1149">
        <ele>2499</ele>
        <time>2024-08-13T13:53:47Z</time>
      </trkpt>
      <trkpt lat="44.84675" lon="6.1149">
        <ele>2499</ele>
        <time>2024-08-13T13:53:48Z</time>
      </trkpt>
      <trkpt lat="44.84677" lon="6.11491">
        <ele>2500</ele>
        <time>2024-08-13T13:53:49Z</time>
      </trkpt>
      <trkpt lat="44.84677" lon="6.11491">
        <ele>2500.2</ele>
        <time>2024-08-13T13:53:50Z</time>
      </trkpt>
      <trkpt lat="44.84677" lon="6.11491">
        <ele>2500.2</ele>
        <time>2024-08-13T13:53:51Z</time>
      </trkpt>
      <trkpt lat="44.84679" lon="6.11492">
        <ele>2500.2</ele>
        <time>2024-08-13T13:53:52Z</time>
      </trkpt>
      <trkpt lat="44.84679" lon="6.11492">
        <ele>2500</ele>
        <time>2024-08-13T13:53:53Z</time>
      </trkpt>
      <trkpt lat="44.84679" lon="6.11492">
        <ele>2500</ele>
        <time>2024-08-13T13:53:54Z</time>
      </trkpt>
      <trkpt lat="44.84681" lon="6.11493">
        <ele>2500.4</ele>
        <time>2024-08-13T13:53:55Z</time>
      </trkpt>
      <trkpt lat="44.84681" lon="6.11493">
        <ele>2500.4</ele>
        <time>2024-08-13T13:53:56Z</time>
      </trkpt>
      <trkpt lat="44.84681" lon="6.11493">
        <ele>2500.4</ele>
        <time>2024-08-13T13:53:57Z</time>
      </trkpt>
      <trkpt lat="44.84683" lon="6.11494">
        <ele>2500.4</ele>
        <time>2024-08-13T13:53:58Z</time>
      </trkpt>
      <trkpt lat="44.84683" lon="6.11494">
        <ele>2500.4</ele>
        <time>2024-08-13T13:53:59Z</time>
      </trkpt>
      <trkpt lat="44.84683" lon="6.11494">
        <ele>2500.4</ele>
        <time>2024-08-13T13:54:00Z</time>
      </trkpt>
      <trkpt lat="44.84685" lon="6.11493">
        <ele>2500.4</ele>
        <time>2024-08-13T13:54:01Z</time>
      </trkpt>
      <trkpt lat="44.84685" lon="6.11493">
        <ele>2501.2</ele>
        <time>2024-08-13T13:54:02Z</time>
      </trkpt>
      <trkpt lat="44.84685" lon="6.11493">
        <ele>2501.2</ele>
        <time>2024-08-13T13:54:03Z</time>
      </trkpt>
      <trkpt lat="44.84685" lon="6.11493">
        <ele>2500.8</ele>
        <time>2024-08-13T13:54:04Z</time>
      </trkpt>
      <trkpt lat="44.84685" lon="6.11493">
        <ele>2500.8</ele>
        <time>2024-08-13T13:54:05Z</time>
      </trkpt>
      <trkpt lat="44.84685" lon="6.11493">
        <ele>2501.4</ele>
        <time>2024-08-13T13:54:06Z</time>
      </trkpt>
      <trkpt lat="44.84685" lon="6.11493">
        <ele>2501.6</ele>
        <time>2024-08-13T13:54:07Z</time>
      </trkpt>
      <trkpt lat="44.84685" lon="6.11493">
        <ele>2501.6</ele>
        <time>2024-08-13T13:54:08Z</time>
      </trkpt>
      <trkpt lat="44.84685" lon="6.11493">
        <ele>2501.2</ele>
        <time>2024-08-13T13:54:09Z</time>
      </trkpt>
      <trkpt lat="44.84685" lon="6.11493">
        <ele>2501.2</ele>
        <time>2024-08-13T13:54:10Z</time>
      </trkpt>
      <trkpt lat="44.84685" lon="6.11493">
        <ele>2501.2</ele>
        <time>2024-08-13T13:54:11Z</time>
      </trkpt>
      <trkpt lat="44.84685" lon="6.11493">
        <ele>2501.4</ele>
        <time>2024-08-13T13:54:12Z</time>
      </trkpt>
      <trkpt lat="44.84685" lon="6.11493">
        <ele>2501.4</ele>
        <time>2024-08-13T13:54:13Z</time>
      </trkpt>
      <trkpt lat="44.84685" lon="6.11493">
        <ele>2501.4</ele>
        <time>2024-08-13T13:54:14Z</time>
      </trkpt>
      <trkpt lat="44.84685" lon="6.11493">
        <ele>2501.4</ele>
        <time>2024-08-13T13:54:15Z</time>
      </trkpt>
      <trkpt lat="44.84685" lon="6.11493">
        <ele>2501.4</ele>
        <time>2024-08-13T13:54:16Z</time>
      </trkpt>
      <trkpt lat="44.84685" lon="6.11493">
        <ele>2501.4</ele>
        <time>2024-08-13T13:54:17Z</time>
      </trkpt>
      <trkpt lat="44.84685" lon="6.11493">
        <ele>2501.4</ele>
        <time>2024-08-13T13:54:18Z</time>
      </trkpt>
      <trkpt lat="44.84685" lon="6.11493">
        <ele>2501.4</ele>
        <time>2024-08-13T13:54:19Z</time>
      </trkpt>
      <trkpt lat="44.84685" lon="6.11493">
        <ele>2501.6</ele>
        <time>2024-08-13T13:54:20Z</time>
      </trkpt>
      <trkpt lat="44.84685" lon="6.11493">
        <ele>2501.6</ele>
        <time>2024-08-13T13:54:21Z</time>
      </trkpt>
      <trkpt lat="44.84685" lon="6.11493">
        <ele>2501.6</ele>
        <time>2024-08-13T13:54:22Z</time>
      </trkpt>
      <trkpt lat="44.84685" lon="6.11493">
        <ele>2501.6</ele>
        <time>2024-08-13T13:54:23Z</time>
      </trkpt>
      <trkpt lat="44.84685" lon="6.11493">
        <ele>2501.6</ele>
        <time>2024-08-13T13:54:24Z</time>
      </trkpt>
      <trkpt lat="44.84685" lon="6.11493">
        <ele>2501.6</ele>
        <time>2024-08-13T13:54:25Z</time>
      </trkpt>
      <trkpt lat="44.84685" lon="6.11493">
        <ele>2501.6</ele>
        <time>2024-08-13T13:54:26Z</time>
      </trkpt>
      <trkpt lat="44.84685" lon="6.11493">
        <ele>2501.6</ele>
        <time>2024-08-13T13:54:27Z</time>
      </trkpt>
      <trkpt lat="44.84685" lon="6.11493">
        <ele>2501.4</ele>
        <time>2024-08-13T13:54:28Z</time>
      </trkpt>
      <trkpt lat="44.84685" lon="6.11493">
        <ele>2501.4</ele>
        <time>2024-08-13T13:54:29Z</time>
      </trkpt>
      <trkpt lat="44.84685" lon="6.11493">
        <ele>2501.4</ele>
        <time>2024-08-13T13:54:30Z</time>
      </trkpt>
      <trkpt lat="44.84685" lon="6.11493">
        <ele>2501.4</ele>
        <time>2024-08-13T13:54:31Z</time>
      </trkpt>
      <trkpt lat="44.84685" lon="6.11493">
        <ele>2501.6</ele>
        <time>2024-08-13T13:54:32Z</time>
      </trkpt>
      <trkpt lat="44.84685" lon="6.11493">
        <ele>2501.6</ele>
        <time>2024-08-13T13:54:33Z</time>
      </trkpt>
      <trkpt lat="44.84685" lon="6.11493">
        <ele>2501.6</ele>
        <time>2024-08-13T13:54:34Z</time>
      </trkpt>
      <trkpt lat="44.84685" lon="6.11493">
        <ele>2501.6</ele>
        <time>2024-08-13T13:54:35Z</time>
      </trkpt>
      <trkpt lat="44.84685" lon="6.11493">
        <ele>2501.4</ele>
        <time>2024-08-13T13:54:36Z</time>
      </trkpt>
      <trkpt lat="44.84685" lon="6.11493">
        <ele>2501.4</ele>
        <time>2024-08-13T13:54:37Z</time>
      </trkpt>
      <trkpt lat="44.84685" lon="6.11493">
        <ele>2501.4</ele>
        <time>2024-08-13T13:54:38Z</time>
      </trkpt>
      <trkpt lat="44.84685" lon="6.11493">
        <ele>2501.4</ele>
        <time>2024-08-13T13:54:39Z</time>
      </trkpt>
      <trkpt lat="44.84685" lon="6.11493">
        <ele>2501.4</ele>
        <time>2024-08-13T13:54:40Z</time>
      </trkpt>
      <trkpt lat="44.84685" lon="6.11493">
        <ele>2501.4</ele>
        <time>2024-08-13T13:54:41Z</time>
      </trkpt>
      <trkpt lat="44.84685" lon="6.11493">
        <ele>2501.8</ele>
        <time>2024-08-13T13:54:42Z</time>
      </trkpt>
      <trkpt lat="44.84685" lon="6.11493">
        <ele>2502.2</ele>
        <time>2024-08-13T13:54:43Z</time>
      </trkpt>
      <trkpt lat="44.84685" lon="6.11493">
        <ele>2502.4</ele>
        <time>2024-08-13T13:54:44Z</time>
      </trkpt>
      <trkpt lat="44.84685" lon="6.11493">
        <ele>2502.4</ele>
        <time>2024-08-13T13:54:45Z</time>
      </trkpt>
      <trkpt lat="44.84685" lon="6.11493">
        <ele>2502.4</ele>
        <time>2024-08-13T13:54:46Z</time>
      </trkpt>
      <trkpt lat="44.84685" lon="6.11493">
        <ele>2502.6</ele>
        <time>2024-08-13T13:54:47Z</time>
      </trkpt>
      <trkpt lat="44.84685" lon="6.11493">
        <ele>2502.6</ele>
        <time>2024-08-13T13:54:48Z</time>
      </trkpt>
      <trkpt lat="44.84685" lon="6.11493">
        <ele>2502.6</ele>
        <time>2024-08-13T13:54:49Z</time>
      </trkpt>
      <trkpt lat="44.84685" lon="6.11493">
        <ele>2502.6</ele>
        <time>2024-08-13T13:54:50Z</time>
      </trkpt>
      <trkpt lat="44.84685" lon="6.11493">
        <ele>2503.2</ele>
        <time>2024-08-13T13:54:51Z</time>
      </trkpt>
      <trkpt lat="44.84685" lon="6.11493">
        <ele>2503.2</ele>
        <time>2024-08-13T13:54:52Z</time>
      </trkpt>
      <trkpt lat="44.84685" lon="6.11493">
        <ele>2502.8</ele>
        <time>2024-08-13T13:54:53Z</time>
      </trkpt>
      <trkpt lat="44.84685" lon="6.11493">
        <ele>2502.2</ele>
        <time>2024-08-13T13:54:54Z</time>
      </trkpt>
      <trkpt lat="44.84685" lon="6.11493">
        <ele>2502</ele>
        <time>2024-08-13T13:54:55Z</time>
      </trkpt>
      <trkpt lat="44.84685" lon="6.11493">
        <ele>2501.8</ele>
        <time>2024-08-13T13:54:56Z</time>
      </trkpt>
      <trkpt lat="44.84685" lon="6.11493">
        <ele>2501.8</ele>
        <time>2024-08-13T13:54:57Z</time>
      </trkpt>
      <trkpt lat="44.84685" lon="6.11493">
        <ele>2501.8</ele>
        <time>2024-08-13T13:54:58Z</time>
      </trkpt>
      <trkpt lat="44.84685" lon="6.11493">
        <ele>2501.6</ele>
        <time>2024-08-13T13:54:59Z</time>
      </trkpt>
      <trkpt lat="44.84685" lon="6.11493">
        <ele>2501.6</ele>
        <time>2024-08-13T13:55:00Z</time>
      </trkpt>
      <trkpt lat="44.84685" lon="6.11493">
        <ele>2501.6</ele>
        <time>2024-08-13T13:55:01Z</time>
      </trkpt>
      <trkpt lat="44.84685" lon="6.11493">
        <ele>2501.8</ele>
        <time>2024-08-13T13:55:02Z</time>
      </trkpt>
      <trkpt lat="44.84685" lon="6.11493">
        <ele>2501.8</ele>
        <time>2024-08-13T13:55:03Z</time>
      </trkpt>
      <trkpt lat="44.84685" lon="6.11493">
        <ele>2501.6</ele>
        <time>2024-08-13T13:55:04Z</time>
      </trkpt>
      <trkpt lat="44.84685" lon="6.11493">
        <ele>2501.6</ele>
        <time>2024-08-13T13:55:05Z</time>
      </trkpt>
      <trkpt lat="44.84685" lon="6.11493">
        <ele>2501.6</ele>
        <time>2024-08-13T13:55:06Z</time>
      </trkpt>
      <trkpt lat="44.84685" lon="6.11493">
        <ele>2501.8</ele>
        <time>2024-08-13T13:55:07Z</time>
      </trkpt>
      <trkpt lat="44.84685" lon="6.11493">
        <ele>2502</ele>
        <time>2024-08-13T13:55:08Z</time>
      </trkpt>
      <trkpt lat="44.84685" lon="6.11493">
        <ele>2502</ele>
        <time>2024-08-13T13:55:09Z</time>
      </trkpt>
      <trkpt lat="44.84685" lon="6.11493">
        <ele>2502</ele>
        <time>2024-08-13T13:55:10Z</time>
      </trkpt>
      <trkpt lat="44.84685" lon="6.11493">
        <ele>2502</ele>
        <time>2024-08-13T13:55:11Z</time>
      </trkpt>
      <trkpt lat="44.84685" lon="6.11493">
        <ele>2502</ele>
        <time>2024-08-13T13:55:12Z</time>
      </trkpt>
      <trkpt lat="44.84685" lon="6.11493">
        <ele>2502</ele>
        <time>2024-08-13T13:55:13Z</time>
      </trkpt>
      <trkpt lat="44.84685" lon="6.11493">
        <ele>2502</ele>
        <time>2024-08-13T13:55:14Z</time>
      </trkpt>
      <trkpt lat="44.84685" lon="6.11493">
        <ele>2502</ele>
        <time>2024-08-13T13:55:15Z</time>
      </trkpt>
      <trkpt lat="44.84685" lon="6.11493">
        <ele>2502.2</ele>
        <time>2024-08-13T13:55:16Z</time>
      </trkpt>
      <trkpt lat="44.84685" lon="6.11493">
        <ele>2502.2</ele>
        <time>2024-08-13T13:55:17Z</time>
      </trkpt>
      <trkpt lat="44.84685" lon="6.11493">
        <ele>2502.4</ele>
        <time>2024-08-13T13:55:18Z</time>
      </trkpt>
      <trkpt lat="44.84685" lon="6.11493">
        <ele>2502.4</ele>
        <time>2024-08-13T13:55:19Z</time>
      </trkpt>
      <trkpt lat="44.84685" lon="6.11493">
        <ele>2502.2</ele>
        <time>2024-08-13T13:55:20Z</time>
      </trkpt>
      <trkpt lat="44.84685" lon="6.11493">
        <ele>2502</ele>
        <time>2024-08-13T13:55:21Z</time>
      </trkpt>
      <trkpt lat="44.84685" lon="6.11493">
        <ele>2502</ele>
        <time>2024-08-13T13:55:22Z</time>
      </trkpt>
      <trkpt lat="44.84685" lon="6.11493">
        <ele>2502</ele>
        <time>2024-08-13T13:55:23Z</time>
      </trkpt>
      <trkpt lat="44.84685" lon="6.11493">
        <ele>2502.2</ele>
        <time>2024-08-13T13:55:24Z</time>
      </trkpt>
      <trkpt lat="44.84685" lon="6.11493">
        <ele>2502.2</ele>
        <time>2024-08-13T13:55:25Z</time>
      </trkpt>
      <trkpt lat="44.84685" lon="6.11493">
        <ele>2502.2</ele>
        <time>2024-08-13T13:55:26Z</time>
      </trkpt>
      <trkpt lat="44.84685" lon="6.11493">
        <ele>2502.2</ele>
        <time>2024-08-13T13:55:27Z</time>
      </trkpt>
      <trkpt lat="44.84685" lon="6.11493">
        <ele>2502.4</ele>
        <time>2024-08-13T13:55:28Z</time>
      </trkpt>
      <trkpt lat="44.84685" lon="6.11493">
        <ele>2502.4</ele>
        <time>2024-08-13T13:55:29Z</time>
      </trkpt>
      <trkpt lat="44.84685" lon="6.11493">
        <ele>2502.4</ele>
        <time>2024-08-13T13:55:30Z</time>
      </trkpt>
      <trkpt lat="44.84685" lon="6.11493">
        <ele>2502.6</ele>
        <time>2024-08-13T13:55:31Z</time>
      </trkpt>
      <trkpt lat="44.84685" lon="6.11493">
        <ele>2502.8</ele>
        <time>2024-08-13T13:55:32Z</time>
      </trkpt>
      <trkpt lat="44.84685" lon="6.11493">
        <ele>2502.8</ele>
        <time>2024-08-13T13:55:33Z</time>
      </trkpt>
      <trkpt lat="44.84685" lon="6.11493">
        <ele>2502.8</ele>
        <time>2024-08-13T13:55:34Z</time>
      </trkpt>
      <trkpt lat="44.84685" lon="6.11493">
        <ele>2502.8</ele>
        <time>2024-08-13T13:55:35Z</time>
      </trkpt>
      <trkpt lat="44.84685" lon="6.11493">
        <ele>2502.8</ele>
        <time>2024-08-13T13:55:36Z</time>
      </trkpt>
      <trkpt lat="44.84685" lon="6.11493">
        <ele>2502.8</ele>
        <time>2024-08-13T13:55:37Z</time>
      </trkpt>
      <trkpt lat="44.84685" lon="6.11493">
        <ele>2502.8</ele>
        <time>2024-08-13T13:55:38Z</time>
      </trkpt>
      <trkpt lat="44.84685" lon="6.11493">
        <ele>2502.8</ele>
        <time>2024-08-13T13:55:39Z</time>
      </trkpt>
      <trkpt lat="44.84685" lon="6.11493">
        <ele>2502.6</ele>
        <time>2024-08-13T13:55:40Z</time>
      </trkpt>
      <trkpt lat="44.84685" lon="6.11493">
        <ele>2502.6</ele>
        <time>2024-08-13T13:55:41Z</time>
      </trkpt>
      <trkpt lat="44.84685" lon="6.11493">
        <ele>2502.6</ele>
        <time>2024-08-13T13:55:42Z</time>
      </trkpt>
      <trkpt lat="44.84685" lon="6.11493">
        <ele>2502.8</ele>
        <time>2024-08-13T13:55:43Z</time>
      </trkpt>
      <trkpt lat="44.84685" lon="6.11493">
        <ele>2502.8</ele>
        <time>2024-08-13T13:55:44Z</time>
      </trkpt>
      <trkpt lat="44.84685" lon="6.11493">
        <ele>2502.4</ele>
        <time>2024-08-13T13:55:45Z</time>
      </trkpt>
      <trkpt lat="44.84685" lon="6.11493">
        <ele>2502.4</ele>
        <time>2024-08-13T13:55:46Z</time>
      </trkpt>
      <trkpt lat="44.84685" lon="6.11493">
        <ele>2502.6</ele>
        <time>2024-08-13T13:55:47Z</time>
      </trkpt>
      <trkpt lat="44.84685" lon="6.11493">
        <ele>2502.6</ele>
        <time>2024-08-13T13:55:48Z</time>
      </trkpt>
      <trkpt lat="44.84685" lon="6.11493">
        <ele>2502.6</ele>
        <time>2024-08-13T13:55:49Z</time>
      </trkpt>
      <trkpt lat="44.84685" lon="6.11493">
        <ele>2502.2</ele>
        <time>2024-08-13T13:55:50Z</time>
      </trkpt>
      <trkpt lat="44.84685" lon="6.11493">
        <ele>2502.4</ele>
        <time>2024-08-13T13:55:51Z</time>
      </trkpt>
      <trkpt lat="44.84685" lon="6.11493">
        <ele>2502.6</ele>
        <time>2024-08-13T13:55:52Z</time>
      </trkpt>
      <trkpt lat="44.84685" lon="6.11493">
        <ele>2502.8</ele>
        <time>2024-08-13T13:55:53Z</time>
      </trkpt>
      <trkpt lat="44.84685" lon="6.11493">
        <ele>2503.2</ele>
        <time>2024-08-13T13:55:54Z</time>
      </trkpt>
      <trkpt lat="44.84685" lon="6.11493">
        <ele>2503.4</ele>
        <time>2024-08-13T13:55:55Z</time>
      </trkpt>
      <trkpt lat="44.84685" lon="6.11493">
        <ele>2503.4</ele>
        <time>2024-08-13T13:55:56Z</time>
      </trkpt>
      <trkpt lat="44.84685" lon="6.11493">
        <ele>2503.6</ele>
        <time>2024-08-13T13:55:57Z</time>
      </trkpt>
      <trkpt lat="44.84685" lon="6.11493">
        <ele>2504</ele>
        <time>2024-08-13T13:55:58Z</time>
      </trkpt>
      <trkpt lat="44.84685" lon="6.11493">
        <ele>2504.2</ele>
        <time>2024-08-13T13:55:59Z</time>
      </trkpt>
      <trkpt lat="44.84685" lon="6.11493">
        <ele>2504.2</ele>
        <time>2024-08-13T13:56:00Z</time>
      </trkpt>
      <trkpt lat="44.84685" lon="6.11493">
        <ele>2504.2</ele>
        <time>2024-08-13T13:56:01Z</time>
      </trkpt>
      <trkpt lat="44.84685" lon="6.11493">
        <ele>2504.4</ele>
        <time>2024-08-13T13:56:02Z</time>
      </trkpt>
      <trkpt lat="44.84685" lon="6.11493">
        <ele>2504.4</ele>
        <time>2024-08-13T13:56:03Z</time>
      </trkpt>
      <trkpt lat="44.84685" lon="6.11493">
        <ele>2504.4</ele>
        <time>2024-08-13T13:56:04Z</time>
      </trkpt>
      <trkpt lat="44.84685" lon="6.11493">
        <ele>2504.6</ele>
        <time>2024-08-13T13:56:05Z</time>
      </trkpt>
      <trkpt lat="44.84685" lon="6.11493">
        <ele>2505</ele>
        <time>2024-08-13T13:56:06Z</time>
      </trkpt>
      <trkpt lat="44.84685" lon="6.11493">
        <ele>2505.2</ele>
        <time>2024-08-13T13:56:07Z</time>
      </trkpt>
      <trkpt lat="44.84685" lon="6.11493">
        <ele>2504.8</ele>
        <time>2024-08-13T13:56:08Z</time>
      </trkpt>
      <trkpt lat="44.84685" lon="6.11493">
        <ele>2504.4</ele>
        <time>2024-08-13T13:56:09Z</time>
      </trkpt>
      <trkpt lat="44.84685" lon="6.11493">
        <ele>2504.4</ele>
        <time>2024-08-13T13:56:10Z</time>
      </trkpt>
      <trkpt lat="44.84685" lon="6.11493">
        <ele>2504.4</ele>
        <time>2024-08-13T13:56:11Z</time>
      </trkpt>
      <trkpt lat="44.84685" lon="6.11493">
        <ele>2504.6</ele>
        <time>2024-08-13T13:56:12Z</time>
      </trkpt>
      <trkpt lat="44.84685" lon="6.11493">
        <ele>2504.8</ele>
        <time>2024-08-13T13:56:13Z</time>
      </trkpt>
      <trkpt lat="44.84685" lon="6.11493">
        <ele>2504.8</ele>
        <time>2024-08-13T13:56:14Z</time>
      </trkpt>
      <trkpt lat="44.84685" lon="6.11493">
        <ele>2504.8</ele>
        <time>2024-08-13T13:56:15Z</time>
      </trkpt>
      <trkpt lat="44.84685" lon="6.11493">
        <ele>2504.8</ele>
        <time>2024-08-13T13:56:16Z</time>
      </trkpt>
      <trkpt lat="44.84685" lon="6.11493">
        <ele>2505.4</ele>
        <time>2024-08-13T13:56:17Z</time>
      </trkpt>
      <trkpt lat="44.84685" lon="6.11493">
        <ele>2505.4</ele>
        <time>2024-08-13T13:56:18Z</time>
      </trkpt>
      <trkpt lat="44.84685" lon="6.11493">
        <ele>2505.2</ele>
        <time>2024-08-13T13:56:19Z</time>
      </trkpt>
      <trkpt lat="44.84685" lon="6.11493">
        <ele>2505.2</ele>
        <time>2024-08-13T13:56:20Z</time>
      </trkpt>
      <trkpt lat="44.84685" lon="6.11493">
        <ele>2505.2</ele>
        <time>2024-08-13T13:56:21Z</time>
      </trkpt>
      <trkpt lat="44.84685" lon="6.11493">
        <ele>2505.2</ele>
        <time>2024-08-13T13:56:22Z</time>
      </trkpt>
      <trkpt lat="44.84685" lon="6.11493">
        <ele>2505.4</ele>
        <time>2024-08-13T13:56:23Z</time>
      </trkpt>
      <trkpt lat="44.84685" lon="6.11493">
        <ele>2505.4</ele>
        <time>2024-08-13T13:56:24Z</time>
      </trkpt>
      <trkpt lat="44.84685" lon="6.11493">
        <ele>2505.4</ele>
        <time>2024-08-13T13:56:25Z</time>
      </trkpt>
      <trkpt lat="44.84685" lon="6.11493">
        <ele>2505.4</ele>
        <time>2024-08-13T13:56:26Z</time>
      </trkpt>
      <trkpt lat="44.84685" lon="6.11493">
        <ele>2505.4</ele>
        <time>2024-08-13T13:56:27Z</time>
      </trkpt>
      <trkpt lat="44.84685" lon="6.11493">
        <ele>2505</ele>
        <time>2024-08-13T13:56:28Z</time>
      </trkpt>
      <trkpt lat="44.84685" lon="6.11493">
        <ele>2504.6</ele>
        <time>2024-08-13T13:56:29Z</time>
      </trkpt>
      <trkpt lat="44.84685" lon="6.11493">
        <ele>2504.6</ele>
        <time>2024-08-13T13:56:30Z</time>
      </trkpt>
      <trkpt lat="44.84685" lon="6.11493">
        <ele>2504.8</ele>
        <time>2024-08-13T13:56:31Z</time>
      </trkpt>
      <trkpt lat="44.84685" lon="6.11493">
        <ele>2505</ele>
        <time>2024-08-13T13:56:32Z</time>
      </trkpt>
      <trkpt lat="44.84685" lon="6.11493">
        <ele>2505</ele>
        <time>2024-08-13T13:56:33Z</time>
      </trkpt>
      <trkpt lat="44.84685" lon="6.11493">
        <ele>2505</ele>
        <time>2024-08-13T13:56:34Z</time>
      </trkpt>
      <trkpt lat="44.84685" lon="6.11493">
        <ele>2505.2</ele>
        <time>2024-08-13T13:56:35Z</time>
      </trkpt>
      <trkpt lat="44.84685" lon="6.11493">
        <ele>2505.4</ele>
        <time>2024-08-13T13:56:36Z</time>
      </trkpt>
      <trkpt lat="44.84684" lon="6.11491">
        <ele>2505.6</ele>
        <time>2024-08-13T13:56:37Z</time>
      </trkpt>
      <trkpt lat="44.84684" lon="6.11491">
        <ele>2505.8</ele>
        <time>2024-08-13T13:56:38Z</time>
      </trkpt>
      <trkpt lat="44.84684" lon="6.11491">
        <ele>2505.8</ele>
        <time>2024-08-13T13:56:39Z</time>
      </trkpt>
      <trkpt lat="44.84684" lon="6.11491">
        <ele>2505.4</ele>
        <time>2024-08-13T13:56:40Z</time>
      </trkpt>
      <trkpt lat="44.84684" lon="6.11491">
        <ele>2505.4</ele>
        <time>2024-08-13T13:56:41Z</time>
      </trkpt>
      <trkpt lat="44.84684" lon="6.11491">
        <ele>2505.4</ele>
        <time>2024-08-13T13:56:42Z</time>
      </trkpt>
      <trkpt lat="44.84684" lon="6.11491">
        <ele>2505.4</ele>
        <time>2024-08-13T13:56:43Z</time>
      </trkpt>
      <trkpt lat="44.84684" lon="6.11491">
        <ele>2505.4</ele>
        <time>2024-08-13T13:56:44Z</time>
      </trkpt>
      <trkpt lat="44.84684" lon="6.11491">
        <ele>2505.6</ele>
        <time>2024-08-13T13:56:45Z</time>
      </trkpt>
      <trkpt lat="44.84684" lon="6.11491">
        <ele>2505.6</ele>
        <time>2024-08-13T13:56:46Z</time>
      </trkpt>
      <trkpt lat="44.84684" lon="6.11491">
        <ele>2505.6</ele>
        <time>2024-08-13T13:56:47Z</time>
      </trkpt>
      <trkpt lat="44.84684" lon="6.11491">
        <ele>2505.6</ele>
        <time>2024-08-13T13:56:48Z</time>
      </trkpt>
      <trkpt lat="44.84684" lon="6.11491">
        <ele>2505.6</ele>
        <time>2024-08-13T13:56:49Z</time>
      </trkpt>
      <trkpt lat="44.84684" lon="6.11491">
        <ele>2505.6</ele>
        <time>2024-08-13T13:56:50Z</time>
      </trkpt>
      <trkpt lat="44.84684" lon="6.11491">
        <ele>2505.6</ele>
        <time>2024-08-13T13:56:51Z</time>
      </trkpt>
      <trkpt lat="44.84684" lon="6.11491">
        <ele>2505.4</ele>
        <time>2024-08-13T13:56:52Z</time>
      </trkpt>
      <trkpt lat="44.84684" lon="6.11491">
        <ele>2505.2</ele>
        <time>2024-08-13T13:56:53Z</time>
      </trkpt>
      <trkpt lat="44.84684" lon="6.11491">
        <ele>2505.2</ele>
        <time>2024-08-13T13:56:54Z</time>
      </trkpt>
      <trkpt lat="44.84684" lon="6.11491">
        <ele>2505.2</ele>
        <time>2024-08-13T13:56:55Z</time>
      </trkpt>
      <trkpt lat="44.84684" lon="6.11491">
        <ele>2505.4</ele>
        <time>2024-08-13T13:56:56Z</time>
      </trkpt>
      <trkpt lat="44.84684" lon="6.11491">
        <ele>2505.4</ele>
        <time>2024-08-13T13:56:57Z</time>
      </trkpt>
      <trkpt lat="44.84684" lon="6.11491">
        <ele>2505.4</ele>
        <time>2024-08-13T13:56:58Z</time>
      </trkpt>
      <trkpt lat="44.84684" lon="6.11491">
        <ele>2505.4</ele>
        <time>2024-08-13T13:56:59Z</time>
      </trkpt>
      <trkpt lat="44.84684" lon="6.11491">
        <ele>2505.4</ele>
        <time>2024-08-13T13:57:00Z</time>
      </trkpt>
      <trkpt lat="44.84684" lon="6.11491">
        <ele>2505.4</ele>
        <time>2024-08-13T13:57:01Z</time>
      </trkpt>
      <trkpt lat="44.84684" lon="6.11491">
        <ele>2505.8</ele>
        <time>2024-08-13T13:57:02Z</time>
      </trkpt>
      <trkpt lat="44.84684" lon="6.11491">
        <ele>2505.8</ele>
        <time>2024-08-13T13:57:03Z</time>
      </trkpt>
      <trkpt lat="44.84684" lon="6.11491">
        <ele>2505.8</ele>
        <time>2024-08-13T13:57:04Z</time>
      </trkpt>
      <trkpt lat="44.84684" lon="6.11491">
        <ele>2505.8</ele>
        <time>2024-08-13T13:57:05Z</time>
      </trkpt>
      <trkpt lat="44.84684" lon="6.11491">
        <ele>2505.6</ele>
        <time>2024-08-13T13:57:06Z</time>
      </trkpt>
      <trkpt lat="44.84684" lon="6.11491">
        <ele>2505.6</ele>
        <time>2024-08-13T13:57:07Z</time>
      </trkpt>
      <trkpt lat="44.84684" lon="6.11491">
        <ele>2505.6</ele>
        <time>2024-08-13T13:57:08Z</time>
      </trkpt>
      <trkpt lat="44.84684" lon="6.11491">
        <ele>2505.6</ele>
        <time>2024-08-13T13:57:09Z</time>
      </trkpt>
      <trkpt lat="44.84684" lon="6.11491">
        <ele>2505.4</ele>
        <time>2024-08-13T13:57:10Z</time>
      </trkpt>
      <trkpt lat="44.84684" lon="6.11491">
        <ele>2505.4</ele>
        <time>2024-08-13T13:57:11Z</time>
      </trkpt>
      <trkpt lat="44.84684" lon="6.11491">
        <ele>2505.6</ele>
        <time>2024-08-13T13:57:12Z</time>
      </trkpt>
      <trkpt lat="44.84684" lon="6.11491">
        <ele>2505.6</ele>
        <time>2024-08-13T13:57:13Z</time>
      </trkpt>
      <trkpt lat="44.84684" lon="6.11491">
        <ele>2505.6</ele>
        <time>2024-08-13T13:57:14Z</time>
      </trkpt>
      <trkpt lat="44.84684" lon="6.11491">
        <ele>2505.4</ele>
        <time>2024-08-13T13:57:15Z</time>
      </trkpt>
      <trkpt lat="44.84684" lon="6.11491">
        <ele>2505.4</ele>
        <time>2024-08-13T13:57:16Z</time>
      </trkpt>
      <trkpt lat="44.84684" lon="6.11491">
        <ele>2505.2</ele>
        <time>2024-08-13T13:57:17Z</time>
      </trkpt>
      <trkpt lat="44.84684" lon="6.11491">
        <ele>2505.2</ele>
        <time>2024-08-13T13:57:18Z</time>
      </trkpt>
      <trkpt lat="44.84684" lon="6.11491">
        <ele>2505.2</ele>
        <time>2024-08-13T13:57:19Z</time>
      </trkpt>
      <trkpt lat="44.84684" lon="6.11491">
        <ele>2505.4</ele>
        <time>2024-08-13T13:57:20Z</time>
      </trkpt>
      <trkpt lat="44.84684" lon="6.11491">
        <ele>2505.4</ele>
        <time>2024-08-13T13:57:21Z</time>
      </trkpt>
      <trkpt lat="44.84684" lon="6.11491">
        <ele>2505</ele>
        <time>2024-08-13T13:57:22Z</time>
      </trkpt>
      <trkpt lat="44.84684" lon="6.11491">
        <ele>2505</ele>
        <time>2024-08-13T13:57:23Z</time>
      </trkpt>
      <trkpt lat="44.84684" lon="6.11491">
        <ele>2505</ele>
        <time>2024-08-13T13:57:24Z</time>
      </trkpt>
      <trkpt lat="44.84684" lon="6.11491">
        <ele>2505.4</ele>
        <time>2024-08-13T13:57:25Z</time>
      </trkpt>
      <trkpt lat="44.84684" lon="6.11491">
        <ele>2505.6</ele>
        <time>2024-08-13T13:57:26Z</time>
      </trkpt>
      <trkpt lat="44.84684" lon="6.11491">
        <ele>2505.6</ele>
        <time>2024-08-13T13:57:27Z</time>
      </trkpt>
      <trkpt lat="44.84684" lon="6.11491">
        <ele>2505.6</ele>
        <time>2024-08-13T13:57:28Z</time>
      </trkpt>
      <trkpt lat="44.84684" lon="6.11491">
        <ele>2505.2</ele>
        <time>2024-08-13T13:57:29Z</time>
      </trkpt>
      <trkpt lat="44.84684" lon="6.11491">
        <ele>2505</ele>
        <time>2024-08-13T13:57:30Z</time>
      </trkpt>
      <trkpt lat="44.84684" lon="6.11491">
        <ele>2504.8</ele>
        <time>2024-08-13T13:57:31Z</time>
      </trkpt>
      <trkpt lat="44.84684" lon="6.11491">
        <ele>2504.8</ele>
        <time>2024-08-13T13:57:32Z</time>
      </trkpt>
      <trkpt lat="44.84684" lon="6.11491">
        <ele>2504.8</ele>
        <time>2024-08-13T13:57:33Z</time>
      </trkpt>
      <trkpt lat="44.84684" lon="6.11491">
        <ele>2504.8</ele>
        <time>2024-08-13T13:57:34Z</time>
      </trkpt>
      <trkpt lat="44.84684" lon="6.11491">
        <ele>2504.8</ele>
        <time>2024-08-13T13:57:35Z</time>
      </trkpt>
      <trkpt lat="44.84684" lon="6.11491">
        <ele>2505</ele>
        <time>2024-08-13T13:57:36Z</time>
      </trkpt>
      <trkpt lat="44.84684" lon="6.11491">
        <ele>2505</ele>
        <time>2024-08-13T13:57:37Z</time>
      </trkpt>
      <trkpt lat="44.84684" lon="6.11491">
        <ele>2505</ele>
        <time>2024-08-13T13:57:38Z</time>
      </trkpt>
      <trkpt lat="44.84684" lon="6.11491">
        <ele>2505</ele>
        <time>2024-08-13T13:57:39Z</time>
      </trkpt>
      <trkpt lat="44.84684" lon="6.11491">
        <ele>2505</ele>
        <time>2024-08-13T13:57:40Z</time>
      </trkpt>
      <trkpt lat="44.84684" lon="6.11491">
        <ele>2505</ele>
        <time>2024-08-13T13:57:41Z</time>
      </trkpt>
      <trkpt lat="44.84684" lon="6.11491">
        <ele>2505.2</ele>
        <time>2024-08-13T13:57:42Z</time>
      </trkpt>
      <trkpt lat="44.84684" lon="6.11491">
        <ele>2505.2</ele>
        <time>2024-08-13T13:57:43Z</time>
      </trkpt>
      <trkpt lat="44.84684" lon="6.11491">
        <ele>2505.4</ele>
        <time>2024-08-13T13:57:44Z</time>
      </trkpt>
      <trkpt lat="44.84684" lon="6.11491">
        <ele>2505.4</ele>
        <time>2024-08-13T13:57:45Z</time>
      </trkpt>
      <trkpt lat="44.84684" lon="6.11491">
        <ele>2505.4</ele>
        <time>2024-08-13T13:57:46Z</time>
      </trkpt>
      <trkpt lat="44.84684" lon="6.11491">
        <ele>2505.2</ele>
        <time>2024-08-13T13:57:47Z</time>
      </trkpt>
      <trkpt lat="44.84684" lon="6.11491">
        <ele>2505.2</ele>
        <time>2024-08-13T13:57:48Z</time>
      </trkpt>
      <trkpt lat="44.84684" lon="6.11491">
        <ele>2505.4</ele>
        <time>2024-08-13T13:57:49Z</time>
      </trkpt>
      <trkpt lat="44.84684" lon="6.11491">
        <ele>2505.4</ele>
        <time>2024-08-13T13:57:50Z</time>
      </trkpt>
      <trkpt lat="44.84684" lon="6.11491">
        <ele>2505.4</ele>
        <time>2024-08-13T13:57:51Z</time>
      </trkpt>
      <trkpt lat="44.84684" lon="6.11491">
        <ele>2505.2</ele>
        <time>2024-08-13T13:57:52Z</time>
      </trkpt>
      <trkpt lat="44.84684" lon="6.11491">
        <ele>2505.2</ele>
        <time>2024-08-13T13:57:53Z</time>
      </trkpt>
      <trkpt lat="44.84684" lon="6.11491">
        <ele>2505.2</ele>
        <time>2024-08-13T13:57:54Z</time>
      </trkpt>
      <trkpt lat="44.84684" lon="6.11491">
        <ele>2505.2</ele>
        <time>2024-08-13T13:57:55Z</time>
      </trkpt>
      <trkpt lat="44.84684" lon="6.11491">
        <ele>2505.4</ele>
        <time>2024-08-13T13:57:56Z</time>
      </trkpt>
      <trkpt lat="44.84684" lon="6.11491">
        <ele>2505.4</ele>
        <time>2024-08-13T13:57:57Z</time>
      </trkpt>
      <trkpt lat="44.84684" lon="6.11491">
        <ele>2505.4</ele>
        <time>2024-08-13T13:57:58Z</time>
      </trkpt>
      <trkpt lat="44.84684" lon="6.11491">
        <ele>2505.4</ele>
        <time>2024-08-13T13:57:59Z</time>
      </trkpt>
      <trkpt lat="44.84684" lon="6.11491">
        <ele>2505.4</ele>
        <time>2024-08-13T13:58:00Z</time>
      </trkpt>
      <trkpt lat="44.84684" lon="6.11491">
        <ele>2505.4</ele>
        <time>2024-08-13T13:58:01Z</time>
      </trkpt>
      <trkpt lat="44.84684" lon="6.11491">
        <ele>2505.6</ele>
        <time>2024-08-13T13:58:02Z</time>
      </trkpt>
      <trkpt lat="44.84684" lon="6.11491">
        <ele>2505.6</ele>
        <time>2024-08-13T13:58:03Z</time>
      </trkpt>
      <trkpt lat="44.84684" lon="6.11491">
        <ele>2505.6</ele>
        <time>2024-08-13T13:58:04Z</time>
      </trkpt>
      <trkpt lat="44.84684" lon="6.11491">
        <ele>2505.6</ele>
        <time>2024-08-13T13:58:05Z</time>
      </trkpt>
      <trkpt lat="44.84684" lon="6.11491">
        <ele>2505.6</ele>
        <time>2024-08-13T13:58:06Z</time>
      </trkpt>
      <trkpt lat="44.84684" lon="6.11491">
        <ele>2505.8</ele>
        <time>2024-08-13T13:58:07Z</time>
      </trkpt>
      <trkpt lat="44.84684" lon="6.11491">
        <ele>2505.8</ele>
        <time>2024-08-13T13:58:08Z</time>
      </trkpt>
      <trkpt lat="44.84684" lon="6.11491">
        <ele>2505.8</ele>
        <time>2024-08-13T13:58:09Z</time>
      </trkpt>
      <trkpt lat="44.84684" lon="6.11491">
        <ele>2505.8</ele>
        <time>2024-08-13T13:58:10Z</time>
      </trkpt>
      <trkpt lat="44.84684" lon="6.11491">
        <ele>2505.8</ele>
        <time>2024-08-13T13:58:11Z</time>
      </trkpt>
      <trkpt lat="44.84684" lon="6.11491">
        <ele>2505.8</ele>
        <time>2024-08-13T13:58:12Z</time>
      </trkpt>
      <trkpt lat="44.84684" lon="6.11491">
        <ele>2506</ele>
        <time>2024-08-13T13:58:13Z</time>
      </trkpt>
      <trkpt lat="44.84684" lon="6.11491">
        <ele>2506</ele>
        <time>2024-08-13T13:58:14Z</time>
      </trkpt>
      <trkpt lat="44.84684" lon="6.11491">
        <ele>2506</ele>
        <time>2024-08-13T13:58:15Z</time>
      </trkpt>
      <trkpt lat="44.84684" lon="6.11491">
        <ele>2506</ele>
        <time>2024-08-13T13:58:16Z</time>
      </trkpt>
      <trkpt lat="44.84684" lon="6.11491">
        <ele>2506</ele>
        <time>2024-08-13T13:58:17Z</time>
      </trkpt>
      <trkpt lat="44.84684" lon="6.11491">
        <ele>2506</ele>
        <time>2024-08-13T13:58:18Z</time>
      </trkpt>
      <trkpt lat="44.84684" lon="6.11491">
        <ele>2506</ele>
        <time>2024-08-13T13:58:19Z</time>
      </trkpt>
      <trkpt lat="44.84684" lon="6.11491">
        <ele>2506</ele>
        <time>2024-08-13T13:58:20Z</time>
      </trkpt>
      <trkpt lat="44.84684" lon="6.11491">
        <ele>2505.8</ele>
        <time>2024-08-13T13:58:21Z</time>
      </trkpt>
      <trkpt lat="44.84684" lon="6.11491">
        <ele>2505.8</ele>
        <time>2024-08-13T13:58:22Z</time>
      </trkpt>
      <trkpt lat="44.84684" lon="6.11491">
        <ele>2506</ele>
        <time>2024-08-13T13:58:23Z</time>
      </trkpt>
      <trkpt lat="44.84684" lon="6.11491">
        <ele>2506</ele>
        <time>2024-08-13T13:58:24Z</time>
      </trkpt>
      <trkpt lat="44.84684" lon="6.11491">
        <ele>2506</ele>
        <time>2024-08-13T13:58:25Z</time>
      </trkpt>
      <trkpt lat="44.84684" lon="6.11491">
        <ele>2506.4</ele>
        <time>2024-08-13T13:58:26Z</time>
      </trkpt>
      <trkpt lat="44.84684" lon="6.11491">
        <ele>2506.8</ele>
        <time>2024-08-13T13:58:27Z</time>
      </trkpt>
      <trkpt lat="44.84684" lon="6.11491">
        <ele>2506.8</ele>
        <time>2024-08-13T13:58:28Z</time>
      </trkpt>
      <trkpt lat="44.84684" lon="6.11491">
        <ele>2507</ele>
        <time>2024-08-13T13:58:29Z</time>
      </trkpt>
      <trkpt lat="44.84684" lon="6.11491">
        <ele>2507</ele>
        <time>2024-08-13T13:58:30Z</time>
      </trkpt>
      <trkpt lat="44.84684" lon="6.11491">
        <ele>2507.8</ele>
        <time>2024-08-13T13:58:31Z</time>
      </trkpt>
      <trkpt lat="44.84684" lon="6.11491">
        <ele>2507.8</ele>
        <time>2024-08-13T13:58:32Z</time>
      </trkpt>
      <trkpt lat="44.84684" lon="6.11491">
        <ele>2507.4</ele>
        <time>2024-08-13T13:58:33Z</time>
      </trkpt>
      <trkpt lat="44.84684" lon="6.11491">
        <ele>2506.8</ele>
        <time>2024-08-13T13:58:34Z</time>
      </trkpt>
      <trkpt lat="44.84684" lon="6.11491">
        <ele>2506.8</ele>
        <time>2024-08-13T13:58:35Z</time>
      </trkpt>
      <trkpt lat="44.84684" lon="6.11491">
        <ele>2506.8</ele>
        <time>2024-08-13T13:58:36Z</time>
      </trkpt>
      <trkpt lat="44.84684" lon="6.11491">
        <ele>2506.8</ele>
        <time>2024-08-13T13:58:37Z</time>
      </trkpt>
      <trkpt lat="44.84684" lon="6.11491">
        <ele>2506.8</ele>
        <time>2024-08-13T13:58:38Z</time>
      </trkpt>
      <trkpt lat="44.84684" lon="6.11491">
        <ele>2507</ele>
        <time>2024-08-13T13:58:39Z</time>
      </trkpt>
      <trkpt lat="44.84684" lon="6.11491">
        <ele>2507</ele>
        <time>2024-08-13T13:58:40Z</time>
      </trkpt>
      <trkpt lat="44.84684" lon="6.11491">
        <ele>2507.2</ele>
        <time>2024-08-13T13:58:41Z</time>
      </trkpt>
      <trkpt lat="44.84684" lon="6.11491">
        <ele>2507.2</ele>
        <time>2024-08-13T13:58:42Z</time>
      </trkpt>
      <trkpt lat="44.84684" lon="6.11491">
        <ele>2507.2</ele>
        <time>2024-08-13T13:58:43Z</time>
      </trkpt>
      <trkpt lat="44.84684" lon="6.11491">
        <ele>2507.2</ele>
        <time>2024-08-13T13:58:44Z</time>
      </trkpt>
      <trkpt lat="44.84684" lon="6.11491">
        <ele>2507.6</ele>
        <time>2024-08-13T13:58:45Z</time>
      </trkpt>
      <trkpt lat="44.84684" lon="6.11491">
        <ele>2507.8</ele>
        <time>2024-08-13T13:58:46Z</time>
      </trkpt>
      <trkpt lat="44.84684" lon="6.11491">
        <ele>2507.8</ele>
        <time>2024-08-13T13:58:47Z</time>
      </trkpt>
      <trkpt lat="44.84684" lon="6.11491">
        <ele>2507.8</ele>
        <time>2024-08-13T13:58:48Z</time>
      </trkpt>
      <trkpt lat="44.84684" lon="6.11491">
        <ele>2507.8</ele>
        <time>2024-08-13T13:58:49Z</time>
      </trkpt>
      <trkpt lat="44.84684" lon="6.11491">
        <ele>2507.8</ele>
        <time>2024-08-13T13:58:50Z</time>
      </trkpt>
      <trkpt lat="44.84684" lon="6.11491">
        <ele>2507.8</ele>
        <time>2024-08-13T13:58:51Z</time>
      </trkpt>
      <trkpt lat="44.84684" lon="6.11491">
        <ele>2508</ele>
        <time>2024-08-13T13:58:52Z</time>
      </trkpt>
      <trkpt lat="44.84684" lon="6.11491">
        <ele>2508</ele>
        <time>2024-08-13T13:58:53Z</time>
      </trkpt>
      <trkpt lat="44.84684" lon="6.11491">
        <ele>2508</ele>
        <time>2024-08-13T13:58:54Z</time>
      </trkpt>
      <trkpt lat="44.84684" lon="6.11491">
        <ele>2507.8</ele>
        <time>2024-08-13T13:58:55Z</time>
      </trkpt>
      <trkpt lat="44.84684" lon="6.11491">
        <ele>2507.8</ele>
        <time>2024-08-13T13:58:56Z</time>
      </trkpt>
      <trkpt lat="44.84684" lon="6.11491">
        <ele>2508</ele>
        <time>2024-08-13T13:58:57Z</time>
      </trkpt>
      <trkpt lat="44.84684" lon="6.11491">
        <ele>2508</ele>
        <time>2024-08-13T13:58:58Z</time>
      </trkpt>
      <trkpt lat="44.84684" lon="6.11491">
        <ele>2507.6</ele>
        <time>2024-08-13T13:58:59Z</time>
      </trkpt>
      <trkpt lat="44.84684" lon="6.11491">
        <ele>2507</ele>
        <time>2024-08-13T13:59:00Z</time>
      </trkpt>
      <trkpt lat="44.84684" lon="6.11491">
        <ele>2507</ele>
        <time>2024-08-13T13:59:01Z</time>
      </trkpt>
      <trkpt lat="44.84684" lon="6.11491">
        <ele>2506.8</ele>
        <time>2024-08-13T13:59:02Z</time>
      </trkpt>
      <trkpt lat="44.84684" lon="6.11491">
        <ele>2506.8</ele>
        <time>2024-08-13T13:59:03Z</time>
      </trkpt>
      <trkpt lat="44.84684" lon="6.11491">
        <ele>2507</ele>
        <time>2024-08-13T13:59:04Z</time>
      </trkpt>
      <trkpt lat="44.84684" lon="6.11491">
        <ele>2507</ele>
        <time>2024-08-13T13:59:05Z</time>
      </trkpt>
      <trkpt lat="44.84684" lon="6.11491">
        <ele>2507</ele>
        <time>2024-08-13T13:59:06Z</time>
      </trkpt>
      <trkpt lat="44.84684" lon="6.11491">
        <ele>2507.2</ele>
        <time>2024-08-13T13:59:07Z</time>
      </trkpt>
      <trkpt lat="44.84684" lon="6.11491">
        <ele>2507.4</ele>
        <time>2024-08-13T13:59:08Z</time>
      </trkpt>
      <trkpt lat="44.84684" lon="6.11491">
        <ele>2507.4</ele>
        <time>2024-08-13T13:59:09Z</time>
      </trkpt>
      <trkpt lat="44.84684" lon="6.11491">
        <ele>2508.2</ele>
        <time>2024-08-13T13:59:10Z</time>
      </trkpt>
      <trkpt lat="44.84684" lon="6.11491">
        <ele>2508.2</ele>
        <time>2024-08-13T13:59:11Z</time>
      </trkpt>
      <trkpt lat="44.84684" lon="6.11491">
        <ele>2508.2</ele>
        <time>2024-08-13T13:59:12Z</time>
      </trkpt>
      <trkpt lat="44.84684" lon="6.11491">
        <ele>2507.8</ele>
        <time>2024-08-13T13:59:13Z</time>
      </trkpt>
      <trkpt lat="44.84684" lon="6.11491">
        <ele>2507.6</ele>
        <time>2024-08-13T13:59:14Z</time>
      </trkpt>
      <trkpt lat="44.84684" lon="6.11491">
        <ele>2507.6</ele>
        <time>2024-08-13T13:59:15Z</time>
      </trkpt>
      <trkpt lat="44.84684" lon="6.11491">
        <ele>2508.4</ele>
        <time>2024-08-13T13:59:16Z</time>
      </trkpt>
      <trkpt lat="44.84684" lon="6.11491">
        <ele>2508.4</ele>
        <time>2024-08-13T13:59:17Z</time>
      </trkpt>
      <trkpt lat="44.84684" lon="6.11491">
        <ele>2508.2</ele>
        <time>2024-08-13T13:59:18Z</time>
      </trkpt>
      <trkpt lat="44.84684" lon="6.11491">
        <ele>2507.4</ele>
        <time>2024-08-13T13:59:19Z</time>
      </trkpt>
      <trkpt lat="44.84684" lon="6.11491">
        <ele>2507.2</ele>
        <time>2024-08-13T13:59:20Z</time>
      </trkpt>
      <trkpt lat="44.84684" lon="6.11491">
        <ele>2507</ele>
        <time>2024-08-13T13:59:21Z</time>
      </trkpt>
      <trkpt lat="44.84684" lon="6.11491">
        <ele>2507</ele>
        <time>2024-08-13T13:59:22Z</time>
      </trkpt>
      <trkpt lat="44.84684" lon="6.11491">
        <ele>2507</ele>
        <time>2024-08-13T13:59:23Z</time>
      </trkpt>
      <trkpt lat="44.84684" lon="6.11491">
        <ele>2507</ele>
        <time>2024-08-13T13:59:24Z</time>
      </trkpt>
      <trkpt lat="44.84684" lon="6.11491">
        <ele>2507</ele>
        <time>2024-08-13T13:59:25Z</time>
      </trkpt>
      <trkpt lat="44.84684" lon="6.11491">
        <ele>2506.8</ele>
        <time>2024-08-13T13:59:26Z</time>
      </trkpt>
      <trkpt lat="44.84684" lon="6.11491">
        <ele>2506.8</ele>
        <time>2024-08-13T13:59:27Z</time>
      </trkpt>
      <trkpt lat="44.84684" lon="6.11491">
        <ele>2506.8</ele>
        <time>2024-08-13T13:59:28Z</time>
      </trkpt>
      <trkpt lat="44.84684" lon="6.11491">
        <ele>2506.8</ele>
        <time>2024-08-13T13:59:29Z</time>
      </trkpt>
      <trkpt lat="44.84684" lon="6.11491">
        <ele>2507</ele>
        <time>2024-08-13T13:59:30Z</time>
      </trkpt>
      <trkpt lat="44.84684" lon="6.11491">
        <ele>2507.4</ele>
        <time>2024-08-13T13:59:31Z</time>
      </trkpt>
      <trkpt lat="44.84684" lon="6.11491">
        <ele>2507.4</ele>
        <time>2024-08-13T13:59:32Z</time>
      </trkpt>
      <trkpt lat="44.84684" lon="6.11491">
        <ele>2507.4</ele>
        <time>2024-08-13T13:59:33Z</time>
      </trkpt>
      <trkpt lat="44.84684" lon="6.11491">
        <ele>2507.4</ele>
        <time>2024-08-13T13:59:34Z</time>
      </trkpt>
      <trkpt lat="44.84684" lon="6.11491">
        <ele>2507.6</ele>
        <time>2024-08-13T13:59:35Z</time>
      </trkpt>
      <trkpt lat="44.84684" lon="6.11491">
        <ele>2507.6</ele>
        <time>2024-08-13T13:59:36Z</time>
      </trkpt>
      <trkpt lat="44.84684" lon="6.11491">
        <ele>2507.2</ele>
        <time>2024-08-13T13:59:37Z</time>
      </trkpt>
      <trkpt lat="44.84684" lon="6.11491">
        <ele>2506.8</ele>
        <time>2024-08-13T13:59:38Z</time>
      </trkpt>
      <trkpt lat="44.84684" lon="6.11491">
        <ele>2506.6</ele>
        <time>2024-08-13T13:59:39Z</time>
      </trkpt>
      <trkpt lat="44.84684" lon="6.11491">
        <ele>2506.6</ele>
        <time>2024-08-13T13:59:40Z</time>
      </trkpt>
      <trkpt lat="44.84684" lon="6.11491">
        <ele>2506.6</ele>
        <time>2024-08-13T13:59:41Z</time>
      </trkpt>
      <trkpt lat="44.84684" lon="6.11491">
        <ele>2506.8</ele>
        <time>2024-08-13T13:59:42Z</time>
      </trkpt>
      <trkpt lat="44.84684" lon="6.11491">
        <ele>2506.8</ele>
        <time>2024-08-13T13:59:43Z</time>
      </trkpt>
      <trkpt lat="44.84684" lon="6.11491">
        <ele>2506.8</ele>
        <time>2024-08-13T13:59:44Z</time>
      </trkpt>
      <trkpt lat="44.84684" lon="6.11491">
        <ele>2507</ele>
        <time>2024-08-13T13:59:45Z</time>
      </trkpt>
      <trkpt lat="44.84684" lon="6.11491">
        <ele>2507</ele>
        <time>2024-08-13T13:59:46Z</time>
      </trkpt>
      <trkpt lat="44.84684" lon="6.11491">
        <ele>2507</ele>
        <time>2024-08-13T13:59:47Z</time>
      </trkpt>
      <trkpt lat="44.84684" lon="6.11491">
        <ele>2507</ele>
        <time>2024-08-13T13:59:48Z</time>
      </trkpt>
      <trkpt lat="44.84684" lon="6.11491">
        <ele>2506.8</ele>
        <time>2024-08-13T13:59:49Z</time>
      </trkpt>
      <trkpt lat="44.84684" lon="6.11491">
        <ele>2506.8</ele>
        <time>2024-08-13T13:59:50Z</time>
      </trkpt>
      <trkpt lat="44.84684" lon="6.11491">
        <ele>2506.8</ele>
        <time>2024-08-13T13:59:51Z</time>
      </trkpt>
      <trkpt lat="44.84684" lon="6.11491">
        <ele>2506.6</ele>
        <time>2024-08-13T13:59:52Z</time>
      </trkpt>
      <trkpt lat="44.84684" lon="6.11491">
        <ele>2506.6</ele>
        <time>2024-08-13T13:59:53Z</time>
      </trkpt>
      <trkpt lat="44.84684" lon="6.11491">
        <ele>2506.4</ele>
        <time>2024-08-13T13:59:54Z</time>
      </trkpt>
      <trkpt lat="44.84684" lon="6.11491">
        <ele>2506.4</ele>
        <time>2024-08-13T13:59:55Z</time>
      </trkpt>
      <trkpt lat="44.84684" lon="6.11491">
        <ele>2506.2</ele>
        <time>2024-08-13T13:59:56Z</time>
      </trkpt>
      <trkpt lat="44.84684" lon="6.11491">
        <ele>2506.2</ele>
        <time>2024-08-13T13:59:57Z</time>
      </trkpt>
      <trkpt lat="44.84684" lon="6.11491">
        <ele>2506.4</ele>
        <time>2024-08-13T13:59:58Z</time>
      </trkpt>
      <trkpt lat="44.84684" lon="6.11491">
        <ele>2506.6</ele>
        <time>2024-08-13T13:59:59Z</time>
      </trkpt>
      <trkpt lat="44.84684" lon="6.11491">
        <ele>2506.8</ele>
        <time>2024-08-13T14:00:00Z</time>
      </trkpt>
      <trkpt lat="44.84684" lon="6.11491">
        <ele>2506.8</ele>
        <time>2024-08-13T14:00:01Z</time>
      </trkpt>
      <trkpt lat="44.84684" lon="6.11491">
        <ele>2506.8</ele>
        <time>2024-08-13T14:00:02Z</time>
      </trkpt>
      <trkpt lat="44.84684" lon="6.11491">
        <ele>2506.8</ele>
        <time>2024-08-13T14:00:03Z</time>
      </trkpt>
      <trkpt lat="44.84684" lon="6.11491">
        <ele>2506.8</ele>
        <time>2024-08-13T14:00:04Z</time>
      </trkpt>
      <trkpt lat="44.84684" lon="6.11491">
        <ele>2506.8</ele>
        <time>2024-08-13T14:00:05Z</time>
      </trkpt>
      <trkpt lat="44.84684" lon="6.11491">
        <ele>2507.2</ele>
        <time>2024-08-13T14:00:06Z</time>
      </trkpt>
      <trkpt lat="44.84684" lon="6.11491">
        <ele>2507.2</ele>
        <time>2024-08-13T14:00:07Z</time>
      </trkpt>
      <trkpt lat="44.84684" lon="6.11491">
        <ele>2507</ele>
        <time>2024-08-13T14:00:08Z</time>
      </trkpt>
      <trkpt lat="44.84684" lon="6.11491">
        <ele>2507</ele>
        <time>2024-08-13T14:00:09Z</time>
      </trkpt>
      <trkpt lat="44.84684" lon="6.11491">
        <ele>2506.8</ele>
        <time>2024-08-13T14:00:10Z</time>
      </trkpt>
      <trkpt lat="44.84684" lon="6.11491">
        <ele>2506.8</ele>
        <time>2024-08-13T14:00:11Z</time>
      </trkpt>
      <trkpt lat="44.84684" lon="6.11491">
        <ele>2506.6</ele>
        <time>2024-08-13T14:00:12Z</time>
      </trkpt>
      <trkpt lat="44.84684" lon="6.11491">
        <ele>2506.6</ele>
        <time>2024-08-13T14:00:13Z</time>
      </trkpt>
      <trkpt lat="44.84684" lon="6.11491">
        <ele>2506.6</ele>
        <time>2024-08-13T14:00:14Z</time>
      </trkpt>
      <trkpt lat="44.84684" lon="6.11491">
        <ele>2506.6</ele>
        <time>2024-08-13T14:00:15Z</time>
      </trkpt>
      <trkpt lat="44.84684" lon="6.11491">
        <ele>2506.4</ele>
        <time>2024-08-13T14:00:16Z</time>
      </trkpt>
      <trkpt lat="44.84684" lon="6.11491">
        <ele>2506.4</ele>
        <time>2024-08-13T14:00:17Z</time>
      </trkpt>
      <trkpt lat="44.84684" lon="6.11491">
        <ele>2506.4</ele>
        <time>2024-08-13T14:00:18Z</time>
      </trkpt>
      <trkpt lat="44.84684" lon="6.11491">
        <ele>2506.4</ele>
        <time>2024-08-13T14:00:19Z</time>
      </trkpt>
      <trkpt lat="44.84684" lon="6.11491">
        <ele>2506.4</ele>
        <time>2024-08-13T14:00:20Z</time>
      </trkpt>
      <trkpt lat="44.84684" lon="6.11491">
        <ele>2506.4</ele>
        <time>2024-08-13T14:00:21Z</time>
      </trkpt>
      <trkpt lat="44.84684" lon="6.11491">
        <ele>2506.4</ele>
        <time>2024-08-13T14:00:22Z</time>
      </trkpt>
      <trkpt lat="44.84684" lon="6.11491">
        <ele>2506.4</ele>
        <time>2024-08-13T14:00:23Z</time>
      </trkpt>
      <trkpt lat="44.84684" lon="6.11491">
        <ele>2506.4</ele>
        <time>2024-08-13T14:00:24Z</time>
      </trkpt>
      <trkpt lat="44.84684" lon="6.11491">
        <ele>2506.4</ele>
        <time>2024-08-13T14:00:25Z</time>
      </trkpt>
      <trkpt lat="44.84684" lon="6.11491">
        <ele>2506.4</ele>
        <time>2024-08-13T14:00:26Z</time>
      </trkpt>
      <trkpt lat="44.84684" lon="6.11491">
        <ele>2506.4</ele>
        <time>2024-08-13T14:00:27Z</time>
      </trkpt>
      <trkpt lat="44.84684" lon="6.11491">
        <ele>2506.4</ele>
        <time>2024-08-13T14:00:28Z</time>
      </trkpt>
      <trkpt lat="44.84684" lon="6.11491">
        <ele>2506.4</ele>
        <time>2024-08-13T14:00:29Z</time>
      </trkpt>
      <trkpt lat="44.84684" lon="6.11491">
        <ele>2506.4</ele>
        <time>2024-08-13T14:00:30Z</time>
      </trkpt>
      <trkpt lat="44.84684" lon="6.11491">
        <ele>2506.6</ele>
        <time>2024-08-13T14:00:31Z</time>
      </trkpt>
      <trkpt lat="44.84684" lon="6.11491">
        <ele>2506.8</ele>
        <time>2024-08-13T14:00:32Z</time>
      </trkpt>
      <trkpt lat="44.84684" lon="6.11491">
        <ele>2506.8</ele>
        <time>2024-08-13T14:00:33Z</time>
      </trkpt>
      <trkpt lat="44.84684" lon="6.11491">
        <ele>2506.6</ele>
        <time>2024-08-13T14:00:34Z</time>
      </trkpt>
      <trkpt lat="44.84684" lon="6.11491">
        <ele>2506.6</ele>
        <time>2024-08-13T14:00:35Z</time>
      </trkpt>
      <trkpt lat="44.84684" lon="6.11491">
        <ele>2506.6</ele>
        <time>2024-08-13T14:00:36Z</time>
      </trkpt>
      <trkpt lat="44.84684" lon="6.11491">
        <ele>2506.6</ele>
        <time>2024-08-13T14:00:37Z</time>
      </trkpt>
      <trkpt lat="44.84684" lon="6.11491">
        <ele>2507</ele>
        <time>2024-08-13T14:00:38Z</time>
      </trkpt>
      <trkpt lat="44.84684" lon="6.11491">
        <ele>2507</ele>
        <time>2024-08-13T14:00:39Z</time>
      </trkpt>
      <trkpt lat="44.84684" lon="6.11491">
        <ele>2506.8</ele>
        <time>2024-08-13T14:00:40Z</time>
      </trkpt>
      <trkpt lat="44.84684" lon="6.11491">
        <ele>2506.8</ele>
        <time>2024-08-13T14:00:41Z</time>
      </trkpt>
      <trkpt lat="44.84684" lon="6.11491">
        <ele>2506.8</ele>
        <time>2024-08-13T14:00:42Z</time>
      </trkpt>
      <trkpt lat="44.84684" lon="6.11491">
        <ele>2506.6</ele>
        <time>2024-08-13T14:00:43Z</time>
      </trkpt>
      <trkpt lat="44.84684" lon="6.11491">
        <ele>2506.6</ele>
        <time>2024-08-13T14:00:44Z</time>
      </trkpt>
      <trkpt lat="44.84684" lon="6.11491">
        <ele>2506.4</ele>
        <time>2024-08-13T14:00:45Z</time>
      </trkpt>
      <trkpt lat="44.84684" lon="6.11491">
        <ele>2506.4</ele>
        <time>2024-08-13T14:00:46Z</time>
      </trkpt>
      <trkpt lat="44.84684" lon="6.11491">
        <ele>2506.4</ele>
        <time>2024-08-13T14:00:47Z</time>
      </trkpt>
      <trkpt lat="44.84684" lon="6.11491">
        <ele>2506.4</ele>
        <time>2024-08-13T14:00:48Z</time>
      </trkpt>
      <trkpt lat="44.84684" lon="6.11491">
        <ele>2506.4</ele>
        <time>2024-08-13T14:00:49Z</time>
      </trkpt>
      <trkpt lat="44.84684" lon="6.11491">
        <ele>2506.4</ele>
        <time>2024-08-13T14:00:50Z</time>
      </trkpt>
      <trkpt lat="44.84684" lon="6.11491">
        <ele>2506.4</ele>
        <time>2024-08-13T14:00:51Z</time>
      </trkpt>
      <trkpt lat="44.84684" lon="6.11491">
        <ele>2506</ele>
        <time>2024-08-13T14:00:52Z</time>
      </trkpt>
      <trkpt lat="44.84684" lon="6.11491">
        <ele>2506</ele>
        <time>2024-08-13T14:00:53Z</time>
      </trkpt>
      <trkpt lat="44.84684" lon="6.11491">
        <ele>2506</ele>
        <time>2024-08-13T14:00:54Z</time>
      </trkpt>
      <trkpt lat="44.84684" lon="6.11491">
        <ele>2506</ele>
        <time>2024-08-13T14:00:55Z</time>
      </trkpt>
      <trkpt lat="44.84684" lon="6.11491">
        <ele>2506</ele>
        <time>2024-08-13T14:00:56Z</time>
      </trkpt>
      <trkpt lat="44.84684" lon="6.11491">
        <ele>2506</ele>
        <time>2024-08-13T14:00:57Z</time>
      </trkpt>
      <trkpt lat="44.84684" lon="6.11491">
        <ele>2506.2</ele>
        <time>2024-08-13T14:00:58Z</time>
      </trkpt>
      <trkpt lat="44.84684" lon="6.11491">
        <ele>2506.2</ele>
        <time>2024-08-13T14:00:59Z</time>
      </trkpt>
      <trkpt lat="44.84684" lon="6.11491">
        <ele>2506.2</ele>
        <time>2024-08-13T14:01:00Z</time>
      </trkpt>
      <trkpt lat="44.84684" lon="6.11491">
        <ele>2506.2</ele>
        <time>2024-08-13T14:01:01Z</time>
      </trkpt>
      <trkpt lat="44.84684" lon="6.11491">
        <ele>2506.2</ele>
        <time>2024-08-13T14:01:02Z</time>
      </trkpt>
      <trkpt lat="44.84684" lon="6.11491">
        <ele>2506.2</ele>
        <time>2024-08-13T14:01:03Z</time>
      </trkpt>
      <trkpt lat="44.84684" lon="6.11491">
        <ele>2506.4</ele>
        <time>2024-08-13T14:01:04Z</time>
      </trkpt>
      <trkpt lat="44.84684" lon="6.11491">
        <ele>2506.4</ele>
        <time>2024-08-13T14:01:05Z</time>
      </trkpt>
      <trkpt lat="44.84684" lon="6.11491">
        <ele>2506.2</ele>
        <time>2024-08-13T14:01:06Z</time>
      </trkpt>
      <trkpt lat="44.84684" lon="6.11491">
        <ele>2506.2</ele>
        <time>2024-08-13T14:01:07Z</time>
      </trkpt>
      <trkpt lat="44.84684" lon="6.11491">
        <ele>2506.2</ele>
        <time>2024-08-13T14:01:08Z</time>
      </trkpt>
      <trkpt lat="44.84684" lon="6.11491">
        <ele>2506.2</ele>
        <time>2024-08-13T14:01:09Z</time>
      </trkpt>
      <trkpt lat="44.84684" lon="6.11491">
        <ele>2506</ele>
        <time>2024-08-13T14:01:10Z</time>
      </trkpt>
      <trkpt lat="44.84684" lon="6.11491">
        <ele>2506</ele>
        <time>2024-08-13T14:01:11Z</time>
      </trkpt>
      <trkpt lat="44.84684" lon="6.11491">
        <ele>2506</ele>
        <time>2024-08-13T14:01:12Z</time>
      </trkpt>
      <trkpt lat="44.84684" lon="6.11491">
        <ele>2506</ele>
        <time>2024-08-13T14:01:13Z</time>
      </trkpt>
      <trkpt lat="44.84684" lon="6.11491">
        <ele>2506</ele>
        <time>2024-08-13T14:01:14Z</time>
      </trkpt>
      <trkpt lat="44.84684" lon="6.11491">
        <ele>2506</ele>
        <time>2024-08-13T14:01:15Z</time>
      </trkpt>
      <trkpt lat="44.84684" lon="6.11491">
        <ele>2506</ele>
        <time>2024-08-13T14:01:16Z</time>
      </trkpt>
      <trkpt lat="44.84684" lon="6.11491">
        <ele>2506</ele>
        <time>2024-08-13T14:01:17Z</time>
      </trkpt>
      <trkpt lat="44.84684" lon="6.11491">
        <ele>2506</ele>
        <time>2024-08-13T14:01:18Z</time>
      </trkpt>
      <trkpt lat="44.84684" lon="6.11491">
        <ele>2505.8</ele>
        <time>2024-08-13T14:01:19Z</time>
      </trkpt>
      <trkpt lat="44.84684" lon="6.11491">
        <ele>2505.8</ele>
        <time>2024-08-13T14:01:20Z</time>
      </trkpt>
      <trkpt lat="44.84684" lon="6.11491">
        <ele>2505.8</ele>
        <time>2024-08-13T14:01:21Z</time>
      </trkpt>
      <trkpt lat="44.84684" lon="6.11491">
        <ele>2505.8</ele>
        <time>2024-08-13T14:01:22Z</time>
      </trkpt>
      <trkpt lat="44.84684" lon="6.11491">
        <ele>2505.8</ele>
        <time>2024-08-13T14:01:23Z</time>
      </trkpt>
      <trkpt lat="44.84684" lon="6.11491">
        <ele>2505.8</ele>
        <time>2024-08-13T14:01:24Z</time>
      </trkpt>
      <trkpt lat="44.84684" lon="6.11491">
        <ele>2506</ele>
        <time>2024-08-13T14:01:25Z</time>
      </trkpt>
      <trkpt lat="44.84684" lon="6.11491">
        <ele>2506</ele>
        <time>2024-08-13T14:01:26Z</time>
      </trkpt>
      <trkpt lat="44.84684" lon="6.11491">
        <ele>2505.8</ele>
        <time>2024-08-13T14:01:27Z</time>
      </trkpt>
      <trkpt lat="44.84684" lon="6.11491">
        <ele>2505.8</ele>
        <time>2024-08-13T14:01:28Z</time>
      </trkpt>
      <trkpt lat="44.84684" lon="6.11491">
        <ele>2505.8</ele>
        <time>2024-08-13T14:01:29Z</time>
      </trkpt>
      <trkpt lat="44.84684" lon="6.11491">
        <ele>2505.6</ele>
        <time>2024-08-13T14:01:30Z</time>
      </trkpt>
      <trkpt lat="44.84684" lon="6.11491">
        <ele>2505.4</ele>
        <time>2024-08-13T14:01:31Z</time>
      </trkpt>
      <trkpt lat="44.84684" lon="6.11491">
        <ele>2505.2</ele>
        <time>2024-08-13T14:01:32Z</time>
      </trkpt>
      <trkpt lat="44.84686" lon="6.1149">
        <ele>2505</ele>
        <time>2024-08-13T14:01:33Z</time>
      </trkpt>
      <trkpt lat="44.84686" lon="6.1149">
        <ele>2504.8</ele>
        <time>2024-08-13T14:01:34Z</time>
      </trkpt>
      <trkpt lat="44.84688" lon="6.11487">
        <ele>2504.6</ele>
        <time>2024-08-13T14:01:35Z</time>
      </trkpt>
      <trkpt lat="44.84688" lon="6.11487">
        <ele>2504.2</ele>
        <time>2024-08-13T14:01:36Z</time>
      </trkpt>
      <trkpt lat="44.84688" lon="6.11487">
        <ele>2504</ele>
        <time>2024-08-13T14:01:37Z</time>
      </trkpt>
      <trkpt lat="44.84689" lon="6.11484">
        <ele>2503.8</ele>
        <time>2024-08-13T14:01:38Z</time>
      </trkpt>
      <trkpt lat="44.84689" lon="6.11484">
        <ele>2503.6</ele>
        <time>2024-08-13T14:01:39Z</time>
      </trkpt>
      <trkpt lat="44.84689" lon="6.11484">
        <ele>2503</ele>
        <time>2024-08-13T14:01:40Z</time>
      </trkpt>
      <trkpt lat="44.84689" lon="6.11484">
        <ele>2502.8</ele>
        <time>2024-08-13T14:01:41Z</time>
      </trkpt>
      <trkpt lat="44.84689" lon="6.11484">
        <ele>2502.4</ele>
        <time>2024-08-13T14:01:42Z</time>
      </trkpt>
      <trkpt lat="44.84689" lon="6.11484">
        <ele>2502.2</ele>
        <time>2024-08-13T14:01:43Z</time>
      </trkpt>
      <trkpt lat="44.84689" lon="6.11484">
        <ele>2502.2</ele>
        <time>2024-08-13T14:01:44Z</time>
      </trkpt>
      <trkpt lat="44.84689" lon="6.11484">
        <ele>2502.4</ele>
        <time>2024-08-13T14:01:45Z</time>
      </trkpt>
      <trkpt lat="44.84689" lon="6.11484">
        <ele>2502.6</ele>
        <time>2024-08-13T14:01:46Z</time>
      </trkpt>
      <trkpt lat="44.84689" lon="6.11484">
        <ele>2502.6</ele>
        <time>2024-08-13T14:01:47Z</time>
      </trkpt>
      <trkpt lat="44.84689" lon="6.11484">
        <ele>2502.8</ele>
        <time>2024-08-13T14:01:48Z</time>
      </trkpt>
      <trkpt lat="44.84689" lon="6.11484">
        <ele>2502.8</ele>
        <time>2024-08-13T14:01:49Z</time>
      </trkpt>
      <trkpt lat="44.84689" lon="6.11484">
        <ele>2502.8</ele>
        <time>2024-08-13T14:01:50Z</time>
      </trkpt>
      <trkpt lat="44.84689" lon="6.11484">
        <ele>2502.8</ele>
        <time>2024-08-13T14:01:51Z</time>
      </trkpt>
      <trkpt lat="44.84689" lon="6.11484">
        <ele>2502.6</ele>
        <time>2024-08-13T14:01:52Z</time>
      </trkpt>
      <trkpt lat="44.84687" lon="6.11482">
        <ele>2502.6</ele>
        <time>2024-08-13T14:01:53Z</time>
      </trkpt>
      <trkpt lat="44.84687" lon="6.11482">
        <ele>2502.2</ele>
        <time>2024-08-13T14:01:54Z</time>
      </trkpt>
      <trkpt lat="44.84687" lon="6.11482">
        <ele>2501.8</ele>
        <time>2024-08-13T14:01:55Z</time>
      </trkpt>
      <trkpt lat="44.84686" lon="6.1148">
        <ele>2501.8</ele>
        <time>2024-08-13T14:01:56Z</time>
      </trkpt>
      <trkpt lat="44.84686" lon="6.1148">
        <ele>2501.6</ele>
        <time>2024-08-13T14:01:57Z</time>
      </trkpt>
      <trkpt lat="44.84686" lon="6.11476">
        <ele>2501.2</ele>
        <time>2024-08-13T14:01:58Z</time>
      </trkpt>
      <trkpt lat="44.84686" lon="6.11476">
        <ele>2501</ele>
        <time>2024-08-13T14:01:59Z</time>
      </trkpt>
      <trkpt lat="44.84687" lon="6.11475">
        <ele>2500.6</ele>
        <time>2024-08-13T14:02:00Z</time>
      </trkpt>
      <trkpt lat="44.84687" lon="6.11475">
        <ele>2500.2</ele>
        <time>2024-08-13T14:02:01Z</time>
      </trkpt>
      <trkpt lat="44.84689" lon="6.11475">
        <ele>2500</ele>
        <time>2024-08-13T14:02:02Z</time>
      </trkpt>
      <trkpt lat="44.84689" lon="6.11475">
        <ele>2500</ele>
        <time>2024-08-13T14:02:03Z</time>
      </trkpt>
      <trkpt lat="44.84689" lon="6.11475">
        <ele>2499.4</ele>
        <time>2024-08-13T14:02:04Z</time>
      </trkpt>
      <trkpt lat="44.84691" lon="6.11475">
        <ele>2499</ele>
        <time>2024-08-13T14:02:05Z</time>
      </trkpt>
      <trkpt lat="44.84691" lon="6.11475">
        <ele>2498.8</ele>
        <time>2024-08-13T14:02:06Z</time>
      </trkpt>
      <trkpt lat="44.84691" lon="6.11475">
        <ele>2498.4</ele>
        <time>2024-08-13T14:02:07Z</time>
      </trkpt>
      <trkpt lat="44.84693" lon="6.11473">
        <ele>2498.4</ele>
        <time>2024-08-13T14:02:08Z</time>
      </trkpt>
      <trkpt lat="44.84693" lon="6.11473">
        <ele>2497.8</ele>
        <time>2024-08-13T14:02:09Z</time>
      </trkpt>
      <trkpt lat="44.84693" lon="6.11473">
        <ele>2497.4</ele>
        <time>2024-08-13T14:02:10Z</time>
      </trkpt>
      <trkpt lat="44.84692" lon="6.1147">
        <ele>2497.2</ele>
        <time>2024-08-13T14:02:11Z</time>
      </trkpt>
      <trkpt lat="44.84692" lon="6.1147">
        <ele>2497</ele>
        <time>2024-08-13T14:02:12Z</time>
      </trkpt>
      <trkpt lat="44.84692" lon="6.1147">
        <ele>2497</ele>
        <time>2024-08-13T14:02:13Z</time>
      </trkpt>
      <trkpt lat="44.8469" lon="6.11468">
        <ele>2496.6</ele>
        <time>2024-08-13T14:02:14Z</time>
      </trkpt>
      <trkpt lat="44.8469" lon="6.11468">
        <ele>2496.2</ele>
        <time>2024-08-13T14:02:15Z</time>
      </trkpt>
      <trkpt lat="44.8469" lon="6.11468">
        <ele>2495.8</ele>
        <time>2024-08-13T14:02:16Z</time>
      </trkpt>
      <trkpt lat="44.8469" lon="6.11466">
        <ele>2495.2</ele>
        <time>2024-08-13T14:02:17Z</time>
      </trkpt>
      <trkpt lat="44.8469" lon="6.11466">
        <ele>2495</ele>
        <time>2024-08-13T14:02:18Z</time>
      </trkpt>
      <trkpt lat="44.8469" lon="6.11466">
        <ele>2494.6</ele>
        <time>2024-08-13T14:02:19Z</time>
      </trkpt>
      <trkpt lat="44.84689" lon="6.11462">
        <ele>2494.2</ele>
        <time>2024-08-13T14:02:20Z</time>
      </trkpt>
      <trkpt lat="44.84689" lon="6.11462">
        <ele>2494.2</ele>
        <time>2024-08-13T14:02:21Z</time>
      </trkpt>
      <trkpt lat="44.84689" lon="6.11462">
        <ele>2494.2</ele>
        <time>2024-08-13T14:02:22Z</time>
      </trkpt>
      <trkpt lat="44.84691" lon="6.11462">
        <ele>2494</ele>
        <time>2024-08-13T14:02:23Z</time>
      </trkpt>
      <trkpt lat="44.84691" lon="6.11462">
        <ele>2493.4</ele>
        <time>2024-08-13T14:02:24Z</time>
      </trkpt>
      <trkpt lat="44.84691" lon="6.11462">
        <ele>2493</ele>
        <time>2024-08-13T14:02:25Z</time>
      </trkpt>
      <trkpt lat="44.84693" lon="6.11461">
        <ele>2492.8</ele>
        <time>2024-08-13T14:02:26Z</time>
      </trkpt>
      <trkpt lat="44.84693" lon="6.11461">
        <ele>2492.6</ele>
        <time>2024-08-13T14:02:27Z</time>
      </trkpt>
      <trkpt lat="44.84693" lon="6.11461">
        <ele>2492.4</ele>
        <time>2024-08-13T14:02:28Z</time>
      </trkpt>
      <trkpt lat="44.84693" lon="6.11461">
        <ele>2492.2</ele>
        <time>2024-08-13T14:02:29Z</time>
      </trkpt>
      <trkpt lat="44.84692" lon="6.11458">
        <ele>2491.8</ele>
        <time>2024-08-13T14:02:30Z</time>
      </trkpt>
      <trkpt lat="44.84692" lon="6.11458">
        <ele>2491.6</ele>
        <time>2024-08-13T14:02:31Z</time>
      </trkpt>
      <trkpt lat="44.84692" lon="6.11455">
        <ele>2491.2</ele>
        <time>2024-08-13T14:02:32Z</time>
      </trkpt>
      <trkpt lat="44.84692" lon="6.11455">
        <ele>2491</ele>
        <time>2024-08-13T14:02:33Z</time>
      </trkpt>
      <trkpt lat="44.84692" lon="6.11455">
        <ele>2490.8</ele>
        <time>2024-08-13T14:02:34Z</time>
      </trkpt>
      <trkpt lat="44.84692" lon="6.11455">
        <ele>2490.4</ele>
        <time>2024-08-13T14:02:35Z</time>
      </trkpt>
      <trkpt lat="44.84692" lon="6.11455">
        <ele>2490</ele>
        <time>2024-08-13T14:02:36Z</time>
      </trkpt>
      <trkpt lat="44.84692" lon="6.11455">
        <ele>2490</ele>
        <time>2024-08-13T14:02:37Z</time>
      </trkpt>
      <trkpt lat="44.84691" lon="6.11452">
        <ele>2489.8</ele>
        <time>2024-08-13T14:02:38Z</time>
      </trkpt>
      <trkpt lat="44.84691" lon="6.11452">
        <ele>2489.6</ele>
        <time>2024-08-13T14:02:39Z</time>
      </trkpt>
      <trkpt lat="44.84691" lon="6.1145">
        <ele>2489.2</ele>
        <time>2024-08-13T14:02:40Z</time>
      </trkpt>
      <trkpt lat="44.84691" lon="6.1145">
        <ele>2488.6</ele>
        <time>2024-08-13T14:02:41Z</time>
      </trkpt>
      <trkpt lat="44.8469" lon="6.11447">
        <ele>2488.4</ele>
        <time>2024-08-13T14:02:42Z</time>
      </trkpt>
      <trkpt lat="44.8469" lon="6.11447">
        <ele>2488</ele>
        <time>2024-08-13T14:02:43Z</time>
      </trkpt>
      <trkpt lat="44.84689" lon="6.11445">
        <ele>2487.8</ele>
        <time>2024-08-13T14:02:44Z</time>
      </trkpt>
      <trkpt lat="44.84689" lon="6.11445">
        <ele>2487.8</ele>
        <time>2024-08-13T14:02:45Z</time>
      </trkpt>
      <trkpt lat="44.84691" lon="6.11443">
        <ele>2487.4</ele>
        <time>2024-08-13T14:02:46Z</time>
      </trkpt>
      <trkpt lat="44.84691" lon="6.11443">
        <ele>2487</ele>
        <time>2024-08-13T14:02:47Z</time>
      </trkpt>
      <trkpt lat="44.84691" lon="6.11443">
        <ele>2486.8</ele>
        <time>2024-08-13T14:02:48Z</time>
      </trkpt>
      <trkpt lat="44.84691" lon="6.11443">
        <ele>2486.4</ele>
        <time>2024-08-13T14:02:49Z</time>
      </trkpt>
      <trkpt lat="44.84693" lon="6.11442">
        <ele>2486.4</ele>
        <time>2024-08-13T14:02:50Z</time>
      </trkpt>
      <trkpt lat="44.84693" lon="6.11442">
        <ele>2485.8</ele>
        <time>2024-08-13T14:02:51Z</time>
      </trkpt>
      <trkpt lat="44.84693" lon="6.11442">
        <ele>2485.4</ele>
        <time>2024-08-13T14:02:52Z</time>
      </trkpt>
      <trkpt lat="44.84693" lon="6.11438">
        <ele>2485.2</ele>
        <time>2024-08-13T14:02:53Z</time>
      </trkpt>
      <trkpt lat="44.84693" lon="6.11438">
        <ele>2485.2</ele>
        <time>2024-08-13T14:02:54Z</time>
      </trkpt>
      <trkpt lat="44.84693" lon="6.11438">
        <ele>2484.8</ele>
        <time>2024-08-13T14:02:55Z</time>
      </trkpt>
      <trkpt lat="44.84693" lon="6.11436">
        <ele>2484.4</ele>
        <time>2024-08-13T14:02:56Z</time>
      </trkpt>
      <trkpt lat="44.84693" lon="6.11436">
        <ele>2484.2</ele>
        <time>2024-08-13T14:02:57Z</time>
      </trkpt>
      <trkpt lat="44.84693" lon="6.11436">
        <ele>2484</ele>
        <time>2024-08-13T14:02:58Z</time>
      </trkpt>
      <trkpt lat="44.84694" lon="6.11433">
        <ele>2483.6</ele>
        <time>2024-08-13T14:02:59Z</time>
      </trkpt>
      <trkpt lat="44.84694" lon="6.11433">
        <ele>2483.4</ele>
        <time>2024-08-13T14:03:00Z</time>
      </trkpt>
      <trkpt lat="44.84694" lon="6.11433">
        <ele>2483</ele>
        <time>2024-08-13T14:03:01Z</time>
      </trkpt>
      <trkpt lat="44.84694" lon="6.11433">
        <ele>2482.2</ele>
        <time>2024-08-13T14:03:02Z</time>
      </trkpt>
      <trkpt lat="44.84695" lon="6.1143">
        <ele>2482.2</ele>
        <time>2024-08-13T14:03:03Z</time>
      </trkpt>
      <trkpt lat="44.84695" lon="6.1143">
        <ele>2482.4</ele>
        <time>2024-08-13T14:03:04Z</time>
      </trkpt>
      <trkpt lat="44.84695" lon="6.1143">
        <ele>2481.8</ele>
        <time>2024-08-13T14:03:05Z</time>
      </trkpt>
      <trkpt lat="44.84694" lon="6.11427">
        <ele>2481.6</ele>
        <time>2024-08-13T14:03:06Z</time>
      </trkpt>
      <trkpt lat="44.84694" lon="6.11427">
        <ele>2481.2</ele>
        <time>2024-08-13T14:03:07Z</time>
      </trkpt>
      <trkpt lat="44.84694" lon="6.11427">
        <ele>2480.8</ele>
        <time>2024-08-13T14:03:08Z</time>
      </trkpt>
      <trkpt lat="44.84694" lon="6.11424">
        <ele>2480.6</ele>
        <time>2024-08-13T14:03:09Z</time>
      </trkpt>
      <trkpt lat="44.84694" lon="6.11424">
        <ele>2480.4</ele>
        <time>2024-08-13T14:03:10Z</time>
      </trkpt>
      <trkpt lat="44.84694" lon="6.11424">
        <ele>2480.2</ele>
        <time>2024-08-13T14:03:11Z</time>
      </trkpt>
      <trkpt lat="44.84693" lon="6.11421">
        <ele>2480</ele>
        <time>2024-08-13T14:03:12Z</time>
      </trkpt>
      <trkpt lat="44.84693" lon="6.11421">
        <ele>2479.8</ele>
        <time>2024-08-13T14:03:13Z</time>
      </trkpt>
      <trkpt lat="44.84693" lon="6.11421">
        <ele>2479.4</ele>
        <time>2024-08-13T14:03:14Z</time>
      </trkpt>
      <trkpt lat="44.84694" lon="6.11418">
        <ele>2479</ele>
        <time>2024-08-13T14:03:15Z</time>
      </trkpt>
      <trkpt lat="44.84694" lon="6.11418">
        <ele>2478.6</ele>
        <time>2024-08-13T14:03:16Z</time>
      </trkpt>
      <trkpt lat="44.84694" lon="6.11418">
        <ele>2478.4</ele>
        <time>2024-08-13T14:03:17Z</time>
      </trkpt>
      <trkpt lat="44.84693" lon="6.11415">
        <ele>2478</ele>
        <time>2024-08-13T14:03:18Z</time>
      </trkpt>
      <trkpt lat="44.84693" lon="6.11415">
        <ele>2477.8</ele>
        <time>2024-08-13T14:03:19Z</time>
      </trkpt>
      <trkpt lat="44.84693" lon="6.11415">
        <ele>2477.6</ele>
        <time>2024-08-13T14:03:20Z</time>
      </trkpt>
      <trkpt lat="44.84693" lon="6.11413">
        <ele>2477.2</ele>
        <time>2024-08-13T14:03:21Z</time>
      </trkpt>
      <trkpt lat="44.84693" lon="6.11413">
        <ele>2477</ele>
        <time>2024-08-13T14:03:22Z</time>
      </trkpt>
      <trkpt lat="44.84693" lon="6.11413">
        <ele>2476.8</ele>
        <time>2024-08-13T14:03:23Z</time>
      </trkpt>
      <trkpt lat="44.84693" lon="6.1141">
        <ele>2476.6</ele>
        <time>2024-08-13T14:03:24Z</time>
      </trkpt>
      <trkpt lat="44.84693" lon="6.1141">
        <ele>2476.2</ele>
        <time>2024-08-13T14:03:25Z</time>
      </trkpt>
      <trkpt lat="44.84693" lon="6.1141">
        <ele>2476</ele>
        <time>2024-08-13T14:03:26Z</time>
      </trkpt>
      <trkpt lat="44.84692" lon="6.11407">
        <ele>2475.8</ele>
        <time>2024-08-13T14:03:27Z</time>
      </trkpt>
      <trkpt lat="44.84692" lon="6.11407">
        <ele>2475.6</ele>
        <time>2024-08-13T14:03:28Z</time>
      </trkpt>
      <trkpt lat="44.84692" lon="6.11407">
        <ele>2475.2</ele>
        <time>2024-08-13T14:03:29Z</time>
      </trkpt>
      <trkpt lat="44.84693" lon="6.11404">
        <ele>2474.8</ele>
        <time>2024-08-13T14:03:30Z</time>
      </trkpt>
      <trkpt lat="44.84693" lon="6.11404">
        <ele>2474.6</ele>
        <time>2024-08-13T14:03:31Z</time>
      </trkpt>
      <trkpt lat="44.84693" lon="6.11404">
        <ele>2474.2</ele>
        <time>2024-08-13T14:03:32Z</time>
      </trkpt>
      <trkpt lat="44.84693" lon="6.114">
        <ele>2474.2</ele>
        <time>2024-08-13T14:03:33Z</time>
      </trkpt>
      <trkpt lat="44.84693" lon="6.114">
        <ele>2474</ele>
        <time>2024-08-13T14:03:34Z</time>
      </trkpt>
      <trkpt lat="44.84693" lon="6.114">
        <ele>2473.6</ele>
        <time>2024-08-13T14:03:35Z</time>
      </trkpt>
      <trkpt lat="44.84693" lon="6.11397">
        <ele>2473.6</ele>
        <time>2024-08-13T14:03:36Z</time>
      </trkpt>
      <trkpt lat="44.84693" lon="6.11397">
        <ele>2473.2</ele>
        <time>2024-08-13T14:03:37Z</time>
      </trkpt>
      <trkpt lat="44.84693" lon="6.11397">
        <ele>2473</ele>
        <time>2024-08-13T14:03:38Z</time>
      </trkpt>
      <trkpt lat="44.84693" lon="6.11394">
        <ele>2472.6</ele>
        <time>2024-08-13T14:03:39Z</time>
      </trkpt>
      <trkpt lat="44.84693" lon="6.11394">
        <ele>2472.2</ele>
        <time>2024-08-13T14:03:40Z</time>
      </trkpt>
      <trkpt lat="44.84693" lon="6.11394">
        <ele>2472</ele>
        <time>2024-08-13T14:03:41Z</time>
      </trkpt>
      <trkpt lat="44.84693" lon="6.11394">
        <ele>2471.8</ele>
        <time>2024-08-13T14:03:42Z</time>
      </trkpt>
      <trkpt lat="44.84693" lon="6.11394">
        <ele>2471.6</ele>
        <time>2024-08-13T14:03:43Z</time>
      </trkpt>
      <trkpt lat="44.84693" lon="6.11394">
        <ele>2470.8</ele>
        <time>2024-08-13T14:03:44Z</time>
      </trkpt>
      <trkpt lat="44.84693" lon="6.11394">
        <ele>2471</ele>
        <time>2024-08-13T14:03:45Z</time>
      </trkpt>
      <trkpt lat="44.84694" lon="6.11392">
        <ele>2471</ele>
        <time>2024-08-13T14:03:46Z</time>
      </trkpt>
      <trkpt lat="44.84694" lon="6.11392">
        <ele>2471</ele>
        <time>2024-08-13T14:03:47Z</time>
      </trkpt>
      <trkpt lat="44.84694" lon="6.11392">
        <ele>2470.8</ele>
        <time>2024-08-13T14:03:48Z</time>
      </trkpt>
      <trkpt lat="44.84694" lon="6.11392">
        <ele>2470.6</ele>
        <time>2024-08-13T14:03:49Z</time>
      </trkpt>
      <trkpt lat="44.84694" lon="6.11392">
        <ele>2470.4</ele>
        <time>2024-08-13T14:03:50Z</time>
      </trkpt>
      <trkpt lat="44.84697" lon="6.11391">
        <ele>2470.2</ele>
        <time>2024-08-13T14:03:51Z</time>
      </trkpt>
      <trkpt lat="44.84697" lon="6.11391">
        <ele>2469.6</ele>
        <time>2024-08-13T14:03:52Z</time>
      </trkpt>
      <trkpt lat="44.84697" lon="6.11391">
        <ele>2469.4</ele>
        <time>2024-08-13T14:03:53Z</time>
      </trkpt>
      <trkpt lat="44.84697" lon="6.11388">
        <ele>2469.2</ele>
        <time>2024-08-13T14:03:54Z</time>
      </trkpt>
      <trkpt lat="44.84697" lon="6.11388">
        <ele>2469.2</ele>
        <time>2024-08-13T14:03:55Z</time>
      </trkpt>
      <trkpt lat="44.84697" lon="6.11388">
        <ele>2468.8</ele>
        <time>2024-08-13T14:03:56Z</time>
      </trkpt>
      <trkpt lat="44.84697" lon="6.11388">
        <ele>2468.4</ele>
        <time>2024-08-13T14:03:57Z</time>
      </trkpt>
      <trkpt lat="44.84697" lon="6.11388">
        <ele>2468.2</ele>
        <time>2024-08-13T14:03:58Z</time>
      </trkpt>
      <trkpt lat="44.84697" lon="6.11388">
        <ele>2468.2</ele>
        <time>2024-08-13T14:03:59Z</time>
      </trkpt>
      <trkpt lat="44.84699" lon="6.11387">
        <ele>2468</ele>
        <time>2024-08-13T14:04:00Z</time>
      </trkpt>
      <trkpt lat="44.84699" lon="6.11387">
        <ele>2468</ele>
        <time>2024-08-13T14:04:01Z</time>
      </trkpt>
      <trkpt lat="44.84699" lon="6.11387">
        <ele>2467</ele>
        <time>2024-08-13T14:04:02Z</time>
      </trkpt>
      <trkpt lat="44.84699" lon="6.11387">
        <ele>2467</ele>
        <time>2024-08-13T14:04:03Z</time>
      </trkpt>
      <trkpt lat="44.84699" lon="6.11387">
        <ele>2467</ele>
        <time>2024-08-13T14:04:04Z</time>
      </trkpt>
      <trkpt lat="44.847" lon="6.11384">
        <ele>2467</ele>
        <time>2024-08-13T14:04:05Z</time>
      </trkpt>
      <trkpt lat="44.847" lon="6.11384">
        <ele>2467.2</ele>
        <time>2024-08-13T14:04:06Z</time>
      </trkpt>
      <trkpt lat="44.847" lon="6.11384">
        <ele>2467</ele>
        <time>2024-08-13T14:04:07Z</time>
      </trkpt>
      <trkpt lat="44.847" lon="6.11384">
        <ele>2466.8</ele>
        <time>2024-08-13T14:04:08Z</time>
      </trkpt>
      <trkpt lat="44.847" lon="6.11384">
        <ele>2466.2</ele>
        <time>2024-08-13T14:04:09Z</time>
      </trkpt>
      <trkpt lat="44.84701" lon="6.11382">
        <ele>2466</ele>
        <time>2024-08-13T14:04:10Z</time>
      </trkpt>
      <trkpt lat="44.84701" lon="6.11382">
        <ele>2466</ele>
        <time>2024-08-13T14:04:11Z</time>
      </trkpt>
      <trkpt lat="44.84701" lon="6.11382">
        <ele>2466</ele>
        <time>2024-08-13T14:04:12Z</time>
      </trkpt>
      <trkpt lat="44.84701" lon="6.11382">
        <ele>2465.8</ele>
        <time>2024-08-13T14:04:13Z</time>
      </trkpt>
      <trkpt lat="44.84703" lon="6.1138">
        <ele>2465.6</ele>
        <time>2024-08-13T14:04:14Z</time>
      </trkpt>
      <trkpt lat="44.84703" lon="6.1138">
        <ele>2465</ele>
        <time>2024-08-13T14:04:15Z</time>
      </trkpt>
      <trkpt lat="44.84703" lon="6.1138">
        <ele>2465</ele>
        <time>2024-08-13T14:04:16Z</time>
      </trkpt>
      <trkpt lat="44.84703" lon="6.11377">
        <ele>2464.8</ele>
        <time>2024-08-13T14:04:17Z</time>
      </trkpt>
      <trkpt lat="44.84703" lon="6.11377">
        <ele>2464.4</ele>
        <time>2024-08-13T14:04:18Z</time>
      </trkpt>
      <trkpt lat="44.84703" lon="6.11377">
        <ele>2464.2</ele>
        <time>2024-08-13T14:04:19Z</time>
      </trkpt>
      <trkpt lat="44.84703" lon="6.11377">
        <ele>2464.2</ele>
        <time>2024-08-13T14:04:20Z</time>
      </trkpt>
      <trkpt lat="44.84705" lon="6.11374">
        <ele>2464</ele>
        <time>2024-08-13T14:04:21Z</time>
      </trkpt>
      <trkpt lat="44.84705" lon="6.11374">
        <ele>2463.8</ele>
        <time>2024-08-13T14:04:22Z</time>
      </trkpt>
      <trkpt lat="44.84705" lon="6.11374">
        <ele>2463.6</ele>
        <time>2024-08-13T14:04:23Z</time>
      </trkpt>
      <trkpt lat="44.84706" lon="6.11371">
        <ele>2463.2</ele>
        <time>2024-08-13T14:04:24Z</time>
      </trkpt>
      <trkpt lat="44.84706" lon="6.11371">
        <ele>2462.8</ele>
        <time>2024-08-13T14:04:25Z</time>
      </trkpt>
      <trkpt lat="44.84706" lon="6.11371">
        <ele>2462.6</ele>
        <time>2024-08-13T14:04:26Z</time>
      </trkpt>
      <trkpt lat="44.84705" lon="6.11368">
        <ele>2462</ele>
        <time>2024-08-13T14:04:27Z</time>
      </trkpt>
      <trkpt lat="44.84705" lon="6.11368">
        <ele>2461.6</ele>
        <time>2024-08-13T14:04:28Z</time>
      </trkpt>
      <trkpt lat="44.84705" lon="6.11368">
        <ele>2461.6</ele>
        <time>2024-08-13T14:04:29Z</time>
      </trkpt>
      <trkpt lat="44.84706" lon="6.11365">
        <ele>2461.4</ele>
        <time>2024-08-13T14:04:30Z</time>
      </trkpt>
      <trkpt lat="44.84706" lon="6.11365">
        <ele>2461.4</ele>
        <time>2024-08-13T14:04:31Z</time>
      </trkpt>
      <trkpt lat="44.84706" lon="6.11362">
        <ele>2461.2</ele>
        <time>2024-08-13T14:04:32Z</time>
      </trkpt>
      <trkpt lat="44.84706" lon="6.11362">
        <ele>2461.2</ele>
        <time>2024-08-13T14:04:33Z</time>
      </trkpt>
      <trkpt lat="44.84706" lon="6.1136">
        <ele>2460.6</ele>
        <time>2024-08-13T14:04:34Z</time>
      </trkpt>
      <trkpt lat="44.84706" lon="6.1136">
        <ele>2460.4</ele>
        <time>2024-08-13T14:04:35Z</time>
      </trkpt>
      <trkpt lat="44.84706" lon="6.11357">
        <ele>2460.2</ele>
        <time>2024-08-13T14:04:36Z</time>
      </trkpt>
      <trkpt lat="44.84706" lon="6.11357">
        <ele>2460</ele>
        <time>2024-08-13T14:04:37Z</time>
      </trkpt>
      <trkpt lat="44.84706" lon="6.11357">
        <ele>2459.8</ele>
        <time>2024-08-13T14:04:38Z</time>
      </trkpt>
      <trkpt lat="44.84706" lon="6.11357">
        <ele>2459.8</ele>
        <time>2024-08-13T14:04:39Z</time>
      </trkpt>
      <trkpt lat="44.84707" lon="6.11353">
        <ele>2459.8</ele>
        <time>2024-08-13T14:04:40Z</time>
      </trkpt>
      <trkpt lat="44.84707" lon="6.11353">
        <ele>2459.6</ele>
        <time>2024-08-13T14:04:41Z</time>
      </trkpt>
      <trkpt lat="44.84707" lon="6.11353">
        <ele>2459</ele>
        <time>2024-08-13T14:04:42Z</time>
      </trkpt>
      <trkpt lat="44.84708" lon="6.11351">
        <ele>2458.6</ele>
        <time>2024-08-13T14:04:43Z</time>
      </trkpt>
      <trkpt lat="44.84708" lon="6.11351">
        <ele>2458.4</ele>
        <time>2024-08-13T14:04:44Z</time>
      </trkpt>
      <trkpt lat="44.84708" lon="6.11351">
        <ele>2458</ele>
        <time>2024-08-13T14:04:45Z</time>
      </trkpt>
      <trkpt lat="44.84708" lon="6.11351">
        <ele>2457.6</ele>
        <time>2024-08-13T14:04:46Z</time>
      </trkpt>
      <trkpt lat="44.84709" lon="6.11348">
        <ele>2457.2</ele>
        <time>2024-08-13T14:04:47Z</time>
      </trkpt>
      <trkpt lat="44.84709" lon="6.11348">
        <ele>2456.6</ele>
        <time>2024-08-13T14:04:48Z</time>
      </trkpt>
      <trkpt lat="44.84711" lon="6.11347">
        <ele>2456.4</ele>
        <time>2024-08-13T14:04:49Z</time>
      </trkpt>
      <trkpt lat="44.84711" lon="6.11347">
        <ele>2456.2</ele>
        <time>2024-08-13T14:04:50Z</time>
      </trkpt>
      <trkpt lat="44.84711" lon="6.11347">
        <ele>2455.6</ele>
        <time>2024-08-13T14:04:51Z</time>
      </trkpt>
      <trkpt lat="44.84713" lon="6.11346">
        <ele>2455</ele>
        <time>2024-08-13T14:04:52Z</time>
      </trkpt>
      <trkpt lat="44.84713" lon="6.11346">
        <ele>2454.6</ele>
        <time>2024-08-13T14:04:53Z</time>
      </trkpt>
      <trkpt lat="44.84713" lon="6.11346">
        <ele>2454.6</ele>
        <time>2024-08-13T14:04:54Z</time>
      </trkpt>
      <trkpt lat="44.84713" lon="6.11346">
        <ele>2454.4</ele>
        <time>2024-08-13T14:04:55Z</time>
      </trkpt>
      <trkpt lat="44.84715" lon="6.11345">
        <ele>2454</ele>
        <time>2024-08-13T14:04:56Z</time>
      </trkpt>
      <trkpt lat="44.84715" lon="6.11345">
        <ele>2454</ele>
        <time>2024-08-13T14:04:57Z</time>
      </trkpt>
      <trkpt lat="44.84715" lon="6.11345">
        <ele>2453.6</ele>
        <time>2024-08-13T14:04:58Z</time>
      </trkpt>
      <trkpt lat="44.84715" lon="6.11345">
        <ele>2453.4</ele>
        <time>2024-08-13T14:04:59Z</time>
      </trkpt>
      <trkpt lat="44.84716" lon="6.11342">
        <ele>2453.2</ele>
        <time>2024-08-13T14:05:00Z</time>
      </trkpt>
      <trkpt lat="44.84716" lon="6.11342">
        <ele>2453.2</ele>
        <time>2024-08-13T14:05:01Z</time>
      </trkpt>
      <trkpt lat="44.84716" lon="6.11342">
        <ele>2452.4</ele>
        <time>2024-08-13T14:05:02Z</time>
      </trkpt>
      <trkpt lat="44.84716" lon="6.11342">
        <ele>2452.4</ele>
        <time>2024-08-13T14:05:03Z</time>
      </trkpt>
      <trkpt lat="44.84717" lon="6.11339">
        <ele>2452.2</ele>
        <time>2024-08-13T14:05:04Z</time>
      </trkpt>
      <trkpt lat="44.84717" lon="6.11339">
        <ele>2452</ele>
        <time>2024-08-13T14:05:05Z</time>
      </trkpt>
      <trkpt lat="44.84717" lon="6.11339">
        <ele>2451.8</ele>
        <time>2024-08-13T14:05:06Z</time>
      </trkpt>
      <trkpt lat="44.84719" lon="6.11338">
        <ele>2451.6</ele>
        <time>2024-08-13T14:05:07Z</time>
      </trkpt>
      <trkpt lat="44.84719" lon="6.11338">
        <ele>2451.2</ele>
        <time>2024-08-13T14:05:08Z</time>
      </trkpt>
      <trkpt lat="44.84719" lon="6.11338">
        <ele>2450.8</ele>
        <time>2024-08-13T14:05:09Z</time>
      </trkpt>
      <trkpt lat="44.84719" lon="6.11338">
        <ele>2450.4</ele>
        <time>2024-08-13T14:05:10Z</time>
      </trkpt>
      <trkpt lat="44.84719" lon="6.11338">
        <ele>2450</ele>
        <time>2024-08-13T14:05:11Z</time>
      </trkpt>
      <trkpt lat="44.84719" lon="6.11338">
        <ele>2449.8</ele>
        <time>2024-08-13T14:05:12Z</time>
      </trkpt>
      <trkpt lat="44.84719" lon="6.11338">
        <ele>2449.8</ele>
        <time>2024-08-13T14:05:13Z</time>
      </trkpt>
      <trkpt lat="44.84719" lon="6.11338">
        <ele>2449.8</ele>
        <time>2024-08-13T14:05:14Z</time>
      </trkpt>
      <trkpt lat="44.84719" lon="6.11338">
        <ele>2449.8</ele>
        <time>2024-08-13T14:05:15Z</time>
      </trkpt>
      <trkpt lat="44.84719" lon="6.11338">
        <ele>2449.8</ele>
        <time>2024-08-13T14:05:16Z</time>
      </trkpt>
      <trkpt lat="44.84719" lon="6.11338">
        <ele>2449.8</ele>
        <time>2024-08-13T14:05:17Z</time>
      </trkpt>
      <trkpt lat="44.84719" lon="6.11338">
        <ele>2449.8</ele>
        <time>2024-08-13T14:05:18Z</time>
      </trkpt>
      <trkpt lat="44.84719" lon="6.11338">
        <ele>2449.8</ele>
        <time>2024-08-13T14:05:19Z</time>
      </trkpt>
      <trkpt lat="44.84719" lon="6.11338">
        <ele>2449.8</ele>
        <time>2024-08-13T14:05:20Z</time>
      </trkpt>
      <trkpt lat="44.84719" lon="6.11338">
        <ele>2449.8</ele>
        <time>2024-08-13T14:05:21Z</time>
      </trkpt>
      <trkpt lat="44.84719" lon="6.11338">
        <ele>2449.6</ele>
        <time>2024-08-13T14:05:22Z</time>
      </trkpt>
      <trkpt lat="44.84721" lon="6.11335">
        <ele>2449.4</ele>
        <time>2024-08-13T14:05:23Z</time>
      </trkpt>
      <trkpt lat="44.84721" lon="6.11335">
        <ele>2449</ele>
        <time>2024-08-13T14:05:24Z</time>
      </trkpt>
      <trkpt lat="44.84723" lon="6.11333">
        <ele>2448.8</ele>
        <time>2024-08-13T14:05:25Z</time>
      </trkpt>
      <trkpt lat="44.84723" lon="6.11333">
        <ele>2448.6</ele>
        <time>2024-08-13T14:05:26Z</time>
      </trkpt>
      <trkpt lat="44.84723" lon="6.11333">
        <ele>2447.8</ele>
        <time>2024-08-13T14:05:27Z</time>
      </trkpt>
      <trkpt lat="44.84725" lon="6.11334">
        <ele>2447.8</ele>
        <time>2024-08-13T14:05:28Z</time>
      </trkpt>
      <trkpt lat="44.84725" lon="6.11334">
        <ele>2447.6</ele>
        <time>2024-08-13T14:05:29Z</time>
      </trkpt>
      <trkpt lat="44.84726" lon="6.11336">
        <ele>2447</ele>
        <time>2024-08-13T14:05:30Z</time>
      </trkpt>
      <trkpt lat="44.84726" lon="6.11336">
        <ele>2446.8</ele>
        <time>2024-08-13T14:05:31Z</time>
      </trkpt>
      <trkpt lat="44.84726" lon="6.11336">
        <ele>2446.6</ele>
        <time>2024-08-13T14:05:32Z</time>
      </trkpt>
      <trkpt lat="44.84728" lon="6.11339">
        <ele>2446.2</ele>
        <time>2024-08-13T14:05:33Z</time>
      </trkpt>
      <trkpt lat="44.84728" lon="6.11339">
        <ele>2446</ele>
        <time>2024-08-13T14:05:34Z</time>
      </trkpt>
      <trkpt lat="44.84728" lon="6.11339">
        <ele>2445.6</ele>
        <time>2024-08-13T14:05:35Z</time>
      </trkpt>
      <trkpt lat="44.8473" lon="6.11341">
        <ele>2445</ele>
        <time>2024-08-13T14:05:36Z</time>
      </trkpt>
      <trkpt lat="44.8473" lon="6.11341">
        <ele>2444.8</ele>
        <time>2024-08-13T14:05:37Z</time>
      </trkpt>
      <trkpt lat="44.84732" lon="6.11342">
        <ele>2444.2</ele>
        <time>2024-08-13T14:05:38Z</time>
      </trkpt>
      <trkpt lat="44.84732" lon="6.11342">
        <ele>2443.8</ele>
        <time>2024-08-13T14:05:39Z</time>
      </trkpt>
      <trkpt lat="44.84732" lon="6.11342">
        <ele>2443.6</ele>
        <time>2024-08-13T14:05:40Z</time>
      </trkpt>
      <trkpt lat="44.84733" lon="6.11345">
        <ele>2443.2</ele>
        <time>2024-08-13T14:05:41Z</time>
      </trkpt>
      <trkpt lat="44.84733" lon="6.11345">
        <ele>2442.8</ele>
        <time>2024-08-13T14:05:42Z</time>
      </trkpt>
      <trkpt lat="44.84735" lon="6.11346">
        <ele>2442.2</ele>
        <time>2024-08-13T14:05:43Z</time>
      </trkpt>
      <trkpt lat="44.84735" lon="6.11346">
        <ele>2442</ele>
        <time>2024-08-13T14:05:44Z</time>
      </trkpt>
      <trkpt lat="44.84735" lon="6.11346">
        <ele>2441.6</ele>
        <time>2024-08-13T14:05:45Z</time>
      </trkpt>
      <trkpt lat="44.84736" lon="6.11349">
        <ele>2441.6</ele>
        <time>2024-08-13T14:05:46Z</time>
      </trkpt>
      <trkpt lat="44.84736" lon="6.11349">
        <ele>2441</ele>
        <time>2024-08-13T14:05:47Z</time>
      </trkpt>
      <trkpt lat="44.84736" lon="6.11349">
        <ele>2440.2</ele>
        <time>2024-08-13T14:05:48Z</time>
      </trkpt>
      <trkpt lat="44.84738" lon="6.11351">
        <ele>2440</ele>
        <time>2024-08-13T14:05:49Z</time>
      </trkpt>
      <trkpt lat="44.84738" lon="6.11351">
        <ele>2439.6</ele>
        <time>2024-08-13T14:05:50Z</time>
      </trkpt>
      <trkpt lat="44.84738" lon="6.11351">
        <ele>2439.2</ele>
        <time>2024-08-13T14:05:51Z</time>
      </trkpt>
      <trkpt lat="44.84739" lon="6.11354">
        <ele>2439.2</ele>
        <time>2024-08-13T14:05:52Z</time>
      </trkpt>
      <trkpt lat="44.84739" lon="6.11354">
        <ele>2438.8</ele>
        <time>2024-08-13T14:05:53Z</time>
      </trkpt>
      <trkpt lat="44.84739" lon="6.11354">
        <ele>2438.4</ele>
        <time>2024-08-13T14:05:54Z</time>
      </trkpt>
      <trkpt lat="44.84739" lon="6.11354">
        <ele>2438</ele>
        <time>2024-08-13T14:05:55Z</time>
      </trkpt>
      <trkpt lat="44.84741" lon="6.11355">
        <ele>2437.6</ele>
        <time>2024-08-13T14:05:56Z</time>
      </trkpt>
      <trkpt lat="44.84741" lon="6.11355">
        <ele>2437.4</ele>
        <time>2024-08-13T14:05:57Z</time>
      </trkpt>
      <trkpt lat="44.84741" lon="6.11355">
        <ele>2437</ele>
        <time>2024-08-13T14:05:58Z</time>
      </trkpt>
      <trkpt lat="44.84743" lon="6.11358">
        <ele>2436.6</ele>
        <time>2024-08-13T14:05:59Z</time>
      </trkpt>
      <trkpt lat="44.84743" lon="6.11358">
        <ele>2436.4</ele>
        <time>2024-08-13T14:06:00Z</time>
      </trkpt>
      <trkpt lat="44.84743" lon="6.11358">
        <ele>2436.2</ele>
        <time>2024-08-13T14:06:01Z</time>
      </trkpt>
      <trkpt lat="44.84744" lon="6.11359">
        <ele>2435.6</ele>
        <time>2024-08-13T14:06:02Z</time>
      </trkpt>
      <trkpt lat="44.84744" lon="6.11359">
        <ele>2435.6</ele>
        <time>2024-08-13T14:06:03Z</time>
      </trkpt>
      <trkpt lat="44.84744" lon="6.11359">
        <ele>2435.2</ele>
        <time>2024-08-13T14:06:04Z</time>
      </trkpt>
      <trkpt lat="44.84746" lon="6.1136">
        <ele>2435.2</ele>
        <time>2024-08-13T14:06:05Z</time>
      </trkpt>
      <trkpt lat="44.84746" lon="6.1136">
        <ele>2434.6</ele>
        <time>2024-08-13T14:06:06Z</time>
      </trkpt>
      <trkpt lat="44.84746" lon="6.1136">
        <ele>2434</ele>
        <time>2024-08-13T14:06:07Z</time>
      </trkpt>
      <trkpt lat="44.84748" lon="6.11362">
        <ele>2433.8</ele>
        <time>2024-08-13T14:06:08Z</time>
      </trkpt>
      <trkpt lat="44.84748" lon="6.11362">
        <ele>2433.8</ele>
        <time>2024-08-13T14:06:09Z</time>
      </trkpt>
      <trkpt lat="44.84748" lon="6.11362">
        <ele>2433.6</ele>
        <time>2024-08-13T14:06:10Z</time>
      </trkpt>
      <trkpt lat="44.8475" lon="6.11362">
        <ele>2433.2</ele>
        <time>2024-08-13T14:06:11Z</time>
      </trkpt>
      <trkpt lat="44.8475" lon="6.11362">
        <ele>2433</ele>
        <time>2024-08-13T14:06:12Z</time>
      </trkpt>
      <trkpt lat="44.8475" lon="6.11362">
        <ele>2432.8</ele>
        <time>2024-08-13T14:06:13Z</time>
      </trkpt>
      <trkpt lat="44.8475" lon="6.11362">
        <ele>2432.6</ele>
        <time>2024-08-13T14:06:14Z</time>
      </trkpt>
      <trkpt lat="44.84752" lon="6.11364">
        <ele>2432.6</ele>
        <time>2024-08-13T14:06:15Z</time>
      </trkpt>
      <trkpt lat="44.84752" lon="6.11364">
        <ele>2432.2</ele>
        <time>2024-08-13T14:06:16Z</time>
      </trkpt>
      <trkpt lat="44.84752" lon="6.11364">
        <ele>2432.2</ele>
        <time>2024-08-13T14:06:17Z</time>
      </trkpt>
      <trkpt lat="44.84754" lon="6.11363">
        <ele>2432</ele>
        <time>2024-08-13T14:06:18Z</time>
      </trkpt>
      <trkpt lat="44.84754" lon="6.11363">
        <ele>2431.8</ele>
        <time>2024-08-13T14:06:19Z</time>
      </trkpt>
      <trkpt lat="44.84754" lon="6.11363">
        <ele>2431.6</ele>
        <time>2024-08-13T14:06:20Z</time>
      </trkpt>
      <trkpt lat="44.84754" lon="6.11363">
        <ele>2431.4</ele>
        <time>2024-08-13T14:06:21Z</time>
      </trkpt>
      <trkpt lat="44.84755" lon="6.1136">
        <ele>2431</ele>
        <time>2024-08-13T14:06:22Z</time>
      </trkpt>
      <trkpt lat="44.84755" lon="6.1136">
        <ele>2430.8</ele>
        <time>2024-08-13T14:06:23Z</time>
      </trkpt>
      <trkpt lat="44.84755" lon="6.1136">
        <ele>2430.4</ele>
        <time>2024-08-13T14:06:24Z</time>
      </trkpt>
      <trkpt lat="44.84756" lon="6.11356">
        <ele>2430.2</ele>
        <time>2024-08-13T14:06:25Z</time>
      </trkpt>
      <trkpt lat="44.84756" lon="6.11356">
        <ele>2430</ele>
        <time>2024-08-13T14:06:26Z</time>
      </trkpt>
      <trkpt lat="44.84756" lon="6.11356">
        <ele>2429.6</ele>
        <time>2024-08-13T14:06:27Z</time>
      </trkpt>
      <trkpt lat="44.84756" lon="6.11356">
        <ele>2429.4</ele>
        <time>2024-08-13T14:06:28Z</time>
      </trkpt>
      <trkpt lat="44.84756" lon="6.11356">
        <ele>2428.6</ele>
        <time>2024-08-13T14:06:29Z</time>
      </trkpt>
      <trkpt lat="44.84758" lon="6.11357">
        <ele>2428.2</ele>
        <time>2024-08-13T14:06:30Z</time>
      </trkpt>
      <trkpt lat="44.84758" lon="6.11357">
        <ele>2428</ele>
        <time>2024-08-13T14:06:31Z</time>
      </trkpt>
      <trkpt lat="44.84758" lon="6.11357">
        <ele>2427.4</ele>
        <time>2024-08-13T14:06:32Z</time>
      </trkpt>
      <trkpt lat="44.8476" lon="6.1136">
        <ele>2427.4</ele>
        <time>2024-08-13T14:06:33Z</time>
      </trkpt>
      <trkpt lat="44.8476" lon="6.1136">
        <ele>2427.2</ele>
        <time>2024-08-13T14:06:34Z</time>
      </trkpt>
      <trkpt lat="44.84761" lon="6.11361">
        <ele>2427.2</ele>
        <time>2024-08-13T14:06:35Z</time>
      </trkpt>
      <trkpt lat="44.84761" lon="6.11361">
        <ele>2427</ele>
        <time>2024-08-13T14:06:36Z</time>
      </trkpt>
      <trkpt lat="44.84761" lon="6.11361">
        <ele>2426.6</ele>
        <time>2024-08-13T14:06:37Z</time>
      </trkpt>
      <trkpt lat="44.84763" lon="6.11364">
        <ele>2426.2</ele>
        <time>2024-08-13T14:06:38Z</time>
      </trkpt>
      <trkpt lat="44.84763" lon="6.11364">
        <ele>2426.2</ele>
        <time>2024-08-13T14:06:39Z</time>
      </trkpt>
      <trkpt lat="44.84763" lon="6.11364">
        <ele>2426.4</ele>
        <time>2024-08-13T14:06:40Z</time>
      </trkpt>
      <trkpt lat="44.84765" lon="6.11366">
        <ele>2426.4</ele>
        <time>2024-08-13T14:06:41Z</time>
      </trkpt>
      <trkpt lat="44.84765" lon="6.11366">
        <ele>2425.8</ele>
        <time>2024-08-13T14:06:42Z</time>
      </trkpt>
      <trkpt lat="44.84765" lon="6.11366">
        <ele>2425</ele>
        <time>2024-08-13T14:06:43Z</time>
      </trkpt>
      <trkpt lat="44.84766" lon="6.11367">
        <ele>2425</ele>
        <time>2024-08-13T14:06:44Z</time>
      </trkpt>
      <trkpt lat="44.84766" lon="6.11367">
        <ele>2425</ele>
        <time>2024-08-13T14:06:45Z</time>
      </trkpt>
      <trkpt lat="44.84766" lon="6.11367">
        <ele>2425</ele>
        <time>2024-08-13T14:06:46Z</time>
      </trkpt>
      <trkpt lat="44.84766" lon="6.11367">
        <ele>2424.6</ele>
        <time>2024-08-13T14:06:47Z</time>
      </trkpt>
      <trkpt lat="44.84767" lon="6.11364">
        <ele>2424.6</ele>
        <time>2024-08-13T14:06:48Z</time>
      </trkpt>
      <trkpt lat="44.84767" lon="6.11364">
        <ele>2424.6</ele>
        <time>2024-08-13T14:06:49Z</time>
      </trkpt>
      <trkpt lat="44.84767" lon="6.11364">
        <ele>2424.8</ele>
        <time>2024-08-13T14:06:50Z</time>
      </trkpt>
      <trkpt lat="44.84768" lon="6.11362">
        <ele>2424.8</ele>
        <time>2024-08-13T14:06:51Z</time>
      </trkpt>
      <trkpt lat="44.84768" lon="6.11362">
        <ele>2423.8</ele>
        <time>2024-08-13T14:06:52Z</time>
      </trkpt>
      <trkpt lat="44.84768" lon="6.11362">
        <ele>2422.6</ele>
        <time>2024-08-13T14:06:53Z</time>
      </trkpt>
      <trkpt lat="44.84769" lon="6.1136">
        <ele>2422.4</ele>
        <time>2024-08-13T14:06:54Z</time>
      </trkpt>
      <trkpt lat="44.84769" lon="6.1136">
        <ele>2422.4</ele>
        <time>2024-08-13T14:06:55Z</time>
      </trkpt>
      <trkpt lat="44.84769" lon="6.1136">
        <ele>2422.2</ele>
        <time>2024-08-13T14:06:56Z</time>
      </trkpt>
      <trkpt lat="44.84769" lon="6.1136">
        <ele>2421.8</ele>
        <time>2024-08-13T14:06:57Z</time>
      </trkpt>
      <trkpt lat="44.8477" lon="6.11357">
        <ele>2421.6</ele>
        <time>2024-08-13T14:06:58Z</time>
      </trkpt>
      <trkpt lat="44.8477" lon="6.11357">
        <ele>2421.2</ele>
        <time>2024-08-13T14:06:59Z</time>
      </trkpt>
      <trkpt lat="44.8477" lon="6.11357">
        <ele>2421</ele>
        <time>2024-08-13T14:07:00Z</time>
      </trkpt>
      <trkpt lat="44.84771" lon="6.11354">
        <ele>2421</ele>
        <time>2024-08-13T14:07:01Z</time>
      </trkpt>
      <trkpt lat="44.84771" lon="6.11354">
        <ele>2420.4</ele>
        <time>2024-08-13T14:07:02Z</time>
      </trkpt>
      <trkpt lat="44.84771" lon="6.11351">
        <ele>2420.4</ele>
        <time>2024-08-13T14:07:03Z</time>
      </trkpt>
      <trkpt lat="44.84771" lon="6.11351">
        <ele>2420.2</ele>
        <time>2024-08-13T14:07:04Z</time>
      </trkpt>
      <trkpt lat="44.84773" lon="6.11348">
        <ele>2419.8</ele>
        <time>2024-08-13T14:07:05Z</time>
      </trkpt>
      <trkpt lat="44.84773" lon="6.11348">
        <ele>2419.6</ele>
        <time>2024-08-13T14:07:06Z</time>
      </trkpt>
      <trkpt lat="44.84774" lon="6.11346">
        <ele>2419.4</ele>
        <time>2024-08-13T14:07:07Z</time>
      </trkpt>
      <trkpt lat="44.84774" lon="6.11346">
        <ele>2419.4</ele>
        <time>2024-08-13T14:07:08Z</time>
      </trkpt>
      <trkpt lat="44.84774" lon="6.11346">
        <ele>2418.8</ele>
        <time>2024-08-13T14:07:09Z</time>
      </trkpt>
      <trkpt lat="44.84774" lon="6.11346">
        <ele>2417.6</ele>
        <time>2024-08-13T14:07:10Z</time>
      </trkpt>
      <trkpt lat="44.84774" lon="6.11346">
        <ele>2416.4</ele>
        <time>2024-08-13T14:07:11Z</time>
      </trkpt>
      <trkpt lat="44.84776" lon="6.11343">
        <ele>2416.4</ele>
        <time>2024-08-13T14:07:12Z</time>
      </trkpt>
      <trkpt lat="44.84776" lon="6.11343">
        <ele>2416.4</ele>
        <time>2024-08-13T14:07:13Z</time>
      </trkpt>
      <trkpt lat="44.84777" lon="6.1134">
        <ele>2416.8</ele>
        <time>2024-08-13T14:07:14Z</time>
      </trkpt>
      <trkpt lat="44.84777" lon="6.1134">
        <ele>2417</ele>
        <time>2024-08-13T14:07:15Z</time>
      </trkpt>
      <trkpt lat="44.84778" lon="6.11338">
        <ele>2417</ele>
        <time>2024-08-13T14:07:16Z</time>
      </trkpt>
      <trkpt lat="44.84778" lon="6.11338">
        <ele>2416.4</ele>
        <time>2024-08-13T14:07:17Z</time>
      </trkpt>
      <trkpt lat="44.84779" lon="6.11335">
        <ele>2416.4</ele>
        <time>2024-08-13T14:07:18Z</time>
      </trkpt>
      <trkpt lat="44.84779" lon="6.11335">
        <ele>2416.2</ele>
        <time>2024-08-13T14:07:19Z</time>
      </trkpt>
      <trkpt lat="44.84781" lon="6.11332">
        <ele>2415.6</ele>
        <time>2024-08-13T14:07:20Z</time>
      </trkpt>
      <trkpt lat="44.84781" lon="6.11332">
        <ele>2415.6</ele>
        <time>2024-08-13T14:07:21Z</time>
      </trkpt>
      <trkpt lat="44.84781" lon="6.1133">
        <ele>2415.2</ele>
        <time>2024-08-13T14:07:22Z</time>
      </trkpt>
      <trkpt lat="44.84781" lon="6.1133">
        <ele>2414.6</ele>
        <time>2024-08-13T14:07:23Z</time>
      </trkpt>
      <trkpt lat="44.84782" lon="6.11327">
        <ele>2414.4</ele>
        <time>2024-08-13T14:07:24Z</time>
      </trkpt>
      <trkpt lat="44.84782" lon="6.11327">
        <ele>2414</ele>
        <time>2024-08-13T14:07:25Z</time>
      </trkpt>
      <trkpt lat="44.84784" lon="6.11325">
        <ele>2413.8</ele>
        <time>2024-08-13T14:07:26Z</time>
      </trkpt>
      <trkpt lat="44.84784" lon="6.11325">
        <ele>2413.4</ele>
        <time>2024-08-13T14:07:27Z</time>
      </trkpt>
      <trkpt lat="44.84785" lon="6.11322">
        <ele>2412.8</ele>
        <time>2024-08-13T14:07:28Z</time>
      </trkpt>
      <trkpt lat="44.84785" lon="6.11322">
        <ele>2412.4</ele>
        <time>2024-08-13T14:07:29Z</time>
      </trkpt>
      <trkpt lat="44.84786" lon="6.1132">
        <ele>2412.4</ele>
        <time>2024-08-13T14:07:30Z</time>
      </trkpt>
      <trkpt lat="44.84786" lon="6.1132">
        <ele>2412.4</ele>
        <time>2024-08-13T14:07:31Z</time>
      </trkpt>
      <trkpt lat="44.84786" lon="6.11317">
        <ele>2412.2</ele>
        <time>2024-08-13T14:07:32Z</time>
      </trkpt>
      <trkpt lat="44.84786" lon="6.11317">
        <ele>2411.2</ele>
        <time>2024-08-13T14:07:33Z</time>
      </trkpt>
      <trkpt lat="44.84786" lon="6.11317">
        <ele>2411</ele>
        <time>2024-08-13T14:07:34Z</time>
      </trkpt>
      <trkpt lat="44.84788" lon="6.11315">
        <ele>2411</ele>
        <time>2024-08-13T14:07:35Z</time>
      </trkpt>
      <trkpt lat="44.84788" lon="6.11315">
        <ele>2410.6</ele>
        <time>2024-08-13T14:07:36Z</time>
      </trkpt>
      <trkpt lat="44.84788" lon="6.11315">
        <ele>2409.8</ele>
        <time>2024-08-13T14:07:37Z</time>
      </trkpt>
      <trkpt lat="44.84789" lon="6.11312">
        <ele>2409.4</ele>
        <time>2024-08-13T14:07:38Z</time>
      </trkpt>
      <trkpt lat="44.84789" lon="6.11312">
        <ele>2409.2</ele>
        <time>2024-08-13T14:07:39Z</time>
      </trkpt>
      <trkpt lat="44.8479" lon="6.1131">
        <ele>2409</ele>
        <time>2024-08-13T14:07:40Z</time>
      </trkpt>
      <trkpt lat="44.8479" lon="6.1131">
        <ele>2408.6</ele>
        <time>2024-08-13T14:07:41Z</time>
      </trkpt>
      <trkpt lat="44.8479" lon="6.1131">
        <ele>2408.2</ele>
        <time>2024-08-13T14:07:42Z</time>
      </trkpt>
      <trkpt lat="44.84792" lon="6.11308">
        <ele>2407.8</ele>
        <time>2024-08-13T14:07:43Z</time>
      </trkpt>
      <trkpt lat="44.84792" lon="6.11308">
        <ele>2407.8</ele>
        <time>2024-08-13T14:07:44Z</time>
      </trkpt>
      <trkpt lat="44.84794" lon="6.11306">
        <ele>2407.2</ele>
        <time>2024-08-13T14:07:45Z</time>
      </trkpt>
      <trkpt lat="44.84794" lon="6.11306">
        <ele>2407</ele>
        <time>2024-08-13T14:07:46Z</time>
      </trkpt>
      <trkpt lat="44.84794" lon="6.11302">
        <ele>2407</ele>
        <time>2024-08-13T14:07:47Z</time>
      </trkpt>
      <trkpt lat="44.84794" lon="6.11302">
        <ele>2406.6</ele>
        <time>2024-08-13T14:07:48Z</time>
      </trkpt>
      <trkpt lat="44.84796" lon="6.113">
        <ele>2406.4</ele>
        <time>2024-08-13T14:07:49Z</time>
      </trkpt>
      <trkpt lat="44.84796" lon="6.113">
        <ele>2406.4</ele>
        <time>2024-08-13T14:07:50Z</time>
      </trkpt>
      <trkpt lat="44.84796" lon="6.113">
        <ele>2405.8</ele>
        <time>2024-08-13T14:07:51Z</time>
      </trkpt>
      <trkpt lat="44.84797" lon="6.11296">
        <ele>2405</ele>
        <time>2024-08-13T14:07:52Z</time>
      </trkpt>
      <trkpt lat="44.84797" lon="6.11296">
        <ele>2404.8</ele>
        <time>2024-08-13T14:07:53Z</time>
      </trkpt>
      <trkpt lat="44.84798" lon="6.11294">
        <ele>2404</ele>
        <time>2024-08-13T14:07:54Z</time>
      </trkpt>
      <trkpt lat="44.84798" lon="6.11294">
        <ele>2403.8</ele>
        <time>2024-08-13T14:07:55Z</time>
      </trkpt>
      <trkpt lat="44.848" lon="6.11295">
        <ele>2403.6</ele>
        <time>2024-08-13T14:07:56Z</time>
      </trkpt>
      <trkpt lat="44.848" lon="6.11295">
        <ele>2402.2</ele>
        <time>2024-08-13T14:07:57Z</time>
      </trkpt>
      <trkpt lat="44.848" lon="6.11295">
        <ele>2400.6</ele>
        <time>2024-08-13T14:07:58Z</time>
      </trkpt>
      <trkpt lat="44.84801" lon="6.11299">
        <ele>2399.8</ele>
        <time>2024-08-13T14:07:59Z</time>
      </trkpt>
      <trkpt lat="44.84801" lon="6.11299">
        <ele>2399.8</ele>
        <time>2024-08-13T14:08:00Z</time>
      </trkpt>
      <trkpt lat="44.84803" lon="6.11301">
        <ele>2399.4</ele>
        <time>2024-08-13T14:08:01Z</time>
      </trkpt>
      <trkpt lat="44.84803" lon="6.11301">
        <ele>2399.4</ele>
        <time>2024-08-13T14:08:02Z</time>
      </trkpt>
      <trkpt lat="44.84804" lon="6.11304">
        <ele>2399.4</ele>
        <time>2024-08-13T14:08:03Z</time>
      </trkpt>
      <trkpt lat="44.84804" lon="6.11304">
        <ele>2399</ele>
        <time>2024-08-13T14:08:04Z</time>
      </trkpt>
      <trkpt lat="44.84806" lon="6.11305">
        <ele>2398.8</ele>
        <time>2024-08-13T14:08:05Z</time>
      </trkpt>
      <trkpt lat="44.84806" lon="6.11305">
        <ele>2398.6</ele>
        <time>2024-08-13T14:08:06Z</time>
      </trkpt>
      <trkpt lat="44.84806" lon="6.11305">
        <ele>2398</ele>
        <time>2024-08-13T14:08:07Z</time>
      </trkpt>
      <trkpt lat="44.84806" lon="6.11305">
        <ele>2398</ele>
        <time>2024-08-13T14:08:08Z</time>
      </trkpt>
      <trkpt lat="44.84806" lon="6.11305">
        <ele>2397.8</ele>
        <time>2024-08-13T14:08:09Z</time>
      </trkpt>
      <trkpt lat="44.84807" lon="6.11303">
        <ele>2397.4</ele>
        <time>2024-08-13T14:08:10Z</time>
      </trkpt>
      <trkpt lat="44.84807" lon="6.11303">
        <ele>2397.4</ele>
        <time>2024-08-13T14:08:11Z</time>
      </trkpt>
      <trkpt lat="44.84808" lon="6.113">
        <ele>2397.6</ele>
        <time>2024-08-13T14:08:12Z</time>
      </trkpt>
      <trkpt lat="44.84808" lon="6.113">
        <ele>2397.6</ele>
        <time>2024-08-13T14:08:13Z</time>
      </trkpt>
      <trkpt lat="44.84808" lon="6.11298">
        <ele>2397.8</ele>
        <time>2024-08-13T14:08:14Z</time>
      </trkpt>
      <trkpt lat="44.84808" lon="6.11298">
        <ele>2397.6</ele>
        <time>2024-08-13T14:08:15Z</time>
      </trkpt>
      <trkpt lat="44.84809" lon="6.11295">
        <ele>2397.6</ele>
        <time>2024-08-13T14:08:16Z</time>
      </trkpt>
      <trkpt lat="44.84809" lon="6.11295">
        <ele>2397.2</ele>
        <time>2024-08-13T14:08:17Z</time>
      </trkpt>
      <trkpt lat="44.8481" lon="6.11293">
        <ele>2397</ele>
        <time>2024-08-13T14:08:18Z</time>
      </trkpt>
      <trkpt lat="44.8481" lon="6.11293">
        <ele>2397</ele>
        <time>2024-08-13T14:08:19Z</time>
      </trkpt>
      <trkpt lat="44.84811" lon="6.1129">
        <ele>2396.6</ele>
        <time>2024-08-13T14:08:20Z</time>
      </trkpt>
      <trkpt lat="44.84811" lon="6.1129">
        <ele>2396.2</ele>
        <time>2024-08-13T14:08:21Z</time>
      </trkpt>
      <trkpt lat="44.84812" lon="6.11287">
        <ele>2395.8</ele>
        <time>2024-08-13T14:08:22Z</time>
      </trkpt>
      <trkpt lat="44.84812" lon="6.11287">
        <ele>2395</ele>
        <time>2024-08-13T14:08:23Z</time>
      </trkpt>
      <trkpt lat="44.84812" lon="6.11287">
        <ele>2394.6</ele>
        <time>2024-08-13T14:08:24Z</time>
      </trkpt>
      <trkpt lat="44.84813" lon="6.11288">
        <ele>2394.4</ele>
        <time>2024-08-13T14:08:25Z</time>
      </trkpt>
      <trkpt lat="44.84813" lon="6.11288">
        <ele>2393.6</ele>
        <time>2024-08-13T14:08:26Z</time>
      </trkpt>
      <trkpt lat="44.84815" lon="6.1129">
        <ele>2393</ele>
        <time>2024-08-13T14:08:27Z</time>
      </trkpt>
      <trkpt lat="44.84815" lon="6.1129">
        <ele>2392.6</ele>
        <time>2024-08-13T14:08:28Z</time>
      </trkpt>
      <trkpt lat="44.84816" lon="6.11292">
        <ele>2392.4</ele>
        <time>2024-08-13T14:08:29Z</time>
      </trkpt>
      <trkpt lat="44.84816" lon="6.11292">
        <ele>2392.2</ele>
        <time>2024-08-13T14:08:30Z</time>
      </trkpt>
      <trkpt lat="44.84817" lon="6.11294">
        <ele>2391.8</ele>
        <time>2024-08-13T14:08:31Z</time>
      </trkpt>
      <trkpt lat="44.84817" lon="6.11294">
        <ele>2391.2</ele>
        <time>2024-08-13T14:08:32Z</time>
      </trkpt>
      <trkpt lat="44.84819" lon="6.11297">
        <ele>2390.8</ele>
        <time>2024-08-13T14:08:33Z</time>
      </trkpt>
      <trkpt lat="44.84819" lon="6.11297">
        <ele>2390.6</ele>
        <time>2024-08-13T14:08:34Z</time>
      </trkpt>
      <trkpt lat="44.8482" lon="6.11299">
        <ele>2390.6</ele>
        <time>2024-08-13T14:08:35Z</time>
      </trkpt>
      <trkpt lat="44.8482" lon="6.11299">
        <ele>2390.4</ele>
        <time>2024-08-13T14:08:36Z</time>
      </trkpt>
      <trkpt lat="44.84821" lon="6.11302">
        <ele>2390.4</ele>
        <time>2024-08-13T14:08:37Z</time>
      </trkpt>
      <trkpt lat="44.84821" lon="6.11302">
        <ele>2389.8</ele>
        <time>2024-08-13T14:08:38Z</time>
      </trkpt>
      <trkpt lat="44.84821" lon="6.11302">
        <ele>2388.4</ele>
        <time>2024-08-13T14:08:39Z</time>
      </trkpt>
      <trkpt lat="44.84822" lon="6.11304">
        <ele>2387.8</ele>
        <time>2024-08-13T14:08:40Z</time>
      </trkpt>
      <trkpt lat="44.84822" lon="6.11304">
        <ele>2387.8</ele>
        <time>2024-08-13T14:08:41Z</time>
      </trkpt>
      <trkpt lat="44.84822" lon="6.11304">
        <ele>2387.8</ele>
        <time>2024-08-13T14:08:42Z</time>
      </trkpt>
      <trkpt lat="44.84824" lon="6.11305">
        <ele>2387.8</ele>
        <time>2024-08-13T14:08:43Z</time>
      </trkpt>
      <trkpt lat="44.84824" lon="6.11305">
        <ele>2386.8</ele>
        <time>2024-08-13T14:08:44Z</time>
      </trkpt>
      <trkpt lat="44.84824" lon="6.11305">
        <ele>2385.8</ele>
        <time>2024-08-13T14:08:45Z</time>
      </trkpt>
      <trkpt lat="44.84825" lon="6.11303">
        <ele>2385.8</ele>
        <time>2024-08-13T14:08:46Z</time>
      </trkpt>
      <trkpt lat="44.84825" lon="6.11303">
        <ele>2387.2</ele>
        <time>2024-08-13T14:08:47Z</time>
      </trkpt>
      <trkpt lat="44.84825" lon="6.11303">
        <ele>2389.2</ele>
        <time>2024-08-13T14:08:48Z</time>
      </trkpt>
      <trkpt lat="44.84826" lon="6.11299">
        <ele>2389.2</ele>
        <time>2024-08-13T14:08:49Z</time>
      </trkpt>
      <trkpt lat="44.84826" lon="6.11299">
        <ele>2388.8</ele>
        <time>2024-08-13T14:08:50Z</time>
      </trkpt>
      <trkpt lat="44.84826" lon="6.11299">
        <ele>2387.6</ele>
        <time>2024-08-13T14:08:51Z</time>
      </trkpt>
      <trkpt lat="44.84828" lon="6.113">
        <ele>2386</ele>
        <time>2024-08-13T14:08:52Z</time>
      </trkpt>
      <trkpt lat="44.84828" lon="6.113">
        <ele>2385</ele>
        <time>2024-08-13T14:08:53Z</time>
      </trkpt>
      <trkpt lat="44.8483" lon="6.11302">
        <ele>2384</ele>
        <time>2024-08-13T14:08:54Z</time>
      </trkpt>
      <trkpt lat="44.8483" lon="6.11302">
        <ele>2384</ele>
        <time>2024-08-13T14:08:55Z</time>
      </trkpt>
      <trkpt lat="44.84831" lon="6.11304">
        <ele>2383.8</ele>
        <time>2024-08-13T14:08:56Z</time>
      </trkpt>
      <trkpt lat="44.84831" lon="6.11304">
        <ele>2383.4</ele>
        <time>2024-08-13T14:08:57Z</time>
      </trkpt>
      <trkpt lat="44.84831" lon="6.11304">
        <ele>2383</ele>
        <time>2024-08-13T14:08:58Z</time>
      </trkpt>
      <trkpt lat="44.84831" lon="6.11304">
        <ele>2382.8</ele>
        <time>2024-08-13T14:08:59Z</time>
      </trkpt>
      <trkpt lat="44.84834" lon="6.11304">
        <ele>2382.6</ele>
        <time>2024-08-13T14:09:00Z</time>
      </trkpt>
      <trkpt lat="44.84834" lon="6.11304">
        <ele>2382.6</ele>
        <time>2024-08-13T14:09:01Z</time>
      </trkpt>
      <trkpt lat="44.84834" lon="6.11301">
        <ele>2383.8</ele>
        <time>2024-08-13T14:09:02Z</time>
      </trkpt>
      <trkpt lat="44.84834" lon="6.11301">
        <ele>2383.8</ele>
        <time>2024-08-13T14:09:03Z</time>
      </trkpt>
      <trkpt lat="44.84834" lon="6.11297">
        <ele>2383.8</ele>
        <time>2024-08-13T14:09:04Z</time>
      </trkpt>
      <trkpt lat="44.84834" lon="6.11297">
        <ele>2383.6</ele>
        <time>2024-08-13T14:09:05Z</time>
      </trkpt>
      <trkpt lat="44.84834" lon="6.11294">
        <ele>2383.4</ele>
        <time>2024-08-13T14:09:06Z</time>
      </trkpt>
      <trkpt lat="44.84834" lon="6.11294">
        <ele>2383</ele>
        <time>2024-08-13T14:09:07Z</time>
      </trkpt>
      <trkpt lat="44.84834" lon="6.11291">
        <ele>2382.8</ele>
        <time>2024-08-13T14:09:08Z</time>
      </trkpt>
      <trkpt lat="44.84834" lon="6.11291">
        <ele>2382.6</ele>
        <time>2024-08-13T14:09:09Z</time>
      </trkpt>
      <trkpt lat="44.84835" lon="6.11288">
        <ele>2382</ele>
        <time>2024-08-13T14:09:10Z</time>
      </trkpt>
      <trkpt lat="44.84835" lon="6.11288">
        <ele>2381.4</ele>
        <time>2024-08-13T14:09:11Z</time>
      </trkpt>
      <trkpt lat="44.84835" lon="6.11285">
        <ele>2381.2</ele>
        <time>2024-08-13T14:09:12Z</time>
      </trkpt>
      <trkpt lat="44.84835" lon="6.11285">
        <ele>2380.8</ele>
        <time>2024-08-13T14:09:13Z</time>
      </trkpt>
      <trkpt lat="44.84836" lon="6.11283">
        <ele>2380.4</ele>
        <time>2024-08-13T14:09:14Z</time>
      </trkpt>
      <trkpt lat="44.84836" lon="6.11283">
        <ele>2380.2</ele>
        <time>2024-08-13T14:09:15Z</time>
      </trkpt>
      <trkpt lat="44.84838" lon="6.11284">
        <ele>2380</ele>
        <time>2024-08-13T14:09:16Z</time>
      </trkpt>
      <trkpt lat="44.84838" lon="6.11284">
        <ele>2378.8</ele>
        <time>2024-08-13T14:09:17Z</time>
      </trkpt>
      <trkpt lat="44.84839" lon="6.11286">
        <ele>2377.8</ele>
        <time>2024-08-13T14:09:18Z</time>
      </trkpt>
      <trkpt lat="44.84839" lon="6.11286">
        <ele>2377.6</ele>
        <time>2024-08-13T14:09:19Z</time>
      </trkpt>
      <trkpt lat="44.84841" lon="6.11289">
        <ele>2377.6</ele>
        <time>2024-08-13T14:09:20Z</time>
      </trkpt>
      <trkpt lat="44.84841" lon="6.11289">
        <ele>2377.6</ele>
        <time>2024-08-13T14:09:21Z</time>
      </trkpt>
      <trkpt lat="44.84842" lon="6.11291">
        <ele>2377.2</ele>
        <time>2024-08-13T14:09:22Z</time>
      </trkpt>
      <trkpt lat="44.84842" lon="6.11291">
        <ele>2376.8</ele>
        <time>2024-08-13T14:09:23Z</time>
      </trkpt>
      <trkpt lat="44.84843" lon="6.11293">
        <ele>2376.6</ele>
        <time>2024-08-13T14:09:24Z</time>
      </trkpt>
      <trkpt lat="44.84843" lon="6.11293">
        <ele>2376</ele>
        <time>2024-08-13T14:09:25Z</time>
      </trkpt>
      <trkpt lat="44.84845" lon="6.11295">
        <ele>2375.4</ele>
        <time>2024-08-13T14:09:26Z</time>
      </trkpt>
      <trkpt lat="44.84845" lon="6.11295">
        <ele>2375.2</ele>
        <time>2024-08-13T14:09:27Z</time>
      </trkpt>
      <trkpt lat="44.84846" lon="6.11297">
        <ele>2375</ele>
        <time>2024-08-13T14:09:28Z</time>
      </trkpt>
      <trkpt lat="44.84846" lon="6.11297">
        <ele>2374.8</ele>
        <time>2024-08-13T14:09:29Z</time>
      </trkpt>
      <trkpt lat="44.84848" lon="6.11298">
        <ele>2373.6</ele>
        <time>2024-08-13T14:09:30Z</time>
      </trkpt>
      <trkpt lat="44.84848" lon="6.11298">
        <ele>2373.4</ele>
        <time>2024-08-13T14:09:31Z</time>
      </trkpt>
      <trkpt lat="44.84848" lon="6.11298">
        <ele>2373</ele>
        <time>2024-08-13T14:09:32Z</time>
      </trkpt>
      <trkpt lat="44.84848" lon="6.11298">
        <ele>2372.4</ele>
        <time>2024-08-13T14:09:33Z</time>
      </trkpt>
      <trkpt lat="44.84848" lon="6.11298">
        <ele>2372</ele>
        <time>2024-08-13T14:09:34Z</time>
      </trkpt>
      <trkpt lat="44.84849" lon="6.11295">
        <ele>2372</ele>
        <time>2024-08-13T14:09:35Z</time>
      </trkpt>
      <trkpt lat="44.84849" lon="6.11295">
        <ele>2372.8</ele>
        <time>2024-08-13T14:09:36Z</time>
      </trkpt>
      <trkpt lat="44.84849" lon="6.11292">
        <ele>2373.6</ele>
        <time>2024-08-13T14:09:37Z</time>
      </trkpt>
      <trkpt lat="44.84849" lon="6.11292">
        <ele>2373.6</ele>
        <time>2024-08-13T14:09:38Z</time>
      </trkpt>
      <trkpt lat="44.84849" lon="6.11289">
        <ele>2373.6</ele>
        <time>2024-08-13T14:09:39Z</time>
      </trkpt>
      <trkpt lat="44.84849" lon="6.11289">
        <ele>2373.2</ele>
        <time>2024-08-13T14:09:40Z</time>
      </trkpt>
      <trkpt lat="44.8485" lon="6.11286">
        <ele>2372.8</ele>
        <time>2024-08-13T14:09:41Z</time>
      </trkpt>
      <trkpt lat="44.8485" lon="6.11286">
        <ele>2372.6</ele>
        <time>2024-08-13T14:09:42Z</time>
      </trkpt>
      <trkpt lat="44.8485" lon="6.11286">
        <ele>2372.4</ele>
        <time>2024-08-13T14:09:43Z</time>
      </trkpt>
      <trkpt lat="44.8485" lon="6.11286">
        <ele>2372.2</ele>
        <time>2024-08-13T14:09:44Z</time>
      </trkpt>
      <trkpt lat="44.8485" lon="6.11286">
        <ele>2372.2</ele>
        <time>2024-08-13T14:09:45Z</time>
      </trkpt>
      <trkpt lat="44.8485" lon="6.11286">
        <ele>2372</ele>
        <time>2024-08-13T14:09:46Z</time>
      </trkpt>
      <trkpt lat="44.8485" lon="6.11286">
        <ele>2372.4</ele>
        <time>2024-08-13T14:09:47Z</time>
      </trkpt>
      <trkpt lat="44.8485" lon="6.11286">
        <ele>2372.2</ele>
        <time>2024-08-13T14:09:48Z</time>
      </trkpt>
      <trkpt lat="44.8485" lon="6.11286">
        <ele>2372</ele>
        <time>2024-08-13T14:09:49Z</time>
      </trkpt>
      <trkpt lat="44.8485" lon="6.11286">
        <ele>2371.8</ele>
        <time>2024-08-13T14:09:50Z</time>
      </trkpt>
      <trkpt lat="44.8485" lon="6.11286">
        <ele>2371.6</ele>
        <time>2024-08-13T14:09:51Z</time>
      </trkpt>
      <trkpt lat="44.8485" lon="6.11286">
        <ele>2371.6</ele>
        <time>2024-08-13T14:09:52Z</time>
      </trkpt>
      <trkpt lat="44.8485" lon="6.11286">
        <ele>2372</ele>
        <time>2024-08-13T14:09:53Z</time>
      </trkpt>
      <trkpt lat="44.8485" lon="6.11286">
        <ele>2372</ele>
        <time>2024-08-13T14:09:54Z</time>
      </trkpt>
      <trkpt lat="44.8485" lon="6.11283">
        <ele>2372</ele>
        <time>2024-08-13T14:09:55Z</time>
      </trkpt>
      <trkpt lat="44.8485" lon="6.11283">
        <ele>2371.8</ele>
        <time>2024-08-13T14:09:56Z</time>
      </trkpt>
      <trkpt lat="44.8485" lon="6.11283">
        <ele>2371.2</ele>
        <time>2024-08-13T14:09:57Z</time>
      </trkpt>
      <trkpt lat="44.84852" lon="6.11281">
        <ele>2370.4</ele>
        <time>2024-08-13T14:09:58Z</time>
      </trkpt>
      <trkpt lat="44.84852" lon="6.11281">
        <ele>2369.6</ele>
        <time>2024-08-13T14:09:59Z</time>
      </trkpt>
      <trkpt lat="44.84853" lon="6.11283">
        <ele>2369.2</ele>
        <time>2024-08-13T14:10:00Z</time>
      </trkpt>
      <trkpt lat="44.84853" lon="6.11283">
        <ele>2368.8</ele>
        <time>2024-08-13T14:10:01Z</time>
      </trkpt>
      <trkpt lat="44.84854" lon="6.11285">
        <ele>2368.2</ele>
        <time>2024-08-13T14:10:02Z</time>
      </trkpt>
      <trkpt lat="44.84854" lon="6.11285">
        <ele>2368</ele>
        <time>2024-08-13T14:10:03Z</time>
      </trkpt>
      <trkpt lat="44.84856" lon="6.11288">
        <ele>2367.4</ele>
        <time>2024-08-13T14:10:04Z</time>
      </trkpt>
      <trkpt lat="44.84856" lon="6.11288">
        <ele>2367.4</ele>
        <time>2024-08-13T14:10:05Z</time>
      </trkpt>
      <trkpt lat="44.84858" lon="6.1129">
        <ele>2367.2</ele>
        <time>2024-08-13T14:10:06Z</time>
      </trkpt>
      <trkpt lat="44.84858" lon="6.1129">
        <ele>2366.8</ele>
        <time>2024-08-13T14:10:07Z</time>
      </trkpt>
      <trkpt lat="44.8486" lon="6.11291">
        <ele>2366.6</ele>
        <time>2024-08-13T14:10:08Z</time>
      </trkpt>
      <trkpt lat="44.8486" lon="6.11291">
        <ele>2366.6</ele>
        <time>2024-08-13T14:10:09Z</time>
      </trkpt>
      <trkpt lat="44.8486" lon="6.11291">
        <ele>2366.4</ele>
        <time>2024-08-13T14:10:10Z</time>
      </trkpt>
      <trkpt lat="44.84861" lon="6.1129">
        <ele>2366</ele>
        <time>2024-08-13T14:10:11Z</time>
      </trkpt>
      <trkpt lat="44.84861" lon="6.1129">
        <ele>2365.4</ele>
        <time>2024-08-13T14:10:12Z</time>
      </trkpt>
      <trkpt lat="44.84862" lon="6.11287">
        <ele>2365.2</ele>
        <time>2024-08-13T14:10:13Z</time>
      </trkpt>
      <trkpt lat="44.84862" lon="6.11287">
        <ele>2365</ele>
        <time>2024-08-13T14:10:14Z</time>
      </trkpt>
      <trkpt lat="44.84862" lon="6.11284">
        <ele>2364.8</ele>
        <time>2024-08-13T14:10:15Z</time>
      </trkpt>
      <trkpt lat="44.84862" lon="6.11284">
        <ele>2364.8</ele>
        <time>2024-08-13T14:10:16Z</time>
      </trkpt>
      <trkpt lat="44.84862" lon="6.11281">
        <ele>2364.6</ele>
        <time>2024-08-13T14:10:17Z</time>
      </trkpt>
      <trkpt lat="44.84862" lon="6.11281">
        <ele>2364.4</ele>
        <time>2024-08-13T14:10:18Z</time>
      </trkpt>
      <trkpt lat="44.84862" lon="6.11278">
        <ele>2364.2</ele>
        <time>2024-08-13T14:10:19Z</time>
      </trkpt>
      <trkpt lat="44.84862" lon="6.11278">
        <ele>2363.8</ele>
        <time>2024-08-13T14:10:20Z</time>
      </trkpt>
      <trkpt lat="44.84862" lon="6.11278">
        <ele>2363.2</ele>
        <time>2024-08-13T14:10:21Z</time>
      </trkpt>
      <trkpt lat="44.84865" lon="6.11278">
        <ele>2362.6</ele>
        <time>2024-08-13T14:10:22Z</time>
      </trkpt>
      <trkpt lat="44.84865" lon="6.11278">
        <ele>2362.2</ele>
        <time>2024-08-13T14:10:23Z</time>
      </trkpt>
      <trkpt lat="44.84866" lon="6.1128">
        <ele>2361.6</ele>
        <time>2024-08-13T14:10:24Z</time>
      </trkpt>
      <trkpt lat="44.84866" lon="6.1128">
        <ele>2361.2</ele>
        <time>2024-08-13T14:10:25Z</time>
      </trkpt>
      <trkpt lat="44.84868" lon="6.11283">
        <ele>2360.8</ele>
        <time>2024-08-13T14:10:26Z</time>
      </trkpt>
      <trkpt lat="44.84868" lon="6.11283">
        <ele>2360.8</ele>
        <time>2024-08-13T14:10:27Z</time>
      </trkpt>
      <trkpt lat="44.84869" lon="6.11285">
        <ele>2360.8</ele>
        <time>2024-08-13T14:10:28Z</time>
      </trkpt>
      <trkpt lat="44.84869" lon="6.11285">
        <ele>2360.2</ele>
        <time>2024-08-13T14:10:29Z</time>
      </trkpt>
      <trkpt lat="44.84871" lon="6.11287">
        <ele>2359.6</ele>
        <time>2024-08-13T14:10:30Z</time>
      </trkpt>
      <trkpt lat="44.84871" lon="6.11287">
        <ele>2359.2</ele>
        <time>2024-08-13T14:10:31Z</time>
      </trkpt>
      <trkpt lat="44.84872" lon="6.1129">
        <ele>2358.8</ele>
        <time>2024-08-13T14:10:32Z</time>
      </trkpt>
      <trkpt lat="44.84872" lon="6.1129">
        <ele>2358.2</ele>
        <time>2024-08-13T14:10:33Z</time>
      </trkpt>
      <trkpt lat="44.84874" lon="6.11292">
        <ele>2358</ele>
        <time>2024-08-13T14:10:34Z</time>
      </trkpt>
      <trkpt lat="44.84874" lon="6.11292">
        <ele>2357.6</ele>
        <time>2024-08-13T14:10:35Z</time>
      </trkpt>
      <trkpt lat="44.84874" lon="6.11292">
        <ele>2357.6</ele>
        <time>2024-08-13T14:10:36Z</time>
      </trkpt>
      <trkpt lat="44.84876" lon="6.11291">
        <ele>2357.4</ele>
        <time>2024-08-13T14:10:37Z</time>
      </trkpt>
      <trkpt lat="44.84876" lon="6.11291">
        <ele>2357.4</ele>
        <time>2024-08-13T14:10:38Z</time>
      </trkpt>
      <trkpt lat="44.84876" lon="6.11287">
        <ele>2357.6</ele>
        <time>2024-08-13T14:10:39Z</time>
      </trkpt>
      <trkpt lat="44.84876" lon="6.11287">
        <ele>2357.6</ele>
        <time>2024-08-13T14:10:40Z</time>
      </trkpt>
      <trkpt lat="44.84875" lon="6.11284">
        <ele>2357.6</ele>
        <time>2024-08-13T14:10:41Z</time>
      </trkpt>
      <trkpt lat="44.84875" lon="6.11284">
        <ele>2357.6</ele>
        <time>2024-08-13T14:10:42Z</time>
      </trkpt>
      <trkpt lat="44.84875" lon="6.11281">
        <ele>2357.4</ele>
        <time>2024-08-13T14:10:43Z</time>
      </trkpt>
      <trkpt lat="44.84875" lon="6.11281">
        <ele>2356.8</ele>
        <time>2024-08-13T14:10:44Z</time>
      </trkpt>
      <trkpt lat="44.84875" lon="6.11278">
        <ele>2356.2</ele>
        <time>2024-08-13T14:10:45Z</time>
      </trkpt>
      <trkpt lat="44.84875" lon="6.11278">
        <ele>2355.8</ele>
        <time>2024-08-13T14:10:46Z</time>
      </trkpt>
      <trkpt lat="44.84876" lon="6.11275">
        <ele>2355.6</ele>
        <time>2024-08-13T14:10:47Z</time>
      </trkpt>
      <trkpt lat="44.84876" lon="6.11275">
        <ele>2355.6</ele>
        <time>2024-08-13T14:10:48Z</time>
      </trkpt>
      <trkpt lat="44.84876" lon="6.11272">
        <ele>2355.4</ele>
        <time>2024-08-13T14:10:49Z</time>
      </trkpt>
      <trkpt lat="44.84876" lon="6.11272">
        <ele>2355</ele>
        <time>2024-08-13T14:10:50Z</time>
      </trkpt>
      <trkpt lat="44.84877" lon="6.11269">
        <ele>2355</ele>
        <time>2024-08-13T14:10:51Z</time>
      </trkpt>
      <trkpt lat="44.84877" lon="6.11269">
        <ele>2354.6</ele>
        <time>2024-08-13T14:10:52Z</time>
      </trkpt>
      <trkpt lat="44.84877" lon="6.11267">
        <ele>2353.8</ele>
        <time>2024-08-13T14:10:53Z</time>
      </trkpt>
      <trkpt lat="44.84877" lon="6.11267">
        <ele>2353.6</ele>
        <time>2024-08-13T14:10:54Z</time>
      </trkpt>
      <trkpt lat="44.84877" lon="6.11267">
        <ele>2353.2</ele>
        <time>2024-08-13T14:10:55Z</time>
      </trkpt>
      <trkpt lat="44.84877" lon="6.11264">
        <ele>2352.8</ele>
        <time>2024-08-13T14:10:56Z</time>
      </trkpt>
      <trkpt lat="44.84877" lon="6.11264">
        <ele>2352.6</ele>
        <time>2024-08-13T14:10:57Z</time>
      </trkpt>
      <trkpt lat="44.84877" lon="6.11264">
        <ele>2352.6</ele>
        <time>2024-08-13T14:10:58Z</time>
      </trkpt>
      <trkpt lat="44.84877" lon="6.11264">
        <ele>2352.2</ele>
        <time>2024-08-13T14:10:59Z</time>
      </trkpt>
      <trkpt lat="44.84877" lon="6.11264">
        <ele>2351.8</ele>
        <time>2024-08-13T14:11:00Z</time>
      </trkpt>
      <trkpt lat="44.84877" lon="6.11264">
        <ele>2351.8</ele>
        <time>2024-08-13T14:11:01Z</time>
      </trkpt>
      <trkpt lat="44.84877" lon="6.11264">
        <ele>2352</ele>
        <time>2024-08-13T14:11:02Z</time>
      </trkpt>
      <trkpt lat="44.84877" lon="6.11264">
        <ele>2351.8</ele>
        <time>2024-08-13T14:11:03Z</time>
      </trkpt>
      <trkpt lat="44.84877" lon="6.11264">
        <ele>2351.8</ele>
        <time>2024-08-13T14:11:04Z</time>
      </trkpt>
      <trkpt lat="44.84877" lon="6.11264">
        <ele>2352</ele>
        <time>2024-08-13T14:11:05Z</time>
      </trkpt>
      <trkpt lat="44.84877" lon="6.11264">
        <ele>2352</ele>
        <time>2024-08-13T14:11:06Z</time>
      </trkpt>
      <trkpt lat="44.84877" lon="6.11264">
        <ele>2351.8</ele>
        <time>2024-08-13T14:11:07Z</time>
      </trkpt>
      <trkpt lat="44.84877" lon="6.11264">
        <ele>2351.6</ele>
        <time>2024-08-13T14:11:08Z</time>
      </trkpt>
      <trkpt lat="44.8488" lon="6.11266">
        <ele>2351.2</ele>
        <time>2024-08-13T14:11:09Z</time>
      </trkpt>
      <trkpt lat="44.8488" lon="6.11266">
        <ele>2350.8</ele>
        <time>2024-08-13T14:11:10Z</time>
      </trkpt>
      <trkpt lat="44.84881" lon="6.11269">
        <ele>2350.6</ele>
        <time>2024-08-13T14:11:11Z</time>
      </trkpt>
      <trkpt lat="44.84881" lon="6.11269">
        <ele>2350.2</ele>
        <time>2024-08-13T14:11:12Z</time>
      </trkpt>
      <trkpt lat="44.84883" lon="6.11272">
        <ele>2350.2</ele>
        <time>2024-08-13T14:11:13Z</time>
      </trkpt>
      <trkpt lat="44.84883" lon="6.11272">
        <ele>2350.2</ele>
        <time>2024-08-13T14:11:14Z</time>
      </trkpt>
      <trkpt lat="44.84885" lon="6.11273">
        <ele>2350</ele>
        <time>2024-08-13T14:11:15Z</time>
      </trkpt>
      <trkpt lat="44.84885" lon="6.11273">
        <ele>2349.4</ele>
        <time>2024-08-13T14:11:16Z</time>
      </trkpt>
      <trkpt lat="44.84886" lon="6.11271">
        <ele>2349.2</ele>
        <time>2024-08-13T14:11:17Z</time>
      </trkpt>
      <trkpt lat="44.84886" lon="6.11271">
        <ele>2349</ele>
        <time>2024-08-13T14:11:18Z</time>
      </trkpt>
      <trkpt lat="44.84886" lon="6.11268">
        <ele>2348.4</ele>
        <time>2024-08-13T14:11:19Z</time>
      </trkpt>
      <trkpt lat="44.84886" lon="6.11268">
        <ele>2348.4</ele>
        <time>2024-08-13T14:11:20Z</time>
      </trkpt>
      <trkpt lat="44.84886" lon="6.11265">
        <ele>2348.2</ele>
        <time>2024-08-13T14:11:21Z</time>
      </trkpt>
      <trkpt lat="44.84886" lon="6.11265">
        <ele>2347.8</ele>
        <time>2024-08-13T14:11:22Z</time>
      </trkpt>
      <trkpt lat="44.84886" lon="6.11263">
        <ele>2347.8</ele>
        <time>2024-08-13T14:11:23Z</time>
      </trkpt>
      <trkpt lat="44.84886" lon="6.11263">
        <ele>2347.4</ele>
        <time>2024-08-13T14:11:24Z</time>
      </trkpt>
      <trkpt lat="44.84887" lon="6.1126">
        <ele>2347.2</ele>
        <time>2024-08-13T14:11:25Z</time>
      </trkpt>
      <trkpt lat="44.84887" lon="6.1126">
        <ele>2347.2</ele>
        <time>2024-08-13T14:11:26Z</time>
      </trkpt>
      <trkpt lat="44.84887" lon="6.1126">
        <ele>2346.8</ele>
        <time>2024-08-13T14:11:27Z</time>
      </trkpt>
      <trkpt lat="44.84888" lon="6.11256">
        <ele>2346.6</ele>
        <time>2024-08-13T14:11:28Z</time>
      </trkpt>
      <trkpt lat="44.84888" lon="6.11256">
        <ele>2346.4</ele>
        <time>2024-08-13T14:11:29Z</time>
      </trkpt>
      <trkpt lat="44.84888" lon="6.11253">
        <ele>2346.4</ele>
        <time>2024-08-13T14:11:30Z</time>
      </trkpt>
      <trkpt lat="44.84888" lon="6.11253">
        <ele>2346.2</ele>
        <time>2024-08-13T14:11:31Z</time>
      </trkpt>
      <trkpt lat="44.84888" lon="6.11253">
        <ele>2346</ele>
        <time>2024-08-13T14:11:32Z</time>
      </trkpt>
      <trkpt lat="44.8489" lon="6.11253">
        <ele>2345.8</ele>
        <time>2024-08-13T14:11:33Z</time>
      </trkpt>
      <trkpt lat="44.8489" lon="6.11253">
        <ele>2345</ele>
        <time>2024-08-13T14:11:34Z</time>
      </trkpt>
      <trkpt lat="44.84892" lon="6.11255">
        <ele>2344.2</ele>
        <time>2024-08-13T14:11:35Z</time>
      </trkpt>
      <trkpt lat="44.84892" lon="6.11255">
        <ele>2343</ele>
        <time>2024-08-13T14:11:36Z</time>
      </trkpt>
      <trkpt lat="44.84894" lon="6.11257">
        <ele>2342.6</ele>
        <time>2024-08-13T14:11:37Z</time>
      </trkpt>
      <trkpt lat="44.84894" lon="6.11257">
        <ele>2342.6</ele>
        <time>2024-08-13T14:11:38Z</time>
      </trkpt>
      <trkpt lat="44.84896" lon="6.11259">
        <ele>2342.2</ele>
        <time>2024-08-13T14:11:39Z</time>
      </trkpt>
      <trkpt lat="44.84896" lon="6.11259">
        <ele>2342.2</ele>
        <time>2024-08-13T14:11:40Z</time>
      </trkpt>
      <trkpt lat="44.84896" lon="6.11259">
        <ele>2341.6</ele>
        <time>2024-08-13T14:11:41Z</time>
      </trkpt>
      <trkpt lat="44.84898" lon="6.11261">
        <ele>2341.4</ele>
        <time>2024-08-13T14:11:42Z</time>
      </trkpt>
      <trkpt lat="44.84898" lon="6.11261">
        <ele>2341.4</ele>
        <time>2024-08-13T14:11:43Z</time>
      </trkpt>
      <trkpt lat="44.84898" lon="6.11261">
        <ele>2341.4</ele>
        <time>2024-08-13T14:11:44Z</time>
      </trkpt>
      <trkpt lat="44.84899" lon="6.11259">
        <ele>2341</ele>
        <time>2024-08-13T14:11:45Z</time>
      </trkpt>
      <trkpt lat="44.84899" lon="6.11259">
        <ele>2340.6</ele>
        <time>2024-08-13T14:11:46Z</time>
      </trkpt>
      <trkpt lat="44.84899" lon="6.11256">
        <ele>2340.2</ele>
        <time>2024-08-13T14:11:47Z</time>
      </trkpt>
      <trkpt lat="44.84899" lon="6.11256">
        <ele>2340.2</ele>
        <time>2024-08-13T14:11:48Z</time>
      </trkpt>
      <trkpt lat="44.84899" lon="6.11256">
        <ele>2340.2</ele>
        <time>2024-08-13T14:11:49Z</time>
      </trkpt>
      <trkpt lat="44.84899" lon="6.11252">
        <ele>2339.6</ele>
        <time>2024-08-13T14:11:50Z</time>
      </trkpt>
      <trkpt lat="44.84899" lon="6.11252">
        <ele>2339.4</ele>
        <time>2024-08-13T14:11:51Z</time>
      </trkpt>
      <trkpt lat="44.84899" lon="6.11252">
        <ele>2339.4</ele>
        <time>2024-08-13T14:11:52Z</time>
      </trkpt>
      <trkpt lat="44.84899" lon="6.11249">
        <ele>2339.2</ele>
        <time>2024-08-13T14:11:53Z</time>
      </trkpt>
      <trkpt lat="44.84899" lon="6.11249">
        <ele>2338.8</ele>
        <time>2024-08-13T14:11:54Z</time>
      </trkpt>
      <trkpt lat="44.849" lon="6.11246">
        <ele>2338.8</ele>
        <time>2024-08-13T14:11:55Z</time>
      </trkpt>
      <trkpt lat="44.849" lon="6.11246">
        <ele>2338.8</ele>
        <time>2024-08-13T14:11:56Z</time>
      </trkpt>
      <trkpt lat="44.84901" lon="6.11244">
        <ele>2338.6</ele>
        <time>2024-08-13T14:11:57Z</time>
      </trkpt>
      <trkpt lat="44.84901" lon="6.11244">
        <ele>2338.2</ele>
        <time>2024-08-13T14:11:58Z</time>
      </trkpt>
      <trkpt lat="44.84903" lon="6.11245">
        <ele>2337.2</ele>
        <time>2024-08-13T14:11:59Z</time>
      </trkpt>
      <trkpt lat="44.84903" lon="6.11245">
        <ele>2336.4</ele>
        <time>2024-08-13T14:12:00Z</time>
      </trkpt>
      <trkpt lat="44.84903" lon="6.11245">
        <ele>2336.4</ele>
        <time>2024-08-13T14:12:01Z</time>
      </trkpt>
      <trkpt lat="44.84904" lon="6.11247">
        <ele>2336.6</ele>
        <time>2024-08-13T14:12:02Z</time>
      </trkpt>
      <trkpt lat="44.84904" lon="6.11247">
        <ele>2336.6</ele>
        <time>2024-08-13T14:12:03Z</time>
      </trkpt>
      <trkpt lat="44.84904" lon="6.11247">
        <ele>2336.2</ele>
        <time>2024-08-13T14:12:04Z</time>
      </trkpt>
      <trkpt lat="44.84907" lon="6.11248">
        <ele>2336</ele>
        <time>2024-08-13T14:12:05Z</time>
      </trkpt>
      <trkpt lat="44.84907" lon="6.11248">
        <ele>2336</ele>
        <time>2024-08-13T14:12:06Z</time>
      </trkpt>
      <trkpt lat="44.84908" lon="6.1125">
        <ele>2335.4</ele>
        <time>2024-08-13T14:12:07Z</time>
      </trkpt>
      <trkpt lat="44.84908" lon="6.1125">
        <ele>2335</ele>
        <time>2024-08-13T14:12:08Z</time>
      </trkpt>
      <trkpt lat="44.84908" lon="6.1125">
        <ele>2334.8</ele>
        <time>2024-08-13T14:12:09Z</time>
      </trkpt>
      <trkpt lat="44.8491" lon="6.11253">
        <ele>2334.8</ele>
        <time>2024-08-13T14:12:10Z</time>
      </trkpt>
      <trkpt lat="44.8491" lon="6.11253">
        <ele>2334.4</ele>
        <time>2024-08-13T14:12:11Z</time>
      </trkpt>
      <trkpt lat="44.8491" lon="6.11253">
        <ele>2334</ele>
        <time>2024-08-13T14:12:12Z</time>
      </trkpt>
      <trkpt lat="44.84911" lon="6.11249">
        <ele>2333.6</ele>
        <time>2024-08-13T14:12:13Z</time>
      </trkpt>
      <trkpt lat="44.84911" lon="6.11249">
        <ele>2333.6</ele>
        <time>2024-08-13T14:12:14Z</time>
      </trkpt>
      <trkpt lat="44.84911" lon="6.11246">
        <ele>2333.4</ele>
        <time>2024-08-13T14:12:15Z</time>
      </trkpt>
      <trkpt lat="44.84911" lon="6.11246">
        <ele>2333.4</ele>
        <time>2024-08-13T14:12:16Z</time>
      </trkpt>
      <trkpt lat="44.84911" lon="6.11243">
        <ele>2333.2</ele>
        <time>2024-08-13T14:12:17Z</time>
      </trkpt>
      <trkpt lat="44.84911" lon="6.11243">
        <ele>2333</ele>
        <time>2024-08-13T14:12:18Z</time>
      </trkpt>
      <trkpt lat="44.84911" lon="6.1124">
        <ele>2332.6</ele>
        <time>2024-08-13T14:12:19Z</time>
      </trkpt>
      <trkpt lat="44.84911" lon="6.1124">
        <ele>2332</ele>
        <time>2024-08-13T14:12:20Z</time>
      </trkpt>
      <trkpt lat="44.84911" lon="6.1124">
        <ele>2332</ele>
        <time>2024-08-13T14:12:21Z</time>
      </trkpt>
      <trkpt lat="44.84912" lon="6.11237">
        <ele>2332.2</ele>
        <time>2024-08-13T14:12:22Z</time>
      </trkpt>
      <trkpt lat="44.84912" lon="6.11237">
        <ele>2332.2</ele>
        <time>2024-08-13T14:12:23Z</time>
      </trkpt>
      <trkpt lat="44.84912" lon="6.11237">
        <ele>2331.4</ele>
        <time>2024-08-13T14:12:24Z</time>
      </trkpt>
      <trkpt lat="44.84911" lon="6.11233">
        <ele>2331</ele>
        <time>2024-08-13T14:12:25Z</time>
      </trkpt>
      <trkpt lat="44.84911" lon="6.11233">
        <ele>2330.6</ele>
        <time>2024-08-13T14:12:26Z</time>
      </trkpt>
      <trkpt lat="44.8491" lon="6.11231">
        <ele>2330.4</ele>
        <time>2024-08-13T14:12:27Z</time>
      </trkpt>
      <trkpt lat="44.8491" lon="6.11231">
        <ele>2330</ele>
        <time>2024-08-13T14:12:28Z</time>
      </trkpt>
      <trkpt lat="44.8491" lon="6.11231">
        <ele>2329.8</ele>
        <time>2024-08-13T14:12:29Z</time>
      </trkpt>
      <trkpt lat="44.84912" lon="6.11229">
        <ele>2329.8</ele>
        <time>2024-08-13T14:12:30Z</time>
      </trkpt>
      <trkpt lat="44.84912" lon="6.11229">
        <ele>2328.6</ele>
        <time>2024-08-13T14:12:31Z</time>
      </trkpt>
      <trkpt lat="44.84914" lon="6.1123">
        <ele>2328</ele>
        <time>2024-08-13T14:12:32Z</time>
      </trkpt>
      <trkpt lat="44.84914" lon="6.1123">
        <ele>2327.8</ele>
        <time>2024-08-13T14:12:33Z</time>
      </trkpt>
      <trkpt lat="44.84916" lon="6.11231">
        <ele>2327.2</ele>
        <time>2024-08-13T14:12:34Z</time>
      </trkpt>
      <trkpt lat="44.84916" lon="6.11231">
        <ele>2327</ele>
        <time>2024-08-13T14:12:35Z</time>
      </trkpt>
      <trkpt lat="44.84918" lon="6.11232">
        <ele>2327</ele>
        <time>2024-08-13T14:12:36Z</time>
      </trkpt>
      <trkpt lat="44.84918" lon="6.11232">
        <ele>2326.8</ele>
        <time>2024-08-13T14:12:37Z</time>
      </trkpt>
      <trkpt lat="44.84918" lon="6.11232">
        <ele>2326.8</ele>
        <time>2024-08-13T14:12:38Z</time>
      </trkpt>
      <trkpt lat="44.8492" lon="6.11232">
        <ele>2325.6</ele>
        <time>2024-08-13T14:12:39Z</time>
      </trkpt>
      <trkpt lat="44.8492" lon="6.11232">
        <ele>2325.6</ele>
        <time>2024-08-13T14:12:40Z</time>
      </trkpt>
      <trkpt lat="44.8492" lon="6.11232">
        <ele>2326.4</ele>
        <time>2024-08-13T14:12:41Z</time>
      </trkpt>
      <trkpt lat="44.84922" lon="6.11233">
        <ele>2326.4</ele>
        <time>2024-08-13T14:12:42Z</time>
      </trkpt>
      <trkpt lat="44.84922" lon="6.11233">
        <ele>2325.6</ele>
        <time>2024-08-13T14:12:43Z</time>
      </trkpt>
      <trkpt lat="44.84922" lon="6.11233">
        <ele>2324.8</ele>
        <time>2024-08-13T14:12:44Z</time>
      </trkpt>
      <trkpt lat="44.84922" lon="6.11233">
        <ele>2324.8</ele>
        <time>2024-08-13T14:12:45Z</time>
      </trkpt>
      <trkpt lat="44.84924" lon="6.11234">
        <ele>2325</ele>
        <time>2024-08-13T14:12:46Z</time>
      </trkpt>
      <trkpt lat="44.84924" lon="6.11234">
        <ele>2325</ele>
        <time>2024-08-13T14:12:47Z</time>
      </trkpt>
      <trkpt lat="44.84924" lon="6.11234">
        <ele>2324.8</ele>
        <time>2024-08-13T14:12:48Z</time>
      </trkpt>
      <trkpt lat="44.84924" lon="6.11231">
        <ele>2324.2</ele>
        <time>2024-08-13T14:12:49Z</time>
      </trkpt>
      <trkpt lat="44.84924" lon="6.11231">
        <ele>2324.2</ele>
        <time>2024-08-13T14:12:50Z</time>
      </trkpt>
      <trkpt lat="44.84924" lon="6.11228">
        <ele>2324.4</ele>
        <time>2024-08-13T14:12:51Z</time>
      </trkpt>
      <trkpt lat="44.84924" lon="6.11228">
        <ele>2324.4</ele>
        <time>2024-08-13T14:12:52Z</time>
      </trkpt>
      <trkpt lat="44.84924" lon="6.11228">
        <ele>2324.4</ele>
        <time>2024-08-13T14:12:53Z</time>
      </trkpt>
      <trkpt lat="44.84926" lon="6.11227">
        <ele>2323.6</ele>
        <time>2024-08-13T14:12:54Z</time>
      </trkpt>
      <trkpt lat="44.84926" lon="6.11227">
        <ele>2322.6</ele>
        <time>2024-08-13T14:12:55Z</time>
      </trkpt>
      <trkpt lat="44.84929" lon="6.11228">
        <ele>2321.8</ele>
        <time>2024-08-13T14:12:56Z</time>
      </trkpt>
      <trkpt lat="44.84929" lon="6.11228">
        <ele>2321.6</ele>
        <time>2024-08-13T14:12:57Z</time>
      </trkpt>
      <trkpt lat="44.84929" lon="6.11228">
        <ele>2321.2</ele>
        <time>2024-08-13T14:12:58Z</time>
      </trkpt>
      <trkpt lat="44.84931" lon="6.11229">
        <ele>2321.4</ele>
        <time>2024-08-13T14:12:59Z</time>
      </trkpt>
      <trkpt lat="44.84931" lon="6.11229">
        <ele>2322</ele>
        <time>2024-08-13T14:13:00Z</time>
      </trkpt>
      <trkpt lat="44.84933" lon="6.11229">
        <ele>2321.8</ele>
        <time>2024-08-13T14:13:01Z</time>
      </trkpt>
      <trkpt lat="44.84933" lon="6.11229">
        <ele>2320.4</ele>
        <time>2024-08-13T14:13:02Z</time>
      </trkpt>
      <trkpt lat="44.84933" lon="6.11229">
        <ele>2320.4</ele>
        <time>2024-08-13T14:13:03Z</time>
      </trkpt>
      <trkpt lat="44.84935" lon="6.11229">
        <ele>2320.4</ele>
        <time>2024-08-13T14:13:04Z</time>
      </trkpt>
      <trkpt lat="44.84935" lon="6.11229">
        <ele>2320.2</ele>
        <time>2024-08-13T14:13:05Z</time>
      </trkpt>
      <trkpt lat="44.84935" lon="6.11229">
        <ele>2320.2</ele>
        <time>2024-08-13T14:13:06Z</time>
      </trkpt>
      <trkpt lat="44.84938" lon="6.11229">
        <ele>2319.6</ele>
        <time>2024-08-13T14:13:07Z</time>
      </trkpt>
      <trkpt lat="44.84938" lon="6.11229">
        <ele>2319.4</ele>
        <time>2024-08-13T14:13:08Z</time>
      </trkpt>
      <trkpt lat="44.84938" lon="6.11229">
        <ele>2319.4</ele>
        <time>2024-08-13T14:13:09Z</time>
      </trkpt>
      <trkpt lat="44.84938" lon="6.11229">
        <ele>2319.2</ele>
        <time>2024-08-13T14:13:10Z</time>
      </trkpt>
      <trkpt lat="44.84939" lon="6.11227">
        <ele>2318.6</ele>
        <time>2024-08-13T14:13:11Z</time>
      </trkpt>
      <trkpt lat="44.84939" lon="6.11227">
        <ele>2318.6</ele>
        <time>2024-08-13T14:13:12Z</time>
      </trkpt>
      <trkpt lat="44.84939" lon="6.11227">
        <ele>2318.6</ele>
        <time>2024-08-13T14:13:13Z</time>
      </trkpt>
      <trkpt lat="44.84941" lon="6.11225">
        <ele>2318.6</ele>
        <time>2024-08-13T14:13:14Z</time>
      </trkpt>
      <trkpt lat="44.84941" lon="6.11225">
        <ele>2318</ele>
        <time>2024-08-13T14:13:15Z</time>
      </trkpt>
      <trkpt lat="44.84942" lon="6.11225">
        <ele>2317.4</ele>
        <time>2024-08-13T14:13:16Z</time>
      </trkpt>
      <trkpt lat="44.84942" lon="6.11225">
        <ele>2317.2</ele>
        <time>2024-08-13T14:13:17Z</time>
      </trkpt>
      <trkpt lat="44.84942" lon="6.11225">
        <ele>2317.2</ele>
        <time>2024-08-13T14:13:18Z</time>
      </trkpt>
      <trkpt lat="44.84945" lon="6.11226">
        <ele>2317.2</ele>
        <time>2024-08-13T14:13:19Z</time>
      </trkpt>
      <trkpt lat="44.84945" lon="6.11226">
        <ele>2316.6</ele>
        <time>2024-08-13T14:13:20Z</time>
      </trkpt>
      <trkpt lat="44.84945" lon="6.11226">
        <ele>2316.2</ele>
        <time>2024-08-13T14:13:21Z</time>
      </trkpt>
      <trkpt lat="44.84947" lon="6.11227">
        <ele>2316</ele>
        <time>2024-08-13T14:13:22Z</time>
      </trkpt>
      <trkpt lat="44.84947" lon="6.11227">
        <ele>2316</ele>
        <time>2024-08-13T14:13:23Z</time>
      </trkpt>
      <trkpt lat="44.84947" lon="6.11227">
        <ele>2315.6</ele>
        <time>2024-08-13T14:13:24Z</time>
      </trkpt>
      <trkpt lat="44.84946" lon="6.11225">
        <ele>2315.6</ele>
        <time>2024-08-13T14:13:25Z</time>
      </trkpt>
      <trkpt lat="44.84946" lon="6.11225">
        <ele>2315.6</ele>
        <time>2024-08-13T14:13:26Z</time>
      </trkpt>
      <trkpt lat="44.84946" lon="6.11225">
        <ele>2316.2</ele>
        <time>2024-08-13T14:13:27Z</time>
      </trkpt>
      <trkpt lat="44.84945" lon="6.11221">
        <ele>2316.2</ele>
        <time>2024-08-13T14:13:28Z</time>
      </trkpt>
      <trkpt lat="44.84945" lon="6.11221">
        <ele>2316.2</ele>
        <time>2024-08-13T14:13:29Z</time>
      </trkpt>
      <trkpt lat="44.84945" lon="6.11221">
        <ele>2316.2</ele>
        <time>2024-08-13T14:13:30Z</time>
      </trkpt>
      <trkpt lat="44.84944" lon="6.11218">
        <ele>2316.2</ele>
        <time>2024-08-13T14:13:31Z</time>
      </trkpt>
      <trkpt lat="44.84944" lon="6.11218">
        <ele>2316.2</ele>
        <time>2024-08-13T14:13:32Z</time>
      </trkpt>
      <trkpt lat="44.84943" lon="6.11216">
        <ele>2315.6</ele>
        <time>2024-08-13T14:13:33Z</time>
      </trkpt>
      <trkpt lat="44.84943" lon="6.11216">
        <ele>2315.6</ele>
        <time>2024-08-13T14:13:34Z</time>
      </trkpt>
      <trkpt lat="44.84945" lon="6.11214">
        <ele>2315.4</ele>
        <time>2024-08-13T14:13:35Z</time>
      </trkpt>
      <trkpt lat="44.84945" lon="6.11214">
        <ele>2314.8</ele>
        <time>2024-08-13T14:13:36Z</time>
      </trkpt>
      <trkpt lat="44.84945" lon="6.11214">
        <ele>2313.4</ele>
        <time>2024-08-13T14:13:37Z</time>
      </trkpt>
      <trkpt lat="44.84945" lon="6.11214">
        <ele>2312.6</ele>
        <time>2024-08-13T14:13:38Z</time>
      </trkpt>
      <trkpt lat="44.84947" lon="6.11213">
        <ele>2312</ele>
        <time>2024-08-13T14:13:39Z</time>
      </trkpt>
      <trkpt lat="44.84947" lon="6.11213">
        <ele>2312</ele>
        <time>2024-08-13T14:13:40Z</time>
      </trkpt>
      <trkpt lat="44.84949" lon="6.11213">
        <ele>2311.8</ele>
        <time>2024-08-13T14:13:41Z</time>
      </trkpt>
      <trkpt lat="44.84949" lon="6.11213">
        <ele>2311.2</ele>
        <time>2024-08-13T14:13:42Z</time>
      </trkpt>
      <trkpt lat="44.84949" lon="6.11213">
        <ele>2311.2</ele>
        <time>2024-08-13T14:13:43Z</time>
      </trkpt>
      <trkpt lat="44.84952" lon="6.11214">
        <ele>2311.4</ele>
        <time>2024-08-13T14:13:44Z</time>
      </trkpt>
      <trkpt lat="44.84952" lon="6.11214">
        <ele>2311.4</ele>
        <time>2024-08-13T14:13:45Z</time>
      </trkpt>
      <trkpt lat="44.84952" lon="6.11214">
        <ele>2311</ele>
        <time>2024-08-13T14:13:46Z</time>
      </trkpt>
      <trkpt lat="44.84955" lon="6.11215">
        <ele>2310.4</ele>
        <time>2024-08-13T14:13:47Z</time>
      </trkpt>
      <trkpt lat="44.84955" lon="6.11215">
        <ele>2310.4</ele>
        <time>2024-08-13T14:13:48Z</time>
      </trkpt>
      <trkpt lat="44.84955" lon="6.11215">
        <ele>2310</ele>
        <time>2024-08-13T14:13:49Z</time>
      </trkpt>
      <trkpt lat="44.84957" lon="6.11214">
        <ele>2309.8</ele>
        <time>2024-08-13T14:13:50Z</time>
      </trkpt>
      <trkpt lat="44.84957" lon="6.11214">
        <ele>2309.8</ele>
        <time>2024-08-13T14:13:51Z</time>
      </trkpt>
      <trkpt lat="44.84957" lon="6.11214">
        <ele>2309</ele>
        <time>2024-08-13T14:13:52Z</time>
      </trkpt>
      <trkpt lat="44.84959" lon="6.11215">
        <ele>2308.8</ele>
        <time>2024-08-13T14:13:53Z</time>
      </trkpt>
      <trkpt lat="44.84959" lon="6.11215">
        <ele>2308.8</ele>
        <time>2024-08-13T14:13:54Z</time>
      </trkpt>
      <trkpt lat="44.84959" lon="6.11215">
        <ele>2308.8</ele>
        <time>2024-08-13T14:13:55Z</time>
      </trkpt>
      <trkpt lat="44.84961" lon="6.11213">
        <ele>2308.8</ele>
        <time>2024-08-13T14:13:56Z</time>
      </trkpt>
      <trkpt lat="44.84961" lon="6.11213">
        <ele>2308.4</ele>
        <time>2024-08-13T14:13:57Z</time>
      </trkpt>
      <trkpt lat="44.84961" lon="6.11213">
        <ele>2308.2</ele>
        <time>2024-08-13T14:13:58Z</time>
      </trkpt>
      <trkpt lat="44.84964" lon="6.11213">
        <ele>2307.6</ele>
        <time>2024-08-13T14:13:59Z</time>
      </trkpt>
      <trkpt lat="44.84964" lon="6.11213">
        <ele>2306.4</ele>
        <time>2024-08-13T14:14:00Z</time>
      </trkpt>
      <trkpt lat="44.84964" lon="6.11213">
        <ele>2306.4</ele>
        <time>2024-08-13T14:14:01Z</time>
      </trkpt>
      <trkpt lat="44.84966" lon="6.11212">
        <ele>2306.4</ele>
        <time>2024-08-13T14:14:02Z</time>
      </trkpt>
      <trkpt lat="44.84966" lon="6.11212">
        <ele>2306.4</ele>
        <time>2024-08-13T14:14:03Z</time>
      </trkpt>
      <trkpt lat="44.84968" lon="6.11211">
        <ele>2305.4</ele>
        <time>2024-08-13T14:14:04Z</time>
      </trkpt>
      <trkpt lat="44.84968" lon="6.11211">
        <ele>2304.6</ele>
        <time>2024-08-13T14:14:05Z</time>
      </trkpt>
      <trkpt lat="44.84968" lon="6.11211">
        <ele>2304.6</ele>
        <time>2024-08-13T14:14:06Z</time>
      </trkpt>
      <trkpt lat="44.84971" lon="6.11211">
        <ele>2304.2</ele>
        <time>2024-08-13T14:14:07Z</time>
      </trkpt>
      <trkpt lat="44.84971" lon="6.11211">
        <ele>2304.2</ele>
        <time>2024-08-13T14:14:08Z</time>
      </trkpt>
      <trkpt lat="44.84971" lon="6.11211">
        <ele>2303.4</ele>
        <time>2024-08-13T14:14:09Z</time>
      </trkpt>
      <trkpt lat="44.84973" lon="6.1121">
        <ele>2303.2</ele>
        <time>2024-08-13T14:14:10Z</time>
      </trkpt>
      <trkpt lat="44.84973" lon="6.1121">
        <ele>2302.6</ele>
        <time>2024-08-13T14:14:11Z</time>
      </trkpt>
      <trkpt lat="44.84975" lon="6.1121">
        <ele>2301.8</ele>
        <time>2024-08-13T14:14:12Z</time>
      </trkpt>
      <trkpt lat="44.84975" lon="6.1121">
        <ele>2301.6</ele>
        <time>2024-08-13T14:14:13Z</time>
      </trkpt>
      <trkpt lat="44.84975" lon="6.1121">
        <ele>2301.6</ele>
        <time>2024-08-13T14:14:14Z</time>
      </trkpt>
      <trkpt lat="44.84977" lon="6.11208">
        <ele>2301.4</ele>
        <time>2024-08-13T14:14:15Z</time>
      </trkpt>
      <trkpt lat="44.84977" lon="6.11208">
        <ele>2302.2</ele>
        <time>2024-08-13T14:14:16Z</time>
      </trkpt>
      <trkpt lat="44.84979" lon="6.11208">
        <ele>2302.4</ele>
        <time>2024-08-13T14:14:17Z</time>
      </trkpt>
      <trkpt lat="44.84979" lon="6.11208">
        <ele>2302.4</ele>
        <time>2024-08-13T14:14:18Z</time>
      </trkpt>
      <trkpt lat="44.84981" lon="6.11208">
        <ele>2302</ele>
        <time>2024-08-13T14:14:19Z</time>
      </trkpt>
      <trkpt lat="44.84981" lon="6.11208">
        <ele>2301.2</ele>
        <time>2024-08-13T14:14:20Z</time>
      </trkpt>
      <trkpt lat="44.84981" lon="6.11208">
        <ele>2300</ele>
        <time>2024-08-13T14:14:21Z</time>
      </trkpt>
      <trkpt lat="44.84983" lon="6.11207">
        <ele>2299.8</ele>
        <time>2024-08-13T14:14:22Z</time>
      </trkpt>
      <trkpt lat="44.84983" lon="6.11207">
        <ele>2299.4</ele>
        <time>2024-08-13T14:14:23Z</time>
      </trkpt>
      <trkpt lat="44.84983" lon="6.11207">
        <ele>2299</ele>
        <time>2024-08-13T14:14:24Z</time>
      </trkpt>
      <trkpt lat="44.84985" lon="6.11206">
        <ele>2298.8</ele>
        <time>2024-08-13T14:14:25Z</time>
      </trkpt>
      <trkpt lat="44.84985" lon="6.11206">
        <ele>2298.8</ele>
        <time>2024-08-13T14:14:26Z</time>
      </trkpt>
      <trkpt lat="44.84988" lon="6.11206">
        <ele>2298.2</ele>
        <time>2024-08-13T14:14:27Z</time>
      </trkpt>
      <trkpt lat="44.84988" lon="6.11206">
        <ele>2297.8</ele>
        <time>2024-08-13T14:14:28Z</time>
      </trkpt>
      <trkpt lat="44.84988" lon="6.11206">
        <ele>2297.6</ele>
        <time>2024-08-13T14:14:29Z</time>
      </trkpt>
      <trkpt lat="44.84989" lon="6.11205">
        <ele>2297</ele>
        <time>2024-08-13T14:14:30Z</time>
      </trkpt>
      <trkpt lat="44.84989" lon="6.11205">
        <ele>2296.4</ele>
        <time>2024-08-13T14:14:31Z</time>
      </trkpt>
      <trkpt lat="44.84989" lon="6.11205">
        <ele>2296.2</ele>
        <time>2024-08-13T14:14:32Z</time>
      </trkpt>
      <trkpt lat="44.84991" lon="6.11202">
        <ele>2296.2</ele>
        <time>2024-08-13T14:14:33Z</time>
      </trkpt>
      <trkpt lat="44.84991" lon="6.11202">
        <ele>2296.2</ele>
        <time>2024-08-13T14:14:34Z</time>
      </trkpt>
      <trkpt lat="44.84992" lon="6.11201">
        <ele>2296</ele>
        <time>2024-08-13T14:14:35Z</time>
      </trkpt>
      <trkpt lat="44.84992" lon="6.11201">
        <ele>2295.6</ele>
        <time>2024-08-13T14:14:36Z</time>
      </trkpt>
      <trkpt lat="44.84995" lon="6.112">
        <ele>2295.2</ele>
        <time>2024-08-13T14:14:37Z</time>
      </trkpt>
      <trkpt lat="44.84995" lon="6.112">
        <ele>2295</ele>
        <time>2024-08-13T14:14:38Z</time>
      </trkpt>
      <trkpt lat="44.84997" lon="6.11199">
        <ele>2295</ele>
        <time>2024-08-13T14:14:39Z</time>
      </trkpt>
      <trkpt lat="44.84997" lon="6.11199">
        <ele>2295</ele>
        <time>2024-08-13T14:14:40Z</time>
      </trkpt>
      <trkpt lat="44.84999" lon="6.11198">
        <ele>2294.8</ele>
        <time>2024-08-13T14:14:41Z</time>
      </trkpt>
      <trkpt lat="44.84999" lon="6.11198">
        <ele>2294.8</ele>
        <time>2024-08-13T14:14:42Z</time>
      </trkpt>
      <trkpt lat="44.84999" lon="6.11198">
        <ele>2294.8</ele>
        <time>2024-08-13T14:14:43Z</time>
      </trkpt>
      <trkpt lat="44.85" lon="6.11196">
        <ele>2294.8</ele>
        <time>2024-08-13T14:14:44Z</time>
      </trkpt>
      <trkpt lat="44.85" lon="6.11196">
        <ele>2294.8</ele>
        <time>2024-08-13T14:14:45Z</time>
      </trkpt>
      <trkpt lat="44.85" lon="6.11196">
        <ele>2294.6</ele>
        <time>2024-08-13T14:14:46Z</time>
      </trkpt>
      <trkpt lat="44.85002" lon="6.11195">
        <ele>2293.8</ele>
        <time>2024-08-13T14:14:47Z</time>
      </trkpt>
      <trkpt lat="44.85002" lon="6.11195">
        <ele>2293</ele>
        <time>2024-08-13T14:14:48Z</time>
      </trkpt>
      <trkpt lat="44.85002" lon="6.11195">
        <ele>2292.6</ele>
        <time>2024-08-13T14:14:49Z</time>
      </trkpt>
      <trkpt lat="44.85002" lon="6.11195">
        <ele>2292.6</ele>
        <time>2024-08-13T14:14:50Z</time>
      </trkpt>
      <trkpt lat="44.85002" lon="6.11195">
        <ele>2292.4</ele>
        <time>2024-08-13T14:14:51Z</time>
      </trkpt>
      <trkpt lat="44.85004" lon="6.11193">
        <ele>2292.2</ele>
        <time>2024-08-13T14:14:52Z</time>
      </trkpt>
      <trkpt lat="44.85004" lon="6.11193">
        <ele>2292.2</ele>
        <time>2024-08-13T14:14:53Z</time>
      </trkpt>
      <trkpt lat="44.85004" lon="6.11193">
        <ele>2292.2</ele>
        <time>2024-08-13T14:14:54Z</time>
      </trkpt>
      <trkpt lat="44.85004" lon="6.11193">
        <ele>2291.6</ele>
        <time>2024-08-13T14:14:55Z</time>
      </trkpt>
      <trkpt lat="44.85005" lon="6.1119">
        <ele>2290.8</ele>
        <time>2024-08-13T14:14:56Z</time>
      </trkpt>
      <trkpt lat="44.85005" lon="6.1119">
        <ele>2290.8</ele>
        <time>2024-08-13T14:14:57Z</time>
      </trkpt>
      <trkpt lat="44.85005" lon="6.1119">
        <ele>2291</ele>
        <time>2024-08-13T14:14:58Z</time>
      </trkpt>
      <trkpt lat="44.85003" lon="6.11189">
        <ele>2291</ele>
        <time>2024-08-13T14:14:59Z</time>
      </trkpt>
      <trkpt lat="44.85003" lon="6.11189">
        <ele>2290.8</ele>
        <time>2024-08-13T14:15:00Z</time>
      </trkpt>
      <trkpt lat="44.85003" lon="6.11189">
        <ele>2290.6</ele>
        <time>2024-08-13T14:15:01Z</time>
      </trkpt>
      <trkpt lat="44.85002" lon="6.11186">
        <ele>2290</ele>
        <time>2024-08-13T14:15:02Z</time>
      </trkpt>
      <trkpt lat="44.85002" lon="6.11186">
        <ele>2290</ele>
        <time>2024-08-13T14:15:03Z</time>
      </trkpt>
      <trkpt lat="44.85002" lon="6.11186">
        <ele>2289</ele>
        <time>2024-08-13T14:15:04Z</time>
      </trkpt>
      <trkpt lat="44.85004" lon="6.11184">
        <ele>2288.6</ele>
        <time>2024-08-13T14:15:05Z</time>
      </trkpt>
      <trkpt lat="44.85004" lon="6.11184">
        <ele>2288.4</ele>
        <time>2024-08-13T14:15:06Z</time>
      </trkpt>
      <trkpt lat="44.85005" lon="6.11183">
        <ele>2287.8</ele>
        <time>2024-08-13T14:15:07Z</time>
      </trkpt>
      <trkpt lat="44.85005" lon="6.11183">
        <ele>2287.4</ele>
        <time>2024-08-13T14:15:08Z</time>
      </trkpt>
      <trkpt lat="44.85005" lon="6.11183">
        <ele>2287.4</ele>
        <time>2024-08-13T14:15:09Z</time>
      </trkpt>
      <trkpt lat="44.85007" lon="6.11183">
        <ele>2287</ele>
        <time>2024-08-13T14:15:10Z</time>
      </trkpt>
      <trkpt lat="44.85007" lon="6.11183">
        <ele>2286.4</ele>
        <time>2024-08-13T14:15:11Z</time>
      </trkpt>
      <trkpt lat="44.85007" lon="6.11183">
        <ele>2286.4</ele>
        <time>2024-08-13T14:15:12Z</time>
      </trkpt>
      <trkpt lat="44.85007" lon="6.11183">
        <ele>2286.4</ele>
        <time>2024-08-13T14:15:13Z</time>
      </trkpt>
      <trkpt lat="44.85009" lon="6.1118">
        <ele>2286.4</ele>
        <time>2024-08-13T14:15:14Z</time>
      </trkpt>
      <trkpt lat="44.85009" lon="6.1118">
        <ele>2286</ele>
        <time>2024-08-13T14:15:15Z</time>
      </trkpt>
      <trkpt lat="44.85009" lon="6.1118">
        <ele>2285.4</ele>
        <time>2024-08-13T14:15:16Z</time>
      </trkpt>
      <trkpt lat="44.8501" lon="6.11177">
        <ele>2285.2</ele>
        <time>2024-08-13T14:15:17Z</time>
      </trkpt>
      <trkpt lat="44.8501" lon="6.11177">
        <ele>2284.6</ele>
        <time>2024-08-13T14:15:18Z</time>
      </trkpt>
      <trkpt lat="44.8501" lon="6.11177">
        <ele>2284.4</ele>
        <time>2024-08-13T14:15:19Z</time>
      </trkpt>
      <trkpt lat="44.85011" lon="6.11175">
        <ele>2284.4</ele>
        <time>2024-08-13T14:15:20Z</time>
      </trkpt>
      <trkpt lat="44.85011" lon="6.11175">
        <ele>2283.8</ele>
        <time>2024-08-13T14:15:21Z</time>
      </trkpt>
      <trkpt lat="44.85011" lon="6.11175">
        <ele>2282.8</ele>
        <time>2024-08-13T14:15:22Z</time>
      </trkpt>
      <trkpt lat="44.85013" lon="6.11173">
        <ele>2282.8</ele>
        <time>2024-08-13T14:15:23Z</time>
      </trkpt>
      <trkpt lat="44.85013" lon="6.11173">
        <ele>2282.6</ele>
        <time>2024-08-13T14:15:24Z</time>
      </trkpt>
      <trkpt lat="44.85013" lon="6.11173">
        <ele>2282.4</ele>
        <time>2024-08-13T14:15:25Z</time>
      </trkpt>
      <trkpt lat="44.85015" lon="6.11173">
        <ele>2282</ele>
        <time>2024-08-13T14:15:26Z</time>
      </trkpt>
      <trkpt lat="44.85015" lon="6.11173">
        <ele>2281.6</ele>
        <time>2024-08-13T14:15:27Z</time>
      </trkpt>
      <trkpt lat="44.85015" lon="6.11173">
        <ele>2281.4</ele>
        <time>2024-08-13T14:15:28Z</time>
      </trkpt>
      <trkpt lat="44.85016" lon="6.11171">
        <ele>2281.2</ele>
        <time>2024-08-13T14:15:29Z</time>
      </trkpt>
      <trkpt lat="44.85016" lon="6.11171">
        <ele>2281.2</ele>
        <time>2024-08-13T14:15:30Z</time>
      </trkpt>
      <trkpt lat="44.85018" lon="6.11169">
        <ele>2281</ele>
        <time>2024-08-13T14:15:31Z</time>
      </trkpt>
      <trkpt lat="44.85018" lon="6.11169">
        <ele>2280.6</ele>
        <time>2024-08-13T14:15:32Z</time>
      </trkpt>
      <trkpt lat="44.85018" lon="6.11169">
        <ele>2280.4</ele>
        <time>2024-08-13T14:15:33Z</time>
      </trkpt>
      <trkpt lat="44.8502" lon="6.11169">
        <ele>2279.6</ele>
        <time>2024-08-13T14:15:34Z</time>
      </trkpt>
      <trkpt lat="44.8502" lon="6.11169">
        <ele>2278.8</ele>
        <time>2024-08-13T14:15:35Z</time>
      </trkpt>
      <trkpt lat="44.8502" lon="6.11169">
        <ele>2278.6</ele>
        <time>2024-08-13T14:15:36Z</time>
      </trkpt>
      <trkpt lat="44.85022" lon="6.11168">
        <ele>2278.6</ele>
        <time>2024-08-13T14:15:37Z</time>
      </trkpt>
      <trkpt lat="44.85022" lon="6.11168">
        <ele>2278</ele>
        <time>2024-08-13T14:15:38Z</time>
      </trkpt>
      <trkpt lat="44.85022" lon="6.11168">
        <ele>2277.8</ele>
        <time>2024-08-13T14:15:39Z</time>
      </trkpt>
      <trkpt lat="44.85022" lon="6.11168">
        <ele>2277.8</ele>
        <time>2024-08-13T14:15:40Z</time>
      </trkpt>
      <trkpt lat="44.85023" lon="6.11166">
        <ele>2277.8</ele>
        <time>2024-08-13T14:15:41Z</time>
      </trkpt>
      <trkpt lat="44.85023" lon="6.11166">
        <ele>2277.6</ele>
        <time>2024-08-13T14:15:42Z</time>
      </trkpt>
      <trkpt lat="44.85025" lon="6.11165">
        <ele>2277.2</ele>
        <time>2024-08-13T14:15:43Z</time>
      </trkpt>
      <trkpt lat="44.85025" lon="6.11165">
        <ele>2276.4</ele>
        <time>2024-08-13T14:15:44Z</time>
      </trkpt>
      <trkpt lat="44.85025" lon="6.11165">
        <ele>2275.8</ele>
        <time>2024-08-13T14:15:45Z</time>
      </trkpt>
      <trkpt lat="44.85025" lon="6.11165">
        <ele>2275.4</ele>
        <time>2024-08-13T14:15:46Z</time>
      </trkpt>
      <trkpt lat="44.85027" lon="6.11163">
        <ele>2275.2</ele>
        <time>2024-08-13T14:15:47Z</time>
      </trkpt>
      <trkpt lat="44.85027" lon="6.11163">
        <ele>2275.2</ele>
        <time>2024-08-13T14:15:48Z</time>
      </trkpt>
      <trkpt lat="44.85028" lon="6.11161">
        <ele>2275.4</ele>
        <time>2024-08-13T14:15:49Z</time>
      </trkpt>
      <trkpt lat="44.85028" lon="6.11161">
        <ele>2275.4</ele>
        <time>2024-08-13T14:15:50Z</time>
      </trkpt>
      <trkpt lat="44.85028" lon="6.11161">
        <ele>2274.8</ele>
        <time>2024-08-13T14:15:51Z</time>
      </trkpt>
      <trkpt lat="44.8503" lon="6.1116">
        <ele>2273.8</ele>
        <time>2024-08-13T14:15:52Z</time>
      </trkpt>
      <trkpt lat="44.8503" lon="6.1116">
        <ele>2273.2</ele>
        <time>2024-08-13T14:15:53Z</time>
      </trkpt>
      <trkpt lat="44.8503" lon="6.1116">
        <ele>2272.4</ele>
        <time>2024-08-13T14:15:54Z</time>
      </trkpt>
      <trkpt lat="44.85032" lon="6.11158">
        <ele>2272</ele>
        <time>2024-08-13T14:15:55Z</time>
      </trkpt>
      <trkpt lat="44.85032" lon="6.11158">
        <ele>2272</ele>
        <time>2024-08-13T14:15:56Z</time>
      </trkpt>
      <trkpt lat="44.85032" lon="6.11158">
        <ele>2272.2</ele>
        <time>2024-08-13T14:15:57Z</time>
      </trkpt>
      <trkpt lat="44.85034" lon="6.11157">
        <ele>2272.2</ele>
        <time>2024-08-13T14:15:58Z</time>
      </trkpt>
      <trkpt lat="44.85034" lon="6.11157">
        <ele>2271.8</ele>
        <time>2024-08-13T14:15:59Z</time>
      </trkpt>
      <trkpt lat="44.85037" lon="6.11156">
        <ele>2270.8</ele>
        <time>2024-08-13T14:16:00Z</time>
      </trkpt>
      <trkpt lat="44.85037" lon="6.11156">
        <ele>2270.4</ele>
        <time>2024-08-13T14:16:01Z</time>
      </trkpt>
      <trkpt lat="44.85037" lon="6.11156">
        <ele>2270.2</ele>
        <time>2024-08-13T14:16:02Z</time>
      </trkpt>
      <trkpt lat="44.85038" lon="6.11155">
        <ele>2270.2</ele>
        <time>2024-08-13T14:16:03Z</time>
      </trkpt>
      <trkpt lat="44.85038" lon="6.11155">
        <ele>2269.8</ele>
        <time>2024-08-13T14:16:04Z</time>
      </trkpt>
      <trkpt lat="44.85038" lon="6.11155">
        <ele>2269.6</ele>
        <time>2024-08-13T14:16:05Z</time>
      </trkpt>
      <trkpt lat="44.8504" lon="6.11153">
        <ele>2269.6</ele>
        <time>2024-08-13T14:16:06Z</time>
      </trkpt>
      <trkpt lat="44.8504" lon="6.11153">
        <ele>2269.6</ele>
        <time>2024-08-13T14:16:07Z</time>
      </trkpt>
      <trkpt lat="44.8504" lon="6.11153">
        <ele>2269</ele>
        <time>2024-08-13T14:16:08Z</time>
      </trkpt>
      <trkpt lat="44.85041" lon="6.11151">
        <ele>2268</ele>
        <time>2024-08-13T14:16:09Z</time>
      </trkpt>
      <trkpt lat="44.85041" lon="6.11151">
        <ele>2268</ele>
        <time>2024-08-13T14:16:10Z</time>
      </trkpt>
      <trkpt lat="44.85043" lon="6.11151">
        <ele>2268</ele>
        <time>2024-08-13T14:16:11Z</time>
      </trkpt>
      <trkpt lat="44.85043" lon="6.11151">
        <ele>2267.4</ele>
        <time>2024-08-13T14:16:12Z</time>
      </trkpt>
      <trkpt lat="44.85043" lon="6.11151">
        <ele>2267</ele>
        <time>2024-08-13T14:16:13Z</time>
      </trkpt>
      <trkpt lat="44.85046" lon="6.11149">
        <ele>2266.8</ele>
        <time>2024-08-13T14:16:14Z</time>
      </trkpt>
      <trkpt lat="44.85046" lon="6.11149">
        <ele>2266.8</ele>
        <time>2024-08-13T14:16:15Z</time>
      </trkpt>
      <trkpt lat="44.85046" lon="6.11149">
        <ele>2266.2</ele>
        <time>2024-08-13T14:16:16Z</time>
      </trkpt>
      <trkpt lat="44.85046" lon="6.11149">
        <ele>2265.6</ele>
        <time>2024-08-13T14:16:17Z</time>
      </trkpt>
      <trkpt lat="44.85048" lon="6.11149">
        <ele>2265.4</ele>
        <time>2024-08-13T14:16:18Z</time>
      </trkpt>
      <trkpt lat="44.85048" lon="6.11149">
        <ele>2265.4</ele>
        <time>2024-08-13T14:16:19Z</time>
      </trkpt>
      <trkpt lat="44.85048" lon="6.11149">
        <ele>2265</ele>
        <time>2024-08-13T14:16:20Z</time>
      </trkpt>
      <trkpt lat="44.8505" lon="6.11149">
        <ele>2264.6</ele>
        <time>2024-08-13T14:16:21Z</time>
      </trkpt>
      <trkpt lat="44.8505" lon="6.11149">
        <ele>2264.4</ele>
        <time>2024-08-13T14:16:22Z</time>
      </trkpt>
      <trkpt lat="44.8505" lon="6.11149">
        <ele>2264.4</ele>
        <time>2024-08-13T14:16:23Z</time>
      </trkpt>
      <trkpt lat="44.8505" lon="6.11149">
        <ele>2264.8</ele>
        <time>2024-08-13T14:16:24Z</time>
      </trkpt>
      <trkpt lat="44.8505" lon="6.11149">
        <ele>2265.2</ele>
        <time>2024-08-13T14:16:25Z</time>
      </trkpt>
      <trkpt lat="44.8505" lon="6.11149">
        <ele>2265.2</ele>
        <time>2024-08-13T14:16:26Z</time>
      </trkpt>
      <trkpt lat="44.8505" lon="6.11149">
        <ele>2265.2</ele>
        <time>2024-08-13T14:16:27Z</time>
      </trkpt>
      <trkpt lat="44.8505" lon="6.11149">
        <ele>2265</ele>
        <time>2024-08-13T14:16:28Z</time>
      </trkpt>
      <trkpt lat="44.8505" lon="6.11149">
        <ele>2264.4</ele>
        <time>2024-08-13T14:16:29Z</time>
      </trkpt>
      <trkpt lat="44.8505" lon="6.11149">
        <ele>2264.4</ele>
        <time>2024-08-13T14:16:30Z</time>
      </trkpt>
      <trkpt lat="44.8505" lon="6.11149">
        <ele>2264.2</ele>
        <time>2024-08-13T14:16:31Z</time>
      </trkpt>
      <trkpt lat="44.8505" lon="6.11149">
        <ele>2264</ele>
        <time>2024-08-13T14:16:32Z</time>
      </trkpt>
      <trkpt lat="44.8505" lon="6.11149">
        <ele>2263.2</ele>
        <time>2024-08-13T14:16:33Z</time>
      </trkpt>
      <trkpt lat="44.8505" lon="6.11149">
        <ele>2263</ele>
        <time>2024-08-13T14:16:34Z</time>
      </trkpt>
      <trkpt lat="44.8505" lon="6.11149">
        <ele>2263</ele>
        <time>2024-08-13T14:16:35Z</time>
      </trkpt>
      <trkpt lat="44.8505" lon="6.11149">
        <ele>2263.6</ele>
        <time>2024-08-13T14:16:36Z</time>
      </trkpt>
      <trkpt lat="44.8505" lon="6.11149">
        <ele>2263.6</ele>
        <time>2024-08-13T14:16:37Z</time>
      </trkpt>
      <trkpt lat="44.8505" lon="6.11149">
        <ele>2263.4</ele>
        <time>2024-08-13T14:16:38Z</time>
      </trkpt>
      <trkpt lat="44.8505" lon="6.11149">
        <ele>2263.4</ele>
        <time>2024-08-13T14:16:39Z</time>
      </trkpt>
      <trkpt lat="44.8505" lon="6.11149">
        <ele>2263.8</ele>
        <time>2024-08-13T14:16:40Z</time>
      </trkpt>
      <trkpt lat="44.8505" lon="6.11149">
        <ele>2263.8</ele>
        <time>2024-08-13T14:16:41Z</time>
      </trkpt>
      <trkpt lat="44.8505" lon="6.11149">
        <ele>2264</ele>
        <time>2024-08-13T14:16:42Z</time>
      </trkpt>
      <trkpt lat="44.8505" lon="6.11149">
        <ele>2264.2</ele>
        <time>2024-08-13T14:16:43Z</time>
      </trkpt>
      <trkpt lat="44.8505" lon="6.11149">
        <ele>2264.2</ele>
        <time>2024-08-13T14:16:44Z</time>
      </trkpt>
      <trkpt lat="44.8505" lon="6.11149">
        <ele>2264.4</ele>
        <time>2024-08-13T14:16:45Z</time>
      </trkpt>
      <trkpt lat="44.8505" lon="6.11149">
        <ele>2265.6</ele>
        <time>2024-08-13T14:16:46Z</time>
      </trkpt>
      <trkpt lat="44.8505" lon="6.11149">
        <ele>2265.6</ele>
        <time>2024-08-13T14:16:47Z</time>
      </trkpt>
      <trkpt lat="44.8505" lon="6.11149">
        <ele>2265.8</ele>
        <time>2024-08-13T14:16:48Z</time>
      </trkpt>
      <trkpt lat="44.8505" lon="6.11149">
        <ele>2265.8</ele>
        <time>2024-08-13T14:16:49Z</time>
      </trkpt>
      <trkpt lat="44.8505" lon="6.11149">
        <ele>2265.4</ele>
        <time>2024-08-13T14:16:50Z</time>
      </trkpt>
      <trkpt lat="44.8505" lon="6.11149">
        <ele>2264.6</ele>
        <time>2024-08-13T14:16:51Z</time>
      </trkpt>
      <trkpt lat="44.8505" lon="6.11149">
        <ele>2264.4</ele>
        <time>2024-08-13T14:16:52Z</time>
      </trkpt>
      <trkpt lat="44.8505" lon="6.11149">
        <ele>2264.4</ele>
        <time>2024-08-13T14:16:53Z</time>
      </trkpt>
      <trkpt lat="44.8505" lon="6.11149">
        <ele>2264.4</ele>
        <time>2024-08-13T14:16:54Z</time>
      </trkpt>
      <trkpt lat="44.8505" lon="6.11149">
        <ele>2264</ele>
        <time>2024-08-13T14:16:55Z</time>
      </trkpt>
      <trkpt lat="44.85048" lon="6.11146">
        <ele>2264</ele>
        <time>2024-08-13T14:16:56Z</time>
      </trkpt>
      <trkpt lat="44.85047" lon="6.11144">
        <ele>2263.6</ele>
        <time>2024-08-13T14:16:57Z</time>
      </trkpt>
      <trkpt lat="44.85047" lon="6.11144">
        <ele>2263.2</ele>
        <time>2024-08-13T14:16:58Z</time>
      </trkpt>
      <trkpt lat="44.85045" lon="6.11141">
        <ele>2262.8</ele>
        <time>2024-08-13T14:16:59Z</time>
      </trkpt>
      <trkpt lat="44.85045" lon="6.11141">
        <ele>2262.6</ele>
        <time>2024-08-13T14:17:00Z</time>
      </trkpt>
      <trkpt lat="44.85043" lon="6.11138">
        <ele>2262.2</ele>
        <time>2024-08-13T14:17:01Z</time>
      </trkpt>
      <trkpt lat="44.85043" lon="6.11138">
        <ele>2261.6</ele>
        <time>2024-08-13T14:17:02Z</time>
      </trkpt>
      <trkpt lat="44.85042" lon="6.11136">
        <ele>2261.6</ele>
        <time>2024-08-13T14:17:03Z</time>
      </trkpt>
      <trkpt lat="44.85042" lon="6.11136">
        <ele>2261</ele>
        <time>2024-08-13T14:17:04Z</time>
      </trkpt>
      <trkpt lat="44.85042" lon="6.11136">
        <ele>2260.8</ele>
        <time>2024-08-13T14:17:05Z</time>
      </trkpt>
      <trkpt lat="44.85042" lon="6.11136">
        <ele>2260.2</ele>
        <time>2024-08-13T14:17:06Z</time>
      </trkpt>
      <trkpt lat="44.85043" lon="6.11134">
        <ele>2259.8</ele>
        <time>2024-08-13T14:17:07Z</time>
      </trkpt>
      <trkpt lat="44.85043" lon="6.11134">
        <ele>2259.2</ele>
        <time>2024-08-13T14:17:08Z</time>
      </trkpt>
      <trkpt lat="44.85046" lon="6.11134">
        <ele>2258.4</ele>
        <time>2024-08-13T14:17:09Z</time>
      </trkpt>
      <trkpt lat="44.85046" lon="6.11134">
        <ele>2257.8</ele>
        <time>2024-08-13T14:17:10Z</time>
      </trkpt>
      <trkpt lat="44.85049" lon="6.11134">
        <ele>2257.6</ele>
        <time>2024-08-13T14:17:11Z</time>
      </trkpt>
      <trkpt lat="44.85049" lon="6.11134">
        <ele>2257.2</ele>
        <time>2024-08-13T14:17:12Z</time>
      </trkpt>
      <trkpt lat="44.85049" lon="6.11134">
        <ele>2256.8</ele>
        <time>2024-08-13T14:17:13Z</time>
      </trkpt>
      <trkpt lat="44.85051" lon="6.11133">
        <ele>2256.6</ele>
        <time>2024-08-13T14:17:14Z</time>
      </trkpt>
      <trkpt lat="44.85051" lon="6.11133">
        <ele>2256.6</ele>
        <time>2024-08-13T14:17:15Z</time>
      </trkpt>
      <trkpt lat="44.85051" lon="6.11133">
        <ele>2256.6</ele>
        <time>2024-08-13T14:17:16Z</time>
      </trkpt>
      <trkpt lat="44.85051" lon="6.11133">
        <ele>2256.6</ele>
        <time>2024-08-13T14:17:17Z</time>
      </trkpt>
      <trkpt lat="44.85051" lon="6.11133">
        <ele>2256</ele>
        <time>2024-08-13T14:17:18Z</time>
      </trkpt>
      <trkpt lat="44.85053" lon="6.11132">
        <ele>2255.6</ele>
        <time>2024-08-13T14:17:19Z</time>
      </trkpt>
      <trkpt lat="44.85053" lon="6.11132">
        <ele>2255.4</ele>
        <time>2024-08-13T14:17:20Z</time>
      </trkpt>
      <trkpt lat="44.85053" lon="6.11132">
        <ele>2255.4</ele>
        <time>2024-08-13T14:17:21Z</time>
      </trkpt>
      <trkpt lat="44.85051" lon="6.11129">
        <ele>2255.6</ele>
        <time>2024-08-13T14:17:22Z</time>
      </trkpt>
      <trkpt lat="44.85051" lon="6.11129">
        <ele>2255.6</ele>
        <time>2024-08-13T14:17:23Z</time>
      </trkpt>
      <trkpt lat="44.8505" lon="6.11127">
        <ele>2255</ele>
        <time>2024-08-13T14:17:24Z</time>
      </trkpt>
      <trkpt lat="44.8505" lon="6.11127">
        <ele>2254.8</ele>
        <time>2024-08-13T14:17:25Z</time>
      </trkpt>
      <trkpt lat="44.85048" lon="6.11124">
        <ele>2254.4</ele>
        <time>2024-08-13T14:17:26Z</time>
      </trkpt>
      <trkpt lat="44.85048" lon="6.11124">
        <ele>2254.4</ele>
        <time>2024-08-13T14:17:27Z</time>
      </trkpt>
      <trkpt lat="44.85048" lon="6.11124">
        <ele>2254</ele>
        <time>2024-08-13T14:17:28Z</time>
      </trkpt>
      <trkpt lat="44.85046" lon="6.11121">
        <ele>2253.8</ele>
        <time>2024-08-13T14:17:29Z</time>
      </trkpt>
      <trkpt lat="44.85046" lon="6.11121">
        <ele>2253.2</ele>
        <time>2024-08-13T14:17:30Z</time>
      </trkpt>
      <trkpt lat="44.85046" lon="6.11121">
        <ele>2253.2</ele>
        <time>2024-08-13T14:17:31Z</time>
      </trkpt>
      <trkpt lat="44.85044" lon="6.11119">
        <ele>2253.2</ele>
        <time>2024-08-13T14:17:32Z</time>
      </trkpt>
      <trkpt lat="44.85044" lon="6.11119">
        <ele>2252.6</ele>
        <time>2024-08-13T14:17:33Z</time>
      </trkpt>
      <trkpt lat="44.85044" lon="6.11119">
        <ele>2252.2</ele>
        <time>2024-08-13T14:17:34Z</time>
      </trkpt>
      <trkpt lat="44.85044" lon="6.11119">
        <ele>2251.6</ele>
        <time>2024-08-13T14:17:35Z</time>
      </trkpt>
      <trkpt lat="44.85046" lon="6.11116">
        <ele>2251.2</ele>
        <time>2024-08-13T14:17:36Z</time>
      </trkpt>
      <trkpt lat="44.85046" lon="6.11116">
        <ele>2250.4</ele>
        <time>2024-08-13T14:17:37Z</time>
      </trkpt>
      <trkpt lat="44.85048" lon="6.11116">
        <ele>2250</ele>
        <time>2024-08-13T14:17:38Z</time>
      </trkpt>
      <trkpt lat="44.85048" lon="6.11116">
        <ele>2250</ele>
        <time>2024-08-13T14:17:39Z</time>
      </trkpt>
      <trkpt lat="44.8505" lon="6.11115">
        <ele>2249.6</ele>
        <time>2024-08-13T14:17:40Z</time>
      </trkpt>
      <trkpt lat="44.8505" lon="6.11115">
        <ele>2249</ele>
        <time>2024-08-13T14:17:41Z</time>
      </trkpt>
      <trkpt lat="44.85053" lon="6.11115">
        <ele>2248.6</ele>
        <time>2024-08-13T14:17:42Z</time>
      </trkpt>
      <trkpt lat="44.85053" lon="6.11115">
        <ele>2248.4</ele>
        <time>2024-08-13T14:17:43Z</time>
      </trkpt>
      <trkpt lat="44.85053" lon="6.11115">
        <ele>2247.6</ele>
        <time>2024-08-13T14:17:44Z</time>
      </trkpt>
      <trkpt lat="44.85054" lon="6.11113">
        <ele>2247</ele>
        <time>2024-08-13T14:17:45Z</time>
      </trkpt>
      <trkpt lat="44.85054" lon="6.11113">
        <ele>2247</ele>
        <time>2024-08-13T14:17:46Z</time>
      </trkpt>
      <trkpt lat="44.85054" lon="6.11113">
        <ele>2246.8</ele>
        <time>2024-08-13T14:17:47Z</time>
      </trkpt>
      <trkpt lat="44.85053" lon="6.11111">
        <ele>2246.8</ele>
        <time>2024-08-13T14:17:48Z</time>
      </trkpt>
      <trkpt lat="44.85053" lon="6.11111">
        <ele>2247.2</ele>
        <time>2024-08-13T14:17:49Z</time>
      </trkpt>
      <trkpt lat="44.85053" lon="6.11111">
        <ele>2247.2</ele>
        <time>2024-08-13T14:17:50Z</time>
      </trkpt>
      <trkpt lat="44.85051" lon="6.11108">
        <ele>2247</ele>
        <time>2024-08-13T14:17:51Z</time>
      </trkpt>
      <trkpt lat="44.85051" lon="6.11108">
        <ele>2246.8</ele>
        <time>2024-08-13T14:17:52Z</time>
      </trkpt>
      <trkpt lat="44.85049" lon="6.11107">
        <ele>2246.4</ele>
        <time>2024-08-13T14:17:53Z</time>
      </trkpt>
      <trkpt lat="44.85049" lon="6.11107">
        <ele>2246.2</ele>
        <time>2024-08-13T14:17:54Z</time>
      </trkpt>
      <trkpt lat="44.85047" lon="6.11105">
        <ele>2245.8</ele>
        <time>2024-08-13T14:17:55Z</time>
      </trkpt>
      <trkpt lat="44.85047" lon="6.11105">
        <ele>2245.6</ele>
        <time>2024-08-13T14:17:56Z</time>
      </trkpt>
      <trkpt lat="44.85047" lon="6.11105">
        <ele>2245.4</ele>
        <time>2024-08-13T14:17:57Z</time>
      </trkpt>
      <trkpt lat="44.85047" lon="6.11105">
        <ele>2245.2</ele>
        <time>2024-08-13T14:17:58Z</time>
      </trkpt>
      <trkpt lat="44.85048" lon="6.11102">
        <ele>2244.8</ele>
        <time>2024-08-13T14:17:59Z</time>
      </trkpt>
      <trkpt lat="44.85048" lon="6.11102">
        <ele>2244.6</ele>
        <time>2024-08-13T14:18:00Z</time>
      </trkpt>
      <trkpt lat="44.8505" lon="6.11101">
        <ele>2244</ele>
        <time>2024-08-13T14:18:01Z</time>
      </trkpt>
      <trkpt lat="44.8505" lon="6.11101">
        <ele>2243.2</ele>
        <time>2024-08-13T14:18:02Z</time>
      </trkpt>
      <trkpt lat="44.85052" lon="6.111">
        <ele>2243</ele>
        <time>2024-08-13T14:18:03Z</time>
      </trkpt>
      <trkpt lat="44.85052" lon="6.111">
        <ele>2242.4</ele>
        <time>2024-08-13T14:18:04Z</time>
      </trkpt>
      <trkpt lat="44.85054" lon="6.111">
        <ele>2242.2</ele>
        <time>2024-08-13T14:18:05Z</time>
      </trkpt>
      <trkpt lat="44.85054" lon="6.111">
        <ele>2242.2</ele>
        <time>2024-08-13T14:18:06Z</time>
      </trkpt>
      <trkpt lat="44.85054" lon="6.111">
        <ele>2241.6</ele>
        <time>2024-08-13T14:18:07Z</time>
      </trkpt>
      <trkpt lat="44.85056" lon="6.11099">
        <ele>2241</ele>
        <time>2024-08-13T14:18:08Z</time>
      </trkpt>
      <trkpt lat="44.85056" lon="6.11099">
        <ele>2241</ele>
        <time>2024-08-13T14:18:09Z</time>
      </trkpt>
      <trkpt lat="44.85056" lon="6.11099">
        <ele>2241</ele>
        <time>2024-08-13T14:18:10Z</time>
      </trkpt>
      <trkpt lat="44.85058" lon="6.11097">
        <ele>2240.6</ele>
        <time>2024-08-13T14:18:11Z</time>
      </trkpt>
      <trkpt lat="44.85058" lon="6.11097">
        <ele>2240.4</ele>
        <time>2024-08-13T14:18:12Z</time>
      </trkpt>
      <trkpt lat="44.85058" lon="6.11097">
        <ele>2240.4</ele>
        <time>2024-08-13T14:18:13Z</time>
      </trkpt>
      <trkpt lat="44.8506" lon="6.11096">
        <ele>2240</ele>
        <time>2024-08-13T14:18:14Z</time>
      </trkpt>
      <trkpt lat="44.8506" lon="6.11096">
        <ele>2239.4</ele>
        <time>2024-08-13T14:18:15Z</time>
      </trkpt>
      <trkpt lat="44.8506" lon="6.11096">
        <ele>2239.2</ele>
        <time>2024-08-13T14:18:16Z</time>
      </trkpt>
      <trkpt lat="44.85062" lon="6.11095">
        <ele>2239</ele>
        <time>2024-08-13T14:18:17Z</time>
      </trkpt>
      <trkpt lat="44.85062" lon="6.11095">
        <ele>2238.6</ele>
        <time>2024-08-13T14:18:18Z</time>
      </trkpt>
      <trkpt lat="44.85064" lon="6.11094">
        <ele>2237.8</ele>
        <time>2024-08-13T14:18:19Z</time>
      </trkpt>
      <trkpt lat="44.85064" lon="6.11094">
        <ele>2237.4</ele>
        <time>2024-08-13T14:18:20Z</time>
      </trkpt>
      <trkpt lat="44.85064" lon="6.11094">
        <ele>2237</ele>
        <time>2024-08-13T14:18:21Z</time>
      </trkpt>
      <trkpt lat="44.85067" lon="6.11094">
        <ele>2236.6</ele>
        <time>2024-08-13T14:18:22Z</time>
      </trkpt>
      <trkpt lat="44.85067" lon="6.11094">
        <ele>2236.4</ele>
        <time>2024-08-13T14:18:23Z</time>
      </trkpt>
      <trkpt lat="44.85067" lon="6.11094">
        <ele>2236.4</ele>
        <time>2024-08-13T14:18:24Z</time>
      </trkpt>
      <trkpt lat="44.85069" lon="6.11092">
        <ele>2235.8</ele>
        <time>2024-08-13T14:18:25Z</time>
      </trkpt>
      <trkpt lat="44.85069" lon="6.11092">
        <ele>2235.2</ele>
        <time>2024-08-13T14:18:26Z</time>
      </trkpt>
      <trkpt lat="44.85071" lon="6.11092">
        <ele>2235.2</ele>
        <time>2024-08-13T14:18:27Z</time>
      </trkpt>
      <trkpt lat="44.85071" lon="6.11092">
        <ele>2235</ele>
        <time>2024-08-13T14:18:28Z</time>
      </trkpt>
      <trkpt lat="44.85073" lon="6.11093">
        <ele>2234.6</ele>
        <time>2024-08-13T14:18:29Z</time>
      </trkpt>
      <trkpt lat="44.85073" lon="6.11093">
        <ele>2234.2</ele>
        <time>2024-08-13T14:18:30Z</time>
      </trkpt>
      <trkpt lat="44.85075" lon="6.11094">
        <ele>2233.8</ele>
        <time>2024-08-13T14:18:31Z</time>
      </trkpt>
      <trkpt lat="44.85075" lon="6.11094">
        <ele>2233.4</ele>
        <time>2024-08-13T14:18:32Z</time>
      </trkpt>
      <trkpt lat="44.85075" lon="6.11094">
        <ele>2233.4</ele>
        <time>2024-08-13T14:18:33Z</time>
      </trkpt>
      <trkpt lat="44.85075" lon="6.11094">
        <ele>2233.2</ele>
        <time>2024-08-13T14:18:34Z</time>
      </trkpt>
      <trkpt lat="44.85075" lon="6.11091">
        <ele>2233.2</ele>
        <time>2024-08-13T14:18:35Z</time>
      </trkpt>
      <trkpt lat="44.85075" lon="6.11091">
        <ele>2233.2</ele>
        <time>2024-08-13T14:18:36Z</time>
      </trkpt>
      <trkpt lat="44.85075" lon="6.11088">
        <ele>2234.2</ele>
        <time>2024-08-13T14:18:37Z</time>
      </trkpt>
      <trkpt lat="44.85075" lon="6.11088">
        <ele>2235.4</ele>
        <time>2024-08-13T14:18:38Z</time>
      </trkpt>
      <trkpt lat="44.85075" lon="6.11088">
        <ele>2235.6</ele>
        <time>2024-08-13T14:18:39Z</time>
      </trkpt>
      <trkpt lat="44.85074" lon="6.11085">
        <ele>2235.6</ele>
        <time>2024-08-13T14:18:40Z</time>
      </trkpt>
      <trkpt lat="44.85074" lon="6.11085">
        <ele>2234</ele>
        <time>2024-08-13T14:18:41Z</time>
      </trkpt>
      <trkpt lat="44.85074" lon="6.11085">
        <ele>2233.4</ele>
        <time>2024-08-13T14:18:42Z</time>
      </trkpt>
      <trkpt lat="44.85076" lon="6.11083">
        <ele>2232.8</ele>
        <time>2024-08-13T14:18:43Z</time>
      </trkpt>
      <trkpt lat="44.85076" lon="6.11083">
        <ele>2232.6</ele>
        <time>2024-08-13T14:18:44Z</time>
      </trkpt>
      <trkpt lat="44.85076" lon="6.11083">
        <ele>2232.4</ele>
        <time>2024-08-13T14:18:45Z</time>
      </trkpt>
      <trkpt lat="44.85078" lon="6.11082">
        <ele>2231.2</ele>
        <time>2024-08-13T14:18:46Z</time>
      </trkpt>
      <trkpt lat="44.85078" lon="6.11082">
        <ele>2229.4</ele>
        <time>2024-08-13T14:18:47Z</time>
      </trkpt>
      <trkpt lat="44.85078" lon="6.11082">
        <ele>2229.2</ele>
        <time>2024-08-13T14:18:48Z</time>
      </trkpt>
      <trkpt lat="44.8508" lon="6.11083">
        <ele>2228.8</ele>
        <time>2024-08-13T14:18:49Z</time>
      </trkpt>
      <trkpt lat="44.8508" lon="6.11083">
        <ele>2228.6</ele>
        <time>2024-08-13T14:18:50Z</time>
      </trkpt>
      <trkpt lat="44.85081" lon="6.11086">
        <ele>2228</ele>
        <time>2024-08-13T14:18:51Z</time>
      </trkpt>
      <trkpt lat="44.85081" lon="6.11086">
        <ele>2228</ele>
        <time>2024-08-13T14:18:52Z</time>
      </trkpt>
      <trkpt lat="44.85082" lon="6.11088">
        <ele>2228.2</ele>
        <time>2024-08-13T14:18:53Z</time>
      </trkpt>
      <trkpt lat="44.85082" lon="6.11088">
        <ele>2228.8</ele>
        <time>2024-08-13T14:18:54Z</time>
      </trkpt>
      <trkpt lat="44.85084" lon="6.1109">
        <ele>2228.8</ele>
        <time>2024-08-13T14:18:55Z</time>
      </trkpt>
      <trkpt lat="44.85084" lon="6.1109">
        <ele>2228.6</ele>
        <time>2024-08-13T14:18:56Z</time>
      </trkpt>
      <trkpt lat="44.85084" lon="6.1109">
        <ele>2228</ele>
        <time>2024-08-13T14:18:57Z</time>
      </trkpt>
      <trkpt lat="44.85084" lon="6.1109">
        <ele>2227.8</ele>
        <time>2024-08-13T14:18:58Z</time>
      </trkpt>
      <trkpt lat="44.85086" lon="6.11091">
        <ele>2227.6</ele>
        <time>2024-08-13T14:18:59Z</time>
      </trkpt>
      <trkpt lat="44.85086" lon="6.11091">
        <ele>2227.2</ele>
        <time>2024-08-13T14:19:00Z</time>
      </trkpt>
      <trkpt lat="44.85086" lon="6.11091">
        <ele>2226.6</ele>
        <time>2024-08-13T14:19:01Z</time>
      </trkpt>
      <trkpt lat="44.85086" lon="6.11091">
        <ele>2226</ele>
        <time>2024-08-13T14:19:02Z</time>
      </trkpt>
      <trkpt lat="44.85088" lon="6.1109">
        <ele>2226</ele>
        <time>2024-08-13T14:19:03Z</time>
      </trkpt>
      <trkpt lat="44.85088" lon="6.1109">
        <ele>2225.8</ele>
        <time>2024-08-13T14:19:04Z</time>
      </trkpt>
      <trkpt lat="44.85088" lon="6.1109">
        <ele>2225.6</ele>
        <time>2024-08-13T14:19:05Z</time>
      </trkpt>
      <trkpt lat="44.8509" lon="6.1109">
        <ele>2225.6</ele>
        <time>2024-08-13T14:19:06Z</time>
      </trkpt>
      <trkpt lat="44.8509" lon="6.1109">
        <ele>2225</ele>
        <time>2024-08-13T14:19:07Z</time>
      </trkpt>
      <trkpt lat="44.8509" lon="6.1109">
        <ele>2224.8</ele>
        <time>2024-08-13T14:19:08Z</time>
      </trkpt>
      <trkpt lat="44.8509" lon="6.1109">
        <ele>2224.6</ele>
        <time>2024-08-13T14:19:09Z</time>
      </trkpt>
      <trkpt lat="44.85091" lon="6.11087">
        <ele>2224</ele>
        <time>2024-08-13T14:19:10Z</time>
      </trkpt>
      <trkpt lat="44.85091" lon="6.11087">
        <ele>2223.8</ele>
        <time>2024-08-13T14:19:11Z</time>
      </trkpt>
      <trkpt lat="44.85091" lon="6.11087">
        <ele>2223.8</ele>
        <time>2024-08-13T14:19:12Z</time>
      </trkpt>
      <trkpt lat="44.85091" lon="6.11087">
        <ele>2223.6</ele>
        <time>2024-08-13T14:19:13Z</time>
      </trkpt>
      <trkpt lat="44.85091" lon="6.11087">
        <ele>2222.6</ele>
        <time>2024-08-13T14:19:14Z</time>
      </trkpt>
      <trkpt lat="44.85092" lon="6.11088">
        <ele>2222.4</ele>
        <time>2024-08-13T14:19:15Z</time>
      </trkpt>
      <trkpt lat="44.85092" lon="6.11088">
        <ele>2222.4</ele>
        <time>2024-08-13T14:19:16Z</time>
      </trkpt>
      <trkpt lat="44.85093" lon="6.11091">
        <ele>2222.4</ele>
        <time>2024-08-13T14:19:17Z</time>
      </trkpt>
      <trkpt lat="44.85093" lon="6.11091">
        <ele>2222</ele>
        <time>2024-08-13T14:19:18Z</time>
      </trkpt>
      <trkpt lat="44.85096" lon="6.11092">
        <ele>2222</ele>
        <time>2024-08-13T14:19:19Z</time>
      </trkpt>
      <trkpt lat="44.85096" lon="6.11092">
        <ele>2221.8</ele>
        <time>2024-08-13T14:19:20Z</time>
      </trkpt>
      <trkpt lat="44.85098" lon="6.11091">
        <ele>2221.2</ele>
        <time>2024-08-13T14:19:21Z</time>
      </trkpt>
      <trkpt lat="44.85098" lon="6.11091">
        <ele>2221</ele>
        <time>2024-08-13T14:19:22Z</time>
      </trkpt>
      <trkpt lat="44.851" lon="6.11092">
        <ele>2221</ele>
        <time>2024-08-13T14:19:23Z</time>
      </trkpt>
      <trkpt lat="44.851" lon="6.11092">
        <ele>2220</ele>
        <time>2024-08-13T14:19:24Z</time>
      </trkpt>
      <trkpt lat="44.851" lon="6.11092">
        <ele>2219.6</ele>
        <time>2024-08-13T14:19:25Z</time>
      </trkpt>
      <trkpt lat="44.85102" lon="6.11092">
        <ele>2219.4</ele>
        <time>2024-08-13T14:19:26Z</time>
      </trkpt>
      <trkpt lat="44.85102" lon="6.11092">
        <ele>2218.8</ele>
        <time>2024-08-13T14:19:27Z</time>
      </trkpt>
      <trkpt lat="44.85102" lon="6.11092">
        <ele>2218.8</ele>
        <time>2024-08-13T14:19:28Z</time>
      </trkpt>
      <trkpt lat="44.85102" lon="6.11092">
        <ele>2218.4</ele>
        <time>2024-08-13T14:19:29Z</time>
      </trkpt>
      <trkpt lat="44.85104" lon="6.11091">
        <ele>2218</ele>
        <time>2024-08-13T14:19:30Z</time>
      </trkpt>
      <trkpt lat="44.85104" lon="6.11091">
        <ele>2218</ele>
        <time>2024-08-13T14:19:31Z</time>
      </trkpt>
      <trkpt lat="44.85105" lon="6.11089">
        <ele>2218.2</ele>
        <time>2024-08-13T14:19:32Z</time>
      </trkpt>
      <trkpt lat="44.85105" lon="6.11089">
        <ele>2218.2</ele>
        <time>2024-08-13T14:19:33Z</time>
      </trkpt>
      <trkpt lat="44.85105" lon="6.11089">
        <ele>2217.8</ele>
        <time>2024-08-13T14:19:34Z</time>
      </trkpt>
      <trkpt lat="44.85105" lon="6.11089">
        <ele>2217.2</ele>
        <time>2024-08-13T14:19:35Z</time>
      </trkpt>
      <trkpt lat="44.85105" lon="6.11089">
        <ele>2216.2</ele>
        <time>2024-08-13T14:19:36Z</time>
      </trkpt>
      <trkpt lat="44.85108" lon="6.11086">
        <ele>2215.8</ele>
        <time>2024-08-13T14:19:37Z</time>
      </trkpt>
      <trkpt lat="44.85108" lon="6.11086">
        <ele>2215.8</ele>
        <time>2024-08-13T14:19:38Z</time>
      </trkpt>
      <trkpt lat="44.85109" lon="6.11086">
        <ele>2215.6</ele>
        <time>2024-08-13T14:19:39Z</time>
      </trkpt>
      <trkpt lat="44.85109" lon="6.11086">
        <ele>2215</ele>
        <time>2024-08-13T14:19:40Z</time>
      </trkpt>
      <trkpt lat="44.85111" lon="6.11085">
        <ele>2214.8</ele>
        <time>2024-08-13T14:19:41Z</time>
      </trkpt>
      <trkpt lat="44.85111" lon="6.11085">
        <ele>2214.8</ele>
        <time>2024-08-13T14:19:42Z</time>
      </trkpt>
      <trkpt lat="44.85111" lon="6.11085">
        <ele>2215</ele>
        <time>2024-08-13T14:19:43Z</time>
      </trkpt>
      <trkpt lat="44.85111" lon="6.11085">
        <ele>2215.4</ele>
        <time>2024-08-13T14:19:44Z</time>
      </trkpt>
      <trkpt lat="44.85113" lon="6.11083">
        <ele>2215.6</ele>
        <time>2024-08-13T14:19:45Z</time>
      </trkpt>
      <trkpt lat="44.85113" lon="6.11083">
        <ele>2215.6</ele>
        <time>2024-08-13T14:19:46Z</time>
      </trkpt>
      <trkpt lat="44.85113" lon="6.11083">
        <ele>2215.6</ele>
        <time>2024-08-13T14:19:47Z</time>
      </trkpt>
      <trkpt lat="44.85113" lon="6.11083">
        <ele>2215</ele>
        <time>2024-08-13T14:19:48Z</time>
      </trkpt>
      <trkpt lat="44.85114" lon="6.1108">
        <ele>2214.6</ele>
        <time>2024-08-13T14:19:49Z</time>
      </trkpt>
      <trkpt lat="44.85114" lon="6.1108">
        <ele>2214.6</ele>
        <time>2024-08-13T14:19:50Z</time>
      </trkpt>
      <trkpt lat="44.85114" lon="6.1108">
        <ele>2214.6</ele>
        <time>2024-08-13T14:19:51Z</time>
      </trkpt>
      <trkpt lat="44.85116" lon="6.11078">
        <ele>2214.6</ele>
        <time>2024-08-13T14:19:52Z</time>
      </trkpt>
      <trkpt lat="44.85116" lon="6.11078">
        <ele>2214.4</ele>
        <time>2024-08-13T14:19:53Z</time>
      </trkpt>
      <trkpt lat="44.85116" lon="6.11078">
        <ele>2213.8</ele>
        <time>2024-08-13T14:19:54Z</time>
      </trkpt>
      <trkpt lat="44.85117" lon="6.11075">
        <ele>2213.4</ele>
        <time>2024-08-13T14:19:55Z</time>
      </trkpt>
      <trkpt lat="44.85117" lon="6.11075">
        <ele>2213.2</ele>
        <time>2024-08-13T14:19:56Z</time>
      </trkpt>
      <trkpt lat="44.85119" lon="6.11072">
        <ele>2213</ele>
        <time>2024-08-13T14:19:57Z</time>
      </trkpt>
      <trkpt lat="44.85119" lon="6.11072">
        <ele>2213</ele>
        <time>2024-08-13T14:19:58Z</time>
      </trkpt>
      <trkpt lat="44.85121" lon="6.11072">
        <ele>2212.6</ele>
        <time>2024-08-13T14:19:59Z</time>
      </trkpt>
      <trkpt lat="44.85121" lon="6.11072">
        <ele>2212.6</ele>
        <time>2024-08-13T14:20:00Z</time>
      </trkpt>
      <trkpt lat="44.85123" lon="6.11072">
        <ele>2212.4</ele>
        <time>2024-08-13T14:20:01Z</time>
      </trkpt>
      <trkpt lat="44.85123" lon="6.11072">
        <ele>2211.6</ele>
        <time>2024-08-13T14:20:02Z</time>
      </trkpt>
      <trkpt lat="44.85125" lon="6.11071">
        <ele>2211.6</ele>
        <time>2024-08-13T14:20:03Z</time>
      </trkpt>
      <trkpt lat="44.85125" lon="6.11071">
        <ele>2211.6</ele>
        <time>2024-08-13T14:20:04Z</time>
      </trkpt>
      <trkpt lat="44.85125" lon="6.11071">
        <ele>2211.4</ele>
        <time>2024-08-13T14:20:05Z</time>
      </trkpt>
      <trkpt lat="44.85127" lon="6.11069">
        <ele>2211.2</ele>
        <time>2024-08-13T14:20:06Z</time>
      </trkpt>
      <trkpt lat="44.85127" lon="6.11069">
        <ele>2211</ele>
        <time>2024-08-13T14:20:07Z</time>
      </trkpt>
      <trkpt lat="44.85129" lon="6.11066">
        <ele>2211</ele>
        <time>2024-08-13T14:20:08Z</time>
      </trkpt>
      <trkpt lat="44.85129" lon="6.11066">
        <ele>2210.8</ele>
        <time>2024-08-13T14:20:09Z</time>
      </trkpt>
      <trkpt lat="44.8513" lon="6.11064">
        <ele>2210.6</ele>
        <time>2024-08-13T14:20:10Z</time>
      </trkpt>
      <trkpt lat="44.8513" lon="6.11064">
        <ele>2210.2</ele>
        <time>2024-08-13T14:20:11Z</time>
      </trkpt>
      <trkpt lat="44.85132" lon="6.11061">
        <ele>2209.8</ele>
        <time>2024-08-13T14:20:12Z</time>
      </trkpt>
      <trkpt lat="44.85132" lon="6.11061">
        <ele>2209.8</ele>
        <time>2024-08-13T14:20:13Z</time>
      </trkpt>
      <trkpt lat="44.85134" lon="6.11058">
        <ele>2209.6</ele>
        <time>2024-08-13T14:20:14Z</time>
      </trkpt>
      <trkpt lat="44.85134" lon="6.11058">
        <ele>2209.6</ele>
        <time>2024-08-13T14:20:15Z</time>
      </trkpt>
      <trkpt lat="44.85136" lon="6.11056">
        <ele>2209.6</ele>
        <time>2024-08-13T14:20:16Z</time>
      </trkpt>
      <trkpt lat="44.85136" lon="6.11056">
        <ele>2209.6</ele>
        <time>2024-08-13T14:20:17Z</time>
      </trkpt>
      <trkpt lat="44.85137" lon="6.11054">
        <ele>2209.6</ele>
        <time>2024-08-13T14:20:18Z</time>
      </trkpt>
      <trkpt lat="44.85137" lon="6.11054">
        <ele>2210</ele>
        <time>2024-08-13T14:20:19Z</time>
      </trkpt>
      <trkpt lat="44.85137" lon="6.11054">
        <ele>2210</ele>
        <time>2024-08-13T14:20:20Z</time>
      </trkpt>
      <trkpt lat="44.85138" lon="6.11051">
        <ele>2209.8</ele>
        <time>2024-08-13T14:20:21Z</time>
      </trkpt>
      <trkpt lat="44.85138" lon="6.11051">
        <ele>2209.4</ele>
        <time>2024-08-13T14:20:22Z</time>
      </trkpt>
      <trkpt lat="44.85138" lon="6.11051">
        <ele>2209</ele>
        <time>2024-08-13T14:20:23Z</time>
      </trkpt>
      <trkpt lat="44.85138" lon="6.11048">
        <ele>2208.8</ele>
        <time>2024-08-13T14:20:24Z</time>
      </trkpt>
      <trkpt lat="44.85138" lon="6.11048">
        <ele>2208.2</ele>
        <time>2024-08-13T14:20:25Z</time>
      </trkpt>
      <trkpt lat="44.8514" lon="6.11046">
        <ele>2208</ele>
        <time>2024-08-13T14:20:26Z</time>
      </trkpt>
      <trkpt lat="44.8514" lon="6.11046">
        <ele>2207.8</ele>
        <time>2024-08-13T14:20:27Z</time>
      </trkpt>
      <trkpt lat="44.8514" lon="6.11046">
        <ele>2207.2</ele>
        <time>2024-08-13T14:20:28Z</time>
      </trkpt>
      <trkpt lat="44.8514" lon="6.11042">
        <ele>2207</ele>
        <time>2024-08-13T14:20:29Z</time>
      </trkpt>
      <trkpt lat="44.8514" lon="6.11042">
        <ele>2207</ele>
        <time>2024-08-13T14:20:30Z</time>
      </trkpt>
      <trkpt lat="44.8514" lon="6.11042">
        <ele>2206.4</ele>
        <time>2024-08-13T14:20:31Z</time>
      </trkpt>
      <trkpt lat="44.85141" lon="6.11039">
        <ele>2206.2</ele>
        <time>2024-08-13T14:20:32Z</time>
      </trkpt>
      <trkpt lat="44.85141" lon="6.11039">
        <ele>2205.6</ele>
        <time>2024-08-13T14:20:33Z</time>
      </trkpt>
      <trkpt lat="44.85141" lon="6.11039">
        <ele>2205.6</ele>
        <time>2024-08-13T14:20:34Z</time>
      </trkpt>
      <trkpt lat="44.85142" lon="6.11037">
        <ele>2205.4</ele>
        <time>2024-08-13T14:20:35Z</time>
      </trkpt>
      <trkpt lat="44.85142" lon="6.11037">
        <ele>2204.6</ele>
        <time>2024-08-13T14:20:36Z</time>
      </trkpt>
      <trkpt lat="44.85144" lon="6.11034">
        <ele>2204</ele>
        <time>2024-08-13T14:20:37Z</time>
      </trkpt>
      <trkpt lat="44.85144" lon="6.11034">
        <ele>2203.4</ele>
        <time>2024-08-13T14:20:38Z</time>
      </trkpt>
      <trkpt lat="44.85145" lon="6.11032">
        <ele>2203.4</ele>
        <time>2024-08-13T14:20:39Z</time>
      </trkpt>
      <trkpt lat="44.85145" lon="6.11032">
        <ele>2203.4</ele>
        <time>2024-08-13T14:20:40Z</time>
      </trkpt>
      <trkpt lat="44.85145" lon="6.11032">
        <ele>2203.2</ele>
        <time>2024-08-13T14:20:41Z</time>
      </trkpt>
      <trkpt lat="44.85146" lon="6.1103">
        <ele>2202.8</ele>
        <time>2024-08-13T14:20:42Z</time>
      </trkpt>
      <trkpt lat="44.85146" lon="6.1103">
        <ele>2202.8</ele>
        <time>2024-08-13T14:20:43Z</time>
      </trkpt>
      <trkpt lat="44.85146" lon="6.1103">
        <ele>2201.6</ele>
        <time>2024-08-13T14:20:44Z</time>
      </trkpt>
      <trkpt lat="44.85148" lon="6.11026">
        <ele>2201.2</ele>
        <time>2024-08-13T14:20:45Z</time>
      </trkpt>
      <trkpt lat="44.85148" lon="6.11026">
        <ele>2201</ele>
        <time>2024-08-13T14:20:46Z</time>
      </trkpt>
      <trkpt lat="44.85148" lon="6.11026">
        <ele>2200.8</ele>
        <time>2024-08-13T14:20:47Z</time>
      </trkpt>
      <trkpt lat="44.85149" lon="6.11023">
        <ele>2201.6</ele>
        <time>2024-08-13T14:20:48Z</time>
      </trkpt>
      <trkpt lat="44.85149" lon="6.11023">
        <ele>2201.6</ele>
        <time>2024-08-13T14:20:49Z</time>
      </trkpt>
      <trkpt lat="44.85149" lon="6.11023">
        <ele>2201</ele>
        <time>2024-08-13T14:20:50Z</time>
      </trkpt>
      <trkpt lat="44.8515" lon="6.1102">
        <ele>2200.4</ele>
        <time>2024-08-13T14:20:51Z</time>
      </trkpt>
      <trkpt lat="44.8515" lon="6.1102">
        <ele>2200.2</ele>
        <time>2024-08-13T14:20:52Z</time>
      </trkpt>
      <trkpt lat="44.8515" lon="6.1102">
        <ele>2199.4</ele>
        <time>2024-08-13T14:20:53Z</time>
      </trkpt>
      <trkpt lat="44.85151" lon="6.11018">
        <ele>2199.4</ele>
        <time>2024-08-13T14:20:54Z</time>
      </trkpt>
      <trkpt lat="44.85151" lon="6.11018">
        <ele>2199.4</ele>
        <time>2024-08-13T14:20:55Z</time>
      </trkpt>
      <trkpt lat="44.85151" lon="6.11018">
        <ele>2199.4</ele>
        <time>2024-08-13T14:20:56Z</time>
      </trkpt>
      <trkpt lat="44.85151" lon="6.11018">
        <ele>2199.4</ele>
        <time>2024-08-13T14:20:57Z</time>
      </trkpt>
      <trkpt lat="44.85152" lon="6.11015">
        <ele>2199.4</ele>
        <time>2024-08-13T14:20:58Z</time>
      </trkpt>
      <trkpt lat="44.85152" lon="6.11015">
        <ele>2198.6</ele>
        <time>2024-08-13T14:20:59Z</time>
      </trkpt>
      <trkpt lat="44.85153" lon="6.11013">
        <ele>2197.8</ele>
        <time>2024-08-13T14:21:00Z</time>
      </trkpt>
      <trkpt lat="44.85153" lon="6.11013">
        <ele>2197.4</ele>
        <time>2024-08-13T14:21:01Z</time>
      </trkpt>
      <trkpt lat="44.85153" lon="6.11013">
        <ele>2196.8</ele>
        <time>2024-08-13T14:21:02Z</time>
      </trkpt>
      <trkpt lat="44.85154" lon="6.1101">
        <ele>2196.8</ele>
        <time>2024-08-13T14:21:03Z</time>
      </trkpt>
      <trkpt lat="44.85154" lon="6.1101">
        <ele>2196.8</ele>
        <time>2024-08-13T14:21:04Z</time>
      </trkpt>
      <trkpt lat="44.85156" lon="6.11008">
        <ele>2197</ele>
        <time>2024-08-13T14:21:05Z</time>
      </trkpt>
      <trkpt lat="44.85156" lon="6.11008">
        <ele>2197</ele>
        <time>2024-08-13T14:21:06Z</time>
      </trkpt>
      <trkpt lat="44.85157" lon="6.11006">
        <ele>2195.8</ele>
        <time>2024-08-13T14:21:07Z</time>
      </trkpt>
      <trkpt lat="44.85157" lon="6.11006">
        <ele>2195.2</ele>
        <time>2024-08-13T14:21:08Z</time>
      </trkpt>
      <trkpt lat="44.85157" lon="6.11006">
        <ele>2195.2</ele>
        <time>2024-08-13T14:21:09Z</time>
      </trkpt>
      <trkpt lat="44.85159" lon="6.11004">
        <ele>2194.6</ele>
        <time>2024-08-13T14:21:10Z</time>
      </trkpt>
      <trkpt lat="44.85159" lon="6.11004">
        <ele>2193.8</ele>
        <time>2024-08-13T14:21:11Z</time>
      </trkpt>
      <trkpt lat="44.85159" lon="6.11004">
        <ele>2193.4</ele>
        <time>2024-08-13T14:21:12Z</time>
      </trkpt>
      <trkpt lat="44.8516" lon="6.11001">
        <ele>2193.4</ele>
        <time>2024-08-13T14:21:13Z</time>
      </trkpt>
      <trkpt lat="44.8516" lon="6.11001">
        <ele>2193.6</ele>
        <time>2024-08-13T14:21:14Z</time>
      </trkpt>
      <trkpt lat="44.8516" lon="6.11001">
        <ele>2193.6</ele>
        <time>2024-08-13T14:21:15Z</time>
      </trkpt>
      <trkpt lat="44.85161" lon="6.10998">
        <ele>2193.2</ele>
        <time>2024-08-13T14:21:16Z</time>
      </trkpt>
      <trkpt lat="44.85161" lon="6.10998">
        <ele>2193.2</ele>
        <time>2024-08-13T14:21:17Z</time>
      </trkpt>
      <trkpt lat="44.85162" lon="6.10995">
        <ele>2192.8</ele>
        <time>2024-08-13T14:21:18Z</time>
      </trkpt>
      <trkpt lat="44.85162" lon="6.10995">
        <ele>2192.6</ele>
        <time>2024-08-13T14:21:19Z</time>
      </trkpt>
      <trkpt lat="44.85162" lon="6.10995">
        <ele>2192.6</ele>
        <time>2024-08-13T14:21:20Z</time>
      </trkpt>
      <trkpt lat="44.85164" lon="6.10993">
        <ele>2192.2</ele>
        <time>2024-08-13T14:21:21Z</time>
      </trkpt>
      <trkpt lat="44.85164" lon="6.10993">
        <ele>2191.6</ele>
        <time>2024-08-13T14:21:22Z</time>
      </trkpt>
      <trkpt lat="44.85165" lon="6.10991">
        <ele>2191.2</ele>
        <time>2024-08-13T14:21:23Z</time>
      </trkpt>
      <trkpt lat="44.85165" lon="6.10991">
        <ele>2191</ele>
        <time>2024-08-13T14:21:24Z</time>
      </trkpt>
      <trkpt lat="44.85165" lon="6.10988">
        <ele>2190.6</ele>
        <time>2024-08-13T14:21:25Z</time>
      </trkpt>
      <trkpt lat="44.85165" lon="6.10988">
        <ele>2190.4</ele>
        <time>2024-08-13T14:21:26Z</time>
      </trkpt>
      <trkpt lat="44.85167" lon="6.10986">
        <ele>2190.2</ele>
        <time>2024-08-13T14:21:27Z</time>
      </trkpt>
      <trkpt lat="44.85167" lon="6.10986">
        <ele>2190</ele>
        <time>2024-08-13T14:21:28Z</time>
      </trkpt>
      <trkpt lat="44.85168" lon="6.10984">
        <ele>2189.6</ele>
        <time>2024-08-13T14:21:29Z</time>
      </trkpt>
      <trkpt lat="44.85168" lon="6.10984">
        <ele>2189</ele>
        <time>2024-08-13T14:21:30Z</time>
      </trkpt>
      <trkpt lat="44.85169" lon="6.10982">
        <ele>2188.8</ele>
        <time>2024-08-13T14:21:31Z</time>
      </trkpt>
      <trkpt lat="44.85169" lon="6.10982">
        <ele>2188.6</ele>
        <time>2024-08-13T14:21:32Z</time>
      </trkpt>
      <trkpt lat="44.8517" lon="6.1098">
        <ele>2188.4</ele>
        <time>2024-08-13T14:21:33Z</time>
      </trkpt>
      <trkpt lat="44.8517" lon="6.1098">
        <ele>2187.6</ele>
        <time>2024-08-13T14:21:34Z</time>
      </trkpt>
      <trkpt lat="44.85172" lon="6.10977">
        <ele>2187.4</ele>
        <time>2024-08-13T14:21:35Z</time>
      </trkpt>
      <trkpt lat="44.85172" lon="6.10977">
        <ele>2187.4</ele>
        <time>2024-08-13T14:21:36Z</time>
      </trkpt>
      <trkpt lat="44.85172" lon="6.10977">
        <ele>2187.2</ele>
        <time>2024-08-13T14:21:37Z</time>
      </trkpt>
      <trkpt lat="44.85172" lon="6.10975">
        <ele>2187</ele>
        <time>2024-08-13T14:21:38Z</time>
      </trkpt>
      <trkpt lat="44.85172" lon="6.10975">
        <ele>2186.4</ele>
        <time>2024-08-13T14:21:39Z</time>
      </trkpt>
      <trkpt lat="44.85172" lon="6.10975">
        <ele>2186.4</ele>
        <time>2024-08-13T14:21:40Z</time>
      </trkpt>
      <trkpt lat="44.85173" lon="6.10971">
        <ele>2185.8</ele>
        <time>2024-08-13T14:21:41Z</time>
      </trkpt>
      <trkpt lat="44.85173" lon="6.10971">
        <ele>2185.8</ele>
        <time>2024-08-13T14:21:42Z</time>
      </trkpt>
      <trkpt lat="44.85173" lon="6.10971">
        <ele>2185.6</ele>
        <time>2024-08-13T14:21:43Z</time>
      </trkpt>
      <trkpt lat="44.85175" lon="6.10968">
        <ele>2185</ele>
        <time>2024-08-13T14:21:44Z</time>
      </trkpt>
      <trkpt lat="44.85175" lon="6.10968">
        <ele>2183.8</ele>
        <time>2024-08-13T14:21:45Z</time>
      </trkpt>
      <trkpt lat="44.85175" lon="6.10968">
        <ele>2183.4</ele>
        <time>2024-08-13T14:21:46Z</time>
      </trkpt>
      <trkpt lat="44.85177" lon="6.10965">
        <ele>2183.2</ele>
        <time>2024-08-13T14:21:47Z</time>
      </trkpt>
      <trkpt lat="44.85177" lon="6.10965">
        <ele>2183</ele>
        <time>2024-08-13T14:21:48Z</time>
      </trkpt>
      <trkpt lat="44.85177" lon="6.10965">
        <ele>2183</ele>
        <time>2024-08-13T14:21:49Z</time>
      </trkpt>
      <trkpt lat="44.85179" lon="6.10963">
        <ele>2182.8</ele>
        <time>2024-08-13T14:21:50Z</time>
      </trkpt>
      <trkpt lat="44.85179" lon="6.10963">
        <ele>2182</ele>
        <time>2024-08-13T14:21:51Z</time>
      </trkpt>
      <trkpt lat="44.8518" lon="6.10961">
        <ele>2181.6</ele>
        <time>2024-08-13T14:21:52Z</time>
      </trkpt>
      <trkpt lat="44.8518" lon="6.10961">
        <ele>2181.6</ele>
        <time>2024-08-13T14:21:53Z</time>
      </trkpt>
      <trkpt lat="44.8518" lon="6.10961">
        <ele>2181.2</ele>
        <time>2024-08-13T14:21:54Z</time>
      </trkpt>
      <trkpt lat="44.85182" lon="6.10958">
        <ele>2181.2</ele>
        <time>2024-08-13T14:21:55Z</time>
      </trkpt>
      <trkpt lat="44.85182" lon="6.10958">
        <ele>2180.4</ele>
        <time>2024-08-13T14:21:56Z</time>
      </trkpt>
      <trkpt lat="44.85182" lon="6.10958">
        <ele>2180.4</ele>
        <time>2024-08-13T14:21:57Z</time>
      </trkpt>
      <trkpt lat="44.85183" lon="6.10956">
        <ele>2180.8</ele>
        <time>2024-08-13T14:21:58Z</time>
      </trkpt>
      <trkpt lat="44.85183" lon="6.10956">
        <ele>2181</ele>
        <time>2024-08-13T14:21:59Z</time>
      </trkpt>
      <trkpt lat="44.85183" lon="6.10956">
        <ele>2181.4</ele>
        <time>2024-08-13T14:22:00Z</time>
      </trkpt>
      <trkpt lat="44.85185" lon="6.10953">
        <ele>2181.4</ele>
        <time>2024-08-13T14:22:01Z</time>
      </trkpt>
      <trkpt lat="44.85185" lon="6.10953">
        <ele>2180.6</ele>
        <time>2024-08-13T14:22:02Z</time>
      </trkpt>
      <trkpt lat="44.85185" lon="6.10953">
        <ele>2180.6</ele>
        <time>2024-08-13T14:22:03Z</time>
      </trkpt>
      <trkpt lat="44.85186" lon="6.1095">
        <ele>2180</ele>
        <time>2024-08-13T14:22:04Z</time>
      </trkpt>
      <trkpt lat="44.85186" lon="6.1095">
        <ele>2179.6</ele>
        <time>2024-08-13T14:22:05Z</time>
      </trkpt>
      <trkpt lat="44.85188" lon="6.10949">
        <ele>2179.4</ele>
        <time>2024-08-13T14:22:06Z</time>
      </trkpt>
      <trkpt lat="44.85188" lon="6.10949">
        <ele>2179</ele>
        <time>2024-08-13T14:22:07Z</time>
      </trkpt>
      <trkpt lat="44.85188" lon="6.10946">
        <ele>2179</ele>
        <time>2024-08-13T14:22:08Z</time>
      </trkpt>
      <trkpt lat="44.85188" lon="6.10946">
        <ele>2178.6</ele>
        <time>2024-08-13T14:22:09Z</time>
      </trkpt>
      <trkpt lat="44.85189" lon="6.10943">
        <ele>2178.2</ele>
        <time>2024-08-13T14:22:10Z</time>
      </trkpt>
      <trkpt lat="44.85189" lon="6.10943">
        <ele>2178</ele>
        <time>2024-08-13T14:22:11Z</time>
      </trkpt>
      <trkpt lat="44.85189" lon="6.10943">
        <ele>2178</ele>
        <time>2024-08-13T14:22:12Z</time>
      </trkpt>
      <trkpt lat="44.85189" lon="6.1094">
        <ele>2177</ele>
        <time>2024-08-13T14:22:13Z</time>
      </trkpt>
      <trkpt lat="44.85189" lon="6.1094">
        <ele>2175.8</ele>
        <time>2024-08-13T14:22:14Z</time>
      </trkpt>
      <trkpt lat="44.85191" lon="6.10939">
        <ele>2175.4</ele>
        <time>2024-08-13T14:22:15Z</time>
      </trkpt>
      <trkpt lat="44.85191" lon="6.10939">
        <ele>2175</ele>
        <time>2024-08-13T14:22:16Z</time>
      </trkpt>
      <trkpt lat="44.85191" lon="6.10939">
        <ele>2174.8</ele>
        <time>2024-08-13T14:22:17Z</time>
      </trkpt>
      <trkpt lat="44.85191" lon="6.10939">
        <ele>2174.6</ele>
        <time>2024-08-13T14:22:18Z</time>
      </trkpt>
      <trkpt lat="44.85191" lon="6.10939">
        <ele>2174.6</ele>
        <time>2024-08-13T14:22:19Z</time>
      </trkpt>
      <trkpt lat="44.85191" lon="6.10939">
        <ele>2174.6</ele>
        <time>2024-08-13T14:22:20Z</time>
      </trkpt>
      <trkpt lat="44.85191" lon="6.10939">
        <ele>2174.6</ele>
        <time>2024-08-13T14:22:21Z</time>
      </trkpt>
      <trkpt lat="44.85191" lon="6.10939">
        <ele>2174.8</ele>
        <time>2024-08-13T14:22:22Z</time>
      </trkpt>
      <trkpt lat="44.85191" lon="6.10939">
        <ele>2174.6</ele>
        <time>2024-08-13T14:22:23Z</time>
      </trkpt>
      <trkpt lat="44.85191" lon="6.10939">
        <ele>2174.4</ele>
        <time>2024-08-13T14:22:24Z</time>
      </trkpt>
      <trkpt lat="44.85191" lon="6.10939">
        <ele>2174.4</ele>
        <time>2024-08-13T14:22:25Z</time>
      </trkpt>
      <trkpt lat="44.85193" lon="6.10938">
        <ele>2174.2</ele>
        <time>2024-08-13T14:22:26Z</time>
      </trkpt>
      <trkpt lat="44.85193" lon="6.10938">
        <ele>2174.2</ele>
        <time>2024-08-13T14:22:27Z</time>
      </trkpt>
      <trkpt lat="44.85193" lon="6.10938">
        <ele>2173.8</ele>
        <time>2024-08-13T14:22:28Z</time>
      </trkpt>
      <trkpt lat="44.85195" lon="6.10937">
        <ele>2173.8</ele>
        <time>2024-08-13T14:22:29Z</time>
      </trkpt>
      <trkpt lat="44.85195" lon="6.10937">
        <ele>2173.6</ele>
        <time>2024-08-13T14:22:30Z</time>
      </trkpt>
      <trkpt lat="44.85197" lon="6.10938">
        <ele>2173.2</ele>
        <time>2024-08-13T14:22:31Z</time>
      </trkpt>
      <trkpt lat="44.85197" lon="6.10938">
        <ele>2173.2</ele>
        <time>2024-08-13T14:22:32Z</time>
      </trkpt>
      <trkpt lat="44.85197" lon="6.10938">
        <ele>2173</ele>
        <time>2024-08-13T14:22:33Z</time>
      </trkpt>
      <trkpt lat="44.85198" lon="6.10941">
        <ele>2173</ele>
        <time>2024-08-13T14:22:34Z</time>
      </trkpt>
      <trkpt lat="44.85198" lon="6.10941">
        <ele>2172.8</ele>
        <time>2024-08-13T14:22:35Z</time>
      </trkpt>
      <trkpt lat="44.85198" lon="6.10941">
        <ele>2172.8</ele>
        <time>2024-08-13T14:22:36Z</time>
      </trkpt>
      <trkpt lat="44.85199" lon="6.10943">
        <ele>2172.6</ele>
        <time>2024-08-13T14:22:37Z</time>
      </trkpt>
      <trkpt lat="44.85199" lon="6.10943">
        <ele>2172.4</ele>
        <time>2024-08-13T14:22:38Z</time>
      </trkpt>
      <trkpt lat="44.85199" lon="6.10943">
        <ele>2171.6</ele>
        <time>2024-08-13T14:22:39Z</time>
      </trkpt>
      <trkpt lat="44.85199" lon="6.10943">
        <ele>2171.2</ele>
        <time>2024-08-13T14:22:40Z</time>
      </trkpt>
      <trkpt lat="44.85202" lon="6.10944">
        <ele>2171</ele>
        <time>2024-08-13T14:22:41Z</time>
      </trkpt>
      <trkpt lat="44.85202" lon="6.10944">
        <ele>2170.4</ele>
        <time>2024-08-13T14:22:42Z</time>
      </trkpt>
      <trkpt lat="44.85202" lon="6.10944">
        <ele>2170</ele>
        <time>2024-08-13T14:22:43Z</time>
      </trkpt>
      <trkpt lat="44.85204" lon="6.10944">
        <ele>2169.8</ele>
        <time>2024-08-13T14:22:44Z</time>
      </trkpt>
      <trkpt lat="44.85204" lon="6.10944">
        <ele>2169.6</ele>
        <time>2024-08-13T14:22:45Z</time>
      </trkpt>
      <trkpt lat="44.85204" lon="6.10944">
        <ele>2169</ele>
        <time>2024-08-13T14:22:46Z</time>
      </trkpt>
      <trkpt lat="44.85205" lon="6.10943">
        <ele>2168.4</ele>
        <time>2024-08-13T14:22:47Z</time>
      </trkpt>
      <trkpt lat="44.85205" lon="6.10943">
        <ele>2168.2</ele>
        <time>2024-08-13T14:22:48Z</time>
      </trkpt>
      <trkpt lat="44.85205" lon="6.10943">
        <ele>2168</ele>
        <time>2024-08-13T14:22:49Z</time>
      </trkpt>
      <trkpt lat="44.85208" lon="6.10942">
        <ele>2168</ele>
        <time>2024-08-13T14:22:50Z</time>
      </trkpt>
      <trkpt lat="44.85208" lon="6.10942">
        <ele>2167.6</ele>
        <time>2024-08-13T14:22:51Z</time>
      </trkpt>
      <trkpt lat="44.8521" lon="6.10941">
        <ele>2167.6</ele>
        <time>2024-08-13T14:22:52Z</time>
      </trkpt>
      <trkpt lat="44.8521" lon="6.10941">
        <ele>2167.6</ele>
        <time>2024-08-13T14:22:53Z</time>
      </trkpt>
      <trkpt lat="44.85212" lon="6.10941">
        <ele>2166.8</ele>
        <time>2024-08-13T14:22:54Z</time>
      </trkpt>
      <trkpt lat="44.85212" lon="6.10941">
        <ele>2166</ele>
        <time>2024-08-13T14:22:55Z</time>
      </trkpt>
      <trkpt lat="44.85214" lon="6.10941">
        <ele>2165.6</ele>
        <time>2024-08-13T14:22:56Z</time>
      </trkpt>
      <trkpt lat="44.85214" lon="6.10941">
        <ele>2165.6</ele>
        <time>2024-08-13T14:22:57Z</time>
      </trkpt>
      <trkpt lat="44.85216" lon="6.10941">
        <ele>2165.4</ele>
        <time>2024-08-13T14:22:58Z</time>
      </trkpt>
      <trkpt lat="44.85216" lon="6.10941">
        <ele>2164.4</ele>
        <time>2024-08-13T14:22:59Z</time>
      </trkpt>
      <trkpt lat="44.85216" lon="6.10941">
        <ele>2164.2</ele>
        <time>2024-08-13T14:23:00Z</time>
      </trkpt>
      <trkpt lat="44.85218" lon="6.10941">
        <ele>2164.2</ele>
        <time>2024-08-13T14:23:01Z</time>
      </trkpt>
      <trkpt lat="44.85218" lon="6.10941">
        <ele>2164.2</ele>
        <time>2024-08-13T14:23:02Z</time>
      </trkpt>
      <trkpt lat="44.85221" lon="6.1094">
        <ele>2164.2</ele>
        <time>2024-08-13T14:23:03Z</time>
      </trkpt>
      <trkpt lat="44.85221" lon="6.1094">
        <ele>2163.6</ele>
        <time>2024-08-13T14:23:04Z</time>
      </trkpt>
      <trkpt lat="44.85222" lon="6.1094">
        <ele>2163.2</ele>
        <time>2024-08-13T14:23:05Z</time>
      </trkpt>
      <trkpt lat="44.85222" lon="6.1094">
        <ele>2163</ele>
        <time>2024-08-13T14:23:06Z</time>
      </trkpt>
      <trkpt lat="44.85222" lon="6.1094">
        <ele>2162.6</ele>
        <time>2024-08-13T14:23:07Z</time>
      </trkpt>
      <trkpt lat="44.85225" lon="6.1094">
        <ele>2162.6</ele>
        <time>2024-08-13T14:23:08Z</time>
      </trkpt>
      <trkpt lat="44.85225" lon="6.1094">
        <ele>2162.2</ele>
        <time>2024-08-13T14:23:09Z</time>
      </trkpt>
      <trkpt lat="44.85225" lon="6.1094">
        <ele>2162.2</ele>
        <time>2024-08-13T14:23:10Z</time>
      </trkpt>
      <trkpt lat="44.85227" lon="6.10939">
        <ele>2162.2</ele>
        <time>2024-08-13T14:23:11Z</time>
      </trkpt>
      <trkpt lat="44.85227" lon="6.10939">
        <ele>2161.8</ele>
        <time>2024-08-13T14:23:12Z</time>
      </trkpt>
      <trkpt lat="44.85229" lon="6.10939">
        <ele>2161.8</ele>
        <time>2024-08-13T14:23:13Z</time>
      </trkpt>
      <trkpt lat="44.85229" lon="6.10939">
        <ele>2161.8</ele>
        <time>2024-08-13T14:23:14Z</time>
      </trkpt>
      <trkpt lat="44.85229" lon="6.10939">
        <ele>2161.4</ele>
        <time>2024-08-13T14:23:15Z</time>
      </trkpt>
      <trkpt lat="44.85231" lon="6.10937">
        <ele>2161.2</ele>
        <time>2024-08-13T14:23:16Z</time>
      </trkpt>
      <trkpt lat="44.85231" lon="6.10937">
        <ele>2161.2</ele>
        <time>2024-08-13T14:23:17Z</time>
      </trkpt>
      <trkpt lat="44.85233" lon="6.10936">
        <ele>2160.6</ele>
        <time>2024-08-13T14:23:18Z</time>
      </trkpt>
      <trkpt lat="44.85233" lon="6.10936">
        <ele>2160.4</ele>
        <time>2024-08-13T14:23:19Z</time>
      </trkpt>
      <trkpt lat="44.85235" lon="6.10935">
        <ele>2160.2</ele>
        <time>2024-08-13T14:23:20Z</time>
      </trkpt>
      <trkpt lat="44.85235" lon="6.10935">
        <ele>2160.2</ele>
        <time>2024-08-13T14:23:21Z</time>
      </trkpt>
      <trkpt lat="44.85237" lon="6.10935">
        <ele>2159.8</ele>
        <time>2024-08-13T14:23:22Z</time>
      </trkpt>
      <trkpt lat="44.85237" lon="6.10935">
        <ele>2159.4</ele>
        <time>2024-08-13T14:23:23Z</time>
      </trkpt>
      <trkpt lat="44.85239" lon="6.10935">
        <ele>2159.4</ele>
        <time>2024-08-13T14:23:24Z</time>
      </trkpt>
      <trkpt lat="44.85239" lon="6.10935">
        <ele>2159.2</ele>
        <time>2024-08-13T14:23:25Z</time>
      </trkpt>
      <trkpt lat="44.85241" lon="6.10935">
        <ele>2158.8</ele>
        <time>2024-08-13T14:23:26Z</time>
      </trkpt>
      <trkpt lat="44.85241" lon="6.10935">
        <ele>2158.8</ele>
        <time>2024-08-13T14:23:27Z</time>
      </trkpt>
      <trkpt lat="44.85241" lon="6.10935">
        <ele>2158.8</ele>
        <time>2024-08-13T14:23:28Z</time>
      </trkpt>
      <trkpt lat="44.85244" lon="6.10935">
        <ele>2158.6</ele>
        <time>2024-08-13T14:23:29Z</time>
      </trkpt>
      <trkpt lat="44.85244" lon="6.10935">
        <ele>2158.6</ele>
        <time>2024-08-13T14:23:30Z</time>
      </trkpt>
      <trkpt lat="44.85246" lon="6.10935">
        <ele>2159</ele>
        <time>2024-08-13T14:23:31Z</time>
      </trkpt>
      <trkpt lat="44.85246" lon="6.10935">
        <ele>2159.2</ele>
        <time>2024-08-13T14:23:32Z</time>
      </trkpt>
      <trkpt lat="44.85248" lon="6.10935">
        <ele>2159.4</ele>
        <time>2024-08-13T14:23:33Z</time>
      </trkpt>
      <trkpt lat="44.85248" lon="6.10935">
        <ele>2159.4</ele>
        <time>2024-08-13T14:23:34Z</time>
      </trkpt>
      <trkpt lat="44.85251" lon="6.10935">
        <ele>2159.4</ele>
        <time>2024-08-13T14:23:35Z</time>
      </trkpt>
      <trkpt lat="44.85251" lon="6.10935">
        <ele>2159.8</ele>
        <time>2024-08-13T14:23:36Z</time>
      </trkpt>
      <trkpt lat="44.85253" lon="6.10935">
        <ele>2159.8</ele>
        <time>2024-08-13T14:23:37Z</time>
      </trkpt>
      <trkpt lat="44.85253" lon="6.10935">
        <ele>2159.8</ele>
        <time>2024-08-13T14:23:38Z</time>
      </trkpt>
      <trkpt lat="44.85255" lon="6.10935">
        <ele>2159.6</ele>
        <time>2024-08-13T14:23:39Z</time>
      </trkpt>
      <trkpt lat="44.85255" lon="6.10935">
        <ele>2159.6</ele>
        <time>2024-08-13T14:23:40Z</time>
      </trkpt>
      <trkpt lat="44.85257" lon="6.10934">
        <ele>2159.6</ele>
        <time>2024-08-13T14:23:41Z</time>
      </trkpt>
      <trkpt lat="44.85257" lon="6.10934">
        <ele>2159.4</ele>
        <time>2024-08-13T14:23:42Z</time>
      </trkpt>
      <trkpt lat="44.8526" lon="6.10934">
        <ele>2159.2</ele>
        <time>2024-08-13T14:23:43Z</time>
      </trkpt>
      <trkpt lat="44.8526" lon="6.10934">
        <ele>2159.2</ele>
        <time>2024-08-13T14:23:44Z</time>
      </trkpt>
      <trkpt lat="44.85261" lon="6.10933">
        <ele>2158.6</ele>
        <time>2024-08-13T14:23:45Z</time>
      </trkpt>
      <trkpt lat="44.85261" lon="6.10933">
        <ele>2158</ele>
        <time>2024-08-13T14:23:46Z</time>
      </trkpt>
      <trkpt lat="44.85264" lon="6.10932">
        <ele>2158</ele>
        <time>2024-08-13T14:23:47Z</time>
      </trkpt>
      <trkpt lat="44.85264" lon="6.10932">
        <ele>2157.8</ele>
        <time>2024-08-13T14:23:48Z</time>
      </trkpt>
      <trkpt lat="44.85267" lon="6.10931">
        <ele>2157.4</ele>
        <time>2024-08-13T14:23:49Z</time>
      </trkpt>
      <trkpt lat="44.85267" lon="6.10931">
        <ele>2157.4</ele>
        <time>2024-08-13T14:23:50Z</time>
      </trkpt>
      <trkpt lat="44.85269" lon="6.1093">
        <ele>2157.6</ele>
        <time>2024-08-13T14:23:51Z</time>
      </trkpt>
      <trkpt lat="44.85269" lon="6.1093">
        <ele>2157.6</ele>
        <time>2024-08-13T14:23:52Z</time>
      </trkpt>
      <trkpt lat="44.85271" lon="6.1093">
        <ele>2157.4</ele>
        <time>2024-08-13T14:23:53Z</time>
      </trkpt>
      <trkpt lat="44.85271" lon="6.1093">
        <ele>2157</ele>
        <time>2024-08-13T14:23:54Z</time>
      </trkpt>
      <trkpt lat="44.85273" lon="6.10929">
        <ele>2157</ele>
        <time>2024-08-13T14:23:55Z</time>
      </trkpt>
      <trkpt lat="44.85273" lon="6.10929">
        <ele>2156.8</ele>
        <time>2024-08-13T14:23:56Z</time>
      </trkpt>
      <trkpt lat="44.85275" lon="6.10931">
        <ele>2156.2</ele>
        <time>2024-08-13T14:23:57Z</time>
      </trkpt>
      <trkpt lat="44.85275" lon="6.10931">
        <ele>2156</ele>
        <time>2024-08-13T14:23:58Z</time>
      </trkpt>
      <trkpt lat="44.85277" lon="6.10931">
        <ele>2156</ele>
        <time>2024-08-13T14:23:59Z</time>
      </trkpt>
      <trkpt lat="44.85277" lon="6.10931">
        <ele>2156.2</ele>
        <time>2024-08-13T14:24:00Z</time>
      </trkpt>
      <trkpt lat="44.85279" lon="6.10931">
        <ele>2156.6</ele>
        <time>2024-08-13T14:24:01Z</time>
      </trkpt>
      <trkpt lat="44.85279" lon="6.10931">
        <ele>2157.2</ele>
        <time>2024-08-13T14:24:02Z</time>
      </trkpt>
      <trkpt lat="44.85281" lon="6.1093">
        <ele>2157.2</ele>
        <time>2024-08-13T14:24:03Z</time>
      </trkpt>
      <trkpt lat="44.85281" lon="6.1093">
        <ele>2157.2</ele>
        <time>2024-08-13T14:24:04Z</time>
      </trkpt>
      <trkpt lat="44.85283" lon="6.10929">
        <ele>2156.8</ele>
        <time>2024-08-13T14:24:05Z</time>
      </trkpt>
      <trkpt lat="44.85283" lon="6.10929">
        <ele>2156.2</ele>
        <time>2024-08-13T14:24:06Z</time>
      </trkpt>
      <trkpt lat="44.85285" lon="6.10927">
        <ele>2156.2</ele>
        <time>2024-08-13T14:24:07Z</time>
      </trkpt>
      <trkpt lat="44.85285" lon="6.10927">
        <ele>2156.4</ele>
        <time>2024-08-13T14:24:08Z</time>
      </trkpt>
      <trkpt lat="44.85286" lon="6.10925">
        <ele>2156.4</ele>
        <time>2024-08-13T14:24:09Z</time>
      </trkpt>
      <trkpt lat="44.85286" lon="6.10925">
        <ele>2156.4</ele>
        <time>2024-08-13T14:24:10Z</time>
      </trkpt>
      <trkpt lat="44.85289" lon="6.10924">
        <ele>2156.4</ele>
        <time>2024-08-13T14:24:11Z</time>
      </trkpt>
      <trkpt lat="44.85289" lon="6.10924">
        <ele>2156</ele>
        <time>2024-08-13T14:24:12Z</time>
      </trkpt>
      <trkpt lat="44.8529" lon="6.10922">
        <ele>2155.6</ele>
        <time>2024-08-13T14:24:13Z</time>
      </trkpt>
      <trkpt lat="44.8529" lon="6.10922">
        <ele>2155.4</ele>
        <time>2024-08-13T14:24:14Z</time>
      </trkpt>
      <trkpt lat="44.85292" lon="6.10921">
        <ele>2155.2</ele>
        <time>2024-08-13T14:24:15Z</time>
      </trkpt>
      <trkpt lat="44.85292" lon="6.10921">
        <ele>2154.8</ele>
        <time>2024-08-13T14:24:16Z</time>
      </trkpt>
      <trkpt lat="44.85292" lon="6.10921">
        <ele>2154.2</ele>
        <time>2024-08-13T14:24:17Z</time>
      </trkpt>
      <trkpt lat="44.85294" lon="6.1092">
        <ele>2154.2</ele>
        <time>2024-08-13T14:24:18Z</time>
      </trkpt>
      <trkpt lat="44.85294" lon="6.1092">
        <ele>2154.2</ele>
        <time>2024-08-13T14:24:19Z</time>
      </trkpt>
      <trkpt lat="44.85294" lon="6.1092">
        <ele>2154</ele>
        <time>2024-08-13T14:24:20Z</time>
      </trkpt>
      <trkpt lat="44.85296" lon="6.10917">
        <ele>2153.8</ele>
        <time>2024-08-13T14:24:21Z</time>
      </trkpt>
      <trkpt lat="44.85296" lon="6.10917">
        <ele>2153.8</ele>
        <time>2024-08-13T14:24:22Z</time>
      </trkpt>
      <trkpt lat="44.85296" lon="6.10917">
        <ele>2153.6</ele>
        <time>2024-08-13T14:24:23Z</time>
      </trkpt>
      <trkpt lat="44.85298" lon="6.10916">
        <ele>2153.6</ele>
        <time>2024-08-13T14:24:24Z</time>
      </trkpt>
      <trkpt lat="44.85298" lon="6.10916">
        <ele>2153</ele>
        <time>2024-08-13T14:24:25Z</time>
      </trkpt>
      <trkpt lat="44.85301" lon="6.10915">
        <ele>2152.2</ele>
        <time>2024-08-13T14:24:26Z</time>
      </trkpt>
      <trkpt lat="44.85301" lon="6.10915">
        <ele>2152</ele>
        <time>2024-08-13T14:24:27Z</time>
      </trkpt>
      <trkpt lat="44.85303" lon="6.10914">
        <ele>2152</ele>
        <time>2024-08-13T14:24:28Z</time>
      </trkpt>
      <trkpt lat="44.85303" lon="6.10914">
        <ele>2151.8</ele>
        <time>2024-08-13T14:24:29Z</time>
      </trkpt>
      <trkpt lat="44.85303" lon="6.10914">
        <ele>2151.2</ele>
        <time>2024-08-13T14:24:30Z</time>
      </trkpt>
      <trkpt lat="44.85305" lon="6.10913">
        <ele>2151</ele>
        <time>2024-08-13T14:24:31Z</time>
      </trkpt>
      <trkpt lat="44.85305" lon="6.10913">
        <ele>2151</ele>
        <time>2024-08-13T14:24:32Z</time>
      </trkpt>
      <trkpt lat="44.85305" lon="6.10913">
        <ele>2151</ele>
        <time>2024-08-13T14:24:33Z</time>
      </trkpt>
      <trkpt lat="44.85308" lon="6.10912">
        <ele>2151</ele>
        <time>2024-08-13T14:24:34Z</time>
      </trkpt>
      <trkpt lat="44.85308" lon="6.10912">
        <ele>2150.8</ele>
        <time>2024-08-13T14:24:35Z</time>
      </trkpt>
      <trkpt lat="44.85308" lon="6.10912">
        <ele>2150.8</ele>
        <time>2024-08-13T14:24:36Z</time>
      </trkpt>
      <trkpt lat="44.8531" lon="6.10911">
        <ele>2150.2</ele>
        <time>2024-08-13T14:24:37Z</time>
      </trkpt>
      <trkpt lat="44.8531" lon="6.10911">
        <ele>2150.2</ele>
        <time>2024-08-13T14:24:38Z</time>
      </trkpt>
      <trkpt lat="44.8531" lon="6.10911">
        <ele>2150.2</ele>
        <time>2024-08-13T14:24:39Z</time>
      </trkpt>
      <trkpt lat="44.8531" lon="6.10911">
        <ele>2150.2</ele>
        <time>2024-08-13T14:24:40Z</time>
      </trkpt>
      <trkpt lat="44.85312" lon="6.10909">
        <ele>2149.8</ele>
        <time>2024-08-13T14:24:41Z</time>
      </trkpt>
      <trkpt lat="44.85312" lon="6.10909">
        <ele>2149.8</ele>
        <time>2024-08-13T14:24:42Z</time>
      </trkpt>
      <trkpt lat="44.85314" lon="6.10908">
        <ele>2149.6</ele>
        <time>2024-08-13T14:24:43Z</time>
      </trkpt>
      <trkpt lat="44.85314" lon="6.10908">
        <ele>2149.6</ele>
        <time>2024-08-13T14:24:44Z</time>
      </trkpt>
      <trkpt lat="44.85316" lon="6.10907">
        <ele>2149.4</ele>
        <time>2024-08-13T14:24:45Z</time>
      </trkpt>
      <trkpt lat="44.85316" lon="6.10907">
        <ele>2148.8</ele>
        <time>2024-08-13T14:24:46Z</time>
      </trkpt>
      <trkpt lat="44.85318" lon="6.10906">
        <ele>2148.8</ele>
        <time>2024-08-13T14:24:47Z</time>
      </trkpt>
      <trkpt lat="44.85318" lon="6.10906">
        <ele>2149</ele>
        <time>2024-08-13T14:24:48Z</time>
      </trkpt>
      <trkpt lat="44.8532" lon="6.10906">
        <ele>2149.2</ele>
        <time>2024-08-13T14:24:49Z</time>
      </trkpt>
      <trkpt lat="44.8532" lon="6.10906">
        <ele>2149.4</ele>
        <time>2024-08-13T14:24:50Z</time>
      </trkpt>
      <trkpt lat="44.85323" lon="6.10906">
        <ele>2149.4</ele>
        <time>2024-08-13T14:24:51Z</time>
      </trkpt>
      <trkpt lat="44.85323" lon="6.10906">
        <ele>2149</ele>
        <time>2024-08-13T14:24:52Z</time>
      </trkpt>
      <trkpt lat="44.85323" lon="6.10906">
        <ele>2148.6</ele>
        <time>2024-08-13T14:24:53Z</time>
      </trkpt>
      <trkpt lat="44.85325" lon="6.10906">
        <ele>2148.4</ele>
        <time>2024-08-13T14:24:54Z</time>
      </trkpt>
      <trkpt lat="44.85325" lon="6.10906">
        <ele>2147.8</ele>
        <time>2024-08-13T14:24:55Z</time>
      </trkpt>
      <trkpt lat="44.85327" lon="6.10905">
        <ele>2147.6</ele>
        <time>2024-08-13T14:24:56Z</time>
      </trkpt>
      <trkpt lat="44.85327" lon="6.10905">
        <ele>2147.4</ele>
        <time>2024-08-13T14:24:57Z</time>
      </trkpt>
      <trkpt lat="44.85329" lon="6.10906">
        <ele>2146.8</ele>
        <time>2024-08-13T14:24:58Z</time>
      </trkpt>
      <trkpt lat="44.85329" lon="6.10906">
        <ele>2146.6</ele>
        <time>2024-08-13T14:24:59Z</time>
      </trkpt>
      <trkpt lat="44.85329" lon="6.10906">
        <ele>2146.2</ele>
        <time>2024-08-13T14:25:00Z</time>
      </trkpt>
      <trkpt lat="44.85331" lon="6.10907">
        <ele>2146.2</ele>
        <time>2024-08-13T14:25:01Z</time>
      </trkpt>
      <trkpt lat="44.85331" lon="6.10907">
        <ele>2145.4</ele>
        <time>2024-08-13T14:25:02Z</time>
      </trkpt>
      <trkpt lat="44.85331" lon="6.10907">
        <ele>2145.4</ele>
        <time>2024-08-13T14:25:03Z</time>
      </trkpt>
      <trkpt lat="44.85334" lon="6.10909">
        <ele>2145.2</ele>
        <time>2024-08-13T14:25:04Z</time>
      </trkpt>
      <trkpt lat="44.85334" lon="6.10909">
        <ele>2145.2</ele>
        <time>2024-08-13T14:25:05Z</time>
      </trkpt>
      <trkpt lat="44.85334" lon="6.10909">
        <ele>2145</ele>
        <time>2024-08-13T14:25:06Z</time>
      </trkpt>
      <trkpt lat="44.85336" lon="6.1091">
        <ele>2144.8</ele>
        <time>2024-08-13T14:25:07Z</time>
      </trkpt>
      <trkpt lat="44.85336" lon="6.1091">
        <ele>2144.6</ele>
        <time>2024-08-13T14:25:08Z</time>
      </trkpt>
      <trkpt lat="44.85336" lon="6.1091">
        <ele>2144.4</ele>
        <time>2024-08-13T14:25:09Z</time>
      </trkpt>
      <trkpt lat="44.85338" lon="6.10911">
        <ele>2144.2</ele>
        <time>2024-08-13T14:25:10Z</time>
      </trkpt>
      <trkpt lat="44.85338" lon="6.10911">
        <ele>2144.2</ele>
        <time>2024-08-13T14:25:11Z</time>
      </trkpt>
      <trkpt lat="44.85338" lon="6.10911">
        <ele>2143.4</ele>
        <time>2024-08-13T14:25:12Z</time>
      </trkpt>
      <trkpt lat="44.85338" lon="6.10911">
        <ele>2143.2</ele>
        <time>2024-08-13T14:25:13Z</time>
      </trkpt>
      <trkpt lat="44.85341" lon="6.10912">
        <ele>2142.8</ele>
        <time>2024-08-13T14:25:14Z</time>
      </trkpt>
      <trkpt lat="44.85341" lon="6.10912">
        <ele>2142.8</ele>
        <time>2024-08-13T14:25:15Z</time>
      </trkpt>
      <trkpt lat="44.85341" lon="6.10912">
        <ele>2142.6</ele>
        <time>2024-08-13T14:25:16Z</time>
      </trkpt>
      <trkpt lat="44.85341" lon="6.10912">
        <ele>2142.6</ele>
        <time>2024-08-13T14:25:17Z</time>
      </trkpt>
      <trkpt lat="44.85341" lon="6.10912">
        <ele>2143.4</ele>
        <time>2024-08-13T14:25:18Z</time>
      </trkpt>
      <trkpt lat="44.85342" lon="6.10911">
        <ele>2143.4</ele>
        <time>2024-08-13T14:25:19Z</time>
      </trkpt>
      <trkpt lat="44.85342" lon="6.10911">
        <ele>2143</ele>
        <time>2024-08-13T14:25:20Z</time>
      </trkpt>
      <trkpt lat="44.85342" lon="6.10911">
        <ele>2141.2</ele>
        <time>2024-08-13T14:25:21Z</time>
      </trkpt>
      <trkpt lat="44.85344" lon="6.10911">
        <ele>2140.6</ele>
        <time>2024-08-13T14:25:22Z</time>
      </trkpt>
      <trkpt lat="44.85344" lon="6.10911">
        <ele>2140.4</ele>
        <time>2024-08-13T14:25:23Z</time>
      </trkpt>
      <trkpt lat="44.85344" lon="6.10911">
        <ele>2140.4</ele>
        <time>2024-08-13T14:25:24Z</time>
      </trkpt>
      <trkpt lat="44.85347" lon="6.10911">
        <ele>2140.4</ele>
        <time>2024-08-13T14:25:25Z</time>
      </trkpt>
      <trkpt lat="44.85347" lon="6.10911">
        <ele>2140</ele>
        <time>2024-08-13T14:25:26Z</time>
      </trkpt>
      <trkpt lat="44.85349" lon="6.10912">
        <ele>2139.6</ele>
        <time>2024-08-13T14:25:27Z</time>
      </trkpt>
      <trkpt lat="44.85349" lon="6.10912">
        <ele>2139.4</ele>
        <time>2024-08-13T14:25:28Z</time>
      </trkpt>
      <trkpt lat="44.85351" lon="6.10912">
        <ele>2138.8</ele>
        <time>2024-08-13T14:25:29Z</time>
      </trkpt>
      <trkpt lat="44.85351" lon="6.10912">
        <ele>2137.8</ele>
        <time>2024-08-13T14:25:30Z</time>
      </trkpt>
      <trkpt lat="44.85353" lon="6.10914">
        <ele>2137.6</ele>
        <time>2024-08-13T14:25:31Z</time>
      </trkpt>
      <trkpt lat="44.85353" lon="6.10914">
        <ele>2137.6</ele>
        <time>2024-08-13T14:25:32Z</time>
      </trkpt>
      <trkpt lat="44.85354" lon="6.10917">
        <ele>2137.8</ele>
        <time>2024-08-13T14:25:33Z</time>
      </trkpt>
      <trkpt lat="44.85354" lon="6.10917">
        <ele>2138</ele>
        <time>2024-08-13T14:25:34Z</time>
      </trkpt>
      <trkpt lat="44.85354" lon="6.10917">
        <ele>2138.2</ele>
        <time>2024-08-13T14:25:35Z</time>
      </trkpt>
      <trkpt lat="44.85354" lon="6.1092">
        <ele>2138.4</ele>
        <time>2024-08-13T14:25:36Z</time>
      </trkpt>
      <trkpt lat="44.85354" lon="6.1092">
        <ele>2138.4</ele>
        <time>2024-08-13T14:25:37Z</time>
      </trkpt>
      <trkpt lat="44.85354" lon="6.1092">
        <ele>2138.4</ele>
        <time>2024-08-13T14:25:38Z</time>
      </trkpt>
      <trkpt lat="44.85354" lon="6.1092">
        <ele>2138.6</ele>
        <time>2024-08-13T14:25:39Z</time>
      </trkpt>
      <trkpt lat="44.85354" lon="6.1092">
        <ele>2138.8</ele>
        <time>2024-08-13T14:25:40Z</time>
      </trkpt>
      <trkpt lat="44.85354" lon="6.1092">
        <ele>2139</ele>
        <time>2024-08-13T14:25:41Z</time>
      </trkpt>
      <trkpt lat="44.85354" lon="6.1092">
        <ele>2139</ele>
        <time>2024-08-13T14:25:42Z</time>
      </trkpt>
      <trkpt lat="44.85354" lon="6.1092">
        <ele>2139</ele>
        <time>2024-08-13T14:25:43Z</time>
      </trkpt>
      <trkpt lat="44.85354" lon="6.1092">
        <ele>2139</ele>
        <time>2024-08-13T14:25:44Z</time>
      </trkpt>
      <trkpt lat="44.85354" lon="6.1092">
        <ele>2138.8</ele>
        <time>2024-08-13T14:25:45Z</time>
      </trkpt>
      <trkpt lat="44.85354" lon="6.10923">
        <ele>2139.2</ele>
        <time>2024-08-13T14:25:46Z</time>
      </trkpt>
      <trkpt lat="44.85354" lon="6.10923">
        <ele>2139.4</ele>
        <time>2024-08-13T14:25:47Z</time>
      </trkpt>
      <trkpt lat="44.85354" lon="6.10923">
        <ele>2140</ele>
        <time>2024-08-13T14:25:48Z</time>
      </trkpt>
      <trkpt lat="44.85354" lon="6.10923">
        <ele>2140</ele>
        <time>2024-08-13T14:25:49Z</time>
      </trkpt>
      <trkpt lat="44.85354" lon="6.10923">
        <ele>2139.6</ele>
        <time>2024-08-13T14:25:50Z</time>
      </trkpt>
      <trkpt lat="44.85354" lon="6.10923">
        <ele>2139.4</ele>
        <time>2024-08-13T14:25:51Z</time>
      </trkpt>
      <trkpt lat="44.85354" lon="6.10923">
        <ele>2139.4</ele>
        <time>2024-08-13T14:25:52Z</time>
      </trkpt>
      <trkpt lat="44.85354" lon="6.10923">
        <ele>2139.4</ele>
        <time>2024-08-13T14:25:53Z</time>
      </trkpt>
      <trkpt lat="44.85354" lon="6.10923">
        <ele>2139.8</ele>
        <time>2024-08-13T14:25:54Z</time>
      </trkpt>
      <trkpt lat="44.85354" lon="6.10923">
        <ele>2140.2</ele>
        <time>2024-08-13T14:25:55Z</time>
      </trkpt>
      <trkpt lat="44.85354" lon="6.10923">
        <ele>2140.4</ele>
        <time>2024-08-13T14:25:56Z</time>
      </trkpt>
      <trkpt lat="44.85354" lon="6.10923">
        <ele>2140.4</ele>
        <time>2024-08-13T14:25:57Z</time>
      </trkpt>
      <trkpt lat="44.85354" lon="6.10923">
        <ele>2140.4</ele>
        <time>2024-08-13T14:25:58Z</time>
      </trkpt>
      <trkpt lat="44.85354" lon="6.10923">
        <ele>2140.4</ele>
        <time>2024-08-13T14:25:59Z</time>
      </trkpt>
      <trkpt lat="44.85354" lon="6.10923">
        <ele>2140.4</ele>
        <time>2024-08-13T14:26:00Z</time>
      </trkpt>
      <trkpt lat="44.85354" lon="6.10923">
        <ele>2140.2</ele>
        <time>2024-08-13T14:26:01Z</time>
      </trkpt>
      <trkpt lat="44.85354" lon="6.10923">
        <ele>2139.8</ele>
        <time>2024-08-13T14:26:02Z</time>
      </trkpt>
      <trkpt lat="44.85354" lon="6.10923">
        <ele>2139.8</ele>
        <time>2024-08-13T14:26:03Z</time>
      </trkpt>
      <trkpt lat="44.85354" lon="6.10923">
        <ele>2139</ele>
        <time>2024-08-13T14:26:04Z</time>
      </trkpt>
      <trkpt lat="44.85354" lon="6.10923">
        <ele>2139</ele>
        <time>2024-08-13T14:26:05Z</time>
      </trkpt>
      <trkpt lat="44.85354" lon="6.10923">
        <ele>2139.4</ele>
        <time>2024-08-13T14:26:06Z</time>
      </trkpt>
      <trkpt lat="44.85354" lon="6.10923">
        <ele>2140</ele>
        <time>2024-08-13T14:26:07Z</time>
      </trkpt>
      <trkpt lat="44.85354" lon="6.10923">
        <ele>2140.8</ele>
        <time>2024-08-13T14:26:08Z</time>
      </trkpt>
      <trkpt lat="44.85354" lon="6.10923">
        <ele>2140.8</ele>
        <time>2024-08-13T14:26:09Z</time>
      </trkpt>
      <trkpt lat="44.85354" lon="6.10923">
        <ele>2140.8</ele>
        <time>2024-08-13T14:26:10Z</time>
      </trkpt>
      <trkpt lat="44.85354" lon="6.10923">
        <ele>2140.8</ele>
        <time>2024-08-13T14:26:11Z</time>
      </trkpt>
      <trkpt lat="44.85354" lon="6.10923">
        <ele>2140.8</ele>
        <time>2024-08-13T14:26:12Z</time>
      </trkpt>
      <trkpt lat="44.85354" lon="6.10923">
        <ele>2140.4</ele>
        <time>2024-08-13T14:26:13Z</time>
      </trkpt>
      <trkpt lat="44.85354" lon="6.10923">
        <ele>2140.4</ele>
        <time>2024-08-13T14:26:14Z</time>
      </trkpt>
      <trkpt lat="44.85354" lon="6.10923">
        <ele>2140.4</ele>
        <time>2024-08-13T14:26:15Z</time>
      </trkpt>
      <trkpt lat="44.85354" lon="6.10923">
        <ele>2140.4</ele>
        <time>2024-08-13T14:26:16Z</time>
      </trkpt>
      <trkpt lat="44.85354" lon="6.10923">
        <ele>2140.4</ele>
        <time>2024-08-13T14:26:17Z</time>
      </trkpt>
      <trkpt lat="44.85354" lon="6.10923">
        <ele>2140.4</ele>
        <time>2024-08-13T14:26:18Z</time>
      </trkpt>
      <trkpt lat="44.85354" lon="6.10923">
        <ele>2140.2</ele>
        <time>2024-08-13T14:26:19Z</time>
      </trkpt>
      <trkpt lat="44.85354" lon="6.10923">
        <ele>2140</ele>
        <time>2024-08-13T14:26:20Z</time>
      </trkpt>
      <trkpt lat="44.85354" lon="6.10923">
        <ele>2140</ele>
        <time>2024-08-13T14:26:21Z</time>
      </trkpt>
      <trkpt lat="44.85354" lon="6.10923">
        <ele>2140</ele>
        <time>2024-08-13T14:26:22Z</time>
      </trkpt>
      <trkpt lat="44.85354" lon="6.10923">
        <ele>2139.8</ele>
        <time>2024-08-13T14:26:23Z</time>
      </trkpt>
      <trkpt lat="44.85354" lon="6.10923">
        <ele>2139.6</ele>
        <time>2024-08-13T14:26:24Z</time>
      </trkpt>
      <trkpt lat="44.85354" lon="6.10923">
        <ele>2139.8</ele>
        <time>2024-08-13T14:26:25Z</time>
      </trkpt>
      <trkpt lat="44.85354" lon="6.10923">
        <ele>2139.8</ele>
        <time>2024-08-13T14:26:26Z</time>
      </trkpt>
      <trkpt lat="44.85354" lon="6.10923">
        <ele>2139.6</ele>
        <time>2024-08-13T14:26:27Z</time>
      </trkpt>
      <trkpt lat="44.85354" lon="6.10923">
        <ele>2139.4</ele>
        <time>2024-08-13T14:26:28Z</time>
      </trkpt>
      <trkpt lat="44.85354" lon="6.10923">
        <ele>2139</ele>
        <time>2024-08-13T14:26:29Z</time>
      </trkpt>
      <trkpt lat="44.85354" lon="6.10923">
        <ele>2138.6</ele>
        <time>2024-08-13T14:26:30Z</time>
      </trkpt>
      <trkpt lat="44.85356" lon="6.10925">
        <ele>2138.4</ele>
        <time>2024-08-13T14:26:31Z</time>
      </trkpt>
      <trkpt lat="44.85358" lon="6.10924">
        <ele>2138</ele>
        <time>2024-08-13T14:26:32Z</time>
      </trkpt>
      <trkpt lat="44.8536" lon="6.10924">
        <ele>2137.8</ele>
        <time>2024-08-13T14:26:33Z</time>
      </trkpt>
      <trkpt lat="44.8536" lon="6.10924">
        <ele>2137.2</ele>
        <time>2024-08-13T14:26:34Z</time>
      </trkpt>
      <trkpt lat="44.85363" lon="6.10923">
        <ele>2137</ele>
        <time>2024-08-13T14:26:35Z</time>
      </trkpt>
      <trkpt lat="44.85363" lon="6.10923">
        <ele>2137</ele>
        <time>2024-08-13T14:26:36Z</time>
      </trkpt>
      <trkpt lat="44.85363" lon="6.10923">
        <ele>2136.8</ele>
        <time>2024-08-13T14:26:37Z</time>
      </trkpt>
      <trkpt lat="44.85364" lon="6.10921">
        <ele>2136.4</ele>
        <time>2024-08-13T14:26:38Z</time>
      </trkpt>
      <trkpt lat="44.85364" lon="6.10921">
        <ele>2135.8</ele>
        <time>2024-08-13T14:26:39Z</time>
      </trkpt>
      <trkpt lat="44.85364" lon="6.10921">
        <ele>2135.8</ele>
        <time>2024-08-13T14:26:40Z</time>
      </trkpt>
      <trkpt lat="44.85366" lon="6.10919">
        <ele>2135.8</ele>
        <time>2024-08-13T14:26:41Z</time>
      </trkpt>
      <trkpt lat="44.85366" lon="6.10919">
        <ele>2135.6</ele>
        <time>2024-08-13T14:26:42Z</time>
      </trkpt>
      <trkpt lat="44.85366" lon="6.10919">
        <ele>2135</ele>
        <time>2024-08-13T14:26:43Z</time>
      </trkpt>
      <trkpt lat="44.85366" lon="6.10919">
        <ele>2134.4</ele>
        <time>2024-08-13T14:26:44Z</time>
      </trkpt>
      <trkpt lat="44.85367" lon="6.10916">
        <ele>2134.4</ele>
        <time>2024-08-13T14:26:45Z</time>
      </trkpt>
      <trkpt lat="44.85367" lon="6.10916">
        <ele>2134.2</ele>
        <time>2024-08-13T14:26:46Z</time>
      </trkpt>
      <trkpt lat="44.85367" lon="6.10916">
        <ele>2133.6</ele>
        <time>2024-08-13T14:26:47Z</time>
      </trkpt>
      <trkpt lat="44.85366" lon="6.10914">
        <ele>2133.6</ele>
        <time>2024-08-13T14:26:48Z</time>
      </trkpt>
      <trkpt lat="44.85366" lon="6.10914">
        <ele>2133.6</ele>
        <time>2024-08-13T14:26:49Z</time>
      </trkpt>
      <trkpt lat="44.85366" lon="6.10914">
        <ele>2133.4</ele>
        <time>2024-08-13T14:26:50Z</time>
      </trkpt>
      <trkpt lat="44.85368" lon="6.10911">
        <ele>2132.8</ele>
        <time>2024-08-13T14:26:51Z</time>
      </trkpt>
      <trkpt lat="44.85368" lon="6.10911">
        <ele>2132.6</ele>
        <time>2024-08-13T14:26:52Z</time>
      </trkpt>
      <trkpt lat="44.85368" lon="6.10911">
        <ele>2132</ele>
        <time>2024-08-13T14:26:53Z</time>
      </trkpt>
      <trkpt lat="44.8537" lon="6.10909">
        <ele>2131.4</ele>
        <time>2024-08-13T14:26:54Z</time>
      </trkpt>
      <trkpt lat="44.8537" lon="6.10909">
        <ele>2131</ele>
        <time>2024-08-13T14:26:55Z</time>
      </trkpt>
      <trkpt lat="44.8537" lon="6.10909">
        <ele>2131</ele>
        <time>2024-08-13T14:26:56Z</time>
      </trkpt>
      <trkpt lat="44.85371" lon="6.10906">
        <ele>2130.8</ele>
        <time>2024-08-13T14:26:57Z</time>
      </trkpt>
      <trkpt lat="44.85371" lon="6.10906">
        <ele>2130.6</ele>
        <time>2024-08-13T14:26:58Z</time>
      </trkpt>
      <trkpt lat="44.85372" lon="6.10904">
        <ele>2130.6</ele>
        <time>2024-08-13T14:26:59Z</time>
      </trkpt>
      <trkpt lat="44.85372" lon="6.10904">
        <ele>2130.2</ele>
        <time>2024-08-13T14:27:00Z</time>
      </trkpt>
      <trkpt lat="44.85372" lon="6.10904">
        <ele>2129.8</ele>
        <time>2024-08-13T14:27:01Z</time>
      </trkpt>
      <trkpt lat="44.85373" lon="6.10901">
        <ele>2129.4</ele>
        <time>2024-08-13T14:27:02Z</time>
      </trkpt>
      <trkpt lat="44.85373" lon="6.10901">
        <ele>2129.4</ele>
        <time>2024-08-13T14:27:03Z</time>
      </trkpt>
      <trkpt lat="44.85375" lon="6.109">
        <ele>2129</ele>
        <time>2024-08-13T14:27:04Z</time>
      </trkpt>
      <trkpt lat="44.85375" lon="6.109">
        <ele>2128.6</ele>
        <time>2024-08-13T14:27:05Z</time>
      </trkpt>
      <trkpt lat="44.85375" lon="6.109">
        <ele>2128.4</ele>
        <time>2024-08-13T14:27:06Z</time>
      </trkpt>
      <trkpt lat="44.85377" lon="6.10899">
        <ele>2128</ele>
        <time>2024-08-13T14:27:07Z</time>
      </trkpt>
      <trkpt lat="44.85377" lon="6.10899">
        <ele>2127.4</ele>
        <time>2024-08-13T14:27:08Z</time>
      </trkpt>
      <trkpt lat="44.85377" lon="6.10899">
        <ele>2127.2</ele>
        <time>2024-08-13T14:27:09Z</time>
      </trkpt>
      <trkpt lat="44.8538" lon="6.109">
        <ele>2126.8</ele>
        <time>2024-08-13T14:27:10Z</time>
      </trkpt>
      <trkpt lat="44.8538" lon="6.109">
        <ele>2126.6</ele>
        <time>2024-08-13T14:27:11Z</time>
      </trkpt>
      <trkpt lat="44.85382" lon="6.109">
        <ele>2126.4</ele>
        <time>2024-08-13T14:27:12Z</time>
      </trkpt>
      <trkpt lat="44.85382" lon="6.109">
        <ele>2126</ele>
        <time>2024-08-13T14:27:13Z</time>
      </trkpt>
      <trkpt lat="44.85384" lon="6.10901">
        <ele>2125.8</ele>
        <time>2024-08-13T14:27:14Z</time>
      </trkpt>
      <trkpt lat="44.85384" lon="6.10901">
        <ele>2125.8</ele>
        <time>2024-08-13T14:27:15Z</time>
      </trkpt>
      <trkpt lat="44.85384" lon="6.10901">
        <ele>2125.6</ele>
        <time>2024-08-13T14:27:16Z</time>
      </trkpt>
      <trkpt lat="44.85387" lon="6.10901">
        <ele>2125.6</ele>
        <time>2024-08-13T14:27:17Z</time>
      </trkpt>
      <trkpt lat="44.85387" lon="6.10901">
        <ele>2125.2</ele>
        <time>2024-08-13T14:27:18Z</time>
      </trkpt>
      <trkpt lat="44.85389" lon="6.109">
        <ele>2124.8</ele>
        <time>2024-08-13T14:27:19Z</time>
      </trkpt>
      <trkpt lat="44.85389" lon="6.109">
        <ele>2124.2</ele>
        <time>2024-08-13T14:27:20Z</time>
      </trkpt>
      <trkpt lat="44.8539" lon="6.10898">
        <ele>2123.8</ele>
        <time>2024-08-13T14:27:21Z</time>
      </trkpt>
      <trkpt lat="44.8539" lon="6.10898">
        <ele>2123.8</ele>
        <time>2024-08-13T14:27:22Z</time>
      </trkpt>
      <trkpt lat="44.8539" lon="6.10898">
        <ele>2123.6</ele>
        <time>2024-08-13T14:27:23Z</time>
      </trkpt>
      <trkpt lat="44.85392" lon="6.10898">
        <ele>2123.6</ele>
        <time>2024-08-13T14:27:24Z</time>
      </trkpt>
      <trkpt lat="44.85392" lon="6.10898">
        <ele>2123.6</ele>
        <time>2024-08-13T14:27:25Z</time>
      </trkpt>
      <trkpt lat="44.85392" lon="6.10898">
        <ele>2124</ele>
        <time>2024-08-13T14:27:26Z</time>
      </trkpt>
      <trkpt lat="44.85392" lon="6.10898">
        <ele>2123.8</ele>
        <time>2024-08-13T14:27:27Z</time>
      </trkpt>
      <trkpt lat="44.85392" lon="6.10898">
        <ele>2123.4</ele>
        <time>2024-08-13T14:27:28Z</time>
      </trkpt>
      <trkpt lat="44.85392" lon="6.10898">
        <ele>2123</ele>
        <time>2024-08-13T14:27:29Z</time>
      </trkpt>
      <trkpt lat="44.85392" lon="6.10898">
        <ele>2122.8</ele>
        <time>2024-08-13T14:27:30Z</time>
      </trkpt>
      <trkpt lat="44.85392" lon="6.10898">
        <ele>2122.4</ele>
        <time>2024-08-13T14:27:31Z</time>
      </trkpt>
      <trkpt lat="44.85395" lon="6.10898">
        <ele>2122.4</ele>
        <time>2024-08-13T14:27:32Z</time>
      </trkpt>
      <trkpt lat="44.85395" lon="6.10898">
        <ele>2122</ele>
        <time>2024-08-13T14:27:33Z</time>
      </trkpt>
      <trkpt lat="44.85397" lon="6.10898">
        <ele>2121.6</ele>
        <time>2024-08-13T14:27:34Z</time>
      </trkpt>
      <trkpt lat="44.85397" lon="6.10898">
        <ele>2121</ele>
        <time>2024-08-13T14:27:35Z</time>
      </trkpt>
      <trkpt lat="44.85399" lon="6.10898">
        <ele>2121</ele>
        <time>2024-08-13T14:27:36Z</time>
      </trkpt>
      <trkpt lat="44.85399" lon="6.10898">
        <ele>2120.8</ele>
        <time>2024-08-13T14:27:37Z</time>
      </trkpt>
      <trkpt lat="44.85399" lon="6.10898">
        <ele>2120.4</ele>
        <time>2024-08-13T14:27:38Z</time>
      </trkpt>
      <trkpt lat="44.854" lon="6.10894">
        <ele>2119.8</ele>
        <time>2024-08-13T14:27:39Z</time>
      </trkpt>
      <trkpt lat="44.854" lon="6.10894">
        <ele>2119.6</ele>
        <time>2024-08-13T14:27:40Z</time>
      </trkpt>
      <trkpt lat="44.85402" lon="6.10891">
        <ele>2119.2</ele>
        <time>2024-08-13T14:27:41Z</time>
      </trkpt>
      <trkpt lat="44.85402" lon="6.10891">
        <ele>2118.6</ele>
        <time>2024-08-13T14:27:42Z</time>
      </trkpt>
      <trkpt lat="44.85403" lon="6.10889">
        <ele>2117.6</ele>
        <time>2024-08-13T14:27:43Z</time>
      </trkpt>
      <trkpt lat="44.85403" lon="6.10889">
        <ele>2117.4</ele>
        <time>2024-08-13T14:27:44Z</time>
      </trkpt>
      <trkpt lat="44.85403" lon="6.10889">
        <ele>2117.4</ele>
        <time>2024-08-13T14:27:45Z</time>
      </trkpt>
      <trkpt lat="44.85405" lon="6.10886">
        <ele>2117.6</ele>
        <time>2024-08-13T14:27:46Z</time>
      </trkpt>
      <trkpt lat="44.85405" lon="6.10886">
        <ele>2117.6</ele>
        <time>2024-08-13T14:27:47Z</time>
      </trkpt>
      <trkpt lat="44.85406" lon="6.10884">
        <ele>2117.4</ele>
        <time>2024-08-13T14:27:48Z</time>
      </trkpt>
      <trkpt lat="44.85406" lon="6.10884">
        <ele>2117</ele>
        <time>2024-08-13T14:27:49Z</time>
      </trkpt>
      <trkpt lat="44.85407" lon="6.10882">
        <ele>2116.8</ele>
        <time>2024-08-13T14:27:50Z</time>
      </trkpt>
      <trkpt lat="44.85407" lon="6.10882">
        <ele>2116.4</ele>
        <time>2024-08-13T14:27:51Z</time>
      </trkpt>
      <trkpt lat="44.85408" lon="6.1088">
        <ele>2116.2</ele>
        <time>2024-08-13T14:27:52Z</time>
      </trkpt>
      <trkpt lat="44.85408" lon="6.1088">
        <ele>2115.8</ele>
        <time>2024-08-13T14:27:53Z</time>
      </trkpt>
      <trkpt lat="44.8541" lon="6.10878">
        <ele>2115.4</ele>
        <time>2024-08-13T14:27:54Z</time>
      </trkpt>
      <trkpt lat="44.8541" lon="6.10878">
        <ele>2115.2</ele>
        <time>2024-08-13T14:27:55Z</time>
      </trkpt>
      <trkpt lat="44.8541" lon="6.10878">
        <ele>2114.6</ele>
        <time>2024-08-13T14:27:56Z</time>
      </trkpt>
      <trkpt lat="44.85412" lon="6.10876">
        <ele>2114.6</ele>
        <time>2024-08-13T14:27:57Z</time>
      </trkpt>
      <trkpt lat="44.85412" lon="6.10876">
        <ele>2114</ele>
        <time>2024-08-13T14:27:58Z</time>
      </trkpt>
      <trkpt lat="44.85413" lon="6.10873">
        <ele>2113.6</ele>
        <time>2024-08-13T14:27:59Z</time>
      </trkpt>
      <trkpt lat="44.85413" lon="6.10873">
        <ele>2113.6</ele>
        <time>2024-08-13T14:28:00Z</time>
      </trkpt>
      <trkpt lat="44.85413" lon="6.10873">
        <ele>2113.4</ele>
        <time>2024-08-13T14:28:01Z</time>
      </trkpt>
      <trkpt lat="44.85416" lon="6.10873">
        <ele>2112.6</ele>
        <time>2024-08-13T14:28:02Z</time>
      </trkpt>
      <trkpt lat="44.85416" lon="6.10873">
        <ele>2112.6</ele>
        <time>2024-08-13T14:28:03Z</time>
      </trkpt>
      <trkpt lat="44.85418" lon="6.10872">
        <ele>2112.4</ele>
        <time>2024-08-13T14:28:04Z</time>
      </trkpt>
      <trkpt lat="44.85418" lon="6.10872">
        <ele>2112</ele>
        <time>2024-08-13T14:28:05Z</time>
      </trkpt>
      <trkpt lat="44.8542" lon="6.10872">
        <ele>2111.2</ele>
        <time>2024-08-13T14:28:06Z</time>
      </trkpt>
      <trkpt lat="44.8542" lon="6.10872">
        <ele>2111</ele>
        <time>2024-08-13T14:28:07Z</time>
      </trkpt>
      <trkpt lat="44.85421" lon="6.10871">
        <ele>2110.8</ele>
        <time>2024-08-13T14:28:08Z</time>
      </trkpt>
      <trkpt lat="44.85421" lon="6.10871">
        <ele>2110.4</ele>
        <time>2024-08-13T14:28:09Z</time>
      </trkpt>
      <trkpt lat="44.85423" lon="6.1087">
        <ele>2110.2</ele>
        <time>2024-08-13T14:28:10Z</time>
      </trkpt>
      <trkpt lat="44.85423" lon="6.1087">
        <ele>2110.2</ele>
        <time>2024-08-13T14:28:11Z</time>
      </trkpt>
      <trkpt lat="44.85425" lon="6.10869">
        <ele>2109.6</ele>
        <time>2024-08-13T14:28:12Z</time>
      </trkpt>
      <trkpt lat="44.85425" lon="6.10869">
        <ele>2109.4</ele>
        <time>2024-08-13T14:28:13Z</time>
      </trkpt>
      <trkpt lat="44.85427" lon="6.10868">
        <ele>2109.4</ele>
        <time>2024-08-13T14:28:14Z</time>
      </trkpt>
      <trkpt lat="44.85427" lon="6.10868">
        <ele>2109.2</ele>
        <time>2024-08-13T14:28:15Z</time>
      </trkpt>
      <trkpt lat="44.85429" lon="6.10867">
        <ele>2108.8</ele>
        <time>2024-08-13T14:28:16Z</time>
      </trkpt>
      <trkpt lat="44.85429" lon="6.10867">
        <ele>2108.6</ele>
        <time>2024-08-13T14:28:17Z</time>
      </trkpt>
      <trkpt lat="44.85431" lon="6.10865">
        <ele>2108.4</ele>
        <time>2024-08-13T14:28:18Z</time>
      </trkpt>
      <trkpt lat="44.85431" lon="6.10865">
        <ele>2108.2</ele>
        <time>2024-08-13T14:28:19Z</time>
      </trkpt>
      <trkpt lat="44.85433" lon="6.10863">
        <ele>2108.2</ele>
        <time>2024-08-13T14:28:20Z</time>
      </trkpt>
      <trkpt lat="44.85433" lon="6.10863">
        <ele>2107.8</ele>
        <time>2024-08-13T14:28:21Z</time>
      </trkpt>
      <trkpt lat="44.85435" lon="6.10861">
        <ele>2107.4</ele>
        <time>2024-08-13T14:28:22Z</time>
      </trkpt>
      <trkpt lat="44.85435" lon="6.10861">
        <ele>2107.4</ele>
        <time>2024-08-13T14:28:23Z</time>
      </trkpt>
      <trkpt lat="44.85435" lon="6.10861">
        <ele>2107.6</ele>
        <time>2024-08-13T14:28:24Z</time>
      </trkpt>
      <trkpt lat="44.85437" lon="6.10859">
        <ele>2107.4</ele>
        <time>2024-08-13T14:28:25Z</time>
      </trkpt>
      <trkpt lat="44.85437" lon="6.10859">
        <ele>2107.4</ele>
        <time>2024-08-13T14:28:26Z</time>
      </trkpt>
      <trkpt lat="44.85437" lon="6.10859">
        <ele>2106.8</ele>
        <time>2024-08-13T14:28:27Z</time>
      </trkpt>
      <trkpt lat="44.85439" lon="6.10858">
        <ele>2106.4</ele>
        <time>2024-08-13T14:28:28Z</time>
      </trkpt>
      <trkpt lat="44.85439" lon="6.10858">
        <ele>2105.6</ele>
        <time>2024-08-13T14:28:29Z</time>
      </trkpt>
      <trkpt lat="44.85439" lon="6.10858">
        <ele>2105.2</ele>
        <time>2024-08-13T14:28:30Z</time>
      </trkpt>
      <trkpt lat="44.85441" lon="6.10857">
        <ele>2105</ele>
        <time>2024-08-13T14:28:31Z</time>
      </trkpt>
      <trkpt lat="44.85441" lon="6.10857">
        <ele>2105</ele>
        <time>2024-08-13T14:28:32Z</time>
      </trkpt>
      <trkpt lat="44.85444" lon="6.10858">
        <ele>2104.8</ele>
        <time>2024-08-13T14:28:33Z</time>
      </trkpt>
      <trkpt lat="44.85444" lon="6.10858">
        <ele>2104.2</ele>
        <time>2024-08-13T14:28:34Z</time>
      </trkpt>
      <trkpt lat="44.85446" lon="6.10858">
        <ele>2103.6</ele>
        <time>2024-08-13T14:28:35Z</time>
      </trkpt>
      <trkpt lat="44.85446" lon="6.10858">
        <ele>2103</ele>
        <time>2024-08-13T14:28:36Z</time>
      </trkpt>
      <trkpt lat="44.85448" lon="6.10859">
        <ele>2102.2</ele>
        <time>2024-08-13T14:28:37Z</time>
      </trkpt>
      <trkpt lat="44.85448" lon="6.10859">
        <ele>2102</ele>
        <time>2024-08-13T14:28:38Z</time>
      </trkpt>
      <trkpt lat="44.8545" lon="6.10858">
        <ele>2102</ele>
        <time>2024-08-13T14:28:39Z</time>
      </trkpt>
      <trkpt lat="44.8545" lon="6.10858">
        <ele>2101.6</ele>
        <time>2024-08-13T14:28:40Z</time>
      </trkpt>
      <trkpt lat="44.8545" lon="6.10858">
        <ele>2101.4</ele>
        <time>2024-08-13T14:28:41Z</time>
      </trkpt>
      <trkpt lat="44.85452" lon="6.10857">
        <ele>2101.4</ele>
        <time>2024-08-13T14:28:42Z</time>
      </trkpt>
      <trkpt lat="44.85452" lon="6.10857">
        <ele>2100.4</ele>
        <time>2024-08-13T14:28:43Z</time>
      </trkpt>
      <trkpt lat="44.85453" lon="6.10855">
        <ele>2100</ele>
        <time>2024-08-13T14:28:44Z</time>
      </trkpt>
      <trkpt lat="44.85453" lon="6.10855">
        <ele>2099.8</ele>
        <time>2024-08-13T14:28:45Z</time>
      </trkpt>
      <trkpt lat="44.85454" lon="6.10853">
        <ele>2099.6</ele>
        <time>2024-08-13T14:28:46Z</time>
      </trkpt>
      <trkpt lat="44.85454" lon="6.10853">
        <ele>2099.4</ele>
        <time>2024-08-13T14:28:47Z</time>
      </trkpt>
      <trkpt lat="44.85456" lon="6.10851">
        <ele>2099.4</ele>
        <time>2024-08-13T14:28:48Z</time>
      </trkpt>
      <trkpt lat="44.85456" lon="6.10851">
        <ele>2098.8</ele>
        <time>2024-08-13T14:28:49Z</time>
      </trkpt>
      <trkpt lat="44.85458" lon="6.1085">
        <ele>2098.6</ele>
        <time>2024-08-13T14:28:50Z</time>
      </trkpt>
      <trkpt lat="44.85458" lon="6.1085">
        <ele>2098.2</ele>
        <time>2024-08-13T14:28:51Z</time>
      </trkpt>
      <trkpt lat="44.8546" lon="6.10849">
        <ele>2097.8</ele>
        <time>2024-08-13T14:28:52Z</time>
      </trkpt>
      <trkpt lat="44.8546" lon="6.10849">
        <ele>2097.4</ele>
        <time>2024-08-13T14:28:53Z</time>
      </trkpt>
      <trkpt lat="44.85462" lon="6.10848">
        <ele>2097.2</ele>
        <time>2024-08-13T14:28:54Z</time>
      </trkpt>
      <trkpt lat="44.85462" lon="6.10848">
        <ele>2097</ele>
        <time>2024-08-13T14:28:55Z</time>
      </trkpt>
      <trkpt lat="44.85462" lon="6.10848">
        <ele>2097</ele>
        <time>2024-08-13T14:28:56Z</time>
      </trkpt>
      <trkpt lat="44.85464" lon="6.10848">
        <ele>2097</ele>
        <time>2024-08-13T14:28:57Z</time>
      </trkpt>
      <trkpt lat="44.85464" lon="6.10848">
        <ele>2096.2</ele>
        <time>2024-08-13T14:28:58Z</time>
      </trkpt>
      <trkpt lat="44.85464" lon="6.10848">
        <ele>2095.8</ele>
        <time>2024-08-13T14:28:59Z</time>
      </trkpt>
      <trkpt lat="44.85466" lon="6.10848">
        <ele>2095.6</ele>
        <time>2024-08-13T14:29:00Z</time>
      </trkpt>
      <trkpt lat="44.85466" lon="6.10848">
        <ele>2095.2</ele>
        <time>2024-08-13T14:29:01Z</time>
      </trkpt>
      <trkpt lat="44.85466" lon="6.10848">
        <ele>2095.2</ele>
        <time>2024-08-13T14:29:02Z</time>
      </trkpt>
      <trkpt lat="44.85468" lon="6.10847">
        <ele>2095.2</ele>
        <time>2024-08-13T14:29:03Z</time>
      </trkpt>
      <trkpt lat="44.85468" lon="6.10847">
        <ele>2095</ele>
        <time>2024-08-13T14:29:04Z</time>
      </trkpt>
      <trkpt lat="44.85469" lon="6.10845">
        <ele>2094.6</ele>
        <time>2024-08-13T14:29:05Z</time>
      </trkpt>
      <trkpt lat="44.85469" lon="6.10845">
        <ele>2094.6</ele>
        <time>2024-08-13T14:29:06Z</time>
      </trkpt>
      <trkpt lat="44.85471" lon="6.10845">
        <ele>2094.4</ele>
        <time>2024-08-13T14:29:07Z</time>
      </trkpt>
      <trkpt lat="44.85471" lon="6.10845">
        <ele>2094</ele>
        <time>2024-08-13T14:29:08Z</time>
      </trkpt>
      <trkpt lat="44.85471" lon="6.10845">
        <ele>2093</ele>
        <time>2024-08-13T14:29:09Z</time>
      </trkpt>
      <trkpt lat="44.85473" lon="6.10846">
        <ele>2092.2</ele>
        <time>2024-08-13T14:29:10Z</time>
      </trkpt>
      <trkpt lat="44.85473" lon="6.10846">
        <ele>2091.6</ele>
        <time>2024-08-13T14:29:11Z</time>
      </trkpt>
      <trkpt lat="44.85473" lon="6.10846">
        <ele>2091.4</ele>
        <time>2024-08-13T14:29:12Z</time>
      </trkpt>
      <trkpt lat="44.85475" lon="6.10846">
        <ele>2091</ele>
        <time>2024-08-13T14:29:13Z</time>
      </trkpt>
      <trkpt lat="44.85475" lon="6.10846">
        <ele>2091</ele>
        <time>2024-08-13T14:29:14Z</time>
      </trkpt>
      <trkpt lat="44.85475" lon="6.10846">
        <ele>2091</ele>
        <time>2024-08-13T14:29:15Z</time>
      </trkpt>
      <trkpt lat="44.85475" lon="6.10846">
        <ele>2090.8</ele>
        <time>2024-08-13T14:29:16Z</time>
      </trkpt>
      <trkpt lat="44.85477" lon="6.10844">
        <ele>2090.8</ele>
        <time>2024-08-13T14:29:17Z</time>
      </trkpt>
      <trkpt lat="44.85477" lon="6.10844">
        <ele>2090.2</ele>
        <time>2024-08-13T14:29:18Z</time>
      </trkpt>
      <trkpt lat="44.85477" lon="6.10844">
        <ele>2090.2</ele>
        <time>2024-08-13T14:29:19Z</time>
      </trkpt>
      <trkpt lat="44.85477" lon="6.10844">
        <ele>2090.2</ele>
        <time>2024-08-13T14:29:20Z</time>
      </trkpt>
      <trkpt lat="44.85477" lon="6.10844">
        <ele>2090</ele>
        <time>2024-08-13T14:29:21Z</time>
      </trkpt>
      <trkpt lat="44.85477" lon="6.10844">
        <ele>2089.6</ele>
        <time>2024-08-13T14:29:22Z</time>
      </trkpt>
      <trkpt lat="44.85477" lon="6.10844">
        <ele>2089.6</ele>
        <time>2024-08-13T14:29:23Z</time>
      </trkpt>
      <trkpt lat="44.85477" lon="6.10844">
        <ele>2089.2</ele>
        <time>2024-08-13T14:29:24Z</time>
      </trkpt>
      <trkpt lat="44.85477" lon="6.10844">
        <ele>2089.2</ele>
        <time>2024-08-13T14:29:25Z</time>
      </trkpt>
      <trkpt lat="44.85477" lon="6.10844">
        <ele>2089.2</ele>
        <time>2024-08-13T14:29:26Z</time>
      </trkpt>
      <trkpt lat="44.85477" lon="6.10844">
        <ele>2089.2</ele>
        <time>2024-08-13T14:29:27Z</time>
      </trkpt>
      <trkpt lat="44.85477" lon="6.10844">
        <ele>2089</ele>
        <time>2024-08-13T14:29:28Z</time>
      </trkpt>
      <trkpt lat="44.85477" lon="6.10844">
        <ele>2088.6</ele>
        <time>2024-08-13T14:29:29Z</time>
      </trkpt>
      <trkpt lat="44.85477" lon="6.10844">
        <ele>2088.6</ele>
        <time>2024-08-13T14:29:30Z</time>
      </trkpt>
      <trkpt lat="44.85477" lon="6.10844">
        <ele>2088.6</ele>
        <time>2024-08-13T14:29:31Z</time>
      </trkpt>
      <trkpt lat="44.85477" lon="6.10844">
        <ele>2088.6</ele>
        <time>2024-08-13T14:29:32Z</time>
      </trkpt>
      <trkpt lat="44.85477" lon="6.10844">
        <ele>2088.6</ele>
        <time>2024-08-13T14:29:33Z</time>
      </trkpt>
      <trkpt lat="44.85477" lon="6.10844">
        <ele>2088.6</ele>
        <time>2024-08-13T14:29:34Z</time>
      </trkpt>
      <trkpt lat="44.85477" lon="6.10844">
        <ele>2088.6</ele>
        <time>2024-08-13T14:29:35Z</time>
      </trkpt>
      <trkpt lat="44.85477" lon="6.10844">
        <ele>2088.4</ele>
        <time>2024-08-13T14:29:36Z</time>
      </trkpt>
      <trkpt lat="44.85477" lon="6.10844">
        <ele>2088.2</ele>
        <time>2024-08-13T14:29:37Z</time>
      </trkpt>
      <trkpt lat="44.85477" lon="6.10844">
        <ele>2088.4</ele>
        <time>2024-08-13T14:29:38Z</time>
      </trkpt>
      <trkpt lat="44.85477" lon="6.10844">
        <ele>2088.4</ele>
        <time>2024-08-13T14:29:39Z</time>
      </trkpt>
      <trkpt lat="44.85477" lon="6.10844">
        <ele>2088.4</ele>
        <time>2024-08-13T14:29:40Z</time>
      </trkpt>
      <trkpt lat="44.85477" lon="6.10844">
        <ele>2088.4</ele>
        <time>2024-08-13T14:29:41Z</time>
      </trkpt>
      <trkpt lat="44.85477" lon="6.10844">
        <ele>2088.4</ele>
        <time>2024-08-13T14:29:42Z</time>
      </trkpt>
      <trkpt lat="44.85477" lon="6.10844">
        <ele>2088.4</ele>
        <time>2024-08-13T14:29:43Z</time>
      </trkpt>
      <trkpt lat="44.85479" lon="6.10842">
        <ele>2087.8</ele>
        <time>2024-08-13T14:29:44Z</time>
      </trkpt>
      <trkpt lat="44.85479" lon="6.10842">
        <ele>2087.8</ele>
        <time>2024-08-13T14:29:45Z</time>
      </trkpt>
      <trkpt lat="44.85482" lon="6.10841">
        <ele>2087.4</ele>
        <time>2024-08-13T14:29:46Z</time>
      </trkpt>
      <trkpt lat="44.85482" lon="6.10841">
        <ele>2087</ele>
        <time>2024-08-13T14:29:47Z</time>
      </trkpt>
      <trkpt lat="44.85484" lon="6.1084">
        <ele>2086.8</ele>
        <time>2024-08-13T14:29:48Z</time>
      </trkpt>
      <trkpt lat="44.85484" lon="6.1084">
        <ele>2086.6</ele>
        <time>2024-08-13T14:29:49Z</time>
      </trkpt>
      <trkpt lat="44.85484" lon="6.1084">
        <ele>2086.4</ele>
        <time>2024-08-13T14:29:50Z</time>
      </trkpt>
      <trkpt lat="44.85485" lon="6.10838">
        <ele>2086.4</ele>
        <time>2024-08-13T14:29:51Z</time>
      </trkpt>
      <trkpt lat="44.85485" lon="6.10838">
        <ele>2086.4</ele>
        <time>2024-08-13T14:29:52Z</time>
      </trkpt>
      <trkpt lat="44.85485" lon="6.10838">
        <ele>2086</ele>
        <time>2024-08-13T14:29:53Z</time>
      </trkpt>
      <trkpt lat="44.85485" lon="6.10838">
        <ele>2085.8</ele>
        <time>2024-08-13T14:29:54Z</time>
      </trkpt>
      <trkpt lat="44.85487" lon="6.10836">
        <ele>2085.6</ele>
        <time>2024-08-13T14:29:55Z</time>
      </trkpt>
      <trkpt lat="44.85487" lon="6.10836">
        <ele>2085.2</ele>
        <time>2024-08-13T14:29:56Z</time>
      </trkpt>
      <trkpt lat="44.85487" lon="6.10836">
        <ele>2084.8</ele>
        <time>2024-08-13T14:29:57Z</time>
      </trkpt>
      <trkpt lat="44.85489" lon="6.10833">
        <ele>2084.6</ele>
        <time>2024-08-13T14:29:58Z</time>
      </trkpt>
      <trkpt lat="44.85489" lon="6.10833">
        <ele>2084.4</ele>
        <time>2024-08-13T14:29:59Z</time>
      </trkpt>
      <trkpt lat="44.85489" lon="6.10833">
        <ele>2084</ele>
        <time>2024-08-13T14:30:00Z</time>
      </trkpt>
      <trkpt lat="44.85491" lon="6.10831">
        <ele>2083.4</ele>
        <time>2024-08-13T14:30:01Z</time>
      </trkpt>
      <trkpt lat="44.85491" lon="6.10831">
        <ele>2082.6</ele>
        <time>2024-08-13T14:30:02Z</time>
      </trkpt>
      <trkpt lat="44.85493" lon="6.1083">
        <ele>2082.4</ele>
        <time>2024-08-13T14:30:03Z</time>
      </trkpt>
      <trkpt lat="44.85493" lon="6.1083">
        <ele>2082.2</ele>
        <time>2024-08-13T14:30:04Z</time>
      </trkpt>
      <trkpt lat="44.85494" lon="6.10828">
        <ele>2081.8</ele>
        <time>2024-08-13T14:30:05Z</time>
      </trkpt>
      <trkpt lat="44.85494" lon="6.10828">
        <ele>2081.4</ele>
        <time>2024-08-13T14:30:06Z</time>
      </trkpt>
      <trkpt lat="44.85496" lon="6.10827">
        <ele>2081</ele>
        <time>2024-08-13T14:30:07Z</time>
      </trkpt>
      <trkpt lat="44.85496" lon="6.10827">
        <ele>2080.8</ele>
        <time>2024-08-13T14:30:08Z</time>
      </trkpt>
      <trkpt lat="44.85498" lon="6.10825">
        <ele>2080.8</ele>
        <time>2024-08-13T14:30:09Z</time>
      </trkpt>
      <trkpt lat="44.85498" lon="6.10825">
        <ele>2080.6</ele>
        <time>2024-08-13T14:30:10Z</time>
      </trkpt>
      <trkpt lat="44.855" lon="6.10824">
        <ele>2080.6</ele>
        <time>2024-08-13T14:30:11Z</time>
      </trkpt>
      <trkpt lat="44.855" lon="6.10824">
        <ele>2080.4</ele>
        <time>2024-08-13T14:30:12Z</time>
      </trkpt>
      <trkpt lat="44.855" lon="6.10824">
        <ele>2080.4</ele>
        <time>2024-08-13T14:30:13Z</time>
      </trkpt>
      <trkpt lat="44.85501" lon="6.10822">
        <ele>2080.2</ele>
        <time>2024-08-13T14:30:14Z</time>
      </trkpt>
      <trkpt lat="44.85501" lon="6.10822">
        <ele>2080</ele>
        <time>2024-08-13T14:30:15Z</time>
      </trkpt>
      <trkpt lat="44.85502" lon="6.1082">
        <ele>2079.6</ele>
        <time>2024-08-13T14:30:16Z</time>
      </trkpt>
      <trkpt lat="44.85502" lon="6.1082">
        <ele>2079.6</ele>
        <time>2024-08-13T14:30:17Z</time>
      </trkpt>
      <trkpt lat="44.85502" lon="6.1082">
        <ele>2079.4</ele>
        <time>2024-08-13T14:30:18Z</time>
      </trkpt>
      <trkpt lat="44.85505" lon="6.1082">
        <ele>2079.2</ele>
        <time>2024-08-13T14:30:19Z</time>
      </trkpt>
      <trkpt lat="44.85505" lon="6.1082">
        <ele>2078.8</ele>
        <time>2024-08-13T14:30:20Z</time>
      </trkpt>
      <trkpt lat="44.85507" lon="6.10822">
        <ele>2078.4</ele>
        <time>2024-08-13T14:30:21Z</time>
      </trkpt>
      <trkpt lat="44.85507" lon="6.10822">
        <ele>2078.2</ele>
        <time>2024-08-13T14:30:22Z</time>
      </trkpt>
      <trkpt lat="44.85509" lon="6.10824">
        <ele>2078</ele>
        <time>2024-08-13T14:30:23Z</time>
      </trkpt>
      <trkpt lat="44.85509" lon="6.10824">
        <ele>2077.8</ele>
        <time>2024-08-13T14:30:24Z</time>
      </trkpt>
      <trkpt lat="44.85511" lon="6.10825">
        <ele>2077.2</ele>
        <time>2024-08-13T14:30:25Z</time>
      </trkpt>
      <trkpt lat="44.85511" lon="6.10825">
        <ele>2076.8</ele>
        <time>2024-08-13T14:30:26Z</time>
      </trkpt>
      <trkpt lat="44.85513" lon="6.10825">
        <ele>2076.8</ele>
        <time>2024-08-13T14:30:27Z</time>
      </trkpt>
      <trkpt lat="44.85513" lon="6.10825">
        <ele>2076.8</ele>
        <time>2024-08-13T14:30:28Z</time>
      </trkpt>
      <trkpt lat="44.85515" lon="6.10825">
        <ele>2076.4</ele>
        <time>2024-08-13T14:30:29Z</time>
      </trkpt>
      <trkpt lat="44.85515" lon="6.10825">
        <ele>2076.2</ele>
        <time>2024-08-13T14:30:30Z</time>
      </trkpt>
      <trkpt lat="44.85517" lon="6.10824">
        <ele>2076.2</ele>
        <time>2024-08-13T14:30:31Z</time>
      </trkpt>
      <trkpt lat="44.85517" lon="6.10824">
        <ele>2075.8</ele>
        <time>2024-08-13T14:30:32Z</time>
      </trkpt>
      <trkpt lat="44.85518" lon="6.10823">
        <ele>2075.8</ele>
        <time>2024-08-13T14:30:33Z</time>
      </trkpt>
      <trkpt lat="44.85518" lon="6.10823">
        <ele>2075.4</ele>
        <time>2024-08-13T14:30:34Z</time>
      </trkpt>
      <trkpt lat="44.85521" lon="6.10822">
        <ele>2075</ele>
        <time>2024-08-13T14:30:35Z</time>
      </trkpt>
      <trkpt lat="44.85521" lon="6.10822">
        <ele>2074.8</ele>
        <time>2024-08-13T14:30:36Z</time>
      </trkpt>
      <trkpt lat="44.85523" lon="6.10823">
        <ele>2074.6</ele>
        <time>2024-08-13T14:30:37Z</time>
      </trkpt>
      <trkpt lat="44.85523" lon="6.10823">
        <ele>2073.8</ele>
        <time>2024-08-13T14:30:38Z</time>
      </trkpt>
      <trkpt lat="44.85525" lon="6.10822">
        <ele>2073.4</ele>
        <time>2024-08-13T14:30:39Z</time>
      </trkpt>
      <trkpt lat="44.85525" lon="6.10822">
        <ele>2073</ele>
        <time>2024-08-13T14:30:40Z</time>
      </trkpt>
      <trkpt lat="44.85527" lon="6.10822">
        <ele>2072.6</ele>
        <time>2024-08-13T14:30:41Z</time>
      </trkpt>
      <trkpt lat="44.85527" lon="6.10822">
        <ele>2072.6</ele>
        <time>2024-08-13T14:30:42Z</time>
      </trkpt>
      <trkpt lat="44.85529" lon="6.10821">
        <ele>2072.6</ele>
        <time>2024-08-13T14:30:43Z</time>
      </trkpt>
      <trkpt lat="44.85529" lon="6.10821">
        <ele>2072.8</ele>
        <time>2024-08-13T14:30:44Z</time>
      </trkpt>
      <trkpt lat="44.85531" lon="6.1082">
        <ele>2072.8</ele>
        <time>2024-08-13T14:30:45Z</time>
      </trkpt>
      <trkpt lat="44.85531" lon="6.1082">
        <ele>2072.8</ele>
        <time>2024-08-13T14:30:46Z</time>
      </trkpt>
      <trkpt lat="44.85533" lon="6.10819">
        <ele>2072.6</ele>
        <time>2024-08-13T14:30:47Z</time>
      </trkpt>
      <trkpt lat="44.85533" lon="6.10819">
        <ele>2072.2</ele>
        <time>2024-08-13T14:30:48Z</time>
      </trkpt>
      <trkpt lat="44.85536" lon="6.10818">
        <ele>2072.2</ele>
        <time>2024-08-13T14:30:49Z</time>
      </trkpt>
      <trkpt lat="44.85536" lon="6.10818">
        <ele>2072</ele>
        <time>2024-08-13T14:30:50Z</time>
      </trkpt>
      <trkpt lat="44.85539" lon="6.10816">
        <ele>2071.8</ele>
        <time>2024-08-13T14:30:51Z</time>
      </trkpt>
      <trkpt lat="44.85539" lon="6.10816">
        <ele>2071.8</ele>
        <time>2024-08-13T14:30:52Z</time>
      </trkpt>
      <trkpt lat="44.85541" lon="6.10814">
        <ele>2071.8</ele>
        <time>2024-08-13T14:30:53Z</time>
      </trkpt>
      <trkpt lat="44.85541" lon="6.10814">
        <ele>2071.8</ele>
        <time>2024-08-13T14:30:54Z</time>
      </trkpt>
      <trkpt lat="44.85543" lon="6.1081">
        <ele>2071.2</ele>
        <time>2024-08-13T14:30:55Z</time>
      </trkpt>
      <trkpt lat="44.85543" lon="6.1081">
        <ele>2071.2</ele>
        <time>2024-08-13T14:30:56Z</time>
      </trkpt>
      <trkpt lat="44.85544" lon="6.10807">
        <ele>2071</ele>
        <time>2024-08-13T14:30:57Z</time>
      </trkpt>
      <trkpt lat="44.85544" lon="6.10807">
        <ele>2070.6</ele>
        <time>2024-08-13T14:30:58Z</time>
      </trkpt>
      <trkpt lat="44.85547" lon="6.10806">
        <ele>2070.6</ele>
        <time>2024-08-13T14:30:59Z</time>
      </trkpt>
      <trkpt lat="44.85547" lon="6.10806">
        <ele>2070.2</ele>
        <time>2024-08-13T14:31:00Z</time>
      </trkpt>
      <trkpt lat="44.85548" lon="6.10804">
        <ele>2069.6</ele>
        <time>2024-08-13T14:31:01Z</time>
      </trkpt>
      <trkpt lat="44.85548" lon="6.10804">
        <ele>2069.6</ele>
        <time>2024-08-13T14:31:02Z</time>
      </trkpt>
      <trkpt lat="44.85549" lon="6.10802">
        <ele>2069.6</ele>
        <time>2024-08-13T14:31:03Z</time>
      </trkpt>
      <trkpt lat="44.85549" lon="6.10802">
        <ele>2069.8</ele>
        <time>2024-08-13T14:31:04Z</time>
      </trkpt>
      <trkpt lat="44.85551" lon="6.10801">
        <ele>2069.8</ele>
        <time>2024-08-13T14:31:05Z</time>
      </trkpt>
      <trkpt lat="44.85551" lon="6.10801">
        <ele>2069.6</ele>
        <time>2024-08-13T14:31:06Z</time>
      </trkpt>
      <trkpt lat="44.85551" lon="6.10801">
        <ele>2069.6</ele>
        <time>2024-08-13T14:31:07Z</time>
      </trkpt>
      <trkpt lat="44.85553" lon="6.108">
        <ele>2069.6</ele>
        <time>2024-08-13T14:31:08Z</time>
      </trkpt>
      <trkpt lat="44.85553" lon="6.108">
        <ele>2069.6</ele>
        <time>2024-08-13T14:31:09Z</time>
      </trkpt>
      <trkpt lat="44.85555" lon="6.10799">
        <ele>2069.4</ele>
        <time>2024-08-13T14:31:10Z</time>
      </trkpt>
      <trkpt lat="44.85555" lon="6.10799">
        <ele>2069.2</ele>
        <time>2024-08-13T14:31:11Z</time>
      </trkpt>
      <trkpt lat="44.85557" lon="6.10798">
        <ele>2069.2</ele>
        <time>2024-08-13T14:31:12Z</time>
      </trkpt>
      <trkpt lat="44.85557" lon="6.10798">
        <ele>2068.4</ele>
        <time>2024-08-13T14:31:13Z</time>
      </trkpt>
      <trkpt lat="44.85559" lon="6.10797">
        <ele>2068.2</ele>
        <time>2024-08-13T14:31:14Z</time>
      </trkpt>
      <trkpt lat="44.85559" lon="6.10797">
        <ele>2067.8</ele>
        <time>2024-08-13T14:31:15Z</time>
      </trkpt>
      <trkpt lat="44.85559" lon="6.10797">
        <ele>2067.2</ele>
        <time>2024-08-13T14:31:16Z</time>
      </trkpt>
      <trkpt lat="44.85559" lon="6.10797">
        <ele>2067.2</ele>
        <time>2024-08-13T14:31:17Z</time>
      </trkpt>
      <trkpt lat="44.85559" lon="6.10797">
        <ele>2067</ele>
        <time>2024-08-13T14:31:18Z</time>
      </trkpt>
      <trkpt lat="44.85559" lon="6.10797">
        <ele>2067</ele>
        <time>2024-08-13T14:31:19Z</time>
      </trkpt>
      <trkpt lat="44.85559" lon="6.10797">
        <ele>2067.2</ele>
        <time>2024-08-13T14:31:20Z</time>
      </trkpt>
      <trkpt lat="44.85559" lon="6.10797">
        <ele>2067.2</ele>
        <time>2024-08-13T14:31:21Z</time>
      </trkpt>
      <trkpt lat="44.85559" lon="6.10797">
        <ele>2067.4</ele>
        <time>2024-08-13T14:31:22Z</time>
      </trkpt>
      <trkpt lat="44.85559" lon="6.10797">
        <ele>2067.2</ele>
        <time>2024-08-13T14:31:23Z</time>
      </trkpt>
      <trkpt lat="44.85559" lon="6.10797">
        <ele>2067.6</ele>
        <time>2024-08-13T14:31:24Z</time>
      </trkpt>
      <trkpt lat="44.85559" lon="6.10797">
        <ele>2067.6</ele>
        <time>2024-08-13T14:31:25Z</time>
      </trkpt>
      <trkpt lat="44.85559" lon="6.10797">
        <ele>2067.6</ele>
        <time>2024-08-13T14:31:26Z</time>
      </trkpt>
      <trkpt lat="44.85559" lon="6.10797">
        <ele>2067.8</ele>
        <time>2024-08-13T14:31:27Z</time>
      </trkpt>
      <trkpt lat="44.85559" lon="6.10797">
        <ele>2067.8</ele>
        <time>2024-08-13T14:31:28Z</time>
      </trkpt>
      <trkpt lat="44.85559" lon="6.10797">
        <ele>2067.6</ele>
        <time>2024-08-13T14:31:29Z</time>
      </trkpt>
      <trkpt lat="44.85559" lon="6.10797">
        <ele>2067.4</ele>
        <time>2024-08-13T14:31:30Z</time>
      </trkpt>
      <trkpt lat="44.85559" lon="6.10797">
        <ele>2067.4</ele>
        <time>2024-08-13T14:31:31Z</time>
      </trkpt>
      <trkpt lat="44.85559" lon="6.10797">
        <ele>2067.4</ele>
        <time>2024-08-13T14:31:32Z</time>
      </trkpt>
      <trkpt lat="44.85559" lon="6.10797">
        <ele>2067.4</ele>
        <time>2024-08-13T14:31:33Z</time>
      </trkpt>
      <trkpt lat="44.85559" lon="6.10797">
        <ele>2067</ele>
        <time>2024-08-13T14:31:34Z</time>
      </trkpt>
      <trkpt lat="44.85559" lon="6.10797">
        <ele>2067</ele>
        <time>2024-08-13T14:31:35Z</time>
      </trkpt>
      <trkpt lat="44.85559" lon="6.10797">
        <ele>2066.6</ele>
        <time>2024-08-13T14:31:36Z</time>
      </trkpt>
      <trkpt lat="44.85561" lon="6.10796">
        <ele>2066.6</ele>
        <time>2024-08-13T14:31:37Z</time>
      </trkpt>
      <trkpt lat="44.85561" lon="6.10796">
        <ele>2066.2</ele>
        <time>2024-08-13T14:31:38Z</time>
      </trkpt>
      <trkpt lat="44.85561" lon="6.10796">
        <ele>2065</ele>
        <time>2024-08-13T14:31:39Z</time>
      </trkpt>
      <trkpt lat="44.85563" lon="6.10794">
        <ele>2065</ele>
        <time>2024-08-13T14:31:40Z</time>
      </trkpt>
      <trkpt lat="44.85563" lon="6.10794">
        <ele>2065</ele>
        <time>2024-08-13T14:31:41Z</time>
      </trkpt>
      <trkpt lat="44.85565" lon="6.10791">
        <ele>2065</ele>
        <time>2024-08-13T14:31:42Z</time>
      </trkpt>
      <trkpt lat="44.85565" lon="6.10791">
        <ele>2065</ele>
        <time>2024-08-13T14:31:43Z</time>
      </trkpt>
      <trkpt lat="44.85567" lon="6.10788">
        <ele>2065</ele>
        <time>2024-08-13T14:31:44Z</time>
      </trkpt>
      <trkpt lat="44.85567" lon="6.10788">
        <ele>2064.8</ele>
        <time>2024-08-13T14:31:45Z</time>
      </trkpt>
      <trkpt lat="44.85569" lon="6.10787">
        <ele>2063.8</ele>
        <time>2024-08-13T14:31:46Z</time>
      </trkpt>
      <trkpt lat="44.85569" lon="6.10787">
        <ele>2063.6</ele>
        <time>2024-08-13T14:31:47Z</time>
      </trkpt>
      <trkpt lat="44.85571" lon="6.10786">
        <ele>2063.6</ele>
        <time>2024-08-13T14:31:48Z</time>
      </trkpt>
      <trkpt lat="44.85571" lon="6.10786">
        <ele>2063.4</ele>
        <time>2024-08-13T14:31:49Z</time>
      </trkpt>
      <trkpt lat="44.85571" lon="6.10786">
        <ele>2063.4</ele>
        <time>2024-08-13T14:31:50Z</time>
      </trkpt>
      <trkpt lat="44.85573" lon="6.10783">
        <ele>2063.4</ele>
        <time>2024-08-13T14:31:51Z</time>
      </trkpt>
      <trkpt lat="44.85573" lon="6.10783">
        <ele>2062.8</ele>
        <time>2024-08-13T14:31:52Z</time>
      </trkpt>
      <trkpt lat="44.85575" lon="6.10783">
        <ele>2062.6</ele>
        <time>2024-08-13T14:31:53Z</time>
      </trkpt>
      <trkpt lat="44.85575" lon="6.10783">
        <ele>2062.6</ele>
        <time>2024-08-13T14:31:54Z</time>
      </trkpt>
      <trkpt lat="44.85576" lon="6.10781">
        <ele>2062.6</ele>
        <time>2024-08-13T14:31:55Z</time>
      </trkpt>
      <trkpt lat="44.85576" lon="6.10781">
        <ele>2062.4</ele>
        <time>2024-08-13T14:31:56Z</time>
      </trkpt>
      <trkpt lat="44.85579" lon="6.10779">
        <ele>2062.4</ele>
        <time>2024-08-13T14:31:57Z</time>
      </trkpt>
      <trkpt lat="44.85579" lon="6.10779">
        <ele>2062.4</ele>
        <time>2024-08-13T14:31:58Z</time>
      </trkpt>
      <trkpt lat="44.85581" lon="6.10778">
        <ele>2062.2</ele>
        <time>2024-08-13T14:31:59Z</time>
      </trkpt>
      <trkpt lat="44.85581" lon="6.10778">
        <ele>2061.6</ele>
        <time>2024-08-13T14:32:00Z</time>
      </trkpt>
      <trkpt lat="44.85584" lon="6.10777">
        <ele>2061.2</ele>
        <time>2024-08-13T14:32:01Z</time>
      </trkpt>
      <trkpt lat="44.85584" lon="6.10777">
        <ele>2060.6</ele>
        <time>2024-08-13T14:32:02Z</time>
      </trkpt>
      <trkpt lat="44.85586" lon="6.10777">
        <ele>2060.6</ele>
        <time>2024-08-13T14:32:03Z</time>
      </trkpt>
      <trkpt lat="44.85586" lon="6.10777">
        <ele>2060.4</ele>
        <time>2024-08-13T14:32:04Z</time>
      </trkpt>
      <trkpt lat="44.85586" lon="6.10777">
        <ele>2060.4</ele>
        <time>2024-08-13T14:32:05Z</time>
      </trkpt>
      <trkpt lat="44.85589" lon="6.10778">
        <ele>2060.4</ele>
        <time>2024-08-13T14:32:06Z</time>
      </trkpt>
      <trkpt lat="44.85589" lon="6.10778">
        <ele>2060.4</ele>
        <time>2024-08-13T14:32:07Z</time>
      </trkpt>
      <trkpt lat="44.85589" lon="6.10778">
        <ele>2060.2</ele>
        <time>2024-08-13T14:32:08Z</time>
      </trkpt>
      <trkpt lat="44.85591" lon="6.10778">
        <ele>2060.2</ele>
        <time>2024-08-13T14:32:09Z</time>
      </trkpt>
      <trkpt lat="44.85591" lon="6.10778">
        <ele>2060.6</ele>
        <time>2024-08-13T14:32:10Z</time>
      </trkpt>
      <trkpt lat="44.85593" lon="6.10777">
        <ele>2060.6</ele>
        <time>2024-08-13T14:32:11Z</time>
      </trkpt>
      <trkpt lat="44.85593" lon="6.10777">
        <ele>2059.4</ele>
        <time>2024-08-13T14:32:12Z</time>
      </trkpt>
      <trkpt lat="44.85595" lon="6.10777">
        <ele>2058.8</ele>
        <time>2024-08-13T14:32:13Z</time>
      </trkpt>
      <trkpt lat="44.85595" lon="6.10777">
        <ele>2057.6</ele>
        <time>2024-08-13T14:32:14Z</time>
      </trkpt>
      <trkpt lat="44.85595" lon="6.10777">
        <ele>2057.6</ele>
        <time>2024-08-13T14:32:15Z</time>
      </trkpt>
      <trkpt lat="44.85597" lon="6.10777">
        <ele>2058.2</ele>
        <time>2024-08-13T14:32:16Z</time>
      </trkpt>
      <trkpt lat="44.85597" lon="6.10777">
        <ele>2058.2</ele>
        <time>2024-08-13T14:32:17Z</time>
      </trkpt>
      <trkpt lat="44.85599" lon="6.10777">
        <ele>2057.6</ele>
        <time>2024-08-13T14:32:18Z</time>
      </trkpt>
      <trkpt lat="44.85599" lon="6.10777">
        <ele>2057</ele>
        <time>2024-08-13T14:32:19Z</time>
      </trkpt>
      <trkpt lat="44.85601" lon="6.10777">
        <ele>2056.6</ele>
        <time>2024-08-13T14:32:20Z</time>
      </trkpt>
      <trkpt lat="44.85601" lon="6.10777">
        <ele>2056.4</ele>
        <time>2024-08-13T14:32:21Z</time>
      </trkpt>
      <trkpt lat="44.85603" lon="6.10777">
        <ele>2056.2</ele>
        <time>2024-08-13T14:32:22Z</time>
      </trkpt>
      <trkpt lat="44.85603" lon="6.10777">
        <ele>2055</ele>
        <time>2024-08-13T14:32:23Z</time>
      </trkpt>
      <trkpt lat="44.85603" lon="6.10777">
        <ele>2054.8</ele>
        <time>2024-08-13T14:32:24Z</time>
      </trkpt>
      <trkpt lat="44.85606" lon="6.10776">
        <ele>2054.4</ele>
        <time>2024-08-13T14:32:25Z</time>
      </trkpt>
      <trkpt lat="44.85606" lon="6.10776">
        <ele>2054.2</ele>
        <time>2024-08-13T14:32:26Z</time>
      </trkpt>
      <trkpt lat="44.85608" lon="6.10776">
        <ele>2054.2</ele>
        <time>2024-08-13T14:32:27Z</time>
      </trkpt>
      <trkpt lat="44.85608" lon="6.10776">
        <ele>2053.8</ele>
        <time>2024-08-13T14:32:28Z</time>
      </trkpt>
      <trkpt lat="44.85608" lon="6.10776">
        <ele>2053.4</ele>
        <time>2024-08-13T14:32:29Z</time>
      </trkpt>
      <trkpt lat="44.8561" lon="6.10776">
        <ele>2053</ele>
        <time>2024-08-13T14:32:30Z</time>
      </trkpt>
      <trkpt lat="44.8561" lon="6.10776">
        <ele>2052.8</ele>
        <time>2024-08-13T14:32:31Z</time>
      </trkpt>
      <trkpt lat="44.8561" lon="6.10776">
        <ele>2052.8</ele>
        <time>2024-08-13T14:32:32Z</time>
      </trkpt>
      <trkpt lat="44.85612" lon="6.10775">
        <ele>2052.4</ele>
        <time>2024-08-13T14:32:33Z</time>
      </trkpt>
      <trkpt lat="44.85612" lon="6.10775">
        <ele>2052.4</ele>
        <time>2024-08-13T14:32:34Z</time>
      </trkpt>
      <trkpt lat="44.85614" lon="6.10774">
        <ele>2052.4</ele>
        <time>2024-08-13T14:32:35Z</time>
      </trkpt>
      <trkpt lat="44.85614" lon="6.10774">
        <ele>2052.4</ele>
        <time>2024-08-13T14:32:36Z</time>
      </trkpt>
      <trkpt lat="44.85616" lon="6.10774">
        <ele>2052.4</ele>
        <time>2024-08-13T14:32:37Z</time>
      </trkpt>
      <trkpt lat="44.85616" lon="6.10774">
        <ele>2052.4</ele>
        <time>2024-08-13T14:32:38Z</time>
      </trkpt>
      <trkpt lat="44.85616" lon="6.10774">
        <ele>2051.6</ele>
        <time>2024-08-13T14:32:39Z</time>
      </trkpt>
      <trkpt lat="44.85618" lon="6.10774">
        <ele>2050.4</ele>
        <time>2024-08-13T14:32:40Z</time>
      </trkpt>
      <trkpt lat="44.85618" lon="6.10774">
        <ele>2050.2</ele>
        <time>2024-08-13T14:32:41Z</time>
      </trkpt>
      <trkpt lat="44.8562" lon="6.10774">
        <ele>2049.4</ele>
        <time>2024-08-13T14:32:42Z</time>
      </trkpt>
      <trkpt lat="44.8562" lon="6.10774">
        <ele>2049.4</ele>
        <time>2024-08-13T14:32:43Z</time>
      </trkpt>
      <trkpt lat="44.8562" lon="6.10774">
        <ele>2049.4</ele>
        <time>2024-08-13T14:32:44Z</time>
      </trkpt>
      <trkpt lat="44.85623" lon="6.10774">
        <ele>2048.4</ele>
        <time>2024-08-13T14:32:45Z</time>
      </trkpt>
      <trkpt lat="44.85623" lon="6.10774">
        <ele>2048.2</ele>
        <time>2024-08-13T14:32:46Z</time>
      </trkpt>
      <trkpt lat="44.85623" lon="6.10774">
        <ele>2047.8</ele>
        <time>2024-08-13T14:32:47Z</time>
      </trkpt>
      <trkpt lat="44.85625" lon="6.10774">
        <ele>2047.6</ele>
        <time>2024-08-13T14:32:48Z</time>
      </trkpt>
      <trkpt lat="44.85625" lon="6.10774">
        <ele>2047.2</ele>
        <time>2024-08-13T14:32:49Z</time>
      </trkpt>
      <trkpt lat="44.85625" lon="6.10774">
        <ele>2046.8</ele>
        <time>2024-08-13T14:32:50Z</time>
      </trkpt>
      <trkpt lat="44.85627" lon="6.10772">
        <ele>2046.4</ele>
        <time>2024-08-13T14:32:51Z</time>
      </trkpt>
      <trkpt lat="44.85627" lon="6.10772">
        <ele>2046.2</ele>
        <time>2024-08-13T14:32:52Z</time>
      </trkpt>
      <trkpt lat="44.85629" lon="6.10772">
        <ele>2045.4</ele>
        <time>2024-08-13T14:32:53Z</time>
      </trkpt>
      <trkpt lat="44.85629" lon="6.10772">
        <ele>2044.6</ele>
        <time>2024-08-13T14:32:54Z</time>
      </trkpt>
      <trkpt lat="44.85629" lon="6.10772">
        <ele>2044.4</ele>
        <time>2024-08-13T14:32:55Z</time>
      </trkpt>
      <trkpt lat="44.85631" lon="6.1077">
        <ele>2044</ele>
        <time>2024-08-13T14:32:56Z</time>
      </trkpt>
      <trkpt lat="44.85631" lon="6.1077">
        <ele>2044</ele>
        <time>2024-08-13T14:32:57Z</time>
      </trkpt>
      <trkpt lat="44.85634" lon="6.10769">
        <ele>2043.6</ele>
        <time>2024-08-13T14:32:58Z</time>
      </trkpt>
      <trkpt lat="44.85634" lon="6.10769">
        <ele>2043.2</ele>
        <time>2024-08-13T14:32:59Z</time>
      </trkpt>
      <trkpt lat="44.85636" lon="6.10768">
        <ele>2043</ele>
        <time>2024-08-13T14:33:00Z</time>
      </trkpt>
      <trkpt lat="44.85636" lon="6.10768">
        <ele>2042.6</ele>
        <time>2024-08-13T14:33:01Z</time>
      </trkpt>
      <trkpt lat="44.85638" lon="6.10768">
        <ele>2042</ele>
        <time>2024-08-13T14:33:02Z</time>
      </trkpt>
      <trkpt lat="44.85638" lon="6.10768">
        <ele>2041.8</ele>
        <time>2024-08-13T14:33:03Z</time>
      </trkpt>
      <trkpt lat="44.85638" lon="6.10768">
        <ele>2041.2</ele>
        <time>2024-08-13T14:33:04Z</time>
      </trkpt>
      <trkpt lat="44.8564" lon="6.10767">
        <ele>2041</ele>
        <time>2024-08-13T14:33:05Z</time>
      </trkpt>
      <trkpt lat="44.8564" lon="6.10767">
        <ele>2040.8</ele>
        <time>2024-08-13T14:33:06Z</time>
      </trkpt>
      <trkpt lat="44.8564" lon="6.10767">
        <ele>2040.4</ele>
        <time>2024-08-13T14:33:07Z</time>
      </trkpt>
      <trkpt lat="44.85642" lon="6.10765">
        <ele>2040.4</ele>
        <time>2024-08-13T14:33:08Z</time>
      </trkpt>
      <trkpt lat="44.85642" lon="6.10765">
        <ele>2040.2</ele>
        <time>2024-08-13T14:33:09Z</time>
      </trkpt>
      <trkpt lat="44.85642" lon="6.10765">
        <ele>2040.2</ele>
        <time>2024-08-13T14:33:10Z</time>
      </trkpt>
      <trkpt lat="44.85645" lon="6.10764">
        <ele>2040.2</ele>
        <time>2024-08-13T14:33:11Z</time>
      </trkpt>
      <trkpt lat="44.85645" lon="6.10764">
        <ele>2040.2</ele>
        <time>2024-08-13T14:33:12Z</time>
      </trkpt>
      <trkpt lat="44.85646" lon="6.10762">
        <ele>2039.6</ele>
        <time>2024-08-13T14:33:13Z</time>
      </trkpt>
      <trkpt lat="44.85646" lon="6.10762">
        <ele>2039.2</ele>
        <time>2024-08-13T14:33:14Z</time>
      </trkpt>
      <trkpt lat="44.85646" lon="6.10762">
        <ele>2038.8</ele>
        <time>2024-08-13T14:33:15Z</time>
      </trkpt>
      <trkpt lat="44.85646" lon="6.10762">
        <ele>2038</ele>
        <time>2024-08-13T14:33:16Z</time>
      </trkpt>
      <trkpt lat="44.85648" lon="6.1076">
        <ele>2037.6</ele>
        <time>2024-08-13T14:33:17Z</time>
      </trkpt>
      <trkpt lat="44.85648" lon="6.1076">
        <ele>2037.6</ele>
        <time>2024-08-13T14:33:18Z</time>
      </trkpt>
      <trkpt lat="44.85651" lon="6.1076">
        <ele>2037.8</ele>
        <time>2024-08-13T14:33:19Z</time>
      </trkpt>
      <trkpt lat="44.85651" lon="6.1076">
        <ele>2037.8</ele>
        <time>2024-08-13T14:33:20Z</time>
      </trkpt>
      <trkpt lat="44.85651" lon="6.1076">
        <ele>2037.2</ele>
        <time>2024-08-13T14:33:21Z</time>
      </trkpt>
      <trkpt lat="44.85653" lon="6.10761">
        <ele>2036.4</ele>
        <time>2024-08-13T14:33:22Z</time>
      </trkpt>
      <trkpt lat="44.85653" lon="6.10761">
        <ele>2035.6</ele>
        <time>2024-08-13T14:33:23Z</time>
      </trkpt>
      <trkpt lat="44.85653" lon="6.10761">
        <ele>2035</ele>
        <time>2024-08-13T14:33:24Z</time>
      </trkpt>
      <trkpt lat="44.85656" lon="6.10762">
        <ele>2034.8</ele>
        <time>2024-08-13T14:33:25Z</time>
      </trkpt>
      <trkpt lat="44.85656" lon="6.10762">
        <ele>2034.2</ele>
        <time>2024-08-13T14:33:26Z</time>
      </trkpt>
      <trkpt lat="44.85656" lon="6.10762">
        <ele>2034.2</ele>
        <time>2024-08-13T14:33:27Z</time>
      </trkpt>
      <trkpt lat="44.85658" lon="6.10762">
        <ele>2034.2</ele>
        <time>2024-08-13T14:33:28Z</time>
      </trkpt>
      <trkpt lat="44.85658" lon="6.10762">
        <ele>2034.2</ele>
        <time>2024-08-13T14:33:29Z</time>
      </trkpt>
      <trkpt lat="44.85658" lon="6.10762">
        <ele>2033.6</ele>
        <time>2024-08-13T14:33:30Z</time>
      </trkpt>
      <trkpt lat="44.8566" lon="6.10762">
        <ele>2032.8</ele>
        <time>2024-08-13T14:33:31Z</time>
      </trkpt>
      <trkpt lat="44.8566" lon="6.10762">
        <ele>2032.6</ele>
        <time>2024-08-13T14:33:32Z</time>
      </trkpt>
      <trkpt lat="44.8566" lon="6.10762">
        <ele>2032.4</ele>
        <time>2024-08-13T14:33:33Z</time>
      </trkpt>
      <trkpt lat="44.85662" lon="6.10762">
        <ele>2032.4</ele>
        <time>2024-08-13T14:33:34Z</time>
      </trkpt>
      <trkpt lat="44.85662" lon="6.10762">
        <ele>2032.2</ele>
        <time>2024-08-13T14:33:35Z</time>
      </trkpt>
      <trkpt lat="44.85664" lon="6.10761">
        <ele>2032.2</ele>
        <time>2024-08-13T14:33:36Z</time>
      </trkpt>
      <trkpt lat="44.85664" lon="6.10761">
        <ele>2031.8</ele>
        <time>2024-08-13T14:33:37Z</time>
      </trkpt>
      <trkpt lat="44.85664" lon="6.10761">
        <ele>2031.6</ele>
        <time>2024-08-13T14:33:38Z</time>
      </trkpt>
      <trkpt lat="44.85666" lon="6.10761">
        <ele>2031.4</ele>
        <time>2024-08-13T14:33:39Z</time>
      </trkpt>
      <trkpt lat="44.85666" lon="6.10761">
        <ele>2030.6</ele>
        <time>2024-08-13T14:33:40Z</time>
      </trkpt>
      <trkpt lat="44.85668" lon="6.1076">
        <ele>2030.6</ele>
        <time>2024-08-13T14:33:41Z</time>
      </trkpt>
      <trkpt lat="44.85668" lon="6.1076">
        <ele>2030.2</ele>
        <time>2024-08-13T14:33:42Z</time>
      </trkpt>
      <trkpt lat="44.85668" lon="6.1076">
        <ele>2030</ele>
        <time>2024-08-13T14:33:43Z</time>
      </trkpt>
      <trkpt lat="44.8567" lon="6.10761">
        <ele>2029.6</ele>
        <time>2024-08-13T14:33:44Z</time>
      </trkpt>
      <trkpt lat="44.8567" lon="6.10761">
        <ele>2029.2</ele>
        <time>2024-08-13T14:33:45Z</time>
      </trkpt>
      <trkpt lat="44.8567" lon="6.10761">
        <ele>2029.2</ele>
        <time>2024-08-13T14:33:46Z</time>
      </trkpt>
      <trkpt lat="44.85672" lon="6.1076">
        <ele>2029</ele>
        <time>2024-08-13T14:33:47Z</time>
      </trkpt>
      <trkpt lat="44.85672" lon="6.1076">
        <ele>2029</ele>
        <time>2024-08-13T14:33:48Z</time>
      </trkpt>
      <trkpt lat="44.85672" lon="6.1076">
        <ele>2028.8</ele>
        <time>2024-08-13T14:33:49Z</time>
      </trkpt>
      <trkpt lat="44.85672" lon="6.1076">
        <ele>2027.8</ele>
        <time>2024-08-13T14:33:50Z</time>
      </trkpt>
      <trkpt lat="44.85672" lon="6.1076">
        <ele>2027.6</ele>
        <time>2024-08-13T14:33:51Z</time>
      </trkpt>
      <trkpt lat="44.85674" lon="6.10759">
        <ele>2027.4</ele>
        <time>2024-08-13T14:33:52Z</time>
      </trkpt>
      <trkpt lat="44.85674" lon="6.10759">
        <ele>2027.4</ele>
        <time>2024-08-13T14:33:53Z</time>
      </trkpt>
      <trkpt lat="44.85674" lon="6.10759">
        <ele>2027.4</ele>
        <time>2024-08-13T14:33:54Z</time>
      </trkpt>
      <trkpt lat="44.85674" lon="6.10759">
        <ele>2027.2</ele>
        <time>2024-08-13T14:33:55Z</time>
      </trkpt>
      <trkpt lat="44.85676" lon="6.10759">
        <ele>2026.4</ele>
        <time>2024-08-13T14:33:56Z</time>
      </trkpt>
      <trkpt lat="44.85676" lon="6.10759">
        <ele>2025.8</ele>
        <time>2024-08-13T14:33:57Z</time>
      </trkpt>
      <trkpt lat="44.85676" lon="6.10759">
        <ele>2025.8</ele>
        <time>2024-08-13T14:33:58Z</time>
      </trkpt>
      <trkpt lat="44.85678" lon="6.10759">
        <ele>2025.8</ele>
        <time>2024-08-13T14:33:59Z</time>
      </trkpt>
      <trkpt lat="44.85678" lon="6.10759">
        <ele>2025.2</ele>
        <time>2024-08-13T14:34:00Z</time>
      </trkpt>
      <trkpt lat="44.85677" lon="6.10756">
        <ele>2025</ele>
        <time>2024-08-13T14:34:01Z</time>
      </trkpt>
      <trkpt lat="44.85677" lon="6.10756">
        <ele>2024.8</ele>
        <time>2024-08-13T14:34:02Z</time>
      </trkpt>
      <trkpt lat="44.85677" lon="6.10756">
        <ele>2024.8</ele>
        <time>2024-08-13T14:34:03Z</time>
      </trkpt>
      <trkpt lat="44.85675" lon="6.10753">
        <ele>2024.2</ele>
        <time>2024-08-13T14:34:04Z</time>
      </trkpt>
      <trkpt lat="44.85675" lon="6.10753">
        <ele>2024.2</ele>
        <time>2024-08-13T14:34:05Z</time>
      </trkpt>
      <trkpt lat="44.85674" lon="6.1075">
        <ele>2023.8</ele>
        <time>2024-08-13T14:34:06Z</time>
      </trkpt>
      <trkpt lat="44.85674" lon="6.1075">
        <ele>2023.4</ele>
        <time>2024-08-13T14:34:07Z</time>
      </trkpt>
      <trkpt lat="44.85674" lon="6.1075">
        <ele>2023</ele>
        <time>2024-08-13T14:34:08Z</time>
      </trkpt>
      <trkpt lat="44.85674" lon="6.1075">
        <ele>2023</ele>
        <time>2024-08-13T14:34:09Z</time>
      </trkpt>
      <trkpt lat="44.85674" lon="6.1075">
        <ele>2023</ele>
        <time>2024-08-13T14:34:10Z</time>
      </trkpt>
      <trkpt lat="44.85674" lon="6.1075">
        <ele>2022.6</ele>
        <time>2024-08-13T14:34:11Z</time>
      </trkpt>
      <trkpt lat="44.85674" lon="6.1075">
        <ele>2021.8</ele>
        <time>2024-08-13T14:34:12Z</time>
      </trkpt>
      <trkpt lat="44.85674" lon="6.1075">
        <ele>2021</ele>
        <time>2024-08-13T14:34:13Z</time>
      </trkpt>
      <trkpt lat="44.85674" lon="6.1075">
        <ele>2021</ele>
        <time>2024-08-13T14:34:14Z</time>
      </trkpt>
      <trkpt lat="44.85674" lon="6.1075">
        <ele>2021</ele>
        <time>2024-08-13T14:34:15Z</time>
      </trkpt>
      <trkpt lat="44.85674" lon="6.1075">
        <ele>2021</ele>
        <time>2024-08-13T14:34:16Z</time>
      </trkpt>
      <trkpt lat="44.85674" lon="6.1075">
        <ele>2020.8</ele>
        <time>2024-08-13T14:34:17Z</time>
      </trkpt>
      <trkpt lat="44.85674" lon="6.1075">
        <ele>2020.8</ele>
        <time>2024-08-13T14:34:18Z</time>
      </trkpt>
      <trkpt lat="44.85674" lon="6.1075">
        <ele>2020.8</ele>
        <time>2024-08-13T14:34:19Z</time>
      </trkpt>
      <trkpt lat="44.85674" lon="6.1075">
        <ele>2020.6</ele>
        <time>2024-08-13T14:34:20Z</time>
      </trkpt>
      <trkpt lat="44.85674" lon="6.1075">
        <ele>2020.6</ele>
        <time>2024-08-13T14:34:21Z</time>
      </trkpt>
      <trkpt lat="44.85674" lon="6.1075">
        <ele>2020.4</ele>
        <time>2024-08-13T14:34:22Z</time>
      </trkpt>
      <trkpt lat="44.85674" lon="6.1075">
        <ele>2020.4</ele>
        <time>2024-08-13T14:34:23Z</time>
      </trkpt>
      <trkpt lat="44.85674" lon="6.1075">
        <ele>2020.2</ele>
        <time>2024-08-13T14:34:24Z</time>
      </trkpt>
      <trkpt lat="44.85674" lon="6.1075">
        <ele>2020.2</ele>
        <time>2024-08-13T14:34:25Z</time>
      </trkpt>
      <trkpt lat="44.85674" lon="6.1075">
        <ele>2020.6</ele>
        <time>2024-08-13T14:34:26Z</time>
      </trkpt>
      <trkpt lat="44.85674" lon="6.1075">
        <ele>2020.6</ele>
        <time>2024-08-13T14:34:27Z</time>
      </trkpt>
      <trkpt lat="44.85674" lon="6.1075">
        <ele>2020.6</ele>
        <time>2024-08-13T14:34:28Z</time>
      </trkpt>
      <trkpt lat="44.85674" lon="6.1075">
        <ele>2020.8</ele>
        <time>2024-08-13T14:34:29Z</time>
      </trkpt>
      <trkpt lat="44.85674" lon="6.1075">
        <ele>2020.8</ele>
        <time>2024-08-13T14:34:30Z</time>
      </trkpt>
      <trkpt lat="44.85674" lon="6.1075">
        <ele>2020.2</ele>
        <time>2024-08-13T14:34:31Z</time>
      </trkpt>
      <trkpt lat="44.85674" lon="6.1075">
        <ele>2020</ele>
        <time>2024-08-13T14:34:32Z</time>
      </trkpt>
      <trkpt lat="44.85674" lon="6.1075">
        <ele>2020</ele>
        <time>2024-08-13T14:34:33Z</time>
      </trkpt>
      <trkpt lat="44.85674" lon="6.1075">
        <ele>2020</ele>
        <time>2024-08-13T14:34:34Z</time>
      </trkpt>
      <trkpt lat="44.85674" lon="6.1075">
        <ele>2019.6</ele>
        <time>2024-08-13T14:34:35Z</time>
      </trkpt>
      <trkpt lat="44.85674" lon="6.1075">
        <ele>2019</ele>
        <time>2024-08-13T14:34:36Z</time>
      </trkpt>
      <trkpt lat="44.85676" lon="6.10748">
        <ele>2018.8</ele>
        <time>2024-08-13T14:34:37Z</time>
      </trkpt>
      <trkpt lat="44.85676" lon="6.10748">
        <ele>2018.6</ele>
        <time>2024-08-13T14:34:38Z</time>
      </trkpt>
      <trkpt lat="44.85678" lon="6.10748">
        <ele>2018.6</ele>
        <time>2024-08-13T14:34:39Z</time>
      </trkpt>
      <trkpt lat="44.8568" lon="6.10748">
        <ele>2018.6</ele>
        <time>2024-08-13T14:34:40Z</time>
      </trkpt>
      <trkpt lat="44.8568" lon="6.10748">
        <ele>2018.4</ele>
        <time>2024-08-13T14:34:41Z</time>
      </trkpt>
      <trkpt lat="44.85683" lon="6.10749">
        <ele>2018</ele>
        <time>2024-08-13T14:34:42Z</time>
      </trkpt>
      <trkpt lat="44.85683" lon="6.10749">
        <ele>2017.4</ele>
        <time>2024-08-13T14:34:43Z</time>
      </trkpt>
      <trkpt lat="44.85685" lon="6.10751">
        <ele>2016.8</ele>
        <time>2024-08-13T14:34:44Z</time>
      </trkpt>
      <trkpt lat="44.85685" lon="6.10751">
        <ele>2016.4</ele>
        <time>2024-08-13T14:34:45Z</time>
      </trkpt>
      <trkpt lat="44.85685" lon="6.10751">
        <ele>2016.4</ele>
        <time>2024-08-13T14:34:46Z</time>
      </trkpt>
      <trkpt lat="44.85686" lon="6.10753">
        <ele>2015.6</ele>
        <time>2024-08-13T14:34:47Z</time>
      </trkpt>
      <trkpt lat="44.85686" lon="6.10753">
        <ele>2015.4</ele>
        <time>2024-08-13T14:34:48Z</time>
      </trkpt>
      <trkpt lat="44.85687" lon="6.10755">
        <ele>2015.4</ele>
        <time>2024-08-13T14:34:49Z</time>
      </trkpt>
      <trkpt lat="44.85687" lon="6.10755">
        <ele>2015.4</ele>
        <time>2024-08-13T14:34:50Z</time>
      </trkpt>
      <trkpt lat="44.85687" lon="6.10755">
        <ele>2014.6</ele>
        <time>2024-08-13T14:34:51Z</time>
      </trkpt>
      <trkpt lat="44.85689" lon="6.10756">
        <ele>2013.8</ele>
        <time>2024-08-13T14:34:52Z</time>
      </trkpt>
      <trkpt lat="44.85689" lon="6.10756">
        <ele>2013.6</ele>
        <time>2024-08-13T14:34:53Z</time>
      </trkpt>
      <trkpt lat="44.85691" lon="6.10757">
        <ele>2013.8</ele>
        <time>2024-08-13T14:34:54Z</time>
      </trkpt>
      <trkpt lat="44.85691" lon="6.10757">
        <ele>2013.8</ele>
        <time>2024-08-13T14:34:55Z</time>
      </trkpt>
      <trkpt lat="44.85693" lon="6.10758">
        <ele>2013.8</ele>
        <time>2024-08-13T14:34:56Z</time>
      </trkpt>
      <trkpt lat="44.85693" lon="6.10758">
        <ele>2013.6</ele>
        <time>2024-08-13T14:34:57Z</time>
      </trkpt>
      <trkpt lat="44.85694" lon="6.10759">
        <ele>2013.2</ele>
        <time>2024-08-13T14:34:58Z</time>
      </trkpt>
      <trkpt lat="44.85694" lon="6.10759">
        <ele>2012.2</ele>
        <time>2024-08-13T14:34:59Z</time>
      </trkpt>
      <trkpt lat="44.85694" lon="6.10759">
        <ele>2011.8</ele>
        <time>2024-08-13T14:35:00Z</time>
      </trkpt>
      <trkpt lat="44.85697" lon="6.1076">
        <ele>2011.8</ele>
        <time>2024-08-13T14:35:01Z</time>
      </trkpt>
      <trkpt lat="44.85697" lon="6.1076">
        <ele>2012.4</ele>
        <time>2024-08-13T14:35:02Z</time>
      </trkpt>
      <trkpt lat="44.85699" lon="6.10761">
        <ele>2012.4</ele>
        <time>2024-08-13T14:35:03Z</time>
      </trkpt>
      <trkpt lat="44.85699" lon="6.10761">
        <ele>2012</ele>
        <time>2024-08-13T14:35:04Z</time>
      </trkpt>
      <trkpt lat="44.85701" lon="6.10761">
        <ele>2011.8</ele>
        <time>2024-08-13T14:35:05Z</time>
      </trkpt>
      <trkpt lat="44.85701" lon="6.10761">
        <ele>2011.6</ele>
        <time>2024-08-13T14:35:06Z</time>
      </trkpt>
      <trkpt lat="44.85701" lon="6.10761">
        <ele>2011.4</ele>
        <time>2024-08-13T14:35:07Z</time>
      </trkpt>
      <trkpt lat="44.85703" lon="6.10762">
        <ele>2010.8</ele>
        <time>2024-08-13T14:35:08Z</time>
      </trkpt>
      <trkpt lat="44.85703" lon="6.10762">
        <ele>2010.4</ele>
        <time>2024-08-13T14:35:09Z</time>
      </trkpt>
      <trkpt lat="44.85705" lon="6.10762">
        <ele>2010.2</ele>
        <time>2024-08-13T14:35:10Z</time>
      </trkpt>
      <trkpt lat="44.85705" lon="6.10762">
        <ele>2009.8</ele>
        <time>2024-08-13T14:35:11Z</time>
      </trkpt>
      <trkpt lat="44.85705" lon="6.10762">
        <ele>2009</ele>
        <time>2024-08-13T14:35:12Z</time>
      </trkpt>
      <trkpt lat="44.85708" lon="6.10762">
        <ele>2008.4</ele>
        <time>2024-08-13T14:35:13Z</time>
      </trkpt>
      <trkpt lat="44.85708" lon="6.10762">
        <ele>2008.2</ele>
        <time>2024-08-13T14:35:14Z</time>
      </trkpt>
      <trkpt lat="44.8571" lon="6.10762">
        <ele>2007.8</ele>
        <time>2024-08-13T14:35:15Z</time>
      </trkpt>
      <trkpt lat="44.8571" lon="6.10762">
        <ele>2007.4</ele>
        <time>2024-08-13T14:35:16Z</time>
      </trkpt>
      <trkpt lat="44.85713" lon="6.10763">
        <ele>2007.2</ele>
        <time>2024-08-13T14:35:17Z</time>
      </trkpt>
      <trkpt lat="44.85713" lon="6.10763">
        <ele>2006.8</ele>
        <time>2024-08-13T14:35:18Z</time>
      </trkpt>
      <trkpt lat="44.85716" lon="6.10763">
        <ele>2006</ele>
        <time>2024-08-13T14:35:19Z</time>
      </trkpt>
      <trkpt lat="44.85716" lon="6.10763">
        <ele>2006</ele>
        <time>2024-08-13T14:35:20Z</time>
      </trkpt>
      <trkpt lat="44.85718" lon="6.10763">
        <ele>2005.8</ele>
        <time>2024-08-13T14:35:21Z</time>
      </trkpt>
      <trkpt lat="44.85718" lon="6.10763">
        <ele>2005.6</ele>
        <time>2024-08-13T14:35:22Z</time>
      </trkpt>
      <trkpt lat="44.85721" lon="6.10764">
        <ele>2005.6</ele>
        <time>2024-08-13T14:35:23Z</time>
      </trkpt>
      <trkpt lat="44.85721" lon="6.10764">
        <ele>2005.6</ele>
        <time>2024-08-13T14:35:24Z</time>
      </trkpt>
      <trkpt lat="44.85724" lon="6.10764">
        <ele>2005.4</ele>
        <time>2024-08-13T14:35:25Z</time>
      </trkpt>
      <trkpt lat="44.85724" lon="6.10764">
        <ele>2005</ele>
        <time>2024-08-13T14:35:26Z</time>
      </trkpt>
      <trkpt lat="44.85726" lon="6.10765">
        <ele>2004.8</ele>
        <time>2024-08-13T14:35:27Z</time>
      </trkpt>
      <trkpt lat="44.85726" lon="6.10765">
        <ele>2004.6</ele>
        <time>2024-08-13T14:35:28Z</time>
      </trkpt>
      <trkpt lat="44.85728" lon="6.10765">
        <ele>2004.4</ele>
        <time>2024-08-13T14:35:29Z</time>
      </trkpt>
      <trkpt lat="44.85728" lon="6.10765">
        <ele>2004</ele>
        <time>2024-08-13T14:35:30Z</time>
      </trkpt>
      <trkpt lat="44.8573" lon="6.10764">
        <ele>2003.8</ele>
        <time>2024-08-13T14:35:31Z</time>
      </trkpt>
      <trkpt lat="44.8573" lon="6.10764">
        <ele>2003.6</ele>
        <time>2024-08-13T14:35:32Z</time>
      </trkpt>
      <trkpt lat="44.85733" lon="6.10764">
        <ele>2003.4</ele>
        <time>2024-08-13T14:35:33Z</time>
      </trkpt>
      <trkpt lat="44.85733" lon="6.10764">
        <ele>2002.8</ele>
        <time>2024-08-13T14:35:34Z</time>
      </trkpt>
      <trkpt lat="44.85733" lon="6.10764">
        <ele>2002.4</ele>
        <time>2024-08-13T14:35:35Z</time>
      </trkpt>
      <trkpt lat="44.85736" lon="6.10765">
        <ele>2001.8</ele>
        <time>2024-08-13T14:35:36Z</time>
      </trkpt>
      <trkpt lat="44.85736" lon="6.10765">
        <ele>2001.8</ele>
        <time>2024-08-13T14:35:37Z</time>
      </trkpt>
      <trkpt lat="44.85738" lon="6.10765">
        <ele>2001.4</ele>
        <time>2024-08-13T14:35:38Z</time>
      </trkpt>
      <trkpt lat="44.85738" lon="6.10765">
        <ele>2001</ele>
        <time>2024-08-13T14:35:39Z</time>
      </trkpt>
      <trkpt lat="44.8574" lon="6.10764">
        <ele>2000.8</ele>
        <time>2024-08-13T14:35:40Z</time>
      </trkpt>
      <trkpt lat="44.8574" lon="6.10764">
        <ele>2000.4</ele>
        <time>2024-08-13T14:35:41Z</time>
      </trkpt>
      <trkpt lat="44.85743" lon="6.10764">
        <ele>2000.4</ele>
        <time>2024-08-13T14:35:42Z</time>
      </trkpt>
      <trkpt lat="44.85743" lon="6.10764">
        <ele>2000</ele>
        <time>2024-08-13T14:35:43Z</time>
      </trkpt>
      <trkpt lat="44.85745" lon="6.10764">
        <ele>1999.8</ele>
        <time>2024-08-13T14:35:44Z</time>
      </trkpt>
      <trkpt lat="44.85745" lon="6.10764">
        <ele>1999.2</ele>
        <time>2024-08-13T14:35:45Z</time>
      </trkpt>
      <trkpt lat="44.85748" lon="6.10763">
        <ele>1998.8</ele>
        <time>2024-08-13T14:35:46Z</time>
      </trkpt>
      <trkpt lat="44.85748" lon="6.10763">
        <ele>1998.4</ele>
        <time>2024-08-13T14:35:47Z</time>
      </trkpt>
      <trkpt lat="44.8575" lon="6.10762">
        <ele>1998</ele>
        <time>2024-08-13T14:35:48Z</time>
      </trkpt>
      <trkpt lat="44.8575" lon="6.10762">
        <ele>1998</ele>
        <time>2024-08-13T14:35:49Z</time>
      </trkpt>
      <trkpt lat="44.85753" lon="6.10761">
        <ele>1997.6</ele>
        <time>2024-08-13T14:35:50Z</time>
      </trkpt>
      <trkpt lat="44.85753" lon="6.10761">
        <ele>1996.8</ele>
        <time>2024-08-13T14:35:51Z</time>
      </trkpt>
      <trkpt lat="44.85755" lon="6.10761">
        <ele>1996.6</ele>
        <time>2024-08-13T14:35:52Z</time>
      </trkpt>
      <trkpt lat="44.85755" lon="6.10761">
        <ele>1996.6</ele>
        <time>2024-08-13T14:35:53Z</time>
      </trkpt>
      <trkpt lat="44.85758" lon="6.10762">
        <ele>1996.6</ele>
        <time>2024-08-13T14:35:54Z</time>
      </trkpt>
      <trkpt lat="44.85758" lon="6.10762">
        <ele>1996.2</ele>
        <time>2024-08-13T14:35:55Z</time>
      </trkpt>
      <trkpt lat="44.8576" lon="6.10762">
        <ele>1996.2</ele>
        <time>2024-08-13T14:35:56Z</time>
      </trkpt>
      <trkpt lat="44.8576" lon="6.10762">
        <ele>1996.6</ele>
        <time>2024-08-13T14:35:57Z</time>
      </trkpt>
      <trkpt lat="44.85763" lon="6.10763">
        <ele>1996.6</ele>
        <time>2024-08-13T14:35:58Z</time>
      </trkpt>
      <trkpt lat="44.85763" lon="6.10763">
        <ele>1996.4</ele>
        <time>2024-08-13T14:35:59Z</time>
      </trkpt>
      <trkpt lat="44.85763" lon="6.10763">
        <ele>1996</ele>
        <time>2024-08-13T14:36:00Z</time>
      </trkpt>
      <trkpt lat="44.85765" lon="6.10762">
        <ele>1995.8</ele>
        <time>2024-08-13T14:36:01Z</time>
      </trkpt>
      <trkpt lat="44.85765" lon="6.10762">
        <ele>1995.4</ele>
        <time>2024-08-13T14:36:02Z</time>
      </trkpt>
      <trkpt lat="44.85767" lon="6.10762">
        <ele>1995.4</ele>
        <time>2024-08-13T14:36:03Z</time>
      </trkpt>
      <trkpt lat="44.85767" lon="6.10762">
        <ele>1995.4</ele>
        <time>2024-08-13T14:36:04Z</time>
      </trkpt>
      <trkpt lat="44.85767" lon="6.10762">
        <ele>1994.8</ele>
        <time>2024-08-13T14:36:05Z</time>
      </trkpt>
      <trkpt lat="44.8577" lon="6.10762">
        <ele>1994.2</ele>
        <time>2024-08-13T14:36:06Z</time>
      </trkpt>
      <trkpt lat="44.8577" lon="6.10762">
        <ele>1994.2</ele>
        <time>2024-08-13T14:36:07Z</time>
      </trkpt>
      <trkpt lat="44.85772" lon="6.10763">
        <ele>1994.2</ele>
        <time>2024-08-13T14:36:08Z</time>
      </trkpt>
      <trkpt lat="44.85772" lon="6.10763">
        <ele>1994</ele>
        <time>2024-08-13T14:36:09Z</time>
      </trkpt>
      <trkpt lat="44.85774" lon="6.10763">
        <ele>1994</ele>
        <time>2024-08-13T14:36:10Z</time>
      </trkpt>
      <trkpt lat="44.85774" lon="6.10763">
        <ele>1993.8</ele>
        <time>2024-08-13T14:36:11Z</time>
      </trkpt>
      <trkpt lat="44.85776" lon="6.10766">
        <ele>1993.4</ele>
        <time>2024-08-13T14:36:12Z</time>
      </trkpt>
      <trkpt lat="44.85776" lon="6.10766">
        <ele>1993.2</ele>
        <time>2024-08-13T14:36:13Z</time>
      </trkpt>
      <trkpt lat="44.85778" lon="6.10768">
        <ele>1992.8</ele>
        <time>2024-08-13T14:36:14Z</time>
      </trkpt>
      <trkpt lat="44.85778" lon="6.10768">
        <ele>1992.4</ele>
        <time>2024-08-13T14:36:15Z</time>
      </trkpt>
      <trkpt lat="44.85781" lon="6.1077">
        <ele>1992.4</ele>
        <time>2024-08-13T14:36:16Z</time>
      </trkpt>
      <trkpt lat="44.85781" lon="6.1077">
        <ele>1992.4</ele>
        <time>2024-08-13T14:36:17Z</time>
      </trkpt>
      <trkpt lat="44.85782" lon="6.10771">
        <ele>1992</ele>
        <time>2024-08-13T14:36:18Z</time>
      </trkpt>
      <trkpt lat="44.85782" lon="6.10771">
        <ele>1992</ele>
        <time>2024-08-13T14:36:19Z</time>
      </trkpt>
      <trkpt lat="44.85784" lon="6.10772">
        <ele>1992</ele>
        <time>2024-08-13T14:36:20Z</time>
      </trkpt>
      <trkpt lat="44.85784" lon="6.10772">
        <ele>1992</ele>
        <time>2024-08-13T14:36:21Z</time>
      </trkpt>
      <trkpt lat="44.85787" lon="6.10773">
        <ele>1992.2</ele>
        <time>2024-08-13T14:36:22Z</time>
      </trkpt>
      <trkpt lat="44.85787" lon="6.10773">
        <ele>1992.2</ele>
        <time>2024-08-13T14:36:23Z</time>
      </trkpt>
      <trkpt lat="44.85789" lon="6.10774">
        <ele>1991.8</ele>
        <time>2024-08-13T14:36:24Z</time>
      </trkpt>
      <trkpt lat="44.85789" lon="6.10774">
        <ele>1991.6</ele>
        <time>2024-08-13T14:36:25Z</time>
      </trkpt>
      <trkpt lat="44.85789" lon="6.10774">
        <ele>1991.6</ele>
        <time>2024-08-13T14:36:26Z</time>
      </trkpt>
      <trkpt lat="44.85791" lon="6.10776">
        <ele>1991.6</ele>
        <time>2024-08-13T14:36:27Z</time>
      </trkpt>
      <trkpt lat="44.85791" lon="6.10776">
        <ele>1992</ele>
        <time>2024-08-13T14:36:28Z</time>
      </trkpt>
      <trkpt lat="44.85793" lon="6.10777">
        <ele>1991.8</ele>
        <time>2024-08-13T14:36:29Z</time>
      </trkpt>
      <trkpt lat="44.85793" lon="6.10777">
        <ele>1991.8</ele>
        <time>2024-08-13T14:36:30Z</time>
      </trkpt>
      <trkpt lat="44.85795" lon="6.10779">
        <ele>1991.4</ele>
        <time>2024-08-13T14:36:31Z</time>
      </trkpt>
      <trkpt lat="44.85795" lon="6.10779">
        <ele>1991</ele>
        <time>2024-08-13T14:36:32Z</time>
      </trkpt>
      <trkpt lat="44.85797" lon="6.10781">
        <ele>1990.6</ele>
        <time>2024-08-13T14:36:33Z</time>
      </trkpt>
      <trkpt lat="44.85797" lon="6.10781">
        <ele>1990.4</ele>
        <time>2024-08-13T14:36:34Z</time>
      </trkpt>
      <trkpt lat="44.85797" lon="6.10781">
        <ele>1990.2</ele>
        <time>2024-08-13T14:36:35Z</time>
      </trkpt>
      <trkpt lat="44.85799" lon="6.10783">
        <ele>1990</ele>
        <time>2024-08-13T14:36:36Z</time>
      </trkpt>
      <trkpt lat="44.85799" lon="6.10783">
        <ele>1990</ele>
        <time>2024-08-13T14:36:37Z</time>
      </trkpt>
      <trkpt lat="44.858" lon="6.10785">
        <ele>1990</ele>
        <time>2024-08-13T14:36:38Z</time>
      </trkpt>
      <trkpt lat="44.858" lon="6.10785">
        <ele>1990.6</ele>
        <time>2024-08-13T14:36:39Z</time>
      </trkpt>
      <trkpt lat="44.85802" lon="6.10787">
        <ele>1990.8</ele>
        <time>2024-08-13T14:36:40Z</time>
      </trkpt>
      <trkpt lat="44.85802" lon="6.10787">
        <ele>1991.2</ele>
        <time>2024-08-13T14:36:41Z</time>
      </trkpt>
      <trkpt lat="44.85802" lon="6.10787">
        <ele>1991.2</ele>
        <time>2024-08-13T14:36:42Z</time>
      </trkpt>
      <trkpt lat="44.85804" lon="6.10789">
        <ele>1991.2</ele>
        <time>2024-08-13T14:36:43Z</time>
      </trkpt>
      <trkpt lat="44.85804" lon="6.10789">
        <ele>1991.4</ele>
        <time>2024-08-13T14:36:44Z</time>
      </trkpt>
      <trkpt lat="44.85806" lon="6.10788">
        <ele>1991.4</ele>
        <time>2024-08-13T14:36:45Z</time>
      </trkpt>
      <trkpt lat="44.85806" lon="6.10788">
        <ele>1991.6</ele>
        <time>2024-08-13T14:36:46Z</time>
      </trkpt>
      <trkpt lat="44.85807" lon="6.10786">
        <ele>1991.4</ele>
        <time>2024-08-13T14:36:47Z</time>
      </trkpt>
      <trkpt lat="44.85807" lon="6.10786">
        <ele>1991.4</ele>
        <time>2024-08-13T14:36:48Z</time>
      </trkpt>
      <trkpt lat="44.85807" lon="6.10786">
        <ele>1991.4</ele>
        <time>2024-08-13T14:36:49Z</time>
      </trkpt>
      <trkpt lat="44.85807" lon="6.10783">
        <ele>1991.4</ele>
        <time>2024-08-13T14:36:50Z</time>
      </trkpt>
      <trkpt lat="44.85807" lon="6.10783">
        <ele>1991.8</ele>
        <time>2024-08-13T14:36:51Z</time>
      </trkpt>
      <trkpt lat="44.85809" lon="6.10781">
        <ele>1992</ele>
        <time>2024-08-13T14:36:52Z</time>
      </trkpt>
      <trkpt lat="44.85809" lon="6.10781">
        <ele>1992</ele>
        <time>2024-08-13T14:36:53Z</time>
      </trkpt>
      <trkpt lat="44.8581" lon="6.10778">
        <ele>1991.4</ele>
        <time>2024-08-13T14:36:54Z</time>
      </trkpt>
      <trkpt lat="44.8581" lon="6.10778">
        <ele>1991.4</ele>
        <time>2024-08-13T14:36:55Z</time>
      </trkpt>
      <trkpt lat="44.85812" lon="6.10776">
        <ele>1991.2</ele>
        <time>2024-08-13T14:36:56Z</time>
      </trkpt>
      <trkpt lat="44.85812" lon="6.10776">
        <ele>1990.8</ele>
        <time>2024-08-13T14:36:57Z</time>
      </trkpt>
      <trkpt lat="44.85812" lon="6.10776">
        <ele>1990.6</ele>
        <time>2024-08-13T14:36:58Z</time>
      </trkpt>
      <trkpt lat="44.85814" lon="6.10773">
        <ele>1990.4</ele>
        <time>2024-08-13T14:36:59Z</time>
      </trkpt>
      <trkpt lat="44.85814" lon="6.10773">
        <ele>1990.6</ele>
        <time>2024-08-13T14:37:00Z</time>
      </trkpt>
      <trkpt lat="44.85816" lon="6.10772">
        <ele>1990.6</ele>
        <time>2024-08-13T14:37:01Z</time>
      </trkpt>
      <trkpt lat="44.85816" lon="6.10772">
        <ele>1990.4</ele>
        <time>2024-08-13T14:37:02Z</time>
      </trkpt>
      <trkpt lat="44.85816" lon="6.10772">
        <ele>1990.4</ele>
        <time>2024-08-13T14:37:03Z</time>
      </trkpt>
      <trkpt lat="44.85819" lon="6.1077">
        <ele>1989.6</ele>
        <time>2024-08-13T14:37:04Z</time>
      </trkpt>
      <trkpt lat="44.85819" lon="6.1077">
        <ele>1989</ele>
        <time>2024-08-13T14:37:05Z</time>
      </trkpt>
      <trkpt lat="44.85822" lon="6.10768">
        <ele>1988.8</ele>
        <time>2024-08-13T14:37:06Z</time>
      </trkpt>
      <trkpt lat="44.85822" lon="6.10768">
        <ele>1988.6</ele>
        <time>2024-08-13T14:37:07Z</time>
      </trkpt>
      <trkpt lat="44.85824" lon="6.10767">
        <ele>1988.2</ele>
        <time>2024-08-13T14:37:08Z</time>
      </trkpt>
      <trkpt lat="44.85824" lon="6.10767">
        <ele>1988</ele>
        <time>2024-08-13T14:37:09Z</time>
      </trkpt>
      <trkpt lat="44.85827" lon="6.10766">
        <ele>1988</ele>
        <time>2024-08-13T14:37:10Z</time>
      </trkpt>
      <trkpt lat="44.85827" lon="6.10766">
        <ele>1988</ele>
        <time>2024-08-13T14:37:11Z</time>
      </trkpt>
      <trkpt lat="44.85829" lon="6.10764">
        <ele>1988</ele>
        <time>2024-08-13T14:37:12Z</time>
      </trkpt>
      <trkpt lat="44.85829" lon="6.10764">
        <ele>1987.8</ele>
        <time>2024-08-13T14:37:13Z</time>
      </trkpt>
      <trkpt lat="44.85831" lon="6.10763">
        <ele>1987.4</ele>
        <time>2024-08-13T14:37:14Z</time>
      </trkpt>
      <trkpt lat="44.85831" lon="6.10763">
        <ele>1987</ele>
        <time>2024-08-13T14:37:15Z</time>
      </trkpt>
      <trkpt lat="44.85833" lon="6.10761">
        <ele>1987</ele>
        <time>2024-08-13T14:37:16Z</time>
      </trkpt>
      <trkpt lat="44.85833" lon="6.10761">
        <ele>1987.2</ele>
        <time>2024-08-13T14:37:17Z</time>
      </trkpt>
      <trkpt lat="44.85836" lon="6.10759">
        <ele>1987.2</ele>
        <time>2024-08-13T14:37:18Z</time>
      </trkpt>
      <trkpt lat="44.85836" lon="6.10759">
        <ele>1987</ele>
        <time>2024-08-13T14:37:19Z</time>
      </trkpt>
      <trkpt lat="44.85838" lon="6.10759">
        <ele>1986.8</ele>
        <time>2024-08-13T14:37:20Z</time>
      </trkpt>
      <trkpt lat="44.85838" lon="6.10759">
        <ele>1986.4</ele>
        <time>2024-08-13T14:37:21Z</time>
      </trkpt>
      <trkpt lat="44.8584" lon="6.10758">
        <ele>1986.2</ele>
        <time>2024-08-13T14:37:22Z</time>
      </trkpt>
      <trkpt lat="44.8584" lon="6.10758">
        <ele>1986</ele>
        <time>2024-08-13T14:37:23Z</time>
      </trkpt>
      <trkpt lat="44.85843" lon="6.10758">
        <ele>1985.8</ele>
        <time>2024-08-13T14:37:24Z</time>
      </trkpt>
      <trkpt lat="44.85843" lon="6.10758">
        <ele>1985.8</ele>
        <time>2024-08-13T14:37:25Z</time>
      </trkpt>
      <trkpt lat="44.85845" lon="6.10759">
        <ele>1985.8</ele>
        <time>2024-08-13T14:37:26Z</time>
      </trkpt>
      <trkpt lat="44.85845" lon="6.10759">
        <ele>1985.6</ele>
        <time>2024-08-13T14:37:27Z</time>
      </trkpt>
      <trkpt lat="44.85846" lon="6.1076">
        <ele>1985.4</ele>
        <time>2024-08-13T14:37:28Z</time>
      </trkpt>
      <trkpt lat="44.85846" lon="6.1076">
        <ele>1985.4</ele>
        <time>2024-08-13T14:37:29Z</time>
      </trkpt>
      <trkpt lat="44.85848" lon="6.10762">
        <ele>1985.8</ele>
        <time>2024-08-13T14:37:30Z</time>
      </trkpt>
      <trkpt lat="44.85848" lon="6.10762">
        <ele>1985.8</ele>
        <time>2024-08-13T14:37:31Z</time>
      </trkpt>
      <trkpt lat="44.8585" lon="6.10763">
        <ele>1985</ele>
        <time>2024-08-13T14:37:32Z</time>
      </trkpt>
      <trkpt lat="44.8585" lon="6.10763">
        <ele>1984.4</ele>
        <time>2024-08-13T14:37:33Z</time>
      </trkpt>
      <trkpt lat="44.8585" lon="6.10763">
        <ele>1984.4</ele>
        <time>2024-08-13T14:37:34Z</time>
      </trkpt>
      <trkpt lat="44.85852" lon="6.10764">
        <ele>1984.8</ele>
        <time>2024-08-13T14:37:35Z</time>
      </trkpt>
      <trkpt lat="44.85852" lon="6.10764">
        <ele>1985</ele>
        <time>2024-08-13T14:37:36Z</time>
      </trkpt>
      <trkpt lat="44.85854" lon="6.10766">
        <ele>1984.8</ele>
        <time>2024-08-13T14:37:37Z</time>
      </trkpt>
      <trkpt lat="44.85854" lon="6.10766">
        <ele>1985.2</ele>
        <time>2024-08-13T14:37:38Z</time>
      </trkpt>
      <trkpt lat="44.85854" lon="6.10766">
        <ele>1985.4</ele>
        <time>2024-08-13T14:37:39Z</time>
      </trkpt>
      <trkpt lat="44.85856" lon="6.10768">
        <ele>1985.4</ele>
        <time>2024-08-13T14:37:40Z</time>
      </trkpt>
      <trkpt lat="44.85856" lon="6.10768">
        <ele>1985.4</ele>
        <time>2024-08-13T14:37:41Z</time>
      </trkpt>
      <trkpt lat="44.85856" lon="6.10768">
        <ele>1985.4</ele>
        <time>2024-08-13T14:37:42Z</time>
      </trkpt>
      <trkpt lat="44.85859" lon="6.10768">
        <ele>1985.4</ele>
        <time>2024-08-13T14:37:43Z</time>
      </trkpt>
      <trkpt lat="44.85859" lon="6.10768">
        <ele>1985</ele>
        <time>2024-08-13T14:37:44Z</time>
      </trkpt>
      <trkpt lat="44.85859" lon="6.10768">
        <ele>1984.8</ele>
        <time>2024-08-13T14:37:45Z</time>
      </trkpt>
      <trkpt lat="44.85861" lon="6.10766">
        <ele>1984.6</ele>
        <time>2024-08-13T14:37:46Z</time>
      </trkpt>
      <trkpt lat="44.85861" lon="6.10766">
        <ele>1984</ele>
        <time>2024-08-13T14:37:47Z</time>
      </trkpt>
      <trkpt lat="44.85861" lon="6.10766">
        <ele>1984</ele>
        <time>2024-08-13T14:37:48Z</time>
      </trkpt>
      <trkpt lat="44.85862" lon="6.10764">
        <ele>1984</ele>
        <time>2024-08-13T14:37:49Z</time>
      </trkpt>
      <trkpt lat="44.85862" lon="6.10764">
        <ele>1984.2</ele>
        <time>2024-08-13T14:37:50Z</time>
      </trkpt>
      <trkpt lat="44.85862" lon="6.10764">
        <ele>1984.2</ele>
        <time>2024-08-13T14:37:51Z</time>
      </trkpt>
      <trkpt lat="44.85864" lon="6.10762">
        <ele>1984.2</ele>
        <time>2024-08-13T14:37:52Z</time>
      </trkpt>
      <trkpt lat="44.85864" lon="6.10762">
        <ele>1984.2</ele>
        <time>2024-08-13T14:37:53Z</time>
      </trkpt>
      <trkpt lat="44.85864" lon="6.10762">
        <ele>1984</ele>
        <time>2024-08-13T14:37:54Z</time>
      </trkpt>
      <trkpt lat="44.85866" lon="6.10759">
        <ele>1983.8</ele>
        <time>2024-08-13T14:37:55Z</time>
      </trkpt>
      <trkpt lat="44.85866" lon="6.10759">
        <ele>1983.6</ele>
        <time>2024-08-13T14:37:56Z</time>
      </trkpt>
      <trkpt lat="44.85866" lon="6.10759">
        <ele>1983.4</ele>
        <time>2024-08-13T14:37:57Z</time>
      </trkpt>
      <trkpt lat="44.85869" lon="6.10756">
        <ele>1983.2</ele>
        <time>2024-08-13T14:37:58Z</time>
      </trkpt>
      <trkpt lat="44.85869" lon="6.10756">
        <ele>1983</ele>
        <time>2024-08-13T14:37:59Z</time>
      </trkpt>
      <trkpt lat="44.8587" lon="6.10756">
        <ele>1982.6</ele>
        <time>2024-08-13T14:38:00Z</time>
      </trkpt>
      <trkpt lat="44.8587" lon="6.10756">
        <ele>1982.4</ele>
        <time>2024-08-13T14:38:01Z</time>
      </trkpt>
      <trkpt lat="44.85873" lon="6.10756">
        <ele>1983</ele>
        <time>2024-08-13T14:38:02Z</time>
      </trkpt>
      <trkpt lat="44.85873" lon="6.10756">
        <ele>1983</ele>
        <time>2024-08-13T14:38:03Z</time>
      </trkpt>
      <trkpt lat="44.85875" lon="6.10756">
        <ele>1983.8</ele>
        <time>2024-08-13T14:38:04Z</time>
      </trkpt>
      <trkpt lat="44.85875" lon="6.10756">
        <ele>1984</ele>
        <time>2024-08-13T14:38:05Z</time>
      </trkpt>
      <trkpt lat="44.85877" lon="6.10755">
        <ele>1984</ele>
        <time>2024-08-13T14:38:06Z</time>
      </trkpt>
      <trkpt lat="44.85877" lon="6.10755">
        <ele>1983</ele>
        <time>2024-08-13T14:38:07Z</time>
      </trkpt>
      <trkpt lat="44.85877" lon="6.10755">
        <ele>1983</ele>
        <time>2024-08-13T14:38:08Z</time>
      </trkpt>
      <trkpt lat="44.85879" lon="6.10755">
        <ele>1983.4</ele>
        <time>2024-08-13T14:38:09Z</time>
      </trkpt>
      <trkpt lat="44.85879" lon="6.10755">
        <ele>1983.2</ele>
        <time>2024-08-13T14:38:10Z</time>
      </trkpt>
      <trkpt lat="44.85879" lon="6.10755">
        <ele>1983.2</ele>
        <time>2024-08-13T14:38:11Z</time>
      </trkpt>
      <trkpt lat="44.85879" lon="6.10755">
        <ele>1983.4</ele>
        <time>2024-08-13T14:38:12Z</time>
      </trkpt>
      <trkpt lat="44.85881" lon="6.10754">
        <ele>1983.8</ele>
        <time>2024-08-13T14:38:13Z</time>
      </trkpt>
      <trkpt lat="44.85881" lon="6.10754">
        <ele>1983.8</ele>
        <time>2024-08-13T14:38:14Z</time>
      </trkpt>
      <trkpt lat="44.85883" lon="6.10752">
        <ele>1983.2</ele>
        <time>2024-08-13T14:38:15Z</time>
      </trkpt>
      <trkpt lat="44.85883" lon="6.10752">
        <ele>1983.2</ele>
        <time>2024-08-13T14:38:16Z</time>
      </trkpt>
      <trkpt lat="44.85885" lon="6.10751">
        <ele>1982.8</ele>
        <time>2024-08-13T14:38:17Z</time>
      </trkpt>
      <trkpt lat="44.85885" lon="6.10751">
        <ele>1982.6</ele>
        <time>2024-08-13T14:38:18Z</time>
      </trkpt>
      <trkpt lat="44.85887" lon="6.1075">
        <ele>1982.2</ele>
        <time>2024-08-13T14:38:19Z</time>
      </trkpt>
      <trkpt lat="44.85887" lon="6.1075">
        <ele>1982.2</ele>
        <time>2024-08-13T14:38:20Z</time>
      </trkpt>
      <trkpt lat="44.85889" lon="6.10749">
        <ele>1982.6</ele>
        <time>2024-08-13T14:38:21Z</time>
      </trkpt>
      <trkpt lat="44.85889" lon="6.10749">
        <ele>1982.4</ele>
        <time>2024-08-13T14:38:22Z</time>
      </trkpt>
      <trkpt lat="44.85891" lon="6.10748">
        <ele>1982.4</ele>
        <time>2024-08-13T14:38:23Z</time>
      </trkpt>
      <trkpt lat="44.85891" lon="6.10748">
        <ele>1982.4</ele>
        <time>2024-08-13T14:38:24Z</time>
      </trkpt>
      <trkpt lat="44.85893" lon="6.10747">
        <ele>1982.6</ele>
        <time>2024-08-13T14:38:25Z</time>
      </trkpt>
      <trkpt lat="44.85893" lon="6.10747">
        <ele>1982.8</ele>
        <time>2024-08-13T14:38:26Z</time>
      </trkpt>
      <trkpt lat="44.85893" lon="6.10747">
        <ele>1982.8</ele>
        <time>2024-08-13T14:38:27Z</time>
      </trkpt>
      <trkpt lat="44.85895" lon="6.10748">
        <ele>1982.6</ele>
        <time>2024-08-13T14:38:28Z</time>
      </trkpt>
      <trkpt lat="44.85895" lon="6.10748">
        <ele>1982.6</ele>
        <time>2024-08-13T14:38:29Z</time>
      </trkpt>
      <trkpt lat="44.85895" lon="6.10748">
        <ele>1982.8</ele>
        <time>2024-08-13T14:38:30Z</time>
      </trkpt>
      <trkpt lat="44.85898" lon="6.10745">
        <ele>1982.8</ele>
        <time>2024-08-13T14:38:31Z</time>
      </trkpt>
      <trkpt lat="44.85898" lon="6.10745">
        <ele>1982.4</ele>
        <time>2024-08-13T14:38:32Z</time>
      </trkpt>
      <trkpt lat="44.859" lon="6.10743">
        <ele>1982</ele>
        <time>2024-08-13T14:38:33Z</time>
      </trkpt>
      <trkpt lat="44.859" lon="6.10743">
        <ele>1981.8</ele>
        <time>2024-08-13T14:38:34Z</time>
      </trkpt>
      <trkpt lat="44.85903" lon="6.10742">
        <ele>1981.8</ele>
        <time>2024-08-13T14:38:35Z</time>
      </trkpt>
      <trkpt lat="44.85903" lon="6.10742">
        <ele>1981.8</ele>
        <time>2024-08-13T14:38:36Z</time>
      </trkpt>
      <trkpt lat="44.85905" lon="6.1074">
        <ele>1981.8</ele>
        <time>2024-08-13T14:38:37Z</time>
      </trkpt>
      <trkpt lat="44.85905" lon="6.1074">
        <ele>1981.8</ele>
        <time>2024-08-13T14:38:38Z</time>
      </trkpt>
      <trkpt lat="44.85907" lon="6.10739">
        <ele>1981.8</ele>
        <time>2024-08-13T14:38:39Z</time>
      </trkpt>
      <trkpt lat="44.85907" lon="6.10739">
        <ele>1981.8</ele>
        <time>2024-08-13T14:38:40Z</time>
      </trkpt>
      <trkpt lat="44.85909" lon="6.10737">
        <ele>1982.2</ele>
        <time>2024-08-13T14:38:41Z</time>
      </trkpt>
      <trkpt lat="44.85909" lon="6.10737">
        <ele>1982</ele>
        <time>2024-08-13T14:38:42Z</time>
      </trkpt>
      <trkpt lat="44.85911" lon="6.10735">
        <ele>1981.6</ele>
        <time>2024-08-13T14:38:43Z</time>
      </trkpt>
      <trkpt lat="44.85911" lon="6.10735">
        <ele>1981.6</ele>
        <time>2024-08-13T14:38:44Z</time>
      </trkpt>
      <trkpt lat="44.85911" lon="6.10735">
        <ele>1981.6</ele>
        <time>2024-08-13T14:38:45Z</time>
      </trkpt>
      <trkpt lat="44.85913" lon="6.10734">
        <ele>1981.8</ele>
        <time>2024-08-13T14:38:46Z</time>
      </trkpt>
      <trkpt lat="44.85913" lon="6.10734">
        <ele>1982</ele>
        <time>2024-08-13T14:38:47Z</time>
      </trkpt>
      <trkpt lat="44.85915" lon="6.10732">
        <ele>1982.2</ele>
        <time>2024-08-13T14:38:48Z</time>
      </trkpt>
      <trkpt lat="44.85915" lon="6.10732">
        <ele>1982.6</ele>
        <time>2024-08-13T14:38:49Z</time>
      </trkpt>
      <trkpt lat="44.85917" lon="6.10731">
        <ele>1982.8</ele>
        <time>2024-08-13T14:38:50Z</time>
      </trkpt>
      <trkpt lat="44.85917" lon="6.10731">
        <ele>1983</ele>
        <time>2024-08-13T14:38:51Z</time>
      </trkpt>
      <trkpt lat="44.85918" lon="6.10729">
        <ele>1983</ele>
        <time>2024-08-13T14:38:52Z</time>
      </trkpt>
      <trkpt lat="44.85918" lon="6.10729">
        <ele>1983</ele>
        <time>2024-08-13T14:38:53Z</time>
      </trkpt>
      <trkpt lat="44.85918" lon="6.10729">
        <ele>1983.4</ele>
        <time>2024-08-13T14:38:54Z</time>
      </trkpt>
      <trkpt lat="44.85919" lon="6.10725">
        <ele>1983.6</ele>
        <time>2024-08-13T14:38:55Z</time>
      </trkpt>
      <trkpt lat="44.85919" lon="6.10725">
        <ele>1984</ele>
        <time>2024-08-13T14:38:56Z</time>
      </trkpt>
      <trkpt lat="44.85919" lon="6.10725">
        <ele>1984.2</ele>
        <time>2024-08-13T14:38:57Z</time>
      </trkpt>
      <trkpt lat="44.85921" lon="6.10722">
        <ele>1984.4</ele>
        <time>2024-08-13T14:38:58Z</time>
      </trkpt>
      <trkpt lat="44.85921" lon="6.10722">
        <ele>1985</ele>
        <time>2024-08-13T14:38:59Z</time>
      </trkpt>
      <trkpt lat="44.85922" lon="6.10721">
        <ele>1985</ele>
        <time>2024-08-13T14:39:00Z</time>
      </trkpt>
      <trkpt lat="44.85922" lon="6.10721">
        <ele>1985.2</ele>
        <time>2024-08-13T14:39:01Z</time>
      </trkpt>
      <trkpt lat="44.85923" lon="6.10717">
        <ele>1985.2</ele>
        <time>2024-08-13T14:39:02Z</time>
      </trkpt>
      <trkpt lat="44.85923" lon="6.10717">
        <ele>1985.2</ele>
        <time>2024-08-13T14:39:03Z</time>
      </trkpt>
      <trkpt lat="44.85924" lon="6.10713">
        <ele>1985.2</ele>
        <time>2024-08-13T14:39:04Z</time>
      </trkpt>
      <trkpt lat="44.85924" lon="6.10713">
        <ele>1985.2</ele>
        <time>2024-08-13T14:39:05Z</time>
      </trkpt>
      <trkpt lat="44.85924" lon="6.10713">
        <ele>1985.2</ele>
        <time>2024-08-13T14:39:06Z</time>
      </trkpt>
      <trkpt lat="44.85925" lon="6.10711">
        <ele>1985.2</ele>
        <time>2024-08-13T14:39:07Z</time>
      </trkpt>
      <trkpt lat="44.85925" lon="6.10711">
        <ele>1985.2</ele>
        <time>2024-08-13T14:39:08Z</time>
      </trkpt>
      <trkpt lat="44.85925" lon="6.10711">
        <ele>1985.4</ele>
        <time>2024-08-13T14:39:09Z</time>
      </trkpt>
      <trkpt lat="44.85927" lon="6.1071">
        <ele>1985.6</ele>
        <time>2024-08-13T14:39:10Z</time>
      </trkpt>
      <trkpt lat="44.85927" lon="6.1071">
        <ele>1986</ele>
        <time>2024-08-13T14:39:11Z</time>
      </trkpt>
      <trkpt lat="44.85927" lon="6.1071">
        <ele>1985.8</ele>
        <time>2024-08-13T14:39:12Z</time>
      </trkpt>
      <trkpt lat="44.8593" lon="6.10708">
        <ele>1986</ele>
        <time>2024-08-13T14:39:13Z</time>
      </trkpt>
      <trkpt lat="44.8593" lon="6.10708">
        <ele>1986.2</ele>
        <time>2024-08-13T14:39:14Z</time>
      </trkpt>
      <trkpt lat="44.8593" lon="6.10708">
        <ele>1986.8</ele>
        <time>2024-08-13T14:39:15Z</time>
      </trkpt>
      <trkpt lat="44.85932" lon="6.10705">
        <ele>1986.8</ele>
        <time>2024-08-13T14:39:16Z</time>
      </trkpt>
      <trkpt lat="44.85932" lon="6.10705">
        <ele>1986.8</ele>
        <time>2024-08-13T14:39:17Z</time>
      </trkpt>
      <trkpt lat="44.85934" lon="6.10704">
        <ele>1986.6</ele>
        <time>2024-08-13T14:39:18Z</time>
      </trkpt>
      <trkpt lat="44.85934" lon="6.10704">
        <ele>1986</ele>
        <time>2024-08-13T14:39:19Z</time>
      </trkpt>
      <trkpt lat="44.85936" lon="6.10704">
        <ele>1984.2</ele>
        <time>2024-08-13T14:39:20Z</time>
      </trkpt>
      <trkpt lat="44.85936" lon="6.10704">
        <ele>1983.4</ele>
        <time>2024-08-13T14:39:21Z</time>
      </trkpt>
      <trkpt lat="44.85936" lon="6.10704">
        <ele>1983.4</ele>
        <time>2024-08-13T14:39:22Z</time>
      </trkpt>
      <trkpt lat="44.85938" lon="6.10704">
        <ele>1983.4</ele>
        <time>2024-08-13T14:39:23Z</time>
      </trkpt>
      <trkpt lat="44.85938" lon="6.10704">
        <ele>1983.4</ele>
        <time>2024-08-13T14:39:24Z</time>
      </trkpt>
      <trkpt lat="44.8594" lon="6.10706">
        <ele>1982.6</ele>
        <time>2024-08-13T14:39:25Z</time>
      </trkpt>
      <trkpt lat="44.8594" lon="6.10706">
        <ele>1982.4</ele>
        <time>2024-08-13T14:39:26Z</time>
      </trkpt>
      <trkpt lat="44.8594" lon="6.10706">
        <ele>1982.4</ele>
        <time>2024-08-13T14:39:27Z</time>
      </trkpt>
      <trkpt lat="44.85943" lon="6.10706">
        <ele>1982.6</ele>
        <time>2024-08-13T14:39:28Z</time>
      </trkpt>
      <trkpt lat="44.85943" lon="6.10706">
        <ele>1982.6</ele>
        <time>2024-08-13T14:39:29Z</time>
      </trkpt>
      <trkpt lat="44.85945" lon="6.10706">
        <ele>1982.6</ele>
        <time>2024-08-13T14:39:30Z</time>
      </trkpt>
      <trkpt lat="44.85945" lon="6.10706">
        <ele>1982.2</ele>
        <time>2024-08-13T14:39:31Z</time>
      </trkpt>
      <trkpt lat="44.85947" lon="6.10706">
        <ele>1982</ele>
        <time>2024-08-13T14:39:32Z</time>
      </trkpt>
      <trkpt lat="44.85947" lon="6.10706">
        <ele>1981.8</ele>
        <time>2024-08-13T14:39:33Z</time>
      </trkpt>
      <trkpt lat="44.85949" lon="6.10706">
        <ele>1981.4</ele>
        <time>2024-08-13T14:39:34Z</time>
      </trkpt>
      <trkpt lat="44.85949" lon="6.10706">
        <ele>1981.4</ele>
        <time>2024-08-13T14:39:35Z</time>
      </trkpt>
      <trkpt lat="44.85949" lon="6.10706">
        <ele>1981.4</ele>
        <time>2024-08-13T14:39:36Z</time>
      </trkpt>
      <trkpt lat="44.85951" lon="6.10707">
        <ele>1981.6</ele>
        <time>2024-08-13T14:39:37Z</time>
      </trkpt>
      <trkpt lat="44.85951" lon="6.10707">
        <ele>1981.6</ele>
        <time>2024-08-13T14:39:38Z</time>
      </trkpt>
      <trkpt lat="44.85951" lon="6.10707">
        <ele>1981.6</ele>
        <time>2024-08-13T14:39:39Z</time>
      </trkpt>
      <trkpt lat="44.85953" lon="6.10708">
        <ele>1981.2</ele>
        <time>2024-08-13T14:39:40Z</time>
      </trkpt>
      <trkpt lat="44.85953" lon="6.10708">
        <ele>1980.8</ele>
        <time>2024-08-13T14:39:41Z</time>
      </trkpt>
      <trkpt lat="44.85953" lon="6.10708">
        <ele>1980.8</ele>
        <time>2024-08-13T14:39:42Z</time>
      </trkpt>
      <trkpt lat="44.85953" lon="6.10708">
        <ele>1980.8</ele>
        <time>2024-08-13T14:39:43Z</time>
      </trkpt>
      <trkpt lat="44.85953" lon="6.10708">
        <ele>1980.6</ele>
        <time>2024-08-13T14:39:44Z</time>
      </trkpt>
      <trkpt lat="44.85953" lon="6.10708">
        <ele>1980.4</ele>
        <time>2024-08-13T14:39:45Z</time>
      </trkpt>
      <trkpt lat="44.85953" lon="6.10708">
        <ele>1980.4</ele>
        <time>2024-08-13T14:39:46Z</time>
      </trkpt>
      <trkpt lat="44.85953" lon="6.10708">
        <ele>1980.4</ele>
        <time>2024-08-13T14:39:47Z</time>
      </trkpt>
      <trkpt lat="44.85953" lon="6.10708">
        <ele>1980.2</ele>
        <time>2024-08-13T14:39:48Z</time>
      </trkpt>
      <trkpt lat="44.85953" lon="6.10708">
        <ele>1980.2</ele>
        <time>2024-08-13T14:39:49Z</time>
      </trkpt>
      <trkpt lat="44.85953" lon="6.10708">
        <ele>1980.6</ele>
        <time>2024-08-13T14:39:50Z</time>
      </trkpt>
      <trkpt lat="44.85953" lon="6.10708">
        <ele>1980.6</ele>
        <time>2024-08-13T14:39:51Z</time>
      </trkpt>
      <trkpt lat="44.85953" lon="6.10708">
        <ele>1980.2</ele>
        <time>2024-08-13T14:39:52Z</time>
      </trkpt>
      <trkpt lat="44.85953" lon="6.10708">
        <ele>1980.2</ele>
        <time>2024-08-13T14:39:53Z</time>
      </trkpt>
      <trkpt lat="44.85953" lon="6.10708">
        <ele>1980.2</ele>
        <time>2024-08-13T14:39:54Z</time>
      </trkpt>
      <trkpt lat="44.85953" lon="6.10708">
        <ele>1979.8</ele>
        <time>2024-08-13T14:39:55Z</time>
      </trkpt>
      <trkpt lat="44.85956" lon="6.10709">
        <ele>1979.8</ele>
        <time>2024-08-13T14:39:56Z</time>
      </trkpt>
      <trkpt lat="44.85956" lon="6.10709">
        <ele>1980.2</ele>
        <time>2024-08-13T14:39:57Z</time>
      </trkpt>
      <trkpt lat="44.85957" lon="6.10709">
        <ele>1980</ele>
        <time>2024-08-13T14:39:58Z</time>
      </trkpt>
      <trkpt lat="44.85957" lon="6.10709">
        <ele>1980</ele>
        <time>2024-08-13T14:39:59Z</time>
      </trkpt>
      <trkpt lat="44.8596" lon="6.1071">
        <ele>1979.6</ele>
        <time>2024-08-13T14:40:00Z</time>
      </trkpt>
      <trkpt lat="44.8596" lon="6.1071">
        <ele>1978.4</ele>
        <time>2024-08-13T14:40:01Z</time>
      </trkpt>
      <trkpt lat="44.85962" lon="6.1071">
        <ele>1978.4</ele>
        <time>2024-08-13T14:40:02Z</time>
      </trkpt>
      <trkpt lat="44.85962" lon="6.1071">
        <ele>1978.4</ele>
        <time>2024-08-13T14:40:03Z</time>
      </trkpt>
      <trkpt lat="44.85962" lon="6.1071">
        <ele>1978</ele>
        <time>2024-08-13T14:40:04Z</time>
      </trkpt>
      <trkpt lat="44.85964" lon="6.1071">
        <ele>1978</ele>
        <time>2024-08-13T14:40:05Z</time>
      </trkpt>
      <trkpt lat="44.85964" lon="6.1071">
        <ele>1978.4</ele>
        <time>2024-08-13T14:40:06Z</time>
      </trkpt>
      <trkpt lat="44.85964" lon="6.1071">
        <ele>1978.4</ele>
        <time>2024-08-13T14:40:07Z</time>
      </trkpt>
      <trkpt lat="44.85966" lon="6.10711">
        <ele>1978</ele>
        <time>2024-08-13T14:40:08Z</time>
      </trkpt>
      <trkpt lat="44.85966" lon="6.10711">
        <ele>1977.6</ele>
        <time>2024-08-13T14:40:09Z</time>
      </trkpt>
      <trkpt lat="44.85968" lon="6.10713">
        <ele>1977</ele>
        <time>2024-08-13T14:40:10Z</time>
      </trkpt>
      <trkpt lat="44.85968" lon="6.10713">
        <ele>1976.4</ele>
        <time>2024-08-13T14:40:11Z</time>
      </trkpt>
      <trkpt lat="44.8597" lon="6.10713">
        <ele>1976.4</ele>
        <time>2024-08-13T14:40:12Z</time>
      </trkpt>
      <trkpt lat="44.8597" lon="6.10713">
        <ele>1976</ele>
        <time>2024-08-13T14:40:13Z</time>
      </trkpt>
      <trkpt lat="44.8597" lon="6.10713">
        <ele>1975.4</ele>
        <time>2024-08-13T14:40:14Z</time>
      </trkpt>
      <trkpt lat="44.85972" lon="6.10712">
        <ele>1975.4</ele>
        <time>2024-08-13T14:40:15Z</time>
      </trkpt>
      <trkpt lat="44.85972" lon="6.10712">
        <ele>1975</ele>
        <time>2024-08-13T14:40:16Z</time>
      </trkpt>
      <trkpt lat="44.85974" lon="6.10712">
        <ele>1974.4</ele>
        <time>2024-08-13T14:40:17Z</time>
      </trkpt>
      <trkpt lat="44.85974" lon="6.10712">
        <ele>1974.2</ele>
        <time>2024-08-13T14:40:18Z</time>
      </trkpt>
      <trkpt lat="44.85974" lon="6.10712">
        <ele>1974.2</ele>
        <time>2024-08-13T14:40:19Z</time>
      </trkpt>
      <trkpt lat="44.85976" lon="6.10711">
        <ele>1974.2</ele>
        <time>2024-08-13T14:40:20Z</time>
      </trkpt>
      <trkpt lat="44.85976" lon="6.10711">
        <ele>1974.2</ele>
        <time>2024-08-13T14:40:21Z</time>
      </trkpt>
      <trkpt lat="44.85978" lon="6.10712">
        <ele>1974.2</ele>
        <time>2024-08-13T14:40:22Z</time>
      </trkpt>
      <trkpt lat="44.85978" lon="6.10712">
        <ele>1974</ele>
        <time>2024-08-13T14:40:23Z</time>
      </trkpt>
      <trkpt lat="44.85979" lon="6.10714">
        <ele>1973.6</ele>
        <time>2024-08-13T14:40:24Z</time>
      </trkpt>
      <trkpt lat="44.85979" lon="6.10714">
        <ele>1973</ele>
        <time>2024-08-13T14:40:25Z</time>
      </trkpt>
      <trkpt lat="44.85979" lon="6.10714">
        <ele>1972.6</ele>
        <time>2024-08-13T14:40:26Z</time>
      </trkpt>
      <trkpt lat="44.85979" lon="6.10714">
        <ele>1972.4</ele>
        <time>2024-08-13T14:40:27Z</time>
      </trkpt>
      <trkpt lat="44.85979" lon="6.10714">
        <ele>1972.4</ele>
        <time>2024-08-13T14:40:28Z</time>
      </trkpt>
      <trkpt lat="44.8598" lon="6.10717">
        <ele>1972.6</ele>
        <time>2024-08-13T14:40:29Z</time>
      </trkpt>
      <trkpt lat="44.8598" lon="6.10717">
        <ele>1972.6</ele>
        <time>2024-08-13T14:40:30Z</time>
      </trkpt>
      <trkpt lat="44.8598" lon="6.10717">
        <ele>1972.6</ele>
        <time>2024-08-13T14:40:31Z</time>
      </trkpt>
      <trkpt lat="44.8598" lon="6.10717">
        <ele>1972.6</ele>
        <time>2024-08-13T14:40:32Z</time>
      </trkpt>
      <trkpt lat="44.8598" lon="6.10717">
        <ele>1972.6</ele>
        <time>2024-08-13T14:40:33Z</time>
      </trkpt>
      <trkpt lat="44.85981" lon="6.10719">
        <ele>1972</ele>
        <time>2024-08-13T14:40:34Z</time>
      </trkpt>
      <trkpt lat="44.85981" lon="6.10719">
        <ele>1972</ele>
        <time>2024-08-13T14:40:35Z</time>
      </trkpt>
      <trkpt lat="44.85981" lon="6.10719">
        <ele>1972</ele>
        <time>2024-08-13T14:40:36Z</time>
      </trkpt>
      <trkpt lat="44.85981" lon="6.10719">
        <ele>1971.6</ele>
        <time>2024-08-13T14:40:37Z</time>
      </trkpt>
      <trkpt lat="44.85982" lon="6.10721">
        <ele>1971.4</ele>
        <time>2024-08-13T14:40:38Z</time>
      </trkpt>
      <trkpt lat="44.85982" lon="6.10721">
        <ele>1971</ele>
        <time>2024-08-13T14:40:39Z</time>
      </trkpt>
      <trkpt lat="44.85982" lon="6.10721">
        <ele>1970.8</ele>
        <time>2024-08-13T14:40:40Z</time>
      </trkpt>
      <trkpt lat="44.85982" lon="6.10721">
        <ele>1970.6</ele>
        <time>2024-08-13T14:40:41Z</time>
      </trkpt>
      <trkpt lat="44.85982" lon="6.10721">
        <ele>1970.6</ele>
        <time>2024-08-13T14:40:42Z</time>
      </trkpt>
      <trkpt lat="44.85985" lon="6.10722">
        <ele>1969.6</ele>
        <time>2024-08-13T14:40:43Z</time>
      </trkpt>
      <trkpt lat="44.85985" lon="6.10722">
        <ele>1969.2</ele>
        <time>2024-08-13T14:40:44Z</time>
      </trkpt>
      <trkpt lat="44.85985" lon="6.10722">
        <ele>1969</ele>
        <time>2024-08-13T14:40:45Z</time>
      </trkpt>
      <trkpt lat="44.85987" lon="6.10723">
        <ele>1968.6</ele>
        <time>2024-08-13T14:40:46Z</time>
      </trkpt>
      <trkpt lat="44.85987" lon="6.10723">
        <ele>1967.8</ele>
        <time>2024-08-13T14:40:47Z</time>
      </trkpt>
      <trkpt lat="44.85987" lon="6.10723">
        <ele>1967.6</ele>
        <time>2024-08-13T14:40:48Z</time>
      </trkpt>
      <trkpt lat="44.8599" lon="6.10724">
        <ele>1967.4</ele>
        <time>2024-08-13T14:40:49Z</time>
      </trkpt>
      <trkpt lat="44.8599" lon="6.10724">
        <ele>1967</ele>
        <time>2024-08-13T14:40:50Z</time>
      </trkpt>
      <trkpt lat="44.85992" lon="6.10725">
        <ele>1966.6</ele>
        <time>2024-08-13T14:40:51Z</time>
      </trkpt>
      <trkpt lat="44.85992" lon="6.10725">
        <ele>1966.4</ele>
        <time>2024-08-13T14:40:52Z</time>
      </trkpt>
      <trkpt lat="44.85994" lon="6.10726">
        <ele>1966.4</ele>
        <time>2024-08-13T14:40:53Z</time>
      </trkpt>
      <trkpt lat="44.85994" lon="6.10726">
        <ele>1966.2</ele>
        <time>2024-08-13T14:40:54Z</time>
      </trkpt>
      <trkpt lat="44.85997" lon="6.10727">
        <ele>1966</ele>
        <time>2024-08-13T14:40:55Z</time>
      </trkpt>
      <trkpt lat="44.85997" lon="6.10727">
        <ele>1966</ele>
        <time>2024-08-13T14:40:56Z</time>
      </trkpt>
      <trkpt lat="44.85997" lon="6.10727">
        <ele>1966</ele>
        <time>2024-08-13T14:40:57Z</time>
      </trkpt>
      <trkpt lat="44.85999" lon="6.10727">
        <ele>1966</ele>
        <time>2024-08-13T14:40:58Z</time>
      </trkpt>
      <trkpt lat="44.85999" lon="6.10727">
        <ele>1966</ele>
        <time>2024-08-13T14:40:59Z</time>
      </trkpt>
      <trkpt lat="44.85999" lon="6.10727">
        <ele>1966</ele>
        <time>2024-08-13T14:41:00Z</time>
      </trkpt>
      <trkpt lat="44.85999" lon="6.10727">
        <ele>1966</ele>
        <time>2024-08-13T14:41:01Z</time>
      </trkpt>
      <trkpt lat="44.85999" lon="6.10727">
        <ele>1966.6</ele>
        <time>2024-08-13T14:41:02Z</time>
      </trkpt>
      <trkpt lat="44.85999" lon="6.10727">
        <ele>1966.6</ele>
        <time>2024-08-13T14:41:03Z</time>
      </trkpt>
      <trkpt lat="44.85999" lon="6.10727">
        <ele>1966.6</ele>
        <time>2024-08-13T14:41:04Z</time>
      </trkpt>
      <trkpt lat="44.85999" lon="6.10727">
        <ele>1966</ele>
        <time>2024-08-13T14:41:05Z</time>
      </trkpt>
      <trkpt lat="44.86001" lon="6.10729">
        <ele>1965.4</ele>
        <time>2024-08-13T14:41:06Z</time>
      </trkpt>
      <trkpt lat="44.86001" lon="6.10729">
        <ele>1965.2</ele>
        <time>2024-08-13T14:41:07Z</time>
      </trkpt>
      <trkpt lat="44.86001" lon="6.10729">
        <ele>1965</ele>
        <time>2024-08-13T14:41:08Z</time>
      </trkpt>
      <trkpt lat="44.86001" lon="6.10729">
        <ele>1965</ele>
        <time>2024-08-13T14:41:09Z</time>
      </trkpt>
      <trkpt lat="44.86001" lon="6.10729">
        <ele>1965</ele>
        <time>2024-08-13T14:41:10Z</time>
      </trkpt>
      <trkpt lat="44.86001" lon="6.10729">
        <ele>1965</ele>
        <time>2024-08-13T14:41:11Z</time>
      </trkpt>
      <trkpt lat="44.86001" lon="6.10729">
        <ele>1965</ele>
        <time>2024-08-13T14:41:12Z</time>
      </trkpt>
      <trkpt lat="44.86001" lon="6.10729">
        <ele>1965</ele>
        <time>2024-08-13T14:41:13Z</time>
      </trkpt>
      <trkpt lat="44.86001" lon="6.10729">
        <ele>1965</ele>
        <time>2024-08-13T14:41:14Z</time>
      </trkpt>
      <trkpt lat="44.86001" lon="6.10729">
        <ele>1964.8</ele>
        <time>2024-08-13T14:41:15Z</time>
      </trkpt>
      <trkpt lat="44.86001" lon="6.10729">
        <ele>1964.4</ele>
        <time>2024-08-13T14:41:16Z</time>
      </trkpt>
      <trkpt lat="44.86001" lon="6.10729">
        <ele>1964.2</ele>
        <time>2024-08-13T14:41:17Z</time>
      </trkpt>
      <trkpt lat="44.86001" lon="6.10729">
        <ele>1964.2</ele>
        <time>2024-08-13T14:41:18Z</time>
      </trkpt>
      <trkpt lat="44.86001" lon="6.10729">
        <ele>1964.2</ele>
        <time>2024-08-13T14:41:19Z</time>
      </trkpt>
      <trkpt lat="44.86001" lon="6.10729">
        <ele>1964.2</ele>
        <time>2024-08-13T14:41:20Z</time>
      </trkpt>
      <trkpt lat="44.86001" lon="6.10729">
        <ele>1963.4</ele>
        <time>2024-08-13T14:41:21Z</time>
      </trkpt>
      <trkpt lat="44.86001" lon="6.10729">
        <ele>1963.2</ele>
        <time>2024-08-13T14:41:22Z</time>
      </trkpt>
      <trkpt lat="44.86001" lon="6.10729">
        <ele>1962.8</ele>
        <time>2024-08-13T14:41:23Z</time>
      </trkpt>
      <trkpt lat="44.86001" lon="6.10729">
        <ele>1962.8</ele>
        <time>2024-08-13T14:41:24Z</time>
      </trkpt>
      <trkpt lat="44.86001" lon="6.10729">
        <ele>1962.4</ele>
        <time>2024-08-13T14:41:25Z</time>
      </trkpt>
      <trkpt lat="44.86001" lon="6.10729">
        <ele>1962.2</ele>
        <time>2024-08-13T14:41:26Z</time>
      </trkpt>
      <trkpt lat="44.86001" lon="6.10729">
        <ele>1961.8</ele>
        <time>2024-08-13T14:41:27Z</time>
      </trkpt>
      <trkpt lat="44.86003" lon="6.10727">
        <ele>1961.4</ele>
        <time>2024-08-13T14:41:28Z</time>
      </trkpt>
      <trkpt lat="44.86003" lon="6.10727">
        <ele>1961</ele>
        <time>2024-08-13T14:41:29Z</time>
      </trkpt>
      <trkpt lat="44.86006" lon="6.10728">
        <ele>1960.8</ele>
        <time>2024-08-13T14:41:30Z</time>
      </trkpt>
      <trkpt lat="44.86006" lon="6.10728">
        <ele>1960.6</ele>
        <time>2024-08-13T14:41:31Z</time>
      </trkpt>
      <trkpt lat="44.86009" lon="6.10729">
        <ele>1960.2</ele>
        <time>2024-08-13T14:41:32Z</time>
      </trkpt>
      <trkpt lat="44.86009" lon="6.10729">
        <ele>1960</ele>
        <time>2024-08-13T14:41:33Z</time>
      </trkpt>
      <trkpt lat="44.86012" lon="6.1073">
        <ele>1959.6</ele>
        <time>2024-08-13T14:41:34Z</time>
      </trkpt>
      <trkpt lat="44.86012" lon="6.1073">
        <ele>1959.2</ele>
        <time>2024-08-13T14:41:35Z</time>
      </trkpt>
      <trkpt lat="44.86013" lon="6.10733">
        <ele>1959</ele>
        <time>2024-08-13T14:41:36Z</time>
      </trkpt>
      <trkpt lat="44.86013" lon="6.10733">
        <ele>1958.6</ele>
        <time>2024-08-13T14:41:37Z</time>
      </trkpt>
      <trkpt lat="44.86014" lon="6.10735">
        <ele>1958.4</ele>
        <time>2024-08-13T14:41:38Z</time>
      </trkpt>
      <trkpt lat="44.86014" lon="6.10735">
        <ele>1958</ele>
        <time>2024-08-13T14:41:39Z</time>
      </trkpt>
      <trkpt lat="44.86014" lon="6.10735">
        <ele>1958</ele>
        <time>2024-08-13T14:41:40Z</time>
      </trkpt>
      <trkpt lat="44.86016" lon="6.10737">
        <ele>1958</ele>
        <time>2024-08-13T14:41:41Z</time>
      </trkpt>
      <trkpt lat="44.86016" lon="6.10737">
        <ele>1957.8</ele>
        <time>2024-08-13T14:41:42Z</time>
      </trkpt>
      <trkpt lat="44.86016" lon="6.10737">
        <ele>1957.2</ele>
        <time>2024-08-13T14:41:43Z</time>
      </trkpt>
      <trkpt lat="44.86016" lon="6.10737">
        <ele>1957</ele>
        <time>2024-08-13T14:41:44Z</time>
      </trkpt>
      <trkpt lat="44.86018" lon="6.10737">
        <ele>1956.4</ele>
        <time>2024-08-13T14:41:45Z</time>
      </trkpt>
      <trkpt lat="44.86018" lon="6.10737">
        <ele>1956.2</ele>
        <time>2024-08-13T14:41:46Z</time>
      </trkpt>
      <trkpt lat="44.8602" lon="6.10739">
        <ele>1956</ele>
        <time>2024-08-13T14:41:47Z</time>
      </trkpt>
      <trkpt lat="44.8602" lon="6.10739">
        <ele>1954.6</ele>
        <time>2024-08-13T14:41:48Z</time>
      </trkpt>
      <trkpt lat="44.86021" lon="6.10742">
        <ele>1954.6</ele>
        <time>2024-08-13T14:41:49Z</time>
      </trkpt>
      <trkpt lat="44.86021" lon="6.10742">
        <ele>1955</ele>
        <time>2024-08-13T14:41:50Z</time>
      </trkpt>
      <trkpt lat="44.86021" lon="6.10742">
        <ele>1955</ele>
        <time>2024-08-13T14:41:51Z</time>
      </trkpt>
      <trkpt lat="44.86021" lon="6.10742">
        <ele>1955</ele>
        <time>2024-08-13T14:41:52Z</time>
      </trkpt>
      <trkpt lat="44.86021" lon="6.10742">
        <ele>1954.6</ele>
        <time>2024-08-13T14:41:53Z</time>
      </trkpt>
      <trkpt lat="44.86022" lon="6.1074">
        <ele>1954</ele>
        <time>2024-08-13T14:41:54Z</time>
      </trkpt>
      <trkpt lat="44.86022" lon="6.1074">
        <ele>1953.8</ele>
        <time>2024-08-13T14:41:55Z</time>
      </trkpt>
      <trkpt lat="44.86023" lon="6.10737">
        <ele>1953.8</ele>
        <time>2024-08-13T14:41:56Z</time>
      </trkpt>
      <trkpt lat="44.86023" lon="6.10737">
        <ele>1953.6</ele>
        <time>2024-08-13T14:41:57Z</time>
      </trkpt>
      <trkpt lat="44.86022" lon="6.10734">
        <ele>1953.4</ele>
        <time>2024-08-13T14:41:58Z</time>
      </trkpt>
      <trkpt lat="44.86022" lon="6.10734">
        <ele>1952.8</ele>
        <time>2024-08-13T14:41:59Z</time>
      </trkpt>
      <trkpt lat="44.86021" lon="6.10731">
        <ele>1952.8</ele>
        <time>2024-08-13T14:42:00Z</time>
      </trkpt>
      <trkpt lat="44.86021" lon="6.10731">
        <ele>1952.6</ele>
        <time>2024-08-13T14:42:01Z</time>
      </trkpt>
      <trkpt lat="44.86021" lon="6.10731">
        <ele>1952.2</ele>
        <time>2024-08-13T14:42:02Z</time>
      </trkpt>
      <trkpt lat="44.86021" lon="6.10731">
        <ele>1952.2</ele>
        <time>2024-08-13T14:42:03Z</time>
      </trkpt>
      <trkpt lat="44.86021" lon="6.10731">
        <ele>1952.2</ele>
        <time>2024-08-13T14:42:04Z</time>
      </trkpt>
      <trkpt lat="44.86021" lon="6.10731">
        <ele>1951.8</ele>
        <time>2024-08-13T14:42:05Z</time>
      </trkpt>
      <trkpt lat="44.86021" lon="6.10731">
        <ele>1951.4</ele>
        <time>2024-08-13T14:42:06Z</time>
      </trkpt>
      <trkpt lat="44.86021" lon="6.10731">
        <ele>1951.4</ele>
        <time>2024-08-13T14:42:07Z</time>
      </trkpt>
      <trkpt lat="44.86021" lon="6.10731">
        <ele>1951.2</ele>
        <time>2024-08-13T14:42:08Z</time>
      </trkpt>
      <trkpt lat="44.86021" lon="6.10731">
        <ele>1950.8</ele>
        <time>2024-08-13T14:42:09Z</time>
      </trkpt>
      <trkpt lat="44.86023" lon="6.10728">
        <ele>1950.6</ele>
        <time>2024-08-13T14:42:10Z</time>
      </trkpt>
      <trkpt lat="44.86023" lon="6.10728">
        <ele>1950.4</ele>
        <time>2024-08-13T14:42:11Z</time>
      </trkpt>
      <trkpt lat="44.86023" lon="6.10728">
        <ele>1949.8</ele>
        <time>2024-08-13T14:42:12Z</time>
      </trkpt>
      <trkpt lat="44.86025" lon="6.10728">
        <ele>1949.2</ele>
        <time>2024-08-13T14:42:13Z</time>
      </trkpt>
      <trkpt lat="44.86025" lon="6.10728">
        <ele>1949</ele>
        <time>2024-08-13T14:42:14Z</time>
      </trkpt>
      <trkpt lat="44.86025" lon="6.10728">
        <ele>1949</ele>
        <time>2024-08-13T14:42:15Z</time>
      </trkpt>
      <trkpt lat="44.86027" lon="6.1073">
        <ele>1948.6</ele>
        <time>2024-08-13T14:42:16Z</time>
      </trkpt>
      <trkpt lat="44.86027" lon="6.1073">
        <ele>1948.6</ele>
        <time>2024-08-13T14:42:17Z</time>
      </trkpt>
      <trkpt lat="44.86027" lon="6.1073">
        <ele>1948.4</ele>
        <time>2024-08-13T14:42:18Z</time>
      </trkpt>
      <trkpt lat="44.86027" lon="6.1073">
        <ele>1948</ele>
        <time>2024-08-13T14:42:19Z</time>
      </trkpt>
      <trkpt lat="44.86029" lon="6.10731">
        <ele>1947.8</ele>
        <time>2024-08-13T14:42:20Z</time>
      </trkpt>
      <trkpt lat="44.86029" lon="6.10731">
        <ele>1947.4</ele>
        <time>2024-08-13T14:42:21Z</time>
      </trkpt>
      <trkpt lat="44.86029" lon="6.10731">
        <ele>1947</ele>
        <time>2024-08-13T14:42:22Z</time>
      </trkpt>
      <trkpt lat="44.86029" lon="6.10731">
        <ele>1946</ele>
        <time>2024-08-13T14:42:23Z</time>
      </trkpt>
      <trkpt lat="44.86029" lon="6.10731">
        <ele>1945.6</ele>
        <time>2024-08-13T14:42:24Z</time>
      </trkpt>
      <trkpt lat="44.86029" lon="6.10731">
        <ele>1945.4</ele>
        <time>2024-08-13T14:42:25Z</time>
      </trkpt>
      <trkpt lat="44.86029" lon="6.10731">
        <ele>1945</ele>
        <time>2024-08-13T14:42:26Z</time>
      </trkpt>
      <trkpt lat="44.86029" lon="6.10731">
        <ele>1944.6</ele>
        <time>2024-08-13T14:42:27Z</time>
      </trkpt>
      <trkpt lat="44.86029" lon="6.10731">
        <ele>1944.6</ele>
        <time>2024-08-13T14:42:28Z</time>
      </trkpt>
      <trkpt lat="44.86029" lon="6.10731">
        <ele>1944.6</ele>
        <time>2024-08-13T14:42:29Z</time>
      </trkpt>
      <trkpt lat="44.86029" lon="6.10731">
        <ele>1944</ele>
        <time>2024-08-13T14:42:30Z</time>
      </trkpt>
      <trkpt lat="44.86029" lon="6.10731">
        <ele>1943.8</ele>
        <time>2024-08-13T14:42:31Z</time>
      </trkpt>
      <trkpt lat="44.86029" lon="6.10728">
        <ele>1943.8</ele>
        <time>2024-08-13T14:42:32Z</time>
      </trkpt>
      <trkpt lat="44.86029" lon="6.10728">
        <ele>1943.6</ele>
        <time>2024-08-13T14:42:33Z</time>
      </trkpt>
      <trkpt lat="44.86029" lon="6.10728">
        <ele>1943.4</ele>
        <time>2024-08-13T14:42:34Z</time>
      </trkpt>
      <trkpt lat="44.86029" lon="6.10728">
        <ele>1942.8</ele>
        <time>2024-08-13T14:42:35Z</time>
      </trkpt>
      <trkpt lat="44.86029" lon="6.10728">
        <ele>1942.4</ele>
        <time>2024-08-13T14:42:36Z</time>
      </trkpt>
      <trkpt lat="44.86029" lon="6.10728">
        <ele>1942.2</ele>
        <time>2024-08-13T14:42:37Z</time>
      </trkpt>
      <trkpt lat="44.86031" lon="6.10729">
        <ele>1942.2</ele>
        <time>2024-08-13T14:42:38Z</time>
      </trkpt>
      <trkpt lat="44.86031" lon="6.10729">
        <ele>1941.8</ele>
        <time>2024-08-13T14:42:39Z</time>
      </trkpt>
      <trkpt lat="44.86031" lon="6.10729">
        <ele>1941.2</ele>
        <time>2024-08-13T14:42:40Z</time>
      </trkpt>
      <trkpt lat="44.86031" lon="6.10729">
        <ele>1941</ele>
        <time>2024-08-13T14:42:41Z</time>
      </trkpt>
      <trkpt lat="44.86031" lon="6.10729">
        <ele>1940.8</ele>
        <time>2024-08-13T14:42:42Z</time>
      </trkpt>
      <trkpt lat="44.86031" lon="6.10729">
        <ele>1940.6</ele>
        <time>2024-08-13T14:42:43Z</time>
      </trkpt>
      <trkpt lat="44.86031" lon="6.10729">
        <ele>1940.6</ele>
        <time>2024-08-13T14:42:44Z</time>
      </trkpt>
      <trkpt lat="44.86031" lon="6.10729">
        <ele>1940.6</ele>
        <time>2024-08-13T14:42:45Z</time>
      </trkpt>
      <trkpt lat="44.86031" lon="6.10729">
        <ele>1940.6</ele>
        <time>2024-08-13T14:42:46Z</time>
      </trkpt>
      <trkpt lat="44.86031" lon="6.10729">
        <ele>1940.2</ele>
        <time>2024-08-13T14:42:47Z</time>
      </trkpt>
      <trkpt lat="44.86031" lon="6.10729">
        <ele>1939.8</ele>
        <time>2024-08-13T14:42:48Z</time>
      </trkpt>
      <trkpt lat="44.86031" lon="6.10729">
        <ele>1939.6</ele>
        <time>2024-08-13T14:42:49Z</time>
      </trkpt>
      <trkpt lat="44.86031" lon="6.10729">
        <ele>1939.2</ele>
        <time>2024-08-13T14:42:50Z</time>
      </trkpt>
      <trkpt lat="44.86033" lon="6.1073">
        <ele>1939.2</ele>
        <time>2024-08-13T14:42:51Z</time>
      </trkpt>
      <trkpt lat="44.86033" lon="6.1073">
        <ele>1938.8</ele>
        <time>2024-08-13T14:42:52Z</time>
      </trkpt>
      <trkpt lat="44.86036" lon="6.10732">
        <ele>1938.8</ele>
        <time>2024-08-13T14:42:53Z</time>
      </trkpt>
      <trkpt lat="44.86037" lon="6.10733">
        <ele>1938.2</ele>
        <time>2024-08-13T14:42:54Z</time>
      </trkpt>
      <trkpt lat="44.86039" lon="6.10735">
        <ele>1938.2</ele>
        <time>2024-08-13T14:42:55Z</time>
      </trkpt>
      <trkpt lat="44.86039" lon="6.10735">
        <ele>1938</ele>
        <time>2024-08-13T14:42:56Z</time>
      </trkpt>
      <trkpt lat="44.86042" lon="6.10738">
        <ele>1937.6</ele>
        <time>2024-08-13T14:42:57Z</time>
      </trkpt>
      <trkpt lat="44.86042" lon="6.10738">
        <ele>1937.4</ele>
        <time>2024-08-13T14:42:58Z</time>
      </trkpt>
      <trkpt lat="44.86044" lon="6.10739">
        <ele>1937.2</ele>
        <time>2024-08-13T14:42:59Z</time>
      </trkpt>
      <trkpt lat="44.86044" lon="6.10739">
        <ele>1937</ele>
        <time>2024-08-13T14:43:00Z</time>
      </trkpt>
      <trkpt lat="44.86044" lon="6.10739">
        <ele>1937</ele>
        <time>2024-08-13T14:43:01Z</time>
      </trkpt>
      <trkpt lat="44.86044" lon="6.10739">
        <ele>1937.2</ele>
        <time>2024-08-13T14:43:02Z</time>
      </trkpt>
      <trkpt lat="44.86044" lon="6.10739">
        <ele>1937.2</ele>
        <time>2024-08-13T14:43:03Z</time>
      </trkpt>
      <trkpt lat="44.86046" lon="6.10738">
        <ele>1936.6</ele>
        <time>2024-08-13T14:43:04Z</time>
      </trkpt>
      <trkpt lat="44.86046" lon="6.10738">
        <ele>1936.2</ele>
        <time>2024-08-13T14:43:05Z</time>
      </trkpt>
      <trkpt lat="44.86046" lon="6.10738">
        <ele>1936</ele>
        <time>2024-08-13T14:43:06Z</time>
      </trkpt>
      <trkpt lat="44.86046" lon="6.10735">
        <ele>1935.8</ele>
        <time>2024-08-13T14:43:07Z</time>
      </trkpt>
      <trkpt lat="44.86046" lon="6.10735">
        <ele>1935.8</ele>
        <time>2024-08-13T14:43:08Z</time>
      </trkpt>
      <trkpt lat="44.86046" lon="6.10735">
        <ele>1935.4</ele>
        <time>2024-08-13T14:43:09Z</time>
      </trkpt>
      <trkpt lat="44.86048" lon="6.10733">
        <ele>1935.2</ele>
        <time>2024-08-13T14:43:10Z</time>
      </trkpt>
      <trkpt lat="44.86048" lon="6.10733">
        <ele>1934.8</ele>
        <time>2024-08-13T14:43:11Z</time>
      </trkpt>
      <trkpt lat="44.8605" lon="6.10735">
        <ele>1934.4</ele>
        <time>2024-08-13T14:43:12Z</time>
      </trkpt>
      <trkpt lat="44.8605" lon="6.10735">
        <ele>1933.8</ele>
        <time>2024-08-13T14:43:13Z</time>
      </trkpt>
      <trkpt lat="44.8605" lon="6.10735">
        <ele>1933.8</ele>
        <time>2024-08-13T14:43:14Z</time>
      </trkpt>
      <trkpt lat="44.86051" lon="6.10737">
        <ele>1933.8</ele>
        <time>2024-08-13T14:43:15Z</time>
      </trkpt>
      <trkpt lat="44.86051" lon="6.10737">
        <ele>1933.6</ele>
        <time>2024-08-13T14:43:16Z</time>
      </trkpt>
      <trkpt lat="44.86053" lon="6.10739">
        <ele>1933.6</ele>
        <time>2024-08-13T14:43:17Z</time>
      </trkpt>
      <trkpt lat="44.86053" lon="6.10739">
        <ele>1933.2</ele>
        <time>2024-08-13T14:43:18Z</time>
      </trkpt>
      <trkpt lat="44.86053" lon="6.10739">
        <ele>1932.8</ele>
        <time>2024-08-13T14:43:19Z</time>
      </trkpt>
      <trkpt lat="44.86055" lon="6.10741">
        <ele>1932.8</ele>
        <time>2024-08-13T14:43:20Z</time>
      </trkpt>
      <trkpt lat="44.86055" lon="6.10741">
        <ele>1932.8</ele>
        <time>2024-08-13T14:43:21Z</time>
      </trkpt>
      <trkpt lat="44.86055" lon="6.10741">
        <ele>1932.8</ele>
        <time>2024-08-13T14:43:22Z</time>
      </trkpt>
      <trkpt lat="44.86055" lon="6.10741">
        <ele>1933</ele>
        <time>2024-08-13T14:43:23Z</time>
      </trkpt>
      <trkpt lat="44.86055" lon="6.10741">
        <ele>1933</ele>
        <time>2024-08-13T14:43:24Z</time>
      </trkpt>
      <trkpt lat="44.86055" lon="6.10741">
        <ele>1933</ele>
        <time>2024-08-13T14:43:25Z</time>
      </trkpt>
      <trkpt lat="44.86055" lon="6.10741">
        <ele>1933</ele>
        <time>2024-08-13T14:43:26Z</time>
      </trkpt>
      <trkpt lat="44.86055" lon="6.10741">
        <ele>1933</ele>
        <time>2024-08-13T14:43:27Z</time>
      </trkpt>
      <trkpt lat="44.86055" lon="6.10741">
        <ele>1933</ele>
        <time>2024-08-13T14:43:28Z</time>
      </trkpt>
      <trkpt lat="44.86055" lon="6.10741">
        <ele>1933</ele>
        <time>2024-08-13T14:43:29Z</time>
      </trkpt>
      <trkpt lat="44.86055" lon="6.10741">
        <ele>1932.8</ele>
        <time>2024-08-13T14:43:30Z</time>
      </trkpt>
      <trkpt lat="44.86055" lon="6.10741">
        <ele>1932.6</ele>
        <time>2024-08-13T14:43:31Z</time>
      </trkpt>
      <trkpt lat="44.86055" lon="6.10741">
        <ele>1932.4</ele>
        <time>2024-08-13T14:43:32Z</time>
      </trkpt>
      <trkpt lat="44.86055" lon="6.10741">
        <ele>1932.4</ele>
        <time>2024-08-13T14:43:33Z</time>
      </trkpt>
      <trkpt lat="44.86055" lon="6.10741">
        <ele>1932.6</ele>
        <time>2024-08-13T14:43:34Z</time>
      </trkpt>
      <trkpt lat="44.86055" lon="6.10741">
        <ele>1932.8</ele>
        <time>2024-08-13T14:43:35Z</time>
      </trkpt>
      <trkpt lat="44.86055" lon="6.10741">
        <ele>1932.8</ele>
        <time>2024-08-13T14:43:36Z</time>
      </trkpt>
      <trkpt lat="44.86057" lon="6.10742">
        <ele>1932.6</ele>
        <time>2024-08-13T14:43:37Z</time>
      </trkpt>
      <trkpt lat="44.86057" lon="6.10742">
        <ele>1932.6</ele>
        <time>2024-08-13T14:43:38Z</time>
      </trkpt>
      <trkpt lat="44.86057" lon="6.10742">
        <ele>1933</ele>
        <time>2024-08-13T14:43:39Z</time>
      </trkpt>
      <trkpt lat="44.86057" lon="6.10742">
        <ele>1933.6</ele>
        <time>2024-08-13T14:43:40Z</time>
      </trkpt>
      <trkpt lat="44.86057" lon="6.10742">
        <ele>1933.6</ele>
        <time>2024-08-13T14:43:41Z</time>
      </trkpt>
      <trkpt lat="44.86057" lon="6.10742">
        <ele>1933.4</ele>
        <time>2024-08-13T14:43:42Z</time>
      </trkpt>
      <trkpt lat="44.86057" lon="6.10742">
        <ele>1933.2</ele>
        <time>2024-08-13T14:43:43Z</time>
      </trkpt>
      <trkpt lat="44.86057" lon="6.10742">
        <ele>1933</ele>
        <time>2024-08-13T14:43:44Z</time>
      </trkpt>
      <trkpt lat="44.86057" lon="6.10742">
        <ele>1933</ele>
        <time>2024-08-13T14:43:45Z</time>
      </trkpt>
      <trkpt lat="44.86057" lon="6.10742">
        <ele>1933.2</ele>
        <time>2024-08-13T14:43:46Z</time>
      </trkpt>
      <trkpt lat="44.86057" lon="6.10742">
        <ele>1933.6</ele>
        <time>2024-08-13T14:43:47Z</time>
      </trkpt>
      <trkpt lat="44.86057" lon="6.10742">
        <ele>1933.6</ele>
        <time>2024-08-13T14:43:48Z</time>
      </trkpt>
      <trkpt lat="44.86057" lon="6.10742">
        <ele>1933.4</ele>
        <time>2024-08-13T14:43:49Z</time>
      </trkpt>
      <trkpt lat="44.86057" lon="6.10742">
        <ele>1933.2</ele>
        <time>2024-08-13T14:43:50Z</time>
      </trkpt>
      <trkpt lat="44.86057" lon="6.10742">
        <ele>1933</ele>
        <time>2024-08-13T14:43:51Z</time>
      </trkpt>
      <trkpt lat="44.86057" lon="6.10742">
        <ele>1932.8</ele>
        <time>2024-08-13T14:43:52Z</time>
      </trkpt>
      <trkpt lat="44.86057" lon="6.10742">
        <ele>1932.8</ele>
        <time>2024-08-13T14:43:53Z</time>
      </trkpt>
      <trkpt lat="44.86057" lon="6.10742">
        <ele>1932.6</ele>
        <time>2024-08-13T14:43:54Z</time>
      </trkpt>
      <trkpt lat="44.86057" lon="6.10742">
        <ele>1932.6</ele>
        <time>2024-08-13T14:43:55Z</time>
      </trkpt>
      <trkpt lat="44.86057" lon="6.10742">
        <ele>1932.6</ele>
        <time>2024-08-13T14:43:56Z</time>
      </trkpt>
      <trkpt lat="44.86057" lon="6.10742">
        <ele>1932.6</ele>
        <time>2024-08-13T14:43:57Z</time>
      </trkpt>
      <trkpt lat="44.86057" lon="6.10742">
        <ele>1932.6</ele>
        <time>2024-08-13T14:43:58Z</time>
      </trkpt>
      <trkpt lat="44.86057" lon="6.10742">
        <ele>1933.8</ele>
        <time>2024-08-13T14:43:59Z</time>
      </trkpt>
      <trkpt lat="44.86055" lon="6.1074">
        <ele>1935.2</ele>
        <time>2024-08-13T14:44:00Z</time>
      </trkpt>
      <trkpt lat="44.86055" lon="6.1074">
        <ele>1936</ele>
        <time>2024-08-13T14:44:01Z</time>
      </trkpt>
      <trkpt lat="44.86055" lon="6.1074">
        <ele>1936.4</ele>
        <time>2024-08-13T14:44:02Z</time>
      </trkpt>
      <trkpt lat="44.86055" lon="6.1074">
        <ele>1936.4</ele>
        <time>2024-08-13T14:44:03Z</time>
      </trkpt>
      <trkpt lat="44.86055" lon="6.1074">
        <ele>1937</ele>
        <time>2024-08-13T14:44:04Z</time>
      </trkpt>
      <trkpt lat="44.86055" lon="6.1074">
        <ele>1937</ele>
        <time>2024-08-13T14:44:05Z</time>
      </trkpt>
      <trkpt lat="44.86055" lon="6.1074">
        <ele>1936.6</ele>
        <time>2024-08-13T14:44:06Z</time>
      </trkpt>
      <trkpt lat="44.86055" lon="6.1074">
        <ele>1936.6</ele>
        <time>2024-08-13T14:44:07Z</time>
      </trkpt>
      <trkpt lat="44.86055" lon="6.1074">
        <ele>1936.8</ele>
        <time>2024-08-13T14:44:08Z</time>
      </trkpt>
      <trkpt lat="44.86055" lon="6.1074">
        <ele>1936.8</ele>
        <time>2024-08-13T14:44:09Z</time>
      </trkpt>
      <trkpt lat="44.86055" lon="6.1074">
        <ele>1936.6</ele>
        <time>2024-08-13T14:44:10Z</time>
      </trkpt>
      <trkpt lat="44.86055" lon="6.1074">
        <ele>1936.2</ele>
        <time>2024-08-13T14:44:11Z</time>
      </trkpt>
      <trkpt lat="44.86055" lon="6.1074">
        <ele>1936</ele>
        <time>2024-08-13T14:44:12Z</time>
      </trkpt>
      <trkpt lat="44.86055" lon="6.1074">
        <ele>1936</ele>
        <time>2024-08-13T14:44:13Z</time>
      </trkpt>
      <trkpt lat="44.86055" lon="6.1074">
        <ele>1936</ele>
        <time>2024-08-13T14:44:14Z</time>
      </trkpt>
      <trkpt lat="44.86055" lon="6.1074">
        <ele>1936.4</ele>
        <time>2024-08-13T14:44:15Z</time>
      </trkpt>
      <trkpt lat="44.86055" lon="6.1074">
        <ele>1936.4</ele>
        <time>2024-08-13T14:44:16Z</time>
      </trkpt>
      <trkpt lat="44.86055" lon="6.1074">
        <ele>1936.4</ele>
        <time>2024-08-13T14:44:17Z</time>
      </trkpt>
      <trkpt lat="44.86055" lon="6.1074">
        <ele>1936.4</ele>
        <time>2024-08-13T14:44:18Z</time>
      </trkpt>
      <trkpt lat="44.86055" lon="6.1074">
        <ele>1936.4</ele>
        <time>2024-08-13T14:44:19Z</time>
      </trkpt>
      <trkpt lat="44.86055" lon="6.1074">
        <ele>1936.6</ele>
        <time>2024-08-13T14:44:20Z</time>
      </trkpt>
      <trkpt lat="44.86055" lon="6.1074">
        <ele>1936.6</ele>
        <time>2024-08-13T14:44:21Z</time>
      </trkpt>
      <trkpt lat="44.86055" lon="6.1074">
        <ele>1936.6</ele>
        <time>2024-08-13T14:44:22Z</time>
      </trkpt>
      <trkpt lat="44.86055" lon="6.1074">
        <ele>1936.6</ele>
        <time>2024-08-13T14:44:23Z</time>
      </trkpt>
      <trkpt lat="44.86055" lon="6.1074">
        <ele>1936.6</ele>
        <time>2024-08-13T14:44:24Z</time>
      </trkpt>
      <trkpt lat="44.86055" lon="6.1074">
        <ele>1936.6</ele>
        <time>2024-08-13T14:44:25Z</time>
      </trkpt>
      <trkpt lat="44.86055" lon="6.1074">
        <ele>1936.8</ele>
        <time>2024-08-13T14:44:26Z</time>
      </trkpt>
      <trkpt lat="44.86055" lon="6.1074">
        <ele>1936.8</ele>
        <time>2024-08-13T14:44:27Z</time>
      </trkpt>
      <trkpt lat="44.86055" lon="6.1074">
        <ele>1936.6</ele>
        <time>2024-08-13T14:44:28Z</time>
      </trkpt>
      <trkpt lat="44.86055" lon="6.1074">
        <ele>1936.6</ele>
        <time>2024-08-13T14:44:29Z</time>
      </trkpt>
      <trkpt lat="44.86055" lon="6.1074">
        <ele>1936.6</ele>
        <time>2024-08-13T14:44:30Z</time>
      </trkpt>
      <trkpt lat="44.86055" lon="6.1074">
        <ele>1936.6</ele>
        <time>2024-08-13T14:44:31Z</time>
      </trkpt>
      <trkpt lat="44.86055" lon="6.1074">
        <ele>1936.6</ele>
        <time>2024-08-13T14:44:32Z</time>
      </trkpt>
      <trkpt lat="44.86055" lon="6.1074">
        <ele>1936.2</ele>
        <time>2024-08-13T14:44:33Z</time>
      </trkpt>
      <trkpt lat="44.86055" lon="6.1074">
        <ele>1936.2</ele>
        <time>2024-08-13T14:44:34Z</time>
      </trkpt>
      <trkpt lat="44.86055" lon="6.1074">
        <ele>1936.2</ele>
        <time>2024-08-13T14:44:35Z</time>
      </trkpt>
      <trkpt lat="44.86055" lon="6.1074">
        <ele>1936.2</ele>
        <time>2024-08-13T14:44:36Z</time>
      </trkpt>
      <trkpt lat="44.86055" lon="6.1074">
        <ele>1936</ele>
        <time>2024-08-13T14:44:37Z</time>
      </trkpt>
      <trkpt lat="44.86055" lon="6.1074">
        <ele>1936.2</ele>
        <time>2024-08-13T14:44:38Z</time>
      </trkpt>
      <trkpt lat="44.86055" lon="6.1074">
        <ele>1936.2</ele>
        <time>2024-08-13T14:44:39Z</time>
      </trkpt>
      <trkpt lat="44.86055" lon="6.1074">
        <ele>1936.2</ele>
        <time>2024-08-13T14:44:40Z</time>
      </trkpt>
      <trkpt lat="44.86055" lon="6.1074">
        <ele>1936.4</ele>
        <time>2024-08-13T14:44:41Z</time>
      </trkpt>
      <trkpt lat="44.86055" lon="6.1074">
        <ele>1936.2</ele>
        <time>2024-08-13T14:44:42Z</time>
      </trkpt>
      <trkpt lat="44.86055" lon="6.1074">
        <ele>1936</ele>
        <time>2024-08-13T14:44:43Z</time>
      </trkpt>
      <trkpt lat="44.86055" lon="6.1074">
        <ele>1936</ele>
        <time>2024-08-13T14:44:44Z</time>
      </trkpt>
      <trkpt lat="44.86055" lon="6.1074">
        <ele>1935.8</ele>
        <time>2024-08-13T14:44:45Z</time>
      </trkpt>
      <trkpt lat="44.86055" lon="6.1074">
        <ele>1935.8</ele>
        <time>2024-08-13T14:44:46Z</time>
      </trkpt>
      <trkpt lat="44.86055" lon="6.1074">
        <ele>1935.8</ele>
        <time>2024-08-13T14:44:47Z</time>
      </trkpt>
      <trkpt lat="44.86055" lon="6.1074">
        <ele>1935.8</ele>
        <time>2024-08-13T14:44:48Z</time>
      </trkpt>
      <trkpt lat="44.86055" lon="6.1074">
        <ele>1935.8</ele>
        <time>2024-08-13T14:44:49Z</time>
      </trkpt>
      <trkpt lat="44.86055" lon="6.1074">
        <ele>1935.8</ele>
        <time>2024-08-13T14:44:50Z</time>
      </trkpt>
      <trkpt lat="44.86055" lon="6.1074">
        <ele>1935.6</ele>
        <time>2024-08-13T14:44:51Z</time>
      </trkpt>
      <trkpt lat="44.86055" lon="6.1074">
        <ele>1935.4</ele>
        <time>2024-08-13T14:44:52Z</time>
      </trkpt>
      <trkpt lat="44.86055" lon="6.1074">
        <ele>1935</ele>
        <time>2024-08-13T14:44:53Z</time>
      </trkpt>
      <trkpt lat="44.86055" lon="6.1074">
        <ele>1934.8</ele>
        <time>2024-08-13T14:44:54Z</time>
      </trkpt>
      <trkpt lat="44.86055" lon="6.1074">
        <ele>1934.6</ele>
        <time>2024-08-13T14:44:55Z</time>
      </trkpt>
      <trkpt lat="44.86055" lon="6.1074">
        <ele>1934.6</ele>
        <time>2024-08-13T14:44:56Z</time>
      </trkpt>
      <trkpt lat="44.86055" lon="6.1074">
        <ele>1934.2</ele>
        <time>2024-08-13T14:44:57Z</time>
      </trkpt>
      <trkpt lat="44.86055" lon="6.1074">
        <ele>1934.2</ele>
        <time>2024-08-13T14:44:58Z</time>
      </trkpt>
      <trkpt lat="44.86055" lon="6.1074">
        <ele>1934.4</ele>
        <time>2024-08-13T14:44:59Z</time>
      </trkpt>
      <trkpt lat="44.86055" lon="6.1074">
        <ele>1934.6</ele>
        <time>2024-08-13T14:45:00Z</time>
      </trkpt>
      <trkpt lat="44.86055" lon="6.1074">
        <ele>1934.6</ele>
        <time>2024-08-13T14:45:01Z</time>
      </trkpt>
      <trkpt lat="44.86055" lon="6.1074">
        <ele>1935</ele>
        <time>2024-08-13T14:45:02Z</time>
      </trkpt>
      <trkpt lat="44.86055" lon="6.1074">
        <ele>1935</ele>
        <time>2024-08-13T14:45:03Z</time>
      </trkpt>
      <trkpt lat="44.86055" lon="6.1074">
        <ele>1934.6</ele>
        <time>2024-08-13T14:45:04Z</time>
      </trkpt>
      <trkpt lat="44.86055" lon="6.1074">
        <ele>1934.4</ele>
        <time>2024-08-13T14:45:05Z</time>
      </trkpt>
      <trkpt lat="44.86055" lon="6.1074">
        <ele>1934.2</ele>
        <time>2024-08-13T14:45:06Z</time>
      </trkpt>
      <trkpt lat="44.86055" lon="6.1074">
        <ele>1934.2</ele>
        <time>2024-08-13T14:45:07Z</time>
      </trkpt>
      <trkpt lat="44.86055" lon="6.1074">
        <ele>1933.8</ele>
        <time>2024-08-13T14:45:08Z</time>
      </trkpt>
      <trkpt lat="44.86055" lon="6.1074">
        <ele>1933.6</ele>
        <time>2024-08-13T14:45:09Z</time>
      </trkpt>
      <trkpt lat="44.86054" lon="6.10738">
        <ele>1933.6</ele>
        <time>2024-08-13T14:45:10Z</time>
      </trkpt>
      <trkpt lat="44.86054" lon="6.10738">
        <ele>1933.6</ele>
        <time>2024-08-13T14:45:11Z</time>
      </trkpt>
      <trkpt lat="44.86054" lon="6.10738">
        <ele>1933.6</ele>
        <time>2024-08-13T14:45:12Z</time>
      </trkpt>
      <trkpt lat="44.86055" lon="6.10737">
        <ele>1933.8</ele>
        <time>2024-08-13T14:45:13Z</time>
      </trkpt>
      <trkpt lat="44.86055" lon="6.10737">
        <ele>1933.8</ele>
        <time>2024-08-13T14:45:14Z</time>
      </trkpt>
      <trkpt lat="44.86057" lon="6.10735">
        <ele>1933.4</ele>
        <time>2024-08-13T14:45:15Z</time>
      </trkpt>
      <trkpt lat="44.86057" lon="6.10735">
        <ele>1933.2</ele>
        <time>2024-08-13T14:45:16Z</time>
      </trkpt>
      <trkpt lat="44.86059" lon="6.10733">
        <ele>1933.2</ele>
        <time>2024-08-13T14:45:17Z</time>
      </trkpt>
      <trkpt lat="44.86059" lon="6.10733">
        <ele>1932.6</ele>
        <time>2024-08-13T14:45:18Z</time>
      </trkpt>
      <trkpt lat="44.86059" lon="6.10733">
        <ele>1932.2</ele>
        <time>2024-08-13T14:45:19Z</time>
      </trkpt>
      <trkpt lat="44.86061" lon="6.10731">
        <ele>1932</ele>
        <time>2024-08-13T14:45:20Z</time>
      </trkpt>
      <trkpt lat="44.86061" lon="6.10731">
        <ele>1932</ele>
        <time>2024-08-13T14:45:21Z</time>
      </trkpt>
      <trkpt lat="44.86061" lon="6.10731">
        <ele>1932</ele>
        <time>2024-08-13T14:45:22Z</time>
      </trkpt>
      <trkpt lat="44.86062" lon="6.10729">
        <ele>1932</ele>
        <time>2024-08-13T14:45:23Z</time>
      </trkpt>
      <trkpt lat="44.86062" lon="6.10729">
        <ele>1932</ele>
        <time>2024-08-13T14:45:24Z</time>
      </trkpt>
      <trkpt lat="44.86065" lon="6.10727">
        <ele>1932</ele>
        <time>2024-08-13T14:45:25Z</time>
      </trkpt>
      <trkpt lat="44.86065" lon="6.10727">
        <ele>1932</ele>
        <time>2024-08-13T14:45:26Z</time>
      </trkpt>
      <trkpt lat="44.86068" lon="6.10725">
        <ele>1931.6</ele>
        <time>2024-08-13T14:45:27Z</time>
      </trkpt>
      <trkpt lat="44.86068" lon="6.10725">
        <ele>1931</ele>
        <time>2024-08-13T14:45:28Z</time>
      </trkpt>
      <trkpt lat="44.8607" lon="6.10723">
        <ele>1931</ele>
        <time>2024-08-13T14:45:29Z</time>
      </trkpt>
      <trkpt lat="44.8607" lon="6.10723">
        <ele>1931</ele>
        <time>2024-08-13T14:45:30Z</time>
      </trkpt>
      <trkpt lat="44.86073" lon="6.10721">
        <ele>1931.4</ele>
        <time>2024-08-13T14:45:31Z</time>
      </trkpt>
      <trkpt lat="44.86073" lon="6.10721">
        <ele>1931.6</ele>
        <time>2024-08-13T14:45:32Z</time>
      </trkpt>
      <trkpt lat="44.86075" lon="6.10719">
        <ele>1931.4</ele>
        <time>2024-08-13T14:45:33Z</time>
      </trkpt>
      <trkpt lat="44.86075" lon="6.10719">
        <ele>1930.8</ele>
        <time>2024-08-13T14:45:34Z</time>
      </trkpt>
      <trkpt lat="44.86077" lon="6.10716">
        <ele>1930.8</ele>
        <time>2024-08-13T14:45:35Z</time>
      </trkpt>
      <trkpt lat="44.86077" lon="6.10716">
        <ele>1930.8</ele>
        <time>2024-08-13T14:45:36Z</time>
      </trkpt>
      <trkpt lat="44.86078" lon="6.10714">
        <ele>1931.2</ele>
        <time>2024-08-13T14:45:37Z</time>
      </trkpt>
      <trkpt lat="44.86078" lon="6.10714">
        <ele>1931.2</ele>
        <time>2024-08-13T14:45:38Z</time>
      </trkpt>
      <trkpt lat="44.86078" lon="6.1071">
        <ele>1932.2</ele>
        <time>2024-08-13T14:45:39Z</time>
      </trkpt>
      <trkpt lat="44.86078" lon="6.1071">
        <ele>1932.8</ele>
        <time>2024-08-13T14:45:40Z</time>
      </trkpt>
      <trkpt lat="44.8608" lon="6.10706">
        <ele>1933</ele>
        <time>2024-08-13T14:45:41Z</time>
      </trkpt>
      <trkpt lat="44.8608" lon="6.10706">
        <ele>1933</ele>
        <time>2024-08-13T14:45:42Z</time>
      </trkpt>
      <trkpt lat="44.86081" lon="6.10702">
        <ele>1933</ele>
        <time>2024-08-13T14:45:43Z</time>
      </trkpt>
      <trkpt lat="44.86081" lon="6.10702">
        <ele>1931.8</ele>
        <time>2024-08-13T14:45:44Z</time>
      </trkpt>
      <trkpt lat="44.86083" lon="6.10699">
        <ele>1931.4</ele>
        <time>2024-08-13T14:45:45Z</time>
      </trkpt>
      <trkpt lat="44.86083" lon="6.10699">
        <ele>1931.4</ele>
        <time>2024-08-13T14:45:46Z</time>
      </trkpt>
      <trkpt lat="44.86085" lon="6.10697">
        <ele>1931.8</ele>
        <time>2024-08-13T14:45:47Z</time>
      </trkpt>
      <trkpt lat="44.86085" lon="6.10697">
        <ele>1932</ele>
        <time>2024-08-13T14:45:48Z</time>
      </trkpt>
      <trkpt lat="44.86085" lon="6.10694">
        <ele>1932.2</ele>
        <time>2024-08-13T14:45:49Z</time>
      </trkpt>
      <trkpt lat="44.86085" lon="6.10694">
        <ele>1932.2</ele>
        <time>2024-08-13T14:45:50Z</time>
      </trkpt>
      <trkpt lat="44.86088" lon="6.10691">
        <ele>1932</ele>
        <time>2024-08-13T14:45:51Z</time>
      </trkpt>
      <trkpt lat="44.86088" lon="6.10691">
        <ele>1932.2</ele>
        <time>2024-08-13T14:45:52Z</time>
      </trkpt>
      <trkpt lat="44.8609" lon="6.1069">
        <ele>1932.2</ele>
        <time>2024-08-13T14:45:53Z</time>
      </trkpt>
      <trkpt lat="44.8609" lon="6.1069">
        <ele>1932.4</ele>
        <time>2024-08-13T14:45:54Z</time>
      </trkpt>
      <trkpt lat="44.86093" lon="6.10689">
        <ele>1932.4</ele>
        <time>2024-08-13T14:45:55Z</time>
      </trkpt>
      <trkpt lat="44.86093" lon="6.10689">
        <ele>1932.4</ele>
        <time>2024-08-13T14:45:56Z</time>
      </trkpt>
      <trkpt lat="44.86094" lon="6.10687">
        <ele>1932.4</ele>
        <time>2024-08-13T14:45:57Z</time>
      </trkpt>
      <trkpt lat="44.86094" lon="6.10687">
        <ele>1932.2</ele>
        <time>2024-08-13T14:45:58Z</time>
      </trkpt>
      <trkpt lat="44.86096" lon="6.10687">
        <ele>1932.2</ele>
        <time>2024-08-13T14:45:59Z</time>
      </trkpt>
      <trkpt lat="44.86096" lon="6.10687">
        <ele>1932.2</ele>
        <time>2024-08-13T14:46:00Z</time>
      </trkpt>
      <trkpt lat="44.86098" lon="6.10686">
        <ele>1932.2</ele>
        <time>2024-08-13T14:46:01Z</time>
      </trkpt>
      <trkpt lat="44.86098" lon="6.10686">
        <ele>1932.4</ele>
        <time>2024-08-13T14:46:02Z</time>
      </trkpt>
      <trkpt lat="44.861" lon="6.10685">
        <ele>1932.4</ele>
        <time>2024-08-13T14:46:03Z</time>
      </trkpt>
      <trkpt lat="44.861" lon="6.10685">
        <ele>1932.4</ele>
        <time>2024-08-13T14:46:04Z</time>
      </trkpt>
      <trkpt lat="44.861" lon="6.10685">
        <ele>1932.6</ele>
        <time>2024-08-13T14:46:05Z</time>
      </trkpt>
      <trkpt lat="44.86102" lon="6.10683">
        <ele>1933</ele>
        <time>2024-08-13T14:46:06Z</time>
      </trkpt>
      <trkpt lat="44.86102" lon="6.10683">
        <ele>1933</ele>
        <time>2024-08-13T14:46:07Z</time>
      </trkpt>
      <trkpt lat="44.86105" lon="6.10683">
        <ele>1932</ele>
        <time>2024-08-13T14:46:08Z</time>
      </trkpt>
      <trkpt lat="44.86105" lon="6.10683">
        <ele>1931.8</ele>
        <time>2024-08-13T14:46:09Z</time>
      </trkpt>
      <trkpt lat="44.86105" lon="6.10683">
        <ele>1931.4</ele>
        <time>2024-08-13T14:46:10Z</time>
      </trkpt>
      <trkpt lat="44.86107" lon="6.10682">
        <ele>1931.4</ele>
        <time>2024-08-13T14:46:11Z</time>
      </trkpt>
      <trkpt lat="44.86107" lon="6.10682">
        <ele>1931.4</ele>
        <time>2024-08-13T14:46:12Z</time>
      </trkpt>
      <trkpt lat="44.86109" lon="6.10683">
        <ele>1931</ele>
        <time>2024-08-13T14:46:13Z</time>
      </trkpt>
      <trkpt lat="44.86109" lon="6.10683">
        <ele>1930.4</ele>
        <time>2024-08-13T14:46:14Z</time>
      </trkpt>
      <trkpt lat="44.86109" lon="6.10683">
        <ele>1929.6</ele>
        <time>2024-08-13T14:46:15Z</time>
      </trkpt>
      <trkpt lat="44.86111" lon="6.10682">
        <ele>1929.2</ele>
        <time>2024-08-13T14:46:16Z</time>
      </trkpt>
      <trkpt lat="44.86111" lon="6.10682">
        <ele>1929</ele>
        <time>2024-08-13T14:46:17Z</time>
      </trkpt>
      <trkpt lat="44.86111" lon="6.10682">
        <ele>1928.8</ele>
        <time>2024-08-13T14:46:18Z</time>
      </trkpt>
      <trkpt lat="44.86111" lon="6.10682">
        <ele>1928.6</ele>
        <time>2024-08-13T14:46:19Z</time>
      </trkpt>
      <trkpt lat="44.86111" lon="6.10682">
        <ele>1928.6</ele>
        <time>2024-08-13T14:46:20Z</time>
      </trkpt>
      <trkpt lat="44.86114" lon="6.10682">
        <ele>1928.2</ele>
        <time>2024-08-13T14:46:21Z</time>
      </trkpt>
      <trkpt lat="44.86114" lon="6.10682">
        <ele>1928.2</ele>
        <time>2024-08-13T14:46:22Z</time>
      </trkpt>
      <trkpt lat="44.86114" lon="6.10682">
        <ele>1928</ele>
        <time>2024-08-13T14:46:23Z</time>
      </trkpt>
      <trkpt lat="44.86116" lon="6.10684">
        <ele>1927.8</ele>
        <time>2024-08-13T14:46:24Z</time>
      </trkpt>
      <trkpt lat="44.86116" lon="6.10684">
        <ele>1927.6</ele>
        <time>2024-08-13T14:46:25Z</time>
      </trkpt>
      <trkpt lat="44.86116" lon="6.10684">
        <ele>1927.2</ele>
        <time>2024-08-13T14:46:26Z</time>
      </trkpt>
      <trkpt lat="44.86118" lon="6.10684">
        <ele>1926.8</ele>
        <time>2024-08-13T14:46:27Z</time>
      </trkpt>
      <trkpt lat="44.86118" lon="6.10684">
        <ele>1926.6</ele>
        <time>2024-08-13T14:46:28Z</time>
      </trkpt>
      <trkpt lat="44.86118" lon="6.10684">
        <ele>1926.6</ele>
        <time>2024-08-13T14:46:29Z</time>
      </trkpt>
      <trkpt lat="44.8612" lon="6.10685">
        <ele>1926</ele>
        <time>2024-08-13T14:46:30Z</time>
      </trkpt>
      <trkpt lat="44.8612" lon="6.10685">
        <ele>1925.4</ele>
        <time>2024-08-13T14:46:31Z</time>
      </trkpt>
      <trkpt lat="44.8612" lon="6.10685">
        <ele>1924.8</ele>
        <time>2024-08-13T14:46:32Z</time>
      </trkpt>
      <trkpt lat="44.8612" lon="6.10685">
        <ele>1924.4</ele>
        <time>2024-08-13T14:46:33Z</time>
      </trkpt>
      <trkpt lat="44.8612" lon="6.10685">
        <ele>1924</ele>
        <time>2024-08-13T14:46:34Z</time>
      </trkpt>
      <trkpt lat="44.86123" lon="6.10685">
        <ele>1923.6</ele>
        <time>2024-08-13T14:46:35Z</time>
      </trkpt>
      <trkpt lat="44.86123" lon="6.10685">
        <ele>1923.2</ele>
        <time>2024-08-13T14:46:36Z</time>
      </trkpt>
      <trkpt lat="44.86123" lon="6.10685">
        <ele>1923</ele>
        <time>2024-08-13T14:46:37Z</time>
      </trkpt>
      <trkpt lat="44.86125" lon="6.10687">
        <ele>1922.8</ele>
        <time>2024-08-13T14:46:38Z</time>
      </trkpt>
      <trkpt lat="44.86125" lon="6.10687">
        <ele>1922.6</ele>
        <time>2024-08-13T14:46:39Z</time>
      </trkpt>
      <trkpt lat="44.86126" lon="6.10689">
        <ele>1921.4</ele>
        <time>2024-08-13T14:46:40Z</time>
      </trkpt>
      <trkpt lat="44.86126" lon="6.10689">
        <ele>1920.4</ele>
        <time>2024-08-13T14:46:41Z</time>
      </trkpt>
      <trkpt lat="44.86127" lon="6.10691">
        <ele>1919.6</ele>
        <time>2024-08-13T14:46:42Z</time>
      </trkpt>
      <trkpt lat="44.86127" lon="6.10691">
        <ele>1919.2</ele>
        <time>2024-08-13T14:46:43Z</time>
      </trkpt>
      <trkpt lat="44.86127" lon="6.10691">
        <ele>1919</ele>
        <time>2024-08-13T14:46:44Z</time>
      </trkpt>
      <trkpt lat="44.86129" lon="6.10692">
        <ele>1918.4</ele>
        <time>2024-08-13T14:46:45Z</time>
      </trkpt>
      <trkpt lat="44.86129" lon="6.10692">
        <ele>1917</ele>
        <time>2024-08-13T14:46:46Z</time>
      </trkpt>
      <trkpt lat="44.86131" lon="6.10693">
        <ele>1917</ele>
        <time>2024-08-13T14:46:47Z</time>
      </trkpt>
      <trkpt lat="44.86131" lon="6.10693">
        <ele>1917.2</ele>
        <time>2024-08-13T14:46:48Z</time>
      </trkpt>
      <trkpt lat="44.86133" lon="6.10695">
        <ele>1917.2</ele>
        <time>2024-08-13T14:46:49Z</time>
      </trkpt>
      <trkpt lat="44.86133" lon="6.10695">
        <ele>1916.4</ele>
        <time>2024-08-13T14:46:50Z</time>
      </trkpt>
      <trkpt lat="44.86134" lon="6.10696">
        <ele>1915.8</ele>
        <time>2024-08-13T14:46:51Z</time>
      </trkpt>
      <trkpt lat="44.86134" lon="6.10696">
        <ele>1915.8</ele>
        <time>2024-08-13T14:46:52Z</time>
      </trkpt>
      <trkpt lat="44.86134" lon="6.10696">
        <ele>1915.8</ele>
        <time>2024-08-13T14:46:53Z</time>
      </trkpt>
      <trkpt lat="44.86136" lon="6.10696">
        <ele>1915.6</ele>
        <time>2024-08-13T14:46:54Z</time>
      </trkpt>
      <trkpt lat="44.86136" lon="6.10696">
        <ele>1915.6</ele>
        <time>2024-08-13T14:46:55Z</time>
      </trkpt>
      <trkpt lat="44.86138" lon="6.10697">
        <ele>1915.6</ele>
        <time>2024-08-13T14:46:56Z</time>
      </trkpt>
      <trkpt lat="44.86138" lon="6.10697">
        <ele>1915.2</ele>
        <time>2024-08-13T14:46:57Z</time>
      </trkpt>
      <trkpt lat="44.8614" lon="6.10698">
        <ele>1914.8</ele>
        <time>2024-08-13T14:46:58Z</time>
      </trkpt>
      <trkpt lat="44.8614" lon="6.10698">
        <ele>1914</ele>
        <time>2024-08-13T14:46:59Z</time>
      </trkpt>
      <trkpt lat="44.86142" lon="6.10699">
        <ele>1913.8</ele>
        <time>2024-08-13T14:47:00Z</time>
      </trkpt>
      <trkpt lat="44.86142" lon="6.10699">
        <ele>1913.4</ele>
        <time>2024-08-13T14:47:01Z</time>
      </trkpt>
      <trkpt lat="44.86144" lon="6.10701">
        <ele>1913</ele>
        <time>2024-08-13T14:47:02Z</time>
      </trkpt>
      <trkpt lat="44.86144" lon="6.10701">
        <ele>1912.2</ele>
        <time>2024-08-13T14:47:03Z</time>
      </trkpt>
      <trkpt lat="44.86146" lon="6.10702">
        <ele>1911.4</ele>
        <time>2024-08-13T14:47:04Z</time>
      </trkpt>
      <trkpt lat="44.86146" lon="6.10702">
        <ele>1911.2</ele>
        <time>2024-08-13T14:47:05Z</time>
      </trkpt>
      <trkpt lat="44.86148" lon="6.10703">
        <ele>1911</ele>
        <time>2024-08-13T14:47:06Z</time>
      </trkpt>
      <trkpt lat="44.86148" lon="6.10703">
        <ele>1910.6</ele>
        <time>2024-08-13T14:47:07Z</time>
      </trkpt>
      <trkpt lat="44.8615" lon="6.10704">
        <ele>1910.6</ele>
        <time>2024-08-13T14:47:08Z</time>
      </trkpt>
      <trkpt lat="44.8615" lon="6.10704">
        <ele>1910.4</ele>
        <time>2024-08-13T14:47:09Z</time>
      </trkpt>
      <trkpt lat="44.8615" lon="6.10704">
        <ele>1910.2</ele>
        <time>2024-08-13T14:47:10Z</time>
      </trkpt>
      <trkpt lat="44.86152" lon="6.10704">
        <ele>1910.2</ele>
        <time>2024-08-13T14:47:11Z</time>
      </trkpt>
      <trkpt lat="44.86152" lon="6.10704">
        <ele>1910.2</ele>
        <time>2024-08-13T14:47:12Z</time>
      </trkpt>
      <trkpt lat="44.86154" lon="6.10706">
        <ele>1909.6</ele>
        <time>2024-08-13T14:47:13Z</time>
      </trkpt>
      <trkpt lat="44.86154" lon="6.10706">
        <ele>1909.6</ele>
        <time>2024-08-13T14:47:14Z</time>
      </trkpt>
      <trkpt lat="44.86154" lon="6.10706">
        <ele>1909.6</ele>
        <time>2024-08-13T14:47:15Z</time>
      </trkpt>
      <trkpt lat="44.86157" lon="6.10707">
        <ele>1909.8</ele>
        <time>2024-08-13T14:47:16Z</time>
      </trkpt>
      <trkpt lat="44.86157" lon="6.10707">
        <ele>1909.8</ele>
        <time>2024-08-13T14:47:17Z</time>
      </trkpt>
      <trkpt lat="44.86157" lon="6.10707">
        <ele>1909.6</ele>
        <time>2024-08-13T14:47:18Z</time>
      </trkpt>
      <trkpt lat="44.86159" lon="6.10709">
        <ele>1909.6</ele>
        <time>2024-08-13T14:47:19Z</time>
      </trkpt>
      <trkpt lat="44.86159" lon="6.10709">
        <ele>1909.6</ele>
        <time>2024-08-13T14:47:20Z</time>
      </trkpt>
      <trkpt lat="44.86161" lon="6.1071">
        <ele>1909.2</ele>
        <time>2024-08-13T14:47:21Z</time>
      </trkpt>
      <trkpt lat="44.86161" lon="6.1071">
        <ele>1908.8</ele>
        <time>2024-08-13T14:47:22Z</time>
      </trkpt>
      <trkpt lat="44.86161" lon="6.1071">
        <ele>1908.8</ele>
        <time>2024-08-13T14:47:23Z</time>
      </trkpt>
      <trkpt lat="44.86163" lon="6.10711">
        <ele>1908.2</ele>
        <time>2024-08-13T14:47:24Z</time>
      </trkpt>
      <trkpt lat="44.86163" lon="6.10711">
        <ele>1908.2</ele>
        <time>2024-08-13T14:47:25Z</time>
      </trkpt>
      <trkpt lat="44.86163" lon="6.10711">
        <ele>1908.2</ele>
        <time>2024-08-13T14:47:26Z</time>
      </trkpt>
      <trkpt lat="44.86165" lon="6.10712">
        <ele>1907.8</ele>
        <time>2024-08-13T14:47:27Z</time>
      </trkpt>
      <trkpt lat="44.86165" lon="6.10712">
        <ele>1907.2</ele>
        <time>2024-08-13T14:47:28Z</time>
      </trkpt>
      <trkpt lat="44.86165" lon="6.10712">
        <ele>1906.8</ele>
        <time>2024-08-13T14:47:29Z</time>
      </trkpt>
      <trkpt lat="44.86168" lon="6.10712">
        <ele>1906.4</ele>
        <time>2024-08-13T14:47:30Z</time>
      </trkpt>
      <trkpt lat="44.86168" lon="6.10712">
        <ele>1906.4</ele>
        <time>2024-08-13T14:47:31Z</time>
      </trkpt>
      <trkpt lat="44.86168" lon="6.10712">
        <ele>1906.4</ele>
        <time>2024-08-13T14:47:32Z</time>
      </trkpt>
      <trkpt lat="44.86171" lon="6.10714">
        <ele>1906.2</ele>
        <time>2024-08-13T14:47:33Z</time>
      </trkpt>
      <trkpt lat="44.86171" lon="6.10714">
        <ele>1905.6</ele>
        <time>2024-08-13T14:47:34Z</time>
      </trkpt>
      <trkpt lat="44.86174" lon="6.10715">
        <ele>1905.6</ele>
        <time>2024-08-13T14:47:35Z</time>
      </trkpt>
      <trkpt lat="44.86174" lon="6.10715">
        <ele>1905.4</ele>
        <time>2024-08-13T14:47:36Z</time>
      </trkpt>
      <trkpt lat="44.86176" lon="6.10717">
        <ele>1905.4</ele>
        <time>2024-08-13T14:47:37Z</time>
      </trkpt>
      <trkpt lat="44.86176" lon="6.10717">
        <ele>1905</ele>
        <time>2024-08-13T14:47:38Z</time>
      </trkpt>
      <trkpt lat="44.86176" lon="6.10717">
        <ele>1904.6</ele>
        <time>2024-08-13T14:47:39Z</time>
      </trkpt>
      <trkpt lat="44.86178" lon="6.10718">
        <ele>1904.6</ele>
        <time>2024-08-13T14:47:40Z</time>
      </trkpt>
      <trkpt lat="44.86178" lon="6.10718">
        <ele>1905</ele>
        <time>2024-08-13T14:47:41Z</time>
      </trkpt>
      <trkpt lat="44.86178" lon="6.10718">
        <ele>1905</ele>
        <time>2024-08-13T14:47:42Z</time>
      </trkpt>
      <trkpt lat="44.8618" lon="6.10718">
        <ele>1904.6</ele>
        <time>2024-08-13T14:47:43Z</time>
      </trkpt>
      <trkpt lat="44.8618" lon="6.10718">
        <ele>1904.6</ele>
        <time>2024-08-13T14:47:44Z</time>
      </trkpt>
      <trkpt lat="44.8618" lon="6.10718">
        <ele>1904.4</ele>
        <time>2024-08-13T14:47:45Z</time>
      </trkpt>
      <trkpt lat="44.86182" lon="6.10719">
        <ele>1904</ele>
        <time>2024-08-13T14:47:46Z</time>
      </trkpt>
      <trkpt lat="44.86182" lon="6.10719">
        <ele>1903.8</ele>
        <time>2024-08-13T14:47:47Z</time>
      </trkpt>
      <trkpt lat="44.86183" lon="6.10721">
        <ele>1903.8</ele>
        <time>2024-08-13T14:47:48Z</time>
      </trkpt>
      <trkpt lat="44.86183" lon="6.10721">
        <ele>1903.6</ele>
        <time>2024-08-13T14:47:49Z</time>
      </trkpt>
      <trkpt lat="44.86185" lon="6.10722">
        <ele>1903.2</ele>
        <time>2024-08-13T14:47:50Z</time>
      </trkpt>
      <trkpt lat="44.86185" lon="6.10722">
        <ele>1903</ele>
        <time>2024-08-13T14:47:51Z</time>
      </trkpt>
      <trkpt lat="44.86187" lon="6.10724">
        <ele>1902.4</ele>
        <time>2024-08-13T14:47:52Z</time>
      </trkpt>
      <trkpt lat="44.86187" lon="6.10724">
        <ele>1902</ele>
        <time>2024-08-13T14:47:53Z</time>
      </trkpt>
      <trkpt lat="44.86189" lon="6.10726">
        <ele>1902</ele>
        <time>2024-08-13T14:47:54Z</time>
      </trkpt>
      <trkpt lat="44.86189" lon="6.10726">
        <ele>1902.4</ele>
        <time>2024-08-13T14:47:55Z</time>
      </trkpt>
      <trkpt lat="44.86189" lon="6.10726">
        <ele>1902.4</ele>
        <time>2024-08-13T14:47:56Z</time>
      </trkpt>
      <trkpt lat="44.86191" lon="6.10727">
        <ele>1902.4</ele>
        <time>2024-08-13T14:47:57Z</time>
      </trkpt>
      <trkpt lat="44.86191" lon="6.10727">
        <ele>1902.8</ele>
        <time>2024-08-13T14:47:58Z</time>
      </trkpt>
      <trkpt lat="44.86193" lon="6.1073">
        <ele>1902.8</ele>
        <time>2024-08-13T14:47:59Z</time>
      </trkpt>
      <trkpt lat="44.86193" lon="6.1073">
        <ele>1902.6</ele>
        <time>2024-08-13T14:48:00Z</time>
      </trkpt>
      <trkpt lat="44.86194" lon="6.10732">
        <ele>1902.4</ele>
        <time>2024-08-13T14:48:01Z</time>
      </trkpt>
      <trkpt lat="44.86194" lon="6.10732">
        <ele>1902.6</ele>
        <time>2024-08-13T14:48:02Z</time>
      </trkpt>
      <trkpt lat="44.86196" lon="6.10734">
        <ele>1902.6</ele>
        <time>2024-08-13T14:48:03Z</time>
      </trkpt>
      <trkpt lat="44.86196" lon="6.10734">
        <ele>1902.6</ele>
        <time>2024-08-13T14:48:04Z</time>
      </trkpt>
      <trkpt lat="44.86198" lon="6.10737">
        <ele>1902.4</ele>
        <time>2024-08-13T14:48:05Z</time>
      </trkpt>
      <trkpt lat="44.86198" lon="6.10737">
        <ele>1902</ele>
        <time>2024-08-13T14:48:06Z</time>
      </trkpt>
      <trkpt lat="44.86199" lon="6.1074">
        <ele>1902</ele>
        <time>2024-08-13T14:48:07Z</time>
      </trkpt>
      <trkpt lat="44.86199" lon="6.1074">
        <ele>1901.6</ele>
        <time>2024-08-13T14:48:08Z</time>
      </trkpt>
      <trkpt lat="44.86201" lon="6.10742">
        <ele>1901.4</ele>
        <time>2024-08-13T14:48:09Z</time>
      </trkpt>
      <trkpt lat="44.86201" lon="6.10742">
        <ele>1901</ele>
        <time>2024-08-13T14:48:10Z</time>
      </trkpt>
      <trkpt lat="44.86203" lon="6.10744">
        <ele>1900.8</ele>
        <time>2024-08-13T14:48:11Z</time>
      </trkpt>
      <trkpt lat="44.86203" lon="6.10744">
        <ele>1900.8</ele>
        <time>2024-08-13T14:48:12Z</time>
      </trkpt>
      <trkpt lat="44.86203" lon="6.10744">
        <ele>1900.8</ele>
        <time>2024-08-13T14:48:13Z</time>
      </trkpt>
      <trkpt lat="44.86205" lon="6.10746">
        <ele>1900.6</ele>
        <time>2024-08-13T14:48:14Z</time>
      </trkpt>
      <trkpt lat="44.86205" lon="6.10746">
        <ele>1900.8</ele>
        <time>2024-08-13T14:48:15Z</time>
      </trkpt>
      <trkpt lat="44.86207" lon="6.10747">
        <ele>1901</ele>
        <time>2024-08-13T14:48:16Z</time>
      </trkpt>
      <trkpt lat="44.86207" lon="6.10747">
        <ele>1901</ele>
        <time>2024-08-13T14:48:17Z</time>
      </trkpt>
      <trkpt lat="44.86209" lon="6.10748">
        <ele>1900.4</ele>
        <time>2024-08-13T14:48:18Z</time>
      </trkpt>
      <trkpt lat="44.86209" lon="6.10748">
        <ele>1900.4</ele>
        <time>2024-08-13T14:48:19Z</time>
      </trkpt>
      <trkpt lat="44.86212" lon="6.10748">
        <ele>1900.2</ele>
        <time>2024-08-13T14:48:20Z</time>
      </trkpt>
      <trkpt lat="44.86212" lon="6.10748">
        <ele>1899.8</ele>
        <time>2024-08-13T14:48:21Z</time>
      </trkpt>
      <trkpt lat="44.86214" lon="6.10749">
        <ele>1899</ele>
        <time>2024-08-13T14:48:22Z</time>
      </trkpt>
      <trkpt lat="44.86214" lon="6.10749">
        <ele>1898.8</ele>
        <time>2024-08-13T14:48:23Z</time>
      </trkpt>
      <trkpt lat="44.86216" lon="6.10749">
        <ele>1898.8</ele>
        <time>2024-08-13T14:48:24Z</time>
      </trkpt>
      <trkpt lat="44.86216" lon="6.10749">
        <ele>1898.8</ele>
        <time>2024-08-13T14:48:25Z</time>
      </trkpt>
      <trkpt lat="44.86218" lon="6.10749">
        <ele>1899.2</ele>
        <time>2024-08-13T14:48:26Z</time>
      </trkpt>
      <trkpt lat="44.86218" lon="6.10749">
        <ele>1899.4</ele>
        <time>2024-08-13T14:48:27Z</time>
      </trkpt>
      <trkpt lat="44.86218" lon="6.10749">
        <ele>1899.4</ele>
        <time>2024-08-13T14:48:28Z</time>
      </trkpt>
      <trkpt lat="44.86218" lon="6.10749">
        <ele>1899.4</ele>
        <time>2024-08-13T14:48:29Z</time>
      </trkpt>
      <trkpt lat="44.8622" lon="6.10747">
        <ele>1899.4</ele>
        <time>2024-08-13T14:48:30Z</time>
      </trkpt>
      <trkpt lat="44.8622" lon="6.10747">
        <ele>1899.4</ele>
        <time>2024-08-13T14:48:31Z</time>
      </trkpt>
      <trkpt lat="44.8622" lon="6.10747">
        <ele>1898.8</ele>
        <time>2024-08-13T14:48:32Z</time>
      </trkpt>
      <trkpt lat="44.86221" lon="6.10747">
        <ele>1898.4</ele>
        <time>2024-08-13T14:48:33Z</time>
      </trkpt>
      <trkpt lat="44.86221" lon="6.10747">
        <ele>1898.4</ele>
        <time>2024-08-13T14:48:34Z</time>
      </trkpt>
      <trkpt lat="44.86221" lon="6.10747">
        <ele>1898.4</ele>
        <time>2024-08-13T14:48:35Z</time>
      </trkpt>
      <trkpt lat="44.86223" lon="6.10746">
        <ele>1898.2</ele>
        <time>2024-08-13T14:48:36Z</time>
      </trkpt>
      <trkpt lat="44.86223" lon="6.10746">
        <ele>1898</ele>
        <time>2024-08-13T14:48:37Z</time>
      </trkpt>
      <trkpt lat="44.86223" lon="6.10746">
        <ele>1897.8</ele>
        <time>2024-08-13T14:48:38Z</time>
      </trkpt>
      <trkpt lat="44.86226" lon="6.10745">
        <ele>1897.6</ele>
        <time>2024-08-13T14:48:39Z</time>
      </trkpt>
      <trkpt lat="44.86226" lon="6.10745">
        <ele>1897.6</ele>
        <time>2024-08-13T14:48:40Z</time>
      </trkpt>
      <trkpt lat="44.86226" lon="6.10745">
        <ele>1897.8</ele>
        <time>2024-08-13T14:48:41Z</time>
      </trkpt>
      <trkpt lat="44.86226" lon="6.10745">
        <ele>1897.8</ele>
        <time>2024-08-13T14:48:42Z</time>
      </trkpt>
      <trkpt lat="44.86227" lon="6.10742">
        <ele>1897.8</ele>
        <time>2024-08-13T14:48:43Z</time>
      </trkpt>
      <trkpt lat="44.86227" lon="6.10742">
        <ele>1898.2</ele>
        <time>2024-08-13T14:48:44Z</time>
      </trkpt>
      <trkpt lat="44.86228" lon="6.10739">
        <ele>1898.2</ele>
        <time>2024-08-13T14:48:45Z</time>
      </trkpt>
      <trkpt lat="44.86228" lon="6.10739">
        <ele>1898.2</ele>
        <time>2024-08-13T14:48:46Z</time>
      </trkpt>
      <trkpt lat="44.8623" lon="6.10737">
        <ele>1898</ele>
        <time>2024-08-13T14:48:47Z</time>
      </trkpt>
      <trkpt lat="44.8623" lon="6.10737">
        <ele>1897.4</ele>
        <time>2024-08-13T14:48:48Z</time>
      </trkpt>
      <trkpt lat="44.86231" lon="6.10735">
        <ele>1896.2</ele>
        <time>2024-08-13T14:48:49Z</time>
      </trkpt>
      <trkpt lat="44.86231" lon="6.10735">
        <ele>1896.2</ele>
        <time>2024-08-13T14:48:50Z</time>
      </trkpt>
      <trkpt lat="44.86233" lon="6.10733">
        <ele>1896.2</ele>
        <time>2024-08-13T14:48:51Z</time>
      </trkpt>
      <trkpt lat="44.86233" lon="6.10733">
        <ele>1896.2</ele>
        <time>2024-08-13T14:48:52Z</time>
      </trkpt>
      <trkpt lat="44.86233" lon="6.10733">
        <ele>1896.2</ele>
        <time>2024-08-13T14:48:53Z</time>
      </trkpt>
      <trkpt lat="44.86236" lon="6.10732">
        <ele>1896.4</ele>
        <time>2024-08-13T14:48:54Z</time>
      </trkpt>
      <trkpt lat="44.86236" lon="6.10732">
        <ele>1897</ele>
        <time>2024-08-13T14:48:55Z</time>
      </trkpt>
      <trkpt lat="44.86237" lon="6.10732">
        <ele>1897.2</ele>
        <time>2024-08-13T14:48:56Z</time>
      </trkpt>
      <trkpt lat="44.86237" lon="6.10732">
        <ele>1897.4</ele>
        <time>2024-08-13T14:48:57Z</time>
      </trkpt>
      <trkpt lat="44.8624" lon="6.10731">
        <ele>1897.6</ele>
        <time>2024-08-13T14:48:58Z</time>
      </trkpt>
      <trkpt lat="44.8624" lon="6.10731">
        <ele>1897.6</ele>
        <time>2024-08-13T14:48:59Z</time>
      </trkpt>
      <trkpt lat="44.86242" lon="6.1073">
        <ele>1897.4</ele>
        <time>2024-08-13T14:49:00Z</time>
      </trkpt>
      <trkpt lat="44.86242" lon="6.1073">
        <ele>1897.4</ele>
        <time>2024-08-13T14:49:01Z</time>
      </trkpt>
      <trkpt lat="44.86244" lon="6.10729">
        <ele>1897.4</ele>
        <time>2024-08-13T14:49:02Z</time>
      </trkpt>
      <trkpt lat="44.86244" lon="6.10729">
        <ele>1897.4</ele>
        <time>2024-08-13T14:49:03Z</time>
      </trkpt>
      <trkpt lat="44.86244" lon="6.10729">
        <ele>1897.4</ele>
        <time>2024-08-13T14:49:04Z</time>
      </trkpt>
      <trkpt lat="44.86245" lon="6.10728">
        <ele>1897.4</ele>
        <time>2024-08-13T14:49:05Z</time>
      </trkpt>
      <trkpt lat="44.86245" lon="6.10728">
        <ele>1897.4</ele>
        <time>2024-08-13T14:49:06Z</time>
      </trkpt>
      <trkpt lat="44.86245" lon="6.10728">
        <ele>1897.4</ele>
        <time>2024-08-13T14:49:07Z</time>
      </trkpt>
      <trkpt lat="44.86245" lon="6.10728">
        <ele>1897.6</ele>
        <time>2024-08-13T14:49:08Z</time>
      </trkpt>
      <trkpt lat="44.86245" lon="6.10728">
        <ele>1898</ele>
        <time>2024-08-13T14:49:09Z</time>
      </trkpt>
      <trkpt lat="44.86245" lon="6.10728">
        <ele>1898</ele>
        <time>2024-08-13T14:49:10Z</time>
      </trkpt>
      <trkpt lat="44.86245" lon="6.10728">
        <ele>1898</ele>
        <time>2024-08-13T14:49:11Z</time>
      </trkpt>
      <trkpt lat="44.86246" lon="6.10725">
        <ele>1898</ele>
        <time>2024-08-13T14:49:12Z</time>
      </trkpt>
      <trkpt lat="44.86246" lon="6.10725">
        <ele>1898.2</ele>
        <time>2024-08-13T14:49:13Z</time>
      </trkpt>
      <trkpt lat="44.86248" lon="6.10723">
        <ele>1898.2</ele>
        <time>2024-08-13T14:49:14Z</time>
      </trkpt>
      <trkpt lat="44.86248" lon="6.10723">
        <ele>1898</ele>
        <time>2024-08-13T14:49:15Z</time>
      </trkpt>
      <trkpt lat="44.86251" lon="6.10723">
        <ele>1898</ele>
        <time>2024-08-13T14:49:16Z</time>
      </trkpt>
      <trkpt lat="44.86251" lon="6.10723">
        <ele>1898</ele>
        <time>2024-08-13T14:49:17Z</time>
      </trkpt>
      <trkpt lat="44.86253" lon="6.10722">
        <ele>1897.8</ele>
        <time>2024-08-13T14:49:18Z</time>
      </trkpt>
      <trkpt lat="44.86253" lon="6.10722">
        <ele>1897.2</ele>
        <time>2024-08-13T14:49:19Z</time>
      </trkpt>
      <trkpt lat="44.86255" lon="6.10721">
        <ele>1897</ele>
        <time>2024-08-13T14:49:20Z</time>
      </trkpt>
      <trkpt lat="44.86255" lon="6.10721">
        <ele>1896.8</ele>
        <time>2024-08-13T14:49:21Z</time>
      </trkpt>
      <trkpt lat="44.86257" lon="6.1072">
        <ele>1896.8</ele>
        <time>2024-08-13T14:49:22Z</time>
      </trkpt>
      <trkpt lat="44.86257" lon="6.1072">
        <ele>1897.2</ele>
        <time>2024-08-13T14:49:23Z</time>
      </trkpt>
      <trkpt lat="44.86257" lon="6.1072">
        <ele>1897.2</ele>
        <time>2024-08-13T14:49:24Z</time>
      </trkpt>
      <trkpt lat="44.8626" lon="6.10718">
        <ele>1897.6</ele>
        <time>2024-08-13T14:49:25Z</time>
      </trkpt>
      <trkpt lat="44.8626" lon="6.10718">
        <ele>1898.6</ele>
        <time>2024-08-13T14:49:26Z</time>
      </trkpt>
      <trkpt lat="44.86262" lon="6.10717">
        <ele>1898.6</ele>
        <time>2024-08-13T14:49:27Z</time>
      </trkpt>
      <trkpt lat="44.86262" lon="6.10717">
        <ele>1898.4</ele>
        <time>2024-08-13T14:49:28Z</time>
      </trkpt>
      <trkpt lat="44.86264" lon="6.10717">
        <ele>1898.4</ele>
        <time>2024-08-13T14:49:29Z</time>
      </trkpt>
      <trkpt lat="44.86264" lon="6.10717">
        <ele>1898.4</ele>
        <time>2024-08-13T14:49:30Z</time>
      </trkpt>
      <trkpt lat="44.86267" lon="6.10717">
        <ele>1898.2</ele>
        <time>2024-08-13T14:49:31Z</time>
      </trkpt>
      <trkpt lat="44.86267" lon="6.10717">
        <ele>1898.2</ele>
        <time>2024-08-13T14:49:32Z</time>
      </trkpt>
      <trkpt lat="44.86269" lon="6.10718">
        <ele>1898</ele>
        <time>2024-08-13T14:49:33Z</time>
      </trkpt>
      <trkpt lat="44.86269" lon="6.10718">
        <ele>1898</ele>
        <time>2024-08-13T14:49:34Z</time>
      </trkpt>
      <trkpt lat="44.86272" lon="6.10719">
        <ele>1898</ele>
        <time>2024-08-13T14:49:35Z</time>
      </trkpt>
      <trkpt lat="44.86272" lon="6.10719">
        <ele>1898</ele>
        <time>2024-08-13T14:49:36Z</time>
      </trkpt>
      <trkpt lat="44.86274" lon="6.1072">
        <ele>1898</ele>
        <time>2024-08-13T14:49:37Z</time>
      </trkpt>
      <trkpt lat="44.86274" lon="6.1072">
        <ele>1898.4</ele>
        <time>2024-08-13T14:49:38Z</time>
      </trkpt>
      <trkpt lat="44.86276" lon="6.10722">
        <ele>1898.8</ele>
        <time>2024-08-13T14:49:39Z</time>
      </trkpt>
      <trkpt lat="44.86276" lon="6.10722">
        <ele>1898.8</ele>
        <time>2024-08-13T14:49:40Z</time>
      </trkpt>
      <trkpt lat="44.86276" lon="6.10722">
        <ele>1899.2</ele>
        <time>2024-08-13T14:49:41Z</time>
      </trkpt>
      <trkpt lat="44.86276" lon="6.10725">
        <ele>1899.2</ele>
        <time>2024-08-13T14:49:42Z</time>
      </trkpt>
      <trkpt lat="44.86276" lon="6.10725">
        <ele>1898.8</ele>
        <time>2024-08-13T14:49:43Z</time>
      </trkpt>
      <trkpt lat="44.86276" lon="6.10725">
        <ele>1898.8</ele>
        <time>2024-08-13T14:49:44Z</time>
      </trkpt>
      <trkpt lat="44.86276" lon="6.10725">
        <ele>1898.8</ele>
        <time>2024-08-13T14:49:45Z</time>
      </trkpt>
      <trkpt lat="44.86276" lon="6.10725">
        <ele>1898.8</ele>
        <time>2024-08-13T14:49:46Z</time>
      </trkpt>
      <trkpt lat="44.86276" lon="6.10725">
        <ele>1898.6</ele>
        <time>2024-08-13T14:49:47Z</time>
      </trkpt>
      <trkpt lat="44.86278" lon="6.10726">
        <ele>1898.2</ele>
        <time>2024-08-13T14:49:48Z</time>
      </trkpt>
      <trkpt lat="44.86278" lon="6.10726">
        <ele>1898.2</ele>
        <time>2024-08-13T14:49:49Z</time>
      </trkpt>
      <trkpt lat="44.8628" lon="6.10726">
        <ele>1897.8</ele>
        <time>2024-08-13T14:49:50Z</time>
      </trkpt>
      <trkpt lat="44.8628" lon="6.10726">
        <ele>1897.2</ele>
        <time>2024-08-13T14:49:51Z</time>
      </trkpt>
      <trkpt lat="44.86282" lon="6.10725">
        <ele>1897</ele>
        <time>2024-08-13T14:49:52Z</time>
      </trkpt>
      <trkpt lat="44.86282" lon="6.10725">
        <ele>1896.6</ele>
        <time>2024-08-13T14:49:53Z</time>
      </trkpt>
      <trkpt lat="44.86284" lon="6.10722">
        <ele>1896</ele>
        <time>2024-08-13T14:49:54Z</time>
      </trkpt>
      <trkpt lat="44.86284" lon="6.10722">
        <ele>1895.6</ele>
        <time>2024-08-13T14:49:55Z</time>
      </trkpt>
      <trkpt lat="44.86286" lon="6.1072">
        <ele>1895.4</ele>
        <time>2024-08-13T14:49:56Z</time>
      </trkpt>
      <trkpt lat="44.86286" lon="6.1072">
        <ele>1895.2</ele>
        <time>2024-08-13T14:49:57Z</time>
      </trkpt>
      <trkpt lat="44.86288" lon="6.10719">
        <ele>1895.2</ele>
        <time>2024-08-13T14:49:58Z</time>
      </trkpt>
      <trkpt lat="44.86288" lon="6.10719">
        <ele>1894.8</ele>
        <time>2024-08-13T14:49:59Z</time>
      </trkpt>
      <trkpt lat="44.86288" lon="6.10719">
        <ele>1894.8</ele>
        <time>2024-08-13T14:50:00Z</time>
      </trkpt>
      <trkpt lat="44.8629" lon="6.10719">
        <ele>1895.2</ele>
        <time>2024-08-13T14:50:01Z</time>
      </trkpt>
      <trkpt lat="44.8629" lon="6.10719">
        <ele>1896.2</ele>
        <time>2024-08-13T14:50:02Z</time>
      </trkpt>
      <trkpt lat="44.86292" lon="6.10719">
        <ele>1896.4</ele>
        <time>2024-08-13T14:50:03Z</time>
      </trkpt>
      <trkpt lat="44.86292" lon="6.10719">
        <ele>1896.8</ele>
        <time>2024-08-13T14:50:04Z</time>
      </trkpt>
      <trkpt lat="44.86294" lon="6.1072">
        <ele>1897.4</ele>
        <time>2024-08-13T14:50:05Z</time>
      </trkpt>
      <trkpt lat="44.86294" lon="6.1072">
        <ele>1897.4</ele>
        <time>2024-08-13T14:50:06Z</time>
      </trkpt>
      <trkpt lat="44.86297" lon="6.1072">
        <ele>1897</ele>
        <time>2024-08-13T14:50:07Z</time>
      </trkpt>
      <trkpt lat="44.86297" lon="6.1072">
        <ele>1896.6</ele>
        <time>2024-08-13T14:50:08Z</time>
      </trkpt>
      <trkpt lat="44.863" lon="6.1072">
        <ele>1896.2</ele>
        <time>2024-08-13T14:50:09Z</time>
      </trkpt>
      <trkpt lat="44.863" lon="6.1072">
        <ele>1896</ele>
        <time>2024-08-13T14:50:10Z</time>
      </trkpt>
      <trkpt lat="44.86302" lon="6.10718">
        <ele>1896</ele>
        <time>2024-08-13T14:50:11Z</time>
      </trkpt>
      <trkpt lat="44.86302" lon="6.10718">
        <ele>1896</ele>
        <time>2024-08-13T14:50:12Z</time>
      </trkpt>
      <trkpt lat="44.86304" lon="6.10718">
        <ele>1896</ele>
        <time>2024-08-13T14:50:13Z</time>
      </trkpt>
      <trkpt lat="44.86304" lon="6.10718">
        <ele>1896</ele>
        <time>2024-08-13T14:50:14Z</time>
      </trkpt>
      <trkpt lat="44.86306" lon="6.10718">
        <ele>1895.8</ele>
        <time>2024-08-13T14:50:15Z</time>
      </trkpt>
      <trkpt lat="44.86306" lon="6.10718">
        <ele>1895.2</ele>
        <time>2024-08-13T14:50:16Z</time>
      </trkpt>
      <trkpt lat="44.86309" lon="6.10719">
        <ele>1895.2</ele>
        <time>2024-08-13T14:50:17Z</time>
      </trkpt>
      <trkpt lat="44.86309" lon="6.10719">
        <ele>1895.2</ele>
        <time>2024-08-13T14:50:18Z</time>
      </trkpt>
      <trkpt lat="44.86311" lon="6.1072">
        <ele>1895.2</ele>
        <time>2024-08-13T14:50:19Z</time>
      </trkpt>
      <trkpt lat="44.86311" lon="6.1072">
        <ele>1895</ele>
        <time>2024-08-13T14:50:20Z</time>
      </trkpt>
      <trkpt lat="44.86311" lon="6.1072">
        <ele>1894.6</ele>
        <time>2024-08-13T14:50:21Z</time>
      </trkpt>
      <trkpt lat="44.86314" lon="6.10721">
        <ele>1894.4</ele>
        <time>2024-08-13T14:50:22Z</time>
      </trkpt>
      <trkpt lat="44.86314" lon="6.10721">
        <ele>1894.4</ele>
        <time>2024-08-13T14:50:23Z</time>
      </trkpt>
      <trkpt lat="44.86316" lon="6.10722">
        <ele>1894</ele>
        <time>2024-08-13T14:50:24Z</time>
      </trkpt>
      <trkpt lat="44.86316" lon="6.10722">
        <ele>1893.4</ele>
        <time>2024-08-13T14:50:25Z</time>
      </trkpt>
      <trkpt lat="44.86316" lon="6.10722">
        <ele>1893.4</ele>
        <time>2024-08-13T14:50:26Z</time>
      </trkpt>
      <trkpt lat="44.86318" lon="6.10722">
        <ele>1893.4</ele>
        <time>2024-08-13T14:50:27Z</time>
      </trkpt>
      <trkpt lat="44.86318" lon="6.10722">
        <ele>1893.4</ele>
        <time>2024-08-13T14:50:28Z</time>
      </trkpt>
      <trkpt lat="44.86318" lon="6.10722">
        <ele>1894.4</ele>
        <time>2024-08-13T14:50:29Z</time>
      </trkpt>
      <trkpt lat="44.86319" lon="6.1072">
        <ele>1894.4</ele>
        <time>2024-08-13T14:50:30Z</time>
      </trkpt>
      <trkpt lat="44.86319" lon="6.1072">
        <ele>1894.4</ele>
        <time>2024-08-13T14:50:31Z</time>
      </trkpt>
      <trkpt lat="44.86321" lon="6.10718">
        <ele>1894</ele>
        <time>2024-08-13T14:50:32Z</time>
      </trkpt>
      <trkpt lat="44.86321" lon="6.10718">
        <ele>1894</ele>
        <time>2024-08-13T14:50:33Z</time>
      </trkpt>
      <trkpt lat="44.86323" lon="6.10717">
        <ele>1893.2</ele>
        <time>2024-08-13T14:50:34Z</time>
      </trkpt>
      <trkpt lat="44.86323" lon="6.10717">
        <ele>1893.2</ele>
        <time>2024-08-13T14:50:35Z</time>
      </trkpt>
      <trkpt lat="44.86325" lon="6.10716">
        <ele>1893.4</ele>
        <time>2024-08-13T14:50:36Z</time>
      </trkpt>
      <trkpt lat="44.86325" lon="6.10716">
        <ele>1893.2</ele>
        <time>2024-08-13T14:50:37Z</time>
      </trkpt>
      <trkpt lat="44.86327" lon="6.10715">
        <ele>1892.8</ele>
        <time>2024-08-13T14:50:38Z</time>
      </trkpt>
      <trkpt lat="44.86327" lon="6.10715">
        <ele>1892.4</ele>
        <time>2024-08-13T14:50:39Z</time>
      </trkpt>
      <trkpt lat="44.8633" lon="6.10714">
        <ele>1892.4</ele>
        <time>2024-08-13T14:50:40Z</time>
      </trkpt>
      <trkpt lat="44.8633" lon="6.10714">
        <ele>1892.4</ele>
        <time>2024-08-13T14:50:41Z</time>
      </trkpt>
      <trkpt lat="44.86332" lon="6.10712">
        <ele>1891.8</ele>
        <time>2024-08-13T14:50:42Z</time>
      </trkpt>
      <trkpt lat="44.86332" lon="6.10712">
        <ele>1891.6</ele>
        <time>2024-08-13T14:50:43Z</time>
      </trkpt>
      <trkpt lat="44.86334" lon="6.1071">
        <ele>1891.4</ele>
        <time>2024-08-13T14:50:44Z</time>
      </trkpt>
      <trkpt lat="44.86334" lon="6.1071">
        <ele>1891.4</ele>
        <time>2024-08-13T14:50:45Z</time>
      </trkpt>
      <trkpt lat="44.86336" lon="6.10708">
        <ele>1891.4</ele>
        <time>2024-08-13T14:50:46Z</time>
      </trkpt>
      <trkpt lat="44.86336" lon="6.10708">
        <ele>1891.2</ele>
        <time>2024-08-13T14:50:47Z</time>
      </trkpt>
      <trkpt lat="44.86339" lon="6.10705">
        <ele>1891.2</ele>
        <time>2024-08-13T14:50:48Z</time>
      </trkpt>
      <trkpt lat="44.86339" lon="6.10705">
        <ele>1891</ele>
        <time>2024-08-13T14:50:49Z</time>
      </trkpt>
      <trkpt lat="44.86341" lon="6.10704">
        <ele>1891</ele>
        <time>2024-08-13T14:50:50Z</time>
      </trkpt>
      <trkpt lat="44.86341" lon="6.10704">
        <ele>1891</ele>
        <time>2024-08-13T14:50:51Z</time>
      </trkpt>
      <trkpt lat="44.86343" lon="6.10702">
        <ele>1891</ele>
        <time>2024-08-13T14:50:52Z</time>
      </trkpt>
      <trkpt lat="44.86343" lon="6.10702">
        <ele>1891.2</ele>
        <time>2024-08-13T14:50:53Z</time>
      </trkpt>
      <trkpt lat="44.86346" lon="6.10701">
        <ele>1891.4</ele>
        <time>2024-08-13T14:50:54Z</time>
      </trkpt>
      <trkpt lat="44.86346" lon="6.10701">
        <ele>1891.6</ele>
        <time>2024-08-13T14:50:55Z</time>
      </trkpt>
      <trkpt lat="44.86349" lon="6.10702">
        <ele>1891.8</ele>
        <time>2024-08-13T14:50:56Z</time>
      </trkpt>
      <trkpt lat="44.86349" lon="6.10702">
        <ele>1892</ele>
        <time>2024-08-13T14:50:57Z</time>
      </trkpt>
      <trkpt lat="44.86351" lon="6.10703">
        <ele>1892</ele>
        <time>2024-08-13T14:50:58Z</time>
      </trkpt>
      <trkpt lat="44.86351" lon="6.10703">
        <ele>1892</ele>
        <time>2024-08-13T14:50:59Z</time>
      </trkpt>
      <trkpt lat="44.86353" lon="6.10702">
        <ele>1892</ele>
        <time>2024-08-13T14:51:00Z</time>
      </trkpt>
      <trkpt lat="44.86353" lon="6.10702">
        <ele>1892.2</ele>
        <time>2024-08-13T14:51:01Z</time>
      </trkpt>
      <trkpt lat="44.86356" lon="6.10701">
        <ele>1892</ele>
        <time>2024-08-13T14:51:02Z</time>
      </trkpt>
      <trkpt lat="44.86356" lon="6.10701">
        <ele>1892</ele>
        <time>2024-08-13T14:51:03Z</time>
      </trkpt>
      <trkpt lat="44.86357" lon="6.107">
        <ele>1892</ele>
        <time>2024-08-13T14:51:04Z</time>
      </trkpt>
      <trkpt lat="44.86357" lon="6.107">
        <ele>1891.8</ele>
        <time>2024-08-13T14:51:05Z</time>
      </trkpt>
      <trkpt lat="44.8636" lon="6.10698">
        <ele>1891.8</ele>
        <time>2024-08-13T14:51:06Z</time>
      </trkpt>
      <trkpt lat="44.8636" lon="6.10698">
        <ele>1891.8</ele>
        <time>2024-08-13T14:51:07Z</time>
      </trkpt>
      <trkpt lat="44.86363" lon="6.10697">
        <ele>1891.4</ele>
        <time>2024-08-13T14:51:08Z</time>
      </trkpt>
      <trkpt lat="44.86363" lon="6.10697">
        <ele>1891.4</ele>
        <time>2024-08-13T14:51:09Z</time>
      </trkpt>
      <trkpt lat="44.86365" lon="6.10696">
        <ele>1891.4</ele>
        <time>2024-08-13T14:51:10Z</time>
      </trkpt>
      <trkpt lat="44.86365" lon="6.10696">
        <ele>1891.8</ele>
        <time>2024-08-13T14:51:11Z</time>
      </trkpt>
      <trkpt lat="44.86367" lon="6.10695">
        <ele>1892.2</ele>
        <time>2024-08-13T14:51:12Z</time>
      </trkpt>
      <trkpt lat="44.86367" lon="6.10695">
        <ele>1892.2</ele>
        <time>2024-08-13T14:51:13Z</time>
      </trkpt>
      <trkpt lat="44.86369" lon="6.10694">
        <ele>1892.4</ele>
        <time>2024-08-13T14:51:14Z</time>
      </trkpt>
      <trkpt lat="44.86369" lon="6.10694">
        <ele>1892.4</ele>
        <time>2024-08-13T14:51:15Z</time>
      </trkpt>
      <trkpt lat="44.86371" lon="6.10692">
        <ele>1892</ele>
        <time>2024-08-13T14:51:16Z</time>
      </trkpt>
      <trkpt lat="44.86371" lon="6.10692">
        <ele>1892</ele>
        <time>2024-08-13T14:51:17Z</time>
      </trkpt>
      <trkpt lat="44.86373" lon="6.1069">
        <ele>1891.6</ele>
        <time>2024-08-13T14:51:18Z</time>
      </trkpt>
      <trkpt lat="44.86373" lon="6.1069">
        <ele>1891.6</ele>
        <time>2024-08-13T14:51:19Z</time>
      </trkpt>
      <trkpt lat="44.86374" lon="6.10687">
        <ele>1891.8</ele>
        <time>2024-08-13T14:51:20Z</time>
      </trkpt>
      <trkpt lat="44.86374" lon="6.10687">
        <ele>1891.6</ele>
        <time>2024-08-13T14:51:21Z</time>
      </trkpt>
      <trkpt lat="44.86374" lon="6.10687">
        <ele>1891.6</ele>
        <time>2024-08-13T14:51:22Z</time>
      </trkpt>
      <trkpt lat="44.86377" lon="6.10684">
        <ele>1891.6</ele>
        <time>2024-08-13T14:51:23Z</time>
      </trkpt>
      <trkpt lat="44.86377" lon="6.10684">
        <ele>1891.4</ele>
        <time>2024-08-13T14:51:24Z</time>
      </trkpt>
      <trkpt lat="44.86379" lon="6.10682">
        <ele>1891.2</ele>
        <time>2024-08-13T14:51:25Z</time>
      </trkpt>
      <trkpt lat="44.86379" lon="6.10682">
        <ele>1891</ele>
        <time>2024-08-13T14:51:26Z</time>
      </trkpt>
      <trkpt lat="44.86381" lon="6.10679">
        <ele>1891</ele>
        <time>2024-08-13T14:51:27Z</time>
      </trkpt>
      <trkpt lat="44.86381" lon="6.10679">
        <ele>1891</ele>
        <time>2024-08-13T14:51:28Z</time>
      </trkpt>
      <trkpt lat="44.86381" lon="6.10677">
        <ele>1890</ele>
        <time>2024-08-13T14:51:29Z</time>
      </trkpt>
      <trkpt lat="44.86381" lon="6.10677">
        <ele>1889.8</ele>
        <time>2024-08-13T14:51:30Z</time>
      </trkpt>
      <trkpt lat="44.86383" lon="6.10676">
        <ele>1889.8</ele>
        <time>2024-08-13T14:51:31Z</time>
      </trkpt>
      <trkpt lat="44.86383" lon="6.10676">
        <ele>1890.2</ele>
        <time>2024-08-13T14:51:32Z</time>
      </trkpt>
      <trkpt lat="44.86385" lon="6.10674">
        <ele>1891</ele>
        <time>2024-08-13T14:51:33Z</time>
      </trkpt>
      <trkpt lat="44.86385" lon="6.10674">
        <ele>1891</ele>
        <time>2024-08-13T14:51:34Z</time>
      </trkpt>
      <trkpt lat="44.86387" lon="6.10671">
        <ele>1891</ele>
        <time>2024-08-13T14:51:35Z</time>
      </trkpt>
      <trkpt lat="44.86387" lon="6.10671">
        <ele>1891.4</ele>
        <time>2024-08-13T14:51:36Z</time>
      </trkpt>
      <trkpt lat="44.86387" lon="6.10671">
        <ele>1891.2</ele>
        <time>2024-08-13T14:51:37Z</time>
      </trkpt>
      <trkpt lat="44.86389" lon="6.10668">
        <ele>1891.2</ele>
        <time>2024-08-13T14:51:38Z</time>
      </trkpt>
      <trkpt lat="44.86389" lon="6.10668">
        <ele>1891.2</ele>
        <time>2024-08-13T14:51:39Z</time>
      </trkpt>
      <trkpt lat="44.86391" lon="6.10665">
        <ele>1891.2</ele>
        <time>2024-08-13T14:51:40Z</time>
      </trkpt>
      <trkpt lat="44.86391" lon="6.10665">
        <ele>1891.2</ele>
        <time>2024-08-13T14:51:41Z</time>
      </trkpt>
      <trkpt lat="44.86393" lon="6.10664">
        <ele>1890.8</ele>
        <time>2024-08-13T14:51:42Z</time>
      </trkpt>
      <trkpt lat="44.86393" lon="6.10664">
        <ele>1890.8</ele>
        <time>2024-08-13T14:51:43Z</time>
      </trkpt>
      <trkpt lat="44.86394" lon="6.10662">
        <ele>1891.6</ele>
        <time>2024-08-13T14:51:44Z</time>
      </trkpt>
      <trkpt lat="44.86394" lon="6.10662">
        <ele>1892</ele>
        <time>2024-08-13T14:51:45Z</time>
      </trkpt>
      <trkpt lat="44.86396" lon="6.10659">
        <ele>1892</ele>
        <time>2024-08-13T14:51:46Z</time>
      </trkpt>
      <trkpt lat="44.86396" lon="6.10659">
        <ele>1891.4</ele>
        <time>2024-08-13T14:51:47Z</time>
      </trkpt>
      <trkpt lat="44.86398" lon="6.10658">
        <ele>1891.2</ele>
        <time>2024-08-13T14:51:48Z</time>
      </trkpt>
      <trkpt lat="44.86398" lon="6.10658">
        <ele>1891</ele>
        <time>2024-08-13T14:51:49Z</time>
      </trkpt>
      <trkpt lat="44.86398" lon="6.10658">
        <ele>1891.6</ele>
        <time>2024-08-13T14:51:50Z</time>
      </trkpt>
      <trkpt lat="44.86399" lon="6.10654">
        <ele>1892.2</ele>
        <time>2024-08-13T14:51:51Z</time>
      </trkpt>
      <trkpt lat="44.86399" lon="6.10654">
        <ele>1893</ele>
        <time>2024-08-13T14:51:52Z</time>
      </trkpt>
      <trkpt lat="44.864" lon="6.10651">
        <ele>1893</ele>
        <time>2024-08-13T14:51:53Z</time>
      </trkpt>
      <trkpt lat="44.864" lon="6.10651">
        <ele>1891.2</ele>
        <time>2024-08-13T14:51:54Z</time>
      </trkpt>
      <trkpt lat="44.864" lon="6.10647">
        <ele>1891</ele>
        <time>2024-08-13T14:51:55Z</time>
      </trkpt>
      <trkpt lat="44.864" lon="6.10647">
        <ele>1891</ele>
        <time>2024-08-13T14:51:56Z</time>
      </trkpt>
      <trkpt lat="44.86401" lon="6.10644">
        <ele>1891</ele>
        <time>2024-08-13T14:51:57Z</time>
      </trkpt>
      <trkpt lat="44.86401" lon="6.10644">
        <ele>1891</ele>
        <time>2024-08-13T14:51:58Z</time>
      </trkpt>
      <trkpt lat="44.86402" lon="6.10642">
        <ele>1891</ele>
        <time>2024-08-13T14:51:59Z</time>
      </trkpt>
      <trkpt lat="44.86402" lon="6.10642">
        <ele>1891</ele>
        <time>2024-08-13T14:52:00Z</time>
      </trkpt>
      <trkpt lat="44.86403" lon="6.10639">
        <ele>1890.2</ele>
        <time>2024-08-13T14:52:01Z</time>
      </trkpt>
      <trkpt lat="44.86403" lon="6.10639">
        <ele>1890.6</ele>
        <time>2024-08-13T14:52:02Z</time>
      </trkpt>
      <trkpt lat="44.86405" lon="6.10637">
        <ele>1890.6</ele>
        <time>2024-08-13T14:52:03Z</time>
      </trkpt>
      <trkpt lat="44.86405" lon="6.10637">
        <ele>1891.2</ele>
        <time>2024-08-13T14:52:04Z</time>
      </trkpt>
      <trkpt lat="44.86405" lon="6.10634">
        <ele>1891.2</ele>
        <time>2024-08-13T14:52:05Z</time>
      </trkpt>
      <trkpt lat="44.86405" lon="6.10634">
        <ele>1891.4</ele>
        <time>2024-08-13T14:52:06Z</time>
      </trkpt>
      <trkpt lat="44.86405" lon="6.10631">
        <ele>1891</ele>
        <time>2024-08-13T14:52:07Z</time>
      </trkpt>
      <trkpt lat="44.86405" lon="6.10631">
        <ele>1891</ele>
        <time>2024-08-13T14:52:08Z</time>
      </trkpt>
      <trkpt lat="44.86405" lon="6.10631">
        <ele>1890.4</ele>
        <time>2024-08-13T14:52:09Z</time>
      </trkpt>
      <trkpt lat="44.86406" lon="6.10629">
        <ele>1889.4</ele>
        <time>2024-08-13T14:52:10Z</time>
      </trkpt>
      <trkpt lat="44.86406" lon="6.10629">
        <ele>1889.2</ele>
        <time>2024-08-13T14:52:11Z</time>
      </trkpt>
      <trkpt lat="44.86406" lon="6.10626">
        <ele>1889.2</ele>
        <time>2024-08-13T14:52:12Z</time>
      </trkpt>
      <trkpt lat="44.86406" lon="6.10626">
        <ele>1889.2</ele>
        <time>2024-08-13T14:52:13Z</time>
      </trkpt>
      <trkpt lat="44.86408" lon="6.10623">
        <ele>1888.8</ele>
        <time>2024-08-13T14:52:14Z</time>
      </trkpt>
      <trkpt lat="44.86408" lon="6.10623">
        <ele>1888.4</ele>
        <time>2024-08-13T14:52:15Z</time>
      </trkpt>
      <trkpt lat="44.86409" lon="6.1062">
        <ele>1888.4</ele>
        <time>2024-08-13T14:52:16Z</time>
      </trkpt>
      <trkpt lat="44.86409" lon="6.1062">
        <ele>1888.4</ele>
        <time>2024-08-13T14:52:17Z</time>
      </trkpt>
      <trkpt lat="44.86411" lon="6.10618">
        <ele>1888.4</ele>
        <time>2024-08-13T14:52:18Z</time>
      </trkpt>
      <trkpt lat="44.86411" lon="6.10618">
        <ele>1888.4</ele>
        <time>2024-08-13T14:52:19Z</time>
      </trkpt>
      <trkpt lat="44.86412" lon="6.10616">
        <ele>1888.4</ele>
        <time>2024-08-13T14:52:20Z</time>
      </trkpt>
      <trkpt lat="44.86412" lon="6.10616">
        <ele>1888.8</ele>
        <time>2024-08-13T14:52:21Z</time>
      </trkpt>
      <trkpt lat="44.86414" lon="6.10613">
        <ele>1888.8</ele>
        <time>2024-08-13T14:52:22Z</time>
      </trkpt>
      <trkpt lat="44.86414" lon="6.10613">
        <ele>1888.8</ele>
        <time>2024-08-13T14:52:23Z</time>
      </trkpt>
      <trkpt lat="44.86415" lon="6.10611">
        <ele>1888.8</ele>
        <time>2024-08-13T14:52:24Z</time>
      </trkpt>
      <trkpt lat="44.86415" lon="6.10611">
        <ele>1888.8</ele>
        <time>2024-08-13T14:52:25Z</time>
      </trkpt>
      <trkpt lat="44.86415" lon="6.10611">
        <ele>1888.6</ele>
        <time>2024-08-13T14:52:26Z</time>
      </trkpt>
      <trkpt lat="44.86416" lon="6.10608">
        <ele>1888.6</ele>
        <time>2024-08-13T14:52:27Z</time>
      </trkpt>
      <trkpt lat="44.86416" lon="6.10608">
        <ele>1888.4</ele>
        <time>2024-08-13T14:52:28Z</time>
      </trkpt>
      <trkpt lat="44.86416" lon="6.10605">
        <ele>1888.4</ele>
        <time>2024-08-13T14:52:29Z</time>
      </trkpt>
      <trkpt lat="44.86416" lon="6.10605">
        <ele>1888.6</ele>
        <time>2024-08-13T14:52:30Z</time>
      </trkpt>
      <trkpt lat="44.86415" lon="6.10602">
        <ele>1888.6</ele>
        <time>2024-08-13T14:52:31Z</time>
      </trkpt>
      <trkpt lat="44.86415" lon="6.10602">
        <ele>1888.4</ele>
        <time>2024-08-13T14:52:32Z</time>
      </trkpt>
      <trkpt lat="44.86415" lon="6.10599">
        <ele>1887.6</ele>
        <time>2024-08-13T14:52:33Z</time>
      </trkpt>
      <trkpt lat="44.86415" lon="6.10599">
        <ele>1887.6</ele>
        <time>2024-08-13T14:52:34Z</time>
      </trkpt>
      <trkpt lat="44.86416" lon="6.10596">
        <ele>1887.4</ele>
        <time>2024-08-13T14:52:35Z</time>
      </trkpt>
      <trkpt lat="44.86416" lon="6.10596">
        <ele>1887.6</ele>
        <time>2024-08-13T14:52:36Z</time>
      </trkpt>
      <trkpt lat="44.86416" lon="6.10592">
        <ele>1887.4</ele>
        <time>2024-08-13T14:52:37Z</time>
      </trkpt>
      <trkpt lat="44.86416" lon="6.10592">
        <ele>1887.4</ele>
        <time>2024-08-13T14:52:38Z</time>
      </trkpt>
      <trkpt lat="44.86417" lon="6.10589">
        <ele>1887</ele>
        <time>2024-08-13T14:52:39Z</time>
      </trkpt>
      <trkpt lat="44.86417" lon="6.10589">
        <ele>1887</ele>
        <time>2024-08-13T14:52:40Z</time>
      </trkpt>
      <trkpt lat="44.86418" lon="6.10586">
        <ele>1886.6</ele>
        <time>2024-08-13T14:52:41Z</time>
      </trkpt>
      <trkpt lat="44.86418" lon="6.10586">
        <ele>1886.6</ele>
        <time>2024-08-13T14:52:42Z</time>
      </trkpt>
      <trkpt lat="44.86419" lon="6.10583">
        <ele>1886.6</ele>
        <time>2024-08-13T14:52:43Z</time>
      </trkpt>
      <trkpt lat="44.86419" lon="6.10583">
        <ele>1886</ele>
        <time>2024-08-13T14:52:44Z</time>
      </trkpt>
      <trkpt lat="44.86421" lon="6.1058">
        <ele>1885.6</ele>
        <time>2024-08-13T14:52:45Z</time>
      </trkpt>
      <trkpt lat="44.86421" lon="6.1058">
        <ele>1885.6</ele>
        <time>2024-08-13T14:52:46Z</time>
      </trkpt>
      <trkpt lat="44.86421" lon="6.1058">
        <ele>1885.6</ele>
        <time>2024-08-13T14:52:47Z</time>
      </trkpt>
      <trkpt lat="44.8642" lon="6.10576">
        <ele>1885.6</ele>
        <time>2024-08-13T14:52:48Z</time>
      </trkpt>
      <trkpt lat="44.8642" lon="6.10576">
        <ele>1885.6</ele>
        <time>2024-08-13T14:52:49Z</time>
      </trkpt>
      <trkpt lat="44.8642" lon="6.10576">
        <ele>1885.2</ele>
        <time>2024-08-13T14:52:50Z</time>
      </trkpt>
      <trkpt lat="44.8642" lon="6.10573">
        <ele>1885</ele>
        <time>2024-08-13T14:52:51Z</time>
      </trkpt>
      <trkpt lat="44.8642" lon="6.10573">
        <ele>1884.8</ele>
        <time>2024-08-13T14:52:52Z</time>
      </trkpt>
      <trkpt lat="44.86419" lon="6.1057">
        <ele>1884.4</ele>
        <time>2024-08-13T14:52:53Z</time>
      </trkpt>
      <trkpt lat="44.86419" lon="6.1057">
        <ele>1884.4</ele>
        <time>2024-08-13T14:52:54Z</time>
      </trkpt>
      <trkpt lat="44.8642" lon="6.10568">
        <ele>1884.4</ele>
        <time>2024-08-13T14:52:55Z</time>
      </trkpt>
      <trkpt lat="44.8642" lon="6.10568">
        <ele>1884.2</ele>
        <time>2024-08-13T14:52:56Z</time>
      </trkpt>
      <trkpt lat="44.86421" lon="6.10566">
        <ele>1884.2</ele>
        <time>2024-08-13T14:52:57Z</time>
      </trkpt>
      <trkpt lat="44.86421" lon="6.10566">
        <ele>1884</ele>
        <time>2024-08-13T14:52:58Z</time>
      </trkpt>
      <trkpt lat="44.86421" lon="6.10563">
        <ele>1884</ele>
        <time>2024-08-13T14:52:59Z</time>
      </trkpt>
      <trkpt lat="44.86421" lon="6.10563">
        <ele>1884</ele>
        <time>2024-08-13T14:53:00Z</time>
      </trkpt>
      <trkpt lat="44.86423" lon="6.10561">
        <ele>1883.6</ele>
        <time>2024-08-13T14:53:01Z</time>
      </trkpt>
      <trkpt lat="44.86423" lon="6.10561">
        <ele>1883.6</ele>
        <time>2024-08-13T14:53:02Z</time>
      </trkpt>
      <trkpt lat="44.86423" lon="6.10561">
        <ele>1883.6</ele>
        <time>2024-08-13T14:53:03Z</time>
      </trkpt>
      <trkpt lat="44.86423" lon="6.10561">
        <ele>1883.4</ele>
        <time>2024-08-13T14:53:04Z</time>
      </trkpt>
      <trkpt lat="44.86424" lon="6.10559">
        <ele>1883</ele>
        <time>2024-08-13T14:53:05Z</time>
      </trkpt>
      <trkpt lat="44.86424" lon="6.10559">
        <ele>1883</ele>
        <time>2024-08-13T14:53:06Z</time>
      </trkpt>
      <trkpt lat="44.86426" lon="6.10558">
        <ele>1883</ele>
        <time>2024-08-13T14:53:07Z</time>
      </trkpt>
      <trkpt lat="44.86426" lon="6.10558">
        <ele>1883</ele>
        <time>2024-08-13T14:53:08Z</time>
      </trkpt>
      <trkpt lat="44.86428" lon="6.10558">
        <ele>1882.8</ele>
        <time>2024-08-13T14:53:09Z</time>
      </trkpt>
      <trkpt lat="44.86428" lon="6.10558">
        <ele>1882.8</ele>
        <time>2024-08-13T14:53:10Z</time>
      </trkpt>
      <trkpt lat="44.86429" lon="6.10556">
        <ele>1882.6</ele>
        <time>2024-08-13T14:53:11Z</time>
      </trkpt>
      <trkpt lat="44.86429" lon="6.10556">
        <ele>1882.6</ele>
        <time>2024-08-13T14:53:12Z</time>
      </trkpt>
      <trkpt lat="44.86431" lon="6.10553">
        <ele>1882.6</ele>
        <time>2024-08-13T14:53:13Z</time>
      </trkpt>
      <trkpt lat="44.86431" lon="6.10553">
        <ele>1882.6</ele>
        <time>2024-08-13T14:53:14Z</time>
      </trkpt>
      <trkpt lat="44.86433" lon="6.10554">
        <ele>1882.4</ele>
        <time>2024-08-13T14:53:15Z</time>
      </trkpt>
      <trkpt lat="44.86433" lon="6.10554">
        <ele>1882.2</ele>
        <time>2024-08-13T14:53:16Z</time>
      </trkpt>
      <trkpt lat="44.86435" lon="6.10554">
        <ele>1882</ele>
        <time>2024-08-13T14:53:17Z</time>
      </trkpt>
      <trkpt lat="44.86435" lon="6.10554">
        <ele>1881.8</ele>
        <time>2024-08-13T14:53:18Z</time>
      </trkpt>
      <trkpt lat="44.86437" lon="6.10553">
        <ele>1881.6</ele>
        <time>2024-08-13T14:53:19Z</time>
      </trkpt>
      <trkpt lat="44.86437" lon="6.10553">
        <ele>1881.6</ele>
        <time>2024-08-13T14:53:20Z</time>
      </trkpt>
      <trkpt lat="44.86437" lon="6.10553">
        <ele>1881.6</ele>
        <time>2024-08-13T14:53:21Z</time>
      </trkpt>
      <trkpt lat="44.86438" lon="6.10551">
        <ele>1881</ele>
        <time>2024-08-13T14:53:22Z</time>
      </trkpt>
      <trkpt lat="44.86438" lon="6.10551">
        <ele>1881</ele>
        <time>2024-08-13T14:53:23Z</time>
      </trkpt>
      <trkpt lat="44.86441" lon="6.1055">
        <ele>1880.8</ele>
        <time>2024-08-13T14:53:24Z</time>
      </trkpt>
      <trkpt lat="44.86441" lon="6.1055">
        <ele>1880.8</ele>
        <time>2024-08-13T14:53:25Z</time>
      </trkpt>
      <trkpt lat="44.86441" lon="6.1055">
        <ele>1880.8</ele>
        <time>2024-08-13T14:53:26Z</time>
      </trkpt>
      <trkpt lat="44.86443" lon="6.10549">
        <ele>1880.8</ele>
        <time>2024-08-13T14:53:27Z</time>
      </trkpt>
      <trkpt lat="44.86443" lon="6.10549">
        <ele>1880.6</ele>
        <time>2024-08-13T14:53:28Z</time>
      </trkpt>
      <trkpt lat="44.86443" lon="6.10549">
        <ele>1880.4</ele>
        <time>2024-08-13T14:53:29Z</time>
      </trkpt>
      <trkpt lat="44.86445" lon="6.10548">
        <ele>1880.4</ele>
        <time>2024-08-13T14:53:30Z</time>
      </trkpt>
      <trkpt lat="44.86445" lon="6.10548">
        <ele>1880.4</ele>
        <time>2024-08-13T14:53:31Z</time>
      </trkpt>
      <trkpt lat="44.86445" lon="6.10548">
        <ele>1880.4</ele>
        <time>2024-08-13T14:53:32Z</time>
      </trkpt>
      <trkpt lat="44.86445" lon="6.10548">
        <ele>1880.4</ele>
        <time>2024-08-13T14:53:33Z</time>
      </trkpt>
      <trkpt lat="44.86445" lon="6.10545">
        <ele>1880</ele>
        <time>2024-08-13T14:53:34Z</time>
      </trkpt>
      <trkpt lat="44.86445" lon="6.10545">
        <ele>1880</ele>
        <time>2024-08-13T14:53:35Z</time>
      </trkpt>
      <trkpt lat="44.86445" lon="6.10545">
        <ele>1879.8</ele>
        <time>2024-08-13T14:53:36Z</time>
      </trkpt>
      <trkpt lat="44.86446" lon="6.10543">
        <ele>1879.2</ele>
        <time>2024-08-13T14:53:37Z</time>
      </trkpt>
      <trkpt lat="44.86446" lon="6.10543">
        <ele>1879.2</ele>
        <time>2024-08-13T14:53:38Z</time>
      </trkpt>
      <trkpt lat="44.86448" lon="6.10542">
        <ele>1879.2</ele>
        <time>2024-08-13T14:53:39Z</time>
      </trkpt>
      <trkpt lat="44.86448" lon="6.10542">
        <ele>1878.6</ele>
        <time>2024-08-13T14:53:40Z</time>
      </trkpt>
      <trkpt lat="44.86448" lon="6.10542">
        <ele>1878.2</ele>
        <time>2024-08-13T14:53:41Z</time>
      </trkpt>
      <trkpt lat="44.86451" lon="6.1054">
        <ele>1878.2</ele>
        <time>2024-08-13T14:53:42Z</time>
      </trkpt>
      <trkpt lat="44.86451" lon="6.1054">
        <ele>1878.2</ele>
        <time>2024-08-13T14:53:43Z</time>
      </trkpt>
      <trkpt lat="44.86451" lon="6.1054">
        <ele>1878.2</ele>
        <time>2024-08-13T14:53:44Z</time>
      </trkpt>
      <trkpt lat="44.86453" lon="6.10537">
        <ele>1878.2</ele>
        <time>2024-08-13T14:53:45Z</time>
      </trkpt>
      <trkpt lat="44.86453" lon="6.10537">
        <ele>1878.2</ele>
        <time>2024-08-13T14:53:46Z</time>
      </trkpt>
      <trkpt lat="44.86453" lon="6.10537">
        <ele>1877.6</ele>
        <time>2024-08-13T14:53:47Z</time>
      </trkpt>
      <trkpt lat="44.86454" lon="6.10534">
        <ele>1877.4</ele>
        <time>2024-08-13T14:53:48Z</time>
      </trkpt>
      <trkpt lat="44.86454" lon="6.10534">
        <ele>1877.4</ele>
        <time>2024-08-13T14:53:49Z</time>
      </trkpt>
      <trkpt lat="44.86454" lon="6.10534">
        <ele>1877.4</ele>
        <time>2024-08-13T14:53:50Z</time>
      </trkpt>
      <trkpt lat="44.86455" lon="6.10532">
        <ele>1877.2</ele>
        <time>2024-08-13T14:53:51Z</time>
      </trkpt>
      <trkpt lat="44.86455" lon="6.10532">
        <ele>1877.2</ele>
        <time>2024-08-13T14:53:52Z</time>
      </trkpt>
      <trkpt lat="44.86455" lon="6.10532">
        <ele>1877.2</ele>
        <time>2024-08-13T14:53:53Z</time>
      </trkpt>
      <trkpt lat="44.86457" lon="6.1053">
        <ele>1877.4</ele>
        <time>2024-08-13T14:53:54Z</time>
      </trkpt>
      <trkpt lat="44.86457" lon="6.1053">
        <ele>1877.4</ele>
        <time>2024-08-13T14:53:55Z</time>
      </trkpt>
      <trkpt lat="44.86457" lon="6.1053">
        <ele>1877.2</ele>
        <time>2024-08-13T14:53:56Z</time>
      </trkpt>
      <trkpt lat="44.86458" lon="6.10526">
        <ele>1877.2</ele>
        <time>2024-08-13T14:53:57Z</time>
      </trkpt>
      <trkpt lat="44.86458" lon="6.10526">
        <ele>1877.2</ele>
        <time>2024-08-13T14:53:58Z</time>
      </trkpt>
      <trkpt lat="44.86459" lon="6.10523">
        <ele>1877.2</ele>
        <time>2024-08-13T14:53:59Z</time>
      </trkpt>
      <trkpt lat="44.86459" lon="6.10523">
        <ele>1876.8</ele>
        <time>2024-08-13T14:54:00Z</time>
      </trkpt>
      <trkpt lat="44.86459" lon="6.1052">
        <ele>1876.8</ele>
        <time>2024-08-13T14:54:01Z</time>
      </trkpt>
      <trkpt lat="44.86459" lon="6.1052">
        <ele>1876.6</ele>
        <time>2024-08-13T14:54:02Z</time>
      </trkpt>
      <trkpt lat="44.8646" lon="6.10517">
        <ele>1876.6</ele>
        <time>2024-08-13T14:54:03Z</time>
      </trkpt>
      <trkpt lat="44.8646" lon="6.10517">
        <ele>1876.2</ele>
        <time>2024-08-13T14:54:04Z</time>
      </trkpt>
      <trkpt lat="44.86461" lon="6.10514">
        <ele>1876.2</ele>
        <time>2024-08-13T14:54:05Z</time>
      </trkpt>
      <trkpt lat="44.86461" lon="6.10514">
        <ele>1876.2</ele>
        <time>2024-08-13T14:54:06Z</time>
      </trkpt>
      <trkpt lat="44.86461" lon="6.10511">
        <ele>1876.2</ele>
        <time>2024-08-13T14:54:07Z</time>
      </trkpt>
      <trkpt lat="44.86461" lon="6.10511">
        <ele>1876</ele>
        <time>2024-08-13T14:54:08Z</time>
      </trkpt>
      <trkpt lat="44.86461" lon="6.10508">
        <ele>1876</ele>
        <time>2024-08-13T14:54:09Z</time>
      </trkpt>
      <trkpt lat="44.86461" lon="6.10508">
        <ele>1875.8</ele>
        <time>2024-08-13T14:54:10Z</time>
      </trkpt>
      <trkpt lat="44.86461" lon="6.10506">
        <ele>1875.6</ele>
        <time>2024-08-13T14:54:11Z</time>
      </trkpt>
      <trkpt lat="44.86461" lon="6.10506">
        <ele>1875.6</ele>
        <time>2024-08-13T14:54:12Z</time>
      </trkpt>
      <trkpt lat="44.86461" lon="6.10502">
        <ele>1875.6</ele>
        <time>2024-08-13T14:54:13Z</time>
      </trkpt>
      <trkpt lat="44.86461" lon="6.10502">
        <ele>1875.6</ele>
        <time>2024-08-13T14:54:14Z</time>
      </trkpt>
      <trkpt lat="44.8646" lon="6.10499">
        <ele>1875.6</ele>
        <time>2024-08-13T14:54:15Z</time>
      </trkpt>
      <trkpt lat="44.8646" lon="6.10499">
        <ele>1875.4</ele>
        <time>2024-08-13T14:54:16Z</time>
      </trkpt>
      <trkpt lat="44.8646" lon="6.10499">
        <ele>1875.4</ele>
        <time>2024-08-13T14:54:17Z</time>
      </trkpt>
      <trkpt lat="44.8646" lon="6.10495">
        <ele>1875.4</ele>
        <time>2024-08-13T14:54:18Z</time>
      </trkpt>
      <trkpt lat="44.8646" lon="6.10495">
        <ele>1875.6</ele>
        <time>2024-08-13T14:54:19Z</time>
      </trkpt>
      <trkpt lat="44.8646" lon="6.10492">
        <ele>1875.6</ele>
        <time>2024-08-13T14:54:20Z</time>
      </trkpt>
      <trkpt lat="44.8646" lon="6.10492">
        <ele>1875.6</ele>
        <time>2024-08-13T14:54:21Z</time>
      </trkpt>
      <trkpt lat="44.86459" lon="6.10489">
        <ele>1875.4</ele>
        <time>2024-08-13T14:54:22Z</time>
      </trkpt>
      <trkpt lat="44.86459" lon="6.10489">
        <ele>1875.2</ele>
        <time>2024-08-13T14:54:23Z</time>
      </trkpt>
      <trkpt lat="44.86459" lon="6.10486">
        <ele>1875.2</ele>
        <time>2024-08-13T14:54:24Z</time>
      </trkpt>
      <trkpt lat="44.86459" lon="6.10486">
        <ele>1875.2</ele>
        <time>2024-08-13T14:54:25Z</time>
      </trkpt>
      <trkpt lat="44.86459" lon="6.10486">
        <ele>1875</ele>
        <time>2024-08-13T14:54:26Z</time>
      </trkpt>
      <trkpt lat="44.8646" lon="6.10484">
        <ele>1874.8</ele>
        <time>2024-08-13T14:54:27Z</time>
      </trkpt>
      <trkpt lat="44.8646" lon="6.10484">
        <ele>1874.4</ele>
        <time>2024-08-13T14:54:28Z</time>
      </trkpt>
      <trkpt lat="44.8646" lon="6.10484">
        <ele>1874.4</ele>
        <time>2024-08-13T14:54:29Z</time>
      </trkpt>
      <trkpt lat="44.8646" lon="6.10484">
        <ele>1874.4</ele>
        <time>2024-08-13T14:54:30Z</time>
      </trkpt>
      <trkpt lat="44.86462" lon="6.10482">
        <ele>1874.4</ele>
        <time>2024-08-13T14:54:31Z</time>
      </trkpt>
      <trkpt lat="44.86462" lon="6.10482">
        <ele>1874.6</ele>
        <time>2024-08-13T14:54:32Z</time>
      </trkpt>
      <trkpt lat="44.86464" lon="6.10481">
        <ele>1874.6</ele>
        <time>2024-08-13T14:54:33Z</time>
      </trkpt>
      <trkpt lat="44.86464" lon="6.10481">
        <ele>1874.4</ele>
        <time>2024-08-13T14:54:34Z</time>
      </trkpt>
      <trkpt lat="44.86466" lon="6.1048">
        <ele>1873.8</ele>
        <time>2024-08-13T14:54:35Z</time>
      </trkpt>
      <trkpt lat="44.86466" lon="6.1048">
        <ele>1873.6</ele>
        <time>2024-08-13T14:54:36Z</time>
      </trkpt>
      <trkpt lat="44.86468" lon="6.10481">
        <ele>1873.4</ele>
        <time>2024-08-13T14:54:37Z</time>
      </trkpt>
      <trkpt lat="44.86468" lon="6.10481">
        <ele>1873.4</ele>
        <time>2024-08-13T14:54:38Z</time>
      </trkpt>
      <trkpt lat="44.8647" lon="6.10482">
        <ele>1873.4</ele>
        <time>2024-08-13T14:54:39Z</time>
      </trkpt>
      <trkpt lat="44.8647" lon="6.10482">
        <ele>1873.2</ele>
        <time>2024-08-13T14:54:40Z</time>
      </trkpt>
      <trkpt lat="44.86472" lon="6.10482">
        <ele>1873</ele>
        <time>2024-08-13T14:54:41Z</time>
      </trkpt>
      <trkpt lat="44.86472" lon="6.10482">
        <ele>1873</ele>
        <time>2024-08-13T14:54:42Z</time>
      </trkpt>
      <trkpt lat="44.86472" lon="6.10482">
        <ele>1873.2</ele>
        <time>2024-08-13T14:54:43Z</time>
      </trkpt>
      <trkpt lat="44.86473" lon="6.1048">
        <ele>1873.2</ele>
        <time>2024-08-13T14:54:44Z</time>
      </trkpt>
      <trkpt lat="44.86473" lon="6.1048">
        <ele>1873</ele>
        <time>2024-08-13T14:54:45Z</time>
      </trkpt>
      <trkpt lat="44.86474" lon="6.10477">
        <ele>1872.8</ele>
        <time>2024-08-13T14:54:46Z</time>
      </trkpt>
      <trkpt lat="44.86474" lon="6.10477">
        <ele>1872.6</ele>
        <time>2024-08-13T14:54:47Z</time>
      </trkpt>
      <trkpt lat="44.86476" lon="6.10474">
        <ele>1871.8</ele>
        <time>2024-08-13T14:54:48Z</time>
      </trkpt>
      <trkpt lat="44.86476" lon="6.10474">
        <ele>1871.6</ele>
        <time>2024-08-13T14:54:49Z</time>
      </trkpt>
      <trkpt lat="44.86477" lon="6.1047">
        <ele>1871.6</ele>
        <time>2024-08-13T14:54:50Z</time>
      </trkpt>
      <trkpt lat="44.86477" lon="6.1047">
        <ele>1871.8</ele>
        <time>2024-08-13T14:54:51Z</time>
      </trkpt>
      <trkpt lat="44.86477" lon="6.10467">
        <ele>1871.8</ele>
        <time>2024-08-13T14:54:52Z</time>
      </trkpt>
      <trkpt lat="44.86477" lon="6.10467">
        <ele>1871.4</ele>
        <time>2024-08-13T14:54:53Z</time>
      </trkpt>
      <trkpt lat="44.86478" lon="6.10464">
        <ele>1871.4</ele>
        <time>2024-08-13T14:54:54Z</time>
      </trkpt>
      <trkpt lat="44.86478" lon="6.10464">
        <ele>1871.4</ele>
        <time>2024-08-13T14:54:55Z</time>
      </trkpt>
      <trkpt lat="44.86478" lon="6.10461">
        <ele>1871.4</ele>
        <time>2024-08-13T14:54:56Z</time>
      </trkpt>
      <trkpt lat="44.86478" lon="6.10461">
        <ele>1870.8</ele>
        <time>2024-08-13T14:54:57Z</time>
      </trkpt>
      <trkpt lat="44.86477" lon="6.10458">
        <ele>1870.8</ele>
        <time>2024-08-13T14:54:58Z</time>
      </trkpt>
      <trkpt lat="44.86477" lon="6.10458">
        <ele>1871</ele>
        <time>2024-08-13T14:54:59Z</time>
      </trkpt>
      <trkpt lat="44.86475" lon="6.10455">
        <ele>1871</ele>
        <time>2024-08-13T14:55:00Z</time>
      </trkpt>
      <trkpt lat="44.86475" lon="6.10455">
        <ele>1871</ele>
        <time>2024-08-13T14:55:01Z</time>
      </trkpt>
      <trkpt lat="44.86473" lon="6.10453">
        <ele>1871.6</ele>
        <time>2024-08-13T14:55:02Z</time>
      </trkpt>
      <trkpt lat="44.86473" lon="6.10453">
        <ele>1871.6</ele>
        <time>2024-08-13T14:55:03Z</time>
      </trkpt>
      <trkpt lat="44.86471" lon="6.10451">
        <ele>1871.6</ele>
        <time>2024-08-13T14:55:04Z</time>
      </trkpt>
      <trkpt lat="44.86471" lon="6.10451">
        <ele>1871.4</ele>
        <time>2024-08-13T14:55:05Z</time>
      </trkpt>
      <trkpt lat="44.86472" lon="6.10449">
        <ele>1870.8</ele>
        <time>2024-08-13T14:55:06Z</time>
      </trkpt>
      <trkpt lat="44.86472" lon="6.10449">
        <ele>1870.6</ele>
        <time>2024-08-13T14:55:07Z</time>
      </trkpt>
      <trkpt lat="44.86475" lon="6.10448">
        <ele>1869.8</ele>
        <time>2024-08-13T14:55:08Z</time>
      </trkpt>
      <trkpt lat="44.86475" lon="6.10448">
        <ele>1869</ele>
        <time>2024-08-13T14:55:09Z</time>
      </trkpt>
      <trkpt lat="44.86475" lon="6.10448">
        <ele>1868.6</ele>
        <time>2024-08-13T14:55:10Z</time>
      </trkpt>
      <trkpt lat="44.86477" lon="6.10447">
        <ele>1868.4</ele>
        <time>2024-08-13T14:55:11Z</time>
      </trkpt>
      <trkpt lat="44.86477" lon="6.10447">
        <ele>1868</ele>
        <time>2024-08-13T14:55:12Z</time>
      </trkpt>
      <trkpt lat="44.86477" lon="6.10447">
        <ele>1868</ele>
        <time>2024-08-13T14:55:13Z</time>
      </trkpt>
      <trkpt lat="44.86477" lon="6.10444">
        <ele>1868</ele>
        <time>2024-08-13T14:55:14Z</time>
      </trkpt>
      <trkpt lat="44.86477" lon="6.10444">
        <ele>1868.4</ele>
        <time>2024-08-13T14:55:15Z</time>
      </trkpt>
      <trkpt lat="44.86477" lon="6.10444">
        <ele>1868.4</ele>
        <time>2024-08-13T14:55:16Z</time>
      </trkpt>
      <trkpt lat="44.86479" lon="6.10443">
        <ele>1867.8</ele>
        <time>2024-08-13T14:55:17Z</time>
      </trkpt>
      <trkpt lat="44.86479" lon="6.10443">
        <ele>1866.6</ele>
        <time>2024-08-13T14:55:18Z</time>
      </trkpt>
      <trkpt lat="44.86479" lon="6.10443">
        <ele>1866.6</ele>
        <time>2024-08-13T14:55:19Z</time>
      </trkpt>
      <trkpt lat="44.86482" lon="6.10442">
        <ele>1866.6</ele>
        <time>2024-08-13T14:55:20Z</time>
      </trkpt>
      <trkpt lat="44.86482" lon="6.10442">
        <ele>1866.6</ele>
        <time>2024-08-13T14:55:21Z</time>
      </trkpt>
      <trkpt lat="44.86483" lon="6.1044">
        <ele>1866.6</ele>
        <time>2024-08-13T14:55:22Z</time>
      </trkpt>
      <trkpt lat="44.86483" lon="6.1044">
        <ele>1866.2</ele>
        <time>2024-08-13T14:55:23Z</time>
      </trkpt>
      <trkpt lat="44.86484" lon="6.10438">
        <ele>1866</ele>
        <time>2024-08-13T14:55:24Z</time>
      </trkpt>
      <trkpt lat="44.86484" lon="6.10438">
        <ele>1865.8</ele>
        <time>2024-08-13T14:55:25Z</time>
      </trkpt>
      <trkpt lat="44.86485" lon="6.10435">
        <ele>1865.4</ele>
        <time>2024-08-13T14:55:26Z</time>
      </trkpt>
      <trkpt lat="44.86485" lon="6.10435">
        <ele>1864.8</ele>
        <time>2024-08-13T14:55:27Z</time>
      </trkpt>
      <trkpt lat="44.86485" lon="6.10435">
        <ele>1864.2</ele>
        <time>2024-08-13T14:55:28Z</time>
      </trkpt>
      <trkpt lat="44.86485" lon="6.10431">
        <ele>1863.8</ele>
        <time>2024-08-13T14:55:29Z</time>
      </trkpt>
      <trkpt lat="44.86485" lon="6.10431">
        <ele>1863.8</ele>
        <time>2024-08-13T14:55:30Z</time>
      </trkpt>
      <trkpt lat="44.86485" lon="6.10431">
        <ele>1864</ele>
        <time>2024-08-13T14:55:31Z</time>
      </trkpt>
      <trkpt lat="44.86483" lon="6.10428">
        <ele>1864.4</ele>
        <time>2024-08-13T14:55:32Z</time>
      </trkpt>
      <trkpt lat="44.86483" lon="6.10428">
        <ele>1864.4</ele>
        <time>2024-08-13T14:55:33Z</time>
      </trkpt>
      <trkpt lat="44.86482" lon="6.10425">
        <ele>1863.8</ele>
        <time>2024-08-13T14:55:34Z</time>
      </trkpt>
      <trkpt lat="44.86482" lon="6.10425">
        <ele>1863.4</ele>
        <time>2024-08-13T14:55:35Z</time>
      </trkpt>
      <trkpt lat="44.86481" lon="6.10423">
        <ele>1863</ele>
        <time>2024-08-13T14:55:36Z</time>
      </trkpt>
      <trkpt lat="44.86481" lon="6.10423">
        <ele>1862.8</ele>
        <time>2024-08-13T14:55:37Z</time>
      </trkpt>
      <trkpt lat="44.86481" lon="6.10423">
        <ele>1862.6</ele>
        <time>2024-08-13T14:55:38Z</time>
      </trkpt>
      <trkpt lat="44.86481" lon="6.10423">
        <ele>1862.2</ele>
        <time>2024-08-13T14:55:39Z</time>
      </trkpt>
      <trkpt lat="44.8648" lon="6.1042">
        <ele>1862</ele>
        <time>2024-08-13T14:55:40Z</time>
      </trkpt>
      <trkpt lat="44.8648" lon="6.1042">
        <ele>1861.8</ele>
        <time>2024-08-13T14:55:41Z</time>
      </trkpt>
      <trkpt lat="44.8648" lon="6.1042">
        <ele>1861.4</ele>
        <time>2024-08-13T14:55:42Z</time>
      </trkpt>
      <trkpt lat="44.86479" lon="6.10417">
        <ele>1861</ele>
        <time>2024-08-13T14:55:43Z</time>
      </trkpt>
      <trkpt lat="44.86479" lon="6.10417">
        <ele>1861</ele>
        <time>2024-08-13T14:55:44Z</time>
      </trkpt>
      <trkpt lat="44.86479" lon="6.10417">
        <ele>1860.8</ele>
        <time>2024-08-13T14:55:45Z</time>
      </trkpt>
      <trkpt lat="44.86478" lon="6.10414">
        <ele>1860.8</ele>
        <time>2024-08-13T14:55:46Z</time>
      </trkpt>
      <trkpt lat="44.86478" lon="6.10414">
        <ele>1860.6</ele>
        <time>2024-08-13T14:55:47Z</time>
      </trkpt>
      <trkpt lat="44.8648" lon="6.10412">
        <ele>1860.2</ele>
        <time>2024-08-13T14:55:48Z</time>
      </trkpt>
      <trkpt lat="44.8648" lon="6.10412">
        <ele>1859.8</ele>
        <time>2024-08-13T14:55:49Z</time>
      </trkpt>
      <trkpt lat="44.8648" lon="6.10412">
        <ele>1859.4</ele>
        <time>2024-08-13T14:55:50Z</time>
      </trkpt>
      <trkpt lat="44.8648" lon="6.10412">
        <ele>1859</ele>
        <time>2024-08-13T14:55:51Z</time>
      </trkpt>
      <trkpt lat="44.86481" lon="6.1041">
        <ele>1858.6</ele>
        <time>2024-08-13T14:55:52Z</time>
      </trkpt>
      <trkpt lat="44.86481" lon="6.1041">
        <ele>1858.2</ele>
        <time>2024-08-13T14:55:53Z</time>
      </trkpt>
      <trkpt lat="44.86481" lon="6.1041">
        <ele>1858.2</ele>
        <time>2024-08-13T14:55:54Z</time>
      </trkpt>
      <trkpt lat="44.86481" lon="6.1041">
        <ele>1858.2</ele>
        <time>2024-08-13T14:55:55Z</time>
      </trkpt>
      <trkpt lat="44.8648" lon="6.10407">
        <ele>1857.8</ele>
        <time>2024-08-13T14:55:56Z</time>
      </trkpt>
      <trkpt lat="44.8648" lon="6.10407">
        <ele>1857.2</ele>
        <time>2024-08-13T14:55:57Z</time>
      </trkpt>
      <trkpt lat="44.8648" lon="6.10407">
        <ele>1857</ele>
        <time>2024-08-13T14:55:58Z</time>
      </trkpt>
      <trkpt lat="44.86477" lon="6.10406">
        <ele>1857</ele>
        <time>2024-08-13T14:55:59Z</time>
      </trkpt>
      <trkpt lat="44.86477" lon="6.10406">
        <ele>1857</ele>
        <time>2024-08-13T14:56:00Z</time>
      </trkpt>
      <trkpt lat="44.86477" lon="6.10406">
        <ele>1856.4</ele>
        <time>2024-08-13T14:56:01Z</time>
      </trkpt>
      <trkpt lat="44.86476" lon="6.10403">
        <ele>1856</ele>
        <time>2024-08-13T14:56:02Z</time>
      </trkpt>
      <trkpt lat="44.86476" lon="6.10403">
        <ele>1856</ele>
        <time>2024-08-13T14:56:03Z</time>
      </trkpt>
      <trkpt lat="44.86476" lon="6.10403">
        <ele>1855.8</ele>
        <time>2024-08-13T14:56:04Z</time>
      </trkpt>
      <trkpt lat="44.86476" lon="6.10403">
        <ele>1855.2</ele>
        <time>2024-08-13T14:56:05Z</time>
      </trkpt>
      <trkpt lat="44.86475" lon="6.104">
        <ele>1855</ele>
        <time>2024-08-13T14:56:06Z</time>
      </trkpt>
      <trkpt lat="44.86475" lon="6.104">
        <ele>1854.8</ele>
        <time>2024-08-13T14:56:07Z</time>
      </trkpt>
      <trkpt lat="44.86474" lon="6.10397">
        <ele>1854.4</ele>
        <time>2024-08-13T14:56:08Z</time>
      </trkpt>
      <trkpt lat="44.86474" lon="6.10397">
        <ele>1854</ele>
        <time>2024-08-13T14:56:09Z</time>
      </trkpt>
      <trkpt lat="44.86472" lon="6.10395">
        <ele>1853.8</ele>
        <time>2024-08-13T14:56:10Z</time>
      </trkpt>
      <trkpt lat="44.86472" lon="6.10395">
        <ele>1853.6</ele>
        <time>2024-08-13T14:56:11Z</time>
      </trkpt>
      <trkpt lat="44.86471" lon="6.10392">
        <ele>1853.4</ele>
        <time>2024-08-13T14:56:12Z</time>
      </trkpt>
      <trkpt lat="44.86471" lon="6.10392">
        <ele>1853.4</ele>
        <time>2024-08-13T14:56:13Z</time>
      </trkpt>
      <trkpt lat="44.86471" lon="6.10392">
        <ele>1852.8</ele>
        <time>2024-08-13T14:56:14Z</time>
      </trkpt>
      <trkpt lat="44.8647" lon="6.10389">
        <ele>1852.8</ele>
        <time>2024-08-13T14:56:15Z</time>
      </trkpt>
      <trkpt lat="44.8647" lon="6.10389">
        <ele>1852.8</ele>
        <time>2024-08-13T14:56:16Z</time>
      </trkpt>
      <trkpt lat="44.8647" lon="6.10389">
        <ele>1852.4</ele>
        <time>2024-08-13T14:56:17Z</time>
      </trkpt>
      <trkpt lat="44.8647" lon="6.10389">
        <ele>1852</ele>
        <time>2024-08-13T14:56:18Z</time>
      </trkpt>
      <trkpt lat="44.86471" lon="6.10386">
        <ele>1851.8</ele>
        <time>2024-08-13T14:56:19Z</time>
      </trkpt>
      <trkpt lat="44.86471" lon="6.10386">
        <ele>1851.6</ele>
        <time>2024-08-13T14:56:20Z</time>
      </trkpt>
      <trkpt lat="44.86471" lon="6.10386">
        <ele>1851.6</ele>
        <time>2024-08-13T14:56:21Z</time>
      </trkpt>
      <trkpt lat="44.86472" lon="6.10383">
        <ele>1851.4</ele>
        <time>2024-08-13T14:56:22Z</time>
      </trkpt>
      <trkpt lat="44.86472" lon="6.10383">
        <ele>1851</ele>
        <time>2024-08-13T14:56:23Z</time>
      </trkpt>
      <trkpt lat="44.86472" lon="6.10383">
        <ele>1850.4</ele>
        <time>2024-08-13T14:56:24Z</time>
      </trkpt>
      <trkpt lat="44.86472" lon="6.10383">
        <ele>1850</ele>
        <time>2024-08-13T14:56:25Z</time>
      </trkpt>
      <trkpt lat="44.86471" lon="6.1038">
        <ele>1849.8</ele>
        <time>2024-08-13T14:56:26Z</time>
      </trkpt>
      <trkpt lat="44.86471" lon="6.1038">
        <ele>1849.6</ele>
        <time>2024-08-13T14:56:27Z</time>
      </trkpt>
      <trkpt lat="44.86469" lon="6.1038">
        <ele>1849.6</ele>
        <time>2024-08-13T14:56:28Z</time>
      </trkpt>
      <trkpt lat="44.86469" lon="6.1038">
        <ele>1849.4</ele>
        <time>2024-08-13T14:56:29Z</time>
      </trkpt>
      <trkpt lat="44.86469" lon="6.1038">
        <ele>1849.2</ele>
        <time>2024-08-13T14:56:30Z</time>
      </trkpt>
      <trkpt lat="44.86467" lon="6.10379">
        <ele>1849</ele>
        <time>2024-08-13T14:56:31Z</time>
      </trkpt>
      <trkpt lat="44.86467" lon="6.10379">
        <ele>1848.8</ele>
        <time>2024-08-13T14:56:32Z</time>
      </trkpt>
      <trkpt lat="44.86467" lon="6.10379">
        <ele>1848.6</ele>
        <time>2024-08-13T14:56:33Z</time>
      </trkpt>
      <trkpt lat="44.86465" lon="6.10377">
        <ele>1848.4</ele>
        <time>2024-08-13T14:56:34Z</time>
      </trkpt>
      <trkpt lat="44.86465" lon="6.10377">
        <ele>1848</ele>
        <time>2024-08-13T14:56:35Z</time>
      </trkpt>
      <trkpt lat="44.86465" lon="6.10377">
        <ele>1847.8</ele>
        <time>2024-08-13T14:56:36Z</time>
      </trkpt>
      <trkpt lat="44.86466" lon="6.10375">
        <ele>1847.4</ele>
        <time>2024-08-13T14:56:37Z</time>
      </trkpt>
      <trkpt lat="44.86466" lon="6.10375">
        <ele>1847.4</ele>
        <time>2024-08-13T14:56:38Z</time>
      </trkpt>
      <trkpt lat="44.86466" lon="6.10375">
        <ele>1847.4</ele>
        <time>2024-08-13T14:56:39Z</time>
      </trkpt>
      <trkpt lat="44.86466" lon="6.10371">
        <ele>1847.6</ele>
        <time>2024-08-13T14:56:40Z</time>
      </trkpt>
      <trkpt lat="44.86466" lon="6.10371">
        <ele>1847.6</ele>
        <time>2024-08-13T14:56:41Z</time>
      </trkpt>
      <trkpt lat="44.86465" lon="6.10369">
        <ele>1847.4</ele>
        <time>2024-08-13T14:56:42Z</time>
      </trkpt>
      <trkpt lat="44.86465" lon="6.10369">
        <ele>1847</ele>
        <time>2024-08-13T14:56:43Z</time>
      </trkpt>
      <trkpt lat="44.86463" lon="6.10368">
        <ele>1846.6</ele>
        <time>2024-08-13T14:56:44Z</time>
      </trkpt>
      <trkpt lat="44.86463" lon="6.10368">
        <ele>1846.2</ele>
        <time>2024-08-13T14:56:45Z</time>
      </trkpt>
      <trkpt lat="44.86463" lon="6.10368">
        <ele>1846</ele>
        <time>2024-08-13T14:56:46Z</time>
      </trkpt>
      <trkpt lat="44.86463" lon="6.10368">
        <ele>1846</ele>
        <time>2024-08-13T14:56:47Z</time>
      </trkpt>
      <trkpt lat="44.86462" lon="6.10365">
        <ele>1845.6</ele>
        <time>2024-08-13T14:56:48Z</time>
      </trkpt>
      <trkpt lat="44.86462" lon="6.10365">
        <ele>1845.2</ele>
        <time>2024-08-13T14:56:49Z</time>
      </trkpt>
      <trkpt lat="44.86462" lon="6.10365">
        <ele>1845.2</ele>
        <time>2024-08-13T14:56:50Z</time>
      </trkpt>
      <trkpt lat="44.86462" lon="6.10362">
        <ele>1844.8</ele>
        <time>2024-08-13T14:56:51Z</time>
      </trkpt>
      <trkpt lat="44.86462" lon="6.10362">
        <ele>1844.4</ele>
        <time>2024-08-13T14:56:52Z</time>
      </trkpt>
      <trkpt lat="44.86462" lon="6.10362">
        <ele>1844.2</ele>
        <time>2024-08-13T14:56:53Z</time>
      </trkpt>
      <trkpt lat="44.86463" lon="6.10359">
        <ele>1844</ele>
        <time>2024-08-13T14:56:54Z</time>
      </trkpt>
      <trkpt lat="44.86463" lon="6.10359">
        <ele>1843.8</ele>
        <time>2024-08-13T14:56:55Z</time>
      </trkpt>
      <trkpt lat="44.86463" lon="6.10359">
        <ele>1843.4</ele>
        <time>2024-08-13T14:56:56Z</time>
      </trkpt>
      <trkpt lat="44.86463" lon="6.10357">
        <ele>1843.2</ele>
        <time>2024-08-13T14:56:57Z</time>
      </trkpt>
      <trkpt lat="44.86463" lon="6.10357">
        <ele>1843</ele>
        <time>2024-08-13T14:56:58Z</time>
      </trkpt>
      <trkpt lat="44.86463" lon="6.10357">
        <ele>1842.8</ele>
        <time>2024-08-13T14:56:59Z</time>
      </trkpt>
      <trkpt lat="44.86461" lon="6.10356">
        <ele>1842.4</ele>
        <time>2024-08-13T14:57:00Z</time>
      </trkpt>
      <trkpt lat="44.86461" lon="6.10356">
        <ele>1842.2</ele>
        <time>2024-08-13T14:57:01Z</time>
      </trkpt>
      <trkpt lat="44.86459" lon="6.10356">
        <ele>1842.4</ele>
        <time>2024-08-13T14:57:02Z</time>
      </trkpt>
      <trkpt lat="44.86459" lon="6.10356">
        <ele>1842.4</ele>
        <time>2024-08-13T14:57:03Z</time>
      </trkpt>
      <trkpt lat="44.86457" lon="6.10356">
        <ele>1842.4</ele>
        <time>2024-08-13T14:57:04Z</time>
      </trkpt>
      <trkpt lat="44.86457" lon="6.10356">
        <ele>1842.4</ele>
        <time>2024-08-13T14:57:05Z</time>
      </trkpt>
      <trkpt lat="44.86455" lon="6.10356">
        <ele>1841.8</ele>
        <time>2024-08-13T14:57:06Z</time>
      </trkpt>
      <trkpt lat="44.86455" lon="6.10356">
        <ele>1841.4</ele>
        <time>2024-08-13T14:57:07Z</time>
      </trkpt>
      <trkpt lat="44.86455" lon="6.10356">
        <ele>1841.4</ele>
        <time>2024-08-13T14:57:08Z</time>
      </trkpt>
      <trkpt lat="44.86452" lon="6.10356">
        <ele>1841.2</ele>
        <time>2024-08-13T14:57:09Z</time>
      </trkpt>
      <trkpt lat="44.86452" lon="6.10356">
        <ele>1840.4</ele>
        <time>2024-08-13T14:57:10Z</time>
      </trkpt>
      <trkpt lat="44.86452" lon="6.10356">
        <ele>1840</ele>
        <time>2024-08-13T14:57:11Z</time>
      </trkpt>
      <trkpt lat="44.86452" lon="6.10356">
        <ele>1840</ele>
        <time>2024-08-13T14:57:12Z</time>
      </trkpt>
      <trkpt lat="44.86452" lon="6.10356">
        <ele>1839.8</ele>
        <time>2024-08-13T14:57:13Z</time>
      </trkpt>
      <trkpt lat="44.86452" lon="6.10356">
        <ele>1839.2</ele>
        <time>2024-08-13T14:57:14Z</time>
      </trkpt>
      <trkpt lat="44.86452" lon="6.10356">
        <ele>1839</ele>
        <time>2024-08-13T14:57:15Z</time>
      </trkpt>
      <trkpt lat="44.86452" lon="6.10356">
        <ele>1839</ele>
        <time>2024-08-13T14:57:16Z</time>
      </trkpt>
      <trkpt lat="44.86452" lon="6.10356">
        <ele>1838.8</ele>
        <time>2024-08-13T14:57:17Z</time>
      </trkpt>
      <trkpt lat="44.86452" lon="6.10356">
        <ele>1838.8</ele>
        <time>2024-08-13T14:57:18Z</time>
      </trkpt>
      <trkpt lat="44.86452" lon="6.10356">
        <ele>1838.8</ele>
        <time>2024-08-13T14:57:19Z</time>
      </trkpt>
      <trkpt lat="44.86452" lon="6.10356">
        <ele>1839</ele>
        <time>2024-08-13T14:57:20Z</time>
      </trkpt>
      <trkpt lat="44.86452" lon="6.10356">
        <ele>1839</ele>
        <time>2024-08-13T14:57:21Z</time>
      </trkpt>
      <trkpt lat="44.86452" lon="6.10356">
        <ele>1839.2</ele>
        <time>2024-08-13T14:57:22Z</time>
      </trkpt>
      <trkpt lat="44.8645" lon="6.10356">
        <ele>1839.2</ele>
        <time>2024-08-13T14:57:23Z</time>
      </trkpt>
      <trkpt lat="44.8645" lon="6.10356">
        <ele>1839.2</ele>
        <time>2024-08-13T14:57:24Z</time>
      </trkpt>
      <trkpt lat="44.8645" lon="6.10356">
        <ele>1839</ele>
        <time>2024-08-13T14:57:25Z</time>
      </trkpt>
      <trkpt lat="44.86448" lon="6.10355">
        <ele>1838.6</ele>
        <time>2024-08-13T14:57:26Z</time>
      </trkpt>
      <trkpt lat="44.86448" lon="6.10355">
        <ele>1838</ele>
        <time>2024-08-13T14:57:27Z</time>
      </trkpt>
      <trkpt lat="44.86448" lon="6.10355">
        <ele>1837.6</ele>
        <time>2024-08-13T14:57:28Z</time>
      </trkpt>
      <trkpt lat="44.86448" lon="6.10355">
        <ele>1837.8</ele>
        <time>2024-08-13T14:57:29Z</time>
      </trkpt>
      <trkpt lat="44.86446" lon="6.10354">
        <ele>1837.8</ele>
        <time>2024-08-13T14:57:30Z</time>
      </trkpt>
      <trkpt lat="44.86446" lon="6.10354">
        <ele>1837.8</ele>
        <time>2024-08-13T14:57:31Z</time>
      </trkpt>
      <trkpt lat="44.86444" lon="6.10355">
        <ele>1837.8</ele>
        <time>2024-08-13T14:57:32Z</time>
      </trkpt>
      <trkpt lat="44.86444" lon="6.10355">
        <ele>1837.8</ele>
        <time>2024-08-13T14:57:33Z</time>
      </trkpt>
      <trkpt lat="44.86442" lon="6.10355">
        <ele>1837.6</ele>
        <time>2024-08-13T14:57:34Z</time>
      </trkpt>
      <trkpt lat="44.86442" lon="6.10355">
        <ele>1837.2</ele>
        <time>2024-08-13T14:57:35Z</time>
      </trkpt>
      <trkpt lat="44.86441" lon="6.10357">
        <ele>1837</ele>
        <time>2024-08-13T14:57:36Z</time>
      </trkpt>
      <trkpt lat="44.86441" lon="6.10357">
        <ele>1836.8</ele>
        <time>2024-08-13T14:57:37Z</time>
      </trkpt>
      <trkpt lat="44.86439" lon="6.10358">
        <ele>1836.6</ele>
        <time>2024-08-13T14:57:38Z</time>
      </trkpt>
      <trkpt lat="44.86439" lon="6.10358">
        <ele>1836.2</ele>
        <time>2024-08-13T14:57:39Z</time>
      </trkpt>
      <trkpt lat="44.86437" lon="6.10358">
        <ele>1836</ele>
        <time>2024-08-13T14:57:40Z</time>
      </trkpt>
      <trkpt lat="44.86437" lon="6.10358">
        <ele>1835.8</ele>
        <time>2024-08-13T14:57:41Z</time>
      </trkpt>
      <trkpt lat="44.86437" lon="6.10358">
        <ele>1835.8</ele>
        <time>2024-08-13T14:57:42Z</time>
      </trkpt>
      <trkpt lat="44.86435" lon="6.10358">
        <ele>1835.8</ele>
        <time>2024-08-13T14:57:43Z</time>
      </trkpt>
      <trkpt lat="44.86435" lon="6.10358">
        <ele>1835.6</ele>
        <time>2024-08-13T14:57:44Z</time>
      </trkpt>
      <trkpt lat="44.86433" lon="6.10358">
        <ele>1835</ele>
        <time>2024-08-13T14:57:45Z</time>
      </trkpt>
      <trkpt lat="44.86433" lon="6.10358">
        <ele>1834.6</ele>
        <time>2024-08-13T14:57:46Z</time>
      </trkpt>
      <trkpt lat="44.86431" lon="6.10358">
        <ele>1834.4</ele>
        <time>2024-08-13T14:57:47Z</time>
      </trkpt>
      <trkpt lat="44.86431" lon="6.10358">
        <ele>1834.4</ele>
        <time>2024-08-13T14:57:48Z</time>
      </trkpt>
      <trkpt lat="44.86429" lon="6.10357">
        <ele>1834</ele>
        <time>2024-08-13T14:57:49Z</time>
      </trkpt>
      <trkpt lat="44.86429" lon="6.10357">
        <ele>1834</ele>
        <time>2024-08-13T14:57:50Z</time>
      </trkpt>
      <trkpt lat="44.86427" lon="6.10358">
        <ele>1833.8</ele>
        <time>2024-08-13T14:57:51Z</time>
      </trkpt>
      <trkpt lat="44.86427" lon="6.10358">
        <ele>1833.8</ele>
        <time>2024-08-13T14:57:52Z</time>
      </trkpt>
      <trkpt lat="44.86425" lon="6.10358">
        <ele>1833.4</ele>
        <time>2024-08-13T14:57:53Z</time>
      </trkpt>
      <trkpt lat="44.86425" lon="6.10358">
        <ele>1833.2</ele>
        <time>2024-08-13T14:57:54Z</time>
      </trkpt>
      <trkpt lat="44.86422" lon="6.10358">
        <ele>1832.8</ele>
        <time>2024-08-13T14:57:55Z</time>
      </trkpt>
      <trkpt lat="44.86422" lon="6.10358">
        <ele>1832.8</ele>
        <time>2024-08-13T14:57:56Z</time>
      </trkpt>
      <trkpt lat="44.86422" lon="6.10358">
        <ele>1832.6</ele>
        <time>2024-08-13T14:57:57Z</time>
      </trkpt>
      <trkpt lat="44.86421" lon="6.10359">
        <ele>1832.2</ele>
        <time>2024-08-13T14:57:58Z</time>
      </trkpt>
      <trkpt lat="44.86421" lon="6.10359">
        <ele>1831.8</ele>
        <time>2024-08-13T14:57:59Z</time>
      </trkpt>
      <trkpt lat="44.86421" lon="6.10359">
        <ele>1831.4</ele>
        <time>2024-08-13T14:58:00Z</time>
      </trkpt>
      <trkpt lat="44.86419" lon="6.10359">
        <ele>1831.4</ele>
        <time>2024-08-13T14:58:01Z</time>
      </trkpt>
      <trkpt lat="44.86419" lon="6.10359">
        <ele>1831</ele>
        <time>2024-08-13T14:58:02Z</time>
      </trkpt>
      <trkpt lat="44.86419" lon="6.10359">
        <ele>1831</ele>
        <time>2024-08-13T14:58:03Z</time>
      </trkpt>
      <trkpt lat="44.86419" lon="6.10359">
        <ele>1830.8</ele>
        <time>2024-08-13T14:58:04Z</time>
      </trkpt>
      <trkpt lat="44.86417" lon="6.10358">
        <ele>1830.6</ele>
        <time>2024-08-13T14:58:05Z</time>
      </trkpt>
      <trkpt lat="44.86417" lon="6.10358">
        <ele>1830.4</ele>
        <time>2024-08-13T14:58:06Z</time>
      </trkpt>
      <trkpt lat="44.86417" lon="6.10358">
        <ele>1830.4</ele>
        <time>2024-08-13T14:58:07Z</time>
      </trkpt>
      <trkpt lat="44.86417" lon="6.10358">
        <ele>1830.2</ele>
        <time>2024-08-13T14:58:08Z</time>
      </trkpt>
      <trkpt lat="44.86417" lon="6.10358">
        <ele>1829.6</ele>
        <time>2024-08-13T14:58:09Z</time>
      </trkpt>
      <trkpt lat="44.86417" lon="6.10358">
        <ele>1829.2</ele>
        <time>2024-08-13T14:58:10Z</time>
      </trkpt>
      <trkpt lat="44.86417" lon="6.10358">
        <ele>1829.2</ele>
        <time>2024-08-13T14:58:11Z</time>
      </trkpt>
      <trkpt lat="44.86414" lon="6.10358">
        <ele>1829</ele>
        <time>2024-08-13T14:58:12Z</time>
      </trkpt>
      <trkpt lat="44.86414" lon="6.10358">
        <ele>1829</ele>
        <time>2024-08-13T14:58:13Z</time>
      </trkpt>
      <trkpt lat="44.86414" lon="6.10358">
        <ele>1828.6</ele>
        <time>2024-08-13T14:58:14Z</time>
      </trkpt>
      <trkpt lat="44.86414" lon="6.10358">
        <ele>1828.6</ele>
        <time>2024-08-13T14:58:15Z</time>
      </trkpt>
      <trkpt lat="44.86414" lon="6.10358">
        <ele>1828.4</ele>
        <time>2024-08-13T14:58:16Z</time>
      </trkpt>
      <trkpt lat="44.86414" lon="6.10358">
        <ele>1828.2</ele>
        <time>2024-08-13T14:58:17Z</time>
      </trkpt>
      <trkpt lat="44.86414" lon="6.10358">
        <ele>1827.4</ele>
        <time>2024-08-13T14:58:18Z</time>
      </trkpt>
      <trkpt lat="44.86414" lon="6.10358">
        <ele>1827.2</ele>
        <time>2024-08-13T14:58:19Z</time>
      </trkpt>
      <trkpt lat="44.86414" lon="6.10358">
        <ele>1827.2</ele>
        <time>2024-08-13T14:58:20Z</time>
      </trkpt>
      <trkpt lat="44.86414" lon="6.10358">
        <ele>1827.2</ele>
        <time>2024-08-13T14:58:21Z</time>
      </trkpt>
      <trkpt lat="44.86414" lon="6.10358">
        <ele>1827</ele>
        <time>2024-08-13T14:58:22Z</time>
      </trkpt>
      <trkpt lat="44.86414" lon="6.10358">
        <ele>1827</ele>
        <time>2024-08-13T14:58:23Z</time>
      </trkpt>
      <trkpt lat="44.86415" lon="6.10356">
        <ele>1826.8</ele>
        <time>2024-08-13T14:58:24Z</time>
      </trkpt>
      <trkpt lat="44.86415" lon="6.10356">
        <ele>1826.8</ele>
        <time>2024-08-13T14:58:25Z</time>
      </trkpt>
      <trkpt lat="44.86416" lon="6.10354">
        <ele>1826.4</ele>
        <time>2024-08-13T14:58:26Z</time>
      </trkpt>
      <trkpt lat="44.86416" lon="6.10354">
        <ele>1825.8</ele>
        <time>2024-08-13T14:58:27Z</time>
      </trkpt>
      <trkpt lat="44.86417" lon="6.10351">
        <ele>1825</ele>
        <time>2024-08-13T14:58:28Z</time>
      </trkpt>
      <trkpt lat="44.86417" lon="6.10351">
        <ele>1825</ele>
        <time>2024-08-13T14:58:29Z</time>
      </trkpt>
      <trkpt lat="44.86419" lon="6.10348">
        <ele>1825</ele>
        <time>2024-08-13T14:58:30Z</time>
      </trkpt>
      <trkpt lat="44.86419" lon="6.10348">
        <ele>1824.6</ele>
        <time>2024-08-13T14:58:31Z</time>
      </trkpt>
      <trkpt lat="44.86419" lon="6.10348">
        <ele>1823.6</ele>
        <time>2024-08-13T14:58:32Z</time>
      </trkpt>
      <trkpt lat="44.86421" lon="6.10347">
        <ele>1823.6</ele>
        <time>2024-08-13T14:58:33Z</time>
      </trkpt>
      <trkpt lat="44.86421" lon="6.10347">
        <ele>1823.4</ele>
        <time>2024-08-13T14:58:34Z</time>
      </trkpt>
      <trkpt lat="44.86421" lon="6.10347">
        <ele>1823.4</ele>
        <time>2024-08-13T14:58:35Z</time>
      </trkpt>
      <trkpt lat="44.86421" lon="6.10344">
        <ele>1823.2</ele>
        <time>2024-08-13T14:58:36Z</time>
      </trkpt>
      <trkpt lat="44.86421" lon="6.10344">
        <ele>1823.2</ele>
        <time>2024-08-13T14:58:37Z</time>
      </trkpt>
      <trkpt lat="44.86422" lon="6.10341">
        <ele>1822.8</ele>
        <time>2024-08-13T14:58:38Z</time>
      </trkpt>
      <trkpt lat="44.86422" lon="6.10341">
        <ele>1822.8</ele>
        <time>2024-08-13T14:58:39Z</time>
      </trkpt>
      <trkpt lat="44.86422" lon="6.10341">
        <ele>1822.8</ele>
        <time>2024-08-13T14:58:40Z</time>
      </trkpt>
      <trkpt lat="44.86422" lon="6.10341">
        <ele>1822.2</ele>
        <time>2024-08-13T14:58:41Z</time>
      </trkpt>
      <trkpt lat="44.86424" lon="6.1034">
        <ele>1822.2</ele>
        <time>2024-08-13T14:58:42Z</time>
      </trkpt>
      <trkpt lat="44.86424" lon="6.1034">
        <ele>1822</ele>
        <time>2024-08-13T14:58:43Z</time>
      </trkpt>
      <trkpt lat="44.86424" lon="6.1034">
        <ele>1822</ele>
        <time>2024-08-13T14:58:44Z</time>
      </trkpt>
      <trkpt lat="44.86424" lon="6.1034">
        <ele>1821.8</ele>
        <time>2024-08-13T14:58:45Z</time>
      </trkpt>
      <trkpt lat="44.86424" lon="6.1034">
        <ele>1821.8</ele>
        <time>2024-08-13T14:58:46Z</time>
      </trkpt>
      <trkpt lat="44.86424" lon="6.1034">
        <ele>1821.8</ele>
        <time>2024-08-13T14:58:47Z</time>
      </trkpt>
      <trkpt lat="44.86424" lon="6.1034">
        <ele>1821.6</ele>
        <time>2024-08-13T14:58:48Z</time>
      </trkpt>
      <trkpt lat="44.86424" lon="6.1034">
        <ele>1821.6</ele>
        <time>2024-08-13T14:58:49Z</time>
      </trkpt>
      <trkpt lat="44.86424" lon="6.1034">
        <ele>1821.4</ele>
        <time>2024-08-13T14:58:50Z</time>
      </trkpt>
      <trkpt lat="44.86425" lon="6.10338">
        <ele>1821.4</ele>
        <time>2024-08-13T14:58:51Z</time>
      </trkpt>
      <trkpt lat="44.86425" lon="6.10338">
        <ele>1820.8</ele>
        <time>2024-08-13T14:58:52Z</time>
      </trkpt>
      <trkpt lat="44.86425" lon="6.10338">
        <ele>1820.4</ele>
        <time>2024-08-13T14:58:53Z</time>
      </trkpt>
      <trkpt lat="44.86425" lon="6.10338">
        <ele>1819.4</ele>
        <time>2024-08-13T14:58:54Z</time>
      </trkpt>
      <trkpt lat="44.86425" lon="6.10338">
        <ele>1819</ele>
        <time>2024-08-13T14:58:55Z</time>
      </trkpt>
      <trkpt lat="44.86427" lon="6.10335">
        <ele>1818.8</ele>
        <time>2024-08-13T14:58:56Z</time>
      </trkpt>
      <trkpt lat="44.86427" lon="6.10335">
        <ele>1818.4</ele>
        <time>2024-08-13T14:58:57Z</time>
      </trkpt>
      <trkpt lat="44.86429" lon="6.10333">
        <ele>1818.4</ele>
        <time>2024-08-13T14:58:58Z</time>
      </trkpt>
      <trkpt lat="44.86429" lon="6.10333">
        <ele>1818</ele>
        <time>2024-08-13T14:58:59Z</time>
      </trkpt>
      <trkpt lat="44.86432" lon="6.10332">
        <ele>1818</ele>
        <time>2024-08-13T14:59:00Z</time>
      </trkpt>
      <trkpt lat="44.86432" lon="6.10332">
        <ele>1818</ele>
        <time>2024-08-13T14:59:01Z</time>
      </trkpt>
      <trkpt lat="44.86435" lon="6.10331">
        <ele>1817.2</ele>
        <time>2024-08-13T14:59:02Z</time>
      </trkpt>
      <trkpt lat="44.86435" lon="6.10331">
        <ele>1817.2</ele>
        <time>2024-08-13T14:59:03Z</time>
      </trkpt>
      <trkpt lat="44.86436" lon="6.1033">
        <ele>1817.4</ele>
        <time>2024-08-13T14:59:04Z</time>
      </trkpt>
      <trkpt lat="44.86436" lon="6.1033">
        <ele>1817.4</ele>
        <time>2024-08-13T14:59:05Z</time>
      </trkpt>
      <trkpt lat="44.86438" lon="6.1033">
        <ele>1817.4</ele>
        <time>2024-08-13T14:59:06Z</time>
      </trkpt>
      <trkpt lat="44.86438" lon="6.1033">
        <ele>1816.4</ele>
        <time>2024-08-13T14:59:07Z</time>
      </trkpt>
      <trkpt lat="44.8644" lon="6.10329">
        <ele>1815.6</ele>
        <time>2024-08-13T14:59:08Z</time>
      </trkpt>
      <trkpt lat="44.8644" lon="6.10329">
        <ele>1815</ele>
        <time>2024-08-13T14:59:09Z</time>
      </trkpt>
      <trkpt lat="44.8644" lon="6.10329">
        <ele>1815</ele>
        <time>2024-08-13T14:59:10Z</time>
      </trkpt>
      <trkpt lat="44.8644" lon="6.10329">
        <ele>1815.2</ele>
        <time>2024-08-13T14:59:11Z</time>
      </trkpt>
      <trkpt lat="44.86442" lon="6.10328">
        <ele>1815.2</ele>
        <time>2024-08-13T14:59:12Z</time>
      </trkpt>
      <trkpt lat="44.86442" lon="6.10328">
        <ele>1815.2</ele>
        <time>2024-08-13T14:59:13Z</time>
      </trkpt>
      <trkpt lat="44.86442" lon="6.10328">
        <ele>1814.8</ele>
        <time>2024-08-13T14:59:14Z</time>
      </trkpt>
      <trkpt lat="44.86442" lon="6.10328">
        <ele>1814.8</ele>
        <time>2024-08-13T14:59:15Z</time>
      </trkpt>
      <trkpt lat="44.86442" lon="6.10328">
        <ele>1814.6</ele>
        <time>2024-08-13T14:59:16Z</time>
      </trkpt>
      <trkpt lat="44.86442" lon="6.10328">
        <ele>1814.6</ele>
        <time>2024-08-13T14:59:17Z</time>
      </trkpt>
      <trkpt lat="44.86442" lon="6.10328">
        <ele>1814.6</ele>
        <time>2024-08-13T14:59:18Z</time>
      </trkpt>
      <trkpt lat="44.86442" lon="6.10328">
        <ele>1814.6</ele>
        <time>2024-08-13T14:59:19Z</time>
      </trkpt>
      <trkpt lat="44.86442" lon="6.10328">
        <ele>1814.8</ele>
        <time>2024-08-13T14:59:20Z</time>
      </trkpt>
      <trkpt lat="44.86442" lon="6.10328">
        <ele>1814.8</ele>
        <time>2024-08-13T14:59:21Z</time>
      </trkpt>
      <trkpt lat="44.86442" lon="6.10328">
        <ele>1814.6</ele>
        <time>2024-08-13T14:59:22Z</time>
      </trkpt>
      <trkpt lat="44.86442" lon="6.10328">
        <ele>1814.4</ele>
        <time>2024-08-13T14:59:23Z</time>
      </trkpt>
      <trkpt lat="44.86442" lon="6.10328">
        <ele>1814.2</ele>
        <time>2024-08-13T14:59:24Z</time>
      </trkpt>
      <trkpt lat="44.86442" lon="6.10328">
        <ele>1814.2</ele>
        <time>2024-08-13T14:59:25Z</time>
      </trkpt>
      <trkpt lat="44.86442" lon="6.10328">
        <ele>1814.4</ele>
        <time>2024-08-13T14:59:26Z</time>
      </trkpt>
      <trkpt lat="44.86442" lon="6.10328">
        <ele>1814.4</ele>
        <time>2024-08-13T14:59:27Z</time>
      </trkpt>
      <trkpt lat="44.86439" lon="6.10326">
        <ele>1814.4</ele>
        <time>2024-08-13T14:59:28Z</time>
      </trkpt>
      <trkpt lat="44.86439" lon="6.10326">
        <ele>1814.2</ele>
        <time>2024-08-13T14:59:29Z</time>
      </trkpt>
      <trkpt lat="44.86439" lon="6.10326">
        <ele>1814</ele>
        <time>2024-08-13T14:59:30Z</time>
      </trkpt>
      <trkpt lat="44.86437" lon="6.10324">
        <ele>1813.8</ele>
        <time>2024-08-13T14:59:31Z</time>
      </trkpt>
      <trkpt lat="44.86437" lon="6.10324">
        <ele>1813.6</ele>
        <time>2024-08-13T14:59:32Z</time>
      </trkpt>
      <trkpt lat="44.86435" lon="6.10324">
        <ele>1813</ele>
        <time>2024-08-13T14:59:33Z</time>
      </trkpt>
      <trkpt lat="44.86435" lon="6.10324">
        <ele>1813</ele>
        <time>2024-08-13T14:59:34Z</time>
      </trkpt>
      <trkpt lat="44.86435" lon="6.10324">
        <ele>1813</ele>
        <time>2024-08-13T14:59:35Z</time>
      </trkpt>
      <trkpt lat="44.86435" lon="6.10324">
        <ele>1812.6</ele>
        <time>2024-08-13T14:59:36Z</time>
      </trkpt>
      <trkpt lat="44.86435" lon="6.10324">
        <ele>1812</ele>
        <time>2024-08-13T14:59:37Z</time>
      </trkpt>
      <trkpt lat="44.86435" lon="6.10324">
        <ele>1811.6</ele>
        <time>2024-08-13T14:59:38Z</time>
      </trkpt>
      <trkpt lat="44.86436" lon="6.10321">
        <ele>1810.6</ele>
        <time>2024-08-13T14:59:39Z</time>
      </trkpt>
      <trkpt lat="44.86436" lon="6.10321">
        <ele>1810.4</ele>
        <time>2024-08-13T14:59:40Z</time>
      </trkpt>
      <trkpt lat="44.86436" lon="6.10321">
        <ele>1810.2</ele>
        <time>2024-08-13T14:59:41Z</time>
      </trkpt>
      <trkpt lat="44.86438" lon="6.10319">
        <ele>1809.6</ele>
        <time>2024-08-13T14:59:42Z</time>
      </trkpt>
      <trkpt lat="44.86438" lon="6.10319">
        <ele>1809.6</ele>
        <time>2024-08-13T14:59:43Z</time>
      </trkpt>
      <trkpt lat="44.86438" lon="6.10319">
        <ele>1809.4</ele>
        <time>2024-08-13T14:59:44Z</time>
      </trkpt>
      <trkpt lat="44.8644" lon="6.10318">
        <ele>1809.4</ele>
        <time>2024-08-13T14:59:45Z</time>
      </trkpt>
      <trkpt lat="44.8644" lon="6.10318">
        <ele>1809.2</ele>
        <time>2024-08-13T14:59:46Z</time>
      </trkpt>
      <trkpt lat="44.8644" lon="6.10318">
        <ele>1808.8</ele>
        <time>2024-08-13T14:59:47Z</time>
      </trkpt>
      <trkpt lat="44.8644" lon="6.10318">
        <ele>1808.6</ele>
        <time>2024-08-13T14:59:48Z</time>
      </trkpt>
      <trkpt lat="44.86439" lon="6.10315">
        <ele>1808.6</ele>
        <time>2024-08-13T14:59:49Z</time>
      </trkpt>
      <trkpt lat="44.86439" lon="6.10315">
        <ele>1808.4</ele>
        <time>2024-08-13T14:59:50Z</time>
      </trkpt>
      <trkpt lat="44.86439" lon="6.10315">
        <ele>1808</ele>
        <time>2024-08-13T14:59:51Z</time>
      </trkpt>
      <trkpt lat="44.86438" lon="6.10313">
        <ele>1807.2</ele>
        <time>2024-08-13T14:59:52Z</time>
      </trkpt>
      <trkpt lat="44.86438" lon="6.10313">
        <ele>1807</ele>
        <time>2024-08-13T14:59:53Z</time>
      </trkpt>
      <trkpt lat="44.86438" lon="6.10313">
        <ele>1806.8</ele>
        <time>2024-08-13T14:59:54Z</time>
      </trkpt>
      <trkpt lat="44.86435" lon="6.10313">
        <ele>1806.6</ele>
        <time>2024-08-13T14:59:55Z</time>
      </trkpt>
      <trkpt lat="44.86435" lon="6.10313">
        <ele>1806.4</ele>
        <time>2024-08-13T14:59:56Z</time>
      </trkpt>
      <trkpt lat="44.86435" lon="6.10313">
        <ele>1806.2</ele>
        <time>2024-08-13T14:59:57Z</time>
      </trkpt>
      <trkpt lat="44.86435" lon="6.10313">
        <ele>1806</ele>
        <time>2024-08-13T14:59:58Z</time>
      </trkpt>
      <trkpt lat="44.86435" lon="6.10313">
        <ele>1805.6</ele>
        <time>2024-08-13T14:59:59Z</time>
      </trkpt>
      <trkpt lat="44.86435" lon="6.10313">
        <ele>1805.6</ele>
        <time>2024-08-13T15:00:00Z</time>
      </trkpt>
      <trkpt lat="44.86435" lon="6.10313">
        <ele>1805.4</ele>
        <time>2024-08-13T15:00:01Z</time>
      </trkpt>
      <trkpt lat="44.86435" lon="6.10313">
        <ele>1805</ele>
        <time>2024-08-13T15:00:02Z</time>
      </trkpt>
      <trkpt lat="44.86435" lon="6.10313">
        <ele>1805</ele>
        <time>2024-08-13T15:00:03Z</time>
      </trkpt>
      <trkpt lat="44.86435" lon="6.10313">
        <ele>1805</ele>
        <time>2024-08-13T15:00:04Z</time>
      </trkpt>
      <trkpt lat="44.86435" lon="6.10313">
        <ele>1804.8</ele>
        <time>2024-08-13T15:00:05Z</time>
      </trkpt>
      <trkpt lat="44.86435" lon="6.10313">
        <ele>1804.6</ele>
        <time>2024-08-13T15:00:06Z</time>
      </trkpt>
      <trkpt lat="44.86433" lon="6.10313">
        <ele>1804.4</ele>
        <time>2024-08-13T15:00:07Z</time>
      </trkpt>
      <trkpt lat="44.86433" lon="6.10313">
        <ele>1804</ele>
        <time>2024-08-13T15:00:08Z</time>
      </trkpt>
      <trkpt lat="44.86431" lon="6.10312">
        <ele>1803.8</ele>
        <time>2024-08-13T15:00:09Z</time>
      </trkpt>
      <trkpt lat="44.86431" lon="6.10312">
        <ele>1803.8</ele>
        <time>2024-08-13T15:00:10Z</time>
      </trkpt>
      <trkpt lat="44.86428" lon="6.10311">
        <ele>1803.8</ele>
        <time>2024-08-13T15:00:11Z</time>
      </trkpt>
      <trkpt lat="44.86428" lon="6.10311">
        <ele>1803.8</ele>
        <time>2024-08-13T15:00:12Z</time>
      </trkpt>
      <trkpt lat="44.86425" lon="6.10311">
        <ele>1803.2</ele>
        <time>2024-08-13T15:00:13Z</time>
      </trkpt>
      <trkpt lat="44.86425" lon="6.10311">
        <ele>1803</ele>
        <time>2024-08-13T15:00:14Z</time>
      </trkpt>
      <trkpt lat="44.86423" lon="6.10309">
        <ele>1802.2</ele>
        <time>2024-08-13T15:00:15Z</time>
      </trkpt>
      <trkpt lat="44.86423" lon="6.10309">
        <ele>1801.8</ele>
        <time>2024-08-13T15:00:16Z</time>
      </trkpt>
      <trkpt lat="44.86423" lon="6.10309">
        <ele>1801.8</ele>
        <time>2024-08-13T15:00:17Z</time>
      </trkpt>
      <trkpt lat="44.86421" lon="6.10307">
        <ele>1801.6</ele>
        <time>2024-08-13T15:00:18Z</time>
      </trkpt>
      <trkpt lat="44.86421" lon="6.10307">
        <ele>1801.4</ele>
        <time>2024-08-13T15:00:19Z</time>
      </trkpt>
      <trkpt lat="44.86421" lon="6.10307">
        <ele>1801</ele>
        <time>2024-08-13T15:00:20Z</time>
      </trkpt>
      <trkpt lat="44.86419" lon="6.10307">
        <ele>1800.4</ele>
        <time>2024-08-13T15:00:21Z</time>
      </trkpt>
      <trkpt lat="44.86419" lon="6.10307">
        <ele>1800</ele>
        <time>2024-08-13T15:00:22Z</time>
      </trkpt>
      <trkpt lat="44.86419" lon="6.10307">
        <ele>1799.4</ele>
        <time>2024-08-13T15:00:23Z</time>
      </trkpt>
      <trkpt lat="44.86416" lon="6.10306">
        <ele>1798.8</ele>
        <time>2024-08-13T15:00:24Z</time>
      </trkpt>
      <trkpt lat="44.86416" lon="6.10306">
        <ele>1798.6</ele>
        <time>2024-08-13T15:00:25Z</time>
      </trkpt>
      <trkpt lat="44.86414" lon="6.10304">
        <ele>1798</ele>
        <time>2024-08-13T15:00:26Z</time>
      </trkpt>
      <trkpt lat="44.86414" lon="6.10304">
        <ele>1797.6</ele>
        <time>2024-08-13T15:00:27Z</time>
      </trkpt>
      <trkpt lat="44.86414" lon="6.10304">
        <ele>1797.4</ele>
        <time>2024-08-13T15:00:28Z</time>
      </trkpt>
      <trkpt lat="44.86413" lon="6.10302">
        <ele>1797.4</ele>
        <time>2024-08-13T15:00:29Z</time>
      </trkpt>
      <trkpt lat="44.86413" lon="6.10302">
        <ele>1797.4</ele>
        <time>2024-08-13T15:00:30Z</time>
      </trkpt>
      <trkpt lat="44.86413" lon="6.10302">
        <ele>1797</ele>
        <time>2024-08-13T15:00:31Z</time>
      </trkpt>
      <trkpt lat="44.86413" lon="6.10302">
        <ele>1796.6</ele>
        <time>2024-08-13T15:00:32Z</time>
      </trkpt>
      <trkpt lat="44.86413" lon="6.10302">
        <ele>1796.6</ele>
        <time>2024-08-13T15:00:33Z</time>
      </trkpt>
      <trkpt lat="44.86413" lon="6.10302">
        <ele>1796.6</ele>
        <time>2024-08-13T15:00:34Z</time>
      </trkpt>
      <trkpt lat="44.86413" lon="6.10302">
        <ele>1796.8</ele>
        <time>2024-08-13T15:00:35Z</time>
      </trkpt>
      <trkpt lat="44.86413" lon="6.10302">
        <ele>1797</ele>
        <time>2024-08-13T15:00:36Z</time>
      </trkpt>
      <trkpt lat="44.86413" lon="6.10302">
        <ele>1797</ele>
        <time>2024-08-13T15:00:37Z</time>
      </trkpt>
      <trkpt lat="44.86413" lon="6.10302">
        <ele>1796.8</ele>
        <time>2024-08-13T15:00:38Z</time>
      </trkpt>
      <trkpt lat="44.86413" lon="6.10302">
        <ele>1796.8</ele>
        <time>2024-08-13T15:00:39Z</time>
      </trkpt>
      <trkpt lat="44.86413" lon="6.10302">
        <ele>1796.8</ele>
        <time>2024-08-13T15:00:40Z</time>
      </trkpt>
      <trkpt lat="44.86413" lon="6.10302">
        <ele>1796.6</ele>
        <time>2024-08-13T15:00:41Z</time>
      </trkpt>
      <trkpt lat="44.86413" lon="6.10302">
        <ele>1796.6</ele>
        <time>2024-08-13T15:00:42Z</time>
      </trkpt>
      <trkpt lat="44.86413" lon="6.10302">
        <ele>1796.6</ele>
        <time>2024-08-13T15:00:43Z</time>
      </trkpt>
      <trkpt lat="44.86413" lon="6.10302">
        <ele>1796.2</ele>
        <time>2024-08-13T15:00:44Z</time>
      </trkpt>
      <trkpt lat="44.86413" lon="6.10302">
        <ele>1796.2</ele>
        <time>2024-08-13T15:00:45Z</time>
      </trkpt>
      <trkpt lat="44.86413" lon="6.10302">
        <ele>1796.2</ele>
        <time>2024-08-13T15:00:46Z</time>
      </trkpt>
      <trkpt lat="44.86413" lon="6.10302">
        <ele>1796.2</ele>
        <time>2024-08-13T15:00:47Z</time>
      </trkpt>
      <trkpt lat="44.86413" lon="6.10302">
        <ele>1796.2</ele>
        <time>2024-08-13T15:00:48Z</time>
      </trkpt>
      <trkpt lat="44.86413" lon="6.10302">
        <ele>1796.2</ele>
        <time>2024-08-13T15:00:49Z</time>
      </trkpt>
      <trkpt lat="44.86411" lon="6.10302">
        <ele>1796</ele>
        <time>2024-08-13T15:00:50Z</time>
      </trkpt>
      <trkpt lat="44.86411" lon="6.10302">
        <ele>1796</ele>
        <time>2024-08-13T15:00:51Z</time>
      </trkpt>
      <trkpt lat="44.86411" lon="6.10302">
        <ele>1795.8</ele>
        <time>2024-08-13T15:00:52Z</time>
      </trkpt>
      <trkpt lat="44.86411" lon="6.10302">
        <ele>1795.4</ele>
        <time>2024-08-13T15:00:53Z</time>
      </trkpt>
      <trkpt lat="44.86411" lon="6.10302">
        <ele>1795.4</ele>
        <time>2024-08-13T15:00:54Z</time>
      </trkpt>
      <trkpt lat="44.86411" lon="6.10302">
        <ele>1795.4</ele>
        <time>2024-08-13T15:00:55Z</time>
      </trkpt>
      <trkpt lat="44.86411" lon="6.10302">
        <ele>1795.4</ele>
        <time>2024-08-13T15:00:56Z</time>
      </trkpt>
      <trkpt lat="44.86411" lon="6.10302">
        <ele>1795.4</ele>
        <time>2024-08-13T15:00:57Z</time>
      </trkpt>
      <trkpt lat="44.86411" lon="6.10302">
        <ele>1795.4</ele>
        <time>2024-08-13T15:00:58Z</time>
      </trkpt>
      <trkpt lat="44.86411" lon="6.10302">
        <ele>1795.4</ele>
        <time>2024-08-13T15:00:59Z</time>
      </trkpt>
      <trkpt lat="44.86411" lon="6.10302">
        <ele>1795.2</ele>
        <time>2024-08-13T15:01:00Z</time>
      </trkpt>
      <trkpt lat="44.86411" lon="6.10302">
        <ele>1795.4</ele>
        <time>2024-08-13T15:01:01Z</time>
      </trkpt>
      <trkpt lat="44.86411" lon="6.10302">
        <ele>1795.4</ele>
        <time>2024-08-13T15:01:02Z</time>
      </trkpt>
      <trkpt lat="44.86411" lon="6.10302">
        <ele>1795.4</ele>
        <time>2024-08-13T15:01:03Z</time>
      </trkpt>
      <trkpt lat="44.86411" lon="6.10302">
        <ele>1795.4</ele>
        <time>2024-08-13T15:01:04Z</time>
      </trkpt>
      <trkpt lat="44.86411" lon="6.10302">
        <ele>1795.4</ele>
        <time>2024-08-13T15:01:05Z</time>
      </trkpt>
      <trkpt lat="44.86411" lon="6.10302">
        <ele>1795.4</ele>
        <time>2024-08-13T15:01:06Z</time>
      </trkpt>
      <trkpt lat="44.86411" lon="6.10302">
        <ele>1795.4</ele>
        <time>2024-08-13T15:01:07Z</time>
      </trkpt>
      <trkpt lat="44.86411" lon="6.10302">
        <ele>1795.2</ele>
        <time>2024-08-13T15:01:08Z</time>
      </trkpt>
      <trkpt lat="44.86411" lon="6.10302">
        <ele>1795.2</ele>
        <time>2024-08-13T15:01:09Z</time>
      </trkpt>
      <trkpt lat="44.86411" lon="6.10302">
        <ele>1795.4</ele>
        <time>2024-08-13T15:01:10Z</time>
      </trkpt>
      <trkpt lat="44.86411" lon="6.10299">
        <ele>1795.4</ele>
        <time>2024-08-13T15:01:11Z</time>
      </trkpt>
      <trkpt lat="44.86411" lon="6.10299">
        <ele>1795.4</ele>
        <time>2024-08-13T15:01:12Z</time>
      </trkpt>
      <trkpt lat="44.86413" lon="6.10296">
        <ele>1795</ele>
        <time>2024-08-13T15:01:13Z</time>
      </trkpt>
      <trkpt lat="44.86413" lon="6.10296">
        <ele>1794.2</ele>
        <time>2024-08-13T15:01:14Z</time>
      </trkpt>
      <trkpt lat="44.86416" lon="6.10295">
        <ele>1794.2</ele>
        <time>2024-08-13T15:01:15Z</time>
      </trkpt>
      <trkpt lat="44.86416" lon="6.10295">
        <ele>1794</ele>
        <time>2024-08-13T15:01:16Z</time>
      </trkpt>
      <trkpt lat="44.86418" lon="6.10294">
        <ele>1793.4</ele>
        <time>2024-08-13T15:01:17Z</time>
      </trkpt>
      <trkpt lat="44.86418" lon="6.10294">
        <ele>1793.2</ele>
        <time>2024-08-13T15:01:18Z</time>
      </trkpt>
      <trkpt lat="44.8642" lon="6.10293">
        <ele>1793</ele>
        <time>2024-08-13T15:01:19Z</time>
      </trkpt>
      <trkpt lat="44.8642" lon="6.10293">
        <ele>1793</ele>
        <time>2024-08-13T15:01:20Z</time>
      </trkpt>
      <trkpt lat="44.86422" lon="6.10292">
        <ele>1793</ele>
        <time>2024-08-13T15:01:21Z</time>
      </trkpt>
      <trkpt lat="44.86422" lon="6.10292">
        <ele>1792.8</ele>
        <time>2024-08-13T15:01:22Z</time>
      </trkpt>
      <trkpt lat="44.86422" lon="6.10292">
        <ele>1792.4</ele>
        <time>2024-08-13T15:01:23Z</time>
      </trkpt>
      <trkpt lat="44.86424" lon="6.10292">
        <ele>1792</ele>
        <time>2024-08-13T15:01:24Z</time>
      </trkpt>
      <trkpt lat="44.86424" lon="6.10292">
        <ele>1792</ele>
        <time>2024-08-13T15:01:25Z</time>
      </trkpt>
      <trkpt lat="44.86426" lon="6.10291">
        <ele>1792</ele>
        <time>2024-08-13T15:01:26Z</time>
      </trkpt>
      <trkpt lat="44.86426" lon="6.10291">
        <ele>1791.8</ele>
        <time>2024-08-13T15:01:27Z</time>
      </trkpt>
      <trkpt lat="44.86428" lon="6.1029">
        <ele>1791.2</ele>
        <time>2024-08-13T15:01:28Z</time>
      </trkpt>
      <trkpt lat="44.86428" lon="6.1029">
        <ele>1791</ele>
        <time>2024-08-13T15:01:29Z</time>
      </trkpt>
      <trkpt lat="44.8643" lon="6.1029">
        <ele>1791</ele>
        <time>2024-08-13T15:01:30Z</time>
      </trkpt>
      <trkpt lat="44.8643" lon="6.1029">
        <ele>1790.4</ele>
        <time>2024-08-13T15:01:31Z</time>
      </trkpt>
      <trkpt lat="44.8643" lon="6.1029">
        <ele>1790.4</ele>
        <time>2024-08-13T15:01:32Z</time>
      </trkpt>
      <trkpt lat="44.86432" lon="6.10289">
        <ele>1790</ele>
        <time>2024-08-13T15:01:33Z</time>
      </trkpt>
      <trkpt lat="44.86432" lon="6.10289">
        <ele>1789.4</ele>
        <time>2024-08-13T15:01:34Z</time>
      </trkpt>
      <trkpt lat="44.86434" lon="6.10289">
        <ele>1789.2</ele>
        <time>2024-08-13T15:01:35Z</time>
      </trkpt>
      <trkpt lat="44.86434" lon="6.10289">
        <ele>1788.8</ele>
        <time>2024-08-13T15:01:36Z</time>
      </trkpt>
      <trkpt lat="44.86436" lon="6.10288">
        <ele>1788.4</ele>
        <time>2024-08-13T15:01:37Z</time>
      </trkpt>
      <trkpt lat="44.86436" lon="6.10288">
        <ele>1788.2</ele>
        <time>2024-08-13T15:01:38Z</time>
      </trkpt>
      <trkpt lat="44.86438" lon="6.10287">
        <ele>1787.8</ele>
        <time>2024-08-13T15:01:39Z</time>
      </trkpt>
      <trkpt lat="44.86438" lon="6.10287">
        <ele>1787</ele>
        <time>2024-08-13T15:01:40Z</time>
      </trkpt>
      <trkpt lat="44.86441" lon="6.10286">
        <ele>1786.8</ele>
        <time>2024-08-13T15:01:41Z</time>
      </trkpt>
      <trkpt lat="44.86441" lon="6.10286">
        <ele>1786.6</ele>
        <time>2024-08-13T15:01:42Z</time>
      </trkpt>
      <trkpt lat="44.86443" lon="6.10285">
        <ele>1786</ele>
        <time>2024-08-13T15:01:43Z</time>
      </trkpt>
      <trkpt lat="44.86443" lon="6.10285">
        <ele>1786</ele>
        <time>2024-08-13T15:01:44Z</time>
      </trkpt>
      <trkpt lat="44.86446" lon="6.10285">
        <ele>1785.8</ele>
        <time>2024-08-13T15:01:45Z</time>
      </trkpt>
      <trkpt lat="44.86446" lon="6.10285">
        <ele>1785.6</ele>
        <time>2024-08-13T15:01:46Z</time>
      </trkpt>
      <trkpt lat="44.86448" lon="6.10284">
        <ele>1785.4</ele>
        <time>2024-08-13T15:01:47Z</time>
      </trkpt>
      <trkpt lat="44.86448" lon="6.10284">
        <ele>1785.2</ele>
        <time>2024-08-13T15:01:48Z</time>
      </trkpt>
      <trkpt lat="44.8645" lon="6.10284">
        <ele>1785</ele>
        <time>2024-08-13T15:01:49Z</time>
      </trkpt>
      <trkpt lat="44.8645" lon="6.10284">
        <ele>1784.4</ele>
        <time>2024-08-13T15:01:50Z</time>
      </trkpt>
      <trkpt lat="44.86453" lon="6.10282">
        <ele>1784.4</ele>
        <time>2024-08-13T15:01:51Z</time>
      </trkpt>
      <trkpt lat="44.86453" lon="6.10282">
        <ele>1784.2</ele>
        <time>2024-08-13T15:01:52Z</time>
      </trkpt>
      <trkpt lat="44.86454" lon="6.1028">
        <ele>1783.8</ele>
        <time>2024-08-13T15:01:53Z</time>
      </trkpt>
      <trkpt lat="44.86454" lon="6.1028">
        <ele>1783.4</ele>
        <time>2024-08-13T15:01:54Z</time>
      </trkpt>
      <trkpt lat="44.86457" lon="6.10279">
        <ele>1783.2</ele>
        <time>2024-08-13T15:01:55Z</time>
      </trkpt>
      <trkpt lat="44.86457" lon="6.10279">
        <ele>1783</ele>
        <time>2024-08-13T15:01:56Z</time>
      </trkpt>
      <trkpt lat="44.86457" lon="6.10279">
        <ele>1783</ele>
        <time>2024-08-13T15:01:57Z</time>
      </trkpt>
      <trkpt lat="44.86457" lon="6.10279">
        <ele>1783</ele>
        <time>2024-08-13T15:01:58Z</time>
      </trkpt>
      <trkpt lat="44.86459" lon="6.10278">
        <ele>1783</ele>
        <time>2024-08-13T15:01:59Z</time>
      </trkpt>
      <trkpt lat="44.86459" lon="6.10278">
        <ele>1783</ele>
        <time>2024-08-13T15:02:00Z</time>
      </trkpt>
      <trkpt lat="44.86459" lon="6.10278">
        <ele>1783</ele>
        <time>2024-08-13T15:02:01Z</time>
      </trkpt>
      <trkpt lat="44.86459" lon="6.10278">
        <ele>1783.2</ele>
        <time>2024-08-13T15:02:02Z</time>
      </trkpt>
      <trkpt lat="44.86459" lon="6.10278">
        <ele>1783.2</ele>
        <time>2024-08-13T15:02:03Z</time>
      </trkpt>
      <trkpt lat="44.86459" lon="6.10278">
        <ele>1783.4</ele>
        <time>2024-08-13T15:02:04Z</time>
      </trkpt>
      <trkpt lat="44.86459" lon="6.10278">
        <ele>1783.4</ele>
        <time>2024-08-13T15:02:05Z</time>
      </trkpt>
      <trkpt lat="44.86459" lon="6.10278">
        <ele>1783.4</ele>
        <time>2024-08-13T15:02:06Z</time>
      </trkpt>
      <trkpt lat="44.86459" lon="6.10278">
        <ele>1783.2</ele>
        <time>2024-08-13T15:02:07Z</time>
      </trkpt>
      <trkpt lat="44.86459" lon="6.10278">
        <ele>1783.2</ele>
        <time>2024-08-13T15:02:08Z</time>
      </trkpt>
      <trkpt lat="44.86459" lon="6.10278">
        <ele>1783.2</ele>
        <time>2024-08-13T15:02:09Z</time>
      </trkpt>
      <trkpt lat="44.86459" lon="6.10278">
        <ele>1783.2</ele>
        <time>2024-08-13T15:02:10Z</time>
      </trkpt>
      <trkpt lat="44.86459" lon="6.10278">
        <ele>1783.2</ele>
        <time>2024-08-13T15:02:11Z</time>
      </trkpt>
      <trkpt lat="44.86459" lon="6.10278">
        <ele>1783.2</ele>
        <time>2024-08-13T15:02:12Z</time>
      </trkpt>
      <trkpt lat="44.86459" lon="6.10278">
        <ele>1782.8</ele>
        <time>2024-08-13T15:02:13Z</time>
      </trkpt>
      <trkpt lat="44.86461" lon="6.10277">
        <ele>1782.6</ele>
        <time>2024-08-13T15:02:14Z</time>
      </trkpt>
      <trkpt lat="44.86461" lon="6.10277">
        <ele>1782.2</ele>
        <time>2024-08-13T15:02:15Z</time>
      </trkpt>
      <trkpt lat="44.86463" lon="6.10275">
        <ele>1781.8</ele>
        <time>2024-08-13T15:02:16Z</time>
      </trkpt>
      <trkpt lat="44.86463" lon="6.10275">
        <ele>1781.8</ele>
        <time>2024-08-13T15:02:17Z</time>
      </trkpt>
      <trkpt lat="44.86463" lon="6.10275">
        <ele>1781.4</ele>
        <time>2024-08-13T15:02:18Z</time>
      </trkpt>
      <trkpt lat="44.86465" lon="6.10274">
        <ele>1781.4</ele>
        <time>2024-08-13T15:02:19Z</time>
      </trkpt>
      <trkpt lat="44.86465" lon="6.10274">
        <ele>1781.2</ele>
        <time>2024-08-13T15:02:20Z</time>
      </trkpt>
      <trkpt lat="44.86465" lon="6.10274">
        <ele>1781</ele>
        <time>2024-08-13T15:02:21Z</time>
      </trkpt>
      <trkpt lat="44.86465" lon="6.10274">
        <ele>1780.6</ele>
        <time>2024-08-13T15:02:22Z</time>
      </trkpt>
      <trkpt lat="44.86463" lon="6.10272">
        <ele>1780.2</ele>
        <time>2024-08-13T15:02:23Z</time>
      </trkpt>
      <trkpt lat="44.86463" lon="6.10272">
        <ele>1780</ele>
        <time>2024-08-13T15:02:24Z</time>
      </trkpt>
      <trkpt lat="44.86463" lon="6.10272">
        <ele>1779.2</ele>
        <time>2024-08-13T15:02:25Z</time>
      </trkpt>
      <trkpt lat="44.86461" lon="6.10272">
        <ele>1778.8</ele>
        <time>2024-08-13T15:02:26Z</time>
      </trkpt>
      <trkpt lat="44.86461" lon="6.10272">
        <ele>1778.6</ele>
        <time>2024-08-13T15:02:27Z</time>
      </trkpt>
      <trkpt lat="44.86461" lon="6.10272">
        <ele>1778.6</ele>
        <time>2024-08-13T15:02:28Z</time>
      </trkpt>
      <trkpt lat="44.86461" lon="6.10272">
        <ele>1778.4</ele>
        <time>2024-08-13T15:02:29Z</time>
      </trkpt>
      <trkpt lat="44.86461" lon="6.10272">
        <ele>1778</ele>
        <time>2024-08-13T15:02:30Z</time>
      </trkpt>
      <trkpt lat="44.86461" lon="6.10272">
        <ele>1778</ele>
        <time>2024-08-13T15:02:31Z</time>
      </trkpt>
      <trkpt lat="44.86461" lon="6.10272">
        <ele>1777.6</ele>
        <time>2024-08-13T15:02:32Z</time>
      </trkpt>
      <trkpt lat="44.86461" lon="6.10272">
        <ele>1777.6</ele>
        <time>2024-08-13T15:02:33Z</time>
      </trkpt>
      <trkpt lat="44.86459" lon="6.10271">
        <ele>1777.4</ele>
        <time>2024-08-13T15:02:34Z</time>
      </trkpt>
      <trkpt lat="44.86459" lon="6.10271">
        <ele>1777</ele>
        <time>2024-08-13T15:02:35Z</time>
      </trkpt>
      <trkpt lat="44.86459" lon="6.10271">
        <ele>1776.8</ele>
        <time>2024-08-13T15:02:36Z</time>
      </trkpt>
      <trkpt lat="44.86459" lon="6.10271">
        <ele>1776.2</ele>
        <time>2024-08-13T15:02:37Z</time>
      </trkpt>
      <trkpt lat="44.86459" lon="6.10271">
        <ele>1776.2</ele>
        <time>2024-08-13T15:02:38Z</time>
      </trkpt>
      <trkpt lat="44.86459" lon="6.10271">
        <ele>1775.6</ele>
        <time>2024-08-13T15:02:39Z</time>
      </trkpt>
      <trkpt lat="44.86459" lon="6.10271">
        <ele>1775.4</ele>
        <time>2024-08-13T15:02:40Z</time>
      </trkpt>
      <trkpt lat="44.86459" lon="6.10271">
        <ele>1775</ele>
        <time>2024-08-13T15:02:41Z</time>
      </trkpt>
      <trkpt lat="44.8646" lon="6.10268">
        <ele>1774.8</ele>
        <time>2024-08-13T15:02:42Z</time>
      </trkpt>
      <trkpt lat="44.8646" lon="6.10268">
        <ele>1774.6</ele>
        <time>2024-08-13T15:02:43Z</time>
      </trkpt>
      <trkpt lat="44.86462" lon="6.10265">
        <ele>1774.2</ele>
        <time>2024-08-13T15:02:44Z</time>
      </trkpt>
      <trkpt lat="44.86462" lon="6.10265">
        <ele>1774</ele>
        <time>2024-08-13T15:02:45Z</time>
      </trkpt>
      <trkpt lat="44.86462" lon="6.10265">
        <ele>1773.8</ele>
        <time>2024-08-13T15:02:46Z</time>
      </trkpt>
      <trkpt lat="44.86462" lon="6.10265">
        <ele>1773.6</ele>
        <time>2024-08-13T15:02:47Z</time>
      </trkpt>
      <trkpt lat="44.86461" lon="6.10263">
        <ele>1773.4</ele>
        <time>2024-08-13T15:02:48Z</time>
      </trkpt>
      <trkpt lat="44.86461" lon="6.10263">
        <ele>1773.2</ele>
        <time>2024-08-13T15:02:49Z</time>
      </trkpt>
      <trkpt lat="44.86458" lon="6.10263">
        <ele>1773.2</ele>
        <time>2024-08-13T15:02:50Z</time>
      </trkpt>
      <trkpt lat="44.86458" lon="6.10263">
        <ele>1773</ele>
        <time>2024-08-13T15:02:51Z</time>
      </trkpt>
      <trkpt lat="44.86456" lon="6.10264">
        <ele>1772.6</ele>
        <time>2024-08-13T15:02:52Z</time>
      </trkpt>
      <trkpt lat="44.86456" lon="6.10264">
        <ele>1772.6</ele>
        <time>2024-08-13T15:02:53Z</time>
      </trkpt>
      <trkpt lat="44.86454" lon="6.10264">
        <ele>1772.6</ele>
        <time>2024-08-13T15:02:54Z</time>
      </trkpt>
      <trkpt lat="44.86454" lon="6.10264">
        <ele>1772.6</ele>
        <time>2024-08-13T15:02:55Z</time>
      </trkpt>
      <trkpt lat="44.86453" lon="6.10265">
        <ele>1772.6</ele>
        <time>2024-08-13T15:02:56Z</time>
      </trkpt>
      <trkpt lat="44.86453" lon="6.10265">
        <ele>1772.2</ele>
        <time>2024-08-13T15:02:57Z</time>
      </trkpt>
      <trkpt lat="44.8645" lon="6.10266">
        <ele>1771.8</ele>
        <time>2024-08-13T15:02:58Z</time>
      </trkpt>
      <trkpt lat="44.8645" lon="6.10266">
        <ele>1771.4</ele>
        <time>2024-08-13T15:02:59Z</time>
      </trkpt>
      <trkpt lat="44.86448" lon="6.10266">
        <ele>1771.2</ele>
        <time>2024-08-13T15:03:00Z</time>
      </trkpt>
      <trkpt lat="44.86448" lon="6.10266">
        <ele>1771.2</ele>
        <time>2024-08-13T15:03:01Z</time>
      </trkpt>
      <trkpt lat="44.86448" lon="6.10266">
        <ele>1771</ele>
        <time>2024-08-13T15:03:02Z</time>
      </trkpt>
      <trkpt lat="44.86448" lon="6.10266">
        <ele>1770.6</ele>
        <time>2024-08-13T15:03:03Z</time>
      </trkpt>
      <trkpt lat="44.86449" lon="6.10262">
        <ele>1770.4</ele>
        <time>2024-08-13T15:03:04Z</time>
      </trkpt>
      <trkpt lat="44.86449" lon="6.10262">
        <ele>1770.2</ele>
        <time>2024-08-13T15:03:05Z</time>
      </trkpt>
      <trkpt lat="44.86451" lon="6.1026">
        <ele>1769.8</ele>
        <time>2024-08-13T15:03:06Z</time>
      </trkpt>
      <trkpt lat="44.86451" lon="6.1026">
        <ele>1769.6</ele>
        <time>2024-08-13T15:03:07Z</time>
      </trkpt>
      <trkpt lat="44.86454" lon="6.10259">
        <ele>1769.4</ele>
        <time>2024-08-13T15:03:08Z</time>
      </trkpt>
      <trkpt lat="44.86454" lon="6.10259">
        <ele>1769.2</ele>
        <time>2024-08-13T15:03:09Z</time>
      </trkpt>
      <trkpt lat="44.86454" lon="6.10259">
        <ele>1769.2</ele>
        <time>2024-08-13T15:03:10Z</time>
      </trkpt>
      <trkpt lat="44.86456" lon="6.10257">
        <ele>1769</ele>
        <time>2024-08-13T15:03:11Z</time>
      </trkpt>
      <trkpt lat="44.86456" lon="6.10257">
        <ele>1769</ele>
        <time>2024-08-13T15:03:12Z</time>
      </trkpt>
      <trkpt lat="44.86458" lon="6.10255">
        <ele>1768.8</ele>
        <time>2024-08-13T15:03:13Z</time>
      </trkpt>
      <trkpt lat="44.86458" lon="6.10255">
        <ele>1768.4</ele>
        <time>2024-08-13T15:03:14Z</time>
      </trkpt>
      <trkpt lat="44.86459" lon="6.10253">
        <ele>1767.8</ele>
        <time>2024-08-13T15:03:15Z</time>
      </trkpt>
      <trkpt lat="44.86459" lon="6.10253">
        <ele>1767.8</ele>
        <time>2024-08-13T15:03:16Z</time>
      </trkpt>
      <trkpt lat="44.86461" lon="6.10251">
        <ele>1767.6</ele>
        <time>2024-08-13T15:03:17Z</time>
      </trkpt>
      <trkpt lat="44.86461" lon="6.10251">
        <ele>1767.4</ele>
        <time>2024-08-13T15:03:18Z</time>
      </trkpt>
      <trkpt lat="44.86461" lon="6.10251">
        <ele>1767.4</ele>
        <time>2024-08-13T15:03:19Z</time>
      </trkpt>
      <trkpt lat="44.86461" lon="6.10251">
        <ele>1766.8</ele>
        <time>2024-08-13T15:03:20Z</time>
      </trkpt>
      <trkpt lat="44.86461" lon="6.10251">
        <ele>1766.6</ele>
        <time>2024-08-13T15:03:21Z</time>
      </trkpt>
      <trkpt lat="44.86461" lon="6.10251">
        <ele>1766.6</ele>
        <time>2024-08-13T15:03:22Z</time>
      </trkpt>
      <trkpt lat="44.86461" lon="6.10251">
        <ele>1766.6</ele>
        <time>2024-08-13T15:03:23Z</time>
      </trkpt>
      <trkpt lat="44.86461" lon="6.10251">
        <ele>1766.4</ele>
        <time>2024-08-13T15:03:24Z</time>
      </trkpt>
      <trkpt lat="44.86461" lon="6.10251">
        <ele>1766.2</ele>
        <time>2024-08-13T15:03:25Z</time>
      </trkpt>
      <trkpt lat="44.86461" lon="6.10251">
        <ele>1766.2</ele>
        <time>2024-08-13T15:03:26Z</time>
      </trkpt>
      <trkpt lat="44.86461" lon="6.10251">
        <ele>1766.2</ele>
        <time>2024-08-13T15:03:27Z</time>
      </trkpt>
      <trkpt lat="44.86461" lon="6.10251">
        <ele>1766.2</ele>
        <time>2024-08-13T15:03:28Z</time>
      </trkpt>
      <trkpt lat="44.86461" lon="6.10251">
        <ele>1766.2</ele>
        <time>2024-08-13T15:03:29Z</time>
      </trkpt>
      <trkpt lat="44.86461" lon="6.10251">
        <ele>1766</ele>
        <time>2024-08-13T15:03:30Z</time>
      </trkpt>
      <trkpt lat="44.86461" lon="6.10251">
        <ele>1766</ele>
        <time>2024-08-13T15:03:31Z</time>
      </trkpt>
      <trkpt lat="44.86461" lon="6.10251">
        <ele>1766</ele>
        <time>2024-08-13T15:03:32Z</time>
      </trkpt>
      <trkpt lat="44.86461" lon="6.10251">
        <ele>1766</ele>
        <time>2024-08-13T15:03:33Z</time>
      </trkpt>
      <trkpt lat="44.86461" lon="6.10251">
        <ele>1766</ele>
        <time>2024-08-13T15:03:34Z</time>
      </trkpt>
      <trkpt lat="44.86461" lon="6.10251">
        <ele>1766</ele>
        <time>2024-08-13T15:03:35Z</time>
      </trkpt>
      <trkpt lat="44.86461" lon="6.10251">
        <ele>1766.2</ele>
        <time>2024-08-13T15:03:36Z</time>
      </trkpt>
      <trkpt lat="44.86461" lon="6.10251">
        <ele>1766.2</ele>
        <time>2024-08-13T15:03:37Z</time>
      </trkpt>
      <trkpt lat="44.86461" lon="6.10251">
        <ele>1766.4</ele>
        <time>2024-08-13T15:03:38Z</time>
      </trkpt>
      <trkpt lat="44.86461" lon="6.10251">
        <ele>1766.2</ele>
        <time>2024-08-13T15:03:39Z</time>
      </trkpt>
      <trkpt lat="44.86458" lon="6.10251">
        <ele>1766.2</ele>
        <time>2024-08-13T15:03:40Z</time>
      </trkpt>
      <trkpt lat="44.86456" lon="6.10251">
        <ele>1765.6</ele>
        <time>2024-08-13T15:03:41Z</time>
      </trkpt>
      <trkpt lat="44.86456" lon="6.10251">
        <ele>1765.4</ele>
        <time>2024-08-13T15:03:42Z</time>
      </trkpt>
      <trkpt lat="44.86454" lon="6.10251">
        <ele>1765.2</ele>
        <time>2024-08-13T15:03:43Z</time>
      </trkpt>
      <trkpt lat="44.86454" lon="6.10251">
        <ele>1765</ele>
        <time>2024-08-13T15:03:44Z</time>
      </trkpt>
      <trkpt lat="44.86451" lon="6.10251">
        <ele>1764.6</ele>
        <time>2024-08-13T15:03:45Z</time>
      </trkpt>
      <trkpt lat="44.86451" lon="6.10251">
        <ele>1764.4</ele>
        <time>2024-08-13T15:03:46Z</time>
      </trkpt>
      <trkpt lat="44.86449" lon="6.10252">
        <ele>1764.2</ele>
        <time>2024-08-13T15:03:47Z</time>
      </trkpt>
      <trkpt lat="44.86449" lon="6.10252">
        <ele>1763.8</ele>
        <time>2024-08-13T15:03:48Z</time>
      </trkpt>
      <trkpt lat="44.86446" lon="6.10252">
        <ele>1763.6</ele>
        <time>2024-08-13T15:03:49Z</time>
      </trkpt>
      <trkpt lat="44.86446" lon="6.10252">
        <ele>1763.6</ele>
        <time>2024-08-13T15:03:50Z</time>
      </trkpt>
      <trkpt lat="44.86445" lon="6.10252">
        <ele>1763.4</ele>
        <time>2024-08-13T15:03:51Z</time>
      </trkpt>
      <trkpt lat="44.86445" lon="6.10252">
        <ele>1763</ele>
        <time>2024-08-13T15:03:52Z</time>
      </trkpt>
      <trkpt lat="44.86443" lon="6.10253">
        <ele>1763</ele>
        <time>2024-08-13T15:03:53Z</time>
      </trkpt>
      <trkpt lat="44.86443" lon="6.10253">
        <ele>1762.8</ele>
        <time>2024-08-13T15:03:54Z</time>
      </trkpt>
      <trkpt lat="44.86441" lon="6.10253">
        <ele>1762.6</ele>
        <time>2024-08-13T15:03:55Z</time>
      </trkpt>
      <trkpt lat="44.86441" lon="6.10253">
        <ele>1762.4</ele>
        <time>2024-08-13T15:03:56Z</time>
      </trkpt>
      <trkpt lat="44.86441" lon="6.10253">
        <ele>1761.8</ele>
        <time>2024-08-13T15:03:57Z</time>
      </trkpt>
      <trkpt lat="44.86438" lon="6.10254">
        <ele>1761.8</ele>
        <time>2024-08-13T15:03:58Z</time>
      </trkpt>
      <trkpt lat="44.86438" lon="6.10254">
        <ele>1761.6</ele>
        <time>2024-08-13T15:03:59Z</time>
      </trkpt>
      <trkpt lat="44.86438" lon="6.10254">
        <ele>1761.2</ele>
        <time>2024-08-13T15:04:00Z</time>
      </trkpt>
      <trkpt lat="44.86438" lon="6.10254">
        <ele>1761</ele>
        <time>2024-08-13T15:04:01Z</time>
      </trkpt>
      <trkpt lat="44.86438" lon="6.10254">
        <ele>1760.4</ele>
        <time>2024-08-13T15:04:02Z</time>
      </trkpt>
      <trkpt lat="44.86439" lon="6.10251">
        <ele>1760.4</ele>
        <time>2024-08-13T15:04:03Z</time>
      </trkpt>
      <trkpt lat="44.86439" lon="6.10251">
        <ele>1760.2</ele>
        <time>2024-08-13T15:04:04Z</time>
      </trkpt>
      <trkpt lat="44.8644" lon="6.10249">
        <ele>1760.2</ele>
        <time>2024-08-13T15:04:05Z</time>
      </trkpt>
      <trkpt lat="44.8644" lon="6.10249">
        <ele>1760</ele>
        <time>2024-08-13T15:04:06Z</time>
      </trkpt>
      <trkpt lat="44.86442" lon="6.10247">
        <ele>1760</ele>
        <time>2024-08-13T15:04:07Z</time>
      </trkpt>
      <trkpt lat="44.86442" lon="6.10247">
        <ele>1759.8</ele>
        <time>2024-08-13T15:04:08Z</time>
      </trkpt>
      <trkpt lat="44.86444" lon="6.10245">
        <ele>1759.4</ele>
        <time>2024-08-13T15:04:09Z</time>
      </trkpt>
      <trkpt lat="44.86444" lon="6.10245">
        <ele>1759.2</ele>
        <time>2024-08-13T15:04:10Z</time>
      </trkpt>
      <trkpt lat="44.86446" lon="6.10244">
        <ele>1759.2</ele>
        <time>2024-08-13T15:04:11Z</time>
      </trkpt>
      <trkpt lat="44.86446" lon="6.10244">
        <ele>1759</ele>
        <time>2024-08-13T15:04:12Z</time>
      </trkpt>
      <trkpt lat="44.86447" lon="6.10242">
        <ele>1758.8</ele>
        <time>2024-08-13T15:04:13Z</time>
      </trkpt>
      <trkpt lat="44.86447" lon="6.10242">
        <ele>1758.8</ele>
        <time>2024-08-13T15:04:14Z</time>
      </trkpt>
      <trkpt lat="44.86449" lon="6.1024">
        <ele>1758.6</ele>
        <time>2024-08-13T15:04:15Z</time>
      </trkpt>
      <trkpt lat="44.86449" lon="6.1024">
        <ele>1758.4</ele>
        <time>2024-08-13T15:04:16Z</time>
      </trkpt>
      <trkpt lat="44.86449" lon="6.1024">
        <ele>1758</ele>
        <time>2024-08-13T15:04:17Z</time>
      </trkpt>
      <trkpt lat="44.86451" lon="6.10238">
        <ele>1758</ele>
        <time>2024-08-13T15:04:18Z</time>
      </trkpt>
      <trkpt lat="44.86451" lon="6.10238">
        <ele>1757.6</ele>
        <time>2024-08-13T15:04:19Z</time>
      </trkpt>
      <trkpt lat="44.86451" lon="6.10238">
        <ele>1757.4</ele>
        <time>2024-08-13T15:04:20Z</time>
      </trkpt>
      <trkpt lat="44.86451" lon="6.10238">
        <ele>1757.4</ele>
        <time>2024-08-13T15:04:21Z</time>
      </trkpt>
      <trkpt lat="44.86449" lon="6.10237">
        <ele>1756.8</ele>
        <time>2024-08-13T15:04:22Z</time>
      </trkpt>
      <trkpt lat="44.86449" lon="6.10237">
        <ele>1756.4</ele>
        <time>2024-08-13T15:04:23Z</time>
      </trkpt>
      <trkpt lat="44.86446" lon="6.10237">
        <ele>1756.4</ele>
        <time>2024-08-13T15:04:24Z</time>
      </trkpt>
      <trkpt lat="44.86446" lon="6.10237">
        <ele>1756</ele>
        <time>2024-08-13T15:04:25Z</time>
      </trkpt>
      <trkpt lat="44.86444" lon="6.10237">
        <ele>1756</ele>
        <time>2024-08-13T15:04:26Z</time>
      </trkpt>
      <trkpt lat="44.86444" lon="6.10237">
        <ele>1756</ele>
        <time>2024-08-13T15:04:27Z</time>
      </trkpt>
      <trkpt lat="44.86444" lon="6.10237">
        <ele>1756</ele>
        <time>2024-08-13T15:04:28Z</time>
      </trkpt>
      <trkpt lat="44.86441" lon="6.10237">
        <ele>1755.8</ele>
        <time>2024-08-13T15:04:29Z</time>
      </trkpt>
      <trkpt lat="44.86441" lon="6.10237">
        <ele>1755</ele>
        <time>2024-08-13T15:04:30Z</time>
      </trkpt>
      <trkpt lat="44.86441" lon="6.10237">
        <ele>1754.6</ele>
        <time>2024-08-13T15:04:31Z</time>
      </trkpt>
      <trkpt lat="44.86441" lon="6.10237">
        <ele>1754.2</ele>
        <time>2024-08-13T15:04:32Z</time>
      </trkpt>
      <trkpt lat="44.86441" lon="6.10237">
        <ele>1754</ele>
        <time>2024-08-13T15:04:33Z</time>
      </trkpt>
      <trkpt lat="44.86441" lon="6.10237">
        <ele>1754</ele>
        <time>2024-08-13T15:04:34Z</time>
      </trkpt>
      <trkpt lat="44.86441" lon="6.10237">
        <ele>1754</ele>
        <time>2024-08-13T15:04:35Z</time>
      </trkpt>
      <trkpt lat="44.86439" lon="6.10237">
        <ele>1753.6</ele>
        <time>2024-08-13T15:04:36Z</time>
      </trkpt>
      <trkpt lat="44.86437" lon="6.10237">
        <ele>1753.2</ele>
        <time>2024-08-13T15:04:37Z</time>
      </trkpt>
      <trkpt lat="44.86435" lon="6.10238">
        <ele>1753</ele>
        <time>2024-08-13T15:04:38Z</time>
      </trkpt>
      <trkpt lat="44.86433" lon="6.10238">
        <ele>1752.6</ele>
        <time>2024-08-13T15:04:39Z</time>
      </trkpt>
      <trkpt lat="44.86433" lon="6.10238">
        <ele>1752</ele>
        <time>2024-08-13T15:04:40Z</time>
      </trkpt>
      <trkpt lat="44.86431" lon="6.10239">
        <ele>1751.8</ele>
        <time>2024-08-13T15:04:41Z</time>
      </trkpt>
      <trkpt lat="44.86431" lon="6.10239">
        <ele>1751.4</ele>
        <time>2024-08-13T15:04:42Z</time>
      </trkpt>
      <trkpt lat="44.86429" lon="6.1024">
        <ele>1751</ele>
        <time>2024-08-13T15:04:43Z</time>
      </trkpt>
      <trkpt lat="44.86429" lon="6.1024">
        <ele>1751</ele>
        <time>2024-08-13T15:04:44Z</time>
      </trkpt>
      <trkpt lat="44.86427" lon="6.10241">
        <ele>1750.6</ele>
        <time>2024-08-13T15:04:45Z</time>
      </trkpt>
      <trkpt lat="44.86427" lon="6.10241">
        <ele>1750.4</ele>
        <time>2024-08-13T15:04:46Z</time>
      </trkpt>
      <trkpt lat="44.86425" lon="6.10242">
        <ele>1750</ele>
        <time>2024-08-13T15:04:47Z</time>
      </trkpt>
      <trkpt lat="44.86425" lon="6.10242">
        <ele>1749.6</ele>
        <time>2024-08-13T15:04:48Z</time>
      </trkpt>
      <trkpt lat="44.86422" lon="6.10242">
        <ele>1749.6</ele>
        <time>2024-08-13T15:04:49Z</time>
      </trkpt>
      <trkpt lat="44.86422" lon="6.10242">
        <ele>1749.6</ele>
        <time>2024-08-13T15:04:50Z</time>
      </trkpt>
      <trkpt lat="44.8642" lon="6.10243">
        <ele>1749.6</ele>
        <time>2024-08-13T15:04:51Z</time>
      </trkpt>
      <trkpt lat="44.8642" lon="6.10243">
        <ele>1749.4</ele>
        <time>2024-08-13T15:04:52Z</time>
      </trkpt>
      <trkpt lat="44.86416" lon="6.10242">
        <ele>1749</ele>
        <time>2024-08-13T15:04:53Z</time>
      </trkpt>
      <trkpt lat="44.86416" lon="6.10242">
        <ele>1748.8</ele>
        <time>2024-08-13T15:04:54Z</time>
      </trkpt>
      <trkpt lat="44.86413" lon="6.10242">
        <ele>1748.8</ele>
        <time>2024-08-13T15:04:55Z</time>
      </trkpt>
      <trkpt lat="44.86413" lon="6.10242">
        <ele>1748.8</ele>
        <time>2024-08-13T15:04:56Z</time>
      </trkpt>
      <trkpt lat="44.86411" lon="6.10241">
        <ele>1748.6</ele>
        <time>2024-08-13T15:04:57Z</time>
      </trkpt>
      <trkpt lat="44.86411" lon="6.10241">
        <ele>1748.8</ele>
        <time>2024-08-13T15:04:58Z</time>
      </trkpt>
      <trkpt lat="44.86411" lon="6.10241">
        <ele>1748.6</ele>
        <time>2024-08-13T15:04:59Z</time>
      </trkpt>
      <trkpt lat="44.86409" lon="6.10241">
        <ele>1748.6</ele>
        <time>2024-08-13T15:05:00Z</time>
      </trkpt>
      <trkpt lat="44.86409" lon="6.10241">
        <ele>1748.2</ele>
        <time>2024-08-13T15:05:01Z</time>
      </trkpt>
      <trkpt lat="44.86409" lon="6.10241">
        <ele>1748</ele>
        <time>2024-08-13T15:05:02Z</time>
      </trkpt>
      <trkpt lat="44.86409" lon="6.10241">
        <ele>1747.4</ele>
        <time>2024-08-13T15:05:03Z</time>
      </trkpt>
      <trkpt lat="44.86407" lon="6.10243">
        <ele>1747.4</ele>
        <time>2024-08-13T15:05:04Z</time>
      </trkpt>
      <trkpt lat="44.86407" lon="6.10243">
        <ele>1747.2</ele>
        <time>2024-08-13T15:05:05Z</time>
      </trkpt>
      <trkpt lat="44.86407" lon="6.10243">
        <ele>1747.2</ele>
        <time>2024-08-13T15:05:06Z</time>
      </trkpt>
      <trkpt lat="44.86405" lon="6.10243">
        <ele>1747</ele>
        <time>2024-08-13T15:05:07Z</time>
      </trkpt>
      <trkpt lat="44.86405" lon="6.10243">
        <ele>1746.6</ele>
        <time>2024-08-13T15:05:08Z</time>
      </trkpt>
      <trkpt lat="44.86402" lon="6.10244">
        <ele>1746.4</ele>
        <time>2024-08-13T15:05:09Z</time>
      </trkpt>
      <trkpt lat="44.86402" lon="6.10244">
        <ele>1746.2</ele>
        <time>2024-08-13T15:05:10Z</time>
      </trkpt>
      <trkpt lat="44.864" lon="6.10245">
        <ele>1746</ele>
        <time>2024-08-13T15:05:11Z</time>
      </trkpt>
      <trkpt lat="44.864" lon="6.10245">
        <ele>1746</ele>
        <time>2024-08-13T15:05:12Z</time>
      </trkpt>
      <trkpt lat="44.864" lon="6.10245">
        <ele>1745.8</ele>
        <time>2024-08-13T15:05:13Z</time>
      </trkpt>
      <trkpt lat="44.86398" lon="6.10246">
        <ele>1745.6</ele>
        <time>2024-08-13T15:05:14Z</time>
      </trkpt>
      <trkpt lat="44.86398" lon="6.10246">
        <ele>1745.4</ele>
        <time>2024-08-13T15:05:15Z</time>
      </trkpt>
      <trkpt lat="44.86396" lon="6.10246">
        <ele>1745.2</ele>
        <time>2024-08-13T15:05:16Z</time>
      </trkpt>
      <trkpt lat="44.86396" lon="6.10246">
        <ele>1745</ele>
        <time>2024-08-13T15:05:17Z</time>
      </trkpt>
      <trkpt lat="44.86394" lon="6.10246">
        <ele>1744.8</ele>
        <time>2024-08-13T15:05:18Z</time>
      </trkpt>
      <trkpt lat="44.86394" lon="6.10246">
        <ele>1744.6</ele>
        <time>2024-08-13T15:05:19Z</time>
      </trkpt>
      <trkpt lat="44.86391" lon="6.10247">
        <ele>1744.6</ele>
        <time>2024-08-13T15:05:20Z</time>
      </trkpt>
      <trkpt lat="44.86389" lon="6.10247">
        <ele>1744</ele>
        <time>2024-08-13T15:05:21Z</time>
      </trkpt>
      <trkpt lat="44.86389" lon="6.10247">
        <ele>1744</ele>
        <time>2024-08-13T15:05:22Z</time>
      </trkpt>
      <trkpt lat="44.86389" lon="6.10247">
        <ele>1743.6</ele>
        <time>2024-08-13T15:05:23Z</time>
      </trkpt>
      <trkpt lat="44.86389" lon="6.10247">
        <ele>1743.2</ele>
        <time>2024-08-13T15:05:24Z</time>
      </trkpt>
      <trkpt lat="44.86389" lon="6.10247">
        <ele>1743.2</ele>
        <time>2024-08-13T15:05:25Z</time>
      </trkpt>
      <trkpt lat="44.86389" lon="6.10247">
        <ele>1743</ele>
        <time>2024-08-13T15:05:26Z</time>
      </trkpt>
      <trkpt lat="44.86389" lon="6.10247">
        <ele>1742.8</ele>
        <time>2024-08-13T15:05:27Z</time>
      </trkpt>
      <trkpt lat="44.86389" lon="6.10247">
        <ele>1742.4</ele>
        <time>2024-08-13T15:05:28Z</time>
      </trkpt>
      <trkpt lat="44.86389" lon="6.10247">
        <ele>1741.8</ele>
        <time>2024-08-13T15:05:29Z</time>
      </trkpt>
      <trkpt lat="44.86387" lon="6.10247">
        <ele>1741.6</ele>
        <time>2024-08-13T15:05:30Z</time>
      </trkpt>
      <trkpt lat="44.86387" lon="6.10247">
        <ele>1741.4</ele>
        <time>2024-08-13T15:05:31Z</time>
      </trkpt>
      <trkpt lat="44.86384" lon="6.10248">
        <ele>1741</ele>
        <time>2024-08-13T15:05:32Z</time>
      </trkpt>
      <trkpt lat="44.86384" lon="6.10248">
        <ele>1741</ele>
        <time>2024-08-13T15:05:33Z</time>
      </trkpt>
      <trkpt lat="44.86382" lon="6.1025">
        <ele>1740.6</ele>
        <time>2024-08-13T15:05:34Z</time>
      </trkpt>
      <trkpt lat="44.86382" lon="6.1025">
        <ele>1740.4</ele>
        <time>2024-08-13T15:05:35Z</time>
      </trkpt>
      <trkpt lat="44.86381" lon="6.1025">
        <ele>1740.4</ele>
        <time>2024-08-13T15:05:36Z</time>
      </trkpt>
      <trkpt lat="44.86381" lon="6.1025">
        <ele>1740.4</ele>
        <time>2024-08-13T15:05:37Z</time>
      </trkpt>
      <trkpt lat="44.86379" lon="6.10251">
        <ele>1740.4</ele>
        <time>2024-08-13T15:05:38Z</time>
      </trkpt>
      <trkpt lat="44.86379" lon="6.10251">
        <ele>1740.4</ele>
        <time>2024-08-13T15:05:39Z</time>
      </trkpt>
      <trkpt lat="44.86377" lon="6.10253">
        <ele>1740.2</ele>
        <time>2024-08-13T15:05:40Z</time>
      </trkpt>
      <trkpt lat="44.86377" lon="6.10253">
        <ele>1739.8</ele>
        <time>2024-08-13T15:05:41Z</time>
      </trkpt>
      <trkpt lat="44.86377" lon="6.10253">
        <ele>1739.8</ele>
        <time>2024-08-13T15:05:42Z</time>
      </trkpt>
      <trkpt lat="44.86377" lon="6.10253">
        <ele>1739.4</ele>
        <time>2024-08-13T15:05:43Z</time>
      </trkpt>
      <trkpt lat="44.86375" lon="6.10254">
        <ele>1739.4</ele>
        <time>2024-08-13T15:05:44Z</time>
      </trkpt>
      <trkpt lat="44.86375" lon="6.10254">
        <ele>1739.2</ele>
        <time>2024-08-13T15:05:45Z</time>
      </trkpt>
      <trkpt lat="44.86373" lon="6.10255">
        <ele>1738.8</ele>
        <time>2024-08-13T15:05:46Z</time>
      </trkpt>
      <trkpt lat="44.86373" lon="6.10255">
        <ele>1738.4</ele>
        <time>2024-08-13T15:05:47Z</time>
      </trkpt>
      <trkpt lat="44.86373" lon="6.10255">
        <ele>1738.4</ele>
        <time>2024-08-13T15:05:48Z</time>
      </trkpt>
      <trkpt lat="44.86371" lon="6.10258">
        <ele>1738.2</ele>
        <time>2024-08-13T15:05:49Z</time>
      </trkpt>
      <trkpt lat="44.86371" lon="6.10258">
        <ele>1737.8</ele>
        <time>2024-08-13T15:05:50Z</time>
      </trkpt>
      <trkpt lat="44.86371" lon="6.10258">
        <ele>1737.4</ele>
        <time>2024-08-13T15:05:51Z</time>
      </trkpt>
      <trkpt lat="44.86369" lon="6.10259">
        <ele>1737.2</ele>
        <time>2024-08-13T15:05:52Z</time>
      </trkpt>
      <trkpt lat="44.86369" lon="6.10259">
        <ele>1737</ele>
        <time>2024-08-13T15:05:53Z</time>
      </trkpt>
      <trkpt lat="44.86368" lon="6.10261">
        <ele>1736.8</ele>
        <time>2024-08-13T15:05:54Z</time>
      </trkpt>
      <trkpt lat="44.86368" lon="6.10261">
        <ele>1736.6</ele>
        <time>2024-08-13T15:05:55Z</time>
      </trkpt>
      <trkpt lat="44.86365" lon="6.10262">
        <ele>1736.6</ele>
        <time>2024-08-13T15:05:56Z</time>
      </trkpt>
      <trkpt lat="44.86365" lon="6.10262">
        <ele>1736.4</ele>
        <time>2024-08-13T15:05:57Z</time>
      </trkpt>
      <trkpt lat="44.86365" lon="6.10262">
        <ele>1736.4</ele>
        <time>2024-08-13T15:05:58Z</time>
      </trkpt>
      <trkpt lat="44.86363" lon="6.10263">
        <ele>1736.2</ele>
        <time>2024-08-13T15:05:59Z</time>
      </trkpt>
      <trkpt lat="44.86363" lon="6.10263">
        <ele>1736.2</ele>
        <time>2024-08-13T15:06:00Z</time>
      </trkpt>
      <trkpt lat="44.86361" lon="6.10264">
        <ele>1736</ele>
        <time>2024-08-13T15:06:01Z</time>
      </trkpt>
      <trkpt lat="44.86361" lon="6.10264">
        <ele>1736</ele>
        <time>2024-08-13T15:06:02Z</time>
      </trkpt>
      <trkpt lat="44.86358" lon="6.10264">
        <ele>1736</ele>
        <time>2024-08-13T15:06:03Z</time>
      </trkpt>
      <trkpt lat="44.86358" lon="6.10264">
        <ele>1735.8</ele>
        <time>2024-08-13T15:06:04Z</time>
      </trkpt>
      <trkpt lat="44.86355" lon="6.10264">
        <ele>1735.8</ele>
        <time>2024-08-13T15:06:05Z</time>
      </trkpt>
      <trkpt lat="44.86355" lon="6.10264">
        <ele>1735.4</ele>
        <time>2024-08-13T15:06:06Z</time>
      </trkpt>
      <trkpt lat="44.86355" lon="6.10264">
        <ele>1735</ele>
        <time>2024-08-13T15:06:07Z</time>
      </trkpt>
      <trkpt lat="44.86352" lon="6.10264">
        <ele>1734.6</ele>
        <time>2024-08-13T15:06:08Z</time>
      </trkpt>
      <trkpt lat="44.86352" lon="6.10264">
        <ele>1734.4</ele>
        <time>2024-08-13T15:06:09Z</time>
      </trkpt>
      <trkpt lat="44.86352" lon="6.10264">
        <ele>1734.2</ele>
        <time>2024-08-13T15:06:10Z</time>
      </trkpt>
      <trkpt lat="44.86349" lon="6.10265">
        <ele>1734</ele>
        <time>2024-08-13T15:06:11Z</time>
      </trkpt>
      <trkpt lat="44.86349" lon="6.10265">
        <ele>1733.8</ele>
        <time>2024-08-13T15:06:12Z</time>
      </trkpt>
      <trkpt lat="44.86348" lon="6.10266">
        <ele>1733.6</ele>
        <time>2024-08-13T15:06:13Z</time>
      </trkpt>
      <trkpt lat="44.86348" lon="6.10266">
        <ele>1733.4</ele>
        <time>2024-08-13T15:06:14Z</time>
      </trkpt>
      <trkpt lat="44.86346" lon="6.10266">
        <ele>1733.2</ele>
        <time>2024-08-13T15:06:15Z</time>
      </trkpt>
      <trkpt lat="44.86346" lon="6.10266">
        <ele>1733.2</ele>
        <time>2024-08-13T15:06:16Z</time>
      </trkpt>
      <trkpt lat="44.86343" lon="6.10268">
        <ele>1733</ele>
        <time>2024-08-13T15:06:17Z</time>
      </trkpt>
      <trkpt lat="44.86343" lon="6.10268">
        <ele>1733</ele>
        <time>2024-08-13T15:06:18Z</time>
      </trkpt>
      <trkpt lat="44.86341" lon="6.10269">
        <ele>1732.8</ele>
        <time>2024-08-13T15:06:19Z</time>
      </trkpt>
      <trkpt lat="44.86341" lon="6.10269">
        <ele>1732.6</ele>
        <time>2024-08-13T15:06:20Z</time>
      </trkpt>
      <trkpt lat="44.8634" lon="6.10269">
        <ele>1732.6</ele>
        <time>2024-08-13T15:06:21Z</time>
      </trkpt>
      <trkpt lat="44.86337" lon="6.1027">
        <ele>1732.2</ele>
        <time>2024-08-13T15:06:22Z</time>
      </trkpt>
      <trkpt lat="44.86337" lon="6.1027">
        <ele>1731.8</ele>
        <time>2024-08-13T15:06:23Z</time>
      </trkpt>
      <trkpt lat="44.86335" lon="6.1027">
        <ele>1731.8</ele>
        <time>2024-08-13T15:06:24Z</time>
      </trkpt>
      <trkpt lat="44.86335" lon="6.1027">
        <ele>1731.8</ele>
        <time>2024-08-13T15:06:25Z</time>
      </trkpt>
      <trkpt lat="44.86333" lon="6.10271">
        <ele>1731.6</ele>
        <time>2024-08-13T15:06:26Z</time>
      </trkpt>
      <trkpt lat="44.86333" lon="6.10271">
        <ele>1731.4</ele>
        <time>2024-08-13T15:06:27Z</time>
      </trkpt>
      <trkpt lat="44.86331" lon="6.10272">
        <ele>1731</ele>
        <time>2024-08-13T15:06:28Z</time>
      </trkpt>
      <trkpt lat="44.86331" lon="6.10272">
        <ele>1730.8</ele>
        <time>2024-08-13T15:06:29Z</time>
      </trkpt>
      <trkpt lat="44.86328" lon="6.10272">
        <ele>1730.4</ele>
        <time>2024-08-13T15:06:30Z</time>
      </trkpt>
      <trkpt lat="44.86328" lon="6.10272">
        <ele>1730.2</ele>
        <time>2024-08-13T15:06:31Z</time>
      </trkpt>
      <trkpt lat="44.86326" lon="6.10273">
        <ele>1730</ele>
        <time>2024-08-13T15:06:32Z</time>
      </trkpt>
      <trkpt lat="44.86326" lon="6.10273">
        <ele>1730</ele>
        <time>2024-08-13T15:06:33Z</time>
      </trkpt>
      <trkpt lat="44.86324" lon="6.10274">
        <ele>1729.6</ele>
        <time>2024-08-13T15:06:34Z</time>
      </trkpt>
      <trkpt lat="44.86324" lon="6.10274">
        <ele>1729.2</ele>
        <time>2024-08-13T15:06:35Z</time>
      </trkpt>
      <trkpt lat="44.86322" lon="6.10276">
        <ele>1729</ele>
        <time>2024-08-13T15:06:36Z</time>
      </trkpt>
      <trkpt lat="44.86322" lon="6.10276">
        <ele>1728.8</ele>
        <time>2024-08-13T15:06:37Z</time>
      </trkpt>
      <trkpt lat="44.8632" lon="6.10277">
        <ele>1728.6</ele>
        <time>2024-08-13T15:06:38Z</time>
      </trkpt>
      <trkpt lat="44.8632" lon="6.10277">
        <ele>1728.4</ele>
        <time>2024-08-13T15:06:39Z</time>
      </trkpt>
      <trkpt lat="44.86318" lon="6.10278">
        <ele>1728.2</ele>
        <time>2024-08-13T15:06:40Z</time>
      </trkpt>
      <trkpt lat="44.86318" lon="6.10278">
        <ele>1727.8</ele>
        <time>2024-08-13T15:06:41Z</time>
      </trkpt>
      <trkpt lat="44.86316" lon="6.1028">
        <ele>1727.2</ele>
        <time>2024-08-13T15:06:42Z</time>
      </trkpt>
      <trkpt lat="44.86316" lon="6.1028">
        <ele>1727.2</ele>
        <time>2024-08-13T15:06:43Z</time>
      </trkpt>
      <trkpt lat="44.86316" lon="6.1028">
        <ele>1727</ele>
        <time>2024-08-13T15:06:44Z</time>
      </trkpt>
      <trkpt lat="44.86314" lon="6.10282">
        <ele>1727</ele>
        <time>2024-08-13T15:06:45Z</time>
      </trkpt>
      <trkpt lat="44.86314" lon="6.10282">
        <ele>1726.6</ele>
        <time>2024-08-13T15:06:46Z</time>
      </trkpt>
      <trkpt lat="44.86312" lon="6.10283">
        <ele>1726.4</ele>
        <time>2024-08-13T15:06:47Z</time>
      </trkpt>
      <trkpt lat="44.86312" lon="6.10283">
        <ele>1726.4</ele>
        <time>2024-08-13T15:06:48Z</time>
      </trkpt>
      <trkpt lat="44.86309" lon="6.10284">
        <ele>1726</ele>
        <time>2024-08-13T15:06:49Z</time>
      </trkpt>
      <trkpt lat="44.86309" lon="6.10284">
        <ele>1726</ele>
        <time>2024-08-13T15:06:50Z</time>
      </trkpt>
      <trkpt lat="44.86307" lon="6.10286">
        <ele>1725.6</ele>
        <time>2024-08-13T15:06:51Z</time>
      </trkpt>
      <trkpt lat="44.86307" lon="6.10286">
        <ele>1725.2</ele>
        <time>2024-08-13T15:06:52Z</time>
      </trkpt>
      <trkpt lat="44.86304" lon="6.10286">
        <ele>1725.2</ele>
        <time>2024-08-13T15:06:53Z</time>
      </trkpt>
      <trkpt lat="44.86304" lon="6.10286">
        <ele>1725.2</ele>
        <time>2024-08-13T15:06:54Z</time>
      </trkpt>
      <trkpt lat="44.86301" lon="6.10287">
        <ele>1725.2</ele>
        <time>2024-08-13T15:06:55Z</time>
      </trkpt>
      <trkpt lat="44.863" lon="6.10287">
        <ele>1725</ele>
        <time>2024-08-13T15:06:56Z</time>
      </trkpt>
      <trkpt lat="44.863" lon="6.10287">
        <ele>1725</ele>
        <time>2024-08-13T15:06:57Z</time>
      </trkpt>
      <trkpt lat="44.86297" lon="6.10287">
        <ele>1724.8</ele>
        <time>2024-08-13T15:06:58Z</time>
      </trkpt>
      <trkpt lat="44.86297" lon="6.10287">
        <ele>1724.4</ele>
        <time>2024-08-13T15:06:59Z</time>
      </trkpt>
      <trkpt lat="44.86295" lon="6.10289">
        <ele>1724</ele>
        <time>2024-08-13T15:07:00Z</time>
      </trkpt>
      <trkpt lat="44.86295" lon="6.10289">
        <ele>1723.8</ele>
        <time>2024-08-13T15:07:01Z</time>
      </trkpt>
      <trkpt lat="44.86294" lon="6.1029">
        <ele>1723.6</ele>
        <time>2024-08-13T15:07:02Z</time>
      </trkpt>
      <trkpt lat="44.86294" lon="6.1029">
        <ele>1723.6</ele>
        <time>2024-08-13T15:07:03Z</time>
      </trkpt>
      <trkpt lat="44.86292" lon="6.10292">
        <ele>1723.6</ele>
        <time>2024-08-13T15:07:04Z</time>
      </trkpt>
      <trkpt lat="44.86292" lon="6.10292">
        <ele>1723.6</ele>
        <time>2024-08-13T15:07:05Z</time>
      </trkpt>
      <trkpt lat="44.86289" lon="6.10293">
        <ele>1723.4</ele>
        <time>2024-08-13T15:07:06Z</time>
      </trkpt>
      <trkpt lat="44.86289" lon="6.10293">
        <ele>1723.4</ele>
        <time>2024-08-13T15:07:07Z</time>
      </trkpt>
      <trkpt lat="44.86287" lon="6.10295">
        <ele>1723.2</ele>
        <time>2024-08-13T15:07:08Z</time>
      </trkpt>
      <trkpt lat="44.86287" lon="6.10295">
        <ele>1723</ele>
        <time>2024-08-13T15:07:09Z</time>
      </trkpt>
      <trkpt lat="44.86287" lon="6.10295">
        <ele>1722.8</ele>
        <time>2024-08-13T15:07:10Z</time>
      </trkpt>
      <trkpt lat="44.86285" lon="6.10298">
        <ele>1722.4</ele>
        <time>2024-08-13T15:07:11Z</time>
      </trkpt>
      <trkpt lat="44.86285" lon="6.10298">
        <ele>1722.2</ele>
        <time>2024-08-13T15:07:12Z</time>
      </trkpt>
      <trkpt lat="44.86283" lon="6.10299">
        <ele>1722.2</ele>
        <time>2024-08-13T15:07:13Z</time>
      </trkpt>
      <trkpt lat="44.86283" lon="6.10299">
        <ele>1722.2</ele>
        <time>2024-08-13T15:07:14Z</time>
      </trkpt>
      <trkpt lat="44.86282" lon="6.10301">
        <ele>1722</ele>
        <time>2024-08-13T15:07:15Z</time>
      </trkpt>
      <trkpt lat="44.86282" lon="6.10301">
        <ele>1721.6</ele>
        <time>2024-08-13T15:07:16Z</time>
      </trkpt>
      <trkpt lat="44.86282" lon="6.10301">
        <ele>1721.2</ele>
        <time>2024-08-13T15:07:17Z</time>
      </trkpt>
      <trkpt lat="44.8628" lon="6.10302">
        <ele>1721.2</ele>
        <time>2024-08-13T15:07:18Z</time>
      </trkpt>
      <trkpt lat="44.8628" lon="6.10302">
        <ele>1720.8</ele>
        <time>2024-08-13T15:07:19Z</time>
      </trkpt>
      <trkpt lat="44.8628" lon="6.10302">
        <ele>1720.8</ele>
        <time>2024-08-13T15:07:20Z</time>
      </trkpt>
      <trkpt lat="44.86277" lon="6.10303">
        <ele>1720.4</ele>
        <time>2024-08-13T15:07:21Z</time>
      </trkpt>
      <trkpt lat="44.86277" lon="6.10303">
        <ele>1720.2</ele>
        <time>2024-08-13T15:07:22Z</time>
      </trkpt>
      <trkpt lat="44.86275" lon="6.10304">
        <ele>1720</ele>
        <time>2024-08-13T15:07:23Z</time>
      </trkpt>
      <trkpt lat="44.86275" lon="6.10304">
        <ele>1719.6</ele>
        <time>2024-08-13T15:07:24Z</time>
      </trkpt>
      <trkpt lat="44.86275" lon="6.10304">
        <ele>1719.4</ele>
        <time>2024-08-13T15:07:25Z</time>
      </trkpt>
      <trkpt lat="44.86272" lon="6.10303">
        <ele>1719</ele>
        <time>2024-08-13T15:07:26Z</time>
      </trkpt>
      <trkpt lat="44.86272" lon="6.10303">
        <ele>1718.8</ele>
        <time>2024-08-13T15:07:27Z</time>
      </trkpt>
      <trkpt lat="44.86272" lon="6.10303">
        <ele>1718.6</ele>
        <time>2024-08-13T15:07:28Z</time>
      </trkpt>
      <trkpt lat="44.86269" lon="6.10304">
        <ele>1718.2</ele>
        <time>2024-08-13T15:07:29Z</time>
      </trkpt>
      <trkpt lat="44.86269" lon="6.10304">
        <ele>1717.8</ele>
        <time>2024-08-13T15:07:30Z</time>
      </trkpt>
      <trkpt lat="44.86269" lon="6.10304">
        <ele>1717.8</ele>
        <time>2024-08-13T15:07:31Z</time>
      </trkpt>
      <trkpt lat="44.86266" lon="6.10305">
        <ele>1717.6</ele>
        <time>2024-08-13T15:07:32Z</time>
      </trkpt>
      <trkpt lat="44.86266" lon="6.10305">
        <ele>1717.4</ele>
        <time>2024-08-13T15:07:33Z</time>
      </trkpt>
      <trkpt lat="44.86264" lon="6.10304">
        <ele>1717.2</ele>
        <time>2024-08-13T15:07:34Z</time>
      </trkpt>
      <trkpt lat="44.86264" lon="6.10304">
        <ele>1716.8</ele>
        <time>2024-08-13T15:07:35Z</time>
      </trkpt>
      <trkpt lat="44.86264" lon="6.10304">
        <ele>1716.6</ele>
        <time>2024-08-13T15:07:36Z</time>
      </trkpt>
      <trkpt lat="44.86262" lon="6.10303">
        <ele>1716.2</ele>
        <time>2024-08-13T15:07:37Z</time>
      </trkpt>
      <trkpt lat="44.86262" lon="6.10303">
        <ele>1716</ele>
        <time>2024-08-13T15:07:38Z</time>
      </trkpt>
      <trkpt lat="44.86262" lon="6.10303">
        <ele>1715.8</ele>
        <time>2024-08-13T15:07:39Z</time>
      </trkpt>
      <trkpt lat="44.86262" lon="6.10303">
        <ele>1715.6</ele>
        <time>2024-08-13T15:07:40Z</time>
      </trkpt>
      <trkpt lat="44.86262" lon="6.10303">
        <ele>1715.4</ele>
        <time>2024-08-13T15:07:41Z</time>
      </trkpt>
      <trkpt lat="44.86262" lon="6.10303">
        <ele>1715.4</ele>
        <time>2024-08-13T15:07:42Z</time>
      </trkpt>
      <trkpt lat="44.86262" lon="6.10303">
        <ele>1715.6</ele>
        <time>2024-08-13T15:07:43Z</time>
      </trkpt>
      <trkpt lat="44.86262" lon="6.10303">
        <ele>1715.6</ele>
        <time>2024-08-13T15:07:44Z</time>
      </trkpt>
      <trkpt lat="44.86262" lon="6.10303">
        <ele>1715.4</ele>
        <time>2024-08-13T15:07:45Z</time>
      </trkpt>
      <trkpt lat="44.86262" lon="6.10303">
        <ele>1715.4</ele>
        <time>2024-08-13T15:07:46Z</time>
      </trkpt>
      <trkpt lat="44.86262" lon="6.10303">
        <ele>1715.8</ele>
        <time>2024-08-13T15:07:47Z</time>
      </trkpt>
      <trkpt lat="44.86262" lon="6.10303">
        <ele>1716</ele>
        <time>2024-08-13T15:07:48Z</time>
      </trkpt>
      <trkpt lat="44.86262" lon="6.10303">
        <ele>1716</ele>
        <time>2024-08-13T15:07:49Z</time>
      </trkpt>
      <trkpt lat="44.86262" lon="6.10303">
        <ele>1715.8</ele>
        <time>2024-08-13T15:07:50Z</time>
      </trkpt>
      <trkpt lat="44.86264" lon="6.10301">
        <ele>1715.4</ele>
        <time>2024-08-13T15:07:51Z</time>
      </trkpt>
      <trkpt lat="44.86264" lon="6.10301">
        <ele>1715.2</ele>
        <time>2024-08-13T15:07:52Z</time>
      </trkpt>
      <trkpt lat="44.86266" lon="6.10297">
        <ele>1715</ele>
        <time>2024-08-13T15:07:53Z</time>
      </trkpt>
      <trkpt lat="44.86267" lon="6.10294">
        <ele>1715</ele>
        <time>2024-08-13T15:07:54Z</time>
      </trkpt>
      <trkpt lat="44.86267" lon="6.10294">
        <ele>1714.6</ele>
        <time>2024-08-13T15:07:55Z</time>
      </trkpt>
      <trkpt lat="44.86269" lon="6.1029">
        <ele>1714.4</ele>
        <time>2024-08-13T15:07:56Z</time>
      </trkpt>
      <trkpt lat="44.86269" lon="6.1029">
        <ele>1714</ele>
        <time>2024-08-13T15:07:57Z</time>
      </trkpt>
      <trkpt lat="44.8627" lon="6.10287">
        <ele>1713.6</ele>
        <time>2024-08-13T15:07:58Z</time>
      </trkpt>
      <trkpt lat="44.8627" lon="6.10287">
        <ele>1713</ele>
        <time>2024-08-13T15:07:59Z</time>
      </trkpt>
      <trkpt lat="44.86272" lon="6.10285">
        <ele>1713</ele>
        <time>2024-08-13T15:08:00Z</time>
      </trkpt>
      <trkpt lat="44.86272" lon="6.10285">
        <ele>1713</ele>
        <time>2024-08-13T15:08:01Z</time>
      </trkpt>
      <trkpt lat="44.86273" lon="6.10283">
        <ele>1712.4</ele>
        <time>2024-08-13T15:08:02Z</time>
      </trkpt>
      <trkpt lat="44.86273" lon="6.10283">
        <ele>1712.4</ele>
        <time>2024-08-13T15:08:03Z</time>
      </trkpt>
      <trkpt lat="44.86274" lon="6.1028">
        <ele>1712.2</ele>
        <time>2024-08-13T15:08:04Z</time>
      </trkpt>
      <trkpt lat="44.86274" lon="6.1028">
        <ele>1712</ele>
        <time>2024-08-13T15:08:05Z</time>
      </trkpt>
      <trkpt lat="44.86276" lon="6.10277">
        <ele>1711.8</ele>
        <time>2024-08-13T15:08:06Z</time>
      </trkpt>
      <trkpt lat="44.86276" lon="6.10277">
        <ele>1711.4</ele>
        <time>2024-08-13T15:08:07Z</time>
      </trkpt>
      <trkpt lat="44.86277" lon="6.10274">
        <ele>1711.2</ele>
        <time>2024-08-13T15:08:08Z</time>
      </trkpt>
      <trkpt lat="44.86277" lon="6.10274">
        <ele>1710.8</ele>
        <time>2024-08-13T15:08:09Z</time>
      </trkpt>
      <trkpt lat="44.86278" lon="6.10271">
        <ele>1710.8</ele>
        <time>2024-08-13T15:08:10Z</time>
      </trkpt>
      <trkpt lat="44.86278" lon="6.10271">
        <ele>1710.8</ele>
        <time>2024-08-13T15:08:11Z</time>
      </trkpt>
      <trkpt lat="44.86279" lon="6.10268">
        <ele>1710.4</ele>
        <time>2024-08-13T15:08:12Z</time>
      </trkpt>
      <trkpt lat="44.86279" lon="6.10268">
        <ele>1710.4</ele>
        <time>2024-08-13T15:08:13Z</time>
      </trkpt>
      <trkpt lat="44.8628" lon="6.10265">
        <ele>1710.2</ele>
        <time>2024-08-13T15:08:14Z</time>
      </trkpt>
      <trkpt lat="44.8628" lon="6.10265">
        <ele>1709.6</ele>
        <time>2024-08-13T15:08:15Z</time>
      </trkpt>
      <trkpt lat="44.86282" lon="6.10262">
        <ele>1709.4</ele>
        <time>2024-08-13T15:08:16Z</time>
      </trkpt>
      <trkpt lat="44.86282" lon="6.10262">
        <ele>1709.2</ele>
        <time>2024-08-13T15:08:17Z</time>
      </trkpt>
      <trkpt lat="44.86283" lon="6.1026">
        <ele>1709</ele>
        <time>2024-08-13T15:08:18Z</time>
      </trkpt>
      <trkpt lat="44.86283" lon="6.1026">
        <ele>1708.6</ele>
        <time>2024-08-13T15:08:19Z</time>
      </trkpt>
      <trkpt lat="44.86284" lon="6.10257">
        <ele>1708.4</ele>
        <time>2024-08-13T15:08:20Z</time>
      </trkpt>
      <trkpt lat="44.86284" lon="6.10257">
        <ele>1708.4</ele>
        <time>2024-08-13T15:08:21Z</time>
      </trkpt>
      <trkpt lat="44.86285" lon="6.10255">
        <ele>1708.4</ele>
        <time>2024-08-13T15:08:22Z</time>
      </trkpt>
      <trkpt lat="44.86285" lon="6.10255">
        <ele>1708</ele>
        <time>2024-08-13T15:08:23Z</time>
      </trkpt>
      <trkpt lat="44.86286" lon="6.10253">
        <ele>1707.4</ele>
        <time>2024-08-13T15:08:24Z</time>
      </trkpt>
      <trkpt lat="44.86286" lon="6.10253">
        <ele>1707.2</ele>
        <time>2024-08-13T15:08:25Z</time>
      </trkpt>
      <trkpt lat="44.86286" lon="6.10253">
        <ele>1707</ele>
        <time>2024-08-13T15:08:26Z</time>
      </trkpt>
      <trkpt lat="44.86286" lon="6.10253">
        <ele>1707</ele>
        <time>2024-08-13T15:08:27Z</time>
      </trkpt>
      <trkpt lat="44.86286" lon="6.10253">
        <ele>1706.8</ele>
        <time>2024-08-13T15:08:28Z</time>
      </trkpt>
      <trkpt lat="44.86286" lon="6.10253">
        <ele>1706.4</ele>
        <time>2024-08-13T15:08:29Z</time>
      </trkpt>
      <trkpt lat="44.86285" lon="6.10251">
        <ele>1706</ele>
        <time>2024-08-13T15:08:30Z</time>
      </trkpt>
      <trkpt lat="44.86285" lon="6.10251">
        <ele>1705.8</ele>
        <time>2024-08-13T15:08:31Z</time>
      </trkpt>
      <trkpt lat="44.86285" lon="6.10251">
        <ele>1705.6</ele>
        <time>2024-08-13T15:08:32Z</time>
      </trkpt>
      <trkpt lat="44.86284" lon="6.1025">
        <ele>1705.2</ele>
        <time>2024-08-13T15:08:33Z</time>
      </trkpt>
      <trkpt lat="44.86284" lon="6.1025">
        <ele>1705</ele>
        <time>2024-08-13T15:08:34Z</time>
      </trkpt>
      <trkpt lat="44.86284" lon="6.1025">
        <ele>1704.8</ele>
        <time>2024-08-13T15:08:35Z</time>
      </trkpt>
      <trkpt lat="44.86281" lon="6.10251">
        <ele>1704.4</ele>
        <time>2024-08-13T15:08:36Z</time>
      </trkpt>
      <trkpt lat="44.86281" lon="6.10251">
        <ele>1704.2</ele>
        <time>2024-08-13T15:08:37Z</time>
      </trkpt>
      <trkpt lat="44.86279" lon="6.10251">
        <ele>1704</ele>
        <time>2024-08-13T15:08:38Z</time>
      </trkpt>
      <trkpt lat="44.86279" lon="6.10251">
        <ele>1704</ele>
        <time>2024-08-13T15:08:39Z</time>
      </trkpt>
      <trkpt lat="44.86277" lon="6.10252">
        <ele>1703.6</ele>
        <time>2024-08-13T15:08:40Z</time>
      </trkpt>
      <trkpt lat="44.86277" lon="6.10252">
        <ele>1703.4</ele>
        <time>2024-08-13T15:08:41Z</time>
      </trkpt>
      <trkpt lat="44.86275" lon="6.10253">
        <ele>1703.2</ele>
        <time>2024-08-13T15:08:42Z</time>
      </trkpt>
      <trkpt lat="44.86275" lon="6.10253">
        <ele>1702.8</ele>
        <time>2024-08-13T15:08:43Z</time>
      </trkpt>
      <trkpt lat="44.86273" lon="6.10254">
        <ele>1702.6</ele>
        <time>2024-08-13T15:08:44Z</time>
      </trkpt>
      <trkpt lat="44.86273" lon="6.10254">
        <ele>1702.2</ele>
        <time>2024-08-13T15:08:45Z</time>
      </trkpt>
      <trkpt lat="44.86271" lon="6.10254">
        <ele>1702</ele>
        <time>2024-08-13T15:08:46Z</time>
      </trkpt>
      <trkpt lat="44.86271" lon="6.10254">
        <ele>1702</ele>
        <time>2024-08-13T15:08:47Z</time>
      </trkpt>
      <trkpt lat="44.86269" lon="6.10254">
        <ele>1701.8</ele>
        <time>2024-08-13T15:08:48Z</time>
      </trkpt>
      <trkpt lat="44.86269" lon="6.10254">
        <ele>1701.6</ele>
        <time>2024-08-13T15:08:49Z</time>
      </trkpt>
      <trkpt lat="44.86269" lon="6.10254">
        <ele>1701.6</ele>
        <time>2024-08-13T15:08:50Z</time>
      </trkpt>
      <trkpt lat="44.86268" lon="6.10254">
        <ele>1701.2</ele>
        <time>2024-08-13T15:08:51Z</time>
      </trkpt>
      <trkpt lat="44.86268" lon="6.10254">
        <ele>1701.2</ele>
        <time>2024-08-13T15:08:52Z</time>
      </trkpt>
      <trkpt lat="44.86268" lon="6.10254">
        <ele>1701</ele>
        <time>2024-08-13T15:08:53Z</time>
      </trkpt>
      <trkpt lat="44.86269" lon="6.10253">
        <ele>1700.4</ele>
        <time>2024-08-13T15:08:54Z</time>
      </trkpt>
      <trkpt lat="44.86269" lon="6.10253">
        <ele>1700.4</ele>
        <time>2024-08-13T15:08:55Z</time>
      </trkpt>
      <trkpt lat="44.86269" lon="6.10253">
        <ele>1700.2</ele>
        <time>2024-08-13T15:08:56Z</time>
      </trkpt>
      <trkpt lat="44.86269" lon="6.1025">
        <ele>1700.2</ele>
        <time>2024-08-13T15:08:57Z</time>
      </trkpt>
      <trkpt lat="44.86269" lon="6.1025">
        <ele>1699.8</ele>
        <time>2024-08-13T15:08:58Z</time>
      </trkpt>
      <trkpt lat="44.86269" lon="6.1025">
        <ele>1699.6</ele>
        <time>2024-08-13T15:08:59Z</time>
      </trkpt>
      <trkpt lat="44.86269" lon="6.10246">
        <ele>1699.4</ele>
        <time>2024-08-13T15:09:00Z</time>
      </trkpt>
      <trkpt lat="44.86269" lon="6.10246">
        <ele>1699.2</ele>
        <time>2024-08-13T15:09:01Z</time>
      </trkpt>
      <trkpt lat="44.8627" lon="6.10243">
        <ele>1698.4</ele>
        <time>2024-08-13T15:09:02Z</time>
      </trkpt>
      <trkpt lat="44.8627" lon="6.10243">
        <ele>1698.4</ele>
        <time>2024-08-13T15:09:03Z</time>
      </trkpt>
      <trkpt lat="44.86272" lon="6.1024">
        <ele>1698.2</ele>
        <time>2024-08-13T15:09:04Z</time>
      </trkpt>
      <trkpt lat="44.86272" lon="6.1024">
        <ele>1697.8</ele>
        <time>2024-08-13T15:09:05Z</time>
      </trkpt>
      <trkpt lat="44.86272" lon="6.10237">
        <ele>1697.8</ele>
        <time>2024-08-13T15:09:06Z</time>
      </trkpt>
      <trkpt lat="44.86272" lon="6.10237">
        <ele>1697.8</ele>
        <time>2024-08-13T15:09:07Z</time>
      </trkpt>
      <trkpt lat="44.86274" lon="6.10235">
        <ele>1697.8</ele>
        <time>2024-08-13T15:09:08Z</time>
      </trkpt>
      <trkpt lat="44.86274" lon="6.10235">
        <ele>1697.4</ele>
        <time>2024-08-13T15:09:09Z</time>
      </trkpt>
      <trkpt lat="44.86274" lon="6.10235">
        <ele>1697</ele>
        <time>2024-08-13T15:09:10Z</time>
      </trkpt>
      <trkpt lat="44.86274" lon="6.10235">
        <ele>1697</ele>
        <time>2024-08-13T15:09:11Z</time>
      </trkpt>
      <trkpt lat="44.86271" lon="6.10232">
        <ele>1696.6</ele>
        <time>2024-08-13T15:09:12Z</time>
      </trkpt>
      <trkpt lat="44.86271" lon="6.10232">
        <ele>1696.4</ele>
        <time>2024-08-13T15:09:13Z</time>
      </trkpt>
      <trkpt lat="44.86269" lon="6.10234">
        <ele>1696.4</ele>
        <time>2024-08-13T15:09:14Z</time>
      </trkpt>
      <trkpt lat="44.86269" lon="6.10234">
        <ele>1696.4</ele>
        <time>2024-08-13T15:09:15Z</time>
      </trkpt>
      <trkpt lat="44.86267" lon="6.10236">
        <ele>1696.2</ele>
        <time>2024-08-13T15:09:16Z</time>
      </trkpt>
      <trkpt lat="44.86267" lon="6.10236">
        <ele>1695.8</ele>
        <time>2024-08-13T15:09:17Z</time>
      </trkpt>
      <trkpt lat="44.86265" lon="6.10236">
        <ele>1695.6</ele>
        <time>2024-08-13T15:09:18Z</time>
      </trkpt>
      <trkpt lat="44.86265" lon="6.10236">
        <ele>1695.4</ele>
        <time>2024-08-13T15:09:19Z</time>
      </trkpt>
      <trkpt lat="44.86265" lon="6.10236">
        <ele>1695.2</ele>
        <time>2024-08-13T15:09:20Z</time>
      </trkpt>
      <trkpt lat="44.86264" lon="6.10234">
        <ele>1695</ele>
        <time>2024-08-13T15:09:21Z</time>
      </trkpt>
      <trkpt lat="44.86264" lon="6.10234">
        <ele>1694.8</ele>
        <time>2024-08-13T15:09:22Z</time>
      </trkpt>
      <trkpt lat="44.86264" lon="6.10234">
        <ele>1694.4</ele>
        <time>2024-08-13T15:09:23Z</time>
      </trkpt>
      <trkpt lat="44.86264" lon="6.10234">
        <ele>1694.2</ele>
        <time>2024-08-13T15:09:24Z</time>
      </trkpt>
      <trkpt lat="44.86262" lon="6.10233">
        <ele>1694</ele>
        <time>2024-08-13T15:09:25Z</time>
      </trkpt>
      <trkpt lat="44.86262" lon="6.10233">
        <ele>1693.8</ele>
        <time>2024-08-13T15:09:26Z</time>
      </trkpt>
      <trkpt lat="44.86262" lon="6.10233">
        <ele>1693.6</ele>
        <time>2024-08-13T15:09:27Z</time>
      </trkpt>
      <trkpt lat="44.8626" lon="6.10232">
        <ele>1693.2</ele>
        <time>2024-08-13T15:09:28Z</time>
      </trkpt>
      <trkpt lat="44.8626" lon="6.10232">
        <ele>1692.8</ele>
        <time>2024-08-13T15:09:29Z</time>
      </trkpt>
      <trkpt lat="44.8626" lon="6.10232">
        <ele>1692.6</ele>
        <time>2024-08-13T15:09:30Z</time>
      </trkpt>
      <trkpt lat="44.8626" lon="6.10232">
        <ele>1692.4</ele>
        <time>2024-08-13T15:09:31Z</time>
      </trkpt>
      <trkpt lat="44.86258" lon="6.10232">
        <ele>1692</ele>
        <time>2024-08-13T15:09:32Z</time>
      </trkpt>
      <trkpt lat="44.86258" lon="6.10232">
        <ele>1691.6</ele>
        <time>2024-08-13T15:09:33Z</time>
      </trkpt>
      <trkpt lat="44.86256" lon="6.10233">
        <ele>1691.4</ele>
        <time>2024-08-13T15:09:34Z</time>
      </trkpt>
      <trkpt lat="44.86256" lon="6.10233">
        <ele>1691.4</ele>
        <time>2024-08-13T15:09:35Z</time>
      </trkpt>
      <trkpt lat="44.86254" lon="6.10233">
        <ele>1691.2</ele>
        <time>2024-08-13T15:09:36Z</time>
      </trkpt>
      <trkpt lat="44.86254" lon="6.10233">
        <ele>1690.6</ele>
        <time>2024-08-13T15:09:37Z</time>
      </trkpt>
      <trkpt lat="44.86254" lon="6.10233">
        <ele>1690.4</ele>
        <time>2024-08-13T15:09:38Z</time>
      </trkpt>
      <trkpt lat="44.86254" lon="6.1023">
        <ele>1690.2</ele>
        <time>2024-08-13T15:09:39Z</time>
      </trkpt>
      <trkpt lat="44.86254" lon="6.1023">
        <ele>1689.8</ele>
        <time>2024-08-13T15:09:40Z</time>
      </trkpt>
      <trkpt lat="44.86254" lon="6.1023">
        <ele>1689.6</ele>
        <time>2024-08-13T15:09:41Z</time>
      </trkpt>
      <trkpt lat="44.86255" lon="6.10227">
        <ele>1689.4</ele>
        <time>2024-08-13T15:09:42Z</time>
      </trkpt>
      <trkpt lat="44.86255" lon="6.10227">
        <ele>1689.2</ele>
        <time>2024-08-13T15:09:43Z</time>
      </trkpt>
      <trkpt lat="44.86257" lon="6.10225">
        <ele>1689</ele>
        <time>2024-08-13T15:09:44Z</time>
      </trkpt>
      <trkpt lat="44.86257" lon="6.10225">
        <ele>1688.8</ele>
        <time>2024-08-13T15:09:45Z</time>
      </trkpt>
      <trkpt lat="44.86258" lon="6.10223">
        <ele>1688.4</ele>
        <time>2024-08-13T15:09:46Z</time>
      </trkpt>
      <trkpt lat="44.86258" lon="6.10223">
        <ele>1688.2</ele>
        <time>2024-08-13T15:09:47Z</time>
      </trkpt>
      <trkpt lat="44.86259" lon="6.1022">
        <ele>1688</ele>
        <time>2024-08-13T15:09:48Z</time>
      </trkpt>
      <trkpt lat="44.86259" lon="6.1022">
        <ele>1688</ele>
        <time>2024-08-13T15:09:49Z</time>
      </trkpt>
      <trkpt lat="44.8626" lon="6.10218">
        <ele>1687.6</ele>
        <time>2024-08-13T15:09:50Z</time>
      </trkpt>
      <trkpt lat="44.8626" lon="6.10218">
        <ele>1687.2</ele>
        <time>2024-08-13T15:09:51Z</time>
      </trkpt>
      <trkpt lat="44.86262" lon="6.10217">
        <ele>1687</ele>
        <time>2024-08-13T15:09:52Z</time>
      </trkpt>
      <trkpt lat="44.86262" lon="6.10217">
        <ele>1686.8</ele>
        <time>2024-08-13T15:09:53Z</time>
      </trkpt>
      <trkpt lat="44.86263" lon="6.10215">
        <ele>1686.4</ele>
        <time>2024-08-13T15:09:54Z</time>
      </trkpt>
      <trkpt lat="44.86263" lon="6.10215">
        <ele>1686.2</ele>
        <time>2024-08-13T15:09:55Z</time>
      </trkpt>
      <trkpt lat="44.86265" lon="6.10212">
        <ele>1685.8</ele>
        <time>2024-08-13T15:09:56Z</time>
      </trkpt>
      <trkpt lat="44.86265" lon="6.10212">
        <ele>1685.4</ele>
        <time>2024-08-13T15:09:57Z</time>
      </trkpt>
      <trkpt lat="44.86265" lon="6.10212">
        <ele>1685.4</ele>
        <time>2024-08-13T15:09:58Z</time>
      </trkpt>
      <trkpt lat="44.86266" lon="6.1021">
        <ele>1685.6</ele>
        <time>2024-08-13T15:09:59Z</time>
      </trkpt>
      <trkpt lat="44.86266" lon="6.1021">
        <ele>1685.6</ele>
        <time>2024-08-13T15:10:00Z</time>
      </trkpt>
      <trkpt lat="44.86266" lon="6.1021">
        <ele>1685.2</ele>
        <time>2024-08-13T15:10:01Z</time>
      </trkpt>
      <trkpt lat="44.86266" lon="6.1021">
        <ele>1684.4</ele>
        <time>2024-08-13T15:10:02Z</time>
      </trkpt>
      <trkpt lat="44.86266" lon="6.1021">
        <ele>1684.4</ele>
        <time>2024-08-13T15:10:03Z</time>
      </trkpt>
      <trkpt lat="44.86264" lon="6.10209">
        <ele>1684.4</ele>
        <time>2024-08-13T15:10:04Z</time>
      </trkpt>
      <trkpt lat="44.86264" lon="6.10209">
        <ele>1684.4</ele>
        <time>2024-08-13T15:10:05Z</time>
      </trkpt>
      <trkpt lat="44.86261" lon="6.1021">
        <ele>1684.2</ele>
        <time>2024-08-13T15:10:06Z</time>
      </trkpt>
      <trkpt lat="44.86261" lon="6.1021">
        <ele>1683.6</ele>
        <time>2024-08-13T15:10:07Z</time>
      </trkpt>
      <trkpt lat="44.86259" lon="6.10211">
        <ele>1683.2</ele>
        <time>2024-08-13T15:10:08Z</time>
      </trkpt>
      <trkpt lat="44.86259" lon="6.10211">
        <ele>1683.2</ele>
        <time>2024-08-13T15:10:09Z</time>
      </trkpt>
      <trkpt lat="44.86257" lon="6.10211">
        <ele>1683.2</ele>
        <time>2024-08-13T15:10:10Z</time>
      </trkpt>
      <trkpt lat="44.86257" lon="6.10211">
        <ele>1683.2</ele>
        <time>2024-08-13T15:10:11Z</time>
      </trkpt>
      <trkpt lat="44.86257" lon="6.10211">
        <ele>1683</ele>
        <time>2024-08-13T15:10:12Z</time>
      </trkpt>
      <trkpt lat="44.86254" lon="6.10212">
        <ele>1682.8</ele>
        <time>2024-08-13T15:10:13Z</time>
      </trkpt>
      <trkpt lat="44.86254" lon="6.10212">
        <ele>1682.4</ele>
        <time>2024-08-13T15:10:14Z</time>
      </trkpt>
      <trkpt lat="44.86252" lon="6.10213">
        <ele>1682</ele>
        <time>2024-08-13T15:10:15Z</time>
      </trkpt>
      <trkpt lat="44.86252" lon="6.10213">
        <ele>1681.8</ele>
        <time>2024-08-13T15:10:16Z</time>
      </trkpt>
      <trkpt lat="44.8625" lon="6.10213">
        <ele>1681.8</ele>
        <time>2024-08-13T15:10:17Z</time>
      </trkpt>
      <trkpt lat="44.8625" lon="6.10213">
        <ele>1681.2</ele>
        <time>2024-08-13T15:10:18Z</time>
      </trkpt>
      <trkpt lat="44.86248" lon="6.10214">
        <ele>1681</ele>
        <time>2024-08-13T15:10:19Z</time>
      </trkpt>
      <trkpt lat="44.86248" lon="6.10214">
        <ele>1681</ele>
        <time>2024-08-13T15:10:20Z</time>
      </trkpt>
      <trkpt lat="44.86248" lon="6.10214">
        <ele>1680.8</ele>
        <time>2024-08-13T15:10:21Z</time>
      </trkpt>
      <trkpt lat="44.86246" lon="6.10214">
        <ele>1680.8</ele>
        <time>2024-08-13T15:10:22Z</time>
      </trkpt>
      <trkpt lat="44.86246" lon="6.10214">
        <ele>1680.4</ele>
        <time>2024-08-13T15:10:23Z</time>
      </trkpt>
      <trkpt lat="44.86244" lon="6.10215">
        <ele>1680.4</ele>
        <time>2024-08-13T15:10:24Z</time>
      </trkpt>
      <trkpt lat="44.86244" lon="6.10215">
        <ele>1680</ele>
        <time>2024-08-13T15:10:25Z</time>
      </trkpt>
      <trkpt lat="44.86242" lon="6.10215">
        <ele>1679.6</ele>
        <time>2024-08-13T15:10:26Z</time>
      </trkpt>
      <trkpt lat="44.86242" lon="6.10215">
        <ele>1679.2</ele>
        <time>2024-08-13T15:10:27Z</time>
      </trkpt>
      <trkpt lat="44.86242" lon="6.10215">
        <ele>1678.8</ele>
        <time>2024-08-13T15:10:28Z</time>
      </trkpt>
      <trkpt lat="44.8624" lon="6.10217">
        <ele>1678.6</ele>
        <time>2024-08-13T15:10:29Z</time>
      </trkpt>
      <trkpt lat="44.8624" lon="6.10217">
        <ele>1678.4</ele>
        <time>2024-08-13T15:10:30Z</time>
      </trkpt>
      <trkpt lat="44.86237" lon="6.10216">
        <ele>1678</ele>
        <time>2024-08-13T15:10:31Z</time>
      </trkpt>
      <trkpt lat="44.86237" lon="6.10216">
        <ele>1677.6</ele>
        <time>2024-08-13T15:10:32Z</time>
      </trkpt>
      <trkpt lat="44.86237" lon="6.10216">
        <ele>1677.4</ele>
        <time>2024-08-13T15:10:33Z</time>
      </trkpt>
      <trkpt lat="44.86237" lon="6.10216">
        <ele>1677</ele>
        <time>2024-08-13T15:10:34Z</time>
      </trkpt>
      <trkpt lat="44.86237" lon="6.10216">
        <ele>1676.8</ele>
        <time>2024-08-13T15:10:35Z</time>
      </trkpt>
      <trkpt lat="44.86235" lon="6.10216">
        <ele>1676.6</ele>
        <time>2024-08-13T15:10:36Z</time>
      </trkpt>
      <trkpt lat="44.86235" lon="6.10216">
        <ele>1676.4</ele>
        <time>2024-08-13T15:10:37Z</time>
      </trkpt>
      <trkpt lat="44.86235" lon="6.10216">
        <ele>1676.4</ele>
        <time>2024-08-13T15:10:38Z</time>
      </trkpt>
      <trkpt lat="44.86235" lon="6.10216">
        <ele>1676.2</ele>
        <time>2024-08-13T15:10:39Z</time>
      </trkpt>
      <trkpt lat="44.86237" lon="6.10215">
        <ele>1676</ele>
        <time>2024-08-13T15:10:40Z</time>
      </trkpt>
      <trkpt lat="44.86237" lon="6.10215">
        <ele>1675.8</ele>
        <time>2024-08-13T15:10:41Z</time>
      </trkpt>
      <trkpt lat="44.86237" lon="6.10215">
        <ele>1675.6</ele>
        <time>2024-08-13T15:10:42Z</time>
      </trkpt>
      <trkpt lat="44.86237" lon="6.10213">
        <ele>1675.4</ele>
        <time>2024-08-13T15:10:43Z</time>
      </trkpt>
      <trkpt lat="44.86237" lon="6.10213">
        <ele>1675.4</ele>
        <time>2024-08-13T15:10:44Z</time>
      </trkpt>
      <trkpt lat="44.86237" lon="6.10213">
        <ele>1675</ele>
        <time>2024-08-13T15:10:45Z</time>
      </trkpt>
      <trkpt lat="44.86237" lon="6.10213">
        <ele>1674.8</ele>
        <time>2024-08-13T15:10:46Z</time>
      </trkpt>
      <trkpt lat="44.86239" lon="6.1021">
        <ele>1674.2</ele>
        <time>2024-08-13T15:10:47Z</time>
      </trkpt>
      <trkpt lat="44.86239" lon="6.1021">
        <ele>1674</ele>
        <time>2024-08-13T15:10:48Z</time>
      </trkpt>
      <trkpt lat="44.86239" lon="6.1021">
        <ele>1673.8</ele>
        <time>2024-08-13T15:10:49Z</time>
      </trkpt>
      <trkpt lat="44.86241" lon="6.10208">
        <ele>1673.4</ele>
        <time>2024-08-13T15:10:50Z</time>
      </trkpt>
      <trkpt lat="44.86241" lon="6.10208">
        <ele>1672.8</ele>
        <time>2024-08-13T15:10:51Z</time>
      </trkpt>
      <trkpt lat="44.86243" lon="6.10205">
        <ele>1672.6</ele>
        <time>2024-08-13T15:10:52Z</time>
      </trkpt>
      <trkpt lat="44.86243" lon="6.10205">
        <ele>1672.4</ele>
        <time>2024-08-13T15:10:53Z</time>
      </trkpt>
      <trkpt lat="44.86245" lon="6.10203">
        <ele>1672.2</ele>
        <time>2024-08-13T15:10:54Z</time>
      </trkpt>
      <trkpt lat="44.86245" lon="6.10203">
        <ele>1671.8</ele>
        <time>2024-08-13T15:10:55Z</time>
      </trkpt>
      <trkpt lat="44.86246" lon="6.10201">
        <ele>1671.4</ele>
        <time>2024-08-13T15:10:56Z</time>
      </trkpt>
      <trkpt lat="44.86246" lon="6.10201">
        <ele>1671.4</ele>
        <time>2024-08-13T15:10:57Z</time>
      </trkpt>
      <trkpt lat="44.86246" lon="6.10201">
        <ele>1671.4</ele>
        <time>2024-08-13T15:10:58Z</time>
      </trkpt>
      <trkpt lat="44.86247" lon="6.10198">
        <ele>1671.2</ele>
        <time>2024-08-13T15:10:59Z</time>
      </trkpt>
      <trkpt lat="44.86247" lon="6.10198">
        <ele>1671</ele>
        <time>2024-08-13T15:11:00Z</time>
      </trkpt>
      <trkpt lat="44.86249" lon="6.10196">
        <ele>1670.6</ele>
        <time>2024-08-13T15:11:01Z</time>
      </trkpt>
      <trkpt lat="44.86249" lon="6.10196">
        <ele>1670</ele>
        <time>2024-08-13T15:11:02Z</time>
      </trkpt>
      <trkpt lat="44.86249" lon="6.10196">
        <ele>1670</ele>
        <time>2024-08-13T15:11:03Z</time>
      </trkpt>
      <trkpt lat="44.8625" lon="6.10193">
        <ele>1669.6</ele>
        <time>2024-08-13T15:11:04Z</time>
      </trkpt>
      <trkpt lat="44.8625" lon="6.10193">
        <ele>1669.4</ele>
        <time>2024-08-13T15:11:05Z</time>
      </trkpt>
      <trkpt lat="44.86252" lon="6.10191">
        <ele>1669</ele>
        <time>2024-08-13T15:11:06Z</time>
      </trkpt>
      <trkpt lat="44.86252" lon="6.10191">
        <ele>1668.6</ele>
        <time>2024-08-13T15:11:07Z</time>
      </trkpt>
      <trkpt lat="44.86253" lon="6.10189">
        <ele>1668</ele>
        <time>2024-08-13T15:11:08Z</time>
      </trkpt>
      <trkpt lat="44.86253" lon="6.10189">
        <ele>1667.8</ele>
        <time>2024-08-13T15:11:09Z</time>
      </trkpt>
      <trkpt lat="44.86255" lon="6.10187">
        <ele>1667.6</ele>
        <time>2024-08-13T15:11:10Z</time>
      </trkpt>
      <trkpt lat="44.86255" lon="6.10187">
        <ele>1667.2</ele>
        <time>2024-08-13T15:11:11Z</time>
      </trkpt>
      <trkpt lat="44.86257" lon="6.10185">
        <ele>1666.6</ele>
        <time>2024-08-13T15:11:12Z</time>
      </trkpt>
      <trkpt lat="44.86257" lon="6.10185">
        <ele>1666.6</ele>
        <time>2024-08-13T15:11:13Z</time>
      </trkpt>
      <trkpt lat="44.86258" lon="6.10182">
        <ele>1666.2</ele>
        <time>2024-08-13T15:11:14Z</time>
      </trkpt>
      <trkpt lat="44.86258" lon="6.10182">
        <ele>1666</ele>
        <time>2024-08-13T15:11:15Z</time>
      </trkpt>
      <trkpt lat="44.86259" lon="6.1018">
        <ele>1665.6</ele>
        <time>2024-08-13T15:11:16Z</time>
      </trkpt>
      <trkpt lat="44.86259" lon="6.1018">
        <ele>1665.4</ele>
        <time>2024-08-13T15:11:17Z</time>
      </trkpt>
      <trkpt lat="44.86261" lon="6.10177">
        <ele>1665.2</ele>
        <time>2024-08-13T15:11:18Z</time>
      </trkpt>
      <trkpt lat="44.86261" lon="6.10177">
        <ele>1665</ele>
        <time>2024-08-13T15:11:19Z</time>
      </trkpt>
      <trkpt lat="44.86262" lon="6.10175">
        <ele>1664.6</ele>
        <time>2024-08-13T15:11:20Z</time>
      </trkpt>
      <trkpt lat="44.86262" lon="6.10175">
        <ele>1664.4</ele>
        <time>2024-08-13T15:11:21Z</time>
      </trkpt>
      <trkpt lat="44.86264" lon="6.10173">
        <ele>1664.4</ele>
        <time>2024-08-13T15:11:22Z</time>
      </trkpt>
      <trkpt lat="44.86264" lon="6.10173">
        <ele>1664.4</ele>
        <time>2024-08-13T15:11:23Z</time>
      </trkpt>
      <trkpt lat="44.86265" lon="6.10172">
        <ele>1664.4</ele>
        <time>2024-08-13T15:11:24Z</time>
      </trkpt>
      <trkpt lat="44.86265" lon="6.10172">
        <ele>1663.8</ele>
        <time>2024-08-13T15:11:25Z</time>
      </trkpt>
      <trkpt lat="44.86266" lon="6.10169">
        <ele>1663.8</ele>
        <time>2024-08-13T15:11:26Z</time>
      </trkpt>
      <trkpt lat="44.86266" lon="6.10169">
        <ele>1663.4</ele>
        <time>2024-08-13T15:11:27Z</time>
      </trkpt>
      <trkpt lat="44.86268" lon="6.10167">
        <ele>1663</ele>
        <time>2024-08-13T15:11:28Z</time>
      </trkpt>
      <trkpt lat="44.86268" lon="6.10167">
        <ele>1662.8</ele>
        <time>2024-08-13T15:11:29Z</time>
      </trkpt>
      <trkpt lat="44.86269" lon="6.10165">
        <ele>1662.6</ele>
        <time>2024-08-13T15:11:30Z</time>
      </trkpt>
      <trkpt lat="44.86269" lon="6.10165">
        <ele>1662.4</ele>
        <time>2024-08-13T15:11:31Z</time>
      </trkpt>
      <trkpt lat="44.86269" lon="6.10165">
        <ele>1662.2</ele>
        <time>2024-08-13T15:11:32Z</time>
      </trkpt>
      <trkpt lat="44.86269" lon="6.10165">
        <ele>1662</ele>
        <time>2024-08-13T15:11:33Z</time>
      </trkpt>
      <trkpt lat="44.86269" lon="6.10162">
        <ele>1661.6</ele>
        <time>2024-08-13T15:11:34Z</time>
      </trkpt>
      <trkpt lat="44.86269" lon="6.10162">
        <ele>1661.4</ele>
        <time>2024-08-13T15:11:35Z</time>
      </trkpt>
      <trkpt lat="44.86269" lon="6.10162">
        <ele>1661.2</ele>
        <time>2024-08-13T15:11:36Z</time>
      </trkpt>
      <trkpt lat="44.86269" lon="6.10162">
        <ele>1660.8</ele>
        <time>2024-08-13T15:11:37Z</time>
      </trkpt>
      <trkpt lat="44.86269" lon="6.10162">
        <ele>1660.6</ele>
        <time>2024-08-13T15:11:38Z</time>
      </trkpt>
      <trkpt lat="44.86269" lon="6.10162">
        <ele>1660.6</ele>
        <time>2024-08-13T15:11:39Z</time>
      </trkpt>
      <trkpt lat="44.86268" lon="6.10159">
        <ele>1660.6</ele>
        <time>2024-08-13T15:11:40Z</time>
      </trkpt>
      <trkpt lat="44.86268" lon="6.10159">
        <ele>1660.2</ele>
        <time>2024-08-13T15:11:41Z</time>
      </trkpt>
      <trkpt lat="44.86269" lon="6.10157">
        <ele>1659.8</ele>
        <time>2024-08-13T15:11:42Z</time>
      </trkpt>
      <trkpt lat="44.86269" lon="6.10157">
        <ele>1659.6</ele>
        <time>2024-08-13T15:11:43Z</time>
      </trkpt>
      <trkpt lat="44.8627" lon="6.10155">
        <ele>1659.2</ele>
        <time>2024-08-13T15:11:44Z</time>
      </trkpt>
      <trkpt lat="44.8627" lon="6.10155">
        <ele>1658.8</ele>
        <time>2024-08-13T15:11:45Z</time>
      </trkpt>
      <trkpt lat="44.86272" lon="6.10152">
        <ele>1658.2</ele>
        <time>2024-08-13T15:11:46Z</time>
      </trkpt>
      <trkpt lat="44.86272" lon="6.10152">
        <ele>1658</ele>
        <time>2024-08-13T15:11:47Z</time>
      </trkpt>
      <trkpt lat="44.86273" lon="6.10149">
        <ele>1658</ele>
        <time>2024-08-13T15:11:48Z</time>
      </trkpt>
      <trkpt lat="44.86273" lon="6.10149">
        <ele>1657.6</ele>
        <time>2024-08-13T15:11:49Z</time>
      </trkpt>
      <trkpt lat="44.86274" lon="6.10147">
        <ele>1657.2</ele>
        <time>2024-08-13T15:11:50Z</time>
      </trkpt>
      <trkpt lat="44.86274" lon="6.10147">
        <ele>1657</ele>
        <time>2024-08-13T15:11:51Z</time>
      </trkpt>
      <trkpt lat="44.86276" lon="6.10144">
        <ele>1656.6</ele>
        <time>2024-08-13T15:11:52Z</time>
      </trkpt>
      <trkpt lat="44.86276" lon="6.10144">
        <ele>1656.4</ele>
        <time>2024-08-13T15:11:53Z</time>
      </trkpt>
      <trkpt lat="44.86276" lon="6.10144">
        <ele>1656</ele>
        <time>2024-08-13T15:11:54Z</time>
      </trkpt>
      <trkpt lat="44.86278" lon="6.10141">
        <ele>1655.6</ele>
        <time>2024-08-13T15:11:55Z</time>
      </trkpt>
      <trkpt lat="44.86278" lon="6.10141">
        <ele>1655.6</ele>
        <time>2024-08-13T15:11:56Z</time>
      </trkpt>
      <trkpt lat="44.86278" lon="6.10141">
        <ele>1655.4</ele>
        <time>2024-08-13T15:11:57Z</time>
      </trkpt>
      <trkpt lat="44.8628" lon="6.10139">
        <ele>1654.6</ele>
        <time>2024-08-13T15:11:58Z</time>
      </trkpt>
      <trkpt lat="44.8628" lon="6.10139">
        <ele>1654</ele>
        <time>2024-08-13T15:11:59Z</time>
      </trkpt>
      <trkpt lat="44.86282" lon="6.10137">
        <ele>1653.8</ele>
        <time>2024-08-13T15:12:00Z</time>
      </trkpt>
      <trkpt lat="44.86282" lon="6.10137">
        <ele>1653.6</ele>
        <time>2024-08-13T15:12:01Z</time>
      </trkpt>
      <trkpt lat="44.86283" lon="6.10135">
        <ele>1653.2</ele>
        <time>2024-08-13T15:12:02Z</time>
      </trkpt>
      <trkpt lat="44.86283" lon="6.10135">
        <ele>1652.8</ele>
        <time>2024-08-13T15:12:03Z</time>
      </trkpt>
      <trkpt lat="44.86285" lon="6.10133">
        <ele>1652.4</ele>
        <time>2024-08-13T15:12:04Z</time>
      </trkpt>
      <trkpt lat="44.86285" lon="6.10133">
        <ele>1652.4</ele>
        <time>2024-08-13T15:12:05Z</time>
      </trkpt>
      <trkpt lat="44.86287" lon="6.10132">
        <ele>1652.2</ele>
        <time>2024-08-13T15:12:06Z</time>
      </trkpt>
      <trkpt lat="44.86287" lon="6.10132">
        <ele>1652.2</ele>
        <time>2024-08-13T15:12:07Z</time>
      </trkpt>
      <trkpt lat="44.86288" lon="6.1013">
        <ele>1652</ele>
        <time>2024-08-13T15:12:08Z</time>
      </trkpt>
      <trkpt lat="44.86288" lon="6.1013">
        <ele>1651.8</ele>
        <time>2024-08-13T15:12:09Z</time>
      </trkpt>
      <trkpt lat="44.8629" lon="6.10128">
        <ele>1651.6</ele>
        <time>2024-08-13T15:12:10Z</time>
      </trkpt>
      <trkpt lat="44.8629" lon="6.10128">
        <ele>1651.2</ele>
        <time>2024-08-13T15:12:11Z</time>
      </trkpt>
      <trkpt lat="44.86291" lon="6.10125">
        <ele>1651</ele>
        <time>2024-08-13T15:12:12Z</time>
      </trkpt>
      <trkpt lat="44.86291" lon="6.10125">
        <ele>1650.8</ele>
        <time>2024-08-13T15:12:13Z</time>
      </trkpt>
      <trkpt lat="44.86292" lon="6.10122">
        <ele>1650.8</ele>
        <time>2024-08-13T15:12:14Z</time>
      </trkpt>
      <trkpt lat="44.86292" lon="6.10122">
        <ele>1650.6</ele>
        <time>2024-08-13T15:12:15Z</time>
      </trkpt>
      <trkpt lat="44.86293" lon="6.1012">
        <ele>1650.4</ele>
        <time>2024-08-13T15:12:16Z</time>
      </trkpt>
      <trkpt lat="44.86293" lon="6.1012">
        <ele>1649.8</ele>
        <time>2024-08-13T15:12:17Z</time>
      </trkpt>
      <trkpt lat="44.86294" lon="6.10118">
        <ele>1649.6</ele>
        <time>2024-08-13T15:12:18Z</time>
      </trkpt>
      <trkpt lat="44.86294" lon="6.10118">
        <ele>1649.4</ele>
        <time>2024-08-13T15:12:19Z</time>
      </trkpt>
      <trkpt lat="44.86296" lon="6.10116">
        <ele>1649.2</ele>
        <time>2024-08-13T15:12:20Z</time>
      </trkpt>
      <trkpt lat="44.86296" lon="6.10116">
        <ele>1648.8</ele>
        <time>2024-08-13T15:12:21Z</time>
      </trkpt>
      <trkpt lat="44.86298" lon="6.10114">
        <ele>1648.4</ele>
        <time>2024-08-13T15:12:22Z</time>
      </trkpt>
      <trkpt lat="44.86298" lon="6.10114">
        <ele>1648.4</ele>
        <time>2024-08-13T15:12:23Z</time>
      </trkpt>
      <trkpt lat="44.86299" lon="6.10111">
        <ele>1648</ele>
        <time>2024-08-13T15:12:24Z</time>
      </trkpt>
      <trkpt lat="44.86299" lon="6.10111">
        <ele>1647.8</ele>
        <time>2024-08-13T15:12:25Z</time>
      </trkpt>
      <trkpt lat="44.863" lon="6.10109">
        <ele>1647.6</ele>
        <time>2024-08-13T15:12:26Z</time>
      </trkpt>
      <trkpt lat="44.863" lon="6.10109">
        <ele>1647.2</ele>
        <time>2024-08-13T15:12:27Z</time>
      </trkpt>
      <trkpt lat="44.86301" lon="6.10107">
        <ele>1646.6</ele>
        <time>2024-08-13T15:12:28Z</time>
      </trkpt>
      <trkpt lat="44.86301" lon="6.10107">
        <ele>1646.2</ele>
        <time>2024-08-13T15:12:29Z</time>
      </trkpt>
      <trkpt lat="44.86301" lon="6.10107">
        <ele>1646</ele>
        <time>2024-08-13T15:12:30Z</time>
      </trkpt>
      <trkpt lat="44.86302" lon="6.10103">
        <ele>1645.8</ele>
        <time>2024-08-13T15:12:31Z</time>
      </trkpt>
      <trkpt lat="44.86302" lon="6.10103">
        <ele>1645.4</ele>
        <time>2024-08-13T15:12:32Z</time>
      </trkpt>
      <trkpt lat="44.86303" lon="6.10101">
        <ele>1645.2</ele>
        <time>2024-08-13T15:12:33Z</time>
      </trkpt>
      <trkpt lat="44.86303" lon="6.10101">
        <ele>1644.8</ele>
        <time>2024-08-13T15:12:34Z</time>
      </trkpt>
      <trkpt lat="44.86304" lon="6.10099">
        <ele>1644.2</ele>
        <time>2024-08-13T15:12:35Z</time>
      </trkpt>
      <trkpt lat="44.86304" lon="6.10099">
        <ele>1643.6</ele>
        <time>2024-08-13T15:12:36Z</time>
      </trkpt>
      <trkpt lat="44.86306" lon="6.10097">
        <ele>1643.4</ele>
        <time>2024-08-13T15:12:37Z</time>
      </trkpt>
      <trkpt lat="44.86306" lon="6.10097">
        <ele>1643.2</ele>
        <time>2024-08-13T15:12:38Z</time>
      </trkpt>
      <trkpt lat="44.86308" lon="6.10095">
        <ele>1642.8</ele>
        <time>2024-08-13T15:12:39Z</time>
      </trkpt>
      <trkpt lat="44.86308" lon="6.10095">
        <ele>1642.4</ele>
        <time>2024-08-13T15:12:40Z</time>
      </trkpt>
      <trkpt lat="44.86309" lon="6.10093">
        <ele>1642</ele>
        <time>2024-08-13T15:12:41Z</time>
      </trkpt>
      <trkpt lat="44.86309" lon="6.10093">
        <ele>1641.6</ele>
        <time>2024-08-13T15:12:42Z</time>
      </trkpt>
      <trkpt lat="44.86311" lon="6.10091">
        <ele>1641.4</ele>
        <time>2024-08-13T15:12:43Z</time>
      </trkpt>
      <trkpt lat="44.86311" lon="6.10091">
        <ele>1640.8</ele>
        <time>2024-08-13T15:12:44Z</time>
      </trkpt>
      <trkpt lat="44.86311" lon="6.10091">
        <ele>1640.8</ele>
        <time>2024-08-13T15:12:45Z</time>
      </trkpt>
      <trkpt lat="44.86313" lon="6.10088">
        <ele>1640.8</ele>
        <time>2024-08-13T15:12:46Z</time>
      </trkpt>
      <trkpt lat="44.86313" lon="6.10088">
        <ele>1640.8</ele>
        <time>2024-08-13T15:12:47Z</time>
      </trkpt>
      <trkpt lat="44.86314" lon="6.10086">
        <ele>1640.4</ele>
        <time>2024-08-13T15:12:48Z</time>
      </trkpt>
      <trkpt lat="44.86314" lon="6.10086">
        <ele>1639.4</ele>
        <time>2024-08-13T15:12:49Z</time>
      </trkpt>
      <trkpt lat="44.86316" lon="6.10084">
        <ele>1638.4</ele>
        <time>2024-08-13T15:12:50Z</time>
      </trkpt>
      <trkpt lat="44.86316" lon="6.10084">
        <ele>1638</ele>
        <time>2024-08-13T15:12:51Z</time>
      </trkpt>
      <trkpt lat="44.86317" lon="6.10082">
        <ele>1637.8</ele>
        <time>2024-08-13T15:12:52Z</time>
      </trkpt>
      <trkpt lat="44.86317" lon="6.10082">
        <ele>1637.8</ele>
        <time>2024-08-13T15:12:53Z</time>
      </trkpt>
      <trkpt lat="44.86317" lon="6.10082">
        <ele>1637.4</ele>
        <time>2024-08-13T15:12:54Z</time>
      </trkpt>
      <trkpt lat="44.86319" lon="6.1008">
        <ele>1637.2</ele>
        <time>2024-08-13T15:12:55Z</time>
      </trkpt>
      <trkpt lat="44.86319" lon="6.1008">
        <ele>1637.2</ele>
        <time>2024-08-13T15:12:56Z</time>
      </trkpt>
      <trkpt lat="44.86321" lon="6.10078">
        <ele>1637</ele>
        <time>2024-08-13T15:12:57Z</time>
      </trkpt>
      <trkpt lat="44.86321" lon="6.10078">
        <ele>1636.6</ele>
        <time>2024-08-13T15:12:58Z</time>
      </trkpt>
      <trkpt lat="44.86321" lon="6.10078">
        <ele>1636.6</ele>
        <time>2024-08-13T15:12:59Z</time>
      </trkpt>
      <trkpt lat="44.86321" lon="6.10078">
        <ele>1636.6</ele>
        <time>2024-08-13T15:13:00Z</time>
      </trkpt>
      <trkpt lat="44.86321" lon="6.10078">
        <ele>1636.4</ele>
        <time>2024-08-13T15:13:01Z</time>
      </trkpt>
      <trkpt lat="44.86321" lon="6.10078">
        <ele>1636</ele>
        <time>2024-08-13T15:13:02Z</time>
      </trkpt>
      <trkpt lat="44.86319" lon="6.10076">
        <ele>1636</ele>
        <time>2024-08-13T15:13:03Z</time>
      </trkpt>
      <trkpt lat="44.86319" lon="6.10076">
        <ele>1636</ele>
        <time>2024-08-13T15:13:04Z</time>
      </trkpt>
      <trkpt lat="44.86317" lon="6.10076">
        <ele>1635.4</ele>
        <time>2024-08-13T15:13:05Z</time>
      </trkpt>
      <trkpt lat="44.86317" lon="6.10076">
        <ele>1635</ele>
        <time>2024-08-13T15:13:06Z</time>
      </trkpt>
      <trkpt lat="44.86317" lon="6.10076">
        <ele>1635</ele>
        <time>2024-08-13T15:13:07Z</time>
      </trkpt>
      <trkpt lat="44.86317" lon="6.10076">
        <ele>1634.8</ele>
        <time>2024-08-13T15:13:08Z</time>
      </trkpt>
      <trkpt lat="44.86319" lon="6.10073">
        <ele>1634.6</ele>
        <time>2024-08-13T15:13:09Z</time>
      </trkpt>
      <trkpt lat="44.86319" lon="6.10073">
        <ele>1634.4</ele>
        <time>2024-08-13T15:13:10Z</time>
      </trkpt>
      <trkpt lat="44.86319" lon="6.10073">
        <ele>1634.2</ele>
        <time>2024-08-13T15:13:11Z</time>
      </trkpt>
      <trkpt lat="44.86319" lon="6.10073">
        <ele>1634</ele>
        <time>2024-08-13T15:13:12Z</time>
      </trkpt>
      <trkpt lat="44.86319" lon="6.10073">
        <ele>1633.8</ele>
        <time>2024-08-13T15:13:13Z</time>
      </trkpt>
      <trkpt lat="44.86319" lon="6.10073">
        <ele>1633.4</ele>
        <time>2024-08-13T15:13:14Z</time>
      </trkpt>
      <trkpt lat="44.86321" lon="6.10071">
        <ele>1632.8</ele>
        <time>2024-08-13T15:13:15Z</time>
      </trkpt>
      <trkpt lat="44.86321" lon="6.10071">
        <ele>1632.6</ele>
        <time>2024-08-13T15:13:16Z</time>
      </trkpt>
      <trkpt lat="44.86321" lon="6.10071">
        <ele>1632.2</ele>
        <time>2024-08-13T15:13:17Z</time>
      </trkpt>
      <trkpt lat="44.86323" lon="6.10068">
        <ele>1631.6</ele>
        <time>2024-08-13T15:13:18Z</time>
      </trkpt>
      <trkpt lat="44.86323" lon="6.10068">
        <ele>1631.4</ele>
        <time>2024-08-13T15:13:19Z</time>
      </trkpt>
      <trkpt lat="44.86324" lon="6.10065">
        <ele>1631.2</ele>
        <time>2024-08-13T15:13:20Z</time>
      </trkpt>
      <trkpt lat="44.86324" lon="6.10065">
        <ele>1630.8</ele>
        <time>2024-08-13T15:13:21Z</time>
      </trkpt>
      <trkpt lat="44.86324" lon="6.10065">
        <ele>1630.8</ele>
        <time>2024-08-13T15:13:22Z</time>
      </trkpt>
      <trkpt lat="44.86325" lon="6.10063">
        <ele>1630.4</ele>
        <time>2024-08-13T15:13:23Z</time>
      </trkpt>
      <trkpt lat="44.86325" lon="6.10063">
        <ele>1630</ele>
        <time>2024-08-13T15:13:24Z</time>
      </trkpt>
      <trkpt lat="44.86325" lon="6.10063">
        <ele>1629.4</ele>
        <time>2024-08-13T15:13:25Z</time>
      </trkpt>
      <trkpt lat="44.86327" lon="6.1006">
        <ele>1629</ele>
        <time>2024-08-13T15:13:26Z</time>
      </trkpt>
      <trkpt lat="44.86327" lon="6.1006">
        <ele>1629</ele>
        <time>2024-08-13T15:13:27Z</time>
      </trkpt>
      <trkpt lat="44.86327" lon="6.1006">
        <ele>1628.4</ele>
        <time>2024-08-13T15:13:28Z</time>
      </trkpt>
      <trkpt lat="44.86329" lon="6.10058">
        <ele>1628</ele>
        <time>2024-08-13T15:13:29Z</time>
      </trkpt>
      <trkpt lat="44.86329" lon="6.10058">
        <ele>1627.4</ele>
        <time>2024-08-13T15:13:30Z</time>
      </trkpt>
      <trkpt lat="44.86329" lon="6.10058">
        <ele>1627.4</ele>
        <time>2024-08-13T15:13:31Z</time>
      </trkpt>
      <trkpt lat="44.86331" lon="6.10055">
        <ele>1627.2</ele>
        <time>2024-08-13T15:13:32Z</time>
      </trkpt>
      <trkpt lat="44.86331" lon="6.10055">
        <ele>1627.2</ele>
        <time>2024-08-13T15:13:33Z</time>
      </trkpt>
      <trkpt lat="44.86333" lon="6.10053">
        <ele>1627</ele>
        <time>2024-08-13T15:13:34Z</time>
      </trkpt>
      <trkpt lat="44.86333" lon="6.10053">
        <ele>1626.8</ele>
        <time>2024-08-13T15:13:35Z</time>
      </trkpt>
      <trkpt lat="44.86334" lon="6.10052">
        <ele>1626.6</ele>
        <time>2024-08-13T15:13:36Z</time>
      </trkpt>
      <trkpt lat="44.86334" lon="6.10052">
        <ele>1626.2</ele>
        <time>2024-08-13T15:13:37Z</time>
      </trkpt>
      <trkpt lat="44.86334" lon="6.10052">
        <ele>1625.8</ele>
        <time>2024-08-13T15:13:38Z</time>
      </trkpt>
      <trkpt lat="44.86334" lon="6.10052">
        <ele>1625.4</ele>
        <time>2024-08-13T15:13:39Z</time>
      </trkpt>
      <trkpt lat="44.86335" lon="6.1005">
        <ele>1625.4</ele>
        <time>2024-08-13T15:13:40Z</time>
      </trkpt>
      <trkpt lat="44.86335" lon="6.1005">
        <ele>1625.4</ele>
        <time>2024-08-13T15:13:41Z</time>
      </trkpt>
      <trkpt lat="44.86335" lon="6.1005">
        <ele>1625.6</ele>
        <time>2024-08-13T15:13:42Z</time>
      </trkpt>
      <trkpt lat="44.86335" lon="6.1005">
        <ele>1625.6</ele>
        <time>2024-08-13T15:13:43Z</time>
      </trkpt>
      <trkpt lat="44.86333" lon="6.10049">
        <ele>1625.4</ele>
        <time>2024-08-13T15:13:44Z</time>
      </trkpt>
      <trkpt lat="44.86333" lon="6.10049">
        <ele>1625.2</ele>
        <time>2024-08-13T15:13:45Z</time>
      </trkpt>
      <trkpt lat="44.8633" lon="6.10049">
        <ele>1624.6</ele>
        <time>2024-08-13T15:13:46Z</time>
      </trkpt>
      <trkpt lat="44.8633" lon="6.10049">
        <ele>1624.6</ele>
        <time>2024-08-13T15:13:47Z</time>
      </trkpt>
      <trkpt lat="44.86328" lon="6.10049">
        <ele>1624.6</ele>
        <time>2024-08-13T15:13:48Z</time>
      </trkpt>
      <trkpt lat="44.86328" lon="6.10049">
        <ele>1624</ele>
        <time>2024-08-13T15:13:49Z</time>
      </trkpt>
      <trkpt lat="44.86326" lon="6.1005">
        <ele>1623.4</ele>
        <time>2024-08-13T15:13:50Z</time>
      </trkpt>
      <trkpt lat="44.86326" lon="6.1005">
        <ele>1623.2</ele>
        <time>2024-08-13T15:13:51Z</time>
      </trkpt>
      <trkpt lat="44.86324" lon="6.10051">
        <ele>1623.2</ele>
        <time>2024-08-13T15:13:52Z</time>
      </trkpt>
      <trkpt lat="44.86324" lon="6.10051">
        <ele>1623</ele>
        <time>2024-08-13T15:13:53Z</time>
      </trkpt>
      <trkpt lat="44.86324" lon="6.10051">
        <ele>1622.6</ele>
        <time>2024-08-13T15:13:54Z</time>
      </trkpt>
      <trkpt lat="44.86324" lon="6.10051">
        <ele>1622</ele>
        <time>2024-08-13T15:13:55Z</time>
      </trkpt>
      <trkpt lat="44.86324" lon="6.10051">
        <ele>1621.8</ele>
        <time>2024-08-13T15:13:56Z</time>
      </trkpt>
      <trkpt lat="44.86324" lon="6.10051">
        <ele>1621.8</ele>
        <time>2024-08-13T15:13:57Z</time>
      </trkpt>
      <trkpt lat="44.86325" lon="6.10047">
        <ele>1621.4</ele>
        <time>2024-08-13T15:13:58Z</time>
      </trkpt>
      <trkpt lat="44.86325" lon="6.10047">
        <ele>1621</ele>
        <time>2024-08-13T15:13:59Z</time>
      </trkpt>
      <trkpt lat="44.86327" lon="6.10044">
        <ele>1621</ele>
        <time>2024-08-13T15:14:00Z</time>
      </trkpt>
      <trkpt lat="44.86327" lon="6.10044">
        <ele>1621</ele>
        <time>2024-08-13T15:14:01Z</time>
      </trkpt>
      <trkpt lat="44.86327" lon="6.10044">
        <ele>1620.8</ele>
        <time>2024-08-13T15:14:02Z</time>
      </trkpt>
      <trkpt lat="44.86327" lon="6.10044">
        <ele>1620.8</ele>
        <time>2024-08-13T15:14:03Z</time>
      </trkpt>
      <trkpt lat="44.86327" lon="6.10044">
        <ele>1620.2</ele>
        <time>2024-08-13T15:14:04Z</time>
      </trkpt>
      <trkpt lat="44.86329" lon="6.10042">
        <ele>1620</ele>
        <time>2024-08-13T15:14:05Z</time>
      </trkpt>
      <trkpt lat="44.86329" lon="6.10042">
        <ele>1619.6</ele>
        <time>2024-08-13T15:14:06Z</time>
      </trkpt>
      <trkpt lat="44.86331" lon="6.10039">
        <ele>1619.2</ele>
        <time>2024-08-13T15:14:07Z</time>
      </trkpt>
      <trkpt lat="44.86331" lon="6.10039">
        <ele>1618.8</ele>
        <time>2024-08-13T15:14:08Z</time>
      </trkpt>
      <trkpt lat="44.86333" lon="6.10038">
        <ele>1618.4</ele>
        <time>2024-08-13T15:14:09Z</time>
      </trkpt>
      <trkpt lat="44.86333" lon="6.10038">
        <ele>1617.6</ele>
        <time>2024-08-13T15:14:10Z</time>
      </trkpt>
      <trkpt lat="44.86333" lon="6.10038">
        <ele>1617.6</ele>
        <time>2024-08-13T15:14:11Z</time>
      </trkpt>
      <trkpt lat="44.86333" lon="6.10038">
        <ele>1617.8</ele>
        <time>2024-08-13T15:14:12Z</time>
      </trkpt>
      <trkpt lat="44.86331" lon="6.10037">
        <ele>1617.8</ele>
        <time>2024-08-13T15:14:13Z</time>
      </trkpt>
      <trkpt lat="44.86331" lon="6.10037">
        <ele>1617.8</ele>
        <time>2024-08-13T15:14:14Z</time>
      </trkpt>
      <trkpt lat="44.86329" lon="6.10038">
        <ele>1617.4</ele>
        <time>2024-08-13T15:14:15Z</time>
      </trkpt>
      <trkpt lat="44.86329" lon="6.10038">
        <ele>1617.2</ele>
        <time>2024-08-13T15:14:16Z</time>
      </trkpt>
      <trkpt lat="44.86329" lon="6.10038">
        <ele>1617.2</ele>
        <time>2024-08-13T15:14:17Z</time>
      </trkpt>
      <trkpt lat="44.86326" lon="6.10039">
        <ele>1617.4</ele>
        <time>2024-08-13T15:14:18Z</time>
      </trkpt>
      <trkpt lat="44.86326" lon="6.10039">
        <ele>1617.4</ele>
        <time>2024-08-13T15:14:19Z</time>
      </trkpt>
      <trkpt lat="44.86323" lon="6.1004">
        <ele>1617</ele>
        <time>2024-08-13T15:14:20Z</time>
      </trkpt>
      <trkpt lat="44.86323" lon="6.1004">
        <ele>1616.8</ele>
        <time>2024-08-13T15:14:21Z</time>
      </trkpt>
      <trkpt lat="44.8632" lon="6.10041">
        <ele>1616.8</ele>
        <time>2024-08-13T15:14:22Z</time>
      </trkpt>
      <trkpt lat="44.8632" lon="6.10041">
        <ele>1616.8</ele>
        <time>2024-08-13T15:14:23Z</time>
      </trkpt>
      <trkpt lat="44.86317" lon="6.10042">
        <ele>1616.8</ele>
        <time>2024-08-13T15:14:24Z</time>
      </trkpt>
      <trkpt lat="44.86317" lon="6.10042">
        <ele>1616.6</ele>
        <time>2024-08-13T15:14:25Z</time>
      </trkpt>
      <trkpt lat="44.86317" lon="6.10042">
        <ele>1616.6</ele>
        <time>2024-08-13T15:14:26Z</time>
      </trkpt>
      <trkpt lat="44.86314" lon="6.10043">
        <ele>1616.2</ele>
        <time>2024-08-13T15:14:27Z</time>
      </trkpt>
      <trkpt lat="44.86314" lon="6.10043">
        <ele>1615.8</ele>
        <time>2024-08-13T15:14:28Z</time>
      </trkpt>
      <trkpt lat="44.86314" lon="6.10043">
        <ele>1615.4</ele>
        <time>2024-08-13T15:14:29Z</time>
      </trkpt>
      <trkpt lat="44.86312" lon="6.10043">
        <ele>1615.2</ele>
        <time>2024-08-13T15:14:30Z</time>
      </trkpt>
      <trkpt lat="44.86312" lon="6.10043">
        <ele>1614.6</ele>
        <time>2024-08-13T15:14:31Z</time>
      </trkpt>
      <trkpt lat="44.86312" lon="6.10043">
        <ele>1614.4</ele>
        <time>2024-08-13T15:14:32Z</time>
      </trkpt>
      <trkpt lat="44.86312" lon="6.10043">
        <ele>1614.4</ele>
        <time>2024-08-13T15:14:33Z</time>
      </trkpt>
      <trkpt lat="44.86312" lon="6.10043">
        <ele>1614.2</ele>
        <time>2024-08-13T15:14:34Z</time>
      </trkpt>
      <trkpt lat="44.86312" lon="6.10043">
        <ele>1613.8</ele>
        <time>2024-08-13T15:14:35Z</time>
      </trkpt>
      <trkpt lat="44.86312" lon="6.10043">
        <ele>1613.2</ele>
        <time>2024-08-13T15:14:36Z</time>
      </trkpt>
      <trkpt lat="44.8631" lon="6.10042">
        <ele>1613</ele>
        <time>2024-08-13T15:14:37Z</time>
      </trkpt>
      <trkpt lat="44.8631" lon="6.10042">
        <ele>1612.8</ele>
        <time>2024-08-13T15:14:38Z</time>
      </trkpt>
      <trkpt lat="44.8631" lon="6.10042">
        <ele>1612.6</ele>
        <time>2024-08-13T15:14:39Z</time>
      </trkpt>
      <trkpt lat="44.86311" lon="6.10039">
        <ele>1612</ele>
        <time>2024-08-13T15:14:40Z</time>
      </trkpt>
      <trkpt lat="44.86311" lon="6.10039">
        <ele>1611.8</ele>
        <time>2024-08-13T15:14:41Z</time>
      </trkpt>
      <trkpt lat="44.86313" lon="6.10037">
        <ele>1611.6</ele>
        <time>2024-08-13T15:14:42Z</time>
      </trkpt>
      <trkpt lat="44.86313" lon="6.10037">
        <ele>1610.8</ele>
        <time>2024-08-13T15:14:43Z</time>
      </trkpt>
      <trkpt lat="44.86313" lon="6.10037">
        <ele>1610.6</ele>
        <time>2024-08-13T15:14:44Z</time>
      </trkpt>
      <trkpt lat="44.86313" lon="6.10037">
        <ele>1610.6</ele>
        <time>2024-08-13T15:14:45Z</time>
      </trkpt>
      <trkpt lat="44.86313" lon="6.10037">
        <ele>1610.4</ele>
        <time>2024-08-13T15:14:46Z</time>
      </trkpt>
      <trkpt lat="44.86313" lon="6.10037">
        <ele>1610</ele>
        <time>2024-08-13T15:14:47Z</time>
      </trkpt>
      <trkpt lat="44.86313" lon="6.10037">
        <ele>1609.8</ele>
        <time>2024-08-13T15:14:48Z</time>
      </trkpt>
      <trkpt lat="44.8631" lon="6.10036">
        <ele>1609.6</ele>
        <time>2024-08-13T15:14:49Z</time>
      </trkpt>
      <trkpt lat="44.8631" lon="6.10036">
        <ele>1609.2</ele>
        <time>2024-08-13T15:14:50Z</time>
      </trkpt>
      <trkpt lat="44.86305" lon="6.10038">
        <ele>1608.8</ele>
        <time>2024-08-13T15:14:51Z</time>
      </trkpt>
      <trkpt lat="44.86304" lon="6.10039">
        <ele>1608.6</ele>
        <time>2024-08-13T15:14:52Z</time>
      </trkpt>
      <trkpt lat="44.86304" lon="6.10039">
        <ele>1608.2</ele>
        <time>2024-08-13T15:14:53Z</time>
      </trkpt>
      <trkpt lat="44.86301" lon="6.1004">
        <ele>1608</ele>
        <time>2024-08-13T15:14:54Z</time>
      </trkpt>
      <trkpt lat="44.86301" lon="6.1004">
        <ele>1608</ele>
        <time>2024-08-13T15:14:55Z</time>
      </trkpt>
      <trkpt lat="44.86298" lon="6.10041">
        <ele>1607.8</ele>
        <time>2024-08-13T15:14:56Z</time>
      </trkpt>
      <trkpt lat="44.86298" lon="6.10041">
        <ele>1607.6</ele>
        <time>2024-08-13T15:14:57Z</time>
      </trkpt>
      <trkpt lat="44.86298" lon="6.10041">
        <ele>1607.2</ele>
        <time>2024-08-13T15:14:58Z</time>
      </trkpt>
      <trkpt lat="44.86295" lon="6.10041">
        <ele>1606.8</ele>
        <time>2024-08-13T15:14:59Z</time>
      </trkpt>
      <trkpt lat="44.86295" lon="6.10041">
        <ele>1606.6</ele>
        <time>2024-08-13T15:15:00Z</time>
      </trkpt>
      <trkpt lat="44.86293" lon="6.10041">
        <ele>1606.6</ele>
        <time>2024-08-13T15:15:01Z</time>
      </trkpt>
      <trkpt lat="44.86293" lon="6.10041">
        <ele>1606.2</ele>
        <time>2024-08-13T15:15:02Z</time>
      </trkpt>
      <trkpt lat="44.86291" lon="6.10043">
        <ele>1606.2</ele>
        <time>2024-08-13T15:15:03Z</time>
      </trkpt>
      <trkpt lat="44.86289" lon="6.10043">
        <ele>1605.8</ele>
        <time>2024-08-13T15:15:04Z</time>
      </trkpt>
      <trkpt lat="44.86286" lon="6.10042">
        <ele>1605.8</ele>
        <time>2024-08-13T15:15:05Z</time>
      </trkpt>
      <trkpt lat="44.86286" lon="6.10042">
        <ele>1605.8</ele>
        <time>2024-08-13T15:15:06Z</time>
      </trkpt>
      <trkpt lat="44.86284" lon="6.10042">
        <ele>1605.8</ele>
        <time>2024-08-13T15:15:07Z</time>
      </trkpt>
      <trkpt lat="44.86284" lon="6.10042">
        <ele>1605.6</ele>
        <time>2024-08-13T15:15:08Z</time>
      </trkpt>
      <trkpt lat="44.86284" lon="6.10042">
        <ele>1605.4</ele>
        <time>2024-08-13T15:15:09Z</time>
      </trkpt>
      <trkpt lat="44.86284" lon="6.10042">
        <ele>1604.8</ele>
        <time>2024-08-13T15:15:10Z</time>
      </trkpt>
      <trkpt lat="44.86285" lon="6.10038">
        <ele>1604.4</ele>
        <time>2024-08-13T15:15:11Z</time>
      </trkpt>
      <trkpt lat="44.86285" lon="6.10038">
        <ele>1604</ele>
        <time>2024-08-13T15:15:12Z</time>
      </trkpt>
      <trkpt lat="44.86286" lon="6.10037">
        <ele>1603.8</ele>
        <time>2024-08-13T15:15:13Z</time>
      </trkpt>
      <trkpt lat="44.86286" lon="6.10037">
        <ele>1603.4</ele>
        <time>2024-08-13T15:15:14Z</time>
      </trkpt>
      <trkpt lat="44.86288" lon="6.10035">
        <ele>1603.2</ele>
        <time>2024-08-13T15:15:15Z</time>
      </trkpt>
      <trkpt lat="44.86288" lon="6.10035">
        <ele>1603</ele>
        <time>2024-08-13T15:15:16Z</time>
      </trkpt>
      <trkpt lat="44.86288" lon="6.10035">
        <ele>1602.8</ele>
        <time>2024-08-13T15:15:17Z</time>
      </trkpt>
      <trkpt lat="44.8629" lon="6.10033">
        <ele>1602.6</ele>
        <time>2024-08-13T15:15:18Z</time>
      </trkpt>
      <trkpt lat="44.8629" lon="6.10033">
        <ele>1602.4</ele>
        <time>2024-08-13T15:15:19Z</time>
      </trkpt>
      <trkpt lat="44.8629" lon="6.10033">
        <ele>1602.2</ele>
        <time>2024-08-13T15:15:20Z</time>
      </trkpt>
      <trkpt lat="44.86292" lon="6.1003">
        <ele>1601.8</ele>
        <time>2024-08-13T15:15:21Z</time>
      </trkpt>
      <trkpt lat="44.86292" lon="6.1003">
        <ele>1601.6</ele>
        <time>2024-08-13T15:15:22Z</time>
      </trkpt>
      <trkpt lat="44.86292" lon="6.1003">
        <ele>1601.4</ele>
        <time>2024-08-13T15:15:23Z</time>
      </trkpt>
      <trkpt lat="44.86292" lon="6.1003">
        <ele>1601</ele>
        <time>2024-08-13T15:15:24Z</time>
      </trkpt>
      <trkpt lat="44.86291" lon="6.10027">
        <ele>1600.8</ele>
        <time>2024-08-13T15:15:25Z</time>
      </trkpt>
      <trkpt lat="44.86291" lon="6.10027">
        <ele>1600.4</ele>
        <time>2024-08-13T15:15:26Z</time>
      </trkpt>
      <trkpt lat="44.86288" lon="6.10027">
        <ele>1600</ele>
        <time>2024-08-13T15:15:27Z</time>
      </trkpt>
      <trkpt lat="44.86288" lon="6.10027">
        <ele>1599.4</ele>
        <time>2024-08-13T15:15:28Z</time>
      </trkpt>
      <trkpt lat="44.86286" lon="6.10027">
        <ele>1599</ele>
        <time>2024-08-13T15:15:29Z</time>
      </trkpt>
      <trkpt lat="44.86286" lon="6.10027">
        <ele>1598.6</ele>
        <time>2024-08-13T15:15:30Z</time>
      </trkpt>
      <trkpt lat="44.86284" lon="6.10028">
        <ele>1598.4</ele>
        <time>2024-08-13T15:15:31Z</time>
      </trkpt>
      <trkpt lat="44.86284" lon="6.10028">
        <ele>1598.4</ele>
        <time>2024-08-13T15:15:32Z</time>
      </trkpt>
      <trkpt lat="44.86281" lon="6.10028">
        <ele>1598.2</ele>
        <time>2024-08-13T15:15:33Z</time>
      </trkpt>
      <trkpt lat="44.86281" lon="6.10028">
        <ele>1598.2</ele>
        <time>2024-08-13T15:15:34Z</time>
      </trkpt>
      <trkpt lat="44.86281" lon="6.10028">
        <ele>1598</ele>
        <time>2024-08-13T15:15:35Z</time>
      </trkpt>
      <trkpt lat="44.86281" lon="6.10025">
        <ele>1598</ele>
        <time>2024-08-13T15:15:36Z</time>
      </trkpt>
      <trkpt lat="44.86281" lon="6.10025">
        <ele>1597.8</ele>
        <time>2024-08-13T15:15:37Z</time>
      </trkpt>
      <trkpt lat="44.86282" lon="6.10023">
        <ele>1597.4</ele>
        <time>2024-08-13T15:15:38Z</time>
      </trkpt>
      <trkpt lat="44.86282" lon="6.10023">
        <ele>1597</ele>
        <time>2024-08-13T15:15:39Z</time>
      </trkpt>
      <trkpt lat="44.86285" lon="6.10021">
        <ele>1596.6</ele>
        <time>2024-08-13T15:15:40Z</time>
      </trkpt>
      <trkpt lat="44.86285" lon="6.10021">
        <ele>1596.2</ele>
        <time>2024-08-13T15:15:41Z</time>
      </trkpt>
      <trkpt lat="44.86285" lon="6.10021">
        <ele>1595.6</ele>
        <time>2024-08-13T15:15:42Z</time>
      </trkpt>
      <trkpt lat="44.86287" lon="6.10018">
        <ele>1595</ele>
        <time>2024-08-13T15:15:43Z</time>
      </trkpt>
      <trkpt lat="44.86287" lon="6.10018">
        <ele>1594.8</ele>
        <time>2024-08-13T15:15:44Z</time>
      </trkpt>
      <trkpt lat="44.86289" lon="6.10017">
        <ele>1594.6</ele>
        <time>2024-08-13T15:15:45Z</time>
      </trkpt>
      <trkpt lat="44.86289" lon="6.10017">
        <ele>1594.6</ele>
        <time>2024-08-13T15:15:46Z</time>
      </trkpt>
      <trkpt lat="44.86289" lon="6.10017">
        <ele>1594.2</ele>
        <time>2024-08-13T15:15:47Z</time>
      </trkpt>
      <trkpt lat="44.86289" lon="6.10017">
        <ele>1593.8</ele>
        <time>2024-08-13T15:15:48Z</time>
      </trkpt>
      <trkpt lat="44.86289" lon="6.10017">
        <ele>1593</ele>
        <time>2024-08-13T15:15:49Z</time>
      </trkpt>
      <trkpt lat="44.86288" lon="6.10014">
        <ele>1592.8</ele>
        <time>2024-08-13T15:15:50Z</time>
      </trkpt>
      <trkpt lat="44.86288" lon="6.10014">
        <ele>1592.8</ele>
        <time>2024-08-13T15:15:51Z</time>
      </trkpt>
      <trkpt lat="44.86286" lon="6.10015">
        <ele>1592.6</ele>
        <time>2024-08-13T15:15:52Z</time>
      </trkpt>
      <trkpt lat="44.86286" lon="6.10015">
        <ele>1592.4</ele>
        <time>2024-08-13T15:15:53Z</time>
      </trkpt>
      <trkpt lat="44.86283" lon="6.10015">
        <ele>1592.4</ele>
        <time>2024-08-13T15:15:54Z</time>
      </trkpt>
      <trkpt lat="44.86283" lon="6.10015">
        <ele>1592.4</ele>
        <time>2024-08-13T15:15:55Z</time>
      </trkpt>
      <trkpt lat="44.86281" lon="6.10014">
        <ele>1592</ele>
        <time>2024-08-13T15:15:56Z</time>
      </trkpt>
      <trkpt lat="44.86281" lon="6.10014">
        <ele>1591.6</ele>
        <time>2024-08-13T15:15:57Z</time>
      </trkpt>
      <trkpt lat="44.86282" lon="6.10012">
        <ele>1591</ele>
        <time>2024-08-13T15:15:58Z</time>
      </trkpt>
      <trkpt lat="44.86282" lon="6.10012">
        <ele>1590.8</ele>
        <time>2024-08-13T15:15:59Z</time>
      </trkpt>
      <trkpt lat="44.86285" lon="6.10011">
        <ele>1590.4</ele>
        <time>2024-08-13T15:16:00Z</time>
      </trkpt>
      <trkpt lat="44.86285" lon="6.10011">
        <ele>1589.8</ele>
        <time>2024-08-13T15:16:01Z</time>
      </trkpt>
      <trkpt lat="44.86286" lon="6.10009">
        <ele>1589.8</ele>
        <time>2024-08-13T15:16:02Z</time>
      </trkpt>
      <trkpt lat="44.86286" lon="6.10009">
        <ele>1589.6</ele>
        <time>2024-08-13T15:16:03Z</time>
      </trkpt>
      <trkpt lat="44.86288" lon="6.10006">
        <ele>1589.2</ele>
        <time>2024-08-13T15:16:04Z</time>
      </trkpt>
      <trkpt lat="44.86288" lon="6.10006">
        <ele>1588.6</ele>
        <time>2024-08-13T15:16:05Z</time>
      </trkpt>
      <trkpt lat="44.8629" lon="6.10004">
        <ele>1588.4</ele>
        <time>2024-08-13T15:16:06Z</time>
      </trkpt>
      <trkpt lat="44.8629" lon="6.10004">
        <ele>1587.6</ele>
        <time>2024-08-13T15:16:07Z</time>
      </trkpt>
      <trkpt lat="44.86293" lon="6.10003">
        <ele>1586.6</ele>
        <time>2024-08-13T15:16:08Z</time>
      </trkpt>
      <trkpt lat="44.86293" lon="6.10003">
        <ele>1586.6</ele>
        <time>2024-08-13T15:16:09Z</time>
      </trkpt>
      <trkpt lat="44.86295" lon="6.10001">
        <ele>1586.8</ele>
        <time>2024-08-13T15:16:10Z</time>
      </trkpt>
      <trkpt lat="44.86295" lon="6.10001">
        <ele>1586.8</ele>
        <time>2024-08-13T15:16:11Z</time>
      </trkpt>
      <trkpt lat="44.86297" lon="6.09998">
        <ele>1586.6</ele>
        <time>2024-08-13T15:16:12Z</time>
      </trkpt>
      <trkpt lat="44.86297" lon="6.09998">
        <ele>1586</ele>
        <time>2024-08-13T15:16:13Z</time>
      </trkpt>
      <trkpt lat="44.86299" lon="6.09996">
        <ele>1586</ele>
        <time>2024-08-13T15:16:14Z</time>
      </trkpt>
      <trkpt lat="44.86299" lon="6.09996">
        <ele>1585.8</ele>
        <time>2024-08-13T15:16:15Z</time>
      </trkpt>
      <trkpt lat="44.86299" lon="6.09994">
        <ele>1585.8</ele>
        <time>2024-08-13T15:16:16Z</time>
      </trkpt>
      <trkpt lat="44.86299" lon="6.09994">
        <ele>1585.4</ele>
        <time>2024-08-13T15:16:17Z</time>
      </trkpt>
      <trkpt lat="44.863" lon="6.0999">
        <ele>1585</ele>
        <time>2024-08-13T15:16:18Z</time>
      </trkpt>
      <trkpt lat="44.863" lon="6.0999">
        <ele>1584.8</ele>
        <time>2024-08-13T15:16:19Z</time>
      </trkpt>
      <trkpt lat="44.86301" lon="6.09988">
        <ele>1584.8</ele>
        <time>2024-08-13T15:16:20Z</time>
      </trkpt>
      <trkpt lat="44.86301" lon="6.09988">
        <ele>1584.6</ele>
        <time>2024-08-13T15:16:21Z</time>
      </trkpt>
      <trkpt lat="44.86303" lon="6.09985">
        <ele>1584.4</ele>
        <time>2024-08-13T15:16:22Z</time>
      </trkpt>
      <trkpt lat="44.86303" lon="6.09985">
        <ele>1583.8</ele>
        <time>2024-08-13T15:16:23Z</time>
      </trkpt>
      <trkpt lat="44.86304" lon="6.09983">
        <ele>1583.8</ele>
        <time>2024-08-13T15:16:24Z</time>
      </trkpt>
      <trkpt lat="44.86304" lon="6.09983">
        <ele>1583.6</ele>
        <time>2024-08-13T15:16:25Z</time>
      </trkpt>
      <trkpt lat="44.86305" lon="6.09981">
        <ele>1583.4</ele>
        <time>2024-08-13T15:16:26Z</time>
      </trkpt>
      <trkpt lat="44.86305" lon="6.09981">
        <ele>1583</ele>
        <time>2024-08-13T15:16:27Z</time>
      </trkpt>
      <trkpt lat="44.86307" lon="6.09978">
        <ele>1582.8</ele>
        <time>2024-08-13T15:16:28Z</time>
      </trkpt>
      <trkpt lat="44.86307" lon="6.09978">
        <ele>1582.8</ele>
        <time>2024-08-13T15:16:29Z</time>
      </trkpt>
      <trkpt lat="44.86309" lon="6.09976">
        <ele>1582.4</ele>
        <time>2024-08-13T15:16:30Z</time>
      </trkpt>
      <trkpt lat="44.86309" lon="6.09976">
        <ele>1582</ele>
        <time>2024-08-13T15:16:31Z</time>
      </trkpt>
      <trkpt lat="44.8631" lon="6.09974">
        <ele>1581.2</ele>
        <time>2024-08-13T15:16:32Z</time>
      </trkpt>
      <trkpt lat="44.8631" lon="6.09974">
        <ele>1581</ele>
        <time>2024-08-13T15:16:33Z</time>
      </trkpt>
      <trkpt lat="44.8631" lon="6.09974">
        <ele>1581</ele>
        <time>2024-08-13T15:16:34Z</time>
      </trkpt>
      <trkpt lat="44.86311" lon="6.09971">
        <ele>1580.4</ele>
        <time>2024-08-13T15:16:35Z</time>
      </trkpt>
      <trkpt lat="44.86311" lon="6.09971">
        <ele>1579.6</ele>
        <time>2024-08-13T15:16:36Z</time>
      </trkpt>
      <trkpt lat="44.86311" lon="6.09971">
        <ele>1579.6</ele>
        <time>2024-08-13T15:16:37Z</time>
      </trkpt>
      <trkpt lat="44.86313" lon="6.09968">
        <ele>1579.6</ele>
        <time>2024-08-13T15:16:38Z</time>
      </trkpt>
      <trkpt lat="44.86313" lon="6.09968">
        <ele>1578.8</ele>
        <time>2024-08-13T15:16:39Z</time>
      </trkpt>
      <trkpt lat="44.86313" lon="6.09968">
        <ele>1578</ele>
        <time>2024-08-13T15:16:40Z</time>
      </trkpt>
      <trkpt lat="44.86314" lon="6.09965">
        <ele>1576.8</ele>
        <time>2024-08-13T15:16:41Z</time>
      </trkpt>
      <trkpt lat="44.86314" lon="6.09965">
        <ele>1576.8</ele>
        <time>2024-08-13T15:16:42Z</time>
      </trkpt>
      <trkpt lat="44.86316" lon="6.09963">
        <ele>1576.8</ele>
        <time>2024-08-13T15:16:43Z</time>
      </trkpt>
      <trkpt lat="44.86316" lon="6.09963">
        <ele>1576.6</ele>
        <time>2024-08-13T15:16:44Z</time>
      </trkpt>
      <trkpt lat="44.86317" lon="6.09961">
        <ele>1576.2</ele>
        <time>2024-08-13T15:16:45Z</time>
      </trkpt>
      <trkpt lat="44.86317" lon="6.09961">
        <ele>1575.6</ele>
        <time>2024-08-13T15:16:46Z</time>
      </trkpt>
      <trkpt lat="44.86319" lon="6.09958">
        <ele>1575.4</ele>
        <time>2024-08-13T15:16:47Z</time>
      </trkpt>
      <trkpt lat="44.86319" lon="6.09958">
        <ele>1575</ele>
        <time>2024-08-13T15:16:48Z</time>
      </trkpt>
      <trkpt lat="44.86321" lon="6.09956">
        <ele>1574.4</ele>
        <time>2024-08-13T15:16:49Z</time>
      </trkpt>
      <trkpt lat="44.86321" lon="6.09956">
        <ele>1574.2</ele>
        <time>2024-08-13T15:16:50Z</time>
      </trkpt>
      <trkpt lat="44.86321" lon="6.09956">
        <ele>1573.8</ele>
        <time>2024-08-13T15:16:51Z</time>
      </trkpt>
      <trkpt lat="44.86322" lon="6.09954">
        <ele>1573.2</ele>
        <time>2024-08-13T15:16:52Z</time>
      </trkpt>
      <trkpt lat="44.86322" lon="6.09954">
        <ele>1572.8</ele>
        <time>2024-08-13T15:16:53Z</time>
      </trkpt>
      <trkpt lat="44.86322" lon="6.09954">
        <ele>1572.6</ele>
        <time>2024-08-13T15:16:54Z</time>
      </trkpt>
      <trkpt lat="44.86323" lon="6.09952">
        <ele>1572.4</ele>
        <time>2024-08-13T15:16:55Z</time>
      </trkpt>
      <trkpt lat="44.86323" lon="6.09952">
        <ele>1572.2</ele>
        <time>2024-08-13T15:16:56Z</time>
      </trkpt>
      <trkpt lat="44.86323" lon="6.09952">
        <ele>1572</ele>
        <time>2024-08-13T15:16:57Z</time>
      </trkpt>
      <trkpt lat="44.86322" lon="6.09949">
        <ele>1571.6</ele>
        <time>2024-08-13T15:16:58Z</time>
      </trkpt>
      <trkpt lat="44.86322" lon="6.09949">
        <ele>1571.4</ele>
        <time>2024-08-13T15:16:59Z</time>
      </trkpt>
      <trkpt lat="44.86319" lon="6.09949">
        <ele>1571.2</ele>
        <time>2024-08-13T15:17:00Z</time>
      </trkpt>
      <trkpt lat="44.86319" lon="6.09949">
        <ele>1570.8</ele>
        <time>2024-08-13T15:17:01Z</time>
      </trkpt>
      <trkpt lat="44.86316" lon="6.0995">
        <ele>1570.2</ele>
        <time>2024-08-13T15:17:02Z</time>
      </trkpt>
      <trkpt lat="44.86316" lon="6.0995">
        <ele>1570.2</ele>
        <time>2024-08-13T15:17:03Z</time>
      </trkpt>
      <trkpt lat="44.86313" lon="6.09951">
        <ele>1570</ele>
        <time>2024-08-13T15:17:04Z</time>
      </trkpt>
      <trkpt lat="44.86313" lon="6.09951">
        <ele>1569.6</ele>
        <time>2024-08-13T15:17:05Z</time>
      </trkpt>
      <trkpt lat="44.86311" lon="6.09951">
        <ele>1569.6</ele>
        <time>2024-08-13T15:17:06Z</time>
      </trkpt>
      <trkpt lat="44.86311" lon="6.09951">
        <ele>1569.6</ele>
        <time>2024-08-13T15:17:07Z</time>
      </trkpt>
      <trkpt lat="44.86309" lon="6.09951">
        <ele>1569.6</ele>
        <time>2024-08-13T15:17:08Z</time>
      </trkpt>
      <trkpt lat="44.86309" lon="6.09951">
        <ele>1568.4</ele>
        <time>2024-08-13T15:17:09Z</time>
      </trkpt>
      <trkpt lat="44.86308" lon="6.0995">
        <ele>1568.4</ele>
        <time>2024-08-13T15:17:10Z</time>
      </trkpt>
      <trkpt lat="44.86308" lon="6.0995">
        <ele>1568.4</ele>
        <time>2024-08-13T15:17:11Z</time>
      </trkpt>
      <trkpt lat="44.86306" lon="6.0995">
        <ele>1568</ele>
        <time>2024-08-13T15:17:12Z</time>
      </trkpt>
      <trkpt lat="44.86306" lon="6.0995">
        <ele>1567.4</ele>
        <time>2024-08-13T15:17:13Z</time>
      </trkpt>
      <trkpt lat="44.86303" lon="6.0995">
        <ele>1566.8</ele>
        <time>2024-08-13T15:17:14Z</time>
      </trkpt>
      <trkpt lat="44.86303" lon="6.0995">
        <ele>1566.8</ele>
        <time>2024-08-13T15:17:15Z</time>
      </trkpt>
      <trkpt lat="44.86301" lon="6.09951">
        <ele>1566.6</ele>
        <time>2024-08-13T15:17:16Z</time>
      </trkpt>
      <trkpt lat="44.86301" lon="6.09951">
        <ele>1566.2</ele>
        <time>2024-08-13T15:17:17Z</time>
      </trkpt>
      <trkpt lat="44.863" lon="6.09952">
        <ele>1565.8</ele>
        <time>2024-08-13T15:17:18Z</time>
      </trkpt>
      <trkpt lat="44.863" lon="6.09952">
        <ele>1565.8</ele>
        <time>2024-08-13T15:17:19Z</time>
      </trkpt>
      <trkpt lat="44.863" lon="6.09952">
        <ele>1565.2</ele>
        <time>2024-08-13T15:17:20Z</time>
      </trkpt>
      <trkpt lat="44.86301" lon="6.09949">
        <ele>1564.6</ele>
        <time>2024-08-13T15:17:21Z</time>
      </trkpt>
      <trkpt lat="44.86301" lon="6.09949">
        <ele>1564.2</ele>
        <time>2024-08-13T15:17:22Z</time>
      </trkpt>
      <trkpt lat="44.86303" lon="6.09946">
        <ele>1564</ele>
        <time>2024-08-13T15:17:23Z</time>
      </trkpt>
      <trkpt lat="44.86303" lon="6.09946">
        <ele>1564</ele>
        <time>2024-08-13T15:17:24Z</time>
      </trkpt>
      <trkpt lat="44.86304" lon="6.09944">
        <ele>1563.6</ele>
        <time>2024-08-13T15:17:25Z</time>
      </trkpt>
      <trkpt lat="44.86304" lon="6.09944">
        <ele>1562.2</ele>
        <time>2024-08-13T15:17:26Z</time>
      </trkpt>
      <trkpt lat="44.86306" lon="6.09942">
        <ele>1560.8</ele>
        <time>2024-08-13T15:17:27Z</time>
      </trkpt>
      <trkpt lat="44.86306" lon="6.09942">
        <ele>1560.8</ele>
        <time>2024-08-13T15:17:28Z</time>
      </trkpt>
      <trkpt lat="44.86308" lon="6.0994">
        <ele>1560.8</ele>
        <time>2024-08-13T15:17:29Z</time>
      </trkpt>
      <trkpt lat="44.86308" lon="6.0994">
        <ele>1561.2</ele>
        <time>2024-08-13T15:17:30Z</time>
      </trkpt>
      <trkpt lat="44.8631" lon="6.09938">
        <ele>1561</ele>
        <time>2024-08-13T15:17:31Z</time>
      </trkpt>
      <trkpt lat="44.8631" lon="6.09938">
        <ele>1560.8</ele>
        <time>2024-08-13T15:17:32Z</time>
      </trkpt>
      <trkpt lat="44.86311" lon="6.09936">
        <ele>1560.6</ele>
        <time>2024-08-13T15:17:33Z</time>
      </trkpt>
      <trkpt lat="44.86313" lon="6.09934">
        <ele>1560</ele>
        <time>2024-08-13T15:17:34Z</time>
      </trkpt>
      <trkpt lat="44.86313" lon="6.09934">
        <ele>1559.6</ele>
        <time>2024-08-13T15:17:35Z</time>
      </trkpt>
      <trkpt lat="44.86313" lon="6.09931">
        <ele>1559.4</ele>
        <time>2024-08-13T15:17:36Z</time>
      </trkpt>
      <trkpt lat="44.86313" lon="6.09931">
        <ele>1558.8</ele>
        <time>2024-08-13T15:17:37Z</time>
      </trkpt>
      <trkpt lat="44.86315" lon="6.09929">
        <ele>1558.4</ele>
        <time>2024-08-13T15:17:38Z</time>
      </trkpt>
      <trkpt lat="44.86315" lon="6.09929">
        <ele>1558.4</ele>
        <time>2024-08-13T15:17:39Z</time>
      </trkpt>
      <trkpt lat="44.86317" lon="6.09928">
        <ele>1558.2</ele>
        <time>2024-08-13T15:17:40Z</time>
      </trkpt>
      <trkpt lat="44.86317" lon="6.09928">
        <ele>1557.8</ele>
        <time>2024-08-13T15:17:41Z</time>
      </trkpt>
      <trkpt lat="44.86318" lon="6.09926">
        <ele>1556.8</ele>
        <time>2024-08-13T15:17:42Z</time>
      </trkpt>
      <trkpt lat="44.86318" lon="6.09926">
        <ele>1556.8</ele>
        <time>2024-08-13T15:17:43Z</time>
      </trkpt>
      <trkpt lat="44.8632" lon="6.09924">
        <ele>1556.8</ele>
        <time>2024-08-13T15:17:44Z</time>
      </trkpt>
      <trkpt lat="44.8632" lon="6.09924">
        <ele>1556.6</ele>
        <time>2024-08-13T15:17:45Z</time>
      </trkpt>
      <trkpt lat="44.8632" lon="6.09924">
        <ele>1556.6</ele>
        <time>2024-08-13T15:17:46Z</time>
      </trkpt>
      <trkpt lat="44.86322" lon="6.09923">
        <ele>1555.6</ele>
        <time>2024-08-13T15:17:47Z</time>
      </trkpt>
      <trkpt lat="44.86322" lon="6.09923">
        <ele>1555.6</ele>
        <time>2024-08-13T15:17:48Z</time>
      </trkpt>
      <trkpt lat="44.86322" lon="6.09923">
        <ele>1555.6</ele>
        <time>2024-08-13T15:17:49Z</time>
      </trkpt>
      <trkpt lat="44.86322" lon="6.09923">
        <ele>1555.4</ele>
        <time>2024-08-13T15:17:50Z</time>
      </trkpt>
      <trkpt lat="44.86321" lon="6.09921">
        <ele>1555.2</ele>
        <time>2024-08-13T15:17:51Z</time>
      </trkpt>
      <trkpt lat="44.86321" lon="6.09921">
        <ele>1554.8</ele>
        <time>2024-08-13T15:17:52Z</time>
      </trkpt>
      <trkpt lat="44.86321" lon="6.09921">
        <ele>1554.6</ele>
        <time>2024-08-13T15:17:53Z</time>
      </trkpt>
      <trkpt lat="44.86323" lon="6.09918">
        <ele>1554.2</ele>
        <time>2024-08-13T15:17:54Z</time>
      </trkpt>
      <trkpt lat="44.86323" lon="6.09918">
        <ele>1554.2</ele>
        <time>2024-08-13T15:17:55Z</time>
      </trkpt>
      <trkpt lat="44.86324" lon="6.09915">
        <ele>1553.6</ele>
        <time>2024-08-13T15:17:56Z</time>
      </trkpt>
      <trkpt lat="44.86324" lon="6.09915">
        <ele>1553</ele>
        <time>2024-08-13T15:17:57Z</time>
      </trkpt>
      <trkpt lat="44.86324" lon="6.09915">
        <ele>1552.4</ele>
        <time>2024-08-13T15:17:58Z</time>
      </trkpt>
      <trkpt lat="44.86324" lon="6.09915">
        <ele>1552.4</ele>
        <time>2024-08-13T15:17:59Z</time>
      </trkpt>
      <trkpt lat="44.86324" lon="6.09915">
        <ele>1552.4</ele>
        <time>2024-08-13T15:18:00Z</time>
      </trkpt>
      <trkpt lat="44.86324" lon="6.09915">
        <ele>1552.4</ele>
        <time>2024-08-13T15:18:01Z</time>
      </trkpt>
      <trkpt lat="44.86324" lon="6.09915">
        <ele>1552.4</ele>
        <time>2024-08-13T15:18:02Z</time>
      </trkpt>
      <trkpt lat="44.86324" lon="6.09915">
        <ele>1552.6</ele>
        <time>2024-08-13T15:18:03Z</time>
      </trkpt>
      <trkpt lat="44.86324" lon="6.09915">
        <ele>1552.6</ele>
        <time>2024-08-13T15:18:04Z</time>
      </trkpt>
      <trkpt lat="44.86324" lon="6.09915">
        <ele>1552.6</ele>
        <time>2024-08-13T15:18:05Z</time>
      </trkpt>
      <trkpt lat="44.86324" lon="6.09915">
        <ele>1552.6</ele>
        <time>2024-08-13T15:18:06Z</time>
      </trkpt>
      <trkpt lat="44.86324" lon="6.09915">
        <ele>1552.8</ele>
        <time>2024-08-13T15:18:07Z</time>
      </trkpt>
      <trkpt lat="44.86324" lon="6.09915">
        <ele>1552.8</ele>
        <time>2024-08-13T15:18:08Z</time>
      </trkpt>
      <trkpt lat="44.86324" lon="6.09915">
        <ele>1552.8</ele>
        <time>2024-08-13T15:18:09Z</time>
      </trkpt>
      <trkpt lat="44.86324" lon="6.09915">
        <ele>1552.6</ele>
        <time>2024-08-13T15:18:10Z</time>
      </trkpt>
      <trkpt lat="44.86324" lon="6.09915">
        <ele>1552.6</ele>
        <time>2024-08-13T15:18:11Z</time>
      </trkpt>
      <trkpt lat="44.86324" lon="6.09915">
        <ele>1552.6</ele>
        <time>2024-08-13T15:18:12Z</time>
      </trkpt>
      <trkpt lat="44.86324" lon="6.09915">
        <ele>1552.6</ele>
        <time>2024-08-13T15:18:13Z</time>
      </trkpt>
      <trkpt lat="44.86324" lon="6.09915">
        <ele>1552.4</ele>
        <time>2024-08-13T15:18:14Z</time>
      </trkpt>
      <trkpt lat="44.86324" lon="6.09915">
        <ele>1552</ele>
        <time>2024-08-13T15:18:15Z</time>
      </trkpt>
      <trkpt lat="44.86324" lon="6.09915">
        <ele>1551.6</ele>
        <time>2024-08-13T15:18:16Z</time>
      </trkpt>
      <trkpt lat="44.86325" lon="6.09913">
        <ele>1551.2</ele>
        <time>2024-08-13T15:18:17Z</time>
      </trkpt>
      <trkpt lat="44.86325" lon="6.09913">
        <ele>1551</ele>
        <time>2024-08-13T15:18:18Z</time>
      </trkpt>
      <trkpt lat="44.86327" lon="6.0991">
        <ele>1551</ele>
        <time>2024-08-13T15:18:19Z</time>
      </trkpt>
      <trkpt lat="44.86327" lon="6.0991">
        <ele>1550.6</ele>
        <time>2024-08-13T15:18:20Z</time>
      </trkpt>
      <trkpt lat="44.86329" lon="6.09906">
        <ele>1550</ele>
        <time>2024-08-13T15:18:21Z</time>
      </trkpt>
      <trkpt lat="44.86329" lon="6.09906">
        <ele>1549.8</ele>
        <time>2024-08-13T15:18:22Z</time>
      </trkpt>
      <trkpt lat="44.86331" lon="6.09905">
        <ele>1549.4</ele>
        <time>2024-08-13T15:18:23Z</time>
      </trkpt>
      <trkpt lat="44.86331" lon="6.09905">
        <ele>1549</ele>
        <time>2024-08-13T15:18:24Z</time>
      </trkpt>
      <trkpt lat="44.86333" lon="6.09902">
        <ele>1548.8</ele>
        <time>2024-08-13T15:18:25Z</time>
      </trkpt>
      <trkpt lat="44.86333" lon="6.09902">
        <ele>1548.8</ele>
        <time>2024-08-13T15:18:26Z</time>
      </trkpt>
      <trkpt lat="44.86335" lon="6.099">
        <ele>1548.6</ele>
        <time>2024-08-13T15:18:27Z</time>
      </trkpt>
      <trkpt lat="44.86335" lon="6.099">
        <ele>1548</ele>
        <time>2024-08-13T15:18:28Z</time>
      </trkpt>
      <trkpt lat="44.86337" lon="6.09898">
        <ele>1547.4</ele>
        <time>2024-08-13T15:18:29Z</time>
      </trkpt>
      <trkpt lat="44.86337" lon="6.09898">
        <ele>1547.4</ele>
        <time>2024-08-13T15:18:30Z</time>
      </trkpt>
      <trkpt lat="44.86339" lon="6.09897">
        <ele>1547.4</ele>
        <time>2024-08-13T15:18:31Z</time>
      </trkpt>
      <trkpt lat="44.86339" lon="6.09897">
        <ele>1547</ele>
        <time>2024-08-13T15:18:32Z</time>
      </trkpt>
      <trkpt lat="44.86339" lon="6.09897">
        <ele>1546.6</ele>
        <time>2024-08-13T15:18:33Z</time>
      </trkpt>
      <trkpt lat="44.86341" lon="6.09893">
        <ele>1546.2</ele>
        <time>2024-08-13T15:18:34Z</time>
      </trkpt>
      <trkpt lat="44.86341" lon="6.09893">
        <ele>1545.4</ele>
        <time>2024-08-13T15:18:35Z</time>
      </trkpt>
      <trkpt lat="44.86343" lon="6.09892">
        <ele>1544.8</ele>
        <time>2024-08-13T15:18:36Z</time>
      </trkpt>
      <trkpt lat="44.86343" lon="6.09892">
        <ele>1544</ele>
        <time>2024-08-13T15:18:37Z</time>
      </trkpt>
      <trkpt lat="44.86343" lon="6.09892">
        <ele>1543.6</ele>
        <time>2024-08-13T15:18:38Z</time>
      </trkpt>
      <trkpt lat="44.86346" lon="6.09891">
        <ele>1543.2</ele>
        <time>2024-08-13T15:18:39Z</time>
      </trkpt>
      <trkpt lat="44.86346" lon="6.09891">
        <ele>1543.2</ele>
        <time>2024-08-13T15:18:40Z</time>
      </trkpt>
      <trkpt lat="44.86346" lon="6.09891">
        <ele>1542.8</ele>
        <time>2024-08-13T15:18:41Z</time>
      </trkpt>
      <trkpt lat="44.86346" lon="6.09891">
        <ele>1542.4</ele>
        <time>2024-08-13T15:18:42Z</time>
      </trkpt>
      <trkpt lat="44.86348" lon="6.0989">
        <ele>1542.4</ele>
        <time>2024-08-13T15:18:43Z</time>
      </trkpt>
      <trkpt lat="44.86348" lon="6.0989">
        <ele>1542.4</ele>
        <time>2024-08-13T15:18:44Z</time>
      </trkpt>
      <trkpt lat="44.86348" lon="6.0989">
        <ele>1542.4</ele>
        <time>2024-08-13T15:18:45Z</time>
      </trkpt>
      <trkpt lat="44.86349" lon="6.09887">
        <ele>1542</ele>
        <time>2024-08-13T15:18:46Z</time>
      </trkpt>
      <trkpt lat="44.86349" lon="6.09887">
        <ele>1541.8</ele>
        <time>2024-08-13T15:18:47Z</time>
      </trkpt>
      <trkpt lat="44.86352" lon="6.09885">
        <ele>1541.6</ele>
        <time>2024-08-13T15:18:48Z</time>
      </trkpt>
      <trkpt lat="44.86352" lon="6.09885">
        <ele>1541.6</ele>
        <time>2024-08-13T15:18:49Z</time>
      </trkpt>
      <trkpt lat="44.86352" lon="6.09885">
        <ele>1541.4</ele>
        <time>2024-08-13T15:18:50Z</time>
      </trkpt>
      <trkpt lat="44.86354" lon="6.09883">
        <ele>1540.6</ele>
        <time>2024-08-13T15:18:51Z</time>
      </trkpt>
      <trkpt lat="44.86354" lon="6.09883">
        <ele>1540</ele>
        <time>2024-08-13T15:18:52Z</time>
      </trkpt>
      <trkpt lat="44.86355" lon="6.09881">
        <ele>1539.6</ele>
        <time>2024-08-13T15:18:53Z</time>
      </trkpt>
      <trkpt lat="44.86355" lon="6.09881">
        <ele>1539.4</ele>
        <time>2024-08-13T15:18:54Z</time>
      </trkpt>
      <trkpt lat="44.86357" lon="6.09879">
        <ele>1539</ele>
        <time>2024-08-13T15:18:55Z</time>
      </trkpt>
      <trkpt lat="44.86357" lon="6.09879">
        <ele>1538.2</ele>
        <time>2024-08-13T15:18:56Z</time>
      </trkpt>
      <trkpt lat="44.86358" lon="6.09877">
        <ele>1537.8</ele>
        <time>2024-08-13T15:18:57Z</time>
      </trkpt>
      <trkpt lat="44.86358" lon="6.09877">
        <ele>1537.4</ele>
        <time>2024-08-13T15:18:58Z</time>
      </trkpt>
      <trkpt lat="44.86358" lon="6.09877">
        <ele>1537.4</ele>
        <time>2024-08-13T15:18:59Z</time>
      </trkpt>
      <trkpt lat="44.86359" lon="6.09874">
        <ele>1537.2</ele>
        <time>2024-08-13T15:19:00Z</time>
      </trkpt>
      <trkpt lat="44.86359" lon="6.09874">
        <ele>1537</ele>
        <time>2024-08-13T15:19:01Z</time>
      </trkpt>
      <trkpt lat="44.86357" lon="6.09871">
        <ele>1536</ele>
        <time>2024-08-13T15:19:02Z</time>
      </trkpt>
      <trkpt lat="44.86357" lon="6.09871">
        <ele>1536</ele>
        <time>2024-08-13T15:19:03Z</time>
      </trkpt>
      <trkpt lat="44.86357" lon="6.09871">
        <ele>1535.8</ele>
        <time>2024-08-13T15:19:04Z</time>
      </trkpt>
      <trkpt lat="44.86358" lon="6.09869">
        <ele>1535.2</ele>
        <time>2024-08-13T15:19:05Z</time>
      </trkpt>
      <trkpt lat="44.86358" lon="6.09869">
        <ele>1534.8</ele>
        <time>2024-08-13T15:19:06Z</time>
      </trkpt>
      <trkpt lat="44.86358" lon="6.09869">
        <ele>1534.4</ele>
        <time>2024-08-13T15:19:07Z</time>
      </trkpt>
      <trkpt lat="44.86359" lon="6.09866">
        <ele>1534</ele>
        <time>2024-08-13T15:19:08Z</time>
      </trkpt>
      <trkpt lat="44.86359" lon="6.09866">
        <ele>1533.6</ele>
        <time>2024-08-13T15:19:09Z</time>
      </trkpt>
      <trkpt lat="44.8636" lon="6.09863">
        <ele>1533.4</ele>
        <time>2024-08-13T15:19:10Z</time>
      </trkpt>
      <trkpt lat="44.8636" lon="6.09863">
        <ele>1533.2</ele>
        <time>2024-08-13T15:19:11Z</time>
      </trkpt>
      <trkpt lat="44.8636" lon="6.09863">
        <ele>1532.6</ele>
        <time>2024-08-13T15:19:12Z</time>
      </trkpt>
      <trkpt lat="44.8636" lon="6.09863">
        <ele>1532.2</ele>
        <time>2024-08-13T15:19:13Z</time>
      </trkpt>
      <trkpt lat="44.86361" lon="6.0986">
        <ele>1531.8</ele>
        <time>2024-08-13T15:19:14Z</time>
      </trkpt>
      <trkpt lat="44.86361" lon="6.0986">
        <ele>1531.6</ele>
        <time>2024-08-13T15:19:15Z</time>
      </trkpt>
      <trkpt lat="44.86361" lon="6.09857">
        <ele>1531.4</ele>
        <time>2024-08-13T15:19:16Z</time>
      </trkpt>
      <trkpt lat="44.86361" lon="6.09857">
        <ele>1531</ele>
        <time>2024-08-13T15:19:17Z</time>
      </trkpt>
      <trkpt lat="44.86361" lon="6.09857">
        <ele>1530.6</ele>
        <time>2024-08-13T15:19:18Z</time>
      </trkpt>
      <trkpt lat="44.86363" lon="6.09855">
        <ele>1530.4</ele>
        <time>2024-08-13T15:19:19Z</time>
      </trkpt>
      <trkpt lat="44.86363" lon="6.09855">
        <ele>1529.8</ele>
        <time>2024-08-13T15:19:20Z</time>
      </trkpt>
      <trkpt lat="44.86363" lon="6.09855">
        <ele>1529.2</ele>
        <time>2024-08-13T15:19:21Z</time>
      </trkpt>
      <trkpt lat="44.86364" lon="6.09851">
        <ele>1528.8</ele>
        <time>2024-08-13T15:19:22Z</time>
      </trkpt>
      <trkpt lat="44.86364" lon="6.09851">
        <ele>1528.4</ele>
        <time>2024-08-13T15:19:23Z</time>
      </trkpt>
      <trkpt lat="44.86365" lon="6.0985">
        <ele>1528.2</ele>
        <time>2024-08-13T15:19:24Z</time>
      </trkpt>
      <trkpt lat="44.86365" lon="6.0985">
        <ele>1528</ele>
        <time>2024-08-13T15:19:25Z</time>
      </trkpt>
      <trkpt lat="44.86366" lon="6.09847">
        <ele>1527.6</ele>
        <time>2024-08-13T15:19:26Z</time>
      </trkpt>
      <trkpt lat="44.86366" lon="6.09847">
        <ele>1527.2</ele>
        <time>2024-08-13T15:19:27Z</time>
      </trkpt>
      <trkpt lat="44.86366" lon="6.09847">
        <ele>1527</ele>
        <time>2024-08-13T15:19:28Z</time>
      </trkpt>
      <trkpt lat="44.86368" lon="6.09845">
        <ele>1526.8</ele>
        <time>2024-08-13T15:19:29Z</time>
      </trkpt>
      <trkpt lat="44.86368" lon="6.09845">
        <ele>1526.2</ele>
        <time>2024-08-13T15:19:30Z</time>
      </trkpt>
      <trkpt lat="44.86368" lon="6.09845">
        <ele>1526.2</ele>
        <time>2024-08-13T15:19:31Z</time>
      </trkpt>
      <trkpt lat="44.8637" lon="6.09842">
        <ele>1525.8</ele>
        <time>2024-08-13T15:19:32Z</time>
      </trkpt>
      <trkpt lat="44.8637" lon="6.09842">
        <ele>1525.4</ele>
        <time>2024-08-13T15:19:33Z</time>
      </trkpt>
      <trkpt lat="44.8637" lon="6.09842">
        <ele>1525.2</ele>
        <time>2024-08-13T15:19:34Z</time>
      </trkpt>
      <trkpt lat="44.86371" lon="6.09839">
        <ele>1524.6</ele>
        <time>2024-08-13T15:19:35Z</time>
      </trkpt>
      <trkpt lat="44.86371" lon="6.09839">
        <ele>1524</ele>
        <time>2024-08-13T15:19:36Z</time>
      </trkpt>
      <trkpt lat="44.86371" lon="6.09836">
        <ele>1523.6</ele>
        <time>2024-08-13T15:19:37Z</time>
      </trkpt>
      <trkpt lat="44.86371" lon="6.09836">
        <ele>1523</ele>
        <time>2024-08-13T15:19:38Z</time>
      </trkpt>
      <trkpt lat="44.86371" lon="6.09836">
        <ele>1522.4</ele>
        <time>2024-08-13T15:19:39Z</time>
      </trkpt>
      <trkpt lat="44.86373" lon="6.09834">
        <ele>1522</ele>
        <time>2024-08-13T15:19:40Z</time>
      </trkpt>
      <trkpt lat="44.86373" lon="6.09834">
        <ele>1521.4</ele>
        <time>2024-08-13T15:19:41Z</time>
      </trkpt>
      <trkpt lat="44.86373" lon="6.09834">
        <ele>1520.6</ele>
        <time>2024-08-13T15:19:42Z</time>
      </trkpt>
      <trkpt lat="44.86374" lon="6.09831">
        <ele>1520.6</ele>
        <time>2024-08-13T15:19:43Z</time>
      </trkpt>
      <trkpt lat="44.86374" lon="6.09831">
        <ele>1520.6</ele>
        <time>2024-08-13T15:19:44Z</time>
      </trkpt>
      <trkpt lat="44.86374" lon="6.09831">
        <ele>1520.2</ele>
        <time>2024-08-13T15:19:45Z</time>
      </trkpt>
      <trkpt lat="44.86376" lon="6.09831">
        <ele>1520</ele>
        <time>2024-08-13T15:19:46Z</time>
      </trkpt>
      <trkpt lat="44.86376" lon="6.09831">
        <ele>1519.2</ele>
        <time>2024-08-13T15:19:47Z</time>
      </trkpt>
      <trkpt lat="44.86376" lon="6.09831">
        <ele>1519</ele>
        <time>2024-08-13T15:19:48Z</time>
      </trkpt>
      <trkpt lat="44.86376" lon="6.09831">
        <ele>1518.8</ele>
        <time>2024-08-13T15:19:49Z</time>
      </trkpt>
      <trkpt lat="44.86377" lon="6.09827">
        <ele>1518.6</ele>
        <time>2024-08-13T15:19:50Z</time>
      </trkpt>
      <trkpt lat="44.86377" lon="6.09827">
        <ele>1518.2</ele>
        <time>2024-08-13T15:19:51Z</time>
      </trkpt>
      <trkpt lat="44.86377" lon="6.09824">
        <ele>1518</ele>
        <time>2024-08-13T15:19:52Z</time>
      </trkpt>
      <trkpt lat="44.86377" lon="6.09824">
        <ele>1518</ele>
        <time>2024-08-13T15:19:53Z</time>
      </trkpt>
      <trkpt lat="44.86377" lon="6.09824">
        <ele>1517.4</ele>
        <time>2024-08-13T15:19:54Z</time>
      </trkpt>
      <trkpt lat="44.86377" lon="6.09821">
        <ele>1516.8</ele>
        <time>2024-08-13T15:19:55Z</time>
      </trkpt>
      <trkpt lat="44.86377" lon="6.09821">
        <ele>1516.2</ele>
        <time>2024-08-13T15:19:56Z</time>
      </trkpt>
      <trkpt lat="44.86379" lon="6.09818">
        <ele>1516</ele>
        <time>2024-08-13T15:19:57Z</time>
      </trkpt>
      <trkpt lat="44.86379" lon="6.09818">
        <ele>1516</ele>
        <time>2024-08-13T15:19:58Z</time>
      </trkpt>
      <trkpt lat="44.8638" lon="6.09817">
        <ele>1515.6</ele>
        <time>2024-08-13T15:19:59Z</time>
      </trkpt>
      <trkpt lat="44.8638" lon="6.09817">
        <ele>1515.4</ele>
        <time>2024-08-13T15:20:00Z</time>
      </trkpt>
      <trkpt lat="44.8638" lon="6.09817">
        <ele>1515</ele>
        <time>2024-08-13T15:20:01Z</time>
      </trkpt>
      <trkpt lat="44.86382" lon="6.09813">
        <ele>1514</ele>
        <time>2024-08-13T15:20:02Z</time>
      </trkpt>
      <trkpt lat="44.86382" lon="6.09813">
        <ele>1514</ele>
        <time>2024-08-13T15:20:03Z</time>
      </trkpt>
      <trkpt lat="44.86384" lon="6.09811">
        <ele>1514</ele>
        <time>2024-08-13T15:20:04Z</time>
      </trkpt>
      <trkpt lat="44.86384" lon="6.09811">
        <ele>1513.8</ele>
        <time>2024-08-13T15:20:05Z</time>
      </trkpt>
      <trkpt lat="44.86386" lon="6.0981">
        <ele>1513.6</ele>
        <time>2024-08-13T15:20:06Z</time>
      </trkpt>
      <trkpt lat="44.86386" lon="6.0981">
        <ele>1513.2</ele>
        <time>2024-08-13T15:20:07Z</time>
      </trkpt>
      <trkpt lat="44.86388" lon="6.09809">
        <ele>1512.6</ele>
        <time>2024-08-13T15:20:08Z</time>
      </trkpt>
      <trkpt lat="44.86388" lon="6.09809">
        <ele>1512.6</ele>
        <time>2024-08-13T15:20:09Z</time>
      </trkpt>
      <trkpt lat="44.86388" lon="6.09809">
        <ele>1512.4</ele>
        <time>2024-08-13T15:20:10Z</time>
      </trkpt>
      <trkpt lat="44.8639" lon="6.09807">
        <ele>1512.2</ele>
        <time>2024-08-13T15:20:11Z</time>
      </trkpt>
      <trkpt lat="44.8639" lon="6.09807">
        <ele>1512.2</ele>
        <time>2024-08-13T15:20:12Z</time>
      </trkpt>
      <trkpt lat="44.8639" lon="6.09807">
        <ele>1511.2</ele>
        <time>2024-08-13T15:20:13Z</time>
      </trkpt>
      <trkpt lat="44.86392" lon="6.09803">
        <ele>1510.6</ele>
        <time>2024-08-13T15:20:14Z</time>
      </trkpt>
      <trkpt lat="44.86392" lon="6.09803">
        <ele>1510.4</ele>
        <time>2024-08-13T15:20:15Z</time>
      </trkpt>
      <trkpt lat="44.86394" lon="6.09802">
        <ele>1509.6</ele>
        <time>2024-08-13T15:20:16Z</time>
      </trkpt>
      <trkpt lat="44.86394" lon="6.09802">
        <ele>1509</ele>
        <time>2024-08-13T15:20:17Z</time>
      </trkpt>
      <trkpt lat="44.86396" lon="6.098">
        <ele>1508.8</ele>
        <time>2024-08-13T15:20:18Z</time>
      </trkpt>
      <trkpt lat="44.86396" lon="6.098">
        <ele>1508.6</ele>
        <time>2024-08-13T15:20:19Z</time>
      </trkpt>
      <trkpt lat="44.86397" lon="6.09798">
        <ele>1508</ele>
        <time>2024-08-13T15:20:20Z</time>
      </trkpt>
      <trkpt lat="44.86397" lon="6.09798">
        <ele>1507.8</ele>
        <time>2024-08-13T15:20:21Z</time>
      </trkpt>
      <trkpt lat="44.86398" lon="6.09796">
        <ele>1507.6</ele>
        <time>2024-08-13T15:20:22Z</time>
      </trkpt>
      <trkpt lat="44.86398" lon="6.09796">
        <ele>1507.4</ele>
        <time>2024-08-13T15:20:23Z</time>
      </trkpt>
      <trkpt lat="44.864" lon="6.09793">
        <ele>1507</ele>
        <time>2024-08-13T15:20:24Z</time>
      </trkpt>
      <trkpt lat="44.864" lon="6.09793">
        <ele>1506.4</ele>
        <time>2024-08-13T15:20:25Z</time>
      </trkpt>
      <trkpt lat="44.864" lon="6.09793">
        <ele>1505.8</ele>
        <time>2024-08-13T15:20:26Z</time>
      </trkpt>
      <trkpt lat="44.86403" lon="6.09791">
        <ele>1505.2</ele>
        <time>2024-08-13T15:20:27Z</time>
      </trkpt>
      <trkpt lat="44.86403" lon="6.09791">
        <ele>1504.8</ele>
        <time>2024-08-13T15:20:28Z</time>
      </trkpt>
      <trkpt lat="44.86403" lon="6.09791">
        <ele>1504.6</ele>
        <time>2024-08-13T15:20:29Z</time>
      </trkpt>
      <trkpt lat="44.86404" lon="6.09789">
        <ele>1504.2</ele>
        <time>2024-08-13T15:20:30Z</time>
      </trkpt>
      <trkpt lat="44.86404" lon="6.09789">
        <ele>1503.8</ele>
        <time>2024-08-13T15:20:31Z</time>
      </trkpt>
      <trkpt lat="44.86404" lon="6.09789">
        <ele>1503.4</ele>
        <time>2024-08-13T15:20:32Z</time>
      </trkpt>
      <trkpt lat="44.86405" lon="6.09785">
        <ele>1503</ele>
        <time>2024-08-13T15:20:33Z</time>
      </trkpt>
      <trkpt lat="44.86405" lon="6.09785">
        <ele>1502.8</ele>
        <time>2024-08-13T15:20:34Z</time>
      </trkpt>
      <trkpt lat="44.86405" lon="6.09782">
        <ele>1502.8</ele>
        <time>2024-08-13T15:20:35Z</time>
      </trkpt>
      <trkpt lat="44.86405" lon="6.09782">
        <ele>1502.6</ele>
        <time>2024-08-13T15:20:36Z</time>
      </trkpt>
      <trkpt lat="44.86407" lon="6.0978">
        <ele>1502.4</ele>
        <time>2024-08-13T15:20:37Z</time>
      </trkpt>
      <trkpt lat="44.86407" lon="6.0978">
        <ele>1502.2</ele>
        <time>2024-08-13T15:20:38Z</time>
      </trkpt>
      <trkpt lat="44.86409" lon="6.09778">
        <ele>1502</ele>
        <time>2024-08-13T15:20:39Z</time>
      </trkpt>
      <trkpt lat="44.86409" lon="6.09778">
        <ele>1501</ele>
        <time>2024-08-13T15:20:40Z</time>
      </trkpt>
      <trkpt lat="44.86409" lon="6.09778">
        <ele>1501</ele>
        <time>2024-08-13T15:20:41Z</time>
      </trkpt>
      <trkpt lat="44.8641" lon="6.09775">
        <ele>1501</ele>
        <time>2024-08-13T15:20:42Z</time>
      </trkpt>
      <trkpt lat="44.8641" lon="6.09775">
        <ele>1501</ele>
        <time>2024-08-13T15:20:43Z</time>
      </trkpt>
      <trkpt lat="44.8641" lon="6.09775">
        <ele>1500.6</ele>
        <time>2024-08-13T15:20:44Z</time>
      </trkpt>
      <trkpt lat="44.86411" lon="6.09772">
        <ele>1500.4</ele>
        <time>2024-08-13T15:20:45Z</time>
      </trkpt>
      <trkpt lat="44.86411" lon="6.09772">
        <ele>1499.8</ele>
        <time>2024-08-13T15:20:46Z</time>
      </trkpt>
      <trkpt lat="44.86412" lon="6.0977">
        <ele>1499</ele>
        <time>2024-08-13T15:20:47Z</time>
      </trkpt>
      <trkpt lat="44.86412" lon="6.0977">
        <ele>1499</ele>
        <time>2024-08-13T15:20:48Z</time>
      </trkpt>
      <trkpt lat="44.86413" lon="6.09767">
        <ele>1498.8</ele>
        <time>2024-08-13T15:20:49Z</time>
      </trkpt>
      <trkpt lat="44.86413" lon="6.09767">
        <ele>1498.8</ele>
        <time>2024-08-13T15:20:50Z</time>
      </trkpt>
      <trkpt lat="44.86413" lon="6.09767">
        <ele>1498.6</ele>
        <time>2024-08-13T15:20:51Z</time>
      </trkpt>
      <trkpt lat="44.86413" lon="6.09767">
        <ele>1498.6</ele>
        <time>2024-08-13T15:20:52Z</time>
      </trkpt>
      <trkpt lat="44.86413" lon="6.09767">
        <ele>1498.2</ele>
        <time>2024-08-13T15:20:53Z</time>
      </trkpt>
      <trkpt lat="44.86413" lon="6.09767">
        <ele>1498.2</ele>
        <time>2024-08-13T15:20:54Z</time>
      </trkpt>
      <trkpt lat="44.86413" lon="6.09767">
        <ele>1497.4</ele>
        <time>2024-08-13T15:20:55Z</time>
      </trkpt>
      <trkpt lat="44.86413" lon="6.09767">
        <ele>1497.4</ele>
        <time>2024-08-13T15:20:56Z</time>
      </trkpt>
      <trkpt lat="44.86413" lon="6.09767">
        <ele>1497.6</ele>
        <time>2024-08-13T15:20:57Z</time>
      </trkpt>
      <trkpt lat="44.86413" lon="6.09767">
        <ele>1497.6</ele>
        <time>2024-08-13T15:20:58Z</time>
      </trkpt>
      <trkpt lat="44.86413" lon="6.09767">
        <ele>1497.2</ele>
        <time>2024-08-13T15:20:59Z</time>
      </trkpt>
      <trkpt lat="44.86413" lon="6.09767">
        <ele>1497.2</ele>
        <time>2024-08-13T15:21:00Z</time>
      </trkpt>
      <trkpt lat="44.86413" lon="6.09767">
        <ele>1497</ele>
        <time>2024-08-13T15:21:01Z</time>
      </trkpt>
      <trkpt lat="44.86413" lon="6.09767">
        <ele>1496.8</ele>
        <time>2024-08-13T15:21:02Z</time>
      </trkpt>
      <trkpt lat="44.86413" lon="6.09767">
        <ele>1496.8</ele>
        <time>2024-08-13T15:21:03Z</time>
      </trkpt>
      <trkpt lat="44.86413" lon="6.09767">
        <ele>1496.8</ele>
        <time>2024-08-13T15:21:04Z</time>
      </trkpt>
      <trkpt lat="44.86413" lon="6.09767">
        <ele>1496.8</ele>
        <time>2024-08-13T15:21:05Z</time>
      </trkpt>
      <trkpt lat="44.86413" lon="6.09767">
        <ele>1496.8</ele>
        <time>2024-08-13T15:21:06Z</time>
      </trkpt>
      <trkpt lat="44.86413" lon="6.09767">
        <ele>1496.8</ele>
        <time>2024-08-13T15:21:07Z</time>
      </trkpt>
      <trkpt lat="44.86413" lon="6.09767">
        <ele>1497</ele>
        <time>2024-08-13T15:21:08Z</time>
      </trkpt>
      <trkpt lat="44.86413" lon="6.09767">
        <ele>1497.2</ele>
        <time>2024-08-13T15:21:09Z</time>
      </trkpt>
      <trkpt lat="44.86413" lon="6.09767">
        <ele>1497.2</ele>
        <time>2024-08-13T15:21:10Z</time>
      </trkpt>
      <trkpt lat="44.86413" lon="6.09767">
        <ele>1497.2</ele>
        <time>2024-08-13T15:21:11Z</time>
      </trkpt>
      <trkpt lat="44.86413" lon="6.09767">
        <ele>1497</ele>
        <time>2024-08-13T15:21:12Z</time>
      </trkpt>
      <trkpt lat="44.86413" lon="6.09767">
        <ele>1497</ele>
        <time>2024-08-13T15:21:13Z</time>
      </trkpt>
      <trkpt lat="44.86413" lon="6.09767">
        <ele>1497</ele>
        <time>2024-08-13T15:21:14Z</time>
      </trkpt>
      <trkpt lat="44.86413" lon="6.09767">
        <ele>1497</ele>
        <time>2024-08-13T15:21:15Z</time>
      </trkpt>
      <trkpt lat="44.86413" lon="6.09767">
        <ele>1496.8</ele>
        <time>2024-08-13T15:21:16Z</time>
      </trkpt>
      <trkpt lat="44.86413" lon="6.09767">
        <ele>1496.8</ele>
        <time>2024-08-13T15:21:17Z</time>
      </trkpt>
      <trkpt lat="44.86413" lon="6.09767">
        <ele>1496.8</ele>
        <time>2024-08-13T15:21:18Z</time>
      </trkpt>
      <trkpt lat="44.86413" lon="6.09767">
        <ele>1496.6</ele>
        <time>2024-08-13T15:21:19Z</time>
      </trkpt>
      <trkpt lat="44.86413" lon="6.09767">
        <ele>1496.6</ele>
        <time>2024-08-13T15:21:20Z</time>
      </trkpt>
      <trkpt lat="44.86413" lon="6.09767">
        <ele>1496.6</ele>
        <time>2024-08-13T15:21:21Z</time>
      </trkpt>
      <trkpt lat="44.86413" lon="6.09767">
        <ele>1496.4</ele>
        <time>2024-08-13T15:21:22Z</time>
      </trkpt>
      <trkpt lat="44.86413" lon="6.09767">
        <ele>1496.4</ele>
        <time>2024-08-13T15:21:23Z</time>
      </trkpt>
      <trkpt lat="44.86413" lon="6.09767">
        <ele>1496.4</ele>
        <time>2024-08-13T15:21:24Z</time>
      </trkpt>
      <trkpt lat="44.86413" lon="6.09767">
        <ele>1496.6</ele>
        <time>2024-08-13T15:21:25Z</time>
      </trkpt>
      <trkpt lat="44.86413" lon="6.09767">
        <ele>1496.6</ele>
        <time>2024-08-13T15:21:26Z</time>
      </trkpt>
      <trkpt lat="44.86413" lon="6.09767">
        <ele>1496.6</ele>
        <time>2024-08-13T15:21:27Z</time>
      </trkpt>
      <trkpt lat="44.86413" lon="6.09767">
        <ele>1496.6</ele>
        <time>2024-08-13T15:21:28Z</time>
      </trkpt>
      <trkpt lat="44.86413" lon="6.09767">
        <ele>1496.6</ele>
        <time>2024-08-13T15:21:29Z</time>
      </trkpt>
      <trkpt lat="44.86413" lon="6.09767">
        <ele>1496.8</ele>
        <time>2024-08-13T15:21:30Z</time>
      </trkpt>
      <trkpt lat="44.86413" lon="6.09767">
        <ele>1496.8</ele>
        <time>2024-08-13T15:21:31Z</time>
      </trkpt>
      <trkpt lat="44.86413" lon="6.09767">
        <ele>1496.6</ele>
        <time>2024-08-13T15:21:32Z</time>
      </trkpt>
      <trkpt lat="44.86413" lon="6.09767">
        <ele>1496.6</ele>
        <time>2024-08-13T15:21:33Z</time>
      </trkpt>
      <trkpt lat="44.86413" lon="6.09767">
        <ele>1496.6</ele>
        <time>2024-08-13T15:21:34Z</time>
      </trkpt>
      <trkpt lat="44.86413" lon="6.09767">
        <ele>1496.4</ele>
        <time>2024-08-13T15:21:35Z</time>
      </trkpt>
      <trkpt lat="44.86413" lon="6.09767">
        <ele>1496.4</ele>
        <time>2024-08-13T15:21:36Z</time>
      </trkpt>
      <trkpt lat="44.86413" lon="6.09767">
        <ele>1496.4</ele>
        <time>2024-08-13T15:21:37Z</time>
      </trkpt>
      <trkpt lat="44.86413" lon="6.09767">
        <ele>1496.4</ele>
        <time>2024-08-13T15:21:38Z</time>
      </trkpt>
      <trkpt lat="44.86413" lon="6.09767">
        <ele>1496.6</ele>
        <time>2024-08-13T15:21:39Z</time>
      </trkpt>
      <trkpt lat="44.86413" lon="6.09767">
        <ele>1496.6</ele>
        <time>2024-08-13T15:21:40Z</time>
      </trkpt>
      <trkpt lat="44.86413" lon="6.09767">
        <ele>1496.6</ele>
        <time>2024-08-13T15:21:41Z</time>
      </trkpt>
      <trkpt lat="44.86413" lon="6.09767">
        <ele>1496.6</ele>
        <time>2024-08-13T15:21:42Z</time>
      </trkpt>
      <trkpt lat="44.86413" lon="6.09767">
        <ele>1496.6</ele>
        <time>2024-08-13T15:21:43Z</time>
      </trkpt>
      <trkpt lat="44.86413" lon="6.09767">
        <ele>1496.8</ele>
        <time>2024-08-13T15:21:44Z</time>
      </trkpt>
      <trkpt lat="44.86413" lon="6.09767">
        <ele>1496.8</ele>
        <time>2024-08-13T15:21:45Z</time>
      </trkpt>
      <trkpt lat="44.86413" lon="6.09767">
        <ele>1497</ele>
        <time>2024-08-13T15:21:46Z</time>
      </trkpt>
      <trkpt lat="44.86413" lon="6.09767">
        <ele>1497</ele>
        <time>2024-08-13T15:21:47Z</time>
      </trkpt>
      <trkpt lat="44.86413" lon="6.09767">
        <ele>1496.8</ele>
        <time>2024-08-13T15:21:48Z</time>
      </trkpt>
      <trkpt lat="44.86413" lon="6.09767">
        <ele>1496.8</ele>
        <time>2024-08-13T15:21:49Z</time>
      </trkpt>
      <trkpt lat="44.86413" lon="6.09767">
        <ele>1496.8</ele>
        <time>2024-08-13T15:21:50Z</time>
      </trkpt>
      <trkpt lat="44.86413" lon="6.09767">
        <ele>1496.8</ele>
        <time>2024-08-13T15:21:51Z</time>
      </trkpt>
      <trkpt lat="44.86413" lon="6.09767">
        <ele>1496.8</ele>
        <time>2024-08-13T15:21:52Z</time>
      </trkpt>
      <trkpt lat="44.86413" lon="6.09767">
        <ele>1496.8</ele>
        <time>2024-08-13T15:21:53Z</time>
      </trkpt>
      <trkpt lat="44.86413" lon="6.09767">
        <ele>1496.8</ele>
        <time>2024-08-13T15:21:54Z</time>
      </trkpt>
      <trkpt lat="44.86413" lon="6.09767">
        <ele>1496.4</ele>
        <time>2024-08-13T15:21:55Z</time>
      </trkpt>
      <trkpt lat="44.86413" lon="6.09767">
        <ele>1496.4</ele>
        <time>2024-08-13T15:21:56Z</time>
      </trkpt>
      <trkpt lat="44.86413" lon="6.09767">
        <ele>1496.4</ele>
        <time>2024-08-13T15:21:57Z</time>
      </trkpt>
      <trkpt lat="44.86413" lon="6.09767">
        <ele>1496.4</ele>
        <time>2024-08-13T15:21:58Z</time>
      </trkpt>
      <trkpt lat="44.86413" lon="6.09767">
        <ele>1496.4</ele>
        <time>2024-08-13T15:21:59Z</time>
      </trkpt>
      <trkpt lat="44.86413" lon="6.09767">
        <ele>1496.4</ele>
        <time>2024-08-13T15:22:00Z</time>
      </trkpt>
      <trkpt lat="44.86413" lon="6.09767">
        <ele>1497</ele>
        <time>2024-08-13T15:22:01Z</time>
      </trkpt>
      <trkpt lat="44.86413" lon="6.09767">
        <ele>1496.8</ele>
        <time>2024-08-13T15:22:02Z</time>
      </trkpt>
      <trkpt lat="44.86414" lon="6.09764">
        <ele>1496.8</ele>
        <time>2024-08-13T15:22:03Z</time>
      </trkpt>
      <trkpt lat="44.86414" lon="6.09764">
        <ele>1496.4</ele>
        <time>2024-08-13T15:22:04Z</time>
      </trkpt>
      <trkpt lat="44.86417" lon="6.09763">
        <ele>1496</ele>
        <time>2024-08-13T15:22:05Z</time>
      </trkpt>
      <trkpt lat="44.86417" lon="6.09763">
        <ele>1495.8</ele>
        <time>2024-08-13T15:22:06Z</time>
      </trkpt>
      <trkpt lat="44.86419" lon="6.09761">
        <ele>1495.4</ele>
        <time>2024-08-13T15:22:07Z</time>
      </trkpt>
      <trkpt lat="44.86419" lon="6.09761">
        <ele>1495</ele>
        <time>2024-08-13T15:22:08Z</time>
      </trkpt>
      <trkpt lat="44.86419" lon="6.09758">
        <ele>1494.8</ele>
        <time>2024-08-13T15:22:09Z</time>
      </trkpt>
      <trkpt lat="44.86419" lon="6.09758">
        <ele>1494.8</ele>
        <time>2024-08-13T15:22:10Z</time>
      </trkpt>
      <trkpt lat="44.86421" lon="6.09757">
        <ele>1494.4</ele>
        <time>2024-08-13T15:22:11Z</time>
      </trkpt>
      <trkpt lat="44.86421" lon="6.09757">
        <ele>1494</ele>
        <time>2024-08-13T15:22:12Z</time>
      </trkpt>
      <trkpt lat="44.86423" lon="6.09755">
        <ele>1494</ele>
        <time>2024-08-13T15:22:13Z</time>
      </trkpt>
      <trkpt lat="44.86423" lon="6.09755">
        <ele>1493.8</ele>
        <time>2024-08-13T15:22:14Z</time>
      </trkpt>
      <trkpt lat="44.86425" lon="6.09753">
        <ele>1493.6</ele>
        <time>2024-08-13T15:22:15Z</time>
      </trkpt>
      <trkpt lat="44.86425" lon="6.09753">
        <ele>1493.4</ele>
        <time>2024-08-13T15:22:16Z</time>
      </trkpt>
      <trkpt lat="44.86427" lon="6.09753">
        <ele>1493.2</ele>
        <time>2024-08-13T15:22:17Z</time>
      </trkpt>
      <trkpt lat="44.86427" lon="6.09753">
        <ele>1493</ele>
        <time>2024-08-13T15:22:18Z</time>
      </trkpt>
      <trkpt lat="44.86427" lon="6.09753">
        <ele>1492.8</ele>
        <time>2024-08-13T15:22:19Z</time>
      </trkpt>
      <trkpt lat="44.86429" lon="6.09751">
        <ele>1492.8</ele>
        <time>2024-08-13T15:22:20Z</time>
      </trkpt>
      <trkpt lat="44.86429" lon="6.09751">
        <ele>1492.6</ele>
        <time>2024-08-13T15:22:21Z</time>
      </trkpt>
      <trkpt lat="44.86429" lon="6.09751">
        <ele>1492.2</ele>
        <time>2024-08-13T15:22:22Z</time>
      </trkpt>
      <trkpt lat="44.86429" lon="6.09748">
        <ele>1492</ele>
        <time>2024-08-13T15:22:23Z</time>
      </trkpt>
      <trkpt lat="44.86429" lon="6.09748">
        <ele>1491.6</ele>
        <time>2024-08-13T15:22:24Z</time>
      </trkpt>
      <trkpt lat="44.86431" lon="6.09747">
        <ele>1491.4</ele>
        <time>2024-08-13T15:22:25Z</time>
      </trkpt>
      <trkpt lat="44.86431" lon="6.09747">
        <ele>1491</ele>
        <time>2024-08-13T15:22:26Z</time>
      </trkpt>
      <trkpt lat="44.86433" lon="6.09745">
        <ele>1490.8</ele>
        <time>2024-08-13T15:22:27Z</time>
      </trkpt>
      <trkpt lat="44.86433" lon="6.09745">
        <ele>1490.6</ele>
        <time>2024-08-13T15:22:28Z</time>
      </trkpt>
      <trkpt lat="44.86436" lon="6.09743">
        <ele>1489.8</ele>
        <time>2024-08-13T15:22:29Z</time>
      </trkpt>
      <trkpt lat="44.86436" lon="6.09743">
        <ele>1489.8</ele>
        <time>2024-08-13T15:22:30Z</time>
      </trkpt>
      <trkpt lat="44.86438" lon="6.09742">
        <ele>1489.6</ele>
        <time>2024-08-13T15:22:31Z</time>
      </trkpt>
      <trkpt lat="44.86438" lon="6.09742">
        <ele>1489.4</ele>
        <time>2024-08-13T15:22:32Z</time>
      </trkpt>
      <trkpt lat="44.86441" lon="6.09742">
        <ele>1489</ele>
        <time>2024-08-13T15:22:33Z</time>
      </trkpt>
      <trkpt lat="44.86441" lon="6.09742">
        <ele>1488.2</ele>
        <time>2024-08-13T15:22:34Z</time>
      </trkpt>
      <trkpt lat="44.86441" lon="6.09742">
        <ele>1487.8</ele>
        <time>2024-08-13T15:22:35Z</time>
      </trkpt>
      <trkpt lat="44.86441" lon="6.09742">
        <ele>1487.8</ele>
        <time>2024-08-13T15:22:36Z</time>
      </trkpt>
      <trkpt lat="44.86439" lon="6.09739">
        <ele>1488</ele>
        <time>2024-08-13T15:22:37Z</time>
      </trkpt>
      <trkpt lat="44.86439" lon="6.09739">
        <ele>1488</ele>
        <time>2024-08-13T15:22:38Z</time>
      </trkpt>
      <trkpt lat="44.86437" lon="6.09737">
        <ele>1487.6</ele>
        <time>2024-08-13T15:22:39Z</time>
      </trkpt>
      <trkpt lat="44.86437" lon="6.09737">
        <ele>1487.6</ele>
        <time>2024-08-13T15:22:40Z</time>
      </trkpt>
      <trkpt lat="44.86435" lon="6.09734">
        <ele>1487.4</ele>
        <time>2024-08-13T15:22:41Z</time>
      </trkpt>
      <trkpt lat="44.86435" lon="6.09734">
        <ele>1487.2</ele>
        <time>2024-08-13T15:22:42Z</time>
      </trkpt>
      <trkpt lat="44.86433" lon="6.09731">
        <ele>1487</ele>
        <time>2024-08-13T15:22:43Z</time>
      </trkpt>
      <trkpt lat="44.86433" lon="6.09731">
        <ele>1486.2</ele>
        <time>2024-08-13T15:22:44Z</time>
      </trkpt>
      <trkpt lat="44.86431" lon="6.09729">
        <ele>1485.8</ele>
        <time>2024-08-13T15:22:45Z</time>
      </trkpt>
      <trkpt lat="44.86431" lon="6.09729">
        <ele>1485.4</ele>
        <time>2024-08-13T15:22:46Z</time>
      </trkpt>
      <trkpt lat="44.86431" lon="6.09729">
        <ele>1485.4</ele>
        <time>2024-08-13T15:22:47Z</time>
      </trkpt>
      <trkpt lat="44.86432" lon="6.09727">
        <ele>1485</ele>
        <time>2024-08-13T15:22:48Z</time>
      </trkpt>
      <trkpt lat="44.86432" lon="6.09727">
        <ele>1484.6</ele>
        <time>2024-08-13T15:22:49Z</time>
      </trkpt>
      <trkpt lat="44.86435" lon="6.09728">
        <ele>1484</ele>
        <time>2024-08-13T15:22:50Z</time>
      </trkpt>
      <trkpt lat="44.86435" lon="6.09728">
        <ele>1483.6</ele>
        <time>2024-08-13T15:22:51Z</time>
      </trkpt>
      <trkpt lat="44.86438" lon="6.09729">
        <ele>1483.4</ele>
        <time>2024-08-13T15:22:52Z</time>
      </trkpt>
      <trkpt lat="44.86438" lon="6.09729">
        <ele>1483.4</ele>
        <time>2024-08-13T15:22:53Z</time>
      </trkpt>
      <trkpt lat="44.8644" lon="6.09729">
        <ele>1483.4</ele>
        <time>2024-08-13T15:22:54Z</time>
      </trkpt>
      <trkpt lat="44.8644" lon="6.09729">
        <ele>1483.6</ele>
        <time>2024-08-13T15:22:55Z</time>
      </trkpt>
      <trkpt lat="44.8644" lon="6.09729">
        <ele>1483.8</ele>
        <time>2024-08-13T15:22:56Z</time>
      </trkpt>
      <trkpt lat="44.8644" lon="6.09729">
        <ele>1483.8</ele>
        <time>2024-08-13T15:22:57Z</time>
      </trkpt>
      <trkpt lat="44.86442" lon="6.09728">
        <ele>1483.8</ele>
        <time>2024-08-13T15:22:58Z</time>
      </trkpt>
      <trkpt lat="44.86442" lon="6.09728">
        <ele>1483.8</ele>
        <time>2024-08-13T15:22:59Z</time>
      </trkpt>
      <trkpt lat="44.86442" lon="6.09728">
        <ele>1483.8</ele>
        <time>2024-08-13T15:23:00Z</time>
      </trkpt>
      <trkpt lat="44.86442" lon="6.09728">
        <ele>1483.4</ele>
        <time>2024-08-13T15:23:01Z</time>
      </trkpt>
      <trkpt lat="44.86445" lon="6.09727">
        <ele>1482.2</ele>
        <time>2024-08-13T15:23:02Z</time>
      </trkpt>
      <trkpt lat="44.86445" lon="6.09727">
        <ele>1482.2</ele>
        <time>2024-08-13T15:23:03Z</time>
      </trkpt>
      <trkpt lat="44.86448" lon="6.09726">
        <ele>1481.8</ele>
        <time>2024-08-13T15:23:04Z</time>
      </trkpt>
      <trkpt lat="44.86448" lon="6.09726">
        <ele>1481.2</ele>
        <time>2024-08-13T15:23:05Z</time>
      </trkpt>
      <trkpt lat="44.8645" lon="6.09725">
        <ele>1480.8</ele>
        <time>2024-08-13T15:23:06Z</time>
      </trkpt>
      <trkpt lat="44.8645" lon="6.09725">
        <ele>1480.4</ele>
        <time>2024-08-13T15:23:07Z</time>
      </trkpt>
      <trkpt lat="44.86453" lon="6.09724">
        <ele>1480.2</ele>
        <time>2024-08-13T15:23:08Z</time>
      </trkpt>
      <trkpt lat="44.86453" lon="6.09724">
        <ele>1479.8</ele>
        <time>2024-08-13T15:23:09Z</time>
      </trkpt>
      <trkpt lat="44.86455" lon="6.09724">
        <ele>1479.2</ele>
        <time>2024-08-13T15:23:10Z</time>
      </trkpt>
      <trkpt lat="44.86455" lon="6.09724">
        <ele>1479.2</ele>
        <time>2024-08-13T15:23:11Z</time>
      </trkpt>
      <trkpt lat="44.86457" lon="6.09723">
        <ele>1479.2</ele>
        <time>2024-08-13T15:23:12Z</time>
      </trkpt>
      <trkpt lat="44.86457" lon="6.09723">
        <ele>1479.2</ele>
        <time>2024-08-13T15:23:13Z</time>
      </trkpt>
      <trkpt lat="44.86457" lon="6.09723">
        <ele>1478.8</ele>
        <time>2024-08-13T15:23:14Z</time>
      </trkpt>
      <trkpt lat="44.86459" lon="6.09723">
        <ele>1478.4</ele>
        <time>2024-08-13T15:23:15Z</time>
      </trkpt>
      <trkpt lat="44.86459" lon="6.09723">
        <ele>1478.2</ele>
        <time>2024-08-13T15:23:16Z</time>
      </trkpt>
      <trkpt lat="44.86461" lon="6.09721">
        <ele>1477.8</ele>
        <time>2024-08-13T15:23:17Z</time>
      </trkpt>
      <trkpt lat="44.86461" lon="6.09721">
        <ele>1477.4</ele>
        <time>2024-08-13T15:23:18Z</time>
      </trkpt>
      <trkpt lat="44.86463" lon="6.09721">
        <ele>1477</ele>
        <time>2024-08-13T15:23:19Z</time>
      </trkpt>
      <trkpt lat="44.86463" lon="6.09721">
        <ele>1476.4</ele>
        <time>2024-08-13T15:23:20Z</time>
      </trkpt>
      <trkpt lat="44.86463" lon="6.09721">
        <ele>1476.2</ele>
        <time>2024-08-13T15:23:21Z</time>
      </trkpt>
      <trkpt lat="44.86466" lon="6.0972">
        <ele>1476</ele>
        <time>2024-08-13T15:23:22Z</time>
      </trkpt>
      <trkpt lat="44.86466" lon="6.0972">
        <ele>1476</ele>
        <time>2024-08-13T15:23:23Z</time>
      </trkpt>
      <trkpt lat="44.86468" lon="6.0972">
        <ele>1475.8</ele>
        <time>2024-08-13T15:23:24Z</time>
      </trkpt>
      <trkpt lat="44.86468" lon="6.0972">
        <ele>1475.8</ele>
        <time>2024-08-13T15:23:25Z</time>
      </trkpt>
      <trkpt lat="44.8647" lon="6.0972">
        <ele>1474.6</ele>
        <time>2024-08-13T15:23:26Z</time>
      </trkpt>
      <trkpt lat="44.8647" lon="6.0972">
        <ele>1473.8</ele>
        <time>2024-08-13T15:23:27Z</time>
      </trkpt>
      <trkpt lat="44.8647" lon="6.0972">
        <ele>1473.4</ele>
        <time>2024-08-13T15:23:28Z</time>
      </trkpt>
      <trkpt lat="44.86472" lon="6.0972">
        <ele>1473.2</ele>
        <time>2024-08-13T15:23:29Z</time>
      </trkpt>
      <trkpt lat="44.86472" lon="6.0972">
        <ele>1473</ele>
        <time>2024-08-13T15:23:30Z</time>
      </trkpt>
      <trkpt lat="44.86475" lon="6.09721">
        <ele>1472.8</ele>
        <time>2024-08-13T15:23:31Z</time>
      </trkpt>
      <trkpt lat="44.86475" lon="6.09721">
        <ele>1472.6</ele>
        <time>2024-08-13T15:23:32Z</time>
      </trkpt>
      <trkpt lat="44.86477" lon="6.09722">
        <ele>1472.2</ele>
        <time>2024-08-13T15:23:33Z</time>
      </trkpt>
      <trkpt lat="44.86477" lon="6.09722">
        <ele>1471.4</ele>
        <time>2024-08-13T15:23:34Z</time>
      </trkpt>
      <trkpt lat="44.86479" lon="6.09723">
        <ele>1471.2</ele>
        <time>2024-08-13T15:23:35Z</time>
      </trkpt>
      <trkpt lat="44.86479" lon="6.09723">
        <ele>1471.2</ele>
        <time>2024-08-13T15:23:36Z</time>
      </trkpt>
      <trkpt lat="44.86482" lon="6.09724">
        <ele>1470.8</ele>
        <time>2024-08-13T15:23:37Z</time>
      </trkpt>
      <trkpt lat="44.86482" lon="6.09724">
        <ele>1470.2</ele>
        <time>2024-08-13T15:23:38Z</time>
      </trkpt>
      <trkpt lat="44.86484" lon="6.09725">
        <ele>1469.8</ele>
        <time>2024-08-13T15:23:39Z</time>
      </trkpt>
      <trkpt lat="44.86484" lon="6.09725">
        <ele>1469.6</ele>
        <time>2024-08-13T15:23:40Z</time>
      </trkpt>
      <trkpt lat="44.86484" lon="6.09725">
        <ele>1469.2</ele>
        <time>2024-08-13T15:23:41Z</time>
      </trkpt>
      <trkpt lat="44.86486" lon="6.09728">
        <ele>1468.8</ele>
        <time>2024-08-13T15:23:42Z</time>
      </trkpt>
      <trkpt lat="44.86486" lon="6.09728">
        <ele>1468</ele>
        <time>2024-08-13T15:23:43Z</time>
      </trkpt>
      <trkpt lat="44.86486" lon="6.09728">
        <ele>1467.8</ele>
        <time>2024-08-13T15:23:44Z</time>
      </trkpt>
      <trkpt lat="44.86487" lon="6.09731">
        <ele>1467.8</ele>
        <time>2024-08-13T15:23:45Z</time>
      </trkpt>
      <trkpt lat="44.86487" lon="6.09731">
        <ele>1468</ele>
        <time>2024-08-13T15:23:46Z</time>
      </trkpt>
      <trkpt lat="44.86487" lon="6.09731">
        <ele>1468.2</ele>
        <time>2024-08-13T15:23:47Z</time>
      </trkpt>
      <trkpt lat="44.86487" lon="6.09731">
        <ele>1468.2</ele>
        <time>2024-08-13T15:23:48Z</time>
      </trkpt>
      <trkpt lat="44.86487" lon="6.09731">
        <ele>1467.8</ele>
        <time>2024-08-13T15:23:49Z</time>
      </trkpt>
      <trkpt lat="44.8649" lon="6.0973">
        <ele>1467.2</ele>
        <time>2024-08-13T15:23:50Z</time>
      </trkpt>
      <trkpt lat="44.8649" lon="6.0973">
        <ele>1466.8</ele>
        <time>2024-08-13T15:23:51Z</time>
      </trkpt>
      <trkpt lat="44.8649" lon="6.0973">
        <ele>1466.4</ele>
        <time>2024-08-13T15:23:52Z</time>
      </trkpt>
      <trkpt lat="44.8649" lon="6.0973">
        <ele>1465.8</ele>
        <time>2024-08-13T15:23:53Z</time>
      </trkpt>
      <trkpt lat="44.86491" lon="6.09728">
        <ele>1465</ele>
        <time>2024-08-13T15:23:54Z</time>
      </trkpt>
      <trkpt lat="44.86491" lon="6.09728">
        <ele>1464.4</ele>
        <time>2024-08-13T15:23:55Z</time>
      </trkpt>
      <trkpt lat="44.86491" lon="6.09728">
        <ele>1464.4</ele>
        <time>2024-08-13T15:23:56Z</time>
      </trkpt>
      <trkpt lat="44.86491" lon="6.09728">
        <ele>1464.4</ele>
        <time>2024-08-13T15:23:57Z</time>
      </trkpt>
      <trkpt lat="44.86493" lon="6.09727">
        <ele>1464.2</ele>
        <time>2024-08-13T15:23:58Z</time>
      </trkpt>
      <trkpt lat="44.86493" lon="6.09727">
        <ele>1463.4</ele>
        <time>2024-08-13T15:23:59Z</time>
      </trkpt>
      <trkpt lat="44.86493" lon="6.09727">
        <ele>1463.2</ele>
        <time>2024-08-13T15:24:00Z</time>
      </trkpt>
      <trkpt lat="44.86495" lon="6.09725">
        <ele>1463</ele>
        <time>2024-08-13T15:24:01Z</time>
      </trkpt>
      <trkpt lat="44.86495" lon="6.09725">
        <ele>1461.8</ele>
        <time>2024-08-13T15:24:02Z</time>
      </trkpt>
      <trkpt lat="44.86497" lon="6.09726">
        <ele>1461.8</ele>
        <time>2024-08-13T15:24:03Z</time>
      </trkpt>
      <trkpt lat="44.86497" lon="6.09726">
        <ele>1461.4</ele>
        <time>2024-08-13T15:24:04Z</time>
      </trkpt>
      <trkpt lat="44.86499" lon="6.09727">
        <ele>1460.8</ele>
        <time>2024-08-13T15:24:05Z</time>
      </trkpt>
      <trkpt lat="44.86499" lon="6.09727">
        <ele>1460</ele>
        <time>2024-08-13T15:24:06Z</time>
      </trkpt>
      <trkpt lat="44.86499" lon="6.09727">
        <ele>1460</ele>
        <time>2024-08-13T15:24:07Z</time>
      </trkpt>
      <trkpt lat="44.86499" lon="6.09727">
        <ele>1459.2</ele>
        <time>2024-08-13T15:24:08Z</time>
      </trkpt>
      <trkpt lat="44.86499" lon="6.09727">
        <ele>1459</ele>
        <time>2024-08-13T15:24:09Z</time>
      </trkpt>
      <trkpt lat="44.86499" lon="6.09723">
        <ele>1459</ele>
        <time>2024-08-13T15:24:10Z</time>
      </trkpt>
      <trkpt lat="44.86499" lon="6.09723">
        <ele>1459</ele>
        <time>2024-08-13T15:24:11Z</time>
      </trkpt>
      <trkpt lat="44.86499" lon="6.09723">
        <ele>1458.6</ele>
        <time>2024-08-13T15:24:12Z</time>
      </trkpt>
      <trkpt lat="44.86501" lon="6.09722">
        <ele>1458</ele>
        <time>2024-08-13T15:24:13Z</time>
      </trkpt>
      <trkpt lat="44.86501" lon="6.09722">
        <ele>1457.6</ele>
        <time>2024-08-13T15:24:14Z</time>
      </trkpt>
      <trkpt lat="44.86503" lon="6.09724">
        <ele>1457.4</ele>
        <time>2024-08-13T15:24:15Z</time>
      </trkpt>
      <trkpt lat="44.86503" lon="6.09724">
        <ele>1456.8</ele>
        <time>2024-08-13T15:24:16Z</time>
      </trkpt>
      <trkpt lat="44.86503" lon="6.09724">
        <ele>1456.6</ele>
        <time>2024-08-13T15:24:17Z</time>
      </trkpt>
      <trkpt lat="44.86506" lon="6.09725">
        <ele>1456.6</ele>
        <time>2024-08-13T15:24:18Z</time>
      </trkpt>
      <trkpt lat="44.86506" lon="6.09725">
        <ele>1456</ele>
        <time>2024-08-13T15:24:19Z</time>
      </trkpt>
      <trkpt lat="44.86506" lon="6.09725">
        <ele>1455.6</ele>
        <time>2024-08-13T15:24:20Z</time>
      </trkpt>
      <trkpt lat="44.86506" lon="6.09728">
        <ele>1455.2</ele>
        <time>2024-08-13T15:24:21Z</time>
      </trkpt>
      <trkpt lat="44.86506" lon="6.09728">
        <ele>1454.8</ele>
        <time>2024-08-13T15:24:22Z</time>
      </trkpt>
      <trkpt lat="44.86506" lon="6.09728">
        <ele>1454.4</ele>
        <time>2024-08-13T15:24:23Z</time>
      </trkpt>
      <trkpt lat="44.86506" lon="6.09728">
        <ele>1454.4</ele>
        <time>2024-08-13T15:24:24Z</time>
      </trkpt>
      <trkpt lat="44.86508" lon="6.09726">
        <ele>1454.2</ele>
        <time>2024-08-13T15:24:25Z</time>
      </trkpt>
      <trkpt lat="44.86508" lon="6.09726">
        <ele>1454</ele>
        <time>2024-08-13T15:24:26Z</time>
      </trkpt>
      <trkpt lat="44.8651" lon="6.09728">
        <ele>1453.8</ele>
        <time>2024-08-13T15:24:27Z</time>
      </trkpt>
      <trkpt lat="44.8651" lon="6.09728">
        <ele>1453.2</ele>
        <time>2024-08-13T15:24:28Z</time>
      </trkpt>
      <trkpt lat="44.8651" lon="6.09731">
        <ele>1453</ele>
        <time>2024-08-13T15:24:29Z</time>
      </trkpt>
      <trkpt lat="44.8651" lon="6.09731">
        <ele>1452.8</ele>
        <time>2024-08-13T15:24:30Z</time>
      </trkpt>
      <trkpt lat="44.8651" lon="6.09731">
        <ele>1452.4</ele>
        <time>2024-08-13T15:24:31Z</time>
      </trkpt>
      <trkpt lat="44.8651" lon="6.09731">
        <ele>1452</ele>
        <time>2024-08-13T15:24:32Z</time>
      </trkpt>
      <trkpt lat="44.86512" lon="6.09731">
        <ele>1451.8</ele>
        <time>2024-08-13T15:24:33Z</time>
      </trkpt>
      <trkpt lat="44.86512" lon="6.09731">
        <ele>1451.6</ele>
        <time>2024-08-13T15:24:34Z</time>
      </trkpt>
      <trkpt lat="44.86512" lon="6.09728">
        <ele>1451.6</ele>
        <time>2024-08-13T15:24:35Z</time>
      </trkpt>
      <trkpt lat="44.86512" lon="6.09728">
        <ele>1451.2</ele>
        <time>2024-08-13T15:24:36Z</time>
      </trkpt>
      <trkpt lat="44.86512" lon="6.09728">
        <ele>1450.6</ele>
        <time>2024-08-13T15:24:37Z</time>
      </trkpt>
      <trkpt lat="44.86514" lon="6.09727">
        <ele>1450.2</ele>
        <time>2024-08-13T15:24:38Z</time>
      </trkpt>
      <trkpt lat="44.86514" lon="6.09727">
        <ele>1450</ele>
        <time>2024-08-13T15:24:39Z</time>
      </trkpt>
      <trkpt lat="44.86515" lon="6.0973">
        <ele>1449.6</ele>
        <time>2024-08-13T15:24:40Z</time>
      </trkpt>
      <trkpt lat="44.86515" lon="6.0973">
        <ele>1449</ele>
        <time>2024-08-13T15:24:41Z</time>
      </trkpt>
      <trkpt lat="44.86517" lon="6.09733">
        <ele>1448.6</ele>
        <time>2024-08-13T15:24:42Z</time>
      </trkpt>
      <trkpt lat="44.86517" lon="6.09733">
        <ele>1448.4</ele>
        <time>2024-08-13T15:24:43Z</time>
      </trkpt>
      <trkpt lat="44.86519" lon="6.09735">
        <ele>1448</ele>
        <time>2024-08-13T15:24:44Z</time>
      </trkpt>
      <trkpt lat="44.86519" lon="6.09735">
        <ele>1447.6</ele>
        <time>2024-08-13T15:24:45Z</time>
      </trkpt>
      <trkpt lat="44.86519" lon="6.09735">
        <ele>1447.2</ele>
        <time>2024-08-13T15:24:46Z</time>
      </trkpt>
      <trkpt lat="44.86521" lon="6.09736">
        <ele>1446.6</ele>
        <time>2024-08-13T15:24:47Z</time>
      </trkpt>
      <trkpt lat="44.86521" lon="6.09736">
        <ele>1446.2</ele>
        <time>2024-08-13T15:24:48Z</time>
      </trkpt>
      <trkpt lat="44.86521" lon="6.09736">
        <ele>1446.2</ele>
        <time>2024-08-13T15:24:49Z</time>
      </trkpt>
      <trkpt lat="44.86523" lon="6.09734">
        <ele>1446</ele>
        <time>2024-08-13T15:24:50Z</time>
      </trkpt>
      <trkpt lat="44.86523" lon="6.09734">
        <ele>1445.6</ele>
        <time>2024-08-13T15:24:51Z</time>
      </trkpt>
      <trkpt lat="44.86523" lon="6.09734">
        <ele>1445.2</ele>
        <time>2024-08-13T15:24:52Z</time>
      </trkpt>
      <trkpt lat="44.86526" lon="6.09733">
        <ele>1445</ele>
        <time>2024-08-13T15:24:53Z</time>
      </trkpt>
      <trkpt lat="44.86526" lon="6.09733">
        <ele>1444.4</ele>
        <time>2024-08-13T15:24:54Z</time>
      </trkpt>
      <trkpt lat="44.86526" lon="6.09733">
        <ele>1443.6</ele>
        <time>2024-08-13T15:24:55Z</time>
      </trkpt>
      <trkpt lat="44.86526" lon="6.09733">
        <ele>1443.6</ele>
        <time>2024-08-13T15:24:56Z</time>
      </trkpt>
      <trkpt lat="44.86526" lon="6.09733">
        <ele>1443.6</ele>
        <time>2024-08-13T15:24:57Z</time>
      </trkpt>
      <trkpt lat="44.86528" lon="6.09733">
        <ele>1443.6</ele>
        <time>2024-08-13T15:24:58Z</time>
      </trkpt>
      <trkpt lat="44.86528" lon="6.09733">
        <ele>1443.4</ele>
        <time>2024-08-13T15:24:59Z</time>
      </trkpt>
      <trkpt lat="44.86528" lon="6.09733">
        <ele>1443.2</ele>
        <time>2024-08-13T15:25:00Z</time>
      </trkpt>
      <trkpt lat="44.8653" lon="6.09733">
        <ele>1443</ele>
        <time>2024-08-13T15:25:01Z</time>
      </trkpt>
      <trkpt lat="44.8653" lon="6.09733">
        <ele>1441.2</ele>
        <time>2024-08-13T15:25:02Z</time>
      </trkpt>
      <trkpt lat="44.8653" lon="6.09733">
        <ele>1441.2</ele>
        <time>2024-08-13T15:25:03Z</time>
      </trkpt>
      <trkpt lat="44.86532" lon="6.09733">
        <ele>1440.8</ele>
        <time>2024-08-13T15:25:04Z</time>
      </trkpt>
      <trkpt lat="44.86532" lon="6.09733">
        <ele>1440.6</ele>
        <time>2024-08-13T15:25:05Z</time>
      </trkpt>
      <trkpt lat="44.86532" lon="6.09733">
        <ele>1440.2</ele>
        <time>2024-08-13T15:25:06Z</time>
      </trkpt>
      <trkpt lat="44.86534" lon="6.09732">
        <ele>1439.6</ele>
        <time>2024-08-13T15:25:07Z</time>
      </trkpt>
      <trkpt lat="44.86534" lon="6.09732">
        <ele>1439.6</ele>
        <time>2024-08-13T15:25:08Z</time>
      </trkpt>
      <trkpt lat="44.86536" lon="6.09734">
        <ele>1439.4</ele>
        <time>2024-08-13T15:25:09Z</time>
      </trkpt>
      <trkpt lat="44.86536" lon="6.09734">
        <ele>1438.8</ele>
        <time>2024-08-13T15:25:10Z</time>
      </trkpt>
      <trkpt lat="44.86538" lon="6.09734">
        <ele>1438.4</ele>
        <time>2024-08-13T15:25:11Z</time>
      </trkpt>
      <trkpt lat="44.86538" lon="6.09734">
        <ele>1438.4</ele>
        <time>2024-08-13T15:25:12Z</time>
      </trkpt>
      <trkpt lat="44.86538" lon="6.09734">
        <ele>1438.2</ele>
        <time>2024-08-13T15:25:13Z</time>
      </trkpt>
      <trkpt lat="44.86539" lon="6.09733">
        <ele>1438</ele>
        <time>2024-08-13T15:25:14Z</time>
      </trkpt>
      <trkpt lat="44.86539" lon="6.09733">
        <ele>1437.8</ele>
        <time>2024-08-13T15:25:15Z</time>
      </trkpt>
      <trkpt lat="44.86538" lon="6.0973">
        <ele>1437.2</ele>
        <time>2024-08-13T15:25:16Z</time>
      </trkpt>
      <trkpt lat="44.86538" lon="6.0973">
        <ele>1436.6</ele>
        <time>2024-08-13T15:25:17Z</time>
      </trkpt>
      <trkpt lat="44.86536" lon="6.09729">
        <ele>1436.2</ele>
        <time>2024-08-13T15:25:18Z</time>
      </trkpt>
      <trkpt lat="44.86536" lon="6.09729">
        <ele>1435.8</ele>
        <time>2024-08-13T15:25:19Z</time>
      </trkpt>
      <trkpt lat="44.86536" lon="6.09729">
        <ele>1435.4</ele>
        <time>2024-08-13T15:25:20Z</time>
      </trkpt>
      <trkpt lat="44.86536" lon="6.09726">
        <ele>1434.8</ele>
        <time>2024-08-13T15:25:21Z</time>
      </trkpt>
      <trkpt lat="44.86536" lon="6.09726">
        <ele>1434.6</ele>
        <time>2024-08-13T15:25:22Z</time>
      </trkpt>
      <trkpt lat="44.86536" lon="6.09726">
        <ele>1434.2</ele>
        <time>2024-08-13T15:25:23Z</time>
      </trkpt>
      <trkpt lat="44.86535" lon="6.09722">
        <ele>1433.8</ele>
        <time>2024-08-13T15:25:24Z</time>
      </trkpt>
      <trkpt lat="44.86535" lon="6.09722">
        <ele>1433.4</ele>
        <time>2024-08-13T15:25:25Z</time>
      </trkpt>
      <trkpt lat="44.86535" lon="6.09722">
        <ele>1433</ele>
        <time>2024-08-13T15:25:26Z</time>
      </trkpt>
      <trkpt lat="44.86536" lon="6.09719">
        <ele>1432.6</ele>
        <time>2024-08-13T15:25:27Z</time>
      </trkpt>
      <trkpt lat="44.86536" lon="6.09719">
        <ele>1432.4</ele>
        <time>2024-08-13T15:25:28Z</time>
      </trkpt>
      <trkpt lat="44.86536" lon="6.09719">
        <ele>1432</ele>
        <time>2024-08-13T15:25:29Z</time>
      </trkpt>
      <trkpt lat="44.86536" lon="6.09716">
        <ele>1431.8</ele>
        <time>2024-08-13T15:25:30Z</time>
      </trkpt>
      <trkpt lat="44.86536" lon="6.09716">
        <ele>1431.2</ele>
        <time>2024-08-13T15:25:31Z</time>
      </trkpt>
      <trkpt lat="44.86534" lon="6.09713">
        <ele>1430.8</ele>
        <time>2024-08-13T15:25:32Z</time>
      </trkpt>
      <trkpt lat="44.86534" lon="6.09713">
        <ele>1430.2</ele>
        <time>2024-08-13T15:25:33Z</time>
      </trkpt>
      <trkpt lat="44.86534" lon="6.09713">
        <ele>1430</ele>
        <time>2024-08-13T15:25:34Z</time>
      </trkpt>
      <trkpt lat="44.86533" lon="6.0971">
        <ele>1429.8</ele>
        <time>2024-08-13T15:25:35Z</time>
      </trkpt>
      <trkpt lat="44.86533" lon="6.0971">
        <ele>1429.6</ele>
        <time>2024-08-13T15:25:36Z</time>
      </trkpt>
      <trkpt lat="44.86533" lon="6.0971">
        <ele>1428.8</ele>
        <time>2024-08-13T15:25:37Z</time>
      </trkpt>
      <trkpt lat="44.86532" lon="6.09707">
        <ele>1428.8</ele>
        <time>2024-08-13T15:25:38Z</time>
      </trkpt>
      <trkpt lat="44.86532" lon="6.09707">
        <ele>1428.6</ele>
        <time>2024-08-13T15:25:39Z</time>
      </trkpt>
      <trkpt lat="44.86533" lon="6.09706">
        <ele>1428.4</ele>
        <time>2024-08-13T15:25:40Z</time>
      </trkpt>
      <trkpt lat="44.86533" lon="6.09706">
        <ele>1427.4</ele>
        <time>2024-08-13T15:25:41Z</time>
      </trkpt>
      <trkpt lat="44.86533" lon="6.09706">
        <ele>1426.8</ele>
        <time>2024-08-13T15:25:42Z</time>
      </trkpt>
      <trkpt lat="44.86533" lon="6.09706">
        <ele>1426.2</ele>
        <time>2024-08-13T15:25:43Z</time>
      </trkpt>
      <trkpt lat="44.86533" lon="6.09706">
        <ele>1426</ele>
        <time>2024-08-13T15:25:44Z</time>
      </trkpt>
      <trkpt lat="44.86533" lon="6.09704">
        <ele>1425.6</ele>
        <time>2024-08-13T15:25:45Z</time>
      </trkpt>
      <trkpt lat="44.86533" lon="6.09704">
        <ele>1425.2</ele>
        <time>2024-08-13T15:25:46Z</time>
      </trkpt>
      <trkpt lat="44.86532" lon="6.09702">
        <ele>1424.8</ele>
        <time>2024-08-13T15:25:47Z</time>
      </trkpt>
      <trkpt lat="44.86532" lon="6.09702">
        <ele>1424.4</ele>
        <time>2024-08-13T15:25:48Z</time>
      </trkpt>
      <trkpt lat="44.86532" lon="6.09702">
        <ele>1424</ele>
        <time>2024-08-13T15:25:49Z</time>
      </trkpt>
      <trkpt lat="44.86532" lon="6.09702">
        <ele>1423.8</ele>
        <time>2024-08-13T15:25:50Z</time>
      </trkpt>
      <trkpt lat="44.86531" lon="6.09698">
        <ele>1423.6</ele>
        <time>2024-08-13T15:25:51Z</time>
      </trkpt>
      <trkpt lat="44.86531" lon="6.09698">
        <ele>1423</ele>
        <time>2024-08-13T15:25:52Z</time>
      </trkpt>
      <trkpt lat="44.86531" lon="6.09695">
        <ele>1422.6</ele>
        <time>2024-08-13T15:25:53Z</time>
      </trkpt>
      <trkpt lat="44.86531" lon="6.09695">
        <ele>1422</ele>
        <time>2024-08-13T15:25:54Z</time>
      </trkpt>
      <trkpt lat="44.86531" lon="6.09695">
        <ele>1421.6</ele>
        <time>2024-08-13T15:25:55Z</time>
      </trkpt>
      <trkpt lat="44.86533" lon="6.09694">
        <ele>1421.2</ele>
        <time>2024-08-13T15:25:56Z</time>
      </trkpt>
      <trkpt lat="44.86533" lon="6.09694">
        <ele>1421</ele>
        <time>2024-08-13T15:25:57Z</time>
      </trkpt>
      <trkpt lat="44.86533" lon="6.09694">
        <ele>1420.6</ele>
        <time>2024-08-13T15:25:58Z</time>
      </trkpt>
      <trkpt lat="44.86536" lon="6.09694">
        <ele>1420.2</ele>
        <time>2024-08-13T15:25:59Z</time>
      </trkpt>
      <trkpt lat="44.86536" lon="6.09694">
        <ele>1419.6</ele>
        <time>2024-08-13T15:26:00Z</time>
      </trkpt>
      <trkpt lat="44.86536" lon="6.09694">
        <ele>1419.4</ele>
        <time>2024-08-13T15:26:01Z</time>
      </trkpt>
      <trkpt lat="44.86537" lon="6.09691">
        <ele>1419</ele>
        <time>2024-08-13T15:26:02Z</time>
      </trkpt>
      <trkpt lat="44.86537" lon="6.09691">
        <ele>1419</ele>
        <time>2024-08-13T15:26:03Z</time>
      </trkpt>
      <trkpt lat="44.8654" lon="6.09691">
        <ele>1418.6</ele>
        <time>2024-08-13T15:26:04Z</time>
      </trkpt>
      <trkpt lat="44.8654" lon="6.09691">
        <ele>1418.2</ele>
        <time>2024-08-13T15:26:05Z</time>
      </trkpt>
      <trkpt lat="44.86541" lon="6.0969">
        <ele>1418</ele>
        <time>2024-08-13T15:26:06Z</time>
      </trkpt>
      <trkpt lat="44.86541" lon="6.0969">
        <ele>1417.6</ele>
        <time>2024-08-13T15:26:07Z</time>
      </trkpt>
      <trkpt lat="44.86541" lon="6.0969">
        <ele>1417.2</ele>
        <time>2024-08-13T15:26:08Z</time>
      </trkpt>
      <trkpt lat="44.86544" lon="6.0969">
        <ele>1416.8</ele>
        <time>2024-08-13T15:26:09Z</time>
      </trkpt>
      <trkpt lat="44.86544" lon="6.0969">
        <ele>1416.4</ele>
        <time>2024-08-13T15:26:10Z</time>
      </trkpt>
      <trkpt lat="44.86546" lon="6.09691">
        <ele>1416.4</ele>
        <time>2024-08-13T15:26:11Z</time>
      </trkpt>
      <trkpt lat="44.86546" lon="6.09691">
        <ele>1416</ele>
        <time>2024-08-13T15:26:12Z</time>
      </trkpt>
      <trkpt lat="44.86548" lon="6.09691">
        <ele>1415.6</ele>
        <time>2024-08-13T15:26:13Z</time>
      </trkpt>
      <trkpt lat="44.86548" lon="6.09691">
        <ele>1415.4</ele>
        <time>2024-08-13T15:26:14Z</time>
      </trkpt>
      <trkpt lat="44.8655" lon="6.09692">
        <ele>1415</ele>
        <time>2024-08-13T15:26:15Z</time>
      </trkpt>
      <trkpt lat="44.8655" lon="6.09692">
        <ele>1414.2</ele>
        <time>2024-08-13T15:26:16Z</time>
      </trkpt>
      <trkpt lat="44.86552" lon="6.09693">
        <ele>1414</ele>
        <time>2024-08-13T15:26:17Z</time>
      </trkpt>
      <trkpt lat="44.86552" lon="6.09693">
        <ele>1413.6</ele>
        <time>2024-08-13T15:26:18Z</time>
      </trkpt>
      <trkpt lat="44.86554" lon="6.09694">
        <ele>1413.4</ele>
        <time>2024-08-13T15:26:19Z</time>
      </trkpt>
      <trkpt lat="44.86556" lon="6.09695">
        <ele>1412.8</ele>
        <time>2024-08-13T15:26:20Z</time>
      </trkpt>
      <trkpt lat="44.86557" lon="6.09697">
        <ele>1412.6</ele>
        <time>2024-08-13T15:26:21Z</time>
      </trkpt>
      <trkpt lat="44.86557" lon="6.09697">
        <ele>1412.4</ele>
        <time>2024-08-13T15:26:22Z</time>
      </trkpt>
      <trkpt lat="44.86558" lon="6.09698">
        <ele>1412</ele>
        <time>2024-08-13T15:26:23Z</time>
      </trkpt>
      <trkpt lat="44.86558" lon="6.09698">
        <ele>1411.6</ele>
        <time>2024-08-13T15:26:24Z</time>
      </trkpt>
      <trkpt lat="44.86558" lon="6.09698">
        <ele>1411.6</ele>
        <time>2024-08-13T15:26:25Z</time>
      </trkpt>
      <trkpt lat="44.86557" lon="6.09696">
        <ele>1411.6</ele>
        <time>2024-08-13T15:26:26Z</time>
      </trkpt>
      <trkpt lat="44.86557" lon="6.09696">
        <ele>1411.6</ele>
        <time>2024-08-13T15:26:27Z</time>
      </trkpt>
      <trkpt lat="44.86557" lon="6.09693">
        <ele>1411.4</ele>
        <time>2024-08-13T15:26:28Z</time>
      </trkpt>
      <trkpt lat="44.86557" lon="6.09693">
        <ele>1411</ele>
        <time>2024-08-13T15:26:29Z</time>
      </trkpt>
      <trkpt lat="44.86556" lon="6.09691">
        <ele>1411</ele>
        <time>2024-08-13T15:26:30Z</time>
      </trkpt>
      <trkpt lat="44.86556" lon="6.09691">
        <ele>1410.6</ele>
        <time>2024-08-13T15:26:31Z</time>
      </trkpt>
      <trkpt lat="44.86555" lon="6.09688">
        <ele>1410.2</ele>
        <time>2024-08-13T15:26:32Z</time>
      </trkpt>
      <trkpt lat="44.86555" lon="6.09688">
        <ele>1410</ele>
        <time>2024-08-13T15:26:33Z</time>
      </trkpt>
      <trkpt lat="44.86553" lon="6.09685">
        <ele>1409.6</ele>
        <time>2024-08-13T15:26:34Z</time>
      </trkpt>
      <trkpt lat="44.86553" lon="6.09685">
        <ele>1409</ele>
        <time>2024-08-13T15:26:35Z</time>
      </trkpt>
      <trkpt lat="44.86553" lon="6.09685">
        <ele>1409</ele>
        <time>2024-08-13T15:26:36Z</time>
      </trkpt>
      <trkpt lat="44.86553" lon="6.09682">
        <ele>1408.8</ele>
        <time>2024-08-13T15:26:37Z</time>
      </trkpt>
      <trkpt lat="44.86553" lon="6.09682">
        <ele>1408.4</ele>
        <time>2024-08-13T15:26:38Z</time>
      </trkpt>
      <trkpt lat="44.86553" lon="6.09682">
        <ele>1408.4</ele>
        <time>2024-08-13T15:26:39Z</time>
      </trkpt>
      <trkpt lat="44.86556" lon="6.09682">
        <ele>1408.2</ele>
        <time>2024-08-13T15:26:40Z</time>
      </trkpt>
      <trkpt lat="44.86556" lon="6.09682">
        <ele>1407.8</ele>
        <time>2024-08-13T15:26:41Z</time>
      </trkpt>
      <trkpt lat="44.86557" lon="6.09682">
        <ele>1407.6</ele>
        <time>2024-08-13T15:26:42Z</time>
      </trkpt>
      <trkpt lat="44.86557" lon="6.09682">
        <ele>1407.2</ele>
        <time>2024-08-13T15:26:43Z</time>
      </trkpt>
      <trkpt lat="44.8656" lon="6.09683">
        <ele>1406.8</ele>
        <time>2024-08-13T15:26:44Z</time>
      </trkpt>
      <trkpt lat="44.8656" lon="6.09683">
        <ele>1406.6</ele>
        <time>2024-08-13T15:26:45Z</time>
      </trkpt>
      <trkpt lat="44.8656" lon="6.09683">
        <ele>1406.4</ele>
        <time>2024-08-13T15:26:46Z</time>
      </trkpt>
      <trkpt lat="44.8656" lon="6.09683">
        <ele>1405.8</ele>
        <time>2024-08-13T15:26:47Z</time>
      </trkpt>
      <trkpt lat="44.8656" lon="6.09683">
        <ele>1405.6</ele>
        <time>2024-08-13T15:26:48Z</time>
      </trkpt>
      <trkpt lat="44.8656" lon="6.09683">
        <ele>1405</ele>
        <time>2024-08-13T15:26:49Z</time>
      </trkpt>
      <trkpt lat="44.8656" lon="6.09683">
        <ele>1404.6</ele>
        <time>2024-08-13T15:26:50Z</time>
      </trkpt>
      <trkpt lat="44.86561" lon="6.09681">
        <ele>1404.4</ele>
        <time>2024-08-13T15:26:51Z</time>
      </trkpt>
      <trkpt lat="44.86561" lon="6.09681">
        <ele>1404.2</ele>
        <time>2024-08-13T15:26:52Z</time>
      </trkpt>
      <trkpt lat="44.86563" lon="6.09679">
        <ele>1403.8</ele>
        <time>2024-08-13T15:26:53Z</time>
      </trkpt>
      <trkpt lat="44.86563" lon="6.09679">
        <ele>1403.2</ele>
        <time>2024-08-13T15:26:54Z</time>
      </trkpt>
      <trkpt lat="44.86563" lon="6.09679">
        <ele>1402.8</ele>
        <time>2024-08-13T15:26:55Z</time>
      </trkpt>
      <trkpt lat="44.86565" lon="6.09679">
        <ele>1402.4</ele>
        <time>2024-08-13T15:26:56Z</time>
      </trkpt>
      <trkpt lat="44.86565" lon="6.09679">
        <ele>1402.2</ele>
        <time>2024-08-13T15:26:57Z</time>
      </trkpt>
      <trkpt lat="44.86567" lon="6.09681">
        <ele>1402</ele>
        <time>2024-08-13T15:26:58Z</time>
      </trkpt>
      <trkpt lat="44.86567" lon="6.09681">
        <ele>1401.6</ele>
        <time>2024-08-13T15:26:59Z</time>
      </trkpt>
      <trkpt lat="44.86567" lon="6.09681">
        <ele>1401.2</ele>
        <time>2024-08-13T15:27:00Z</time>
      </trkpt>
      <trkpt lat="44.86569" lon="6.09683">
        <ele>1401</ele>
        <time>2024-08-13T15:27:01Z</time>
      </trkpt>
      <trkpt lat="44.86569" lon="6.09683">
        <ele>1400</ele>
        <time>2024-08-13T15:27:02Z</time>
      </trkpt>
      <trkpt lat="44.86571" lon="6.09683">
        <ele>1400</ele>
        <time>2024-08-13T15:27:03Z</time>
      </trkpt>
      <trkpt lat="44.86571" lon="6.09683">
        <ele>1400</ele>
        <time>2024-08-13T15:27:04Z</time>
      </trkpt>
      <trkpt lat="44.86571" lon="6.09683">
        <ele>1399.8</ele>
        <time>2024-08-13T15:27:05Z</time>
      </trkpt>
      <trkpt lat="44.86574" lon="6.09683">
        <ele>1399.4</ele>
        <time>2024-08-13T15:27:06Z</time>
      </trkpt>
      <trkpt lat="44.86574" lon="6.09683">
        <ele>1398.8</ele>
        <time>2024-08-13T15:27:07Z</time>
      </trkpt>
      <trkpt lat="44.86576" lon="6.09684">
        <ele>1398.4</ele>
        <time>2024-08-13T15:27:08Z</time>
      </trkpt>
      <trkpt lat="44.86576" lon="6.09684">
        <ele>1398</ele>
        <time>2024-08-13T15:27:09Z</time>
      </trkpt>
      <trkpt lat="44.86578" lon="6.09686">
        <ele>1397.4</ele>
        <time>2024-08-13T15:27:10Z</time>
      </trkpt>
      <trkpt lat="44.86578" lon="6.09686">
        <ele>1397.2</ele>
        <time>2024-08-13T15:27:11Z</time>
      </trkpt>
      <trkpt lat="44.8658" lon="6.09689">
        <ele>1396.8</ele>
        <time>2024-08-13T15:27:12Z</time>
      </trkpt>
      <trkpt lat="44.8658" lon="6.09689">
        <ele>1396.6</ele>
        <time>2024-08-13T15:27:13Z</time>
      </trkpt>
      <trkpt lat="44.86582" lon="6.09691">
        <ele>1396.4</ele>
        <time>2024-08-13T15:27:14Z</time>
      </trkpt>
      <trkpt lat="44.86582" lon="6.09691">
        <ele>1396</ele>
        <time>2024-08-13T15:27:15Z</time>
      </trkpt>
      <trkpt lat="44.86584" lon="6.09693">
        <ele>1395.8</ele>
        <time>2024-08-13T15:27:16Z</time>
      </trkpt>
      <trkpt lat="44.86584" lon="6.09693">
        <ele>1395.6</ele>
        <time>2024-08-13T15:27:17Z</time>
      </trkpt>
      <trkpt lat="44.86586" lon="6.09696">
        <ele>1395.2</ele>
        <time>2024-08-13T15:27:18Z</time>
      </trkpt>
      <trkpt lat="44.86586" lon="6.09696">
        <ele>1395</ele>
        <time>2024-08-13T15:27:19Z</time>
      </trkpt>
      <trkpt lat="44.86587" lon="6.09698">
        <ele>1394.8</ele>
        <time>2024-08-13T15:27:20Z</time>
      </trkpt>
      <trkpt lat="44.86587" lon="6.09698">
        <ele>1394.8</ele>
        <time>2024-08-13T15:27:21Z</time>
      </trkpt>
      <trkpt lat="44.86587" lon="6.09701">
        <ele>1394.8</ele>
        <time>2024-08-13T15:27:22Z</time>
      </trkpt>
      <trkpt lat="44.86587" lon="6.09701">
        <ele>1394.6</ele>
        <time>2024-08-13T15:27:23Z</time>
      </trkpt>
      <trkpt lat="44.86588" lon="6.09704">
        <ele>1394.6</ele>
        <time>2024-08-13T15:27:24Z</time>
      </trkpt>
      <trkpt lat="44.86588" lon="6.09704">
        <ele>1394</ele>
        <time>2024-08-13T15:27:25Z</time>
      </trkpt>
      <trkpt lat="44.86588" lon="6.09707">
        <ele>1393.8</ele>
        <time>2024-08-13T15:27:26Z</time>
      </trkpt>
      <trkpt lat="44.86588" lon="6.09707">
        <ele>1393.4</ele>
        <time>2024-08-13T15:27:27Z</time>
      </trkpt>
      <trkpt lat="44.86588" lon="6.0971">
        <ele>1393.2</ele>
        <time>2024-08-13T15:27:28Z</time>
      </trkpt>
      <trkpt lat="44.86588" lon="6.0971">
        <ele>1393</ele>
        <time>2024-08-13T15:27:29Z</time>
      </trkpt>
      <trkpt lat="44.8659" lon="6.09714">
        <ele>1392.6</ele>
        <time>2024-08-13T15:27:30Z</time>
      </trkpt>
      <trkpt lat="44.86591" lon="6.09716">
        <ele>1392.2</ele>
        <time>2024-08-13T15:27:31Z</time>
      </trkpt>
      <trkpt lat="44.86591" lon="6.09716">
        <ele>1392</ele>
        <time>2024-08-13T15:27:32Z</time>
      </trkpt>
      <trkpt lat="44.86593" lon="6.09718">
        <ele>1391.6</ele>
        <time>2024-08-13T15:27:33Z</time>
      </trkpt>
      <trkpt lat="44.86593" lon="6.09718">
        <ele>1391.4</ele>
        <time>2024-08-13T15:27:34Z</time>
      </trkpt>
      <trkpt lat="44.86594" lon="6.09721">
        <ele>1391.4</ele>
        <time>2024-08-13T15:27:35Z</time>
      </trkpt>
      <trkpt lat="44.86594" lon="6.09721">
        <ele>1391.6</ele>
        <time>2024-08-13T15:27:36Z</time>
      </trkpt>
      <trkpt lat="44.86596" lon="6.09722">
        <ele>1391.6</ele>
        <time>2024-08-13T15:27:37Z</time>
      </trkpt>
      <trkpt lat="44.86596" lon="6.09722">
        <ele>1392</ele>
        <time>2024-08-13T15:27:38Z</time>
      </trkpt>
      <trkpt lat="44.86599" lon="6.09724">
        <ele>1392</ele>
        <time>2024-08-13T15:27:39Z</time>
      </trkpt>
      <trkpt lat="44.86599" lon="6.09724">
        <ele>1392</ele>
        <time>2024-08-13T15:27:40Z</time>
      </trkpt>
      <trkpt lat="44.866" lon="6.09726">
        <ele>1392</ele>
        <time>2024-08-13T15:27:41Z</time>
      </trkpt>
      <trkpt lat="44.866" lon="6.09726">
        <ele>1391.6</ele>
        <time>2024-08-13T15:27:42Z</time>
      </trkpt>
      <trkpt lat="44.86602" lon="6.09728">
        <ele>1391.4</ele>
        <time>2024-08-13T15:27:43Z</time>
      </trkpt>
      <trkpt lat="44.86602" lon="6.09728">
        <ele>1391.4</ele>
        <time>2024-08-13T15:27:44Z</time>
      </trkpt>
      <trkpt lat="44.86604" lon="6.09729">
        <ele>1391.4</ele>
        <time>2024-08-13T15:27:45Z</time>
      </trkpt>
      <trkpt lat="44.86604" lon="6.09729">
        <ele>1390.8</ele>
        <time>2024-08-13T15:27:46Z</time>
      </trkpt>
      <trkpt lat="44.86605" lon="6.0973">
        <ele>1390.8</ele>
        <time>2024-08-13T15:27:47Z</time>
      </trkpt>
      <trkpt lat="44.86605" lon="6.0973">
        <ele>1390.6</ele>
        <time>2024-08-13T15:27:48Z</time>
      </trkpt>
      <trkpt lat="44.86605" lon="6.0973">
        <ele>1390.2</ele>
        <time>2024-08-13T15:27:49Z</time>
      </trkpt>
      <trkpt lat="44.86606" lon="6.09733">
        <ele>1389.8</ele>
        <time>2024-08-13T15:27:50Z</time>
      </trkpt>
      <trkpt lat="44.86606" lon="6.09733">
        <ele>1389.4</ele>
        <time>2024-08-13T15:27:51Z</time>
      </trkpt>
      <trkpt lat="44.86607" lon="6.09736">
        <ele>1389.2</ele>
        <time>2024-08-13T15:27:52Z</time>
      </trkpt>
      <trkpt lat="44.86607" lon="6.09736">
        <ele>1389.2</ele>
        <time>2024-08-13T15:27:53Z</time>
      </trkpt>
      <trkpt lat="44.86607" lon="6.09736">
        <ele>1389</ele>
        <time>2024-08-13T15:27:54Z</time>
      </trkpt>
      <trkpt lat="44.86609" lon="6.09738">
        <ele>1388.8</ele>
        <time>2024-08-13T15:27:55Z</time>
      </trkpt>
      <trkpt lat="44.86609" lon="6.09738">
        <ele>1388.8</ele>
        <time>2024-08-13T15:27:56Z</time>
      </trkpt>
      <trkpt lat="44.86611" lon="6.0974">
        <ele>1388.6</ele>
        <time>2024-08-13T15:27:57Z</time>
      </trkpt>
      <trkpt lat="44.86611" lon="6.0974">
        <ele>1388.4</ele>
        <time>2024-08-13T15:27:58Z</time>
      </trkpt>
      <trkpt lat="44.86611" lon="6.0974">
        <ele>1388.2</ele>
        <time>2024-08-13T15:27:59Z</time>
      </trkpt>
      <trkpt lat="44.86612" lon="6.09742">
        <ele>1387.8</ele>
        <time>2024-08-13T15:28:00Z</time>
      </trkpt>
      <trkpt lat="44.86612" lon="6.09742">
        <ele>1387.6</ele>
        <time>2024-08-13T15:28:01Z</time>
      </trkpt>
      <trkpt lat="44.86612" lon="6.09742">
        <ele>1387.4</ele>
        <time>2024-08-13T15:28:02Z</time>
      </trkpt>
      <trkpt lat="44.86614" lon="6.09744">
        <ele>1387.4</ele>
        <time>2024-08-13T15:28:03Z</time>
      </trkpt>
      <trkpt lat="44.86614" lon="6.09744">
        <ele>1387.4</ele>
        <time>2024-08-13T15:28:04Z</time>
      </trkpt>
      <trkpt lat="44.86614" lon="6.09744">
        <ele>1386.8</ele>
        <time>2024-08-13T15:28:05Z</time>
      </trkpt>
      <trkpt lat="44.86615" lon="6.09746">
        <ele>1386.4</ele>
        <time>2024-08-13T15:28:06Z</time>
      </trkpt>
      <trkpt lat="44.86615" lon="6.09746">
        <ele>1386</ele>
        <time>2024-08-13T15:28:07Z</time>
      </trkpt>
      <trkpt lat="44.86615" lon="6.09746">
        <ele>1385.8</ele>
        <time>2024-08-13T15:28:08Z</time>
      </trkpt>
      <trkpt lat="44.86617" lon="6.09749">
        <ele>1385.4</ele>
        <time>2024-08-13T15:28:09Z</time>
      </trkpt>
      <trkpt lat="44.86617" lon="6.09749">
        <ele>1385.2</ele>
        <time>2024-08-13T15:28:10Z</time>
      </trkpt>
      <trkpt lat="44.86617" lon="6.09749">
        <ele>1385.2</ele>
        <time>2024-08-13T15:28:11Z</time>
      </trkpt>
      <trkpt lat="44.86619" lon="6.0975">
        <ele>1384.8</ele>
        <time>2024-08-13T15:28:12Z</time>
      </trkpt>
      <trkpt lat="44.86619" lon="6.0975">
        <ele>1384.4</ele>
        <time>2024-08-13T15:28:13Z</time>
      </trkpt>
      <trkpt lat="44.86619" lon="6.0975">
        <ele>1384.2</ele>
        <time>2024-08-13T15:28:14Z</time>
      </trkpt>
      <trkpt lat="44.86621" lon="6.09753">
        <ele>1384.2</ele>
        <time>2024-08-13T15:28:15Z</time>
      </trkpt>
      <trkpt lat="44.86621" lon="6.09753">
        <ele>1383.8</ele>
        <time>2024-08-13T15:28:16Z</time>
      </trkpt>
      <trkpt lat="44.86623" lon="6.09755">
        <ele>1383.4</ele>
        <time>2024-08-13T15:28:17Z</time>
      </trkpt>
      <trkpt lat="44.86623" lon="6.09755">
        <ele>1383.2</ele>
        <time>2024-08-13T15:28:18Z</time>
      </trkpt>
      <trkpt lat="44.86625" lon="6.09756">
        <ele>1383</ele>
        <time>2024-08-13T15:28:19Z</time>
      </trkpt>
      <trkpt lat="44.86625" lon="6.09756">
        <ele>1382.4</ele>
        <time>2024-08-13T15:28:20Z</time>
      </trkpt>
      <trkpt lat="44.86627" lon="6.09758">
        <ele>1382</ele>
        <time>2024-08-13T15:28:21Z</time>
      </trkpt>
      <trkpt lat="44.86627" lon="6.09758">
        <ele>1381.8</ele>
        <time>2024-08-13T15:28:22Z</time>
      </trkpt>
      <trkpt lat="44.86629" lon="6.09758">
        <ele>1381.4</ele>
        <time>2024-08-13T15:28:23Z</time>
      </trkpt>
      <trkpt lat="44.86629" lon="6.09758">
        <ele>1381.2</ele>
        <time>2024-08-13T15:28:24Z</time>
      </trkpt>
      <trkpt lat="44.86632" lon="6.09759">
        <ele>1381</ele>
        <time>2024-08-13T15:28:25Z</time>
      </trkpt>
      <trkpt lat="44.86632" lon="6.09759">
        <ele>1380.6</ele>
        <time>2024-08-13T15:28:26Z</time>
      </trkpt>
      <trkpt lat="44.86634" lon="6.0976">
        <ele>1380.2</ele>
        <time>2024-08-13T15:28:27Z</time>
      </trkpt>
      <trkpt lat="44.86634" lon="6.0976">
        <ele>1380.2</ele>
        <time>2024-08-13T15:28:28Z</time>
      </trkpt>
      <trkpt lat="44.86637" lon="6.09762">
        <ele>1380.2</ele>
        <time>2024-08-13T15:28:29Z</time>
      </trkpt>
      <trkpt lat="44.86637" lon="6.09762">
        <ele>1379.8</ele>
        <time>2024-08-13T15:28:30Z</time>
      </trkpt>
      <trkpt lat="44.86639" lon="6.09763">
        <ele>1379.6</ele>
        <time>2024-08-13T15:28:31Z</time>
      </trkpt>
      <trkpt lat="44.86639" lon="6.09763">
        <ele>1379.4</ele>
        <time>2024-08-13T15:28:32Z</time>
      </trkpt>
      <trkpt lat="44.86639" lon="6.09763">
        <ele>1379.2</ele>
        <time>2024-08-13T15:28:33Z</time>
      </trkpt>
      <trkpt lat="44.86641" lon="6.09764">
        <ele>1379</ele>
        <time>2024-08-13T15:28:34Z</time>
      </trkpt>
      <trkpt lat="44.86641" lon="6.09764">
        <ele>1378.8</ele>
        <time>2024-08-13T15:28:35Z</time>
      </trkpt>
      <trkpt lat="44.86644" lon="6.09763">
        <ele>1378.8</ele>
        <time>2024-08-13T15:28:36Z</time>
      </trkpt>
      <trkpt lat="44.86644" lon="6.09763">
        <ele>1378.4</ele>
        <time>2024-08-13T15:28:37Z</time>
      </trkpt>
      <trkpt lat="44.86645" lon="6.09763">
        <ele>1378.2</ele>
        <time>2024-08-13T15:28:38Z</time>
      </trkpt>
      <trkpt lat="44.86645" lon="6.09763">
        <ele>1378</ele>
        <time>2024-08-13T15:28:39Z</time>
      </trkpt>
      <trkpt lat="44.86648" lon="6.09763">
        <ele>1377.8</ele>
        <time>2024-08-13T15:28:40Z</time>
      </trkpt>
      <trkpt lat="44.86648" lon="6.09763">
        <ele>1377.4</ele>
        <time>2024-08-13T15:28:41Z</time>
      </trkpt>
      <trkpt lat="44.8665" lon="6.09763">
        <ele>1377.4</ele>
        <time>2024-08-13T15:28:42Z</time>
      </trkpt>
      <trkpt lat="44.8665" lon="6.09763">
        <ele>1377.2</ele>
        <time>2024-08-13T15:28:43Z</time>
      </trkpt>
      <trkpt lat="44.86652" lon="6.09763">
        <ele>1377.2</ele>
        <time>2024-08-13T15:28:44Z</time>
      </trkpt>
      <trkpt lat="44.86652" lon="6.09763">
        <ele>1376.8</ele>
        <time>2024-08-13T15:28:45Z</time>
      </trkpt>
      <trkpt lat="44.86654" lon="6.09763">
        <ele>1376.6</ele>
        <time>2024-08-13T15:28:46Z</time>
      </trkpt>
      <trkpt lat="44.86654" lon="6.09763">
        <ele>1376.4</ele>
        <time>2024-08-13T15:28:47Z</time>
      </trkpt>
      <trkpt lat="44.86656" lon="6.09763">
        <ele>1376.2</ele>
        <time>2024-08-13T15:28:48Z</time>
      </trkpt>
      <trkpt lat="44.86656" lon="6.09763">
        <ele>1375.6</ele>
        <time>2024-08-13T15:28:49Z</time>
      </trkpt>
      <trkpt lat="44.86656" lon="6.09763">
        <ele>1375.6</ele>
        <time>2024-08-13T15:28:50Z</time>
      </trkpt>
      <trkpt lat="44.86657" lon="6.0976">
        <ele>1375.4</ele>
        <time>2024-08-13T15:28:51Z</time>
      </trkpt>
      <trkpt lat="44.86657" lon="6.0976">
        <ele>1375.2</ele>
        <time>2024-08-13T15:28:52Z</time>
      </trkpt>
      <trkpt lat="44.86657" lon="6.0976">
        <ele>1375</ele>
        <time>2024-08-13T15:28:53Z</time>
      </trkpt>
      <trkpt lat="44.86659" lon="6.09759">
        <ele>1374.6</ele>
        <time>2024-08-13T15:28:54Z</time>
      </trkpt>
      <trkpt lat="44.86659" lon="6.09759">
        <ele>1374.4</ele>
        <time>2024-08-13T15:28:55Z</time>
      </trkpt>
      <trkpt lat="44.86661" lon="6.09758">
        <ele>1374</ele>
        <time>2024-08-13T15:28:56Z</time>
      </trkpt>
      <trkpt lat="44.86661" lon="6.09758">
        <ele>1373.8</ele>
        <time>2024-08-13T15:28:57Z</time>
      </trkpt>
      <trkpt lat="44.86664" lon="6.09758">
        <ele>1373.6</ele>
        <time>2024-08-13T15:28:58Z</time>
      </trkpt>
      <trkpt lat="44.86664" lon="6.09758">
        <ele>1373.2</ele>
        <time>2024-08-13T15:28:59Z</time>
      </trkpt>
      <trkpt lat="44.86666" lon="6.09759">
        <ele>1373</ele>
        <time>2024-08-13T15:29:00Z</time>
      </trkpt>
      <trkpt lat="44.86666" lon="6.09759">
        <ele>1372.8</ele>
        <time>2024-08-13T15:29:01Z</time>
      </trkpt>
      <trkpt lat="44.86668" lon="6.0976">
        <ele>1372.6</ele>
        <time>2024-08-13T15:29:02Z</time>
      </trkpt>
      <trkpt lat="44.86668" lon="6.0976">
        <ele>1372.6</ele>
        <time>2024-08-13T15:29:03Z</time>
      </trkpt>
      <trkpt lat="44.8667" lon="6.0976">
        <ele>1372.6</ele>
        <time>2024-08-13T15:29:04Z</time>
      </trkpt>
      <trkpt lat="44.8667" lon="6.0976">
        <ele>1372.2</ele>
        <time>2024-08-13T15:29:05Z</time>
      </trkpt>
      <trkpt lat="44.8667" lon="6.0976">
        <ele>1372</ele>
        <time>2024-08-13T15:29:06Z</time>
      </trkpt>
      <trkpt lat="44.86673" lon="6.09761">
        <ele>1371.8</ele>
        <time>2024-08-13T15:29:07Z</time>
      </trkpt>
      <trkpt lat="44.86673" lon="6.09761">
        <ele>1371.4</ele>
        <time>2024-08-13T15:29:08Z</time>
      </trkpt>
      <trkpt lat="44.86675" lon="6.09761">
        <ele>1371.2</ele>
        <time>2024-08-13T15:29:09Z</time>
      </trkpt>
      <trkpt lat="44.86675" lon="6.09761">
        <ele>1371</ele>
        <time>2024-08-13T15:29:10Z</time>
      </trkpt>
      <trkpt lat="44.86678" lon="6.09761">
        <ele>1370.8</ele>
        <time>2024-08-13T15:29:11Z</time>
      </trkpt>
      <trkpt lat="44.86678" lon="6.09761">
        <ele>1370.6</ele>
        <time>2024-08-13T15:29:12Z</time>
      </trkpt>
      <trkpt lat="44.86681" lon="6.09762">
        <ele>1370.6</ele>
        <time>2024-08-13T15:29:13Z</time>
      </trkpt>
      <trkpt lat="44.86681" lon="6.09762">
        <ele>1370.2</ele>
        <time>2024-08-13T15:29:14Z</time>
      </trkpt>
      <trkpt lat="44.86684" lon="6.09764">
        <ele>1370</ele>
        <time>2024-08-13T15:29:15Z</time>
      </trkpt>
      <trkpt lat="44.86684" lon="6.09764">
        <ele>1369.8</ele>
        <time>2024-08-13T15:29:16Z</time>
      </trkpt>
      <trkpt lat="44.86684" lon="6.09764">
        <ele>1369.4</ele>
        <time>2024-08-13T15:29:17Z</time>
      </trkpt>
      <trkpt lat="44.86686" lon="6.09764">
        <ele>1369.2</ele>
        <time>2024-08-13T15:29:18Z</time>
      </trkpt>
      <trkpt lat="44.86686" lon="6.09764">
        <ele>1369</ele>
        <time>2024-08-13T15:29:19Z</time>
      </trkpt>
      <trkpt lat="44.86688" lon="6.09764">
        <ele>1368.8</ele>
        <time>2024-08-13T15:29:20Z</time>
      </trkpt>
      <trkpt lat="44.86688" lon="6.09764">
        <ele>1368.6</ele>
        <time>2024-08-13T15:29:21Z</time>
      </trkpt>
      <trkpt lat="44.86691" lon="6.09765">
        <ele>1368.6</ele>
        <time>2024-08-13T15:29:22Z</time>
      </trkpt>
      <trkpt lat="44.86691" lon="6.09765">
        <ele>1368.2</ele>
        <time>2024-08-13T15:29:23Z</time>
      </trkpt>
      <trkpt lat="44.86693" lon="6.09766">
        <ele>1367.8</ele>
        <time>2024-08-13T15:29:24Z</time>
      </trkpt>
      <trkpt lat="44.86693" lon="6.09766">
        <ele>1367.6</ele>
        <time>2024-08-13T15:29:25Z</time>
      </trkpt>
      <trkpt lat="44.86695" lon="6.09768">
        <ele>1367.4</ele>
        <time>2024-08-13T15:29:26Z</time>
      </trkpt>
      <trkpt lat="44.86695" lon="6.09768">
        <ele>1366.6</ele>
        <time>2024-08-13T15:29:27Z</time>
      </trkpt>
      <trkpt lat="44.86697" lon="6.0977">
        <ele>1366.4</ele>
        <time>2024-08-13T15:29:28Z</time>
      </trkpt>
      <trkpt lat="44.86697" lon="6.0977">
        <ele>1366.4</ele>
        <time>2024-08-13T15:29:29Z</time>
      </trkpt>
      <trkpt lat="44.867" lon="6.09771">
        <ele>1366</ele>
        <time>2024-08-13T15:29:30Z</time>
      </trkpt>
      <trkpt lat="44.867" lon="6.09771">
        <ele>1365.6</ele>
        <time>2024-08-13T15:29:31Z</time>
      </trkpt>
      <trkpt lat="44.86702" lon="6.09771">
        <ele>1365.4</ele>
        <time>2024-08-13T15:29:32Z</time>
      </trkpt>
      <trkpt lat="44.86702" lon="6.09771">
        <ele>1365</ele>
        <time>2024-08-13T15:29:33Z</time>
      </trkpt>
      <trkpt lat="44.86702" lon="6.09771">
        <ele>1364.6</ele>
        <time>2024-08-13T15:29:34Z</time>
      </trkpt>
      <trkpt lat="44.86701" lon="6.09769">
        <ele>1364.4</ele>
        <time>2024-08-13T15:29:35Z</time>
      </trkpt>
      <trkpt lat="44.86701" lon="6.09769">
        <ele>1364.2</ele>
        <time>2024-08-13T15:29:36Z</time>
      </trkpt>
      <trkpt lat="44.867" lon="6.09766">
        <ele>1364</ele>
        <time>2024-08-13T15:29:37Z</time>
      </trkpt>
      <trkpt lat="44.867" lon="6.09766">
        <ele>1363.8</ele>
        <time>2024-08-13T15:29:38Z</time>
      </trkpt>
      <trkpt lat="44.86699" lon="6.09763">
        <ele>1363.6</ele>
        <time>2024-08-13T15:29:39Z</time>
      </trkpt>
      <trkpt lat="44.86699" lon="6.09763">
        <ele>1363.2</ele>
        <time>2024-08-13T15:29:40Z</time>
      </trkpt>
      <trkpt lat="44.86697" lon="6.09761">
        <ele>1362.6</ele>
        <time>2024-08-13T15:29:41Z</time>
      </trkpt>
      <trkpt lat="44.86697" lon="6.09761">
        <ele>1362.2</ele>
        <time>2024-08-13T15:29:42Z</time>
      </trkpt>
      <trkpt lat="44.86697" lon="6.09758">
        <ele>1362</ele>
        <time>2024-08-13T15:29:43Z</time>
      </trkpt>
      <trkpt lat="44.86697" lon="6.09758">
        <ele>1361.4</ele>
        <time>2024-08-13T15:29:44Z</time>
      </trkpt>
      <trkpt lat="44.86695" lon="6.09755">
        <ele>1361</ele>
        <time>2024-08-13T15:29:45Z</time>
      </trkpt>
      <trkpt lat="44.86693" lon="6.09754">
        <ele>1361</ele>
        <time>2024-08-13T15:29:46Z</time>
      </trkpt>
      <trkpt lat="44.86691" lon="6.09752">
        <ele>1360.6</ele>
        <time>2024-08-13T15:29:47Z</time>
      </trkpt>
      <trkpt lat="44.8669" lon="6.0975">
        <ele>1360.2</ele>
        <time>2024-08-13T15:29:48Z</time>
      </trkpt>
      <trkpt lat="44.8669" lon="6.0975">
        <ele>1359.6</ele>
        <time>2024-08-13T15:29:49Z</time>
      </trkpt>
      <trkpt lat="44.86687" lon="6.09747">
        <ele>1359.4</ele>
        <time>2024-08-13T15:29:50Z</time>
      </trkpt>
      <trkpt lat="44.86687" lon="6.09747">
        <ele>1359.2</ele>
        <time>2024-08-13T15:29:51Z</time>
      </trkpt>
      <trkpt lat="44.86685" lon="6.09745">
        <ele>1358.8</ele>
        <time>2024-08-13T15:29:52Z</time>
      </trkpt>
      <trkpt lat="44.86685" lon="6.09745">
        <ele>1358.4</ele>
        <time>2024-08-13T15:29:53Z</time>
      </trkpt>
      <trkpt lat="44.86684" lon="6.09742">
        <ele>1358.2</ele>
        <time>2024-08-13T15:29:54Z</time>
      </trkpt>
      <trkpt lat="44.86684" lon="6.09742">
        <ele>1357.8</ele>
        <time>2024-08-13T15:29:55Z</time>
      </trkpt>
      <trkpt lat="44.86683" lon="6.09739">
        <ele>1357.4</ele>
        <time>2024-08-13T15:29:56Z</time>
      </trkpt>
      <trkpt lat="44.86683" lon="6.09739">
        <ele>1357.2</ele>
        <time>2024-08-13T15:29:57Z</time>
      </trkpt>
      <trkpt lat="44.86682" lon="6.09737">
        <ele>1356.6</ele>
        <time>2024-08-13T15:29:58Z</time>
      </trkpt>
      <trkpt lat="44.86682" lon="6.09737">
        <ele>1356</ele>
        <time>2024-08-13T15:29:59Z</time>
      </trkpt>
      <trkpt lat="44.8668" lon="6.09734">
        <ele>1355.8</ele>
        <time>2024-08-13T15:30:00Z</time>
      </trkpt>
      <trkpt lat="44.8668" lon="6.09734">
        <ele>1355.4</ele>
        <time>2024-08-13T15:30:01Z</time>
      </trkpt>
      <trkpt lat="44.86679" lon="6.09732">
        <ele>1355.4</ele>
        <time>2024-08-13T15:30:02Z</time>
      </trkpt>
      <trkpt lat="44.86679" lon="6.09732">
        <ele>1355.2</ele>
        <time>2024-08-13T15:30:03Z</time>
      </trkpt>
      <trkpt lat="44.86677" lon="6.0973">
        <ele>1354.8</ele>
        <time>2024-08-13T15:30:04Z</time>
      </trkpt>
      <trkpt lat="44.86677" lon="6.0973">
        <ele>1354.6</ele>
        <time>2024-08-13T15:30:05Z</time>
      </trkpt>
      <trkpt lat="44.86676" lon="6.09728">
        <ele>1354.2</ele>
        <time>2024-08-13T15:30:06Z</time>
      </trkpt>
      <trkpt lat="44.86676" lon="6.09728">
        <ele>1353.8</ele>
        <time>2024-08-13T15:30:07Z</time>
      </trkpt>
      <trkpt lat="44.86674" lon="6.09726">
        <ele>1353.2</ele>
        <time>2024-08-13T15:30:08Z</time>
      </trkpt>
      <trkpt lat="44.86674" lon="6.09726">
        <ele>1352.8</ele>
        <time>2024-08-13T15:30:09Z</time>
      </trkpt>
      <trkpt lat="44.86672" lon="6.09724">
        <ele>1352.4</ele>
        <time>2024-08-13T15:30:10Z</time>
      </trkpt>
      <trkpt lat="44.86672" lon="6.09724">
        <ele>1352.2</ele>
        <time>2024-08-13T15:30:11Z</time>
      </trkpt>
      <trkpt lat="44.8667" lon="6.09723">
        <ele>1351.8</ele>
        <time>2024-08-13T15:30:12Z</time>
      </trkpt>
      <trkpt lat="44.8667" lon="6.09723">
        <ele>1351.6</ele>
        <time>2024-08-13T15:30:13Z</time>
      </trkpt>
      <trkpt lat="44.86669" lon="6.09721">
        <ele>1351.2</ele>
        <time>2024-08-13T15:30:14Z</time>
      </trkpt>
      <trkpt lat="44.86669" lon="6.09721">
        <ele>1350.4</ele>
        <time>2024-08-13T15:30:15Z</time>
      </trkpt>
      <trkpt lat="44.86667" lon="6.09719">
        <ele>1350.2</ele>
        <time>2024-08-13T15:30:16Z</time>
      </trkpt>
      <trkpt lat="44.86667" lon="6.09719">
        <ele>1350</ele>
        <time>2024-08-13T15:30:17Z</time>
      </trkpt>
      <trkpt lat="44.86665" lon="6.09716">
        <ele>1349.8</ele>
        <time>2024-08-13T15:30:18Z</time>
      </trkpt>
      <trkpt lat="44.86665" lon="6.09716">
        <ele>1349.6</ele>
        <time>2024-08-13T15:30:19Z</time>
      </trkpt>
      <trkpt lat="44.86662" lon="6.09714">
        <ele>1349.2</ele>
        <time>2024-08-13T15:30:20Z</time>
      </trkpt>
      <trkpt lat="44.86662" lon="6.09714">
        <ele>1349.2</ele>
        <time>2024-08-13T15:30:21Z</time>
      </trkpt>
      <trkpt lat="44.8666" lon="6.09712">
        <ele>1348.8</ele>
        <time>2024-08-13T15:30:22Z</time>
      </trkpt>
      <trkpt lat="44.8666" lon="6.09712">
        <ele>1348.2</ele>
        <time>2024-08-13T15:30:23Z</time>
      </trkpt>
      <trkpt lat="44.86659" lon="6.0971">
        <ele>1348</ele>
        <time>2024-08-13T15:30:24Z</time>
      </trkpt>
      <trkpt lat="44.86659" lon="6.0971">
        <ele>1347.8</ele>
        <time>2024-08-13T15:30:25Z</time>
      </trkpt>
      <trkpt lat="44.86657" lon="6.09708">
        <ele>1347.8</ele>
        <time>2024-08-13T15:30:26Z</time>
      </trkpt>
      <trkpt lat="44.86657" lon="6.09708">
        <ele>1347.2</ele>
        <time>2024-08-13T15:30:27Z</time>
      </trkpt>
      <trkpt lat="44.86655" lon="6.09707">
        <ele>1346.8</ele>
        <time>2024-08-13T15:30:28Z</time>
      </trkpt>
      <trkpt lat="44.86655" lon="6.09707">
        <ele>1346.4</ele>
        <time>2024-08-13T15:30:29Z</time>
      </trkpt>
      <trkpt lat="44.86653" lon="6.09705">
        <ele>1346.4</ele>
        <time>2024-08-13T15:30:30Z</time>
      </trkpt>
      <trkpt lat="44.86653" lon="6.09705">
        <ele>1346</ele>
        <time>2024-08-13T15:30:31Z</time>
      </trkpt>
      <trkpt lat="44.86651" lon="6.09703">
        <ele>1346</ele>
        <time>2024-08-13T15:30:32Z</time>
      </trkpt>
      <trkpt lat="44.86651" lon="6.09703">
        <ele>1345.6</ele>
        <time>2024-08-13T15:30:33Z</time>
      </trkpt>
      <trkpt lat="44.86649" lon="6.09701">
        <ele>1345.2</ele>
        <time>2024-08-13T15:30:34Z</time>
      </trkpt>
      <trkpt lat="44.86649" lon="6.09701">
        <ele>1344.8</ele>
        <time>2024-08-13T15:30:35Z</time>
      </trkpt>
      <trkpt lat="44.86647" lon="6.097">
        <ele>1344.4</ele>
        <time>2024-08-13T15:30:36Z</time>
      </trkpt>
      <trkpt lat="44.86647" lon="6.097">
        <ele>1344.4</ele>
        <time>2024-08-13T15:30:37Z</time>
      </trkpt>
      <trkpt lat="44.86645" lon="6.09698">
        <ele>1344.2</ele>
        <time>2024-08-13T15:30:38Z</time>
      </trkpt>
      <trkpt lat="44.86645" lon="6.09698">
        <ele>1343.8</ele>
        <time>2024-08-13T15:30:39Z</time>
      </trkpt>
      <trkpt lat="44.86644" lon="6.09697">
        <ele>1343.8</ele>
        <time>2024-08-13T15:30:40Z</time>
      </trkpt>
      <trkpt lat="44.86644" lon="6.09697">
        <ele>1343.8</ele>
        <time>2024-08-13T15:30:41Z</time>
      </trkpt>
      <trkpt lat="44.86641" lon="6.09695">
        <ele>1343.6</ele>
        <time>2024-08-13T15:30:42Z</time>
      </trkpt>
      <trkpt lat="44.86641" lon="6.09695">
        <ele>1343.4</ele>
        <time>2024-08-13T15:30:43Z</time>
      </trkpt>
      <trkpt lat="44.86641" lon="6.09695">
        <ele>1343</ele>
        <time>2024-08-13T15:30:44Z</time>
      </trkpt>
      <trkpt lat="44.86639" lon="6.09693">
        <ele>1342.8</ele>
        <time>2024-08-13T15:30:45Z</time>
      </trkpt>
      <trkpt lat="44.86639" lon="6.09693">
        <ele>1342.6</ele>
        <time>2024-08-13T15:30:46Z</time>
      </trkpt>
      <trkpt lat="44.86638" lon="6.0969">
        <ele>1342.2</ele>
        <time>2024-08-13T15:30:47Z</time>
      </trkpt>
      <trkpt lat="44.86638" lon="6.0969">
        <ele>1342</ele>
        <time>2024-08-13T15:30:48Z</time>
      </trkpt>
      <trkpt lat="44.86637" lon="6.09687">
        <ele>1341.8</ele>
        <time>2024-08-13T15:30:49Z</time>
      </trkpt>
      <trkpt lat="44.86637" lon="6.09687">
        <ele>1341.6</ele>
        <time>2024-08-13T15:30:50Z</time>
      </trkpt>
      <trkpt lat="44.86635" lon="6.09685">
        <ele>1341.6</ele>
        <time>2024-08-13T15:30:51Z</time>
      </trkpt>
      <trkpt lat="44.86635" lon="6.09685">
        <ele>1341.2</ele>
        <time>2024-08-13T15:30:52Z</time>
      </trkpt>
      <trkpt lat="44.86634" lon="6.09682">
        <ele>1340.8</ele>
        <time>2024-08-13T15:30:53Z</time>
      </trkpt>
      <trkpt lat="44.86634" lon="6.09682">
        <ele>1340.8</ele>
        <time>2024-08-13T15:30:54Z</time>
      </trkpt>
      <trkpt lat="44.86632" lon="6.09679">
        <ele>1340.8</ele>
        <time>2024-08-13T15:30:55Z</time>
      </trkpt>
      <trkpt lat="44.86632" lon="6.09679">
        <ele>1340.8</ele>
        <time>2024-08-13T15:30:56Z</time>
      </trkpt>
      <trkpt lat="44.86631" lon="6.09675">
        <ele>1340.6</ele>
        <time>2024-08-13T15:30:57Z</time>
      </trkpt>
      <trkpt lat="44.86631" lon="6.09675">
        <ele>1340.4</ele>
        <time>2024-08-13T15:30:58Z</time>
      </trkpt>
      <trkpt lat="44.8663" lon="6.09671">
        <ele>1340</ele>
        <time>2024-08-13T15:30:59Z</time>
      </trkpt>
      <trkpt lat="44.8663" lon="6.09671">
        <ele>1339.8</ele>
        <time>2024-08-13T15:31:00Z</time>
      </trkpt>
      <trkpt lat="44.86629" lon="6.09668">
        <ele>1339.4</ele>
        <time>2024-08-13T15:31:01Z</time>
      </trkpt>
      <trkpt lat="44.86629" lon="6.09668">
        <ele>1338.8</ele>
        <time>2024-08-13T15:31:02Z</time>
      </trkpt>
      <trkpt lat="44.86628" lon="6.09665">
        <ele>1339</ele>
        <time>2024-08-13T15:31:03Z</time>
      </trkpt>
      <trkpt lat="44.86628" lon="6.09665">
        <ele>1338.8</ele>
        <time>2024-08-13T15:31:04Z</time>
      </trkpt>
      <trkpt lat="44.86626" lon="6.09663">
        <ele>1338.6</ele>
        <time>2024-08-13T15:31:05Z</time>
      </trkpt>
      <trkpt lat="44.86626" lon="6.09663">
        <ele>1338.4</ele>
        <time>2024-08-13T15:31:06Z</time>
      </trkpt>
      <trkpt lat="44.86625" lon="6.0966">
        <ele>1338.4</ele>
        <time>2024-08-13T15:31:07Z</time>
      </trkpt>
      <trkpt lat="44.86625" lon="6.0966">
        <ele>1338.4</ele>
        <time>2024-08-13T15:31:08Z</time>
      </trkpt>
      <trkpt lat="44.86626" lon="6.09656">
        <ele>1338.2</ele>
        <time>2024-08-13T15:31:09Z</time>
      </trkpt>
      <trkpt lat="44.86627" lon="6.09653">
        <ele>1338.2</ele>
        <time>2024-08-13T15:31:10Z</time>
      </trkpt>
      <trkpt lat="44.86627" lon="6.09653">
        <ele>1338</ele>
        <time>2024-08-13T15:31:11Z</time>
      </trkpt>
      <trkpt lat="44.86627" lon="6.09649">
        <ele>1337.6</ele>
        <time>2024-08-13T15:31:12Z</time>
      </trkpt>
      <trkpt lat="44.86627" lon="6.09649">
        <ele>1337.4</ele>
        <time>2024-08-13T15:31:13Z</time>
      </trkpt>
      <trkpt lat="44.86627" lon="6.09645">
        <ele>1337.2</ele>
        <time>2024-08-13T15:31:14Z</time>
      </trkpt>
      <trkpt lat="44.86627" lon="6.09645">
        <ele>1336.8</ele>
        <time>2024-08-13T15:31:15Z</time>
      </trkpt>
      <trkpt lat="44.86628" lon="6.09641">
        <ele>1336.6</ele>
        <time>2024-08-13T15:31:16Z</time>
      </trkpt>
      <trkpt lat="44.86628" lon="6.09641">
        <ele>1336.2</ele>
        <time>2024-08-13T15:31:17Z</time>
      </trkpt>
      <trkpt lat="44.86629" lon="6.09636">
        <ele>1336.2</ele>
        <time>2024-08-13T15:31:18Z</time>
      </trkpt>
      <trkpt lat="44.86629" lon="6.09636">
        <ele>1335.8</ele>
        <time>2024-08-13T15:31:19Z</time>
      </trkpt>
      <trkpt lat="44.86629" lon="6.09632">
        <ele>1335.6</ele>
        <time>2024-08-13T15:31:20Z</time>
      </trkpt>
      <trkpt lat="44.86629" lon="6.09632">
        <ele>1335.4</ele>
        <time>2024-08-13T15:31:21Z</time>
      </trkpt>
      <trkpt lat="44.8663" lon="6.09628">
        <ele>1335.2</ele>
        <time>2024-08-13T15:31:22Z</time>
      </trkpt>
      <trkpt lat="44.8663" lon="6.09628">
        <ele>1335</ele>
        <time>2024-08-13T15:31:23Z</time>
      </trkpt>
      <trkpt lat="44.86631" lon="6.09623">
        <ele>1335</ele>
        <time>2024-08-13T15:31:24Z</time>
      </trkpt>
      <trkpt lat="44.86631" lon="6.09623">
        <ele>1334.8</ele>
        <time>2024-08-13T15:31:25Z</time>
      </trkpt>
      <trkpt lat="44.86632" lon="6.09619">
        <ele>1334.6</ele>
        <time>2024-08-13T15:31:26Z</time>
      </trkpt>
      <trkpt lat="44.86632" lon="6.09619">
        <ele>1334.6</ele>
        <time>2024-08-13T15:31:27Z</time>
      </trkpt>
      <trkpt lat="44.86633" lon="6.09615">
        <ele>1334.4</ele>
        <time>2024-08-13T15:31:28Z</time>
      </trkpt>
      <trkpt lat="44.86633" lon="6.09615">
        <ele>1334.4</ele>
        <time>2024-08-13T15:31:29Z</time>
      </trkpt>
      <trkpt lat="44.86634" lon="6.09612">
        <ele>1334.2</ele>
        <time>2024-08-13T15:31:30Z</time>
      </trkpt>
      <trkpt lat="44.86634" lon="6.09612">
        <ele>1334.2</ele>
        <time>2024-08-13T15:31:31Z</time>
      </trkpt>
      <trkpt lat="44.86635" lon="6.09608">
        <ele>1334.2</ele>
        <time>2024-08-13T15:31:32Z</time>
      </trkpt>
      <trkpt lat="44.86635" lon="6.09608">
        <ele>1334.4</ele>
        <time>2024-08-13T15:31:33Z</time>
      </trkpt>
      <trkpt lat="44.86636" lon="6.09604">
        <ele>1334.4</ele>
        <time>2024-08-13T15:31:34Z</time>
      </trkpt>
      <trkpt lat="44.86637" lon="6.09602">
        <ele>1334.2</ele>
        <time>2024-08-13T15:31:35Z</time>
      </trkpt>
      <trkpt lat="44.86637" lon="6.09602">
        <ele>1334.2</ele>
        <time>2024-08-13T15:31:36Z</time>
      </trkpt>
      <trkpt lat="44.86637" lon="6.09597">
        <ele>1334.2</ele>
        <time>2024-08-13T15:31:37Z</time>
      </trkpt>
      <trkpt lat="44.86637" lon="6.09597">
        <ele>1334</ele>
        <time>2024-08-13T15:31:38Z</time>
      </trkpt>
      <trkpt lat="44.86639" lon="6.09593">
        <ele>1333.8</ele>
        <time>2024-08-13T15:31:39Z</time>
      </trkpt>
      <trkpt lat="44.86639" lon="6.09593">
        <ele>1333.8</ele>
        <time>2024-08-13T15:31:40Z</time>
      </trkpt>
      <trkpt lat="44.8664" lon="6.09589">
        <ele>1333.6</ele>
        <time>2024-08-13T15:31:41Z</time>
      </trkpt>
      <trkpt lat="44.8664" lon="6.09589">
        <ele>1333.6</ele>
        <time>2024-08-13T15:31:42Z</time>
      </trkpt>
      <trkpt lat="44.86642" lon="6.09586">
        <ele>1333.2</ele>
        <time>2024-08-13T15:31:43Z</time>
      </trkpt>
      <trkpt lat="44.86642" lon="6.09586">
        <ele>1333.2</ele>
        <time>2024-08-13T15:31:44Z</time>
      </trkpt>
      <trkpt lat="44.86644" lon="6.09582">
        <ele>1332.8</ele>
        <time>2024-08-13T15:31:45Z</time>
      </trkpt>
      <trkpt lat="44.86644" lon="6.09582">
        <ele>1332.6</ele>
        <time>2024-08-13T15:31:46Z</time>
      </trkpt>
      <trkpt lat="44.86646" lon="6.09579">
        <ele>1332.6</ele>
        <time>2024-08-13T15:31:47Z</time>
      </trkpt>
      <trkpt lat="44.86646" lon="6.09579">
        <ele>1332.6</ele>
        <time>2024-08-13T15:31:48Z</time>
      </trkpt>
      <trkpt lat="44.86647" lon="6.09575">
        <ele>1332.4</ele>
        <time>2024-08-13T15:31:49Z</time>
      </trkpt>
      <trkpt lat="44.86647" lon="6.09575">
        <ele>1332</ele>
        <time>2024-08-13T15:31:50Z</time>
      </trkpt>
      <trkpt lat="44.86649" lon="6.09572">
        <ele>1331.8</ele>
        <time>2024-08-13T15:31:51Z</time>
      </trkpt>
      <trkpt lat="44.86649" lon="6.09572">
        <ele>1331.8</ele>
        <time>2024-08-13T15:31:52Z</time>
      </trkpt>
      <trkpt lat="44.86651" lon="6.09569">
        <ele>1331.8</ele>
        <time>2024-08-13T15:31:53Z</time>
      </trkpt>
      <trkpt lat="44.86651" lon="6.09569">
        <ele>1331.6</ele>
        <time>2024-08-13T15:31:54Z</time>
      </trkpt>
      <trkpt lat="44.86653" lon="6.09567">
        <ele>1331.2</ele>
        <time>2024-08-13T15:31:55Z</time>
      </trkpt>
      <trkpt lat="44.86653" lon="6.09567">
        <ele>1330.8</ele>
        <time>2024-08-13T15:31:56Z</time>
      </trkpt>
      <trkpt lat="44.86655" lon="6.09564">
        <ele>1330.8</ele>
        <time>2024-08-13T15:31:57Z</time>
      </trkpt>
      <trkpt lat="44.86655" lon="6.09564">
        <ele>1330.8</ele>
        <time>2024-08-13T15:31:58Z</time>
      </trkpt>
      <trkpt lat="44.86657" lon="6.09561">
        <ele>1330.4</ele>
        <time>2024-08-13T15:31:59Z</time>
      </trkpt>
      <trkpt lat="44.86657" lon="6.09561">
        <ele>1330</ele>
        <time>2024-08-13T15:32:00Z</time>
      </trkpt>
      <trkpt lat="44.86659" lon="6.0956">
        <ele>1329.8</ele>
        <time>2024-08-13T15:32:01Z</time>
      </trkpt>
      <trkpt lat="44.86659" lon="6.0956">
        <ele>1329.4</ele>
        <time>2024-08-13T15:32:02Z</time>
      </trkpt>
      <trkpt lat="44.86661" lon="6.09558">
        <ele>1329.4</ele>
        <time>2024-08-13T15:32:03Z</time>
      </trkpt>
      <trkpt lat="44.86661" lon="6.09558">
        <ele>1328.8</ele>
        <time>2024-08-13T15:32:04Z</time>
      </trkpt>
      <trkpt lat="44.86664" lon="6.09556">
        <ele>1328.4</ele>
        <time>2024-08-13T15:32:05Z</time>
      </trkpt>
      <trkpt lat="44.86664" lon="6.09556">
        <ele>1328.2</ele>
        <time>2024-08-13T15:32:06Z</time>
      </trkpt>
      <trkpt lat="44.86666" lon="6.09554">
        <ele>1327.8</ele>
        <time>2024-08-13T15:32:07Z</time>
      </trkpt>
      <trkpt lat="44.86666" lon="6.09554">
        <ele>1327.8</ele>
        <time>2024-08-13T15:32:08Z</time>
      </trkpt>
      <trkpt lat="44.86668" lon="6.09553">
        <ele>1327.6</ele>
        <time>2024-08-13T15:32:09Z</time>
      </trkpt>
      <trkpt lat="44.86668" lon="6.09553">
        <ele>1327.6</ele>
        <time>2024-08-13T15:32:10Z</time>
      </trkpt>
      <trkpt lat="44.8667" lon="6.09551">
        <ele>1327.2</ele>
        <time>2024-08-13T15:32:11Z</time>
      </trkpt>
      <trkpt lat="44.8667" lon="6.09551">
        <ele>1326.6</ele>
        <time>2024-08-13T15:32:12Z</time>
      </trkpt>
      <trkpt lat="44.86672" lon="6.09549">
        <ele>1326.2</ele>
        <time>2024-08-13T15:32:13Z</time>
      </trkpt>
      <trkpt lat="44.86672" lon="6.09549">
        <ele>1325.8</ele>
        <time>2024-08-13T15:32:14Z</time>
      </trkpt>
      <trkpt lat="44.86673" lon="6.09545">
        <ele>1325.6</ele>
        <time>2024-08-13T15:32:15Z</time>
      </trkpt>
      <trkpt lat="44.86673" lon="6.09545">
        <ele>1325.4</ele>
        <time>2024-08-13T15:32:16Z</time>
      </trkpt>
      <trkpt lat="44.86675" lon="6.09542">
        <ele>1325</ele>
        <time>2024-08-13T15:32:17Z</time>
      </trkpt>
      <trkpt lat="44.86676" lon="6.0954">
        <ele>1324.4</ele>
        <time>2024-08-13T15:32:18Z</time>
      </trkpt>
      <trkpt lat="44.86676" lon="6.0954">
        <ele>1324</ele>
        <time>2024-08-13T15:32:19Z</time>
      </trkpt>
      <trkpt lat="44.86678" lon="6.09538">
        <ele>1323.8</ele>
        <time>2024-08-13T15:32:20Z</time>
      </trkpt>
      <trkpt lat="44.86678" lon="6.09538">
        <ele>1323.6</ele>
        <time>2024-08-13T15:32:21Z</time>
      </trkpt>
      <trkpt lat="44.86681" lon="6.09536">
        <ele>1323.4</ele>
        <time>2024-08-13T15:32:22Z</time>
      </trkpt>
      <trkpt lat="44.86681" lon="6.09536">
        <ele>1323.2</ele>
        <time>2024-08-13T15:32:23Z</time>
      </trkpt>
      <trkpt lat="44.86683" lon="6.09533">
        <ele>1323</ele>
        <time>2024-08-13T15:32:24Z</time>
      </trkpt>
      <trkpt lat="44.86683" lon="6.09533">
        <ele>1322.8</ele>
        <time>2024-08-13T15:32:25Z</time>
      </trkpt>
      <trkpt lat="44.86685" lon="6.0953">
        <ele>1322.6</ele>
        <time>2024-08-13T15:32:26Z</time>
      </trkpt>
      <trkpt lat="44.86685" lon="6.0953">
        <ele>1322.4</ele>
        <time>2024-08-13T15:32:27Z</time>
      </trkpt>
      <trkpt lat="44.86686" lon="6.09528">
        <ele>1322.2</ele>
        <time>2024-08-13T15:32:28Z</time>
      </trkpt>
      <trkpt lat="44.86686" lon="6.09528">
        <ele>1322</ele>
        <time>2024-08-13T15:32:29Z</time>
      </trkpt>
      <trkpt lat="44.86688" lon="6.09527">
        <ele>1321.4</ele>
        <time>2024-08-13T15:32:30Z</time>
      </trkpt>
      <trkpt lat="44.86688" lon="6.09527">
        <ele>1321</ele>
        <time>2024-08-13T15:32:31Z</time>
      </trkpt>
      <trkpt lat="44.86691" lon="6.09525">
        <ele>1320.6</ele>
        <time>2024-08-13T15:32:32Z</time>
      </trkpt>
      <trkpt lat="44.86691" lon="6.09525">
        <ele>1320.4</ele>
        <time>2024-08-13T15:32:33Z</time>
      </trkpt>
      <trkpt lat="44.86693" lon="6.09522">
        <ele>1320.2</ele>
        <time>2024-08-13T15:32:34Z</time>
      </trkpt>
      <trkpt lat="44.86693" lon="6.09522">
        <ele>1319.8</ele>
        <time>2024-08-13T15:32:35Z</time>
      </trkpt>
      <trkpt lat="44.86694" lon="6.09519">
        <ele>1319.6</ele>
        <time>2024-08-13T15:32:36Z</time>
      </trkpt>
      <trkpt lat="44.86694" lon="6.09519">
        <ele>1319.2</ele>
        <time>2024-08-13T15:32:37Z</time>
      </trkpt>
      <trkpt lat="44.86694" lon="6.09519">
        <ele>1319.2</ele>
        <time>2024-08-13T15:32:38Z</time>
      </trkpt>
      <trkpt lat="44.86696" lon="6.09515">
        <ele>1319</ele>
        <time>2024-08-13T15:32:39Z</time>
      </trkpt>
      <trkpt lat="44.86696" lon="6.09515">
        <ele>1319</ele>
        <time>2024-08-13T15:32:40Z</time>
      </trkpt>
      <trkpt lat="44.86698" lon="6.09513">
        <ele>1318.8</ele>
        <time>2024-08-13T15:32:41Z</time>
      </trkpt>
      <trkpt lat="44.86698" lon="6.09513">
        <ele>1318.4</ele>
        <time>2024-08-13T15:32:42Z</time>
      </trkpt>
      <trkpt lat="44.867" lon="6.0951">
        <ele>1318.4</ele>
        <time>2024-08-13T15:32:43Z</time>
      </trkpt>
      <trkpt lat="44.867" lon="6.0951">
        <ele>1318</ele>
        <time>2024-08-13T15:32:44Z</time>
      </trkpt>
      <trkpt lat="44.86701" lon="6.09507">
        <ele>1317.6</ele>
        <time>2024-08-13T15:32:45Z</time>
      </trkpt>
      <trkpt lat="44.86702" lon="6.09505">
        <ele>1317.2</ele>
        <time>2024-08-13T15:32:46Z</time>
      </trkpt>
      <trkpt lat="44.86702" lon="6.09505">
        <ele>1317</ele>
        <time>2024-08-13T15:32:47Z</time>
      </trkpt>
      <trkpt lat="44.86705" lon="6.09502">
        <ele>1316.6</ele>
        <time>2024-08-13T15:32:48Z</time>
      </trkpt>
      <trkpt lat="44.86705" lon="6.09502">
        <ele>1316.6</ele>
        <time>2024-08-13T15:32:49Z</time>
      </trkpt>
      <trkpt lat="44.86706" lon="6.095">
        <ele>1316</ele>
        <time>2024-08-13T15:32:50Z</time>
      </trkpt>
      <trkpt lat="44.86706" lon="6.095">
        <ele>1315.8</ele>
        <time>2024-08-13T15:32:51Z</time>
      </trkpt>
      <trkpt lat="44.86707" lon="6.09496">
        <ele>1315.8</ele>
        <time>2024-08-13T15:32:52Z</time>
      </trkpt>
      <trkpt lat="44.86708" lon="6.09494">
        <ele>1315.6</ele>
        <time>2024-08-13T15:32:53Z</time>
      </trkpt>
      <trkpt lat="44.86708" lon="6.09494">
        <ele>1315.2</ele>
        <time>2024-08-13T15:32:54Z</time>
      </trkpt>
      <trkpt lat="44.86709" lon="6.09491">
        <ele>1315</ele>
        <time>2024-08-13T15:32:55Z</time>
      </trkpt>
      <trkpt lat="44.8671" lon="6.0949">
        <ele>1314.8</ele>
        <time>2024-08-13T15:32:56Z</time>
      </trkpt>
      <trkpt lat="44.8671" lon="6.0949">
        <ele>1314.6</ele>
        <time>2024-08-13T15:32:57Z</time>
      </trkpt>
      <trkpt lat="44.8671" lon="6.0949">
        <ele>1314.6</ele>
        <time>2024-08-13T15:32:58Z</time>
      </trkpt>
      <trkpt lat="44.86713" lon="6.09488">
        <ele>1314.4</ele>
        <time>2024-08-13T15:32:59Z</time>
      </trkpt>
      <trkpt lat="44.86713" lon="6.09488">
        <ele>1314.4</ele>
        <time>2024-08-13T15:33:00Z</time>
      </trkpt>
      <trkpt lat="44.86713" lon="6.09485">
        <ele>1314</ele>
        <time>2024-08-13T15:33:01Z</time>
      </trkpt>
      <trkpt lat="44.86713" lon="6.09485">
        <ele>1313.4</ele>
        <time>2024-08-13T15:33:02Z</time>
      </trkpt>
      <trkpt lat="44.86715" lon="6.09482">
        <ele>1313.4</ele>
        <time>2024-08-13T15:33:03Z</time>
      </trkpt>
      <trkpt lat="44.86715" lon="6.09482">
        <ele>1313.4</ele>
        <time>2024-08-13T15:33:04Z</time>
      </trkpt>
      <trkpt lat="44.86717" lon="6.0948">
        <ele>1313.2</ele>
        <time>2024-08-13T15:33:05Z</time>
      </trkpt>
      <trkpt lat="44.86717" lon="6.0948">
        <ele>1313</ele>
        <time>2024-08-13T15:33:06Z</time>
      </trkpt>
      <trkpt lat="44.86718" lon="6.09477">
        <ele>1312.6</ele>
        <time>2024-08-13T15:33:07Z</time>
      </trkpt>
      <trkpt lat="44.86718" lon="6.09477">
        <ele>1312.4</ele>
        <time>2024-08-13T15:33:08Z</time>
      </trkpt>
      <trkpt lat="44.8672" lon="6.09475">
        <ele>1312</ele>
        <time>2024-08-13T15:33:09Z</time>
      </trkpt>
      <trkpt lat="44.8672" lon="6.09475">
        <ele>1311.8</ele>
        <time>2024-08-13T15:33:10Z</time>
      </trkpt>
      <trkpt lat="44.86722" lon="6.09473">
        <ele>1311.8</ele>
        <time>2024-08-13T15:33:11Z</time>
      </trkpt>
      <trkpt lat="44.86722" lon="6.09473">
        <ele>1311.6</ele>
        <time>2024-08-13T15:33:12Z</time>
      </trkpt>
      <trkpt lat="44.86722" lon="6.09473">
        <ele>1311.4</ele>
        <time>2024-08-13T15:33:13Z</time>
      </trkpt>
      <trkpt lat="44.86722" lon="6.09473">
        <ele>1311</ele>
        <time>2024-08-13T15:33:14Z</time>
      </trkpt>
      <trkpt lat="44.86724" lon="6.0947">
        <ele>1310.6</ele>
        <time>2024-08-13T15:33:15Z</time>
      </trkpt>
      <trkpt lat="44.86724" lon="6.0947">
        <ele>1310.4</ele>
        <time>2024-08-13T15:33:16Z</time>
      </trkpt>
      <trkpt lat="44.86726" lon="6.09469">
        <ele>1309.6</ele>
        <time>2024-08-13T15:33:17Z</time>
      </trkpt>
      <trkpt lat="44.86726" lon="6.09469">
        <ele>1309.6</ele>
        <time>2024-08-13T15:33:18Z</time>
      </trkpt>
      <trkpt lat="44.86728" lon="6.09467">
        <ele>1309.4</ele>
        <time>2024-08-13T15:33:19Z</time>
      </trkpt>
      <trkpt lat="44.86728" lon="6.09467">
        <ele>1309.2</ele>
        <time>2024-08-13T15:33:20Z</time>
      </trkpt>
      <trkpt lat="44.8673" lon="6.09465">
        <ele>1309</ele>
        <time>2024-08-13T15:33:21Z</time>
      </trkpt>
      <trkpt lat="44.8673" lon="6.09465">
        <ele>1308.6</ele>
        <time>2024-08-13T15:33:22Z</time>
      </trkpt>
      <trkpt lat="44.86732" lon="6.09463">
        <ele>1308.4</ele>
        <time>2024-08-13T15:33:23Z</time>
      </trkpt>
      <trkpt lat="44.86732" lon="6.09463">
        <ele>1308.2</ele>
        <time>2024-08-13T15:33:24Z</time>
      </trkpt>
      <trkpt lat="44.86734" lon="6.09461">
        <ele>1307.8</ele>
        <time>2024-08-13T15:33:25Z</time>
      </trkpt>
      <trkpt lat="44.86734" lon="6.09461">
        <ele>1307.6</ele>
        <time>2024-08-13T15:33:26Z</time>
      </trkpt>
      <trkpt lat="44.86738" lon="6.0946">
        <ele>1307.4</ele>
        <time>2024-08-13T15:33:27Z</time>
      </trkpt>
      <trkpt lat="44.86738" lon="6.0946">
        <ele>1307</ele>
        <time>2024-08-13T15:33:28Z</time>
      </trkpt>
      <trkpt lat="44.86738" lon="6.0946">
        <ele>1306.8</ele>
        <time>2024-08-13T15:33:29Z</time>
      </trkpt>
      <trkpt lat="44.8674" lon="6.0946">
        <ele>1306.4</ele>
        <time>2024-08-13T15:33:30Z</time>
      </trkpt>
      <trkpt lat="44.8674" lon="6.0946">
        <ele>1306</ele>
        <time>2024-08-13T15:33:31Z</time>
      </trkpt>
      <trkpt lat="44.86742" lon="6.0946">
        <ele>1305.8</ele>
        <time>2024-08-13T15:33:32Z</time>
      </trkpt>
      <trkpt lat="44.86742" lon="6.0946">
        <ele>1305.8</ele>
        <time>2024-08-13T15:33:33Z</time>
      </trkpt>
      <trkpt lat="44.86744" lon="6.09459">
        <ele>1305.6</ele>
        <time>2024-08-13T15:33:34Z</time>
      </trkpt>
      <trkpt lat="44.86744" lon="6.09459">
        <ele>1305.4</ele>
        <time>2024-08-13T15:33:35Z</time>
      </trkpt>
      <trkpt lat="44.86747" lon="6.09458">
        <ele>1305</ele>
        <time>2024-08-13T15:33:36Z</time>
      </trkpt>
      <trkpt lat="44.86747" lon="6.09458">
        <ele>1304.6</ele>
        <time>2024-08-13T15:33:37Z</time>
      </trkpt>
      <trkpt lat="44.8675" lon="6.09457">
        <ele>1304.6</ele>
        <time>2024-08-13T15:33:38Z</time>
      </trkpt>
      <trkpt lat="44.8675" lon="6.09457">
        <ele>1304.4</ele>
        <time>2024-08-13T15:33:39Z</time>
      </trkpt>
      <trkpt lat="44.86752" lon="6.09457">
        <ele>1304.4</ele>
        <time>2024-08-13T15:33:40Z</time>
      </trkpt>
      <trkpt lat="44.86752" lon="6.09457">
        <ele>1304.4</ele>
        <time>2024-08-13T15:33:41Z</time>
      </trkpt>
      <trkpt lat="44.86755" lon="6.09457">
        <ele>1304.2</ele>
        <time>2024-08-13T15:33:42Z</time>
      </trkpt>
      <trkpt lat="44.86755" lon="6.09457">
        <ele>1304.2</ele>
        <time>2024-08-13T15:33:43Z</time>
      </trkpt>
      <trkpt lat="44.86757" lon="6.09455">
        <ele>1304.2</ele>
        <time>2024-08-13T15:33:44Z</time>
      </trkpt>
      <trkpt lat="44.86757" lon="6.09455">
        <ele>1303.8</ele>
        <time>2024-08-13T15:33:45Z</time>
      </trkpt>
      <trkpt lat="44.86757" lon="6.09455">
        <ele>1303.8</ele>
        <time>2024-08-13T15:33:46Z</time>
      </trkpt>
      <trkpt lat="44.86759" lon="6.09454">
        <ele>1303.8</ele>
        <time>2024-08-13T15:33:47Z</time>
      </trkpt>
      <trkpt lat="44.86759" lon="6.09454">
        <ele>1303.8</ele>
        <time>2024-08-13T15:33:48Z</time>
      </trkpt>
      <trkpt lat="44.8676" lon="6.09452">
        <ele>1303.6</ele>
        <time>2024-08-13T15:33:49Z</time>
      </trkpt>
      <trkpt lat="44.8676" lon="6.09452">
        <ele>1303.2</ele>
        <time>2024-08-13T15:33:50Z</time>
      </trkpt>
      <trkpt lat="44.86762" lon="6.0945">
        <ele>1303.2</ele>
        <time>2024-08-13T15:33:51Z</time>
      </trkpt>
      <trkpt lat="44.86762" lon="6.0945">
        <ele>1303</ele>
        <time>2024-08-13T15:33:52Z</time>
      </trkpt>
      <trkpt lat="44.86764" lon="6.09449">
        <ele>1302.8</ele>
        <time>2024-08-13T15:33:53Z</time>
      </trkpt>
      <trkpt lat="44.86764" lon="6.09449">
        <ele>1302.8</ele>
        <time>2024-08-13T15:33:54Z</time>
      </trkpt>
      <trkpt lat="44.86765" lon="6.09446">
        <ele>1302.6</ele>
        <time>2024-08-13T15:33:55Z</time>
      </trkpt>
      <trkpt lat="44.86765" lon="6.09446">
        <ele>1302.2</ele>
        <time>2024-08-13T15:33:56Z</time>
      </trkpt>
      <trkpt lat="44.86767" lon="6.09444">
        <ele>1301.6</ele>
        <time>2024-08-13T15:33:57Z</time>
      </trkpt>
      <trkpt lat="44.86767" lon="6.09444">
        <ele>1301.6</ele>
        <time>2024-08-13T15:33:58Z</time>
      </trkpt>
      <trkpt lat="44.86768" lon="6.09442">
        <ele>1301.4</ele>
        <time>2024-08-13T15:33:59Z</time>
      </trkpt>
      <trkpt lat="44.86768" lon="6.09442">
        <ele>1301.2</ele>
        <time>2024-08-13T15:34:00Z</time>
      </trkpt>
      <trkpt lat="44.8677" lon="6.09441">
        <ele>1301</ele>
        <time>2024-08-13T15:34:01Z</time>
      </trkpt>
      <trkpt lat="44.8677" lon="6.09441">
        <ele>1300.8</ele>
        <time>2024-08-13T15:34:02Z</time>
      </trkpt>
      <trkpt lat="44.86773" lon="6.09439">
        <ele>1300.6</ele>
        <time>2024-08-13T15:34:03Z</time>
      </trkpt>
      <trkpt lat="44.86773" lon="6.09439">
        <ele>1300.2</ele>
        <time>2024-08-13T15:34:04Z</time>
      </trkpt>
      <trkpt lat="44.86775" lon="6.09437">
        <ele>1300.2</ele>
        <time>2024-08-13T15:34:05Z</time>
      </trkpt>
      <trkpt lat="44.86775" lon="6.09437">
        <ele>1300</ele>
        <time>2024-08-13T15:34:06Z</time>
      </trkpt>
      <trkpt lat="44.86776" lon="6.09434">
        <ele>1299.6</ele>
        <time>2024-08-13T15:34:07Z</time>
      </trkpt>
      <trkpt lat="44.86776" lon="6.09434">
        <ele>1299.4</ele>
        <time>2024-08-13T15:34:08Z</time>
      </trkpt>
      <trkpt lat="44.86778" lon="6.09432">
        <ele>1299.2</ele>
        <time>2024-08-13T15:34:09Z</time>
      </trkpt>
      <trkpt lat="44.86778" lon="6.09432">
        <ele>1299</ele>
        <time>2024-08-13T15:34:10Z</time>
      </trkpt>
      <trkpt lat="44.8678" lon="6.09431">
        <ele>1298.8</ele>
        <time>2024-08-13T15:34:11Z</time>
      </trkpt>
      <trkpt lat="44.8678" lon="6.09431">
        <ele>1298.4</ele>
        <time>2024-08-13T15:34:12Z</time>
      </trkpt>
      <trkpt lat="44.86782" lon="6.09429">
        <ele>1298.4</ele>
        <time>2024-08-13T15:34:13Z</time>
      </trkpt>
      <trkpt lat="44.86782" lon="6.09429">
        <ele>1298.2</ele>
        <time>2024-08-13T15:34:14Z</time>
      </trkpt>
      <trkpt lat="44.86784" lon="6.09428">
        <ele>1298</ele>
        <time>2024-08-13T15:34:15Z</time>
      </trkpt>
      <trkpt lat="44.86784" lon="6.09428">
        <ele>1297.8</ele>
        <time>2024-08-13T15:34:16Z</time>
      </trkpt>
      <trkpt lat="44.86786" lon="6.09426">
        <ele>1297.8</ele>
        <time>2024-08-13T15:34:17Z</time>
      </trkpt>
      <trkpt lat="44.86786" lon="6.09426">
        <ele>1297.4</ele>
        <time>2024-08-13T15:34:18Z</time>
      </trkpt>
      <trkpt lat="44.86789" lon="6.09423">
        <ele>1296.8</ele>
        <time>2024-08-13T15:34:19Z</time>
      </trkpt>
      <trkpt lat="44.86789" lon="6.09423">
        <ele>1296.6</ele>
        <time>2024-08-13T15:34:20Z</time>
      </trkpt>
      <trkpt lat="44.86791" lon="6.09421">
        <ele>1296.4</ele>
        <time>2024-08-13T15:34:21Z</time>
      </trkpt>
      <trkpt lat="44.86791" lon="6.09421">
        <ele>1296.2</ele>
        <time>2024-08-13T15:34:22Z</time>
      </trkpt>
      <trkpt lat="44.86792" lon="6.09418">
        <ele>1296</ele>
        <time>2024-08-13T15:34:23Z</time>
      </trkpt>
      <trkpt lat="44.86792" lon="6.09418">
        <ele>1295.8</ele>
        <time>2024-08-13T15:34:24Z</time>
      </trkpt>
      <trkpt lat="44.86794" lon="6.09415">
        <ele>1295.6</ele>
        <time>2024-08-13T15:34:25Z</time>
      </trkpt>
      <trkpt lat="44.86794" lon="6.09415">
        <ele>1295.2</ele>
        <time>2024-08-13T15:34:26Z</time>
      </trkpt>
      <trkpt lat="44.86796" lon="6.09412">
        <ele>1295</ele>
        <time>2024-08-13T15:34:27Z</time>
      </trkpt>
      <trkpt lat="44.86796" lon="6.09412">
        <ele>1294.6</ele>
        <time>2024-08-13T15:34:28Z</time>
      </trkpt>
      <trkpt lat="44.86797" lon="6.09409">
        <ele>1294.4</ele>
        <time>2024-08-13T15:34:29Z</time>
      </trkpt>
      <trkpt lat="44.86797" lon="6.09409">
        <ele>1294</ele>
        <time>2024-08-13T15:34:30Z</time>
      </trkpt>
      <trkpt lat="44.86798" lon="6.09406">
        <ele>1294</ele>
        <time>2024-08-13T15:34:31Z</time>
      </trkpt>
      <trkpt lat="44.86798" lon="6.09406">
        <ele>1293.6</ele>
        <time>2024-08-13T15:34:32Z</time>
      </trkpt>
      <trkpt lat="44.868" lon="6.09403">
        <ele>1293.4</ele>
        <time>2024-08-13T15:34:33Z</time>
      </trkpt>
      <trkpt lat="44.868" lon="6.09403">
        <ele>1293</ele>
        <time>2024-08-13T15:34:34Z</time>
      </trkpt>
      <trkpt lat="44.86801" lon="6.094">
        <ele>1292.6</ele>
        <time>2024-08-13T15:34:35Z</time>
      </trkpt>
      <trkpt lat="44.86801" lon="6.094">
        <ele>1292.4</ele>
        <time>2024-08-13T15:34:36Z</time>
      </trkpt>
      <trkpt lat="44.86802" lon="6.09398">
        <ele>1292.2</ele>
        <time>2024-08-13T15:34:37Z</time>
      </trkpt>
      <trkpt lat="44.86802" lon="6.09398">
        <ele>1292.2</ele>
        <time>2024-08-13T15:34:38Z</time>
      </trkpt>
      <trkpt lat="44.86802" lon="6.09395">
        <ele>1291.8</ele>
        <time>2024-08-13T15:34:39Z</time>
      </trkpt>
      <trkpt lat="44.86802" lon="6.09395">
        <ele>1291.6</ele>
        <time>2024-08-13T15:34:40Z</time>
      </trkpt>
      <trkpt lat="44.86804" lon="6.09393">
        <ele>1291.6</ele>
        <time>2024-08-13T15:34:41Z</time>
      </trkpt>
      <trkpt lat="44.86804" lon="6.09393">
        <ele>1291.2</ele>
        <time>2024-08-13T15:34:42Z</time>
      </trkpt>
      <trkpt lat="44.86805" lon="6.0939">
        <ele>1290.8</ele>
        <time>2024-08-13T15:34:43Z</time>
      </trkpt>
      <trkpt lat="44.86805" lon="6.0939">
        <ele>1290.6</ele>
        <time>2024-08-13T15:34:44Z</time>
      </trkpt>
      <trkpt lat="44.86805" lon="6.0939">
        <ele>1290.2</ele>
        <time>2024-08-13T15:34:45Z</time>
      </trkpt>
      <trkpt lat="44.86806" lon="6.09388">
        <ele>1289.8</ele>
        <time>2024-08-13T15:34:46Z</time>
      </trkpt>
      <trkpt lat="44.86806" lon="6.09388">
        <ele>1289.8</ele>
        <time>2024-08-13T15:34:47Z</time>
      </trkpt>
      <trkpt lat="44.86808" lon="6.09385">
        <ele>1289.4</ele>
        <time>2024-08-13T15:34:48Z</time>
      </trkpt>
      <trkpt lat="44.86808" lon="6.09385">
        <ele>1289</ele>
        <time>2024-08-13T15:34:49Z</time>
      </trkpt>
      <trkpt lat="44.86809" lon="6.09383">
        <ele>1288.8</ele>
        <time>2024-08-13T15:34:50Z</time>
      </trkpt>
      <trkpt lat="44.86809" lon="6.09383">
        <ele>1288.6</ele>
        <time>2024-08-13T15:34:51Z</time>
      </trkpt>
      <trkpt lat="44.86811" lon="6.09379">
        <ele>1288.2</ele>
        <time>2024-08-13T15:34:52Z</time>
      </trkpt>
      <trkpt lat="44.86811" lon="6.09379">
        <ele>1288.2</ele>
        <time>2024-08-13T15:34:53Z</time>
      </trkpt>
      <trkpt lat="44.86813" lon="6.09376">
        <ele>1288</ele>
        <time>2024-08-13T15:34:54Z</time>
      </trkpt>
      <trkpt lat="44.86813" lon="6.09376">
        <ele>1287.6</ele>
        <time>2024-08-13T15:34:55Z</time>
      </trkpt>
      <trkpt lat="44.86814" lon="6.09374">
        <ele>1287.4</ele>
        <time>2024-08-13T15:34:56Z</time>
      </trkpt>
      <trkpt lat="44.86814" lon="6.09374">
        <ele>1287.4</ele>
        <time>2024-08-13T15:34:57Z</time>
      </trkpt>
      <trkpt lat="44.86815" lon="6.09371">
        <ele>1287.2</ele>
        <time>2024-08-13T15:34:58Z</time>
      </trkpt>
      <trkpt lat="44.86815" lon="6.09371">
        <ele>1287</ele>
        <time>2024-08-13T15:34:59Z</time>
      </trkpt>
      <trkpt lat="44.86814" lon="6.09367">
        <ele>1287</ele>
        <time>2024-08-13T15:35:00Z</time>
      </trkpt>
      <trkpt lat="44.86814" lon="6.09367">
        <ele>1286.6</ele>
        <time>2024-08-13T15:35:01Z</time>
      </trkpt>
      <trkpt lat="44.86815" lon="6.09364">
        <ele>1286.2</ele>
        <time>2024-08-13T15:35:02Z</time>
      </trkpt>
      <trkpt lat="44.86815" lon="6.09364">
        <ele>1286.2</ele>
        <time>2024-08-13T15:35:03Z</time>
      </trkpt>
      <trkpt lat="44.86816" lon="6.0936">
        <ele>1286</ele>
        <time>2024-08-13T15:35:04Z</time>
      </trkpt>
      <trkpt lat="44.86816" lon="6.0936">
        <ele>1285.8</ele>
        <time>2024-08-13T15:35:05Z</time>
      </trkpt>
      <trkpt lat="44.86816" lon="6.09356">
        <ele>1285.6</ele>
        <time>2024-08-13T15:35:06Z</time>
      </trkpt>
      <trkpt lat="44.86816" lon="6.09356">
        <ele>1285.2</ele>
        <time>2024-08-13T15:35:07Z</time>
      </trkpt>
      <trkpt lat="44.86818" lon="6.09353">
        <ele>1285</ele>
        <time>2024-08-13T15:35:08Z</time>
      </trkpt>
      <trkpt lat="44.86819" lon="6.09351">
        <ele>1284.6</ele>
        <time>2024-08-13T15:35:09Z</time>
      </trkpt>
      <trkpt lat="44.86819" lon="6.09351">
        <ele>1284.4</ele>
        <time>2024-08-13T15:35:10Z</time>
      </trkpt>
      <trkpt lat="44.8682" lon="6.09347">
        <ele>1284.4</ele>
        <time>2024-08-13T15:35:11Z</time>
      </trkpt>
      <trkpt lat="44.8682" lon="6.09347">
        <ele>1284</ele>
        <time>2024-08-13T15:35:12Z</time>
      </trkpt>
      <trkpt lat="44.86821" lon="6.09343">
        <ele>1283.6</ele>
        <time>2024-08-13T15:35:13Z</time>
      </trkpt>
      <trkpt lat="44.86821" lon="6.09343">
        <ele>1283.6</ele>
        <time>2024-08-13T15:35:14Z</time>
      </trkpt>
      <trkpt lat="44.86823" lon="6.09339">
        <ele>1283.4</ele>
        <time>2024-08-13T15:35:15Z</time>
      </trkpt>
      <trkpt lat="44.86823" lon="6.09339">
        <ele>1283.2</ele>
        <time>2024-08-13T15:35:16Z</time>
      </trkpt>
      <trkpt lat="44.86824" lon="6.09336">
        <ele>1282.8</ele>
        <time>2024-08-13T15:35:17Z</time>
      </trkpt>
      <trkpt lat="44.86824" lon="6.09336">
        <ele>1282.6</ele>
        <time>2024-08-13T15:35:18Z</time>
      </trkpt>
      <trkpt lat="44.86825" lon="6.09331">
        <ele>1282.4</ele>
        <time>2024-08-13T15:35:19Z</time>
      </trkpt>
      <trkpt lat="44.86825" lon="6.09331">
        <ele>1282.4</ele>
        <time>2024-08-13T15:35:20Z</time>
      </trkpt>
      <trkpt lat="44.86826" lon="6.09328">
        <ele>1282</ele>
        <time>2024-08-13T15:35:21Z</time>
      </trkpt>
      <trkpt lat="44.86826" lon="6.09328">
        <ele>1282</ele>
        <time>2024-08-13T15:35:22Z</time>
      </trkpt>
      <trkpt lat="44.86827" lon="6.09324">
        <ele>1281.8</ele>
        <time>2024-08-13T15:35:23Z</time>
      </trkpt>
      <trkpt lat="44.86827" lon="6.09324">
        <ele>1281.8</ele>
        <time>2024-08-13T15:35:24Z</time>
      </trkpt>
      <trkpt lat="44.86828" lon="6.0932">
        <ele>1281.6</ele>
        <time>2024-08-13T15:35:25Z</time>
      </trkpt>
      <trkpt lat="44.86829" lon="6.09318">
        <ele>1281.6</ele>
        <time>2024-08-13T15:35:26Z</time>
      </trkpt>
      <trkpt lat="44.86829" lon="6.09318">
        <ele>1281.4</ele>
        <time>2024-08-13T15:35:27Z</time>
      </trkpt>
      <trkpt lat="44.8683" lon="6.09314">
        <ele>1281</ele>
        <time>2024-08-13T15:35:28Z</time>
      </trkpt>
      <trkpt lat="44.86831" lon="6.09312">
        <ele>1281</ele>
        <time>2024-08-13T15:35:29Z</time>
      </trkpt>
      <trkpt lat="44.86831" lon="6.09312">
        <ele>1281</ele>
        <time>2024-08-13T15:35:30Z</time>
      </trkpt>
      <trkpt lat="44.86832" lon="6.09308">
        <ele>1281</ele>
        <time>2024-08-13T15:35:31Z</time>
      </trkpt>
      <trkpt lat="44.86832" lon="6.09308">
        <ele>1280.8</ele>
        <time>2024-08-13T15:35:32Z</time>
      </trkpt>
      <trkpt lat="44.86832" lon="6.09308">
        <ele>1280.8</ele>
        <time>2024-08-13T15:35:33Z</time>
      </trkpt>
      <trkpt lat="44.86831" lon="6.09304">
        <ele>1280.6</ele>
        <time>2024-08-13T15:35:34Z</time>
      </trkpt>
      <trkpt lat="44.86831" lon="6.09304">
        <ele>1280.4</ele>
        <time>2024-08-13T15:35:35Z</time>
      </trkpt>
      <trkpt lat="44.8683" lon="6.09301">
        <ele>1280.4</ele>
        <time>2024-08-13T15:35:36Z</time>
      </trkpt>
      <trkpt lat="44.8683" lon="6.09301">
        <ele>1280.4</ele>
        <time>2024-08-13T15:35:37Z</time>
      </trkpt>
      <trkpt lat="44.86829" lon="6.09298">
        <ele>1280.4</ele>
        <time>2024-08-13T15:35:38Z</time>
      </trkpt>
      <trkpt lat="44.86829" lon="6.09298">
        <ele>1280.4</ele>
        <time>2024-08-13T15:35:39Z</time>
      </trkpt>
      <trkpt lat="44.86829" lon="6.09295">
        <ele>1280.4</ele>
        <time>2024-08-13T15:35:40Z</time>
      </trkpt>
      <trkpt lat="44.86829" lon="6.09295">
        <ele>1280.2</ele>
        <time>2024-08-13T15:35:41Z</time>
      </trkpt>
      <trkpt lat="44.86829" lon="6.09295">
        <ele>1280.2</ele>
        <time>2024-08-13T15:35:42Z</time>
      </trkpt>
      <trkpt lat="44.86829" lon="6.09295">
        <ele>1280</ele>
        <time>2024-08-13T15:35:43Z</time>
      </trkpt>
      <trkpt lat="44.86829" lon="6.09295">
        <ele>1280</ele>
        <time>2024-08-13T15:35:44Z</time>
      </trkpt>
      <trkpt lat="44.86829" lon="6.09295">
        <ele>1280</ele>
        <time>2024-08-13T15:35:45Z</time>
      </trkpt>
      <trkpt lat="44.86829" lon="6.09295">
        <ele>1280</ele>
        <time>2024-08-13T15:35:46Z</time>
      </trkpt>
      <trkpt lat="44.86829" lon="6.09295">
        <ele>1280</ele>
        <time>2024-08-13T15:35:47Z</time>
      </trkpt>
      <trkpt lat="44.86829" lon="6.09295">
        <ele>1280</ele>
        <time>2024-08-13T15:35:48Z</time>
      </trkpt>
      <trkpt lat="44.86829" lon="6.09295">
        <ele>1280</ele>
        <time>2024-08-13T15:35:49Z</time>
      </trkpt>
      <trkpt lat="44.86829" lon="6.09295">
        <ele>1280</ele>
        <time>2024-08-13T15:35:50Z</time>
      </trkpt>
      <trkpt lat="44.86829" lon="6.09295">
        <ele>1280.2</ele>
        <time>2024-08-13T15:35:51Z</time>
      </trkpt>
      <trkpt lat="44.86829" lon="6.09295">
        <ele>1280.2</ele>
        <time>2024-08-13T15:35:52Z</time>
      </trkpt>
      <trkpt lat="44.86829" lon="6.09295">
        <ele>1280.2</ele>
        <time>2024-08-13T15:35:53Z</time>
      </trkpt>
      <trkpt lat="44.86829" lon="6.09295">
        <ele>1280.2</ele>
        <time>2024-08-13T15:35:54Z</time>
      </trkpt>
      <trkpt lat="44.86829" lon="6.09295">
        <ele>1280.2</ele>
        <time>2024-08-13T15:35:55Z</time>
      </trkpt>
      <trkpt lat="44.86829" lon="6.09295">
        <ele>1280.6</ele>
        <time>2024-08-13T15:35:56Z</time>
      </trkpt>
      <trkpt lat="44.86829" lon="6.09295">
        <ele>1280.6</ele>
        <time>2024-08-13T15:35:57Z</time>
      </trkpt>
      <trkpt lat="44.86829" lon="6.09295">
        <ele>1280.4</ele>
        <time>2024-08-13T15:35:58Z</time>
      </trkpt>
      <trkpt lat="44.86829" lon="6.09295">
        <ele>1280.4</ele>
        <time>2024-08-13T15:35:59Z</time>
      </trkpt>
      <trkpt lat="44.86829" lon="6.09295">
        <ele>1280.2</ele>
        <time>2024-08-13T15:36:00Z</time>
      </trkpt>
      <trkpt lat="44.86829" lon="6.09295">
        <ele>1280.2</ele>
        <time>2024-08-13T15:36:01Z</time>
      </trkpt>
      <trkpt lat="44.86829" lon="6.09295">
        <ele>1280.2</ele>
        <time>2024-08-13T15:36:02Z</time>
      </trkpt>
      <trkpt lat="44.86829" lon="6.09295">
        <ele>1280.2</ele>
        <time>2024-08-13T15:36:03Z</time>
      </trkpt>
      <trkpt lat="44.86829" lon="6.09295">
        <ele>1280</ele>
        <time>2024-08-13T15:36:04Z</time>
      </trkpt>
      <trkpt lat="44.86829" lon="6.09295">
        <ele>1280</ele>
        <time>2024-08-13T15:36:05Z</time>
      </trkpt>
      <trkpt lat="44.86829" lon="6.09295">
        <ele>1280.2</ele>
        <time>2024-08-13T15:36:06Z</time>
      </trkpt>
      <trkpt lat="44.86829" lon="6.09295">
        <ele>1280.2</ele>
        <time>2024-08-13T15:36:07Z</time>
      </trkpt>
      <trkpt lat="44.86829" lon="6.09295">
        <ele>1280.2</ele>
        <time>2024-08-13T15:36:08Z</time>
      </trkpt>
      <trkpt lat="44.86829" lon="6.09295">
        <ele>1280.2</ele>
        <time>2024-08-13T15:36:09Z</time>
      </trkpt>
      <trkpt lat="44.86829" lon="6.09295">
        <ele>1280.2</ele>
        <time>2024-08-13T15:36:10Z</time>
      </trkpt>
      <trkpt lat="44.86829" lon="6.09295">
        <ele>1280.2</ele>
        <time>2024-08-13T15:36:11Z</time>
      </trkpt>
      <trkpt lat="44.86829" lon="6.09295">
        <ele>1280.2</ele>
        <time>2024-08-13T15:36:12Z</time>
      </trkpt>
      <trkpt lat="44.86829" lon="6.09295">
        <ele>1280.2</ele>
        <time>2024-08-13T15:36:13Z</time>
      </trkpt>
      <trkpt lat="44.86829" lon="6.09295">
        <ele>1280</ele>
        <time>2024-08-13T15:36:14Z</time>
      </trkpt>
      <trkpt lat="44.86829" lon="6.09295">
        <ele>1279.8</ele>
        <time>2024-08-13T15:36:15Z</time>
      </trkpt>
      <trkpt lat="44.86829" lon="6.09295">
        <ele>1280</ele>
        <time>2024-08-13T15:36:16Z</time>
      </trkpt>
      <trkpt lat="44.86829" lon="6.09295">
        <ele>1280</ele>
        <time>2024-08-13T15:36:17Z</time>
      </trkpt>
      <trkpt lat="44.86829" lon="6.09295">
        <ele>1280</ele>
        <time>2024-08-13T15:36:18Z</time>
      </trkpt>
      <trkpt lat="44.86829" lon="6.09295">
        <ele>1280</ele>
        <time>2024-08-13T15:36:19Z</time>
      </trkpt>
      <trkpt lat="44.86829" lon="6.09295">
        <ele>1280</ele>
        <time>2024-08-13T15:36:20Z</time>
      </trkpt>
      <trkpt lat="44.86829" lon="6.09295">
        <ele>1280</ele>
        <time>2024-08-13T15:36:21Z</time>
      </trkpt>
      <trkpt lat="44.86829" lon="6.09295">
        <ele>1280</ele>
        <time>2024-08-13T15:36:22Z</time>
      </trkpt>
      <trkpt lat="44.86829" lon="6.09295">
        <ele>1280</ele>
        <time>2024-08-13T15:36:23Z</time>
      </trkpt>
      <trkpt lat="44.86829" lon="6.09295">
        <ele>1280</ele>
        <time>2024-08-13T15:36:24Z</time>
      </trkpt>
      <trkpt lat="44.86829" lon="6.09295">
        <ele>1280</ele>
        <time>2024-08-13T15:36:25Z</time>
      </trkpt>
      <trkpt lat="44.86831" lon="6.09293">
        <ele>1280</ele>
        <time>2024-08-13T15:36:26Z</time>
      </trkpt>
      <trkpt lat="44.86831" lon="6.09293">
        <ele>1280</ele>
        <time>2024-08-13T15:36:27Z</time>
      </trkpt>
      <trkpt lat="44.86833" lon="6.09291">
        <ele>1280</ele>
        <time>2024-08-13T15:36:28Z</time>
      </trkpt>
      <trkpt lat="44.86833" lon="6.09291">
        <ele>1280</ele>
        <time>2024-08-13T15:36:29Z</time>
      </trkpt>
      <trkpt lat="44.86836" lon="6.09288">
        <ele>1280</ele>
        <time>2024-08-13T15:36:30Z</time>
      </trkpt>
      <trkpt lat="44.86836" lon="6.09288">
        <ele>1280.4</ele>
        <time>2024-08-13T15:36:31Z</time>
      </trkpt>
      <trkpt lat="44.86837" lon="6.09285">
        <ele>1280.6</ele>
        <time>2024-08-13T15:36:32Z</time>
      </trkpt>
      <trkpt lat="44.86837" lon="6.09285">
        <ele>1280.6</ele>
        <time>2024-08-13T15:36:33Z</time>
      </trkpt>
      <trkpt lat="44.8684" lon="6.09284">
        <ele>1280.6</ele>
        <time>2024-08-13T15:36:34Z</time>
      </trkpt>
      <trkpt lat="44.8684" lon="6.09284">
        <ele>1280.6</ele>
        <time>2024-08-13T15:36:35Z</time>
      </trkpt>
      <trkpt lat="44.8684" lon="6.09281">
        <ele>1280.8</ele>
        <time>2024-08-13T15:36:36Z</time>
      </trkpt>
      <trkpt lat="44.8684" lon="6.09281">
        <ele>1281</ele>
        <time>2024-08-13T15:36:37Z</time>
      </trkpt>
      <trkpt lat="44.8684" lon="6.09278">
        <ele>1281.2</ele>
        <time>2024-08-13T15:36:38Z</time>
      </trkpt>
      <trkpt lat="44.8684" lon="6.09278">
        <ele>1281.2</ele>
        <time>2024-08-13T15:36:39Z</time>
      </trkpt>
      <trkpt lat="44.86839" lon="6.09276">
        <ele>1281.4</ele>
        <time>2024-08-13T15:36:40Z</time>
      </trkpt>
      <trkpt lat="44.86839" lon="6.09276">
        <ele>1281.6</ele>
        <time>2024-08-13T15:36:41Z</time>
      </trkpt>
      <trkpt lat="44.86838" lon="6.09273">
        <ele>1281.8</ele>
        <time>2024-08-13T15:36:42Z</time>
      </trkpt>
      <trkpt lat="44.86838" lon="6.09273">
        <ele>1281.8</ele>
        <time>2024-08-13T15:36:43Z</time>
      </trkpt>
      <trkpt lat="44.86839" lon="6.09269">
        <ele>1281.8</ele>
        <time>2024-08-13T15:36:44Z</time>
      </trkpt>
      <trkpt lat="44.86839" lon="6.09269">
        <ele>1282.2</ele>
        <time>2024-08-13T15:36:45Z</time>
      </trkpt>
      <trkpt lat="44.8684" lon="6.09266">
        <ele>1282.2</ele>
        <time>2024-08-13T15:36:46Z</time>
      </trkpt>
      <trkpt lat="44.86841" lon="6.09264">
        <ele>1282.4</ele>
        <time>2024-08-13T15:36:47Z</time>
      </trkpt>
      <trkpt lat="44.86841" lon="6.09264">
        <ele>1282.4</ele>
        <time>2024-08-13T15:36:48Z</time>
      </trkpt>
      <trkpt lat="44.86841" lon="6.0926">
        <ele>1282.6</ele>
        <time>2024-08-13T15:36:49Z</time>
      </trkpt>
      <trkpt lat="44.86841" lon="6.0926">
        <ele>1282.8</ele>
        <time>2024-08-13T15:36:50Z</time>
      </trkpt>
      <trkpt lat="44.86842" lon="6.09258">
        <ele>1282.8</ele>
        <time>2024-08-13T15:36:51Z</time>
      </trkpt>
      <trkpt lat="44.86842" lon="6.09258">
        <ele>1282.8</ele>
        <time>2024-08-13T15:36:52Z</time>
      </trkpt>
      <trkpt lat="44.86844" lon="6.09256">
        <ele>1283</ele>
        <time>2024-08-13T15:36:53Z</time>
      </trkpt>
      <trkpt lat="44.86844" lon="6.09256">
        <ele>1283.4</ele>
        <time>2024-08-13T15:36:54Z</time>
      </trkpt>
      <trkpt lat="44.86844" lon="6.09252">
        <ele>1283.6</ele>
        <time>2024-08-13T15:36:55Z</time>
      </trkpt>
      <trkpt lat="44.86844" lon="6.09252">
        <ele>1284</ele>
        <time>2024-08-13T15:36:56Z</time>
      </trkpt>
      <trkpt lat="44.86845" lon="6.09249">
        <ele>1284</ele>
        <time>2024-08-13T15:36:57Z</time>
      </trkpt>
      <trkpt lat="44.86845" lon="6.09249">
        <ele>1284.2</ele>
        <time>2024-08-13T15:36:58Z</time>
      </trkpt>
      <trkpt lat="44.86846" lon="6.09246">
        <ele>1284.4</ele>
        <time>2024-08-13T15:36:59Z</time>
      </trkpt>
      <trkpt lat="44.86846" lon="6.09246">
        <ele>1284.4</ele>
        <time>2024-08-13T15:37:00Z</time>
      </trkpt>
      <trkpt lat="44.86848" lon="6.09243">
        <ele>1284.4</ele>
        <time>2024-08-13T15:37:01Z</time>
      </trkpt>
      <trkpt lat="44.86848" lon="6.09243">
        <ele>1284.4</ele>
        <time>2024-08-13T15:37:02Z</time>
      </trkpt>
      <trkpt lat="44.86849" lon="6.0924">
        <ele>1284.4</ele>
        <time>2024-08-13T15:37:03Z</time>
      </trkpt>
      <trkpt lat="44.86849" lon="6.0924">
        <ele>1284.4</ele>
        <time>2024-08-13T15:37:04Z</time>
      </trkpt>
      <trkpt lat="44.86851" lon="6.09237">
        <ele>1284.6</ele>
        <time>2024-08-13T15:37:05Z</time>
      </trkpt>
      <trkpt lat="44.86851" lon="6.09237">
        <ele>1284.6</ele>
        <time>2024-08-13T15:37:06Z</time>
      </trkpt>
      <trkpt lat="44.86853" lon="6.09234">
        <ele>1284.8</ele>
        <time>2024-08-13T15:37:07Z</time>
      </trkpt>
      <trkpt lat="44.86853" lon="6.09234">
        <ele>1285</ele>
        <time>2024-08-13T15:37:08Z</time>
      </trkpt>
      <trkpt lat="44.86854" lon="6.09231">
        <ele>1285</ele>
        <time>2024-08-13T15:37:09Z</time>
      </trkpt>
      <trkpt lat="44.86854" lon="6.09231">
        <ele>1285</ele>
        <time>2024-08-13T15:37:10Z</time>
      </trkpt>
      <trkpt lat="44.86856" lon="6.09228">
        <ele>1285</ele>
        <time>2024-08-13T15:37:11Z</time>
      </trkpt>
      <trkpt lat="44.86856" lon="6.09228">
        <ele>1285.2</ele>
        <time>2024-08-13T15:37:12Z</time>
      </trkpt>
      <trkpt lat="44.86858" lon="6.09225">
        <ele>1285.6</ele>
        <time>2024-08-13T15:37:13Z</time>
      </trkpt>
      <trkpt lat="44.86858" lon="6.09225">
        <ele>1285.6</ele>
        <time>2024-08-13T15:37:14Z</time>
      </trkpt>
      <trkpt lat="44.8686" lon="6.09222">
        <ele>1285.8</ele>
        <time>2024-08-13T15:37:15Z</time>
      </trkpt>
      <trkpt lat="44.8686" lon="6.09222">
        <ele>1286</ele>
        <time>2024-08-13T15:37:16Z</time>
      </trkpt>
      <trkpt lat="44.86862" lon="6.09221">
        <ele>1286</ele>
        <time>2024-08-13T15:37:17Z</time>
      </trkpt>
      <trkpt lat="44.86862" lon="6.09221">
        <ele>1286.2</ele>
        <time>2024-08-13T15:37:18Z</time>
      </trkpt>
      <trkpt lat="44.86864" lon="6.09219">
        <ele>1286.4</ele>
        <time>2024-08-13T15:37:19Z</time>
      </trkpt>
      <trkpt lat="44.86864" lon="6.09219">
        <ele>1286.8</ele>
        <time>2024-08-13T15:37:20Z</time>
      </trkpt>
      <trkpt lat="44.86866" lon="6.09218">
        <ele>1286.8</ele>
        <time>2024-08-13T15:37:21Z</time>
      </trkpt>
      <trkpt lat="44.86866" lon="6.09218">
        <ele>1287</ele>
        <time>2024-08-13T15:37:22Z</time>
      </trkpt>
      <trkpt lat="44.86868" lon="6.09216">
        <ele>1287.2</ele>
        <time>2024-08-13T15:37:23Z</time>
      </trkpt>
      <trkpt lat="44.86868" lon="6.09216">
        <ele>1287.6</ele>
        <time>2024-08-13T15:37:24Z</time>
      </trkpt>
      <trkpt lat="44.86868" lon="6.09213">
        <ele>1287.6</ele>
        <time>2024-08-13T15:37:25Z</time>
      </trkpt>
      <trkpt lat="44.86868" lon="6.09213">
        <ele>1287.8</ele>
        <time>2024-08-13T15:37:26Z</time>
      </trkpt>
      <trkpt lat="44.86868" lon="6.09209">
        <ele>1287.8</ele>
        <time>2024-08-13T15:37:27Z</time>
      </trkpt>
      <trkpt lat="44.86868" lon="6.09209">
        <ele>1287.8</ele>
        <time>2024-08-13T15:37:28Z</time>
      </trkpt>
      <trkpt lat="44.86866" lon="6.09205">
        <ele>1288.2</ele>
        <time>2024-08-13T15:37:29Z</time>
      </trkpt>
      <trkpt lat="44.86866" lon="6.09205">
        <ele>1288.4</ele>
        <time>2024-08-13T15:37:30Z</time>
      </trkpt>
      <trkpt lat="44.86865" lon="6.09202">
        <ele>1288.6</ele>
        <time>2024-08-13T15:37:31Z</time>
      </trkpt>
      <trkpt lat="44.86865" lon="6.09202">
        <ele>1288.6</ele>
        <time>2024-08-13T15:37:32Z</time>
      </trkpt>
      <trkpt lat="44.86864" lon="6.09199">
        <ele>1288.6</ele>
        <time>2024-08-13T15:37:33Z</time>
      </trkpt>
      <trkpt lat="44.86864" lon="6.09199">
        <ele>1288.6</ele>
        <time>2024-08-13T15:37:34Z</time>
      </trkpt>
      <trkpt lat="44.86863" lon="6.09195">
        <ele>1288.6</ele>
        <time>2024-08-13T15:37:35Z</time>
      </trkpt>
      <trkpt lat="44.86863" lon="6.09195">
        <ele>1288.6</ele>
        <time>2024-08-13T15:37:36Z</time>
      </trkpt>
      <trkpt lat="44.86862" lon="6.09191">
        <ele>1288.6</ele>
        <time>2024-08-13T15:37:37Z</time>
      </trkpt>
      <trkpt lat="44.86862" lon="6.09191">
        <ele>1288.6</ele>
        <time>2024-08-13T15:37:38Z</time>
      </trkpt>
      <trkpt lat="44.86862" lon="6.09187">
        <ele>1288.4</ele>
        <time>2024-08-13T15:37:39Z</time>
      </trkpt>
      <trkpt lat="44.86862" lon="6.09187">
        <ele>1288.6</ele>
        <time>2024-08-13T15:37:40Z</time>
      </trkpt>
      <trkpt lat="44.86862" lon="6.09184">
        <ele>1288.6</ele>
        <time>2024-08-13T15:37:41Z</time>
      </trkpt>
      <trkpt lat="44.86862" lon="6.09184">
        <ele>1288.6</ele>
        <time>2024-08-13T15:37:42Z</time>
      </trkpt>
      <trkpt lat="44.86861" lon="6.0918">
        <ele>1288.6</ele>
        <time>2024-08-13T15:37:43Z</time>
      </trkpt>
      <trkpt lat="44.86861" lon="6.0918">
        <ele>1288.6</ele>
        <time>2024-08-13T15:37:44Z</time>
      </trkpt>
      <trkpt lat="44.86861" lon="6.09176">
        <ele>1288.6</ele>
        <time>2024-08-13T15:37:45Z</time>
      </trkpt>
      <trkpt lat="44.86861" lon="6.09176">
        <ele>1288.6</ele>
        <time>2024-08-13T15:37:46Z</time>
      </trkpt>
      <trkpt lat="44.86861" lon="6.09172">
        <ele>1288.6</ele>
        <time>2024-08-13T15:37:47Z</time>
      </trkpt>
      <trkpt lat="44.86861" lon="6.09172">
        <ele>1288.4</ele>
        <time>2024-08-13T15:37:48Z</time>
      </trkpt>
      <trkpt lat="44.86862" lon="6.09169">
        <ele>1288.6</ele>
        <time>2024-08-13T15:37:49Z</time>
      </trkpt>
      <trkpt lat="44.86862" lon="6.09169">
        <ele>1288.8</ele>
        <time>2024-08-13T15:37:50Z</time>
      </trkpt>
      <trkpt lat="44.86863" lon="6.09166">
        <ele>1289.2</ele>
        <time>2024-08-13T15:37:51Z</time>
      </trkpt>
      <trkpt lat="44.86863" lon="6.09166">
        <ele>1289.2</ele>
        <time>2024-08-13T15:37:52Z</time>
      </trkpt>
      <trkpt lat="44.86863" lon="6.09162">
        <ele>1289.6</ele>
        <time>2024-08-13T15:37:53Z</time>
      </trkpt>
      <trkpt lat="44.86863" lon="6.09162">
        <ele>1289.8</ele>
        <time>2024-08-13T15:37:54Z</time>
      </trkpt>
      <trkpt lat="44.86865" lon="6.09159">
        <ele>1289.8</ele>
        <time>2024-08-13T15:37:55Z</time>
      </trkpt>
      <trkpt lat="44.86865" lon="6.09159">
        <ele>1289.6</ele>
        <time>2024-08-13T15:37:56Z</time>
      </trkpt>
      <trkpt lat="44.86867" lon="6.09156">
        <ele>1289.6</ele>
        <time>2024-08-13T15:37:57Z</time>
      </trkpt>
      <trkpt lat="44.86867" lon="6.09156">
        <ele>1289.8</ele>
        <time>2024-08-13T15:37:58Z</time>
      </trkpt>
      <trkpt lat="44.86869" lon="6.09155">
        <ele>1289.8</ele>
        <time>2024-08-13T15:37:59Z</time>
      </trkpt>
      <trkpt lat="44.86869" lon="6.09155">
        <ele>1290</ele>
        <time>2024-08-13T15:38:00Z</time>
      </trkpt>
      <trkpt lat="44.86871" lon="6.09155">
        <ele>1290</ele>
        <time>2024-08-13T15:38:01Z</time>
      </trkpt>
      <trkpt lat="44.86871" lon="6.09155">
        <ele>1290.2</ele>
        <time>2024-08-13T15:38:02Z</time>
      </trkpt>
      <trkpt lat="44.86871" lon="6.09155">
        <ele>1290.2</ele>
        <time>2024-08-13T15:38:03Z</time>
      </trkpt>
      <trkpt lat="44.86871" lon="6.09155">
        <ele>1290</ele>
        <time>2024-08-13T15:38:04Z</time>
      </trkpt>
      <trkpt lat="44.86871" lon="6.09155">
        <ele>1290.2</ele>
        <time>2024-08-13T15:38:05Z</time>
      </trkpt>
      <trkpt lat="44.86871" lon="6.09155">
        <ele>1290.4</ele>
        <time>2024-08-13T15:38:06Z</time>
      </trkpt>
      <trkpt lat="44.86871" lon="6.09155">
        <ele>1290.4</ele>
        <time>2024-08-13T15:38:07Z</time>
      </trkpt>
      <trkpt lat="44.86871" lon="6.09155">
        <ele>1290.2</ele>
        <time>2024-08-13T15:38:08Z</time>
      </trkpt>
      <trkpt lat="44.86871" lon="6.09155">
        <ele>1290.2</ele>
        <time>2024-08-13T15:38:09Z</time>
      </trkpt>
      <trkpt lat="44.86871" lon="6.09155">
        <ele>1290</ele>
        <time>2024-08-13T15:38:10Z</time>
      </trkpt>
      <trkpt lat="44.86871" lon="6.09155">
        <ele>1290</ele>
        <time>2024-08-13T15:38:11Z</time>
      </trkpt>
      <trkpt lat="44.86871" lon="6.09155">
        <ele>1290</ele>
        <time>2024-08-13T15:38:12Z</time>
      </trkpt>
      <trkpt lat="44.86871" lon="6.09155">
        <ele>1290</ele>
        <time>2024-08-13T15:38:13Z</time>
      </trkpt>
      <trkpt lat="44.86871" lon="6.09155">
        <ele>1290</ele>
        <time>2024-08-13T15:38:14Z</time>
      </trkpt>
      <trkpt lat="44.86871" lon="6.09155">
        <ele>1290</ele>
        <time>2024-08-13T15:38:15Z</time>
      </trkpt>
      <trkpt lat="44.86871" lon="6.09155">
        <ele>1290</ele>
        <time>2024-08-13T15:38:16Z</time>
      </trkpt>
      <trkpt lat="44.86871" lon="6.09155">
        <ele>1289.8</ele>
        <time>2024-08-13T15:38:17Z</time>
      </trkpt>
      <trkpt lat="44.86871" lon="6.09155">
        <ele>1289.6</ele>
        <time>2024-08-13T15:38:18Z</time>
      </trkpt>
      <trkpt lat="44.86871" lon="6.09155">
        <ele>1289.6</ele>
        <time>2024-08-13T15:38:19Z</time>
      </trkpt>
      <trkpt lat="44.86871" lon="6.09155">
        <ele>1289.6</ele>
        <time>2024-08-13T15:38:20Z</time>
      </trkpt>
      <trkpt lat="44.86871" lon="6.09155">
        <ele>1289.4</ele>
        <time>2024-08-13T15:38:21Z</time>
      </trkpt>
      <trkpt lat="44.86871" lon="6.09155">
        <ele>1289.4</ele>
        <time>2024-08-13T15:38:22Z</time>
      </trkpt>
      <trkpt lat="44.86871" lon="6.09155">
        <ele>1289.4</ele>
        <time>2024-08-13T15:38:23Z</time>
      </trkpt>
      <trkpt lat="44.86871" lon="6.09155">
        <ele>1289.4</ele>
        <time>2024-08-13T15:38:24Z</time>
      </trkpt>
      <trkpt lat="44.86871" lon="6.09155">
        <ele>1289.4</ele>
        <time>2024-08-13T15:38:25Z</time>
      </trkpt>
      <trkpt lat="44.86871" lon="6.09155">
        <ele>1289.4</ele>
        <time>2024-08-13T15:38:26Z</time>
      </trkpt>
      <trkpt lat="44.86871" lon="6.09155">
        <ele>1289.4</ele>
        <time>2024-08-13T15:38:27Z</time>
      </trkpt>
      <trkpt lat="44.86871" lon="6.09155">
        <ele>1289.4</ele>
        <time>2024-08-13T15:38:28Z</time>
      </trkpt>
      <trkpt lat="44.86871" lon="6.09155">
        <ele>1289.4</ele>
        <time>2024-08-13T15:38:29Z</time>
      </trkpt>
      <trkpt lat="44.86871" lon="6.09155">
        <ele>1289.4</ele>
        <time>2024-08-13T15:38:30Z</time>
      </trkpt>
      <trkpt lat="44.86871" lon="6.09155">
        <ele>1289.2</ele>
        <time>2024-08-13T15:38:31Z</time>
      </trkpt>
      <trkpt lat="44.86871" lon="6.09155">
        <ele>1289.4</ele>
        <time>2024-08-13T15:38:32Z</time>
      </trkpt>
      <trkpt lat="44.86871" lon="6.09155">
        <ele>1289.4</ele>
        <time>2024-08-13T15:38:33Z</time>
      </trkpt>
      <trkpt lat="44.86871" lon="6.09155">
        <ele>1289.2</ele>
        <time>2024-08-13T15:38:34Z</time>
      </trkpt>
      <trkpt lat="44.86871" lon="6.09155">
        <ele>1289.2</ele>
        <time>2024-08-13T15:38:35Z</time>
      </trkpt>
      <trkpt lat="44.86871" lon="6.09155">
        <ele>1289.2</ele>
        <time>2024-08-13T15:38:36Z</time>
      </trkpt>
      <trkpt lat="44.86871" lon="6.09155">
        <ele>1289.2</ele>
        <time>2024-08-13T15:38:37Z</time>
      </trkpt>
      <trkpt lat="44.86871" lon="6.09155">
        <ele>1289.4</ele>
        <time>2024-08-13T15:38:38Z</time>
      </trkpt>
      <trkpt lat="44.86871" lon="6.09155">
        <ele>1289.4</ele>
        <time>2024-08-13T15:38:39Z</time>
      </trkpt>
      <trkpt lat="44.86871" lon="6.09155">
        <ele>1289.2</ele>
        <time>2024-08-13T15:38:40Z</time>
      </trkpt>
      <trkpt lat="44.86871" lon="6.09155">
        <ele>1289</ele>
        <time>2024-08-13T15:38:41Z</time>
      </trkpt>
      <trkpt lat="44.86871" lon="6.09155">
        <ele>1289</ele>
        <time>2024-08-13T15:38:42Z</time>
      </trkpt>
      <trkpt lat="44.86871" lon="6.09155">
        <ele>1289</ele>
        <time>2024-08-13T15:38:43Z</time>
      </trkpt>
      <trkpt lat="44.86871" lon="6.09155">
        <ele>1289</ele>
        <time>2024-08-13T15:38:44Z</time>
      </trkpt>
      <trkpt lat="44.86871" lon="6.09155">
        <ele>1288.6</ele>
        <time>2024-08-13T15:38:45Z</time>
      </trkpt>
      <trkpt lat="44.86871" lon="6.09155">
        <ele>1288.6</ele>
        <time>2024-08-13T15:38:46Z</time>
      </trkpt>
      <trkpt lat="44.86871" lon="6.09155">
        <ele>1288.8</ele>
        <time>2024-08-13T15:38:47Z</time>
      </trkpt>
      <trkpt lat="44.86871" lon="6.09155">
        <ele>1288.6</ele>
        <time>2024-08-13T15:38:48Z</time>
      </trkpt>
      <trkpt lat="44.86871" lon="6.09155">
        <ele>1288.6</ele>
        <time>2024-08-13T15:38:49Z</time>
      </trkpt>
      <trkpt lat="44.86871" lon="6.09155">
        <ele>1288.4</ele>
        <time>2024-08-13T15:38:50Z</time>
      </trkpt>
      <trkpt lat="44.86871" lon="6.09155">
        <ele>1288.2</ele>
        <time>2024-08-13T15:38:51Z</time>
      </trkpt>
      <trkpt lat="44.86871" lon="6.09155">
        <ele>1287.8</ele>
        <time>2024-08-13T15:38:52Z</time>
      </trkpt>
      <trkpt lat="44.86869" lon="6.09157">
        <ele>1287.8</ele>
        <time>2024-08-13T15:38:53Z</time>
      </trkpt>
      <trkpt lat="44.86869" lon="6.09157">
        <ele>1288</ele>
        <time>2024-08-13T15:38:54Z</time>
      </trkpt>
      <trkpt lat="44.86866" lon="6.09154">
        <ele>1288</ele>
        <time>2024-08-13T15:38:55Z</time>
      </trkpt>
      <trkpt lat="44.86864" lon="6.09152">
        <ele>1288</ele>
        <time>2024-08-13T15:38:56Z</time>
      </trkpt>
      <trkpt lat="44.86863" lon="6.09149">
        <ele>1288</ele>
        <time>2024-08-13T15:38:57Z</time>
      </trkpt>
      <trkpt lat="44.86863" lon="6.09146">
        <ele>1288</ele>
        <time>2024-08-13T15:38:58Z</time>
      </trkpt>
      <trkpt lat="44.86863" lon="6.09146">
        <ele>1288.2</ele>
        <time>2024-08-13T15:38:59Z</time>
      </trkpt>
      <trkpt lat="44.86862" lon="6.09142">
        <ele>1288.2</ele>
        <time>2024-08-13T15:39:00Z</time>
      </trkpt>
      <trkpt lat="44.86862" lon="6.09142">
        <ele>1288.4</ele>
        <time>2024-08-13T15:39:01Z</time>
      </trkpt>
      <trkpt lat="44.86862" lon="6.09137">
        <ele>1288.4</ele>
        <time>2024-08-13T15:39:02Z</time>
      </trkpt>
      <trkpt lat="44.86863" lon="6.09135">
        <ele>1288.4</ele>
        <time>2024-08-13T15:39:03Z</time>
      </trkpt>
      <trkpt lat="44.86863" lon="6.09135">
        <ele>1288.4</ele>
        <time>2024-08-13T15:39:04Z</time>
      </trkpt>
      <trkpt lat="44.86864" lon="6.09131">
        <ele>1288.2</ele>
        <time>2024-08-13T15:39:05Z</time>
      </trkpt>
      <trkpt lat="44.86864" lon="6.09131">
        <ele>1288.2</ele>
        <time>2024-08-13T15:39:06Z</time>
      </trkpt>
      <trkpt lat="44.86864" lon="6.09128">
        <ele>1288</ele>
        <time>2024-08-13T15:39:07Z</time>
      </trkpt>
      <trkpt lat="44.86864" lon="6.09128">
        <ele>1287.8</ele>
        <time>2024-08-13T15:39:08Z</time>
      </trkpt>
      <trkpt lat="44.86863" lon="6.09124">
        <ele>1287.6</ele>
        <time>2024-08-13T15:39:09Z</time>
      </trkpt>
      <trkpt lat="44.86863" lon="6.09124">
        <ele>1287.4</ele>
        <time>2024-08-13T15:39:10Z</time>
      </trkpt>
      <trkpt lat="44.86863" lon="6.09121">
        <ele>1287</ele>
        <time>2024-08-13T15:39:11Z</time>
      </trkpt>
      <trkpt lat="44.86863" lon="6.09121">
        <ele>1286.4</ele>
        <time>2024-08-13T15:39:12Z</time>
      </trkpt>
      <trkpt lat="44.86863" lon="6.09117">
        <ele>1286.4</ele>
        <time>2024-08-13T15:39:13Z</time>
      </trkpt>
      <trkpt lat="44.86863" lon="6.09117">
        <ele>1286.4</ele>
        <time>2024-08-13T15:39:14Z</time>
      </trkpt>
      <trkpt lat="44.86863" lon="6.09114">
        <ele>1286.4</ele>
        <time>2024-08-13T15:39:15Z</time>
      </trkpt>
      <trkpt lat="44.86863" lon="6.09114">
        <ele>1286.4</ele>
        <time>2024-08-13T15:39:16Z</time>
      </trkpt>
      <trkpt lat="44.86863" lon="6.0911">
        <ele>1286.4</ele>
        <time>2024-08-13T15:39:17Z</time>
      </trkpt>
      <trkpt lat="44.86863" lon="6.0911">
        <ele>1286.4</ele>
        <time>2024-08-13T15:39:18Z</time>
      </trkpt>
      <trkpt lat="44.86864" lon="6.09107">
        <ele>1286.4</ele>
        <time>2024-08-13T15:39:19Z</time>
      </trkpt>
      <trkpt lat="44.86864" lon="6.09107">
        <ele>1286.4</ele>
        <time>2024-08-13T15:39:20Z</time>
      </trkpt>
      <trkpt lat="44.86865" lon="6.09104">
        <ele>1286.4</ele>
        <time>2024-08-13T15:39:21Z</time>
      </trkpt>
      <trkpt lat="44.86865" lon="6.09104">
        <ele>1286.2</ele>
        <time>2024-08-13T15:39:22Z</time>
      </trkpt>
      <trkpt lat="44.86864" lon="6.091">
        <ele>1286.2</ele>
        <time>2024-08-13T15:39:23Z</time>
      </trkpt>
      <trkpt lat="44.86864" lon="6.091">
        <ele>1286</ele>
        <time>2024-08-13T15:39:24Z</time>
      </trkpt>
      <trkpt lat="44.86864" lon="6.09096">
        <ele>1286</ele>
        <time>2024-08-13T15:39:25Z</time>
      </trkpt>
      <trkpt lat="44.86864" lon="6.09096">
        <ele>1286</ele>
        <time>2024-08-13T15:39:26Z</time>
      </trkpt>
      <trkpt lat="44.86863" lon="6.09093">
        <ele>1286</ele>
        <time>2024-08-13T15:39:27Z</time>
      </trkpt>
      <trkpt lat="44.86863" lon="6.09093">
        <ele>1286</ele>
        <time>2024-08-13T15:39:28Z</time>
      </trkpt>
      <trkpt lat="44.86864" lon="6.09089">
        <ele>1286</ele>
        <time>2024-08-13T15:39:29Z</time>
      </trkpt>
      <trkpt lat="44.86865" lon="6.09087">
        <ele>1286</ele>
        <time>2024-08-13T15:39:30Z</time>
      </trkpt>
      <trkpt lat="44.86865" lon="6.09087">
        <ele>1286</ele>
        <time>2024-08-13T15:39:31Z</time>
      </trkpt>
      <trkpt lat="44.86867" lon="6.09083">
        <ele>1286.2</ele>
        <time>2024-08-13T15:39:32Z</time>
      </trkpt>
      <trkpt lat="44.86867" lon="6.09083">
        <ele>1286.4</ele>
        <time>2024-08-13T15:39:33Z</time>
      </trkpt>
      <trkpt lat="44.86869" lon="6.0908">
        <ele>1286.4</ele>
        <time>2024-08-13T15:39:34Z</time>
      </trkpt>
      <trkpt lat="44.86869" lon="6.0908">
        <ele>1286.4</ele>
        <time>2024-08-13T15:39:35Z</time>
      </trkpt>
      <trkpt lat="44.8687" lon="6.09076">
        <ele>1286.4</ele>
        <time>2024-08-13T15:39:36Z</time>
      </trkpt>
      <trkpt lat="44.8687" lon="6.09076">
        <ele>1286.6</ele>
        <time>2024-08-13T15:39:37Z</time>
      </trkpt>
      <trkpt lat="44.86871" lon="6.09073">
        <ele>1286.8</ele>
        <time>2024-08-13T15:39:38Z</time>
      </trkpt>
      <trkpt lat="44.86871" lon="6.09073">
        <ele>1287.2</ele>
        <time>2024-08-13T15:39:39Z</time>
      </trkpt>
      <trkpt lat="44.86871" lon="6.09069">
        <ele>1287.2</ele>
        <time>2024-08-13T15:39:40Z</time>
      </trkpt>
      <trkpt lat="44.86871" lon="6.09069">
        <ele>1287.2</ele>
        <time>2024-08-13T15:39:41Z</time>
      </trkpt>
      <trkpt lat="44.86872" lon="6.09065">
        <ele>1287</ele>
        <time>2024-08-13T15:39:42Z</time>
      </trkpt>
      <trkpt lat="44.86872" lon="6.09065">
        <ele>1287.2</ele>
        <time>2024-08-13T15:39:43Z</time>
      </trkpt>
      <trkpt lat="44.86874" lon="6.09064">
        <ele>1287.2</ele>
        <time>2024-08-13T15:39:44Z</time>
      </trkpt>
      <trkpt lat="44.86874" lon="6.09064">
        <ele>1287.4</ele>
        <time>2024-08-13T15:39:45Z</time>
      </trkpt>
      <trkpt lat="44.86876" lon="6.09064">
        <ele>1287.8</ele>
        <time>2024-08-13T15:39:46Z</time>
      </trkpt>
      <trkpt lat="44.86876" lon="6.09064">
        <ele>1288</ele>
        <time>2024-08-13T15:39:47Z</time>
      </trkpt>
      <trkpt lat="44.86878" lon="6.09065">
        <ele>1287.8</ele>
        <time>2024-08-13T15:39:48Z</time>
      </trkpt>
      <trkpt lat="44.86878" lon="6.09065">
        <ele>1288</ele>
        <time>2024-08-13T15:39:49Z</time>
      </trkpt>
      <trkpt lat="44.86879" lon="6.09068">
        <ele>1288</ele>
        <time>2024-08-13T15:39:50Z</time>
      </trkpt>
      <trkpt lat="44.86879" lon="6.09068">
        <ele>1288.2</ele>
        <time>2024-08-13T15:39:51Z</time>
      </trkpt>
      <trkpt lat="44.86881" lon="6.0907">
        <ele>1288.4</ele>
        <time>2024-08-13T15:39:52Z</time>
      </trkpt>
      <trkpt lat="44.86881" lon="6.0907">
        <ele>1288.6</ele>
        <time>2024-08-13T15:39:53Z</time>
      </trkpt>
      <trkpt lat="44.86883" lon="6.09071">
        <ele>1288.6</ele>
        <time>2024-08-13T15:39:54Z</time>
      </trkpt>
      <trkpt lat="44.86883" lon="6.09071">
        <ele>1288.8</ele>
        <time>2024-08-13T15:39:55Z</time>
      </trkpt>
      <trkpt lat="44.86885" lon="6.09072">
        <ele>1289</ele>
        <time>2024-08-13T15:39:56Z</time>
      </trkpt>
      <trkpt lat="44.86885" lon="6.09072">
        <ele>1289.6</ele>
        <time>2024-08-13T15:39:57Z</time>
      </trkpt>
      <trkpt lat="44.86887" lon="6.09072">
        <ele>1289.6</ele>
        <time>2024-08-13T15:39:58Z</time>
      </trkpt>
      <trkpt lat="44.86887" lon="6.09072">
        <ele>1289.6</ele>
        <time>2024-08-13T15:39:59Z</time>
      </trkpt>
      <trkpt lat="44.86889" lon="6.09072">
        <ele>1289.6</ele>
        <time>2024-08-13T15:40:00Z</time>
      </trkpt>
      <trkpt lat="44.86889" lon="6.09072">
        <ele>1289.8</ele>
        <time>2024-08-13T15:40:01Z</time>
      </trkpt>
      <trkpt lat="44.86889" lon="6.09072">
        <ele>1290</ele>
        <time>2024-08-13T15:40:02Z</time>
      </trkpt>
      <trkpt lat="44.8689" lon="6.09068">
        <ele>1290</ele>
        <time>2024-08-13T15:40:03Z</time>
      </trkpt>
      <trkpt lat="44.8689" lon="6.09068">
        <ele>1290.4</ele>
        <time>2024-08-13T15:40:04Z</time>
      </trkpt>
      <trkpt lat="44.8689" lon="6.09066">
        <ele>1291.2</ele>
        <time>2024-08-13T15:40:05Z</time>
      </trkpt>
      <trkpt lat="44.8689" lon="6.09066">
        <ele>1291.4</ele>
        <time>2024-08-13T15:40:06Z</time>
      </trkpt>
      <trkpt lat="44.8689" lon="6.09066">
        <ele>1291.4</ele>
        <time>2024-08-13T15:40:07Z</time>
      </trkpt>
      <trkpt lat="44.86891" lon="6.09063">
        <ele>1291.4</ele>
        <time>2024-08-13T15:40:08Z</time>
      </trkpt>
      <trkpt lat="44.86891" lon="6.09063">
        <ele>1291.4</ele>
        <time>2024-08-13T15:40:09Z</time>
      </trkpt>
      <trkpt lat="44.86891" lon="6.09063">
        <ele>1291.8</ele>
        <time>2024-08-13T15:40:10Z</time>
      </trkpt>
      <trkpt lat="44.86892" lon="6.0906">
        <ele>1291.8</ele>
        <time>2024-08-13T15:40:11Z</time>
      </trkpt>
      <trkpt lat="44.86892" lon="6.0906">
        <ele>1292</ele>
        <time>2024-08-13T15:40:12Z</time>
      </trkpt>
      <trkpt lat="44.86893" lon="6.09057">
        <ele>1292.6</ele>
        <time>2024-08-13T15:40:13Z</time>
      </trkpt>
      <trkpt lat="44.86893" lon="6.09057">
        <ele>1293</ele>
        <time>2024-08-13T15:40:14Z</time>
      </trkpt>
      <trkpt lat="44.86896" lon="6.09055">
        <ele>1293</ele>
        <time>2024-08-13T15:40:15Z</time>
      </trkpt>
      <trkpt lat="44.86896" lon="6.09055">
        <ele>1293</ele>
        <time>2024-08-13T15:40:16Z</time>
      </trkpt>
      <trkpt lat="44.86898" lon="6.09052">
        <ele>1293.4</ele>
        <time>2024-08-13T15:40:17Z</time>
      </trkpt>
      <trkpt lat="44.86898" lon="6.09052">
        <ele>1293.6</ele>
        <time>2024-08-13T15:40:18Z</time>
      </trkpt>
      <trkpt lat="44.869" lon="6.09051">
        <ele>1294</ele>
        <time>2024-08-13T15:40:19Z</time>
      </trkpt>
      <trkpt lat="44.869" lon="6.09051">
        <ele>1294.2</ele>
        <time>2024-08-13T15:40:20Z</time>
      </trkpt>
      <trkpt lat="44.86901" lon="6.09049">
        <ele>1294.2</ele>
        <time>2024-08-13T15:40:21Z</time>
      </trkpt>
      <trkpt lat="44.86901" lon="6.09049">
        <ele>1294.4</ele>
        <time>2024-08-13T15:40:22Z</time>
      </trkpt>
      <trkpt lat="44.86905" lon="6.09049">
        <ele>1294.8</ele>
        <time>2024-08-13T15:40:23Z</time>
      </trkpt>
      <trkpt lat="44.86907" lon="6.09049">
        <ele>1295</ele>
        <time>2024-08-13T15:40:24Z</time>
      </trkpt>
      <trkpt lat="44.86907" lon="6.09049">
        <ele>1295.2</ele>
        <time>2024-08-13T15:40:25Z</time>
      </trkpt>
      <trkpt lat="44.86909" lon="6.0905">
        <ele>1295.2</ele>
        <time>2024-08-13T15:40:26Z</time>
      </trkpt>
      <trkpt lat="44.86909" lon="6.0905">
        <ele>1295.4</ele>
        <time>2024-08-13T15:40:27Z</time>
      </trkpt>
      <trkpt lat="44.86911" lon="6.0905">
        <ele>1295.4</ele>
        <time>2024-08-13T15:40:28Z</time>
      </trkpt>
      <trkpt lat="44.86911" lon="6.0905">
        <ele>1295.6</ele>
        <time>2024-08-13T15:40:29Z</time>
      </trkpt>
      <trkpt lat="44.86914" lon="6.09049">
        <ele>1295.8</ele>
        <time>2024-08-13T15:40:30Z</time>
      </trkpt>
      <trkpt lat="44.86914" lon="6.09049">
        <ele>1296</ele>
        <time>2024-08-13T15:40:31Z</time>
      </trkpt>
      <trkpt lat="44.86916" lon="6.09047">
        <ele>1296</ele>
        <time>2024-08-13T15:40:32Z</time>
      </trkpt>
      <trkpt lat="44.86916" lon="6.09047">
        <ele>1296.2</ele>
        <time>2024-08-13T15:40:33Z</time>
      </trkpt>
      <trkpt lat="44.86918" lon="6.09045">
        <ele>1296.2</ele>
        <time>2024-08-13T15:40:34Z</time>
      </trkpt>
      <trkpt lat="44.86918" lon="6.09045">
        <ele>1296.2</ele>
        <time>2024-08-13T15:40:35Z</time>
      </trkpt>
      <trkpt lat="44.8692" lon="6.09044">
        <ele>1296.4</ele>
        <time>2024-08-13T15:40:36Z</time>
      </trkpt>
      <trkpt lat="44.8692" lon="6.09044">
        <ele>1296.6</ele>
        <time>2024-08-13T15:40:37Z</time>
      </trkpt>
      <trkpt lat="44.86922" lon="6.09045">
        <ele>1296.8</ele>
        <time>2024-08-13T15:40:38Z</time>
      </trkpt>
      <trkpt lat="44.86922" lon="6.09045">
        <ele>1296.8</ele>
        <time>2024-08-13T15:40:39Z</time>
      </trkpt>
      <trkpt lat="44.86925" lon="6.09046">
        <ele>1296.8</ele>
        <time>2024-08-13T15:40:40Z</time>
      </trkpt>
      <trkpt lat="44.86925" lon="6.09046">
        <ele>1296.8</ele>
        <time>2024-08-13T15:40:41Z</time>
      </trkpt>
      <trkpt lat="44.86928" lon="6.09046">
        <ele>1297.2</ele>
        <time>2024-08-13T15:40:42Z</time>
      </trkpt>
      <trkpt lat="44.86928" lon="6.09046">
        <ele>1297.4</ele>
        <time>2024-08-13T15:40:43Z</time>
      </trkpt>
      <trkpt lat="44.86928" lon="6.09046">
        <ele>1297.4</ele>
        <time>2024-08-13T15:40:44Z</time>
      </trkpt>
      <trkpt lat="44.86928" lon="6.09046">
        <ele>1297.8</ele>
        <time>2024-08-13T15:40:45Z</time>
      </trkpt>
      <trkpt lat="44.86929" lon="6.09043">
        <ele>1297.8</ele>
        <time>2024-08-13T15:40:46Z</time>
      </trkpt>
      <trkpt lat="44.86929" lon="6.09043">
        <ele>1298</ele>
        <time>2024-08-13T15:40:47Z</time>
      </trkpt>
    </trkseg>
      <trkpt lat="44.86937" lon="6.09044">
        <ele>1261.2</ele>
        <time>2024-08-14T05:16:47Z</time>
      </trkpt>
      <trkpt lat="44.86936" lon="6.09044">
        <ele>1261.2</ele>
        <time>2024-08-14T05:16:48Z</time>
      </trkpt>
      <trkpt lat="44.86935" lon="6.09044">
        <ele>1261.2</ele>
        <time>2024-08-14T05:16:49Z</time>
      </trkpt>
      <trkpt lat="44.86935" lon="6.09044">
        <ele>1261.2</ele>
        <time>2024-08-14T05:16:50Z</time>
      </trkpt>
      <trkpt lat="44.86934" lon="6.09045">
        <ele>1261.2</ele>
        <time>2024-08-14T05:16:51Z</time>
      </trkpt>
      <trkpt lat="44.86933" lon="6.09045">
        <ele>1261.2</ele>
        <time>2024-08-14T05:16:53Z</time>
      </trkpt>
      <trkpt lat="44.86933" lon="6.09045">
        <ele>1261.2</ele>
        <time>2024-08-14T05:16:54Z</time>
      </trkpt>
      <trkpt lat="44.86932" lon="6.09045">
        <ele>1261.2</ele>
        <time>2024-08-14T05:16:55Z</time>
      </trkpt>
      <trkpt lat="44.86932" lon="6.09045">
        <ele>1261</ele>
        <time>2024-08-14T05:16:56Z</time>
      </trkpt>
      <trkpt lat="44.86929" lon="6.09046">
        <ele>1261</ele>
        <time>2024-08-14T05:16:57Z</time>
      </trkpt>
      <trkpt lat="44.86929" lon="6.09046">
        <ele>1260.6</ele>
        <time>2024-08-14T05:16:58Z</time>
      </trkpt>
      <trkpt lat="44.86927" lon="6.09045">
        <ele>1260.2</ele>
        <time>2024-08-14T05:16:59Z</time>
      </trkpt>
      <trkpt lat="44.86925" lon="6.09047">
        <ele>1259.6</ele>
        <time>2024-08-14T05:17:00Z</time>
      </trkpt>
      <trkpt lat="44.86925" lon="6.09047">
        <ele>1259.6</ele>
        <time>2024-08-14T05:17:01Z</time>
      </trkpt>
      <trkpt lat="44.86921" lon="6.09048">
        <ele>1259.2</ele>
        <time>2024-08-14T05:17:02Z</time>
      </trkpt>
      <trkpt lat="44.86921" lon="6.09048">
        <ele>1259</ele>
        <time>2024-08-14T05:17:03Z</time>
      </trkpt>
      <trkpt lat="44.86918" lon="6.09049">
        <ele>1259</ele>
        <time>2024-08-14T05:17:04Z</time>
      </trkpt>
      <trkpt lat="44.86918" lon="6.09049">
        <ele>1258.6</ele>
        <time>2024-08-14T05:17:05Z</time>
      </trkpt>
      <trkpt lat="44.86915" lon="6.09051">
        <ele>1258.6</ele>
        <time>2024-08-14T05:17:06Z</time>
      </trkpt>
      <trkpt lat="44.86915" lon="6.09051">
        <ele>1258.2</ele>
        <time>2024-08-14T05:17:07Z</time>
      </trkpt>
      <trkpt lat="44.86911" lon="6.09052">
        <ele>1257.8</ele>
        <time>2024-08-14T05:17:08Z</time>
      </trkpt>
      <trkpt lat="44.86911" lon="6.09052">
        <ele>1257.6</ele>
        <time>2024-08-14T05:17:09Z</time>
      </trkpt>
      <trkpt lat="44.86908" lon="6.09053">
        <ele>1257.4</ele>
        <time>2024-08-14T05:17:10Z</time>
      </trkpt>
      <trkpt lat="44.86908" lon="6.09053">
        <ele>1257.4</ele>
        <time>2024-08-14T05:17:11Z</time>
      </trkpt>
      <trkpt lat="44.86905" lon="6.09055">
        <ele>1257.2</ele>
        <time>2024-08-14T05:17:12Z</time>
      </trkpt>
      <trkpt lat="44.86905" lon="6.09055">
        <ele>1257</ele>
        <time>2024-08-14T05:17:13Z</time>
      </trkpt>
      <trkpt lat="44.86903" lon="6.09057">
        <ele>1256.8</ele>
        <time>2024-08-14T05:17:14Z</time>
      </trkpt>
      <trkpt lat="44.86903" lon="6.09057">
        <ele>1256.8</ele>
        <time>2024-08-14T05:17:15Z</time>
      </trkpt>
      <trkpt lat="44.86901" lon="6.09059">
        <ele>1256.6</ele>
        <time>2024-08-14T05:17:16Z</time>
      </trkpt>
      <trkpt lat="44.86901" lon="6.09059">
        <ele>1256.2</ele>
        <time>2024-08-14T05:17:17Z</time>
      </trkpt>
      <trkpt lat="44.86899" lon="6.09062">
        <ele>1256</ele>
        <time>2024-08-14T05:17:18Z</time>
      </trkpt>
      <trkpt lat="44.86899" lon="6.09062">
        <ele>1256</ele>
        <time>2024-08-14T05:17:19Z</time>
      </trkpt>
      <trkpt lat="44.86897" lon="6.09065">
        <ele>1255.8</ele>
        <time>2024-08-14T05:17:20Z</time>
      </trkpt>
      <trkpt lat="44.86897" lon="6.09065">
        <ele>1255.8</ele>
        <time>2024-08-14T05:17:21Z</time>
      </trkpt>
      <trkpt lat="44.86894" lon="6.09067">
        <ele>1255.8</ele>
        <time>2024-08-14T05:17:22Z</time>
      </trkpt>
      <trkpt lat="44.86894" lon="6.09067">
        <ele>1255.6</ele>
        <time>2024-08-14T05:17:23Z</time>
      </trkpt>
      <trkpt lat="44.86892" lon="6.09071">
        <ele>1255.6</ele>
        <time>2024-08-14T05:17:24Z</time>
      </trkpt>
      <trkpt lat="44.86892" lon="6.09071">
        <ele>1255.4</ele>
        <time>2024-08-14T05:17:25Z</time>
      </trkpt>
      <trkpt lat="44.86891" lon="6.09073">
        <ele>1255.4</ele>
        <time>2024-08-14T05:17:26Z</time>
      </trkpt>
      <trkpt lat="44.86891" lon="6.09073">
        <ele>1255.2</ele>
        <time>2024-08-14T05:17:27Z</time>
      </trkpt>
      <trkpt lat="44.86889" lon="6.09076">
        <ele>1255</ele>
        <time>2024-08-14T05:17:28Z</time>
      </trkpt>
      <trkpt lat="44.86889" lon="6.09076">
        <ele>1255</ele>
        <time>2024-08-14T05:17:29Z</time>
      </trkpt>
      <trkpt lat="44.86889" lon="6.09076">
        <ele>1255</ele>
        <time>2024-08-14T05:17:30Z</time>
      </trkpt>
      <trkpt lat="44.86889" lon="6.09076">
        <ele>1255</ele>
        <time>2024-08-14T05:17:31Z</time>
      </trkpt>
      <trkpt lat="44.86889" lon="6.09076">
        <ele>1254.8</ele>
        <time>2024-08-14T05:17:32Z</time>
      </trkpt>
      <trkpt lat="44.86889" lon="6.09076">
        <ele>1254.8</ele>
        <time>2024-08-14T05:17:33Z</time>
      </trkpt>
      <trkpt lat="44.86889" lon="6.09076">
        <ele>1254.8</ele>
        <time>2024-08-14T05:17:35Z</time>
      </trkpt>
      <trkpt lat="44.86889" lon="6.09076">
        <ele>1254.8</ele>
        <time>2024-08-14T05:17:36Z</time>
      </trkpt>
      <trkpt lat="44.86889" lon="6.09076">
        <ele>1254.8</ele>
        <time>2024-08-14T05:17:37Z</time>
      </trkpt>
      <trkpt lat="44.86889" lon="6.09076">
        <ele>1254.8</ele>
        <time>2024-08-14T05:17:38Z</time>
      </trkpt>
      <trkpt lat="44.86889" lon="6.09076">
        <ele>1254.8</ele>
        <time>2024-08-14T05:17:39Z</time>
      </trkpt>
      <trkpt lat="44.86889" lon="6.09076">
        <ele>1254.8</ele>
        <time>2024-08-14T05:17:40Z</time>
      </trkpt>
      <trkpt lat="44.86889" lon="6.09076">
        <ele>1254.8</ele>
        <time>2024-08-14T05:17:41Z</time>
      </trkpt>
      <trkpt lat="44.86889" lon="6.09076">
        <ele>1254.8</ele>
        <time>2024-08-14T05:17:42Z</time>
      </trkpt>
      <trkpt lat="44.86888" lon="6.09079">
        <ele>1254.6</ele>
        <time>2024-08-14T05:17:43Z</time>
      </trkpt>
      <trkpt lat="44.86888" lon="6.09079">
        <ele>1254.2</ele>
        <time>2024-08-14T05:17:44Z</time>
      </trkpt>
      <trkpt lat="44.86885" lon="6.0908">
        <ele>1254</ele>
        <time>2024-08-14T05:17:45Z</time>
      </trkpt>
      <trkpt lat="44.86884" lon="6.0908">
        <ele>1253.8</ele>
        <time>2024-08-14T05:17:46Z</time>
      </trkpt>
      <trkpt lat="44.86882" lon="6.09079">
        <ele>1253.6</ele>
        <time>2024-08-14T05:17:47Z</time>
      </trkpt>
      <trkpt lat="44.8688" lon="6.09078">
        <ele>1253.4</ele>
        <time>2024-08-14T05:17:48Z</time>
      </trkpt>
      <trkpt lat="44.8688" lon="6.09078">
        <ele>1253</ele>
        <time>2024-08-14T05:17:49Z</time>
      </trkpt>
      <trkpt lat="44.86877" lon="6.09074">
        <ele>1252.8</ele>
        <time>2024-08-14T05:17:50Z</time>
      </trkpt>
      <trkpt lat="44.86877" lon="6.09074">
        <ele>1252.6</ele>
        <time>2024-08-14T05:17:51Z</time>
      </trkpt>
      <trkpt lat="44.86877" lon="6.09069">
        <ele>1252.6</ele>
        <time>2024-08-14T05:17:52Z</time>
      </trkpt>
      <trkpt lat="44.86876" lon="6.09067">
        <ele>1252.4</ele>
        <time>2024-08-14T05:17:53Z</time>
      </trkpt>
      <trkpt lat="44.86876" lon="6.09067">
        <ele>1252.2</ele>
        <time>2024-08-14T05:17:54Z</time>
      </trkpt>
      <trkpt lat="44.86874" lon="6.09063">
        <ele>1252.2</ele>
        <time>2024-08-14T05:17:55Z</time>
      </trkpt>
      <trkpt lat="44.86874" lon="6.09063">
        <ele>1252.2</ele>
        <time>2024-08-14T05:17:56Z</time>
      </trkpt>
      <trkpt lat="44.86874" lon="6.09059">
        <ele>1252.4</ele>
        <time>2024-08-14T05:17:57Z</time>
      </trkpt>
      <trkpt lat="44.86874" lon="6.09059">
        <ele>1252.6</ele>
        <time>2024-08-14T05:17:58Z</time>
      </trkpt>
      <trkpt lat="44.86874" lon="6.09055">
        <ele>1252.6</ele>
        <time>2024-08-14T05:17:59Z</time>
      </trkpt>
      <trkpt lat="44.86874" lon="6.09055">
        <ele>1252.2</ele>
        <time>2024-08-14T05:18:00Z</time>
      </trkpt>
      <trkpt lat="44.86874" lon="6.09052">
        <ele>1252.2</ele>
        <time>2024-08-14T05:18:01Z</time>
      </trkpt>
      <trkpt lat="44.86874" lon="6.09052">
        <ele>1252.2</ele>
        <time>2024-08-14T05:18:02Z</time>
      </trkpt>
      <trkpt lat="44.86874" lon="6.09052">
        <ele>1252.2</ele>
        <time>2024-08-14T05:18:03Z</time>
      </trkpt>
      <trkpt lat="44.86874" lon="6.09048">
        <ele>1252.2</ele>
        <time>2024-08-14T05:18:04Z</time>
      </trkpt>
      <trkpt lat="44.86874" lon="6.09048">
        <ele>1252.2</ele>
        <time>2024-08-14T05:18:05Z</time>
      </trkpt>
      <trkpt lat="44.86872" lon="6.09044">
        <ele>1252.2</ele>
        <time>2024-08-14T05:18:06Z</time>
      </trkpt>
      <trkpt lat="44.86871" lon="6.09042">
        <ele>1252</ele>
        <time>2024-08-14T05:18:07Z</time>
      </trkpt>
      <trkpt lat="44.8687" lon="6.0904">
        <ele>1252</ele>
        <time>2024-08-14T05:18:08Z</time>
      </trkpt>
      <trkpt lat="44.8687" lon="6.0904">
        <ele>1252</ele>
        <time>2024-08-14T05:18:09Z</time>
      </trkpt>
      <trkpt lat="44.86868" lon="6.09036">
        <ele>1251.8</ele>
        <time>2024-08-14T05:18:10Z</time>
      </trkpt>
      <trkpt lat="44.86868" lon="6.09033">
        <ele>1251.8</ele>
        <time>2024-08-14T05:18:11Z</time>
      </trkpt>
      <trkpt lat="44.86866" lon="6.09031">
        <ele>1251.4</ele>
        <time>2024-08-14T05:18:12Z</time>
      </trkpt>
      <trkpt lat="44.86866" lon="6.09028">
        <ele>1251.4</ele>
        <time>2024-08-14T05:18:13Z</time>
      </trkpt>
      <trkpt lat="44.86865" lon="6.09026">
        <ele>1251.4</ele>
        <time>2024-08-14T05:18:14Z</time>
      </trkpt>
      <trkpt lat="44.86865" lon="6.09026">
        <ele>1251.2</ele>
        <time>2024-08-14T05:18:15Z</time>
      </trkpt>
      <trkpt lat="44.86863" lon="6.09022">
        <ele>1251.2</ele>
        <time>2024-08-14T05:18:16Z</time>
      </trkpt>
      <trkpt lat="44.86863" lon="6.09022">
        <ele>1251.2</ele>
        <time>2024-08-14T05:18:17Z</time>
      </trkpt>
      <trkpt lat="44.86863" lon="6.09019">
        <ele>1251.2</ele>
        <time>2024-08-14T05:18:18Z</time>
      </trkpt>
      <trkpt lat="44.86863" lon="6.09019">
        <ele>1251</ele>
        <time>2024-08-14T05:18:19Z</time>
      </trkpt>
      <trkpt lat="44.86863" lon="6.09019">
        <ele>1251</ele>
        <time>2024-08-14T05:18:20Z</time>
      </trkpt>
      <trkpt lat="44.86864" lon="6.09022">
        <ele>1251</ele>
        <time>2024-08-14T05:18:21Z</time>
      </trkpt>
      <trkpt lat="44.86864" lon="6.09022">
        <ele>1250.8</ele>
        <time>2024-08-14T05:18:22Z</time>
      </trkpt>
      <trkpt lat="44.86865" lon="6.09026">
        <ele>1250.8</ele>
        <time>2024-08-14T05:18:23Z</time>
      </trkpt>
      <trkpt lat="44.86865" lon="6.09026">
        <ele>1251</ele>
        <time>2024-08-14T05:18:24Z</time>
      </trkpt>
      <trkpt lat="44.86866" lon="6.0903">
        <ele>1251</ele>
        <time>2024-08-14T05:18:25Z</time>
      </trkpt>
      <trkpt lat="44.86866" lon="6.0903">
        <ele>1251.2</ele>
        <time>2024-08-14T05:18:26Z</time>
      </trkpt>
      <trkpt lat="44.86867" lon="6.09033">
        <ele>1251.4</ele>
        <time>2024-08-14T05:18:27Z</time>
      </trkpt>
      <trkpt lat="44.86867" lon="6.09033">
        <ele>1251.4</ele>
        <time>2024-08-14T05:18:28Z</time>
      </trkpt>
      <trkpt lat="44.86869" lon="6.09037">
        <ele>1251.4</ele>
        <time>2024-08-14T05:18:29Z</time>
      </trkpt>
      <trkpt lat="44.86869" lon="6.09037">
        <ele>1252</ele>
        <time>2024-08-14T05:18:30Z</time>
      </trkpt>
      <trkpt lat="44.8687" lon="6.0904">
        <ele>1252.2</ele>
        <time>2024-08-14T05:18:31Z</time>
      </trkpt>
      <trkpt lat="44.8687" lon="6.0904">
        <ele>1252.2</ele>
        <time>2024-08-14T05:18:32Z</time>
      </trkpt>
      <trkpt lat="44.86872" lon="6.09043">
        <ele>1252.2</ele>
        <time>2024-08-14T05:18:33Z</time>
      </trkpt>
      <trkpt lat="44.86872" lon="6.09043">
        <ele>1252.4</ele>
        <time>2024-08-14T05:18:34Z</time>
      </trkpt>
      <trkpt lat="44.86873" lon="6.09048">
        <ele>1252.6</ele>
        <time>2024-08-14T05:18:35Z</time>
      </trkpt>
      <trkpt lat="44.86873" lon="6.09048">
        <ele>1252.4</ele>
        <time>2024-08-14T05:18:36Z</time>
      </trkpt>
      <trkpt lat="44.86874" lon="6.09052">
        <ele>1252.4</ele>
        <time>2024-08-14T05:18:37Z</time>
      </trkpt>
      <trkpt lat="44.86874" lon="6.09052">
        <ele>1252.4</ele>
        <time>2024-08-14T05:18:38Z</time>
      </trkpt>
      <trkpt lat="44.86874" lon="6.09056">
        <ele>1252.4</ele>
        <time>2024-08-14T05:18:39Z</time>
      </trkpt>
      <trkpt lat="44.86874" lon="6.09056">
        <ele>1252.4</ele>
        <time>2024-08-14T05:18:40Z</time>
      </trkpt>
      <trkpt lat="44.86873" lon="6.0906">
        <ele>1252.6</ele>
        <time>2024-08-14T05:18:41Z</time>
      </trkpt>
      <trkpt lat="44.86873" lon="6.0906">
        <ele>1252.6</ele>
        <time>2024-08-14T05:18:42Z</time>
      </trkpt>
      <trkpt lat="44.86873" lon="6.09063">
        <ele>1252.6</ele>
        <time>2024-08-14T05:18:43Z</time>
      </trkpt>
      <trkpt lat="44.86873" lon="6.09063">
        <ele>1252.4</ele>
        <time>2024-08-14T05:18:44Z</time>
      </trkpt>
      <trkpt lat="44.86873" lon="6.09063">
        <ele>1252.4</ele>
        <time>2024-08-14T05:18:45Z</time>
      </trkpt>
      <trkpt lat="44.86873" lon="6.09063">
        <ele>1252.4</ele>
        <time>2024-08-14T05:18:46Z</time>
      </trkpt>
      <trkpt lat="44.86873" lon="6.09063">
        <ele>1252.4</ele>
        <time>2024-08-14T05:18:47Z</time>
      </trkpt>
      <trkpt lat="44.86873" lon="6.09063">
        <ele>1252.4</ele>
        <time>2024-08-14T05:18:48Z</time>
      </trkpt>
      <trkpt lat="44.86873" lon="6.09063">
        <ele>1252.4</ele>
        <time>2024-08-14T05:18:49Z</time>
      </trkpt>
      <trkpt lat="44.86873" lon="6.09063">
        <ele>1252.4</ele>
        <time>2024-08-14T05:18:50Z</time>
      </trkpt>
      <trkpt lat="44.86873" lon="6.09063">
        <ele>1252.4</ele>
        <time>2024-08-14T05:18:51Z</time>
      </trkpt>
      <trkpt lat="44.86874" lon="6.09066">
        <ele>1252.2</ele>
        <time>2024-08-14T05:18:52Z</time>
      </trkpt>
      <trkpt lat="44.86874" lon="6.09066">
        <ele>1252.2</ele>
        <time>2024-08-14T05:18:53Z</time>
      </trkpt>
      <trkpt lat="44.86874" lon="6.09069">
        <ele>1252.2</ele>
        <time>2024-08-14T05:18:54Z</time>
      </trkpt>
      <trkpt lat="44.86873" lon="6.09071">
        <ele>1252</ele>
        <time>2024-08-14T05:18:55Z</time>
      </trkpt>
      <trkpt lat="44.86873" lon="6.09074">
        <ele>1251.8</ele>
        <time>2024-08-14T05:18:56Z</time>
      </trkpt>
      <trkpt lat="44.86873" lon="6.09077">
        <ele>1251.8</ele>
        <time>2024-08-14T05:18:57Z</time>
      </trkpt>
      <trkpt lat="44.86873" lon="6.09077">
        <ele>1251.8</ele>
        <time>2024-08-14T05:18:58Z</time>
      </trkpt>
      <trkpt lat="44.86873" lon="6.09082">
        <ele>1251.4</ele>
        <time>2024-08-14T05:18:59Z</time>
      </trkpt>
      <trkpt lat="44.86872" lon="6.09084">
        <ele>1251.2</ele>
        <time>2024-08-14T05:19:00Z</time>
      </trkpt>
      <trkpt lat="44.86872" lon="6.09084">
        <ele>1251.2</ele>
        <time>2024-08-14T05:19:01Z</time>
      </trkpt>
      <trkpt lat="44.8687" lon="6.09088">
        <ele>1251</ele>
        <time>2024-08-14T05:19:02Z</time>
      </trkpt>
      <trkpt lat="44.8687" lon="6.09088">
        <ele>1251</ele>
        <time>2024-08-14T05:19:03Z</time>
      </trkpt>
      <trkpt lat="44.86869" lon="6.09092">
        <ele>1250.8</ele>
        <time>2024-08-14T05:19:04Z</time>
      </trkpt>
      <trkpt lat="44.86869" lon="6.09092">
        <ele>1250.6</ele>
        <time>2024-08-14T05:19:05Z</time>
      </trkpt>
      <trkpt lat="44.8687" lon="6.09097">
        <ele>1250.4</ele>
        <time>2024-08-14T05:19:06Z</time>
      </trkpt>
      <trkpt lat="44.8687" lon="6.09097">
        <ele>1250.4</ele>
        <time>2024-08-14T05:19:07Z</time>
      </trkpt>
      <trkpt lat="44.86871" lon="6.09101">
        <ele>1250.4</ele>
        <time>2024-08-14T05:19:08Z</time>
      </trkpt>
      <trkpt lat="44.86871" lon="6.09101">
        <ele>1250.4</ele>
        <time>2024-08-14T05:19:09Z</time>
      </trkpt>
      <trkpt lat="44.86869" lon="6.09104">
        <ele>1250.6</ele>
        <time>2024-08-14T05:19:10Z</time>
      </trkpt>
      <trkpt lat="44.86869" lon="6.09104">
        <ele>1250.6</ele>
        <time>2024-08-14T05:19:11Z</time>
      </trkpt>
      <trkpt lat="44.86868" lon="6.09107">
        <ele>1250.8</ele>
        <time>2024-08-14T05:19:12Z</time>
      </trkpt>
      <trkpt lat="44.86868" lon="6.09107">
        <ele>1250.8</ele>
        <time>2024-08-14T05:19:13Z</time>
      </trkpt>
      <trkpt lat="44.86868" lon="6.09111">
        <ele>1251</ele>
        <time>2024-08-14T05:19:14Z</time>
      </trkpt>
      <trkpt lat="44.86869" lon="6.09114">
        <ele>1251</ele>
        <time>2024-08-14T05:19:15Z</time>
      </trkpt>
      <trkpt lat="44.86869" lon="6.09117">
        <ele>1251</ele>
        <time>2024-08-14T05:19:16Z</time>
      </trkpt>
      <trkpt lat="44.86869" lon="6.09117">
        <ele>1251</ele>
        <time>2024-08-14T05:19:17Z</time>
      </trkpt>
      <trkpt lat="44.86869" lon="6.09122">
        <ele>1251.2</ele>
        <time>2024-08-14T05:19:18Z</time>
      </trkpt>
      <trkpt lat="44.86869" lon="6.09122">
        <ele>1251.4</ele>
        <time>2024-08-14T05:19:19Z</time>
      </trkpt>
      <trkpt lat="44.86869" lon="6.09126">
        <ele>1251.8</ele>
        <time>2024-08-14T05:19:20Z</time>
      </trkpt>
      <trkpt lat="44.86869" lon="6.09126">
        <ele>1251.8</ele>
        <time>2024-08-14T05:19:21Z</time>
      </trkpt>
      <trkpt lat="44.8687" lon="6.0913">
        <ele>1251.8</ele>
        <time>2024-08-14T05:19:22Z</time>
      </trkpt>
      <trkpt lat="44.8687" lon="6.0913">
        <ele>1252</ele>
        <time>2024-08-14T05:19:23Z</time>
      </trkpt>
      <trkpt lat="44.8687" lon="6.09134">
        <ele>1252</ele>
        <time>2024-08-14T05:19:24Z</time>
      </trkpt>
      <trkpt lat="44.8687" lon="6.09134">
        <ele>1252</ele>
        <time>2024-08-14T05:19:25Z</time>
      </trkpt>
      <trkpt lat="44.8687" lon="6.09138">
        <ele>1252.4</ele>
        <time>2024-08-14T05:19:26Z</time>
      </trkpt>
      <trkpt lat="44.8687" lon="6.09138">
        <ele>1252.6</ele>
        <time>2024-08-14T05:19:27Z</time>
      </trkpt>
      <trkpt lat="44.8687" lon="6.09142">
        <ele>1252.6</ele>
        <time>2024-08-14T05:19:28Z</time>
      </trkpt>
      <trkpt lat="44.8687" lon="6.09142">
        <ele>1252.4</ele>
        <time>2024-08-14T05:19:29Z</time>
      </trkpt>
      <trkpt lat="44.8687" lon="6.09147">
        <ele>1252.4</ele>
        <time>2024-08-14T05:19:30Z</time>
      </trkpt>
      <trkpt lat="44.8687" lon="6.09147">
        <ele>1252.4</ele>
        <time>2024-08-14T05:19:31Z</time>
      </trkpt>
      <trkpt lat="44.8687" lon="6.09151">
        <ele>1252.4</ele>
        <time>2024-08-14T05:19:32Z</time>
      </trkpt>
      <trkpt lat="44.8687" lon="6.09151">
        <ele>1252.2</ele>
        <time>2024-08-14T05:19:33Z</time>
      </trkpt>
      <trkpt lat="44.86869" lon="6.09156">
        <ele>1252.2</ele>
        <time>2024-08-14T05:19:34Z</time>
      </trkpt>
      <trkpt lat="44.86869" lon="6.09156">
        <ele>1252</ele>
        <time>2024-08-14T05:19:35Z</time>
      </trkpt>
      <trkpt lat="44.86868" lon="6.09159">
        <ele>1252</ele>
        <time>2024-08-14T05:19:36Z</time>
      </trkpt>
      <trkpt lat="44.86868" lon="6.09159">
        <ele>1252</ele>
        <time>2024-08-14T05:19:37Z</time>
      </trkpt>
      <trkpt lat="44.86868" lon="6.09163">
        <ele>1251.8</ele>
        <time>2024-08-14T05:19:38Z</time>
      </trkpt>
      <trkpt lat="44.86868" lon="6.09163">
        <ele>1251.4</ele>
        <time>2024-08-14T05:19:39Z</time>
      </trkpt>
      <trkpt lat="44.86868" lon="6.09167">
        <ele>1251.4</ele>
        <time>2024-08-14T05:19:40Z</time>
      </trkpt>
      <trkpt lat="44.86868" lon="6.09167">
        <ele>1251.4</ele>
        <time>2024-08-14T05:19:41Z</time>
      </trkpt>
      <trkpt lat="44.86868" lon="6.09171">
        <ele>1251.2</ele>
        <time>2024-08-14T05:19:42Z</time>
      </trkpt>
      <trkpt lat="44.86868" lon="6.09171">
        <ele>1251.2</ele>
        <time>2024-08-14T05:19:43Z</time>
      </trkpt>
      <trkpt lat="44.86869" lon="6.09174">
        <ele>1251.2</ele>
        <time>2024-08-14T05:19:44Z</time>
      </trkpt>
      <trkpt lat="44.86869" lon="6.09174">
        <ele>1251</ele>
        <time>2024-08-14T05:19:45Z</time>
      </trkpt>
      <trkpt lat="44.8687" lon="6.09179">
        <ele>1250.6</ele>
        <time>2024-08-14T05:19:46Z</time>
      </trkpt>
      <trkpt lat="44.8687" lon="6.09179">
        <ele>1250.4</ele>
        <time>2024-08-14T05:19:47Z</time>
      </trkpt>
      <trkpt lat="44.86871" lon="6.09183">
        <ele>1250.2</ele>
        <time>2024-08-14T05:19:48Z</time>
      </trkpt>
      <trkpt lat="44.86871" lon="6.09186">
        <ele>1250.2</ele>
        <time>2024-08-14T05:19:49Z</time>
      </trkpt>
      <trkpt lat="44.86871" lon="6.09186">
        <ele>1250.2</ele>
        <time>2024-08-14T05:19:50Z</time>
      </trkpt>
      <trkpt lat="44.86871" lon="6.0919">
        <ele>1250.2</ele>
        <time>2024-08-14T05:19:51Z</time>
      </trkpt>
      <trkpt lat="44.86871" lon="6.0919">
        <ele>1250.4</ele>
        <time>2024-08-14T05:19:52Z</time>
      </trkpt>
      <trkpt lat="44.86872" lon="6.09194">
        <ele>1250.4</ele>
        <time>2024-08-14T05:19:53Z</time>
      </trkpt>
      <trkpt lat="44.86872" lon="6.09194">
        <ele>1250.2</ele>
        <time>2024-08-14T05:19:54Z</time>
      </trkpt>
      <trkpt lat="44.86873" lon="6.09198">
        <ele>1249.6</ele>
        <time>2024-08-14T05:19:55Z</time>
      </trkpt>
      <trkpt lat="44.86873" lon="6.09198">
        <ele>1249.2</ele>
        <time>2024-08-14T05:19:56Z</time>
      </trkpt>
      <trkpt lat="44.86874" lon="6.09202">
        <ele>1249.2</ele>
        <time>2024-08-14T05:19:57Z</time>
      </trkpt>
      <trkpt lat="44.86874" lon="6.09202">
        <ele>1249.2</ele>
        <time>2024-08-14T05:19:58Z</time>
      </trkpt>
      <trkpt lat="44.86875" lon="6.09206">
        <ele>1249.2</ele>
        <time>2024-08-14T05:19:59Z</time>
      </trkpt>
      <trkpt lat="44.86875" lon="6.09206">
        <ele>1248.8</ele>
        <time>2024-08-14T05:20:00Z</time>
      </trkpt>
      <trkpt lat="44.86876" lon="6.09209">
        <ele>1248.8</ele>
        <time>2024-08-14T05:20:01Z</time>
      </trkpt>
      <trkpt lat="44.86876" lon="6.09209">
        <ele>1248.8</ele>
        <time>2024-08-14T05:20:02Z</time>
      </trkpt>
      <trkpt lat="44.86877" lon="6.09212">
        <ele>1249</ele>
        <time>2024-08-14T05:20:03Z</time>
      </trkpt>
      <trkpt lat="44.86877" lon="6.09212">
        <ele>1249</ele>
        <time>2024-08-14T05:20:04Z</time>
      </trkpt>
      <trkpt lat="44.86879" lon="6.09215">
        <ele>1249</ele>
        <time>2024-08-14T05:20:05Z</time>
      </trkpt>
      <trkpt lat="44.86879" lon="6.09215">
        <ele>1249.2</ele>
        <time>2024-08-14T05:20:06Z</time>
      </trkpt>
      <trkpt lat="44.86881" lon="6.09218">
        <ele>1249.4</ele>
        <time>2024-08-14T05:20:07Z</time>
      </trkpt>
      <trkpt lat="44.86881" lon="6.09218">
        <ele>1249.4</ele>
        <time>2024-08-14T05:20:08Z</time>
      </trkpt>
      <trkpt lat="44.86881" lon="6.09221">
        <ele>1249.6</ele>
        <time>2024-08-14T05:20:09Z</time>
      </trkpt>
      <trkpt lat="44.86881" lon="6.09221">
        <ele>1249.8</ele>
        <time>2024-08-14T05:20:10Z</time>
      </trkpt>
      <trkpt lat="44.86883" lon="6.09224">
        <ele>1249.8</ele>
        <time>2024-08-14T05:20:11Z</time>
      </trkpt>
      <trkpt lat="44.86883" lon="6.09224">
        <ele>1250</ele>
        <time>2024-08-14T05:20:12Z</time>
      </trkpt>
      <trkpt lat="44.86883" lon="6.09227">
        <ele>1250</ele>
        <time>2024-08-14T05:20:13Z</time>
      </trkpt>
      <trkpt lat="44.86883" lon="6.09227">
        <ele>1250.2</ele>
        <time>2024-08-14T05:20:14Z</time>
      </trkpt>
      <trkpt lat="44.86884" lon="6.0923">
        <ele>1250.4</ele>
        <time>2024-08-14T05:20:15Z</time>
      </trkpt>
      <trkpt lat="44.86884" lon="6.0923">
        <ele>1250.4</ele>
        <time>2024-08-14T05:20:16Z</time>
      </trkpt>
      <trkpt lat="44.86884" lon="6.0923">
        <ele>1250.4</ele>
        <time>2024-08-14T05:20:17Z</time>
      </trkpt>
      <trkpt lat="44.86884" lon="6.09233">
        <ele>1250.4</ele>
        <time>2024-08-14T05:20:18Z</time>
      </trkpt>
      <trkpt lat="44.86884" lon="6.09233">
        <ele>1250.8</ele>
        <time>2024-08-14T05:20:19Z</time>
      </trkpt>
      <trkpt lat="44.86884" lon="6.09233">
        <ele>1251</ele>
        <time>2024-08-14T05:20:20Z</time>
      </trkpt>
      <trkpt lat="44.86884" lon="6.09233">
        <ele>1251</ele>
        <time>2024-08-14T05:20:21Z</time>
      </trkpt>
      <trkpt lat="44.86884" lon="6.09233">
        <ele>1250.8</ele>
        <time>2024-08-14T05:20:22Z</time>
      </trkpt>
      <trkpt lat="44.86884" lon="6.09233">
        <ele>1250.8</ele>
        <time>2024-08-14T05:20:23Z</time>
      </trkpt>
      <trkpt lat="44.86884" lon="6.09233">
        <ele>1251</ele>
        <time>2024-08-14T05:20:24Z</time>
      </trkpt>
      <trkpt lat="44.86884" lon="6.09233">
        <ele>1251.2</ele>
        <time>2024-08-14T05:20:25Z</time>
      </trkpt>
      <trkpt lat="44.86884" lon="6.09233">
        <ele>1251.2</ele>
        <time>2024-08-14T05:20:26Z</time>
      </trkpt>
      <trkpt lat="44.86884" lon="6.09233">
        <ele>1251.2</ele>
        <time>2024-08-14T05:20:27Z</time>
      </trkpt>
      <trkpt lat="44.86884" lon="6.09233">
        <ele>1251</ele>
        <time>2024-08-14T05:20:28Z</time>
      </trkpt>
      <trkpt lat="44.86884" lon="6.09233">
        <ele>1251</ele>
        <time>2024-08-14T05:20:29Z</time>
      </trkpt>
      <trkpt lat="44.86884" lon="6.09233">
        <ele>1250.8</ele>
        <time>2024-08-14T05:20:30Z</time>
      </trkpt>
      <trkpt lat="44.86884" lon="6.09233">
        <ele>1250.8</ele>
        <time>2024-08-14T05:20:31Z</time>
      </trkpt>
      <trkpt lat="44.86884" lon="6.09233">
        <ele>1251</ele>
        <time>2024-08-14T05:20:32Z</time>
      </trkpt>
      <trkpt lat="44.86884" lon="6.09233">
        <ele>1251.2</ele>
        <time>2024-08-14T05:20:33Z</time>
      </trkpt>
      <trkpt lat="44.86884" lon="6.09233">
        <ele>1251.2</ele>
        <time>2024-08-14T05:20:34Z</time>
      </trkpt>
      <trkpt lat="44.86884" lon="6.09233">
        <ele>1251.2</ele>
        <time>2024-08-14T05:20:35Z</time>
      </trkpt>
      <trkpt lat="44.86884" lon="6.09233">
        <ele>1251.2</ele>
        <time>2024-08-14T05:20:36Z</time>
      </trkpt>
      <trkpt lat="44.86884" lon="6.09233">
        <ele>1251</ele>
        <time>2024-08-14T05:20:37Z</time>
      </trkpt>
      <trkpt lat="44.86884" lon="6.09233">
        <ele>1251.2</ele>
        <time>2024-08-14T05:20:38Z</time>
      </trkpt>
      <trkpt lat="44.86884" lon="6.09233">
        <ele>1251</ele>
        <time>2024-08-14T05:20:39Z</time>
      </trkpt>
      <trkpt lat="44.86882" lon="6.09233">
        <ele>1251</ele>
        <time>2024-08-14T05:20:40Z</time>
      </trkpt>
      <trkpt lat="44.86882" lon="6.09233">
        <ele>1251</ele>
        <time>2024-08-14T05:20:41Z</time>
      </trkpt>
      <trkpt lat="44.86882" lon="6.09233">
        <ele>1251.4</ele>
        <time>2024-08-14T05:20:42Z</time>
      </trkpt>
      <trkpt lat="44.86882" lon="6.09233">
        <ele>1251.4</ele>
        <time>2024-08-14T05:20:43Z</time>
      </trkpt>
      <trkpt lat="44.86882" lon="6.09233">
        <ele>1251.4</ele>
        <time>2024-08-14T05:20:44Z</time>
      </trkpt>
      <trkpt lat="44.86882" lon="6.09233">
        <ele>1251.4</ele>
        <time>2024-08-14T05:20:45Z</time>
      </trkpt>
      <trkpt lat="44.86882" lon="6.09233">
        <ele>1251.4</ele>
        <time>2024-08-14T05:20:46Z</time>
      </trkpt>
      <trkpt lat="44.86882" lon="6.09233">
        <ele>1251.4</ele>
        <time>2024-08-14T05:20:47Z</time>
      </trkpt>
      <trkpt lat="44.86882" lon="6.09233">
        <ele>1251.4</ele>
        <time>2024-08-14T05:20:48Z</time>
      </trkpt>
      <trkpt lat="44.86882" lon="6.09233">
        <ele>1251.4</ele>
        <time>2024-08-14T05:20:49Z</time>
      </trkpt>
      <trkpt lat="44.86882" lon="6.09233">
        <ele>1251.2</ele>
        <time>2024-08-14T05:20:50Z</time>
      </trkpt>
      <trkpt lat="44.86882" lon="6.09233">
        <ele>1251.2</ele>
        <time>2024-08-14T05:20:51Z</time>
      </trkpt>
      <trkpt lat="44.86882" lon="6.09233">
        <ele>1251.2</ele>
        <time>2024-08-14T05:20:52Z</time>
      </trkpt>
      <trkpt lat="44.86882" lon="6.09233">
        <ele>1251.2</ele>
        <time>2024-08-14T05:20:53Z</time>
      </trkpt>
      <trkpt lat="44.86882" lon="6.09233">
        <ele>1251.2</ele>
        <time>2024-08-14T05:20:54Z</time>
      </trkpt>
      <trkpt lat="44.86882" lon="6.09233">
        <ele>1251.2</ele>
        <time>2024-08-14T05:20:55Z</time>
      </trkpt>
      <trkpt lat="44.86882" lon="6.09233">
        <ele>1251.2</ele>
        <time>2024-08-14T05:20:56Z</time>
      </trkpt>
      <trkpt lat="44.86882" lon="6.09233">
        <ele>1250.8</ele>
        <time>2024-08-14T05:20:57Z</time>
      </trkpt>
      <trkpt lat="44.86882" lon="6.09233">
        <ele>1250.8</ele>
        <time>2024-08-14T05:20:58Z</time>
      </trkpt>
      <trkpt lat="44.86882" lon="6.09233">
        <ele>1251</ele>
        <time>2024-08-14T05:20:59Z</time>
      </trkpt>
      <trkpt lat="44.86882" lon="6.09233">
        <ele>1250.8</ele>
        <time>2024-08-14T05:21:00Z</time>
      </trkpt>
      <trkpt lat="44.86882" lon="6.09233">
        <ele>1250.8</ele>
        <time>2024-08-14T05:21:01Z</time>
      </trkpt>
      <trkpt lat="44.86882" lon="6.09233">
        <ele>1250.8</ele>
        <time>2024-08-14T05:21:02Z</time>
      </trkpt>
      <trkpt lat="44.86882" lon="6.09233">
        <ele>1250.8</ele>
        <time>2024-08-14T05:21:03Z</time>
      </trkpt>
      <trkpt lat="44.86882" lon="6.09233">
        <ele>1250.8</ele>
        <time>2024-08-14T05:21:04Z</time>
      </trkpt>
      <trkpt lat="44.86882" lon="6.09233">
        <ele>1250.8</ele>
        <time>2024-08-14T05:21:05Z</time>
      </trkpt>
      <trkpt lat="44.86882" lon="6.09233">
        <ele>1250.8</ele>
        <time>2024-08-14T05:21:06Z</time>
      </trkpt>
      <trkpt lat="44.86882" lon="6.09233">
        <ele>1250.8</ele>
        <time>2024-08-14T05:21:07Z</time>
      </trkpt>
      <trkpt lat="44.86882" lon="6.09233">
        <ele>1250.6</ele>
        <time>2024-08-14T05:21:08Z</time>
      </trkpt>
      <trkpt lat="44.86882" lon="6.09233">
        <ele>1250.4</ele>
        <time>2024-08-14T05:21:09Z</time>
      </trkpt>
      <trkpt lat="44.86882" lon="6.09233">
        <ele>1250.4</ele>
        <time>2024-08-14T05:21:10Z</time>
      </trkpt>
      <trkpt lat="44.86882" lon="6.09233">
        <ele>1250.2</ele>
        <time>2024-08-14T05:21:11Z</time>
      </trkpt>
      <trkpt lat="44.86884" lon="6.09231">
        <ele>1250.2</ele>
        <time>2024-08-14T05:21:12Z</time>
      </trkpt>
      <trkpt lat="44.86885" lon="6.0923">
        <ele>1250.4</ele>
        <time>2024-08-14T05:21:13Z</time>
      </trkpt>
      <trkpt lat="44.86885" lon="6.0923">
        <ele>1250.8</ele>
        <time>2024-08-14T05:21:14Z</time>
      </trkpt>
      <trkpt lat="44.86889" lon="6.09228">
        <ele>1250.8</ele>
        <time>2024-08-14T05:21:15Z</time>
      </trkpt>
      <trkpt lat="44.86891" lon="6.09228">
        <ele>1250.8</ele>
        <time>2024-08-14T05:21:16Z</time>
      </trkpt>
      <trkpt lat="44.86891" lon="6.09228">
        <ele>1250.8</ele>
        <time>2024-08-14T05:21:17Z</time>
      </trkpt>
      <trkpt lat="44.86894" lon="6.09228">
        <ele>1251.2</ele>
        <time>2024-08-14T05:21:18Z</time>
      </trkpt>
      <trkpt lat="44.86894" lon="6.09228">
        <ele>1251.2</ele>
        <time>2024-08-14T05:21:19Z</time>
      </trkpt>
      <trkpt lat="44.86897" lon="6.09228">
        <ele>1251.4</ele>
        <time>2024-08-14T05:21:20Z</time>
      </trkpt>
      <trkpt lat="44.86897" lon="6.09228">
        <ele>1251.6</ele>
        <time>2024-08-14T05:21:21Z</time>
      </trkpt>
      <trkpt lat="44.869" lon="6.09228">
        <ele>1251.6</ele>
        <time>2024-08-14T05:21:22Z</time>
      </trkpt>
      <trkpt lat="44.869" lon="6.09228">
        <ele>1251.8</ele>
        <time>2024-08-14T05:21:23Z</time>
      </trkpt>
      <trkpt lat="44.86902" lon="6.0923">
        <ele>1252.2</ele>
        <time>2024-08-14T05:21:24Z</time>
      </trkpt>
      <trkpt lat="44.86902" lon="6.0923">
        <ele>1252.4</ele>
        <time>2024-08-14T05:21:25Z</time>
      </trkpt>
      <trkpt lat="44.86905" lon="6.09231">
        <ele>1252.6</ele>
        <time>2024-08-14T05:21:26Z</time>
      </trkpt>
      <trkpt lat="44.86905" lon="6.09231">
        <ele>1252.6</ele>
        <time>2024-08-14T05:21:27Z</time>
      </trkpt>
      <trkpt lat="44.86907" lon="6.09231">
        <ele>1253</ele>
        <time>2024-08-14T05:21:28Z</time>
      </trkpt>
      <trkpt lat="44.86907" lon="6.09231">
        <ele>1253.2</ele>
        <time>2024-08-14T05:21:29Z</time>
      </trkpt>
      <trkpt lat="44.86909" lon="6.09232">
        <ele>1253.2</ele>
        <time>2024-08-14T05:21:30Z</time>
      </trkpt>
      <trkpt lat="44.86909" lon="6.09232">
        <ele>1253.2</ele>
        <time>2024-08-14T05:21:31Z</time>
      </trkpt>
      <trkpt lat="44.86912" lon="6.09231">
        <ele>1253.6</ele>
        <time>2024-08-14T05:21:32Z</time>
      </trkpt>
      <trkpt lat="44.86912" lon="6.09231">
        <ele>1253.6</ele>
        <time>2024-08-14T05:21:33Z</time>
      </trkpt>
      <trkpt lat="44.86915" lon="6.0923">
        <ele>1253.8</ele>
        <time>2024-08-14T05:21:34Z</time>
      </trkpt>
      <trkpt lat="44.86917" lon="6.0923">
        <ele>1254.2</ele>
        <time>2024-08-14T05:21:35Z</time>
      </trkpt>
      <trkpt lat="44.86917" lon="6.0923">
        <ele>1254.4</ele>
        <time>2024-08-14T05:21:36Z</time>
      </trkpt>
      <trkpt lat="44.8692" lon="6.0923">
        <ele>1254.6</ele>
        <time>2024-08-14T05:21:37Z</time>
      </trkpt>
      <trkpt lat="44.8692" lon="6.0923">
        <ele>1254.6</ele>
        <time>2024-08-14T05:21:38Z</time>
      </trkpt>
      <trkpt lat="44.86923" lon="6.0923">
        <ele>1254.8</ele>
        <time>2024-08-14T05:21:39Z</time>
      </trkpt>
      <trkpt lat="44.86923" lon="6.0923">
        <ele>1255.2</ele>
        <time>2024-08-14T05:21:40Z</time>
      </trkpt>
      <trkpt lat="44.86925" lon="6.09229">
        <ele>1255.4</ele>
        <time>2024-08-14T05:21:41Z</time>
      </trkpt>
      <trkpt lat="44.86925" lon="6.09229">
        <ele>1255.6</ele>
        <time>2024-08-14T05:21:42Z</time>
      </trkpt>
      <trkpt lat="44.86928" lon="6.09228">
        <ele>1255.8</ele>
        <time>2024-08-14T05:21:43Z</time>
      </trkpt>
      <trkpt lat="44.86928" lon="6.09228">
        <ele>1256.2</ele>
        <time>2024-08-14T05:21:44Z</time>
      </trkpt>
      <trkpt lat="44.8693" lon="6.09227">
        <ele>1256.6</ele>
        <time>2024-08-14T05:21:45Z</time>
      </trkpt>
      <trkpt lat="44.8693" lon="6.09227">
        <ele>1256.6</ele>
        <time>2024-08-14T05:21:46Z</time>
      </trkpt>
      <trkpt lat="44.86933" lon="6.09228">
        <ele>1256.8</ele>
        <time>2024-08-14T05:21:47Z</time>
      </trkpt>
      <trkpt lat="44.86933" lon="6.09228">
        <ele>1256.8</ele>
        <time>2024-08-14T05:21:48Z</time>
      </trkpt>
      <trkpt lat="44.86935" lon="6.09227">
        <ele>1257.2</ele>
        <time>2024-08-14T05:21:49Z</time>
      </trkpt>
      <trkpt lat="44.86935" lon="6.09227">
        <ele>1257.2</ele>
        <time>2024-08-14T05:21:50Z</time>
      </trkpt>
      <trkpt lat="44.86935" lon="6.09227">
        <ele>1257.4</ele>
        <time>2024-08-14T05:21:51Z</time>
      </trkpt>
      <trkpt lat="44.86937" lon="6.09226">
        <ele>1257.8</ele>
        <time>2024-08-14T05:21:52Z</time>
      </trkpt>
      <trkpt lat="44.86937" lon="6.09226">
        <ele>1258</ele>
        <time>2024-08-14T05:21:53Z</time>
      </trkpt>
      <trkpt lat="44.8694" lon="6.09225">
        <ele>1258.2</ele>
        <time>2024-08-14T05:21:54Z</time>
      </trkpt>
      <trkpt lat="44.8694" lon="6.09225">
        <ele>1258.2</ele>
        <time>2024-08-14T05:21:55Z</time>
      </trkpt>
      <trkpt lat="44.86941" lon="6.09223">
        <ele>1258.2</ele>
        <time>2024-08-14T05:21:56Z</time>
      </trkpt>
      <trkpt lat="44.86941" lon="6.09223">
        <ele>1258.2</ele>
        <time>2024-08-14T05:21:57Z</time>
      </trkpt>
      <trkpt lat="44.86943" lon="6.09221">
        <ele>1258.4</ele>
        <time>2024-08-14T05:21:58Z</time>
      </trkpt>
      <trkpt lat="44.86943" lon="6.09221">
        <ele>1258.6</ele>
        <time>2024-08-14T05:21:59Z</time>
      </trkpt>
      <trkpt lat="44.86945" lon="6.0922">
        <ele>1259</ele>
        <time>2024-08-14T05:22:00Z</time>
      </trkpt>
      <trkpt lat="44.86945" lon="6.0922">
        <ele>1259</ele>
        <time>2024-08-14T05:22:01Z</time>
      </trkpt>
      <trkpt lat="44.86949" lon="6.09219">
        <ele>1259.4</ele>
        <time>2024-08-14T05:22:02Z</time>
      </trkpt>
      <trkpt lat="44.86949" lon="6.09219">
        <ele>1259.6</ele>
        <time>2024-08-14T05:22:03Z</time>
      </trkpt>
      <trkpt lat="44.86951" lon="6.09218">
        <ele>1260.2</ele>
        <time>2024-08-14T05:22:04Z</time>
      </trkpt>
      <trkpt lat="44.86953" lon="6.09218">
        <ele>1260.2</ele>
        <time>2024-08-14T05:22:05Z</time>
      </trkpt>
      <trkpt lat="44.86953" lon="6.09218">
        <ele>1260.6</ele>
        <time>2024-08-14T05:22:06Z</time>
      </trkpt>
      <trkpt lat="44.86955" lon="6.09215">
        <ele>1260.6</ele>
        <time>2024-08-14T05:22:07Z</time>
      </trkpt>
      <trkpt lat="44.86955" lon="6.09215">
        <ele>1261</ele>
        <time>2024-08-14T05:22:08Z</time>
      </trkpt>
      <trkpt lat="44.86957" lon="6.09216">
        <ele>1261</ele>
        <time>2024-08-14T05:22:09Z</time>
      </trkpt>
      <trkpt lat="44.86957" lon="6.09216">
        <ele>1261.2</ele>
        <time>2024-08-14T05:22:10Z</time>
      </trkpt>
      <trkpt lat="44.86957" lon="6.09216">
        <ele>1261.4</ele>
        <time>2024-08-14T05:22:11Z</time>
      </trkpt>
      <trkpt lat="44.86959" lon="6.09214">
        <ele>1261.6</ele>
        <time>2024-08-14T05:22:12Z</time>
      </trkpt>
      <trkpt lat="44.86959" lon="6.09214">
        <ele>1262.2</ele>
        <time>2024-08-14T05:22:13Z</time>
      </trkpt>
      <trkpt lat="44.8696" lon="6.09212">
        <ele>1262.8</ele>
        <time>2024-08-14T05:22:14Z</time>
      </trkpt>
      <trkpt lat="44.8696" lon="6.09212">
        <ele>1262.8</ele>
        <time>2024-08-14T05:22:15Z</time>
      </trkpt>
      <trkpt lat="44.86962" lon="6.0921">
        <ele>1262.6</ele>
        <time>2024-08-14T05:22:16Z</time>
      </trkpt>
      <trkpt lat="44.86962" lon="6.0921">
        <ele>1262.6</ele>
        <time>2024-08-14T05:22:17Z</time>
      </trkpt>
      <trkpt lat="44.86964" lon="6.09208">
        <ele>1262.8</ele>
        <time>2024-08-14T05:22:18Z</time>
      </trkpt>
      <trkpt lat="44.86964" lon="6.09208">
        <ele>1262.8</ele>
        <time>2024-08-14T05:22:19Z</time>
      </trkpt>
      <trkpt lat="44.86966" lon="6.09207">
        <ele>1263</ele>
        <time>2024-08-14T05:22:20Z</time>
      </trkpt>
      <trkpt lat="44.86966" lon="6.09207">
        <ele>1263.2</ele>
        <time>2024-08-14T05:22:21Z</time>
      </trkpt>
      <trkpt lat="44.86969" lon="6.09206">
        <ele>1263.8</ele>
        <time>2024-08-14T05:22:22Z</time>
      </trkpt>
      <trkpt lat="44.86969" lon="6.09206">
        <ele>1264</ele>
        <time>2024-08-14T05:22:23Z</time>
      </trkpt>
      <trkpt lat="44.86971" lon="6.09205">
        <ele>1264.2</ele>
        <time>2024-08-14T05:22:24Z</time>
      </trkpt>
      <trkpt lat="44.86971" lon="6.09205">
        <ele>1264.4</ele>
        <time>2024-08-14T05:22:25Z</time>
      </trkpt>
      <trkpt lat="44.86973" lon="6.09203">
        <ele>1264.6</ele>
        <time>2024-08-14T05:22:26Z</time>
      </trkpt>
      <trkpt lat="44.86973" lon="6.09203">
        <ele>1264.8</ele>
        <time>2024-08-14T05:22:27Z</time>
      </trkpt>
      <trkpt lat="44.86973" lon="6.09203">
        <ele>1265</ele>
        <time>2024-08-14T05:22:28Z</time>
      </trkpt>
      <trkpt lat="44.86973" lon="6.09203">
        <ele>1265.2</ele>
        <time>2024-08-14T05:22:29Z</time>
      </trkpt>
      <trkpt lat="44.86974" lon="6.092">
        <ele>1265.2</ele>
        <time>2024-08-14T05:22:30Z</time>
      </trkpt>
      <trkpt lat="44.86974" lon="6.092">
        <ele>1265.2</ele>
        <time>2024-08-14T05:22:31Z</time>
      </trkpt>
      <trkpt lat="44.86974" lon="6.092">
        <ele>1265.4</ele>
        <time>2024-08-14T05:22:32Z</time>
      </trkpt>
      <trkpt lat="44.86977" lon="6.09198">
        <ele>1265.6</ele>
        <time>2024-08-14T05:22:33Z</time>
      </trkpt>
      <trkpt lat="44.86977" lon="6.09198">
        <ele>1265.6</ele>
        <time>2024-08-14T05:22:34Z</time>
      </trkpt>
      <trkpt lat="44.8698" lon="6.09197">
        <ele>1265.6</ele>
        <time>2024-08-14T05:22:35Z</time>
      </trkpt>
      <trkpt lat="44.8698" lon="6.09197">
        <ele>1265.6</ele>
        <time>2024-08-14T05:22:36Z</time>
      </trkpt>
      <trkpt lat="44.86982" lon="6.09196">
        <ele>1266</ele>
        <time>2024-08-14T05:22:37Z</time>
      </trkpt>
      <trkpt lat="44.86982" lon="6.09196">
        <ele>1266.2</ele>
        <time>2024-08-14T05:22:38Z</time>
      </trkpt>
      <trkpt lat="44.86985" lon="6.09196">
        <ele>1266.4</ele>
        <time>2024-08-14T05:22:39Z</time>
      </trkpt>
      <trkpt lat="44.86985" lon="6.09196">
        <ele>1266.4</ele>
        <time>2024-08-14T05:22:40Z</time>
      </trkpt>
      <trkpt lat="44.86987" lon="6.09196">
        <ele>1266.6</ele>
        <time>2024-08-14T05:22:41Z</time>
      </trkpt>
      <trkpt lat="44.86987" lon="6.09196">
        <ele>1266.8</ele>
        <time>2024-08-14T05:22:42Z</time>
      </trkpt>
      <trkpt lat="44.86989" lon="6.09194">
        <ele>1267</ele>
        <time>2024-08-14T05:22:43Z</time>
      </trkpt>
      <trkpt lat="44.86989" lon="6.09194">
        <ele>1267.4</ele>
        <time>2024-08-14T05:22:44Z</time>
      </trkpt>
      <trkpt lat="44.86991" lon="6.09193">
        <ele>1267.4</ele>
        <time>2024-08-14T05:22:45Z</time>
      </trkpt>
      <trkpt lat="44.86991" lon="6.09193">
        <ele>1267.6</ele>
        <time>2024-08-14T05:22:46Z</time>
      </trkpt>
      <trkpt lat="44.86994" lon="6.09193">
        <ele>1267.8</ele>
        <time>2024-08-14T05:22:47Z</time>
      </trkpt>
      <trkpt lat="44.86994" lon="6.09193">
        <ele>1268.2</ele>
        <time>2024-08-14T05:22:48Z</time>
      </trkpt>
      <trkpt lat="44.86997" lon="6.09193">
        <ele>1268.2</ele>
        <time>2024-08-14T05:22:49Z</time>
      </trkpt>
      <trkpt lat="44.86997" lon="6.09193">
        <ele>1268.2</ele>
        <time>2024-08-14T05:22:50Z</time>
      </trkpt>
      <trkpt lat="44.86998" lon="6.09192">
        <ele>1268.4</ele>
        <time>2024-08-14T05:22:51Z</time>
      </trkpt>
      <trkpt lat="44.86998" lon="6.09192">
        <ele>1268.4</ele>
        <time>2024-08-14T05:22:52Z</time>
      </trkpt>
      <trkpt lat="44.87001" lon="6.09192">
        <ele>1268.8</ele>
        <time>2024-08-14T05:22:53Z</time>
      </trkpt>
      <trkpt lat="44.87001" lon="6.09192">
        <ele>1268.8</ele>
        <time>2024-08-14T05:22:54Z</time>
      </trkpt>
      <trkpt lat="44.87003" lon="6.09191">
        <ele>1269</ele>
        <time>2024-08-14T05:22:55Z</time>
      </trkpt>
      <trkpt lat="44.87003" lon="6.09191">
        <ele>1269.2</ele>
        <time>2024-08-14T05:22:56Z</time>
      </trkpt>
      <trkpt lat="44.87004" lon="6.0919">
        <ele>1269.4</ele>
        <time>2024-08-14T05:22:57Z</time>
      </trkpt>
      <trkpt lat="44.87004" lon="6.0919">
        <ele>1269.4</ele>
        <time>2024-08-14T05:22:58Z</time>
      </trkpt>
      <trkpt lat="44.87006" lon="6.09191">
        <ele>1269.6</ele>
        <time>2024-08-14T05:22:59Z</time>
      </trkpt>
      <trkpt lat="44.87006" lon="6.09191">
        <ele>1269.8</ele>
        <time>2024-08-14T05:23:00Z</time>
      </trkpt>
      <trkpt lat="44.87009" lon="6.09191">
        <ele>1269.8</ele>
        <time>2024-08-14T05:23:01Z</time>
      </trkpt>
      <trkpt lat="44.87009" lon="6.09191">
        <ele>1270.2</ele>
        <time>2024-08-14T05:23:02Z</time>
      </trkpt>
      <trkpt lat="44.87011" lon="6.09191">
        <ele>1270.4</ele>
        <time>2024-08-14T05:23:03Z</time>
      </trkpt>
      <trkpt lat="44.87011" lon="6.09191">
        <ele>1270.4</ele>
        <time>2024-08-14T05:23:04Z</time>
      </trkpt>
      <trkpt lat="44.87011" lon="6.09191">
        <ele>1270.6</ele>
        <time>2024-08-14T05:23:05Z</time>
      </trkpt>
      <trkpt lat="44.87011" lon="6.09191">
        <ele>1270.8</ele>
        <time>2024-08-14T05:23:06Z</time>
      </trkpt>
      <trkpt lat="44.87014" lon="6.09189">
        <ele>1271</ele>
        <time>2024-08-14T05:23:07Z</time>
      </trkpt>
      <trkpt lat="44.87014" lon="6.09189">
        <ele>1271.4</ele>
        <time>2024-08-14T05:23:08Z</time>
      </trkpt>
      <trkpt lat="44.87014" lon="6.09189">
        <ele>1271.4</ele>
        <time>2024-08-14T05:23:09Z</time>
      </trkpt>
      <trkpt lat="44.87016" lon="6.09187">
        <ele>1271.4</ele>
        <time>2024-08-14T05:23:10Z</time>
      </trkpt>
      <trkpt lat="44.87016" lon="6.09187">
        <ele>1271.8</ele>
        <time>2024-08-14T05:23:11Z</time>
      </trkpt>
      <trkpt lat="44.87016" lon="6.09187">
        <ele>1272</ele>
        <time>2024-08-14T05:23:12Z</time>
      </trkpt>
      <trkpt lat="44.87016" lon="6.09187">
        <ele>1272.2</ele>
        <time>2024-08-14T05:23:13Z</time>
      </trkpt>
      <trkpt lat="44.87018" lon="6.09186">
        <ele>1272.2</ele>
        <time>2024-08-14T05:23:14Z</time>
      </trkpt>
      <trkpt lat="44.87018" lon="6.09186">
        <ele>1272.4</ele>
        <time>2024-08-14T05:23:15Z</time>
      </trkpt>
      <trkpt lat="44.8702" lon="6.09186">
        <ele>1272.4</ele>
        <time>2024-08-14T05:23:16Z</time>
      </trkpt>
      <trkpt lat="44.8702" lon="6.09186">
        <ele>1272.8</ele>
        <time>2024-08-14T05:23:17Z</time>
      </trkpt>
      <trkpt lat="44.87022" lon="6.09187">
        <ele>1272.8</ele>
        <time>2024-08-14T05:23:18Z</time>
      </trkpt>
      <trkpt lat="44.87022" lon="6.09187">
        <ele>1273</ele>
        <time>2024-08-14T05:23:19Z</time>
      </trkpt>
      <trkpt lat="44.87022" lon="6.09187">
        <ele>1273.2</ele>
        <time>2024-08-14T05:23:20Z</time>
      </trkpt>
      <trkpt lat="44.87024" lon="6.09188">
        <ele>1273.2</ele>
        <time>2024-08-14T05:23:21Z</time>
      </trkpt>
      <trkpt lat="44.87026" lon="6.09189">
        <ele>1273.6</ele>
        <time>2024-08-14T05:23:22Z</time>
      </trkpt>
      <trkpt lat="44.87026" lon="6.09189">
        <ele>1273.8</ele>
        <time>2024-08-14T05:23:23Z</time>
      </trkpt>
      <trkpt lat="44.87027" lon="6.0919">
        <ele>1274.2</ele>
        <time>2024-08-14T05:23:24Z</time>
      </trkpt>
      <trkpt lat="44.87027" lon="6.0919">
        <ele>1274.2</ele>
        <time>2024-08-14T05:23:25Z</time>
      </trkpt>
      <trkpt lat="44.8703" lon="6.09193">
        <ele>1274.2</ele>
        <time>2024-08-14T05:23:26Z</time>
      </trkpt>
      <trkpt lat="44.8703" lon="6.09193">
        <ele>1274.4</ele>
        <time>2024-08-14T05:23:27Z</time>
      </trkpt>
      <trkpt lat="44.87032" lon="6.09194">
        <ele>1274.8</ele>
        <time>2024-08-14T05:23:28Z</time>
      </trkpt>
      <trkpt lat="44.87032" lon="6.09194">
        <ele>1275</ele>
        <time>2024-08-14T05:23:29Z</time>
      </trkpt>
      <trkpt lat="44.87032" lon="6.09194">
        <ele>1275</ele>
        <time>2024-08-14T05:23:30Z</time>
      </trkpt>
      <trkpt lat="44.87032" lon="6.09194">
        <ele>1275.4</ele>
        <time>2024-08-14T05:23:31Z</time>
      </trkpt>
      <trkpt lat="44.87035" lon="6.09194">
        <ele>1275.4</ele>
        <time>2024-08-14T05:23:32Z</time>
      </trkpt>
      <trkpt lat="44.87035" lon="6.09194">
        <ele>1275.8</ele>
        <time>2024-08-14T05:23:33Z</time>
      </trkpt>
      <trkpt lat="44.87035" lon="6.09194">
        <ele>1275.8</ele>
        <time>2024-08-14T05:23:34Z</time>
      </trkpt>
      <trkpt lat="44.87037" lon="6.09193">
        <ele>1275.8</ele>
        <time>2024-08-14T05:23:35Z</time>
      </trkpt>
      <trkpt lat="44.87037" lon="6.09193">
        <ele>1275.8</ele>
        <time>2024-08-14T05:23:36Z</time>
      </trkpt>
      <trkpt lat="44.87037" lon="6.09193">
        <ele>1276.2</ele>
        <time>2024-08-14T05:23:37Z</time>
      </trkpt>
      <trkpt lat="44.8704" lon="6.09193">
        <ele>1276.6</ele>
        <time>2024-08-14T05:23:38Z</time>
      </trkpt>
      <trkpt lat="44.8704" lon="6.09193">
        <ele>1276.6</ele>
        <time>2024-08-14T05:23:39Z</time>
      </trkpt>
      <trkpt lat="44.87042" lon="6.09192">
        <ele>1276.6</ele>
        <time>2024-08-14T05:23:40Z</time>
      </trkpt>
      <trkpt lat="44.87042" lon="6.09192">
        <ele>1276.8</ele>
        <time>2024-08-14T05:23:41Z</time>
      </trkpt>
      <trkpt lat="44.87042" lon="6.09192">
        <ele>1277</ele>
        <time>2024-08-14T05:23:42Z</time>
      </trkpt>
      <trkpt lat="44.87044" lon="6.09191">
        <ele>1277.2</ele>
        <time>2024-08-14T05:23:43Z</time>
      </trkpt>
      <trkpt lat="44.87044" lon="6.09191">
        <ele>1277.2</ele>
        <time>2024-08-14T05:23:44Z</time>
      </trkpt>
      <trkpt lat="44.87046" lon="6.09191">
        <ele>1277.6</ele>
        <time>2024-08-14T05:23:45Z</time>
      </trkpt>
      <trkpt lat="44.87046" lon="6.09191">
        <ele>1277.6</ele>
        <time>2024-08-14T05:23:46Z</time>
      </trkpt>
      <trkpt lat="44.87046" lon="6.09191">
        <ele>1278</ele>
        <time>2024-08-14T05:23:47Z</time>
      </trkpt>
      <trkpt lat="44.87048" lon="6.09191">
        <ele>1278.2</ele>
        <time>2024-08-14T05:23:48Z</time>
      </trkpt>
      <trkpt lat="44.87048" lon="6.09191">
        <ele>1278.4</ele>
        <time>2024-08-14T05:23:49Z</time>
      </trkpt>
      <trkpt lat="44.8705" lon="6.09192">
        <ele>1278.6</ele>
        <time>2024-08-14T05:23:50Z</time>
      </trkpt>
      <trkpt lat="44.8705" lon="6.09192">
        <ele>1278.6</ele>
        <time>2024-08-14T05:23:51Z</time>
      </trkpt>
      <trkpt lat="44.87052" lon="6.09193">
        <ele>1278.8</ele>
        <time>2024-08-14T05:23:52Z</time>
      </trkpt>
      <trkpt lat="44.87052" lon="6.09193">
        <ele>1279</ele>
        <time>2024-08-14T05:23:53Z</time>
      </trkpt>
      <trkpt lat="44.87052" lon="6.09193">
        <ele>1279.2</ele>
        <time>2024-08-14T05:23:54Z</time>
      </trkpt>
      <trkpt lat="44.87054" lon="6.09195">
        <ele>1279.4</ele>
        <time>2024-08-14T05:23:55Z</time>
      </trkpt>
      <trkpt lat="44.87054" lon="6.09195">
        <ele>1279.8</ele>
        <time>2024-08-14T05:23:56Z</time>
      </trkpt>
      <trkpt lat="44.87054" lon="6.09195">
        <ele>1280</ele>
        <time>2024-08-14T05:23:57Z</time>
      </trkpt>
      <trkpt lat="44.87056" lon="6.09195">
        <ele>1280.2</ele>
        <time>2024-08-14T05:23:58Z</time>
      </trkpt>
      <trkpt lat="44.87056" lon="6.09195">
        <ele>1280.4</ele>
        <time>2024-08-14T05:23:59Z</time>
      </trkpt>
      <trkpt lat="44.87058" lon="6.09196">
        <ele>1280.6</ele>
        <time>2024-08-14T05:24:00Z</time>
      </trkpt>
      <trkpt lat="44.87058" lon="6.09196">
        <ele>1280.6</ele>
        <time>2024-08-14T05:24:01Z</time>
      </trkpt>
      <trkpt lat="44.8706" lon="6.09195">
        <ele>1280.6</ele>
        <time>2024-08-14T05:24:02Z</time>
      </trkpt>
      <trkpt lat="44.8706" lon="6.09195">
        <ele>1280.8</ele>
        <time>2024-08-14T05:24:03Z</time>
      </trkpt>
      <trkpt lat="44.8706" lon="6.09195">
        <ele>1281</ele>
        <time>2024-08-14T05:24:04Z</time>
      </trkpt>
      <trkpt lat="44.87062" lon="6.09196">
        <ele>1281.2</ele>
        <time>2024-08-14T05:24:05Z</time>
      </trkpt>
      <trkpt lat="44.87062" lon="6.09196">
        <ele>1281.2</ele>
        <time>2024-08-14T05:24:06Z</time>
      </trkpt>
      <trkpt lat="44.87062" lon="6.09196">
        <ele>1281.4</ele>
        <time>2024-08-14T05:24:07Z</time>
      </trkpt>
      <trkpt lat="44.87064" lon="6.09197">
        <ele>1281.8</ele>
        <time>2024-08-14T05:24:08Z</time>
      </trkpt>
      <trkpt lat="44.87064" lon="6.09197">
        <ele>1282</ele>
        <time>2024-08-14T05:24:09Z</time>
      </trkpt>
      <trkpt lat="44.87064" lon="6.09197">
        <ele>1282</ele>
        <time>2024-08-14T05:24:10Z</time>
      </trkpt>
      <trkpt lat="44.87067" lon="6.09198">
        <ele>1282.2</ele>
        <time>2024-08-14T05:24:11Z</time>
      </trkpt>
      <trkpt lat="44.87067" lon="6.09198">
        <ele>1282.6</ele>
        <time>2024-08-14T05:24:12Z</time>
      </trkpt>
      <trkpt lat="44.87067" lon="6.09198">
        <ele>1282.8</ele>
        <time>2024-08-14T05:24:13Z</time>
      </trkpt>
      <trkpt lat="44.87069" lon="6.09197">
        <ele>1282.8</ele>
        <time>2024-08-14T05:24:14Z</time>
      </trkpt>
      <trkpt lat="44.87069" lon="6.09197">
        <ele>1283</ele>
        <time>2024-08-14T05:24:15Z</time>
      </trkpt>
      <trkpt lat="44.87071" lon="6.09198">
        <ele>1283.2</ele>
        <time>2024-08-14T05:24:16Z</time>
      </trkpt>
      <trkpt lat="44.87071" lon="6.09198">
        <ele>1283.4</ele>
        <time>2024-08-14T05:24:17Z</time>
      </trkpt>
      <trkpt lat="44.87071" lon="6.09198">
        <ele>1283.4</ele>
        <time>2024-08-14T05:24:18Z</time>
      </trkpt>
      <trkpt lat="44.87073" lon="6.09198">
        <ele>1283.6</ele>
        <time>2024-08-14T05:24:19Z</time>
      </trkpt>
      <trkpt lat="44.87073" lon="6.09198">
        <ele>1283.6</ele>
        <time>2024-08-14T05:24:20Z</time>
      </trkpt>
      <trkpt lat="44.87075" lon="6.09199">
        <ele>1284</ele>
        <time>2024-08-14T05:24:21Z</time>
      </trkpt>
      <trkpt lat="44.87075" lon="6.09199">
        <ele>1284.2</ele>
        <time>2024-08-14T05:24:22Z</time>
      </trkpt>
      <trkpt lat="44.87075" lon="6.09199">
        <ele>1284.6</ele>
        <time>2024-08-14T05:24:23Z</time>
      </trkpt>
      <trkpt lat="44.87078" lon="6.092">
        <ele>1284.6</ele>
        <time>2024-08-14T05:24:24Z</time>
      </trkpt>
      <trkpt lat="44.87078" lon="6.092">
        <ele>1284.8</ele>
        <time>2024-08-14T05:24:25Z</time>
      </trkpt>
      <trkpt lat="44.8708" lon="6.09201">
        <ele>1284.8</ele>
        <time>2024-08-14T05:24:26Z</time>
      </trkpt>
      <trkpt lat="44.8708" lon="6.09201">
        <ele>1284.8</ele>
        <time>2024-08-14T05:24:27Z</time>
      </trkpt>
      <trkpt lat="44.8708" lon="6.09201">
        <ele>1285.4</ele>
        <time>2024-08-14T05:24:28Z</time>
      </trkpt>
      <trkpt lat="44.87082" lon="6.09202">
        <ele>1285.4</ele>
        <time>2024-08-14T05:24:29Z</time>
      </trkpt>
      <trkpt lat="44.87082" lon="6.09202">
        <ele>1285.4</ele>
        <time>2024-08-14T05:24:30Z</time>
      </trkpt>
      <trkpt lat="44.87084" lon="6.09204">
        <ele>1285.6</ele>
        <time>2024-08-14T05:24:31Z</time>
      </trkpt>
      <trkpt lat="44.87084" lon="6.09204">
        <ele>1286</ele>
        <time>2024-08-14T05:24:32Z</time>
      </trkpt>
      <trkpt lat="44.87085" lon="6.09205">
        <ele>1286</ele>
        <time>2024-08-14T05:24:33Z</time>
      </trkpt>
      <trkpt lat="44.87085" lon="6.09205">
        <ele>1286</ele>
        <time>2024-08-14T05:24:34Z</time>
      </trkpt>
      <trkpt lat="44.87087" lon="6.09206">
        <ele>1286.2</ele>
        <time>2024-08-14T05:24:35Z</time>
      </trkpt>
      <trkpt lat="44.87087" lon="6.09206">
        <ele>1286.6</ele>
        <time>2024-08-14T05:24:36Z</time>
      </trkpt>
      <trkpt lat="44.87089" lon="6.09208">
        <ele>1286.8</ele>
        <time>2024-08-14T05:24:37Z</time>
      </trkpt>
      <trkpt lat="44.87089" lon="6.09208">
        <ele>1286.8</ele>
        <time>2024-08-14T05:24:38Z</time>
      </trkpt>
      <trkpt lat="44.8709" lon="6.09211">
        <ele>1287.4</ele>
        <time>2024-08-14T05:24:39Z</time>
      </trkpt>
      <trkpt lat="44.8709" lon="6.09211">
        <ele>1287.4</ele>
        <time>2024-08-14T05:24:40Z</time>
      </trkpt>
      <trkpt lat="44.87091" lon="6.09213">
        <ele>1287.8</ele>
        <time>2024-08-14T05:24:41Z</time>
      </trkpt>
      <trkpt lat="44.87091" lon="6.09213">
        <ele>1288</ele>
        <time>2024-08-14T05:24:42Z</time>
      </trkpt>
      <trkpt lat="44.87093" lon="6.09216">
        <ele>1288</ele>
        <time>2024-08-14T05:24:43Z</time>
      </trkpt>
      <trkpt lat="44.87093" lon="6.09216">
        <ele>1288.2</ele>
        <time>2024-08-14T05:24:44Z</time>
      </trkpt>
      <trkpt lat="44.87094" lon="6.09219">
        <ele>1288.4</ele>
        <time>2024-08-14T05:24:45Z</time>
      </trkpt>
      <trkpt lat="44.87094" lon="6.09219">
        <ele>1288.6</ele>
        <time>2024-08-14T05:24:46Z</time>
      </trkpt>
      <trkpt lat="44.87096" lon="6.09222">
        <ele>1288.8</ele>
        <time>2024-08-14T05:24:47Z</time>
      </trkpt>
      <trkpt lat="44.87096" lon="6.09222">
        <ele>1288.8</ele>
        <time>2024-08-14T05:24:48Z</time>
      </trkpt>
      <trkpt lat="44.87097" lon="6.09224">
        <ele>1288.8</ele>
        <time>2024-08-14T05:24:49Z</time>
      </trkpt>
      <trkpt lat="44.87097" lon="6.09224">
        <ele>1289</ele>
        <time>2024-08-14T05:24:50Z</time>
      </trkpt>
      <trkpt lat="44.87099" lon="6.09226">
        <ele>1289</ele>
        <time>2024-08-14T05:24:51Z</time>
      </trkpt>
      <trkpt lat="44.87099" lon="6.09226">
        <ele>1289.2</ele>
        <time>2024-08-14T05:24:52Z</time>
      </trkpt>
      <trkpt lat="44.87101" lon="6.09227">
        <ele>1289.2</ele>
        <time>2024-08-14T05:24:53Z</time>
      </trkpt>
      <trkpt lat="44.87101" lon="6.09227">
        <ele>1289.6</ele>
        <time>2024-08-14T05:24:54Z</time>
      </trkpt>
      <trkpt lat="44.87101" lon="6.09227">
        <ele>1289.8</ele>
        <time>2024-08-14T05:24:55Z</time>
      </trkpt>
      <trkpt lat="44.87103" lon="6.0923">
        <ele>1290</ele>
        <time>2024-08-14T05:24:56Z</time>
      </trkpt>
      <trkpt lat="44.87103" lon="6.0923">
        <ele>1290.2</ele>
        <time>2024-08-14T05:24:57Z</time>
      </trkpt>
      <trkpt lat="44.87103" lon="6.0923">
        <ele>1290.2</ele>
        <time>2024-08-14T05:24:58Z</time>
      </trkpt>
      <trkpt lat="44.87105" lon="6.09232">
        <ele>1290.6</ele>
        <time>2024-08-14T05:24:59Z</time>
      </trkpt>
      <trkpt lat="44.87105" lon="6.09232">
        <ele>1291.2</ele>
        <time>2024-08-14T05:25:00Z</time>
      </trkpt>
      <trkpt lat="44.87106" lon="6.09234">
        <ele>1291.2</ele>
        <time>2024-08-14T05:25:01Z</time>
      </trkpt>
      <trkpt lat="44.87106" lon="6.09234">
        <ele>1291.2</ele>
        <time>2024-08-14T05:25:02Z</time>
      </trkpt>
      <trkpt lat="44.87108" lon="6.09236">
        <ele>1291.6</ele>
        <time>2024-08-14T05:25:03Z</time>
      </trkpt>
      <trkpt lat="44.87108" lon="6.09236">
        <ele>1291.6</ele>
        <time>2024-08-14T05:25:04Z</time>
      </trkpt>
      <trkpt lat="44.87109" lon="6.09238">
        <ele>1292</ele>
        <time>2024-08-14T05:25:05Z</time>
      </trkpt>
      <trkpt lat="44.87109" lon="6.09238">
        <ele>1292</ele>
        <time>2024-08-14T05:25:06Z</time>
      </trkpt>
      <trkpt lat="44.87109" lon="6.09238">
        <ele>1292.4</ele>
        <time>2024-08-14T05:25:07Z</time>
      </trkpt>
      <trkpt lat="44.87111" lon="6.0924">
        <ele>1292.6</ele>
        <time>2024-08-14T05:25:08Z</time>
      </trkpt>
      <trkpt lat="44.87111" lon="6.0924">
        <ele>1292.6</ele>
        <time>2024-08-14T05:25:09Z</time>
      </trkpt>
      <trkpt lat="44.87113" lon="6.09241">
        <ele>1292.6</ele>
        <time>2024-08-14T05:25:10Z</time>
      </trkpt>
      <trkpt lat="44.87113" lon="6.09241">
        <ele>1292.8</ele>
        <time>2024-08-14T05:25:11Z</time>
      </trkpt>
      <trkpt lat="44.87115" lon="6.09242">
        <ele>1293</ele>
        <time>2024-08-14T05:25:12Z</time>
      </trkpt>
      <trkpt lat="44.87115" lon="6.09242">
        <ele>1293.2</ele>
        <time>2024-08-14T05:25:13Z</time>
      </trkpt>
      <trkpt lat="44.87117" lon="6.09243">
        <ele>1293.8</ele>
        <time>2024-08-14T05:25:14Z</time>
      </trkpt>
      <trkpt lat="44.87117" lon="6.09243">
        <ele>1293.8</ele>
        <time>2024-08-14T05:25:15Z</time>
      </trkpt>
      <trkpt lat="44.87118" lon="6.09245">
        <ele>1294</ele>
        <time>2024-08-14T05:25:16Z</time>
      </trkpt>
      <trkpt lat="44.87118" lon="6.09245">
        <ele>1294.2</ele>
        <time>2024-08-14T05:25:17Z</time>
      </trkpt>
      <trkpt lat="44.8712" lon="6.09247">
        <ele>1294.4</ele>
        <time>2024-08-14T05:25:18Z</time>
      </trkpt>
      <trkpt lat="44.8712" lon="6.09247">
        <ele>1294.4</ele>
        <time>2024-08-14T05:25:19Z</time>
      </trkpt>
      <trkpt lat="44.87122" lon="6.09249">
        <ele>1294.8</ele>
        <time>2024-08-14T05:25:20Z</time>
      </trkpt>
      <trkpt lat="44.87122" lon="6.09249">
        <ele>1294.8</ele>
        <time>2024-08-14T05:25:21Z</time>
      </trkpt>
      <trkpt lat="44.87124" lon="6.0925">
        <ele>1295.2</ele>
        <time>2024-08-14T05:25:22Z</time>
      </trkpt>
      <trkpt lat="44.87124" lon="6.0925">
        <ele>1295.4</ele>
        <time>2024-08-14T05:25:23Z</time>
      </trkpt>
      <trkpt lat="44.87125" lon="6.09251">
        <ele>1295.6</ele>
        <time>2024-08-14T05:25:24Z</time>
      </trkpt>
      <trkpt lat="44.87125" lon="6.09251">
        <ele>1295.6</ele>
        <time>2024-08-14T05:25:25Z</time>
      </trkpt>
      <trkpt lat="44.87127" lon="6.09254">
        <ele>1295.8</ele>
        <time>2024-08-14T05:25:26Z</time>
      </trkpt>
      <trkpt lat="44.87127" lon="6.09254">
        <ele>1296</ele>
        <time>2024-08-14T05:25:27Z</time>
      </trkpt>
      <trkpt lat="44.87128" lon="6.09256">
        <ele>1296.2</ele>
        <time>2024-08-14T05:25:28Z</time>
      </trkpt>
      <trkpt lat="44.87128" lon="6.09256">
        <ele>1296.2</ele>
        <time>2024-08-14T05:25:29Z</time>
      </trkpt>
      <trkpt lat="44.8713" lon="6.09258">
        <ele>1296.4</ele>
        <time>2024-08-14T05:25:30Z</time>
      </trkpt>
      <trkpt lat="44.8713" lon="6.09258">
        <ele>1296.8</ele>
        <time>2024-08-14T05:25:31Z</time>
      </trkpt>
      <trkpt lat="44.87131" lon="6.09261">
        <ele>1296.8</ele>
        <time>2024-08-14T05:25:32Z</time>
      </trkpt>
      <trkpt lat="44.87131" lon="6.09261">
        <ele>1297</ele>
        <time>2024-08-14T05:25:33Z</time>
      </trkpt>
      <trkpt lat="44.87132" lon="6.09264">
        <ele>1297.2</ele>
        <time>2024-08-14T05:25:34Z</time>
      </trkpt>
      <trkpt lat="44.87132" lon="6.09264">
        <ele>1297.2</ele>
        <time>2024-08-14T05:25:35Z</time>
      </trkpt>
      <trkpt lat="44.87133" lon="6.09266">
        <ele>1297.6</ele>
        <time>2024-08-14T05:25:36Z</time>
      </trkpt>
      <trkpt lat="44.87133" lon="6.09266">
        <ele>1298</ele>
        <time>2024-08-14T05:25:37Z</time>
      </trkpt>
      <trkpt lat="44.87135" lon="6.09268">
        <ele>1298</ele>
        <time>2024-08-14T05:25:38Z</time>
      </trkpt>
      <trkpt lat="44.87135" lon="6.09268">
        <ele>1298.2</ele>
        <time>2024-08-14T05:25:39Z</time>
      </trkpt>
      <trkpt lat="44.87137" lon="6.09269">
        <ele>1298.4</ele>
        <time>2024-08-14T05:25:40Z</time>
      </trkpt>
      <trkpt lat="44.87137" lon="6.09269">
        <ele>1298.8</ele>
        <time>2024-08-14T05:25:41Z</time>
      </trkpt>
      <trkpt lat="44.87137" lon="6.09269">
        <ele>1299.2</ele>
        <time>2024-08-14T05:25:42Z</time>
      </trkpt>
      <trkpt lat="44.8714" lon="6.09271">
        <ele>1299.2</ele>
        <time>2024-08-14T05:25:43Z</time>
      </trkpt>
      <trkpt lat="44.8714" lon="6.09271">
        <ele>1299.4</ele>
        <time>2024-08-14T05:25:44Z</time>
      </trkpt>
      <trkpt lat="44.8714" lon="6.09271">
        <ele>1299.4</ele>
        <time>2024-08-14T05:25:45Z</time>
      </trkpt>
      <trkpt lat="44.87142" lon="6.09273">
        <ele>1299.6</ele>
        <time>2024-08-14T05:25:46Z</time>
      </trkpt>
      <trkpt lat="44.87142" lon="6.09273">
        <ele>1299.6</ele>
        <time>2024-08-14T05:25:47Z</time>
      </trkpt>
      <trkpt lat="44.87143" lon="6.09275">
        <ele>1299.8</ele>
        <time>2024-08-14T05:25:48Z</time>
      </trkpt>
      <trkpt lat="44.87143" lon="6.09275">
        <ele>1300</ele>
        <time>2024-08-14T05:25:49Z</time>
      </trkpt>
      <trkpt lat="44.87143" lon="6.09275">
        <ele>1300.4</ele>
        <time>2024-08-14T05:25:50Z</time>
      </trkpt>
      <trkpt lat="44.87146" lon="6.09277">
        <ele>1300.8</ele>
        <time>2024-08-14T05:25:51Z</time>
      </trkpt>
      <trkpt lat="44.87146" lon="6.09277">
        <ele>1300.8</ele>
        <time>2024-08-14T05:25:52Z</time>
      </trkpt>
      <trkpt lat="44.87146" lon="6.09277">
        <ele>1301</ele>
        <time>2024-08-14T05:25:53Z</time>
      </trkpt>
      <trkpt lat="44.87148" lon="6.09278">
        <ele>1301.4</ele>
        <time>2024-08-14T05:25:54Z</time>
      </trkpt>
      <trkpt lat="44.87148" lon="6.09278">
        <ele>1301.4</ele>
        <time>2024-08-14T05:25:55Z</time>
      </trkpt>
      <trkpt lat="44.87148" lon="6.09278">
        <ele>1301.4</ele>
        <time>2024-08-14T05:25:56Z</time>
      </trkpt>
      <trkpt lat="44.8715" lon="6.09279">
        <ele>1301.8</ele>
        <time>2024-08-14T05:25:57Z</time>
      </trkpt>
      <trkpt lat="44.8715" lon="6.09279">
        <ele>1302.2</ele>
        <time>2024-08-14T05:25:58Z</time>
      </trkpt>
      <trkpt lat="44.8715" lon="6.09279">
        <ele>1302.2</ele>
        <time>2024-08-14T05:25:59Z</time>
      </trkpt>
      <trkpt lat="44.87153" lon="6.09281">
        <ele>1302.8</ele>
        <time>2024-08-14T05:26:00Z</time>
      </trkpt>
      <trkpt lat="44.87153" lon="6.09281">
        <ele>1302.8</ele>
        <time>2024-08-14T05:26:01Z</time>
      </trkpt>
      <trkpt lat="44.87153" lon="6.09281">
        <ele>1302.8</ele>
        <time>2024-08-14T05:26:02Z</time>
      </trkpt>
      <trkpt lat="44.87155" lon="6.09282">
        <ele>1303</ele>
        <time>2024-08-14T05:26:03Z</time>
      </trkpt>
      <trkpt lat="44.87155" lon="6.09282">
        <ele>1303.2</ele>
        <time>2024-08-14T05:26:04Z</time>
      </trkpt>
      <trkpt lat="44.87155" lon="6.09282">
        <ele>1303.4</ele>
        <time>2024-08-14T05:26:05Z</time>
      </trkpt>
      <trkpt lat="44.87158" lon="6.09283">
        <ele>1303.6</ele>
        <time>2024-08-14T05:26:06Z</time>
      </trkpt>
      <trkpt lat="44.87158" lon="6.09283">
        <ele>1303.8</ele>
        <time>2024-08-14T05:26:07Z</time>
      </trkpt>
      <trkpt lat="44.8716" lon="6.09284">
        <ele>1304.2</ele>
        <time>2024-08-14T05:26:08Z</time>
      </trkpt>
      <trkpt lat="44.8716" lon="6.09284">
        <ele>1304.2</ele>
        <time>2024-08-14T05:26:09Z</time>
      </trkpt>
      <trkpt lat="44.87162" lon="6.09286">
        <ele>1304.4</ele>
        <time>2024-08-14T05:26:10Z</time>
      </trkpt>
      <trkpt lat="44.87162" lon="6.09286">
        <ele>1304.6</ele>
        <time>2024-08-14T05:26:11Z</time>
      </trkpt>
      <trkpt lat="44.87164" lon="6.09288">
        <ele>1304.8</ele>
        <time>2024-08-14T05:26:12Z</time>
      </trkpt>
      <trkpt lat="44.87164" lon="6.09288">
        <ele>1305</ele>
        <time>2024-08-14T05:26:13Z</time>
      </trkpt>
      <trkpt lat="44.87165" lon="6.09288">
        <ele>1305</ele>
        <time>2024-08-14T05:26:14Z</time>
      </trkpt>
      <trkpt lat="44.87165" lon="6.09288">
        <ele>1305.2</ele>
        <time>2024-08-14T05:26:15Z</time>
      </trkpt>
      <trkpt lat="44.87167" lon="6.0929">
        <ele>1305.2</ele>
        <time>2024-08-14T05:26:16Z</time>
      </trkpt>
      <trkpt lat="44.87167" lon="6.0929">
        <ele>1305.2</ele>
        <time>2024-08-14T05:26:17Z</time>
      </trkpt>
      <trkpt lat="44.87169" lon="6.09293">
        <ele>1305.2</ele>
        <time>2024-08-14T05:26:18Z</time>
      </trkpt>
      <trkpt lat="44.87169" lon="6.09293">
        <ele>1305.2</ele>
        <time>2024-08-14T05:26:19Z</time>
      </trkpt>
      <trkpt lat="44.8717" lon="6.09295">
        <ele>1305.6</ele>
        <time>2024-08-14T05:26:20Z</time>
      </trkpt>
      <trkpt lat="44.8717" lon="6.09295">
        <ele>1305.8</ele>
        <time>2024-08-14T05:26:21Z</time>
      </trkpt>
      <trkpt lat="44.87171" lon="6.09297">
        <ele>1306.2</ele>
        <time>2024-08-14T05:26:22Z</time>
      </trkpt>
      <trkpt lat="44.87171" lon="6.09297">
        <ele>1306.2</ele>
        <time>2024-08-14T05:26:23Z</time>
      </trkpt>
      <trkpt lat="44.87173" lon="6.09299">
        <ele>1306.4</ele>
        <time>2024-08-14T05:26:24Z</time>
      </trkpt>
      <trkpt lat="44.87173" lon="6.09299">
        <ele>1306.8</ele>
        <time>2024-08-14T05:26:25Z</time>
      </trkpt>
      <trkpt lat="44.87175" lon="6.09301">
        <ele>1307</ele>
        <time>2024-08-14T05:26:26Z</time>
      </trkpt>
      <trkpt lat="44.87175" lon="6.09301">
        <ele>1307</ele>
        <time>2024-08-14T05:26:27Z</time>
      </trkpt>
      <trkpt lat="44.87176" lon="6.09302">
        <ele>1307.2</ele>
        <time>2024-08-14T05:26:28Z</time>
      </trkpt>
      <trkpt lat="44.87176" lon="6.09302">
        <ele>1307.4</ele>
        <time>2024-08-14T05:26:29Z</time>
      </trkpt>
      <trkpt lat="44.87178" lon="6.09304">
        <ele>1307.4</ele>
        <time>2024-08-14T05:26:30Z</time>
      </trkpt>
      <trkpt lat="44.87178" lon="6.09304">
        <ele>1307.6</ele>
        <time>2024-08-14T05:26:31Z</time>
      </trkpt>
      <trkpt lat="44.87179" lon="6.09305">
        <ele>1307.6</ele>
        <time>2024-08-14T05:26:32Z</time>
      </trkpt>
      <trkpt lat="44.87179" lon="6.09305">
        <ele>1308.2</ele>
        <time>2024-08-14T05:26:33Z</time>
      </trkpt>
      <trkpt lat="44.87181" lon="6.09307">
        <ele>1308.4</ele>
        <time>2024-08-14T05:26:34Z</time>
      </trkpt>
      <trkpt lat="44.87181" lon="6.09307">
        <ele>1308.4</ele>
        <time>2024-08-14T05:26:35Z</time>
      </trkpt>
      <trkpt lat="44.87181" lon="6.09307">
        <ele>1308.8</ele>
        <time>2024-08-14T05:26:36Z</time>
      </trkpt>
      <trkpt lat="44.87183" lon="6.09309">
        <ele>1309</ele>
        <time>2024-08-14T05:26:37Z</time>
      </trkpt>
      <trkpt lat="44.87183" lon="6.09309">
        <ele>1309.2</ele>
        <time>2024-08-14T05:26:38Z</time>
      </trkpt>
      <trkpt lat="44.87183" lon="6.09309">
        <ele>1309.2</ele>
        <time>2024-08-14T05:26:39Z</time>
      </trkpt>
      <trkpt lat="44.87185" lon="6.09311">
        <ele>1309.4</ele>
        <time>2024-08-14T05:26:40Z</time>
      </trkpt>
      <trkpt lat="44.87185" lon="6.09311">
        <ele>1309.6</ele>
        <time>2024-08-14T05:26:41Z</time>
      </trkpt>
      <trkpt lat="44.87187" lon="6.09313">
        <ele>1309.6</ele>
        <time>2024-08-14T05:26:42Z</time>
      </trkpt>
      <trkpt lat="44.87187" lon="6.09313">
        <ele>1309.8</ele>
        <time>2024-08-14T05:26:43Z</time>
      </trkpt>
      <trkpt lat="44.87189" lon="6.09315">
        <ele>1309.8</ele>
        <time>2024-08-14T05:26:44Z</time>
      </trkpt>
      <trkpt lat="44.87189" lon="6.09315">
        <ele>1309.8</ele>
        <time>2024-08-14T05:26:45Z</time>
      </trkpt>
      <trkpt lat="44.87189" lon="6.09315">
        <ele>1310.2</ele>
        <time>2024-08-14T05:26:46Z</time>
      </trkpt>
      <trkpt lat="44.87191" lon="6.09316">
        <ele>1310.6</ele>
        <time>2024-08-14T05:26:47Z</time>
      </trkpt>
      <trkpt lat="44.87191" lon="6.09316">
        <ele>1310.6</ele>
        <time>2024-08-14T05:26:48Z</time>
      </trkpt>
      <trkpt lat="44.87193" lon="6.09317">
        <ele>1310.6</ele>
        <time>2024-08-14T05:26:49Z</time>
      </trkpt>
      <trkpt lat="44.87193" lon="6.09317">
        <ele>1310.6</ele>
        <time>2024-08-14T05:26:50Z</time>
      </trkpt>
      <trkpt lat="44.87195" lon="6.09316">
        <ele>1311</ele>
        <time>2024-08-14T05:26:51Z</time>
      </trkpt>
      <trkpt lat="44.87195" lon="6.09316">
        <ele>1311.4</ele>
        <time>2024-08-14T05:26:52Z</time>
      </trkpt>
      <trkpt lat="44.87195" lon="6.09316">
        <ele>1311.4</ele>
        <time>2024-08-14T05:26:53Z</time>
      </trkpt>
      <trkpt lat="44.87197" lon="6.09316">
        <ele>1311.6</ele>
        <time>2024-08-14T05:26:54Z</time>
      </trkpt>
      <trkpt lat="44.87197" lon="6.09316">
        <ele>1311.6</ele>
        <time>2024-08-14T05:26:55Z</time>
      </trkpt>
      <trkpt lat="44.87199" lon="6.09316">
        <ele>1312</ele>
        <time>2024-08-14T05:26:56Z</time>
      </trkpt>
      <trkpt lat="44.87199" lon="6.09316">
        <ele>1312</ele>
        <time>2024-08-14T05:26:57Z</time>
      </trkpt>
      <trkpt lat="44.87202" lon="6.09316">
        <ele>1312.2</ele>
        <time>2024-08-14T05:26:58Z</time>
      </trkpt>
      <trkpt lat="44.87202" lon="6.09316">
        <ele>1312.6</ele>
        <time>2024-08-14T05:26:59Z</time>
      </trkpt>
      <trkpt lat="44.87202" lon="6.09316">
        <ele>1312.8</ele>
        <time>2024-08-14T05:27:00Z</time>
      </trkpt>
      <trkpt lat="44.87205" lon="6.09316">
        <ele>1312.8</ele>
        <time>2024-08-14T05:27:01Z</time>
      </trkpt>
      <trkpt lat="44.87205" lon="6.09316">
        <ele>1313</ele>
        <time>2024-08-14T05:27:02Z</time>
      </trkpt>
      <trkpt lat="44.87207" lon="6.09309">
        <ele>1313.4</ele>
        <time>2024-08-14T05:27:03Z</time>
      </trkpt>
      <trkpt lat="44.87207" lon="6.09307">
        <ele>1313.4</ele>
        <time>2024-08-14T05:27:04Z</time>
      </trkpt>
      <trkpt lat="44.87207" lon="6.09304">
        <ele>1313.8</ele>
        <time>2024-08-14T05:27:05Z</time>
      </trkpt>
      <trkpt lat="44.87207" lon="6.09304">
        <ele>1313.8</ele>
        <time>2024-08-14T05:27:06Z</time>
      </trkpt>
      <trkpt lat="44.87207" lon="6.09304">
        <ele>1313.8</ele>
        <time>2024-08-14T05:27:07Z</time>
      </trkpt>
      <trkpt lat="44.87207" lon="6.09301">
        <ele>1314.4</ele>
        <time>2024-08-14T05:27:08Z</time>
      </trkpt>
      <trkpt lat="44.87207" lon="6.09301">
        <ele>1314.4</ele>
        <time>2024-08-14T05:27:09Z</time>
      </trkpt>
      <trkpt lat="44.87207" lon="6.09301">
        <ele>1314.4</ele>
        <time>2024-08-14T05:27:10Z</time>
      </trkpt>
      <trkpt lat="44.8721" lon="6.09302">
        <ele>1314.4</ele>
        <time>2024-08-14T05:27:11Z</time>
      </trkpt>
      <trkpt lat="44.8721" lon="6.09302">
        <ele>1314.6</ele>
        <time>2024-08-14T05:27:12Z</time>
      </trkpt>
      <trkpt lat="44.87213" lon="6.09304">
        <ele>1314.6</ele>
        <time>2024-08-14T05:27:13Z</time>
      </trkpt>
      <trkpt lat="44.87213" lon="6.09304">
        <ele>1314.8</ele>
        <time>2024-08-14T05:27:14Z</time>
      </trkpt>
      <trkpt lat="44.87215" lon="6.09306">
        <ele>1315.2</ele>
        <time>2024-08-14T05:27:15Z</time>
      </trkpt>
      <trkpt lat="44.87217" lon="6.09306">
        <ele>1315.6</ele>
        <time>2024-08-14T05:27:16Z</time>
      </trkpt>
      <trkpt lat="44.87217" lon="6.09306">
        <ele>1315.8</ele>
        <time>2024-08-14T05:27:17Z</time>
      </trkpt>
      <trkpt lat="44.87219" lon="6.09308">
        <ele>1315.8</ele>
        <time>2024-08-14T05:27:18Z</time>
      </trkpt>
      <trkpt lat="44.87219" lon="6.09308">
        <ele>1316</ele>
        <time>2024-08-14T05:27:19Z</time>
      </trkpt>
      <trkpt lat="44.8722" lon="6.0931">
        <ele>1316.2</ele>
        <time>2024-08-14T05:27:20Z</time>
      </trkpt>
      <trkpt lat="44.8722" lon="6.0931">
        <ele>1316.8</ele>
        <time>2024-08-14T05:27:21Z</time>
      </trkpt>
      <trkpt lat="44.87224" lon="6.09311">
        <ele>1316.8</ele>
        <time>2024-08-14T05:27:22Z</time>
      </trkpt>
      <trkpt lat="44.87224" lon="6.09311">
        <ele>1316.6</ele>
        <time>2024-08-14T05:27:23Z</time>
      </trkpt>
      <trkpt lat="44.87226" lon="6.09312">
        <ele>1316.6</ele>
        <time>2024-08-14T05:27:24Z</time>
      </trkpt>
      <trkpt lat="44.87226" lon="6.09312">
        <ele>1316.6</ele>
        <time>2024-08-14T05:27:25Z</time>
      </trkpt>
      <trkpt lat="44.87226" lon="6.09312">
        <ele>1317</ele>
        <time>2024-08-14T05:27:26Z</time>
      </trkpt>
      <trkpt lat="44.87228" lon="6.09312">
        <ele>1317.2</ele>
        <time>2024-08-14T05:27:27Z</time>
      </trkpt>
      <trkpt lat="44.87228" lon="6.09312">
        <ele>1317.2</ele>
        <time>2024-08-14T05:27:28Z</time>
      </trkpt>
      <trkpt lat="44.87228" lon="6.09312">
        <ele>1317.4</ele>
        <time>2024-08-14T05:27:29Z</time>
      </trkpt>
      <trkpt lat="44.87231" lon="6.09313">
        <ele>1318</ele>
        <time>2024-08-14T05:27:30Z</time>
      </trkpt>
      <trkpt lat="44.87231" lon="6.09313">
        <ele>1318.2</ele>
        <time>2024-08-14T05:27:31Z</time>
      </trkpt>
      <trkpt lat="44.87233" lon="6.09314">
        <ele>1318.2</ele>
        <time>2024-08-14T05:27:32Z</time>
      </trkpt>
      <trkpt lat="44.87233" lon="6.09314">
        <ele>1318.2</ele>
        <time>2024-08-14T05:27:33Z</time>
      </trkpt>
      <trkpt lat="44.87233" lon="6.09314">
        <ele>1318.2</ele>
        <time>2024-08-14T05:27:34Z</time>
      </trkpt>
      <trkpt lat="44.87235" lon="6.09315">
        <ele>1318.2</ele>
        <time>2024-08-14T05:27:35Z</time>
      </trkpt>
      <trkpt lat="44.87235" lon="6.09315">
        <ele>1318.4</ele>
        <time>2024-08-14T05:27:36Z</time>
      </trkpt>
      <trkpt lat="44.87237" lon="6.09318">
        <ele>1318.6</ele>
        <time>2024-08-14T05:27:37Z</time>
      </trkpt>
      <trkpt lat="44.87239" lon="6.09317">
        <ele>1318.8</ele>
        <time>2024-08-14T05:27:38Z</time>
      </trkpt>
      <trkpt lat="44.87241" lon="6.09318">
        <ele>1319</ele>
        <time>2024-08-14T05:27:39Z</time>
      </trkpt>
      <trkpt lat="44.87241" lon="6.09318">
        <ele>1319.2</ele>
        <time>2024-08-14T05:27:40Z</time>
      </trkpt>
      <trkpt lat="44.87243" lon="6.09319">
        <ele>1319.2</ele>
        <time>2024-08-14T05:27:41Z</time>
      </trkpt>
      <trkpt lat="44.87243" lon="6.09319">
        <ele>1319.6</ele>
        <time>2024-08-14T05:27:42Z</time>
      </trkpt>
      <trkpt lat="44.87243" lon="6.09319">
        <ele>1319.8</ele>
        <time>2024-08-14T05:27:43Z</time>
      </trkpt>
      <trkpt lat="44.87244" lon="6.09322">
        <ele>1319.8</ele>
        <time>2024-08-14T05:27:44Z</time>
      </trkpt>
      <trkpt lat="44.87244" lon="6.09322">
        <ele>1320</ele>
        <time>2024-08-14T05:27:45Z</time>
      </trkpt>
      <trkpt lat="44.87246" lon="6.09323">
        <ele>1320.4</ele>
        <time>2024-08-14T05:27:46Z</time>
      </trkpt>
      <trkpt lat="44.87246" lon="6.09323">
        <ele>1320.6</ele>
        <time>2024-08-14T05:27:47Z</time>
      </trkpt>
      <trkpt lat="44.87246" lon="6.09323">
        <ele>1320.6</ele>
        <time>2024-08-14T05:27:48Z</time>
      </trkpt>
      <trkpt lat="44.87249" lon="6.09322">
        <ele>1321</ele>
        <time>2024-08-14T05:27:49Z</time>
      </trkpt>
      <trkpt lat="44.87251" lon="6.09321">
        <ele>1321</ele>
        <time>2024-08-14T05:27:50Z</time>
      </trkpt>
      <trkpt lat="44.87251" lon="6.09321">
        <ele>1321.4</ele>
        <time>2024-08-14T05:27:51Z</time>
      </trkpt>
      <trkpt lat="44.87253" lon="6.0932">
        <ele>1321.6</ele>
        <time>2024-08-14T05:27:52Z</time>
      </trkpt>
      <trkpt lat="44.87253" lon="6.0932">
        <ele>1321.6</ele>
        <time>2024-08-14T05:27:53Z</time>
      </trkpt>
      <trkpt lat="44.87253" lon="6.0932">
        <ele>1322</ele>
        <time>2024-08-14T05:27:54Z</time>
      </trkpt>
      <trkpt lat="44.87255" lon="6.09321">
        <ele>1322.2</ele>
        <time>2024-08-14T05:27:55Z</time>
      </trkpt>
      <trkpt lat="44.87257" lon="6.0932">
        <ele>1322.2</ele>
        <time>2024-08-14T05:27:56Z</time>
      </trkpt>
      <trkpt lat="44.87257" lon="6.0932">
        <ele>1322.4</ele>
        <time>2024-08-14T05:27:57Z</time>
      </trkpt>
      <trkpt lat="44.87257" lon="6.0932">
        <ele>1322.6</ele>
        <time>2024-08-14T05:27:58Z</time>
      </trkpt>
      <trkpt lat="44.87259" lon="6.0932">
        <ele>1322.8</ele>
        <time>2024-08-14T05:27:59Z</time>
      </trkpt>
      <trkpt lat="44.87259" lon="6.0932">
        <ele>1323</ele>
        <time>2024-08-14T05:28:00Z</time>
      </trkpt>
      <trkpt lat="44.87259" lon="6.0932">
        <ele>1323</ele>
        <time>2024-08-14T05:28:01Z</time>
      </trkpt>
      <trkpt lat="44.87261" lon="6.09318">
        <ele>1323.2</ele>
        <time>2024-08-14T05:28:02Z</time>
      </trkpt>
      <trkpt lat="44.87261" lon="6.09318">
        <ele>1323.4</ele>
        <time>2024-08-14T05:28:03Z</time>
      </trkpt>
      <trkpt lat="44.87261" lon="6.09318">
        <ele>1323.8</ele>
        <time>2024-08-14T05:28:04Z</time>
      </trkpt>
      <trkpt lat="44.87263" lon="6.09319">
        <ele>1324</ele>
        <time>2024-08-14T05:28:05Z</time>
      </trkpt>
      <trkpt lat="44.87263" lon="6.09319">
        <ele>1324.2</ele>
        <time>2024-08-14T05:28:06Z</time>
      </trkpt>
      <trkpt lat="44.87265" lon="6.09319">
        <ele>1324.2</ele>
        <time>2024-08-14T05:28:07Z</time>
      </trkpt>
      <trkpt lat="44.87265" lon="6.09319">
        <ele>1324.4</ele>
        <time>2024-08-14T05:28:08Z</time>
      </trkpt>
      <trkpt lat="44.87265" lon="6.09319">
        <ele>1324.6</ele>
        <time>2024-08-14T05:28:09Z</time>
      </trkpt>
      <trkpt lat="44.87267" lon="6.09319">
        <ele>1324.8</ele>
        <time>2024-08-14T05:28:10Z</time>
      </trkpt>
      <trkpt lat="44.87267" lon="6.09319">
        <ele>1324.8</ele>
        <time>2024-08-14T05:28:11Z</time>
      </trkpt>
      <trkpt lat="44.87269" lon="6.0932">
        <ele>1325.2</ele>
        <time>2024-08-14T05:28:12Z</time>
      </trkpt>
      <trkpt lat="44.87269" lon="6.0932">
        <ele>1325.2</ele>
        <time>2024-08-14T05:28:13Z</time>
      </trkpt>
      <trkpt lat="44.87269" lon="6.0932">
        <ele>1325.4</ele>
        <time>2024-08-14T05:28:14Z</time>
      </trkpt>
      <trkpt lat="44.87271" lon="6.09321">
        <ele>1325.6</ele>
        <time>2024-08-14T05:28:15Z</time>
      </trkpt>
      <trkpt lat="44.87271" lon="6.09321">
        <ele>1325.6</ele>
        <time>2024-08-14T05:28:16Z</time>
      </trkpt>
      <trkpt lat="44.87271" lon="6.09321">
        <ele>1325.6</ele>
        <time>2024-08-14T05:28:17Z</time>
      </trkpt>
      <trkpt lat="44.87273" lon="6.09323">
        <ele>1325.8</ele>
        <time>2024-08-14T05:28:18Z</time>
      </trkpt>
      <trkpt lat="44.87273" lon="6.09323">
        <ele>1325.8</ele>
        <time>2024-08-14T05:28:19Z</time>
      </trkpt>
      <trkpt lat="44.87275" lon="6.09324">
        <ele>1325.8</ele>
        <time>2024-08-14T05:28:20Z</time>
      </trkpt>
      <trkpt lat="44.87275" lon="6.09324">
        <ele>1326</ele>
        <time>2024-08-14T05:28:21Z</time>
      </trkpt>
      <trkpt lat="44.87275" lon="6.09324">
        <ele>1326.2</ele>
        <time>2024-08-14T05:28:22Z</time>
      </trkpt>
      <trkpt lat="44.87277" lon="6.09326">
        <ele>1326.2</ele>
        <time>2024-08-14T05:28:23Z</time>
      </trkpt>
      <trkpt lat="44.87277" lon="6.09326">
        <ele>1326.4</ele>
        <time>2024-08-14T05:28:24Z</time>
      </trkpt>
      <trkpt lat="44.87279" lon="6.09326">
        <ele>1326.6</ele>
        <time>2024-08-14T05:28:25Z</time>
      </trkpt>
      <trkpt lat="44.87279" lon="6.09326">
        <ele>1327.2</ele>
        <time>2024-08-14T05:28:26Z</time>
      </trkpt>
      <trkpt lat="44.87279" lon="6.09326">
        <ele>1327.4</ele>
        <time>2024-08-14T05:28:27Z</time>
      </trkpt>
      <trkpt lat="44.87281" lon="6.09327">
        <ele>1327.4</ele>
        <time>2024-08-14T05:28:28Z</time>
      </trkpt>
      <trkpt lat="44.87281" lon="6.09327">
        <ele>1327.8</ele>
        <time>2024-08-14T05:28:29Z</time>
      </trkpt>
      <trkpt lat="44.87281" lon="6.09327">
        <ele>1328.2</ele>
        <time>2024-08-14T05:28:30Z</time>
      </trkpt>
      <trkpt lat="44.87284" lon="6.09329">
        <ele>1328.2</ele>
        <time>2024-08-14T05:28:31Z</time>
      </trkpt>
      <trkpt lat="44.87284" lon="6.09329">
        <ele>1328.4</ele>
        <time>2024-08-14T05:28:32Z</time>
      </trkpt>
      <trkpt lat="44.87284" lon="6.09329">
        <ele>1328.4</ele>
        <time>2024-08-14T05:28:33Z</time>
      </trkpt>
      <trkpt lat="44.87285" lon="6.09331">
        <ele>1328.6</ele>
        <time>2024-08-14T05:28:34Z</time>
      </trkpt>
      <trkpt lat="44.87285" lon="6.09331">
        <ele>1328.6</ele>
        <time>2024-08-14T05:28:35Z</time>
      </trkpt>
      <trkpt lat="44.87285" lon="6.09331">
        <ele>1329.2</ele>
        <time>2024-08-14T05:28:36Z</time>
      </trkpt>
      <trkpt lat="44.87289" lon="6.09331">
        <ele>1329.4</ele>
        <time>2024-08-14T05:28:37Z</time>
      </trkpt>
      <trkpt lat="44.87289" lon="6.09331">
        <ele>1329.4</ele>
        <time>2024-08-14T05:28:38Z</time>
      </trkpt>
      <trkpt lat="44.87291" lon="6.09332">
        <ele>1329.6</ele>
        <time>2024-08-14T05:28:39Z</time>
      </trkpt>
      <trkpt lat="44.87293" lon="6.09331">
        <ele>1329.8</ele>
        <time>2024-08-14T05:28:40Z</time>
      </trkpt>
      <trkpt lat="44.87293" lon="6.09331">
        <ele>1330</ele>
        <time>2024-08-14T05:28:41Z</time>
      </trkpt>
      <trkpt lat="44.87295" lon="6.0933">
        <ele>1330</ele>
        <time>2024-08-14T05:28:42Z</time>
      </trkpt>
      <trkpt lat="44.87295" lon="6.0933">
        <ele>1330.4</ele>
        <time>2024-08-14T05:28:43Z</time>
      </trkpt>
      <trkpt lat="44.87297" lon="6.0933">
        <ele>1330.6</ele>
        <time>2024-08-14T05:28:44Z</time>
      </trkpt>
      <trkpt lat="44.87297" lon="6.0933">
        <ele>1330.8</ele>
        <time>2024-08-14T05:28:45Z</time>
      </trkpt>
      <trkpt lat="44.87299" lon="6.09329">
        <ele>1331</ele>
        <time>2024-08-14T05:28:46Z</time>
      </trkpt>
      <trkpt lat="44.87299" lon="6.09329">
        <ele>1331</ele>
        <time>2024-08-14T05:28:47Z</time>
      </trkpt>
      <trkpt lat="44.87299" lon="6.09329">
        <ele>1331.2</ele>
        <time>2024-08-14T05:28:48Z</time>
      </trkpt>
      <trkpt lat="44.87299" lon="6.09329">
        <ele>1331.6</ele>
        <time>2024-08-14T05:28:49Z</time>
      </trkpt>
      <trkpt lat="44.87301" lon="6.0933">
        <ele>1331.6</ele>
        <time>2024-08-14T05:28:50Z</time>
      </trkpt>
      <trkpt lat="44.87301" lon="6.0933">
        <ele>1332</ele>
        <time>2024-08-14T05:28:51Z</time>
      </trkpt>
      <trkpt lat="44.87301" lon="6.0933">
        <ele>1332.2</ele>
        <time>2024-08-14T05:28:52Z</time>
      </trkpt>
      <trkpt lat="44.87303" lon="6.09332">
        <ele>1332.4</ele>
        <time>2024-08-14T05:28:53Z</time>
      </trkpt>
      <trkpt lat="44.87303" lon="6.09332">
        <ele>1332.8</ele>
        <time>2024-08-14T05:28:54Z</time>
      </trkpt>
      <trkpt lat="44.87303" lon="6.09332">
        <ele>1332.8</ele>
        <time>2024-08-14T05:28:55Z</time>
      </trkpt>
      <trkpt lat="44.87306" lon="6.09333">
        <ele>1332.8</ele>
        <time>2024-08-14T05:28:56Z</time>
      </trkpt>
      <trkpt lat="44.87306" lon="6.09333">
        <ele>1333</ele>
        <time>2024-08-14T05:28:57Z</time>
      </trkpt>
      <trkpt lat="44.87306" lon="6.09333">
        <ele>1333.2</ele>
        <time>2024-08-14T05:28:58Z</time>
      </trkpt>
      <trkpt lat="44.87306" lon="6.09333">
        <ele>1333.4</ele>
        <time>2024-08-14T05:28:59Z</time>
      </trkpt>
      <trkpt lat="44.87308" lon="6.09334">
        <ele>1334</ele>
        <time>2024-08-14T05:29:00Z</time>
      </trkpt>
      <trkpt lat="44.87308" lon="6.09334">
        <ele>1334</ele>
        <time>2024-08-14T05:29:01Z</time>
      </trkpt>
      <trkpt lat="44.87308" lon="6.09334">
        <ele>1334.2</ele>
        <time>2024-08-14T05:29:02Z</time>
      </trkpt>
      <trkpt lat="44.8731" lon="6.09334">
        <ele>1334.2</ele>
        <time>2024-08-14T05:29:03Z</time>
      </trkpt>
      <trkpt lat="44.8731" lon="6.09334">
        <ele>1334.4</ele>
        <time>2024-08-14T05:29:04Z</time>
      </trkpt>
      <trkpt lat="44.8731" lon="6.09334">
        <ele>1334.8</ele>
        <time>2024-08-14T05:29:05Z</time>
      </trkpt>
      <trkpt lat="44.87312" lon="6.09335">
        <ele>1334.8</ele>
        <time>2024-08-14T05:29:06Z</time>
      </trkpt>
      <trkpt lat="44.87312" lon="6.09335">
        <ele>1335</ele>
        <time>2024-08-14T05:29:07Z</time>
      </trkpt>
      <trkpt lat="44.87312" lon="6.09335">
        <ele>1335.2</ele>
        <time>2024-08-14T05:29:08Z</time>
      </trkpt>
      <trkpt lat="44.87314" lon="6.09336">
        <ele>1335.4</ele>
        <time>2024-08-14T05:29:09Z</time>
      </trkpt>
      <trkpt lat="44.87314" lon="6.09336">
        <ele>1335.6</ele>
        <time>2024-08-14T05:29:10Z</time>
      </trkpt>
      <trkpt lat="44.87314" lon="6.09336">
        <ele>1335.8</ele>
        <time>2024-08-14T05:29:11Z</time>
      </trkpt>
      <trkpt lat="44.87316" lon="6.09338">
        <ele>1336.2</ele>
        <time>2024-08-14T05:29:12Z</time>
      </trkpt>
      <trkpt lat="44.87316" lon="6.09338">
        <ele>1336.6</ele>
        <time>2024-08-14T05:29:13Z</time>
      </trkpt>
      <trkpt lat="44.87316" lon="6.09338">
        <ele>1336.8</ele>
        <time>2024-08-14T05:29:14Z</time>
      </trkpt>
      <trkpt lat="44.87318" lon="6.09339">
        <ele>1336.8</ele>
        <time>2024-08-14T05:29:15Z</time>
      </trkpt>
      <trkpt lat="44.87318" lon="6.09339">
        <ele>1337</ele>
        <time>2024-08-14T05:29:16Z</time>
      </trkpt>
      <trkpt lat="44.8732" lon="6.09338">
        <ele>1337</ele>
        <time>2024-08-14T05:29:17Z</time>
      </trkpt>
      <trkpt lat="44.8732" lon="6.09338">
        <ele>1337.2</ele>
        <time>2024-08-14T05:29:18Z</time>
      </trkpt>
      <trkpt lat="44.8732" lon="6.09338">
        <ele>1337.4</ele>
        <time>2024-08-14T05:29:19Z</time>
      </trkpt>
      <trkpt lat="44.8732" lon="6.09338">
        <ele>1337.6</ele>
        <time>2024-08-14T05:29:20Z</time>
      </trkpt>
      <trkpt lat="44.8732" lon="6.09338">
        <ele>1337.6</ele>
        <time>2024-08-14T05:29:21Z</time>
      </trkpt>
      <trkpt lat="44.8732" lon="6.09338">
        <ele>1337.6</ele>
        <time>2024-08-14T05:29:22Z</time>
      </trkpt>
      <trkpt lat="44.8732" lon="6.09338">
        <ele>1337.6</ele>
        <time>2024-08-14T05:29:23Z</time>
      </trkpt>
      <trkpt lat="44.8732" lon="6.09338">
        <ele>1337.6</ele>
        <time>2024-08-14T05:29:24Z</time>
      </trkpt>
      <trkpt lat="44.8732" lon="6.09338">
        <ele>1337.6</ele>
        <time>2024-08-14T05:29:25Z</time>
      </trkpt>
      <trkpt lat="44.8732" lon="6.09338">
        <ele>1337.8</ele>
        <time>2024-08-14T05:29:26Z</time>
      </trkpt>
      <trkpt lat="44.8732" lon="6.09338">
        <ele>1337.8</ele>
        <time>2024-08-14T05:29:27Z</time>
      </trkpt>
      <trkpt lat="44.8732" lon="6.09338">
        <ele>1337.8</ele>
        <time>2024-08-14T05:29:28Z</time>
      </trkpt>
      <trkpt lat="44.8732" lon="6.09338">
        <ele>1338</ele>
        <time>2024-08-14T05:29:29Z</time>
      </trkpt>
      <trkpt lat="44.87323" lon="6.09336">
        <ele>1338.2</ele>
        <time>2024-08-14T05:29:30Z</time>
      </trkpt>
      <trkpt lat="44.87325" lon="6.09335">
        <ele>1338.2</ele>
        <time>2024-08-14T05:29:31Z</time>
      </trkpt>
      <trkpt lat="44.87325" lon="6.09335">
        <ele>1338.2</ele>
        <time>2024-08-14T05:29:32Z</time>
      </trkpt>
      <trkpt lat="44.87327" lon="6.09333">
        <ele>1338.4</ele>
        <time>2024-08-14T05:29:33Z</time>
      </trkpt>
      <trkpt lat="44.87327" lon="6.09333">
        <ele>1338.6</ele>
        <time>2024-08-14T05:29:34Z</time>
      </trkpt>
      <trkpt lat="44.87329" lon="6.09329">
        <ele>1338.6</ele>
        <time>2024-08-14T05:29:35Z</time>
      </trkpt>
      <trkpt lat="44.87329" lon="6.09329">
        <ele>1338.6</ele>
        <time>2024-08-14T05:29:36Z</time>
      </trkpt>
      <trkpt lat="44.87331" lon="6.09326">
        <ele>1339</ele>
        <time>2024-08-14T05:29:37Z</time>
      </trkpt>
      <trkpt lat="44.87331" lon="6.09326">
        <ele>1339</ele>
        <time>2024-08-14T05:29:38Z</time>
      </trkpt>
      <trkpt lat="44.87332" lon="6.09321">
        <ele>1339.2</ele>
        <time>2024-08-14T05:29:39Z</time>
      </trkpt>
      <trkpt lat="44.87332" lon="6.09321">
        <ele>1339.4</ele>
        <time>2024-08-14T05:29:40Z</time>
      </trkpt>
      <trkpt lat="44.87332" lon="6.09321">
        <ele>1339.6</ele>
        <time>2024-08-14T05:29:41Z</time>
      </trkpt>
      <trkpt lat="44.87334" lon="6.09319">
        <ele>1339.8</ele>
        <time>2024-08-14T05:29:42Z</time>
      </trkpt>
      <trkpt lat="44.87334" lon="6.09319">
        <ele>1340.2</ele>
        <time>2024-08-14T05:29:43Z</time>
      </trkpt>
      <trkpt lat="44.87334" lon="6.09319">
        <ele>1340.2</ele>
        <time>2024-08-14T05:29:44Z</time>
      </trkpt>
      <trkpt lat="44.87335" lon="6.09316">
        <ele>1340.4</ele>
        <time>2024-08-14T05:29:45Z</time>
      </trkpt>
      <trkpt lat="44.87335" lon="6.09316">
        <ele>1340.8</ele>
        <time>2024-08-14T05:29:46Z</time>
      </trkpt>
      <trkpt lat="44.87335" lon="6.0931">
        <ele>1340.8</ele>
        <time>2024-08-14T05:29:47Z</time>
      </trkpt>
      <trkpt lat="44.87335" lon="6.0931">
        <ele>1341</ele>
        <time>2024-08-14T05:29:48Z</time>
      </trkpt>
      <trkpt lat="44.87337" lon="6.09308">
        <ele>1341.2</ele>
        <time>2024-08-14T05:29:49Z</time>
      </trkpt>
      <trkpt lat="44.87337" lon="6.09308">
        <ele>1341.4</ele>
        <time>2024-08-14T05:29:50Z</time>
      </trkpt>
      <trkpt lat="44.87339" lon="6.09307">
        <ele>1341.6</ele>
        <time>2024-08-14T05:29:51Z</time>
      </trkpt>
      <trkpt lat="44.87339" lon="6.09307">
        <ele>1341.8</ele>
        <time>2024-08-14T05:29:52Z</time>
      </trkpt>
      <trkpt lat="44.87341" lon="6.09305">
        <ele>1342.2</ele>
        <time>2024-08-14T05:29:53Z</time>
      </trkpt>
      <trkpt lat="44.87341" lon="6.09305">
        <ele>1342.4</ele>
        <time>2024-08-14T05:29:54Z</time>
      </trkpt>
      <trkpt lat="44.87343" lon="6.09302">
        <ele>1342.6</ele>
        <time>2024-08-14T05:29:55Z</time>
      </trkpt>
      <trkpt lat="44.87343" lon="6.09302">
        <ele>1342.8</ele>
        <time>2024-08-14T05:29:56Z</time>
      </trkpt>
      <trkpt lat="44.87343" lon="6.09299">
        <ele>1343</ele>
        <time>2024-08-14T05:29:57Z</time>
      </trkpt>
      <trkpt lat="44.87343" lon="6.09299">
        <ele>1343.4</ele>
        <time>2024-08-14T05:29:58Z</time>
      </trkpt>
      <trkpt lat="44.87343" lon="6.09299">
        <ele>1343.4</ele>
        <time>2024-08-14T05:29:59Z</time>
      </trkpt>
      <trkpt lat="44.87345" lon="6.09297">
        <ele>1344</ele>
        <time>2024-08-14T05:30:00Z</time>
      </trkpt>
      <trkpt lat="44.87345" lon="6.09297">
        <ele>1344</ele>
        <time>2024-08-14T05:30:01Z</time>
      </trkpt>
      <trkpt lat="44.87345" lon="6.09297">
        <ele>1344</ele>
        <time>2024-08-14T05:30:02Z</time>
      </trkpt>
      <trkpt lat="44.87348" lon="6.09295">
        <ele>1344.4</ele>
        <time>2024-08-14T05:30:03Z</time>
      </trkpt>
      <trkpt lat="44.87348" lon="6.09295">
        <ele>1344.6</ele>
        <time>2024-08-14T05:30:04Z</time>
      </trkpt>
      <trkpt lat="44.87348" lon="6.09295">
        <ele>1345</ele>
        <time>2024-08-14T05:30:05Z</time>
      </trkpt>
      <trkpt lat="44.87348" lon="6.09292">
        <ele>1345</ele>
        <time>2024-08-14T05:30:06Z</time>
      </trkpt>
      <trkpt lat="44.87348" lon="6.09292">
        <ele>1345</ele>
        <time>2024-08-14T05:30:07Z</time>
      </trkpt>
      <trkpt lat="44.87349" lon="6.09291">
        <ele>1345.4</ele>
        <time>2024-08-14T05:30:08Z</time>
      </trkpt>
      <trkpt lat="44.87349" lon="6.09291">
        <ele>1345.6</ele>
        <time>2024-08-14T05:30:09Z</time>
      </trkpt>
      <trkpt lat="44.87349" lon="6.09291">
        <ele>1345.8</ele>
        <time>2024-08-14T05:30:10Z</time>
      </trkpt>
      <trkpt lat="44.8735" lon="6.09288">
        <ele>1345.8</ele>
        <time>2024-08-14T05:30:11Z</time>
      </trkpt>
      <trkpt lat="44.8735" lon="6.09288">
        <ele>1346</ele>
        <time>2024-08-14T05:30:12Z</time>
      </trkpt>
      <trkpt lat="44.8735" lon="6.09288">
        <ele>1346</ele>
        <time>2024-08-14T05:30:13Z</time>
      </trkpt>
      <trkpt lat="44.8735" lon="6.09285">
        <ele>1346.6</ele>
        <time>2024-08-14T05:30:14Z</time>
      </trkpt>
      <trkpt lat="44.8735" lon="6.09285">
        <ele>1346.6</ele>
        <time>2024-08-14T05:30:15Z</time>
      </trkpt>
      <trkpt lat="44.87349" lon="6.09282">
        <ele>1346.8</ele>
        <time>2024-08-14T05:30:16Z</time>
      </trkpt>
      <trkpt lat="44.87349" lon="6.09282">
        <ele>1347.2</ele>
        <time>2024-08-14T05:30:17Z</time>
      </trkpt>
      <trkpt lat="44.87349" lon="6.09282">
        <ele>1347.4</ele>
        <time>2024-08-14T05:30:18Z</time>
      </trkpt>
      <trkpt lat="44.87349" lon="6.09279">
        <ele>1347.6</ele>
        <time>2024-08-14T05:30:19Z</time>
      </trkpt>
      <trkpt lat="44.87349" lon="6.09279">
        <ele>1347.6</ele>
        <time>2024-08-14T05:30:20Z</time>
      </trkpt>
      <trkpt lat="44.87349" lon="6.09279">
        <ele>1348.2</ele>
        <time>2024-08-14T05:30:21Z</time>
      </trkpt>
      <trkpt lat="44.87349" lon="6.09276">
        <ele>1348.2</ele>
        <time>2024-08-14T05:30:22Z</time>
      </trkpt>
      <trkpt lat="44.87349" lon="6.09276">
        <ele>1348.2</ele>
        <time>2024-08-14T05:30:23Z</time>
      </trkpt>
      <trkpt lat="44.87349" lon="6.09276">
        <ele>1348.8</ele>
        <time>2024-08-14T05:30:24Z</time>
      </trkpt>
      <trkpt lat="44.87348" lon="6.09273">
        <ele>1348.8</ele>
        <time>2024-08-14T05:30:25Z</time>
      </trkpt>
      <trkpt lat="44.87348" lon="6.09273">
        <ele>1349</ele>
        <time>2024-08-14T05:30:26Z</time>
      </trkpt>
      <trkpt lat="44.87348" lon="6.09273">
        <ele>1349.2</ele>
        <time>2024-08-14T05:30:27Z</time>
      </trkpt>
      <trkpt lat="44.87347" lon="6.0927">
        <ele>1349.2</ele>
        <time>2024-08-14T05:30:28Z</time>
      </trkpt>
      <trkpt lat="44.87347" lon="6.0927">
        <ele>1349.6</ele>
        <time>2024-08-14T05:30:29Z</time>
      </trkpt>
      <trkpt lat="44.87347" lon="6.0927">
        <ele>1349.6</ele>
        <time>2024-08-14T05:30:30Z</time>
      </trkpt>
      <trkpt lat="44.87348" lon="6.09267">
        <ele>1350</ele>
        <time>2024-08-14T05:30:31Z</time>
      </trkpt>
      <trkpt lat="44.87348" lon="6.09267">
        <ele>1350</ele>
        <time>2024-08-14T05:30:32Z</time>
      </trkpt>
      <trkpt lat="44.87348" lon="6.09267">
        <ele>1350.2</ele>
        <time>2024-08-14T05:30:33Z</time>
      </trkpt>
      <trkpt lat="44.87348" lon="6.09267">
        <ele>1350.8</ele>
        <time>2024-08-14T05:30:34Z</time>
      </trkpt>
      <trkpt lat="44.87348" lon="6.09267">
        <ele>1351</ele>
        <time>2024-08-14T05:30:35Z</time>
      </trkpt>
      <trkpt lat="44.87348" lon="6.09267">
        <ele>1351</ele>
        <time>2024-08-14T05:30:36Z</time>
      </trkpt>
      <trkpt lat="44.87348" lon="6.09267">
        <ele>1351</ele>
        <time>2024-08-14T05:30:37Z</time>
      </trkpt>
      <trkpt lat="44.87348" lon="6.09267">
        <ele>1350.8</ele>
        <time>2024-08-14T05:30:38Z</time>
      </trkpt>
      <trkpt lat="44.8735" lon="6.09265">
        <ele>1350.8</ele>
        <time>2024-08-14T05:30:39Z</time>
      </trkpt>
      <trkpt lat="44.8735" lon="6.09265">
        <ele>1350.8</ele>
        <time>2024-08-14T05:30:40Z</time>
      </trkpt>
      <trkpt lat="44.87352" lon="6.09264">
        <ele>1351</ele>
        <time>2024-08-14T05:30:41Z</time>
      </trkpt>
      <trkpt lat="44.87352" lon="6.09264">
        <ele>1351.4</ele>
        <time>2024-08-14T05:30:42Z</time>
      </trkpt>
      <trkpt lat="44.87354" lon="6.09264">
        <ele>1351.8</ele>
        <time>2024-08-14T05:30:43Z</time>
      </trkpt>
      <trkpt lat="44.87354" lon="6.09264">
        <ele>1352</ele>
        <time>2024-08-14T05:30:44Z</time>
      </trkpt>
      <trkpt lat="44.87356" lon="6.09264">
        <ele>1352.4</ele>
        <time>2024-08-14T05:30:45Z</time>
      </trkpt>
      <trkpt lat="44.87356" lon="6.09264">
        <ele>1352.4</ele>
        <time>2024-08-14T05:30:46Z</time>
      </trkpt>
      <trkpt lat="44.87358" lon="6.09264">
        <ele>1352.8</ele>
        <time>2024-08-14T05:30:47Z</time>
      </trkpt>
      <trkpt lat="44.87358" lon="6.09264">
        <ele>1352.8</ele>
        <time>2024-08-14T05:30:48Z</time>
      </trkpt>
      <trkpt lat="44.8736" lon="6.09264">
        <ele>1352.8</ele>
        <time>2024-08-14T05:30:49Z</time>
      </trkpt>
      <trkpt lat="44.8736" lon="6.09264">
        <ele>1352.8</ele>
        <time>2024-08-14T05:30:50Z</time>
      </trkpt>
      <trkpt lat="44.8736" lon="6.09264">
        <ele>1353</ele>
        <time>2024-08-14T05:30:51Z</time>
      </trkpt>
      <trkpt lat="44.87363" lon="6.09265">
        <ele>1353.2</ele>
        <time>2024-08-14T05:30:52Z</time>
      </trkpt>
      <trkpt lat="44.87363" lon="6.09265">
        <ele>1353.6</ele>
        <time>2024-08-14T05:30:53Z</time>
      </trkpt>
      <trkpt lat="44.87363" lon="6.09265">
        <ele>1353.8</ele>
        <time>2024-08-14T05:30:54Z</time>
      </trkpt>
      <trkpt lat="44.87365" lon="6.09266">
        <ele>1354</ele>
        <time>2024-08-14T05:30:55Z</time>
      </trkpt>
      <trkpt lat="44.87365" lon="6.09266">
        <ele>1354.4</ele>
        <time>2024-08-14T05:30:56Z</time>
      </trkpt>
      <trkpt lat="44.87365" lon="6.09266">
        <ele>1354.6</ele>
        <time>2024-08-14T05:30:57Z</time>
      </trkpt>
      <trkpt lat="44.87365" lon="6.09266">
        <ele>1355</ele>
        <time>2024-08-14T05:30:58Z</time>
      </trkpt>
      <trkpt lat="44.87368" lon="6.09268">
        <ele>1355.4</ele>
        <time>2024-08-14T05:30:59Z</time>
      </trkpt>
      <trkpt lat="44.87368" lon="6.09268">
        <ele>1355.6</ele>
        <time>2024-08-14T05:31:00Z</time>
      </trkpt>
      <trkpt lat="44.87368" lon="6.09268">
        <ele>1355.6</ele>
        <time>2024-08-14T05:31:01Z</time>
      </trkpt>
      <trkpt lat="44.87369" lon="6.0927">
        <ele>1355.8</ele>
        <time>2024-08-14T05:31:02Z</time>
      </trkpt>
      <trkpt lat="44.87369" lon="6.0927">
        <ele>1356.4</ele>
        <time>2024-08-14T05:31:03Z</time>
      </trkpt>
      <trkpt lat="44.87369" lon="6.0927">
        <ele>1356.4</ele>
        <time>2024-08-14T05:31:04Z</time>
      </trkpt>
      <trkpt lat="44.87371" lon="6.09273">
        <ele>1356.8</ele>
        <time>2024-08-14T05:31:05Z</time>
      </trkpt>
      <trkpt lat="44.87371" lon="6.09273">
        <ele>1357</ele>
        <time>2024-08-14T05:31:06Z</time>
      </trkpt>
      <trkpt lat="44.87372" lon="6.09275">
        <ele>1357</ele>
        <time>2024-08-14T05:31:07Z</time>
      </trkpt>
      <trkpt lat="44.87372" lon="6.09275">
        <ele>1357.2</ele>
        <time>2024-08-14T05:31:08Z</time>
      </trkpt>
      <trkpt lat="44.87372" lon="6.09275">
        <ele>1357.6</ele>
        <time>2024-08-14T05:31:09Z</time>
      </trkpt>
      <trkpt lat="44.87373" lon="6.09279">
        <ele>1357.8</ele>
        <time>2024-08-14T05:31:10Z</time>
      </trkpt>
      <trkpt lat="44.87373" lon="6.09279">
        <ele>1358.2</ele>
        <time>2024-08-14T05:31:11Z</time>
      </trkpt>
      <trkpt lat="44.87373" lon="6.09281">
        <ele>1358.2</ele>
        <time>2024-08-14T05:31:12Z</time>
      </trkpt>
      <trkpt lat="44.87373" lon="6.09281">
        <ele>1358.4</ele>
        <time>2024-08-14T05:31:13Z</time>
      </trkpt>
      <trkpt lat="44.87374" lon="6.09284">
        <ele>1358.6</ele>
        <time>2024-08-14T05:31:14Z</time>
      </trkpt>
      <trkpt lat="44.87374" lon="6.09284">
        <ele>1358.8</ele>
        <time>2024-08-14T05:31:15Z</time>
      </trkpt>
      <trkpt lat="44.87374" lon="6.09284">
        <ele>1359</ele>
        <time>2024-08-14T05:31:16Z</time>
      </trkpt>
      <trkpt lat="44.87375" lon="6.09286">
        <ele>1359.6</ele>
        <time>2024-08-14T05:31:17Z</time>
      </trkpt>
      <trkpt lat="44.87375" lon="6.09286">
        <ele>1359.6</ele>
        <time>2024-08-14T05:31:18Z</time>
      </trkpt>
      <trkpt lat="44.87375" lon="6.09286">
        <ele>1359.6</ele>
        <time>2024-08-14T05:31:19Z</time>
      </trkpt>
      <trkpt lat="44.87375" lon="6.09286">
        <ele>1359.6</ele>
        <time>2024-08-14T05:31:20Z</time>
      </trkpt>
      <trkpt lat="44.87375" lon="6.09286">
        <ele>1359.6</ele>
        <time>2024-08-14T05:31:21Z</time>
      </trkpt>
      <trkpt lat="44.87375" lon="6.09286">
        <ele>1359.6</ele>
        <time>2024-08-14T05:31:22Z</time>
      </trkpt>
      <trkpt lat="44.87375" lon="6.09286">
        <ele>1359.6</ele>
        <time>2024-08-14T05:31:23Z</time>
      </trkpt>
      <trkpt lat="44.87378" lon="6.09288">
        <ele>1359.8</ele>
        <time>2024-08-14T05:31:24Z</time>
      </trkpt>
      <trkpt lat="44.87378" lon="6.09288">
        <ele>1359.8</ele>
        <time>2024-08-14T05:31:25Z</time>
      </trkpt>
      <trkpt lat="44.8738" lon="6.09286">
        <ele>1359.8</ele>
        <time>2024-08-14T05:31:26Z</time>
      </trkpt>
      <trkpt lat="44.8738" lon="6.09286">
        <ele>1360</ele>
        <time>2024-08-14T05:31:27Z</time>
      </trkpt>
      <trkpt lat="44.87382" lon="6.09284">
        <ele>1360</ele>
        <time>2024-08-14T05:31:28Z</time>
      </trkpt>
      <trkpt lat="44.87382" lon="6.09284">
        <ele>1360</ele>
        <time>2024-08-14T05:31:29Z</time>
      </trkpt>
      <trkpt lat="44.87384" lon="6.09282">
        <ele>1360.2</ele>
        <time>2024-08-14T05:31:30Z</time>
      </trkpt>
      <trkpt lat="44.87384" lon="6.09282">
        <ele>1360.4</ele>
        <time>2024-08-14T05:31:31Z</time>
      </trkpt>
      <trkpt lat="44.87386" lon="6.09281">
        <ele>1360.4</ele>
        <time>2024-08-14T05:31:32Z</time>
      </trkpt>
      <trkpt lat="44.87386" lon="6.09281">
        <ele>1360.6</ele>
        <time>2024-08-14T05:31:33Z</time>
      </trkpt>
      <trkpt lat="44.87388" lon="6.09279">
        <ele>1360.6</ele>
        <time>2024-08-14T05:31:34Z</time>
      </trkpt>
      <trkpt lat="44.87388" lon="6.09279">
        <ele>1360.6</ele>
        <time>2024-08-14T05:31:35Z</time>
      </trkpt>
      <trkpt lat="44.8739" lon="6.09278">
        <ele>1360.6</ele>
        <time>2024-08-14T05:31:36Z</time>
      </trkpt>
      <trkpt lat="44.8739" lon="6.09278">
        <ele>1360.6</ele>
        <time>2024-08-14T05:31:37Z</time>
      </trkpt>
      <trkpt lat="44.87393" lon="6.09277">
        <ele>1360.6</ele>
        <time>2024-08-14T05:31:38Z</time>
      </trkpt>
      <trkpt lat="44.87393" lon="6.09277">
        <ele>1360.6</ele>
        <time>2024-08-14T05:31:39Z</time>
      </trkpt>
      <trkpt lat="44.87392" lon="6.09274">
        <ele>1360.6</ele>
        <time>2024-08-14T05:31:40Z</time>
      </trkpt>
      <trkpt lat="44.87392" lon="6.09274">
        <ele>1361</ele>
        <time>2024-08-14T05:31:41Z</time>
      </trkpt>
      <trkpt lat="44.87393" lon="6.09272">
        <ele>1361</ele>
        <time>2024-08-14T05:31:42Z</time>
      </trkpt>
      <trkpt lat="44.87393" lon="6.09272">
        <ele>1361.2</ele>
        <time>2024-08-14T05:31:43Z</time>
      </trkpt>
      <trkpt lat="44.87395" lon="6.09271">
        <ele>1361.2</ele>
        <time>2024-08-14T05:31:44Z</time>
      </trkpt>
      <trkpt lat="44.87395" lon="6.09271">
        <ele>1361.2</ele>
        <time>2024-08-14T05:31:45Z</time>
      </trkpt>
      <trkpt lat="44.87397" lon="6.09271">
        <ele>1361.2</ele>
        <time>2024-08-14T05:31:46Z</time>
      </trkpt>
      <trkpt lat="44.87397" lon="6.09271">
        <ele>1361.4</ele>
        <time>2024-08-14T05:31:47Z</time>
      </trkpt>
      <trkpt lat="44.874" lon="6.09271">
        <ele>1361.6</ele>
        <time>2024-08-14T05:31:48Z</time>
      </trkpt>
      <trkpt lat="44.874" lon="6.09271">
        <ele>1361.6</ele>
        <time>2024-08-14T05:31:49Z</time>
      </trkpt>
      <trkpt lat="44.87402" lon="6.09272">
        <ele>1361.2</ele>
        <time>2024-08-14T05:31:50Z</time>
      </trkpt>
      <trkpt lat="44.87402" lon="6.09272">
        <ele>1361</ele>
        <time>2024-08-14T05:31:51Z</time>
      </trkpt>
      <trkpt lat="44.87404" lon="6.09273">
        <ele>1361</ele>
        <time>2024-08-14T05:31:52Z</time>
      </trkpt>
      <trkpt lat="44.87404" lon="6.09273">
        <ele>1361</ele>
        <time>2024-08-14T05:31:53Z</time>
      </trkpt>
      <trkpt lat="44.87406" lon="6.09274">
        <ele>1360.8</ele>
        <time>2024-08-14T05:31:54Z</time>
      </trkpt>
      <trkpt lat="44.87406" lon="6.09274">
        <ele>1360.4</ele>
        <time>2024-08-14T05:31:55Z</time>
      </trkpt>
      <trkpt lat="44.87409" lon="6.09275">
        <ele>1360.4</ele>
        <time>2024-08-14T05:31:56Z</time>
      </trkpt>
      <trkpt lat="44.87409" lon="6.09275">
        <ele>1360.4</ele>
        <time>2024-08-14T05:31:57Z</time>
      </trkpt>
      <trkpt lat="44.87411" lon="6.09276">
        <ele>1360.4</ele>
        <time>2024-08-14T05:31:58Z</time>
      </trkpt>
      <trkpt lat="44.87411" lon="6.09276">
        <ele>1360.2</ele>
        <time>2024-08-14T05:31:59Z</time>
      </trkpt>
      <trkpt lat="44.87414" lon="6.09277">
        <ele>1360</ele>
        <time>2024-08-14T05:32:00Z</time>
      </trkpt>
      <trkpt lat="44.87414" lon="6.09277">
        <ele>1360</ele>
        <time>2024-08-14T05:32:01Z</time>
      </trkpt>
      <trkpt lat="44.87416" lon="6.09278">
        <ele>1359.8</ele>
        <time>2024-08-14T05:32:02Z</time>
      </trkpt>
      <trkpt lat="44.87416" lon="6.09278">
        <ele>1359.8</ele>
        <time>2024-08-14T05:32:03Z</time>
      </trkpt>
      <trkpt lat="44.87419" lon="6.09278">
        <ele>1359.4</ele>
        <time>2024-08-14T05:32:04Z</time>
      </trkpt>
      <trkpt lat="44.87419" lon="6.09278">
        <ele>1359.4</ele>
        <time>2024-08-14T05:32:05Z</time>
      </trkpt>
      <trkpt lat="44.87421" lon="6.09278">
        <ele>1359.8</ele>
        <time>2024-08-14T05:32:06Z</time>
      </trkpt>
      <trkpt lat="44.87421" lon="6.09278">
        <ele>1359.8</ele>
        <time>2024-08-14T05:32:07Z</time>
      </trkpt>
      <trkpt lat="44.87424" lon="6.09279">
        <ele>1359.8</ele>
        <time>2024-08-14T05:32:08Z</time>
      </trkpt>
      <trkpt lat="44.87424" lon="6.09279">
        <ele>1360.2</ele>
        <time>2024-08-14T05:32:09Z</time>
      </trkpt>
      <trkpt lat="44.87426" lon="6.09279">
        <ele>1360.2</ele>
        <time>2024-08-14T05:32:10Z</time>
      </trkpt>
      <trkpt lat="44.87426" lon="6.09279">
        <ele>1360.2</ele>
        <time>2024-08-14T05:32:11Z</time>
      </trkpt>
      <trkpt lat="44.87426" lon="6.09279">
        <ele>1360.4</ele>
        <time>2024-08-14T05:32:12Z</time>
      </trkpt>
      <trkpt lat="44.87428" lon="6.09279">
        <ele>1360.6</ele>
        <time>2024-08-14T05:32:13Z</time>
      </trkpt>
      <trkpt lat="44.87428" lon="6.09279">
        <ele>1360.6</ele>
        <time>2024-08-14T05:32:14Z</time>
      </trkpt>
      <trkpt lat="44.8743" lon="6.09278">
        <ele>1361</ele>
        <time>2024-08-14T05:32:15Z</time>
      </trkpt>
      <trkpt lat="44.8743" lon="6.09278">
        <ele>1361.4</ele>
        <time>2024-08-14T05:32:16Z</time>
      </trkpt>
      <trkpt lat="44.87432" lon="6.09277">
        <ele>1361.6</ele>
        <time>2024-08-14T05:32:17Z</time>
      </trkpt>
      <trkpt lat="44.87432" lon="6.09277">
        <ele>1361.6</ele>
        <time>2024-08-14T05:32:18Z</time>
      </trkpt>
      <trkpt lat="44.87434" lon="6.09277">
        <ele>1362</ele>
        <time>2024-08-14T05:32:19Z</time>
      </trkpt>
      <trkpt lat="44.87434" lon="6.09277">
        <ele>1362</ele>
        <time>2024-08-14T05:32:20Z</time>
      </trkpt>
      <trkpt lat="44.87434" lon="6.09277">
        <ele>1362.2</ele>
        <time>2024-08-14T05:32:21Z</time>
      </trkpt>
      <trkpt lat="44.87436" lon="6.09275">
        <ele>1362.4</ele>
        <time>2024-08-14T05:32:22Z</time>
      </trkpt>
      <trkpt lat="44.87436" lon="6.09275">
        <ele>1362.8</ele>
        <time>2024-08-14T05:32:23Z</time>
      </trkpt>
      <trkpt lat="44.87438" lon="6.09275">
        <ele>1363</ele>
        <time>2024-08-14T05:32:24Z</time>
      </trkpt>
      <trkpt lat="44.87438" lon="6.09275">
        <ele>1363.4</ele>
        <time>2024-08-14T05:32:25Z</time>
      </trkpt>
      <trkpt lat="44.8744" lon="6.09274">
        <ele>1363.4</ele>
        <time>2024-08-14T05:32:26Z</time>
      </trkpt>
      <trkpt lat="44.8744" lon="6.09274">
        <ele>1364</ele>
        <time>2024-08-14T05:32:27Z</time>
      </trkpt>
      <trkpt lat="44.8744" lon="6.09274">
        <ele>1364</ele>
        <time>2024-08-14T05:32:28Z</time>
      </trkpt>
      <trkpt lat="44.87442" lon="6.09273">
        <ele>1364</ele>
        <time>2024-08-14T05:32:29Z</time>
      </trkpt>
      <trkpt lat="44.87442" lon="6.09273">
        <ele>1364.4</ele>
        <time>2024-08-14T05:32:30Z</time>
      </trkpt>
      <trkpt lat="44.87444" lon="6.09272">
        <ele>1364.4</ele>
        <time>2024-08-14T05:32:31Z</time>
      </trkpt>
      <trkpt lat="44.87444" lon="6.09272">
        <ele>1364.4</ele>
        <time>2024-08-14T05:32:32Z</time>
      </trkpt>
      <trkpt lat="44.87446" lon="6.09271">
        <ele>1364.8</ele>
        <time>2024-08-14T05:32:33Z</time>
      </trkpt>
      <trkpt lat="44.87446" lon="6.09271">
        <ele>1364.8</ele>
        <time>2024-08-14T05:32:34Z</time>
      </trkpt>
      <trkpt lat="44.87447" lon="6.09269">
        <ele>1365</ele>
        <time>2024-08-14T05:32:35Z</time>
      </trkpt>
      <trkpt lat="44.87447" lon="6.09269">
        <ele>1365.2</ele>
        <time>2024-08-14T05:32:36Z</time>
      </trkpt>
      <trkpt lat="44.87449" lon="6.09268">
        <ele>1365.2</ele>
        <time>2024-08-14T05:32:37Z</time>
      </trkpt>
      <trkpt lat="44.87449" lon="6.09268">
        <ele>1365.6</ele>
        <time>2024-08-14T05:32:38Z</time>
      </trkpt>
      <trkpt lat="44.87451" lon="6.09266">
        <ele>1365.8</ele>
        <time>2024-08-14T05:32:39Z</time>
      </trkpt>
      <trkpt lat="44.87451" lon="6.09266">
        <ele>1365.8</ele>
        <time>2024-08-14T05:32:40Z</time>
      </trkpt>
      <trkpt lat="44.87451" lon="6.09266">
        <ele>1366</ele>
        <time>2024-08-14T05:32:41Z</time>
      </trkpt>
      <trkpt lat="44.87453" lon="6.09264">
        <ele>1366.4</ele>
        <time>2024-08-14T05:32:42Z</time>
      </trkpt>
      <trkpt lat="44.87453" lon="6.09264">
        <ele>1366.4</ele>
        <time>2024-08-14T05:32:43Z</time>
      </trkpt>
      <trkpt lat="44.87453" lon="6.09264">
        <ele>1366.8</ele>
        <time>2024-08-14T05:32:44Z</time>
      </trkpt>
      <trkpt lat="44.87455" lon="6.09263">
        <ele>1366.8</ele>
        <time>2024-08-14T05:32:45Z</time>
      </trkpt>
      <trkpt lat="44.87455" lon="6.09263">
        <ele>1367.2</ele>
        <time>2024-08-14T05:32:46Z</time>
      </trkpt>
      <trkpt lat="44.87457" lon="6.09263">
        <ele>1367.4</ele>
        <time>2024-08-14T05:32:47Z</time>
      </trkpt>
      <trkpt lat="44.87457" lon="6.09263">
        <ele>1367.6</ele>
        <time>2024-08-14T05:32:48Z</time>
      </trkpt>
      <trkpt lat="44.87457" lon="6.09263">
        <ele>1367.8</ele>
        <time>2024-08-14T05:32:49Z</time>
      </trkpt>
      <trkpt lat="44.87459" lon="6.09261">
        <ele>1368</ele>
        <time>2024-08-14T05:32:50Z</time>
      </trkpt>
      <trkpt lat="44.87459" lon="6.09261">
        <ele>1368.4</ele>
        <time>2024-08-14T05:32:51Z</time>
      </trkpt>
      <trkpt lat="44.87459" lon="6.09261">
        <ele>1368.4</ele>
        <time>2024-08-14T05:32:52Z</time>
      </trkpt>
      <trkpt lat="44.87461" lon="6.09259">
        <ele>1368.4</ele>
        <time>2024-08-14T05:32:53Z</time>
      </trkpt>
      <trkpt lat="44.87461" lon="6.09259">
        <ele>1368.6</ele>
        <time>2024-08-14T05:32:54Z</time>
      </trkpt>
      <trkpt lat="44.87461" lon="6.09259">
        <ele>1369</ele>
        <time>2024-08-14T05:32:55Z</time>
      </trkpt>
      <trkpt lat="44.87463" lon="6.09258">
        <ele>1369</ele>
        <time>2024-08-14T05:32:56Z</time>
      </trkpt>
      <trkpt lat="44.87463" lon="6.09258">
        <ele>1369.4</ele>
        <time>2024-08-14T05:32:57Z</time>
      </trkpt>
      <trkpt lat="44.87463" lon="6.09258">
        <ele>1369.4</ele>
        <time>2024-08-14T05:32:58Z</time>
      </trkpt>
      <trkpt lat="44.87465" lon="6.09255">
        <ele>1369.4</ele>
        <time>2024-08-14T05:32:59Z</time>
      </trkpt>
      <trkpt lat="44.87465" lon="6.09255">
        <ele>1369.8</ele>
        <time>2024-08-14T05:33:00Z</time>
      </trkpt>
      <trkpt lat="44.87465" lon="6.09255">
        <ele>1370.2</ele>
        <time>2024-08-14T05:33:01Z</time>
      </trkpt>
      <trkpt lat="44.87467" lon="6.09253">
        <ele>1370.2</ele>
        <time>2024-08-14T05:33:02Z</time>
      </trkpt>
      <trkpt lat="44.87467" lon="6.09253">
        <ele>1370.2</ele>
        <time>2024-08-14T05:33:03Z</time>
      </trkpt>
      <trkpt lat="44.87467" lon="6.09253">
        <ele>1370.6</ele>
        <time>2024-08-14T05:33:04Z</time>
      </trkpt>
      <trkpt lat="44.87469" lon="6.09252">
        <ele>1371</ele>
        <time>2024-08-14T05:33:05Z</time>
      </trkpt>
      <trkpt lat="44.87469" lon="6.09252">
        <ele>1371</ele>
        <time>2024-08-14T05:33:06Z</time>
      </trkpt>
      <trkpt lat="44.87471" lon="6.09252">
        <ele>1371.4</ele>
        <time>2024-08-14T05:33:07Z</time>
      </trkpt>
      <trkpt lat="44.87471" lon="6.09252">
        <ele>1371.4</ele>
        <time>2024-08-14T05:33:08Z</time>
      </trkpt>
      <trkpt lat="44.87471" lon="6.09252">
        <ele>1371.6</ele>
        <time>2024-08-14T05:33:09Z</time>
      </trkpt>
      <trkpt lat="44.87473" lon="6.09251">
        <ele>1371.6</ele>
        <time>2024-08-14T05:33:10Z</time>
      </trkpt>
      <trkpt lat="44.87473" lon="6.09251">
        <ele>1371.8</ele>
        <time>2024-08-14T05:33:11Z</time>
      </trkpt>
      <trkpt lat="44.87475" lon="6.09251">
        <ele>1372.2</ele>
        <time>2024-08-14T05:33:12Z</time>
      </trkpt>
      <trkpt lat="44.87475" lon="6.09251">
        <ele>1372.2</ele>
        <time>2024-08-14T05:33:13Z</time>
      </trkpt>
      <trkpt lat="44.87475" lon="6.09251">
        <ele>1372.6</ele>
        <time>2024-08-14T05:33:14Z</time>
      </trkpt>
      <trkpt lat="44.87477" lon="6.0925">
        <ele>1372.6</ele>
        <time>2024-08-14T05:33:15Z</time>
      </trkpt>
      <trkpt lat="44.87477" lon="6.0925">
        <ele>1373</ele>
        <time>2024-08-14T05:33:16Z</time>
      </trkpt>
      <trkpt lat="44.87479" lon="6.09248">
        <ele>1373</ele>
        <time>2024-08-14T05:33:17Z</time>
      </trkpt>
      <trkpt lat="44.87479" lon="6.09248">
        <ele>1373.2</ele>
        <time>2024-08-14T05:33:18Z</time>
      </trkpt>
      <trkpt lat="44.87479" lon="6.09248">
        <ele>1373.2</ele>
        <time>2024-08-14T05:33:19Z</time>
      </trkpt>
      <trkpt lat="44.87481" lon="6.09247">
        <ele>1373.4</ele>
        <time>2024-08-14T05:33:20Z</time>
      </trkpt>
      <trkpt lat="44.87481" lon="6.09247">
        <ele>1373.6</ele>
        <time>2024-08-14T05:33:21Z</time>
      </trkpt>
      <trkpt lat="44.87481" lon="6.09247">
        <ele>1373.6</ele>
        <time>2024-08-14T05:33:22Z</time>
      </trkpt>
      <trkpt lat="44.87483" lon="6.09246">
        <ele>1373.8</ele>
        <time>2024-08-14T05:33:23Z</time>
      </trkpt>
      <trkpt lat="44.87483" lon="6.09246">
        <ele>1374.2</ele>
        <time>2024-08-14T05:33:24Z</time>
      </trkpt>
      <trkpt lat="44.87483" lon="6.09246">
        <ele>1374.4</ele>
        <time>2024-08-14T05:33:25Z</time>
      </trkpt>
      <trkpt lat="44.87485" lon="6.09244">
        <ele>1374.6</ele>
        <time>2024-08-14T05:33:26Z</time>
      </trkpt>
      <trkpt lat="44.87485" lon="6.09244">
        <ele>1375</ele>
        <time>2024-08-14T05:33:27Z</time>
      </trkpt>
      <trkpt lat="44.87485" lon="6.09244">
        <ele>1375</ele>
        <time>2024-08-14T05:33:28Z</time>
      </trkpt>
      <trkpt lat="44.87487" lon="6.09243">
        <ele>1375.2</ele>
        <time>2024-08-14T05:33:29Z</time>
      </trkpt>
      <trkpt lat="44.87487" lon="6.09243">
        <ele>1375.2</ele>
        <time>2024-08-14T05:33:30Z</time>
      </trkpt>
      <trkpt lat="44.87489" lon="6.09242">
        <ele>1375.2</ele>
        <time>2024-08-14T05:33:31Z</time>
      </trkpt>
      <trkpt lat="44.87489" lon="6.09242">
        <ele>1375.6</ele>
        <time>2024-08-14T05:33:32Z</time>
      </trkpt>
      <trkpt lat="44.87489" lon="6.09242">
        <ele>1375.6</ele>
        <time>2024-08-14T05:33:33Z</time>
      </trkpt>
      <trkpt lat="44.87491" lon="6.09241">
        <ele>1375.8</ele>
        <time>2024-08-14T05:33:34Z</time>
      </trkpt>
      <trkpt lat="44.87491" lon="6.09241">
        <ele>1376.2</ele>
        <time>2024-08-14T05:33:35Z</time>
      </trkpt>
      <trkpt lat="44.87491" lon="6.09241">
        <ele>1376.2</ele>
        <time>2024-08-14T05:33:36Z</time>
      </trkpt>
      <trkpt lat="44.87491" lon="6.09241">
        <ele>1376.6</ele>
        <time>2024-08-14T05:33:37Z</time>
      </trkpt>
      <trkpt lat="44.87493" lon="6.09241">
        <ele>1376.6</ele>
        <time>2024-08-14T05:33:38Z</time>
      </trkpt>
      <trkpt lat="44.87493" lon="6.09241">
        <ele>1376.8</ele>
        <time>2024-08-14T05:33:39Z</time>
      </trkpt>
      <trkpt lat="44.87493" lon="6.09241">
        <ele>1377</ele>
        <time>2024-08-14T05:33:40Z</time>
      </trkpt>
      <trkpt lat="44.87493" lon="6.09241">
        <ele>1377.4</ele>
        <time>2024-08-14T05:33:41Z</time>
      </trkpt>
      <trkpt lat="44.87495" lon="6.09238">
        <ele>1377.8</ele>
        <time>2024-08-14T05:33:42Z</time>
      </trkpt>
      <trkpt lat="44.87495" lon="6.09238">
        <ele>1378</ele>
        <time>2024-08-14T05:33:43Z</time>
      </trkpt>
      <trkpt lat="44.87495" lon="6.09238">
        <ele>1378</ele>
        <time>2024-08-14T05:33:44Z</time>
      </trkpt>
      <trkpt lat="44.87495" lon="6.09238">
        <ele>1378</ele>
        <time>2024-08-14T05:33:45Z</time>
      </trkpt>
      <trkpt lat="44.87496" lon="6.09235">
        <ele>1378</ele>
        <time>2024-08-14T05:33:46Z</time>
      </trkpt>
      <trkpt lat="44.87496" lon="6.09235">
        <ele>1378.2</ele>
        <time>2024-08-14T05:33:47Z</time>
      </trkpt>
      <trkpt lat="44.87496" lon="6.09235">
        <ele>1378.4</ele>
        <time>2024-08-14T05:33:48Z</time>
      </trkpt>
      <trkpt lat="44.87497" lon="6.09232">
        <ele>1378.8</ele>
        <time>2024-08-14T05:33:49Z</time>
      </trkpt>
      <trkpt lat="44.87497" lon="6.09232">
        <ele>1378.8</ele>
        <time>2024-08-14T05:33:50Z</time>
      </trkpt>
      <trkpt lat="44.87498" lon="6.09231">
        <ele>1378.8</ele>
        <time>2024-08-14T05:33:51Z</time>
      </trkpt>
      <trkpt lat="44.87498" lon="6.09231">
        <ele>1379.2</ele>
        <time>2024-08-14T05:33:52Z</time>
      </trkpt>
      <trkpt lat="44.87498" lon="6.09231">
        <ele>1379.2</ele>
        <time>2024-08-14T05:33:53Z</time>
      </trkpt>
      <trkpt lat="44.875" lon="6.09229">
        <ele>1379.4</ele>
        <time>2024-08-14T05:33:54Z</time>
      </trkpt>
      <trkpt lat="44.875" lon="6.09229">
        <ele>1379.6</ele>
        <time>2024-08-14T05:33:55Z</time>
      </trkpt>
      <trkpt lat="44.875" lon="6.09229">
        <ele>1379.8</ele>
        <time>2024-08-14T05:33:56Z</time>
      </trkpt>
      <trkpt lat="44.87503" lon="6.09228">
        <ele>1379.8</ele>
        <time>2024-08-14T05:33:57Z</time>
      </trkpt>
      <trkpt lat="44.87503" lon="6.09228">
        <ele>1380</ele>
        <time>2024-08-14T05:33:58Z</time>
      </trkpt>
      <trkpt lat="44.87503" lon="6.09228">
        <ele>1380</ele>
        <time>2024-08-14T05:33:59Z</time>
      </trkpt>
      <trkpt lat="44.87505" lon="6.09227">
        <ele>1380.2</ele>
        <time>2024-08-14T05:34:00Z</time>
      </trkpt>
      <trkpt lat="44.87505" lon="6.09227">
        <ele>1380.4</ele>
        <time>2024-08-14T05:34:01Z</time>
      </trkpt>
      <trkpt lat="44.87506" lon="6.09225">
        <ele>1380.6</ele>
        <time>2024-08-14T05:34:02Z</time>
      </trkpt>
      <trkpt lat="44.87506" lon="6.09225">
        <ele>1380.6</ele>
        <time>2024-08-14T05:34:03Z</time>
      </trkpt>
      <trkpt lat="44.87506" lon="6.09225">
        <ele>1380.8</ele>
        <time>2024-08-14T05:34:04Z</time>
      </trkpt>
      <trkpt lat="44.87508" lon="6.09224">
        <ele>1381.2</ele>
        <time>2024-08-14T05:34:05Z</time>
      </trkpt>
      <trkpt lat="44.87508" lon="6.09224">
        <ele>1381.2</ele>
        <time>2024-08-14T05:34:06Z</time>
      </trkpt>
      <trkpt lat="44.87509" lon="6.09222">
        <ele>1381.4</ele>
        <time>2024-08-14T05:34:07Z</time>
      </trkpt>
      <trkpt lat="44.87509" lon="6.09222">
        <ele>1381.8</ele>
        <time>2024-08-14T05:34:08Z</time>
      </trkpt>
      <trkpt lat="44.87509" lon="6.09222">
        <ele>1381.8</ele>
        <time>2024-08-14T05:34:09Z</time>
      </trkpt>
      <trkpt lat="44.87509" lon="6.09222">
        <ele>1382</ele>
        <time>2024-08-14T05:34:10Z</time>
      </trkpt>
      <trkpt lat="44.87511" lon="6.09221">
        <ele>1382</ele>
        <time>2024-08-14T05:34:11Z</time>
      </trkpt>
      <trkpt lat="44.87511" lon="6.09221">
        <ele>1382.2</ele>
        <time>2024-08-14T05:34:12Z</time>
      </trkpt>
      <trkpt lat="44.87511" lon="6.09221">
        <ele>1383</ele>
        <time>2024-08-14T05:34:13Z</time>
      </trkpt>
      <trkpt lat="44.87513" lon="6.09223">
        <ele>1383</ele>
        <time>2024-08-14T05:34:14Z</time>
      </trkpt>
      <trkpt lat="44.87513" lon="6.09223">
        <ele>1383.2</ele>
        <time>2024-08-14T05:34:15Z</time>
      </trkpt>
      <trkpt lat="44.87513" lon="6.09223">
        <ele>1383.2</ele>
        <time>2024-08-14T05:34:16Z</time>
      </trkpt>
      <trkpt lat="44.87515" lon="6.09223">
        <ele>1383.2</ele>
        <time>2024-08-14T05:34:17Z</time>
      </trkpt>
      <trkpt lat="44.87515" lon="6.09223">
        <ele>1383.4</ele>
        <time>2024-08-14T05:34:18Z</time>
      </trkpt>
      <trkpt lat="44.87515" lon="6.09223">
        <ele>1383.8</ele>
        <time>2024-08-14T05:34:19Z</time>
      </trkpt>
      <trkpt lat="44.87517" lon="6.09221">
        <ele>1383.8</ele>
        <time>2024-08-14T05:34:20Z</time>
      </trkpt>
      <trkpt lat="44.87517" lon="6.09221">
        <ele>1384</ele>
        <time>2024-08-14T05:34:21Z</time>
      </trkpt>
      <trkpt lat="44.87518" lon="6.09221">
        <ele>1384</ele>
        <time>2024-08-14T05:34:22Z</time>
      </trkpt>
      <trkpt lat="44.87518" lon="6.09221">
        <ele>1384</ele>
        <time>2024-08-14T05:34:23Z</time>
      </trkpt>
      <trkpt lat="44.87518" lon="6.09221">
        <ele>1384.2</ele>
        <time>2024-08-14T05:34:24Z</time>
      </trkpt>
      <trkpt lat="44.87518" lon="6.09221">
        <ele>1384.4</ele>
        <time>2024-08-14T05:34:25Z</time>
      </trkpt>
      <trkpt lat="44.87521" lon="6.0922">
        <ele>1384.4</ele>
        <time>2024-08-14T05:34:26Z</time>
      </trkpt>
      <trkpt lat="44.87521" lon="6.0922">
        <ele>1384.6</ele>
        <time>2024-08-14T05:34:27Z</time>
      </trkpt>
      <trkpt lat="44.87521" lon="6.0922">
        <ele>1384.8</ele>
        <time>2024-08-14T05:34:28Z</time>
      </trkpt>
      <trkpt lat="44.87523" lon="6.09219">
        <ele>1385</ele>
        <time>2024-08-14T05:34:29Z</time>
      </trkpt>
      <trkpt lat="44.87523" lon="6.09219">
        <ele>1385.2</ele>
        <time>2024-08-14T05:34:30Z</time>
      </trkpt>
      <trkpt lat="44.87523" lon="6.09219">
        <ele>1385.2</ele>
        <time>2024-08-14T05:34:31Z</time>
      </trkpt>
      <trkpt lat="44.87525" lon="6.09217">
        <ele>1385.4</ele>
        <time>2024-08-14T05:34:32Z</time>
      </trkpt>
      <trkpt lat="44.87525" lon="6.09217">
        <ele>1385.6</ele>
        <time>2024-08-14T05:34:33Z</time>
      </trkpt>
      <trkpt lat="44.87526" lon="6.09215">
        <ele>1385.6</ele>
        <time>2024-08-14T05:34:34Z</time>
      </trkpt>
      <trkpt lat="44.87526" lon="6.09215">
        <ele>1385.6</ele>
        <time>2024-08-14T05:34:35Z</time>
      </trkpt>
      <trkpt lat="44.87526" lon="6.09215">
        <ele>1385.8</ele>
        <time>2024-08-14T05:34:36Z</time>
      </trkpt>
      <trkpt lat="44.87526" lon="6.09215">
        <ele>1386.2</ele>
        <time>2024-08-14T05:34:37Z</time>
      </trkpt>
      <trkpt lat="44.87528" lon="6.09213">
        <ele>1386.2</ele>
        <time>2024-08-14T05:34:38Z</time>
      </trkpt>
      <trkpt lat="44.87528" lon="6.09213">
        <ele>1386.4</ele>
        <time>2024-08-14T05:34:39Z</time>
      </trkpt>
      <trkpt lat="44.87528" lon="6.09213">
        <ele>1386.4</ele>
        <time>2024-08-14T05:34:40Z</time>
      </trkpt>
      <trkpt lat="44.87528" lon="6.09213">
        <ele>1386.8</ele>
        <time>2024-08-14T05:34:41Z</time>
      </trkpt>
      <trkpt lat="44.87528" lon="6.09213">
        <ele>1386.8</ele>
        <time>2024-08-14T05:34:42Z</time>
      </trkpt>
      <trkpt lat="44.8753" lon="6.09211">
        <ele>1387</ele>
        <time>2024-08-14T05:34:43Z</time>
      </trkpt>
      <trkpt lat="44.8753" lon="6.09211">
        <ele>1387</ele>
        <time>2024-08-14T05:34:44Z</time>
      </trkpt>
      <trkpt lat="44.8753" lon="6.09211">
        <ele>1387.8</ele>
        <time>2024-08-14T05:34:45Z</time>
      </trkpt>
      <trkpt lat="44.87531" lon="6.09208">
        <ele>1387.8</ele>
        <time>2024-08-14T05:34:46Z</time>
      </trkpt>
      <trkpt lat="44.87531" lon="6.09208">
        <ele>1387.8</ele>
        <time>2024-08-14T05:34:47Z</time>
      </trkpt>
      <trkpt lat="44.87531" lon="6.09208">
        <ele>1387.8</ele>
        <time>2024-08-14T05:34:48Z</time>
      </trkpt>
      <trkpt lat="44.87531" lon="6.09208">
        <ele>1388.2</ele>
        <time>2024-08-14T05:34:49Z</time>
      </trkpt>
      <trkpt lat="44.87531" lon="6.09208">
        <ele>1388.2</ele>
        <time>2024-08-14T05:34:50Z</time>
      </trkpt>
      <trkpt lat="44.87531" lon="6.09205">
        <ele>1388.2</ele>
        <time>2024-08-14T05:34:51Z</time>
      </trkpt>
      <trkpt lat="44.87531" lon="6.09205">
        <ele>1388.4</ele>
        <time>2024-08-14T05:34:52Z</time>
      </trkpt>
      <trkpt lat="44.87531" lon="6.09205">
        <ele>1388.4</ele>
        <time>2024-08-14T05:34:53Z</time>
      </trkpt>
      <trkpt lat="44.87531" lon="6.09205">
        <ele>1388.6</ele>
        <time>2024-08-14T05:34:54Z</time>
      </trkpt>
      <trkpt lat="44.87533" lon="6.09203">
        <ele>1388.6</ele>
        <time>2024-08-14T05:34:55Z</time>
      </trkpt>
      <trkpt lat="44.87533" lon="6.09203">
        <ele>1389</ele>
        <time>2024-08-14T05:34:56Z</time>
      </trkpt>
      <trkpt lat="44.87533" lon="6.09203">
        <ele>1389</ele>
        <time>2024-08-14T05:34:57Z</time>
      </trkpt>
      <trkpt lat="44.87534" lon="6.09201">
        <ele>1389.4</ele>
        <time>2024-08-14T05:34:58Z</time>
      </trkpt>
      <trkpt lat="44.87534" lon="6.09201">
        <ele>1389.6</ele>
        <time>2024-08-14T05:34:59Z</time>
      </trkpt>
      <trkpt lat="44.87534" lon="6.09201">
        <ele>1389.8</ele>
        <time>2024-08-14T05:35:00Z</time>
      </trkpt>
      <trkpt lat="44.87534" lon="6.09201">
        <ele>1389.8</ele>
        <time>2024-08-14T05:35:01Z</time>
      </trkpt>
      <trkpt lat="44.87534" lon="6.09201">
        <ele>1390</ele>
        <time>2024-08-14T05:35:02Z</time>
      </trkpt>
      <trkpt lat="44.87535" lon="6.09198">
        <ele>1390</ele>
        <time>2024-08-14T05:35:03Z</time>
      </trkpt>
      <trkpt lat="44.87535" lon="6.09198">
        <ele>1390.4</ele>
        <time>2024-08-14T05:35:04Z</time>
      </trkpt>
      <trkpt lat="44.87535" lon="6.09198">
        <ele>1390.6</ele>
        <time>2024-08-14T05:35:05Z</time>
      </trkpt>
      <trkpt lat="44.87537" lon="6.09198">
        <ele>1390.8</ele>
        <time>2024-08-14T05:35:06Z</time>
      </trkpt>
      <trkpt lat="44.87537" lon="6.09198">
        <ele>1391</ele>
        <time>2024-08-14T05:35:07Z</time>
      </trkpt>
      <trkpt lat="44.87537" lon="6.09198">
        <ele>1391</ele>
        <time>2024-08-14T05:35:08Z</time>
      </trkpt>
      <trkpt lat="44.87537" lon="6.09198">
        <ele>1391</ele>
        <time>2024-08-14T05:35:09Z</time>
      </trkpt>
      <trkpt lat="44.87537" lon="6.09198">
        <ele>1391</ele>
        <time>2024-08-14T05:35:10Z</time>
      </trkpt>
      <trkpt lat="44.87537" lon="6.09198">
        <ele>1391.4</ele>
        <time>2024-08-14T05:35:11Z</time>
      </trkpt>
      <trkpt lat="44.87537" lon="6.09198">
        <ele>1391.6</ele>
        <time>2024-08-14T05:35:12Z</time>
      </trkpt>
      <trkpt lat="44.87537" lon="6.09198">
        <ele>1391.6</ele>
        <time>2024-08-14T05:35:13Z</time>
      </trkpt>
      <trkpt lat="44.87537" lon="6.09198">
        <ele>1391.2</ele>
        <time>2024-08-14T05:35:14Z</time>
      </trkpt>
      <trkpt lat="44.87537" lon="6.09198">
        <ele>1391.2</ele>
        <time>2024-08-14T05:35:15Z</time>
      </trkpt>
      <trkpt lat="44.87537" lon="6.09198">
        <ele>1391</ele>
        <time>2024-08-14T05:35:16Z</time>
      </trkpt>
      <trkpt lat="44.87539" lon="6.09198">
        <ele>1391</ele>
        <time>2024-08-14T05:35:17Z</time>
      </trkpt>
      <trkpt lat="44.87539" lon="6.09198">
        <ele>1391.4</ele>
        <time>2024-08-14T05:35:18Z</time>
      </trkpt>
      <trkpt lat="44.87539" lon="6.09198">
        <ele>1391.4</ele>
        <time>2024-08-14T05:35:19Z</time>
      </trkpt>
      <trkpt lat="44.87542" lon="6.09196">
        <ele>1391.8</ele>
        <time>2024-08-14T05:35:20Z</time>
      </trkpt>
      <trkpt lat="44.87542" lon="6.09196">
        <ele>1391.8</ele>
        <time>2024-08-14T05:35:21Z</time>
      </trkpt>
      <trkpt lat="44.87544" lon="6.09195">
        <ele>1391.8</ele>
        <time>2024-08-14T05:35:22Z</time>
      </trkpt>
      <trkpt lat="44.87544" lon="6.09195">
        <ele>1391.8</ele>
        <time>2024-08-14T05:35:23Z</time>
      </trkpt>
      <trkpt lat="44.87546" lon="6.09194">
        <ele>1392.4</ele>
        <time>2024-08-14T05:35:24Z</time>
      </trkpt>
      <trkpt lat="44.87546" lon="6.09194">
        <ele>1392.6</ele>
        <time>2024-08-14T05:35:25Z</time>
      </trkpt>
      <trkpt lat="44.87546" lon="6.09194">
        <ele>1392.6</ele>
        <time>2024-08-14T05:35:26Z</time>
      </trkpt>
      <trkpt lat="44.87548" lon="6.09193">
        <ele>1392.8</ele>
        <time>2024-08-14T05:35:27Z</time>
      </trkpt>
      <trkpt lat="44.87548" lon="6.09193">
        <ele>1393</ele>
        <time>2024-08-14T05:35:28Z</time>
      </trkpt>
      <trkpt lat="44.87548" lon="6.09193">
        <ele>1393.2</ele>
        <time>2024-08-14T05:35:29Z</time>
      </trkpt>
      <trkpt lat="44.8755" lon="6.09192">
        <ele>1393.2</ele>
        <time>2024-08-14T05:35:30Z</time>
      </trkpt>
      <trkpt lat="44.8755" lon="6.09192">
        <ele>1393.2</ele>
        <time>2024-08-14T05:35:31Z</time>
      </trkpt>
      <trkpt lat="44.8755" lon="6.09192">
        <ele>1393.2</ele>
        <time>2024-08-14T05:35:32Z</time>
      </trkpt>
      <trkpt lat="44.87552" lon="6.09191">
        <ele>1393.4</ele>
        <time>2024-08-14T05:35:33Z</time>
      </trkpt>
      <trkpt lat="44.87552" lon="6.09191">
        <ele>1393.8</ele>
        <time>2024-08-14T05:35:34Z</time>
      </trkpt>
      <trkpt lat="44.87554" lon="6.0919">
        <ele>1394.2</ele>
        <time>2024-08-14T05:35:35Z</time>
      </trkpt>
      <trkpt lat="44.87554" lon="6.0919">
        <ele>1394.2</ele>
        <time>2024-08-14T05:35:36Z</time>
      </trkpt>
      <trkpt lat="44.87554" lon="6.0919">
        <ele>1394.4</ele>
        <time>2024-08-14T05:35:37Z</time>
      </trkpt>
      <trkpt lat="44.87554" lon="6.0919">
        <ele>1394.4</ele>
        <time>2024-08-14T05:35:38Z</time>
      </trkpt>
      <trkpt lat="44.87555" lon="6.09188">
        <ele>1394.6</ele>
        <time>2024-08-14T05:35:39Z</time>
      </trkpt>
      <trkpt lat="44.87555" lon="6.09188">
        <ele>1394.8</ele>
        <time>2024-08-14T05:35:40Z</time>
      </trkpt>
      <trkpt lat="44.87557" lon="6.09187">
        <ele>1395.2</ele>
        <time>2024-08-14T05:35:41Z</time>
      </trkpt>
      <trkpt lat="44.87557" lon="6.09187">
        <ele>1395.4</ele>
        <time>2024-08-14T05:35:42Z</time>
      </trkpt>
      <trkpt lat="44.87557" lon="6.09187">
        <ele>1395.4</ele>
        <time>2024-08-14T05:35:43Z</time>
      </trkpt>
      <trkpt lat="44.87559" lon="6.09185">
        <ele>1395.6</ele>
        <time>2024-08-14T05:35:44Z</time>
      </trkpt>
      <trkpt lat="44.87559" lon="6.09185">
        <ele>1395.8</ele>
        <time>2024-08-14T05:35:45Z</time>
      </trkpt>
      <trkpt lat="44.87559" lon="6.09185">
        <ele>1396.2</ele>
        <time>2024-08-14T05:35:46Z</time>
      </trkpt>
      <trkpt lat="44.87559" lon="6.09185">
        <ele>1396.4</ele>
        <time>2024-08-14T05:35:47Z</time>
      </trkpt>
      <trkpt lat="44.87561" lon="6.09184">
        <ele>1396.4</ele>
        <time>2024-08-14T05:35:48Z</time>
      </trkpt>
      <trkpt lat="44.87561" lon="6.09184">
        <ele>1396.4</ele>
        <time>2024-08-14T05:35:49Z</time>
      </trkpt>
      <trkpt lat="44.87562" lon="6.09182">
        <ele>1396.4</ele>
        <time>2024-08-14T05:35:50Z</time>
      </trkpt>
      <trkpt lat="44.87562" lon="6.09182">
        <ele>1396.6</ele>
        <time>2024-08-14T05:35:51Z</time>
      </trkpt>
      <trkpt lat="44.87564" lon="6.0918">
        <ele>1396.8</ele>
        <time>2024-08-14T05:35:52Z</time>
      </trkpt>
      <trkpt lat="44.87564" lon="6.0918">
        <ele>1397.4</ele>
        <time>2024-08-14T05:35:53Z</time>
      </trkpt>
      <trkpt lat="44.87565" lon="6.09178">
        <ele>1397.6</ele>
        <time>2024-08-14T05:35:54Z</time>
      </trkpt>
      <trkpt lat="44.87565" lon="6.09178">
        <ele>1397.6</ele>
        <time>2024-08-14T05:35:55Z</time>
      </trkpt>
      <trkpt lat="44.87565" lon="6.09178">
        <ele>1397.6</ele>
        <time>2024-08-14T05:35:56Z</time>
      </trkpt>
      <trkpt lat="44.87567" lon="6.09176">
        <ele>1397.8</ele>
        <time>2024-08-14T05:35:57Z</time>
      </trkpt>
      <trkpt lat="44.87567" lon="6.09176">
        <ele>1398.2</ele>
        <time>2024-08-14T05:35:58Z</time>
      </trkpt>
      <trkpt lat="44.87567" lon="6.09176">
        <ele>1398.2</ele>
        <time>2024-08-14T05:35:59Z</time>
      </trkpt>
      <trkpt lat="44.87569" lon="6.09174">
        <ele>1398.4</ele>
        <time>2024-08-14T05:36:00Z</time>
      </trkpt>
      <trkpt lat="44.87569" lon="6.09174">
        <ele>1398.6</ele>
        <time>2024-08-14T05:36:01Z</time>
      </trkpt>
      <trkpt lat="44.87569" lon="6.09174">
        <ele>1399</ele>
        <time>2024-08-14T05:36:02Z</time>
      </trkpt>
      <trkpt lat="44.8757" lon="6.09173">
        <ele>1399</ele>
        <time>2024-08-14T05:36:03Z</time>
      </trkpt>
      <trkpt lat="44.8757" lon="6.09173">
        <ele>1399.2</ele>
        <time>2024-08-14T05:36:04Z</time>
      </trkpt>
      <trkpt lat="44.8757" lon="6.09173">
        <ele>1399.2</ele>
        <time>2024-08-14T05:36:05Z</time>
      </trkpt>
      <trkpt lat="44.87572" lon="6.09171">
        <ele>1399.4</ele>
        <time>2024-08-14T05:36:06Z</time>
      </trkpt>
      <trkpt lat="44.87572" lon="6.09171">
        <ele>1399.8</ele>
        <time>2024-08-14T05:36:07Z</time>
      </trkpt>
      <trkpt lat="44.87572" lon="6.09171">
        <ele>1400</ele>
        <time>2024-08-14T05:36:08Z</time>
      </trkpt>
      <trkpt lat="44.87574" lon="6.09169">
        <ele>1400</ele>
        <time>2024-08-14T05:36:09Z</time>
      </trkpt>
      <trkpt lat="44.87574" lon="6.09169">
        <ele>1400</ele>
        <time>2024-08-14T05:36:10Z</time>
      </trkpt>
      <trkpt lat="44.87574" lon="6.09169">
        <ele>1400</ele>
        <time>2024-08-14T05:36:11Z</time>
      </trkpt>
      <trkpt lat="44.87575" lon="6.09166">
        <ele>1400.6</ele>
        <time>2024-08-14T05:36:12Z</time>
      </trkpt>
      <trkpt lat="44.87575" lon="6.09166">
        <ele>1400.6</ele>
        <time>2024-08-14T05:36:13Z</time>
      </trkpt>
      <trkpt lat="44.87577" lon="6.09165">
        <ele>1400.8</ele>
        <time>2024-08-14T05:36:14Z</time>
      </trkpt>
      <trkpt lat="44.87577" lon="6.09165">
        <ele>1401</ele>
        <time>2024-08-14T05:36:15Z</time>
      </trkpt>
      <trkpt lat="44.87577" lon="6.09165">
        <ele>1401.2</ele>
        <time>2024-08-14T05:36:16Z</time>
      </trkpt>
      <trkpt lat="44.87579" lon="6.09164">
        <ele>1401.4</ele>
        <time>2024-08-14T05:36:17Z</time>
      </trkpt>
      <trkpt lat="44.87579" lon="6.09164">
        <ele>1401.4</ele>
        <time>2024-08-14T05:36:18Z</time>
      </trkpt>
      <trkpt lat="44.87579" lon="6.09164">
        <ele>1401.6</ele>
        <time>2024-08-14T05:36:19Z</time>
      </trkpt>
      <trkpt lat="44.87581" lon="6.09163">
        <ele>1401.6</ele>
        <time>2024-08-14T05:36:20Z</time>
      </trkpt>
      <trkpt lat="44.87581" lon="6.09163">
        <ele>1401.8</ele>
        <time>2024-08-14T05:36:21Z</time>
      </trkpt>
      <trkpt lat="44.87582" lon="6.09162">
        <ele>1402.2</ele>
        <time>2024-08-14T05:36:22Z</time>
      </trkpt>
      <trkpt lat="44.87582" lon="6.09162">
        <ele>1402.2</ele>
        <time>2024-08-14T05:36:23Z</time>
      </trkpt>
      <trkpt lat="44.87584" lon="6.09161">
        <ele>1402.4</ele>
        <time>2024-08-14T05:36:24Z</time>
      </trkpt>
      <trkpt lat="44.87584" lon="6.09161">
        <ele>1402.8</ele>
        <time>2024-08-14T05:36:25Z</time>
      </trkpt>
      <trkpt lat="44.87584" lon="6.09161">
        <ele>1402.8</ele>
        <time>2024-08-14T05:36:26Z</time>
      </trkpt>
      <trkpt lat="44.87586" lon="6.09159">
        <ele>1403</ele>
        <time>2024-08-14T05:36:27Z</time>
      </trkpt>
      <trkpt lat="44.87586" lon="6.09159">
        <ele>1403.2</ele>
        <time>2024-08-14T05:36:28Z</time>
      </trkpt>
      <trkpt lat="44.87586" lon="6.09159">
        <ele>1403.4</ele>
        <time>2024-08-14T05:36:29Z</time>
      </trkpt>
      <trkpt lat="44.87589" lon="6.09158">
        <ele>1403.6</ele>
        <time>2024-08-14T05:36:30Z</time>
      </trkpt>
      <trkpt lat="44.87589" lon="6.09158">
        <ele>1404</ele>
        <time>2024-08-14T05:36:31Z</time>
      </trkpt>
      <trkpt lat="44.87589" lon="6.09158">
        <ele>1404</ele>
        <time>2024-08-14T05:36:32Z</time>
      </trkpt>
      <trkpt lat="44.87591" lon="6.09157">
        <ele>1403.8</ele>
        <time>2024-08-14T05:36:33Z</time>
      </trkpt>
      <trkpt lat="44.87591" lon="6.09157">
        <ele>1403.8</ele>
        <time>2024-08-14T05:36:34Z</time>
      </trkpt>
      <trkpt lat="44.87591" lon="6.09157">
        <ele>1404.4</ele>
        <time>2024-08-14T05:36:35Z</time>
      </trkpt>
      <trkpt lat="44.87591" lon="6.09157">
        <ele>1404.4</ele>
        <time>2024-08-14T05:36:36Z</time>
      </trkpt>
      <trkpt lat="44.87593" lon="6.09155">
        <ele>1404.6</ele>
        <time>2024-08-14T05:36:37Z</time>
      </trkpt>
      <trkpt lat="44.87593" lon="6.09155">
        <ele>1405</ele>
        <time>2024-08-14T05:36:38Z</time>
      </trkpt>
      <trkpt lat="44.87595" lon="6.09155">
        <ele>1405</ele>
        <time>2024-08-14T05:36:39Z</time>
      </trkpt>
      <trkpt lat="44.87595" lon="6.09155">
        <ele>1405.2</ele>
        <time>2024-08-14T05:36:40Z</time>
      </trkpt>
      <trkpt lat="44.87595" lon="6.09155">
        <ele>1405.4</ele>
        <time>2024-08-14T05:36:41Z</time>
      </trkpt>
      <trkpt lat="44.87597" lon="6.09156">
        <ele>1405.4</ele>
        <time>2024-08-14T05:36:42Z</time>
      </trkpt>
      <trkpt lat="44.87597" lon="6.09156">
        <ele>1405.8</ele>
        <time>2024-08-14T05:36:43Z</time>
      </trkpt>
      <trkpt lat="44.87597" lon="6.09156">
        <ele>1405.8</ele>
        <time>2024-08-14T05:36:44Z</time>
      </trkpt>
      <trkpt lat="44.87599" lon="6.09155">
        <ele>1405.8</ele>
        <time>2024-08-14T05:36:45Z</time>
      </trkpt>
      <trkpt lat="44.87599" lon="6.09155">
        <ele>1406.4</ele>
        <time>2024-08-14T05:36:46Z</time>
      </trkpt>
      <trkpt lat="44.87599" lon="6.09155">
        <ele>1406.4</ele>
        <time>2024-08-14T05:36:47Z</time>
      </trkpt>
      <trkpt lat="44.876" lon="6.09154">
        <ele>1406.4</ele>
        <time>2024-08-14T05:36:48Z</time>
      </trkpt>
      <trkpt lat="44.876" lon="6.09154">
        <ele>1406.4</ele>
        <time>2024-08-14T05:36:49Z</time>
      </trkpt>
      <trkpt lat="44.876" lon="6.09154">
        <ele>1407</ele>
        <time>2024-08-14T05:36:50Z</time>
      </trkpt>
      <trkpt lat="44.876" lon="6.09154">
        <ele>1407.2</ele>
        <time>2024-08-14T05:36:51Z</time>
      </trkpt>
      <trkpt lat="44.876" lon="6.09154">
        <ele>1407.2</ele>
        <time>2024-08-14T05:36:52Z</time>
      </trkpt>
      <trkpt lat="44.876" lon="6.09154">
        <ele>1407.2</ele>
        <time>2024-08-14T05:36:53Z</time>
      </trkpt>
      <trkpt lat="44.876" lon="6.09154">
        <ele>1407.4</ele>
        <time>2024-08-14T05:36:54Z</time>
      </trkpt>
      <trkpt lat="44.876" lon="6.09154">
        <ele>1407.4</ele>
        <time>2024-08-14T05:36:55Z</time>
      </trkpt>
      <trkpt lat="44.876" lon="6.09154">
        <ele>1407.4</ele>
        <time>2024-08-14T05:36:56Z</time>
      </trkpt>
      <trkpt lat="44.876" lon="6.09154">
        <ele>1407.6</ele>
        <time>2024-08-14T05:36:57Z</time>
      </trkpt>
      <trkpt lat="44.876" lon="6.09154">
        <ele>1407.6</ele>
        <time>2024-08-14T05:36:58Z</time>
      </trkpt>
      <trkpt lat="44.876" lon="6.09154">
        <ele>1407.4</ele>
        <time>2024-08-14T05:36:59Z</time>
      </trkpt>
      <trkpt lat="44.876" lon="6.09154">
        <ele>1407.4</ele>
        <time>2024-08-14T05:37:00Z</time>
      </trkpt>
      <trkpt lat="44.876" lon="6.09154">
        <ele>1407</ele>
        <time>2024-08-14T05:37:01Z</time>
      </trkpt>
      <trkpt lat="44.876" lon="6.09154">
        <ele>1406.6</ele>
        <time>2024-08-14T05:37:02Z</time>
      </trkpt>
      <trkpt lat="44.876" lon="6.09154">
        <ele>1406.6</ele>
        <time>2024-08-14T05:37:03Z</time>
      </trkpt>
      <trkpt lat="44.876" lon="6.09157">
        <ele>1406.6</ele>
        <time>2024-08-14T05:37:04Z</time>
      </trkpt>
      <trkpt lat="44.876" lon="6.09157">
        <ele>1406.4</ele>
        <time>2024-08-14T05:37:05Z</time>
      </trkpt>
      <trkpt lat="44.87601" lon="6.09161">
        <ele>1406.4</ele>
        <time>2024-08-14T05:37:06Z</time>
      </trkpt>
      <trkpt lat="44.87601" lon="6.09161">
        <ele>1406.2</ele>
        <time>2024-08-14T05:37:07Z</time>
      </trkpt>
      <trkpt lat="44.87601" lon="6.09161">
        <ele>1406</ele>
        <time>2024-08-14T05:37:08Z</time>
      </trkpt>
      <trkpt lat="44.87601" lon="6.09164">
        <ele>1405.8</ele>
        <time>2024-08-14T05:37:09Z</time>
      </trkpt>
      <trkpt lat="44.87601" lon="6.09164">
        <ele>1405.8</ele>
        <time>2024-08-14T05:37:10Z</time>
      </trkpt>
      <trkpt lat="44.87601" lon="6.09164">
        <ele>1405.8</ele>
        <time>2024-08-14T05:37:11Z</time>
      </trkpt>
      <trkpt lat="44.87601" lon="6.09164">
        <ele>1405.8</ele>
        <time>2024-08-14T05:37:12Z</time>
      </trkpt>
      <trkpt lat="44.876" lon="6.09166">
        <ele>1405.8</ele>
        <time>2024-08-14T05:37:13Z</time>
      </trkpt>
      <trkpt lat="44.876" lon="6.09166">
        <ele>1405.8</ele>
        <time>2024-08-14T05:37:14Z</time>
      </trkpt>
      <trkpt lat="44.876" lon="6.09166">
        <ele>1405.4</ele>
        <time>2024-08-14T05:37:15Z</time>
      </trkpt>
      <trkpt lat="44.87599" lon="6.09169">
        <ele>1405.4</ele>
        <time>2024-08-14T05:37:16Z</time>
      </trkpt>
      <trkpt lat="44.87599" lon="6.09169">
        <ele>1405.4</ele>
        <time>2024-08-14T05:37:17Z</time>
      </trkpt>
      <trkpt lat="44.87599" lon="6.09169">
        <ele>1405.2</ele>
        <time>2024-08-14T05:37:18Z</time>
      </trkpt>
      <trkpt lat="44.87598" lon="6.09172">
        <ele>1405.2</ele>
        <time>2024-08-14T05:37:19Z</time>
      </trkpt>
      <trkpt lat="44.87598" lon="6.09172">
        <ele>1405.2</ele>
        <time>2024-08-14T05:37:20Z</time>
      </trkpt>
      <trkpt lat="44.87598" lon="6.09172">
        <ele>1405.2</ele>
        <time>2024-08-14T05:37:21Z</time>
      </trkpt>
      <trkpt lat="44.87598" lon="6.09172">
        <ele>1405.2</ele>
        <time>2024-08-14T05:37:22Z</time>
      </trkpt>
      <trkpt lat="44.87598" lon="6.09172">
        <ele>1405.2</ele>
        <time>2024-08-14T05:37:23Z</time>
      </trkpt>
      <trkpt lat="44.87598" lon="6.09172">
        <ele>1405</ele>
        <time>2024-08-14T05:37:24Z</time>
      </trkpt>
      <trkpt lat="44.87598" lon="6.09172">
        <ele>1405</ele>
        <time>2024-08-14T05:37:25Z</time>
      </trkpt>
      <trkpt lat="44.87598" lon="6.09172">
        <ele>1405</ele>
        <time>2024-08-14T05:37:26Z</time>
      </trkpt>
      <trkpt lat="44.87598" lon="6.09172">
        <ele>1405.4</ele>
        <time>2024-08-14T05:37:27Z</time>
      </trkpt>
      <trkpt lat="44.87598" lon="6.09172">
        <ele>1405.8</ele>
        <time>2024-08-14T05:37:28Z</time>
      </trkpt>
      <trkpt lat="44.87598" lon="6.09172">
        <ele>1405.8</ele>
        <time>2024-08-14T05:37:29Z</time>
      </trkpt>
      <trkpt lat="44.87598" lon="6.09172">
        <ele>1405.8</ele>
        <time>2024-08-14T05:37:30Z</time>
      </trkpt>
      <trkpt lat="44.87598" lon="6.09172">
        <ele>1405.8</ele>
        <time>2024-08-14T05:37:31Z</time>
      </trkpt>
      <trkpt lat="44.87598" lon="6.09172">
        <ele>1406</ele>
        <time>2024-08-14T05:37:32Z</time>
      </trkpt>
      <trkpt lat="44.87598" lon="6.09172">
        <ele>1406.2</ele>
        <time>2024-08-14T05:37:33Z</time>
      </trkpt>
      <trkpt lat="44.87598" lon="6.09172">
        <ele>1406.2</ele>
        <time>2024-08-14T05:37:34Z</time>
      </trkpt>
      <trkpt lat="44.87601" lon="6.09173">
        <ele>1406.4</ele>
        <time>2024-08-14T05:37:35Z</time>
      </trkpt>
      <trkpt lat="44.87601" lon="6.09173">
        <ele>1406.6</ele>
        <time>2024-08-14T05:37:36Z</time>
      </trkpt>
      <trkpt lat="44.87603" lon="6.09172">
        <ele>1406.6</ele>
        <time>2024-08-14T05:37:37Z</time>
      </trkpt>
      <trkpt lat="44.87603" lon="6.09172">
        <ele>1406.6</ele>
        <time>2024-08-14T05:37:38Z</time>
      </trkpt>
      <trkpt lat="44.87603" lon="6.09172">
        <ele>1406.8</ele>
        <time>2024-08-14T05:37:39Z</time>
      </trkpt>
      <trkpt lat="44.87604" lon="6.09171">
        <ele>1407</ele>
        <time>2024-08-14T05:37:40Z</time>
      </trkpt>
      <trkpt lat="44.87604" lon="6.09171">
        <ele>1407.4</ele>
        <time>2024-08-14T05:37:41Z</time>
      </trkpt>
      <trkpt lat="44.87604" lon="6.09171">
        <ele>1407.6</ele>
        <time>2024-08-14T05:37:42Z</time>
      </trkpt>
      <trkpt lat="44.87604" lon="6.09171">
        <ele>1408</ele>
        <time>2024-08-14T05:37:43Z</time>
      </trkpt>
      <trkpt lat="44.87604" lon="6.09171">
        <ele>1408</ele>
        <time>2024-08-14T05:37:44Z</time>
      </trkpt>
      <trkpt lat="44.87604" lon="6.09171">
        <ele>1408.2</ele>
        <time>2024-08-14T05:37:45Z</time>
      </trkpt>
      <trkpt lat="44.87604" lon="6.09171">
        <ele>1408</ele>
        <time>2024-08-14T05:37:46Z</time>
      </trkpt>
      <trkpt lat="44.87604" lon="6.09171">
        <ele>1408.2</ele>
        <time>2024-08-14T05:37:47Z</time>
      </trkpt>
      <trkpt lat="44.87604" lon="6.09171">
        <ele>1408.2</ele>
        <time>2024-08-14T05:37:48Z</time>
      </trkpt>
      <trkpt lat="44.87604" lon="6.09171">
        <ele>1408.2</ele>
        <time>2024-08-14T05:37:49Z</time>
      </trkpt>
      <trkpt lat="44.87604" lon="6.09171">
        <ele>1408.2</ele>
        <time>2024-08-14T05:37:50Z</time>
      </trkpt>
      <trkpt lat="44.87604" lon="6.09171">
        <ele>1408.2</ele>
        <time>2024-08-14T05:37:51Z</time>
      </trkpt>
      <trkpt lat="44.87604" lon="6.09171">
        <ele>1408.4</ele>
        <time>2024-08-14T05:37:52Z</time>
      </trkpt>
      <trkpt lat="44.87604" lon="6.09171">
        <ele>1408.4</ele>
        <time>2024-08-14T05:37:53Z</time>
      </trkpt>
      <trkpt lat="44.87604" lon="6.09171">
        <ele>1408.4</ele>
        <time>2024-08-14T05:37:54Z</time>
      </trkpt>
      <trkpt lat="44.87604" lon="6.09171">
        <ele>1408.6</ele>
        <time>2024-08-14T05:37:55Z</time>
      </trkpt>
      <trkpt lat="44.87604" lon="6.09171">
        <ele>1408.8</ele>
        <time>2024-08-14T05:37:56Z</time>
      </trkpt>
      <trkpt lat="44.87604" lon="6.09171">
        <ele>1409</ele>
        <time>2024-08-14T05:37:57Z</time>
      </trkpt>
      <trkpt lat="44.87604" lon="6.09171">
        <ele>1409.2</ele>
        <time>2024-08-14T05:37:58Z</time>
      </trkpt>
      <trkpt lat="44.87604" lon="6.09171">
        <ele>1409.4</ele>
        <time>2024-08-14T05:37:59Z</time>
      </trkpt>
      <trkpt lat="44.87604" lon="6.09171">
        <ele>1409.4</ele>
        <time>2024-08-14T05:38:00Z</time>
      </trkpt>
      <trkpt lat="44.87604" lon="6.09171">
        <ele>1409.2</ele>
        <time>2024-08-14T05:38:01Z</time>
      </trkpt>
      <trkpt lat="44.87606" lon="6.09169">
        <ele>1409.6</ele>
        <time>2024-08-14T05:38:02Z</time>
      </trkpt>
      <trkpt lat="44.87606" lon="6.09169">
        <ele>1409.6</ele>
        <time>2024-08-14T05:38:03Z</time>
      </trkpt>
      <trkpt lat="44.87609" lon="6.09168">
        <ele>1409.6</ele>
        <time>2024-08-14T05:38:04Z</time>
      </trkpt>
      <trkpt lat="44.87609" lon="6.09168">
        <ele>1409.6</ele>
        <time>2024-08-14T05:38:05Z</time>
      </trkpt>
      <trkpt lat="44.87611" lon="6.09166">
        <ele>1410</ele>
        <time>2024-08-14T05:38:06Z</time>
      </trkpt>
      <trkpt lat="44.87611" lon="6.09166">
        <ele>1410.4</ele>
        <time>2024-08-14T05:38:07Z</time>
      </trkpt>
      <trkpt lat="44.87613" lon="6.09165">
        <ele>1410.4</ele>
        <time>2024-08-14T05:38:08Z</time>
      </trkpt>
      <trkpt lat="44.87613" lon="6.09165">
        <ele>1410.6</ele>
        <time>2024-08-14T05:38:09Z</time>
      </trkpt>
      <trkpt lat="44.87613" lon="6.09165">
        <ele>1411</ele>
        <time>2024-08-14T05:38:10Z</time>
      </trkpt>
      <trkpt lat="44.87615" lon="6.09165">
        <ele>1411</ele>
        <time>2024-08-14T05:38:11Z</time>
      </trkpt>
      <trkpt lat="44.87615" lon="6.09165">
        <ele>1411.2</ele>
        <time>2024-08-14T05:38:12Z</time>
      </trkpt>
      <trkpt lat="44.87615" lon="6.09165">
        <ele>1411.2</ele>
        <time>2024-08-14T05:38:13Z</time>
      </trkpt>
      <trkpt lat="44.87615" lon="6.09165">
        <ele>1411.4</ele>
        <time>2024-08-14T05:38:14Z</time>
      </trkpt>
      <trkpt lat="44.87617" lon="6.09164">
        <ele>1411.8</ele>
        <time>2024-08-14T05:38:15Z</time>
      </trkpt>
      <trkpt lat="44.87617" lon="6.09164">
        <ele>1412.2</ele>
        <time>2024-08-14T05:38:16Z</time>
      </trkpt>
      <trkpt lat="44.87617" lon="6.09164">
        <ele>1412.2</ele>
        <time>2024-08-14T05:38:17Z</time>
      </trkpt>
      <trkpt lat="44.87617" lon="6.09164">
        <ele>1412.4</ele>
        <time>2024-08-14T05:38:18Z</time>
      </trkpt>
      <trkpt lat="44.87618" lon="6.09162">
        <ele>1412.6</ele>
        <time>2024-08-14T05:38:19Z</time>
      </trkpt>
      <trkpt lat="44.87618" lon="6.09162">
        <ele>1413</ele>
        <time>2024-08-14T05:38:20Z</time>
      </trkpt>
      <trkpt lat="44.87618" lon="6.09162">
        <ele>1413</ele>
        <time>2024-08-14T05:38:21Z</time>
      </trkpt>
      <trkpt lat="44.87618" lon="6.09162">
        <ele>1412.6</ele>
        <time>2024-08-14T05:38:22Z</time>
      </trkpt>
      <trkpt lat="44.87619" lon="6.0916">
        <ele>1412.4</ele>
        <time>2024-08-14T05:38:23Z</time>
      </trkpt>
      <trkpt lat="44.87619" lon="6.0916">
        <ele>1412.4</ele>
        <time>2024-08-14T05:38:24Z</time>
      </trkpt>
      <trkpt lat="44.87619" lon="6.0916">
        <ele>1412.6</ele>
        <time>2024-08-14T05:38:25Z</time>
      </trkpt>
      <trkpt lat="44.87619" lon="6.0916">
        <ele>1412.6</ele>
        <time>2024-08-14T05:38:26Z</time>
      </trkpt>
      <trkpt lat="44.87619" lon="6.0916">
        <ele>1412.6</ele>
        <time>2024-08-14T05:38:27Z</time>
      </trkpt>
      <trkpt lat="44.87619" lon="6.0916">
        <ele>1412.6</ele>
        <time>2024-08-14T05:38:28Z</time>
      </trkpt>
      <trkpt lat="44.8762" lon="6.09162">
        <ele>1412.8</ele>
        <time>2024-08-14T05:38:29Z</time>
      </trkpt>
      <trkpt lat="44.8762" lon="6.09162">
        <ele>1413.2</ele>
        <time>2024-08-14T05:38:30Z</time>
      </trkpt>
      <trkpt lat="44.8762" lon="6.09162">
        <ele>1413.2</ele>
        <time>2024-08-14T05:38:31Z</time>
      </trkpt>
      <trkpt lat="44.8762" lon="6.09162">
        <ele>1413.6</ele>
        <time>2024-08-14T05:38:32Z</time>
      </trkpt>
      <trkpt lat="44.8762" lon="6.09162">
        <ele>1413.6</ele>
        <time>2024-08-14T05:38:33Z</time>
      </trkpt>
      <trkpt lat="44.8762" lon="6.09162">
        <ele>1414</ele>
        <time>2024-08-14T05:38:34Z</time>
      </trkpt>
      <trkpt lat="44.8762" lon="6.09162">
        <ele>1414.2</ele>
        <time>2024-08-14T05:38:35Z</time>
      </trkpt>
      <trkpt lat="44.8762" lon="6.09162">
        <ele>1414.2</ele>
        <time>2024-08-14T05:38:36Z</time>
      </trkpt>
      <trkpt lat="44.8762" lon="6.09162">
        <ele>1414.8</ele>
        <time>2024-08-14T05:38:37Z</time>
      </trkpt>
      <trkpt lat="44.8762" lon="6.09162">
        <ele>1415</ele>
        <time>2024-08-14T05:38:38Z</time>
      </trkpt>
      <trkpt lat="44.8762" lon="6.09162">
        <ele>1415</ele>
        <time>2024-08-14T05:38:39Z</time>
      </trkpt>
      <trkpt lat="44.8762" lon="6.09162">
        <ele>1415</ele>
        <time>2024-08-14T05:38:40Z</time>
      </trkpt>
      <trkpt lat="44.8762" lon="6.09162">
        <ele>1415.2</ele>
        <time>2024-08-14T05:38:41Z</time>
      </trkpt>
      <trkpt lat="44.8762" lon="6.09162">
        <ele>1415.4</ele>
        <time>2024-08-14T05:38:42Z</time>
      </trkpt>
      <trkpt lat="44.8762" lon="6.09162">
        <ele>1415.6</ele>
        <time>2024-08-14T05:38:43Z</time>
      </trkpt>
      <trkpt lat="44.8762" lon="6.09162">
        <ele>1415.6</ele>
        <time>2024-08-14T05:38:44Z</time>
      </trkpt>
      <trkpt lat="44.8762" lon="6.09162">
        <ele>1415.6</ele>
        <time>2024-08-14T05:38:45Z</time>
      </trkpt>
      <trkpt lat="44.8762" lon="6.09162">
        <ele>1415.6</ele>
        <time>2024-08-14T05:38:46Z</time>
      </trkpt>
      <trkpt lat="44.87621" lon="6.09165">
        <ele>1415.6</ele>
        <time>2024-08-14T05:38:47Z</time>
      </trkpt>
      <trkpt lat="44.87621" lon="6.09165">
        <ele>1415.6</ele>
        <time>2024-08-14T05:38:48Z</time>
      </trkpt>
      <trkpt lat="44.87622" lon="6.09167">
        <ele>1415.6</ele>
        <time>2024-08-14T05:38:49Z</time>
      </trkpt>
      <trkpt lat="44.87622" lon="6.09167">
        <ele>1415.8</ele>
        <time>2024-08-14T05:38:50Z</time>
      </trkpt>
      <trkpt lat="44.87624" lon="6.09169">
        <ele>1415.8</ele>
        <time>2024-08-14T05:38:51Z</time>
      </trkpt>
      <trkpt lat="44.87624" lon="6.09169">
        <ele>1416</ele>
        <time>2024-08-14T05:38:52Z</time>
      </trkpt>
      <trkpt lat="44.87626" lon="6.0917">
        <ele>1416</ele>
        <time>2024-08-14T05:38:53Z</time>
      </trkpt>
      <trkpt lat="44.87626" lon="6.0917">
        <ele>1416</ele>
        <time>2024-08-14T05:38:54Z</time>
      </trkpt>
      <trkpt lat="44.87626" lon="6.0917">
        <ele>1416</ele>
        <time>2024-08-14T05:38:55Z</time>
      </trkpt>
      <trkpt lat="44.87628" lon="6.0917">
        <ele>1416.2</ele>
        <time>2024-08-14T05:38:56Z</time>
      </trkpt>
      <trkpt lat="44.87628" lon="6.0917">
        <ele>1416.4</ele>
        <time>2024-08-14T05:38:57Z</time>
      </trkpt>
      <trkpt lat="44.87628" lon="6.0917">
        <ele>1416.4</ele>
        <time>2024-08-14T05:38:58Z</time>
      </trkpt>
      <trkpt lat="44.8763" lon="6.09169">
        <ele>1416.6</ele>
        <time>2024-08-14T05:38:59Z</time>
      </trkpt>
      <trkpt lat="44.8763" lon="6.09169">
        <ele>1416.8</ele>
        <time>2024-08-14T05:39:00Z</time>
      </trkpt>
      <trkpt lat="44.8763" lon="6.09169">
        <ele>1417.6</ele>
        <time>2024-08-14T05:39:01Z</time>
      </trkpt>
      <trkpt lat="44.87632" lon="6.09169">
        <ele>1417.4</ele>
        <time>2024-08-14T05:39:02Z</time>
      </trkpt>
      <trkpt lat="44.87632" lon="6.09169">
        <ele>1417.4</ele>
        <time>2024-08-14T05:39:03Z</time>
      </trkpt>
      <trkpt lat="44.87632" lon="6.09169">
        <ele>1417.8</ele>
        <time>2024-08-14T05:39:04Z</time>
      </trkpt>
      <trkpt lat="44.87632" lon="6.09169">
        <ele>1418.2</ele>
        <time>2024-08-14T05:39:05Z</time>
      </trkpt>
      <trkpt lat="44.87634" lon="6.09169">
        <ele>1418.4</ele>
        <time>2024-08-14T05:39:06Z</time>
      </trkpt>
      <trkpt lat="44.87634" lon="6.09169">
        <ele>1418.4</ele>
        <time>2024-08-14T05:39:07Z</time>
      </trkpt>
      <trkpt lat="44.87634" lon="6.09169">
        <ele>1418.6</ele>
        <time>2024-08-14T05:39:08Z</time>
      </trkpt>
      <trkpt lat="44.87636" lon="6.09167">
        <ele>1419</ele>
        <time>2024-08-14T05:39:09Z</time>
      </trkpt>
      <trkpt lat="44.87636" lon="6.09167">
        <ele>1419</ele>
        <time>2024-08-14T05:39:10Z</time>
      </trkpt>
      <trkpt lat="44.87636" lon="6.09167">
        <ele>1419</ele>
        <time>2024-08-14T05:39:11Z</time>
      </trkpt>
      <trkpt lat="44.87638" lon="6.09166">
        <ele>1419</ele>
        <time>2024-08-14T05:39:12Z</time>
      </trkpt>
      <trkpt lat="44.87638" lon="6.09166">
        <ele>1419.4</ele>
        <time>2024-08-14T05:39:13Z</time>
      </trkpt>
      <trkpt lat="44.87638" lon="6.09166">
        <ele>1419.4</ele>
        <time>2024-08-14T05:39:14Z</time>
      </trkpt>
      <trkpt lat="44.87638" lon="6.09166">
        <ele>1419.6</ele>
        <time>2024-08-14T05:39:15Z</time>
      </trkpt>
      <trkpt lat="44.8764" lon="6.09165">
        <ele>1420</ele>
        <time>2024-08-14T05:39:16Z</time>
      </trkpt>
      <trkpt lat="44.8764" lon="6.09165">
        <ele>1420</ele>
        <time>2024-08-14T05:39:17Z</time>
      </trkpt>
      <trkpt lat="44.8764" lon="6.09165">
        <ele>1420</ele>
        <time>2024-08-14T05:39:18Z</time>
      </trkpt>
      <trkpt lat="44.87642" lon="6.09164">
        <ele>1420.4</ele>
        <time>2024-08-14T05:39:19Z</time>
      </trkpt>
      <trkpt lat="44.87642" lon="6.09164">
        <ele>1420.4</ele>
        <time>2024-08-14T05:39:20Z</time>
      </trkpt>
      <trkpt lat="44.87642" lon="6.09164">
        <ele>1420.8</ele>
        <time>2024-08-14T05:39:21Z</time>
      </trkpt>
      <trkpt lat="44.87642" lon="6.09164">
        <ele>1420.8</ele>
        <time>2024-08-14T05:39:22Z</time>
      </trkpt>
      <trkpt lat="44.87644" lon="6.09162">
        <ele>1420.8</ele>
        <time>2024-08-14T05:39:23Z</time>
      </trkpt>
      <trkpt lat="44.87644" lon="6.09162">
        <ele>1421</ele>
        <time>2024-08-14T05:39:24Z</time>
      </trkpt>
      <trkpt lat="44.87644" lon="6.09162">
        <ele>1421.2</ele>
        <time>2024-08-14T05:39:25Z</time>
      </trkpt>
      <trkpt lat="44.87646" lon="6.09161">
        <ele>1421.6</ele>
        <time>2024-08-14T05:39:26Z</time>
      </trkpt>
      <trkpt lat="44.87646" lon="6.09161">
        <ele>1421.6</ele>
        <time>2024-08-14T05:39:27Z</time>
      </trkpt>
      <trkpt lat="44.87646" lon="6.09161">
        <ele>1421.8</ele>
        <time>2024-08-14T05:39:28Z</time>
      </trkpt>
      <trkpt lat="44.87648" lon="6.09159">
        <ele>1421.8</ele>
        <time>2024-08-14T05:39:29Z</time>
      </trkpt>
      <trkpt lat="44.87648" lon="6.09159">
        <ele>1421.8</ele>
        <time>2024-08-14T05:39:30Z</time>
      </trkpt>
      <trkpt lat="44.87648" lon="6.09159">
        <ele>1421.8</ele>
        <time>2024-08-14T05:39:31Z</time>
      </trkpt>
      <trkpt lat="44.87648" lon="6.09159">
        <ele>1422.2</ele>
        <time>2024-08-14T05:39:32Z</time>
      </trkpt>
      <trkpt lat="44.8765" lon="6.09157">
        <ele>1422.6</ele>
        <time>2024-08-14T05:39:33Z</time>
      </trkpt>
      <trkpt lat="44.8765" lon="6.09157">
        <ele>1422.6</ele>
        <time>2024-08-14T05:39:34Z</time>
      </trkpt>
      <trkpt lat="44.8765" lon="6.09157">
        <ele>1422.6</ele>
        <time>2024-08-14T05:39:35Z</time>
      </trkpt>
      <trkpt lat="44.8765" lon="6.09157">
        <ele>1422.6</ele>
        <time>2024-08-14T05:39:36Z</time>
      </trkpt>
      <trkpt lat="44.87652" lon="6.09157">
        <ele>1422.6</ele>
        <time>2024-08-14T05:39:37Z</time>
      </trkpt>
      <trkpt lat="44.87652" lon="6.09157">
        <ele>1423</ele>
        <time>2024-08-14T05:39:38Z</time>
      </trkpt>
      <trkpt lat="44.87652" lon="6.09157">
        <ele>1423.6</ele>
        <time>2024-08-14T05:39:39Z</time>
      </trkpt>
      <trkpt lat="44.87652" lon="6.0916">
        <ele>1423.8</ele>
        <time>2024-08-14T05:39:40Z</time>
      </trkpt>
      <trkpt lat="44.87652" lon="6.0916">
        <ele>1423.8</ele>
        <time>2024-08-14T05:39:41Z</time>
      </trkpt>
      <trkpt lat="44.87651" lon="6.09163">
        <ele>1423.8</ele>
        <time>2024-08-14T05:39:42Z</time>
      </trkpt>
      <trkpt lat="44.87651" lon="6.09163">
        <ele>1424</ele>
        <time>2024-08-14T05:39:43Z</time>
      </trkpt>
      <trkpt lat="44.87651" lon="6.09163">
        <ele>1424.2</ele>
        <time>2024-08-14T05:39:44Z</time>
      </trkpt>
      <trkpt lat="44.87651" lon="6.09163">
        <ele>1424.2</ele>
        <time>2024-08-14T05:39:45Z</time>
      </trkpt>
      <trkpt lat="44.87651" lon="6.09163">
        <ele>1424.4</ele>
        <time>2024-08-14T05:39:46Z</time>
      </trkpt>
      <trkpt lat="44.8765" lon="6.09166">
        <ele>1424.4</ele>
        <time>2024-08-14T05:39:47Z</time>
      </trkpt>
      <trkpt lat="44.8765" lon="6.09166">
        <ele>1424.6</ele>
        <time>2024-08-14T05:39:48Z</time>
      </trkpt>
      <trkpt lat="44.8765" lon="6.09166">
        <ele>1424.8</ele>
        <time>2024-08-14T05:39:49Z</time>
      </trkpt>
      <trkpt lat="44.8765" lon="6.09166">
        <ele>1424.8</ele>
        <time>2024-08-14T05:39:50Z</time>
      </trkpt>
      <trkpt lat="44.8765" lon="6.09166">
        <ele>1424.8</ele>
        <time>2024-08-14T05:39:51Z</time>
      </trkpt>
      <trkpt lat="44.8765" lon="6.09166">
        <ele>1424.8</ele>
        <time>2024-08-14T05:39:52Z</time>
      </trkpt>
      <trkpt lat="44.8765" lon="6.09166">
        <ele>1425.4</ele>
        <time>2024-08-14T05:39:53Z</time>
      </trkpt>
      <trkpt lat="44.8765" lon="6.09166">
        <ele>1425.6</ele>
        <time>2024-08-14T05:39:54Z</time>
      </trkpt>
      <trkpt lat="44.8765" lon="6.09166">
        <ele>1425.6</ele>
        <time>2024-08-14T05:39:55Z</time>
      </trkpt>
      <trkpt lat="44.8765" lon="6.09166">
        <ele>1425.8</ele>
        <time>2024-08-14T05:39:56Z</time>
      </trkpt>
      <trkpt lat="44.8765" lon="6.09166">
        <ele>1426</ele>
        <time>2024-08-14T05:39:57Z</time>
      </trkpt>
      <trkpt lat="44.8765" lon="6.09166">
        <ele>1426.4</ele>
        <time>2024-08-14T05:39:58Z</time>
      </trkpt>
      <trkpt lat="44.8765" lon="6.09166">
        <ele>1426.6</ele>
        <time>2024-08-14T05:39:59Z</time>
      </trkpt>
      <trkpt lat="44.8765" lon="6.09166">
        <ele>1426.8</ele>
        <time>2024-08-14T05:40:00Z</time>
      </trkpt>
      <trkpt lat="44.8765" lon="6.09166">
        <ele>1427</ele>
        <time>2024-08-14T05:40:01Z</time>
      </trkpt>
      <trkpt lat="44.8765" lon="6.09166">
        <ele>1427.8</ele>
        <time>2024-08-14T05:40:02Z</time>
      </trkpt>
      <trkpt lat="44.8765" lon="6.09166">
        <ele>1427.8</ele>
        <time>2024-08-14T05:40:03Z</time>
      </trkpt>
      <trkpt lat="44.87652" lon="6.09165">
        <ele>1428</ele>
        <time>2024-08-14T05:40:04Z</time>
      </trkpt>
      <trkpt lat="44.87652" lon="6.09165">
        <ele>1428</ele>
        <time>2024-08-14T05:40:05Z</time>
      </trkpt>
      <trkpt lat="44.87652" lon="6.09165">
        <ele>1428.2</ele>
        <time>2024-08-14T05:40:06Z</time>
      </trkpt>
      <trkpt lat="44.87652" lon="6.09165">
        <ele>1428.2</ele>
        <time>2024-08-14T05:40:07Z</time>
      </trkpt>
      <trkpt lat="44.87652" lon="6.09165">
        <ele>1428.2</ele>
        <time>2024-08-14T05:40:08Z</time>
      </trkpt>
      <trkpt lat="44.87652" lon="6.09165">
        <ele>1428.4</ele>
        <time>2024-08-14T05:40:09Z</time>
      </trkpt>
      <trkpt lat="44.87652" lon="6.09165">
        <ele>1428.8</ele>
        <time>2024-08-14T05:40:10Z</time>
      </trkpt>
      <trkpt lat="44.87652" lon="6.09165">
        <ele>1428.8</ele>
        <time>2024-08-14T05:40:11Z</time>
      </trkpt>
      <trkpt lat="44.87652" lon="6.09165">
        <ele>1429</ele>
        <time>2024-08-14T05:40:12Z</time>
      </trkpt>
      <trkpt lat="44.87652" lon="6.09165">
        <ele>1429</ele>
        <time>2024-08-14T05:40:13Z</time>
      </trkpt>
      <trkpt lat="44.87654" lon="6.09164">
        <ele>1429.2</ele>
        <time>2024-08-14T05:40:14Z</time>
      </trkpt>
      <trkpt lat="44.87654" lon="6.09164">
        <ele>1429.6</ele>
        <time>2024-08-14T05:40:15Z</time>
      </trkpt>
      <trkpt lat="44.87654" lon="6.09164">
        <ele>1429.6</ele>
        <time>2024-08-14T05:40:16Z</time>
      </trkpt>
      <trkpt lat="44.87656" lon="6.09163">
        <ele>1429.6</ele>
        <time>2024-08-14T05:40:17Z</time>
      </trkpt>
      <trkpt lat="44.87656" lon="6.09163">
        <ele>1429.6</ele>
        <time>2024-08-14T05:40:18Z</time>
      </trkpt>
      <trkpt lat="44.87656" lon="6.09163">
        <ele>1430.2</ele>
        <time>2024-08-14T05:40:19Z</time>
      </trkpt>
      <trkpt lat="44.87656" lon="6.09163">
        <ele>1430.2</ele>
        <time>2024-08-14T05:40:20Z</time>
      </trkpt>
      <trkpt lat="44.87656" lon="6.09163">
        <ele>1430.4</ele>
        <time>2024-08-14T05:40:21Z</time>
      </trkpt>
      <trkpt lat="44.87657" lon="6.09161">
        <ele>1430.6</ele>
        <time>2024-08-14T05:40:22Z</time>
      </trkpt>
      <trkpt lat="44.87657" lon="6.09161">
        <ele>1430.8</ele>
        <time>2024-08-14T05:40:23Z</time>
      </trkpt>
      <trkpt lat="44.87657" lon="6.09161">
        <ele>1430.8</ele>
        <time>2024-08-14T05:40:24Z</time>
      </trkpt>
      <trkpt lat="44.87657" lon="6.09161">
        <ele>1431.2</ele>
        <time>2024-08-14T05:40:25Z</time>
      </trkpt>
      <trkpt lat="44.87657" lon="6.09161">
        <ele>1431.2</ele>
        <time>2024-08-14T05:40:26Z</time>
      </trkpt>
      <trkpt lat="44.87657" lon="6.09161">
        <ele>1431.2</ele>
        <time>2024-08-14T05:40:27Z</time>
      </trkpt>
      <trkpt lat="44.87657" lon="6.09161">
        <ele>1431.6</ele>
        <time>2024-08-14T05:40:28Z</time>
      </trkpt>
      <trkpt lat="44.87657" lon="6.09161">
        <ele>1431.6</ele>
        <time>2024-08-14T05:40:29Z</time>
      </trkpt>
      <trkpt lat="44.87657" lon="6.09161">
        <ele>1431.6</ele>
        <time>2024-08-14T05:40:30Z</time>
      </trkpt>
      <trkpt lat="44.87657" lon="6.09161">
        <ele>1431.8</ele>
        <time>2024-08-14T05:40:31Z</time>
      </trkpt>
      <trkpt lat="44.87657" lon="6.09161">
        <ele>1432</ele>
        <time>2024-08-14T05:40:32Z</time>
      </trkpt>
      <trkpt lat="44.87657" lon="6.09161">
        <ele>1432.2</ele>
        <time>2024-08-14T05:40:33Z</time>
      </trkpt>
      <trkpt lat="44.87657" lon="6.09161">
        <ele>1432.4</ele>
        <time>2024-08-14T05:40:34Z</time>
      </trkpt>
      <trkpt lat="44.87657" lon="6.09161">
        <ele>1432.4</ele>
        <time>2024-08-14T05:40:35Z</time>
      </trkpt>
      <trkpt lat="44.87657" lon="6.09161">
        <ele>1432.8</ele>
        <time>2024-08-14T05:40:36Z</time>
      </trkpt>
      <trkpt lat="44.87657" lon="6.09161">
        <ele>1433</ele>
        <time>2024-08-14T05:40:37Z</time>
      </trkpt>
      <trkpt lat="44.87659" lon="6.0916">
        <ele>1433.2</ele>
        <time>2024-08-14T05:40:38Z</time>
      </trkpt>
      <trkpt lat="44.87659" lon="6.0916">
        <ele>1433.6</ele>
        <time>2024-08-14T05:40:39Z</time>
      </trkpt>
      <trkpt lat="44.87659" lon="6.0916">
        <ele>1433.8</ele>
        <time>2024-08-14T05:40:40Z</time>
      </trkpt>
      <trkpt lat="44.87659" lon="6.0916">
        <ele>1434</ele>
        <time>2024-08-14T05:40:41Z</time>
      </trkpt>
      <trkpt lat="44.87659" lon="6.0916">
        <ele>1434</ele>
        <time>2024-08-14T05:40:42Z</time>
      </trkpt>
      <trkpt lat="44.87661" lon="6.0916">
        <ele>1434.2</ele>
        <time>2024-08-14T05:40:43Z</time>
      </trkpt>
      <trkpt lat="44.87661" lon="6.0916">
        <ele>1434.4</ele>
        <time>2024-08-14T05:40:44Z</time>
      </trkpt>
      <trkpt lat="44.87661" lon="6.0916">
        <ele>1434.8</ele>
        <time>2024-08-14T05:40:45Z</time>
      </trkpt>
      <trkpt lat="44.87661" lon="6.0916">
        <ele>1434.8</ele>
        <time>2024-08-14T05:40:46Z</time>
      </trkpt>
      <trkpt lat="44.87661" lon="6.0916">
        <ele>1434.8</ele>
        <time>2024-08-14T05:40:47Z</time>
      </trkpt>
      <trkpt lat="44.87661" lon="6.0916">
        <ele>1435.2</ele>
        <time>2024-08-14T05:40:48Z</time>
      </trkpt>
      <trkpt lat="44.87661" lon="6.0916">
        <ele>1435.2</ele>
        <time>2024-08-14T05:40:49Z</time>
      </trkpt>
      <trkpt lat="44.87661" lon="6.0916">
        <ele>1435.2</ele>
        <time>2024-08-14T05:40:50Z</time>
      </trkpt>
      <trkpt lat="44.87661" lon="6.0916">
        <ele>1435.4</ele>
        <time>2024-08-14T05:40:51Z</time>
      </trkpt>
      <trkpt lat="44.87661" lon="6.0916">
        <ele>1435.4</ele>
        <time>2024-08-14T05:40:52Z</time>
      </trkpt>
      <trkpt lat="44.87661" lon="6.0916">
        <ele>1435.6</ele>
        <time>2024-08-14T05:40:53Z</time>
      </trkpt>
      <trkpt lat="44.87661" lon="6.0916">
        <ele>1436</ele>
        <time>2024-08-14T05:40:54Z</time>
      </trkpt>
      <trkpt lat="44.87662" lon="6.09162">
        <ele>1436</ele>
        <time>2024-08-14T05:40:55Z</time>
      </trkpt>
      <trkpt lat="44.87662" lon="6.09162">
        <ele>1436</ele>
        <time>2024-08-14T05:40:56Z</time>
      </trkpt>
      <trkpt lat="44.87662" lon="6.09162">
        <ele>1436</ele>
        <time>2024-08-14T05:40:57Z</time>
      </trkpt>
      <trkpt lat="44.87663" lon="6.09165">
        <ele>1436.4</ele>
        <time>2024-08-14T05:40:58Z</time>
      </trkpt>
      <trkpt lat="44.87663" lon="6.09165">
        <ele>1436.4</ele>
        <time>2024-08-14T05:40:59Z</time>
      </trkpt>
      <trkpt lat="44.87663" lon="6.09165">
        <ele>1436.8</ele>
        <time>2024-08-14T05:41:00Z</time>
      </trkpt>
      <trkpt lat="44.87666" lon="6.09165">
        <ele>1436.8</ele>
        <time>2024-08-14T05:41:01Z</time>
      </trkpt>
      <trkpt lat="44.87666" lon="6.09165">
        <ele>1437.4</ele>
        <time>2024-08-14T05:41:02Z</time>
      </trkpt>
      <trkpt lat="44.87666" lon="6.09165">
        <ele>1437.4</ele>
        <time>2024-08-14T05:41:03Z</time>
      </trkpt>
      <trkpt lat="44.87667" lon="6.09164">
        <ele>1438</ele>
        <time>2024-08-14T05:41:04Z</time>
      </trkpt>
      <trkpt lat="44.87667" lon="6.09164">
        <ele>1438</ele>
        <time>2024-08-14T05:41:05Z</time>
      </trkpt>
      <trkpt lat="44.87667" lon="6.09164">
        <ele>1438</ele>
        <time>2024-08-14T05:41:06Z</time>
      </trkpt>
      <trkpt lat="44.87667" lon="6.09164">
        <ele>1438.2</ele>
        <time>2024-08-14T05:41:07Z</time>
      </trkpt>
      <trkpt lat="44.87667" lon="6.09164">
        <ele>1438.4</ele>
        <time>2024-08-14T05:41:08Z</time>
      </trkpt>
      <trkpt lat="44.87667" lon="6.09164">
        <ele>1438.4</ele>
        <time>2024-08-14T05:41:09Z</time>
      </trkpt>
      <trkpt lat="44.87667" lon="6.09164">
        <ele>1438.8</ele>
        <time>2024-08-14T05:41:10Z</time>
      </trkpt>
      <trkpt lat="44.87669" lon="6.09161">
        <ele>1438.8</ele>
        <time>2024-08-14T05:41:11Z</time>
      </trkpt>
      <trkpt lat="44.87669" lon="6.09161">
        <ele>1439.2</ele>
        <time>2024-08-14T05:41:12Z</time>
      </trkpt>
      <trkpt lat="44.87669" lon="6.09161">
        <ele>1439.6</ele>
        <time>2024-08-14T05:41:13Z</time>
      </trkpt>
      <trkpt lat="44.8767" lon="6.09159">
        <ele>1439.6</ele>
        <time>2024-08-14T05:41:14Z</time>
      </trkpt>
      <trkpt lat="44.8767" lon="6.09159">
        <ele>1439.8</ele>
        <time>2024-08-14T05:41:15Z</time>
      </trkpt>
      <trkpt lat="44.8767" lon="6.09159">
        <ele>1440</ele>
        <time>2024-08-14T05:41:16Z</time>
      </trkpt>
      <trkpt lat="44.87672" lon="6.09158">
        <ele>1440</ele>
        <time>2024-08-14T05:41:17Z</time>
      </trkpt>
      <trkpt lat="44.87672" lon="6.09158">
        <ele>1440.2</ele>
        <time>2024-08-14T05:41:18Z</time>
      </trkpt>
      <trkpt lat="44.87672" lon="6.09158">
        <ele>1440.8</ele>
        <time>2024-08-14T05:41:19Z</time>
      </trkpt>
      <trkpt lat="44.87672" lon="6.09158">
        <ele>1440.8</ele>
        <time>2024-08-14T05:41:20Z</time>
      </trkpt>
      <trkpt lat="44.87674" lon="6.09157">
        <ele>1441</ele>
        <time>2024-08-14T05:41:21Z</time>
      </trkpt>
      <trkpt lat="44.87674" lon="6.09157">
        <ele>1441</ele>
        <time>2024-08-14T05:41:22Z</time>
      </trkpt>
      <trkpt lat="44.87674" lon="6.09157">
        <ele>1441.4</ele>
        <time>2024-08-14T05:41:23Z</time>
      </trkpt>
      <trkpt lat="44.87674" lon="6.0916">
        <ele>1441.4</ele>
        <time>2024-08-14T05:41:24Z</time>
      </trkpt>
      <trkpt lat="44.87674" lon="6.0916">
        <ele>1441.4</ele>
        <time>2024-08-14T05:41:25Z</time>
      </trkpt>
      <trkpt lat="44.87674" lon="6.09163">
        <ele>1441.6</ele>
        <time>2024-08-14T05:41:26Z</time>
      </trkpt>
      <trkpt lat="44.87674" lon="6.09163">
        <ele>1441.8</ele>
        <time>2024-08-14T05:41:27Z</time>
      </trkpt>
      <trkpt lat="44.87674" lon="6.09163">
        <ele>1441.8</ele>
        <time>2024-08-14T05:41:28Z</time>
      </trkpt>
      <trkpt lat="44.87674" lon="6.09163">
        <ele>1442</ele>
        <time>2024-08-14T05:41:29Z</time>
      </trkpt>
      <trkpt lat="44.87674" lon="6.09163">
        <ele>1442.2</ele>
        <time>2024-08-14T05:41:30Z</time>
      </trkpt>
      <trkpt lat="44.87674" lon="6.09163">
        <ele>1442.2</ele>
        <time>2024-08-14T05:41:31Z</time>
      </trkpt>
      <trkpt lat="44.87674" lon="6.09163">
        <ele>1442.4</ele>
        <time>2024-08-14T05:41:32Z</time>
      </trkpt>
      <trkpt lat="44.87674" lon="6.09163">
        <ele>1443</ele>
        <time>2024-08-14T05:41:33Z</time>
      </trkpt>
      <trkpt lat="44.87674" lon="6.09163">
        <ele>1443</ele>
        <time>2024-08-14T05:41:34Z</time>
      </trkpt>
      <trkpt lat="44.87674" lon="6.09163">
        <ele>1443</ele>
        <time>2024-08-14T05:41:35Z</time>
      </trkpt>
      <trkpt lat="44.87674" lon="6.09163">
        <ele>1443.2</ele>
        <time>2024-08-14T05:41:36Z</time>
      </trkpt>
      <trkpt lat="44.87674" lon="6.09163">
        <ele>1443.2</ele>
        <time>2024-08-14T05:41:37Z</time>
      </trkpt>
      <trkpt lat="44.87674" lon="6.09163">
        <ele>1443.2</ele>
        <time>2024-08-14T05:41:38Z</time>
      </trkpt>
      <trkpt lat="44.87673" lon="6.09165">
        <ele>1443.6</ele>
        <time>2024-08-14T05:41:39Z</time>
      </trkpt>
      <trkpt lat="44.87673" lon="6.09165">
        <ele>1443.8</ele>
        <time>2024-08-14T05:41:40Z</time>
      </trkpt>
      <trkpt lat="44.87672" lon="6.09169">
        <ele>1443.8</ele>
        <time>2024-08-14T05:41:41Z</time>
      </trkpt>
      <trkpt lat="44.87672" lon="6.09169">
        <ele>1443.8</ele>
        <time>2024-08-14T05:41:42Z</time>
      </trkpt>
      <trkpt lat="44.87671" lon="6.09173">
        <ele>1444.4</ele>
        <time>2024-08-14T05:41:43Z</time>
      </trkpt>
      <trkpt lat="44.87671" lon="6.09173">
        <ele>1444.8</ele>
        <time>2024-08-14T05:41:44Z</time>
      </trkpt>
      <trkpt lat="44.87671" lon="6.09173">
        <ele>1445</ele>
        <time>2024-08-14T05:41:45Z</time>
      </trkpt>
      <trkpt lat="44.87671" lon="6.09173">
        <ele>1445</ele>
        <time>2024-08-14T05:41:46Z</time>
      </trkpt>
      <trkpt lat="44.87671" lon="6.09173">
        <ele>1445.4</ele>
        <time>2024-08-14T05:41:47Z</time>
      </trkpt>
      <trkpt lat="44.87673" lon="6.09172">
        <ele>1445.4</ele>
        <time>2024-08-14T05:41:48Z</time>
      </trkpt>
      <trkpt lat="44.87673" lon="6.09172">
        <ele>1445.4</ele>
        <time>2024-08-14T05:41:49Z</time>
      </trkpt>
      <trkpt lat="44.87673" lon="6.09172">
        <ele>1445.8</ele>
        <time>2024-08-14T05:41:50Z</time>
      </trkpt>
      <trkpt lat="44.87673" lon="6.09172">
        <ele>1446</ele>
        <time>2024-08-14T05:41:51Z</time>
      </trkpt>
      <trkpt lat="44.87673" lon="6.09172">
        <ele>1446.2</ele>
        <time>2024-08-14T05:41:52Z</time>
      </trkpt>
      <trkpt lat="44.87673" lon="6.09172">
        <ele>1446.4</ele>
        <time>2024-08-14T05:41:53Z</time>
      </trkpt>
      <trkpt lat="44.87673" lon="6.09172">
        <ele>1446.4</ele>
        <time>2024-08-14T05:41:54Z</time>
      </trkpt>
      <trkpt lat="44.87673" lon="6.09172">
        <ele>1446.8</ele>
        <time>2024-08-14T05:41:55Z</time>
      </trkpt>
      <trkpt lat="44.87673" lon="6.09172">
        <ele>1446.8</ele>
        <time>2024-08-14T05:41:56Z</time>
      </trkpt>
      <trkpt lat="44.87673" lon="6.09172">
        <ele>1447</ele>
        <time>2024-08-14T05:41:57Z</time>
      </trkpt>
      <trkpt lat="44.87673" lon="6.09172">
        <ele>1447.6</ele>
        <time>2024-08-14T05:41:58Z</time>
      </trkpt>
      <trkpt lat="44.87676" lon="6.09171">
        <ele>1447.8</ele>
        <time>2024-08-14T05:41:59Z</time>
      </trkpt>
      <trkpt lat="44.87676" lon="6.09171">
        <ele>1448</ele>
        <time>2024-08-14T05:42:00Z</time>
      </trkpt>
      <trkpt lat="44.87678" lon="6.0917">
        <ele>1448.2</ele>
        <time>2024-08-14T05:42:01Z</time>
      </trkpt>
      <trkpt lat="44.87678" lon="6.0917">
        <ele>1448.8</ele>
        <time>2024-08-14T05:42:02Z</time>
      </trkpt>
      <trkpt lat="44.8768" lon="6.09169">
        <ele>1448.8</ele>
        <time>2024-08-14T05:42:03Z</time>
      </trkpt>
      <trkpt lat="44.8768" lon="6.09169">
        <ele>1449</ele>
        <time>2024-08-14T05:42:04Z</time>
      </trkpt>
      <trkpt lat="44.8768" lon="6.09169">
        <ele>1449.6</ele>
        <time>2024-08-14T05:42:05Z</time>
      </trkpt>
      <trkpt lat="44.87682" lon="6.09168">
        <ele>1450</ele>
        <time>2024-08-14T05:42:06Z</time>
      </trkpt>
      <trkpt lat="44.87682" lon="6.09168">
        <ele>1450</ele>
        <time>2024-08-14T05:42:07Z</time>
      </trkpt>
      <trkpt lat="44.87682" lon="6.09168">
        <ele>1450.6</ele>
        <time>2024-08-14T05:42:08Z</time>
      </trkpt>
      <trkpt lat="44.87682" lon="6.09168">
        <ele>1450.6</ele>
        <time>2024-08-14T05:42:09Z</time>
      </trkpt>
      <trkpt lat="44.87683" lon="6.09167">
        <ele>1451</ele>
        <time>2024-08-14T05:42:10Z</time>
      </trkpt>
      <trkpt lat="44.87683" lon="6.09167">
        <ele>1451.2</ele>
        <time>2024-08-14T05:42:11Z</time>
      </trkpt>
      <trkpt lat="44.87683" lon="6.09167">
        <ele>1451.2</ele>
        <time>2024-08-14T05:42:12Z</time>
      </trkpt>
      <trkpt lat="44.87685" lon="6.09165">
        <ele>1451.2</ele>
        <time>2024-08-14T05:42:13Z</time>
      </trkpt>
      <trkpt lat="44.87685" lon="6.09165">
        <ele>1451.6</ele>
        <time>2024-08-14T05:42:14Z</time>
      </trkpt>
      <trkpt lat="44.87687" lon="6.09164">
        <ele>1451.6</ele>
        <time>2024-08-14T05:42:15Z</time>
      </trkpt>
      <trkpt lat="44.87687" lon="6.09164">
        <ele>1451.6</ele>
        <time>2024-08-14T05:42:16Z</time>
      </trkpt>
      <trkpt lat="44.87687" lon="6.09164">
        <ele>1451.6</ele>
        <time>2024-08-14T05:42:17Z</time>
      </trkpt>
      <trkpt lat="44.87689" lon="6.09162">
        <ele>1451.8</ele>
        <time>2024-08-14T05:42:18Z</time>
      </trkpt>
      <trkpt lat="44.87689" lon="6.09162">
        <ele>1452</ele>
        <time>2024-08-14T05:42:19Z</time>
      </trkpt>
      <trkpt lat="44.87689" lon="6.09162">
        <ele>1452</ele>
        <time>2024-08-14T05:42:20Z</time>
      </trkpt>
      <trkpt lat="44.87691" lon="6.09161">
        <ele>1452</ele>
        <time>2024-08-14T05:42:21Z</time>
      </trkpt>
      <trkpt lat="44.87691" lon="6.09161">
        <ele>1452.2</ele>
        <time>2024-08-14T05:42:22Z</time>
      </trkpt>
      <trkpt lat="44.87693" lon="6.09159">
        <ele>1452.8</ele>
        <time>2024-08-14T05:42:23Z</time>
      </trkpt>
      <trkpt lat="44.87693" lon="6.09159">
        <ele>1453</ele>
        <time>2024-08-14T05:42:24Z</time>
      </trkpt>
      <trkpt lat="44.87693" lon="6.09159">
        <ele>1453.4</ele>
        <time>2024-08-14T05:42:25Z</time>
      </trkpt>
      <trkpt lat="44.87695" lon="6.09158">
        <ele>1453.6</ele>
        <time>2024-08-14T05:42:26Z</time>
      </trkpt>
      <trkpt lat="44.87695" lon="6.09158">
        <ele>1453.6</ele>
        <time>2024-08-14T05:42:27Z</time>
      </trkpt>
      <trkpt lat="44.87697" lon="6.09157">
        <ele>1453.8</ele>
        <time>2024-08-14T05:42:28Z</time>
      </trkpt>
      <trkpt lat="44.87697" lon="6.09157">
        <ele>1453.8</ele>
        <time>2024-08-14T05:42:29Z</time>
      </trkpt>
      <trkpt lat="44.87697" lon="6.09157">
        <ele>1453.8</ele>
        <time>2024-08-14T05:42:30Z</time>
      </trkpt>
      <trkpt lat="44.877" lon="6.09157">
        <ele>1454.2</ele>
        <time>2024-08-14T05:42:31Z</time>
      </trkpt>
      <trkpt lat="44.877" lon="6.09157">
        <ele>1454.6</ele>
        <time>2024-08-14T05:42:32Z</time>
      </trkpt>
      <trkpt lat="44.877" lon="6.09157">
        <ele>1455</ele>
        <time>2024-08-14T05:42:33Z</time>
      </trkpt>
      <trkpt lat="44.87702" lon="6.09157">
        <ele>1455.4</ele>
        <time>2024-08-14T05:42:34Z</time>
      </trkpt>
      <trkpt lat="44.87702" lon="6.09157">
        <ele>1455.6</ele>
        <time>2024-08-14T05:42:35Z</time>
      </trkpt>
      <trkpt lat="44.87702" lon="6.09157">
        <ele>1455.6</ele>
        <time>2024-08-14T05:42:36Z</time>
      </trkpt>
      <trkpt lat="44.87704" lon="6.09156">
        <ele>1455.8</ele>
        <time>2024-08-14T05:42:37Z</time>
      </trkpt>
      <trkpt lat="44.87704" lon="6.09156">
        <ele>1456.2</ele>
        <time>2024-08-14T05:42:38Z</time>
      </trkpt>
      <trkpt lat="44.87704" lon="6.09156">
        <ele>1456.4</ele>
        <time>2024-08-14T05:42:39Z</time>
      </trkpt>
      <trkpt lat="44.87706" lon="6.09156">
        <ele>1457</ele>
        <time>2024-08-14T05:42:40Z</time>
      </trkpt>
      <trkpt lat="44.87706" lon="6.09156">
        <ele>1457</ele>
        <time>2024-08-14T05:42:41Z</time>
      </trkpt>
      <trkpt lat="44.87706" lon="6.09156">
        <ele>1457.2</ele>
        <time>2024-08-14T05:42:42Z</time>
      </trkpt>
      <trkpt lat="44.87708" lon="6.09155">
        <ele>1457.6</ele>
        <time>2024-08-14T05:42:43Z</time>
      </trkpt>
      <trkpt lat="44.87708" lon="6.09155">
        <ele>1457.6</ele>
        <time>2024-08-14T05:42:44Z</time>
      </trkpt>
      <trkpt lat="44.87708" lon="6.09155">
        <ele>1458</ele>
        <time>2024-08-14T05:42:45Z</time>
      </trkpt>
      <trkpt lat="44.87711" lon="6.09154">
        <ele>1458.2</ele>
        <time>2024-08-14T05:42:46Z</time>
      </trkpt>
      <trkpt lat="44.87711" lon="6.09154">
        <ele>1458.6</ele>
        <time>2024-08-14T05:42:47Z</time>
      </trkpt>
      <trkpt lat="44.87711" lon="6.09154">
        <ele>1459</ele>
        <time>2024-08-14T05:42:48Z</time>
      </trkpt>
      <trkpt lat="44.87713" lon="6.09153">
        <ele>1459.2</ele>
        <time>2024-08-14T05:42:49Z</time>
      </trkpt>
      <trkpt lat="44.87713" lon="6.09153">
        <ele>1459.4</ele>
        <time>2024-08-14T05:42:50Z</time>
      </trkpt>
      <trkpt lat="44.87715" lon="6.09152">
        <ele>1459.4</ele>
        <time>2024-08-14T05:42:51Z</time>
      </trkpt>
      <trkpt lat="44.87715" lon="6.09152">
        <ele>1459.6</ele>
        <time>2024-08-14T05:42:52Z</time>
      </trkpt>
      <trkpt lat="44.87715" lon="6.09152">
        <ele>1459.8</ele>
        <time>2024-08-14T05:42:53Z</time>
      </trkpt>
      <trkpt lat="44.87717" lon="6.09151">
        <ele>1460.2</ele>
        <time>2024-08-14T05:42:54Z</time>
      </trkpt>
      <trkpt lat="44.87717" lon="6.09151">
        <ele>1460.4</ele>
        <time>2024-08-14T05:42:55Z</time>
      </trkpt>
      <trkpt lat="44.87719" lon="6.0915">
        <ele>1460.6</ele>
        <time>2024-08-14T05:42:56Z</time>
      </trkpt>
      <trkpt lat="44.87719" lon="6.0915">
        <ele>1460.6</ele>
        <time>2024-08-14T05:42:57Z</time>
      </trkpt>
      <trkpt lat="44.87719" lon="6.0915">
        <ele>1461</ele>
        <time>2024-08-14T05:42:58Z</time>
      </trkpt>
      <trkpt lat="44.87721" lon="6.09147">
        <ele>1461</ele>
        <time>2024-08-14T05:42:59Z</time>
      </trkpt>
      <trkpt lat="44.87721" lon="6.09147">
        <ele>1461</ele>
        <time>2024-08-14T05:43:00Z</time>
      </trkpt>
      <trkpt lat="44.87722" lon="6.09145">
        <ele>1461.2</ele>
        <time>2024-08-14T05:43:01Z</time>
      </trkpt>
      <trkpt lat="44.87722" lon="6.09145">
        <ele>1461.2</ele>
        <time>2024-08-14T05:43:02Z</time>
      </trkpt>
      <trkpt lat="44.87723" lon="6.09143">
        <ele>1461.2</ele>
        <time>2024-08-14T05:43:03Z</time>
      </trkpt>
      <trkpt lat="44.87723" lon="6.09143">
        <ele>1461.6</ele>
        <time>2024-08-14T05:43:04Z</time>
      </trkpt>
      <trkpt lat="44.87725" lon="6.09142">
        <ele>1462</ele>
        <time>2024-08-14T05:43:05Z</time>
      </trkpt>
      <trkpt lat="44.87725" lon="6.09142">
        <ele>1462.2</ele>
        <time>2024-08-14T05:43:06Z</time>
      </trkpt>
      <trkpt lat="44.87725" lon="6.09142">
        <ele>1462.2</ele>
        <time>2024-08-14T05:43:07Z</time>
      </trkpt>
      <trkpt lat="44.87727" lon="6.0914">
        <ele>1462.4</ele>
        <time>2024-08-14T05:43:08Z</time>
      </trkpt>
      <trkpt lat="44.87727" lon="6.0914">
        <ele>1462.8</ele>
        <time>2024-08-14T05:43:09Z</time>
      </trkpt>
      <trkpt lat="44.87727" lon="6.0914">
        <ele>1462.8</ele>
        <time>2024-08-14T05:43:10Z</time>
      </trkpt>
      <trkpt lat="44.8773" lon="6.09138">
        <ele>1463.2</ele>
        <time>2024-08-14T05:43:11Z</time>
      </trkpt>
      <trkpt lat="44.8773" lon="6.09138">
        <ele>1463.4</ele>
        <time>2024-08-14T05:43:12Z</time>
      </trkpt>
      <trkpt lat="44.8773" lon="6.09138">
        <ele>1463.4</ele>
        <time>2024-08-14T05:43:13Z</time>
      </trkpt>
      <trkpt lat="44.87732" lon="6.09137">
        <ele>1463.8</ele>
        <time>2024-08-14T05:43:14Z</time>
      </trkpt>
      <trkpt lat="44.87732" lon="6.09137">
        <ele>1464</ele>
        <time>2024-08-14T05:43:15Z</time>
      </trkpt>
      <trkpt lat="44.87732" lon="6.09137">
        <ele>1464.2</ele>
        <time>2024-08-14T05:43:16Z</time>
      </trkpt>
      <trkpt lat="44.87734" lon="6.09135">
        <ele>1464.4</ele>
        <time>2024-08-14T05:43:17Z</time>
      </trkpt>
      <trkpt lat="44.87734" lon="6.09135">
        <ele>1464.4</ele>
        <time>2024-08-14T05:43:18Z</time>
      </trkpt>
      <trkpt lat="44.87734" lon="6.09135">
        <ele>1464.8</ele>
        <time>2024-08-14T05:43:19Z</time>
      </trkpt>
      <trkpt lat="44.87734" lon="6.09135">
        <ele>1465.4</ele>
        <time>2024-08-14T05:43:20Z</time>
      </trkpt>
      <trkpt lat="44.87736" lon="6.09133">
        <ele>1465.4</ele>
        <time>2024-08-14T05:43:21Z</time>
      </trkpt>
      <trkpt lat="44.87736" lon="6.09133">
        <ele>1465.8</ele>
        <time>2024-08-14T05:43:22Z</time>
      </trkpt>
      <trkpt lat="44.87736" lon="6.09133">
        <ele>1466</ele>
        <time>2024-08-14T05:43:23Z</time>
      </trkpt>
      <trkpt lat="44.87738" lon="6.09132">
        <ele>1466</ele>
        <time>2024-08-14T05:43:24Z</time>
      </trkpt>
      <trkpt lat="44.87738" lon="6.09132">
        <ele>1466.4</ele>
        <time>2024-08-14T05:43:25Z</time>
      </trkpt>
      <trkpt lat="44.87738" lon="6.09132">
        <ele>1466.8</ele>
        <time>2024-08-14T05:43:26Z</time>
      </trkpt>
      <trkpt lat="44.8774" lon="6.0913">
        <ele>1466.8</ele>
        <time>2024-08-14T05:43:27Z</time>
      </trkpt>
      <trkpt lat="44.8774" lon="6.0913">
        <ele>1467</ele>
        <time>2024-08-14T05:43:28Z</time>
      </trkpt>
      <trkpt lat="44.8774" lon="6.0913">
        <ele>1467.4</ele>
        <time>2024-08-14T05:43:29Z</time>
      </trkpt>
      <trkpt lat="44.87742" lon="6.09128">
        <ele>1467.6</ele>
        <time>2024-08-14T05:43:30Z</time>
      </trkpt>
      <trkpt lat="44.87742" lon="6.09128">
        <ele>1467.8</ele>
        <time>2024-08-14T05:43:31Z</time>
      </trkpt>
      <trkpt lat="44.87742" lon="6.09128">
        <ele>1468</ele>
        <time>2024-08-14T05:43:32Z</time>
      </trkpt>
      <trkpt lat="44.87744" lon="6.09127">
        <ele>1468.2</ele>
        <time>2024-08-14T05:43:33Z</time>
      </trkpt>
      <trkpt lat="44.87744" lon="6.09127">
        <ele>1468.6</ele>
        <time>2024-08-14T05:43:34Z</time>
      </trkpt>
      <trkpt lat="44.87744" lon="6.09127">
        <ele>1468.6</ele>
        <time>2024-08-14T05:43:35Z</time>
      </trkpt>
      <trkpt lat="44.87746" lon="6.09126">
        <ele>1469</ele>
        <time>2024-08-14T05:43:36Z</time>
      </trkpt>
      <trkpt lat="44.87746" lon="6.09126">
        <ele>1469.2</ele>
        <time>2024-08-14T05:43:37Z</time>
      </trkpt>
      <trkpt lat="44.87746" lon="6.09126">
        <ele>1469.8</ele>
        <time>2024-08-14T05:43:38Z</time>
      </trkpt>
      <trkpt lat="44.87747" lon="6.09124">
        <ele>1470</ele>
        <time>2024-08-14T05:43:39Z</time>
      </trkpt>
      <trkpt lat="44.87747" lon="6.09124">
        <ele>1470</ele>
        <time>2024-08-14T05:43:40Z</time>
      </trkpt>
      <trkpt lat="44.87747" lon="6.09124">
        <ele>1470.2</ele>
        <time>2024-08-14T05:43:41Z</time>
      </trkpt>
      <trkpt lat="44.87749" lon="6.09122">
        <ele>1470.4</ele>
        <time>2024-08-14T05:43:42Z</time>
      </trkpt>
      <trkpt lat="44.87749" lon="6.09122">
        <ele>1470.8</ele>
        <time>2024-08-14T05:43:43Z</time>
      </trkpt>
      <trkpt lat="44.87749" lon="6.09122">
        <ele>1471.2</ele>
        <time>2024-08-14T05:43:44Z</time>
      </trkpt>
      <trkpt lat="44.87749" lon="6.09122">
        <ele>1471.2</ele>
        <time>2024-08-14T05:43:45Z</time>
      </trkpt>
      <trkpt lat="44.87751" lon="6.09121">
        <ele>1471.2</ele>
        <time>2024-08-14T05:43:46Z</time>
      </trkpt>
      <trkpt lat="44.87751" lon="6.09121">
        <ele>1471.4</ele>
        <time>2024-08-14T05:43:47Z</time>
      </trkpt>
      <trkpt lat="44.87751" lon="6.09121">
        <ele>1472</ele>
        <time>2024-08-14T05:43:48Z</time>
      </trkpt>
      <trkpt lat="44.87753" lon="6.0912">
        <ele>1472</ele>
        <time>2024-08-14T05:43:49Z</time>
      </trkpt>
      <trkpt lat="44.87753" lon="6.0912">
        <ele>1472.4</ele>
        <time>2024-08-14T05:43:50Z</time>
      </trkpt>
      <trkpt lat="44.87753" lon="6.0912">
        <ele>1472.6</ele>
        <time>2024-08-14T05:43:51Z</time>
      </trkpt>
      <trkpt lat="44.87753" lon="6.0912">
        <ele>1472.6</ele>
        <time>2024-08-14T05:43:52Z</time>
      </trkpt>
      <trkpt lat="44.87755" lon="6.09118">
        <ele>1472.6</ele>
        <time>2024-08-14T05:43:53Z</time>
      </trkpt>
      <trkpt lat="44.87755" lon="6.09118">
        <ele>1473</ele>
        <time>2024-08-14T05:43:54Z</time>
      </trkpt>
      <trkpt lat="44.87755" lon="6.09118">
        <ele>1473.4</ele>
        <time>2024-08-14T05:43:55Z</time>
      </trkpt>
      <trkpt lat="44.87757" lon="6.09116">
        <ele>1473.4</ele>
        <time>2024-08-14T05:43:56Z</time>
      </trkpt>
      <trkpt lat="44.87757" lon="6.09116">
        <ele>1473.6</ele>
        <time>2024-08-14T05:43:57Z</time>
      </trkpt>
      <trkpt lat="44.87757" lon="6.09116">
        <ele>1473.6</ele>
        <time>2024-08-14T05:43:58Z</time>
      </trkpt>
      <trkpt lat="44.87759" lon="6.09115">
        <ele>1474</ele>
        <time>2024-08-14T05:43:59Z</time>
      </trkpt>
      <trkpt lat="44.87759" lon="6.09115">
        <ele>1474.6</ele>
        <time>2024-08-14T05:44:00Z</time>
      </trkpt>
      <trkpt lat="44.87759" lon="6.09115">
        <ele>1474.6</ele>
        <time>2024-08-14T05:44:01Z</time>
      </trkpt>
      <trkpt lat="44.87761" lon="6.09114">
        <ele>1474.8</ele>
        <time>2024-08-14T05:44:02Z</time>
      </trkpt>
      <trkpt lat="44.87761" lon="6.09114">
        <ele>1475</ele>
        <time>2024-08-14T05:44:03Z</time>
      </trkpt>
      <trkpt lat="44.87761" lon="6.09114">
        <ele>1475.2</ele>
        <time>2024-08-14T05:44:04Z</time>
      </trkpt>
      <trkpt lat="44.87763" lon="6.09112">
        <ele>1475.4</ele>
        <time>2024-08-14T05:44:05Z</time>
      </trkpt>
      <trkpt lat="44.87763" lon="6.09112">
        <ele>1475.4</ele>
        <time>2024-08-14T05:44:06Z</time>
      </trkpt>
      <trkpt lat="44.87763" lon="6.09112">
        <ele>1475.8</ele>
        <time>2024-08-14T05:44:07Z</time>
      </trkpt>
      <trkpt lat="44.87765" lon="6.0911">
        <ele>1476.2</ele>
        <time>2024-08-14T05:44:08Z</time>
      </trkpt>
      <trkpt lat="44.87765" lon="6.0911">
        <ele>1476.4</ele>
        <time>2024-08-14T05:44:09Z</time>
      </trkpt>
      <trkpt lat="44.87767" lon="6.09109">
        <ele>1476.8</ele>
        <time>2024-08-14T05:44:10Z</time>
      </trkpt>
      <trkpt lat="44.87767" lon="6.09109">
        <ele>1477</ele>
        <time>2024-08-14T05:44:11Z</time>
      </trkpt>
      <trkpt lat="44.87767" lon="6.09109">
        <ele>1477.2</ele>
        <time>2024-08-14T05:44:12Z</time>
      </trkpt>
      <trkpt lat="44.87769" lon="6.09108">
        <ele>1477.4</ele>
        <time>2024-08-14T05:44:13Z</time>
      </trkpt>
      <trkpt lat="44.87769" lon="6.09108">
        <ele>1478</ele>
        <time>2024-08-14T05:44:14Z</time>
      </trkpt>
      <trkpt lat="44.87769" lon="6.09108">
        <ele>1478</ele>
        <time>2024-08-14T05:44:15Z</time>
      </trkpt>
      <trkpt lat="44.87771" lon="6.09108">
        <ele>1478.2</ele>
        <time>2024-08-14T05:44:16Z</time>
      </trkpt>
      <trkpt lat="44.87771" lon="6.09108">
        <ele>1478.2</ele>
        <time>2024-08-14T05:44:17Z</time>
      </trkpt>
      <trkpt lat="44.87771" lon="6.09108">
        <ele>1478.2</ele>
        <time>2024-08-14T05:44:18Z</time>
      </trkpt>
      <trkpt lat="44.87771" lon="6.09112">
        <ele>1478.6</ele>
        <time>2024-08-14T05:44:19Z</time>
      </trkpt>
      <trkpt lat="44.87771" lon="6.09112">
        <ele>1478.8</ele>
        <time>2024-08-14T05:44:20Z</time>
      </trkpt>
      <trkpt lat="44.87771" lon="6.09112">
        <ele>1478.8</ele>
        <time>2024-08-14T05:44:21Z</time>
      </trkpt>
      <trkpt lat="44.87769" lon="6.09115">
        <ele>1479</ele>
        <time>2024-08-14T05:44:22Z</time>
      </trkpt>
      <trkpt lat="44.87769" lon="6.09115">
        <ele>1479.6</ele>
        <time>2024-08-14T05:44:23Z</time>
      </trkpt>
      <trkpt lat="44.87769" lon="6.09115">
        <ele>1479.8</ele>
        <time>2024-08-14T05:44:24Z</time>
      </trkpt>
      <trkpt lat="44.87768" lon="6.09117">
        <ele>1480</ele>
        <time>2024-08-14T05:44:25Z</time>
      </trkpt>
      <trkpt lat="44.87768" lon="6.09117">
        <ele>1480.2</ele>
        <time>2024-08-14T05:44:26Z</time>
      </trkpt>
      <trkpt lat="44.87768" lon="6.09117">
        <ele>1480.4</ele>
        <time>2024-08-14T05:44:27Z</time>
      </trkpt>
      <trkpt lat="44.87768" lon="6.09117">
        <ele>1480.8</ele>
        <time>2024-08-14T05:44:28Z</time>
      </trkpt>
      <trkpt lat="44.87767" lon="6.09119">
        <ele>1480.8</ele>
        <time>2024-08-14T05:44:29Z</time>
      </trkpt>
      <trkpt lat="44.87767" lon="6.09119">
        <ele>1480.8</ele>
        <time>2024-08-14T05:44:30Z</time>
      </trkpt>
      <trkpt lat="44.87767" lon="6.09119">
        <ele>1481</ele>
        <time>2024-08-14T05:44:31Z</time>
      </trkpt>
      <trkpt lat="44.87766" lon="6.09123">
        <ele>1481.4</ele>
        <time>2024-08-14T05:44:32Z</time>
      </trkpt>
      <trkpt lat="44.87766" lon="6.09123">
        <ele>1481.6</ele>
        <time>2024-08-14T05:44:33Z</time>
      </trkpt>
      <trkpt lat="44.87766" lon="6.09123">
        <ele>1481.8</ele>
        <time>2024-08-14T05:44:34Z</time>
      </trkpt>
      <trkpt lat="44.87768" lon="6.09122">
        <ele>1482.2</ele>
        <time>2024-08-14T05:44:35Z</time>
      </trkpt>
      <trkpt lat="44.87768" lon="6.09122">
        <ele>1482.6</ele>
        <time>2024-08-14T05:44:36Z</time>
      </trkpt>
      <trkpt lat="44.87768" lon="6.09122">
        <ele>1482.6</ele>
        <time>2024-08-14T05:44:37Z</time>
      </trkpt>
      <trkpt lat="44.87768" lon="6.09122">
        <ele>1482.8</ele>
        <time>2024-08-14T05:44:38Z</time>
      </trkpt>
      <trkpt lat="44.87771" lon="6.09121">
        <ele>1483.2</ele>
        <time>2024-08-14T05:44:39Z</time>
      </trkpt>
      <trkpt lat="44.87771" lon="6.09121">
        <ele>1483.2</ele>
        <time>2024-08-14T05:44:40Z</time>
      </trkpt>
      <trkpt lat="44.87771" lon="6.09121">
        <ele>1483.4</ele>
        <time>2024-08-14T05:44:41Z</time>
      </trkpt>
      <trkpt lat="44.87771" lon="6.09121">
        <ele>1484</ele>
        <time>2024-08-14T05:44:42Z</time>
      </trkpt>
      <trkpt lat="44.87771" lon="6.09121">
        <ele>1484.2</ele>
        <time>2024-08-14T05:44:43Z</time>
      </trkpt>
      <trkpt lat="44.87771" lon="6.09121">
        <ele>1484.4</ele>
        <time>2024-08-14T05:44:44Z</time>
      </trkpt>
      <trkpt lat="44.87771" lon="6.09121">
        <ele>1484.4</ele>
        <time>2024-08-14T05:44:45Z</time>
      </trkpt>
      <trkpt lat="44.87771" lon="6.09121">
        <ele>1484.8</ele>
        <time>2024-08-14T05:44:46Z</time>
      </trkpt>
      <trkpt lat="44.87773" lon="6.09119">
        <ele>1484.8</ele>
        <time>2024-08-14T05:44:47Z</time>
      </trkpt>
      <trkpt lat="44.87773" lon="6.09119">
        <ele>1484.8</ele>
        <time>2024-08-14T05:44:48Z</time>
      </trkpt>
      <trkpt lat="44.87776" lon="6.09118">
        <ele>1485.4</ele>
        <time>2024-08-14T05:44:49Z</time>
      </trkpt>
      <trkpt lat="44.87776" lon="6.09118">
        <ele>1485.4</ele>
        <time>2024-08-14T05:44:50Z</time>
      </trkpt>
      <trkpt lat="44.87776" lon="6.09118">
        <ele>1485.4</ele>
        <time>2024-08-14T05:44:51Z</time>
      </trkpt>
      <trkpt lat="44.87779" lon="6.09118">
        <ele>1485.8</ele>
        <time>2024-08-14T05:44:52Z</time>
      </trkpt>
      <trkpt lat="44.87779" lon="6.09118">
        <ele>1486.4</ele>
        <time>2024-08-14T05:44:53Z</time>
      </trkpt>
      <trkpt lat="44.87779" lon="6.09118">
        <ele>1486.4</ele>
        <time>2024-08-14T05:44:54Z</time>
      </trkpt>
      <trkpt lat="44.87781" lon="6.09117">
        <ele>1486.6</ele>
        <time>2024-08-14T05:44:55Z</time>
      </trkpt>
      <trkpt lat="44.87781" lon="6.09117">
        <ele>1487</ele>
        <time>2024-08-14T05:44:56Z</time>
      </trkpt>
      <trkpt lat="44.87781" lon="6.09117">
        <ele>1487.2</ele>
        <time>2024-08-14T05:44:57Z</time>
      </trkpt>
      <trkpt lat="44.87781" lon="6.09117">
        <ele>1487.4</ele>
        <time>2024-08-14T05:44:58Z</time>
      </trkpt>
      <trkpt lat="44.87781" lon="6.0912">
        <ele>1487.6</ele>
        <time>2024-08-14T05:44:59Z</time>
      </trkpt>
      <trkpt lat="44.87781" lon="6.0912">
        <ele>1487.6</ele>
        <time>2024-08-14T05:45:00Z</time>
      </trkpt>
      <trkpt lat="44.87781" lon="6.0912">
        <ele>1487.8</ele>
        <time>2024-08-14T05:45:01Z</time>
      </trkpt>
      <trkpt lat="44.8778" lon="6.09123">
        <ele>1487.8</ele>
        <time>2024-08-14T05:45:02Z</time>
      </trkpt>
      <trkpt lat="44.8778" lon="6.09123">
        <ele>1488</ele>
        <time>2024-08-14T05:45:03Z</time>
      </trkpt>
      <trkpt lat="44.8778" lon="6.09123">
        <ele>1488.4</ele>
        <time>2024-08-14T05:45:04Z</time>
      </trkpt>
      <trkpt lat="44.87778" lon="6.09125">
        <ele>1488.8</ele>
        <time>2024-08-14T05:45:05Z</time>
      </trkpt>
      <trkpt lat="44.87778" lon="6.09125">
        <ele>1489.4</ele>
        <time>2024-08-14T05:45:06Z</time>
      </trkpt>
      <trkpt lat="44.87778" lon="6.09125">
        <ele>1489.6</ele>
        <time>2024-08-14T05:45:07Z</time>
      </trkpt>
      <trkpt lat="44.87777" lon="6.09127">
        <ele>1489.8</ele>
        <time>2024-08-14T05:45:08Z</time>
      </trkpt>
      <trkpt lat="44.87777" lon="6.09127">
        <ele>1489.8</ele>
        <time>2024-08-14T05:45:09Z</time>
      </trkpt>
      <trkpt lat="44.87775" lon="6.09131">
        <ele>1489.6</ele>
        <time>2024-08-14T05:45:10Z</time>
      </trkpt>
      <trkpt lat="44.87775" lon="6.09131">
        <ele>1489.8</ele>
        <time>2024-08-14T05:45:11Z</time>
      </trkpt>
      <trkpt lat="44.87774" lon="6.09134">
        <ele>1489.8</ele>
        <time>2024-08-14T05:45:12Z</time>
      </trkpt>
      <trkpt lat="44.87774" lon="6.09134">
        <ele>1490</ele>
        <time>2024-08-14T05:45:13Z</time>
      </trkpt>
      <trkpt lat="44.87773" lon="6.09136">
        <ele>1490.2</ele>
        <time>2024-08-14T05:45:14Z</time>
      </trkpt>
      <trkpt lat="44.87773" lon="6.09136">
        <ele>1490.6</ele>
        <time>2024-08-14T05:45:15Z</time>
      </trkpt>
      <trkpt lat="44.87772" lon="6.09138">
        <ele>1490.6</ele>
        <time>2024-08-14T05:45:16Z</time>
      </trkpt>
      <trkpt lat="44.87772" lon="6.09138">
        <ele>1490.8</ele>
        <time>2024-08-14T05:45:17Z</time>
      </trkpt>
      <trkpt lat="44.87772" lon="6.09138">
        <ele>1491</ele>
        <time>2024-08-14T05:45:18Z</time>
      </trkpt>
      <trkpt lat="44.87772" lon="6.09138">
        <ele>1491.2</ele>
        <time>2024-08-14T05:45:19Z</time>
      </trkpt>
      <trkpt lat="44.87771" lon="6.09141">
        <ele>1491.8</ele>
        <time>2024-08-14T05:45:20Z</time>
      </trkpt>
      <trkpt lat="44.87771" lon="6.09141">
        <ele>1491.8</ele>
        <time>2024-08-14T05:45:21Z</time>
      </trkpt>
      <trkpt lat="44.87771" lon="6.09141">
        <ele>1492.4</ele>
        <time>2024-08-14T05:45:22Z</time>
      </trkpt>
      <trkpt lat="44.87771" lon="6.09141">
        <ele>1492.6</ele>
        <time>2024-08-14T05:45:23Z</time>
      </trkpt>
      <trkpt lat="44.87769" lon="6.09144">
        <ele>1492.8</ele>
        <time>2024-08-14T05:45:24Z</time>
      </trkpt>
      <trkpt lat="44.87769" lon="6.09144">
        <ele>1493</ele>
        <time>2024-08-14T05:45:25Z</time>
      </trkpt>
      <trkpt lat="44.87769" lon="6.09144">
        <ele>1493.4</ele>
        <time>2024-08-14T05:45:26Z</time>
      </trkpt>
      <trkpt lat="44.87769" lon="6.09144">
        <ele>1493.6</ele>
        <time>2024-08-14T05:45:27Z</time>
      </trkpt>
      <trkpt lat="44.87769" lon="6.09147">
        <ele>1493.6</ele>
        <time>2024-08-14T05:45:28Z</time>
      </trkpt>
      <trkpt lat="44.87769" lon="6.09147">
        <ele>1494</ele>
        <time>2024-08-14T05:45:29Z</time>
      </trkpt>
      <trkpt lat="44.87769" lon="6.09147">
        <ele>1494.4</ele>
        <time>2024-08-14T05:45:30Z</time>
      </trkpt>
      <trkpt lat="44.87769" lon="6.09147">
        <ele>1494.6</ele>
        <time>2024-08-14T05:45:31Z</time>
      </trkpt>
      <trkpt lat="44.87769" lon="6.09147">
        <ele>1494.6</ele>
        <time>2024-08-14T05:45:32Z</time>
      </trkpt>
      <trkpt lat="44.87769" lon="6.09147">
        <ele>1494.8</ele>
        <time>2024-08-14T05:45:33Z</time>
      </trkpt>
      <trkpt lat="44.87769" lon="6.09147">
        <ele>1495</ele>
        <time>2024-08-14T05:45:34Z</time>
      </trkpt>
      <trkpt lat="44.87769" lon="6.09147">
        <ele>1495</ele>
        <time>2024-08-14T05:45:35Z</time>
      </trkpt>
      <trkpt lat="44.87769" lon="6.09147">
        <ele>1495</ele>
        <time>2024-08-14T05:45:36Z</time>
      </trkpt>
      <trkpt lat="44.87769" lon="6.09147">
        <ele>1495</ele>
        <time>2024-08-14T05:45:37Z</time>
      </trkpt>
      <trkpt lat="44.87769" lon="6.09147">
        <ele>1495.2</ele>
        <time>2024-08-14T05:45:38Z</time>
      </trkpt>
      <trkpt lat="44.87769" lon="6.09147">
        <ele>1495.2</ele>
        <time>2024-08-14T05:45:39Z</time>
      </trkpt>
      <trkpt lat="44.87769" lon="6.09147">
        <ele>1495.2</ele>
        <time>2024-08-14T05:45:40Z</time>
      </trkpt>
      <trkpt lat="44.87769" lon="6.09147">
        <ele>1495.4</ele>
        <time>2024-08-14T05:45:41Z</time>
      </trkpt>
      <trkpt lat="44.87771" lon="6.09146">
        <ele>1495.4</ele>
        <time>2024-08-14T05:45:42Z</time>
      </trkpt>
      <trkpt lat="44.87771" lon="6.09146">
        <ele>1495.6</ele>
        <time>2024-08-14T05:45:43Z</time>
      </trkpt>
      <trkpt lat="44.87773" lon="6.09145">
        <ele>1496</ele>
        <time>2024-08-14T05:45:44Z</time>
      </trkpt>
      <trkpt lat="44.87773" lon="6.09145">
        <ele>1496</ele>
        <time>2024-08-14T05:45:45Z</time>
      </trkpt>
      <trkpt lat="44.87774" lon="6.09143">
        <ele>1496.2</ele>
        <time>2024-08-14T05:45:46Z</time>
      </trkpt>
      <trkpt lat="44.87774" lon="6.09143">
        <ele>1496.2</ele>
        <time>2024-08-14T05:45:47Z</time>
      </trkpt>
      <trkpt lat="44.87774" lon="6.09143">
        <ele>1496.4</ele>
        <time>2024-08-14T05:45:48Z</time>
      </trkpt>
      <trkpt lat="44.87777" lon="6.09142">
        <ele>1496.4</ele>
        <time>2024-08-14T05:45:49Z</time>
      </trkpt>
      <trkpt lat="44.87777" lon="6.09142">
        <ele>1496.8</ele>
        <time>2024-08-14T05:45:50Z</time>
      </trkpt>
      <trkpt lat="44.87777" lon="6.09142">
        <ele>1496.8</ele>
        <time>2024-08-14T05:45:51Z</time>
      </trkpt>
      <trkpt lat="44.87779" lon="6.09141">
        <ele>1497</ele>
        <time>2024-08-14T05:45:52Z</time>
      </trkpt>
      <trkpt lat="44.87779" lon="6.09141">
        <ele>1497.2</ele>
        <time>2024-08-14T05:45:53Z</time>
      </trkpt>
      <trkpt lat="44.87781" lon="6.09139">
        <ele>1497.6</ele>
        <time>2024-08-14T05:45:54Z</time>
      </trkpt>
      <trkpt lat="44.87781" lon="6.09139">
        <ele>1497.6</ele>
        <time>2024-08-14T05:45:55Z</time>
      </trkpt>
      <trkpt lat="44.87782" lon="6.09137">
        <ele>1497.8</ele>
        <time>2024-08-14T05:45:56Z</time>
      </trkpt>
      <trkpt lat="44.87782" lon="6.09137">
        <ele>1498</ele>
        <time>2024-08-14T05:45:57Z</time>
      </trkpt>
      <trkpt lat="44.87782" lon="6.09137">
        <ele>1498.2</ele>
        <time>2024-08-14T05:45:58Z</time>
      </trkpt>
      <trkpt lat="44.87784" lon="6.09136">
        <ele>1498.6</ele>
        <time>2024-08-14T05:45:59Z</time>
      </trkpt>
      <trkpt lat="44.87784" lon="6.09136">
        <ele>1498.8</ele>
        <time>2024-08-14T05:46:00Z</time>
      </trkpt>
      <trkpt lat="44.87785" lon="6.09134">
        <ele>1498.8</ele>
        <time>2024-08-14T05:46:01Z</time>
      </trkpt>
      <trkpt lat="44.87785" lon="6.09134">
        <ele>1499.2</ele>
        <time>2024-08-14T05:46:02Z</time>
      </trkpt>
      <trkpt lat="44.87785" lon="6.09134">
        <ele>1499.2</ele>
        <time>2024-08-14T05:46:03Z</time>
      </trkpt>
      <trkpt lat="44.87787" lon="6.09133">
        <ele>1499.4</ele>
        <time>2024-08-14T05:46:04Z</time>
      </trkpt>
      <trkpt lat="44.87787" lon="6.09133">
        <ele>1500</ele>
        <time>2024-08-14T05:46:05Z</time>
      </trkpt>
      <trkpt lat="44.87787" lon="6.09133">
        <ele>1500</ele>
        <time>2024-08-14T05:46:06Z</time>
      </trkpt>
      <trkpt lat="44.87789" lon="6.09133">
        <ele>1500</ele>
        <time>2024-08-14T05:46:07Z</time>
      </trkpt>
      <trkpt lat="44.87789" lon="6.09133">
        <ele>1500.4</ele>
        <time>2024-08-14T05:46:08Z</time>
      </trkpt>
      <trkpt lat="44.87789" lon="6.09133">
        <ele>1500.8</ele>
        <time>2024-08-14T05:46:09Z</time>
      </trkpt>
      <trkpt lat="44.87789" lon="6.09133">
        <ele>1501</ele>
        <time>2024-08-14T05:46:10Z</time>
      </trkpt>
      <trkpt lat="44.87791" lon="6.09132">
        <ele>1501.2</ele>
        <time>2024-08-14T05:46:11Z</time>
      </trkpt>
      <trkpt lat="44.87791" lon="6.09132">
        <ele>1501.4</ele>
        <time>2024-08-14T05:46:12Z</time>
      </trkpt>
      <trkpt lat="44.87791" lon="6.09132">
        <ele>1501.8</ele>
        <time>2024-08-14T05:46:13Z</time>
      </trkpt>
      <trkpt lat="44.87793" lon="6.0913">
        <ele>1501.8</ele>
        <time>2024-08-14T05:46:14Z</time>
      </trkpt>
      <trkpt lat="44.87793" lon="6.0913">
        <ele>1501.8</ele>
        <time>2024-08-14T05:46:15Z</time>
      </trkpt>
      <trkpt lat="44.87793" lon="6.0913">
        <ele>1502</ele>
        <time>2024-08-14T05:46:16Z</time>
      </trkpt>
      <trkpt lat="44.87796" lon="6.09129">
        <ele>1502.2</ele>
        <time>2024-08-14T05:46:17Z</time>
      </trkpt>
      <trkpt lat="44.87796" lon="6.09129">
        <ele>1502.6</ele>
        <time>2024-08-14T05:46:18Z</time>
      </trkpt>
      <trkpt lat="44.87796" lon="6.09129">
        <ele>1502.6</ele>
        <time>2024-08-14T05:46:19Z</time>
      </trkpt>
      <trkpt lat="44.87796" lon="6.09129">
        <ele>1503</ele>
        <time>2024-08-14T05:46:20Z</time>
      </trkpt>
      <trkpt lat="44.87798" lon="6.09128">
        <ele>1503</ele>
        <time>2024-08-14T05:46:21Z</time>
      </trkpt>
      <trkpt lat="44.87798" lon="6.09128">
        <ele>1503.4</ele>
        <time>2024-08-14T05:46:22Z</time>
      </trkpt>
      <trkpt lat="44.87798" lon="6.09128">
        <ele>1503.6</ele>
        <time>2024-08-14T05:46:23Z</time>
      </trkpt>
      <trkpt lat="44.87798" lon="6.09128">
        <ele>1503.6</ele>
        <time>2024-08-14T05:46:24Z</time>
      </trkpt>
      <trkpt lat="44.87798" lon="6.09128">
        <ele>1503.8</ele>
        <time>2024-08-14T05:46:25Z</time>
      </trkpt>
      <trkpt lat="44.87801" lon="6.09128">
        <ele>1504.6</ele>
        <time>2024-08-14T05:46:26Z</time>
      </trkpt>
      <trkpt lat="44.87801" lon="6.09128">
        <ele>1504.8</ele>
        <time>2024-08-14T05:46:27Z</time>
      </trkpt>
      <trkpt lat="44.87801" lon="6.09128">
        <ele>1505</ele>
        <time>2024-08-14T05:46:28Z</time>
      </trkpt>
      <trkpt lat="44.87801" lon="6.09128">
        <ele>1505</ele>
        <time>2024-08-14T05:46:29Z</time>
      </trkpt>
      <trkpt lat="44.87802" lon="6.09127">
        <ele>1505.4</ele>
        <time>2024-08-14T05:46:30Z</time>
      </trkpt>
      <trkpt lat="44.87802" lon="6.09127">
        <ele>1505.8</ele>
        <time>2024-08-14T05:46:31Z</time>
      </trkpt>
      <trkpt lat="44.87802" lon="6.09127">
        <ele>1506</ele>
        <time>2024-08-14T05:46:32Z</time>
      </trkpt>
      <trkpt lat="44.87802" lon="6.09127">
        <ele>1506</ele>
        <time>2024-08-14T05:46:33Z</time>
      </trkpt>
      <trkpt lat="44.87804" lon="6.09124">
        <ele>1506.4</ele>
        <time>2024-08-14T05:46:34Z</time>
      </trkpt>
      <trkpt lat="44.87804" lon="6.09124">
        <ele>1506.6</ele>
        <time>2024-08-14T05:46:35Z</time>
      </trkpt>
      <trkpt lat="44.87804" lon="6.09124">
        <ele>1506.8</ele>
        <time>2024-08-14T05:46:36Z</time>
      </trkpt>
      <trkpt lat="44.87806" lon="6.09123">
        <ele>1507.2</ele>
        <time>2024-08-14T05:46:37Z</time>
      </trkpt>
      <trkpt lat="44.87806" lon="6.09123">
        <ele>1507.4</ele>
        <time>2024-08-14T05:46:38Z</time>
      </trkpt>
      <trkpt lat="44.87806" lon="6.09123">
        <ele>1507.4</ele>
        <time>2024-08-14T05:46:39Z</time>
      </trkpt>
      <trkpt lat="44.87806" lon="6.09123">
        <ele>1508.2</ele>
        <time>2024-08-14T05:46:40Z</time>
      </trkpt>
      <trkpt lat="44.87807" lon="6.09121">
        <ele>1508.2</ele>
        <time>2024-08-14T05:46:41Z</time>
      </trkpt>
      <trkpt lat="44.87807" lon="6.09121">
        <ele>1508.2</ele>
        <time>2024-08-14T05:46:42Z</time>
      </trkpt>
      <trkpt lat="44.87807" lon="6.09121">
        <ele>1508.8</ele>
        <time>2024-08-14T05:46:43Z</time>
      </trkpt>
      <trkpt lat="44.87809" lon="6.09119">
        <ele>1508.8</ele>
        <time>2024-08-14T05:46:44Z</time>
      </trkpt>
      <trkpt lat="44.87809" lon="6.09119">
        <ele>1509.2</ele>
        <time>2024-08-14T05:46:45Z</time>
      </trkpt>
      <trkpt lat="44.87809" lon="6.09119">
        <ele>1509.4</ele>
        <time>2024-08-14T05:46:46Z</time>
      </trkpt>
      <trkpt lat="44.87809" lon="6.09119">
        <ele>1509.6</ele>
        <time>2024-08-14T05:46:47Z</time>
      </trkpt>
      <trkpt lat="44.8781" lon="6.09117">
        <ele>1509.6</ele>
        <time>2024-08-14T05:46:48Z</time>
      </trkpt>
      <trkpt lat="44.8781" lon="6.09117">
        <ele>1509.8</ele>
        <time>2024-08-14T05:46:49Z</time>
      </trkpt>
      <trkpt lat="44.8781" lon="6.09117">
        <ele>1510.2</ele>
        <time>2024-08-14T05:46:50Z</time>
      </trkpt>
      <trkpt lat="44.8781" lon="6.09117">
        <ele>1510.6</ele>
        <time>2024-08-14T05:46:51Z</time>
      </trkpt>
      <trkpt lat="44.87811" lon="6.09114">
        <ele>1510.6</ele>
        <time>2024-08-14T05:46:52Z</time>
      </trkpt>
      <trkpt lat="44.87811" lon="6.09114">
        <ele>1510.8</ele>
        <time>2024-08-14T05:46:53Z</time>
      </trkpt>
      <trkpt lat="44.87811" lon="6.09114">
        <ele>1510.8</ele>
        <time>2024-08-14T05:46:54Z</time>
      </trkpt>
      <trkpt lat="44.87811" lon="6.09114">
        <ele>1511</ele>
        <time>2024-08-14T05:46:55Z</time>
      </trkpt>
      <trkpt lat="44.87811" lon="6.09114">
        <ele>1511.4</ele>
        <time>2024-08-14T05:46:56Z</time>
      </trkpt>
      <trkpt lat="44.87813" lon="6.09111">
        <ele>1511.6</ele>
        <time>2024-08-14T05:46:57Z</time>
      </trkpt>
      <trkpt lat="44.87813" lon="6.09111">
        <ele>1512</ele>
        <time>2024-08-14T05:46:58Z</time>
      </trkpt>
      <trkpt lat="44.87813" lon="6.09111">
        <ele>1512.2</ele>
        <time>2024-08-14T05:46:59Z</time>
      </trkpt>
      <trkpt lat="44.87813" lon="6.09111">
        <ele>1512.4</ele>
        <time>2024-08-14T05:47:00Z</time>
      </trkpt>
      <trkpt lat="44.87813" lon="6.09109">
        <ele>1512.8</ele>
        <time>2024-08-14T05:47:01Z</time>
      </trkpt>
      <trkpt lat="44.87813" lon="6.09109">
        <ele>1512.8</ele>
        <time>2024-08-14T05:47:02Z</time>
      </trkpt>
      <trkpt lat="44.87813" lon="6.09109">
        <ele>1512.8</ele>
        <time>2024-08-14T05:47:03Z</time>
      </trkpt>
      <trkpt lat="44.87815" lon="6.09107">
        <ele>1513</ele>
        <time>2024-08-14T05:47:04Z</time>
      </trkpt>
      <trkpt lat="44.87815" lon="6.09107">
        <ele>1513.2</ele>
        <time>2024-08-14T05:47:05Z</time>
      </trkpt>
      <trkpt lat="44.87815" lon="6.09107">
        <ele>1513.4</ele>
        <time>2024-08-14T05:47:06Z</time>
      </trkpt>
      <trkpt lat="44.87815" lon="6.09107">
        <ele>1514</ele>
        <time>2024-08-14T05:47:07Z</time>
      </trkpt>
      <trkpt lat="44.87816" lon="6.09105">
        <ele>1514</ele>
        <time>2024-08-14T05:47:08Z</time>
      </trkpt>
      <trkpt lat="44.87816" lon="6.09105">
        <ele>1514.4</ele>
        <time>2024-08-14T05:47:09Z</time>
      </trkpt>
      <trkpt lat="44.87816" lon="6.09105">
        <ele>1514.6</ele>
        <time>2024-08-14T05:47:10Z</time>
      </trkpt>
      <trkpt lat="44.87817" lon="6.09103">
        <ele>1514.8</ele>
        <time>2024-08-14T05:47:11Z</time>
      </trkpt>
      <trkpt lat="44.87817" lon="6.09103">
        <ele>1514.8</ele>
        <time>2024-08-14T05:47:12Z</time>
      </trkpt>
      <trkpt lat="44.87817" lon="6.09103">
        <ele>1515.2</ele>
        <time>2024-08-14T05:47:13Z</time>
      </trkpt>
      <trkpt lat="44.87817" lon="6.09103">
        <ele>1515.6</ele>
        <time>2024-08-14T05:47:14Z</time>
      </trkpt>
      <trkpt lat="44.87819" lon="6.091">
        <ele>1516</ele>
        <time>2024-08-14T05:47:15Z</time>
      </trkpt>
      <trkpt lat="44.87819" lon="6.091">
        <ele>1516.2</ele>
        <time>2024-08-14T05:47:16Z</time>
      </trkpt>
      <trkpt lat="44.87819" lon="6.091">
        <ele>1516.4</ele>
        <time>2024-08-14T05:47:17Z</time>
      </trkpt>
      <trkpt lat="44.87819" lon="6.091">
        <ele>1516.6</ele>
        <time>2024-08-14T05:47:18Z</time>
      </trkpt>
      <trkpt lat="44.8782" lon="6.09097">
        <ele>1516.6</ele>
        <time>2024-08-14T05:47:19Z</time>
      </trkpt>
      <trkpt lat="44.8782" lon="6.09097">
        <ele>1517.2</ele>
        <time>2024-08-14T05:47:20Z</time>
      </trkpt>
      <trkpt lat="44.8782" lon="6.09097">
        <ele>1517.2</ele>
        <time>2024-08-14T05:47:21Z</time>
      </trkpt>
      <trkpt lat="44.87821" lon="6.09094">
        <ele>1517.4</ele>
        <time>2024-08-14T05:47:22Z</time>
      </trkpt>
      <trkpt lat="44.87821" lon="6.09094">
        <ele>1517.8</ele>
        <time>2024-08-14T05:47:23Z</time>
      </trkpt>
      <trkpt lat="44.87821" lon="6.09094">
        <ele>1517.8</ele>
        <time>2024-08-14T05:47:24Z</time>
      </trkpt>
      <trkpt lat="44.87822" lon="6.09092">
        <ele>1518.2</ele>
        <time>2024-08-14T05:47:25Z</time>
      </trkpt>
      <trkpt lat="44.87822" lon="6.09092">
        <ele>1518.2</ele>
        <time>2024-08-14T05:47:26Z</time>
      </trkpt>
      <trkpt lat="44.87822" lon="6.09092">
        <ele>1518.6</ele>
        <time>2024-08-14T05:47:27Z</time>
      </trkpt>
      <trkpt lat="44.87823" lon="6.0909">
        <ele>1518.8</ele>
        <time>2024-08-14T05:47:28Z</time>
      </trkpt>
      <trkpt lat="44.87823" lon="6.0909">
        <ele>1518.8</ele>
        <time>2024-08-14T05:47:29Z</time>
      </trkpt>
      <trkpt lat="44.87823" lon="6.0909">
        <ele>1519.2</ele>
        <time>2024-08-14T05:47:30Z</time>
      </trkpt>
      <trkpt lat="44.87823" lon="6.0909">
        <ele>1519.4</ele>
        <time>2024-08-14T05:47:31Z</time>
      </trkpt>
      <trkpt lat="44.87824" lon="6.09087">
        <ele>1519.6</ele>
        <time>2024-08-14T05:47:32Z</time>
      </trkpt>
      <trkpt lat="44.87824" lon="6.09087">
        <ele>1520</ele>
        <time>2024-08-14T05:47:33Z</time>
      </trkpt>
      <trkpt lat="44.87826" lon="6.09086">
        <ele>1520</ele>
        <time>2024-08-14T05:47:34Z</time>
      </trkpt>
      <trkpt lat="44.87826" lon="6.09086">
        <ele>1520</ele>
        <time>2024-08-14T05:47:35Z</time>
      </trkpt>
      <trkpt lat="44.87826" lon="6.09086">
        <ele>1520.4</ele>
        <time>2024-08-14T05:47:36Z</time>
      </trkpt>
      <trkpt lat="44.87826" lon="6.09086">
        <ele>1520.6</ele>
        <time>2024-08-14T05:47:37Z</time>
      </trkpt>
      <trkpt lat="44.87828" lon="6.09085">
        <ele>1520.8</ele>
        <time>2024-08-14T05:47:38Z</time>
      </trkpt>
      <trkpt lat="44.87828" lon="6.09085">
        <ele>1521.2</ele>
        <time>2024-08-14T05:47:39Z</time>
      </trkpt>
      <trkpt lat="44.87828" lon="6.09085">
        <ele>1521.2</ele>
        <time>2024-08-14T05:47:40Z</time>
      </trkpt>
      <trkpt lat="44.87828" lon="6.09085">
        <ele>1521.4</ele>
        <time>2024-08-14T05:47:41Z</time>
      </trkpt>
      <trkpt lat="44.87829" lon="6.09083">
        <ele>1521.8</ele>
        <time>2024-08-14T05:47:42Z</time>
      </trkpt>
      <trkpt lat="44.87829" lon="6.09083">
        <ele>1522</ele>
        <time>2024-08-14T05:47:43Z</time>
      </trkpt>
      <trkpt lat="44.87829" lon="6.09083">
        <ele>1522</ele>
        <time>2024-08-14T05:47:44Z</time>
      </trkpt>
      <trkpt lat="44.87831" lon="6.09082">
        <ele>1522.4</ele>
        <time>2024-08-14T05:47:45Z</time>
      </trkpt>
      <trkpt lat="44.87831" lon="6.09082">
        <ele>1522.4</ele>
        <time>2024-08-14T05:47:46Z</time>
      </trkpt>
      <trkpt lat="44.87831" lon="6.09082">
        <ele>1522.4</ele>
        <time>2024-08-14T05:47:47Z</time>
      </trkpt>
      <trkpt lat="44.87831" lon="6.09082">
        <ele>1523.2</ele>
        <time>2024-08-14T05:47:48Z</time>
      </trkpt>
      <trkpt lat="44.87834" lon="6.09081">
        <ele>1523.2</ele>
        <time>2024-08-14T05:47:49Z</time>
      </trkpt>
      <trkpt lat="44.87834" lon="6.09081">
        <ele>1523.4</ele>
        <time>2024-08-14T05:47:50Z</time>
      </trkpt>
      <trkpt lat="44.87834" lon="6.09081">
        <ele>1523.6</ele>
        <time>2024-08-14T05:47:51Z</time>
      </trkpt>
      <trkpt lat="44.87834" lon="6.09081">
        <ele>1523.8</ele>
        <time>2024-08-14T05:47:52Z</time>
      </trkpt>
      <trkpt lat="44.87836" lon="6.0908">
        <ele>1524.2</ele>
        <time>2024-08-14T05:47:53Z</time>
      </trkpt>
      <trkpt lat="44.87836" lon="6.0908">
        <ele>1524.2</ele>
        <time>2024-08-14T05:47:54Z</time>
      </trkpt>
      <trkpt lat="44.87836" lon="6.0908">
        <ele>1524.2</ele>
        <time>2024-08-14T05:47:55Z</time>
      </trkpt>
      <trkpt lat="44.87836" lon="6.0908">
        <ele>1524.6</ele>
        <time>2024-08-14T05:47:56Z</time>
      </trkpt>
      <trkpt lat="44.87838" lon="6.09079">
        <ele>1524.8</ele>
        <time>2024-08-14T05:47:57Z</time>
      </trkpt>
      <trkpt lat="44.87838" lon="6.09079">
        <ele>1525.2</ele>
        <time>2024-08-14T05:47:58Z</time>
      </trkpt>
      <trkpt lat="44.87838" lon="6.09079">
        <ele>1525.6</ele>
        <time>2024-08-14T05:47:59Z</time>
      </trkpt>
      <trkpt lat="44.87838" lon="6.09079">
        <ele>1525.6</ele>
        <time>2024-08-14T05:48:00Z</time>
      </trkpt>
      <trkpt lat="44.8784" lon="6.09079">
        <ele>1526</ele>
        <time>2024-08-14T05:48:01Z</time>
      </trkpt>
      <trkpt lat="44.8784" lon="6.09079">
        <ele>1526.6</ele>
        <time>2024-08-14T05:48:02Z</time>
      </trkpt>
      <trkpt lat="44.8784" lon="6.09079">
        <ele>1526.6</ele>
        <time>2024-08-14T05:48:03Z</time>
      </trkpt>
      <trkpt lat="44.8784" lon="6.09079">
        <ele>1526.6</ele>
        <time>2024-08-14T05:48:04Z</time>
      </trkpt>
      <trkpt lat="44.87842" lon="6.09079">
        <ele>1526.8</ele>
        <time>2024-08-14T05:48:05Z</time>
      </trkpt>
      <trkpt lat="44.87842" lon="6.09079">
        <ele>1527.2</ele>
        <time>2024-08-14T05:48:06Z</time>
      </trkpt>
      <trkpt lat="44.87842" lon="6.09079">
        <ele>1527.6</ele>
        <time>2024-08-14T05:48:07Z</time>
      </trkpt>
      <trkpt lat="44.87842" lon="6.09079">
        <ele>1527.6</ele>
        <time>2024-08-14T05:48:08Z</time>
      </trkpt>
      <trkpt lat="44.87845" lon="6.09078">
        <ele>1527.6</ele>
        <time>2024-08-14T05:48:09Z</time>
      </trkpt>
      <trkpt lat="44.87845" lon="6.09078">
        <ele>1528</ele>
        <time>2024-08-14T05:48:10Z</time>
      </trkpt>
      <trkpt lat="44.87845" lon="6.09078">
        <ele>1528.2</ele>
        <time>2024-08-14T05:48:11Z</time>
      </trkpt>
      <trkpt lat="44.87845" lon="6.09078">
        <ele>1528.4</ele>
        <time>2024-08-14T05:48:12Z</time>
      </trkpt>
      <trkpt lat="44.87846" lon="6.09078">
        <ele>1529.2</ele>
        <time>2024-08-14T05:48:13Z</time>
      </trkpt>
      <trkpt lat="44.87846" lon="6.09078">
        <ele>1529.4</ele>
        <time>2024-08-14T05:48:14Z</time>
      </trkpt>
      <trkpt lat="44.87846" lon="6.09078">
        <ele>1529.4</ele>
        <time>2024-08-14T05:48:15Z</time>
      </trkpt>
      <trkpt lat="44.87848" lon="6.09078">
        <ele>1529.4</ele>
        <time>2024-08-14T05:48:16Z</time>
      </trkpt>
      <trkpt lat="44.87848" lon="6.09078">
        <ele>1529.6</ele>
        <time>2024-08-14T05:48:17Z</time>
      </trkpt>
      <trkpt lat="44.87848" lon="6.09078">
        <ele>1529.8</ele>
        <time>2024-08-14T05:48:18Z</time>
      </trkpt>
      <trkpt lat="44.87848" lon="6.09078">
        <ele>1530</ele>
        <time>2024-08-14T05:48:19Z</time>
      </trkpt>
      <trkpt lat="44.8785" lon="6.09078">
        <ele>1530.2</ele>
        <time>2024-08-14T05:48:20Z</time>
      </trkpt>
      <trkpt lat="44.8785" lon="6.09078">
        <ele>1530.6</ele>
        <time>2024-08-14T05:48:21Z</time>
      </trkpt>
      <trkpt lat="44.8785" lon="6.09078">
        <ele>1530.8</ele>
        <time>2024-08-14T05:48:22Z</time>
      </trkpt>
      <trkpt lat="44.8785" lon="6.09078">
        <ele>1531.2</ele>
        <time>2024-08-14T05:48:23Z</time>
      </trkpt>
      <trkpt lat="44.8785" lon="6.09078">
        <ele>1531.2</ele>
        <time>2024-08-14T05:48:24Z</time>
      </trkpt>
      <trkpt lat="44.87853" lon="6.09078">
        <ele>1531.2</ele>
        <time>2024-08-14T05:48:25Z</time>
      </trkpt>
      <trkpt lat="44.87853" lon="6.09078">
        <ele>1532</ele>
        <time>2024-08-14T05:48:26Z</time>
      </trkpt>
      <trkpt lat="44.87853" lon="6.09078">
        <ele>1532</ele>
        <time>2024-08-14T05:48:27Z</time>
      </trkpt>
      <trkpt lat="44.87855" lon="6.09077">
        <ele>1532.2</ele>
        <time>2024-08-14T05:48:28Z</time>
      </trkpt>
      <trkpt lat="44.87855" lon="6.09077">
        <ele>1532.4</ele>
        <time>2024-08-14T05:48:29Z</time>
      </trkpt>
      <trkpt lat="44.87855" lon="6.09077">
        <ele>1532.6</ele>
        <time>2024-08-14T05:48:30Z</time>
      </trkpt>
      <trkpt lat="44.87855" lon="6.09077">
        <ele>1532.6</ele>
        <time>2024-08-14T05:48:31Z</time>
      </trkpt>
      <trkpt lat="44.87857" lon="6.09077">
        <ele>1532.8</ele>
        <time>2024-08-14T05:48:32Z</time>
      </trkpt>
      <trkpt lat="44.87857" lon="6.09077">
        <ele>1533.4</ele>
        <time>2024-08-14T05:48:33Z</time>
      </trkpt>
      <trkpt lat="44.87857" lon="6.09077">
        <ele>1533.8</ele>
        <time>2024-08-14T05:48:34Z</time>
      </trkpt>
      <trkpt lat="44.87859" lon="6.09077">
        <ele>1533.8</ele>
        <time>2024-08-14T05:48:35Z</time>
      </trkpt>
      <trkpt lat="44.87859" lon="6.09077">
        <ele>1534</ele>
        <time>2024-08-14T05:48:36Z</time>
      </trkpt>
      <trkpt lat="44.87859" lon="6.09077">
        <ele>1534</ele>
        <time>2024-08-14T05:48:37Z</time>
      </trkpt>
      <trkpt lat="44.87861" lon="6.09076">
        <ele>1534.4</ele>
        <time>2024-08-14T05:48:38Z</time>
      </trkpt>
      <trkpt lat="44.87861" lon="6.09076">
        <ele>1534.4</ele>
        <time>2024-08-14T05:48:39Z</time>
      </trkpt>
      <trkpt lat="44.87861" lon="6.09076">
        <ele>1534.6</ele>
        <time>2024-08-14T05:48:40Z</time>
      </trkpt>
      <trkpt lat="44.87863" lon="6.09076">
        <ele>1535</ele>
        <time>2024-08-14T05:48:41Z</time>
      </trkpt>
      <trkpt lat="44.87863" lon="6.09076">
        <ele>1535.2</ele>
        <time>2024-08-14T05:48:42Z</time>
      </trkpt>
      <trkpt lat="44.87863" lon="6.09076">
        <ele>1535.4</ele>
        <time>2024-08-14T05:48:43Z</time>
      </trkpt>
      <trkpt lat="44.87866" lon="6.09075">
        <ele>1535.6</ele>
        <time>2024-08-14T05:48:44Z</time>
      </trkpt>
      <trkpt lat="44.87866" lon="6.09075">
        <ele>1535.6</ele>
        <time>2024-08-14T05:48:45Z</time>
      </trkpt>
      <trkpt lat="44.87866" lon="6.09075">
        <ele>1535.6</ele>
        <time>2024-08-14T05:48:46Z</time>
      </trkpt>
      <trkpt lat="44.87868" lon="6.09073">
        <ele>1536.2</ele>
        <time>2024-08-14T05:48:47Z</time>
      </trkpt>
      <trkpt lat="44.87868" lon="6.09073">
        <ele>1536.4</ele>
        <time>2024-08-14T05:48:48Z</time>
      </trkpt>
      <trkpt lat="44.87868" lon="6.09073">
        <ele>1536.6</ele>
        <time>2024-08-14T05:48:49Z</time>
      </trkpt>
      <trkpt lat="44.8787" lon="6.09071">
        <ele>1536.6</ele>
        <time>2024-08-14T05:48:50Z</time>
      </trkpt>
      <trkpt lat="44.8787" lon="6.09071">
        <ele>1536.8</ele>
        <time>2024-08-14T05:48:51Z</time>
      </trkpt>
      <trkpt lat="44.87871" lon="6.09069">
        <ele>1537</ele>
        <time>2024-08-14T05:48:52Z</time>
      </trkpt>
      <trkpt lat="44.87871" lon="6.09069">
        <ele>1537.2</ele>
        <time>2024-08-14T05:48:53Z</time>
      </trkpt>
      <trkpt lat="44.87873" lon="6.09067">
        <ele>1537.2</ele>
        <time>2024-08-14T05:48:54Z</time>
      </trkpt>
      <trkpt lat="44.87873" lon="6.09067">
        <ele>1537.4</ele>
        <time>2024-08-14T05:48:55Z</time>
      </trkpt>
      <trkpt lat="44.87873" lon="6.09067">
        <ele>1537.4</ele>
        <time>2024-08-14T05:48:56Z</time>
      </trkpt>
      <trkpt lat="44.87875" lon="6.09065">
        <ele>1537.6</ele>
        <time>2024-08-14T05:48:57Z</time>
      </trkpt>
      <trkpt lat="44.87875" lon="6.09065">
        <ele>1537.8</ele>
        <time>2024-08-14T05:48:58Z</time>
      </trkpt>
      <trkpt lat="44.87875" lon="6.09065">
        <ele>1538</ele>
        <time>2024-08-14T05:48:59Z</time>
      </trkpt>
      <trkpt lat="44.87875" lon="6.09065">
        <ele>1538.6</ele>
        <time>2024-08-14T05:49:00Z</time>
      </trkpt>
      <trkpt lat="44.87876" lon="6.09063">
        <ele>1538.8</ele>
        <time>2024-08-14T05:49:01Z</time>
      </trkpt>
      <trkpt lat="44.87876" lon="6.09063">
        <ele>1539.2</ele>
        <time>2024-08-14T05:49:02Z</time>
      </trkpt>
      <trkpt lat="44.87876" lon="6.09063">
        <ele>1539.2</ele>
        <time>2024-08-14T05:49:03Z</time>
      </trkpt>
      <trkpt lat="44.87878" lon="6.09062">
        <ele>1539.2</ele>
        <time>2024-08-14T05:49:04Z</time>
      </trkpt>
      <trkpt lat="44.87878" lon="6.09062">
        <ele>1539.8</ele>
        <time>2024-08-14T05:49:05Z</time>
      </trkpt>
      <trkpt lat="44.87878" lon="6.09062">
        <ele>1539.8</ele>
        <time>2024-08-14T05:49:06Z</time>
      </trkpt>
      <trkpt lat="44.8788" lon="6.09061">
        <ele>1539.8</ele>
        <time>2024-08-14T05:49:07Z</time>
      </trkpt>
      <trkpt lat="44.8788" lon="6.09061">
        <ele>1539.8</ele>
        <time>2024-08-14T05:49:08Z</time>
      </trkpt>
      <trkpt lat="44.8788" lon="6.09061">
        <ele>1540.4</ele>
        <time>2024-08-14T05:49:09Z</time>
      </trkpt>
      <trkpt lat="44.87882" lon="6.09059">
        <ele>1540.6</ele>
        <time>2024-08-14T05:49:10Z</time>
      </trkpt>
      <trkpt lat="44.87882" lon="6.09059">
        <ele>1540.6</ele>
        <time>2024-08-14T05:49:11Z</time>
      </trkpt>
      <trkpt lat="44.87883" lon="6.09057">
        <ele>1540.8</ele>
        <time>2024-08-14T05:49:12Z</time>
      </trkpt>
      <trkpt lat="44.87883" lon="6.09057">
        <ele>1541.2</ele>
        <time>2024-08-14T05:49:13Z</time>
      </trkpt>
      <trkpt lat="44.87883" lon="6.09057">
        <ele>1541.2</ele>
        <time>2024-08-14T05:49:14Z</time>
      </trkpt>
      <trkpt lat="44.87885" lon="6.09055">
        <ele>1541.4</ele>
        <time>2024-08-14T05:49:15Z</time>
      </trkpt>
      <trkpt lat="44.87885" lon="6.09055">
        <ele>1541.4</ele>
        <time>2024-08-14T05:49:16Z</time>
      </trkpt>
      <trkpt lat="44.87885" lon="6.09055">
        <ele>1541.6</ele>
        <time>2024-08-14T05:49:17Z</time>
      </trkpt>
      <trkpt lat="44.87887" lon="6.09053">
        <ele>1541.8</ele>
        <time>2024-08-14T05:49:18Z</time>
      </trkpt>
      <trkpt lat="44.87887" lon="6.09053">
        <ele>1542</ele>
        <time>2024-08-14T05:49:19Z</time>
      </trkpt>
      <trkpt lat="44.87888" lon="6.09052">
        <ele>1542.2</ele>
        <time>2024-08-14T05:49:20Z</time>
      </trkpt>
      <trkpt lat="44.87888" lon="6.09052">
        <ele>1542.4</ele>
        <time>2024-08-14T05:49:21Z</time>
      </trkpt>
      <trkpt lat="44.87888" lon="6.09052">
        <ele>1542.4</ele>
        <time>2024-08-14T05:49:22Z</time>
      </trkpt>
      <trkpt lat="44.87891" lon="6.0905">
        <ele>1542.8</ele>
        <time>2024-08-14T05:49:23Z</time>
      </trkpt>
      <trkpt lat="44.87891" lon="6.0905">
        <ele>1543</ele>
        <time>2024-08-14T05:49:24Z</time>
      </trkpt>
      <trkpt lat="44.87891" lon="6.0905">
        <ele>1543.4</ele>
        <time>2024-08-14T05:49:25Z</time>
      </trkpt>
      <trkpt lat="44.87892" lon="6.09052">
        <ele>1543.6</ele>
        <time>2024-08-14T05:49:26Z</time>
      </trkpt>
      <trkpt lat="44.87892" lon="6.09052">
        <ele>1543.6</ele>
        <time>2024-08-14T05:49:27Z</time>
      </trkpt>
      <trkpt lat="44.87892" lon="6.09052">
        <ele>1543.8</ele>
        <time>2024-08-14T05:49:28Z</time>
      </trkpt>
      <trkpt lat="44.87892" lon="6.09052">
        <ele>1544.2</ele>
        <time>2024-08-14T05:49:29Z</time>
      </trkpt>
      <trkpt lat="44.87892" lon="6.09056">
        <ele>1544.2</ele>
        <time>2024-08-14T05:49:30Z</time>
      </trkpt>
      <trkpt lat="44.87892" lon="6.09056">
        <ele>1544.6</ele>
        <time>2024-08-14T05:49:31Z</time>
      </trkpt>
      <trkpt lat="44.87892" lon="6.09056">
        <ele>1544.8</ele>
        <time>2024-08-14T05:49:32Z</time>
      </trkpt>
      <trkpt lat="44.87892" lon="6.09056">
        <ele>1544.8</ele>
        <time>2024-08-14T05:49:33Z</time>
      </trkpt>
      <trkpt lat="44.87892" lon="6.09056">
        <ele>1545.6</ele>
        <time>2024-08-14T05:49:34Z</time>
      </trkpt>
      <trkpt lat="44.87892" lon="6.09056">
        <ele>1545.8</ele>
        <time>2024-08-14T05:49:35Z</time>
      </trkpt>
      <trkpt lat="44.87891" lon="6.09059">
        <ele>1546.2</ele>
        <time>2024-08-14T05:49:36Z</time>
      </trkpt>
      <trkpt lat="44.87891" lon="6.09059">
        <ele>1546.2</ele>
        <time>2024-08-14T05:49:37Z</time>
      </trkpt>
      <trkpt lat="44.87891" lon="6.09059">
        <ele>1546.4</ele>
        <time>2024-08-14T05:49:38Z</time>
      </trkpt>
      <trkpt lat="44.87891" lon="6.09059">
        <ele>1546.4</ele>
        <time>2024-08-14T05:49:39Z</time>
      </trkpt>
      <trkpt lat="44.87891" lon="6.09059">
        <ele>1546.6</ele>
        <time>2024-08-14T05:49:40Z</time>
      </trkpt>
      <trkpt lat="44.87891" lon="6.09059">
        <ele>1546.8</ele>
        <time>2024-08-14T05:49:41Z</time>
      </trkpt>
      <trkpt lat="44.87891" lon="6.09059">
        <ele>1547</ele>
        <time>2024-08-14T05:49:42Z</time>
      </trkpt>
      <trkpt lat="44.87891" lon="6.09059">
        <ele>1547</ele>
        <time>2024-08-14T05:49:43Z</time>
      </trkpt>
      <trkpt lat="44.87891" lon="6.09059">
        <ele>1547</ele>
        <time>2024-08-14T05:49:44Z</time>
      </trkpt>
      <trkpt lat="44.87891" lon="6.09059">
        <ele>1547.4</ele>
        <time>2024-08-14T05:49:45Z</time>
      </trkpt>
      <trkpt lat="44.87891" lon="6.09059">
        <ele>1547.6</ele>
        <time>2024-08-14T05:49:46Z</time>
      </trkpt>
      <trkpt lat="44.87891" lon="6.09059">
        <ele>1547.6</ele>
        <time>2024-08-14T05:49:47Z</time>
      </trkpt>
      <trkpt lat="44.87891" lon="6.09059">
        <ele>1547.6</ele>
        <time>2024-08-14T05:49:48Z</time>
      </trkpt>
      <trkpt lat="44.87891" lon="6.09059">
        <ele>1547.6</ele>
        <time>2024-08-14T05:49:49Z</time>
      </trkpt>
      <trkpt lat="44.87891" lon="6.09059">
        <ele>1547.4</ele>
        <time>2024-08-14T05:49:50Z</time>
      </trkpt>
      <trkpt lat="44.87891" lon="6.09059">
        <ele>1547.4</ele>
        <time>2024-08-14T05:49:51Z</time>
      </trkpt>
      <trkpt lat="44.87891" lon="6.09059">
        <ele>1547.4</ele>
        <time>2024-08-14T05:49:52Z</time>
      </trkpt>
      <trkpt lat="44.87891" lon="6.09059">
        <ele>1547.4</ele>
        <time>2024-08-14T05:49:53Z</time>
      </trkpt>
      <trkpt lat="44.87891" lon="6.09059">
        <ele>1547.4</ele>
        <time>2024-08-14T05:49:54Z</time>
      </trkpt>
      <trkpt lat="44.87891" lon="6.09059">
        <ele>1547.6</ele>
        <time>2024-08-14T05:49:55Z</time>
      </trkpt>
      <trkpt lat="44.87891" lon="6.09059">
        <ele>1547.6</ele>
        <time>2024-08-14T05:49:56Z</time>
      </trkpt>
      <trkpt lat="44.87891" lon="6.09059">
        <ele>1547.6</ele>
        <time>2024-08-14T05:49:57Z</time>
      </trkpt>
      <trkpt lat="44.87891" lon="6.09059">
        <ele>1547.6</ele>
        <time>2024-08-14T05:49:58Z</time>
      </trkpt>
      <trkpt lat="44.87891" lon="6.09059">
        <ele>1548</ele>
        <time>2024-08-14T05:49:59Z</time>
      </trkpt>
      <trkpt lat="44.87891" lon="6.09059">
        <ele>1548.4</ele>
        <time>2024-08-14T05:50:00Z</time>
      </trkpt>
      <trkpt lat="44.87891" lon="6.09061">
        <ele>1548.4</ele>
        <time>2024-08-14T05:50:01Z</time>
      </trkpt>
      <trkpt lat="44.87891" lon="6.09061">
        <ele>1549</ele>
        <time>2024-08-14T05:50:02Z</time>
      </trkpt>
      <trkpt lat="44.87891" lon="6.09061">
        <ele>1549</ele>
        <time>2024-08-14T05:50:03Z</time>
      </trkpt>
      <trkpt lat="44.87891" lon="6.09061">
        <ele>1549.4</ele>
        <time>2024-08-14T05:50:04Z</time>
      </trkpt>
      <trkpt lat="44.87891" lon="6.09061">
        <ele>1549.4</ele>
        <time>2024-08-14T05:50:05Z</time>
      </trkpt>
      <trkpt lat="44.87891" lon="6.09061">
        <ele>1549.4</ele>
        <time>2024-08-14T05:50:06Z</time>
      </trkpt>
      <trkpt lat="44.87893" lon="6.09062">
        <ele>1549.6</ele>
        <time>2024-08-14T05:50:07Z</time>
      </trkpt>
      <trkpt lat="44.87893" lon="6.09062">
        <ele>1549.8</ele>
        <time>2024-08-14T05:50:08Z</time>
      </trkpt>
      <trkpt lat="44.87893" lon="6.09062">
        <ele>1550.2</ele>
        <time>2024-08-14T05:50:09Z</time>
      </trkpt>
      <trkpt lat="44.87893" lon="6.09062">
        <ele>1550.4</ele>
        <time>2024-08-14T05:50:10Z</time>
      </trkpt>
      <trkpt lat="44.87893" lon="6.09062">
        <ele>1550.4</ele>
        <time>2024-08-14T05:50:11Z</time>
      </trkpt>
      <trkpt lat="44.87895" lon="6.09061">
        <ele>1550.8</ele>
        <time>2024-08-14T05:50:12Z</time>
      </trkpt>
      <trkpt lat="44.87895" lon="6.09061">
        <ele>1551.2</ele>
        <time>2024-08-14T05:50:13Z</time>
      </trkpt>
      <trkpt lat="44.87895" lon="6.09061">
        <ele>1551.2</ele>
        <time>2024-08-14T05:50:14Z</time>
      </trkpt>
      <trkpt lat="44.87895" lon="6.09061">
        <ele>1551.4</ele>
        <time>2024-08-14T05:50:15Z</time>
      </trkpt>
      <trkpt lat="44.87895" lon="6.09061">
        <ele>1551.6</ele>
        <time>2024-08-14T05:50:16Z</time>
      </trkpt>
      <trkpt lat="44.87897" lon="6.0906">
        <ele>1551.6</ele>
        <time>2024-08-14T05:50:17Z</time>
      </trkpt>
      <trkpt lat="44.87897" lon="6.0906">
        <ele>1552.2</ele>
        <time>2024-08-14T05:50:18Z</time>
      </trkpt>
      <trkpt lat="44.87897" lon="6.0906">
        <ele>1552.2</ele>
        <time>2024-08-14T05:50:19Z</time>
      </trkpt>
      <trkpt lat="44.87897" lon="6.0906">
        <ele>1552.4</ele>
        <time>2024-08-14T05:50:20Z</time>
      </trkpt>
      <trkpt lat="44.879" lon="6.09059">
        <ele>1552.8</ele>
        <time>2024-08-14T05:50:21Z</time>
      </trkpt>
      <trkpt lat="44.879" lon="6.09059">
        <ele>1552.8</ele>
        <time>2024-08-14T05:50:22Z</time>
      </trkpt>
      <trkpt lat="44.879" lon="6.09059">
        <ele>1552.8</ele>
        <time>2024-08-14T05:50:23Z</time>
      </trkpt>
      <trkpt lat="44.879" lon="6.09059">
        <ele>1553.4</ele>
        <time>2024-08-14T05:50:24Z</time>
      </trkpt>
      <trkpt lat="44.87902" lon="6.09058">
        <ele>1553.4</ele>
        <time>2024-08-14T05:50:25Z</time>
      </trkpt>
      <trkpt lat="44.87902" lon="6.09058">
        <ele>1553.4</ele>
        <time>2024-08-14T05:50:26Z</time>
      </trkpt>
      <trkpt lat="44.87902" lon="6.09058">
        <ele>1553.6</ele>
        <time>2024-08-14T05:50:27Z</time>
      </trkpt>
      <trkpt lat="44.87902" lon="6.09058">
        <ele>1553.6</ele>
        <time>2024-08-14T05:50:28Z</time>
      </trkpt>
      <trkpt lat="44.87904" lon="6.09058">
        <ele>1553.8</ele>
        <time>2024-08-14T05:50:29Z</time>
      </trkpt>
      <trkpt lat="44.87904" lon="6.09058">
        <ele>1553.8</ele>
        <time>2024-08-14T05:50:30Z</time>
      </trkpt>
      <trkpt lat="44.87904" lon="6.09058">
        <ele>1554</ele>
        <time>2024-08-14T05:50:31Z</time>
      </trkpt>
      <trkpt lat="44.87906" lon="6.09058">
        <ele>1554</ele>
        <time>2024-08-14T05:50:32Z</time>
      </trkpt>
      <trkpt lat="44.87906" lon="6.09058">
        <ele>1554.2</ele>
        <time>2024-08-14T05:50:33Z</time>
      </trkpt>
      <trkpt lat="44.87906" lon="6.09058">
        <ele>1554.8</ele>
        <time>2024-08-14T05:50:34Z</time>
      </trkpt>
      <trkpt lat="44.87906" lon="6.09058">
        <ele>1555</ele>
        <time>2024-08-14T05:50:35Z</time>
      </trkpt>
      <trkpt lat="44.87908" lon="6.09058">
        <ele>1555.2</ele>
        <time>2024-08-14T05:50:36Z</time>
      </trkpt>
      <trkpt lat="44.87908" lon="6.09058">
        <ele>1555.2</ele>
        <time>2024-08-14T05:50:37Z</time>
      </trkpt>
      <trkpt lat="44.87908" lon="6.09058">
        <ele>1555.4</ele>
        <time>2024-08-14T05:50:38Z</time>
      </trkpt>
      <trkpt lat="44.87908" lon="6.09058">
        <ele>1555.4</ele>
        <time>2024-08-14T05:50:39Z</time>
      </trkpt>
      <trkpt lat="44.8791" lon="6.09057">
        <ele>1555.8</ele>
        <time>2024-08-14T05:50:40Z</time>
      </trkpt>
      <trkpt lat="44.8791" lon="6.09057">
        <ele>1555.8</ele>
        <time>2024-08-14T05:50:41Z</time>
      </trkpt>
      <trkpt lat="44.8791" lon="6.09057">
        <ele>1556.4</ele>
        <time>2024-08-14T05:50:42Z</time>
      </trkpt>
      <trkpt lat="44.8791" lon="6.09057">
        <ele>1556.4</ele>
        <time>2024-08-14T05:50:43Z</time>
      </trkpt>
      <trkpt lat="44.8791" lon="6.09057">
        <ele>1556.6</ele>
        <time>2024-08-14T05:50:44Z</time>
      </trkpt>
      <trkpt lat="44.87911" lon="6.09056">
        <ele>1556.8</ele>
        <time>2024-08-14T05:50:45Z</time>
      </trkpt>
      <trkpt lat="44.87911" lon="6.09056">
        <ele>1557</ele>
        <time>2024-08-14T05:50:46Z</time>
      </trkpt>
      <trkpt lat="44.87911" lon="6.09056">
        <ele>1557</ele>
        <time>2024-08-14T05:50:47Z</time>
      </trkpt>
      <trkpt lat="44.87911" lon="6.09056">
        <ele>1557.2</ele>
        <time>2024-08-14T05:50:48Z</time>
      </trkpt>
      <trkpt lat="44.87913" lon="6.09056">
        <ele>1557.2</ele>
        <time>2024-08-14T05:50:49Z</time>
      </trkpt>
      <trkpt lat="44.87913" lon="6.09056">
        <ele>1557.4</ele>
        <time>2024-08-14T05:50:50Z</time>
      </trkpt>
      <trkpt lat="44.87913" lon="6.09056">
        <ele>1557.4</ele>
        <time>2024-08-14T05:50:51Z</time>
      </trkpt>
      <trkpt lat="44.87913" lon="6.09056">
        <ele>1557.6</ele>
        <time>2024-08-14T05:50:52Z</time>
      </trkpt>
      <trkpt lat="44.87915" lon="6.09058">
        <ele>1557.8</ele>
        <time>2024-08-14T05:50:53Z</time>
      </trkpt>
      <trkpt lat="44.87915" lon="6.09058">
        <ele>1558.2</ele>
        <time>2024-08-14T05:50:54Z</time>
      </trkpt>
      <trkpt lat="44.87915" lon="6.09058">
        <ele>1558.2</ele>
        <time>2024-08-14T05:50:55Z</time>
      </trkpt>
      <trkpt lat="44.87915" lon="6.09058">
        <ele>1558.4</ele>
        <time>2024-08-14T05:50:56Z</time>
      </trkpt>
      <trkpt lat="44.87915" lon="6.09058">
        <ele>1558.8</ele>
        <time>2024-08-14T05:50:57Z</time>
      </trkpt>
      <trkpt lat="44.87915" lon="6.09058">
        <ele>1558.8</ele>
        <time>2024-08-14T05:50:58Z</time>
      </trkpt>
      <trkpt lat="44.87915" lon="6.09058">
        <ele>1558.8</ele>
        <time>2024-08-14T05:50:59Z</time>
      </trkpt>
      <trkpt lat="44.87915" lon="6.09058">
        <ele>1559.2</ele>
        <time>2024-08-14T05:51:00Z</time>
      </trkpt>
      <trkpt lat="44.87915" lon="6.09058">
        <ele>1559.4</ele>
        <time>2024-08-14T05:51:01Z</time>
      </trkpt>
      <trkpt lat="44.87915" lon="6.09058">
        <ele>1559.8</ele>
        <time>2024-08-14T05:51:02Z</time>
      </trkpt>
      <trkpt lat="44.87914" lon="6.09061">
        <ele>1560</ele>
        <time>2024-08-14T05:51:03Z</time>
      </trkpt>
      <trkpt lat="44.87914" lon="6.09061">
        <ele>1560.4</ele>
        <time>2024-08-14T05:51:04Z</time>
      </trkpt>
      <trkpt lat="44.87914" lon="6.09064">
        <ele>1560.4</ele>
        <time>2024-08-14T05:51:05Z</time>
      </trkpt>
      <trkpt lat="44.87914" lon="6.09064">
        <ele>1560.6</ele>
        <time>2024-08-14T05:51:06Z</time>
      </trkpt>
      <trkpt lat="44.87912" lon="6.09067">
        <ele>1561</ele>
        <time>2024-08-14T05:51:07Z</time>
      </trkpt>
      <trkpt lat="44.87912" lon="6.09067">
        <ele>1561</ele>
        <time>2024-08-14T05:51:08Z</time>
      </trkpt>
      <trkpt lat="44.87912" lon="6.09067">
        <ele>1561.2</ele>
        <time>2024-08-14T05:51:09Z</time>
      </trkpt>
      <trkpt lat="44.87911" lon="6.0907">
        <ele>1561.4</ele>
        <time>2024-08-14T05:51:10Z</time>
      </trkpt>
      <trkpt lat="44.87911" lon="6.0907">
        <ele>1561.6</ele>
        <time>2024-08-14T05:51:11Z</time>
      </trkpt>
      <trkpt lat="44.87911" lon="6.0907">
        <ele>1561.6</ele>
        <time>2024-08-14T05:51:12Z</time>
      </trkpt>
      <trkpt lat="44.87911" lon="6.0907">
        <ele>1561.8</ele>
        <time>2024-08-14T05:51:13Z</time>
      </trkpt>
      <trkpt lat="44.87911" lon="6.0907">
        <ele>1562.2</ele>
        <time>2024-08-14T05:51:14Z</time>
      </trkpt>
      <trkpt lat="44.87909" lon="6.09073">
        <ele>1562.6</ele>
        <time>2024-08-14T05:51:15Z</time>
      </trkpt>
      <trkpt lat="44.87909" lon="6.09073">
        <ele>1562.6</ele>
        <time>2024-08-14T05:51:16Z</time>
      </trkpt>
      <trkpt lat="44.87909" lon="6.09073">
        <ele>1562.8</ele>
        <time>2024-08-14T05:51:17Z</time>
      </trkpt>
      <trkpt lat="44.87909" lon="6.09075">
        <ele>1563.4</ele>
        <time>2024-08-14T05:51:18Z</time>
      </trkpt>
      <trkpt lat="44.87909" lon="6.09075">
        <ele>1563.8</ele>
        <time>2024-08-14T05:51:19Z</time>
      </trkpt>
      <trkpt lat="44.87909" lon="6.09075">
        <ele>1563.8</ele>
        <time>2024-08-14T05:51:20Z</time>
      </trkpt>
      <trkpt lat="44.87909" lon="6.09075">
        <ele>1564</ele>
        <time>2024-08-14T05:51:21Z</time>
      </trkpt>
      <trkpt lat="44.87907" lon="6.09078">
        <ele>1564.2</ele>
        <time>2024-08-14T05:51:22Z</time>
      </trkpt>
      <trkpt lat="44.87907" lon="6.09078">
        <ele>1564.4</ele>
        <time>2024-08-14T05:51:23Z</time>
      </trkpt>
      <trkpt lat="44.87907" lon="6.09078">
        <ele>1564.4</ele>
        <time>2024-08-14T05:51:24Z</time>
      </trkpt>
      <trkpt lat="44.87907" lon="6.09078">
        <ele>1564.8</ele>
        <time>2024-08-14T05:51:25Z</time>
      </trkpt>
      <trkpt lat="44.87907" lon="6.09078">
        <ele>1565.2</ele>
        <time>2024-08-14T05:51:26Z</time>
      </trkpt>
      <trkpt lat="44.87907" lon="6.09078">
        <ele>1565.2</ele>
        <time>2024-08-14T05:51:27Z</time>
      </trkpt>
      <trkpt lat="44.87907" lon="6.09078">
        <ele>1565.4</ele>
        <time>2024-08-14T05:51:28Z</time>
      </trkpt>
      <trkpt lat="44.87907" lon="6.09078">
        <ele>1565.6</ele>
        <time>2024-08-14T05:51:29Z</time>
      </trkpt>
      <trkpt lat="44.87909" lon="6.09078">
        <ele>1565.6</ele>
        <time>2024-08-14T05:51:30Z</time>
      </trkpt>
      <trkpt lat="44.87909" lon="6.09078">
        <ele>1565.8</ele>
        <time>2024-08-14T05:51:31Z</time>
      </trkpt>
      <trkpt lat="44.87909" lon="6.09078">
        <ele>1565.8</ele>
        <time>2024-08-14T05:51:32Z</time>
      </trkpt>
      <trkpt lat="44.87909" lon="6.09078">
        <ele>1566</ele>
        <time>2024-08-14T05:51:33Z</time>
      </trkpt>
      <trkpt lat="44.87909" lon="6.09078">
        <ele>1566.2</ele>
        <time>2024-08-14T05:51:34Z</time>
      </trkpt>
      <trkpt lat="44.87909" lon="6.09078">
        <ele>1566.4</ele>
        <time>2024-08-14T05:51:35Z</time>
      </trkpt>
      <trkpt lat="44.87909" lon="6.09078">
        <ele>1566.8</ele>
        <time>2024-08-14T05:51:36Z</time>
      </trkpt>
      <trkpt lat="44.87909" lon="6.09078">
        <ele>1567</ele>
        <time>2024-08-14T05:51:37Z</time>
      </trkpt>
      <trkpt lat="44.87911" lon="6.09078">
        <ele>1567.2</ele>
        <time>2024-08-14T05:51:38Z</time>
      </trkpt>
      <trkpt lat="44.87911" lon="6.09078">
        <ele>1567.6</ele>
        <time>2024-08-14T05:51:39Z</time>
      </trkpt>
      <trkpt lat="44.87911" lon="6.09078">
        <ele>1567.6</ele>
        <time>2024-08-14T05:51:40Z</time>
      </trkpt>
      <trkpt lat="44.87914" lon="6.09077">
        <ele>1567.6</ele>
        <time>2024-08-14T05:51:41Z</time>
      </trkpt>
      <trkpt lat="44.87914" lon="6.09077">
        <ele>1567.8</ele>
        <time>2024-08-14T05:51:42Z</time>
      </trkpt>
      <trkpt lat="44.87917" lon="6.09075">
        <ele>1567.8</ele>
        <time>2024-08-14T05:51:43Z</time>
      </trkpt>
      <trkpt lat="44.87917" lon="6.09075">
        <ele>1568</ele>
        <time>2024-08-14T05:51:44Z</time>
      </trkpt>
      <trkpt lat="44.87918" lon="6.09074">
        <ele>1568.2</ele>
        <time>2024-08-14T05:51:45Z</time>
      </trkpt>
      <trkpt lat="44.87918" lon="6.09074">
        <ele>1568.8</ele>
        <time>2024-08-14T05:51:46Z</time>
      </trkpt>
      <trkpt lat="44.87918" lon="6.09074">
        <ele>1568.8</ele>
        <time>2024-08-14T05:51:47Z</time>
      </trkpt>
      <trkpt lat="44.8792" lon="6.09073">
        <ele>1569.2</ele>
        <time>2024-08-14T05:51:48Z</time>
      </trkpt>
      <trkpt lat="44.8792" lon="6.09073">
        <ele>1569.4</ele>
        <time>2024-08-14T05:51:49Z</time>
      </trkpt>
      <trkpt lat="44.8792" lon="6.09073">
        <ele>1569.4</ele>
        <time>2024-08-14T05:51:50Z</time>
      </trkpt>
      <trkpt lat="44.87922" lon="6.09072">
        <ele>1569.4</ele>
        <time>2024-08-14T05:51:51Z</time>
      </trkpt>
      <trkpt lat="44.87922" lon="6.09072">
        <ele>1569.6</ele>
        <time>2024-08-14T05:51:52Z</time>
      </trkpt>
      <trkpt lat="44.87922" lon="6.09072">
        <ele>1569.8</ele>
        <time>2024-08-14T05:51:53Z</time>
      </trkpt>
      <trkpt lat="44.87924" lon="6.09072">
        <ele>1570.4</ele>
        <time>2024-08-14T05:51:54Z</time>
      </trkpt>
      <trkpt lat="44.87924" lon="6.09072">
        <ele>1570.4</ele>
        <time>2024-08-14T05:51:55Z</time>
      </trkpt>
      <trkpt lat="44.87924" lon="6.09072">
        <ele>1570.6</ele>
        <time>2024-08-14T05:51:56Z</time>
      </trkpt>
      <trkpt lat="44.87926" lon="6.09071">
        <ele>1571</ele>
        <time>2024-08-14T05:51:57Z</time>
      </trkpt>
      <trkpt lat="44.87926" lon="6.09071">
        <ele>1571</ele>
        <time>2024-08-14T05:51:58Z</time>
      </trkpt>
      <trkpt lat="44.87928" lon="6.09071">
        <ele>1571.2</ele>
        <time>2024-08-14T05:51:59Z</time>
      </trkpt>
      <trkpt lat="44.87928" lon="6.09071">
        <ele>1571.2</ele>
        <time>2024-08-14T05:52:00Z</time>
      </trkpt>
      <trkpt lat="44.8793" lon="6.09069">
        <ele>1571.4</ele>
        <time>2024-08-14T05:52:01Z</time>
      </trkpt>
      <trkpt lat="44.8793" lon="6.09069">
        <ele>1571.8</ele>
        <time>2024-08-14T05:52:02Z</time>
      </trkpt>
      <trkpt lat="44.87932" lon="6.09068">
        <ele>1572</ele>
        <time>2024-08-14T05:52:03Z</time>
      </trkpt>
      <trkpt lat="44.87932" lon="6.09068">
        <ele>1571.8</ele>
        <time>2024-08-14T05:52:04Z</time>
      </trkpt>
      <trkpt lat="44.87933" lon="6.09067">
        <ele>1571.8</ele>
        <time>2024-08-14T05:52:05Z</time>
      </trkpt>
      <trkpt lat="44.87933" lon="6.09067">
        <ele>1571.8</ele>
        <time>2024-08-14T05:52:06Z</time>
      </trkpt>
      <trkpt lat="44.87933" lon="6.09067">
        <ele>1572</ele>
        <time>2024-08-14T05:52:07Z</time>
      </trkpt>
      <trkpt lat="44.87935" lon="6.09064">
        <ele>1572.2</ele>
        <time>2024-08-14T05:52:08Z</time>
      </trkpt>
      <trkpt lat="44.87935" lon="6.09064">
        <ele>1572.2</ele>
        <time>2024-08-14T05:52:09Z</time>
      </trkpt>
      <trkpt lat="44.87935" lon="6.09064">
        <ele>1572.6</ele>
        <time>2024-08-14T05:52:10Z</time>
      </trkpt>
      <trkpt lat="44.87937" lon="6.09062">
        <ele>1572.8</ele>
        <time>2024-08-14T05:52:11Z</time>
      </trkpt>
      <trkpt lat="44.87937" lon="6.09062">
        <ele>1573</ele>
        <time>2024-08-14T05:52:12Z</time>
      </trkpt>
      <trkpt lat="44.87939" lon="6.09061">
        <ele>1573</ele>
        <time>2024-08-14T05:52:13Z</time>
      </trkpt>
      <trkpt lat="44.87939" lon="6.09061">
        <ele>1573.2</ele>
        <time>2024-08-14T05:52:14Z</time>
      </trkpt>
      <trkpt lat="44.87941" lon="6.0906">
        <ele>1573.2</ele>
        <time>2024-08-14T05:52:15Z</time>
      </trkpt>
      <trkpt lat="44.87941" lon="6.0906">
        <ele>1573.2</ele>
        <time>2024-08-14T05:52:16Z</time>
      </trkpt>
      <trkpt lat="44.87943" lon="6.09058">
        <ele>1573.4</ele>
        <time>2024-08-14T05:52:17Z</time>
      </trkpt>
      <trkpt lat="44.87943" lon="6.09058">
        <ele>1573.4</ele>
        <time>2024-08-14T05:52:18Z</time>
      </trkpt>
      <trkpt lat="44.87945" lon="6.09057">
        <ele>1573.6</ele>
        <time>2024-08-14T05:52:19Z</time>
      </trkpt>
      <trkpt lat="44.87945" lon="6.09057">
        <ele>1573.6</ele>
        <time>2024-08-14T05:52:20Z</time>
      </trkpt>
      <trkpt lat="44.87947" lon="6.09055">
        <ele>1573.4</ele>
        <time>2024-08-14T05:52:21Z</time>
      </trkpt>
      <trkpt lat="44.87947" lon="6.09055">
        <ele>1573.2</ele>
        <time>2024-08-14T05:52:22Z</time>
      </trkpt>
      <trkpt lat="44.87947" lon="6.09055">
        <ele>1573.2</ele>
        <time>2024-08-14T05:52:23Z</time>
      </trkpt>
      <trkpt lat="44.87949" lon="6.09054">
        <ele>1573.4</ele>
        <time>2024-08-14T05:52:24Z</time>
      </trkpt>
      <trkpt lat="44.87949" lon="6.09054">
        <ele>1573.4</ele>
        <time>2024-08-14T05:52:25Z</time>
      </trkpt>
      <trkpt lat="44.87949" lon="6.09054">
        <ele>1573.4</ele>
        <time>2024-08-14T05:52:26Z</time>
      </trkpt>
      <trkpt lat="44.8795" lon="6.09051">
        <ele>1573.2</ele>
        <time>2024-08-14T05:52:27Z</time>
      </trkpt>
      <trkpt lat="44.8795" lon="6.09051">
        <ele>1573.2</ele>
        <time>2024-08-14T05:52:28Z</time>
      </trkpt>
      <trkpt lat="44.87951" lon="6.09049">
        <ele>1573</ele>
        <time>2024-08-14T05:52:29Z</time>
      </trkpt>
      <trkpt lat="44.87951" lon="6.09049">
        <ele>1572.4</ele>
        <time>2024-08-14T05:52:30Z</time>
      </trkpt>
      <trkpt lat="44.87951" lon="6.09049">
        <ele>1572.4</ele>
        <time>2024-08-14T05:52:31Z</time>
      </trkpt>
      <trkpt lat="44.87953" lon="6.09046">
        <ele>1572.8</ele>
        <time>2024-08-14T05:52:32Z</time>
      </trkpt>
      <trkpt lat="44.87953" lon="6.09046">
        <ele>1573</ele>
        <time>2024-08-14T05:52:33Z</time>
      </trkpt>
      <trkpt lat="44.87953" lon="6.09046">
        <ele>1573</ele>
        <time>2024-08-14T05:52:34Z</time>
      </trkpt>
      <trkpt lat="44.87953" lon="6.09046">
        <ele>1573.2</ele>
        <time>2024-08-14T05:52:35Z</time>
      </trkpt>
      <trkpt lat="44.87954" lon="6.09043">
        <ele>1573.8</ele>
        <time>2024-08-14T05:52:36Z</time>
      </trkpt>
      <trkpt lat="44.87954" lon="6.09043">
        <ele>1574</ele>
        <time>2024-08-14T05:52:37Z</time>
      </trkpt>
      <trkpt lat="44.87954" lon="6.09043">
        <ele>1574</ele>
        <time>2024-08-14T05:52:38Z</time>
      </trkpt>
      <trkpt lat="44.87954" lon="6.09043">
        <ele>1574</ele>
        <time>2024-08-14T05:52:39Z</time>
      </trkpt>
      <trkpt lat="44.87956" lon="6.09041">
        <ele>1574.6</ele>
        <time>2024-08-14T05:52:40Z</time>
      </trkpt>
      <trkpt lat="44.87956" lon="6.09041">
        <ele>1574.8</ele>
        <time>2024-08-14T05:52:41Z</time>
      </trkpt>
      <trkpt lat="44.87957" lon="6.09039">
        <ele>1574.8</ele>
        <time>2024-08-14T05:52:42Z</time>
      </trkpt>
      <trkpt lat="44.87957" lon="6.09039">
        <ele>1574.8</ele>
        <time>2024-08-14T05:52:43Z</time>
      </trkpt>
      <trkpt lat="44.87957" lon="6.09039">
        <ele>1575</ele>
        <time>2024-08-14T05:52:44Z</time>
      </trkpt>
      <trkpt lat="44.87959" lon="6.09037">
        <ele>1575.4</ele>
        <time>2024-08-14T05:52:45Z</time>
      </trkpt>
      <trkpt lat="44.87959" lon="6.09037">
        <ele>1575.4</ele>
        <time>2024-08-14T05:52:46Z</time>
      </trkpt>
      <trkpt lat="44.87959" lon="6.09037">
        <ele>1575.4</ele>
        <time>2024-08-14T05:52:47Z</time>
      </trkpt>
      <trkpt lat="44.87959" lon="6.09037">
        <ele>1575.6</ele>
        <time>2024-08-14T05:52:48Z</time>
      </trkpt>
      <trkpt lat="44.87959" lon="6.09037">
        <ele>1575.8</ele>
        <time>2024-08-14T05:52:49Z</time>
      </trkpt>
      <trkpt lat="44.87959" lon="6.09037">
        <ele>1575.8</ele>
        <time>2024-08-14T05:52:50Z</time>
      </trkpt>
      <trkpt lat="44.87959" lon="6.09037">
        <ele>1575.8</ele>
        <time>2024-08-14T05:52:51Z</time>
      </trkpt>
      <trkpt lat="44.87959" lon="6.09037">
        <ele>1576</ele>
        <time>2024-08-14T05:52:52Z</time>
      </trkpt>
      <trkpt lat="44.87959" lon="6.09037">
        <ele>1576</ele>
        <time>2024-08-14T05:52:53Z</time>
      </trkpt>
      <trkpt lat="44.87961" lon="6.09034">
        <ele>1576</ele>
        <time>2024-08-14T05:52:54Z</time>
      </trkpt>
      <trkpt lat="44.87961" lon="6.09034">
        <ele>1576</ele>
        <time>2024-08-14T05:52:55Z</time>
      </trkpt>
      <trkpt lat="44.87963" lon="6.09033">
        <ele>1576</ele>
        <time>2024-08-14T05:52:56Z</time>
      </trkpt>
      <trkpt lat="44.87963" lon="6.09033">
        <ele>1576.4</ele>
        <time>2024-08-14T05:52:57Z</time>
      </trkpt>
      <trkpt lat="44.87965" lon="6.09031">
        <ele>1576.6</ele>
        <time>2024-08-14T05:52:58Z</time>
      </trkpt>
      <trkpt lat="44.87965" lon="6.09031">
        <ele>1576.6</ele>
        <time>2024-08-14T05:52:59Z</time>
      </trkpt>
      <trkpt lat="44.87967" lon="6.09031">
        <ele>1577</ele>
        <time>2024-08-14T05:53:00Z</time>
      </trkpt>
      <trkpt lat="44.87967" lon="6.09031">
        <ele>1577.2</ele>
        <time>2024-08-14T05:53:01Z</time>
      </trkpt>
      <trkpt lat="44.87967" lon="6.09031">
        <ele>1577.6</ele>
        <time>2024-08-14T05:53:02Z</time>
      </trkpt>
      <trkpt lat="44.8797" lon="6.09029">
        <ele>1577.6</ele>
        <time>2024-08-14T05:53:03Z</time>
      </trkpt>
      <trkpt lat="44.8797" lon="6.09029">
        <ele>1577.8</ele>
        <time>2024-08-14T05:53:04Z</time>
      </trkpt>
      <trkpt lat="44.8797" lon="6.09029">
        <ele>1578</ele>
        <time>2024-08-14T05:53:05Z</time>
      </trkpt>
      <trkpt lat="44.87972" lon="6.09028">
        <ele>1578.2</ele>
        <time>2024-08-14T05:53:06Z</time>
      </trkpt>
      <trkpt lat="44.87972" lon="6.09028">
        <ele>1578.6</ele>
        <time>2024-08-14T05:53:07Z</time>
      </trkpt>
      <trkpt lat="44.87972" lon="6.09028">
        <ele>1578.8</ele>
        <time>2024-08-14T05:53:08Z</time>
      </trkpt>
      <trkpt lat="44.87973" lon="6.09027">
        <ele>1579</ele>
        <time>2024-08-14T05:53:09Z</time>
      </trkpt>
      <trkpt lat="44.87973" lon="6.09027">
        <ele>1579.4</ele>
        <time>2024-08-14T05:53:10Z</time>
      </trkpt>
      <trkpt lat="44.87973" lon="6.09027">
        <ele>1579.8</ele>
        <time>2024-08-14T05:53:11Z</time>
      </trkpt>
      <trkpt lat="44.87973" lon="6.09027">
        <ele>1580</ele>
        <time>2024-08-14T05:53:12Z</time>
      </trkpt>
      <trkpt lat="44.87973" lon="6.09027">
        <ele>1580</ele>
        <time>2024-08-14T05:53:13Z</time>
      </trkpt>
      <trkpt lat="44.87973" lon="6.09027">
        <ele>1580.2</ele>
        <time>2024-08-14T05:53:14Z</time>
      </trkpt>
      <trkpt lat="44.87973" lon="6.09027">
        <ele>1580.6</ele>
        <time>2024-08-14T05:53:15Z</time>
      </trkpt>
      <trkpt lat="44.87973" lon="6.09027">
        <ele>1581</ele>
        <time>2024-08-14T05:53:16Z</time>
      </trkpt>
      <trkpt lat="44.87973" lon="6.09027">
        <ele>1581.2</ele>
        <time>2024-08-14T05:53:17Z</time>
      </trkpt>
      <trkpt lat="44.87974" lon="6.0903">
        <ele>1581.4</ele>
        <time>2024-08-14T05:53:18Z</time>
      </trkpt>
      <trkpt lat="44.87974" lon="6.0903">
        <ele>1581.4</ele>
        <time>2024-08-14T05:53:19Z</time>
      </trkpt>
      <trkpt lat="44.87974" lon="6.0903">
        <ele>1581.4</ele>
        <time>2024-08-14T05:53:20Z</time>
      </trkpt>
      <trkpt lat="44.87974" lon="6.0903">
        <ele>1581.2</ele>
        <time>2024-08-14T05:53:21Z</time>
      </trkpt>
      <trkpt lat="44.87974" lon="6.0903">
        <ele>1581.2</ele>
        <time>2024-08-14T05:53:22Z</time>
      </trkpt>
      <trkpt lat="44.87974" lon="6.0903">
        <ele>1581.2</ele>
        <time>2024-08-14T05:53:23Z</time>
      </trkpt>
      <trkpt lat="44.87974" lon="6.0903">
        <ele>1581</ele>
        <time>2024-08-14T05:53:24Z</time>
      </trkpt>
      <trkpt lat="44.87974" lon="6.0903">
        <ele>1581</ele>
        <time>2024-08-14T05:53:25Z</time>
      </trkpt>
      <trkpt lat="44.87974" lon="6.0903">
        <ele>1581</ele>
        <time>2024-08-14T05:53:26Z</time>
      </trkpt>
      <trkpt lat="44.87974" lon="6.0903">
        <ele>1580.8</ele>
        <time>2024-08-14T05:53:27Z</time>
      </trkpt>
      <trkpt lat="44.87974" lon="6.0903">
        <ele>1580.8</ele>
        <time>2024-08-14T05:53:28Z</time>
      </trkpt>
      <trkpt lat="44.87974" lon="6.0903">
        <ele>1581</ele>
        <time>2024-08-14T05:53:29Z</time>
      </trkpt>
      <trkpt lat="44.87974" lon="6.0903">
        <ele>1581</ele>
        <time>2024-08-14T05:53:30Z</time>
      </trkpt>
      <trkpt lat="44.87974" lon="6.0903">
        <ele>1581</ele>
        <time>2024-08-14T05:53:31Z</time>
      </trkpt>
      <trkpt lat="44.87974" lon="6.0903">
        <ele>1581</ele>
        <time>2024-08-14T05:53:32Z</time>
      </trkpt>
      <trkpt lat="44.87974" lon="6.0903">
        <ele>1580.8</ele>
        <time>2024-08-14T05:53:33Z</time>
      </trkpt>
      <trkpt lat="44.87974" lon="6.0903">
        <ele>1580.8</ele>
        <time>2024-08-14T05:53:34Z</time>
      </trkpt>
      <trkpt lat="44.87974" lon="6.0903">
        <ele>1580.8</ele>
        <time>2024-08-14T05:53:35Z</time>
      </trkpt>
      <trkpt lat="44.87974" lon="6.0903">
        <ele>1580.8</ele>
        <time>2024-08-14T05:53:36Z</time>
      </trkpt>
      <trkpt lat="44.87974" lon="6.0903">
        <ele>1580.8</ele>
        <time>2024-08-14T05:53:37Z</time>
      </trkpt>
      <trkpt lat="44.87974" lon="6.0903">
        <ele>1581</ele>
        <time>2024-08-14T05:53:38Z</time>
      </trkpt>
      <trkpt lat="44.87974" lon="6.0903">
        <ele>1581.2</ele>
        <time>2024-08-14T05:53:39Z</time>
      </trkpt>
      <trkpt lat="44.87974" lon="6.0903">
        <ele>1581.4</ele>
        <time>2024-08-14T05:53:40Z</time>
      </trkpt>
      <trkpt lat="44.87974" lon="6.0903">
        <ele>1581.2</ele>
        <time>2024-08-14T05:53:41Z</time>
      </trkpt>
      <trkpt lat="44.87974" lon="6.0903">
        <ele>1581.2</ele>
        <time>2024-08-14T05:53:42Z</time>
      </trkpt>
      <trkpt lat="44.87974" lon="6.0903">
        <ele>1581</ele>
        <time>2024-08-14T05:53:43Z</time>
      </trkpt>
      <trkpt lat="44.87974" lon="6.0903">
        <ele>1581</ele>
        <time>2024-08-14T05:53:44Z</time>
      </trkpt>
      <trkpt lat="44.87974" lon="6.0903">
        <ele>1581</ele>
        <time>2024-08-14T05:53:45Z</time>
      </trkpt>
      <trkpt lat="44.87974" lon="6.0903">
        <ele>1581.2</ele>
        <time>2024-08-14T05:53:46Z</time>
      </trkpt>
      <trkpt lat="44.87974" lon="6.0903">
        <ele>1581.6</ele>
        <time>2024-08-14T05:53:47Z</time>
      </trkpt>
      <trkpt lat="44.87974" lon="6.0903">
        <ele>1581.6</ele>
        <time>2024-08-14T05:53:48Z</time>
      </trkpt>
      <trkpt lat="44.87974" lon="6.0903">
        <ele>1582</ele>
        <time>2024-08-14T05:53:49Z</time>
      </trkpt>
      <trkpt lat="44.87974" lon="6.0903">
        <ele>1581.8</ele>
        <time>2024-08-14T05:53:50Z</time>
      </trkpt>
      <trkpt lat="44.87974" lon="6.0903">
        <ele>1581.8</ele>
        <time>2024-08-14T05:53:51Z</time>
      </trkpt>
      <trkpt lat="44.87974" lon="6.0903">
        <ele>1581.4</ele>
        <time>2024-08-14T05:53:52Z</time>
      </trkpt>
      <trkpt lat="44.87974" lon="6.0903">
        <ele>1581.4</ele>
        <time>2024-08-14T05:53:53Z</time>
      </trkpt>
      <trkpt lat="44.87974" lon="6.0903">
        <ele>1581.4</ele>
        <time>2024-08-14T05:53:54Z</time>
      </trkpt>
      <trkpt lat="44.87974" lon="6.0903">
        <ele>1581.4</ele>
        <time>2024-08-14T05:53:55Z</time>
      </trkpt>
      <trkpt lat="44.87974" lon="6.0903">
        <ele>1581.4</ele>
        <time>2024-08-14T05:53:56Z</time>
      </trkpt>
      <trkpt lat="44.87974" lon="6.0903">
        <ele>1581.4</ele>
        <time>2024-08-14T05:53:57Z</time>
      </trkpt>
      <trkpt lat="44.87974" lon="6.0903">
        <ele>1581.2</ele>
        <time>2024-08-14T05:53:58Z</time>
      </trkpt>
      <trkpt lat="44.87974" lon="6.0903">
        <ele>1581.2</ele>
        <time>2024-08-14T05:53:59Z</time>
      </trkpt>
      <trkpt lat="44.87974" lon="6.0903">
        <ele>1581.2</ele>
        <time>2024-08-14T05:54:00Z</time>
      </trkpt>
      <trkpt lat="44.87974" lon="6.0903">
        <ele>1581.4</ele>
        <time>2024-08-14T05:54:01Z</time>
      </trkpt>
      <trkpt lat="44.87974" lon="6.0903">
        <ele>1581.6</ele>
        <time>2024-08-14T05:54:02Z</time>
      </trkpt>
      <trkpt lat="44.87974" lon="6.0903">
        <ele>1581.6</ele>
        <time>2024-08-14T05:54:03Z</time>
      </trkpt>
      <trkpt lat="44.87974" lon="6.0903">
        <ele>1581.6</ele>
        <time>2024-08-14T05:54:04Z</time>
      </trkpt>
      <trkpt lat="44.87974" lon="6.0903">
        <ele>1581.6</ele>
        <time>2024-08-14T05:54:05Z</time>
      </trkpt>
      <trkpt lat="44.87974" lon="6.0903">
        <ele>1581.6</ele>
        <time>2024-08-14T05:54:06Z</time>
      </trkpt>
      <trkpt lat="44.87974" lon="6.0903">
        <ele>1581.6</ele>
        <time>2024-08-14T05:54:07Z</time>
      </trkpt>
      <trkpt lat="44.87974" lon="6.0903">
        <ele>1581.6</ele>
        <time>2024-08-14T05:54:08Z</time>
      </trkpt>
      <trkpt lat="44.87974" lon="6.0903">
        <ele>1581.6</ele>
        <time>2024-08-14T05:54:09Z</time>
      </trkpt>
      <trkpt lat="44.87974" lon="6.0903">
        <ele>1581.6</ele>
        <time>2024-08-14T05:54:10Z</time>
      </trkpt>
      <trkpt lat="44.87974" lon="6.0903">
        <ele>1581.6</ele>
        <time>2024-08-14T05:54:11Z</time>
      </trkpt>
      <trkpt lat="44.87974" lon="6.0903">
        <ele>1581.8</ele>
        <time>2024-08-14T05:54:12Z</time>
      </trkpt>
      <trkpt lat="44.87974" lon="6.0903">
        <ele>1581.8</ele>
        <time>2024-08-14T05:54:13Z</time>
      </trkpt>
      <trkpt lat="44.87974" lon="6.0903">
        <ele>1581.8</ele>
        <time>2024-08-14T05:54:14Z</time>
      </trkpt>
      <trkpt lat="44.87974" lon="6.0903">
        <ele>1581.8</ele>
        <time>2024-08-14T05:54:15Z</time>
      </trkpt>
      <trkpt lat="44.87974" lon="6.0903">
        <ele>1581.6</ele>
        <time>2024-08-14T05:54:16Z</time>
      </trkpt>
      <trkpt lat="44.87974" lon="6.0903">
        <ele>1581.6</ele>
        <time>2024-08-14T05:54:17Z</time>
      </trkpt>
      <trkpt lat="44.87974" lon="6.0903">
        <ele>1581.6</ele>
        <time>2024-08-14T05:54:18Z</time>
      </trkpt>
      <trkpt lat="44.87974" lon="6.0903">
        <ele>1581.4</ele>
        <time>2024-08-14T05:54:19Z</time>
      </trkpt>
      <trkpt lat="44.87974" lon="6.0903">
        <ele>1581.4</ele>
        <time>2024-08-14T05:54:20Z</time>
      </trkpt>
      <trkpt lat="44.87974" lon="6.0903">
        <ele>1581.8</ele>
        <time>2024-08-14T05:54:21Z</time>
      </trkpt>
      <trkpt lat="44.87974" lon="6.0903">
        <ele>1581.8</ele>
        <time>2024-08-14T05:54:22Z</time>
      </trkpt>
      <trkpt lat="44.87974" lon="6.0903">
        <ele>1581.6</ele>
        <time>2024-08-14T05:54:23Z</time>
      </trkpt>
      <trkpt lat="44.87974" lon="6.0903">
        <ele>1581.6</ele>
        <time>2024-08-14T05:54:24Z</time>
      </trkpt>
      <trkpt lat="44.87974" lon="6.0903">
        <ele>1582</ele>
        <time>2024-08-14T05:54:25Z</time>
      </trkpt>
      <trkpt lat="44.87974" lon="6.0903">
        <ele>1582</ele>
        <time>2024-08-14T05:54:26Z</time>
      </trkpt>
      <trkpt lat="44.87974" lon="6.0903">
        <ele>1581.8</ele>
        <time>2024-08-14T05:54:27Z</time>
      </trkpt>
      <trkpt lat="44.87974" lon="6.0903">
        <ele>1581.6</ele>
        <time>2024-08-14T05:54:28Z</time>
      </trkpt>
      <trkpt lat="44.87974" lon="6.0903">
        <ele>1581.6</ele>
        <time>2024-08-14T05:54:29Z</time>
      </trkpt>
      <trkpt lat="44.87974" lon="6.0903">
        <ele>1581.8</ele>
        <time>2024-08-14T05:54:30Z</time>
      </trkpt>
      <trkpt lat="44.87974" lon="6.0903">
        <ele>1581.8</ele>
        <time>2024-08-14T05:54:31Z</time>
      </trkpt>
      <trkpt lat="44.87974" lon="6.0903">
        <ele>1581.8</ele>
        <time>2024-08-14T05:54:32Z</time>
      </trkpt>
      <trkpt lat="44.87974" lon="6.0903">
        <ele>1581.8</ele>
        <time>2024-08-14T05:54:33Z</time>
      </trkpt>
      <trkpt lat="44.87974" lon="6.0903">
        <ele>1581.8</ele>
        <time>2024-08-14T05:54:34Z</time>
      </trkpt>
      <trkpt lat="44.87974" lon="6.0903">
        <ele>1581.8</ele>
        <time>2024-08-14T05:54:35Z</time>
      </trkpt>
      <trkpt lat="44.87974" lon="6.0903">
        <ele>1581.8</ele>
        <time>2024-08-14T05:54:36Z</time>
      </trkpt>
      <trkpt lat="44.87974" lon="6.0903">
        <ele>1581.6</ele>
        <time>2024-08-14T05:54:37Z</time>
      </trkpt>
      <trkpt lat="44.87974" lon="6.0903">
        <ele>1581.6</ele>
        <time>2024-08-14T05:54:38Z</time>
      </trkpt>
      <trkpt lat="44.87974" lon="6.0903">
        <ele>1581.6</ele>
        <time>2024-08-14T05:54:39Z</time>
      </trkpt>
      <trkpt lat="44.87974" lon="6.0903">
        <ele>1581.6</ele>
        <time>2024-08-14T05:54:40Z</time>
      </trkpt>
      <trkpt lat="44.87974" lon="6.0903">
        <ele>1581.6</ele>
        <time>2024-08-14T05:54:41Z</time>
      </trkpt>
      <trkpt lat="44.87974" lon="6.0903">
        <ele>1581.8</ele>
        <time>2024-08-14T05:54:42Z</time>
      </trkpt>
      <trkpt lat="44.87974" lon="6.0903">
        <ele>1582</ele>
        <time>2024-08-14T05:54:43Z</time>
      </trkpt>
      <trkpt lat="44.87974" lon="6.0903">
        <ele>1582</ele>
        <time>2024-08-14T05:54:44Z</time>
      </trkpt>
      <trkpt lat="44.87974" lon="6.0903">
        <ele>1582</ele>
        <time>2024-08-14T05:54:45Z</time>
      </trkpt>
      <trkpt lat="44.87974" lon="6.0903">
        <ele>1582</ele>
        <time>2024-08-14T05:54:46Z</time>
      </trkpt>
      <trkpt lat="44.87974" lon="6.0903">
        <ele>1582</ele>
        <time>2024-08-14T05:54:47Z</time>
      </trkpt>
      <trkpt lat="44.87974" lon="6.0903">
        <ele>1581.8</ele>
        <time>2024-08-14T05:54:48Z</time>
      </trkpt>
      <trkpt lat="44.87974" lon="6.0903">
        <ele>1581.8</ele>
        <time>2024-08-14T05:54:49Z</time>
      </trkpt>
      <trkpt lat="44.87974" lon="6.0903">
        <ele>1581.8</ele>
        <time>2024-08-14T05:54:50Z</time>
      </trkpt>
      <trkpt lat="44.87974" lon="6.0903">
        <ele>1582</ele>
        <time>2024-08-14T05:54:51Z</time>
      </trkpt>
      <trkpt lat="44.87974" lon="6.0903">
        <ele>1582</ele>
        <time>2024-08-14T05:54:52Z</time>
      </trkpt>
      <trkpt lat="44.87974" lon="6.0903">
        <ele>1582</ele>
        <time>2024-08-14T05:54:53Z</time>
      </trkpt>
      <trkpt lat="44.87974" lon="6.0903">
        <ele>1581.8</ele>
        <time>2024-08-14T05:54:54Z</time>
      </trkpt>
      <trkpt lat="44.87974" lon="6.0903">
        <ele>1581.8</ele>
        <time>2024-08-14T05:54:55Z</time>
      </trkpt>
      <trkpt lat="44.87974" lon="6.0903">
        <ele>1581.8</ele>
        <time>2024-08-14T05:54:56Z</time>
      </trkpt>
      <trkpt lat="44.87974" lon="6.0903">
        <ele>1581.8</ele>
        <time>2024-08-14T05:54:57Z</time>
      </trkpt>
      <trkpt lat="44.87974" lon="6.0903">
        <ele>1581.8</ele>
        <time>2024-08-14T05:54:58Z</time>
      </trkpt>
      <trkpt lat="44.87974" lon="6.0903">
        <ele>1582</ele>
        <time>2024-08-14T05:54:59Z</time>
      </trkpt>
      <trkpt lat="44.87974" lon="6.0903">
        <ele>1582</ele>
        <time>2024-08-14T05:55:00Z</time>
      </trkpt>
      <trkpt lat="44.87974" lon="6.0903">
        <ele>1582</ele>
        <time>2024-08-14T05:55:01Z</time>
      </trkpt>
      <trkpt lat="44.87974" lon="6.0903">
        <ele>1582.2</ele>
        <time>2024-08-14T05:55:02Z</time>
      </trkpt>
      <trkpt lat="44.87973" lon="6.09033">
        <ele>1582.2</ele>
        <time>2024-08-14T05:55:03Z</time>
      </trkpt>
      <trkpt lat="44.87973" lon="6.09033">
        <ele>1582.2</ele>
        <time>2024-08-14T05:55:04Z</time>
      </trkpt>
      <trkpt lat="44.87971" lon="6.09037">
        <ele>1582.2</ele>
        <time>2024-08-14T05:55:05Z</time>
      </trkpt>
      <trkpt lat="44.87971" lon="6.09037">
        <ele>1582.2</ele>
        <time>2024-08-14T05:55:06Z</time>
      </trkpt>
      <trkpt lat="44.8797" lon="6.09039">
        <ele>1582.2</ele>
        <time>2024-08-14T05:55:07Z</time>
      </trkpt>
      <trkpt lat="44.8797" lon="6.09039">
        <ele>1582.4</ele>
        <time>2024-08-14T05:55:08Z</time>
      </trkpt>
      <trkpt lat="44.87968" lon="6.09042">
        <ele>1582.8</ele>
        <time>2024-08-14T05:55:09Z</time>
      </trkpt>
      <trkpt lat="44.87968" lon="6.09042">
        <ele>1583.2</ele>
        <time>2024-08-14T05:55:10Z</time>
      </trkpt>
      <trkpt lat="44.87968" lon="6.09042">
        <ele>1583.2</ele>
        <time>2024-08-14T05:55:11Z</time>
      </trkpt>
      <trkpt lat="44.87968" lon="6.09042">
        <ele>1583.4</ele>
        <time>2024-08-14T05:55:12Z</time>
      </trkpt>
      <trkpt lat="44.87969" lon="6.09044">
        <ele>1583.6</ele>
        <time>2024-08-14T05:55:13Z</time>
      </trkpt>
      <trkpt lat="44.87969" lon="6.09044">
        <ele>1583.6</ele>
        <time>2024-08-14T05:55:14Z</time>
      </trkpt>
      <trkpt lat="44.87969" lon="6.09044">
        <ele>1583.6</ele>
        <time>2024-08-14T05:55:15Z</time>
      </trkpt>
      <trkpt lat="44.87971" lon="6.09043">
        <ele>1584</ele>
        <time>2024-08-14T05:55:16Z</time>
      </trkpt>
      <trkpt lat="44.87971" lon="6.09043">
        <ele>1584.2</ele>
        <time>2024-08-14T05:55:17Z</time>
      </trkpt>
      <trkpt lat="44.87971" lon="6.09043">
        <ele>1584.2</ele>
        <time>2024-08-14T05:55:18Z</time>
      </trkpt>
      <trkpt lat="44.87973" lon="6.09042">
        <ele>1584.4</ele>
        <time>2024-08-14T05:55:19Z</time>
      </trkpt>
      <trkpt lat="44.87973" lon="6.09042">
        <ele>1585</ele>
        <time>2024-08-14T05:55:20Z</time>
      </trkpt>
      <trkpt lat="44.87973" lon="6.09042">
        <ele>1585.2</ele>
        <time>2024-08-14T05:55:21Z</time>
      </trkpt>
      <trkpt lat="44.87974" lon="6.09039">
        <ele>1585.2</ele>
        <time>2024-08-14T05:55:22Z</time>
      </trkpt>
      <trkpt lat="44.87974" lon="6.09039">
        <ele>1585.4</ele>
        <time>2024-08-14T05:55:23Z</time>
      </trkpt>
      <trkpt lat="44.87976" lon="6.09037">
        <ele>1585.6</ele>
        <time>2024-08-14T05:55:24Z</time>
      </trkpt>
      <trkpt lat="44.87976" lon="6.09037">
        <ele>1585.8</ele>
        <time>2024-08-14T05:55:25Z</time>
      </trkpt>
      <trkpt lat="44.87978" lon="6.09035">
        <ele>1586</ele>
        <time>2024-08-14T05:55:26Z</time>
      </trkpt>
      <trkpt lat="44.87978" lon="6.09035">
        <ele>1586</ele>
        <time>2024-08-14T05:55:27Z</time>
      </trkpt>
      <trkpt lat="44.8798" lon="6.09034">
        <ele>1586.6</ele>
        <time>2024-08-14T05:55:28Z</time>
      </trkpt>
      <trkpt lat="44.8798" lon="6.09034">
        <ele>1586.8</ele>
        <time>2024-08-14T05:55:29Z</time>
      </trkpt>
      <trkpt lat="44.87981" lon="6.09032">
        <ele>1587</ele>
        <time>2024-08-14T05:55:30Z</time>
      </trkpt>
      <trkpt lat="44.87981" lon="6.09032">
        <ele>1587</ele>
        <time>2024-08-14T05:55:31Z</time>
      </trkpt>
      <trkpt lat="44.87981" lon="6.09032">
        <ele>1587</ele>
        <time>2024-08-14T05:55:32Z</time>
      </trkpt>
      <trkpt lat="44.87983" lon="6.0903">
        <ele>1587</ele>
        <time>2024-08-14T05:55:33Z</time>
      </trkpt>
      <trkpt lat="44.87983" lon="6.0903">
        <ele>1587.2</ele>
        <time>2024-08-14T05:55:34Z</time>
      </trkpt>
      <trkpt lat="44.87985" lon="6.09028">
        <ele>1587.2</ele>
        <time>2024-08-14T05:55:35Z</time>
      </trkpt>
      <trkpt lat="44.87985" lon="6.09028">
        <ele>1587.6</ele>
        <time>2024-08-14T05:55:36Z</time>
      </trkpt>
      <trkpt lat="44.87985" lon="6.09028">
        <ele>1587.8</ele>
        <time>2024-08-14T05:55:37Z</time>
      </trkpt>
      <trkpt lat="44.87987" lon="6.09027">
        <ele>1588</ele>
        <time>2024-08-14T05:55:38Z</time>
      </trkpt>
      <trkpt lat="44.87987" lon="6.09027">
        <ele>1588.2</ele>
        <time>2024-08-14T05:55:39Z</time>
      </trkpt>
      <trkpt lat="44.87987" lon="6.09027">
        <ele>1588.4</ele>
        <time>2024-08-14T05:55:40Z</time>
      </trkpt>
      <trkpt lat="44.87989" lon="6.09026">
        <ele>1588.6</ele>
        <time>2024-08-14T05:55:41Z</time>
      </trkpt>
      <trkpt lat="44.87989" lon="6.09026">
        <ele>1588.6</ele>
        <time>2024-08-14T05:55:42Z</time>
      </trkpt>
      <trkpt lat="44.87991" lon="6.09025">
        <ele>1588.8</ele>
        <time>2024-08-14T05:55:43Z</time>
      </trkpt>
      <trkpt lat="44.87991" lon="6.09025">
        <ele>1589.4</ele>
        <time>2024-08-14T05:55:44Z</time>
      </trkpt>
      <trkpt lat="44.87994" lon="6.09024">
        <ele>1589.4</ele>
        <time>2024-08-14T05:55:45Z</time>
      </trkpt>
      <trkpt lat="44.87994" lon="6.09024">
        <ele>1589.4</ele>
        <time>2024-08-14T05:55:46Z</time>
      </trkpt>
      <trkpt lat="44.87995" lon="6.09023">
        <ele>1589.6</ele>
        <time>2024-08-14T05:55:47Z</time>
      </trkpt>
      <trkpt lat="44.87995" lon="6.09023">
        <ele>1590</ele>
        <time>2024-08-14T05:55:48Z</time>
      </trkpt>
      <trkpt lat="44.87997" lon="6.09022">
        <ele>1590</ele>
        <time>2024-08-14T05:55:49Z</time>
      </trkpt>
      <trkpt lat="44.87997" lon="6.09022">
        <ele>1590</ele>
        <time>2024-08-14T05:55:50Z</time>
      </trkpt>
      <trkpt lat="44.87999" lon="6.09021">
        <ele>1590.2</ele>
        <time>2024-08-14T05:55:51Z</time>
      </trkpt>
      <trkpt lat="44.87999" lon="6.09021">
        <ele>1590.6</ele>
        <time>2024-08-14T05:55:52Z</time>
      </trkpt>
      <trkpt lat="44.88001" lon="6.0902">
        <ele>1590.8</ele>
        <time>2024-08-14T05:55:53Z</time>
      </trkpt>
      <trkpt lat="44.88001" lon="6.0902">
        <ele>1590.8</ele>
        <time>2024-08-14T05:55:54Z</time>
      </trkpt>
      <trkpt lat="44.88003" lon="6.09019">
        <ele>1590.8</ele>
        <time>2024-08-14T05:55:55Z</time>
      </trkpt>
      <trkpt lat="44.88003" lon="6.09019">
        <ele>1591.2</ele>
        <time>2024-08-14T05:55:56Z</time>
      </trkpt>
      <trkpt lat="44.88005" lon="6.09017">
        <ele>1591.2</ele>
        <time>2024-08-14T05:55:57Z</time>
      </trkpt>
      <trkpt lat="44.88005" lon="6.09017">
        <ele>1591.4</ele>
        <time>2024-08-14T05:55:58Z</time>
      </trkpt>
      <trkpt lat="44.88007" lon="6.09016">
        <ele>1591.4</ele>
        <time>2024-08-14T05:55:59Z</time>
      </trkpt>
      <trkpt lat="44.88007" lon="6.09016">
        <ele>1591.4</ele>
        <time>2024-08-14T05:56:00Z</time>
      </trkpt>
      <trkpt lat="44.88009" lon="6.09014">
        <ele>1591.4</ele>
        <time>2024-08-14T05:56:01Z</time>
      </trkpt>
      <trkpt lat="44.88009" lon="6.09014">
        <ele>1592</ele>
        <time>2024-08-14T05:56:02Z</time>
      </trkpt>
      <trkpt lat="44.88011" lon="6.09013">
        <ele>1592</ele>
        <time>2024-08-14T05:56:03Z</time>
      </trkpt>
      <trkpt lat="44.88011" lon="6.09013">
        <ele>1592</ele>
        <time>2024-08-14T05:56:04Z</time>
      </trkpt>
      <trkpt lat="44.88013" lon="6.09012">
        <ele>1592</ele>
        <time>2024-08-14T05:56:05Z</time>
      </trkpt>
      <trkpt lat="44.88013" lon="6.09012">
        <ele>1592.2</ele>
        <time>2024-08-14T05:56:06Z</time>
      </trkpt>
      <trkpt lat="44.88015" lon="6.09011">
        <ele>1592.2</ele>
        <time>2024-08-14T05:56:07Z</time>
      </trkpt>
      <trkpt lat="44.88015" lon="6.09011">
        <ele>1592.6</ele>
        <time>2024-08-14T05:56:08Z</time>
      </trkpt>
      <trkpt lat="44.88017" lon="6.0901">
        <ele>1592.6</ele>
        <time>2024-08-14T05:56:09Z</time>
      </trkpt>
      <trkpt lat="44.88017" lon="6.0901">
        <ele>1592.6</ele>
        <time>2024-08-14T05:56:10Z</time>
      </trkpt>
      <trkpt lat="44.88019" lon="6.09008">
        <ele>1592.8</ele>
        <time>2024-08-14T05:56:11Z</time>
      </trkpt>
      <trkpt lat="44.88019" lon="6.09008">
        <ele>1593.2</ele>
        <time>2024-08-14T05:56:12Z</time>
      </trkpt>
      <trkpt lat="44.88019" lon="6.09008">
        <ele>1593.2</ele>
        <time>2024-08-14T05:56:13Z</time>
      </trkpt>
      <trkpt lat="44.88021" lon="6.09007">
        <ele>1593.4</ele>
        <time>2024-08-14T05:56:14Z</time>
      </trkpt>
      <trkpt lat="44.88021" lon="6.09007">
        <ele>1593.6</ele>
        <time>2024-08-14T05:56:15Z</time>
      </trkpt>
      <trkpt lat="44.88021" lon="6.09007">
        <ele>1593.6</ele>
        <time>2024-08-14T05:56:16Z</time>
      </trkpt>
      <trkpt lat="44.88022" lon="6.09005">
        <ele>1594.2</ele>
        <time>2024-08-14T05:56:17Z</time>
      </trkpt>
      <trkpt lat="44.88022" lon="6.09005">
        <ele>1594.4</ele>
        <time>2024-08-14T05:56:18Z</time>
      </trkpt>
      <trkpt lat="44.88023" lon="6.09003">
        <ele>1594.6</ele>
        <time>2024-08-14T05:56:19Z</time>
      </trkpt>
      <trkpt lat="44.88023" lon="6.09003">
        <ele>1595</ele>
        <time>2024-08-14T05:56:20Z</time>
      </trkpt>
      <trkpt lat="44.88025" lon="6.09002">
        <ele>1595</ele>
        <time>2024-08-14T05:56:21Z</time>
      </trkpt>
      <trkpt lat="44.88025" lon="6.09002">
        <ele>1595.2</ele>
        <time>2024-08-14T05:56:22Z</time>
      </trkpt>
      <trkpt lat="44.88025" lon="6.09002">
        <ele>1595.2</ele>
        <time>2024-08-14T05:56:23Z</time>
      </trkpt>
      <trkpt lat="44.88028" lon="6.09">
        <ele>1595.4</ele>
        <time>2024-08-14T05:56:24Z</time>
      </trkpt>
      <trkpt lat="44.88028" lon="6.09">
        <ele>1595.6</ele>
        <time>2024-08-14T05:56:25Z</time>
      </trkpt>
      <trkpt lat="44.88029" lon="6.08999">
        <ele>1595.8</ele>
        <time>2024-08-14T05:56:26Z</time>
      </trkpt>
      <trkpt lat="44.88029" lon="6.08999">
        <ele>1595.8</ele>
        <time>2024-08-14T05:56:27Z</time>
      </trkpt>
      <trkpt lat="44.88031" lon="6.08997">
        <ele>1595.8</ele>
        <time>2024-08-14T05:56:28Z</time>
      </trkpt>
      <trkpt lat="44.88031" lon="6.08997">
        <ele>1596</ele>
        <time>2024-08-14T05:56:29Z</time>
      </trkpt>
      <trkpt lat="44.88031" lon="6.08997">
        <ele>1596.6</ele>
        <time>2024-08-14T05:56:30Z</time>
      </trkpt>
      <trkpt lat="44.88033" lon="6.08994">
        <ele>1596.6</ele>
        <time>2024-08-14T05:56:31Z</time>
      </trkpt>
      <trkpt lat="44.88033" lon="6.08994">
        <ele>1596.6</ele>
        <time>2024-08-14T05:56:32Z</time>
      </trkpt>
      <trkpt lat="44.88035" lon="6.08992">
        <ele>1596.6</ele>
        <time>2024-08-14T05:56:33Z</time>
      </trkpt>
      <trkpt lat="44.88035" lon="6.08992">
        <ele>1596.6</ele>
        <time>2024-08-14T05:56:34Z</time>
      </trkpt>
      <trkpt lat="44.88035" lon="6.08992">
        <ele>1596.6</ele>
        <time>2024-08-14T05:56:35Z</time>
      </trkpt>
      <trkpt lat="44.88037" lon="6.08991">
        <ele>1596.6</ele>
        <time>2024-08-14T05:56:36Z</time>
      </trkpt>
      <trkpt lat="44.88037" lon="6.08991">
        <ele>1597</ele>
        <time>2024-08-14T05:56:37Z</time>
      </trkpt>
      <trkpt lat="44.88037" lon="6.08991">
        <ele>1597.2</ele>
        <time>2024-08-14T05:56:38Z</time>
      </trkpt>
      <trkpt lat="44.88039" lon="6.0899">
        <ele>1597.4</ele>
        <time>2024-08-14T05:56:39Z</time>
      </trkpt>
      <trkpt lat="44.88039" lon="6.0899">
        <ele>1597.6</ele>
        <time>2024-08-14T05:56:40Z</time>
      </trkpt>
      <trkpt lat="44.88039" lon="6.0899">
        <ele>1597.6</ele>
        <time>2024-08-14T05:56:41Z</time>
      </trkpt>
      <trkpt lat="44.88041" lon="6.08988">
        <ele>1597.8</ele>
        <time>2024-08-14T05:56:42Z</time>
      </trkpt>
      <trkpt lat="44.88041" lon="6.08988">
        <ele>1598.2</ele>
        <time>2024-08-14T05:56:43Z</time>
      </trkpt>
      <trkpt lat="44.88041" lon="6.08988">
        <ele>1598.4</ele>
        <time>2024-08-14T05:56:44Z</time>
      </trkpt>
      <trkpt lat="44.88044" lon="6.08987">
        <ele>1598.6</ele>
        <time>2024-08-14T05:56:45Z</time>
      </trkpt>
      <trkpt lat="44.88044" lon="6.08987">
        <ele>1598.6</ele>
        <time>2024-08-14T05:56:46Z</time>
      </trkpt>
      <trkpt lat="44.88044" lon="6.08987">
        <ele>1599</ele>
        <time>2024-08-14T05:56:47Z</time>
      </trkpt>
      <trkpt lat="44.88045" lon="6.08987">
        <ele>1599.2</ele>
        <time>2024-08-14T05:56:48Z</time>
      </trkpt>
      <trkpt lat="44.88045" lon="6.08987">
        <ele>1599.4</ele>
        <time>2024-08-14T05:56:49Z</time>
      </trkpt>
      <trkpt lat="44.88047" lon="6.08987">
        <ele>1599.6</ele>
        <time>2024-08-14T05:56:50Z</time>
      </trkpt>
      <trkpt lat="44.88047" lon="6.08987">
        <ele>1599.8</ele>
        <time>2024-08-14T05:56:51Z</time>
      </trkpt>
      <trkpt lat="44.88047" lon="6.08987">
        <ele>1600</ele>
        <time>2024-08-14T05:56:52Z</time>
      </trkpt>
      <trkpt lat="44.8805" lon="6.08986">
        <ele>1600.2</ele>
        <time>2024-08-14T05:56:53Z</time>
      </trkpt>
      <trkpt lat="44.8805" lon="6.08986">
        <ele>1600.4</ele>
        <time>2024-08-14T05:56:54Z</time>
      </trkpt>
      <trkpt lat="44.8805" lon="6.08986">
        <ele>1600.6</ele>
        <time>2024-08-14T05:56:55Z</time>
      </trkpt>
      <trkpt lat="44.88052" lon="6.08985">
        <ele>1600.6</ele>
        <time>2024-08-14T05:56:56Z</time>
      </trkpt>
      <trkpt lat="44.88052" lon="6.08985">
        <ele>1600.6</ele>
        <time>2024-08-14T05:56:57Z</time>
      </trkpt>
      <trkpt lat="44.88052" lon="6.08985">
        <ele>1601</ele>
        <time>2024-08-14T05:56:58Z</time>
      </trkpt>
      <trkpt lat="44.88055" lon="6.08984">
        <ele>1601</ele>
        <time>2024-08-14T05:56:59Z</time>
      </trkpt>
      <trkpt lat="44.88055" lon="6.08984">
        <ele>1601.2</ele>
        <time>2024-08-14T05:57:00Z</time>
      </trkpt>
      <trkpt lat="44.88057" lon="6.08983">
        <ele>1601.2</ele>
        <time>2024-08-14T05:57:01Z</time>
      </trkpt>
      <trkpt lat="44.88057" lon="6.08983">
        <ele>1601.6</ele>
        <time>2024-08-14T05:57:02Z</time>
      </trkpt>
      <trkpt lat="44.88059" lon="6.08982">
        <ele>1601.6</ele>
        <time>2024-08-14T05:57:03Z</time>
      </trkpt>
      <trkpt lat="44.88059" lon="6.08982">
        <ele>1601.8</ele>
        <time>2024-08-14T05:57:04Z</time>
      </trkpt>
      <trkpt lat="44.88059" lon="6.08982">
        <ele>1601.8</ele>
        <time>2024-08-14T05:57:05Z</time>
      </trkpt>
      <trkpt lat="44.88061" lon="6.08981">
        <ele>1602.4</ele>
        <time>2024-08-14T05:57:06Z</time>
      </trkpt>
      <trkpt lat="44.88061" lon="6.08981">
        <ele>1602.4</ele>
        <time>2024-08-14T05:57:07Z</time>
      </trkpt>
      <trkpt lat="44.88061" lon="6.08981">
        <ele>1602.6</ele>
        <time>2024-08-14T05:57:08Z</time>
      </trkpt>
      <trkpt lat="44.88063" lon="6.08979">
        <ele>1603</ele>
        <time>2024-08-14T05:57:09Z</time>
      </trkpt>
      <trkpt lat="44.88063" lon="6.08979">
        <ele>1603.2</ele>
        <time>2024-08-14T05:57:10Z</time>
      </trkpt>
      <trkpt lat="44.88065" lon="6.08977">
        <ele>1603.2</ele>
        <time>2024-08-14T05:57:11Z</time>
      </trkpt>
      <trkpt lat="44.88065" lon="6.08977">
        <ele>1603.6</ele>
        <time>2024-08-14T05:57:12Z</time>
      </trkpt>
      <trkpt lat="44.88065" lon="6.08977">
        <ele>1603.8</ele>
        <time>2024-08-14T05:57:13Z</time>
      </trkpt>
      <trkpt lat="44.88067" lon="6.08976">
        <ele>1603.8</ele>
        <time>2024-08-14T05:57:14Z</time>
      </trkpt>
      <trkpt lat="44.88067" lon="6.08976">
        <ele>1604</ele>
        <time>2024-08-14T05:57:15Z</time>
      </trkpt>
      <trkpt lat="44.88067" lon="6.08976">
        <ele>1604</ele>
        <time>2024-08-14T05:57:16Z</time>
      </trkpt>
      <trkpt lat="44.88069" lon="6.08975">
        <ele>1604.4</ele>
        <time>2024-08-14T05:57:17Z</time>
      </trkpt>
      <trkpt lat="44.88069" lon="6.08975">
        <ele>1604.6</ele>
        <time>2024-08-14T05:57:18Z</time>
      </trkpt>
      <trkpt lat="44.88069" lon="6.08975">
        <ele>1604.6</ele>
        <time>2024-08-14T05:57:19Z</time>
      </trkpt>
      <trkpt lat="44.88071" lon="6.08974">
        <ele>1604.8</ele>
        <time>2024-08-14T05:57:20Z</time>
      </trkpt>
      <trkpt lat="44.88071" lon="6.08974">
        <ele>1605</ele>
        <time>2024-08-14T05:57:21Z</time>
      </trkpt>
      <trkpt lat="44.88071" lon="6.08974">
        <ele>1605.4</ele>
        <time>2024-08-14T05:57:22Z</time>
      </trkpt>
      <trkpt lat="44.88073" lon="6.08973">
        <ele>1605.6</ele>
        <time>2024-08-14T05:57:23Z</time>
      </trkpt>
      <trkpt lat="44.88073" lon="6.08973">
        <ele>1605.8</ele>
        <time>2024-08-14T05:57:24Z</time>
      </trkpt>
      <trkpt lat="44.88073" lon="6.08973">
        <ele>1606.2</ele>
        <time>2024-08-14T05:57:25Z</time>
      </trkpt>
      <trkpt lat="44.88076" lon="6.08971">
        <ele>1606.2</ele>
        <time>2024-08-14T05:57:26Z</time>
      </trkpt>
      <trkpt lat="44.88076" lon="6.08971">
        <ele>1606.2</ele>
        <time>2024-08-14T05:57:27Z</time>
      </trkpt>
      <trkpt lat="44.88078" lon="6.08969">
        <ele>1606.2</ele>
        <time>2024-08-14T05:57:28Z</time>
      </trkpt>
      <trkpt lat="44.88078" lon="6.08969">
        <ele>1606.2</ele>
        <time>2024-08-14T05:57:29Z</time>
      </trkpt>
      <trkpt lat="44.88078" lon="6.08969">
        <ele>1606.4</ele>
        <time>2024-08-14T05:57:30Z</time>
      </trkpt>
      <trkpt lat="44.88081" lon="6.08968">
        <ele>1606.6</ele>
        <time>2024-08-14T05:57:31Z</time>
      </trkpt>
      <trkpt lat="44.88081" lon="6.08968">
        <ele>1606.8</ele>
        <time>2024-08-14T05:57:32Z</time>
      </trkpt>
      <trkpt lat="44.88081" lon="6.08968">
        <ele>1606.8</ele>
        <time>2024-08-14T05:57:33Z</time>
      </trkpt>
      <trkpt lat="44.88083" lon="6.08968">
        <ele>1606.8</ele>
        <time>2024-08-14T05:57:34Z</time>
      </trkpt>
      <trkpt lat="44.88083" lon="6.08968">
        <ele>1607.4</ele>
        <time>2024-08-14T05:57:35Z</time>
      </trkpt>
      <trkpt lat="44.88083" lon="6.08968">
        <ele>1607.4</ele>
        <time>2024-08-14T05:57:36Z</time>
      </trkpt>
      <trkpt lat="44.88086" lon="6.08967">
        <ele>1607.8</ele>
        <time>2024-08-14T05:57:37Z</time>
      </trkpt>
      <trkpt lat="44.88086" lon="6.08967">
        <ele>1608</ele>
        <time>2024-08-14T05:57:38Z</time>
      </trkpt>
      <trkpt lat="44.88088" lon="6.08967">
        <ele>1608</ele>
        <time>2024-08-14T05:57:39Z</time>
      </trkpt>
      <trkpt lat="44.88088" lon="6.08967">
        <ele>1608.2</ele>
        <time>2024-08-14T05:57:40Z</time>
      </trkpt>
      <trkpt lat="44.88088" lon="6.08967">
        <ele>1608.8</ele>
        <time>2024-08-14T05:57:41Z</time>
      </trkpt>
      <trkpt lat="44.88088" lon="6.08967">
        <ele>1608.8</ele>
        <time>2024-08-14T05:57:42Z</time>
      </trkpt>
      <trkpt lat="44.8809" lon="6.08968">
        <ele>1609</ele>
        <time>2024-08-14T05:57:43Z</time>
      </trkpt>
      <trkpt lat="44.8809" lon="6.08968">
        <ele>1609</ele>
        <time>2024-08-14T05:57:44Z</time>
      </trkpt>
      <trkpt lat="44.8809" lon="6.08968">
        <ele>1609.2</ele>
        <time>2024-08-14T05:57:45Z</time>
      </trkpt>
      <trkpt lat="44.88093" lon="6.08967">
        <ele>1609.2</ele>
        <time>2024-08-14T05:57:46Z</time>
      </trkpt>
      <trkpt lat="44.88093" lon="6.08967">
        <ele>1609.4</ele>
        <time>2024-08-14T05:57:47Z</time>
      </trkpt>
      <trkpt lat="44.88093" lon="6.08967">
        <ele>1609.8</ele>
        <time>2024-08-14T05:57:48Z</time>
      </trkpt>
      <trkpt lat="44.88095" lon="6.08966">
        <ele>1610.2</ele>
        <time>2024-08-14T05:57:49Z</time>
      </trkpt>
      <trkpt lat="44.88095" lon="6.08966">
        <ele>1610.2</ele>
        <time>2024-08-14T05:57:50Z</time>
      </trkpt>
      <trkpt lat="44.88095" lon="6.08966">
        <ele>1610.2</ele>
        <time>2024-08-14T05:57:51Z</time>
      </trkpt>
      <trkpt lat="44.88097" lon="6.08966">
        <ele>1610.4</ele>
        <time>2024-08-14T05:57:52Z</time>
      </trkpt>
      <trkpt lat="44.88097" lon="6.08966">
        <ele>1610.6</ele>
        <time>2024-08-14T05:57:53Z</time>
      </trkpt>
      <trkpt lat="44.88097" lon="6.08966">
        <ele>1610.8</ele>
        <time>2024-08-14T05:57:54Z</time>
      </trkpt>
      <trkpt lat="44.88099" lon="6.08965">
        <ele>1610.8</ele>
        <time>2024-08-14T05:57:55Z</time>
      </trkpt>
      <trkpt lat="44.88099" lon="6.08965">
        <ele>1611</ele>
        <time>2024-08-14T05:57:56Z</time>
      </trkpt>
      <trkpt lat="44.88099" lon="6.08965">
        <ele>1611.4</ele>
        <time>2024-08-14T05:57:57Z</time>
      </trkpt>
      <trkpt lat="44.88101" lon="6.08965">
        <ele>1611.4</ele>
        <time>2024-08-14T05:57:58Z</time>
      </trkpt>
      <trkpt lat="44.88101" lon="6.08965">
        <ele>1611.8</ele>
        <time>2024-08-14T05:57:59Z</time>
      </trkpt>
      <trkpt lat="44.88101" lon="6.08965">
        <ele>1612.2</ele>
        <time>2024-08-14T05:58:00Z</time>
      </trkpt>
      <trkpt lat="44.88103" lon="6.08964">
        <ele>1612.2</ele>
        <time>2024-08-14T05:58:01Z</time>
      </trkpt>
      <trkpt lat="44.88103" lon="6.08964">
        <ele>1613.2</ele>
        <time>2024-08-14T05:58:02Z</time>
      </trkpt>
      <trkpt lat="44.88105" lon="6.08963">
        <ele>1613.2</ele>
        <time>2024-08-14T05:58:03Z</time>
      </trkpt>
      <trkpt lat="44.88105" lon="6.08963">
        <ele>1613</ele>
        <time>2024-08-14T05:58:04Z</time>
      </trkpt>
      <trkpt lat="44.88105" lon="6.08963">
        <ele>1613</ele>
        <time>2024-08-14T05:58:05Z</time>
      </trkpt>
      <trkpt lat="44.88107" lon="6.08962">
        <ele>1613.6</ele>
        <time>2024-08-14T05:58:06Z</time>
      </trkpt>
      <trkpt lat="44.88107" lon="6.08962">
        <ele>1613.6</ele>
        <time>2024-08-14T05:58:07Z</time>
      </trkpt>
      <trkpt lat="44.88109" lon="6.0896">
        <ele>1613.6</ele>
        <time>2024-08-14T05:58:08Z</time>
      </trkpt>
      <trkpt lat="44.88109" lon="6.0896">
        <ele>1613.6</ele>
        <time>2024-08-14T05:58:09Z</time>
      </trkpt>
      <trkpt lat="44.88109" lon="6.0896">
        <ele>1614.2</ele>
        <time>2024-08-14T05:58:10Z</time>
      </trkpt>
      <trkpt lat="44.88111" lon="6.08959">
        <ele>1614.4</ele>
        <time>2024-08-14T05:58:11Z</time>
      </trkpt>
      <trkpt lat="44.88111" lon="6.08959">
        <ele>1614.4</ele>
        <time>2024-08-14T05:58:12Z</time>
      </trkpt>
      <trkpt lat="44.88111" lon="6.08959">
        <ele>1614.8</ele>
        <time>2024-08-14T05:58:13Z</time>
      </trkpt>
      <trkpt lat="44.88111" lon="6.08959">
        <ele>1614.8</ele>
        <time>2024-08-14T05:58:14Z</time>
      </trkpt>
      <trkpt lat="44.88113" lon="6.08958">
        <ele>1614.8</ele>
        <time>2024-08-14T05:58:15Z</time>
      </trkpt>
      <trkpt lat="44.88113" lon="6.08958">
        <ele>1615</ele>
        <time>2024-08-14T05:58:16Z</time>
      </trkpt>
      <trkpt lat="44.88113" lon="6.08958">
        <ele>1615.6</ele>
        <time>2024-08-14T05:58:17Z</time>
      </trkpt>
      <trkpt lat="44.88113" lon="6.08958">
        <ele>1615.6</ele>
        <time>2024-08-14T05:58:18Z</time>
      </trkpt>
      <trkpt lat="44.88115" lon="6.08957">
        <ele>1615.6</ele>
        <time>2024-08-14T05:58:19Z</time>
      </trkpt>
      <trkpt lat="44.88115" lon="6.08957">
        <ele>1615.6</ele>
        <time>2024-08-14T05:58:20Z</time>
      </trkpt>
      <trkpt lat="44.88115" lon="6.08957">
        <ele>1615.6</ele>
        <time>2024-08-14T05:58:21Z</time>
      </trkpt>
      <trkpt lat="44.88117" lon="6.0896">
        <ele>1616</ele>
        <time>2024-08-14T05:58:22Z</time>
      </trkpt>
      <trkpt lat="44.88117" lon="6.0896">
        <ele>1616.4</ele>
        <time>2024-08-14T05:58:23Z</time>
      </trkpt>
      <trkpt lat="44.88117" lon="6.0896">
        <ele>1616.8</ele>
        <time>2024-08-14T05:58:24Z</time>
      </trkpt>
      <trkpt lat="44.88116" lon="6.08962">
        <ele>1617.4</ele>
        <time>2024-08-14T05:58:25Z</time>
      </trkpt>
      <trkpt lat="44.88116" lon="6.08962">
        <ele>1617.6</ele>
        <time>2024-08-14T05:58:26Z</time>
      </trkpt>
      <trkpt lat="44.88116" lon="6.08962">
        <ele>1617.8</ele>
        <time>2024-08-14T05:58:27Z</time>
      </trkpt>
      <trkpt lat="44.88115" lon="6.08965">
        <ele>1618</ele>
        <time>2024-08-14T05:58:28Z</time>
      </trkpt>
      <trkpt lat="44.88115" lon="6.08965">
        <ele>1618.4</ele>
        <time>2024-08-14T05:58:29Z</time>
      </trkpt>
      <trkpt lat="44.88115" lon="6.08965">
        <ele>1618.8</ele>
        <time>2024-08-14T05:58:30Z</time>
      </trkpt>
      <trkpt lat="44.88115" lon="6.08965">
        <ele>1619.2</ele>
        <time>2024-08-14T05:58:31Z</time>
      </trkpt>
      <trkpt lat="44.88115" lon="6.08965">
        <ele>1619.4</ele>
        <time>2024-08-14T05:58:32Z</time>
      </trkpt>
      <trkpt lat="44.88115" lon="6.08965">
        <ele>1619.4</ele>
        <time>2024-08-14T05:58:33Z</time>
      </trkpt>
      <trkpt lat="44.88114" lon="6.08968">
        <ele>1619.4</ele>
        <time>2024-08-14T05:58:34Z</time>
      </trkpt>
      <trkpt lat="44.88114" lon="6.08968">
        <ele>1619.4</ele>
        <time>2024-08-14T05:58:35Z</time>
      </trkpt>
      <trkpt lat="44.88113" lon="6.08971">
        <ele>1619.6</ele>
        <time>2024-08-14T05:58:36Z</time>
      </trkpt>
      <trkpt lat="44.88113" lon="6.08971">
        <ele>1620</ele>
        <time>2024-08-14T05:58:37Z</time>
      </trkpt>
      <trkpt lat="44.88111" lon="6.08973">
        <ele>1620.4</ele>
        <time>2024-08-14T05:58:38Z</time>
      </trkpt>
      <trkpt lat="44.88111" lon="6.08973">
        <ele>1620.6</ele>
        <time>2024-08-14T05:58:39Z</time>
      </trkpt>
      <trkpt lat="44.8811" lon="6.08976">
        <ele>1620.8</ele>
        <time>2024-08-14T05:58:40Z</time>
      </trkpt>
      <trkpt lat="44.8811" lon="6.08976">
        <ele>1621</ele>
        <time>2024-08-14T05:58:41Z</time>
      </trkpt>
      <trkpt lat="44.88109" lon="6.08978">
        <ele>1621.4</ele>
        <time>2024-08-14T05:58:42Z</time>
      </trkpt>
      <trkpt lat="44.88109" lon="6.08978">
        <ele>1621.6</ele>
        <time>2024-08-14T05:58:43Z</time>
      </trkpt>
      <trkpt lat="44.88109" lon="6.08978">
        <ele>1621.8</ele>
        <time>2024-08-14T05:58:44Z</time>
      </trkpt>
      <trkpt lat="44.88106" lon="6.0898">
        <ele>1621.8</ele>
        <time>2024-08-14T05:58:45Z</time>
      </trkpt>
      <trkpt lat="44.88106" lon="6.0898">
        <ele>1622</ele>
        <time>2024-08-14T05:58:46Z</time>
      </trkpt>
      <trkpt lat="44.88105" lon="6.08983">
        <ele>1622.2</ele>
        <time>2024-08-14T05:58:47Z</time>
      </trkpt>
      <trkpt lat="44.88105" lon="6.08983">
        <ele>1622.2</ele>
        <time>2024-08-14T05:58:48Z</time>
      </trkpt>
      <trkpt lat="44.88104" lon="6.08985">
        <ele>1622.6</ele>
        <time>2024-08-14T05:58:49Z</time>
      </trkpt>
      <trkpt lat="44.88104" lon="6.08985">
        <ele>1622.8</ele>
        <time>2024-08-14T05:58:50Z</time>
      </trkpt>
      <trkpt lat="44.88104" lon="6.08985">
        <ele>1623</ele>
        <time>2024-08-14T05:58:51Z</time>
      </trkpt>
      <trkpt lat="44.88102" lon="6.08987">
        <ele>1623</ele>
        <time>2024-08-14T05:58:52Z</time>
      </trkpt>
      <trkpt lat="44.88102" lon="6.08987">
        <ele>1623</ele>
        <time>2024-08-14T05:58:53Z</time>
      </trkpt>
      <trkpt lat="44.88102" lon="6.08987">
        <ele>1623.2</ele>
        <time>2024-08-14T05:58:54Z</time>
      </trkpt>
      <trkpt lat="44.88102" lon="6.08987">
        <ele>1623.4</ele>
        <time>2024-08-14T05:58:55Z</time>
      </trkpt>
      <trkpt lat="44.88102" lon="6.08987">
        <ele>1623.6</ele>
        <time>2024-08-14T05:58:56Z</time>
      </trkpt>
      <trkpt lat="44.88102" lon="6.08987">
        <ele>1623.6</ele>
        <time>2024-08-14T05:58:57Z</time>
      </trkpt>
      <trkpt lat="44.88102" lon="6.08987">
        <ele>1624</ele>
        <time>2024-08-14T05:58:58Z</time>
      </trkpt>
      <trkpt lat="44.88105" lon="6.08987">
        <ele>1624.6</ele>
        <time>2024-08-14T05:58:59Z</time>
      </trkpt>
      <trkpt lat="44.88105" lon="6.08987">
        <ele>1624.6</ele>
        <time>2024-08-14T05:59:00Z</time>
      </trkpt>
      <trkpt lat="44.88105" lon="6.08987">
        <ele>1624.8</ele>
        <time>2024-08-14T05:59:01Z</time>
      </trkpt>
      <trkpt lat="44.88105" lon="6.08987">
        <ele>1625.4</ele>
        <time>2024-08-14T05:59:02Z</time>
      </trkpt>
      <trkpt lat="44.88105" lon="6.08987">
        <ele>1625.4</ele>
        <time>2024-08-14T05:59:03Z</time>
      </trkpt>
      <trkpt lat="44.88105" lon="6.08987">
        <ele>1625.4</ele>
        <time>2024-08-14T05:59:04Z</time>
      </trkpt>
      <trkpt lat="44.88105" lon="6.08987">
        <ele>1625.8</ele>
        <time>2024-08-14T05:59:05Z</time>
      </trkpt>
      <trkpt lat="44.88105" lon="6.08987">
        <ele>1625.8</ele>
        <time>2024-08-14T05:59:06Z</time>
      </trkpt>
      <trkpt lat="44.88105" lon="6.08987">
        <ele>1626.2</ele>
        <time>2024-08-14T05:59:07Z</time>
      </trkpt>
      <trkpt lat="44.88105" lon="6.08987">
        <ele>1626.4</ele>
        <time>2024-08-14T05:59:08Z</time>
      </trkpt>
      <trkpt lat="44.88105" lon="6.08987">
        <ele>1627</ele>
        <time>2024-08-14T05:59:09Z</time>
      </trkpt>
      <trkpt lat="44.88105" lon="6.08987">
        <ele>1627.2</ele>
        <time>2024-08-14T05:59:10Z</time>
      </trkpt>
      <trkpt lat="44.88105" lon="6.08987">
        <ele>1627.2</ele>
        <time>2024-08-14T05:59:11Z</time>
      </trkpt>
      <trkpt lat="44.88105" lon="6.08987">
        <ele>1627.2</ele>
        <time>2024-08-14T05:59:12Z</time>
      </trkpt>
      <trkpt lat="44.88105" lon="6.08987">
        <ele>1627.2</ele>
        <time>2024-08-14T05:59:13Z</time>
      </trkpt>
      <trkpt lat="44.88105" lon="6.08987">
        <ele>1627.2</ele>
        <time>2024-08-14T05:59:14Z</time>
      </trkpt>
      <trkpt lat="44.88105" lon="6.08987">
        <ele>1627.2</ele>
        <time>2024-08-14T05:59:15Z</time>
      </trkpt>
      <trkpt lat="44.88105" lon="6.08987">
        <ele>1627.4</ele>
        <time>2024-08-14T05:59:16Z</time>
      </trkpt>
      <trkpt lat="44.88105" lon="6.08987">
        <ele>1627.4</ele>
        <time>2024-08-14T05:59:17Z</time>
      </trkpt>
      <trkpt lat="44.88105" lon="6.08987">
        <ele>1627.2</ele>
        <time>2024-08-14T05:59:18Z</time>
      </trkpt>
      <trkpt lat="44.88105" lon="6.08987">
        <ele>1627.2</ele>
        <time>2024-08-14T05:59:19Z</time>
      </trkpt>
      <trkpt lat="44.88107" lon="6.08986">
        <ele>1627.2</ele>
        <time>2024-08-14T05:59:20Z</time>
      </trkpt>
      <trkpt lat="44.88107" lon="6.08986">
        <ele>1627</ele>
        <time>2024-08-14T05:59:21Z</time>
      </trkpt>
      <trkpt lat="44.88109" lon="6.08984">
        <ele>1627</ele>
        <time>2024-08-14T05:59:22Z</time>
      </trkpt>
      <trkpt lat="44.88111" lon="6.08984">
        <ele>1627</ele>
        <time>2024-08-14T05:59:23Z</time>
      </trkpt>
      <trkpt lat="44.88113" lon="6.08983">
        <ele>1627</ele>
        <time>2024-08-14T05:59:24Z</time>
      </trkpt>
      <trkpt lat="44.88113" lon="6.08983">
        <ele>1627.2</ele>
        <time>2024-08-14T05:59:25Z</time>
      </trkpt>
      <trkpt lat="44.88116" lon="6.08982">
        <ele>1627.4</ele>
        <time>2024-08-14T05:59:26Z</time>
      </trkpt>
      <trkpt lat="44.88116" lon="6.08982">
        <ele>1627.6</ele>
        <time>2024-08-14T05:59:27Z</time>
      </trkpt>
      <trkpt lat="44.88116" lon="6.08982">
        <ele>1628.2</ele>
        <time>2024-08-14T05:59:28Z</time>
      </trkpt>
      <trkpt lat="44.88118" lon="6.08981">
        <ele>1628.2</ele>
        <time>2024-08-14T05:59:29Z</time>
      </trkpt>
      <trkpt lat="44.88118" lon="6.08981">
        <ele>1628.4</ele>
        <time>2024-08-14T05:59:30Z</time>
      </trkpt>
      <trkpt lat="44.88118" lon="6.08981">
        <ele>1628.6</ele>
        <time>2024-08-14T05:59:31Z</time>
      </trkpt>
      <trkpt lat="44.88118" lon="6.08981">
        <ele>1628.6</ele>
        <time>2024-08-14T05:59:32Z</time>
      </trkpt>
      <trkpt lat="44.88121" lon="6.08982">
        <ele>1628.8</ele>
        <time>2024-08-14T05:59:33Z</time>
      </trkpt>
      <trkpt lat="44.88121" lon="6.08982">
        <ele>1629</ele>
        <time>2024-08-14T05:59:34Z</time>
      </trkpt>
      <trkpt lat="44.88121" lon="6.08982">
        <ele>1629</ele>
        <time>2024-08-14T05:59:35Z</time>
      </trkpt>
      <trkpt lat="44.88122" lon="6.0898">
        <ele>1629.2</ele>
        <time>2024-08-14T05:59:36Z</time>
      </trkpt>
      <trkpt lat="44.88122" lon="6.0898">
        <ele>1629.6</ele>
        <time>2024-08-14T05:59:37Z</time>
      </trkpt>
      <trkpt lat="44.88122" lon="6.0898">
        <ele>1630</ele>
        <time>2024-08-14T05:59:38Z</time>
      </trkpt>
      <trkpt lat="44.88123" lon="6.08978">
        <ele>1630.2</ele>
        <time>2024-08-14T05:59:39Z</time>
      </trkpt>
      <trkpt lat="44.88123" lon="6.08978">
        <ele>1630.8</ele>
        <time>2024-08-14T05:59:40Z</time>
      </trkpt>
      <trkpt lat="44.88123" lon="6.08978">
        <ele>1630.8</ele>
        <time>2024-08-14T05:59:41Z</time>
      </trkpt>
      <trkpt lat="44.88125" lon="6.08977">
        <ele>1630.8</ele>
        <time>2024-08-14T05:59:42Z</time>
      </trkpt>
      <trkpt lat="44.88125" lon="6.08977">
        <ele>1631.2</ele>
        <time>2024-08-14T05:59:43Z</time>
      </trkpt>
      <trkpt lat="44.88125" lon="6.08977">
        <ele>1631.4</ele>
        <time>2024-08-14T05:59:44Z</time>
      </trkpt>
      <trkpt lat="44.88126" lon="6.0898">
        <ele>1631.4</ele>
        <time>2024-08-14T05:59:45Z</time>
      </trkpt>
      <trkpt lat="44.88126" lon="6.0898">
        <ele>1632</ele>
        <time>2024-08-14T05:59:46Z</time>
      </trkpt>
      <trkpt lat="44.88125" lon="6.08982">
        <ele>1632</ele>
        <time>2024-08-14T05:59:47Z</time>
      </trkpt>
      <trkpt lat="44.88125" lon="6.08982">
        <ele>1632.2</ele>
        <time>2024-08-14T05:59:48Z</time>
      </trkpt>
      <trkpt lat="44.88125" lon="6.08982">
        <ele>1632.6</ele>
        <time>2024-08-14T05:59:49Z</time>
      </trkpt>
      <trkpt lat="44.88124" lon="6.08986">
        <ele>1632.8</ele>
        <time>2024-08-14T05:59:50Z</time>
      </trkpt>
      <trkpt lat="44.88124" lon="6.08986">
        <ele>1632.8</ele>
        <time>2024-08-14T05:59:51Z</time>
      </trkpt>
      <trkpt lat="44.88123" lon="6.08988">
        <ele>1632.8</ele>
        <time>2024-08-14T05:59:52Z</time>
      </trkpt>
      <trkpt lat="44.88123" lon="6.08988">
        <ele>1632.8</ele>
        <time>2024-08-14T05:59:53Z</time>
      </trkpt>
      <trkpt lat="44.88121" lon="6.0899">
        <ele>1632.8</ele>
        <time>2024-08-14T05:59:54Z</time>
      </trkpt>
      <trkpt lat="44.88121" lon="6.0899">
        <ele>1633</ele>
        <time>2024-08-14T05:59:55Z</time>
      </trkpt>
      <trkpt lat="44.8812" lon="6.08993">
        <ele>1633.2</ele>
        <time>2024-08-14T05:59:56Z</time>
      </trkpt>
      <trkpt lat="44.8812" lon="6.08993">
        <ele>1633.6</ele>
        <time>2024-08-14T05:59:57Z</time>
      </trkpt>
      <trkpt lat="44.88119" lon="6.08995">
        <ele>1633.8</ele>
        <time>2024-08-14T05:59:58Z</time>
      </trkpt>
      <trkpt lat="44.88119" lon="6.08995">
        <ele>1634.2</ele>
        <time>2024-08-14T05:59:59Z</time>
      </trkpt>
      <trkpt lat="44.88117" lon="6.08997">
        <ele>1634.6</ele>
        <time>2024-08-14T06:00:00Z</time>
      </trkpt>
      <trkpt lat="44.88117" lon="6.08997">
        <ele>1634.6</ele>
        <time>2024-08-14T06:00:01Z</time>
      </trkpt>
      <trkpt lat="44.88117" lon="6.08997">
        <ele>1635</ele>
        <time>2024-08-14T06:00:02Z</time>
      </trkpt>
      <trkpt lat="44.88117" lon="6.08997">
        <ele>1635.2</ele>
        <time>2024-08-14T06:00:03Z</time>
      </trkpt>
      <trkpt lat="44.88117" lon="6.08997">
        <ele>1635.4</ele>
        <time>2024-08-14T06:00:04Z</time>
      </trkpt>
      <trkpt lat="44.88117" lon="6.08997">
        <ele>1635.4</ele>
        <time>2024-08-14T06:00:05Z</time>
      </trkpt>
      <trkpt lat="44.88117" lon="6.08997">
        <ele>1635.4</ele>
        <time>2024-08-14T06:00:06Z</time>
      </trkpt>
      <trkpt lat="44.88117" lon="6.08997">
        <ele>1635.8</ele>
        <time>2024-08-14T06:00:07Z</time>
      </trkpt>
      <trkpt lat="44.88119" lon="6.08996">
        <ele>1636</ele>
        <time>2024-08-14T06:00:08Z</time>
      </trkpt>
      <trkpt lat="44.88119" lon="6.08996">
        <ele>1636.4</ele>
        <time>2024-08-14T06:00:09Z</time>
      </trkpt>
      <trkpt lat="44.88119" lon="6.08996">
        <ele>1636.6</ele>
        <time>2024-08-14T06:00:10Z</time>
      </trkpt>
      <trkpt lat="44.88122" lon="6.08994">
        <ele>1636.6</ele>
        <time>2024-08-14T06:00:11Z</time>
      </trkpt>
      <trkpt lat="44.88122" lon="6.08994">
        <ele>1636.8</ele>
        <time>2024-08-14T06:00:12Z</time>
      </trkpt>
      <trkpt lat="44.88123" lon="6.08992">
        <ele>1636.8</ele>
        <time>2024-08-14T06:00:13Z</time>
      </trkpt>
      <trkpt lat="44.88123" lon="6.08992">
        <ele>1636.8</ele>
        <time>2024-08-14T06:00:14Z</time>
      </trkpt>
      <trkpt lat="44.88125" lon="6.0899">
        <ele>1636.6</ele>
        <time>2024-08-14T06:00:15Z</time>
      </trkpt>
      <trkpt lat="44.88125" lon="6.0899">
        <ele>1636.6</ele>
        <time>2024-08-14T06:00:16Z</time>
      </trkpt>
      <trkpt lat="44.88125" lon="6.0899">
        <ele>1636.6</ele>
        <time>2024-08-14T06:00:17Z</time>
      </trkpt>
      <trkpt lat="44.88127" lon="6.08988">
        <ele>1637</ele>
        <time>2024-08-14T06:00:18Z</time>
      </trkpt>
      <trkpt lat="44.88127" lon="6.08988">
        <ele>1637.2</ele>
        <time>2024-08-14T06:00:19Z</time>
      </trkpt>
      <trkpt lat="44.88127" lon="6.08988">
        <ele>1637.4</ele>
        <time>2024-08-14T06:00:20Z</time>
      </trkpt>
      <trkpt lat="44.88129" lon="6.08985">
        <ele>1637.6</ele>
        <time>2024-08-14T06:00:21Z</time>
      </trkpt>
      <trkpt lat="44.88129" lon="6.08985">
        <ele>1637.8</ele>
        <time>2024-08-14T06:00:22Z</time>
      </trkpt>
      <trkpt lat="44.8813" lon="6.08983">
        <ele>1637.8</ele>
        <time>2024-08-14T06:00:23Z</time>
      </trkpt>
      <trkpt lat="44.8813" lon="6.08983">
        <ele>1637.8</ele>
        <time>2024-08-14T06:00:24Z</time>
      </trkpt>
      <trkpt lat="44.88132" lon="6.08981">
        <ele>1637.8</ele>
        <time>2024-08-14T06:00:25Z</time>
      </trkpt>
      <trkpt lat="44.88132" lon="6.08981">
        <ele>1638.2</ele>
        <time>2024-08-14T06:00:26Z</time>
      </trkpt>
      <trkpt lat="44.88132" lon="6.08981">
        <ele>1638.2</ele>
        <time>2024-08-14T06:00:27Z</time>
      </trkpt>
      <trkpt lat="44.88133" lon="6.08979">
        <ele>1638.4</ele>
        <time>2024-08-14T06:00:28Z</time>
      </trkpt>
      <trkpt lat="44.88133" lon="6.08979">
        <ele>1638.8</ele>
        <time>2024-08-14T06:00:29Z</time>
      </trkpt>
      <trkpt lat="44.88133" lon="6.08979">
        <ele>1639</ele>
        <time>2024-08-14T06:00:30Z</time>
      </trkpt>
      <trkpt lat="44.88135" lon="6.08977">
        <ele>1639.4</ele>
        <time>2024-08-14T06:00:31Z</time>
      </trkpt>
      <trkpt lat="44.88135" lon="6.08977">
        <ele>1639.6</ele>
        <time>2024-08-14T06:00:32Z</time>
      </trkpt>
      <trkpt lat="44.88135" lon="6.08977">
        <ele>1639.8</ele>
        <time>2024-08-14T06:00:33Z</time>
      </trkpt>
      <trkpt lat="44.88137" lon="6.08974">
        <ele>1640</ele>
        <time>2024-08-14T06:00:34Z</time>
      </trkpt>
      <trkpt lat="44.88137" lon="6.08974">
        <ele>1640.6</ele>
        <time>2024-08-14T06:00:35Z</time>
      </trkpt>
      <trkpt lat="44.88137" lon="6.08974">
        <ele>1640.8</ele>
        <time>2024-08-14T06:00:36Z</time>
      </trkpt>
      <trkpt lat="44.88139" lon="6.08973">
        <ele>1640.8</ele>
        <time>2024-08-14T06:00:37Z</time>
      </trkpt>
      <trkpt lat="44.88139" lon="6.08973">
        <ele>1640.8</ele>
        <time>2024-08-14T06:00:38Z</time>
      </trkpt>
      <trkpt lat="44.88139" lon="6.08973">
        <ele>1640.8</ele>
        <time>2024-08-14T06:00:39Z</time>
      </trkpt>
      <trkpt lat="44.8814" lon="6.08971">
        <ele>1641</ele>
        <time>2024-08-14T06:00:40Z</time>
      </trkpt>
      <trkpt lat="44.8814" lon="6.08971">
        <ele>1641.2</ele>
        <time>2024-08-14T06:00:41Z</time>
      </trkpt>
      <trkpt lat="44.8814" lon="6.08971">
        <ele>1641.4</ele>
        <time>2024-08-14T06:00:42Z</time>
      </trkpt>
      <trkpt lat="44.88142" lon="6.08969">
        <ele>1641.6</ele>
        <time>2024-08-14T06:00:43Z</time>
      </trkpt>
      <trkpt lat="44.88142" lon="6.08969">
        <ele>1641.6</ele>
        <time>2024-08-14T06:00:44Z</time>
      </trkpt>
      <trkpt lat="44.88142" lon="6.08969">
        <ele>1642.2</ele>
        <time>2024-08-14T06:00:45Z</time>
      </trkpt>
      <trkpt lat="44.88142" lon="6.08969">
        <ele>1642.4</ele>
        <time>2024-08-14T06:00:46Z</time>
      </trkpt>
      <trkpt lat="44.88142" lon="6.08969">
        <ele>1642.6</ele>
        <time>2024-08-14T06:00:47Z</time>
      </trkpt>
      <trkpt lat="44.88142" lon="6.08969">
        <ele>1642.8</ele>
        <time>2024-08-14T06:00:48Z</time>
      </trkpt>
      <trkpt lat="44.88143" lon="6.08967">
        <ele>1643.2</ele>
        <time>2024-08-14T06:00:49Z</time>
      </trkpt>
      <trkpt lat="44.88143" lon="6.08967">
        <ele>1643.4</ele>
        <time>2024-08-14T06:00:50Z</time>
      </trkpt>
      <trkpt lat="44.88143" lon="6.08967">
        <ele>1643.6</ele>
        <time>2024-08-14T06:00:51Z</time>
      </trkpt>
      <trkpt lat="44.88145" lon="6.08967">
        <ele>1643.8</ele>
        <time>2024-08-14T06:00:52Z</time>
      </trkpt>
      <trkpt lat="44.88145" lon="6.08967">
        <ele>1644.2</ele>
        <time>2024-08-14T06:00:53Z</time>
      </trkpt>
      <trkpt lat="44.88145" lon="6.08967">
        <ele>1644.4</ele>
        <time>2024-08-14T06:00:54Z</time>
      </trkpt>
      <trkpt lat="44.88145" lon="6.08967">
        <ele>1644.4</ele>
        <time>2024-08-14T06:00:55Z</time>
      </trkpt>
      <trkpt lat="44.88147" lon="6.08966">
        <ele>1644.6</ele>
        <time>2024-08-14T06:00:56Z</time>
      </trkpt>
      <trkpt lat="44.88147" lon="6.08966">
        <ele>1644.8</ele>
        <time>2024-08-14T06:00:57Z</time>
      </trkpt>
      <trkpt lat="44.88147" lon="6.08966">
        <ele>1645.2</ele>
        <time>2024-08-14T06:00:58Z</time>
      </trkpt>
      <trkpt lat="44.88147" lon="6.08966">
        <ele>1645.2</ele>
        <time>2024-08-14T06:00:59Z</time>
      </trkpt>
      <trkpt lat="44.88149" lon="6.08965">
        <ele>1645.2</ele>
        <time>2024-08-14T06:01:00Z</time>
      </trkpt>
      <trkpt lat="44.88149" lon="6.08965">
        <ele>1645.6</ele>
        <time>2024-08-14T06:01:01Z</time>
      </trkpt>
      <trkpt lat="44.88149" lon="6.08965">
        <ele>1646.2</ele>
        <time>2024-08-14T06:01:02Z</time>
      </trkpt>
      <trkpt lat="44.88149" lon="6.08965">
        <ele>1646.2</ele>
        <time>2024-08-14T06:01:03Z</time>
      </trkpt>
      <trkpt lat="44.88151" lon="6.08964">
        <ele>1646.2</ele>
        <time>2024-08-14T06:01:04Z</time>
      </trkpt>
      <trkpt lat="44.88151" lon="6.08964">
        <ele>1646.2</ele>
        <time>2024-08-14T06:01:05Z</time>
      </trkpt>
      <trkpt lat="44.88151" lon="6.08964">
        <ele>1646.6</ele>
        <time>2024-08-14T06:01:06Z</time>
      </trkpt>
      <trkpt lat="44.88153" lon="6.08964">
        <ele>1647</ele>
        <time>2024-08-14T06:01:07Z</time>
      </trkpt>
      <trkpt lat="44.88153" lon="6.08964">
        <ele>1647</ele>
        <time>2024-08-14T06:01:08Z</time>
      </trkpt>
      <trkpt lat="44.88153" lon="6.08964">
        <ele>1647.4</ele>
        <time>2024-08-14T06:01:09Z</time>
      </trkpt>
      <trkpt lat="44.88156" lon="6.08965">
        <ele>1647.4</ele>
        <time>2024-08-14T06:01:10Z</time>
      </trkpt>
      <trkpt lat="44.88156" lon="6.08965">
        <ele>1647.6</ele>
        <time>2024-08-14T06:01:11Z</time>
      </trkpt>
      <trkpt lat="44.88156" lon="6.08965">
        <ele>1647.6</ele>
        <time>2024-08-14T06:01:12Z</time>
      </trkpt>
      <trkpt lat="44.88156" lon="6.08965">
        <ele>1647.8</ele>
        <time>2024-08-14T06:01:13Z</time>
      </trkpt>
      <trkpt lat="44.88158" lon="6.08966">
        <ele>1648</ele>
        <time>2024-08-14T06:01:14Z</time>
      </trkpt>
      <trkpt lat="44.88158" lon="6.08966">
        <ele>1648.2</ele>
        <time>2024-08-14T06:01:15Z</time>
      </trkpt>
      <trkpt lat="44.88158" lon="6.08966">
        <ele>1648.8</ele>
        <time>2024-08-14T06:01:16Z</time>
      </trkpt>
      <trkpt lat="44.8816" lon="6.08966">
        <ele>1649</ele>
        <time>2024-08-14T06:01:17Z</time>
      </trkpt>
      <trkpt lat="44.8816" lon="6.08966">
        <ele>1649.2</ele>
        <time>2024-08-14T06:01:18Z</time>
      </trkpt>
      <trkpt lat="44.8816" lon="6.08966">
        <ele>1649.4</ele>
        <time>2024-08-14T06:01:19Z</time>
      </trkpt>
      <trkpt lat="44.88162" lon="6.08966">
        <ele>1649.4</ele>
        <time>2024-08-14T06:01:20Z</time>
      </trkpt>
      <trkpt lat="44.88162" lon="6.08966">
        <ele>1649.8</ele>
        <time>2024-08-14T06:01:21Z</time>
      </trkpt>
      <trkpt lat="44.88162" lon="6.08966">
        <ele>1649.8</ele>
        <time>2024-08-14T06:01:22Z</time>
      </trkpt>
      <trkpt lat="44.88164" lon="6.08967">
        <ele>1650</ele>
        <time>2024-08-14T06:01:23Z</time>
      </trkpt>
      <trkpt lat="44.88164" lon="6.08967">
        <ele>1650.4</ele>
        <time>2024-08-14T06:01:24Z</time>
      </trkpt>
      <trkpt lat="44.88164" lon="6.08967">
        <ele>1650.6</ele>
        <time>2024-08-14T06:01:25Z</time>
      </trkpt>
      <trkpt lat="44.88166" lon="6.08967">
        <ele>1650.6</ele>
        <time>2024-08-14T06:01:26Z</time>
      </trkpt>
      <trkpt lat="44.88166" lon="6.08967">
        <ele>1650.8</ele>
        <time>2024-08-14T06:01:27Z</time>
      </trkpt>
      <trkpt lat="44.88166" lon="6.08967">
        <ele>1651</ele>
        <time>2024-08-14T06:01:28Z</time>
      </trkpt>
      <trkpt lat="44.88168" lon="6.08968">
        <ele>1651.4</ele>
        <time>2024-08-14T06:01:29Z</time>
      </trkpt>
      <trkpt lat="44.88168" lon="6.08968">
        <ele>1651.6</ele>
        <time>2024-08-14T06:01:30Z</time>
      </trkpt>
      <trkpt lat="44.88168" lon="6.08968">
        <ele>1652</ele>
        <time>2024-08-14T06:01:31Z</time>
      </trkpt>
      <trkpt lat="44.88171" lon="6.08969">
        <ele>1652</ele>
        <time>2024-08-14T06:01:32Z</time>
      </trkpt>
      <trkpt lat="44.88171" lon="6.08969">
        <ele>1652.2</ele>
        <time>2024-08-14T06:01:33Z</time>
      </trkpt>
      <trkpt lat="44.88171" lon="6.08969">
        <ele>1652.2</ele>
        <time>2024-08-14T06:01:34Z</time>
      </trkpt>
      <trkpt lat="44.88174" lon="6.08969">
        <ele>1652.6</ele>
        <time>2024-08-14T06:01:35Z</time>
      </trkpt>
      <trkpt lat="44.88174" lon="6.08969">
        <ele>1652.6</ele>
        <time>2024-08-14T06:01:36Z</time>
      </trkpt>
      <trkpt lat="44.88176" lon="6.0897">
        <ele>1652.8</ele>
        <time>2024-08-14T06:01:37Z</time>
      </trkpt>
      <trkpt lat="44.88176" lon="6.0897">
        <ele>1652.8</ele>
        <time>2024-08-14T06:01:38Z</time>
      </trkpt>
      <trkpt lat="44.88176" lon="6.0897">
        <ele>1653</ele>
        <time>2024-08-14T06:01:39Z</time>
      </trkpt>
      <trkpt lat="44.88178" lon="6.0897">
        <ele>1653.4</ele>
        <time>2024-08-14T06:01:40Z</time>
      </trkpt>
      <trkpt lat="44.88178" lon="6.0897">
        <ele>1653.6</ele>
        <time>2024-08-14T06:01:41Z</time>
      </trkpt>
      <trkpt lat="44.8818" lon="6.08971">
        <ele>1653.6</ele>
        <time>2024-08-14T06:01:42Z</time>
      </trkpt>
      <trkpt lat="44.8818" lon="6.08971">
        <ele>1653.6</ele>
        <time>2024-08-14T06:01:43Z</time>
      </trkpt>
      <trkpt lat="44.88182" lon="6.08971">
        <ele>1653.8</ele>
        <time>2024-08-14T06:01:44Z</time>
      </trkpt>
      <trkpt lat="44.88182" lon="6.08971">
        <ele>1654</ele>
        <time>2024-08-14T06:01:45Z</time>
      </trkpt>
      <trkpt lat="44.88184" lon="6.0897">
        <ele>1654</ele>
        <time>2024-08-14T06:01:46Z</time>
      </trkpt>
      <trkpt lat="44.88184" lon="6.0897">
        <ele>1653.6</ele>
        <time>2024-08-14T06:01:47Z</time>
      </trkpt>
      <trkpt lat="44.88186" lon="6.08969">
        <ele>1653.6</ele>
        <time>2024-08-14T06:01:48Z</time>
      </trkpt>
      <trkpt lat="44.88186" lon="6.08969">
        <ele>1653.6</ele>
        <time>2024-08-14T06:01:49Z</time>
      </trkpt>
      <trkpt lat="44.88186" lon="6.08969">
        <ele>1653.6</ele>
        <time>2024-08-14T06:01:50Z</time>
      </trkpt>
      <trkpt lat="44.88188" lon="6.08966">
        <ele>1653.8</ele>
        <time>2024-08-14T06:01:51Z</time>
      </trkpt>
      <trkpt lat="44.88188" lon="6.08966">
        <ele>1653.8</ele>
        <time>2024-08-14T06:01:52Z</time>
      </trkpt>
      <trkpt lat="44.88188" lon="6.08966">
        <ele>1653.8</ele>
        <time>2024-08-14T06:01:53Z</time>
      </trkpt>
      <trkpt lat="44.88188" lon="6.08966">
        <ele>1654</ele>
        <time>2024-08-14T06:01:54Z</time>
      </trkpt>
      <trkpt lat="44.88188" lon="6.08966">
        <ele>1654.2</ele>
        <time>2024-08-14T06:01:55Z</time>
      </trkpt>
      <trkpt lat="44.88189" lon="6.08963">
        <ele>1654.4</ele>
        <time>2024-08-14T06:01:56Z</time>
      </trkpt>
      <trkpt lat="44.88189" lon="6.08963">
        <ele>1654.8</ele>
        <time>2024-08-14T06:01:57Z</time>
      </trkpt>
      <trkpt lat="44.88189" lon="6.08963">
        <ele>1655.2</ele>
        <time>2024-08-14T06:01:58Z</time>
      </trkpt>
      <trkpt lat="44.88189" lon="6.08963">
        <ele>1655.2</ele>
        <time>2024-08-14T06:01:59Z</time>
      </trkpt>
      <trkpt lat="44.8819" lon="6.0896">
        <ele>1655.6</ele>
        <time>2024-08-14T06:02:00Z</time>
      </trkpt>
      <trkpt lat="44.8819" lon="6.0896">
        <ele>1655.8</ele>
        <time>2024-08-14T06:02:01Z</time>
      </trkpt>
      <trkpt lat="44.88191" lon="6.08958">
        <ele>1656.2</ele>
        <time>2024-08-14T06:02:02Z</time>
      </trkpt>
      <trkpt lat="44.88191" lon="6.08958">
        <ele>1656.2</ele>
        <time>2024-08-14T06:02:03Z</time>
      </trkpt>
      <trkpt lat="44.88192" lon="6.08956">
        <ele>1656.2</ele>
        <time>2024-08-14T06:02:04Z</time>
      </trkpt>
      <trkpt lat="44.88192" lon="6.08956">
        <ele>1656.4</ele>
        <time>2024-08-14T06:02:05Z</time>
      </trkpt>
      <trkpt lat="44.88194" lon="6.08954">
        <ele>1656.6</ele>
        <time>2024-08-14T06:02:06Z</time>
      </trkpt>
      <trkpt lat="44.88194" lon="6.08954">
        <ele>1656.6</ele>
        <time>2024-08-14T06:02:07Z</time>
      </trkpt>
      <trkpt lat="44.88194" lon="6.08954">
        <ele>1656.8</ele>
        <time>2024-08-14T06:02:08Z</time>
      </trkpt>
      <trkpt lat="44.88196" lon="6.08953">
        <ele>1657</ele>
        <time>2024-08-14T06:02:09Z</time>
      </trkpt>
      <trkpt lat="44.88196" lon="6.08953">
        <ele>1657.4</ele>
        <time>2024-08-14T06:02:10Z</time>
      </trkpt>
      <trkpt lat="44.88196" lon="6.08953">
        <ele>1657.6</ele>
        <time>2024-08-14T06:02:11Z</time>
      </trkpt>
      <trkpt lat="44.88198" lon="6.08952">
        <ele>1657.6</ele>
        <time>2024-08-14T06:02:12Z</time>
      </trkpt>
      <trkpt lat="44.88198" lon="6.08952">
        <ele>1657.8</ele>
        <time>2024-08-14T06:02:13Z</time>
      </trkpt>
      <trkpt lat="44.882" lon="6.08951">
        <ele>1658</ele>
        <time>2024-08-14T06:02:14Z</time>
      </trkpt>
      <trkpt lat="44.882" lon="6.08951">
        <ele>1658</ele>
        <time>2024-08-14T06:02:15Z</time>
      </trkpt>
      <trkpt lat="44.88202" lon="6.08949">
        <ele>1658.2</ele>
        <time>2024-08-14T06:02:16Z</time>
      </trkpt>
      <trkpt lat="44.88202" lon="6.08949">
        <ele>1658.6</ele>
        <time>2024-08-14T06:02:17Z</time>
      </trkpt>
      <trkpt lat="44.88204" lon="6.08948">
        <ele>1658.6</ele>
        <time>2024-08-14T06:02:18Z</time>
      </trkpt>
      <trkpt lat="44.88204" lon="6.08948">
        <ele>1658.6</ele>
        <time>2024-08-14T06:02:19Z</time>
      </trkpt>
      <trkpt lat="44.88206" lon="6.08947">
        <ele>1659</ele>
        <time>2024-08-14T06:02:20Z</time>
      </trkpt>
      <trkpt lat="44.88206" lon="6.08947">
        <ele>1659.2</ele>
        <time>2024-08-14T06:02:21Z</time>
      </trkpt>
      <trkpt lat="44.88208" lon="6.08946">
        <ele>1659.4</ele>
        <time>2024-08-14T06:02:22Z</time>
      </trkpt>
      <trkpt lat="44.88208" lon="6.08946">
        <ele>1659.6</ele>
        <time>2024-08-14T06:02:23Z</time>
      </trkpt>
      <trkpt lat="44.88208" lon="6.08946">
        <ele>1659.8</ele>
        <time>2024-08-14T06:02:24Z</time>
      </trkpt>
      <trkpt lat="44.8821" lon="6.08945">
        <ele>1660</ele>
        <time>2024-08-14T06:02:25Z</time>
      </trkpt>
      <trkpt lat="44.8821" lon="6.08945">
        <ele>1660.2</ele>
        <time>2024-08-14T06:02:26Z</time>
      </trkpt>
      <trkpt lat="44.8821" lon="6.08945">
        <ele>1660.8</ele>
        <time>2024-08-14T06:02:27Z</time>
      </trkpt>
      <trkpt lat="44.88213" lon="6.08945">
        <ele>1660.8</ele>
        <time>2024-08-14T06:02:28Z</time>
      </trkpt>
      <trkpt lat="44.88213" lon="6.08945">
        <ele>1661</ele>
        <time>2024-08-14T06:02:29Z</time>
      </trkpt>
      <trkpt lat="44.88213" lon="6.08945">
        <ele>1661.4</ele>
        <time>2024-08-14T06:02:30Z</time>
      </trkpt>
      <trkpt lat="44.88214" lon="6.08944">
        <ele>1661.8</ele>
        <time>2024-08-14T06:02:31Z</time>
      </trkpt>
      <trkpt lat="44.88214" lon="6.08944">
        <ele>1661.8</ele>
        <time>2024-08-14T06:02:32Z</time>
      </trkpt>
      <trkpt lat="44.88214" lon="6.08944">
        <ele>1662</ele>
        <time>2024-08-14T06:02:33Z</time>
      </trkpt>
      <trkpt lat="44.88216" lon="6.08942">
        <ele>1662.4</ele>
        <time>2024-08-14T06:02:34Z</time>
      </trkpt>
      <trkpt lat="44.88216" lon="6.08942">
        <ele>1662.6</ele>
        <time>2024-08-14T06:02:35Z</time>
      </trkpt>
      <trkpt lat="44.88216" lon="6.08942">
        <ele>1662.8</ele>
        <time>2024-08-14T06:02:36Z</time>
      </trkpt>
      <trkpt lat="44.88218" lon="6.0894">
        <ele>1663</ele>
        <time>2024-08-14T06:02:37Z</time>
      </trkpt>
      <trkpt lat="44.88218" lon="6.0894">
        <ele>1663</ele>
        <time>2024-08-14T06:02:38Z</time>
      </trkpt>
      <trkpt lat="44.8822" lon="6.08938">
        <ele>1663.2</ele>
        <time>2024-08-14T06:02:39Z</time>
      </trkpt>
      <trkpt lat="44.8822" lon="6.08938">
        <ele>1663.6</ele>
        <time>2024-08-14T06:02:40Z</time>
      </trkpt>
      <trkpt lat="44.8822" lon="6.08938">
        <ele>1663.6</ele>
        <time>2024-08-14T06:02:41Z</time>
      </trkpt>
      <trkpt lat="44.88221" lon="6.08936">
        <ele>1663.6</ele>
        <time>2024-08-14T06:02:42Z</time>
      </trkpt>
      <trkpt lat="44.88221" lon="6.08936">
        <ele>1663.8</ele>
        <time>2024-08-14T06:02:43Z</time>
      </trkpt>
      <trkpt lat="44.88223" lon="6.08933">
        <ele>1663.8</ele>
        <time>2024-08-14T06:02:44Z</time>
      </trkpt>
      <trkpt lat="44.88223" lon="6.08933">
        <ele>1663.8</ele>
        <time>2024-08-14T06:02:45Z</time>
      </trkpt>
      <trkpt lat="44.88223" lon="6.08933">
        <ele>1663.6</ele>
        <time>2024-08-14T06:02:46Z</time>
      </trkpt>
      <trkpt lat="44.88226" lon="6.08931">
        <ele>1663.6</ele>
        <time>2024-08-14T06:02:47Z</time>
      </trkpt>
      <trkpt lat="44.88226" lon="6.08931">
        <ele>1663.6</ele>
        <time>2024-08-14T06:02:48Z</time>
      </trkpt>
      <trkpt lat="44.88228" lon="6.0893">
        <ele>1664</ele>
        <time>2024-08-14T06:02:49Z</time>
      </trkpt>
      <trkpt lat="44.88228" lon="6.0893">
        <ele>1664.4</ele>
        <time>2024-08-14T06:02:50Z</time>
      </trkpt>
      <trkpt lat="44.88229" lon="6.08928">
        <ele>1664.4</ele>
        <time>2024-08-14T06:02:51Z</time>
      </trkpt>
      <trkpt lat="44.88229" lon="6.08928">
        <ele>1664.6</ele>
        <time>2024-08-14T06:02:52Z</time>
      </trkpt>
      <trkpt lat="44.88231" lon="6.08927">
        <ele>1664.6</ele>
        <time>2024-08-14T06:02:53Z</time>
      </trkpt>
      <trkpt lat="44.88231" lon="6.08927">
        <ele>1664.8</ele>
        <time>2024-08-14T06:02:54Z</time>
      </trkpt>
      <trkpt lat="44.88231" lon="6.08927">
        <ele>1665.2</ele>
        <time>2024-08-14T06:02:55Z</time>
      </trkpt>
      <trkpt lat="44.88233" lon="6.08924">
        <ele>1665.2</ele>
        <time>2024-08-14T06:02:56Z</time>
      </trkpt>
      <trkpt lat="44.88233" lon="6.08924">
        <ele>1665.2</ele>
        <time>2024-08-14T06:02:57Z</time>
      </trkpt>
      <trkpt lat="44.88235" lon="6.08922">
        <ele>1665.2</ele>
        <time>2024-08-14T06:02:58Z</time>
      </trkpt>
      <trkpt lat="44.88235" lon="6.08922">
        <ele>1665.8</ele>
        <time>2024-08-14T06:02:59Z</time>
      </trkpt>
      <trkpt lat="44.88235" lon="6.08922">
        <ele>1665.8</ele>
        <time>2024-08-14T06:03:00Z</time>
      </trkpt>
      <trkpt lat="44.88237" lon="6.0892">
        <ele>1665.8</ele>
        <time>2024-08-14T06:03:01Z</time>
      </trkpt>
      <trkpt lat="44.88237" lon="6.0892">
        <ele>1666.2</ele>
        <time>2024-08-14T06:03:02Z</time>
      </trkpt>
      <trkpt lat="44.88237" lon="6.0892">
        <ele>1666.2</ele>
        <time>2024-08-14T06:03:03Z</time>
      </trkpt>
      <trkpt lat="44.8824" lon="6.08918">
        <ele>1666.8</ele>
        <time>2024-08-14T06:03:04Z</time>
      </trkpt>
      <trkpt lat="44.8824" lon="6.08918">
        <ele>1666.8</ele>
        <time>2024-08-14T06:03:05Z</time>
      </trkpt>
      <trkpt lat="44.88241" lon="6.08917">
        <ele>1667</ele>
        <time>2024-08-14T06:03:06Z</time>
      </trkpt>
      <trkpt lat="44.88241" lon="6.08917">
        <ele>1667</ele>
        <time>2024-08-14T06:03:07Z</time>
      </trkpt>
      <trkpt lat="44.88244" lon="6.08916">
        <ele>1667.4</ele>
        <time>2024-08-14T06:03:08Z</time>
      </trkpt>
      <trkpt lat="44.88244" lon="6.08916">
        <ele>1667.4</ele>
        <time>2024-08-14T06:03:09Z</time>
      </trkpt>
      <trkpt lat="44.88244" lon="6.08916">
        <ele>1667.6</ele>
        <time>2024-08-14T06:03:10Z</time>
      </trkpt>
      <trkpt lat="44.88243" lon="6.08919">
        <ele>1667.6</ele>
        <time>2024-08-14T06:03:11Z</time>
      </trkpt>
      <trkpt lat="44.88243" lon="6.08919">
        <ele>1668</ele>
        <time>2024-08-14T06:03:12Z</time>
      </trkpt>
      <trkpt lat="44.88242" lon="6.08921">
        <ele>1668</ele>
        <time>2024-08-14T06:03:13Z</time>
      </trkpt>
      <trkpt lat="44.88242" lon="6.08921">
        <ele>1668.4</ele>
        <time>2024-08-14T06:03:14Z</time>
      </trkpt>
      <trkpt lat="44.88242" lon="6.08921">
        <ele>1668.4</ele>
        <time>2024-08-14T06:03:15Z</time>
      </trkpt>
      <trkpt lat="44.88241" lon="6.08924">
        <ele>1669</ele>
        <time>2024-08-14T06:03:16Z</time>
      </trkpt>
      <trkpt lat="44.88241" lon="6.08924">
        <ele>1669.2</ele>
        <time>2024-08-14T06:03:17Z</time>
      </trkpt>
      <trkpt lat="44.88241" lon="6.08924">
        <ele>1669.2</ele>
        <time>2024-08-14T06:03:18Z</time>
      </trkpt>
      <trkpt lat="44.88241" lon="6.08924">
        <ele>1669.6</ele>
        <time>2024-08-14T06:03:19Z</time>
      </trkpt>
      <trkpt lat="44.88241" lon="6.08924">
        <ele>1669.8</ele>
        <time>2024-08-14T06:03:20Z</time>
      </trkpt>
      <trkpt lat="44.8824" lon="6.08927">
        <ele>1670</ele>
        <time>2024-08-14T06:03:21Z</time>
      </trkpt>
      <trkpt lat="44.8824" lon="6.08927">
        <ele>1670</ele>
        <time>2024-08-14T06:03:22Z</time>
      </trkpt>
      <trkpt lat="44.88238" lon="6.0893">
        <ele>1670.2</ele>
        <time>2024-08-14T06:03:23Z</time>
      </trkpt>
      <trkpt lat="44.88238" lon="6.0893">
        <ele>1670.6</ele>
        <time>2024-08-14T06:03:24Z</time>
      </trkpt>
      <trkpt lat="44.88237" lon="6.08933">
        <ele>1670.6</ele>
        <time>2024-08-14T06:03:25Z</time>
      </trkpt>
      <trkpt lat="44.88237" lon="6.08933">
        <ele>1670.6</ele>
        <time>2024-08-14T06:03:26Z</time>
      </trkpt>
      <trkpt lat="44.88237" lon="6.08936">
        <ele>1670.8</ele>
        <time>2024-08-14T06:03:27Z</time>
      </trkpt>
      <trkpt lat="44.88237" lon="6.08936">
        <ele>1671</ele>
        <time>2024-08-14T06:03:28Z</time>
      </trkpt>
      <trkpt lat="44.88236" lon="6.08938">
        <ele>1671.2</ele>
        <time>2024-08-14T06:03:29Z</time>
      </trkpt>
      <trkpt lat="44.88236" lon="6.08938">
        <ele>1671.4</ele>
        <time>2024-08-14T06:03:30Z</time>
      </trkpt>
      <trkpt lat="44.88234" lon="6.0894">
        <ele>1671.6</ele>
        <time>2024-08-14T06:03:31Z</time>
      </trkpt>
      <trkpt lat="44.88234" lon="6.0894">
        <ele>1671.8</ele>
        <time>2024-08-14T06:03:32Z</time>
      </trkpt>
      <trkpt lat="44.88234" lon="6.0894">
        <ele>1672.2</ele>
        <time>2024-08-14T06:03:33Z</time>
      </trkpt>
      <trkpt lat="44.88233" lon="6.08942">
        <ele>1672.4</ele>
        <time>2024-08-14T06:03:34Z</time>
      </trkpt>
      <trkpt lat="44.88233" lon="6.08942">
        <ele>1672.6</ele>
        <time>2024-08-14T06:03:35Z</time>
      </trkpt>
      <trkpt lat="44.88233" lon="6.08942">
        <ele>1672.6</ele>
        <time>2024-08-14T06:03:36Z</time>
      </trkpt>
      <trkpt lat="44.88232" lon="6.08944">
        <ele>1672.8</ele>
        <time>2024-08-14T06:03:37Z</time>
      </trkpt>
      <trkpt lat="44.88232" lon="6.08944">
        <ele>1673.2</ele>
        <time>2024-08-14T06:03:38Z</time>
      </trkpt>
      <trkpt lat="44.88232" lon="6.08944">
        <ele>1673.6</ele>
        <time>2024-08-14T06:03:39Z</time>
      </trkpt>
      <trkpt lat="44.88232" lon="6.08944">
        <ele>1673.6</ele>
        <time>2024-08-14T06:03:40Z</time>
      </trkpt>
      <trkpt lat="44.88232" lon="6.08944">
        <ele>1674.2</ele>
        <time>2024-08-14T06:03:41Z</time>
      </trkpt>
      <trkpt lat="44.88232" lon="6.08944">
        <ele>1674.8</ele>
        <time>2024-08-14T06:03:42Z</time>
      </trkpt>
      <trkpt lat="44.88232" lon="6.08944">
        <ele>1674.8</ele>
        <time>2024-08-14T06:03:43Z</time>
      </trkpt>
      <trkpt lat="44.88232" lon="6.08944">
        <ele>1674.8</ele>
        <time>2024-08-14T06:03:44Z</time>
      </trkpt>
      <trkpt lat="44.88232" lon="6.08944">
        <ele>1674.8</ele>
        <time>2024-08-14T06:03:45Z</time>
      </trkpt>
      <trkpt lat="44.88232" lon="6.08944">
        <ele>1675</ele>
        <time>2024-08-14T06:03:46Z</time>
      </trkpt>
      <trkpt lat="44.88232" lon="6.08944">
        <ele>1675</ele>
        <time>2024-08-14T06:03:47Z</time>
      </trkpt>
      <trkpt lat="44.88233" lon="6.08946">
        <ele>1675.4</ele>
        <time>2024-08-14T06:03:48Z</time>
      </trkpt>
      <trkpt lat="44.88233" lon="6.08946">
        <ele>1675.6</ele>
        <time>2024-08-14T06:03:49Z</time>
      </trkpt>
      <trkpt lat="44.88233" lon="6.08946">
        <ele>1675.6</ele>
        <time>2024-08-14T06:03:50Z</time>
      </trkpt>
      <trkpt lat="44.88233" lon="6.08946">
        <ele>1676.2</ele>
        <time>2024-08-14T06:03:51Z</time>
      </trkpt>
      <trkpt lat="44.88233" lon="6.08946">
        <ele>1676.4</ele>
        <time>2024-08-14T06:03:52Z</time>
      </trkpt>
      <trkpt lat="44.88233" lon="6.08946">
        <ele>1676.6</ele>
        <time>2024-08-14T06:03:53Z</time>
      </trkpt>
      <trkpt lat="44.88235" lon="6.08945">
        <ele>1677.2</ele>
        <time>2024-08-14T06:03:54Z</time>
      </trkpt>
      <trkpt lat="44.88235" lon="6.08945">
        <ele>1677.2</ele>
        <time>2024-08-14T06:03:55Z</time>
      </trkpt>
      <trkpt lat="44.88235" lon="6.08945">
        <ele>1677.2</ele>
        <time>2024-08-14T06:03:56Z</time>
      </trkpt>
      <trkpt lat="44.88235" lon="6.08945">
        <ele>1677.4</ele>
        <time>2024-08-14T06:03:57Z</time>
      </trkpt>
      <trkpt lat="44.88238" lon="6.08943">
        <ele>1677.6</ele>
        <time>2024-08-14T06:03:58Z</time>
      </trkpt>
      <trkpt lat="44.8824" lon="6.08942">
        <ele>1677.8</ele>
        <time>2024-08-14T06:03:59Z</time>
      </trkpt>
      <trkpt lat="44.88242" lon="6.0894">
        <ele>1678</ele>
        <time>2024-08-14T06:04:00Z</time>
      </trkpt>
      <trkpt lat="44.88242" lon="6.0894">
        <ele>1678.2</ele>
        <time>2024-08-14T06:04:01Z</time>
      </trkpt>
      <trkpt lat="44.88244" lon="6.08938">
        <ele>1678.6</ele>
        <time>2024-08-14T06:04:02Z</time>
      </trkpt>
      <trkpt lat="44.88244" lon="6.08938">
        <ele>1678.6</ele>
        <time>2024-08-14T06:04:03Z</time>
      </trkpt>
      <trkpt lat="44.88246" lon="6.08935">
        <ele>1678.6</ele>
        <time>2024-08-14T06:04:04Z</time>
      </trkpt>
      <trkpt lat="44.88246" lon="6.08935">
        <ele>1678.6</ele>
        <time>2024-08-14T06:04:05Z</time>
      </trkpt>
      <trkpt lat="44.88248" lon="6.08933">
        <ele>1678.8</ele>
        <time>2024-08-14T06:04:06Z</time>
      </trkpt>
      <trkpt lat="44.88248" lon="6.08933">
        <ele>1679</ele>
        <time>2024-08-14T06:04:07Z</time>
      </trkpt>
      <trkpt lat="44.8825" lon="6.08932">
        <ele>1679.2</ele>
        <time>2024-08-14T06:04:08Z</time>
      </trkpt>
      <trkpt lat="44.8825" lon="6.08932">
        <ele>1679.2</ele>
        <time>2024-08-14T06:04:09Z</time>
      </trkpt>
      <trkpt lat="44.8825" lon="6.08932">
        <ele>1679.4</ele>
        <time>2024-08-14T06:04:10Z</time>
      </trkpt>
      <trkpt lat="44.88252" lon="6.0893">
        <ele>1679.4</ele>
        <time>2024-08-14T06:04:11Z</time>
      </trkpt>
      <trkpt lat="44.88252" lon="6.0893">
        <ele>1679.4</ele>
        <time>2024-08-14T06:04:12Z</time>
      </trkpt>
      <trkpt lat="44.88253" lon="6.08928">
        <ele>1679.8</ele>
        <time>2024-08-14T06:04:13Z</time>
      </trkpt>
      <trkpt lat="44.88253" lon="6.08928">
        <ele>1680.2</ele>
        <time>2024-08-14T06:04:14Z</time>
      </trkpt>
      <trkpt lat="44.88253" lon="6.08928">
        <ele>1680.4</ele>
        <time>2024-08-14T06:04:15Z</time>
      </trkpt>
      <trkpt lat="44.88255" lon="6.08926">
        <ele>1680.4</ele>
        <time>2024-08-14T06:04:16Z</time>
      </trkpt>
      <trkpt lat="44.88255" lon="6.08926">
        <ele>1680.4</ele>
        <time>2024-08-14T06:04:17Z</time>
      </trkpt>
      <trkpt lat="44.88257" lon="6.08924">
        <ele>1680.4</ele>
        <time>2024-08-14T06:04:18Z</time>
      </trkpt>
      <trkpt lat="44.88257" lon="6.08924">
        <ele>1680.6</ele>
        <time>2024-08-14T06:04:19Z</time>
      </trkpt>
      <trkpt lat="44.88259" lon="6.08922">
        <ele>1680.6</ele>
        <time>2024-08-14T06:04:20Z</time>
      </trkpt>
      <trkpt lat="44.88259" lon="6.08922">
        <ele>1681</ele>
        <time>2024-08-14T06:04:21Z</time>
      </trkpt>
      <trkpt lat="44.8826" lon="6.08919">
        <ele>1681.2</ele>
        <time>2024-08-14T06:04:22Z</time>
      </trkpt>
      <trkpt lat="44.8826" lon="6.08919">
        <ele>1681.4</ele>
        <time>2024-08-14T06:04:23Z</time>
      </trkpt>
      <trkpt lat="44.88261" lon="6.08917">
        <ele>1681.4</ele>
        <time>2024-08-14T06:04:24Z</time>
      </trkpt>
      <trkpt lat="44.88261" lon="6.08917">
        <ele>1681.4</ele>
        <time>2024-08-14T06:04:25Z</time>
      </trkpt>
      <trkpt lat="44.88263" lon="6.08914">
        <ele>1681.4</ele>
        <time>2024-08-14T06:04:26Z</time>
      </trkpt>
      <trkpt lat="44.88263" lon="6.08914">
        <ele>1681.8</ele>
        <time>2024-08-14T06:04:27Z</time>
      </trkpt>
      <trkpt lat="44.88264" lon="6.08912">
        <ele>1681.8</ele>
        <time>2024-08-14T06:04:28Z</time>
      </trkpt>
      <trkpt lat="44.88264" lon="6.08912">
        <ele>1681.8</ele>
        <time>2024-08-14T06:04:29Z</time>
      </trkpt>
      <trkpt lat="44.88266" lon="6.08909">
        <ele>1682</ele>
        <time>2024-08-14T06:04:30Z</time>
      </trkpt>
      <trkpt lat="44.88266" lon="6.08909">
        <ele>1682</ele>
        <time>2024-08-14T06:04:31Z</time>
      </trkpt>
      <trkpt lat="44.88267" lon="6.08907">
        <ele>1682</ele>
        <time>2024-08-14T06:04:32Z</time>
      </trkpt>
      <trkpt lat="44.88267" lon="6.08907">
        <ele>1681.8</ele>
        <time>2024-08-14T06:04:33Z</time>
      </trkpt>
      <trkpt lat="44.88268" lon="6.08904">
        <ele>1681.8</ele>
        <time>2024-08-14T06:04:34Z</time>
      </trkpt>
      <trkpt lat="44.88268" lon="6.08904">
        <ele>1681.8</ele>
        <time>2024-08-14T06:04:35Z</time>
      </trkpt>
      <trkpt lat="44.8827" lon="6.08901">
        <ele>1682.2</ele>
        <time>2024-08-14T06:04:36Z</time>
      </trkpt>
      <trkpt lat="44.8827" lon="6.08901">
        <ele>1682.4</ele>
        <time>2024-08-14T06:04:37Z</time>
      </trkpt>
      <trkpt lat="44.88272" lon="6.08899">
        <ele>1682.4</ele>
        <time>2024-08-14T06:04:38Z</time>
      </trkpt>
      <trkpt lat="44.88272" lon="6.08899">
        <ele>1682.4</ele>
        <time>2024-08-14T06:04:39Z</time>
      </trkpt>
      <trkpt lat="44.88273" lon="6.08897">
        <ele>1682.4</ele>
        <time>2024-08-14T06:04:40Z</time>
      </trkpt>
      <trkpt lat="44.88273" lon="6.08897">
        <ele>1682.8</ele>
        <time>2024-08-14T06:04:41Z</time>
      </trkpt>
      <trkpt lat="44.88273" lon="6.08897">
        <ele>1682.8</ele>
        <time>2024-08-14T06:04:42Z</time>
      </trkpt>
      <trkpt lat="44.88275" lon="6.08895">
        <ele>1683.2</ele>
        <time>2024-08-14T06:04:43Z</time>
      </trkpt>
      <trkpt lat="44.88275" lon="6.08895">
        <ele>1683.6</ele>
        <time>2024-08-14T06:04:44Z</time>
      </trkpt>
      <trkpt lat="44.88277" lon="6.08894">
        <ele>1683.8</ele>
        <time>2024-08-14T06:04:45Z</time>
      </trkpt>
      <trkpt lat="44.88277" lon="6.08894">
        <ele>1683.8</ele>
        <time>2024-08-14T06:04:46Z</time>
      </trkpt>
      <trkpt lat="44.88277" lon="6.08894">
        <ele>1684</ele>
        <time>2024-08-14T06:04:47Z</time>
      </trkpt>
      <trkpt lat="44.88279" lon="6.08892">
        <ele>1684.4</ele>
        <time>2024-08-14T06:04:48Z</time>
      </trkpt>
      <trkpt lat="44.88279" lon="6.08892">
        <ele>1684.6</ele>
        <time>2024-08-14T06:04:49Z</time>
      </trkpt>
      <trkpt lat="44.88281" lon="6.08891">
        <ele>1684.6</ele>
        <time>2024-08-14T06:04:50Z</time>
      </trkpt>
      <trkpt lat="44.88281" lon="6.08891">
        <ele>1684.8</ele>
        <time>2024-08-14T06:04:51Z</time>
      </trkpt>
      <trkpt lat="44.88281" lon="6.08891">
        <ele>1685.2</ele>
        <time>2024-08-14T06:04:52Z</time>
      </trkpt>
      <trkpt lat="44.88282" lon="6.08889">
        <ele>1685.8</ele>
        <time>2024-08-14T06:04:53Z</time>
      </trkpt>
      <trkpt lat="44.88282" lon="6.08889">
        <ele>1685.8</ele>
        <time>2024-08-14T06:04:54Z</time>
      </trkpt>
      <trkpt lat="44.88284" lon="6.08888">
        <ele>1685.8</ele>
        <time>2024-08-14T06:04:55Z</time>
      </trkpt>
      <trkpt lat="44.88284" lon="6.08888">
        <ele>1685.8</ele>
        <time>2024-08-14T06:04:56Z</time>
      </trkpt>
      <trkpt lat="44.88286" lon="6.08885">
        <ele>1686</ele>
        <time>2024-08-14T06:04:57Z</time>
      </trkpt>
      <trkpt lat="44.88286" lon="6.08885">
        <ele>1686.2</ele>
        <time>2024-08-14T06:04:58Z</time>
      </trkpt>
      <trkpt lat="44.88287" lon="6.08883">
        <ele>1686.2</ele>
        <time>2024-08-14T06:04:59Z</time>
      </trkpt>
      <trkpt lat="44.88287" lon="6.08883">
        <ele>1686.4</ele>
        <time>2024-08-14T06:05:00Z</time>
      </trkpt>
      <trkpt lat="44.88289" lon="6.08881">
        <ele>1686.6</ele>
        <time>2024-08-14T06:05:01Z</time>
      </trkpt>
      <trkpt lat="44.88289" lon="6.08881">
        <ele>1687</ele>
        <time>2024-08-14T06:05:02Z</time>
      </trkpt>
      <trkpt lat="44.88291" lon="6.0888">
        <ele>1687</ele>
        <time>2024-08-14T06:05:03Z</time>
      </trkpt>
      <trkpt lat="44.88291" lon="6.0888">
        <ele>1687</ele>
        <time>2024-08-14T06:05:04Z</time>
      </trkpt>
      <trkpt lat="44.88291" lon="6.0888">
        <ele>1687.2</ele>
        <time>2024-08-14T06:05:05Z</time>
      </trkpt>
      <trkpt lat="44.88293" lon="6.08877">
        <ele>1687.2</ele>
        <time>2024-08-14T06:05:06Z</time>
      </trkpt>
      <trkpt lat="44.88293" lon="6.08877">
        <ele>1687.6</ele>
        <time>2024-08-14T06:05:07Z</time>
      </trkpt>
      <trkpt lat="44.88293" lon="6.08877">
        <ele>1687.8</ele>
        <time>2024-08-14T06:05:08Z</time>
      </trkpt>
      <trkpt lat="44.88295" lon="6.08875">
        <ele>1688</ele>
        <time>2024-08-14T06:05:09Z</time>
      </trkpt>
      <trkpt lat="44.88295" lon="6.08875">
        <ele>1688.4</ele>
        <time>2024-08-14T06:05:10Z</time>
      </trkpt>
      <trkpt lat="44.88297" lon="6.08873">
        <ele>1688.4</ele>
        <time>2024-08-14T06:05:11Z</time>
      </trkpt>
      <trkpt lat="44.88297" lon="6.08873">
        <ele>1688.4</ele>
        <time>2024-08-14T06:05:12Z</time>
      </trkpt>
      <trkpt lat="44.88298" lon="6.08871">
        <ele>1688.6</ele>
        <time>2024-08-14T06:05:13Z</time>
      </trkpt>
      <trkpt lat="44.88298" lon="6.08871">
        <ele>1688.8</ele>
        <time>2024-08-14T06:05:14Z</time>
      </trkpt>
      <trkpt lat="44.883" lon="6.08869">
        <ele>1689.2</ele>
        <time>2024-08-14T06:05:15Z</time>
      </trkpt>
      <trkpt lat="44.883" lon="6.08869">
        <ele>1689.2</ele>
        <time>2024-08-14T06:05:16Z</time>
      </trkpt>
      <trkpt lat="44.883" lon="6.08869">
        <ele>1689.4</ele>
        <time>2024-08-14T06:05:17Z</time>
      </trkpt>
      <trkpt lat="44.88301" lon="6.08867">
        <ele>1689.6</ele>
        <time>2024-08-14T06:05:18Z</time>
      </trkpt>
      <trkpt lat="44.88301" lon="6.08867">
        <ele>1689.8</ele>
        <time>2024-08-14T06:05:19Z</time>
      </trkpt>
      <trkpt lat="44.88303" lon="6.08865">
        <ele>1689.8</ele>
        <time>2024-08-14T06:05:20Z</time>
      </trkpt>
      <trkpt lat="44.88303" lon="6.08865">
        <ele>1690</ele>
        <time>2024-08-14T06:05:21Z</time>
      </trkpt>
      <trkpt lat="44.88305" lon="6.08863">
        <ele>1690.2</ele>
        <time>2024-08-14T06:05:22Z</time>
      </trkpt>
      <trkpt lat="44.88305" lon="6.08863">
        <ele>1690.2</ele>
        <time>2024-08-14T06:05:23Z</time>
      </trkpt>
      <trkpt lat="44.88307" lon="6.08862">
        <ele>1690.6</ele>
        <time>2024-08-14T06:05:24Z</time>
      </trkpt>
      <trkpt lat="44.88307" lon="6.08862">
        <ele>1690.8</ele>
        <time>2024-08-14T06:05:25Z</time>
      </trkpt>
      <trkpt lat="44.88309" lon="6.08861">
        <ele>1690.8</ele>
        <time>2024-08-14T06:05:26Z</time>
      </trkpt>
      <trkpt lat="44.88309" lon="6.08861">
        <ele>1691.2</ele>
        <time>2024-08-14T06:05:27Z</time>
      </trkpt>
      <trkpt lat="44.88311" lon="6.0886">
        <ele>1691.2</ele>
        <time>2024-08-14T06:05:28Z</time>
      </trkpt>
      <trkpt lat="44.88311" lon="6.0886">
        <ele>1691.4</ele>
        <time>2024-08-14T06:05:29Z</time>
      </trkpt>
      <trkpt lat="44.88311" lon="6.0886">
        <ele>1692</ele>
        <time>2024-08-14T06:05:30Z</time>
      </trkpt>
      <trkpt lat="44.88313" lon="6.08859">
        <ele>1692.6</ele>
        <time>2024-08-14T06:05:31Z</time>
      </trkpt>
      <trkpt lat="44.88313" lon="6.08859">
        <ele>1693</ele>
        <time>2024-08-14T06:05:32Z</time>
      </trkpt>
      <trkpt lat="44.88313" lon="6.08859">
        <ele>1693</ele>
        <time>2024-08-14T06:05:33Z</time>
      </trkpt>
      <trkpt lat="44.88315" lon="6.08858">
        <ele>1693</ele>
        <time>2024-08-14T06:05:34Z</time>
      </trkpt>
      <trkpt lat="44.88315" lon="6.08858">
        <ele>1693.4</ele>
        <time>2024-08-14T06:05:35Z</time>
      </trkpt>
      <trkpt lat="44.88315" lon="6.08858">
        <ele>1693.6</ele>
        <time>2024-08-14T06:05:36Z</time>
      </trkpt>
      <trkpt lat="44.88317" lon="6.08857">
        <ele>1693.6</ele>
        <time>2024-08-14T06:05:37Z</time>
      </trkpt>
      <trkpt lat="44.88317" lon="6.08857">
        <ele>1693.6</ele>
        <time>2024-08-14T06:05:38Z</time>
      </trkpt>
      <trkpt lat="44.88317" lon="6.08857">
        <ele>1693.8</ele>
        <time>2024-08-14T06:05:39Z</time>
      </trkpt>
      <trkpt lat="44.88319" lon="6.08856">
        <ele>1694</ele>
        <time>2024-08-14T06:05:40Z</time>
      </trkpt>
      <trkpt lat="44.88319" lon="6.08856">
        <ele>1694.4</ele>
        <time>2024-08-14T06:05:41Z</time>
      </trkpt>
      <trkpt lat="44.88319" lon="6.08856">
        <ele>1694.4</ele>
        <time>2024-08-14T06:05:42Z</time>
      </trkpt>
      <trkpt lat="44.88321" lon="6.08855">
        <ele>1694.4</ele>
        <time>2024-08-14T06:05:43Z</time>
      </trkpt>
      <trkpt lat="44.88321" lon="6.08855">
        <ele>1695</ele>
        <time>2024-08-14T06:05:44Z</time>
      </trkpt>
      <trkpt lat="44.88321" lon="6.08855">
        <ele>1695</ele>
        <time>2024-08-14T06:05:45Z</time>
      </trkpt>
      <trkpt lat="44.88323" lon="6.08854">
        <ele>1695</ele>
        <time>2024-08-14T06:05:46Z</time>
      </trkpt>
      <trkpt lat="44.88323" lon="6.08854">
        <ele>1695.2</ele>
        <time>2024-08-14T06:05:47Z</time>
      </trkpt>
      <trkpt lat="44.88323" lon="6.08854">
        <ele>1695.4</ele>
        <time>2024-08-14T06:05:48Z</time>
      </trkpt>
      <trkpt lat="44.88323" lon="6.08854">
        <ele>1695.6</ele>
        <time>2024-08-14T06:05:49Z</time>
      </trkpt>
      <trkpt lat="44.88323" lon="6.08854">
        <ele>1695.8</ele>
        <time>2024-08-14T06:05:50Z</time>
      </trkpt>
      <trkpt lat="44.88325" lon="6.08854">
        <ele>1696.2</ele>
        <time>2024-08-14T06:05:51Z</time>
      </trkpt>
      <trkpt lat="44.88325" lon="6.08854">
        <ele>1696.2</ele>
        <time>2024-08-14T06:05:52Z</time>
      </trkpt>
      <trkpt lat="44.88325" lon="6.08854">
        <ele>1696.6</ele>
        <time>2024-08-14T06:05:53Z</time>
      </trkpt>
      <trkpt lat="44.88326" lon="6.08853">
        <ele>1696.8</ele>
        <time>2024-08-14T06:05:54Z</time>
      </trkpt>
      <trkpt lat="44.88326" lon="6.08853">
        <ele>1696.8</ele>
        <time>2024-08-14T06:05:55Z</time>
      </trkpt>
      <trkpt lat="44.88326" lon="6.08853">
        <ele>1697.2</ele>
        <time>2024-08-14T06:05:56Z</time>
      </trkpt>
      <trkpt lat="44.88328" lon="6.08852">
        <ele>1697.4</ele>
        <time>2024-08-14T06:05:57Z</time>
      </trkpt>
      <trkpt lat="44.88328" lon="6.08852">
        <ele>1697.6</ele>
        <time>2024-08-14T06:05:58Z</time>
      </trkpt>
      <trkpt lat="44.88328" lon="6.08852">
        <ele>1697.8</ele>
        <time>2024-08-14T06:05:59Z</time>
      </trkpt>
      <trkpt lat="44.88331" lon="6.0885">
        <ele>1698</ele>
        <time>2024-08-14T06:06:00Z</time>
      </trkpt>
      <trkpt lat="44.88331" lon="6.0885">
        <ele>1698.2</ele>
        <time>2024-08-14T06:06:01Z</time>
      </trkpt>
      <trkpt lat="44.88331" lon="6.0885">
        <ele>1698.8</ele>
        <time>2024-08-14T06:06:02Z</time>
      </trkpt>
      <trkpt lat="44.88333" lon="6.08849">
        <ele>1698.8</ele>
        <time>2024-08-14T06:06:03Z</time>
      </trkpt>
      <trkpt lat="44.88333" lon="6.08849">
        <ele>1699</ele>
        <time>2024-08-14T06:06:04Z</time>
      </trkpt>
      <trkpt lat="44.88333" lon="6.08849">
        <ele>1699.4</ele>
        <time>2024-08-14T06:06:05Z</time>
      </trkpt>
      <trkpt lat="44.88335" lon="6.08847">
        <ele>1699.6</ele>
        <time>2024-08-14T06:06:06Z</time>
      </trkpt>
      <trkpt lat="44.88335" lon="6.08847">
        <ele>1699.6</ele>
        <time>2024-08-14T06:06:07Z</time>
      </trkpt>
      <trkpt lat="44.88335" lon="6.08847">
        <ele>1699.8</ele>
        <time>2024-08-14T06:06:08Z</time>
      </trkpt>
      <trkpt lat="44.88335" lon="6.08847">
        <ele>1699.8</ele>
        <time>2024-08-14T06:06:09Z</time>
      </trkpt>
      <trkpt lat="44.88337" lon="6.08846">
        <ele>1700</ele>
        <time>2024-08-14T06:06:10Z</time>
      </trkpt>
      <trkpt lat="44.88337" lon="6.08846">
        <ele>1700.2</ele>
        <time>2024-08-14T06:06:11Z</time>
      </trkpt>
      <trkpt lat="44.88337" lon="6.08846">
        <ele>1700.2</ele>
        <time>2024-08-14T06:06:12Z</time>
      </trkpt>
      <trkpt lat="44.88339" lon="6.08844">
        <ele>1700.6</ele>
        <time>2024-08-14T06:06:13Z</time>
      </trkpt>
      <trkpt lat="44.88339" lon="6.08844">
        <ele>1700.8</ele>
        <time>2024-08-14T06:06:14Z</time>
      </trkpt>
      <trkpt lat="44.88339" lon="6.08844">
        <ele>1701</ele>
        <time>2024-08-14T06:06:15Z</time>
      </trkpt>
      <trkpt lat="44.88341" lon="6.08843">
        <ele>1701.2</ele>
        <time>2024-08-14T06:06:16Z</time>
      </trkpt>
      <trkpt lat="44.88341" lon="6.08843">
        <ele>1701.2</ele>
        <time>2024-08-14T06:06:17Z</time>
      </trkpt>
      <trkpt lat="44.88341" lon="6.08843">
        <ele>1701.8</ele>
        <time>2024-08-14T06:06:18Z</time>
      </trkpt>
      <trkpt lat="44.88343" lon="6.08842">
        <ele>1702</ele>
        <time>2024-08-14T06:06:19Z</time>
      </trkpt>
      <trkpt lat="44.88343" lon="6.08842">
        <ele>1702</ele>
        <time>2024-08-14T06:06:20Z</time>
      </trkpt>
      <trkpt lat="44.88344" lon="6.0884">
        <ele>1702.2</ele>
        <time>2024-08-14T06:06:21Z</time>
      </trkpt>
      <trkpt lat="44.88344" lon="6.0884">
        <ele>1702.4</ele>
        <time>2024-08-14T06:06:22Z</time>
      </trkpt>
      <trkpt lat="44.88344" lon="6.0884">
        <ele>1702.4</ele>
        <time>2024-08-14T06:06:23Z</time>
      </trkpt>
      <trkpt lat="44.88347" lon="6.08838">
        <ele>1702.8</ele>
        <time>2024-08-14T06:06:24Z</time>
      </trkpt>
      <trkpt lat="44.88347" lon="6.08838">
        <ele>1703</ele>
        <time>2024-08-14T06:06:25Z</time>
      </trkpt>
      <trkpt lat="44.88347" lon="6.08838">
        <ele>1703.4</ele>
        <time>2024-08-14T06:06:26Z</time>
      </trkpt>
      <trkpt lat="44.88349" lon="6.08836">
        <ele>1703.4</ele>
        <time>2024-08-14T06:06:27Z</time>
      </trkpt>
      <trkpt lat="44.88349" lon="6.08836">
        <ele>1703.6</ele>
        <time>2024-08-14T06:06:28Z</time>
      </trkpt>
      <trkpt lat="44.88349" lon="6.08836">
        <ele>1703.8</ele>
        <time>2024-08-14T06:06:29Z</time>
      </trkpt>
      <trkpt lat="44.8835" lon="6.08834">
        <ele>1704</ele>
        <time>2024-08-14T06:06:30Z</time>
      </trkpt>
      <trkpt lat="44.8835" lon="6.08834">
        <ele>1704.4</ele>
        <time>2024-08-14T06:06:31Z</time>
      </trkpt>
      <trkpt lat="44.8835" lon="6.08834">
        <ele>1704.4</ele>
        <time>2024-08-14T06:06:32Z</time>
      </trkpt>
      <trkpt lat="44.88352" lon="6.08832">
        <ele>1704.4</ele>
        <time>2024-08-14T06:06:33Z</time>
      </trkpt>
      <trkpt lat="44.88352" lon="6.08832">
        <ele>1704.6</ele>
        <time>2024-08-14T06:06:34Z</time>
      </trkpt>
      <trkpt lat="44.88352" lon="6.08832">
        <ele>1704.8</ele>
        <time>2024-08-14T06:06:35Z</time>
      </trkpt>
      <trkpt lat="44.88355" lon="6.08831">
        <ele>1705</ele>
        <time>2024-08-14T06:06:36Z</time>
      </trkpt>
      <trkpt lat="44.88355" lon="6.08831">
        <ele>1705.2</ele>
        <time>2024-08-14T06:06:37Z</time>
      </trkpt>
      <trkpt lat="44.88355" lon="6.08831">
        <ele>1705.4</ele>
        <time>2024-08-14T06:06:38Z</time>
      </trkpt>
      <trkpt lat="44.88357" lon="6.08829">
        <ele>1705.8</ele>
        <time>2024-08-14T06:06:39Z</time>
      </trkpt>
      <trkpt lat="44.88357" lon="6.08829">
        <ele>1705.8</ele>
        <time>2024-08-14T06:06:40Z</time>
      </trkpt>
      <trkpt lat="44.88357" lon="6.08829">
        <ele>1705.8</ele>
        <time>2024-08-14T06:06:41Z</time>
      </trkpt>
      <trkpt lat="44.88358" lon="6.08827">
        <ele>1706</ele>
        <time>2024-08-14T06:06:42Z</time>
      </trkpt>
      <trkpt lat="44.88358" lon="6.08827">
        <ele>1706.2</ele>
        <time>2024-08-14T06:06:43Z</time>
      </trkpt>
      <trkpt lat="44.88358" lon="6.08827">
        <ele>1706.6</ele>
        <time>2024-08-14T06:06:44Z</time>
      </trkpt>
      <trkpt lat="44.8836" lon="6.08825">
        <ele>1707.2</ele>
        <time>2024-08-14T06:06:45Z</time>
      </trkpt>
      <trkpt lat="44.8836" lon="6.08825">
        <ele>1707.4</ele>
        <time>2024-08-14T06:06:46Z</time>
      </trkpt>
      <trkpt lat="44.8836" lon="6.08825">
        <ele>1707.4</ele>
        <time>2024-08-14T06:06:47Z</time>
      </trkpt>
      <trkpt lat="44.8836" lon="6.08825">
        <ele>1707.8</ele>
        <time>2024-08-14T06:06:48Z</time>
      </trkpt>
      <trkpt lat="44.88362" lon="6.08824">
        <ele>1708</ele>
        <time>2024-08-14T06:06:49Z</time>
      </trkpt>
      <trkpt lat="44.88362" lon="6.08824">
        <ele>1708.2</ele>
        <time>2024-08-14T06:06:50Z</time>
      </trkpt>
      <trkpt lat="44.88362" lon="6.08824">
        <ele>1708.2</ele>
        <time>2024-08-14T06:06:51Z</time>
      </trkpt>
      <trkpt lat="44.88362" lon="6.08824">
        <ele>1708.6</ele>
        <time>2024-08-14T06:06:52Z</time>
      </trkpt>
      <trkpt lat="44.88363" lon="6.08822">
        <ele>1708.6</ele>
        <time>2024-08-14T06:06:53Z</time>
      </trkpt>
      <trkpt lat="44.88363" lon="6.08822">
        <ele>1709</ele>
        <time>2024-08-14T06:06:54Z</time>
      </trkpt>
      <trkpt lat="44.88363" lon="6.08822">
        <ele>1709.2</ele>
        <time>2024-08-14T06:06:55Z</time>
      </trkpt>
      <trkpt lat="44.88365" lon="6.08821">
        <ele>1709.4</ele>
        <time>2024-08-14T06:06:56Z</time>
      </trkpt>
      <trkpt lat="44.88365" lon="6.08821">
        <ele>1709.4</ele>
        <time>2024-08-14T06:06:57Z</time>
      </trkpt>
      <trkpt lat="44.88367" lon="6.08821">
        <ele>1709.4</ele>
        <time>2024-08-14T06:06:58Z</time>
      </trkpt>
      <trkpt lat="44.88367" lon="6.08821">
        <ele>1709.8</ele>
        <time>2024-08-14T06:06:59Z</time>
      </trkpt>
      <trkpt lat="44.88367" lon="6.08821">
        <ele>1709.8</ele>
        <time>2024-08-14T06:07:00Z</time>
      </trkpt>
      <trkpt lat="44.88369" lon="6.08819">
        <ele>1710.2</ele>
        <time>2024-08-14T06:07:01Z</time>
      </trkpt>
      <trkpt lat="44.88369" lon="6.08819">
        <ele>1710.2</ele>
        <time>2024-08-14T06:07:02Z</time>
      </trkpt>
      <trkpt lat="44.88369" lon="6.08819">
        <ele>1710.2</ele>
        <time>2024-08-14T06:07:03Z</time>
      </trkpt>
      <trkpt lat="44.88372" lon="6.08818">
        <ele>1710.2</ele>
        <time>2024-08-14T06:07:04Z</time>
      </trkpt>
      <trkpt lat="44.88372" lon="6.08818">
        <ele>1710.6</ele>
        <time>2024-08-14T06:07:05Z</time>
      </trkpt>
      <trkpt lat="44.88372" lon="6.08818">
        <ele>1710.8</ele>
        <time>2024-08-14T06:07:06Z</time>
      </trkpt>
      <trkpt lat="44.88374" lon="6.08817">
        <ele>1711</ele>
        <time>2024-08-14T06:07:07Z</time>
      </trkpt>
      <trkpt lat="44.88374" lon="6.08817">
        <ele>1711.2</ele>
        <time>2024-08-14T06:07:08Z</time>
      </trkpt>
      <trkpt lat="44.88374" lon="6.08817">
        <ele>1711.6</ele>
        <time>2024-08-14T06:07:09Z</time>
      </trkpt>
      <trkpt lat="44.88376" lon="6.08815">
        <ele>1711.8</ele>
        <time>2024-08-14T06:07:10Z</time>
      </trkpt>
      <trkpt lat="44.88376" lon="6.08815">
        <ele>1711.8</ele>
        <time>2024-08-14T06:07:11Z</time>
      </trkpt>
      <trkpt lat="44.88376" lon="6.08815">
        <ele>1712.4</ele>
        <time>2024-08-14T06:07:12Z</time>
      </trkpt>
      <trkpt lat="44.88376" lon="6.08815">
        <ele>1712.4</ele>
        <time>2024-08-14T06:07:13Z</time>
      </trkpt>
      <trkpt lat="44.88378" lon="6.08815">
        <ele>1712.4</ele>
        <time>2024-08-14T06:07:14Z</time>
      </trkpt>
      <trkpt lat="44.88378" lon="6.08815">
        <ele>1713</ele>
        <time>2024-08-14T06:07:15Z</time>
      </trkpt>
      <trkpt lat="44.88378" lon="6.08815">
        <ele>1713.2</ele>
        <time>2024-08-14T06:07:16Z</time>
      </trkpt>
      <trkpt lat="44.88381" lon="6.08814">
        <ele>1713.4</ele>
        <time>2024-08-14T06:07:17Z</time>
      </trkpt>
      <trkpt lat="44.88381" lon="6.08814">
        <ele>1713.8</ele>
        <time>2024-08-14T06:07:18Z</time>
      </trkpt>
      <trkpt lat="44.88381" lon="6.08814">
        <ele>1713.8</ele>
        <time>2024-08-14T06:07:19Z</time>
      </trkpt>
      <trkpt lat="44.88382" lon="6.08814">
        <ele>1714</ele>
        <time>2024-08-14T06:07:20Z</time>
      </trkpt>
      <trkpt lat="44.88382" lon="6.08814">
        <ele>1714.2</ele>
        <time>2024-08-14T06:07:21Z</time>
      </trkpt>
      <trkpt lat="44.88382" lon="6.08814">
        <ele>1714.4</ele>
        <time>2024-08-14T06:07:22Z</time>
      </trkpt>
      <trkpt lat="44.88382" lon="6.08814">
        <ele>1715</ele>
        <time>2024-08-14T06:07:23Z</time>
      </trkpt>
      <trkpt lat="44.88384" lon="6.08813">
        <ele>1715</ele>
        <time>2024-08-14T06:07:24Z</time>
      </trkpt>
      <trkpt lat="44.88384" lon="6.08813">
        <ele>1715.2</ele>
        <time>2024-08-14T06:07:25Z</time>
      </trkpt>
      <trkpt lat="44.88384" lon="6.08813">
        <ele>1715.4</ele>
        <time>2024-08-14T06:07:26Z</time>
      </trkpt>
      <trkpt lat="44.88386" lon="6.08812">
        <ele>1715.6</ele>
        <time>2024-08-14T06:07:27Z</time>
      </trkpt>
      <trkpt lat="44.88386" lon="6.08812">
        <ele>1716.2</ele>
        <time>2024-08-14T06:07:28Z</time>
      </trkpt>
      <trkpt lat="44.88386" lon="6.08812">
        <ele>1716.2</ele>
        <time>2024-08-14T06:07:29Z</time>
      </trkpt>
      <trkpt lat="44.88389" lon="6.08811">
        <ele>1716.2</ele>
        <time>2024-08-14T06:07:30Z</time>
      </trkpt>
      <trkpt lat="44.88389" lon="6.08811">
        <ele>1716.4</ele>
        <time>2024-08-14T06:07:31Z</time>
      </trkpt>
      <trkpt lat="44.88389" lon="6.08811">
        <ele>1716.4</ele>
        <time>2024-08-14T06:07:32Z</time>
      </trkpt>
      <trkpt lat="44.88391" lon="6.0881">
        <ele>1716.8</ele>
        <time>2024-08-14T06:07:33Z</time>
      </trkpt>
      <trkpt lat="44.88391" lon="6.0881">
        <ele>1716.8</ele>
        <time>2024-08-14T06:07:34Z</time>
      </trkpt>
      <trkpt lat="44.88391" lon="6.0881">
        <ele>1717.2</ele>
        <time>2024-08-14T06:07:35Z</time>
      </trkpt>
      <trkpt lat="44.88393" lon="6.08809">
        <ele>1717.8</ele>
        <time>2024-08-14T06:07:36Z</time>
      </trkpt>
      <trkpt lat="44.88393" lon="6.08809">
        <ele>1718</ele>
        <time>2024-08-14T06:07:37Z</time>
      </trkpt>
      <trkpt lat="44.88395" lon="6.08808">
        <ele>1718</ele>
        <time>2024-08-14T06:07:38Z</time>
      </trkpt>
      <trkpt lat="44.88395" lon="6.08808">
        <ele>1718.2</ele>
        <time>2024-08-14T06:07:39Z</time>
      </trkpt>
      <trkpt lat="44.88397" lon="6.08806">
        <ele>1718.6</ele>
        <time>2024-08-14T06:07:40Z</time>
      </trkpt>
      <trkpt lat="44.88397" lon="6.08806">
        <ele>1718.6</ele>
        <time>2024-08-14T06:07:41Z</time>
      </trkpt>
      <trkpt lat="44.88399" lon="6.08805">
        <ele>1718.8</ele>
        <time>2024-08-14T06:07:42Z</time>
      </trkpt>
      <trkpt lat="44.88399" lon="6.08805">
        <ele>1719.4</ele>
        <time>2024-08-14T06:07:43Z</time>
      </trkpt>
      <trkpt lat="44.88401" lon="6.08805">
        <ele>1719.4</ele>
        <time>2024-08-14T06:07:44Z</time>
      </trkpt>
      <trkpt lat="44.88401" lon="6.08805">
        <ele>1719.4</ele>
        <time>2024-08-14T06:07:45Z</time>
      </trkpt>
      <trkpt lat="44.88401" lon="6.08805">
        <ele>1719.6</ele>
        <time>2024-08-14T06:07:46Z</time>
      </trkpt>
      <trkpt lat="44.88403" lon="6.08806">
        <ele>1719.8</ele>
        <time>2024-08-14T06:07:47Z</time>
      </trkpt>
      <trkpt lat="44.88403" lon="6.08806">
        <ele>1719.8</ele>
        <time>2024-08-14T06:07:48Z</time>
      </trkpt>
      <trkpt lat="44.88403" lon="6.08806">
        <ele>1720.4</ele>
        <time>2024-08-14T06:07:49Z</time>
      </trkpt>
      <trkpt lat="44.88405" lon="6.08806">
        <ele>1720.4</ele>
        <time>2024-08-14T06:07:50Z</time>
      </trkpt>
      <trkpt lat="44.88405" lon="6.08806">
        <ele>1720.4</ele>
        <time>2024-08-14T06:07:51Z</time>
      </trkpt>
      <trkpt lat="44.88405" lon="6.08806">
        <ele>1720.6</ele>
        <time>2024-08-14T06:07:52Z</time>
      </trkpt>
      <trkpt lat="44.88405" lon="6.08806">
        <ele>1720.8</ele>
        <time>2024-08-14T06:07:53Z</time>
      </trkpt>
      <trkpt lat="44.88407" lon="6.08807">
        <ele>1720.8</ele>
        <time>2024-08-14T06:07:54Z</time>
      </trkpt>
      <trkpt lat="44.88407" lon="6.08807">
        <ele>1721.2</ele>
        <time>2024-08-14T06:07:55Z</time>
      </trkpt>
      <trkpt lat="44.88407" lon="6.08807">
        <ele>1721.4</ele>
        <time>2024-08-14T06:07:56Z</time>
      </trkpt>
      <trkpt lat="44.88409" lon="6.08807">
        <ele>1721.6</ele>
        <time>2024-08-14T06:07:57Z</time>
      </trkpt>
      <trkpt lat="44.88409" lon="6.08807">
        <ele>1721.6</ele>
        <time>2024-08-14T06:07:58Z</time>
      </trkpt>
      <trkpt lat="44.88411" lon="6.08808">
        <ele>1721.6</ele>
        <time>2024-08-14T06:07:59Z</time>
      </trkpt>
      <trkpt lat="44.88411" lon="6.08808">
        <ele>1722</ele>
        <time>2024-08-14T06:08:00Z</time>
      </trkpt>
      <trkpt lat="44.88411" lon="6.08808">
        <ele>1722.2</ele>
        <time>2024-08-14T06:08:01Z</time>
      </trkpt>
      <trkpt lat="44.88411" lon="6.08808">
        <ele>1722.4</ele>
        <time>2024-08-14T06:08:02Z</time>
      </trkpt>
      <trkpt lat="44.88414" lon="6.08808">
        <ele>1722.4</ele>
        <time>2024-08-14T06:08:03Z</time>
      </trkpt>
      <trkpt lat="44.88414" lon="6.08808">
        <ele>1722.6</ele>
        <time>2024-08-14T06:08:04Z</time>
      </trkpt>
      <trkpt lat="44.88414" lon="6.08808">
        <ele>1723.2</ele>
        <time>2024-08-14T06:08:05Z</time>
      </trkpt>
      <trkpt lat="44.88414" lon="6.08808">
        <ele>1723.8</ele>
        <time>2024-08-14T06:08:06Z</time>
      </trkpt>
      <trkpt lat="44.88416" lon="6.08808">
        <ele>1723.8</ele>
        <time>2024-08-14T06:08:07Z</time>
      </trkpt>
      <trkpt lat="44.88416" lon="6.08808">
        <ele>1724</ele>
        <time>2024-08-14T06:08:08Z</time>
      </trkpt>
      <trkpt lat="44.88416" lon="6.08808">
        <ele>1724.2</ele>
        <time>2024-08-14T06:08:09Z</time>
      </trkpt>
      <trkpt lat="44.88418" lon="6.08808">
        <ele>1724.2</ele>
        <time>2024-08-14T06:08:10Z</time>
      </trkpt>
      <trkpt lat="44.88418" lon="6.08808">
        <ele>1724.4</ele>
        <time>2024-08-14T06:08:11Z</time>
      </trkpt>
      <trkpt lat="44.8842" lon="6.08808">
        <ele>1724.6</ele>
        <time>2024-08-14T06:08:12Z</time>
      </trkpt>
      <trkpt lat="44.8842" lon="6.08808">
        <ele>1724.8</ele>
        <time>2024-08-14T06:08:13Z</time>
      </trkpt>
      <trkpt lat="44.8842" lon="6.08808">
        <ele>1725</ele>
        <time>2024-08-14T06:08:14Z</time>
      </trkpt>
      <trkpt lat="44.8842" lon="6.08808">
        <ele>1725.4</ele>
        <time>2024-08-14T06:08:15Z</time>
      </trkpt>
      <trkpt lat="44.88422" lon="6.08808">
        <ele>1726</ele>
        <time>2024-08-14T06:08:16Z</time>
      </trkpt>
      <trkpt lat="44.88422" lon="6.08808">
        <ele>1726</ele>
        <time>2024-08-14T06:08:17Z</time>
      </trkpt>
      <trkpt lat="44.88422" lon="6.08808">
        <ele>1726</ele>
        <time>2024-08-14T06:08:18Z</time>
      </trkpt>
      <trkpt lat="44.88422" lon="6.08808">
        <ele>1726.2</ele>
        <time>2024-08-14T06:08:19Z</time>
      </trkpt>
      <trkpt lat="44.88424" lon="6.08807">
        <ele>1726.6</ele>
        <time>2024-08-14T06:08:20Z</time>
      </trkpt>
      <trkpt lat="44.88424" lon="6.08807">
        <ele>1726.8</ele>
        <time>2024-08-14T06:08:21Z</time>
      </trkpt>
      <trkpt lat="44.88424" lon="6.08807">
        <ele>1727</ele>
        <time>2024-08-14T06:08:22Z</time>
      </trkpt>
      <trkpt lat="44.88424" lon="6.08807">
        <ele>1727.2</ele>
        <time>2024-08-14T06:08:23Z</time>
      </trkpt>
      <trkpt lat="44.88427" lon="6.08806">
        <ele>1727.6</ele>
        <time>2024-08-14T06:08:24Z</time>
      </trkpt>
      <trkpt lat="44.88427" lon="6.08806">
        <ele>1727.8</ele>
        <time>2024-08-14T06:08:25Z</time>
      </trkpt>
      <trkpt lat="44.88427" lon="6.08806">
        <ele>1727.8</ele>
        <time>2024-08-14T06:08:26Z</time>
      </trkpt>
      <trkpt lat="44.88427" lon="6.08806">
        <ele>1728</ele>
        <time>2024-08-14T06:08:27Z</time>
      </trkpt>
      <trkpt lat="44.88429" lon="6.08805">
        <ele>1728.4</ele>
        <time>2024-08-14T06:08:28Z</time>
      </trkpt>
      <trkpt lat="44.88429" lon="6.08805">
        <ele>1728.6</ele>
        <time>2024-08-14T06:08:29Z</time>
      </trkpt>
      <trkpt lat="44.88429" lon="6.08805">
        <ele>1728.8</ele>
        <time>2024-08-14T06:08:30Z</time>
      </trkpt>
      <trkpt lat="44.88429" lon="6.08805">
        <ele>1729</ele>
        <time>2024-08-14T06:08:31Z</time>
      </trkpt>
      <trkpt lat="44.88429" lon="6.08805">
        <ele>1729</ele>
        <time>2024-08-14T06:08:32Z</time>
      </trkpt>
      <trkpt lat="44.88431" lon="6.08805">
        <ele>1729</ele>
        <time>2024-08-14T06:08:33Z</time>
      </trkpt>
      <trkpt lat="44.88431" lon="6.08805">
        <ele>1729</ele>
        <time>2024-08-14T06:08:34Z</time>
      </trkpt>
      <trkpt lat="44.88431" lon="6.08805">
        <ele>1729.2</ele>
        <time>2024-08-14T06:08:35Z</time>
      </trkpt>
      <trkpt lat="44.8843" lon="6.08808">
        <ele>1729.6</ele>
        <time>2024-08-14T06:08:36Z</time>
      </trkpt>
      <trkpt lat="44.8843" lon="6.08808">
        <ele>1730</ele>
        <time>2024-08-14T06:08:37Z</time>
      </trkpt>
      <trkpt lat="44.8843" lon="6.08808">
        <ele>1730.4</ele>
        <time>2024-08-14T06:08:38Z</time>
      </trkpt>
      <trkpt lat="44.8843" lon="6.08808">
        <ele>1730.8</ele>
        <time>2024-08-14T06:08:39Z</time>
      </trkpt>
      <trkpt lat="44.8843" lon="6.08808">
        <ele>1731.2</ele>
        <time>2024-08-14T06:08:40Z</time>
      </trkpt>
      <trkpt lat="44.8843" lon="6.08808">
        <ele>1731.6</ele>
        <time>2024-08-14T06:08:41Z</time>
      </trkpt>
      <trkpt lat="44.8843" lon="6.08808">
        <ele>1731.6</ele>
        <time>2024-08-14T06:08:42Z</time>
      </trkpt>
      <trkpt lat="44.8843" lon="6.08808">
        <ele>1731.6</ele>
        <time>2024-08-14T06:08:43Z</time>
      </trkpt>
      <trkpt lat="44.8843" lon="6.08808">
        <ele>1731.6</ele>
        <time>2024-08-14T06:08:44Z</time>
      </trkpt>
      <trkpt lat="44.8843" lon="6.08808">
        <ele>1731.8</ele>
        <time>2024-08-14T06:08:45Z</time>
      </trkpt>
      <trkpt lat="44.8843" lon="6.08808">
        <ele>1731.8</ele>
        <time>2024-08-14T06:08:46Z</time>
      </trkpt>
      <trkpt lat="44.8843" lon="6.08808">
        <ele>1731.8</ele>
        <time>2024-08-14T06:08:47Z</time>
      </trkpt>
      <trkpt lat="44.8843" lon="6.08808">
        <ele>1731.8</ele>
        <time>2024-08-14T06:08:48Z</time>
      </trkpt>
      <trkpt lat="44.8843" lon="6.08808">
        <ele>1732</ele>
        <time>2024-08-14T06:08:49Z</time>
      </trkpt>
      <trkpt lat="44.8843" lon="6.08808">
        <ele>1732.2</ele>
        <time>2024-08-14T06:08:50Z</time>
      </trkpt>
      <trkpt lat="44.88432" lon="6.08808">
        <ele>1732.2</ele>
        <time>2024-08-14T06:08:51Z</time>
      </trkpt>
      <trkpt lat="44.88432" lon="6.08808">
        <ele>1732.4</ele>
        <time>2024-08-14T06:08:52Z</time>
      </trkpt>
      <trkpt lat="44.88432" lon="6.08808">
        <ele>1733</ele>
        <time>2024-08-14T06:08:53Z</time>
      </trkpt>
      <trkpt lat="44.88435" lon="6.08807">
        <ele>1733</ele>
        <time>2024-08-14T06:08:54Z</time>
      </trkpt>
      <trkpt lat="44.88435" lon="6.08807">
        <ele>1732.8</ele>
        <time>2024-08-14T06:08:55Z</time>
      </trkpt>
      <trkpt lat="44.88437" lon="6.08806">
        <ele>1732.8</ele>
        <time>2024-08-14T06:08:56Z</time>
      </trkpt>
      <trkpt lat="44.88437" lon="6.08806">
        <ele>1733.2</ele>
        <time>2024-08-14T06:08:57Z</time>
      </trkpt>
      <trkpt lat="44.88437" lon="6.08806">
        <ele>1733.6</ele>
        <time>2024-08-14T06:08:58Z</time>
      </trkpt>
      <trkpt lat="44.88438" lon="6.08805">
        <ele>1733.6</ele>
        <time>2024-08-14T06:08:59Z</time>
      </trkpt>
      <trkpt lat="44.88438" lon="6.08805">
        <ele>1734</ele>
        <time>2024-08-14T06:09:00Z</time>
      </trkpt>
      <trkpt lat="44.88438" lon="6.08805">
        <ele>1734.2</ele>
        <time>2024-08-14T06:09:01Z</time>
      </trkpt>
      <trkpt lat="44.8844" lon="6.08805">
        <ele>1734.6</ele>
        <time>2024-08-14T06:09:02Z</time>
      </trkpt>
      <trkpt lat="44.8844" lon="6.08805">
        <ele>1734.6</ele>
        <time>2024-08-14T06:09:03Z</time>
      </trkpt>
      <trkpt lat="44.8844" lon="6.08805">
        <ele>1735</ele>
        <time>2024-08-14T06:09:04Z</time>
      </trkpt>
      <trkpt lat="44.8844" lon="6.08805">
        <ele>1735.2</ele>
        <time>2024-08-14T06:09:05Z</time>
      </trkpt>
      <trkpt lat="44.8844" lon="6.08805">
        <ele>1735.6</ele>
        <time>2024-08-14T06:09:06Z</time>
      </trkpt>
      <trkpt lat="44.88442" lon="6.08805">
        <ele>1735.6</ele>
        <time>2024-08-14T06:09:07Z</time>
      </trkpt>
      <trkpt lat="44.88442" lon="6.08805">
        <ele>1735.6</ele>
        <time>2024-08-14T06:09:08Z</time>
      </trkpt>
      <trkpt lat="44.88442" lon="6.08805">
        <ele>1735.8</ele>
        <time>2024-08-14T06:09:09Z</time>
      </trkpt>
      <trkpt lat="44.88442" lon="6.08805">
        <ele>1735.8</ele>
        <time>2024-08-14T06:09:10Z</time>
      </trkpt>
      <trkpt lat="44.88442" lon="6.08805">
        <ele>1736.2</ele>
        <time>2024-08-14T06:09:11Z</time>
      </trkpt>
      <trkpt lat="44.88442" lon="6.08805">
        <ele>1736.4</ele>
        <time>2024-08-14T06:09:12Z</time>
      </trkpt>
      <trkpt lat="44.88444" lon="6.08805">
        <ele>1737.2</ele>
        <time>2024-08-14T06:09:13Z</time>
      </trkpt>
      <trkpt lat="44.88444" lon="6.08805">
        <ele>1737.2</ele>
        <time>2024-08-14T06:09:14Z</time>
      </trkpt>
      <trkpt lat="44.88444" lon="6.08805">
        <ele>1737.6</ele>
        <time>2024-08-14T06:09:15Z</time>
      </trkpt>
      <trkpt lat="44.88444" lon="6.08805">
        <ele>1737.6</ele>
        <time>2024-08-14T06:09:16Z</time>
      </trkpt>
      <trkpt lat="44.88444" lon="6.08805">
        <ele>1737.8</ele>
        <time>2024-08-14T06:09:17Z</time>
      </trkpt>
      <trkpt lat="44.88444" lon="6.08805">
        <ele>1738</ele>
        <time>2024-08-14T06:09:18Z</time>
      </trkpt>
      <trkpt lat="44.88444" lon="6.08805">
        <ele>1738</ele>
        <time>2024-08-14T06:09:19Z</time>
      </trkpt>
      <trkpt lat="44.88444" lon="6.08805">
        <ele>1738.6</ele>
        <time>2024-08-14T06:09:20Z</time>
      </trkpt>
      <trkpt lat="44.88444" lon="6.08805">
        <ele>1738.6</ele>
        <time>2024-08-14T06:09:21Z</time>
      </trkpt>
      <trkpt lat="44.88444" lon="6.08805">
        <ele>1738.6</ele>
        <time>2024-08-14T06:09:22Z</time>
      </trkpt>
      <trkpt lat="44.88444" lon="6.08805">
        <ele>1738.8</ele>
        <time>2024-08-14T06:09:23Z</time>
      </trkpt>
      <trkpt lat="44.88444" lon="6.08805">
        <ele>1739.4</ele>
        <time>2024-08-14T06:09:24Z</time>
      </trkpt>
      <trkpt lat="44.88444" lon="6.08805">
        <ele>1739.4</ele>
        <time>2024-08-14T06:09:25Z</time>
      </trkpt>
      <trkpt lat="44.88445" lon="6.08807">
        <ele>1739.4</ele>
        <time>2024-08-14T06:09:26Z</time>
      </trkpt>
      <trkpt lat="44.88445" lon="6.08807">
        <ele>1739.6</ele>
        <time>2024-08-14T06:09:27Z</time>
      </trkpt>
      <trkpt lat="44.88444" lon="6.08811">
        <ele>1739.8</ele>
        <time>2024-08-14T06:09:28Z</time>
      </trkpt>
      <trkpt lat="44.88443" lon="6.08813">
        <ele>1740</ele>
        <time>2024-08-14T06:09:29Z</time>
      </trkpt>
      <trkpt lat="44.88443" lon="6.08813">
        <ele>1740</ele>
        <time>2024-08-14T06:09:30Z</time>
      </trkpt>
      <trkpt lat="44.88441" lon="6.08816">
        <ele>1740</ele>
        <time>2024-08-14T06:09:31Z</time>
      </trkpt>
      <trkpt lat="44.88441" lon="6.08816">
        <ele>1740.2</ele>
        <time>2024-08-14T06:09:32Z</time>
      </trkpt>
      <trkpt lat="44.8844" lon="6.08819">
        <ele>1740.6</ele>
        <time>2024-08-14T06:09:33Z</time>
      </trkpt>
      <trkpt lat="44.8844" lon="6.08819">
        <ele>1740.6</ele>
        <time>2024-08-14T06:09:34Z</time>
      </trkpt>
      <trkpt lat="44.88438" lon="6.08821">
        <ele>1740.8</ele>
        <time>2024-08-14T06:09:35Z</time>
      </trkpt>
      <trkpt lat="44.88438" lon="6.08821">
        <ele>1740.8</ele>
        <time>2024-08-14T06:09:36Z</time>
      </trkpt>
      <trkpt lat="44.88438" lon="6.08821">
        <ele>1741.2</ele>
        <time>2024-08-14T06:09:37Z</time>
      </trkpt>
      <trkpt lat="44.88437" lon="6.08823">
        <ele>1741.2</ele>
        <time>2024-08-14T06:09:38Z</time>
      </trkpt>
      <trkpt lat="44.88437" lon="6.08823">
        <ele>1741.4</ele>
        <time>2024-08-14T06:09:39Z</time>
      </trkpt>
      <trkpt lat="44.88437" lon="6.08823">
        <ele>1741.6</ele>
        <time>2024-08-14T06:09:40Z</time>
      </trkpt>
      <trkpt lat="44.88435" lon="6.08825">
        <ele>1741.8</ele>
        <time>2024-08-14T06:09:41Z</time>
      </trkpt>
      <trkpt lat="44.88435" lon="6.08825">
        <ele>1742</ele>
        <time>2024-08-14T06:09:42Z</time>
      </trkpt>
      <trkpt lat="44.88435" lon="6.08825">
        <ele>1742.2</ele>
        <time>2024-08-14T06:09:43Z</time>
      </trkpt>
      <trkpt lat="44.88435" lon="6.08825">
        <ele>1742.6</ele>
        <time>2024-08-14T06:09:44Z</time>
      </trkpt>
      <trkpt lat="44.88435" lon="6.08825">
        <ele>1742.6</ele>
        <time>2024-08-14T06:09:45Z</time>
      </trkpt>
      <trkpt lat="44.88435" lon="6.08825">
        <ele>1742.8</ele>
        <time>2024-08-14T06:09:46Z</time>
      </trkpt>
      <trkpt lat="44.88435" lon="6.08825">
        <ele>1743</ele>
        <time>2024-08-14T06:09:47Z</time>
      </trkpt>
      <trkpt lat="44.88437" lon="6.08825">
        <ele>1743.2</ele>
        <time>2024-08-14T06:09:48Z</time>
      </trkpt>
      <trkpt lat="44.88437" lon="6.08825">
        <ele>1743.4</ele>
        <time>2024-08-14T06:09:49Z</time>
      </trkpt>
      <trkpt lat="44.88437" lon="6.08825">
        <ele>1744</ele>
        <time>2024-08-14T06:09:50Z</time>
      </trkpt>
      <trkpt lat="44.88437" lon="6.08825">
        <ele>1744</ele>
        <time>2024-08-14T06:09:51Z</time>
      </trkpt>
      <trkpt lat="44.88437" lon="6.08825">
        <ele>1744.2</ele>
        <time>2024-08-14T06:09:52Z</time>
      </trkpt>
      <trkpt lat="44.88439" lon="6.08824">
        <ele>1744.2</ele>
        <time>2024-08-14T06:09:53Z</time>
      </trkpt>
      <trkpt lat="44.88439" lon="6.08824">
        <ele>1744.2</ele>
        <time>2024-08-14T06:09:54Z</time>
      </trkpt>
      <trkpt lat="44.88439" lon="6.08824">
        <ele>1744.2</ele>
        <time>2024-08-14T06:09:55Z</time>
      </trkpt>
      <trkpt lat="44.88439" lon="6.08824">
        <ele>1744.8</ele>
        <time>2024-08-14T06:09:56Z</time>
      </trkpt>
      <trkpt lat="44.88439" lon="6.08824">
        <ele>1745.2</ele>
        <time>2024-08-14T06:09:57Z</time>
      </trkpt>
      <trkpt lat="44.88439" lon="6.08824">
        <ele>1745.2</ele>
        <time>2024-08-14T06:09:58Z</time>
      </trkpt>
      <trkpt lat="44.88439" lon="6.08824">
        <ele>1745.2</ele>
        <time>2024-08-14T06:09:59Z</time>
      </trkpt>
      <trkpt lat="44.88442" lon="6.08824">
        <ele>1745.2</ele>
        <time>2024-08-14T06:10:00Z</time>
      </trkpt>
      <trkpt lat="44.88442" lon="6.08824">
        <ele>1745.4</ele>
        <time>2024-08-14T06:10:01Z</time>
      </trkpt>
      <trkpt lat="44.88442" lon="6.08824">
        <ele>1746</ele>
        <time>2024-08-14T06:10:02Z</time>
      </trkpt>
      <trkpt lat="44.88442" lon="6.08824">
        <ele>1746</ele>
        <time>2024-08-14T06:10:03Z</time>
      </trkpt>
      <trkpt lat="44.88442" lon="6.08827">
        <ele>1746.2</ele>
        <time>2024-08-14T06:10:04Z</time>
      </trkpt>
      <trkpt lat="44.88442" lon="6.08827">
        <ele>1746.6</ele>
        <time>2024-08-14T06:10:05Z</time>
      </trkpt>
      <trkpt lat="44.88441" lon="6.08828">
        <ele>1746.6</ele>
        <time>2024-08-14T06:10:06Z</time>
      </trkpt>
      <trkpt lat="44.88441" lon="6.08828">
        <ele>1746.8</ele>
        <time>2024-08-14T06:10:07Z</time>
      </trkpt>
      <trkpt lat="44.88439" lon="6.0883">
        <ele>1747</ele>
        <time>2024-08-14T06:10:08Z</time>
      </trkpt>
      <trkpt lat="44.88439" lon="6.0883">
        <ele>1747</ele>
        <time>2024-08-14T06:10:09Z</time>
      </trkpt>
      <trkpt lat="44.88439" lon="6.0883">
        <ele>1747.2</ele>
        <time>2024-08-14T06:10:10Z</time>
      </trkpt>
      <trkpt lat="44.88437" lon="6.08832">
        <ele>1747.4</ele>
        <time>2024-08-14T06:10:11Z</time>
      </trkpt>
      <trkpt lat="44.88437" lon="6.08832">
        <ele>1747.4</ele>
        <time>2024-08-14T06:10:12Z</time>
      </trkpt>
      <trkpt lat="44.88437" lon="6.08832">
        <ele>1747.6</ele>
        <time>2024-08-14T06:10:13Z</time>
      </trkpt>
      <trkpt lat="44.88437" lon="6.08832">
        <ele>1747.6</ele>
        <time>2024-08-14T06:10:14Z</time>
      </trkpt>
      <trkpt lat="44.88437" lon="6.08832">
        <ele>1748.2</ele>
        <time>2024-08-14T06:10:15Z</time>
      </trkpt>
      <trkpt lat="44.88437" lon="6.08832">
        <ele>1748.8</ele>
        <time>2024-08-14T06:10:16Z</time>
      </trkpt>
      <trkpt lat="44.88437" lon="6.08832">
        <ele>1748.8</ele>
        <time>2024-08-14T06:10:17Z</time>
      </trkpt>
      <trkpt lat="44.88437" lon="6.08832">
        <ele>1748.8</ele>
        <time>2024-08-14T06:10:18Z</time>
      </trkpt>
      <trkpt lat="44.88439" lon="6.08832">
        <ele>1749.2</ele>
        <time>2024-08-14T06:10:19Z</time>
      </trkpt>
      <trkpt lat="44.88439" lon="6.08832">
        <ele>1749.6</ele>
        <time>2024-08-14T06:10:20Z</time>
      </trkpt>
      <trkpt lat="44.88439" lon="6.08832">
        <ele>1750</ele>
        <time>2024-08-14T06:10:21Z</time>
      </trkpt>
      <trkpt lat="44.88441" lon="6.08831">
        <ele>1750</ele>
        <time>2024-08-14T06:10:22Z</time>
      </trkpt>
      <trkpt lat="44.88441" lon="6.08831">
        <ele>1750.2</ele>
        <time>2024-08-14T06:10:23Z</time>
      </trkpt>
      <trkpt lat="44.88443" lon="6.08831">
        <ele>1750.2</ele>
        <time>2024-08-14T06:10:24Z</time>
      </trkpt>
      <trkpt lat="44.88443" lon="6.08831">
        <ele>1750.4</ele>
        <time>2024-08-14T06:10:25Z</time>
      </trkpt>
      <trkpt lat="44.88446" lon="6.0883">
        <ele>1750.4</ele>
        <time>2024-08-14T06:10:26Z</time>
      </trkpt>
      <trkpt lat="44.88446" lon="6.0883">
        <ele>1750.8</ele>
        <time>2024-08-14T06:10:27Z</time>
      </trkpt>
      <trkpt lat="44.88448" lon="6.08828">
        <ele>1751</ele>
        <time>2024-08-14T06:10:28Z</time>
      </trkpt>
      <trkpt lat="44.88448" lon="6.08828">
        <ele>1751</ele>
        <time>2024-08-14T06:10:29Z</time>
      </trkpt>
      <trkpt lat="44.8845" lon="6.08827">
        <ele>1751.2</ele>
        <time>2024-08-14T06:10:30Z</time>
      </trkpt>
      <trkpt lat="44.8845" lon="6.08827">
        <ele>1751.2</ele>
        <time>2024-08-14T06:10:31Z</time>
      </trkpt>
      <trkpt lat="44.8845" lon="6.08827">
        <ele>1751.6</ele>
        <time>2024-08-14T06:10:32Z</time>
      </trkpt>
      <trkpt lat="44.88453" lon="6.08826">
        <ele>1751.6</ele>
        <time>2024-08-14T06:10:33Z</time>
      </trkpt>
      <trkpt lat="44.88453" lon="6.08826">
        <ele>1751.8</ele>
        <time>2024-08-14T06:10:34Z</time>
      </trkpt>
      <trkpt lat="44.88453" lon="6.08826">
        <ele>1752</ele>
        <time>2024-08-14T06:10:35Z</time>
      </trkpt>
      <trkpt lat="44.88454" lon="6.08825">
        <ele>1752.2</ele>
        <time>2024-08-14T06:10:36Z</time>
      </trkpt>
      <trkpt lat="44.88454" lon="6.08825">
        <ele>1752.8</ele>
        <time>2024-08-14T06:10:37Z</time>
      </trkpt>
      <trkpt lat="44.88454" lon="6.08825">
        <ele>1752.8</ele>
        <time>2024-08-14T06:10:38Z</time>
      </trkpt>
      <trkpt lat="44.88456" lon="6.08824">
        <ele>1752.8</ele>
        <time>2024-08-14T06:10:39Z</time>
      </trkpt>
      <trkpt lat="44.88456" lon="6.08824">
        <ele>1753.2</ele>
        <time>2024-08-14T06:10:40Z</time>
      </trkpt>
      <trkpt lat="44.88456" lon="6.08824">
        <ele>1753.4</ele>
        <time>2024-08-14T06:10:41Z</time>
      </trkpt>
      <trkpt lat="44.88458" lon="6.08823">
        <ele>1753.8</ele>
        <time>2024-08-14T06:10:42Z</time>
      </trkpt>
      <trkpt lat="44.88458" lon="6.08823">
        <ele>1753.8</ele>
        <time>2024-08-14T06:10:43Z</time>
      </trkpt>
      <trkpt lat="44.88458" lon="6.08823">
        <ele>1754.6</ele>
        <time>2024-08-14T06:10:44Z</time>
      </trkpt>
      <trkpt lat="44.8846" lon="6.08822">
        <ele>1754.6</ele>
        <time>2024-08-14T06:10:45Z</time>
      </trkpt>
      <trkpt lat="44.8846" lon="6.08822">
        <ele>1754.6</ele>
        <time>2024-08-14T06:10:46Z</time>
      </trkpt>
      <trkpt lat="44.8846" lon="6.08822">
        <ele>1754.6</ele>
        <time>2024-08-14T06:10:47Z</time>
      </trkpt>
      <trkpt lat="44.88462" lon="6.08821">
        <ele>1754.8</ele>
        <time>2024-08-14T06:10:48Z</time>
      </trkpt>
      <trkpt lat="44.88462" lon="6.08821">
        <ele>1755</ele>
        <time>2024-08-14T06:10:49Z</time>
      </trkpt>
      <trkpt lat="44.88462" lon="6.08821">
        <ele>1755.2</ele>
        <time>2024-08-14T06:10:50Z</time>
      </trkpt>
      <trkpt lat="44.88464" lon="6.0882">
        <ele>1755.4</ele>
        <time>2024-08-14T06:10:51Z</time>
      </trkpt>
      <trkpt lat="44.88464" lon="6.0882">
        <ele>1756</ele>
        <time>2024-08-14T06:10:52Z</time>
      </trkpt>
      <trkpt lat="44.88464" lon="6.0882">
        <ele>1756</ele>
        <time>2024-08-14T06:10:53Z</time>
      </trkpt>
      <trkpt lat="44.88466" lon="6.08819">
        <ele>1756.2</ele>
        <time>2024-08-14T06:10:54Z</time>
      </trkpt>
      <trkpt lat="44.88466" lon="6.08819">
        <ele>1756.4</ele>
        <time>2024-08-14T06:10:55Z</time>
      </trkpt>
      <trkpt lat="44.88466" lon="6.08819">
        <ele>1756.6</ele>
        <time>2024-08-14T06:10:56Z</time>
      </trkpt>
      <trkpt lat="44.88469" lon="6.0882">
        <ele>1756.6</ele>
        <time>2024-08-14T06:10:57Z</time>
      </trkpt>
      <trkpt lat="44.88469" lon="6.0882">
        <ele>1756.8</ele>
        <time>2024-08-14T06:10:58Z</time>
      </trkpt>
      <trkpt lat="44.88469" lon="6.0882">
        <ele>1757.2</ele>
        <time>2024-08-14T06:10:59Z</time>
      </trkpt>
      <trkpt lat="44.8847" lon="6.08819">
        <ele>1757.2</ele>
        <time>2024-08-14T06:11:00Z</time>
      </trkpt>
      <trkpt lat="44.8847" lon="6.08819">
        <ele>1757.6</ele>
        <time>2024-08-14T06:11:01Z</time>
      </trkpt>
      <trkpt lat="44.8847" lon="6.08819">
        <ele>1758.2</ele>
        <time>2024-08-14T06:11:02Z</time>
      </trkpt>
      <trkpt lat="44.8847" lon="6.08819">
        <ele>1758.2</ele>
        <time>2024-08-14T06:11:03Z</time>
      </trkpt>
      <trkpt lat="44.88472" lon="6.08817">
        <ele>1758.2</ele>
        <time>2024-08-14T06:11:04Z</time>
      </trkpt>
      <trkpt lat="44.88472" lon="6.08817">
        <ele>1758.2</ele>
        <time>2024-08-14T06:11:05Z</time>
      </trkpt>
      <trkpt lat="44.88472" lon="6.08817">
        <ele>1758.6</ele>
        <time>2024-08-14T06:11:06Z</time>
      </trkpt>
      <trkpt lat="44.88474" lon="6.08816">
        <ele>1758.8</ele>
        <time>2024-08-14T06:11:07Z</time>
      </trkpt>
      <trkpt lat="44.88474" lon="6.08816">
        <ele>1758.8</ele>
        <time>2024-08-14T06:11:08Z</time>
      </trkpt>
      <trkpt lat="44.88474" lon="6.08816">
        <ele>1759.4</ele>
        <time>2024-08-14T06:11:09Z</time>
      </trkpt>
      <trkpt lat="44.88477" lon="6.08815">
        <ele>1759.4</ele>
        <time>2024-08-14T06:11:10Z</time>
      </trkpt>
      <trkpt lat="44.88477" lon="6.08815">
        <ele>1759.6</ele>
        <time>2024-08-14T06:11:11Z</time>
      </trkpt>
      <trkpt lat="44.88478" lon="6.08813">
        <ele>1759.6</ele>
        <time>2024-08-14T06:11:12Z</time>
      </trkpt>
      <trkpt lat="44.88478" lon="6.08813">
        <ele>1759.8</ele>
        <time>2024-08-14T06:11:13Z</time>
      </trkpt>
      <trkpt lat="44.88478" lon="6.08813">
        <ele>1759.8</ele>
        <time>2024-08-14T06:11:14Z</time>
      </trkpt>
      <trkpt lat="44.8848" lon="6.08812">
        <ele>1759.8</ele>
        <time>2024-08-14T06:11:15Z</time>
      </trkpt>
      <trkpt lat="44.8848" lon="6.08812">
        <ele>1760</ele>
        <time>2024-08-14T06:11:16Z</time>
      </trkpt>
      <trkpt lat="44.88482" lon="6.0881">
        <ele>1760</ele>
        <time>2024-08-14T06:11:17Z</time>
      </trkpt>
      <trkpt lat="44.88482" lon="6.0881">
        <ele>1760.2</ele>
        <time>2024-08-14T06:11:18Z</time>
      </trkpt>
      <trkpt lat="44.88482" lon="6.0881">
        <ele>1760.4</ele>
        <time>2024-08-14T06:11:19Z</time>
      </trkpt>
      <trkpt lat="44.88484" lon="6.08808">
        <ele>1760.8</ele>
        <time>2024-08-14T06:11:20Z</time>
      </trkpt>
      <trkpt lat="44.88484" lon="6.08808">
        <ele>1761</ele>
        <time>2024-08-14T06:11:21Z</time>
      </trkpt>
      <trkpt lat="44.88484" lon="6.08808">
        <ele>1761.2</ele>
        <time>2024-08-14T06:11:22Z</time>
      </trkpt>
      <trkpt lat="44.88484" lon="6.08808">
        <ele>1761.4</ele>
        <time>2024-08-14T06:11:23Z</time>
      </trkpt>
      <trkpt lat="44.88484" lon="6.08808">
        <ele>1761.6</ele>
        <time>2024-08-14T06:11:24Z</time>
      </trkpt>
      <trkpt lat="44.88484" lon="6.08808">
        <ele>1762</ele>
        <time>2024-08-14T06:11:25Z</time>
      </trkpt>
      <trkpt lat="44.88485" lon="6.08807">
        <ele>1762</ele>
        <time>2024-08-14T06:11:26Z</time>
      </trkpt>
      <trkpt lat="44.88485" lon="6.08807">
        <ele>1762</ele>
        <time>2024-08-14T06:11:27Z</time>
      </trkpt>
      <trkpt lat="44.88485" lon="6.08807">
        <ele>1762.2</ele>
        <time>2024-08-14T06:11:28Z</time>
      </trkpt>
      <trkpt lat="44.88488" lon="6.08806">
        <ele>1762.4</ele>
        <time>2024-08-14T06:11:29Z</time>
      </trkpt>
      <trkpt lat="44.88488" lon="6.08806">
        <ele>1762.6</ele>
        <time>2024-08-14T06:11:30Z</time>
      </trkpt>
      <trkpt lat="44.88488" lon="6.08806">
        <ele>1763</ele>
        <time>2024-08-14T06:11:31Z</time>
      </trkpt>
      <trkpt lat="44.8849" lon="6.08804">
        <ele>1763.2</ele>
        <time>2024-08-14T06:11:32Z</time>
      </trkpt>
      <trkpt lat="44.8849" lon="6.08804">
        <ele>1763.4</ele>
        <time>2024-08-14T06:11:33Z</time>
      </trkpt>
      <trkpt lat="44.8849" lon="6.08804">
        <ele>1763.6</ele>
        <time>2024-08-14T06:11:34Z</time>
      </trkpt>
      <trkpt lat="44.88492" lon="6.08802">
        <ele>1763.8</ele>
        <time>2024-08-14T06:11:35Z</time>
      </trkpt>
      <trkpt lat="44.88492" lon="6.08802">
        <ele>1764</ele>
        <time>2024-08-14T06:11:36Z</time>
      </trkpt>
      <trkpt lat="44.88492" lon="6.08802">
        <ele>1764.2</ele>
        <time>2024-08-14T06:11:37Z</time>
      </trkpt>
      <trkpt lat="44.88493" lon="6.088">
        <ele>1764.4</ele>
        <time>2024-08-14T06:11:38Z</time>
      </trkpt>
      <trkpt lat="44.88493" lon="6.088">
        <ele>1764.6</ele>
        <time>2024-08-14T06:11:39Z</time>
      </trkpt>
      <trkpt lat="44.88493" lon="6.088">
        <ele>1764.6</ele>
        <time>2024-08-14T06:11:40Z</time>
      </trkpt>
      <trkpt lat="44.88495" lon="6.088">
        <ele>1764.6</ele>
        <time>2024-08-14T06:11:41Z</time>
      </trkpt>
      <trkpt lat="44.88495" lon="6.088">
        <ele>1764.8</ele>
        <time>2024-08-14T06:11:42Z</time>
      </trkpt>
      <trkpt lat="44.88495" lon="6.088">
        <ele>1765</ele>
        <time>2024-08-14T06:11:43Z</time>
      </trkpt>
      <trkpt lat="44.88495" lon="6.088">
        <ele>1765</ele>
        <time>2024-08-14T06:11:44Z</time>
      </trkpt>
      <trkpt lat="44.88497" lon="6.088">
        <ele>1765</ele>
        <time>2024-08-14T06:11:45Z</time>
      </trkpt>
      <trkpt lat="44.88497" lon="6.088">
        <ele>1764.8</ele>
        <time>2024-08-14T06:11:46Z</time>
      </trkpt>
      <trkpt lat="44.88497" lon="6.088">
        <ele>1764.6</ele>
        <time>2024-08-14T06:11:47Z</time>
      </trkpt>
      <trkpt lat="44.88499" lon="6.08797">
        <ele>1764.4</ele>
        <time>2024-08-14T06:11:48Z</time>
      </trkpt>
      <trkpt lat="44.88499" lon="6.08797">
        <ele>1764.4</ele>
        <time>2024-08-14T06:11:49Z</time>
      </trkpt>
      <trkpt lat="44.88499" lon="6.08797">
        <ele>1764.2</ele>
        <time>2024-08-14T06:11:50Z</time>
      </trkpt>
      <trkpt lat="44.88499" lon="6.08797">
        <ele>1764.2</ele>
        <time>2024-08-14T06:11:51Z</time>
      </trkpt>
      <trkpt lat="44.88499" lon="6.08797">
        <ele>1764.2</ele>
        <time>2024-08-14T06:11:52Z</time>
      </trkpt>
      <trkpt lat="44.88501" lon="6.08797">
        <ele>1764.2</ele>
        <time>2024-08-14T06:11:53Z</time>
      </trkpt>
      <trkpt lat="44.88501" lon="6.08797">
        <ele>1764.4</ele>
        <time>2024-08-14T06:11:54Z</time>
      </trkpt>
      <trkpt lat="44.88501" lon="6.08797">
        <ele>1764.4</ele>
        <time>2024-08-14T06:11:55Z</time>
      </trkpt>
      <trkpt lat="44.88504" lon="6.08796">
        <ele>1765</ele>
        <time>2024-08-14T06:11:56Z</time>
      </trkpt>
      <trkpt lat="44.88504" lon="6.08796">
        <ele>1765</ele>
        <time>2024-08-14T06:11:57Z</time>
      </trkpt>
      <trkpt lat="44.88504" lon="6.08796">
        <ele>1765</ele>
        <time>2024-08-14T06:11:58Z</time>
      </trkpt>
      <trkpt lat="44.88504" lon="6.08796">
        <ele>1765</ele>
        <time>2024-08-14T06:11:59Z</time>
      </trkpt>
      <trkpt lat="44.88505" lon="6.08795">
        <ele>1765</ele>
        <time>2024-08-14T06:12:00Z</time>
      </trkpt>
      <trkpt lat="44.88505" lon="6.08795">
        <ele>1765.2</ele>
        <time>2024-08-14T06:12:01Z</time>
      </trkpt>
      <trkpt lat="44.88505" lon="6.08795">
        <ele>1765.8</ele>
        <time>2024-08-14T06:12:02Z</time>
      </trkpt>
      <trkpt lat="44.88505" lon="6.08795">
        <ele>1766</ele>
        <time>2024-08-14T06:12:03Z</time>
      </trkpt>
      <trkpt lat="44.88505" lon="6.08795">
        <ele>1766</ele>
        <time>2024-08-14T06:12:04Z</time>
      </trkpt>
      <trkpt lat="44.88505" lon="6.08791">
        <ele>1766.4</ele>
        <time>2024-08-14T06:12:05Z</time>
      </trkpt>
      <trkpt lat="44.88505" lon="6.08791">
        <ele>1766.4</ele>
        <time>2024-08-14T06:12:06Z</time>
      </trkpt>
      <trkpt lat="44.88505" lon="6.08791">
        <ele>1766.4</ele>
        <time>2024-08-14T06:12:07Z</time>
      </trkpt>
      <trkpt lat="44.88505" lon="6.08791">
        <ele>1766.4</ele>
        <time>2024-08-14T06:12:08Z</time>
      </trkpt>
      <trkpt lat="44.88505" lon="6.08789">
        <ele>1766.6</ele>
        <time>2024-08-14T06:12:09Z</time>
      </trkpt>
      <trkpt lat="44.88505" lon="6.08789">
        <ele>1766.6</ele>
        <time>2024-08-14T06:12:10Z</time>
      </trkpt>
      <trkpt lat="44.88505" lon="6.08789">
        <ele>1767</ele>
        <time>2024-08-14T06:12:11Z</time>
      </trkpt>
      <trkpt lat="44.88505" lon="6.08789">
        <ele>1767.4</ele>
        <time>2024-08-14T06:12:12Z</time>
      </trkpt>
      <trkpt lat="44.88504" lon="6.08785">
        <ele>1767.4</ele>
        <time>2024-08-14T06:12:13Z</time>
      </trkpt>
      <trkpt lat="44.88504" lon="6.08785">
        <ele>1767.4</ele>
        <time>2024-08-14T06:12:14Z</time>
      </trkpt>
      <trkpt lat="44.88504" lon="6.08785">
        <ele>1767.6</ele>
        <time>2024-08-14T06:12:15Z</time>
      </trkpt>
      <trkpt lat="44.88504" lon="6.08785">
        <ele>1767.8</ele>
        <time>2024-08-14T06:12:16Z</time>
      </trkpt>
      <trkpt lat="44.88504" lon="6.08785">
        <ele>1767.8</ele>
        <time>2024-08-14T06:12:17Z</time>
      </trkpt>
      <trkpt lat="44.88504" lon="6.08785">
        <ele>1767.8</ele>
        <time>2024-08-14T06:12:18Z</time>
      </trkpt>
      <trkpt lat="44.88504" lon="6.08785">
        <ele>1767.8</ele>
        <time>2024-08-14T06:12:19Z</time>
      </trkpt>
      <trkpt lat="44.88504" lon="6.08785">
        <ele>1767.8</ele>
        <time>2024-08-14T06:12:20Z</time>
      </trkpt>
      <trkpt lat="44.88504" lon="6.08785">
        <ele>1767.8</ele>
        <time>2024-08-14T06:12:21Z</time>
      </trkpt>
      <trkpt lat="44.88504" lon="6.08785">
        <ele>1767.8</ele>
        <time>2024-08-14T06:12:22Z</time>
      </trkpt>
      <trkpt lat="44.88504" lon="6.08785">
        <ele>1767.8</ele>
        <time>2024-08-14T06:12:23Z</time>
      </trkpt>
      <trkpt lat="44.88504" lon="6.08785">
        <ele>1768</ele>
        <time>2024-08-14T06:12:24Z</time>
      </trkpt>
      <trkpt lat="44.88504" lon="6.08785">
        <ele>1768</ele>
        <time>2024-08-14T06:12:25Z</time>
      </trkpt>
      <trkpt lat="44.88503" lon="6.08783">
        <ele>1768.4</ele>
        <time>2024-08-14T06:12:26Z</time>
      </trkpt>
      <trkpt lat="44.88503" lon="6.08783">
        <ele>1768.8</ele>
        <time>2024-08-14T06:12:27Z</time>
      </trkpt>
      <trkpt lat="44.88503" lon="6.08783">
        <ele>1769</ele>
        <time>2024-08-14T06:12:28Z</time>
      </trkpt>
      <trkpt lat="44.88502" lon="6.08781">
        <ele>1769.2</ele>
        <time>2024-08-14T06:12:29Z</time>
      </trkpt>
      <trkpt lat="44.88502" lon="6.08781">
        <ele>1769.2</ele>
        <time>2024-08-14T06:12:30Z</time>
      </trkpt>
      <trkpt lat="44.88502" lon="6.08781">
        <ele>1769.2</ele>
        <time>2024-08-14T06:12:31Z</time>
      </trkpt>
      <trkpt lat="44.88502" lon="6.08781">
        <ele>1769.2</ele>
        <time>2024-08-14T06:12:32Z</time>
      </trkpt>
      <trkpt lat="44.88504" lon="6.0878">
        <ele>1769.4</ele>
        <time>2024-08-14T06:12:33Z</time>
      </trkpt>
      <trkpt lat="44.88504" lon="6.0878">
        <ele>1770</ele>
        <time>2024-08-14T06:12:34Z</time>
      </trkpt>
      <trkpt lat="44.88506" lon="6.0878">
        <ele>1770</ele>
        <time>2024-08-14T06:12:35Z</time>
      </trkpt>
      <trkpt lat="44.88506" lon="6.0878">
        <ele>1770</ele>
        <time>2024-08-14T06:12:36Z</time>
      </trkpt>
      <trkpt lat="44.88506" lon="6.0878">
        <ele>1770.4</ele>
        <time>2024-08-14T06:12:37Z</time>
      </trkpt>
      <trkpt lat="44.88506" lon="6.0878">
        <ele>1770.4</ele>
        <time>2024-08-14T06:12:38Z</time>
      </trkpt>
      <trkpt lat="44.88506" lon="6.0878">
        <ele>1770.6</ele>
        <time>2024-08-14T06:12:39Z</time>
      </trkpt>
      <trkpt lat="44.88506" lon="6.0878">
        <ele>1770.8</ele>
        <time>2024-08-14T06:12:40Z</time>
      </trkpt>
      <trkpt lat="44.88506" lon="6.0878">
        <ele>1770.8</ele>
        <time>2024-08-14T06:12:41Z</time>
      </trkpt>
      <trkpt lat="44.88506" lon="6.0878">
        <ele>1771.6</ele>
        <time>2024-08-14T06:12:42Z</time>
      </trkpt>
      <trkpt lat="44.88506" lon="6.0878">
        <ele>1771.8</ele>
        <time>2024-08-14T06:12:43Z</time>
      </trkpt>
      <trkpt lat="44.88506" lon="6.0878">
        <ele>1771.8</ele>
        <time>2024-08-14T06:12:44Z</time>
      </trkpt>
      <trkpt lat="44.88504" lon="6.08778">
        <ele>1772</ele>
        <time>2024-08-14T06:12:45Z</time>
      </trkpt>
      <trkpt lat="44.88504" lon="6.08778">
        <ele>1772</ele>
        <time>2024-08-14T06:12:46Z</time>
      </trkpt>
      <trkpt lat="44.88501" lon="6.08775">
        <ele>1772.2</ele>
        <time>2024-08-14T06:12:47Z</time>
      </trkpt>
      <trkpt lat="44.88501" lon="6.08775">
        <ele>1772.4</ele>
        <time>2024-08-14T06:12:48Z</time>
      </trkpt>
      <trkpt lat="44.88501" lon="6.08775">
        <ele>1772.4</ele>
        <time>2024-08-14T06:12:49Z</time>
      </trkpt>
      <trkpt lat="44.88501" lon="6.08775">
        <ele>1772.8</ele>
        <time>2024-08-14T06:12:50Z</time>
      </trkpt>
      <trkpt lat="44.88501" lon="6.08775">
        <ele>1773.4</ele>
        <time>2024-08-14T06:12:51Z</time>
      </trkpt>
      <trkpt lat="44.88501" lon="6.08775">
        <ele>1773.4</ele>
        <time>2024-08-14T06:12:52Z</time>
      </trkpt>
      <trkpt lat="44.88503" lon="6.08776">
        <ele>1773</ele>
        <time>2024-08-14T06:12:53Z</time>
      </trkpt>
      <trkpt lat="44.88503" lon="6.08776">
        <ele>1773</ele>
        <time>2024-08-14T06:12:54Z</time>
      </trkpt>
      <trkpt lat="44.88506" lon="6.08776">
        <ele>1773</ele>
        <time>2024-08-14T06:12:55Z</time>
      </trkpt>
      <trkpt lat="44.88506" lon="6.08776">
        <ele>1773.2</ele>
        <time>2024-08-14T06:12:56Z</time>
      </trkpt>
      <trkpt lat="44.88509" lon="6.08777">
        <ele>1773.4</ele>
        <time>2024-08-14T06:12:57Z</time>
      </trkpt>
      <trkpt lat="44.88509" lon="6.08777">
        <ele>1773.4</ele>
        <time>2024-08-14T06:12:58Z</time>
      </trkpt>
      <trkpt lat="44.88509" lon="6.08777">
        <ele>1773.4</ele>
        <time>2024-08-14T06:12:59Z</time>
      </trkpt>
      <trkpt lat="44.88509" lon="6.08777">
        <ele>1773.4</ele>
        <time>2024-08-14T06:13:00Z</time>
      </trkpt>
      <trkpt lat="44.88509" lon="6.08777">
        <ele>1774.2</ele>
        <time>2024-08-14T06:13:01Z</time>
      </trkpt>
      <trkpt lat="44.88509" lon="6.08777">
        <ele>1774.4</ele>
        <time>2024-08-14T06:13:02Z</time>
      </trkpt>
      <trkpt lat="44.88509" lon="6.08777">
        <ele>1774.4</ele>
        <time>2024-08-14T06:13:03Z</time>
      </trkpt>
      <trkpt lat="44.88509" lon="6.08777">
        <ele>1774.4</ele>
        <time>2024-08-14T06:13:04Z</time>
      </trkpt>
      <trkpt lat="44.88509" lon="6.08777">
        <ele>1774.6</ele>
        <time>2024-08-14T06:13:05Z</time>
      </trkpt>
      <trkpt lat="44.88509" lon="6.08777">
        <ele>1775</ele>
        <time>2024-08-14T06:13:06Z</time>
      </trkpt>
      <trkpt lat="44.88509" lon="6.08777">
        <ele>1775</ele>
        <time>2024-08-14T06:13:07Z</time>
      </trkpt>
      <trkpt lat="44.88509" lon="6.08777">
        <ele>1775</ele>
        <time>2024-08-14T06:13:08Z</time>
      </trkpt>
      <trkpt lat="44.88509" lon="6.08777">
        <ele>1775</ele>
        <time>2024-08-14T06:13:09Z</time>
      </trkpt>
      <trkpt lat="44.88509" lon="6.08777">
        <ele>1775.2</ele>
        <time>2024-08-14T06:13:10Z</time>
      </trkpt>
      <trkpt lat="44.88509" lon="6.08777">
        <ele>1775.2</ele>
        <time>2024-08-14T06:13:11Z</time>
      </trkpt>
      <trkpt lat="44.88508" lon="6.08774">
        <ele>1775.4</ele>
        <time>2024-08-14T06:13:12Z</time>
      </trkpt>
      <trkpt lat="44.88508" lon="6.08774">
        <ele>1775.6</ele>
        <time>2024-08-14T06:13:13Z</time>
      </trkpt>
      <trkpt lat="44.88507" lon="6.08771">
        <ele>1775.8</ele>
        <time>2024-08-14T06:13:14Z</time>
      </trkpt>
      <trkpt lat="44.88507" lon="6.08771">
        <ele>1775.8</ele>
        <time>2024-08-14T06:13:15Z</time>
      </trkpt>
      <trkpt lat="44.88507" lon="6.08771">
        <ele>1775.8</ele>
        <time>2024-08-14T06:13:16Z</time>
      </trkpt>
      <trkpt lat="44.88506" lon="6.08769">
        <ele>1776.2</ele>
        <time>2024-08-14T06:13:17Z</time>
      </trkpt>
      <trkpt lat="44.88506" lon="6.08769">
        <ele>1776.8</ele>
        <time>2024-08-14T06:13:18Z</time>
      </trkpt>
      <trkpt lat="44.88506" lon="6.08769">
        <ele>1776.8</ele>
        <time>2024-08-14T06:13:19Z</time>
      </trkpt>
      <trkpt lat="44.88504" lon="6.08767">
        <ele>1776.8</ele>
        <time>2024-08-14T06:13:20Z</time>
      </trkpt>
      <trkpt lat="44.88504" lon="6.08767">
        <ele>1777.2</ele>
        <time>2024-08-14T06:13:21Z</time>
      </trkpt>
      <trkpt lat="44.88504" lon="6.08767">
        <ele>1777.6</ele>
        <time>2024-08-14T06:13:22Z</time>
      </trkpt>
      <trkpt lat="44.88504" lon="6.08767">
        <ele>1777.6</ele>
        <time>2024-08-14T06:13:23Z</time>
      </trkpt>
      <trkpt lat="44.88504" lon="6.08767">
        <ele>1777.6</ele>
        <time>2024-08-14T06:13:24Z</time>
      </trkpt>
      <trkpt lat="44.88504" lon="6.08765">
        <ele>1778.2</ele>
        <time>2024-08-14T06:13:25Z</time>
      </trkpt>
      <trkpt lat="44.88504" lon="6.08765">
        <ele>1778.6</ele>
        <time>2024-08-14T06:13:26Z</time>
      </trkpt>
      <trkpt lat="44.88504" lon="6.08765">
        <ele>1778.6</ele>
        <time>2024-08-14T06:13:27Z</time>
      </trkpt>
      <trkpt lat="44.88504" lon="6.08765">
        <ele>1778.6</ele>
        <time>2024-08-14T06:13:28Z</time>
      </trkpt>
      <trkpt lat="44.88502" lon="6.08762">
        <ele>1779.2</ele>
        <time>2024-08-14T06:13:29Z</time>
      </trkpt>
      <trkpt lat="44.88502" lon="6.08762">
        <ele>1779.2</ele>
        <time>2024-08-14T06:13:30Z</time>
      </trkpt>
      <trkpt lat="44.88502" lon="6.08762">
        <ele>1779.2</ele>
        <time>2024-08-14T06:13:31Z</time>
      </trkpt>
      <trkpt lat="44.88502" lon="6.08762">
        <ele>1779.8</ele>
        <time>2024-08-14T06:13:32Z</time>
      </trkpt>
      <trkpt lat="44.88502" lon="6.08762">
        <ele>1780.4</ele>
        <time>2024-08-14T06:13:33Z</time>
      </trkpt>
      <trkpt lat="44.88502" lon="6.08762">
        <ele>1780.4</ele>
        <time>2024-08-14T06:13:34Z</time>
      </trkpt>
      <trkpt lat="44.88502" lon="6.08762">
        <ele>1780.4</ele>
        <time>2024-08-14T06:13:35Z</time>
      </trkpt>
      <trkpt lat="44.88502" lon="6.08762">
        <ele>1780.6</ele>
        <time>2024-08-14T06:13:36Z</time>
      </trkpt>
      <trkpt lat="44.88502" lon="6.08762">
        <ele>1781</ele>
        <time>2024-08-14T06:13:37Z</time>
      </trkpt>
      <trkpt lat="44.88502" lon="6.08762">
        <ele>1781</ele>
        <time>2024-08-14T06:13:38Z</time>
      </trkpt>
      <trkpt lat="44.88502" lon="6.08762">
        <ele>1781.2</ele>
        <time>2024-08-14T06:13:39Z</time>
      </trkpt>
      <trkpt lat="44.88502" lon="6.08759">
        <ele>1781.4</ele>
        <time>2024-08-14T06:13:40Z</time>
      </trkpt>
      <trkpt lat="44.88502" lon="6.08759">
        <ele>1781.6</ele>
        <time>2024-08-14T06:13:41Z</time>
      </trkpt>
      <trkpt lat="44.88501" lon="6.08756">
        <ele>1782.2</ele>
        <time>2024-08-14T06:13:42Z</time>
      </trkpt>
      <trkpt lat="44.88501" lon="6.08756">
        <ele>1782.2</ele>
        <time>2024-08-14T06:13:43Z</time>
      </trkpt>
      <trkpt lat="44.88501" lon="6.08756">
        <ele>1782.4</ele>
        <time>2024-08-14T06:13:44Z</time>
      </trkpt>
      <trkpt lat="44.885" lon="6.08753">
        <ele>1782.6</ele>
        <time>2024-08-14T06:13:45Z</time>
      </trkpt>
      <trkpt lat="44.885" lon="6.08753">
        <ele>1783</ele>
        <time>2024-08-14T06:13:46Z</time>
      </trkpt>
      <trkpt lat="44.885" lon="6.08753">
        <ele>1783</ele>
        <time>2024-08-14T06:13:47Z</time>
      </trkpt>
      <trkpt lat="44.885" lon="6.08753">
        <ele>1783</ele>
        <time>2024-08-14T06:13:48Z</time>
      </trkpt>
      <trkpt lat="44.88501" lon="6.0875">
        <ele>1783.4</ele>
        <time>2024-08-14T06:13:49Z</time>
      </trkpt>
      <trkpt lat="44.88501" lon="6.0875">
        <ele>1783.6</ele>
        <time>2024-08-14T06:13:50Z</time>
      </trkpt>
      <trkpt lat="44.88501" lon="6.0875">
        <ele>1783.8</ele>
        <time>2024-08-14T06:13:51Z</time>
      </trkpt>
      <trkpt lat="44.88501" lon="6.0875">
        <ele>1784</ele>
        <time>2024-08-14T06:13:52Z</time>
      </trkpt>
      <trkpt lat="44.88501" lon="6.0875">
        <ele>1784</ele>
        <time>2024-08-14T06:13:53Z</time>
      </trkpt>
      <trkpt lat="44.88501" lon="6.08748">
        <ele>1784.2</ele>
        <time>2024-08-14T06:13:54Z</time>
      </trkpt>
      <trkpt lat="44.88501" lon="6.08748">
        <ele>1784.6</ele>
        <time>2024-08-14T06:13:55Z</time>
      </trkpt>
      <trkpt lat="44.88501" lon="6.08748">
        <ele>1784.8</ele>
        <time>2024-08-14T06:13:56Z</time>
      </trkpt>
      <trkpt lat="44.88501" lon="6.08748">
        <ele>1785</ele>
        <time>2024-08-14T06:13:57Z</time>
      </trkpt>
      <trkpt lat="44.88502" lon="6.08745">
        <ele>1785.2</ele>
        <time>2024-08-14T06:13:58Z</time>
      </trkpt>
      <trkpt lat="44.88502" lon="6.08745">
        <ele>1785.4</ele>
        <time>2024-08-14T06:13:59Z</time>
      </trkpt>
      <trkpt lat="44.88502" lon="6.08745">
        <ele>1785.4</ele>
        <time>2024-08-14T06:14:00Z</time>
      </trkpt>
      <trkpt lat="44.88504" lon="6.08744">
        <ele>1785.6</ele>
        <time>2024-08-14T06:14:01Z</time>
      </trkpt>
      <trkpt lat="44.88504" lon="6.08744">
        <ele>1786</ele>
        <time>2024-08-14T06:14:02Z</time>
      </trkpt>
      <trkpt lat="44.88504" lon="6.08744">
        <ele>1786</ele>
        <time>2024-08-14T06:14:03Z</time>
      </trkpt>
      <trkpt lat="44.88504" lon="6.08744">
        <ele>1786.4</ele>
        <time>2024-08-14T06:14:04Z</time>
      </trkpt>
      <trkpt lat="44.88504" lon="6.08744">
        <ele>1786.4</ele>
        <time>2024-08-14T06:14:05Z</time>
      </trkpt>
      <trkpt lat="44.88506" lon="6.08744">
        <ele>1786.4</ele>
        <time>2024-08-14T06:14:06Z</time>
      </trkpt>
      <trkpt lat="44.88506" lon="6.08744">
        <ele>1786.4</ele>
        <time>2024-08-14T06:14:07Z</time>
      </trkpt>
      <trkpt lat="44.88506" lon="6.08744">
        <ele>1787</ele>
        <time>2024-08-14T06:14:08Z</time>
      </trkpt>
      <trkpt lat="44.88506" lon="6.08744">
        <ele>1787</ele>
        <time>2024-08-14T06:14:09Z</time>
      </trkpt>
      <trkpt lat="44.88508" lon="6.08746">
        <ele>1787.2</ele>
        <time>2024-08-14T06:14:10Z</time>
      </trkpt>
      <trkpt lat="44.88508" lon="6.08746">
        <ele>1787.4</ele>
        <time>2024-08-14T06:14:11Z</time>
      </trkpt>
      <trkpt lat="44.88508" lon="6.08746">
        <ele>1787.8</ele>
        <time>2024-08-14T06:14:12Z</time>
      </trkpt>
      <trkpt lat="44.88509" lon="6.08747">
        <ele>1787.8</ele>
        <time>2024-08-14T06:14:13Z</time>
      </trkpt>
      <trkpt lat="44.88509" lon="6.08747">
        <ele>1788</ele>
        <time>2024-08-14T06:14:14Z</time>
      </trkpt>
      <trkpt lat="44.88509" lon="6.08747">
        <ele>1788</ele>
        <time>2024-08-14T06:14:15Z</time>
      </trkpt>
      <trkpt lat="44.88509" lon="6.08747">
        <ele>1788.4</ele>
        <time>2024-08-14T06:14:16Z</time>
      </trkpt>
      <trkpt lat="44.88509" lon="6.08747">
        <ele>1788.4</ele>
        <time>2024-08-14T06:14:17Z</time>
      </trkpt>
      <trkpt lat="44.88509" lon="6.08747">
        <ele>1788.4</ele>
        <time>2024-08-14T06:14:18Z</time>
      </trkpt>
      <trkpt lat="44.88509" lon="6.08747">
        <ele>1788.8</ele>
        <time>2024-08-14T06:14:19Z</time>
      </trkpt>
      <trkpt lat="44.8851" lon="6.0875">
        <ele>1789</ele>
        <time>2024-08-14T06:14:20Z</time>
      </trkpt>
      <trkpt lat="44.8851" lon="6.0875">
        <ele>1789</ele>
        <time>2024-08-14T06:14:21Z</time>
      </trkpt>
      <trkpt lat="44.8851" lon="6.0875">
        <ele>1789</ele>
        <time>2024-08-14T06:14:22Z</time>
      </trkpt>
      <trkpt lat="44.8851" lon="6.0875">
        <ele>1789.8</ele>
        <time>2024-08-14T06:14:23Z</time>
      </trkpt>
      <trkpt lat="44.88511" lon="6.08752">
        <ele>1790.2</ele>
        <time>2024-08-14T06:14:24Z</time>
      </trkpt>
      <trkpt lat="44.88511" lon="6.08752">
        <ele>1790.2</ele>
        <time>2024-08-14T06:14:25Z</time>
      </trkpt>
      <trkpt lat="44.88511" lon="6.08752">
        <ele>1790.2</ele>
        <time>2024-08-14T06:14:26Z</time>
      </trkpt>
      <trkpt lat="44.88513" lon="6.08753">
        <ele>1790.6</ele>
        <time>2024-08-14T06:14:27Z</time>
      </trkpt>
      <trkpt lat="44.88513" lon="6.08753">
        <ele>1790.6</ele>
        <time>2024-08-14T06:14:28Z</time>
      </trkpt>
      <trkpt lat="44.88513" lon="6.08753">
        <ele>1790.8</ele>
        <time>2024-08-14T06:14:29Z</time>
      </trkpt>
      <trkpt lat="44.88513" lon="6.08753">
        <ele>1790.8</ele>
        <time>2024-08-14T06:14:30Z</time>
      </trkpt>
      <trkpt lat="44.88513" lon="6.08753">
        <ele>1791</ele>
        <time>2024-08-14T06:14:31Z</time>
      </trkpt>
      <trkpt lat="44.88515" lon="6.08754">
        <ele>1791.2</ele>
        <time>2024-08-14T06:14:32Z</time>
      </trkpt>
      <trkpt lat="44.88515" lon="6.08754">
        <ele>1791.6</ele>
        <time>2024-08-14T06:14:33Z</time>
      </trkpt>
      <trkpt lat="44.88515" lon="6.08754">
        <ele>1791.6</ele>
        <time>2024-08-14T06:14:34Z</time>
      </trkpt>
      <trkpt lat="44.88515" lon="6.08754">
        <ele>1791.6</ele>
        <time>2024-08-14T06:14:35Z</time>
      </trkpt>
      <trkpt lat="44.88517" lon="6.08754">
        <ele>1792</ele>
        <time>2024-08-14T06:14:36Z</time>
      </trkpt>
      <trkpt lat="44.88517" lon="6.08754">
        <ele>1792.2</ele>
        <time>2024-08-14T06:14:37Z</time>
      </trkpt>
      <trkpt lat="44.88517" lon="6.08754">
        <ele>1792.4</ele>
        <time>2024-08-14T06:14:38Z</time>
      </trkpt>
      <trkpt lat="44.88517" lon="6.08754">
        <ele>1793</ele>
        <time>2024-08-14T06:14:39Z</time>
      </trkpt>
      <trkpt lat="44.88517" lon="6.08754">
        <ele>1793</ele>
        <time>2024-08-14T06:14:40Z</time>
      </trkpt>
      <trkpt lat="44.88517" lon="6.08754">
        <ele>1793</ele>
        <time>2024-08-14T06:14:41Z</time>
      </trkpt>
      <trkpt lat="44.88517" lon="6.08754">
        <ele>1793.2</ele>
        <time>2024-08-14T06:14:42Z</time>
      </trkpt>
      <trkpt lat="44.88519" lon="6.08753">
        <ele>1793.4</ele>
        <time>2024-08-14T06:14:43Z</time>
      </trkpt>
      <trkpt lat="44.88519" lon="6.08753">
        <ele>1794</ele>
        <time>2024-08-14T06:14:44Z</time>
      </trkpt>
      <trkpt lat="44.88519" lon="6.08753">
        <ele>1794.4</ele>
        <time>2024-08-14T06:14:45Z</time>
      </trkpt>
      <trkpt lat="44.88519" lon="6.08753">
        <ele>1794.4</ele>
        <time>2024-08-14T06:14:46Z</time>
      </trkpt>
      <trkpt lat="44.88519" lon="6.08753">
        <ele>1794.4</ele>
        <time>2024-08-14T06:14:47Z</time>
      </trkpt>
      <trkpt lat="44.88519" lon="6.08753">
        <ele>1794.6</ele>
        <time>2024-08-14T06:14:48Z</time>
      </trkpt>
      <trkpt lat="44.88519" lon="6.08753">
        <ele>1794.8</ele>
        <time>2024-08-14T06:14:49Z</time>
      </trkpt>
      <trkpt lat="44.88519" lon="6.08753">
        <ele>1795.2</ele>
        <time>2024-08-14T06:14:50Z</time>
      </trkpt>
      <trkpt lat="44.88519" lon="6.08753">
        <ele>1795.2</ele>
        <time>2024-08-14T06:14:51Z</time>
      </trkpt>
      <trkpt lat="44.88519" lon="6.08753">
        <ele>1795.2</ele>
        <time>2024-08-14T06:14:52Z</time>
      </trkpt>
      <trkpt lat="44.88518" lon="6.0875">
        <ele>1795.4</ele>
        <time>2024-08-14T06:14:53Z</time>
      </trkpt>
      <trkpt lat="44.88518" lon="6.0875">
        <ele>1795.8</ele>
        <time>2024-08-14T06:14:54Z</time>
      </trkpt>
      <trkpt lat="44.88518" lon="6.08748">
        <ele>1796</ele>
        <time>2024-08-14T06:14:55Z</time>
      </trkpt>
      <trkpt lat="44.88518" lon="6.08748">
        <ele>1796</ele>
        <time>2024-08-14T06:14:56Z</time>
      </trkpt>
      <trkpt lat="44.88517" lon="6.08745">
        <ele>1796</ele>
        <time>2024-08-14T06:14:57Z</time>
      </trkpt>
      <trkpt lat="44.88517" lon="6.08745">
        <ele>1796.4</ele>
        <time>2024-08-14T06:14:58Z</time>
      </trkpt>
      <trkpt lat="44.88517" lon="6.08745">
        <ele>1796.8</ele>
        <time>2024-08-14T06:14:59Z</time>
      </trkpt>
      <trkpt lat="44.88518" lon="6.08742">
        <ele>1797</ele>
        <time>2024-08-14T06:15:00Z</time>
      </trkpt>
      <trkpt lat="44.88518" lon="6.08742">
        <ele>1797.2</ele>
        <time>2024-08-14T06:15:01Z</time>
      </trkpt>
      <trkpt lat="44.88518" lon="6.08742">
        <ele>1797.8</ele>
        <time>2024-08-14T06:15:02Z</time>
      </trkpt>
      <trkpt lat="44.88519" lon="6.08741">
        <ele>1797.8</ele>
        <time>2024-08-14T06:15:03Z</time>
      </trkpt>
      <trkpt lat="44.88519" lon="6.08741">
        <ele>1797.8</ele>
        <time>2024-08-14T06:15:04Z</time>
      </trkpt>
      <trkpt lat="44.88519" lon="6.08741">
        <ele>1797.8</ele>
        <time>2024-08-14T06:15:05Z</time>
      </trkpt>
      <trkpt lat="44.88519" lon="6.08741">
        <ele>1798.2</ele>
        <time>2024-08-14T06:15:06Z</time>
      </trkpt>
      <trkpt lat="44.88522" lon="6.08739">
        <ele>1798.2</ele>
        <time>2024-08-14T06:15:07Z</time>
      </trkpt>
      <trkpt lat="44.88522" lon="6.08739">
        <ele>1798.2</ele>
        <time>2024-08-14T06:15:08Z</time>
      </trkpt>
      <trkpt lat="44.88522" lon="6.08739">
        <ele>1798.6</ele>
        <time>2024-08-14T06:15:09Z</time>
      </trkpt>
      <trkpt lat="44.88522" lon="6.08739">
        <ele>1798.8</ele>
        <time>2024-08-14T06:15:10Z</time>
      </trkpt>
      <trkpt lat="44.88522" lon="6.08739">
        <ele>1798.8</ele>
        <time>2024-08-14T06:15:11Z</time>
      </trkpt>
      <trkpt lat="44.88522" lon="6.08739">
        <ele>1799</ele>
        <time>2024-08-14T06:15:12Z</time>
      </trkpt>
      <trkpt lat="44.88522" lon="6.08739">
        <ele>1799.6</ele>
        <time>2024-08-14T06:15:13Z</time>
      </trkpt>
      <trkpt lat="44.88522" lon="6.08739">
        <ele>1799.6</ele>
        <time>2024-08-14T06:15:14Z</time>
      </trkpt>
      <trkpt lat="44.88522" lon="6.08739">
        <ele>1799.6</ele>
        <time>2024-08-14T06:15:15Z</time>
      </trkpt>
      <trkpt lat="44.88522" lon="6.08739">
        <ele>1799.8</ele>
        <time>2024-08-14T06:15:16Z</time>
      </trkpt>
      <trkpt lat="44.88522" lon="6.08739">
        <ele>1799.8</ele>
        <time>2024-08-14T06:15:17Z</time>
      </trkpt>
      <trkpt lat="44.88522" lon="6.08739">
        <ele>1799.6</ele>
        <time>2024-08-14T06:15:18Z</time>
      </trkpt>
      <trkpt lat="44.88522" lon="6.08739">
        <ele>1799.6</ele>
        <time>2024-08-14T06:15:19Z</time>
      </trkpt>
      <trkpt lat="44.88522" lon="6.08739">
        <ele>1799.8</ele>
        <time>2024-08-14T06:15:20Z</time>
      </trkpt>
      <trkpt lat="44.88522" lon="6.08739">
        <ele>1799.8</ele>
        <time>2024-08-14T06:15:21Z</time>
      </trkpt>
      <trkpt lat="44.88524" lon="6.08741">
        <ele>1800</ele>
        <time>2024-08-14T06:15:22Z</time>
      </trkpt>
      <trkpt lat="44.88524" lon="6.08741">
        <ele>1800</ele>
        <time>2024-08-14T06:15:23Z</time>
      </trkpt>
      <trkpt lat="44.88524" lon="6.08741">
        <ele>1800</ele>
        <time>2024-08-14T06:15:24Z</time>
      </trkpt>
      <trkpt lat="44.88525" lon="6.08743">
        <ele>1800.6</ele>
        <time>2024-08-14T06:15:25Z</time>
      </trkpt>
      <trkpt lat="44.88525" lon="6.08743">
        <ele>1801</ele>
        <time>2024-08-14T06:15:26Z</time>
      </trkpt>
      <trkpt lat="44.88525" lon="6.08743">
        <ele>1801</ele>
        <time>2024-08-14T06:15:27Z</time>
      </trkpt>
      <trkpt lat="44.88526" lon="6.08745">
        <ele>1801</ele>
        <time>2024-08-14T06:15:28Z</time>
      </trkpt>
      <trkpt lat="44.88526" lon="6.08745">
        <ele>1801.2</ele>
        <time>2024-08-14T06:15:29Z</time>
      </trkpt>
      <trkpt lat="44.88526" lon="6.08745">
        <ele>1801.4</ele>
        <time>2024-08-14T06:15:30Z</time>
      </trkpt>
      <trkpt lat="44.88528" lon="6.08747">
        <ele>1801.6</ele>
        <time>2024-08-14T06:15:31Z</time>
      </trkpt>
      <trkpt lat="44.88528" lon="6.08747">
        <ele>1801.8</ele>
        <time>2024-08-14T06:15:32Z</time>
      </trkpt>
      <trkpt lat="44.88528" lon="6.08747">
        <ele>1802</ele>
        <time>2024-08-14T06:15:33Z</time>
      </trkpt>
      <trkpt lat="44.88528" lon="6.08747">
        <ele>1802.6</ele>
        <time>2024-08-14T06:15:34Z</time>
      </trkpt>
      <trkpt lat="44.88528" lon="6.08747">
        <ele>1803</ele>
        <time>2024-08-14T06:15:35Z</time>
      </trkpt>
      <trkpt lat="44.8853" lon="6.08748">
        <ele>1803</ele>
        <time>2024-08-14T06:15:36Z</time>
      </trkpt>
      <trkpt lat="44.8853" lon="6.08748">
        <ele>1803.6</ele>
        <time>2024-08-14T06:15:37Z</time>
      </trkpt>
      <trkpt lat="44.8853" lon="6.08748">
        <ele>1803.6</ele>
        <time>2024-08-14T06:15:38Z</time>
      </trkpt>
      <trkpt lat="44.8853" lon="6.08748">
        <ele>1803.6</ele>
        <time>2024-08-14T06:15:39Z</time>
      </trkpt>
      <trkpt lat="44.8853" lon="6.08748">
        <ele>1803.6</ele>
        <time>2024-08-14T06:15:40Z</time>
      </trkpt>
      <trkpt lat="44.88531" lon="6.08746">
        <ele>1804.4</ele>
        <time>2024-08-14T06:15:41Z</time>
      </trkpt>
      <trkpt lat="44.88531" lon="6.08746">
        <ele>1804.6</ele>
        <time>2024-08-14T06:15:42Z</time>
      </trkpt>
      <trkpt lat="44.88531" lon="6.08746">
        <ele>1804.6</ele>
        <time>2024-08-14T06:15:43Z</time>
      </trkpt>
      <trkpt lat="44.88531" lon="6.08746">
        <ele>1805.2</ele>
        <time>2024-08-14T06:15:44Z</time>
      </trkpt>
      <trkpt lat="44.88531" lon="6.08746">
        <ele>1805.2</ele>
        <time>2024-08-14T06:15:45Z</time>
      </trkpt>
      <trkpt lat="44.88531" lon="6.08746">
        <ele>1805.6</ele>
        <time>2024-08-14T06:15:46Z</time>
      </trkpt>
      <trkpt lat="44.88531" lon="6.08746">
        <ele>1806</ele>
        <time>2024-08-14T06:15:47Z</time>
      </trkpt>
      <trkpt lat="44.88531" lon="6.08746">
        <ele>1806.2</ele>
        <time>2024-08-14T06:15:48Z</time>
      </trkpt>
      <trkpt lat="44.88531" lon="6.08746">
        <ele>1806.6</ele>
        <time>2024-08-14T06:15:49Z</time>
      </trkpt>
      <trkpt lat="44.88531" lon="6.08746">
        <ele>1806.6</ele>
        <time>2024-08-14T06:15:50Z</time>
      </trkpt>
      <trkpt lat="44.88531" lon="6.08746">
        <ele>1806.6</ele>
        <time>2024-08-14T06:15:51Z</time>
      </trkpt>
      <trkpt lat="44.88531" lon="6.08746">
        <ele>1806.6</ele>
        <time>2024-08-14T06:15:52Z</time>
      </trkpt>
      <trkpt lat="44.88531" lon="6.08746">
        <ele>1806.8</ele>
        <time>2024-08-14T06:15:53Z</time>
      </trkpt>
      <trkpt lat="44.88531" lon="6.08746">
        <ele>1806.8</ele>
        <time>2024-08-14T06:15:54Z</time>
      </trkpt>
      <trkpt lat="44.88531" lon="6.08746">
        <ele>1807</ele>
        <time>2024-08-14T06:15:55Z</time>
      </trkpt>
      <trkpt lat="44.88531" lon="6.08746">
        <ele>1807</ele>
        <time>2024-08-14T06:15:56Z</time>
      </trkpt>
      <trkpt lat="44.88531" lon="6.08746">
        <ele>1807</ele>
        <time>2024-08-14T06:15:57Z</time>
      </trkpt>
      <trkpt lat="44.88531" lon="6.08746">
        <ele>1807</ele>
        <time>2024-08-14T06:15:58Z</time>
      </trkpt>
      <trkpt lat="44.88531" lon="6.08746">
        <ele>1807</ele>
        <time>2024-08-14T06:15:59Z</time>
      </trkpt>
      <trkpt lat="44.88533" lon="6.08743">
        <ele>1807.2</ele>
        <time>2024-08-14T06:16:00Z</time>
      </trkpt>
      <trkpt lat="44.88533" lon="6.08743">
        <ele>1807.2</ele>
        <time>2024-08-14T06:16:01Z</time>
      </trkpt>
      <trkpt lat="44.88535" lon="6.08741">
        <ele>1807.2</ele>
        <time>2024-08-14T06:16:02Z</time>
      </trkpt>
      <trkpt lat="44.88535" lon="6.08741">
        <ele>1807.2</ele>
        <time>2024-08-14T06:16:03Z</time>
      </trkpt>
      <trkpt lat="44.88537" lon="6.08739">
        <ele>1807.6</ele>
        <time>2024-08-14T06:16:04Z</time>
      </trkpt>
      <trkpt lat="44.88537" lon="6.08739">
        <ele>1807.8</ele>
        <time>2024-08-14T06:16:05Z</time>
      </trkpt>
      <trkpt lat="44.88539" lon="6.08738">
        <ele>1807.8</ele>
        <time>2024-08-14T06:16:06Z</time>
      </trkpt>
      <trkpt lat="44.88539" lon="6.08738">
        <ele>1808.4</ele>
        <time>2024-08-14T06:16:07Z</time>
      </trkpt>
      <trkpt lat="44.88539" lon="6.08738">
        <ele>1808.4</ele>
        <time>2024-08-14T06:16:08Z</time>
      </trkpt>
      <trkpt lat="44.88541" lon="6.08736">
        <ele>1808.4</ele>
        <time>2024-08-14T06:16:09Z</time>
      </trkpt>
      <trkpt lat="44.88541" lon="6.08736">
        <ele>1809.2</ele>
        <time>2024-08-14T06:16:10Z</time>
      </trkpt>
      <trkpt lat="44.88541" lon="6.08736">
        <ele>1809.2</ele>
        <time>2024-08-14T06:16:11Z</time>
      </trkpt>
      <trkpt lat="44.88541" lon="6.08736">
        <ele>1809.4</ele>
        <time>2024-08-14T06:16:12Z</time>
      </trkpt>
      <trkpt lat="44.88542" lon="6.08734">
        <ele>1809.6</ele>
        <time>2024-08-14T06:16:13Z</time>
      </trkpt>
      <trkpt lat="44.88542" lon="6.08734">
        <ele>1810</ele>
        <time>2024-08-14T06:16:14Z</time>
      </trkpt>
      <trkpt lat="44.88542" lon="6.08734">
        <ele>1810</ele>
        <time>2024-08-14T06:16:15Z</time>
      </trkpt>
      <trkpt lat="44.88542" lon="6.08734">
        <ele>1810.6</ele>
        <time>2024-08-14T06:16:16Z</time>
      </trkpt>
      <trkpt lat="44.88544" lon="6.08734">
        <ele>1810.8</ele>
        <time>2024-08-14T06:16:17Z</time>
      </trkpt>
      <trkpt lat="44.88544" lon="6.08734">
        <ele>1811</ele>
        <time>2024-08-14T06:16:18Z</time>
      </trkpt>
      <trkpt lat="44.88544" lon="6.08734">
        <ele>1811</ele>
        <time>2024-08-14T06:16:19Z</time>
      </trkpt>
      <trkpt lat="44.88544" lon="6.08734">
        <ele>1811.2</ele>
        <time>2024-08-14T06:16:20Z</time>
      </trkpt>
      <trkpt lat="44.88546" lon="6.08734">
        <ele>1811.4</ele>
        <time>2024-08-14T06:16:21Z</time>
      </trkpt>
      <trkpt lat="44.88546" lon="6.08734">
        <ele>1811.8</ele>
        <time>2024-08-14T06:16:22Z</time>
      </trkpt>
      <trkpt lat="44.88546" lon="6.08734">
        <ele>1811.8</ele>
        <time>2024-08-14T06:16:23Z</time>
      </trkpt>
      <trkpt lat="44.88546" lon="6.08734">
        <ele>1812</ele>
        <time>2024-08-14T06:16:24Z</time>
      </trkpt>
      <trkpt lat="44.88548" lon="6.08735">
        <ele>1812.2</ele>
        <time>2024-08-14T06:16:25Z</time>
      </trkpt>
      <trkpt lat="44.88548" lon="6.08735">
        <ele>1812.2</ele>
        <time>2024-08-14T06:16:26Z</time>
      </trkpt>
      <trkpt lat="44.88548" lon="6.08735">
        <ele>1812.4</ele>
        <time>2024-08-14T06:16:27Z</time>
      </trkpt>
      <trkpt lat="44.88548" lon="6.08735">
        <ele>1813</ele>
        <time>2024-08-14T06:16:28Z</time>
      </trkpt>
      <trkpt lat="44.88548" lon="6.08735">
        <ele>1813</ele>
        <time>2024-08-14T06:16:29Z</time>
      </trkpt>
      <trkpt lat="44.88548" lon="6.08735">
        <ele>1813.4</ele>
        <time>2024-08-14T06:16:30Z</time>
      </trkpt>
      <trkpt lat="44.8855" lon="6.08737">
        <ele>1813.4</ele>
        <time>2024-08-14T06:16:31Z</time>
      </trkpt>
      <trkpt lat="44.8855" lon="6.08737">
        <ele>1814</ele>
        <time>2024-08-14T06:16:32Z</time>
      </trkpt>
      <trkpt lat="44.8855" lon="6.08737">
        <ele>1814</ele>
        <time>2024-08-14T06:16:33Z</time>
      </trkpt>
      <trkpt lat="44.8855" lon="6.08737">
        <ele>1814</ele>
        <time>2024-08-14T06:16:34Z</time>
      </trkpt>
      <trkpt lat="44.8855" lon="6.08737">
        <ele>1814.6</ele>
        <time>2024-08-14T06:16:35Z</time>
      </trkpt>
      <trkpt lat="44.8855" lon="6.08737">
        <ele>1814.6</ele>
        <time>2024-08-14T06:16:36Z</time>
      </trkpt>
      <trkpt lat="44.8855" lon="6.08737">
        <ele>1814.8</ele>
        <time>2024-08-14T06:16:37Z</time>
      </trkpt>
      <trkpt lat="44.8855" lon="6.08737">
        <ele>1815</ele>
        <time>2024-08-14T06:16:38Z</time>
      </trkpt>
      <trkpt lat="44.8855" lon="6.08737">
        <ele>1815.6</ele>
        <time>2024-08-14T06:16:39Z</time>
      </trkpt>
      <trkpt lat="44.8855" lon="6.08737">
        <ele>1815.8</ele>
        <time>2024-08-14T06:16:40Z</time>
      </trkpt>
      <trkpt lat="44.88552" lon="6.08737">
        <ele>1815.8</ele>
        <time>2024-08-14T06:16:41Z</time>
      </trkpt>
      <trkpt lat="44.88552" lon="6.08737">
        <ele>1815.8</ele>
        <time>2024-08-14T06:16:42Z</time>
      </trkpt>
      <trkpt lat="44.88552" lon="6.08737">
        <ele>1816.2</ele>
        <time>2024-08-14T06:16:43Z</time>
      </trkpt>
      <trkpt lat="44.88554" lon="6.08736">
        <ele>1816.6</ele>
        <time>2024-08-14T06:16:44Z</time>
      </trkpt>
      <trkpt lat="44.88554" lon="6.08736">
        <ele>1816.8</ele>
        <time>2024-08-14T06:16:45Z</time>
      </trkpt>
      <trkpt lat="44.88554" lon="6.08736">
        <ele>1817.2</ele>
        <time>2024-08-14T06:16:46Z</time>
      </trkpt>
      <trkpt lat="44.88556" lon="6.08734">
        <ele>1817.4</ele>
        <time>2024-08-14T06:16:47Z</time>
      </trkpt>
      <trkpt lat="44.88556" lon="6.08734">
        <ele>1817.4</ele>
        <time>2024-08-14T06:16:48Z</time>
      </trkpt>
      <trkpt lat="44.88556" lon="6.08734">
        <ele>1817.4</ele>
        <time>2024-08-14T06:16:49Z</time>
      </trkpt>
      <trkpt lat="44.88556" lon="6.08734">
        <ele>1818</ele>
        <time>2024-08-14T06:16:50Z</time>
      </trkpt>
      <trkpt lat="44.88557" lon="6.08733">
        <ele>1818</ele>
        <time>2024-08-14T06:16:51Z</time>
      </trkpt>
      <trkpt lat="44.88557" lon="6.08733">
        <ele>1818</ele>
        <time>2024-08-14T06:16:52Z</time>
      </trkpt>
      <trkpt lat="44.88557" lon="6.08733">
        <ele>1818</ele>
        <time>2024-08-14T06:16:53Z</time>
      </trkpt>
      <trkpt lat="44.88557" lon="6.08733">
        <ele>1818.6</ele>
        <time>2024-08-14T06:16:54Z</time>
      </trkpt>
      <trkpt lat="44.88557" lon="6.08733">
        <ele>1818.6</ele>
        <time>2024-08-14T06:16:55Z</time>
      </trkpt>
      <trkpt lat="44.88559" lon="6.08732">
        <ele>1819</ele>
        <time>2024-08-14T06:16:56Z</time>
      </trkpt>
      <trkpt lat="44.88559" lon="6.08732">
        <ele>1819.2</ele>
        <time>2024-08-14T06:16:57Z</time>
      </trkpt>
      <trkpt lat="44.88559" lon="6.08732">
        <ele>1819.4</ele>
        <time>2024-08-14T06:16:58Z</time>
      </trkpt>
      <trkpt lat="44.88561" lon="6.0873">
        <ele>1819.4</ele>
        <time>2024-08-14T06:16:59Z</time>
      </trkpt>
      <trkpt lat="44.88561" lon="6.0873">
        <ele>1819.6</ele>
        <time>2024-08-14T06:17:00Z</time>
      </trkpt>
      <trkpt lat="44.88563" lon="6.0873">
        <ele>1820.4</ele>
        <time>2024-08-14T06:17:01Z</time>
      </trkpt>
      <trkpt lat="44.88563" lon="6.0873">
        <ele>1820.6</ele>
        <time>2024-08-14T06:17:02Z</time>
      </trkpt>
      <trkpt lat="44.88563" lon="6.0873">
        <ele>1820.6</ele>
        <time>2024-08-14T06:17:03Z</time>
      </trkpt>
      <trkpt lat="44.88563" lon="6.0873">
        <ele>1821</ele>
        <time>2024-08-14T06:17:04Z</time>
      </trkpt>
      <trkpt lat="44.88563" lon="6.0873">
        <ele>1821.4</ele>
        <time>2024-08-14T06:17:05Z</time>
      </trkpt>
      <trkpt lat="44.88563" lon="6.0873">
        <ele>1821.4</ele>
        <time>2024-08-14T06:17:06Z</time>
      </trkpt>
      <trkpt lat="44.88563" lon="6.0873">
        <ele>1821.4</ele>
        <time>2024-08-14T06:17:07Z</time>
      </trkpt>
      <trkpt lat="44.88563" lon="6.0873">
        <ele>1821.4</ele>
        <time>2024-08-14T06:17:08Z</time>
      </trkpt>
      <trkpt lat="44.88563" lon="6.0873">
        <ele>1821.4</ele>
        <time>2024-08-14T06:17:09Z</time>
      </trkpt>
      <trkpt lat="44.88563" lon="6.0873">
        <ele>1821.4</ele>
        <time>2024-08-14T06:17:10Z</time>
      </trkpt>
      <trkpt lat="44.88563" lon="6.0873">
        <ele>1821.4</ele>
        <time>2024-08-14T06:17:11Z</time>
      </trkpt>
      <trkpt lat="44.88563" lon="6.0873">
        <ele>1821.4</ele>
        <time>2024-08-14T06:17:12Z</time>
      </trkpt>
      <trkpt lat="44.88563" lon="6.0873">
        <ele>1821.4</ele>
        <time>2024-08-14T06:17:13Z</time>
      </trkpt>
      <trkpt lat="44.88563" lon="6.0873">
        <ele>1821.6</ele>
        <time>2024-08-14T06:17:14Z</time>
      </trkpt>
      <trkpt lat="44.88563" lon="6.0873">
        <ele>1821.6</ele>
        <time>2024-08-14T06:17:15Z</time>
      </trkpt>
      <trkpt lat="44.88563" lon="6.0873">
        <ele>1821.6</ele>
        <time>2024-08-14T06:17:16Z</time>
      </trkpt>
      <trkpt lat="44.88563" lon="6.0873">
        <ele>1821.6</ele>
        <time>2024-08-14T06:17:17Z</time>
      </trkpt>
      <trkpt lat="44.88563" lon="6.0873">
        <ele>1821.6</ele>
        <time>2024-08-14T06:17:18Z</time>
      </trkpt>
      <trkpt lat="44.88563" lon="6.0873">
        <ele>1821.6</ele>
        <time>2024-08-14T06:17:19Z</time>
      </trkpt>
      <trkpt lat="44.88563" lon="6.0873">
        <ele>1821.4</ele>
        <time>2024-08-14T06:17:20Z</time>
      </trkpt>
      <trkpt lat="44.88563" lon="6.0873">
        <ele>1821.4</ele>
        <time>2024-08-14T06:17:21Z</time>
      </trkpt>
      <trkpt lat="44.88563" lon="6.0873">
        <ele>1821.4</ele>
        <time>2024-08-14T06:17:22Z</time>
      </trkpt>
      <trkpt lat="44.88563" lon="6.0873">
        <ele>1821.6</ele>
        <time>2024-08-14T06:17:23Z</time>
      </trkpt>
      <trkpt lat="44.88565" lon="6.08731">
        <ele>1821.6</ele>
        <time>2024-08-14T06:17:24Z</time>
      </trkpt>
      <trkpt lat="44.88565" lon="6.08731">
        <ele>1821.6</ele>
        <time>2024-08-14T06:17:25Z</time>
      </trkpt>
      <trkpt lat="44.88565" lon="6.08731">
        <ele>1821.8</ele>
        <time>2024-08-14T06:17:26Z</time>
      </trkpt>
      <trkpt lat="44.88567" lon="6.08733">
        <ele>1822.2</ele>
        <time>2024-08-14T06:17:27Z</time>
      </trkpt>
      <trkpt lat="44.88567" lon="6.08733">
        <ele>1822.2</ele>
        <time>2024-08-14T06:17:28Z</time>
      </trkpt>
      <trkpt lat="44.88567" lon="6.08733">
        <ele>1822.4</ele>
        <time>2024-08-14T06:17:29Z</time>
      </trkpt>
      <trkpt lat="44.8857" lon="6.08733">
        <ele>1823.2</ele>
        <time>2024-08-14T06:17:30Z</time>
      </trkpt>
      <trkpt lat="44.8857" lon="6.08733">
        <ele>1823.2</ele>
        <time>2024-08-14T06:17:31Z</time>
      </trkpt>
      <trkpt lat="44.8857" lon="6.08733">
        <ele>1823.6</ele>
        <time>2024-08-14T06:17:32Z</time>
      </trkpt>
      <trkpt lat="44.88572" lon="6.08733">
        <ele>1823.8</ele>
        <time>2024-08-14T06:17:33Z</time>
      </trkpt>
      <trkpt lat="44.88572" lon="6.08733">
        <ele>1824.2</ele>
        <time>2024-08-14T06:17:34Z</time>
      </trkpt>
      <trkpt lat="44.88572" lon="6.08733">
        <ele>1824.4</ele>
        <time>2024-08-14T06:17:35Z</time>
      </trkpt>
      <trkpt lat="44.88572" lon="6.08733">
        <ele>1824.4</ele>
        <time>2024-08-14T06:17:36Z</time>
      </trkpt>
      <trkpt lat="44.88574" lon="6.08732">
        <ele>1825</ele>
        <time>2024-08-14T06:17:37Z</time>
      </trkpt>
      <trkpt lat="44.88574" lon="6.08732">
        <ele>1825.2</ele>
        <time>2024-08-14T06:17:38Z</time>
      </trkpt>
      <trkpt lat="44.88574" lon="6.08732">
        <ele>1825.2</ele>
        <time>2024-08-14T06:17:39Z</time>
      </trkpt>
      <trkpt lat="44.88574" lon="6.08732">
        <ele>1825.2</ele>
        <time>2024-08-14T06:17:40Z</time>
      </trkpt>
      <trkpt lat="44.88577" lon="6.08731">
        <ele>1825.8</ele>
        <time>2024-08-14T06:17:41Z</time>
      </trkpt>
      <trkpt lat="44.88577" lon="6.08731">
        <ele>1825.8</ele>
        <time>2024-08-14T06:17:42Z</time>
      </trkpt>
      <trkpt lat="44.88577" lon="6.08731">
        <ele>1825.8</ele>
        <time>2024-08-14T06:17:43Z</time>
      </trkpt>
      <trkpt lat="44.88577" lon="6.08731">
        <ele>1826.4</ele>
        <time>2024-08-14T06:17:44Z</time>
      </trkpt>
      <trkpt lat="44.88579" lon="6.08731">
        <ele>1826.6</ele>
        <time>2024-08-14T06:17:45Z</time>
      </trkpt>
      <trkpt lat="44.88579" lon="6.08731">
        <ele>1826.8</ele>
        <time>2024-08-14T06:17:46Z</time>
      </trkpt>
      <trkpt lat="44.88579" lon="6.08731">
        <ele>1827</ele>
        <time>2024-08-14T06:17:47Z</time>
      </trkpt>
      <trkpt lat="44.88579" lon="6.08731">
        <ele>1827.4</ele>
        <time>2024-08-14T06:17:48Z</time>
      </trkpt>
      <trkpt lat="44.88581" lon="6.08731">
        <ele>1827.4</ele>
        <time>2024-08-14T06:17:49Z</time>
      </trkpt>
      <trkpt lat="44.88581" lon="6.08731">
        <ele>1827.6</ele>
        <time>2024-08-14T06:17:50Z</time>
      </trkpt>
      <trkpt lat="44.88581" lon="6.08731">
        <ele>1828.2</ele>
        <time>2024-08-14T06:17:51Z</time>
      </trkpt>
      <trkpt lat="44.88581" lon="6.08731">
        <ele>1828.6</ele>
        <time>2024-08-14T06:17:52Z</time>
      </trkpt>
      <trkpt lat="44.88583" lon="6.08731">
        <ele>1828.8</ele>
        <time>2024-08-14T06:17:53Z</time>
      </trkpt>
      <trkpt lat="44.88583" lon="6.08731">
        <ele>1829.2</ele>
        <time>2024-08-14T06:17:54Z</time>
      </trkpt>
      <trkpt lat="44.88583" lon="6.08731">
        <ele>1829.2</ele>
        <time>2024-08-14T06:17:55Z</time>
      </trkpt>
      <trkpt lat="44.88585" lon="6.08731">
        <ele>1829.4</ele>
        <time>2024-08-14T06:17:56Z</time>
      </trkpt>
      <trkpt lat="44.88585" lon="6.08731">
        <ele>1829.6</ele>
        <time>2024-08-14T06:17:57Z</time>
      </trkpt>
      <trkpt lat="44.88585" lon="6.08731">
        <ele>1829.8</ele>
        <time>2024-08-14T06:17:58Z</time>
      </trkpt>
      <trkpt lat="44.88587" lon="6.08731">
        <ele>1829.8</ele>
        <time>2024-08-14T06:17:59Z</time>
      </trkpt>
      <trkpt lat="44.88587" lon="6.08731">
        <ele>1830.2</ele>
        <time>2024-08-14T06:18:00Z</time>
      </trkpt>
      <trkpt lat="44.88587" lon="6.08731">
        <ele>1830.2</ele>
        <time>2024-08-14T06:18:01Z</time>
      </trkpt>
      <trkpt lat="44.88589" lon="6.08731">
        <ele>1830.8</ele>
        <time>2024-08-14T06:18:02Z</time>
      </trkpt>
      <trkpt lat="44.88589" lon="6.08731">
        <ele>1831</ele>
        <time>2024-08-14T06:18:03Z</time>
      </trkpt>
      <trkpt lat="44.88589" lon="6.08731">
        <ele>1831.2</ele>
        <time>2024-08-14T06:18:04Z</time>
      </trkpt>
      <trkpt lat="44.88589" lon="6.08731">
        <ele>1831.2</ele>
        <time>2024-08-14T06:18:05Z</time>
      </trkpt>
      <trkpt lat="44.88591" lon="6.08731">
        <ele>1831.6</ele>
        <time>2024-08-14T06:18:06Z</time>
      </trkpt>
      <trkpt lat="44.88591" lon="6.08731">
        <ele>1832.2</ele>
        <time>2024-08-14T06:18:07Z</time>
      </trkpt>
      <trkpt lat="44.88591" lon="6.08731">
        <ele>1832.2</ele>
        <time>2024-08-14T06:18:08Z</time>
      </trkpt>
      <trkpt lat="44.88591" lon="6.08731">
        <ele>1832.2</ele>
        <time>2024-08-14T06:18:09Z</time>
      </trkpt>
      <trkpt lat="44.88591" lon="6.08731">
        <ele>1832.4</ele>
        <time>2024-08-14T06:18:10Z</time>
      </trkpt>
      <trkpt lat="44.88591" lon="6.08731">
        <ele>1833.2</ele>
        <time>2024-08-14T06:18:11Z</time>
      </trkpt>
      <trkpt lat="44.88593" lon="6.08729">
        <ele>1833.2</ele>
        <time>2024-08-14T06:18:12Z</time>
      </trkpt>
      <trkpt lat="44.88593" lon="6.08729">
        <ele>1833</ele>
        <time>2024-08-14T06:18:13Z</time>
      </trkpt>
      <trkpt lat="44.88593" lon="6.08729">
        <ele>1833</ele>
        <time>2024-08-14T06:18:14Z</time>
      </trkpt>
      <trkpt lat="44.88593" lon="6.08729">
        <ele>1833.8</ele>
        <time>2024-08-14T06:18:15Z</time>
      </trkpt>
      <trkpt lat="44.88593" lon="6.08729">
        <ele>1834.2</ele>
        <time>2024-08-14T06:18:16Z</time>
      </trkpt>
      <trkpt lat="44.88596" lon="6.08729">
        <ele>1834.2</ele>
        <time>2024-08-14T06:18:17Z</time>
      </trkpt>
      <trkpt lat="44.88596" lon="6.08729">
        <ele>1834.2</ele>
        <time>2024-08-14T06:18:18Z</time>
      </trkpt>
      <trkpt lat="44.88596" lon="6.08729">
        <ele>1834.4</ele>
        <time>2024-08-14T06:18:19Z</time>
      </trkpt>
      <trkpt lat="44.88596" lon="6.08729">
        <ele>1834.6</ele>
        <time>2024-08-14T06:18:20Z</time>
      </trkpt>
      <trkpt lat="44.88597" lon="6.08728">
        <ele>1834.8</ele>
        <time>2024-08-14T06:18:21Z</time>
      </trkpt>
      <trkpt lat="44.88597" lon="6.08728">
        <ele>1835.4</ele>
        <time>2024-08-14T06:18:22Z</time>
      </trkpt>
      <trkpt lat="44.88597" lon="6.08728">
        <ele>1835.6</ele>
        <time>2024-08-14T06:18:23Z</time>
      </trkpt>
      <trkpt lat="44.88597" lon="6.08728">
        <ele>1835.6</ele>
        <time>2024-08-14T06:18:24Z</time>
      </trkpt>
      <trkpt lat="44.88597" lon="6.08728">
        <ele>1835.6</ele>
        <time>2024-08-14T06:18:25Z</time>
      </trkpt>
      <trkpt lat="44.88599" lon="6.08729">
        <ele>1835.8</ele>
        <time>2024-08-14T06:18:26Z</time>
      </trkpt>
      <trkpt lat="44.88599" lon="6.08729">
        <ele>1836.2</ele>
        <time>2024-08-14T06:18:27Z</time>
      </trkpt>
      <trkpt lat="44.88599" lon="6.08729">
        <ele>1836.2</ele>
        <time>2024-08-14T06:18:28Z</time>
      </trkpt>
      <trkpt lat="44.88599" lon="6.08729">
        <ele>1836.4</ele>
        <time>2024-08-14T06:18:29Z</time>
      </trkpt>
      <trkpt lat="44.88599" lon="6.08729">
        <ele>1836.4</ele>
        <time>2024-08-14T06:18:30Z</time>
      </trkpt>
      <trkpt lat="44.88599" lon="6.08729">
        <ele>1837.2</ele>
        <time>2024-08-14T06:18:31Z</time>
      </trkpt>
      <trkpt lat="44.88599" lon="6.08729">
        <ele>1837.6</ele>
        <time>2024-08-14T06:18:32Z</time>
      </trkpt>
      <trkpt lat="44.88599" lon="6.08729">
        <ele>1837.6</ele>
        <time>2024-08-14T06:18:33Z</time>
      </trkpt>
      <trkpt lat="44.88599" lon="6.08729">
        <ele>1837.6</ele>
        <time>2024-08-14T06:18:34Z</time>
      </trkpt>
      <trkpt lat="44.88599" lon="6.08729">
        <ele>1837.8</ele>
        <time>2024-08-14T06:18:35Z</time>
      </trkpt>
      <trkpt lat="44.88599" lon="6.08729">
        <ele>1837.8</ele>
        <time>2024-08-14T06:18:36Z</time>
      </trkpt>
      <trkpt lat="44.88599" lon="6.08729">
        <ele>1838.2</ele>
        <time>2024-08-14T06:18:37Z</time>
      </trkpt>
      <trkpt lat="44.88599" lon="6.08729">
        <ele>1838.4</ele>
        <time>2024-08-14T06:18:38Z</time>
      </trkpt>
      <trkpt lat="44.88599" lon="6.08729">
        <ele>1838.6</ele>
        <time>2024-08-14T06:18:39Z</time>
      </trkpt>
      <trkpt lat="44.88599" lon="6.08729">
        <ele>1838.6</ele>
        <time>2024-08-14T06:18:40Z</time>
      </trkpt>
      <trkpt lat="44.88602" lon="6.08728">
        <ele>1838.8</ele>
        <time>2024-08-14T06:18:41Z</time>
      </trkpt>
      <trkpt lat="44.88602" lon="6.08728">
        <ele>1839.2</ele>
        <time>2024-08-14T06:18:42Z</time>
      </trkpt>
      <trkpt lat="44.88604" lon="6.08727">
        <ele>1839.4</ele>
        <time>2024-08-14T06:18:43Z</time>
      </trkpt>
      <trkpt lat="44.88604" lon="6.08727">
        <ele>1839.4</ele>
        <time>2024-08-14T06:18:44Z</time>
      </trkpt>
      <trkpt lat="44.88607" lon="6.08727">
        <ele>1839.8</ele>
        <time>2024-08-14T06:18:45Z</time>
      </trkpt>
      <trkpt lat="44.88607" lon="6.08727">
        <ele>1839.8</ele>
        <time>2024-08-14T06:18:46Z</time>
      </trkpt>
      <trkpt lat="44.88609" lon="6.08726">
        <ele>1840</ele>
        <time>2024-08-14T06:18:47Z</time>
      </trkpt>
      <trkpt lat="44.88609" lon="6.08726">
        <ele>1840.6</ele>
        <time>2024-08-14T06:18:48Z</time>
      </trkpt>
      <trkpt lat="44.88609" lon="6.08726">
        <ele>1840.8</ele>
        <time>2024-08-14T06:18:49Z</time>
      </trkpt>
      <trkpt lat="44.88609" lon="6.08726">
        <ele>1841.2</ele>
        <time>2024-08-14T06:18:50Z</time>
      </trkpt>
      <trkpt lat="44.8861" lon="6.08724">
        <ele>1841.6</ele>
        <time>2024-08-14T06:18:51Z</time>
      </trkpt>
      <trkpt lat="44.8861" lon="6.08724">
        <ele>1841.6</ele>
        <time>2024-08-14T06:18:52Z</time>
      </trkpt>
      <trkpt lat="44.8861" lon="6.08724">
        <ele>1842</ele>
        <time>2024-08-14T06:18:53Z</time>
      </trkpt>
      <trkpt lat="44.8861" lon="6.08724">
        <ele>1842</ele>
        <time>2024-08-14T06:18:54Z</time>
      </trkpt>
      <trkpt lat="44.8861" lon="6.08724">
        <ele>1842.4</ele>
        <time>2024-08-14T06:18:55Z</time>
      </trkpt>
      <trkpt lat="44.8861" lon="6.08724">
        <ele>1842.6</ele>
        <time>2024-08-14T06:18:56Z</time>
      </trkpt>
      <trkpt lat="44.8861" lon="6.08724">
        <ele>1842.8</ele>
        <time>2024-08-14T06:18:57Z</time>
      </trkpt>
      <trkpt lat="44.8861" lon="6.08724">
        <ele>1843</ele>
        <time>2024-08-14T06:18:58Z</time>
      </trkpt>
      <trkpt lat="44.8861" lon="6.08724">
        <ele>1843</ele>
        <time>2024-08-14T06:18:59Z</time>
      </trkpt>
      <trkpt lat="44.88611" lon="6.08721">
        <ele>1843.2</ele>
        <time>2024-08-14T06:19:00Z</time>
      </trkpt>
      <trkpt lat="44.88611" lon="6.08721">
        <ele>1843.4</ele>
        <time>2024-08-14T06:19:01Z</time>
      </trkpt>
      <trkpt lat="44.88611" lon="6.08721">
        <ele>1844.4</ele>
        <time>2024-08-14T06:19:02Z</time>
      </trkpt>
      <trkpt lat="44.88611" lon="6.08721">
        <ele>1844.4</ele>
        <time>2024-08-14T06:19:03Z</time>
      </trkpt>
      <trkpt lat="44.88611" lon="6.08721">
        <ele>1844.4</ele>
        <time>2024-08-14T06:19:04Z</time>
      </trkpt>
      <trkpt lat="44.88611" lon="6.08721">
        <ele>1844.6</ele>
        <time>2024-08-14T06:19:05Z</time>
      </trkpt>
      <trkpt lat="44.88612" lon="6.08718">
        <ele>1844.6</ele>
        <time>2024-08-14T06:19:06Z</time>
      </trkpt>
      <trkpt lat="44.88612" lon="6.08718">
        <ele>1845</ele>
        <time>2024-08-14T06:19:07Z</time>
      </trkpt>
      <trkpt lat="44.88612" lon="6.08718">
        <ele>1845.2</ele>
        <time>2024-08-14T06:19:08Z</time>
      </trkpt>
      <trkpt lat="44.88613" lon="6.08716">
        <ele>1845.2</ele>
        <time>2024-08-14T06:19:09Z</time>
      </trkpt>
      <trkpt lat="44.88613" lon="6.08716">
        <ele>1845.8</ele>
        <time>2024-08-14T06:19:10Z</time>
      </trkpt>
      <trkpt lat="44.88613" lon="6.08716">
        <ele>1846</ele>
        <time>2024-08-14T06:19:11Z</time>
      </trkpt>
      <trkpt lat="44.88614" lon="6.08713">
        <ele>1846</ele>
        <time>2024-08-14T06:19:12Z</time>
      </trkpt>
      <trkpt lat="44.88614" lon="6.08713">
        <ele>1846.4</ele>
        <time>2024-08-14T06:19:13Z</time>
      </trkpt>
      <trkpt lat="44.88614" lon="6.08713">
        <ele>1846.6</ele>
        <time>2024-08-14T06:19:14Z</time>
      </trkpt>
      <trkpt lat="44.88616" lon="6.08712">
        <ele>1846.6</ele>
        <time>2024-08-14T06:19:15Z</time>
      </trkpt>
      <trkpt lat="44.88616" lon="6.08712">
        <ele>1846.6</ele>
        <time>2024-08-14T06:19:16Z</time>
      </trkpt>
      <trkpt lat="44.88616" lon="6.08712">
        <ele>1846.8</ele>
        <time>2024-08-14T06:19:17Z</time>
      </trkpt>
      <trkpt lat="44.88619" lon="6.08712">
        <ele>1847.4</ele>
        <time>2024-08-14T06:19:18Z</time>
      </trkpt>
      <trkpt lat="44.88619" lon="6.08712">
        <ele>1847.4</ele>
        <time>2024-08-14T06:19:19Z</time>
      </trkpt>
      <trkpt lat="44.88619" lon="6.08712">
        <ele>1847.6</ele>
        <time>2024-08-14T06:19:20Z</time>
      </trkpt>
      <trkpt lat="44.88619" lon="6.08712">
        <ele>1847.8</ele>
        <time>2024-08-14T06:19:21Z</time>
      </trkpt>
      <trkpt lat="44.88619" lon="6.08712">
        <ele>1848.2</ele>
        <time>2024-08-14T06:19:22Z</time>
      </trkpt>
      <trkpt lat="44.88619" lon="6.08712">
        <ele>1848.4</ele>
        <time>2024-08-14T06:19:23Z</time>
      </trkpt>
      <trkpt lat="44.88621" lon="6.08711">
        <ele>1848.4</ele>
        <time>2024-08-14T06:19:24Z</time>
      </trkpt>
      <trkpt lat="44.88621" lon="6.08711">
        <ele>1848.8</ele>
        <time>2024-08-14T06:19:25Z</time>
      </trkpt>
      <trkpt lat="44.88621" lon="6.08711">
        <ele>1848.8</ele>
        <time>2024-08-14T06:19:26Z</time>
      </trkpt>
      <trkpt lat="44.88621" lon="6.08711">
        <ele>1849.2</ele>
        <time>2024-08-14T06:19:27Z</time>
      </trkpt>
      <trkpt lat="44.88622" lon="6.08711">
        <ele>1849.4</ele>
        <time>2024-08-14T06:19:28Z</time>
      </trkpt>
      <trkpt lat="44.88622" lon="6.08711">
        <ele>1850</ele>
        <time>2024-08-14T06:19:29Z</time>
      </trkpt>
      <trkpt lat="44.88622" lon="6.08711">
        <ele>1850</ele>
        <time>2024-08-14T06:19:30Z</time>
      </trkpt>
      <trkpt lat="44.88622" lon="6.08711">
        <ele>1850.2</ele>
        <time>2024-08-14T06:19:31Z</time>
      </trkpt>
      <trkpt lat="44.88622" lon="6.08711">
        <ele>1850.4</ele>
        <time>2024-08-14T06:19:32Z</time>
      </trkpt>
      <trkpt lat="44.88624" lon="6.08709">
        <ele>1850.8</ele>
        <time>2024-08-14T06:19:33Z</time>
      </trkpt>
      <trkpt lat="44.88624" lon="6.08709">
        <ele>1850.8</ele>
        <time>2024-08-14T06:19:34Z</time>
      </trkpt>
      <trkpt lat="44.88624" lon="6.08709">
        <ele>1851</ele>
        <time>2024-08-14T06:19:35Z</time>
      </trkpt>
      <trkpt lat="44.88624" lon="6.08709">
        <ele>1851</ele>
        <time>2024-08-14T06:19:36Z</time>
      </trkpt>
      <trkpt lat="44.88626" lon="6.08708">
        <ele>1851</ele>
        <time>2024-08-14T06:19:37Z</time>
      </trkpt>
      <trkpt lat="44.88626" lon="6.08708">
        <ele>1851.6</ele>
        <time>2024-08-14T06:19:38Z</time>
      </trkpt>
      <trkpt lat="44.88626" lon="6.08708">
        <ele>1851.6</ele>
        <time>2024-08-14T06:19:39Z</time>
      </trkpt>
      <trkpt lat="44.88628" lon="6.08706">
        <ele>1851.6</ele>
        <time>2024-08-14T06:19:40Z</time>
      </trkpt>
      <trkpt lat="44.88628" lon="6.08706">
        <ele>1851.8</ele>
        <time>2024-08-14T06:19:41Z</time>
      </trkpt>
      <trkpt lat="44.88628" lon="6.08706">
        <ele>1852.2</ele>
        <time>2024-08-14T06:19:42Z</time>
      </trkpt>
      <trkpt lat="44.8863" lon="6.08705">
        <ele>1852.2</ele>
        <time>2024-08-14T06:19:43Z</time>
      </trkpt>
      <trkpt lat="44.8863" lon="6.08705">
        <ele>1853</ele>
        <time>2024-08-14T06:19:44Z</time>
      </trkpt>
      <trkpt lat="44.8863" lon="6.08705">
        <ele>1853</ele>
        <time>2024-08-14T06:19:45Z</time>
      </trkpt>
      <trkpt lat="44.88632" lon="6.08705">
        <ele>1853.2</ele>
        <time>2024-08-14T06:19:46Z</time>
      </trkpt>
      <trkpt lat="44.88632" lon="6.08705">
        <ele>1853.2</ele>
        <time>2024-08-14T06:19:47Z</time>
      </trkpt>
      <trkpt lat="44.88632" lon="6.08705">
        <ele>1853.4</ele>
        <time>2024-08-14T06:19:48Z</time>
      </trkpt>
      <trkpt lat="44.88632" lon="6.08705">
        <ele>1853.8</ele>
        <time>2024-08-14T06:19:49Z</time>
      </trkpt>
      <trkpt lat="44.88632" lon="6.08705">
        <ele>1853.8</ele>
        <time>2024-08-14T06:19:50Z</time>
      </trkpt>
      <trkpt lat="44.88632" lon="6.08705">
        <ele>1854</ele>
        <time>2024-08-14T06:19:51Z</time>
      </trkpt>
      <trkpt lat="44.88633" lon="6.08704">
        <ele>1854.6</ele>
        <time>2024-08-14T06:19:52Z</time>
      </trkpt>
      <trkpt lat="44.88633" lon="6.08704">
        <ele>1854.6</ele>
        <time>2024-08-14T06:19:53Z</time>
      </trkpt>
      <trkpt lat="44.88633" lon="6.08704">
        <ele>1854.6</ele>
        <time>2024-08-14T06:19:54Z</time>
      </trkpt>
      <trkpt lat="44.88633" lon="6.08704">
        <ele>1854.6</ele>
        <time>2024-08-14T06:19:55Z</time>
      </trkpt>
      <trkpt lat="44.88636" lon="6.08703">
        <ele>1855</ele>
        <time>2024-08-14T06:19:56Z</time>
      </trkpt>
      <trkpt lat="44.88636" lon="6.08703">
        <ele>1855.2</ele>
        <time>2024-08-14T06:19:57Z</time>
      </trkpt>
      <trkpt lat="44.88636" lon="6.08703">
        <ele>1855.2</ele>
        <time>2024-08-14T06:19:58Z</time>
      </trkpt>
      <trkpt lat="44.88636" lon="6.08703">
        <ele>1855.6</ele>
        <time>2024-08-14T06:19:59Z</time>
      </trkpt>
      <trkpt lat="44.88636" lon="6.08703">
        <ele>1856.4</ele>
        <time>2024-08-14T06:20:00Z</time>
      </trkpt>
      <trkpt lat="44.88638" lon="6.08703">
        <ele>1856.4</ele>
        <time>2024-08-14T06:20:01Z</time>
      </trkpt>
      <trkpt lat="44.88638" lon="6.08703">
        <ele>1856.6</ele>
        <time>2024-08-14T06:20:02Z</time>
      </trkpt>
      <trkpt lat="44.88638" lon="6.08703">
        <ele>1856.8</ele>
        <time>2024-08-14T06:20:03Z</time>
      </trkpt>
      <trkpt lat="44.88638" lon="6.08703">
        <ele>1857.2</ele>
        <time>2024-08-14T06:20:04Z</time>
      </trkpt>
      <trkpt lat="44.88638" lon="6.08703">
        <ele>1857.2</ele>
        <time>2024-08-14T06:20:05Z</time>
      </trkpt>
      <trkpt lat="44.88638" lon="6.08703">
        <ele>1857.2</ele>
        <time>2024-08-14T06:20:06Z</time>
      </trkpt>
      <trkpt lat="44.8864" lon="6.08702">
        <ele>1857.4</ele>
        <time>2024-08-14T06:20:07Z</time>
      </trkpt>
      <trkpt lat="44.8864" lon="6.08702">
        <ele>1857.8</ele>
        <time>2024-08-14T06:20:08Z</time>
      </trkpt>
      <trkpt lat="44.8864" lon="6.08702">
        <ele>1857.8</ele>
        <time>2024-08-14T06:20:09Z</time>
      </trkpt>
      <trkpt lat="44.8864" lon="6.08702">
        <ele>1858.2</ele>
        <time>2024-08-14T06:20:10Z</time>
      </trkpt>
      <trkpt lat="44.8864" lon="6.08702">
        <ele>1858.2</ele>
        <time>2024-08-14T06:20:11Z</time>
      </trkpt>
      <trkpt lat="44.8864" lon="6.08702">
        <ele>1858.2</ele>
        <time>2024-08-14T06:20:12Z</time>
      </trkpt>
      <trkpt lat="44.88642" lon="6.08701">
        <ele>1858.6</ele>
        <time>2024-08-14T06:20:13Z</time>
      </trkpt>
      <trkpt lat="44.88642" lon="6.08701">
        <ele>1858.8</ele>
        <time>2024-08-14T06:20:14Z</time>
      </trkpt>
      <trkpt lat="44.88642" lon="6.08701">
        <ele>1859.2</ele>
        <time>2024-08-14T06:20:15Z</time>
      </trkpt>
      <trkpt lat="44.88642" lon="6.08701">
        <ele>1859.2</ele>
        <time>2024-08-14T06:20:16Z</time>
      </trkpt>
      <trkpt lat="44.88642" lon="6.08701">
        <ele>1859.4</ele>
        <time>2024-08-14T06:20:17Z</time>
      </trkpt>
      <trkpt lat="44.88642" lon="6.08701">
        <ele>1859.4</ele>
        <time>2024-08-14T06:20:18Z</time>
      </trkpt>
      <trkpt lat="44.88642" lon="6.08701">
        <ele>1859.6</ele>
        <time>2024-08-14T06:20:19Z</time>
      </trkpt>
      <trkpt lat="44.88642" lon="6.08701">
        <ele>1859.8</ele>
        <time>2024-08-14T06:20:20Z</time>
      </trkpt>
      <trkpt lat="44.88642" lon="6.08701">
        <ele>1860</ele>
        <time>2024-08-14T06:20:21Z</time>
      </trkpt>
      <trkpt lat="44.88642" lon="6.08701">
        <ele>1860</ele>
        <time>2024-08-14T06:20:22Z</time>
      </trkpt>
      <trkpt lat="44.88642" lon="6.08701">
        <ele>1860</ele>
        <time>2024-08-14T06:20:23Z</time>
      </trkpt>
      <trkpt lat="44.88644" lon="6.08699">
        <ele>1860.6</ele>
        <time>2024-08-14T06:20:24Z</time>
      </trkpt>
      <trkpt lat="44.88644" lon="6.08699">
        <ele>1860.8</ele>
        <time>2024-08-14T06:20:25Z</time>
      </trkpt>
      <trkpt lat="44.88645" lon="6.08697">
        <ele>1860.8</ele>
        <time>2024-08-14T06:20:26Z</time>
      </trkpt>
      <trkpt lat="44.88645" lon="6.08697">
        <ele>1861</ele>
        <time>2024-08-14T06:20:27Z</time>
      </trkpt>
      <trkpt lat="44.88645" lon="6.08697">
        <ele>1861.4</ele>
        <time>2024-08-14T06:20:28Z</time>
      </trkpt>
      <trkpt lat="44.88645" lon="6.08697">
        <ele>1861.6</ele>
        <time>2024-08-14T06:20:29Z</time>
      </trkpt>
      <trkpt lat="44.88645" lon="6.08697">
        <ele>1861.6</ele>
        <time>2024-08-14T06:20:30Z</time>
      </trkpt>
      <trkpt lat="44.88645" lon="6.08697">
        <ele>1861.6</ele>
        <time>2024-08-14T06:20:31Z</time>
      </trkpt>
      <trkpt lat="44.88645" lon="6.08697">
        <ele>1861.8</ele>
        <time>2024-08-14T06:20:32Z</time>
      </trkpt>
      <trkpt lat="44.88645" lon="6.08697">
        <ele>1862</ele>
        <time>2024-08-14T06:20:33Z</time>
      </trkpt>
      <trkpt lat="44.88645" lon="6.08694">
        <ele>1862</ele>
        <time>2024-08-14T06:20:34Z</time>
      </trkpt>
      <trkpt lat="44.88645" lon="6.08694">
        <ele>1862</ele>
        <time>2024-08-14T06:20:35Z</time>
      </trkpt>
      <trkpt lat="44.88645" lon="6.08694">
        <ele>1862</ele>
        <time>2024-08-14T06:20:36Z</time>
      </trkpt>
      <trkpt lat="44.88645" lon="6.08694">
        <ele>1862.2</ele>
        <time>2024-08-14T06:20:37Z</time>
      </trkpt>
      <trkpt lat="44.88645" lon="6.08694">
        <ele>1862.6</ele>
        <time>2024-08-14T06:20:38Z</time>
      </trkpt>
      <trkpt lat="44.88645" lon="6.08694">
        <ele>1862.6</ele>
        <time>2024-08-14T06:20:39Z</time>
      </trkpt>
      <trkpt lat="44.88647" lon="6.08692">
        <ele>1862.8</ele>
        <time>2024-08-14T06:20:40Z</time>
      </trkpt>
      <trkpt lat="44.88647" lon="6.08692">
        <ele>1863.4</ele>
        <time>2024-08-14T06:20:41Z</time>
      </trkpt>
      <trkpt lat="44.88649" lon="6.08689">
        <ele>1863.6</ele>
        <time>2024-08-14T06:20:42Z</time>
      </trkpt>
      <trkpt lat="44.8865" lon="6.08687">
        <ele>1863.8</ele>
        <time>2024-08-14T06:20:43Z</time>
      </trkpt>
      <trkpt lat="44.88651" lon="6.08685">
        <ele>1863.8</ele>
        <time>2024-08-14T06:20:44Z</time>
      </trkpt>
      <trkpt lat="44.88653" lon="6.08683">
        <ele>1863.8</ele>
        <time>2024-08-14T06:20:45Z</time>
      </trkpt>
      <trkpt lat="44.88654" lon="6.08681">
        <ele>1864</ele>
        <time>2024-08-14T06:20:46Z</time>
      </trkpt>
      <trkpt lat="44.88654" lon="6.08681">
        <ele>1864.2</ele>
        <time>2024-08-14T06:20:47Z</time>
      </trkpt>
      <trkpt lat="44.88655" lon="6.08678">
        <ele>1864.2</ele>
        <time>2024-08-14T06:20:48Z</time>
      </trkpt>
      <trkpt lat="44.88655" lon="6.08678">
        <ele>1864.2</ele>
        <time>2024-08-14T06:20:49Z</time>
      </trkpt>
      <trkpt lat="44.88656" lon="6.08676">
        <ele>1864.4</ele>
        <time>2024-08-14T06:20:50Z</time>
      </trkpt>
      <trkpt lat="44.88656" lon="6.08676">
        <ele>1864.4</ele>
        <time>2024-08-14T06:20:51Z</time>
      </trkpt>
      <trkpt lat="44.88656" lon="6.08676">
        <ele>1864.4</ele>
        <time>2024-08-14T06:20:52Z</time>
      </trkpt>
      <trkpt lat="44.88656" lon="6.08673">
        <ele>1865</ele>
        <time>2024-08-14T06:20:53Z</time>
      </trkpt>
      <trkpt lat="44.88656" lon="6.08673">
        <ele>1865.4</ele>
        <time>2024-08-14T06:20:54Z</time>
      </trkpt>
      <trkpt lat="44.88656" lon="6.08673">
        <ele>1865.6</ele>
        <time>2024-08-14T06:20:55Z</time>
      </trkpt>
      <trkpt lat="44.88655" lon="6.0867">
        <ele>1865.8</ele>
        <time>2024-08-14T06:20:56Z</time>
      </trkpt>
      <trkpt lat="44.88655" lon="6.0867">
        <ele>1866.2</ele>
        <time>2024-08-14T06:20:57Z</time>
      </trkpt>
      <trkpt lat="44.88655" lon="6.0867">
        <ele>1866.2</ele>
        <time>2024-08-14T06:20:58Z</time>
      </trkpt>
      <trkpt lat="44.88655" lon="6.08667">
        <ele>1866.4</ele>
        <time>2024-08-14T06:20:59Z</time>
      </trkpt>
      <trkpt lat="44.88655" lon="6.08667">
        <ele>1866.6</ele>
        <time>2024-08-14T06:21:00Z</time>
      </trkpt>
      <trkpt lat="44.88655" lon="6.08667">
        <ele>1866.8</ele>
        <time>2024-08-14T06:21:01Z</time>
      </trkpt>
      <trkpt lat="44.88656" lon="6.08664">
        <ele>1867.6</ele>
        <time>2024-08-14T06:21:02Z</time>
      </trkpt>
      <trkpt lat="44.88656" lon="6.08664">
        <ele>1867.8</ele>
        <time>2024-08-14T06:21:03Z</time>
      </trkpt>
      <trkpt lat="44.88656" lon="6.08661">
        <ele>1867.6</ele>
        <time>2024-08-14T06:21:04Z</time>
      </trkpt>
      <trkpt lat="44.88656" lon="6.08661">
        <ele>1867.6</ele>
        <time>2024-08-14T06:21:05Z</time>
      </trkpt>
      <trkpt lat="44.88657" lon="6.08659">
        <ele>1867.6</ele>
        <time>2024-08-14T06:21:06Z</time>
      </trkpt>
      <trkpt lat="44.88657" lon="6.08659">
        <ele>1867.8</ele>
        <time>2024-08-14T06:21:07Z</time>
      </trkpt>
      <trkpt lat="44.88657" lon="6.08655">
        <ele>1868</ele>
        <time>2024-08-14T06:21:08Z</time>
      </trkpt>
      <trkpt lat="44.88657" lon="6.08655">
        <ele>1868.2</ele>
        <time>2024-08-14T06:21:09Z</time>
      </trkpt>
      <trkpt lat="44.88658" lon="6.08653">
        <ele>1868.2</ele>
        <time>2024-08-14T06:21:10Z</time>
      </trkpt>
      <trkpt lat="44.88658" lon="6.08653">
        <ele>1868.2</ele>
        <time>2024-08-14T06:21:11Z</time>
      </trkpt>
      <trkpt lat="44.88659" lon="6.0865">
        <ele>1868.2</ele>
        <time>2024-08-14T06:21:12Z</time>
      </trkpt>
      <trkpt lat="44.88659" lon="6.0865">
        <ele>1868.6</ele>
        <time>2024-08-14T06:21:13Z</time>
      </trkpt>
      <trkpt lat="44.88659" lon="6.08648">
        <ele>1868.8</ele>
        <time>2024-08-14T06:21:14Z</time>
      </trkpt>
      <trkpt lat="44.88659" lon="6.08648">
        <ele>1868.8</ele>
        <time>2024-08-14T06:21:15Z</time>
      </trkpt>
      <trkpt lat="44.8866" lon="6.08645">
        <ele>1868.8</ele>
        <time>2024-08-14T06:21:16Z</time>
      </trkpt>
      <trkpt lat="44.8866" lon="6.08645">
        <ele>1869.4</ele>
        <time>2024-08-14T06:21:17Z</time>
      </trkpt>
      <trkpt lat="44.88661" lon="6.08642">
        <ele>1869.8</ele>
        <time>2024-08-14T06:21:18Z</time>
      </trkpt>
      <trkpt lat="44.88661" lon="6.08642">
        <ele>1870</ele>
        <time>2024-08-14T06:21:19Z</time>
      </trkpt>
      <trkpt lat="44.88661" lon="6.08639">
        <ele>1870.2</ele>
        <time>2024-08-14T06:21:20Z</time>
      </trkpt>
      <trkpt lat="44.88661" lon="6.08639">
        <ele>1870.2</ele>
        <time>2024-08-14T06:21:21Z</time>
      </trkpt>
      <trkpt lat="44.88661" lon="6.08639">
        <ele>1870.4</ele>
        <time>2024-08-14T06:21:22Z</time>
      </trkpt>
      <trkpt lat="44.88662" lon="6.08636">
        <ele>1870.6</ele>
        <time>2024-08-14T06:21:23Z</time>
      </trkpt>
      <trkpt lat="44.88662" lon="6.08636">
        <ele>1870.8</ele>
        <time>2024-08-14T06:21:24Z</time>
      </trkpt>
      <trkpt lat="44.88663" lon="6.08633">
        <ele>1871</ele>
        <time>2024-08-14T06:21:25Z</time>
      </trkpt>
      <trkpt lat="44.88663" lon="6.08633">
        <ele>1871</ele>
        <time>2024-08-14T06:21:26Z</time>
      </trkpt>
      <trkpt lat="44.88665" lon="6.08631">
        <ele>1871.2</ele>
        <time>2024-08-14T06:21:27Z</time>
      </trkpt>
      <trkpt lat="44.88665" lon="6.08631">
        <ele>1871.4</ele>
        <time>2024-08-14T06:21:28Z</time>
      </trkpt>
      <trkpt lat="44.88667" lon="6.08629">
        <ele>1871.8</ele>
        <time>2024-08-14T06:21:29Z</time>
      </trkpt>
      <trkpt lat="44.88667" lon="6.08629">
        <ele>1871.8</ele>
        <time>2024-08-14T06:21:30Z</time>
      </trkpt>
      <trkpt lat="44.88667" lon="6.08629">
        <ele>1872</ele>
        <time>2024-08-14T06:21:31Z</time>
      </trkpt>
      <trkpt lat="44.88669" lon="6.08626">
        <ele>1872</ele>
        <time>2024-08-14T06:21:32Z</time>
      </trkpt>
      <trkpt lat="44.88669" lon="6.08626">
        <ele>1872.2</ele>
        <time>2024-08-14T06:21:33Z</time>
      </trkpt>
      <trkpt lat="44.88668" lon="6.08623">
        <ele>1872.4</ele>
        <time>2024-08-14T06:21:34Z</time>
      </trkpt>
      <trkpt lat="44.88668" lon="6.08623">
        <ele>1872.4</ele>
        <time>2024-08-14T06:21:35Z</time>
      </trkpt>
      <trkpt lat="44.88668" lon="6.08621">
        <ele>1872.4</ele>
        <time>2024-08-14T06:21:36Z</time>
      </trkpt>
      <trkpt lat="44.88668" lon="6.08621">
        <ele>1872.6</ele>
        <time>2024-08-14T06:21:37Z</time>
      </trkpt>
      <trkpt lat="44.88669" lon="6.08617">
        <ele>1872.6</ele>
        <time>2024-08-14T06:21:38Z</time>
      </trkpt>
      <trkpt lat="44.88669" lon="6.08617">
        <ele>1872.6</ele>
        <time>2024-08-14T06:21:39Z</time>
      </trkpt>
      <trkpt lat="44.88669" lon="6.08617">
        <ele>1872.8</ele>
        <time>2024-08-14T06:21:40Z</time>
      </trkpt>
      <trkpt lat="44.8867" lon="6.08614">
        <ele>1873.2</ele>
        <time>2024-08-14T06:21:41Z</time>
      </trkpt>
      <trkpt lat="44.8867" lon="6.08614">
        <ele>1873.2</ele>
        <time>2024-08-14T06:21:42Z</time>
      </trkpt>
      <trkpt lat="44.8867" lon="6.08611">
        <ele>1873.4</ele>
        <time>2024-08-14T06:21:43Z</time>
      </trkpt>
      <trkpt lat="44.8867" lon="6.08611">
        <ele>1873.4</ele>
        <time>2024-08-14T06:21:44Z</time>
      </trkpt>
      <trkpt lat="44.8867" lon="6.08611">
        <ele>1873.4</ele>
        <time>2024-08-14T06:21:45Z</time>
      </trkpt>
      <trkpt lat="44.88672" lon="6.08608">
        <ele>1873.4</ele>
        <time>2024-08-14T06:21:46Z</time>
      </trkpt>
      <trkpt lat="44.88672" lon="6.08608">
        <ele>1873.6</ele>
        <time>2024-08-14T06:21:47Z</time>
      </trkpt>
      <trkpt lat="44.88672" lon="6.08608">
        <ele>1873.8</ele>
        <time>2024-08-14T06:21:48Z</time>
      </trkpt>
      <trkpt lat="44.88673" lon="6.08604">
        <ele>1874.4</ele>
        <time>2024-08-14T06:21:49Z</time>
      </trkpt>
      <trkpt lat="44.88673" lon="6.08604">
        <ele>1874.4</ele>
        <time>2024-08-14T06:21:50Z</time>
      </trkpt>
      <trkpt lat="44.88673" lon="6.08604">
        <ele>1874.4</ele>
        <time>2024-08-14T06:21:51Z</time>
      </trkpt>
      <trkpt lat="44.88674" lon="6.08602">
        <ele>1875</ele>
        <time>2024-08-14T06:21:52Z</time>
      </trkpt>
      <trkpt lat="44.88674" lon="6.08602">
        <ele>1875.2</ele>
        <time>2024-08-14T06:21:53Z</time>
      </trkpt>
      <trkpt lat="44.88674" lon="6.08602">
        <ele>1875.2</ele>
        <time>2024-08-14T06:21:54Z</time>
      </trkpt>
      <trkpt lat="44.88676" lon="6.08599">
        <ele>1875.4</ele>
        <time>2024-08-14T06:21:55Z</time>
      </trkpt>
      <trkpt lat="44.88676" lon="6.08599">
        <ele>1875.6</ele>
        <time>2024-08-14T06:21:56Z</time>
      </trkpt>
      <trkpt lat="44.88676" lon="6.08599">
        <ele>1875.8</ele>
        <time>2024-08-14T06:21:57Z</time>
      </trkpt>
      <trkpt lat="44.88677" lon="6.08596">
        <ele>1876.2</ele>
        <time>2024-08-14T06:21:58Z</time>
      </trkpt>
      <trkpt lat="44.88677" lon="6.08596">
        <ele>1876.2</ele>
        <time>2024-08-14T06:21:59Z</time>
      </trkpt>
      <trkpt lat="44.88677" lon="6.08596">
        <ele>1876.4</ele>
        <time>2024-08-14T06:22:00Z</time>
      </trkpt>
      <trkpt lat="44.88678" lon="6.08594">
        <ele>1876.8</ele>
        <time>2024-08-14T06:22:01Z</time>
      </trkpt>
      <trkpt lat="44.88678" lon="6.08594">
        <ele>1877.6</ele>
        <time>2024-08-14T06:22:02Z</time>
      </trkpt>
      <trkpt lat="44.88678" lon="6.08594">
        <ele>1877.6</ele>
        <time>2024-08-14T06:22:03Z</time>
      </trkpt>
      <trkpt lat="44.88679" lon="6.08592">
        <ele>1877.6</ele>
        <time>2024-08-14T06:22:04Z</time>
      </trkpt>
      <trkpt lat="44.88679" lon="6.08592">
        <ele>1877.8</ele>
        <time>2024-08-14T06:22:05Z</time>
      </trkpt>
      <trkpt lat="44.88679" lon="6.08592">
        <ele>1877.8</ele>
        <time>2024-08-14T06:22:06Z</time>
      </trkpt>
      <trkpt lat="44.88681" lon="6.08589">
        <ele>1878.2</ele>
        <time>2024-08-14T06:22:07Z</time>
      </trkpt>
      <trkpt lat="44.88681" lon="6.08589">
        <ele>1878.4</ele>
        <time>2024-08-14T06:22:08Z</time>
      </trkpt>
      <trkpt lat="44.88681" lon="6.08589">
        <ele>1878.6</ele>
        <time>2024-08-14T06:22:09Z</time>
      </trkpt>
      <trkpt lat="44.88682" lon="6.08587">
        <ele>1878.6</ele>
        <time>2024-08-14T06:22:10Z</time>
      </trkpt>
      <trkpt lat="44.88682" lon="6.08587">
        <ele>1879</ele>
        <time>2024-08-14T06:22:11Z</time>
      </trkpt>
      <trkpt lat="44.88682" lon="6.08587">
        <ele>1879.2</ele>
        <time>2024-08-14T06:22:12Z</time>
      </trkpt>
      <trkpt lat="44.88684" lon="6.08584">
        <ele>1879.2</ele>
        <time>2024-08-14T06:22:13Z</time>
      </trkpt>
      <trkpt lat="44.88684" lon="6.08584">
        <ele>1879.4</ele>
        <time>2024-08-14T06:22:14Z</time>
      </trkpt>
      <trkpt lat="44.88684" lon="6.08584">
        <ele>1879.4</ele>
        <time>2024-08-14T06:22:15Z</time>
      </trkpt>
      <trkpt lat="44.88685" lon="6.08582">
        <ele>1879.8</ele>
        <time>2024-08-14T06:22:16Z</time>
      </trkpt>
      <trkpt lat="44.88685" lon="6.08582">
        <ele>1880</ele>
        <time>2024-08-14T06:22:17Z</time>
      </trkpt>
      <trkpt lat="44.88685" lon="6.08582">
        <ele>1880.2</ele>
        <time>2024-08-14T06:22:18Z</time>
      </trkpt>
      <trkpt lat="44.88687" lon="6.08579">
        <ele>1880.2</ele>
        <time>2024-08-14T06:22:19Z</time>
      </trkpt>
      <trkpt lat="44.88687" lon="6.08579">
        <ele>1880.4</ele>
        <time>2024-08-14T06:22:20Z</time>
      </trkpt>
      <trkpt lat="44.88687" lon="6.08579">
        <ele>1880.6</ele>
        <time>2024-08-14T06:22:21Z</time>
      </trkpt>
      <trkpt lat="44.88687" lon="6.08579">
        <ele>1880.8</ele>
        <time>2024-08-14T06:22:22Z</time>
      </trkpt>
      <trkpt lat="44.88687" lon="6.08579">
        <ele>1881.2</ele>
        <time>2024-08-14T06:22:23Z</time>
      </trkpt>
      <trkpt lat="44.88689" lon="6.08581">
        <ele>1881.2</ele>
        <time>2024-08-14T06:22:24Z</time>
      </trkpt>
      <trkpt lat="44.88689" lon="6.08581">
        <ele>1881.8</ele>
        <time>2024-08-14T06:22:25Z</time>
      </trkpt>
      <trkpt lat="44.88688" lon="6.08584">
        <ele>1881.8</ele>
        <time>2024-08-14T06:22:26Z</time>
      </trkpt>
      <trkpt lat="44.88688" lon="6.08584">
        <ele>1882</ele>
        <time>2024-08-14T06:22:27Z</time>
      </trkpt>
      <trkpt lat="44.88688" lon="6.08588">
        <ele>1882</ele>
        <time>2024-08-14T06:22:28Z</time>
      </trkpt>
      <trkpt lat="44.88688" lon="6.08588">
        <ele>1882.2</ele>
        <time>2024-08-14T06:22:29Z</time>
      </trkpt>
      <trkpt lat="44.88688" lon="6.08588">
        <ele>1882.2</ele>
        <time>2024-08-14T06:22:30Z</time>
      </trkpt>
      <trkpt lat="44.88688" lon="6.08588">
        <ele>1882.6</ele>
        <time>2024-08-14T06:22:31Z</time>
      </trkpt>
      <trkpt lat="44.88687" lon="6.08591">
        <ele>1882.6</ele>
        <time>2024-08-14T06:22:32Z</time>
      </trkpt>
      <trkpt lat="44.88687" lon="6.08591">
        <ele>1883</ele>
        <time>2024-08-14T06:22:33Z</time>
      </trkpt>
      <trkpt lat="44.88687" lon="6.08591">
        <ele>1883</ele>
        <time>2024-08-14T06:22:34Z</time>
      </trkpt>
      <trkpt lat="44.88687" lon="6.08591">
        <ele>1883.4</ele>
        <time>2024-08-14T06:22:35Z</time>
      </trkpt>
      <trkpt lat="44.88687" lon="6.08591">
        <ele>1883.4</ele>
        <time>2024-08-14T06:22:36Z</time>
      </trkpt>
      <trkpt lat="44.88687" lon="6.08594">
        <ele>1883.8</ele>
        <time>2024-08-14T06:22:37Z</time>
      </trkpt>
      <trkpt lat="44.88687" lon="6.08594">
        <ele>1883.8</ele>
        <time>2024-08-14T06:22:38Z</time>
      </trkpt>
      <trkpt lat="44.88687" lon="6.08598">
        <ele>1884.2</ele>
        <time>2024-08-14T06:22:39Z</time>
      </trkpt>
      <trkpt lat="44.88687" lon="6.08598">
        <ele>1884.4</ele>
        <time>2024-08-14T06:22:40Z</time>
      </trkpt>
      <trkpt lat="44.88688" lon="6.08602">
        <ele>1884.6</ele>
        <time>2024-08-14T06:22:41Z</time>
      </trkpt>
      <trkpt lat="44.88688" lon="6.08602">
        <ele>1884.8</ele>
        <time>2024-08-14T06:22:42Z</time>
      </trkpt>
      <trkpt lat="44.88688" lon="6.08605">
        <ele>1884.8</ele>
        <time>2024-08-14T06:22:43Z</time>
      </trkpt>
      <trkpt lat="44.88688" lon="6.08605">
        <ele>1884.8</ele>
        <time>2024-08-14T06:22:44Z</time>
      </trkpt>
      <trkpt lat="44.88688" lon="6.08608">
        <ele>1885</ele>
        <time>2024-08-14T06:22:45Z</time>
      </trkpt>
      <trkpt lat="44.88688" lon="6.08608">
        <ele>1885.2</ele>
        <time>2024-08-14T06:22:46Z</time>
      </trkpt>
      <trkpt lat="44.88688" lon="6.08611">
        <ele>1885.4</ele>
        <time>2024-08-14T06:22:47Z</time>
      </trkpt>
      <trkpt lat="44.88688" lon="6.08611">
        <ele>1885.6</ele>
        <time>2024-08-14T06:22:48Z</time>
      </trkpt>
      <trkpt lat="44.88687" lon="6.08613">
        <ele>1885.6</ele>
        <time>2024-08-14T06:22:49Z</time>
      </trkpt>
      <trkpt lat="44.88687" lon="6.08613">
        <ele>1885.8</ele>
        <time>2024-08-14T06:22:50Z</time>
      </trkpt>
      <trkpt lat="44.88687" lon="6.08613">
        <ele>1886</ele>
        <time>2024-08-14T06:22:51Z</time>
      </trkpt>
      <trkpt lat="44.88687" lon="6.08617">
        <ele>1886.2</ele>
        <time>2024-08-14T06:22:52Z</time>
      </trkpt>
      <trkpt lat="44.88687" lon="6.08617">
        <ele>1886.2</ele>
        <time>2024-08-14T06:22:53Z</time>
      </trkpt>
      <trkpt lat="44.88687" lon="6.08619">
        <ele>1886.2</ele>
        <time>2024-08-14T06:22:54Z</time>
      </trkpt>
      <trkpt lat="44.88687" lon="6.08619">
        <ele>1886.2</ele>
        <time>2024-08-14T06:22:55Z</time>
      </trkpt>
      <trkpt lat="44.88687" lon="6.08619">
        <ele>1886.6</ele>
        <time>2024-08-14T06:22:56Z</time>
      </trkpt>
      <trkpt lat="44.88687" lon="6.08619">
        <ele>1887</ele>
        <time>2024-08-14T06:22:57Z</time>
      </trkpt>
      <trkpt lat="44.88687" lon="6.08619">
        <ele>1887</ele>
        <time>2024-08-14T06:22:58Z</time>
      </trkpt>
      <trkpt lat="44.88687" lon="6.08619">
        <ele>1887.2</ele>
        <time>2024-08-14T06:22:59Z</time>
      </trkpt>
      <trkpt lat="44.88687" lon="6.08619">
        <ele>1887.8</ele>
        <time>2024-08-14T06:23:00Z</time>
      </trkpt>
      <trkpt lat="44.88687" lon="6.08619">
        <ele>1887.8</ele>
        <time>2024-08-14T06:23:01Z</time>
      </trkpt>
      <trkpt lat="44.88687" lon="6.08619">
        <ele>1887.8</ele>
        <time>2024-08-14T06:23:02Z</time>
      </trkpt>
      <trkpt lat="44.88687" lon="6.08619">
        <ele>1887.8</ele>
        <time>2024-08-14T06:23:03Z</time>
      </trkpt>
      <trkpt lat="44.88689" lon="6.08617">
        <ele>1888.2</ele>
        <time>2024-08-14T06:23:04Z</time>
      </trkpt>
      <trkpt lat="44.88689" lon="6.08617">
        <ele>1888.2</ele>
        <time>2024-08-14T06:23:05Z</time>
      </trkpt>
      <trkpt lat="44.88689" lon="6.08617">
        <ele>1888.4</ele>
        <time>2024-08-14T06:23:06Z</time>
      </trkpt>
      <trkpt lat="44.8869" lon="6.08615">
        <ele>1889.2</ele>
        <time>2024-08-14T06:23:07Z</time>
      </trkpt>
      <trkpt lat="44.8869" lon="6.08615">
        <ele>1889.4</ele>
        <time>2024-08-14T06:23:08Z</time>
      </trkpt>
      <trkpt lat="44.8869" lon="6.08615">
        <ele>1889.6</ele>
        <time>2024-08-14T06:23:09Z</time>
      </trkpt>
      <trkpt lat="44.8869" lon="6.08615">
        <ele>1889.6</ele>
        <time>2024-08-14T06:23:10Z</time>
      </trkpt>
      <trkpt lat="44.8869" lon="6.08615">
        <ele>1890</ele>
        <time>2024-08-14T06:23:11Z</time>
      </trkpt>
      <trkpt lat="44.8869" lon="6.08615">
        <ele>1890</ele>
        <time>2024-08-14T06:23:12Z</time>
      </trkpt>
      <trkpt lat="44.88691" lon="6.08613">
        <ele>1890.4</ele>
        <time>2024-08-14T06:23:13Z</time>
      </trkpt>
      <trkpt lat="44.88691" lon="6.08613">
        <ele>1890.4</ele>
        <time>2024-08-14T06:23:14Z</time>
      </trkpt>
      <trkpt lat="44.88693" lon="6.0861">
        <ele>1890.6</ele>
        <time>2024-08-14T06:23:15Z</time>
      </trkpt>
      <trkpt lat="44.88694" lon="6.08608">
        <ele>1890.8</ele>
        <time>2024-08-14T06:23:16Z</time>
      </trkpt>
      <trkpt lat="44.88694" lon="6.08608">
        <ele>1890.8</ele>
        <time>2024-08-14T06:23:17Z</time>
      </trkpt>
      <trkpt lat="44.88696" lon="6.08605">
        <ele>1891.2</ele>
        <time>2024-08-14T06:23:18Z</time>
      </trkpt>
      <trkpt lat="44.88696" lon="6.08605">
        <ele>1891.4</ele>
        <time>2024-08-14T06:23:19Z</time>
      </trkpt>
      <trkpt lat="44.88697" lon="6.08602">
        <ele>1891.6</ele>
        <time>2024-08-14T06:23:20Z</time>
      </trkpt>
      <trkpt lat="44.88697" lon="6.08602">
        <ele>1891.8</ele>
        <time>2024-08-14T06:23:21Z</time>
      </trkpt>
      <trkpt lat="44.88698" lon="6.086">
        <ele>1892.2</ele>
        <time>2024-08-14T06:23:22Z</time>
      </trkpt>
      <trkpt lat="44.88698" lon="6.086">
        <ele>1892.4</ele>
        <time>2024-08-14T06:23:23Z</time>
      </trkpt>
      <trkpt lat="44.88699" lon="6.08598">
        <ele>1892.4</ele>
        <time>2024-08-14T06:23:24Z</time>
      </trkpt>
      <trkpt lat="44.88699" lon="6.08598">
        <ele>1892.4</ele>
        <time>2024-08-14T06:23:25Z</time>
      </trkpt>
      <trkpt lat="44.88699" lon="6.08598">
        <ele>1892.8</ele>
        <time>2024-08-14T06:23:26Z</time>
      </trkpt>
      <trkpt lat="44.887" lon="6.08594">
        <ele>1893</ele>
        <time>2024-08-14T06:23:27Z</time>
      </trkpt>
      <trkpt lat="44.887" lon="6.08594">
        <ele>1893.2</ele>
        <time>2024-08-14T06:23:28Z</time>
      </trkpt>
      <trkpt lat="44.887" lon="6.08594">
        <ele>1893.2</ele>
        <time>2024-08-14T06:23:29Z</time>
      </trkpt>
      <trkpt lat="44.88702" lon="6.08591">
        <ele>1893.2</ele>
        <time>2024-08-14T06:23:30Z</time>
      </trkpt>
      <trkpt lat="44.88702" lon="6.08591">
        <ele>1893.4</ele>
        <time>2024-08-14T06:23:31Z</time>
      </trkpt>
      <trkpt lat="44.88703" lon="6.08589">
        <ele>1893.8</ele>
        <time>2024-08-14T06:23:32Z</time>
      </trkpt>
      <trkpt lat="44.88703" lon="6.08589">
        <ele>1894.2</ele>
        <time>2024-08-14T06:23:33Z</time>
      </trkpt>
      <trkpt lat="44.88703" lon="6.08589">
        <ele>1894.2</ele>
        <time>2024-08-14T06:23:34Z</time>
      </trkpt>
      <trkpt lat="44.88704" lon="6.08586">
        <ele>1894.2</ele>
        <time>2024-08-14T06:23:35Z</time>
      </trkpt>
      <trkpt lat="44.88704" lon="6.08586">
        <ele>1894.4</ele>
        <time>2024-08-14T06:23:36Z</time>
      </trkpt>
      <trkpt lat="44.88704" lon="6.08586">
        <ele>1894.6</ele>
        <time>2024-08-14T06:23:37Z</time>
      </trkpt>
      <trkpt lat="44.88706" lon="6.08583">
        <ele>1894.6</ele>
        <time>2024-08-14T06:23:38Z</time>
      </trkpt>
      <trkpt lat="44.88706" lon="6.08583">
        <ele>1894.8</ele>
        <time>2024-08-14T06:23:39Z</time>
      </trkpt>
      <trkpt lat="44.88706" lon="6.08583">
        <ele>1895</ele>
        <time>2024-08-14T06:23:40Z</time>
      </trkpt>
      <trkpt lat="44.88707" lon="6.0858">
        <ele>1895</ele>
        <time>2024-08-14T06:23:41Z</time>
      </trkpt>
      <trkpt lat="44.88707" lon="6.0858">
        <ele>1895.2</ele>
        <time>2024-08-14T06:23:42Z</time>
      </trkpt>
      <trkpt lat="44.88708" lon="6.08578">
        <ele>1895.6</ele>
        <time>2024-08-14T06:23:43Z</time>
      </trkpt>
      <trkpt lat="44.88708" lon="6.08578">
        <ele>1895.8</ele>
        <time>2024-08-14T06:23:44Z</time>
      </trkpt>
      <trkpt lat="44.88708" lon="6.08578">
        <ele>1896</ele>
        <time>2024-08-14T06:23:45Z</time>
      </trkpt>
      <trkpt lat="44.8871" lon="6.08575">
        <ele>1896.2</ele>
        <time>2024-08-14T06:23:46Z</time>
      </trkpt>
      <trkpt lat="44.8871" lon="6.08575">
        <ele>1896.6</ele>
        <time>2024-08-14T06:23:47Z</time>
      </trkpt>
      <trkpt lat="44.8871" lon="6.08572">
        <ele>1897</ele>
        <time>2024-08-14T06:23:48Z</time>
      </trkpt>
      <trkpt lat="44.8871" lon="6.08572">
        <ele>1897.2</ele>
        <time>2024-08-14T06:23:49Z</time>
      </trkpt>
      <trkpt lat="44.8871" lon="6.08572">
        <ele>1897.2</ele>
        <time>2024-08-14T06:23:50Z</time>
      </trkpt>
      <trkpt lat="44.88712" lon="6.08569">
        <ele>1897.2</ele>
        <time>2024-08-14T06:23:51Z</time>
      </trkpt>
      <trkpt lat="44.88712" lon="6.08569">
        <ele>1897.6</ele>
        <time>2024-08-14T06:23:52Z</time>
      </trkpt>
      <trkpt lat="44.88712" lon="6.08569">
        <ele>1898</ele>
        <time>2024-08-14T06:23:53Z</time>
      </trkpt>
      <trkpt lat="44.88712" lon="6.08569">
        <ele>1898</ele>
        <time>2024-08-14T06:23:54Z</time>
      </trkpt>
      <trkpt lat="44.88714" lon="6.08566">
        <ele>1898.2</ele>
        <time>2024-08-14T06:23:55Z</time>
      </trkpt>
      <trkpt lat="44.88714" lon="6.08566">
        <ele>1898.6</ele>
        <time>2024-08-14T06:23:56Z</time>
      </trkpt>
      <trkpt lat="44.88714" lon="6.08563">
        <ele>1898.6</ele>
        <time>2024-08-14T06:23:57Z</time>
      </trkpt>
      <trkpt lat="44.88714" lon="6.08563">
        <ele>1898.8</ele>
        <time>2024-08-14T06:23:58Z</time>
      </trkpt>
      <trkpt lat="44.88714" lon="6.08561">
        <ele>1898.8</ele>
        <time>2024-08-14T06:23:59Z</time>
      </trkpt>
      <trkpt lat="44.88714" lon="6.08561">
        <ele>1899</ele>
        <time>2024-08-14T06:24:00Z</time>
      </trkpt>
      <trkpt lat="44.88714" lon="6.08561">
        <ele>1899.2</ele>
        <time>2024-08-14T06:24:01Z</time>
      </trkpt>
      <trkpt lat="44.88715" lon="6.08557">
        <ele>1899.6</ele>
        <time>2024-08-14T06:24:02Z</time>
      </trkpt>
      <trkpt lat="44.88715" lon="6.08557">
        <ele>1899.6</ele>
        <time>2024-08-14T06:24:03Z</time>
      </trkpt>
      <trkpt lat="44.88715" lon="6.08554">
        <ele>1899.4</ele>
        <time>2024-08-14T06:24:04Z</time>
      </trkpt>
      <trkpt lat="44.88715" lon="6.08554">
        <ele>1899.4</ele>
        <time>2024-08-14T06:24:05Z</time>
      </trkpt>
      <trkpt lat="44.88716" lon="6.08551">
        <ele>1899.6</ele>
        <time>2024-08-14T06:24:06Z</time>
      </trkpt>
      <trkpt lat="44.88716" lon="6.08551">
        <ele>1899.6</ele>
        <time>2024-08-14T06:24:07Z</time>
      </trkpt>
      <trkpt lat="44.88716" lon="6.08551">
        <ele>1899.6</ele>
        <time>2024-08-14T06:24:08Z</time>
      </trkpt>
      <trkpt lat="44.88717" lon="6.08548">
        <ele>1899.8</ele>
        <time>2024-08-14T06:24:09Z</time>
      </trkpt>
      <trkpt lat="44.88717" lon="6.08548">
        <ele>1900</ele>
        <time>2024-08-14T06:24:10Z</time>
      </trkpt>
      <trkpt lat="44.88717" lon="6.08548">
        <ele>1900</ele>
        <time>2024-08-14T06:24:11Z</time>
      </trkpt>
      <trkpt lat="44.88718" lon="6.08544">
        <ele>1900.2</ele>
        <time>2024-08-14T06:24:12Z</time>
      </trkpt>
      <trkpt lat="44.88718" lon="6.08544">
        <ele>1900.4</ele>
        <time>2024-08-14T06:24:13Z</time>
      </trkpt>
      <trkpt lat="44.88718" lon="6.08544">
        <ele>1900.6</ele>
        <time>2024-08-14T06:24:14Z</time>
      </trkpt>
      <trkpt lat="44.88719" lon="6.08541">
        <ele>1900.6</ele>
        <time>2024-08-14T06:24:15Z</time>
      </trkpt>
      <trkpt lat="44.88719" lon="6.08541">
        <ele>1900.8</ele>
        <time>2024-08-14T06:24:16Z</time>
      </trkpt>
      <trkpt lat="44.88719" lon="6.08541">
        <ele>1901.2</ele>
        <time>2024-08-14T06:24:17Z</time>
      </trkpt>
      <trkpt lat="44.8872" lon="6.08538">
        <ele>1901.6</ele>
        <time>2024-08-14T06:24:18Z</time>
      </trkpt>
      <trkpt lat="44.8872" lon="6.08538">
        <ele>1901.8</ele>
        <time>2024-08-14T06:24:19Z</time>
      </trkpt>
      <trkpt lat="44.8872" lon="6.08538">
        <ele>1902</ele>
        <time>2024-08-14T06:24:20Z</time>
      </trkpt>
      <trkpt lat="44.8872" lon="6.08538">
        <ele>1902</ele>
        <time>2024-08-14T06:24:21Z</time>
      </trkpt>
      <trkpt lat="44.8872" lon="6.08538">
        <ele>1902.2</ele>
        <time>2024-08-14T06:24:22Z</time>
      </trkpt>
      <trkpt lat="44.8872" lon="6.08538">
        <ele>1902.2</ele>
        <time>2024-08-14T06:24:23Z</time>
      </trkpt>
      <trkpt lat="44.88722" lon="6.08537">
        <ele>1902.8</ele>
        <time>2024-08-14T06:24:24Z</time>
      </trkpt>
      <trkpt lat="44.88722" lon="6.08537">
        <ele>1903</ele>
        <time>2024-08-14T06:24:25Z</time>
      </trkpt>
      <trkpt lat="44.88722" lon="6.08537">
        <ele>1903</ele>
        <time>2024-08-14T06:24:26Z</time>
      </trkpt>
      <trkpt lat="44.88722" lon="6.08537">
        <ele>1903</ele>
        <time>2024-08-14T06:24:27Z</time>
      </trkpt>
      <trkpt lat="44.88722" lon="6.0854">
        <ele>1903.2</ele>
        <time>2024-08-14T06:24:28Z</time>
      </trkpt>
      <trkpt lat="44.88722" lon="6.0854">
        <ele>1903.4</ele>
        <time>2024-08-14T06:24:29Z</time>
      </trkpt>
      <trkpt lat="44.88722" lon="6.0854">
        <ele>1903.6</ele>
        <time>2024-08-14T06:24:30Z</time>
      </trkpt>
      <trkpt lat="44.88723" lon="6.08543">
        <ele>1903.8</ele>
        <time>2024-08-14T06:24:31Z</time>
      </trkpt>
      <trkpt lat="44.88723" lon="6.08543">
        <ele>1904</ele>
        <time>2024-08-14T06:24:32Z</time>
      </trkpt>
      <trkpt lat="44.88723" lon="6.08543">
        <ele>1904</ele>
        <time>2024-08-14T06:24:33Z</time>
      </trkpt>
      <trkpt lat="44.88723" lon="6.08543">
        <ele>1904.2</ele>
        <time>2024-08-14T06:24:34Z</time>
      </trkpt>
      <trkpt lat="44.88723" lon="6.08543">
        <ele>1904.6</ele>
        <time>2024-08-14T06:24:35Z</time>
      </trkpt>
      <trkpt lat="44.88723" lon="6.08543">
        <ele>1904.6</ele>
        <time>2024-08-14T06:24:36Z</time>
      </trkpt>
      <trkpt lat="44.88724" lon="6.08546">
        <ele>1904.8</ele>
        <time>2024-08-14T06:24:37Z</time>
      </trkpt>
      <trkpt lat="44.88724" lon="6.08546">
        <ele>1904.8</ele>
        <time>2024-08-14T06:24:38Z</time>
      </trkpt>
      <trkpt lat="44.88724" lon="6.08549">
        <ele>1905</ele>
        <time>2024-08-14T06:24:39Z</time>
      </trkpt>
      <trkpt lat="44.88724" lon="6.08549">
        <ele>1905.4</ele>
        <time>2024-08-14T06:24:40Z</time>
      </trkpt>
      <trkpt lat="44.88725" lon="6.08553">
        <ele>1905.6</ele>
        <time>2024-08-14T06:24:41Z</time>
      </trkpt>
      <trkpt lat="44.88725" lon="6.08553">
        <ele>1905.8</ele>
        <time>2024-08-14T06:24:42Z</time>
      </trkpt>
      <trkpt lat="44.88726" lon="6.08556">
        <ele>1906</ele>
        <time>2024-08-14T06:24:43Z</time>
      </trkpt>
      <trkpt lat="44.88726" lon="6.08556">
        <ele>1906.2</ele>
        <time>2024-08-14T06:24:44Z</time>
      </trkpt>
      <trkpt lat="44.88726" lon="6.08556">
        <ele>1906.2</ele>
        <time>2024-08-14T06:24:45Z</time>
      </trkpt>
      <trkpt lat="44.88726" lon="6.0856">
        <ele>1906.2</ele>
        <time>2024-08-14T06:24:46Z</time>
      </trkpt>
      <trkpt lat="44.88726" lon="6.0856">
        <ele>1906.2</ele>
        <time>2024-08-14T06:24:47Z</time>
      </trkpt>
      <trkpt lat="44.88726" lon="6.0856">
        <ele>1906.4</ele>
        <time>2024-08-14T06:24:48Z</time>
      </trkpt>
      <trkpt lat="44.88726" lon="6.08564">
        <ele>1906.8</ele>
        <time>2024-08-14T06:24:49Z</time>
      </trkpt>
      <trkpt lat="44.88726" lon="6.08564">
        <ele>1907</ele>
        <time>2024-08-14T06:24:50Z</time>
      </trkpt>
      <trkpt lat="44.88726" lon="6.08564">
        <ele>1907</ele>
        <time>2024-08-14T06:24:51Z</time>
      </trkpt>
      <trkpt lat="44.88726" lon="6.08566">
        <ele>1907</ele>
        <time>2024-08-14T06:24:52Z</time>
      </trkpt>
      <trkpt lat="44.88726" lon="6.08566">
        <ele>1907.4</ele>
        <time>2024-08-14T06:24:53Z</time>
      </trkpt>
      <trkpt lat="44.88726" lon="6.08566">
        <ele>1907.4</ele>
        <time>2024-08-14T06:24:54Z</time>
      </trkpt>
      <trkpt lat="44.88726" lon="6.08566">
        <ele>1907.6</ele>
        <time>2024-08-14T06:24:55Z</time>
      </trkpt>
      <trkpt lat="44.88726" lon="6.08566">
        <ele>1907.6</ele>
        <time>2024-08-14T06:24:56Z</time>
      </trkpt>
      <trkpt lat="44.88726" lon="6.08563">
        <ele>1908</ele>
        <time>2024-08-14T06:24:57Z</time>
      </trkpt>
      <trkpt lat="44.88726" lon="6.08563">
        <ele>1908</ele>
        <time>2024-08-14T06:24:58Z</time>
      </trkpt>
      <trkpt lat="44.88727" lon="6.08561">
        <ele>1908</ele>
        <time>2024-08-14T06:24:59Z</time>
      </trkpt>
      <trkpt lat="44.88727" lon="6.08561">
        <ele>1908.4</ele>
        <time>2024-08-14T06:25:00Z</time>
      </trkpt>
      <trkpt lat="44.88727" lon="6.08561">
        <ele>1908.4</ele>
        <time>2024-08-14T06:25:01Z</time>
      </trkpt>
      <trkpt lat="44.88727" lon="6.08561">
        <ele>1908.8</ele>
        <time>2024-08-14T06:25:02Z</time>
      </trkpt>
      <trkpt lat="44.88728" lon="6.08558">
        <ele>1908.8</ele>
        <time>2024-08-14T06:25:03Z</time>
      </trkpt>
      <trkpt lat="44.88728" lon="6.08558">
        <ele>1909.2</ele>
        <time>2024-08-14T06:25:04Z</time>
      </trkpt>
      <trkpt lat="44.88728" lon="6.08555">
        <ele>1909.2</ele>
        <time>2024-08-14T06:25:05Z</time>
      </trkpt>
      <trkpt lat="44.88728" lon="6.08555">
        <ele>1909.4</ele>
        <time>2024-08-14T06:25:06Z</time>
      </trkpt>
      <trkpt lat="44.88729" lon="6.08552">
        <ele>1909.8</ele>
        <time>2024-08-14T06:25:07Z</time>
      </trkpt>
      <trkpt lat="44.88729" lon="6.08552">
        <ele>1910</ele>
        <time>2024-08-14T06:25:08Z</time>
      </trkpt>
      <trkpt lat="44.8873" lon="6.08549">
        <ele>1910.4</ele>
        <time>2024-08-14T06:25:09Z</time>
      </trkpt>
      <trkpt lat="44.8873" lon="6.08549">
        <ele>1910.6</ele>
        <time>2024-08-14T06:25:10Z</time>
      </trkpt>
      <trkpt lat="44.8873" lon="6.08549">
        <ele>1910.6</ele>
        <time>2024-08-14T06:25:11Z</time>
      </trkpt>
      <trkpt lat="44.88731" lon="6.08546">
        <ele>1911</ele>
        <time>2024-08-14T06:25:12Z</time>
      </trkpt>
      <trkpt lat="44.88731" lon="6.08546">
        <ele>1911.2</ele>
        <time>2024-08-14T06:25:13Z</time>
      </trkpt>
      <trkpt lat="44.88731" lon="6.08546">
        <ele>1911.2</ele>
        <time>2024-08-14T06:25:14Z</time>
      </trkpt>
      <trkpt lat="44.88732" lon="6.08543">
        <ele>1911.2</ele>
        <time>2024-08-14T06:25:15Z</time>
      </trkpt>
      <trkpt lat="44.88732" lon="6.08543">
        <ele>1911.6</ele>
        <time>2024-08-14T06:25:16Z</time>
      </trkpt>
      <trkpt lat="44.88732" lon="6.08543">
        <ele>1911.8</ele>
        <time>2024-08-14T06:25:17Z</time>
      </trkpt>
      <trkpt lat="44.88733" lon="6.0854">
        <ele>1912.2</ele>
        <time>2024-08-14T06:25:18Z</time>
      </trkpt>
      <trkpt lat="44.88733" lon="6.0854">
        <ele>1912.2</ele>
        <time>2024-08-14T06:25:19Z</time>
      </trkpt>
      <trkpt lat="44.88733" lon="6.0854">
        <ele>1912.2</ele>
        <time>2024-08-14T06:25:20Z</time>
      </trkpt>
      <trkpt lat="44.88735" lon="6.08537">
        <ele>1912.6</ele>
        <time>2024-08-14T06:25:21Z</time>
      </trkpt>
      <trkpt lat="44.88735" lon="6.08537">
        <ele>1912.8</ele>
        <time>2024-08-14T06:25:22Z</time>
      </trkpt>
      <trkpt lat="44.88735" lon="6.08537">
        <ele>1913.2</ele>
        <time>2024-08-14T06:25:23Z</time>
      </trkpt>
      <trkpt lat="44.88735" lon="6.08537">
        <ele>1913.2</ele>
        <time>2024-08-14T06:25:24Z</time>
      </trkpt>
      <trkpt lat="44.88737" lon="6.08538">
        <ele>1913.4</ele>
        <time>2024-08-14T06:25:25Z</time>
      </trkpt>
      <trkpt lat="44.88737" lon="6.08538">
        <ele>1913.6</ele>
        <time>2024-08-14T06:25:26Z</time>
      </trkpt>
      <trkpt lat="44.88737" lon="6.08538">
        <ele>1913.8</ele>
        <time>2024-08-14T06:25:27Z</time>
      </trkpt>
      <trkpt lat="44.88737" lon="6.08538">
        <ele>1913.8</ele>
        <time>2024-08-14T06:25:28Z</time>
      </trkpt>
      <trkpt lat="44.88737" lon="6.08541">
        <ele>1914.2</ele>
        <time>2024-08-14T06:25:29Z</time>
      </trkpt>
      <trkpt lat="44.88737" lon="6.08541">
        <ele>1914.4</ele>
        <time>2024-08-14T06:25:30Z</time>
      </trkpt>
      <trkpt lat="44.88737" lon="6.08541">
        <ele>1914.4</ele>
        <time>2024-08-14T06:25:31Z</time>
      </trkpt>
      <trkpt lat="44.88737" lon="6.08544">
        <ele>1914.8</ele>
        <time>2024-08-14T06:25:32Z</time>
      </trkpt>
      <trkpt lat="44.88737" lon="6.08544">
        <ele>1915</ele>
        <time>2024-08-14T06:25:33Z</time>
      </trkpt>
      <trkpt lat="44.88737" lon="6.08544">
        <ele>1915</ele>
        <time>2024-08-14T06:25:34Z</time>
      </trkpt>
      <trkpt lat="44.88737" lon="6.08544">
        <ele>1915.4</ele>
        <time>2024-08-14T06:25:35Z</time>
      </trkpt>
      <trkpt lat="44.88737" lon="6.08544">
        <ele>1915.4</ele>
        <time>2024-08-14T06:25:36Z</time>
      </trkpt>
      <trkpt lat="44.88738" lon="6.08547">
        <ele>1915.6</ele>
        <time>2024-08-14T06:25:37Z</time>
      </trkpt>
      <trkpt lat="44.88738" lon="6.08547">
        <ele>1915.8</ele>
        <time>2024-08-14T06:25:38Z</time>
      </trkpt>
      <trkpt lat="44.88738" lon="6.08547">
        <ele>1915.8</ele>
        <time>2024-08-14T06:25:39Z</time>
      </trkpt>
      <trkpt lat="44.88738" lon="6.08547">
        <ele>1916.2</ele>
        <time>2024-08-14T06:25:40Z</time>
      </trkpt>
      <trkpt lat="44.88738" lon="6.0855">
        <ele>1916.4</ele>
        <time>2024-08-14T06:25:41Z</time>
      </trkpt>
      <trkpt lat="44.88738" lon="6.0855">
        <ele>1916.4</ele>
        <time>2024-08-14T06:25:42Z</time>
      </trkpt>
      <trkpt lat="44.88738" lon="6.08554">
        <ele>1917</ele>
        <time>2024-08-14T06:25:43Z</time>
      </trkpt>
      <trkpt lat="44.88738" lon="6.08554">
        <ele>1917.2</ele>
        <time>2024-08-14T06:25:44Z</time>
      </trkpt>
      <trkpt lat="44.88739" lon="6.08557">
        <ele>1917.4</ele>
        <time>2024-08-14T06:25:45Z</time>
      </trkpt>
      <trkpt lat="44.88739" lon="6.08557">
        <ele>1917.2</ele>
        <time>2024-08-14T06:25:46Z</time>
      </trkpt>
      <trkpt lat="44.88739" lon="6.08557">
        <ele>1917.4</ele>
        <time>2024-08-14T06:25:47Z</time>
      </trkpt>
      <trkpt lat="44.88739" lon="6.0856">
        <ele>1917.4</ele>
        <time>2024-08-14T06:25:48Z</time>
      </trkpt>
      <trkpt lat="44.88739" lon="6.0856">
        <ele>1917.6</ele>
        <time>2024-08-14T06:25:49Z</time>
      </trkpt>
      <trkpt lat="44.88739" lon="6.0856">
        <ele>1917.8</ele>
        <time>2024-08-14T06:25:50Z</time>
      </trkpt>
      <trkpt lat="44.8874" lon="6.08563">
        <ele>1918.2</ele>
        <time>2024-08-14T06:25:51Z</time>
      </trkpt>
      <trkpt lat="44.8874" lon="6.08563">
        <ele>1918.4</ele>
        <time>2024-08-14T06:25:52Z</time>
      </trkpt>
      <trkpt lat="44.8874" lon="6.08563">
        <ele>1918.6</ele>
        <time>2024-08-14T06:25:53Z</time>
      </trkpt>
      <trkpt lat="44.8874" lon="6.08566">
        <ele>1919</ele>
        <time>2024-08-14T06:25:54Z</time>
      </trkpt>
      <trkpt lat="44.8874" lon="6.08566">
        <ele>1919</ele>
        <time>2024-08-14T06:25:55Z</time>
      </trkpt>
      <trkpt lat="44.8874" lon="6.08566">
        <ele>1919</ele>
        <time>2024-08-14T06:25:56Z</time>
      </trkpt>
      <trkpt lat="44.8874" lon="6.08566">
        <ele>1919.6</ele>
        <time>2024-08-14T06:25:57Z</time>
      </trkpt>
      <trkpt lat="44.8874" lon="6.08566">
        <ele>1919.6</ele>
        <time>2024-08-14T06:25:58Z</time>
      </trkpt>
      <trkpt lat="44.8874" lon="6.08566">
        <ele>1919.6</ele>
        <time>2024-08-14T06:25:59Z</time>
      </trkpt>
      <trkpt lat="44.8874" lon="6.08566">
        <ele>1919.8</ele>
        <time>2024-08-14T06:26:00Z</time>
      </trkpt>
      <trkpt lat="44.88741" lon="6.08564">
        <ele>1920</ele>
        <time>2024-08-14T06:26:01Z</time>
      </trkpt>
      <trkpt lat="44.88741" lon="6.08564">
        <ele>1920.8</ele>
        <time>2024-08-14T06:26:02Z</time>
      </trkpt>
      <trkpt lat="44.88741" lon="6.08564">
        <ele>1920.8</ele>
        <time>2024-08-14T06:26:03Z</time>
      </trkpt>
      <trkpt lat="44.88741" lon="6.08564">
        <ele>1920.8</ele>
        <time>2024-08-14T06:26:04Z</time>
      </trkpt>
      <trkpt lat="44.88742" lon="6.08561">
        <ele>1921</ele>
        <time>2024-08-14T06:26:05Z</time>
      </trkpt>
      <trkpt lat="44.88742" lon="6.08561">
        <ele>1921.4</ele>
        <time>2024-08-14T06:26:06Z</time>
      </trkpt>
      <trkpt lat="44.88742" lon="6.08561">
        <ele>1921.6</ele>
        <time>2024-08-14T06:26:07Z</time>
      </trkpt>
      <trkpt lat="44.88742" lon="6.08561">
        <ele>1921.8</ele>
        <time>2024-08-14T06:26:08Z</time>
      </trkpt>
      <trkpt lat="44.88742" lon="6.08561">
        <ele>1921.8</ele>
        <time>2024-08-14T06:26:09Z</time>
      </trkpt>
      <trkpt lat="44.88742" lon="6.08561">
        <ele>1922</ele>
        <time>2024-08-14T06:26:10Z</time>
      </trkpt>
      <trkpt lat="44.88743" lon="6.08559">
        <ele>1922</ele>
        <time>2024-08-14T06:26:11Z</time>
      </trkpt>
      <trkpt lat="44.88743" lon="6.08559">
        <ele>1922.2</ele>
        <time>2024-08-14T06:26:12Z</time>
      </trkpt>
      <trkpt lat="44.88745" lon="6.08556">
        <ele>1922.4</ele>
        <time>2024-08-14T06:26:13Z</time>
      </trkpt>
      <trkpt lat="44.88745" lon="6.08556">
        <ele>1923</ele>
        <time>2024-08-14T06:26:14Z</time>
      </trkpt>
      <trkpt lat="44.88746" lon="6.08552">
        <ele>1923.2</ele>
        <time>2024-08-14T06:26:15Z</time>
      </trkpt>
      <trkpt lat="44.88746" lon="6.08552">
        <ele>1923.4</ele>
        <time>2024-08-14T06:26:16Z</time>
      </trkpt>
      <trkpt lat="44.88748" lon="6.0855">
        <ele>1923.6</ele>
        <time>2024-08-14T06:26:17Z</time>
      </trkpt>
      <trkpt lat="44.88748" lon="6.0855">
        <ele>1923.8</ele>
        <time>2024-08-14T06:26:18Z</time>
      </trkpt>
      <trkpt lat="44.88749" lon="6.08549">
        <ele>1924.2</ele>
        <time>2024-08-14T06:26:19Z</time>
      </trkpt>
      <trkpt lat="44.88749" lon="6.08549">
        <ele>1924.4</ele>
        <time>2024-08-14T06:26:20Z</time>
      </trkpt>
      <trkpt lat="44.88749" lon="6.08549">
        <ele>1924.4</ele>
        <time>2024-08-14T06:26:21Z</time>
      </trkpt>
      <trkpt lat="44.88749" lon="6.08549">
        <ele>1924.6</ele>
        <time>2024-08-14T06:26:22Z</time>
      </trkpt>
      <trkpt lat="44.88751" lon="6.08548">
        <ele>1924.8</ele>
        <time>2024-08-14T06:26:23Z</time>
      </trkpt>
      <trkpt lat="44.88751" lon="6.08548">
        <ele>1925</ele>
        <time>2024-08-14T06:26:24Z</time>
      </trkpt>
      <trkpt lat="44.88751" lon="6.08548">
        <ele>1925</ele>
        <time>2024-08-14T06:26:25Z</time>
      </trkpt>
      <trkpt lat="44.88753" lon="6.08546">
        <ele>1925.2</ele>
        <time>2024-08-14T06:26:26Z</time>
      </trkpt>
      <trkpt lat="44.88753" lon="6.08546">
        <ele>1925.2</ele>
        <time>2024-08-14T06:26:27Z</time>
      </trkpt>
      <trkpt lat="44.88753" lon="6.08546">
        <ele>1925.6</ele>
        <time>2024-08-14T06:26:28Z</time>
      </trkpt>
      <trkpt lat="44.88753" lon="6.08546">
        <ele>1925.8</ele>
        <time>2024-08-14T06:26:29Z</time>
      </trkpt>
      <trkpt lat="44.88756" lon="6.08545">
        <ele>1926</ele>
        <time>2024-08-14T06:26:30Z</time>
      </trkpt>
      <trkpt lat="44.88756" lon="6.08545">
        <ele>1926</ele>
        <time>2024-08-14T06:26:31Z</time>
      </trkpt>
      <trkpt lat="44.88756" lon="6.08545">
        <ele>1926.2</ele>
        <time>2024-08-14T06:26:32Z</time>
      </trkpt>
      <trkpt lat="44.88756" lon="6.08545">
        <ele>1926.2</ele>
        <time>2024-08-14T06:26:33Z</time>
      </trkpt>
      <trkpt lat="44.88757" lon="6.08547">
        <ele>1926.4</ele>
        <time>2024-08-14T06:26:34Z</time>
      </trkpt>
      <trkpt lat="44.88757" lon="6.08547">
        <ele>1926.6</ele>
        <time>2024-08-14T06:26:35Z</time>
      </trkpt>
      <trkpt lat="44.88757" lon="6.08547">
        <ele>1927.2</ele>
        <time>2024-08-14T06:26:36Z</time>
      </trkpt>
      <trkpt lat="44.88757" lon="6.08547">
        <ele>1927.4</ele>
        <time>2024-08-14T06:26:37Z</time>
      </trkpt>
      <trkpt lat="44.88757" lon="6.08547">
        <ele>1927.4</ele>
        <time>2024-08-14T06:26:38Z</time>
      </trkpt>
      <trkpt lat="44.88757" lon="6.08547">
        <ele>1927.6</ele>
        <time>2024-08-14T06:26:39Z</time>
      </trkpt>
      <trkpt lat="44.88757" lon="6.08547">
        <ele>1927.8</ele>
        <time>2024-08-14T06:26:40Z</time>
      </trkpt>
      <trkpt lat="44.88757" lon="6.08547">
        <ele>1928.2</ele>
        <time>2024-08-14T06:26:41Z</time>
      </trkpt>
      <trkpt lat="44.88757" lon="6.08547">
        <ele>1928.8</ele>
        <time>2024-08-14T06:26:42Z</time>
      </trkpt>
      <trkpt lat="44.88757" lon="6.08547">
        <ele>1928.8</ele>
        <time>2024-08-14T06:26:43Z</time>
      </trkpt>
      <trkpt lat="44.88757" lon="6.08547">
        <ele>1929</ele>
        <time>2024-08-14T06:26:44Z</time>
      </trkpt>
      <trkpt lat="44.88757" lon="6.08547">
        <ele>1929.2</ele>
        <time>2024-08-14T06:26:45Z</time>
      </trkpt>
      <trkpt lat="44.88757" lon="6.08547">
        <ele>1929.4</ele>
        <time>2024-08-14T06:26:46Z</time>
      </trkpt>
      <trkpt lat="44.88757" lon="6.08547">
        <ele>1929.4</ele>
        <time>2024-08-14T06:26:47Z</time>
      </trkpt>
      <trkpt lat="44.88757" lon="6.08547">
        <ele>1929.6</ele>
        <time>2024-08-14T06:26:48Z</time>
      </trkpt>
      <trkpt lat="44.88757" lon="6.08547">
        <ele>1929.8</ele>
        <time>2024-08-14T06:26:49Z</time>
      </trkpt>
      <trkpt lat="44.88757" lon="6.08547">
        <ele>1929.8</ele>
        <time>2024-08-14T06:26:50Z</time>
      </trkpt>
      <trkpt lat="44.88758" lon="6.08551">
        <ele>1929.8</ele>
        <time>2024-08-14T06:26:51Z</time>
      </trkpt>
      <trkpt lat="44.88758" lon="6.08551">
        <ele>1930.2</ele>
        <time>2024-08-14T06:26:52Z</time>
      </trkpt>
      <trkpt lat="44.88757" lon="6.08555">
        <ele>1930.4</ele>
        <time>2024-08-14T06:26:53Z</time>
      </trkpt>
      <trkpt lat="44.88757" lon="6.08555">
        <ele>1930.8</ele>
        <time>2024-08-14T06:26:54Z</time>
      </trkpt>
      <trkpt lat="44.88757" lon="6.0856">
        <ele>1931</ele>
        <time>2024-08-14T06:26:55Z</time>
      </trkpt>
      <trkpt lat="44.88757" lon="6.0856">
        <ele>1931.2</ele>
        <time>2024-08-14T06:26:56Z</time>
      </trkpt>
      <trkpt lat="44.88756" lon="6.08563">
        <ele>1931.4</ele>
        <time>2024-08-14T06:26:57Z</time>
      </trkpt>
      <trkpt lat="44.88756" lon="6.08563">
        <ele>1931.8</ele>
        <time>2024-08-14T06:26:58Z</time>
      </trkpt>
      <trkpt lat="44.88756" lon="6.08563">
        <ele>1931.8</ele>
        <time>2024-08-14T06:26:59Z</time>
      </trkpt>
      <trkpt lat="44.88756" lon="6.08565">
        <ele>1932.2</ele>
        <time>2024-08-14T06:27:00Z</time>
      </trkpt>
      <trkpt lat="44.88756" lon="6.08565">
        <ele>1932.2</ele>
        <time>2024-08-14T06:27:01Z</time>
      </trkpt>
      <trkpt lat="44.88756" lon="6.08565">
        <ele>1932.8</ele>
        <time>2024-08-14T06:27:02Z</time>
      </trkpt>
      <trkpt lat="44.88756" lon="6.08569">
        <ele>1932.8</ele>
        <time>2024-08-14T06:27:03Z</time>
      </trkpt>
      <trkpt lat="44.88756" lon="6.08569">
        <ele>1933.4</ele>
        <time>2024-08-14T06:27:04Z</time>
      </trkpt>
      <trkpt lat="44.88756" lon="6.08569">
        <ele>1933.4</ele>
        <time>2024-08-14T06:27:05Z</time>
      </trkpt>
      <trkpt lat="44.88756" lon="6.08572">
        <ele>1933.6</ele>
        <time>2024-08-14T06:27:06Z</time>
      </trkpt>
      <trkpt lat="44.88756" lon="6.08572">
        <ele>1933.8</ele>
        <time>2024-08-14T06:27:07Z</time>
      </trkpt>
      <trkpt lat="44.88756" lon="6.08572">
        <ele>1934</ele>
        <time>2024-08-14T06:27:08Z</time>
      </trkpt>
      <trkpt lat="44.88756" lon="6.08575">
        <ele>1934</ele>
        <time>2024-08-14T06:27:09Z</time>
      </trkpt>
      <trkpt lat="44.88756" lon="6.08575">
        <ele>1934</ele>
        <time>2024-08-14T06:27:10Z</time>
      </trkpt>
      <trkpt lat="44.88756" lon="6.08575">
        <ele>1934.2</ele>
        <time>2024-08-14T06:27:11Z</time>
      </trkpt>
      <trkpt lat="44.88756" lon="6.08575">
        <ele>1934.4</ele>
        <time>2024-08-14T06:27:12Z</time>
      </trkpt>
      <trkpt lat="44.88756" lon="6.08575">
        <ele>1934.6</ele>
        <time>2024-08-14T06:27:13Z</time>
      </trkpt>
      <trkpt lat="44.88756" lon="6.08575">
        <ele>1934.6</ele>
        <time>2024-08-14T06:27:14Z</time>
      </trkpt>
      <trkpt lat="44.88756" lon="6.08575">
        <ele>1934.6</ele>
        <time>2024-08-14T06:27:15Z</time>
      </trkpt>
      <trkpt lat="44.88756" lon="6.08575">
        <ele>1935.4</ele>
        <time>2024-08-14T06:27:16Z</time>
      </trkpt>
      <trkpt lat="44.88756" lon="6.08575">
        <ele>1935.8</ele>
        <time>2024-08-14T06:27:17Z</time>
      </trkpt>
      <trkpt lat="44.88757" lon="6.08572">
        <ele>1936</ele>
        <time>2024-08-14T06:27:18Z</time>
      </trkpt>
      <trkpt lat="44.88757" lon="6.08572">
        <ele>1936.2</ele>
        <time>2024-08-14T06:27:19Z</time>
      </trkpt>
      <trkpt lat="44.88757" lon="6.08572">
        <ele>1936.4</ele>
        <time>2024-08-14T06:27:20Z</time>
      </trkpt>
      <trkpt lat="44.88757" lon="6.08572">
        <ele>1936.6</ele>
        <time>2024-08-14T06:27:21Z</time>
      </trkpt>
      <trkpt lat="44.88759" lon="6.0857">
        <ele>1936.6</ele>
        <time>2024-08-14T06:27:22Z</time>
      </trkpt>
      <trkpt lat="44.88759" lon="6.0857">
        <ele>1936.6</ele>
        <time>2024-08-14T06:27:23Z</time>
      </trkpt>
      <trkpt lat="44.88759" lon="6.0857">
        <ele>1937.4</ele>
        <time>2024-08-14T06:27:24Z</time>
      </trkpt>
      <trkpt lat="44.88759" lon="6.0857">
        <ele>1937.4</ele>
        <time>2024-08-14T06:27:25Z</time>
      </trkpt>
      <trkpt lat="44.88759" lon="6.0857">
        <ele>1937.6</ele>
        <time>2024-08-14T06:27:26Z</time>
      </trkpt>
      <trkpt lat="44.88759" lon="6.0857">
        <ele>1937.6</ele>
        <time>2024-08-14T06:27:27Z</time>
      </trkpt>
      <trkpt lat="44.88759" lon="6.0857">
        <ele>1937.8</ele>
        <time>2024-08-14T06:27:28Z</time>
      </trkpt>
      <trkpt lat="44.88759" lon="6.0857">
        <ele>1937.8</ele>
        <time>2024-08-14T06:27:29Z</time>
      </trkpt>
      <trkpt lat="44.88759" lon="6.0857">
        <ele>1937.8</ele>
        <time>2024-08-14T06:27:30Z</time>
      </trkpt>
      <trkpt lat="44.88759" lon="6.0857">
        <ele>1937.8</ele>
        <time>2024-08-14T06:27:31Z</time>
      </trkpt>
      <trkpt lat="44.88759" lon="6.0857">
        <ele>1937.8</ele>
        <time>2024-08-14T06:27:32Z</time>
      </trkpt>
      <trkpt lat="44.88759" lon="6.0857">
        <ele>1938</ele>
        <time>2024-08-14T06:27:33Z</time>
      </trkpt>
      <trkpt lat="44.88759" lon="6.0857">
        <ele>1938</ele>
        <time>2024-08-14T06:27:34Z</time>
      </trkpt>
      <trkpt lat="44.88759" lon="6.0857">
        <ele>1938</ele>
        <time>2024-08-14T06:27:35Z</time>
      </trkpt>
      <trkpt lat="44.88759" lon="6.0857">
        <ele>1938</ele>
        <time>2024-08-14T06:27:36Z</time>
      </trkpt>
      <trkpt lat="44.88759" lon="6.0857">
        <ele>1938</ele>
        <time>2024-08-14T06:27:37Z</time>
      </trkpt>
      <trkpt lat="44.88759" lon="6.0857">
        <ele>1938</ele>
        <time>2024-08-14T06:27:38Z</time>
      </trkpt>
      <trkpt lat="44.88759" lon="6.0857">
        <ele>1937.6</ele>
        <time>2024-08-14T06:27:39Z</time>
      </trkpt>
      <trkpt lat="44.88759" lon="6.0857">
        <ele>1937.6</ele>
        <time>2024-08-14T06:27:40Z</time>
      </trkpt>
      <trkpt lat="44.88759" lon="6.0857">
        <ele>1937.4</ele>
        <time>2024-08-14T06:27:41Z</time>
      </trkpt>
      <trkpt lat="44.88759" lon="6.0857">
        <ele>1937.4</ele>
        <time>2024-08-14T06:27:42Z</time>
      </trkpt>
      <trkpt lat="44.88759" lon="6.0857">
        <ele>1937.2</ele>
        <time>2024-08-14T06:27:43Z</time>
      </trkpt>
      <trkpt lat="44.88759" lon="6.0857">
        <ele>1937.2</ele>
        <time>2024-08-14T06:27:44Z</time>
      </trkpt>
      <trkpt lat="44.88759" lon="6.0857">
        <ele>1937.2</ele>
        <time>2024-08-14T06:27:45Z</time>
      </trkpt>
      <trkpt lat="44.88761" lon="6.08567">
        <ele>1937.2</ele>
        <time>2024-08-14T06:27:46Z</time>
      </trkpt>
      <trkpt lat="44.88762" lon="6.08565">
        <ele>1937.4</ele>
        <time>2024-08-14T06:27:47Z</time>
      </trkpt>
      <trkpt lat="44.88763" lon="6.08563">
        <ele>1937.4</ele>
        <time>2024-08-14T06:27:48Z</time>
      </trkpt>
      <trkpt lat="44.88765" lon="6.08561">
        <ele>1937.4</ele>
        <time>2024-08-14T06:27:49Z</time>
      </trkpt>
      <trkpt lat="44.88765" lon="6.08561">
        <ele>1937.4</ele>
        <time>2024-08-14T06:27:50Z</time>
      </trkpt>
      <trkpt lat="44.88767" lon="6.08559">
        <ele>1937.8</ele>
        <time>2024-08-14T06:27:51Z</time>
      </trkpt>
      <trkpt lat="44.88767" lon="6.08559">
        <ele>1938</ele>
        <time>2024-08-14T06:27:52Z</time>
      </trkpt>
      <trkpt lat="44.88769" lon="6.08557">
        <ele>1938</ele>
        <time>2024-08-14T06:27:53Z</time>
      </trkpt>
      <trkpt lat="44.88769" lon="6.08557">
        <ele>1938</ele>
        <time>2024-08-14T06:27:54Z</time>
      </trkpt>
      <trkpt lat="44.8877" lon="6.08555">
        <ele>1938</ele>
        <time>2024-08-14T06:27:55Z</time>
      </trkpt>
      <trkpt lat="44.8877" lon="6.08555">
        <ele>1938.2</ele>
        <time>2024-08-14T06:27:56Z</time>
      </trkpt>
      <trkpt lat="44.8877" lon="6.08555">
        <ele>1938.4</ele>
        <time>2024-08-14T06:27:57Z</time>
      </trkpt>
      <trkpt lat="44.88773" lon="6.08553">
        <ele>1938.6</ele>
        <time>2024-08-14T06:27:58Z</time>
      </trkpt>
      <trkpt lat="44.88773" lon="6.08553">
        <ele>1939</ele>
        <time>2024-08-14T06:27:59Z</time>
      </trkpt>
      <trkpt lat="44.88773" lon="6.08553">
        <ele>1939.2</ele>
        <time>2024-08-14T06:28:00Z</time>
      </trkpt>
      <trkpt lat="44.88773" lon="6.08553">
        <ele>1939.4</ele>
        <time>2024-08-14T06:28:01Z</time>
      </trkpt>
      <trkpt lat="44.88776" lon="6.08551">
        <ele>1939.8</ele>
        <time>2024-08-14T06:28:02Z</time>
      </trkpt>
      <trkpt lat="44.88776" lon="6.08551">
        <ele>1940</ele>
        <time>2024-08-14T06:28:03Z</time>
      </trkpt>
      <trkpt lat="44.88776" lon="6.08551">
        <ele>1940.4</ele>
        <time>2024-08-14T06:28:04Z</time>
      </trkpt>
      <trkpt lat="44.88778" lon="6.0855">
        <ele>1940.4</ele>
        <time>2024-08-14T06:28:05Z</time>
      </trkpt>
      <trkpt lat="44.88778" lon="6.0855">
        <ele>1940.6</ele>
        <time>2024-08-14T06:28:06Z</time>
      </trkpt>
      <trkpt lat="44.8878" lon="6.08549">
        <ele>1941</ele>
        <time>2024-08-14T06:28:07Z</time>
      </trkpt>
      <trkpt lat="44.8878" lon="6.08549">
        <ele>1941.2</ele>
        <time>2024-08-14T06:28:08Z</time>
      </trkpt>
      <trkpt lat="44.8878" lon="6.08549">
        <ele>1941.2</ele>
        <time>2024-08-14T06:28:09Z</time>
      </trkpt>
      <trkpt lat="44.88782" lon="6.08547">
        <ele>1941.6</ele>
        <time>2024-08-14T06:28:10Z</time>
      </trkpt>
      <trkpt lat="44.88782" lon="6.08547">
        <ele>1941.8</ele>
        <time>2024-08-14T06:28:11Z</time>
      </trkpt>
      <trkpt lat="44.88784" lon="6.08546">
        <ele>1942</ele>
        <time>2024-08-14T06:28:12Z</time>
      </trkpt>
      <trkpt lat="44.88784" lon="6.08546">
        <ele>1942.2</ele>
        <time>2024-08-14T06:28:13Z</time>
      </trkpt>
      <trkpt lat="44.88784" lon="6.08546">
        <ele>1942.2</ele>
        <time>2024-08-14T06:28:14Z</time>
      </trkpt>
      <trkpt lat="44.88786" lon="6.08544">
        <ele>1942.6</ele>
        <time>2024-08-14T06:28:15Z</time>
      </trkpt>
      <trkpt lat="44.88786" lon="6.08544">
        <ele>1942.6</ele>
        <time>2024-08-14T06:28:16Z</time>
      </trkpt>
      <trkpt lat="44.88786" lon="6.08544">
        <ele>1942.8</ele>
        <time>2024-08-14T06:28:17Z</time>
      </trkpt>
      <trkpt lat="44.88788" lon="6.08543">
        <ele>1943.4</ele>
        <time>2024-08-14T06:28:18Z</time>
      </trkpt>
      <trkpt lat="44.88788" lon="6.08543">
        <ele>1943.4</ele>
        <time>2024-08-14T06:28:19Z</time>
      </trkpt>
      <trkpt lat="44.88788" lon="6.08543">
        <ele>1943.6</ele>
        <time>2024-08-14T06:28:20Z</time>
      </trkpt>
      <trkpt lat="44.8879" lon="6.08541">
        <ele>1944</ele>
        <time>2024-08-14T06:28:21Z</time>
      </trkpt>
      <trkpt lat="44.8879" lon="6.08541">
        <ele>1944.2</ele>
        <time>2024-08-14T06:28:22Z</time>
      </trkpt>
      <trkpt lat="44.8879" lon="6.08541">
        <ele>1944.4</ele>
        <time>2024-08-14T06:28:23Z</time>
      </trkpt>
      <trkpt lat="44.88792" lon="6.0854">
        <ele>1944.8</ele>
        <time>2024-08-14T06:28:24Z</time>
      </trkpt>
      <trkpt lat="44.88792" lon="6.0854">
        <ele>1945</ele>
        <time>2024-08-14T06:28:25Z</time>
      </trkpt>
      <trkpt lat="44.88792" lon="6.0854">
        <ele>1945</ele>
        <time>2024-08-14T06:28:26Z</time>
      </trkpt>
      <trkpt lat="44.88792" lon="6.0854">
        <ele>1945.2</ele>
        <time>2024-08-14T06:28:27Z</time>
      </trkpt>
      <trkpt lat="44.88794" lon="6.0854">
        <ele>1945.2</ele>
        <time>2024-08-14T06:28:28Z</time>
      </trkpt>
      <trkpt lat="44.88794" lon="6.0854">
        <ele>1945.8</ele>
        <time>2024-08-14T06:28:29Z</time>
      </trkpt>
      <trkpt lat="44.88794" lon="6.0854">
        <ele>1945.8</ele>
        <time>2024-08-14T06:28:30Z</time>
      </trkpt>
      <trkpt lat="44.88796" lon="6.08538">
        <ele>1946</ele>
        <time>2024-08-14T06:28:31Z</time>
      </trkpt>
      <trkpt lat="44.88796" lon="6.08538">
        <ele>1946.2</ele>
        <time>2024-08-14T06:28:32Z</time>
      </trkpt>
      <trkpt lat="44.88796" lon="6.08538">
        <ele>1946.2</ele>
        <time>2024-08-14T06:28:33Z</time>
      </trkpt>
      <trkpt lat="44.88798" lon="6.08536">
        <ele>1946.6</ele>
        <time>2024-08-14T06:28:34Z</time>
      </trkpt>
      <trkpt lat="44.88798" lon="6.08536">
        <ele>1946.8</ele>
        <time>2024-08-14T06:28:35Z</time>
      </trkpt>
      <trkpt lat="44.88798" lon="6.08536">
        <ele>1946.8</ele>
        <time>2024-08-14T06:28:36Z</time>
      </trkpt>
      <trkpt lat="44.888" lon="6.08535">
        <ele>1947.2</ele>
        <time>2024-08-14T06:28:37Z</time>
      </trkpt>
      <trkpt lat="44.888" lon="6.08535">
        <ele>1947.4</ele>
        <time>2024-08-14T06:28:38Z</time>
      </trkpt>
      <trkpt lat="44.888" lon="6.08535">
        <ele>1947.4</ele>
        <time>2024-08-14T06:28:39Z</time>
      </trkpt>
      <trkpt lat="44.888" lon="6.08535">
        <ele>1947.6</ele>
        <time>2024-08-14T06:28:40Z</time>
      </trkpt>
      <trkpt lat="44.888" lon="6.08535">
        <ele>1947.6</ele>
        <time>2024-08-14T06:28:41Z</time>
      </trkpt>
      <trkpt lat="44.88802" lon="6.08536">
        <ele>1947.8</ele>
        <time>2024-08-14T06:28:42Z</time>
      </trkpt>
      <trkpt lat="44.88802" lon="6.08536">
        <ele>1948.4</ele>
        <time>2024-08-14T06:28:43Z</time>
      </trkpt>
      <trkpt lat="44.88802" lon="6.08536">
        <ele>1948.4</ele>
        <time>2024-08-14T06:28:44Z</time>
      </trkpt>
      <trkpt lat="44.88802" lon="6.08536">
        <ele>1948.8</ele>
        <time>2024-08-14T06:28:45Z</time>
      </trkpt>
      <trkpt lat="44.88804" lon="6.08535">
        <ele>1949.2</ele>
        <time>2024-08-14T06:28:46Z</time>
      </trkpt>
      <trkpt lat="44.88804" lon="6.08535">
        <ele>1949.2</ele>
        <time>2024-08-14T06:28:47Z</time>
      </trkpt>
      <trkpt lat="44.88804" lon="6.08535">
        <ele>1949.4</ele>
        <time>2024-08-14T06:28:48Z</time>
      </trkpt>
      <trkpt lat="44.88804" lon="6.08535">
        <ele>1949.6</ele>
        <time>2024-08-14T06:28:49Z</time>
      </trkpt>
      <trkpt lat="44.88805" lon="6.08536">
        <ele>1949.8</ele>
        <time>2024-08-14T06:28:50Z</time>
      </trkpt>
      <trkpt lat="44.88805" lon="6.08536">
        <ele>1949.8</ele>
        <time>2024-08-14T06:28:51Z</time>
      </trkpt>
      <trkpt lat="44.88805" lon="6.08536">
        <ele>1950.4</ele>
        <time>2024-08-14T06:28:52Z</time>
      </trkpt>
      <trkpt lat="44.88805" lon="6.08536">
        <ele>1950.4</ele>
        <time>2024-08-14T06:28:53Z</time>
      </trkpt>
      <trkpt lat="44.88807" lon="6.08537">
        <ele>1950.4</ele>
        <time>2024-08-14T06:28:54Z</time>
      </trkpt>
      <trkpt lat="44.88807" lon="6.08537">
        <ele>1950.6</ele>
        <time>2024-08-14T06:28:55Z</time>
      </trkpt>
      <trkpt lat="44.88807" lon="6.08537">
        <ele>1950.6</ele>
        <time>2024-08-14T06:28:56Z</time>
      </trkpt>
      <trkpt lat="44.88806" lon="6.08541">
        <ele>1951</ele>
        <time>2024-08-14T06:28:57Z</time>
      </trkpt>
      <trkpt lat="44.88806" lon="6.08541">
        <ele>1951.4</ele>
        <time>2024-08-14T06:28:58Z</time>
      </trkpt>
      <trkpt lat="44.88806" lon="6.08541">
        <ele>1951.4</ele>
        <time>2024-08-14T06:28:59Z</time>
      </trkpt>
      <trkpt lat="44.88805" lon="6.08544">
        <ele>1951.8</ele>
        <time>2024-08-14T06:29:00Z</time>
      </trkpt>
      <trkpt lat="44.88805" lon="6.08544">
        <ele>1951.8</ele>
        <time>2024-08-14T06:29:01Z</time>
      </trkpt>
      <trkpt lat="44.88805" lon="6.08544">
        <ele>1952.4</ele>
        <time>2024-08-14T06:29:02Z</time>
      </trkpt>
      <trkpt lat="44.88804" lon="6.08546">
        <ele>1952.4</ele>
        <time>2024-08-14T06:29:03Z</time>
      </trkpt>
      <trkpt lat="44.88804" lon="6.08546">
        <ele>1952.4</ele>
        <time>2024-08-14T06:29:04Z</time>
      </trkpt>
      <trkpt lat="44.88804" lon="6.08546">
        <ele>1952.4</ele>
        <time>2024-08-14T06:29:05Z</time>
      </trkpt>
      <trkpt lat="44.88802" lon="6.08548">
        <ele>1952.8</ele>
        <time>2024-08-14T06:29:06Z</time>
      </trkpt>
      <trkpt lat="44.88802" lon="6.08548">
        <ele>1952.8</ele>
        <time>2024-08-14T06:29:07Z</time>
      </trkpt>
      <trkpt lat="44.88802" lon="6.08548">
        <ele>1953.2</ele>
        <time>2024-08-14T06:29:08Z</time>
      </trkpt>
      <trkpt lat="44.88802" lon="6.08548">
        <ele>1953.6</ele>
        <time>2024-08-14T06:29:09Z</time>
      </trkpt>
      <trkpt lat="44.88801" lon="6.08551">
        <ele>1953.8</ele>
        <time>2024-08-14T06:29:10Z</time>
      </trkpt>
      <trkpt lat="44.88801" lon="6.08551">
        <ele>1954.2</ele>
        <time>2024-08-14T06:29:11Z</time>
      </trkpt>
      <trkpt lat="44.88801" lon="6.08551">
        <ele>1954.2</ele>
        <time>2024-08-14T06:29:12Z</time>
      </trkpt>
      <trkpt lat="44.88801" lon="6.08551">
        <ele>1954.4</ele>
        <time>2024-08-14T06:29:13Z</time>
      </trkpt>
      <trkpt lat="44.88801" lon="6.08551">
        <ele>1955</ele>
        <time>2024-08-14T06:29:14Z</time>
      </trkpt>
      <trkpt lat="44.88801" lon="6.08551">
        <ele>1955</ele>
        <time>2024-08-14T06:29:15Z</time>
      </trkpt>
      <trkpt lat="44.88801" lon="6.08551">
        <ele>1955</ele>
        <time>2024-08-14T06:29:16Z</time>
      </trkpt>
      <trkpt lat="44.88804" lon="6.08551">
        <ele>1955</ele>
        <time>2024-08-14T06:29:17Z</time>
      </trkpt>
      <trkpt lat="44.88804" lon="6.08551">
        <ele>1955.4</ele>
        <time>2024-08-14T06:29:18Z</time>
      </trkpt>
      <trkpt lat="44.88804" lon="6.08551">
        <ele>1955.6</ele>
        <time>2024-08-14T06:29:19Z</time>
      </trkpt>
      <trkpt lat="44.88804" lon="6.08551">
        <ele>1955.8</ele>
        <time>2024-08-14T06:29:20Z</time>
      </trkpt>
      <trkpt lat="44.88804" lon="6.08551">
        <ele>1956.2</ele>
        <time>2024-08-14T06:29:21Z</time>
      </trkpt>
      <trkpt lat="44.88804" lon="6.08551">
        <ele>1956.2</ele>
        <time>2024-08-14T06:29:22Z</time>
      </trkpt>
      <trkpt lat="44.88804" lon="6.08551">
        <ele>1956.4</ele>
        <time>2024-08-14T06:29:23Z</time>
      </trkpt>
      <trkpt lat="44.88804" lon="6.08551">
        <ele>1956.4</ele>
        <time>2024-08-14T06:29:24Z</time>
      </trkpt>
      <trkpt lat="44.88805" lon="6.08551">
        <ele>1956.6</ele>
        <time>2024-08-14T06:29:25Z</time>
      </trkpt>
      <trkpt lat="44.88805" lon="6.08551">
        <ele>1957</ele>
        <time>2024-08-14T06:29:26Z</time>
      </trkpt>
      <trkpt lat="44.88805" lon="6.08551">
        <ele>1957.2</ele>
        <time>2024-08-14T06:29:27Z</time>
      </trkpt>
      <trkpt lat="44.88805" lon="6.08551">
        <ele>1957.4</ele>
        <time>2024-08-14T06:29:28Z</time>
      </trkpt>
      <trkpt lat="44.88805" lon="6.08551">
        <ele>1957.6</ele>
        <time>2024-08-14T06:29:29Z</time>
      </trkpt>
      <trkpt lat="44.88808" lon="6.0855">
        <ele>1957.8</ele>
        <time>2024-08-14T06:29:30Z</time>
      </trkpt>
      <trkpt lat="44.88808" lon="6.0855">
        <ele>1957.8</ele>
        <time>2024-08-14T06:29:31Z</time>
      </trkpt>
      <trkpt lat="44.88811" lon="6.0855">
        <ele>1958</ele>
        <time>2024-08-14T06:29:32Z</time>
      </trkpt>
      <trkpt lat="44.88811" lon="6.0855">
        <ele>1958.2</ele>
        <time>2024-08-14T06:29:33Z</time>
      </trkpt>
      <trkpt lat="44.88813" lon="6.08549">
        <ele>1958.4</ele>
        <time>2024-08-14T06:29:34Z</time>
      </trkpt>
      <trkpt lat="44.88813" lon="6.08549">
        <ele>1958.6</ele>
        <time>2024-08-14T06:29:35Z</time>
      </trkpt>
      <trkpt lat="44.88813" lon="6.08549">
        <ele>1958.8</ele>
        <time>2024-08-14T06:29:36Z</time>
      </trkpt>
      <trkpt lat="44.88813" lon="6.08549">
        <ele>1959.2</ele>
        <time>2024-08-14T06:29:37Z</time>
      </trkpt>
      <trkpt lat="44.88815" lon="6.08548">
        <ele>1959.2</ele>
        <time>2024-08-14T06:29:38Z</time>
      </trkpt>
      <trkpt lat="44.88815" lon="6.08548">
        <ele>1959.6</ele>
        <time>2024-08-14T06:29:39Z</time>
      </trkpt>
      <trkpt lat="44.88817" lon="6.08547">
        <ele>1959.6</ele>
        <time>2024-08-14T06:29:40Z</time>
      </trkpt>
      <trkpt lat="44.88817" lon="6.08547">
        <ele>1959.8</ele>
        <time>2024-08-14T06:29:41Z</time>
      </trkpt>
      <trkpt lat="44.88819" lon="6.08546">
        <ele>1959.8</ele>
        <time>2024-08-14T06:29:42Z</time>
      </trkpt>
      <trkpt lat="44.88819" lon="6.08546">
        <ele>1960</ele>
        <time>2024-08-14T06:29:43Z</time>
      </trkpt>
      <trkpt lat="44.88821" lon="6.08545">
        <ele>1960</ele>
        <time>2024-08-14T06:29:44Z</time>
      </trkpt>
      <trkpt lat="44.88821" lon="6.08545">
        <ele>1960.2</ele>
        <time>2024-08-14T06:29:45Z</time>
      </trkpt>
      <trkpt lat="44.88821" lon="6.08545">
        <ele>1960.4</ele>
        <time>2024-08-14T06:29:46Z</time>
      </trkpt>
      <trkpt lat="44.88822" lon="6.08543">
        <ele>1960.6</ele>
        <time>2024-08-14T06:29:47Z</time>
      </trkpt>
      <trkpt lat="44.88822" lon="6.08543">
        <ele>1960.6</ele>
        <time>2024-08-14T06:29:48Z</time>
      </trkpt>
      <trkpt lat="44.88822" lon="6.08543">
        <ele>1960.8</ele>
        <time>2024-08-14T06:29:49Z</time>
      </trkpt>
      <trkpt lat="44.88825" lon="6.08542">
        <ele>1961</ele>
        <time>2024-08-14T06:29:50Z</time>
      </trkpt>
      <trkpt lat="44.88825" lon="6.08542">
        <ele>1961</ele>
        <time>2024-08-14T06:29:51Z</time>
      </trkpt>
      <trkpt lat="44.88825" lon="6.08542">
        <ele>1961.2</ele>
        <time>2024-08-14T06:29:52Z</time>
      </trkpt>
      <trkpt lat="44.88827" lon="6.08541">
        <ele>1961.4</ele>
        <time>2024-08-14T06:29:53Z</time>
      </trkpt>
      <trkpt lat="44.88827" lon="6.08541">
        <ele>1961.6</ele>
        <time>2024-08-14T06:29:54Z</time>
      </trkpt>
      <trkpt lat="44.88827" lon="6.08541">
        <ele>1961.6</ele>
        <time>2024-08-14T06:29:55Z</time>
      </trkpt>
      <trkpt lat="44.88827" lon="6.08541">
        <ele>1962</ele>
        <time>2024-08-14T06:29:56Z</time>
      </trkpt>
      <trkpt lat="44.88827" lon="6.08541">
        <ele>1962.2</ele>
        <time>2024-08-14T06:29:57Z</time>
      </trkpt>
      <trkpt lat="44.88829" lon="6.0854">
        <ele>1962.4</ele>
        <time>2024-08-14T06:29:58Z</time>
      </trkpt>
      <trkpt lat="44.88829" lon="6.0854">
        <ele>1962.6</ele>
        <time>2024-08-14T06:29:59Z</time>
      </trkpt>
      <trkpt lat="44.88829" lon="6.0854">
        <ele>1962.6</ele>
        <time>2024-08-14T06:30:00Z</time>
      </trkpt>
      <trkpt lat="44.88831" lon="6.0854">
        <ele>1962.8</ele>
        <time>2024-08-14T06:30:01Z</time>
      </trkpt>
      <trkpt lat="44.88831" lon="6.0854">
        <ele>1962.8</ele>
        <time>2024-08-14T06:30:02Z</time>
      </trkpt>
      <trkpt lat="44.88831" lon="6.0854">
        <ele>1963</ele>
        <time>2024-08-14T06:30:03Z</time>
      </trkpt>
      <trkpt lat="44.88831" lon="6.0854">
        <ele>1963.6</ele>
        <time>2024-08-14T06:30:04Z</time>
      </trkpt>
      <trkpt lat="44.88831" lon="6.0854">
        <ele>1963.6</ele>
        <time>2024-08-14T06:30:05Z</time>
      </trkpt>
      <trkpt lat="44.88833" lon="6.08541">
        <ele>1963.8</ele>
        <time>2024-08-14T06:30:06Z</time>
      </trkpt>
      <trkpt lat="44.88833" lon="6.08541">
        <ele>1964</ele>
        <time>2024-08-14T06:30:07Z</time>
      </trkpt>
      <trkpt lat="44.88833" lon="6.08541">
        <ele>1964.4</ele>
        <time>2024-08-14T06:30:08Z</time>
      </trkpt>
      <trkpt lat="44.88833" lon="6.08541">
        <ele>1964.6</ele>
        <time>2024-08-14T06:30:09Z</time>
      </trkpt>
      <trkpt lat="44.88833" lon="6.08541">
        <ele>1964.8</ele>
        <time>2024-08-14T06:30:10Z</time>
      </trkpt>
      <trkpt lat="44.88835" lon="6.08542">
        <ele>1964.8</ele>
        <time>2024-08-14T06:30:11Z</time>
      </trkpt>
      <trkpt lat="44.88835" lon="6.08542">
        <ele>1965</ele>
        <time>2024-08-14T06:30:12Z</time>
      </trkpt>
      <trkpt lat="44.88835" lon="6.08542">
        <ele>1965.4</ele>
        <time>2024-08-14T06:30:13Z</time>
      </trkpt>
      <trkpt lat="44.88835" lon="6.08542">
        <ele>1965.6</ele>
        <time>2024-08-14T06:30:14Z</time>
      </trkpt>
      <trkpt lat="44.88837" lon="6.08542">
        <ele>1965.8</ele>
        <time>2024-08-14T06:30:15Z</time>
      </trkpt>
      <trkpt lat="44.88837" lon="6.08542">
        <ele>1966</ele>
        <time>2024-08-14T06:30:16Z</time>
      </trkpt>
      <trkpt lat="44.88837" lon="6.08542">
        <ele>1966.2</ele>
        <time>2024-08-14T06:30:17Z</time>
      </trkpt>
      <trkpt lat="44.88837" lon="6.08542">
        <ele>1966.4</ele>
        <time>2024-08-14T06:30:18Z</time>
      </trkpt>
      <trkpt lat="44.88837" lon="6.08542">
        <ele>1966.4</ele>
        <time>2024-08-14T06:30:19Z</time>
      </trkpt>
      <trkpt lat="44.88839" lon="6.08543">
        <ele>1966.4</ele>
        <time>2024-08-14T06:30:20Z</time>
      </trkpt>
      <trkpt lat="44.88839" lon="6.08543">
        <ele>1967</ele>
        <time>2024-08-14T06:30:21Z</time>
      </trkpt>
      <trkpt lat="44.88839" lon="6.08543">
        <ele>1967</ele>
        <time>2024-08-14T06:30:22Z</time>
      </trkpt>
      <trkpt lat="44.88841" lon="6.08544">
        <ele>1967.4</ele>
        <time>2024-08-14T06:30:23Z</time>
      </trkpt>
      <trkpt lat="44.88841" lon="6.08544">
        <ele>1967.4</ele>
        <time>2024-08-14T06:30:24Z</time>
      </trkpt>
      <trkpt lat="44.88841" lon="6.08544">
        <ele>1967.8</ele>
        <time>2024-08-14T06:30:25Z</time>
      </trkpt>
      <trkpt lat="44.88841" lon="6.08544">
        <ele>1967.8</ele>
        <time>2024-08-14T06:30:26Z</time>
      </trkpt>
      <trkpt lat="44.88843" lon="6.08544">
        <ele>1968</ele>
        <time>2024-08-14T06:30:27Z</time>
      </trkpt>
      <trkpt lat="44.88843" lon="6.08544">
        <ele>1968</ele>
        <time>2024-08-14T06:30:28Z</time>
      </trkpt>
      <trkpt lat="44.88843" lon="6.08544">
        <ele>1968</ele>
        <time>2024-08-14T06:30:29Z</time>
      </trkpt>
      <trkpt lat="44.88843" lon="6.08544">
        <ele>1968</ele>
        <time>2024-08-14T06:30:30Z</time>
      </trkpt>
      <trkpt lat="44.88843" lon="6.08544">
        <ele>1968.4</ele>
        <time>2024-08-14T06:30:31Z</time>
      </trkpt>
      <trkpt lat="44.88844" lon="6.08546">
        <ele>1969</ele>
        <time>2024-08-14T06:30:32Z</time>
      </trkpt>
      <trkpt lat="44.88844" lon="6.08546">
        <ele>1969</ele>
        <time>2024-08-14T06:30:33Z</time>
      </trkpt>
      <trkpt lat="44.88844" lon="6.08546">
        <ele>1969</ele>
        <time>2024-08-14T06:30:34Z</time>
      </trkpt>
      <trkpt lat="44.88844" lon="6.08549">
        <ele>1969</ele>
        <time>2024-08-14T06:30:35Z</time>
      </trkpt>
      <trkpt lat="44.88844" lon="6.08549">
        <ele>1969.4</ele>
        <time>2024-08-14T06:30:36Z</time>
      </trkpt>
      <trkpt lat="44.88844" lon="6.08549">
        <ele>1969.8</ele>
        <time>2024-08-14T06:30:37Z</time>
      </trkpt>
      <trkpt lat="44.88843" lon="6.08552">
        <ele>1969.8</ele>
        <time>2024-08-14T06:30:38Z</time>
      </trkpt>
      <trkpt lat="44.88843" lon="6.08552">
        <ele>1970.4</ele>
        <time>2024-08-14T06:30:39Z</time>
      </trkpt>
      <trkpt lat="44.88843" lon="6.08552">
        <ele>1970.8</ele>
        <time>2024-08-14T06:30:40Z</time>
      </trkpt>
      <trkpt lat="44.88841" lon="6.08554">
        <ele>1971</ele>
        <time>2024-08-14T06:30:41Z</time>
      </trkpt>
      <trkpt lat="44.88841" lon="6.08554">
        <ele>1971</ele>
        <time>2024-08-14T06:30:42Z</time>
      </trkpt>
      <trkpt lat="44.8884" lon="6.08556">
        <ele>1971.2</ele>
        <time>2024-08-14T06:30:43Z</time>
      </trkpt>
      <trkpt lat="44.8884" lon="6.08556">
        <ele>1971.4</ele>
        <time>2024-08-14T06:30:44Z</time>
      </trkpt>
      <trkpt lat="44.88838" lon="6.08557">
        <ele>1971.4</ele>
        <time>2024-08-14T06:30:45Z</time>
      </trkpt>
      <trkpt lat="44.88838" lon="6.08557">
        <ele>1971.4</ele>
        <time>2024-08-14T06:30:46Z</time>
      </trkpt>
      <trkpt lat="44.88838" lon="6.08557">
        <ele>1971.6</ele>
        <time>2024-08-14T06:30:47Z</time>
      </trkpt>
      <trkpt lat="44.88836" lon="6.08559">
        <ele>1971.8</ele>
        <time>2024-08-14T06:30:48Z</time>
      </trkpt>
      <trkpt lat="44.88836" lon="6.08559">
        <ele>1972.2</ele>
        <time>2024-08-14T06:30:49Z</time>
      </trkpt>
      <trkpt lat="44.88836" lon="6.08559">
        <ele>1972.6</ele>
        <time>2024-08-14T06:30:50Z</time>
      </trkpt>
      <trkpt lat="44.88836" lon="6.08559">
        <ele>1972.6</ele>
        <time>2024-08-14T06:30:51Z</time>
      </trkpt>
      <trkpt lat="44.88836" lon="6.08559">
        <ele>1973</ele>
        <time>2024-08-14T06:30:52Z</time>
      </trkpt>
      <trkpt lat="44.88837" lon="6.08561">
        <ele>1973</ele>
        <time>2024-08-14T06:30:53Z</time>
      </trkpt>
      <trkpt lat="44.88837" lon="6.08561">
        <ele>1973.2</ele>
        <time>2024-08-14T06:30:54Z</time>
      </trkpt>
      <trkpt lat="44.88837" lon="6.08561">
        <ele>1973.8</ele>
        <time>2024-08-14T06:30:55Z</time>
      </trkpt>
      <trkpt lat="44.88837" lon="6.08561">
        <ele>1973.8</ele>
        <time>2024-08-14T06:30:56Z</time>
      </trkpt>
      <trkpt lat="44.8884" lon="6.0856">
        <ele>1973.6</ele>
        <time>2024-08-14T06:30:57Z</time>
      </trkpt>
      <trkpt lat="44.8884" lon="6.0856">
        <ele>1973.6</ele>
        <time>2024-08-14T06:30:58Z</time>
      </trkpt>
      <trkpt lat="44.8884" lon="6.0856">
        <ele>1974</ele>
        <time>2024-08-14T06:30:59Z</time>
      </trkpt>
      <trkpt lat="44.88842" lon="6.08559">
        <ele>1974.2</ele>
        <time>2024-08-14T06:31:00Z</time>
      </trkpt>
      <trkpt lat="44.88842" lon="6.08559">
        <ele>1974.2</ele>
        <time>2024-08-14T06:31:01Z</time>
      </trkpt>
      <trkpt lat="44.88844" lon="6.08559">
        <ele>1974.6</ele>
        <time>2024-08-14T06:31:02Z</time>
      </trkpt>
      <trkpt lat="44.88844" lon="6.08559">
        <ele>1974.6</ele>
        <time>2024-08-14T06:31:03Z</time>
      </trkpt>
      <trkpt lat="44.88846" lon="6.08558">
        <ele>1974.8</ele>
        <time>2024-08-14T06:31:04Z</time>
      </trkpt>
      <trkpt lat="44.88846" lon="6.08558">
        <ele>1974.8</ele>
        <time>2024-08-14T06:31:05Z</time>
      </trkpt>
      <trkpt lat="44.88846" lon="6.08558">
        <ele>1975</ele>
        <time>2024-08-14T06:31:06Z</time>
      </trkpt>
      <trkpt lat="44.88849" lon="6.08557">
        <ele>1975</ele>
        <time>2024-08-14T06:31:07Z</time>
      </trkpt>
      <trkpt lat="44.88849" lon="6.08557">
        <ele>1975</ele>
        <time>2024-08-14T06:31:08Z</time>
      </trkpt>
      <trkpt lat="44.88851" lon="6.08557">
        <ele>1975.2</ele>
        <time>2024-08-14T06:31:09Z</time>
      </trkpt>
      <trkpt lat="44.88851" lon="6.08557">
        <ele>1975.4</ele>
        <time>2024-08-14T06:31:10Z</time>
      </trkpt>
      <trkpt lat="44.88853" lon="6.08556">
        <ele>1975.4</ele>
        <time>2024-08-14T06:31:11Z</time>
      </trkpt>
      <trkpt lat="44.88853" lon="6.08556">
        <ele>1975.4</ele>
        <time>2024-08-14T06:31:12Z</time>
      </trkpt>
      <trkpt lat="44.88855" lon="6.08556">
        <ele>1975.6</ele>
        <time>2024-08-14T06:31:13Z</time>
      </trkpt>
      <trkpt lat="44.88855" lon="6.08556">
        <ele>1976.2</ele>
        <time>2024-08-14T06:31:14Z</time>
      </trkpt>
      <trkpt lat="44.88857" lon="6.08555">
        <ele>1976.2</ele>
        <time>2024-08-14T06:31:15Z</time>
      </trkpt>
      <trkpt lat="44.88857" lon="6.08555">
        <ele>1976.2</ele>
        <time>2024-08-14T06:31:16Z</time>
      </trkpt>
      <trkpt lat="44.88859" lon="6.08555">
        <ele>1976.4</ele>
        <time>2024-08-14T06:31:17Z</time>
      </trkpt>
      <trkpt lat="44.88859" lon="6.08555">
        <ele>1976.6</ele>
        <time>2024-08-14T06:31:18Z</time>
      </trkpt>
      <trkpt lat="44.88861" lon="6.08555">
        <ele>1977</ele>
        <time>2024-08-14T06:31:19Z</time>
      </trkpt>
      <trkpt lat="44.88861" lon="6.08555">
        <ele>1977.2</ele>
        <time>2024-08-14T06:31:20Z</time>
      </trkpt>
      <trkpt lat="44.88861" lon="6.08555">
        <ele>1977.2</ele>
        <time>2024-08-14T06:31:21Z</time>
      </trkpt>
      <trkpt lat="44.88862" lon="6.08553">
        <ele>1977.2</ele>
        <time>2024-08-14T06:31:22Z</time>
      </trkpt>
      <trkpt lat="44.88862" lon="6.08553">
        <ele>1977.2</ele>
        <time>2024-08-14T06:31:23Z</time>
      </trkpt>
      <trkpt lat="44.88863" lon="6.0855">
        <ele>1977.2</ele>
        <time>2024-08-14T06:31:24Z</time>
      </trkpt>
      <trkpt lat="44.88863" lon="6.0855">
        <ele>1976.8</ele>
        <time>2024-08-14T06:31:25Z</time>
      </trkpt>
      <trkpt lat="44.88862" lon="6.08547">
        <ele>1976.8</ele>
        <time>2024-08-14T06:31:26Z</time>
      </trkpt>
      <trkpt lat="44.88862" lon="6.08547">
        <ele>1977</ele>
        <time>2024-08-14T06:31:27Z</time>
      </trkpt>
      <trkpt lat="44.88862" lon="6.08547">
        <ele>1977</ele>
        <time>2024-08-14T06:31:28Z</time>
      </trkpt>
      <trkpt lat="44.88861" lon="6.08544">
        <ele>1977</ele>
        <time>2024-08-14T06:31:29Z</time>
      </trkpt>
      <trkpt lat="44.88861" lon="6.08544">
        <ele>1977</ele>
        <time>2024-08-14T06:31:30Z</time>
      </trkpt>
      <trkpt lat="44.88861" lon="6.08544">
        <ele>1977</ele>
        <time>2024-08-14T06:31:31Z</time>
      </trkpt>
      <trkpt lat="44.88861" lon="6.08544">
        <ele>1977.2</ele>
        <time>2024-08-14T06:31:32Z</time>
      </trkpt>
      <trkpt lat="44.88861" lon="6.08544">
        <ele>1977.4</ele>
        <time>2024-08-14T06:31:33Z</time>
      </trkpt>
      <trkpt lat="44.88861" lon="6.08544">
        <ele>1977.6</ele>
        <time>2024-08-14T06:31:34Z</time>
      </trkpt>
      <trkpt lat="44.88861" lon="6.08544">
        <ele>1977.6</ele>
        <time>2024-08-14T06:31:35Z</time>
      </trkpt>
      <trkpt lat="44.88861" lon="6.08544">
        <ele>1977.6</ele>
        <time>2024-08-14T06:31:36Z</time>
      </trkpt>
      <trkpt lat="44.88861" lon="6.08544">
        <ele>1977.6</ele>
        <time>2024-08-14T06:31:37Z</time>
      </trkpt>
      <trkpt lat="44.88861" lon="6.08544">
        <ele>1977.6</ele>
        <time>2024-08-14T06:31:38Z</time>
      </trkpt>
      <trkpt lat="44.88861" lon="6.08544">
        <ele>1977.8</ele>
        <time>2024-08-14T06:31:39Z</time>
      </trkpt>
      <trkpt lat="44.88861" lon="6.08544">
        <ele>1977.8</ele>
        <time>2024-08-14T06:31:40Z</time>
      </trkpt>
      <trkpt lat="44.88861" lon="6.08544">
        <ele>1977.8</ele>
        <time>2024-08-14T06:31:41Z</time>
      </trkpt>
      <trkpt lat="44.88861" lon="6.08544">
        <ele>1977.8</ele>
        <time>2024-08-14T06:31:42Z</time>
      </trkpt>
      <trkpt lat="44.88861" lon="6.08544">
        <ele>1978</ele>
        <time>2024-08-14T06:31:43Z</time>
      </trkpt>
      <trkpt lat="44.88861" lon="6.08544">
        <ele>1978</ele>
        <time>2024-08-14T06:31:44Z</time>
      </trkpt>
      <trkpt lat="44.88861" lon="6.08544">
        <ele>1978</ele>
        <time>2024-08-14T06:31:45Z</time>
      </trkpt>
      <trkpt lat="44.88861" lon="6.08544">
        <ele>1977.8</ele>
        <time>2024-08-14T06:31:46Z</time>
      </trkpt>
      <trkpt lat="44.88861" lon="6.08544">
        <ele>1977.6</ele>
        <time>2024-08-14T06:31:47Z</time>
      </trkpt>
      <trkpt lat="44.88861" lon="6.08544">
        <ele>1977.6</ele>
        <time>2024-08-14T06:31:48Z</time>
      </trkpt>
      <trkpt lat="44.88861" lon="6.08544">
        <ele>1977.6</ele>
        <time>2024-08-14T06:31:49Z</time>
      </trkpt>
      <trkpt lat="44.88861" lon="6.08544">
        <ele>1977.6</ele>
        <time>2024-08-14T06:31:50Z</time>
      </trkpt>
      <trkpt lat="44.88861" lon="6.08544">
        <ele>1977.6</ele>
        <time>2024-08-14T06:31:51Z</time>
      </trkpt>
      <trkpt lat="44.88861" lon="6.08544">
        <ele>1977.8</ele>
        <time>2024-08-14T06:31:52Z</time>
      </trkpt>
      <trkpt lat="44.88861" lon="6.08544">
        <ele>1977.8</ele>
        <time>2024-08-14T06:31:53Z</time>
      </trkpt>
      <trkpt lat="44.88861" lon="6.08544">
        <ele>1977.8</ele>
        <time>2024-08-14T06:31:54Z</time>
      </trkpt>
      <trkpt lat="44.88861" lon="6.08544">
        <ele>1977.6</ele>
        <time>2024-08-14T06:31:55Z</time>
      </trkpt>
      <trkpt lat="44.88861" lon="6.08544">
        <ele>1977.6</ele>
        <time>2024-08-14T06:31:56Z</time>
      </trkpt>
      <trkpt lat="44.88861" lon="6.08544">
        <ele>1977.6</ele>
        <time>2024-08-14T06:31:57Z</time>
      </trkpt>
      <trkpt lat="44.88861" lon="6.08544">
        <ele>1977.6</ele>
        <time>2024-08-14T06:31:58Z</time>
      </trkpt>
      <trkpt lat="44.88861" lon="6.08544">
        <ele>1977.4</ele>
        <time>2024-08-14T06:31:59Z</time>
      </trkpt>
      <trkpt lat="44.88861" lon="6.08544">
        <ele>1977.4</ele>
        <time>2024-08-14T06:32:00Z</time>
      </trkpt>
      <trkpt lat="44.88861" lon="6.08544">
        <ele>1977.8</ele>
        <time>2024-08-14T06:32:01Z</time>
      </trkpt>
      <trkpt lat="44.88861" lon="6.08544">
        <ele>1978.2</ele>
        <time>2024-08-14T06:32:02Z</time>
      </trkpt>
      <trkpt lat="44.88861" lon="6.08544">
        <ele>1978.2</ele>
        <time>2024-08-14T06:32:03Z</time>
      </trkpt>
      <trkpt lat="44.88861" lon="6.08544">
        <ele>1978.2</ele>
        <time>2024-08-14T06:32:04Z</time>
      </trkpt>
      <trkpt lat="44.88861" lon="6.08544">
        <ele>1978.4</ele>
        <time>2024-08-14T06:32:05Z</time>
      </trkpt>
      <trkpt lat="44.88861" lon="6.08544">
        <ele>1978.8</ele>
        <time>2024-08-14T06:32:06Z</time>
      </trkpt>
      <trkpt lat="44.88861" lon="6.08544">
        <ele>1978.8</ele>
        <time>2024-08-14T06:32:07Z</time>
      </trkpt>
      <trkpt lat="44.88861" lon="6.08544">
        <ele>1978.8</ele>
        <time>2024-08-14T06:32:08Z</time>
      </trkpt>
      <trkpt lat="44.88861" lon="6.08544">
        <ele>1978.8</ele>
        <time>2024-08-14T06:32:09Z</time>
      </trkpt>
      <trkpt lat="44.88861" lon="6.08544">
        <ele>1978.8</ele>
        <time>2024-08-14T06:32:10Z</time>
      </trkpt>
      <trkpt lat="44.88861" lon="6.08544">
        <ele>1978.8</ele>
        <time>2024-08-14T06:32:11Z</time>
      </trkpt>
      <trkpt lat="44.88861" lon="6.08544">
        <ele>1978.6</ele>
        <time>2024-08-14T06:32:12Z</time>
      </trkpt>
      <trkpt lat="44.88861" lon="6.08544">
        <ele>1978.6</ele>
        <time>2024-08-14T06:32:13Z</time>
      </trkpt>
      <trkpt lat="44.88861" lon="6.08544">
        <ele>1978.6</ele>
        <time>2024-08-14T06:32:14Z</time>
      </trkpt>
      <trkpt lat="44.88861" lon="6.08544">
        <ele>1978.6</ele>
        <time>2024-08-14T06:32:15Z</time>
      </trkpt>
      <trkpt lat="44.88861" lon="6.08544">
        <ele>1978.8</ele>
        <time>2024-08-14T06:32:16Z</time>
      </trkpt>
      <trkpt lat="44.88861" lon="6.08544">
        <ele>1978.8</ele>
        <time>2024-08-14T06:32:17Z</time>
      </trkpt>
      <trkpt lat="44.88861" lon="6.08544">
        <ele>1978.8</ele>
        <time>2024-08-14T06:32:18Z</time>
      </trkpt>
      <trkpt lat="44.88861" lon="6.08544">
        <ele>1978.8</ele>
        <time>2024-08-14T06:32:19Z</time>
      </trkpt>
      <trkpt lat="44.88861" lon="6.08544">
        <ele>1978.8</ele>
        <time>2024-08-14T06:32:20Z</time>
      </trkpt>
      <trkpt lat="44.88861" lon="6.08544">
        <ele>1978.6</ele>
        <time>2024-08-14T06:32:21Z</time>
      </trkpt>
      <trkpt lat="44.88861" lon="6.08544">
        <ele>1978.4</ele>
        <time>2024-08-14T06:32:22Z</time>
      </trkpt>
      <trkpt lat="44.88861" lon="6.08544">
        <ele>1978.6</ele>
        <time>2024-08-14T06:32:23Z</time>
      </trkpt>
      <trkpt lat="44.88861" lon="6.08544">
        <ele>1978.4</ele>
        <time>2024-08-14T06:32:24Z</time>
      </trkpt>
      <trkpt lat="44.88861" lon="6.08544">
        <ele>1978.4</ele>
        <time>2024-08-14T06:32:25Z</time>
      </trkpt>
      <trkpt lat="44.88861" lon="6.08544">
        <ele>1978.4</ele>
        <time>2024-08-14T06:32:26Z</time>
      </trkpt>
      <trkpt lat="44.88861" lon="6.08544">
        <ele>1978.4</ele>
        <time>2024-08-14T06:32:27Z</time>
      </trkpt>
      <trkpt lat="44.88861" lon="6.08544">
        <ele>1978.2</ele>
        <time>2024-08-14T06:32:28Z</time>
      </trkpt>
      <trkpt lat="44.88861" lon="6.08544">
        <ele>1978.2</ele>
        <time>2024-08-14T06:32:29Z</time>
      </trkpt>
      <trkpt lat="44.88861" lon="6.08544">
        <ele>1977.8</ele>
        <time>2024-08-14T06:32:30Z</time>
      </trkpt>
      <trkpt lat="44.88861" lon="6.08544">
        <ele>1977.8</ele>
        <time>2024-08-14T06:32:31Z</time>
      </trkpt>
      <trkpt lat="44.88861" lon="6.08544">
        <ele>1978</ele>
        <time>2024-08-14T06:32:32Z</time>
      </trkpt>
      <trkpt lat="44.88861" lon="6.08544">
        <ele>1978</ele>
        <time>2024-08-14T06:32:33Z</time>
      </trkpt>
      <trkpt lat="44.88861" lon="6.08544">
        <ele>1978</ele>
        <time>2024-08-14T06:32:34Z</time>
      </trkpt>
      <trkpt lat="44.88861" lon="6.08544">
        <ele>1978</ele>
        <time>2024-08-14T06:32:35Z</time>
      </trkpt>
      <trkpt lat="44.88861" lon="6.08544">
        <ele>1977.8</ele>
        <time>2024-08-14T06:32:36Z</time>
      </trkpt>
      <trkpt lat="44.88861" lon="6.08544">
        <ele>1977.8</ele>
        <time>2024-08-14T06:32:37Z</time>
      </trkpt>
      <trkpt lat="44.88861" lon="6.08544">
        <ele>1977.8</ele>
        <time>2024-08-14T06:32:38Z</time>
      </trkpt>
      <trkpt lat="44.88861" lon="6.08544">
        <ele>1977.8</ele>
        <time>2024-08-14T06:32:39Z</time>
      </trkpt>
      <trkpt lat="44.88861" lon="6.08544">
        <ele>1977.8</ele>
        <time>2024-08-14T06:32:40Z</time>
      </trkpt>
      <trkpt lat="44.88861" lon="6.08544">
        <ele>1977.8</ele>
        <time>2024-08-14T06:32:41Z</time>
      </trkpt>
      <trkpt lat="44.88861" lon="6.08544">
        <ele>1978.2</ele>
        <time>2024-08-14T06:32:42Z</time>
      </trkpt>
      <trkpt lat="44.88861" lon="6.08544">
        <ele>1978.4</ele>
        <time>2024-08-14T06:32:43Z</time>
      </trkpt>
      <trkpt lat="44.88861" lon="6.08544">
        <ele>1978.4</ele>
        <time>2024-08-14T06:32:44Z</time>
      </trkpt>
      <trkpt lat="44.88861" lon="6.08544">
        <ele>1978.2</ele>
        <time>2024-08-14T06:32:45Z</time>
      </trkpt>
      <trkpt lat="44.88861" lon="6.08544">
        <ele>1978.2</ele>
        <time>2024-08-14T06:32:46Z</time>
      </trkpt>
      <trkpt lat="44.88861" lon="6.08544">
        <ele>1978</ele>
        <time>2024-08-14T06:32:47Z</time>
      </trkpt>
      <trkpt lat="44.88861" lon="6.08544">
        <ele>1978</ele>
        <time>2024-08-14T06:32:48Z</time>
      </trkpt>
      <trkpt lat="44.88861" lon="6.08544">
        <ele>1978</ele>
        <time>2024-08-14T06:32:49Z</time>
      </trkpt>
      <trkpt lat="44.88861" lon="6.08544">
        <ele>1978</ele>
        <time>2024-08-14T06:32:50Z</time>
      </trkpt>
      <trkpt lat="44.88861" lon="6.08544">
        <ele>1978</ele>
        <time>2024-08-14T06:32:51Z</time>
      </trkpt>
      <trkpt lat="44.88861" lon="6.08544">
        <ele>1977.8</ele>
        <time>2024-08-14T06:32:52Z</time>
      </trkpt>
      <trkpt lat="44.88861" lon="6.08544">
        <ele>1977.8</ele>
        <time>2024-08-14T06:32:53Z</time>
      </trkpt>
      <trkpt lat="44.88861" lon="6.08544">
        <ele>1978</ele>
        <time>2024-08-14T06:32:54Z</time>
      </trkpt>
      <trkpt lat="44.88861" lon="6.08544">
        <ele>1978</ele>
        <time>2024-08-14T06:32:55Z</time>
      </trkpt>
      <trkpt lat="44.88861" lon="6.08544">
        <ele>1978</ele>
        <time>2024-08-14T06:32:56Z</time>
      </trkpt>
      <trkpt lat="44.88861" lon="6.08544">
        <ele>1978.4</ele>
        <time>2024-08-14T06:32:57Z</time>
      </trkpt>
      <trkpt lat="44.88861" lon="6.08544">
        <ele>1978.4</ele>
        <time>2024-08-14T06:32:58Z</time>
      </trkpt>
      <trkpt lat="44.88861" lon="6.08544">
        <ele>1978.4</ele>
        <time>2024-08-14T06:32:59Z</time>
      </trkpt>
      <trkpt lat="44.88861" lon="6.08544">
        <ele>1978.4</ele>
        <time>2024-08-14T06:33:00Z</time>
      </trkpt>
      <trkpt lat="44.88861" lon="6.08544">
        <ele>1978.4</ele>
        <time>2024-08-14T06:33:01Z</time>
      </trkpt>
      <trkpt lat="44.88861" lon="6.08544">
        <ele>1978.4</ele>
        <time>2024-08-14T06:33:02Z</time>
      </trkpt>
      <trkpt lat="44.88861" lon="6.08544">
        <ele>1978.4</ele>
        <time>2024-08-14T06:33:03Z</time>
      </trkpt>
      <trkpt lat="44.88861" lon="6.08544">
        <ele>1978.4</ele>
        <time>2024-08-14T06:33:04Z</time>
      </trkpt>
      <trkpt lat="44.88861" lon="6.08544">
        <ele>1978.4</ele>
        <time>2024-08-14T06:33:05Z</time>
      </trkpt>
      <trkpt lat="44.88861" lon="6.08544">
        <ele>1978.6</ele>
        <time>2024-08-14T06:33:06Z</time>
      </trkpt>
      <trkpt lat="44.88861" lon="6.08544">
        <ele>1978.6</ele>
        <time>2024-08-14T06:33:07Z</time>
      </trkpt>
      <trkpt lat="44.88861" lon="6.08544">
        <ele>1978.2</ele>
        <time>2024-08-14T06:33:08Z</time>
      </trkpt>
      <trkpt lat="44.88861" lon="6.08544">
        <ele>1978.2</ele>
        <time>2024-08-14T06:33:09Z</time>
      </trkpt>
      <trkpt lat="44.88861" lon="6.08544">
        <ele>1978.2</ele>
        <time>2024-08-14T06:33:10Z</time>
      </trkpt>
      <trkpt lat="44.88861" lon="6.08544">
        <ele>1978.2</ele>
        <time>2024-08-14T06:33:11Z</time>
      </trkpt>
      <trkpt lat="44.88861" lon="6.08544">
        <ele>1978.4</ele>
        <time>2024-08-14T06:33:12Z</time>
      </trkpt>
      <trkpt lat="44.88861" lon="6.08544">
        <ele>1978.4</ele>
        <time>2024-08-14T06:33:13Z</time>
      </trkpt>
      <trkpt lat="44.88861" lon="6.08544">
        <ele>1978.4</ele>
        <time>2024-08-14T06:33:14Z</time>
      </trkpt>
      <trkpt lat="44.88861" lon="6.08544">
        <ele>1978.4</ele>
        <time>2024-08-14T06:33:15Z</time>
      </trkpt>
      <trkpt lat="44.88861" lon="6.08544">
        <ele>1978.4</ele>
        <time>2024-08-14T06:33:16Z</time>
      </trkpt>
      <trkpt lat="44.88861" lon="6.08544">
        <ele>1978.6</ele>
        <time>2024-08-14T06:33:17Z</time>
      </trkpt>
      <trkpt lat="44.88861" lon="6.08544">
        <ele>1978.4</ele>
        <time>2024-08-14T06:33:18Z</time>
      </trkpt>
      <trkpt lat="44.88861" lon="6.08544">
        <ele>1978.4</ele>
        <time>2024-08-14T06:33:19Z</time>
      </trkpt>
      <trkpt lat="44.88861" lon="6.08544">
        <ele>1978.4</ele>
        <time>2024-08-14T06:33:20Z</time>
      </trkpt>
      <trkpt lat="44.88861" lon="6.08544">
        <ele>1978.4</ele>
        <time>2024-08-14T06:33:21Z</time>
      </trkpt>
      <trkpt lat="44.88861" lon="6.08544">
        <ele>1978.4</ele>
        <time>2024-08-14T06:33:22Z</time>
      </trkpt>
      <trkpt lat="44.88861" lon="6.08544">
        <ele>1978.4</ele>
        <time>2024-08-14T06:33:23Z</time>
      </trkpt>
      <trkpt lat="44.88861" lon="6.08544">
        <ele>1978.4</ele>
        <time>2024-08-14T06:33:24Z</time>
      </trkpt>
      <trkpt lat="44.88861" lon="6.08544">
        <ele>1978.6</ele>
        <time>2024-08-14T06:33:25Z</time>
      </trkpt>
      <trkpt lat="44.88861" lon="6.08544">
        <ele>1978.6</ele>
        <time>2024-08-14T06:33:26Z</time>
      </trkpt>
      <trkpt lat="44.88861" lon="6.08544">
        <ele>1978.6</ele>
        <time>2024-08-14T06:33:27Z</time>
      </trkpt>
      <trkpt lat="44.88861" lon="6.08544">
        <ele>1978.4</ele>
        <time>2024-08-14T06:33:28Z</time>
      </trkpt>
      <trkpt lat="44.88861" lon="6.08544">
        <ele>1978.6</ele>
        <time>2024-08-14T06:33:29Z</time>
      </trkpt>
      <trkpt lat="44.88861" lon="6.08544">
        <ele>1978.6</ele>
        <time>2024-08-14T06:33:30Z</time>
      </trkpt>
      <trkpt lat="44.88861" lon="6.08544">
        <ele>1978.8</ele>
        <time>2024-08-14T06:33:31Z</time>
      </trkpt>
      <trkpt lat="44.88861" lon="6.08544">
        <ele>1978.8</ele>
        <time>2024-08-14T06:33:32Z</time>
      </trkpt>
      <trkpt lat="44.88861" lon="6.08544">
        <ele>1978.8</ele>
        <time>2024-08-14T06:33:33Z</time>
      </trkpt>
      <trkpt lat="44.88861" lon="6.08544">
        <ele>1978.8</ele>
        <time>2024-08-14T06:33:34Z</time>
      </trkpt>
      <trkpt lat="44.88861" lon="6.08544">
        <ele>1979</ele>
        <time>2024-08-14T06:33:35Z</time>
      </trkpt>
      <trkpt lat="44.88861" lon="6.08544">
        <ele>1979.4</ele>
        <time>2024-08-14T06:33:36Z</time>
      </trkpt>
      <trkpt lat="44.88861" lon="6.08544">
        <ele>1979.4</ele>
        <time>2024-08-14T06:33:37Z</time>
      </trkpt>
      <trkpt lat="44.88861" lon="6.08544">
        <ele>1979.4</ele>
        <time>2024-08-14T06:33:38Z</time>
      </trkpt>
      <trkpt lat="44.88861" lon="6.08544">
        <ele>1979.4</ele>
        <time>2024-08-14T06:33:39Z</time>
      </trkpt>
      <trkpt lat="44.88861" lon="6.08544">
        <ele>1979.4</ele>
        <time>2024-08-14T06:33:40Z</time>
      </trkpt>
      <trkpt lat="44.88861" lon="6.08544">
        <ele>1979.2</ele>
        <time>2024-08-14T06:33:41Z</time>
      </trkpt>
      <trkpt lat="44.88861" lon="6.08544">
        <ele>1979.2</ele>
        <time>2024-08-14T06:33:42Z</time>
      </trkpt>
      <trkpt lat="44.88861" lon="6.08544">
        <ele>1979</ele>
        <time>2024-08-14T06:33:43Z</time>
      </trkpt>
      <trkpt lat="44.88861" lon="6.08544">
        <ele>1979</ele>
        <time>2024-08-14T06:33:44Z</time>
      </trkpt>
      <trkpt lat="44.88861" lon="6.08544">
        <ele>1979</ele>
        <time>2024-08-14T06:33:45Z</time>
      </trkpt>
      <trkpt lat="44.88861" lon="6.08544">
        <ele>1979</ele>
        <time>2024-08-14T06:33:46Z</time>
      </trkpt>
      <trkpt lat="44.88861" lon="6.08544">
        <ele>1979</ele>
        <time>2024-08-14T06:33:47Z</time>
      </trkpt>
      <trkpt lat="44.88861" lon="6.08544">
        <ele>1979</ele>
        <time>2024-08-14T06:33:48Z</time>
      </trkpt>
      <trkpt lat="44.88861" lon="6.08544">
        <ele>1979</ele>
        <time>2024-08-14T06:33:49Z</time>
      </trkpt>
      <trkpt lat="44.88861" lon="6.08544">
        <ele>1979</ele>
        <time>2024-08-14T06:33:50Z</time>
      </trkpt>
      <trkpt lat="44.88861" lon="6.08544">
        <ele>1979</ele>
        <time>2024-08-14T06:33:51Z</time>
      </trkpt>
      <trkpt lat="44.88861" lon="6.08544">
        <ele>1979</ele>
        <time>2024-08-14T06:33:52Z</time>
      </trkpt>
      <trkpt lat="44.88861" lon="6.08544">
        <ele>1979.4</ele>
        <time>2024-08-14T06:33:53Z</time>
      </trkpt>
      <trkpt lat="44.88861" lon="6.08544">
        <ele>1979.6</ele>
        <time>2024-08-14T06:33:54Z</time>
      </trkpt>
      <trkpt lat="44.88861" lon="6.08544">
        <ele>1979.6</ele>
        <time>2024-08-14T06:33:55Z</time>
      </trkpt>
      <trkpt lat="44.88861" lon="6.08544">
        <ele>1979.4</ele>
        <time>2024-08-14T06:33:56Z</time>
      </trkpt>
      <trkpt lat="44.88861" lon="6.08541">
        <ele>1979.2</ele>
        <time>2024-08-14T06:33:57Z</time>
      </trkpt>
      <trkpt lat="44.88861" lon="6.08541">
        <ele>1979.2</ele>
        <time>2024-08-14T06:33:58Z</time>
      </trkpt>
      <trkpt lat="44.8886" lon="6.08538">
        <ele>1979.6</ele>
        <time>2024-08-14T06:33:59Z</time>
      </trkpt>
      <trkpt lat="44.8886" lon="6.08538">
        <ele>1980</ele>
        <time>2024-08-14T06:34:00Z</time>
      </trkpt>
      <trkpt lat="44.88859" lon="6.08535">
        <ele>1980.4</ele>
        <time>2024-08-14T06:34:01Z</time>
      </trkpt>
      <trkpt lat="44.88859" lon="6.08535">
        <ele>1980.8</ele>
        <time>2024-08-14T06:34:02Z</time>
      </trkpt>
      <trkpt lat="44.88859" lon="6.08535">
        <ele>1980.8</ele>
        <time>2024-08-14T06:34:03Z</time>
      </trkpt>
      <trkpt lat="44.88859" lon="6.08535">
        <ele>1980.8</ele>
        <time>2024-08-14T06:34:04Z</time>
      </trkpt>
      <trkpt lat="44.88859" lon="6.08535">
        <ele>1980.8</ele>
        <time>2024-08-14T06:34:05Z</time>
      </trkpt>
      <trkpt lat="44.88859" lon="6.08532">
        <ele>1981</ele>
        <time>2024-08-14T06:34:06Z</time>
      </trkpt>
      <trkpt lat="44.88859" lon="6.08532">
        <ele>1981</ele>
        <time>2024-08-14T06:34:07Z</time>
      </trkpt>
      <trkpt lat="44.88859" lon="6.08532">
        <ele>1981</ele>
        <time>2024-08-14T06:34:08Z</time>
      </trkpt>
      <trkpt lat="44.88858" lon="6.08529">
        <ele>1981.4</ele>
        <time>2024-08-14T06:34:09Z</time>
      </trkpt>
      <trkpt lat="44.88858" lon="6.08529">
        <ele>1981.4</ele>
        <time>2024-08-14T06:34:10Z</time>
      </trkpt>
      <trkpt lat="44.88858" lon="6.08529">
        <ele>1981.8</ele>
        <time>2024-08-14T06:34:11Z</time>
      </trkpt>
      <trkpt lat="44.88858" lon="6.08526">
        <ele>1982</ele>
        <time>2024-08-14T06:34:12Z</time>
      </trkpt>
      <trkpt lat="44.88858" lon="6.08526">
        <ele>1982.2</ele>
        <time>2024-08-14T06:34:13Z</time>
      </trkpt>
      <trkpt lat="44.88858" lon="6.08526">
        <ele>1982.4</ele>
        <time>2024-08-14T06:34:14Z</time>
      </trkpt>
      <trkpt lat="44.88858" lon="6.08526">
        <ele>1982.6</ele>
        <time>2024-08-14T06:34:15Z</time>
      </trkpt>
      <trkpt lat="44.88857" lon="6.08522">
        <ele>1983</ele>
        <time>2024-08-14T06:34:16Z</time>
      </trkpt>
      <trkpt lat="44.88857" lon="6.08522">
        <ele>1983.2</ele>
        <time>2024-08-14T06:34:17Z</time>
      </trkpt>
      <trkpt lat="44.88857" lon="6.08522">
        <ele>1983.4</ele>
        <time>2024-08-14T06:34:18Z</time>
      </trkpt>
      <trkpt lat="44.88857" lon="6.08522">
        <ele>1983.8</ele>
        <time>2024-08-14T06:34:19Z</time>
      </trkpt>
      <trkpt lat="44.88857" lon="6.0852">
        <ele>1984</ele>
        <time>2024-08-14T06:34:20Z</time>
      </trkpt>
      <trkpt lat="44.88857" lon="6.0852">
        <ele>1984.2</ele>
        <time>2024-08-14T06:34:21Z</time>
      </trkpt>
      <trkpt lat="44.88857" lon="6.0852">
        <ele>1984.4</ele>
        <time>2024-08-14T06:34:22Z</time>
      </trkpt>
      <trkpt lat="44.88857" lon="6.0852">
        <ele>1984.4</ele>
        <time>2024-08-14T06:34:23Z</time>
      </trkpt>
      <trkpt lat="44.88856" lon="6.08517">
        <ele>1984.6</ele>
        <time>2024-08-14T06:34:24Z</time>
      </trkpt>
      <trkpt lat="44.88856" lon="6.08517">
        <ele>1984.8</ele>
        <time>2024-08-14T06:34:25Z</time>
      </trkpt>
      <trkpt lat="44.88856" lon="6.08517">
        <ele>1985</ele>
        <time>2024-08-14T06:34:26Z</time>
      </trkpt>
      <trkpt lat="44.88857" lon="6.08514">
        <ele>1985.2</ele>
        <time>2024-08-14T06:34:27Z</time>
      </trkpt>
      <trkpt lat="44.88857" lon="6.08514">
        <ele>1985.4</ele>
        <time>2024-08-14T06:34:28Z</time>
      </trkpt>
      <trkpt lat="44.88857" lon="6.08514">
        <ele>1985.8</ele>
        <time>2024-08-14T06:34:29Z</time>
      </trkpt>
      <trkpt lat="44.88857" lon="6.08514">
        <ele>1986</ele>
        <time>2024-08-14T06:34:30Z</time>
      </trkpt>
      <trkpt lat="44.88856" lon="6.08511">
        <ele>1986.2</ele>
        <time>2024-08-14T06:34:31Z</time>
      </trkpt>
      <trkpt lat="44.88856" lon="6.08511">
        <ele>1986.4</ele>
        <time>2024-08-14T06:34:32Z</time>
      </trkpt>
      <trkpt lat="44.88856" lon="6.08511">
        <ele>1986.6</ele>
        <time>2024-08-14T06:34:33Z</time>
      </trkpt>
      <trkpt lat="44.88856" lon="6.08511">
        <ele>1986.6</ele>
        <time>2024-08-14T06:34:34Z</time>
      </trkpt>
      <trkpt lat="44.88855" lon="6.08508">
        <ele>1987.2</ele>
        <time>2024-08-14T06:34:35Z</time>
      </trkpt>
      <trkpt lat="44.88855" lon="6.08508">
        <ele>1987.4</ele>
        <time>2024-08-14T06:34:36Z</time>
      </trkpt>
      <trkpt lat="44.88855" lon="6.08508">
        <ele>1987.6</ele>
        <time>2024-08-14T06:34:37Z</time>
      </trkpt>
      <trkpt lat="44.88855" lon="6.08508">
        <ele>1988.2</ele>
        <time>2024-08-14T06:34:38Z</time>
      </trkpt>
      <trkpt lat="44.88857" lon="6.08505">
        <ele>1988.2</ele>
        <time>2024-08-14T06:34:39Z</time>
      </trkpt>
      <trkpt lat="44.88857" lon="6.08505">
        <ele>1988.6</ele>
        <time>2024-08-14T06:34:40Z</time>
      </trkpt>
      <trkpt lat="44.88857" lon="6.08505">
        <ele>1988.8</ele>
        <time>2024-08-14T06:34:41Z</time>
      </trkpt>
      <trkpt lat="44.88857" lon="6.08505">
        <ele>1988.8</ele>
        <time>2024-08-14T06:34:42Z</time>
      </trkpt>
      <trkpt lat="44.88857" lon="6.08502">
        <ele>1989</ele>
        <time>2024-08-14T06:34:43Z</time>
      </trkpt>
      <trkpt lat="44.88857" lon="6.08502">
        <ele>1989.2</ele>
        <time>2024-08-14T06:34:44Z</time>
      </trkpt>
      <trkpt lat="44.88857" lon="6.08502">
        <ele>1989.2</ele>
        <time>2024-08-14T06:34:45Z</time>
      </trkpt>
      <trkpt lat="44.88857" lon="6.08502">
        <ele>1989.6</ele>
        <time>2024-08-14T06:34:46Z</time>
      </trkpt>
      <trkpt lat="44.88857" lon="6.08502">
        <ele>1989.6</ele>
        <time>2024-08-14T06:34:47Z</time>
      </trkpt>
      <trkpt lat="44.88858" lon="6.08499">
        <ele>1989.8</ele>
        <time>2024-08-14T06:34:48Z</time>
      </trkpt>
      <trkpt lat="44.88858" lon="6.08499">
        <ele>1990</ele>
        <time>2024-08-14T06:34:49Z</time>
      </trkpt>
      <trkpt lat="44.88858" lon="6.08499">
        <ele>1990.2</ele>
        <time>2024-08-14T06:34:50Z</time>
      </trkpt>
      <trkpt lat="44.88858" lon="6.08499">
        <ele>1990.2</ele>
        <time>2024-08-14T06:34:51Z</time>
      </trkpt>
      <trkpt lat="44.88858" lon="6.08496">
        <ele>1990.4</ele>
        <time>2024-08-14T06:34:52Z</time>
      </trkpt>
      <trkpt lat="44.88858" lon="6.08496">
        <ele>1990.6</ele>
        <time>2024-08-14T06:34:53Z</time>
      </trkpt>
      <trkpt lat="44.88858" lon="6.08496">
        <ele>1990.6</ele>
        <time>2024-08-14T06:34:54Z</time>
      </trkpt>
      <trkpt lat="44.88858" lon="6.08496">
        <ele>1991</ele>
        <time>2024-08-14T06:34:55Z</time>
      </trkpt>
      <trkpt lat="44.88858" lon="6.08496">
        <ele>1991.2</ele>
        <time>2024-08-14T06:34:56Z</time>
      </trkpt>
      <trkpt lat="44.88858" lon="6.08493">
        <ele>1991.4</ele>
        <time>2024-08-14T06:34:57Z</time>
      </trkpt>
      <trkpt lat="44.88858" lon="6.08493">
        <ele>1991.4</ele>
        <time>2024-08-14T06:34:58Z</time>
      </trkpt>
      <trkpt lat="44.88858" lon="6.08493">
        <ele>1991.6</ele>
        <time>2024-08-14T06:34:59Z</time>
      </trkpt>
      <trkpt lat="44.88858" lon="6.08493">
        <ele>1992.2</ele>
        <time>2024-08-14T06:35:00Z</time>
      </trkpt>
      <trkpt lat="44.88858" lon="6.08493">
        <ele>1992.6</ele>
        <time>2024-08-14T06:35:01Z</time>
      </trkpt>
      <trkpt lat="44.88857" lon="6.0849">
        <ele>1992.6</ele>
        <time>2024-08-14T06:35:02Z</time>
      </trkpt>
      <trkpt lat="44.88857" lon="6.0849">
        <ele>1992.6</ele>
        <time>2024-08-14T06:35:03Z</time>
      </trkpt>
      <trkpt lat="44.88857" lon="6.0849">
        <ele>1992.8</ele>
        <time>2024-08-14T06:35:04Z</time>
      </trkpt>
      <trkpt lat="44.88857" lon="6.0849">
        <ele>1993.2</ele>
        <time>2024-08-14T06:35:05Z</time>
      </trkpt>
      <trkpt lat="44.88857" lon="6.08486">
        <ele>1993.2</ele>
        <time>2024-08-14T06:35:06Z</time>
      </trkpt>
      <trkpt lat="44.88857" lon="6.08486">
        <ele>1993.4</ele>
        <time>2024-08-14T06:35:07Z</time>
      </trkpt>
      <trkpt lat="44.88857" lon="6.08486">
        <ele>1993.4</ele>
        <time>2024-08-14T06:35:08Z</time>
      </trkpt>
      <trkpt lat="44.88857" lon="6.08483">
        <ele>1993.8</ele>
        <time>2024-08-14T06:35:09Z</time>
      </trkpt>
      <trkpt lat="44.88857" lon="6.08483">
        <ele>1993.8</ele>
        <time>2024-08-14T06:35:10Z</time>
      </trkpt>
      <trkpt lat="44.88857" lon="6.08483">
        <ele>1994</ele>
        <time>2024-08-14T06:35:11Z</time>
      </trkpt>
      <trkpt lat="44.88857" lon="6.0848">
        <ele>1994</ele>
        <time>2024-08-14T06:35:12Z</time>
      </trkpt>
      <trkpt lat="44.88857" lon="6.0848">
        <ele>1994.2</ele>
        <time>2024-08-14T06:35:13Z</time>
      </trkpt>
      <trkpt lat="44.88857" lon="6.0848">
        <ele>1994.2</ele>
        <time>2024-08-14T06:35:14Z</time>
      </trkpt>
      <trkpt lat="44.88856" lon="6.08477">
        <ele>1994.4</ele>
        <time>2024-08-14T06:35:15Z</time>
      </trkpt>
      <trkpt lat="44.88856" lon="6.08477">
        <ele>1994.6</ele>
        <time>2024-08-14T06:35:16Z</time>
      </trkpt>
      <trkpt lat="44.88856" lon="6.08477">
        <ele>1995</ele>
        <time>2024-08-14T06:35:17Z</time>
      </trkpt>
      <trkpt lat="44.88856" lon="6.08474">
        <ele>1995.2</ele>
        <time>2024-08-14T06:35:18Z</time>
      </trkpt>
      <trkpt lat="44.88856" lon="6.08474">
        <ele>1995.4</ele>
        <time>2024-08-14T06:35:19Z</time>
      </trkpt>
      <trkpt lat="44.88856" lon="6.08474">
        <ele>1995.4</ele>
        <time>2024-08-14T06:35:20Z</time>
      </trkpt>
      <trkpt lat="44.88855" lon="6.08471">
        <ele>1995.4</ele>
        <time>2024-08-14T06:35:21Z</time>
      </trkpt>
      <trkpt lat="44.88855" lon="6.08471">
        <ele>1996</ele>
        <time>2024-08-14T06:35:22Z</time>
      </trkpt>
      <trkpt lat="44.88855" lon="6.08471">
        <ele>1996.2</ele>
        <time>2024-08-14T06:35:23Z</time>
      </trkpt>
      <trkpt lat="44.88855" lon="6.08468">
        <ele>1996.4</ele>
        <time>2024-08-14T06:35:24Z</time>
      </trkpt>
      <trkpt lat="44.88855" lon="6.08468">
        <ele>1996.6</ele>
        <time>2024-08-14T06:35:25Z</time>
      </trkpt>
      <trkpt lat="44.88855" lon="6.08468">
        <ele>1996.8</ele>
        <time>2024-08-14T06:35:26Z</time>
      </trkpt>
      <trkpt lat="44.88854" lon="6.08466">
        <ele>1997</ele>
        <time>2024-08-14T06:35:27Z</time>
      </trkpt>
      <trkpt lat="44.88854" lon="6.08466">
        <ele>1997</ele>
        <time>2024-08-14T06:35:28Z</time>
      </trkpt>
      <trkpt lat="44.88854" lon="6.08466">
        <ele>1997.2</ele>
        <time>2024-08-14T06:35:29Z</time>
      </trkpt>
      <trkpt lat="44.88853" lon="6.08463">
        <ele>1997.4</ele>
        <time>2024-08-14T06:35:30Z</time>
      </trkpt>
      <trkpt lat="44.88853" lon="6.08463">
        <ele>1997.6</ele>
        <time>2024-08-14T06:35:31Z</time>
      </trkpt>
      <trkpt lat="44.88853" lon="6.08463">
        <ele>1997.6</ele>
        <time>2024-08-14T06:35:32Z</time>
      </trkpt>
      <trkpt lat="44.88852" lon="6.08461">
        <ele>1997.8</ele>
        <time>2024-08-14T06:35:33Z</time>
      </trkpt>
      <trkpt lat="44.88852" lon="6.08461">
        <ele>1998</ele>
        <time>2024-08-14T06:35:34Z</time>
      </trkpt>
      <trkpt lat="44.88852" lon="6.08461">
        <ele>1998.2</ele>
        <time>2024-08-14T06:35:35Z</time>
      </trkpt>
      <trkpt lat="44.8885" lon="6.08458">
        <ele>1998.2</ele>
        <time>2024-08-14T06:35:36Z</time>
      </trkpt>
      <trkpt lat="44.8885" lon="6.08458">
        <ele>1998.6</ele>
        <time>2024-08-14T06:35:37Z</time>
      </trkpt>
      <trkpt lat="44.8885" lon="6.08458">
        <ele>1998.6</ele>
        <time>2024-08-14T06:35:38Z</time>
      </trkpt>
      <trkpt lat="44.8885" lon="6.08458">
        <ele>1999</ele>
        <time>2024-08-14T06:35:39Z</time>
      </trkpt>
      <trkpt lat="44.8885" lon="6.08455">
        <ele>1999</ele>
        <time>2024-08-14T06:35:40Z</time>
      </trkpt>
      <trkpt lat="44.8885" lon="6.08455">
        <ele>1999.4</ele>
        <time>2024-08-14T06:35:41Z</time>
      </trkpt>
      <trkpt lat="44.8885" lon="6.08455">
        <ele>1999.6</ele>
        <time>2024-08-14T06:35:42Z</time>
      </trkpt>
      <trkpt lat="44.8885" lon="6.08455">
        <ele>1999.6</ele>
        <time>2024-08-14T06:35:43Z</time>
      </trkpt>
      <trkpt lat="44.88849" lon="6.08453">
        <ele>1999.6</ele>
        <time>2024-08-14T06:35:44Z</time>
      </trkpt>
      <trkpt lat="44.88849" lon="6.08453">
        <ele>2000.2</ele>
        <time>2024-08-14T06:35:45Z</time>
      </trkpt>
      <trkpt lat="44.88849" lon="6.08453">
        <ele>2000.4</ele>
        <time>2024-08-14T06:35:46Z</time>
      </trkpt>
      <trkpt lat="44.88849" lon="6.0845">
        <ele>2000.6</ele>
        <time>2024-08-14T06:35:47Z</time>
      </trkpt>
      <trkpt lat="44.88849" lon="6.0845">
        <ele>2000.8</ele>
        <time>2024-08-14T06:35:48Z</time>
      </trkpt>
      <trkpt lat="44.88849" lon="6.0845">
        <ele>2000.8</ele>
        <time>2024-08-14T06:35:49Z</time>
      </trkpt>
      <trkpt lat="44.88849" lon="6.0845">
        <ele>2001</ele>
        <time>2024-08-14T06:35:50Z</time>
      </trkpt>
      <trkpt lat="44.88849" lon="6.0845">
        <ele>2001.4</ele>
        <time>2024-08-14T06:35:51Z</time>
      </trkpt>
      <trkpt lat="44.88849" lon="6.08447">
        <ele>2001.6</ele>
        <time>2024-08-14T06:35:52Z</time>
      </trkpt>
      <trkpt lat="44.88849" lon="6.08447">
        <ele>2001.6</ele>
        <time>2024-08-14T06:35:53Z</time>
      </trkpt>
      <trkpt lat="44.88849" lon="6.08447">
        <ele>2001.8</ele>
        <time>2024-08-14T06:35:54Z</time>
      </trkpt>
      <trkpt lat="44.88849" lon="6.08447">
        <ele>2002.4</ele>
        <time>2024-08-14T06:35:55Z</time>
      </trkpt>
      <trkpt lat="44.88849" lon="6.08444">
        <ele>2002.4</ele>
        <time>2024-08-14T06:35:56Z</time>
      </trkpt>
      <trkpt lat="44.88849" lon="6.08444">
        <ele>2002.6</ele>
        <time>2024-08-14T06:35:57Z</time>
      </trkpt>
      <trkpt lat="44.88849" lon="6.08444">
        <ele>2002.8</ele>
        <time>2024-08-14T06:35:58Z</time>
      </trkpt>
      <trkpt lat="44.88849" lon="6.08444">
        <ele>2003.2</ele>
        <time>2024-08-14T06:35:59Z</time>
      </trkpt>
      <trkpt lat="44.88849" lon="6.08444">
        <ele>2003.4</ele>
        <time>2024-08-14T06:36:00Z</time>
      </trkpt>
      <trkpt lat="44.88849" lon="6.08444">
        <ele>2003.4</ele>
        <time>2024-08-14T06:36:01Z</time>
      </trkpt>
      <trkpt lat="44.88849" lon="6.08444">
        <ele>2004.2</ele>
        <time>2024-08-14T06:36:02Z</time>
      </trkpt>
      <trkpt lat="44.88849" lon="6.08444">
        <ele>2004.2</ele>
        <time>2024-08-14T06:36:03Z</time>
      </trkpt>
      <trkpt lat="44.88849" lon="6.08444">
        <ele>2004.2</ele>
        <time>2024-08-14T06:36:04Z</time>
      </trkpt>
      <trkpt lat="44.88849" lon="6.08444">
        <ele>2004.2</ele>
        <time>2024-08-14T06:36:05Z</time>
      </trkpt>
      <trkpt lat="44.88851" lon="6.08442">
        <ele>2004.4</ele>
        <time>2024-08-14T06:36:06Z</time>
      </trkpt>
      <trkpt lat="44.88851" lon="6.08442">
        <ele>2004.8</ele>
        <time>2024-08-14T06:36:07Z</time>
      </trkpt>
      <trkpt lat="44.88851" lon="6.08442">
        <ele>2005</ele>
        <time>2024-08-14T06:36:08Z</time>
      </trkpt>
      <trkpt lat="44.88851" lon="6.08442">
        <ele>2005.2</ele>
        <time>2024-08-14T06:36:09Z</time>
      </trkpt>
      <trkpt lat="44.88851" lon="6.08442">
        <ele>2005.8</ele>
        <time>2024-08-14T06:36:10Z</time>
      </trkpt>
      <trkpt lat="44.88851" lon="6.08442">
        <ele>2005.8</ele>
        <time>2024-08-14T06:36:11Z</time>
      </trkpt>
      <trkpt lat="44.88851" lon="6.08442">
        <ele>2005.8</ele>
        <time>2024-08-14T06:36:12Z</time>
      </trkpt>
      <trkpt lat="44.88851" lon="6.08442">
        <ele>2006.2</ele>
        <time>2024-08-14T06:36:13Z</time>
      </trkpt>
      <trkpt lat="44.88851" lon="6.08442">
        <ele>2006.2</ele>
        <time>2024-08-14T06:36:14Z</time>
      </trkpt>
      <trkpt lat="44.88851" lon="6.08442">
        <ele>2006.2</ele>
        <time>2024-08-14T06:36:15Z</time>
      </trkpt>
      <trkpt lat="44.88853" lon="6.08442">
        <ele>2006.8</ele>
        <time>2024-08-14T06:36:16Z</time>
      </trkpt>
      <trkpt lat="44.88853" lon="6.08442">
        <ele>2007</ele>
        <time>2024-08-14T06:36:17Z</time>
      </trkpt>
      <trkpt lat="44.88855" lon="6.08442">
        <ele>2007.2</ele>
        <time>2024-08-14T06:36:18Z</time>
      </trkpt>
      <trkpt lat="44.88855" lon="6.08442">
        <ele>2007.4</ele>
        <time>2024-08-14T06:36:19Z</time>
      </trkpt>
      <trkpt lat="44.88855" lon="6.08442">
        <ele>2007.6</ele>
        <time>2024-08-14T06:36:20Z</time>
      </trkpt>
      <trkpt lat="44.88857" lon="6.0844">
        <ele>2007.6</ele>
        <time>2024-08-14T06:36:21Z</time>
      </trkpt>
      <trkpt lat="44.88857" lon="6.0844">
        <ele>2007.6</ele>
        <time>2024-08-14T06:36:22Z</time>
      </trkpt>
      <trkpt lat="44.88857" lon="6.0844">
        <ele>2008</ele>
        <time>2024-08-14T06:36:23Z</time>
      </trkpt>
      <trkpt lat="44.88857" lon="6.0844">
        <ele>2008.4</ele>
        <time>2024-08-14T06:36:24Z</time>
      </trkpt>
      <trkpt lat="44.88857" lon="6.0844">
        <ele>2008.4</ele>
        <time>2024-08-14T06:36:25Z</time>
      </trkpt>
      <trkpt lat="44.88857" lon="6.0844">
        <ele>2008.4</ele>
        <time>2024-08-14T06:36:26Z</time>
      </trkpt>
      <trkpt lat="44.88857" lon="6.0844">
        <ele>2008.8</ele>
        <time>2024-08-14T06:36:27Z</time>
      </trkpt>
      <trkpt lat="44.88857" lon="6.0844">
        <ele>2008.8</ele>
        <time>2024-08-14T06:36:28Z</time>
      </trkpt>
      <trkpt lat="44.88857" lon="6.0844">
        <ele>2008.8</ele>
        <time>2024-08-14T06:36:29Z</time>
      </trkpt>
      <trkpt lat="44.88857" lon="6.0844">
        <ele>2009.2</ele>
        <time>2024-08-14T06:36:30Z</time>
      </trkpt>
      <trkpt lat="44.88857" lon="6.0844">
        <ele>2009.8</ele>
        <time>2024-08-14T06:36:31Z</time>
      </trkpt>
      <trkpt lat="44.88857" lon="6.0844">
        <ele>2009.8</ele>
        <time>2024-08-14T06:36:32Z</time>
      </trkpt>
      <trkpt lat="44.88857" lon="6.0844">
        <ele>2009.8</ele>
        <time>2024-08-14T06:36:33Z</time>
      </trkpt>
      <trkpt lat="44.88857" lon="6.0844">
        <ele>2010.2</ele>
        <time>2024-08-14T06:36:34Z</time>
      </trkpt>
      <trkpt lat="44.88857" lon="6.0844">
        <ele>2010.4</ele>
        <time>2024-08-14T06:36:35Z</time>
      </trkpt>
      <trkpt lat="44.88857" lon="6.0844">
        <ele>2010.6</ele>
        <time>2024-08-14T06:36:36Z</time>
      </trkpt>
      <trkpt lat="44.88856" lon="6.08438">
        <ele>2010.8</ele>
        <time>2024-08-14T06:36:37Z</time>
      </trkpt>
      <trkpt lat="44.88856" lon="6.08438">
        <ele>2011</ele>
        <time>2024-08-14T06:36:38Z</time>
      </trkpt>
      <trkpt lat="44.88855" lon="6.08434">
        <ele>2011.4</ele>
        <time>2024-08-14T06:36:39Z</time>
      </trkpt>
      <trkpt lat="44.88855" lon="6.08434">
        <ele>2011.4</ele>
        <time>2024-08-14T06:36:40Z</time>
      </trkpt>
      <trkpt lat="44.88854" lon="6.0843">
        <ele>2011.8</ele>
        <time>2024-08-14T06:36:41Z</time>
      </trkpt>
      <trkpt lat="44.88854" lon="6.0843">
        <ele>2011.8</ele>
        <time>2024-08-14T06:36:42Z</time>
      </trkpt>
      <trkpt lat="44.88853" lon="6.08427">
        <ele>2012</ele>
        <time>2024-08-14T06:36:43Z</time>
      </trkpt>
      <trkpt lat="44.88853" lon="6.08427">
        <ele>2012.4</ele>
        <time>2024-08-14T06:36:44Z</time>
      </trkpt>
      <trkpt lat="44.88852" lon="6.08425">
        <ele>2012.4</ele>
        <time>2024-08-14T06:36:45Z</time>
      </trkpt>
      <trkpt lat="44.88852" lon="6.08425">
        <ele>2012.4</ele>
        <time>2024-08-14T06:36:46Z</time>
      </trkpt>
      <trkpt lat="44.88852" lon="6.08425">
        <ele>2012.4</ele>
        <time>2024-08-14T06:36:47Z</time>
      </trkpt>
      <trkpt lat="44.88852" lon="6.08425">
        <ele>2012.8</ele>
        <time>2024-08-14T06:36:48Z</time>
      </trkpt>
      <trkpt lat="44.88852" lon="6.08425">
        <ele>2012.8</ele>
        <time>2024-08-14T06:36:49Z</time>
      </trkpt>
      <trkpt lat="44.88852" lon="6.08425">
        <ele>2013.2</ele>
        <time>2024-08-14T06:36:50Z</time>
      </trkpt>
      <trkpt lat="44.88852" lon="6.08425">
        <ele>2013.4</ele>
        <time>2024-08-14T06:36:51Z</time>
      </trkpt>
      <trkpt lat="44.88851" lon="6.08423">
        <ele>2013.4</ele>
        <time>2024-08-14T06:36:52Z</time>
      </trkpt>
      <trkpt lat="44.88851" lon="6.08423">
        <ele>2014.2</ele>
        <time>2024-08-14T06:36:53Z</time>
      </trkpt>
      <trkpt lat="44.8885" lon="6.08421">
        <ele>2014.2</ele>
        <time>2024-08-14T06:36:54Z</time>
      </trkpt>
      <trkpt lat="44.8885" lon="6.08421">
        <ele>2014.2</ele>
        <time>2024-08-14T06:36:55Z</time>
      </trkpt>
      <trkpt lat="44.88848" lon="6.08418">
        <ele>2014.6</ele>
        <time>2024-08-14T06:36:56Z</time>
      </trkpt>
      <trkpt lat="44.88848" lon="6.08418">
        <ele>2014.8</ele>
        <time>2024-08-14T06:36:57Z</time>
      </trkpt>
      <trkpt lat="44.88848" lon="6.08418">
        <ele>2014.8</ele>
        <time>2024-08-14T06:36:58Z</time>
      </trkpt>
      <trkpt lat="44.88846" lon="6.08417">
        <ele>2015.4</ele>
        <time>2024-08-14T06:36:59Z</time>
      </trkpt>
      <trkpt lat="44.88846" lon="6.08417">
        <ele>2015.4</ele>
        <time>2024-08-14T06:37:00Z</time>
      </trkpt>
      <trkpt lat="44.88846" lon="6.08417">
        <ele>2015.4</ele>
        <time>2024-08-14T06:37:01Z</time>
      </trkpt>
      <trkpt lat="44.88844" lon="6.08415">
        <ele>2015.8</ele>
        <time>2024-08-14T06:37:02Z</time>
      </trkpt>
      <trkpt lat="44.88844" lon="6.08415">
        <ele>2015.8</ele>
        <time>2024-08-14T06:37:03Z</time>
      </trkpt>
      <trkpt lat="44.88842" lon="6.08414">
        <ele>2016</ele>
        <time>2024-08-14T06:37:04Z</time>
      </trkpt>
      <trkpt lat="44.88842" lon="6.08414">
        <ele>2016.2</ele>
        <time>2024-08-14T06:37:05Z</time>
      </trkpt>
      <trkpt lat="44.88842" lon="6.08414">
        <ele>2016.4</ele>
        <time>2024-08-14T06:37:06Z</time>
      </trkpt>
      <trkpt lat="44.8884" lon="6.08412">
        <ele>2016.8</ele>
        <time>2024-08-14T06:37:07Z</time>
      </trkpt>
      <trkpt lat="44.8884" lon="6.08412">
        <ele>2016.8</ele>
        <time>2024-08-14T06:37:08Z</time>
      </trkpt>
      <trkpt lat="44.8884" lon="6.08412">
        <ele>2017.2</ele>
        <time>2024-08-14T06:37:09Z</time>
      </trkpt>
      <trkpt lat="44.88838" lon="6.08408">
        <ele>2017.4</ele>
        <time>2024-08-14T06:37:10Z</time>
      </trkpt>
      <trkpt lat="44.88838" lon="6.08408">
        <ele>2017.4</ele>
        <time>2024-08-14T06:37:11Z</time>
      </trkpt>
      <trkpt lat="44.88838" lon="6.08408">
        <ele>2017.4</ele>
        <time>2024-08-14T06:37:12Z</time>
      </trkpt>
      <trkpt lat="44.88838" lon="6.08405">
        <ele>2017.4</ele>
        <time>2024-08-14T06:37:13Z</time>
      </trkpt>
      <trkpt lat="44.88838" lon="6.08405">
        <ele>2017.6</ele>
        <time>2024-08-14T06:37:14Z</time>
      </trkpt>
      <trkpt lat="44.88838" lon="6.08405">
        <ele>2017.8</ele>
        <time>2024-08-14T06:37:15Z</time>
      </trkpt>
      <trkpt lat="44.88837" lon="6.08402">
        <ele>2018.2</ele>
        <time>2024-08-14T06:37:16Z</time>
      </trkpt>
      <trkpt lat="44.88837" lon="6.08402">
        <ele>2018.6</ele>
        <time>2024-08-14T06:37:17Z</time>
      </trkpt>
      <trkpt lat="44.88837" lon="6.08402">
        <ele>2018.6</ele>
        <time>2024-08-14T06:37:18Z</time>
      </trkpt>
      <trkpt lat="44.88839" lon="6.08399">
        <ele>2018.6</ele>
        <time>2024-08-14T06:37:19Z</time>
      </trkpt>
      <trkpt lat="44.88839" lon="6.08399">
        <ele>2019</ele>
        <time>2024-08-14T06:37:20Z</time>
      </trkpt>
      <trkpt lat="44.88839" lon="6.08399">
        <ele>2019.6</ele>
        <time>2024-08-14T06:37:21Z</time>
      </trkpt>
      <trkpt lat="44.88839" lon="6.08399">
        <ele>2019.6</ele>
        <time>2024-08-14T06:37:22Z</time>
      </trkpt>
      <trkpt lat="44.88839" lon="6.08399">
        <ele>2020</ele>
        <time>2024-08-14T06:37:23Z</time>
      </trkpt>
      <trkpt lat="44.88841" lon="6.08398">
        <ele>2020</ele>
        <time>2024-08-14T06:37:24Z</time>
      </trkpt>
      <trkpt lat="44.88841" lon="6.08398">
        <ele>2020.2</ele>
        <time>2024-08-14T06:37:25Z</time>
      </trkpt>
      <trkpt lat="44.88841" lon="6.08398">
        <ele>2020.2</ele>
        <time>2024-08-14T06:37:26Z</time>
      </trkpt>
      <trkpt lat="44.88843" lon="6.08399">
        <ele>2020.8</ele>
        <time>2024-08-14T06:37:27Z</time>
      </trkpt>
      <trkpt lat="44.88843" lon="6.08399">
        <ele>2021</ele>
        <time>2024-08-14T06:37:28Z</time>
      </trkpt>
      <trkpt lat="44.88843" lon="6.08399">
        <ele>2021.2</ele>
        <time>2024-08-14T06:37:29Z</time>
      </trkpt>
      <trkpt lat="44.88843" lon="6.08399">
        <ele>2021.8</ele>
        <time>2024-08-14T06:37:30Z</time>
      </trkpt>
      <trkpt lat="44.88843" lon="6.08399">
        <ele>2022.2</ele>
        <time>2024-08-14T06:37:31Z</time>
      </trkpt>
      <trkpt lat="44.88843" lon="6.08399">
        <ele>2022.2</ele>
        <time>2024-08-14T06:37:32Z</time>
      </trkpt>
      <trkpt lat="44.88843" lon="6.08399">
        <ele>2022.2</ele>
        <time>2024-08-14T06:37:33Z</time>
      </trkpt>
      <trkpt lat="44.88843" lon="6.08399">
        <ele>2022.6</ele>
        <time>2024-08-14T06:37:34Z</time>
      </trkpt>
      <trkpt lat="44.88845" lon="6.084">
        <ele>2022.8</ele>
        <time>2024-08-14T06:37:35Z</time>
      </trkpt>
      <trkpt lat="44.88845" lon="6.084">
        <ele>2023</ele>
        <time>2024-08-14T06:37:36Z</time>
      </trkpt>
      <trkpt lat="44.88847" lon="6.08401">
        <ele>2023</ele>
        <time>2024-08-14T06:37:37Z</time>
      </trkpt>
      <trkpt lat="44.88847" lon="6.08401">
        <ele>2023.2</ele>
        <time>2024-08-14T06:37:38Z</time>
      </trkpt>
      <trkpt lat="44.8885" lon="6.08402">
        <ele>2023.2</ele>
        <time>2024-08-14T06:37:39Z</time>
      </trkpt>
      <trkpt lat="44.8885" lon="6.08402">
        <ele>2023.4</ele>
        <time>2024-08-14T06:37:40Z</time>
      </trkpt>
      <trkpt lat="44.88852" lon="6.08401">
        <ele>2023.6</ele>
        <time>2024-08-14T06:37:41Z</time>
      </trkpt>
      <trkpt lat="44.88852" lon="6.08401">
        <ele>2023.6</ele>
        <time>2024-08-14T06:37:42Z</time>
      </trkpt>
      <trkpt lat="44.88852" lon="6.08401">
        <ele>2024</ele>
        <time>2024-08-14T06:37:43Z</time>
      </trkpt>
      <trkpt lat="44.88852" lon="6.08401">
        <ele>2024.2</ele>
        <time>2024-08-14T06:37:44Z</time>
      </trkpt>
      <trkpt lat="44.88852" lon="6.08401">
        <ele>2024.2</ele>
        <time>2024-08-14T06:37:45Z</time>
      </trkpt>
      <trkpt lat="44.88852" lon="6.08401">
        <ele>2024.2</ele>
        <time>2024-08-14T06:37:46Z</time>
      </trkpt>
      <trkpt lat="44.88852" lon="6.08401">
        <ele>2024.8</ele>
        <time>2024-08-14T06:37:47Z</time>
      </trkpt>
      <trkpt lat="44.88851" lon="6.08398">
        <ele>2024.8</ele>
        <time>2024-08-14T06:37:48Z</time>
      </trkpt>
      <trkpt lat="44.88851" lon="6.08398">
        <ele>2025</ele>
        <time>2024-08-14T06:37:49Z</time>
      </trkpt>
      <trkpt lat="44.88851" lon="6.08398">
        <ele>2025.2</ele>
        <time>2024-08-14T06:37:50Z</time>
      </trkpt>
      <trkpt lat="44.88851" lon="6.08398">
        <ele>2025.8</ele>
        <time>2024-08-14T06:37:51Z</time>
      </trkpt>
      <trkpt lat="44.88851" lon="6.08398">
        <ele>2025.8</ele>
        <time>2024-08-14T06:37:52Z</time>
      </trkpt>
      <trkpt lat="44.88851" lon="6.08398">
        <ele>2025.8</ele>
        <time>2024-08-14T06:37:53Z</time>
      </trkpt>
      <trkpt lat="44.88851" lon="6.08398">
        <ele>2026.2</ele>
        <time>2024-08-14T06:37:54Z</time>
      </trkpt>
      <trkpt lat="44.88851" lon="6.08398">
        <ele>2026.2</ele>
        <time>2024-08-14T06:37:55Z</time>
      </trkpt>
      <trkpt lat="44.88851" lon="6.08398">
        <ele>2026.2</ele>
        <time>2024-08-14T06:37:56Z</time>
      </trkpt>
      <trkpt lat="44.88851" lon="6.08398">
        <ele>2026.4</ele>
        <time>2024-08-14T06:37:57Z</time>
      </trkpt>
      <trkpt lat="44.88851" lon="6.08398">
        <ele>2026.6</ele>
        <time>2024-08-14T06:37:58Z</time>
      </trkpt>
      <trkpt lat="44.88851" lon="6.08395">
        <ele>2027</ele>
        <time>2024-08-14T06:37:59Z</time>
      </trkpt>
      <trkpt lat="44.88851" lon="6.08395">
        <ele>2027.2</ele>
        <time>2024-08-14T06:38:00Z</time>
      </trkpt>
      <trkpt lat="44.8885" lon="6.08392">
        <ele>2027.4</ele>
        <time>2024-08-14T06:38:01Z</time>
      </trkpt>
      <trkpt lat="44.8885" lon="6.08392">
        <ele>2027.6</ele>
        <time>2024-08-14T06:38:02Z</time>
      </trkpt>
      <trkpt lat="44.8885" lon="6.08392">
        <ele>2027.6</ele>
        <time>2024-08-14T06:38:03Z</time>
      </trkpt>
      <trkpt lat="44.8885" lon="6.08389">
        <ele>2028</ele>
        <time>2024-08-14T06:38:04Z</time>
      </trkpt>
      <trkpt lat="44.8885" lon="6.08389">
        <ele>2028.2</ele>
        <time>2024-08-14T06:38:05Z</time>
      </trkpt>
      <trkpt lat="44.8885" lon="6.08389">
        <ele>2028.4</ele>
        <time>2024-08-14T06:38:06Z</time>
      </trkpt>
      <trkpt lat="44.8885" lon="6.08386">
        <ele>2028.6</ele>
        <time>2024-08-14T06:38:07Z</time>
      </trkpt>
      <trkpt lat="44.8885" lon="6.08386">
        <ele>2028.8</ele>
        <time>2024-08-14T06:38:08Z</time>
      </trkpt>
      <trkpt lat="44.8885" lon="6.08386">
        <ele>2028.8</ele>
        <time>2024-08-14T06:38:09Z</time>
      </trkpt>
      <trkpt lat="44.8885" lon="6.08383">
        <ele>2029.2</ele>
        <time>2024-08-14T06:38:10Z</time>
      </trkpt>
      <trkpt lat="44.8885" lon="6.08383">
        <ele>2029.2</ele>
        <time>2024-08-14T06:38:11Z</time>
      </trkpt>
      <trkpt lat="44.8885" lon="6.08383">
        <ele>2029.4</ele>
        <time>2024-08-14T06:38:12Z</time>
      </trkpt>
      <trkpt lat="44.88849" lon="6.0838">
        <ele>2029.6</ele>
        <time>2024-08-14T06:38:13Z</time>
      </trkpt>
      <trkpt lat="44.88849" lon="6.0838">
        <ele>2029.8</ele>
        <time>2024-08-14T06:38:14Z</time>
      </trkpt>
      <trkpt lat="44.88849" lon="6.0838">
        <ele>2029.8</ele>
        <time>2024-08-14T06:38:15Z</time>
      </trkpt>
      <trkpt lat="44.88849" lon="6.0838">
        <ele>2030.2</ele>
        <time>2024-08-14T06:38:16Z</time>
      </trkpt>
      <trkpt lat="44.88849" lon="6.08377">
        <ele>2030.4</ele>
        <time>2024-08-14T06:38:17Z</time>
      </trkpt>
      <trkpt lat="44.88849" lon="6.08377">
        <ele>2030.6</ele>
        <time>2024-08-14T06:38:18Z</time>
      </trkpt>
      <trkpt lat="44.88849" lon="6.08377">
        <ele>2031</ele>
        <time>2024-08-14T06:38:19Z</time>
      </trkpt>
      <trkpt lat="44.8885" lon="6.08375">
        <ele>2031.6</ele>
        <time>2024-08-14T06:38:20Z</time>
      </trkpt>
      <trkpt lat="44.8885" lon="6.08375">
        <ele>2031.8</ele>
        <time>2024-08-14T06:38:21Z</time>
      </trkpt>
      <trkpt lat="44.8885" lon="6.08375">
        <ele>2031.8</ele>
        <time>2024-08-14T06:38:22Z</time>
      </trkpt>
      <trkpt lat="44.8885" lon="6.08372">
        <ele>2031.8</ele>
        <time>2024-08-14T06:38:23Z</time>
      </trkpt>
      <trkpt lat="44.8885" lon="6.08372">
        <ele>2031.8</ele>
        <time>2024-08-14T06:38:24Z</time>
      </trkpt>
      <trkpt lat="44.8885" lon="6.08372">
        <ele>2032.2</ele>
        <time>2024-08-14T06:38:25Z</time>
      </trkpt>
      <trkpt lat="44.8885" lon="6.08372">
        <ele>2032.4</ele>
        <time>2024-08-14T06:38:26Z</time>
      </trkpt>
      <trkpt lat="44.8885" lon="6.08369">
        <ele>2032.6</ele>
        <time>2024-08-14T06:38:27Z</time>
      </trkpt>
      <trkpt lat="44.8885" lon="6.08369">
        <ele>2032.6</ele>
        <time>2024-08-14T06:38:28Z</time>
      </trkpt>
      <trkpt lat="44.8885" lon="6.08369">
        <ele>2032.6</ele>
        <time>2024-08-14T06:38:29Z</time>
      </trkpt>
      <trkpt lat="44.88851" lon="6.08366">
        <ele>2033</ele>
        <time>2024-08-14T06:38:30Z</time>
      </trkpt>
      <trkpt lat="44.88851" lon="6.08366">
        <ele>2033.6</ele>
        <time>2024-08-14T06:38:31Z</time>
      </trkpt>
      <trkpt lat="44.88851" lon="6.08364">
        <ele>2033.6</ele>
        <time>2024-08-14T06:38:32Z</time>
      </trkpt>
      <trkpt lat="44.88851" lon="6.08364">
        <ele>2033.8</ele>
        <time>2024-08-14T06:38:33Z</time>
      </trkpt>
      <trkpt lat="44.88851" lon="6.08364">
        <ele>2033.8</ele>
        <time>2024-08-14T06:38:34Z</time>
      </trkpt>
      <trkpt lat="44.88851" lon="6.08364">
        <ele>2034</ele>
        <time>2024-08-14T06:38:35Z</time>
      </trkpt>
      <trkpt lat="44.88851" lon="6.08361">
        <ele>2034.2</ele>
        <time>2024-08-14T06:38:36Z</time>
      </trkpt>
      <trkpt lat="44.88851" lon="6.08361">
        <ele>2034.4</ele>
        <time>2024-08-14T06:38:37Z</time>
      </trkpt>
      <trkpt lat="44.88851" lon="6.08361">
        <ele>2035</ele>
        <time>2024-08-14T06:38:38Z</time>
      </trkpt>
      <trkpt lat="44.88851" lon="6.08361">
        <ele>2035</ele>
        <time>2024-08-14T06:38:39Z</time>
      </trkpt>
      <trkpt lat="44.8885" lon="6.08358">
        <ele>2035</ele>
        <time>2024-08-14T06:38:40Z</time>
      </trkpt>
      <trkpt lat="44.8885" lon="6.08358">
        <ele>2035.2</ele>
        <time>2024-08-14T06:38:41Z</time>
      </trkpt>
      <trkpt lat="44.8885" lon="6.08358">
        <ele>2035.6</ele>
        <time>2024-08-14T06:38:42Z</time>
      </trkpt>
      <trkpt lat="44.88851" lon="6.08356">
        <ele>2035.8</ele>
        <time>2024-08-14T06:38:43Z</time>
      </trkpt>
      <trkpt lat="44.88851" lon="6.08356">
        <ele>2036.2</ele>
        <time>2024-08-14T06:38:44Z</time>
      </trkpt>
      <trkpt lat="44.88851" lon="6.08356">
        <ele>2036.4</ele>
        <time>2024-08-14T06:38:45Z</time>
      </trkpt>
      <trkpt lat="44.88851" lon="6.08356">
        <ele>2036.6</ele>
        <time>2024-08-14T06:38:46Z</time>
      </trkpt>
      <trkpt lat="44.88851" lon="6.08356">
        <ele>2037</ele>
        <time>2024-08-14T06:38:47Z</time>
      </trkpt>
      <trkpt lat="44.88851" lon="6.08353">
        <ele>2037</ele>
        <time>2024-08-14T06:38:48Z</time>
      </trkpt>
      <trkpt lat="44.88851" lon="6.08353">
        <ele>2037</ele>
        <time>2024-08-14T06:38:49Z</time>
      </trkpt>
      <trkpt lat="44.88851" lon="6.08353">
        <ele>2037</ele>
        <time>2024-08-14T06:38:50Z</time>
      </trkpt>
      <trkpt lat="44.88851" lon="6.08353">
        <ele>2037.4</ele>
        <time>2024-08-14T06:38:51Z</time>
      </trkpt>
      <trkpt lat="44.88851" lon="6.08353">
        <ele>2037.8</ele>
        <time>2024-08-14T06:38:52Z</time>
      </trkpt>
      <trkpt lat="44.88851" lon="6.08353">
        <ele>2037.8</ele>
        <time>2024-08-14T06:38:53Z</time>
      </trkpt>
      <trkpt lat="44.88851" lon="6.08353">
        <ele>2038</ele>
        <time>2024-08-14T06:38:54Z</time>
      </trkpt>
      <trkpt lat="44.88851" lon="6.08353">
        <ele>2038.4</ele>
        <time>2024-08-14T06:38:55Z</time>
      </trkpt>
      <trkpt lat="44.88851" lon="6.08353">
        <ele>2038.8</ele>
        <time>2024-08-14T06:38:56Z</time>
      </trkpt>
      <trkpt lat="44.88851" lon="6.08353">
        <ele>2038.8</ele>
        <time>2024-08-14T06:38:57Z</time>
      </trkpt>
      <trkpt lat="44.88851" lon="6.08353">
        <ele>2039</ele>
        <time>2024-08-14T06:38:58Z</time>
      </trkpt>
      <trkpt lat="44.88851" lon="6.0835">
        <ele>2039</ele>
        <time>2024-08-14T06:38:59Z</time>
      </trkpt>
      <trkpt lat="44.88851" lon="6.0835">
        <ele>2039.6</ele>
        <time>2024-08-14T06:39:00Z</time>
      </trkpt>
      <trkpt lat="44.88851" lon="6.08348">
        <ele>2039.6</ele>
        <time>2024-08-14T06:39:01Z</time>
      </trkpt>
      <trkpt lat="44.88851" lon="6.08348">
        <ele>2040.2</ele>
        <time>2024-08-14T06:39:02Z</time>
      </trkpt>
      <trkpt lat="44.88851" lon="6.08345">
        <ele>2040.2</ele>
        <time>2024-08-14T06:39:03Z</time>
      </trkpt>
      <trkpt lat="44.88851" lon="6.08345">
        <ele>2040.2</ele>
        <time>2024-08-14T06:39:04Z</time>
      </trkpt>
      <trkpt lat="44.88851" lon="6.08345">
        <ele>2040.4</ele>
        <time>2024-08-14T06:39:05Z</time>
      </trkpt>
      <trkpt lat="44.88851" lon="6.08342">
        <ele>2040.4</ele>
        <time>2024-08-14T06:39:06Z</time>
      </trkpt>
      <trkpt lat="44.88851" lon="6.08342">
        <ele>2041</ele>
        <time>2024-08-14T06:39:07Z</time>
      </trkpt>
      <trkpt lat="44.88851" lon="6.08342">
        <ele>2041.2</ele>
        <time>2024-08-14T06:39:08Z</time>
      </trkpt>
      <trkpt lat="44.88851" lon="6.0834">
        <ele>2041.4</ele>
        <time>2024-08-14T06:39:09Z</time>
      </trkpt>
      <trkpt lat="44.88851" lon="6.0834">
        <ele>2041.6</ele>
        <time>2024-08-14T06:39:10Z</time>
      </trkpt>
      <trkpt lat="44.88851" lon="6.0834">
        <ele>2041.6</ele>
        <time>2024-08-14T06:39:11Z</time>
      </trkpt>
      <trkpt lat="44.88851" lon="6.08337">
        <ele>2041.8</ele>
        <time>2024-08-14T06:39:12Z</time>
      </trkpt>
      <trkpt lat="44.88851" lon="6.08337">
        <ele>2041.8</ele>
        <time>2024-08-14T06:39:13Z</time>
      </trkpt>
      <trkpt lat="44.88851" lon="6.08337">
        <ele>2041.8</ele>
        <time>2024-08-14T06:39:14Z</time>
      </trkpt>
      <trkpt lat="44.88851" lon="6.08333">
        <ele>2042</ele>
        <time>2024-08-14T06:39:15Z</time>
      </trkpt>
      <trkpt lat="44.88851" lon="6.08333">
        <ele>2042</ele>
        <time>2024-08-14T06:39:16Z</time>
      </trkpt>
      <trkpt lat="44.88851" lon="6.08333">
        <ele>2042</ele>
        <time>2024-08-14T06:39:17Z</time>
      </trkpt>
      <trkpt lat="44.88852" lon="6.0833">
        <ele>2042.2</ele>
        <time>2024-08-14T06:39:18Z</time>
      </trkpt>
      <trkpt lat="44.88852" lon="6.0833">
        <ele>2042.4</ele>
        <time>2024-08-14T06:39:19Z</time>
      </trkpt>
      <trkpt lat="44.88852" lon="6.0833">
        <ele>2042.6</ele>
        <time>2024-08-14T06:39:20Z</time>
      </trkpt>
      <trkpt lat="44.88853" lon="6.08328">
        <ele>2042.8</ele>
        <time>2024-08-14T06:39:21Z</time>
      </trkpt>
      <trkpt lat="44.88853" lon="6.08328">
        <ele>2043</ele>
        <time>2024-08-14T06:39:22Z</time>
      </trkpt>
      <trkpt lat="44.88853" lon="6.08328">
        <ele>2043.2</ele>
        <time>2024-08-14T06:39:23Z</time>
      </trkpt>
      <trkpt lat="44.88853" lon="6.08328">
        <ele>2043.4</ele>
        <time>2024-08-14T06:39:24Z</time>
      </trkpt>
      <trkpt lat="44.88853" lon="6.08328">
        <ele>2043.8</ele>
        <time>2024-08-14T06:39:25Z</time>
      </trkpt>
      <trkpt lat="44.88854" lon="6.08325">
        <ele>2044.2</ele>
        <time>2024-08-14T06:39:26Z</time>
      </trkpt>
      <trkpt lat="44.88854" lon="6.08325">
        <ele>2044.2</ele>
        <time>2024-08-14T06:39:27Z</time>
      </trkpt>
      <trkpt lat="44.88854" lon="6.08325">
        <ele>2044.6</ele>
        <time>2024-08-14T06:39:28Z</time>
      </trkpt>
      <trkpt lat="44.88854" lon="6.08325">
        <ele>2044.8</ele>
        <time>2024-08-14T06:39:29Z</time>
      </trkpt>
      <trkpt lat="44.88855" lon="6.08322">
        <ele>2044.8</ele>
        <time>2024-08-14T06:39:30Z</time>
      </trkpt>
      <trkpt lat="44.88855" lon="6.08322">
        <ele>2045.2</ele>
        <time>2024-08-14T06:39:31Z</time>
      </trkpt>
      <trkpt lat="44.88855" lon="6.08322">
        <ele>2045.2</ele>
        <time>2024-08-14T06:39:32Z</time>
      </trkpt>
      <trkpt lat="44.88855" lon="6.08322">
        <ele>2045.2</ele>
        <time>2024-08-14T06:39:33Z</time>
      </trkpt>
      <trkpt lat="44.88854" lon="6.0832">
        <ele>2045.2</ele>
        <time>2024-08-14T06:39:34Z</time>
      </trkpt>
      <trkpt lat="44.88854" lon="6.0832">
        <ele>2045.4</ele>
        <time>2024-08-14T06:39:35Z</time>
      </trkpt>
      <trkpt lat="44.88854" lon="6.0832">
        <ele>2045.4</ele>
        <time>2024-08-14T06:39:36Z</time>
      </trkpt>
      <trkpt lat="44.88852" lon="6.08318">
        <ele>2045.4</ele>
        <time>2024-08-14T06:39:37Z</time>
      </trkpt>
      <trkpt lat="44.88852" lon="6.08318">
        <ele>2045.8</ele>
        <time>2024-08-14T06:39:38Z</time>
      </trkpt>
      <trkpt lat="44.88852" lon="6.08318">
        <ele>2046</ele>
        <time>2024-08-14T06:39:39Z</time>
      </trkpt>
      <trkpt lat="44.88852" lon="6.08318">
        <ele>2046</ele>
        <time>2024-08-14T06:39:40Z</time>
      </trkpt>
      <trkpt lat="44.8885" lon="6.08316">
        <ele>2046.2</ele>
        <time>2024-08-14T06:39:41Z</time>
      </trkpt>
      <trkpt lat="44.8885" lon="6.08316">
        <ele>2046.6</ele>
        <time>2024-08-14T06:39:42Z</time>
      </trkpt>
      <trkpt lat="44.8885" lon="6.08316">
        <ele>2046.8</ele>
        <time>2024-08-14T06:39:43Z</time>
      </trkpt>
      <trkpt lat="44.88847" lon="6.08314">
        <ele>2047</ele>
        <time>2024-08-14T06:39:44Z</time>
      </trkpt>
      <trkpt lat="44.88847" lon="6.08314">
        <ele>2047</ele>
        <time>2024-08-14T06:39:45Z</time>
      </trkpt>
      <trkpt lat="44.88846" lon="6.08312">
        <ele>2047</ele>
        <time>2024-08-14T06:39:46Z</time>
      </trkpt>
      <trkpt lat="44.88846" lon="6.08312">
        <ele>2047.2</ele>
        <time>2024-08-14T06:39:47Z</time>
      </trkpt>
      <trkpt lat="44.88846" lon="6.08312">
        <ele>2047.6</ele>
        <time>2024-08-14T06:39:48Z</time>
      </trkpt>
      <trkpt lat="44.88847" lon="6.08309">
        <ele>2047.8</ele>
        <time>2024-08-14T06:39:49Z</time>
      </trkpt>
      <trkpt lat="44.88847" lon="6.08309">
        <ele>2048.2</ele>
        <time>2024-08-14T06:39:50Z</time>
      </trkpt>
      <trkpt lat="44.88847" lon="6.08309">
        <ele>2048.2</ele>
        <time>2024-08-14T06:39:51Z</time>
      </trkpt>
      <trkpt lat="44.8885" lon="6.08308">
        <ele>2048.2</ele>
        <time>2024-08-14T06:39:52Z</time>
      </trkpt>
      <trkpt lat="44.8885" lon="6.08308">
        <ele>2048.8</ele>
        <time>2024-08-14T06:39:53Z</time>
      </trkpt>
      <trkpt lat="44.8885" lon="6.08308">
        <ele>2049</ele>
        <time>2024-08-14T06:39:54Z</time>
      </trkpt>
      <trkpt lat="44.88852" lon="6.08308">
        <ele>2049.2</ele>
        <time>2024-08-14T06:39:55Z</time>
      </trkpt>
      <trkpt lat="44.88852" lon="6.08308">
        <ele>2049.6</ele>
        <time>2024-08-14T06:39:56Z</time>
      </trkpt>
      <trkpt lat="44.88853" lon="6.08306">
        <ele>2049.8</ele>
        <time>2024-08-14T06:39:57Z</time>
      </trkpt>
      <trkpt lat="44.88853" lon="6.08306">
        <ele>2050</ele>
        <time>2024-08-14T06:39:58Z</time>
      </trkpt>
      <trkpt lat="44.88853" lon="6.08306">
        <ele>2050.2</ele>
        <time>2024-08-14T06:39:59Z</time>
      </trkpt>
      <trkpt lat="44.88853" lon="6.08306">
        <ele>2050.6</ele>
        <time>2024-08-14T06:40:00Z</time>
      </trkpt>
      <trkpt lat="44.88856" lon="6.08305">
        <ele>2050.6</ele>
        <time>2024-08-14T06:40:01Z</time>
      </trkpt>
      <trkpt lat="44.88856" lon="6.08305">
        <ele>2051.2</ele>
        <time>2024-08-14T06:40:02Z</time>
      </trkpt>
      <trkpt lat="44.88856" lon="6.08305">
        <ele>2051.2</ele>
        <time>2024-08-14T06:40:03Z</time>
      </trkpt>
      <trkpt lat="44.88856" lon="6.08305">
        <ele>2051.2</ele>
        <time>2024-08-14T06:40:04Z</time>
      </trkpt>
      <trkpt lat="44.88857" lon="6.08304">
        <ele>2051.4</ele>
        <time>2024-08-14T06:40:05Z</time>
      </trkpt>
      <trkpt lat="44.88857" lon="6.08304">
        <ele>2051.4</ele>
        <time>2024-08-14T06:40:06Z</time>
      </trkpt>
      <trkpt lat="44.88857" lon="6.08304">
        <ele>2051.8</ele>
        <time>2024-08-14T06:40:07Z</time>
      </trkpt>
      <trkpt lat="44.88859" lon="6.08302">
        <ele>2051.8</ele>
        <time>2024-08-14T06:40:08Z</time>
      </trkpt>
      <trkpt lat="44.88859" lon="6.08302">
        <ele>2052</ele>
        <time>2024-08-14T06:40:09Z</time>
      </trkpt>
      <trkpt lat="44.88859" lon="6.08302">
        <ele>2052.6</ele>
        <time>2024-08-14T06:40:10Z</time>
      </trkpt>
      <trkpt lat="44.88859" lon="6.08302">
        <ele>2052.8</ele>
        <time>2024-08-14T06:40:11Z</time>
      </trkpt>
      <trkpt lat="44.88859" lon="6.08302">
        <ele>2053</ele>
        <time>2024-08-14T06:40:12Z</time>
      </trkpt>
      <trkpt lat="44.88861" lon="6.083">
        <ele>2053.4</ele>
        <time>2024-08-14T06:40:13Z</time>
      </trkpt>
      <trkpt lat="44.88861" lon="6.083">
        <ele>2053.6</ele>
        <time>2024-08-14T06:40:14Z</time>
      </trkpt>
      <trkpt lat="44.88861" lon="6.083">
        <ele>2053.6</ele>
        <time>2024-08-14T06:40:15Z</time>
      </trkpt>
      <trkpt lat="44.88859" lon="6.08299">
        <ele>2053.8</ele>
        <time>2024-08-14T06:40:16Z</time>
      </trkpt>
      <trkpt lat="44.88859" lon="6.08299">
        <ele>2054</ele>
        <time>2024-08-14T06:40:17Z</time>
      </trkpt>
      <trkpt lat="44.88857" lon="6.08297">
        <ele>2054.2</ele>
        <time>2024-08-14T06:40:18Z</time>
      </trkpt>
      <trkpt lat="44.88857" lon="6.08297">
        <ele>2054.4</ele>
        <time>2024-08-14T06:40:19Z</time>
      </trkpt>
      <trkpt lat="44.88855" lon="6.08296">
        <ele>2054.4</ele>
        <time>2024-08-14T06:40:20Z</time>
      </trkpt>
      <trkpt lat="44.88855" lon="6.08296">
        <ele>2054.4</ele>
        <time>2024-08-14T06:40:21Z</time>
      </trkpt>
      <trkpt lat="44.88855" lon="6.08296">
        <ele>2054.6</ele>
        <time>2024-08-14T06:40:22Z</time>
      </trkpt>
      <trkpt lat="44.88855" lon="6.08296">
        <ele>2055</ele>
        <time>2024-08-14T06:40:23Z</time>
      </trkpt>
      <trkpt lat="44.88855" lon="6.08296">
        <ele>2055.2</ele>
        <time>2024-08-14T06:40:24Z</time>
      </trkpt>
      <trkpt lat="44.88854" lon="6.08294">
        <ele>2055.4</ele>
        <time>2024-08-14T06:40:25Z</time>
      </trkpt>
      <trkpt lat="44.88854" lon="6.08294">
        <ele>2055.6</ele>
        <time>2024-08-14T06:40:26Z</time>
      </trkpt>
      <trkpt lat="44.88854" lon="6.08294">
        <ele>2056.2</ele>
        <time>2024-08-14T06:40:27Z</time>
      </trkpt>
      <trkpt lat="44.88854" lon="6.0829">
        <ele>2056.2</ele>
        <time>2024-08-14T06:40:28Z</time>
      </trkpt>
      <trkpt lat="44.88854" lon="6.0829">
        <ele>2056.2</ele>
        <time>2024-08-14T06:40:29Z</time>
      </trkpt>
      <trkpt lat="44.88855" lon="6.08288">
        <ele>2056.6</ele>
        <time>2024-08-14T06:40:30Z</time>
      </trkpt>
      <trkpt lat="44.88855" lon="6.08288">
        <ele>2056.6</ele>
        <time>2024-08-14T06:40:31Z</time>
      </trkpt>
      <trkpt lat="44.88857" lon="6.08288">
        <ele>2056.8</ele>
        <time>2024-08-14T06:40:32Z</time>
      </trkpt>
      <trkpt lat="44.88857" lon="6.08288">
        <ele>2057</ele>
        <time>2024-08-14T06:40:33Z</time>
      </trkpt>
      <trkpt lat="44.88857" lon="6.08288">
        <ele>2057.2</ele>
        <time>2024-08-14T06:40:34Z</time>
      </trkpt>
      <trkpt lat="44.88857" lon="6.08288">
        <ele>2057.4</ele>
        <time>2024-08-14T06:40:35Z</time>
      </trkpt>
      <trkpt lat="44.88859" lon="6.08287">
        <ele>2057.8</ele>
        <time>2024-08-14T06:40:36Z</time>
      </trkpt>
      <trkpt lat="44.88859" lon="6.08287">
        <ele>2058</ele>
        <time>2024-08-14T06:40:37Z</time>
      </trkpt>
      <trkpt lat="44.88859" lon="6.08287">
        <ele>2058</ele>
        <time>2024-08-14T06:40:38Z</time>
      </trkpt>
      <trkpt lat="44.88859" lon="6.08287">
        <ele>2058.2</ele>
        <time>2024-08-14T06:40:39Z</time>
      </trkpt>
      <trkpt lat="44.88859" lon="6.08287">
        <ele>2058.8</ele>
        <time>2024-08-14T06:40:40Z</time>
      </trkpt>
      <trkpt lat="44.88858" lon="6.08285">
        <ele>2058.8</ele>
        <time>2024-08-14T06:40:41Z</time>
      </trkpt>
      <trkpt lat="44.88858" lon="6.08285">
        <ele>2058.8</ele>
        <time>2024-08-14T06:40:42Z</time>
      </trkpt>
      <trkpt lat="44.88858" lon="6.08285">
        <ele>2059.4</ele>
        <time>2024-08-14T06:40:43Z</time>
      </trkpt>
      <trkpt lat="44.88858" lon="6.08285">
        <ele>2059.6</ele>
        <time>2024-08-14T06:40:44Z</time>
      </trkpt>
      <trkpt lat="44.88858" lon="6.08285">
        <ele>2059.8</ele>
        <time>2024-08-14T06:40:45Z</time>
      </trkpt>
      <trkpt lat="44.88858" lon="6.08285">
        <ele>2059.8</ele>
        <time>2024-08-14T06:40:46Z</time>
      </trkpt>
      <trkpt lat="44.88858" lon="6.08285">
        <ele>2060</ele>
        <time>2024-08-14T06:40:47Z</time>
      </trkpt>
      <trkpt lat="44.88858" lon="6.08285">
        <ele>2060</ele>
        <time>2024-08-14T06:40:48Z</time>
      </trkpt>
      <trkpt lat="44.88856" lon="6.08283">
        <ele>2060.2</ele>
        <time>2024-08-14T06:40:49Z</time>
      </trkpt>
      <trkpt lat="44.88856" lon="6.08283">
        <ele>2060.4</ele>
        <time>2024-08-14T06:40:50Z</time>
      </trkpt>
      <trkpt lat="44.88855" lon="6.0828">
        <ele>2060.6</ele>
        <time>2024-08-14T06:40:51Z</time>
      </trkpt>
      <trkpt lat="44.88855" lon="6.0828">
        <ele>2060.6</ele>
        <time>2024-08-14T06:40:52Z</time>
      </trkpt>
      <trkpt lat="44.88854" lon="6.08277">
        <ele>2061</ele>
        <time>2024-08-14T06:40:53Z</time>
      </trkpt>
      <trkpt lat="44.88854" lon="6.08277">
        <ele>2061</ele>
        <time>2024-08-14T06:40:54Z</time>
      </trkpt>
      <trkpt lat="44.88854" lon="6.08277">
        <ele>2061.4</ele>
        <time>2024-08-14T06:40:55Z</time>
      </trkpt>
      <trkpt lat="44.88857" lon="6.08276">
        <ele>2061.6</ele>
        <time>2024-08-14T06:40:56Z</time>
      </trkpt>
      <trkpt lat="44.88857" lon="6.08276">
        <ele>2062</ele>
        <time>2024-08-14T06:40:57Z</time>
      </trkpt>
      <trkpt lat="44.88857" lon="6.08276">
        <ele>2062</ele>
        <time>2024-08-14T06:40:58Z</time>
      </trkpt>
      <trkpt lat="44.88859" lon="6.08275">
        <ele>2062</ele>
        <time>2024-08-14T06:40:59Z</time>
      </trkpt>
      <trkpt lat="44.88859" lon="6.08275">
        <ele>2062.4</ele>
        <time>2024-08-14T06:41:00Z</time>
      </trkpt>
      <trkpt lat="44.88861" lon="6.08274">
        <ele>2062.6</ele>
        <time>2024-08-14T06:41:01Z</time>
      </trkpt>
      <trkpt lat="44.88861" lon="6.08274">
        <ele>2062.6</ele>
        <time>2024-08-14T06:41:02Z</time>
      </trkpt>
      <trkpt lat="44.88861" lon="6.08274">
        <ele>2062.6</ele>
        <time>2024-08-14T06:41:03Z</time>
      </trkpt>
      <trkpt lat="44.88861" lon="6.08274">
        <ele>2063.2</ele>
        <time>2024-08-14T06:41:04Z</time>
      </trkpt>
      <trkpt lat="44.88861" lon="6.08274">
        <ele>2063.4</ele>
        <time>2024-08-14T06:41:05Z</time>
      </trkpt>
      <trkpt lat="44.88861" lon="6.08274">
        <ele>2063.6</ele>
        <time>2024-08-14T06:41:06Z</time>
      </trkpt>
      <trkpt lat="44.88863" lon="6.08273">
        <ele>2064</ele>
        <time>2024-08-14T06:41:07Z</time>
      </trkpt>
      <trkpt lat="44.88863" lon="6.08273">
        <ele>2064.4</ele>
        <time>2024-08-14T06:41:08Z</time>
      </trkpt>
      <trkpt lat="44.88865" lon="6.08272">
        <ele>2064.4</ele>
        <time>2024-08-14T06:41:09Z</time>
      </trkpt>
      <trkpt lat="44.88865" lon="6.08272">
        <ele>2064.8</ele>
        <time>2024-08-14T06:41:10Z</time>
      </trkpt>
      <trkpt lat="44.88865" lon="6.08272">
        <ele>2064.8</ele>
        <time>2024-08-14T06:41:11Z</time>
      </trkpt>
      <trkpt lat="44.88865" lon="6.08272">
        <ele>2065</ele>
        <time>2024-08-14T06:41:12Z</time>
      </trkpt>
      <trkpt lat="44.88865" lon="6.08272">
        <ele>2065</ele>
        <time>2024-08-14T06:41:13Z</time>
      </trkpt>
      <trkpt lat="44.88865" lon="6.08272">
        <ele>2065.4</ele>
        <time>2024-08-14T06:41:14Z</time>
      </trkpt>
      <trkpt lat="44.88863" lon="6.0827">
        <ele>2065.6</ele>
        <time>2024-08-14T06:41:15Z</time>
      </trkpt>
      <trkpt lat="44.88863" lon="6.0827">
        <ele>2065.6</ele>
        <time>2024-08-14T06:41:16Z</time>
      </trkpt>
      <trkpt lat="44.88863" lon="6.0827">
        <ele>2065.8</ele>
        <time>2024-08-14T06:41:17Z</time>
      </trkpt>
      <trkpt lat="44.88863" lon="6.0827">
        <ele>2066</ele>
        <time>2024-08-14T06:41:18Z</time>
      </trkpt>
      <trkpt lat="44.88862" lon="6.08268">
        <ele>2066.2</ele>
        <time>2024-08-14T06:41:19Z</time>
      </trkpt>
      <trkpt lat="44.88862" lon="6.08268">
        <ele>2066.4</ele>
        <time>2024-08-14T06:41:20Z</time>
      </trkpt>
      <trkpt lat="44.88862" lon="6.08268">
        <ele>2066.8</ele>
        <time>2024-08-14T06:41:21Z</time>
      </trkpt>
      <trkpt lat="44.88862" lon="6.08268">
        <ele>2067</ele>
        <time>2024-08-14T06:41:22Z</time>
      </trkpt>
      <trkpt lat="44.88862" lon="6.08268">
        <ele>2067.2</ele>
        <time>2024-08-14T06:41:23Z</time>
      </trkpt>
      <trkpt lat="44.88862" lon="6.08268">
        <ele>2067.2</ele>
        <time>2024-08-14T06:41:24Z</time>
      </trkpt>
      <trkpt lat="44.88862" lon="6.08268">
        <ele>2067.4</ele>
        <time>2024-08-14T06:41:25Z</time>
      </trkpt>
      <trkpt lat="44.8886" lon="6.08265">
        <ele>2067.6</ele>
        <time>2024-08-14T06:41:26Z</time>
      </trkpt>
      <trkpt lat="44.8886" lon="6.08265">
        <ele>2067.6</ele>
        <time>2024-08-14T06:41:27Z</time>
      </trkpt>
      <trkpt lat="44.88858" lon="6.08262">
        <ele>2068.4</ele>
        <time>2024-08-14T06:41:28Z</time>
      </trkpt>
      <trkpt lat="44.88858" lon="6.08262">
        <ele>2068.4</ele>
        <time>2024-08-14T06:41:29Z</time>
      </trkpt>
      <trkpt lat="44.88857" lon="6.0826">
        <ele>2068.4</ele>
        <time>2024-08-14T06:41:30Z</time>
      </trkpt>
      <trkpt lat="44.88857" lon="6.0826">
        <ele>2068.8</ele>
        <time>2024-08-14T06:41:31Z</time>
      </trkpt>
      <trkpt lat="44.88855" lon="6.08258">
        <ele>2069</ele>
        <time>2024-08-14T06:41:32Z</time>
      </trkpt>
      <trkpt lat="44.88855" lon="6.08258">
        <ele>2069</ele>
        <time>2024-08-14T06:41:33Z</time>
      </trkpt>
      <trkpt lat="44.88855" lon="6.08258">
        <ele>2069.4</ele>
        <time>2024-08-14T06:41:34Z</time>
      </trkpt>
      <trkpt lat="44.88855" lon="6.08258">
        <ele>2069.4</ele>
        <time>2024-08-14T06:41:35Z</time>
      </trkpt>
      <trkpt lat="44.88857" lon="6.08255">
        <ele>2069.8</ele>
        <time>2024-08-14T06:41:36Z</time>
      </trkpt>
      <trkpt lat="44.88857" lon="6.08255">
        <ele>2069.8</ele>
        <time>2024-08-14T06:41:37Z</time>
      </trkpt>
      <trkpt lat="44.88857" lon="6.08255">
        <ele>2069.8</ele>
        <time>2024-08-14T06:41:38Z</time>
      </trkpt>
      <trkpt lat="44.88859" lon="6.08255">
        <ele>2070.4</ele>
        <time>2024-08-14T06:41:39Z</time>
      </trkpt>
      <trkpt lat="44.88859" lon="6.08255">
        <ele>2070.6</ele>
        <time>2024-08-14T06:41:40Z</time>
      </trkpt>
      <trkpt lat="44.88859" lon="6.08255">
        <ele>2070.6</ele>
        <time>2024-08-14T06:41:41Z</time>
      </trkpt>
      <trkpt lat="44.88861" lon="6.08257">
        <ele>2070.8</ele>
        <time>2024-08-14T06:41:42Z</time>
      </trkpt>
      <trkpt lat="44.88861" lon="6.08257">
        <ele>2071</ele>
        <time>2024-08-14T06:41:43Z</time>
      </trkpt>
      <trkpt lat="44.88861" lon="6.08257">
        <ele>2071</ele>
        <time>2024-08-14T06:41:44Z</time>
      </trkpt>
      <trkpt lat="44.88861" lon="6.08257">
        <ele>2071.2</ele>
        <time>2024-08-14T06:41:45Z</time>
      </trkpt>
      <trkpt lat="44.88861" lon="6.08257">
        <ele>2071.4</ele>
        <time>2024-08-14T06:41:46Z</time>
      </trkpt>
      <trkpt lat="44.88864" lon="6.08257">
        <ele>2071.4</ele>
        <time>2024-08-14T06:41:47Z</time>
      </trkpt>
      <trkpt lat="44.88864" lon="6.08257">
        <ele>2071.4</ele>
        <time>2024-08-14T06:41:48Z</time>
      </trkpt>
      <trkpt lat="44.88866" lon="6.08256">
        <ele>2071.8</ele>
        <time>2024-08-14T06:41:49Z</time>
      </trkpt>
      <trkpt lat="44.88866" lon="6.08256">
        <ele>2072.2</ele>
        <time>2024-08-14T06:41:50Z</time>
      </trkpt>
      <trkpt lat="44.88867" lon="6.08255">
        <ele>2072.2</ele>
        <time>2024-08-14T06:41:51Z</time>
      </trkpt>
      <trkpt lat="44.88867" lon="6.08255">
        <ele>2072.4</ele>
        <time>2024-08-14T06:41:52Z</time>
      </trkpt>
      <trkpt lat="44.88869" lon="6.08254">
        <ele>2072.6</ele>
        <time>2024-08-14T06:41:53Z</time>
      </trkpt>
      <trkpt lat="44.88869" lon="6.08254">
        <ele>2072.6</ele>
        <time>2024-08-14T06:41:54Z</time>
      </trkpt>
      <trkpt lat="44.88869" lon="6.08254">
        <ele>2072.6</ele>
        <time>2024-08-14T06:41:55Z</time>
      </trkpt>
      <trkpt lat="44.88869" lon="6.08254">
        <ele>2073</ele>
        <time>2024-08-14T06:41:56Z</time>
      </trkpt>
      <trkpt lat="44.88869" lon="6.08254">
        <ele>2073.4</ele>
        <time>2024-08-14T06:41:57Z</time>
      </trkpt>
      <trkpt lat="44.88869" lon="6.08254">
        <ele>2073.6</ele>
        <time>2024-08-14T06:41:58Z</time>
      </trkpt>
      <trkpt lat="44.88869" lon="6.08254">
        <ele>2073.8</ele>
        <time>2024-08-14T06:41:59Z</time>
      </trkpt>
      <trkpt lat="44.88869" lon="6.08254">
        <ele>2074.2</ele>
        <time>2024-08-14T06:42:00Z</time>
      </trkpt>
      <trkpt lat="44.88869" lon="6.08254">
        <ele>2074.6</ele>
        <time>2024-08-14T06:42:01Z</time>
      </trkpt>
      <trkpt lat="44.88868" lon="6.08251">
        <ele>2074.8</ele>
        <time>2024-08-14T06:42:02Z</time>
      </trkpt>
      <trkpt lat="44.88868" lon="6.08251">
        <ele>2074.8</ele>
        <time>2024-08-14T06:42:03Z</time>
      </trkpt>
      <trkpt lat="44.88868" lon="6.08251">
        <ele>2075</ele>
        <time>2024-08-14T06:42:04Z</time>
      </trkpt>
      <trkpt lat="44.88869" lon="6.08248">
        <ele>2075.2</ele>
        <time>2024-08-14T06:42:05Z</time>
      </trkpt>
      <trkpt lat="44.88869" lon="6.08248">
        <ele>2075.4</ele>
        <time>2024-08-14T06:42:06Z</time>
      </trkpt>
      <trkpt lat="44.88869" lon="6.08248">
        <ele>2075.6</ele>
        <time>2024-08-14T06:42:07Z</time>
      </trkpt>
      <trkpt lat="44.88871" lon="6.08247">
        <ele>2075.6</ele>
        <time>2024-08-14T06:42:08Z</time>
      </trkpt>
      <trkpt lat="44.88871" lon="6.08247">
        <ele>2075.6</ele>
        <time>2024-08-14T06:42:09Z</time>
      </trkpt>
      <trkpt lat="44.88871" lon="6.08247">
        <ele>2075.8</ele>
        <time>2024-08-14T06:42:10Z</time>
      </trkpt>
      <trkpt lat="44.88871" lon="6.08247">
        <ele>2076</ele>
        <time>2024-08-14T06:42:11Z</time>
      </trkpt>
      <trkpt lat="44.88871" lon="6.08247">
        <ele>2076.2</ele>
        <time>2024-08-14T06:42:12Z</time>
      </trkpt>
      <trkpt lat="44.88871" lon="6.08247">
        <ele>2076.6</ele>
        <time>2024-08-14T06:42:13Z</time>
      </trkpt>
      <trkpt lat="44.88869" lon="6.08244">
        <ele>2077</ele>
        <time>2024-08-14T06:42:14Z</time>
      </trkpt>
      <trkpt lat="44.88869" lon="6.08244">
        <ele>2077.2</ele>
        <time>2024-08-14T06:42:15Z</time>
      </trkpt>
      <trkpt lat="44.88869" lon="6.08244">
        <ele>2077.2</ele>
        <time>2024-08-14T06:42:16Z</time>
      </trkpt>
      <trkpt lat="44.88867" lon="6.08244">
        <ele>2077.4</ele>
        <time>2024-08-14T06:42:17Z</time>
      </trkpt>
      <trkpt lat="44.88867" lon="6.08244">
        <ele>2077.8</ele>
        <time>2024-08-14T06:42:18Z</time>
      </trkpt>
      <trkpt lat="44.88865" lon="6.08242">
        <ele>2078.2</ele>
        <time>2024-08-14T06:42:19Z</time>
      </trkpt>
      <trkpt lat="44.88865" lon="6.08242">
        <ele>2078.2</ele>
        <time>2024-08-14T06:42:20Z</time>
      </trkpt>
      <trkpt lat="44.88865" lon="6.08242">
        <ele>2078.2</ele>
        <time>2024-08-14T06:42:21Z</time>
      </trkpt>
      <trkpt lat="44.88863" lon="6.0824">
        <ele>2078.6</ele>
        <time>2024-08-14T06:42:22Z</time>
      </trkpt>
      <trkpt lat="44.88863" lon="6.0824">
        <ele>2078.6</ele>
        <time>2024-08-14T06:42:23Z</time>
      </trkpt>
      <trkpt lat="44.88861" lon="6.08239">
        <ele>2078.8</ele>
        <time>2024-08-14T06:42:24Z</time>
      </trkpt>
      <trkpt lat="44.88861" lon="6.08239">
        <ele>2078.8</ele>
        <time>2024-08-14T06:42:25Z</time>
      </trkpt>
      <trkpt lat="44.88861" lon="6.08236">
        <ele>2078.8</ele>
        <time>2024-08-14T06:42:26Z</time>
      </trkpt>
      <trkpt lat="44.88861" lon="6.08236">
        <ele>2078.8</ele>
        <time>2024-08-14T06:42:27Z</time>
      </trkpt>
      <trkpt lat="44.88859" lon="6.08234">
        <ele>2079</ele>
        <time>2024-08-14T06:42:28Z</time>
      </trkpt>
      <trkpt lat="44.88859" lon="6.08234">
        <ele>2079</ele>
        <time>2024-08-14T06:42:29Z</time>
      </trkpt>
      <trkpt lat="44.88859" lon="6.08234">
        <ele>2079.2</ele>
        <time>2024-08-14T06:42:30Z</time>
      </trkpt>
      <trkpt lat="44.88857" lon="6.08231">
        <ele>2079.4</ele>
        <time>2024-08-14T06:42:31Z</time>
      </trkpt>
      <trkpt lat="44.88857" lon="6.08231">
        <ele>2079.8</ele>
        <time>2024-08-14T06:42:32Z</time>
      </trkpt>
      <trkpt lat="44.88857" lon="6.08231">
        <ele>2079.8</ele>
        <time>2024-08-14T06:42:33Z</time>
      </trkpt>
      <trkpt lat="44.88855" lon="6.08229">
        <ele>2080</ele>
        <time>2024-08-14T06:42:34Z</time>
      </trkpt>
      <trkpt lat="44.88855" lon="6.08229">
        <ele>2080</ele>
        <time>2024-08-14T06:42:35Z</time>
      </trkpt>
      <trkpt lat="44.88855" lon="6.08229">
        <ele>2080</ele>
        <time>2024-08-14T06:42:36Z</time>
      </trkpt>
      <trkpt lat="44.88853" lon="6.08227">
        <ele>2080.6</ele>
        <time>2024-08-14T06:42:37Z</time>
      </trkpt>
      <trkpt lat="44.88853" lon="6.08227">
        <ele>2080.8</ele>
        <time>2024-08-14T06:42:38Z</time>
      </trkpt>
      <trkpt lat="44.88853" lon="6.08227">
        <ele>2081</ele>
        <time>2024-08-14T06:42:39Z</time>
      </trkpt>
      <trkpt lat="44.88853" lon="6.08227">
        <ele>2081</ele>
        <time>2024-08-14T06:42:40Z</time>
      </trkpt>
      <trkpt lat="44.88854" lon="6.08225">
        <ele>2081.6</ele>
        <time>2024-08-14T06:42:41Z</time>
      </trkpt>
      <trkpt lat="44.88854" lon="6.08225">
        <ele>2081.6</ele>
        <time>2024-08-14T06:42:42Z</time>
      </trkpt>
      <trkpt lat="44.88856" lon="6.08225">
        <ele>2081.6</ele>
        <time>2024-08-14T06:42:43Z</time>
      </trkpt>
      <trkpt lat="44.88856" lon="6.08225">
        <ele>2082</ele>
        <time>2024-08-14T06:42:44Z</time>
      </trkpt>
      <trkpt lat="44.88859" lon="6.08224">
        <ele>2082.2</ele>
        <time>2024-08-14T06:42:45Z</time>
      </trkpt>
      <trkpt lat="44.88859" lon="6.08224">
        <ele>2082.2</ele>
        <time>2024-08-14T06:42:46Z</time>
      </trkpt>
      <trkpt lat="44.88859" lon="6.08224">
        <ele>2082.4</ele>
        <time>2024-08-14T06:42:47Z</time>
      </trkpt>
      <trkpt lat="44.88861" lon="6.08224">
        <ele>2082.6</ele>
        <time>2024-08-14T06:42:48Z</time>
      </trkpt>
      <trkpt lat="44.88861" lon="6.08224">
        <ele>2082.6</ele>
        <time>2024-08-14T06:42:49Z</time>
      </trkpt>
      <trkpt lat="44.88861" lon="6.08224">
        <ele>2082.8</ele>
        <time>2024-08-14T06:42:50Z</time>
      </trkpt>
      <trkpt lat="44.88861" lon="6.08224">
        <ele>2083.2</ele>
        <time>2024-08-14T06:42:51Z</time>
      </trkpt>
      <trkpt lat="44.88861" lon="6.08224">
        <ele>2083.4</ele>
        <time>2024-08-14T06:42:52Z</time>
      </trkpt>
      <trkpt lat="44.88861" lon="6.08224">
        <ele>2083.4</ele>
        <time>2024-08-14T06:42:53Z</time>
      </trkpt>
      <trkpt lat="44.88861" lon="6.08224">
        <ele>2083.6</ele>
        <time>2024-08-14T06:42:54Z</time>
      </trkpt>
      <trkpt lat="44.88863" lon="6.08224">
        <ele>2083.8</ele>
        <time>2024-08-14T06:42:55Z</time>
      </trkpt>
      <trkpt lat="44.88863" lon="6.08224">
        <ele>2084.2</ele>
        <time>2024-08-14T06:42:56Z</time>
      </trkpt>
      <trkpt lat="44.88865" lon="6.08224">
        <ele>2084.4</ele>
        <time>2024-08-14T06:42:57Z</time>
      </trkpt>
      <trkpt lat="44.88865" lon="6.08224">
        <ele>2084.6</ele>
        <time>2024-08-14T06:42:58Z</time>
      </trkpt>
      <trkpt lat="44.88867" lon="6.08223">
        <ele>2084.8</ele>
        <time>2024-08-14T06:42:59Z</time>
      </trkpt>
      <trkpt lat="44.88867" lon="6.08223">
        <ele>2084.8</ele>
        <time>2024-08-14T06:43:00Z</time>
      </trkpt>
      <trkpt lat="44.88869" lon="6.08223">
        <ele>2085</ele>
        <time>2024-08-14T06:43:01Z</time>
      </trkpt>
      <trkpt lat="44.88869" lon="6.08223">
        <ele>2085.8</ele>
        <time>2024-08-14T06:43:02Z</time>
      </trkpt>
      <trkpt lat="44.88872" lon="6.08223">
        <ele>2085.8</ele>
        <time>2024-08-14T06:43:03Z</time>
      </trkpt>
      <trkpt lat="44.88872" lon="6.08223">
        <ele>2085.8</ele>
        <time>2024-08-14T06:43:04Z</time>
      </trkpt>
      <trkpt lat="44.88872" lon="6.08223">
        <ele>2086</ele>
        <time>2024-08-14T06:43:05Z</time>
      </trkpt>
      <trkpt lat="44.88872" lon="6.08223">
        <ele>2086.4</ele>
        <time>2024-08-14T06:43:06Z</time>
      </trkpt>
      <trkpt lat="44.88872" lon="6.08223">
        <ele>2086.6</ele>
        <time>2024-08-14T06:43:07Z</time>
      </trkpt>
      <trkpt lat="44.8887" lon="6.0822">
        <ele>2086.6</ele>
        <time>2024-08-14T06:43:08Z</time>
      </trkpt>
      <trkpt lat="44.8887" lon="6.0822">
        <ele>2087.2</ele>
        <time>2024-08-14T06:43:09Z</time>
      </trkpt>
      <trkpt lat="44.8887" lon="6.0822">
        <ele>2087.2</ele>
        <time>2024-08-14T06:43:10Z</time>
      </trkpt>
      <trkpt lat="44.88869" lon="6.08217">
        <ele>2087.2</ele>
        <time>2024-08-14T06:43:11Z</time>
      </trkpt>
      <trkpt lat="44.88869" lon="6.08217">
        <ele>2087.2</ele>
        <time>2024-08-14T06:43:12Z</time>
      </trkpt>
      <trkpt lat="44.88869" lon="6.08217">
        <ele>2087.2</ele>
        <time>2024-08-14T06:43:13Z</time>
      </trkpt>
      <trkpt lat="44.88866" lon="6.08216">
        <ele>2087.4</ele>
        <time>2024-08-14T06:43:14Z</time>
      </trkpt>
      <trkpt lat="44.88866" lon="6.08216">
        <ele>2088.2</ele>
        <time>2024-08-14T06:43:15Z</time>
      </trkpt>
      <trkpt lat="44.88866" lon="6.08216">
        <ele>2088.2</ele>
        <time>2024-08-14T06:43:16Z</time>
      </trkpt>
      <trkpt lat="44.88865" lon="6.08213">
        <ele>2088.6</ele>
        <time>2024-08-14T06:43:17Z</time>
      </trkpt>
      <trkpt lat="44.88865" lon="6.08213">
        <ele>2088.6</ele>
        <time>2024-08-14T06:43:18Z</time>
      </trkpt>
      <trkpt lat="44.88865" lon="6.08213">
        <ele>2088.8</ele>
        <time>2024-08-14T06:43:19Z</time>
      </trkpt>
      <trkpt lat="44.88863" lon="6.08211">
        <ele>2089</ele>
        <time>2024-08-14T06:43:20Z</time>
      </trkpt>
      <trkpt lat="44.88863" lon="6.08211">
        <ele>2089.2</ele>
        <time>2024-08-14T06:43:21Z</time>
      </trkpt>
      <trkpt lat="44.88863" lon="6.08211">
        <ele>2089.4</ele>
        <time>2024-08-14T06:43:22Z</time>
      </trkpt>
      <trkpt lat="44.88861" lon="6.08209">
        <ele>2090</ele>
        <time>2024-08-14T06:43:23Z</time>
      </trkpt>
      <trkpt lat="44.88861" lon="6.08209">
        <ele>2090</ele>
        <time>2024-08-14T06:43:24Z</time>
      </trkpt>
      <trkpt lat="44.88861" lon="6.08209">
        <ele>2090.2</ele>
        <time>2024-08-14T06:43:25Z</time>
      </trkpt>
      <trkpt lat="44.8886" lon="6.08207">
        <ele>2090.2</ele>
        <time>2024-08-14T06:43:26Z</time>
      </trkpt>
      <trkpt lat="44.8886" lon="6.08207">
        <ele>2090.8</ele>
        <time>2024-08-14T06:43:27Z</time>
      </trkpt>
      <trkpt lat="44.88858" lon="6.08205">
        <ele>2090.8</ele>
        <time>2024-08-14T06:43:28Z</time>
      </trkpt>
      <trkpt lat="44.88858" lon="6.08205">
        <ele>2090.8</ele>
        <time>2024-08-14T06:43:29Z</time>
      </trkpt>
      <trkpt lat="44.88857" lon="6.08203">
        <ele>2090.8</ele>
        <time>2024-08-14T06:43:30Z</time>
      </trkpt>
      <trkpt lat="44.88857" lon="6.08203">
        <ele>2090.8</ele>
        <time>2024-08-14T06:43:31Z</time>
      </trkpt>
      <trkpt lat="44.88857" lon="6.08203">
        <ele>2091.6</ele>
        <time>2024-08-14T06:43:32Z</time>
      </trkpt>
      <trkpt lat="44.88857" lon="6.08203">
        <ele>2091.6</ele>
        <time>2024-08-14T06:43:33Z</time>
      </trkpt>
      <trkpt lat="44.88858" lon="6.08201">
        <ele>2092</ele>
        <time>2024-08-14T06:43:34Z</time>
      </trkpt>
      <trkpt lat="44.88858" lon="6.08201">
        <ele>2092</ele>
        <time>2024-08-14T06:43:35Z</time>
      </trkpt>
      <trkpt lat="44.88858" lon="6.08201">
        <ele>2092.4</ele>
        <time>2024-08-14T06:43:36Z</time>
      </trkpt>
      <trkpt lat="44.8886" lon="6.08201">
        <ele>2092.8</ele>
        <time>2024-08-14T06:43:37Z</time>
      </trkpt>
      <trkpt lat="44.8886" lon="6.08201">
        <ele>2093</ele>
        <time>2024-08-14T06:43:38Z</time>
      </trkpt>
      <trkpt lat="44.88862" lon="6.08201">
        <ele>2093.2</ele>
        <time>2024-08-14T06:43:39Z</time>
      </trkpt>
      <trkpt lat="44.88862" lon="6.08201">
        <ele>2093.8</ele>
        <time>2024-08-14T06:43:40Z</time>
      </trkpt>
      <trkpt lat="44.88862" lon="6.08201">
        <ele>2093.8</ele>
        <time>2024-08-14T06:43:41Z</time>
      </trkpt>
      <trkpt lat="44.88862" lon="6.08201">
        <ele>2093.8</ele>
        <time>2024-08-14T06:43:42Z</time>
      </trkpt>
      <trkpt lat="44.88862" lon="6.08201">
        <ele>2094</ele>
        <time>2024-08-14T06:43:43Z</time>
      </trkpt>
      <trkpt lat="44.88862" lon="6.08201">
        <ele>2094.4</ele>
        <time>2024-08-14T06:43:44Z</time>
      </trkpt>
      <trkpt lat="44.88862" lon="6.08201">
        <ele>2094.4</ele>
        <time>2024-08-14T06:43:45Z</time>
      </trkpt>
      <trkpt lat="44.88862" lon="6.08201">
        <ele>2094.4</ele>
        <time>2024-08-14T06:43:46Z</time>
      </trkpt>
      <trkpt lat="44.88862" lon="6.08201">
        <ele>2094.4</ele>
        <time>2024-08-14T06:43:47Z</time>
      </trkpt>
      <trkpt lat="44.88862" lon="6.08201">
        <ele>2094.6</ele>
        <time>2024-08-14T06:43:48Z</time>
      </trkpt>
      <trkpt lat="44.88862" lon="6.08201">
        <ele>2094.6</ele>
        <time>2024-08-14T06:43:49Z</time>
      </trkpt>
      <trkpt lat="44.88862" lon="6.08201">
        <ele>2094.8</ele>
        <time>2024-08-14T06:43:50Z</time>
      </trkpt>
      <trkpt lat="44.88862" lon="6.08201">
        <ele>2094.8</ele>
        <time>2024-08-14T06:43:51Z</time>
      </trkpt>
      <trkpt lat="44.88864" lon="6.082">
        <ele>2095.2</ele>
        <time>2024-08-14T06:43:52Z</time>
      </trkpt>
      <trkpt lat="44.88864" lon="6.082">
        <ele>2095.4</ele>
        <time>2024-08-14T06:43:53Z</time>
      </trkpt>
      <trkpt lat="44.88867" lon="6.08198">
        <ele>2096</ele>
        <time>2024-08-14T06:43:54Z</time>
      </trkpt>
      <trkpt lat="44.88867" lon="6.08198">
        <ele>2096</ele>
        <time>2024-08-14T06:43:55Z</time>
      </trkpt>
      <trkpt lat="44.88869" lon="6.08196">
        <ele>2096.4</ele>
        <time>2024-08-14T06:43:56Z</time>
      </trkpt>
      <trkpt lat="44.88869" lon="6.08196">
        <ele>2096.4</ele>
        <time>2024-08-14T06:43:57Z</time>
      </trkpt>
      <trkpt lat="44.88869" lon="6.08196">
        <ele>2096.6</ele>
        <time>2024-08-14T06:43:58Z</time>
      </trkpt>
      <trkpt lat="44.8887" lon="6.08194">
        <ele>2096.6</ele>
        <time>2024-08-14T06:43:59Z</time>
      </trkpt>
      <trkpt lat="44.8887" lon="6.08194">
        <ele>2097</ele>
        <time>2024-08-14T06:44:00Z</time>
      </trkpt>
      <trkpt lat="44.8887" lon="6.08194">
        <ele>2097.2</ele>
        <time>2024-08-14T06:44:01Z</time>
      </trkpt>
      <trkpt lat="44.88872" lon="6.08193">
        <ele>2097.6</ele>
        <time>2024-08-14T06:44:02Z</time>
      </trkpt>
      <trkpt lat="44.88872" lon="6.08193">
        <ele>2097.6</ele>
        <time>2024-08-14T06:44:03Z</time>
      </trkpt>
      <trkpt lat="44.88872" lon="6.08193">
        <ele>2097.6</ele>
        <time>2024-08-14T06:44:04Z</time>
      </trkpt>
      <trkpt lat="44.88872" lon="6.08193">
        <ele>2097.8</ele>
        <time>2024-08-14T06:44:05Z</time>
      </trkpt>
      <trkpt lat="44.88873" lon="6.08191">
        <ele>2097.8</ele>
        <time>2024-08-14T06:44:06Z</time>
      </trkpt>
      <trkpt lat="44.88873" lon="6.08191">
        <ele>2098</ele>
        <time>2024-08-14T06:44:07Z</time>
      </trkpt>
      <trkpt lat="44.88873" lon="6.08191">
        <ele>2098.4</ele>
        <time>2024-08-14T06:44:08Z</time>
      </trkpt>
      <trkpt lat="44.88873" lon="6.08191">
        <ele>2098.6</ele>
        <time>2024-08-14T06:44:09Z</time>
      </trkpt>
      <trkpt lat="44.88874" lon="6.08189">
        <ele>2099.2</ele>
        <time>2024-08-14T06:44:10Z</time>
      </trkpt>
      <trkpt lat="44.88874" lon="6.08189">
        <ele>2099.2</ele>
        <time>2024-08-14T06:44:11Z</time>
      </trkpt>
      <trkpt lat="44.88874" lon="6.08189">
        <ele>2099.4</ele>
        <time>2024-08-14T06:44:12Z</time>
      </trkpt>
      <trkpt lat="44.88876" lon="6.08186">
        <ele>2099.6</ele>
        <time>2024-08-14T06:44:13Z</time>
      </trkpt>
      <trkpt lat="44.88876" lon="6.08186">
        <ele>2099.8</ele>
        <time>2024-08-14T06:44:14Z</time>
      </trkpt>
      <trkpt lat="44.88876" lon="6.08186">
        <ele>2100</ele>
        <time>2024-08-14T06:44:15Z</time>
      </trkpt>
      <trkpt lat="44.88877" lon="6.08185">
        <ele>2100</ele>
        <time>2024-08-14T06:44:16Z</time>
      </trkpt>
      <trkpt lat="44.88877" lon="6.08185">
        <ele>2100</ele>
        <time>2024-08-14T06:44:17Z</time>
      </trkpt>
      <trkpt lat="44.88877" lon="6.08185">
        <ele>2100.4</ele>
        <time>2024-08-14T06:44:18Z</time>
      </trkpt>
      <trkpt lat="44.88877" lon="6.08185">
        <ele>2100.4</ele>
        <time>2024-08-14T06:44:19Z</time>
      </trkpt>
      <trkpt lat="44.88879" lon="6.08183">
        <ele>2100.6</ele>
        <time>2024-08-14T06:44:20Z</time>
      </trkpt>
      <trkpt lat="44.88879" lon="6.08183">
        <ele>2100.8</ele>
        <time>2024-08-14T06:44:21Z</time>
      </trkpt>
      <trkpt lat="44.88879" lon="6.08183">
        <ele>2100.8</ele>
        <time>2024-08-14T06:44:22Z</time>
      </trkpt>
      <trkpt lat="44.88879" lon="6.08183">
        <ele>2101</ele>
        <time>2024-08-14T06:44:23Z</time>
      </trkpt>
      <trkpt lat="44.8888" lon="6.0818">
        <ele>2101.8</ele>
        <time>2024-08-14T06:44:24Z</time>
      </trkpt>
      <trkpt lat="44.8888" lon="6.0818">
        <ele>2101.8</ele>
        <time>2024-08-14T06:44:25Z</time>
      </trkpt>
      <trkpt lat="44.8888" lon="6.0818">
        <ele>2101.8</ele>
        <time>2024-08-14T06:44:26Z</time>
      </trkpt>
      <trkpt lat="44.8888" lon="6.0818">
        <ele>2101.8</ele>
        <time>2024-08-14T06:44:27Z</time>
      </trkpt>
      <trkpt lat="44.88882" lon="6.08178">
        <ele>2102.8</ele>
        <time>2024-08-14T06:44:28Z</time>
      </trkpt>
      <trkpt lat="44.88882" lon="6.08178">
        <ele>2103</ele>
        <time>2024-08-14T06:44:29Z</time>
      </trkpt>
      <trkpt lat="44.88882" lon="6.08178">
        <ele>2103</ele>
        <time>2024-08-14T06:44:30Z</time>
      </trkpt>
      <trkpt lat="44.88882" lon="6.08178">
        <ele>2103</ele>
        <time>2024-08-14T06:44:31Z</time>
      </trkpt>
      <trkpt lat="44.88883" lon="6.08176">
        <ele>2103.4</ele>
        <time>2024-08-14T06:44:32Z</time>
      </trkpt>
      <trkpt lat="44.88883" lon="6.08176">
        <ele>2103.4</ele>
        <time>2024-08-14T06:44:33Z</time>
      </trkpt>
      <trkpt lat="44.88883" lon="6.08176">
        <ele>2103.6</ele>
        <time>2024-08-14T06:44:34Z</time>
      </trkpt>
      <trkpt lat="44.88883" lon="6.08176">
        <ele>2103.8</ele>
        <time>2024-08-14T06:44:35Z</time>
      </trkpt>
      <trkpt lat="44.88884" lon="6.08174">
        <ele>2104.4</ele>
        <time>2024-08-14T06:44:36Z</time>
      </trkpt>
      <trkpt lat="44.88884" lon="6.08174">
        <ele>2104.4</ele>
        <time>2024-08-14T06:44:37Z</time>
      </trkpt>
      <trkpt lat="44.88884" lon="6.08174">
        <ele>2104.4</ele>
        <time>2024-08-14T06:44:38Z</time>
      </trkpt>
      <trkpt lat="44.88887" lon="6.08173">
        <ele>2104.4</ele>
        <time>2024-08-14T06:44:39Z</time>
      </trkpt>
      <trkpt lat="44.88887" lon="6.08173">
        <ele>2104.6</ele>
        <time>2024-08-14T06:44:40Z</time>
      </trkpt>
      <trkpt lat="44.88887" lon="6.08173">
        <ele>2104.8</ele>
        <time>2024-08-14T06:44:41Z</time>
      </trkpt>
      <trkpt lat="44.88889" lon="6.08175">
        <ele>2104.8</ele>
        <time>2024-08-14T06:44:42Z</time>
      </trkpt>
      <trkpt lat="44.88889" lon="6.08175">
        <ele>2104.8</ele>
        <time>2024-08-14T06:44:43Z</time>
      </trkpt>
      <trkpt lat="44.88889" lon="6.08175">
        <ele>2105</ele>
        <time>2024-08-14T06:44:44Z</time>
      </trkpt>
      <trkpt lat="44.88891" lon="6.08177">
        <ele>2105</ele>
        <time>2024-08-14T06:44:45Z</time>
      </trkpt>
      <trkpt lat="44.88891" lon="6.08177">
        <ele>2105</ele>
        <time>2024-08-14T06:44:46Z</time>
      </trkpt>
      <trkpt lat="44.88893" lon="6.08177">
        <ele>2105.2</ele>
        <time>2024-08-14T06:44:47Z</time>
      </trkpt>
      <trkpt lat="44.88893" lon="6.08177">
        <ele>2105.4</ele>
        <time>2024-08-14T06:44:48Z</time>
      </trkpt>
      <trkpt lat="44.88893" lon="6.08177">
        <ele>2105.4</ele>
        <time>2024-08-14T06:44:49Z</time>
      </trkpt>
      <trkpt lat="44.88896" lon="6.08178">
        <ele>2105.6</ele>
        <time>2024-08-14T06:44:50Z</time>
      </trkpt>
      <trkpt lat="44.88896" lon="6.08178">
        <ele>2105.6</ele>
        <time>2024-08-14T06:44:51Z</time>
      </trkpt>
      <trkpt lat="44.88896" lon="6.08178">
        <ele>2105.6</ele>
        <time>2024-08-14T06:44:52Z</time>
      </trkpt>
      <trkpt lat="44.88898" lon="6.08179">
        <ele>2105.6</ele>
        <time>2024-08-14T06:44:53Z</time>
      </trkpt>
      <trkpt lat="44.88898" lon="6.08179">
        <ele>2105.8</ele>
        <time>2024-08-14T06:44:54Z</time>
      </trkpt>
      <trkpt lat="44.88898" lon="6.08179">
        <ele>2106</ele>
        <time>2024-08-14T06:44:55Z</time>
      </trkpt>
      <trkpt lat="44.88898" lon="6.08179">
        <ele>2106.2</ele>
        <time>2024-08-14T06:44:56Z</time>
      </trkpt>
      <trkpt lat="44.88901" lon="6.08179">
        <ele>2106.2</ele>
        <time>2024-08-14T06:44:57Z</time>
      </trkpt>
      <trkpt lat="44.88901" lon="6.08179">
        <ele>2106.4</ele>
        <time>2024-08-14T06:44:58Z</time>
      </trkpt>
      <trkpt lat="44.88901" lon="6.08179">
        <ele>2106.6</ele>
        <time>2024-08-14T06:44:59Z</time>
      </trkpt>
      <trkpt lat="44.88902" lon="6.0818">
        <ele>2107</ele>
        <time>2024-08-14T06:45:00Z</time>
      </trkpt>
      <trkpt lat="44.88902" lon="6.0818">
        <ele>2107.2</ele>
        <time>2024-08-14T06:45:01Z</time>
      </trkpt>
      <trkpt lat="44.88904" lon="6.0818">
        <ele>2107.6</ele>
        <time>2024-08-14T06:45:02Z</time>
      </trkpt>
      <trkpt lat="44.88904" lon="6.0818">
        <ele>2107.6</ele>
        <time>2024-08-14T06:45:03Z</time>
      </trkpt>
      <trkpt lat="44.88904" lon="6.0818">
        <ele>2107.8</ele>
        <time>2024-08-14T06:45:04Z</time>
      </trkpt>
      <trkpt lat="44.88907" lon="6.08181">
        <ele>2108.2</ele>
        <time>2024-08-14T06:45:05Z</time>
      </trkpt>
      <trkpt lat="44.88907" lon="6.08181">
        <ele>2108.2</ele>
        <time>2024-08-14T06:45:06Z</time>
      </trkpt>
      <trkpt lat="44.88907" lon="6.08181">
        <ele>2108.6</ele>
        <time>2024-08-14T06:45:07Z</time>
      </trkpt>
      <trkpt lat="44.88909" lon="6.08183">
        <ele>2108.8</ele>
        <time>2024-08-14T06:45:08Z</time>
      </trkpt>
      <trkpt lat="44.88909" lon="6.08183">
        <ele>2109</ele>
        <time>2024-08-14T06:45:09Z</time>
      </trkpt>
      <trkpt lat="44.8891" lon="6.08183">
        <ele>2109.2</ele>
        <time>2024-08-14T06:45:10Z</time>
      </trkpt>
      <trkpt lat="44.8891" lon="6.08183">
        <ele>2109.2</ele>
        <time>2024-08-14T06:45:11Z</time>
      </trkpt>
      <trkpt lat="44.8891" lon="6.08183">
        <ele>2109.2</ele>
        <time>2024-08-14T06:45:12Z</time>
      </trkpt>
      <trkpt lat="44.88912" lon="6.08185">
        <ele>2109.2</ele>
        <time>2024-08-14T06:45:13Z</time>
      </trkpt>
      <trkpt lat="44.88912" lon="6.08185">
        <ele>2109.4</ele>
        <time>2024-08-14T06:45:14Z</time>
      </trkpt>
      <trkpt lat="44.88914" lon="6.08187">
        <ele>2109.4</ele>
        <time>2024-08-14T06:45:15Z</time>
      </trkpt>
      <trkpt lat="44.88914" lon="6.08187">
        <ele>2109.2</ele>
        <time>2024-08-14T06:45:16Z</time>
      </trkpt>
      <trkpt lat="44.88914" lon="6.08187">
        <ele>2109.2</ele>
        <time>2024-08-14T06:45:17Z</time>
      </trkpt>
      <trkpt lat="44.88917" lon="6.08188">
        <ele>2109.6</ele>
        <time>2024-08-14T06:45:18Z</time>
      </trkpt>
      <trkpt lat="44.88917" lon="6.08188">
        <ele>2109.6</ele>
        <time>2024-08-14T06:45:19Z</time>
      </trkpt>
      <trkpt lat="44.88917" lon="6.08188">
        <ele>2109.6</ele>
        <time>2024-08-14T06:45:20Z</time>
      </trkpt>
      <trkpt lat="44.88918" lon="6.08189">
        <ele>2110</ele>
        <time>2024-08-14T06:45:21Z</time>
      </trkpt>
      <trkpt lat="44.88918" lon="6.08189">
        <ele>2110.4</ele>
        <time>2024-08-14T06:45:22Z</time>
      </trkpt>
      <trkpt lat="44.88918" lon="6.08189">
        <ele>2110.4</ele>
        <time>2024-08-14T06:45:23Z</time>
      </trkpt>
      <trkpt lat="44.8892" lon="6.08191">
        <ele>2110.8</ele>
        <time>2024-08-14T06:45:24Z</time>
      </trkpt>
      <trkpt lat="44.8892" lon="6.08191">
        <ele>2111</ele>
        <time>2024-08-14T06:45:25Z</time>
      </trkpt>
      <trkpt lat="44.8892" lon="6.08191">
        <ele>2111</ele>
        <time>2024-08-14T06:45:26Z</time>
      </trkpt>
      <trkpt lat="44.88922" lon="6.08192">
        <ele>2111.4</ele>
        <time>2024-08-14T06:45:27Z</time>
      </trkpt>
      <trkpt lat="44.88922" lon="6.08192">
        <ele>2111.6</ele>
        <time>2024-08-14T06:45:28Z</time>
      </trkpt>
      <trkpt lat="44.88922" lon="6.08192">
        <ele>2111.8</ele>
        <time>2024-08-14T06:45:29Z</time>
      </trkpt>
      <trkpt lat="44.88924" lon="6.08194">
        <ele>2112.2</ele>
        <time>2024-08-14T06:45:30Z</time>
      </trkpt>
      <trkpt lat="44.88924" lon="6.08194">
        <ele>2112.4</ele>
        <time>2024-08-14T06:45:31Z</time>
      </trkpt>
      <trkpt lat="44.88924" lon="6.08194">
        <ele>2112.8</ele>
        <time>2024-08-14T06:45:32Z</time>
      </trkpt>
      <trkpt lat="44.88926" lon="6.08195">
        <ele>2112.8</ele>
        <time>2024-08-14T06:45:33Z</time>
      </trkpt>
      <trkpt lat="44.88926" lon="6.08195">
        <ele>2112.8</ele>
        <time>2024-08-14T06:45:34Z</time>
      </trkpt>
      <trkpt lat="44.88929" lon="6.08196">
        <ele>2112.8</ele>
        <time>2024-08-14T06:45:35Z</time>
      </trkpt>
      <trkpt lat="44.88929" lon="6.08196">
        <ele>2112.8</ele>
        <time>2024-08-14T06:45:36Z</time>
      </trkpt>
      <trkpt lat="44.88931" lon="6.08197">
        <ele>2112.8</ele>
        <time>2024-08-14T06:45:37Z</time>
      </trkpt>
      <trkpt lat="44.88931" lon="6.08197">
        <ele>2112.8</ele>
        <time>2024-08-14T06:45:38Z</time>
      </trkpt>
      <trkpt lat="44.88931" lon="6.08197">
        <ele>2112.6</ele>
        <time>2024-08-14T06:45:39Z</time>
      </trkpt>
      <trkpt lat="44.88933" lon="6.08198">
        <ele>2112.6</ele>
        <time>2024-08-14T06:45:40Z</time>
      </trkpt>
      <trkpt lat="44.88933" lon="6.08198">
        <ele>2112.4</ele>
        <time>2024-08-14T06:45:41Z</time>
      </trkpt>
      <trkpt lat="44.88933" lon="6.08198">
        <ele>2112.4</ele>
        <time>2024-08-14T06:45:42Z</time>
      </trkpt>
      <trkpt lat="44.88934" lon="6.08201">
        <ele>2112.4</ele>
        <time>2024-08-14T06:45:43Z</time>
      </trkpt>
      <trkpt lat="44.88934" lon="6.08201">
        <ele>2112.4</ele>
        <time>2024-08-14T06:45:44Z</time>
      </trkpt>
      <trkpt lat="44.88935" lon="6.08203">
        <ele>2112.6</ele>
        <time>2024-08-14T06:45:45Z</time>
      </trkpt>
      <trkpt lat="44.88935" lon="6.08203">
        <ele>2113</ele>
        <time>2024-08-14T06:45:46Z</time>
      </trkpt>
      <trkpt lat="44.88935" lon="6.08203">
        <ele>2113</ele>
        <time>2024-08-14T06:45:47Z</time>
      </trkpt>
      <trkpt lat="44.88937" lon="6.08207">
        <ele>2113.2</ele>
        <time>2024-08-14T06:45:48Z</time>
      </trkpt>
      <trkpt lat="44.88937" lon="6.08207">
        <ele>2113.4</ele>
        <time>2024-08-14T06:45:49Z</time>
      </trkpt>
      <trkpt lat="44.88937" lon="6.08207">
        <ele>2113.4</ele>
        <time>2024-08-14T06:45:50Z</time>
      </trkpt>
      <trkpt lat="44.88937" lon="6.08209">
        <ele>2113.8</ele>
        <time>2024-08-14T06:45:51Z</time>
      </trkpt>
      <trkpt lat="44.88937" lon="6.08209">
        <ele>2113.8</ele>
        <time>2024-08-14T06:45:52Z</time>
      </trkpt>
      <trkpt lat="44.88937" lon="6.08209">
        <ele>2113.8</ele>
        <time>2024-08-14T06:45:53Z</time>
      </trkpt>
      <trkpt lat="44.88937" lon="6.08209">
        <ele>2114.2</ele>
        <time>2024-08-14T06:45:54Z</time>
      </trkpt>
      <trkpt lat="44.88938" lon="6.08212">
        <ele>2114.4</ele>
        <time>2024-08-14T06:45:55Z</time>
      </trkpt>
      <trkpt lat="44.88938" lon="6.08212">
        <ele>2114.4</ele>
        <time>2024-08-14T06:45:56Z</time>
      </trkpt>
      <trkpt lat="44.88938" lon="6.08212">
        <ele>2115.4</ele>
        <time>2024-08-14T06:45:57Z</time>
      </trkpt>
      <trkpt lat="44.88938" lon="6.08212">
        <ele>2115.4</ele>
        <time>2024-08-14T06:45:58Z</time>
      </trkpt>
      <trkpt lat="44.88939" lon="6.08215">
        <ele>2115.6</ele>
        <time>2024-08-14T06:45:59Z</time>
      </trkpt>
      <trkpt lat="44.88939" lon="6.08215">
        <ele>2116</ele>
        <time>2024-08-14T06:46:00Z</time>
      </trkpt>
      <trkpt lat="44.88939" lon="6.08215">
        <ele>2116</ele>
        <time>2024-08-14T06:46:01Z</time>
      </trkpt>
      <trkpt lat="44.8894" lon="6.08217">
        <ele>2116</ele>
        <time>2024-08-14T06:46:02Z</time>
      </trkpt>
      <trkpt lat="44.8894" lon="6.08217">
        <ele>2116</ele>
        <time>2024-08-14T06:46:03Z</time>
      </trkpt>
      <trkpt lat="44.8894" lon="6.08217">
        <ele>2116.2</ele>
        <time>2024-08-14T06:46:04Z</time>
      </trkpt>
      <trkpt lat="44.88941" lon="6.08221">
        <ele>2116.4</ele>
        <time>2024-08-14T06:46:05Z</time>
      </trkpt>
      <trkpt lat="44.88941" lon="6.08221">
        <ele>2116.4</ele>
        <time>2024-08-14T06:46:06Z</time>
      </trkpt>
      <trkpt lat="44.88941" lon="6.08224">
        <ele>2116.2</ele>
        <time>2024-08-14T06:46:07Z</time>
      </trkpt>
      <trkpt lat="44.88941" lon="6.08224">
        <ele>2116.2</ele>
        <time>2024-08-14T06:46:08Z</time>
      </trkpt>
      <trkpt lat="44.88942" lon="6.08227">
        <ele>2116.2</ele>
        <time>2024-08-14T06:46:09Z</time>
      </trkpt>
      <trkpt lat="44.88942" lon="6.08227">
        <ele>2116.4</ele>
        <time>2024-08-14T06:46:10Z</time>
      </trkpt>
      <trkpt lat="44.88943" lon="6.0823">
        <ele>2116.4</ele>
        <time>2024-08-14T06:46:11Z</time>
      </trkpt>
      <trkpt lat="44.88943" lon="6.0823">
        <ele>2116.6</ele>
        <time>2024-08-14T06:46:12Z</time>
      </trkpt>
      <trkpt lat="44.88945" lon="6.08233">
        <ele>2116.4</ele>
        <time>2024-08-14T06:46:13Z</time>
      </trkpt>
      <trkpt lat="44.88945" lon="6.08233">
        <ele>2116.4</ele>
        <time>2024-08-14T06:46:14Z</time>
      </trkpt>
      <trkpt lat="44.88946" lon="6.08236">
        <ele>2116.4</ele>
        <time>2024-08-14T06:46:15Z</time>
      </trkpt>
      <trkpt lat="44.88946" lon="6.08236">
        <ele>2116.4</ele>
        <time>2024-08-14T06:46:16Z</time>
      </trkpt>
      <trkpt lat="44.88947" lon="6.08239">
        <ele>2116.4</ele>
        <time>2024-08-14T06:46:17Z</time>
      </trkpt>
      <trkpt lat="44.88947" lon="6.08239">
        <ele>2116.4</ele>
        <time>2024-08-14T06:46:18Z</time>
      </trkpt>
      <trkpt lat="44.88948" lon="6.08242">
        <ele>2116.6</ele>
        <time>2024-08-14T06:46:19Z</time>
      </trkpt>
      <trkpt lat="44.88948" lon="6.08242">
        <ele>2116.6</ele>
        <time>2024-08-14T06:46:20Z</time>
      </trkpt>
      <trkpt lat="44.88949" lon="6.08246">
        <ele>2116.8</ele>
        <time>2024-08-14T06:46:21Z</time>
      </trkpt>
      <trkpt lat="44.88949" lon="6.08246">
        <ele>2116.8</ele>
        <time>2024-08-14T06:46:22Z</time>
      </trkpt>
      <trkpt lat="44.88949" lon="6.08249">
        <ele>2117</ele>
        <time>2024-08-14T06:46:23Z</time>
      </trkpt>
      <trkpt lat="44.88949" lon="6.08249">
        <ele>2117</ele>
        <time>2024-08-14T06:46:24Z</time>
      </trkpt>
      <trkpt lat="44.8895" lon="6.08251">
        <ele>2117.2</ele>
        <time>2024-08-14T06:46:25Z</time>
      </trkpt>
      <trkpt lat="44.8895" lon="6.08251">
        <ele>2117.4</ele>
        <time>2024-08-14T06:46:26Z</time>
      </trkpt>
      <trkpt lat="44.8895" lon="6.08251">
        <ele>2117.6</ele>
        <time>2024-08-14T06:46:27Z</time>
      </trkpt>
      <trkpt lat="44.88951" lon="6.08255">
        <ele>2118</ele>
        <time>2024-08-14T06:46:28Z</time>
      </trkpt>
      <trkpt lat="44.88951" lon="6.08255">
        <ele>2118.2</ele>
        <time>2024-08-14T06:46:29Z</time>
      </trkpt>
      <trkpt lat="44.88951" lon="6.08258">
        <ele>2118.4</ele>
        <time>2024-08-14T06:46:30Z</time>
      </trkpt>
      <trkpt lat="44.88951" lon="6.08258">
        <ele>2118.4</ele>
        <time>2024-08-14T06:46:31Z</time>
      </trkpt>
      <trkpt lat="44.88953" lon="6.08261">
        <ele>2119</ele>
        <time>2024-08-14T06:46:32Z</time>
      </trkpt>
      <trkpt lat="44.88953" lon="6.08261">
        <ele>2119</ele>
        <time>2024-08-14T06:46:33Z</time>
      </trkpt>
      <trkpt lat="44.88953" lon="6.08263">
        <ele>2119</ele>
        <time>2024-08-14T06:46:34Z</time>
      </trkpt>
      <trkpt lat="44.88953" lon="6.08263">
        <ele>2119.2</ele>
        <time>2024-08-14T06:46:35Z</time>
      </trkpt>
      <trkpt lat="44.88955" lon="6.08265">
        <ele>2119.2</ele>
        <time>2024-08-14T06:46:36Z</time>
      </trkpt>
      <trkpt lat="44.88955" lon="6.08265">
        <ele>2119.2</ele>
        <time>2024-08-14T06:46:37Z</time>
      </trkpt>
      <trkpt lat="44.88957" lon="6.08268">
        <ele>2119</ele>
        <time>2024-08-14T06:46:38Z</time>
      </trkpt>
      <trkpt lat="44.88957" lon="6.08268">
        <ele>2119.2</ele>
        <time>2024-08-14T06:46:39Z</time>
      </trkpt>
      <trkpt lat="44.88959" lon="6.0827">
        <ele>2119</ele>
        <time>2024-08-14T06:46:40Z</time>
      </trkpt>
      <trkpt lat="44.88959" lon="6.0827">
        <ele>2119</ele>
        <time>2024-08-14T06:46:41Z</time>
      </trkpt>
      <trkpt lat="44.88961" lon="6.08272">
        <ele>2119</ele>
        <time>2024-08-14T06:46:42Z</time>
      </trkpt>
      <trkpt lat="44.88961" lon="6.08272">
        <ele>2119</ele>
        <time>2024-08-14T06:46:43Z</time>
      </trkpt>
      <trkpt lat="44.88963" lon="6.08274">
        <ele>2119</ele>
        <time>2024-08-14T06:46:44Z</time>
      </trkpt>
      <trkpt lat="44.88963" lon="6.08274">
        <ele>2119</ele>
        <time>2024-08-14T06:46:45Z</time>
      </trkpt>
      <trkpt lat="44.88965" lon="6.08276">
        <ele>2119.2</ele>
        <time>2024-08-14T06:46:46Z</time>
      </trkpt>
      <trkpt lat="44.88965" lon="6.08276">
        <ele>2119.2</ele>
        <time>2024-08-14T06:46:47Z</time>
      </trkpt>
      <trkpt lat="44.88967" lon="6.08278">
        <ele>2119.2</ele>
        <time>2024-08-14T06:46:48Z</time>
      </trkpt>
      <trkpt lat="44.88967" lon="6.08278">
        <ele>2119.4</ele>
        <time>2024-08-14T06:46:49Z</time>
      </trkpt>
      <trkpt lat="44.88969" lon="6.08281">
        <ele>2119.4</ele>
        <time>2024-08-14T06:46:50Z</time>
      </trkpt>
      <trkpt lat="44.88969" lon="6.08281">
        <ele>2119.4</ele>
        <time>2024-08-14T06:46:51Z</time>
      </trkpt>
      <trkpt lat="44.88971" lon="6.08284">
        <ele>2119</ele>
        <time>2024-08-14T06:46:52Z</time>
      </trkpt>
      <trkpt lat="44.88971" lon="6.08284">
        <ele>2119</ele>
        <time>2024-08-14T06:46:53Z</time>
      </trkpt>
      <trkpt lat="44.88973" lon="6.08287">
        <ele>2119</ele>
        <time>2024-08-14T06:46:54Z</time>
      </trkpt>
      <trkpt lat="44.88973" lon="6.08287">
        <ele>2118.8</ele>
        <time>2024-08-14T06:46:55Z</time>
      </trkpt>
      <trkpt lat="44.88974" lon="6.0829">
        <ele>2118.6</ele>
        <time>2024-08-14T06:46:56Z</time>
      </trkpt>
      <trkpt lat="44.88974" lon="6.0829">
        <ele>2118.6</ele>
        <time>2024-08-14T06:46:57Z</time>
      </trkpt>
      <trkpt lat="44.88976" lon="6.08293">
        <ele>2118.4</ele>
        <time>2024-08-14T06:46:58Z</time>
      </trkpt>
      <trkpt lat="44.88976" lon="6.08293">
        <ele>2118.2</ele>
        <time>2024-08-14T06:46:59Z</time>
      </trkpt>
      <trkpt lat="44.88978" lon="6.08295">
        <ele>2118.2</ele>
        <time>2024-08-14T06:47:00Z</time>
      </trkpt>
      <trkpt lat="44.88978" lon="6.08295">
        <ele>2118</ele>
        <time>2024-08-14T06:47:01Z</time>
      </trkpt>
      <trkpt lat="44.88979" lon="6.08297">
        <ele>2118</ele>
        <time>2024-08-14T06:47:02Z</time>
      </trkpt>
      <trkpt lat="44.88979" lon="6.08297">
        <ele>2118</ele>
        <time>2024-08-14T06:47:03Z</time>
      </trkpt>
      <trkpt lat="44.88982" lon="6.08299">
        <ele>2118</ele>
        <time>2024-08-14T06:47:04Z</time>
      </trkpt>
      <trkpt lat="44.88982" lon="6.08299">
        <ele>2118</ele>
        <time>2024-08-14T06:47:05Z</time>
      </trkpt>
      <trkpt lat="44.88983" lon="6.08301">
        <ele>2118.2</ele>
        <time>2024-08-14T06:47:06Z</time>
      </trkpt>
      <trkpt lat="44.88983" lon="6.08301">
        <ele>2118.2</ele>
        <time>2024-08-14T06:47:07Z</time>
      </trkpt>
      <trkpt lat="44.88986" lon="6.08303">
        <ele>2118.2</ele>
        <time>2024-08-14T06:47:08Z</time>
      </trkpt>
      <trkpt lat="44.88986" lon="6.08303">
        <ele>2118.6</ele>
        <time>2024-08-14T06:47:09Z</time>
      </trkpt>
      <trkpt lat="44.88988" lon="6.08305">
        <ele>2118.6</ele>
        <time>2024-08-14T06:47:10Z</time>
      </trkpt>
      <trkpt lat="44.88988" lon="6.08305">
        <ele>2118.6</ele>
        <time>2024-08-14T06:47:11Z</time>
      </trkpt>
      <trkpt lat="44.8899" lon="6.08306">
        <ele>2118.6</ele>
        <time>2024-08-14T06:47:12Z</time>
      </trkpt>
      <trkpt lat="44.8899" lon="6.08306">
        <ele>2118.6</ele>
        <time>2024-08-14T06:47:13Z</time>
      </trkpt>
      <trkpt lat="44.88991" lon="6.08308">
        <ele>2118.8</ele>
        <time>2024-08-14T06:47:14Z</time>
      </trkpt>
      <trkpt lat="44.88991" lon="6.08308">
        <ele>2119</ele>
        <time>2024-08-14T06:47:15Z</time>
      </trkpt>
      <trkpt lat="44.88993" lon="6.08311">
        <ele>2119.4</ele>
        <time>2024-08-14T06:47:16Z</time>
      </trkpt>
      <trkpt lat="44.88993" lon="6.08311">
        <ele>2119.4</ele>
        <time>2024-08-14T06:47:17Z</time>
      </trkpt>
      <trkpt lat="44.88995" lon="6.08313">
        <ele>2119.6</ele>
        <time>2024-08-14T06:47:18Z</time>
      </trkpt>
      <trkpt lat="44.88995" lon="6.08313">
        <ele>2119.6</ele>
        <time>2024-08-14T06:47:19Z</time>
      </trkpt>
      <trkpt lat="44.88997" lon="6.08314">
        <ele>2119.8</ele>
        <time>2024-08-14T06:47:20Z</time>
      </trkpt>
      <trkpt lat="44.88997" lon="6.08314">
        <ele>2120</ele>
        <time>2024-08-14T06:47:21Z</time>
      </trkpt>
      <trkpt lat="44.88998" lon="6.08317">
        <ele>2120</ele>
        <time>2024-08-14T06:47:22Z</time>
      </trkpt>
      <trkpt lat="44.88998" lon="6.08317">
        <ele>2120.2</ele>
        <time>2024-08-14T06:47:23Z</time>
      </trkpt>
      <trkpt lat="44.89" lon="6.08319">
        <ele>2120.2</ele>
        <time>2024-08-14T06:47:24Z</time>
      </trkpt>
      <trkpt lat="44.89" lon="6.08319">
        <ele>2120.2</ele>
        <time>2024-08-14T06:47:25Z</time>
      </trkpt>
      <trkpt lat="44.89002" lon="6.08321">
        <ele>2120.4</ele>
        <time>2024-08-14T06:47:26Z</time>
      </trkpt>
      <trkpt lat="44.89002" lon="6.08321">
        <ele>2120.4</ele>
        <time>2024-08-14T06:47:27Z</time>
      </trkpt>
      <trkpt lat="44.89004" lon="6.08324">
        <ele>2120.8</ele>
        <time>2024-08-14T06:47:28Z</time>
      </trkpt>
      <trkpt lat="44.89004" lon="6.08324">
        <ele>2120.8</ele>
        <time>2024-08-14T06:47:29Z</time>
      </trkpt>
      <trkpt lat="44.89005" lon="6.08327">
        <ele>2120.8</ele>
        <time>2024-08-14T06:47:30Z</time>
      </trkpt>
      <trkpt lat="44.89005" lon="6.08327">
        <ele>2120.8</ele>
        <time>2024-08-14T06:47:31Z</time>
      </trkpt>
      <trkpt lat="44.89006" lon="6.0833">
        <ele>2120.4</ele>
        <time>2024-08-14T06:47:32Z</time>
      </trkpt>
      <trkpt lat="44.89006" lon="6.0833">
        <ele>2120.4</ele>
        <time>2024-08-14T06:47:33Z</time>
      </trkpt>
      <trkpt lat="44.89008" lon="6.08332">
        <ele>2120.4</ele>
        <time>2024-08-14T06:47:34Z</time>
      </trkpt>
      <trkpt lat="44.89008" lon="6.08332">
        <ele>2120.4</ele>
        <time>2024-08-14T06:47:35Z</time>
      </trkpt>
      <trkpt lat="44.8901" lon="6.08335">
        <ele>2120.4</ele>
        <time>2024-08-14T06:47:36Z</time>
      </trkpt>
      <trkpt lat="44.8901" lon="6.08335">
        <ele>2120.4</ele>
        <time>2024-08-14T06:47:37Z</time>
      </trkpt>
      <trkpt lat="44.89012" lon="6.08338">
        <ele>2120.4</ele>
        <time>2024-08-14T06:47:38Z</time>
      </trkpt>
      <trkpt lat="44.89012" lon="6.08338">
        <ele>2120.4</ele>
        <time>2024-08-14T06:47:39Z</time>
      </trkpt>
      <trkpt lat="44.89014" lon="6.0834">
        <ele>2120.4</ele>
        <time>2024-08-14T06:47:40Z</time>
      </trkpt>
      <trkpt lat="44.89014" lon="6.0834">
        <ele>2120.2</ele>
        <time>2024-08-14T06:47:41Z</time>
      </trkpt>
      <trkpt lat="44.89016" lon="6.08342">
        <ele>2120.2</ele>
        <time>2024-08-14T06:47:42Z</time>
      </trkpt>
      <trkpt lat="44.89016" lon="6.08342">
        <ele>2120.4</ele>
        <time>2024-08-14T06:47:43Z</time>
      </trkpt>
      <trkpt lat="44.89018" lon="6.08344">
        <ele>2120.4</ele>
        <time>2024-08-14T06:47:44Z</time>
      </trkpt>
      <trkpt lat="44.89018" lon="6.08344">
        <ele>2120.4</ele>
        <time>2024-08-14T06:47:45Z</time>
      </trkpt>
      <trkpt lat="44.89018" lon="6.08344">
        <ele>2120.6</ele>
        <time>2024-08-14T06:47:46Z</time>
      </trkpt>
      <trkpt lat="44.8902" lon="6.08347">
        <ele>2120.8</ele>
        <time>2024-08-14T06:47:47Z</time>
      </trkpt>
      <trkpt lat="44.8902" lon="6.08347">
        <ele>2120.8</ele>
        <time>2024-08-14T06:47:48Z</time>
      </trkpt>
      <trkpt lat="44.89022" lon="6.08349">
        <ele>2121</ele>
        <time>2024-08-14T06:47:49Z</time>
      </trkpt>
      <trkpt lat="44.89022" lon="6.08349">
        <ele>2121.2</ele>
        <time>2024-08-14T06:47:50Z</time>
      </trkpt>
      <trkpt lat="44.89023" lon="6.08351">
        <ele>2121.2</ele>
        <time>2024-08-14T06:47:51Z</time>
      </trkpt>
      <trkpt lat="44.89023" lon="6.08351">
        <ele>2121.2</ele>
        <time>2024-08-14T06:47:52Z</time>
      </trkpt>
      <trkpt lat="44.89023" lon="6.08351">
        <ele>2121.4</ele>
        <time>2024-08-14T06:47:53Z</time>
      </trkpt>
      <trkpt lat="44.89026" lon="6.08353">
        <ele>2121.6</ele>
        <time>2024-08-14T06:47:54Z</time>
      </trkpt>
      <trkpt lat="44.89026" lon="6.08353">
        <ele>2121.8</ele>
        <time>2024-08-14T06:47:55Z</time>
      </trkpt>
      <trkpt lat="44.89028" lon="6.08356">
        <ele>2122</ele>
        <time>2024-08-14T06:47:56Z</time>
      </trkpt>
      <trkpt lat="44.89028" lon="6.08356">
        <ele>2122.2</ele>
        <time>2024-08-14T06:47:57Z</time>
      </trkpt>
      <trkpt lat="44.8903" lon="6.08358">
        <ele>2122.2</ele>
        <time>2024-08-14T06:47:58Z</time>
      </trkpt>
      <trkpt lat="44.8903" lon="6.08358">
        <ele>2122.4</ele>
        <time>2024-08-14T06:47:59Z</time>
      </trkpt>
      <trkpt lat="44.89032" lon="6.08359">
        <ele>2122.4</ele>
        <time>2024-08-14T06:48:00Z</time>
      </trkpt>
      <trkpt lat="44.89032" lon="6.08359">
        <ele>2122.8</ele>
        <time>2024-08-14T06:48:01Z</time>
      </trkpt>
      <trkpt lat="44.89034" lon="6.08361">
        <ele>2123</ele>
        <time>2024-08-14T06:48:02Z</time>
      </trkpt>
      <trkpt lat="44.89034" lon="6.08361">
        <ele>2123</ele>
        <time>2024-08-14T06:48:03Z</time>
      </trkpt>
      <trkpt lat="44.89036" lon="6.08364">
        <ele>2123.4</ele>
        <time>2024-08-14T06:48:04Z</time>
      </trkpt>
      <trkpt lat="44.89036" lon="6.08364">
        <ele>2123.4</ele>
        <time>2024-08-14T06:48:05Z</time>
      </trkpt>
      <trkpt lat="44.89038" lon="6.08366">
        <ele>2123.4</ele>
        <time>2024-08-14T06:48:06Z</time>
      </trkpt>
      <trkpt lat="44.89038" lon="6.08366">
        <ele>2123.8</ele>
        <time>2024-08-14T06:48:07Z</time>
      </trkpt>
      <trkpt lat="44.8904" lon="6.08368">
        <ele>2123.8</ele>
        <time>2024-08-14T06:48:08Z</time>
      </trkpt>
      <trkpt lat="44.8904" lon="6.08368">
        <ele>2124</ele>
        <time>2024-08-14T06:48:09Z</time>
      </trkpt>
      <trkpt lat="44.89042" lon="6.0837">
        <ele>2124</ele>
        <time>2024-08-14T06:48:10Z</time>
      </trkpt>
      <trkpt lat="44.89042" lon="6.0837">
        <ele>2124</ele>
        <time>2024-08-14T06:48:11Z</time>
      </trkpt>
      <trkpt lat="44.89044" lon="6.08372">
        <ele>2124.4</ele>
        <time>2024-08-14T06:48:12Z</time>
      </trkpt>
      <trkpt lat="44.89044" lon="6.08372">
        <ele>2124.4</ele>
        <time>2024-08-14T06:48:13Z</time>
      </trkpt>
      <trkpt lat="44.89046" lon="6.08374">
        <ele>2124.4</ele>
        <time>2024-08-14T06:48:14Z</time>
      </trkpt>
      <trkpt lat="44.89046" lon="6.08374">
        <ele>2124.4</ele>
        <time>2024-08-14T06:48:15Z</time>
      </trkpt>
      <trkpt lat="44.89048" lon="6.08376">
        <ele>2124.2</ele>
        <time>2024-08-14T06:48:16Z</time>
      </trkpt>
      <trkpt lat="44.89048" lon="6.08376">
        <ele>2124.2</ele>
        <time>2024-08-14T06:48:17Z</time>
      </trkpt>
      <trkpt lat="44.8905" lon="6.08378">
        <ele>2124.2</ele>
        <time>2024-08-14T06:48:18Z</time>
      </trkpt>
      <trkpt lat="44.8905" lon="6.08378">
        <ele>2124.2</ele>
        <time>2024-08-14T06:48:19Z</time>
      </trkpt>
      <trkpt lat="44.89052" lon="6.0838">
        <ele>2124</ele>
        <time>2024-08-14T06:48:20Z</time>
      </trkpt>
      <trkpt lat="44.89052" lon="6.0838">
        <ele>2124</ele>
        <time>2024-08-14T06:48:21Z</time>
      </trkpt>
      <trkpt lat="44.89053" lon="6.08382">
        <ele>2124</ele>
        <time>2024-08-14T06:48:22Z</time>
      </trkpt>
      <trkpt lat="44.89053" lon="6.08382">
        <ele>2124.2</ele>
        <time>2024-08-14T06:48:23Z</time>
      </trkpt>
      <trkpt lat="44.89055" lon="6.08384">
        <ele>2124.4</ele>
        <time>2024-08-14T06:48:24Z</time>
      </trkpt>
      <trkpt lat="44.89055" lon="6.08384">
        <ele>2124.4</ele>
        <time>2024-08-14T06:48:25Z</time>
      </trkpt>
      <trkpt lat="44.89056" lon="6.08387">
        <ele>2124.4</ele>
        <time>2024-08-14T06:48:26Z</time>
      </trkpt>
      <trkpt lat="44.89056" lon="6.08387">
        <ele>2124.4</ele>
        <time>2024-08-14T06:48:27Z</time>
      </trkpt>
      <trkpt lat="44.89058" lon="6.08389">
        <ele>2124.4</ele>
        <time>2024-08-14T06:48:28Z</time>
      </trkpt>
      <trkpt lat="44.89058" lon="6.08389">
        <ele>2124.4</ele>
        <time>2024-08-14T06:48:29Z</time>
      </trkpt>
      <trkpt lat="44.8906" lon="6.08392">
        <ele>2124.4</ele>
        <time>2024-08-14T06:48:30Z</time>
      </trkpt>
      <trkpt lat="44.8906" lon="6.08392">
        <ele>2124.4</ele>
        <time>2024-08-14T06:48:31Z</time>
      </trkpt>
      <trkpt lat="44.89061" lon="6.08394">
        <ele>2124.4</ele>
        <time>2024-08-14T06:48:32Z</time>
      </trkpt>
      <trkpt lat="44.89061" lon="6.08394">
        <ele>2124.4</ele>
        <time>2024-08-14T06:48:33Z</time>
      </trkpt>
      <trkpt lat="44.89063" lon="6.08396">
        <ele>2124.4</ele>
        <time>2024-08-14T06:48:34Z</time>
      </trkpt>
      <trkpt lat="44.89063" lon="6.08396">
        <ele>2124.4</ele>
        <time>2024-08-14T06:48:35Z</time>
      </trkpt>
      <trkpt lat="44.89065" lon="6.08399">
        <ele>2124.4</ele>
        <time>2024-08-14T06:48:36Z</time>
      </trkpt>
      <trkpt lat="44.89065" lon="6.08399">
        <ele>2124.2</ele>
        <time>2024-08-14T06:48:37Z</time>
      </trkpt>
      <trkpt lat="44.89067" lon="6.08401">
        <ele>2124.2</ele>
        <time>2024-08-14T06:48:38Z</time>
      </trkpt>
      <trkpt lat="44.89067" lon="6.08401">
        <ele>2124.4</ele>
        <time>2024-08-14T06:48:39Z</time>
      </trkpt>
      <trkpt lat="44.89069" lon="6.08403">
        <ele>2124.6</ele>
        <time>2024-08-14T06:48:40Z</time>
      </trkpt>
      <trkpt lat="44.89069" lon="6.08403">
        <ele>2124.6</ele>
        <time>2024-08-14T06:48:41Z</time>
      </trkpt>
      <trkpt lat="44.8907" lon="6.08405">
        <ele>2124.8</ele>
        <time>2024-08-14T06:48:42Z</time>
      </trkpt>
      <trkpt lat="44.8907" lon="6.08405">
        <ele>2124.8</ele>
        <time>2024-08-14T06:48:43Z</time>
      </trkpt>
      <trkpt lat="44.89072" lon="6.08408">
        <ele>2124.8</ele>
        <time>2024-08-14T06:48:44Z</time>
      </trkpt>
      <trkpt lat="44.89072" lon="6.08408">
        <ele>2125</ele>
        <time>2024-08-14T06:48:45Z</time>
      </trkpt>
      <trkpt lat="44.89073" lon="6.0841">
        <ele>2125.2</ele>
        <time>2024-08-14T06:48:46Z</time>
      </trkpt>
      <trkpt lat="44.89073" lon="6.0841">
        <ele>2125.2</ele>
        <time>2024-08-14T06:48:47Z</time>
      </trkpt>
      <trkpt lat="44.89075" lon="6.08413">
        <ele>2125</ele>
        <time>2024-08-14T06:48:48Z</time>
      </trkpt>
      <trkpt lat="44.89075" lon="6.08413">
        <ele>2125</ele>
        <time>2024-08-14T06:48:49Z</time>
      </trkpt>
      <trkpt lat="44.89077" lon="6.08415">
        <ele>2125.2</ele>
        <time>2024-08-14T06:48:50Z</time>
      </trkpt>
      <trkpt lat="44.89077" lon="6.08415">
        <ele>2125.4</ele>
        <time>2024-08-14T06:48:51Z</time>
      </trkpt>
      <trkpt lat="44.89078" lon="6.08417">
        <ele>2125.4</ele>
        <time>2024-08-14T06:48:52Z</time>
      </trkpt>
      <trkpt lat="44.89078" lon="6.08417">
        <ele>2125.4</ele>
        <time>2024-08-14T06:48:53Z</time>
      </trkpt>
      <trkpt lat="44.8908" lon="6.0842">
        <ele>2125.4</ele>
        <time>2024-08-14T06:48:54Z</time>
      </trkpt>
      <trkpt lat="44.8908" lon="6.0842">
        <ele>2125.4</ele>
        <time>2024-08-14T06:48:55Z</time>
      </trkpt>
      <trkpt lat="44.89082" lon="6.08421">
        <ele>2125.4</ele>
        <time>2024-08-14T06:48:56Z</time>
      </trkpt>
      <trkpt lat="44.89082" lon="6.08421">
        <ele>2125.6</ele>
        <time>2024-08-14T06:48:57Z</time>
      </trkpt>
      <trkpt lat="44.89084" lon="6.08423">
        <ele>2125.6</ele>
        <time>2024-08-14T06:48:58Z</time>
      </trkpt>
      <trkpt lat="44.89084" lon="6.08423">
        <ele>2126</ele>
        <time>2024-08-14T06:48:59Z</time>
      </trkpt>
      <trkpt lat="44.89085" lon="6.08425">
        <ele>2126</ele>
        <time>2024-08-14T06:49:00Z</time>
      </trkpt>
      <trkpt lat="44.89085" lon="6.08425">
        <ele>2126.4</ele>
        <time>2024-08-14T06:49:01Z</time>
      </trkpt>
      <trkpt lat="44.89087" lon="6.08427">
        <ele>2126.6</ele>
        <time>2024-08-14T06:49:02Z</time>
      </trkpt>
      <trkpt lat="44.89087" lon="6.08427">
        <ele>2126.6</ele>
        <time>2024-08-14T06:49:03Z</time>
      </trkpt>
      <trkpt lat="44.89089" lon="6.08428">
        <ele>2126.8</ele>
        <time>2024-08-14T06:49:04Z</time>
      </trkpt>
      <trkpt lat="44.89089" lon="6.08428">
        <ele>2127</ele>
        <time>2024-08-14T06:49:05Z</time>
      </trkpt>
      <trkpt lat="44.89091" lon="6.0843">
        <ele>2127</ele>
        <time>2024-08-14T06:49:06Z</time>
      </trkpt>
      <trkpt lat="44.89091" lon="6.0843">
        <ele>2127</ele>
        <time>2024-08-14T06:49:07Z</time>
      </trkpt>
      <trkpt lat="44.89093" lon="6.08432">
        <ele>2127.2</ele>
        <time>2024-08-14T06:49:08Z</time>
      </trkpt>
      <trkpt lat="44.89093" lon="6.08432">
        <ele>2127.4</ele>
        <time>2024-08-14T06:49:09Z</time>
      </trkpt>
      <trkpt lat="44.89094" lon="6.08436">
        <ele>2127.6</ele>
        <time>2024-08-14T06:49:10Z</time>
      </trkpt>
      <trkpt lat="44.89094" lon="6.08436">
        <ele>2127.6</ele>
        <time>2024-08-14T06:49:11Z</time>
      </trkpt>
      <trkpt lat="44.89093" lon="6.0844">
        <ele>2127.6</ele>
        <time>2024-08-14T06:49:12Z</time>
      </trkpt>
      <trkpt lat="44.89093" lon="6.0844">
        <ele>2127.6</ele>
        <time>2024-08-14T06:49:13Z</time>
      </trkpt>
      <trkpt lat="44.89093" lon="6.08443">
        <ele>2127.6</ele>
        <time>2024-08-14T06:49:14Z</time>
      </trkpt>
      <trkpt lat="44.89093" lon="6.08443">
        <ele>2127.8</ele>
        <time>2024-08-14T06:49:15Z</time>
      </trkpt>
      <trkpt lat="44.89092" lon="6.08446">
        <ele>2127.8</ele>
        <time>2024-08-14T06:49:16Z</time>
      </trkpt>
      <trkpt lat="44.89092" lon="6.08446">
        <ele>2128</ele>
        <time>2024-08-14T06:49:17Z</time>
      </trkpt>
      <trkpt lat="44.89092" lon="6.08449">
        <ele>2128</ele>
        <time>2024-08-14T06:49:18Z</time>
      </trkpt>
      <trkpt lat="44.89092" lon="6.08449">
        <ele>2128</ele>
        <time>2024-08-14T06:49:19Z</time>
      </trkpt>
      <trkpt lat="44.89091" lon="6.08452">
        <ele>2128.6</ele>
        <time>2024-08-14T06:49:20Z</time>
      </trkpt>
      <trkpt lat="44.89091" lon="6.08452">
        <ele>2128.8</ele>
        <time>2024-08-14T06:49:21Z</time>
      </trkpt>
      <trkpt lat="44.89091" lon="6.08455">
        <ele>2129</ele>
        <time>2024-08-14T06:49:22Z</time>
      </trkpt>
      <trkpt lat="44.89091" lon="6.08455">
        <ele>2129</ele>
        <time>2024-08-14T06:49:23Z</time>
      </trkpt>
      <trkpt lat="44.89091" lon="6.08455">
        <ele>2129.2</ele>
        <time>2024-08-14T06:49:24Z</time>
      </trkpt>
      <trkpt lat="44.89092" lon="6.08458">
        <ele>2129.2</ele>
        <time>2024-08-14T06:49:25Z</time>
      </trkpt>
      <trkpt lat="44.89092" lon="6.08458">
        <ele>2130</ele>
        <time>2024-08-14T06:49:26Z</time>
      </trkpt>
      <trkpt lat="44.89093" lon="6.0846">
        <ele>2130</ele>
        <time>2024-08-14T06:49:27Z</time>
      </trkpt>
      <trkpt lat="44.89093" lon="6.0846">
        <ele>2130.2</ele>
        <time>2024-08-14T06:49:28Z</time>
      </trkpt>
      <trkpt lat="44.89093" lon="6.0846">
        <ele>2130.6</ele>
        <time>2024-08-14T06:49:29Z</time>
      </trkpt>
      <trkpt lat="44.89094" lon="6.08465">
        <ele>2130.6</ele>
        <time>2024-08-14T06:49:30Z</time>
      </trkpt>
      <trkpt lat="44.89094" lon="6.08465">
        <ele>2131</ele>
        <time>2024-08-14T06:49:31Z</time>
      </trkpt>
      <trkpt lat="44.89094" lon="6.08468">
        <ele>2131.2</ele>
        <time>2024-08-14T06:49:32Z</time>
      </trkpt>
      <trkpt lat="44.89094" lon="6.08468">
        <ele>2131.4</ele>
        <time>2024-08-14T06:49:33Z</time>
      </trkpt>
      <trkpt lat="44.89095" lon="6.08471">
        <ele>2131.6</ele>
        <time>2024-08-14T06:49:34Z</time>
      </trkpt>
      <trkpt lat="44.89095" lon="6.08471">
        <ele>2131.8</ele>
        <time>2024-08-14T06:49:35Z</time>
      </trkpt>
      <trkpt lat="44.89095" lon="6.08474">
        <ele>2131.8</ele>
        <time>2024-08-14T06:49:36Z</time>
      </trkpt>
      <trkpt lat="44.89095" lon="6.08474">
        <ele>2131.8</ele>
        <time>2024-08-14T06:49:37Z</time>
      </trkpt>
      <trkpt lat="44.89096" lon="6.08478">
        <ele>2131.8</ele>
        <time>2024-08-14T06:49:38Z</time>
      </trkpt>
      <trkpt lat="44.89096" lon="6.08478">
        <ele>2131.6</ele>
        <time>2024-08-14T06:49:39Z</time>
      </trkpt>
      <trkpt lat="44.89096" lon="6.08481">
        <ele>2131.8</ele>
        <time>2024-08-14T06:49:40Z</time>
      </trkpt>
      <trkpt lat="44.89096" lon="6.08481">
        <ele>2132</ele>
        <time>2024-08-14T06:49:41Z</time>
      </trkpt>
      <trkpt lat="44.89096" lon="6.08485">
        <ele>2132.2</ele>
        <time>2024-08-14T06:49:42Z</time>
      </trkpt>
      <trkpt lat="44.89096" lon="6.08485">
        <ele>2132.4</ele>
        <time>2024-08-14T06:49:43Z</time>
      </trkpt>
      <trkpt lat="44.89097" lon="6.08488">
        <ele>2132.4</ele>
        <time>2024-08-14T06:49:44Z</time>
      </trkpt>
      <trkpt lat="44.89097" lon="6.08488">
        <ele>2132.4</ele>
        <time>2024-08-14T06:49:45Z</time>
      </trkpt>
      <trkpt lat="44.89098" lon="6.08492">
        <ele>2132</ele>
        <time>2024-08-14T06:49:46Z</time>
      </trkpt>
      <trkpt lat="44.89098" lon="6.08492">
        <ele>2132</ele>
        <time>2024-08-14T06:49:47Z</time>
      </trkpt>
      <trkpt lat="44.89098" lon="6.08495">
        <ele>2132.2</ele>
        <time>2024-08-14T06:49:48Z</time>
      </trkpt>
      <trkpt lat="44.89098" lon="6.08495">
        <ele>2132.4</ele>
        <time>2024-08-14T06:49:49Z</time>
      </trkpt>
      <trkpt lat="44.89097" lon="6.08498">
        <ele>2132.6</ele>
        <time>2024-08-14T06:49:50Z</time>
      </trkpt>
      <trkpt lat="44.89097" lon="6.08498">
        <ele>2132.8</ele>
        <time>2024-08-14T06:49:51Z</time>
      </trkpt>
      <trkpt lat="44.89098" lon="6.08501">
        <ele>2133</ele>
        <time>2024-08-14T06:49:52Z</time>
      </trkpt>
      <trkpt lat="44.89098" lon="6.08501">
        <ele>2133</ele>
        <time>2024-08-14T06:49:53Z</time>
      </trkpt>
      <trkpt lat="44.89098" lon="6.08504">
        <ele>2133.4</ele>
        <time>2024-08-14T06:49:54Z</time>
      </trkpt>
      <trkpt lat="44.89098" lon="6.08504">
        <ele>2133.6</ele>
        <time>2024-08-14T06:49:55Z</time>
      </trkpt>
      <trkpt lat="44.89098" lon="6.08507">
        <ele>2133.6</ele>
        <time>2024-08-14T06:49:56Z</time>
      </trkpt>
      <trkpt lat="44.89098" lon="6.08507">
        <ele>2133.8</ele>
        <time>2024-08-14T06:49:57Z</time>
      </trkpt>
      <trkpt lat="44.89098" lon="6.08507">
        <ele>2134</ele>
        <time>2024-08-14T06:49:58Z</time>
      </trkpt>
      <trkpt lat="44.89098" lon="6.08511">
        <ele>2134.2</ele>
        <time>2024-08-14T06:49:59Z</time>
      </trkpt>
      <trkpt lat="44.89098" lon="6.08511">
        <ele>2134.4</ele>
        <time>2024-08-14T06:50:00Z</time>
      </trkpt>
      <trkpt lat="44.89098" lon="6.08514">
        <ele>2134.8</ele>
        <time>2024-08-14T06:50:01Z</time>
      </trkpt>
      <trkpt lat="44.89098" lon="6.08514">
        <ele>2134.4</ele>
        <time>2024-08-14T06:50:02Z</time>
      </trkpt>
      <trkpt lat="44.89098" lon="6.08514">
        <ele>2134.4</ele>
        <time>2024-08-14T06:50:03Z</time>
      </trkpt>
      <trkpt lat="44.89097" lon="6.08518">
        <ele>2134.8</ele>
        <time>2024-08-14T06:50:04Z</time>
      </trkpt>
      <trkpt lat="44.89097" lon="6.08518">
        <ele>2135.2</ele>
        <time>2024-08-14T06:50:05Z</time>
      </trkpt>
      <trkpt lat="44.89097" lon="6.08518">
        <ele>2135.6</ele>
        <time>2024-08-14T06:50:06Z</time>
      </trkpt>
      <trkpt lat="44.89098" lon="6.08522">
        <ele>2135.6</ele>
        <time>2024-08-14T06:50:07Z</time>
      </trkpt>
      <trkpt lat="44.89098" lon="6.08522">
        <ele>2136</ele>
        <time>2024-08-14T06:50:08Z</time>
      </trkpt>
      <trkpt lat="44.89098" lon="6.08525">
        <ele>2136.2</ele>
        <time>2024-08-14T06:50:09Z</time>
      </trkpt>
      <trkpt lat="44.89098" lon="6.08525">
        <ele>2136.4</ele>
        <time>2024-08-14T06:50:10Z</time>
      </trkpt>
      <trkpt lat="44.89098" lon="6.08525">
        <ele>2136.6</ele>
        <time>2024-08-14T06:50:11Z</time>
      </trkpt>
      <trkpt lat="44.89097" lon="6.08528">
        <ele>2136.8</ele>
        <time>2024-08-14T06:50:12Z</time>
      </trkpt>
      <trkpt lat="44.89097" lon="6.08528">
        <ele>2137.2</ele>
        <time>2024-08-14T06:50:13Z</time>
      </trkpt>
      <trkpt lat="44.89097" lon="6.08528">
        <ele>2137.4</ele>
        <time>2024-08-14T06:50:14Z</time>
      </trkpt>
      <trkpt lat="44.89097" lon="6.08532">
        <ele>2137.8</ele>
        <time>2024-08-14T06:50:15Z</time>
      </trkpt>
      <trkpt lat="44.89097" lon="6.08532">
        <ele>2138</ele>
        <time>2024-08-14T06:50:16Z</time>
      </trkpt>
      <trkpt lat="44.89096" lon="6.08534">
        <ele>2138</ele>
        <time>2024-08-14T06:50:17Z</time>
      </trkpt>
      <trkpt lat="44.89096" lon="6.08534">
        <ele>2137.8</ele>
        <time>2024-08-14T06:50:18Z</time>
      </trkpt>
      <trkpt lat="44.89096" lon="6.08538">
        <ele>2137.8</ele>
        <time>2024-08-14T06:50:19Z</time>
      </trkpt>
      <trkpt lat="44.89096" lon="6.08538">
        <ele>2138</ele>
        <time>2024-08-14T06:50:20Z</time>
      </trkpt>
      <trkpt lat="44.89095" lon="6.08541">
        <ele>2138.4</ele>
        <time>2024-08-14T06:50:21Z</time>
      </trkpt>
      <trkpt lat="44.89095" lon="6.08541">
        <ele>2138.4</ele>
        <time>2024-08-14T06:50:22Z</time>
      </trkpt>
      <trkpt lat="44.89094" lon="6.08544">
        <ele>2138.6</ele>
        <time>2024-08-14T06:50:23Z</time>
      </trkpt>
      <trkpt lat="44.89094" lon="6.08544">
        <ele>2138.6</ele>
        <time>2024-08-14T06:50:24Z</time>
      </trkpt>
      <trkpt lat="44.89094" lon="6.08547">
        <ele>2138.6</ele>
        <time>2024-08-14T06:50:25Z</time>
      </trkpt>
      <trkpt lat="44.89094" lon="6.08547">
        <ele>2138.8</ele>
        <time>2024-08-14T06:50:26Z</time>
      </trkpt>
      <trkpt lat="44.89094" lon="6.08547">
        <ele>2139</ele>
        <time>2024-08-14T06:50:27Z</time>
      </trkpt>
      <trkpt lat="44.89093" lon="6.08551">
        <ele>2139.2</ele>
        <time>2024-08-14T06:50:28Z</time>
      </trkpt>
      <trkpt lat="44.89093" lon="6.08551">
        <ele>2139.2</ele>
        <time>2024-08-14T06:50:29Z</time>
      </trkpt>
      <trkpt lat="44.89093" lon="6.08553">
        <ele>2139.6</ele>
        <time>2024-08-14T06:50:30Z</time>
      </trkpt>
      <trkpt lat="44.89093" lon="6.08553">
        <ele>2139.6</ele>
        <time>2024-08-14T06:50:31Z</time>
      </trkpt>
      <trkpt lat="44.89093" lon="6.08556">
        <ele>2140</ele>
        <time>2024-08-14T06:50:32Z</time>
      </trkpt>
      <trkpt lat="44.89093" lon="6.08556">
        <ele>2140</ele>
        <time>2024-08-14T06:50:33Z</time>
      </trkpt>
      <trkpt lat="44.89092" lon="6.08559">
        <ele>2140</ele>
        <time>2024-08-14T06:50:34Z</time>
      </trkpt>
      <trkpt lat="44.89092" lon="6.08559">
        <ele>2140.2</ele>
        <time>2024-08-14T06:50:35Z</time>
      </trkpt>
      <trkpt lat="44.89091" lon="6.08561">
        <ele>2140.6</ele>
        <time>2024-08-14T06:50:36Z</time>
      </trkpt>
      <trkpt lat="44.89091" lon="6.08561">
        <ele>2140.6</ele>
        <time>2024-08-14T06:50:37Z</time>
      </trkpt>
      <trkpt lat="44.89091" lon="6.08561">
        <ele>2140.8</ele>
        <time>2024-08-14T06:50:38Z</time>
      </trkpt>
      <trkpt lat="44.89091" lon="6.08561">
        <ele>2141</ele>
        <time>2024-08-14T06:50:39Z</time>
      </trkpt>
      <trkpt lat="44.89091" lon="6.08561">
        <ele>2141.2</ele>
        <time>2024-08-14T06:50:40Z</time>
      </trkpt>
      <trkpt lat="44.89091" lon="6.08561">
        <ele>2141.6</ele>
        <time>2024-08-14T06:50:41Z</time>
      </trkpt>
      <trkpt lat="44.89094" lon="6.08561">
        <ele>2141.6</ele>
        <time>2024-08-14T06:50:42Z</time>
      </trkpt>
      <trkpt lat="44.89094" lon="6.08561">
        <ele>2141.6</ele>
        <time>2024-08-14T06:50:43Z</time>
      </trkpt>
      <trkpt lat="44.89094" lon="6.08561">
        <ele>2142</ele>
        <time>2024-08-14T06:50:44Z</time>
      </trkpt>
      <trkpt lat="44.89096" lon="6.08559">
        <ele>2142.2</ele>
        <time>2024-08-14T06:50:45Z</time>
      </trkpt>
      <trkpt lat="44.89096" lon="6.08559">
        <ele>2142.2</ele>
        <time>2024-08-14T06:50:46Z</time>
      </trkpt>
      <trkpt lat="44.89098" lon="6.08557">
        <ele>2142.2</ele>
        <time>2024-08-14T06:50:47Z</time>
      </trkpt>
      <trkpt lat="44.89098" lon="6.08557">
        <ele>2142.6</ele>
        <time>2024-08-14T06:50:48Z</time>
      </trkpt>
      <trkpt lat="44.891" lon="6.08555">
        <ele>2142.6</ele>
        <time>2024-08-14T06:50:49Z</time>
      </trkpt>
      <trkpt lat="44.891" lon="6.08555">
        <ele>2142.8</ele>
        <time>2024-08-14T06:50:50Z</time>
      </trkpt>
      <trkpt lat="44.89101" lon="6.08554">
        <ele>2142.8</ele>
        <time>2024-08-14T06:50:51Z</time>
      </trkpt>
      <trkpt lat="44.89101" lon="6.08554">
        <ele>2143</ele>
        <time>2024-08-14T06:50:52Z</time>
      </trkpt>
      <trkpt lat="44.89103" lon="6.08552">
        <ele>2143.2</ele>
        <time>2024-08-14T06:50:53Z</time>
      </trkpt>
      <trkpt lat="44.89103" lon="6.08552">
        <ele>2143.6</ele>
        <time>2024-08-14T06:50:54Z</time>
      </trkpt>
      <trkpt lat="44.89104" lon="6.0855">
        <ele>2143.8</ele>
        <time>2024-08-14T06:50:55Z</time>
      </trkpt>
      <trkpt lat="44.89104" lon="6.0855">
        <ele>2144</ele>
        <time>2024-08-14T06:50:56Z</time>
      </trkpt>
      <trkpt lat="44.89106" lon="6.08549">
        <ele>2144.2</ele>
        <time>2024-08-14T06:50:57Z</time>
      </trkpt>
      <trkpt lat="44.89106" lon="6.08549">
        <ele>2144.2</ele>
        <time>2024-08-14T06:50:58Z</time>
      </trkpt>
      <trkpt lat="44.89108" lon="6.08547">
        <ele>2144.2</ele>
        <time>2024-08-14T06:50:59Z</time>
      </trkpt>
      <trkpt lat="44.89108" lon="6.08547">
        <ele>2144.6</ele>
        <time>2024-08-14T06:51:00Z</time>
      </trkpt>
      <trkpt lat="44.89109" lon="6.08545">
        <ele>2144.6</ele>
        <time>2024-08-14T06:51:01Z</time>
      </trkpt>
      <trkpt lat="44.89109" lon="6.08545">
        <ele>2144.4</ele>
        <time>2024-08-14T06:51:02Z</time>
      </trkpt>
      <trkpt lat="44.89111" lon="6.08543">
        <ele>2144.4</ele>
        <time>2024-08-14T06:51:03Z</time>
      </trkpt>
      <trkpt lat="44.89111" lon="6.08543">
        <ele>2144.6</ele>
        <time>2024-08-14T06:51:04Z</time>
      </trkpt>
      <trkpt lat="44.89114" lon="6.08541">
        <ele>2144.8</ele>
        <time>2024-08-14T06:51:05Z</time>
      </trkpt>
      <trkpt lat="44.89114" lon="6.08541">
        <ele>2144.8</ele>
        <time>2024-08-14T06:51:06Z</time>
      </trkpt>
      <trkpt lat="44.89115" lon="6.08539">
        <ele>2145</ele>
        <time>2024-08-14T06:51:07Z</time>
      </trkpt>
      <trkpt lat="44.89115" lon="6.08539">
        <ele>2145</ele>
        <time>2024-08-14T06:51:08Z</time>
      </trkpt>
      <trkpt lat="44.89117" lon="6.08537">
        <ele>2145</ele>
        <time>2024-08-14T06:51:09Z</time>
      </trkpt>
      <trkpt lat="44.89117" lon="6.08537">
        <ele>2145.2</ele>
        <time>2024-08-14T06:51:10Z</time>
      </trkpt>
      <trkpt lat="44.89119" lon="6.08536">
        <ele>2145.4</ele>
        <time>2024-08-14T06:51:11Z</time>
      </trkpt>
      <trkpt lat="44.89119" lon="6.08536">
        <ele>2145.6</ele>
        <time>2024-08-14T06:51:12Z</time>
      </trkpt>
      <trkpt lat="44.89121" lon="6.08534">
        <ele>2145.6</ele>
        <time>2024-08-14T06:51:13Z</time>
      </trkpt>
      <trkpt lat="44.89121" lon="6.08534">
        <ele>2146</ele>
        <time>2024-08-14T06:51:14Z</time>
      </trkpt>
      <trkpt lat="44.89122" lon="6.08531">
        <ele>2146.6</ele>
        <time>2024-08-14T06:51:15Z</time>
      </trkpt>
      <trkpt lat="44.89122" lon="6.08531">
        <ele>2146.8</ele>
        <time>2024-08-14T06:51:16Z</time>
      </trkpt>
      <trkpt lat="44.89124" lon="6.08528">
        <ele>2146.8</ele>
        <time>2024-08-14T06:51:17Z</time>
      </trkpt>
      <trkpt lat="44.89124" lon="6.08528">
        <ele>2146.8</ele>
        <time>2024-08-14T06:51:18Z</time>
      </trkpt>
      <trkpt lat="44.89125" lon="6.08526">
        <ele>2146.8</ele>
        <time>2024-08-14T06:51:19Z</time>
      </trkpt>
      <trkpt lat="44.89125" lon="6.08526">
        <ele>2146.8</ele>
        <time>2024-08-14T06:51:20Z</time>
      </trkpt>
      <trkpt lat="44.89126" lon="6.08523">
        <ele>2147</ele>
        <time>2024-08-14T06:51:21Z</time>
      </trkpt>
      <trkpt lat="44.89126" lon="6.08523">
        <ele>2147</ele>
        <time>2024-08-14T06:51:22Z</time>
      </trkpt>
      <trkpt lat="44.89128" lon="6.08521">
        <ele>2147.4</ele>
        <time>2024-08-14T06:51:23Z</time>
      </trkpt>
      <trkpt lat="44.89128" lon="6.08521">
        <ele>2147.6</ele>
        <time>2024-08-14T06:51:24Z</time>
      </trkpt>
      <trkpt lat="44.8913" lon="6.08519">
        <ele>2147.6</ele>
        <time>2024-08-14T06:51:25Z</time>
      </trkpt>
      <trkpt lat="44.8913" lon="6.08519">
        <ele>2147.6</ele>
        <time>2024-08-14T06:51:26Z</time>
      </trkpt>
      <trkpt lat="44.89131" lon="6.08517">
        <ele>2147.6</ele>
        <time>2024-08-14T06:51:27Z</time>
      </trkpt>
      <trkpt lat="44.89131" lon="6.08517">
        <ele>2147.8</ele>
        <time>2024-08-14T06:51:28Z</time>
      </trkpt>
      <trkpt lat="44.89131" lon="6.08517">
        <ele>2147.8</ele>
        <time>2024-08-14T06:51:29Z</time>
      </trkpt>
      <trkpt lat="44.89133" lon="6.08513">
        <ele>2148.2</ele>
        <time>2024-08-14T06:51:30Z</time>
      </trkpt>
      <trkpt lat="44.89133" lon="6.08513">
        <ele>2148.4</ele>
        <time>2024-08-14T06:51:31Z</time>
      </trkpt>
      <trkpt lat="44.89133" lon="6.08513">
        <ele>2148.4</ele>
        <time>2024-08-14T06:51:32Z</time>
      </trkpt>
      <trkpt lat="44.89135" lon="6.0851">
        <ele>2148.6</ele>
        <time>2024-08-14T06:51:33Z</time>
      </trkpt>
      <trkpt lat="44.89135" lon="6.0851">
        <ele>2148.6</ele>
        <time>2024-08-14T06:51:34Z</time>
      </trkpt>
      <trkpt lat="44.89135" lon="6.08508">
        <ele>2148.6</ele>
        <time>2024-08-14T06:51:35Z</time>
      </trkpt>
      <trkpt lat="44.89135" lon="6.08508">
        <ele>2149</ele>
        <time>2024-08-14T06:51:36Z</time>
      </trkpt>
      <trkpt lat="44.89135" lon="6.08508">
        <ele>2149.2</ele>
        <time>2024-08-14T06:51:37Z</time>
      </trkpt>
      <trkpt lat="44.89135" lon="6.08504">
        <ele>2149.6</ele>
        <time>2024-08-14T06:51:38Z</time>
      </trkpt>
      <trkpt lat="44.89135" lon="6.08504">
        <ele>2149.6</ele>
        <time>2024-08-14T06:51:39Z</time>
      </trkpt>
      <trkpt lat="44.89136" lon="6.08501">
        <ele>2150</ele>
        <time>2024-08-14T06:51:40Z</time>
      </trkpt>
      <trkpt lat="44.89136" lon="6.08501">
        <ele>2150.2</ele>
        <time>2024-08-14T06:51:41Z</time>
      </trkpt>
      <trkpt lat="44.89138" lon="6.08499">
        <ele>2150.4</ele>
        <time>2024-08-14T06:51:42Z</time>
      </trkpt>
      <trkpt lat="44.89138" lon="6.08499">
        <ele>2150.6</ele>
        <time>2024-08-14T06:51:43Z</time>
      </trkpt>
      <trkpt lat="44.89139" lon="6.08497">
        <ele>2150.8</ele>
        <time>2024-08-14T06:51:44Z</time>
      </trkpt>
      <trkpt lat="44.89139" lon="6.08497">
        <ele>2150.8</ele>
        <time>2024-08-14T06:51:45Z</time>
      </trkpt>
      <trkpt lat="44.89139" lon="6.08497">
        <ele>2151</ele>
        <time>2024-08-14T06:51:46Z</time>
      </trkpt>
      <trkpt lat="44.89139" lon="6.08493">
        <ele>2151.4</ele>
        <time>2024-08-14T06:51:47Z</time>
      </trkpt>
      <trkpt lat="44.89139" lon="6.08493">
        <ele>2151.4</ele>
        <time>2024-08-14T06:51:48Z</time>
      </trkpt>
      <trkpt lat="44.89139" lon="6.08493">
        <ele>2151.4</ele>
        <time>2024-08-14T06:51:49Z</time>
      </trkpt>
      <trkpt lat="44.8914" lon="6.08489">
        <ele>2151.6</ele>
        <time>2024-08-14T06:51:50Z</time>
      </trkpt>
      <trkpt lat="44.8914" lon="6.08489">
        <ele>2151.8</ele>
        <time>2024-08-14T06:51:51Z</time>
      </trkpt>
      <trkpt lat="44.89141" lon="6.08487">
        <ele>2151.8</ele>
        <time>2024-08-14T06:51:52Z</time>
      </trkpt>
      <trkpt lat="44.89141" lon="6.08487">
        <ele>2152.4</ele>
        <time>2024-08-14T06:51:53Z</time>
      </trkpt>
      <trkpt lat="44.89141" lon="6.08487">
        <ele>2152.4</ele>
        <time>2024-08-14T06:51:54Z</time>
      </trkpt>
      <trkpt lat="44.89142" lon="6.08483">
        <ele>2152.6</ele>
        <time>2024-08-14T06:51:55Z</time>
      </trkpt>
      <trkpt lat="44.89142" lon="6.08483">
        <ele>2153</ele>
        <time>2024-08-14T06:51:56Z</time>
      </trkpt>
      <trkpt lat="44.89143" lon="6.08481">
        <ele>2153.2</ele>
        <time>2024-08-14T06:51:57Z</time>
      </trkpt>
      <trkpt lat="44.89143" lon="6.08481">
        <ele>2153.4</ele>
        <time>2024-08-14T06:51:58Z</time>
      </trkpt>
      <trkpt lat="44.89143" lon="6.08481">
        <ele>2153.6</ele>
        <time>2024-08-14T06:51:59Z</time>
      </trkpt>
      <trkpt lat="44.89144" lon="6.08478">
        <ele>2153.8</ele>
        <time>2024-08-14T06:52:00Z</time>
      </trkpt>
      <trkpt lat="44.89144" lon="6.08478">
        <ele>2153.8</ele>
        <time>2024-08-14T06:52:01Z</time>
      </trkpt>
      <trkpt lat="44.89144" lon="6.08478">
        <ele>2154.4</ele>
        <time>2024-08-14T06:52:02Z</time>
      </trkpt>
      <trkpt lat="44.89145" lon="6.08475">
        <ele>2154.4</ele>
        <time>2024-08-14T06:52:03Z</time>
      </trkpt>
      <trkpt lat="44.89145" lon="6.08475">
        <ele>2154.6</ele>
        <time>2024-08-14T06:52:04Z</time>
      </trkpt>
      <trkpt lat="44.89145" lon="6.08475">
        <ele>2154.6</ele>
        <time>2024-08-14T06:52:05Z</time>
      </trkpt>
      <trkpt lat="44.89145" lon="6.08471">
        <ele>2154.8</ele>
        <time>2024-08-14T06:52:06Z</time>
      </trkpt>
      <trkpt lat="44.89145" lon="6.08471">
        <ele>2155.2</ele>
        <time>2024-08-14T06:52:07Z</time>
      </trkpt>
      <trkpt lat="44.89145" lon="6.08471">
        <ele>2155.2</ele>
        <time>2024-08-14T06:52:08Z</time>
      </trkpt>
      <trkpt lat="44.89146" lon="6.08467">
        <ele>2155.4</ele>
        <time>2024-08-14T06:52:09Z</time>
      </trkpt>
      <trkpt lat="44.89146" lon="6.08467">
        <ele>2156</ele>
        <time>2024-08-14T06:52:10Z</time>
      </trkpt>
      <trkpt lat="44.89146" lon="6.08464">
        <ele>2156</ele>
        <time>2024-08-14T06:52:11Z</time>
      </trkpt>
      <trkpt lat="44.89146" lon="6.08464">
        <ele>2156</ele>
        <time>2024-08-14T06:52:12Z</time>
      </trkpt>
      <trkpt lat="44.89146" lon="6.08461">
        <ele>2156.6</ele>
        <time>2024-08-14T06:52:13Z</time>
      </trkpt>
      <trkpt lat="44.89146" lon="6.08461">
        <ele>2156.6</ele>
        <time>2024-08-14T06:52:14Z</time>
      </trkpt>
      <trkpt lat="44.89146" lon="6.08459">
        <ele>2156.8</ele>
        <time>2024-08-14T06:52:15Z</time>
      </trkpt>
      <trkpt lat="44.89146" lon="6.08459">
        <ele>2157</ele>
        <time>2024-08-14T06:52:16Z</time>
      </trkpt>
      <trkpt lat="44.89147" lon="6.08455">
        <ele>2157</ele>
        <time>2024-08-14T06:52:17Z</time>
      </trkpt>
      <trkpt lat="44.89147" lon="6.08455">
        <ele>2157</ele>
        <time>2024-08-14T06:52:18Z</time>
      </trkpt>
      <trkpt lat="44.89147" lon="6.08453">
        <ele>2157.2</ele>
        <time>2024-08-14T06:52:19Z</time>
      </trkpt>
      <trkpt lat="44.89147" lon="6.08453">
        <ele>2157.4</ele>
        <time>2024-08-14T06:52:20Z</time>
      </trkpt>
      <trkpt lat="44.89147" lon="6.08453">
        <ele>2157.6</ele>
        <time>2024-08-14T06:52:21Z</time>
      </trkpt>
      <trkpt lat="44.89148" lon="6.08449">
        <ele>2157.6</ele>
        <time>2024-08-14T06:52:22Z</time>
      </trkpt>
      <trkpt lat="44.89148" lon="6.08449">
        <ele>2158</ele>
        <time>2024-08-14T06:52:23Z</time>
      </trkpt>
      <trkpt lat="44.89149" lon="6.08446">
        <ele>2158</ele>
        <time>2024-08-14T06:52:24Z</time>
      </trkpt>
      <trkpt lat="44.89149" lon="6.08446">
        <ele>2158.2</ele>
        <time>2024-08-14T06:52:25Z</time>
      </trkpt>
      <trkpt lat="44.89149" lon="6.08446">
        <ele>2158.2</ele>
        <time>2024-08-14T06:52:26Z</time>
      </trkpt>
      <trkpt lat="44.8915" lon="6.08443">
        <ele>2158.4</ele>
        <time>2024-08-14T06:52:27Z</time>
      </trkpt>
      <trkpt lat="44.8915" lon="6.08443">
        <ele>2158.4</ele>
        <time>2024-08-14T06:52:28Z</time>
      </trkpt>
      <trkpt lat="44.89151" lon="6.0844">
        <ele>2158.8</ele>
        <time>2024-08-14T06:52:29Z</time>
      </trkpt>
      <trkpt lat="44.89151" lon="6.0844">
        <ele>2159</ele>
        <time>2024-08-14T06:52:30Z</time>
      </trkpt>
      <trkpt lat="44.89151" lon="6.08437">
        <ele>2159.6</ele>
        <time>2024-08-14T06:52:31Z</time>
      </trkpt>
      <trkpt lat="44.89151" lon="6.08437">
        <ele>2159.6</ele>
        <time>2024-08-14T06:52:32Z</time>
      </trkpt>
      <trkpt lat="44.89152" lon="6.08434">
        <ele>2159.4</ele>
        <time>2024-08-14T06:52:33Z</time>
      </trkpt>
      <trkpt lat="44.89152" lon="6.08434">
        <ele>2159.4</ele>
        <time>2024-08-14T06:52:34Z</time>
      </trkpt>
      <trkpt lat="44.89153" lon="6.08432">
        <ele>2159.8</ele>
        <time>2024-08-14T06:52:35Z</time>
      </trkpt>
      <trkpt lat="44.89153" lon="6.08432">
        <ele>2160</ele>
        <time>2024-08-14T06:52:36Z</time>
      </trkpt>
      <trkpt lat="44.89154" lon="6.08429">
        <ele>2160</ele>
        <time>2024-08-14T06:52:37Z</time>
      </trkpt>
      <trkpt lat="44.89154" lon="6.08429">
        <ele>2160</ele>
        <time>2024-08-14T06:52:38Z</time>
      </trkpt>
      <trkpt lat="44.89155" lon="6.08426">
        <ele>2160.2</ele>
        <time>2024-08-14T06:52:39Z</time>
      </trkpt>
      <trkpt lat="44.89155" lon="6.08426">
        <ele>2160.2</ele>
        <time>2024-08-14T06:52:40Z</time>
      </trkpt>
      <trkpt lat="44.89155" lon="6.08423">
        <ele>2160.2</ele>
        <time>2024-08-14T06:52:41Z</time>
      </trkpt>
      <trkpt lat="44.89155" lon="6.08423">
        <ele>2160.4</ele>
        <time>2024-08-14T06:52:42Z</time>
      </trkpt>
      <trkpt lat="44.89155" lon="6.0842">
        <ele>2160.8</ele>
        <time>2024-08-14T06:52:43Z</time>
      </trkpt>
      <trkpt lat="44.89155" lon="6.0842">
        <ele>2161</ele>
        <time>2024-08-14T06:52:44Z</time>
      </trkpt>
      <trkpt lat="44.89155" lon="6.08417">
        <ele>2161</ele>
        <time>2024-08-14T06:52:45Z</time>
      </trkpt>
      <trkpt lat="44.89155" lon="6.08417">
        <ele>2161</ele>
        <time>2024-08-14T06:52:46Z</time>
      </trkpt>
      <trkpt lat="44.89155" lon="6.08417">
        <ele>2161.2</ele>
        <time>2024-08-14T06:52:47Z</time>
      </trkpt>
      <trkpt lat="44.89157" lon="6.08416">
        <ele>2161.4</ele>
        <time>2024-08-14T06:52:48Z</time>
      </trkpt>
      <trkpt lat="44.89157" lon="6.08416">
        <ele>2161.8</ele>
        <time>2024-08-14T06:52:49Z</time>
      </trkpt>
      <trkpt lat="44.89158" lon="6.08418">
        <ele>2162.2</ele>
        <time>2024-08-14T06:52:50Z</time>
      </trkpt>
      <trkpt lat="44.89158" lon="6.08418">
        <ele>2162.4</ele>
        <time>2024-08-14T06:52:51Z</time>
      </trkpt>
      <trkpt lat="44.89159" lon="6.08421">
        <ele>2162.6</ele>
        <time>2024-08-14T06:52:52Z</time>
      </trkpt>
      <trkpt lat="44.89159" lon="6.08421">
        <ele>2162.6</ele>
        <time>2024-08-14T06:52:53Z</time>
      </trkpt>
      <trkpt lat="44.8916" lon="6.08424">
        <ele>2163</ele>
        <time>2024-08-14T06:52:54Z</time>
      </trkpt>
      <trkpt lat="44.8916" lon="6.08424">
        <ele>2163</ele>
        <time>2024-08-14T06:52:55Z</time>
      </trkpt>
      <trkpt lat="44.89161" lon="6.08427">
        <ele>2163.2</ele>
        <time>2024-08-14T06:52:56Z</time>
      </trkpt>
      <trkpt lat="44.89161" lon="6.08427">
        <ele>2163.2</ele>
        <time>2024-08-14T06:52:57Z</time>
      </trkpt>
      <trkpt lat="44.89162" lon="6.0843">
        <ele>2163.6</ele>
        <time>2024-08-14T06:52:58Z</time>
      </trkpt>
      <trkpt lat="44.89162" lon="6.0843">
        <ele>2163.8</ele>
        <time>2024-08-14T06:52:59Z</time>
      </trkpt>
      <trkpt lat="44.89162" lon="6.0843">
        <ele>2163.8</ele>
        <time>2024-08-14T06:53:00Z</time>
      </trkpt>
      <trkpt lat="44.89163" lon="6.08434">
        <ele>2164</ele>
        <time>2024-08-14T06:53:01Z</time>
      </trkpt>
      <trkpt lat="44.89163" lon="6.08434">
        <ele>2164.4</ele>
        <time>2024-08-14T06:53:02Z</time>
      </trkpt>
      <trkpt lat="44.89163" lon="6.08434">
        <ele>2164.4</ele>
        <time>2024-08-14T06:53:03Z</time>
      </trkpt>
      <trkpt lat="44.89163" lon="6.08438">
        <ele>2164.6</ele>
        <time>2024-08-14T06:53:04Z</time>
      </trkpt>
      <trkpt lat="44.89163" lon="6.08438">
        <ele>2164.8</ele>
        <time>2024-08-14T06:53:05Z</time>
      </trkpt>
      <trkpt lat="44.89163" lon="6.0844">
        <ele>2165.2</ele>
        <time>2024-08-14T06:53:06Z</time>
      </trkpt>
      <trkpt lat="44.89163" lon="6.0844">
        <ele>2165.4</ele>
        <time>2024-08-14T06:53:07Z</time>
      </trkpt>
      <trkpt lat="44.89164" lon="6.08444">
        <ele>2165.6</ele>
        <time>2024-08-14T06:53:08Z</time>
      </trkpt>
      <trkpt lat="44.89164" lon="6.08444">
        <ele>2165.6</ele>
        <time>2024-08-14T06:53:09Z</time>
      </trkpt>
      <trkpt lat="44.89165" lon="6.08446">
        <ele>2165.6</ele>
        <time>2024-08-14T06:53:10Z</time>
      </trkpt>
      <trkpt lat="44.89165" lon="6.08446">
        <ele>2166</ele>
        <time>2024-08-14T06:53:11Z</time>
      </trkpt>
      <trkpt lat="44.89166" lon="6.08449">
        <ele>2166</ele>
        <time>2024-08-14T06:53:12Z</time>
      </trkpt>
      <trkpt lat="44.89166" lon="6.08449">
        <ele>2166.2</ele>
        <time>2024-08-14T06:53:13Z</time>
      </trkpt>
      <trkpt lat="44.89167" lon="6.08452">
        <ele>2166.4</ele>
        <time>2024-08-14T06:53:14Z</time>
      </trkpt>
      <trkpt lat="44.89167" lon="6.08452">
        <ele>2166.6</ele>
        <time>2024-08-14T06:53:15Z</time>
      </trkpt>
      <trkpt lat="44.89168" lon="6.08455">
        <ele>2166.6</ele>
        <time>2024-08-14T06:53:16Z</time>
      </trkpt>
      <trkpt lat="44.89168" lon="6.08455">
        <ele>2166.8</ele>
        <time>2024-08-14T06:53:17Z</time>
      </trkpt>
      <trkpt lat="44.89169" lon="6.08458">
        <ele>2166.8</ele>
        <time>2024-08-14T06:53:18Z</time>
      </trkpt>
      <trkpt lat="44.89169" lon="6.08458">
        <ele>2166.8</ele>
        <time>2024-08-14T06:53:19Z</time>
      </trkpt>
      <trkpt lat="44.8917" lon="6.08461">
        <ele>2166.8</ele>
        <time>2024-08-14T06:53:20Z</time>
      </trkpt>
      <trkpt lat="44.8917" lon="6.08461">
        <ele>2167</ele>
        <time>2024-08-14T06:53:21Z</time>
      </trkpt>
      <trkpt lat="44.89171" lon="6.08463">
        <ele>2167.2</ele>
        <time>2024-08-14T06:53:22Z</time>
      </trkpt>
      <trkpt lat="44.89171" lon="6.08463">
        <ele>2167.2</ele>
        <time>2024-08-14T06:53:23Z</time>
      </trkpt>
      <trkpt lat="44.89172" lon="6.08466">
        <ele>2167.6</ele>
        <time>2024-08-14T06:53:24Z</time>
      </trkpt>
      <trkpt lat="44.89172" lon="6.08466">
        <ele>2167.6</ele>
        <time>2024-08-14T06:53:25Z</time>
      </trkpt>
      <trkpt lat="44.89173" lon="6.08468">
        <ele>2167.8</ele>
        <time>2024-08-14T06:53:26Z</time>
      </trkpt>
      <trkpt lat="44.89173" lon="6.08468">
        <ele>2168.4</ele>
        <time>2024-08-14T06:53:27Z</time>
      </trkpt>
      <trkpt lat="44.89173" lon="6.08468">
        <ele>2168.6</ele>
        <time>2024-08-14T06:53:28Z</time>
      </trkpt>
      <trkpt lat="44.89174" lon="6.08472">
        <ele>2168.8</ele>
        <time>2024-08-14T06:53:29Z</time>
      </trkpt>
      <trkpt lat="44.89174" lon="6.08472">
        <ele>2168.8</ele>
        <time>2024-08-14T06:53:30Z</time>
      </trkpt>
      <trkpt lat="44.89175" lon="6.08474">
        <ele>2168.8</ele>
        <time>2024-08-14T06:53:31Z</time>
      </trkpt>
      <trkpt lat="44.89175" lon="6.08474">
        <ele>2169</ele>
        <time>2024-08-14T06:53:32Z</time>
      </trkpt>
      <trkpt lat="44.89177" lon="6.08476">
        <ele>2169.2</ele>
        <time>2024-08-14T06:53:33Z</time>
      </trkpt>
      <trkpt lat="44.89177" lon="6.08476">
        <ele>2169.4</ele>
        <time>2024-08-14T06:53:34Z</time>
      </trkpt>
      <trkpt lat="44.89178" lon="6.08479">
        <ele>2169.8</ele>
        <time>2024-08-14T06:53:35Z</time>
      </trkpt>
      <trkpt lat="44.89178" lon="6.08479">
        <ele>2169.8</ele>
        <time>2024-08-14T06:53:36Z</time>
      </trkpt>
      <trkpt lat="44.89179" lon="6.08482">
        <ele>2170.2</ele>
        <time>2024-08-14T06:53:37Z</time>
      </trkpt>
      <trkpt lat="44.89179" lon="6.08482">
        <ele>2170.2</ele>
        <time>2024-08-14T06:53:38Z</time>
      </trkpt>
      <trkpt lat="44.89181" lon="6.08484">
        <ele>2170.4</ele>
        <time>2024-08-14T06:53:39Z</time>
      </trkpt>
      <trkpt lat="44.89181" lon="6.08484">
        <ele>2170.4</ele>
        <time>2024-08-14T06:53:40Z</time>
      </trkpt>
      <trkpt lat="44.89181" lon="6.08487">
        <ele>2170.4</ele>
        <time>2024-08-14T06:53:41Z</time>
      </trkpt>
      <trkpt lat="44.89181" lon="6.08487">
        <ele>2170.4</ele>
        <time>2024-08-14T06:53:42Z</time>
      </trkpt>
      <trkpt lat="44.89183" lon="6.0849">
        <ele>2170.8</ele>
        <time>2024-08-14T06:53:43Z</time>
      </trkpt>
      <trkpt lat="44.89183" lon="6.0849">
        <ele>2171</ele>
        <time>2024-08-14T06:53:44Z</time>
      </trkpt>
      <trkpt lat="44.89183" lon="6.08492">
        <ele>2171.2</ele>
        <time>2024-08-14T06:53:45Z</time>
      </trkpt>
      <trkpt lat="44.89183" lon="6.08492">
        <ele>2171.2</ele>
        <time>2024-08-14T06:53:46Z</time>
      </trkpt>
      <trkpt lat="44.89185" lon="6.08496">
        <ele>2171.4</ele>
        <time>2024-08-14T06:53:47Z</time>
      </trkpt>
      <trkpt lat="44.89185" lon="6.08496">
        <ele>2171.4</ele>
        <time>2024-08-14T06:53:48Z</time>
      </trkpt>
      <trkpt lat="44.89186" lon="6.08498">
        <ele>2171.8</ele>
        <time>2024-08-14T06:53:49Z</time>
      </trkpt>
      <trkpt lat="44.89186" lon="6.08498">
        <ele>2171.8</ele>
        <time>2024-08-14T06:53:50Z</time>
      </trkpt>
      <trkpt lat="44.89187" lon="6.08501">
        <ele>2171.8</ele>
        <time>2024-08-14T06:53:51Z</time>
      </trkpt>
      <trkpt lat="44.89187" lon="6.08501">
        <ele>2171.8</ele>
        <time>2024-08-14T06:53:52Z</time>
      </trkpt>
      <trkpt lat="44.89188" lon="6.08503">
        <ele>2172.2</ele>
        <time>2024-08-14T06:53:53Z</time>
      </trkpt>
      <trkpt lat="44.89188" lon="6.08503">
        <ele>2172.4</ele>
        <time>2024-08-14T06:53:54Z</time>
      </trkpt>
      <trkpt lat="44.89189" lon="6.08506">
        <ele>2172.4</ele>
        <time>2024-08-14T06:53:55Z</time>
      </trkpt>
      <trkpt lat="44.89189" lon="6.08506">
        <ele>2172.6</ele>
        <time>2024-08-14T06:53:56Z</time>
      </trkpt>
      <trkpt lat="44.89189" lon="6.08509">
        <ele>2172.8</ele>
        <time>2024-08-14T06:53:57Z</time>
      </trkpt>
      <trkpt lat="44.89189" lon="6.08509">
        <ele>2173</ele>
        <time>2024-08-14T06:53:58Z</time>
      </trkpt>
      <trkpt lat="44.89191" lon="6.08511">
        <ele>2173</ele>
        <time>2024-08-14T06:53:59Z</time>
      </trkpt>
      <trkpt lat="44.89191" lon="6.08511">
        <ele>2173</ele>
        <time>2024-08-14T06:54:00Z</time>
      </trkpt>
      <trkpt lat="44.89192" lon="6.08514">
        <ele>2173.2</ele>
        <time>2024-08-14T06:54:01Z</time>
      </trkpt>
      <trkpt lat="44.89192" lon="6.08514">
        <ele>2173.6</ele>
        <time>2024-08-14T06:54:02Z</time>
      </trkpt>
      <trkpt lat="44.89193" lon="6.08516">
        <ele>2173.6</ele>
        <time>2024-08-14T06:54:03Z</time>
      </trkpt>
      <trkpt lat="44.89193" lon="6.08516">
        <ele>2174</ele>
        <time>2024-08-14T06:54:04Z</time>
      </trkpt>
      <trkpt lat="44.89194" lon="6.08519">
        <ele>2174</ele>
        <time>2024-08-14T06:54:05Z</time>
      </trkpt>
      <trkpt lat="44.89194" lon="6.08519">
        <ele>2174</ele>
        <time>2024-08-14T06:54:06Z</time>
      </trkpt>
      <trkpt lat="44.89195" lon="6.08522">
        <ele>2174</ele>
        <time>2024-08-14T06:54:07Z</time>
      </trkpt>
      <trkpt lat="44.89195" lon="6.08522">
        <ele>2174.2</ele>
        <time>2024-08-14T06:54:08Z</time>
      </trkpt>
      <trkpt lat="44.89195" lon="6.08525">
        <ele>2174.8</ele>
        <time>2024-08-14T06:54:09Z</time>
      </trkpt>
      <trkpt lat="44.89195" lon="6.08525">
        <ele>2175</ele>
        <time>2024-08-14T06:54:10Z</time>
      </trkpt>
      <trkpt lat="44.89197" lon="6.08527">
        <ele>2175</ele>
        <time>2024-08-14T06:54:11Z</time>
      </trkpt>
      <trkpt lat="44.89197" lon="6.08527">
        <ele>2175.2</ele>
        <time>2024-08-14T06:54:12Z</time>
      </trkpt>
      <trkpt lat="44.89197" lon="6.0853">
        <ele>2175.4</ele>
        <time>2024-08-14T06:54:13Z</time>
      </trkpt>
      <trkpt lat="44.89197" lon="6.0853">
        <ele>2175.4</ele>
        <time>2024-08-14T06:54:14Z</time>
      </trkpt>
      <trkpt lat="44.89199" lon="6.08533">
        <ele>2175.8</ele>
        <time>2024-08-14T06:54:15Z</time>
      </trkpt>
      <trkpt lat="44.89199" lon="6.08533">
        <ele>2176</ele>
        <time>2024-08-14T06:54:16Z</time>
      </trkpt>
      <trkpt lat="44.89199" lon="6.08533">
        <ele>2176</ele>
        <time>2024-08-14T06:54:17Z</time>
      </trkpt>
      <trkpt lat="44.892" lon="6.08536">
        <ele>2176.2</ele>
        <time>2024-08-14T06:54:18Z</time>
      </trkpt>
      <trkpt lat="44.892" lon="6.08536">
        <ele>2176.4</ele>
        <time>2024-08-14T06:54:19Z</time>
      </trkpt>
      <trkpt lat="44.89201" lon="6.08539">
        <ele>2176.4</ele>
        <time>2024-08-14T06:54:20Z</time>
      </trkpt>
      <trkpt lat="44.89201" lon="6.08539">
        <ele>2176.6</ele>
        <time>2024-08-14T06:54:21Z</time>
      </trkpt>
      <trkpt lat="44.89202" lon="6.08541">
        <ele>2176.8</ele>
        <time>2024-08-14T06:54:22Z</time>
      </trkpt>
      <trkpt lat="44.89202" lon="6.08541">
        <ele>2177</ele>
        <time>2024-08-14T06:54:23Z</time>
      </trkpt>
      <trkpt lat="44.89203" lon="6.08544">
        <ele>2177</ele>
        <time>2024-08-14T06:54:24Z</time>
      </trkpt>
      <trkpt lat="44.89203" lon="6.08544">
        <ele>2177.2</ele>
        <time>2024-08-14T06:54:25Z</time>
      </trkpt>
      <trkpt lat="44.89204" lon="6.08546">
        <ele>2177.2</ele>
        <time>2024-08-14T06:54:26Z</time>
      </trkpt>
      <trkpt lat="44.89204" lon="6.08546">
        <ele>2177.4</ele>
        <time>2024-08-14T06:54:27Z</time>
      </trkpt>
      <trkpt lat="44.89204" lon="6.08549">
        <ele>2178</ele>
        <time>2024-08-14T06:54:28Z</time>
      </trkpt>
      <trkpt lat="44.89204" lon="6.08549">
        <ele>2178</ele>
        <time>2024-08-14T06:54:29Z</time>
      </trkpt>
      <trkpt lat="44.89205" lon="6.08553">
        <ele>2178.2</ele>
        <time>2024-08-14T06:54:30Z</time>
      </trkpt>
      <trkpt lat="44.89205" lon="6.08553">
        <ele>2178.6</ele>
        <time>2024-08-14T06:54:31Z</time>
      </trkpt>
      <trkpt lat="44.89205" lon="6.08555">
        <ele>2178.6</ele>
        <time>2024-08-14T06:54:32Z</time>
      </trkpt>
      <trkpt lat="44.89205" lon="6.08555">
        <ele>2178.8</ele>
        <time>2024-08-14T06:54:33Z</time>
      </trkpt>
      <trkpt lat="44.89205" lon="6.08555">
        <ele>2179</ele>
        <time>2024-08-14T06:54:34Z</time>
      </trkpt>
      <trkpt lat="44.89204" lon="6.08559">
        <ele>2179.2</ele>
        <time>2024-08-14T06:54:35Z</time>
      </trkpt>
      <trkpt lat="44.89204" lon="6.08559">
        <ele>2179.4</ele>
        <time>2024-08-14T06:54:36Z</time>
      </trkpt>
      <trkpt lat="44.89203" lon="6.08562">
        <ele>2179.6</ele>
        <time>2024-08-14T06:54:37Z</time>
      </trkpt>
      <trkpt lat="44.89203" lon="6.08562">
        <ele>2179.6</ele>
        <time>2024-08-14T06:54:38Z</time>
      </trkpt>
      <trkpt lat="44.89201" lon="6.08564">
        <ele>2179.6</ele>
        <time>2024-08-14T06:54:39Z</time>
      </trkpt>
      <trkpt lat="44.89201" lon="6.08564">
        <ele>2179.6</ele>
        <time>2024-08-14T06:54:40Z</time>
      </trkpt>
      <trkpt lat="44.89199" lon="6.08567">
        <ele>2179.6</ele>
        <time>2024-08-14T06:54:41Z</time>
      </trkpt>
      <trkpt lat="44.89199" lon="6.08567">
        <ele>2179.6</ele>
        <time>2024-08-14T06:54:42Z</time>
      </trkpt>
      <trkpt lat="44.89199" lon="6.08567">
        <ele>2179.8</ele>
        <time>2024-08-14T06:54:43Z</time>
      </trkpt>
      <trkpt lat="44.89197" lon="6.0857">
        <ele>2180.2</ele>
        <time>2024-08-14T06:54:44Z</time>
      </trkpt>
      <trkpt lat="44.89197" lon="6.0857">
        <ele>2180.4</ele>
        <time>2024-08-14T06:54:45Z</time>
      </trkpt>
      <trkpt lat="44.89197" lon="6.08573">
        <ele>2180.4</ele>
        <time>2024-08-14T06:54:46Z</time>
      </trkpt>
      <trkpt lat="44.89197" lon="6.08573">
        <ele>2180.6</ele>
        <time>2024-08-14T06:54:47Z</time>
      </trkpt>
      <trkpt lat="44.89195" lon="6.08575">
        <ele>2180.8</ele>
        <time>2024-08-14T06:54:48Z</time>
      </trkpt>
      <trkpt lat="44.89195" lon="6.08575">
        <ele>2180.8</ele>
        <time>2024-08-14T06:54:49Z</time>
      </trkpt>
      <trkpt lat="44.89195" lon="6.08575">
        <ele>2181</ele>
        <time>2024-08-14T06:54:50Z</time>
      </trkpt>
      <trkpt lat="44.89195" lon="6.08579">
        <ele>2181.2</ele>
        <time>2024-08-14T06:54:51Z</time>
      </trkpt>
      <trkpt lat="44.89195" lon="6.08579">
        <ele>2181.4</ele>
        <time>2024-08-14T06:54:52Z</time>
      </trkpt>
      <trkpt lat="44.89193" lon="6.08581">
        <ele>2181.8</ele>
        <time>2024-08-14T06:54:53Z</time>
      </trkpt>
      <trkpt lat="44.89193" lon="6.08581">
        <ele>2182</ele>
        <time>2024-08-14T06:54:54Z</time>
      </trkpt>
      <trkpt lat="44.89193" lon="6.08581">
        <ele>2182.2</ele>
        <time>2024-08-14T06:54:55Z</time>
      </trkpt>
      <trkpt lat="44.89193" lon="6.08585">
        <ele>2182.2</ele>
        <time>2024-08-14T06:54:56Z</time>
      </trkpt>
      <trkpt lat="44.89193" lon="6.08585">
        <ele>2182.4</ele>
        <time>2024-08-14T06:54:57Z</time>
      </trkpt>
      <trkpt lat="44.89193" lon="6.08585">
        <ele>2182.8</ele>
        <time>2024-08-14T06:54:58Z</time>
      </trkpt>
      <trkpt lat="44.89192" lon="6.08589">
        <ele>2182.8</ele>
        <time>2024-08-14T06:54:59Z</time>
      </trkpt>
      <trkpt lat="44.89192" lon="6.08589">
        <ele>2182.8</ele>
        <time>2024-08-14T06:55:00Z</time>
      </trkpt>
      <trkpt lat="44.8919" lon="6.08591">
        <ele>2183.2</ele>
        <time>2024-08-14T06:55:01Z</time>
      </trkpt>
      <trkpt lat="44.8919" lon="6.08591">
        <ele>2183.2</ele>
        <time>2024-08-14T06:55:02Z</time>
      </trkpt>
      <trkpt lat="44.89189" lon="6.08594">
        <ele>2183.2</ele>
        <time>2024-08-14T06:55:03Z</time>
      </trkpt>
      <trkpt lat="44.89189" lon="6.08594">
        <ele>2183.4</ele>
        <time>2024-08-14T06:55:04Z</time>
      </trkpt>
      <trkpt lat="44.89189" lon="6.08594">
        <ele>2183.4</ele>
        <time>2024-08-14T06:55:05Z</time>
      </trkpt>
      <trkpt lat="44.89189" lon="6.08598">
        <ele>2183.8</ele>
        <time>2024-08-14T06:55:06Z</time>
      </trkpt>
      <trkpt lat="44.89189" lon="6.08598">
        <ele>2183.8</ele>
        <time>2024-08-14T06:55:07Z</time>
      </trkpt>
      <trkpt lat="44.89188" lon="6.086">
        <ele>2183.8</ele>
        <time>2024-08-14T06:55:08Z</time>
      </trkpt>
      <trkpt lat="44.89188" lon="6.086">
        <ele>2184</ele>
        <time>2024-08-14T06:55:09Z</time>
      </trkpt>
      <trkpt lat="44.89187" lon="6.08603">
        <ele>2184.2</ele>
        <time>2024-08-14T06:55:10Z</time>
      </trkpt>
      <trkpt lat="44.89187" lon="6.08603">
        <ele>2184.2</ele>
        <time>2024-08-14T06:55:11Z</time>
      </trkpt>
      <trkpt lat="44.89187" lon="6.08605">
        <ele>2184.6</ele>
        <time>2024-08-14T06:55:12Z</time>
      </trkpt>
      <trkpt lat="44.89187" lon="6.08605">
        <ele>2184.8</ele>
        <time>2024-08-14T06:55:13Z</time>
      </trkpt>
      <trkpt lat="44.89186" lon="6.08608">
        <ele>2184.8</ele>
        <time>2024-08-14T06:55:14Z</time>
      </trkpt>
      <trkpt lat="44.89186" lon="6.08608">
        <ele>2185</ele>
        <time>2024-08-14T06:55:15Z</time>
      </trkpt>
      <trkpt lat="44.89185" lon="6.08611">
        <ele>2185.4</ele>
        <time>2024-08-14T06:55:16Z</time>
      </trkpt>
      <trkpt lat="44.89185" lon="6.08611">
        <ele>2185.6</ele>
        <time>2024-08-14T06:55:17Z</time>
      </trkpt>
      <trkpt lat="44.89184" lon="6.08613">
        <ele>2185.6</ele>
        <time>2024-08-14T06:55:18Z</time>
      </trkpt>
      <trkpt lat="44.89184" lon="6.08613">
        <ele>2185.6</ele>
        <time>2024-08-14T06:55:19Z</time>
      </trkpt>
      <trkpt lat="44.89183" lon="6.08616">
        <ele>2185.8</ele>
        <time>2024-08-14T06:55:20Z</time>
      </trkpt>
      <trkpt lat="44.89183" lon="6.08616">
        <ele>2186</ele>
        <time>2024-08-14T06:55:21Z</time>
      </trkpt>
      <trkpt lat="44.89182" lon="6.08619">
        <ele>2186</ele>
        <time>2024-08-14T06:55:22Z</time>
      </trkpt>
      <trkpt lat="44.89182" lon="6.08619">
        <ele>2186</ele>
        <time>2024-08-14T06:55:23Z</time>
      </trkpt>
      <trkpt lat="44.89182" lon="6.08622">
        <ele>2186.2</ele>
        <time>2024-08-14T06:55:24Z</time>
      </trkpt>
      <trkpt lat="44.89182" lon="6.08622">
        <ele>2186.6</ele>
        <time>2024-08-14T06:55:25Z</time>
      </trkpt>
      <trkpt lat="44.89182" lon="6.08625">
        <ele>2187</ele>
        <time>2024-08-14T06:55:26Z</time>
      </trkpt>
      <trkpt lat="44.89182" lon="6.08625">
        <ele>2187</ele>
        <time>2024-08-14T06:55:27Z</time>
      </trkpt>
      <trkpt lat="44.89182" lon="6.08625">
        <ele>2186.8</ele>
        <time>2024-08-14T06:55:28Z</time>
      </trkpt>
      <trkpt lat="44.89183" lon="6.08628">
        <ele>2186.8</ele>
        <time>2024-08-14T06:55:29Z</time>
      </trkpt>
      <trkpt lat="44.89183" lon="6.08628">
        <ele>2186.8</ele>
        <time>2024-08-14T06:55:30Z</time>
      </trkpt>
      <trkpt lat="44.89185" lon="6.08631">
        <ele>2187.2</ele>
        <time>2024-08-14T06:55:31Z</time>
      </trkpt>
      <trkpt lat="44.89185" lon="6.08631">
        <ele>2187.2</ele>
        <time>2024-08-14T06:55:32Z</time>
      </trkpt>
      <trkpt lat="44.89185" lon="6.08634">
        <ele>2187.4</ele>
        <time>2024-08-14T06:55:33Z</time>
      </trkpt>
      <trkpt lat="44.89185" lon="6.08634">
        <ele>2187.4</ele>
        <time>2024-08-14T06:55:34Z</time>
      </trkpt>
      <trkpt lat="44.89187" lon="6.08636">
        <ele>2187.8</ele>
        <time>2024-08-14T06:55:35Z</time>
      </trkpt>
      <trkpt lat="44.89187" lon="6.08636">
        <ele>2188</ele>
        <time>2024-08-14T06:55:36Z</time>
      </trkpt>
      <trkpt lat="44.89188" lon="6.0864">
        <ele>2188</ele>
        <time>2024-08-14T06:55:37Z</time>
      </trkpt>
      <trkpt lat="44.89188" lon="6.0864">
        <ele>2188.2</ele>
        <time>2024-08-14T06:55:38Z</time>
      </trkpt>
      <trkpt lat="44.89188" lon="6.08642">
        <ele>2188.2</ele>
        <time>2024-08-14T06:55:39Z</time>
      </trkpt>
      <trkpt lat="44.89188" lon="6.08642">
        <ele>2188.6</ele>
        <time>2024-08-14T06:55:40Z</time>
      </trkpt>
      <trkpt lat="44.89189" lon="6.08645">
        <ele>2188.6</ele>
        <time>2024-08-14T06:55:41Z</time>
      </trkpt>
      <trkpt lat="44.89189" lon="6.08645">
        <ele>2189</ele>
        <time>2024-08-14T06:55:42Z</time>
      </trkpt>
      <trkpt lat="44.89189" lon="6.08648">
        <ele>2189.2</ele>
        <time>2024-08-14T06:55:43Z</time>
      </trkpt>
      <trkpt lat="44.89189" lon="6.08648">
        <ele>2189.2</ele>
        <time>2024-08-14T06:55:44Z</time>
      </trkpt>
      <trkpt lat="44.89189" lon="6.08651">
        <ele>2189.2</ele>
        <time>2024-08-14T06:55:45Z</time>
      </trkpt>
      <trkpt lat="44.89189" lon="6.08651">
        <ele>2189.4</ele>
        <time>2024-08-14T06:55:46Z</time>
      </trkpt>
      <trkpt lat="44.8919" lon="6.08655">
        <ele>2189.4</ele>
        <time>2024-08-14T06:55:47Z</time>
      </trkpt>
      <trkpt lat="44.8919" lon="6.08655">
        <ele>2189.4</ele>
        <time>2024-08-14T06:55:48Z</time>
      </trkpt>
      <trkpt lat="44.89189" lon="6.08658">
        <ele>2189.4</ele>
        <time>2024-08-14T06:55:49Z</time>
      </trkpt>
      <trkpt lat="44.89189" lon="6.08658">
        <ele>2189.4</ele>
        <time>2024-08-14T06:55:50Z</time>
      </trkpt>
      <trkpt lat="44.89188" lon="6.08661">
        <ele>2190</ele>
        <time>2024-08-14T06:55:51Z</time>
      </trkpt>
      <trkpt lat="44.89188" lon="6.08661">
        <ele>2190</ele>
        <time>2024-08-14T06:55:52Z</time>
      </trkpt>
      <trkpt lat="44.89186" lon="6.08662">
        <ele>2190.2</ele>
        <time>2024-08-14T06:55:53Z</time>
      </trkpt>
      <trkpt lat="44.89186" lon="6.08662">
        <ele>2190.2</ele>
        <time>2024-08-14T06:55:54Z</time>
      </trkpt>
      <trkpt lat="44.89184" lon="6.08664">
        <ele>2190.2</ele>
        <time>2024-08-14T06:55:55Z</time>
      </trkpt>
      <trkpt lat="44.89184" lon="6.08664">
        <ele>2190.2</ele>
        <time>2024-08-14T06:55:56Z</time>
      </trkpt>
      <trkpt lat="44.89183" lon="6.08665">
        <ele>2190.4</ele>
        <time>2024-08-14T06:55:57Z</time>
      </trkpt>
      <trkpt lat="44.89183" lon="6.08665">
        <ele>2191</ele>
        <time>2024-08-14T06:55:58Z</time>
      </trkpt>
      <trkpt lat="44.89183" lon="6.08665">
        <ele>2191.2</ele>
        <time>2024-08-14T06:55:59Z</time>
      </trkpt>
      <trkpt lat="44.89183" lon="6.08665">
        <ele>2191.2</ele>
        <time>2024-08-14T06:56:00Z</time>
      </trkpt>
      <trkpt lat="44.89185" lon="6.08666">
        <ele>2191.4</ele>
        <time>2024-08-14T06:56:01Z</time>
      </trkpt>
      <trkpt lat="44.89185" lon="6.08666">
        <ele>2191.6</ele>
        <time>2024-08-14T06:56:02Z</time>
      </trkpt>
      <trkpt lat="44.89187" lon="6.08666">
        <ele>2191.6</ele>
        <time>2024-08-14T06:56:03Z</time>
      </trkpt>
      <trkpt lat="44.89187" lon="6.08666">
        <ele>2191.8</ele>
        <time>2024-08-14T06:56:04Z</time>
      </trkpt>
      <trkpt lat="44.8919" lon="6.08666">
        <ele>2191.8</ele>
        <time>2024-08-14T06:56:05Z</time>
      </trkpt>
      <trkpt lat="44.8919" lon="6.08666">
        <ele>2191.8</ele>
        <time>2024-08-14T06:56:06Z</time>
      </trkpt>
      <trkpt lat="44.89192" lon="6.08666">
        <ele>2192.2</ele>
        <time>2024-08-14T06:56:07Z</time>
      </trkpt>
      <trkpt lat="44.89192" lon="6.08666">
        <ele>2192.2</ele>
        <time>2024-08-14T06:56:08Z</time>
      </trkpt>
      <trkpt lat="44.89195" lon="6.08666">
        <ele>2192.2</ele>
        <time>2024-08-14T06:56:09Z</time>
      </trkpt>
      <trkpt lat="44.89195" lon="6.08666">
        <ele>2192.4</ele>
        <time>2024-08-14T06:56:10Z</time>
      </trkpt>
      <trkpt lat="44.89197" lon="6.08665">
        <ele>2192.8</ele>
        <time>2024-08-14T06:56:11Z</time>
      </trkpt>
      <trkpt lat="44.89197" lon="6.08665">
        <ele>2192.8</ele>
        <time>2024-08-14T06:56:12Z</time>
      </trkpt>
      <trkpt lat="44.89198" lon="6.08663">
        <ele>2193</ele>
        <time>2024-08-14T06:56:13Z</time>
      </trkpt>
      <trkpt lat="44.89198" lon="6.08663">
        <ele>2193</ele>
        <time>2024-08-14T06:56:14Z</time>
      </trkpt>
      <trkpt lat="44.89198" lon="6.08663">
        <ele>2193</ele>
        <time>2024-08-14T06:56:15Z</time>
      </trkpt>
      <trkpt lat="44.89199" lon="6.0866">
        <ele>2193.6</ele>
        <time>2024-08-14T06:56:16Z</time>
      </trkpt>
      <trkpt lat="44.89199" lon="6.0866">
        <ele>2193.6</ele>
        <time>2024-08-14T06:56:17Z</time>
      </trkpt>
      <trkpt lat="44.89199" lon="6.08657">
        <ele>2194</ele>
        <time>2024-08-14T06:56:18Z</time>
      </trkpt>
      <trkpt lat="44.89199" lon="6.08657">
        <ele>2194</ele>
        <time>2024-08-14T06:56:19Z</time>
      </trkpt>
      <trkpt lat="44.892" lon="6.08654">
        <ele>2194.6</ele>
        <time>2024-08-14T06:56:20Z</time>
      </trkpt>
      <trkpt lat="44.892" lon="6.08654">
        <ele>2194.8</ele>
        <time>2024-08-14T06:56:21Z</time>
      </trkpt>
      <trkpt lat="44.89201" lon="6.08651">
        <ele>2194.8</ele>
        <time>2024-08-14T06:56:22Z</time>
      </trkpt>
      <trkpt lat="44.89201" lon="6.08651">
        <ele>2194.8</ele>
        <time>2024-08-14T06:56:23Z</time>
      </trkpt>
      <trkpt lat="44.89201" lon="6.08651">
        <ele>2195</ele>
        <time>2024-08-14T06:56:24Z</time>
      </trkpt>
      <trkpt lat="44.89202" lon="6.08647">
        <ele>2195</ele>
        <time>2024-08-14T06:56:25Z</time>
      </trkpt>
      <trkpt lat="44.89202" lon="6.08647">
        <ele>2195.4</ele>
        <time>2024-08-14T06:56:26Z</time>
      </trkpt>
      <trkpt lat="44.89203" lon="6.08644">
        <ele>2195.4</ele>
        <time>2024-08-14T06:56:27Z</time>
      </trkpt>
      <trkpt lat="44.89203" lon="6.08644">
        <ele>2195.4</ele>
        <time>2024-08-14T06:56:28Z</time>
      </trkpt>
      <trkpt lat="44.89203" lon="6.08641">
        <ele>2195.2</ele>
        <time>2024-08-14T06:56:29Z</time>
      </trkpt>
      <trkpt lat="44.89203" lon="6.08641">
        <ele>2195.4</ele>
        <time>2024-08-14T06:56:30Z</time>
      </trkpt>
      <trkpt lat="44.89204" lon="6.08638">
        <ele>2195.6</ele>
        <time>2024-08-14T06:56:31Z</time>
      </trkpt>
      <trkpt lat="44.89204" lon="6.08638">
        <ele>2196</ele>
        <time>2024-08-14T06:56:32Z</time>
      </trkpt>
      <trkpt lat="44.89205" lon="6.08635">
        <ele>2196</ele>
        <time>2024-08-14T06:56:33Z</time>
      </trkpt>
      <trkpt lat="44.89205" lon="6.08635">
        <ele>2196.4</ele>
        <time>2024-08-14T06:56:34Z</time>
      </trkpt>
      <trkpt lat="44.89206" lon="6.08633">
        <ele>2196.4</ele>
        <time>2024-08-14T06:56:35Z</time>
      </trkpt>
      <trkpt lat="44.89206" lon="6.08633">
        <ele>2196.4</ele>
        <time>2024-08-14T06:56:36Z</time>
      </trkpt>
      <trkpt lat="44.89208" lon="6.0863">
        <ele>2196.8</ele>
        <time>2024-08-14T06:56:37Z</time>
      </trkpt>
      <trkpt lat="44.89208" lon="6.0863">
        <ele>2197</ele>
        <time>2024-08-14T06:56:38Z</time>
      </trkpt>
      <trkpt lat="44.89209" lon="6.08628">
        <ele>2197</ele>
        <time>2024-08-14T06:56:39Z</time>
      </trkpt>
      <trkpt lat="44.89209" lon="6.08628">
        <ele>2197.2</ele>
        <time>2024-08-14T06:56:40Z</time>
      </trkpt>
      <trkpt lat="44.89211" lon="6.08625">
        <ele>2197.4</ele>
        <time>2024-08-14T06:56:41Z</time>
      </trkpt>
      <trkpt lat="44.89211" lon="6.08625">
        <ele>2197.4</ele>
        <time>2024-08-14T06:56:42Z</time>
      </trkpt>
      <trkpt lat="44.89212" lon="6.08623">
        <ele>2197.4</ele>
        <time>2024-08-14T06:56:43Z</time>
      </trkpt>
      <trkpt lat="44.89212" lon="6.08623">
        <ele>2197.8</ele>
        <time>2024-08-14T06:56:44Z</time>
      </trkpt>
      <trkpt lat="44.89213" lon="6.0862">
        <ele>2198</ele>
        <time>2024-08-14T06:56:45Z</time>
      </trkpt>
      <trkpt lat="44.89213" lon="6.0862">
        <ele>2198.4</ele>
        <time>2024-08-14T06:56:46Z</time>
      </trkpt>
      <trkpt lat="44.89215" lon="6.08618">
        <ele>2198.4</ele>
        <time>2024-08-14T06:56:47Z</time>
      </trkpt>
      <trkpt lat="44.89215" lon="6.08618">
        <ele>2198.6</ele>
        <time>2024-08-14T06:56:48Z</time>
      </trkpt>
      <trkpt lat="44.89218" lon="6.08617">
        <ele>2198.6</ele>
        <time>2024-08-14T06:56:49Z</time>
      </trkpt>
      <trkpt lat="44.89218" lon="6.08617">
        <ele>2198.8</ele>
        <time>2024-08-14T06:56:50Z</time>
      </trkpt>
      <trkpt lat="44.8922" lon="6.08616">
        <ele>2198.8</ele>
        <time>2024-08-14T06:56:51Z</time>
      </trkpt>
      <trkpt lat="44.8922" lon="6.08616">
        <ele>2199</ele>
        <time>2024-08-14T06:56:52Z</time>
      </trkpt>
      <trkpt lat="44.89222" lon="6.08615">
        <ele>2199.2</ele>
        <time>2024-08-14T06:56:53Z</time>
      </trkpt>
      <trkpt lat="44.89222" lon="6.08615">
        <ele>2199.2</ele>
        <time>2024-08-14T06:56:54Z</time>
      </trkpt>
      <trkpt lat="44.89225" lon="6.08615">
        <ele>2199.4</ele>
        <time>2024-08-14T06:56:55Z</time>
      </trkpt>
      <trkpt lat="44.89225" lon="6.08615">
        <ele>2199.8</ele>
        <time>2024-08-14T06:56:56Z</time>
      </trkpt>
      <trkpt lat="44.89228" lon="6.08614">
        <ele>2199.8</ele>
        <time>2024-08-14T06:56:57Z</time>
      </trkpt>
      <trkpt lat="44.89228" lon="6.08614">
        <ele>2199.8</ele>
        <time>2024-08-14T06:56:58Z</time>
      </trkpt>
      <trkpt lat="44.8923" lon="6.08613">
        <ele>2200</ele>
        <time>2024-08-14T06:56:59Z</time>
      </trkpt>
      <trkpt lat="44.8923" lon="6.08613">
        <ele>2200.2</ele>
        <time>2024-08-14T06:57:00Z</time>
      </trkpt>
      <trkpt lat="44.89232" lon="6.08613">
        <ele>2200.2</ele>
        <time>2024-08-14T06:57:01Z</time>
      </trkpt>
      <trkpt lat="44.89232" lon="6.08613">
        <ele>2200.6</ele>
        <time>2024-08-14T06:57:02Z</time>
      </trkpt>
      <trkpt lat="44.89235" lon="6.08612">
        <ele>2200.6</ele>
        <time>2024-08-14T06:57:03Z</time>
      </trkpt>
      <trkpt lat="44.89235" lon="6.08612">
        <ele>2200.4</ele>
        <time>2024-08-14T06:57:04Z</time>
      </trkpt>
      <trkpt lat="44.89237" lon="6.08611">
        <ele>2200.4</ele>
        <time>2024-08-14T06:57:05Z</time>
      </trkpt>
      <trkpt lat="44.89237" lon="6.08611">
        <ele>2200.2</ele>
        <time>2024-08-14T06:57:06Z</time>
      </trkpt>
      <trkpt lat="44.89239" lon="6.08611">
        <ele>2200.2</ele>
        <time>2024-08-14T06:57:07Z</time>
      </trkpt>
      <trkpt lat="44.89239" lon="6.08611">
        <ele>2200</ele>
        <time>2024-08-14T06:57:08Z</time>
      </trkpt>
      <trkpt lat="44.89241" lon="6.0861">
        <ele>2200</ele>
        <time>2024-08-14T06:57:09Z</time>
      </trkpt>
      <trkpt lat="44.89241" lon="6.0861">
        <ele>2200.6</ele>
        <time>2024-08-14T06:57:10Z</time>
      </trkpt>
      <trkpt lat="44.89243" lon="6.08608">
        <ele>2201</ele>
        <time>2024-08-14T06:57:11Z</time>
      </trkpt>
      <trkpt lat="44.89243" lon="6.08608">
        <ele>2201.2</ele>
        <time>2024-08-14T06:57:12Z</time>
      </trkpt>
      <trkpt lat="44.89245" lon="6.08606">
        <ele>2201.2</ele>
        <time>2024-08-14T06:57:13Z</time>
      </trkpt>
      <trkpt lat="44.89245" lon="6.08606">
        <ele>2201.4</ele>
        <time>2024-08-14T06:57:14Z</time>
      </trkpt>
      <trkpt lat="44.89247" lon="6.08604">
        <ele>2201.8</ele>
        <time>2024-08-14T06:57:15Z</time>
      </trkpt>
      <trkpt lat="44.89247" lon="6.08604">
        <ele>2202</ele>
        <time>2024-08-14T06:57:16Z</time>
      </trkpt>
      <trkpt lat="44.89249" lon="6.08603">
        <ele>2202</ele>
        <time>2024-08-14T06:57:17Z</time>
      </trkpt>
      <trkpt lat="44.89249" lon="6.08603">
        <ele>2202</ele>
        <time>2024-08-14T06:57:18Z</time>
      </trkpt>
      <trkpt lat="44.89251" lon="6.08603">
        <ele>2202</ele>
        <time>2024-08-14T06:57:19Z</time>
      </trkpt>
      <trkpt lat="44.89251" lon="6.08603">
        <ele>2202.4</ele>
        <time>2024-08-14T06:57:20Z</time>
      </trkpt>
      <trkpt lat="44.89253" lon="6.08602">
        <ele>2202.4</ele>
        <time>2024-08-14T06:57:21Z</time>
      </trkpt>
      <trkpt lat="44.89253" lon="6.08602">
        <ele>2202.8</ele>
        <time>2024-08-14T06:57:22Z</time>
      </trkpt>
      <trkpt lat="44.89255" lon="6.08601">
        <ele>2202.8</ele>
        <time>2024-08-14T06:57:23Z</time>
      </trkpt>
      <trkpt lat="44.89255" lon="6.08601">
        <ele>2203</ele>
        <time>2024-08-14T06:57:24Z</time>
      </trkpt>
      <trkpt lat="44.89257" lon="6.08601">
        <ele>2203</ele>
        <time>2024-08-14T06:57:25Z</time>
      </trkpt>
      <trkpt lat="44.89257" lon="6.08601">
        <ele>2203</ele>
        <time>2024-08-14T06:57:26Z</time>
      </trkpt>
      <trkpt lat="44.89259" lon="6.086">
        <ele>2203.2</ele>
        <time>2024-08-14T06:57:27Z</time>
      </trkpt>
      <trkpt lat="44.89259" lon="6.086">
        <ele>2203.4</ele>
        <time>2024-08-14T06:57:28Z</time>
      </trkpt>
      <trkpt lat="44.89261" lon="6.08598">
        <ele>2203.4</ele>
        <time>2024-08-14T06:57:29Z</time>
      </trkpt>
      <trkpt lat="44.89261" lon="6.08598">
        <ele>2203.6</ele>
        <time>2024-08-14T06:57:30Z</time>
      </trkpt>
      <trkpt lat="44.89262" lon="6.08596">
        <ele>2204</ele>
        <time>2024-08-14T06:57:31Z</time>
      </trkpt>
      <trkpt lat="44.89262" lon="6.08596">
        <ele>2204.4</ele>
        <time>2024-08-14T06:57:32Z</time>
      </trkpt>
      <trkpt lat="44.89264" lon="6.08594">
        <ele>2204.4</ele>
        <time>2024-08-14T06:57:33Z</time>
      </trkpt>
      <trkpt lat="44.89264" lon="6.08594">
        <ele>2204.8</ele>
        <time>2024-08-14T06:57:34Z</time>
      </trkpt>
      <trkpt lat="44.89264" lon="6.08594">
        <ele>2204.8</ele>
        <time>2024-08-14T06:57:35Z</time>
      </trkpt>
      <trkpt lat="44.89266" lon="6.08592">
        <ele>2205.2</ele>
        <time>2024-08-14T06:57:36Z</time>
      </trkpt>
      <trkpt lat="44.89266" lon="6.08592">
        <ele>2205.2</ele>
        <time>2024-08-14T06:57:37Z</time>
      </trkpt>
      <trkpt lat="44.89267" lon="6.0859">
        <ele>2205.2</ele>
        <time>2024-08-14T06:57:38Z</time>
      </trkpt>
      <trkpt lat="44.89267" lon="6.0859">
        <ele>2205.4</ele>
        <time>2024-08-14T06:57:39Z</time>
      </trkpt>
      <trkpt lat="44.89269" lon="6.08589">
        <ele>2205.4</ele>
        <time>2024-08-14T06:57:40Z</time>
      </trkpt>
      <trkpt lat="44.89269" lon="6.08589">
        <ele>2206</ele>
        <time>2024-08-14T06:57:41Z</time>
      </trkpt>
      <trkpt lat="44.8927" lon="6.08587">
        <ele>2206.4</ele>
        <time>2024-08-14T06:57:42Z</time>
      </trkpt>
      <trkpt lat="44.8927" lon="6.08587">
        <ele>2206.4</ele>
        <time>2024-08-14T06:57:43Z</time>
      </trkpt>
      <trkpt lat="44.8927" lon="6.08587">
        <ele>2206.6</ele>
        <time>2024-08-14T06:57:44Z</time>
      </trkpt>
      <trkpt lat="44.89271" lon="6.08584">
        <ele>2206.6</ele>
        <time>2024-08-14T06:57:45Z</time>
      </trkpt>
      <trkpt lat="44.89271" lon="6.08584">
        <ele>2207.2</ele>
        <time>2024-08-14T06:57:46Z</time>
      </trkpt>
      <trkpt lat="44.89271" lon="6.08584">
        <ele>2207.2</ele>
        <time>2024-08-14T06:57:47Z</time>
      </trkpt>
      <trkpt lat="44.89272" lon="6.08582">
        <ele>2207.4</ele>
        <time>2024-08-14T06:57:48Z</time>
      </trkpt>
      <trkpt lat="44.89272" lon="6.08582">
        <ele>2207.6</ele>
        <time>2024-08-14T06:57:49Z</time>
      </trkpt>
      <trkpt lat="44.89272" lon="6.08582">
        <ele>2207.8</ele>
        <time>2024-08-14T06:57:50Z</time>
      </trkpt>
      <trkpt lat="44.89272" lon="6.08582">
        <ele>2208</ele>
        <time>2024-08-14T06:57:51Z</time>
      </trkpt>
      <trkpt lat="44.89274" lon="6.08578">
        <ele>2208.8</ele>
        <time>2024-08-14T06:57:52Z</time>
      </trkpt>
      <trkpt lat="44.89274" lon="6.08578">
        <ele>2208.8</ele>
        <time>2024-08-14T06:57:53Z</time>
      </trkpt>
      <trkpt lat="44.89274" lon="6.08575">
        <ele>2208.8</ele>
        <time>2024-08-14T06:57:54Z</time>
      </trkpt>
      <trkpt lat="44.89274" lon="6.08575">
        <ele>2208.8</ele>
        <time>2024-08-14T06:57:55Z</time>
      </trkpt>
      <trkpt lat="44.89275" lon="6.08573">
        <ele>2208.8</ele>
        <time>2024-08-14T06:57:56Z</time>
      </trkpt>
      <trkpt lat="44.89275" lon="6.08573">
        <ele>2209.2</ele>
        <time>2024-08-14T06:57:57Z</time>
      </trkpt>
      <trkpt lat="44.89276" lon="6.08569">
        <ele>2209.2</ele>
        <time>2024-08-14T06:57:58Z</time>
      </trkpt>
      <trkpt lat="44.89276" lon="6.08569">
        <ele>2209.4</ele>
        <time>2024-08-14T06:57:59Z</time>
      </trkpt>
      <trkpt lat="44.89276" lon="6.08567">
        <ele>2209.6</ele>
        <time>2024-08-14T06:58:00Z</time>
      </trkpt>
      <trkpt lat="44.89276" lon="6.08567">
        <ele>2209.8</ele>
        <time>2024-08-14T06:58:01Z</time>
      </trkpt>
      <trkpt lat="44.89277" lon="6.08564">
        <ele>2210</ele>
        <time>2024-08-14T06:58:02Z</time>
      </trkpt>
      <trkpt lat="44.89277" lon="6.08564">
        <ele>2210</ele>
        <time>2024-08-14T06:58:03Z</time>
      </trkpt>
      <trkpt lat="44.89277" lon="6.08561">
        <ele>2210.4</ele>
        <time>2024-08-14T06:58:04Z</time>
      </trkpt>
      <trkpt lat="44.89277" lon="6.08561">
        <ele>2210.4</ele>
        <time>2024-08-14T06:58:05Z</time>
      </trkpt>
      <trkpt lat="44.89278" lon="6.08559">
        <ele>2210.6</ele>
        <time>2024-08-14T06:58:06Z</time>
      </trkpt>
      <trkpt lat="44.89278" lon="6.08559">
        <ele>2211</ele>
        <time>2024-08-14T06:58:07Z</time>
      </trkpt>
      <trkpt lat="44.89278" lon="6.08556">
        <ele>2211</ele>
        <time>2024-08-14T06:58:08Z</time>
      </trkpt>
      <trkpt lat="44.89278" lon="6.08556">
        <ele>2211.2</ele>
        <time>2024-08-14T06:58:09Z</time>
      </trkpt>
      <trkpt lat="44.89278" lon="6.08553">
        <ele>2211.2</ele>
        <time>2024-08-14T06:58:10Z</time>
      </trkpt>
      <trkpt lat="44.89278" lon="6.08553">
        <ele>2211.8</ele>
        <time>2024-08-14T06:58:11Z</time>
      </trkpt>
      <trkpt lat="44.89278" lon="6.08553">
        <ele>2211.8</ele>
        <time>2024-08-14T06:58:12Z</time>
      </trkpt>
      <trkpt lat="44.8928" lon="6.08554">
        <ele>2212.2</ele>
        <time>2024-08-14T06:58:13Z</time>
      </trkpt>
      <trkpt lat="44.8928" lon="6.08554">
        <ele>2212.6</ele>
        <time>2024-08-14T06:58:14Z</time>
      </trkpt>
      <trkpt lat="44.89281" lon="6.08557">
        <ele>2212.8</ele>
        <time>2024-08-14T06:58:15Z</time>
      </trkpt>
      <trkpt lat="44.89281" lon="6.08557">
        <ele>2212.8</ele>
        <time>2024-08-14T06:58:16Z</time>
      </trkpt>
      <trkpt lat="44.89282" lon="6.0856">
        <ele>2213</ele>
        <time>2024-08-14T06:58:17Z</time>
      </trkpt>
      <trkpt lat="44.89282" lon="6.0856">
        <ele>2213.2</ele>
        <time>2024-08-14T06:58:18Z</time>
      </trkpt>
      <trkpt lat="44.89283" lon="6.08563">
        <ele>2213.2</ele>
        <time>2024-08-14T06:58:19Z</time>
      </trkpt>
      <trkpt lat="44.89283" lon="6.08563">
        <ele>2213.4</ele>
        <time>2024-08-14T06:58:20Z</time>
      </trkpt>
      <trkpt lat="44.89284" lon="6.08566">
        <ele>2213.4</ele>
        <time>2024-08-14T06:58:21Z</time>
      </trkpt>
      <trkpt lat="44.89284" lon="6.08566">
        <ele>2213.4</ele>
        <time>2024-08-14T06:58:22Z</time>
      </trkpt>
      <trkpt lat="44.89285" lon="6.0857">
        <ele>2213.4</ele>
        <time>2024-08-14T06:58:23Z</time>
      </trkpt>
      <trkpt lat="44.89285" lon="6.0857">
        <ele>2213.6</ele>
        <time>2024-08-14T06:58:24Z</time>
      </trkpt>
      <trkpt lat="44.89286" lon="6.08572">
        <ele>2213.6</ele>
        <time>2024-08-14T06:58:25Z</time>
      </trkpt>
      <trkpt lat="44.89286" lon="6.08572">
        <ele>2213.8</ele>
        <time>2024-08-14T06:58:26Z</time>
      </trkpt>
      <trkpt lat="44.89287" lon="6.08575">
        <ele>2213.8</ele>
        <time>2024-08-14T06:58:27Z</time>
      </trkpt>
      <trkpt lat="44.89287" lon="6.08575">
        <ele>2214</ele>
        <time>2024-08-14T06:58:28Z</time>
      </trkpt>
      <trkpt lat="44.89288" lon="6.08578">
        <ele>2214.6</ele>
        <time>2024-08-14T06:58:29Z</time>
      </trkpt>
      <trkpt lat="44.89288" lon="6.08578">
        <ele>2214.6</ele>
        <time>2024-08-14T06:58:30Z</time>
      </trkpt>
      <trkpt lat="44.89289" lon="6.08581">
        <ele>2214.8</ele>
        <time>2024-08-14T06:58:31Z</time>
      </trkpt>
      <trkpt lat="44.89289" lon="6.08581">
        <ele>2215</ele>
        <time>2024-08-14T06:58:32Z</time>
      </trkpt>
      <trkpt lat="44.8929" lon="6.08584">
        <ele>2215</ele>
        <time>2024-08-14T06:58:33Z</time>
      </trkpt>
      <trkpt lat="44.8929" lon="6.08584">
        <ele>2215</ele>
        <time>2024-08-14T06:58:34Z</time>
      </trkpt>
      <trkpt lat="44.89291" lon="6.08586">
        <ele>2215.4</ele>
        <time>2024-08-14T06:58:35Z</time>
      </trkpt>
      <trkpt lat="44.89291" lon="6.08586">
        <ele>2215.6</ele>
        <time>2024-08-14T06:58:36Z</time>
      </trkpt>
      <trkpt lat="44.89292" lon="6.08589">
        <ele>2215.6</ele>
        <time>2024-08-14T06:58:37Z</time>
      </trkpt>
      <trkpt lat="44.89292" lon="6.08589">
        <ele>2216</ele>
        <time>2024-08-14T06:58:38Z</time>
      </trkpt>
      <trkpt lat="44.89292" lon="6.08589">
        <ele>2216.2</ele>
        <time>2024-08-14T06:58:39Z</time>
      </trkpt>
      <trkpt lat="44.89292" lon="6.08589">
        <ele>2216.4</ele>
        <time>2024-08-14T06:58:40Z</time>
      </trkpt>
      <trkpt lat="44.89292" lon="6.08589">
        <ele>2216.6</ele>
        <time>2024-08-14T06:58:41Z</time>
      </trkpt>
      <trkpt lat="44.89293" lon="6.08586">
        <ele>2216.6</ele>
        <time>2024-08-14T06:58:42Z</time>
      </trkpt>
      <trkpt lat="44.89293" lon="6.08586">
        <ele>2216.6</ele>
        <time>2024-08-14T06:58:43Z</time>
      </trkpt>
      <trkpt lat="44.89293" lon="6.08586">
        <ele>2216.8</ele>
        <time>2024-08-14T06:58:44Z</time>
      </trkpt>
      <trkpt lat="44.89293" lon="6.08582">
        <ele>2217</ele>
        <time>2024-08-14T06:58:45Z</time>
      </trkpt>
      <trkpt lat="44.89293" lon="6.08582">
        <ele>2217.6</ele>
        <time>2024-08-14T06:58:46Z</time>
      </trkpt>
      <trkpt lat="44.89294" lon="6.08579">
        <ele>2218</ele>
        <time>2024-08-14T06:58:47Z</time>
      </trkpt>
      <trkpt lat="44.89294" lon="6.08579">
        <ele>2218</ele>
        <time>2024-08-14T06:58:48Z</time>
      </trkpt>
      <trkpt lat="44.89294" lon="6.08576">
        <ele>2218</ele>
        <time>2024-08-14T06:58:49Z</time>
      </trkpt>
      <trkpt lat="44.89294" lon="6.08576">
        <ele>2218.2</ele>
        <time>2024-08-14T06:58:50Z</time>
      </trkpt>
      <trkpt lat="44.89295" lon="6.08573">
        <ele>2218.6</ele>
        <time>2024-08-14T06:58:51Z</time>
      </trkpt>
      <trkpt lat="44.89295" lon="6.08573">
        <ele>2218.6</ele>
        <time>2024-08-14T06:58:52Z</time>
      </trkpt>
      <trkpt lat="44.89295" lon="6.08573">
        <ele>2219</ele>
        <time>2024-08-14T06:58:53Z</time>
      </trkpt>
      <trkpt lat="44.89294" lon="6.0857">
        <ele>2219</ele>
        <time>2024-08-14T06:58:54Z</time>
      </trkpt>
      <trkpt lat="44.89294" lon="6.0857">
        <ele>2219</ele>
        <time>2024-08-14T06:58:55Z</time>
      </trkpt>
      <trkpt lat="44.89294" lon="6.08567">
        <ele>2219.2</ele>
        <time>2024-08-14T06:58:56Z</time>
      </trkpt>
      <trkpt lat="44.89294" lon="6.08567">
        <ele>2219.4</ele>
        <time>2024-08-14T06:58:57Z</time>
      </trkpt>
      <trkpt lat="44.89295" lon="6.08564">
        <ele>2220</ele>
        <time>2024-08-14T06:58:58Z</time>
      </trkpt>
      <trkpt lat="44.89295" lon="6.08564">
        <ele>2220.2</ele>
        <time>2024-08-14T06:58:59Z</time>
      </trkpt>
      <trkpt lat="44.89295" lon="6.08561">
        <ele>2220.2</ele>
        <time>2024-08-14T06:59:00Z</time>
      </trkpt>
      <trkpt lat="44.89295" lon="6.08561">
        <ele>2220.2</ele>
        <time>2024-08-14T06:59:01Z</time>
      </trkpt>
      <trkpt lat="44.89295" lon="6.08558">
        <ele>2220.6</ele>
        <time>2024-08-14T06:59:02Z</time>
      </trkpt>
      <trkpt lat="44.89295" lon="6.08558">
        <ele>2220.6</ele>
        <time>2024-08-14T06:59:03Z</time>
      </trkpt>
      <trkpt lat="44.89295" lon="6.08558">
        <ele>2221</ele>
        <time>2024-08-14T06:59:04Z</time>
      </trkpt>
      <trkpt lat="44.89295" lon="6.08555">
        <ele>2221.4</ele>
        <time>2024-08-14T06:59:05Z</time>
      </trkpt>
      <trkpt lat="44.89295" lon="6.08555">
        <ele>2221.4</ele>
        <time>2024-08-14T06:59:06Z</time>
      </trkpt>
      <trkpt lat="44.89296" lon="6.08552">
        <ele>2221.6</ele>
        <time>2024-08-14T06:59:07Z</time>
      </trkpt>
      <trkpt lat="44.89296" lon="6.08552">
        <ele>2221.8</ele>
        <time>2024-08-14T06:59:08Z</time>
      </trkpt>
      <trkpt lat="44.89295" lon="6.08549">
        <ele>2221.8</ele>
        <time>2024-08-14T06:59:09Z</time>
      </trkpt>
      <trkpt lat="44.89295" lon="6.08549">
        <ele>2222</ele>
        <time>2024-08-14T06:59:10Z</time>
      </trkpt>
      <trkpt lat="44.89295" lon="6.08549">
        <ele>2222.2</ele>
        <time>2024-08-14T06:59:11Z</time>
      </trkpt>
      <trkpt lat="44.89295" lon="6.08546">
        <ele>2222.4</ele>
        <time>2024-08-14T06:59:12Z</time>
      </trkpt>
      <trkpt lat="44.89295" lon="6.08546">
        <ele>2222.8</ele>
        <time>2024-08-14T06:59:13Z</time>
      </trkpt>
      <trkpt lat="44.89295" lon="6.08546">
        <ele>2223.2</ele>
        <time>2024-08-14T06:59:14Z</time>
      </trkpt>
      <trkpt lat="44.89295" lon="6.08543">
        <ele>2223.4</ele>
        <time>2024-08-14T06:59:15Z</time>
      </trkpt>
      <trkpt lat="44.89295" lon="6.08543">
        <ele>2223.6</ele>
        <time>2024-08-14T06:59:16Z</time>
      </trkpt>
      <trkpt lat="44.89296" lon="6.0854">
        <ele>2223.6</ele>
        <time>2024-08-14T06:59:17Z</time>
      </trkpt>
      <trkpt lat="44.89296" lon="6.0854">
        <ele>2223.8</ele>
        <time>2024-08-14T06:59:18Z</time>
      </trkpt>
      <trkpt lat="44.89296" lon="6.0854">
        <ele>2224</ele>
        <time>2024-08-14T06:59:19Z</time>
      </trkpt>
      <trkpt lat="44.89296" lon="6.08536">
        <ele>2224</ele>
        <time>2024-08-14T06:59:20Z</time>
      </trkpt>
      <trkpt lat="44.89296" lon="6.08536">
        <ele>2224.2</ele>
        <time>2024-08-14T06:59:21Z</time>
      </trkpt>
      <trkpt lat="44.89296" lon="6.08533">
        <ele>2224.4</ele>
        <time>2024-08-14T06:59:22Z</time>
      </trkpt>
      <trkpt lat="44.89296" lon="6.08533">
        <ele>2224.8</ele>
        <time>2024-08-14T06:59:23Z</time>
      </trkpt>
      <trkpt lat="44.89296" lon="6.08533">
        <ele>2225</ele>
        <time>2024-08-14T06:59:24Z</time>
      </trkpt>
      <trkpt lat="44.89296" lon="6.08529">
        <ele>2225</ele>
        <time>2024-08-14T06:59:25Z</time>
      </trkpt>
      <trkpt lat="44.89296" lon="6.08529">
        <ele>2225.4</ele>
        <time>2024-08-14T06:59:26Z</time>
      </trkpt>
      <trkpt lat="44.89296" lon="6.08529">
        <ele>2225.8</ele>
        <time>2024-08-14T06:59:27Z</time>
      </trkpt>
      <trkpt lat="44.89296" lon="6.08526">
        <ele>2226</ele>
        <time>2024-08-14T06:59:28Z</time>
      </trkpt>
      <trkpt lat="44.89296" lon="6.08526">
        <ele>2226.2</ele>
        <time>2024-08-14T06:59:29Z</time>
      </trkpt>
      <trkpt lat="44.89296" lon="6.08526">
        <ele>2226.2</ele>
        <time>2024-08-14T06:59:30Z</time>
      </trkpt>
      <trkpt lat="44.89296" lon="6.08522">
        <ele>2226.4</ele>
        <time>2024-08-14T06:59:31Z</time>
      </trkpt>
      <trkpt lat="44.89296" lon="6.08522">
        <ele>2226.6</ele>
        <time>2024-08-14T06:59:32Z</time>
      </trkpt>
      <trkpt lat="44.89296" lon="6.08519">
        <ele>2227</ele>
        <time>2024-08-14T06:59:33Z</time>
      </trkpt>
      <trkpt lat="44.89296" lon="6.08519">
        <ele>2227</ele>
        <time>2024-08-14T06:59:34Z</time>
      </trkpt>
      <trkpt lat="44.89296" lon="6.08519">
        <ele>2227.2</ele>
        <time>2024-08-14T06:59:35Z</time>
      </trkpt>
      <trkpt lat="44.89296" lon="6.08516">
        <ele>2227.2</ele>
        <time>2024-08-14T06:59:36Z</time>
      </trkpt>
      <trkpt lat="44.89296" lon="6.08516">
        <ele>2227.4</ele>
        <time>2024-08-14T06:59:37Z</time>
      </trkpt>
      <trkpt lat="44.89296" lon="6.08516">
        <ele>2227.6</ele>
        <time>2024-08-14T06:59:38Z</time>
      </trkpt>
      <trkpt lat="44.89296" lon="6.08512">
        <ele>2228</ele>
        <time>2024-08-14T06:59:39Z</time>
      </trkpt>
      <trkpt lat="44.89296" lon="6.08512">
        <ele>2228</ele>
        <time>2024-08-14T06:59:40Z</time>
      </trkpt>
      <trkpt lat="44.89296" lon="6.08512">
        <ele>2228.2</ele>
        <time>2024-08-14T06:59:41Z</time>
      </trkpt>
      <trkpt lat="44.89297" lon="6.08509">
        <ele>2228.6</ele>
        <time>2024-08-14T06:59:42Z</time>
      </trkpt>
      <trkpt lat="44.89297" lon="6.08509">
        <ele>2229.2</ele>
        <time>2024-08-14T06:59:43Z</time>
      </trkpt>
      <trkpt lat="44.89297" lon="6.08509">
        <ele>2229.2</ele>
        <time>2024-08-14T06:59:44Z</time>
      </trkpt>
      <trkpt lat="44.89298" lon="6.08506">
        <ele>2229.4</ele>
        <time>2024-08-14T06:59:45Z</time>
      </trkpt>
      <trkpt lat="44.89298" lon="6.08506">
        <ele>2229.8</ele>
        <time>2024-08-14T06:59:46Z</time>
      </trkpt>
      <trkpt lat="44.89298" lon="6.08506">
        <ele>2229.8</ele>
        <time>2024-08-14T06:59:47Z</time>
      </trkpt>
      <trkpt lat="44.89298" lon="6.08506">
        <ele>2230.2</ele>
        <time>2024-08-14T06:59:48Z</time>
      </trkpt>
      <trkpt lat="44.89298" lon="6.08503">
        <ele>2230.4</ele>
        <time>2024-08-14T06:59:49Z</time>
      </trkpt>
      <trkpt lat="44.89298" lon="6.08503">
        <ele>2230.6</ele>
        <time>2024-08-14T06:59:50Z</time>
      </trkpt>
      <trkpt lat="44.89298" lon="6.08503">
        <ele>2231.2</ele>
        <time>2024-08-14T06:59:51Z</time>
      </trkpt>
      <trkpt lat="44.89298" lon="6.085">
        <ele>2231.4</ele>
        <time>2024-08-14T06:59:52Z</time>
      </trkpt>
      <trkpt lat="44.89298" lon="6.085">
        <ele>2231.4</ele>
        <time>2024-08-14T06:59:53Z</time>
      </trkpt>
      <trkpt lat="44.89298" lon="6.085">
        <ele>2231.6</ele>
        <time>2024-08-14T06:59:54Z</time>
      </trkpt>
      <trkpt lat="44.89299" lon="6.08497">
        <ele>2231.6</ele>
        <time>2024-08-14T06:59:55Z</time>
      </trkpt>
      <trkpt lat="44.89299" lon="6.08497">
        <ele>2232</ele>
        <time>2024-08-14T06:59:56Z</time>
      </trkpt>
      <trkpt lat="44.89299" lon="6.08497">
        <ele>2232.2</ele>
        <time>2024-08-14T06:59:57Z</time>
      </trkpt>
      <trkpt lat="44.893" lon="6.08495">
        <ele>2232.4</ele>
        <time>2024-08-14T06:59:58Z</time>
      </trkpt>
      <trkpt lat="44.893" lon="6.08495">
        <ele>2232.4</ele>
        <time>2024-08-14T06:59:59Z</time>
      </trkpt>
      <trkpt lat="44.893" lon="6.08495">
        <ele>2232.8</ele>
        <time>2024-08-14T07:00:00Z</time>
      </trkpt>
      <trkpt lat="44.893" lon="6.08492">
        <ele>2233.2</ele>
        <time>2024-08-14T07:00:01Z</time>
      </trkpt>
      <trkpt lat="44.893" lon="6.08492">
        <ele>2233.4</ele>
        <time>2024-08-14T07:00:02Z</time>
      </trkpt>
      <trkpt lat="44.893" lon="6.08492">
        <ele>2233.4</ele>
        <time>2024-08-14T07:00:03Z</time>
      </trkpt>
      <trkpt lat="44.89301" lon="6.0849">
        <ele>2233.8</ele>
        <time>2024-08-14T07:00:04Z</time>
      </trkpt>
      <trkpt lat="44.89301" lon="6.0849">
        <ele>2234.2</ele>
        <time>2024-08-14T07:00:05Z</time>
      </trkpt>
      <trkpt lat="44.89301" lon="6.0849">
        <ele>2234.6</ele>
        <time>2024-08-14T07:00:06Z</time>
      </trkpt>
      <trkpt lat="44.89302" lon="6.08487">
        <ele>2234.6</ele>
        <time>2024-08-14T07:00:07Z</time>
      </trkpt>
      <trkpt lat="44.89302" lon="6.08487">
        <ele>2234.8</ele>
        <time>2024-08-14T07:00:08Z</time>
      </trkpt>
      <trkpt lat="44.89302" lon="6.08487">
        <ele>2235.2</ele>
        <time>2024-08-14T07:00:09Z</time>
      </trkpt>
      <trkpt lat="44.89302" lon="6.08484">
        <ele>2235.4</ele>
        <time>2024-08-14T07:00:10Z</time>
      </trkpt>
      <trkpt lat="44.89302" lon="6.08484">
        <ele>2235.6</ele>
        <time>2024-08-14T07:00:11Z</time>
      </trkpt>
      <trkpt lat="44.89302" lon="6.08484">
        <ele>2235.8</ele>
        <time>2024-08-14T07:00:12Z</time>
      </trkpt>
      <trkpt lat="44.89303" lon="6.08481">
        <ele>2236</ele>
        <time>2024-08-14T07:00:13Z</time>
      </trkpt>
      <trkpt lat="44.89303" lon="6.08481">
        <ele>2236</ele>
        <time>2024-08-14T07:00:14Z</time>
      </trkpt>
      <trkpt lat="44.89303" lon="6.08481">
        <ele>2236.6</ele>
        <time>2024-08-14T07:00:15Z</time>
      </trkpt>
      <trkpt lat="44.89303" lon="6.08481">
        <ele>2236.6</ele>
        <time>2024-08-14T07:00:16Z</time>
      </trkpt>
      <trkpt lat="44.89302" lon="6.08478">
        <ele>2236.8</ele>
        <time>2024-08-14T07:00:17Z</time>
      </trkpt>
      <trkpt lat="44.89302" lon="6.08478">
        <ele>2237</ele>
        <time>2024-08-14T07:00:18Z</time>
      </trkpt>
      <trkpt lat="44.89302" lon="6.08475">
        <ele>2237</ele>
        <time>2024-08-14T07:00:19Z</time>
      </trkpt>
      <trkpt lat="44.89302" lon="6.08475">
        <ele>2237.4</ele>
        <time>2024-08-14T07:00:20Z</time>
      </trkpt>
      <trkpt lat="44.89302" lon="6.08472">
        <ele>2237.6</ele>
        <time>2024-08-14T07:00:21Z</time>
      </trkpt>
      <trkpt lat="44.89302" lon="6.08472">
        <ele>2237.6</ele>
        <time>2024-08-14T07:00:22Z</time>
      </trkpt>
      <trkpt lat="44.89302" lon="6.0847">
        <ele>2237.8</ele>
        <time>2024-08-14T07:00:23Z</time>
      </trkpt>
      <trkpt lat="44.89302" lon="6.0847">
        <ele>2238.2</ele>
        <time>2024-08-14T07:00:24Z</time>
      </trkpt>
      <trkpt lat="44.89302" lon="6.08467">
        <ele>2238.2</ele>
        <time>2024-08-14T07:00:25Z</time>
      </trkpt>
      <trkpt lat="44.89302" lon="6.08467">
        <ele>2238.4</ele>
        <time>2024-08-14T07:00:26Z</time>
      </trkpt>
      <trkpt lat="44.89302" lon="6.08464">
        <ele>2238.6</ele>
        <time>2024-08-14T07:00:27Z</time>
      </trkpt>
      <trkpt lat="44.89302" lon="6.08464">
        <ele>2238.6</ele>
        <time>2024-08-14T07:00:28Z</time>
      </trkpt>
      <trkpt lat="44.89302" lon="6.08461">
        <ele>2238.6</ele>
        <time>2024-08-14T07:00:29Z</time>
      </trkpt>
      <trkpt lat="44.89302" lon="6.08461">
        <ele>2238.8</ele>
        <time>2024-08-14T07:00:30Z</time>
      </trkpt>
      <trkpt lat="44.89302" lon="6.08458">
        <ele>2239</ele>
        <time>2024-08-14T07:00:31Z</time>
      </trkpt>
      <trkpt lat="44.89302" lon="6.08458">
        <ele>2239</ele>
        <time>2024-08-14T07:00:32Z</time>
      </trkpt>
      <trkpt lat="44.89302" lon="6.08455">
        <ele>2239.2</ele>
        <time>2024-08-14T07:00:33Z</time>
      </trkpt>
      <trkpt lat="44.89302" lon="6.08455">
        <ele>2239.2</ele>
        <time>2024-08-14T07:00:34Z</time>
      </trkpt>
      <trkpt lat="44.89303" lon="6.08452">
        <ele>2239.4</ele>
        <time>2024-08-14T07:00:35Z</time>
      </trkpt>
      <trkpt lat="44.89303" lon="6.08452">
        <ele>2239.4</ele>
        <time>2024-08-14T07:00:36Z</time>
      </trkpt>
      <trkpt lat="44.89303" lon="6.08449">
        <ele>2239.4</ele>
        <time>2024-08-14T07:00:37Z</time>
      </trkpt>
      <trkpt lat="44.89303" lon="6.08449">
        <ele>2239.6</ele>
        <time>2024-08-14T07:00:38Z</time>
      </trkpt>
      <trkpt lat="44.89304" lon="6.08446">
        <ele>2239.8</ele>
        <time>2024-08-14T07:00:39Z</time>
      </trkpt>
      <trkpt lat="44.89304" lon="6.08446">
        <ele>2240.4</ele>
        <time>2024-08-14T07:00:40Z</time>
      </trkpt>
      <trkpt lat="44.89304" lon="6.08444">
        <ele>2240.4</ele>
        <time>2024-08-14T07:00:41Z</time>
      </trkpt>
      <trkpt lat="44.89304" lon="6.08444">
        <ele>2240.6</ele>
        <time>2024-08-14T07:00:42Z</time>
      </trkpt>
      <trkpt lat="44.89304" lon="6.08444">
        <ele>2240.6</ele>
        <time>2024-08-14T07:00:43Z</time>
      </trkpt>
      <trkpt lat="44.89306" lon="6.0844">
        <ele>2241</ele>
        <time>2024-08-14T07:00:44Z</time>
      </trkpt>
      <trkpt lat="44.89306" lon="6.0844">
        <ele>2241.4</ele>
        <time>2024-08-14T07:00:45Z</time>
      </trkpt>
      <trkpt lat="44.89306" lon="6.0844">
        <ele>2241.6</ele>
        <time>2024-08-14T07:00:46Z</time>
      </trkpt>
      <trkpt lat="44.89306" lon="6.0844">
        <ele>2241.6</ele>
        <time>2024-08-14T07:00:47Z</time>
      </trkpt>
      <trkpt lat="44.89306" lon="6.0844">
        <ele>2242</ele>
        <time>2024-08-14T07:00:48Z</time>
      </trkpt>
      <trkpt lat="44.89306" lon="6.0844">
        <ele>2242.2</ele>
        <time>2024-08-14T07:00:49Z</time>
      </trkpt>
      <trkpt lat="44.89306" lon="6.0844">
        <ele>2242.2</ele>
        <time>2024-08-14T07:00:50Z</time>
      </trkpt>
      <trkpt lat="44.89307" lon="6.08437">
        <ele>2242.2</ele>
        <time>2024-08-14T07:00:51Z</time>
      </trkpt>
      <trkpt lat="44.89307" lon="6.08437">
        <ele>2242.4</ele>
        <time>2024-08-14T07:00:52Z</time>
      </trkpt>
      <trkpt lat="44.89308" lon="6.08434">
        <ele>2242.6</ele>
        <time>2024-08-14T07:00:53Z</time>
      </trkpt>
      <trkpt lat="44.89308" lon="6.08434">
        <ele>2242.8</ele>
        <time>2024-08-14T07:00:54Z</time>
      </trkpt>
      <trkpt lat="44.89309" lon="6.08432">
        <ele>2243</ele>
        <time>2024-08-14T07:00:55Z</time>
      </trkpt>
      <trkpt lat="44.89309" lon="6.08432">
        <ele>2243.4</ele>
        <time>2024-08-14T07:00:56Z</time>
      </trkpt>
      <trkpt lat="44.89309" lon="6.08432">
        <ele>2243.6</ele>
        <time>2024-08-14T07:00:57Z</time>
      </trkpt>
      <trkpt lat="44.8931" lon="6.08428">
        <ele>2244</ele>
        <time>2024-08-14T07:00:58Z</time>
      </trkpt>
      <trkpt lat="44.8931" lon="6.08428">
        <ele>2244</ele>
        <time>2024-08-14T07:00:59Z</time>
      </trkpt>
      <trkpt lat="44.8931" lon="6.08425">
        <ele>2244.4</ele>
        <time>2024-08-14T07:01:00Z</time>
      </trkpt>
      <trkpt lat="44.8931" lon="6.08425">
        <ele>2244.4</ele>
        <time>2024-08-14T07:01:01Z</time>
      </trkpt>
      <trkpt lat="44.89311" lon="6.08422">
        <ele>2245</ele>
        <time>2024-08-14T07:01:02Z</time>
      </trkpt>
      <trkpt lat="44.89311" lon="6.08422">
        <ele>2245</ele>
        <time>2024-08-14T07:01:03Z</time>
      </trkpt>
      <trkpt lat="44.89312" lon="6.0842">
        <ele>2245</ele>
        <time>2024-08-14T07:01:04Z</time>
      </trkpt>
      <trkpt lat="44.89312" lon="6.0842">
        <ele>2245</ele>
        <time>2024-08-14T07:01:05Z</time>
      </trkpt>
      <trkpt lat="44.89312" lon="6.0842">
        <ele>2245.4</ele>
        <time>2024-08-14T07:01:06Z</time>
      </trkpt>
      <trkpt lat="44.89312" lon="6.08416">
        <ele>2245.4</ele>
        <time>2024-08-14T07:01:07Z</time>
      </trkpt>
      <trkpt lat="44.89312" lon="6.08416">
        <ele>2245.4</ele>
        <time>2024-08-14T07:01:08Z</time>
      </trkpt>
      <trkpt lat="44.89313" lon="6.08413">
        <ele>2245.6</ele>
        <time>2024-08-14T07:01:09Z</time>
      </trkpt>
      <trkpt lat="44.89313" lon="6.08413">
        <ele>2245.8</ele>
        <time>2024-08-14T07:01:10Z</time>
      </trkpt>
      <trkpt lat="44.89314" lon="6.0841">
        <ele>2246.2</ele>
        <time>2024-08-14T07:01:11Z</time>
      </trkpt>
      <trkpt lat="44.89314" lon="6.0841">
        <ele>2246.2</ele>
        <time>2024-08-14T07:01:12Z</time>
      </trkpt>
      <trkpt lat="44.89314" lon="6.08407">
        <ele>2246.4</ele>
        <time>2024-08-14T07:01:13Z</time>
      </trkpt>
      <trkpt lat="44.89314" lon="6.08407">
        <ele>2246.8</ele>
        <time>2024-08-14T07:01:14Z</time>
      </trkpt>
      <trkpt lat="44.89314" lon="6.08404">
        <ele>2246.8</ele>
        <time>2024-08-14T07:01:15Z</time>
      </trkpt>
      <trkpt lat="44.89314" lon="6.08404">
        <ele>2247</ele>
        <time>2024-08-14T07:01:16Z</time>
      </trkpt>
      <trkpt lat="44.89314" lon="6.08404">
        <ele>2247.4</ele>
        <time>2024-08-14T07:01:17Z</time>
      </trkpt>
      <trkpt lat="44.89315" lon="6.084">
        <ele>2247.4</ele>
        <time>2024-08-14T07:01:18Z</time>
      </trkpt>
      <trkpt lat="44.89315" lon="6.084">
        <ele>2247.6</ele>
        <time>2024-08-14T07:01:19Z</time>
      </trkpt>
      <trkpt lat="44.89316" lon="6.08397">
        <ele>2247.8</ele>
        <time>2024-08-14T07:01:20Z</time>
      </trkpt>
      <trkpt lat="44.89316" lon="6.08397">
        <ele>2248</ele>
        <time>2024-08-14T07:01:21Z</time>
      </trkpt>
      <trkpt lat="44.89316" lon="6.08395">
        <ele>2248.2</ele>
        <time>2024-08-14T07:01:22Z</time>
      </trkpt>
      <trkpt lat="44.89316" lon="6.08395">
        <ele>2248.2</ele>
        <time>2024-08-14T07:01:23Z</time>
      </trkpt>
      <trkpt lat="44.89316" lon="6.08392">
        <ele>2248.4</ele>
        <time>2024-08-14T07:01:24Z</time>
      </trkpt>
      <trkpt lat="44.89316" lon="6.08392">
        <ele>2248.8</ele>
        <time>2024-08-14T07:01:25Z</time>
      </trkpt>
      <trkpt lat="44.89317" lon="6.08389">
        <ele>2249</ele>
        <time>2024-08-14T07:01:26Z</time>
      </trkpt>
      <trkpt lat="44.89317" lon="6.08389">
        <ele>2249</ele>
        <time>2024-08-14T07:01:27Z</time>
      </trkpt>
      <trkpt lat="44.89317" lon="6.08385">
        <ele>2249</ele>
        <time>2024-08-14T07:01:28Z</time>
      </trkpt>
      <trkpt lat="44.89317" lon="6.08385">
        <ele>2249.4</ele>
        <time>2024-08-14T07:01:29Z</time>
      </trkpt>
      <trkpt lat="44.89317" lon="6.08383">
        <ele>2249.8</ele>
        <time>2024-08-14T07:01:30Z</time>
      </trkpt>
      <trkpt lat="44.89317" lon="6.08383">
        <ele>2249.8</ele>
        <time>2024-08-14T07:01:31Z</time>
      </trkpt>
      <trkpt lat="44.89318" lon="6.0838">
        <ele>2250.2</ele>
        <time>2024-08-14T07:01:32Z</time>
      </trkpt>
      <trkpt lat="44.89318" lon="6.0838">
        <ele>2250.4</ele>
        <time>2024-08-14T07:01:33Z</time>
      </trkpt>
      <trkpt lat="44.89318" lon="6.0838">
        <ele>2250.6</ele>
        <time>2024-08-14T07:01:34Z</time>
      </trkpt>
      <trkpt lat="44.89319" lon="6.08377">
        <ele>2251.2</ele>
        <time>2024-08-14T07:01:35Z</time>
      </trkpt>
      <trkpt lat="44.89319" lon="6.08377">
        <ele>2251.2</ele>
        <time>2024-08-14T07:01:36Z</time>
      </trkpt>
      <trkpt lat="44.89319" lon="6.08377">
        <ele>2251.4</ele>
        <time>2024-08-14T07:01:37Z</time>
      </trkpt>
      <trkpt lat="44.89319" lon="6.08374">
        <ele>2252</ele>
        <time>2024-08-14T07:01:38Z</time>
      </trkpt>
      <trkpt lat="44.89319" lon="6.08374">
        <ele>2252.2</ele>
        <time>2024-08-14T07:01:39Z</time>
      </trkpt>
      <trkpt lat="44.89319" lon="6.08371">
        <ele>2252.2</ele>
        <time>2024-08-14T07:01:40Z</time>
      </trkpt>
      <trkpt lat="44.89319" lon="6.08371">
        <ele>2252.2</ele>
        <time>2024-08-14T07:01:41Z</time>
      </trkpt>
      <trkpt lat="44.89319" lon="6.08371">
        <ele>2252.6</ele>
        <time>2024-08-14T07:01:42Z</time>
      </trkpt>
      <trkpt lat="44.89319" lon="6.08371">
        <ele>2252.8</ele>
        <time>2024-08-14T07:01:43Z</time>
      </trkpt>
      <trkpt lat="44.89319" lon="6.08371">
        <ele>2253</ele>
        <time>2024-08-14T07:01:44Z</time>
      </trkpt>
      <trkpt lat="44.89319" lon="6.08371">
        <ele>2253.2</ele>
        <time>2024-08-14T07:01:45Z</time>
      </trkpt>
      <trkpt lat="44.89319" lon="6.08371">
        <ele>2253.2</ele>
        <time>2024-08-14T07:01:46Z</time>
      </trkpt>
      <trkpt lat="44.89319" lon="6.08371">
        <ele>2253.2</ele>
        <time>2024-08-14T07:01:47Z</time>
      </trkpt>
      <trkpt lat="44.89319" lon="6.08371">
        <ele>2253.2</ele>
        <time>2024-08-14T07:01:48Z</time>
      </trkpt>
      <trkpt lat="44.89319" lon="6.08371">
        <ele>2253.2</ele>
        <time>2024-08-14T07:01:49Z</time>
      </trkpt>
      <trkpt lat="44.89319" lon="6.08371">
        <ele>2253.2</ele>
        <time>2024-08-14T07:01:50Z</time>
      </trkpt>
      <trkpt lat="44.89319" lon="6.08371">
        <ele>2253</ele>
        <time>2024-08-14T07:01:51Z</time>
      </trkpt>
      <trkpt lat="44.89319" lon="6.08371">
        <ele>2253</ele>
        <time>2024-08-14T07:01:52Z</time>
      </trkpt>
      <trkpt lat="44.89319" lon="6.08371">
        <ele>2253.2</ele>
        <time>2024-08-14T07:01:53Z</time>
      </trkpt>
      <trkpt lat="44.89319" lon="6.08371">
        <ele>2253.6</ele>
        <time>2024-08-14T07:01:54Z</time>
      </trkpt>
      <trkpt lat="44.89319" lon="6.08371">
        <ele>2253.8</ele>
        <time>2024-08-14T07:01:55Z</time>
      </trkpt>
      <trkpt lat="44.89319" lon="6.08371">
        <ele>2253.8</ele>
        <time>2024-08-14T07:01:56Z</time>
      </trkpt>
      <trkpt lat="44.89319" lon="6.08371">
        <ele>2253.4</ele>
        <time>2024-08-14T07:01:57Z</time>
      </trkpt>
      <trkpt lat="44.89319" lon="6.08371">
        <ele>2253.2</ele>
        <time>2024-08-14T07:01:58Z</time>
      </trkpt>
      <trkpt lat="44.89319" lon="6.08371">
        <ele>2253.2</ele>
        <time>2024-08-14T07:01:59Z</time>
      </trkpt>
      <trkpt lat="44.89319" lon="6.08371">
        <ele>2253.4</ele>
        <time>2024-08-14T07:02:00Z</time>
      </trkpt>
      <trkpt lat="44.89319" lon="6.08371">
        <ele>2253.4</ele>
        <time>2024-08-14T07:02:01Z</time>
      </trkpt>
      <trkpt lat="44.89319" lon="6.08371">
        <ele>2253</ele>
        <time>2024-08-14T07:02:02Z</time>
      </trkpt>
      <trkpt lat="44.89319" lon="6.08371">
        <ele>2253</ele>
        <time>2024-08-14T07:02:03Z</time>
      </trkpt>
      <trkpt lat="44.89319" lon="6.08371">
        <ele>2253.2</ele>
        <time>2024-08-14T07:02:04Z</time>
      </trkpt>
      <trkpt lat="44.89319" lon="6.08371">
        <ele>2253.2</ele>
        <time>2024-08-14T07:02:05Z</time>
      </trkpt>
      <trkpt lat="44.89319" lon="6.08371">
        <ele>2253.4</ele>
        <time>2024-08-14T07:02:06Z</time>
      </trkpt>
      <trkpt lat="44.89319" lon="6.08371">
        <ele>2253.4</ele>
        <time>2024-08-14T07:02:07Z</time>
      </trkpt>
      <trkpt lat="44.89319" lon="6.08371">
        <ele>2253.6</ele>
        <time>2024-08-14T07:02:08Z</time>
      </trkpt>
      <trkpt lat="44.89319" lon="6.08371">
        <ele>2253.6</ele>
        <time>2024-08-14T07:02:09Z</time>
      </trkpt>
      <trkpt lat="44.89319" lon="6.08371">
        <ele>2253.8</ele>
        <time>2024-08-14T07:02:10Z</time>
      </trkpt>
      <trkpt lat="44.89319" lon="6.08371">
        <ele>2253.8</ele>
        <time>2024-08-14T07:02:11Z</time>
      </trkpt>
      <trkpt lat="44.89319" lon="6.08371">
        <ele>2253.8</ele>
        <time>2024-08-14T07:02:12Z</time>
      </trkpt>
      <trkpt lat="44.89319" lon="6.08371">
        <ele>2253.6</ele>
        <time>2024-08-14T07:02:13Z</time>
      </trkpt>
      <trkpt lat="44.89319" lon="6.08371">
        <ele>2253.6</ele>
        <time>2024-08-14T07:02:14Z</time>
      </trkpt>
      <trkpt lat="44.89319" lon="6.08371">
        <ele>2253.6</ele>
        <time>2024-08-14T07:02:15Z</time>
      </trkpt>
      <trkpt lat="44.89319" lon="6.08371">
        <ele>2253.4</ele>
        <time>2024-08-14T07:02:16Z</time>
      </trkpt>
      <trkpt lat="44.89319" lon="6.08371">
        <ele>2253.4</ele>
        <time>2024-08-14T07:02:17Z</time>
      </trkpt>
      <trkpt lat="44.89319" lon="6.08371">
        <ele>2253.6</ele>
        <time>2024-08-14T07:02:18Z</time>
      </trkpt>
      <trkpt lat="44.89319" lon="6.08371">
        <ele>2253.6</ele>
        <time>2024-08-14T07:02:19Z</time>
      </trkpt>
      <trkpt lat="44.89319" lon="6.08371">
        <ele>2253.6</ele>
        <time>2024-08-14T07:02:20Z</time>
      </trkpt>
      <trkpt lat="44.89319" lon="6.08371">
        <ele>2253.6</ele>
        <time>2024-08-14T07:02:21Z</time>
      </trkpt>
      <trkpt lat="44.89319" lon="6.08371">
        <ele>2253.6</ele>
        <time>2024-08-14T07:02:22Z</time>
      </trkpt>
      <trkpt lat="44.89319" lon="6.08371">
        <ele>2253.6</ele>
        <time>2024-08-14T07:02:23Z</time>
      </trkpt>
      <trkpt lat="44.89319" lon="6.08371">
        <ele>2253.8</ele>
        <time>2024-08-14T07:02:24Z</time>
      </trkpt>
      <trkpt lat="44.89319" lon="6.08368">
        <ele>2253.8</ele>
        <time>2024-08-14T07:02:25Z</time>
      </trkpt>
      <trkpt lat="44.89319" lon="6.08368">
        <ele>2253.8</ele>
        <time>2024-08-14T07:02:26Z</time>
      </trkpt>
      <trkpt lat="44.89319" lon="6.08368">
        <ele>2253.8</ele>
        <time>2024-08-14T07:02:27Z</time>
      </trkpt>
      <trkpt lat="44.8932" lon="6.08364">
        <ele>2253.8</ele>
        <time>2024-08-14T07:02:28Z</time>
      </trkpt>
      <trkpt lat="44.8932" lon="6.08364">
        <ele>2254</ele>
        <time>2024-08-14T07:02:29Z</time>
      </trkpt>
      <trkpt lat="44.8932" lon="6.0836">
        <ele>2254.2</ele>
        <time>2024-08-14T07:02:30Z</time>
      </trkpt>
      <trkpt lat="44.8932" lon="6.0836">
        <ele>2254.2</ele>
        <time>2024-08-14T07:02:31Z</time>
      </trkpt>
      <trkpt lat="44.89319" lon="6.08356">
        <ele>2254.6</ele>
        <time>2024-08-14T07:02:32Z</time>
      </trkpt>
      <trkpt lat="44.89319" lon="6.08356">
        <ele>2254.8</ele>
        <time>2024-08-14T07:02:33Z</time>
      </trkpt>
      <trkpt lat="44.89319" lon="6.08353">
        <ele>2254.8</ele>
        <time>2024-08-14T07:02:34Z</time>
      </trkpt>
      <trkpt lat="44.89319" lon="6.08353">
        <ele>2254.8</ele>
        <time>2024-08-14T07:02:35Z</time>
      </trkpt>
      <trkpt lat="44.89319" lon="6.08349">
        <ele>2254.8</ele>
        <time>2024-08-14T07:02:36Z</time>
      </trkpt>
      <trkpt lat="44.89319" lon="6.08349">
        <ele>2255</ele>
        <time>2024-08-14T07:02:37Z</time>
      </trkpt>
      <trkpt lat="44.89319" lon="6.08346">
        <ele>2255.4</ele>
        <time>2024-08-14T07:02:38Z</time>
      </trkpt>
      <trkpt lat="44.89319" lon="6.08346">
        <ele>2255.8</ele>
        <time>2024-08-14T07:02:39Z</time>
      </trkpt>
      <trkpt lat="44.89319" lon="6.08343">
        <ele>2256</ele>
        <time>2024-08-14T07:02:40Z</time>
      </trkpt>
      <trkpt lat="44.89319" lon="6.08343">
        <ele>2256</ele>
        <time>2024-08-14T07:02:41Z</time>
      </trkpt>
      <trkpt lat="44.89319" lon="6.08341">
        <ele>2256.2</ele>
        <time>2024-08-14T07:02:42Z</time>
      </trkpt>
      <trkpt lat="44.89319" lon="6.08341">
        <ele>2256.6</ele>
        <time>2024-08-14T07:02:43Z</time>
      </trkpt>
      <trkpt lat="44.89319" lon="6.08341">
        <ele>2256.8</ele>
        <time>2024-08-14T07:02:44Z</time>
      </trkpt>
      <trkpt lat="44.89319" lon="6.08337">
        <ele>2257</ele>
        <time>2024-08-14T07:02:45Z</time>
      </trkpt>
      <trkpt lat="44.89319" lon="6.08337">
        <ele>2257.2</ele>
        <time>2024-08-14T07:02:46Z</time>
      </trkpt>
      <trkpt lat="44.89319" lon="6.08334">
        <ele>2257.2</ele>
        <time>2024-08-14T07:02:47Z</time>
      </trkpt>
      <trkpt lat="44.89319" lon="6.08334">
        <ele>2257.8</ele>
        <time>2024-08-14T07:02:48Z</time>
      </trkpt>
      <trkpt lat="44.89319" lon="6.08334">
        <ele>2258</ele>
        <time>2024-08-14T07:02:49Z</time>
      </trkpt>
      <trkpt lat="44.89318" lon="6.08331">
        <ele>2258.2</ele>
        <time>2024-08-14T07:02:50Z</time>
      </trkpt>
      <trkpt lat="44.89318" lon="6.08331">
        <ele>2258.4</ele>
        <time>2024-08-14T07:02:51Z</time>
      </trkpt>
      <trkpt lat="44.89318" lon="6.08328">
        <ele>2258.6</ele>
        <time>2024-08-14T07:02:52Z</time>
      </trkpt>
      <trkpt lat="44.89318" lon="6.08328">
        <ele>2258.8</ele>
        <time>2024-08-14T07:02:53Z</time>
      </trkpt>
      <trkpt lat="44.89317" lon="6.08325">
        <ele>2258.8</ele>
        <time>2024-08-14T07:02:54Z</time>
      </trkpt>
      <trkpt lat="44.89317" lon="6.08325">
        <ele>2259.2</ele>
        <time>2024-08-14T07:02:55Z</time>
      </trkpt>
      <trkpt lat="44.89317" lon="6.08322">
        <ele>2259.4</ele>
        <time>2024-08-14T07:02:56Z</time>
      </trkpt>
      <trkpt lat="44.89317" lon="6.08322">
        <ele>2259.4</ele>
        <time>2024-08-14T07:02:57Z</time>
      </trkpt>
      <trkpt lat="44.89316" lon="6.08319">
        <ele>2259.4</ele>
        <time>2024-08-14T07:02:58Z</time>
      </trkpt>
      <trkpt lat="44.89316" lon="6.08319">
        <ele>2259.4</ele>
        <time>2024-08-14T07:02:59Z</time>
      </trkpt>
      <trkpt lat="44.89316" lon="6.08315">
        <ele>2259.6</ele>
        <time>2024-08-14T07:03:00Z</time>
      </trkpt>
      <trkpt lat="44.89316" lon="6.08315">
        <ele>2259.6</ele>
        <time>2024-08-14T07:03:01Z</time>
      </trkpt>
      <trkpt lat="44.89316" lon="6.08312">
        <ele>2259.6</ele>
        <time>2024-08-14T07:03:02Z</time>
      </trkpt>
      <trkpt lat="44.89316" lon="6.08312">
        <ele>2259.6</ele>
        <time>2024-08-14T07:03:03Z</time>
      </trkpt>
      <trkpt lat="44.89315" lon="6.08309">
        <ele>2259.8</ele>
        <time>2024-08-14T07:03:04Z</time>
      </trkpt>
      <trkpt lat="44.89315" lon="6.08309">
        <ele>2259.8</ele>
        <time>2024-08-14T07:03:05Z</time>
      </trkpt>
      <trkpt lat="44.89314" lon="6.08306">
        <ele>2259.8</ele>
        <time>2024-08-14T07:03:06Z</time>
      </trkpt>
      <trkpt lat="44.89314" lon="6.08306">
        <ele>2259.8</ele>
        <time>2024-08-14T07:03:07Z</time>
      </trkpt>
      <trkpt lat="44.89313" lon="6.08303">
        <ele>2259.8</ele>
        <time>2024-08-14T07:03:08Z</time>
      </trkpt>
      <trkpt lat="44.89313" lon="6.08303">
        <ele>2260</ele>
        <time>2024-08-14T07:03:09Z</time>
      </trkpt>
      <trkpt lat="44.89312" lon="6.083">
        <ele>2260.2</ele>
        <time>2024-08-14T07:03:10Z</time>
      </trkpt>
      <trkpt lat="44.89312" lon="6.083">
        <ele>2260.6</ele>
        <time>2024-08-14T07:03:11Z</time>
      </trkpt>
      <trkpt lat="44.89311" lon="6.08297">
        <ele>2260.6</ele>
        <time>2024-08-14T07:03:12Z</time>
      </trkpt>
      <trkpt lat="44.89311" lon="6.08297">
        <ele>2260.8</ele>
        <time>2024-08-14T07:03:13Z</time>
      </trkpt>
      <trkpt lat="44.89309" lon="6.08294">
        <ele>2261</ele>
        <time>2024-08-14T07:03:14Z</time>
      </trkpt>
      <trkpt lat="44.89309" lon="6.08294">
        <ele>2261.2</ele>
        <time>2024-08-14T07:03:15Z</time>
      </trkpt>
      <trkpt lat="44.89308" lon="6.08291">
        <ele>2261.4</ele>
        <time>2024-08-14T07:03:16Z</time>
      </trkpt>
      <trkpt lat="44.89308" lon="6.08291">
        <ele>2261.6</ele>
        <time>2024-08-14T07:03:17Z</time>
      </trkpt>
      <trkpt lat="44.89308" lon="6.08288">
        <ele>2261.6</ele>
        <time>2024-08-14T07:03:18Z</time>
      </trkpt>
      <trkpt lat="44.89308" lon="6.08288">
        <ele>2261.6</ele>
        <time>2024-08-14T07:03:19Z</time>
      </trkpt>
      <trkpt lat="44.89306" lon="6.08286">
        <ele>2261.6</ele>
        <time>2024-08-14T07:03:20Z</time>
      </trkpt>
      <trkpt lat="44.89306" lon="6.08286">
        <ele>2262</ele>
        <time>2024-08-14T07:03:21Z</time>
      </trkpt>
      <trkpt lat="44.89305" lon="6.08283">
        <ele>2262</ele>
        <time>2024-08-14T07:03:22Z</time>
      </trkpt>
      <trkpt lat="44.89305" lon="6.08283">
        <ele>2262</ele>
        <time>2024-08-14T07:03:23Z</time>
      </trkpt>
      <trkpt lat="44.89304" lon="6.08281">
        <ele>2262.2</ele>
        <time>2024-08-14T07:03:24Z</time>
      </trkpt>
      <trkpt lat="44.89304" lon="6.08281">
        <ele>2262.6</ele>
        <time>2024-08-14T07:03:25Z</time>
      </trkpt>
      <trkpt lat="44.89304" lon="6.08281">
        <ele>2262.8</ele>
        <time>2024-08-14T07:03:26Z</time>
      </trkpt>
      <trkpt lat="44.89303" lon="6.08277">
        <ele>2263</ele>
        <time>2024-08-14T07:03:27Z</time>
      </trkpt>
      <trkpt lat="44.89303" lon="6.08277">
        <ele>2263.2</ele>
        <time>2024-08-14T07:03:28Z</time>
      </trkpt>
      <trkpt lat="44.89302" lon="6.08275">
        <ele>2263.4</ele>
        <time>2024-08-14T07:03:29Z</time>
      </trkpt>
      <trkpt lat="44.89302" lon="6.08275">
        <ele>2263.6</ele>
        <time>2024-08-14T07:03:30Z</time>
      </trkpt>
      <trkpt lat="44.89301" lon="6.08273">
        <ele>2263.8</ele>
        <time>2024-08-14T07:03:31Z</time>
      </trkpt>
      <trkpt lat="44.89301" lon="6.08273">
        <ele>2263.8</ele>
        <time>2024-08-14T07:03:32Z</time>
      </trkpt>
      <trkpt lat="44.893" lon="6.0827">
        <ele>2264</ele>
        <time>2024-08-14T07:03:33Z</time>
      </trkpt>
      <trkpt lat="44.893" lon="6.0827">
        <ele>2264.2</ele>
        <time>2024-08-14T07:03:34Z</time>
      </trkpt>
      <trkpt lat="44.89299" lon="6.08267">
        <ele>2264.6</ele>
        <time>2024-08-14T07:03:35Z</time>
      </trkpt>
      <trkpt lat="44.89299" lon="6.08267">
        <ele>2264.6</ele>
        <time>2024-08-14T07:03:36Z</time>
      </trkpt>
      <trkpt lat="44.89298" lon="6.08264">
        <ele>2264.8</ele>
        <time>2024-08-14T07:03:37Z</time>
      </trkpt>
      <trkpt lat="44.89298" lon="6.08264">
        <ele>2265.2</ele>
        <time>2024-08-14T07:03:38Z</time>
      </trkpt>
      <trkpt lat="44.89296" lon="6.08262">
        <ele>2265.4</ele>
        <time>2024-08-14T07:03:39Z</time>
      </trkpt>
      <trkpt lat="44.89296" lon="6.08262">
        <ele>2265.4</ele>
        <time>2024-08-14T07:03:40Z</time>
      </trkpt>
      <trkpt lat="44.89295" lon="6.08259">
        <ele>2265.8</ele>
        <time>2024-08-14T07:03:41Z</time>
      </trkpt>
      <trkpt lat="44.89295" lon="6.08259">
        <ele>2265.8</ele>
        <time>2024-08-14T07:03:42Z</time>
      </trkpt>
      <trkpt lat="44.89293" lon="6.08257">
        <ele>2265.8</ele>
        <time>2024-08-14T07:03:43Z</time>
      </trkpt>
      <trkpt lat="44.89293" lon="6.08257">
        <ele>2265.8</ele>
        <time>2024-08-14T07:03:44Z</time>
      </trkpt>
      <trkpt lat="44.89292" lon="6.08254">
        <ele>2265.8</ele>
        <time>2024-08-14T07:03:45Z</time>
      </trkpt>
      <trkpt lat="44.89292" lon="6.08254">
        <ele>2265.8</ele>
        <time>2024-08-14T07:03:46Z</time>
      </trkpt>
      <trkpt lat="44.8929" lon="6.08252">
        <ele>2266.2</ele>
        <time>2024-08-14T07:03:47Z</time>
      </trkpt>
      <trkpt lat="44.8929" lon="6.08252">
        <ele>2266.4</ele>
        <time>2024-08-14T07:03:48Z</time>
      </trkpt>
      <trkpt lat="44.89289" lon="6.08249">
        <ele>2266.6</ele>
        <time>2024-08-14T07:03:49Z</time>
      </trkpt>
      <trkpt lat="44.89289" lon="6.08249">
        <ele>2266.6</ele>
        <time>2024-08-14T07:03:50Z</time>
      </trkpt>
      <trkpt lat="44.89287" lon="6.08247">
        <ele>2266.6</ele>
        <time>2024-08-14T07:03:51Z</time>
      </trkpt>
      <trkpt lat="44.89287" lon="6.08247">
        <ele>2267</ele>
        <time>2024-08-14T07:03:52Z</time>
      </trkpt>
      <trkpt lat="44.89285" lon="6.08245">
        <ele>2267</ele>
        <time>2024-08-14T07:03:53Z</time>
      </trkpt>
      <trkpt lat="44.89285" lon="6.08245">
        <ele>2267</ele>
        <time>2024-08-14T07:03:54Z</time>
      </trkpt>
      <trkpt lat="44.89283" lon="6.08242">
        <ele>2267</ele>
        <time>2024-08-14T07:03:55Z</time>
      </trkpt>
      <trkpt lat="44.89283" lon="6.08242">
        <ele>2267</ele>
        <time>2024-08-14T07:03:56Z</time>
      </trkpt>
      <trkpt lat="44.89282" lon="6.0824">
        <ele>2267</ele>
        <time>2024-08-14T07:03:57Z</time>
      </trkpt>
      <trkpt lat="44.89282" lon="6.0824">
        <ele>2267.2</ele>
        <time>2024-08-14T07:03:58Z</time>
      </trkpt>
      <trkpt lat="44.8928" lon="6.08238">
        <ele>2267.2</ele>
        <time>2024-08-14T07:03:59Z</time>
      </trkpt>
      <trkpt lat="44.8928" lon="6.08238">
        <ele>2267.4</ele>
        <time>2024-08-14T07:04:00Z</time>
      </trkpt>
      <trkpt lat="44.89278" lon="6.08236">
        <ele>2267.6</ele>
        <time>2024-08-14T07:04:01Z</time>
      </trkpt>
      <trkpt lat="44.89278" lon="6.08236">
        <ele>2267.8</ele>
        <time>2024-08-14T07:04:02Z</time>
      </trkpt>
      <trkpt lat="44.89276" lon="6.08234">
        <ele>2267.8</ele>
        <time>2024-08-14T07:04:03Z</time>
      </trkpt>
      <trkpt lat="44.89276" lon="6.08234">
        <ele>2267.8</ele>
        <time>2024-08-14T07:04:04Z</time>
      </trkpt>
      <trkpt lat="44.89274" lon="6.08232">
        <ele>2267.8</ele>
        <time>2024-08-14T07:04:05Z</time>
      </trkpt>
      <trkpt lat="44.89274" lon="6.08232">
        <ele>2268</ele>
        <time>2024-08-14T07:04:06Z</time>
      </trkpt>
      <trkpt lat="44.89272" lon="6.0823">
        <ele>2268.4</ele>
        <time>2024-08-14T07:04:07Z</time>
      </trkpt>
      <trkpt lat="44.89272" lon="6.0823">
        <ele>2268.8</ele>
        <time>2024-08-14T07:04:08Z</time>
      </trkpt>
      <trkpt lat="44.8927" lon="6.08228">
        <ele>2268.8</ele>
        <time>2024-08-14T07:04:09Z</time>
      </trkpt>
      <trkpt lat="44.8927" lon="6.08228">
        <ele>2268.8</ele>
        <time>2024-08-14T07:04:10Z</time>
      </trkpt>
      <trkpt lat="44.89268" lon="6.08226">
        <ele>2268.8</ele>
        <time>2024-08-14T07:04:11Z</time>
      </trkpt>
      <trkpt lat="44.89268" lon="6.08226">
        <ele>2268.8</ele>
        <time>2024-08-14T07:04:12Z</time>
      </trkpt>
      <trkpt lat="44.89266" lon="6.08224">
        <ele>2269</ele>
        <time>2024-08-14T07:04:13Z</time>
      </trkpt>
      <trkpt lat="44.89266" lon="6.08224">
        <ele>2269.2</ele>
        <time>2024-08-14T07:04:14Z</time>
      </trkpt>
      <trkpt lat="44.89264" lon="6.08222">
        <ele>2269.4</ele>
        <time>2024-08-14T07:04:15Z</time>
      </trkpt>
      <trkpt lat="44.89264" lon="6.08222">
        <ele>2269.6</ele>
        <time>2024-08-14T07:04:16Z</time>
      </trkpt>
      <trkpt lat="44.89262" lon="6.0822">
        <ele>2269.6</ele>
        <time>2024-08-14T07:04:17Z</time>
      </trkpt>
      <trkpt lat="44.89262" lon="6.0822">
        <ele>2269.8</ele>
        <time>2024-08-14T07:04:18Z</time>
      </trkpt>
      <trkpt lat="44.89261" lon="6.08219">
        <ele>2270</ele>
        <time>2024-08-14T07:04:19Z</time>
      </trkpt>
      <trkpt lat="44.89261" lon="6.08219">
        <ele>2270.2</ele>
        <time>2024-08-14T07:04:20Z</time>
      </trkpt>
      <trkpt lat="44.89261" lon="6.08219">
        <ele>2270.2</ele>
        <time>2024-08-14T07:04:21Z</time>
      </trkpt>
      <trkpt lat="44.89258" lon="6.08217">
        <ele>2270.6</ele>
        <time>2024-08-14T07:04:22Z</time>
      </trkpt>
      <trkpt lat="44.89258" lon="6.08217">
        <ele>2270.6</ele>
        <time>2024-08-14T07:04:23Z</time>
      </trkpt>
      <trkpt lat="44.89257" lon="6.08215">
        <ele>2271</ele>
        <time>2024-08-14T07:04:24Z</time>
      </trkpt>
      <trkpt lat="44.89257" lon="6.08215">
        <ele>2271.2</ele>
        <time>2024-08-14T07:04:25Z</time>
      </trkpt>
      <trkpt lat="44.89254" lon="6.08214">
        <ele>2271.6</ele>
        <time>2024-08-14T07:04:26Z</time>
      </trkpt>
      <trkpt lat="44.89254" lon="6.08214">
        <ele>2271.6</ele>
        <time>2024-08-14T07:04:27Z</time>
      </trkpt>
      <trkpt lat="44.89253" lon="6.08212">
        <ele>2271.6</ele>
        <time>2024-08-14T07:04:28Z</time>
      </trkpt>
      <trkpt lat="44.89253" lon="6.08212">
        <ele>2271.6</ele>
        <time>2024-08-14T07:04:29Z</time>
      </trkpt>
      <trkpt lat="44.89253" lon="6.08212">
        <ele>2271.8</ele>
        <time>2024-08-14T07:04:30Z</time>
      </trkpt>
      <trkpt lat="44.89251" lon="6.08211">
        <ele>2272</ele>
        <time>2024-08-14T07:04:31Z</time>
      </trkpt>
      <trkpt lat="44.89251" lon="6.08211">
        <ele>2272.2</ele>
        <time>2024-08-14T07:04:32Z</time>
      </trkpt>
      <trkpt lat="44.89251" lon="6.08211">
        <ele>2272.6</ele>
        <time>2024-08-14T07:04:33Z</time>
      </trkpt>
      <trkpt lat="44.89249" lon="6.0821">
        <ele>2272.8</ele>
        <time>2024-08-14T07:04:34Z</time>
      </trkpt>
      <trkpt lat="44.89249" lon="6.0821">
        <ele>2273.2</ele>
        <time>2024-08-14T07:04:35Z</time>
      </trkpt>
      <trkpt lat="44.89247" lon="6.08209">
        <ele>2273.2</ele>
        <time>2024-08-14T07:04:36Z</time>
      </trkpt>
      <trkpt lat="44.89247" lon="6.08209">
        <ele>2273.4</ele>
        <time>2024-08-14T07:04:37Z</time>
      </trkpt>
      <trkpt lat="44.89245" lon="6.08208">
        <ele>2273.8</ele>
        <time>2024-08-14T07:04:38Z</time>
      </trkpt>
      <trkpt lat="44.89245" lon="6.08208">
        <ele>2274</ele>
        <time>2024-08-14T07:04:39Z</time>
      </trkpt>
      <trkpt lat="44.89243" lon="6.08207">
        <ele>2274</ele>
        <time>2024-08-14T07:04:40Z</time>
      </trkpt>
      <trkpt lat="44.89243" lon="6.08207">
        <ele>2274</ele>
        <time>2024-08-14T07:04:41Z</time>
      </trkpt>
      <trkpt lat="44.89241" lon="6.08205">
        <ele>2274.2</ele>
        <time>2024-08-14T07:04:42Z</time>
      </trkpt>
      <trkpt lat="44.89241" lon="6.08205">
        <ele>2274.2</ele>
        <time>2024-08-14T07:04:43Z</time>
      </trkpt>
      <trkpt lat="44.89238" lon="6.08203">
        <ele>2274.2</ele>
        <time>2024-08-14T07:04:44Z</time>
      </trkpt>
      <trkpt lat="44.89238" lon="6.08203">
        <ele>2274.2</ele>
        <time>2024-08-14T07:04:45Z</time>
      </trkpt>
      <trkpt lat="44.89237" lon="6.08202">
        <ele>2274.8</ele>
        <time>2024-08-14T07:04:46Z</time>
      </trkpt>
      <trkpt lat="44.89237" lon="6.08202">
        <ele>2275</ele>
        <time>2024-08-14T07:04:47Z</time>
      </trkpt>
      <trkpt lat="44.89234" lon="6.08201">
        <ele>2275</ele>
        <time>2024-08-14T07:04:48Z</time>
      </trkpt>
      <trkpt lat="44.89234" lon="6.08201">
        <ele>2275</ele>
        <time>2024-08-14T07:04:49Z</time>
      </trkpt>
      <trkpt lat="44.89232" lon="6.08199">
        <ele>2275.4</ele>
        <time>2024-08-14T07:04:50Z</time>
      </trkpt>
      <trkpt lat="44.89232" lon="6.08199">
        <ele>2275.4</ele>
        <time>2024-08-14T07:04:51Z</time>
      </trkpt>
      <trkpt lat="44.8923" lon="6.08199">
        <ele>2275.4</ele>
        <time>2024-08-14T07:04:52Z</time>
      </trkpt>
      <trkpt lat="44.8923" lon="6.08199">
        <ele>2275.6</ele>
        <time>2024-08-14T07:04:53Z</time>
      </trkpt>
      <trkpt lat="44.89228" lon="6.08198">
        <ele>2276</ele>
        <time>2024-08-14T07:04:54Z</time>
      </trkpt>
      <trkpt lat="44.89228" lon="6.08198">
        <ele>2276</ele>
        <time>2024-08-14T07:04:55Z</time>
      </trkpt>
      <trkpt lat="44.89225" lon="6.08197">
        <ele>2276.2</ele>
        <time>2024-08-14T07:04:56Z</time>
      </trkpt>
      <trkpt lat="44.89225" lon="6.08197">
        <ele>2276.2</ele>
        <time>2024-08-14T07:04:57Z</time>
      </trkpt>
      <trkpt lat="44.89223" lon="6.08196">
        <ele>2276.2</ele>
        <time>2024-08-14T07:04:58Z</time>
      </trkpt>
      <trkpt lat="44.89223" lon="6.08196">
        <ele>2276.6</ele>
        <time>2024-08-14T07:04:59Z</time>
      </trkpt>
      <trkpt lat="44.89221" lon="6.08196">
        <ele>2276.8</ele>
        <time>2024-08-14T07:05:00Z</time>
      </trkpt>
      <trkpt lat="44.89221" lon="6.08196">
        <ele>2276.8</ele>
        <time>2024-08-14T07:05:01Z</time>
      </trkpt>
      <trkpt lat="44.89219" lon="6.08195">
        <ele>2276.6</ele>
        <time>2024-08-14T07:05:02Z</time>
      </trkpt>
      <trkpt lat="44.89219" lon="6.08195">
        <ele>2276.6</ele>
        <time>2024-08-14T07:05:03Z</time>
      </trkpt>
      <trkpt lat="44.89217" lon="6.08194">
        <ele>2276.8</ele>
        <time>2024-08-14T07:05:04Z</time>
      </trkpt>
      <trkpt lat="44.89217" lon="6.08194">
        <ele>2276.8</ele>
        <time>2024-08-14T07:05:05Z</time>
      </trkpt>
      <trkpt lat="44.89214" lon="6.08193">
        <ele>2276.6</ele>
        <time>2024-08-14T07:05:06Z</time>
      </trkpt>
      <trkpt lat="44.89214" lon="6.08193">
        <ele>2276.4</ele>
        <time>2024-08-14T07:05:07Z</time>
      </trkpt>
      <trkpt lat="44.89212" lon="6.08191">
        <ele>2276.4</ele>
        <time>2024-08-14T07:05:08Z</time>
      </trkpt>
      <trkpt lat="44.89212" lon="6.08191">
        <ele>2276.4</ele>
        <time>2024-08-14T07:05:09Z</time>
      </trkpt>
      <trkpt lat="44.8921" lon="6.08189">
        <ele>2276.6</ele>
        <time>2024-08-14T07:05:10Z</time>
      </trkpt>
      <trkpt lat="44.8921" lon="6.08189">
        <ele>2276.6</ele>
        <time>2024-08-14T07:05:11Z</time>
      </trkpt>
      <trkpt lat="44.89208" lon="6.08188">
        <ele>2276.8</ele>
        <time>2024-08-14T07:05:12Z</time>
      </trkpt>
      <trkpt lat="44.89208" lon="6.08188">
        <ele>2276.8</ele>
        <time>2024-08-14T07:05:13Z</time>
      </trkpt>
      <trkpt lat="44.89206" lon="6.08186">
        <ele>2276.8</ele>
        <time>2024-08-14T07:05:14Z</time>
      </trkpt>
      <trkpt lat="44.89206" lon="6.08186">
        <ele>2277.2</ele>
        <time>2024-08-14T07:05:15Z</time>
      </trkpt>
      <trkpt lat="44.89205" lon="6.08184">
        <ele>2277.2</ele>
        <time>2024-08-14T07:05:16Z</time>
      </trkpt>
      <trkpt lat="44.89205" lon="6.08184">
        <ele>2277</ele>
        <time>2024-08-14T07:05:17Z</time>
      </trkpt>
      <trkpt lat="44.89203" lon="6.08183">
        <ele>2277</ele>
        <time>2024-08-14T07:05:18Z</time>
      </trkpt>
      <trkpt lat="44.89203" lon="6.08183">
        <ele>2277.2</ele>
        <time>2024-08-14T07:05:19Z</time>
      </trkpt>
      <trkpt lat="44.892" lon="6.08181">
        <ele>2277.2</ele>
        <time>2024-08-14T07:05:20Z</time>
      </trkpt>
      <trkpt lat="44.892" lon="6.08181">
        <ele>2277.2</ele>
        <time>2024-08-14T07:05:21Z</time>
      </trkpt>
      <trkpt lat="44.89199" lon="6.08179">
        <ele>2277.6</ele>
        <time>2024-08-14T07:05:22Z</time>
      </trkpt>
      <trkpt lat="44.89199" lon="6.08179">
        <ele>2277.8</ele>
        <time>2024-08-14T07:05:23Z</time>
      </trkpt>
      <trkpt lat="44.89197" lon="6.08177">
        <ele>2278</ele>
        <time>2024-08-14T07:05:24Z</time>
      </trkpt>
      <trkpt lat="44.89197" lon="6.08177">
        <ele>2278.2</ele>
        <time>2024-08-14T07:05:25Z</time>
      </trkpt>
      <trkpt lat="44.89195" lon="6.08176">
        <ele>2278.2</ele>
        <time>2024-08-14T07:05:26Z</time>
      </trkpt>
      <trkpt lat="44.89195" lon="6.08176">
        <ele>2278.4</ele>
        <time>2024-08-14T07:05:27Z</time>
      </trkpt>
      <trkpt lat="44.89193" lon="6.08174">
        <ele>2278.6</ele>
        <time>2024-08-14T07:05:28Z</time>
      </trkpt>
      <trkpt lat="44.89193" lon="6.08174">
        <ele>2278.8</ele>
        <time>2024-08-14T07:05:29Z</time>
      </trkpt>
      <trkpt lat="44.89189" lon="6.08173">
        <ele>2278.8</ele>
        <time>2024-08-14T07:05:30Z</time>
      </trkpt>
      <trkpt lat="44.89189" lon="6.08173">
        <ele>2278.6</ele>
        <time>2024-08-14T07:05:31Z</time>
      </trkpt>
      <trkpt lat="44.89187" lon="6.08172">
        <ele>2278.6</ele>
        <time>2024-08-14T07:05:32Z</time>
      </trkpt>
      <trkpt lat="44.89187" lon="6.08172">
        <ele>2278.6</ele>
        <time>2024-08-14T07:05:33Z</time>
      </trkpt>
      <trkpt lat="44.89187" lon="6.08172">
        <ele>2278.8</ele>
        <time>2024-08-14T07:05:34Z</time>
      </trkpt>
      <trkpt lat="44.89184" lon="6.0817">
        <ele>2279</ele>
        <time>2024-08-14T07:05:35Z</time>
      </trkpt>
      <trkpt lat="44.89184" lon="6.0817">
        <ele>2279</ele>
        <time>2024-08-14T07:05:36Z</time>
      </trkpt>
      <trkpt lat="44.89183" lon="6.08169">
        <ele>2279</ele>
        <time>2024-08-14T07:05:37Z</time>
      </trkpt>
      <trkpt lat="44.89183" lon="6.08169">
        <ele>2279</ele>
        <time>2024-08-14T07:05:38Z</time>
      </trkpt>
      <trkpt lat="44.89183" lon="6.08169">
        <ele>2279.2</ele>
        <time>2024-08-14T07:05:39Z</time>
      </trkpt>
      <trkpt lat="44.89181" lon="6.08167">
        <ele>2280</ele>
        <time>2024-08-14T07:05:40Z</time>
      </trkpt>
      <trkpt lat="44.89181" lon="6.08167">
        <ele>2280.2</ele>
        <time>2024-08-14T07:05:41Z</time>
      </trkpt>
      <trkpt lat="44.89181" lon="6.08167">
        <ele>2280.2</ele>
        <time>2024-08-14T07:05:42Z</time>
      </trkpt>
      <trkpt lat="44.89182" lon="6.08163">
        <ele>2280.4</ele>
        <time>2024-08-14T07:05:43Z</time>
      </trkpt>
      <trkpt lat="44.89182" lon="6.08163">
        <ele>2280.6</ele>
        <time>2024-08-14T07:05:44Z</time>
      </trkpt>
      <trkpt lat="44.89183" lon="6.08161">
        <ele>2280.8</ele>
        <time>2024-08-14T07:05:45Z</time>
      </trkpt>
      <trkpt lat="44.89183" lon="6.08161">
        <ele>2281</ele>
        <time>2024-08-14T07:05:46Z</time>
      </trkpt>
      <trkpt lat="44.89184" lon="6.08158">
        <ele>2281</ele>
        <time>2024-08-14T07:05:47Z</time>
      </trkpt>
      <trkpt lat="44.89184" lon="6.08158">
        <ele>2281</ele>
        <time>2024-08-14T07:05:48Z</time>
      </trkpt>
      <trkpt lat="44.89185" lon="6.08154">
        <ele>2281</ele>
        <time>2024-08-14T07:05:49Z</time>
      </trkpt>
      <trkpt lat="44.89185" lon="6.08154">
        <ele>2280.8</ele>
        <time>2024-08-14T07:05:50Z</time>
      </trkpt>
      <trkpt lat="44.89187" lon="6.08152">
        <ele>2280.8</ele>
        <time>2024-08-14T07:05:51Z</time>
      </trkpt>
      <trkpt lat="44.89187" lon="6.08152">
        <ele>2280.8</ele>
        <time>2024-08-14T07:05:52Z</time>
      </trkpt>
      <trkpt lat="44.89188" lon="6.08149">
        <ele>2280.8</ele>
        <time>2024-08-14T07:05:53Z</time>
      </trkpt>
      <trkpt lat="44.89188" lon="6.08149">
        <ele>2281</ele>
        <time>2024-08-14T07:05:54Z</time>
      </trkpt>
      <trkpt lat="44.89189" lon="6.08146">
        <ele>2281.6</ele>
        <time>2024-08-14T07:05:55Z</time>
      </trkpt>
      <trkpt lat="44.89189" lon="6.08146">
        <ele>2281.6</ele>
        <time>2024-08-14T07:05:56Z</time>
      </trkpt>
      <trkpt lat="44.89189" lon="6.08142">
        <ele>2281.4</ele>
        <time>2024-08-14T07:05:57Z</time>
      </trkpt>
      <trkpt lat="44.89189" lon="6.08142">
        <ele>2281.4</ele>
        <time>2024-08-14T07:05:58Z</time>
      </trkpt>
      <trkpt lat="44.89191" lon="6.08138">
        <ele>2281.4</ele>
        <time>2024-08-14T07:05:59Z</time>
      </trkpt>
      <trkpt lat="44.89191" lon="6.08138">
        <ele>2281.6</ele>
        <time>2024-08-14T07:06:00Z</time>
      </trkpt>
      <trkpt lat="44.89191" lon="6.08135">
        <ele>2281.6</ele>
        <time>2024-08-14T07:06:01Z</time>
      </trkpt>
      <trkpt lat="44.89191" lon="6.08135">
        <ele>2282</ele>
        <time>2024-08-14T07:06:02Z</time>
      </trkpt>
      <trkpt lat="44.89192" lon="6.08132">
        <ele>2282</ele>
        <time>2024-08-14T07:06:03Z</time>
      </trkpt>
      <trkpt lat="44.89192" lon="6.08132">
        <ele>2282</ele>
        <time>2024-08-14T07:06:04Z</time>
      </trkpt>
      <trkpt lat="44.89193" lon="6.08128">
        <ele>2282</ele>
        <time>2024-08-14T07:06:05Z</time>
      </trkpt>
      <trkpt lat="44.89193" lon="6.08128">
        <ele>2282</ele>
        <time>2024-08-14T07:06:06Z</time>
      </trkpt>
      <trkpt lat="44.89194" lon="6.08124">
        <ele>2282.2</ele>
        <time>2024-08-14T07:06:07Z</time>
      </trkpt>
      <trkpt lat="44.89194" lon="6.08124">
        <ele>2282.2</ele>
        <time>2024-08-14T07:06:08Z</time>
      </trkpt>
      <trkpt lat="44.89195" lon="6.08121">
        <ele>2282.2</ele>
        <time>2024-08-14T07:06:09Z</time>
      </trkpt>
      <trkpt lat="44.89195" lon="6.08121">
        <ele>2282.2</ele>
        <time>2024-08-14T07:06:10Z</time>
      </trkpt>
      <trkpt lat="44.89197" lon="6.08118">
        <ele>2282.2</ele>
        <time>2024-08-14T07:06:11Z</time>
      </trkpt>
      <trkpt lat="44.89197" lon="6.08118">
        <ele>2282.2</ele>
        <time>2024-08-14T07:06:12Z</time>
      </trkpt>
      <trkpt lat="44.89198" lon="6.08115">
        <ele>2282.4</ele>
        <time>2024-08-14T07:06:13Z</time>
      </trkpt>
      <trkpt lat="44.89198" lon="6.08115">
        <ele>2282.6</ele>
        <time>2024-08-14T07:06:14Z</time>
      </trkpt>
      <trkpt lat="44.89199" lon="6.08111">
        <ele>2282.6</ele>
        <time>2024-08-14T07:06:15Z</time>
      </trkpt>
      <trkpt lat="44.89199" lon="6.08111">
        <ele>2282.8</ele>
        <time>2024-08-14T07:06:16Z</time>
      </trkpt>
      <trkpt lat="44.892" lon="6.08108">
        <ele>2283</ele>
        <time>2024-08-14T07:06:17Z</time>
      </trkpt>
      <trkpt lat="44.892" lon="6.08108">
        <ele>2283.4</ele>
        <time>2024-08-14T07:06:18Z</time>
      </trkpt>
      <trkpt lat="44.89201" lon="6.08105">
        <ele>2283.4</ele>
        <time>2024-08-14T07:06:19Z</time>
      </trkpt>
      <trkpt lat="44.89201" lon="6.08105">
        <ele>2283.6</ele>
        <time>2024-08-14T07:06:20Z</time>
      </trkpt>
      <trkpt lat="44.89202" lon="6.08102">
        <ele>2283.8</ele>
        <time>2024-08-14T07:06:21Z</time>
      </trkpt>
      <trkpt lat="44.89202" lon="6.08102">
        <ele>2284</ele>
        <time>2024-08-14T07:06:22Z</time>
      </trkpt>
      <trkpt lat="44.89204" lon="6.08098">
        <ele>2284.2</ele>
        <time>2024-08-14T07:06:23Z</time>
      </trkpt>
      <trkpt lat="44.89204" lon="6.08098">
        <ele>2284.2</ele>
        <time>2024-08-14T07:06:24Z</time>
      </trkpt>
      <trkpt lat="44.89205" lon="6.08095">
        <ele>2284.2</ele>
        <time>2024-08-14T07:06:25Z</time>
      </trkpt>
      <trkpt lat="44.89205" lon="6.08095">
        <ele>2284.4</ele>
        <time>2024-08-14T07:06:26Z</time>
      </trkpt>
      <trkpt lat="44.89207" lon="6.08093">
        <ele>2284.4</ele>
        <time>2024-08-14T07:06:27Z</time>
      </trkpt>
      <trkpt lat="44.89207" lon="6.08093">
        <ele>2284.4</ele>
        <time>2024-08-14T07:06:28Z</time>
      </trkpt>
      <trkpt lat="44.89208" lon="6.0809">
        <ele>2284.8</ele>
        <time>2024-08-14T07:06:29Z</time>
      </trkpt>
      <trkpt lat="44.89208" lon="6.0809">
        <ele>2285.2</ele>
        <time>2024-08-14T07:06:30Z</time>
      </trkpt>
      <trkpt lat="44.89209" lon="6.08087">
        <ele>2285.4</ele>
        <time>2024-08-14T07:06:31Z</time>
      </trkpt>
      <trkpt lat="44.89209" lon="6.08087">
        <ele>2285.4</ele>
        <time>2024-08-14T07:06:32Z</time>
      </trkpt>
      <trkpt lat="44.89211" lon="6.08084">
        <ele>2285.6</ele>
        <time>2024-08-14T07:06:33Z</time>
      </trkpt>
      <trkpt lat="44.89211" lon="6.08084">
        <ele>2285.6</ele>
        <time>2024-08-14T07:06:34Z</time>
      </trkpt>
      <trkpt lat="44.89212" lon="6.08081">
        <ele>2286</ele>
        <time>2024-08-14T07:06:35Z</time>
      </trkpt>
      <trkpt lat="44.89212" lon="6.08081">
        <ele>2286</ele>
        <time>2024-08-14T07:06:36Z</time>
      </trkpt>
      <trkpt lat="44.89213" lon="6.08078">
        <ele>2286.2</ele>
        <time>2024-08-14T07:06:37Z</time>
      </trkpt>
      <trkpt lat="44.89213" lon="6.08078">
        <ele>2286.6</ele>
        <time>2024-08-14T07:06:38Z</time>
      </trkpt>
      <trkpt lat="44.89215" lon="6.08075">
        <ele>2286.6</ele>
        <time>2024-08-14T07:06:39Z</time>
      </trkpt>
      <trkpt lat="44.89215" lon="6.08075">
        <ele>2286.4</ele>
        <time>2024-08-14T07:06:40Z</time>
      </trkpt>
      <trkpt lat="44.89216" lon="6.08072">
        <ele>2286.4</ele>
        <time>2024-08-14T07:06:41Z</time>
      </trkpt>
      <trkpt lat="44.89216" lon="6.08072">
        <ele>2286.6</ele>
        <time>2024-08-14T07:06:42Z</time>
      </trkpt>
      <trkpt lat="44.89217" lon="6.08068">
        <ele>2286.8</ele>
        <time>2024-08-14T07:06:43Z</time>
      </trkpt>
      <trkpt lat="44.89217" lon="6.08068">
        <ele>2287</ele>
        <time>2024-08-14T07:06:44Z</time>
      </trkpt>
      <trkpt lat="44.89219" lon="6.08065">
        <ele>2287</ele>
        <time>2024-08-14T07:06:45Z</time>
      </trkpt>
      <trkpt lat="44.89219" lon="6.08065">
        <ele>2287</ele>
        <time>2024-08-14T07:06:46Z</time>
      </trkpt>
      <trkpt lat="44.8922" lon="6.08061">
        <ele>2287</ele>
        <time>2024-08-14T07:06:47Z</time>
      </trkpt>
      <trkpt lat="44.8922" lon="6.08061">
        <ele>2287</ele>
        <time>2024-08-14T07:06:48Z</time>
      </trkpt>
      <trkpt lat="44.89221" lon="6.08057">
        <ele>2287</ele>
        <time>2024-08-14T07:06:49Z</time>
      </trkpt>
      <trkpt lat="44.89221" lon="6.08057">
        <ele>2287</ele>
        <time>2024-08-14T07:06:50Z</time>
      </trkpt>
      <trkpt lat="44.89221" lon="6.08053">
        <ele>2287</ele>
        <time>2024-08-14T07:06:51Z</time>
      </trkpt>
      <trkpt lat="44.89221" lon="6.08053">
        <ele>2287</ele>
        <time>2024-08-14T07:06:52Z</time>
      </trkpt>
      <trkpt lat="44.89222" lon="6.08049">
        <ele>2287</ele>
        <time>2024-08-14T07:06:53Z</time>
      </trkpt>
      <trkpt lat="44.89222" lon="6.08049">
        <ele>2287</ele>
        <time>2024-08-14T07:06:54Z</time>
      </trkpt>
      <trkpt lat="44.89223" lon="6.08045">
        <ele>2287</ele>
        <time>2024-08-14T07:06:55Z</time>
      </trkpt>
      <trkpt lat="44.89223" lon="6.08045">
        <ele>2287</ele>
        <time>2024-08-14T07:06:56Z</time>
      </trkpt>
      <trkpt lat="44.89225" lon="6.08042">
        <ele>2286.8</ele>
        <time>2024-08-14T07:06:57Z</time>
      </trkpt>
      <trkpt lat="44.89225" lon="6.08042">
        <ele>2286.8</ele>
        <time>2024-08-14T07:06:58Z</time>
      </trkpt>
      <trkpt lat="44.89226" lon="6.08038">
        <ele>2286.8</ele>
        <time>2024-08-14T07:06:59Z</time>
      </trkpt>
      <trkpt lat="44.89226" lon="6.08038">
        <ele>2286.8</ele>
        <time>2024-08-14T07:07:00Z</time>
      </trkpt>
      <trkpt lat="44.89227" lon="6.08034">
        <ele>2286.8</ele>
        <time>2024-08-14T07:07:01Z</time>
      </trkpt>
      <trkpt lat="44.89227" lon="6.08034">
        <ele>2286.8</ele>
        <time>2024-08-14T07:07:02Z</time>
      </trkpt>
      <trkpt lat="44.89229" lon="6.08031">
        <ele>2286.8</ele>
        <time>2024-08-14T07:07:03Z</time>
      </trkpt>
      <trkpt lat="44.89229" lon="6.08031">
        <ele>2286.8</ele>
        <time>2024-08-14T07:07:04Z</time>
      </trkpt>
      <trkpt lat="44.8923" lon="6.08028">
        <ele>2286.8</ele>
        <time>2024-08-14T07:07:05Z</time>
      </trkpt>
      <trkpt lat="44.8923" lon="6.08028">
        <ele>2287</ele>
        <time>2024-08-14T07:07:06Z</time>
      </trkpt>
      <trkpt lat="44.89231" lon="6.08024">
        <ele>2287.2</ele>
        <time>2024-08-14T07:07:07Z</time>
      </trkpt>
      <trkpt lat="44.89231" lon="6.08024">
        <ele>2287.2</ele>
        <time>2024-08-14T07:07:08Z</time>
      </trkpt>
      <trkpt lat="44.89233" lon="6.08021">
        <ele>2287.2</ele>
        <time>2024-08-14T07:07:09Z</time>
      </trkpt>
      <trkpt lat="44.89233" lon="6.08021">
        <ele>2287.4</ele>
        <time>2024-08-14T07:07:10Z</time>
      </trkpt>
      <trkpt lat="44.89235" lon="6.08017">
        <ele>2287.6</ele>
        <time>2024-08-14T07:07:11Z</time>
      </trkpt>
      <trkpt lat="44.89235" lon="6.08017">
        <ele>2287.6</ele>
        <time>2024-08-14T07:07:12Z</time>
      </trkpt>
      <trkpt lat="44.89237" lon="6.08014">
        <ele>2287.6</ele>
        <time>2024-08-14T07:07:13Z</time>
      </trkpt>
      <trkpt lat="44.89237" lon="6.08014">
        <ele>2287.6</ele>
        <time>2024-08-14T07:07:14Z</time>
      </trkpt>
      <trkpt lat="44.89238" lon="6.08011">
        <ele>2287.8</ele>
        <time>2024-08-14T07:07:15Z</time>
      </trkpt>
      <trkpt lat="44.89238" lon="6.08011">
        <ele>2288</ele>
        <time>2024-08-14T07:07:16Z</time>
      </trkpt>
      <trkpt lat="44.89239" lon="6.08008">
        <ele>2288</ele>
        <time>2024-08-14T07:07:17Z</time>
      </trkpt>
      <trkpt lat="44.89239" lon="6.08008">
        <ele>2288</ele>
        <time>2024-08-14T07:07:18Z</time>
      </trkpt>
      <trkpt lat="44.89241" lon="6.08005">
        <ele>2288.6</ele>
        <time>2024-08-14T07:07:19Z</time>
      </trkpt>
      <trkpt lat="44.89241" lon="6.08005">
        <ele>2288.6</ele>
        <time>2024-08-14T07:07:20Z</time>
      </trkpt>
      <trkpt lat="44.89243" lon="6.08002">
        <ele>2288.8</ele>
        <time>2024-08-14T07:07:21Z</time>
      </trkpt>
      <trkpt lat="44.89243" lon="6.08002">
        <ele>2288.8</ele>
        <time>2024-08-14T07:07:22Z</time>
      </trkpt>
      <trkpt lat="44.89244" lon="6.08">
        <ele>2289.2</ele>
        <time>2024-08-14T07:07:23Z</time>
      </trkpt>
      <trkpt lat="44.89244" lon="6.08">
        <ele>2289.4</ele>
        <time>2024-08-14T07:07:24Z</time>
      </trkpt>
      <trkpt lat="44.89246" lon="6.07997">
        <ele>2289.6</ele>
        <time>2024-08-14T07:07:25Z</time>
      </trkpt>
      <trkpt lat="44.89246" lon="6.07997">
        <ele>2289.6</ele>
        <time>2024-08-14T07:07:26Z</time>
      </trkpt>
      <trkpt lat="44.89247" lon="6.07994">
        <ele>2289.6</ele>
        <time>2024-08-14T07:07:27Z</time>
      </trkpt>
      <trkpt lat="44.89247" lon="6.07994">
        <ele>2289.8</ele>
        <time>2024-08-14T07:07:28Z</time>
      </trkpt>
      <trkpt lat="44.89249" lon="6.07991">
        <ele>2290</ele>
        <time>2024-08-14T07:07:29Z</time>
      </trkpt>
      <trkpt lat="44.89249" lon="6.07991">
        <ele>2290.2</ele>
        <time>2024-08-14T07:07:30Z</time>
      </trkpt>
      <trkpt lat="44.89249" lon="6.07989">
        <ele>2290.4</ele>
        <time>2024-08-14T07:07:31Z</time>
      </trkpt>
      <trkpt lat="44.89249" lon="6.07989">
        <ele>2290.6</ele>
        <time>2024-08-14T07:07:32Z</time>
      </trkpt>
      <trkpt lat="44.8925" lon="6.07985">
        <ele>2290.8</ele>
        <time>2024-08-14T07:07:33Z</time>
      </trkpt>
      <trkpt lat="44.8925" lon="6.07985">
        <ele>2291.2</ele>
        <time>2024-08-14T07:07:34Z</time>
      </trkpt>
      <trkpt lat="44.89251" lon="6.07982">
        <ele>2291.2</ele>
        <time>2024-08-14T07:07:35Z</time>
      </trkpt>
      <trkpt lat="44.89251" lon="6.07982">
        <ele>2291.4</ele>
        <time>2024-08-14T07:07:36Z</time>
      </trkpt>
      <trkpt lat="44.89253" lon="6.0798">
        <ele>2291.4</ele>
        <time>2024-08-14T07:07:37Z</time>
      </trkpt>
      <trkpt lat="44.89253" lon="6.0798">
        <ele>2291.8</ele>
        <time>2024-08-14T07:07:38Z</time>
      </trkpt>
      <trkpt lat="44.89254" lon="6.07978">
        <ele>2292.4</ele>
        <time>2024-08-14T07:07:39Z</time>
      </trkpt>
      <trkpt lat="44.89254" lon="6.07978">
        <ele>2292.4</ele>
        <time>2024-08-14T07:07:40Z</time>
      </trkpt>
      <trkpt lat="44.89254" lon="6.07978">
        <ele>2292.6</ele>
        <time>2024-08-14T07:07:41Z</time>
      </trkpt>
      <trkpt lat="44.89255" lon="6.07975">
        <ele>2292.8</ele>
        <time>2024-08-14T07:07:42Z</time>
      </trkpt>
      <trkpt lat="44.89255" lon="6.07975">
        <ele>2293</ele>
        <time>2024-08-14T07:07:43Z</time>
      </trkpt>
      <trkpt lat="44.89255" lon="6.07975">
        <ele>2293.6</ele>
        <time>2024-08-14T07:07:44Z</time>
      </trkpt>
      <trkpt lat="44.89256" lon="6.07971">
        <ele>2293.6</ele>
        <time>2024-08-14T07:07:45Z</time>
      </trkpt>
      <trkpt lat="44.89256" lon="6.07971">
        <ele>2293.6</ele>
        <time>2024-08-14T07:07:46Z</time>
      </trkpt>
      <trkpt lat="44.89256" lon="6.07971">
        <ele>2293.8</ele>
        <time>2024-08-14T07:07:47Z</time>
      </trkpt>
      <trkpt lat="44.89256" lon="6.07968">
        <ele>2293.8</ele>
        <time>2024-08-14T07:07:48Z</time>
      </trkpt>
      <trkpt lat="44.89256" lon="6.07968">
        <ele>2294</ele>
        <time>2024-08-14T07:07:49Z</time>
      </trkpt>
      <trkpt lat="44.89257" lon="6.07966">
        <ele>2294</ele>
        <time>2024-08-14T07:07:50Z</time>
      </trkpt>
      <trkpt lat="44.89257" lon="6.07966">
        <ele>2294</ele>
        <time>2024-08-14T07:07:51Z</time>
      </trkpt>
      <trkpt lat="44.89257" lon="6.07966">
        <ele>2293.8</ele>
        <time>2024-08-14T07:07:52Z</time>
      </trkpt>
      <trkpt lat="44.89259" lon="6.07963">
        <ele>2293.8</ele>
        <time>2024-08-14T07:07:53Z</time>
      </trkpt>
      <trkpt lat="44.89259" lon="6.07963">
        <ele>2294.2</ele>
        <time>2024-08-14T07:07:54Z</time>
      </trkpt>
      <trkpt lat="44.89259" lon="6.0796">
        <ele>2294.2</ele>
        <time>2024-08-14T07:07:55Z</time>
      </trkpt>
      <trkpt lat="44.89259" lon="6.0796">
        <ele>2294.2</ele>
        <time>2024-08-14T07:07:56Z</time>
      </trkpt>
      <trkpt lat="44.8926" lon="6.07957">
        <ele>2294.2</ele>
        <time>2024-08-14T07:07:57Z</time>
      </trkpt>
      <trkpt lat="44.8926" lon="6.07957">
        <ele>2294</ele>
        <time>2024-08-14T07:07:58Z</time>
      </trkpt>
      <trkpt lat="44.8926" lon="6.07955">
        <ele>2294</ele>
        <time>2024-08-14T07:07:59Z</time>
      </trkpt>
      <trkpt lat="44.8926" lon="6.07955">
        <ele>2293.8</ele>
        <time>2024-08-14T07:08:00Z</time>
      </trkpt>
      <trkpt lat="44.8926" lon="6.07955">
        <ele>2293.8</ele>
        <time>2024-08-14T07:08:01Z</time>
      </trkpt>
      <trkpt lat="44.89259" lon="6.07952">
        <ele>2294</ele>
        <time>2024-08-14T07:08:02Z</time>
      </trkpt>
      <trkpt lat="44.89259" lon="6.07952">
        <ele>2294</ele>
        <time>2024-08-14T07:08:03Z</time>
      </trkpt>
      <trkpt lat="44.89257" lon="6.0795">
        <ele>2294.2</ele>
        <time>2024-08-14T07:08:04Z</time>
      </trkpt>
      <trkpt lat="44.89257" lon="6.0795">
        <ele>2294.2</ele>
        <time>2024-08-14T07:08:05Z</time>
      </trkpt>
      <trkpt lat="44.89257" lon="6.0795">
        <ele>2294.2</ele>
        <time>2024-08-14T07:08:06Z</time>
      </trkpt>
      <trkpt lat="44.89256" lon="6.07948">
        <ele>2294</ele>
        <time>2024-08-14T07:08:07Z</time>
      </trkpt>
      <trkpt lat="44.89256" lon="6.07948">
        <ele>2293.8</ele>
        <time>2024-08-14T07:08:08Z</time>
      </trkpt>
      <trkpt lat="44.89256" lon="6.07948">
        <ele>2293.8</ele>
        <time>2024-08-14T07:08:09Z</time>
      </trkpt>
      <trkpt lat="44.89254" lon="6.07947">
        <ele>2294</ele>
        <time>2024-08-14T07:08:10Z</time>
      </trkpt>
      <trkpt lat="44.89254" lon="6.07947">
        <ele>2294.4</ele>
        <time>2024-08-14T07:08:11Z</time>
      </trkpt>
      <trkpt lat="44.89254" lon="6.07947">
        <ele>2294.4</ele>
        <time>2024-08-14T07:08:12Z</time>
      </trkpt>
      <trkpt lat="44.89254" lon="6.07947">
        <ele>2293.8</ele>
        <time>2024-08-14T07:08:13Z</time>
      </trkpt>
      <trkpt lat="44.89252" lon="6.07946">
        <ele>2293.8</ele>
        <time>2024-08-14T07:08:14Z</time>
      </trkpt>
      <trkpt lat="44.89252" lon="6.07946">
        <ele>2294</ele>
        <time>2024-08-14T07:08:15Z</time>
      </trkpt>
      <trkpt lat="44.89252" lon="6.07943">
        <ele>2294.4</ele>
        <time>2024-08-14T07:08:16Z</time>
      </trkpt>
      <trkpt lat="44.89252" lon="6.07943">
        <ele>2294.4</ele>
        <time>2024-08-14T07:08:17Z</time>
      </trkpt>
      <trkpt lat="44.89252" lon="6.0794">
        <ele>2294.4</ele>
        <time>2024-08-14T07:08:18Z</time>
      </trkpt>
      <trkpt lat="44.89252" lon="6.0794">
        <ele>2294.2</ele>
        <time>2024-08-14T07:08:19Z</time>
      </trkpt>
      <trkpt lat="44.89252" lon="6.0794">
        <ele>2294</ele>
        <time>2024-08-14T07:08:20Z</time>
      </trkpt>
      <trkpt lat="44.89252" lon="6.0794">
        <ele>2293.8</ele>
        <time>2024-08-14T07:08:21Z</time>
      </trkpt>
      <trkpt lat="44.89252" lon="6.0794">
        <ele>2293.6</ele>
        <time>2024-08-14T07:08:22Z</time>
      </trkpt>
      <trkpt lat="44.89252" lon="6.0794">
        <ele>2293.6</ele>
        <time>2024-08-14T07:08:23Z</time>
      </trkpt>
      <trkpt lat="44.89252" lon="6.0794">
        <ele>2293.6</ele>
        <time>2024-08-14T07:08:24Z</time>
      </trkpt>
      <trkpt lat="44.89252" lon="6.0794">
        <ele>2293.6</ele>
        <time>2024-08-14T07:08:25Z</time>
      </trkpt>
      <trkpt lat="44.89252" lon="6.0794">
        <ele>2293.6</ele>
        <time>2024-08-14T07:08:26Z</time>
      </trkpt>
      <trkpt lat="44.89252" lon="6.0794">
        <ele>2293.4</ele>
        <time>2024-08-14T07:08:27Z</time>
      </trkpt>
      <trkpt lat="44.89252" lon="6.0794">
        <ele>2293.4</ele>
        <time>2024-08-14T07:08:28Z</time>
      </trkpt>
      <trkpt lat="44.89252" lon="6.0794">
        <ele>2293.4</ele>
        <time>2024-08-14T07:08:29Z</time>
      </trkpt>
      <trkpt lat="44.89252" lon="6.0794">
        <ele>2293.6</ele>
        <time>2024-08-14T07:08:30Z</time>
      </trkpt>
      <trkpt lat="44.89252" lon="6.0794">
        <ele>2293.6</ele>
        <time>2024-08-14T07:08:31Z</time>
      </trkpt>
      <trkpt lat="44.89252" lon="6.0794">
        <ele>2293.6</ele>
        <time>2024-08-14T07:08:32Z</time>
      </trkpt>
      <trkpt lat="44.89252" lon="6.0794">
        <ele>2293.4</ele>
        <time>2024-08-14T07:08:33Z</time>
      </trkpt>
      <trkpt lat="44.89252" lon="6.0794">
        <ele>2293.4</ele>
        <time>2024-08-14T07:08:34Z</time>
      </trkpt>
      <trkpt lat="44.89252" lon="6.0794">
        <ele>2293.4</ele>
        <time>2024-08-14T07:08:35Z</time>
      </trkpt>
      <trkpt lat="44.89252" lon="6.0794">
        <ele>2293.4</ele>
        <time>2024-08-14T07:08:36Z</time>
      </trkpt>
      <trkpt lat="44.89252" lon="6.0794">
        <ele>2293.2</ele>
        <time>2024-08-14T07:08:37Z</time>
      </trkpt>
      <trkpt lat="44.89252" lon="6.0794">
        <ele>2293.2</ele>
        <time>2024-08-14T07:08:38Z</time>
      </trkpt>
      <trkpt lat="44.89252" lon="6.0794">
        <ele>2293.2</ele>
        <time>2024-08-14T07:08:39Z</time>
      </trkpt>
      <trkpt lat="44.89252" lon="6.0794">
        <ele>2293.4</ele>
        <time>2024-08-14T07:08:40Z</time>
      </trkpt>
      <trkpt lat="44.89252" lon="6.0794">
        <ele>2293.4</ele>
        <time>2024-08-14T07:08:41Z</time>
      </trkpt>
      <trkpt lat="44.89252" lon="6.0794">
        <ele>2293.2</ele>
        <time>2024-08-14T07:08:42Z</time>
      </trkpt>
      <trkpt lat="44.89252" lon="6.0794">
        <ele>2293.2</ele>
        <time>2024-08-14T07:08:43Z</time>
      </trkpt>
      <trkpt lat="44.89252" lon="6.0794">
        <ele>2293.2</ele>
        <time>2024-08-14T07:08:44Z</time>
      </trkpt>
      <trkpt lat="44.89252" lon="6.0794">
        <ele>2293.4</ele>
        <time>2024-08-14T07:08:45Z</time>
      </trkpt>
      <trkpt lat="44.89252" lon="6.0794">
        <ele>2293.4</ele>
        <time>2024-08-14T07:08:46Z</time>
      </trkpt>
      <trkpt lat="44.89252" lon="6.0794">
        <ele>2293.4</ele>
        <time>2024-08-14T07:08:47Z</time>
      </trkpt>
      <trkpt lat="44.89252" lon="6.0794">
        <ele>2293.4</ele>
        <time>2024-08-14T07:08:48Z</time>
      </trkpt>
      <trkpt lat="44.89252" lon="6.0794">
        <ele>2293.2</ele>
        <time>2024-08-14T07:08:49Z</time>
      </trkpt>
      <trkpt lat="44.89252" lon="6.0794">
        <ele>2293.2</ele>
        <time>2024-08-14T07:08:50Z</time>
      </trkpt>
      <trkpt lat="44.89252" lon="6.0794">
        <ele>2293.6</ele>
        <time>2024-08-14T07:08:51Z</time>
      </trkpt>
      <trkpt lat="44.89252" lon="6.0794">
        <ele>2293.6</ele>
        <time>2024-08-14T07:08:52Z</time>
      </trkpt>
      <trkpt lat="44.89252" lon="6.0794">
        <ele>2293.6</ele>
        <time>2024-08-14T07:08:53Z</time>
      </trkpt>
      <trkpt lat="44.89252" lon="6.0794">
        <ele>2293.6</ele>
        <time>2024-08-14T07:08:54Z</time>
      </trkpt>
      <trkpt lat="44.89252" lon="6.0794">
        <ele>2293.6</ele>
        <time>2024-08-14T07:08:55Z</time>
      </trkpt>
      <trkpt lat="44.89252" lon="6.0794">
        <ele>2293.6</ele>
        <time>2024-08-14T07:08:56Z</time>
      </trkpt>
      <trkpt lat="44.89252" lon="6.0794">
        <ele>2293.6</ele>
        <time>2024-08-14T07:08:57Z</time>
      </trkpt>
      <trkpt lat="44.89252" lon="6.0794">
        <ele>2293.6</ele>
        <time>2024-08-14T07:08:58Z</time>
      </trkpt>
      <trkpt lat="44.89252" lon="6.0794">
        <ele>2293.6</ele>
        <time>2024-08-14T07:08:59Z</time>
      </trkpt>
      <trkpt lat="44.89252" lon="6.0794">
        <ele>2293.4</ele>
        <time>2024-08-14T07:09:00Z</time>
      </trkpt>
      <trkpt lat="44.89252" lon="6.0794">
        <ele>2293.4</ele>
        <time>2024-08-14T07:09:01Z</time>
      </trkpt>
      <trkpt lat="44.89252" lon="6.0794">
        <ele>2293.6</ele>
        <time>2024-08-14T07:09:02Z</time>
      </trkpt>
      <trkpt lat="44.89252" lon="6.0794">
        <ele>2293.6</ele>
        <time>2024-08-14T07:09:03Z</time>
      </trkpt>
      <trkpt lat="44.89252" lon="6.0794">
        <ele>2293.6</ele>
        <time>2024-08-14T07:09:04Z</time>
      </trkpt>
      <trkpt lat="44.89252" lon="6.0794">
        <ele>2293.6</ele>
        <time>2024-08-14T07:09:05Z</time>
      </trkpt>
      <trkpt lat="44.89252" lon="6.0794">
        <ele>2293.6</ele>
        <time>2024-08-14T07:09:06Z</time>
      </trkpt>
      <trkpt lat="44.89252" lon="6.0794">
        <ele>2293.6</ele>
        <time>2024-08-14T07:09:07Z</time>
      </trkpt>
      <trkpt lat="44.89252" lon="6.0794">
        <ele>2293.6</ele>
        <time>2024-08-14T07:09:08Z</time>
      </trkpt>
      <trkpt lat="44.89252" lon="6.0794">
        <ele>2293.8</ele>
        <time>2024-08-14T07:09:09Z</time>
      </trkpt>
      <trkpt lat="44.89252" lon="6.0794">
        <ele>2294.2</ele>
        <time>2024-08-14T07:09:10Z</time>
      </trkpt>
      <trkpt lat="44.89252" lon="6.0794">
        <ele>2294.2</ele>
        <time>2024-08-14T07:09:11Z</time>
      </trkpt>
      <trkpt lat="44.89252" lon="6.0794">
        <ele>2294.2</ele>
        <time>2024-08-14T07:09:12Z</time>
      </trkpt>
      <trkpt lat="44.89252" lon="6.0794">
        <ele>2294.2</ele>
        <time>2024-08-14T07:09:13Z</time>
      </trkpt>
      <trkpt lat="44.89252" lon="6.0794">
        <ele>2294.2</ele>
        <time>2024-08-14T07:09:14Z</time>
      </trkpt>
      <trkpt lat="44.89252" lon="6.0794">
        <ele>2294</ele>
        <time>2024-08-14T07:09:15Z</time>
      </trkpt>
      <trkpt lat="44.89252" lon="6.0794">
        <ele>2293.8</ele>
        <time>2024-08-14T07:09:16Z</time>
      </trkpt>
      <trkpt lat="44.89252" lon="6.0794">
        <ele>2293.8</ele>
        <time>2024-08-14T07:09:17Z</time>
      </trkpt>
      <trkpt lat="44.89252" lon="6.0794">
        <ele>2293.8</ele>
        <time>2024-08-14T07:09:18Z</time>
      </trkpt>
      <trkpt lat="44.89252" lon="6.0794">
        <ele>2294.4</ele>
        <time>2024-08-14T07:09:19Z</time>
      </trkpt>
      <trkpt lat="44.89252" lon="6.0794">
        <ele>2294.8</ele>
        <time>2024-08-14T07:09:20Z</time>
      </trkpt>
      <trkpt lat="44.89252" lon="6.0794">
        <ele>2294.8</ele>
        <time>2024-08-14T07:09:21Z</time>
      </trkpt>
      <trkpt lat="44.89252" lon="6.0794">
        <ele>2294.8</ele>
        <time>2024-08-14T07:09:22Z</time>
      </trkpt>
      <trkpt lat="44.89252" lon="6.0794">
        <ele>2294.8</ele>
        <time>2024-08-14T07:09:23Z</time>
      </trkpt>
      <trkpt lat="44.89252" lon="6.0794">
        <ele>2294.6</ele>
        <time>2024-08-14T07:09:24Z</time>
      </trkpt>
      <trkpt lat="44.89252" lon="6.0794">
        <ele>2294.6</ele>
        <time>2024-08-14T07:09:25Z</time>
      </trkpt>
      <trkpt lat="44.89252" lon="6.0794">
        <ele>2294.6</ele>
        <time>2024-08-14T07:09:26Z</time>
      </trkpt>
      <trkpt lat="44.89252" lon="6.0794">
        <ele>2294.6</ele>
        <time>2024-08-14T07:09:27Z</time>
      </trkpt>
      <trkpt lat="44.89252" lon="6.0794">
        <ele>2294.8</ele>
        <time>2024-08-14T07:09:28Z</time>
      </trkpt>
      <trkpt lat="44.89252" lon="6.0794">
        <ele>2295</ele>
        <time>2024-08-14T07:09:29Z</time>
      </trkpt>
      <trkpt lat="44.89252" lon="6.0794">
        <ele>2295</ele>
        <time>2024-08-14T07:09:30Z</time>
      </trkpt>
      <trkpt lat="44.89252" lon="6.0794">
        <ele>2294.8</ele>
        <time>2024-08-14T07:09:31Z</time>
      </trkpt>
      <trkpt lat="44.89252" lon="6.0794">
        <ele>2294.8</ele>
        <time>2024-08-14T07:09:32Z</time>
      </trkpt>
      <trkpt lat="44.89252" lon="6.0794">
        <ele>2294.8</ele>
        <time>2024-08-14T07:09:33Z</time>
      </trkpt>
      <trkpt lat="44.89252" lon="6.0794">
        <ele>2295</ele>
        <time>2024-08-14T07:09:34Z</time>
      </trkpt>
      <trkpt lat="44.89252" lon="6.0794">
        <ele>2295</ele>
        <time>2024-08-14T07:09:35Z</time>
      </trkpt>
      <trkpt lat="44.89252" lon="6.0794">
        <ele>2295</ele>
        <time>2024-08-14T07:09:36Z</time>
      </trkpt>
      <trkpt lat="44.89252" lon="6.0794">
        <ele>2295</ele>
        <time>2024-08-14T07:09:37Z</time>
      </trkpt>
      <trkpt lat="44.89252" lon="6.0794">
        <ele>2295</ele>
        <time>2024-08-14T07:09:38Z</time>
      </trkpt>
      <trkpt lat="44.89252" lon="6.0794">
        <ele>2295</ele>
        <time>2024-08-14T07:09:39Z</time>
      </trkpt>
      <trkpt lat="44.89252" lon="6.0794">
        <ele>2294.8</ele>
        <time>2024-08-14T07:09:40Z</time>
      </trkpt>
      <trkpt lat="44.89252" lon="6.0794">
        <ele>2294.8</ele>
        <time>2024-08-14T07:09:41Z</time>
      </trkpt>
      <trkpt lat="44.89252" lon="6.0794">
        <ele>2294.8</ele>
        <time>2024-08-14T07:09:42Z</time>
      </trkpt>
      <trkpt lat="44.89252" lon="6.0794">
        <ele>2294.8</ele>
        <time>2024-08-14T07:09:43Z</time>
      </trkpt>
      <trkpt lat="44.89252" lon="6.0794">
        <ele>2294.6</ele>
        <time>2024-08-14T07:09:44Z</time>
      </trkpt>
      <trkpt lat="44.89252" lon="6.0794">
        <ele>2294.6</ele>
        <time>2024-08-14T07:09:45Z</time>
      </trkpt>
      <trkpt lat="44.89252" lon="6.0794">
        <ele>2294.8</ele>
        <time>2024-08-14T07:09:46Z</time>
      </trkpt>
      <trkpt lat="44.89252" lon="6.0794">
        <ele>2294.8</ele>
        <time>2024-08-14T07:09:47Z</time>
      </trkpt>
      <trkpt lat="44.89252" lon="6.0794">
        <ele>2294.8</ele>
        <time>2024-08-14T07:09:48Z</time>
      </trkpt>
      <trkpt lat="44.89252" lon="6.0794">
        <ele>2294.6</ele>
        <time>2024-08-14T07:09:49Z</time>
      </trkpt>
      <trkpt lat="44.89252" lon="6.0794">
        <ele>2294.6</ele>
        <time>2024-08-14T07:09:50Z</time>
      </trkpt>
      <trkpt lat="44.89252" lon="6.0794">
        <ele>2294.4</ele>
        <time>2024-08-14T07:09:51Z</time>
      </trkpt>
      <trkpt lat="44.89252" lon="6.0794">
        <ele>2294.2</ele>
        <time>2024-08-14T07:09:52Z</time>
      </trkpt>
      <trkpt lat="44.89252" lon="6.0794">
        <ele>2294</ele>
        <time>2024-08-14T07:09:53Z</time>
      </trkpt>
      <trkpt lat="44.89252" lon="6.0794">
        <ele>2293.6</ele>
        <time>2024-08-14T07:09:54Z</time>
      </trkpt>
      <trkpt lat="44.89252" lon="6.0794">
        <ele>2293.6</ele>
        <time>2024-08-14T07:09:55Z</time>
      </trkpt>
      <trkpt lat="44.89252" lon="6.0794">
        <ele>2293.6</ele>
        <time>2024-08-14T07:09:56Z</time>
      </trkpt>
      <trkpt lat="44.89252" lon="6.0794">
        <ele>2293.6</ele>
        <time>2024-08-14T07:09:57Z</time>
      </trkpt>
      <trkpt lat="44.89252" lon="6.0794">
        <ele>2293.8</ele>
        <time>2024-08-14T07:09:58Z</time>
      </trkpt>
      <trkpt lat="44.89252" lon="6.0794">
        <ele>2293.8</ele>
        <time>2024-08-14T07:09:59Z</time>
      </trkpt>
      <trkpt lat="44.89252" lon="6.0794">
        <ele>2293.8</ele>
        <time>2024-08-14T07:10:00Z</time>
      </trkpt>
      <trkpt lat="44.89252" lon="6.0794">
        <ele>2293.8</ele>
        <time>2024-08-14T07:10:01Z</time>
      </trkpt>
      <trkpt lat="44.89252" lon="6.0794">
        <ele>2293.6</ele>
        <time>2024-08-14T07:10:02Z</time>
      </trkpt>
      <trkpt lat="44.89252" lon="6.0794">
        <ele>2293.6</ele>
        <time>2024-08-14T07:10:03Z</time>
      </trkpt>
      <trkpt lat="44.89252" lon="6.0794">
        <ele>2293.8</ele>
        <time>2024-08-14T07:10:04Z</time>
      </trkpt>
      <trkpt lat="44.89252" lon="6.0794">
        <ele>2294</ele>
        <time>2024-08-14T07:10:05Z</time>
      </trkpt>
      <trkpt lat="44.89252" lon="6.0794">
        <ele>2294</ele>
        <time>2024-08-14T07:10:06Z</time>
      </trkpt>
      <trkpt lat="44.89252" lon="6.0794">
        <ele>2294.2</ele>
        <time>2024-08-14T07:10:07Z</time>
      </trkpt>
      <trkpt lat="44.89252" lon="6.0794">
        <ele>2294.4</ele>
        <time>2024-08-14T07:10:08Z</time>
      </trkpt>
      <trkpt lat="44.89252" lon="6.0794">
        <ele>2294.4</ele>
        <time>2024-08-14T07:10:09Z</time>
      </trkpt>
      <trkpt lat="44.89252" lon="6.0794">
        <ele>2294.4</ele>
        <time>2024-08-14T07:10:10Z</time>
      </trkpt>
      <trkpt lat="44.89252" lon="6.0794">
        <ele>2294.2</ele>
        <time>2024-08-14T07:10:11Z</time>
      </trkpt>
      <trkpt lat="44.89252" lon="6.0794">
        <ele>2294</ele>
        <time>2024-08-14T07:10:12Z</time>
      </trkpt>
      <trkpt lat="44.89252" lon="6.0794">
        <ele>2294</ele>
        <time>2024-08-14T07:10:13Z</time>
      </trkpt>
      <trkpt lat="44.89252" lon="6.0794">
        <ele>2294</ele>
        <time>2024-08-14T07:10:14Z</time>
      </trkpt>
      <trkpt lat="44.89252" lon="6.0794">
        <ele>2294</ele>
        <time>2024-08-14T07:10:15Z</time>
      </trkpt>
      <trkpt lat="44.89252" lon="6.0794">
        <ele>2294</ele>
        <time>2024-08-14T07:10:16Z</time>
      </trkpt>
      <trkpt lat="44.89252" lon="6.0794">
        <ele>2294.2</ele>
        <time>2024-08-14T07:10:17Z</time>
      </trkpt>
      <trkpt lat="44.89252" lon="6.0794">
        <ele>2294.2</ele>
        <time>2024-08-14T07:10:18Z</time>
      </trkpt>
      <trkpt lat="44.89252" lon="6.0794">
        <ele>2294.2</ele>
        <time>2024-08-14T07:10:19Z</time>
      </trkpt>
      <trkpt lat="44.89252" lon="6.0794">
        <ele>2294.2</ele>
        <time>2024-08-14T07:10:20Z</time>
      </trkpt>
      <trkpt lat="44.89252" lon="6.0794">
        <ele>2294.2</ele>
        <time>2024-08-14T07:10:21Z</time>
      </trkpt>
      <trkpt lat="44.89252" lon="6.0794">
        <ele>2294.2</ele>
        <time>2024-08-14T07:10:22Z</time>
      </trkpt>
      <trkpt lat="44.89252" lon="6.0794">
        <ele>2294.2</ele>
        <time>2024-08-14T07:10:23Z</time>
      </trkpt>
      <trkpt lat="44.89252" lon="6.0794">
        <ele>2294.2</ele>
        <time>2024-08-14T07:10:24Z</time>
      </trkpt>
      <trkpt lat="44.89252" lon="6.0794">
        <ele>2294.2</ele>
        <time>2024-08-14T07:10:25Z</time>
      </trkpt>
      <trkpt lat="44.89252" lon="6.0794">
        <ele>2294.2</ele>
        <time>2024-08-14T07:10:26Z</time>
      </trkpt>
      <trkpt lat="44.89252" lon="6.0794">
        <ele>2294.4</ele>
        <time>2024-08-14T07:10:27Z</time>
      </trkpt>
      <trkpt lat="44.89252" lon="6.0794">
        <ele>2294.6</ele>
        <time>2024-08-14T07:10:28Z</time>
      </trkpt>
      <trkpt lat="44.89252" lon="6.0794">
        <ele>2294.6</ele>
        <time>2024-08-14T07:10:29Z</time>
      </trkpt>
      <trkpt lat="44.89252" lon="6.0794">
        <ele>2294.8</ele>
        <time>2024-08-14T07:10:30Z</time>
      </trkpt>
      <trkpt lat="44.89252" lon="6.0794">
        <ele>2294.8</ele>
        <time>2024-08-14T07:10:31Z</time>
      </trkpt>
      <trkpt lat="44.89252" lon="6.0794">
        <ele>2294.8</ele>
        <time>2024-08-14T07:10:32Z</time>
      </trkpt>
      <trkpt lat="44.89252" lon="6.0794">
        <ele>2294.8</ele>
        <time>2024-08-14T07:10:33Z</time>
      </trkpt>
      <trkpt lat="44.89252" lon="6.0794">
        <ele>2294.8</ele>
        <time>2024-08-14T07:10:34Z</time>
      </trkpt>
      <trkpt lat="44.89252" lon="6.0794">
        <ele>2294.8</ele>
        <time>2024-08-14T07:10:35Z</time>
      </trkpt>
      <trkpt lat="44.89252" lon="6.0794">
        <ele>2294.6</ele>
        <time>2024-08-14T07:10:36Z</time>
      </trkpt>
      <trkpt lat="44.89252" lon="6.0794">
        <ele>2294.4</ele>
        <time>2024-08-14T07:10:37Z</time>
      </trkpt>
      <trkpt lat="44.89252" lon="6.0794">
        <ele>2294.4</ele>
        <time>2024-08-14T07:10:38Z</time>
      </trkpt>
      <trkpt lat="44.89252" lon="6.0794">
        <ele>2294.4</ele>
        <time>2024-08-14T07:10:39Z</time>
      </trkpt>
      <trkpt lat="44.89252" lon="6.0794">
        <ele>2294.4</ele>
        <time>2024-08-14T07:10:40Z</time>
      </trkpt>
      <trkpt lat="44.89252" lon="6.0794">
        <ele>2294.2</ele>
        <time>2024-08-14T07:10:41Z</time>
      </trkpt>
      <trkpt lat="44.89252" lon="6.0794">
        <ele>2294.2</ele>
        <time>2024-08-14T07:10:42Z</time>
      </trkpt>
      <trkpt lat="44.89252" lon="6.0794">
        <ele>2294.2</ele>
        <time>2024-08-14T07:10:43Z</time>
      </trkpt>
      <trkpt lat="44.89252" lon="6.0794">
        <ele>2294.2</ele>
        <time>2024-08-14T07:10:44Z</time>
      </trkpt>
      <trkpt lat="44.89252" lon="6.0794">
        <ele>2294.2</ele>
        <time>2024-08-14T07:10:45Z</time>
      </trkpt>
      <trkpt lat="44.89252" lon="6.0794">
        <ele>2294.2</ele>
        <time>2024-08-14T07:10:46Z</time>
      </trkpt>
      <trkpt lat="44.89252" lon="6.0794">
        <ele>2294.2</ele>
        <time>2024-08-14T07:10:47Z</time>
      </trkpt>
      <trkpt lat="44.89252" lon="6.0794">
        <ele>2294.4</ele>
        <time>2024-08-14T07:10:48Z</time>
      </trkpt>
      <trkpt lat="44.89252" lon="6.0794">
        <ele>2294.4</ele>
        <time>2024-08-14T07:10:49Z</time>
      </trkpt>
      <trkpt lat="44.89252" lon="6.0794">
        <ele>2294.4</ele>
        <time>2024-08-14T07:10:50Z</time>
      </trkpt>
      <trkpt lat="44.89252" lon="6.0794">
        <ele>2294.4</ele>
        <time>2024-08-14T07:10:51Z</time>
      </trkpt>
      <trkpt lat="44.89252" lon="6.0794">
        <ele>2294.4</ele>
        <time>2024-08-14T07:10:52Z</time>
      </trkpt>
      <trkpt lat="44.89252" lon="6.0794">
        <ele>2294.4</ele>
        <time>2024-08-14T07:10:53Z</time>
      </trkpt>
      <trkpt lat="44.89252" lon="6.0794">
        <ele>2294.4</ele>
        <time>2024-08-14T07:10:54Z</time>
      </trkpt>
      <trkpt lat="44.89252" lon="6.0794">
        <ele>2294.6</ele>
        <time>2024-08-14T07:10:55Z</time>
      </trkpt>
      <trkpt lat="44.89252" lon="6.0794">
        <ele>2294.8</ele>
        <time>2024-08-14T07:10:56Z</time>
      </trkpt>
      <trkpt lat="44.89252" lon="6.0794">
        <ele>2294.8</ele>
        <time>2024-08-14T07:10:57Z</time>
      </trkpt>
      <trkpt lat="44.89252" lon="6.0794">
        <ele>2294.6</ele>
        <time>2024-08-14T07:10:58Z</time>
      </trkpt>
      <trkpt lat="44.89252" lon="6.0794">
        <ele>2294.6</ele>
        <time>2024-08-14T07:10:59Z</time>
      </trkpt>
      <trkpt lat="44.89252" lon="6.0794">
        <ele>2294.6</ele>
        <time>2024-08-14T07:11:00Z</time>
      </trkpt>
      <trkpt lat="44.89252" lon="6.0794">
        <ele>2294.6</ele>
        <time>2024-08-14T07:11:01Z</time>
      </trkpt>
      <trkpt lat="44.89252" lon="6.0794">
        <ele>2294.6</ele>
        <time>2024-08-14T07:11:02Z</time>
      </trkpt>
      <trkpt lat="44.89252" lon="6.0794">
        <ele>2294.6</ele>
        <time>2024-08-14T07:11:03Z</time>
      </trkpt>
      <trkpt lat="44.89252" lon="6.0794">
        <ele>2294.6</ele>
        <time>2024-08-14T07:11:04Z</time>
      </trkpt>
      <trkpt lat="44.89252" lon="6.0794">
        <ele>2294.6</ele>
        <time>2024-08-14T07:11:05Z</time>
      </trkpt>
      <trkpt lat="44.89252" lon="6.0794">
        <ele>2294.6</ele>
        <time>2024-08-14T07:11:06Z</time>
      </trkpt>
      <trkpt lat="44.89252" lon="6.0794">
        <ele>2294.6</ele>
        <time>2024-08-14T07:11:07Z</time>
      </trkpt>
      <trkpt lat="44.89252" lon="6.0794">
        <ele>2294.6</ele>
        <time>2024-08-14T07:11:08Z</time>
      </trkpt>
      <trkpt lat="44.89252" lon="6.0794">
        <ele>2294.6</ele>
        <time>2024-08-14T07:11:09Z</time>
      </trkpt>
      <trkpt lat="44.89252" lon="6.0794">
        <ele>2294.6</ele>
        <time>2024-08-14T07:11:10Z</time>
      </trkpt>
      <trkpt lat="44.89252" lon="6.0794">
        <ele>2294.8</ele>
        <time>2024-08-14T07:11:11Z</time>
      </trkpt>
      <trkpt lat="44.89252" lon="6.0794">
        <ele>2294.8</ele>
        <time>2024-08-14T07:11:12Z</time>
      </trkpt>
      <trkpt lat="44.89252" lon="6.0794">
        <ele>2294.6</ele>
        <time>2024-08-14T07:11:13Z</time>
      </trkpt>
      <trkpt lat="44.89252" lon="6.0794">
        <ele>2294.4</ele>
        <time>2024-08-14T07:11:14Z</time>
      </trkpt>
      <trkpt lat="44.89252" lon="6.0794">
        <ele>2294.4</ele>
        <time>2024-08-14T07:11:15Z</time>
      </trkpt>
      <trkpt lat="44.89252" lon="6.0794">
        <ele>2294.4</ele>
        <time>2024-08-14T07:11:16Z</time>
      </trkpt>
      <trkpt lat="44.89252" lon="6.0794">
        <ele>2294.4</ele>
        <time>2024-08-14T07:11:17Z</time>
      </trkpt>
      <trkpt lat="44.89252" lon="6.0794">
        <ele>2294.4</ele>
        <time>2024-08-14T07:11:18Z</time>
      </trkpt>
      <trkpt lat="44.89252" lon="6.0794">
        <ele>2294.4</ele>
        <time>2024-08-14T07:11:19Z</time>
      </trkpt>
      <trkpt lat="44.89252" lon="6.0794">
        <ele>2294.4</ele>
        <time>2024-08-14T07:11:20Z</time>
      </trkpt>
      <trkpt lat="44.89252" lon="6.0794">
        <ele>2294.6</ele>
        <time>2024-08-14T07:11:21Z</time>
      </trkpt>
      <trkpt lat="44.89252" lon="6.0794">
        <ele>2294.6</ele>
        <time>2024-08-14T07:11:22Z</time>
      </trkpt>
      <trkpt lat="44.89252" lon="6.0794">
        <ele>2294.6</ele>
        <time>2024-08-14T07:11:23Z</time>
      </trkpt>
      <trkpt lat="44.89252" lon="6.0794">
        <ele>2294.6</ele>
        <time>2024-08-14T07:11:24Z</time>
      </trkpt>
      <trkpt lat="44.89252" lon="6.0794">
        <ele>2294.8</ele>
        <time>2024-08-14T07:11:25Z</time>
      </trkpt>
      <trkpt lat="44.89252" lon="6.0794">
        <ele>2294.8</ele>
        <time>2024-08-14T07:11:26Z</time>
      </trkpt>
      <trkpt lat="44.89252" lon="6.0794">
        <ele>2294.6</ele>
        <time>2024-08-14T07:11:27Z</time>
      </trkpt>
      <trkpt lat="44.89252" lon="6.0794">
        <ele>2294.6</ele>
        <time>2024-08-14T07:11:28Z</time>
      </trkpt>
      <trkpt lat="44.89252" lon="6.0794">
        <ele>2294.6</ele>
        <time>2024-08-14T07:11:29Z</time>
      </trkpt>
      <trkpt lat="44.89252" lon="6.0794">
        <ele>2294.8</ele>
        <time>2024-08-14T07:11:30Z</time>
      </trkpt>
      <trkpt lat="44.89252" lon="6.0794">
        <ele>2294.8</ele>
        <time>2024-08-14T07:11:31Z</time>
      </trkpt>
      <trkpt lat="44.89252" lon="6.0794">
        <ele>2294.6</ele>
        <time>2024-08-14T07:11:32Z</time>
      </trkpt>
      <trkpt lat="44.89252" lon="6.0794">
        <ele>2294.8</ele>
        <time>2024-08-14T07:11:33Z</time>
      </trkpt>
      <trkpt lat="44.89252" lon="6.0794">
        <ele>2294.8</ele>
        <time>2024-08-14T07:11:34Z</time>
      </trkpt>
      <trkpt lat="44.89252" lon="6.0794">
        <ele>2295</ele>
        <time>2024-08-14T07:11:35Z</time>
      </trkpt>
      <trkpt lat="44.89252" lon="6.0794">
        <ele>2295</ele>
        <time>2024-08-14T07:11:36Z</time>
      </trkpt>
      <trkpt lat="44.89252" lon="6.0794">
        <ele>2295</ele>
        <time>2024-08-14T07:11:37Z</time>
      </trkpt>
      <trkpt lat="44.89252" lon="6.0794">
        <ele>2295</ele>
        <time>2024-08-14T07:11:38Z</time>
      </trkpt>
      <trkpt lat="44.89252" lon="6.0794">
        <ele>2294.8</ele>
        <time>2024-08-14T07:11:39Z</time>
      </trkpt>
      <trkpt lat="44.89252" lon="6.0794">
        <ele>2294.8</ele>
        <time>2024-08-14T07:11:40Z</time>
      </trkpt>
      <trkpt lat="44.89252" lon="6.0794">
        <ele>2294.8</ele>
        <time>2024-08-14T07:11:41Z</time>
      </trkpt>
      <trkpt lat="44.89252" lon="6.0794">
        <ele>2294.8</ele>
        <time>2024-08-14T07:11:42Z</time>
      </trkpt>
      <trkpt lat="44.89252" lon="6.0794">
        <ele>2294.8</ele>
        <time>2024-08-14T07:11:43Z</time>
      </trkpt>
      <trkpt lat="44.89252" lon="6.0794">
        <ele>2295</ele>
        <time>2024-08-14T07:11:44Z</time>
      </trkpt>
      <trkpt lat="44.89252" lon="6.0794">
        <ele>2295</ele>
        <time>2024-08-14T07:11:45Z</time>
      </trkpt>
      <trkpt lat="44.89252" lon="6.0794">
        <ele>2295</ele>
        <time>2024-08-14T07:11:46Z</time>
      </trkpt>
      <trkpt lat="44.89252" lon="6.0794">
        <ele>2295</ele>
        <time>2024-08-14T07:11:47Z</time>
      </trkpt>
      <trkpt lat="44.89252" lon="6.0794">
        <ele>2295</ele>
        <time>2024-08-14T07:11:48Z</time>
      </trkpt>
      <trkpt lat="44.89252" lon="6.0794">
        <ele>2295</ele>
        <time>2024-08-14T07:11:49Z</time>
      </trkpt>
      <trkpt lat="44.89252" lon="6.0794">
        <ele>2295</ele>
        <time>2024-08-14T07:11:50Z</time>
      </trkpt>
      <trkpt lat="44.89252" lon="6.0794">
        <ele>2295</ele>
        <time>2024-08-14T07:11:51Z</time>
      </trkpt>
      <trkpt lat="44.89252" lon="6.0794">
        <ele>2295</ele>
        <time>2024-08-14T07:11:52Z</time>
      </trkpt>
      <trkpt lat="44.89252" lon="6.0794">
        <ele>2295</ele>
        <time>2024-08-14T07:11:53Z</time>
      </trkpt>
      <trkpt lat="44.89252" lon="6.0794">
        <ele>2295</ele>
        <time>2024-08-14T07:11:54Z</time>
      </trkpt>
      <trkpt lat="44.89252" lon="6.0794">
        <ele>2295</ele>
        <time>2024-08-14T07:11:55Z</time>
      </trkpt>
      <trkpt lat="44.89252" lon="6.0794">
        <ele>2295</ele>
        <time>2024-08-14T07:11:56Z</time>
      </trkpt>
      <trkpt lat="44.89252" lon="6.0794">
        <ele>2295</ele>
        <time>2024-08-14T07:11:57Z</time>
      </trkpt>
      <trkpt lat="44.89252" lon="6.0794">
        <ele>2295</ele>
        <time>2024-08-14T07:11:58Z</time>
      </trkpt>
      <trkpt lat="44.89252" lon="6.0794">
        <ele>2294.8</ele>
        <time>2024-08-14T07:11:59Z</time>
      </trkpt>
      <trkpt lat="44.89252" lon="6.0794">
        <ele>2294.8</ele>
        <time>2024-08-14T07:12:00Z</time>
      </trkpt>
      <trkpt lat="44.89252" lon="6.0794">
        <ele>2294.8</ele>
        <time>2024-08-14T07:12:01Z</time>
      </trkpt>
      <trkpt lat="44.89252" lon="6.0794">
        <ele>2294.8</ele>
        <time>2024-08-14T07:12:02Z</time>
      </trkpt>
      <trkpt lat="44.89252" lon="6.0794">
        <ele>2294.8</ele>
        <time>2024-08-14T07:12:03Z</time>
      </trkpt>
      <trkpt lat="44.89252" lon="6.0794">
        <ele>2294.6</ele>
        <time>2024-08-14T07:12:04Z</time>
      </trkpt>
      <trkpt lat="44.89252" lon="6.0794">
        <ele>2294.4</ele>
        <time>2024-08-14T07:12:05Z</time>
      </trkpt>
      <trkpt lat="44.89252" lon="6.0794">
        <ele>2294.4</ele>
        <time>2024-08-14T07:12:06Z</time>
      </trkpt>
      <trkpt lat="44.89252" lon="6.0794">
        <ele>2294.4</ele>
        <time>2024-08-14T07:12:07Z</time>
      </trkpt>
      <trkpt lat="44.89252" lon="6.0794">
        <ele>2294.8</ele>
        <time>2024-08-14T07:12:08Z</time>
      </trkpt>
      <trkpt lat="44.89252" lon="6.0794">
        <ele>2294.8</ele>
        <time>2024-08-14T07:12:09Z</time>
      </trkpt>
      <trkpt lat="44.89252" lon="6.0794">
        <ele>2294.6</ele>
        <time>2024-08-14T07:12:10Z</time>
      </trkpt>
      <trkpt lat="44.89252" lon="6.0794">
        <ele>2294.6</ele>
        <time>2024-08-14T07:12:11Z</time>
      </trkpt>
      <trkpt lat="44.89252" lon="6.0794">
        <ele>2294.6</ele>
        <time>2024-08-14T07:12:12Z</time>
      </trkpt>
      <trkpt lat="44.89252" lon="6.0794">
        <ele>2294.6</ele>
        <time>2024-08-14T07:12:13Z</time>
      </trkpt>
      <trkpt lat="44.89252" lon="6.0794">
        <ele>2294.8</ele>
        <time>2024-08-14T07:12:14Z</time>
      </trkpt>
      <trkpt lat="44.89252" lon="6.0794">
        <ele>2294.8</ele>
        <time>2024-08-14T07:12:15Z</time>
      </trkpt>
      <trkpt lat="44.89252" lon="6.0794">
        <ele>2294.6</ele>
        <time>2024-08-14T07:12:16Z</time>
      </trkpt>
      <trkpt lat="44.89252" lon="6.0794">
        <ele>2294.8</ele>
        <time>2024-08-14T07:12:17Z</time>
      </trkpt>
      <trkpt lat="44.89252" lon="6.0794">
        <ele>2295</ele>
        <time>2024-08-14T07:12:18Z</time>
      </trkpt>
      <trkpt lat="44.89252" lon="6.0794">
        <ele>2295.2</ele>
        <time>2024-08-14T07:12:19Z</time>
      </trkpt>
      <trkpt lat="44.89252" lon="6.0794">
        <ele>2295.2</ele>
        <time>2024-08-14T07:12:20Z</time>
      </trkpt>
      <trkpt lat="44.89252" lon="6.0794">
        <ele>2295.2</ele>
        <time>2024-08-14T07:12:21Z</time>
      </trkpt>
      <trkpt lat="44.89252" lon="6.0794">
        <ele>2295.2</ele>
        <time>2024-08-14T07:12:22Z</time>
      </trkpt>
      <trkpt lat="44.89252" lon="6.0794">
        <ele>2295.2</ele>
        <time>2024-08-14T07:12:23Z</time>
      </trkpt>
      <trkpt lat="44.89252" lon="6.0794">
        <ele>2295.2</ele>
        <time>2024-08-14T07:12:24Z</time>
      </trkpt>
      <trkpt lat="44.89252" lon="6.0794">
        <ele>2295.2</ele>
        <time>2024-08-14T07:12:25Z</time>
      </trkpt>
      <trkpt lat="44.89252" lon="6.0794">
        <ele>2295.2</ele>
        <time>2024-08-14T07:12:26Z</time>
      </trkpt>
      <trkpt lat="44.89252" lon="6.0794">
        <ele>2295</ele>
        <time>2024-08-14T07:12:27Z</time>
      </trkpt>
      <trkpt lat="44.89252" lon="6.0794">
        <ele>2295</ele>
        <time>2024-08-14T07:12:28Z</time>
      </trkpt>
      <trkpt lat="44.89252" lon="6.0794">
        <ele>2295.2</ele>
        <time>2024-08-14T07:12:29Z</time>
      </trkpt>
      <trkpt lat="44.89252" lon="6.0794">
        <ele>2295.2</ele>
        <time>2024-08-14T07:12:30Z</time>
      </trkpt>
      <trkpt lat="44.89252" lon="6.0794">
        <ele>2294.8</ele>
        <time>2024-08-14T07:12:31Z</time>
      </trkpt>
      <trkpt lat="44.89252" lon="6.0794">
        <ele>2294.8</ele>
        <time>2024-08-14T07:12:32Z</time>
      </trkpt>
      <trkpt lat="44.89252" lon="6.0794">
        <ele>2294.8</ele>
        <time>2024-08-14T07:12:33Z</time>
      </trkpt>
      <trkpt lat="44.89252" lon="6.0794">
        <ele>2294.8</ele>
        <time>2024-08-14T07:12:34Z</time>
      </trkpt>
      <trkpt lat="44.89252" lon="6.0794">
        <ele>2295</ele>
        <time>2024-08-14T07:12:35Z</time>
      </trkpt>
      <trkpt lat="44.89252" lon="6.0794">
        <ele>2295</ele>
        <time>2024-08-14T07:12:36Z</time>
      </trkpt>
      <trkpt lat="44.89252" lon="6.0794">
        <ele>2294.8</ele>
        <time>2024-08-14T07:12:37Z</time>
      </trkpt>
      <trkpt lat="44.89252" lon="6.0794">
        <ele>2294.8</ele>
        <time>2024-08-14T07:12:38Z</time>
      </trkpt>
      <trkpt lat="44.89252" lon="6.0794">
        <ele>2294.8</ele>
        <time>2024-08-14T07:12:39Z</time>
      </trkpt>
      <trkpt lat="44.89252" lon="6.0794">
        <ele>2294.6</ele>
        <time>2024-08-14T07:12:40Z</time>
      </trkpt>
      <trkpt lat="44.89252" lon="6.0794">
        <ele>2294.4</ele>
        <time>2024-08-14T07:12:41Z</time>
      </trkpt>
      <trkpt lat="44.89252" lon="6.0794">
        <ele>2294.4</ele>
        <time>2024-08-14T07:12:42Z</time>
      </trkpt>
      <trkpt lat="44.89252" lon="6.0794">
        <ele>2294.6</ele>
        <time>2024-08-14T07:12:43Z</time>
      </trkpt>
      <trkpt lat="44.89252" lon="6.0794">
        <ele>2294.6</ele>
        <time>2024-08-14T07:12:44Z</time>
      </trkpt>
      <trkpt lat="44.89252" lon="6.0794">
        <ele>2294.6</ele>
        <time>2024-08-14T07:12:45Z</time>
      </trkpt>
      <trkpt lat="44.89252" lon="6.0794">
        <ele>2294.6</ele>
        <time>2024-08-14T07:12:46Z</time>
      </trkpt>
      <trkpt lat="44.89252" lon="6.0794">
        <ele>2294.4</ele>
        <time>2024-08-14T07:12:47Z</time>
      </trkpt>
      <trkpt lat="44.89252" lon="6.0794">
        <ele>2294.4</ele>
        <time>2024-08-14T07:12:48Z</time>
      </trkpt>
      <trkpt lat="44.89252" lon="6.0794">
        <ele>2294.4</ele>
        <time>2024-08-14T07:12:49Z</time>
      </trkpt>
      <trkpt lat="44.89252" lon="6.0794">
        <ele>2294.6</ele>
        <time>2024-08-14T07:12:50Z</time>
      </trkpt>
      <trkpt lat="44.89252" lon="6.0794">
        <ele>2294.6</ele>
        <time>2024-08-14T07:12:51Z</time>
      </trkpt>
      <trkpt lat="44.89252" lon="6.0794">
        <ele>2294.6</ele>
        <time>2024-08-14T07:12:52Z</time>
      </trkpt>
      <trkpt lat="44.89252" lon="6.0794">
        <ele>2294.6</ele>
        <time>2024-08-14T07:12:53Z</time>
      </trkpt>
      <trkpt lat="44.89252" lon="6.0794">
        <ele>2295.2</ele>
        <time>2024-08-14T07:12:54Z</time>
      </trkpt>
      <trkpt lat="44.89252" lon="6.0794">
        <ele>2295.2</ele>
        <time>2024-08-14T07:12:55Z</time>
      </trkpt>
      <trkpt lat="44.89252" lon="6.0794">
        <ele>2295.2</ele>
        <time>2024-08-14T07:12:56Z</time>
      </trkpt>
      <trkpt lat="44.89252" lon="6.0794">
        <ele>2295.2</ele>
        <time>2024-08-14T07:12:57Z</time>
      </trkpt>
      <trkpt lat="44.89252" lon="6.0794">
        <ele>2295.2</ele>
        <time>2024-08-14T07:12:58Z</time>
      </trkpt>
      <trkpt lat="44.89252" lon="6.0794">
        <ele>2295.4</ele>
        <time>2024-08-14T07:12:59Z</time>
      </trkpt>
      <trkpt lat="44.89252" lon="6.0794">
        <ele>2295.4</ele>
        <time>2024-08-14T07:13:00Z</time>
      </trkpt>
      <trkpt lat="44.89252" lon="6.0794">
        <ele>2295.4</ele>
        <time>2024-08-14T07:13:01Z</time>
      </trkpt>
      <trkpt lat="44.89252" lon="6.0794">
        <ele>2295.4</ele>
        <time>2024-08-14T07:13:02Z</time>
      </trkpt>
      <trkpt lat="44.89252" lon="6.0794">
        <ele>2295.4</ele>
        <time>2024-08-14T07:13:03Z</time>
      </trkpt>
      <trkpt lat="44.89252" lon="6.0794">
        <ele>2295.4</ele>
        <time>2024-08-14T07:13:04Z</time>
      </trkpt>
      <trkpt lat="44.89252" lon="6.0794">
        <ele>2295.4</ele>
        <time>2024-08-14T07:13:05Z</time>
      </trkpt>
      <trkpt lat="44.89252" lon="6.0794">
        <ele>2295.4</ele>
        <time>2024-08-14T07:13:06Z</time>
      </trkpt>
      <trkpt lat="44.89252" lon="6.0794">
        <ele>2295.4</ele>
        <time>2024-08-14T07:13:07Z</time>
      </trkpt>
      <trkpt lat="44.89252" lon="6.0794">
        <ele>2295.4</ele>
        <time>2024-08-14T07:13:08Z</time>
      </trkpt>
      <trkpt lat="44.89252" lon="6.0794">
        <ele>2295.4</ele>
        <time>2024-08-14T07:13:09Z</time>
      </trkpt>
      <trkpt lat="44.89252" lon="6.0794">
        <ele>2295.4</ele>
        <time>2024-08-14T07:13:10Z</time>
      </trkpt>
      <trkpt lat="44.89252" lon="6.0794">
        <ele>2295.6</ele>
        <time>2024-08-14T07:13:11Z</time>
      </trkpt>
      <trkpt lat="44.89252" lon="6.0794">
        <ele>2295.6</ele>
        <time>2024-08-14T07:13:12Z</time>
      </trkpt>
      <trkpt lat="44.89252" lon="6.0794">
        <ele>2295.4</ele>
        <time>2024-08-14T07:13:13Z</time>
      </trkpt>
      <trkpt lat="44.89252" lon="6.0794">
        <ele>2295.4</ele>
        <time>2024-08-14T07:13:14Z</time>
      </trkpt>
      <trkpt lat="44.89252" lon="6.0794">
        <ele>2295.4</ele>
        <time>2024-08-14T07:13:15Z</time>
      </trkpt>
      <trkpt lat="44.89252" lon="6.0794">
        <ele>2295.6</ele>
        <time>2024-08-14T07:13:16Z</time>
      </trkpt>
      <trkpt lat="44.89252" lon="6.0794">
        <ele>2295.6</ele>
        <time>2024-08-14T07:13:17Z</time>
      </trkpt>
      <trkpt lat="44.89252" lon="6.0794">
        <ele>2295.4</ele>
        <time>2024-08-14T07:13:18Z</time>
      </trkpt>
      <trkpt lat="44.89252" lon="6.0794">
        <ele>2295.2</ele>
        <time>2024-08-14T07:13:19Z</time>
      </trkpt>
      <trkpt lat="44.89252" lon="6.0794">
        <ele>2295.2</ele>
        <time>2024-08-14T07:13:20Z</time>
      </trkpt>
      <trkpt lat="44.89252" lon="6.0794">
        <ele>2295.2</ele>
        <time>2024-08-14T07:13:21Z</time>
      </trkpt>
      <trkpt lat="44.89252" lon="6.0794">
        <ele>2295.2</ele>
        <time>2024-08-14T07:13:22Z</time>
      </trkpt>
      <trkpt lat="44.89252" lon="6.0794">
        <ele>2295.2</ele>
        <time>2024-08-14T07:13:23Z</time>
      </trkpt>
      <trkpt lat="44.89252" lon="6.0794">
        <ele>2295.2</ele>
        <time>2024-08-14T07:13:24Z</time>
      </trkpt>
      <trkpt lat="44.89252" lon="6.0794">
        <ele>2295.4</ele>
        <time>2024-08-14T07:13:25Z</time>
      </trkpt>
      <trkpt lat="44.89252" lon="6.0794">
        <ele>2295.4</ele>
        <time>2024-08-14T07:13:26Z</time>
      </trkpt>
      <trkpt lat="44.89252" lon="6.0794">
        <ele>2295.2</ele>
        <time>2024-08-14T07:13:27Z</time>
      </trkpt>
      <trkpt lat="44.89252" lon="6.0794">
        <ele>2295.2</ele>
        <time>2024-08-14T07:13:28Z</time>
      </trkpt>
      <trkpt lat="44.89252" lon="6.0794">
        <ele>2295.2</ele>
        <time>2024-08-14T07:13:29Z</time>
      </trkpt>
      <trkpt lat="44.89252" lon="6.0794">
        <ele>2295.4</ele>
        <time>2024-08-14T07:13:30Z</time>
      </trkpt>
      <trkpt lat="44.89252" lon="6.0794">
        <ele>2295.4</ele>
        <time>2024-08-14T07:13:31Z</time>
      </trkpt>
      <trkpt lat="44.89252" lon="6.0794">
        <ele>2295.4</ele>
        <time>2024-08-14T07:13:32Z</time>
      </trkpt>
      <trkpt lat="44.89252" lon="6.0794">
        <ele>2295.4</ele>
        <time>2024-08-14T07:13:33Z</time>
      </trkpt>
      <trkpt lat="44.89252" lon="6.0794">
        <ele>2295.2</ele>
        <time>2024-08-14T07:13:34Z</time>
      </trkpt>
      <trkpt lat="44.89252" lon="6.0794">
        <ele>2295.2</ele>
        <time>2024-08-14T07:13:35Z</time>
      </trkpt>
      <trkpt lat="44.89252" lon="6.0794">
        <ele>2295.2</ele>
        <time>2024-08-14T07:13:36Z</time>
      </trkpt>
      <trkpt lat="44.89252" lon="6.0794">
        <ele>2295</ele>
        <time>2024-08-14T07:13:37Z</time>
      </trkpt>
      <trkpt lat="44.89252" lon="6.0794">
        <ele>2295</ele>
        <time>2024-08-14T07:13:38Z</time>
      </trkpt>
      <trkpt lat="44.89252" lon="6.0794">
        <ele>2295</ele>
        <time>2024-08-14T07:13:39Z</time>
      </trkpt>
      <trkpt lat="44.89252" lon="6.0794">
        <ele>2295.2</ele>
        <time>2024-08-14T07:13:40Z</time>
      </trkpt>
      <trkpt lat="44.89252" lon="6.0794">
        <ele>2295.4</ele>
        <time>2024-08-14T07:13:41Z</time>
      </trkpt>
      <trkpt lat="44.89252" lon="6.0794">
        <ele>2295.4</ele>
        <time>2024-08-14T07:13:42Z</time>
      </trkpt>
      <trkpt lat="44.89252" lon="6.0794">
        <ele>2295.4</ele>
        <time>2024-08-14T07:13:43Z</time>
      </trkpt>
      <trkpt lat="44.89252" lon="6.0794">
        <ele>2295.4</ele>
        <time>2024-08-14T07:13:44Z</time>
      </trkpt>
      <trkpt lat="44.89252" lon="6.0794">
        <ele>2295.4</ele>
        <time>2024-08-14T07:13:45Z</time>
      </trkpt>
      <trkpt lat="44.89252" lon="6.0794">
        <ele>2295.4</ele>
        <time>2024-08-14T07:13:46Z</time>
      </trkpt>
      <trkpt lat="44.89252" lon="6.0794">
        <ele>2295.2</ele>
        <time>2024-08-14T07:13:47Z</time>
      </trkpt>
      <trkpt lat="44.89252" lon="6.0794">
        <ele>2295</ele>
        <time>2024-08-14T07:13:48Z</time>
      </trkpt>
      <trkpt lat="44.89252" lon="6.0794">
        <ele>2295</ele>
        <time>2024-08-14T07:13:49Z</time>
      </trkpt>
      <trkpt lat="44.89252" lon="6.0794">
        <ele>2295.2</ele>
        <time>2024-08-14T07:13:50Z</time>
      </trkpt>
      <trkpt lat="44.89252" lon="6.0794">
        <ele>2295.2</ele>
        <time>2024-08-14T07:13:51Z</time>
      </trkpt>
      <trkpt lat="44.89252" lon="6.0794">
        <ele>2295.2</ele>
        <time>2024-08-14T07:13:52Z</time>
      </trkpt>
      <trkpt lat="44.89252" lon="6.0794">
        <ele>2295.4</ele>
        <time>2024-08-14T07:13:53Z</time>
      </trkpt>
      <trkpt lat="44.89252" lon="6.0794">
        <ele>2295.8</ele>
        <time>2024-08-14T07:13:54Z</time>
      </trkpt>
      <trkpt lat="44.89252" lon="6.0794">
        <ele>2295.8</ele>
        <time>2024-08-14T07:13:55Z</time>
      </trkpt>
      <trkpt lat="44.89252" lon="6.0794">
        <ele>2295.6</ele>
        <time>2024-08-14T07:13:56Z</time>
      </trkpt>
      <trkpt lat="44.89252" lon="6.0794">
        <ele>2295.6</ele>
        <time>2024-08-14T07:13:57Z</time>
      </trkpt>
      <trkpt lat="44.89252" lon="6.0794">
        <ele>2295.8</ele>
        <time>2024-08-14T07:13:58Z</time>
      </trkpt>
      <trkpt lat="44.89252" lon="6.0794">
        <ele>2295.8</ele>
        <time>2024-08-14T07:13:59Z</time>
      </trkpt>
      <trkpt lat="44.89252" lon="6.0794">
        <ele>2295.8</ele>
        <time>2024-08-14T07:14:00Z</time>
      </trkpt>
      <trkpt lat="44.89252" lon="6.0794">
        <ele>2295.8</ele>
        <time>2024-08-14T07:14:01Z</time>
      </trkpt>
      <trkpt lat="44.89252" lon="6.0794">
        <ele>2295.4</ele>
        <time>2024-08-14T07:14:02Z</time>
      </trkpt>
      <trkpt lat="44.89252" lon="6.0794">
        <ele>2295.4</ele>
        <time>2024-08-14T07:14:03Z</time>
      </trkpt>
      <trkpt lat="44.89252" lon="6.0794">
        <ele>2295.6</ele>
        <time>2024-08-14T07:14:04Z</time>
      </trkpt>
      <trkpt lat="44.89252" lon="6.0794">
        <ele>2295.6</ele>
        <time>2024-08-14T07:14:05Z</time>
      </trkpt>
      <trkpt lat="44.89252" lon="6.0794">
        <ele>2295.6</ele>
        <time>2024-08-14T07:14:06Z</time>
      </trkpt>
      <trkpt lat="44.89252" lon="6.0794">
        <ele>2295.4</ele>
        <time>2024-08-14T07:14:07Z</time>
      </trkpt>
      <trkpt lat="44.89252" lon="6.0794">
        <ele>2295.4</ele>
        <time>2024-08-14T07:14:08Z</time>
      </trkpt>
      <trkpt lat="44.89252" lon="6.0794">
        <ele>2295.4</ele>
        <time>2024-08-14T07:14:09Z</time>
      </trkpt>
      <trkpt lat="44.89252" lon="6.0794">
        <ele>2295.4</ele>
        <time>2024-08-14T07:14:10Z</time>
      </trkpt>
      <trkpt lat="44.89252" lon="6.0794">
        <ele>2295.4</ele>
        <time>2024-08-14T07:14:11Z</time>
      </trkpt>
      <trkpt lat="44.89252" lon="6.0794">
        <ele>2295.4</ele>
        <time>2024-08-14T07:14:12Z</time>
      </trkpt>
      <trkpt lat="44.89252" lon="6.0794">
        <ele>2295.4</ele>
        <time>2024-08-14T07:14:13Z</time>
      </trkpt>
      <trkpt lat="44.89252" lon="6.0794">
        <ele>2295.6</ele>
        <time>2024-08-14T07:14:14Z</time>
      </trkpt>
      <trkpt lat="44.89252" lon="6.0794">
        <ele>2295.6</ele>
        <time>2024-08-14T07:14:15Z</time>
      </trkpt>
      <trkpt lat="44.89252" lon="6.0794">
        <ele>2295.6</ele>
        <time>2024-08-14T07:14:16Z</time>
      </trkpt>
      <trkpt lat="44.89252" lon="6.0794">
        <ele>2295.6</ele>
        <time>2024-08-14T07:14:17Z</time>
      </trkpt>
      <trkpt lat="44.89253" lon="6.07937">
        <ele>2295.8</ele>
        <time>2024-08-14T07:14:18Z</time>
      </trkpt>
      <trkpt lat="44.89253" lon="6.07937">
        <ele>2296</ele>
        <time>2024-08-14T07:14:19Z</time>
      </trkpt>
      <trkpt lat="44.89253" lon="6.07937">
        <ele>2295.6</ele>
        <time>2024-08-14T07:14:20Z</time>
      </trkpt>
      <trkpt lat="44.89253" lon="6.07933">
        <ele>2295.6</ele>
        <time>2024-08-14T07:14:21Z</time>
      </trkpt>
      <trkpt lat="44.89253" lon="6.07933">
        <ele>2296</ele>
        <time>2024-08-14T07:14:22Z</time>
      </trkpt>
      <trkpt lat="44.89252" lon="6.0793">
        <ele>2296</ele>
        <time>2024-08-14T07:14:23Z</time>
      </trkpt>
      <trkpt lat="44.89252" lon="6.0793">
        <ele>2296</ele>
        <time>2024-08-14T07:14:24Z</time>
      </trkpt>
      <trkpt lat="44.89252" lon="6.0793">
        <ele>2296</ele>
        <time>2024-08-14T07:14:25Z</time>
      </trkpt>
      <trkpt lat="44.89252" lon="6.0793">
        <ele>2296.2</ele>
        <time>2024-08-14T07:14:26Z</time>
      </trkpt>
      <trkpt lat="44.89252" lon="6.0793">
        <ele>2296.2</ele>
        <time>2024-08-14T07:14:27Z</time>
      </trkpt>
      <trkpt lat="44.89252" lon="6.0793">
        <ele>2296.4</ele>
        <time>2024-08-14T07:14:28Z</time>
      </trkpt>
      <trkpt lat="44.89252" lon="6.0793">
        <ele>2296.6</ele>
        <time>2024-08-14T07:14:29Z</time>
      </trkpt>
      <trkpt lat="44.89252" lon="6.0793">
        <ele>2296.6</ele>
        <time>2024-08-14T07:14:30Z</time>
      </trkpt>
      <trkpt lat="44.89252" lon="6.0793">
        <ele>2296.8</ele>
        <time>2024-08-14T07:14:31Z</time>
      </trkpt>
      <trkpt lat="44.89252" lon="6.0793">
        <ele>2297</ele>
        <time>2024-08-14T07:14:32Z</time>
      </trkpt>
      <trkpt lat="44.89252" lon="6.0793">
        <ele>2297</ele>
        <time>2024-08-14T07:14:33Z</time>
      </trkpt>
      <trkpt lat="44.89252" lon="6.0793">
        <ele>2297.2</ele>
        <time>2024-08-14T07:14:34Z</time>
      </trkpt>
      <trkpt lat="44.89252" lon="6.0793">
        <ele>2297.2</ele>
        <time>2024-08-14T07:14:35Z</time>
      </trkpt>
      <trkpt lat="44.89252" lon="6.0793">
        <ele>2297.2</ele>
        <time>2024-08-14T07:14:36Z</time>
      </trkpt>
      <trkpt lat="44.89252" lon="6.0793">
        <ele>2297.2</ele>
        <time>2024-08-14T07:14:37Z</time>
      </trkpt>
      <trkpt lat="44.89252" lon="6.0793">
        <ele>2297.2</ele>
        <time>2024-08-14T07:14:38Z</time>
      </trkpt>
      <trkpt lat="44.89252" lon="6.0793">
        <ele>2297.2</ele>
        <time>2024-08-14T07:14:39Z</time>
      </trkpt>
      <trkpt lat="44.89252" lon="6.0793">
        <ele>2296.8</ele>
        <time>2024-08-14T07:14:40Z</time>
      </trkpt>
      <trkpt lat="44.89252" lon="6.0793">
        <ele>2296.6</ele>
        <time>2024-08-14T07:14:41Z</time>
      </trkpt>
      <trkpt lat="44.89252" lon="6.0793">
        <ele>2296.6</ele>
        <time>2024-08-14T07:14:42Z</time>
      </trkpt>
      <trkpt lat="44.89253" lon="6.07934">
        <ele>2296.6</ele>
        <time>2024-08-14T07:14:43Z</time>
      </trkpt>
      <trkpt lat="44.89253" lon="6.07934">
        <ele>2296.6</ele>
        <time>2024-08-14T07:14:44Z</time>
      </trkpt>
      <trkpt lat="44.89254" lon="6.07937">
        <ele>2296.6</ele>
        <time>2024-08-14T07:14:45Z</time>
      </trkpt>
      <trkpt lat="44.89254" lon="6.07937">
        <ele>2296.4</ele>
        <time>2024-08-14T07:14:46Z</time>
      </trkpt>
      <trkpt lat="44.89254" lon="6.07937">
        <ele>2296.4</ele>
        <time>2024-08-14T07:14:47Z</time>
      </trkpt>
      <trkpt lat="44.89254" lon="6.07937">
        <ele>2296.2</ele>
        <time>2024-08-14T07:14:48Z</time>
      </trkpt>
      <trkpt lat="44.89254" lon="6.07937">
        <ele>2295.6</ele>
        <time>2024-08-14T07:14:49Z</time>
      </trkpt>
      <trkpt lat="44.89254" lon="6.07937">
        <ele>2295</ele>
        <time>2024-08-14T07:14:50Z</time>
      </trkpt>
      <trkpt lat="44.89254" lon="6.07937">
        <ele>2295</ele>
        <time>2024-08-14T07:14:51Z</time>
      </trkpt>
      <trkpt lat="44.89254" lon="6.07937">
        <ele>2295</ele>
        <time>2024-08-14T07:14:52Z</time>
      </trkpt>
      <trkpt lat="44.89254" lon="6.07937">
        <ele>2295</ele>
        <time>2024-08-14T07:14:53Z</time>
      </trkpt>
      <trkpt lat="44.89254" lon="6.07937">
        <ele>2295</ele>
        <time>2024-08-14T07:14:54Z</time>
      </trkpt>
      <trkpt lat="44.89254" lon="6.07937">
        <ele>2294.8</ele>
        <time>2024-08-14T07:14:55Z</time>
      </trkpt>
      <trkpt lat="44.89254" lon="6.07937">
        <ele>2295</ele>
        <time>2024-08-14T07:14:56Z</time>
      </trkpt>
      <trkpt lat="44.89254" lon="6.07937">
        <ele>2295</ele>
        <time>2024-08-14T07:14:57Z</time>
      </trkpt>
      <trkpt lat="44.89254" lon="6.07937">
        <ele>2295</ele>
        <time>2024-08-14T07:14:58Z</time>
      </trkpt>
      <trkpt lat="44.89254" lon="6.07937">
        <ele>2295</ele>
        <time>2024-08-14T07:14:59Z</time>
      </trkpt>
      <trkpt lat="44.89254" lon="6.07937">
        <ele>2295</ele>
        <time>2024-08-14T07:15:00Z</time>
      </trkpt>
      <trkpt lat="44.89254" lon="6.07937">
        <ele>2295</ele>
        <time>2024-08-14T07:15:01Z</time>
      </trkpt>
      <trkpt lat="44.89254" lon="6.07937">
        <ele>2295</ele>
        <time>2024-08-14T07:15:02Z</time>
      </trkpt>
      <trkpt lat="44.89254" lon="6.07937">
        <ele>2295</ele>
        <time>2024-08-14T07:15:03Z</time>
      </trkpt>
      <trkpt lat="44.89254" lon="6.07937">
        <ele>2295</ele>
        <time>2024-08-14T07:15:04Z</time>
      </trkpt>
      <trkpt lat="44.89254" lon="6.07937">
        <ele>2295</ele>
        <time>2024-08-14T07:15:05Z</time>
      </trkpt>
      <trkpt lat="44.89254" lon="6.07937">
        <ele>2295.2</ele>
        <time>2024-08-14T07:15:06Z</time>
      </trkpt>
      <trkpt lat="44.89254" lon="6.07937">
        <ele>2295.2</ele>
        <time>2024-08-14T07:15:07Z</time>
      </trkpt>
      <trkpt lat="44.89254" lon="6.07937">
        <ele>2295.2</ele>
        <time>2024-08-14T07:15:08Z</time>
      </trkpt>
      <trkpt lat="44.89254" lon="6.07937">
        <ele>2295.4</ele>
        <time>2024-08-14T07:15:09Z</time>
      </trkpt>
      <trkpt lat="44.89254" lon="6.07937">
        <ele>2295.4</ele>
        <time>2024-08-14T07:15:10Z</time>
      </trkpt>
      <trkpt lat="44.89254" lon="6.07937">
        <ele>2295.4</ele>
        <time>2024-08-14T07:15:11Z</time>
      </trkpt>
      <trkpt lat="44.89254" lon="6.07937">
        <ele>2295.2</ele>
        <time>2024-08-14T07:15:12Z</time>
      </trkpt>
      <trkpt lat="44.89254" lon="6.07937">
        <ele>2295.2</ele>
        <time>2024-08-14T07:15:13Z</time>
      </trkpt>
      <trkpt lat="44.89254" lon="6.07937">
        <ele>2295.2</ele>
        <time>2024-08-14T07:15:14Z</time>
      </trkpt>
      <trkpt lat="44.89254" lon="6.07937">
        <ele>2295.4</ele>
        <time>2024-08-14T07:15:15Z</time>
      </trkpt>
      <trkpt lat="44.89254" lon="6.07937">
        <ele>2295.4</ele>
        <time>2024-08-14T07:15:16Z</time>
      </trkpt>
      <trkpt lat="44.89254" lon="6.07937">
        <ele>2295.4</ele>
        <time>2024-08-14T07:15:17Z</time>
      </trkpt>
      <trkpt lat="44.89254" lon="6.07937">
        <ele>2295.4</ele>
        <time>2024-08-14T07:15:18Z</time>
      </trkpt>
      <trkpt lat="44.89254" lon="6.07937">
        <ele>2295.4</ele>
        <time>2024-08-14T07:15:19Z</time>
      </trkpt>
      <trkpt lat="44.89254" lon="6.07937">
        <ele>2295.2</ele>
        <time>2024-08-14T07:15:20Z</time>
      </trkpt>
      <trkpt lat="44.89254" lon="6.07937">
        <ele>2295.2</ele>
        <time>2024-08-14T07:15:21Z</time>
      </trkpt>
      <trkpt lat="44.89254" lon="6.07937">
        <ele>2295.2</ele>
        <time>2024-08-14T07:15:22Z</time>
      </trkpt>
      <trkpt lat="44.89254" lon="6.07937">
        <ele>2295.2</ele>
        <time>2024-08-14T07:15:23Z</time>
      </trkpt>
      <trkpt lat="44.89254" lon="6.07937">
        <ele>2295.4</ele>
        <time>2024-08-14T07:15:24Z</time>
      </trkpt>
      <trkpt lat="44.89254" lon="6.07937">
        <ele>2295.4</ele>
        <time>2024-08-14T07:15:25Z</time>
      </trkpt>
      <trkpt lat="44.89254" lon="6.07937">
        <ele>2295.4</ele>
        <time>2024-08-14T07:15:26Z</time>
      </trkpt>
      <trkpt lat="44.89254" lon="6.07937">
        <ele>2295.4</ele>
        <time>2024-08-14T07:15:27Z</time>
      </trkpt>
      <trkpt lat="44.89254" lon="6.07937">
        <ele>2295.4</ele>
        <time>2024-08-14T07:15:28Z</time>
      </trkpt>
      <trkpt lat="44.89254" lon="6.07937">
        <ele>2295.4</ele>
        <time>2024-08-14T07:15:29Z</time>
      </trkpt>
      <trkpt lat="44.89254" lon="6.07937">
        <ele>2295.4</ele>
        <time>2024-08-14T07:15:30Z</time>
      </trkpt>
      <trkpt lat="44.89254" lon="6.07937">
        <ele>2295.2</ele>
        <time>2024-08-14T07:15:31Z</time>
      </trkpt>
      <trkpt lat="44.89254" lon="6.07937">
        <ele>2295.2</ele>
        <time>2024-08-14T07:15:32Z</time>
      </trkpt>
      <trkpt lat="44.89254" lon="6.07937">
        <ele>2295.4</ele>
        <time>2024-08-14T07:15:33Z</time>
      </trkpt>
      <trkpt lat="44.89254" lon="6.07937">
        <ele>2295.4</ele>
        <time>2024-08-14T07:15:34Z</time>
      </trkpt>
      <trkpt lat="44.89254" lon="6.07937">
        <ele>2295.2</ele>
        <time>2024-08-14T07:15:35Z</time>
      </trkpt>
      <trkpt lat="44.89254" lon="6.07937">
        <ele>2295.2</ele>
        <time>2024-08-14T07:15:36Z</time>
      </trkpt>
      <trkpt lat="44.89254" lon="6.07937">
        <ele>2295.2</ele>
        <time>2024-08-14T07:15:37Z</time>
      </trkpt>
      <trkpt lat="44.89254" lon="6.07937">
        <ele>2295.4</ele>
        <time>2024-08-14T07:15:38Z</time>
      </trkpt>
      <trkpt lat="44.89254" lon="6.07937">
        <ele>2295.6</ele>
        <time>2024-08-14T07:15:39Z</time>
      </trkpt>
      <trkpt lat="44.89256" lon="6.07938">
        <ele>2295.6</ele>
        <time>2024-08-14T07:15:40Z</time>
      </trkpt>
      <trkpt lat="44.89256" lon="6.07938">
        <ele>2295.6</ele>
        <time>2024-08-14T07:15:41Z</time>
      </trkpt>
      <trkpt lat="44.89259" lon="6.07938">
        <ele>2295.6</ele>
        <time>2024-08-14T07:15:42Z</time>
      </trkpt>
      <trkpt lat="44.89259" lon="6.07938">
        <ele>2295.6</ele>
        <time>2024-08-14T07:15:43Z</time>
      </trkpt>
      <trkpt lat="44.89262" lon="6.07939">
        <ele>2295.4</ele>
        <time>2024-08-14T07:15:44Z</time>
      </trkpt>
      <trkpt lat="44.89262" lon="6.07939">
        <ele>2295.4</ele>
        <time>2024-08-14T07:15:45Z</time>
      </trkpt>
      <trkpt lat="44.89265" lon="6.0794">
        <ele>2295.4</ele>
        <time>2024-08-14T07:15:46Z</time>
      </trkpt>
      <trkpt lat="44.89265" lon="6.0794">
        <ele>2295</ele>
        <time>2024-08-14T07:15:47Z</time>
      </trkpt>
      <trkpt lat="44.89265" lon="6.0794">
        <ele>2294.6</ele>
        <time>2024-08-14T07:15:48Z</time>
      </trkpt>
      <trkpt lat="44.89267" lon="6.07942">
        <ele>2294.6</ele>
        <time>2024-08-14T07:15:49Z</time>
      </trkpt>
      <trkpt lat="44.89267" lon="6.07942">
        <ele>2294.2</ele>
        <time>2024-08-14T07:15:50Z</time>
      </trkpt>
      <trkpt lat="44.89269" lon="6.07945">
        <ele>2294.2</ele>
        <time>2024-08-14T07:15:51Z</time>
      </trkpt>
      <trkpt lat="44.89269" lon="6.07945">
        <ele>2294</ele>
        <time>2024-08-14T07:15:52Z</time>
      </trkpt>
      <trkpt lat="44.8927" lon="6.07946">
        <ele>2293.6</ele>
        <time>2024-08-14T07:15:53Z</time>
      </trkpt>
      <trkpt lat="44.8927" lon="6.07946">
        <ele>2293.6</ele>
        <time>2024-08-14T07:15:54Z</time>
      </trkpt>
      <trkpt lat="44.8927" lon="6.07946">
        <ele>2293.4</ele>
        <time>2024-08-14T07:15:55Z</time>
      </trkpt>
      <trkpt lat="44.89273" lon="6.07948">
        <ele>2293</ele>
        <time>2024-08-14T07:15:56Z</time>
      </trkpt>
      <trkpt lat="44.89273" lon="6.07948">
        <ele>2292.8</ele>
        <time>2024-08-14T07:15:57Z</time>
      </trkpt>
      <trkpt lat="44.89276" lon="6.07949">
        <ele>2292.8</ele>
        <time>2024-08-14T07:15:58Z</time>
      </trkpt>
      <trkpt lat="44.89276" lon="6.07949">
        <ele>2292.8</ele>
        <time>2024-08-14T07:15:59Z</time>
      </trkpt>
      <trkpt lat="44.89278" lon="6.07949">
        <ele>2292.6</ele>
        <time>2024-08-14T07:16:00Z</time>
      </trkpt>
      <trkpt lat="44.89278" lon="6.07949">
        <ele>2292</ele>
        <time>2024-08-14T07:16:01Z</time>
      </trkpt>
      <trkpt lat="44.8928" lon="6.07949">
        <ele>2291.4</ele>
        <time>2024-08-14T07:16:02Z</time>
      </trkpt>
      <trkpt lat="44.8928" lon="6.07949">
        <ele>2291.4</ele>
        <time>2024-08-14T07:16:03Z</time>
      </trkpt>
      <trkpt lat="44.89283" lon="6.0795">
        <ele>2291.2</ele>
        <time>2024-08-14T07:16:04Z</time>
      </trkpt>
      <trkpt lat="44.89283" lon="6.0795">
        <ele>2291</ele>
        <time>2024-08-14T07:16:05Z</time>
      </trkpt>
      <trkpt lat="44.89286" lon="6.07949">
        <ele>2291</ele>
        <time>2024-08-14T07:16:06Z</time>
      </trkpt>
      <trkpt lat="44.89286" lon="6.07949">
        <ele>2290.6</ele>
        <time>2024-08-14T07:16:07Z</time>
      </trkpt>
      <trkpt lat="44.89286" lon="6.07949">
        <ele>2290.4</ele>
        <time>2024-08-14T07:16:08Z</time>
      </trkpt>
      <trkpt lat="44.89286" lon="6.07949">
        <ele>2290</ele>
        <time>2024-08-14T07:16:09Z</time>
      </trkpt>
      <trkpt lat="44.89286" lon="6.07949">
        <ele>2290</ele>
        <time>2024-08-14T07:16:10Z</time>
      </trkpt>
      <trkpt lat="44.89285" lon="6.07947">
        <ele>2290</ele>
        <time>2024-08-14T07:16:11Z</time>
      </trkpt>
      <trkpt lat="44.89285" lon="6.07947">
        <ele>2290</ele>
        <time>2024-08-14T07:16:12Z</time>
      </trkpt>
      <trkpt lat="44.89283" lon="6.07944">
        <ele>2289.4</ele>
        <time>2024-08-14T07:16:13Z</time>
      </trkpt>
      <trkpt lat="44.89283" lon="6.07944">
        <ele>2288.8</ele>
        <time>2024-08-14T07:16:14Z</time>
      </trkpt>
      <trkpt lat="44.89282" lon="6.0794">
        <ele>2288.6</ele>
        <time>2024-08-14T07:16:15Z</time>
      </trkpt>
      <trkpt lat="44.89282" lon="6.0794">
        <ele>2288.4</ele>
        <time>2024-08-14T07:16:16Z</time>
      </trkpt>
      <trkpt lat="44.89281" lon="6.07936">
        <ele>2288.2</ele>
        <time>2024-08-14T07:16:17Z</time>
      </trkpt>
      <trkpt lat="44.89281" lon="6.07936">
        <ele>2288</ele>
        <time>2024-08-14T07:16:18Z</time>
      </trkpt>
      <trkpt lat="44.8928" lon="6.07932">
        <ele>2287.8</ele>
        <time>2024-08-14T07:16:19Z</time>
      </trkpt>
      <trkpt lat="44.8928" lon="6.07932">
        <ele>2287.8</ele>
        <time>2024-08-14T07:16:20Z</time>
      </trkpt>
      <trkpt lat="44.89279" lon="6.07929">
        <ele>2287.6</ele>
        <time>2024-08-14T07:16:21Z</time>
      </trkpt>
      <trkpt lat="44.89279" lon="6.07929">
        <ele>2287.4</ele>
        <time>2024-08-14T07:16:22Z</time>
      </trkpt>
      <trkpt lat="44.89279" lon="6.07926">
        <ele>2287.4</ele>
        <time>2024-08-14T07:16:23Z</time>
      </trkpt>
      <trkpt lat="44.89279" lon="6.07926">
        <ele>2287.2</ele>
        <time>2024-08-14T07:16:24Z</time>
      </trkpt>
      <trkpt lat="44.89279" lon="6.07923">
        <ele>2286.6</ele>
        <time>2024-08-14T07:16:25Z</time>
      </trkpt>
      <trkpt lat="44.89279" lon="6.07923">
        <ele>2286.6</ele>
        <time>2024-08-14T07:16:26Z</time>
      </trkpt>
      <trkpt lat="44.8928" lon="6.0792">
        <ele>2286.2</ele>
        <time>2024-08-14T07:16:27Z</time>
      </trkpt>
      <trkpt lat="44.8928" lon="6.0792">
        <ele>2285.8</ele>
        <time>2024-08-14T07:16:28Z</time>
      </trkpt>
      <trkpt lat="44.8928" lon="6.07917">
        <ele>2285.4</ele>
        <time>2024-08-14T07:16:29Z</time>
      </trkpt>
      <trkpt lat="44.8928" lon="6.07917">
        <ele>2285.2</ele>
        <time>2024-08-14T07:16:30Z</time>
      </trkpt>
      <trkpt lat="44.8928" lon="6.07913">
        <ele>2285</ele>
        <time>2024-08-14T07:16:31Z</time>
      </trkpt>
      <trkpt lat="44.8928" lon="6.07913">
        <ele>2284.8</ele>
        <time>2024-08-14T07:16:32Z</time>
      </trkpt>
      <trkpt lat="44.8928" lon="6.0791">
        <ele>2284.4</ele>
        <time>2024-08-14T07:16:33Z</time>
      </trkpt>
      <trkpt lat="44.8928" lon="6.0791">
        <ele>2284.4</ele>
        <time>2024-08-14T07:16:34Z</time>
      </trkpt>
      <trkpt lat="44.8928" lon="6.07906">
        <ele>2284.2</ele>
        <time>2024-08-14T07:16:35Z</time>
      </trkpt>
      <trkpt lat="44.8928" lon="6.07906">
        <ele>2284.2</ele>
        <time>2024-08-14T07:16:36Z</time>
      </trkpt>
      <trkpt lat="44.89281" lon="6.07903">
        <ele>2283.8</ele>
        <time>2024-08-14T07:16:37Z</time>
      </trkpt>
      <trkpt lat="44.89281" lon="6.07903">
        <ele>2283.6</ele>
        <time>2024-08-14T07:16:38Z</time>
      </trkpt>
      <trkpt lat="44.89281" lon="6.079">
        <ele>2283.6</ele>
        <time>2024-08-14T07:16:39Z</time>
      </trkpt>
      <trkpt lat="44.89281" lon="6.079">
        <ele>2283.4</ele>
        <time>2024-08-14T07:16:40Z</time>
      </trkpt>
      <trkpt lat="44.89282" lon="6.07896">
        <ele>2283</ele>
        <time>2024-08-14T07:16:41Z</time>
      </trkpt>
      <trkpt lat="44.89282" lon="6.07896">
        <ele>2282.8</ele>
        <time>2024-08-14T07:16:42Z</time>
      </trkpt>
      <trkpt lat="44.89282" lon="6.07891">
        <ele>2282.8</ele>
        <time>2024-08-14T07:16:43Z</time>
      </trkpt>
      <trkpt lat="44.89282" lon="6.07891">
        <ele>2282.4</ele>
        <time>2024-08-14T07:16:44Z</time>
      </trkpt>
      <trkpt lat="44.89282" lon="6.07888">
        <ele>2282.4</ele>
        <time>2024-08-14T07:16:45Z</time>
      </trkpt>
      <trkpt lat="44.89282" lon="6.07888">
        <ele>2282.4</ele>
        <time>2024-08-14T07:16:46Z</time>
      </trkpt>
      <trkpt lat="44.89283" lon="6.07885">
        <ele>2282.4</ele>
        <time>2024-08-14T07:16:47Z</time>
      </trkpt>
      <trkpt lat="44.89283" lon="6.07885">
        <ele>2282.2</ele>
        <time>2024-08-14T07:16:48Z</time>
      </trkpt>
      <trkpt lat="44.89285" lon="6.07882">
        <ele>2281.8</ele>
        <time>2024-08-14T07:16:49Z</time>
      </trkpt>
      <trkpt lat="44.89285" lon="6.07882">
        <ele>2281.6</ele>
        <time>2024-08-14T07:16:50Z</time>
      </trkpt>
      <trkpt lat="44.89284" lon="6.07879">
        <ele>2281.4</ele>
        <time>2024-08-14T07:16:51Z</time>
      </trkpt>
      <trkpt lat="44.89284" lon="6.07879">
        <ele>2281</ele>
        <time>2024-08-14T07:16:52Z</time>
      </trkpt>
      <trkpt lat="44.89284" lon="6.07875">
        <ele>2280.8</ele>
        <time>2024-08-14T07:16:53Z</time>
      </trkpt>
      <trkpt lat="44.89284" lon="6.07875">
        <ele>2280.6</ele>
        <time>2024-08-14T07:16:54Z</time>
      </trkpt>
      <trkpt lat="44.89284" lon="6.07872">
        <ele>2280.6</ele>
        <time>2024-08-14T07:16:55Z</time>
      </trkpt>
      <trkpt lat="44.89284" lon="6.07872">
        <ele>2280.6</ele>
        <time>2024-08-14T07:16:56Z</time>
      </trkpt>
      <trkpt lat="44.89285" lon="6.07868">
        <ele>2280.4</ele>
        <time>2024-08-14T07:16:57Z</time>
      </trkpt>
      <trkpt lat="44.89285" lon="6.07868">
        <ele>2280</ele>
        <time>2024-08-14T07:16:58Z</time>
      </trkpt>
      <trkpt lat="44.89285" lon="6.07868">
        <ele>2280</ele>
        <time>2024-08-14T07:16:59Z</time>
      </trkpt>
      <trkpt lat="44.89285" lon="6.07868">
        <ele>2280</ele>
        <time>2024-08-14T07:17:00Z</time>
      </trkpt>
      <trkpt lat="44.89286" lon="6.0787">
        <ele>2279.4</ele>
        <time>2024-08-14T07:17:01Z</time>
      </trkpt>
      <trkpt lat="44.89286" lon="6.0787">
        <ele>2279.6</ele>
        <time>2024-08-14T07:17:02Z</time>
      </trkpt>
      <trkpt lat="44.89287" lon="6.07873">
        <ele>2279.6</ele>
        <time>2024-08-14T07:17:03Z</time>
      </trkpt>
      <trkpt lat="44.89287" lon="6.07873">
        <ele>2279.6</ele>
        <time>2024-08-14T07:17:04Z</time>
      </trkpt>
      <trkpt lat="44.89288" lon="6.07876">
        <ele>2279.6</ele>
        <time>2024-08-14T07:17:05Z</time>
      </trkpt>
      <trkpt lat="44.8929" lon="6.07877">
        <ele>2279</ele>
        <time>2024-08-14T07:17:06Z</time>
      </trkpt>
      <trkpt lat="44.8929" lon="6.07877">
        <ele>2278.2</ele>
        <time>2024-08-14T07:17:07Z</time>
      </trkpt>
      <trkpt lat="44.89292" lon="6.07879">
        <ele>2278</ele>
        <time>2024-08-14T07:17:08Z</time>
      </trkpt>
      <trkpt lat="44.89292" lon="6.07879">
        <ele>2278</ele>
        <time>2024-08-14T07:17:09Z</time>
      </trkpt>
      <trkpt lat="44.89294" lon="6.07881">
        <ele>2277.6</ele>
        <time>2024-08-14T07:17:10Z</time>
      </trkpt>
      <trkpt lat="44.89296" lon="6.07882">
        <ele>2277</ele>
        <time>2024-08-14T07:17:11Z</time>
      </trkpt>
      <trkpt lat="44.89296" lon="6.07882">
        <ele>2276.8</ele>
        <time>2024-08-14T07:17:12Z</time>
      </trkpt>
      <trkpt lat="44.89298" lon="6.07884">
        <ele>2276.6</ele>
        <time>2024-08-14T07:17:13Z</time>
      </trkpt>
      <trkpt lat="44.89298" lon="6.07884">
        <ele>2276.2</ele>
        <time>2024-08-14T07:17:14Z</time>
      </trkpt>
      <trkpt lat="44.893" lon="6.07886">
        <ele>2276</ele>
        <time>2024-08-14T07:17:15Z</time>
      </trkpt>
      <trkpt lat="44.893" lon="6.07886">
        <ele>2275.8</ele>
        <time>2024-08-14T07:17:16Z</time>
      </trkpt>
      <trkpt lat="44.89302" lon="6.07888">
        <ele>2275.4</ele>
        <time>2024-08-14T07:17:17Z</time>
      </trkpt>
      <trkpt lat="44.89302" lon="6.07888">
        <ele>2275</ele>
        <time>2024-08-14T07:17:18Z</time>
      </trkpt>
      <trkpt lat="44.89304" lon="6.0789">
        <ele>2274.6</ele>
        <time>2024-08-14T07:17:19Z</time>
      </trkpt>
      <trkpt lat="44.89304" lon="6.0789">
        <ele>2274.2</ele>
        <time>2024-08-14T07:17:20Z</time>
      </trkpt>
      <trkpt lat="44.89307" lon="6.07892">
        <ele>2274</ele>
        <time>2024-08-14T07:17:21Z</time>
      </trkpt>
      <trkpt lat="44.89307" lon="6.07892">
        <ele>2273.8</ele>
        <time>2024-08-14T07:17:22Z</time>
      </trkpt>
      <trkpt lat="44.89309" lon="6.07894">
        <ele>2273.2</ele>
        <time>2024-08-14T07:17:23Z</time>
      </trkpt>
      <trkpt lat="44.89309" lon="6.07894">
        <ele>2273.2</ele>
        <time>2024-08-14T07:17:24Z</time>
      </trkpt>
      <trkpt lat="44.89311" lon="6.07895">
        <ele>2273</ele>
        <time>2024-08-14T07:17:25Z</time>
      </trkpt>
      <trkpt lat="44.89311" lon="6.07895">
        <ele>2272.8</ele>
        <time>2024-08-14T07:17:26Z</time>
      </trkpt>
      <trkpt lat="44.89314" lon="6.07897">
        <ele>2272.4</ele>
        <time>2024-08-14T07:17:27Z</time>
      </trkpt>
      <trkpt lat="44.89314" lon="6.07897">
        <ele>2272.2</ele>
        <time>2024-08-14T07:17:28Z</time>
      </trkpt>
      <trkpt lat="44.89316" lon="6.07899">
        <ele>2271.8</ele>
        <time>2024-08-14T07:17:29Z</time>
      </trkpt>
      <trkpt lat="44.89316" lon="6.07899">
        <ele>2271.6</ele>
        <time>2024-08-14T07:17:30Z</time>
      </trkpt>
      <trkpt lat="44.89319" lon="6.079">
        <ele>2271.2</ele>
        <time>2024-08-14T07:17:31Z</time>
      </trkpt>
      <trkpt lat="44.89319" lon="6.079">
        <ele>2270.8</ele>
        <time>2024-08-14T07:17:32Z</time>
      </trkpt>
      <trkpt lat="44.89322" lon="6.07902">
        <ele>2270.4</ele>
        <time>2024-08-14T07:17:33Z</time>
      </trkpt>
      <trkpt lat="44.89322" lon="6.07902">
        <ele>2270.4</ele>
        <time>2024-08-14T07:17:34Z</time>
      </trkpt>
      <trkpt lat="44.89324" lon="6.07904">
        <ele>2270.2</ele>
        <time>2024-08-14T07:17:35Z</time>
      </trkpt>
      <trkpt lat="44.89324" lon="6.07904">
        <ele>2269.6</ele>
        <time>2024-08-14T07:17:36Z</time>
      </trkpt>
      <trkpt lat="44.89327" lon="6.07904">
        <ele>2269.6</ele>
        <time>2024-08-14T07:17:37Z</time>
      </trkpt>
      <trkpt lat="44.89327" lon="6.07904">
        <ele>2269.4</ele>
        <time>2024-08-14T07:17:38Z</time>
      </trkpt>
      <trkpt lat="44.89329" lon="6.07905">
        <ele>2269</ele>
        <time>2024-08-14T07:17:39Z</time>
      </trkpt>
      <trkpt lat="44.89329" lon="6.07905">
        <ele>2268.8</ele>
        <time>2024-08-14T07:17:40Z</time>
      </trkpt>
      <trkpt lat="44.89332" lon="6.07905">
        <ele>2268.6</ele>
        <time>2024-08-14T07:17:41Z</time>
      </trkpt>
      <trkpt lat="44.89332" lon="6.07905">
        <ele>2268.6</ele>
        <time>2024-08-14T07:17:42Z</time>
      </trkpt>
      <trkpt lat="44.89335" lon="6.07906">
        <ele>2268.2</ele>
        <time>2024-08-14T07:17:43Z</time>
      </trkpt>
      <trkpt lat="44.89335" lon="6.07906">
        <ele>2268</ele>
        <time>2024-08-14T07:17:44Z</time>
      </trkpt>
      <trkpt lat="44.89337" lon="6.07907">
        <ele>2267.4</ele>
        <time>2024-08-14T07:17:45Z</time>
      </trkpt>
      <trkpt lat="44.89337" lon="6.07907">
        <ele>2267.2</ele>
        <time>2024-08-14T07:17:46Z</time>
      </trkpt>
      <trkpt lat="44.89339" lon="6.07907">
        <ele>2267</ele>
        <time>2024-08-14T07:17:47Z</time>
      </trkpt>
      <trkpt lat="44.89339" lon="6.07907">
        <ele>2266.8</ele>
        <time>2024-08-14T07:17:48Z</time>
      </trkpt>
      <trkpt lat="44.89341" lon="6.07907">
        <ele>2266.8</ele>
        <time>2024-08-14T07:17:49Z</time>
      </trkpt>
      <trkpt lat="44.89341" lon="6.07907">
        <ele>2266.4</ele>
        <time>2024-08-14T07:17:50Z</time>
      </trkpt>
      <trkpt lat="44.89344" lon="6.07905">
        <ele>2266.2</ele>
        <time>2024-08-14T07:17:51Z</time>
      </trkpt>
      <trkpt lat="44.89344" lon="6.07905">
        <ele>2265.8</ele>
        <time>2024-08-14T07:17:52Z</time>
      </trkpt>
      <trkpt lat="44.89346" lon="6.07905">
        <ele>2265.4</ele>
        <time>2024-08-14T07:17:53Z</time>
      </trkpt>
      <trkpt lat="44.89346" lon="6.07905">
        <ele>2265</ele>
        <time>2024-08-14T07:17:54Z</time>
      </trkpt>
      <trkpt lat="44.89349" lon="6.07906">
        <ele>2264.4</ele>
        <time>2024-08-14T07:17:55Z</time>
      </trkpt>
      <trkpt lat="44.89349" lon="6.07906">
        <ele>2264.2</ele>
        <time>2024-08-14T07:17:56Z</time>
      </trkpt>
      <trkpt lat="44.89352" lon="6.07907">
        <ele>2264</ele>
        <time>2024-08-14T07:17:57Z</time>
      </trkpt>
      <trkpt lat="44.89352" lon="6.07907">
        <ele>2263.6</ele>
        <time>2024-08-14T07:17:58Z</time>
      </trkpt>
      <trkpt lat="44.89355" lon="6.07908">
        <ele>2263.4</ele>
        <time>2024-08-14T07:17:59Z</time>
      </trkpt>
      <trkpt lat="44.89355" lon="6.07908">
        <ele>2263.4</ele>
        <time>2024-08-14T07:18:00Z</time>
      </trkpt>
      <trkpt lat="44.89357" lon="6.0791">
        <ele>2263.2</ele>
        <time>2024-08-14T07:18:01Z</time>
      </trkpt>
      <trkpt lat="44.89357" lon="6.0791">
        <ele>2262.8</ele>
        <time>2024-08-14T07:18:02Z</time>
      </trkpt>
      <trkpt lat="44.8936" lon="6.07911">
        <ele>2262.8</ele>
        <time>2024-08-14T07:18:03Z</time>
      </trkpt>
      <trkpt lat="44.8936" lon="6.07911">
        <ele>2262.6</ele>
        <time>2024-08-14T07:18:04Z</time>
      </trkpt>
      <trkpt lat="44.89362" lon="6.07909">
        <ele>2262.4</ele>
        <time>2024-08-14T07:18:05Z</time>
      </trkpt>
      <trkpt lat="44.89362" lon="6.07909">
        <ele>2262</ele>
        <time>2024-08-14T07:18:06Z</time>
      </trkpt>
      <trkpt lat="44.89365" lon="6.07909">
        <ele>2261.2</ele>
        <time>2024-08-14T07:18:07Z</time>
      </trkpt>
      <trkpt lat="44.89365" lon="6.07909">
        <ele>2261</ele>
        <time>2024-08-14T07:18:08Z</time>
      </trkpt>
      <trkpt lat="44.89368" lon="6.0791">
        <ele>2260.8</ele>
        <time>2024-08-14T07:18:09Z</time>
      </trkpt>
      <trkpt lat="44.89368" lon="6.0791">
        <ele>2260.6</ele>
        <time>2024-08-14T07:18:10Z</time>
      </trkpt>
      <trkpt lat="44.89371" lon="6.07911">
        <ele>2260.4</ele>
        <time>2024-08-14T07:18:11Z</time>
      </trkpt>
      <trkpt lat="44.89371" lon="6.07911">
        <ele>2260.4</ele>
        <time>2024-08-14T07:18:12Z</time>
      </trkpt>
      <trkpt lat="44.89373" lon="6.07912">
        <ele>2260.2</ele>
        <time>2024-08-14T07:18:13Z</time>
      </trkpt>
      <trkpt lat="44.89373" lon="6.07912">
        <ele>2260</ele>
        <time>2024-08-14T07:18:14Z</time>
      </trkpt>
      <trkpt lat="44.89376" lon="6.07912">
        <ele>2259.8</ele>
        <time>2024-08-14T07:18:15Z</time>
      </trkpt>
      <trkpt lat="44.89376" lon="6.07912">
        <ele>2259.6</ele>
        <time>2024-08-14T07:18:16Z</time>
      </trkpt>
      <trkpt lat="44.89379" lon="6.07913">
        <ele>2259.6</ele>
        <time>2024-08-14T07:18:17Z</time>
      </trkpt>
      <trkpt lat="44.89379" lon="6.07913">
        <ele>2259</ele>
        <time>2024-08-14T07:18:18Z</time>
      </trkpt>
      <trkpt lat="44.89381" lon="6.07913">
        <ele>2258.6</ele>
        <time>2024-08-14T07:18:19Z</time>
      </trkpt>
      <trkpt lat="44.89381" lon="6.07913">
        <ele>2258.2</ele>
        <time>2024-08-14T07:18:20Z</time>
      </trkpt>
      <trkpt lat="44.89384" lon="6.07914">
        <ele>2257.8</ele>
        <time>2024-08-14T07:18:21Z</time>
      </trkpt>
      <trkpt lat="44.89384" lon="6.07914">
        <ele>2257.6</ele>
        <time>2024-08-14T07:18:22Z</time>
      </trkpt>
      <trkpt lat="44.89387" lon="6.07915">
        <ele>2257.4</ele>
        <time>2024-08-14T07:18:23Z</time>
      </trkpt>
      <trkpt lat="44.89387" lon="6.07915">
        <ele>2257</ele>
        <time>2024-08-14T07:18:24Z</time>
      </trkpt>
      <trkpt lat="44.89389" lon="6.07916">
        <ele>2256.8</ele>
        <time>2024-08-14T07:18:25Z</time>
      </trkpt>
      <trkpt lat="44.89391" lon="6.07917">
        <ele>2256.8</ele>
        <time>2024-08-14T07:18:26Z</time>
      </trkpt>
      <trkpt lat="44.89391" lon="6.07917">
        <ele>2256.6</ele>
        <time>2024-08-14T07:18:27Z</time>
      </trkpt>
      <trkpt lat="44.89394" lon="6.07917">
        <ele>2256.4</ele>
        <time>2024-08-14T07:18:28Z</time>
      </trkpt>
      <trkpt lat="44.89394" lon="6.07917">
        <ele>2256.2</ele>
        <time>2024-08-14T07:18:29Z</time>
      </trkpt>
      <trkpt lat="44.89396" lon="6.07918">
        <ele>2255.8</ele>
        <time>2024-08-14T07:18:30Z</time>
      </trkpt>
      <trkpt lat="44.89396" lon="6.07918">
        <ele>2255.6</ele>
        <time>2024-08-14T07:18:31Z</time>
      </trkpt>
      <trkpt lat="44.89399" lon="6.07918">
        <ele>2255.4</ele>
        <time>2024-08-14T07:18:32Z</time>
      </trkpt>
      <trkpt lat="44.89399" lon="6.07918">
        <ele>2255</ele>
        <time>2024-08-14T07:18:33Z</time>
      </trkpt>
      <trkpt lat="44.89401" lon="6.07917">
        <ele>2254.8</ele>
        <time>2024-08-14T07:18:34Z</time>
      </trkpt>
      <trkpt lat="44.89401" lon="6.07917">
        <ele>2254.2</ele>
        <time>2024-08-14T07:18:35Z</time>
      </trkpt>
      <trkpt lat="44.89404" lon="6.07917">
        <ele>2254</ele>
        <time>2024-08-14T07:18:36Z</time>
      </trkpt>
      <trkpt lat="44.89404" lon="6.07917">
        <ele>2253.6</ele>
        <time>2024-08-14T07:18:37Z</time>
      </trkpt>
      <trkpt lat="44.89406" lon="6.07917">
        <ele>2253.6</ele>
        <time>2024-08-14T07:18:38Z</time>
      </trkpt>
      <trkpt lat="44.89406" lon="6.07917">
        <ele>2253.2</ele>
        <time>2024-08-14T07:18:39Z</time>
      </trkpt>
      <trkpt lat="44.89409" lon="6.07917">
        <ele>2252.8</ele>
        <time>2024-08-14T07:18:40Z</time>
      </trkpt>
      <trkpt lat="44.89409" lon="6.07917">
        <ele>2252.4</ele>
        <time>2024-08-14T07:18:41Z</time>
      </trkpt>
      <trkpt lat="44.89411" lon="6.07917">
        <ele>2252.4</ele>
        <time>2024-08-14T07:18:42Z</time>
      </trkpt>
      <trkpt lat="44.89411" lon="6.07917">
        <ele>2252.2</ele>
        <time>2024-08-14T07:18:43Z</time>
      </trkpt>
      <trkpt lat="44.89413" lon="6.07916">
        <ele>2251.8</ele>
        <time>2024-08-14T07:18:44Z</time>
      </trkpt>
      <trkpt lat="44.89413" lon="6.07916">
        <ele>2251.2</ele>
        <time>2024-08-14T07:18:45Z</time>
      </trkpt>
      <trkpt lat="44.89415" lon="6.07916">
        <ele>2250.8</ele>
        <time>2024-08-14T07:18:46Z</time>
      </trkpt>
      <trkpt lat="44.89415" lon="6.07916">
        <ele>2250.4</ele>
        <time>2024-08-14T07:18:47Z</time>
      </trkpt>
      <trkpt lat="44.89415" lon="6.07916">
        <ele>2250.2</ele>
        <time>2024-08-14T07:18:48Z</time>
      </trkpt>
      <trkpt lat="44.89418" lon="6.07915">
        <ele>2250.2</ele>
        <time>2024-08-14T07:18:49Z</time>
      </trkpt>
      <trkpt lat="44.89418" lon="6.07915">
        <ele>2249.6</ele>
        <time>2024-08-14T07:18:50Z</time>
      </trkpt>
      <trkpt lat="44.8942" lon="6.07915">
        <ele>2249</ele>
        <time>2024-08-14T07:18:51Z</time>
      </trkpt>
      <trkpt lat="44.8942" lon="6.07915">
        <ele>2248.6</ele>
        <time>2024-08-14T07:18:52Z</time>
      </trkpt>
      <trkpt lat="44.8942" lon="6.07915">
        <ele>2248.6</ele>
        <time>2024-08-14T07:18:53Z</time>
      </trkpt>
      <trkpt lat="44.89422" lon="6.07915">
        <ele>2248</ele>
        <time>2024-08-14T07:18:54Z</time>
      </trkpt>
      <trkpt lat="44.89422" lon="6.07915">
        <ele>2247.4</ele>
        <time>2024-08-14T07:18:55Z</time>
      </trkpt>
      <trkpt lat="44.89422" lon="6.07915">
        <ele>2246.8</ele>
        <time>2024-08-14T07:18:56Z</time>
      </trkpt>
      <trkpt lat="44.8942" lon="6.07912">
        <ele>2246.4</ele>
        <time>2024-08-14T07:18:57Z</time>
      </trkpt>
      <trkpt lat="44.8942" lon="6.07912">
        <ele>2246.2</ele>
        <time>2024-08-14T07:18:58Z</time>
      </trkpt>
      <trkpt lat="44.89419" lon="6.07909">
        <ele>2245.8</ele>
        <time>2024-08-14T07:18:59Z</time>
      </trkpt>
      <trkpt lat="44.89419" lon="6.07909">
        <ele>2245.4</ele>
        <time>2024-08-14T07:19:00Z</time>
      </trkpt>
      <trkpt lat="44.89417" lon="6.07907">
        <ele>2245</ele>
        <time>2024-08-14T07:19:01Z</time>
      </trkpt>
      <trkpt lat="44.89417" lon="6.07907">
        <ele>2244.2</ele>
        <time>2024-08-14T07:19:02Z</time>
      </trkpt>
      <trkpt lat="44.89414" lon="6.07905">
        <ele>2244.2</ele>
        <time>2024-08-14T07:19:03Z</time>
      </trkpt>
      <trkpt lat="44.89414" lon="6.07905">
        <ele>2244.2</ele>
        <time>2024-08-14T07:19:04Z</time>
      </trkpt>
      <trkpt lat="44.89411" lon="6.07903">
        <ele>2244</ele>
        <time>2024-08-14T07:19:05Z</time>
      </trkpt>
      <trkpt lat="44.89411" lon="6.07903">
        <ele>2244</ele>
        <time>2024-08-14T07:19:06Z</time>
      </trkpt>
      <trkpt lat="44.89409" lon="6.079">
        <ele>2243.4</ele>
        <time>2024-08-14T07:19:07Z</time>
      </trkpt>
      <trkpt lat="44.89409" lon="6.079">
        <ele>2243</ele>
        <time>2024-08-14T07:19:08Z</time>
      </trkpt>
      <trkpt lat="44.89407" lon="6.07898">
        <ele>2243</ele>
        <time>2024-08-14T07:19:09Z</time>
      </trkpt>
      <trkpt lat="44.89407" lon="6.07898">
        <ele>2243</ele>
        <time>2024-08-14T07:19:10Z</time>
      </trkpt>
      <trkpt lat="44.89405" lon="6.07896">
        <ele>2242.6</ele>
        <time>2024-08-14T07:19:11Z</time>
      </trkpt>
      <trkpt lat="44.89405" lon="6.07896">
        <ele>2242.4</ele>
        <time>2024-08-14T07:19:12Z</time>
      </trkpt>
      <trkpt lat="44.89403" lon="6.07893">
        <ele>2242.2</ele>
        <time>2024-08-14T07:19:13Z</time>
      </trkpt>
      <trkpt lat="44.89403" lon="6.07893">
        <ele>2242.2</ele>
        <time>2024-08-14T07:19:14Z</time>
      </trkpt>
      <trkpt lat="44.89401" lon="6.07891">
        <ele>2242</ele>
        <time>2024-08-14T07:19:15Z</time>
      </trkpt>
      <trkpt lat="44.89401" lon="6.07891">
        <ele>2241.8</ele>
        <time>2024-08-14T07:19:16Z</time>
      </trkpt>
      <trkpt lat="44.89398" lon="6.07888">
        <ele>2241.2</ele>
        <time>2024-08-14T07:19:17Z</time>
      </trkpt>
      <trkpt lat="44.89398" lon="6.07888">
        <ele>2241.2</ele>
        <time>2024-08-14T07:19:18Z</time>
      </trkpt>
      <trkpt lat="44.89396" lon="6.07886">
        <ele>2240.8</ele>
        <time>2024-08-14T07:19:19Z</time>
      </trkpt>
      <trkpt lat="44.89396" lon="6.07886">
        <ele>2240.8</ele>
        <time>2024-08-14T07:19:20Z</time>
      </trkpt>
      <trkpt lat="44.89394" lon="6.07884">
        <ele>2240.4</ele>
        <time>2024-08-14T07:19:21Z</time>
      </trkpt>
      <trkpt lat="44.89394" lon="6.07884">
        <ele>2240.4</ele>
        <time>2024-08-14T07:19:22Z</time>
      </trkpt>
      <trkpt lat="44.89391" lon="6.07881">
        <ele>2240.4</ele>
        <time>2024-08-14T07:19:23Z</time>
      </trkpt>
      <trkpt lat="44.89391" lon="6.07881">
        <ele>2240.2</ele>
        <time>2024-08-14T07:19:24Z</time>
      </trkpt>
      <trkpt lat="44.89389" lon="6.0788">
        <ele>2239.8</ele>
        <time>2024-08-14T07:19:25Z</time>
      </trkpt>
      <trkpt lat="44.89389" lon="6.0788">
        <ele>2239.8</ele>
        <time>2024-08-14T07:19:26Z</time>
      </trkpt>
      <trkpt lat="44.89386" lon="6.07877">
        <ele>2239.8</ele>
        <time>2024-08-14T07:19:27Z</time>
      </trkpt>
      <trkpt lat="44.89386" lon="6.07877">
        <ele>2239.8</ele>
        <time>2024-08-14T07:19:28Z</time>
      </trkpt>
      <trkpt lat="44.89385" lon="6.07874">
        <ele>2239.8</ele>
        <time>2024-08-14T07:19:29Z</time>
      </trkpt>
      <trkpt lat="44.89384" lon="6.07872">
        <ele>2239.6</ele>
        <time>2024-08-14T07:19:30Z</time>
      </trkpt>
      <trkpt lat="44.89384" lon="6.07872">
        <ele>2239.2</ele>
        <time>2024-08-14T07:19:31Z</time>
      </trkpt>
      <trkpt lat="44.89382" lon="6.07869">
        <ele>2238.8</ele>
        <time>2024-08-14T07:19:32Z</time>
      </trkpt>
      <trkpt lat="44.89382" lon="6.07869">
        <ele>2238.4</ele>
        <time>2024-08-14T07:19:33Z</time>
      </trkpt>
      <trkpt lat="44.8938" lon="6.07866">
        <ele>2238.4</ele>
        <time>2024-08-14T07:19:34Z</time>
      </trkpt>
      <trkpt lat="44.8938" lon="6.07866">
        <ele>2238.2</ele>
        <time>2024-08-14T07:19:35Z</time>
      </trkpt>
      <trkpt lat="44.89379" lon="6.07863">
        <ele>2238.2</ele>
        <time>2024-08-14T07:19:36Z</time>
      </trkpt>
      <trkpt lat="44.89379" lon="6.07863">
        <ele>2237.8</ele>
        <time>2024-08-14T07:19:37Z</time>
      </trkpt>
      <trkpt lat="44.89378" lon="6.07859">
        <ele>2237.6</ele>
        <time>2024-08-14T07:19:38Z</time>
      </trkpt>
      <trkpt lat="44.89378" lon="6.07859">
        <ele>2237.4</ele>
        <time>2024-08-14T07:19:39Z</time>
      </trkpt>
      <trkpt lat="44.89377" lon="6.07856">
        <ele>2237.2</ele>
        <time>2024-08-14T07:19:40Z</time>
      </trkpt>
      <trkpt lat="44.89377" lon="6.07856">
        <ele>2236.8</ele>
        <time>2024-08-14T07:19:41Z</time>
      </trkpt>
      <trkpt lat="44.89376" lon="6.07853">
        <ele>2236.6</ele>
        <time>2024-08-14T07:19:42Z</time>
      </trkpt>
      <trkpt lat="44.89376" lon="6.07853">
        <ele>2236.4</ele>
        <time>2024-08-14T07:19:43Z</time>
      </trkpt>
      <trkpt lat="44.89374" lon="6.07849">
        <ele>2236.2</ele>
        <time>2024-08-14T07:19:44Z</time>
      </trkpt>
      <trkpt lat="44.89374" lon="6.07849">
        <ele>2235.8</ele>
        <time>2024-08-14T07:19:45Z</time>
      </trkpt>
      <trkpt lat="44.89373" lon="6.07845">
        <ele>2235.6</ele>
        <time>2024-08-14T07:19:46Z</time>
      </trkpt>
      <trkpt lat="44.89373" lon="6.07845">
        <ele>2235.6</ele>
        <time>2024-08-14T07:19:47Z</time>
      </trkpt>
      <trkpt lat="44.89373" lon="6.07842">
        <ele>2235.2</ele>
        <time>2024-08-14T07:19:48Z</time>
      </trkpt>
      <trkpt lat="44.89373" lon="6.07842">
        <ele>2235.2</ele>
        <time>2024-08-14T07:19:49Z</time>
      </trkpt>
      <trkpt lat="44.89373" lon="6.07838">
        <ele>2234.8</ele>
        <time>2024-08-14T07:19:50Z</time>
      </trkpt>
      <trkpt lat="44.89373" lon="6.07838">
        <ele>2234.8</ele>
        <time>2024-08-14T07:19:51Z</time>
      </trkpt>
      <trkpt lat="44.89373" lon="6.07835">
        <ele>2234.6</ele>
        <time>2024-08-14T07:19:52Z</time>
      </trkpt>
      <trkpt lat="44.89373" lon="6.07835">
        <ele>2234.4</ele>
        <time>2024-08-14T07:19:53Z</time>
      </trkpt>
      <trkpt lat="44.89372" lon="6.07831">
        <ele>2234.2</ele>
        <time>2024-08-14T07:19:54Z</time>
      </trkpt>
      <trkpt lat="44.89372" lon="6.07831">
        <ele>2234</ele>
        <time>2024-08-14T07:19:55Z</time>
      </trkpt>
      <trkpt lat="44.89372" lon="6.07828">
        <ele>2233.4</ele>
        <time>2024-08-14T07:19:56Z</time>
      </trkpt>
      <trkpt lat="44.89372" lon="6.07828">
        <ele>2233.2</ele>
        <time>2024-08-14T07:19:57Z</time>
      </trkpt>
      <trkpt lat="44.8937" lon="6.07824">
        <ele>2232.8</ele>
        <time>2024-08-14T07:19:58Z</time>
      </trkpt>
      <trkpt lat="44.8937" lon="6.07824">
        <ele>2232.8</ele>
        <time>2024-08-14T07:19:59Z</time>
      </trkpt>
      <trkpt lat="44.8937" lon="6.0782">
        <ele>2232.6</ele>
        <time>2024-08-14T07:20:00Z</time>
      </trkpt>
      <trkpt lat="44.8937" lon="6.0782">
        <ele>2232.2</ele>
        <time>2024-08-14T07:20:01Z</time>
      </trkpt>
      <trkpt lat="44.8937" lon="6.07817">
        <ele>2231.8</ele>
        <time>2024-08-14T07:20:02Z</time>
      </trkpt>
      <trkpt lat="44.8937" lon="6.07817">
        <ele>2231.8</ele>
        <time>2024-08-14T07:20:03Z</time>
      </trkpt>
      <trkpt lat="44.89368" lon="6.07814">
        <ele>2231.4</ele>
        <time>2024-08-14T07:20:04Z</time>
      </trkpt>
      <trkpt lat="44.89368" lon="6.07814">
        <ele>2231.2</ele>
        <time>2024-08-14T07:20:05Z</time>
      </trkpt>
      <trkpt lat="44.89368" lon="6.0781">
        <ele>2231</ele>
        <time>2024-08-14T07:20:06Z</time>
      </trkpt>
      <trkpt lat="44.89368" lon="6.0781">
        <ele>2230.8</ele>
        <time>2024-08-14T07:20:07Z</time>
      </trkpt>
      <trkpt lat="44.89366" lon="6.07806">
        <ele>2230.6</ele>
        <time>2024-08-14T07:20:08Z</time>
      </trkpt>
      <trkpt lat="44.89366" lon="6.07806">
        <ele>2230.4</ele>
        <time>2024-08-14T07:20:09Z</time>
      </trkpt>
      <trkpt lat="44.89366" lon="6.07803">
        <ele>2230</ele>
        <time>2024-08-14T07:20:10Z</time>
      </trkpt>
      <trkpt lat="44.89366" lon="6.07803">
        <ele>2229.8</ele>
        <time>2024-08-14T07:20:11Z</time>
      </trkpt>
      <trkpt lat="44.89366" lon="6.078">
        <ele>2229.6</ele>
        <time>2024-08-14T07:20:12Z</time>
      </trkpt>
      <trkpt lat="44.89366" lon="6.078">
        <ele>2229.4</ele>
        <time>2024-08-14T07:20:13Z</time>
      </trkpt>
      <trkpt lat="44.89368" lon="6.078">
        <ele>2228.8</ele>
        <time>2024-08-14T07:20:14Z</time>
      </trkpt>
      <trkpt lat="44.89368" lon="6.078">
        <ele>2228.8</ele>
        <time>2024-08-14T07:20:15Z</time>
      </trkpt>
      <trkpt lat="44.8937" lon="6.07803">
        <ele>2228.6</ele>
        <time>2024-08-14T07:20:16Z</time>
      </trkpt>
      <trkpt lat="44.8937" lon="6.07803">
        <ele>2228.6</ele>
        <time>2024-08-14T07:20:17Z</time>
      </trkpt>
      <trkpt lat="44.89372" lon="6.07806">
        <ele>2228</ele>
        <time>2024-08-14T07:20:18Z</time>
      </trkpt>
      <trkpt lat="44.89372" lon="6.07806">
        <ele>2227.8</ele>
        <time>2024-08-14T07:20:19Z</time>
      </trkpt>
      <trkpt lat="44.89374" lon="6.07807">
        <ele>2227.6</ele>
        <time>2024-08-14T07:20:20Z</time>
      </trkpt>
      <trkpt lat="44.89374" lon="6.07807">
        <ele>2227.4</ele>
        <time>2024-08-14T07:20:21Z</time>
      </trkpt>
      <trkpt lat="44.89377" lon="6.07809">
        <ele>2227.4</ele>
        <time>2024-08-14T07:20:22Z</time>
      </trkpt>
      <trkpt lat="44.89377" lon="6.07809">
        <ele>2227.4</ele>
        <time>2024-08-14T07:20:23Z</time>
      </trkpt>
      <trkpt lat="44.8938" lon="6.0781">
        <ele>2227</ele>
        <time>2024-08-14T07:20:24Z</time>
      </trkpt>
      <trkpt lat="44.8938" lon="6.0781">
        <ele>2226.8</ele>
        <time>2024-08-14T07:20:25Z</time>
      </trkpt>
      <trkpt lat="44.89382" lon="6.07813">
        <ele>2226.6</ele>
        <time>2024-08-14T07:20:26Z</time>
      </trkpt>
      <trkpt lat="44.89382" lon="6.07813">
        <ele>2226.2</ele>
        <time>2024-08-14T07:20:27Z</time>
      </trkpt>
      <trkpt lat="44.89383" lon="6.07816">
        <ele>2226.2</ele>
        <time>2024-08-14T07:20:28Z</time>
      </trkpt>
      <trkpt lat="44.89383" lon="6.07816">
        <ele>2225.8</ele>
        <time>2024-08-14T07:20:29Z</time>
      </trkpt>
      <trkpt lat="44.89385" lon="6.07819">
        <ele>2225.4</ele>
        <time>2024-08-14T07:20:30Z</time>
      </trkpt>
      <trkpt lat="44.89385" lon="6.07819">
        <ele>2225.2</ele>
        <time>2024-08-14T07:20:31Z</time>
      </trkpt>
      <trkpt lat="44.89387" lon="6.07822">
        <ele>2225.2</ele>
        <time>2024-08-14T07:20:32Z</time>
      </trkpt>
      <trkpt lat="44.89387" lon="6.07822">
        <ele>2224.8</ele>
        <time>2024-08-14T07:20:33Z</time>
      </trkpt>
      <trkpt lat="44.89388" lon="6.07826">
        <ele>2224.6</ele>
        <time>2024-08-14T07:20:34Z</time>
      </trkpt>
      <trkpt lat="44.89388" lon="6.07826">
        <ele>2224.6</ele>
        <time>2024-08-14T07:20:35Z</time>
      </trkpt>
      <trkpt lat="44.8939" lon="6.07827">
        <ele>2224.4</ele>
        <time>2024-08-14T07:20:36Z</time>
      </trkpt>
      <trkpt lat="44.8939" lon="6.07827">
        <ele>2224.4</ele>
        <time>2024-08-14T07:20:37Z</time>
      </trkpt>
      <trkpt lat="44.89392" lon="6.07828">
        <ele>2224.4</ele>
        <time>2024-08-14T07:20:38Z</time>
      </trkpt>
      <trkpt lat="44.89392" lon="6.07828">
        <ele>2224.2</ele>
        <time>2024-08-14T07:20:39Z</time>
      </trkpt>
      <trkpt lat="44.89395" lon="6.07829">
        <ele>2223.8</ele>
        <time>2024-08-14T07:20:40Z</time>
      </trkpt>
      <trkpt lat="44.89395" lon="6.07829">
        <ele>2223.4</ele>
        <time>2024-08-14T07:20:41Z</time>
      </trkpt>
      <trkpt lat="44.89397" lon="6.07831">
        <ele>2223.4</ele>
        <time>2024-08-14T07:20:42Z</time>
      </trkpt>
      <trkpt lat="44.89397" lon="6.07831">
        <ele>2223.2</ele>
        <time>2024-08-14T07:20:43Z</time>
      </trkpt>
      <trkpt lat="44.89398" lon="6.07834">
        <ele>2222.8</ele>
        <time>2024-08-14T07:20:44Z</time>
      </trkpt>
      <trkpt lat="44.89398" lon="6.07834">
        <ele>2222.8</ele>
        <time>2024-08-14T07:20:45Z</time>
      </trkpt>
      <trkpt lat="44.894" lon="6.07836">
        <ele>2222.4</ele>
        <time>2024-08-14T07:20:46Z</time>
      </trkpt>
      <trkpt lat="44.894" lon="6.07836">
        <ele>2222</ele>
        <time>2024-08-14T07:20:47Z</time>
      </trkpt>
      <trkpt lat="44.89403" lon="6.07837">
        <ele>2221.8</ele>
        <time>2024-08-14T07:20:48Z</time>
      </trkpt>
      <trkpt lat="44.89403" lon="6.07837">
        <ele>2221.8</ele>
        <time>2024-08-14T07:20:49Z</time>
      </trkpt>
      <trkpt lat="44.89405" lon="6.07839">
        <ele>2221.8</ele>
        <time>2024-08-14T07:20:50Z</time>
      </trkpt>
      <trkpt lat="44.89405" lon="6.07839">
        <ele>2221.4</ele>
        <time>2024-08-14T07:20:51Z</time>
      </trkpt>
      <trkpt lat="44.89407" lon="6.07841">
        <ele>2221.4</ele>
        <time>2024-08-14T07:20:52Z</time>
      </trkpt>
      <trkpt lat="44.89407" lon="6.07841">
        <ele>2221.4</ele>
        <time>2024-08-14T07:20:53Z</time>
      </trkpt>
      <trkpt lat="44.89409" lon="6.07843">
        <ele>2221.2</ele>
        <time>2024-08-14T07:20:54Z</time>
      </trkpt>
      <trkpt lat="44.89409" lon="6.07843">
        <ele>2220.6</ele>
        <time>2024-08-14T07:20:55Z</time>
      </trkpt>
      <trkpt lat="44.89412" lon="6.07844">
        <ele>2220.2</ele>
        <time>2024-08-14T07:20:56Z</time>
      </trkpt>
      <trkpt lat="44.89412" lon="6.07844">
        <ele>2220.2</ele>
        <time>2024-08-14T07:20:57Z</time>
      </trkpt>
      <trkpt lat="44.89414" lon="6.07845">
        <ele>2219.8</ele>
        <time>2024-08-14T07:20:58Z</time>
      </trkpt>
      <trkpt lat="44.89414" lon="6.07845">
        <ele>2219.6</ele>
        <time>2024-08-14T07:20:59Z</time>
      </trkpt>
      <trkpt lat="44.89417" lon="6.07846">
        <ele>2219.4</ele>
        <time>2024-08-14T07:21:00Z</time>
      </trkpt>
      <trkpt lat="44.89417" lon="6.07846">
        <ele>2219.4</ele>
        <time>2024-08-14T07:21:01Z</time>
      </trkpt>
      <trkpt lat="44.89419" lon="6.07847">
        <ele>2219</ele>
        <time>2024-08-14T07:21:02Z</time>
      </trkpt>
      <trkpt lat="44.89419" lon="6.07847">
        <ele>2218.6</ele>
        <time>2024-08-14T07:21:03Z</time>
      </trkpt>
      <trkpt lat="44.89421" lon="6.07848">
        <ele>2218.4</ele>
        <time>2024-08-14T07:21:04Z</time>
      </trkpt>
      <trkpt lat="44.89421" lon="6.07848">
        <ele>2218.2</ele>
        <time>2024-08-14T07:21:05Z</time>
      </trkpt>
      <trkpt lat="44.89423" lon="6.07848">
        <ele>2218.2</ele>
        <time>2024-08-14T07:21:06Z</time>
      </trkpt>
      <trkpt lat="44.89423" lon="6.07848">
        <ele>2217.8</ele>
        <time>2024-08-14T07:21:07Z</time>
      </trkpt>
      <trkpt lat="44.89426" lon="6.07848">
        <ele>2217.4</ele>
        <time>2024-08-14T07:21:08Z</time>
      </trkpt>
      <trkpt lat="44.89426" lon="6.07848">
        <ele>2217</ele>
        <time>2024-08-14T07:21:09Z</time>
      </trkpt>
      <trkpt lat="44.89429" lon="6.07849">
        <ele>2216.6</ele>
        <time>2024-08-14T07:21:10Z</time>
      </trkpt>
      <trkpt lat="44.89429" lon="6.07849">
        <ele>2216.2</ele>
        <time>2024-08-14T07:21:11Z</time>
      </trkpt>
      <trkpt lat="44.89431" lon="6.07851">
        <ele>2216</ele>
        <time>2024-08-14T07:21:12Z</time>
      </trkpt>
      <trkpt lat="44.89431" lon="6.07851">
        <ele>2215.4</ele>
        <time>2024-08-14T07:21:13Z</time>
      </trkpt>
      <trkpt lat="44.89433" lon="6.07852">
        <ele>2215</ele>
        <time>2024-08-14T07:21:14Z</time>
      </trkpt>
      <trkpt lat="44.89433" lon="6.07852">
        <ele>2214.8</ele>
        <time>2024-08-14T07:21:15Z</time>
      </trkpt>
      <trkpt lat="44.89437" lon="6.07852">
        <ele>2214.6</ele>
        <time>2024-08-14T07:21:16Z</time>
      </trkpt>
      <trkpt lat="44.89437" lon="6.07852">
        <ele>2214.4</ele>
        <time>2024-08-14T07:21:17Z</time>
      </trkpt>
      <trkpt lat="44.8944" lon="6.07852">
        <ele>2213.8</ele>
        <time>2024-08-14T07:21:18Z</time>
      </trkpt>
      <trkpt lat="44.8944" lon="6.07852">
        <ele>2213.2</ele>
        <time>2024-08-14T07:21:19Z</time>
      </trkpt>
      <trkpt lat="44.89443" lon="6.07853">
        <ele>2213</ele>
        <time>2024-08-14T07:21:20Z</time>
      </trkpt>
      <trkpt lat="44.89443" lon="6.07853">
        <ele>2213</ele>
        <time>2024-08-14T07:21:21Z</time>
      </trkpt>
      <trkpt lat="44.89445" lon="6.07855">
        <ele>2212.8</ele>
        <time>2024-08-14T07:21:22Z</time>
      </trkpt>
      <trkpt lat="44.89445" lon="6.07855">
        <ele>2212.6</ele>
        <time>2024-08-14T07:21:23Z</time>
      </trkpt>
      <trkpt lat="44.89448" lon="6.07856">
        <ele>2212.2</ele>
        <time>2024-08-14T07:21:24Z</time>
      </trkpt>
      <trkpt lat="44.89448" lon="6.07856">
        <ele>2212</ele>
        <time>2024-08-14T07:21:25Z</time>
      </trkpt>
      <trkpt lat="44.89451" lon="6.07856">
        <ele>2211.8</ele>
        <time>2024-08-14T07:21:26Z</time>
      </trkpt>
      <trkpt lat="44.89451" lon="6.07856">
        <ele>2211.8</ele>
        <time>2024-08-14T07:21:27Z</time>
      </trkpt>
      <trkpt lat="44.89453" lon="6.07857">
        <ele>2211.4</ele>
        <time>2024-08-14T07:21:28Z</time>
      </trkpt>
      <trkpt lat="44.89453" lon="6.07857">
        <ele>2211</ele>
        <time>2024-08-14T07:21:29Z</time>
      </trkpt>
      <trkpt lat="44.89455" lon="6.07858">
        <ele>2210.8</ele>
        <time>2024-08-14T07:21:30Z</time>
      </trkpt>
      <trkpt lat="44.89455" lon="6.07858">
        <ele>2210.4</ele>
        <time>2024-08-14T07:21:31Z</time>
      </trkpt>
      <trkpt lat="44.89457" lon="6.07859">
        <ele>2210</ele>
        <time>2024-08-14T07:21:32Z</time>
      </trkpt>
      <trkpt lat="44.89457" lon="6.07859">
        <ele>2209.8</ele>
        <time>2024-08-14T07:21:33Z</time>
      </trkpt>
      <trkpt lat="44.89459" lon="6.0786">
        <ele>2209</ele>
        <time>2024-08-14T07:21:34Z</time>
      </trkpt>
      <trkpt lat="44.89459" lon="6.0786">
        <ele>2208.4</ele>
        <time>2024-08-14T07:21:35Z</time>
      </trkpt>
      <trkpt lat="44.89462" lon="6.07861">
        <ele>2208.2</ele>
        <time>2024-08-14T07:21:36Z</time>
      </trkpt>
      <trkpt lat="44.89462" lon="6.07861">
        <ele>2207.8</ele>
        <time>2024-08-14T07:21:37Z</time>
      </trkpt>
      <trkpt lat="44.89465" lon="6.07862">
        <ele>2207.2</ele>
        <time>2024-08-14T07:21:38Z</time>
      </trkpt>
      <trkpt lat="44.89465" lon="6.07862">
        <ele>2206.8</ele>
        <time>2024-08-14T07:21:39Z</time>
      </trkpt>
      <trkpt lat="44.89468" lon="6.07864">
        <ele>2206.6</ele>
        <time>2024-08-14T07:21:40Z</time>
      </trkpt>
      <trkpt lat="44.89469" lon="6.07866">
        <ele>2206.2</ele>
        <time>2024-08-14T07:21:41Z</time>
      </trkpt>
      <trkpt lat="44.89471" lon="6.07868">
        <ele>2205.8</ele>
        <time>2024-08-14T07:21:42Z</time>
      </trkpt>
      <trkpt lat="44.89472" lon="6.0787">
        <ele>2205.8</ele>
        <time>2024-08-14T07:21:43Z</time>
      </trkpt>
      <trkpt lat="44.89472" lon="6.07871">
        <ele>2205.6</ele>
        <time>2024-08-14T07:21:44Z</time>
      </trkpt>
      <trkpt lat="44.89473" lon="6.07872">
        <ele>2205.2</ele>
        <time>2024-08-14T07:21:45Z</time>
      </trkpt>
      <trkpt lat="44.89473" lon="6.07873">
        <ele>2205.2</ele>
        <time>2024-08-14T07:21:46Z</time>
      </trkpt>
      <trkpt lat="44.89476" lon="6.07876">
        <ele>2205.2</ele>
        <time>2024-08-14T07:21:47Z</time>
      </trkpt>
      <trkpt lat="44.89477" lon="6.07877">
        <ele>2205.8</ele>
        <time>2024-08-14T07:21:48Z</time>
      </trkpt>
      <trkpt lat="44.89477" lon="6.07877">
        <ele>2205.8</ele>
        <time>2024-08-14T07:21:49Z</time>
      </trkpt>
      <trkpt lat="44.8948" lon="6.0788">
        <ele>2205.6</ele>
        <time>2024-08-14T07:21:50Z</time>
      </trkpt>
      <trkpt lat="44.8948" lon="6.0788">
        <ele>2205.4</ele>
        <time>2024-08-14T07:21:51Z</time>
      </trkpt>
      <trkpt lat="44.89482" lon="6.07882">
        <ele>2205.4</ele>
        <time>2024-08-14T07:21:52Z</time>
      </trkpt>
      <trkpt lat="44.89482" lon="6.07882">
        <ele>2205.4</ele>
        <time>2024-08-14T07:21:53Z</time>
      </trkpt>
      <trkpt lat="44.89485" lon="6.07882">
        <ele>2205.4</ele>
        <time>2024-08-14T07:21:54Z</time>
      </trkpt>
      <trkpt lat="44.89485" lon="6.07882">
        <ele>2205.2</ele>
        <time>2024-08-14T07:21:55Z</time>
      </trkpt>
      <trkpt lat="44.89488" lon="6.07883">
        <ele>2204.6</ele>
        <time>2024-08-14T07:21:56Z</time>
      </trkpt>
      <trkpt lat="44.89488" lon="6.07883">
        <ele>2204.6</ele>
        <time>2024-08-14T07:21:57Z</time>
      </trkpt>
      <trkpt lat="44.89491" lon="6.07884">
        <ele>2204.4</ele>
        <time>2024-08-14T07:21:58Z</time>
      </trkpt>
      <trkpt lat="44.89493" lon="6.07884">
        <ele>2204</ele>
        <time>2024-08-14T07:21:59Z</time>
      </trkpt>
      <trkpt lat="44.89493" lon="6.07884">
        <ele>2203.8</ele>
        <time>2024-08-14T07:22:00Z</time>
      </trkpt>
      <trkpt lat="44.89495" lon="6.07885">
        <ele>2203.6</ele>
        <time>2024-08-14T07:22:01Z</time>
      </trkpt>
      <trkpt lat="44.89495" lon="6.07885">
        <ele>2203</ele>
        <time>2024-08-14T07:22:02Z</time>
      </trkpt>
      <trkpt lat="44.89497" lon="6.07885">
        <ele>2203</ele>
        <time>2024-08-14T07:22:03Z</time>
      </trkpt>
      <trkpt lat="44.89497" lon="6.07885">
        <ele>2202.6</ele>
        <time>2024-08-14T07:22:04Z</time>
      </trkpt>
      <trkpt lat="44.895" lon="6.07886">
        <ele>2202.4</ele>
        <time>2024-08-14T07:22:05Z</time>
      </trkpt>
      <trkpt lat="44.895" lon="6.07886">
        <ele>2201.8</ele>
        <time>2024-08-14T07:22:06Z</time>
      </trkpt>
      <trkpt lat="44.89502" lon="6.07889">
        <ele>2201.6</ele>
        <time>2024-08-14T07:22:07Z</time>
      </trkpt>
      <trkpt lat="44.89502" lon="6.07889">
        <ele>2201.4</ele>
        <time>2024-08-14T07:22:08Z</time>
      </trkpt>
      <trkpt lat="44.89504" lon="6.07891">
        <ele>2201.2</ele>
        <time>2024-08-14T07:22:09Z</time>
      </trkpt>
      <trkpt lat="44.89504" lon="6.07891">
        <ele>2200.8</ele>
        <time>2024-08-14T07:22:10Z</time>
      </trkpt>
      <trkpt lat="44.89506" lon="6.07893">
        <ele>2200.4</ele>
        <time>2024-08-14T07:22:11Z</time>
      </trkpt>
      <trkpt lat="44.89506" lon="6.07893">
        <ele>2200.2</ele>
        <time>2024-08-14T07:22:12Z</time>
      </trkpt>
      <trkpt lat="44.89509" lon="6.07895">
        <ele>2200</ele>
        <time>2024-08-14T07:22:13Z</time>
      </trkpt>
      <trkpt lat="44.89509" lon="6.07895">
        <ele>2199.8</ele>
        <time>2024-08-14T07:22:14Z</time>
      </trkpt>
      <trkpt lat="44.89511" lon="6.07896">
        <ele>2199.6</ele>
        <time>2024-08-14T07:22:15Z</time>
      </trkpt>
      <trkpt lat="44.89511" lon="6.07896">
        <ele>2199.2</ele>
        <time>2024-08-14T07:22:16Z</time>
      </trkpt>
      <trkpt lat="44.89514" lon="6.07897">
        <ele>2199.2</ele>
        <time>2024-08-14T07:22:17Z</time>
      </trkpt>
      <trkpt lat="44.89514" lon="6.07897">
        <ele>2199</ele>
        <time>2024-08-14T07:22:18Z</time>
      </trkpt>
      <trkpt lat="44.89517" lon="6.07899">
        <ele>2198.8</ele>
        <time>2024-08-14T07:22:19Z</time>
      </trkpt>
      <trkpt lat="44.89518" lon="6.07901">
        <ele>2198.6</ele>
        <time>2024-08-14T07:22:20Z</time>
      </trkpt>
      <trkpt lat="44.89518" lon="6.07901">
        <ele>2198.4</ele>
        <time>2024-08-14T07:22:21Z</time>
      </trkpt>
      <trkpt lat="44.89519" lon="6.07904">
        <ele>2198.2</ele>
        <time>2024-08-14T07:22:22Z</time>
      </trkpt>
      <trkpt lat="44.89519" lon="6.07904">
        <ele>2197.8</ele>
        <time>2024-08-14T07:22:23Z</time>
      </trkpt>
      <trkpt lat="44.89523" lon="6.07906">
        <ele>2197.8</ele>
        <time>2024-08-14T07:22:24Z</time>
      </trkpt>
      <trkpt lat="44.89523" lon="6.07906">
        <ele>2197.4</ele>
        <time>2024-08-14T07:22:25Z</time>
      </trkpt>
      <trkpt lat="44.89525" lon="6.07908">
        <ele>2197.4</ele>
        <time>2024-08-14T07:22:26Z</time>
      </trkpt>
      <trkpt lat="44.89525" lon="6.07908">
        <ele>2197.2</ele>
        <time>2024-08-14T07:22:27Z</time>
      </trkpt>
      <trkpt lat="44.89528" lon="6.0791">
        <ele>2196.6</ele>
        <time>2024-08-14T07:22:28Z</time>
      </trkpt>
      <trkpt lat="44.89528" lon="6.0791">
        <ele>2196.6</ele>
        <time>2024-08-14T07:22:29Z</time>
      </trkpt>
      <trkpt lat="44.89531" lon="6.07912">
        <ele>2196.4</ele>
        <time>2024-08-14T07:22:30Z</time>
      </trkpt>
      <trkpt lat="44.89533" lon="6.07912">
        <ele>2196.4</ele>
        <time>2024-08-14T07:22:31Z</time>
      </trkpt>
      <trkpt lat="44.89533" lon="6.07912">
        <ele>2196.2</ele>
        <time>2024-08-14T07:22:32Z</time>
      </trkpt>
      <trkpt lat="44.89535" lon="6.07914">
        <ele>2196</ele>
        <time>2024-08-14T07:22:33Z</time>
      </trkpt>
      <trkpt lat="44.89535" lon="6.07914">
        <ele>2195.6</ele>
        <time>2024-08-14T07:22:34Z</time>
      </trkpt>
      <trkpt lat="44.89538" lon="6.07916">
        <ele>2195.6</ele>
        <time>2024-08-14T07:22:35Z</time>
      </trkpt>
      <trkpt lat="44.89538" lon="6.07916">
        <ele>2195.2</ele>
        <time>2024-08-14T07:22:36Z</time>
      </trkpt>
      <trkpt lat="44.89541" lon="6.07917">
        <ele>2194.8</ele>
        <time>2024-08-14T07:22:37Z</time>
      </trkpt>
      <trkpt lat="44.89542" lon="6.07919">
        <ele>2194.2</ele>
        <time>2024-08-14T07:22:38Z</time>
      </trkpt>
      <trkpt lat="44.89542" lon="6.07919">
        <ele>2194</ele>
        <time>2024-08-14T07:22:39Z</time>
      </trkpt>
      <trkpt lat="44.89544" lon="6.07922">
        <ele>2193.8</ele>
        <time>2024-08-14T07:22:40Z</time>
      </trkpt>
      <trkpt lat="44.89544" lon="6.07922">
        <ele>2193.8</ele>
        <time>2024-08-14T07:22:41Z</time>
      </trkpt>
      <trkpt lat="44.89546" lon="6.07925">
        <ele>2193.4</ele>
        <time>2024-08-14T07:22:42Z</time>
      </trkpt>
      <trkpt lat="44.89546" lon="6.07925">
        <ele>2193.4</ele>
        <time>2024-08-14T07:22:43Z</time>
      </trkpt>
      <trkpt lat="44.89548" lon="6.07927">
        <ele>2193.4</ele>
        <time>2024-08-14T07:22:44Z</time>
      </trkpt>
      <trkpt lat="44.89548" lon="6.07927">
        <ele>2193.6</ele>
        <time>2024-08-14T07:22:45Z</time>
      </trkpt>
      <trkpt lat="44.8955" lon="6.07929">
        <ele>2194.2</ele>
        <time>2024-08-14T07:22:46Z</time>
      </trkpt>
      <trkpt lat="44.8955" lon="6.07929">
        <ele>2194.2</ele>
        <time>2024-08-14T07:22:47Z</time>
      </trkpt>
      <trkpt lat="44.89551" lon="6.07931">
        <ele>2193.6</ele>
        <time>2024-08-14T07:22:48Z</time>
      </trkpt>
      <trkpt lat="44.89551" lon="6.07931">
        <ele>2193</ele>
        <time>2024-08-14T07:22:49Z</time>
      </trkpt>
      <trkpt lat="44.89554" lon="6.07932">
        <ele>2192.8</ele>
        <time>2024-08-14T07:22:50Z</time>
      </trkpt>
      <trkpt lat="44.89554" lon="6.07932">
        <ele>2192.4</ele>
        <time>2024-08-14T07:22:51Z</time>
      </trkpt>
      <trkpt lat="44.89556" lon="6.07932">
        <ele>2192</ele>
        <time>2024-08-14T07:22:52Z</time>
      </trkpt>
      <trkpt lat="44.89556" lon="6.07932">
        <ele>2191.6</ele>
        <time>2024-08-14T07:22:53Z</time>
      </trkpt>
      <trkpt lat="44.89558" lon="6.07933">
        <ele>2191</ele>
        <time>2024-08-14T07:22:54Z</time>
      </trkpt>
      <trkpt lat="44.89558" lon="6.07933">
        <ele>2190.6</ele>
        <time>2024-08-14T07:22:55Z</time>
      </trkpt>
      <trkpt lat="44.89561" lon="6.07934">
        <ele>2190.6</ele>
        <time>2024-08-14T07:22:56Z</time>
      </trkpt>
      <trkpt lat="44.89561" lon="6.07934">
        <ele>2190.2</ele>
        <time>2024-08-14T07:22:57Z</time>
      </trkpt>
      <trkpt lat="44.89563" lon="6.07935">
        <ele>2189.4</ele>
        <time>2024-08-14T07:22:58Z</time>
      </trkpt>
      <trkpt lat="44.89563" lon="6.07935">
        <ele>2189.2</ele>
        <time>2024-08-14T07:22:59Z</time>
      </trkpt>
      <trkpt lat="44.89563" lon="6.07935">
        <ele>2189</ele>
        <time>2024-08-14T07:23:00Z</time>
      </trkpt>
      <trkpt lat="44.89563" lon="6.07935">
        <ele>2188.6</ele>
        <time>2024-08-14T07:23:01Z</time>
      </trkpt>
      <trkpt lat="44.89563" lon="6.07935">
        <ele>2188.4</ele>
        <time>2024-08-14T07:23:02Z</time>
      </trkpt>
      <trkpt lat="44.89563" lon="6.07935">
        <ele>2188.4</ele>
        <time>2024-08-14T07:23:03Z</time>
      </trkpt>
      <trkpt lat="44.89563" lon="6.07935">
        <ele>2188.4</ele>
        <time>2024-08-14T07:23:04Z</time>
      </trkpt>
      <trkpt lat="44.89565" lon="6.07936">
        <ele>2188.4</ele>
        <time>2024-08-14T07:23:05Z</time>
      </trkpt>
      <trkpt lat="44.89565" lon="6.07936">
        <ele>2188.2</ele>
        <time>2024-08-14T07:23:06Z</time>
      </trkpt>
      <trkpt lat="44.89568" lon="6.07937">
        <ele>2188.2</ele>
        <time>2024-08-14T07:23:07Z</time>
      </trkpt>
      <trkpt lat="44.8957" lon="6.07938">
        <ele>2187.8</ele>
        <time>2024-08-14T07:23:08Z</time>
      </trkpt>
      <trkpt lat="44.8957" lon="6.07938">
        <ele>2187.6</ele>
        <time>2024-08-14T07:23:09Z</time>
      </trkpt>
      <trkpt lat="44.89572" lon="6.07939">
        <ele>2187.6</ele>
        <time>2024-08-14T07:23:10Z</time>
      </trkpt>
      <trkpt lat="44.89572" lon="6.07939">
        <ele>2187.6</ele>
        <time>2024-08-14T07:23:11Z</time>
      </trkpt>
      <trkpt lat="44.89572" lon="6.07939">
        <ele>2187.8</ele>
        <time>2024-08-14T07:23:12Z</time>
      </trkpt>
      <trkpt lat="44.89572" lon="6.07939">
        <ele>2187.8</ele>
        <time>2024-08-14T07:23:13Z</time>
      </trkpt>
      <trkpt lat="44.89572" lon="6.07939">
        <ele>2187.8</ele>
        <time>2024-08-14T07:23:14Z</time>
      </trkpt>
      <trkpt lat="44.89572" lon="6.07939">
        <ele>2187.8</ele>
        <time>2024-08-14T07:23:15Z</time>
      </trkpt>
      <trkpt lat="44.89572" lon="6.07939">
        <ele>2187.8</ele>
        <time>2024-08-14T07:23:16Z</time>
      </trkpt>
      <trkpt lat="44.89572" lon="6.07939">
        <ele>2187.8</ele>
        <time>2024-08-14T07:23:17Z</time>
      </trkpt>
      <trkpt lat="44.89572" lon="6.07939">
        <ele>2187.8</ele>
        <time>2024-08-14T07:23:18Z</time>
      </trkpt>
      <trkpt lat="44.89572" lon="6.07939">
        <ele>2187.8</ele>
        <time>2024-08-14T07:23:19Z</time>
      </trkpt>
      <trkpt lat="44.89572" lon="6.07939">
        <ele>2187.8</ele>
        <time>2024-08-14T07:23:20Z</time>
      </trkpt>
      <trkpt lat="44.89572" lon="6.07939">
        <ele>2187.8</ele>
        <time>2024-08-14T07:23:21Z</time>
      </trkpt>
      <trkpt lat="44.89572" lon="6.07939">
        <ele>2188</ele>
        <time>2024-08-14T07:23:22Z</time>
      </trkpt>
      <trkpt lat="44.89572" lon="6.07939">
        <ele>2188</ele>
        <time>2024-08-14T07:23:23Z</time>
      </trkpt>
      <trkpt lat="44.89572" lon="6.07939">
        <ele>2188.2</ele>
        <time>2024-08-14T07:23:24Z</time>
      </trkpt>
      <trkpt lat="44.89572" lon="6.07939">
        <ele>2188.2</ele>
        <time>2024-08-14T07:23:25Z</time>
      </trkpt>
      <trkpt lat="44.89572" lon="6.07939">
        <ele>2188</ele>
        <time>2024-08-14T07:23:26Z</time>
      </trkpt>
      <trkpt lat="44.89572" lon="6.07939">
        <ele>2187.6</ele>
        <time>2024-08-14T07:23:27Z</time>
      </trkpt>
      <trkpt lat="44.89572" lon="6.07939">
        <ele>2187.4</ele>
        <time>2024-08-14T07:23:28Z</time>
      </trkpt>
      <trkpt lat="44.89572" lon="6.07939">
        <ele>2187.4</ele>
        <time>2024-08-14T07:23:29Z</time>
      </trkpt>
      <trkpt lat="44.89572" lon="6.07939">
        <ele>2187.4</ele>
        <time>2024-08-14T07:23:30Z</time>
      </trkpt>
      <trkpt lat="44.89572" lon="6.07939">
        <ele>2187.2</ele>
        <time>2024-08-14T07:23:31Z</time>
      </trkpt>
      <trkpt lat="44.89572" lon="6.07939">
        <ele>2187.2</ele>
        <time>2024-08-14T07:23:32Z</time>
      </trkpt>
      <trkpt lat="44.89572" lon="6.07939">
        <ele>2187.2</ele>
        <time>2024-08-14T07:23:33Z</time>
      </trkpt>
      <trkpt lat="44.89572" lon="6.07939">
        <ele>2187.4</ele>
        <time>2024-08-14T07:23:34Z</time>
      </trkpt>
      <trkpt lat="44.89572" lon="6.07939">
        <ele>2187.4</ele>
        <time>2024-08-14T07:23:35Z</time>
      </trkpt>
      <trkpt lat="44.89572" lon="6.07939">
        <ele>2187.4</ele>
        <time>2024-08-14T07:23:36Z</time>
      </trkpt>
      <trkpt lat="44.89572" lon="6.07939">
        <ele>2187.4</ele>
        <time>2024-08-14T07:23:37Z</time>
      </trkpt>
      <trkpt lat="44.89572" lon="6.07939">
        <ele>2187.2</ele>
        <time>2024-08-14T07:23:38Z</time>
      </trkpt>
      <trkpt lat="44.89572" lon="6.07939">
        <ele>2187.2</ele>
        <time>2024-08-14T07:23:39Z</time>
      </trkpt>
      <trkpt lat="44.89572" lon="6.07939">
        <ele>2187.2</ele>
        <time>2024-08-14T07:23:40Z</time>
      </trkpt>
      <trkpt lat="44.89572" lon="6.07939">
        <ele>2187.2</ele>
        <time>2024-08-14T07:23:41Z</time>
      </trkpt>
      <trkpt lat="44.89572" lon="6.07939">
        <ele>2187.6</ele>
        <time>2024-08-14T07:23:42Z</time>
      </trkpt>
      <trkpt lat="44.89572" lon="6.07939">
        <ele>2187.8</ele>
        <time>2024-08-14T07:23:43Z</time>
      </trkpt>
      <trkpt lat="44.89572" lon="6.07939">
        <ele>2187.8</ele>
        <time>2024-08-14T07:23:44Z</time>
      </trkpt>
      <trkpt lat="44.89572" lon="6.07939">
        <ele>2187.6</ele>
        <time>2024-08-14T07:23:45Z</time>
      </trkpt>
      <trkpt lat="44.89572" lon="6.07939">
        <ele>2187.6</ele>
        <time>2024-08-14T07:23:46Z</time>
      </trkpt>
      <trkpt lat="44.89572" lon="6.07939">
        <ele>2187.6</ele>
        <time>2024-08-14T07:23:47Z</time>
      </trkpt>
      <trkpt lat="44.89574" lon="6.0794">
        <ele>2187.2</ele>
        <time>2024-08-14T07:23:48Z</time>
      </trkpt>
      <trkpt lat="44.89574" lon="6.0794">
        <ele>2186.4</ele>
        <time>2024-08-14T07:23:49Z</time>
      </trkpt>
      <trkpt lat="44.89577" lon="6.07942">
        <ele>2186</ele>
        <time>2024-08-14T07:23:50Z</time>
      </trkpt>
      <trkpt lat="44.89579" lon="6.07944">
        <ele>2185.4</ele>
        <time>2024-08-14T07:23:51Z</time>
      </trkpt>
      <trkpt lat="44.8958" lon="6.07945">
        <ele>2185</ele>
        <time>2024-08-14T07:23:52Z</time>
      </trkpt>
      <trkpt lat="44.89582" lon="6.07946">
        <ele>2184.4</ele>
        <time>2024-08-14T07:23:53Z</time>
      </trkpt>
      <trkpt lat="44.89584" lon="6.07947">
        <ele>2184.4</ele>
        <time>2024-08-14T07:23:54Z</time>
      </trkpt>
      <trkpt lat="44.89584" lon="6.07947">
        <ele>2184.2</ele>
        <time>2024-08-14T07:23:55Z</time>
      </trkpt>
      <trkpt lat="44.89586" lon="6.07949">
        <ele>2184.2</ele>
        <time>2024-08-14T07:23:56Z</time>
      </trkpt>
      <trkpt lat="44.89586" lon="6.07949">
        <ele>2184.2</ele>
        <time>2024-08-14T07:23:57Z</time>
      </trkpt>
      <trkpt lat="44.89589" lon="6.07951">
        <ele>2184</ele>
        <time>2024-08-14T07:23:58Z</time>
      </trkpt>
      <trkpt lat="44.89589" lon="6.07951">
        <ele>2183.8</ele>
        <time>2024-08-14T07:23:59Z</time>
      </trkpt>
      <trkpt lat="44.8959" lon="6.07951">
        <ele>2183.8</ele>
        <time>2024-08-14T07:24:00Z</time>
      </trkpt>
      <trkpt lat="44.8959" lon="6.07951">
        <ele>2183.6</ele>
        <time>2024-08-14T07:24:01Z</time>
      </trkpt>
      <trkpt lat="44.8959" lon="6.07951">
        <ele>2183.2</ele>
        <time>2024-08-14T07:24:02Z</time>
      </trkpt>
      <trkpt lat="44.8959" lon="6.07951">
        <ele>2183.2</ele>
        <time>2024-08-14T07:24:03Z</time>
      </trkpt>
      <trkpt lat="44.8959" lon="6.07951">
        <ele>2183.4</ele>
        <time>2024-08-14T07:24:04Z</time>
      </trkpt>
      <trkpt lat="44.8959" lon="6.07951">
        <ele>2183.4</ele>
        <time>2024-08-14T07:24:05Z</time>
      </trkpt>
      <trkpt lat="44.8959" lon="6.07951">
        <ele>2183.4</ele>
        <time>2024-08-14T07:24:06Z</time>
      </trkpt>
      <trkpt lat="44.8959" lon="6.07951">
        <ele>2183.4</ele>
        <time>2024-08-14T07:24:07Z</time>
      </trkpt>
      <trkpt lat="44.8959" lon="6.07951">
        <ele>2183.4</ele>
        <time>2024-08-14T07:24:08Z</time>
      </trkpt>
      <trkpt lat="44.8959" lon="6.07951">
        <ele>2183.6</ele>
        <time>2024-08-14T07:24:09Z</time>
      </trkpt>
      <trkpt lat="44.8959" lon="6.07951">
        <ele>2183.6</ele>
        <time>2024-08-14T07:24:10Z</time>
      </trkpt>
      <trkpt lat="44.8959" lon="6.07951">
        <ele>2183.6</ele>
        <time>2024-08-14T07:24:11Z</time>
      </trkpt>
      <trkpt lat="44.8959" lon="6.07951">
        <ele>2183.8</ele>
        <time>2024-08-14T07:24:12Z</time>
      </trkpt>
      <trkpt lat="44.8959" lon="6.07951">
        <ele>2183.6</ele>
        <time>2024-08-14T07:24:13Z</time>
      </trkpt>
      <trkpt lat="44.8959" lon="6.07951">
        <ele>2183.4</ele>
        <time>2024-08-14T07:24:14Z</time>
      </trkpt>
      <trkpt lat="44.8959" lon="6.07951">
        <ele>2183.4</ele>
        <time>2024-08-14T07:24:15Z</time>
      </trkpt>
      <trkpt lat="44.8959" lon="6.07951">
        <ele>2183.6</ele>
        <time>2024-08-14T07:24:16Z</time>
      </trkpt>
      <trkpt lat="44.8959" lon="6.07951">
        <ele>2183.6</ele>
        <time>2024-08-14T07:24:17Z</time>
      </trkpt>
      <trkpt lat="44.8959" lon="6.07951">
        <ele>2183.6</ele>
        <time>2024-08-14T07:24:18Z</time>
      </trkpt>
      <trkpt lat="44.89591" lon="6.07954">
        <ele>2183.4</ele>
        <time>2024-08-14T07:24:19Z</time>
      </trkpt>
      <trkpt lat="44.89591" lon="6.07954">
        <ele>2183</ele>
        <time>2024-08-14T07:24:20Z</time>
      </trkpt>
      <trkpt lat="44.89593" lon="6.07957">
        <ele>2182.8</ele>
        <time>2024-08-14T07:24:21Z</time>
      </trkpt>
      <trkpt lat="44.89595" lon="6.07959">
        <ele>2182.8</ele>
        <time>2024-08-14T07:24:22Z</time>
      </trkpt>
      <trkpt lat="44.89596" lon="6.07961">
        <ele>2182.4</ele>
        <time>2024-08-14T07:24:23Z</time>
      </trkpt>
      <trkpt lat="44.89598" lon="6.07962">
        <ele>2182.2</ele>
        <time>2024-08-14T07:24:24Z</time>
      </trkpt>
      <trkpt lat="44.896" lon="6.07963">
        <ele>2182</ele>
        <time>2024-08-14T07:24:25Z</time>
      </trkpt>
      <trkpt lat="44.89602" lon="6.07963">
        <ele>2181.6</ele>
        <time>2024-08-14T07:24:26Z</time>
      </trkpt>
      <trkpt lat="44.89602" lon="6.07963">
        <ele>2181.6</ele>
        <time>2024-08-14T07:24:27Z</time>
      </trkpt>
      <trkpt lat="44.89604" lon="6.07961">
        <ele>2181.6</ele>
        <time>2024-08-14T07:24:28Z</time>
      </trkpt>
      <trkpt lat="44.89604" lon="6.07961">
        <ele>2181.6</ele>
        <time>2024-08-14T07:24:29Z</time>
      </trkpt>
      <trkpt lat="44.89604" lon="6.07961">
        <ele>2181.6</ele>
        <time>2024-08-14T07:24:30Z</time>
      </trkpt>
      <trkpt lat="44.89606" lon="6.07959">
        <ele>2181.8</ele>
        <time>2024-08-14T07:24:31Z</time>
      </trkpt>
      <trkpt lat="44.89606" lon="6.07959">
        <ele>2181.8</ele>
        <time>2024-08-14T07:24:32Z</time>
      </trkpt>
      <trkpt lat="44.89607" lon="6.07958">
        <ele>2181.4</ele>
        <time>2024-08-14T07:24:33Z</time>
      </trkpt>
      <trkpt lat="44.89607" lon="6.07958">
        <ele>2181.2</ele>
        <time>2024-08-14T07:24:34Z</time>
      </trkpt>
      <trkpt lat="44.89607" lon="6.07958">
        <ele>2181.2</ele>
        <time>2024-08-14T07:24:35Z</time>
      </trkpt>
      <trkpt lat="44.89607" lon="6.07958">
        <ele>2181.2</ele>
        <time>2024-08-14T07:24:36Z</time>
      </trkpt>
      <trkpt lat="44.89607" lon="6.07958">
        <ele>2181</ele>
        <time>2024-08-14T07:24:37Z</time>
      </trkpt>
      <trkpt lat="44.89607" lon="6.07958">
        <ele>2181</ele>
        <time>2024-08-14T07:24:38Z</time>
      </trkpt>
      <trkpt lat="44.89607" lon="6.07958">
        <ele>2181</ele>
        <time>2024-08-14T07:24:39Z</time>
      </trkpt>
      <trkpt lat="44.89607" lon="6.07958">
        <ele>2181</ele>
        <time>2024-08-14T07:24:40Z</time>
      </trkpt>
      <trkpt lat="44.89607" lon="6.07958">
        <ele>2181.2</ele>
        <time>2024-08-14T07:24:41Z</time>
      </trkpt>
      <trkpt lat="44.89607" lon="6.07958">
        <ele>2181.2</ele>
        <time>2024-08-14T07:24:42Z</time>
      </trkpt>
      <trkpt lat="44.89607" lon="6.07958">
        <ele>2181.2</ele>
        <time>2024-08-14T07:24:43Z</time>
      </trkpt>
      <trkpt lat="44.89607" lon="6.07958">
        <ele>2181</ele>
        <time>2024-08-14T07:24:44Z</time>
      </trkpt>
      <trkpt lat="44.89607" lon="6.07958">
        <ele>2181</ele>
        <time>2024-08-14T07:24:45Z</time>
      </trkpt>
      <trkpt lat="44.89607" lon="6.07958">
        <ele>2181</ele>
        <time>2024-08-14T07:24:46Z</time>
      </trkpt>
      <trkpt lat="44.89609" lon="6.07958">
        <ele>2181</ele>
        <time>2024-08-14T07:24:47Z</time>
      </trkpt>
      <trkpt lat="44.89609" lon="6.07958">
        <ele>2181</ele>
        <time>2024-08-14T07:24:48Z</time>
      </trkpt>
      <trkpt lat="44.89612" lon="6.0796">
        <ele>2180.8</ele>
        <time>2024-08-14T07:24:49Z</time>
      </trkpt>
      <trkpt lat="44.89612" lon="6.0796">
        <ele>2180.6</ele>
        <time>2024-08-14T07:24:50Z</time>
      </trkpt>
      <trkpt lat="44.89614" lon="6.07962">
        <ele>2180.2</ele>
        <time>2024-08-14T07:24:51Z</time>
      </trkpt>
      <trkpt lat="44.89614" lon="6.07962">
        <ele>2180</ele>
        <time>2024-08-14T07:24:52Z</time>
      </trkpt>
      <trkpt lat="44.89616" lon="6.07964">
        <ele>2179.8</ele>
        <time>2024-08-14T07:24:53Z</time>
      </trkpt>
      <trkpt lat="44.89616" lon="6.07964">
        <ele>2179.4</ele>
        <time>2024-08-14T07:24:54Z</time>
      </trkpt>
      <trkpt lat="44.89618" lon="6.07966">
        <ele>2179.2</ele>
        <time>2024-08-14T07:24:55Z</time>
      </trkpt>
      <trkpt lat="44.89618" lon="6.07966">
        <ele>2179.2</ele>
        <time>2024-08-14T07:24:56Z</time>
      </trkpt>
      <trkpt lat="44.89618" lon="6.07966">
        <ele>2179</ele>
        <time>2024-08-14T07:24:57Z</time>
      </trkpt>
      <trkpt lat="44.89618" lon="6.07966">
        <ele>2179</ele>
        <time>2024-08-14T07:24:58Z</time>
      </trkpt>
      <trkpt lat="44.89618" lon="6.07966">
        <ele>2178.6</ele>
        <time>2024-08-14T07:24:59Z</time>
      </trkpt>
      <trkpt lat="44.89618" lon="6.07966">
        <ele>2178.6</ele>
        <time>2024-08-14T07:25:00Z</time>
      </trkpt>
      <trkpt lat="44.89618" lon="6.07966">
        <ele>2178.8</ele>
        <time>2024-08-14T07:25:01Z</time>
      </trkpt>
      <trkpt lat="44.89618" lon="6.07966">
        <ele>2179</ele>
        <time>2024-08-14T07:25:02Z</time>
      </trkpt>
      <trkpt lat="44.89618" lon="6.07966">
        <ele>2179</ele>
        <time>2024-08-14T07:25:03Z</time>
      </trkpt>
      <trkpt lat="44.89618" lon="6.07966">
        <ele>2178.8</ele>
        <time>2024-08-14T07:25:04Z</time>
      </trkpt>
      <trkpt lat="44.89618" lon="6.07966">
        <ele>2178.8</ele>
        <time>2024-08-14T07:25:05Z</time>
      </trkpt>
      <trkpt lat="44.89618" lon="6.07966">
        <ele>2178.6</ele>
        <time>2024-08-14T07:25:06Z</time>
      </trkpt>
      <trkpt lat="44.89618" lon="6.07966">
        <ele>2178.6</ele>
        <time>2024-08-14T07:25:07Z</time>
      </trkpt>
      <trkpt lat="44.89618" lon="6.07966">
        <ele>2178.6</ele>
        <time>2024-08-14T07:25:08Z</time>
      </trkpt>
      <trkpt lat="44.89618" lon="6.07966">
        <ele>2178.4</ele>
        <time>2024-08-14T07:25:09Z</time>
      </trkpt>
      <trkpt lat="44.89618" lon="6.07966">
        <ele>2178.2</ele>
        <time>2024-08-14T07:25:10Z</time>
      </trkpt>
      <trkpt lat="44.89618" lon="6.07966">
        <ele>2178.2</ele>
        <time>2024-08-14T07:25:11Z</time>
      </trkpt>
      <trkpt lat="44.89618" lon="6.07966">
        <ele>2178.2</ele>
        <time>2024-08-14T07:25:12Z</time>
      </trkpt>
      <trkpt lat="44.89618" lon="6.07966">
        <ele>2178.4</ele>
        <time>2024-08-14T07:25:13Z</time>
      </trkpt>
      <trkpt lat="44.89618" lon="6.07966">
        <ele>2178.4</ele>
        <time>2024-08-14T07:25:14Z</time>
      </trkpt>
      <trkpt lat="44.89618" lon="6.07966">
        <ele>2178.2</ele>
        <time>2024-08-14T07:25:15Z</time>
      </trkpt>
      <trkpt lat="44.89618" lon="6.07966">
        <ele>2178.2</ele>
        <time>2024-08-14T07:25:16Z</time>
      </trkpt>
      <trkpt lat="44.89618" lon="6.07966">
        <ele>2178.2</ele>
        <time>2024-08-14T07:25:17Z</time>
      </trkpt>
      <trkpt lat="44.89618" lon="6.07966">
        <ele>2178.2</ele>
        <time>2024-08-14T07:25:18Z</time>
      </trkpt>
      <trkpt lat="44.8962" lon="6.07968">
        <ele>2178.2</ele>
        <time>2024-08-14T07:25:19Z</time>
      </trkpt>
      <trkpt lat="44.8962" lon="6.07968">
        <ele>2178</ele>
        <time>2024-08-14T07:25:20Z</time>
      </trkpt>
      <trkpt lat="44.89622" lon="6.07971">
        <ele>2177.8</ele>
        <time>2024-08-14T07:25:21Z</time>
      </trkpt>
      <trkpt lat="44.89624" lon="6.07972">
        <ele>2177.4</ele>
        <time>2024-08-14T07:25:22Z</time>
      </trkpt>
      <trkpt lat="44.89626" lon="6.07973">
        <ele>2177</ele>
        <time>2024-08-14T07:25:23Z</time>
      </trkpt>
      <trkpt lat="44.89626" lon="6.07973">
        <ele>2176.8</ele>
        <time>2024-08-14T07:25:24Z</time>
      </trkpt>
      <trkpt lat="44.89628" lon="6.07975">
        <ele>2176.4</ele>
        <time>2024-08-14T07:25:25Z</time>
      </trkpt>
      <trkpt lat="44.89628" lon="6.07975">
        <ele>2176.2</ele>
        <time>2024-08-14T07:25:26Z</time>
      </trkpt>
      <trkpt lat="44.89629" lon="6.07978">
        <ele>2176</ele>
        <time>2024-08-14T07:25:27Z</time>
      </trkpt>
      <trkpt lat="44.89629" lon="6.07978">
        <ele>2175.6</ele>
        <time>2024-08-14T07:25:28Z</time>
      </trkpt>
      <trkpt lat="44.89631" lon="6.0798">
        <ele>2175.4</ele>
        <time>2024-08-14T07:25:29Z</time>
      </trkpt>
      <trkpt lat="44.89631" lon="6.0798">
        <ele>2175.2</ele>
        <time>2024-08-14T07:25:30Z</time>
      </trkpt>
      <trkpt lat="44.89633" lon="6.07982">
        <ele>2174.8</ele>
        <time>2024-08-14T07:25:31Z</time>
      </trkpt>
      <trkpt lat="44.89633" lon="6.07982">
        <ele>2174.4</ele>
        <time>2024-08-14T07:25:32Z</time>
      </trkpt>
      <trkpt lat="44.89636" lon="6.07984">
        <ele>2173.6</ele>
        <time>2024-08-14T07:25:33Z</time>
      </trkpt>
      <trkpt lat="44.89636" lon="6.07984">
        <ele>2173</ele>
        <time>2024-08-14T07:25:34Z</time>
      </trkpt>
      <trkpt lat="44.89638" lon="6.07987">
        <ele>2172.6</ele>
        <time>2024-08-14T07:25:35Z</time>
      </trkpt>
      <trkpt lat="44.89638" lon="6.07987">
        <ele>2172.2</ele>
        <time>2024-08-14T07:25:36Z</time>
      </trkpt>
      <trkpt lat="44.8964" lon="6.0799">
        <ele>2172</ele>
        <time>2024-08-14T07:25:37Z</time>
      </trkpt>
      <trkpt lat="44.8964" lon="6.0799">
        <ele>2172</ele>
        <time>2024-08-14T07:25:38Z</time>
      </trkpt>
      <trkpt lat="44.89642" lon="6.07992">
        <ele>2172</ele>
        <time>2024-08-14T07:25:39Z</time>
      </trkpt>
      <trkpt lat="44.89644" lon="6.07994">
        <ele>2171.8</ele>
        <time>2024-08-14T07:25:40Z</time>
      </trkpt>
      <trkpt lat="44.89644" lon="6.07994">
        <ele>2171.4</ele>
        <time>2024-08-14T07:25:41Z</time>
      </trkpt>
      <trkpt lat="44.89646" lon="6.07997">
        <ele>2171.2</ele>
        <time>2024-08-14T07:25:42Z</time>
      </trkpt>
      <trkpt lat="44.89647" lon="6.07998">
        <ele>2171</ele>
        <time>2024-08-14T07:25:43Z</time>
      </trkpt>
      <trkpt lat="44.89647" lon="6.07998">
        <ele>2170.4</ele>
        <time>2024-08-14T07:25:44Z</time>
      </trkpt>
      <trkpt lat="44.8965" lon="6.08001">
        <ele>2170.2</ele>
        <time>2024-08-14T07:25:45Z</time>
      </trkpt>
      <trkpt lat="44.8965" lon="6.08001">
        <ele>2169.4</ele>
        <time>2024-08-14T07:25:46Z</time>
      </trkpt>
      <trkpt lat="44.89652" lon="6.08005">
        <ele>2169.4</ele>
        <time>2024-08-14T07:25:47Z</time>
      </trkpt>
      <trkpt lat="44.89652" lon="6.08005">
        <ele>2169.2</ele>
        <time>2024-08-14T07:25:48Z</time>
      </trkpt>
      <trkpt lat="44.89654" lon="6.08007">
        <ele>2169</ele>
        <time>2024-08-14T07:25:49Z</time>
      </trkpt>
      <trkpt lat="44.89654" lon="6.08007">
        <ele>2168.8</ele>
        <time>2024-08-14T07:25:50Z</time>
      </trkpt>
      <trkpt lat="44.89656" lon="6.0801">
        <ele>2168.6</ele>
        <time>2024-08-14T07:25:51Z</time>
      </trkpt>
      <trkpt lat="44.89656" lon="6.0801">
        <ele>2168.4</ele>
        <time>2024-08-14T07:25:52Z</time>
      </trkpt>
      <trkpt lat="44.89658" lon="6.08012">
        <ele>2168</ele>
        <time>2024-08-14T07:25:53Z</time>
      </trkpt>
      <trkpt lat="44.89658" lon="6.08012">
        <ele>2167.6</ele>
        <time>2024-08-14T07:25:54Z</time>
      </trkpt>
      <trkpt lat="44.89661" lon="6.08013">
        <ele>2167.2</ele>
        <time>2024-08-14T07:25:55Z</time>
      </trkpt>
      <trkpt lat="44.89661" lon="6.08013">
        <ele>2166.8</ele>
        <time>2024-08-14T07:25:56Z</time>
      </trkpt>
      <trkpt lat="44.89663" lon="6.08015">
        <ele>2166.4</ele>
        <time>2024-08-14T07:25:57Z</time>
      </trkpt>
      <trkpt lat="44.89663" lon="6.08015">
        <ele>2166.2</ele>
        <time>2024-08-14T07:25:58Z</time>
      </trkpt>
      <trkpt lat="44.89666" lon="6.08016">
        <ele>2166</ele>
        <time>2024-08-14T07:25:59Z</time>
      </trkpt>
      <trkpt lat="44.89666" lon="6.08016">
        <ele>2165.8</ele>
        <time>2024-08-14T07:26:00Z</time>
      </trkpt>
      <trkpt lat="44.89668" lon="6.08017">
        <ele>2165.6</ele>
        <time>2024-08-14T07:26:01Z</time>
      </trkpt>
      <trkpt lat="44.89668" lon="6.08017">
        <ele>2165.2</ele>
        <time>2024-08-14T07:26:02Z</time>
      </trkpt>
      <trkpt lat="44.89668" lon="6.08017">
        <ele>2165.2</ele>
        <time>2024-08-14T07:26:03Z</time>
      </trkpt>
      <trkpt lat="44.89666" lon="6.08014">
        <ele>2165</ele>
        <time>2024-08-14T07:26:04Z</time>
      </trkpt>
      <trkpt lat="44.89666" lon="6.08014">
        <ele>2164.6</ele>
        <time>2024-08-14T07:26:05Z</time>
      </trkpt>
      <trkpt lat="44.89664" lon="6.08011">
        <ele>2164.6</ele>
        <time>2024-08-14T07:26:06Z</time>
      </trkpt>
      <trkpt lat="44.89664" lon="6.08011">
        <ele>2164.4</ele>
        <time>2024-08-14T07:26:07Z</time>
      </trkpt>
      <trkpt lat="44.89662" lon="6.08008">
        <ele>2164.2</ele>
        <time>2024-08-14T07:26:08Z</time>
      </trkpt>
      <trkpt lat="44.89662" lon="6.08008">
        <ele>2163.8</ele>
        <time>2024-08-14T07:26:09Z</time>
      </trkpt>
      <trkpt lat="44.8966" lon="6.08005">
        <ele>2163.8</ele>
        <time>2024-08-14T07:26:10Z</time>
      </trkpt>
      <trkpt lat="44.8966" lon="6.08005">
        <ele>2163.4</ele>
        <time>2024-08-14T07:26:11Z</time>
      </trkpt>
      <trkpt lat="44.89658" lon="6.08001">
        <ele>2163.4</ele>
        <time>2024-08-14T07:26:12Z</time>
      </trkpt>
      <trkpt lat="44.89658" lon="6.08001">
        <ele>2163.4</ele>
        <time>2024-08-14T07:26:13Z</time>
      </trkpt>
      <trkpt lat="44.89657" lon="6.07997">
        <ele>2162.8</ele>
        <time>2024-08-14T07:26:14Z</time>
      </trkpt>
      <trkpt lat="44.89657" lon="6.07997">
        <ele>2162.6</ele>
        <time>2024-08-14T07:26:15Z</time>
      </trkpt>
      <trkpt lat="44.89656" lon="6.07993">
        <ele>2162.4</ele>
        <time>2024-08-14T07:26:16Z</time>
      </trkpt>
      <trkpt lat="44.89656" lon="6.07993">
        <ele>2162.4</ele>
        <time>2024-08-14T07:26:17Z</time>
      </trkpt>
      <trkpt lat="44.89656" lon="6.0799">
        <ele>2162.2</ele>
        <time>2024-08-14T07:26:18Z</time>
      </trkpt>
      <trkpt lat="44.89656" lon="6.0799">
        <ele>2162</ele>
        <time>2024-08-14T07:26:19Z</time>
      </trkpt>
      <trkpt lat="44.89655" lon="6.07986">
        <ele>2161.8</ele>
        <time>2024-08-14T07:26:20Z</time>
      </trkpt>
      <trkpt lat="44.89655" lon="6.07986">
        <ele>2161.4</ele>
        <time>2024-08-14T07:26:21Z</time>
      </trkpt>
      <trkpt lat="44.89654" lon="6.07983">
        <ele>2161.2</ele>
        <time>2024-08-14T07:26:22Z</time>
      </trkpt>
      <trkpt lat="44.89654" lon="6.07983">
        <ele>2161.2</ele>
        <time>2024-08-14T07:26:23Z</time>
      </trkpt>
      <trkpt lat="44.89653" lon="6.07979">
        <ele>2161</ele>
        <time>2024-08-14T07:26:24Z</time>
      </trkpt>
      <trkpt lat="44.89653" lon="6.07979">
        <ele>2160.6</ele>
        <time>2024-08-14T07:26:25Z</time>
      </trkpt>
      <trkpt lat="44.89652" lon="6.07976">
        <ele>2160.6</ele>
        <time>2024-08-14T07:26:26Z</time>
      </trkpt>
      <trkpt lat="44.89652" lon="6.07976">
        <ele>2160.2</ele>
        <time>2024-08-14T07:26:27Z</time>
      </trkpt>
      <trkpt lat="44.8965" lon="6.07972">
        <ele>2160</ele>
        <time>2024-08-14T07:26:28Z</time>
      </trkpt>
      <trkpt lat="44.8965" lon="6.07972">
        <ele>2159.8</ele>
        <time>2024-08-14T07:26:29Z</time>
      </trkpt>
      <trkpt lat="44.89648" lon="6.07969">
        <ele>2159.8</ele>
        <time>2024-08-14T07:26:30Z</time>
      </trkpt>
      <trkpt lat="44.89648" lon="6.07969">
        <ele>2159.8</ele>
        <time>2024-08-14T07:26:31Z</time>
      </trkpt>
      <trkpt lat="44.89646" lon="6.07966">
        <ele>2159.4</ele>
        <time>2024-08-14T07:26:32Z</time>
      </trkpt>
      <trkpt lat="44.89646" lon="6.07966">
        <ele>2159</ele>
        <time>2024-08-14T07:26:33Z</time>
      </trkpt>
      <trkpt lat="44.89644" lon="6.07963">
        <ele>2158.8</ele>
        <time>2024-08-14T07:26:34Z</time>
      </trkpt>
      <trkpt lat="44.89644" lon="6.07963">
        <ele>2158.8</ele>
        <time>2024-08-14T07:26:35Z</time>
      </trkpt>
      <trkpt lat="44.89641" lon="6.07961">
        <ele>2158.6</ele>
        <time>2024-08-14T07:26:36Z</time>
      </trkpt>
      <trkpt lat="44.89641" lon="6.07961">
        <ele>2158.2</ele>
        <time>2024-08-14T07:26:37Z</time>
      </trkpt>
      <trkpt lat="44.89638" lon="6.07958">
        <ele>2158.2</ele>
        <time>2024-08-14T07:26:38Z</time>
      </trkpt>
      <trkpt lat="44.89638" lon="6.07958">
        <ele>2157.6</ele>
        <time>2024-08-14T07:26:39Z</time>
      </trkpt>
      <trkpt lat="44.89637" lon="6.07955">
        <ele>2157.2</ele>
        <time>2024-08-14T07:26:40Z</time>
      </trkpt>
      <trkpt lat="44.89637" lon="6.07955">
        <ele>2156.8</ele>
        <time>2024-08-14T07:26:41Z</time>
      </trkpt>
      <trkpt lat="44.89636" lon="6.07951">
        <ele>2156.6</ele>
        <time>2024-08-14T07:26:42Z</time>
      </trkpt>
      <trkpt lat="44.89634" lon="6.07949">
        <ele>2156.4</ele>
        <time>2024-08-14T07:26:43Z</time>
      </trkpt>
      <trkpt lat="44.89634" lon="6.07949">
        <ele>2156</ele>
        <time>2024-08-14T07:26:44Z</time>
      </trkpt>
      <trkpt lat="44.89632" lon="6.07946">
        <ele>2155.6</ele>
        <time>2024-08-14T07:26:45Z</time>
      </trkpt>
      <trkpt lat="44.89632" lon="6.07946">
        <ele>2155.6</ele>
        <time>2024-08-14T07:26:46Z</time>
      </trkpt>
      <trkpt lat="44.8963" lon="6.07944">
        <ele>2155.4</ele>
        <time>2024-08-14T07:26:47Z</time>
      </trkpt>
      <trkpt lat="44.8963" lon="6.07944">
        <ele>2155.2</ele>
        <time>2024-08-14T07:26:48Z</time>
      </trkpt>
      <trkpt lat="44.89628" lon="6.07941">
        <ele>2155.2</ele>
        <time>2024-08-14T07:26:49Z</time>
      </trkpt>
      <trkpt lat="44.89628" lon="6.07941">
        <ele>2154.8</ele>
        <time>2024-08-14T07:26:50Z</time>
      </trkpt>
      <trkpt lat="44.89628" lon="6.07941">
        <ele>2154.4</ele>
        <time>2024-08-14T07:26:51Z</time>
      </trkpt>
      <trkpt lat="44.89626" lon="6.07937">
        <ele>2154</ele>
        <time>2024-08-14T07:26:52Z</time>
      </trkpt>
      <trkpt lat="44.89626" lon="6.07937">
        <ele>2154</ele>
        <time>2024-08-14T07:26:53Z</time>
      </trkpt>
      <trkpt lat="44.89626" lon="6.07935">
        <ele>2153.6</ele>
        <time>2024-08-14T07:26:54Z</time>
      </trkpt>
      <trkpt lat="44.89626" lon="6.07935">
        <ele>2153.4</ele>
        <time>2024-08-14T07:26:55Z</time>
      </trkpt>
      <trkpt lat="44.89624" lon="6.07932">
        <ele>2153</ele>
        <time>2024-08-14T07:26:56Z</time>
      </trkpt>
      <trkpt lat="44.89624" lon="6.07932">
        <ele>2152.4</ele>
        <time>2024-08-14T07:26:57Z</time>
      </trkpt>
      <trkpt lat="44.89622" lon="6.07931">
        <ele>2152.2</ele>
        <time>2024-08-14T07:26:58Z</time>
      </trkpt>
      <trkpt lat="44.89622" lon="6.07931">
        <ele>2151.6</ele>
        <time>2024-08-14T07:26:59Z</time>
      </trkpt>
      <trkpt lat="44.89621" lon="6.07928">
        <ele>2151.2</ele>
        <time>2024-08-14T07:27:00Z</time>
      </trkpt>
      <trkpt lat="44.89621" lon="6.07928">
        <ele>2151.2</ele>
        <time>2024-08-14T07:27:01Z</time>
      </trkpt>
      <trkpt lat="44.8962" lon="6.07925">
        <ele>2150.4</ele>
        <time>2024-08-14T07:27:02Z</time>
      </trkpt>
      <trkpt lat="44.8962" lon="6.07925">
        <ele>2150.4</ele>
        <time>2024-08-14T07:27:03Z</time>
      </trkpt>
      <trkpt lat="44.89621" lon="6.07923">
        <ele>2150.2</ele>
        <time>2024-08-14T07:27:04Z</time>
      </trkpt>
      <trkpt lat="44.89621" lon="6.07923">
        <ele>2150</ele>
        <time>2024-08-14T07:27:05Z</time>
      </trkpt>
      <trkpt lat="44.89624" lon="6.07924">
        <ele>2149.8</ele>
        <time>2024-08-14T07:27:06Z</time>
      </trkpt>
      <trkpt lat="44.89624" lon="6.07924">
        <ele>2149.4</ele>
        <time>2024-08-14T07:27:07Z</time>
      </trkpt>
      <trkpt lat="44.89627" lon="6.07926">
        <ele>2149</ele>
        <time>2024-08-14T07:27:08Z</time>
      </trkpt>
      <trkpt lat="44.89627" lon="6.07926">
        <ele>2148.8</ele>
        <time>2024-08-14T07:27:09Z</time>
      </trkpt>
      <trkpt lat="44.89629" lon="6.07928">
        <ele>2148.6</ele>
        <time>2024-08-14T07:27:10Z</time>
      </trkpt>
      <trkpt lat="44.89629" lon="6.07928">
        <ele>2148.6</ele>
        <time>2024-08-14T07:27:11Z</time>
      </trkpt>
      <trkpt lat="44.89631" lon="6.0793">
        <ele>2148.6</ele>
        <time>2024-08-14T07:27:12Z</time>
      </trkpt>
      <trkpt lat="44.89631" lon="6.0793">
        <ele>2148.8</ele>
        <time>2024-08-14T07:27:13Z</time>
      </trkpt>
      <trkpt lat="44.89634" lon="6.07929">
        <ele>2148.8</ele>
        <time>2024-08-14T07:27:14Z</time>
      </trkpt>
      <trkpt lat="44.89634" lon="6.07929">
        <ele>2148.6</ele>
        <time>2024-08-14T07:27:15Z</time>
      </trkpt>
      <trkpt lat="44.89636" lon="6.07929">
        <ele>2148.4</ele>
        <time>2024-08-14T07:27:16Z</time>
      </trkpt>
      <trkpt lat="44.89636" lon="6.07929">
        <ele>2148</ele>
        <time>2024-08-14T07:27:17Z</time>
      </trkpt>
      <trkpt lat="44.89638" lon="6.0793">
        <ele>2147.8</ele>
        <time>2024-08-14T07:27:18Z</time>
      </trkpt>
      <trkpt lat="44.89638" lon="6.0793">
        <ele>2147.8</ele>
        <time>2024-08-14T07:27:19Z</time>
      </trkpt>
      <trkpt lat="44.89641" lon="6.07931">
        <ele>2147.2</ele>
        <time>2024-08-14T07:27:20Z</time>
      </trkpt>
      <trkpt lat="44.89641" lon="6.07931">
        <ele>2147</ele>
        <time>2024-08-14T07:27:21Z</time>
      </trkpt>
      <trkpt lat="44.89643" lon="6.07932">
        <ele>2146.8</ele>
        <time>2024-08-14T07:27:22Z</time>
      </trkpt>
      <trkpt lat="44.89643" lon="6.07932">
        <ele>2146.6</ele>
        <time>2024-08-14T07:27:23Z</time>
      </trkpt>
      <trkpt lat="44.89645" lon="6.07933">
        <ele>2146.4</ele>
        <time>2024-08-14T07:27:24Z</time>
      </trkpt>
      <trkpt lat="44.89645" lon="6.07933">
        <ele>2146.2</ele>
        <time>2024-08-14T07:27:25Z</time>
      </trkpt>
      <trkpt lat="44.89648" lon="6.07934">
        <ele>2146</ele>
        <time>2024-08-14T07:27:26Z</time>
      </trkpt>
      <trkpt lat="44.89648" lon="6.07934">
        <ele>2146</ele>
        <time>2024-08-14T07:27:27Z</time>
      </trkpt>
      <trkpt lat="44.8965" lon="6.07936">
        <ele>2145.6</ele>
        <time>2024-08-14T07:27:28Z</time>
      </trkpt>
      <trkpt lat="44.8965" lon="6.07936">
        <ele>2145.6</ele>
        <time>2024-08-14T07:27:29Z</time>
      </trkpt>
      <trkpt lat="44.8965" lon="6.07936">
        <ele>2145.2</ele>
        <time>2024-08-14T07:27:30Z</time>
      </trkpt>
      <trkpt lat="44.89653" lon="6.07937">
        <ele>2145</ele>
        <time>2024-08-14T07:27:31Z</time>
      </trkpt>
      <trkpt lat="44.89653" lon="6.07937">
        <ele>2145</ele>
        <time>2024-08-14T07:27:32Z</time>
      </trkpt>
      <trkpt lat="44.89655" lon="6.07937">
        <ele>2144.6</ele>
        <time>2024-08-14T07:27:33Z</time>
      </trkpt>
      <trkpt lat="44.89655" lon="6.07937">
        <ele>2144.2</ele>
        <time>2024-08-14T07:27:34Z</time>
      </trkpt>
      <trkpt lat="44.89655" lon="6.07937">
        <ele>2144</ele>
        <time>2024-08-14T07:27:35Z</time>
      </trkpt>
      <trkpt lat="44.89655" lon="6.07937">
        <ele>2143.6</ele>
        <time>2024-08-14T07:27:36Z</time>
      </trkpt>
      <trkpt lat="44.89655" lon="6.07937">
        <ele>2143.4</ele>
        <time>2024-08-14T07:27:37Z</time>
      </trkpt>
      <trkpt lat="44.89653" lon="6.07935">
        <ele>2143</ele>
        <time>2024-08-14T07:27:38Z</time>
      </trkpt>
      <trkpt lat="44.89653" lon="6.07935">
        <ele>2142.8</ele>
        <time>2024-08-14T07:27:39Z</time>
      </trkpt>
      <trkpt lat="44.89651" lon="6.07933">
        <ele>2142.8</ele>
        <time>2024-08-14T07:27:40Z</time>
      </trkpt>
      <trkpt lat="44.89651" lon="6.07933">
        <ele>2142.8</ele>
        <time>2024-08-14T07:27:41Z</time>
      </trkpt>
      <trkpt lat="44.89649" lon="6.07931">
        <ele>2142.6</ele>
        <time>2024-08-14T07:27:42Z</time>
      </trkpt>
      <trkpt lat="44.89649" lon="6.07931">
        <ele>2142.4</ele>
        <time>2024-08-14T07:27:43Z</time>
      </trkpt>
      <trkpt lat="44.89648" lon="6.07928">
        <ele>2142.2</ele>
        <time>2024-08-14T07:27:44Z</time>
      </trkpt>
      <trkpt lat="44.89648" lon="6.07928">
        <ele>2142</ele>
        <time>2024-08-14T07:27:45Z</time>
      </trkpt>
      <trkpt lat="44.89646" lon="6.07926">
        <ele>2141.8</ele>
        <time>2024-08-14T07:27:46Z</time>
      </trkpt>
      <trkpt lat="44.89646" lon="6.07926">
        <ele>2141.6</ele>
        <time>2024-08-14T07:27:47Z</time>
      </trkpt>
      <trkpt lat="44.89644" lon="6.07923">
        <ele>2141.4</ele>
        <time>2024-08-14T07:27:48Z</time>
      </trkpt>
      <trkpt lat="44.89644" lon="6.07923">
        <ele>2141.2</ele>
        <time>2024-08-14T07:27:49Z</time>
      </trkpt>
      <trkpt lat="44.89643" lon="6.0792">
        <ele>2141</ele>
        <time>2024-08-14T07:27:50Z</time>
      </trkpt>
      <trkpt lat="44.89643" lon="6.0792">
        <ele>2140.8</ele>
        <time>2024-08-14T07:27:51Z</time>
      </trkpt>
      <trkpt lat="44.89641" lon="6.07918">
        <ele>2140.6</ele>
        <time>2024-08-14T07:27:52Z</time>
      </trkpt>
      <trkpt lat="44.89641" lon="6.07918">
        <ele>2140.4</ele>
        <time>2024-08-14T07:27:53Z</time>
      </trkpt>
      <trkpt lat="44.89639" lon="6.07915">
        <ele>2140.2</ele>
        <time>2024-08-14T07:27:54Z</time>
      </trkpt>
      <trkpt lat="44.89639" lon="6.07915">
        <ele>2139.8</ele>
        <time>2024-08-14T07:27:55Z</time>
      </trkpt>
      <trkpt lat="44.89636" lon="6.07914">
        <ele>2139.4</ele>
        <time>2024-08-14T07:27:56Z</time>
      </trkpt>
      <trkpt lat="44.89636" lon="6.07914">
        <ele>2138.8</ele>
        <time>2024-08-14T07:27:57Z</time>
      </trkpt>
      <trkpt lat="44.89634" lon="6.07912">
        <ele>2138.6</ele>
        <time>2024-08-14T07:27:58Z</time>
      </trkpt>
      <trkpt lat="44.89634" lon="6.07912">
        <ele>2138.2</ele>
        <time>2024-08-14T07:27:59Z</time>
      </trkpt>
      <trkpt lat="44.89632" lon="6.0791">
        <ele>2138.2</ele>
        <time>2024-08-14T07:28:00Z</time>
      </trkpt>
      <trkpt lat="44.89632" lon="6.0791">
        <ele>2138</ele>
        <time>2024-08-14T07:28:01Z</time>
      </trkpt>
      <trkpt lat="44.89632" lon="6.0791">
        <ele>2137.6</ele>
        <time>2024-08-14T07:28:02Z</time>
      </trkpt>
      <trkpt lat="44.89631" lon="6.07907">
        <ele>2137.6</ele>
        <time>2024-08-14T07:28:03Z</time>
      </trkpt>
      <trkpt lat="44.89631" lon="6.07907">
        <ele>2137.2</ele>
        <time>2024-08-14T07:28:04Z</time>
      </trkpt>
      <trkpt lat="44.89629" lon="6.07905">
        <ele>2137</ele>
        <time>2024-08-14T07:28:05Z</time>
      </trkpt>
      <trkpt lat="44.89629" lon="6.07905">
        <ele>2136.6</ele>
        <time>2024-08-14T07:28:06Z</time>
      </trkpt>
      <trkpt lat="44.89626" lon="6.07903">
        <ele>2136</ele>
        <time>2024-08-14T07:28:07Z</time>
      </trkpt>
      <trkpt lat="44.89626" lon="6.07903">
        <ele>2136</ele>
        <time>2024-08-14T07:28:08Z</time>
      </trkpt>
      <trkpt lat="44.89624" lon="6.07902">
        <ele>2136</ele>
        <time>2024-08-14T07:28:09Z</time>
      </trkpt>
      <trkpt lat="44.89624" lon="6.07902">
        <ele>2136</ele>
        <time>2024-08-14T07:28:10Z</time>
      </trkpt>
      <trkpt lat="44.89621" lon="6.07901">
        <ele>2136.2</ele>
        <time>2024-08-14T07:28:11Z</time>
      </trkpt>
      <trkpt lat="44.89621" lon="6.07901">
        <ele>2136.6</ele>
        <time>2024-08-14T07:28:12Z</time>
      </trkpt>
      <trkpt lat="44.89621" lon="6.07901">
        <ele>2136.6</ele>
        <time>2024-08-14T07:28:13Z</time>
      </trkpt>
      <trkpt lat="44.8962" lon="6.07898">
        <ele>2136.6</ele>
        <time>2024-08-14T07:28:14Z</time>
      </trkpt>
      <trkpt lat="44.8962" lon="6.07898">
        <ele>2136.4</ele>
        <time>2024-08-14T07:28:15Z</time>
      </trkpt>
      <trkpt lat="44.89617" lon="6.07897">
        <ele>2136.2</ele>
        <time>2024-08-14T07:28:16Z</time>
      </trkpt>
      <trkpt lat="44.89617" lon="6.07897">
        <ele>2135.8</ele>
        <time>2024-08-14T07:28:17Z</time>
      </trkpt>
      <trkpt lat="44.89617" lon="6.07897">
        <ele>2135.6</ele>
        <time>2024-08-14T07:28:18Z</time>
      </trkpt>
      <trkpt lat="44.89617" lon="6.07897">
        <ele>2135.2</ele>
        <time>2024-08-14T07:28:19Z</time>
      </trkpt>
      <trkpt lat="44.89619" lon="6.07895">
        <ele>2135</ele>
        <time>2024-08-14T07:28:20Z</time>
      </trkpt>
      <trkpt lat="44.89619" lon="6.07895">
        <ele>2134.4</ele>
        <time>2024-08-14T07:28:21Z</time>
      </trkpt>
      <trkpt lat="44.89622" lon="6.07895">
        <ele>2134.2</ele>
        <time>2024-08-14T07:28:22Z</time>
      </trkpt>
      <trkpt lat="44.89622" lon="6.07895">
        <ele>2133.6</ele>
        <time>2024-08-14T07:28:23Z</time>
      </trkpt>
      <trkpt lat="44.89625" lon="6.07896">
        <ele>2133.6</ele>
        <time>2024-08-14T07:28:24Z</time>
      </trkpt>
      <trkpt lat="44.89625" lon="6.07896">
        <ele>2133.4</ele>
        <time>2024-08-14T07:28:25Z</time>
      </trkpt>
      <trkpt lat="44.89627" lon="6.07896">
        <ele>2133.2</ele>
        <time>2024-08-14T07:28:26Z</time>
      </trkpt>
      <trkpt lat="44.89627" lon="6.07896">
        <ele>2132.8</ele>
        <time>2024-08-14T07:28:27Z</time>
      </trkpt>
      <trkpt lat="44.89629" lon="6.07896">
        <ele>2132.6</ele>
        <time>2024-08-14T07:28:28Z</time>
      </trkpt>
      <trkpt lat="44.89629" lon="6.07896">
        <ele>2132.4</ele>
        <time>2024-08-14T07:28:29Z</time>
      </trkpt>
      <trkpt lat="44.89632" lon="6.07895">
        <ele>2132.2</ele>
        <time>2024-08-14T07:28:30Z</time>
      </trkpt>
      <trkpt lat="44.89632" lon="6.07895">
        <ele>2131.8</ele>
        <time>2024-08-14T07:28:31Z</time>
      </trkpt>
      <trkpt lat="44.89635" lon="6.07897">
        <ele>2131.6</ele>
        <time>2024-08-14T07:28:32Z</time>
      </trkpt>
      <trkpt lat="44.89635" lon="6.07897">
        <ele>2131.2</ele>
        <time>2024-08-14T07:28:33Z</time>
      </trkpt>
      <trkpt lat="44.89637" lon="6.07898">
        <ele>2130.8</ele>
        <time>2024-08-14T07:28:34Z</time>
      </trkpt>
      <trkpt lat="44.89637" lon="6.07898">
        <ele>2130.8</ele>
        <time>2024-08-14T07:28:35Z</time>
      </trkpt>
      <trkpt lat="44.8964" lon="6.07899">
        <ele>2130.8</ele>
        <time>2024-08-14T07:28:36Z</time>
      </trkpt>
      <trkpt lat="44.8964" lon="6.07899">
        <ele>2130.8</ele>
        <time>2024-08-14T07:28:37Z</time>
      </trkpt>
      <trkpt lat="44.89643" lon="6.079">
        <ele>2130.6</ele>
        <time>2024-08-14T07:28:38Z</time>
      </trkpt>
      <trkpt lat="44.89643" lon="6.079">
        <ele>2130.4</ele>
        <time>2024-08-14T07:28:39Z</time>
      </trkpt>
      <trkpt lat="44.89645" lon="6.079">
        <ele>2129.8</ele>
        <time>2024-08-14T07:28:40Z</time>
      </trkpt>
      <trkpt lat="44.89645" lon="6.079">
        <ele>2129.8</ele>
        <time>2024-08-14T07:28:41Z</time>
      </trkpt>
      <trkpt lat="44.89647" lon="6.079">
        <ele>2129.6</ele>
        <time>2024-08-14T07:28:42Z</time>
      </trkpt>
      <trkpt lat="44.89647" lon="6.079">
        <ele>2129.4</ele>
        <time>2024-08-14T07:28:43Z</time>
      </trkpt>
      <trkpt lat="44.89647" lon="6.079">
        <ele>2129.2</ele>
        <time>2024-08-14T07:28:44Z</time>
      </trkpt>
      <trkpt lat="44.8965" lon="6.07901">
        <ele>2129</ele>
        <time>2024-08-14T07:28:45Z</time>
      </trkpt>
      <trkpt lat="44.8965" lon="6.07901">
        <ele>2128.6</ele>
        <time>2024-08-14T07:28:46Z</time>
      </trkpt>
      <trkpt lat="44.89652" lon="6.07901">
        <ele>2128.6</ele>
        <time>2024-08-14T07:28:47Z</time>
      </trkpt>
      <trkpt lat="44.89652" lon="6.07901">
        <ele>2128.4</ele>
        <time>2024-08-14T07:28:48Z</time>
      </trkpt>
      <trkpt lat="44.89655" lon="6.07902">
        <ele>2128.4</ele>
        <time>2024-08-14T07:28:49Z</time>
      </trkpt>
      <trkpt lat="44.89655" lon="6.07902">
        <ele>2127.8</ele>
        <time>2024-08-14T07:28:50Z</time>
      </trkpt>
      <trkpt lat="44.89658" lon="6.07903">
        <ele>2127.4</ele>
        <time>2024-08-14T07:28:51Z</time>
      </trkpt>
      <trkpt lat="44.89658" lon="6.07903">
        <ele>2127.4</ele>
        <time>2024-08-14T07:28:52Z</time>
      </trkpt>
      <trkpt lat="44.89661" lon="6.07904">
        <ele>2127.4</ele>
        <time>2024-08-14T07:28:53Z</time>
      </trkpt>
      <trkpt lat="44.89661" lon="6.07904">
        <ele>2127.2</ele>
        <time>2024-08-14T07:28:54Z</time>
      </trkpt>
      <trkpt lat="44.89662" lon="6.07906">
        <ele>2126.8</ele>
        <time>2024-08-14T07:28:55Z</time>
      </trkpt>
      <trkpt lat="44.89662" lon="6.07906">
        <ele>2126.8</ele>
        <time>2024-08-14T07:28:56Z</time>
      </trkpt>
      <trkpt lat="44.89664" lon="6.07907">
        <ele>2126.6</ele>
        <time>2024-08-14T07:28:57Z</time>
      </trkpt>
      <trkpt lat="44.89664" lon="6.07907">
        <ele>2126.4</ele>
        <time>2024-08-14T07:28:58Z</time>
      </trkpt>
      <trkpt lat="44.89666" lon="6.07908">
        <ele>2126.2</ele>
        <time>2024-08-14T07:28:59Z</time>
      </trkpt>
      <trkpt lat="44.89666" lon="6.07908">
        <ele>2125.8</ele>
        <time>2024-08-14T07:29:00Z</time>
      </trkpt>
      <trkpt lat="44.89669" lon="6.07909">
        <ele>2125.6</ele>
        <time>2024-08-14T07:29:01Z</time>
      </trkpt>
      <trkpt lat="44.89669" lon="6.07909">
        <ele>2125</ele>
        <time>2024-08-14T07:29:02Z</time>
      </trkpt>
      <trkpt lat="44.89671" lon="6.07908">
        <ele>2125</ele>
        <time>2024-08-14T07:29:03Z</time>
      </trkpt>
      <trkpt lat="44.89673" lon="6.07909">
        <ele>2124.8</ele>
        <time>2024-08-14T07:29:04Z</time>
      </trkpt>
      <trkpt lat="44.89673" lon="6.07909">
        <ele>2124.8</ele>
        <time>2024-08-14T07:29:05Z</time>
      </trkpt>
      <trkpt lat="44.89676" lon="6.07909">
        <ele>2124.6</ele>
        <time>2024-08-14T07:29:06Z</time>
      </trkpt>
      <trkpt lat="44.89676" lon="6.07909">
        <ele>2124.6</ele>
        <time>2024-08-14T07:29:07Z</time>
      </trkpt>
      <trkpt lat="44.89676" lon="6.07909">
        <ele>2124</ele>
        <time>2024-08-14T07:29:08Z</time>
      </trkpt>
      <trkpt lat="44.89678" lon="6.07909">
        <ele>2123.6</ele>
        <time>2024-08-14T07:29:09Z</time>
      </trkpt>
      <trkpt lat="44.89678" lon="6.07909">
        <ele>2123.4</ele>
        <time>2024-08-14T07:29:10Z</time>
      </trkpt>
      <trkpt lat="44.89678" lon="6.07909">
        <ele>2123.2</ele>
        <time>2024-08-14T07:29:11Z</time>
      </trkpt>
      <trkpt lat="44.8968" lon="6.07908">
        <ele>2122.8</ele>
        <time>2024-08-14T07:29:12Z</time>
      </trkpt>
      <trkpt lat="44.8968" lon="6.07908">
        <ele>2122.4</ele>
        <time>2024-08-14T07:29:13Z</time>
      </trkpt>
      <trkpt lat="44.89682" lon="6.07908">
        <ele>2122</ele>
        <time>2024-08-14T07:29:14Z</time>
      </trkpt>
      <trkpt lat="44.89682" lon="6.07908">
        <ele>2121.6</ele>
        <time>2024-08-14T07:29:15Z</time>
      </trkpt>
      <trkpt lat="44.89684" lon="6.07908">
        <ele>2120.8</ele>
        <time>2024-08-14T07:29:16Z</time>
      </trkpt>
      <trkpt lat="44.89684" lon="6.07908">
        <ele>2120.6</ele>
        <time>2024-08-14T07:29:17Z</time>
      </trkpt>
      <trkpt lat="44.89687" lon="6.07909">
        <ele>2120.4</ele>
        <time>2024-08-14T07:29:18Z</time>
      </trkpt>
      <trkpt lat="44.89687" lon="6.07909">
        <ele>2120.2</ele>
        <time>2024-08-14T07:29:19Z</time>
      </trkpt>
      <trkpt lat="44.8969" lon="6.07911">
        <ele>2120</ele>
        <time>2024-08-14T07:29:20Z</time>
      </trkpt>
      <trkpt lat="44.8969" lon="6.07911">
        <ele>2120</ele>
        <time>2024-08-14T07:29:21Z</time>
      </trkpt>
      <trkpt lat="44.89692" lon="6.07912">
        <ele>2120</ele>
        <time>2024-08-14T07:29:22Z</time>
      </trkpt>
      <trkpt lat="44.89692" lon="6.07912">
        <ele>2119.8</ele>
        <time>2024-08-14T07:29:23Z</time>
      </trkpt>
      <trkpt lat="44.89694" lon="6.07913">
        <ele>2119.8</ele>
        <time>2024-08-14T07:29:24Z</time>
      </trkpt>
      <trkpt lat="44.89694" lon="6.07913">
        <ele>2119.6</ele>
        <time>2024-08-14T07:29:25Z</time>
      </trkpt>
      <trkpt lat="44.89697" lon="6.07915">
        <ele>2119.2</ele>
        <time>2024-08-14T07:29:26Z</time>
      </trkpt>
      <trkpt lat="44.89697" lon="6.07915">
        <ele>2119.2</ele>
        <time>2024-08-14T07:29:27Z</time>
      </trkpt>
      <trkpt lat="44.89699" lon="6.07916">
        <ele>2119</ele>
        <time>2024-08-14T07:29:28Z</time>
      </trkpt>
      <trkpt lat="44.89699" lon="6.07916">
        <ele>2118.8</ele>
        <time>2024-08-14T07:29:29Z</time>
      </trkpt>
      <trkpt lat="44.89702" lon="6.07918">
        <ele>2118.8</ele>
        <time>2024-08-14T07:29:30Z</time>
      </trkpt>
      <trkpt lat="44.89702" lon="6.07918">
        <ele>2118.6</ele>
        <time>2024-08-14T07:29:31Z</time>
      </trkpt>
      <trkpt lat="44.89702" lon="6.07918">
        <ele>2118.2</ele>
        <time>2024-08-14T07:29:32Z</time>
      </trkpt>
      <trkpt lat="44.89704" lon="6.07919">
        <ele>2117.8</ele>
        <time>2024-08-14T07:29:33Z</time>
      </trkpt>
      <trkpt lat="44.89704" lon="6.07919">
        <ele>2117.6</ele>
        <time>2024-08-14T07:29:34Z</time>
      </trkpt>
      <trkpt lat="44.89706" lon="6.07918">
        <ele>2117.2</ele>
        <time>2024-08-14T07:29:35Z</time>
      </trkpt>
      <trkpt lat="44.89706" lon="6.07918">
        <ele>2116.8</ele>
        <time>2024-08-14T07:29:36Z</time>
      </trkpt>
      <trkpt lat="44.89709" lon="6.07918">
        <ele>2116.4</ele>
        <time>2024-08-14T07:29:37Z</time>
      </trkpt>
      <trkpt lat="44.89709" lon="6.07918">
        <ele>2115.8</ele>
        <time>2024-08-14T07:29:38Z</time>
      </trkpt>
      <trkpt lat="44.8971" lon="6.0792">
        <ele>2115.4</ele>
        <time>2024-08-14T07:29:39Z</time>
      </trkpt>
      <trkpt lat="44.8971" lon="6.0792">
        <ele>2115</ele>
        <time>2024-08-14T07:29:40Z</time>
      </trkpt>
      <trkpt lat="44.89712" lon="6.07923">
        <ele>2115</ele>
        <time>2024-08-14T07:29:41Z</time>
      </trkpt>
      <trkpt lat="44.89712" lon="6.07923">
        <ele>2115</ele>
        <time>2024-08-14T07:29:42Z</time>
      </trkpt>
      <trkpt lat="44.89713" lon="6.07925">
        <ele>2115</ele>
        <time>2024-08-14T07:29:43Z</time>
      </trkpt>
      <trkpt lat="44.89713" lon="6.07925">
        <ele>2114.8</ele>
        <time>2024-08-14T07:29:44Z</time>
      </trkpt>
      <trkpt lat="44.89716" lon="6.07927">
        <ele>2114.8</ele>
        <time>2024-08-14T07:29:45Z</time>
      </trkpt>
      <trkpt lat="44.89716" lon="6.07927">
        <ele>2114.8</ele>
        <time>2024-08-14T07:29:46Z</time>
      </trkpt>
      <trkpt lat="44.89717" lon="6.07929">
        <ele>2114.6</ele>
        <time>2024-08-14T07:29:47Z</time>
      </trkpt>
      <trkpt lat="44.89717" lon="6.07929">
        <ele>2114.4</ele>
        <time>2024-08-14T07:29:48Z</time>
      </trkpt>
      <trkpt lat="44.89719" lon="6.07931">
        <ele>2114</ele>
        <time>2024-08-14T07:29:49Z</time>
      </trkpt>
      <trkpt lat="44.89719" lon="6.07931">
        <ele>2113.8</ele>
        <time>2024-08-14T07:29:50Z</time>
      </trkpt>
      <trkpt lat="44.89721" lon="6.07933">
        <ele>2113.8</ele>
        <time>2024-08-14T07:29:51Z</time>
      </trkpt>
      <trkpt lat="44.89723" lon="6.07935">
        <ele>2113.2</ele>
        <time>2024-08-14T07:29:52Z</time>
      </trkpt>
      <trkpt lat="44.89723" lon="6.07935">
        <ele>2112.8</ele>
        <time>2024-08-14T07:29:53Z</time>
      </trkpt>
      <trkpt lat="44.89725" lon="6.07937">
        <ele>2112.8</ele>
        <time>2024-08-14T07:29:54Z</time>
      </trkpt>
      <trkpt lat="44.89725" lon="6.07937">
        <ele>2112.6</ele>
        <time>2024-08-14T07:29:55Z</time>
      </trkpt>
      <trkpt lat="44.89725" lon="6.07937">
        <ele>2112.2</ele>
        <time>2024-08-14T07:29:56Z</time>
      </trkpt>
      <trkpt lat="44.89725" lon="6.0794">
        <ele>2112</ele>
        <time>2024-08-14T07:29:57Z</time>
      </trkpt>
      <trkpt lat="44.89725" lon="6.0794">
        <ele>2111.8</ele>
        <time>2024-08-14T07:29:58Z</time>
      </trkpt>
      <trkpt lat="44.89727" lon="6.07942">
        <ele>2111.8</ele>
        <time>2024-08-14T07:29:59Z</time>
      </trkpt>
      <trkpt lat="44.89727" lon="6.07942">
        <ele>2111.4</ele>
        <time>2024-08-14T07:30:00Z</time>
      </trkpt>
      <trkpt lat="44.89729" lon="6.07943">
        <ele>2111.2</ele>
        <time>2024-08-14T07:30:01Z</time>
      </trkpt>
      <trkpt lat="44.89729" lon="6.07943">
        <ele>2110.4</ele>
        <time>2024-08-14T07:30:02Z</time>
      </trkpt>
      <trkpt lat="44.89731" lon="6.07946">
        <ele>2110.4</ele>
        <time>2024-08-14T07:30:03Z</time>
      </trkpt>
      <trkpt lat="44.89731" lon="6.07946">
        <ele>2110.2</ele>
        <time>2024-08-14T07:30:04Z</time>
      </trkpt>
      <trkpt lat="44.89733" lon="6.07949">
        <ele>2110</ele>
        <time>2024-08-14T07:30:05Z</time>
      </trkpt>
      <trkpt lat="44.89733" lon="6.07949">
        <ele>2109.6</ele>
        <time>2024-08-14T07:30:06Z</time>
      </trkpt>
      <trkpt lat="44.89733" lon="6.07949">
        <ele>2109.2</ele>
        <time>2024-08-14T07:30:07Z</time>
      </trkpt>
      <trkpt lat="44.89733" lon="6.07949">
        <ele>2109</ele>
        <time>2024-08-14T07:30:08Z</time>
      </trkpt>
      <trkpt lat="44.89733" lon="6.07949">
        <ele>2108.8</ele>
        <time>2024-08-14T07:30:09Z</time>
      </trkpt>
      <trkpt lat="44.89733" lon="6.07949">
        <ele>2108.8</ele>
        <time>2024-08-14T07:30:10Z</time>
      </trkpt>
      <trkpt lat="44.89732" lon="6.07946">
        <ele>2108.6</ele>
        <time>2024-08-14T07:30:11Z</time>
      </trkpt>
      <trkpt lat="44.89732" lon="6.07946">
        <ele>2108.4</ele>
        <time>2024-08-14T07:30:12Z</time>
      </trkpt>
      <trkpt lat="44.89731" lon="6.07943">
        <ele>2107.8</ele>
        <time>2024-08-14T07:30:13Z</time>
      </trkpt>
      <trkpt lat="44.89731" lon="6.07943">
        <ele>2107.8</ele>
        <time>2024-08-14T07:30:14Z</time>
      </trkpt>
      <trkpt lat="44.8973" lon="6.07939">
        <ele>2107.6</ele>
        <time>2024-08-14T07:30:15Z</time>
      </trkpt>
      <trkpt lat="44.8973" lon="6.07939">
        <ele>2107.4</ele>
        <time>2024-08-14T07:30:16Z</time>
      </trkpt>
      <trkpt lat="44.89729" lon="6.07936">
        <ele>2107.2</ele>
        <time>2024-08-14T07:30:17Z</time>
      </trkpt>
      <trkpt lat="44.89729" lon="6.07936">
        <ele>2107</ele>
        <time>2024-08-14T07:30:18Z</time>
      </trkpt>
      <trkpt lat="44.89728" lon="6.07933">
        <ele>2107</ele>
        <time>2024-08-14T07:30:19Z</time>
      </trkpt>
      <trkpt lat="44.89728" lon="6.07933">
        <ele>2106.8</ele>
        <time>2024-08-14T07:30:20Z</time>
      </trkpt>
      <trkpt lat="44.89727" lon="6.0793">
        <ele>2106.6</ele>
        <time>2024-08-14T07:30:21Z</time>
      </trkpt>
      <trkpt lat="44.89727" lon="6.0793">
        <ele>2106.2</ele>
        <time>2024-08-14T07:30:22Z</time>
      </trkpt>
      <trkpt lat="44.89727" lon="6.07927">
        <ele>2106</ele>
        <time>2024-08-14T07:30:23Z</time>
      </trkpt>
      <trkpt lat="44.89727" lon="6.07927">
        <ele>2105.6</ele>
        <time>2024-08-14T07:30:24Z</time>
      </trkpt>
      <trkpt lat="44.89727" lon="6.07923">
        <ele>2105.4</ele>
        <time>2024-08-14T07:30:25Z</time>
      </trkpt>
      <trkpt lat="44.89727" lon="6.07923">
        <ele>2104.8</ele>
        <time>2024-08-14T07:30:26Z</time>
      </trkpt>
      <trkpt lat="44.89725" lon="6.0792">
        <ele>2104.6</ele>
        <time>2024-08-14T07:30:27Z</time>
      </trkpt>
      <trkpt lat="44.89725" lon="6.0792">
        <ele>2104.6</ele>
        <time>2024-08-14T07:30:28Z</time>
      </trkpt>
      <trkpt lat="44.89724" lon="6.07918">
        <ele>2104.6</ele>
        <time>2024-08-14T07:30:29Z</time>
      </trkpt>
      <trkpt lat="44.89724" lon="6.07918">
        <ele>2104.4</ele>
        <time>2024-08-14T07:30:30Z</time>
      </trkpt>
      <trkpt lat="44.89722" lon="6.07916">
        <ele>2104.4</ele>
        <time>2024-08-14T07:30:31Z</time>
      </trkpt>
      <trkpt lat="44.89722" lon="6.07916">
        <ele>2104.4</ele>
        <time>2024-08-14T07:30:32Z</time>
      </trkpt>
      <trkpt lat="44.89722" lon="6.07916">
        <ele>2103.6</ele>
        <time>2024-08-14T07:30:33Z</time>
      </trkpt>
      <trkpt lat="44.89721" lon="6.07913">
        <ele>2103.4</ele>
        <time>2024-08-14T07:30:34Z</time>
      </trkpt>
      <trkpt lat="44.89721" lon="6.07913">
        <ele>2103.2</ele>
        <time>2024-08-14T07:30:35Z</time>
      </trkpt>
      <trkpt lat="44.89721" lon="6.07913">
        <ele>2103.2</ele>
        <time>2024-08-14T07:30:36Z</time>
      </trkpt>
      <trkpt lat="44.89719" lon="6.0791">
        <ele>2102.8</ele>
        <time>2024-08-14T07:30:37Z</time>
      </trkpt>
      <trkpt lat="44.89719" lon="6.0791">
        <ele>2102.4</ele>
        <time>2024-08-14T07:30:38Z</time>
      </trkpt>
      <trkpt lat="44.89717" lon="6.07908">
        <ele>2102.2</ele>
        <time>2024-08-14T07:30:39Z</time>
      </trkpt>
      <trkpt lat="44.89715" lon="6.07907">
        <ele>2102</ele>
        <time>2024-08-14T07:30:40Z</time>
      </trkpt>
      <trkpt lat="44.89715" lon="6.07907">
        <ele>2101.8</ele>
        <time>2024-08-14T07:30:41Z</time>
      </trkpt>
      <trkpt lat="44.89713" lon="6.07905">
        <ele>2101.4</ele>
        <time>2024-08-14T07:30:42Z</time>
      </trkpt>
      <trkpt lat="44.89713" lon="6.07905">
        <ele>2101.2</ele>
        <time>2024-08-14T07:30:43Z</time>
      </trkpt>
      <trkpt lat="44.89712" lon="6.07903">
        <ele>2101.2</ele>
        <time>2024-08-14T07:30:44Z</time>
      </trkpt>
      <trkpt lat="44.89712" lon="6.07903">
        <ele>2101.4</ele>
        <time>2024-08-14T07:30:45Z</time>
      </trkpt>
      <trkpt lat="44.8971" lon="6.07901">
        <ele>2101.4</ele>
        <time>2024-08-14T07:30:46Z</time>
      </trkpt>
      <trkpt lat="44.8971" lon="6.07901">
        <ele>2101.2</ele>
        <time>2024-08-14T07:30:47Z</time>
      </trkpt>
      <trkpt lat="44.89709" lon="6.07898">
        <ele>2100.8</ele>
        <time>2024-08-14T07:30:48Z</time>
      </trkpt>
      <trkpt lat="44.89709" lon="6.07898">
        <ele>2100.4</ele>
        <time>2024-08-14T07:30:49Z</time>
      </trkpt>
      <trkpt lat="44.89707" lon="6.07895">
        <ele>2100.2</ele>
        <time>2024-08-14T07:30:50Z</time>
      </trkpt>
      <trkpt lat="44.89707" lon="6.07895">
        <ele>2099.8</ele>
        <time>2024-08-14T07:30:51Z</time>
      </trkpt>
      <trkpt lat="44.89705" lon="6.07892">
        <ele>2099.4</ele>
        <time>2024-08-14T07:30:52Z</time>
      </trkpt>
      <trkpt lat="44.89705" lon="6.07892">
        <ele>2099</ele>
        <time>2024-08-14T07:30:53Z</time>
      </trkpt>
      <trkpt lat="44.89704" lon="6.0789">
        <ele>2099</ele>
        <time>2024-08-14T07:30:54Z</time>
      </trkpt>
      <trkpt lat="44.89704" lon="6.0789">
        <ele>2099</ele>
        <time>2024-08-14T07:30:55Z</time>
      </trkpt>
      <trkpt lat="44.89703" lon="6.07888">
        <ele>2099</ele>
        <time>2024-08-14T07:30:56Z</time>
      </trkpt>
      <trkpt lat="44.89703" lon="6.07888">
        <ele>2099</ele>
        <time>2024-08-14T07:30:57Z</time>
      </trkpt>
      <trkpt lat="44.89701" lon="6.07886">
        <ele>2099</ele>
        <time>2024-08-14T07:30:58Z</time>
      </trkpt>
      <trkpt lat="44.89701" lon="6.07886">
        <ele>2099</ele>
        <time>2024-08-14T07:30:59Z</time>
      </trkpt>
      <trkpt lat="44.89699" lon="6.07883">
        <ele>2099</ele>
        <time>2024-08-14T07:31:00Z</time>
      </trkpt>
      <trkpt lat="44.89699" lon="6.07883">
        <ele>2098.8</ele>
        <time>2024-08-14T07:31:01Z</time>
      </trkpt>
      <trkpt lat="44.89697" lon="6.07881">
        <ele>2098</ele>
        <time>2024-08-14T07:31:02Z</time>
      </trkpt>
      <trkpt lat="44.89697" lon="6.07881">
        <ele>2098</ele>
        <time>2024-08-14T07:31:03Z</time>
      </trkpt>
      <trkpt lat="44.89696" lon="6.07879">
        <ele>2097.6</ele>
        <time>2024-08-14T07:31:04Z</time>
      </trkpt>
      <trkpt lat="44.89696" lon="6.07879">
        <ele>2097.4</ele>
        <time>2024-08-14T07:31:05Z</time>
      </trkpt>
      <trkpt lat="44.89694" lon="6.07877">
        <ele>2097</ele>
        <time>2024-08-14T07:31:06Z</time>
      </trkpt>
      <trkpt lat="44.89694" lon="6.07877">
        <ele>2096.8</ele>
        <time>2024-08-14T07:31:07Z</time>
      </trkpt>
      <trkpt lat="44.89692" lon="6.07875">
        <ele>2096.8</ele>
        <time>2024-08-14T07:31:08Z</time>
      </trkpt>
      <trkpt lat="44.89692" lon="6.07875">
        <ele>2096.4</ele>
        <time>2024-08-14T07:31:09Z</time>
      </trkpt>
      <trkpt lat="44.89689" lon="6.07874">
        <ele>2096.2</ele>
        <time>2024-08-14T07:31:10Z</time>
      </trkpt>
      <trkpt lat="44.89688" lon="6.07872">
        <ele>2095.8</ele>
        <time>2024-08-14T07:31:11Z</time>
      </trkpt>
      <trkpt lat="44.89688" lon="6.07872">
        <ele>2095.6</ele>
        <time>2024-08-14T07:31:12Z</time>
      </trkpt>
      <trkpt lat="44.89686" lon="6.07869">
        <ele>2095.4</ele>
        <time>2024-08-14T07:31:13Z</time>
      </trkpt>
      <trkpt lat="44.89686" lon="6.07869">
        <ele>2095.4</ele>
        <time>2024-08-14T07:31:14Z</time>
      </trkpt>
      <trkpt lat="44.89684" lon="6.07866">
        <ele>2095.2</ele>
        <time>2024-08-14T07:31:15Z</time>
      </trkpt>
      <trkpt lat="44.89684" lon="6.07866">
        <ele>2095.2</ele>
        <time>2024-08-14T07:31:16Z</time>
      </trkpt>
      <trkpt lat="44.89682" lon="6.07862">
        <ele>2094.8</ele>
        <time>2024-08-14T07:31:17Z</time>
      </trkpt>
      <trkpt lat="44.89682" lon="6.07862">
        <ele>2094.6</ele>
        <time>2024-08-14T07:31:18Z</time>
      </trkpt>
      <trkpt lat="44.8968" lon="6.0786">
        <ele>2094.6</ele>
        <time>2024-08-14T07:31:19Z</time>
      </trkpt>
      <trkpt lat="44.8968" lon="6.0786">
        <ele>2094.4</ele>
        <time>2024-08-14T07:31:20Z</time>
      </trkpt>
      <trkpt lat="44.89679" lon="6.07858">
        <ele>2094.2</ele>
        <time>2024-08-14T07:31:21Z</time>
      </trkpt>
      <trkpt lat="44.89679" lon="6.07858">
        <ele>2093.8</ele>
        <time>2024-08-14T07:31:22Z</time>
      </trkpt>
      <trkpt lat="44.89678" lon="6.07856">
        <ele>2093.6</ele>
        <time>2024-08-14T07:31:23Z</time>
      </trkpt>
      <trkpt lat="44.89678" lon="6.07856">
        <ele>2093.4</ele>
        <time>2024-08-14T07:31:24Z</time>
      </trkpt>
      <trkpt lat="44.89676" lon="6.07853">
        <ele>2093</ele>
        <time>2024-08-14T07:31:25Z</time>
      </trkpt>
      <trkpt lat="44.89676" lon="6.07853">
        <ele>2092.8</ele>
        <time>2024-08-14T07:31:26Z</time>
      </trkpt>
      <trkpt lat="44.89674" lon="6.0785">
        <ele>2092.6</ele>
        <time>2024-08-14T07:31:27Z</time>
      </trkpt>
      <trkpt lat="44.89674" lon="6.0785">
        <ele>2092.4</ele>
        <time>2024-08-14T07:31:28Z</time>
      </trkpt>
      <trkpt lat="44.89672" lon="6.07848">
        <ele>2092.4</ele>
        <time>2024-08-14T07:31:29Z</time>
      </trkpt>
      <trkpt lat="44.89672" lon="6.07848">
        <ele>2092.2</ele>
        <time>2024-08-14T07:31:30Z</time>
      </trkpt>
      <trkpt lat="44.8967" lon="6.07845">
        <ele>2091.8</ele>
        <time>2024-08-14T07:31:31Z</time>
      </trkpt>
      <trkpt lat="44.8967" lon="6.07845">
        <ele>2091.4</ele>
        <time>2024-08-14T07:31:32Z</time>
      </trkpt>
      <trkpt lat="44.89669" lon="6.07842">
        <ele>2091.2</ele>
        <time>2024-08-14T07:31:33Z</time>
      </trkpt>
      <trkpt lat="44.89669" lon="6.07842">
        <ele>2091</ele>
        <time>2024-08-14T07:31:34Z</time>
      </trkpt>
      <trkpt lat="44.89668" lon="6.07839">
        <ele>2090.8</ele>
        <time>2024-08-14T07:31:35Z</time>
      </trkpt>
      <trkpt lat="44.89668" lon="6.07839">
        <ele>2090.6</ele>
        <time>2024-08-14T07:31:36Z</time>
      </trkpt>
      <trkpt lat="44.89666" lon="6.07837">
        <ele>2090.2</ele>
        <time>2024-08-14T07:31:37Z</time>
      </trkpt>
      <trkpt lat="44.89666" lon="6.07837">
        <ele>2090</ele>
        <time>2024-08-14T07:31:38Z</time>
      </trkpt>
      <trkpt lat="44.89664" lon="6.07834">
        <ele>2089.8</ele>
        <time>2024-08-14T07:31:39Z</time>
      </trkpt>
      <trkpt lat="44.89664" lon="6.07834">
        <ele>2089.4</ele>
        <time>2024-08-14T07:31:40Z</time>
      </trkpt>
      <trkpt lat="44.89662" lon="6.07832">
        <ele>2089</ele>
        <time>2024-08-14T07:31:41Z</time>
      </trkpt>
      <trkpt lat="44.89662" lon="6.07832">
        <ele>2088.4</ele>
        <time>2024-08-14T07:31:42Z</time>
      </trkpt>
      <trkpt lat="44.89662" lon="6.07832">
        <ele>2088.4</ele>
        <time>2024-08-14T07:31:43Z</time>
      </trkpt>
      <trkpt lat="44.89662" lon="6.07832">
        <ele>2088.4</ele>
        <time>2024-08-14T07:31:44Z</time>
      </trkpt>
      <trkpt lat="44.89662" lon="6.07832">
        <ele>2088.2</ele>
        <time>2024-08-14T07:31:45Z</time>
      </trkpt>
      <trkpt lat="44.89662" lon="6.07832">
        <ele>2088</ele>
        <time>2024-08-14T07:31:46Z</time>
      </trkpt>
      <trkpt lat="44.89662" lon="6.07832">
        <ele>2088</ele>
        <time>2024-08-14T07:31:47Z</time>
      </trkpt>
      <trkpt lat="44.89663" lon="6.07829">
        <ele>2088.2</ele>
        <time>2024-08-14T07:31:48Z</time>
      </trkpt>
      <trkpt lat="44.89663" lon="6.07829">
        <ele>2088.6</ele>
        <time>2024-08-14T07:31:49Z</time>
      </trkpt>
      <trkpt lat="44.89665" lon="6.07829">
        <ele>2088.6</ele>
        <time>2024-08-14T07:31:50Z</time>
      </trkpt>
      <trkpt lat="44.89665" lon="6.07829">
        <ele>2088.2</ele>
        <time>2024-08-14T07:31:51Z</time>
      </trkpt>
      <trkpt lat="44.89668" lon="6.07831">
        <ele>2088</ele>
        <time>2024-08-14T07:31:52Z</time>
      </trkpt>
      <trkpt lat="44.89668" lon="6.07831">
        <ele>2087.8</ele>
        <time>2024-08-14T07:31:53Z</time>
      </trkpt>
      <trkpt lat="44.8967" lon="6.07831">
        <ele>2087.6</ele>
        <time>2024-08-14T07:31:54Z</time>
      </trkpt>
      <trkpt lat="44.8967" lon="6.07831">
        <ele>2087.4</ele>
        <time>2024-08-14T07:31:55Z</time>
      </trkpt>
      <trkpt lat="44.89672" lon="6.07833">
        <ele>2087</ele>
        <time>2024-08-14T07:31:56Z</time>
      </trkpt>
      <trkpt lat="44.89672" lon="6.07833">
        <ele>2086.6</ele>
        <time>2024-08-14T07:31:57Z</time>
      </trkpt>
      <trkpt lat="44.89674" lon="6.07834">
        <ele>2086.4</ele>
        <time>2024-08-14T07:31:58Z</time>
      </trkpt>
      <trkpt lat="44.89674" lon="6.07834">
        <ele>2086.4</ele>
        <time>2024-08-14T07:31:59Z</time>
      </trkpt>
      <trkpt lat="44.89676" lon="6.07835">
        <ele>2086.2</ele>
        <time>2024-08-14T07:32:00Z</time>
      </trkpt>
      <trkpt lat="44.89676" lon="6.07835">
        <ele>2086.2</ele>
        <time>2024-08-14T07:32:01Z</time>
      </trkpt>
      <trkpt lat="44.89677" lon="6.07835">
        <ele>2086</ele>
        <time>2024-08-14T07:32:02Z</time>
      </trkpt>
      <trkpt lat="44.89677" lon="6.07835">
        <ele>2086</ele>
        <time>2024-08-14T07:32:03Z</time>
      </trkpt>
      <trkpt lat="44.8968" lon="6.07836">
        <ele>2085.6</ele>
        <time>2024-08-14T07:32:04Z</time>
      </trkpt>
      <trkpt lat="44.8968" lon="6.07836">
        <ele>2085</ele>
        <time>2024-08-14T07:32:05Z</time>
      </trkpt>
      <trkpt lat="44.89682" lon="6.07838">
        <ele>2084.8</ele>
        <time>2024-08-14T07:32:06Z</time>
      </trkpt>
      <trkpt lat="44.89682" lon="6.07838">
        <ele>2084.6</ele>
        <time>2024-08-14T07:32:07Z</time>
      </trkpt>
      <trkpt lat="44.89685" lon="6.07839">
        <ele>2084</ele>
        <time>2024-08-14T07:32:08Z</time>
      </trkpt>
      <trkpt lat="44.89685" lon="6.07839">
        <ele>2083.6</ele>
        <time>2024-08-14T07:32:09Z</time>
      </trkpt>
      <trkpt lat="44.89687" lon="6.0784">
        <ele>2083.6</ele>
        <time>2024-08-14T07:32:10Z</time>
      </trkpt>
      <trkpt lat="44.89687" lon="6.0784">
        <ele>2083.2</ele>
        <time>2024-08-14T07:32:11Z</time>
      </trkpt>
      <trkpt lat="44.89689" lon="6.07841">
        <ele>2082.8</ele>
        <time>2024-08-14T07:32:12Z</time>
      </trkpt>
      <trkpt lat="44.89689" lon="6.07841">
        <ele>2082.4</ele>
        <time>2024-08-14T07:32:13Z</time>
      </trkpt>
      <trkpt lat="44.89691" lon="6.07841">
        <ele>2082</ele>
        <time>2024-08-14T07:32:14Z</time>
      </trkpt>
      <trkpt lat="44.89691" lon="6.07841">
        <ele>2081.6</ele>
        <time>2024-08-14T07:32:15Z</time>
      </trkpt>
      <trkpt lat="44.89693" lon="6.07843">
        <ele>2081.6</ele>
        <time>2024-08-14T07:32:16Z</time>
      </trkpt>
      <trkpt lat="44.89693" lon="6.07843">
        <ele>2081</ele>
        <time>2024-08-14T07:32:17Z</time>
      </trkpt>
      <trkpt lat="44.89696" lon="6.07846">
        <ele>2080.2</ele>
        <time>2024-08-14T07:32:18Z</time>
      </trkpt>
      <trkpt lat="44.89696" lon="6.07846">
        <ele>2080</ele>
        <time>2024-08-14T07:32:19Z</time>
      </trkpt>
      <trkpt lat="44.89698" lon="6.07848">
        <ele>2079.6</ele>
        <time>2024-08-14T07:32:20Z</time>
      </trkpt>
      <trkpt lat="44.89698" lon="6.07848">
        <ele>2079.6</ele>
        <time>2024-08-14T07:32:21Z</time>
      </trkpt>
      <trkpt lat="44.897" lon="6.0785">
        <ele>2079.4</ele>
        <time>2024-08-14T07:32:22Z</time>
      </trkpt>
      <trkpt lat="44.897" lon="6.0785">
        <ele>2079.4</ele>
        <time>2024-08-14T07:32:23Z</time>
      </trkpt>
      <trkpt lat="44.89702" lon="6.07851">
        <ele>2079</ele>
        <time>2024-08-14T07:32:24Z</time>
      </trkpt>
      <trkpt lat="44.89702" lon="6.07851">
        <ele>2078.8</ele>
        <time>2024-08-14T07:32:25Z</time>
      </trkpt>
      <trkpt lat="44.89705" lon="6.07851">
        <ele>2078.2</ele>
        <time>2024-08-14T07:32:26Z</time>
      </trkpt>
      <trkpt lat="44.89705" lon="6.07851">
        <ele>2078</ele>
        <time>2024-08-14T07:32:27Z</time>
      </trkpt>
      <trkpt lat="44.89707" lon="6.07852">
        <ele>2077.6</ele>
        <time>2024-08-14T07:32:28Z</time>
      </trkpt>
      <trkpt lat="44.89707" lon="6.07852">
        <ele>2077.2</ele>
        <time>2024-08-14T07:32:29Z</time>
      </trkpt>
      <trkpt lat="44.89709" lon="6.07853">
        <ele>2076.8</ele>
        <time>2024-08-14T07:32:30Z</time>
      </trkpt>
      <trkpt lat="44.89709" lon="6.07853">
        <ele>2076.4</ele>
        <time>2024-08-14T07:32:31Z</time>
      </trkpt>
      <trkpt lat="44.89711" lon="6.07853">
        <ele>2076</ele>
        <time>2024-08-14T07:32:32Z</time>
      </trkpt>
      <trkpt lat="44.89711" lon="6.07853">
        <ele>2075.8</ele>
        <time>2024-08-14T07:32:33Z</time>
      </trkpt>
      <trkpt lat="44.89711" lon="6.07853">
        <ele>2075.4</ele>
        <time>2024-08-14T07:32:34Z</time>
      </trkpt>
      <trkpt lat="44.89711" lon="6.07853">
        <ele>2075.2</ele>
        <time>2024-08-14T07:32:35Z</time>
      </trkpt>
      <trkpt lat="44.89709" lon="6.07852">
        <ele>2074.8</ele>
        <time>2024-08-14T07:32:36Z</time>
      </trkpt>
      <trkpt lat="44.89709" lon="6.07852">
        <ele>2074.4</ele>
        <time>2024-08-14T07:32:37Z</time>
      </trkpt>
      <trkpt lat="44.89707" lon="6.0785">
        <ele>2074.2</ele>
        <time>2024-08-14T07:32:38Z</time>
      </trkpt>
      <trkpt lat="44.89707" lon="6.0785">
        <ele>2074.2</ele>
        <time>2024-08-14T07:32:39Z</time>
      </trkpt>
      <trkpt lat="44.89705" lon="6.07848">
        <ele>2073.8</ele>
        <time>2024-08-14T07:32:40Z</time>
      </trkpt>
      <trkpt lat="44.89705" lon="6.07848">
        <ele>2073.6</ele>
        <time>2024-08-14T07:32:41Z</time>
      </trkpt>
      <trkpt lat="44.89704" lon="6.07846">
        <ele>2073.4</ele>
        <time>2024-08-14T07:32:42Z</time>
      </trkpt>
      <trkpt lat="44.89704" lon="6.07846">
        <ele>2073</ele>
        <time>2024-08-14T07:32:43Z</time>
      </trkpt>
      <trkpt lat="44.89702" lon="6.07844">
        <ele>2072.6</ele>
        <time>2024-08-14T07:32:44Z</time>
      </trkpt>
      <trkpt lat="44.89702" lon="6.07844">
        <ele>2071.8</ele>
        <time>2024-08-14T07:32:45Z</time>
      </trkpt>
      <trkpt lat="44.89701" lon="6.07841">
        <ele>2071.8</ele>
        <time>2024-08-14T07:32:46Z</time>
      </trkpt>
      <trkpt lat="44.89701" lon="6.07841">
        <ele>2071.4</ele>
        <time>2024-08-14T07:32:47Z</time>
      </trkpt>
      <trkpt lat="44.89699" lon="6.07838">
        <ele>2071</ele>
        <time>2024-08-14T07:32:48Z</time>
      </trkpt>
      <trkpt lat="44.89699" lon="6.07838">
        <ele>2071</ele>
        <time>2024-08-14T07:32:49Z</time>
      </trkpt>
      <trkpt lat="44.89698" lon="6.07834">
        <ele>2070.6</ele>
        <time>2024-08-14T07:32:50Z</time>
      </trkpt>
      <trkpt lat="44.89698" lon="6.07834">
        <ele>2070.2</ele>
        <time>2024-08-14T07:32:51Z</time>
      </trkpt>
      <trkpt lat="44.89696" lon="6.07831">
        <ele>2070</ele>
        <time>2024-08-14T07:32:52Z</time>
      </trkpt>
      <trkpt lat="44.89696" lon="6.07831">
        <ele>2069.6</ele>
        <time>2024-08-14T07:32:53Z</time>
      </trkpt>
      <trkpt lat="44.89693" lon="6.07828">
        <ele>2069.4</ele>
        <time>2024-08-14T07:32:54Z</time>
      </trkpt>
      <trkpt lat="44.89693" lon="6.07828">
        <ele>2069.2</ele>
        <time>2024-08-14T07:32:55Z</time>
      </trkpt>
      <trkpt lat="44.89692" lon="6.07825">
        <ele>2069</ele>
        <time>2024-08-14T07:32:56Z</time>
      </trkpt>
      <trkpt lat="44.89692" lon="6.07825">
        <ele>2068.8</ele>
        <time>2024-08-14T07:32:57Z</time>
      </trkpt>
      <trkpt lat="44.89689" lon="6.07822">
        <ele>2068.6</ele>
        <time>2024-08-14T07:32:58Z</time>
      </trkpt>
      <trkpt lat="44.89689" lon="6.07822">
        <ele>2068.2</ele>
        <time>2024-08-14T07:32:59Z</time>
      </trkpt>
      <trkpt lat="44.89687" lon="6.07819">
        <ele>2068.2</ele>
        <time>2024-08-14T07:33:00Z</time>
      </trkpt>
      <trkpt lat="44.89687" lon="6.07819">
        <ele>2068</ele>
        <time>2024-08-14T07:33:01Z</time>
      </trkpt>
      <trkpt lat="44.89686" lon="6.07817">
        <ele>2067.8</ele>
        <time>2024-08-14T07:33:02Z</time>
      </trkpt>
      <trkpt lat="44.89686" lon="6.07817">
        <ele>2067.8</ele>
        <time>2024-08-14T07:33:03Z</time>
      </trkpt>
      <trkpt lat="44.89684" lon="6.07814">
        <ele>2067.8</ele>
        <time>2024-08-14T07:33:04Z</time>
      </trkpt>
      <trkpt lat="44.89684" lon="6.07814">
        <ele>2067.6</ele>
        <time>2024-08-14T07:33:05Z</time>
      </trkpt>
      <trkpt lat="44.89682" lon="6.07812">
        <ele>2067.4</ele>
        <time>2024-08-14T07:33:06Z</time>
      </trkpt>
      <trkpt lat="44.89682" lon="6.07812">
        <ele>2067.4</ele>
        <time>2024-08-14T07:33:07Z</time>
      </trkpt>
      <trkpt lat="44.89681" lon="6.0781">
        <ele>2067.4</ele>
        <time>2024-08-14T07:33:08Z</time>
      </trkpt>
      <trkpt lat="44.89681" lon="6.0781">
        <ele>2067</ele>
        <time>2024-08-14T07:33:09Z</time>
      </trkpt>
      <trkpt lat="44.89681" lon="6.0781">
        <ele>2066.8</ele>
        <time>2024-08-14T07:33:10Z</time>
      </trkpt>
      <trkpt lat="44.89682" lon="6.07808">
        <ele>2066.4</ele>
        <time>2024-08-14T07:33:11Z</time>
      </trkpt>
      <trkpt lat="44.89682" lon="6.07808">
        <ele>2066</ele>
        <time>2024-08-14T07:33:12Z</time>
      </trkpt>
      <trkpt lat="44.89685" lon="6.07809">
        <ele>2065.8</ele>
        <time>2024-08-14T07:33:13Z</time>
      </trkpt>
      <trkpt lat="44.89685" lon="6.07809">
        <ele>2065.6</ele>
        <time>2024-08-14T07:33:14Z</time>
      </trkpt>
      <trkpt lat="44.89687" lon="6.0781">
        <ele>2065.2</ele>
        <time>2024-08-14T07:33:15Z</time>
      </trkpt>
      <trkpt lat="44.89687" lon="6.0781">
        <ele>2065</ele>
        <time>2024-08-14T07:33:16Z</time>
      </trkpt>
      <trkpt lat="44.89689" lon="6.07811">
        <ele>2064.8</ele>
        <time>2024-08-14T07:33:17Z</time>
      </trkpt>
      <trkpt lat="44.89689" lon="6.07811">
        <ele>2064.6</ele>
        <time>2024-08-14T07:33:18Z</time>
      </trkpt>
      <trkpt lat="44.89691" lon="6.07812">
        <ele>2064.2</ele>
        <time>2024-08-14T07:33:19Z</time>
      </trkpt>
      <trkpt lat="44.89691" lon="6.07812">
        <ele>2064</ele>
        <time>2024-08-14T07:33:20Z</time>
      </trkpt>
      <trkpt lat="44.89693" lon="6.07813">
        <ele>2063.2</ele>
        <time>2024-08-14T07:33:21Z</time>
      </trkpt>
      <trkpt lat="44.89693" lon="6.07813">
        <ele>2062.8</ele>
        <time>2024-08-14T07:33:22Z</time>
      </trkpt>
      <trkpt lat="44.89696" lon="6.07813">
        <ele>2062.4</ele>
        <time>2024-08-14T07:33:23Z</time>
      </trkpt>
      <trkpt lat="44.89696" lon="6.07813">
        <ele>2062</ele>
        <time>2024-08-14T07:33:24Z</time>
      </trkpt>
      <trkpt lat="44.89697" lon="6.07815">
        <ele>2061.8</ele>
        <time>2024-08-14T07:33:25Z</time>
      </trkpt>
      <trkpt lat="44.89697" lon="6.07815">
        <ele>2061.4</ele>
        <time>2024-08-14T07:33:26Z</time>
      </trkpt>
      <trkpt lat="44.89699" lon="6.07816">
        <ele>2060.8</ele>
        <time>2024-08-14T07:33:27Z</time>
      </trkpt>
      <trkpt lat="44.89699" lon="6.07816">
        <ele>2060.8</ele>
        <time>2024-08-14T07:33:28Z</time>
      </trkpt>
      <trkpt lat="44.89701" lon="6.07816">
        <ele>2060.8</ele>
        <time>2024-08-14T07:33:29Z</time>
      </trkpt>
      <trkpt lat="44.89701" lon="6.07816">
        <ele>2060.2</ele>
        <time>2024-08-14T07:33:30Z</time>
      </trkpt>
      <trkpt lat="44.89704" lon="6.07818">
        <ele>2059.6</ele>
        <time>2024-08-14T07:33:31Z</time>
      </trkpt>
      <trkpt lat="44.89704" lon="6.07818">
        <ele>2059.4</ele>
        <time>2024-08-14T07:33:32Z</time>
      </trkpt>
      <trkpt lat="44.89707" lon="6.07819">
        <ele>2059.2</ele>
        <time>2024-08-14T07:33:33Z</time>
      </trkpt>
      <trkpt lat="44.89707" lon="6.07819">
        <ele>2058.8</ele>
        <time>2024-08-14T07:33:34Z</time>
      </trkpt>
      <trkpt lat="44.89709" lon="6.0782">
        <ele>2058.6</ele>
        <time>2024-08-14T07:33:35Z</time>
      </trkpt>
      <trkpt lat="44.89709" lon="6.0782">
        <ele>2058.4</ele>
        <time>2024-08-14T07:33:36Z</time>
      </trkpt>
      <trkpt lat="44.89712" lon="6.07822">
        <ele>2058</ele>
        <time>2024-08-14T07:33:37Z</time>
      </trkpt>
      <trkpt lat="44.89712" lon="6.07822">
        <ele>2057.6</ele>
        <time>2024-08-14T07:33:38Z</time>
      </trkpt>
      <trkpt lat="44.89714" lon="6.07825">
        <ele>2057.4</ele>
        <time>2024-08-14T07:33:39Z</time>
      </trkpt>
      <trkpt lat="44.89714" lon="6.07825">
        <ele>2057.4</ele>
        <time>2024-08-14T07:33:40Z</time>
      </trkpt>
      <trkpt lat="44.89715" lon="6.07827">
        <ele>2057.2</ele>
        <time>2024-08-14T07:33:41Z</time>
      </trkpt>
      <trkpt lat="44.89715" lon="6.07827">
        <ele>2057</ele>
        <time>2024-08-14T07:33:42Z</time>
      </trkpt>
      <trkpt lat="44.89717" lon="6.07828">
        <ele>2056.8</ele>
        <time>2024-08-14T07:33:43Z</time>
      </trkpt>
      <trkpt lat="44.89717" lon="6.07828">
        <ele>2056.6</ele>
        <time>2024-08-14T07:33:44Z</time>
      </trkpt>
      <trkpt lat="44.89717" lon="6.07828">
        <ele>2056.4</ele>
        <time>2024-08-14T07:33:45Z</time>
      </trkpt>
      <trkpt lat="44.89719" lon="6.07828">
        <ele>2056</ele>
        <time>2024-08-14T07:33:46Z</time>
      </trkpt>
      <trkpt lat="44.89719" lon="6.07828">
        <ele>2055.8</ele>
        <time>2024-08-14T07:33:47Z</time>
      </trkpt>
      <trkpt lat="44.89718" lon="6.07827">
        <ele>2055.6</ele>
        <time>2024-08-14T07:33:48Z</time>
      </trkpt>
      <trkpt lat="44.89718" lon="6.07827">
        <ele>2055.2</ele>
        <time>2024-08-14T07:33:49Z</time>
      </trkpt>
      <trkpt lat="44.89717" lon="6.07824">
        <ele>2054.8</ele>
        <time>2024-08-14T07:33:50Z</time>
      </trkpt>
      <trkpt lat="44.89717" lon="6.07824">
        <ele>2054.6</ele>
        <time>2024-08-14T07:33:51Z</time>
      </trkpt>
      <trkpt lat="44.89717" lon="6.07824">
        <ele>2054.2</ele>
        <time>2024-08-14T07:33:52Z</time>
      </trkpt>
      <trkpt lat="44.89717" lon="6.0782">
        <ele>2053.8</ele>
        <time>2024-08-14T07:33:53Z</time>
      </trkpt>
      <trkpt lat="44.89717" lon="6.0782">
        <ele>2053.4</ele>
        <time>2024-08-14T07:33:54Z</time>
      </trkpt>
      <trkpt lat="44.89717" lon="6.0782">
        <ele>2053.4</ele>
        <time>2024-08-14T07:33:55Z</time>
      </trkpt>
      <trkpt lat="44.89719" lon="6.0782">
        <ele>2053.4</ele>
        <time>2024-08-14T07:33:56Z</time>
      </trkpt>
      <trkpt lat="44.89719" lon="6.0782">
        <ele>2053.2</ele>
        <time>2024-08-14T07:33:57Z</time>
      </trkpt>
      <trkpt lat="44.89721" lon="6.07822">
        <ele>2052.8</ele>
        <time>2024-08-14T07:33:58Z</time>
      </trkpt>
      <trkpt lat="44.89721" lon="6.07822">
        <ele>2052.4</ele>
        <time>2024-08-14T07:33:59Z</time>
      </trkpt>
      <trkpt lat="44.89724" lon="6.07823">
        <ele>2051.8</ele>
        <time>2024-08-14T07:34:00Z</time>
      </trkpt>
      <trkpt lat="44.89724" lon="6.07823">
        <ele>2051.4</ele>
        <time>2024-08-14T07:34:01Z</time>
      </trkpt>
      <trkpt lat="44.89726" lon="6.07825">
        <ele>2050.8</ele>
        <time>2024-08-14T07:34:02Z</time>
      </trkpt>
      <trkpt lat="44.89726" lon="6.07825">
        <ele>2050.8</ele>
        <time>2024-08-14T07:34:03Z</time>
      </trkpt>
      <trkpt lat="44.89729" lon="6.07827">
        <ele>2050.6</ele>
        <time>2024-08-14T07:34:04Z</time>
      </trkpt>
      <trkpt lat="44.89729" lon="6.07827">
        <ele>2050.4</ele>
        <time>2024-08-14T07:34:05Z</time>
      </trkpt>
      <trkpt lat="44.89732" lon="6.07828">
        <ele>2050.2</ele>
        <time>2024-08-14T07:34:06Z</time>
      </trkpt>
      <trkpt lat="44.89732" lon="6.07828">
        <ele>2050</ele>
        <time>2024-08-14T07:34:07Z</time>
      </trkpt>
      <trkpt lat="44.89735" lon="6.07829">
        <ele>2049.6</ele>
        <time>2024-08-14T07:34:08Z</time>
      </trkpt>
      <trkpt lat="44.89735" lon="6.07829">
        <ele>2049.2</ele>
        <time>2024-08-14T07:34:09Z</time>
      </trkpt>
      <trkpt lat="44.89737" lon="6.07831">
        <ele>2048.8</ele>
        <time>2024-08-14T07:34:10Z</time>
      </trkpt>
      <trkpt lat="44.89737" lon="6.07831">
        <ele>2048.6</ele>
        <time>2024-08-14T07:34:11Z</time>
      </trkpt>
      <trkpt lat="44.89739" lon="6.07833">
        <ele>2048.4</ele>
        <time>2024-08-14T07:34:12Z</time>
      </trkpt>
      <trkpt lat="44.89739" lon="6.07833">
        <ele>2048.4</ele>
        <time>2024-08-14T07:34:13Z</time>
      </trkpt>
      <trkpt lat="44.89741" lon="6.07834">
        <ele>2048</ele>
        <time>2024-08-14T07:34:14Z</time>
      </trkpt>
      <trkpt lat="44.89741" lon="6.07834">
        <ele>2048</ele>
        <time>2024-08-14T07:34:15Z</time>
      </trkpt>
      <trkpt lat="44.89744" lon="6.07837">
        <ele>2047.8</ele>
        <time>2024-08-14T07:34:16Z</time>
      </trkpt>
      <trkpt lat="44.89744" lon="6.07837">
        <ele>2047.6</ele>
        <time>2024-08-14T07:34:17Z</time>
      </trkpt>
      <trkpt lat="44.89745" lon="6.07839">
        <ele>2047.4</ele>
        <time>2024-08-14T07:34:18Z</time>
      </trkpt>
      <trkpt lat="44.89745" lon="6.07839">
        <ele>2047.2</ele>
        <time>2024-08-14T07:34:19Z</time>
      </trkpt>
      <trkpt lat="44.89747" lon="6.07842">
        <ele>2047</ele>
        <time>2024-08-14T07:34:20Z</time>
      </trkpt>
      <trkpt lat="44.89747" lon="6.07842">
        <ele>2046.8</ele>
        <time>2024-08-14T07:34:21Z</time>
      </trkpt>
      <trkpt lat="44.89749" lon="6.07843">
        <ele>2046.4</ele>
        <time>2024-08-14T07:34:22Z</time>
      </trkpt>
      <trkpt lat="44.89749" lon="6.07843">
        <ele>2046.2</ele>
        <time>2024-08-14T07:34:23Z</time>
      </trkpt>
      <trkpt lat="44.89751" lon="6.07844">
        <ele>2045.8</ele>
        <time>2024-08-14T07:34:24Z</time>
      </trkpt>
      <trkpt lat="44.89751" lon="6.07844">
        <ele>2045.8</ele>
        <time>2024-08-14T07:34:25Z</time>
      </trkpt>
      <trkpt lat="44.89753" lon="6.07845">
        <ele>2045.2</ele>
        <time>2024-08-14T07:34:26Z</time>
      </trkpt>
      <trkpt lat="44.89753" lon="6.07845">
        <ele>2044.8</ele>
        <time>2024-08-14T07:34:27Z</time>
      </trkpt>
      <trkpt lat="44.89756" lon="6.07846">
        <ele>2044.6</ele>
        <time>2024-08-14T07:34:28Z</time>
      </trkpt>
      <trkpt lat="44.89756" lon="6.07846">
        <ele>2044.6</ele>
        <time>2024-08-14T07:34:29Z</time>
      </trkpt>
      <trkpt lat="44.89756" lon="6.07846">
        <ele>2044.6</ele>
        <time>2024-08-14T07:34:30Z</time>
      </trkpt>
      <trkpt lat="44.89758" lon="6.07846">
        <ele>2044.4</ele>
        <time>2024-08-14T07:34:31Z</time>
      </trkpt>
      <trkpt lat="44.89758" lon="6.07846">
        <ele>2044.4</ele>
        <time>2024-08-14T07:34:32Z</time>
      </trkpt>
      <trkpt lat="44.8976" lon="6.07848">
        <ele>2044</ele>
        <time>2024-08-14T07:34:33Z</time>
      </trkpt>
      <trkpt lat="44.8976" lon="6.07848">
        <ele>2043.6</ele>
        <time>2024-08-14T07:34:34Z</time>
      </trkpt>
      <trkpt lat="44.8976" lon="6.07848">
        <ele>2043.4</ele>
        <time>2024-08-14T07:34:35Z</time>
      </trkpt>
      <trkpt lat="44.89763" lon="6.0785">
        <ele>2042.8</ele>
        <time>2024-08-14T07:34:36Z</time>
      </trkpt>
      <trkpt lat="44.89763" lon="6.0785">
        <ele>2042.4</ele>
        <time>2024-08-14T07:34:37Z</time>
      </trkpt>
      <trkpt lat="44.89765" lon="6.07851">
        <ele>2042.2</ele>
        <time>2024-08-14T07:34:38Z</time>
      </trkpt>
      <trkpt lat="44.89765" lon="6.07851">
        <ele>2041.8</ele>
        <time>2024-08-14T07:34:39Z</time>
      </trkpt>
      <trkpt lat="44.89766" lon="6.07852">
        <ele>2041.8</ele>
        <time>2024-08-14T07:34:40Z</time>
      </trkpt>
      <trkpt lat="44.89766" lon="6.07852">
        <ele>2041.4</ele>
        <time>2024-08-14T07:34:41Z</time>
      </trkpt>
      <trkpt lat="44.89768" lon="6.07854">
        <ele>2041.2</ele>
        <time>2024-08-14T07:34:42Z</time>
      </trkpt>
      <trkpt lat="44.89768" lon="6.07854">
        <ele>2040.6</ele>
        <time>2024-08-14T07:34:43Z</time>
      </trkpt>
      <trkpt lat="44.8977" lon="6.07856">
        <ele>2040.2</ele>
        <time>2024-08-14T07:34:44Z</time>
      </trkpt>
      <trkpt lat="44.8977" lon="6.07856">
        <ele>2040.2</ele>
        <time>2024-08-14T07:34:45Z</time>
      </trkpt>
      <trkpt lat="44.8977" lon="6.07856">
        <ele>2039.8</ele>
        <time>2024-08-14T07:34:46Z</time>
      </trkpt>
      <trkpt lat="44.89772" lon="6.07858">
        <ele>2039.2</ele>
        <time>2024-08-14T07:34:47Z</time>
      </trkpt>
      <trkpt lat="44.89772" lon="6.07858">
        <ele>2038.8</ele>
        <time>2024-08-14T07:34:48Z</time>
      </trkpt>
      <trkpt lat="44.89772" lon="6.07858">
        <ele>2038.6</ele>
        <time>2024-08-14T07:34:49Z</time>
      </trkpt>
      <trkpt lat="44.89772" lon="6.07858">
        <ele>2038.6</ele>
        <time>2024-08-14T07:34:50Z</time>
      </trkpt>
      <trkpt lat="44.89771" lon="6.07854">
        <ele>2038.2</ele>
        <time>2024-08-14T07:34:51Z</time>
      </trkpt>
      <trkpt lat="44.89771" lon="6.07854">
        <ele>2038</ele>
        <time>2024-08-14T07:34:52Z</time>
      </trkpt>
      <trkpt lat="44.89768" lon="6.07852">
        <ele>2037.8</ele>
        <time>2024-08-14T07:34:53Z</time>
      </trkpt>
      <trkpt lat="44.89768" lon="6.07852">
        <ele>2037.8</ele>
        <time>2024-08-14T07:34:54Z</time>
      </trkpt>
      <trkpt lat="44.89767" lon="6.07848">
        <ele>2037.6</ele>
        <time>2024-08-14T07:34:55Z</time>
      </trkpt>
      <trkpt lat="44.89767" lon="6.07848">
        <ele>2037.4</ele>
        <time>2024-08-14T07:34:56Z</time>
      </trkpt>
      <trkpt lat="44.89765" lon="6.07846">
        <ele>2037.4</ele>
        <time>2024-08-14T07:34:57Z</time>
      </trkpt>
      <trkpt lat="44.89765" lon="6.07846">
        <ele>2037</ele>
        <time>2024-08-14T07:34:58Z</time>
      </trkpt>
      <trkpt lat="44.89764" lon="6.07843">
        <ele>2036.8</ele>
        <time>2024-08-14T07:34:59Z</time>
      </trkpt>
      <trkpt lat="44.89764" lon="6.07843">
        <ele>2036.6</ele>
        <time>2024-08-14T07:35:00Z</time>
      </trkpt>
      <trkpt lat="44.89761" lon="6.0784">
        <ele>2036.6</ele>
        <time>2024-08-14T07:35:01Z</time>
      </trkpt>
      <trkpt lat="44.89761" lon="6.0784">
        <ele>2036.6</ele>
        <time>2024-08-14T07:35:02Z</time>
      </trkpt>
      <trkpt lat="44.89759" lon="6.07838">
        <ele>2036.6</ele>
        <time>2024-08-14T07:35:03Z</time>
      </trkpt>
      <trkpt lat="44.89759" lon="6.07838">
        <ele>2036.8</ele>
        <time>2024-08-14T07:35:04Z</time>
      </trkpt>
      <trkpt lat="44.89757" lon="6.07835">
        <ele>2037</ele>
        <time>2024-08-14T07:35:05Z</time>
      </trkpt>
      <trkpt lat="44.89757" lon="6.07835">
        <ele>2037</ele>
        <time>2024-08-14T07:35:06Z</time>
      </trkpt>
      <trkpt lat="44.89757" lon="6.07833">
        <ele>2036.6</ele>
        <time>2024-08-14T07:35:07Z</time>
      </trkpt>
      <trkpt lat="44.89757" lon="6.07833">
        <ele>2036.6</ele>
        <time>2024-08-14T07:35:08Z</time>
      </trkpt>
      <trkpt lat="44.89755" lon="6.0783">
        <ele>2036.2</ele>
        <time>2024-08-14T07:35:09Z</time>
      </trkpt>
      <trkpt lat="44.89755" lon="6.0783">
        <ele>2035.6</ele>
        <time>2024-08-14T07:35:10Z</time>
      </trkpt>
      <trkpt lat="44.89753" lon="6.07827">
        <ele>2035.4</ele>
        <time>2024-08-14T07:35:11Z</time>
      </trkpt>
      <trkpt lat="44.89753" lon="6.07827">
        <ele>2035.4</ele>
        <time>2024-08-14T07:35:12Z</time>
      </trkpt>
      <trkpt lat="44.89751" lon="6.07824">
        <ele>2035.2</ele>
        <time>2024-08-14T07:35:13Z</time>
      </trkpt>
      <trkpt lat="44.89751" lon="6.07824">
        <ele>2034.8</ele>
        <time>2024-08-14T07:35:14Z</time>
      </trkpt>
      <trkpt lat="44.89749" lon="6.0782">
        <ele>2034.6</ele>
        <time>2024-08-14T07:35:15Z</time>
      </trkpt>
      <trkpt lat="44.89748" lon="6.07818">
        <ele>2034.4</ele>
        <time>2024-08-14T07:35:16Z</time>
      </trkpt>
      <trkpt lat="44.89748" lon="6.07818">
        <ele>2034.2</ele>
        <time>2024-08-14T07:35:17Z</time>
      </trkpt>
      <trkpt lat="44.89746" lon="6.07815">
        <ele>2034.2</ele>
        <time>2024-08-14T07:35:18Z</time>
      </trkpt>
      <trkpt lat="44.89746" lon="6.07815">
        <ele>2033.8</ele>
        <time>2024-08-14T07:35:19Z</time>
      </trkpt>
      <trkpt lat="44.89744" lon="6.07812">
        <ele>2033.6</ele>
        <time>2024-08-14T07:35:20Z</time>
      </trkpt>
      <trkpt lat="44.89744" lon="6.07812">
        <ele>2033.6</ele>
        <time>2024-08-14T07:35:21Z</time>
      </trkpt>
      <trkpt lat="44.89742" lon="6.07809">
        <ele>2033.4</ele>
        <time>2024-08-14T07:35:22Z</time>
      </trkpt>
      <trkpt lat="44.89742" lon="6.07809">
        <ele>2033.2</ele>
        <time>2024-08-14T07:35:23Z</time>
      </trkpt>
      <trkpt lat="44.89741" lon="6.07806">
        <ele>2032.8</ele>
        <time>2024-08-14T07:35:24Z</time>
      </trkpt>
      <trkpt lat="44.89741" lon="6.07806">
        <ele>2032.6</ele>
        <time>2024-08-14T07:35:25Z</time>
      </trkpt>
      <trkpt lat="44.89739" lon="6.07803">
        <ele>2032.4</ele>
        <time>2024-08-14T07:35:26Z</time>
      </trkpt>
      <trkpt lat="44.89739" lon="6.07803">
        <ele>2032</ele>
        <time>2024-08-14T07:35:27Z</time>
      </trkpt>
      <trkpt lat="44.89736" lon="6.07801">
        <ele>2032</ele>
        <time>2024-08-14T07:35:28Z</time>
      </trkpt>
      <trkpt lat="44.89736" lon="6.07801">
        <ele>2032</ele>
        <time>2024-08-14T07:35:29Z</time>
      </trkpt>
      <trkpt lat="44.89735" lon="6.07798">
        <ele>2032</ele>
        <time>2024-08-14T07:35:30Z</time>
      </trkpt>
      <trkpt lat="44.89735" lon="6.07798">
        <ele>2031.8</ele>
        <time>2024-08-14T07:35:31Z</time>
      </trkpt>
      <trkpt lat="44.89735" lon="6.07795">
        <ele>2031.8</ele>
        <time>2024-08-14T07:35:32Z</time>
      </trkpt>
      <trkpt lat="44.89735" lon="6.07795">
        <ele>2031.4</ele>
        <time>2024-08-14T07:35:33Z</time>
      </trkpt>
      <trkpt lat="44.89733" lon="6.07792">
        <ele>2031</ele>
        <time>2024-08-14T07:35:34Z</time>
      </trkpt>
      <trkpt lat="44.89733" lon="6.07792">
        <ele>2030.8</ele>
        <time>2024-08-14T07:35:35Z</time>
      </trkpt>
      <trkpt lat="44.89731" lon="6.07791">
        <ele>2030.4</ele>
        <time>2024-08-14T07:35:36Z</time>
      </trkpt>
      <trkpt lat="44.89731" lon="6.07791">
        <ele>2030.4</ele>
        <time>2024-08-14T07:35:37Z</time>
      </trkpt>
      <trkpt lat="44.8973" lon="6.07789">
        <ele>2030</ele>
        <time>2024-08-14T07:35:38Z</time>
      </trkpt>
      <trkpt lat="44.8973" lon="6.07789">
        <ele>2029.8</ele>
        <time>2024-08-14T07:35:39Z</time>
      </trkpt>
      <trkpt lat="44.89729" lon="6.07787">
        <ele>2029.8</ele>
        <time>2024-08-14T07:35:40Z</time>
      </trkpt>
      <trkpt lat="44.89729" lon="6.07787">
        <ele>2028.8</ele>
        <time>2024-08-14T07:35:41Z</time>
      </trkpt>
      <trkpt lat="44.89729" lon="6.07787">
        <ele>2028.6</ele>
        <time>2024-08-14T07:35:42Z</time>
      </trkpt>
      <trkpt lat="44.8973" lon="6.07784">
        <ele>2028.2</ele>
        <time>2024-08-14T07:35:43Z</time>
      </trkpt>
      <trkpt lat="44.8973" lon="6.07784">
        <ele>2027.8</ele>
        <time>2024-08-14T07:35:44Z</time>
      </trkpt>
      <trkpt lat="44.89733" lon="6.07785">
        <ele>2027.4</ele>
        <time>2024-08-14T07:35:45Z</time>
      </trkpt>
      <trkpt lat="44.89733" lon="6.07785">
        <ele>2027.2</ele>
        <time>2024-08-14T07:35:46Z</time>
      </trkpt>
      <trkpt lat="44.89736" lon="6.07786">
        <ele>2027</ele>
        <time>2024-08-14T07:35:47Z</time>
      </trkpt>
      <trkpt lat="44.89736" lon="6.07786">
        <ele>2026.6</ele>
        <time>2024-08-14T07:35:48Z</time>
      </trkpt>
      <trkpt lat="44.89739" lon="6.07787">
        <ele>2026.6</ele>
        <time>2024-08-14T07:35:49Z</time>
      </trkpt>
      <trkpt lat="44.89739" lon="6.07787">
        <ele>2026.2</ele>
        <time>2024-08-14T07:35:50Z</time>
      </trkpt>
      <trkpt lat="44.89741" lon="6.07788">
        <ele>2026.2</ele>
        <time>2024-08-14T07:35:51Z</time>
      </trkpt>
      <trkpt lat="44.89741" lon="6.07788">
        <ele>2026</ele>
        <time>2024-08-14T07:35:52Z</time>
      </trkpt>
      <trkpt lat="44.89743" lon="6.07789">
        <ele>2025.8</ele>
        <time>2024-08-14T07:35:53Z</time>
      </trkpt>
      <trkpt lat="44.89743" lon="6.07789">
        <ele>2025.6</ele>
        <time>2024-08-14T07:35:54Z</time>
      </trkpt>
      <trkpt lat="44.89744" lon="6.07791">
        <ele>2025.2</ele>
        <time>2024-08-14T07:35:55Z</time>
      </trkpt>
      <trkpt lat="44.89744" lon="6.07791">
        <ele>2025.2</ele>
        <time>2024-08-14T07:35:56Z</time>
      </trkpt>
      <trkpt lat="44.89746" lon="6.07793">
        <ele>2025</ele>
        <time>2024-08-14T07:35:57Z</time>
      </trkpt>
      <trkpt lat="44.89746" lon="6.07793">
        <ele>2024.4</ele>
        <time>2024-08-14T07:35:58Z</time>
      </trkpt>
      <trkpt lat="44.89749" lon="6.07794">
        <ele>2024.2</ele>
        <time>2024-08-14T07:35:59Z</time>
      </trkpt>
      <trkpt lat="44.89749" lon="6.07794">
        <ele>2023.8</ele>
        <time>2024-08-14T07:36:00Z</time>
      </trkpt>
      <trkpt lat="44.89752" lon="6.07795">
        <ele>2023.6</ele>
        <time>2024-08-14T07:36:01Z</time>
      </trkpt>
      <trkpt lat="44.89752" lon="6.07795">
        <ele>2022.8</ele>
        <time>2024-08-14T07:36:02Z</time>
      </trkpt>
      <trkpt lat="44.89754" lon="6.07796">
        <ele>2022.8</ele>
        <time>2024-08-14T07:36:03Z</time>
      </trkpt>
      <trkpt lat="44.89754" lon="6.07796">
        <ele>2022.8</ele>
        <time>2024-08-14T07:36:04Z</time>
      </trkpt>
      <trkpt lat="44.89756" lon="6.07797">
        <ele>2022.6</ele>
        <time>2024-08-14T07:36:05Z</time>
      </trkpt>
      <trkpt lat="44.89756" lon="6.07797">
        <ele>2022.4</ele>
        <time>2024-08-14T07:36:06Z</time>
      </trkpt>
      <trkpt lat="44.89758" lon="6.07799">
        <ele>2022.2</ele>
        <time>2024-08-14T07:36:07Z</time>
      </trkpt>
      <trkpt lat="44.89758" lon="6.07799">
        <ele>2021.6</ele>
        <time>2024-08-14T07:36:08Z</time>
      </trkpt>
      <trkpt lat="44.8976" lon="6.078">
        <ele>2021.4</ele>
        <time>2024-08-14T07:36:09Z</time>
      </trkpt>
      <trkpt lat="44.8976" lon="6.078">
        <ele>2021.4</ele>
        <time>2024-08-14T07:36:10Z</time>
      </trkpt>
      <trkpt lat="44.89763" lon="6.07802">
        <ele>2020.8</ele>
        <time>2024-08-14T07:36:11Z</time>
      </trkpt>
      <trkpt lat="44.89763" lon="6.07802">
        <ele>2020</ele>
        <time>2024-08-14T07:36:12Z</time>
      </trkpt>
      <trkpt lat="44.89765" lon="6.07803">
        <ele>2020</ele>
        <time>2024-08-14T07:36:13Z</time>
      </trkpt>
      <trkpt lat="44.89765" lon="6.07803">
        <ele>2020</ele>
        <time>2024-08-14T07:36:14Z</time>
      </trkpt>
      <trkpt lat="44.89768" lon="6.07805">
        <ele>2019.4</ele>
        <time>2024-08-14T07:36:15Z</time>
      </trkpt>
      <trkpt lat="44.89768" lon="6.07805">
        <ele>2019</ele>
        <time>2024-08-14T07:36:16Z</time>
      </trkpt>
      <trkpt lat="44.89769" lon="6.07807">
        <ele>2018.6</ele>
        <time>2024-08-14T07:36:17Z</time>
      </trkpt>
      <trkpt lat="44.89769" lon="6.07807">
        <ele>2018.4</ele>
        <time>2024-08-14T07:36:18Z</time>
      </trkpt>
      <trkpt lat="44.89772" lon="6.07809">
        <ele>2018.2</ele>
        <time>2024-08-14T07:36:19Z</time>
      </trkpt>
      <trkpt lat="44.89772" lon="6.07809">
        <ele>2018</ele>
        <time>2024-08-14T07:36:20Z</time>
      </trkpt>
      <trkpt lat="44.89773" lon="6.07811">
        <ele>2017.8</ele>
        <time>2024-08-14T07:36:21Z</time>
      </trkpt>
      <trkpt lat="44.89773" lon="6.07811">
        <ele>2017.2</ele>
        <time>2024-08-14T07:36:22Z</time>
      </trkpt>
      <trkpt lat="44.89775" lon="6.07814">
        <ele>2017.2</ele>
        <time>2024-08-14T07:36:23Z</time>
      </trkpt>
      <trkpt lat="44.89775" lon="6.07814">
        <ele>2017.2</ele>
        <time>2024-08-14T07:36:24Z</time>
      </trkpt>
      <trkpt lat="44.89779" lon="6.07816">
        <ele>2017.2</ele>
        <time>2024-08-14T07:36:25Z</time>
      </trkpt>
      <trkpt lat="44.89779" lon="6.07816">
        <ele>2016.8</ele>
        <time>2024-08-14T07:36:26Z</time>
      </trkpt>
      <trkpt lat="44.89781" lon="6.0782">
        <ele>2016.4</ele>
        <time>2024-08-14T07:36:27Z</time>
      </trkpt>
      <trkpt lat="44.89781" lon="6.0782">
        <ele>2016.2</ele>
        <time>2024-08-14T07:36:28Z</time>
      </trkpt>
      <trkpt lat="44.89782" lon="6.07823">
        <ele>2016</ele>
        <time>2024-08-14T07:36:29Z</time>
      </trkpt>
      <trkpt lat="44.89782" lon="6.07823">
        <ele>2015.6</ele>
        <time>2024-08-14T07:36:30Z</time>
      </trkpt>
      <trkpt lat="44.89782" lon="6.07823">
        <ele>2015.6</ele>
        <time>2024-08-14T07:36:31Z</time>
      </trkpt>
      <trkpt lat="44.89784" lon="6.07825">
        <ele>2015.6</ele>
        <time>2024-08-14T07:36:32Z</time>
      </trkpt>
      <trkpt lat="44.89784" lon="6.07825">
        <ele>2015.4</ele>
        <time>2024-08-14T07:36:33Z</time>
      </trkpt>
      <trkpt lat="44.89786" lon="6.07826">
        <ele>2015</ele>
        <time>2024-08-14T07:36:34Z</time>
      </trkpt>
      <trkpt lat="44.89786" lon="6.07826">
        <ele>2014.6</ele>
        <time>2024-08-14T07:36:35Z</time>
      </trkpt>
      <trkpt lat="44.89788" lon="6.07828">
        <ele>2014.2</ele>
        <time>2024-08-14T07:36:36Z</time>
      </trkpt>
      <trkpt lat="44.89788" lon="6.07828">
        <ele>2014.2</ele>
        <time>2024-08-14T07:36:37Z</time>
      </trkpt>
      <trkpt lat="44.8979" lon="6.0783">
        <ele>2013.8</ele>
        <time>2024-08-14T07:36:38Z</time>
      </trkpt>
      <trkpt lat="44.8979" lon="6.0783">
        <ele>2013.2</ele>
        <time>2024-08-14T07:36:39Z</time>
      </trkpt>
      <trkpt lat="44.89793" lon="6.07832">
        <ele>2013</ele>
        <time>2024-08-14T07:36:40Z</time>
      </trkpt>
      <trkpt lat="44.89793" lon="6.07832">
        <ele>2012.8</ele>
        <time>2024-08-14T07:36:41Z</time>
      </trkpt>
      <trkpt lat="44.89795" lon="6.07834">
        <ele>2012.4</ele>
        <time>2024-08-14T07:36:42Z</time>
      </trkpt>
      <trkpt lat="44.89795" lon="6.07834">
        <ele>2012.2</ele>
        <time>2024-08-14T07:36:43Z</time>
      </trkpt>
      <trkpt lat="44.89797" lon="6.07835">
        <ele>2012</ele>
        <time>2024-08-14T07:36:44Z</time>
      </trkpt>
      <trkpt lat="44.89797" lon="6.07835">
        <ele>2011.6</ele>
        <time>2024-08-14T07:36:45Z</time>
      </trkpt>
      <trkpt lat="44.89799" lon="6.07838">
        <ele>2011.4</ele>
        <time>2024-08-14T07:36:46Z</time>
      </trkpt>
      <trkpt lat="44.89799" lon="6.07838">
        <ele>2011</ele>
        <time>2024-08-14T07:36:47Z</time>
      </trkpt>
      <trkpt lat="44.89802" lon="6.07839">
        <ele>2010.6</ele>
        <time>2024-08-14T07:36:48Z</time>
      </trkpt>
      <trkpt lat="44.89802" lon="6.07839">
        <ele>2010.6</ele>
        <time>2024-08-14T07:36:49Z</time>
      </trkpt>
      <trkpt lat="44.89804" lon="6.07842">
        <ele>2010.2</ele>
        <time>2024-08-14T07:36:50Z</time>
      </trkpt>
      <trkpt lat="44.89804" lon="6.07842">
        <ele>2010</ele>
        <time>2024-08-14T07:36:51Z</time>
      </trkpt>
      <trkpt lat="44.89806" lon="6.07845">
        <ele>2009.8</ele>
        <time>2024-08-14T07:36:52Z</time>
      </trkpt>
      <trkpt lat="44.89806" lon="6.07845">
        <ele>2009.6</ele>
        <time>2024-08-14T07:36:53Z</time>
      </trkpt>
      <trkpt lat="44.89808" lon="6.07847">
        <ele>2009.2</ele>
        <time>2024-08-14T07:36:54Z</time>
      </trkpt>
      <trkpt lat="44.89808" lon="6.07847">
        <ele>2009</ele>
        <time>2024-08-14T07:36:55Z</time>
      </trkpt>
      <trkpt lat="44.8981" lon="6.07848">
        <ele>2008.8</ele>
        <time>2024-08-14T07:36:56Z</time>
      </trkpt>
      <trkpt lat="44.8981" lon="6.07848">
        <ele>2008.2</ele>
        <time>2024-08-14T07:36:57Z</time>
      </trkpt>
      <trkpt lat="44.89813" lon="6.07851">
        <ele>2008.2</ele>
        <time>2024-08-14T07:36:58Z</time>
      </trkpt>
      <trkpt lat="44.89813" lon="6.07851">
        <ele>2007.6</ele>
        <time>2024-08-14T07:36:59Z</time>
      </trkpt>
      <trkpt lat="44.89814" lon="6.07853">
        <ele>2007.4</ele>
        <time>2024-08-14T07:37:00Z</time>
      </trkpt>
      <trkpt lat="44.89814" lon="6.07853">
        <ele>2007.2</ele>
        <time>2024-08-14T07:37:01Z</time>
      </trkpt>
      <trkpt lat="44.89816" lon="6.07854">
        <ele>2006.8</ele>
        <time>2024-08-14T07:37:02Z</time>
      </trkpt>
      <trkpt lat="44.89816" lon="6.07854">
        <ele>2006.8</ele>
        <time>2024-08-14T07:37:03Z</time>
      </trkpt>
      <trkpt lat="44.89818" lon="6.07856">
        <ele>2006.8</ele>
        <time>2024-08-14T07:37:04Z</time>
      </trkpt>
      <trkpt lat="44.89818" lon="6.07856">
        <ele>2006.6</ele>
        <time>2024-08-14T07:37:05Z</time>
      </trkpt>
      <trkpt lat="44.89818" lon="6.07856">
        <ele>2006</ele>
        <time>2024-08-14T07:37:06Z</time>
      </trkpt>
      <trkpt lat="44.8982" lon="6.07857">
        <ele>2005.8</ele>
        <time>2024-08-14T07:37:07Z</time>
      </trkpt>
      <trkpt lat="44.8982" lon="6.07857">
        <ele>2005.6</ele>
        <time>2024-08-14T07:37:08Z</time>
      </trkpt>
      <trkpt lat="44.8982" lon="6.07857">
        <ele>2005.6</ele>
        <time>2024-08-14T07:37:09Z</time>
      </trkpt>
      <trkpt lat="44.89819" lon="6.07854">
        <ele>2005.2</ele>
        <time>2024-08-14T07:37:10Z</time>
      </trkpt>
      <trkpt lat="44.89819" lon="6.07854">
        <ele>2004.6</ele>
        <time>2024-08-14T07:37:11Z</time>
      </trkpt>
      <trkpt lat="44.89817" lon="6.07851">
        <ele>2004.4</ele>
        <time>2024-08-14T07:37:12Z</time>
      </trkpt>
      <trkpt lat="44.89817" lon="6.07851">
        <ele>2004</ele>
        <time>2024-08-14T07:37:13Z</time>
      </trkpt>
      <trkpt lat="44.89815" lon="6.07849">
        <ele>2004</ele>
        <time>2024-08-14T07:37:14Z</time>
      </trkpt>
      <trkpt lat="44.89815" lon="6.07849">
        <ele>2003.6</ele>
        <time>2024-08-14T07:37:15Z</time>
      </trkpt>
      <trkpt lat="44.89815" lon="6.07849">
        <ele>2003.6</ele>
        <time>2024-08-14T07:37:16Z</time>
      </trkpt>
      <trkpt lat="44.89813" lon="6.07845">
        <ele>2003.2</ele>
        <time>2024-08-14T07:37:17Z</time>
      </trkpt>
      <trkpt lat="44.89813" lon="6.07845">
        <ele>2003</ele>
        <time>2024-08-14T07:37:18Z</time>
      </trkpt>
      <trkpt lat="44.89812" lon="6.07842">
        <ele>2002.6</ele>
        <time>2024-08-14T07:37:19Z</time>
      </trkpt>
      <trkpt lat="44.89812" lon="6.07842">
        <ele>2002.4</ele>
        <time>2024-08-14T07:37:20Z</time>
      </trkpt>
      <trkpt lat="44.89811" lon="6.07838">
        <ele>2002.2</ele>
        <time>2024-08-14T07:37:21Z</time>
      </trkpt>
      <trkpt lat="44.89811" lon="6.07838">
        <ele>2001.8</ele>
        <time>2024-08-14T07:37:22Z</time>
      </trkpt>
      <trkpt lat="44.89809" lon="6.07835">
        <ele>2001.4</ele>
        <time>2024-08-14T07:37:23Z</time>
      </trkpt>
      <trkpt lat="44.89809" lon="6.07835">
        <ele>2001</ele>
        <time>2024-08-14T07:37:24Z</time>
      </trkpt>
      <trkpt lat="44.89807" lon="6.07832">
        <ele>2001</ele>
        <time>2024-08-14T07:37:25Z</time>
      </trkpt>
      <trkpt lat="44.89807" lon="6.07832">
        <ele>2000.8</ele>
        <time>2024-08-14T07:37:26Z</time>
      </trkpt>
      <trkpt lat="44.89805" lon="6.0783">
        <ele>2000.6</ele>
        <time>2024-08-14T07:37:27Z</time>
      </trkpt>
      <trkpt lat="44.89805" lon="6.0783">
        <ele>2000.6</ele>
        <time>2024-08-14T07:37:28Z</time>
      </trkpt>
      <trkpt lat="44.89804" lon="6.07827">
        <ele>2000.4</ele>
        <time>2024-08-14T07:37:29Z</time>
      </trkpt>
      <trkpt lat="44.89804" lon="6.07827">
        <ele>2000.4</ele>
        <time>2024-08-14T07:37:30Z</time>
      </trkpt>
      <trkpt lat="44.89803" lon="6.07823">
        <ele>2000.4</ele>
        <time>2024-08-14T07:37:31Z</time>
      </trkpt>
      <trkpt lat="44.89803" lon="6.07823">
        <ele>2000.4</ele>
        <time>2024-08-14T07:37:32Z</time>
      </trkpt>
      <trkpt lat="44.89801" lon="6.07819">
        <ele>2000</ele>
        <time>2024-08-14T07:37:33Z</time>
      </trkpt>
      <trkpt lat="44.89801" lon="6.07819">
        <ele>1999.8</ele>
        <time>2024-08-14T07:37:34Z</time>
      </trkpt>
      <trkpt lat="44.898" lon="6.07816">
        <ele>1999.4</ele>
        <time>2024-08-14T07:37:35Z</time>
      </trkpt>
      <trkpt lat="44.898" lon="6.07816">
        <ele>1999.4</ele>
        <time>2024-08-14T07:37:36Z</time>
      </trkpt>
      <trkpt lat="44.89798" lon="6.07812">
        <ele>1999</ele>
        <time>2024-08-14T07:37:37Z</time>
      </trkpt>
      <trkpt lat="44.89798" lon="6.07812">
        <ele>1998.6</ele>
        <time>2024-08-14T07:37:38Z</time>
      </trkpt>
      <trkpt lat="44.89797" lon="6.07808">
        <ele>1998.6</ele>
        <time>2024-08-14T07:37:39Z</time>
      </trkpt>
      <trkpt lat="44.89797" lon="6.07808">
        <ele>1998.4</ele>
        <time>2024-08-14T07:37:40Z</time>
      </trkpt>
      <trkpt lat="44.89798" lon="6.07805">
        <ele>1998.2</ele>
        <time>2024-08-14T07:37:41Z</time>
      </trkpt>
      <trkpt lat="44.89798" lon="6.07805">
        <ele>1998</ele>
        <time>2024-08-14T07:37:42Z</time>
      </trkpt>
      <trkpt lat="44.89797" lon="6.07802">
        <ele>1998</ele>
        <time>2024-08-14T07:37:43Z</time>
      </trkpt>
      <trkpt lat="44.89797" lon="6.07802">
        <ele>1997.8</ele>
        <time>2024-08-14T07:37:44Z</time>
      </trkpt>
      <trkpt lat="44.89796" lon="6.07798">
        <ele>1997.4</ele>
        <time>2024-08-14T07:37:45Z</time>
      </trkpt>
      <trkpt lat="44.89796" lon="6.07798">
        <ele>1997</ele>
        <time>2024-08-14T07:37:46Z</time>
      </trkpt>
      <trkpt lat="44.89795" lon="6.07795">
        <ele>1996.6</ele>
        <time>2024-08-14T07:37:47Z</time>
      </trkpt>
      <trkpt lat="44.89795" lon="6.07795">
        <ele>1996.6</ele>
        <time>2024-08-14T07:37:48Z</time>
      </trkpt>
      <trkpt lat="44.89793" lon="6.07791">
        <ele>1996.2</ele>
        <time>2024-08-14T07:37:49Z</time>
      </trkpt>
      <trkpt lat="44.89793" lon="6.07791">
        <ele>1996</ele>
        <time>2024-08-14T07:37:50Z</time>
      </trkpt>
      <trkpt lat="44.89792" lon="6.07788">
        <ele>1995.6</ele>
        <time>2024-08-14T07:37:51Z</time>
      </trkpt>
      <trkpt lat="44.89792" lon="6.07788">
        <ele>1995.4</ele>
        <time>2024-08-14T07:37:52Z</time>
      </trkpt>
      <trkpt lat="44.8979" lon="6.07785">
        <ele>1995</ele>
        <time>2024-08-14T07:37:53Z</time>
      </trkpt>
      <trkpt lat="44.8979" lon="6.07785">
        <ele>1994.8</ele>
        <time>2024-08-14T07:37:54Z</time>
      </trkpt>
      <trkpt lat="44.89789" lon="6.07783">
        <ele>1994.8</ele>
        <time>2024-08-14T07:37:55Z</time>
      </trkpt>
      <trkpt lat="44.89789" lon="6.07783">
        <ele>1994.6</ele>
        <time>2024-08-14T07:37:56Z</time>
      </trkpt>
      <trkpt lat="44.89788" lon="6.0778">
        <ele>1994.4</ele>
        <time>2024-08-14T07:37:57Z</time>
      </trkpt>
      <trkpt lat="44.89788" lon="6.0778">
        <ele>1994.2</ele>
        <time>2024-08-14T07:37:58Z</time>
      </trkpt>
      <trkpt lat="44.89786" lon="6.07776">
        <ele>1993.8</ele>
        <time>2024-08-14T07:37:59Z</time>
      </trkpt>
      <trkpt lat="44.89785" lon="6.07774">
        <ele>1993.2</ele>
        <time>2024-08-14T07:38:00Z</time>
      </trkpt>
      <trkpt lat="44.89785" lon="6.07774">
        <ele>1993.2</ele>
        <time>2024-08-14T07:38:01Z</time>
      </trkpt>
      <trkpt lat="44.89784" lon="6.07771">
        <ele>1992.8</ele>
        <time>2024-08-14T07:38:02Z</time>
      </trkpt>
      <trkpt lat="44.89784" lon="6.07771">
        <ele>1992.8</ele>
        <time>2024-08-14T07:38:03Z</time>
      </trkpt>
      <trkpt lat="44.89782" lon="6.07767">
        <ele>1992.6</ele>
        <time>2024-08-14T07:38:04Z</time>
      </trkpt>
      <trkpt lat="44.89782" lon="6.07767">
        <ele>1992.4</ele>
        <time>2024-08-14T07:38:05Z</time>
      </trkpt>
      <trkpt lat="44.89781" lon="6.07764">
        <ele>1992.2</ele>
        <time>2024-08-14T07:38:06Z</time>
      </trkpt>
      <trkpt lat="44.89781" lon="6.07764">
        <ele>1992.2</ele>
        <time>2024-08-14T07:38:07Z</time>
      </trkpt>
      <trkpt lat="44.8978" lon="6.07761">
        <ele>1992.2</ele>
        <time>2024-08-14T07:38:08Z</time>
      </trkpt>
      <trkpt lat="44.8978" lon="6.07761">
        <ele>1992</ele>
        <time>2024-08-14T07:38:09Z</time>
      </trkpt>
      <trkpt lat="44.89779" lon="6.07758">
        <ele>1991.2</ele>
        <time>2024-08-14T07:38:10Z</time>
      </trkpt>
      <trkpt lat="44.89779" lon="6.07758">
        <ele>1990.8</ele>
        <time>2024-08-14T07:38:11Z</time>
      </trkpt>
      <trkpt lat="44.89778" lon="6.07754">
        <ele>1990.4</ele>
        <time>2024-08-14T07:38:12Z</time>
      </trkpt>
      <trkpt lat="44.89778" lon="6.07754">
        <ele>1990.4</ele>
        <time>2024-08-14T07:38:13Z</time>
      </trkpt>
      <trkpt lat="44.89777" lon="6.07751">
        <ele>1990.4</ele>
        <time>2024-08-14T07:38:14Z</time>
      </trkpt>
      <trkpt lat="44.89777" lon="6.07751">
        <ele>1990.4</ele>
        <time>2024-08-14T07:38:15Z</time>
      </trkpt>
      <trkpt lat="44.89775" lon="6.07747">
        <ele>1990.2</ele>
        <time>2024-08-14T07:38:16Z</time>
      </trkpt>
      <trkpt lat="44.89775" lon="6.07747">
        <ele>1990</ele>
        <time>2024-08-14T07:38:17Z</time>
      </trkpt>
      <trkpt lat="44.89773" lon="6.07744">
        <ele>1989.8</ele>
        <time>2024-08-14T07:38:18Z</time>
      </trkpt>
      <trkpt lat="44.89773" lon="6.07744">
        <ele>1989.4</ele>
        <time>2024-08-14T07:38:19Z</time>
      </trkpt>
      <trkpt lat="44.89774" lon="6.07742">
        <ele>1989</ele>
        <time>2024-08-14T07:38:20Z</time>
      </trkpt>
      <trkpt lat="44.89774" lon="6.07742">
        <ele>1988.6</ele>
        <time>2024-08-14T07:38:21Z</time>
      </trkpt>
      <trkpt lat="44.89774" lon="6.07742">
        <ele>1988.4</ele>
        <time>2024-08-14T07:38:22Z</time>
      </trkpt>
      <trkpt lat="44.89777" lon="6.07743">
        <ele>1988</ele>
        <time>2024-08-14T07:38:23Z</time>
      </trkpt>
      <trkpt lat="44.89777" lon="6.07743">
        <ele>1987.8</ele>
        <time>2024-08-14T07:38:24Z</time>
      </trkpt>
      <trkpt lat="44.8978" lon="6.07744">
        <ele>1987.6</ele>
        <time>2024-08-14T07:38:25Z</time>
      </trkpt>
      <trkpt lat="44.8978" lon="6.07744">
        <ele>1987.2</ele>
        <time>2024-08-14T07:38:26Z</time>
      </trkpt>
      <trkpt lat="44.89783" lon="6.07746">
        <ele>1987</ele>
        <time>2024-08-14T07:38:27Z</time>
      </trkpt>
      <trkpt lat="44.89783" lon="6.07746">
        <ele>1986.6</ele>
        <time>2024-08-14T07:38:28Z</time>
      </trkpt>
      <trkpt lat="44.89785" lon="6.07748">
        <ele>1986.4</ele>
        <time>2024-08-14T07:38:29Z</time>
      </trkpt>
      <trkpt lat="44.89785" lon="6.07748">
        <ele>1986.4</ele>
        <time>2024-08-14T07:38:30Z</time>
      </trkpt>
      <trkpt lat="44.89786" lon="6.07751">
        <ele>1986.2</ele>
        <time>2024-08-14T07:38:31Z</time>
      </trkpt>
      <trkpt lat="44.89786" lon="6.07751">
        <ele>1985.8</ele>
        <time>2024-08-14T07:38:32Z</time>
      </trkpt>
      <trkpt lat="44.89789" lon="6.07753">
        <ele>1985.4</ele>
        <time>2024-08-14T07:38:33Z</time>
      </trkpt>
      <trkpt lat="44.89789" lon="6.07753">
        <ele>1985.4</ele>
        <time>2024-08-14T07:38:34Z</time>
      </trkpt>
      <trkpt lat="44.89791" lon="6.07755">
        <ele>1985.2</ele>
        <time>2024-08-14T07:38:35Z</time>
      </trkpt>
      <trkpt lat="44.89791" lon="6.07755">
        <ele>1985</ele>
        <time>2024-08-14T07:38:36Z</time>
      </trkpt>
      <trkpt lat="44.89793" lon="6.07757">
        <ele>1984.6</ele>
        <time>2024-08-14T07:38:37Z</time>
      </trkpt>
      <trkpt lat="44.89793" lon="6.07757">
        <ele>1984.2</ele>
        <time>2024-08-14T07:38:38Z</time>
      </trkpt>
      <trkpt lat="44.89796" lon="6.07758">
        <ele>1983.8</ele>
        <time>2024-08-14T07:38:39Z</time>
      </trkpt>
      <trkpt lat="44.89796" lon="6.07758">
        <ele>1983.8</ele>
        <time>2024-08-14T07:38:40Z</time>
      </trkpt>
      <trkpt lat="44.89796" lon="6.07758">
        <ele>1983.8</ele>
        <time>2024-08-14T07:38:41Z</time>
      </trkpt>
      <trkpt lat="44.89799" lon="6.07759">
        <ele>1983.4</ele>
        <time>2024-08-14T07:38:42Z</time>
      </trkpt>
      <trkpt lat="44.89799" lon="6.07759">
        <ele>1982.8</ele>
        <time>2024-08-14T07:38:43Z</time>
      </trkpt>
      <trkpt lat="44.89801" lon="6.07761">
        <ele>1982.6</ele>
        <time>2024-08-14T07:38:44Z</time>
      </trkpt>
      <trkpt lat="44.89801" lon="6.07761">
        <ele>1982.4</ele>
        <time>2024-08-14T07:38:45Z</time>
      </trkpt>
      <trkpt lat="44.89803" lon="6.07762">
        <ele>1981.8</ele>
        <time>2024-08-14T07:38:46Z</time>
      </trkpt>
      <trkpt lat="44.89803" lon="6.07762">
        <ele>1981.4</ele>
        <time>2024-08-14T07:38:47Z</time>
      </trkpt>
      <trkpt lat="44.89806" lon="6.07764">
        <ele>1981.2</ele>
        <time>2024-08-14T07:38:48Z</time>
      </trkpt>
      <trkpt lat="44.89806" lon="6.07764">
        <ele>1980.6</ele>
        <time>2024-08-14T07:38:49Z</time>
      </trkpt>
      <trkpt lat="44.89809" lon="6.07766">
        <ele>1980.2</ele>
        <time>2024-08-14T07:38:50Z</time>
      </trkpt>
      <trkpt lat="44.89809" lon="6.07766">
        <ele>1979.8</ele>
        <time>2024-08-14T07:38:51Z</time>
      </trkpt>
      <trkpt lat="44.8981" lon="6.07769">
        <ele>1979.6</ele>
        <time>2024-08-14T07:38:52Z</time>
      </trkpt>
      <trkpt lat="44.8981" lon="6.07769">
        <ele>1979</ele>
        <time>2024-08-14T07:38:53Z</time>
      </trkpt>
      <trkpt lat="44.89812" lon="6.07771">
        <ele>1979</ele>
        <time>2024-08-14T07:38:54Z</time>
      </trkpt>
      <trkpt lat="44.89812" lon="6.07771">
        <ele>1979</ele>
        <time>2024-08-14T07:38:55Z</time>
      </trkpt>
      <trkpt lat="44.89814" lon="6.07773">
        <ele>1978.8</ele>
        <time>2024-08-14T07:38:56Z</time>
      </trkpt>
      <trkpt lat="44.89814" lon="6.07773">
        <ele>1978.6</ele>
        <time>2024-08-14T07:38:57Z</time>
      </trkpt>
      <trkpt lat="44.89814" lon="6.07773">
        <ele>1978.6</ele>
        <time>2024-08-14T07:38:58Z</time>
      </trkpt>
      <trkpt lat="44.89814" lon="6.07773">
        <ele>1978.4</ele>
        <time>2024-08-14T07:38:59Z</time>
      </trkpt>
      <trkpt lat="44.89813" lon="6.0777">
        <ele>1977.8</ele>
        <time>2024-08-14T07:39:00Z</time>
      </trkpt>
      <trkpt lat="44.89813" lon="6.0777">
        <ele>1977.6</ele>
        <time>2024-08-14T07:39:01Z</time>
      </trkpt>
      <trkpt lat="44.89811" lon="6.07767">
        <ele>1977.4</ele>
        <time>2024-08-14T07:39:02Z</time>
      </trkpt>
      <trkpt lat="44.89811" lon="6.07767">
        <ele>1977.4</ele>
        <time>2024-08-14T07:39:03Z</time>
      </trkpt>
      <trkpt lat="44.89809" lon="6.07764">
        <ele>1977.4</ele>
        <time>2024-08-14T07:39:04Z</time>
      </trkpt>
      <trkpt lat="44.89809" lon="6.07764">
        <ele>1977</ele>
        <time>2024-08-14T07:39:05Z</time>
      </trkpt>
      <trkpt lat="44.89807" lon="6.07761">
        <ele>1976.6</ele>
        <time>2024-08-14T07:39:06Z</time>
      </trkpt>
      <trkpt lat="44.89807" lon="6.07761">
        <ele>1976.4</ele>
        <time>2024-08-14T07:39:07Z</time>
      </trkpt>
      <trkpt lat="44.89805" lon="6.07758">
        <ele>1976.4</ele>
        <time>2024-08-14T07:39:08Z</time>
      </trkpt>
      <trkpt lat="44.89805" lon="6.07758">
        <ele>1976.2</ele>
        <time>2024-08-14T07:39:09Z</time>
      </trkpt>
      <trkpt lat="44.89804" lon="6.07754">
        <ele>1976</ele>
        <time>2024-08-14T07:39:10Z</time>
      </trkpt>
      <trkpt lat="44.89804" lon="6.07754">
        <ele>1975.6</ele>
        <time>2024-08-14T07:39:11Z</time>
      </trkpt>
      <trkpt lat="44.89803" lon="6.07751">
        <ele>1975.4</ele>
        <time>2024-08-14T07:39:12Z</time>
      </trkpt>
      <trkpt lat="44.89803" lon="6.07751">
        <ele>1975.2</ele>
        <time>2024-08-14T07:39:13Z</time>
      </trkpt>
      <trkpt lat="44.89801" lon="6.07748">
        <ele>1975</ele>
        <time>2024-08-14T07:39:14Z</time>
      </trkpt>
      <trkpt lat="44.89801" lon="6.07748">
        <ele>1974.8</ele>
        <time>2024-08-14T07:39:15Z</time>
      </trkpt>
      <trkpt lat="44.89799" lon="6.07745">
        <ele>1974.8</ele>
        <time>2024-08-14T07:39:16Z</time>
      </trkpt>
      <trkpt lat="44.89799" lon="6.07745">
        <ele>1974.8</ele>
        <time>2024-08-14T07:39:17Z</time>
      </trkpt>
      <trkpt lat="44.89798" lon="6.07742">
        <ele>1974.4</ele>
        <time>2024-08-14T07:39:18Z</time>
      </trkpt>
      <trkpt lat="44.89798" lon="6.07742">
        <ele>1974.2</ele>
        <time>2024-08-14T07:39:19Z</time>
      </trkpt>
      <trkpt lat="44.89797" lon="6.0774">
        <ele>1974</ele>
        <time>2024-08-14T07:39:20Z</time>
      </trkpt>
      <trkpt lat="44.89797" lon="6.0774">
        <ele>1973.8</ele>
        <time>2024-08-14T07:39:21Z</time>
      </trkpt>
      <trkpt lat="44.89797" lon="6.0774">
        <ele>1973.4</ele>
        <time>2024-08-14T07:39:22Z</time>
      </trkpt>
      <trkpt lat="44.89795" lon="6.07738">
        <ele>1973.2</ele>
        <time>2024-08-14T07:39:23Z</time>
      </trkpt>
      <trkpt lat="44.89795" lon="6.07738">
        <ele>1973</ele>
        <time>2024-08-14T07:39:24Z</time>
      </trkpt>
      <trkpt lat="44.89794" lon="6.07735">
        <ele>1973</ele>
        <time>2024-08-14T07:39:25Z</time>
      </trkpt>
      <trkpt lat="44.89794" lon="6.07735">
        <ele>1972.6</ele>
        <time>2024-08-14T07:39:26Z</time>
      </trkpt>
      <trkpt lat="44.89793" lon="6.07732">
        <ele>1972</ele>
        <time>2024-08-14T07:39:27Z</time>
      </trkpt>
      <trkpt lat="44.89793" lon="6.07732">
        <ele>1971.6</ele>
        <time>2024-08-14T07:39:28Z</time>
      </trkpt>
      <trkpt lat="44.89793" lon="6.07732">
        <ele>1971.4</ele>
        <time>2024-08-14T07:39:29Z</time>
      </trkpt>
      <trkpt lat="44.89793" lon="6.07732">
        <ele>1971.2</ele>
        <time>2024-08-14T07:39:30Z</time>
      </trkpt>
      <trkpt lat="44.89795" lon="6.07732">
        <ele>1970.8</ele>
        <time>2024-08-14T07:39:31Z</time>
      </trkpt>
      <trkpt lat="44.89795" lon="6.07732">
        <ele>1970.8</ele>
        <time>2024-08-14T07:39:32Z</time>
      </trkpt>
      <trkpt lat="44.89797" lon="6.07734">
        <ele>1970.6</ele>
        <time>2024-08-14T07:39:33Z</time>
      </trkpt>
      <trkpt lat="44.89797" lon="6.07734">
        <ele>1970.2</ele>
        <time>2024-08-14T07:39:34Z</time>
      </trkpt>
      <trkpt lat="44.89801" lon="6.07735">
        <ele>1970.2</ele>
        <time>2024-08-14T07:39:35Z</time>
      </trkpt>
      <trkpt lat="44.89801" lon="6.07735">
        <ele>1970</ele>
        <time>2024-08-14T07:39:36Z</time>
      </trkpt>
      <trkpt lat="44.89805" lon="6.07738">
        <ele>1969.6</ele>
        <time>2024-08-14T07:39:37Z</time>
      </trkpt>
      <trkpt lat="44.89806" lon="6.07738">
        <ele>1969.2</ele>
        <time>2024-08-14T07:39:38Z</time>
      </trkpt>
      <trkpt lat="44.89806" lon="6.07738">
        <ele>1968.6</ele>
        <time>2024-08-14T07:39:39Z</time>
      </trkpt>
      <trkpt lat="44.89809" lon="6.07741">
        <ele>1968.2</ele>
        <time>2024-08-14T07:39:40Z</time>
      </trkpt>
      <trkpt lat="44.89809" lon="6.07741">
        <ele>1968.2</ele>
        <time>2024-08-14T07:39:41Z</time>
      </trkpt>
      <trkpt lat="44.89811" lon="6.07744">
        <ele>1968.2</ele>
        <time>2024-08-14T07:39:42Z</time>
      </trkpt>
      <trkpt lat="44.89811" lon="6.07744">
        <ele>1968</ele>
        <time>2024-08-14T07:39:43Z</time>
      </trkpt>
      <trkpt lat="44.89813" lon="6.07746">
        <ele>1968</ele>
        <time>2024-08-14T07:39:44Z</time>
      </trkpt>
      <trkpt lat="44.89813" lon="6.07746">
        <ele>1968</ele>
        <time>2024-08-14T07:39:45Z</time>
      </trkpt>
      <trkpt lat="44.89816" lon="6.07748">
        <ele>1967.6</ele>
        <time>2024-08-14T07:39:46Z</time>
      </trkpt>
      <trkpt lat="44.89816" lon="6.07748">
        <ele>1967.4</ele>
        <time>2024-08-14T07:39:47Z</time>
      </trkpt>
      <trkpt lat="44.89818" lon="6.0775">
        <ele>1967.2</ele>
        <time>2024-08-14T07:39:48Z</time>
      </trkpt>
      <trkpt lat="44.89818" lon="6.0775">
        <ele>1967</ele>
        <time>2024-08-14T07:39:49Z</time>
      </trkpt>
      <trkpt lat="44.89821" lon="6.07751">
        <ele>1966.4</ele>
        <time>2024-08-14T07:39:50Z</time>
      </trkpt>
      <trkpt lat="44.89822" lon="6.07753">
        <ele>1966</ele>
        <time>2024-08-14T07:39:51Z</time>
      </trkpt>
      <trkpt lat="44.89822" lon="6.07753">
        <ele>1965.4</ele>
        <time>2024-08-14T07:39:52Z</time>
      </trkpt>
      <trkpt lat="44.89824" lon="6.07755">
        <ele>1965.2</ele>
        <time>2024-08-14T07:39:53Z</time>
      </trkpt>
      <trkpt lat="44.89824" lon="6.07755">
        <ele>1965</ele>
        <time>2024-08-14T07:39:54Z</time>
      </trkpt>
      <trkpt lat="44.89825" lon="6.07757">
        <ele>1964.8</ele>
        <time>2024-08-14T07:39:55Z</time>
      </trkpt>
      <trkpt lat="44.89827" lon="6.07759">
        <ele>1964.8</ele>
        <time>2024-08-14T07:39:56Z</time>
      </trkpt>
      <trkpt lat="44.89827" lon="6.07759">
        <ele>1964.8</ele>
        <time>2024-08-14T07:39:57Z</time>
      </trkpt>
      <trkpt lat="44.89829" lon="6.07761">
        <ele>1964.4</ele>
        <time>2024-08-14T07:39:58Z</time>
      </trkpt>
      <trkpt lat="44.89829" lon="6.07761">
        <ele>1964.4</ele>
        <time>2024-08-14T07:39:59Z</time>
      </trkpt>
      <trkpt lat="44.89831" lon="6.07763">
        <ele>1963.8</ele>
        <time>2024-08-14T07:40:00Z</time>
      </trkpt>
      <trkpt lat="44.89831" lon="6.07763">
        <ele>1963.4</ele>
        <time>2024-08-14T07:40:01Z</time>
      </trkpt>
      <trkpt lat="44.89834" lon="6.07766">
        <ele>1963</ele>
        <time>2024-08-14T07:40:02Z</time>
      </trkpt>
      <trkpt lat="44.89834" lon="6.07766">
        <ele>1962.6</ele>
        <time>2024-08-14T07:40:03Z</time>
      </trkpt>
      <trkpt lat="44.89837" lon="6.07768">
        <ele>1962.4</ele>
        <time>2024-08-14T07:40:04Z</time>
      </trkpt>
      <trkpt lat="44.89837" lon="6.07768">
        <ele>1961.8</ele>
        <time>2024-08-14T07:40:05Z</time>
      </trkpt>
      <trkpt lat="44.89839" lon="6.0777">
        <ele>1961.4</ele>
        <time>2024-08-14T07:40:06Z</time>
      </trkpt>
      <trkpt lat="44.89839" lon="6.0777">
        <ele>1961.2</ele>
        <time>2024-08-14T07:40:07Z</time>
      </trkpt>
      <trkpt lat="44.89842" lon="6.07772">
        <ele>1960.8</ele>
        <time>2024-08-14T07:40:08Z</time>
      </trkpt>
      <trkpt lat="44.89842" lon="6.07772">
        <ele>1960.6</ele>
        <time>2024-08-14T07:40:09Z</time>
      </trkpt>
      <trkpt lat="44.89844" lon="6.07776">
        <ele>1960.2</ele>
        <time>2024-08-14T07:40:10Z</time>
      </trkpt>
      <trkpt lat="44.89844" lon="6.07776">
        <ele>1959.8</ele>
        <time>2024-08-14T07:40:11Z</time>
      </trkpt>
      <trkpt lat="44.89846" lon="6.07778">
        <ele>1959.6</ele>
        <time>2024-08-14T07:40:12Z</time>
      </trkpt>
      <trkpt lat="44.89846" lon="6.07778">
        <ele>1959.6</ele>
        <time>2024-08-14T07:40:13Z</time>
      </trkpt>
      <trkpt lat="44.89849" lon="6.0778">
        <ele>1959.6</ele>
        <time>2024-08-14T07:40:14Z</time>
      </trkpt>
      <trkpt lat="44.89849" lon="6.0778">
        <ele>1959.6</ele>
        <time>2024-08-14T07:40:15Z</time>
      </trkpt>
      <trkpt lat="44.89851" lon="6.07782">
        <ele>1959</ele>
        <time>2024-08-14T07:40:16Z</time>
      </trkpt>
      <trkpt lat="44.89851" lon="6.07782">
        <ele>1958.6</ele>
        <time>2024-08-14T07:40:17Z</time>
      </trkpt>
      <trkpt lat="44.89854" lon="6.07785">
        <ele>1958.4</ele>
        <time>2024-08-14T07:40:18Z</time>
      </trkpt>
      <trkpt lat="44.89854" lon="6.07785">
        <ele>1958.2</ele>
        <time>2024-08-14T07:40:19Z</time>
      </trkpt>
      <trkpt lat="44.89856" lon="6.07787">
        <ele>1957.6</ele>
        <time>2024-08-14T07:40:20Z</time>
      </trkpt>
      <trkpt lat="44.89856" lon="6.07787">
        <ele>1957.2</ele>
        <time>2024-08-14T07:40:21Z</time>
      </trkpt>
      <trkpt lat="44.89858" lon="6.0779">
        <ele>1957.2</ele>
        <time>2024-08-14T07:40:22Z</time>
      </trkpt>
      <trkpt lat="44.89858" lon="6.0779">
        <ele>1956.8</ele>
        <time>2024-08-14T07:40:23Z</time>
      </trkpt>
      <trkpt lat="44.8986" lon="6.07792">
        <ele>1956.4</ele>
        <time>2024-08-14T07:40:24Z</time>
      </trkpt>
      <trkpt lat="44.8986" lon="6.07792">
        <ele>1956.4</ele>
        <time>2024-08-14T07:40:25Z</time>
      </trkpt>
      <trkpt lat="44.89861" lon="6.07793">
        <ele>1956.2</ele>
        <time>2024-08-14T07:40:26Z</time>
      </trkpt>
      <trkpt lat="44.89861" lon="6.07793">
        <ele>1956</ele>
        <time>2024-08-14T07:40:27Z</time>
      </trkpt>
      <trkpt lat="44.89863" lon="6.07795">
        <ele>1955.2</ele>
        <time>2024-08-14T07:40:28Z</time>
      </trkpt>
      <trkpt lat="44.89863" lon="6.07795">
        <ele>1955</ele>
        <time>2024-08-14T07:40:29Z</time>
      </trkpt>
      <trkpt lat="44.89866" lon="6.07798">
        <ele>1954.6</ele>
        <time>2024-08-14T07:40:30Z</time>
      </trkpt>
      <trkpt lat="44.89866" lon="6.07798">
        <ele>1954</ele>
        <time>2024-08-14T07:40:31Z</time>
      </trkpt>
      <trkpt lat="44.89868" lon="6.07801">
        <ele>1953.8</ele>
        <time>2024-08-14T07:40:32Z</time>
      </trkpt>
      <trkpt lat="44.89868" lon="6.07801">
        <ele>1953.6</ele>
        <time>2024-08-14T07:40:33Z</time>
      </trkpt>
      <trkpt lat="44.89869" lon="6.07804">
        <ele>1953.4</ele>
        <time>2024-08-14T07:40:34Z</time>
      </trkpt>
      <trkpt lat="44.89869" lon="6.07804">
        <ele>1953.2</ele>
        <time>2024-08-14T07:40:35Z</time>
      </trkpt>
      <trkpt lat="44.89871" lon="6.07807">
        <ele>1953.2</ele>
        <time>2024-08-14T07:40:36Z</time>
      </trkpt>
      <trkpt lat="44.89871" lon="6.07807">
        <ele>1953</ele>
        <time>2024-08-14T07:40:37Z</time>
      </trkpt>
      <trkpt lat="44.89873" lon="6.0781">
        <ele>1952.8</ele>
        <time>2024-08-14T07:40:38Z</time>
      </trkpt>
      <trkpt lat="44.89873" lon="6.0781">
        <ele>1952.6</ele>
        <time>2024-08-14T07:40:39Z</time>
      </trkpt>
      <trkpt lat="44.89875" lon="6.07813">
        <ele>1952.6</ele>
        <time>2024-08-14T07:40:40Z</time>
      </trkpt>
      <trkpt lat="44.89875" lon="6.07813">
        <ele>1952.4</ele>
        <time>2024-08-14T07:40:41Z</time>
      </trkpt>
      <trkpt lat="44.89876" lon="6.07814">
        <ele>1952.4</ele>
        <time>2024-08-14T07:40:42Z</time>
      </trkpt>
      <trkpt lat="44.89876" lon="6.07814">
        <ele>1951.6</ele>
        <time>2024-08-14T07:40:43Z</time>
      </trkpt>
      <trkpt lat="44.89878" lon="6.07816">
        <ele>1951.6</ele>
        <time>2024-08-14T07:40:44Z</time>
      </trkpt>
      <trkpt lat="44.89878" lon="6.07816">
        <ele>1951.2</ele>
        <time>2024-08-14T07:40:45Z</time>
      </trkpt>
      <trkpt lat="44.89881" lon="6.07818">
        <ele>1950.8</ele>
        <time>2024-08-14T07:40:46Z</time>
      </trkpt>
      <trkpt lat="44.89881" lon="6.07818">
        <ele>1950.4</ele>
        <time>2024-08-14T07:40:47Z</time>
      </trkpt>
      <trkpt lat="44.89884" lon="6.0782">
        <ele>1949.8</ele>
        <time>2024-08-14T07:40:48Z</time>
      </trkpt>
      <trkpt lat="44.89884" lon="6.0782">
        <ele>1949.4</ele>
        <time>2024-08-14T07:40:49Z</time>
      </trkpt>
      <trkpt lat="44.89886" lon="6.07822">
        <ele>1949.4</ele>
        <time>2024-08-14T07:40:50Z</time>
      </trkpt>
      <trkpt lat="44.89887" lon="6.07824">
        <ele>1949.4</ele>
        <time>2024-08-14T07:40:51Z</time>
      </trkpt>
      <trkpt lat="44.89887" lon="6.07824">
        <ele>1949.4</ele>
        <time>2024-08-14T07:40:52Z</time>
      </trkpt>
      <trkpt lat="44.8989" lon="6.07827">
        <ele>1949.2</ele>
        <time>2024-08-14T07:40:53Z</time>
      </trkpt>
      <trkpt lat="44.8989" lon="6.07827">
        <ele>1949.2</ele>
        <time>2024-08-14T07:40:54Z</time>
      </trkpt>
      <trkpt lat="44.89892" lon="6.07829">
        <ele>1949.2</ele>
        <time>2024-08-14T07:40:55Z</time>
      </trkpt>
      <trkpt lat="44.89893" lon="6.0783">
        <ele>1948.6</ele>
        <time>2024-08-14T07:40:56Z</time>
      </trkpt>
      <trkpt lat="44.89893" lon="6.0783">
        <ele>1948.4</ele>
        <time>2024-08-14T07:40:57Z</time>
      </trkpt>
      <trkpt lat="44.89895" lon="6.07832">
        <ele>1948</ele>
        <time>2024-08-14T07:40:58Z</time>
      </trkpt>
      <trkpt lat="44.89895" lon="6.07832">
        <ele>1947.8</ele>
        <time>2024-08-14T07:40:59Z</time>
      </trkpt>
      <trkpt lat="44.89896" lon="6.07835">
        <ele>1947.6</ele>
        <time>2024-08-14T07:41:00Z</time>
      </trkpt>
      <trkpt lat="44.89896" lon="6.07835">
        <ele>1947.4</ele>
        <time>2024-08-14T07:41:01Z</time>
      </trkpt>
      <trkpt lat="44.89898" lon="6.07838">
        <ele>1946.8</ele>
        <time>2024-08-14T07:41:02Z</time>
      </trkpt>
      <trkpt lat="44.89898" lon="6.07838">
        <ele>1946.8</ele>
        <time>2024-08-14T07:41:03Z</time>
      </trkpt>
      <trkpt lat="44.899" lon="6.07841">
        <ele>1946.8</ele>
        <time>2024-08-14T07:41:04Z</time>
      </trkpt>
      <trkpt lat="44.899" lon="6.07841">
        <ele>1946.4</ele>
        <time>2024-08-14T07:41:05Z</time>
      </trkpt>
      <trkpt lat="44.89902" lon="6.07843">
        <ele>1946</ele>
        <time>2024-08-14T07:41:06Z</time>
      </trkpt>
      <trkpt lat="44.89902" lon="6.07843">
        <ele>1945.6</ele>
        <time>2024-08-14T07:41:07Z</time>
      </trkpt>
      <trkpt lat="44.89904" lon="6.07845">
        <ele>1945.4</ele>
        <time>2024-08-14T07:41:08Z</time>
      </trkpt>
      <trkpt lat="44.89904" lon="6.07845">
        <ele>1945.4</ele>
        <time>2024-08-14T07:41:09Z</time>
      </trkpt>
      <trkpt lat="44.89906" lon="6.07848">
        <ele>1945</ele>
        <time>2024-08-14T07:41:10Z</time>
      </trkpt>
      <trkpt lat="44.89906" lon="6.07848">
        <ele>1944.6</ele>
        <time>2024-08-14T07:41:11Z</time>
      </trkpt>
      <trkpt lat="44.89908" lon="6.07851">
        <ele>1944.2</ele>
        <time>2024-08-14T07:41:12Z</time>
      </trkpt>
      <trkpt lat="44.89908" lon="6.07851">
        <ele>1943.8</ele>
        <time>2024-08-14T07:41:13Z</time>
      </trkpt>
      <trkpt lat="44.8991" lon="6.07853">
        <ele>1943.6</ele>
        <time>2024-08-14T07:41:14Z</time>
      </trkpt>
      <trkpt lat="44.8991" lon="6.07853">
        <ele>1943.2</ele>
        <time>2024-08-14T07:41:15Z</time>
      </trkpt>
      <trkpt lat="44.89911" lon="6.07854">
        <ele>1943.2</ele>
        <time>2024-08-14T07:41:16Z</time>
      </trkpt>
      <trkpt lat="44.89911" lon="6.07854">
        <ele>1942.8</ele>
        <time>2024-08-14T07:41:17Z</time>
      </trkpt>
      <trkpt lat="44.89913" lon="6.07858">
        <ele>1942.8</ele>
        <time>2024-08-14T07:41:18Z</time>
      </trkpt>
      <trkpt lat="44.89913" lon="6.07858">
        <ele>1942.2</ele>
        <time>2024-08-14T07:41:19Z</time>
      </trkpt>
      <trkpt lat="44.89914" lon="6.0786">
        <ele>1941.6</ele>
        <time>2024-08-14T07:41:20Z</time>
      </trkpt>
      <trkpt lat="44.89914" lon="6.0786">
        <ele>1941.4</ele>
        <time>2024-08-14T07:41:21Z</time>
      </trkpt>
      <trkpt lat="44.89916" lon="6.07862">
        <ele>1941.4</ele>
        <time>2024-08-14T07:41:22Z</time>
      </trkpt>
      <trkpt lat="44.89916" lon="6.07862">
        <ele>1941.4</ele>
        <time>2024-08-14T07:41:23Z</time>
      </trkpt>
      <trkpt lat="44.89918" lon="6.07865">
        <ele>1941</ele>
        <time>2024-08-14T07:41:24Z</time>
      </trkpt>
      <trkpt lat="44.89918" lon="6.07865">
        <ele>1940.6</ele>
        <time>2024-08-14T07:41:25Z</time>
      </trkpt>
      <trkpt lat="44.8992" lon="6.07868">
        <ele>1940.4</ele>
        <time>2024-08-14T07:41:26Z</time>
      </trkpt>
      <trkpt lat="44.8992" lon="6.07868">
        <ele>1940.2</ele>
        <time>2024-08-14T07:41:27Z</time>
      </trkpt>
      <trkpt lat="44.89922" lon="6.0787">
        <ele>1940</ele>
        <time>2024-08-14T07:41:28Z</time>
      </trkpt>
      <trkpt lat="44.89922" lon="6.0787">
        <ele>1940</ele>
        <time>2024-08-14T07:41:29Z</time>
      </trkpt>
      <trkpt lat="44.89924" lon="6.07872">
        <ele>1939.6</ele>
        <time>2024-08-14T07:41:30Z</time>
      </trkpt>
      <trkpt lat="44.89924" lon="6.07872">
        <ele>1939.6</ele>
        <time>2024-08-14T07:41:31Z</time>
      </trkpt>
      <trkpt lat="44.89926" lon="6.07874">
        <ele>1939.2</ele>
        <time>2024-08-14T07:41:32Z</time>
      </trkpt>
      <trkpt lat="44.89926" lon="6.07874">
        <ele>1939</ele>
        <time>2024-08-14T07:41:33Z</time>
      </trkpt>
      <trkpt lat="44.89929" lon="6.07876">
        <ele>1938.8</ele>
        <time>2024-08-14T07:41:34Z</time>
      </trkpt>
      <trkpt lat="44.89929" lon="6.07876">
        <ele>1938.6</ele>
        <time>2024-08-14T07:41:35Z</time>
      </trkpt>
      <trkpt lat="44.89931" lon="6.07878">
        <ele>1938.4</ele>
        <time>2024-08-14T07:41:36Z</time>
      </trkpt>
      <trkpt lat="44.89931" lon="6.07878">
        <ele>1938</ele>
        <time>2024-08-14T07:41:37Z</time>
      </trkpt>
      <trkpt lat="44.89934" lon="6.07879">
        <ele>1937.6</ele>
        <time>2024-08-14T07:41:38Z</time>
      </trkpt>
      <trkpt lat="44.89934" lon="6.07879">
        <ele>1937.4</ele>
        <time>2024-08-14T07:41:39Z</time>
      </trkpt>
      <trkpt lat="44.89936" lon="6.07881">
        <ele>1937</ele>
        <time>2024-08-14T07:41:40Z</time>
      </trkpt>
      <trkpt lat="44.89936" lon="6.07881">
        <ele>1936.6</ele>
        <time>2024-08-14T07:41:41Z</time>
      </trkpt>
      <trkpt lat="44.89938" lon="6.07883">
        <ele>1936.4</ele>
        <time>2024-08-14T07:41:42Z</time>
      </trkpt>
      <trkpt lat="44.89938" lon="6.07883">
        <ele>1936.2</ele>
        <time>2024-08-14T07:41:43Z</time>
      </trkpt>
      <trkpt lat="44.8994" lon="6.07885">
        <ele>1935.8</ele>
        <time>2024-08-14T07:41:44Z</time>
      </trkpt>
      <trkpt lat="44.8994" lon="6.07885">
        <ele>1935.6</ele>
        <time>2024-08-14T07:41:45Z</time>
      </trkpt>
      <trkpt lat="44.89942" lon="6.07887">
        <ele>1935.4</ele>
        <time>2024-08-14T07:41:46Z</time>
      </trkpt>
      <trkpt lat="44.89942" lon="6.07887">
        <ele>1935.2</ele>
        <time>2024-08-14T07:41:47Z</time>
      </trkpt>
      <trkpt lat="44.89944" lon="6.07888">
        <ele>1935</ele>
        <time>2024-08-14T07:41:48Z</time>
      </trkpt>
      <trkpt lat="44.89944" lon="6.07888">
        <ele>1934.8</ele>
        <time>2024-08-14T07:41:49Z</time>
      </trkpt>
      <trkpt lat="44.89947" lon="6.07889">
        <ele>1934.6</ele>
        <time>2024-08-14T07:41:50Z</time>
      </trkpt>
      <trkpt lat="44.89947" lon="6.07889">
        <ele>1934.6</ele>
        <time>2024-08-14T07:41:51Z</time>
      </trkpt>
      <trkpt lat="44.89949" lon="6.07891">
        <ele>1933.8</ele>
        <time>2024-08-14T07:41:52Z</time>
      </trkpt>
      <trkpt lat="44.89949" lon="6.07891">
        <ele>1933.4</ele>
        <time>2024-08-14T07:41:53Z</time>
      </trkpt>
      <trkpt lat="44.89952" lon="6.07893">
        <ele>1933.4</ele>
        <time>2024-08-14T07:41:54Z</time>
      </trkpt>
      <trkpt lat="44.89952" lon="6.07893">
        <ele>1932.8</ele>
        <time>2024-08-14T07:41:55Z</time>
      </trkpt>
      <trkpt lat="44.89954" lon="6.07895">
        <ele>1932.4</ele>
        <time>2024-08-14T07:41:56Z</time>
      </trkpt>
      <trkpt lat="44.89954" lon="6.07895">
        <ele>1932.4</ele>
        <time>2024-08-14T07:41:57Z</time>
      </trkpt>
      <trkpt lat="44.89957" lon="6.07897">
        <ele>1932.4</ele>
        <time>2024-08-14T07:41:58Z</time>
      </trkpt>
      <trkpt lat="44.89957" lon="6.07897">
        <ele>1932.4</ele>
        <time>2024-08-14T07:41:59Z</time>
      </trkpt>
      <trkpt lat="44.89959" lon="6.07899">
        <ele>1932.2</ele>
        <time>2024-08-14T07:42:00Z</time>
      </trkpt>
      <trkpt lat="44.89959" lon="6.07899">
        <ele>1932</ele>
        <time>2024-08-14T07:42:01Z</time>
      </trkpt>
      <trkpt lat="44.89962" lon="6.079">
        <ele>1931.8</ele>
        <time>2024-08-14T07:42:02Z</time>
      </trkpt>
      <trkpt lat="44.89962" lon="6.079">
        <ele>1931.6</ele>
        <time>2024-08-14T07:42:03Z</time>
      </trkpt>
      <trkpt lat="44.89964" lon="6.07902">
        <ele>1931.2</ele>
        <time>2024-08-14T07:42:04Z</time>
      </trkpt>
      <trkpt lat="44.89964" lon="6.07902">
        <ele>1931.2</ele>
        <time>2024-08-14T07:42:05Z</time>
      </trkpt>
      <trkpt lat="44.89967" lon="6.07904">
        <ele>1931.2</ele>
        <time>2024-08-14T07:42:06Z</time>
      </trkpt>
      <trkpt lat="44.89967" lon="6.07904">
        <ele>1930.8</ele>
        <time>2024-08-14T07:42:07Z</time>
      </trkpt>
      <trkpt lat="44.89969" lon="6.07906">
        <ele>1930.6</ele>
        <time>2024-08-14T07:42:08Z</time>
      </trkpt>
      <trkpt lat="44.89969" lon="6.07906">
        <ele>1930.4</ele>
        <time>2024-08-14T07:42:09Z</time>
      </trkpt>
      <trkpt lat="44.89971" lon="6.07907">
        <ele>1930</ele>
        <time>2024-08-14T07:42:10Z</time>
      </trkpt>
      <trkpt lat="44.89971" lon="6.07907">
        <ele>1930</ele>
        <time>2024-08-14T07:42:11Z</time>
      </trkpt>
      <trkpt lat="44.89973" lon="6.07908">
        <ele>1929.8</ele>
        <time>2024-08-14T07:42:12Z</time>
      </trkpt>
      <trkpt lat="44.89973" lon="6.07908">
        <ele>1929.2</ele>
        <time>2024-08-14T07:42:13Z</time>
      </trkpt>
      <trkpt lat="44.89975" lon="6.0791">
        <ele>1928.8</ele>
        <time>2024-08-14T07:42:14Z</time>
      </trkpt>
      <trkpt lat="44.89975" lon="6.0791">
        <ele>1928.4</ele>
        <time>2024-08-14T07:42:15Z</time>
      </trkpt>
      <trkpt lat="44.89975" lon="6.0791">
        <ele>1928.4</ele>
        <time>2024-08-14T07:42:16Z</time>
      </trkpt>
      <trkpt lat="44.89978" lon="6.07911">
        <ele>1928</ele>
        <time>2024-08-14T07:42:17Z</time>
      </trkpt>
      <trkpt lat="44.89978" lon="6.07911">
        <ele>1927.4</ele>
        <time>2024-08-14T07:42:18Z</time>
      </trkpt>
      <trkpt lat="44.8998" lon="6.07912">
        <ele>1927</ele>
        <time>2024-08-14T07:42:19Z</time>
      </trkpt>
      <trkpt lat="44.8998" lon="6.07912">
        <ele>1926.6</ele>
        <time>2024-08-14T07:42:20Z</time>
      </trkpt>
      <trkpt lat="44.89982" lon="6.07914">
        <ele>1926.4</ele>
        <time>2024-08-14T07:42:21Z</time>
      </trkpt>
      <trkpt lat="44.89982" lon="6.07914">
        <ele>1926</ele>
        <time>2024-08-14T07:42:22Z</time>
      </trkpt>
      <trkpt lat="44.89984" lon="6.07915">
        <ele>1925.6</ele>
        <time>2024-08-14T07:42:23Z</time>
      </trkpt>
      <trkpt lat="44.89984" lon="6.07915">
        <ele>1925.4</ele>
        <time>2024-08-14T07:42:24Z</time>
      </trkpt>
      <trkpt lat="44.89986" lon="6.07917">
        <ele>1925.2</ele>
        <time>2024-08-14T07:42:25Z</time>
      </trkpt>
      <trkpt lat="44.89986" lon="6.07917">
        <ele>1924.8</ele>
        <time>2024-08-14T07:42:26Z</time>
      </trkpt>
      <trkpt lat="44.89989" lon="6.07919">
        <ele>1924.4</ele>
        <time>2024-08-14T07:42:27Z</time>
      </trkpt>
      <trkpt lat="44.89989" lon="6.07919">
        <ele>1923.8</ele>
        <time>2024-08-14T07:42:28Z</time>
      </trkpt>
      <trkpt lat="44.8999" lon="6.0792">
        <ele>1923.6</ele>
        <time>2024-08-14T07:42:29Z</time>
      </trkpt>
      <trkpt lat="44.8999" lon="6.0792">
        <ele>1923.6</ele>
        <time>2024-08-14T07:42:30Z</time>
      </trkpt>
      <trkpt lat="44.89992" lon="6.07921">
        <ele>1923.4</ele>
        <time>2024-08-14T07:42:31Z</time>
      </trkpt>
      <trkpt lat="44.89992" lon="6.07921">
        <ele>1923</ele>
        <time>2024-08-14T07:42:32Z</time>
      </trkpt>
      <trkpt lat="44.89994" lon="6.07923">
        <ele>1922.4</ele>
        <time>2024-08-14T07:42:33Z</time>
      </trkpt>
      <trkpt lat="44.89994" lon="6.07923">
        <ele>1922.2</ele>
        <time>2024-08-14T07:42:34Z</time>
      </trkpt>
      <trkpt lat="44.89996" lon="6.07924">
        <ele>1921.8</ele>
        <time>2024-08-14T07:42:35Z</time>
      </trkpt>
      <trkpt lat="44.89996" lon="6.07924">
        <ele>1921.6</ele>
        <time>2024-08-14T07:42:36Z</time>
      </trkpt>
      <trkpt lat="44.89998" lon="6.07926">
        <ele>1921.4</ele>
        <time>2024-08-14T07:42:37Z</time>
      </trkpt>
      <trkpt lat="44.89998" lon="6.07926">
        <ele>1921.2</ele>
        <time>2024-08-14T07:42:38Z</time>
      </trkpt>
      <trkpt lat="44.90001" lon="6.07928">
        <ele>1921</ele>
        <time>2024-08-14T07:42:39Z</time>
      </trkpt>
      <trkpt lat="44.90001" lon="6.07928">
        <ele>1920.8</ele>
        <time>2024-08-14T07:42:40Z</time>
      </trkpt>
      <trkpt lat="44.90003" lon="6.07929">
        <ele>1920.6</ele>
        <time>2024-08-14T07:42:41Z</time>
      </trkpt>
      <trkpt lat="44.90003" lon="6.07929">
        <ele>1920.4</ele>
        <time>2024-08-14T07:42:42Z</time>
      </trkpt>
      <trkpt lat="44.90005" lon="6.07931">
        <ele>1920.2</ele>
        <time>2024-08-14T07:42:43Z</time>
      </trkpt>
      <trkpt lat="44.90005" lon="6.07931">
        <ele>1920</ele>
        <time>2024-08-14T07:42:44Z</time>
      </trkpt>
      <trkpt lat="44.90007" lon="6.07932">
        <ele>1919.8</ele>
        <time>2024-08-14T07:42:45Z</time>
      </trkpt>
      <trkpt lat="44.90007" lon="6.07932">
        <ele>1919.6</ele>
        <time>2024-08-14T07:42:46Z</time>
      </trkpt>
      <trkpt lat="44.9001" lon="6.07934">
        <ele>1919</ele>
        <time>2024-08-14T07:42:47Z</time>
      </trkpt>
      <trkpt lat="44.9001" lon="6.07934">
        <ele>1918.8</ele>
        <time>2024-08-14T07:42:48Z</time>
      </trkpt>
      <trkpt lat="44.90013" lon="6.07935">
        <ele>1918.2</ele>
        <time>2024-08-14T07:42:49Z</time>
      </trkpt>
      <trkpt lat="44.90013" lon="6.07935">
        <ele>1917.8</ele>
        <time>2024-08-14T07:42:50Z</time>
      </trkpt>
      <trkpt lat="44.90015" lon="6.07937">
        <ele>1917.4</ele>
        <time>2024-08-14T07:42:51Z</time>
      </trkpt>
      <trkpt lat="44.90015" lon="6.07937">
        <ele>1917.2</ele>
        <time>2024-08-14T07:42:52Z</time>
      </trkpt>
      <trkpt lat="44.90017" lon="6.07938">
        <ele>1917</ele>
        <time>2024-08-14T07:42:53Z</time>
      </trkpt>
      <trkpt lat="44.90019" lon="6.07939">
        <ele>1916.8</ele>
        <time>2024-08-14T07:42:54Z</time>
      </trkpt>
      <trkpt lat="44.90019" lon="6.07939">
        <ele>1916.8</ele>
        <time>2024-08-14T07:42:55Z</time>
      </trkpt>
      <trkpt lat="44.90021" lon="6.07942">
        <ele>1916.6</ele>
        <time>2024-08-14T07:42:56Z</time>
      </trkpt>
      <trkpt lat="44.90021" lon="6.07942">
        <ele>1916.2</ele>
        <time>2024-08-14T07:42:57Z</time>
      </trkpt>
      <trkpt lat="44.90023" lon="6.07944">
        <ele>1915.8</ele>
        <time>2024-08-14T07:42:58Z</time>
      </trkpt>
      <trkpt lat="44.90023" lon="6.07944">
        <ele>1915.4</ele>
        <time>2024-08-14T07:42:59Z</time>
      </trkpt>
      <trkpt lat="44.90025" lon="6.07946">
        <ele>1915.4</ele>
        <time>2024-08-14T07:43:00Z</time>
      </trkpt>
      <trkpt lat="44.90025" lon="6.07946">
        <ele>1915.4</ele>
        <time>2024-08-14T07:43:01Z</time>
      </trkpt>
      <trkpt lat="44.90028" lon="6.07947">
        <ele>1915.4</ele>
        <time>2024-08-14T07:43:02Z</time>
      </trkpt>
      <trkpt lat="44.90028" lon="6.07947">
        <ele>1915.4</ele>
        <time>2024-08-14T07:43:03Z</time>
      </trkpt>
      <trkpt lat="44.9003" lon="6.07948">
        <ele>1915.4</ele>
        <time>2024-08-14T07:43:04Z</time>
      </trkpt>
      <trkpt lat="44.9003" lon="6.07948">
        <ele>1914.8</ele>
        <time>2024-08-14T07:43:05Z</time>
      </trkpt>
      <trkpt lat="44.90032" lon="6.0795">
        <ele>1914.6</ele>
        <time>2024-08-14T07:43:06Z</time>
      </trkpt>
      <trkpt lat="44.90032" lon="6.0795">
        <ele>1914.4</ele>
        <time>2024-08-14T07:43:07Z</time>
      </trkpt>
      <trkpt lat="44.90035" lon="6.07952">
        <ele>1914</ele>
        <time>2024-08-14T07:43:08Z</time>
      </trkpt>
      <trkpt lat="44.90035" lon="6.07952">
        <ele>1913.6</ele>
        <time>2024-08-14T07:43:09Z</time>
      </trkpt>
      <trkpt lat="44.90037" lon="6.07954">
        <ele>1913.2</ele>
        <time>2024-08-14T07:43:10Z</time>
      </trkpt>
      <trkpt lat="44.90037" lon="6.07954">
        <ele>1912.8</ele>
        <time>2024-08-14T07:43:11Z</time>
      </trkpt>
      <trkpt lat="44.90039" lon="6.07956">
        <ele>1912.4</ele>
        <time>2024-08-14T07:43:12Z</time>
      </trkpt>
      <trkpt lat="44.90039" lon="6.07956">
        <ele>1912.2</ele>
        <time>2024-08-14T07:43:13Z</time>
      </trkpt>
      <trkpt lat="44.90041" lon="6.07957">
        <ele>1911.8</ele>
        <time>2024-08-14T07:43:14Z</time>
      </trkpt>
      <trkpt lat="44.90041" lon="6.07957">
        <ele>1911.8</ele>
        <time>2024-08-14T07:43:15Z</time>
      </trkpt>
      <trkpt lat="44.90043" lon="6.07959">
        <ele>1911.4</ele>
        <time>2024-08-14T07:43:16Z</time>
      </trkpt>
      <trkpt lat="44.90043" lon="6.07959">
        <ele>1911.2</ele>
        <time>2024-08-14T07:43:17Z</time>
      </trkpt>
      <trkpt lat="44.90045" lon="6.07961">
        <ele>1910.8</ele>
        <time>2024-08-14T07:43:18Z</time>
      </trkpt>
      <trkpt lat="44.90045" lon="6.07961">
        <ele>1910.6</ele>
        <time>2024-08-14T07:43:19Z</time>
      </trkpt>
      <trkpt lat="44.90047" lon="6.07963">
        <ele>1910</ele>
        <time>2024-08-14T07:43:20Z</time>
      </trkpt>
      <trkpt lat="44.90047" lon="6.07963">
        <ele>1909.8</ele>
        <time>2024-08-14T07:43:21Z</time>
      </trkpt>
      <trkpt lat="44.9005" lon="6.07965">
        <ele>1909.4</ele>
        <time>2024-08-14T07:43:22Z</time>
      </trkpt>
      <trkpt lat="44.9005" lon="6.07965">
        <ele>1909.4</ele>
        <time>2024-08-14T07:43:23Z</time>
      </trkpt>
      <trkpt lat="44.90052" lon="6.07967">
        <ele>1908.8</ele>
        <time>2024-08-14T07:43:24Z</time>
      </trkpt>
      <trkpt lat="44.90052" lon="6.07967">
        <ele>1908.4</ele>
        <time>2024-08-14T07:43:25Z</time>
      </trkpt>
      <trkpt lat="44.90054" lon="6.07969">
        <ele>1907.8</ele>
        <time>2024-08-14T07:43:26Z</time>
      </trkpt>
      <trkpt lat="44.90054" lon="6.07969">
        <ele>1907.6</ele>
        <time>2024-08-14T07:43:27Z</time>
      </trkpt>
      <trkpt lat="44.90056" lon="6.07972">
        <ele>1907</ele>
        <time>2024-08-14T07:43:28Z</time>
      </trkpt>
      <trkpt lat="44.90056" lon="6.07972">
        <ele>1906.6</ele>
        <time>2024-08-14T07:43:29Z</time>
      </trkpt>
      <trkpt lat="44.90058" lon="6.07974">
        <ele>1906.4</ele>
        <time>2024-08-14T07:43:30Z</time>
      </trkpt>
      <trkpt lat="44.90058" lon="6.07974">
        <ele>1906.2</ele>
        <time>2024-08-14T07:43:31Z</time>
      </trkpt>
      <trkpt lat="44.9006" lon="6.07977">
        <ele>1906.2</ele>
        <time>2024-08-14T07:43:32Z</time>
      </trkpt>
      <trkpt lat="44.9006" lon="6.07977">
        <ele>1906</ele>
        <time>2024-08-14T07:43:33Z</time>
      </trkpt>
      <trkpt lat="44.90061" lon="6.0798">
        <ele>1905.4</ele>
        <time>2024-08-14T07:43:34Z</time>
      </trkpt>
      <trkpt lat="44.90061" lon="6.0798">
        <ele>1905.2</ele>
        <time>2024-08-14T07:43:35Z</time>
      </trkpt>
      <trkpt lat="44.90063" lon="6.07983">
        <ele>1904.6</ele>
        <time>2024-08-14T07:43:36Z</time>
      </trkpt>
      <trkpt lat="44.90063" lon="6.07983">
        <ele>1904.6</ele>
        <time>2024-08-14T07:43:37Z</time>
      </trkpt>
      <trkpt lat="44.90065" lon="6.07986">
        <ele>1904.4</ele>
        <time>2024-08-14T07:43:38Z</time>
      </trkpt>
      <trkpt lat="44.90065" lon="6.07986">
        <ele>1904.2</ele>
        <time>2024-08-14T07:43:39Z</time>
      </trkpt>
      <trkpt lat="44.90067" lon="6.07989">
        <ele>1904</ele>
        <time>2024-08-14T07:43:40Z</time>
      </trkpt>
      <trkpt lat="44.90067" lon="6.07989">
        <ele>1903.6</ele>
        <time>2024-08-14T07:43:41Z</time>
      </trkpt>
      <trkpt lat="44.90069" lon="6.07993">
        <ele>1903.2</ele>
        <time>2024-08-14T07:43:42Z</time>
      </trkpt>
      <trkpt lat="44.90069" lon="6.07993">
        <ele>1902.8</ele>
        <time>2024-08-14T07:43:43Z</time>
      </trkpt>
      <trkpt lat="44.90071" lon="6.07996">
        <ele>1902.8</ele>
        <time>2024-08-14T07:43:44Z</time>
      </trkpt>
      <trkpt lat="44.90071" lon="6.07996">
        <ele>1902.8</ele>
        <time>2024-08-14T07:43:45Z</time>
      </trkpt>
      <trkpt lat="44.90072" lon="6.07999">
        <ele>1902.6</ele>
        <time>2024-08-14T07:43:46Z</time>
      </trkpt>
      <trkpt lat="44.90072" lon="6.07999">
        <ele>1902.4</ele>
        <time>2024-08-14T07:43:47Z</time>
      </trkpt>
      <trkpt lat="44.90074" lon="6.08003">
        <ele>1902</ele>
        <time>2024-08-14T07:43:48Z</time>
      </trkpt>
      <trkpt lat="44.90074" lon="6.08003">
        <ele>1902</ele>
        <time>2024-08-14T07:43:49Z</time>
      </trkpt>
      <trkpt lat="44.90075" lon="6.08006">
        <ele>1901.8</ele>
        <time>2024-08-14T07:43:50Z</time>
      </trkpt>
      <trkpt lat="44.90075" lon="6.08006">
        <ele>1901.6</ele>
        <time>2024-08-14T07:43:51Z</time>
      </trkpt>
      <trkpt lat="44.90077" lon="6.08009">
        <ele>1901.6</ele>
        <time>2024-08-14T07:43:52Z</time>
      </trkpt>
      <trkpt lat="44.90077" lon="6.08009">
        <ele>1901.6</ele>
        <time>2024-08-14T07:43:53Z</time>
      </trkpt>
      <trkpt lat="44.90078" lon="6.08011">
        <ele>1901.4</ele>
        <time>2024-08-14T07:43:54Z</time>
      </trkpt>
      <trkpt lat="44.90078" lon="6.08011">
        <ele>1901.4</ele>
        <time>2024-08-14T07:43:55Z</time>
      </trkpt>
      <trkpt lat="44.9008" lon="6.08013">
        <ele>1901</ele>
        <time>2024-08-14T07:43:56Z</time>
      </trkpt>
      <trkpt lat="44.9008" lon="6.08013">
        <ele>1900.6</ele>
        <time>2024-08-14T07:43:57Z</time>
      </trkpt>
      <trkpt lat="44.90082" lon="6.08015">
        <ele>1900.2</ele>
        <time>2024-08-14T07:43:58Z</time>
      </trkpt>
      <trkpt lat="44.90082" lon="6.08015">
        <ele>1899.6</ele>
        <time>2024-08-14T07:43:59Z</time>
      </trkpt>
      <trkpt lat="44.90084" lon="6.08018">
        <ele>1899.2</ele>
        <time>2024-08-14T07:44:00Z</time>
      </trkpt>
      <trkpt lat="44.90084" lon="6.08018">
        <ele>1898.6</ele>
        <time>2024-08-14T07:44:01Z</time>
      </trkpt>
      <trkpt lat="44.90086" lon="6.08021">
        <ele>1898.2</ele>
        <time>2024-08-14T07:44:02Z</time>
      </trkpt>
      <trkpt lat="44.90086" lon="6.08021">
        <ele>1898.2</ele>
        <time>2024-08-14T07:44:03Z</time>
      </trkpt>
      <trkpt lat="44.90087" lon="6.08025">
        <ele>1898</ele>
        <time>2024-08-14T07:44:04Z</time>
      </trkpt>
      <trkpt lat="44.90087" lon="6.08025">
        <ele>1898</ele>
        <time>2024-08-14T07:44:05Z</time>
      </trkpt>
      <trkpt lat="44.90088" lon="6.08029">
        <ele>1897.8</ele>
        <time>2024-08-14T07:44:06Z</time>
      </trkpt>
      <trkpt lat="44.90088" lon="6.08029">
        <ele>1897.6</ele>
        <time>2024-08-14T07:44:07Z</time>
      </trkpt>
      <trkpt lat="44.9009" lon="6.08033">
        <ele>1897.4</ele>
        <time>2024-08-14T07:44:08Z</time>
      </trkpt>
      <trkpt lat="44.9009" lon="6.08033">
        <ele>1897.4</ele>
        <time>2024-08-14T07:44:09Z</time>
      </trkpt>
      <trkpt lat="44.90091" lon="6.08035">
        <ele>1897.4</ele>
        <time>2024-08-14T07:44:10Z</time>
      </trkpt>
      <trkpt lat="44.90091" lon="6.08035">
        <ele>1897.4</ele>
        <time>2024-08-14T07:44:11Z</time>
      </trkpt>
      <trkpt lat="44.90093" lon="6.08037">
        <ele>1897.2</ele>
        <time>2024-08-14T07:44:12Z</time>
      </trkpt>
      <trkpt lat="44.90093" lon="6.08037">
        <ele>1897</ele>
        <time>2024-08-14T07:44:13Z</time>
      </trkpt>
      <trkpt lat="44.90096" lon="6.08038">
        <ele>1896.8</ele>
        <time>2024-08-14T07:44:14Z</time>
      </trkpt>
      <trkpt lat="44.90096" lon="6.08038">
        <ele>1896.2</ele>
        <time>2024-08-14T07:44:15Z</time>
      </trkpt>
      <trkpt lat="44.90098" lon="6.08039">
        <ele>1895.6</ele>
        <time>2024-08-14T07:44:16Z</time>
      </trkpt>
      <trkpt lat="44.90098" lon="6.08039">
        <ele>1895.4</ele>
        <time>2024-08-14T07:44:17Z</time>
      </trkpt>
      <trkpt lat="44.901" lon="6.08043">
        <ele>1895.2</ele>
        <time>2024-08-14T07:44:18Z</time>
      </trkpt>
      <trkpt lat="44.901" lon="6.08043">
        <ele>1894.6</ele>
        <time>2024-08-14T07:44:19Z</time>
      </trkpt>
      <trkpt lat="44.90102" lon="6.08046">
        <ele>1894</ele>
        <time>2024-08-14T07:44:20Z</time>
      </trkpt>
      <trkpt lat="44.90102" lon="6.08046">
        <ele>1894</ele>
        <time>2024-08-14T07:44:21Z</time>
      </trkpt>
      <trkpt lat="44.90104" lon="6.08048">
        <ele>1893.8</ele>
        <time>2024-08-14T07:44:22Z</time>
      </trkpt>
      <trkpt lat="44.90104" lon="6.08048">
        <ele>1893.8</ele>
        <time>2024-08-14T07:44:23Z</time>
      </trkpt>
      <trkpt lat="44.90106" lon="6.08051">
        <ele>1893.6</ele>
        <time>2024-08-14T07:44:24Z</time>
      </trkpt>
      <trkpt lat="44.90106" lon="6.08051">
        <ele>1893.2</ele>
        <time>2024-08-14T07:44:25Z</time>
      </trkpt>
      <trkpt lat="44.90108" lon="6.08054">
        <ele>1893.2</ele>
        <time>2024-08-14T07:44:26Z</time>
      </trkpt>
      <trkpt lat="44.90108" lon="6.08054">
        <ele>1892.6</ele>
        <time>2024-08-14T07:44:27Z</time>
      </trkpt>
      <trkpt lat="44.9011" lon="6.08056">
        <ele>1892.6</ele>
        <time>2024-08-14T07:44:28Z</time>
      </trkpt>
      <trkpt lat="44.9011" lon="6.08056">
        <ele>1892.4</ele>
        <time>2024-08-14T07:44:29Z</time>
      </trkpt>
      <trkpt lat="44.90111" lon="6.08059">
        <ele>1892.2</ele>
        <time>2024-08-14T07:44:30Z</time>
      </trkpt>
      <trkpt lat="44.90111" lon="6.08059">
        <ele>1891.8</ele>
        <time>2024-08-14T07:44:31Z</time>
      </trkpt>
      <trkpt lat="44.90114" lon="6.08062">
        <ele>1891.4</ele>
        <time>2024-08-14T07:44:32Z</time>
      </trkpt>
      <trkpt lat="44.90114" lon="6.08062">
        <ele>1891.2</ele>
        <time>2024-08-14T07:44:33Z</time>
      </trkpt>
      <trkpt lat="44.90115" lon="6.08066">
        <ele>1891</ele>
        <time>2024-08-14T07:44:34Z</time>
      </trkpt>
      <trkpt lat="44.90115" lon="6.08066">
        <ele>1891</ele>
        <time>2024-08-14T07:44:35Z</time>
      </trkpt>
      <trkpt lat="44.90117" lon="6.08068">
        <ele>1890.8</ele>
        <time>2024-08-14T07:44:36Z</time>
      </trkpt>
      <trkpt lat="44.90117" lon="6.08068">
        <ele>1890.6</ele>
        <time>2024-08-14T07:44:37Z</time>
      </trkpt>
      <trkpt lat="44.90118" lon="6.0807">
        <ele>1890.2</ele>
        <time>2024-08-14T07:44:38Z</time>
      </trkpt>
      <trkpt lat="44.90118" lon="6.0807">
        <ele>1890</ele>
        <time>2024-08-14T07:44:39Z</time>
      </trkpt>
      <trkpt lat="44.9012" lon="6.08074">
        <ele>1889.4</ele>
        <time>2024-08-14T07:44:40Z</time>
      </trkpt>
      <trkpt lat="44.9012" lon="6.08074">
        <ele>1889.2</ele>
        <time>2024-08-14T07:44:41Z</time>
      </trkpt>
      <trkpt lat="44.90121" lon="6.08078">
        <ele>1888.6</ele>
        <time>2024-08-14T07:44:42Z</time>
      </trkpt>
      <trkpt lat="44.90121" lon="6.08078">
        <ele>1888.4</ele>
        <time>2024-08-14T07:44:43Z</time>
      </trkpt>
      <trkpt lat="44.90122" lon="6.08081">
        <ele>1888.2</ele>
        <time>2024-08-14T07:44:44Z</time>
      </trkpt>
      <trkpt lat="44.90122" lon="6.08081">
        <ele>1888.2</ele>
        <time>2024-08-14T07:44:45Z</time>
      </trkpt>
      <trkpt lat="44.90124" lon="6.08084">
        <ele>1888.2</ele>
        <time>2024-08-14T07:44:46Z</time>
      </trkpt>
      <trkpt lat="44.90124" lon="6.08084">
        <ele>1887.6</ele>
        <time>2024-08-14T07:44:47Z</time>
      </trkpt>
      <trkpt lat="44.90125" lon="6.08087">
        <ele>1887.4</ele>
        <time>2024-08-14T07:44:48Z</time>
      </trkpt>
      <trkpt lat="44.90125" lon="6.08087">
        <ele>1887</ele>
        <time>2024-08-14T07:44:49Z</time>
      </trkpt>
      <trkpt lat="44.90126" lon="6.0809">
        <ele>1887</ele>
        <time>2024-08-14T07:44:50Z</time>
      </trkpt>
      <trkpt lat="44.90126" lon="6.0809">
        <ele>1886.8</ele>
        <time>2024-08-14T07:44:51Z</time>
      </trkpt>
      <trkpt lat="44.90128" lon="6.08093">
        <ele>1886.6</ele>
        <time>2024-08-14T07:44:52Z</time>
      </trkpt>
      <trkpt lat="44.90128" lon="6.08093">
        <ele>1886.2</ele>
        <time>2024-08-14T07:44:53Z</time>
      </trkpt>
      <trkpt lat="44.90129" lon="6.08096">
        <ele>1885.6</ele>
        <time>2024-08-14T07:44:54Z</time>
      </trkpt>
      <trkpt lat="44.90129" lon="6.08096">
        <ele>1885.4</ele>
        <time>2024-08-14T07:44:55Z</time>
      </trkpt>
      <trkpt lat="44.90131" lon="6.08098">
        <ele>1885.2</ele>
        <time>2024-08-14T07:44:56Z</time>
      </trkpt>
      <trkpt lat="44.90131" lon="6.08098">
        <ele>1885</ele>
        <time>2024-08-14T07:44:57Z</time>
      </trkpt>
      <trkpt lat="44.90132" lon="6.081">
        <ele>1884.8</ele>
        <time>2024-08-14T07:44:58Z</time>
      </trkpt>
      <trkpt lat="44.90132" lon="6.081">
        <ele>1884.4</ele>
        <time>2024-08-14T07:44:59Z</time>
      </trkpt>
      <trkpt lat="44.90134" lon="6.08103">
        <ele>1884</ele>
        <time>2024-08-14T07:45:00Z</time>
      </trkpt>
      <trkpt lat="44.90134" lon="6.08103">
        <ele>1883.6</ele>
        <time>2024-08-14T07:45:01Z</time>
      </trkpt>
      <trkpt lat="44.90135" lon="6.08105">
        <ele>1882.6</ele>
        <time>2024-08-14T07:45:02Z</time>
      </trkpt>
      <trkpt lat="44.90135" lon="6.08105">
        <ele>1882.6</ele>
        <time>2024-08-14T07:45:03Z</time>
      </trkpt>
      <trkpt lat="44.90136" lon="6.08108">
        <ele>1882.2</ele>
        <time>2024-08-14T07:45:04Z</time>
      </trkpt>
      <trkpt lat="44.90136" lon="6.08108">
        <ele>1882</ele>
        <time>2024-08-14T07:45:05Z</time>
      </trkpt>
      <trkpt lat="44.90137" lon="6.08112">
        <ele>1881.6</ele>
        <time>2024-08-14T07:45:06Z</time>
      </trkpt>
      <trkpt lat="44.90137" lon="6.08112">
        <ele>1881.4</ele>
        <time>2024-08-14T07:45:07Z</time>
      </trkpt>
      <trkpt lat="44.90138" lon="6.08115">
        <ele>1881.4</ele>
        <time>2024-08-14T07:45:08Z</time>
      </trkpt>
      <trkpt lat="44.90138" lon="6.08115">
        <ele>1881.2</ele>
        <time>2024-08-14T07:45:09Z</time>
      </trkpt>
      <trkpt lat="44.90138" lon="6.08118">
        <ele>1881.2</ele>
        <time>2024-08-14T07:45:10Z</time>
      </trkpt>
      <trkpt lat="44.90138" lon="6.08118">
        <ele>1880.2</ele>
        <time>2024-08-14T07:45:11Z</time>
      </trkpt>
      <trkpt lat="44.90138" lon="6.08122">
        <ele>1879.8</ele>
        <time>2024-08-14T07:45:12Z</time>
      </trkpt>
      <trkpt lat="44.90138" lon="6.08122">
        <ele>1879.6</ele>
        <time>2024-08-14T07:45:13Z</time>
      </trkpt>
      <trkpt lat="44.90137" lon="6.08125">
        <ele>1879.4</ele>
        <time>2024-08-14T07:45:14Z</time>
      </trkpt>
      <trkpt lat="44.90137" lon="6.08125">
        <ele>1879.2</ele>
        <time>2024-08-14T07:45:15Z</time>
      </trkpt>
      <trkpt lat="44.90137" lon="6.08125">
        <ele>1878.6</ele>
        <time>2024-08-14T07:45:16Z</time>
      </trkpt>
      <trkpt lat="44.90137" lon="6.08125">
        <ele>1878.4</ele>
        <time>2024-08-14T07:45:17Z</time>
      </trkpt>
      <trkpt lat="44.90139" lon="6.08124">
        <ele>1878</ele>
        <time>2024-08-14T07:45:18Z</time>
      </trkpt>
      <trkpt lat="44.90139" lon="6.08124">
        <ele>1877.8</ele>
        <time>2024-08-14T07:45:19Z</time>
      </trkpt>
      <trkpt lat="44.90141" lon="6.08121">
        <ele>1877.6</ele>
        <time>2024-08-14T07:45:20Z</time>
      </trkpt>
      <trkpt lat="44.90141" lon="6.08121">
        <ele>1877</ele>
        <time>2024-08-14T07:45:21Z</time>
      </trkpt>
      <trkpt lat="44.90142" lon="6.08118">
        <ele>1876.8</ele>
        <time>2024-08-14T07:45:22Z</time>
      </trkpt>
      <trkpt lat="44.90142" lon="6.08118">
        <ele>1876.8</ele>
        <time>2024-08-14T07:45:23Z</time>
      </trkpt>
      <trkpt lat="44.90144" lon="6.08115">
        <ele>1876.8</ele>
        <time>2024-08-14T07:45:24Z</time>
      </trkpt>
      <trkpt lat="44.90144" lon="6.08115">
        <ele>1876.8</ele>
        <time>2024-08-14T07:45:25Z</time>
      </trkpt>
      <trkpt lat="44.90145" lon="6.08112">
        <ele>1876.6</ele>
        <time>2024-08-14T07:45:26Z</time>
      </trkpt>
      <trkpt lat="44.90145" lon="6.08112">
        <ele>1876.4</ele>
        <time>2024-08-14T07:45:27Z</time>
      </trkpt>
      <trkpt lat="44.90146" lon="6.08108">
        <ele>1876.2</ele>
        <time>2024-08-14T07:45:28Z</time>
      </trkpt>
      <trkpt lat="44.90146" lon="6.08108">
        <ele>1876.2</ele>
        <time>2024-08-14T07:45:29Z</time>
      </trkpt>
      <trkpt lat="44.90146" lon="6.08105">
        <ele>1876</ele>
        <time>2024-08-14T07:45:30Z</time>
      </trkpt>
      <trkpt lat="44.90146" lon="6.08105">
        <ele>1875.6</ele>
        <time>2024-08-14T07:45:31Z</time>
      </trkpt>
      <trkpt lat="44.90147" lon="6.08102">
        <ele>1875.6</ele>
        <time>2024-08-14T07:45:32Z</time>
      </trkpt>
      <trkpt lat="44.90147" lon="6.08102">
        <ele>1875.2</ele>
        <time>2024-08-14T07:45:33Z</time>
      </trkpt>
      <trkpt lat="44.90148" lon="6.08099">
        <ele>1875.2</ele>
        <time>2024-08-14T07:45:34Z</time>
      </trkpt>
      <trkpt lat="44.90148" lon="6.08099">
        <ele>1875</ele>
        <time>2024-08-14T07:45:35Z</time>
      </trkpt>
      <trkpt lat="44.90149" lon="6.08095">
        <ele>1874.6</ele>
        <time>2024-08-14T07:45:36Z</time>
      </trkpt>
      <trkpt lat="44.90149" lon="6.08095">
        <ele>1874.4</ele>
        <time>2024-08-14T07:45:37Z</time>
      </trkpt>
      <trkpt lat="44.90149" lon="6.08095">
        <ele>1873.8</ele>
        <time>2024-08-14T07:45:38Z</time>
      </trkpt>
      <trkpt lat="44.90149" lon="6.08091">
        <ele>1873.4</ele>
        <time>2024-08-14T07:45:39Z</time>
      </trkpt>
      <trkpt lat="44.90149" lon="6.08091">
        <ele>1873.4</ele>
        <time>2024-08-14T07:45:40Z</time>
      </trkpt>
      <trkpt lat="44.90149" lon="6.08088">
        <ele>1873.2</ele>
        <time>2024-08-14T07:45:41Z</time>
      </trkpt>
      <trkpt lat="44.90149" lon="6.08088">
        <ele>1872.8</ele>
        <time>2024-08-14T07:45:42Z</time>
      </trkpt>
      <trkpt lat="44.90149" lon="6.08085">
        <ele>1872.4</ele>
        <time>2024-08-14T07:45:43Z</time>
      </trkpt>
      <trkpt lat="44.90149" lon="6.08085">
        <ele>1872.2</ele>
        <time>2024-08-14T07:45:44Z</time>
      </trkpt>
      <trkpt lat="44.90149" lon="6.08082">
        <ele>1871.8</ele>
        <time>2024-08-14T07:45:45Z</time>
      </trkpt>
      <trkpt lat="44.90149" lon="6.08082">
        <ele>1871.4</ele>
        <time>2024-08-14T07:45:46Z</time>
      </trkpt>
      <trkpt lat="44.90148" lon="6.08079">
        <ele>1871.2</ele>
        <time>2024-08-14T07:45:47Z</time>
      </trkpt>
      <trkpt lat="44.90148" lon="6.08079">
        <ele>1871</ele>
        <time>2024-08-14T07:45:48Z</time>
      </trkpt>
      <trkpt lat="44.90148" lon="6.08079">
        <ele>1870.8</ele>
        <time>2024-08-14T07:45:49Z</time>
      </trkpt>
      <trkpt lat="44.9015" lon="6.0808">
        <ele>1870.4</ele>
        <time>2024-08-14T07:45:50Z</time>
      </trkpt>
      <trkpt lat="44.9015" lon="6.0808">
        <ele>1870.2</ele>
        <time>2024-08-14T07:45:51Z</time>
      </trkpt>
      <trkpt lat="44.90153" lon="6.08082">
        <ele>1870</ele>
        <time>2024-08-14T07:45:52Z</time>
      </trkpt>
      <trkpt lat="44.90153" lon="6.08082">
        <ele>1869.6</ele>
        <time>2024-08-14T07:45:53Z</time>
      </trkpt>
      <trkpt lat="44.90156" lon="6.08084">
        <ele>1869.2</ele>
        <time>2024-08-14T07:45:54Z</time>
      </trkpt>
      <trkpt lat="44.90156" lon="6.08084">
        <ele>1869</ele>
        <time>2024-08-14T07:45:55Z</time>
      </trkpt>
      <trkpt lat="44.90157" lon="6.08086">
        <ele>1868.8</ele>
        <time>2024-08-14T07:45:56Z</time>
      </trkpt>
      <trkpt lat="44.90157" lon="6.08086">
        <ele>1868.8</ele>
        <time>2024-08-14T07:45:57Z</time>
      </trkpt>
      <trkpt lat="44.9016" lon="6.08087">
        <ele>1868.4</ele>
        <time>2024-08-14T07:45:58Z</time>
      </trkpt>
      <trkpt lat="44.9016" lon="6.08087">
        <ele>1868</ele>
        <time>2024-08-14T07:45:59Z</time>
      </trkpt>
      <trkpt lat="44.90163" lon="6.0809">
        <ele>1867.6</ele>
        <time>2024-08-14T07:46:00Z</time>
      </trkpt>
      <trkpt lat="44.90163" lon="6.0809">
        <ele>1867.6</ele>
        <time>2024-08-14T07:46:01Z</time>
      </trkpt>
      <trkpt lat="44.90165" lon="6.08093">
        <ele>1867.2</ele>
        <time>2024-08-14T07:46:02Z</time>
      </trkpt>
      <trkpt lat="44.90165" lon="6.08093">
        <ele>1867.2</ele>
        <time>2024-08-14T07:46:03Z</time>
      </trkpt>
      <trkpt lat="44.90166" lon="6.08096">
        <ele>1867.2</ele>
        <time>2024-08-14T07:46:04Z</time>
      </trkpt>
      <trkpt lat="44.90166" lon="6.08096">
        <ele>1867</ele>
        <time>2024-08-14T07:46:05Z</time>
      </trkpt>
      <trkpt lat="44.90169" lon="6.08098">
        <ele>1867</ele>
        <time>2024-08-14T07:46:06Z</time>
      </trkpt>
      <trkpt lat="44.90169" lon="6.08098">
        <ele>1866.6</ele>
        <time>2024-08-14T07:46:07Z</time>
      </trkpt>
      <trkpt lat="44.90171" lon="6.08101">
        <ele>1865.8</ele>
        <time>2024-08-14T07:46:08Z</time>
      </trkpt>
      <trkpt lat="44.90171" lon="6.08101">
        <ele>1865.6</ele>
        <time>2024-08-14T07:46:09Z</time>
      </trkpt>
      <trkpt lat="44.90172" lon="6.08103">
        <ele>1865.2</ele>
        <time>2024-08-14T07:46:10Z</time>
      </trkpt>
      <trkpt lat="44.90172" lon="6.08103">
        <ele>1864.8</ele>
        <time>2024-08-14T07:46:11Z</time>
      </trkpt>
      <trkpt lat="44.90174" lon="6.08107">
        <ele>1864.6</ele>
        <time>2024-08-14T07:46:12Z</time>
      </trkpt>
      <trkpt lat="44.90174" lon="6.08107">
        <ele>1864.4</ele>
        <time>2024-08-14T07:46:13Z</time>
      </trkpt>
      <trkpt lat="44.90174" lon="6.08111">
        <ele>1864</ele>
        <time>2024-08-14T07:46:14Z</time>
      </trkpt>
      <trkpt lat="44.90174" lon="6.08111">
        <ele>1863.8</ele>
        <time>2024-08-14T07:46:15Z</time>
      </trkpt>
      <trkpt lat="44.90173" lon="6.08114">
        <ele>1863.6</ele>
        <time>2024-08-14T07:46:16Z</time>
      </trkpt>
      <trkpt lat="44.90173" lon="6.08114">
        <ele>1863.4</ele>
        <time>2024-08-14T07:46:17Z</time>
      </trkpt>
      <trkpt lat="44.90173" lon="6.08118">
        <ele>1863.2</ele>
        <time>2024-08-14T07:46:18Z</time>
      </trkpt>
      <trkpt lat="44.90173" lon="6.08118">
        <ele>1863</ele>
        <time>2024-08-14T07:46:19Z</time>
      </trkpt>
      <trkpt lat="44.90172" lon="6.08121">
        <ele>1862.4</ele>
        <time>2024-08-14T07:46:20Z</time>
      </trkpt>
      <trkpt lat="44.90172" lon="6.08121">
        <ele>1862.4</ele>
        <time>2024-08-14T07:46:21Z</time>
      </trkpt>
      <trkpt lat="44.90171" lon="6.08124">
        <ele>1862.2</ele>
        <time>2024-08-14T07:46:22Z</time>
      </trkpt>
      <trkpt lat="44.90171" lon="6.08124">
        <ele>1861.6</ele>
        <time>2024-08-14T07:46:23Z</time>
      </trkpt>
      <trkpt lat="44.9017" lon="6.08127">
        <ele>1861.4</ele>
        <time>2024-08-14T07:46:24Z</time>
      </trkpt>
      <trkpt lat="44.9017" lon="6.08127">
        <ele>1861</ele>
        <time>2024-08-14T07:46:25Z</time>
      </trkpt>
      <trkpt lat="44.90168" lon="6.0813">
        <ele>1860.8</ele>
        <time>2024-08-14T07:46:26Z</time>
      </trkpt>
      <trkpt lat="44.90168" lon="6.0813">
        <ele>1860.6</ele>
        <time>2024-08-14T07:46:27Z</time>
      </trkpt>
      <trkpt lat="44.90166" lon="6.08133">
        <ele>1860.2</ele>
        <time>2024-08-14T07:46:28Z</time>
      </trkpt>
      <trkpt lat="44.90166" lon="6.08133">
        <ele>1860</ele>
        <time>2024-08-14T07:46:29Z</time>
      </trkpt>
      <trkpt lat="44.90165" lon="6.08136">
        <ele>1859.8</ele>
        <time>2024-08-14T07:46:30Z</time>
      </trkpt>
      <trkpt lat="44.90165" lon="6.08136">
        <ele>1859.8</ele>
        <time>2024-08-14T07:46:31Z</time>
      </trkpt>
      <trkpt lat="44.90164" lon="6.08138">
        <ele>1859.6</ele>
        <time>2024-08-14T07:46:32Z</time>
      </trkpt>
      <trkpt lat="44.90162" lon="6.0814">
        <ele>1859.4</ele>
        <time>2024-08-14T07:46:33Z</time>
      </trkpt>
      <trkpt lat="44.90162" lon="6.0814">
        <ele>1859.2</ele>
        <time>2024-08-14T07:46:34Z</time>
      </trkpt>
      <trkpt lat="44.90161" lon="6.08142">
        <ele>1859.2</ele>
        <time>2024-08-14T07:46:35Z</time>
      </trkpt>
      <trkpt lat="44.90161" lon="6.08142">
        <ele>1858.6</ele>
        <time>2024-08-14T07:46:36Z</time>
      </trkpt>
      <trkpt lat="44.90159" lon="6.08145">
        <ele>1858.4</ele>
        <time>2024-08-14T07:46:37Z</time>
      </trkpt>
      <trkpt lat="44.90159" lon="6.08145">
        <ele>1858.2</ele>
        <time>2024-08-14T07:46:38Z</time>
      </trkpt>
      <trkpt lat="44.90157" lon="6.08148">
        <ele>1857.8</ele>
        <time>2024-08-14T07:46:39Z</time>
      </trkpt>
      <trkpt lat="44.90157" lon="6.08148">
        <ele>1857.8</ele>
        <time>2024-08-14T07:46:40Z</time>
      </trkpt>
      <trkpt lat="44.90155" lon="6.0815">
        <ele>1857.6</ele>
        <time>2024-08-14T07:46:41Z</time>
      </trkpt>
      <trkpt lat="44.90155" lon="6.0815">
        <ele>1857.4</ele>
        <time>2024-08-14T07:46:42Z</time>
      </trkpt>
      <trkpt lat="44.90154" lon="6.08152">
        <ele>1857.4</ele>
        <time>2024-08-14T07:46:43Z</time>
      </trkpt>
      <trkpt lat="44.90154" lon="6.08152">
        <ele>1856.8</ele>
        <time>2024-08-14T07:46:44Z</time>
      </trkpt>
      <trkpt lat="44.90152" lon="6.08155">
        <ele>1856.4</ele>
        <time>2024-08-14T07:46:45Z</time>
      </trkpt>
      <trkpt lat="44.90152" lon="6.08155">
        <ele>1856.2</ele>
        <time>2024-08-14T07:46:46Z</time>
      </trkpt>
      <trkpt lat="44.90152" lon="6.08155">
        <ele>1856.2</ele>
        <time>2024-08-14T07:46:47Z</time>
      </trkpt>
      <trkpt lat="44.90152" lon="6.08158">
        <ele>1856</ele>
        <time>2024-08-14T07:46:48Z</time>
      </trkpt>
      <trkpt lat="44.90152" lon="6.08158">
        <ele>1855.8</ele>
        <time>2024-08-14T07:46:49Z</time>
      </trkpt>
      <trkpt lat="44.90151" lon="6.08161">
        <ele>1855.6</ele>
        <time>2024-08-14T07:46:50Z</time>
      </trkpt>
      <trkpt lat="44.90151" lon="6.08161">
        <ele>1855.2</ele>
        <time>2024-08-14T07:46:51Z</time>
      </trkpt>
      <trkpt lat="44.90149" lon="6.08164">
        <ele>1855</ele>
        <time>2024-08-14T07:46:52Z</time>
      </trkpt>
      <trkpt lat="44.90149" lon="6.08164">
        <ele>1854.8</ele>
        <time>2024-08-14T07:46:53Z</time>
      </trkpt>
      <trkpt lat="44.90148" lon="6.08167">
        <ele>1854.8</ele>
        <time>2024-08-14T07:46:54Z</time>
      </trkpt>
      <trkpt lat="44.90148" lon="6.08167">
        <ele>1854.8</ele>
        <time>2024-08-14T07:46:55Z</time>
      </trkpt>
      <trkpt lat="44.90145" lon="6.0817">
        <ele>1854.4</ele>
        <time>2024-08-14T07:46:56Z</time>
      </trkpt>
      <trkpt lat="44.90143" lon="6.08171">
        <ele>1854.2</ele>
        <time>2024-08-14T07:46:57Z</time>
      </trkpt>
      <trkpt lat="44.90143" lon="6.08171">
        <ele>1853.8</ele>
        <time>2024-08-14T07:46:58Z</time>
      </trkpt>
      <trkpt lat="44.9014" lon="6.08174">
        <ele>1853.8</ele>
        <time>2024-08-14T07:46:59Z</time>
      </trkpt>
      <trkpt lat="44.9014" lon="6.08174">
        <ele>1853.6</ele>
        <time>2024-08-14T07:47:00Z</time>
      </trkpt>
      <trkpt lat="44.90138" lon="6.08175">
        <ele>1853.4</ele>
        <time>2024-08-14T07:47:01Z</time>
      </trkpt>
      <trkpt lat="44.90138" lon="6.08175">
        <ele>1853.2</ele>
        <time>2024-08-14T07:47:02Z</time>
      </trkpt>
      <trkpt lat="44.90138" lon="6.08175">
        <ele>1853.2</ele>
        <time>2024-08-14T07:47:03Z</time>
      </trkpt>
      <trkpt lat="44.90136" lon="6.08177">
        <ele>1853.4</ele>
        <time>2024-08-14T07:47:04Z</time>
      </trkpt>
      <trkpt lat="44.90136" lon="6.08177">
        <ele>1853.6</ele>
        <time>2024-08-14T07:47:05Z</time>
      </trkpt>
      <trkpt lat="44.90134" lon="6.0818">
        <ele>1853.6</ele>
        <time>2024-08-14T07:47:06Z</time>
      </trkpt>
      <trkpt lat="44.90134" lon="6.0818">
        <ele>1853.6</ele>
        <time>2024-08-14T07:47:07Z</time>
      </trkpt>
      <trkpt lat="44.90132" lon="6.08183">
        <ele>1853.4</ele>
        <time>2024-08-14T07:47:08Z</time>
      </trkpt>
      <trkpt lat="44.90132" lon="6.08183">
        <ele>1853.4</ele>
        <time>2024-08-14T07:47:09Z</time>
      </trkpt>
      <trkpt lat="44.90131" lon="6.08185">
        <ele>1853.4</ele>
        <time>2024-08-14T07:47:10Z</time>
      </trkpt>
      <trkpt lat="44.90131" lon="6.08185">
        <ele>1853.2</ele>
        <time>2024-08-14T07:47:11Z</time>
      </trkpt>
      <trkpt lat="44.90128" lon="6.08188">
        <ele>1853</ele>
        <time>2024-08-14T07:47:12Z</time>
      </trkpt>
      <trkpt lat="44.90128" lon="6.08188">
        <ele>1853</ele>
        <time>2024-08-14T07:47:13Z</time>
      </trkpt>
      <trkpt lat="44.90126" lon="6.08191">
        <ele>1853</ele>
        <time>2024-08-14T07:47:14Z</time>
      </trkpt>
      <trkpt lat="44.90126" lon="6.08191">
        <ele>1852.6</ele>
        <time>2024-08-14T07:47:15Z</time>
      </trkpt>
      <trkpt lat="44.90126" lon="6.08191">
        <ele>1852.6</ele>
        <time>2024-08-14T07:47:16Z</time>
      </trkpt>
      <trkpt lat="44.90126" lon="6.08194">
        <ele>1852.2</ele>
        <time>2024-08-14T07:47:17Z</time>
      </trkpt>
      <trkpt lat="44.90126" lon="6.08194">
        <ele>1851.8</ele>
        <time>2024-08-14T07:47:18Z</time>
      </trkpt>
      <trkpt lat="44.90128" lon="6.08196">
        <ele>1851.4</ele>
        <time>2024-08-14T07:47:19Z</time>
      </trkpt>
      <trkpt lat="44.90128" lon="6.08196">
        <ele>1851.2</ele>
        <time>2024-08-14T07:47:20Z</time>
      </trkpt>
      <trkpt lat="44.90129" lon="6.08198">
        <ele>1850.8</ele>
        <time>2024-08-14T07:47:21Z</time>
      </trkpt>
      <trkpt lat="44.90129" lon="6.08198">
        <ele>1850.8</ele>
        <time>2024-08-14T07:47:22Z</time>
      </trkpt>
      <trkpt lat="44.90129" lon="6.08198">
        <ele>1851</ele>
        <time>2024-08-14T07:47:23Z</time>
      </trkpt>
      <trkpt lat="44.90128" lon="6.08201">
        <ele>1851</ele>
        <time>2024-08-14T07:47:24Z</time>
      </trkpt>
      <trkpt lat="44.90128" lon="6.08201">
        <ele>1851</ele>
        <time>2024-08-14T07:47:25Z</time>
      </trkpt>
      <trkpt lat="44.90128" lon="6.08204">
        <ele>1850.8</ele>
        <time>2024-08-14T07:47:26Z</time>
      </trkpt>
      <trkpt lat="44.90128" lon="6.08204">
        <ele>1850.8</ele>
        <time>2024-08-14T07:47:27Z</time>
      </trkpt>
      <trkpt lat="44.90127" lon="6.08207">
        <ele>1850.6</ele>
        <time>2024-08-14T07:47:28Z</time>
      </trkpt>
      <trkpt lat="44.90127" lon="6.08207">
        <ele>1850.2</ele>
        <time>2024-08-14T07:47:29Z</time>
      </trkpt>
      <trkpt lat="44.90127" lon="6.08207">
        <ele>1850.2</ele>
        <time>2024-08-14T07:47:30Z</time>
      </trkpt>
      <trkpt lat="44.90127" lon="6.0821">
        <ele>1850</ele>
        <time>2024-08-14T07:47:31Z</time>
      </trkpt>
      <trkpt lat="44.90127" lon="6.0821">
        <ele>1849.4</ele>
        <time>2024-08-14T07:47:32Z</time>
      </trkpt>
      <trkpt lat="44.90129" lon="6.08211">
        <ele>1849</ele>
        <time>2024-08-14T07:47:33Z</time>
      </trkpt>
      <trkpt lat="44.90129" lon="6.08211">
        <ele>1848.8</ele>
        <time>2024-08-14T07:47:34Z</time>
      </trkpt>
      <trkpt lat="44.90132" lon="6.08211">
        <ele>1848.8</ele>
        <time>2024-08-14T07:47:35Z</time>
      </trkpt>
      <trkpt lat="44.90133" lon="6.08212">
        <ele>1848.8</ele>
        <time>2024-08-14T07:47:36Z</time>
      </trkpt>
      <trkpt lat="44.90133" lon="6.08212">
        <ele>1848.4</ele>
        <time>2024-08-14T07:47:37Z</time>
      </trkpt>
      <trkpt lat="44.90135" lon="6.08214">
        <ele>1848</ele>
        <time>2024-08-14T07:47:38Z</time>
      </trkpt>
      <trkpt lat="44.90135" lon="6.08214">
        <ele>1847.8</ele>
        <time>2024-08-14T07:47:39Z</time>
      </trkpt>
      <trkpt lat="44.90138" lon="6.08215">
        <ele>1847.6</ele>
        <time>2024-08-14T07:47:40Z</time>
      </trkpt>
      <trkpt lat="44.90138" lon="6.08215">
        <ele>1847.2</ele>
        <time>2024-08-14T07:47:41Z</time>
      </trkpt>
      <trkpt lat="44.90138" lon="6.08215">
        <ele>1847.2</ele>
        <time>2024-08-14T07:47:42Z</time>
      </trkpt>
      <trkpt lat="44.9014" lon="6.08217">
        <ele>1846.8</ele>
        <time>2024-08-14T07:47:43Z</time>
      </trkpt>
      <trkpt lat="44.9014" lon="6.08217">
        <ele>1846.6</ele>
        <time>2024-08-14T07:47:44Z</time>
      </trkpt>
      <trkpt lat="44.9014" lon="6.08217">
        <ele>1846.4</ele>
        <time>2024-08-14T07:47:45Z</time>
      </trkpt>
      <trkpt lat="44.90142" lon="6.08217">
        <ele>1846.2</ele>
        <time>2024-08-14T07:47:46Z</time>
      </trkpt>
      <trkpt lat="44.90142" lon="6.08217">
        <ele>1846</ele>
        <time>2024-08-14T07:47:47Z</time>
      </trkpt>
      <trkpt lat="44.90142" lon="6.08217">
        <ele>1845.6</ele>
        <time>2024-08-14T07:47:48Z</time>
      </trkpt>
      <trkpt lat="44.90144" lon="6.08218">
        <ele>1845.2</ele>
        <time>2024-08-14T07:47:49Z</time>
      </trkpt>
      <trkpt lat="44.90144" lon="6.08218">
        <ele>1844.8</ele>
        <time>2024-08-14T07:47:50Z</time>
      </trkpt>
      <trkpt lat="44.90144" lon="6.08218">
        <ele>1844.6</ele>
        <time>2024-08-14T07:47:51Z</time>
      </trkpt>
      <trkpt lat="44.90146" lon="6.08218">
        <ele>1844.6</ele>
        <time>2024-08-14T07:47:52Z</time>
      </trkpt>
      <trkpt lat="44.90146" lon="6.08218">
        <ele>1844</ele>
        <time>2024-08-14T07:47:53Z</time>
      </trkpt>
      <trkpt lat="44.90146" lon="6.08218">
        <ele>1843.8</ele>
        <time>2024-08-14T07:47:54Z</time>
      </trkpt>
      <trkpt lat="44.90148" lon="6.08218">
        <ele>1843.6</ele>
        <time>2024-08-14T07:47:55Z</time>
      </trkpt>
      <trkpt lat="44.90148" lon="6.08218">
        <ele>1843.4</ele>
        <time>2024-08-14T07:47:56Z</time>
      </trkpt>
      <trkpt lat="44.9015" lon="6.0822">
        <ele>1843</ele>
        <time>2024-08-14T07:47:57Z</time>
      </trkpt>
      <trkpt lat="44.9015" lon="6.0822">
        <ele>1842.8</ele>
        <time>2024-08-14T07:47:58Z</time>
      </trkpt>
      <trkpt lat="44.90151" lon="6.08221">
        <ele>1842.6</ele>
        <time>2024-08-14T07:47:59Z</time>
      </trkpt>
      <trkpt lat="44.90151" lon="6.08221">
        <ele>1842.6</ele>
        <time>2024-08-14T07:48:00Z</time>
      </trkpt>
      <trkpt lat="44.90153" lon="6.08222">
        <ele>1842.2</ele>
        <time>2024-08-14T07:48:01Z</time>
      </trkpt>
      <trkpt lat="44.90153" lon="6.08222">
        <ele>1842</ele>
        <time>2024-08-14T07:48:02Z</time>
      </trkpt>
      <trkpt lat="44.90155" lon="6.08224">
        <ele>1842</ele>
        <time>2024-08-14T07:48:03Z</time>
      </trkpt>
      <trkpt lat="44.90155" lon="6.08224">
        <ele>1841.6</ele>
        <time>2024-08-14T07:48:04Z</time>
      </trkpt>
      <trkpt lat="44.90156" lon="6.08227">
        <ele>1841.4</ele>
        <time>2024-08-14T07:48:05Z</time>
      </trkpt>
      <trkpt lat="44.90156" lon="6.08227">
        <ele>1841.4</ele>
        <time>2024-08-14T07:48:06Z</time>
      </trkpt>
      <trkpt lat="44.90159" lon="6.08228">
        <ele>1841.4</ele>
        <time>2024-08-14T07:48:07Z</time>
      </trkpt>
      <trkpt lat="44.90159" lon="6.08228">
        <ele>1841.2</ele>
        <time>2024-08-14T07:48:08Z</time>
      </trkpt>
      <trkpt lat="44.90162" lon="6.08228">
        <ele>1840.8</ele>
        <time>2024-08-14T07:48:09Z</time>
      </trkpt>
      <trkpt lat="44.90162" lon="6.08228">
        <ele>1840.8</ele>
        <time>2024-08-14T07:48:10Z</time>
      </trkpt>
      <trkpt lat="44.90164" lon="6.08229">
        <ele>1840.6</ele>
        <time>2024-08-14T07:48:11Z</time>
      </trkpt>
      <trkpt lat="44.90164" lon="6.08229">
        <ele>1840.6</ele>
        <time>2024-08-14T07:48:12Z</time>
      </trkpt>
      <trkpt lat="44.90166" lon="6.08228">
        <ele>1840.4</ele>
        <time>2024-08-14T07:48:13Z</time>
      </trkpt>
      <trkpt lat="44.90166" lon="6.08228">
        <ele>1840.2</ele>
        <time>2024-08-14T07:48:14Z</time>
      </trkpt>
      <trkpt lat="44.90168" lon="6.08229">
        <ele>1840</ele>
        <time>2024-08-14T07:48:15Z</time>
      </trkpt>
      <trkpt lat="44.90168" lon="6.08229">
        <ele>1839.8</ele>
        <time>2024-08-14T07:48:16Z</time>
      </trkpt>
      <trkpt lat="44.9017" lon="6.0823">
        <ele>1839.6</ele>
        <time>2024-08-14T07:48:17Z</time>
      </trkpt>
      <trkpt lat="44.9017" lon="6.0823">
        <ele>1839.6</ele>
        <time>2024-08-14T07:48:18Z</time>
      </trkpt>
      <trkpt lat="44.90172" lon="6.08231">
        <ele>1839.4</ele>
        <time>2024-08-14T07:48:19Z</time>
      </trkpt>
      <trkpt lat="44.90172" lon="6.08231">
        <ele>1839</ele>
        <time>2024-08-14T07:48:20Z</time>
      </trkpt>
      <trkpt lat="44.90173" lon="6.08232">
        <ele>1838.4</ele>
        <time>2024-08-14T07:48:21Z</time>
      </trkpt>
      <trkpt lat="44.90173" lon="6.08232">
        <ele>1838.2</ele>
        <time>2024-08-14T07:48:22Z</time>
      </trkpt>
      <trkpt lat="44.90173" lon="6.08232">
        <ele>1837.8</ele>
        <time>2024-08-14T07:48:23Z</time>
      </trkpt>
      <trkpt lat="44.90176" lon="6.08235">
        <ele>1837.6</ele>
        <time>2024-08-14T07:48:24Z</time>
      </trkpt>
      <trkpt lat="44.90176" lon="6.08235">
        <ele>1837.4</ele>
        <time>2024-08-14T07:48:25Z</time>
      </trkpt>
      <trkpt lat="44.90177" lon="6.08237">
        <ele>1837</ele>
        <time>2024-08-14T07:48:26Z</time>
      </trkpt>
      <trkpt lat="44.90177" lon="6.08237">
        <ele>1836.6</ele>
        <time>2024-08-14T07:48:27Z</time>
      </trkpt>
      <trkpt lat="44.90179" lon="6.08239">
        <ele>1836.2</ele>
        <time>2024-08-14T07:48:28Z</time>
      </trkpt>
      <trkpt lat="44.90179" lon="6.08239">
        <ele>1836.2</ele>
        <time>2024-08-14T07:48:29Z</time>
      </trkpt>
      <trkpt lat="44.90181" lon="6.08241">
        <ele>1836.2</ele>
        <time>2024-08-14T07:48:30Z</time>
      </trkpt>
      <trkpt lat="44.90181" lon="6.08241">
        <ele>1835.8</ele>
        <time>2024-08-14T07:48:31Z</time>
      </trkpt>
      <trkpt lat="44.90181" lon="6.08241">
        <ele>1835.6</ele>
        <time>2024-08-14T07:48:32Z</time>
      </trkpt>
      <trkpt lat="44.90183" lon="6.08243">
        <ele>1835.4</ele>
        <time>2024-08-14T07:48:33Z</time>
      </trkpt>
      <trkpt lat="44.90183" lon="6.08243">
        <ele>1835.4</ele>
        <time>2024-08-14T07:48:34Z</time>
      </trkpt>
      <trkpt lat="44.90185" lon="6.08245">
        <ele>1835.2</ele>
        <time>2024-08-14T07:48:35Z</time>
      </trkpt>
      <trkpt lat="44.90185" lon="6.08245">
        <ele>1834.8</ele>
        <time>2024-08-14T07:48:36Z</time>
      </trkpt>
      <trkpt lat="44.90188" lon="6.08246">
        <ele>1834.6</ele>
        <time>2024-08-14T07:48:37Z</time>
      </trkpt>
      <trkpt lat="44.90188" lon="6.08246">
        <ele>1834.4</ele>
        <time>2024-08-14T07:48:38Z</time>
      </trkpt>
      <trkpt lat="44.9019" lon="6.08247">
        <ele>1834</ele>
        <time>2024-08-14T07:48:39Z</time>
      </trkpt>
      <trkpt lat="44.9019" lon="6.08247">
        <ele>1833.6</ele>
        <time>2024-08-14T07:48:40Z</time>
      </trkpt>
      <trkpt lat="44.90192" lon="6.08248">
        <ele>1833.2</ele>
        <time>2024-08-14T07:48:41Z</time>
      </trkpt>
      <trkpt lat="44.90192" lon="6.08248">
        <ele>1832.8</ele>
        <time>2024-08-14T07:48:42Z</time>
      </trkpt>
      <trkpt lat="44.90195" lon="6.08249">
        <ele>1832.8</ele>
        <time>2024-08-14T07:48:43Z</time>
      </trkpt>
      <trkpt lat="44.90195" lon="6.08249">
        <ele>1832.6</ele>
        <time>2024-08-14T07:48:44Z</time>
      </trkpt>
      <trkpt lat="44.90197" lon="6.0825">
        <ele>1832.6</ele>
        <time>2024-08-14T07:48:45Z</time>
      </trkpt>
      <trkpt lat="44.90197" lon="6.0825">
        <ele>1832.6</ele>
        <time>2024-08-14T07:48:46Z</time>
      </trkpt>
      <trkpt lat="44.90199" lon="6.08252">
        <ele>1832.4</ele>
        <time>2024-08-14T07:48:47Z</time>
      </trkpt>
      <trkpt lat="44.90199" lon="6.08252">
        <ele>1832</ele>
        <time>2024-08-14T07:48:48Z</time>
      </trkpt>
      <trkpt lat="44.90201" lon="6.08255">
        <ele>1831.4</ele>
        <time>2024-08-14T07:48:49Z</time>
      </trkpt>
      <trkpt lat="44.90201" lon="6.08255">
        <ele>1831.4</ele>
        <time>2024-08-14T07:48:50Z</time>
      </trkpt>
      <trkpt lat="44.90202" lon="6.08258">
        <ele>1831.6</ele>
        <time>2024-08-14T07:48:51Z</time>
      </trkpt>
      <trkpt lat="44.90202" lon="6.08258">
        <ele>1831.6</ele>
        <time>2024-08-14T07:48:52Z</time>
      </trkpt>
      <trkpt lat="44.90204" lon="6.08262">
        <ele>1831.8</ele>
        <time>2024-08-14T07:48:53Z</time>
      </trkpt>
      <trkpt lat="44.90204" lon="6.08262">
        <ele>1831.8</ele>
        <time>2024-08-14T07:48:54Z</time>
      </trkpt>
      <trkpt lat="44.90204" lon="6.08264">
        <ele>1831.6</ele>
        <time>2024-08-14T07:48:55Z</time>
      </trkpt>
      <trkpt lat="44.90204" lon="6.08264">
        <ele>1831.6</ele>
        <time>2024-08-14T07:48:56Z</time>
      </trkpt>
      <trkpt lat="44.90204" lon="6.08264">
        <ele>1831.8</ele>
        <time>2024-08-14T07:48:57Z</time>
      </trkpt>
      <trkpt lat="44.90205" lon="6.08267">
        <ele>1831.8</ele>
        <time>2024-08-14T07:48:58Z</time>
      </trkpt>
      <trkpt lat="44.90205" lon="6.08267">
        <ele>1831.6</ele>
        <time>2024-08-14T07:48:59Z</time>
      </trkpt>
      <trkpt lat="44.90206" lon="6.0827">
        <ele>1831.2</ele>
        <time>2024-08-14T07:49:00Z</time>
      </trkpt>
      <trkpt lat="44.90206" lon="6.0827">
        <ele>1831</ele>
        <time>2024-08-14T07:49:01Z</time>
      </trkpt>
      <trkpt lat="44.90208" lon="6.08274">
        <ele>1830.2</ele>
        <time>2024-08-14T07:49:02Z</time>
      </trkpt>
      <trkpt lat="44.90208" lon="6.08274">
        <ele>1830.2</ele>
        <time>2024-08-14T07:49:03Z</time>
      </trkpt>
      <trkpt lat="44.90208" lon="6.08278">
        <ele>1829.6</ele>
        <time>2024-08-14T07:49:04Z</time>
      </trkpt>
      <trkpt lat="44.90208" lon="6.08278">
        <ele>1829.4</ele>
        <time>2024-08-14T07:49:05Z</time>
      </trkpt>
      <trkpt lat="44.90209" lon="6.0828">
        <ele>1829</ele>
        <time>2024-08-14T07:49:06Z</time>
      </trkpt>
      <trkpt lat="44.90209" lon="6.0828">
        <ele>1828.8</ele>
        <time>2024-08-14T07:49:07Z</time>
      </trkpt>
      <trkpt lat="44.90209" lon="6.0828">
        <ele>1828.8</ele>
        <time>2024-08-14T07:49:08Z</time>
      </trkpt>
      <trkpt lat="44.90209" lon="6.0828">
        <ele>1829</ele>
        <time>2024-08-14T07:49:09Z</time>
      </trkpt>
      <trkpt lat="44.90209" lon="6.0828">
        <ele>1829</ele>
        <time>2024-08-14T07:49:10Z</time>
      </trkpt>
      <trkpt lat="44.90209" lon="6.0828">
        <ele>1829</ele>
        <time>2024-08-14T07:49:11Z</time>
      </trkpt>
      <trkpt lat="44.90209" lon="6.0828">
        <ele>1829</ele>
        <time>2024-08-14T07:49:12Z</time>
      </trkpt>
      <trkpt lat="44.90209" lon="6.0828">
        <ele>1829</ele>
        <time>2024-08-14T07:49:13Z</time>
      </trkpt>
      <trkpt lat="44.90209" lon="6.0828">
        <ele>1829.2</ele>
        <time>2024-08-14T07:49:14Z</time>
      </trkpt>
      <trkpt lat="44.90211" lon="6.08282">
        <ele>1829.2</ele>
        <time>2024-08-14T07:49:15Z</time>
      </trkpt>
      <trkpt lat="44.90211" lon="6.08282">
        <ele>1829</ele>
        <time>2024-08-14T07:49:16Z</time>
      </trkpt>
      <trkpt lat="44.90211" lon="6.08282">
        <ele>1828.6</ele>
        <time>2024-08-14T07:49:17Z</time>
      </trkpt>
      <trkpt lat="44.90212" lon="6.08284">
        <ele>1828.4</ele>
        <time>2024-08-14T07:49:18Z</time>
      </trkpt>
      <trkpt lat="44.90212" lon="6.08284">
        <ele>1828</ele>
        <time>2024-08-14T07:49:19Z</time>
      </trkpt>
      <trkpt lat="44.90214" lon="6.08285">
        <ele>1827.8</ele>
        <time>2024-08-14T07:49:20Z</time>
      </trkpt>
      <trkpt lat="44.90214" lon="6.08285">
        <ele>1827.2</ele>
        <time>2024-08-14T07:49:21Z</time>
      </trkpt>
      <trkpt lat="44.90216" lon="6.08288">
        <ele>1826.8</ele>
        <time>2024-08-14T07:49:22Z</time>
      </trkpt>
      <trkpt lat="44.90216" lon="6.08288">
        <ele>1826.4</ele>
        <time>2024-08-14T07:49:23Z</time>
      </trkpt>
      <trkpt lat="44.90217" lon="6.08292">
        <ele>1826.2</ele>
        <time>2024-08-14T07:49:24Z</time>
      </trkpt>
      <trkpt lat="44.90217" lon="6.08292">
        <ele>1826</ele>
        <time>2024-08-14T07:49:25Z</time>
      </trkpt>
      <trkpt lat="44.90217" lon="6.08296">
        <ele>1825.2</ele>
        <time>2024-08-14T07:49:26Z</time>
      </trkpt>
      <trkpt lat="44.90217" lon="6.08296">
        <ele>1825.2</ele>
        <time>2024-08-14T07:49:27Z</time>
      </trkpt>
      <trkpt lat="44.90218" lon="6.083">
        <ele>1825</ele>
        <time>2024-08-14T07:49:28Z</time>
      </trkpt>
      <trkpt lat="44.90218" lon="6.083">
        <ele>1824.6</ele>
        <time>2024-08-14T07:49:29Z</time>
      </trkpt>
      <trkpt lat="44.90218" lon="6.08304">
        <ele>1824.2</ele>
        <time>2024-08-14T07:49:30Z</time>
      </trkpt>
      <trkpt lat="44.90218" lon="6.08304">
        <ele>1824.2</ele>
        <time>2024-08-14T07:49:31Z</time>
      </trkpt>
      <trkpt lat="44.90219" lon="6.08307">
        <ele>1824.2</ele>
        <time>2024-08-14T07:49:32Z</time>
      </trkpt>
      <trkpt lat="44.90219" lon="6.08307">
        <ele>1824.2</ele>
        <time>2024-08-14T07:49:33Z</time>
      </trkpt>
      <trkpt lat="44.90221" lon="6.08309">
        <ele>1824.2</ele>
        <time>2024-08-14T07:49:34Z</time>
      </trkpt>
      <trkpt lat="44.90221" lon="6.08309">
        <ele>1824.2</ele>
        <time>2024-08-14T07:49:35Z</time>
      </trkpt>
      <trkpt lat="44.90224" lon="6.08312">
        <ele>1824.2</ele>
        <time>2024-08-14T07:49:36Z</time>
      </trkpt>
      <trkpt lat="44.90224" lon="6.08312">
        <ele>1824.2</ele>
        <time>2024-08-14T07:49:37Z</time>
      </trkpt>
      <trkpt lat="44.90226" lon="6.08314">
        <ele>1824</ele>
        <time>2024-08-14T07:49:38Z</time>
      </trkpt>
      <trkpt lat="44.90226" lon="6.08314">
        <ele>1823.8</ele>
        <time>2024-08-14T07:49:39Z</time>
      </trkpt>
      <trkpt lat="44.90229" lon="6.08316">
        <ele>1823.8</ele>
        <time>2024-08-14T07:49:40Z</time>
      </trkpt>
      <trkpt lat="44.90229" lon="6.08316">
        <ele>1823.6</ele>
        <time>2024-08-14T07:49:41Z</time>
      </trkpt>
      <trkpt lat="44.90232" lon="6.08318">
        <ele>1823.4</ele>
        <time>2024-08-14T07:49:42Z</time>
      </trkpt>
      <trkpt lat="44.90232" lon="6.08318">
        <ele>1823</ele>
        <time>2024-08-14T07:49:43Z</time>
      </trkpt>
      <trkpt lat="44.90234" lon="6.08319">
        <ele>1823</ele>
        <time>2024-08-14T07:49:44Z</time>
      </trkpt>
      <trkpt lat="44.90234" lon="6.08319">
        <ele>1822.8</ele>
        <time>2024-08-14T07:49:45Z</time>
      </trkpt>
      <trkpt lat="44.90236" lon="6.08321">
        <ele>1822.6</ele>
        <time>2024-08-14T07:49:46Z</time>
      </trkpt>
      <trkpt lat="44.90236" lon="6.08321">
        <ele>1822.2</ele>
        <time>2024-08-14T07:49:47Z</time>
      </trkpt>
      <trkpt lat="44.90238" lon="6.08321">
        <ele>1822</ele>
        <time>2024-08-14T07:49:48Z</time>
      </trkpt>
      <trkpt lat="44.90238" lon="6.08321">
        <ele>1821.8</ele>
        <time>2024-08-14T07:49:49Z</time>
      </trkpt>
      <trkpt lat="44.9024" lon="6.08321">
        <ele>1821.4</ele>
        <time>2024-08-14T07:49:50Z</time>
      </trkpt>
      <trkpt lat="44.9024" lon="6.08321">
        <ele>1821.2</ele>
        <time>2024-08-14T07:49:51Z</time>
      </trkpt>
      <trkpt lat="44.90243" lon="6.08321">
        <ele>1820.8</ele>
        <time>2024-08-14T07:49:52Z</time>
      </trkpt>
      <trkpt lat="44.90243" lon="6.08321">
        <ele>1820.4</ele>
        <time>2024-08-14T07:49:53Z</time>
      </trkpt>
      <trkpt lat="44.90246" lon="6.08321">
        <ele>1820.2</ele>
        <time>2024-08-14T07:49:54Z</time>
      </trkpt>
      <trkpt lat="44.90246" lon="6.08321">
        <ele>1819.6</ele>
        <time>2024-08-14T07:49:55Z</time>
      </trkpt>
      <trkpt lat="44.90249" lon="6.08321">
        <ele>1819.4</ele>
        <time>2024-08-14T07:49:56Z</time>
      </trkpt>
      <trkpt lat="44.90249" lon="6.08321">
        <ele>1819.4</ele>
        <time>2024-08-14T07:49:57Z</time>
      </trkpt>
      <trkpt lat="44.90251" lon="6.0832">
        <ele>1819.2</ele>
        <time>2024-08-14T07:49:58Z</time>
      </trkpt>
      <trkpt lat="44.90251" lon="6.0832">
        <ele>1819.2</ele>
        <time>2024-08-14T07:49:59Z</time>
      </trkpt>
      <trkpt lat="44.90253" lon="6.0832">
        <ele>1819.2</ele>
        <time>2024-08-14T07:50:00Z</time>
      </trkpt>
      <trkpt lat="44.90253" lon="6.0832">
        <ele>1819.2</ele>
        <time>2024-08-14T07:50:01Z</time>
      </trkpt>
      <trkpt lat="44.90256" lon="6.0832">
        <ele>1818.8</ele>
        <time>2024-08-14T07:50:02Z</time>
      </trkpt>
      <trkpt lat="44.90258" lon="6.0832">
        <ele>1818.6</ele>
        <time>2024-08-14T07:50:03Z</time>
      </trkpt>
      <trkpt lat="44.90258" lon="6.0832">
        <ele>1818.6</ele>
        <time>2024-08-14T07:50:04Z</time>
      </trkpt>
      <trkpt lat="44.90261" lon="6.08321">
        <ele>1818</ele>
        <time>2024-08-14T07:50:05Z</time>
      </trkpt>
      <trkpt lat="44.90261" lon="6.08321">
        <ele>1817.8</ele>
        <time>2024-08-14T07:50:06Z</time>
      </trkpt>
      <trkpt lat="44.90263" lon="6.08322">
        <ele>1817.6</ele>
        <time>2024-08-14T07:50:07Z</time>
      </trkpt>
      <trkpt lat="44.90263" lon="6.08322">
        <ele>1817.6</ele>
        <time>2024-08-14T07:50:08Z</time>
      </trkpt>
      <trkpt lat="44.90266" lon="6.08322">
        <ele>1817.6</ele>
        <time>2024-08-14T07:50:09Z</time>
      </trkpt>
      <trkpt lat="44.90266" lon="6.08322">
        <ele>1817.6</ele>
        <time>2024-08-14T07:50:10Z</time>
      </trkpt>
      <trkpt lat="44.90268" lon="6.08321">
        <ele>1817.6</ele>
        <time>2024-08-14T07:50:11Z</time>
      </trkpt>
      <trkpt lat="44.90268" lon="6.08321">
        <ele>1817.4</ele>
        <time>2024-08-14T07:50:12Z</time>
      </trkpt>
      <trkpt lat="44.9027" lon="6.08321">
        <ele>1817.2</ele>
        <time>2024-08-14T07:50:13Z</time>
      </trkpt>
      <trkpt lat="44.9027" lon="6.08321">
        <ele>1817.2</ele>
        <time>2024-08-14T07:50:14Z</time>
      </trkpt>
      <trkpt lat="44.9027" lon="6.08321">
        <ele>1817.6</ele>
        <time>2024-08-14T07:50:15Z</time>
      </trkpt>
      <trkpt lat="44.90272" lon="6.08322">
        <ele>1817.8</ele>
        <time>2024-08-14T07:50:16Z</time>
      </trkpt>
      <trkpt lat="44.90272" lon="6.08322">
        <ele>1817.8</ele>
        <time>2024-08-14T07:50:17Z</time>
      </trkpt>
      <trkpt lat="44.90272" lon="6.08322">
        <ele>1817.6</ele>
        <time>2024-08-14T07:50:18Z</time>
      </trkpt>
      <trkpt lat="44.90275" lon="6.08324">
        <ele>1817.4</ele>
        <time>2024-08-14T07:50:19Z</time>
      </trkpt>
      <trkpt lat="44.90275" lon="6.08324">
        <ele>1817.2</ele>
        <time>2024-08-14T07:50:20Z</time>
      </trkpt>
      <trkpt lat="44.90277" lon="6.08325">
        <ele>1817.2</ele>
        <time>2024-08-14T07:50:21Z</time>
      </trkpt>
      <trkpt lat="44.90277" lon="6.08325">
        <ele>1816.8</ele>
        <time>2024-08-14T07:50:22Z</time>
      </trkpt>
      <trkpt lat="44.90279" lon="6.08326">
        <ele>1816.6</ele>
        <time>2024-08-14T07:50:23Z</time>
      </trkpt>
      <trkpt lat="44.90279" lon="6.08326">
        <ele>1816.4</ele>
        <time>2024-08-14T07:50:24Z</time>
      </trkpt>
      <trkpt lat="44.90282" lon="6.08328">
        <ele>1816</ele>
        <time>2024-08-14T07:50:25Z</time>
      </trkpt>
      <trkpt lat="44.90282" lon="6.08328">
        <ele>1815.6</ele>
        <time>2024-08-14T07:50:26Z</time>
      </trkpt>
      <trkpt lat="44.90284" lon="6.08329">
        <ele>1815.4</ele>
        <time>2024-08-14T07:50:27Z</time>
      </trkpt>
      <trkpt lat="44.90284" lon="6.08329">
        <ele>1815</ele>
        <time>2024-08-14T07:50:28Z</time>
      </trkpt>
      <trkpt lat="44.90286" lon="6.0833">
        <ele>1814.6</ele>
        <time>2024-08-14T07:50:29Z</time>
      </trkpt>
      <trkpt lat="44.90286" lon="6.0833">
        <ele>1814.4</ele>
        <time>2024-08-14T07:50:30Z</time>
      </trkpt>
      <trkpt lat="44.90288" lon="6.08331">
        <ele>1814.2</ele>
        <time>2024-08-14T07:50:31Z</time>
      </trkpt>
      <trkpt lat="44.90288" lon="6.08331">
        <ele>1813.8</ele>
        <time>2024-08-14T07:50:32Z</time>
      </trkpt>
      <trkpt lat="44.90288" lon="6.08331">
        <ele>1813.6</ele>
        <time>2024-08-14T07:50:33Z</time>
      </trkpt>
      <trkpt lat="44.90291" lon="6.08334">
        <ele>1813.2</ele>
        <time>2024-08-14T07:50:34Z</time>
      </trkpt>
      <trkpt lat="44.90291" lon="6.08334">
        <ele>1812.6</ele>
        <time>2024-08-14T07:50:35Z</time>
      </trkpt>
      <trkpt lat="44.90291" lon="6.08334">
        <ele>1812.6</ele>
        <time>2024-08-14T07:50:36Z</time>
      </trkpt>
      <trkpt lat="44.90293" lon="6.08336">
        <ele>1812.4</ele>
        <time>2024-08-14T07:50:37Z</time>
      </trkpt>
      <trkpt lat="44.90293" lon="6.08336">
        <ele>1812.2</ele>
        <time>2024-08-14T07:50:38Z</time>
      </trkpt>
      <trkpt lat="44.90294" lon="6.08338">
        <ele>1812.2</ele>
        <time>2024-08-14T07:50:39Z</time>
      </trkpt>
      <trkpt lat="44.90294" lon="6.08338">
        <ele>1812</ele>
        <time>2024-08-14T07:50:40Z</time>
      </trkpt>
      <trkpt lat="44.90296" lon="6.08339">
        <ele>1811.8</ele>
        <time>2024-08-14T07:50:41Z</time>
      </trkpt>
      <trkpt lat="44.90296" lon="6.08339">
        <ele>1811.8</ele>
        <time>2024-08-14T07:50:42Z</time>
      </trkpt>
      <trkpt lat="44.90299" lon="6.0834">
        <ele>1811.4</ele>
        <time>2024-08-14T07:50:43Z</time>
      </trkpt>
      <trkpt lat="44.90299" lon="6.0834">
        <ele>1811.4</ele>
        <time>2024-08-14T07:50:44Z</time>
      </trkpt>
      <trkpt lat="44.90299" lon="6.0834">
        <ele>1811.2</ele>
        <time>2024-08-14T07:50:45Z</time>
      </trkpt>
      <trkpt lat="44.90301" lon="6.08342">
        <ele>1811</ele>
        <time>2024-08-14T07:50:46Z</time>
      </trkpt>
      <trkpt lat="44.90301" lon="6.08342">
        <ele>1810.8</ele>
        <time>2024-08-14T07:50:47Z</time>
      </trkpt>
      <trkpt lat="44.90302" lon="6.08344">
        <ele>1810.4</ele>
        <time>2024-08-14T07:50:48Z</time>
      </trkpt>
      <trkpt lat="44.90302" lon="6.08344">
        <ele>1810.4</ele>
        <time>2024-08-14T07:50:49Z</time>
      </trkpt>
      <trkpt lat="44.90303" lon="6.08347">
        <ele>1810</ele>
        <time>2024-08-14T07:50:50Z</time>
      </trkpt>
      <trkpt lat="44.90303" lon="6.08347">
        <ele>1809.6</ele>
        <time>2024-08-14T07:50:51Z</time>
      </trkpt>
      <trkpt lat="44.90305" lon="6.08349">
        <ele>1809.6</ele>
        <time>2024-08-14T07:50:52Z</time>
      </trkpt>
      <trkpt lat="44.90305" lon="6.08349">
        <ele>1809</ele>
        <time>2024-08-14T07:50:53Z</time>
      </trkpt>
      <trkpt lat="44.90307" lon="6.08349">
        <ele>1808.6</ele>
        <time>2024-08-14T07:50:54Z</time>
      </trkpt>
      <trkpt lat="44.90307" lon="6.08349">
        <ele>1808.6</ele>
        <time>2024-08-14T07:50:55Z</time>
      </trkpt>
      <trkpt lat="44.90307" lon="6.08349">
        <ele>1808.4</ele>
        <time>2024-08-14T07:50:56Z</time>
      </trkpt>
      <trkpt lat="44.90309" lon="6.0835">
        <ele>1808.2</ele>
        <time>2024-08-14T07:50:57Z</time>
      </trkpt>
      <trkpt lat="44.90309" lon="6.0835">
        <ele>1807.8</ele>
        <time>2024-08-14T07:50:58Z</time>
      </trkpt>
      <trkpt lat="44.90309" lon="6.0835">
        <ele>1807.8</ele>
        <time>2024-08-14T07:50:59Z</time>
      </trkpt>
      <trkpt lat="44.90312" lon="6.08352">
        <ele>1808</ele>
        <time>2024-08-14T07:51:00Z</time>
      </trkpt>
      <trkpt lat="44.90312" lon="6.08352">
        <ele>1808.2</ele>
        <time>2024-08-14T07:51:01Z</time>
      </trkpt>
      <trkpt lat="44.90312" lon="6.08352">
        <ele>1808</ele>
        <time>2024-08-14T07:51:02Z</time>
      </trkpt>
      <trkpt lat="44.90315" lon="6.08354">
        <ele>1808</ele>
        <time>2024-08-14T07:51:03Z</time>
      </trkpt>
      <trkpt lat="44.90315" lon="6.08354">
        <ele>1807.8</ele>
        <time>2024-08-14T07:51:04Z</time>
      </trkpt>
      <trkpt lat="44.90317" lon="6.08355">
        <ele>1807.4</ele>
        <time>2024-08-14T07:51:05Z</time>
      </trkpt>
      <trkpt lat="44.90317" lon="6.08355">
        <ele>1807.2</ele>
        <time>2024-08-14T07:51:06Z</time>
      </trkpt>
      <trkpt lat="44.90317" lon="6.08355">
        <ele>1806.8</ele>
        <time>2024-08-14T07:51:07Z</time>
      </trkpt>
      <trkpt lat="44.90317" lon="6.08355">
        <ele>1806.6</ele>
        <time>2024-08-14T07:51:08Z</time>
      </trkpt>
      <trkpt lat="44.90319" lon="6.08357">
        <ele>1806.2</ele>
        <time>2024-08-14T07:51:09Z</time>
      </trkpt>
      <trkpt lat="44.90319" lon="6.08357">
        <ele>1805.8</ele>
        <time>2024-08-14T07:51:10Z</time>
      </trkpt>
      <trkpt lat="44.90321" lon="6.0836">
        <ele>1805.8</ele>
        <time>2024-08-14T07:51:11Z</time>
      </trkpt>
      <trkpt lat="44.90321" lon="6.0836">
        <ele>1805.4</ele>
        <time>2024-08-14T07:51:12Z</time>
      </trkpt>
      <trkpt lat="44.90323" lon="6.0836">
        <ele>1805</ele>
        <time>2024-08-14T07:51:13Z</time>
      </trkpt>
      <trkpt lat="44.90323" lon="6.0836">
        <ele>1804.8</ele>
        <time>2024-08-14T07:51:14Z</time>
      </trkpt>
      <trkpt lat="44.90325" lon="6.08361">
        <ele>1804.8</ele>
        <time>2024-08-14T07:51:15Z</time>
      </trkpt>
      <trkpt lat="44.90325" lon="6.08361">
        <ele>1804.8</ele>
        <time>2024-08-14T07:51:16Z</time>
      </trkpt>
      <trkpt lat="44.90327" lon="6.08362">
        <ele>1804.8</ele>
        <time>2024-08-14T07:51:17Z</time>
      </trkpt>
      <trkpt lat="44.90327" lon="6.08362">
        <ele>1804.6</ele>
        <time>2024-08-14T07:51:18Z</time>
      </trkpt>
      <trkpt lat="44.90328" lon="6.08365">
        <ele>1804.4</ele>
        <time>2024-08-14T07:51:19Z</time>
      </trkpt>
      <trkpt lat="44.90328" lon="6.08365">
        <ele>1804.2</ele>
        <time>2024-08-14T07:51:20Z</time>
      </trkpt>
      <trkpt lat="44.90328" lon="6.08365">
        <ele>1803.8</ele>
        <time>2024-08-14T07:51:21Z</time>
      </trkpt>
      <trkpt lat="44.90331" lon="6.08367">
        <ele>1803.4</ele>
        <time>2024-08-14T07:51:22Z</time>
      </trkpt>
      <trkpt lat="44.90331" lon="6.08367">
        <ele>1803.2</ele>
        <time>2024-08-14T07:51:23Z</time>
      </trkpt>
      <trkpt lat="44.90332" lon="6.08368">
        <ele>1803</ele>
        <time>2024-08-14T07:51:24Z</time>
      </trkpt>
      <trkpt lat="44.90332" lon="6.08368">
        <ele>1802.8</ele>
        <time>2024-08-14T07:51:25Z</time>
      </trkpt>
      <trkpt lat="44.90332" lon="6.08368">
        <ele>1802.8</ele>
        <time>2024-08-14T07:51:26Z</time>
      </trkpt>
      <trkpt lat="44.90334" lon="6.08371">
        <ele>1802.6</ele>
        <time>2024-08-14T07:51:27Z</time>
      </trkpt>
      <trkpt lat="44.90334" lon="6.08371">
        <ele>1802.2</ele>
        <time>2024-08-14T07:51:28Z</time>
      </trkpt>
      <trkpt lat="44.90334" lon="6.08371">
        <ele>1802.2</ele>
        <time>2024-08-14T07:51:29Z</time>
      </trkpt>
      <trkpt lat="44.90335" lon="6.08373">
        <ele>1802</ele>
        <time>2024-08-14T07:51:30Z</time>
      </trkpt>
      <trkpt lat="44.90335" lon="6.08373">
        <ele>1801.6</ele>
        <time>2024-08-14T07:51:31Z</time>
      </trkpt>
      <trkpt lat="44.90336" lon="6.08376">
        <ele>1801.2</ele>
        <time>2024-08-14T07:51:32Z</time>
      </trkpt>
      <trkpt lat="44.90336" lon="6.08376">
        <ele>1801</ele>
        <time>2024-08-14T07:51:33Z</time>
      </trkpt>
      <trkpt lat="44.90336" lon="6.08376">
        <ele>1800.4</ele>
        <time>2024-08-14T07:51:34Z</time>
      </trkpt>
      <trkpt lat="44.90336" lon="6.08376">
        <ele>1800.2</ele>
        <time>2024-08-14T07:51:35Z</time>
      </trkpt>
      <trkpt lat="44.90339" lon="6.08378">
        <ele>1800</ele>
        <time>2024-08-14T07:51:36Z</time>
      </trkpt>
      <trkpt lat="44.90339" lon="6.08378">
        <ele>1799.8</ele>
        <time>2024-08-14T07:51:37Z</time>
      </trkpt>
      <trkpt lat="44.90341" lon="6.08378">
        <ele>1799.4</ele>
        <time>2024-08-14T07:51:38Z</time>
      </trkpt>
      <trkpt lat="44.90341" lon="6.08378">
        <ele>1799.4</ele>
        <time>2024-08-14T07:51:39Z</time>
      </trkpt>
      <trkpt lat="44.90343" lon="6.0838">
        <ele>1799</ele>
        <time>2024-08-14T07:51:40Z</time>
      </trkpt>
      <trkpt lat="44.90343" lon="6.0838">
        <ele>1798.6</ele>
        <time>2024-08-14T07:51:41Z</time>
      </trkpt>
      <trkpt lat="44.90344" lon="6.08383">
        <ele>1798.4</ele>
        <time>2024-08-14T07:51:42Z</time>
      </trkpt>
      <trkpt lat="44.90344" lon="6.08383">
        <ele>1798.4</ele>
        <time>2024-08-14T07:51:43Z</time>
      </trkpt>
      <trkpt lat="44.90344" lon="6.08383">
        <ele>1798.2</ele>
        <time>2024-08-14T07:51:44Z</time>
      </trkpt>
      <trkpt lat="44.90346" lon="6.08386">
        <ele>1797.8</ele>
        <time>2024-08-14T07:51:45Z</time>
      </trkpt>
      <trkpt lat="44.90346" lon="6.08386">
        <ele>1797.8</ele>
        <time>2024-08-14T07:51:46Z</time>
      </trkpt>
      <trkpt lat="44.90349" lon="6.08388">
        <ele>1797.8</ele>
        <time>2024-08-14T07:51:47Z</time>
      </trkpt>
      <trkpt lat="44.90349" lon="6.08388">
        <ele>1797.2</ele>
        <time>2024-08-14T07:51:48Z</time>
      </trkpt>
      <trkpt lat="44.9035" lon="6.0839">
        <ele>1797.2</ele>
        <time>2024-08-14T07:51:49Z</time>
      </trkpt>
      <trkpt lat="44.9035" lon="6.0839">
        <ele>1797.2</ele>
        <time>2024-08-14T07:51:50Z</time>
      </trkpt>
      <trkpt lat="44.90352" lon="6.08392">
        <ele>1796.8</ele>
        <time>2024-08-14T07:51:51Z</time>
      </trkpt>
      <trkpt lat="44.90352" lon="6.08392">
        <ele>1796.8</ele>
        <time>2024-08-14T07:51:52Z</time>
      </trkpt>
      <trkpt lat="44.90354" lon="6.08394">
        <ele>1796.8</ele>
        <time>2024-08-14T07:51:53Z</time>
      </trkpt>
      <trkpt lat="44.90354" lon="6.08394">
        <ele>1796.4</ele>
        <time>2024-08-14T07:51:54Z</time>
      </trkpt>
      <trkpt lat="44.90357" lon="6.08395">
        <ele>1796.4</ele>
        <time>2024-08-14T07:51:55Z</time>
      </trkpt>
      <trkpt lat="44.90357" lon="6.08395">
        <ele>1796.2</ele>
        <time>2024-08-14T07:51:56Z</time>
      </trkpt>
      <trkpt lat="44.90358" lon="6.08398">
        <ele>1796</ele>
        <time>2024-08-14T07:51:57Z</time>
      </trkpt>
      <trkpt lat="44.90358" lon="6.08398">
        <ele>1795.8</ele>
        <time>2024-08-14T07:51:58Z</time>
      </trkpt>
      <trkpt lat="44.9036" lon="6.08401">
        <ele>1795.6</ele>
        <time>2024-08-14T07:51:59Z</time>
      </trkpt>
      <trkpt lat="44.9036" lon="6.08401">
        <ele>1795.4</ele>
        <time>2024-08-14T07:52:00Z</time>
      </trkpt>
      <trkpt lat="44.90362" lon="6.08404">
        <ele>1795</ele>
        <time>2024-08-14T07:52:01Z</time>
      </trkpt>
      <trkpt lat="44.90362" lon="6.08404">
        <ele>1794.6</ele>
        <time>2024-08-14T07:52:02Z</time>
      </trkpt>
      <trkpt lat="44.90363" lon="6.08406">
        <ele>1794.4</ele>
        <time>2024-08-14T07:52:03Z</time>
      </trkpt>
      <trkpt lat="44.90363" lon="6.08406">
        <ele>1794.2</ele>
        <time>2024-08-14T07:52:04Z</time>
      </trkpt>
      <trkpt lat="44.90363" lon="6.08406">
        <ele>1794</ele>
        <time>2024-08-14T07:52:05Z</time>
      </trkpt>
      <trkpt lat="44.90363" lon="6.08406">
        <ele>1794</ele>
        <time>2024-08-14T07:52:06Z</time>
      </trkpt>
      <trkpt lat="44.90363" lon="6.08406">
        <ele>1793.8</ele>
        <time>2024-08-14T07:52:07Z</time>
      </trkpt>
      <trkpt lat="44.90363" lon="6.08406">
        <ele>1793.6</ele>
        <time>2024-08-14T07:52:08Z</time>
      </trkpt>
      <trkpt lat="44.90363" lon="6.08406">
        <ele>1793.4</ele>
        <time>2024-08-14T07:52:09Z</time>
      </trkpt>
      <trkpt lat="44.90363" lon="6.08403">
        <ele>1793</ele>
        <time>2024-08-14T07:52:10Z</time>
      </trkpt>
      <trkpt lat="44.90363" lon="6.08403">
        <ele>1792.8</ele>
        <time>2024-08-14T07:52:11Z</time>
      </trkpt>
      <trkpt lat="44.90363" lon="6.084">
        <ele>1792.6</ele>
        <time>2024-08-14T07:52:12Z</time>
      </trkpt>
      <trkpt lat="44.90363" lon="6.084">
        <ele>1792.2</ele>
        <time>2024-08-14T07:52:13Z</time>
      </trkpt>
      <trkpt lat="44.90362" lon="6.08397">
        <ele>1792</ele>
        <time>2024-08-14T07:52:14Z</time>
      </trkpt>
      <trkpt lat="44.90362" lon="6.08397">
        <ele>1791.8</ele>
        <time>2024-08-14T07:52:15Z</time>
      </trkpt>
      <trkpt lat="44.90361" lon="6.08394">
        <ele>1791.8</ele>
        <time>2024-08-14T07:52:16Z</time>
      </trkpt>
      <trkpt lat="44.90361" lon="6.08394">
        <ele>1791.6</ele>
        <time>2024-08-14T07:52:17Z</time>
      </trkpt>
      <trkpt lat="44.9036" lon="6.08391">
        <ele>1791.4</ele>
        <time>2024-08-14T07:52:18Z</time>
      </trkpt>
      <trkpt lat="44.9036" lon="6.08391">
        <ele>1791.2</ele>
        <time>2024-08-14T07:52:19Z</time>
      </trkpt>
      <trkpt lat="44.90359" lon="6.08389">
        <ele>1791</ele>
        <time>2024-08-14T07:52:20Z</time>
      </trkpt>
      <trkpt lat="44.90359" lon="6.08389">
        <ele>1790.8</ele>
        <time>2024-08-14T07:52:21Z</time>
      </trkpt>
      <trkpt lat="44.90357" lon="6.08386">
        <ele>1790.6</ele>
        <time>2024-08-14T07:52:22Z</time>
      </trkpt>
      <trkpt lat="44.90357" lon="6.08386">
        <ele>1790.4</ele>
        <time>2024-08-14T07:52:23Z</time>
      </trkpt>
      <trkpt lat="44.90356" lon="6.08383">
        <ele>1790</ele>
        <time>2024-08-14T07:52:24Z</time>
      </trkpt>
      <trkpt lat="44.90356" lon="6.08383">
        <ele>1789.8</ele>
        <time>2024-08-14T07:52:25Z</time>
      </trkpt>
      <trkpt lat="44.90355" lon="6.08381">
        <ele>1789.4</ele>
        <time>2024-08-14T07:52:26Z</time>
      </trkpt>
      <trkpt lat="44.90355" lon="6.08381">
        <ele>1789.2</ele>
        <time>2024-08-14T07:52:27Z</time>
      </trkpt>
      <trkpt lat="44.90354" lon="6.08378">
        <ele>1789.2</ele>
        <time>2024-08-14T07:52:28Z</time>
      </trkpt>
      <trkpt lat="44.90354" lon="6.08378">
        <ele>1789</ele>
        <time>2024-08-14T07:52:29Z</time>
      </trkpt>
      <trkpt lat="44.90353" lon="6.08375">
        <ele>1788.6</ele>
        <time>2024-08-14T07:52:30Z</time>
      </trkpt>
      <trkpt lat="44.90353" lon="6.08375">
        <ele>1788.4</ele>
        <time>2024-08-14T07:52:31Z</time>
      </trkpt>
      <trkpt lat="44.90351" lon="6.08372">
        <ele>1788.2</ele>
        <time>2024-08-14T07:52:32Z</time>
      </trkpt>
      <trkpt lat="44.90351" lon="6.08372">
        <ele>1787.8</ele>
        <time>2024-08-14T07:52:33Z</time>
      </trkpt>
      <trkpt lat="44.9035" lon="6.08369">
        <ele>1787.4</ele>
        <time>2024-08-14T07:52:34Z</time>
      </trkpt>
      <trkpt lat="44.9035" lon="6.08369">
        <ele>1787.4</ele>
        <time>2024-08-14T07:52:35Z</time>
      </trkpt>
      <trkpt lat="44.90349" lon="6.08366">
        <ele>1787.4</ele>
        <time>2024-08-14T07:52:36Z</time>
      </trkpt>
      <trkpt lat="44.90349" lon="6.08366">
        <ele>1787.4</ele>
        <time>2024-08-14T07:52:37Z</time>
      </trkpt>
      <trkpt lat="44.90347" lon="6.08365">
        <ele>1787.2</ele>
        <time>2024-08-14T07:52:38Z</time>
      </trkpt>
      <trkpt lat="44.90347" lon="6.08365">
        <ele>1787</ele>
        <time>2024-08-14T07:52:39Z</time>
      </trkpt>
      <trkpt lat="44.90345" lon="6.08363">
        <ele>1787</ele>
        <time>2024-08-14T07:52:40Z</time>
      </trkpt>
      <trkpt lat="44.90345" lon="6.08363">
        <ele>1787</ele>
        <time>2024-08-14T07:52:41Z</time>
      </trkpt>
      <trkpt lat="44.90344" lon="6.08359">
        <ele>1786.8</ele>
        <time>2024-08-14T07:52:42Z</time>
      </trkpt>
      <trkpt lat="44.90344" lon="6.08359">
        <ele>1786.6</ele>
        <time>2024-08-14T07:52:43Z</time>
      </trkpt>
      <trkpt lat="44.90344" lon="6.08355">
        <ele>1786.4</ele>
        <time>2024-08-14T07:52:44Z</time>
      </trkpt>
      <trkpt lat="44.90344" lon="6.08355">
        <ele>1786</ele>
        <time>2024-08-14T07:52:45Z</time>
      </trkpt>
      <trkpt lat="44.90343" lon="6.08352">
        <ele>1786</ele>
        <time>2024-08-14T07:52:46Z</time>
      </trkpt>
      <trkpt lat="44.90343" lon="6.08352">
        <ele>1786</ele>
        <time>2024-08-14T07:52:47Z</time>
      </trkpt>
      <trkpt lat="44.90342" lon="6.08348">
        <ele>1785.8</ele>
        <time>2024-08-14T07:52:48Z</time>
      </trkpt>
      <trkpt lat="44.90342" lon="6.08348">
        <ele>1785.8</ele>
        <time>2024-08-14T07:52:49Z</time>
      </trkpt>
      <trkpt lat="44.90341" lon="6.08346">
        <ele>1785.6</ele>
        <time>2024-08-14T07:52:50Z</time>
      </trkpt>
      <trkpt lat="44.90341" lon="6.08346">
        <ele>1785.6</ele>
        <time>2024-08-14T07:52:51Z</time>
      </trkpt>
      <trkpt lat="44.90339" lon="6.08343">
        <ele>1785.6</ele>
        <time>2024-08-14T07:52:52Z</time>
      </trkpt>
      <trkpt lat="44.90339" lon="6.08343">
        <ele>1785.4</ele>
        <time>2024-08-14T07:52:53Z</time>
      </trkpt>
      <trkpt lat="44.90337" lon="6.0834">
        <ele>1785.2</ele>
        <time>2024-08-14T07:52:54Z</time>
      </trkpt>
      <trkpt lat="44.90337" lon="6.0834">
        <ele>1785</ele>
        <time>2024-08-14T07:52:55Z</time>
      </trkpt>
      <trkpt lat="44.90335" lon="6.08337">
        <ele>1784.6</ele>
        <time>2024-08-14T07:52:56Z</time>
      </trkpt>
      <trkpt lat="44.90335" lon="6.08337">
        <ele>1784.6</ele>
        <time>2024-08-14T07:52:57Z</time>
      </trkpt>
      <trkpt lat="44.90335" lon="6.08337">
        <ele>1784.4</ele>
        <time>2024-08-14T07:52:58Z</time>
      </trkpt>
      <trkpt lat="44.90335" lon="6.08337">
        <ele>1784.2</ele>
        <time>2024-08-14T07:52:59Z</time>
      </trkpt>
      <trkpt lat="44.90335" lon="6.08337">
        <ele>1784.2</ele>
        <time>2024-08-14T07:53:00Z</time>
      </trkpt>
      <trkpt lat="44.90335" lon="6.08337">
        <ele>1784.2</ele>
        <time>2024-08-14T07:53:01Z</time>
      </trkpt>
      <trkpt lat="44.90335" lon="6.08337">
        <ele>1784.2</ele>
        <time>2024-08-14T07:53:02Z</time>
      </trkpt>
      <trkpt lat="44.90335" lon="6.08337">
        <ele>1784.2</ele>
        <time>2024-08-14T07:53:03Z</time>
      </trkpt>
      <trkpt lat="44.90336" lon="6.08335">
        <ele>1784.2</ele>
        <time>2024-08-14T07:53:04Z</time>
      </trkpt>
      <trkpt lat="44.90336" lon="6.08335">
        <ele>1784.2</ele>
        <time>2024-08-14T07:53:05Z</time>
      </trkpt>
      <trkpt lat="44.90336" lon="6.08335">
        <ele>1784.2</ele>
        <time>2024-08-14T07:53:06Z</time>
      </trkpt>
      <trkpt lat="44.90336" lon="6.08335">
        <ele>1784.2</ele>
        <time>2024-08-14T07:53:07Z</time>
      </trkpt>
      <trkpt lat="44.90336" lon="6.08335">
        <ele>1784.2</ele>
        <time>2024-08-14T07:53:08Z</time>
      </trkpt>
      <trkpt lat="44.90336" lon="6.08335">
        <ele>1784.2</ele>
        <time>2024-08-14T07:53:09Z</time>
      </trkpt>
      <trkpt lat="44.90336" lon="6.08335">
        <ele>1784</ele>
        <time>2024-08-14T07:53:10Z</time>
      </trkpt>
      <trkpt lat="44.90336" lon="6.08335">
        <ele>1784</ele>
        <time>2024-08-14T07:53:11Z</time>
      </trkpt>
      <trkpt lat="44.90336" lon="6.08335">
        <ele>1784</ele>
        <time>2024-08-14T07:53:12Z</time>
      </trkpt>
      <trkpt lat="44.90336" lon="6.08335">
        <ele>1784</ele>
        <time>2024-08-14T07:53:13Z</time>
      </trkpt>
      <trkpt lat="44.90336" lon="6.08335">
        <ele>1783.8</ele>
        <time>2024-08-14T07:53:14Z</time>
      </trkpt>
      <trkpt lat="44.90336" lon="6.08335">
        <ele>1783.8</ele>
        <time>2024-08-14T07:53:15Z</time>
      </trkpt>
      <trkpt lat="44.90336" lon="6.08335">
        <ele>1783.8</ele>
        <time>2024-08-14T07:53:16Z</time>
      </trkpt>
      <trkpt lat="44.90336" lon="6.08335">
        <ele>1784</ele>
        <time>2024-08-14T07:53:17Z</time>
      </trkpt>
      <trkpt lat="44.90336" lon="6.08335">
        <ele>1784</ele>
        <time>2024-08-14T07:53:18Z</time>
      </trkpt>
      <trkpt lat="44.90336" lon="6.08335">
        <ele>1784</ele>
        <time>2024-08-14T07:53:19Z</time>
      </trkpt>
      <trkpt lat="44.90336" lon="6.08335">
        <ele>1783.8</ele>
        <time>2024-08-14T07:53:20Z</time>
      </trkpt>
      <trkpt lat="44.90336" lon="6.08335">
        <ele>1783.8</ele>
        <time>2024-08-14T07:53:21Z</time>
      </trkpt>
      <trkpt lat="44.90336" lon="6.08335">
        <ele>1784</ele>
        <time>2024-08-14T07:53:22Z</time>
      </trkpt>
      <trkpt lat="44.90336" lon="6.08335">
        <ele>1784</ele>
        <time>2024-08-14T07:53:23Z</time>
      </trkpt>
      <trkpt lat="44.90336" lon="6.08335">
        <ele>1784</ele>
        <time>2024-08-14T07:53:24Z</time>
      </trkpt>
      <trkpt lat="44.90336" lon="6.08335">
        <ele>1783.8</ele>
        <time>2024-08-14T07:53:25Z</time>
      </trkpt>
      <trkpt lat="44.90336" lon="6.08335">
        <ele>1783.8</ele>
        <time>2024-08-14T07:53:26Z</time>
      </trkpt>
      <trkpt lat="44.90336" lon="6.08335">
        <ele>1783.8</ele>
        <time>2024-08-14T07:53:27Z</time>
      </trkpt>
      <trkpt lat="44.90336" lon="6.08335">
        <ele>1783.8</ele>
        <time>2024-08-14T07:53:28Z</time>
      </trkpt>
      <trkpt lat="44.90336" lon="6.08335">
        <ele>1783.6</ele>
        <time>2024-08-14T07:53:29Z</time>
      </trkpt>
      <trkpt lat="44.90336" lon="6.08335">
        <ele>1783.6</ele>
        <time>2024-08-14T07:53:30Z</time>
      </trkpt>
      <trkpt lat="44.90336" lon="6.08335">
        <ele>1783.6</ele>
        <time>2024-08-14T07:53:31Z</time>
      </trkpt>
      <trkpt lat="44.90336" lon="6.08335">
        <ele>1783.6</ele>
        <time>2024-08-14T07:53:32Z</time>
      </trkpt>
      <trkpt lat="44.90336" lon="6.08335">
        <ele>1783.6</ele>
        <time>2024-08-14T07:53:33Z</time>
      </trkpt>
      <trkpt lat="44.90336" lon="6.08335">
        <ele>1783.6</ele>
        <time>2024-08-14T07:53:34Z</time>
      </trkpt>
      <trkpt lat="44.90336" lon="6.08331">
        <ele>1783.4</ele>
        <time>2024-08-14T07:53:35Z</time>
      </trkpt>
      <trkpt lat="44.90336" lon="6.08331">
        <ele>1783</ele>
        <time>2024-08-14T07:53:36Z</time>
      </trkpt>
      <trkpt lat="44.90335" lon="6.08327">
        <ele>1782.6</ele>
        <time>2024-08-14T07:53:37Z</time>
      </trkpt>
      <trkpt lat="44.90335" lon="6.08327">
        <ele>1782.4</ele>
        <time>2024-08-14T07:53:38Z</time>
      </trkpt>
      <trkpt lat="44.90333" lon="6.08324">
        <ele>1782.2</ele>
        <time>2024-08-14T07:53:39Z</time>
      </trkpt>
      <trkpt lat="44.90332" lon="6.08323">
        <ele>1782</ele>
        <time>2024-08-14T07:53:40Z</time>
      </trkpt>
      <trkpt lat="44.90332" lon="6.08323">
        <ele>1782</ele>
        <time>2024-08-14T07:53:41Z</time>
      </trkpt>
      <trkpt lat="44.90329" lon="6.08321">
        <ele>1781.8</ele>
        <time>2024-08-14T07:53:42Z</time>
      </trkpt>
      <trkpt lat="44.90329" lon="6.08321">
        <ele>1781.6</ele>
        <time>2024-08-14T07:53:43Z</time>
      </trkpt>
      <trkpt lat="44.90328" lon="6.08318">
        <ele>1781.4</ele>
        <time>2024-08-14T07:53:44Z</time>
      </trkpt>
      <trkpt lat="44.90328" lon="6.08318">
        <ele>1781.4</ele>
        <time>2024-08-14T07:53:45Z</time>
      </trkpt>
      <trkpt lat="44.90328" lon="6.08315">
        <ele>1780.8</ele>
        <time>2024-08-14T07:53:46Z</time>
      </trkpt>
      <trkpt lat="44.90328" lon="6.08315">
        <ele>1780.6</ele>
        <time>2024-08-14T07:53:47Z</time>
      </trkpt>
      <trkpt lat="44.90329" lon="6.08311">
        <ele>1780.4</ele>
        <time>2024-08-14T07:53:48Z</time>
      </trkpt>
      <trkpt lat="44.90329" lon="6.08311">
        <ele>1780</ele>
        <time>2024-08-14T07:53:49Z</time>
      </trkpt>
      <trkpt lat="44.90327" lon="6.08307">
        <ele>1779.6</ele>
        <time>2024-08-14T07:53:50Z</time>
      </trkpt>
      <trkpt lat="44.90327" lon="6.08307">
        <ele>1779.6</ele>
        <time>2024-08-14T07:53:51Z</time>
      </trkpt>
      <trkpt lat="44.90325" lon="6.08304">
        <ele>1779.6</ele>
        <time>2024-08-14T07:53:52Z</time>
      </trkpt>
      <trkpt lat="44.90325" lon="6.08304">
        <ele>1779.6</ele>
        <time>2024-08-14T07:53:53Z</time>
      </trkpt>
      <trkpt lat="44.90323" lon="6.08302">
        <ele>1779.2</ele>
        <time>2024-08-14T07:53:54Z</time>
      </trkpt>
      <trkpt lat="44.90323" lon="6.08302">
        <ele>1778.8</ele>
        <time>2024-08-14T07:53:55Z</time>
      </trkpt>
      <trkpt lat="44.90323" lon="6.08298">
        <ele>1778.4</ele>
        <time>2024-08-14T07:53:56Z</time>
      </trkpt>
      <trkpt lat="44.90323" lon="6.08298">
        <ele>1778.4</ele>
        <time>2024-08-14T07:53:57Z</time>
      </trkpt>
      <trkpt lat="44.90321" lon="6.08296">
        <ele>1778.2</ele>
        <time>2024-08-14T07:53:58Z</time>
      </trkpt>
      <trkpt lat="44.90321" lon="6.08296">
        <ele>1778.2</ele>
        <time>2024-08-14T07:53:59Z</time>
      </trkpt>
      <trkpt lat="44.9032" lon="6.08294">
        <ele>1778</ele>
        <time>2024-08-14T07:54:00Z</time>
      </trkpt>
      <trkpt lat="44.9032" lon="6.08294">
        <ele>1777.8</ele>
        <time>2024-08-14T07:54:01Z</time>
      </trkpt>
      <trkpt lat="44.9032" lon="6.08294">
        <ele>1777.8</ele>
        <time>2024-08-14T07:54:02Z</time>
      </trkpt>
      <trkpt lat="44.9032" lon="6.08294">
        <ele>1777.8</ele>
        <time>2024-08-14T07:54:03Z</time>
      </trkpt>
      <trkpt lat="44.9032" lon="6.08294">
        <ele>1777.8</ele>
        <time>2024-08-14T07:54:04Z</time>
      </trkpt>
      <trkpt lat="44.9032" lon="6.08294">
        <ele>1777.8</ele>
        <time>2024-08-14T07:54:05Z</time>
      </trkpt>
      <trkpt lat="44.90318" lon="6.08293">
        <ele>1778</ele>
        <time>2024-08-14T07:54:06Z</time>
      </trkpt>
      <trkpt lat="44.90318" lon="6.08293">
        <ele>1778</ele>
        <time>2024-08-14T07:54:07Z</time>
      </trkpt>
      <trkpt lat="44.90318" lon="6.08293">
        <ele>1778</ele>
        <time>2024-08-14T07:54:08Z</time>
      </trkpt>
      <trkpt lat="44.90317" lon="6.08291">
        <ele>1778</ele>
        <time>2024-08-14T07:54:09Z</time>
      </trkpt>
      <trkpt lat="44.90317" lon="6.08291">
        <ele>1777.4</ele>
        <time>2024-08-14T07:54:10Z</time>
      </trkpt>
      <trkpt lat="44.90315" lon="6.08288">
        <ele>1777</ele>
        <time>2024-08-14T07:54:11Z</time>
      </trkpt>
      <trkpt lat="44.90315" lon="6.08288">
        <ele>1776.6</ele>
        <time>2024-08-14T07:54:12Z</time>
      </trkpt>
      <trkpt lat="44.90314" lon="6.08285">
        <ele>1776.2</ele>
        <time>2024-08-14T07:54:13Z</time>
      </trkpt>
      <trkpt lat="44.90314" lon="6.08285">
        <ele>1776.2</ele>
        <time>2024-08-14T07:54:14Z</time>
      </trkpt>
      <trkpt lat="44.90313" lon="6.08282">
        <ele>1776.2</ele>
        <time>2024-08-14T07:54:15Z</time>
      </trkpt>
      <trkpt lat="44.90313" lon="6.08282">
        <ele>1776.4</ele>
        <time>2024-08-14T07:54:16Z</time>
      </trkpt>
      <trkpt lat="44.90311" lon="6.0828">
        <ele>1776.4</ele>
        <time>2024-08-14T07:54:17Z</time>
      </trkpt>
      <trkpt lat="44.90311" lon="6.0828">
        <ele>1776.2</ele>
        <time>2024-08-14T07:54:18Z</time>
      </trkpt>
      <trkpt lat="44.90309" lon="6.08277">
        <ele>1775.6</ele>
        <time>2024-08-14T07:54:19Z</time>
      </trkpt>
      <trkpt lat="44.90309" lon="6.08277">
        <ele>1775.6</ele>
        <time>2024-08-14T07:54:20Z</time>
      </trkpt>
      <trkpt lat="44.90309" lon="6.08277">
        <ele>1775.4</ele>
        <time>2024-08-14T07:54:21Z</time>
      </trkpt>
      <trkpt lat="44.90309" lon="6.08273">
        <ele>1775.2</ele>
        <time>2024-08-14T07:54:22Z</time>
      </trkpt>
      <trkpt lat="44.90309" lon="6.08273">
        <ele>1774.8</ele>
        <time>2024-08-14T07:54:23Z</time>
      </trkpt>
      <trkpt lat="44.90309" lon="6.08273">
        <ele>1774.8</ele>
        <time>2024-08-14T07:54:24Z</time>
      </trkpt>
      <trkpt lat="44.90311" lon="6.08274">
        <ele>1774.4</ele>
        <time>2024-08-14T07:54:25Z</time>
      </trkpt>
      <trkpt lat="44.90311" lon="6.08274">
        <ele>1774.2</ele>
        <time>2024-08-14T07:54:26Z</time>
      </trkpt>
      <trkpt lat="44.90313" lon="6.08274">
        <ele>1773.8</ele>
        <time>2024-08-14T07:54:27Z</time>
      </trkpt>
      <trkpt lat="44.90313" lon="6.08274">
        <ele>1773.4</ele>
        <time>2024-08-14T07:54:28Z</time>
      </trkpt>
      <trkpt lat="44.90313" lon="6.08274">
        <ele>1772.8</ele>
        <time>2024-08-14T07:54:29Z</time>
      </trkpt>
      <trkpt lat="44.90316" lon="6.08274">
        <ele>1772.6</ele>
        <time>2024-08-14T07:54:30Z</time>
      </trkpt>
      <trkpt lat="44.90316" lon="6.08274">
        <ele>1772.4</ele>
        <time>2024-08-14T07:54:31Z</time>
      </trkpt>
      <trkpt lat="44.90318" lon="6.08273">
        <ele>1772</ele>
        <time>2024-08-14T07:54:32Z</time>
      </trkpt>
      <trkpt lat="44.90318" lon="6.08273">
        <ele>1771.4</ele>
        <time>2024-08-14T07:54:33Z</time>
      </trkpt>
      <trkpt lat="44.9032" lon="6.08274">
        <ele>1771.2</ele>
        <time>2024-08-14T07:54:34Z</time>
      </trkpt>
      <trkpt lat="44.9032" lon="6.08274">
        <ele>1770.8</ele>
        <time>2024-08-14T07:54:35Z</time>
      </trkpt>
      <trkpt lat="44.90322" lon="6.08274">
        <ele>1770.6</ele>
        <time>2024-08-14T07:54:36Z</time>
      </trkpt>
      <trkpt lat="44.90322" lon="6.08274">
        <ele>1770.2</ele>
        <time>2024-08-14T07:54:37Z</time>
      </trkpt>
      <trkpt lat="44.90325" lon="6.08276">
        <ele>1769.8</ele>
        <time>2024-08-14T07:54:38Z</time>
      </trkpt>
      <trkpt lat="44.90325" lon="6.08276">
        <ele>1769.8</ele>
        <time>2024-08-14T07:54:39Z</time>
      </trkpt>
      <trkpt lat="44.90327" lon="6.08277">
        <ele>1769.4</ele>
        <time>2024-08-14T07:54:40Z</time>
      </trkpt>
      <trkpt lat="44.90327" lon="6.08277">
        <ele>1769</ele>
        <time>2024-08-14T07:54:41Z</time>
      </trkpt>
      <trkpt lat="44.90329" lon="6.08279">
        <ele>1768.6</ele>
        <time>2024-08-14T07:54:42Z</time>
      </trkpt>
      <trkpt lat="44.90329" lon="6.08279">
        <ele>1768.2</ele>
        <time>2024-08-14T07:54:43Z</time>
      </trkpt>
      <trkpt lat="44.90329" lon="6.08279">
        <ele>1768</ele>
        <time>2024-08-14T07:54:44Z</time>
      </trkpt>
      <trkpt lat="44.90332" lon="6.0828">
        <ele>1768</ele>
        <time>2024-08-14T07:54:45Z</time>
      </trkpt>
      <trkpt lat="44.90332" lon="6.0828">
        <ele>1768</ele>
        <time>2024-08-14T07:54:46Z</time>
      </trkpt>
      <trkpt lat="44.90332" lon="6.0828">
        <ele>1767.8</ele>
        <time>2024-08-14T07:54:47Z</time>
      </trkpt>
      <trkpt lat="44.90334" lon="6.08281">
        <ele>1767.6</ele>
        <time>2024-08-14T07:54:48Z</time>
      </trkpt>
      <trkpt lat="44.90334" lon="6.08281">
        <ele>1767</ele>
        <time>2024-08-14T07:54:49Z</time>
      </trkpt>
      <trkpt lat="44.90334" lon="6.08281">
        <ele>1766.8</ele>
        <time>2024-08-14T07:54:50Z</time>
      </trkpt>
      <trkpt lat="44.90336" lon="6.0828">
        <ele>1766.6</ele>
        <time>2024-08-14T07:54:51Z</time>
      </trkpt>
      <trkpt lat="44.90336" lon="6.0828">
        <ele>1766.4</ele>
        <time>2024-08-14T07:54:52Z</time>
      </trkpt>
      <trkpt lat="44.90338" lon="6.0828">
        <ele>1765.8</ele>
        <time>2024-08-14T07:54:53Z</time>
      </trkpt>
      <trkpt lat="44.90338" lon="6.0828">
        <ele>1765.8</ele>
        <time>2024-08-14T07:54:54Z</time>
      </trkpt>
      <trkpt lat="44.9034" lon="6.0828">
        <ele>1765.2</ele>
        <time>2024-08-14T07:54:55Z</time>
      </trkpt>
      <trkpt lat="44.9034" lon="6.0828">
        <ele>1765</ele>
        <time>2024-08-14T07:54:56Z</time>
      </trkpt>
      <trkpt lat="44.90342" lon="6.08281">
        <ele>1764.8</ele>
        <time>2024-08-14T07:54:57Z</time>
      </trkpt>
      <trkpt lat="44.90342" lon="6.08281">
        <ele>1764.4</ele>
        <time>2024-08-14T07:54:58Z</time>
      </trkpt>
      <trkpt lat="44.90344" lon="6.08281">
        <ele>1763.8</ele>
        <time>2024-08-14T07:54:59Z</time>
      </trkpt>
      <trkpt lat="44.90344" lon="6.08281">
        <ele>1763.6</ele>
        <time>2024-08-14T07:55:00Z</time>
      </trkpt>
      <trkpt lat="44.90346" lon="6.08283">
        <ele>1763.4</ele>
        <time>2024-08-14T07:55:01Z</time>
      </trkpt>
      <trkpt lat="44.90346" lon="6.08283">
        <ele>1762.8</ele>
        <time>2024-08-14T07:55:02Z</time>
      </trkpt>
      <trkpt lat="44.90346" lon="6.08283">
        <ele>1762.8</ele>
        <time>2024-08-14T07:55:03Z</time>
      </trkpt>
      <trkpt lat="44.90346" lon="6.08283">
        <ele>1762.6</ele>
        <time>2024-08-14T07:55:04Z</time>
      </trkpt>
      <trkpt lat="44.90346" lon="6.08283">
        <ele>1762.4</ele>
        <time>2024-08-14T07:55:05Z</time>
      </trkpt>
      <trkpt lat="44.90346" lon="6.08283">
        <ele>1762</ele>
        <time>2024-08-14T07:55:06Z</time>
      </trkpt>
      <trkpt lat="44.90346" lon="6.08283">
        <ele>1761.4</ele>
        <time>2024-08-14T07:55:07Z</time>
      </trkpt>
      <trkpt lat="44.90346" lon="6.08279">
        <ele>1761.2</ele>
        <time>2024-08-14T07:55:08Z</time>
      </trkpt>
      <trkpt lat="44.90346" lon="6.08279">
        <ele>1760.8</ele>
        <time>2024-08-14T07:55:09Z</time>
      </trkpt>
      <trkpt lat="44.90344" lon="6.08276">
        <ele>1760.4</ele>
        <time>2024-08-14T07:55:10Z</time>
      </trkpt>
      <trkpt lat="44.90344" lon="6.08276">
        <ele>1760.2</ele>
        <time>2024-08-14T07:55:11Z</time>
      </trkpt>
      <trkpt lat="44.90343" lon="6.08274">
        <ele>1760</ele>
        <time>2024-08-14T07:55:12Z</time>
      </trkpt>
      <trkpt lat="44.90343" lon="6.08274">
        <ele>1759.4</ele>
        <time>2024-08-14T07:55:13Z</time>
      </trkpt>
      <trkpt lat="44.90341" lon="6.08271">
        <ele>1759</ele>
        <time>2024-08-14T07:55:14Z</time>
      </trkpt>
      <trkpt lat="44.90341" lon="6.08271">
        <ele>1758.8</ele>
        <time>2024-08-14T07:55:15Z</time>
      </trkpt>
      <trkpt lat="44.90341" lon="6.08271">
        <ele>1758.4</ele>
        <time>2024-08-14T07:55:16Z</time>
      </trkpt>
      <trkpt lat="44.9034" lon="6.08269">
        <ele>1758.2</ele>
        <time>2024-08-14T07:55:17Z</time>
      </trkpt>
      <trkpt lat="44.9034" lon="6.08269">
        <ele>1757.8</ele>
        <time>2024-08-14T07:55:18Z</time>
      </trkpt>
      <trkpt lat="44.9034" lon="6.08269">
        <ele>1757.6</ele>
        <time>2024-08-14T07:55:19Z</time>
      </trkpt>
      <trkpt lat="44.9034" lon="6.08269">
        <ele>1757.6</ele>
        <time>2024-08-14T07:55:20Z</time>
      </trkpt>
      <trkpt lat="44.9034" lon="6.08269">
        <ele>1757.4</ele>
        <time>2024-08-14T07:55:21Z</time>
      </trkpt>
      <trkpt lat="44.9034" lon="6.08269">
        <ele>1757.2</ele>
        <time>2024-08-14T07:55:22Z</time>
      </trkpt>
      <trkpt lat="44.9034" lon="6.08269">
        <ele>1757</ele>
        <time>2024-08-14T07:55:23Z</time>
      </trkpt>
      <trkpt lat="44.9034" lon="6.08269">
        <ele>1756.8</ele>
        <time>2024-08-14T07:55:24Z</time>
      </trkpt>
      <trkpt lat="44.9034" lon="6.08269">
        <ele>1756.8</ele>
        <time>2024-08-14T07:55:25Z</time>
      </trkpt>
      <trkpt lat="44.9034" lon="6.08269">
        <ele>1757.2</ele>
        <time>2024-08-14T07:55:26Z</time>
      </trkpt>
      <trkpt lat="44.9034" lon="6.08269">
        <ele>1757.2</ele>
        <time>2024-08-14T07:55:27Z</time>
      </trkpt>
      <trkpt lat="44.90337" lon="6.08266">
        <ele>1757.2</ele>
        <time>2024-08-14T07:55:28Z</time>
      </trkpt>
      <trkpt lat="44.90337" lon="6.08266">
        <ele>1756.8</ele>
        <time>2024-08-14T07:55:29Z</time>
      </trkpt>
      <trkpt lat="44.90335" lon="6.08262">
        <ele>1756.8</ele>
        <time>2024-08-14T07:55:30Z</time>
      </trkpt>
      <trkpt lat="44.90334" lon="6.0826">
        <ele>1756.6</ele>
        <time>2024-08-14T07:55:31Z</time>
      </trkpt>
      <trkpt lat="44.90333" lon="6.08258">
        <ele>1756</ele>
        <time>2024-08-14T07:55:32Z</time>
      </trkpt>
      <trkpt lat="44.90333" lon="6.08258">
        <ele>1756</ele>
        <time>2024-08-14T07:55:33Z</time>
      </trkpt>
      <trkpt lat="44.90332" lon="6.08254">
        <ele>1755.4</ele>
        <time>2024-08-14T07:55:34Z</time>
      </trkpt>
      <trkpt lat="44.90332" lon="6.08254">
        <ele>1755</ele>
        <time>2024-08-14T07:55:35Z</time>
      </trkpt>
      <trkpt lat="44.90332" lon="6.08251">
        <ele>1754.8</ele>
        <time>2024-08-14T07:55:36Z</time>
      </trkpt>
      <trkpt lat="44.90332" lon="6.08251">
        <ele>1754.6</ele>
        <time>2024-08-14T07:55:37Z</time>
      </trkpt>
      <trkpt lat="44.90334" lon="6.08251">
        <ele>1754.4</ele>
        <time>2024-08-14T07:55:38Z</time>
      </trkpt>
      <trkpt lat="44.90334" lon="6.08251">
        <ele>1754.2</ele>
        <time>2024-08-14T07:55:39Z</time>
      </trkpt>
      <trkpt lat="44.90337" lon="6.08253">
        <ele>1753.8</ele>
        <time>2024-08-14T07:55:40Z</time>
      </trkpt>
      <trkpt lat="44.90337" lon="6.08253">
        <ele>1753.4</ele>
        <time>2024-08-14T07:55:41Z</time>
      </trkpt>
      <trkpt lat="44.9034" lon="6.08254">
        <ele>1752.6</ele>
        <time>2024-08-14T07:55:42Z</time>
      </trkpt>
      <trkpt lat="44.9034" lon="6.08254">
        <ele>1752.6</ele>
        <time>2024-08-14T07:55:43Z</time>
      </trkpt>
      <trkpt lat="44.90342" lon="6.08255">
        <ele>1752.4</ele>
        <time>2024-08-14T07:55:44Z</time>
      </trkpt>
      <trkpt lat="44.90342" lon="6.08255">
        <ele>1752.2</ele>
        <time>2024-08-14T07:55:45Z</time>
      </trkpt>
      <trkpt lat="44.90345" lon="6.08256">
        <ele>1752</ele>
        <time>2024-08-14T07:55:46Z</time>
      </trkpt>
      <trkpt lat="44.90345" lon="6.08256">
        <ele>1751.8</ele>
        <time>2024-08-14T07:55:47Z</time>
      </trkpt>
      <trkpt lat="44.90348" lon="6.08256">
        <ele>1751.8</ele>
        <time>2024-08-14T07:55:48Z</time>
      </trkpt>
      <trkpt lat="44.90348" lon="6.08256">
        <ele>1751.6</ele>
        <time>2024-08-14T07:55:49Z</time>
      </trkpt>
      <trkpt lat="44.9035" lon="6.08257">
        <ele>1751.4</ele>
        <time>2024-08-14T07:55:50Z</time>
      </trkpt>
      <trkpt lat="44.9035" lon="6.08257">
        <ele>1751.4</ele>
        <time>2024-08-14T07:55:51Z</time>
      </trkpt>
      <trkpt lat="44.90353" lon="6.08258">
        <ele>1751.2</ele>
        <time>2024-08-14T07:55:52Z</time>
      </trkpt>
      <trkpt lat="44.90353" lon="6.08258">
        <ele>1751</ele>
        <time>2024-08-14T07:55:53Z</time>
      </trkpt>
      <trkpt lat="44.90355" lon="6.0826">
        <ele>1750.8</ele>
        <time>2024-08-14T07:55:54Z</time>
      </trkpt>
      <trkpt lat="44.90355" lon="6.0826">
        <ele>1750.6</ele>
        <time>2024-08-14T07:55:55Z</time>
      </trkpt>
      <trkpt lat="44.90357" lon="6.08262">
        <ele>1750.2</ele>
        <time>2024-08-14T07:55:56Z</time>
      </trkpt>
      <trkpt lat="44.90357" lon="6.08262">
        <ele>1750</ele>
        <time>2024-08-14T07:55:57Z</time>
      </trkpt>
      <trkpt lat="44.9036" lon="6.08264">
        <ele>1749.8</ele>
        <time>2024-08-14T07:55:58Z</time>
      </trkpt>
      <trkpt lat="44.9036" lon="6.08264">
        <ele>1749.6</ele>
        <time>2024-08-14T07:55:59Z</time>
      </trkpt>
      <trkpt lat="44.90362" lon="6.08267">
        <ele>1749.4</ele>
        <time>2024-08-14T07:56:00Z</time>
      </trkpt>
      <trkpt lat="44.90362" lon="6.08267">
        <ele>1749</ele>
        <time>2024-08-14T07:56:01Z</time>
      </trkpt>
      <trkpt lat="44.90363" lon="6.08271">
        <ele>1748.6</ele>
        <time>2024-08-14T07:56:02Z</time>
      </trkpt>
      <trkpt lat="44.90363" lon="6.08271">
        <ele>1748.6</ele>
        <time>2024-08-14T07:56:03Z</time>
      </trkpt>
      <trkpt lat="44.90365" lon="6.08274">
        <ele>1748.4</ele>
        <time>2024-08-14T07:56:04Z</time>
      </trkpt>
      <trkpt lat="44.90365" lon="6.08274">
        <ele>1748.2</ele>
        <time>2024-08-14T07:56:05Z</time>
      </trkpt>
      <trkpt lat="44.90368" lon="6.08275">
        <ele>1748</ele>
        <time>2024-08-14T07:56:06Z</time>
      </trkpt>
      <trkpt lat="44.90368" lon="6.08275">
        <ele>1747.8</ele>
        <time>2024-08-14T07:56:07Z</time>
      </trkpt>
      <trkpt lat="44.9037" lon="6.08275">
        <ele>1747.6</ele>
        <time>2024-08-14T07:56:08Z</time>
      </trkpt>
      <trkpt lat="44.9037" lon="6.08275">
        <ele>1747.6</ele>
        <time>2024-08-14T07:56:09Z</time>
      </trkpt>
      <trkpt lat="44.90373" lon="6.08277">
        <ele>1747.6</ele>
        <time>2024-08-14T07:56:10Z</time>
      </trkpt>
      <trkpt lat="44.90373" lon="6.08277">
        <ele>1747.6</ele>
        <time>2024-08-14T07:56:11Z</time>
      </trkpt>
      <trkpt lat="44.90374" lon="6.08279">
        <ele>1747.4</ele>
        <time>2024-08-14T07:56:12Z</time>
      </trkpt>
      <trkpt lat="44.90374" lon="6.08279">
        <ele>1747.4</ele>
        <time>2024-08-14T07:56:13Z</time>
      </trkpt>
      <trkpt lat="44.90375" lon="6.08282">
        <ele>1747.4</ele>
        <time>2024-08-14T07:56:14Z</time>
      </trkpt>
      <trkpt lat="44.90375" lon="6.08282">
        <ele>1747.2</ele>
        <time>2024-08-14T07:56:15Z</time>
      </trkpt>
      <trkpt lat="44.90375" lon="6.08282">
        <ele>1746.8</ele>
        <time>2024-08-14T07:56:16Z</time>
      </trkpt>
      <trkpt lat="44.90375" lon="6.08282">
        <ele>1746.6</ele>
        <time>2024-08-14T07:56:17Z</time>
      </trkpt>
      <trkpt lat="44.90375" lon="6.08282">
        <ele>1746.2</ele>
        <time>2024-08-14T07:56:18Z</time>
      </trkpt>
      <trkpt lat="44.90375" lon="6.08282">
        <ele>1746</ele>
        <time>2024-08-14T07:56:19Z</time>
      </trkpt>
      <trkpt lat="44.90375" lon="6.08278">
        <ele>1745.8</ele>
        <time>2024-08-14T07:56:20Z</time>
      </trkpt>
      <trkpt lat="44.90375" lon="6.08278">
        <ele>1745.8</ele>
        <time>2024-08-14T07:56:21Z</time>
      </trkpt>
      <trkpt lat="44.90374" lon="6.08275">
        <ele>1745.8</ele>
        <time>2024-08-14T07:56:22Z</time>
      </trkpt>
      <trkpt lat="44.90374" lon="6.08275">
        <ele>1745.2</ele>
        <time>2024-08-14T07:56:23Z</time>
      </trkpt>
      <trkpt lat="44.90374" lon="6.08275">
        <ele>1744.8</ele>
        <time>2024-08-14T07:56:24Z</time>
      </trkpt>
      <trkpt lat="44.90373" lon="6.08271">
        <ele>1744.6</ele>
        <time>2024-08-14T07:56:25Z</time>
      </trkpt>
      <trkpt lat="44.90373" lon="6.08271">
        <ele>1744.4</ele>
        <time>2024-08-14T07:56:26Z</time>
      </trkpt>
      <trkpt lat="44.90373" lon="6.08271">
        <ele>1744</ele>
        <time>2024-08-14T07:56:27Z</time>
      </trkpt>
      <trkpt lat="44.90373" lon="6.08271">
        <ele>1743.6</ele>
        <time>2024-08-14T07:56:28Z</time>
      </trkpt>
      <trkpt lat="44.90371" lon="6.0827">
        <ele>1743.6</ele>
        <time>2024-08-14T07:56:29Z</time>
      </trkpt>
      <trkpt lat="44.90371" lon="6.0827">
        <ele>1743.4</ele>
        <time>2024-08-14T07:56:30Z</time>
      </trkpt>
      <trkpt lat="44.90371" lon="6.0827">
        <ele>1743</ele>
        <time>2024-08-14T07:56:31Z</time>
      </trkpt>
      <trkpt lat="44.90369" lon="6.08267">
        <ele>1742.6</ele>
        <time>2024-08-14T07:56:32Z</time>
      </trkpt>
      <trkpt lat="44.90369" lon="6.08267">
        <ele>1742.2</ele>
        <time>2024-08-14T07:56:33Z</time>
      </trkpt>
      <trkpt lat="44.90368" lon="6.08264">
        <ele>1741.8</ele>
        <time>2024-08-14T07:56:34Z</time>
      </trkpt>
      <trkpt lat="44.90368" lon="6.08264">
        <ele>1741.6</ele>
        <time>2024-08-14T07:56:35Z</time>
      </trkpt>
      <trkpt lat="44.90368" lon="6.08261">
        <ele>1741</ele>
        <time>2024-08-14T07:56:36Z</time>
      </trkpt>
      <trkpt lat="44.90368" lon="6.08261">
        <ele>1740.6</ele>
        <time>2024-08-14T07:56:37Z</time>
      </trkpt>
      <trkpt lat="44.90369" lon="6.08258">
        <ele>1740.4</ele>
        <time>2024-08-14T07:56:38Z</time>
      </trkpt>
      <trkpt lat="44.90369" lon="6.08258">
        <ele>1740</ele>
        <time>2024-08-14T07:56:39Z</time>
      </trkpt>
      <trkpt lat="44.90369" lon="6.08255">
        <ele>1739.6</ele>
        <time>2024-08-14T07:56:40Z</time>
      </trkpt>
      <trkpt lat="44.90369" lon="6.08255">
        <ele>1739.2</ele>
        <time>2024-08-14T07:56:41Z</time>
      </trkpt>
      <trkpt lat="44.90369" lon="6.08255">
        <ele>1739</ele>
        <time>2024-08-14T07:56:42Z</time>
      </trkpt>
      <trkpt lat="44.90369" lon="6.08252">
        <ele>1738.8</ele>
        <time>2024-08-14T07:56:43Z</time>
      </trkpt>
      <trkpt lat="44.90369" lon="6.08252">
        <ele>1738.6</ele>
        <time>2024-08-14T07:56:44Z</time>
      </trkpt>
      <trkpt lat="44.90369" lon="6.08252">
        <ele>1738.2</ele>
        <time>2024-08-14T07:56:45Z</time>
      </trkpt>
      <trkpt lat="44.90367" lon="6.08248">
        <ele>1737.8</ele>
        <time>2024-08-14T07:56:46Z</time>
      </trkpt>
      <trkpt lat="44.90367" lon="6.08248">
        <ele>1737.6</ele>
        <time>2024-08-14T07:56:47Z</time>
      </trkpt>
      <trkpt lat="44.90366" lon="6.08245">
        <ele>1737.4</ele>
        <time>2024-08-14T07:56:48Z</time>
      </trkpt>
      <trkpt lat="44.90366" lon="6.08245">
        <ele>1737.4</ele>
        <time>2024-08-14T07:56:49Z</time>
      </trkpt>
      <trkpt lat="44.90365" lon="6.08243">
        <ele>1737.4</ele>
        <time>2024-08-14T07:56:50Z</time>
      </trkpt>
      <trkpt lat="44.90365" lon="6.08243">
        <ele>1736.8</ele>
        <time>2024-08-14T07:56:51Z</time>
      </trkpt>
      <trkpt lat="44.90363" lon="6.0824">
        <ele>1736.6</ele>
        <time>2024-08-14T07:56:52Z</time>
      </trkpt>
      <trkpt lat="44.90363" lon="6.0824">
        <ele>1736.2</ele>
        <time>2024-08-14T07:56:53Z</time>
      </trkpt>
      <trkpt lat="44.90361" lon="6.08238">
        <ele>1736.2</ele>
        <time>2024-08-14T07:56:54Z</time>
      </trkpt>
      <trkpt lat="44.90361" lon="6.08238">
        <ele>1735.8</ele>
        <time>2024-08-14T07:56:55Z</time>
      </trkpt>
      <trkpt lat="44.90358" lon="6.08236">
        <ele>1735.6</ele>
        <time>2024-08-14T07:56:56Z</time>
      </trkpt>
      <trkpt lat="44.90358" lon="6.08236">
        <ele>1735.6</ele>
        <time>2024-08-14T07:56:57Z</time>
      </trkpt>
      <trkpt lat="44.90357" lon="6.08234">
        <ele>1735.4</ele>
        <time>2024-08-14T07:56:58Z</time>
      </trkpt>
      <trkpt lat="44.90357" lon="6.08234">
        <ele>1735.2</ele>
        <time>2024-08-14T07:56:59Z</time>
      </trkpt>
      <trkpt lat="44.90356" lon="6.08231">
        <ele>1735.2</ele>
        <time>2024-08-14T07:57:00Z</time>
      </trkpt>
      <trkpt lat="44.90356" lon="6.08231">
        <ele>1735</ele>
        <time>2024-08-14T07:57:01Z</time>
      </trkpt>
      <trkpt lat="44.90355" lon="6.08229">
        <ele>1734.8</ele>
        <time>2024-08-14T07:57:02Z</time>
      </trkpt>
      <trkpt lat="44.90355" lon="6.08229">
        <ele>1734.4</ele>
        <time>2024-08-14T07:57:03Z</time>
      </trkpt>
      <trkpt lat="44.90353" lon="6.08226">
        <ele>1734</ele>
        <time>2024-08-14T07:57:04Z</time>
      </trkpt>
      <trkpt lat="44.90353" lon="6.08226">
        <ele>1733.6</ele>
        <time>2024-08-14T07:57:05Z</time>
      </trkpt>
      <trkpt lat="44.90352" lon="6.08223">
        <ele>1733.6</ele>
        <time>2024-08-14T07:57:06Z</time>
      </trkpt>
      <trkpt lat="44.90352" lon="6.08223">
        <ele>1733.2</ele>
        <time>2024-08-14T07:57:07Z</time>
      </trkpt>
      <trkpt lat="44.90351" lon="6.08221">
        <ele>1733.2</ele>
        <time>2024-08-14T07:57:08Z</time>
      </trkpt>
      <trkpt lat="44.90351" lon="6.08221">
        <ele>1733.2</ele>
        <time>2024-08-14T07:57:09Z</time>
      </trkpt>
      <trkpt lat="44.90349" lon="6.08218">
        <ele>1733.2</ele>
        <time>2024-08-14T07:57:10Z</time>
      </trkpt>
      <trkpt lat="44.90349" lon="6.08218">
        <ele>1732.8</ele>
        <time>2024-08-14T07:57:11Z</time>
      </trkpt>
      <trkpt lat="44.90348" lon="6.08216">
        <ele>1732.8</ele>
        <time>2024-08-14T07:57:12Z</time>
      </trkpt>
      <trkpt lat="44.90348" lon="6.08216">
        <ele>1732.4</ele>
        <time>2024-08-14T07:57:13Z</time>
      </trkpt>
      <trkpt lat="44.90347" lon="6.08213">
        <ele>1732</ele>
        <time>2024-08-14T07:57:14Z</time>
      </trkpt>
      <trkpt lat="44.90347" lon="6.08213">
        <ele>1731.8</ele>
        <time>2024-08-14T07:57:15Z</time>
      </trkpt>
      <trkpt lat="44.90347" lon="6.08213">
        <ele>1731.4</ele>
        <time>2024-08-14T07:57:16Z</time>
      </trkpt>
      <trkpt lat="44.90347" lon="6.08213">
        <ele>1731.2</ele>
        <time>2024-08-14T07:57:17Z</time>
      </trkpt>
      <trkpt lat="44.90345" lon="6.0821">
        <ele>1731.2</ele>
        <time>2024-08-14T07:57:18Z</time>
      </trkpt>
      <trkpt lat="44.90345" lon="6.0821">
        <ele>1730.8</ele>
        <time>2024-08-14T07:57:19Z</time>
      </trkpt>
      <trkpt lat="44.90345" lon="6.0821">
        <ele>1730.6</ele>
        <time>2024-08-14T07:57:20Z</time>
      </trkpt>
      <trkpt lat="44.90344" lon="6.08207">
        <ele>1730.4</ele>
        <time>2024-08-14T07:57:21Z</time>
      </trkpt>
      <trkpt lat="44.90344" lon="6.08207">
        <ele>1730</ele>
        <time>2024-08-14T07:57:22Z</time>
      </trkpt>
      <trkpt lat="44.90342" lon="6.08204">
        <ele>1729.8</ele>
        <time>2024-08-14T07:57:23Z</time>
      </trkpt>
      <trkpt lat="44.90342" lon="6.08204">
        <ele>1729.4</ele>
        <time>2024-08-14T07:57:24Z</time>
      </trkpt>
      <trkpt lat="44.90341" lon="6.08201">
        <ele>1729</ele>
        <time>2024-08-14T07:57:25Z</time>
      </trkpt>
      <trkpt lat="44.90341" lon="6.08201">
        <ele>1728.4</ele>
        <time>2024-08-14T07:57:26Z</time>
      </trkpt>
      <trkpt lat="44.9034" lon="6.08197">
        <ele>1728.4</ele>
        <time>2024-08-14T07:57:27Z</time>
      </trkpt>
      <trkpt lat="44.9034" lon="6.08197">
        <ele>1728</ele>
        <time>2024-08-14T07:57:28Z</time>
      </trkpt>
      <trkpt lat="44.90339" lon="6.08193">
        <ele>1727.8</ele>
        <time>2024-08-14T07:57:29Z</time>
      </trkpt>
      <trkpt lat="44.90339" lon="6.08193">
        <ele>1727.8</ele>
        <time>2024-08-14T07:57:30Z</time>
      </trkpt>
      <trkpt lat="44.90339" lon="6.0819">
        <ele>1727.4</ele>
        <time>2024-08-14T07:57:31Z</time>
      </trkpt>
      <trkpt lat="44.90339" lon="6.0819">
        <ele>1727.4</ele>
        <time>2024-08-14T07:57:32Z</time>
      </trkpt>
      <trkpt lat="44.90339" lon="6.0819">
        <ele>1727.4</ele>
        <time>2024-08-14T07:57:33Z</time>
      </trkpt>
      <trkpt lat="44.90339" lon="6.08187">
        <ele>1727.2</ele>
        <time>2024-08-14T07:57:34Z</time>
      </trkpt>
      <trkpt lat="44.90339" lon="6.08187">
        <ele>1727.2</ele>
        <time>2024-08-14T07:57:35Z</time>
      </trkpt>
      <trkpt lat="44.90337" lon="6.08184">
        <ele>1726.8</ele>
        <time>2024-08-14T07:57:36Z</time>
      </trkpt>
      <trkpt lat="44.90337" lon="6.08184">
        <ele>1726.6</ele>
        <time>2024-08-14T07:57:37Z</time>
      </trkpt>
      <trkpt lat="44.90336" lon="6.08181">
        <ele>1726.4</ele>
        <time>2024-08-14T07:57:38Z</time>
      </trkpt>
      <trkpt lat="44.90336" lon="6.08181">
        <ele>1725.8</ele>
        <time>2024-08-14T07:57:39Z</time>
      </trkpt>
      <trkpt lat="44.90335" lon="6.08179">
        <ele>1725.6</ele>
        <time>2024-08-14T07:57:40Z</time>
      </trkpt>
      <trkpt lat="44.90335" lon="6.08179">
        <ele>1725.6</ele>
        <time>2024-08-14T07:57:41Z</time>
      </trkpt>
      <trkpt lat="44.90334" lon="6.08175">
        <ele>1725.4</ele>
        <time>2024-08-14T07:57:42Z</time>
      </trkpt>
      <trkpt lat="44.90334" lon="6.08175">
        <ele>1725.4</ele>
        <time>2024-08-14T07:57:43Z</time>
      </trkpt>
      <trkpt lat="44.90333" lon="6.08173">
        <ele>1725</ele>
        <time>2024-08-14T07:57:44Z</time>
      </trkpt>
      <trkpt lat="44.90333" lon="6.08173">
        <ele>1724.6</ele>
        <time>2024-08-14T07:57:45Z</time>
      </trkpt>
      <trkpt lat="44.90333" lon="6.0817">
        <ele>1724.2</ele>
        <time>2024-08-14T07:57:46Z</time>
      </trkpt>
      <trkpt lat="44.90333" lon="6.0817">
        <ele>1724</ele>
        <time>2024-08-14T07:57:47Z</time>
      </trkpt>
      <trkpt lat="44.90334" lon="6.0817">
        <ele>1723.8</ele>
        <time>2024-08-14T07:57:48Z</time>
      </trkpt>
      <trkpt lat="44.90334" lon="6.0817">
        <ele>1723.6</ele>
        <time>2024-08-14T07:57:49Z</time>
      </trkpt>
      <trkpt lat="44.90337" lon="6.08171">
        <ele>1723.4</ele>
        <time>2024-08-14T07:57:50Z</time>
      </trkpt>
      <trkpt lat="44.90337" lon="6.08171">
        <ele>1723.2</ele>
        <time>2024-08-14T07:57:51Z</time>
      </trkpt>
      <trkpt lat="44.90339" lon="6.08171">
        <ele>1723</ele>
        <time>2024-08-14T07:57:52Z</time>
      </trkpt>
      <trkpt lat="44.90339" lon="6.08171">
        <ele>1722.6</ele>
        <time>2024-08-14T07:57:53Z</time>
      </trkpt>
      <trkpt lat="44.90341" lon="6.08171">
        <ele>1722.2</ele>
        <time>2024-08-14T07:57:54Z</time>
      </trkpt>
      <trkpt lat="44.90341" lon="6.08171">
        <ele>1721.8</ele>
        <time>2024-08-14T07:57:55Z</time>
      </trkpt>
      <trkpt lat="44.90343" lon="6.0817">
        <ele>1721.6</ele>
        <time>2024-08-14T07:57:56Z</time>
      </trkpt>
      <trkpt lat="44.90343" lon="6.0817">
        <ele>1721.4</ele>
        <time>2024-08-14T07:57:57Z</time>
      </trkpt>
      <trkpt lat="44.90345" lon="6.08171">
        <ele>1721</ele>
        <time>2024-08-14T07:57:58Z</time>
      </trkpt>
      <trkpt lat="44.90345" lon="6.08171">
        <ele>1720.6</ele>
        <time>2024-08-14T07:57:59Z</time>
      </trkpt>
      <trkpt lat="44.90347" lon="6.08171">
        <ele>1720.4</ele>
        <time>2024-08-14T07:58:00Z</time>
      </trkpt>
      <trkpt lat="44.90347" lon="6.08171">
        <ele>1720</ele>
        <time>2024-08-14T07:58:01Z</time>
      </trkpt>
      <trkpt lat="44.90349" lon="6.08172">
        <ele>1719.4</ele>
        <time>2024-08-14T07:58:02Z</time>
      </trkpt>
      <trkpt lat="44.90349" lon="6.08172">
        <ele>1719.4</ele>
        <time>2024-08-14T07:58:03Z</time>
      </trkpt>
      <trkpt lat="44.9035" lon="6.08173">
        <ele>1719</ele>
        <time>2024-08-14T07:58:04Z</time>
      </trkpt>
      <trkpt lat="44.9035" lon="6.08173">
        <ele>1718.8</ele>
        <time>2024-08-14T07:58:05Z</time>
      </trkpt>
      <trkpt lat="44.9035" lon="6.08173">
        <ele>1718.4</ele>
        <time>2024-08-14T07:58:06Z</time>
      </trkpt>
      <trkpt lat="44.90352" lon="6.08174">
        <ele>1718.2</ele>
        <time>2024-08-14T07:58:07Z</time>
      </trkpt>
      <trkpt lat="44.90352" lon="6.08174">
        <ele>1718</ele>
        <time>2024-08-14T07:58:08Z</time>
      </trkpt>
      <trkpt lat="44.90354" lon="6.08174">
        <ele>1717.6</ele>
        <time>2024-08-14T07:58:09Z</time>
      </trkpt>
      <trkpt lat="44.90354" lon="6.08174">
        <ele>1717.4</ele>
        <time>2024-08-14T07:58:10Z</time>
      </trkpt>
      <trkpt lat="44.90356" lon="6.08176">
        <ele>1717</ele>
        <time>2024-08-14T07:58:11Z</time>
      </trkpt>
      <trkpt lat="44.90356" lon="6.08176">
        <ele>1716.6</ele>
        <time>2024-08-14T07:58:12Z</time>
      </trkpt>
      <trkpt lat="44.90356" lon="6.08176">
        <ele>1716</ele>
        <time>2024-08-14T07:58:13Z</time>
      </trkpt>
      <trkpt lat="44.90356" lon="6.08176">
        <ele>1715.8</ele>
        <time>2024-08-14T07:58:14Z</time>
      </trkpt>
      <trkpt lat="44.90358" lon="6.08175">
        <ele>1715.8</ele>
        <time>2024-08-14T07:58:15Z</time>
      </trkpt>
      <trkpt lat="44.90358" lon="6.08175">
        <ele>1715.2</ele>
        <time>2024-08-14T07:58:16Z</time>
      </trkpt>
      <trkpt lat="44.90358" lon="6.08175">
        <ele>1714.8</ele>
        <time>2024-08-14T07:58:17Z</time>
      </trkpt>
      <trkpt lat="44.90357" lon="6.08172">
        <ele>1714.6</ele>
        <time>2024-08-14T07:58:18Z</time>
      </trkpt>
      <trkpt lat="44.90357" lon="6.08172">
        <ele>1714.6</ele>
        <time>2024-08-14T07:58:19Z</time>
      </trkpt>
      <trkpt lat="44.90357" lon="6.08172">
        <ele>1714</ele>
        <time>2024-08-14T07:58:20Z</time>
      </trkpt>
      <trkpt lat="44.90357" lon="6.08169">
        <ele>1713.8</ele>
        <time>2024-08-14T07:58:21Z</time>
      </trkpt>
      <trkpt lat="44.90357" lon="6.08169">
        <ele>1713.6</ele>
        <time>2024-08-14T07:58:22Z</time>
      </trkpt>
      <trkpt lat="44.90357" lon="6.08169">
        <ele>1713.2</ele>
        <time>2024-08-14T07:58:23Z</time>
      </trkpt>
      <trkpt lat="44.90356" lon="6.08166">
        <ele>1713</ele>
        <time>2024-08-14T07:58:24Z</time>
      </trkpt>
      <trkpt lat="44.90356" lon="6.08166">
        <ele>1712.8</ele>
        <time>2024-08-14T07:58:25Z</time>
      </trkpt>
      <trkpt lat="44.90356" lon="6.08166">
        <ele>1712.4</ele>
        <time>2024-08-14T07:58:26Z</time>
      </trkpt>
      <trkpt lat="44.90356" lon="6.08162">
        <ele>1711.8</ele>
        <time>2024-08-14T07:58:27Z</time>
      </trkpt>
      <trkpt lat="44.90356" lon="6.08162">
        <ele>1711.8</ele>
        <time>2024-08-14T07:58:28Z</time>
      </trkpt>
      <trkpt lat="44.90356" lon="6.08162">
        <ele>1711.4</ele>
        <time>2024-08-14T07:58:29Z</time>
      </trkpt>
      <trkpt lat="44.90358" lon="6.08161">
        <ele>1711</ele>
        <time>2024-08-14T07:58:30Z</time>
      </trkpt>
      <trkpt lat="44.90358" lon="6.08161">
        <ele>1710.6</ele>
        <time>2024-08-14T07:58:31Z</time>
      </trkpt>
      <trkpt lat="44.9036" lon="6.08162">
        <ele>1710.6</ele>
        <time>2024-08-14T07:58:32Z</time>
      </trkpt>
      <trkpt lat="44.9036" lon="6.08162">
        <ele>1710.6</ele>
        <time>2024-08-14T07:58:33Z</time>
      </trkpt>
      <trkpt lat="44.90363" lon="6.08163">
        <ele>1710.4</ele>
        <time>2024-08-14T07:58:34Z</time>
      </trkpt>
      <trkpt lat="44.90363" lon="6.08163">
        <ele>1709.6</ele>
        <time>2024-08-14T07:58:35Z</time>
      </trkpt>
      <trkpt lat="44.90365" lon="6.08165">
        <ele>1709.2</ele>
        <time>2024-08-14T07:58:36Z</time>
      </trkpt>
      <trkpt lat="44.90365" lon="6.08165">
        <ele>1708.8</ele>
        <time>2024-08-14T07:58:37Z</time>
      </trkpt>
      <trkpt lat="44.90367" lon="6.08167">
        <ele>1708.6</ele>
        <time>2024-08-14T07:58:38Z</time>
      </trkpt>
      <trkpt lat="44.90367" lon="6.08167">
        <ele>1708.2</ele>
        <time>2024-08-14T07:58:39Z</time>
      </trkpt>
      <trkpt lat="44.90369" lon="6.08169">
        <ele>1707.8</ele>
        <time>2024-08-14T07:58:40Z</time>
      </trkpt>
      <trkpt lat="44.90369" lon="6.08169">
        <ele>1707.4</ele>
        <time>2024-08-14T07:58:41Z</time>
      </trkpt>
      <trkpt lat="44.90371" lon="6.08171">
        <ele>1707.4</ele>
        <time>2024-08-14T07:58:42Z</time>
      </trkpt>
      <trkpt lat="44.90371" lon="6.08171">
        <ele>1707.2</ele>
        <time>2024-08-14T07:58:43Z</time>
      </trkpt>
      <trkpt lat="44.90373" lon="6.08173">
        <ele>1707</ele>
        <time>2024-08-14T07:58:44Z</time>
      </trkpt>
      <trkpt lat="44.90373" lon="6.08173">
        <ele>1706.6</ele>
        <time>2024-08-14T07:58:45Z</time>
      </trkpt>
      <trkpt lat="44.90375" lon="6.08175">
        <ele>1706.2</ele>
        <time>2024-08-14T07:58:46Z</time>
      </trkpt>
      <trkpt lat="44.90375" lon="6.08175">
        <ele>1706</ele>
        <time>2024-08-14T07:58:47Z</time>
      </trkpt>
      <trkpt lat="44.90377" lon="6.08177">
        <ele>1705.6</ele>
        <time>2024-08-14T07:58:48Z</time>
      </trkpt>
      <trkpt lat="44.90377" lon="6.08177">
        <ele>1705.2</ele>
        <time>2024-08-14T07:58:49Z</time>
      </trkpt>
      <trkpt lat="44.90378" lon="6.0818">
        <ele>1704.8</ele>
        <time>2024-08-14T07:58:50Z</time>
      </trkpt>
      <trkpt lat="44.90378" lon="6.0818">
        <ele>1704.4</ele>
        <time>2024-08-14T07:58:51Z</time>
      </trkpt>
      <trkpt lat="44.90381" lon="6.08181">
        <ele>1704.2</ele>
        <time>2024-08-14T07:58:52Z</time>
      </trkpt>
      <trkpt lat="44.90381" lon="6.08181">
        <ele>1704</ele>
        <time>2024-08-14T07:58:53Z</time>
      </trkpt>
      <trkpt lat="44.90383" lon="6.08181">
        <ele>1703.8</ele>
        <time>2024-08-14T07:58:54Z</time>
      </trkpt>
      <trkpt lat="44.90383" lon="6.08181">
        <ele>1703.4</ele>
        <time>2024-08-14T07:58:55Z</time>
      </trkpt>
      <trkpt lat="44.90383" lon="6.08181">
        <ele>1703.4</ele>
        <time>2024-08-14T07:58:56Z</time>
      </trkpt>
      <trkpt lat="44.90385" lon="6.08181">
        <ele>1703</ele>
        <time>2024-08-14T07:58:57Z</time>
      </trkpt>
      <trkpt lat="44.90385" lon="6.08181">
        <ele>1702.6</ele>
        <time>2024-08-14T07:58:58Z</time>
      </trkpt>
      <trkpt lat="44.90387" lon="6.08181">
        <ele>1702.4</ele>
        <time>2024-08-14T07:58:59Z</time>
      </trkpt>
      <trkpt lat="44.90387" lon="6.08181">
        <ele>1702.2</ele>
        <time>2024-08-14T07:59:00Z</time>
      </trkpt>
      <trkpt lat="44.9039" lon="6.08181">
        <ele>1701.6</ele>
        <time>2024-08-14T07:59:01Z</time>
      </trkpt>
      <trkpt lat="44.9039" lon="6.08181">
        <ele>1701</ele>
        <time>2024-08-14T07:59:02Z</time>
      </trkpt>
      <trkpt lat="44.90392" lon="6.08181">
        <ele>1701</ele>
        <time>2024-08-14T07:59:03Z</time>
      </trkpt>
      <trkpt lat="44.90392" lon="6.08181">
        <ele>1700.4</ele>
        <time>2024-08-14T07:59:04Z</time>
      </trkpt>
      <trkpt lat="44.90395" lon="6.08181">
        <ele>1700.2</ele>
        <time>2024-08-14T07:59:05Z</time>
      </trkpt>
      <trkpt lat="44.90395" lon="6.08181">
        <ele>1700</ele>
        <time>2024-08-14T07:59:06Z</time>
      </trkpt>
      <trkpt lat="44.90397" lon="6.08182">
        <ele>1699.6</ele>
        <time>2024-08-14T07:59:07Z</time>
      </trkpt>
      <trkpt lat="44.90397" lon="6.08182">
        <ele>1699.6</ele>
        <time>2024-08-14T07:59:08Z</time>
      </trkpt>
      <trkpt lat="44.90399" lon="6.08184">
        <ele>1699.4</ele>
        <time>2024-08-14T07:59:09Z</time>
      </trkpt>
      <trkpt lat="44.90399" lon="6.08184">
        <ele>1699</ele>
        <time>2024-08-14T07:59:10Z</time>
      </trkpt>
      <trkpt lat="44.90401" lon="6.08184">
        <ele>1698.8</ele>
        <time>2024-08-14T07:59:11Z</time>
      </trkpt>
      <trkpt lat="44.90401" lon="6.08184">
        <ele>1698.4</ele>
        <time>2024-08-14T07:59:12Z</time>
      </trkpt>
      <trkpt lat="44.90403" lon="6.08185">
        <ele>1698.4</ele>
        <time>2024-08-14T07:59:13Z</time>
      </trkpt>
      <trkpt lat="44.90403" lon="6.08185">
        <ele>1698.2</ele>
        <time>2024-08-14T07:59:14Z</time>
      </trkpt>
      <trkpt lat="44.90405" lon="6.08185">
        <ele>1698</ele>
        <time>2024-08-14T07:59:15Z</time>
      </trkpt>
      <trkpt lat="44.90405" lon="6.08185">
        <ele>1697.4</ele>
        <time>2024-08-14T07:59:16Z</time>
      </trkpt>
      <trkpt lat="44.90407" lon="6.08186">
        <ele>1697.2</ele>
        <time>2024-08-14T07:59:17Z</time>
      </trkpt>
      <trkpt lat="44.90407" lon="6.08186">
        <ele>1697</ele>
        <time>2024-08-14T07:59:18Z</time>
      </trkpt>
      <trkpt lat="44.90409" lon="6.08187">
        <ele>1696.8</ele>
        <time>2024-08-14T07:59:19Z</time>
      </trkpt>
      <trkpt lat="44.90409" lon="6.08187">
        <ele>1696.8</ele>
        <time>2024-08-14T07:59:20Z</time>
      </trkpt>
      <trkpt lat="44.90409" lon="6.08187">
        <ele>1696.4</ele>
        <time>2024-08-14T07:59:21Z</time>
      </trkpt>
      <trkpt lat="44.90411" lon="6.08187">
        <ele>1696</ele>
        <time>2024-08-14T07:59:22Z</time>
      </trkpt>
      <trkpt lat="44.90411" lon="6.08187">
        <ele>1696</ele>
        <time>2024-08-14T07:59:23Z</time>
      </trkpt>
      <trkpt lat="44.90413" lon="6.08188">
        <ele>1695.8</ele>
        <time>2024-08-14T07:59:24Z</time>
      </trkpt>
      <trkpt lat="44.90413" lon="6.08188">
        <ele>1695.6</ele>
        <time>2024-08-14T07:59:25Z</time>
      </trkpt>
      <trkpt lat="44.90413" lon="6.08188">
        <ele>1695.2</ele>
        <time>2024-08-14T07:59:26Z</time>
      </trkpt>
      <trkpt lat="44.90413" lon="6.08188">
        <ele>1694.8</ele>
        <time>2024-08-14T07:59:27Z</time>
      </trkpt>
      <trkpt lat="44.90413" lon="6.08188">
        <ele>1694.8</ele>
        <time>2024-08-14T07:59:28Z</time>
      </trkpt>
      <trkpt lat="44.90411" lon="6.08186">
        <ele>1694.8</ele>
        <time>2024-08-14T07:59:29Z</time>
      </trkpt>
      <trkpt lat="44.90411" lon="6.08186">
        <ele>1694.2</ele>
        <time>2024-08-14T07:59:30Z</time>
      </trkpt>
      <trkpt lat="44.90409" lon="6.08184">
        <ele>1694</ele>
        <time>2024-08-14T07:59:31Z</time>
      </trkpt>
      <trkpt lat="44.90409" lon="6.08184">
        <ele>1693.8</ele>
        <time>2024-08-14T07:59:32Z</time>
      </trkpt>
      <trkpt lat="44.90407" lon="6.08181">
        <ele>1693.4</ele>
        <time>2024-08-14T07:59:33Z</time>
      </trkpt>
      <trkpt lat="44.90407" lon="6.08181">
        <ele>1693.2</ele>
        <time>2024-08-14T07:59:34Z</time>
      </trkpt>
      <trkpt lat="44.90406" lon="6.08179">
        <ele>1693.2</ele>
        <time>2024-08-14T07:59:35Z</time>
      </trkpt>
      <trkpt lat="44.90406" lon="6.08179">
        <ele>1693</ele>
        <time>2024-08-14T07:59:36Z</time>
      </trkpt>
      <trkpt lat="44.90404" lon="6.08177">
        <ele>1693</ele>
        <time>2024-08-14T07:59:37Z</time>
      </trkpt>
      <trkpt lat="44.90404" lon="6.08177">
        <ele>1692.6</ele>
        <time>2024-08-14T07:59:38Z</time>
      </trkpt>
      <trkpt lat="44.90402" lon="6.08175">
        <ele>1692.2</ele>
        <time>2024-08-14T07:59:39Z</time>
      </trkpt>
      <trkpt lat="44.90402" lon="6.08175">
        <ele>1692.2</ele>
        <time>2024-08-14T07:59:40Z</time>
      </trkpt>
      <trkpt lat="44.904" lon="6.08172">
        <ele>1692</ele>
        <time>2024-08-14T07:59:41Z</time>
      </trkpt>
      <trkpt lat="44.904" lon="6.08172">
        <ele>1691.6</ele>
        <time>2024-08-14T07:59:42Z</time>
      </trkpt>
      <trkpt lat="44.90398" lon="6.0817">
        <ele>1691.4</ele>
        <time>2024-08-14T07:59:43Z</time>
      </trkpt>
      <trkpt lat="44.90398" lon="6.0817">
        <ele>1690.8</ele>
        <time>2024-08-14T07:59:44Z</time>
      </trkpt>
      <trkpt lat="44.90397" lon="6.08168">
        <ele>1690.4</ele>
        <time>2024-08-14T07:59:45Z</time>
      </trkpt>
      <trkpt lat="44.90397" lon="6.08168">
        <ele>1690.2</ele>
        <time>2024-08-14T07:59:46Z</time>
      </trkpt>
      <trkpt lat="44.90397" lon="6.08166">
        <ele>1689.6</ele>
        <time>2024-08-14T07:59:47Z</time>
      </trkpt>
      <trkpt lat="44.90397" lon="6.08166">
        <ele>1689.4</ele>
        <time>2024-08-14T07:59:48Z</time>
      </trkpt>
      <trkpt lat="44.90397" lon="6.08162">
        <ele>1689.4</ele>
        <time>2024-08-14T07:59:49Z</time>
      </trkpt>
      <trkpt lat="44.90397" lon="6.08162">
        <ele>1689</ele>
        <time>2024-08-14T07:59:50Z</time>
      </trkpt>
      <trkpt lat="44.90397" lon="6.08159">
        <ele>1688</ele>
        <time>2024-08-14T07:59:51Z</time>
      </trkpt>
      <trkpt lat="44.90397" lon="6.08159">
        <ele>1687.4</ele>
        <time>2024-08-14T07:59:52Z</time>
      </trkpt>
      <trkpt lat="44.90397" lon="6.08156">
        <ele>1687.2</ele>
        <time>2024-08-14T07:59:53Z</time>
      </trkpt>
      <trkpt lat="44.90397" lon="6.08156">
        <ele>1686.8</ele>
        <time>2024-08-14T07:59:54Z</time>
      </trkpt>
      <trkpt lat="44.90397" lon="6.08153">
        <ele>1686.6</ele>
        <time>2024-08-14T07:59:55Z</time>
      </trkpt>
      <trkpt lat="44.90397" lon="6.08153">
        <ele>1686.6</ele>
        <time>2024-08-14T07:59:56Z</time>
      </trkpt>
      <trkpt lat="44.90397" lon="6.08149">
        <ele>1686.2</ele>
        <time>2024-08-14T07:59:57Z</time>
      </trkpt>
      <trkpt lat="44.90397" lon="6.08149">
        <ele>1686</ele>
        <time>2024-08-14T07:59:58Z</time>
      </trkpt>
      <trkpt lat="44.90397" lon="6.08146">
        <ele>1685.8</ele>
        <time>2024-08-14T07:59:59Z</time>
      </trkpt>
      <trkpt lat="44.90397" lon="6.08143">
        <ele>1685.6</ele>
        <time>2024-08-14T08:00:01Z</time>
      </trkpt>
      <trkpt lat="44.90397" lon="6.08143">
        <ele>1684.8</ele>
        <time>2024-08-14T08:00:02Z</time>
      </trkpt>
      <trkpt lat="44.90397" lon="6.08143">
        <ele>1684.8</ele>
        <time>2024-08-14T08:00:03Z</time>
      </trkpt>
      <trkpt lat="44.90396" lon="6.0814">
        <ele>1684.8</ele>
        <time>2024-08-14T08:00:04Z</time>
      </trkpt>
      <trkpt lat="44.90396" lon="6.0814">
        <ele>1684.6</ele>
        <time>2024-08-14T08:00:05Z</time>
      </trkpt>
      <trkpt lat="44.90395" lon="6.08137">
        <ele>1684.6</ele>
        <time>2024-08-14T08:00:06Z</time>
      </trkpt>
      <trkpt lat="44.90395" lon="6.08137">
        <ele>1684.4</ele>
        <time>2024-08-14T08:00:07Z</time>
      </trkpt>
      <trkpt lat="44.90396" lon="6.08134">
        <ele>1683.8</ele>
        <time>2024-08-14T08:00:08Z</time>
      </trkpt>
      <trkpt lat="44.90396" lon="6.08134">
        <ele>1683.4</ele>
        <time>2024-08-14T08:00:09Z</time>
      </trkpt>
      <trkpt lat="44.90396" lon="6.08134">
        <ele>1683</ele>
        <time>2024-08-14T08:00:10Z</time>
      </trkpt>
      <trkpt lat="44.90397" lon="6.08131">
        <ele>1683</ele>
        <time>2024-08-14T08:00:11Z</time>
      </trkpt>
      <trkpt lat="44.90397" lon="6.08131">
        <ele>1682.6</ele>
        <time>2024-08-14T08:00:12Z</time>
      </trkpt>
      <trkpt lat="44.90395" lon="6.08128">
        <ele>1682.6</ele>
        <time>2024-08-14T08:00:13Z</time>
      </trkpt>
      <trkpt lat="44.90395" lon="6.08128">
        <ele>1682.4</ele>
        <time>2024-08-14T08:00:14Z</time>
      </trkpt>
      <trkpt lat="44.90394" lon="6.08125">
        <ele>1681.8</ele>
        <time>2024-08-14T08:00:15Z</time>
      </trkpt>
      <trkpt lat="44.90394" lon="6.08125">
        <ele>1681.6</ele>
        <time>2024-08-14T08:00:16Z</time>
      </trkpt>
      <trkpt lat="44.90393" lon="6.08122">
        <ele>1681.2</ele>
        <time>2024-08-14T08:00:17Z</time>
      </trkpt>
      <trkpt lat="44.90393" lon="6.08122">
        <ele>1681.2</ele>
        <time>2024-08-14T08:00:18Z</time>
      </trkpt>
      <trkpt lat="44.90395" lon="6.08122">
        <ele>1681</ele>
        <time>2024-08-14T08:00:19Z</time>
      </trkpt>
      <trkpt lat="44.90395" lon="6.08122">
        <ele>1680.6</ele>
        <time>2024-08-14T08:00:20Z</time>
      </trkpt>
      <trkpt lat="44.90397" lon="6.08124">
        <ele>1680.4</ele>
        <time>2024-08-14T08:00:21Z</time>
      </trkpt>
      <trkpt lat="44.90397" lon="6.08124">
        <ele>1680.2</ele>
        <time>2024-08-14T08:00:22Z</time>
      </trkpt>
      <trkpt lat="44.90399" lon="6.08125">
        <ele>1680</ele>
        <time>2024-08-14T08:00:23Z</time>
      </trkpt>
      <trkpt lat="44.90399" lon="6.08125">
        <ele>1679.8</ele>
        <time>2024-08-14T08:00:24Z</time>
      </trkpt>
      <trkpt lat="44.90402" lon="6.08126">
        <ele>1679.2</ele>
        <time>2024-08-14T08:00:25Z</time>
      </trkpt>
      <trkpt lat="44.90402" lon="6.08126">
        <ele>1679</ele>
        <time>2024-08-14T08:00:26Z</time>
      </trkpt>
      <trkpt lat="44.90404" lon="6.08128">
        <ele>1678.8</ele>
        <time>2024-08-14T08:00:27Z</time>
      </trkpt>
      <trkpt lat="44.90404" lon="6.08128">
        <ele>1678.6</ele>
        <time>2024-08-14T08:00:28Z</time>
      </trkpt>
      <trkpt lat="44.90405" lon="6.0813">
        <ele>1678.4</ele>
        <time>2024-08-14T08:00:29Z</time>
      </trkpt>
      <trkpt lat="44.90405" lon="6.0813">
        <ele>1678.2</ele>
        <time>2024-08-14T08:00:30Z</time>
      </trkpt>
      <trkpt lat="44.90405" lon="6.0813">
        <ele>1678</ele>
        <time>2024-08-14T08:00:31Z</time>
      </trkpt>
      <trkpt lat="44.90406" lon="6.08128">
        <ele>1677.6</ele>
        <time>2024-08-14T08:00:32Z</time>
      </trkpt>
      <trkpt lat="44.90406" lon="6.08128">
        <ele>1677.2</ele>
        <time>2024-08-14T08:00:33Z</time>
      </trkpt>
      <trkpt lat="44.90406" lon="6.08126">
        <ele>1677</ele>
        <time>2024-08-14T08:00:34Z</time>
      </trkpt>
      <trkpt lat="44.90406" lon="6.08126">
        <ele>1676.6</ele>
        <time>2024-08-14T08:00:35Z</time>
      </trkpt>
      <trkpt lat="44.90406" lon="6.08123">
        <ele>1676.4</ele>
        <time>2024-08-14T08:00:36Z</time>
      </trkpt>
      <trkpt lat="44.90406" lon="6.08123">
        <ele>1676.2</ele>
        <time>2024-08-14T08:00:37Z</time>
      </trkpt>
      <trkpt lat="44.90405" lon="6.08121">
        <ele>1675.8</ele>
        <time>2024-08-14T08:00:38Z</time>
      </trkpt>
      <trkpt lat="44.90405" lon="6.08121">
        <ele>1675.4</ele>
        <time>2024-08-14T08:00:39Z</time>
      </trkpt>
      <trkpt lat="44.90404" lon="6.08118">
        <ele>1675.2</ele>
        <time>2024-08-14T08:00:40Z</time>
      </trkpt>
      <trkpt lat="44.90404" lon="6.08118">
        <ele>1675</ele>
        <time>2024-08-14T08:00:41Z</time>
      </trkpt>
      <trkpt lat="44.90403" lon="6.08115">
        <ele>1674.8</ele>
        <time>2024-08-14T08:00:42Z</time>
      </trkpt>
      <trkpt lat="44.90403" lon="6.08115">
        <ele>1674.4</ele>
        <time>2024-08-14T08:00:43Z</time>
      </trkpt>
      <trkpt lat="44.90403" lon="6.08112">
        <ele>1674</ele>
        <time>2024-08-14T08:00:44Z</time>
      </trkpt>
      <trkpt lat="44.90403" lon="6.08112">
        <ele>1673.6</ele>
        <time>2024-08-14T08:00:45Z</time>
      </trkpt>
      <trkpt lat="44.90403" lon="6.08109">
        <ele>1673.2</ele>
        <time>2024-08-14T08:00:46Z</time>
      </trkpt>
      <trkpt lat="44.90403" lon="6.08109">
        <ele>1673</ele>
        <time>2024-08-14T08:00:47Z</time>
      </trkpt>
      <trkpt lat="44.90404" lon="6.08106">
        <ele>1672.8</ele>
        <time>2024-08-14T08:00:48Z</time>
      </trkpt>
      <trkpt lat="44.90404" lon="6.08106">
        <ele>1672.4</ele>
        <time>2024-08-14T08:00:49Z</time>
      </trkpt>
      <trkpt lat="44.90404" lon="6.08106">
        <ele>1672</ele>
        <time>2024-08-14T08:00:50Z</time>
      </trkpt>
      <trkpt lat="44.90404" lon="6.08106">
        <ele>1671.6</ele>
        <time>2024-08-14T08:00:51Z</time>
      </trkpt>
      <trkpt lat="44.90406" lon="6.08107">
        <ele>1671.2</ele>
        <time>2024-08-14T08:00:52Z</time>
      </trkpt>
      <trkpt lat="44.90406" lon="6.08107">
        <ele>1670.8</ele>
        <time>2024-08-14T08:00:53Z</time>
      </trkpt>
      <trkpt lat="44.90409" lon="6.08109">
        <ele>1670.6</ele>
        <time>2024-08-14T08:00:54Z</time>
      </trkpt>
      <trkpt lat="44.90411" lon="6.0811">
        <ele>1670.4</ele>
        <time>2024-08-14T08:00:55Z</time>
      </trkpt>
      <trkpt lat="44.90411" lon="6.0811">
        <ele>1670</ele>
        <time>2024-08-14T08:00:56Z</time>
      </trkpt>
      <trkpt lat="44.90413" lon="6.08112">
        <ele>1669.8</ele>
        <time>2024-08-14T08:00:57Z</time>
      </trkpt>
      <trkpt lat="44.90413" lon="6.08112">
        <ele>1669.6</ele>
        <time>2024-08-14T08:00:58Z</time>
      </trkpt>
      <trkpt lat="44.90414" lon="6.08114">
        <ele>1669.4</ele>
        <time>2024-08-14T08:00:59Z</time>
      </trkpt>
      <trkpt lat="44.90414" lon="6.08114">
        <ele>1669</ele>
        <time>2024-08-14T08:01:00Z</time>
      </trkpt>
      <trkpt lat="44.90417" lon="6.08115">
        <ele>1668.8</ele>
        <time>2024-08-14T08:01:01Z</time>
      </trkpt>
      <trkpt lat="44.90417" lon="6.08115">
        <ele>1668.2</ele>
        <time>2024-08-14T08:01:02Z</time>
      </trkpt>
      <trkpt lat="44.90419" lon="6.08115">
        <ele>1668.2</ele>
        <time>2024-08-14T08:01:03Z</time>
      </trkpt>
      <trkpt lat="44.90419" lon="6.08115">
        <ele>1668.2</ele>
        <time>2024-08-14T08:01:04Z</time>
      </trkpt>
      <trkpt lat="44.90421" lon="6.08116">
        <ele>1668</ele>
        <time>2024-08-14T08:01:05Z</time>
      </trkpt>
      <trkpt lat="44.90421" lon="6.08116">
        <ele>1667.6</ele>
        <time>2024-08-14T08:01:06Z</time>
      </trkpt>
      <trkpt lat="44.90421" lon="6.08116">
        <ele>1667.2</ele>
        <time>2024-08-14T08:01:07Z</time>
      </trkpt>
      <trkpt lat="44.90421" lon="6.08116">
        <ele>1667</ele>
        <time>2024-08-14T08:01:08Z</time>
      </trkpt>
      <trkpt lat="44.90421" lon="6.08116">
        <ele>1666.8</ele>
        <time>2024-08-14T08:01:09Z</time>
      </trkpt>
      <trkpt lat="44.9042" lon="6.08114">
        <ele>1666.6</ele>
        <time>2024-08-14T08:01:10Z</time>
      </trkpt>
      <trkpt lat="44.9042" lon="6.08114">
        <ele>1666.2</ele>
        <time>2024-08-14T08:01:11Z</time>
      </trkpt>
      <trkpt lat="44.9042" lon="6.08111">
        <ele>1666</ele>
        <time>2024-08-14T08:01:12Z</time>
      </trkpt>
      <trkpt lat="44.9042" lon="6.08111">
        <ele>1665.8</ele>
        <time>2024-08-14T08:01:13Z</time>
      </trkpt>
      <trkpt lat="44.90418" lon="6.08108">
        <ele>1665.4</ele>
        <time>2024-08-14T08:01:14Z</time>
      </trkpt>
      <trkpt lat="44.90418" lon="6.08108">
        <ele>1665</ele>
        <time>2024-08-14T08:01:15Z</time>
      </trkpt>
      <trkpt lat="44.90418" lon="6.08105">
        <ele>1664.8</ele>
        <time>2024-08-14T08:01:16Z</time>
      </trkpt>
      <trkpt lat="44.90418" lon="6.08105">
        <ele>1664.4</ele>
        <time>2024-08-14T08:01:17Z</time>
      </trkpt>
      <trkpt lat="44.90418" lon="6.08102">
        <ele>1664.2</ele>
        <time>2024-08-14T08:01:18Z</time>
      </trkpt>
      <trkpt lat="44.90418" lon="6.08102">
        <ele>1663.8</ele>
        <time>2024-08-14T08:01:19Z</time>
      </trkpt>
      <trkpt lat="44.90416" lon="6.08099">
        <ele>1663.6</ele>
        <time>2024-08-14T08:01:20Z</time>
      </trkpt>
      <trkpt lat="44.90416" lon="6.08099">
        <ele>1663.6</ele>
        <time>2024-08-14T08:01:21Z</time>
      </trkpt>
      <trkpt lat="44.90416" lon="6.08096">
        <ele>1663.6</ele>
        <time>2024-08-14T08:01:22Z</time>
      </trkpt>
      <trkpt lat="44.90416" lon="6.08096">
        <ele>1663.4</ele>
        <time>2024-08-14T08:01:23Z</time>
      </trkpt>
      <trkpt lat="44.90416" lon="6.08093">
        <ele>1662.6</ele>
        <time>2024-08-14T08:01:24Z</time>
      </trkpt>
      <trkpt lat="44.90416" lon="6.08093">
        <ele>1662.4</ele>
        <time>2024-08-14T08:01:25Z</time>
      </trkpt>
      <trkpt lat="44.90415" lon="6.08089">
        <ele>1662</ele>
        <time>2024-08-14T08:01:26Z</time>
      </trkpt>
      <trkpt lat="44.90415" lon="6.08089">
        <ele>1662</ele>
        <time>2024-08-14T08:01:27Z</time>
      </trkpt>
      <trkpt lat="44.90415" lon="6.08087">
        <ele>1661.8</ele>
        <time>2024-08-14T08:01:28Z</time>
      </trkpt>
      <trkpt lat="44.90415" lon="6.08087">
        <ele>1661.4</ele>
        <time>2024-08-14T08:01:29Z</time>
      </trkpt>
      <trkpt lat="44.90414" lon="6.08083">
        <ele>1661.2</ele>
        <time>2024-08-14T08:01:30Z</time>
      </trkpt>
      <trkpt lat="44.90414" lon="6.08083">
        <ele>1661</ele>
        <time>2024-08-14T08:01:31Z</time>
      </trkpt>
      <trkpt lat="44.90413" lon="6.0808">
        <ele>1660.8</ele>
        <time>2024-08-14T08:01:32Z</time>
      </trkpt>
      <trkpt lat="44.90413" lon="6.0808">
        <ele>1660.4</ele>
        <time>2024-08-14T08:01:33Z</time>
      </trkpt>
      <trkpt lat="44.90413" lon="6.08078">
        <ele>1660.2</ele>
        <time>2024-08-14T08:01:34Z</time>
      </trkpt>
      <trkpt lat="44.90413" lon="6.08078">
        <ele>1660</ele>
        <time>2024-08-14T08:01:35Z</time>
      </trkpt>
      <trkpt lat="44.90414" lon="6.08075">
        <ele>1659.8</ele>
        <time>2024-08-14T08:01:36Z</time>
      </trkpt>
      <trkpt lat="44.90414" lon="6.08075">
        <ele>1659.6</ele>
        <time>2024-08-14T08:01:37Z</time>
      </trkpt>
      <trkpt lat="44.90416" lon="6.08076">
        <ele>1659.2</ele>
        <time>2024-08-14T08:01:38Z</time>
      </trkpt>
      <trkpt lat="44.90416" lon="6.08076">
        <ele>1659</ele>
        <time>2024-08-14T08:01:39Z</time>
      </trkpt>
      <trkpt lat="44.90418" lon="6.08077">
        <ele>1658.8</ele>
        <time>2024-08-14T08:01:40Z</time>
      </trkpt>
      <trkpt lat="44.90418" lon="6.08077">
        <ele>1658.6</ele>
        <time>2024-08-14T08:01:41Z</time>
      </trkpt>
      <trkpt lat="44.9042" lon="6.08079">
        <ele>1658</ele>
        <time>2024-08-14T08:01:42Z</time>
      </trkpt>
      <trkpt lat="44.9042" lon="6.08079">
        <ele>1657.8</ele>
        <time>2024-08-14T08:01:43Z</time>
      </trkpt>
      <trkpt lat="44.90422" lon="6.0808">
        <ele>1657.4</ele>
        <time>2024-08-14T08:01:44Z</time>
      </trkpt>
      <trkpt lat="44.90422" lon="6.0808">
        <ele>1657.4</ele>
        <time>2024-08-14T08:01:45Z</time>
      </trkpt>
      <trkpt lat="44.90424" lon="6.08082">
        <ele>1656.8</ele>
        <time>2024-08-14T08:01:46Z</time>
      </trkpt>
      <trkpt lat="44.90424" lon="6.08082">
        <ele>1656.4</ele>
        <time>2024-08-14T08:01:47Z</time>
      </trkpt>
      <trkpt lat="44.90426" lon="6.08083">
        <ele>1656</ele>
        <time>2024-08-14T08:01:48Z</time>
      </trkpt>
      <trkpt lat="44.90426" lon="6.08083">
        <ele>1655.8</ele>
        <time>2024-08-14T08:01:49Z</time>
      </trkpt>
      <trkpt lat="44.90428" lon="6.08085">
        <ele>1655.6</ele>
        <time>2024-08-14T08:01:50Z</time>
      </trkpt>
      <trkpt lat="44.90428" lon="6.08085">
        <ele>1655.2</ele>
        <time>2024-08-14T08:01:51Z</time>
      </trkpt>
      <trkpt lat="44.9043" lon="6.08086">
        <ele>1655</ele>
        <time>2024-08-14T08:01:52Z</time>
      </trkpt>
      <trkpt lat="44.9043" lon="6.08086">
        <ele>1654.8</ele>
        <time>2024-08-14T08:01:53Z</time>
      </trkpt>
      <trkpt lat="44.90432" lon="6.08088">
        <ele>1654.4</ele>
        <time>2024-08-14T08:01:54Z</time>
      </trkpt>
      <trkpt lat="44.90432" lon="6.08088">
        <ele>1654</ele>
        <time>2024-08-14T08:01:55Z</time>
      </trkpt>
      <trkpt lat="44.90434" lon="6.0809">
        <ele>1654</ele>
        <time>2024-08-14T08:01:56Z</time>
      </trkpt>
      <trkpt lat="44.90434" lon="6.0809">
        <ele>1654</ele>
        <time>2024-08-14T08:01:57Z</time>
      </trkpt>
      <trkpt lat="44.90436" lon="6.08092">
        <ele>1653.6</ele>
        <time>2024-08-14T08:01:58Z</time>
      </trkpt>
      <trkpt lat="44.90436" lon="6.08092">
        <ele>1653.4</ele>
        <time>2024-08-14T08:01:59Z</time>
      </trkpt>
      <trkpt lat="44.90438" lon="6.08094">
        <ele>1653.4</ele>
        <time>2024-08-14T08:02:00Z</time>
      </trkpt>
      <trkpt lat="44.90438" lon="6.08094">
        <ele>1653.4</ele>
        <time>2024-08-14T08:02:01Z</time>
      </trkpt>
      <trkpt lat="44.9044" lon="6.08096">
        <ele>1652.2</ele>
        <time>2024-08-14T08:02:02Z</time>
      </trkpt>
      <trkpt lat="44.9044" lon="6.08096">
        <ele>1652.2</ele>
        <time>2024-08-14T08:02:03Z</time>
      </trkpt>
      <trkpt lat="44.90442" lon="6.08098">
        <ele>1652.2</ele>
        <time>2024-08-14T08:02:04Z</time>
      </trkpt>
      <trkpt lat="44.90442" lon="6.08098">
        <ele>1652</ele>
        <time>2024-08-14T08:02:05Z</time>
      </trkpt>
      <trkpt lat="44.90444" lon="6.081">
        <ele>1651.8</ele>
        <time>2024-08-14T08:02:06Z</time>
      </trkpt>
      <trkpt lat="44.90444" lon="6.081">
        <ele>1651.8</ele>
        <time>2024-08-14T08:02:07Z</time>
      </trkpt>
      <trkpt lat="44.90444" lon="6.081">
        <ele>1651.6</ele>
        <time>2024-08-14T08:02:08Z</time>
      </trkpt>
      <trkpt lat="44.90444" lon="6.081">
        <ele>1651.4</ele>
        <time>2024-08-14T08:02:09Z</time>
      </trkpt>
      <trkpt lat="44.90444" lon="6.081">
        <ele>1651.2</ele>
        <time>2024-08-14T08:02:10Z</time>
      </trkpt>
      <trkpt lat="44.90444" lon="6.08097">
        <ele>1651</ele>
        <time>2024-08-14T08:02:11Z</time>
      </trkpt>
      <trkpt lat="44.90444" lon="6.08097">
        <ele>1651</ele>
        <time>2024-08-14T08:02:12Z</time>
      </trkpt>
      <trkpt lat="44.90442" lon="6.08094">
        <ele>1650.6</ele>
        <time>2024-08-14T08:02:13Z</time>
      </trkpt>
      <trkpt lat="44.90442" lon="6.08094">
        <ele>1650.2</ele>
        <time>2024-08-14T08:02:14Z</time>
      </trkpt>
      <trkpt lat="44.90442" lon="6.08091">
        <ele>1649.8</ele>
        <time>2024-08-14T08:02:15Z</time>
      </trkpt>
      <trkpt lat="44.90442" lon="6.08091">
        <ele>1649.6</ele>
        <time>2024-08-14T08:02:16Z</time>
      </trkpt>
      <trkpt lat="44.90441" lon="6.08088">
        <ele>1649.4</ele>
        <time>2024-08-14T08:02:17Z</time>
      </trkpt>
      <trkpt lat="44.90441" lon="6.08088">
        <ele>1649.2</ele>
        <time>2024-08-14T08:02:18Z</time>
      </trkpt>
      <trkpt lat="44.9044" lon="6.08085">
        <ele>1648.8</ele>
        <time>2024-08-14T08:02:19Z</time>
      </trkpt>
      <trkpt lat="44.9044" lon="6.08085">
        <ele>1648.4</ele>
        <time>2024-08-14T08:02:20Z</time>
      </trkpt>
      <trkpt lat="44.90441" lon="6.08082">
        <ele>1648.2</ele>
        <time>2024-08-14T08:02:21Z</time>
      </trkpt>
      <trkpt lat="44.90441" lon="6.08082">
        <ele>1648</ele>
        <time>2024-08-14T08:02:22Z</time>
      </trkpt>
      <trkpt lat="44.9044" lon="6.08079">
        <ele>1647.8</ele>
        <time>2024-08-14T08:02:23Z</time>
      </trkpt>
      <trkpt lat="44.9044" lon="6.08079">
        <ele>1647.2</ele>
        <time>2024-08-14T08:02:24Z</time>
      </trkpt>
      <trkpt lat="44.9044" lon="6.08079">
        <ele>1647</ele>
        <time>2024-08-14T08:02:25Z</time>
      </trkpt>
      <trkpt lat="44.9044" lon="6.08075">
        <ele>1647</ele>
        <time>2024-08-14T08:02:26Z</time>
      </trkpt>
      <trkpt lat="44.9044" lon="6.08075">
        <ele>1646.4</ele>
        <time>2024-08-14T08:02:27Z</time>
      </trkpt>
      <trkpt lat="44.90438" lon="6.08072">
        <ele>1646</ele>
        <time>2024-08-14T08:02:28Z</time>
      </trkpt>
      <trkpt lat="44.90438" lon="6.08072">
        <ele>1645.8</ele>
        <time>2024-08-14T08:02:29Z</time>
      </trkpt>
      <trkpt lat="44.90438" lon="6.08069">
        <ele>1645.6</ele>
        <time>2024-08-14T08:02:30Z</time>
      </trkpt>
      <trkpt lat="44.90438" lon="6.08069">
        <ele>1645.2</ele>
        <time>2024-08-14T08:02:31Z</time>
      </trkpt>
      <trkpt lat="44.90437" lon="6.08066">
        <ele>1645</ele>
        <time>2024-08-14T08:02:32Z</time>
      </trkpt>
      <trkpt lat="44.90437" lon="6.08066">
        <ele>1644.6</ele>
        <time>2024-08-14T08:02:33Z</time>
      </trkpt>
      <trkpt lat="44.90436" lon="6.08062">
        <ele>1644.4</ele>
        <time>2024-08-14T08:02:34Z</time>
      </trkpt>
      <trkpt lat="44.90436" lon="6.08062">
        <ele>1644.2</ele>
        <time>2024-08-14T08:02:35Z</time>
      </trkpt>
      <trkpt lat="44.90436" lon="6.08059">
        <ele>1643.8</ele>
        <time>2024-08-14T08:02:36Z</time>
      </trkpt>
      <trkpt lat="44.90436" lon="6.08059">
        <ele>1643.4</ele>
        <time>2024-08-14T08:02:37Z</time>
      </trkpt>
      <trkpt lat="44.90435" lon="6.08056">
        <ele>1643.2</ele>
        <time>2024-08-14T08:02:38Z</time>
      </trkpt>
      <trkpt lat="44.90435" lon="6.08056">
        <ele>1643.2</ele>
        <time>2024-08-14T08:02:39Z</time>
      </trkpt>
      <trkpt lat="44.90435" lon="6.08056">
        <ele>1643</ele>
        <time>2024-08-14T08:02:40Z</time>
      </trkpt>
      <trkpt lat="44.90434" lon="6.08053">
        <ele>1642.8</ele>
        <time>2024-08-14T08:02:41Z</time>
      </trkpt>
      <trkpt lat="44.90434" lon="6.08053">
        <ele>1642.2</ele>
        <time>2024-08-14T08:02:42Z</time>
      </trkpt>
      <trkpt lat="44.90433" lon="6.0805">
        <ele>1642</ele>
        <time>2024-08-14T08:02:43Z</time>
      </trkpt>
      <trkpt lat="44.90433" lon="6.0805">
        <ele>1641.8</ele>
        <time>2024-08-14T08:02:44Z</time>
      </trkpt>
      <trkpt lat="44.90433" lon="6.08047">
        <ele>1641.4</ele>
        <time>2024-08-14T08:02:45Z</time>
      </trkpt>
      <trkpt lat="44.90433" lon="6.08047">
        <ele>1641</ele>
        <time>2024-08-14T08:02:46Z</time>
      </trkpt>
      <trkpt lat="44.90432" lon="6.08044">
        <ele>1640.8</ele>
        <time>2024-08-14T08:02:47Z</time>
      </trkpt>
      <trkpt lat="44.90432" lon="6.08044">
        <ele>1640.4</ele>
        <time>2024-08-14T08:02:48Z</time>
      </trkpt>
      <trkpt lat="44.90431" lon="6.08041">
        <ele>1640.4</ele>
        <time>2024-08-14T08:02:49Z</time>
      </trkpt>
      <trkpt lat="44.90431" lon="6.08041">
        <ele>1640.2</ele>
        <time>2024-08-14T08:02:50Z</time>
      </trkpt>
      <trkpt lat="44.9043" lon="6.08038">
        <ele>1640.2</ele>
        <time>2024-08-14T08:02:51Z</time>
      </trkpt>
      <trkpt lat="44.9043" lon="6.08038">
        <ele>1639.8</ele>
        <time>2024-08-14T08:02:52Z</time>
      </trkpt>
      <trkpt lat="44.9043" lon="6.08035">
        <ele>1639.6</ele>
        <time>2024-08-14T08:02:53Z</time>
      </trkpt>
      <trkpt lat="44.9043" lon="6.08035">
        <ele>1639.2</ele>
        <time>2024-08-14T08:02:54Z</time>
      </trkpt>
      <trkpt lat="44.9043" lon="6.08032">
        <ele>1639</ele>
        <time>2024-08-14T08:02:55Z</time>
      </trkpt>
      <trkpt lat="44.9043" lon="6.08032">
        <ele>1638.6</ele>
        <time>2024-08-14T08:02:56Z</time>
      </trkpt>
      <trkpt lat="44.90432" lon="6.08033">
        <ele>1638.2</ele>
        <time>2024-08-14T08:02:57Z</time>
      </trkpt>
      <trkpt lat="44.90432" lon="6.08033">
        <ele>1638</ele>
        <time>2024-08-14T08:02:58Z</time>
      </trkpt>
      <trkpt lat="44.90434" lon="6.08035">
        <ele>1638</ele>
        <time>2024-08-14T08:02:59Z</time>
      </trkpt>
      <trkpt lat="44.90434" lon="6.08035">
        <ele>1637.6</ele>
        <time>2024-08-14T08:03:00Z</time>
      </trkpt>
      <trkpt lat="44.90436" lon="6.08036">
        <ele>1637.4</ele>
        <time>2024-08-14T08:03:01Z</time>
      </trkpt>
      <trkpt lat="44.90436" lon="6.08036">
        <ele>1636.6</ele>
        <time>2024-08-14T08:03:02Z</time>
      </trkpt>
      <trkpt lat="44.90438" lon="6.08037">
        <ele>1636.6</ele>
        <time>2024-08-14T08:03:03Z</time>
      </trkpt>
      <trkpt lat="44.90438" lon="6.08037">
        <ele>1636.4</ele>
        <time>2024-08-14T08:03:04Z</time>
      </trkpt>
      <trkpt lat="44.9044" lon="6.08038">
        <ele>1636.2</ele>
        <time>2024-08-14T08:03:05Z</time>
      </trkpt>
      <trkpt lat="44.9044" lon="6.08038">
        <ele>1636</ele>
        <time>2024-08-14T08:03:06Z</time>
      </trkpt>
      <trkpt lat="44.90442" lon="6.0804">
        <ele>1636</ele>
        <time>2024-08-14T08:03:07Z</time>
      </trkpt>
      <trkpt lat="44.90442" lon="6.0804">
        <ele>1635.8</ele>
        <time>2024-08-14T08:03:08Z</time>
      </trkpt>
      <trkpt lat="44.90445" lon="6.08041">
        <ele>1635.4</ele>
        <time>2024-08-14T08:03:09Z</time>
      </trkpt>
      <trkpt lat="44.90445" lon="6.08041">
        <ele>1635.4</ele>
        <time>2024-08-14T08:03:10Z</time>
      </trkpt>
      <trkpt lat="44.90447" lon="6.08043">
        <ele>1635.2</ele>
        <time>2024-08-14T08:03:11Z</time>
      </trkpt>
      <trkpt lat="44.90447" lon="6.08043">
        <ele>1634.8</ele>
        <time>2024-08-14T08:03:12Z</time>
      </trkpt>
      <trkpt lat="44.9045" lon="6.08044">
        <ele>1634.6</ele>
        <time>2024-08-14T08:03:13Z</time>
      </trkpt>
      <trkpt lat="44.9045" lon="6.08044">
        <ele>1634.4</ele>
        <time>2024-08-14T08:03:14Z</time>
      </trkpt>
      <trkpt lat="44.90452" lon="6.08046">
        <ele>1634.2</ele>
        <time>2024-08-14T08:03:15Z</time>
      </trkpt>
      <trkpt lat="44.90452" lon="6.08046">
        <ele>1634</ele>
        <time>2024-08-14T08:03:16Z</time>
      </trkpt>
      <trkpt lat="44.90454" lon="6.08048">
        <ele>1634</ele>
        <time>2024-08-14T08:03:17Z</time>
      </trkpt>
      <trkpt lat="44.90454" lon="6.08048">
        <ele>1634</ele>
        <time>2024-08-14T08:03:18Z</time>
      </trkpt>
      <trkpt lat="44.90456" lon="6.0805">
        <ele>1634</ele>
        <time>2024-08-14T08:03:19Z</time>
      </trkpt>
      <trkpt lat="44.90456" lon="6.0805">
        <ele>1633.8</ele>
        <time>2024-08-14T08:03:20Z</time>
      </trkpt>
      <trkpt lat="44.90459" lon="6.08052">
        <ele>1633.6</ele>
        <time>2024-08-14T08:03:21Z</time>
      </trkpt>
      <trkpt lat="44.90459" lon="6.08052">
        <ele>1633.4</ele>
        <time>2024-08-14T08:03:22Z</time>
      </trkpt>
      <trkpt lat="44.90461" lon="6.08054">
        <ele>1633.2</ele>
        <time>2024-08-14T08:03:23Z</time>
      </trkpt>
      <trkpt lat="44.90461" lon="6.08054">
        <ele>1633</ele>
        <time>2024-08-14T08:03:24Z</time>
      </trkpt>
      <trkpt lat="44.90463" lon="6.08056">
        <ele>1633</ele>
        <time>2024-08-14T08:03:25Z</time>
      </trkpt>
      <trkpt lat="44.90463" lon="6.08056">
        <ele>1632.8</ele>
        <time>2024-08-14T08:03:26Z</time>
      </trkpt>
      <trkpt lat="44.90465" lon="6.08057">
        <ele>1632.6</ele>
        <time>2024-08-14T08:03:27Z</time>
      </trkpt>
      <trkpt lat="44.90465" lon="6.08057">
        <ele>1632.4</ele>
        <time>2024-08-14T08:03:28Z</time>
      </trkpt>
      <trkpt lat="44.90466" lon="6.08059">
        <ele>1632</ele>
        <time>2024-08-14T08:03:29Z</time>
      </trkpt>
      <trkpt lat="44.90466" lon="6.08059">
        <ele>1631.8</ele>
        <time>2024-08-14T08:03:30Z</time>
      </trkpt>
      <trkpt lat="44.90469" lon="6.0806">
        <ele>1631.4</ele>
        <time>2024-08-14T08:03:31Z</time>
      </trkpt>
      <trkpt lat="44.90469" lon="6.0806">
        <ele>1631.2</ele>
        <time>2024-08-14T08:03:32Z</time>
      </trkpt>
      <trkpt lat="44.90471" lon="6.08062">
        <ele>1630.8</ele>
        <time>2024-08-14T08:03:33Z</time>
      </trkpt>
      <trkpt lat="44.90471" lon="6.08062">
        <ele>1630.6</ele>
        <time>2024-08-14T08:03:34Z</time>
      </trkpt>
      <trkpt lat="44.90471" lon="6.08062">
        <ele>1630.6</ele>
        <time>2024-08-14T08:03:35Z</time>
      </trkpt>
      <trkpt lat="44.90471" lon="6.08062">
        <ele>1630.6</ele>
        <time>2024-08-14T08:03:36Z</time>
      </trkpt>
      <trkpt lat="44.90471" lon="6.08062">
        <ele>1630</ele>
        <time>2024-08-14T08:03:37Z</time>
      </trkpt>
      <trkpt lat="44.90471" lon="6.08062">
        <ele>1630</ele>
        <time>2024-08-14T08:03:38Z</time>
      </trkpt>
      <trkpt lat="44.90471" lon="6.08062">
        <ele>1629.6</ele>
        <time>2024-08-14T08:03:39Z</time>
      </trkpt>
      <trkpt lat="44.90471" lon="6.08058">
        <ele>1629.2</ele>
        <time>2024-08-14T08:03:40Z</time>
      </trkpt>
      <trkpt lat="44.90471" lon="6.08058">
        <ele>1629</ele>
        <time>2024-08-14T08:03:41Z</time>
      </trkpt>
      <trkpt lat="44.9047" lon="6.08055">
        <ele>1628.8</ele>
        <time>2024-08-14T08:03:42Z</time>
      </trkpt>
      <trkpt lat="44.9047" lon="6.08055">
        <ele>1628.4</ele>
        <time>2024-08-14T08:03:43Z</time>
      </trkpt>
      <trkpt lat="44.90469" lon="6.08051">
        <ele>1628.2</ele>
        <time>2024-08-14T08:03:44Z</time>
      </trkpt>
      <trkpt lat="44.90469" lon="6.08051">
        <ele>1628</ele>
        <time>2024-08-14T08:03:45Z</time>
      </trkpt>
      <trkpt lat="44.90467" lon="6.08048">
        <ele>1627.6</ele>
        <time>2024-08-14T08:03:46Z</time>
      </trkpt>
      <trkpt lat="44.90467" lon="6.08048">
        <ele>1627.6</ele>
        <time>2024-08-14T08:03:47Z</time>
      </trkpt>
      <trkpt lat="44.90466" lon="6.08045">
        <ele>1627.6</ele>
        <time>2024-08-14T08:03:48Z</time>
      </trkpt>
      <trkpt lat="44.90466" lon="6.08045">
        <ele>1627.6</ele>
        <time>2024-08-14T08:03:49Z</time>
      </trkpt>
      <trkpt lat="44.90465" lon="6.08042">
        <ele>1627.6</ele>
        <time>2024-08-14T08:03:50Z</time>
      </trkpt>
      <trkpt lat="44.90465" lon="6.08042">
        <ele>1627.2</ele>
        <time>2024-08-14T08:03:51Z</time>
      </trkpt>
      <trkpt lat="44.90464" lon="6.08038">
        <ele>1627</ele>
        <time>2024-08-14T08:03:52Z</time>
      </trkpt>
      <trkpt lat="44.90464" lon="6.08038">
        <ele>1626.8</ele>
        <time>2024-08-14T08:03:53Z</time>
      </trkpt>
      <trkpt lat="44.90462" lon="6.08036">
        <ele>1626.4</ele>
        <time>2024-08-14T08:03:54Z</time>
      </trkpt>
      <trkpt lat="44.90462" lon="6.08036">
        <ele>1626.2</ele>
        <time>2024-08-14T08:03:55Z</time>
      </trkpt>
      <trkpt lat="44.90461" lon="6.08033">
        <ele>1626.2</ele>
        <time>2024-08-14T08:03:56Z</time>
      </trkpt>
      <trkpt lat="44.90461" lon="6.08033">
        <ele>1625.8</ele>
        <time>2024-08-14T08:03:57Z</time>
      </trkpt>
      <trkpt lat="44.9046" lon="6.08031">
        <ele>1625.8</ele>
        <time>2024-08-14T08:03:58Z</time>
      </trkpt>
      <trkpt lat="44.9046" lon="6.08031">
        <ele>1625.4</ele>
        <time>2024-08-14T08:03:59Z</time>
      </trkpt>
      <trkpt lat="44.90459" lon="6.08028">
        <ele>1625.4</ele>
        <time>2024-08-14T08:04:00Z</time>
      </trkpt>
      <trkpt lat="44.90459" lon="6.08028">
        <ele>1625</ele>
        <time>2024-08-14T08:04:01Z</time>
      </trkpt>
      <trkpt lat="44.90457" lon="6.08025">
        <ele>1624.6</ele>
        <time>2024-08-14T08:04:02Z</time>
      </trkpt>
      <trkpt lat="44.90457" lon="6.08025">
        <ele>1624.6</ele>
        <time>2024-08-14T08:04:03Z</time>
      </trkpt>
      <trkpt lat="44.90456" lon="6.08022">
        <ele>1624.2</ele>
        <time>2024-08-14T08:04:04Z</time>
      </trkpt>
      <trkpt lat="44.90456" lon="6.08022">
        <ele>1624</ele>
        <time>2024-08-14T08:04:05Z</time>
      </trkpt>
      <trkpt lat="44.90456" lon="6.0802">
        <ele>1623.6</ele>
        <time>2024-08-14T08:04:06Z</time>
      </trkpt>
      <trkpt lat="44.90456" lon="6.0802">
        <ele>1623.4</ele>
        <time>2024-08-14T08:04:07Z</time>
      </trkpt>
      <trkpt lat="44.90454" lon="6.08017">
        <ele>1623</ele>
        <time>2024-08-14T08:04:08Z</time>
      </trkpt>
      <trkpt lat="44.90454" lon="6.08017">
        <ele>1622.6</ele>
        <time>2024-08-14T08:04:09Z</time>
      </trkpt>
      <trkpt lat="44.90454" lon="6.08017">
        <ele>1622.6</ele>
        <time>2024-08-14T08:04:10Z</time>
      </trkpt>
      <trkpt lat="44.90456" lon="6.08015">
        <ele>1622.6</ele>
        <time>2024-08-14T08:04:11Z</time>
      </trkpt>
      <trkpt lat="44.90456" lon="6.08015">
        <ele>1622.2</ele>
        <time>2024-08-14T08:04:12Z</time>
      </trkpt>
      <trkpt lat="44.90459" lon="6.08016">
        <ele>1622.2</ele>
        <time>2024-08-14T08:04:13Z</time>
      </trkpt>
      <trkpt lat="44.90459" lon="6.08016">
        <ele>1621.8</ele>
        <time>2024-08-14T08:04:14Z</time>
      </trkpt>
      <trkpt lat="44.90462" lon="6.08017">
        <ele>1621.6</ele>
        <time>2024-08-14T08:04:15Z</time>
      </trkpt>
      <trkpt lat="44.90462" lon="6.08017">
        <ele>1621.2</ele>
        <time>2024-08-14T08:04:16Z</time>
      </trkpt>
      <trkpt lat="44.90464" lon="6.08018">
        <ele>1621</ele>
        <time>2024-08-14T08:04:17Z</time>
      </trkpt>
      <trkpt lat="44.90464" lon="6.08018">
        <ele>1621</ele>
        <time>2024-08-14T08:04:18Z</time>
      </trkpt>
      <trkpt lat="44.90466" lon="6.0802">
        <ele>1620.8</ele>
        <time>2024-08-14T08:04:19Z</time>
      </trkpt>
      <trkpt lat="44.90466" lon="6.0802">
        <ele>1620.8</ele>
        <time>2024-08-14T08:04:20Z</time>
      </trkpt>
      <trkpt lat="44.90469" lon="6.08021">
        <ele>1620.4</ele>
        <time>2024-08-14T08:04:21Z</time>
      </trkpt>
      <trkpt lat="44.90469" lon="6.08021">
        <ele>1620.2</ele>
        <time>2024-08-14T08:04:22Z</time>
      </trkpt>
      <trkpt lat="44.90471" lon="6.08023">
        <ele>1620.2</ele>
        <time>2024-08-14T08:04:23Z</time>
      </trkpt>
      <trkpt lat="44.90471" lon="6.08023">
        <ele>1620</ele>
        <time>2024-08-14T08:04:24Z</time>
      </trkpt>
      <trkpt lat="44.90474" lon="6.08024">
        <ele>1620</ele>
        <time>2024-08-14T08:04:25Z</time>
      </trkpt>
      <trkpt lat="44.90474" lon="6.08024">
        <ele>1619.8</ele>
        <time>2024-08-14T08:04:26Z</time>
      </trkpt>
      <trkpt lat="44.90476" lon="6.08026">
        <ele>1619.6</ele>
        <time>2024-08-14T08:04:27Z</time>
      </trkpt>
      <trkpt lat="44.90476" lon="6.08026">
        <ele>1619.2</ele>
        <time>2024-08-14T08:04:28Z</time>
      </trkpt>
      <trkpt lat="44.90478" lon="6.08027">
        <ele>1619.2</ele>
        <time>2024-08-14T08:04:29Z</time>
      </trkpt>
      <trkpt lat="44.90478" lon="6.08027">
        <ele>1619.2</ele>
        <time>2024-08-14T08:04:30Z</time>
      </trkpt>
      <trkpt lat="44.9048" lon="6.08029">
        <ele>1619.2</ele>
        <time>2024-08-14T08:04:31Z</time>
      </trkpt>
      <trkpt lat="44.9048" lon="6.08029">
        <ele>1618.6</ele>
        <time>2024-08-14T08:04:32Z</time>
      </trkpt>
      <trkpt lat="44.90483" lon="6.08031">
        <ele>1618.2</ele>
        <time>2024-08-14T08:04:33Z</time>
      </trkpt>
      <trkpt lat="44.90483" lon="6.08031">
        <ele>1618.2</ele>
        <time>2024-08-14T08:04:34Z</time>
      </trkpt>
      <trkpt lat="44.90485" lon="6.08033">
        <ele>1618</ele>
        <time>2024-08-14T08:04:35Z</time>
      </trkpt>
      <trkpt lat="44.90485" lon="6.08033">
        <ele>1617.8</ele>
        <time>2024-08-14T08:04:36Z</time>
      </trkpt>
      <trkpt lat="44.90488" lon="6.08035">
        <ele>1617.8</ele>
        <time>2024-08-14T08:04:37Z</time>
      </trkpt>
      <trkpt lat="44.90488" lon="6.08035">
        <ele>1617.6</ele>
        <time>2024-08-14T08:04:38Z</time>
      </trkpt>
      <trkpt lat="44.90489" lon="6.08037">
        <ele>1617.6</ele>
        <time>2024-08-14T08:04:39Z</time>
      </trkpt>
      <trkpt lat="44.90489" lon="6.08037">
        <ele>1617.2</ele>
        <time>2024-08-14T08:04:40Z</time>
      </trkpt>
      <trkpt lat="44.90489" lon="6.08037">
        <ele>1617.2</ele>
        <time>2024-08-14T08:04:41Z</time>
      </trkpt>
      <trkpt lat="44.90489" lon="6.08037">
        <ele>1617.2</ele>
        <time>2024-08-14T08:04:42Z</time>
      </trkpt>
      <trkpt lat="44.90488" lon="6.08033">
        <ele>1616.8</ele>
        <time>2024-08-14T08:04:43Z</time>
      </trkpt>
      <trkpt lat="44.90488" lon="6.08033">
        <ele>1616.6</ele>
        <time>2024-08-14T08:04:44Z</time>
      </trkpt>
      <trkpt lat="44.90488" lon="6.0803">
        <ele>1616.4</ele>
        <time>2024-08-14T08:04:45Z</time>
      </trkpt>
      <trkpt lat="44.90488" lon="6.0803">
        <ele>1616.2</ele>
        <time>2024-08-14T08:04:46Z</time>
      </trkpt>
      <trkpt lat="44.90487" lon="6.08027">
        <ele>1615.8</ele>
        <time>2024-08-14T08:04:47Z</time>
      </trkpt>
      <trkpt lat="44.90487" lon="6.08027">
        <ele>1615.6</ele>
        <time>2024-08-14T08:04:48Z</time>
      </trkpt>
      <trkpt lat="44.90486" lon="6.08024">
        <ele>1615.2</ele>
        <time>2024-08-14T08:04:49Z</time>
      </trkpt>
      <trkpt lat="44.90486" lon="6.08024">
        <ele>1615</ele>
        <time>2024-08-14T08:04:50Z</time>
      </trkpt>
      <trkpt lat="44.90485" lon="6.08021">
        <ele>1614.6</ele>
        <time>2024-08-14T08:04:51Z</time>
      </trkpt>
      <trkpt lat="44.90485" lon="6.08021">
        <ele>1614.4</ele>
        <time>2024-08-14T08:04:52Z</time>
      </trkpt>
      <trkpt lat="44.90485" lon="6.08017">
        <ele>1614.2</ele>
        <time>2024-08-14T08:04:53Z</time>
      </trkpt>
      <trkpt lat="44.90485" lon="6.08017">
        <ele>1614</ele>
        <time>2024-08-14T08:04:54Z</time>
      </trkpt>
      <trkpt lat="44.90485" lon="6.08015">
        <ele>1613.6</ele>
        <time>2024-08-14T08:04:55Z</time>
      </trkpt>
      <trkpt lat="44.90485" lon="6.08015">
        <ele>1613.2</ele>
        <time>2024-08-14T08:04:56Z</time>
      </trkpt>
      <trkpt lat="44.90485" lon="6.08015">
        <ele>1613</ele>
        <time>2024-08-14T08:04:57Z</time>
      </trkpt>
      <trkpt lat="44.90487" lon="6.08015">
        <ele>1612.6</ele>
        <time>2024-08-14T08:04:58Z</time>
      </trkpt>
      <trkpt lat="44.90487" lon="6.08015">
        <ele>1612.2</ele>
        <time>2024-08-14T08:04:59Z</time>
      </trkpt>
      <trkpt lat="44.90489" lon="6.08017">
        <ele>1612</ele>
        <time>2024-08-14T08:05:00Z</time>
      </trkpt>
      <trkpt lat="44.90489" lon="6.08017">
        <ele>1612</ele>
        <time>2024-08-14T08:05:01Z</time>
      </trkpt>
      <trkpt lat="44.90491" lon="6.08018">
        <ele>1612</ele>
        <time>2024-08-14T08:05:02Z</time>
      </trkpt>
      <trkpt lat="44.90491" lon="6.08018">
        <ele>1611.6</ele>
        <time>2024-08-14T08:05:03Z</time>
      </trkpt>
      <trkpt lat="44.90494" lon="6.08019">
        <ele>1611.4</ele>
        <time>2024-08-14T08:05:04Z</time>
      </trkpt>
      <trkpt lat="44.90494" lon="6.08019">
        <ele>1611.2</ele>
        <time>2024-08-14T08:05:05Z</time>
      </trkpt>
      <trkpt lat="44.90496" lon="6.0802">
        <ele>1611.2</ele>
        <time>2024-08-14T08:05:06Z</time>
      </trkpt>
      <trkpt lat="44.90496" lon="6.0802">
        <ele>1611.2</ele>
        <time>2024-08-14T08:05:07Z</time>
      </trkpt>
      <trkpt lat="44.90496" lon="6.0802">
        <ele>1610.8</ele>
        <time>2024-08-14T08:05:08Z</time>
      </trkpt>
      <trkpt lat="44.90496" lon="6.0802">
        <ele>1610.6</ele>
        <time>2024-08-14T08:05:09Z</time>
      </trkpt>
      <trkpt lat="44.90496" lon="6.08017">
        <ele>1610.6</ele>
        <time>2024-08-14T08:05:10Z</time>
      </trkpt>
      <trkpt lat="44.90496" lon="6.08017">
        <ele>1610.4</ele>
        <time>2024-08-14T08:05:11Z</time>
      </trkpt>
      <trkpt lat="44.90496" lon="6.08017">
        <ele>1610</ele>
        <time>2024-08-14T08:05:12Z</time>
      </trkpt>
      <trkpt lat="44.90494" lon="6.08014">
        <ele>1609.8</ele>
        <time>2024-08-14T08:05:13Z</time>
      </trkpt>
      <trkpt lat="44.90494" lon="6.08014">
        <ele>1609.2</ele>
        <time>2024-08-14T08:05:14Z</time>
      </trkpt>
      <trkpt lat="44.90493" lon="6.08011">
        <ele>1609</ele>
        <time>2024-08-14T08:05:15Z</time>
      </trkpt>
      <trkpt lat="44.90493" lon="6.08011">
        <ele>1608.8</ele>
        <time>2024-08-14T08:05:16Z</time>
      </trkpt>
      <trkpt lat="44.90492" lon="6.08008">
        <ele>1608.4</ele>
        <time>2024-08-14T08:05:17Z</time>
      </trkpt>
      <trkpt lat="44.90492" lon="6.08008">
        <ele>1608.2</ele>
        <time>2024-08-14T08:05:18Z</time>
      </trkpt>
      <trkpt lat="44.90491" lon="6.08005">
        <ele>1608.2</ele>
        <time>2024-08-14T08:05:19Z</time>
      </trkpt>
      <trkpt lat="44.90491" lon="6.08005">
        <ele>1607.8</ele>
        <time>2024-08-14T08:05:20Z</time>
      </trkpt>
      <trkpt lat="44.9049" lon="6.08002">
        <ele>1607.6</ele>
        <time>2024-08-14T08:05:21Z</time>
      </trkpt>
      <trkpt lat="44.9049" lon="6.08002">
        <ele>1607.6</ele>
        <time>2024-08-14T08:05:22Z</time>
      </trkpt>
      <trkpt lat="44.90488" lon="6.07999">
        <ele>1607.6</ele>
        <time>2024-08-14T08:05:23Z</time>
      </trkpt>
      <trkpt lat="44.90488" lon="6.07999">
        <ele>1607.2</ele>
        <time>2024-08-14T08:05:24Z</time>
      </trkpt>
      <trkpt lat="44.90487" lon="6.07996">
        <ele>1606.8</ele>
        <time>2024-08-14T08:05:25Z</time>
      </trkpt>
      <trkpt lat="44.90487" lon="6.07996">
        <ele>1606.8</ele>
        <time>2024-08-14T08:05:26Z</time>
      </trkpt>
      <trkpt lat="44.90486" lon="6.07994">
        <ele>1606.4</ele>
        <time>2024-08-14T08:05:27Z</time>
      </trkpt>
      <trkpt lat="44.90486" lon="6.07994">
        <ele>1606.2</ele>
        <time>2024-08-14T08:05:28Z</time>
      </trkpt>
      <trkpt lat="44.90485" lon="6.07991">
        <ele>1606.2</ele>
        <time>2024-08-14T08:05:29Z</time>
      </trkpt>
      <trkpt lat="44.90485" lon="6.07991">
        <ele>1605.8</ele>
        <time>2024-08-14T08:05:30Z</time>
      </trkpt>
      <trkpt lat="44.90484" lon="6.07988">
        <ele>1605.4</ele>
        <time>2024-08-14T08:05:31Z</time>
      </trkpt>
      <trkpt lat="44.90484" lon="6.07988">
        <ele>1605.2</ele>
        <time>2024-08-14T08:05:32Z</time>
      </trkpt>
      <trkpt lat="44.90483" lon="6.07986">
        <ele>1605.2</ele>
        <time>2024-08-14T08:05:33Z</time>
      </trkpt>
      <trkpt lat="44.90483" lon="6.07986">
        <ele>1605</ele>
        <time>2024-08-14T08:05:34Z</time>
      </trkpt>
      <trkpt lat="44.90483" lon="6.07986">
        <ele>1604.6</ele>
        <time>2024-08-14T08:05:35Z</time>
      </trkpt>
      <trkpt lat="44.90482" lon="6.07983">
        <ele>1604.2</ele>
        <time>2024-08-14T08:05:36Z</time>
      </trkpt>
      <trkpt lat="44.90482" lon="6.07983">
        <ele>1604.2</ele>
        <time>2024-08-14T08:05:37Z</time>
      </trkpt>
      <trkpt lat="44.90482" lon="6.0798">
        <ele>1604</ele>
        <time>2024-08-14T08:05:38Z</time>
      </trkpt>
      <trkpt lat="44.90482" lon="6.0798">
        <ele>1603.6</ele>
        <time>2024-08-14T08:05:39Z</time>
      </trkpt>
      <trkpt lat="44.9048" lon="6.07978">
        <ele>1603.2</ele>
        <time>2024-08-14T08:05:40Z</time>
      </trkpt>
      <trkpt lat="44.9048" lon="6.07978">
        <ele>1602.8</ele>
        <time>2024-08-14T08:05:41Z</time>
      </trkpt>
      <trkpt lat="44.9048" lon="6.07978">
        <ele>1602.8</ele>
        <time>2024-08-14T08:05:42Z</time>
      </trkpt>
      <trkpt lat="44.9048" lon="6.07975">
        <ele>1602.8</ele>
        <time>2024-08-14T08:05:43Z</time>
      </trkpt>
      <trkpt lat="44.9048" lon="6.07975">
        <ele>1602.8</ele>
        <time>2024-08-14T08:05:44Z</time>
      </trkpt>
      <trkpt lat="44.90479" lon="6.07972">
        <ele>1602.6</ele>
        <time>2024-08-14T08:05:45Z</time>
      </trkpt>
      <trkpt lat="44.90479" lon="6.07972">
        <ele>1602.4</ele>
        <time>2024-08-14T08:05:46Z</time>
      </trkpt>
      <trkpt lat="44.90478" lon="6.07969">
        <ele>1602</ele>
        <time>2024-08-14T08:05:47Z</time>
      </trkpt>
      <trkpt lat="44.90478" lon="6.07969">
        <ele>1601.8</ele>
        <time>2024-08-14T08:05:48Z</time>
      </trkpt>
      <trkpt lat="44.90477" lon="6.07967">
        <ele>1601.6</ele>
        <time>2024-08-14T08:05:49Z</time>
      </trkpt>
      <trkpt lat="44.90477" lon="6.07967">
        <ele>1601.4</ele>
        <time>2024-08-14T08:05:50Z</time>
      </trkpt>
      <trkpt lat="44.90477" lon="6.07967">
        <ele>1601.4</ele>
        <time>2024-08-14T08:05:51Z</time>
      </trkpt>
      <trkpt lat="44.90476" lon="6.07964">
        <ele>1601.4</ele>
        <time>2024-08-14T08:05:52Z</time>
      </trkpt>
      <trkpt lat="44.90476" lon="6.07964">
        <ele>1601</ele>
        <time>2024-08-14T08:05:53Z</time>
      </trkpt>
      <trkpt lat="44.90474" lon="6.07961">
        <ele>1600.6</ele>
        <time>2024-08-14T08:05:54Z</time>
      </trkpt>
      <trkpt lat="44.90474" lon="6.07961">
        <ele>1600.6</ele>
        <time>2024-08-14T08:05:55Z</time>
      </trkpt>
      <trkpt lat="44.90474" lon="6.07958">
        <ele>1600.6</ele>
        <time>2024-08-14T08:05:56Z</time>
      </trkpt>
      <trkpt lat="44.90474" lon="6.07958">
        <ele>1600.6</ele>
        <time>2024-08-14T08:05:57Z</time>
      </trkpt>
      <trkpt lat="44.90474" lon="6.07958">
        <ele>1600.6</ele>
        <time>2024-08-14T08:05:58Z</time>
      </trkpt>
      <trkpt lat="44.90473" lon="6.07954">
        <ele>1600.6</ele>
        <time>2024-08-14T08:05:59Z</time>
      </trkpt>
      <trkpt lat="44.90473" lon="6.07954">
        <ele>1600.6</ele>
        <time>2024-08-14T08:06:00Z</time>
      </trkpt>
      <trkpt lat="44.90473" lon="6.07954">
        <ele>1600.2</ele>
        <time>2024-08-14T08:06:01Z</time>
      </trkpt>
      <trkpt lat="44.90472" lon="6.07951">
        <ele>1600.2</ele>
        <time>2024-08-14T08:06:02Z</time>
      </trkpt>
      <trkpt lat="44.90472" lon="6.07951">
        <ele>1600</ele>
        <time>2024-08-14T08:06:03Z</time>
      </trkpt>
      <trkpt lat="44.90472" lon="6.07951">
        <ele>1600</ele>
        <time>2024-08-14T08:06:04Z</time>
      </trkpt>
      <trkpt lat="44.90471" lon="6.07947">
        <ele>1599.8</ele>
        <time>2024-08-14T08:06:05Z</time>
      </trkpt>
      <trkpt lat="44.90471" lon="6.07947">
        <ele>1599.6</ele>
        <time>2024-08-14T08:06:06Z</time>
      </trkpt>
      <trkpt lat="44.9047" lon="6.07944">
        <ele>1599.2</ele>
        <time>2024-08-14T08:06:07Z</time>
      </trkpt>
      <trkpt lat="44.9047" lon="6.07944">
        <ele>1599.2</ele>
        <time>2024-08-14T08:06:08Z</time>
      </trkpt>
      <trkpt lat="44.9047" lon="6.07941">
        <ele>1598.8</ele>
        <time>2024-08-14T08:06:09Z</time>
      </trkpt>
      <trkpt lat="44.9047" lon="6.07941">
        <ele>1598.8</ele>
        <time>2024-08-14T08:06:10Z</time>
      </trkpt>
      <trkpt lat="44.9047" lon="6.07938">
        <ele>1598.6</ele>
        <time>2024-08-14T08:06:11Z</time>
      </trkpt>
      <trkpt lat="44.9047" lon="6.07938">
        <ele>1598.4</ele>
        <time>2024-08-14T08:06:12Z</time>
      </trkpt>
      <trkpt lat="44.9047" lon="6.07938">
        <ele>1598.4</ele>
        <time>2024-08-14T08:06:13Z</time>
      </trkpt>
      <trkpt lat="44.90469" lon="6.07935">
        <ele>1598</ele>
        <time>2024-08-14T08:06:14Z</time>
      </trkpt>
      <trkpt lat="44.90469" lon="6.07935">
        <ele>1597.8</ele>
        <time>2024-08-14T08:06:15Z</time>
      </trkpt>
      <trkpt lat="44.90469" lon="6.07932">
        <ele>1597.6</ele>
        <time>2024-08-14T08:06:16Z</time>
      </trkpt>
      <trkpt lat="44.90469" lon="6.07932">
        <ele>1597.4</ele>
        <time>2024-08-14T08:06:17Z</time>
      </trkpt>
      <trkpt lat="44.90469" lon="6.0793">
        <ele>1597</ele>
        <time>2024-08-14T08:06:18Z</time>
      </trkpt>
      <trkpt lat="44.90469" lon="6.0793">
        <ele>1596.6</ele>
        <time>2024-08-14T08:06:19Z</time>
      </trkpt>
      <trkpt lat="44.90469" lon="6.0793">
        <ele>1596.6</ele>
        <time>2024-08-14T08:06:20Z</time>
      </trkpt>
      <trkpt lat="44.90468" lon="6.07925">
        <ele>1596.6</ele>
        <time>2024-08-14T08:06:21Z</time>
      </trkpt>
      <trkpt lat="44.90468" lon="6.07925">
        <ele>1596.4</ele>
        <time>2024-08-14T08:06:22Z</time>
      </trkpt>
      <trkpt lat="44.90466" lon="6.07922">
        <ele>1595.8</ele>
        <time>2024-08-14T08:06:23Z</time>
      </trkpt>
      <trkpt lat="44.90466" lon="6.07922">
        <ele>1595.4</ele>
        <time>2024-08-14T08:06:24Z</time>
      </trkpt>
      <trkpt lat="44.90466" lon="6.07919">
        <ele>1595.2</ele>
        <time>2024-08-14T08:06:25Z</time>
      </trkpt>
      <trkpt lat="44.90466" lon="6.07919">
        <ele>1595</ele>
        <time>2024-08-14T08:06:26Z</time>
      </trkpt>
      <trkpt lat="44.90464" lon="6.07918">
        <ele>1595</ele>
        <time>2024-08-14T08:06:27Z</time>
      </trkpt>
      <trkpt lat="44.90464" lon="6.07918">
        <ele>1594.8</ele>
        <time>2024-08-14T08:06:28Z</time>
      </trkpt>
      <trkpt lat="44.90462" lon="6.07915">
        <ele>1594.8</ele>
        <time>2024-08-14T08:06:29Z</time>
      </trkpt>
      <trkpt lat="44.90462" lon="6.07915">
        <ele>1594.8</ele>
        <time>2024-08-14T08:06:30Z</time>
      </trkpt>
      <trkpt lat="44.90462" lon="6.07915">
        <ele>1594.4</ele>
        <time>2024-08-14T08:06:31Z</time>
      </trkpt>
      <trkpt lat="44.90461" lon="6.07912">
        <ele>1594.2</ele>
        <time>2024-08-14T08:06:32Z</time>
      </trkpt>
      <trkpt lat="44.90461" lon="6.07912">
        <ele>1594.2</ele>
        <time>2024-08-14T08:06:33Z</time>
      </trkpt>
      <trkpt lat="44.90462" lon="6.07908">
        <ele>1594</ele>
        <time>2024-08-14T08:06:34Z</time>
      </trkpt>
      <trkpt lat="44.90462" lon="6.07908">
        <ele>1593.4</ele>
        <time>2024-08-14T08:06:35Z</time>
      </trkpt>
      <trkpt lat="44.90461" lon="6.07906">
        <ele>1593.2</ele>
        <time>2024-08-14T08:06:36Z</time>
      </trkpt>
      <trkpt lat="44.90461" lon="6.07906">
        <ele>1592.8</ele>
        <time>2024-08-14T08:06:37Z</time>
      </trkpt>
      <trkpt lat="44.90461" lon="6.07906">
        <ele>1592.6</ele>
        <time>2024-08-14T08:06:38Z</time>
      </trkpt>
      <trkpt lat="44.90461" lon="6.07903">
        <ele>1592.4</ele>
        <time>2024-08-14T08:06:39Z</time>
      </trkpt>
      <trkpt lat="44.90461" lon="6.07903">
        <ele>1592.2</ele>
        <time>2024-08-14T08:06:40Z</time>
      </trkpt>
      <trkpt lat="44.9046" lon="6.07901">
        <ele>1592.2</ele>
        <time>2024-08-14T08:06:41Z</time>
      </trkpt>
      <trkpt lat="44.9046" lon="6.07901">
        <ele>1592</ele>
        <time>2024-08-14T08:06:42Z</time>
      </trkpt>
      <trkpt lat="44.90459" lon="6.07898">
        <ele>1591.6</ele>
        <time>2024-08-14T08:06:43Z</time>
      </trkpt>
      <trkpt lat="44.90459" lon="6.07898">
        <ele>1591.4</ele>
        <time>2024-08-14T08:06:44Z</time>
      </trkpt>
      <trkpt lat="44.90459" lon="6.07898">
        <ele>1591.2</ele>
        <time>2024-08-14T08:06:45Z</time>
      </trkpt>
      <trkpt lat="44.90457" lon="6.07896">
        <ele>1591</ele>
        <time>2024-08-14T08:06:46Z</time>
      </trkpt>
      <trkpt lat="44.90457" lon="6.07896">
        <ele>1590.6</ele>
        <time>2024-08-14T08:06:47Z</time>
      </trkpt>
      <trkpt lat="44.90457" lon="6.07894">
        <ele>1590.4</ele>
        <time>2024-08-14T08:06:48Z</time>
      </trkpt>
      <trkpt lat="44.90457" lon="6.07894">
        <ele>1590.2</ele>
        <time>2024-08-14T08:06:49Z</time>
      </trkpt>
      <trkpt lat="44.90456" lon="6.07889">
        <ele>1590</ele>
        <time>2024-08-14T08:06:50Z</time>
      </trkpt>
      <trkpt lat="44.90456" lon="6.07889">
        <ele>1589.8</ele>
        <time>2024-08-14T08:06:51Z</time>
      </trkpt>
      <trkpt lat="44.90454" lon="6.07887">
        <ele>1589.6</ele>
        <time>2024-08-14T08:06:52Z</time>
      </trkpt>
      <trkpt lat="44.90454" lon="6.07887">
        <ele>1589.4</ele>
        <time>2024-08-14T08:06:53Z</time>
      </trkpt>
      <trkpt lat="44.90452" lon="6.07886">
        <ele>1589.2</ele>
        <time>2024-08-14T08:06:54Z</time>
      </trkpt>
      <trkpt lat="44.90452" lon="6.07886">
        <ele>1588.8</ele>
        <time>2024-08-14T08:06:55Z</time>
      </trkpt>
      <trkpt lat="44.90451" lon="6.07884">
        <ele>1588.4</ele>
        <time>2024-08-14T08:06:56Z</time>
      </trkpt>
      <trkpt lat="44.9045" lon="6.07881">
        <ele>1588.4</ele>
        <time>2024-08-14T08:06:57Z</time>
      </trkpt>
      <trkpt lat="44.9045" lon="6.07881">
        <ele>1588.2</ele>
        <time>2024-08-14T08:06:58Z</time>
      </trkpt>
      <trkpt lat="44.9045" lon="6.07878">
        <ele>1588</ele>
        <time>2024-08-14T08:06:59Z</time>
      </trkpt>
      <trkpt lat="44.9045" lon="6.07878">
        <ele>1587.8</ele>
        <time>2024-08-14T08:07:00Z</time>
      </trkpt>
      <trkpt lat="44.90448" lon="6.07874">
        <ele>1587.8</ele>
        <time>2024-08-14T08:07:01Z</time>
      </trkpt>
      <trkpt lat="44.90448" lon="6.07874">
        <ele>1587.4</ele>
        <time>2024-08-14T08:07:02Z</time>
      </trkpt>
      <trkpt lat="44.90447" lon="6.07872">
        <ele>1587.4</ele>
        <time>2024-08-14T08:07:03Z</time>
      </trkpt>
      <trkpt lat="44.90447" lon="6.07872">
        <ele>1587.4</ele>
        <time>2024-08-14T08:07:04Z</time>
      </trkpt>
      <trkpt lat="44.90445" lon="6.07872">
        <ele>1587.2</ele>
        <time>2024-08-14T08:07:05Z</time>
      </trkpt>
      <trkpt lat="44.90445" lon="6.07872">
        <ele>1586.8</ele>
        <time>2024-08-14T08:07:06Z</time>
      </trkpt>
      <trkpt lat="44.90444" lon="6.0787">
        <ele>1586.8</ele>
        <time>2024-08-14T08:07:07Z</time>
      </trkpt>
      <trkpt lat="44.90444" lon="6.0787">
        <ele>1586.6</ele>
        <time>2024-08-14T08:07:08Z</time>
      </trkpt>
      <trkpt lat="44.90442" lon="6.07867">
        <ele>1586.4</ele>
        <time>2024-08-14T08:07:09Z</time>
      </trkpt>
      <trkpt lat="44.90442" lon="6.07867">
        <ele>1586.2</ele>
        <time>2024-08-14T08:07:10Z</time>
      </trkpt>
      <trkpt lat="44.90439" lon="6.07866">
        <ele>1586</ele>
        <time>2024-08-14T08:07:11Z</time>
      </trkpt>
      <trkpt lat="44.90439" lon="6.07866">
        <ele>1586</ele>
        <time>2024-08-14T08:07:12Z</time>
      </trkpt>
      <trkpt lat="44.90439" lon="6.07866">
        <ele>1586</ele>
        <time>2024-08-14T08:07:13Z</time>
      </trkpt>
      <trkpt lat="44.90437" lon="6.07864">
        <ele>1586</ele>
        <time>2024-08-14T08:07:14Z</time>
      </trkpt>
      <trkpt lat="44.90437" lon="6.07864">
        <ele>1585.8</ele>
        <time>2024-08-14T08:07:15Z</time>
      </trkpt>
      <trkpt lat="44.90437" lon="6.07864">
        <ele>1585.8</ele>
        <time>2024-08-14T08:07:16Z</time>
      </trkpt>
      <trkpt lat="44.90438" lon="6.07861">
        <ele>1585.6</ele>
        <time>2024-08-14T08:07:17Z</time>
      </trkpt>
      <trkpt lat="44.9044" lon="6.07859">
        <ele>1585.2</ele>
        <time>2024-08-14T08:07:18Z</time>
      </trkpt>
      <trkpt lat="44.90442" lon="6.07858">
        <ele>1584.8</ele>
        <time>2024-08-14T08:07:19Z</time>
      </trkpt>
      <trkpt lat="44.90442" lon="6.07858">
        <ele>1584.6</ele>
        <time>2024-08-14T08:07:20Z</time>
      </trkpt>
      <trkpt lat="44.90442" lon="6.07858">
        <ele>1584.4</ele>
        <time>2024-08-14T08:07:21Z</time>
      </trkpt>
      <trkpt lat="44.90442" lon="6.07858">
        <ele>1584</ele>
        <time>2024-08-14T08:07:22Z</time>
      </trkpt>
      <trkpt lat="44.90442" lon="6.07858">
        <ele>1583.8</ele>
        <time>2024-08-14T08:07:23Z</time>
      </trkpt>
      <trkpt lat="44.90442" lon="6.07858">
        <ele>1583.8</ele>
        <time>2024-08-14T08:07:24Z</time>
      </trkpt>
      <trkpt lat="44.90442" lon="6.07858">
        <ele>1583.4</ele>
        <time>2024-08-14T08:07:25Z</time>
      </trkpt>
      <trkpt lat="44.9044" lon="6.07856">
        <ele>1583.2</ele>
        <time>2024-08-14T08:07:26Z</time>
      </trkpt>
      <trkpt lat="44.9044" lon="6.07856">
        <ele>1582.8</ele>
        <time>2024-08-14T08:07:27Z</time>
      </trkpt>
      <trkpt lat="44.90439" lon="6.07853">
        <ele>1582.4</ele>
        <time>2024-08-14T08:07:28Z</time>
      </trkpt>
      <trkpt lat="44.90439" lon="6.07853">
        <ele>1582.2</ele>
        <time>2024-08-14T08:07:29Z</time>
      </trkpt>
      <trkpt lat="44.90439" lon="6.07849">
        <ele>1582.2</ele>
        <time>2024-08-14T08:07:30Z</time>
      </trkpt>
      <trkpt lat="44.90439" lon="6.07847">
        <ele>1582</ele>
        <time>2024-08-14T08:07:31Z</time>
      </trkpt>
      <trkpt lat="44.90439" lon="6.07847">
        <ele>1582</ele>
        <time>2024-08-14T08:07:32Z</time>
      </trkpt>
      <trkpt lat="44.9044" lon="6.07844">
        <ele>1582</ele>
        <time>2024-08-14T08:07:33Z</time>
      </trkpt>
      <trkpt lat="44.9044" lon="6.07844">
        <ele>1581.8</ele>
        <time>2024-08-14T08:07:34Z</time>
      </trkpt>
      <trkpt lat="44.90441" lon="6.07842">
        <ele>1581.8</ele>
        <time>2024-08-14T08:07:35Z</time>
      </trkpt>
      <trkpt lat="44.90441" lon="6.07842">
        <ele>1581.6</ele>
        <time>2024-08-14T08:07:36Z</time>
      </trkpt>
      <trkpt lat="44.90442" lon="6.07838">
        <ele>1581.4</ele>
        <time>2024-08-14T08:07:37Z</time>
      </trkpt>
      <trkpt lat="44.90442" lon="6.07838">
        <ele>1581.2</ele>
        <time>2024-08-14T08:07:38Z</time>
      </trkpt>
      <trkpt lat="44.9044" lon="6.07835">
        <ele>1581.2</ele>
        <time>2024-08-14T08:07:39Z</time>
      </trkpt>
      <trkpt lat="44.9044" lon="6.07835">
        <ele>1580.8</ele>
        <time>2024-08-14T08:07:40Z</time>
      </trkpt>
      <trkpt lat="44.90439" lon="6.07832">
        <ele>1580.4</ele>
        <time>2024-08-14T08:07:41Z</time>
      </trkpt>
      <trkpt lat="44.90439" lon="6.07832">
        <ele>1580.2</ele>
        <time>2024-08-14T08:07:42Z</time>
      </trkpt>
      <trkpt lat="44.90436" lon="6.07829">
        <ele>1580.2</ele>
        <time>2024-08-14T08:07:43Z</time>
      </trkpt>
      <trkpt lat="44.90436" lon="6.07829">
        <ele>1580</ele>
        <time>2024-08-14T08:07:44Z</time>
      </trkpt>
      <trkpt lat="44.90433" lon="6.07827">
        <ele>1579.8</ele>
        <time>2024-08-14T08:07:45Z</time>
      </trkpt>
      <trkpt lat="44.90433" lon="6.07827">
        <ele>1579.4</ele>
        <time>2024-08-14T08:07:46Z</time>
      </trkpt>
      <trkpt lat="44.90431" lon="6.07825">
        <ele>1579.2</ele>
        <time>2024-08-14T08:07:47Z</time>
      </trkpt>
      <trkpt lat="44.90431" lon="6.07825">
        <ele>1579</ele>
        <time>2024-08-14T08:07:48Z</time>
      </trkpt>
      <trkpt lat="44.90428" lon="6.07823">
        <ele>1579</ele>
        <time>2024-08-14T08:07:49Z</time>
      </trkpt>
      <trkpt lat="44.90428" lon="6.07823">
        <ele>1578.6</ele>
        <time>2024-08-14T08:07:50Z</time>
      </trkpt>
      <trkpt lat="44.90426" lon="6.07822">
        <ele>1578.2</ele>
        <time>2024-08-14T08:07:51Z</time>
      </trkpt>
      <trkpt lat="44.90426" lon="6.07822">
        <ele>1577.6</ele>
        <time>2024-08-14T08:07:52Z</time>
      </trkpt>
      <trkpt lat="44.90424" lon="6.0782">
        <ele>1577.4</ele>
        <time>2024-08-14T08:07:53Z</time>
      </trkpt>
      <trkpt lat="44.90424" lon="6.0782">
        <ele>1577</ele>
        <time>2024-08-14T08:07:54Z</time>
      </trkpt>
      <trkpt lat="44.90424" lon="6.0782">
        <ele>1576.8</ele>
        <time>2024-08-14T08:07:55Z</time>
      </trkpt>
      <trkpt lat="44.90424" lon="6.07817">
        <ele>1576.8</ele>
        <time>2024-08-14T08:07:56Z</time>
      </trkpt>
      <trkpt lat="44.90424" lon="6.07817">
        <ele>1576.6</ele>
        <time>2024-08-14T08:07:57Z</time>
      </trkpt>
      <trkpt lat="44.90424" lon="6.07817">
        <ele>1576.4</ele>
        <time>2024-08-14T08:07:58Z</time>
      </trkpt>
      <trkpt lat="44.90424" lon="6.07814">
        <ele>1576.2</ele>
        <time>2024-08-14T08:07:59Z</time>
      </trkpt>
      <trkpt lat="44.90424" lon="6.07814">
        <ele>1576</ele>
        <time>2024-08-14T08:08:00Z</time>
      </trkpt>
      <trkpt lat="44.90424" lon="6.07814">
        <ele>1575.8</ele>
        <time>2024-08-14T08:08:01Z</time>
      </trkpt>
      <trkpt lat="44.90423" lon="6.07811">
        <ele>1575</ele>
        <time>2024-08-14T08:08:02Z</time>
      </trkpt>
      <trkpt lat="44.90423" lon="6.07811">
        <ele>1575</ele>
        <time>2024-08-14T08:08:03Z</time>
      </trkpt>
      <trkpt lat="44.90423" lon="6.07811">
        <ele>1574.6</ele>
        <time>2024-08-14T08:08:04Z</time>
      </trkpt>
      <trkpt lat="44.90422" lon="6.07808">
        <ele>1574.4</ele>
        <time>2024-08-14T08:08:05Z</time>
      </trkpt>
      <trkpt lat="44.90422" lon="6.07808">
        <ele>1574.2</ele>
        <time>2024-08-14T08:08:06Z</time>
      </trkpt>
      <trkpt lat="44.9042" lon="6.07806">
        <ele>1574</ele>
        <time>2024-08-14T08:08:07Z</time>
      </trkpt>
      <trkpt lat="44.9042" lon="6.07806">
        <ele>1573.6</ele>
        <time>2024-08-14T08:08:08Z</time>
      </trkpt>
      <trkpt lat="44.90418" lon="6.07805">
        <ele>1573.4</ele>
        <time>2024-08-14T08:08:09Z</time>
      </trkpt>
      <trkpt lat="44.90418" lon="6.07805">
        <ele>1573</ele>
        <time>2024-08-14T08:08:10Z</time>
      </trkpt>
      <trkpt lat="44.90418" lon="6.07805">
        <ele>1572.6</ele>
        <time>2024-08-14T08:08:11Z</time>
      </trkpt>
      <trkpt lat="44.90416" lon="6.07803">
        <ele>1572.6</ele>
        <time>2024-08-14T08:08:12Z</time>
      </trkpt>
      <trkpt lat="44.90416" lon="6.07803">
        <ele>1572.2</ele>
        <time>2024-08-14T08:08:13Z</time>
      </trkpt>
      <trkpt lat="44.90416" lon="6.07803">
        <ele>1572</ele>
        <time>2024-08-14T08:08:14Z</time>
      </trkpt>
      <trkpt lat="44.90419" lon="6.07802">
        <ele>1572</ele>
        <time>2024-08-14T08:08:15Z</time>
      </trkpt>
      <trkpt lat="44.90419" lon="6.07802">
        <ele>1572</ele>
        <time>2024-08-14T08:08:16Z</time>
      </trkpt>
      <trkpt lat="44.90419" lon="6.07802">
        <ele>1571.6</ele>
        <time>2024-08-14T08:08:17Z</time>
      </trkpt>
      <trkpt lat="44.90418" lon="6.078">
        <ele>1571.2</ele>
        <time>2024-08-14T08:08:18Z</time>
      </trkpt>
      <trkpt lat="44.90418" lon="6.078">
        <ele>1571</ele>
        <time>2024-08-14T08:08:19Z</time>
      </trkpt>
      <trkpt lat="44.90416" lon="6.07799">
        <ele>1570.6</ele>
        <time>2024-08-14T08:08:20Z</time>
      </trkpt>
      <trkpt lat="44.90416" lon="6.07799">
        <ele>1570.6</ele>
        <time>2024-08-14T08:08:21Z</time>
      </trkpt>
      <trkpt lat="44.90413" lon="6.078">
        <ele>1570.6</ele>
        <time>2024-08-14T08:08:22Z</time>
      </trkpt>
      <trkpt lat="44.90413" lon="6.078">
        <ele>1570.6</ele>
        <time>2024-08-14T08:08:23Z</time>
      </trkpt>
      <trkpt lat="44.90412" lon="6.078">
        <ele>1570.4</ele>
        <time>2024-08-14T08:08:24Z</time>
      </trkpt>
      <trkpt lat="44.90412" lon="6.078">
        <ele>1570</ele>
        <time>2024-08-14T08:08:25Z</time>
      </trkpt>
      <trkpt lat="44.90409" lon="6.078">
        <ele>1569.8</ele>
        <time>2024-08-14T08:08:26Z</time>
      </trkpt>
      <trkpt lat="44.90409" lon="6.078">
        <ele>1569.6</ele>
        <time>2024-08-14T08:08:27Z</time>
      </trkpt>
      <trkpt lat="44.90407" lon="6.07801">
        <ele>1569.4</ele>
        <time>2024-08-14T08:08:28Z</time>
      </trkpt>
      <trkpt lat="44.90407" lon="6.07801">
        <ele>1569</ele>
        <time>2024-08-14T08:08:29Z</time>
      </trkpt>
      <trkpt lat="44.90407" lon="6.07801">
        <ele>1569</ele>
        <time>2024-08-14T08:08:30Z</time>
      </trkpt>
      <trkpt lat="44.90405" lon="6.078">
        <ele>1568.8</ele>
        <time>2024-08-14T08:08:31Z</time>
      </trkpt>
      <trkpt lat="44.90405" lon="6.078">
        <ele>1568.6</ele>
        <time>2024-08-14T08:08:32Z</time>
      </trkpt>
      <trkpt lat="44.90402" lon="6.078">
        <ele>1568.2</ele>
        <time>2024-08-14T08:08:33Z</time>
      </trkpt>
      <trkpt lat="44.90402" lon="6.078">
        <ele>1567.8</ele>
        <time>2024-08-14T08:08:34Z</time>
      </trkpt>
      <trkpt lat="44.904" lon="6.07798">
        <ele>1567.6</ele>
        <time>2024-08-14T08:08:35Z</time>
      </trkpt>
      <trkpt lat="44.904" lon="6.07798">
        <ele>1567.4</ele>
        <time>2024-08-14T08:08:36Z</time>
      </trkpt>
      <trkpt lat="44.90398" lon="6.07796">
        <ele>1567.2</ele>
        <time>2024-08-14T08:08:37Z</time>
      </trkpt>
      <trkpt lat="44.90398" lon="6.07796">
        <ele>1567</ele>
        <time>2024-08-14T08:08:38Z</time>
      </trkpt>
      <trkpt lat="44.90396" lon="6.07792">
        <ele>1566.6</ele>
        <time>2024-08-14T08:08:39Z</time>
      </trkpt>
      <trkpt lat="44.90396" lon="6.07792">
        <ele>1566</ele>
        <time>2024-08-14T08:08:40Z</time>
      </trkpt>
      <trkpt lat="44.90394" lon="6.0779">
        <ele>1565.8</ele>
        <time>2024-08-14T08:08:41Z</time>
      </trkpt>
      <trkpt lat="44.90394" lon="6.0779">
        <ele>1565.6</ele>
        <time>2024-08-14T08:08:42Z</time>
      </trkpt>
      <trkpt lat="44.90394" lon="6.0779">
        <ele>1565.2</ele>
        <time>2024-08-14T08:08:43Z</time>
      </trkpt>
      <trkpt lat="44.90393" lon="6.07786">
        <ele>1565.2</ele>
        <time>2024-08-14T08:08:44Z</time>
      </trkpt>
      <trkpt lat="44.90393" lon="6.07786">
        <ele>1565</ele>
        <time>2024-08-14T08:08:45Z</time>
      </trkpt>
      <trkpt lat="44.90393" lon="6.07786">
        <ele>1564.8</ele>
        <time>2024-08-14T08:08:46Z</time>
      </trkpt>
      <trkpt lat="44.90392" lon="6.07783">
        <ele>1564.4</ele>
        <time>2024-08-14T08:08:47Z</time>
      </trkpt>
      <trkpt lat="44.90392" lon="6.07783">
        <ele>1564.4</ele>
        <time>2024-08-14T08:08:48Z</time>
      </trkpt>
      <trkpt lat="44.90391" lon="6.07781">
        <ele>1564</ele>
        <time>2024-08-14T08:08:49Z</time>
      </trkpt>
      <trkpt lat="44.90391" lon="6.07781">
        <ele>1563.6</ele>
        <time>2024-08-14T08:08:50Z</time>
      </trkpt>
      <trkpt lat="44.9039" lon="6.07778">
        <ele>1563.6</ele>
        <time>2024-08-14T08:08:51Z</time>
      </trkpt>
      <trkpt lat="44.9039" lon="6.07778">
        <ele>1563.2</ele>
        <time>2024-08-14T08:08:52Z</time>
      </trkpt>
      <trkpt lat="44.90389" lon="6.07776">
        <ele>1563</ele>
        <time>2024-08-14T08:08:53Z</time>
      </trkpt>
      <trkpt lat="44.90389" lon="6.07776">
        <ele>1562.8</ele>
        <time>2024-08-14T08:08:54Z</time>
      </trkpt>
      <trkpt lat="44.90387" lon="6.07773">
        <ele>1562.6</ele>
        <time>2024-08-14T08:08:55Z</time>
      </trkpt>
      <trkpt lat="44.90387" lon="6.07773">
        <ele>1562.2</ele>
        <time>2024-08-14T08:08:56Z</time>
      </trkpt>
      <trkpt lat="44.90387" lon="6.07773">
        <ele>1561.8</ele>
        <time>2024-08-14T08:08:57Z</time>
      </trkpt>
      <trkpt lat="44.90386" lon="6.0777">
        <ele>1561.4</ele>
        <time>2024-08-14T08:08:58Z</time>
      </trkpt>
      <trkpt lat="44.90386" lon="6.0777">
        <ele>1561.2</ele>
        <time>2024-08-14T08:08:59Z</time>
      </trkpt>
      <trkpt lat="44.90389" lon="6.07768">
        <ele>1560.8</ele>
        <time>2024-08-14T08:09:00Z</time>
      </trkpt>
      <trkpt lat="44.90389" lon="6.07768">
        <ele>1560.8</ele>
        <time>2024-08-14T08:09:01Z</time>
      </trkpt>
      <trkpt lat="44.90391" lon="6.07768">
        <ele>1560.2</ele>
        <time>2024-08-14T08:09:02Z</time>
      </trkpt>
      <trkpt lat="44.90391" lon="6.07768">
        <ele>1560.2</ele>
        <time>2024-08-14T08:09:03Z</time>
      </trkpt>
      <trkpt lat="44.90393" lon="6.07768">
        <ele>1559.8</ele>
        <time>2024-08-14T08:09:04Z</time>
      </trkpt>
      <trkpt lat="44.90393" lon="6.07768">
        <ele>1559.2</ele>
        <time>2024-08-14T08:09:05Z</time>
      </trkpt>
      <trkpt lat="44.90395" lon="6.07769">
        <ele>1559.2</ele>
        <time>2024-08-14T08:09:06Z</time>
      </trkpt>
      <trkpt lat="44.90395" lon="6.07769">
        <ele>1559.2</ele>
        <time>2024-08-14T08:09:07Z</time>
      </trkpt>
      <trkpt lat="44.90397" lon="6.0777">
        <ele>1558.8</ele>
        <time>2024-08-14T08:09:08Z</time>
      </trkpt>
      <trkpt lat="44.90397" lon="6.0777">
        <ele>1558.2</ele>
        <time>2024-08-14T08:09:09Z</time>
      </trkpt>
      <trkpt lat="44.904" lon="6.07771">
        <ele>1558</ele>
        <time>2024-08-14T08:09:10Z</time>
      </trkpt>
      <trkpt lat="44.904" lon="6.07771">
        <ele>1557.6</ele>
        <time>2024-08-14T08:09:11Z</time>
      </trkpt>
      <trkpt lat="44.90402" lon="6.07771">
        <ele>1557.2</ele>
        <time>2024-08-14T08:09:12Z</time>
      </trkpt>
      <trkpt lat="44.90402" lon="6.07771">
        <ele>1557</ele>
        <time>2024-08-14T08:09:13Z</time>
      </trkpt>
      <trkpt lat="44.90402" lon="6.07771">
        <ele>1556.8</ele>
        <time>2024-08-14T08:09:14Z</time>
      </trkpt>
      <trkpt lat="44.90402" lon="6.07771">
        <ele>1556.4</ele>
        <time>2024-08-14T08:09:15Z</time>
      </trkpt>
      <trkpt lat="44.90401" lon="6.07769">
        <ele>1555.8</ele>
        <time>2024-08-14T08:09:16Z</time>
      </trkpt>
      <trkpt lat="44.90401" lon="6.07769">
        <ele>1555.6</ele>
        <time>2024-08-14T08:09:17Z</time>
      </trkpt>
      <trkpt lat="44.904" lon="6.07766">
        <ele>1555.4</ele>
        <time>2024-08-14T08:09:18Z</time>
      </trkpt>
      <trkpt lat="44.904" lon="6.07766">
        <ele>1555.4</ele>
        <time>2024-08-14T08:09:19Z</time>
      </trkpt>
      <trkpt lat="44.904" lon="6.07766">
        <ele>1555.2</ele>
        <time>2024-08-14T08:09:20Z</time>
      </trkpt>
      <trkpt lat="44.904" lon="6.07763">
        <ele>1554.8</ele>
        <time>2024-08-14T08:09:21Z</time>
      </trkpt>
      <trkpt lat="44.904" lon="6.07763">
        <ele>1554.4</ele>
        <time>2024-08-14T08:09:22Z</time>
      </trkpt>
      <trkpt lat="44.90403" lon="6.07763">
        <ele>1554.4</ele>
        <time>2024-08-14T08:09:23Z</time>
      </trkpt>
      <trkpt lat="44.90403" lon="6.07763">
        <ele>1554.4</ele>
        <time>2024-08-14T08:09:24Z</time>
      </trkpt>
      <trkpt lat="44.90405" lon="6.07763">
        <ele>1554</ele>
        <time>2024-08-14T08:09:25Z</time>
      </trkpt>
      <trkpt lat="44.90405" lon="6.07763">
        <ele>1553.8</ele>
        <time>2024-08-14T08:09:26Z</time>
      </trkpt>
      <trkpt lat="44.90408" lon="6.07764">
        <ele>1553.6</ele>
        <time>2024-08-14T08:09:27Z</time>
      </trkpt>
      <trkpt lat="44.90408" lon="6.07764">
        <ele>1553.4</ele>
        <time>2024-08-14T08:09:28Z</time>
      </trkpt>
      <trkpt lat="44.9041" lon="6.07765">
        <ele>1553.2</ele>
        <time>2024-08-14T08:09:29Z</time>
      </trkpt>
      <trkpt lat="44.9041" lon="6.07765">
        <ele>1552.8</ele>
        <time>2024-08-14T08:09:30Z</time>
      </trkpt>
      <trkpt lat="44.9041" lon="6.07765">
        <ele>1552.6</ele>
        <time>2024-08-14T08:09:31Z</time>
      </trkpt>
      <trkpt lat="44.9041" lon="6.07765">
        <ele>1552.6</ele>
        <time>2024-08-14T08:09:32Z</time>
      </trkpt>
      <trkpt lat="44.9041" lon="6.07765">
        <ele>1552.4</ele>
        <time>2024-08-14T08:09:33Z</time>
      </trkpt>
      <trkpt lat="44.9041" lon="6.07765">
        <ele>1552.4</ele>
        <time>2024-08-14T08:09:34Z</time>
      </trkpt>
      <trkpt lat="44.90408" lon="6.07762">
        <ele>1552</ele>
        <time>2024-08-14T08:09:35Z</time>
      </trkpt>
      <trkpt lat="44.90408" lon="6.07762">
        <ele>1551.6</ele>
        <time>2024-08-14T08:09:36Z</time>
      </trkpt>
      <trkpt lat="44.90406" lon="6.0776">
        <ele>1551.2</ele>
        <time>2024-08-14T08:09:37Z</time>
      </trkpt>
      <trkpt lat="44.90406" lon="6.0776">
        <ele>1551</ele>
        <time>2024-08-14T08:09:38Z</time>
      </trkpt>
      <trkpt lat="44.90405" lon="6.07757">
        <ele>1551</ele>
        <time>2024-08-14T08:09:39Z</time>
      </trkpt>
      <trkpt lat="44.90405" lon="6.07757">
        <ele>1550.6</ele>
        <time>2024-08-14T08:09:40Z</time>
      </trkpt>
      <trkpt lat="44.90402" lon="6.07755">
        <ele>1550.4</ele>
        <time>2024-08-14T08:09:41Z</time>
      </trkpt>
      <trkpt lat="44.90402" lon="6.07755">
        <ele>1550.2</ele>
        <time>2024-08-14T08:09:42Z</time>
      </trkpt>
      <trkpt lat="44.904" lon="6.07753">
        <ele>1550</ele>
        <time>2024-08-14T08:09:43Z</time>
      </trkpt>
      <trkpt lat="44.90398" lon="6.07753">
        <ele>1550</ele>
        <time>2024-08-14T08:09:44Z</time>
      </trkpt>
      <trkpt lat="44.90398" lon="6.07753">
        <ele>1549.8</ele>
        <time>2024-08-14T08:09:45Z</time>
      </trkpt>
      <trkpt lat="44.90396" lon="6.07751">
        <ele>1549.4</ele>
        <time>2024-08-14T08:09:46Z</time>
      </trkpt>
      <trkpt lat="44.90396" lon="6.07751">
        <ele>1549.2</ele>
        <time>2024-08-14T08:09:47Z</time>
      </trkpt>
      <trkpt lat="44.90396" lon="6.07751">
        <ele>1549</ele>
        <time>2024-08-14T08:09:48Z</time>
      </trkpt>
      <trkpt lat="44.90399" lon="6.07749">
        <ele>1549</ele>
        <time>2024-08-14T08:09:49Z</time>
      </trkpt>
      <trkpt lat="44.90399" lon="6.07749">
        <ele>1548.8</ele>
        <time>2024-08-14T08:09:50Z</time>
      </trkpt>
      <trkpt lat="44.90402" lon="6.07749">
        <ele>1548.4</ele>
        <time>2024-08-14T08:09:51Z</time>
      </trkpt>
      <trkpt lat="44.90402" lon="6.07749">
        <ele>1548.2</ele>
        <time>2024-08-14T08:09:52Z</time>
      </trkpt>
      <trkpt lat="44.90405" lon="6.07749">
        <ele>1548.2</ele>
        <time>2024-08-14T08:09:53Z</time>
      </trkpt>
      <trkpt lat="44.90405" lon="6.07749">
        <ele>1548</ele>
        <time>2024-08-14T08:09:54Z</time>
      </trkpt>
      <trkpt lat="44.90408" lon="6.0775">
        <ele>1547.6</ele>
        <time>2024-08-14T08:09:55Z</time>
      </trkpt>
      <trkpt lat="44.9041" lon="6.07749">
        <ele>1547.4</ele>
        <time>2024-08-14T08:09:56Z</time>
      </trkpt>
      <trkpt lat="44.9041" lon="6.07749">
        <ele>1547.4</ele>
        <time>2024-08-14T08:09:57Z</time>
      </trkpt>
      <trkpt lat="44.90413" lon="6.07749">
        <ele>1547.4</ele>
        <time>2024-08-14T08:09:58Z</time>
      </trkpt>
      <trkpt lat="44.90413" lon="6.07749">
        <ele>1547</ele>
        <time>2024-08-14T08:09:59Z</time>
      </trkpt>
      <trkpt lat="44.90415" lon="6.07749">
        <ele>1547</ele>
        <time>2024-08-14T08:10:00Z</time>
      </trkpt>
      <trkpt lat="44.90415" lon="6.07749">
        <ele>1547</ele>
        <time>2024-08-14T08:10:01Z</time>
      </trkpt>
      <trkpt lat="44.90415" lon="6.07749">
        <ele>1546.4</ele>
        <time>2024-08-14T08:10:02Z</time>
      </trkpt>
      <trkpt lat="44.90418" lon="6.07749">
        <ele>1546.2</ele>
        <time>2024-08-14T08:10:03Z</time>
      </trkpt>
      <trkpt lat="44.90418" lon="6.07749">
        <ele>1546.2</ele>
        <time>2024-08-14T08:10:04Z</time>
      </trkpt>
      <trkpt lat="44.9042" lon="6.07748">
        <ele>1545.8</ele>
        <time>2024-08-14T08:10:05Z</time>
      </trkpt>
      <trkpt lat="44.9042" lon="6.07748">
        <ele>1545.8</ele>
        <time>2024-08-14T08:10:06Z</time>
      </trkpt>
      <trkpt lat="44.9042" lon="6.07748">
        <ele>1545.4</ele>
        <time>2024-08-14T08:10:07Z</time>
      </trkpt>
      <trkpt lat="44.90422" lon="6.07748">
        <ele>1544.8</ele>
        <time>2024-08-14T08:10:08Z</time>
      </trkpt>
      <trkpt lat="44.90422" lon="6.07748">
        <ele>1544.8</ele>
        <time>2024-08-14T08:10:09Z</time>
      </trkpt>
      <trkpt lat="44.90422" lon="6.07748">
        <ele>1545</ele>
        <time>2024-08-14T08:10:10Z</time>
      </trkpt>
      <trkpt lat="44.90422" lon="6.07748">
        <ele>1545</ele>
        <time>2024-08-14T08:10:11Z</time>
      </trkpt>
      <trkpt lat="44.90422" lon="6.07748">
        <ele>1545</ele>
        <time>2024-08-14T08:10:12Z</time>
      </trkpt>
      <trkpt lat="44.90422" lon="6.07748">
        <ele>1545</ele>
        <time>2024-08-14T08:10:13Z</time>
      </trkpt>
      <trkpt lat="44.90422" lon="6.07748">
        <ele>1545.2</ele>
        <time>2024-08-14T08:10:14Z</time>
      </trkpt>
      <trkpt lat="44.90422" lon="6.07748">
        <ele>1545.2</ele>
        <time>2024-08-14T08:10:15Z</time>
      </trkpt>
      <trkpt lat="44.90422" lon="6.07748">
        <ele>1545.2</ele>
        <time>2024-08-14T08:10:16Z</time>
      </trkpt>
      <trkpt lat="44.90422" lon="6.07748">
        <ele>1545</ele>
        <time>2024-08-14T08:10:17Z</time>
      </trkpt>
      <trkpt lat="44.90424" lon="6.0775">
        <ele>1544.8</ele>
        <time>2024-08-14T08:10:18Z</time>
      </trkpt>
      <trkpt lat="44.90424" lon="6.0775">
        <ele>1544.4</ele>
        <time>2024-08-14T08:10:19Z</time>
      </trkpt>
      <trkpt lat="44.90428" lon="6.07751">
        <ele>1544</ele>
        <time>2024-08-14T08:10:20Z</time>
      </trkpt>
      <trkpt lat="44.90428" lon="6.07751">
        <ele>1544</ele>
        <time>2024-08-14T08:10:21Z</time>
      </trkpt>
      <trkpt lat="44.9043" lon="6.07752">
        <ele>1543.8</ele>
        <time>2024-08-14T08:10:22Z</time>
      </trkpt>
      <trkpt lat="44.9043" lon="6.07752">
        <ele>1543.4</ele>
        <time>2024-08-14T08:10:23Z</time>
      </trkpt>
      <trkpt lat="44.90432" lon="6.07752">
        <ele>1543.4</ele>
        <time>2024-08-14T08:10:24Z</time>
      </trkpt>
      <trkpt lat="44.90432" lon="6.07752">
        <ele>1543.2</ele>
        <time>2024-08-14T08:10:25Z</time>
      </trkpt>
      <trkpt lat="44.90432" lon="6.07752">
        <ele>1542.8</ele>
        <time>2024-08-14T08:10:26Z</time>
      </trkpt>
      <trkpt lat="44.90434" lon="6.07749">
        <ele>1542.6</ele>
        <time>2024-08-14T08:10:27Z</time>
      </trkpt>
      <trkpt lat="44.90434" lon="6.07749">
        <ele>1542.4</ele>
        <time>2024-08-14T08:10:28Z</time>
      </trkpt>
      <trkpt lat="44.90434" lon="6.07749">
        <ele>1542</ele>
        <time>2024-08-14T08:10:29Z</time>
      </trkpt>
      <trkpt lat="44.90436" lon="6.07747">
        <ele>1541.6</ele>
        <time>2024-08-14T08:10:30Z</time>
      </trkpt>
      <trkpt lat="44.90436" lon="6.07747">
        <ele>1541.6</ele>
        <time>2024-08-14T08:10:31Z</time>
      </trkpt>
      <trkpt lat="44.90437" lon="6.07745">
        <ele>1541.2</ele>
        <time>2024-08-14T08:10:32Z</time>
      </trkpt>
      <trkpt lat="44.90437" lon="6.07745">
        <ele>1541.2</ele>
        <time>2024-08-14T08:10:33Z</time>
      </trkpt>
      <trkpt lat="44.9044" lon="6.07743">
        <ele>1540.8</ele>
        <time>2024-08-14T08:10:34Z</time>
      </trkpt>
      <trkpt lat="44.9044" lon="6.07743">
        <ele>1540.4</ele>
        <time>2024-08-14T08:10:35Z</time>
      </trkpt>
      <trkpt lat="44.90442" lon="6.07741">
        <ele>1540.2</ele>
        <time>2024-08-14T08:10:36Z</time>
      </trkpt>
      <trkpt lat="44.90442" lon="6.07741">
        <ele>1540.2</ele>
        <time>2024-08-14T08:10:37Z</time>
      </trkpt>
      <trkpt lat="44.90445" lon="6.07739">
        <ele>1540</ele>
        <time>2024-08-14T08:10:38Z</time>
      </trkpt>
      <trkpt lat="44.90445" lon="6.07739">
        <ele>1540</ele>
        <time>2024-08-14T08:10:39Z</time>
      </trkpt>
      <trkpt lat="44.90447" lon="6.07739">
        <ele>1539.8</ele>
        <time>2024-08-14T08:10:40Z</time>
      </trkpt>
      <trkpt lat="44.90447" lon="6.07739">
        <ele>1539.8</ele>
        <time>2024-08-14T08:10:41Z</time>
      </trkpt>
      <trkpt lat="44.90447" lon="6.07739">
        <ele>1539.4</ele>
        <time>2024-08-14T08:10:42Z</time>
      </trkpt>
      <trkpt lat="44.90447" lon="6.07739">
        <ele>1539.2</ele>
        <time>2024-08-14T08:10:43Z</time>
      </trkpt>
      <trkpt lat="44.90447" lon="6.07739">
        <ele>1539</ele>
        <time>2024-08-14T08:10:44Z</time>
      </trkpt>
      <trkpt lat="44.90446" lon="6.07736">
        <ele>1538.6</ele>
        <time>2024-08-14T08:10:45Z</time>
      </trkpt>
      <trkpt lat="44.90446" lon="6.07736">
        <ele>1538.4</ele>
        <time>2024-08-14T08:10:46Z</time>
      </trkpt>
      <trkpt lat="44.90444" lon="6.07734">
        <ele>1538.2</ele>
        <time>2024-08-14T08:10:47Z</time>
      </trkpt>
      <trkpt lat="44.90444" lon="6.07734">
        <ele>1538.2</ele>
        <time>2024-08-14T08:10:48Z</time>
      </trkpt>
      <trkpt lat="44.90442" lon="6.07733">
        <ele>1538</ele>
        <time>2024-08-14T08:10:49Z</time>
      </trkpt>
      <trkpt lat="44.90442" lon="6.07733">
        <ele>1537.6</ele>
        <time>2024-08-14T08:10:50Z</time>
      </trkpt>
      <trkpt lat="44.9044" lon="6.07735">
        <ele>1537.6</ele>
        <time>2024-08-14T08:10:51Z</time>
      </trkpt>
      <trkpt lat="44.9044" lon="6.07735">
        <ele>1537.4</ele>
        <time>2024-08-14T08:10:52Z</time>
      </trkpt>
      <trkpt lat="44.90437" lon="6.07735">
        <ele>1537</ele>
        <time>2024-08-14T08:10:53Z</time>
      </trkpt>
      <trkpt lat="44.90437" lon="6.07735">
        <ele>1536.4</ele>
        <time>2024-08-14T08:10:54Z</time>
      </trkpt>
      <trkpt lat="44.90434" lon="6.07735">
        <ele>1536</ele>
        <time>2024-08-14T08:10:55Z</time>
      </trkpt>
      <trkpt lat="44.90434" lon="6.07735">
        <ele>1536</ele>
        <time>2024-08-14T08:10:56Z</time>
      </trkpt>
      <trkpt lat="44.90432" lon="6.07733">
        <ele>1536</ele>
        <time>2024-08-14T08:10:57Z</time>
      </trkpt>
      <trkpt lat="44.90432" lon="6.07733">
        <ele>1536</ele>
        <time>2024-08-14T08:10:58Z</time>
      </trkpt>
      <trkpt lat="44.90429" lon="6.07732">
        <ele>1536</ele>
        <time>2024-08-14T08:10:59Z</time>
      </trkpt>
      <trkpt lat="44.90429" lon="6.07732">
        <ele>1535.8</ele>
        <time>2024-08-14T08:11:00Z</time>
      </trkpt>
      <trkpt lat="44.90427" lon="6.0773">
        <ele>1535.6</ele>
        <time>2024-08-14T08:11:01Z</time>
      </trkpt>
      <trkpt lat="44.90427" lon="6.0773">
        <ele>1535.6</ele>
        <time>2024-08-14T08:11:02Z</time>
      </trkpt>
      <trkpt lat="44.90424" lon="6.07729">
        <ele>1535.6</ele>
        <time>2024-08-14T08:11:03Z</time>
      </trkpt>
      <trkpt lat="44.90424" lon="6.07729">
        <ele>1535.4</ele>
        <time>2024-08-14T08:11:04Z</time>
      </trkpt>
      <trkpt lat="44.90422" lon="6.07728">
        <ele>1535.2</ele>
        <time>2024-08-14T08:11:05Z</time>
      </trkpt>
      <trkpt lat="44.90422" lon="6.07728">
        <ele>1535</ele>
        <time>2024-08-14T08:11:06Z</time>
      </trkpt>
      <trkpt lat="44.90418" lon="6.07727">
        <ele>1535</ele>
        <time>2024-08-14T08:11:07Z</time>
      </trkpt>
      <trkpt lat="44.90418" lon="6.07727">
        <ele>1534.6</ele>
        <time>2024-08-14T08:11:08Z</time>
      </trkpt>
      <trkpt lat="44.90416" lon="6.07726">
        <ele>1534.4</ele>
        <time>2024-08-14T08:11:09Z</time>
      </trkpt>
      <trkpt lat="44.90416" lon="6.07726">
        <ele>1534.4</ele>
        <time>2024-08-14T08:11:10Z</time>
      </trkpt>
      <trkpt lat="44.90416" lon="6.07723">
        <ele>1534.2</ele>
        <time>2024-08-14T08:11:11Z</time>
      </trkpt>
      <trkpt lat="44.90416" lon="6.07723">
        <ele>1534.2</ele>
        <time>2024-08-14T08:11:12Z</time>
      </trkpt>
      <trkpt lat="44.90419" lon="6.07721">
        <ele>1534</ele>
        <time>2024-08-14T08:11:13Z</time>
      </trkpt>
      <trkpt lat="44.90419" lon="6.07721">
        <ele>1534</ele>
        <time>2024-08-14T08:11:14Z</time>
      </trkpt>
      <trkpt lat="44.90422" lon="6.07721">
        <ele>1533.6</ele>
        <time>2024-08-14T08:11:15Z</time>
      </trkpt>
      <trkpt lat="44.90422" lon="6.07721">
        <ele>1533.4</ele>
        <time>2024-08-14T08:11:16Z</time>
      </trkpt>
      <trkpt lat="44.90425" lon="6.0772">
        <ele>1533.4</ele>
        <time>2024-08-14T08:11:17Z</time>
      </trkpt>
      <trkpt lat="44.90425" lon="6.0772">
        <ele>1532.8</ele>
        <time>2024-08-14T08:11:18Z</time>
      </trkpt>
      <trkpt lat="44.90427" lon="6.07719">
        <ele>1532.4</ele>
        <time>2024-08-14T08:11:19Z</time>
      </trkpt>
      <trkpt lat="44.90427" lon="6.07719">
        <ele>1532.4</ele>
        <time>2024-08-14T08:11:20Z</time>
      </trkpt>
      <trkpt lat="44.9043" lon="6.07718">
        <ele>1532.2</ele>
        <time>2024-08-14T08:11:21Z</time>
      </trkpt>
      <trkpt lat="44.9043" lon="6.07718">
        <ele>1531.8</ele>
        <time>2024-08-14T08:11:22Z</time>
      </trkpt>
      <trkpt lat="44.90433" lon="6.07718">
        <ele>1531.6</ele>
        <time>2024-08-14T08:11:23Z</time>
      </trkpt>
      <trkpt lat="44.90433" lon="6.07718">
        <ele>1531.4</ele>
        <time>2024-08-14T08:11:24Z</time>
      </trkpt>
      <trkpt lat="44.90436" lon="6.07719">
        <ele>1531.2</ele>
        <time>2024-08-14T08:11:25Z</time>
      </trkpt>
      <trkpt lat="44.90436" lon="6.07719">
        <ele>1531</ele>
        <time>2024-08-14T08:11:26Z</time>
      </trkpt>
      <trkpt lat="44.90438" lon="6.07719">
        <ele>1530.6</ele>
        <time>2024-08-14T08:11:27Z</time>
      </trkpt>
      <trkpt lat="44.90438" lon="6.07719">
        <ele>1530.4</ele>
        <time>2024-08-14T08:11:28Z</time>
      </trkpt>
      <trkpt lat="44.90441" lon="6.07718">
        <ele>1530.2</ele>
        <time>2024-08-14T08:11:29Z</time>
      </trkpt>
      <trkpt lat="44.90441" lon="6.07718">
        <ele>1530.2</ele>
        <time>2024-08-14T08:11:30Z</time>
      </trkpt>
      <trkpt lat="44.90444" lon="6.07717">
        <ele>1529.8</ele>
        <time>2024-08-14T08:11:31Z</time>
      </trkpt>
      <trkpt lat="44.90444" lon="6.07717">
        <ele>1529.6</ele>
        <time>2024-08-14T08:11:32Z</time>
      </trkpt>
      <trkpt lat="44.90446" lon="6.07717">
        <ele>1529.6</ele>
        <time>2024-08-14T08:11:33Z</time>
      </trkpt>
      <trkpt lat="44.90446" lon="6.07717">
        <ele>1529.4</ele>
        <time>2024-08-14T08:11:34Z</time>
      </trkpt>
      <trkpt lat="44.90449" lon="6.07716">
        <ele>1529.2</ele>
        <time>2024-08-14T08:11:35Z</time>
      </trkpt>
      <trkpt lat="44.90449" lon="6.07716">
        <ele>1529</ele>
        <time>2024-08-14T08:11:36Z</time>
      </trkpt>
      <trkpt lat="44.90452" lon="6.07715">
        <ele>1528.8</ele>
        <time>2024-08-14T08:11:37Z</time>
      </trkpt>
      <trkpt lat="44.90452" lon="6.07715">
        <ele>1528.4</ele>
        <time>2024-08-14T08:11:38Z</time>
      </trkpt>
      <trkpt lat="44.90454" lon="6.07713">
        <ele>1528.2</ele>
        <time>2024-08-14T08:11:39Z</time>
      </trkpt>
      <trkpt lat="44.90454" lon="6.07713">
        <ele>1528</ele>
        <time>2024-08-14T08:11:40Z</time>
      </trkpt>
      <trkpt lat="44.90457" lon="6.07713">
        <ele>1527.8</ele>
        <time>2024-08-14T08:11:41Z</time>
      </trkpt>
      <trkpt lat="44.90457" lon="6.07713">
        <ele>1527.4</ele>
        <time>2024-08-14T08:11:42Z</time>
      </trkpt>
      <trkpt lat="44.9046" lon="6.07712">
        <ele>1527.2</ele>
        <time>2024-08-14T08:11:43Z</time>
      </trkpt>
      <trkpt lat="44.9046" lon="6.07712">
        <ele>1527</ele>
        <time>2024-08-14T08:11:44Z</time>
      </trkpt>
      <trkpt lat="44.90462" lon="6.07711">
        <ele>1526.6</ele>
        <time>2024-08-14T08:11:45Z</time>
      </trkpt>
      <trkpt lat="44.90464" lon="6.0771">
        <ele>1526.6</ele>
        <time>2024-08-14T08:11:46Z</time>
      </trkpt>
      <trkpt lat="44.90464" lon="6.0771">
        <ele>1526.4</ele>
        <time>2024-08-14T08:11:47Z</time>
      </trkpt>
      <trkpt lat="44.90466" lon="6.07708">
        <ele>1526.2</ele>
        <time>2024-08-14T08:11:48Z</time>
      </trkpt>
      <trkpt lat="44.90466" lon="6.07708">
        <ele>1526</ele>
        <time>2024-08-14T08:11:49Z</time>
      </trkpt>
      <trkpt lat="44.90469" lon="6.07706">
        <ele>1525.8</ele>
        <time>2024-08-14T08:11:50Z</time>
      </trkpt>
      <trkpt lat="44.90469" lon="6.07706">
        <ele>1525.6</ele>
        <time>2024-08-14T08:11:51Z</time>
      </trkpt>
      <trkpt lat="44.90471" lon="6.07705">
        <ele>1525.4</ele>
        <time>2024-08-14T08:11:52Z</time>
      </trkpt>
      <trkpt lat="44.90471" lon="6.07705">
        <ele>1525.4</ele>
        <time>2024-08-14T08:11:53Z</time>
      </trkpt>
      <trkpt lat="44.90473" lon="6.07702">
        <ele>1525.8</ele>
        <time>2024-08-14T08:11:54Z</time>
      </trkpt>
      <trkpt lat="44.90473" lon="6.07702">
        <ele>1525.8</ele>
        <time>2024-08-14T08:11:55Z</time>
      </trkpt>
      <trkpt lat="44.90476" lon="6.07701">
        <ele>1525.6</ele>
        <time>2024-08-14T08:11:56Z</time>
      </trkpt>
      <trkpt lat="44.90476" lon="6.07701">
        <ele>1524.8</ele>
        <time>2024-08-14T08:11:57Z</time>
      </trkpt>
      <trkpt lat="44.90478" lon="6.077">
        <ele>1524.8</ele>
        <time>2024-08-14T08:11:58Z</time>
      </trkpt>
      <trkpt lat="44.90478" lon="6.077">
        <ele>1524.4</ele>
        <time>2024-08-14T08:11:59Z</time>
      </trkpt>
      <trkpt lat="44.90481" lon="6.07699">
        <ele>1524.4</ele>
        <time>2024-08-14T08:12:00Z</time>
      </trkpt>
      <trkpt lat="44.90481" lon="6.07699">
        <ele>1524.2</ele>
        <time>2024-08-14T08:12:01Z</time>
      </trkpt>
      <trkpt lat="44.90484" lon="6.07697">
        <ele>1523.8</ele>
        <time>2024-08-14T08:12:02Z</time>
      </trkpt>
      <trkpt lat="44.90485" lon="6.07696">
        <ele>1523.8</ele>
        <time>2024-08-14T08:12:03Z</time>
      </trkpt>
      <trkpt lat="44.90485" lon="6.07696">
        <ele>1523.4</ele>
        <time>2024-08-14T08:12:04Z</time>
      </trkpt>
      <trkpt lat="44.90488" lon="6.07693">
        <ele>1523.2</ele>
        <time>2024-08-14T08:12:05Z</time>
      </trkpt>
      <trkpt lat="44.90488" lon="6.07693">
        <ele>1523</ele>
        <time>2024-08-14T08:12:06Z</time>
      </trkpt>
      <trkpt lat="44.9049" lon="6.0769">
        <ele>1523</ele>
        <time>2024-08-14T08:12:07Z</time>
      </trkpt>
      <trkpt lat="44.9049" lon="6.0769">
        <ele>1523</ele>
        <time>2024-08-14T08:12:08Z</time>
      </trkpt>
      <trkpt lat="44.90491" lon="6.07687">
        <ele>1522.8</ele>
        <time>2024-08-14T08:12:09Z</time>
      </trkpt>
      <trkpt lat="44.90491" lon="6.07687">
        <ele>1522.6</ele>
        <time>2024-08-14T08:12:10Z</time>
      </trkpt>
      <trkpt lat="44.90493" lon="6.07684">
        <ele>1522.6</ele>
        <time>2024-08-14T08:12:11Z</time>
      </trkpt>
      <trkpt lat="44.90493" lon="6.07684">
        <ele>1522.2</ele>
        <time>2024-08-14T08:12:12Z</time>
      </trkpt>
      <trkpt lat="44.90495" lon="6.07682">
        <ele>1522.2</ele>
        <time>2024-08-14T08:12:13Z</time>
      </trkpt>
      <trkpt lat="44.90495" lon="6.07682">
        <ele>1522.2</ele>
        <time>2024-08-14T08:12:14Z</time>
      </trkpt>
      <trkpt lat="44.90498" lon="6.0768">
        <ele>1521.8</ele>
        <time>2024-08-14T08:12:15Z</time>
      </trkpt>
      <trkpt lat="44.90498" lon="6.0768">
        <ele>1521.8</ele>
        <time>2024-08-14T08:12:16Z</time>
      </trkpt>
      <trkpt lat="44.905" lon="6.07677">
        <ele>1521.6</ele>
        <time>2024-08-14T08:12:17Z</time>
      </trkpt>
      <trkpt lat="44.905" lon="6.07677">
        <ele>1521.6</ele>
        <time>2024-08-14T08:12:18Z</time>
      </trkpt>
      <trkpt lat="44.90501" lon="6.07675">
        <ele>1521.6</ele>
        <time>2024-08-14T08:12:19Z</time>
      </trkpt>
      <trkpt lat="44.90501" lon="6.07675">
        <ele>1521.2</ele>
        <time>2024-08-14T08:12:20Z</time>
      </trkpt>
      <trkpt lat="44.90503" lon="6.07672">
        <ele>1521.2</ele>
        <time>2024-08-14T08:12:21Z</time>
      </trkpt>
      <trkpt lat="44.90503" lon="6.07672">
        <ele>1520.8</ele>
        <time>2024-08-14T08:12:22Z</time>
      </trkpt>
      <trkpt lat="44.90504" lon="6.07669">
        <ele>1520.8</ele>
        <time>2024-08-14T08:12:23Z</time>
      </trkpt>
      <trkpt lat="44.90504" lon="6.07669">
        <ele>1520.6</ele>
        <time>2024-08-14T08:12:24Z</time>
      </trkpt>
      <trkpt lat="44.90506" lon="6.07666">
        <ele>1520.6</ele>
        <time>2024-08-14T08:12:25Z</time>
      </trkpt>
      <trkpt lat="44.90506" lon="6.07666">
        <ele>1520.2</ele>
        <time>2024-08-14T08:12:26Z</time>
      </trkpt>
      <trkpt lat="44.90508" lon="6.07663">
        <ele>1520.2</ele>
        <time>2024-08-14T08:12:27Z</time>
      </trkpt>
      <trkpt lat="44.90508" lon="6.07663">
        <ele>1520.2</ele>
        <time>2024-08-14T08:12:28Z</time>
      </trkpt>
      <trkpt lat="44.90509" lon="6.0766">
        <ele>1520.2</ele>
        <time>2024-08-14T08:12:29Z</time>
      </trkpt>
      <trkpt lat="44.90509" lon="6.0766">
        <ele>1519.8</ele>
        <time>2024-08-14T08:12:30Z</time>
      </trkpt>
      <trkpt lat="44.9051" lon="6.07656">
        <ele>1519.8</ele>
        <time>2024-08-14T08:12:31Z</time>
      </trkpt>
      <trkpt lat="44.9051" lon="6.07656">
        <ele>1519.6</ele>
        <time>2024-08-14T08:12:32Z</time>
      </trkpt>
      <trkpt lat="44.90512" lon="6.07653">
        <ele>1519.6</ele>
        <time>2024-08-14T08:12:33Z</time>
      </trkpt>
      <trkpt lat="44.90512" lon="6.07653">
        <ele>1519.6</ele>
        <time>2024-08-14T08:12:34Z</time>
      </trkpt>
      <trkpt lat="44.90514" lon="6.07649">
        <ele>1519.4</ele>
        <time>2024-08-14T08:12:35Z</time>
      </trkpt>
      <trkpt lat="44.90514" lon="6.07649">
        <ele>1519.2</ele>
        <time>2024-08-14T08:12:36Z</time>
      </trkpt>
      <trkpt lat="44.90516" lon="6.07647">
        <ele>1519</ele>
        <time>2024-08-14T08:12:37Z</time>
      </trkpt>
      <trkpt lat="44.90516" lon="6.07647">
        <ele>1519</ele>
        <time>2024-08-14T08:12:38Z</time>
      </trkpt>
      <trkpt lat="44.90517" lon="6.07644">
        <ele>1518.8</ele>
        <time>2024-08-14T08:12:39Z</time>
      </trkpt>
      <trkpt lat="44.90517" lon="6.07644">
        <ele>1518.6</ele>
        <time>2024-08-14T08:12:40Z</time>
      </trkpt>
      <trkpt lat="44.90519" lon="6.07641">
        <ele>1518.4</ele>
        <time>2024-08-14T08:12:41Z</time>
      </trkpt>
      <trkpt lat="44.90519" lon="6.07641">
        <ele>1518.2</ele>
        <time>2024-08-14T08:12:42Z</time>
      </trkpt>
      <trkpt lat="44.90521" lon="6.07638">
        <ele>1518</ele>
        <time>2024-08-14T08:12:43Z</time>
      </trkpt>
      <trkpt lat="44.90521" lon="6.07638">
        <ele>1517.8</ele>
        <time>2024-08-14T08:12:44Z</time>
      </trkpt>
      <trkpt lat="44.90524" lon="6.07636">
        <ele>1517.8</ele>
        <time>2024-08-14T08:12:45Z</time>
      </trkpt>
      <trkpt lat="44.90524" lon="6.07636">
        <ele>1517.4</ele>
        <time>2024-08-14T08:12:46Z</time>
      </trkpt>
      <trkpt lat="44.90525" lon="6.07634">
        <ele>1517.2</ele>
        <time>2024-08-14T08:12:47Z</time>
      </trkpt>
      <trkpt lat="44.90525" lon="6.07634">
        <ele>1517.2</ele>
        <time>2024-08-14T08:12:48Z</time>
      </trkpt>
      <trkpt lat="44.90527" lon="6.07631">
        <ele>1517</ele>
        <time>2024-08-14T08:12:49Z</time>
      </trkpt>
      <trkpt lat="44.90527" lon="6.07631">
        <ele>1516.8</ele>
        <time>2024-08-14T08:12:50Z</time>
      </trkpt>
      <trkpt lat="44.90529" lon="6.07629">
        <ele>1516.6</ele>
        <time>2024-08-14T08:12:51Z</time>
      </trkpt>
      <trkpt lat="44.90529" lon="6.07629">
        <ele>1516.4</ele>
        <time>2024-08-14T08:12:52Z</time>
      </trkpt>
      <trkpt lat="44.90531" lon="6.07626">
        <ele>1516</ele>
        <time>2024-08-14T08:12:53Z</time>
      </trkpt>
      <trkpt lat="44.90531" lon="6.07626">
        <ele>1516</ele>
        <time>2024-08-14T08:12:54Z</time>
      </trkpt>
      <trkpt lat="44.90533" lon="6.07623">
        <ele>1515.8</ele>
        <time>2024-08-14T08:12:55Z</time>
      </trkpt>
      <trkpt lat="44.90533" lon="6.07623">
        <ele>1515.6</ele>
        <time>2024-08-14T08:12:56Z</time>
      </trkpt>
      <trkpt lat="44.90535" lon="6.07621">
        <ele>1515.6</ele>
        <time>2024-08-14T08:12:57Z</time>
      </trkpt>
      <trkpt lat="44.90535" lon="6.07621">
        <ele>1515.2</ele>
        <time>2024-08-14T08:12:58Z</time>
      </trkpt>
      <trkpt lat="44.90536" lon="6.07618">
        <ele>1515.2</ele>
        <time>2024-08-14T08:12:59Z</time>
      </trkpt>
      <trkpt lat="44.90536" lon="6.07618">
        <ele>1515.2</ele>
        <time>2024-08-14T08:13:00Z</time>
      </trkpt>
      <trkpt lat="44.90536" lon="6.07618">
        <ele>1515</ele>
        <time>2024-08-14T08:13:01Z</time>
      </trkpt>
      <trkpt lat="44.90538" lon="6.07615">
        <ele>1514.6</ele>
        <time>2024-08-14T08:13:02Z</time>
      </trkpt>
      <trkpt lat="44.90538" lon="6.07615">
        <ele>1514.6</ele>
        <time>2024-08-14T08:13:03Z</time>
      </trkpt>
      <trkpt lat="44.9054" lon="6.07613">
        <ele>1514.2</ele>
        <time>2024-08-14T08:13:04Z</time>
      </trkpt>
      <trkpt lat="44.9054" lon="6.07613">
        <ele>1514</ele>
        <time>2024-08-14T08:13:05Z</time>
      </trkpt>
      <trkpt lat="44.90541" lon="6.0761">
        <ele>1513.8</ele>
        <time>2024-08-14T08:13:06Z</time>
      </trkpt>
      <trkpt lat="44.90541" lon="6.0761">
        <ele>1513.2</ele>
        <time>2024-08-14T08:13:07Z</time>
      </trkpt>
      <trkpt lat="44.90544" lon="6.07609">
        <ele>1512.8</ele>
        <time>2024-08-14T08:13:08Z</time>
      </trkpt>
      <trkpt lat="44.90544" lon="6.07609">
        <ele>1512.6</ele>
        <time>2024-08-14T08:13:09Z</time>
      </trkpt>
      <trkpt lat="44.90547" lon="6.07608">
        <ele>1512.6</ele>
        <time>2024-08-14T08:13:10Z</time>
      </trkpt>
      <trkpt lat="44.90547" lon="6.07608">
        <ele>1512</ele>
        <time>2024-08-14T08:13:11Z</time>
      </trkpt>
      <trkpt lat="44.90549" lon="6.07608">
        <ele>1512</ele>
        <time>2024-08-14T08:13:12Z</time>
      </trkpt>
      <trkpt lat="44.90549" lon="6.07608">
        <ele>1511.8</ele>
        <time>2024-08-14T08:13:13Z</time>
      </trkpt>
      <trkpt lat="44.90552" lon="6.07608">
        <ele>1511.8</ele>
        <time>2024-08-14T08:13:14Z</time>
      </trkpt>
      <trkpt lat="44.90552" lon="6.07608">
        <ele>1511.6</ele>
        <time>2024-08-14T08:13:15Z</time>
      </trkpt>
      <trkpt lat="44.90555" lon="6.07608">
        <ele>1511.6</ele>
        <time>2024-08-14T08:13:16Z</time>
      </trkpt>
      <trkpt lat="44.90555" lon="6.07608">
        <ele>1511.6</ele>
        <time>2024-08-14T08:13:17Z</time>
      </trkpt>
      <trkpt lat="44.90557" lon="6.07608">
        <ele>1511.6</ele>
        <time>2024-08-14T08:13:18Z</time>
      </trkpt>
      <trkpt lat="44.90557" lon="6.07608">
        <ele>1511.6</ele>
        <time>2024-08-14T08:13:19Z</time>
      </trkpt>
      <trkpt lat="44.90559" lon="6.07608">
        <ele>1511.4</ele>
        <time>2024-08-14T08:13:20Z</time>
      </trkpt>
      <trkpt lat="44.90559" lon="6.07608">
        <ele>1511.2</ele>
        <time>2024-08-14T08:13:21Z</time>
      </trkpt>
      <trkpt lat="44.90561" lon="6.07608">
        <ele>1511.2</ele>
        <time>2024-08-14T08:13:22Z</time>
      </trkpt>
      <trkpt lat="44.90561" lon="6.07608">
        <ele>1510.8</ele>
        <time>2024-08-14T08:13:23Z</time>
      </trkpt>
      <trkpt lat="44.90564" lon="6.07609">
        <ele>1510.8</ele>
        <time>2024-08-14T08:13:24Z</time>
      </trkpt>
      <trkpt lat="44.90564" lon="6.07609">
        <ele>1510.8</ele>
        <time>2024-08-14T08:13:25Z</time>
      </trkpt>
      <trkpt lat="44.90567" lon="6.0761">
        <ele>1510.8</ele>
        <time>2024-08-14T08:13:26Z</time>
      </trkpt>
      <trkpt lat="44.90567" lon="6.0761">
        <ele>1510.2</ele>
        <time>2024-08-14T08:13:27Z</time>
      </trkpt>
      <trkpt lat="44.9057" lon="6.0761">
        <ele>1510.2</ele>
        <time>2024-08-14T08:13:28Z</time>
      </trkpt>
      <trkpt lat="44.9057" lon="6.0761">
        <ele>1510.2</ele>
        <time>2024-08-14T08:13:29Z</time>
      </trkpt>
      <trkpt lat="44.90573" lon="6.07609">
        <ele>1510</ele>
        <time>2024-08-14T08:13:30Z</time>
      </trkpt>
      <trkpt lat="44.90573" lon="6.07609">
        <ele>1509.8</ele>
        <time>2024-08-14T08:13:31Z</time>
      </trkpt>
      <trkpt lat="44.90575" lon="6.07609">
        <ele>1509.8</ele>
        <time>2024-08-14T08:13:32Z</time>
      </trkpt>
      <trkpt lat="44.90575" lon="6.07609">
        <ele>1509.6</ele>
        <time>2024-08-14T08:13:33Z</time>
      </trkpt>
      <trkpt lat="44.90578" lon="6.07609">
        <ele>1509.4</ele>
        <time>2024-08-14T08:13:34Z</time>
      </trkpt>
      <trkpt lat="44.90578" lon="6.07609">
        <ele>1509.2</ele>
        <time>2024-08-14T08:13:35Z</time>
      </trkpt>
      <trkpt lat="44.90578" lon="6.07609">
        <ele>1509.2</ele>
        <time>2024-08-14T08:13:36Z</time>
      </trkpt>
      <trkpt lat="44.90578" lon="6.07609">
        <ele>1509.2</ele>
        <time>2024-08-14T08:13:37Z</time>
      </trkpt>
      <trkpt lat="44.90578" lon="6.07609">
        <ele>1509</ele>
        <time>2024-08-14T08:13:38Z</time>
      </trkpt>
      <trkpt lat="44.90578" lon="6.07609">
        <ele>1509</ele>
        <time>2024-08-14T08:13:39Z</time>
      </trkpt>
      <trkpt lat="44.90578" lon="6.07609">
        <ele>1508.8</ele>
        <time>2024-08-14T08:13:40Z</time>
      </trkpt>
      <trkpt lat="44.90578" lon="6.07609">
        <ele>1508.8</ele>
        <time>2024-08-14T08:13:41Z</time>
      </trkpt>
      <trkpt lat="44.90578" lon="6.07609">
        <ele>1508.8</ele>
        <time>2024-08-14T08:13:42Z</time>
      </trkpt>
      <trkpt lat="44.90578" lon="6.07609">
        <ele>1508.8</ele>
        <time>2024-08-14T08:13:43Z</time>
      </trkpt>
      <trkpt lat="44.90578" lon="6.07609">
        <ele>1508.8</ele>
        <time>2024-08-14T08:13:44Z</time>
      </trkpt>
      <trkpt lat="44.90578" lon="6.07609">
        <ele>1509</ele>
        <time>2024-08-14T08:13:45Z</time>
      </trkpt>
      <trkpt lat="44.90578" lon="6.07609">
        <ele>1509</ele>
        <time>2024-08-14T08:13:46Z</time>
      </trkpt>
      <trkpt lat="44.90578" lon="6.07609">
        <ele>1508.8</ele>
        <time>2024-08-14T08:13:47Z</time>
      </trkpt>
      <trkpt lat="44.90578" lon="6.07609">
        <ele>1508.8</ele>
        <time>2024-08-14T08:13:48Z</time>
      </trkpt>
      <trkpt lat="44.90578" lon="6.07609">
        <ele>1508.8</ele>
        <time>2024-08-14T08:13:49Z</time>
      </trkpt>
      <trkpt lat="44.90578" lon="6.07609">
        <ele>1508.8</ele>
        <time>2024-08-14T08:13:50Z</time>
      </trkpt>
      <trkpt lat="44.90578" lon="6.07609">
        <ele>1508.8</ele>
        <time>2024-08-14T08:13:51Z</time>
      </trkpt>
      <trkpt lat="44.90578" lon="6.07609">
        <ele>1508.8</ele>
        <time>2024-08-14T08:13:52Z</time>
      </trkpt>
      <trkpt lat="44.90578" lon="6.07609">
        <ele>1508.6</ele>
        <time>2024-08-14T08:13:53Z</time>
      </trkpt>
      <trkpt lat="44.90578" lon="6.07609">
        <ele>1508.6</ele>
        <time>2024-08-14T08:13:54Z</time>
      </trkpt>
      <trkpt lat="44.90578" lon="6.07609">
        <ele>1508.6</ele>
        <time>2024-08-14T08:13:55Z</time>
      </trkpt>
      <trkpt lat="44.90578" lon="6.07609">
        <ele>1508.6</ele>
        <time>2024-08-14T08:13:56Z</time>
      </trkpt>
      <trkpt lat="44.90578" lon="6.07609">
        <ele>1508.4</ele>
        <time>2024-08-14T08:13:57Z</time>
      </trkpt>
      <trkpt lat="44.90578" lon="6.07609">
        <ele>1508.4</ele>
        <time>2024-08-14T08:13:58Z</time>
      </trkpt>
      <trkpt lat="44.90578" lon="6.07609">
        <ele>1508.6</ele>
        <time>2024-08-14T08:13:59Z</time>
      </trkpt>
      <trkpt lat="44.9058" lon="6.07609">
        <ele>1508.8</ele>
        <time>2024-08-14T08:14:00Z</time>
      </trkpt>
      <trkpt lat="44.9058" lon="6.07609">
        <ele>1508.8</ele>
        <time>2024-08-14T08:14:01Z</time>
      </trkpt>
      <trkpt lat="44.9058" lon="6.07609">
        <ele>1508.6</ele>
        <time>2024-08-14T08:14:02Z</time>
      </trkpt>
      <trkpt lat="44.9058" lon="6.07609">
        <ele>1508.6</ele>
        <time>2024-08-14T08:14:03Z</time>
      </trkpt>
      <trkpt lat="44.90581" lon="6.07611">
        <ele>1508.6</ele>
        <time>2024-08-14T08:14:04Z</time>
      </trkpt>
      <trkpt lat="44.90581" lon="6.07611">
        <ele>1508.6</ele>
        <time>2024-08-14T08:14:05Z</time>
      </trkpt>
      <trkpt lat="44.90581" lon="6.07611">
        <ele>1508.6</ele>
        <time>2024-08-14T08:14:06Z</time>
      </trkpt>
      <trkpt lat="44.90581" lon="6.07611">
        <ele>1508.6</ele>
        <time>2024-08-14T08:14:07Z</time>
      </trkpt>
      <trkpt lat="44.90581" lon="6.07611">
        <ele>1508.4</ele>
        <time>2024-08-14T08:14:08Z</time>
      </trkpt>
      <trkpt lat="44.90581" lon="6.07611">
        <ele>1508.4</ele>
        <time>2024-08-14T08:14:09Z</time>
      </trkpt>
      <trkpt lat="44.90581" lon="6.07611">
        <ele>1508</ele>
        <time>2024-08-14T08:14:10Z</time>
      </trkpt>
      <trkpt lat="44.90581" lon="6.07611">
        <ele>1508</ele>
        <time>2024-08-14T08:14:11Z</time>
      </trkpt>
      <trkpt lat="44.90581" lon="6.07611">
        <ele>1508</ele>
        <time>2024-08-14T08:14:12Z</time>
      </trkpt>
      <trkpt lat="44.90581" lon="6.07611">
        <ele>1508.4</ele>
        <time>2024-08-14T08:14:13Z</time>
      </trkpt>
      <trkpt lat="44.90581" lon="6.07611">
        <ele>1508.4</ele>
        <time>2024-08-14T08:14:14Z</time>
      </trkpt>
      <trkpt lat="44.90581" lon="6.07611">
        <ele>1508.4</ele>
        <time>2024-08-14T08:14:15Z</time>
      </trkpt>
      <trkpt lat="44.90581" lon="6.07611">
        <ele>1508.2</ele>
        <time>2024-08-14T08:14:16Z</time>
      </trkpt>
      <trkpt lat="44.90581" lon="6.07611">
        <ele>1508.2</ele>
        <time>2024-08-14T08:14:17Z</time>
      </trkpt>
      <trkpt lat="44.90581" lon="6.07611">
        <ele>1508</ele>
        <time>2024-08-14T08:14:18Z</time>
      </trkpt>
      <trkpt lat="44.90581" lon="6.07611">
        <ele>1508</ele>
        <time>2024-08-14T08:14:19Z</time>
      </trkpt>
      <trkpt lat="44.90581" lon="6.07611">
        <ele>1508</ele>
        <time>2024-08-14T08:14:20Z</time>
      </trkpt>
      <trkpt lat="44.90581" lon="6.07611">
        <ele>1508</ele>
        <time>2024-08-14T08:14:21Z</time>
      </trkpt>
      <trkpt lat="44.90581" lon="6.07611">
        <ele>1508.2</ele>
        <time>2024-08-14T08:14:22Z</time>
      </trkpt>
      <trkpt lat="44.90581" lon="6.07611">
        <ele>1508.4</ele>
        <time>2024-08-14T08:14:23Z</time>
      </trkpt>
      <trkpt lat="44.90581" lon="6.07611">
        <ele>1508.4</ele>
        <time>2024-08-14T08:14:24Z</time>
      </trkpt>
      <trkpt lat="44.90581" lon="6.07611">
        <ele>1508.4</ele>
        <time>2024-08-14T08:14:25Z</time>
      </trkpt>
      <trkpt lat="44.90581" lon="6.07611">
        <ele>1508</ele>
        <time>2024-08-14T08:14:26Z</time>
      </trkpt>
      <trkpt lat="44.90581" lon="6.07611">
        <ele>1508</ele>
        <time>2024-08-14T08:14:27Z</time>
      </trkpt>
      <trkpt lat="44.90581" lon="6.07611">
        <ele>1508</ele>
        <time>2024-08-14T08:14:28Z</time>
      </trkpt>
      <trkpt lat="44.90581" lon="6.07611">
        <ele>1508</ele>
        <time>2024-08-14T08:14:29Z</time>
      </trkpt>
      <trkpt lat="44.90581" lon="6.07611">
        <ele>1508.2</ele>
        <time>2024-08-14T08:14:30Z</time>
      </trkpt>
      <trkpt lat="44.90581" lon="6.07611">
        <ele>1508.2</ele>
        <time>2024-08-14T08:14:31Z</time>
      </trkpt>
      <trkpt lat="44.90581" lon="6.07611">
        <ele>1508.2</ele>
        <time>2024-08-14T08:14:32Z</time>
      </trkpt>
      <trkpt lat="44.90581" lon="6.07611">
        <ele>1508.2</ele>
        <time>2024-08-14T08:14:33Z</time>
      </trkpt>
      <trkpt lat="44.90581" lon="6.07611">
        <ele>1508.2</ele>
        <time>2024-08-14T08:14:34Z</time>
      </trkpt>
      <trkpt lat="44.90581" lon="6.07611">
        <ele>1508.2</ele>
        <time>2024-08-14T08:14:35Z</time>
      </trkpt>
      <trkpt lat="44.90581" lon="6.07611">
        <ele>1508.4</ele>
        <time>2024-08-14T08:14:36Z</time>
      </trkpt>
      <trkpt lat="44.90581" lon="6.07611">
        <ele>1508.2</ele>
        <time>2024-08-14T08:14:37Z</time>
      </trkpt>
      <trkpt lat="44.90581" lon="6.07611">
        <ele>1508</ele>
        <time>2024-08-14T08:14:38Z</time>
      </trkpt>
      <trkpt lat="44.90581" lon="6.07611">
        <ele>1508</ele>
        <time>2024-08-14T08:14:39Z</time>
      </trkpt>
      <trkpt lat="44.90581" lon="6.07611">
        <ele>1508</ele>
        <time>2024-08-14T08:14:40Z</time>
      </trkpt>
      <trkpt lat="44.90581" lon="6.07611">
        <ele>1508</ele>
        <time>2024-08-14T08:14:41Z</time>
      </trkpt>
      <trkpt lat="44.90581" lon="6.07611">
        <ele>1508</ele>
        <time>2024-08-14T08:14:42Z</time>
      </trkpt>
      <trkpt lat="44.90581" lon="6.07611">
        <ele>1508</ele>
        <time>2024-08-14T08:14:43Z</time>
      </trkpt>
      <trkpt lat="44.90581" lon="6.07611">
        <ele>1508</ele>
        <time>2024-08-14T08:14:44Z</time>
      </trkpt>
      <trkpt lat="44.90581" lon="6.07611">
        <ele>1508</ele>
        <time>2024-08-14T08:14:45Z</time>
      </trkpt>
      <trkpt lat="44.90581" lon="6.07611">
        <ele>1508</ele>
        <time>2024-08-14T08:14:46Z</time>
      </trkpt>
      <trkpt lat="44.90581" lon="6.07611">
        <ele>1508</ele>
        <time>2024-08-14T08:14:47Z</time>
      </trkpt>
      <trkpt lat="44.90581" lon="6.07611">
        <ele>1507.8</ele>
        <time>2024-08-14T08:14:48Z</time>
      </trkpt>
      <trkpt lat="44.90581" lon="6.07611">
        <ele>1507.8</ele>
        <time>2024-08-14T08:14:49Z</time>
      </trkpt>
      <trkpt lat="44.90581" lon="6.07611">
        <ele>1508</ele>
        <time>2024-08-14T08:14:50Z</time>
      </trkpt>
      <trkpt lat="44.90581" lon="6.07611">
        <ele>1508</ele>
        <time>2024-08-14T08:14:51Z</time>
      </trkpt>
      <trkpt lat="44.90581" lon="6.07611">
        <ele>1508</ele>
        <time>2024-08-14T08:14:52Z</time>
      </trkpt>
      <trkpt lat="44.90581" lon="6.07611">
        <ele>1508</ele>
        <time>2024-08-14T08:14:53Z</time>
      </trkpt>
      <trkpt lat="44.90581" lon="6.07611">
        <ele>1508</ele>
        <time>2024-08-14T08:14:54Z</time>
      </trkpt>
      <trkpt lat="44.90581" lon="6.07611">
        <ele>1508</ele>
        <time>2024-08-14T08:14:55Z</time>
      </trkpt>
      <trkpt lat="44.90581" lon="6.07611">
        <ele>1507.8</ele>
        <time>2024-08-14T08:14:56Z</time>
      </trkpt>
      <trkpt lat="44.90581" lon="6.07611">
        <ele>1507.8</ele>
        <time>2024-08-14T08:14:57Z</time>
      </trkpt>
      <trkpt lat="44.90581" lon="6.07611">
        <ele>1507.6</ele>
        <time>2024-08-14T08:14:58Z</time>
      </trkpt>
      <trkpt lat="44.90581" lon="6.07611">
        <ele>1507.6</ele>
        <time>2024-08-14T08:14:59Z</time>
      </trkpt>
      <trkpt lat="44.90581" lon="6.07611">
        <ele>1507.6</ele>
        <time>2024-08-14T08:15:00Z</time>
      </trkpt>
      <trkpt lat="44.90581" lon="6.07611">
        <ele>1507.4</ele>
        <time>2024-08-14T08:15:01Z</time>
      </trkpt>
      <trkpt lat="44.90581" lon="6.07611">
        <ele>1507</ele>
        <time>2024-08-14T08:15:02Z</time>
      </trkpt>
      <trkpt lat="44.90581" lon="6.07611">
        <ele>1507</ele>
        <time>2024-08-14T08:15:03Z</time>
      </trkpt>
      <trkpt lat="44.90581" lon="6.07611">
        <ele>1507.2</ele>
        <time>2024-08-14T08:15:04Z</time>
      </trkpt>
      <trkpt lat="44.90581" lon="6.07611">
        <ele>1507.6</ele>
        <time>2024-08-14T08:15:05Z</time>
      </trkpt>
      <trkpt lat="44.90581" lon="6.07611">
        <ele>1507.4</ele>
        <time>2024-08-14T08:15:06Z</time>
      </trkpt>
      <trkpt lat="44.90581" lon="6.07611">
        <ele>1507.4</ele>
        <time>2024-08-14T08:15:07Z</time>
      </trkpt>
      <trkpt lat="44.90581" lon="6.07611">
        <ele>1507.4</ele>
        <time>2024-08-14T08:15:08Z</time>
      </trkpt>
      <trkpt lat="44.90581" lon="6.07611">
        <ele>1507.4</ele>
        <time>2024-08-14T08:15:09Z</time>
      </trkpt>
      <trkpt lat="44.90581" lon="6.07611">
        <ele>1507.4</ele>
        <time>2024-08-14T08:15:10Z</time>
      </trkpt>
      <trkpt lat="44.90581" lon="6.07611">
        <ele>1507.4</ele>
        <time>2024-08-14T08:15:11Z</time>
      </trkpt>
      <trkpt lat="44.90581" lon="6.07611">
        <ele>1507.4</ele>
        <time>2024-08-14T08:15:12Z</time>
      </trkpt>
      <trkpt lat="44.90581" lon="6.07611">
        <ele>1507.4</ele>
        <time>2024-08-14T08:15:13Z</time>
      </trkpt>
      <trkpt lat="44.90581" lon="6.07611">
        <ele>1507.2</ele>
        <time>2024-08-14T08:15:14Z</time>
      </trkpt>
      <trkpt lat="44.90581" lon="6.07611">
        <ele>1507</ele>
        <time>2024-08-14T08:15:15Z</time>
      </trkpt>
      <trkpt lat="44.90581" lon="6.07611">
        <ele>1507</ele>
        <time>2024-08-14T08:15:16Z</time>
      </trkpt>
      <trkpt lat="44.90581" lon="6.07611">
        <ele>1506.8</ele>
        <time>2024-08-14T08:15:17Z</time>
      </trkpt>
      <trkpt lat="44.90581" lon="6.07611">
        <ele>1506.8</ele>
        <time>2024-08-14T08:15:18Z</time>
      </trkpt>
      <trkpt lat="44.90581" lon="6.07611">
        <ele>1507</ele>
        <time>2024-08-14T08:15:19Z</time>
      </trkpt>
      <trkpt lat="44.90581" lon="6.07611">
        <ele>1507.2</ele>
        <time>2024-08-14T08:15:20Z</time>
      </trkpt>
      <trkpt lat="44.90581" lon="6.07611">
        <ele>1507.2</ele>
        <time>2024-08-14T08:15:21Z</time>
      </trkpt>
      <trkpt lat="44.90581" lon="6.07611">
        <ele>1507.2</ele>
        <time>2024-08-14T08:15:22Z</time>
      </trkpt>
      <trkpt lat="44.90581" lon="6.07611">
        <ele>1507.2</ele>
        <time>2024-08-14T08:15:23Z</time>
      </trkpt>
      <trkpt lat="44.90581" lon="6.07611">
        <ele>1507</ele>
        <time>2024-08-14T08:15:24Z</time>
      </trkpt>
      <trkpt lat="44.90581" lon="6.07611">
        <ele>1507</ele>
        <time>2024-08-14T08:15:25Z</time>
      </trkpt>
      <trkpt lat="44.90581" lon="6.07611">
        <ele>1507</ele>
        <time>2024-08-14T08:15:26Z</time>
      </trkpt>
      <trkpt lat="44.90581" lon="6.07611">
        <ele>1507.2</ele>
        <time>2024-08-14T08:15:27Z</time>
      </trkpt>
      <trkpt lat="44.90581" lon="6.07611">
        <ele>1507.2</ele>
        <time>2024-08-14T08:15:28Z</time>
      </trkpt>
      <trkpt lat="44.90581" lon="6.07611">
        <ele>1507.2</ele>
        <time>2024-08-14T08:15:29Z</time>
      </trkpt>
      <trkpt lat="44.90581" lon="6.07611">
        <ele>1507</ele>
        <time>2024-08-14T08:15:30Z</time>
      </trkpt>
      <trkpt lat="44.90581" lon="6.07611">
        <ele>1507</ele>
        <time>2024-08-14T08:15:31Z</time>
      </trkpt>
      <trkpt lat="44.90581" lon="6.07611">
        <ele>1507</ele>
        <time>2024-08-14T08:15:32Z</time>
      </trkpt>
      <trkpt lat="44.90581" lon="6.07611">
        <ele>1506.8</ele>
        <time>2024-08-14T08:15:33Z</time>
      </trkpt>
      <trkpt lat="44.90581" lon="6.07611">
        <ele>1506.8</ele>
        <time>2024-08-14T08:15:34Z</time>
      </trkpt>
      <trkpt lat="44.90581" lon="6.07611">
        <ele>1506.8</ele>
        <time>2024-08-14T08:15:35Z</time>
      </trkpt>
      <trkpt lat="44.90581" lon="6.07611">
        <ele>1506.8</ele>
        <time>2024-08-14T08:15:36Z</time>
      </trkpt>
      <trkpt lat="44.90581" lon="6.07611">
        <ele>1506.8</ele>
        <time>2024-08-14T08:15:37Z</time>
      </trkpt>
      <trkpt lat="44.90581" lon="6.07611">
        <ele>1506.8</ele>
        <time>2024-08-14T08:15:38Z</time>
      </trkpt>
      <trkpt lat="44.90581" lon="6.07611">
        <ele>1506.8</ele>
        <time>2024-08-14T08:15:39Z</time>
      </trkpt>
      <trkpt lat="44.90581" lon="6.07611">
        <ele>1506.8</ele>
        <time>2024-08-14T08:15:40Z</time>
      </trkpt>
      <trkpt lat="44.90581" lon="6.07611">
        <ele>1506.8</ele>
        <time>2024-08-14T08:15:41Z</time>
      </trkpt>
      <trkpt lat="44.90581" lon="6.07611">
        <ele>1506.8</ele>
        <time>2024-08-14T08:15:42Z</time>
      </trkpt>
      <trkpt lat="44.90581" lon="6.07611">
        <ele>1506.4</ele>
        <time>2024-08-14T08:15:43Z</time>
      </trkpt>
      <trkpt lat="44.90581" lon="6.07611">
        <ele>1506.4</ele>
        <time>2024-08-14T08:15:44Z</time>
      </trkpt>
      <trkpt lat="44.90581" lon="6.07611">
        <ele>1506.6</ele>
        <time>2024-08-14T08:15:45Z</time>
      </trkpt>
      <trkpt lat="44.90581" lon="6.07611">
        <ele>1506.4</ele>
        <time>2024-08-14T08:15:46Z</time>
      </trkpt>
      <trkpt lat="44.90581" lon="6.07611">
        <ele>1506.4</ele>
        <time>2024-08-14T08:15:47Z</time>
      </trkpt>
      <trkpt lat="44.90581" lon="6.07611">
        <ele>1506.4</ele>
        <time>2024-08-14T08:15:48Z</time>
      </trkpt>
      <trkpt lat="44.90581" lon="6.07611">
        <ele>1506.4</ele>
        <time>2024-08-14T08:15:49Z</time>
      </trkpt>
      <trkpt lat="44.90581" lon="6.07611">
        <ele>1506.4</ele>
        <time>2024-08-14T08:15:50Z</time>
      </trkpt>
      <trkpt lat="44.90581" lon="6.07611">
        <ele>1506.4</ele>
        <time>2024-08-14T08:15:51Z</time>
      </trkpt>
      <trkpt lat="44.90581" lon="6.07611">
        <ele>1506.4</ele>
        <time>2024-08-14T08:15:52Z</time>
      </trkpt>
      <trkpt lat="44.90581" lon="6.07611">
        <ele>1506.4</ele>
        <time>2024-08-14T08:15:53Z</time>
      </trkpt>
      <trkpt lat="44.90581" lon="6.07611">
        <ele>1506.4</ele>
        <time>2024-08-14T08:15:54Z</time>
      </trkpt>
      <trkpt lat="44.90581" lon="6.07611">
        <ele>1506.4</ele>
        <time>2024-08-14T08:15:55Z</time>
      </trkpt>
      <trkpt lat="44.90581" lon="6.07611">
        <ele>1506.2</ele>
        <time>2024-08-14T08:15:56Z</time>
      </trkpt>
      <trkpt lat="44.90581" lon="6.07611">
        <ele>1506.2</ele>
        <time>2024-08-14T08:15:57Z</time>
      </trkpt>
      <trkpt lat="44.90581" lon="6.07611">
        <ele>1506.2</ele>
        <time>2024-08-14T08:15:58Z</time>
      </trkpt>
      <trkpt lat="44.90581" lon="6.07611">
        <ele>1506</ele>
        <time>2024-08-14T08:15:59Z</time>
      </trkpt>
      <trkpt lat="44.90581" lon="6.07611">
        <ele>1506</ele>
        <time>2024-08-14T08:16:00Z</time>
      </trkpt>
      <trkpt lat="44.90581" lon="6.07611">
        <ele>1506</ele>
        <time>2024-08-14T08:16:01Z</time>
      </trkpt>
      <trkpt lat="44.90581" lon="6.07611">
        <ele>1506</ele>
        <time>2024-08-14T08:16:02Z</time>
      </trkpt>
      <trkpt lat="44.90581" lon="6.07611">
        <ele>1506</ele>
        <time>2024-08-14T08:16:03Z</time>
      </trkpt>
      <trkpt lat="44.90581" lon="6.07611">
        <ele>1506</ele>
        <time>2024-08-14T08:16:04Z</time>
      </trkpt>
      <trkpt lat="44.90581" lon="6.07611">
        <ele>1506</ele>
        <time>2024-08-14T08:16:05Z</time>
      </trkpt>
      <trkpt lat="44.90581" lon="6.07611">
        <ele>1506</ele>
        <time>2024-08-14T08:16:06Z</time>
      </trkpt>
      <trkpt lat="44.90581" lon="6.07611">
        <ele>1506</ele>
        <time>2024-08-14T08:16:07Z</time>
      </trkpt>
      <trkpt lat="44.90581" lon="6.07611">
        <ele>1506</ele>
        <time>2024-08-14T08:16:08Z</time>
      </trkpt>
      <trkpt lat="44.90581" lon="6.07611">
        <ele>1506.2</ele>
        <time>2024-08-14T08:16:09Z</time>
      </trkpt>
      <trkpt lat="44.90581" lon="6.07611">
        <ele>1506.2</ele>
        <time>2024-08-14T08:16:10Z</time>
      </trkpt>
      <trkpt lat="44.90581" lon="6.07611">
        <ele>1506</ele>
        <time>2024-08-14T08:16:11Z</time>
      </trkpt>
      <trkpt lat="44.90581" lon="6.07611">
        <ele>1506</ele>
        <time>2024-08-14T08:16:12Z</time>
      </trkpt>
      <trkpt lat="44.90581" lon="6.07611">
        <ele>1506</ele>
        <time>2024-08-14T08:16:13Z</time>
      </trkpt>
      <trkpt lat="44.90581" lon="6.07611">
        <ele>1506</ele>
        <time>2024-08-14T08:16:14Z</time>
      </trkpt>
      <trkpt lat="44.90581" lon="6.07611">
        <ele>1505.8</ele>
        <time>2024-08-14T08:16:15Z</time>
      </trkpt>
      <trkpt lat="44.90581" lon="6.07611">
        <ele>1505.8</ele>
        <time>2024-08-14T08:16:16Z</time>
      </trkpt>
      <trkpt lat="44.90581" lon="6.07611">
        <ele>1505.8</ele>
        <time>2024-08-14T08:16:17Z</time>
      </trkpt>
      <trkpt lat="44.90581" lon="6.07611">
        <ele>1505.6</ele>
        <time>2024-08-14T08:16:18Z</time>
      </trkpt>
      <trkpt lat="44.90581" lon="6.07611">
        <ele>1505.6</ele>
        <time>2024-08-14T08:16:19Z</time>
      </trkpt>
      <trkpt lat="44.90581" lon="6.07611">
        <ele>1505.8</ele>
        <time>2024-08-14T08:16:20Z</time>
      </trkpt>
      <trkpt lat="44.90581" lon="6.07611">
        <ele>1505.8</ele>
        <time>2024-08-14T08:16:21Z</time>
      </trkpt>
      <trkpt lat="44.90581" lon="6.07611">
        <ele>1505.8</ele>
        <time>2024-08-14T08:16:22Z</time>
      </trkpt>
      <trkpt lat="44.90581" lon="6.07611">
        <ele>1505.8</ele>
        <time>2024-08-14T08:16:23Z</time>
      </trkpt>
      <trkpt lat="44.90581" lon="6.07611">
        <ele>1505.8</ele>
        <time>2024-08-14T08:16:24Z</time>
      </trkpt>
      <trkpt lat="44.90581" lon="6.07611">
        <ele>1505.8</ele>
        <time>2024-08-14T08:16:25Z</time>
      </trkpt>
      <trkpt lat="44.90581" lon="6.07611">
        <ele>1505.6</ele>
        <time>2024-08-14T08:16:26Z</time>
      </trkpt>
      <trkpt lat="44.90581" lon="6.07611">
        <ele>1505.6</ele>
        <time>2024-08-14T08:16:27Z</time>
      </trkpt>
      <trkpt lat="44.90581" lon="6.07611">
        <ele>1505.6</ele>
        <time>2024-08-14T08:16:28Z</time>
      </trkpt>
      <trkpt lat="44.90581" lon="6.07611">
        <ele>1505.6</ele>
        <time>2024-08-14T08:16:29Z</time>
      </trkpt>
      <trkpt lat="44.90581" lon="6.07611">
        <ele>1505.6</ele>
        <time>2024-08-14T08:16:30Z</time>
      </trkpt>
      <trkpt lat="44.90581" lon="6.07611">
        <ele>1505.6</ele>
        <time>2024-08-14T08:16:31Z</time>
      </trkpt>
      <trkpt lat="44.90581" lon="6.07611">
        <ele>1505.4</ele>
        <time>2024-08-14T08:16:32Z</time>
      </trkpt>
      <trkpt lat="44.90581" lon="6.07611">
        <ele>1505.6</ele>
        <time>2024-08-14T08:16:33Z</time>
      </trkpt>
      <trkpt lat="44.90581" lon="6.07611">
        <ele>1505.6</ele>
        <time>2024-08-14T08:16:34Z</time>
      </trkpt>
      <trkpt lat="44.90581" lon="6.07611">
        <ele>1505.6</ele>
        <time>2024-08-14T08:16:35Z</time>
      </trkpt>
      <trkpt lat="44.90581" lon="6.07611">
        <ele>1505.6</ele>
        <time>2024-08-14T08:16:36Z</time>
      </trkpt>
      <trkpt lat="44.90581" lon="6.07611">
        <ele>1505.8</ele>
        <time>2024-08-14T08:16:37Z</time>
      </trkpt>
      <trkpt lat="44.90581" lon="6.07611">
        <ele>1505.8</ele>
        <time>2024-08-14T08:16:38Z</time>
      </trkpt>
      <trkpt lat="44.90581" lon="6.07611">
        <ele>1505.8</ele>
        <time>2024-08-14T08:16:39Z</time>
      </trkpt>
      <trkpt lat="44.90581" lon="6.07611">
        <ele>1505.8</ele>
        <time>2024-08-14T08:16:40Z</time>
      </trkpt>
      <trkpt lat="44.90581" lon="6.07611">
        <ele>1505.8</ele>
        <time>2024-08-14T08:16:41Z</time>
      </trkpt>
      <trkpt lat="44.90581" lon="6.07611">
        <ele>1505.8</ele>
        <time>2024-08-14T08:16:42Z</time>
      </trkpt>
      <trkpt lat="44.90581" lon="6.07611">
        <ele>1505.8</ele>
        <time>2024-08-14T08:16:43Z</time>
      </trkpt>
      <trkpt lat="44.90581" lon="6.07611">
        <ele>1505.6</ele>
        <time>2024-08-14T08:16:44Z</time>
      </trkpt>
      <trkpt lat="44.90581" lon="6.07611">
        <ele>1505.2</ele>
        <time>2024-08-14T08:16:45Z</time>
      </trkpt>
      <trkpt lat="44.90581" lon="6.07611">
        <ele>1505.2</ele>
        <time>2024-08-14T08:16:46Z</time>
      </trkpt>
      <trkpt lat="44.90581" lon="6.07611">
        <ele>1505.2</ele>
        <time>2024-08-14T08:16:47Z</time>
      </trkpt>
      <trkpt lat="44.90581" lon="6.07611">
        <ele>1505.2</ele>
        <time>2024-08-14T08:16:48Z</time>
      </trkpt>
      <trkpt lat="44.90581" lon="6.07611">
        <ele>1505.2</ele>
        <time>2024-08-14T08:16:49Z</time>
      </trkpt>
      <trkpt lat="44.90581" lon="6.07611">
        <ele>1505.2</ele>
        <time>2024-08-14T08:16:50Z</time>
      </trkpt>
      <trkpt lat="44.90581" lon="6.07611">
        <ele>1505.4</ele>
        <time>2024-08-14T08:16:51Z</time>
      </trkpt>
      <trkpt lat="44.90581" lon="6.07611">
        <ele>1505.4</ele>
        <time>2024-08-14T08:16:52Z</time>
      </trkpt>
      <trkpt lat="44.90581" lon="6.07611">
        <ele>1505.2</ele>
        <time>2024-08-14T08:16:53Z</time>
      </trkpt>
      <trkpt lat="44.90581" lon="6.07611">
        <ele>1505.2</ele>
        <time>2024-08-14T08:16:54Z</time>
      </trkpt>
      <trkpt lat="44.90581" lon="6.07611">
        <ele>1505.2</ele>
        <time>2024-08-14T08:16:55Z</time>
      </trkpt>
      <trkpt lat="44.90581" lon="6.07611">
        <ele>1505.4</ele>
        <time>2024-08-14T08:16:56Z</time>
      </trkpt>
      <trkpt lat="44.90581" lon="6.07611">
        <ele>1505.4</ele>
        <time>2024-08-14T08:16:57Z</time>
      </trkpt>
      <trkpt lat="44.90581" lon="6.07611">
        <ele>1505.4</ele>
        <time>2024-08-14T08:16:58Z</time>
      </trkpt>
      <trkpt lat="44.90581" lon="6.07611">
        <ele>1505.4</ele>
        <time>2024-08-14T08:16:59Z</time>
      </trkpt>
      <trkpt lat="44.90581" lon="6.07611">
        <ele>1505.4</ele>
        <time>2024-08-14T08:17:00Z</time>
      </trkpt>
      <trkpt lat="44.90581" lon="6.07611">
        <ele>1505.2</ele>
        <time>2024-08-14T08:17:01Z</time>
      </trkpt>
      <trkpt lat="44.90581" lon="6.07611">
        <ele>1505</ele>
        <time>2024-08-14T08:17:02Z</time>
      </trkpt>
      <trkpt lat="44.90581" lon="6.07611">
        <ele>1505</ele>
        <time>2024-08-14T08:17:03Z</time>
      </trkpt>
      <trkpt lat="44.90581" lon="6.07611">
        <ele>1505.2</ele>
        <time>2024-08-14T08:17:04Z</time>
      </trkpt>
      <trkpt lat="44.90581" lon="6.07611">
        <ele>1505.2</ele>
        <time>2024-08-14T08:17:05Z</time>
      </trkpt>
      <trkpt lat="44.90581" lon="6.07611">
        <ele>1505</ele>
        <time>2024-08-14T08:17:06Z</time>
      </trkpt>
      <trkpt lat="44.90581" lon="6.07611">
        <ele>1505</ele>
        <time>2024-08-14T08:17:07Z</time>
      </trkpt>
      <trkpt lat="44.90581" lon="6.07611">
        <ele>1505.2</ele>
        <time>2024-08-14T08:17:08Z</time>
      </trkpt>
      <trkpt lat="44.90581" lon="6.07611">
        <ele>1505.2</ele>
        <time>2024-08-14T08:17:09Z</time>
      </trkpt>
      <trkpt lat="44.90581" lon="6.07611">
        <ele>1505.2</ele>
        <time>2024-08-14T08:17:10Z</time>
      </trkpt>
      <trkpt lat="44.90581" lon="6.07611">
        <ele>1505.2</ele>
        <time>2024-08-14T08:17:11Z</time>
      </trkpt>
      <trkpt lat="44.90581" lon="6.07611">
        <ele>1505.2</ele>
        <time>2024-08-14T08:17:12Z</time>
      </trkpt>
      <trkpt lat="44.90581" lon="6.07611">
        <ele>1505.2</ele>
        <time>2024-08-14T08:17:13Z</time>
      </trkpt>
      <trkpt lat="44.90581" lon="6.07611">
        <ele>1505.2</ele>
        <time>2024-08-14T08:17:14Z</time>
      </trkpt>
      <trkpt lat="44.90581" lon="6.07611">
        <ele>1505</ele>
        <time>2024-08-14T08:17:15Z</time>
      </trkpt>
      <trkpt lat="44.90581" lon="6.07611">
        <ele>1505.2</ele>
        <time>2024-08-14T08:17:16Z</time>
      </trkpt>
      <trkpt lat="44.90581" lon="6.07611">
        <ele>1505.2</ele>
        <time>2024-08-14T08:17:17Z</time>
      </trkpt>
      <trkpt lat="44.90581" lon="6.07611">
        <ele>1505.2</ele>
        <time>2024-08-14T08:17:18Z</time>
      </trkpt>
      <trkpt lat="44.90581" lon="6.07611">
        <ele>1505.4</ele>
        <time>2024-08-14T08:17:19Z</time>
      </trkpt>
      <trkpt lat="44.90581" lon="6.07611">
        <ele>1505.4</ele>
        <time>2024-08-14T08:17:20Z</time>
      </trkpt>
      <trkpt lat="44.90581" lon="6.07611">
        <ele>1505.4</ele>
        <time>2024-08-14T08:17:21Z</time>
      </trkpt>
      <trkpt lat="44.90581" lon="6.07611">
        <ele>1505.4</ele>
        <time>2024-08-14T08:17:22Z</time>
      </trkpt>
      <trkpt lat="44.90581" lon="6.07611">
        <ele>1505.4</ele>
        <time>2024-08-14T08:17:23Z</time>
      </trkpt>
      <trkpt lat="44.90581" lon="6.07611">
        <ele>1505.4</ele>
        <time>2024-08-14T08:17:24Z</time>
      </trkpt>
      <trkpt lat="44.90581" lon="6.07611">
        <ele>1505.4</ele>
        <time>2024-08-14T08:17:25Z</time>
      </trkpt>
      <trkpt lat="44.90581" lon="6.07611">
        <ele>1505.2</ele>
        <time>2024-08-14T08:17:26Z</time>
      </trkpt>
      <trkpt lat="44.90581" lon="6.07611">
        <ele>1505</ele>
        <time>2024-08-14T08:17:27Z</time>
      </trkpt>
      <trkpt lat="44.90581" lon="6.07611">
        <ele>1504.8</ele>
        <time>2024-08-14T08:17:28Z</time>
      </trkpt>
      <trkpt lat="44.90581" lon="6.07611">
        <ele>1504.8</ele>
        <time>2024-08-14T08:17:29Z</time>
      </trkpt>
      <trkpt lat="44.90581" lon="6.07611">
        <ele>1504.8</ele>
        <time>2024-08-14T08:17:30Z</time>
      </trkpt>
      <trkpt lat="44.90581" lon="6.07611">
        <ele>1504.8</ele>
        <time>2024-08-14T08:17:31Z</time>
      </trkpt>
      <trkpt lat="44.90581" lon="6.07611">
        <ele>1504.4</ele>
        <time>2024-08-14T08:17:32Z</time>
      </trkpt>
      <trkpt lat="44.90581" lon="6.07611">
        <ele>1504.4</ele>
        <time>2024-08-14T08:17:33Z</time>
      </trkpt>
      <trkpt lat="44.90581" lon="6.07611">
        <ele>1504.6</ele>
        <time>2024-08-14T08:17:34Z</time>
      </trkpt>
      <trkpt lat="44.90581" lon="6.07611">
        <ele>1504.6</ele>
        <time>2024-08-14T08:17:35Z</time>
      </trkpt>
      <trkpt lat="44.90581" lon="6.07611">
        <ele>1504.6</ele>
        <time>2024-08-14T08:17:36Z</time>
      </trkpt>
      <trkpt lat="44.90581" lon="6.07611">
        <ele>1504.4</ele>
        <time>2024-08-14T08:17:37Z</time>
      </trkpt>
      <trkpt lat="44.90581" lon="6.07611">
        <ele>1504.4</ele>
        <time>2024-08-14T08:17:38Z</time>
      </trkpt>
      <trkpt lat="44.90581" lon="6.07611">
        <ele>1504.6</ele>
        <time>2024-08-14T08:17:39Z</time>
      </trkpt>
      <trkpt lat="44.90581" lon="6.07611">
        <ele>1504.6</ele>
        <time>2024-08-14T08:17:40Z</time>
      </trkpt>
      <trkpt lat="44.90581" lon="6.07611">
        <ele>1504.4</ele>
        <time>2024-08-14T08:17:41Z</time>
      </trkpt>
      <trkpt lat="44.90581" lon="6.07611">
        <ele>1504.4</ele>
        <time>2024-08-14T08:17:42Z</time>
      </trkpt>
      <trkpt lat="44.90581" lon="6.07611">
        <ele>1504.4</ele>
        <time>2024-08-14T08:17:43Z</time>
      </trkpt>
      <trkpt lat="44.90581" lon="6.07611">
        <ele>1504.2</ele>
        <time>2024-08-14T08:17:44Z</time>
      </trkpt>
      <trkpt lat="44.90581" lon="6.07611">
        <ele>1504.2</ele>
        <time>2024-08-14T08:17:45Z</time>
      </trkpt>
      <trkpt lat="44.90581" lon="6.07611">
        <ele>1504.2</ele>
        <time>2024-08-14T08:17:46Z</time>
      </trkpt>
      <trkpt lat="44.90581" lon="6.07611">
        <ele>1504.2</ele>
        <time>2024-08-14T08:17:47Z</time>
      </trkpt>
      <trkpt lat="44.90581" lon="6.07611">
        <ele>1504.2</ele>
        <time>2024-08-14T08:17:48Z</time>
      </trkpt>
      <trkpt lat="44.90581" lon="6.07611">
        <ele>1504.2</ele>
        <time>2024-08-14T08:17:49Z</time>
      </trkpt>
      <trkpt lat="44.90581" lon="6.07611">
        <ele>1504.4</ele>
        <time>2024-08-14T08:17:50Z</time>
      </trkpt>
      <trkpt lat="44.90581" lon="6.07611">
        <ele>1504.4</ele>
        <time>2024-08-14T08:17:51Z</time>
      </trkpt>
      <trkpt lat="44.90581" lon="6.07611">
        <ele>1504.2</ele>
        <time>2024-08-14T08:17:52Z</time>
      </trkpt>
      <trkpt lat="44.90581" lon="6.07611">
        <ele>1504.2</ele>
        <time>2024-08-14T08:17:53Z</time>
      </trkpt>
      <trkpt lat="44.90581" lon="6.07611">
        <ele>1504.2</ele>
        <time>2024-08-14T08:17:54Z</time>
      </trkpt>
      <trkpt lat="44.90581" lon="6.07611">
        <ele>1504.2</ele>
        <time>2024-08-14T08:17:55Z</time>
      </trkpt>
      <trkpt lat="44.90581" lon="6.07611">
        <ele>1504.2</ele>
        <time>2024-08-14T08:17:56Z</time>
      </trkpt>
      <trkpt lat="44.90581" lon="6.07611">
        <ele>1504.4</ele>
        <time>2024-08-14T08:17:57Z</time>
      </trkpt>
      <trkpt lat="44.90581" lon="6.07611">
        <ele>1504.4</ele>
        <time>2024-08-14T08:17:58Z</time>
      </trkpt>
      <trkpt lat="44.90581" lon="6.07611">
        <ele>1504.4</ele>
        <time>2024-08-14T08:17:59Z</time>
      </trkpt>
      <trkpt lat="44.90581" lon="6.07611">
        <ele>1504.2</ele>
        <time>2024-08-14T08:18:00Z</time>
      </trkpt>
      <trkpt lat="44.90581" lon="6.07611">
        <ele>1504.2</ele>
        <time>2024-08-14T08:18:01Z</time>
      </trkpt>
      <trkpt lat="44.90581" lon="6.07611">
        <ele>1504</ele>
        <time>2024-08-14T08:18:02Z</time>
      </trkpt>
      <trkpt lat="44.90581" lon="6.07611">
        <ele>1504</ele>
        <time>2024-08-14T08:18:03Z</time>
      </trkpt>
      <trkpt lat="44.90581" lon="6.07611">
        <ele>1504.2</ele>
        <time>2024-08-14T08:18:04Z</time>
      </trkpt>
      <trkpt lat="44.90581" lon="6.07611">
        <ele>1504.2</ele>
        <time>2024-08-14T08:18:05Z</time>
      </trkpt>
      <trkpt lat="44.90581" lon="6.07611">
        <ele>1504.2</ele>
        <time>2024-08-14T08:18:06Z</time>
      </trkpt>
      <trkpt lat="44.90581" lon="6.07611">
        <ele>1504</ele>
        <time>2024-08-14T08:18:07Z</time>
      </trkpt>
      <trkpt lat="44.90581" lon="6.07611">
        <ele>1504</ele>
        <time>2024-08-14T08:18:08Z</time>
      </trkpt>
      <trkpt lat="44.90581" lon="6.07611">
        <ele>1504</ele>
        <time>2024-08-14T08:18:09Z</time>
      </trkpt>
      <trkpt lat="44.90581" lon="6.07611">
        <ele>1504</ele>
        <time>2024-08-14T08:18:10Z</time>
      </trkpt>
      <trkpt lat="44.90581" lon="6.07611">
        <ele>1504</ele>
        <time>2024-08-14T08:18:11Z</time>
      </trkpt>
      <trkpt lat="44.90581" lon="6.07611">
        <ele>1504</ele>
        <time>2024-08-14T08:18:12Z</time>
      </trkpt>
      <trkpt lat="44.90581" lon="6.07611">
        <ele>1504</ele>
        <time>2024-08-14T08:18:13Z</time>
      </trkpt>
      <trkpt lat="44.90581" lon="6.07611">
        <ele>1504</ele>
        <time>2024-08-14T08:18:14Z</time>
      </trkpt>
      <trkpt lat="44.90581" lon="6.07611">
        <ele>1504.2</ele>
        <time>2024-08-14T08:18:15Z</time>
      </trkpt>
      <trkpt lat="44.90581" lon="6.07611">
        <ele>1504.2</ele>
        <time>2024-08-14T08:18:16Z</time>
      </trkpt>
      <trkpt lat="44.90581" lon="6.07611">
        <ele>1504.2</ele>
        <time>2024-08-14T08:18:17Z</time>
      </trkpt>
      <trkpt lat="44.90581" lon="6.07611">
        <ele>1504.2</ele>
        <time>2024-08-14T08:18:18Z</time>
      </trkpt>
      <trkpt lat="44.90581" lon="6.07611">
        <ele>1504.2</ele>
        <time>2024-08-14T08:18:19Z</time>
      </trkpt>
      <trkpt lat="44.90581" lon="6.07611">
        <ele>1504.2</ele>
        <time>2024-08-14T08:18:20Z</time>
      </trkpt>
      <trkpt lat="44.90581" lon="6.07611">
        <ele>1504</ele>
        <time>2024-08-14T08:18:21Z</time>
      </trkpt>
      <trkpt lat="44.90581" lon="6.07611">
        <ele>1503.8</ele>
        <time>2024-08-14T08:18:22Z</time>
      </trkpt>
      <trkpt lat="44.90581" lon="6.07611">
        <ele>1503.8</ele>
        <time>2024-08-14T08:18:23Z</time>
      </trkpt>
      <trkpt lat="44.90581" lon="6.07611">
        <ele>1503.8</ele>
        <time>2024-08-14T08:18:24Z</time>
      </trkpt>
      <trkpt lat="44.90581" lon="6.07611">
        <ele>1503.8</ele>
        <time>2024-08-14T08:18:25Z</time>
      </trkpt>
      <trkpt lat="44.90581" lon="6.07611">
        <ele>1503.8</ele>
        <time>2024-08-14T08:18:26Z</time>
      </trkpt>
      <trkpt lat="44.90581" lon="6.07611">
        <ele>1503.8</ele>
        <time>2024-08-14T08:18:27Z</time>
      </trkpt>
      <trkpt lat="44.90581" lon="6.07611">
        <ele>1504</ele>
        <time>2024-08-14T08:18:28Z</time>
      </trkpt>
      <trkpt lat="44.90581" lon="6.07611">
        <ele>1504</ele>
        <time>2024-08-14T08:18:29Z</time>
      </trkpt>
      <trkpt lat="44.90581" lon="6.07611">
        <ele>1504</ele>
        <time>2024-08-14T08:18:30Z</time>
      </trkpt>
      <trkpt lat="44.90581" lon="6.07611">
        <ele>1504</ele>
        <time>2024-08-14T08:18:31Z</time>
      </trkpt>
      <trkpt lat="44.90581" lon="6.07611">
        <ele>1504</ele>
        <time>2024-08-14T08:18:32Z</time>
      </trkpt>
      <trkpt lat="44.90581" lon="6.07611">
        <ele>1504</ele>
        <time>2024-08-14T08:18:33Z</time>
      </trkpt>
      <trkpt lat="44.90581" lon="6.07611">
        <ele>1504</ele>
        <time>2024-08-14T08:18:34Z</time>
      </trkpt>
      <trkpt lat="44.90581" lon="6.07611">
        <ele>1504</ele>
        <time>2024-08-14T08:18:35Z</time>
      </trkpt>
      <trkpt lat="44.90581" lon="6.07611">
        <ele>1504</ele>
        <time>2024-08-14T08:18:36Z</time>
      </trkpt>
      <trkpt lat="44.90581" lon="6.07611">
        <ele>1504</ele>
        <time>2024-08-14T08:18:37Z</time>
      </trkpt>
      <trkpt lat="44.90581" lon="6.07611">
        <ele>1503.8</ele>
        <time>2024-08-14T08:18:38Z</time>
      </trkpt>
      <trkpt lat="44.90581" lon="6.07611">
        <ele>1503.6</ele>
        <time>2024-08-14T08:18:39Z</time>
      </trkpt>
      <trkpt lat="44.90581" lon="6.07611">
        <ele>1503.6</ele>
        <time>2024-08-14T08:18:40Z</time>
      </trkpt>
      <trkpt lat="44.90581" lon="6.07611">
        <ele>1503.6</ele>
        <time>2024-08-14T08:18:41Z</time>
      </trkpt>
      <trkpt lat="44.90581" lon="6.07611">
        <ele>1503.6</ele>
        <time>2024-08-14T08:18:42Z</time>
      </trkpt>
      <trkpt lat="44.90581" lon="6.07611">
        <ele>1503.6</ele>
        <time>2024-08-14T08:18:43Z</time>
      </trkpt>
      <trkpt lat="44.90581" lon="6.07611">
        <ele>1503.6</ele>
        <time>2024-08-14T08:18:44Z</time>
      </trkpt>
      <trkpt lat="44.90581" lon="6.07611">
        <ele>1503.8</ele>
        <time>2024-08-14T08:18:45Z</time>
      </trkpt>
      <trkpt lat="44.90581" lon="6.07611">
        <ele>1503.8</ele>
        <time>2024-08-14T08:18:46Z</time>
      </trkpt>
      <trkpt lat="44.90581" lon="6.07611">
        <ele>1503.6</ele>
        <time>2024-08-14T08:18:47Z</time>
      </trkpt>
      <trkpt lat="44.90581" lon="6.07611">
        <ele>1503.6</ele>
        <time>2024-08-14T08:18:48Z</time>
      </trkpt>
      <trkpt lat="44.90581" lon="6.07611">
        <ele>1503.4</ele>
        <time>2024-08-14T08:18:49Z</time>
      </trkpt>
      <trkpt lat="44.90581" lon="6.07611">
        <ele>1503.4</ele>
        <time>2024-08-14T08:18:50Z</time>
      </trkpt>
      <trkpt lat="44.90581" lon="6.07611">
        <ele>1503.6</ele>
        <time>2024-08-14T08:18:51Z</time>
      </trkpt>
      <trkpt lat="44.90581" lon="6.07611">
        <ele>1503.6</ele>
        <time>2024-08-14T08:18:52Z</time>
      </trkpt>
      <trkpt lat="44.90581" lon="6.07611">
        <ele>1503.8</ele>
        <time>2024-08-14T08:18:53Z</time>
      </trkpt>
      <trkpt lat="44.90581" lon="6.07611">
        <ele>1503.8</ele>
        <time>2024-08-14T08:18:54Z</time>
      </trkpt>
      <trkpt lat="44.90581" lon="6.07611">
        <ele>1503.8</ele>
        <time>2024-08-14T08:18:55Z</time>
      </trkpt>
      <trkpt lat="44.90581" lon="6.07611">
        <ele>1503.6</ele>
        <time>2024-08-14T08:18:56Z</time>
      </trkpt>
      <trkpt lat="44.90581" lon="6.07611">
        <ele>1503.6</ele>
        <time>2024-08-14T08:18:57Z</time>
      </trkpt>
      <trkpt lat="44.90581" lon="6.07611">
        <ele>1503.6</ele>
        <time>2024-08-14T08:18:58Z</time>
      </trkpt>
      <trkpt lat="44.90581" lon="6.07611">
        <ele>1503.6</ele>
        <time>2024-08-14T08:18:59Z</time>
      </trkpt>
      <trkpt lat="44.90581" lon="6.07611">
        <ele>1503.6</ele>
        <time>2024-08-14T08:19:00Z</time>
      </trkpt>
      <trkpt lat="44.90581" lon="6.07611">
        <ele>1503.4</ele>
        <time>2024-08-14T08:19:01Z</time>
      </trkpt>
      <trkpt lat="44.90581" lon="6.07611">
        <ele>1503.6</ele>
        <time>2024-08-14T08:19:02Z</time>
      </trkpt>
      <trkpt lat="44.90581" lon="6.07611">
        <ele>1503.6</ele>
        <time>2024-08-14T08:19:03Z</time>
      </trkpt>
      <trkpt lat="44.90581" lon="6.07611">
        <ele>1503.6</ele>
        <time>2024-08-14T08:19:04Z</time>
      </trkpt>
      <trkpt lat="44.90581" lon="6.07611">
        <ele>1503.6</ele>
        <time>2024-08-14T08:19:05Z</time>
      </trkpt>
      <trkpt lat="44.90581" lon="6.07611">
        <ele>1503.6</ele>
        <time>2024-08-14T08:19:06Z</time>
      </trkpt>
      <trkpt lat="44.90581" lon="6.07611">
        <ele>1503.4</ele>
        <time>2024-08-14T08:19:07Z</time>
      </trkpt>
      <trkpt lat="44.90581" lon="6.07611">
        <ele>1503.4</ele>
        <time>2024-08-14T08:19:08Z</time>
      </trkpt>
      <trkpt lat="44.90581" lon="6.07611">
        <ele>1503.4</ele>
        <time>2024-08-14T08:19:09Z</time>
      </trkpt>
      <trkpt lat="44.90581" lon="6.07611">
        <ele>1503.4</ele>
        <time>2024-08-14T08:19:10Z</time>
      </trkpt>
      <trkpt lat="44.90581" lon="6.07611">
        <ele>1503.4</ele>
        <time>2024-08-14T08:19:11Z</time>
      </trkpt>
      <trkpt lat="44.90581" lon="6.07611">
        <ele>1503.4</ele>
        <time>2024-08-14T08:19:12Z</time>
      </trkpt>
      <trkpt lat="44.90581" lon="6.07611">
        <ele>1503.2</ele>
        <time>2024-08-14T08:19:13Z</time>
      </trkpt>
      <trkpt lat="44.90581" lon="6.07611">
        <ele>1503.2</ele>
        <time>2024-08-14T08:19:14Z</time>
      </trkpt>
      <trkpt lat="44.90581" lon="6.07611">
        <ele>1503.2</ele>
        <time>2024-08-14T08:19:15Z</time>
      </trkpt>
      <trkpt lat="44.90581" lon="6.07611">
        <ele>1503.2</ele>
        <time>2024-08-14T08:19:16Z</time>
      </trkpt>
      <trkpt lat="44.90581" lon="6.07611">
        <ele>1503.2</ele>
        <time>2024-08-14T08:19:17Z</time>
      </trkpt>
      <trkpt lat="44.90581" lon="6.07611">
        <ele>1503</ele>
        <time>2024-08-14T08:19:18Z</time>
      </trkpt>
      <trkpt lat="44.90581" lon="6.07611">
        <ele>1503</ele>
        <time>2024-08-14T08:19:19Z</time>
      </trkpt>
      <trkpt lat="44.90581" lon="6.07611">
        <ele>1503.2</ele>
        <time>2024-08-14T08:19:20Z</time>
      </trkpt>
      <trkpt lat="44.90581" lon="6.07611">
        <ele>1503.2</ele>
        <time>2024-08-14T08:19:21Z</time>
      </trkpt>
      <trkpt lat="44.90581" lon="6.07611">
        <ele>1503</ele>
        <time>2024-08-14T08:19:22Z</time>
      </trkpt>
      <trkpt lat="44.90581" lon="6.07611">
        <ele>1503</ele>
        <time>2024-08-14T08:19:23Z</time>
      </trkpt>
      <trkpt lat="44.90581" lon="6.07611">
        <ele>1503</ele>
        <time>2024-08-14T08:19:24Z</time>
      </trkpt>
      <trkpt lat="44.90581" lon="6.07611">
        <ele>1503</ele>
        <time>2024-08-14T08:19:25Z</time>
      </trkpt>
      <trkpt lat="44.90581" lon="6.07611">
        <ele>1503</ele>
        <time>2024-08-14T08:19:26Z</time>
      </trkpt>
      <trkpt lat="44.90581" lon="6.07611">
        <ele>1503</ele>
        <time>2024-08-14T08:19:27Z</time>
      </trkpt>
      <trkpt lat="44.90581" lon="6.07611">
        <ele>1503.2</ele>
        <time>2024-08-14T08:19:28Z</time>
      </trkpt>
      <trkpt lat="44.90581" lon="6.07611">
        <ele>1503.2</ele>
        <time>2024-08-14T08:19:29Z</time>
      </trkpt>
      <trkpt lat="44.90581" lon="6.07611">
        <ele>1503.2</ele>
        <time>2024-08-14T08:19:30Z</time>
      </trkpt>
      <trkpt lat="44.90581" lon="6.07611">
        <ele>1503.2</ele>
        <time>2024-08-14T08:19:31Z</time>
      </trkpt>
      <trkpt lat="44.90581" lon="6.07611">
        <ele>1503.6</ele>
        <time>2024-08-14T08:19:32Z</time>
      </trkpt>
      <trkpt lat="44.90581" lon="6.07611">
        <ele>1503.4</ele>
        <time>2024-08-14T08:19:33Z</time>
      </trkpt>
      <trkpt lat="44.90581" lon="6.07611">
        <ele>1503.4</ele>
        <time>2024-08-14T08:19:34Z</time>
      </trkpt>
      <trkpt lat="44.90581" lon="6.07611">
        <ele>1503.4</ele>
        <time>2024-08-14T08:19:35Z</time>
      </trkpt>
      <trkpt lat="44.90581" lon="6.07611">
        <ele>1503</ele>
        <time>2024-08-14T08:19:36Z</time>
      </trkpt>
      <trkpt lat="44.90581" lon="6.07611">
        <ele>1503</ele>
        <time>2024-08-14T08:19:37Z</time>
      </trkpt>
      <trkpt lat="44.90581" lon="6.07611">
        <ele>1503</ele>
        <time>2024-08-14T08:19:38Z</time>
      </trkpt>
      <trkpt lat="44.90581" lon="6.07611">
        <ele>1503</ele>
        <time>2024-08-14T08:19:39Z</time>
      </trkpt>
      <trkpt lat="44.90581" lon="6.07611">
        <ele>1503</ele>
        <time>2024-08-14T08:19:40Z</time>
      </trkpt>
      <trkpt lat="44.90581" lon="6.07611">
        <ele>1503</ele>
        <time>2024-08-14T08:19:41Z</time>
      </trkpt>
      <trkpt lat="44.90581" lon="6.07611">
        <ele>1503</ele>
        <time>2024-08-14T08:19:42Z</time>
      </trkpt>
      <trkpt lat="44.90581" lon="6.07611">
        <ele>1503</ele>
        <time>2024-08-14T08:19:43Z</time>
      </trkpt>
      <trkpt lat="44.90581" lon="6.07611">
        <ele>1503</ele>
        <time>2024-08-14T08:19:44Z</time>
      </trkpt>
      <trkpt lat="44.90581" lon="6.07611">
        <ele>1503</ele>
        <time>2024-08-14T08:19:45Z</time>
      </trkpt>
      <trkpt lat="44.90581" lon="6.07611">
        <ele>1503</ele>
        <time>2024-08-14T08:19:46Z</time>
      </trkpt>
      <trkpt lat="44.90581" lon="6.07611">
        <ele>1503</ele>
        <time>2024-08-14T08:19:47Z</time>
      </trkpt>
      <trkpt lat="44.90581" lon="6.07611">
        <ele>1502.8</ele>
        <time>2024-08-14T08:19:48Z</time>
      </trkpt>
      <trkpt lat="44.90581" lon="6.07611">
        <ele>1502.6</ele>
        <time>2024-08-14T08:19:49Z</time>
      </trkpt>
      <trkpt lat="44.90581" lon="6.07611">
        <ele>1502.4</ele>
        <time>2024-08-14T08:19:50Z</time>
      </trkpt>
      <trkpt lat="44.90581" lon="6.07611">
        <ele>1502.6</ele>
        <time>2024-08-14T08:19:51Z</time>
      </trkpt>
      <trkpt lat="44.90581" lon="6.07611">
        <ele>1502.6</ele>
        <time>2024-08-14T08:19:52Z</time>
      </trkpt>
      <trkpt lat="44.90581" lon="6.07611">
        <ele>1502.6</ele>
        <time>2024-08-14T08:19:53Z</time>
      </trkpt>
      <trkpt lat="44.90581" lon="6.07611">
        <ele>1502.8</ele>
        <time>2024-08-14T08:19:54Z</time>
      </trkpt>
      <trkpt lat="44.90581" lon="6.07611">
        <ele>1502.8</ele>
        <time>2024-08-14T08:19:55Z</time>
      </trkpt>
      <trkpt lat="44.90581" lon="6.07611">
        <ele>1502.6</ele>
        <time>2024-08-14T08:19:56Z</time>
      </trkpt>
      <trkpt lat="44.90581" lon="6.07611">
        <ele>1502.6</ele>
        <time>2024-08-14T08:19:57Z</time>
      </trkpt>
      <trkpt lat="44.90581" lon="6.07611">
        <ele>1502.6</ele>
        <time>2024-08-14T08:19:58Z</time>
      </trkpt>
      <trkpt lat="44.90581" lon="6.07611">
        <ele>1502.6</ele>
        <time>2024-08-14T08:19:59Z</time>
      </trkpt>
      <trkpt lat="44.90581" lon="6.07611">
        <ele>1502.6</ele>
        <time>2024-08-14T08:20:00Z</time>
      </trkpt>
      <trkpt lat="44.90581" lon="6.07611">
        <ele>1502.6</ele>
        <time>2024-08-14T08:20:01Z</time>
      </trkpt>
      <trkpt lat="44.90581" lon="6.07611">
        <ele>1502.6</ele>
        <time>2024-08-14T08:20:02Z</time>
      </trkpt>
      <trkpt lat="44.90581" lon="6.07611">
        <ele>1502.8</ele>
        <time>2024-08-14T08:20:03Z</time>
      </trkpt>
      <trkpt lat="44.90581" lon="6.07611">
        <ele>1503</ele>
        <time>2024-08-14T08:20:04Z</time>
      </trkpt>
      <trkpt lat="44.90581" lon="6.07611">
        <ele>1503</ele>
        <time>2024-08-14T08:20:05Z</time>
      </trkpt>
      <trkpt lat="44.90581" lon="6.07611">
        <ele>1503</ele>
        <time>2024-08-14T08:20:06Z</time>
      </trkpt>
      <trkpt lat="44.90581" lon="6.07611">
        <ele>1502.8</ele>
        <time>2024-08-14T08:20:07Z</time>
      </trkpt>
      <trkpt lat="44.90581" lon="6.07611">
        <ele>1502.8</ele>
        <time>2024-08-14T08:20:08Z</time>
      </trkpt>
      <trkpt lat="44.90581" lon="6.07611">
        <ele>1502.6</ele>
        <time>2024-08-14T08:20:09Z</time>
      </trkpt>
      <trkpt lat="44.90581" lon="6.07611">
        <ele>1502.6</ele>
        <time>2024-08-14T08:20:10Z</time>
      </trkpt>
      <trkpt lat="44.90581" lon="6.07611">
        <ele>1502.6</ele>
        <time>2024-08-14T08:20:11Z</time>
      </trkpt>
      <trkpt lat="44.90581" lon="6.07611">
        <ele>1502.6</ele>
        <time>2024-08-14T08:20:12Z</time>
      </trkpt>
      <trkpt lat="44.90581" lon="6.07611">
        <ele>1502.8</ele>
        <time>2024-08-14T08:20:13Z</time>
      </trkpt>
      <trkpt lat="44.90581" lon="6.07611">
        <ele>1502.8</ele>
        <time>2024-08-14T08:20:14Z</time>
      </trkpt>
      <trkpt lat="44.90581" lon="6.07611">
        <ele>1503</ele>
        <time>2024-08-14T08:20:15Z</time>
      </trkpt>
      <trkpt lat="44.90581" lon="6.07611">
        <ele>1503</ele>
        <time>2024-08-14T08:20:16Z</time>
      </trkpt>
      <trkpt lat="44.90581" lon="6.07611">
        <ele>1502.8</ele>
        <time>2024-08-14T08:20:17Z</time>
      </trkpt>
      <trkpt lat="44.90581" lon="6.07611">
        <ele>1502.6</ele>
        <time>2024-08-14T08:20:18Z</time>
      </trkpt>
      <trkpt lat="44.90581" lon="6.07611">
        <ele>1502.6</ele>
        <time>2024-08-14T08:20:19Z</time>
      </trkpt>
      <trkpt lat="44.90581" lon="6.07611">
        <ele>1502.6</ele>
        <time>2024-08-14T08:20:20Z</time>
      </trkpt>
      <trkpt lat="44.90581" lon="6.07611">
        <ele>1502.6</ele>
        <time>2024-08-14T08:20:21Z</time>
      </trkpt>
      <trkpt lat="44.90581" lon="6.07611">
        <ele>1502.6</ele>
        <time>2024-08-14T08:20:22Z</time>
      </trkpt>
      <trkpt lat="44.90581" lon="6.07611">
        <ele>1502.6</ele>
        <time>2024-08-14T08:20:23Z</time>
      </trkpt>
      <trkpt lat="44.90581" lon="6.07611">
        <ele>1502.6</ele>
        <time>2024-08-14T08:20:24Z</time>
      </trkpt>
      <trkpt lat="44.90581" lon="6.07611">
        <ele>1502.6</ele>
        <time>2024-08-14T08:20:25Z</time>
      </trkpt>
      <trkpt lat="44.90581" lon="6.07611">
        <ele>1502.4</ele>
        <time>2024-08-14T08:20:26Z</time>
      </trkpt>
      <trkpt lat="44.90581" lon="6.07611">
        <ele>1502.4</ele>
        <time>2024-08-14T08:20:27Z</time>
      </trkpt>
      <trkpt lat="44.90581" lon="6.07611">
        <ele>1502.4</ele>
        <time>2024-08-14T08:20:28Z</time>
      </trkpt>
      <trkpt lat="44.90581" lon="6.07611">
        <ele>1502.4</ele>
        <time>2024-08-14T08:20:29Z</time>
      </trkpt>
      <trkpt lat="44.90581" lon="6.07611">
        <ele>1502</ele>
        <time>2024-08-14T08:20:30Z</time>
      </trkpt>
      <trkpt lat="44.90581" lon="6.07611">
        <ele>1502</ele>
        <time>2024-08-14T08:20:31Z</time>
      </trkpt>
      <trkpt lat="44.90581" lon="6.07611">
        <ele>1502</ele>
        <time>2024-08-14T08:20:32Z</time>
      </trkpt>
      <trkpt lat="44.90581" lon="6.07611">
        <ele>1501.8</ele>
        <time>2024-08-14T08:20:33Z</time>
      </trkpt>
      <trkpt lat="44.90581" lon="6.07611">
        <ele>1501.8</ele>
        <time>2024-08-14T08:20:34Z</time>
      </trkpt>
      <trkpt lat="44.90581" lon="6.07611">
        <ele>1502</ele>
        <time>2024-08-14T08:20:35Z</time>
      </trkpt>
      <trkpt lat="44.90581" lon="6.07611">
        <ele>1502</ele>
        <time>2024-08-14T08:20:36Z</time>
      </trkpt>
      <trkpt lat="44.90581" lon="6.07611">
        <ele>1502</ele>
        <time>2024-08-14T08:20:37Z</time>
      </trkpt>
      <trkpt lat="44.90581" lon="6.07611">
        <ele>1502</ele>
        <time>2024-08-14T08:20:38Z</time>
      </trkpt>
      <trkpt lat="44.90581" lon="6.07611">
        <ele>1502</ele>
        <time>2024-08-14T08:20:39Z</time>
      </trkpt>
      <trkpt lat="44.90581" lon="6.07611">
        <ele>1502.2</ele>
        <time>2024-08-14T08:20:40Z</time>
      </trkpt>
      <trkpt lat="44.90581" lon="6.07611">
        <ele>1502.4</ele>
        <time>2024-08-14T08:20:41Z</time>
      </trkpt>
      <trkpt lat="44.90581" lon="6.07611">
        <ele>1502.6</ele>
        <time>2024-08-14T08:20:42Z</time>
      </trkpt>
      <trkpt lat="44.90581" lon="6.07611">
        <ele>1502.6</ele>
        <time>2024-08-14T08:20:43Z</time>
      </trkpt>
      <trkpt lat="44.90581" lon="6.07611">
        <ele>1502.6</ele>
        <time>2024-08-14T08:20:44Z</time>
      </trkpt>
      <trkpt lat="44.90581" lon="6.07611">
        <ele>1502.4</ele>
        <time>2024-08-14T08:20:45Z</time>
      </trkpt>
      <trkpt lat="44.90581" lon="6.07611">
        <ele>1502.2</ele>
        <time>2024-08-14T08:20:46Z</time>
      </trkpt>
      <trkpt lat="44.90581" lon="6.07611">
        <ele>1502.2</ele>
        <time>2024-08-14T08:20:47Z</time>
      </trkpt>
      <trkpt lat="44.90581" lon="6.07611">
        <ele>1502.4</ele>
        <time>2024-08-14T08:20:48Z</time>
      </trkpt>
      <trkpt lat="44.90581" lon="6.07611">
        <ele>1502.4</ele>
        <time>2024-08-14T08:20:49Z</time>
      </trkpt>
      <trkpt lat="44.90581" lon="6.07611">
        <ele>1502.4</ele>
        <time>2024-08-14T08:20:50Z</time>
      </trkpt>
      <trkpt lat="44.90581" lon="6.07611">
        <ele>1502.6</ele>
        <time>2024-08-14T08:20:51Z</time>
      </trkpt>
      <trkpt lat="44.90581" lon="6.07611">
        <ele>1502.6</ele>
        <time>2024-08-14T08:20:52Z</time>
      </trkpt>
      <trkpt lat="44.90581" lon="6.07611">
        <ele>1502.2</ele>
        <time>2024-08-14T08:20:53Z</time>
      </trkpt>
      <trkpt lat="44.90581" lon="6.07611">
        <ele>1502.2</ele>
        <time>2024-08-14T08:20:54Z</time>
      </trkpt>
      <trkpt lat="44.90581" lon="6.07611">
        <ele>1502.2</ele>
        <time>2024-08-14T08:20:55Z</time>
      </trkpt>
      <trkpt lat="44.90581" lon="6.07611">
        <ele>1502.2</ele>
        <time>2024-08-14T08:20:56Z</time>
      </trkpt>
      <trkpt lat="44.90581" lon="6.07611">
        <ele>1502.2</ele>
        <time>2024-08-14T08:20:57Z</time>
      </trkpt>
      <trkpt lat="44.90581" lon="6.07611">
        <ele>1502</ele>
        <time>2024-08-14T08:20:58Z</time>
      </trkpt>
      <trkpt lat="44.90581" lon="6.07611">
        <ele>1501.6</ele>
        <time>2024-08-14T08:20:59Z</time>
      </trkpt>
      <trkpt lat="44.90581" lon="6.07611">
        <ele>1501.6</ele>
        <time>2024-08-14T08:21:00Z</time>
      </trkpt>
      <trkpt lat="44.90581" lon="6.07611">
        <ele>1501.4</ele>
        <time>2024-08-14T08:21:01Z</time>
      </trkpt>
      <trkpt lat="44.90581" lon="6.07611">
        <ele>1501.2</ele>
        <time>2024-08-14T08:21:02Z</time>
      </trkpt>
      <trkpt lat="44.90581" lon="6.07611">
        <ele>1501.2</ele>
        <time>2024-08-14T08:21:03Z</time>
      </trkpt>
      <trkpt lat="44.90581" lon="6.07611">
        <ele>1501.4</ele>
        <time>2024-08-14T08:21:04Z</time>
      </trkpt>
      <trkpt lat="44.90581" lon="6.07611">
        <ele>1501.4</ele>
        <time>2024-08-14T08:21:05Z</time>
      </trkpt>
      <trkpt lat="44.90581" lon="6.07611">
        <ele>1501.6</ele>
        <time>2024-08-14T08:21:06Z</time>
      </trkpt>
      <trkpt lat="44.90581" lon="6.07611">
        <ele>1501.6</ele>
        <time>2024-08-14T08:21:07Z</time>
      </trkpt>
      <trkpt lat="44.90581" lon="6.07611">
        <ele>1501.8</ele>
        <time>2024-08-14T08:21:08Z</time>
      </trkpt>
      <trkpt lat="44.90581" lon="6.07611">
        <ele>1501.8</ele>
        <time>2024-08-14T08:21:09Z</time>
      </trkpt>
      <trkpt lat="44.90581" lon="6.07611">
        <ele>1501.8</ele>
        <time>2024-08-14T08:21:10Z</time>
      </trkpt>
      <trkpt lat="44.90581" lon="6.07611">
        <ele>1502</ele>
        <time>2024-08-14T08:21:11Z</time>
      </trkpt>
      <trkpt lat="44.90581" lon="6.07611">
        <ele>1502</ele>
        <time>2024-08-14T08:21:12Z</time>
      </trkpt>
      <trkpt lat="44.90581" lon="6.07611">
        <ele>1502</ele>
        <time>2024-08-14T08:21:13Z</time>
      </trkpt>
      <trkpt lat="44.90581" lon="6.07611">
        <ele>1502</ele>
        <time>2024-08-14T08:21:14Z</time>
      </trkpt>
      <trkpt lat="44.90581" lon="6.07611">
        <ele>1502</ele>
        <time>2024-08-14T08:21:15Z</time>
      </trkpt>
      <trkpt lat="44.90581" lon="6.07611">
        <ele>1502</ele>
        <time>2024-08-14T08:21:16Z</time>
      </trkpt>
      <trkpt lat="44.90581" lon="6.07611">
        <ele>1502</ele>
        <time>2024-08-14T08:21:17Z</time>
      </trkpt>
      <trkpt lat="44.90581" lon="6.07611">
        <ele>1502</ele>
        <time>2024-08-14T08:21:18Z</time>
      </trkpt>
      <trkpt lat="44.90581" lon="6.07611">
        <ele>1501.8</ele>
        <time>2024-08-14T08:21:19Z</time>
      </trkpt>
      <trkpt lat="44.90581" lon="6.07611">
        <ele>1501.8</ele>
        <time>2024-08-14T08:21:20Z</time>
      </trkpt>
      <trkpt lat="44.90581" lon="6.07611">
        <ele>1501.8</ele>
        <time>2024-08-14T08:21:21Z</time>
      </trkpt>
      <trkpt lat="44.90581" lon="6.07611">
        <ele>1501.8</ele>
        <time>2024-08-14T08:21:22Z</time>
      </trkpt>
      <trkpt lat="44.90581" lon="6.07611">
        <ele>1502</ele>
        <time>2024-08-14T08:21:23Z</time>
      </trkpt>
      <trkpt lat="44.90581" lon="6.07611">
        <ele>1502</ele>
        <time>2024-08-14T08:21:24Z</time>
      </trkpt>
      <trkpt lat="44.90581" lon="6.07611">
        <ele>1502</ele>
        <time>2024-08-14T08:21:25Z</time>
      </trkpt>
      <trkpt lat="44.90581" lon="6.07611">
        <ele>1502</ele>
        <time>2024-08-14T08:21:26Z</time>
      </trkpt>
      <trkpt lat="44.90581" lon="6.07611">
        <ele>1502</ele>
        <time>2024-08-14T08:21:27Z</time>
      </trkpt>
      <trkpt lat="44.90581" lon="6.07611">
        <ele>1501.8</ele>
        <time>2024-08-14T08:21:28Z</time>
      </trkpt>
      <trkpt lat="44.90581" lon="6.07611">
        <ele>1501.6</ele>
        <time>2024-08-14T08:21:29Z</time>
      </trkpt>
      <trkpt lat="44.90581" lon="6.07611">
        <ele>1501.6</ele>
        <time>2024-08-14T08:21:30Z</time>
      </trkpt>
      <trkpt lat="44.90581" lon="6.07611">
        <ele>1501.6</ele>
        <time>2024-08-14T08:21:31Z</time>
      </trkpt>
      <trkpt lat="44.90581" lon="6.07611">
        <ele>1501.6</ele>
        <time>2024-08-14T08:21:32Z</time>
      </trkpt>
      <trkpt lat="44.90581" lon="6.07611">
        <ele>1501.6</ele>
        <time>2024-08-14T08:21:33Z</time>
      </trkpt>
      <trkpt lat="44.90581" lon="6.07611">
        <ele>1501.6</ele>
        <time>2024-08-14T08:21:34Z</time>
      </trkpt>
      <trkpt lat="44.90581" lon="6.07611">
        <ele>1501.6</ele>
        <time>2024-08-14T08:21:35Z</time>
      </trkpt>
      <trkpt lat="44.90581" lon="6.07611">
        <ele>1501.6</ele>
        <time>2024-08-14T08:21:36Z</time>
      </trkpt>
      <trkpt lat="44.90581" lon="6.07611">
        <ele>1501.6</ele>
        <time>2024-08-14T08:21:37Z</time>
      </trkpt>
      <trkpt lat="44.90581" lon="6.07611">
        <ele>1501.6</ele>
        <time>2024-08-14T08:21:38Z</time>
      </trkpt>
      <trkpt lat="44.90581" lon="6.07611">
        <ele>1501.4</ele>
        <time>2024-08-14T08:21:39Z</time>
      </trkpt>
      <trkpt lat="44.90583" lon="6.07612">
        <ele>1501.4</ele>
        <time>2024-08-14T08:21:40Z</time>
      </trkpt>
      <trkpt lat="44.90583" lon="6.07612">
        <ele>1501.6</ele>
        <time>2024-08-14T08:21:41Z</time>
      </trkpt>
      <trkpt lat="44.90585" lon="6.07614">
        <ele>1501.8</ele>
        <time>2024-08-14T08:21:42Z</time>
      </trkpt>
      <trkpt lat="44.90585" lon="6.07614">
        <ele>1501.8</ele>
        <time>2024-08-14T08:21:43Z</time>
      </trkpt>
      <trkpt lat="44.90585" lon="6.07614">
        <ele>1501.8</ele>
        <time>2024-08-14T08:21:44Z</time>
      </trkpt>
      <trkpt lat="44.90587" lon="6.07615">
        <ele>1502.2</ele>
        <time>2024-08-14T08:21:45Z</time>
      </trkpt>
      <trkpt lat="44.90587" lon="6.07615">
        <ele>1502.2</ele>
        <time>2024-08-14T08:21:46Z</time>
      </trkpt>
      <trkpt lat="44.90587" lon="6.07615">
        <ele>1502.4</ele>
        <time>2024-08-14T08:21:47Z</time>
      </trkpt>
      <trkpt lat="44.90589" lon="6.07617">
        <ele>1502.2</ele>
        <time>2024-08-14T08:21:48Z</time>
      </trkpt>
      <trkpt lat="44.90589" lon="6.07617">
        <ele>1502.6</ele>
        <time>2024-08-14T08:21:49Z</time>
      </trkpt>
      <trkpt lat="44.90589" lon="6.07617">
        <ele>1502.6</ele>
        <time>2024-08-14T08:21:50Z</time>
      </trkpt>
      <trkpt lat="44.90591" lon="6.0762">
        <ele>1502.4</ele>
        <time>2024-08-14T08:21:51Z</time>
      </trkpt>
      <trkpt lat="44.90591" lon="6.0762">
        <ele>1502.4</ele>
        <time>2024-08-14T08:21:52Z</time>
      </trkpt>
      <trkpt lat="44.90592" lon="6.07621">
        <ele>1502.8</ele>
        <time>2024-08-14T08:21:53Z</time>
      </trkpt>
      <trkpt lat="44.90592" lon="6.07621">
        <ele>1502.8</ele>
        <time>2024-08-14T08:21:54Z</time>
      </trkpt>
      <trkpt lat="44.90594" lon="6.07622">
        <ele>1503</ele>
        <time>2024-08-14T08:21:55Z</time>
      </trkpt>
      <trkpt lat="44.90594" lon="6.07622">
        <ele>1503.4</ele>
        <time>2024-08-14T08:21:56Z</time>
      </trkpt>
      <trkpt lat="44.90594" lon="6.07622">
        <ele>1503.6</ele>
        <time>2024-08-14T08:21:57Z</time>
      </trkpt>
      <trkpt lat="44.90596" lon="6.07624">
        <ele>1503.6</ele>
        <time>2024-08-14T08:21:58Z</time>
      </trkpt>
      <trkpt lat="44.90596" lon="6.07624">
        <ele>1504</ele>
        <time>2024-08-14T08:21:59Z</time>
      </trkpt>
      <trkpt lat="44.90596" lon="6.07624">
        <ele>1504.2</ele>
        <time>2024-08-14T08:22:00Z</time>
      </trkpt>
      <trkpt lat="44.90598" lon="6.07625">
        <ele>1504.2</ele>
        <time>2024-08-14T08:22:01Z</time>
      </trkpt>
      <trkpt lat="44.90598" lon="6.07625">
        <ele>1504.4</ele>
        <time>2024-08-14T08:22:02Z</time>
      </trkpt>
      <trkpt lat="44.906" lon="6.07628">
        <ele>1504.4</ele>
        <time>2024-08-14T08:22:03Z</time>
      </trkpt>
      <trkpt lat="44.906" lon="6.07628">
        <ele>1504.6</ele>
        <time>2024-08-14T08:22:04Z</time>
      </trkpt>
      <trkpt lat="44.906" lon="6.07628">
        <ele>1504.8</ele>
        <time>2024-08-14T08:22:05Z</time>
      </trkpt>
      <trkpt lat="44.90601" lon="6.0763">
        <ele>1505.2</ele>
        <time>2024-08-14T08:22:06Z</time>
      </trkpt>
      <trkpt lat="44.90601" lon="6.0763">
        <ele>1505.2</ele>
        <time>2024-08-14T08:22:07Z</time>
      </trkpt>
      <trkpt lat="44.90601" lon="6.0763">
        <ele>1505.4</ele>
        <time>2024-08-14T08:22:08Z</time>
      </trkpt>
      <trkpt lat="44.90603" lon="6.07632">
        <ele>1505.8</ele>
        <time>2024-08-14T08:22:09Z</time>
      </trkpt>
      <trkpt lat="44.90603" lon="6.07632">
        <ele>1505.8</ele>
        <time>2024-08-14T08:22:10Z</time>
      </trkpt>
      <trkpt lat="44.90603" lon="6.07632">
        <ele>1506</ele>
        <time>2024-08-14T08:22:11Z</time>
      </trkpt>
      <trkpt lat="44.90605" lon="6.07634">
        <ele>1506</ele>
        <time>2024-08-14T08:22:12Z</time>
      </trkpt>
      <trkpt lat="44.90605" lon="6.07634">
        <ele>1506.2</ele>
        <time>2024-08-14T08:22:13Z</time>
      </trkpt>
      <trkpt lat="44.90607" lon="6.07634">
        <ele>1506.4</ele>
        <time>2024-08-14T08:22:14Z</time>
      </trkpt>
      <trkpt lat="44.90607" lon="6.07634">
        <ele>1506.4</ele>
        <time>2024-08-14T08:22:15Z</time>
      </trkpt>
      <trkpt lat="44.90607" lon="6.07634">
        <ele>1506.2</ele>
        <time>2024-08-14T08:22:16Z</time>
      </trkpt>
      <trkpt lat="44.90609" lon="6.07634">
        <ele>1506.2</ele>
        <time>2024-08-14T08:22:17Z</time>
      </trkpt>
      <trkpt lat="44.90609" lon="6.07634">
        <ele>1506.4</ele>
        <time>2024-08-14T08:22:18Z</time>
      </trkpt>
      <trkpt lat="44.90609" lon="6.07634">
        <ele>1506.4</ele>
        <time>2024-08-14T08:22:19Z</time>
      </trkpt>
      <trkpt lat="44.90609" lon="6.07634">
        <ele>1506.6</ele>
        <time>2024-08-14T08:22:20Z</time>
      </trkpt>
      <trkpt lat="44.90609" lon="6.07634">
        <ele>1506.6</ele>
        <time>2024-08-14T08:22:21Z</time>
      </trkpt>
      <trkpt lat="44.90609" lon="6.07634">
        <ele>1506.8</ele>
        <time>2024-08-14T08:22:22Z</time>
      </trkpt>
      <trkpt lat="44.90609" lon="6.07634">
        <ele>1506.8</ele>
        <time>2024-08-14T08:22:23Z</time>
      </trkpt>
      <trkpt lat="44.90609" lon="6.07634">
        <ele>1506.6</ele>
        <time>2024-08-14T08:22:24Z</time>
      </trkpt>
      <trkpt lat="44.90609" lon="6.07634">
        <ele>1506.4</ele>
        <time>2024-08-14T08:22:25Z</time>
      </trkpt>
      <trkpt lat="44.90609" lon="6.07634">
        <ele>1506.4</ele>
        <time>2024-08-14T08:22:26Z</time>
      </trkpt>
      <trkpt lat="44.90609" lon="6.07634">
        <ele>1506.2</ele>
        <time>2024-08-14T08:22:27Z</time>
      </trkpt>
      <trkpt lat="44.90609" lon="6.07634">
        <ele>1506.2</ele>
        <time>2024-08-14T08:22:28Z</time>
      </trkpt>
      <trkpt lat="44.90609" lon="6.07634">
        <ele>1506.2</ele>
        <time>2024-08-14T08:22:29Z</time>
      </trkpt>
      <trkpt lat="44.90609" lon="6.07634">
        <ele>1506.2</ele>
        <time>2024-08-14T08:22:30Z</time>
      </trkpt>
      <trkpt lat="44.90609" lon="6.07634">
        <ele>1506.2</ele>
        <time>2024-08-14T08:22:31Z</time>
      </trkpt>
      <trkpt lat="44.90609" lon="6.07634">
        <ele>1506.2</ele>
        <time>2024-08-14T08:22:32Z</time>
      </trkpt>
      <trkpt lat="44.90609" lon="6.07634">
        <ele>1506.2</ele>
        <time>2024-08-14T08:22:33Z</time>
      </trkpt>
      <trkpt lat="44.90609" lon="6.07634">
        <ele>1506.2</ele>
        <time>2024-08-14T08:22:34Z</time>
      </trkpt>
      <trkpt lat="44.90609" lon="6.07634">
        <ele>1506.4</ele>
        <time>2024-08-14T08:22:35Z</time>
      </trkpt>
      <trkpt lat="44.90609" lon="6.07634">
        <ele>1506.4</ele>
        <time>2024-08-14T08:22:36Z</time>
      </trkpt>
      <trkpt lat="44.90609" lon="6.07634">
        <ele>1506.6</ele>
        <time>2024-08-14T08:22:37Z</time>
      </trkpt>
      <trkpt lat="44.90609" lon="6.07634">
        <ele>1506.8</ele>
        <time>2024-08-14T08:22:38Z</time>
      </trkpt>
      <trkpt lat="44.90609" lon="6.07634">
        <ele>1506.8</ele>
        <time>2024-08-14T08:22:39Z</time>
      </trkpt>
      <trkpt lat="44.90609" lon="6.07634">
        <ele>1506.8</ele>
        <time>2024-08-14T08:22:40Z</time>
      </trkpt>
      <trkpt lat="44.90609" lon="6.07634">
        <ele>1506.8</ele>
        <time>2024-08-14T08:22:41Z</time>
      </trkpt>
      <trkpt lat="44.90609" lon="6.07634">
        <ele>1506.6</ele>
        <time>2024-08-14T08:22:42Z</time>
      </trkpt>
      <trkpt lat="44.90609" lon="6.07634">
        <ele>1506.4</ele>
        <time>2024-08-14T08:22:43Z</time>
      </trkpt>
      <trkpt lat="44.90609" lon="6.07634">
        <ele>1506</ele>
        <time>2024-08-14T08:22:44Z</time>
      </trkpt>
      <trkpt lat="44.90609" lon="6.07634">
        <ele>1506</ele>
        <time>2024-08-14T08:22:45Z</time>
      </trkpt>
      <trkpt lat="44.90609" lon="6.07634">
        <ele>1506</ele>
        <time>2024-08-14T08:22:46Z</time>
      </trkpt>
      <trkpt lat="44.90609" lon="6.07634">
        <ele>1506.2</ele>
        <time>2024-08-14T08:22:47Z</time>
      </trkpt>
      <trkpt lat="44.90609" lon="6.07634">
        <ele>1506.2</ele>
        <time>2024-08-14T08:22:48Z</time>
      </trkpt>
      <trkpt lat="44.90609" lon="6.07634">
        <ele>1506.2</ele>
        <time>2024-08-14T08:22:49Z</time>
      </trkpt>
      <trkpt lat="44.90609" lon="6.07634">
        <ele>1506.6</ele>
        <time>2024-08-14T08:22:50Z</time>
      </trkpt>
      <trkpt lat="44.90609" lon="6.07634">
        <ele>1507</ele>
        <time>2024-08-14T08:22:51Z</time>
      </trkpt>
      <trkpt lat="44.90609" lon="6.07634">
        <ele>1507</ele>
        <time>2024-08-14T08:22:52Z</time>
      </trkpt>
      <trkpt lat="44.90609" lon="6.07634">
        <ele>1506.6</ele>
        <time>2024-08-14T08:22:53Z</time>
      </trkpt>
      <trkpt lat="44.90609" lon="6.07634">
        <ele>1506.2</ele>
        <time>2024-08-14T08:22:54Z</time>
      </trkpt>
      <trkpt lat="44.90609" lon="6.07634">
        <ele>1506.2</ele>
        <time>2024-08-14T08:22:55Z</time>
      </trkpt>
      <trkpt lat="44.90609" lon="6.07634">
        <ele>1506.2</ele>
        <time>2024-08-14T08:22:56Z</time>
      </trkpt>
      <trkpt lat="44.90609" lon="6.07634">
        <ele>1506.4</ele>
        <time>2024-08-14T08:22:57Z</time>
      </trkpt>
      <trkpt lat="44.90609" lon="6.07634">
        <ele>1506.8</ele>
        <time>2024-08-14T08:22:58Z</time>
      </trkpt>
      <trkpt lat="44.90609" lon="6.07634">
        <ele>1507.2</ele>
        <time>2024-08-14T08:22:59Z</time>
      </trkpt>
      <trkpt lat="44.90609" lon="6.07634">
        <ele>1507.2</ele>
        <time>2024-08-14T08:23:00Z</time>
      </trkpt>
      <trkpt lat="44.90609" lon="6.07634">
        <ele>1507</ele>
        <time>2024-08-14T08:23:01Z</time>
      </trkpt>
      <trkpt lat="44.90609" lon="6.07634">
        <ele>1506.8</ele>
        <time>2024-08-14T08:23:02Z</time>
      </trkpt>
      <trkpt lat="44.90609" lon="6.07634">
        <ele>1506.8</ele>
        <time>2024-08-14T08:23:03Z</time>
      </trkpt>
      <trkpt lat="44.90609" lon="6.07634">
        <ele>1506.8</ele>
        <time>2024-08-14T08:23:04Z</time>
      </trkpt>
      <trkpt lat="44.90609" lon="6.07634">
        <ele>1506.6</ele>
        <time>2024-08-14T08:23:05Z</time>
      </trkpt>
      <trkpt lat="44.90609" lon="6.07634">
        <ele>1506.4</ele>
        <time>2024-08-14T08:23:06Z</time>
      </trkpt>
      <trkpt lat="44.90609" lon="6.07634">
        <ele>1506</ele>
        <time>2024-08-14T08:23:07Z</time>
      </trkpt>
      <trkpt lat="44.90609" lon="6.07634">
        <ele>1506</ele>
        <time>2024-08-14T08:23:08Z</time>
      </trkpt>
      <trkpt lat="44.90609" lon="6.07634">
        <ele>1506</ele>
        <time>2024-08-14T08:23:09Z</time>
      </trkpt>
      <trkpt lat="44.90609" lon="6.07634">
        <ele>1506</ele>
        <time>2024-08-14T08:23:10Z</time>
      </trkpt>
      <trkpt lat="44.90609" lon="6.07634">
        <ele>1506</ele>
        <time>2024-08-14T08:23:11Z</time>
      </trkpt>
      <trkpt lat="44.90609" lon="6.07634">
        <ele>1506</ele>
        <time>2024-08-14T08:23:12Z</time>
      </trkpt>
      <trkpt lat="44.90609" lon="6.07634">
        <ele>1506</ele>
        <time>2024-08-14T08:23:13Z</time>
      </trkpt>
      <trkpt lat="44.90609" lon="6.07634">
        <ele>1506</ele>
        <time>2024-08-14T08:23:14Z</time>
      </trkpt>
      <trkpt lat="44.90609" lon="6.07634">
        <ele>1506.4</ele>
        <time>2024-08-14T08:23:15Z</time>
      </trkpt>
      <trkpt lat="44.90609" lon="6.07634">
        <ele>1506.8</ele>
        <time>2024-08-14T08:23:16Z</time>
      </trkpt>
      <trkpt lat="44.90609" lon="6.07634">
        <ele>1507</ele>
        <time>2024-08-14T08:23:17Z</time>
      </trkpt>
      <trkpt lat="44.90609" lon="6.07634">
        <ele>1507</ele>
        <time>2024-08-14T08:23:18Z</time>
      </trkpt>
      <trkpt lat="44.90609" lon="6.07634">
        <ele>1507</ele>
        <time>2024-08-14T08:23:19Z</time>
      </trkpt>
      <trkpt lat="44.90609" lon="6.07634">
        <ele>1507</ele>
        <time>2024-08-14T08:23:20Z</time>
      </trkpt>
      <trkpt lat="44.90609" lon="6.07634">
        <ele>1506.8</ele>
        <time>2024-08-14T08:23:21Z</time>
      </trkpt>
      <trkpt lat="44.90609" lon="6.07634">
        <ele>1506.6</ele>
        <time>2024-08-14T08:23:22Z</time>
      </trkpt>
      <trkpt lat="44.90609" lon="6.07634">
        <ele>1506.6</ele>
        <time>2024-08-14T08:23:23Z</time>
      </trkpt>
      <trkpt lat="44.90609" lon="6.07634">
        <ele>1506.6</ele>
        <time>2024-08-14T08:23:24Z</time>
      </trkpt>
      <trkpt lat="44.90609" lon="6.07634">
        <ele>1506.6</ele>
        <time>2024-08-14T08:23:25Z</time>
      </trkpt>
      <trkpt lat="44.90609" lon="6.07634">
        <ele>1506.8</ele>
        <time>2024-08-14T08:23:26Z</time>
      </trkpt>
      <trkpt lat="44.90609" lon="6.07634">
        <ele>1506.8</ele>
        <time>2024-08-14T08:23:27Z</time>
      </trkpt>
      <trkpt lat="44.90609" lon="6.07634">
        <ele>1506.8</ele>
        <time>2024-08-14T08:23:28Z</time>
      </trkpt>
      <trkpt lat="44.90609" lon="6.07634">
        <ele>1506.8</ele>
        <time>2024-08-14T08:23:29Z</time>
      </trkpt>
      <trkpt lat="44.90609" lon="6.07634">
        <ele>1506.6</ele>
        <time>2024-08-14T08:23:30Z</time>
      </trkpt>
      <trkpt lat="44.90609" lon="6.07634">
        <ele>1506.6</ele>
        <time>2024-08-14T08:23:31Z</time>
      </trkpt>
      <trkpt lat="44.90611" lon="6.07634">
        <ele>1506.6</ele>
        <time>2024-08-14T08:23:32Z</time>
      </trkpt>
      <trkpt lat="44.90611" lon="6.07634">
        <ele>1506.6</ele>
        <time>2024-08-14T08:23:33Z</time>
      </trkpt>
      <trkpt lat="44.90611" lon="6.07634">
        <ele>1506.8</ele>
        <time>2024-08-14T08:23:34Z</time>
      </trkpt>
      <trkpt lat="44.90613" lon="6.07636">
        <ele>1507</ele>
        <time>2024-08-14T08:23:35Z</time>
      </trkpt>
      <trkpt lat="44.90613" lon="6.07636">
        <ele>1507</ele>
        <time>2024-08-14T08:23:36Z</time>
      </trkpt>
      <trkpt lat="44.90616" lon="6.07637">
        <ele>1507.2</ele>
        <time>2024-08-14T08:23:37Z</time>
      </trkpt>
      <trkpt lat="44.90616" lon="6.07637">
        <ele>1507.2</ele>
        <time>2024-08-14T08:23:38Z</time>
      </trkpt>
      <trkpt lat="44.90618" lon="6.07639">
        <ele>1507.6</ele>
        <time>2024-08-14T08:23:39Z</time>
      </trkpt>
      <trkpt lat="44.90618" lon="6.07639">
        <ele>1507.8</ele>
        <time>2024-08-14T08:23:40Z</time>
      </trkpt>
      <trkpt lat="44.9062" lon="6.07642">
        <ele>1507.8</ele>
        <time>2024-08-14T08:23:41Z</time>
      </trkpt>
      <trkpt lat="44.9062" lon="6.07642">
        <ele>1508</ele>
        <time>2024-08-14T08:23:42Z</time>
      </trkpt>
      <trkpt lat="44.90621" lon="6.07643">
        <ele>1508.2</ele>
        <time>2024-08-14T08:23:43Z</time>
      </trkpt>
      <trkpt lat="44.90621" lon="6.07643">
        <ele>1508.2</ele>
        <time>2024-08-14T08:23:44Z</time>
      </trkpt>
      <trkpt lat="44.90623" lon="6.07645">
        <ele>1508.6</ele>
        <time>2024-08-14T08:23:45Z</time>
      </trkpt>
      <trkpt lat="44.90623" lon="6.07645">
        <ele>1508.8</ele>
        <time>2024-08-14T08:23:46Z</time>
      </trkpt>
      <trkpt lat="44.90625" lon="6.07647">
        <ele>1509</ele>
        <time>2024-08-14T08:23:47Z</time>
      </trkpt>
      <trkpt lat="44.90625" lon="6.07647">
        <ele>1509</ele>
        <time>2024-08-14T08:23:48Z</time>
      </trkpt>
      <trkpt lat="44.90627" lon="6.07648">
        <ele>1509.2</ele>
        <time>2024-08-14T08:23:49Z</time>
      </trkpt>
      <trkpt lat="44.90627" lon="6.07648">
        <ele>1509.4</ele>
        <time>2024-08-14T08:23:50Z</time>
      </trkpt>
      <trkpt lat="44.90629" lon="6.0765">
        <ele>1509.4</ele>
        <time>2024-08-14T08:23:51Z</time>
      </trkpt>
      <trkpt lat="44.90629" lon="6.0765">
        <ele>1509.6</ele>
        <time>2024-08-14T08:23:52Z</time>
      </trkpt>
      <trkpt lat="44.90631" lon="6.07652">
        <ele>1509.6</ele>
        <time>2024-08-14T08:23:53Z</time>
      </trkpt>
      <trkpt lat="44.90631" lon="6.07652">
        <ele>1509.6</ele>
        <time>2024-08-14T08:23:54Z</time>
      </trkpt>
      <trkpt lat="44.90633" lon="6.07655">
        <ele>1509.6</ele>
        <time>2024-08-14T08:23:55Z</time>
      </trkpt>
      <trkpt lat="44.90633" lon="6.07655">
        <ele>1509.6</ele>
        <time>2024-08-14T08:23:56Z</time>
      </trkpt>
      <trkpt lat="44.90634" lon="6.07656">
        <ele>1509.8</ele>
        <time>2024-08-14T08:23:57Z</time>
      </trkpt>
      <trkpt lat="44.90634" lon="6.07656">
        <ele>1509.8</ele>
        <time>2024-08-14T08:23:58Z</time>
      </trkpt>
      <trkpt lat="44.90637" lon="6.07659">
        <ele>1509.8</ele>
        <time>2024-08-14T08:23:59Z</time>
      </trkpt>
      <trkpt lat="44.90637" lon="6.07659">
        <ele>1509.8</ele>
        <time>2024-08-14T08:24:00Z</time>
      </trkpt>
      <trkpt lat="44.90638" lon="6.07661">
        <ele>1510.2</ele>
        <time>2024-08-14T08:24:01Z</time>
      </trkpt>
      <trkpt lat="44.90638" lon="6.07661">
        <ele>1510.4</ele>
        <time>2024-08-14T08:24:02Z</time>
      </trkpt>
      <trkpt lat="44.9064" lon="6.07663">
        <ele>1510.4</ele>
        <time>2024-08-14T08:24:03Z</time>
      </trkpt>
      <trkpt lat="44.9064" lon="6.07663">
        <ele>1510.6</ele>
        <time>2024-08-14T08:24:04Z</time>
      </trkpt>
      <trkpt lat="44.90642" lon="6.07666">
        <ele>1510.8</ele>
        <time>2024-08-14T08:24:05Z</time>
      </trkpt>
      <trkpt lat="44.90642" lon="6.07666">
        <ele>1511</ele>
        <time>2024-08-14T08:24:06Z</time>
      </trkpt>
      <trkpt lat="44.90643" lon="6.07669">
        <ele>1511</ele>
        <time>2024-08-14T08:24:07Z</time>
      </trkpt>
      <trkpt lat="44.90643" lon="6.07669">
        <ele>1511</ele>
        <time>2024-08-14T08:24:08Z</time>
      </trkpt>
      <trkpt lat="44.90645" lon="6.07671">
        <ele>1511.2</ele>
        <time>2024-08-14T08:24:09Z</time>
      </trkpt>
      <trkpt lat="44.90645" lon="6.07671">
        <ele>1511.6</ele>
        <time>2024-08-14T08:24:10Z</time>
      </trkpt>
      <trkpt lat="44.90647" lon="6.07673">
        <ele>1511.8</ele>
        <time>2024-08-14T08:24:11Z</time>
      </trkpt>
      <trkpt lat="44.90647" lon="6.07673">
        <ele>1511.8</ele>
        <time>2024-08-14T08:24:12Z</time>
      </trkpt>
      <trkpt lat="44.90647" lon="6.07676">
        <ele>1511.8</ele>
        <time>2024-08-14T08:24:13Z</time>
      </trkpt>
      <trkpt lat="44.90647" lon="6.07676">
        <ele>1512</ele>
        <time>2024-08-14T08:24:14Z</time>
      </trkpt>
      <trkpt lat="44.90649" lon="6.07679">
        <ele>1512.2</ele>
        <time>2024-08-14T08:24:15Z</time>
      </trkpt>
      <trkpt lat="44.90649" lon="6.07679">
        <ele>1512.2</ele>
        <time>2024-08-14T08:24:16Z</time>
      </trkpt>
      <trkpt lat="44.90651" lon="6.07681">
        <ele>1512.2</ele>
        <time>2024-08-14T08:24:17Z</time>
      </trkpt>
      <trkpt lat="44.90651" lon="6.07681">
        <ele>1512.2</ele>
        <time>2024-08-14T08:24:18Z</time>
      </trkpt>
      <trkpt lat="44.90653" lon="6.07683">
        <ele>1512.6</ele>
        <time>2024-08-14T08:24:19Z</time>
      </trkpt>
      <trkpt lat="44.90653" lon="6.07683">
        <ele>1513</ele>
        <time>2024-08-14T08:24:20Z</time>
      </trkpt>
      <trkpt lat="44.90655" lon="6.07686">
        <ele>1513.2</ele>
        <time>2024-08-14T08:24:21Z</time>
      </trkpt>
      <trkpt lat="44.90655" lon="6.07686">
        <ele>1513.4</ele>
        <time>2024-08-14T08:24:22Z</time>
      </trkpt>
      <trkpt lat="44.90657" lon="6.07688">
        <ele>1513.4</ele>
        <time>2024-08-14T08:24:23Z</time>
      </trkpt>
      <trkpt lat="44.90657" lon="6.07688">
        <ele>1513.6</ele>
        <time>2024-08-14T08:24:24Z</time>
      </trkpt>
      <trkpt lat="44.90657" lon="6.07688">
        <ele>1513.6</ele>
        <time>2024-08-14T08:24:25Z</time>
      </trkpt>
      <trkpt lat="44.90659" lon="6.07688">
        <ele>1513.8</ele>
        <time>2024-08-14T08:24:26Z</time>
      </trkpt>
      <trkpt lat="44.90659" lon="6.07688">
        <ele>1514.2</ele>
        <time>2024-08-14T08:24:27Z</time>
      </trkpt>
      <trkpt lat="44.90661" lon="6.07689">
        <ele>1514.4</ele>
        <time>2024-08-14T08:24:28Z</time>
      </trkpt>
      <trkpt lat="44.90661" lon="6.07689">
        <ele>1514.6</ele>
        <time>2024-08-14T08:24:29Z</time>
      </trkpt>
      <trkpt lat="44.90663" lon="6.07691">
        <ele>1514.6</ele>
        <time>2024-08-14T08:24:30Z</time>
      </trkpt>
      <trkpt lat="44.90663" lon="6.07691">
        <ele>1514.6</ele>
        <time>2024-08-14T08:24:31Z</time>
      </trkpt>
      <trkpt lat="44.90665" lon="6.07693">
        <ele>1514.6</ele>
        <time>2024-08-14T08:24:32Z</time>
      </trkpt>
      <trkpt lat="44.90666" lon="6.07695">
        <ele>1514.8</ele>
        <time>2024-08-14T08:24:33Z</time>
      </trkpt>
      <trkpt lat="44.90666" lon="6.07695">
        <ele>1514.8</ele>
        <time>2024-08-14T08:24:34Z</time>
      </trkpt>
      <trkpt lat="44.90668" lon="6.07697">
        <ele>1514.8</ele>
        <time>2024-08-14T08:24:35Z</time>
      </trkpt>
      <trkpt lat="44.90668" lon="6.07697">
        <ele>1515</ele>
        <time>2024-08-14T08:24:36Z</time>
      </trkpt>
      <trkpt lat="44.90669" lon="6.077">
        <ele>1515.4</ele>
        <time>2024-08-14T08:24:37Z</time>
      </trkpt>
      <trkpt lat="44.90669" lon="6.077">
        <ele>1515.4</ele>
        <time>2024-08-14T08:24:38Z</time>
      </trkpt>
      <trkpt lat="44.9067" lon="6.07702">
        <ele>1515.4</ele>
        <time>2024-08-14T08:24:39Z</time>
      </trkpt>
      <trkpt lat="44.9067" lon="6.07702">
        <ele>1515.6</ele>
        <time>2024-08-14T08:24:40Z</time>
      </trkpt>
      <trkpt lat="44.90672" lon="6.07705">
        <ele>1515.8</ele>
        <time>2024-08-14T08:24:41Z</time>
      </trkpt>
      <trkpt lat="44.90672" lon="6.07705">
        <ele>1515.8</ele>
        <time>2024-08-14T08:24:42Z</time>
      </trkpt>
      <trkpt lat="44.90672" lon="6.07707">
        <ele>1516</ele>
        <time>2024-08-14T08:24:43Z</time>
      </trkpt>
      <trkpt lat="44.90672" lon="6.07707">
        <ele>1516.6</ele>
        <time>2024-08-14T08:24:44Z</time>
      </trkpt>
      <trkpt lat="44.90673" lon="6.0771">
        <ele>1516.6</ele>
        <time>2024-08-14T08:24:45Z</time>
      </trkpt>
      <trkpt lat="44.90673" lon="6.0771">
        <ele>1516.6</ele>
        <time>2024-08-14T08:24:46Z</time>
      </trkpt>
      <trkpt lat="44.90673" lon="6.07713">
        <ele>1516.8</ele>
        <time>2024-08-14T08:24:47Z</time>
      </trkpt>
      <trkpt lat="44.90673" lon="6.07713">
        <ele>1517</ele>
        <time>2024-08-14T08:24:48Z</time>
      </trkpt>
      <trkpt lat="44.90673" lon="6.07716">
        <ele>1517.2</ele>
        <time>2024-08-14T08:24:49Z</time>
      </trkpt>
      <trkpt lat="44.90673" lon="6.07716">
        <ele>1518</ele>
        <time>2024-08-14T08:24:50Z</time>
      </trkpt>
      <trkpt lat="44.90673" lon="6.07719">
        <ele>1518.2</ele>
        <time>2024-08-14T08:24:51Z</time>
      </trkpt>
      <trkpt lat="44.90673" lon="6.07719">
        <ele>1518.2</ele>
        <time>2024-08-14T08:24:52Z</time>
      </trkpt>
      <trkpt lat="44.90674" lon="6.07721">
        <ele>1518.4</ele>
        <time>2024-08-14T08:24:53Z</time>
      </trkpt>
      <trkpt lat="44.90674" lon="6.07721">
        <ele>1518.4</ele>
        <time>2024-08-14T08:24:54Z</time>
      </trkpt>
      <trkpt lat="44.90674" lon="6.07724">
        <ele>1518.4</ele>
        <time>2024-08-14T08:24:55Z</time>
      </trkpt>
      <trkpt lat="44.90674" lon="6.07724">
        <ele>1518.6</ele>
        <time>2024-08-14T08:24:56Z</time>
      </trkpt>
      <trkpt lat="44.90674" lon="6.07724">
        <ele>1518.6</ele>
        <time>2024-08-14T08:24:57Z</time>
      </trkpt>
      <trkpt lat="44.90674" lon="6.07724">
        <ele>1518.8</ele>
        <time>2024-08-14T08:24:58Z</time>
      </trkpt>
      <trkpt lat="44.90674" lon="6.07724">
        <ele>1519.4</ele>
        <time>2024-08-14T08:24:59Z</time>
      </trkpt>
      <trkpt lat="44.90674" lon="6.07724">
        <ele>1519.6</ele>
        <time>2024-08-14T08:25:00Z</time>
      </trkpt>
      <trkpt lat="44.90674" lon="6.07724">
        <ele>1519.6</ele>
        <time>2024-08-14T08:25:01Z</time>
      </trkpt>
      <trkpt lat="44.90674" lon="6.07724">
        <ele>1519.8</ele>
        <time>2024-08-14T08:25:02Z</time>
      </trkpt>
      <trkpt lat="44.90674" lon="6.07724">
        <ele>1519.8</ele>
        <time>2024-08-14T08:25:03Z</time>
      </trkpt>
      <trkpt lat="44.90674" lon="6.07724">
        <ele>1519.8</ele>
        <time>2024-08-14T08:25:04Z</time>
      </trkpt>
      <trkpt lat="44.90672" lon="6.07724">
        <ele>1519.8</ele>
        <time>2024-08-14T08:25:05Z</time>
      </trkpt>
      <trkpt lat="44.90672" lon="6.07724">
        <ele>1519.8</ele>
        <time>2024-08-14T08:25:06Z</time>
      </trkpt>
      <trkpt lat="44.90672" lon="6.07724">
        <ele>1520</ele>
        <time>2024-08-14T08:25:07Z</time>
      </trkpt>
      <trkpt lat="44.90672" lon="6.07724">
        <ele>1520</ele>
        <time>2024-08-14T08:25:08Z</time>
      </trkpt>
      <trkpt lat="44.90672" lon="6.07724">
        <ele>1520</ele>
        <time>2024-08-14T08:25:09Z</time>
      </trkpt>
      <trkpt lat="44.90672" lon="6.07724">
        <ele>1520</ele>
        <time>2024-08-14T08:25:10Z</time>
      </trkpt>
      <trkpt lat="44.90672" lon="6.07724">
        <ele>1520</ele>
        <time>2024-08-14T08:25:11Z</time>
      </trkpt>
      <trkpt lat="44.90672" lon="6.07724">
        <ele>1520</ele>
        <time>2024-08-14T08:25:12Z</time>
      </trkpt>
      <trkpt lat="44.90672" lon="6.07724">
        <ele>1520</ele>
        <time>2024-08-14T08:25:13Z</time>
      </trkpt>
      <trkpt lat="44.90672" lon="6.07724">
        <ele>1520.2</ele>
        <time>2024-08-14T08:25:14Z</time>
      </trkpt>
      <trkpt lat="44.90671" lon="6.07727">
        <ele>1520.2</ele>
        <time>2024-08-14T08:25:15Z</time>
      </trkpt>
      <trkpt lat="44.90672" lon="6.0773">
        <ele>1520.4</ele>
        <time>2024-08-14T08:25:16Z</time>
      </trkpt>
      <trkpt lat="44.90672" lon="6.0773">
        <ele>1520.4</ele>
        <time>2024-08-14T08:25:17Z</time>
      </trkpt>
      <trkpt lat="44.90672" lon="6.07734">
        <ele>1520.4</ele>
        <time>2024-08-14T08:25:18Z</time>
      </trkpt>
      <trkpt lat="44.90672" lon="6.07734">
        <ele>1520.8</ele>
        <time>2024-08-14T08:25:19Z</time>
      </trkpt>
      <trkpt lat="44.90673" lon="6.07738">
        <ele>1520.8</ele>
        <time>2024-08-14T08:25:20Z</time>
      </trkpt>
      <trkpt lat="44.90673" lon="6.07738">
        <ele>1520.8</ele>
        <time>2024-08-14T08:25:21Z</time>
      </trkpt>
      <trkpt lat="44.90674" lon="6.07741">
        <ele>1520.8</ele>
        <time>2024-08-14T08:25:22Z</time>
      </trkpt>
      <trkpt lat="44.90674" lon="6.07741">
        <ele>1521</ele>
        <time>2024-08-14T08:25:23Z</time>
      </trkpt>
      <trkpt lat="44.90674" lon="6.07741">
        <ele>1521.2</ele>
        <time>2024-08-14T08:25:24Z</time>
      </trkpt>
      <trkpt lat="44.90675" lon="6.07745">
        <ele>1521.6</ele>
        <time>2024-08-14T08:25:25Z</time>
      </trkpt>
      <trkpt lat="44.90675" lon="6.07745">
        <ele>1521.6</ele>
        <time>2024-08-14T08:25:26Z</time>
      </trkpt>
      <trkpt lat="44.90676" lon="6.07747">
        <ele>1522</ele>
        <time>2024-08-14T08:25:27Z</time>
      </trkpt>
      <trkpt lat="44.90676" lon="6.07747">
        <ele>1522</ele>
        <time>2024-08-14T08:25:28Z</time>
      </trkpt>
      <trkpt lat="44.90676" lon="6.07747">
        <ele>1522</ele>
        <time>2024-08-14T08:25:29Z</time>
      </trkpt>
      <trkpt lat="44.90678" lon="6.0775">
        <ele>1522</ele>
        <time>2024-08-14T08:25:30Z</time>
      </trkpt>
      <trkpt lat="44.90678" lon="6.0775">
        <ele>1522.4</ele>
        <time>2024-08-14T08:25:31Z</time>
      </trkpt>
      <trkpt lat="44.9068" lon="6.07752">
        <ele>1522.6</ele>
        <time>2024-08-14T08:25:32Z</time>
      </trkpt>
      <trkpt lat="44.9068" lon="6.07752">
        <ele>1522.8</ele>
        <time>2024-08-14T08:25:33Z</time>
      </trkpt>
      <trkpt lat="44.90682" lon="6.07754">
        <ele>1522.8</ele>
        <time>2024-08-14T08:25:34Z</time>
      </trkpt>
      <trkpt lat="44.90682" lon="6.07754">
        <ele>1523</ele>
        <time>2024-08-14T08:25:35Z</time>
      </trkpt>
      <trkpt lat="44.90682" lon="6.07754">
        <ele>1523.2</ele>
        <time>2024-08-14T08:25:36Z</time>
      </trkpt>
      <trkpt lat="44.90685" lon="6.07756">
        <ele>1523.6</ele>
        <time>2024-08-14T08:25:37Z</time>
      </trkpt>
      <trkpt lat="44.90685" lon="6.07756">
        <ele>1523.6</ele>
        <time>2024-08-14T08:25:38Z</time>
      </trkpt>
      <trkpt lat="44.90687" lon="6.07757">
        <ele>1523.8</ele>
        <time>2024-08-14T08:25:39Z</time>
      </trkpt>
      <trkpt lat="44.90687" lon="6.07757">
        <ele>1524</ele>
        <time>2024-08-14T08:25:40Z</time>
      </trkpt>
      <trkpt lat="44.90688" lon="6.07758">
        <ele>1524.2</ele>
        <time>2024-08-14T08:25:41Z</time>
      </trkpt>
      <trkpt lat="44.90688" lon="6.07758">
        <ele>1524.2</ele>
        <time>2024-08-14T08:25:42Z</time>
      </trkpt>
      <trkpt lat="44.9069" lon="6.0776">
        <ele>1524.2</ele>
        <time>2024-08-14T08:25:43Z</time>
      </trkpt>
      <trkpt lat="44.9069" lon="6.0776">
        <ele>1524.6</ele>
        <time>2024-08-14T08:25:44Z</time>
      </trkpt>
      <trkpt lat="44.90693" lon="6.07761">
        <ele>1524.6</ele>
        <time>2024-08-14T08:25:45Z</time>
      </trkpt>
      <trkpt lat="44.90693" lon="6.07761">
        <ele>1524.8</ele>
        <time>2024-08-14T08:25:46Z</time>
      </trkpt>
      <trkpt lat="44.90695" lon="6.07763">
        <ele>1525.2</ele>
        <time>2024-08-14T08:25:47Z</time>
      </trkpt>
      <trkpt lat="44.90695" lon="6.07763">
        <ele>1525.4</ele>
        <time>2024-08-14T08:25:48Z</time>
      </trkpt>
      <trkpt lat="44.90697" lon="6.07763">
        <ele>1525.6</ele>
        <time>2024-08-14T08:25:49Z</time>
      </trkpt>
      <trkpt lat="44.90697" lon="6.07763">
        <ele>1525.6</ele>
        <time>2024-08-14T08:25:50Z</time>
      </trkpt>
      <trkpt lat="44.90699" lon="6.07765">
        <ele>1525.6</ele>
        <time>2024-08-14T08:25:51Z</time>
      </trkpt>
      <trkpt lat="44.90699" lon="6.07765">
        <ele>1525.6</ele>
        <time>2024-08-14T08:25:52Z</time>
      </trkpt>
      <trkpt lat="44.90701" lon="6.07766">
        <ele>1525.8</ele>
        <time>2024-08-14T08:25:53Z</time>
      </trkpt>
      <trkpt lat="44.90701" lon="6.07766">
        <ele>1525.8</ele>
        <time>2024-08-14T08:25:54Z</time>
      </trkpt>
      <trkpt lat="44.90703" lon="6.07768">
        <ele>1526</ele>
        <time>2024-08-14T08:25:55Z</time>
      </trkpt>
      <trkpt lat="44.90703" lon="6.07768">
        <ele>1526.2</ele>
        <time>2024-08-14T08:25:56Z</time>
      </trkpt>
      <trkpt lat="44.90705" lon="6.07769">
        <ele>1526.4</ele>
        <time>2024-08-14T08:25:57Z</time>
      </trkpt>
      <trkpt lat="44.90705" lon="6.07769">
        <ele>1526.4</ele>
        <time>2024-08-14T08:25:58Z</time>
      </trkpt>
      <trkpt lat="44.90707" lon="6.07771">
        <ele>1526.6</ele>
        <time>2024-08-14T08:25:59Z</time>
      </trkpt>
      <trkpt lat="44.90707" lon="6.07771">
        <ele>1526.6</ele>
        <time>2024-08-14T08:26:00Z</time>
      </trkpt>
      <trkpt lat="44.90709" lon="6.07772">
        <ele>1527</ele>
        <time>2024-08-14T08:26:01Z</time>
      </trkpt>
      <trkpt lat="44.90709" lon="6.07772">
        <ele>1527.2</ele>
        <time>2024-08-14T08:26:02Z</time>
      </trkpt>
      <trkpt lat="44.90711" lon="6.07774">
        <ele>1527.2</ele>
        <time>2024-08-14T08:26:03Z</time>
      </trkpt>
      <trkpt lat="44.90711" lon="6.07774">
        <ele>1527.2</ele>
        <time>2024-08-14T08:26:04Z</time>
      </trkpt>
      <trkpt lat="44.90713" lon="6.07775">
        <ele>1527.6</ele>
        <time>2024-08-14T08:26:05Z</time>
      </trkpt>
      <trkpt lat="44.90713" lon="6.07775">
        <ele>1527.6</ele>
        <time>2024-08-14T08:26:06Z</time>
      </trkpt>
      <trkpt lat="44.90716" lon="6.07776">
        <ele>1527.6</ele>
        <time>2024-08-14T08:26:07Z</time>
      </trkpt>
      <trkpt lat="44.90716" lon="6.07776">
        <ele>1528</ele>
        <time>2024-08-14T08:26:08Z</time>
      </trkpt>
      <trkpt lat="44.90718" lon="6.07777">
        <ele>1528.2</ele>
        <time>2024-08-14T08:26:09Z</time>
      </trkpt>
      <trkpt lat="44.90718" lon="6.07777">
        <ele>1528.4</ele>
        <time>2024-08-14T08:26:10Z</time>
      </trkpt>
      <trkpt lat="44.9072" lon="6.07778">
        <ele>1528.6</ele>
        <time>2024-08-14T08:26:11Z</time>
      </trkpt>
      <trkpt lat="44.9072" lon="6.07778">
        <ele>1528.6</ele>
        <time>2024-08-14T08:26:12Z</time>
      </trkpt>
      <trkpt lat="44.90722" lon="6.07779">
        <ele>1528.6</ele>
        <time>2024-08-14T08:26:13Z</time>
      </trkpt>
      <trkpt lat="44.90722" lon="6.07779">
        <ele>1528.8</ele>
        <time>2024-08-14T08:26:14Z</time>
      </trkpt>
      <trkpt lat="44.90724" lon="6.0778">
        <ele>1529</ele>
        <time>2024-08-14T08:26:15Z</time>
      </trkpt>
      <trkpt lat="44.90724" lon="6.0778">
        <ele>1529</ele>
        <time>2024-08-14T08:26:16Z</time>
      </trkpt>
      <trkpt lat="44.90726" lon="6.07781">
        <ele>1529.2</ele>
        <time>2024-08-14T08:26:17Z</time>
      </trkpt>
      <trkpt lat="44.90726" lon="6.07781">
        <ele>1529.2</ele>
        <time>2024-08-14T08:26:18Z</time>
      </trkpt>
      <trkpt lat="44.90728" lon="6.07782">
        <ele>1529.4</ele>
        <time>2024-08-14T08:26:19Z</time>
      </trkpt>
      <trkpt lat="44.90728" lon="6.07782">
        <ele>1529.6</ele>
        <time>2024-08-14T08:26:20Z</time>
      </trkpt>
      <trkpt lat="44.9073" lon="6.07784">
        <ele>1529.6</ele>
        <time>2024-08-14T08:26:21Z</time>
      </trkpt>
      <trkpt lat="44.9073" lon="6.07784">
        <ele>1529.6</ele>
        <time>2024-08-14T08:26:22Z</time>
      </trkpt>
      <trkpt lat="44.90732" lon="6.07786">
        <ele>1529.8</ele>
        <time>2024-08-14T08:26:23Z</time>
      </trkpt>
      <trkpt lat="44.90732" lon="6.07786">
        <ele>1530</ele>
        <time>2024-08-14T08:26:24Z</time>
      </trkpt>
      <trkpt lat="44.90733" lon="6.07788">
        <ele>1530.2</ele>
        <time>2024-08-14T08:26:25Z</time>
      </trkpt>
      <trkpt lat="44.90733" lon="6.07788">
        <ele>1530.4</ele>
        <time>2024-08-14T08:26:26Z</time>
      </trkpt>
      <trkpt lat="44.90735" lon="6.07789">
        <ele>1530.6</ele>
        <time>2024-08-14T08:26:27Z</time>
      </trkpt>
      <trkpt lat="44.90735" lon="6.07789">
        <ele>1530.6</ele>
        <time>2024-08-14T08:26:28Z</time>
      </trkpt>
      <trkpt lat="44.90737" lon="6.0779">
        <ele>1531</ele>
        <time>2024-08-14T08:26:29Z</time>
      </trkpt>
      <trkpt lat="44.90737" lon="6.0779">
        <ele>1531.4</ele>
        <time>2024-08-14T08:26:30Z</time>
      </trkpt>
      <trkpt lat="44.90739" lon="6.07791">
        <ele>1531.8</ele>
        <time>2024-08-14T08:26:31Z</time>
      </trkpt>
      <trkpt lat="44.90739" lon="6.07791">
        <ele>1531.8</ele>
        <time>2024-08-14T08:26:32Z</time>
      </trkpt>
      <trkpt lat="44.90741" lon="6.07792">
        <ele>1531.8</ele>
        <time>2024-08-14T08:26:33Z</time>
      </trkpt>
      <trkpt lat="44.90741" lon="6.07792">
        <ele>1531.8</ele>
        <time>2024-08-14T08:26:34Z</time>
      </trkpt>
      <trkpt lat="44.90741" lon="6.07792">
        <ele>1532</ele>
        <time>2024-08-14T08:26:35Z</time>
      </trkpt>
      <trkpt lat="44.90744" lon="6.07793">
        <ele>1532</ele>
        <time>2024-08-14T08:26:36Z</time>
      </trkpt>
      <trkpt lat="44.90744" lon="6.07793">
        <ele>1532.4</ele>
        <time>2024-08-14T08:26:37Z</time>
      </trkpt>
      <trkpt lat="44.90746" lon="6.07793">
        <ele>1532.4</ele>
        <time>2024-08-14T08:26:38Z</time>
      </trkpt>
      <trkpt lat="44.90746" lon="6.07793">
        <ele>1532.4</ele>
        <time>2024-08-14T08:26:39Z</time>
      </trkpt>
      <trkpt lat="44.90748" lon="6.07794">
        <ele>1532.6</ele>
        <time>2024-08-14T08:26:40Z</time>
      </trkpt>
      <trkpt lat="44.90748" lon="6.07794">
        <ele>1533</ele>
        <time>2024-08-14T08:26:41Z</time>
      </trkpt>
      <trkpt lat="44.9075" lon="6.07795">
        <ele>1533.2</ele>
        <time>2024-08-14T08:26:42Z</time>
      </trkpt>
      <trkpt lat="44.9075" lon="6.07795">
        <ele>1533.2</ele>
        <time>2024-08-14T08:26:43Z</time>
      </trkpt>
      <trkpt lat="44.90752" lon="6.07796">
        <ele>1533.4</ele>
        <time>2024-08-14T08:26:44Z</time>
      </trkpt>
      <trkpt lat="44.90752" lon="6.07796">
        <ele>1533.4</ele>
        <time>2024-08-14T08:26:45Z</time>
      </trkpt>
      <trkpt lat="44.90754" lon="6.07797">
        <ele>1533.6</ele>
        <time>2024-08-14T08:26:46Z</time>
      </trkpt>
      <trkpt lat="44.90754" lon="6.07797">
        <ele>1534.2</ele>
        <time>2024-08-14T08:26:47Z</time>
      </trkpt>
      <trkpt lat="44.90756" lon="6.07798">
        <ele>1534.4</ele>
        <time>2024-08-14T08:26:48Z</time>
      </trkpt>
      <trkpt lat="44.90756" lon="6.07798">
        <ele>1534.6</ele>
        <time>2024-08-14T08:26:49Z</time>
      </trkpt>
      <trkpt lat="44.90758" lon="6.07799">
        <ele>1534.6</ele>
        <time>2024-08-14T08:26:50Z</time>
      </trkpt>
      <trkpt lat="44.90758" lon="6.07799">
        <ele>1534.8</ele>
        <time>2024-08-14T08:26:51Z</time>
      </trkpt>
      <trkpt lat="44.9076" lon="6.078">
        <ele>1534.8</ele>
        <time>2024-08-14T08:26:52Z</time>
      </trkpt>
      <trkpt lat="44.9076" lon="6.078">
        <ele>1534.8</ele>
        <time>2024-08-14T08:26:53Z</time>
      </trkpt>
      <trkpt lat="44.90762" lon="6.07801">
        <ele>1535</ele>
        <time>2024-08-14T08:26:54Z</time>
      </trkpt>
      <trkpt lat="44.90762" lon="6.07801">
        <ele>1535.2</ele>
        <time>2024-08-14T08:26:55Z</time>
      </trkpt>
      <trkpt lat="44.90764" lon="6.07802">
        <ele>1535.6</ele>
        <time>2024-08-14T08:26:56Z</time>
      </trkpt>
      <trkpt lat="44.90764" lon="6.07802">
        <ele>1535.8</ele>
        <time>2024-08-14T08:26:57Z</time>
      </trkpt>
      <trkpt lat="44.90766" lon="6.07803">
        <ele>1535.8</ele>
        <time>2024-08-14T08:26:58Z</time>
      </trkpt>
      <trkpt lat="44.90766" lon="6.07803">
        <ele>1536</ele>
        <time>2024-08-14T08:26:59Z</time>
      </trkpt>
      <trkpt lat="44.90768" lon="6.07804">
        <ele>1536.2</ele>
        <time>2024-08-14T08:27:00Z</time>
      </trkpt>
      <trkpt lat="44.90768" lon="6.07804">
        <ele>1536.2</ele>
        <time>2024-08-14T08:27:01Z</time>
      </trkpt>
      <trkpt lat="44.9077" lon="6.07805">
        <ele>1536.4</ele>
        <time>2024-08-14T08:27:02Z</time>
      </trkpt>
      <trkpt lat="44.9077" lon="6.07805">
        <ele>1536.4</ele>
        <time>2024-08-14T08:27:03Z</time>
      </trkpt>
      <trkpt lat="44.90772" lon="6.07806">
        <ele>1536.8</ele>
        <time>2024-08-14T08:27:04Z</time>
      </trkpt>
      <trkpt lat="44.90772" lon="6.07806">
        <ele>1536.8</ele>
        <time>2024-08-14T08:27:05Z</time>
      </trkpt>
      <trkpt lat="44.90774" lon="6.07807">
        <ele>1536.8</ele>
        <time>2024-08-14T08:27:06Z</time>
      </trkpt>
      <trkpt lat="44.90774" lon="6.07807">
        <ele>1537.2</ele>
        <time>2024-08-14T08:27:07Z</time>
      </trkpt>
      <trkpt lat="44.90776" lon="6.07808">
        <ele>1537.2</ele>
        <time>2024-08-14T08:27:08Z</time>
      </trkpt>
      <trkpt lat="44.90776" lon="6.07808">
        <ele>1537.6</ele>
        <time>2024-08-14T08:27:09Z</time>
      </trkpt>
      <trkpt lat="44.90778" lon="6.0781">
        <ele>1537.8</ele>
        <time>2024-08-14T08:27:10Z</time>
      </trkpt>
      <trkpt lat="44.90778" lon="6.0781">
        <ele>1537.8</ele>
        <time>2024-08-14T08:27:11Z</time>
      </trkpt>
      <trkpt lat="44.9078" lon="6.07811">
        <ele>1538</ele>
        <time>2024-08-14T08:27:12Z</time>
      </trkpt>
      <trkpt lat="44.9078" lon="6.07811">
        <ele>1538</ele>
        <time>2024-08-14T08:27:13Z</time>
      </trkpt>
      <trkpt lat="44.9078" lon="6.07811">
        <ele>1538.4</ele>
        <time>2024-08-14T08:27:14Z</time>
      </trkpt>
      <trkpt lat="44.90781" lon="6.07814">
        <ele>1538.4</ele>
        <time>2024-08-14T08:27:15Z</time>
      </trkpt>
      <trkpt lat="44.90781" lon="6.07814">
        <ele>1538.6</ele>
        <time>2024-08-14T08:27:16Z</time>
      </trkpt>
      <trkpt lat="44.90783" lon="6.07816">
        <ele>1539</ele>
        <time>2024-08-14T08:27:17Z</time>
      </trkpt>
      <trkpt lat="44.90783" lon="6.07816">
        <ele>1539</ele>
        <time>2024-08-14T08:27:18Z</time>
      </trkpt>
      <trkpt lat="44.90784" lon="6.07819">
        <ele>1539.2</ele>
        <time>2024-08-14T08:27:19Z</time>
      </trkpt>
      <trkpt lat="44.90784" lon="6.07819">
        <ele>1539.4</ele>
        <time>2024-08-14T08:27:20Z</time>
      </trkpt>
      <trkpt lat="44.90785" lon="6.07821">
        <ele>1539.6</ele>
        <time>2024-08-14T08:27:21Z</time>
      </trkpt>
      <trkpt lat="44.90785" lon="6.07821">
        <ele>1540</ele>
        <time>2024-08-14T08:27:22Z</time>
      </trkpt>
      <trkpt lat="44.90787" lon="6.07824">
        <ele>1540</ele>
        <time>2024-08-14T08:27:23Z</time>
      </trkpt>
      <trkpt lat="44.90787" lon="6.07824">
        <ele>1540.2</ele>
        <time>2024-08-14T08:27:24Z</time>
      </trkpt>
      <trkpt lat="44.90789" lon="6.07826">
        <ele>1540.2</ele>
        <time>2024-08-14T08:27:25Z</time>
      </trkpt>
      <trkpt lat="44.90789" lon="6.07826">
        <ele>1540.6</ele>
        <time>2024-08-14T08:27:26Z</time>
      </trkpt>
      <trkpt lat="44.90789" lon="6.07826">
        <ele>1540.6</ele>
        <time>2024-08-14T08:27:27Z</time>
      </trkpt>
      <trkpt lat="44.9079" lon="6.0783">
        <ele>1540.6</ele>
        <time>2024-08-14T08:27:28Z</time>
      </trkpt>
      <trkpt lat="44.9079" lon="6.0783">
        <ele>1540.6</ele>
        <time>2024-08-14T08:27:29Z</time>
      </trkpt>
      <trkpt lat="44.90792" lon="6.07832">
        <ele>1541</ele>
        <time>2024-08-14T08:27:30Z</time>
      </trkpt>
      <trkpt lat="44.90792" lon="6.07832">
        <ele>1541.2</ele>
        <time>2024-08-14T08:27:31Z</time>
      </trkpt>
      <trkpt lat="44.90793" lon="6.07834">
        <ele>1541.2</ele>
        <time>2024-08-14T08:27:32Z</time>
      </trkpt>
      <trkpt lat="44.90793" lon="6.07834">
        <ele>1541.4</ele>
        <time>2024-08-14T08:27:33Z</time>
      </trkpt>
      <trkpt lat="44.90793" lon="6.07834">
        <ele>1541.6</ele>
        <time>2024-08-14T08:27:34Z</time>
      </trkpt>
      <trkpt lat="44.90794" lon="6.07838">
        <ele>1541.8</ele>
        <time>2024-08-14T08:27:35Z</time>
      </trkpt>
      <trkpt lat="44.90794" lon="6.07838">
        <ele>1542</ele>
        <time>2024-08-14T08:27:36Z</time>
      </trkpt>
      <trkpt lat="44.90794" lon="6.07838">
        <ele>1542.2</ele>
        <time>2024-08-14T08:27:37Z</time>
      </trkpt>
      <trkpt lat="44.90796" lon="6.0784">
        <ele>1542.2</ele>
        <time>2024-08-14T08:27:38Z</time>
      </trkpt>
      <trkpt lat="44.90796" lon="6.0784">
        <ele>1542.4</ele>
        <time>2024-08-14T08:27:39Z</time>
      </trkpt>
      <trkpt lat="44.90797" lon="6.07843">
        <ele>1542.6</ele>
        <time>2024-08-14T08:27:40Z</time>
      </trkpt>
      <trkpt lat="44.90797" lon="6.07843">
        <ele>1542.8</ele>
        <time>2024-08-14T08:27:41Z</time>
      </trkpt>
      <trkpt lat="44.90798" lon="6.07845">
        <ele>1543.2</ele>
        <time>2024-08-14T08:27:42Z</time>
      </trkpt>
      <trkpt lat="44.90798" lon="6.07845">
        <ele>1543.2</ele>
        <time>2024-08-14T08:27:43Z</time>
      </trkpt>
      <trkpt lat="44.90798" lon="6.07845">
        <ele>1543.4</ele>
        <time>2024-08-14T08:27:44Z</time>
      </trkpt>
      <trkpt lat="44.908" lon="6.07848">
        <ele>1543.6</ele>
        <time>2024-08-14T08:27:45Z</time>
      </trkpt>
      <trkpt lat="44.908" lon="6.07848">
        <ele>1544</ele>
        <time>2024-08-14T08:27:46Z</time>
      </trkpt>
      <trkpt lat="44.90801" lon="6.0785">
        <ele>1544</ele>
        <time>2024-08-14T08:27:47Z</time>
      </trkpt>
      <trkpt lat="44.90801" lon="6.0785">
        <ele>1544.2</ele>
        <time>2024-08-14T08:27:48Z</time>
      </trkpt>
      <trkpt lat="44.90801" lon="6.0785">
        <ele>1544.4</ele>
        <time>2024-08-14T08:27:49Z</time>
      </trkpt>
      <trkpt lat="44.90802" lon="6.07854">
        <ele>1544.4</ele>
        <time>2024-08-14T08:27:50Z</time>
      </trkpt>
      <trkpt lat="44.90802" lon="6.07854">
        <ele>1544.6</ele>
        <time>2024-08-14T08:27:51Z</time>
      </trkpt>
      <trkpt lat="44.90804" lon="6.07856">
        <ele>1544.6</ele>
        <time>2024-08-14T08:27:52Z</time>
      </trkpt>
      <trkpt lat="44.90804" lon="6.07856">
        <ele>1545</ele>
        <time>2024-08-14T08:27:53Z</time>
      </trkpt>
      <trkpt lat="44.90804" lon="6.07858">
        <ele>1545.2</ele>
        <time>2024-08-14T08:27:54Z</time>
      </trkpt>
      <trkpt lat="44.90804" lon="6.07858">
        <ele>1545.4</ele>
        <time>2024-08-14T08:27:55Z</time>
      </trkpt>
      <trkpt lat="44.90805" lon="6.07861">
        <ele>1545.6</ele>
        <time>2024-08-14T08:27:56Z</time>
      </trkpt>
      <trkpt lat="44.90805" lon="6.07861">
        <ele>1545.8</ele>
        <time>2024-08-14T08:27:57Z</time>
      </trkpt>
      <trkpt lat="44.90805" lon="6.07861">
        <ele>1545.8</ele>
        <time>2024-08-14T08:27:58Z</time>
      </trkpt>
      <trkpt lat="44.90805" lon="6.07865">
        <ele>1546.2</ele>
        <time>2024-08-14T08:27:59Z</time>
      </trkpt>
      <trkpt lat="44.90805" lon="6.07865">
        <ele>1546.4</ele>
        <time>2024-08-14T08:28:00Z</time>
      </trkpt>
      <trkpt lat="44.90805" lon="6.07868">
        <ele>1546.6</ele>
        <time>2024-08-14T08:28:01Z</time>
      </trkpt>
      <trkpt lat="44.90805" lon="6.07868">
        <ele>1547</ele>
        <time>2024-08-14T08:28:02Z</time>
      </trkpt>
      <trkpt lat="44.90805" lon="6.07868">
        <ele>1547</ele>
        <time>2024-08-14T08:28:03Z</time>
      </trkpt>
      <trkpt lat="44.90805" lon="6.07871">
        <ele>1547.2</ele>
        <time>2024-08-14T08:28:04Z</time>
      </trkpt>
      <trkpt lat="44.90805" lon="6.07871">
        <ele>1547.2</ele>
        <time>2024-08-14T08:28:05Z</time>
      </trkpt>
      <trkpt lat="44.90805" lon="6.07874">
        <ele>1547.4</ele>
        <time>2024-08-14T08:28:06Z</time>
      </trkpt>
      <trkpt lat="44.90805" lon="6.07874">
        <ele>1547.8</ele>
        <time>2024-08-14T08:28:07Z</time>
      </trkpt>
      <trkpt lat="44.90805" lon="6.07874">
        <ele>1548</ele>
        <time>2024-08-14T08:28:08Z</time>
      </trkpt>
      <trkpt lat="44.90805" lon="6.07878">
        <ele>1548</ele>
        <time>2024-08-14T08:28:09Z</time>
      </trkpt>
      <trkpt lat="44.90805" lon="6.07878">
        <ele>1548</ele>
        <time>2024-08-14T08:28:10Z</time>
      </trkpt>
      <trkpt lat="44.90805" lon="6.07881">
        <ele>1548</ele>
        <time>2024-08-14T08:28:11Z</time>
      </trkpt>
      <trkpt lat="44.90805" lon="6.07881">
        <ele>1548.6</ele>
        <time>2024-08-14T08:28:12Z</time>
      </trkpt>
      <trkpt lat="44.90805" lon="6.07883">
        <ele>1548.8</ele>
        <time>2024-08-14T08:28:13Z</time>
      </trkpt>
      <trkpt lat="44.90805" lon="6.07883">
        <ele>1548.8</ele>
        <time>2024-08-14T08:28:14Z</time>
      </trkpt>
      <trkpt lat="44.90805" lon="6.07886">
        <ele>1549.2</ele>
        <time>2024-08-14T08:28:15Z</time>
      </trkpt>
      <trkpt lat="44.90805" lon="6.07886">
        <ele>1549.2</ele>
        <time>2024-08-14T08:28:16Z</time>
      </trkpt>
      <trkpt lat="44.90805" lon="6.07889">
        <ele>1549.4</ele>
        <time>2024-08-14T08:28:17Z</time>
      </trkpt>
      <trkpt lat="44.90805" lon="6.07889">
        <ele>1549.4</ele>
        <time>2024-08-14T08:28:18Z</time>
      </trkpt>
      <trkpt lat="44.90804" lon="6.07892">
        <ele>1549.6</ele>
        <time>2024-08-14T08:28:19Z</time>
      </trkpt>
      <trkpt lat="44.90804" lon="6.07892">
        <ele>1549.8</ele>
        <time>2024-08-14T08:28:20Z</time>
      </trkpt>
      <trkpt lat="44.90804" lon="6.07892">
        <ele>1550.2</ele>
        <time>2024-08-14T08:28:21Z</time>
      </trkpt>
      <trkpt lat="44.90804" lon="6.07895">
        <ele>1550.2</ele>
        <time>2024-08-14T08:28:22Z</time>
      </trkpt>
      <trkpt lat="44.90804" lon="6.07895">
        <ele>1550.2</ele>
        <time>2024-08-14T08:28:23Z</time>
      </trkpt>
      <trkpt lat="44.90804" lon="6.07898">
        <ele>1550.4</ele>
        <time>2024-08-14T08:28:24Z</time>
      </trkpt>
      <trkpt lat="44.90804" lon="6.07898">
        <ele>1550.8</ele>
        <time>2024-08-14T08:28:25Z</time>
      </trkpt>
      <trkpt lat="44.90804" lon="6.07901">
        <ele>1550.8</ele>
        <time>2024-08-14T08:28:26Z</time>
      </trkpt>
      <trkpt lat="44.90804" lon="6.07901">
        <ele>1550.8</ele>
        <time>2024-08-14T08:28:27Z</time>
      </trkpt>
      <trkpt lat="44.90804" lon="6.07901">
        <ele>1551</ele>
        <time>2024-08-14T08:28:28Z</time>
      </trkpt>
      <trkpt lat="44.90803" lon="6.07904">
        <ele>1551.4</ele>
        <time>2024-08-14T08:28:29Z</time>
      </trkpt>
      <trkpt lat="44.90803" lon="6.07904">
        <ele>1551.4</ele>
        <time>2024-08-14T08:28:30Z</time>
      </trkpt>
      <trkpt lat="44.90802" lon="6.07907">
        <ele>1551.4</ele>
        <time>2024-08-14T08:28:31Z</time>
      </trkpt>
      <trkpt lat="44.90802" lon="6.07907">
        <ele>1551.6</ele>
        <time>2024-08-14T08:28:32Z</time>
      </trkpt>
      <trkpt lat="44.90802" lon="6.0791">
        <ele>1551.8</ele>
        <time>2024-08-14T08:28:33Z</time>
      </trkpt>
      <trkpt lat="44.90802" lon="6.0791">
        <ele>1552.2</ele>
        <time>2024-08-14T08:28:34Z</time>
      </trkpt>
      <trkpt lat="44.90802" lon="6.07913">
        <ele>1552.4</ele>
        <time>2024-08-14T08:28:35Z</time>
      </trkpt>
      <trkpt lat="44.90802" lon="6.07913">
        <ele>1552.6</ele>
        <time>2024-08-14T08:28:36Z</time>
      </trkpt>
      <trkpt lat="44.908" lon="6.07915">
        <ele>1552.6</ele>
        <time>2024-08-14T08:28:37Z</time>
      </trkpt>
      <trkpt lat="44.908" lon="6.07915">
        <ele>1552.8</ele>
        <time>2024-08-14T08:28:38Z</time>
      </trkpt>
      <trkpt lat="44.908" lon="6.07918">
        <ele>1553</ele>
        <time>2024-08-14T08:28:39Z</time>
      </trkpt>
      <trkpt lat="44.908" lon="6.07918">
        <ele>1553.2</ele>
        <time>2024-08-14T08:28:40Z</time>
      </trkpt>
      <trkpt lat="44.908" lon="6.07918">
        <ele>1553.4</ele>
        <time>2024-08-14T08:28:41Z</time>
      </trkpt>
      <trkpt lat="44.90799" lon="6.07922">
        <ele>1553.8</ele>
        <time>2024-08-14T08:28:42Z</time>
      </trkpt>
      <trkpt lat="44.90799" lon="6.07922">
        <ele>1553.8</ele>
        <time>2024-08-14T08:28:43Z</time>
      </trkpt>
      <trkpt lat="44.90799" lon="6.07925">
        <ele>1554</ele>
        <time>2024-08-14T08:28:44Z</time>
      </trkpt>
      <trkpt lat="44.90799" lon="6.07925">
        <ele>1554.2</ele>
        <time>2024-08-14T08:28:45Z</time>
      </trkpt>
      <trkpt lat="44.90798" lon="6.07927">
        <ele>1554.2</ele>
        <time>2024-08-14T08:28:46Z</time>
      </trkpt>
      <trkpt lat="44.90798" lon="6.07927">
        <ele>1554.2</ele>
        <time>2024-08-14T08:28:47Z</time>
      </trkpt>
      <trkpt lat="44.90798" lon="6.0793">
        <ele>1554.6</ele>
        <time>2024-08-14T08:28:48Z</time>
      </trkpt>
      <trkpt lat="44.90798" lon="6.0793">
        <ele>1555</ele>
        <time>2024-08-14T08:28:49Z</time>
      </trkpt>
      <trkpt lat="44.90798" lon="6.07933">
        <ele>1555.2</ele>
        <time>2024-08-14T08:28:50Z</time>
      </trkpt>
      <trkpt lat="44.90798" lon="6.07933">
        <ele>1555.2</ele>
        <time>2024-08-14T08:28:51Z</time>
      </trkpt>
      <trkpt lat="44.90798" lon="6.07936">
        <ele>1555.4</ele>
        <time>2024-08-14T08:28:52Z</time>
      </trkpt>
      <trkpt lat="44.90798" lon="6.07936">
        <ele>1555.4</ele>
        <time>2024-08-14T08:28:53Z</time>
      </trkpt>
      <trkpt lat="44.90797" lon="6.07939">
        <ele>1555.8</ele>
        <time>2024-08-14T08:28:54Z</time>
      </trkpt>
      <trkpt lat="44.90797" lon="6.07939">
        <ele>1555.8</ele>
        <time>2024-08-14T08:28:55Z</time>
      </trkpt>
      <trkpt lat="44.90797" lon="6.07939">
        <ele>1555.8</ele>
        <time>2024-08-14T08:28:56Z</time>
      </trkpt>
      <trkpt lat="44.90797" lon="6.07943">
        <ele>1556</ele>
        <time>2024-08-14T08:28:57Z</time>
      </trkpt>
      <trkpt lat="44.90797" lon="6.07943">
        <ele>1556.2</ele>
        <time>2024-08-14T08:28:58Z</time>
      </trkpt>
      <trkpt lat="44.90797" lon="6.07945">
        <ele>1556.4</ele>
        <time>2024-08-14T08:28:59Z</time>
      </trkpt>
      <trkpt lat="44.90797" lon="6.07945">
        <ele>1556.4</ele>
        <time>2024-08-14T08:29:00Z</time>
      </trkpt>
      <trkpt lat="44.90796" lon="6.07948">
        <ele>1556.6</ele>
        <time>2024-08-14T08:29:01Z</time>
      </trkpt>
      <trkpt lat="44.90796" lon="6.07948">
        <ele>1557</ele>
        <time>2024-08-14T08:29:02Z</time>
      </trkpt>
      <trkpt lat="44.90796" lon="6.0795">
        <ele>1557</ele>
        <time>2024-08-14T08:29:03Z</time>
      </trkpt>
      <trkpt lat="44.90796" lon="6.0795">
        <ele>1557.2</ele>
        <time>2024-08-14T08:29:04Z</time>
      </trkpt>
      <trkpt lat="44.90796" lon="6.0795">
        <ele>1557.4</ele>
        <time>2024-08-14T08:29:05Z</time>
      </trkpt>
      <trkpt lat="44.90796" lon="6.07954">
        <ele>1557.6</ele>
        <time>2024-08-14T08:29:06Z</time>
      </trkpt>
      <trkpt lat="44.90796" lon="6.07954">
        <ele>1557.8</ele>
        <time>2024-08-14T08:29:07Z</time>
      </trkpt>
      <trkpt lat="44.90796" lon="6.07957">
        <ele>1557.8</ele>
        <time>2024-08-14T08:29:08Z</time>
      </trkpt>
      <trkpt lat="44.90796" lon="6.07957">
        <ele>1558.2</ele>
        <time>2024-08-14T08:29:09Z</time>
      </trkpt>
      <trkpt lat="44.90796" lon="6.07957">
        <ele>1558.4</ele>
        <time>2024-08-14T08:29:10Z</time>
      </trkpt>
      <trkpt lat="44.90795" lon="6.07961">
        <ele>1558.4</ele>
        <time>2024-08-14T08:29:11Z</time>
      </trkpt>
      <trkpt lat="44.90795" lon="6.07961">
        <ele>1558.6</ele>
        <time>2024-08-14T08:29:12Z</time>
      </trkpt>
      <trkpt lat="44.90795" lon="6.07963">
        <ele>1559</ele>
        <time>2024-08-14T08:29:13Z</time>
      </trkpt>
      <trkpt lat="44.90795" lon="6.07963">
        <ele>1559</ele>
        <time>2024-08-14T08:29:14Z</time>
      </trkpt>
      <trkpt lat="44.90794" lon="6.07966">
        <ele>1559.2</ele>
        <time>2024-08-14T08:29:15Z</time>
      </trkpt>
      <trkpt lat="44.90794" lon="6.07966">
        <ele>1559.4</ele>
        <time>2024-08-14T08:29:16Z</time>
      </trkpt>
      <trkpt lat="44.90794" lon="6.07966">
        <ele>1559.4</ele>
        <time>2024-08-14T08:29:17Z</time>
      </trkpt>
      <trkpt lat="44.90794" lon="6.07969">
        <ele>1559.6</ele>
        <time>2024-08-14T08:29:18Z</time>
      </trkpt>
      <trkpt lat="44.90794" lon="6.07969">
        <ele>1559.8</ele>
        <time>2024-08-14T08:29:19Z</time>
      </trkpt>
      <trkpt lat="44.90794" lon="6.07969">
        <ele>1560</ele>
        <time>2024-08-14T08:29:20Z</time>
      </trkpt>
      <trkpt lat="44.90793" lon="6.07973">
        <ele>1560.2</ele>
        <time>2024-08-14T08:29:21Z</time>
      </trkpt>
      <trkpt lat="44.90793" lon="6.07973">
        <ele>1560.2</ele>
        <time>2024-08-14T08:29:22Z</time>
      </trkpt>
      <trkpt lat="44.90793" lon="6.07976">
        <ele>1560.6</ele>
        <time>2024-08-14T08:29:23Z</time>
      </trkpt>
      <trkpt lat="44.90793" lon="6.07976">
        <ele>1560.8</ele>
        <time>2024-08-14T08:29:24Z</time>
      </trkpt>
      <trkpt lat="44.90793" lon="6.07979">
        <ele>1561</ele>
        <time>2024-08-14T08:29:25Z</time>
      </trkpt>
      <trkpt lat="44.90793" lon="6.07979">
        <ele>1561</ele>
        <time>2024-08-14T08:29:26Z</time>
      </trkpt>
      <trkpt lat="44.90793" lon="6.07979">
        <ele>1561.4</ele>
        <time>2024-08-14T08:29:27Z</time>
      </trkpt>
      <trkpt lat="44.90792" lon="6.07982">
        <ele>1561.6</ele>
        <time>2024-08-14T08:29:28Z</time>
      </trkpt>
      <trkpt lat="44.90792" lon="6.07982">
        <ele>1561.8</ele>
        <time>2024-08-14T08:29:29Z</time>
      </trkpt>
      <trkpt lat="44.90791" lon="6.07985">
        <ele>1561.8</ele>
        <time>2024-08-14T08:29:30Z</time>
      </trkpt>
      <trkpt lat="44.90791" lon="6.07985">
        <ele>1562</ele>
        <time>2024-08-14T08:29:31Z</time>
      </trkpt>
      <trkpt lat="44.90791" lon="6.07988">
        <ele>1562</ele>
        <time>2024-08-14T08:29:32Z</time>
      </trkpt>
      <trkpt lat="44.90791" lon="6.07988">
        <ele>1562.2</ele>
        <time>2024-08-14T08:29:33Z</time>
      </trkpt>
      <trkpt lat="44.90791" lon="6.07988">
        <ele>1562.6</ele>
        <time>2024-08-14T08:29:34Z</time>
      </trkpt>
      <trkpt lat="44.90792" lon="6.07991">
        <ele>1562.8</ele>
        <time>2024-08-14T08:29:35Z</time>
      </trkpt>
      <trkpt lat="44.90792" lon="6.07991">
        <ele>1563</ele>
        <time>2024-08-14T08:29:36Z</time>
      </trkpt>
      <trkpt lat="44.90792" lon="6.07991">
        <ele>1563</ele>
        <time>2024-08-14T08:29:37Z</time>
      </trkpt>
      <trkpt lat="44.90793" lon="6.07995">
        <ele>1563</ele>
        <time>2024-08-14T08:29:38Z</time>
      </trkpt>
      <trkpt lat="44.90793" lon="6.07995">
        <ele>1563.6</ele>
        <time>2024-08-14T08:29:39Z</time>
      </trkpt>
      <trkpt lat="44.90793" lon="6.07995">
        <ele>1563.8</ele>
        <time>2024-08-14T08:29:40Z</time>
      </trkpt>
      <trkpt lat="44.90794" lon="6.07997">
        <ele>1564</ele>
        <time>2024-08-14T08:29:41Z</time>
      </trkpt>
      <trkpt lat="44.90794" lon="6.07997">
        <ele>1564</ele>
        <time>2024-08-14T08:29:42Z</time>
      </trkpt>
      <trkpt lat="44.90796" lon="6.07999">
        <ele>1564</ele>
        <time>2024-08-14T08:29:43Z</time>
      </trkpt>
      <trkpt lat="44.90796" lon="6.07999">
        <ele>1564.4</ele>
        <time>2024-08-14T08:29:44Z</time>
      </trkpt>
      <trkpt lat="44.90796" lon="6.07999">
        <ele>1564.6</ele>
        <time>2024-08-14T08:29:45Z</time>
      </trkpt>
      <trkpt lat="44.90798" lon="6.08">
        <ele>1565</ele>
        <time>2024-08-14T08:29:46Z</time>
      </trkpt>
      <trkpt lat="44.90798" lon="6.08">
        <ele>1565.2</ele>
        <time>2024-08-14T08:29:47Z</time>
      </trkpt>
      <trkpt lat="44.90798" lon="6.08">
        <ele>1565.2</ele>
        <time>2024-08-14T08:29:48Z</time>
      </trkpt>
      <trkpt lat="44.908" lon="6.08001">
        <ele>1565.6</ele>
        <time>2024-08-14T08:29:49Z</time>
      </trkpt>
      <trkpt lat="44.908" lon="6.08001">
        <ele>1565.6</ele>
        <time>2024-08-14T08:29:50Z</time>
      </trkpt>
      <trkpt lat="44.90802" lon="6.08001">
        <ele>1565.6</ele>
        <time>2024-08-14T08:29:51Z</time>
      </trkpt>
      <trkpt lat="44.90802" lon="6.08001">
        <ele>1565.6</ele>
        <time>2024-08-14T08:29:52Z</time>
      </trkpt>
      <trkpt lat="44.90804" lon="6.08001">
        <ele>1565.6</ele>
        <time>2024-08-14T08:29:53Z</time>
      </trkpt>
      <trkpt lat="44.90804" lon="6.08001">
        <ele>1566</ele>
        <time>2024-08-14T08:29:54Z</time>
      </trkpt>
      <trkpt lat="44.90806" lon="6.08001">
        <ele>1566.4</ele>
        <time>2024-08-14T08:29:55Z</time>
      </trkpt>
      <trkpt lat="44.90806" lon="6.08001">
        <ele>1566.6</ele>
        <time>2024-08-14T08:29:56Z</time>
      </trkpt>
      <trkpt lat="44.90809" lon="6.08002">
        <ele>1566.6</ele>
        <time>2024-08-14T08:29:57Z</time>
      </trkpt>
      <trkpt lat="44.90809" lon="6.08002">
        <ele>1566.8</ele>
        <time>2024-08-14T08:29:58Z</time>
      </trkpt>
      <trkpt lat="44.90809" lon="6.08002">
        <ele>1567</ele>
        <time>2024-08-14T08:29:59Z</time>
      </trkpt>
      <trkpt lat="44.90812" lon="6.08002">
        <ele>1567.2</ele>
        <time>2024-08-14T08:30:00Z</time>
      </trkpt>
      <trkpt lat="44.90812" lon="6.08002">
        <ele>1567.6</ele>
        <time>2024-08-14T08:30:01Z</time>
      </trkpt>
      <trkpt lat="44.90813" lon="6.08003">
        <ele>1568</ele>
        <time>2024-08-14T08:30:02Z</time>
      </trkpt>
      <trkpt lat="44.90813" lon="6.08003">
        <ele>1567.8</ele>
        <time>2024-08-14T08:30:03Z</time>
      </trkpt>
      <trkpt lat="44.90815" lon="6.08003">
        <ele>1567.6</ele>
        <time>2024-08-14T08:30:04Z</time>
      </trkpt>
      <trkpt lat="44.90815" lon="6.08003">
        <ele>1567.6</ele>
        <time>2024-08-14T08:30:05Z</time>
      </trkpt>
      <trkpt lat="44.90815" lon="6.08003">
        <ele>1568</ele>
        <time>2024-08-14T08:30:06Z</time>
      </trkpt>
      <trkpt lat="44.90818" lon="6.08003">
        <ele>1568.2</ele>
        <time>2024-08-14T08:30:07Z</time>
      </trkpt>
      <trkpt lat="44.90818" lon="6.08003">
        <ele>1568.4</ele>
        <time>2024-08-14T08:30:08Z</time>
      </trkpt>
      <trkpt lat="44.9082" lon="6.08003">
        <ele>1568.6</ele>
        <time>2024-08-14T08:30:09Z</time>
      </trkpt>
      <trkpt lat="44.9082" lon="6.08003">
        <ele>1568.8</ele>
        <time>2024-08-14T08:30:10Z</time>
      </trkpt>
      <trkpt lat="44.90822" lon="6.08004">
        <ele>1568.8</ele>
        <time>2024-08-14T08:30:11Z</time>
      </trkpt>
      <trkpt lat="44.90822" lon="6.08004">
        <ele>1569</ele>
        <time>2024-08-14T08:30:12Z</time>
      </trkpt>
      <trkpt lat="44.90824" lon="6.08005">
        <ele>1569.2</ele>
        <time>2024-08-14T08:30:13Z</time>
      </trkpt>
      <trkpt lat="44.90824" lon="6.08005">
        <ele>1569.6</ele>
        <time>2024-08-14T08:30:14Z</time>
      </trkpt>
      <trkpt lat="44.90826" lon="6.08007">
        <ele>1569.6</ele>
        <time>2024-08-14T08:30:15Z</time>
      </trkpt>
      <trkpt lat="44.90826" lon="6.08007">
        <ele>1569.6</ele>
        <time>2024-08-14T08:30:16Z</time>
      </trkpt>
      <trkpt lat="44.90827" lon="6.0801">
        <ele>1569.8</ele>
        <time>2024-08-14T08:30:17Z</time>
      </trkpt>
      <trkpt lat="44.90827" lon="6.0801">
        <ele>1569.8</ele>
        <time>2024-08-14T08:30:18Z</time>
      </trkpt>
      <trkpt lat="44.90829" lon="6.08012">
        <ele>1570.2</ele>
        <time>2024-08-14T08:30:19Z</time>
      </trkpt>
      <trkpt lat="44.90829" lon="6.08012">
        <ele>1570.4</ele>
        <time>2024-08-14T08:30:20Z</time>
      </trkpt>
      <trkpt lat="44.9083" lon="6.08014">
        <ele>1570.4</ele>
        <time>2024-08-14T08:30:21Z</time>
      </trkpt>
      <trkpt lat="44.9083" lon="6.08014">
        <ele>1570.6</ele>
        <time>2024-08-14T08:30:22Z</time>
      </trkpt>
      <trkpt lat="44.90831" lon="6.08016">
        <ele>1571.2</ele>
        <time>2024-08-14T08:30:23Z</time>
      </trkpt>
      <trkpt lat="44.90831" lon="6.08016">
        <ele>1571.4</ele>
        <time>2024-08-14T08:30:24Z</time>
      </trkpt>
      <trkpt lat="44.90832" lon="6.08018">
        <ele>1571.4</ele>
        <time>2024-08-14T08:30:25Z</time>
      </trkpt>
      <trkpt lat="44.90832" lon="6.08018">
        <ele>1571.6</ele>
        <time>2024-08-14T08:30:26Z</time>
      </trkpt>
      <trkpt lat="44.90834" lon="6.0802">
        <ele>1571.6</ele>
        <time>2024-08-14T08:30:27Z</time>
      </trkpt>
      <trkpt lat="44.90834" lon="6.0802">
        <ele>1571.8</ele>
        <time>2024-08-14T08:30:28Z</time>
      </trkpt>
      <trkpt lat="44.90835" lon="6.08022">
        <ele>1572</ele>
        <time>2024-08-14T08:30:29Z</time>
      </trkpt>
      <trkpt lat="44.90835" lon="6.08022">
        <ele>1572.2</ele>
        <time>2024-08-14T08:30:30Z</time>
      </trkpt>
      <trkpt lat="44.90835" lon="6.08025">
        <ele>1572.2</ele>
        <time>2024-08-14T08:30:31Z</time>
      </trkpt>
      <trkpt lat="44.90835" lon="6.08025">
        <ele>1572.4</ele>
        <time>2024-08-14T08:30:32Z</time>
      </trkpt>
      <trkpt lat="44.90835" lon="6.08025">
        <ele>1572.4</ele>
        <time>2024-08-14T08:30:33Z</time>
      </trkpt>
      <trkpt lat="44.90837" lon="6.08029">
        <ele>1572.4</ele>
        <time>2024-08-14T08:30:34Z</time>
      </trkpt>
      <trkpt lat="44.90837" lon="6.08029">
        <ele>1572.8</ele>
        <time>2024-08-14T08:30:35Z</time>
      </trkpt>
      <trkpt lat="44.90837" lon="6.08031">
        <ele>1572.8</ele>
        <time>2024-08-14T08:30:36Z</time>
      </trkpt>
      <trkpt lat="44.90837" lon="6.08031">
        <ele>1573</ele>
        <time>2024-08-14T08:30:37Z</time>
      </trkpt>
      <trkpt lat="44.90838" lon="6.08034">
        <ele>1573.4</ele>
        <time>2024-08-14T08:30:38Z</time>
      </trkpt>
      <trkpt lat="44.90838" lon="6.08034">
        <ele>1573.4</ele>
        <time>2024-08-14T08:30:39Z</time>
      </trkpt>
      <trkpt lat="44.90838" lon="6.08036">
        <ele>1573.6</ele>
        <time>2024-08-14T08:30:40Z</time>
      </trkpt>
      <trkpt lat="44.90838" lon="6.08036">
        <ele>1574</ele>
        <time>2024-08-14T08:30:41Z</time>
      </trkpt>
      <trkpt lat="44.90839" lon="6.08039">
        <ele>1574.2</ele>
        <time>2024-08-14T08:30:42Z</time>
      </trkpt>
      <trkpt lat="44.90839" lon="6.08039">
        <ele>1574.2</ele>
        <time>2024-08-14T08:30:43Z</time>
      </trkpt>
      <trkpt lat="44.90839" lon="6.08042">
        <ele>1574.2</ele>
        <time>2024-08-14T08:30:44Z</time>
      </trkpt>
      <trkpt lat="44.90839" lon="6.08042">
        <ele>1574.4</ele>
        <time>2024-08-14T08:30:45Z</time>
      </trkpt>
      <trkpt lat="44.9084" lon="6.08044">
        <ele>1574.6</ele>
        <time>2024-08-14T08:30:46Z</time>
      </trkpt>
      <trkpt lat="44.9084" lon="6.08044">
        <ele>1574.8</ele>
        <time>2024-08-14T08:30:47Z</time>
      </trkpt>
      <trkpt lat="44.90841" lon="6.08047">
        <ele>1574.8</ele>
        <time>2024-08-14T08:30:48Z</time>
      </trkpt>
      <trkpt lat="44.90841" lon="6.08047">
        <ele>1574.8</ele>
        <time>2024-08-14T08:30:49Z</time>
      </trkpt>
      <trkpt lat="44.90841" lon="6.08047">
        <ele>1575.2</ele>
        <time>2024-08-14T08:30:50Z</time>
      </trkpt>
      <trkpt lat="44.90842" lon="6.0805">
        <ele>1575.4</ele>
        <time>2024-08-14T08:30:51Z</time>
      </trkpt>
      <trkpt lat="44.90842" lon="6.0805">
        <ele>1575.6</ele>
        <time>2024-08-14T08:30:52Z</time>
      </trkpt>
      <trkpt lat="44.90843" lon="6.08052">
        <ele>1575.6</ele>
        <time>2024-08-14T08:30:53Z</time>
      </trkpt>
      <trkpt lat="44.90843" lon="6.08052">
        <ele>1575.8</ele>
        <time>2024-08-14T08:30:54Z</time>
      </trkpt>
      <trkpt lat="44.90843" lon="6.08052">
        <ele>1576.2</ele>
        <time>2024-08-14T08:30:55Z</time>
      </trkpt>
      <trkpt lat="44.90844" lon="6.08056">
        <ele>1576.4</ele>
        <time>2024-08-14T08:30:56Z</time>
      </trkpt>
      <trkpt lat="44.90844" lon="6.08056">
        <ele>1576.6</ele>
        <time>2024-08-14T08:30:57Z</time>
      </trkpt>
      <trkpt lat="44.90844" lon="6.08056">
        <ele>1576.6</ele>
        <time>2024-08-14T08:30:58Z</time>
      </trkpt>
      <trkpt lat="44.90845" lon="6.08059">
        <ele>1576.8</ele>
        <time>2024-08-14T08:30:59Z</time>
      </trkpt>
      <trkpt lat="44.90845" lon="6.08059">
        <ele>1576.8</ele>
        <time>2024-08-14T08:31:00Z</time>
      </trkpt>
      <trkpt lat="44.90845" lon="6.08061">
        <ele>1577.2</ele>
        <time>2024-08-14T08:31:01Z</time>
      </trkpt>
      <trkpt lat="44.90845" lon="6.08061">
        <ele>1577.8</ele>
        <time>2024-08-14T08:31:02Z</time>
      </trkpt>
      <trkpt lat="44.90847" lon="6.08064">
        <ele>1577.8</ele>
        <time>2024-08-14T08:31:03Z</time>
      </trkpt>
      <trkpt lat="44.90847" lon="6.08064">
        <ele>1578</ele>
        <time>2024-08-14T08:31:04Z</time>
      </trkpt>
      <trkpt lat="44.90847" lon="6.08064">
        <ele>1578.2</ele>
        <time>2024-08-14T08:31:05Z</time>
      </trkpt>
      <trkpt lat="44.90847" lon="6.08067">
        <ele>1578.4</ele>
        <time>2024-08-14T08:31:06Z</time>
      </trkpt>
      <trkpt lat="44.90847" lon="6.08067">
        <ele>1578.6</ele>
        <time>2024-08-14T08:31:07Z</time>
      </trkpt>
      <trkpt lat="44.90847" lon="6.08067">
        <ele>1578.8</ele>
        <time>2024-08-14T08:31:08Z</time>
      </trkpt>
      <trkpt lat="44.90849" lon="6.0807">
        <ele>1578.8</ele>
        <time>2024-08-14T08:31:09Z</time>
      </trkpt>
      <trkpt lat="44.90849" lon="6.0807">
        <ele>1579</ele>
        <time>2024-08-14T08:31:10Z</time>
      </trkpt>
      <trkpt lat="44.9085" lon="6.08073">
        <ele>1579.2</ele>
        <time>2024-08-14T08:31:11Z</time>
      </trkpt>
      <trkpt lat="44.9085" lon="6.08073">
        <ele>1579.2</ele>
        <time>2024-08-14T08:31:12Z</time>
      </trkpt>
      <trkpt lat="44.90851" lon="6.08075">
        <ele>1579.2</ele>
        <time>2024-08-14T08:31:13Z</time>
      </trkpt>
      <trkpt lat="44.90851" lon="6.08075">
        <ele>1579.4</ele>
        <time>2024-08-14T08:31:14Z</time>
      </trkpt>
      <trkpt lat="44.90851" lon="6.08078">
        <ele>1579.6</ele>
        <time>2024-08-14T08:31:15Z</time>
      </trkpt>
      <trkpt lat="44.90851" lon="6.08078">
        <ele>1579.6</ele>
        <time>2024-08-14T08:31:16Z</time>
      </trkpt>
      <trkpt lat="44.90852" lon="6.0808">
        <ele>1580</ele>
        <time>2024-08-14T08:31:17Z</time>
      </trkpt>
      <trkpt lat="44.90852" lon="6.0808">
        <ele>1580.2</ele>
        <time>2024-08-14T08:31:18Z</time>
      </trkpt>
      <trkpt lat="44.90852" lon="6.0808">
        <ele>1580.8</ele>
        <time>2024-08-14T08:31:19Z</time>
      </trkpt>
      <trkpt lat="44.90853" lon="6.08084">
        <ele>1580.8</ele>
        <time>2024-08-14T08:31:20Z</time>
      </trkpt>
      <trkpt lat="44.90853" lon="6.08084">
        <ele>1580.6</ele>
        <time>2024-08-14T08:31:21Z</time>
      </trkpt>
      <trkpt lat="44.90852" lon="6.08087">
        <ele>1580.6</ele>
        <time>2024-08-14T08:31:22Z</time>
      </trkpt>
      <trkpt lat="44.90852" lon="6.08087">
        <ele>1581.2</ele>
        <time>2024-08-14T08:31:23Z</time>
      </trkpt>
      <trkpt lat="44.90852" lon="6.08087">
        <ele>1581.4</ele>
        <time>2024-08-14T08:31:24Z</time>
      </trkpt>
      <trkpt lat="44.90853" lon="6.0809">
        <ele>1581.4</ele>
        <time>2024-08-14T08:31:25Z</time>
      </trkpt>
      <trkpt lat="44.90853" lon="6.0809">
        <ele>1581.6</ele>
        <time>2024-08-14T08:31:26Z</time>
      </trkpt>
      <trkpt lat="44.90853" lon="6.0809">
        <ele>1581.8</ele>
        <time>2024-08-14T08:31:27Z</time>
      </trkpt>
      <trkpt lat="44.90853" lon="6.08093">
        <ele>1582</ele>
        <time>2024-08-14T08:31:28Z</time>
      </trkpt>
      <trkpt lat="44.90853" lon="6.08093">
        <ele>1582</ele>
        <time>2024-08-14T08:31:29Z</time>
      </trkpt>
      <trkpt lat="44.90853" lon="6.08093">
        <ele>1582</ele>
        <time>2024-08-14T08:31:30Z</time>
      </trkpt>
      <trkpt lat="44.90855" lon="6.08097">
        <ele>1582.2</ele>
        <time>2024-08-14T08:31:31Z</time>
      </trkpt>
      <trkpt lat="44.90855" lon="6.08097">
        <ele>1582.6</ele>
        <time>2024-08-14T08:31:32Z</time>
      </trkpt>
      <trkpt lat="44.90855" lon="6.08097">
        <ele>1582.6</ele>
        <time>2024-08-14T08:31:33Z</time>
      </trkpt>
      <trkpt lat="44.90855" lon="6.081">
        <ele>1583</ele>
        <time>2024-08-14T08:31:34Z</time>
      </trkpt>
      <trkpt lat="44.90855" lon="6.081">
        <ele>1583.4</ele>
        <time>2024-08-14T08:31:35Z</time>
      </trkpt>
      <trkpt lat="44.90855" lon="6.081">
        <ele>1583.4</ele>
        <time>2024-08-14T08:31:36Z</time>
      </trkpt>
      <trkpt lat="44.90856" lon="6.08104">
        <ele>1583.6</ele>
        <time>2024-08-14T08:31:37Z</time>
      </trkpt>
      <trkpt lat="44.90856" lon="6.08104">
        <ele>1583.6</ele>
        <time>2024-08-14T08:31:38Z</time>
      </trkpt>
      <trkpt lat="44.90857" lon="6.08107">
        <ele>1583.8</ele>
        <time>2024-08-14T08:31:39Z</time>
      </trkpt>
      <trkpt lat="44.90857" lon="6.08107">
        <ele>1584</ele>
        <time>2024-08-14T08:31:40Z</time>
      </trkpt>
      <trkpt lat="44.90857" lon="6.08107">
        <ele>1584.6</ele>
        <time>2024-08-14T08:31:41Z</time>
      </trkpt>
      <trkpt lat="44.90858" lon="6.0811">
        <ele>1584.8</ele>
        <time>2024-08-14T08:31:42Z</time>
      </trkpt>
      <trkpt lat="44.90858" lon="6.0811">
        <ele>1584.8</ele>
        <time>2024-08-14T08:31:43Z</time>
      </trkpt>
      <trkpt lat="44.90858" lon="6.0811">
        <ele>1585</ele>
        <time>2024-08-14T08:31:44Z</time>
      </trkpt>
      <trkpt lat="44.90859" lon="6.08114">
        <ele>1585</ele>
        <time>2024-08-14T08:31:45Z</time>
      </trkpt>
      <trkpt lat="44.90859" lon="6.08114">
        <ele>1585</ele>
        <time>2024-08-14T08:31:46Z</time>
      </trkpt>
      <trkpt lat="44.90858" lon="6.08116">
        <ele>1585</ele>
        <time>2024-08-14T08:31:47Z</time>
      </trkpt>
      <trkpt lat="44.90858" lon="6.08116">
        <ele>1585.2</ele>
        <time>2024-08-14T08:31:48Z</time>
      </trkpt>
      <trkpt lat="44.90857" lon="6.08119">
        <ele>1585.4</ele>
        <time>2024-08-14T08:31:49Z</time>
      </trkpt>
      <trkpt lat="44.90857" lon="6.08119">
        <ele>1586</ele>
        <time>2024-08-14T08:31:50Z</time>
      </trkpt>
      <trkpt lat="44.90857" lon="6.08119">
        <ele>1586</ele>
        <time>2024-08-14T08:31:51Z</time>
      </trkpt>
      <trkpt lat="44.90856" lon="6.08122">
        <ele>1586</ele>
        <time>2024-08-14T08:31:52Z</time>
      </trkpt>
      <trkpt lat="44.90856" lon="6.08122">
        <ele>1586.4</ele>
        <time>2024-08-14T08:31:53Z</time>
      </trkpt>
      <trkpt lat="44.90855" lon="6.08123">
        <ele>1586.6</ele>
        <time>2024-08-14T08:31:54Z</time>
      </trkpt>
      <trkpt lat="44.90855" lon="6.08123">
        <ele>1586.8</ele>
        <time>2024-08-14T08:31:55Z</time>
      </trkpt>
      <trkpt lat="44.90855" lon="6.08123">
        <ele>1587.2</ele>
        <time>2024-08-14T08:31:56Z</time>
      </trkpt>
      <trkpt lat="44.90853" lon="6.08125">
        <ele>1587.2</ele>
        <time>2024-08-14T08:31:57Z</time>
      </trkpt>
      <trkpt lat="44.90853" lon="6.08125">
        <ele>1587.8</ele>
        <time>2024-08-14T08:31:58Z</time>
      </trkpt>
      <trkpt lat="44.90855" lon="6.08127">
        <ele>1588</ele>
        <time>2024-08-14T08:31:59Z</time>
      </trkpt>
      <trkpt lat="44.90855" lon="6.08127">
        <ele>1588</ele>
        <time>2024-08-14T08:32:00Z</time>
      </trkpt>
      <trkpt lat="44.90855" lon="6.08127">
        <ele>1588</ele>
        <time>2024-08-14T08:32:01Z</time>
      </trkpt>
      <trkpt lat="44.90856" lon="6.0813">
        <ele>1588.2</ele>
        <time>2024-08-14T08:32:02Z</time>
      </trkpt>
      <trkpt lat="44.90856" lon="6.0813">
        <ele>1588.2</ele>
        <time>2024-08-14T08:32:03Z</time>
      </trkpt>
      <trkpt lat="44.90856" lon="6.0813">
        <ele>1588.4</ele>
        <time>2024-08-14T08:32:04Z</time>
      </trkpt>
      <trkpt lat="44.90857" lon="6.08133">
        <ele>1588.6</ele>
        <time>2024-08-14T08:32:05Z</time>
      </trkpt>
      <trkpt lat="44.90857" lon="6.08133">
        <ele>1588.6</ele>
        <time>2024-08-14T08:32:06Z</time>
      </trkpt>
      <trkpt lat="44.90857" lon="6.08133">
        <ele>1588.6</ele>
        <time>2024-08-14T08:32:07Z</time>
      </trkpt>
      <trkpt lat="44.90858" lon="6.08135">
        <ele>1588.6</ele>
        <time>2024-08-14T08:32:08Z</time>
      </trkpt>
      <trkpt lat="44.90858" lon="6.08135">
        <ele>1589</ele>
        <time>2024-08-14T08:32:09Z</time>
      </trkpt>
      <trkpt lat="44.90858" lon="6.08135">
        <ele>1589.6</ele>
        <time>2024-08-14T08:32:10Z</time>
      </trkpt>
      <trkpt lat="44.90858" lon="6.08139">
        <ele>1589.6</ele>
        <time>2024-08-14T08:32:11Z</time>
      </trkpt>
      <trkpt lat="44.90858" lon="6.08139">
        <ele>1589.8</ele>
        <time>2024-08-14T08:32:12Z</time>
      </trkpt>
      <trkpt lat="44.90858" lon="6.08139">
        <ele>1589.8</ele>
        <time>2024-08-14T08:32:13Z</time>
      </trkpt>
      <trkpt lat="44.90858" lon="6.08142">
        <ele>1590.2</ele>
        <time>2024-08-14T08:32:14Z</time>
      </trkpt>
      <trkpt lat="44.90858" lon="6.08142">
        <ele>1590.4</ele>
        <time>2024-08-14T08:32:15Z</time>
      </trkpt>
      <trkpt lat="44.90857" lon="6.08145">
        <ele>1590.4</ele>
        <time>2024-08-14T08:32:16Z</time>
      </trkpt>
      <trkpt lat="44.90857" lon="6.08145">
        <ele>1590.6</ele>
        <time>2024-08-14T08:32:17Z</time>
      </trkpt>
      <trkpt lat="44.90857" lon="6.08145">
        <ele>1590.8</ele>
        <time>2024-08-14T08:32:18Z</time>
      </trkpt>
      <trkpt lat="44.90858" lon="6.08148">
        <ele>1591.2</ele>
        <time>2024-08-14T08:32:19Z</time>
      </trkpt>
      <trkpt lat="44.90858" lon="6.08148">
        <ele>1591.2</ele>
        <time>2024-08-14T08:32:20Z</time>
      </trkpt>
      <trkpt lat="44.90859" lon="6.0815">
        <ele>1591.2</ele>
        <time>2024-08-14T08:32:21Z</time>
      </trkpt>
      <trkpt lat="44.90859" lon="6.0815">
        <ele>1591.6</ele>
        <time>2024-08-14T08:32:22Z</time>
      </trkpt>
      <trkpt lat="44.90859" lon="6.0815">
        <ele>1591.6</ele>
        <time>2024-08-14T08:32:23Z</time>
      </trkpt>
      <trkpt lat="44.9086" lon="6.08152">
        <ele>1591.8</ele>
        <time>2024-08-14T08:32:24Z</time>
      </trkpt>
      <trkpt lat="44.9086" lon="6.08152">
        <ele>1591.8</ele>
        <time>2024-08-14T08:32:25Z</time>
      </trkpt>
      <trkpt lat="44.9086" lon="6.08152">
        <ele>1592.2</ele>
        <time>2024-08-14T08:32:26Z</time>
      </trkpt>
      <trkpt lat="44.90861" lon="6.08155">
        <ele>1592.4</ele>
        <time>2024-08-14T08:32:27Z</time>
      </trkpt>
      <trkpt lat="44.90861" lon="6.08155">
        <ele>1592.4</ele>
        <time>2024-08-14T08:32:28Z</time>
      </trkpt>
      <trkpt lat="44.90861" lon="6.08157">
        <ele>1592.4</ele>
        <time>2024-08-14T08:32:29Z</time>
      </trkpt>
      <trkpt lat="44.90861" lon="6.08157">
        <ele>1592.4</ele>
        <time>2024-08-14T08:32:30Z</time>
      </trkpt>
      <trkpt lat="44.90861" lon="6.08157">
        <ele>1592.8</ele>
        <time>2024-08-14T08:32:31Z</time>
      </trkpt>
      <trkpt lat="44.90861" lon="6.0816">
        <ele>1592.8</ele>
        <time>2024-08-14T08:32:32Z</time>
      </trkpt>
      <trkpt lat="44.90861" lon="6.0816">
        <ele>1593.2</ele>
        <time>2024-08-14T08:32:33Z</time>
      </trkpt>
      <trkpt lat="44.90861" lon="6.0816">
        <ele>1593.4</ele>
        <time>2024-08-14T08:32:34Z</time>
      </trkpt>
      <trkpt lat="44.90861" lon="6.08163">
        <ele>1593.6</ele>
        <time>2024-08-14T08:32:35Z</time>
      </trkpt>
      <trkpt lat="44.90861" lon="6.08163">
        <ele>1593.8</ele>
        <time>2024-08-14T08:32:36Z</time>
      </trkpt>
      <trkpt lat="44.90861" lon="6.08163">
        <ele>1594.4</ele>
        <time>2024-08-14T08:32:37Z</time>
      </trkpt>
      <trkpt lat="44.90861" lon="6.08166">
        <ele>1594.4</ele>
        <time>2024-08-14T08:32:38Z</time>
      </trkpt>
      <trkpt lat="44.90861" lon="6.08166">
        <ele>1594.4</ele>
        <time>2024-08-14T08:32:39Z</time>
      </trkpt>
      <trkpt lat="44.90861" lon="6.08166">
        <ele>1594.6</ele>
        <time>2024-08-14T08:32:40Z</time>
      </trkpt>
      <trkpt lat="44.90863" lon="6.08168">
        <ele>1595.2</ele>
        <time>2024-08-14T08:32:41Z</time>
      </trkpt>
      <trkpt lat="44.90863" lon="6.08168">
        <ele>1595.2</ele>
        <time>2024-08-14T08:32:42Z</time>
      </trkpt>
      <trkpt lat="44.90863" lon="6.08168">
        <ele>1595.2</ele>
        <time>2024-08-14T08:32:43Z</time>
      </trkpt>
      <trkpt lat="44.90863" lon="6.08171">
        <ele>1595.6</ele>
        <time>2024-08-14T08:32:44Z</time>
      </trkpt>
      <trkpt lat="44.90863" lon="6.08171">
        <ele>1595.6</ele>
        <time>2024-08-14T08:32:45Z</time>
      </trkpt>
      <trkpt lat="44.90863" lon="6.08171">
        <ele>1596</ele>
        <time>2024-08-14T08:32:46Z</time>
      </trkpt>
      <trkpt lat="44.90864" lon="6.08173">
        <ele>1596.2</ele>
        <time>2024-08-14T08:32:47Z</time>
      </trkpt>
      <trkpt lat="44.90864" lon="6.08173">
        <ele>1596.2</ele>
        <time>2024-08-14T08:32:48Z</time>
      </trkpt>
      <trkpt lat="44.90864" lon="6.08173">
        <ele>1596.4</ele>
        <time>2024-08-14T08:32:49Z</time>
      </trkpt>
      <trkpt lat="44.90864" lon="6.08176">
        <ele>1596.6</ele>
        <time>2024-08-14T08:32:50Z</time>
      </trkpt>
      <trkpt lat="44.90864" lon="6.08176">
        <ele>1596.6</ele>
        <time>2024-08-14T08:32:51Z</time>
      </trkpt>
      <trkpt lat="44.90864" lon="6.08176">
        <ele>1596.8</ele>
        <time>2024-08-14T08:32:52Z</time>
      </trkpt>
      <trkpt lat="44.90865" lon="6.0818">
        <ele>1596.8</ele>
        <time>2024-08-14T08:32:53Z</time>
      </trkpt>
      <trkpt lat="44.90865" lon="6.0818">
        <ele>1597.2</ele>
        <time>2024-08-14T08:32:54Z</time>
      </trkpt>
      <trkpt lat="44.90865" lon="6.0818">
        <ele>1597.2</ele>
        <time>2024-08-14T08:32:55Z</time>
      </trkpt>
      <trkpt lat="44.90866" lon="6.08182">
        <ele>1597.2</ele>
        <time>2024-08-14T08:32:56Z</time>
      </trkpt>
      <trkpt lat="44.90866" lon="6.08182">
        <ele>1597.6</ele>
        <time>2024-08-14T08:32:57Z</time>
      </trkpt>
      <trkpt lat="44.90866" lon="6.08182">
        <ele>1597.6</ele>
        <time>2024-08-14T08:32:58Z</time>
      </trkpt>
      <trkpt lat="44.90868" lon="6.08184">
        <ele>1597.8</ele>
        <time>2024-08-14T08:32:59Z</time>
      </trkpt>
      <trkpt lat="44.90868" lon="6.08184">
        <ele>1598</ele>
        <time>2024-08-14T08:33:00Z</time>
      </trkpt>
      <trkpt lat="44.90868" lon="6.08184">
        <ele>1598</ele>
        <time>2024-08-14T08:33:01Z</time>
      </trkpt>
      <trkpt lat="44.90869" lon="6.08187">
        <ele>1598</ele>
        <time>2024-08-14T08:33:02Z</time>
      </trkpt>
      <trkpt lat="44.90869" lon="6.08187">
        <ele>1598</ele>
        <time>2024-08-14T08:33:03Z</time>
      </trkpt>
      <trkpt lat="44.90869" lon="6.08187">
        <ele>1598</ele>
        <time>2024-08-14T08:33:04Z</time>
      </trkpt>
      <trkpt lat="44.90871" lon="6.08189">
        <ele>1598.2</ele>
        <time>2024-08-14T08:33:05Z</time>
      </trkpt>
      <trkpt lat="44.90871" lon="6.08189">
        <ele>1598.6</ele>
        <time>2024-08-14T08:33:06Z</time>
      </trkpt>
      <trkpt lat="44.90871" lon="6.08189">
        <ele>1598.6</ele>
        <time>2024-08-14T08:33:07Z</time>
      </trkpt>
      <trkpt lat="44.90871" lon="6.08189">
        <ele>1599.2</ele>
        <time>2024-08-14T08:33:08Z</time>
      </trkpt>
      <trkpt lat="44.90872" lon="6.08191">
        <ele>1599.6</ele>
        <time>2024-08-14T08:33:09Z</time>
      </trkpt>
      <trkpt lat="44.90872" lon="6.08191">
        <ele>1600</ele>
        <time>2024-08-14T08:33:10Z</time>
      </trkpt>
      <trkpt lat="44.90872" lon="6.08191">
        <ele>1600.2</ele>
        <time>2024-08-14T08:33:11Z</time>
      </trkpt>
      <trkpt lat="44.90874" lon="6.08192">
        <ele>1600.2</ele>
        <time>2024-08-14T08:33:12Z</time>
      </trkpt>
      <trkpt lat="44.90874" lon="6.08192">
        <ele>1600.2</ele>
        <time>2024-08-14T08:33:13Z</time>
      </trkpt>
      <trkpt lat="44.90876" lon="6.08193">
        <ele>1600.2</ele>
        <time>2024-08-14T08:33:14Z</time>
      </trkpt>
      <trkpt lat="44.90876" lon="6.08193">
        <ele>1600.2</ele>
        <time>2024-08-14T08:33:15Z</time>
      </trkpt>
      <trkpt lat="44.90876" lon="6.08193">
        <ele>1600.6</ele>
        <time>2024-08-14T08:33:16Z</time>
      </trkpt>
      <trkpt lat="44.90877" lon="6.08195">
        <ele>1601</ele>
        <time>2024-08-14T08:33:17Z</time>
      </trkpt>
      <trkpt lat="44.90877" lon="6.08195">
        <ele>1601.2</ele>
        <time>2024-08-14T08:33:18Z</time>
      </trkpt>
      <trkpt lat="44.90877" lon="6.08195">
        <ele>1601.4</ele>
        <time>2024-08-14T08:33:19Z</time>
      </trkpt>
      <trkpt lat="44.90879" lon="6.08197">
        <ele>1601.6</ele>
        <time>2024-08-14T08:33:20Z</time>
      </trkpt>
      <trkpt lat="44.90879" lon="6.08197">
        <ele>1602</ele>
        <time>2024-08-14T08:33:21Z</time>
      </trkpt>
      <trkpt lat="44.9088" lon="6.082">
        <ele>1602.2</ele>
        <time>2024-08-14T08:33:22Z</time>
      </trkpt>
      <trkpt lat="44.9088" lon="6.082">
        <ele>1602.4</ele>
        <time>2024-08-14T08:33:23Z</time>
      </trkpt>
      <trkpt lat="44.9088" lon="6.082">
        <ele>1602.4</ele>
        <time>2024-08-14T08:33:24Z</time>
      </trkpt>
      <trkpt lat="44.90881" lon="6.08202">
        <ele>1602.6</ele>
        <time>2024-08-14T08:33:25Z</time>
      </trkpt>
      <trkpt lat="44.90881" lon="6.08202">
        <ele>1603.2</ele>
        <time>2024-08-14T08:33:26Z</time>
      </trkpt>
      <trkpt lat="44.90881" lon="6.08202">
        <ele>1603.2</ele>
        <time>2024-08-14T08:33:27Z</time>
      </trkpt>
      <trkpt lat="44.90881" lon="6.08202">
        <ele>1603.2</ele>
        <time>2024-08-14T08:33:28Z</time>
      </trkpt>
      <trkpt lat="44.90883" lon="6.08204">
        <ele>1603.2</ele>
        <time>2024-08-14T08:33:29Z</time>
      </trkpt>
      <trkpt lat="44.90883" lon="6.08204">
        <ele>1603.2</ele>
        <time>2024-08-14T08:33:30Z</time>
      </trkpt>
      <trkpt lat="44.90884" lon="6.08205">
        <ele>1603.4</ele>
        <time>2024-08-14T08:33:31Z</time>
      </trkpt>
      <trkpt lat="44.90884" lon="6.08205">
        <ele>1603.4</ele>
        <time>2024-08-14T08:33:32Z</time>
      </trkpt>
      <trkpt lat="44.90885" lon="6.08208">
        <ele>1603.4</ele>
        <time>2024-08-14T08:33:33Z</time>
      </trkpt>
      <trkpt lat="44.90885" lon="6.08208">
        <ele>1603.4</ele>
        <time>2024-08-14T08:33:34Z</time>
      </trkpt>
      <trkpt lat="44.90887" lon="6.0821">
        <ele>1603.4</ele>
        <time>2024-08-14T08:33:35Z</time>
      </trkpt>
      <trkpt lat="44.90887" lon="6.0821">
        <ele>1603.6</ele>
        <time>2024-08-14T08:33:36Z</time>
      </trkpt>
      <trkpt lat="44.90888" lon="6.08212">
        <ele>1603.8</ele>
        <time>2024-08-14T08:33:37Z</time>
      </trkpt>
      <trkpt lat="44.90888" lon="6.08212">
        <ele>1604</ele>
        <time>2024-08-14T08:33:38Z</time>
      </trkpt>
      <trkpt lat="44.9089" lon="6.08213">
        <ele>1604</ele>
        <time>2024-08-14T08:33:39Z</time>
      </trkpt>
      <trkpt lat="44.9089" lon="6.08213">
        <ele>1604</ele>
        <time>2024-08-14T08:33:40Z</time>
      </trkpt>
      <trkpt lat="44.9089" lon="6.08213">
        <ele>1604</ele>
        <time>2024-08-14T08:33:41Z</time>
      </trkpt>
      <trkpt lat="44.9089" lon="6.08213">
        <ele>1603.8</ele>
        <time>2024-08-14T08:33:42Z</time>
      </trkpt>
      <trkpt lat="44.90892" lon="6.08216">
        <ele>1603.8</ele>
        <time>2024-08-14T08:33:43Z</time>
      </trkpt>
      <trkpt lat="44.90892" lon="6.08216">
        <ele>1604.4</ele>
        <time>2024-08-14T08:33:44Z</time>
      </trkpt>
      <trkpt lat="44.90892" lon="6.08216">
        <ele>1604.4</ele>
        <time>2024-08-14T08:33:45Z</time>
      </trkpt>
      <trkpt lat="44.90893" lon="6.08218">
        <ele>1604.4</ele>
        <time>2024-08-14T08:33:46Z</time>
      </trkpt>
      <trkpt lat="44.90893" lon="6.08218">
        <ele>1604.6</ele>
        <time>2024-08-14T08:33:47Z</time>
      </trkpt>
      <trkpt lat="44.90893" lon="6.08218">
        <ele>1604.6</ele>
        <time>2024-08-14T08:33:48Z</time>
      </trkpt>
      <trkpt lat="44.90893" lon="6.08218">
        <ele>1604.8</ele>
        <time>2024-08-14T08:33:49Z</time>
      </trkpt>
      <trkpt lat="44.90895" lon="6.0822">
        <ele>1605.2</ele>
        <time>2024-08-14T08:33:50Z</time>
      </trkpt>
      <trkpt lat="44.90895" lon="6.0822">
        <ele>1605.6</ele>
        <time>2024-08-14T08:33:51Z</time>
      </trkpt>
      <trkpt lat="44.90897" lon="6.0822">
        <ele>1605.6</ele>
        <time>2024-08-14T08:33:52Z</time>
      </trkpt>
      <trkpt lat="44.90897" lon="6.0822">
        <ele>1605.6</ele>
        <time>2024-08-14T08:33:53Z</time>
      </trkpt>
      <trkpt lat="44.90897" lon="6.0822">
        <ele>1605.6</ele>
        <time>2024-08-14T08:33:54Z</time>
      </trkpt>
      <trkpt lat="44.90899" lon="6.08221">
        <ele>1606</ele>
        <time>2024-08-14T08:33:55Z</time>
      </trkpt>
      <trkpt lat="44.90899" lon="6.08221">
        <ele>1606</ele>
        <time>2024-08-14T08:33:56Z</time>
      </trkpt>
      <trkpt lat="44.90901" lon="6.08222">
        <ele>1606.2</ele>
        <time>2024-08-14T08:33:57Z</time>
      </trkpt>
      <trkpt lat="44.90901" lon="6.08222">
        <ele>1606.2</ele>
        <time>2024-08-14T08:33:58Z</time>
      </trkpt>
      <trkpt lat="44.90901" lon="6.08222">
        <ele>1606.4</ele>
        <time>2024-08-14T08:33:59Z</time>
      </trkpt>
      <trkpt lat="44.90901" lon="6.08222">
        <ele>1606.6</ele>
        <time>2024-08-14T08:34:00Z</time>
      </trkpt>
      <trkpt lat="44.90901" lon="6.08222">
        <ele>1606.6</ele>
        <time>2024-08-14T08:34:01Z</time>
      </trkpt>
      <trkpt lat="44.90901" lon="6.08222">
        <ele>1606.8</ele>
        <time>2024-08-14T08:34:02Z</time>
      </trkpt>
      <trkpt lat="44.90901" lon="6.08222">
        <ele>1606.8</ele>
        <time>2024-08-14T08:34:03Z</time>
      </trkpt>
      <trkpt lat="44.90902" lon="6.08224">
        <ele>1606.6</ele>
        <time>2024-08-14T08:34:04Z</time>
      </trkpt>
      <trkpt lat="44.90902" lon="6.08224">
        <ele>1606.6</ele>
        <time>2024-08-14T08:34:05Z</time>
      </trkpt>
      <trkpt lat="44.90903" lon="6.08227">
        <ele>1606.8</ele>
        <time>2024-08-14T08:34:06Z</time>
      </trkpt>
      <trkpt lat="44.90903" lon="6.08227">
        <ele>1607.2</ele>
        <time>2024-08-14T08:34:07Z</time>
      </trkpt>
      <trkpt lat="44.90905" lon="6.08229">
        <ele>1607.2</ele>
        <time>2024-08-14T08:34:08Z</time>
      </trkpt>
      <trkpt lat="44.90905" lon="6.08229">
        <ele>1607.2</ele>
        <time>2024-08-14T08:34:09Z</time>
      </trkpt>
      <trkpt lat="44.90907" lon="6.0823">
        <ele>1607.2</ele>
        <time>2024-08-14T08:34:10Z</time>
      </trkpt>
      <trkpt lat="44.90907" lon="6.0823">
        <ele>1607.2</ele>
        <time>2024-08-14T08:34:11Z</time>
      </trkpt>
      <trkpt lat="44.90907" lon="6.0823">
        <ele>1607.2</ele>
        <time>2024-08-14T08:34:12Z</time>
      </trkpt>
      <trkpt lat="44.90907" lon="6.0823">
        <ele>1607.4</ele>
        <time>2024-08-14T08:34:13Z</time>
      </trkpt>
      <trkpt lat="44.90909" lon="6.08231">
        <ele>1607.6</ele>
        <time>2024-08-14T08:34:14Z</time>
      </trkpt>
      <trkpt lat="44.90909" lon="6.08231">
        <ele>1607.6</ele>
        <time>2024-08-14T08:34:15Z</time>
      </trkpt>
      <trkpt lat="44.90909" lon="6.08231">
        <ele>1608</ele>
        <time>2024-08-14T08:34:16Z</time>
      </trkpt>
      <trkpt lat="44.90911" lon="6.08233">
        <ele>1608</ele>
        <time>2024-08-14T08:34:17Z</time>
      </trkpt>
      <trkpt lat="44.90911" lon="6.08233">
        <ele>1608</ele>
        <time>2024-08-14T08:34:18Z</time>
      </trkpt>
      <trkpt lat="44.90911" lon="6.08233">
        <ele>1608</ele>
        <time>2024-08-14T08:34:19Z</time>
      </trkpt>
      <trkpt lat="44.90912" lon="6.08235">
        <ele>1608.2</ele>
        <time>2024-08-14T08:34:20Z</time>
      </trkpt>
      <trkpt lat="44.90912" lon="6.08235">
        <ele>1608.4</ele>
        <time>2024-08-14T08:34:21Z</time>
      </trkpt>
      <trkpt lat="44.90912" lon="6.08235">
        <ele>1608.8</ele>
        <time>2024-08-14T08:34:22Z</time>
      </trkpt>
      <trkpt lat="44.90912" lon="6.08235">
        <ele>1608.8</ele>
        <time>2024-08-14T08:34:23Z</time>
      </trkpt>
      <trkpt lat="44.90912" lon="6.08235">
        <ele>1608.8</ele>
        <time>2024-08-14T08:34:24Z</time>
      </trkpt>
      <trkpt lat="44.90912" lon="6.08235">
        <ele>1608.8</ele>
        <time>2024-08-14T08:34:25Z</time>
      </trkpt>
      <trkpt lat="44.90915" lon="6.08236">
        <ele>1608.8</ele>
        <time>2024-08-14T08:34:26Z</time>
      </trkpt>
      <trkpt lat="44.90915" lon="6.08236">
        <ele>1609</ele>
        <time>2024-08-14T08:34:27Z</time>
      </trkpt>
      <trkpt lat="44.90915" lon="6.08236">
        <ele>1609.2</ele>
        <time>2024-08-14T08:34:28Z</time>
      </trkpt>
      <trkpt lat="44.90917" lon="6.08235">
        <ele>1609.4</ele>
        <time>2024-08-14T08:34:29Z</time>
      </trkpt>
      <trkpt lat="44.90917" lon="6.08235">
        <ele>1609.6</ele>
        <time>2024-08-14T08:34:30Z</time>
      </trkpt>
      <trkpt lat="44.90917" lon="6.08232">
        <ele>1609.6</ele>
        <time>2024-08-14T08:34:31Z</time>
      </trkpt>
      <trkpt lat="44.90917" lon="6.08232">
        <ele>1609.6</ele>
        <time>2024-08-14T08:34:32Z</time>
      </trkpt>
      <trkpt lat="44.90918" lon="6.0823">
        <ele>1609.6</ele>
        <time>2024-08-14T08:34:33Z</time>
      </trkpt>
      <trkpt lat="44.90918" lon="6.0823">
        <ele>1609.8</ele>
        <time>2024-08-14T08:34:34Z</time>
      </trkpt>
      <trkpt lat="44.9092" lon="6.08229">
        <ele>1609.8</ele>
        <time>2024-08-14T08:34:35Z</time>
      </trkpt>
      <trkpt lat="44.9092" lon="6.08229">
        <ele>1609.8</ele>
        <time>2024-08-14T08:34:36Z</time>
      </trkpt>
      <trkpt lat="44.90922" lon="6.08228">
        <ele>1610</ele>
        <time>2024-08-14T08:34:37Z</time>
      </trkpt>
      <trkpt lat="44.90922" lon="6.08228">
        <ele>1610</ele>
        <time>2024-08-14T08:34:38Z</time>
      </trkpt>
      <trkpt lat="44.90924" lon="6.08229">
        <ele>1610.4</ele>
        <time>2024-08-14T08:34:39Z</time>
      </trkpt>
      <trkpt lat="44.90924" lon="6.08229">
        <ele>1610.6</ele>
        <time>2024-08-14T08:34:40Z</time>
      </trkpt>
      <trkpt lat="44.90924" lon="6.08229">
        <ele>1610.6</ele>
        <time>2024-08-14T08:34:41Z</time>
      </trkpt>
      <trkpt lat="44.90926" lon="6.0823">
        <ele>1610.6</ele>
        <time>2024-08-14T08:34:42Z</time>
      </trkpt>
      <trkpt lat="44.90926" lon="6.0823">
        <ele>1610.6</ele>
        <time>2024-08-14T08:34:43Z</time>
      </trkpt>
      <trkpt lat="44.90928" lon="6.08231">
        <ele>1611</ele>
        <time>2024-08-14T08:34:44Z</time>
      </trkpt>
      <trkpt lat="44.90928" lon="6.08231">
        <ele>1611</ele>
        <time>2024-08-14T08:34:45Z</time>
      </trkpt>
      <trkpt lat="44.90928" lon="6.08231">
        <ele>1611.4</ele>
        <time>2024-08-14T08:34:46Z</time>
      </trkpt>
      <trkpt lat="44.9093" lon="6.08231">
        <ele>1611.6</ele>
        <time>2024-08-14T08:34:47Z</time>
      </trkpt>
      <trkpt lat="44.9093" lon="6.08231">
        <ele>1611.6</ele>
        <time>2024-08-14T08:34:48Z</time>
      </trkpt>
      <trkpt lat="44.9093" lon="6.08231">
        <ele>1611.8</ele>
        <time>2024-08-14T08:34:49Z</time>
      </trkpt>
      <trkpt lat="44.90933" lon="6.08232">
        <ele>1612</ele>
        <time>2024-08-14T08:34:50Z</time>
      </trkpt>
      <trkpt lat="44.90933" lon="6.08232">
        <ele>1612.2</ele>
        <time>2024-08-14T08:34:51Z</time>
      </trkpt>
      <trkpt lat="44.90934" lon="6.08232">
        <ele>1612.2</ele>
        <time>2024-08-14T08:34:52Z</time>
      </trkpt>
      <trkpt lat="44.90934" lon="6.08232">
        <ele>1612.2</ele>
        <time>2024-08-14T08:34:53Z</time>
      </trkpt>
      <trkpt lat="44.90937" lon="6.08232">
        <ele>1612.4</ele>
        <time>2024-08-14T08:34:54Z</time>
      </trkpt>
      <trkpt lat="44.90937" lon="6.08232">
        <ele>1612.4</ele>
        <time>2024-08-14T08:34:55Z</time>
      </trkpt>
      <trkpt lat="44.90939" lon="6.08233">
        <ele>1612.6</ele>
        <time>2024-08-14T08:34:56Z</time>
      </trkpt>
      <trkpt lat="44.90939" lon="6.08233">
        <ele>1612.8</ele>
        <time>2024-08-14T08:34:57Z</time>
      </trkpt>
      <trkpt lat="44.9094" lon="6.08235">
        <ele>1612.8</ele>
        <time>2024-08-14T08:34:58Z</time>
      </trkpt>
      <trkpt lat="44.9094" lon="6.08235">
        <ele>1612.8</ele>
        <time>2024-08-14T08:34:59Z</time>
      </trkpt>
      <trkpt lat="44.90941" lon="6.08238">
        <ele>1613</ele>
        <time>2024-08-14T08:35:00Z</time>
      </trkpt>
      <trkpt lat="44.90941" lon="6.08238">
        <ele>1613.2</ele>
        <time>2024-08-14T08:35:01Z</time>
      </trkpt>
      <trkpt lat="44.90943" lon="6.0824">
        <ele>1613.4</ele>
        <time>2024-08-14T08:35:02Z</time>
      </trkpt>
      <trkpt lat="44.90943" lon="6.0824">
        <ele>1613.4</ele>
        <time>2024-08-14T08:35:03Z</time>
      </trkpt>
      <trkpt lat="44.90943" lon="6.0824">
        <ele>1613.4</ele>
        <time>2024-08-14T08:35:04Z</time>
      </trkpt>
      <trkpt lat="44.90943" lon="6.0824">
        <ele>1613.8</ele>
        <time>2024-08-14T08:35:05Z</time>
      </trkpt>
      <trkpt lat="44.90945" lon="6.0824">
        <ele>1614.2</ele>
        <time>2024-08-14T08:35:06Z</time>
      </trkpt>
      <trkpt lat="44.90945" lon="6.0824">
        <ele>1614.2</ele>
        <time>2024-08-14T08:35:07Z</time>
      </trkpt>
      <trkpt lat="44.90947" lon="6.08241">
        <ele>1614.8</ele>
        <time>2024-08-14T08:35:08Z</time>
      </trkpt>
      <trkpt lat="44.90947" lon="6.08241">
        <ele>1615.2</ele>
        <time>2024-08-14T08:35:09Z</time>
      </trkpt>
      <trkpt lat="44.90947" lon="6.08241">
        <ele>1615.2</ele>
        <time>2024-08-14T08:35:10Z</time>
      </trkpt>
      <trkpt lat="44.90947" lon="6.08241">
        <ele>1615.4</ele>
        <time>2024-08-14T08:35:11Z</time>
      </trkpt>
      <trkpt lat="44.90949" lon="6.08241">
        <ele>1615.8</ele>
        <time>2024-08-14T08:35:12Z</time>
      </trkpt>
      <trkpt lat="44.90949" lon="6.08241">
        <ele>1616</ele>
        <time>2024-08-14T08:35:13Z</time>
      </trkpt>
      <trkpt lat="44.9095" lon="6.08243">
        <ele>1616</ele>
        <time>2024-08-14T08:35:14Z</time>
      </trkpt>
      <trkpt lat="44.9095" lon="6.08243">
        <ele>1616</ele>
        <time>2024-08-14T08:35:15Z</time>
      </trkpt>
      <trkpt lat="44.90952" lon="6.08245">
        <ele>1616.2</ele>
        <time>2024-08-14T08:35:16Z</time>
      </trkpt>
      <trkpt lat="44.90952" lon="6.08245">
        <ele>1616.2</ele>
        <time>2024-08-14T08:35:17Z</time>
      </trkpt>
      <trkpt lat="44.90952" lon="6.08245">
        <ele>1616.6</ele>
        <time>2024-08-14T08:35:18Z</time>
      </trkpt>
      <trkpt lat="44.90954" lon="6.08246">
        <ele>1617</ele>
        <time>2024-08-14T08:35:19Z</time>
      </trkpt>
      <trkpt lat="44.90954" lon="6.08246">
        <ele>1617.6</ele>
        <time>2024-08-14T08:35:20Z</time>
      </trkpt>
      <trkpt lat="44.90954" lon="6.08246">
        <ele>1618</ele>
        <time>2024-08-14T08:35:21Z</time>
      </trkpt>
      <trkpt lat="44.90955" lon="6.08248">
        <ele>1618.2</ele>
        <time>2024-08-14T08:35:22Z</time>
      </trkpt>
      <trkpt lat="44.90955" lon="6.08248">
        <ele>1618.2</ele>
        <time>2024-08-14T08:35:23Z</time>
      </trkpt>
      <trkpt lat="44.90955" lon="6.08248">
        <ele>1618.4</ele>
        <time>2024-08-14T08:35:24Z</time>
      </trkpt>
      <trkpt lat="44.90957" lon="6.0825">
        <ele>1618.6</ele>
        <time>2024-08-14T08:35:25Z</time>
      </trkpt>
      <trkpt lat="44.90957" lon="6.0825">
        <ele>1618.8</ele>
        <time>2024-08-14T08:35:26Z</time>
      </trkpt>
      <trkpt lat="44.90957" lon="6.0825">
        <ele>1619.4</ele>
        <time>2024-08-14T08:35:27Z</time>
      </trkpt>
      <trkpt lat="44.90958" lon="6.08251">
        <ele>1619.4</ele>
        <time>2024-08-14T08:35:28Z</time>
      </trkpt>
      <trkpt lat="44.90958" lon="6.08251">
        <ele>1619.4</ele>
        <time>2024-08-14T08:35:29Z</time>
      </trkpt>
      <trkpt lat="44.90958" lon="6.08251">
        <ele>1619.8</ele>
        <time>2024-08-14T08:35:30Z</time>
      </trkpt>
      <trkpt lat="44.90958" lon="6.08251">
        <ele>1620</ele>
        <time>2024-08-14T08:35:31Z</time>
      </trkpt>
      <trkpt lat="44.9096" lon="6.08252">
        <ele>1620.2</ele>
        <time>2024-08-14T08:35:32Z</time>
      </trkpt>
      <trkpt lat="44.9096" lon="6.08252">
        <ele>1620.4</ele>
        <time>2024-08-14T08:35:33Z</time>
      </trkpt>
      <trkpt lat="44.9096" lon="6.08252">
        <ele>1620.6</ele>
        <time>2024-08-14T08:35:34Z</time>
      </trkpt>
      <trkpt lat="44.90962" lon="6.08251">
        <ele>1620.6</ele>
        <time>2024-08-14T08:35:35Z</time>
      </trkpt>
      <trkpt lat="44.90962" lon="6.08251">
        <ele>1620.8</ele>
        <time>2024-08-14T08:35:36Z</time>
      </trkpt>
      <trkpt lat="44.90962" lon="6.08251">
        <ele>1620.8</ele>
        <time>2024-08-14T08:35:37Z</time>
      </trkpt>
      <trkpt lat="44.90964" lon="6.08251">
        <ele>1621.6</ele>
        <time>2024-08-14T08:35:38Z</time>
      </trkpt>
      <trkpt lat="44.90964" lon="6.08251">
        <ele>1621.6</ele>
        <time>2024-08-14T08:35:39Z</time>
      </trkpt>
      <trkpt lat="44.90964" lon="6.08251">
        <ele>1621.6</ele>
        <time>2024-08-14T08:35:40Z</time>
      </trkpt>
      <trkpt lat="44.90964" lon="6.08251">
        <ele>1621.8</ele>
        <time>2024-08-14T08:35:41Z</time>
      </trkpt>
      <trkpt lat="44.90966" lon="6.08252">
        <ele>1622</ele>
        <time>2024-08-14T08:35:42Z</time>
      </trkpt>
      <trkpt lat="44.90966" lon="6.08252">
        <ele>1622.4</ele>
        <time>2024-08-14T08:35:43Z</time>
      </trkpt>
      <trkpt lat="44.90966" lon="6.08252">
        <ele>1622.8</ele>
        <time>2024-08-14T08:35:44Z</time>
      </trkpt>
      <trkpt lat="44.90966" lon="6.08252">
        <ele>1623.2</ele>
        <time>2024-08-14T08:35:45Z</time>
      </trkpt>
      <trkpt lat="44.90968" lon="6.08253">
        <ele>1623.2</ele>
        <time>2024-08-14T08:35:46Z</time>
      </trkpt>
      <trkpt lat="44.90968" lon="6.08253">
        <ele>1623.6</ele>
        <time>2024-08-14T08:35:47Z</time>
      </trkpt>
      <trkpt lat="44.90968" lon="6.08253">
        <ele>1623.6</ele>
        <time>2024-08-14T08:35:48Z</time>
      </trkpt>
      <trkpt lat="44.90968" lon="6.08253">
        <ele>1623.6</ele>
        <time>2024-08-14T08:35:49Z</time>
      </trkpt>
      <trkpt lat="44.9097" lon="6.08254">
        <ele>1624.2</ele>
        <time>2024-08-14T08:35:50Z</time>
      </trkpt>
      <trkpt lat="44.9097" lon="6.08254">
        <ele>1624.2</ele>
        <time>2024-08-14T08:35:51Z</time>
      </trkpt>
      <trkpt lat="44.9097" lon="6.08254">
        <ele>1624.2</ele>
        <time>2024-08-14T08:35:52Z</time>
      </trkpt>
      <trkpt lat="44.9097" lon="6.08254">
        <ele>1624.8</ele>
        <time>2024-08-14T08:35:53Z</time>
      </trkpt>
      <trkpt lat="44.9097" lon="6.08254">
        <ele>1624.8</ele>
        <time>2024-08-14T08:35:54Z</time>
      </trkpt>
      <trkpt lat="44.90973" lon="6.08254">
        <ele>1624.8</ele>
        <time>2024-08-14T08:35:55Z</time>
      </trkpt>
      <trkpt lat="44.90973" lon="6.08254">
        <ele>1625.2</ele>
        <time>2024-08-14T08:35:56Z</time>
      </trkpt>
      <trkpt lat="44.90973" lon="6.08254">
        <ele>1625.4</ele>
        <time>2024-08-14T08:35:57Z</time>
      </trkpt>
      <trkpt lat="44.90973" lon="6.08254">
        <ele>1625.4</ele>
        <time>2024-08-14T08:35:58Z</time>
      </trkpt>
      <trkpt lat="44.90974" lon="6.08256">
        <ele>1625.6</ele>
        <time>2024-08-14T08:35:59Z</time>
      </trkpt>
      <trkpt lat="44.90974" lon="6.08256">
        <ele>1625.8</ele>
        <time>2024-08-14T08:36:00Z</time>
      </trkpt>
      <trkpt lat="44.90976" lon="6.08257">
        <ele>1625.8</ele>
        <time>2024-08-14T08:36:01Z</time>
      </trkpt>
      <trkpt lat="44.90976" lon="6.08257">
        <ele>1626.6</ele>
        <time>2024-08-14T08:36:02Z</time>
      </trkpt>
      <trkpt lat="44.90976" lon="6.08257">
        <ele>1626.6</ele>
        <time>2024-08-14T08:36:03Z</time>
      </trkpt>
      <trkpt lat="44.90978" lon="6.08256">
        <ele>1627</ele>
        <time>2024-08-14T08:36:04Z</time>
      </trkpt>
      <trkpt lat="44.90978" lon="6.08256">
        <ele>1627</ele>
        <time>2024-08-14T08:36:05Z</time>
      </trkpt>
      <trkpt lat="44.90978" lon="6.08256">
        <ele>1627</ele>
        <time>2024-08-14T08:36:06Z</time>
      </trkpt>
      <trkpt lat="44.9098" lon="6.08256">
        <ele>1627</ele>
        <time>2024-08-14T08:36:07Z</time>
      </trkpt>
      <trkpt lat="44.9098" lon="6.08256">
        <ele>1627.2</ele>
        <time>2024-08-14T08:36:08Z</time>
      </trkpt>
      <trkpt lat="44.9098" lon="6.08256">
        <ele>1627.4</ele>
        <time>2024-08-14T08:36:09Z</time>
      </trkpt>
      <trkpt lat="44.90982" lon="6.08257">
        <ele>1627.4</ele>
        <time>2024-08-14T08:36:10Z</time>
      </trkpt>
      <trkpt lat="44.90982" lon="6.08257">
        <ele>1628</ele>
        <time>2024-08-14T08:36:11Z</time>
      </trkpt>
      <trkpt lat="44.90982" lon="6.08257">
        <ele>1628.2</ele>
        <time>2024-08-14T08:36:12Z</time>
      </trkpt>
      <trkpt lat="44.90984" lon="6.08259">
        <ele>1628.4</ele>
        <time>2024-08-14T08:36:13Z</time>
      </trkpt>
      <trkpt lat="44.90984" lon="6.08259">
        <ele>1628.6</ele>
        <time>2024-08-14T08:36:14Z</time>
      </trkpt>
      <trkpt lat="44.90986" lon="6.08261">
        <ele>1628.8</ele>
        <time>2024-08-14T08:36:15Z</time>
      </trkpt>
      <trkpt lat="44.90986" lon="6.08261">
        <ele>1629</ele>
        <time>2024-08-14T08:36:16Z</time>
      </trkpt>
      <trkpt lat="44.90988" lon="6.08263">
        <ele>1629.2</ele>
        <time>2024-08-14T08:36:17Z</time>
      </trkpt>
      <trkpt lat="44.90988" lon="6.08263">
        <ele>1629.2</ele>
        <time>2024-08-14T08:36:18Z</time>
      </trkpt>
      <trkpt lat="44.90988" lon="6.08263">
        <ele>1629.6</ele>
        <time>2024-08-14T08:36:19Z</time>
      </trkpt>
      <trkpt lat="44.90989" lon="6.08265">
        <ele>1629.8</ele>
        <time>2024-08-14T08:36:20Z</time>
      </trkpt>
      <trkpt lat="44.90989" lon="6.08265">
        <ele>1629.8</ele>
        <time>2024-08-14T08:36:21Z</time>
      </trkpt>
      <trkpt lat="44.90989" lon="6.08265">
        <ele>1629.8</ele>
        <time>2024-08-14T08:36:22Z</time>
      </trkpt>
      <trkpt lat="44.90991" lon="6.08267">
        <ele>1629.8</ele>
        <time>2024-08-14T08:36:23Z</time>
      </trkpt>
      <trkpt lat="44.90991" lon="6.08267">
        <ele>1629.8</ele>
        <time>2024-08-14T08:36:24Z</time>
      </trkpt>
      <trkpt lat="44.90991" lon="6.08267">
        <ele>1630.2</ele>
        <time>2024-08-14T08:36:25Z</time>
      </trkpt>
      <trkpt lat="44.90993" lon="6.08269">
        <ele>1630.4</ele>
        <time>2024-08-14T08:36:26Z</time>
      </trkpt>
      <trkpt lat="44.90993" lon="6.08269">
        <ele>1630.8</ele>
        <time>2024-08-14T08:36:27Z</time>
      </trkpt>
      <trkpt lat="44.90994" lon="6.08272">
        <ele>1631</ele>
        <time>2024-08-14T08:36:28Z</time>
      </trkpt>
      <trkpt lat="44.90994" lon="6.08272">
        <ele>1631</ele>
        <time>2024-08-14T08:36:29Z</time>
      </trkpt>
      <trkpt lat="44.90994" lon="6.08272">
        <ele>1631.2</ele>
        <time>2024-08-14T08:36:30Z</time>
      </trkpt>
      <trkpt lat="44.90994" lon="6.08275">
        <ele>1631.4</ele>
        <time>2024-08-14T08:36:31Z</time>
      </trkpt>
      <trkpt lat="44.90994" lon="6.08275">
        <ele>1631.8</ele>
        <time>2024-08-14T08:36:32Z</time>
      </trkpt>
      <trkpt lat="44.90994" lon="6.08275">
        <ele>1631.8</ele>
        <time>2024-08-14T08:36:33Z</time>
      </trkpt>
      <trkpt lat="44.90994" lon="6.08275">
        <ele>1632</ele>
        <time>2024-08-14T08:36:34Z</time>
      </trkpt>
      <trkpt lat="44.90996" lon="6.08278">
        <ele>1632.4</ele>
        <time>2024-08-14T08:36:35Z</time>
      </trkpt>
      <trkpt lat="44.90996" lon="6.08278">
        <ele>1632.4</ele>
        <time>2024-08-14T08:36:36Z</time>
      </trkpt>
      <trkpt lat="44.90996" lon="6.08278">
        <ele>1632.4</ele>
        <time>2024-08-14T08:36:37Z</time>
      </trkpt>
      <trkpt lat="44.90997" lon="6.08278">
        <ele>1632.6</ele>
        <time>2024-08-14T08:36:38Z</time>
      </trkpt>
      <trkpt lat="44.90997" lon="6.08278">
        <ele>1633.2</ele>
        <time>2024-08-14T08:36:39Z</time>
      </trkpt>
      <trkpt lat="44.90997" lon="6.08278">
        <ele>1633.2</ele>
        <time>2024-08-14T08:36:40Z</time>
      </trkpt>
      <trkpt lat="44.90997" lon="6.08278">
        <ele>1633.6</ele>
        <time>2024-08-14T08:36:41Z</time>
      </trkpt>
      <trkpt lat="44.90999" lon="6.08276">
        <ele>1633.8</ele>
        <time>2024-08-14T08:36:42Z</time>
      </trkpt>
      <trkpt lat="44.90999" lon="6.08276">
        <ele>1633.8</ele>
        <time>2024-08-14T08:36:43Z</time>
      </trkpt>
      <trkpt lat="44.90999" lon="6.08276">
        <ele>1633.8</ele>
        <time>2024-08-14T08:36:44Z</time>
      </trkpt>
      <trkpt lat="44.91001" lon="6.08276">
        <ele>1634</ele>
        <time>2024-08-14T08:36:45Z</time>
      </trkpt>
      <trkpt lat="44.91001" lon="6.08276">
        <ele>1634.2</ele>
        <time>2024-08-14T08:36:46Z</time>
      </trkpt>
      <trkpt lat="44.91001" lon="6.08276">
        <ele>1634.2</ele>
        <time>2024-08-14T08:36:47Z</time>
      </trkpt>
      <trkpt lat="44.91001" lon="6.08276">
        <ele>1634.6</ele>
        <time>2024-08-14T08:36:48Z</time>
      </trkpt>
      <trkpt lat="44.91001" lon="6.08276">
        <ele>1635.2</ele>
        <time>2024-08-14T08:36:49Z</time>
      </trkpt>
      <trkpt lat="44.91004" lon="6.08277">
        <ele>1635.2</ele>
        <time>2024-08-14T08:36:50Z</time>
      </trkpt>
      <trkpt lat="44.91004" lon="6.08277">
        <ele>1635.2</ele>
        <time>2024-08-14T08:36:51Z</time>
      </trkpt>
      <trkpt lat="44.91004" lon="6.08277">
        <ele>1635.4</ele>
        <time>2024-08-14T08:36:52Z</time>
      </trkpt>
      <trkpt lat="44.91006" lon="6.08278">
        <ele>1635.6</ele>
        <time>2024-08-14T08:36:53Z</time>
      </trkpt>
      <trkpt lat="44.91006" lon="6.08278">
        <ele>1635.8</ele>
        <time>2024-08-14T08:36:54Z</time>
      </trkpt>
      <trkpt lat="44.91006" lon="6.08278">
        <ele>1636</ele>
        <time>2024-08-14T08:36:55Z</time>
      </trkpt>
      <trkpt lat="44.91008" lon="6.0828">
        <ele>1636.6</ele>
        <time>2024-08-14T08:36:56Z</time>
      </trkpt>
      <trkpt lat="44.91008" lon="6.0828">
        <ele>1636.6</ele>
        <time>2024-08-14T08:36:57Z</time>
      </trkpt>
      <trkpt lat="44.91008" lon="6.0828">
        <ele>1636.8</ele>
        <time>2024-08-14T08:36:58Z</time>
      </trkpt>
      <trkpt lat="44.9101" lon="6.08282">
        <ele>1636.8</ele>
        <time>2024-08-14T08:36:59Z</time>
      </trkpt>
      <trkpt lat="44.9101" lon="6.08282">
        <ele>1637</ele>
        <time>2024-08-14T08:37:00Z</time>
      </trkpt>
      <trkpt lat="44.9101" lon="6.08282">
        <ele>1637.2</ele>
        <time>2024-08-14T08:37:01Z</time>
      </trkpt>
      <trkpt lat="44.9101" lon="6.08282">
        <ele>1637.6</ele>
        <time>2024-08-14T08:37:02Z</time>
      </trkpt>
      <trkpt lat="44.91012" lon="6.08282">
        <ele>1637.6</ele>
        <time>2024-08-14T08:37:03Z</time>
      </trkpt>
      <trkpt lat="44.91012" lon="6.08282">
        <ele>1637.8</ele>
        <time>2024-08-14T08:37:04Z</time>
      </trkpt>
      <trkpt lat="44.91012" lon="6.08282">
        <ele>1638</ele>
        <time>2024-08-14T08:37:05Z</time>
      </trkpt>
      <trkpt lat="44.91012" lon="6.08282">
        <ele>1638.2</ele>
        <time>2024-08-14T08:37:06Z</time>
      </trkpt>
      <trkpt lat="44.91012" lon="6.08282">
        <ele>1638.2</ele>
        <time>2024-08-14T08:37:07Z</time>
      </trkpt>
      <trkpt lat="44.91012" lon="6.08282">
        <ele>1638.2</ele>
        <time>2024-08-14T08:37:08Z</time>
      </trkpt>
      <trkpt lat="44.91012" lon="6.08282">
        <ele>1638.2</ele>
        <time>2024-08-14T08:37:09Z</time>
      </trkpt>
      <trkpt lat="44.91013" lon="6.08283">
        <ele>1638.2</ele>
        <time>2024-08-14T08:37:10Z</time>
      </trkpt>
      <trkpt lat="44.91013" lon="6.08283">
        <ele>1638</ele>
        <time>2024-08-14T08:37:11Z</time>
      </trkpt>
      <trkpt lat="44.91013" lon="6.08283">
        <ele>1638</ele>
        <time>2024-08-14T08:37:12Z</time>
      </trkpt>
      <trkpt lat="44.91013" lon="6.08283">
        <ele>1638.2</ele>
        <time>2024-08-14T08:37:13Z</time>
      </trkpt>
      <trkpt lat="44.91013" lon="6.08283">
        <ele>1638.6</ele>
        <time>2024-08-14T08:37:14Z</time>
      </trkpt>
      <trkpt lat="44.91013" lon="6.08283">
        <ele>1638.8</ele>
        <time>2024-08-14T08:37:15Z</time>
      </trkpt>
      <trkpt lat="44.91013" lon="6.08283">
        <ele>1638.8</ele>
        <time>2024-08-14T08:37:16Z</time>
      </trkpt>
      <trkpt lat="44.91013" lon="6.08283">
        <ele>1639.2</ele>
        <time>2024-08-14T08:37:17Z</time>
      </trkpt>
      <trkpt lat="44.91013" lon="6.08283">
        <ele>1639</ele>
        <time>2024-08-14T08:37:18Z</time>
      </trkpt>
      <trkpt lat="44.91013" lon="6.08283">
        <ele>1639.2</ele>
        <time>2024-08-14T08:37:19Z</time>
      </trkpt>
      <trkpt lat="44.91015" lon="6.08281">
        <ele>1639.2</ele>
        <time>2024-08-14T08:37:20Z</time>
      </trkpt>
      <trkpt lat="44.91015" lon="6.08281">
        <ele>1639.4</ele>
        <time>2024-08-14T08:37:21Z</time>
      </trkpt>
      <trkpt lat="44.91015" lon="6.08281">
        <ele>1639.6</ele>
        <time>2024-08-14T08:37:22Z</time>
      </trkpt>
      <trkpt lat="44.91015" lon="6.08281">
        <ele>1640.2</ele>
        <time>2024-08-14T08:37:23Z</time>
      </trkpt>
      <trkpt lat="44.91015" lon="6.08281">
        <ele>1640.2</ele>
        <time>2024-08-14T08:37:24Z</time>
      </trkpt>
      <trkpt lat="44.91015" lon="6.08281">
        <ele>1640.2</ele>
        <time>2024-08-14T08:37:25Z</time>
      </trkpt>
      <trkpt lat="44.91017" lon="6.08279">
        <ele>1640.2</ele>
        <time>2024-08-14T08:37:26Z</time>
      </trkpt>
      <trkpt lat="44.91017" lon="6.08279">
        <ele>1640.8</ele>
        <time>2024-08-14T08:37:27Z</time>
      </trkpt>
      <trkpt lat="44.9102" lon="6.08279">
        <ele>1641</ele>
        <time>2024-08-14T08:37:28Z</time>
      </trkpt>
      <trkpt lat="44.9102" lon="6.08279">
        <ele>1641.2</ele>
        <time>2024-08-14T08:37:29Z</time>
      </trkpt>
      <trkpt lat="44.91023" lon="6.08279">
        <ele>1641.4</ele>
        <time>2024-08-14T08:37:30Z</time>
      </trkpt>
      <trkpt lat="44.91023" lon="6.08279">
        <ele>1641.6</ele>
        <time>2024-08-14T08:37:31Z</time>
      </trkpt>
      <trkpt lat="44.91025" lon="6.08279">
        <ele>1641.8</ele>
        <time>2024-08-14T08:37:32Z</time>
      </trkpt>
      <trkpt lat="44.91025" lon="6.08279">
        <ele>1642</ele>
        <time>2024-08-14T08:37:33Z</time>
      </trkpt>
      <trkpt lat="44.91025" lon="6.08279">
        <ele>1642.4</ele>
        <time>2024-08-14T08:37:34Z</time>
      </trkpt>
      <trkpt lat="44.91027" lon="6.08279">
        <ele>1642.8</ele>
        <time>2024-08-14T08:37:35Z</time>
      </trkpt>
      <trkpt lat="44.91027" lon="6.08279">
        <ele>1642.8</ele>
        <time>2024-08-14T08:37:36Z</time>
      </trkpt>
      <trkpt lat="44.91027" lon="6.08279">
        <ele>1643</ele>
        <time>2024-08-14T08:37:37Z</time>
      </trkpt>
      <trkpt lat="44.91027" lon="6.08279">
        <ele>1643</ele>
        <time>2024-08-14T08:37:38Z</time>
      </trkpt>
      <trkpt lat="44.91029" lon="6.0828">
        <ele>1643.4</ele>
        <time>2024-08-14T08:37:39Z</time>
      </trkpt>
      <trkpt lat="44.91029" lon="6.0828">
        <ele>1643.8</ele>
        <time>2024-08-14T08:37:40Z</time>
      </trkpt>
      <trkpt lat="44.91029" lon="6.0828">
        <ele>1643.8</ele>
        <time>2024-08-14T08:37:41Z</time>
      </trkpt>
      <trkpt lat="44.91029" lon="6.0828">
        <ele>1643.8</ele>
        <time>2024-08-14T08:37:42Z</time>
      </trkpt>
      <trkpt lat="44.9103" lon="6.08282">
        <ele>1644</ele>
        <time>2024-08-14T08:37:43Z</time>
      </trkpt>
      <trkpt lat="44.9103" lon="6.08282">
        <ele>1644.2</ele>
        <time>2024-08-14T08:37:44Z</time>
      </trkpt>
      <trkpt lat="44.9103" lon="6.08282">
        <ele>1644.4</ele>
        <time>2024-08-14T08:37:45Z</time>
      </trkpt>
      <trkpt lat="44.91031" lon="6.08279">
        <ele>1644.4</ele>
        <time>2024-08-14T08:37:46Z</time>
      </trkpt>
      <trkpt lat="44.91031" lon="6.08279">
        <ele>1644.6</ele>
        <time>2024-08-14T08:37:47Z</time>
      </trkpt>
      <trkpt lat="44.91031" lon="6.08279">
        <ele>1644.8</ele>
        <time>2024-08-14T08:37:48Z</time>
      </trkpt>
      <trkpt lat="44.91031" lon="6.08279">
        <ele>1645</ele>
        <time>2024-08-14T08:37:49Z</time>
      </trkpt>
      <trkpt lat="44.91033" lon="6.08278">
        <ele>1645.4</ele>
        <time>2024-08-14T08:37:50Z</time>
      </trkpt>
      <trkpt lat="44.91033" lon="6.08278">
        <ele>1645.4</ele>
        <time>2024-08-14T08:37:51Z</time>
      </trkpt>
      <trkpt lat="44.91033" lon="6.08278">
        <ele>1645.4</ele>
        <time>2024-08-14T08:37:52Z</time>
      </trkpt>
      <trkpt lat="44.91033" lon="6.08278">
        <ele>1645.6</ele>
        <time>2024-08-14T08:37:53Z</time>
      </trkpt>
      <trkpt lat="44.91033" lon="6.08278">
        <ele>1645.8</ele>
        <time>2024-08-14T08:37:54Z</time>
      </trkpt>
      <trkpt lat="44.91033" lon="6.08278">
        <ele>1645.8</ele>
        <time>2024-08-14T08:37:55Z</time>
      </trkpt>
      <trkpt lat="44.91035" lon="6.08279">
        <ele>1645.8</ele>
        <time>2024-08-14T08:37:56Z</time>
      </trkpt>
      <trkpt lat="44.91035" lon="6.08279">
        <ele>1646.2</ele>
        <time>2024-08-14T08:37:57Z</time>
      </trkpt>
      <trkpt lat="44.91036" lon="6.0828">
        <ele>1646.6</ele>
        <time>2024-08-14T08:37:58Z</time>
      </trkpt>
      <trkpt lat="44.91036" lon="6.0828">
        <ele>1646.6</ele>
        <time>2024-08-14T08:37:59Z</time>
      </trkpt>
      <trkpt lat="44.91036" lon="6.0828">
        <ele>1646.8</ele>
        <time>2024-08-14T08:38:00Z</time>
      </trkpt>
      <trkpt lat="44.91038" lon="6.08282">
        <ele>1647.2</ele>
        <time>2024-08-14T08:38:01Z</time>
      </trkpt>
      <trkpt lat="44.91038" lon="6.08282">
        <ele>1647</ele>
        <time>2024-08-14T08:38:02Z</time>
      </trkpt>
      <trkpt lat="44.91038" lon="6.08282">
        <ele>1647</ele>
        <time>2024-08-14T08:38:03Z</time>
      </trkpt>
      <trkpt lat="44.91038" lon="6.08282">
        <ele>1647.4</ele>
        <time>2024-08-14T08:38:04Z</time>
      </trkpt>
      <trkpt lat="44.91039" lon="6.08286">
        <ele>1648.2</ele>
        <time>2024-08-14T08:38:05Z</time>
      </trkpt>
      <trkpt lat="44.91039" lon="6.08286">
        <ele>1648.2</ele>
        <time>2024-08-14T08:38:06Z</time>
      </trkpt>
      <trkpt lat="44.91039" lon="6.08286">
        <ele>1648.2</ele>
        <time>2024-08-14T08:38:07Z</time>
      </trkpt>
      <trkpt lat="44.91039" lon="6.08286">
        <ele>1648.6</ele>
        <time>2024-08-14T08:38:08Z</time>
      </trkpt>
      <trkpt lat="44.91039" lon="6.08286">
        <ele>1648.8</ele>
        <time>2024-08-14T08:38:09Z</time>
      </trkpt>
      <trkpt lat="44.9104" lon="6.08288">
        <ele>1648.8</ele>
        <time>2024-08-14T08:38:10Z</time>
      </trkpt>
      <trkpt lat="44.9104" lon="6.08288">
        <ele>1648.8</ele>
        <time>2024-08-14T08:38:11Z</time>
      </trkpt>
      <trkpt lat="44.9104" lon="6.08288">
        <ele>1648.8</ele>
        <time>2024-08-14T08:38:12Z</time>
      </trkpt>
      <trkpt lat="44.91042" lon="6.08289">
        <ele>1649</ele>
        <time>2024-08-14T08:38:13Z</time>
      </trkpt>
      <trkpt lat="44.91042" lon="6.08289">
        <ele>1649.2</ele>
        <time>2024-08-14T08:38:14Z</time>
      </trkpt>
      <trkpt lat="44.91042" lon="6.08289">
        <ele>1649.6</ele>
        <time>2024-08-14T08:38:15Z</time>
      </trkpt>
      <trkpt lat="44.91042" lon="6.08289">
        <ele>1649.8</ele>
        <time>2024-08-14T08:38:16Z</time>
      </trkpt>
      <trkpt lat="44.91044" lon="6.08287">
        <ele>1650</ele>
        <time>2024-08-14T08:38:17Z</time>
      </trkpt>
      <trkpt lat="44.91044" lon="6.08287">
        <ele>1650.2</ele>
        <time>2024-08-14T08:38:18Z</time>
      </trkpt>
      <trkpt lat="44.91044" lon="6.08287">
        <ele>1650.6</ele>
        <time>2024-08-14T08:38:19Z</time>
      </trkpt>
      <trkpt lat="44.91044" lon="6.08287">
        <ele>1650.6</ele>
        <time>2024-08-14T08:38:20Z</time>
      </trkpt>
      <trkpt lat="44.91045" lon="6.08284">
        <ele>1650.6</ele>
        <time>2024-08-14T08:38:21Z</time>
      </trkpt>
      <trkpt lat="44.91045" lon="6.08284">
        <ele>1651</ele>
        <time>2024-08-14T08:38:22Z</time>
      </trkpt>
      <trkpt lat="44.91045" lon="6.08284">
        <ele>1651.2</ele>
        <time>2024-08-14T08:38:23Z</time>
      </trkpt>
      <trkpt lat="44.91046" lon="6.08282">
        <ele>1651.2</ele>
        <time>2024-08-14T08:38:24Z</time>
      </trkpt>
      <trkpt lat="44.91046" lon="6.08282">
        <ele>1651.6</ele>
        <time>2024-08-14T08:38:25Z</time>
      </trkpt>
      <trkpt lat="44.91046" lon="6.08282">
        <ele>1651.6</ele>
        <time>2024-08-14T08:38:26Z</time>
      </trkpt>
      <trkpt lat="44.91048" lon="6.0828">
        <ele>1651.6</ele>
        <time>2024-08-14T08:38:27Z</time>
      </trkpt>
      <trkpt lat="44.91048" lon="6.0828">
        <ele>1652</ele>
        <time>2024-08-14T08:38:28Z</time>
      </trkpt>
      <trkpt lat="44.91048" lon="6.0828">
        <ele>1652.2</ele>
        <time>2024-08-14T08:38:29Z</time>
      </trkpt>
      <trkpt lat="44.9105" lon="6.08278">
        <ele>1652.2</ele>
        <time>2024-08-14T08:38:30Z</time>
      </trkpt>
      <trkpt lat="44.9105" lon="6.08278">
        <ele>1652.6</ele>
        <time>2024-08-14T08:38:31Z</time>
      </trkpt>
      <trkpt lat="44.9105" lon="6.08278">
        <ele>1652.6</ele>
        <time>2024-08-14T08:38:32Z</time>
      </trkpt>
      <trkpt lat="44.91052" lon="6.0828">
        <ele>1652.6</ele>
        <time>2024-08-14T08:38:33Z</time>
      </trkpt>
      <trkpt lat="44.91052" lon="6.0828">
        <ele>1653.2</ele>
        <time>2024-08-14T08:38:34Z</time>
      </trkpt>
      <trkpt lat="44.91052" lon="6.0828">
        <ele>1653.2</ele>
        <time>2024-08-14T08:38:35Z</time>
      </trkpt>
      <trkpt lat="44.91052" lon="6.08283">
        <ele>1653.4</ele>
        <time>2024-08-14T08:38:36Z</time>
      </trkpt>
      <trkpt lat="44.91052" lon="6.08283">
        <ele>1653.8</ele>
        <time>2024-08-14T08:38:37Z</time>
      </trkpt>
      <trkpt lat="44.91052" lon="6.08283">
        <ele>1653.8</ele>
        <time>2024-08-14T08:38:38Z</time>
      </trkpt>
      <trkpt lat="44.91052" lon="6.08283">
        <ele>1653.8</ele>
        <time>2024-08-14T08:38:39Z</time>
      </trkpt>
      <trkpt lat="44.91053" lon="6.08286">
        <ele>1654.2</ele>
        <time>2024-08-14T08:38:40Z</time>
      </trkpt>
      <trkpt lat="44.91053" lon="6.08286">
        <ele>1654.2</ele>
        <time>2024-08-14T08:38:41Z</time>
      </trkpt>
      <trkpt lat="44.91053" lon="6.08286">
        <ele>1654.4</ele>
        <time>2024-08-14T08:38:42Z</time>
      </trkpt>
      <trkpt lat="44.91053" lon="6.08286">
        <ele>1654.4</ele>
        <time>2024-08-14T08:38:43Z</time>
      </trkpt>
      <trkpt lat="44.91053" lon="6.08289">
        <ele>1654.6</ele>
        <time>2024-08-14T08:38:44Z</time>
      </trkpt>
      <trkpt lat="44.91053" lon="6.08289">
        <ele>1654.8</ele>
        <time>2024-08-14T08:38:45Z</time>
      </trkpt>
      <trkpt lat="44.91053" lon="6.08289">
        <ele>1655</ele>
        <time>2024-08-14T08:38:46Z</time>
      </trkpt>
      <trkpt lat="44.91053" lon="6.08289">
        <ele>1655.4</ele>
        <time>2024-08-14T08:38:47Z</time>
      </trkpt>
      <trkpt lat="44.91053" lon="6.08289">
        <ele>1655.4</ele>
        <time>2024-08-14T08:38:48Z</time>
      </trkpt>
      <trkpt lat="44.91053" lon="6.08289">
        <ele>1655.4</ele>
        <time>2024-08-14T08:38:49Z</time>
      </trkpt>
      <trkpt lat="44.91055" lon="6.0829">
        <ele>1655.8</ele>
        <time>2024-08-14T08:38:50Z</time>
      </trkpt>
      <trkpt lat="44.91055" lon="6.0829">
        <ele>1656</ele>
        <time>2024-08-14T08:38:51Z</time>
      </trkpt>
      <trkpt lat="44.91055" lon="6.0829">
        <ele>1656</ele>
        <time>2024-08-14T08:38:52Z</time>
      </trkpt>
      <trkpt lat="44.91055" lon="6.0829">
        <ele>1656</ele>
        <time>2024-08-14T08:38:53Z</time>
      </trkpt>
      <trkpt lat="44.91056" lon="6.08287">
        <ele>1656.4</ele>
        <time>2024-08-14T08:38:54Z</time>
      </trkpt>
      <trkpt lat="44.91056" lon="6.08287">
        <ele>1656.4</ele>
        <time>2024-08-14T08:38:55Z</time>
      </trkpt>
      <trkpt lat="44.91056" lon="6.08287">
        <ele>1656.8</ele>
        <time>2024-08-14T08:38:56Z</time>
      </trkpt>
      <trkpt lat="44.91057" lon="6.08285">
        <ele>1657</ele>
        <time>2024-08-14T08:38:57Z</time>
      </trkpt>
      <trkpt lat="44.91057" lon="6.08285">
        <ele>1657</ele>
        <time>2024-08-14T08:38:58Z</time>
      </trkpt>
      <trkpt lat="44.91057" lon="6.08285">
        <ele>1657.2</ele>
        <time>2024-08-14T08:38:59Z</time>
      </trkpt>
      <trkpt lat="44.91059" lon="6.08283">
        <ele>1657.2</ele>
        <time>2024-08-14T08:39:00Z</time>
      </trkpt>
      <trkpt lat="44.91059" lon="6.08283">
        <ele>1657.4</ele>
        <time>2024-08-14T08:39:01Z</time>
      </trkpt>
      <trkpt lat="44.91059" lon="6.08283">
        <ele>1658</ele>
        <time>2024-08-14T08:39:02Z</time>
      </trkpt>
      <trkpt lat="44.91059" lon="6.08283">
        <ele>1658</ele>
        <time>2024-08-14T08:39:03Z</time>
      </trkpt>
      <trkpt lat="44.91059" lon="6.08283">
        <ele>1658</ele>
        <time>2024-08-14T08:39:04Z</time>
      </trkpt>
      <trkpt lat="44.91059" lon="6.08283">
        <ele>1658</ele>
        <time>2024-08-14T08:39:05Z</time>
      </trkpt>
      <trkpt lat="44.9106" lon="6.08285">
        <ele>1658.4</ele>
        <time>2024-08-14T08:39:06Z</time>
      </trkpt>
      <trkpt lat="44.9106" lon="6.08285">
        <ele>1658.6</ele>
        <time>2024-08-14T08:39:07Z</time>
      </trkpt>
      <trkpt lat="44.91061" lon="6.08288">
        <ele>1659</ele>
        <time>2024-08-14T08:39:08Z</time>
      </trkpt>
      <trkpt lat="44.91061" lon="6.08288">
        <ele>1659</ele>
        <time>2024-08-14T08:39:09Z</time>
      </trkpt>
      <trkpt lat="44.91061" lon="6.08288">
        <ele>1659</ele>
        <time>2024-08-14T08:39:10Z</time>
      </trkpt>
      <trkpt lat="44.91062" lon="6.08292">
        <ele>1659</ele>
        <time>2024-08-14T08:39:11Z</time>
      </trkpt>
      <trkpt lat="44.91062" lon="6.08292">
        <ele>1659.6</ele>
        <time>2024-08-14T08:39:12Z</time>
      </trkpt>
      <trkpt lat="44.91062" lon="6.08292">
        <ele>1659.8</ele>
        <time>2024-08-14T08:39:13Z</time>
      </trkpt>
      <trkpt lat="44.91062" lon="6.08292">
        <ele>1660.2</ele>
        <time>2024-08-14T08:39:14Z</time>
      </trkpt>
      <trkpt lat="44.91062" lon="6.08292">
        <ele>1660.6</ele>
        <time>2024-08-14T08:39:15Z</time>
      </trkpt>
      <trkpt lat="44.91062" lon="6.08292">
        <ele>1660.6</ele>
        <time>2024-08-14T08:39:16Z</time>
      </trkpt>
      <trkpt lat="44.91062" lon="6.08292">
        <ele>1660.6</ele>
        <time>2024-08-14T08:39:17Z</time>
      </trkpt>
      <trkpt lat="44.91062" lon="6.08292">
        <ele>1660.6</ele>
        <time>2024-08-14T08:39:18Z</time>
      </trkpt>
      <trkpt lat="44.91062" lon="6.08292">
        <ele>1660.8</ele>
        <time>2024-08-14T08:39:19Z</time>
      </trkpt>
      <trkpt lat="44.91063" lon="6.08294">
        <ele>1661.2</ele>
        <time>2024-08-14T08:39:20Z</time>
      </trkpt>
      <trkpt lat="44.91063" lon="6.08294">
        <ele>1661.2</ele>
        <time>2024-08-14T08:39:21Z</time>
      </trkpt>
      <trkpt lat="44.91064" lon="6.08297">
        <ele>1661.2</ele>
        <time>2024-08-14T08:39:22Z</time>
      </trkpt>
      <trkpt lat="44.91064" lon="6.08297">
        <ele>1661.6</ele>
        <time>2024-08-14T08:39:23Z</time>
      </trkpt>
      <trkpt lat="44.91064" lon="6.08297">
        <ele>1662</ele>
        <time>2024-08-14T08:39:24Z</time>
      </trkpt>
      <trkpt lat="44.91066" lon="6.08299">
        <ele>1662</ele>
        <time>2024-08-14T08:39:25Z</time>
      </trkpt>
      <trkpt lat="44.91066" lon="6.08299">
        <ele>1662.4</ele>
        <time>2024-08-14T08:39:26Z</time>
      </trkpt>
      <trkpt lat="44.91068" lon="6.08298">
        <ele>1662.8</ele>
        <time>2024-08-14T08:39:27Z</time>
      </trkpt>
      <trkpt lat="44.91068" lon="6.08298">
        <ele>1662.8</ele>
        <time>2024-08-14T08:39:28Z</time>
      </trkpt>
      <trkpt lat="44.9107" lon="6.08298">
        <ele>1662.8</ele>
        <time>2024-08-14T08:39:29Z</time>
      </trkpt>
      <trkpt lat="44.9107" lon="6.08298">
        <ele>1663</ele>
        <time>2024-08-14T08:39:30Z</time>
      </trkpt>
      <trkpt lat="44.9107" lon="6.08298">
        <ele>1663</ele>
        <time>2024-08-14T08:39:31Z</time>
      </trkpt>
      <trkpt lat="44.91072" lon="6.08298">
        <ele>1663.2</ele>
        <time>2024-08-14T08:39:32Z</time>
      </trkpt>
      <trkpt lat="44.91072" lon="6.08298">
        <ele>1663</ele>
        <time>2024-08-14T08:39:33Z</time>
      </trkpt>
      <trkpt lat="44.91074" lon="6.08299">
        <ele>1663</ele>
        <time>2024-08-14T08:39:34Z</time>
      </trkpt>
      <trkpt lat="44.91074" lon="6.08299">
        <ele>1663.2</ele>
        <time>2024-08-14T08:39:35Z</time>
      </trkpt>
      <trkpt lat="44.91074" lon="6.08299">
        <ele>1662.8</ele>
        <time>2024-08-14T08:39:36Z</time>
      </trkpt>
      <trkpt lat="44.91075" lon="6.08303">
        <ele>1662.8</ele>
        <time>2024-08-14T08:39:37Z</time>
      </trkpt>
      <trkpt lat="44.91075" lon="6.08303">
        <ele>1662.8</ele>
        <time>2024-08-14T08:39:38Z</time>
      </trkpt>
      <trkpt lat="44.91075" lon="6.08306">
        <ele>1662.6</ele>
        <time>2024-08-14T08:39:39Z</time>
      </trkpt>
      <trkpt lat="44.91075" lon="6.08306">
        <ele>1662.6</ele>
        <time>2024-08-14T08:39:40Z</time>
      </trkpt>
      <trkpt lat="44.91075" lon="6.08309">
        <ele>1662.6</ele>
        <time>2024-08-14T08:39:41Z</time>
      </trkpt>
      <trkpt lat="44.91075" lon="6.08309">
        <ele>1662.8</ele>
        <time>2024-08-14T08:39:42Z</time>
      </trkpt>
      <trkpt lat="44.91075" lon="6.08309">
        <ele>1662.8</ele>
        <time>2024-08-14T08:39:43Z</time>
      </trkpt>
      <trkpt lat="44.91076" lon="6.08312">
        <ele>1662.8</ele>
        <time>2024-08-14T08:39:44Z</time>
      </trkpt>
      <trkpt lat="44.91076" lon="6.08312">
        <ele>1662.6</ele>
        <time>2024-08-14T08:39:45Z</time>
      </trkpt>
      <trkpt lat="44.91077" lon="6.08314">
        <ele>1662.6</ele>
        <time>2024-08-14T08:39:46Z</time>
      </trkpt>
      <trkpt lat="44.91077" lon="6.08314">
        <ele>1662.6</ele>
        <time>2024-08-14T08:39:47Z</time>
      </trkpt>
      <trkpt lat="44.91079" lon="6.08315">
        <ele>1662.4</ele>
        <time>2024-08-14T08:39:48Z</time>
      </trkpt>
      <trkpt lat="44.91079" lon="6.08315">
        <ele>1662</ele>
        <time>2024-08-14T08:39:49Z</time>
      </trkpt>
      <trkpt lat="44.91081" lon="6.08317">
        <ele>1662</ele>
        <time>2024-08-14T08:39:50Z</time>
      </trkpt>
      <trkpt lat="44.91081" lon="6.08317">
        <ele>1662</ele>
        <time>2024-08-14T08:39:51Z</time>
      </trkpt>
      <trkpt lat="44.91081" lon="6.08317">
        <ele>1662</ele>
        <time>2024-08-14T08:39:52Z</time>
      </trkpt>
      <trkpt lat="44.91083" lon="6.08319">
        <ele>1662.4</ele>
        <time>2024-08-14T08:39:53Z</time>
      </trkpt>
      <trkpt lat="44.91083" lon="6.08319">
        <ele>1662.6</ele>
        <time>2024-08-14T08:39:54Z</time>
      </trkpt>
      <trkpt lat="44.91083" lon="6.08319">
        <ele>1662.6</ele>
        <time>2024-08-14T08:39:55Z</time>
      </trkpt>
      <trkpt lat="44.91085" lon="6.08322">
        <ele>1663</ele>
        <time>2024-08-14T08:39:56Z</time>
      </trkpt>
      <trkpt lat="44.91085" lon="6.08322">
        <ele>1663.4</ele>
        <time>2024-08-14T08:39:57Z</time>
      </trkpt>
      <trkpt lat="44.91085" lon="6.08322">
        <ele>1663.4</ele>
        <time>2024-08-14T08:39:58Z</time>
      </trkpt>
      <trkpt lat="44.91087" lon="6.08324">
        <ele>1663.6</ele>
        <time>2024-08-14T08:39:59Z</time>
      </trkpt>
      <trkpt lat="44.91087" lon="6.08324">
        <ele>1663.8</ele>
        <time>2024-08-14T08:40:00Z</time>
      </trkpt>
      <trkpt lat="44.91087" lon="6.08324">
        <ele>1663.8</ele>
        <time>2024-08-14T08:40:01Z</time>
      </trkpt>
      <trkpt lat="44.91087" lon="6.08324">
        <ele>1664.2</ele>
        <time>2024-08-14T08:40:02Z</time>
      </trkpt>
      <trkpt lat="44.91089" lon="6.08326">
        <ele>1664.4</ele>
        <time>2024-08-14T08:40:03Z</time>
      </trkpt>
      <trkpt lat="44.91089" lon="6.08326">
        <ele>1664.6</ele>
        <time>2024-08-14T08:40:04Z</time>
      </trkpt>
      <trkpt lat="44.91089" lon="6.08326">
        <ele>1664.8</ele>
        <time>2024-08-14T08:40:05Z</time>
      </trkpt>
      <trkpt lat="44.9109" lon="6.08329">
        <ele>1665</ele>
        <time>2024-08-14T08:40:06Z</time>
      </trkpt>
      <trkpt lat="44.9109" lon="6.08329">
        <ele>1665.6</ele>
        <time>2024-08-14T08:40:07Z</time>
      </trkpt>
      <trkpt lat="44.9109" lon="6.08329">
        <ele>1666.2</ele>
        <time>2024-08-14T08:40:08Z</time>
      </trkpt>
      <trkpt lat="44.9109" lon="6.08329">
        <ele>1666.6</ele>
        <time>2024-08-14T08:40:09Z</time>
      </trkpt>
      <trkpt lat="44.9109" lon="6.08329">
        <ele>1666.6</ele>
        <time>2024-08-14T08:40:10Z</time>
      </trkpt>
      <trkpt lat="44.91091" lon="6.08332">
        <ele>1666.6</ele>
        <time>2024-08-14T08:40:11Z</time>
      </trkpt>
      <trkpt lat="44.91091" lon="6.08332">
        <ele>1666.8</ele>
        <time>2024-08-14T08:40:12Z</time>
      </trkpt>
      <trkpt lat="44.91091" lon="6.08332">
        <ele>1666.8</ele>
        <time>2024-08-14T08:40:13Z</time>
      </trkpt>
      <trkpt lat="44.91093" lon="6.08334">
        <ele>1667.2</ele>
        <time>2024-08-14T08:40:14Z</time>
      </trkpt>
      <trkpt lat="44.91093" lon="6.08334">
        <ele>1667.4</ele>
        <time>2024-08-14T08:40:15Z</time>
      </trkpt>
      <trkpt lat="44.91093" lon="6.08334">
        <ele>1667.6</ele>
        <time>2024-08-14T08:40:16Z</time>
      </trkpt>
      <trkpt lat="44.91093" lon="6.08334">
        <ele>1667.6</ele>
        <time>2024-08-14T08:40:17Z</time>
      </trkpt>
      <trkpt lat="44.91095" lon="6.08335">
        <ele>1667.8</ele>
        <time>2024-08-14T08:40:18Z</time>
      </trkpt>
      <trkpt lat="44.91095" lon="6.08335">
        <ele>1668</ele>
        <time>2024-08-14T08:40:19Z</time>
      </trkpt>
      <trkpt lat="44.91095" lon="6.08335">
        <ele>1668</ele>
        <time>2024-08-14T08:40:20Z</time>
      </trkpt>
      <trkpt lat="44.91097" lon="6.08336">
        <ele>1668.6</ele>
        <time>2024-08-14T08:40:21Z</time>
      </trkpt>
      <trkpt lat="44.91097" lon="6.08336">
        <ele>1668.6</ele>
        <time>2024-08-14T08:40:22Z</time>
      </trkpt>
      <trkpt lat="44.91097" lon="6.08336">
        <ele>1668.6</ele>
        <time>2024-08-14T08:40:23Z</time>
      </trkpt>
      <trkpt lat="44.91099" lon="6.08338">
        <ele>1669</ele>
        <time>2024-08-14T08:40:24Z</time>
      </trkpt>
      <trkpt lat="44.91099" lon="6.08338">
        <ele>1669.2</ele>
        <time>2024-08-14T08:40:25Z</time>
      </trkpt>
      <trkpt lat="44.91099" lon="6.08338">
        <ele>1669.2</ele>
        <time>2024-08-14T08:40:26Z</time>
      </trkpt>
      <trkpt lat="44.91099" lon="6.08338">
        <ele>1669.4</ele>
        <time>2024-08-14T08:40:27Z</time>
      </trkpt>
      <trkpt lat="44.91099" lon="6.08338">
        <ele>1669.6</ele>
        <time>2024-08-14T08:40:28Z</time>
      </trkpt>
      <trkpt lat="44.91101" lon="6.08341">
        <ele>1670.2</ele>
        <time>2024-08-14T08:40:29Z</time>
      </trkpt>
      <trkpt lat="44.91101" lon="6.08341">
        <ele>1670.4</ele>
        <time>2024-08-14T08:40:30Z</time>
      </trkpt>
      <trkpt lat="44.91101" lon="6.08341">
        <ele>1670.6</ele>
        <time>2024-08-14T08:40:31Z</time>
      </trkpt>
      <trkpt lat="44.91103" lon="6.08343">
        <ele>1670.6</ele>
        <time>2024-08-14T08:40:32Z</time>
      </trkpt>
      <trkpt lat="44.91103" lon="6.08343">
        <ele>1670.6</ele>
        <time>2024-08-14T08:40:33Z</time>
      </trkpt>
      <trkpt lat="44.91103" lon="6.08343">
        <ele>1670.8</ele>
        <time>2024-08-14T08:40:34Z</time>
      </trkpt>
      <trkpt lat="44.91105" lon="6.08344">
        <ele>1671</ele>
        <time>2024-08-14T08:40:35Z</time>
      </trkpt>
      <trkpt lat="44.91105" lon="6.08344">
        <ele>1671.6</ele>
        <time>2024-08-14T08:40:36Z</time>
      </trkpt>
      <trkpt lat="44.91105" lon="6.08344">
        <ele>1671.6</ele>
        <time>2024-08-14T08:40:37Z</time>
      </trkpt>
      <trkpt lat="44.91107" lon="6.08346">
        <ele>1671.6</ele>
        <time>2024-08-14T08:40:38Z</time>
      </trkpt>
      <trkpt lat="44.91107" lon="6.08346">
        <ele>1671.8</ele>
        <time>2024-08-14T08:40:39Z</time>
      </trkpt>
      <trkpt lat="44.91107" lon="6.08346">
        <ele>1672</ele>
        <time>2024-08-14T08:40:40Z</time>
      </trkpt>
      <trkpt lat="44.91108" lon="6.08347">
        <ele>1672</ele>
        <time>2024-08-14T08:40:41Z</time>
      </trkpt>
      <trkpt lat="44.91108" lon="6.08347">
        <ele>1672.4</ele>
        <time>2024-08-14T08:40:42Z</time>
      </trkpt>
      <trkpt lat="44.91108" lon="6.08347">
        <ele>1672.6</ele>
        <time>2024-08-14T08:40:43Z</time>
      </trkpt>
      <trkpt lat="44.91109" lon="6.08349">
        <ele>1672.8</ele>
        <time>2024-08-14T08:40:44Z</time>
      </trkpt>
      <trkpt lat="44.91109" lon="6.08349">
        <ele>1672.8</ele>
        <time>2024-08-14T08:40:45Z</time>
      </trkpt>
      <trkpt lat="44.91109" lon="6.08349">
        <ele>1673.2</ele>
        <time>2024-08-14T08:40:46Z</time>
      </trkpt>
      <trkpt lat="44.91111" lon="6.08351">
        <ele>1673.2</ele>
        <time>2024-08-14T08:40:47Z</time>
      </trkpt>
      <trkpt lat="44.91111" lon="6.08351">
        <ele>1673.6</ele>
        <time>2024-08-14T08:40:48Z</time>
      </trkpt>
      <trkpt lat="44.91111" lon="6.08351">
        <ele>1673.6</ele>
        <time>2024-08-14T08:40:49Z</time>
      </trkpt>
      <trkpt lat="44.91113" lon="6.08353">
        <ele>1673.6</ele>
        <time>2024-08-14T08:40:50Z</time>
      </trkpt>
      <trkpt lat="44.91113" lon="6.08353">
        <ele>1674</ele>
        <time>2024-08-14T08:40:51Z</time>
      </trkpt>
      <trkpt lat="44.91113" lon="6.08353">
        <ele>1674.2</ele>
        <time>2024-08-14T08:40:52Z</time>
      </trkpt>
      <trkpt lat="44.91115" lon="6.08354">
        <ele>1674.2</ele>
        <time>2024-08-14T08:40:53Z</time>
      </trkpt>
      <trkpt lat="44.91115" lon="6.08354">
        <ele>1674.4</ele>
        <time>2024-08-14T08:40:54Z</time>
      </trkpt>
      <trkpt lat="44.91115" lon="6.08354">
        <ele>1674.4</ele>
        <time>2024-08-14T08:40:55Z</time>
      </trkpt>
      <trkpt lat="44.91116" lon="6.08358">
        <ele>1674.6</ele>
        <time>2024-08-14T08:40:56Z</time>
      </trkpt>
      <trkpt lat="44.91116" lon="6.08358">
        <ele>1674.8</ele>
        <time>2024-08-14T08:40:57Z</time>
      </trkpt>
      <trkpt lat="44.91116" lon="6.08358">
        <ele>1674.8</ele>
        <time>2024-08-14T08:40:58Z</time>
      </trkpt>
      <trkpt lat="44.91117" lon="6.08361">
        <ele>1675.2</ele>
        <time>2024-08-14T08:40:59Z</time>
      </trkpt>
      <trkpt lat="44.91117" lon="6.08361">
        <ele>1675.8</ele>
        <time>2024-08-14T08:41:00Z</time>
      </trkpt>
      <trkpt lat="44.91117" lon="6.08361">
        <ele>1675.8</ele>
        <time>2024-08-14T08:41:01Z</time>
      </trkpt>
      <trkpt lat="44.91119" lon="6.08364">
        <ele>1676.4</ele>
        <time>2024-08-14T08:41:02Z</time>
      </trkpt>
      <trkpt lat="44.91119" lon="6.08364">
        <ele>1676.4</ele>
        <time>2024-08-14T08:41:03Z</time>
      </trkpt>
      <trkpt lat="44.91119" lon="6.08364">
        <ele>1676.4</ele>
        <time>2024-08-14T08:41:04Z</time>
      </trkpt>
      <trkpt lat="44.9112" lon="6.08366">
        <ele>1676.4</ele>
        <time>2024-08-14T08:41:05Z</time>
      </trkpt>
      <trkpt lat="44.9112" lon="6.08366">
        <ele>1676.8</ele>
        <time>2024-08-14T08:41:06Z</time>
      </trkpt>
      <trkpt lat="44.9112" lon="6.08366">
        <ele>1677</ele>
        <time>2024-08-14T08:41:07Z</time>
      </trkpt>
      <trkpt lat="44.91123" lon="6.08367">
        <ele>1677</ele>
        <time>2024-08-14T08:41:08Z</time>
      </trkpt>
      <trkpt lat="44.91123" lon="6.08367">
        <ele>1677.2</ele>
        <time>2024-08-14T08:41:09Z</time>
      </trkpt>
      <trkpt lat="44.91123" lon="6.08367">
        <ele>1677.4</ele>
        <time>2024-08-14T08:41:10Z</time>
      </trkpt>
      <trkpt lat="44.91123" lon="6.08367">
        <ele>1677.8</ele>
        <time>2024-08-14T08:41:11Z</time>
      </trkpt>
      <trkpt lat="44.91123" lon="6.08367">
        <ele>1677.8</ele>
        <time>2024-08-14T08:41:12Z</time>
      </trkpt>
      <trkpt lat="44.91125" lon="6.08369">
        <ele>1677.8</ele>
        <time>2024-08-14T08:41:13Z</time>
      </trkpt>
      <trkpt lat="44.91125" lon="6.08369">
        <ele>1678.2</ele>
        <time>2024-08-14T08:41:14Z</time>
      </trkpt>
      <trkpt lat="44.91125" lon="6.08369">
        <ele>1678.6</ele>
        <time>2024-08-14T08:41:15Z</time>
      </trkpt>
      <trkpt lat="44.91125" lon="6.08369">
        <ele>1678.6</ele>
        <time>2024-08-14T08:41:16Z</time>
      </trkpt>
      <trkpt lat="44.91127" lon="6.0837">
        <ele>1679</ele>
        <time>2024-08-14T08:41:17Z</time>
      </trkpt>
      <trkpt lat="44.91127" lon="6.0837">
        <ele>1679</ele>
        <time>2024-08-14T08:41:18Z</time>
      </trkpt>
      <trkpt lat="44.91127" lon="6.0837">
        <ele>1679</ele>
        <time>2024-08-14T08:41:19Z</time>
      </trkpt>
      <trkpt lat="44.91127" lon="6.0837">
        <ele>1679.4</ele>
        <time>2024-08-14T08:41:20Z</time>
      </trkpt>
      <trkpt lat="44.91129" lon="6.08373">
        <ele>1679.6</ele>
        <time>2024-08-14T08:41:21Z</time>
      </trkpt>
      <trkpt lat="44.91129" lon="6.08373">
        <ele>1679.6</ele>
        <time>2024-08-14T08:41:22Z</time>
      </trkpt>
      <trkpt lat="44.91129" lon="6.08373">
        <ele>1679.8</ele>
        <time>2024-08-14T08:41:23Z</time>
      </trkpt>
      <trkpt lat="44.91131" lon="6.08374">
        <ele>1680</ele>
        <time>2024-08-14T08:41:24Z</time>
      </trkpt>
      <trkpt lat="44.91131" lon="6.08374">
        <ele>1680.2</ele>
        <time>2024-08-14T08:41:25Z</time>
      </trkpt>
      <trkpt lat="44.91131" lon="6.08374">
        <ele>1680.2</ele>
        <time>2024-08-14T08:41:26Z</time>
      </trkpt>
      <trkpt lat="44.91133" lon="6.08375">
        <ele>1681</ele>
        <time>2024-08-14T08:41:27Z</time>
      </trkpt>
      <trkpt lat="44.91133" lon="6.08375">
        <ele>1681</ele>
        <time>2024-08-14T08:41:28Z</time>
      </trkpt>
      <trkpt lat="44.91135" lon="6.08377">
        <ele>1681</ele>
        <time>2024-08-14T08:41:29Z</time>
      </trkpt>
      <trkpt lat="44.91135" lon="6.08377">
        <ele>1681.4</ele>
        <time>2024-08-14T08:41:30Z</time>
      </trkpt>
      <trkpt lat="44.91136" lon="6.08378">
        <ele>1681.4</ele>
        <time>2024-08-14T08:41:31Z</time>
      </trkpt>
      <trkpt lat="44.91136" lon="6.08378">
        <ele>1681.6</ele>
        <time>2024-08-14T08:41:32Z</time>
      </trkpt>
      <trkpt lat="44.91136" lon="6.08378">
        <ele>1682.2</ele>
        <time>2024-08-14T08:41:33Z</time>
      </trkpt>
      <trkpt lat="44.91136" lon="6.08378">
        <ele>1682.2</ele>
        <time>2024-08-14T08:41:34Z</time>
      </trkpt>
      <trkpt lat="44.91138" lon="6.08381">
        <ele>1682.4</ele>
        <time>2024-08-14T08:41:35Z</time>
      </trkpt>
      <trkpt lat="44.91138" lon="6.08381">
        <ele>1682.6</ele>
        <time>2024-08-14T08:41:36Z</time>
      </trkpt>
      <trkpt lat="44.91139" lon="6.08383">
        <ele>1682.6</ele>
        <time>2024-08-14T08:41:37Z</time>
      </trkpt>
      <trkpt lat="44.91139" lon="6.08383">
        <ele>1682.6</ele>
        <time>2024-08-14T08:41:38Z</time>
      </trkpt>
      <trkpt lat="44.91139" lon="6.08383">
        <ele>1683</ele>
        <time>2024-08-14T08:41:39Z</time>
      </trkpt>
      <trkpt lat="44.91141" lon="6.08386">
        <ele>1683.2</ele>
        <time>2024-08-14T08:41:40Z</time>
      </trkpt>
      <trkpt lat="44.91141" lon="6.08386">
        <ele>1683.4</ele>
        <time>2024-08-14T08:41:41Z</time>
      </trkpt>
      <trkpt lat="44.91141" lon="6.08386">
        <ele>1683.8</ele>
        <time>2024-08-14T08:41:42Z</time>
      </trkpt>
      <trkpt lat="44.91143" lon="6.08386">
        <ele>1683.8</ele>
        <time>2024-08-14T08:41:43Z</time>
      </trkpt>
      <trkpt lat="44.91143" lon="6.08386">
        <ele>1683.8</ele>
        <time>2024-08-14T08:41:44Z</time>
      </trkpt>
      <trkpt lat="44.91143" lon="6.08386">
        <ele>1684.4</ele>
        <time>2024-08-14T08:41:45Z</time>
      </trkpt>
      <trkpt lat="44.91145" lon="6.08387">
        <ele>1684.4</ele>
        <time>2024-08-14T08:41:46Z</time>
      </trkpt>
      <trkpt lat="44.91145" lon="6.08387">
        <ele>1684.4</ele>
        <time>2024-08-14T08:41:47Z</time>
      </trkpt>
      <trkpt lat="44.91145" lon="6.08387">
        <ele>1684.8</ele>
        <time>2024-08-14T08:41:48Z</time>
      </trkpt>
      <trkpt lat="44.91147" lon="6.08388">
        <ele>1684.8</ele>
        <time>2024-08-14T08:41:49Z</time>
      </trkpt>
      <trkpt lat="44.91147" lon="6.08388">
        <ele>1685</ele>
        <time>2024-08-14T08:41:50Z</time>
      </trkpt>
      <trkpt lat="44.91147" lon="6.08388">
        <ele>1685</ele>
        <time>2024-08-14T08:41:51Z</time>
      </trkpt>
      <trkpt lat="44.91149" lon="6.08389">
        <ele>1685.4</ele>
        <time>2024-08-14T08:41:52Z</time>
      </trkpt>
      <trkpt lat="44.91149" lon="6.08389">
        <ele>1685.4</ele>
        <time>2024-08-14T08:41:53Z</time>
      </trkpt>
      <trkpt lat="44.91149" lon="6.08389">
        <ele>1685.8</ele>
        <time>2024-08-14T08:41:54Z</time>
      </trkpt>
      <trkpt lat="44.91149" lon="6.08389">
        <ele>1685.8</ele>
        <time>2024-08-14T08:41:55Z</time>
      </trkpt>
      <trkpt lat="44.91151" lon="6.08389">
        <ele>1686.2</ele>
        <time>2024-08-14T08:41:56Z</time>
      </trkpt>
      <trkpt lat="44.91151" lon="6.08389">
        <ele>1686.4</ele>
        <time>2024-08-14T08:41:57Z</time>
      </trkpt>
      <trkpt lat="44.91151" lon="6.08389">
        <ele>1686.4</ele>
        <time>2024-08-14T08:41:58Z</time>
      </trkpt>
      <trkpt lat="44.91153" lon="6.08389">
        <ele>1686.8</ele>
        <time>2024-08-14T08:41:59Z</time>
      </trkpt>
      <trkpt lat="44.91153" lon="6.08389">
        <ele>1686.8</ele>
        <time>2024-08-14T08:42:00Z</time>
      </trkpt>
      <trkpt lat="44.91153" lon="6.08389">
        <ele>1687</ele>
        <time>2024-08-14T08:42:01Z</time>
      </trkpt>
      <trkpt lat="44.91156" lon="6.0839">
        <ele>1687.4</ele>
        <time>2024-08-14T08:42:02Z</time>
      </trkpt>
      <trkpt lat="44.91156" lon="6.0839">
        <ele>1687.4</ele>
        <time>2024-08-14T08:42:03Z</time>
      </trkpt>
      <trkpt lat="44.91156" lon="6.0839">
        <ele>1687.8</ele>
        <time>2024-08-14T08:42:04Z</time>
      </trkpt>
      <trkpt lat="44.91158" lon="6.08391">
        <ele>1688.2</ele>
        <time>2024-08-14T08:42:05Z</time>
      </trkpt>
      <trkpt lat="44.91158" lon="6.08391">
        <ele>1688.4</ele>
        <time>2024-08-14T08:42:06Z</time>
      </trkpt>
      <trkpt lat="44.91158" lon="6.08391">
        <ele>1688.4</ele>
        <time>2024-08-14T08:42:07Z</time>
      </trkpt>
      <trkpt lat="44.9116" lon="6.08391">
        <ele>1688.4</ele>
        <time>2024-08-14T08:42:08Z</time>
      </trkpt>
      <trkpt lat="44.9116" lon="6.08391">
        <ele>1688.8</ele>
        <time>2024-08-14T08:42:09Z</time>
      </trkpt>
      <trkpt lat="44.9116" lon="6.08391">
        <ele>1689</ele>
        <time>2024-08-14T08:42:10Z</time>
      </trkpt>
      <trkpt lat="44.91162" lon="6.08392">
        <ele>1689</ele>
        <time>2024-08-14T08:42:11Z</time>
      </trkpt>
      <trkpt lat="44.91162" lon="6.08392">
        <ele>1689</ele>
        <time>2024-08-14T08:42:12Z</time>
      </trkpt>
      <trkpt lat="44.91162" lon="6.08392">
        <ele>1689.2</ele>
        <time>2024-08-14T08:42:13Z</time>
      </trkpt>
      <trkpt lat="44.91165" lon="6.08393">
        <ele>1689.4</ele>
        <time>2024-08-14T08:42:14Z</time>
      </trkpt>
      <trkpt lat="44.91165" lon="6.08393">
        <ele>1689.4</ele>
        <time>2024-08-14T08:42:15Z</time>
      </trkpt>
      <trkpt lat="44.91165" lon="6.08393">
        <ele>1689.6</ele>
        <time>2024-08-14T08:42:16Z</time>
      </trkpt>
      <trkpt lat="44.91167" lon="6.08394">
        <ele>1689.6</ele>
        <time>2024-08-14T08:42:17Z</time>
      </trkpt>
      <trkpt lat="44.91167" lon="6.08394">
        <ele>1689.8</ele>
        <time>2024-08-14T08:42:18Z</time>
      </trkpt>
      <trkpt lat="44.91167" lon="6.08394">
        <ele>1690.2</ele>
        <time>2024-08-14T08:42:19Z</time>
      </trkpt>
      <trkpt lat="44.91169" lon="6.08395">
        <ele>1690.2</ele>
        <time>2024-08-14T08:42:20Z</time>
      </trkpt>
      <trkpt lat="44.91169" lon="6.08395">
        <ele>1690.2</ele>
        <time>2024-08-14T08:42:21Z</time>
      </trkpt>
      <trkpt lat="44.91169" lon="6.08395">
        <ele>1690.4</ele>
        <time>2024-08-14T08:42:22Z</time>
      </trkpt>
      <trkpt lat="44.91171" lon="6.08395">
        <ele>1690.4</ele>
        <time>2024-08-14T08:42:23Z</time>
      </trkpt>
      <trkpt lat="44.91171" lon="6.08395">
        <ele>1690.8</ele>
        <time>2024-08-14T08:42:24Z</time>
      </trkpt>
      <trkpt lat="44.91171" lon="6.08395">
        <ele>1690.8</ele>
        <time>2024-08-14T08:42:25Z</time>
      </trkpt>
      <trkpt lat="44.91173" lon="6.08396">
        <ele>1691</ele>
        <time>2024-08-14T08:42:26Z</time>
      </trkpt>
      <trkpt lat="44.91173" lon="6.08396">
        <ele>1691.4</ele>
        <time>2024-08-14T08:42:27Z</time>
      </trkpt>
      <trkpt lat="44.91173" lon="6.08396">
        <ele>1691.6</ele>
        <time>2024-08-14T08:42:28Z</time>
      </trkpt>
      <trkpt lat="44.91175" lon="6.08396">
        <ele>1691.6</ele>
        <time>2024-08-14T08:42:29Z</time>
      </trkpt>
      <trkpt lat="44.91175" lon="6.08396">
        <ele>1692</ele>
        <time>2024-08-14T08:42:30Z</time>
      </trkpt>
      <trkpt lat="44.91175" lon="6.08396">
        <ele>1692</ele>
        <time>2024-08-14T08:42:31Z</time>
      </trkpt>
      <trkpt lat="44.91177" lon="6.08396">
        <ele>1692.6</ele>
        <time>2024-08-14T08:42:32Z</time>
      </trkpt>
      <trkpt lat="44.91177" lon="6.08396">
        <ele>1692.8</ele>
        <time>2024-08-14T08:42:33Z</time>
      </trkpt>
      <trkpt lat="44.91177" lon="6.08396">
        <ele>1693.2</ele>
        <time>2024-08-14T08:42:34Z</time>
      </trkpt>
      <trkpt lat="44.91179" lon="6.08397">
        <ele>1693.2</ele>
        <time>2024-08-14T08:42:35Z</time>
      </trkpt>
      <trkpt lat="44.91179" lon="6.08397">
        <ele>1693.2</ele>
        <time>2024-08-14T08:42:36Z</time>
      </trkpt>
      <trkpt lat="44.91179" lon="6.08397">
        <ele>1693.2</ele>
        <time>2024-08-14T08:42:37Z</time>
      </trkpt>
      <trkpt lat="44.91181" lon="6.08397">
        <ele>1693.6</ele>
        <time>2024-08-14T08:42:38Z</time>
      </trkpt>
      <trkpt lat="44.91181" lon="6.08397">
        <ele>1693.6</ele>
        <time>2024-08-14T08:42:39Z</time>
      </trkpt>
      <trkpt lat="44.91181" lon="6.08397">
        <ele>1694</ele>
        <time>2024-08-14T08:42:40Z</time>
      </trkpt>
      <trkpt lat="44.91181" lon="6.08397">
        <ele>1694.2</ele>
        <time>2024-08-14T08:42:41Z</time>
      </trkpt>
      <trkpt lat="44.91183" lon="6.08398">
        <ele>1694.4</ele>
        <time>2024-08-14T08:42:42Z</time>
      </trkpt>
      <trkpt lat="44.91183" lon="6.08398">
        <ele>1694.4</ele>
        <time>2024-08-14T08:42:43Z</time>
      </trkpt>
      <trkpt lat="44.91183" lon="6.08398">
        <ele>1694.6</ele>
        <time>2024-08-14T08:42:44Z</time>
      </trkpt>
      <trkpt lat="44.91183" lon="6.08398">
        <ele>1694.8</ele>
        <time>2024-08-14T08:42:45Z</time>
      </trkpt>
      <trkpt lat="44.91185" lon="6.084">
        <ele>1695</ele>
        <time>2024-08-14T08:42:46Z</time>
      </trkpt>
      <trkpt lat="44.91185" lon="6.084">
        <ele>1695.2</ele>
        <time>2024-08-14T08:42:47Z</time>
      </trkpt>
      <trkpt lat="44.91185" lon="6.084">
        <ele>1695.2</ele>
        <time>2024-08-14T08:42:48Z</time>
      </trkpt>
      <trkpt lat="44.91187" lon="6.084">
        <ele>1695.4</ele>
        <time>2024-08-14T08:42:49Z</time>
      </trkpt>
      <trkpt lat="44.91187" lon="6.084">
        <ele>1695.4</ele>
        <time>2024-08-14T08:42:50Z</time>
      </trkpt>
      <trkpt lat="44.91187" lon="6.084">
        <ele>1695.6</ele>
        <time>2024-08-14T08:42:51Z</time>
      </trkpt>
      <trkpt lat="44.91187" lon="6.084">
        <ele>1695.8</ele>
        <time>2024-08-14T08:42:52Z</time>
      </trkpt>
      <trkpt lat="44.91187" lon="6.084">
        <ele>1696</ele>
        <time>2024-08-14T08:42:53Z</time>
      </trkpt>
      <trkpt lat="44.9119" lon="6.08399">
        <ele>1696</ele>
        <time>2024-08-14T08:42:54Z</time>
      </trkpt>
      <trkpt lat="44.9119" lon="6.08399">
        <ele>1696.2</ele>
        <time>2024-08-14T08:42:55Z</time>
      </trkpt>
      <trkpt lat="44.9119" lon="6.08399">
        <ele>1696.6</ele>
        <time>2024-08-14T08:42:56Z</time>
      </trkpt>
      <trkpt lat="44.91192" lon="6.084">
        <ele>1697</ele>
        <time>2024-08-14T08:42:57Z</time>
      </trkpt>
      <trkpt lat="44.91192" lon="6.084">
        <ele>1697.2</ele>
        <time>2024-08-14T08:42:58Z</time>
      </trkpt>
      <trkpt lat="44.91194" lon="6.084">
        <ele>1697.2</ele>
        <time>2024-08-14T08:42:59Z</time>
      </trkpt>
      <trkpt lat="44.91194" lon="6.084">
        <ele>1697.4</ele>
        <time>2024-08-14T08:43:00Z</time>
      </trkpt>
      <trkpt lat="44.91194" lon="6.084">
        <ele>1697.6</ele>
        <time>2024-08-14T08:43:01Z</time>
      </trkpt>
      <trkpt lat="44.91196" lon="6.084">
        <ele>1697.8</ele>
        <time>2024-08-14T08:43:02Z</time>
      </trkpt>
      <trkpt lat="44.91196" lon="6.084">
        <ele>1697.8</ele>
        <time>2024-08-14T08:43:03Z</time>
      </trkpt>
      <trkpt lat="44.91196" lon="6.084">
        <ele>1698</ele>
        <time>2024-08-14T08:43:04Z</time>
      </trkpt>
      <trkpt lat="44.91199" lon="6.08401">
        <ele>1698.4</ele>
        <time>2024-08-14T08:43:05Z</time>
      </trkpt>
      <trkpt lat="44.91199" lon="6.08401">
        <ele>1698.4</ele>
        <time>2024-08-14T08:43:06Z</time>
      </trkpt>
      <trkpt lat="44.91199" lon="6.08401">
        <ele>1698.6</ele>
        <time>2024-08-14T08:43:07Z</time>
      </trkpt>
      <trkpt lat="44.91201" lon="6.08402">
        <ele>1698.8</ele>
        <time>2024-08-14T08:43:08Z</time>
      </trkpt>
      <trkpt lat="44.91201" lon="6.08402">
        <ele>1699</ele>
        <time>2024-08-14T08:43:09Z</time>
      </trkpt>
      <trkpt lat="44.91201" lon="6.08402">
        <ele>1699.4</ele>
        <time>2024-08-14T08:43:10Z</time>
      </trkpt>
      <trkpt lat="44.91202" lon="6.08404">
        <ele>1699.4</ele>
        <time>2024-08-14T08:43:11Z</time>
      </trkpt>
      <trkpt lat="44.91202" lon="6.08404">
        <ele>1699.6</ele>
        <time>2024-08-14T08:43:12Z</time>
      </trkpt>
      <trkpt lat="44.91202" lon="6.08404">
        <ele>1699.6</ele>
        <time>2024-08-14T08:43:13Z</time>
      </trkpt>
      <trkpt lat="44.91204" lon="6.08404">
        <ele>1699.8</ele>
        <time>2024-08-14T08:43:14Z</time>
      </trkpt>
      <trkpt lat="44.91204" lon="6.08404">
        <ele>1700</ele>
        <time>2024-08-14T08:43:15Z</time>
      </trkpt>
      <trkpt lat="44.91204" lon="6.08404">
        <ele>1700.4</ele>
        <time>2024-08-14T08:43:16Z</time>
      </trkpt>
      <trkpt lat="44.91206" lon="6.08404">
        <ele>1700.4</ele>
        <time>2024-08-14T08:43:17Z</time>
      </trkpt>
      <trkpt lat="44.91206" lon="6.08404">
        <ele>1700.8</ele>
        <time>2024-08-14T08:43:18Z</time>
      </trkpt>
      <trkpt lat="44.91206" lon="6.08404">
        <ele>1700.8</ele>
        <time>2024-08-14T08:43:19Z</time>
      </trkpt>
      <trkpt lat="44.91206" lon="6.08404">
        <ele>1700.8</ele>
        <time>2024-08-14T08:43:20Z</time>
      </trkpt>
      <trkpt lat="44.91208" lon="6.08405">
        <ele>1701.4</ele>
        <time>2024-08-14T08:43:21Z</time>
      </trkpt>
      <trkpt lat="44.91208" lon="6.08405">
        <ele>1701.6</ele>
        <time>2024-08-14T08:43:22Z</time>
      </trkpt>
      <trkpt lat="44.91208" lon="6.08405">
        <ele>1701.8</ele>
        <time>2024-08-14T08:43:23Z</time>
      </trkpt>
      <trkpt lat="44.9121" lon="6.08405">
        <ele>1702</ele>
        <time>2024-08-14T08:43:24Z</time>
      </trkpt>
      <trkpt lat="44.9121" lon="6.08405">
        <ele>1702.2</ele>
        <time>2024-08-14T08:43:25Z</time>
      </trkpt>
      <trkpt lat="44.9121" lon="6.08405">
        <ele>1702.6</ele>
        <time>2024-08-14T08:43:26Z</time>
      </trkpt>
      <trkpt lat="44.9121" lon="6.08405">
        <ele>1702.6</ele>
        <time>2024-08-14T08:43:27Z</time>
      </trkpt>
      <trkpt lat="44.91212" lon="6.08406">
        <ele>1702.8</ele>
        <time>2024-08-14T08:43:28Z</time>
      </trkpt>
      <trkpt lat="44.91212" lon="6.08406">
        <ele>1703</ele>
        <time>2024-08-14T08:43:29Z</time>
      </trkpt>
      <trkpt lat="44.91212" lon="6.08406">
        <ele>1703.2</ele>
        <time>2024-08-14T08:43:30Z</time>
      </trkpt>
      <trkpt lat="44.91214" lon="6.08406">
        <ele>1703.4</ele>
        <time>2024-08-14T08:43:31Z</time>
      </trkpt>
      <trkpt lat="44.91214" lon="6.08406">
        <ele>1703.4</ele>
        <time>2024-08-14T08:43:32Z</time>
      </trkpt>
      <trkpt lat="44.91214" lon="6.08406">
        <ele>1703.6</ele>
        <time>2024-08-14T08:43:33Z</time>
      </trkpt>
      <trkpt lat="44.91216" lon="6.08406">
        <ele>1703.6</ele>
        <time>2024-08-14T08:43:34Z</time>
      </trkpt>
      <trkpt lat="44.91216" lon="6.08406">
        <ele>1703.8</ele>
        <time>2024-08-14T08:43:35Z</time>
      </trkpt>
      <trkpt lat="44.91216" lon="6.08406">
        <ele>1703.8</ele>
        <time>2024-08-14T08:43:36Z</time>
      </trkpt>
      <trkpt lat="44.91218" lon="6.08407">
        <ele>1704</ele>
        <time>2024-08-14T08:43:37Z</time>
      </trkpt>
      <trkpt lat="44.91218" lon="6.08407">
        <ele>1704.4</ele>
        <time>2024-08-14T08:43:38Z</time>
      </trkpt>
      <trkpt lat="44.91218" lon="6.08407">
        <ele>1704.6</ele>
        <time>2024-08-14T08:43:39Z</time>
      </trkpt>
      <trkpt lat="44.9122" lon="6.08408">
        <ele>1704.8</ele>
        <time>2024-08-14T08:43:40Z</time>
      </trkpt>
      <trkpt lat="44.9122" lon="6.08408">
        <ele>1704.8</ele>
        <time>2024-08-14T08:43:41Z</time>
      </trkpt>
      <trkpt lat="44.9122" lon="6.08408">
        <ele>1704.8</ele>
        <time>2024-08-14T08:43:42Z</time>
      </trkpt>
      <trkpt lat="44.9122" lon="6.08408">
        <ele>1704.8</ele>
        <time>2024-08-14T08:43:43Z</time>
      </trkpt>
      <trkpt lat="44.91222" lon="6.08409">
        <ele>1705.4</ele>
        <time>2024-08-14T08:43:44Z</time>
      </trkpt>
      <trkpt lat="44.91222" lon="6.08409">
        <ele>1705.8</ele>
        <time>2024-08-14T08:43:45Z</time>
      </trkpt>
      <trkpt lat="44.91222" lon="6.08409">
        <ele>1705.8</ele>
        <time>2024-08-14T08:43:46Z</time>
      </trkpt>
      <trkpt lat="44.91222" lon="6.08409">
        <ele>1706</ele>
        <time>2024-08-14T08:43:47Z</time>
      </trkpt>
      <trkpt lat="44.91224" lon="6.0841">
        <ele>1706.2</ele>
        <time>2024-08-14T08:43:48Z</time>
      </trkpt>
      <trkpt lat="44.91224" lon="6.0841">
        <ele>1706.2</ele>
        <time>2024-08-14T08:43:49Z</time>
      </trkpt>
      <trkpt lat="44.91224" lon="6.0841">
        <ele>1706.4</ele>
        <time>2024-08-14T08:43:50Z</time>
      </trkpt>
      <trkpt lat="44.91226" lon="6.08411">
        <ele>1706.4</ele>
        <time>2024-08-14T08:43:51Z</time>
      </trkpt>
      <trkpt lat="44.91226" lon="6.08411">
        <ele>1706.6</ele>
        <time>2024-08-14T08:43:52Z</time>
      </trkpt>
      <trkpt lat="44.91226" lon="6.08411">
        <ele>1707</ele>
        <time>2024-08-14T08:43:53Z</time>
      </trkpt>
      <trkpt lat="44.91228" lon="6.08412">
        <ele>1707.2</ele>
        <time>2024-08-14T08:43:54Z</time>
      </trkpt>
      <trkpt lat="44.91228" lon="6.08412">
        <ele>1707.2</ele>
        <time>2024-08-14T08:43:55Z</time>
      </trkpt>
      <trkpt lat="44.91228" lon="6.08412">
        <ele>1707.6</ele>
        <time>2024-08-14T08:43:56Z</time>
      </trkpt>
      <trkpt lat="44.9123" lon="6.08413">
        <ele>1707.6</ele>
        <time>2024-08-14T08:43:57Z</time>
      </trkpt>
      <trkpt lat="44.9123" lon="6.08413">
        <ele>1707.6</ele>
        <time>2024-08-14T08:43:58Z</time>
      </trkpt>
      <trkpt lat="44.9123" lon="6.08413">
        <ele>1707.8</ele>
        <time>2024-08-14T08:43:59Z</time>
      </trkpt>
      <trkpt lat="44.9123" lon="6.08413">
        <ele>1707.8</ele>
        <time>2024-08-14T08:44:00Z</time>
      </trkpt>
      <trkpt lat="44.91232" lon="6.08415">
        <ele>1708</ele>
        <time>2024-08-14T08:44:01Z</time>
      </trkpt>
      <trkpt lat="44.91232" lon="6.08415">
        <ele>1708.2</ele>
        <time>2024-08-14T08:44:02Z</time>
      </trkpt>
      <trkpt lat="44.91232" lon="6.08415">
        <ele>1708.2</ele>
        <time>2024-08-14T08:44:03Z</time>
      </trkpt>
      <trkpt lat="44.91234" lon="6.08416">
        <ele>1708.4</ele>
        <time>2024-08-14T08:44:04Z</time>
      </trkpt>
      <trkpt lat="44.91234" lon="6.08416">
        <ele>1708.8</ele>
        <time>2024-08-14T08:44:05Z</time>
      </trkpt>
      <trkpt lat="44.91234" lon="6.08416">
        <ele>1709</ele>
        <time>2024-08-14T08:44:06Z</time>
      </trkpt>
      <trkpt lat="44.91235" lon="6.08418">
        <ele>1709</ele>
        <time>2024-08-14T08:44:07Z</time>
      </trkpt>
      <trkpt lat="44.91235" lon="6.08418">
        <ele>1709</ele>
        <time>2024-08-14T08:44:08Z</time>
      </trkpt>
      <trkpt lat="44.91235" lon="6.08418">
        <ele>1709.6</ele>
        <time>2024-08-14T08:44:09Z</time>
      </trkpt>
      <trkpt lat="44.91237" lon="6.08419">
        <ele>1709.8</ele>
        <time>2024-08-14T08:44:10Z</time>
      </trkpt>
      <trkpt lat="44.91237" lon="6.08419">
        <ele>1710</ele>
        <time>2024-08-14T08:44:11Z</time>
      </trkpt>
      <trkpt lat="44.91239" lon="6.08419">
        <ele>1710</ele>
        <time>2024-08-14T08:44:12Z</time>
      </trkpt>
      <trkpt lat="44.91239" lon="6.08419">
        <ele>1710.2</ele>
        <time>2024-08-14T08:44:13Z</time>
      </trkpt>
      <trkpt lat="44.91239" lon="6.08419">
        <ele>1710.2</ele>
        <time>2024-08-14T08:44:14Z</time>
      </trkpt>
      <trkpt lat="44.91239" lon="6.08419">
        <ele>1710.6</ele>
        <time>2024-08-14T08:44:15Z</time>
      </trkpt>
      <trkpt lat="44.91241" lon="6.08421">
        <ele>1710.8</ele>
        <time>2024-08-14T08:44:16Z</time>
      </trkpt>
      <trkpt lat="44.91241" lon="6.08421">
        <ele>1711.2</ele>
        <time>2024-08-14T08:44:17Z</time>
      </trkpt>
      <trkpt lat="44.91241" lon="6.08421">
        <ele>1711.2</ele>
        <time>2024-08-14T08:44:18Z</time>
      </trkpt>
      <trkpt lat="44.91244" lon="6.08422">
        <ele>1711.4</ele>
        <time>2024-08-14T08:44:19Z</time>
      </trkpt>
      <trkpt lat="44.91244" lon="6.08422">
        <ele>1711.8</ele>
        <time>2024-08-14T08:44:20Z</time>
      </trkpt>
      <trkpt lat="44.91244" lon="6.08422">
        <ele>1711.8</ele>
        <time>2024-08-14T08:44:21Z</time>
      </trkpt>
      <trkpt lat="44.91244" lon="6.08422">
        <ele>1712.2</ele>
        <time>2024-08-14T08:44:22Z</time>
      </trkpt>
      <trkpt lat="44.91246" lon="6.08422">
        <ele>1712.2</ele>
        <time>2024-08-14T08:44:23Z</time>
      </trkpt>
      <trkpt lat="44.91246" lon="6.08422">
        <ele>1712.4</ele>
        <time>2024-08-14T08:44:24Z</time>
      </trkpt>
      <trkpt lat="44.91246" lon="6.08422">
        <ele>1712.6</ele>
        <time>2024-08-14T08:44:25Z</time>
      </trkpt>
      <trkpt lat="44.91246" lon="6.08422">
        <ele>1712.6</ele>
        <time>2024-08-14T08:44:26Z</time>
      </trkpt>
      <trkpt lat="44.91248" lon="6.08421">
        <ele>1713</ele>
        <time>2024-08-14T08:44:27Z</time>
      </trkpt>
      <trkpt lat="44.91248" lon="6.08421">
        <ele>1713.4</ele>
        <time>2024-08-14T08:44:28Z</time>
      </trkpt>
      <trkpt lat="44.91248" lon="6.08421">
        <ele>1713.6</ele>
        <time>2024-08-14T08:44:29Z</time>
      </trkpt>
      <trkpt lat="44.9125" lon="6.08422">
        <ele>1713.6</ele>
        <time>2024-08-14T08:44:30Z</time>
      </trkpt>
      <trkpt lat="44.9125" lon="6.08422">
        <ele>1714.2</ele>
        <time>2024-08-14T08:44:31Z</time>
      </trkpt>
      <trkpt lat="44.9125" lon="6.08422">
        <ele>1714.8</ele>
        <time>2024-08-14T08:44:32Z</time>
      </trkpt>
      <trkpt lat="44.91252" lon="6.08423">
        <ele>1714.8</ele>
        <time>2024-08-14T08:44:33Z</time>
      </trkpt>
      <trkpt lat="44.91252" lon="6.08423">
        <ele>1714.8</ele>
        <time>2024-08-14T08:44:34Z</time>
      </trkpt>
      <trkpt lat="44.91252" lon="6.08423">
        <ele>1714.8</ele>
        <time>2024-08-14T08:44:35Z</time>
      </trkpt>
      <trkpt lat="44.91254" lon="6.08424">
        <ele>1715.2</ele>
        <time>2024-08-14T08:44:36Z</time>
      </trkpt>
      <trkpt lat="44.91254" lon="6.08424">
        <ele>1715.4</ele>
        <time>2024-08-14T08:44:37Z</time>
      </trkpt>
      <trkpt lat="44.91256" lon="6.08426">
        <ele>1715.4</ele>
        <time>2024-08-14T08:44:38Z</time>
      </trkpt>
      <trkpt lat="44.91256" lon="6.08426">
        <ele>1715.4</ele>
        <time>2024-08-14T08:44:39Z</time>
      </trkpt>
      <trkpt lat="44.91258" lon="6.08428">
        <ele>1715.4</ele>
        <time>2024-08-14T08:44:40Z</time>
      </trkpt>
      <trkpt lat="44.91258" lon="6.08428">
        <ele>1715.6</ele>
        <time>2024-08-14T08:44:41Z</time>
      </trkpt>
      <trkpt lat="44.91258" lon="6.08428">
        <ele>1715.6</ele>
        <time>2024-08-14T08:44:42Z</time>
      </trkpt>
      <trkpt lat="44.9126" lon="6.08429">
        <ele>1715.6</ele>
        <time>2024-08-14T08:44:43Z</time>
      </trkpt>
      <trkpt lat="44.9126" lon="6.08429">
        <ele>1715.8</ele>
        <time>2024-08-14T08:44:44Z</time>
      </trkpt>
      <trkpt lat="44.9126" lon="6.08429">
        <ele>1716</ele>
        <time>2024-08-14T08:44:45Z</time>
      </trkpt>
      <trkpt lat="44.91262" lon="6.08429">
        <ele>1716.4</ele>
        <time>2024-08-14T08:44:46Z</time>
      </trkpt>
      <trkpt lat="44.91262" lon="6.08429">
        <ele>1716.6</ele>
        <time>2024-08-14T08:44:47Z</time>
      </trkpt>
      <trkpt lat="44.91262" lon="6.08429">
        <ele>1717</ele>
        <time>2024-08-14T08:44:48Z</time>
      </trkpt>
      <trkpt lat="44.91264" lon="6.08428">
        <ele>1717.2</ele>
        <time>2024-08-14T08:44:49Z</time>
      </trkpt>
      <trkpt lat="44.91264" lon="6.08428">
        <ele>1717.4</ele>
        <time>2024-08-14T08:44:50Z</time>
      </trkpt>
      <trkpt lat="44.91264" lon="6.08428">
        <ele>1717.8</ele>
        <time>2024-08-14T08:44:51Z</time>
      </trkpt>
      <trkpt lat="44.91266" lon="6.08427">
        <ele>1718</ele>
        <time>2024-08-14T08:44:52Z</time>
      </trkpt>
      <trkpt lat="44.91266" lon="6.08427">
        <ele>1718.4</ele>
        <time>2024-08-14T08:44:53Z</time>
      </trkpt>
      <trkpt lat="44.91266" lon="6.08427">
        <ele>1718.4</ele>
        <time>2024-08-14T08:44:54Z</time>
      </trkpt>
      <trkpt lat="44.91268" lon="6.08427">
        <ele>1718.4</ele>
        <time>2024-08-14T08:44:55Z</time>
      </trkpt>
      <trkpt lat="44.91268" lon="6.08427">
        <ele>1718.8</ele>
        <time>2024-08-14T08:44:56Z</time>
      </trkpt>
      <trkpt lat="44.91268" lon="6.08427">
        <ele>1718.8</ele>
        <time>2024-08-14T08:44:57Z</time>
      </trkpt>
      <trkpt lat="44.9127" lon="6.08428">
        <ele>1718.8</ele>
        <time>2024-08-14T08:44:58Z</time>
      </trkpt>
      <trkpt lat="44.9127" lon="6.08428">
        <ele>1718.8</ele>
        <time>2024-08-14T08:44:59Z</time>
      </trkpt>
      <trkpt lat="44.91272" lon="6.08428">
        <ele>1718.8</ele>
        <time>2024-08-14T08:45:00Z</time>
      </trkpt>
      <trkpt lat="44.91272" lon="6.08428">
        <ele>1718.8</ele>
        <time>2024-08-14T08:45:01Z</time>
      </trkpt>
      <trkpt lat="44.91274" lon="6.08429">
        <ele>1719.4</ele>
        <time>2024-08-14T08:45:02Z</time>
      </trkpt>
      <trkpt lat="44.91274" lon="6.08429">
        <ele>1719.4</ele>
        <time>2024-08-14T08:45:03Z</time>
      </trkpt>
      <trkpt lat="44.91274" lon="6.08429">
        <ele>1719.4</ele>
        <time>2024-08-14T08:45:04Z</time>
      </trkpt>
      <trkpt lat="44.91276" lon="6.0843">
        <ele>1719.6</ele>
        <time>2024-08-14T08:45:05Z</time>
      </trkpt>
      <trkpt lat="44.91276" lon="6.0843">
        <ele>1719.6</ele>
        <time>2024-08-14T08:45:06Z</time>
      </trkpt>
      <trkpt lat="44.91276" lon="6.0843">
        <ele>1720</ele>
        <time>2024-08-14T08:45:07Z</time>
      </trkpt>
      <trkpt lat="44.91278" lon="6.0843">
        <ele>1720</ele>
        <time>2024-08-14T08:45:08Z</time>
      </trkpt>
      <trkpt lat="44.91278" lon="6.0843">
        <ele>1720.2</ele>
        <time>2024-08-14T08:45:09Z</time>
      </trkpt>
      <trkpt lat="44.91278" lon="6.0843">
        <ele>1720.4</ele>
        <time>2024-08-14T08:45:10Z</time>
      </trkpt>
      <trkpt lat="44.91281" lon="6.0843">
        <ele>1720.4</ele>
        <time>2024-08-14T08:45:11Z</time>
      </trkpt>
      <trkpt lat="44.91281" lon="6.0843">
        <ele>1720.8</ele>
        <time>2024-08-14T08:45:12Z</time>
      </trkpt>
      <trkpt lat="44.91281" lon="6.0843">
        <ele>1721.2</ele>
        <time>2024-08-14T08:45:13Z</time>
      </trkpt>
      <trkpt lat="44.91283" lon="6.08431">
        <ele>1721.4</ele>
        <time>2024-08-14T08:45:14Z</time>
      </trkpt>
      <trkpt lat="44.91283" lon="6.08431">
        <ele>1721.4</ele>
        <time>2024-08-14T08:45:15Z</time>
      </trkpt>
      <trkpt lat="44.91285" lon="6.08432">
        <ele>1721.4</ele>
        <time>2024-08-14T08:45:16Z</time>
      </trkpt>
      <trkpt lat="44.91285" lon="6.08432">
        <ele>1721.6</ele>
        <time>2024-08-14T08:45:17Z</time>
      </trkpt>
      <trkpt lat="44.91285" lon="6.08432">
        <ele>1721.8</ele>
        <time>2024-08-14T08:45:18Z</time>
      </trkpt>
      <trkpt lat="44.91287" lon="6.08432">
        <ele>1722.2</ele>
        <time>2024-08-14T08:45:19Z</time>
      </trkpt>
      <trkpt lat="44.91287" lon="6.08432">
        <ele>1722.4</ele>
        <time>2024-08-14T08:45:20Z</time>
      </trkpt>
      <trkpt lat="44.91289" lon="6.08433">
        <ele>1722.6</ele>
        <time>2024-08-14T08:45:21Z</time>
      </trkpt>
      <trkpt lat="44.91289" lon="6.08433">
        <ele>1722.8</ele>
        <time>2024-08-14T08:45:22Z</time>
      </trkpt>
      <trkpt lat="44.91289" lon="6.08433">
        <ele>1723</ele>
        <time>2024-08-14T08:45:23Z</time>
      </trkpt>
      <trkpt lat="44.91291" lon="6.08434">
        <ele>1723</ele>
        <time>2024-08-14T08:45:24Z</time>
      </trkpt>
      <trkpt lat="44.91291" lon="6.08434">
        <ele>1723.2</ele>
        <time>2024-08-14T08:45:25Z</time>
      </trkpt>
      <trkpt lat="44.91291" lon="6.08434">
        <ele>1723.2</ele>
        <time>2024-08-14T08:45:26Z</time>
      </trkpt>
      <trkpt lat="44.91293" lon="6.08433">
        <ele>1723.6</ele>
        <time>2024-08-14T08:45:27Z</time>
      </trkpt>
      <trkpt lat="44.91293" lon="6.08433">
        <ele>1723.6</ele>
        <time>2024-08-14T08:45:28Z</time>
      </trkpt>
      <trkpt lat="44.91293" lon="6.08433">
        <ele>1724</ele>
        <time>2024-08-14T08:45:29Z</time>
      </trkpt>
      <trkpt lat="44.91293" lon="6.08433">
        <ele>1724</ele>
        <time>2024-08-14T08:45:30Z</time>
      </trkpt>
      <trkpt lat="44.91296" lon="6.08432">
        <ele>1724.2</ele>
        <time>2024-08-14T08:45:31Z</time>
      </trkpt>
      <trkpt lat="44.91296" lon="6.08432">
        <ele>1724.4</ele>
        <time>2024-08-14T08:45:32Z</time>
      </trkpt>
      <trkpt lat="44.91296" lon="6.08432">
        <ele>1724.6</ele>
        <time>2024-08-14T08:45:33Z</time>
      </trkpt>
      <trkpt lat="44.91298" lon="6.08432">
        <ele>1724.6</ele>
        <time>2024-08-14T08:45:34Z</time>
      </trkpt>
      <trkpt lat="44.91298" lon="6.08432">
        <ele>1724.8</ele>
        <time>2024-08-14T08:45:35Z</time>
      </trkpt>
      <trkpt lat="44.91298" lon="6.08432">
        <ele>1725.2</ele>
        <time>2024-08-14T08:45:36Z</time>
      </trkpt>
      <trkpt lat="44.913" lon="6.08432">
        <ele>1725.4</ele>
        <time>2024-08-14T08:45:37Z</time>
      </trkpt>
      <trkpt lat="44.913" lon="6.08432">
        <ele>1725.8</ele>
        <time>2024-08-14T08:45:38Z</time>
      </trkpt>
      <trkpt lat="44.913" lon="6.08432">
        <ele>1725.8</ele>
        <time>2024-08-14T08:45:39Z</time>
      </trkpt>
      <trkpt lat="44.91301" lon="6.08432">
        <ele>1725.8</ele>
        <time>2024-08-14T08:45:40Z</time>
      </trkpt>
      <trkpt lat="44.91301" lon="6.08432">
        <ele>1725.8</ele>
        <time>2024-08-14T08:45:41Z</time>
      </trkpt>
      <trkpt lat="44.91301" lon="6.08432">
        <ele>1726.2</ele>
        <time>2024-08-14T08:45:42Z</time>
      </trkpt>
      <trkpt lat="44.91304" lon="6.08432">
        <ele>1726.6</ele>
        <time>2024-08-14T08:45:43Z</time>
      </trkpt>
      <trkpt lat="44.91304" lon="6.08432">
        <ele>1726.8</ele>
        <time>2024-08-14T08:45:44Z</time>
      </trkpt>
      <trkpt lat="44.91304" lon="6.08432">
        <ele>1726.8</ele>
        <time>2024-08-14T08:45:45Z</time>
      </trkpt>
      <trkpt lat="44.91306" lon="6.08432">
        <ele>1727</ele>
        <time>2024-08-14T08:45:46Z</time>
      </trkpt>
      <trkpt lat="44.91306" lon="6.08432">
        <ele>1727.2</ele>
        <time>2024-08-14T08:45:47Z</time>
      </trkpt>
      <trkpt lat="44.91306" lon="6.08432">
        <ele>1727.2</ele>
        <time>2024-08-14T08:45:48Z</time>
      </trkpt>
      <trkpt lat="44.91308" lon="6.08432">
        <ele>1727.4</ele>
        <time>2024-08-14T08:45:49Z</time>
      </trkpt>
      <trkpt lat="44.91308" lon="6.08432">
        <ele>1727.6</ele>
        <time>2024-08-14T08:45:50Z</time>
      </trkpt>
      <trkpt lat="44.9131" lon="6.08432">
        <ele>1727.8</ele>
        <time>2024-08-14T08:45:51Z</time>
      </trkpt>
      <trkpt lat="44.9131" lon="6.08432">
        <ele>1728</ele>
        <time>2024-08-14T08:45:52Z</time>
      </trkpt>
      <trkpt lat="44.9131" lon="6.08432">
        <ele>1728</ele>
        <time>2024-08-14T08:45:53Z</time>
      </trkpt>
      <trkpt lat="44.91312" lon="6.08432">
        <ele>1728.2</ele>
        <time>2024-08-14T08:45:54Z</time>
      </trkpt>
      <trkpt lat="44.91312" lon="6.08432">
        <ele>1728.4</ele>
        <time>2024-08-14T08:45:55Z</time>
      </trkpt>
      <trkpt lat="44.91312" lon="6.08432">
        <ele>1728.4</ele>
        <time>2024-08-14T08:45:56Z</time>
      </trkpt>
      <trkpt lat="44.91315" lon="6.08432">
        <ele>1728.4</ele>
        <time>2024-08-14T08:45:57Z</time>
      </trkpt>
      <trkpt lat="44.91315" lon="6.08432">
        <ele>1728.8</ele>
        <time>2024-08-14T08:45:58Z</time>
      </trkpt>
      <trkpt lat="44.91315" lon="6.08432">
        <ele>1728.8</ele>
        <time>2024-08-14T08:45:59Z</time>
      </trkpt>
      <trkpt lat="44.91317" lon="6.08433">
        <ele>1729</ele>
        <time>2024-08-14T08:46:00Z</time>
      </trkpt>
      <trkpt lat="44.91317" lon="6.08433">
        <ele>1729</ele>
        <time>2024-08-14T08:46:01Z</time>
      </trkpt>
      <trkpt lat="44.91317" lon="6.08433">
        <ele>1729.2</ele>
        <time>2024-08-14T08:46:02Z</time>
      </trkpt>
      <trkpt lat="44.91319" lon="6.08434">
        <ele>1729.2</ele>
        <time>2024-08-14T08:46:03Z</time>
      </trkpt>
      <trkpt lat="44.91319" lon="6.08434">
        <ele>1729.8</ele>
        <time>2024-08-14T08:46:04Z</time>
      </trkpt>
      <trkpt lat="44.91319" lon="6.08434">
        <ele>1729.8</ele>
        <time>2024-08-14T08:46:05Z</time>
      </trkpt>
      <trkpt lat="44.91321" lon="6.08435">
        <ele>1730</ele>
        <time>2024-08-14T08:46:06Z</time>
      </trkpt>
      <trkpt lat="44.91321" lon="6.08435">
        <ele>1730</ele>
        <time>2024-08-14T08:46:07Z</time>
      </trkpt>
      <trkpt lat="44.91321" lon="6.08435">
        <ele>1730.4</ele>
        <time>2024-08-14T08:46:08Z</time>
      </trkpt>
      <trkpt lat="44.91324" lon="6.08436">
        <ele>1730.4</ele>
        <time>2024-08-14T08:46:09Z</time>
      </trkpt>
      <trkpt lat="44.91324" lon="6.08436">
        <ele>1730.4</ele>
        <time>2024-08-14T08:46:10Z</time>
      </trkpt>
      <trkpt lat="44.91324" lon="6.08436">
        <ele>1730.6</ele>
        <time>2024-08-14T08:46:11Z</time>
      </trkpt>
      <trkpt lat="44.91326" lon="6.08436">
        <ele>1730.6</ele>
        <time>2024-08-14T08:46:12Z</time>
      </trkpt>
      <trkpt lat="44.91326" lon="6.08436">
        <ele>1730.8</ele>
        <time>2024-08-14T08:46:13Z</time>
      </trkpt>
      <trkpt lat="44.91326" lon="6.08436">
        <ele>1731.2</ele>
        <time>2024-08-14T08:46:14Z</time>
      </trkpt>
      <trkpt lat="44.91328" lon="6.08437">
        <ele>1731.6</ele>
        <time>2024-08-14T08:46:15Z</time>
      </trkpt>
      <trkpt lat="44.91328" lon="6.08437">
        <ele>1731.6</ele>
        <time>2024-08-14T08:46:16Z</time>
      </trkpt>
      <trkpt lat="44.91328" lon="6.08437">
        <ele>1731.6</ele>
        <time>2024-08-14T08:46:17Z</time>
      </trkpt>
      <trkpt lat="44.9133" lon="6.08438">
        <ele>1731.6</ele>
        <time>2024-08-14T08:46:18Z</time>
      </trkpt>
      <trkpt lat="44.9133" lon="6.08438">
        <ele>1731.8</ele>
        <time>2024-08-14T08:46:19Z</time>
      </trkpt>
      <trkpt lat="44.9133" lon="6.08438">
        <ele>1731.8</ele>
        <time>2024-08-14T08:46:20Z</time>
      </trkpt>
      <trkpt lat="44.91332" lon="6.08438">
        <ele>1732</ele>
        <time>2024-08-14T08:46:21Z</time>
      </trkpt>
      <trkpt lat="44.91332" lon="6.08438">
        <ele>1732.2</ele>
        <time>2024-08-14T08:46:22Z</time>
      </trkpt>
      <trkpt lat="44.91332" lon="6.08438">
        <ele>1732.6</ele>
        <time>2024-08-14T08:46:23Z</time>
      </trkpt>
      <trkpt lat="44.91332" lon="6.08438">
        <ele>1732.6</ele>
        <time>2024-08-14T08:46:24Z</time>
      </trkpt>
      <trkpt lat="44.91332" lon="6.08438">
        <ele>1733</ele>
        <time>2024-08-14T08:46:25Z</time>
      </trkpt>
      <trkpt lat="44.91334" lon="6.08437">
        <ele>1733.2</ele>
        <time>2024-08-14T08:46:26Z</time>
      </trkpt>
      <trkpt lat="44.91334" lon="6.08437">
        <ele>1733.4</ele>
        <time>2024-08-14T08:46:27Z</time>
      </trkpt>
      <trkpt lat="44.91334" lon="6.08437">
        <ele>1733.4</ele>
        <time>2024-08-14T08:46:28Z</time>
      </trkpt>
      <trkpt lat="44.91336" lon="6.08437">
        <ele>1733.6</ele>
        <time>2024-08-14T08:46:29Z</time>
      </trkpt>
      <trkpt lat="44.91336" lon="6.08437">
        <ele>1734</ele>
        <time>2024-08-14T08:46:30Z</time>
      </trkpt>
      <trkpt lat="44.91336" lon="6.08437">
        <ele>1734</ele>
        <time>2024-08-14T08:46:31Z</time>
      </trkpt>
      <trkpt lat="44.91338" lon="6.08438">
        <ele>1734</ele>
        <time>2024-08-14T08:46:32Z</time>
      </trkpt>
      <trkpt lat="44.91338" lon="6.08438">
        <ele>1734.4</ele>
        <time>2024-08-14T08:46:33Z</time>
      </trkpt>
      <trkpt lat="44.91338" lon="6.08438">
        <ele>1734.6</ele>
        <time>2024-08-14T08:46:34Z</time>
      </trkpt>
      <trkpt lat="44.9134" lon="6.0844">
        <ele>1734.6</ele>
        <time>2024-08-14T08:46:35Z</time>
      </trkpt>
      <trkpt lat="44.9134" lon="6.0844">
        <ele>1734.6</ele>
        <time>2024-08-14T08:46:36Z</time>
      </trkpt>
      <trkpt lat="44.9134" lon="6.0844">
        <ele>1735</ele>
        <time>2024-08-14T08:46:37Z</time>
      </trkpt>
      <trkpt lat="44.91341" lon="6.08441">
        <ele>1735.2</ele>
        <time>2024-08-14T08:46:38Z</time>
      </trkpt>
      <trkpt lat="44.91341" lon="6.08441">
        <ele>1735.2</ele>
        <time>2024-08-14T08:46:39Z</time>
      </trkpt>
      <trkpt lat="44.91341" lon="6.08441">
        <ele>1735.6</ele>
        <time>2024-08-14T08:46:40Z</time>
      </trkpt>
      <trkpt lat="44.91343" lon="6.08442">
        <ele>1735.6</ele>
        <time>2024-08-14T08:46:41Z</time>
      </trkpt>
      <trkpt lat="44.91343" lon="6.08442">
        <ele>1735.8</ele>
        <time>2024-08-14T08:46:42Z</time>
      </trkpt>
      <trkpt lat="44.91343" lon="6.08442">
        <ele>1735.8</ele>
        <time>2024-08-14T08:46:43Z</time>
      </trkpt>
      <trkpt lat="44.91345" lon="6.08443">
        <ele>1736</ele>
        <time>2024-08-14T08:46:44Z</time>
      </trkpt>
      <trkpt lat="44.91345" lon="6.08443">
        <ele>1736.2</ele>
        <time>2024-08-14T08:46:45Z</time>
      </trkpt>
      <trkpt lat="44.91345" lon="6.08443">
        <ele>1736.2</ele>
        <time>2024-08-14T08:46:46Z</time>
      </trkpt>
      <trkpt lat="44.91347" lon="6.08444">
        <ele>1736.4</ele>
        <time>2024-08-14T08:46:47Z</time>
      </trkpt>
      <trkpt lat="44.91347" lon="6.08444">
        <ele>1736.6</ele>
        <time>2024-08-14T08:46:48Z</time>
      </trkpt>
      <trkpt lat="44.91347" lon="6.08444">
        <ele>1736.6</ele>
        <time>2024-08-14T08:46:49Z</time>
      </trkpt>
      <trkpt lat="44.91347" lon="6.08444">
        <ele>1736.6</ele>
        <time>2024-08-14T08:46:50Z</time>
      </trkpt>
      <trkpt lat="44.91349" lon="6.08444">
        <ele>1737</ele>
        <time>2024-08-14T08:46:51Z</time>
      </trkpt>
      <trkpt lat="44.91349" lon="6.08444">
        <ele>1737.2</ele>
        <time>2024-08-14T08:46:52Z</time>
      </trkpt>
      <trkpt lat="44.91349" lon="6.08444">
        <ele>1737.2</ele>
        <time>2024-08-14T08:46:53Z</time>
      </trkpt>
      <trkpt lat="44.91351" lon="6.08445">
        <ele>1737.4</ele>
        <time>2024-08-14T08:46:54Z</time>
      </trkpt>
      <trkpt lat="44.91351" lon="6.08445">
        <ele>1737.4</ele>
        <time>2024-08-14T08:46:55Z</time>
      </trkpt>
      <trkpt lat="44.91351" lon="6.08445">
        <ele>1737.8</ele>
        <time>2024-08-14T08:46:56Z</time>
      </trkpt>
      <trkpt lat="44.91351" lon="6.08445">
        <ele>1738</ele>
        <time>2024-08-14T08:46:57Z</time>
      </trkpt>
      <trkpt lat="44.91351" lon="6.08445">
        <ele>1738.4</ele>
        <time>2024-08-14T08:46:58Z</time>
      </trkpt>
      <trkpt lat="44.91351" lon="6.08445">
        <ele>1738.4</ele>
        <time>2024-08-14T08:46:59Z</time>
      </trkpt>
      <trkpt lat="44.91351" lon="6.08442">
        <ele>1738.6</ele>
        <time>2024-08-14T08:47:00Z</time>
      </trkpt>
      <trkpt lat="44.91351" lon="6.08442">
        <ele>1738.8</ele>
        <time>2024-08-14T08:47:01Z</time>
      </trkpt>
      <trkpt lat="44.91351" lon="6.08442">
        <ele>1739.2</ele>
        <time>2024-08-14T08:47:02Z</time>
      </trkpt>
      <trkpt lat="44.91351" lon="6.08442">
        <ele>1739.2</ele>
        <time>2024-08-14T08:47:03Z</time>
      </trkpt>
      <trkpt lat="44.91351" lon="6.08442">
        <ele>1739.4</ele>
        <time>2024-08-14T08:47:04Z</time>
      </trkpt>
      <trkpt lat="44.91351" lon="6.08442">
        <ele>1739.6</ele>
        <time>2024-08-14T08:47:05Z</time>
      </trkpt>
      <trkpt lat="44.91351" lon="6.08442">
        <ele>1739.6</ele>
        <time>2024-08-14T08:47:06Z</time>
      </trkpt>
      <trkpt lat="44.91351" lon="6.08442">
        <ele>1739.6</ele>
        <time>2024-08-14T08:47:07Z</time>
      </trkpt>
      <trkpt lat="44.91351" lon="6.08442">
        <ele>1739.8</ele>
        <time>2024-08-14T08:47:08Z</time>
      </trkpt>
      <trkpt lat="44.9135" lon="6.08439">
        <ele>1740.4</ele>
        <time>2024-08-14T08:47:09Z</time>
      </trkpt>
      <trkpt lat="44.9135" lon="6.08439">
        <ele>1740.4</ele>
        <time>2024-08-14T08:47:10Z</time>
      </trkpt>
      <trkpt lat="44.91349" lon="6.08437">
        <ele>1740.4</ele>
        <time>2024-08-14T08:47:11Z</time>
      </trkpt>
      <trkpt lat="44.91349" lon="6.08437">
        <ele>1740.4</ele>
        <time>2024-08-14T08:47:12Z</time>
      </trkpt>
      <trkpt lat="44.91347" lon="6.08434">
        <ele>1741</ele>
        <time>2024-08-14T08:47:13Z</time>
      </trkpt>
      <trkpt lat="44.91347" lon="6.08434">
        <ele>1741.2</ele>
        <time>2024-08-14T08:47:14Z</time>
      </trkpt>
      <trkpt lat="44.91346" lon="6.08431">
        <ele>1741.2</ele>
        <time>2024-08-14T08:47:15Z</time>
      </trkpt>
      <trkpt lat="44.91346" lon="6.08431">
        <ele>1741</ele>
        <time>2024-08-14T08:47:16Z</time>
      </trkpt>
      <trkpt lat="44.91346" lon="6.08431">
        <ele>1741</ele>
        <time>2024-08-14T08:47:17Z</time>
      </trkpt>
      <trkpt lat="44.91345" lon="6.08429">
        <ele>1741.2</ele>
        <time>2024-08-14T08:47:18Z</time>
      </trkpt>
      <trkpt lat="44.91345" lon="6.08429">
        <ele>1741.2</ele>
        <time>2024-08-14T08:47:19Z</time>
      </trkpt>
      <trkpt lat="44.91345" lon="6.08429">
        <ele>1741.6</ele>
        <time>2024-08-14T08:47:20Z</time>
      </trkpt>
      <trkpt lat="44.91344" lon="6.08426">
        <ele>1741.6</ele>
        <time>2024-08-14T08:47:21Z</time>
      </trkpt>
      <trkpt lat="44.91344" lon="6.08426">
        <ele>1741.8</ele>
        <time>2024-08-14T08:47:22Z</time>
      </trkpt>
      <trkpt lat="44.91344" lon="6.08426">
        <ele>1741.8</ele>
        <time>2024-08-14T08:47:23Z</time>
      </trkpt>
      <trkpt lat="44.91344" lon="6.08426">
        <ele>1742</ele>
        <time>2024-08-14T08:47:24Z</time>
      </trkpt>
      <trkpt lat="44.91343" lon="6.08423">
        <ele>1742.6</ele>
        <time>2024-08-14T08:47:25Z</time>
      </trkpt>
      <trkpt lat="44.91343" lon="6.08423">
        <ele>1742.6</ele>
        <time>2024-08-14T08:47:26Z</time>
      </trkpt>
      <trkpt lat="44.91343" lon="6.08423">
        <ele>1742.8</ele>
        <time>2024-08-14T08:47:27Z</time>
      </trkpt>
      <trkpt lat="44.91343" lon="6.08421">
        <ele>1743</ele>
        <time>2024-08-14T08:47:28Z</time>
      </trkpt>
      <trkpt lat="44.91343" lon="6.08421">
        <ele>1743.4</ele>
        <time>2024-08-14T08:47:29Z</time>
      </trkpt>
      <trkpt lat="44.91343" lon="6.08421">
        <ele>1743.4</ele>
        <time>2024-08-14T08:47:30Z</time>
      </trkpt>
      <trkpt lat="44.91343" lon="6.08421">
        <ele>1743.6</ele>
        <time>2024-08-14T08:47:31Z</time>
      </trkpt>
      <trkpt lat="44.91342" lon="6.08418">
        <ele>1744.2</ele>
        <time>2024-08-14T08:47:32Z</time>
      </trkpt>
      <trkpt lat="44.91342" lon="6.08418">
        <ele>1744.4</ele>
        <time>2024-08-14T08:47:33Z</time>
      </trkpt>
      <trkpt lat="44.91342" lon="6.08418">
        <ele>1744.4</ele>
        <time>2024-08-14T08:47:34Z</time>
      </trkpt>
      <trkpt lat="44.91342" lon="6.08418">
        <ele>1744.4</ele>
        <time>2024-08-14T08:47:35Z</time>
      </trkpt>
      <trkpt lat="44.91341" lon="6.08415">
        <ele>1744.8</ele>
        <time>2024-08-14T08:47:36Z</time>
      </trkpt>
      <trkpt lat="44.91341" lon="6.08415">
        <ele>1744.8</ele>
        <time>2024-08-14T08:47:37Z</time>
      </trkpt>
      <trkpt lat="44.91341" lon="6.08415">
        <ele>1745</ele>
        <time>2024-08-14T08:47:38Z</time>
      </trkpt>
      <trkpt lat="44.91341" lon="6.08413">
        <ele>1745.2</ele>
        <time>2024-08-14T08:47:39Z</time>
      </trkpt>
      <trkpt lat="44.91341" lon="6.08413">
        <ele>1745.2</ele>
        <time>2024-08-14T08:47:40Z</time>
      </trkpt>
      <trkpt lat="44.91341" lon="6.08413">
        <ele>1745.4</ele>
        <time>2024-08-14T08:47:41Z</time>
      </trkpt>
      <trkpt lat="44.9134" lon="6.0841">
        <ele>1745.6</ele>
        <time>2024-08-14T08:47:42Z</time>
      </trkpt>
      <trkpt lat="44.9134" lon="6.0841">
        <ele>1745.8</ele>
        <time>2024-08-14T08:47:43Z</time>
      </trkpt>
      <trkpt lat="44.9134" lon="6.0841">
        <ele>1745.8</ele>
        <time>2024-08-14T08:47:44Z</time>
      </trkpt>
      <trkpt lat="44.9134" lon="6.0841">
        <ele>1746.4</ele>
        <time>2024-08-14T08:47:45Z</time>
      </trkpt>
      <trkpt lat="44.91338" lon="6.08408">
        <ele>1746.4</ele>
        <time>2024-08-14T08:47:46Z</time>
      </trkpt>
      <trkpt lat="44.91338" lon="6.08408">
        <ele>1746.4</ele>
        <time>2024-08-14T08:47:47Z</time>
      </trkpt>
      <trkpt lat="44.91338" lon="6.08408">
        <ele>1747</ele>
        <time>2024-08-14T08:47:48Z</time>
      </trkpt>
      <trkpt lat="44.91338" lon="6.08408">
        <ele>1747.2</ele>
        <time>2024-08-14T08:47:49Z</time>
      </trkpt>
      <trkpt lat="44.91339" lon="6.08405">
        <ele>1747.2</ele>
        <time>2024-08-14T08:47:50Z</time>
      </trkpt>
      <trkpt lat="44.91339" lon="6.08405">
        <ele>1747.8</ele>
        <time>2024-08-14T08:47:51Z</time>
      </trkpt>
      <trkpt lat="44.91339" lon="6.08405">
        <ele>1748</ele>
        <time>2024-08-14T08:47:52Z</time>
      </trkpt>
      <trkpt lat="44.91339" lon="6.08405">
        <ele>1748</ele>
        <time>2024-08-14T08:47:53Z</time>
      </trkpt>
      <trkpt lat="44.91339" lon="6.08405">
        <ele>1748</ele>
        <time>2024-08-14T08:47:54Z</time>
      </trkpt>
      <trkpt lat="44.91339" lon="6.08405">
        <ele>1748</ele>
        <time>2024-08-14T08:47:55Z</time>
      </trkpt>
      <trkpt lat="44.91339" lon="6.08405">
        <ele>1748.2</ele>
        <time>2024-08-14T08:47:56Z</time>
      </trkpt>
      <trkpt lat="44.91339" lon="6.08405">
        <ele>1748.4</ele>
        <time>2024-08-14T08:47:57Z</time>
      </trkpt>
      <trkpt lat="44.91338" lon="6.08402">
        <ele>1748.6</ele>
        <time>2024-08-14T08:47:58Z</time>
      </trkpt>
      <trkpt lat="44.91338" lon="6.08402">
        <ele>1749</ele>
        <time>2024-08-14T08:47:59Z</time>
      </trkpt>
      <trkpt lat="44.91337" lon="6.084">
        <ele>1749</ele>
        <time>2024-08-14T08:48:00Z</time>
      </trkpt>
      <trkpt lat="44.91337" lon="6.084">
        <ele>1749.2</ele>
        <time>2024-08-14T08:48:01Z</time>
      </trkpt>
      <trkpt lat="44.91336" lon="6.08398">
        <ele>1749.4</ele>
        <time>2024-08-14T08:48:02Z</time>
      </trkpt>
      <trkpt lat="44.91336" lon="6.08398">
        <ele>1749.4</ele>
        <time>2024-08-14T08:48:03Z</time>
      </trkpt>
      <trkpt lat="44.91336" lon="6.08398">
        <ele>1749.6</ele>
        <time>2024-08-14T08:48:04Z</time>
      </trkpt>
      <trkpt lat="44.91335" lon="6.08395">
        <ele>1749.8</ele>
        <time>2024-08-14T08:48:05Z</time>
      </trkpt>
      <trkpt lat="44.91335" lon="6.08395">
        <ele>1750.4</ele>
        <time>2024-08-14T08:48:06Z</time>
      </trkpt>
      <trkpt lat="44.91335" lon="6.08395">
        <ele>1750.6</ele>
        <time>2024-08-14T08:48:07Z</time>
      </trkpt>
      <trkpt lat="44.91334" lon="6.08392">
        <ele>1751</ele>
        <time>2024-08-14T08:48:08Z</time>
      </trkpt>
      <trkpt lat="44.91334" lon="6.08392">
        <ele>1751.2</ele>
        <time>2024-08-14T08:48:09Z</time>
      </trkpt>
      <trkpt lat="44.91334" lon="6.08392">
        <ele>1751.2</ele>
        <time>2024-08-14T08:48:10Z</time>
      </trkpt>
      <trkpt lat="44.91334" lon="6.08392">
        <ele>1751.4</ele>
        <time>2024-08-14T08:48:11Z</time>
      </trkpt>
      <trkpt lat="44.91334" lon="6.0839">
        <ele>1751.8</ele>
        <time>2024-08-14T08:48:12Z</time>
      </trkpt>
      <trkpt lat="44.91334" lon="6.0839">
        <ele>1751.8</ele>
        <time>2024-08-14T08:48:13Z</time>
      </trkpt>
      <trkpt lat="44.91334" lon="6.0839">
        <ele>1752.2</ele>
        <time>2024-08-14T08:48:14Z</time>
      </trkpt>
      <trkpt lat="44.91334" lon="6.0839">
        <ele>1752.2</ele>
        <time>2024-08-14T08:48:15Z</time>
      </trkpt>
      <trkpt lat="44.91333" lon="6.08387">
        <ele>1752.4</ele>
        <time>2024-08-14T08:48:16Z</time>
      </trkpt>
      <trkpt lat="44.91333" lon="6.08387">
        <ele>1753</ele>
        <time>2024-08-14T08:48:17Z</time>
      </trkpt>
      <trkpt lat="44.91333" lon="6.08387">
        <ele>1753</ele>
        <time>2024-08-14T08:48:18Z</time>
      </trkpt>
      <trkpt lat="44.91333" lon="6.08387">
        <ele>1753</ele>
        <time>2024-08-14T08:48:19Z</time>
      </trkpt>
      <trkpt lat="44.91333" lon="6.08387">
        <ele>1753.4</ele>
        <time>2024-08-14T08:48:20Z</time>
      </trkpt>
      <trkpt lat="44.91332" lon="6.08384">
        <ele>1753.8</ele>
        <time>2024-08-14T08:48:21Z</time>
      </trkpt>
      <trkpt lat="44.91332" lon="6.08384">
        <ele>1753.8</ele>
        <time>2024-08-14T08:48:22Z</time>
      </trkpt>
      <trkpt lat="44.91332" lon="6.08384">
        <ele>1754.2</ele>
        <time>2024-08-14T08:48:23Z</time>
      </trkpt>
      <trkpt lat="44.9133" lon="6.08382">
        <ele>1754.4</ele>
        <time>2024-08-14T08:48:24Z</time>
      </trkpt>
      <trkpt lat="44.9133" lon="6.08382">
        <ele>1754.6</ele>
        <time>2024-08-14T08:48:25Z</time>
      </trkpt>
      <trkpt lat="44.9133" lon="6.08382">
        <ele>1754.6</ele>
        <time>2024-08-14T08:48:26Z</time>
      </trkpt>
      <trkpt lat="44.9133" lon="6.08382">
        <ele>1755</ele>
        <time>2024-08-14T08:48:27Z</time>
      </trkpt>
      <trkpt lat="44.9133" lon="6.08379">
        <ele>1755</ele>
        <time>2024-08-14T08:48:28Z</time>
      </trkpt>
      <trkpt lat="44.9133" lon="6.08379">
        <ele>1755.2</ele>
        <time>2024-08-14T08:48:29Z</time>
      </trkpt>
      <trkpt lat="44.9133" lon="6.08379">
        <ele>1755.2</ele>
        <time>2024-08-14T08:48:30Z</time>
      </trkpt>
      <trkpt lat="44.91329" lon="6.08377">
        <ele>1755.6</ele>
        <time>2024-08-14T08:48:31Z</time>
      </trkpt>
      <trkpt lat="44.91329" lon="6.08377">
        <ele>1756</ele>
        <time>2024-08-14T08:48:32Z</time>
      </trkpt>
      <trkpt lat="44.91329" lon="6.08377">
        <ele>1756.2</ele>
        <time>2024-08-14T08:48:33Z</time>
      </trkpt>
      <trkpt lat="44.91327" lon="6.08375">
        <ele>1756.2</ele>
        <time>2024-08-14T08:48:34Z</time>
      </trkpt>
      <trkpt lat="44.91327" lon="6.08375">
        <ele>1756.6</ele>
        <time>2024-08-14T08:48:35Z</time>
      </trkpt>
      <trkpt lat="44.91327" lon="6.08375">
        <ele>1756.8</ele>
        <time>2024-08-14T08:48:36Z</time>
      </trkpt>
      <trkpt lat="44.91327" lon="6.08375">
        <ele>1756.8</ele>
        <time>2024-08-14T08:48:37Z</time>
      </trkpt>
      <trkpt lat="44.91326" lon="6.08372">
        <ele>1757.2</ele>
        <time>2024-08-14T08:48:38Z</time>
      </trkpt>
      <trkpt lat="44.91326" lon="6.08372">
        <ele>1757.2</ele>
        <time>2024-08-14T08:48:39Z</time>
      </trkpt>
      <trkpt lat="44.91326" lon="6.08372">
        <ele>1757.2</ele>
        <time>2024-08-14T08:48:40Z</time>
      </trkpt>
      <trkpt lat="44.91326" lon="6.0837">
        <ele>1757.2</ele>
        <time>2024-08-14T08:48:41Z</time>
      </trkpt>
      <trkpt lat="44.91326" lon="6.0837">
        <ele>1757.8</ele>
        <time>2024-08-14T08:48:42Z</time>
      </trkpt>
      <trkpt lat="44.91326" lon="6.0837">
        <ele>1758</ele>
        <time>2024-08-14T08:48:43Z</time>
      </trkpt>
      <trkpt lat="44.91326" lon="6.0837">
        <ele>1758.2</ele>
        <time>2024-08-14T08:48:44Z</time>
      </trkpt>
      <trkpt lat="44.91325" lon="6.08367">
        <ele>1758.6</ele>
        <time>2024-08-14T08:48:45Z</time>
      </trkpt>
      <trkpt lat="44.91325" lon="6.08367">
        <ele>1758.6</ele>
        <time>2024-08-14T08:48:46Z</time>
      </trkpt>
      <trkpt lat="44.91325" lon="6.08367">
        <ele>1758.8</ele>
        <time>2024-08-14T08:48:47Z</time>
      </trkpt>
      <trkpt lat="44.91325" lon="6.08367">
        <ele>1759</ele>
        <time>2024-08-14T08:48:48Z</time>
      </trkpt>
      <trkpt lat="44.91324" lon="6.08365">
        <ele>1759.2</ele>
        <time>2024-08-14T08:48:49Z</time>
      </trkpt>
      <trkpt lat="44.91324" lon="6.08365">
        <ele>1759.4</ele>
        <time>2024-08-14T08:48:50Z</time>
      </trkpt>
      <trkpt lat="44.91324" lon="6.08365">
        <ele>1759.6</ele>
        <time>2024-08-14T08:48:51Z</time>
      </trkpt>
      <trkpt lat="44.91324" lon="6.08365">
        <ele>1759.8</ele>
        <time>2024-08-14T08:48:52Z</time>
      </trkpt>
      <trkpt lat="44.91323" lon="6.08362">
        <ele>1759.8</ele>
        <time>2024-08-14T08:48:53Z</time>
      </trkpt>
      <trkpt lat="44.91323" lon="6.08362">
        <ele>1760.2</ele>
        <time>2024-08-14T08:48:54Z</time>
      </trkpt>
      <trkpt lat="44.91323" lon="6.08362">
        <ele>1760.2</ele>
        <time>2024-08-14T08:48:55Z</time>
      </trkpt>
      <trkpt lat="44.91323" lon="6.08362">
        <ele>1760.8</ele>
        <time>2024-08-14T08:48:56Z</time>
      </trkpt>
      <trkpt lat="44.91323" lon="6.08362">
        <ele>1760.8</ele>
        <time>2024-08-14T08:48:57Z</time>
      </trkpt>
      <trkpt lat="44.91321" lon="6.0836">
        <ele>1760.8</ele>
        <time>2024-08-14T08:48:58Z</time>
      </trkpt>
      <trkpt lat="44.91321" lon="6.0836">
        <ele>1761.4</ele>
        <time>2024-08-14T08:48:59Z</time>
      </trkpt>
      <trkpt lat="44.91321" lon="6.0836">
        <ele>1761.8</ele>
        <time>2024-08-14T08:49:00Z</time>
      </trkpt>
      <trkpt lat="44.91321" lon="6.0836">
        <ele>1761.8</ele>
        <time>2024-08-14T08:49:01Z</time>
      </trkpt>
      <trkpt lat="44.91321" lon="6.08357">
        <ele>1762.2</ele>
        <time>2024-08-14T08:49:02Z</time>
      </trkpt>
      <trkpt lat="44.91321" lon="6.08357">
        <ele>1762.2</ele>
        <time>2024-08-14T08:49:03Z</time>
      </trkpt>
      <trkpt lat="44.91321" lon="6.08357">
        <ele>1762.2</ele>
        <time>2024-08-14T08:49:04Z</time>
      </trkpt>
      <trkpt lat="44.91321" lon="6.08357">
        <ele>1762.4</ele>
        <time>2024-08-14T08:49:05Z</time>
      </trkpt>
      <trkpt lat="44.91319" lon="6.08355">
        <ele>1762.6</ele>
        <time>2024-08-14T08:49:06Z</time>
      </trkpt>
      <trkpt lat="44.91319" lon="6.08355">
        <ele>1762.8</ele>
        <time>2024-08-14T08:49:07Z</time>
      </trkpt>
      <trkpt lat="44.91319" lon="6.08355">
        <ele>1762.8</ele>
        <time>2024-08-14T08:49:08Z</time>
      </trkpt>
      <trkpt lat="44.91318" lon="6.08352">
        <ele>1763</ele>
        <time>2024-08-14T08:49:09Z</time>
      </trkpt>
      <trkpt lat="44.91318" lon="6.08352">
        <ele>1763</ele>
        <time>2024-08-14T08:49:10Z</time>
      </trkpt>
      <trkpt lat="44.91318" lon="6.08352">
        <ele>1763.4</ele>
        <time>2024-08-14T08:49:11Z</time>
      </trkpt>
      <trkpt lat="44.91318" lon="6.0835">
        <ele>1763.6</ele>
        <time>2024-08-14T08:49:12Z</time>
      </trkpt>
      <trkpt lat="44.91318" lon="6.0835">
        <ele>1763.8</ele>
        <time>2024-08-14T08:49:13Z</time>
      </trkpt>
      <trkpt lat="44.91318" lon="6.0835">
        <ele>1764</ele>
        <time>2024-08-14T08:49:14Z</time>
      </trkpt>
      <trkpt lat="44.91318" lon="6.0835">
        <ele>1764.4</ele>
        <time>2024-08-14T08:49:15Z</time>
      </trkpt>
      <trkpt lat="44.91317" lon="6.08347">
        <ele>1764.6</ele>
        <time>2024-08-14T08:49:16Z</time>
      </trkpt>
      <trkpt lat="44.91317" lon="6.08347">
        <ele>1764.8</ele>
        <time>2024-08-14T08:49:17Z</time>
      </trkpt>
      <trkpt lat="44.91317" lon="6.08347">
        <ele>1765</ele>
        <time>2024-08-14T08:49:18Z</time>
      </trkpt>
      <trkpt lat="44.91316" lon="6.08345">
        <ele>1765.2</ele>
        <time>2024-08-14T08:49:19Z</time>
      </trkpt>
      <trkpt lat="44.91316" lon="6.08345">
        <ele>1765.2</ele>
        <time>2024-08-14T08:49:20Z</time>
      </trkpt>
      <trkpt lat="44.91316" lon="6.08345">
        <ele>1765.6</ele>
        <time>2024-08-14T08:49:21Z</time>
      </trkpt>
      <trkpt lat="44.91316" lon="6.08342">
        <ele>1765.8</ele>
        <time>2024-08-14T08:49:22Z</time>
      </trkpt>
      <trkpt lat="44.91316" lon="6.08342">
        <ele>1766</ele>
        <time>2024-08-14T08:49:23Z</time>
      </trkpt>
      <trkpt lat="44.91316" lon="6.08342">
        <ele>1766</ele>
        <time>2024-08-14T08:49:24Z</time>
      </trkpt>
      <trkpt lat="44.91316" lon="6.08339">
        <ele>1766.2</ele>
        <time>2024-08-14T08:49:25Z</time>
      </trkpt>
      <trkpt lat="44.91316" lon="6.08339">
        <ele>1766.4</ele>
        <time>2024-08-14T08:49:26Z</time>
      </trkpt>
      <trkpt lat="44.91316" lon="6.08339">
        <ele>1766.4</ele>
        <time>2024-08-14T08:49:27Z</time>
      </trkpt>
      <trkpt lat="44.91315" lon="6.08337">
        <ele>1766.4</ele>
        <time>2024-08-14T08:49:28Z</time>
      </trkpt>
      <trkpt lat="44.91315" lon="6.08337">
        <ele>1766.8</ele>
        <time>2024-08-14T08:49:29Z</time>
      </trkpt>
      <trkpt lat="44.91315" lon="6.08337">
        <ele>1767</ele>
        <time>2024-08-14T08:49:30Z</time>
      </trkpt>
      <trkpt lat="44.91314" lon="6.08334">
        <ele>1767.4</ele>
        <time>2024-08-14T08:49:31Z</time>
      </trkpt>
      <trkpt lat="44.91314" lon="6.08334">
        <ele>1767.6</ele>
        <time>2024-08-14T08:49:32Z</time>
      </trkpt>
      <trkpt lat="44.91314" lon="6.08334">
        <ele>1767.8</ele>
        <time>2024-08-14T08:49:33Z</time>
      </trkpt>
      <trkpt lat="44.91312" lon="6.08332">
        <ele>1767.8</ele>
        <time>2024-08-14T08:49:34Z</time>
      </trkpt>
      <trkpt lat="44.91312" lon="6.08332">
        <ele>1767.8</ele>
        <time>2024-08-14T08:49:35Z</time>
      </trkpt>
      <trkpt lat="44.91312" lon="6.08332">
        <ele>1768.4</ele>
        <time>2024-08-14T08:49:36Z</time>
      </trkpt>
      <trkpt lat="44.91312" lon="6.08329">
        <ele>1768.4</ele>
        <time>2024-08-14T08:49:37Z</time>
      </trkpt>
      <trkpt lat="44.91312" lon="6.08329">
        <ele>1768.6</ele>
        <time>2024-08-14T08:49:38Z</time>
      </trkpt>
      <trkpt lat="44.91312" lon="6.08329">
        <ele>1768.8</ele>
        <time>2024-08-14T08:49:39Z</time>
      </trkpt>
      <trkpt lat="44.91311" lon="6.08326">
        <ele>1769.2</ele>
        <time>2024-08-14T08:49:40Z</time>
      </trkpt>
      <trkpt lat="44.91311" lon="6.08326">
        <ele>1769.2</ele>
        <time>2024-08-14T08:49:41Z</time>
      </trkpt>
      <trkpt lat="44.91311" lon="6.08326">
        <ele>1769.6</ele>
        <time>2024-08-14T08:49:42Z</time>
      </trkpt>
      <trkpt lat="44.91311" lon="6.08326">
        <ele>1769.8</ele>
        <time>2024-08-14T08:49:43Z</time>
      </trkpt>
      <trkpt lat="44.9131" lon="6.08324">
        <ele>1769.8</ele>
        <time>2024-08-14T08:49:44Z</time>
      </trkpt>
      <trkpt lat="44.9131" lon="6.08324">
        <ele>1769.8</ele>
        <time>2024-08-14T08:49:45Z</time>
      </trkpt>
      <trkpt lat="44.9131" lon="6.08324">
        <ele>1770.2</ele>
        <time>2024-08-14T08:49:46Z</time>
      </trkpt>
      <trkpt lat="44.91309" lon="6.08321">
        <ele>1770.4</ele>
        <time>2024-08-14T08:49:47Z</time>
      </trkpt>
      <trkpt lat="44.91309" lon="6.08321">
        <ele>1770.6</ele>
        <time>2024-08-14T08:49:48Z</time>
      </trkpt>
      <trkpt lat="44.91309" lon="6.08321">
        <ele>1771</ele>
        <time>2024-08-14T08:49:49Z</time>
      </trkpt>
      <trkpt lat="44.91309" lon="6.08321">
        <ele>1771.2</ele>
        <time>2024-08-14T08:49:50Z</time>
      </trkpt>
      <trkpt lat="44.91308" lon="6.08318">
        <ele>1771.2</ele>
        <time>2024-08-14T08:49:51Z</time>
      </trkpt>
      <trkpt lat="44.91308" lon="6.08318">
        <ele>1771.8</ele>
        <time>2024-08-14T08:49:52Z</time>
      </trkpt>
      <trkpt lat="44.91308" lon="6.08318">
        <ele>1771.8</ele>
        <time>2024-08-14T08:49:53Z</time>
      </trkpt>
      <trkpt lat="44.91308" lon="6.08315">
        <ele>1772.2</ele>
        <time>2024-08-14T08:49:54Z</time>
      </trkpt>
      <trkpt lat="44.91308" lon="6.08315">
        <ele>1772.4</ele>
        <time>2024-08-14T08:49:55Z</time>
      </trkpt>
      <trkpt lat="44.91308" lon="6.08315">
        <ele>1772.4</ele>
        <time>2024-08-14T08:49:56Z</time>
      </trkpt>
      <trkpt lat="44.91308" lon="6.08315">
        <ele>1772.4</ele>
        <time>2024-08-14T08:49:57Z</time>
      </trkpt>
      <trkpt lat="44.91307" lon="6.08312">
        <ele>1772.6</ele>
        <time>2024-08-14T08:49:58Z</time>
      </trkpt>
      <trkpt lat="44.91307" lon="6.08312">
        <ele>1773</ele>
        <time>2024-08-14T08:49:59Z</time>
      </trkpt>
      <trkpt lat="44.91307" lon="6.08312">
        <ele>1773.2</ele>
        <time>2024-08-14T08:50:00Z</time>
      </trkpt>
      <trkpt lat="44.91307" lon="6.08312">
        <ele>1773.2</ele>
        <time>2024-08-14T08:50:01Z</time>
      </trkpt>
      <trkpt lat="44.91307" lon="6.08309">
        <ele>1773.6</ele>
        <time>2024-08-14T08:50:02Z</time>
      </trkpt>
      <trkpt lat="44.91307" lon="6.08309">
        <ele>1773.6</ele>
        <time>2024-08-14T08:50:03Z</time>
      </trkpt>
      <trkpt lat="44.91307" lon="6.08309">
        <ele>1773.8</ele>
        <time>2024-08-14T08:50:04Z</time>
      </trkpt>
      <trkpt lat="44.91306" lon="6.08307">
        <ele>1774.2</ele>
        <time>2024-08-14T08:50:05Z</time>
      </trkpt>
      <trkpt lat="44.91306" lon="6.08307">
        <ele>1774.6</ele>
        <time>2024-08-14T08:50:06Z</time>
      </trkpt>
      <trkpt lat="44.91306" lon="6.08307">
        <ele>1774.8</ele>
        <time>2024-08-14T08:50:07Z</time>
      </trkpt>
      <trkpt lat="44.91304" lon="6.08305">
        <ele>1775</ele>
        <time>2024-08-14T08:50:08Z</time>
      </trkpt>
      <trkpt lat="44.91304" lon="6.08305">
        <ele>1775</ele>
        <time>2024-08-14T08:50:09Z</time>
      </trkpt>
      <trkpt lat="44.91304" lon="6.08305">
        <ele>1775.2</ele>
        <time>2024-08-14T08:50:10Z</time>
      </trkpt>
      <trkpt lat="44.91303" lon="6.08302">
        <ele>1775.4</ele>
        <time>2024-08-14T08:50:11Z</time>
      </trkpt>
      <trkpt lat="44.91303" lon="6.08302">
        <ele>1775.4</ele>
        <time>2024-08-14T08:50:12Z</time>
      </trkpt>
      <trkpt lat="44.91303" lon="6.08302">
        <ele>1775.6</ele>
        <time>2024-08-14T08:50:13Z</time>
      </trkpt>
      <trkpt lat="44.91302" lon="6.083">
        <ele>1775.8</ele>
        <time>2024-08-14T08:50:14Z</time>
      </trkpt>
      <trkpt lat="44.91302" lon="6.083">
        <ele>1776.2</ele>
        <time>2024-08-14T08:50:15Z</time>
      </trkpt>
      <trkpt lat="44.91302" lon="6.083">
        <ele>1776.2</ele>
        <time>2024-08-14T08:50:16Z</time>
      </trkpt>
      <trkpt lat="44.91301" lon="6.08297">
        <ele>1776.6</ele>
        <time>2024-08-14T08:50:17Z</time>
      </trkpt>
      <trkpt lat="44.91301" lon="6.08297">
        <ele>1776.8</ele>
        <time>2024-08-14T08:50:18Z</time>
      </trkpt>
      <trkpt lat="44.913" lon="6.08295">
        <ele>1776.8</ele>
        <time>2024-08-14T08:50:19Z</time>
      </trkpt>
      <trkpt lat="44.913" lon="6.08295">
        <ele>1777</ele>
        <time>2024-08-14T08:50:20Z</time>
      </trkpt>
      <trkpt lat="44.913" lon="6.08295">
        <ele>1777.2</ele>
        <time>2024-08-14T08:50:21Z</time>
      </trkpt>
      <trkpt lat="44.91302" lon="6.08293">
        <ele>1777.4</ele>
        <time>2024-08-14T08:50:22Z</time>
      </trkpt>
      <trkpt lat="44.91302" lon="6.08293">
        <ele>1777.8</ele>
        <time>2024-08-14T08:50:23Z</time>
      </trkpt>
      <trkpt lat="44.91302" lon="6.08293">
        <ele>1777.8</ele>
        <time>2024-08-14T08:50:24Z</time>
      </trkpt>
      <trkpt lat="44.91304" lon="6.08293">
        <ele>1778.2</ele>
        <time>2024-08-14T08:50:25Z</time>
      </trkpt>
      <trkpt lat="44.91304" lon="6.08293">
        <ele>1778.4</ele>
        <time>2024-08-14T08:50:26Z</time>
      </trkpt>
      <trkpt lat="44.91304" lon="6.08293">
        <ele>1778.4</ele>
        <time>2024-08-14T08:50:27Z</time>
      </trkpt>
      <trkpt lat="44.91306" lon="6.08294">
        <ele>1779</ele>
        <time>2024-08-14T08:50:28Z</time>
      </trkpt>
      <trkpt lat="44.91306" lon="6.08294">
        <ele>1779.6</ele>
        <time>2024-08-14T08:50:29Z</time>
      </trkpt>
      <trkpt lat="44.91306" lon="6.08294">
        <ele>1779.6</ele>
        <time>2024-08-14T08:50:30Z</time>
      </trkpt>
      <trkpt lat="44.91306" lon="6.08294">
        <ele>1779.6</ele>
        <time>2024-08-14T08:50:31Z</time>
      </trkpt>
      <trkpt lat="44.91308" lon="6.08295">
        <ele>1779.8</ele>
        <time>2024-08-14T08:50:32Z</time>
      </trkpt>
      <trkpt lat="44.91308" lon="6.08295">
        <ele>1780</ele>
        <time>2024-08-14T08:50:33Z</time>
      </trkpt>
      <trkpt lat="44.9131" lon="6.08295">
        <ele>1780.4</ele>
        <time>2024-08-14T08:50:34Z</time>
      </trkpt>
      <trkpt lat="44.9131" lon="6.08295">
        <ele>1780.6</ele>
        <time>2024-08-14T08:50:35Z</time>
      </trkpt>
      <trkpt lat="44.91312" lon="6.08295">
        <ele>1781</ele>
        <time>2024-08-14T08:50:36Z</time>
      </trkpt>
      <trkpt lat="44.91312" lon="6.08295">
        <ele>1781.4</ele>
        <time>2024-08-14T08:50:37Z</time>
      </trkpt>
      <trkpt lat="44.91312" lon="6.08295">
        <ele>1781.8</ele>
        <time>2024-08-14T08:50:38Z</time>
      </trkpt>
      <trkpt lat="44.91314" lon="6.08296">
        <ele>1781.8</ele>
        <time>2024-08-14T08:50:39Z</time>
      </trkpt>
      <trkpt lat="44.91314" lon="6.08296">
        <ele>1782</ele>
        <time>2024-08-14T08:50:40Z</time>
      </trkpt>
      <trkpt lat="44.91314" lon="6.08296">
        <ele>1782</ele>
        <time>2024-08-14T08:50:41Z</time>
      </trkpt>
      <trkpt lat="44.91314" lon="6.08296">
        <ele>1782</ele>
        <time>2024-08-14T08:50:42Z</time>
      </trkpt>
      <trkpt lat="44.91316" lon="6.08294">
        <ele>1782.2</ele>
        <time>2024-08-14T08:50:43Z</time>
      </trkpt>
      <trkpt lat="44.91316" lon="6.08294">
        <ele>1782.4</ele>
        <time>2024-08-14T08:50:44Z</time>
      </trkpt>
      <trkpt lat="44.91316" lon="6.08294">
        <ele>1782.6</ele>
        <time>2024-08-14T08:50:45Z</time>
      </trkpt>
      <trkpt lat="44.91316" lon="6.08294">
        <ele>1783.2</ele>
        <time>2024-08-14T08:50:46Z</time>
      </trkpt>
      <trkpt lat="44.91318" lon="6.08294">
        <ele>1783.2</ele>
        <time>2024-08-14T08:50:47Z</time>
      </trkpt>
      <trkpt lat="44.91318" lon="6.08294">
        <ele>1783.2</ele>
        <time>2024-08-14T08:50:48Z</time>
      </trkpt>
      <trkpt lat="44.91318" lon="6.08294">
        <ele>1783.4</ele>
        <time>2024-08-14T08:50:49Z</time>
      </trkpt>
      <trkpt lat="44.9132" lon="6.08295">
        <ele>1783.8</ele>
        <time>2024-08-14T08:50:50Z</time>
      </trkpt>
      <trkpt lat="44.9132" lon="6.08295">
        <ele>1784</ele>
        <time>2024-08-14T08:50:51Z</time>
      </trkpt>
      <trkpt lat="44.9132" lon="6.08295">
        <ele>1784</ele>
        <time>2024-08-14T08:50:52Z</time>
      </trkpt>
      <trkpt lat="44.9132" lon="6.08295">
        <ele>1784.6</ele>
        <time>2024-08-14T08:50:53Z</time>
      </trkpt>
      <trkpt lat="44.91322" lon="6.08295">
        <ele>1784.6</ele>
        <time>2024-08-14T08:50:54Z</time>
      </trkpt>
      <trkpt lat="44.91322" lon="6.08295">
        <ele>1784.8</ele>
        <time>2024-08-14T08:50:55Z</time>
      </trkpt>
      <trkpt lat="44.91322" lon="6.08295">
        <ele>1784.8</ele>
        <time>2024-08-14T08:50:56Z</time>
      </trkpt>
      <trkpt lat="44.91324" lon="6.08296">
        <ele>1785.4</ele>
        <time>2024-08-14T08:50:57Z</time>
      </trkpt>
      <trkpt lat="44.91324" lon="6.08296">
        <ele>1785.4</ele>
        <time>2024-08-14T08:50:58Z</time>
      </trkpt>
      <trkpt lat="44.91324" lon="6.08296">
        <ele>1785.4</ele>
        <time>2024-08-14T08:50:59Z</time>
      </trkpt>
      <trkpt lat="44.91326" lon="6.08295">
        <ele>1785.8</ele>
        <time>2024-08-14T08:51:00Z</time>
      </trkpt>
      <trkpt lat="44.91326" lon="6.08295">
        <ele>1786.2</ele>
        <time>2024-08-14T08:51:01Z</time>
      </trkpt>
      <trkpt lat="44.91326" lon="6.08295">
        <ele>1786.8</ele>
        <time>2024-08-14T08:51:02Z</time>
      </trkpt>
      <trkpt lat="44.91328" lon="6.08295">
        <ele>1786.8</ele>
        <time>2024-08-14T08:51:03Z</time>
      </trkpt>
      <trkpt lat="44.91328" lon="6.08295">
        <ele>1787</ele>
        <time>2024-08-14T08:51:04Z</time>
      </trkpt>
      <trkpt lat="44.91328" lon="6.08295">
        <ele>1787.2</ele>
        <time>2024-08-14T08:51:05Z</time>
      </trkpt>
      <trkpt lat="44.91328" lon="6.08295">
        <ele>1787.6</ele>
        <time>2024-08-14T08:51:06Z</time>
      </trkpt>
      <trkpt lat="44.9133" lon="6.08294">
        <ele>1787.6</ele>
        <time>2024-08-14T08:51:07Z</time>
      </trkpt>
      <trkpt lat="44.9133" lon="6.08294">
        <ele>1788</ele>
        <time>2024-08-14T08:51:08Z</time>
      </trkpt>
      <trkpt lat="44.9133" lon="6.08294">
        <ele>1788</ele>
        <time>2024-08-14T08:51:09Z</time>
      </trkpt>
      <trkpt lat="44.91332" lon="6.08295">
        <ele>1788.2</ele>
        <time>2024-08-14T08:51:10Z</time>
      </trkpt>
      <trkpt lat="44.91332" lon="6.08295">
        <ele>1788.6</ele>
        <time>2024-08-14T08:51:11Z</time>
      </trkpt>
      <trkpt lat="44.91332" lon="6.08295">
        <ele>1788.6</ele>
        <time>2024-08-14T08:51:12Z</time>
      </trkpt>
      <trkpt lat="44.91334" lon="6.08296">
        <ele>1788.8</ele>
        <time>2024-08-14T08:51:13Z</time>
      </trkpt>
      <trkpt lat="44.91334" lon="6.08296">
        <ele>1789.2</ele>
        <time>2024-08-14T08:51:14Z</time>
      </trkpt>
      <trkpt lat="44.91334" lon="6.08296">
        <ele>1789.2</ele>
        <time>2024-08-14T08:51:15Z</time>
      </trkpt>
      <trkpt lat="44.91336" lon="6.08296">
        <ele>1789.2</ele>
        <time>2024-08-14T08:51:16Z</time>
      </trkpt>
      <trkpt lat="44.91336" lon="6.08296">
        <ele>1789.6</ele>
        <time>2024-08-14T08:51:17Z</time>
      </trkpt>
      <trkpt lat="44.91336" lon="6.08296">
        <ele>1790</ele>
        <time>2024-08-14T08:51:18Z</time>
      </trkpt>
      <trkpt lat="44.91336" lon="6.08296">
        <ele>1790</ele>
        <time>2024-08-14T08:51:19Z</time>
      </trkpt>
      <trkpt lat="44.91338" lon="6.08297">
        <ele>1790.2</ele>
        <time>2024-08-14T08:51:20Z</time>
      </trkpt>
      <trkpt lat="44.91338" lon="6.08297">
        <ele>1790.6</ele>
        <time>2024-08-14T08:51:21Z</time>
      </trkpt>
      <trkpt lat="44.91338" lon="6.08297">
        <ele>1790.6</ele>
        <time>2024-08-14T08:51:22Z</time>
      </trkpt>
      <trkpt lat="44.91338" lon="6.08297">
        <ele>1790.6</ele>
        <time>2024-08-14T08:51:23Z</time>
      </trkpt>
      <trkpt lat="44.91338" lon="6.08297">
        <ele>1791</ele>
        <time>2024-08-14T08:51:24Z</time>
      </trkpt>
      <trkpt lat="44.91338" lon="6.08297">
        <ele>1791</ele>
        <time>2024-08-14T08:51:25Z</time>
      </trkpt>
      <trkpt lat="44.9134" lon="6.08296">
        <ele>1791</ele>
        <time>2024-08-14T08:51:26Z</time>
      </trkpt>
      <trkpt lat="44.9134" lon="6.08296">
        <ele>1791.8</ele>
        <time>2024-08-14T08:51:27Z</time>
      </trkpt>
      <trkpt lat="44.9134" lon="6.08296">
        <ele>1791.8</ele>
        <time>2024-08-14T08:51:28Z</time>
      </trkpt>
      <trkpt lat="44.91342" lon="6.08295">
        <ele>1791.8</ele>
        <time>2024-08-14T08:51:29Z</time>
      </trkpt>
      <trkpt lat="44.91342" lon="6.08295">
        <ele>1792</ele>
        <time>2024-08-14T08:51:30Z</time>
      </trkpt>
      <trkpt lat="44.91342" lon="6.08295">
        <ele>1792.2</ele>
        <time>2024-08-14T08:51:31Z</time>
      </trkpt>
      <trkpt lat="44.91342" lon="6.08295">
        <ele>1792.6</ele>
        <time>2024-08-14T08:51:32Z</time>
      </trkpt>
      <trkpt lat="44.91344" lon="6.08296">
        <ele>1793.2</ele>
        <time>2024-08-14T08:51:33Z</time>
      </trkpt>
      <trkpt lat="44.91344" lon="6.08296">
        <ele>1793.6</ele>
        <time>2024-08-14T08:51:34Z</time>
      </trkpt>
      <trkpt lat="44.91344" lon="6.08296">
        <ele>1793.6</ele>
        <time>2024-08-14T08:51:35Z</time>
      </trkpt>
      <trkpt lat="44.91346" lon="6.08296">
        <ele>1793.6</ele>
        <time>2024-08-14T08:51:36Z</time>
      </trkpt>
      <trkpt lat="44.91346" lon="6.08296">
        <ele>1793.6</ele>
        <time>2024-08-14T08:51:37Z</time>
      </trkpt>
      <trkpt lat="44.91346" lon="6.08296">
        <ele>1793.6</ele>
        <time>2024-08-14T08:51:38Z</time>
      </trkpt>
      <trkpt lat="44.91348" lon="6.08296">
        <ele>1794</ele>
        <time>2024-08-14T08:51:39Z</time>
      </trkpt>
      <trkpt lat="44.91348" lon="6.08296">
        <ele>1794.2</ele>
        <time>2024-08-14T08:51:40Z</time>
      </trkpt>
      <trkpt lat="44.91348" lon="6.08296">
        <ele>1794.4</ele>
        <time>2024-08-14T08:51:41Z</time>
      </trkpt>
      <trkpt lat="44.91348" lon="6.08296">
        <ele>1794.4</ele>
        <time>2024-08-14T08:51:42Z</time>
      </trkpt>
      <trkpt lat="44.91349" lon="6.08296">
        <ele>1794.6</ele>
        <time>2024-08-14T08:51:43Z</time>
      </trkpt>
      <trkpt lat="44.91349" lon="6.08296">
        <ele>1795</ele>
        <time>2024-08-14T08:51:44Z</time>
      </trkpt>
      <trkpt lat="44.91349" lon="6.08296">
        <ele>1795</ele>
        <time>2024-08-14T08:51:45Z</time>
      </trkpt>
      <trkpt lat="44.91349" lon="6.08296">
        <ele>1795.4</ele>
        <time>2024-08-14T08:51:46Z</time>
      </trkpt>
      <trkpt lat="44.91349" lon="6.08296">
        <ele>1795.6</ele>
        <time>2024-08-14T08:51:47Z</time>
      </trkpt>
      <trkpt lat="44.91351" lon="6.08296">
        <ele>1795.6</ele>
        <time>2024-08-14T08:51:48Z</time>
      </trkpt>
      <trkpt lat="44.91351" lon="6.08296">
        <ele>1795.6</ele>
        <time>2024-08-14T08:51:49Z</time>
      </trkpt>
      <trkpt lat="44.91351" lon="6.08296">
        <ele>1796</ele>
        <time>2024-08-14T08:51:50Z</time>
      </trkpt>
      <trkpt lat="44.91353" lon="6.08297">
        <ele>1796.4</ele>
        <time>2024-08-14T08:51:51Z</time>
      </trkpt>
      <trkpt lat="44.91353" lon="6.08297">
        <ele>1796.4</ele>
        <time>2024-08-14T08:51:52Z</time>
      </trkpt>
      <trkpt lat="44.91353" lon="6.08297">
        <ele>1796.6</ele>
        <time>2024-08-14T08:51:53Z</time>
      </trkpt>
      <trkpt lat="44.91355" lon="6.08295">
        <ele>1796.8</ele>
        <time>2024-08-14T08:51:54Z</time>
      </trkpt>
      <trkpt lat="44.91355" lon="6.08295">
        <ele>1797</ele>
        <time>2024-08-14T08:51:55Z</time>
      </trkpt>
      <trkpt lat="44.91355" lon="6.08295">
        <ele>1797.2</ele>
        <time>2024-08-14T08:51:56Z</time>
      </trkpt>
      <trkpt lat="44.91357" lon="6.08294">
        <ele>1797.6</ele>
        <time>2024-08-14T08:51:57Z</time>
      </trkpt>
      <trkpt lat="44.91357" lon="6.08294">
        <ele>1797.6</ele>
        <time>2024-08-14T08:51:58Z</time>
      </trkpt>
      <trkpt lat="44.91357" lon="6.08294">
        <ele>1797.8</ele>
        <time>2024-08-14T08:51:59Z</time>
      </trkpt>
      <trkpt lat="44.91359" lon="6.08294">
        <ele>1797.8</ele>
        <time>2024-08-14T08:52:00Z</time>
      </trkpt>
      <trkpt lat="44.91359" lon="6.08294">
        <ele>1798</ele>
        <time>2024-08-14T08:52:01Z</time>
      </trkpt>
      <trkpt lat="44.91359" lon="6.08294">
        <ele>1799</ele>
        <time>2024-08-14T08:52:02Z</time>
      </trkpt>
      <trkpt lat="44.91359" lon="6.08294">
        <ele>1799</ele>
        <time>2024-08-14T08:52:03Z</time>
      </trkpt>
      <trkpt lat="44.91361" lon="6.08294">
        <ele>1799</ele>
        <time>2024-08-14T08:52:04Z</time>
      </trkpt>
      <trkpt lat="44.91361" lon="6.08294">
        <ele>1799</ele>
        <time>2024-08-14T08:52:05Z</time>
      </trkpt>
      <trkpt lat="44.91361" lon="6.08294">
        <ele>1799.2</ele>
        <time>2024-08-14T08:52:06Z</time>
      </trkpt>
      <trkpt lat="44.91363" lon="6.08293">
        <ele>1799.4</ele>
        <time>2024-08-14T08:52:07Z</time>
      </trkpt>
      <trkpt lat="44.91363" lon="6.08293">
        <ele>1799.8</ele>
        <time>2024-08-14T08:52:08Z</time>
      </trkpt>
      <trkpt lat="44.91363" lon="6.08293">
        <ele>1800</ele>
        <time>2024-08-14T08:52:09Z</time>
      </trkpt>
      <trkpt lat="44.91365" lon="6.08293">
        <ele>1800.2</ele>
        <time>2024-08-14T08:52:10Z</time>
      </trkpt>
      <trkpt lat="44.91365" lon="6.08293">
        <ele>1800.6</ele>
        <time>2024-08-14T08:52:11Z</time>
      </trkpt>
      <trkpt lat="44.91365" lon="6.08293">
        <ele>1800.6</ele>
        <time>2024-08-14T08:52:12Z</time>
      </trkpt>
      <trkpt lat="44.91367" lon="6.08293">
        <ele>1800.6</ele>
        <time>2024-08-14T08:52:13Z</time>
      </trkpt>
      <trkpt lat="44.91367" lon="6.08293">
        <ele>1801.2</ele>
        <time>2024-08-14T08:52:14Z</time>
      </trkpt>
      <trkpt lat="44.91367" lon="6.08293">
        <ele>1801.2</ele>
        <time>2024-08-14T08:52:15Z</time>
      </trkpt>
      <trkpt lat="44.91367" lon="6.08293">
        <ele>1801.4</ele>
        <time>2024-08-14T08:52:16Z</time>
      </trkpt>
      <trkpt lat="44.9137" lon="6.08293">
        <ele>1801.6</ele>
        <time>2024-08-14T08:52:17Z</time>
      </trkpt>
      <trkpt lat="44.9137" lon="6.08293">
        <ele>1801.8</ele>
        <time>2024-08-14T08:52:18Z</time>
      </trkpt>
      <trkpt lat="44.9137" lon="6.08293">
        <ele>1801.8</ele>
        <time>2024-08-14T08:52:19Z</time>
      </trkpt>
      <trkpt lat="44.9137" lon="6.08293">
        <ele>1802</ele>
        <time>2024-08-14T08:52:20Z</time>
      </trkpt>
      <trkpt lat="44.91372" lon="6.08293">
        <ele>1802.6</ele>
        <time>2024-08-14T08:52:21Z</time>
      </trkpt>
      <trkpt lat="44.91372" lon="6.08293">
        <ele>1802.6</ele>
        <time>2024-08-14T08:52:22Z</time>
      </trkpt>
      <trkpt lat="44.91372" lon="6.08293">
        <ele>1802.8</ele>
        <time>2024-08-14T08:52:23Z</time>
      </trkpt>
      <trkpt lat="44.91374" lon="6.08293">
        <ele>1803</ele>
        <time>2024-08-14T08:52:24Z</time>
      </trkpt>
      <trkpt lat="44.91374" lon="6.08293">
        <ele>1803.2</ele>
        <time>2024-08-14T08:52:25Z</time>
      </trkpt>
      <trkpt lat="44.91374" lon="6.08293">
        <ele>1804</ele>
        <time>2024-08-14T08:52:26Z</time>
      </trkpt>
      <trkpt lat="44.91377" lon="6.08292">
        <ele>1804.4</ele>
        <time>2024-08-14T08:52:27Z</time>
      </trkpt>
      <trkpt lat="44.91377" lon="6.08292">
        <ele>1804.4</ele>
        <time>2024-08-14T08:52:28Z</time>
      </trkpt>
      <trkpt lat="44.91377" lon="6.08292">
        <ele>1804.4</ele>
        <time>2024-08-14T08:52:29Z</time>
      </trkpt>
      <trkpt lat="44.91379" lon="6.08293">
        <ele>1804.6</ele>
        <time>2024-08-14T08:52:30Z</time>
      </trkpt>
      <trkpt lat="44.91379" lon="6.08293">
        <ele>1804.6</ele>
        <time>2024-08-14T08:52:31Z</time>
      </trkpt>
      <trkpt lat="44.91379" lon="6.08293">
        <ele>1804.6</ele>
        <time>2024-08-14T08:52:32Z</time>
      </trkpt>
      <trkpt lat="44.91379" lon="6.08293">
        <ele>1805</ele>
        <time>2024-08-14T08:52:33Z</time>
      </trkpt>
      <trkpt lat="44.91381" lon="6.08292">
        <ele>1805</ele>
        <time>2024-08-14T08:52:34Z</time>
      </trkpt>
      <trkpt lat="44.91381" lon="6.08292">
        <ele>1805.4</ele>
        <time>2024-08-14T08:52:35Z</time>
      </trkpt>
      <trkpt lat="44.91381" lon="6.08292">
        <ele>1805.6</ele>
        <time>2024-08-14T08:52:36Z</time>
      </trkpt>
      <trkpt lat="44.91381" lon="6.08292">
        <ele>1805.8</ele>
        <time>2024-08-14T08:52:37Z</time>
      </trkpt>
      <trkpt lat="44.91383" lon="6.08291">
        <ele>1806</ele>
        <time>2024-08-14T08:52:38Z</time>
      </trkpt>
      <trkpt lat="44.91383" lon="6.08291">
        <ele>1806</ele>
        <time>2024-08-14T08:52:39Z</time>
      </trkpt>
      <trkpt lat="44.91383" lon="6.08291">
        <ele>1806.2</ele>
        <time>2024-08-14T08:52:40Z</time>
      </trkpt>
      <trkpt lat="44.91383" lon="6.08291">
        <ele>1806.4</ele>
        <time>2024-08-14T08:52:41Z</time>
      </trkpt>
      <trkpt lat="44.91385" lon="6.0829">
        <ele>1806.6</ele>
        <time>2024-08-14T08:52:42Z</time>
      </trkpt>
      <trkpt lat="44.91385" lon="6.0829">
        <ele>1806.8</ele>
        <time>2024-08-14T08:52:43Z</time>
      </trkpt>
      <trkpt lat="44.91385" lon="6.0829">
        <ele>1807.2</ele>
        <time>2024-08-14T08:52:44Z</time>
      </trkpt>
      <trkpt lat="44.91387" lon="6.08289">
        <ele>1807.4</ele>
        <time>2024-08-14T08:52:45Z</time>
      </trkpt>
      <trkpt lat="44.91387" lon="6.08289">
        <ele>1807.8</ele>
        <time>2024-08-14T08:52:46Z</time>
      </trkpt>
      <trkpt lat="44.91387" lon="6.08289">
        <ele>1808.2</ele>
        <time>2024-08-14T08:52:47Z</time>
      </trkpt>
      <trkpt lat="44.91389" lon="6.08289">
        <ele>1808.4</ele>
        <time>2024-08-14T08:52:48Z</time>
      </trkpt>
      <trkpt lat="44.91389" lon="6.08289">
        <ele>1808.8</ele>
        <time>2024-08-14T08:52:49Z</time>
      </trkpt>
      <trkpt lat="44.91389" lon="6.08289">
        <ele>1809</ele>
        <time>2024-08-14T08:52:50Z</time>
      </trkpt>
      <trkpt lat="44.91391" lon="6.08289">
        <ele>1809</ele>
        <time>2024-08-14T08:52:51Z</time>
      </trkpt>
      <trkpt lat="44.91391" lon="6.08289">
        <ele>1809</ele>
        <time>2024-08-14T08:52:52Z</time>
      </trkpt>
      <trkpt lat="44.91391" lon="6.08289">
        <ele>1809.6</ele>
        <time>2024-08-14T08:52:53Z</time>
      </trkpt>
      <trkpt lat="44.91393" lon="6.0829">
        <ele>1809.6</ele>
        <time>2024-08-14T08:52:54Z</time>
      </trkpt>
      <trkpt lat="44.91393" lon="6.0829">
        <ele>1809.8</ele>
        <time>2024-08-14T08:52:55Z</time>
      </trkpt>
      <trkpt lat="44.91393" lon="6.0829">
        <ele>1810</ele>
        <time>2024-08-14T08:52:56Z</time>
      </trkpt>
      <trkpt lat="44.91395" lon="6.0829">
        <ele>1810.2</ele>
        <time>2024-08-14T08:52:57Z</time>
      </trkpt>
      <trkpt lat="44.91395" lon="6.0829">
        <ele>1810.4</ele>
        <time>2024-08-14T08:52:58Z</time>
      </trkpt>
      <trkpt lat="44.91395" lon="6.0829">
        <ele>1810.8</ele>
        <time>2024-08-14T08:52:59Z</time>
      </trkpt>
      <trkpt lat="44.91397" lon="6.0829">
        <ele>1810.8</ele>
        <time>2024-08-14T08:53:00Z</time>
      </trkpt>
      <trkpt lat="44.91397" lon="6.0829">
        <ele>1811.2</ele>
        <time>2024-08-14T08:53:01Z</time>
      </trkpt>
      <trkpt lat="44.91397" lon="6.0829">
        <ele>1811.6</ele>
        <time>2024-08-14T08:53:02Z</time>
      </trkpt>
      <trkpt lat="44.91399" lon="6.0829">
        <ele>1811.6</ele>
        <time>2024-08-14T08:53:03Z</time>
      </trkpt>
      <trkpt lat="44.91399" lon="6.0829">
        <ele>1811.6</ele>
        <time>2024-08-14T08:53:04Z</time>
      </trkpt>
      <trkpt lat="44.91399" lon="6.0829">
        <ele>1812</ele>
        <time>2024-08-14T08:53:05Z</time>
      </trkpt>
      <trkpt lat="44.91399" lon="6.0829">
        <ele>1812.2</ele>
        <time>2024-08-14T08:53:06Z</time>
      </trkpt>
      <trkpt lat="44.91401" lon="6.08289">
        <ele>1812.4</ele>
        <time>2024-08-14T08:53:07Z</time>
      </trkpt>
      <trkpt lat="44.91401" lon="6.08289">
        <ele>1813</ele>
        <time>2024-08-14T08:53:08Z</time>
      </trkpt>
      <trkpt lat="44.91401" lon="6.08289">
        <ele>1813</ele>
        <time>2024-08-14T08:53:09Z</time>
      </trkpt>
      <trkpt lat="44.91401" lon="6.08289">
        <ele>1813</ele>
        <time>2024-08-14T08:53:10Z</time>
      </trkpt>
      <trkpt lat="44.91404" lon="6.0829">
        <ele>1813.2</ele>
        <time>2024-08-14T08:53:11Z</time>
      </trkpt>
      <trkpt lat="44.91404" lon="6.0829">
        <ele>1813.4</ele>
        <time>2024-08-14T08:53:12Z</time>
      </trkpt>
      <trkpt lat="44.91404" lon="6.0829">
        <ele>1813.6</ele>
        <time>2024-08-14T08:53:13Z</time>
      </trkpt>
      <trkpt lat="44.91405" lon="6.08289">
        <ele>1813.8</ele>
        <time>2024-08-14T08:53:14Z</time>
      </trkpt>
      <trkpt lat="44.91405" lon="6.08289">
        <ele>1814</ele>
        <time>2024-08-14T08:53:15Z</time>
      </trkpt>
      <trkpt lat="44.91405" lon="6.08289">
        <ele>1814</ele>
        <time>2024-08-14T08:53:16Z</time>
      </trkpt>
      <trkpt lat="44.91407" lon="6.08289">
        <ele>1814.6</ele>
        <time>2024-08-14T08:53:17Z</time>
      </trkpt>
      <trkpt lat="44.91407" lon="6.08289">
        <ele>1814.8</ele>
        <time>2024-08-14T08:53:18Z</time>
      </trkpt>
      <trkpt lat="44.91407" lon="6.08289">
        <ele>1815.2</ele>
        <time>2024-08-14T08:53:19Z</time>
      </trkpt>
      <trkpt lat="44.91407" lon="6.08289">
        <ele>1815.4</ele>
        <time>2024-08-14T08:53:20Z</time>
      </trkpt>
      <trkpt lat="44.91409" lon="6.08289">
        <ele>1815.4</ele>
        <time>2024-08-14T08:53:21Z</time>
      </trkpt>
      <trkpt lat="44.91409" lon="6.08289">
        <ele>1815.4</ele>
        <time>2024-08-14T08:53:22Z</time>
      </trkpt>
      <trkpt lat="44.91409" lon="6.08289">
        <ele>1816</ele>
        <time>2024-08-14T08:53:23Z</time>
      </trkpt>
      <trkpt lat="44.91411" lon="6.08289">
        <ele>1816</ele>
        <time>2024-08-14T08:53:24Z</time>
      </trkpt>
      <trkpt lat="44.91411" lon="6.08289">
        <ele>1816.2</ele>
        <time>2024-08-14T08:53:25Z</time>
      </trkpt>
      <trkpt lat="44.91411" lon="6.08289">
        <ele>1816.4</ele>
        <time>2024-08-14T08:53:26Z</time>
      </trkpt>
      <trkpt lat="44.91413" lon="6.08289">
        <ele>1816.6</ele>
        <time>2024-08-14T08:53:27Z</time>
      </trkpt>
      <trkpt lat="44.91413" lon="6.08289">
        <ele>1816.6</ele>
        <time>2024-08-14T08:53:28Z</time>
      </trkpt>
      <trkpt lat="44.91413" lon="6.08289">
        <ele>1817</ele>
        <time>2024-08-14T08:53:29Z</time>
      </trkpt>
      <trkpt lat="44.91415" lon="6.08288">
        <ele>1817</ele>
        <time>2024-08-14T08:53:30Z</time>
      </trkpt>
      <trkpt lat="44.91415" lon="6.08288">
        <ele>1817.6</ele>
        <time>2024-08-14T08:53:31Z</time>
      </trkpt>
      <trkpt lat="44.91415" lon="6.08288">
        <ele>1817.6</ele>
        <time>2024-08-14T08:53:32Z</time>
      </trkpt>
      <trkpt lat="44.91415" lon="6.08288">
        <ele>1817.8</ele>
        <time>2024-08-14T08:53:33Z</time>
      </trkpt>
      <trkpt lat="44.91417" lon="6.08287">
        <ele>1817.8</ele>
        <time>2024-08-14T08:53:34Z</time>
      </trkpt>
      <trkpt lat="44.91417" lon="6.08287">
        <ele>1818.2</ele>
        <time>2024-08-14T08:53:35Z</time>
      </trkpt>
      <trkpt lat="44.91417" lon="6.08287">
        <ele>1818.2</ele>
        <time>2024-08-14T08:53:36Z</time>
      </trkpt>
      <trkpt lat="44.91419" lon="6.08287">
        <ele>1818.8</ele>
        <time>2024-08-14T08:53:37Z</time>
      </trkpt>
      <trkpt lat="44.91419" lon="6.08287">
        <ele>1818.8</ele>
        <time>2024-08-14T08:53:38Z</time>
      </trkpt>
      <trkpt lat="44.91419" lon="6.08287">
        <ele>1819</ele>
        <time>2024-08-14T08:53:39Z</time>
      </trkpt>
      <trkpt lat="44.91421" lon="6.08287">
        <ele>1819</ele>
        <time>2024-08-14T08:53:40Z</time>
      </trkpt>
      <trkpt lat="44.91421" lon="6.08287">
        <ele>1819.2</ele>
        <time>2024-08-14T08:53:41Z</time>
      </trkpt>
      <trkpt lat="44.91421" lon="6.08287">
        <ele>1819.2</ele>
        <time>2024-08-14T08:53:42Z</time>
      </trkpt>
      <trkpt lat="44.91423" lon="6.08287">
        <ele>1819.8</ele>
        <time>2024-08-14T08:53:43Z</time>
      </trkpt>
      <trkpt lat="44.91423" lon="6.08287">
        <ele>1820.2</ele>
        <time>2024-08-14T08:53:44Z</time>
      </trkpt>
      <trkpt lat="44.91423" lon="6.08287">
        <ele>1820.2</ele>
        <time>2024-08-14T08:53:45Z</time>
      </trkpt>
      <trkpt lat="44.91423" lon="6.08287">
        <ele>1820.2</ele>
        <time>2024-08-14T08:53:46Z</time>
      </trkpt>
      <trkpt lat="44.91425" lon="6.08287">
        <ele>1820.8</ele>
        <time>2024-08-14T08:53:47Z</time>
      </trkpt>
      <trkpt lat="44.91425" lon="6.08287">
        <ele>1821</ele>
        <time>2024-08-14T08:53:48Z</time>
      </trkpt>
      <trkpt lat="44.91425" lon="6.08287">
        <ele>1821</ele>
        <time>2024-08-14T08:53:49Z</time>
      </trkpt>
      <trkpt lat="44.91427" lon="6.08286">
        <ele>1821.4</ele>
        <time>2024-08-14T08:53:50Z</time>
      </trkpt>
      <trkpt lat="44.91427" lon="6.08286">
        <ele>1821.4</ele>
        <time>2024-08-14T08:53:51Z</time>
      </trkpt>
      <trkpt lat="44.91427" lon="6.08286">
        <ele>1821.6</ele>
        <time>2024-08-14T08:53:52Z</time>
      </trkpt>
      <trkpt lat="44.91427" lon="6.08286">
        <ele>1822</ele>
        <time>2024-08-14T08:53:53Z</time>
      </trkpt>
      <trkpt lat="44.91429" lon="6.08285">
        <ele>1822.2</ele>
        <time>2024-08-14T08:53:54Z</time>
      </trkpt>
      <trkpt lat="44.91429" lon="6.08285">
        <ele>1822.2</ele>
        <time>2024-08-14T08:53:55Z</time>
      </trkpt>
      <trkpt lat="44.91429" lon="6.08285">
        <ele>1822.2</ele>
        <time>2024-08-14T08:53:56Z</time>
      </trkpt>
      <trkpt lat="44.9143" lon="6.08283">
        <ele>1822.4</ele>
        <time>2024-08-14T08:53:57Z</time>
      </trkpt>
      <trkpt lat="44.9143" lon="6.08283">
        <ele>1823</ele>
        <time>2024-08-14T08:53:58Z</time>
      </trkpt>
      <trkpt lat="44.9143" lon="6.08283">
        <ele>1823</ele>
        <time>2024-08-14T08:53:59Z</time>
      </trkpt>
      <trkpt lat="44.91432" lon="6.08281">
        <ele>1823.2</ele>
        <time>2024-08-14T08:54:00Z</time>
      </trkpt>
      <trkpt lat="44.91432" lon="6.08281">
        <ele>1823.4</ele>
        <time>2024-08-14T08:54:01Z</time>
      </trkpt>
      <trkpt lat="44.91432" lon="6.08281">
        <ele>1824</ele>
        <time>2024-08-14T08:54:02Z</time>
      </trkpt>
      <trkpt lat="44.91435" lon="6.08281">
        <ele>1824</ele>
        <time>2024-08-14T08:54:03Z</time>
      </trkpt>
      <trkpt lat="44.91435" lon="6.08281">
        <ele>1824.2</ele>
        <time>2024-08-14T08:54:04Z</time>
      </trkpt>
      <trkpt lat="44.91435" lon="6.08281">
        <ele>1824.4</ele>
        <time>2024-08-14T08:54:05Z</time>
      </trkpt>
      <trkpt lat="44.91436" lon="6.08279">
        <ele>1824.8</ele>
        <time>2024-08-14T08:54:06Z</time>
      </trkpt>
      <trkpt lat="44.91436" lon="6.08279">
        <ele>1825</ele>
        <time>2024-08-14T08:54:07Z</time>
      </trkpt>
      <trkpt lat="44.91436" lon="6.08279">
        <ele>1825</ele>
        <time>2024-08-14T08:54:08Z</time>
      </trkpt>
      <trkpt lat="44.91436" lon="6.08279">
        <ele>1825.6</ele>
        <time>2024-08-14T08:54:09Z</time>
      </trkpt>
      <trkpt lat="44.91439" lon="6.08279">
        <ele>1825.8</ele>
        <time>2024-08-14T08:54:10Z</time>
      </trkpt>
      <trkpt lat="44.91439" lon="6.08279">
        <ele>1826</ele>
        <time>2024-08-14T08:54:11Z</time>
      </trkpt>
      <trkpt lat="44.91439" lon="6.08279">
        <ele>1826</ele>
        <time>2024-08-14T08:54:12Z</time>
      </trkpt>
      <trkpt lat="44.91439" lon="6.08279">
        <ele>1826.2</ele>
        <time>2024-08-14T08:54:13Z</time>
      </trkpt>
      <trkpt lat="44.91441" lon="6.08279">
        <ele>1826.4</ele>
        <time>2024-08-14T08:54:14Z</time>
      </trkpt>
      <trkpt lat="44.91441" lon="6.08279">
        <ele>1826.6</ele>
        <time>2024-08-14T08:54:15Z</time>
      </trkpt>
      <trkpt lat="44.91441" lon="6.08279">
        <ele>1826.8</ele>
        <time>2024-08-14T08:54:16Z</time>
      </trkpt>
      <trkpt lat="44.91443" lon="6.08279">
        <ele>1827</ele>
        <time>2024-08-14T08:54:17Z</time>
      </trkpt>
      <trkpt lat="44.91443" lon="6.08279">
        <ele>1827.4</ele>
        <time>2024-08-14T08:54:18Z</time>
      </trkpt>
      <trkpt lat="44.91443" lon="6.08279">
        <ele>1827.6</ele>
        <time>2024-08-14T08:54:19Z</time>
      </trkpt>
      <trkpt lat="44.91445" lon="6.08279">
        <ele>1827.6</ele>
        <time>2024-08-14T08:54:20Z</time>
      </trkpt>
      <trkpt lat="44.91445" lon="6.08279">
        <ele>1827.8</ele>
        <time>2024-08-14T08:54:21Z</time>
      </trkpt>
      <trkpt lat="44.91445" lon="6.08279">
        <ele>1827.8</ele>
        <time>2024-08-14T08:54:22Z</time>
      </trkpt>
      <trkpt lat="44.91448" lon="6.0828">
        <ele>1828</ele>
        <time>2024-08-14T08:54:23Z</time>
      </trkpt>
      <trkpt lat="44.91448" lon="6.0828">
        <ele>1828.6</ele>
        <time>2024-08-14T08:54:24Z</time>
      </trkpt>
      <trkpt lat="44.91448" lon="6.0828">
        <ele>1828.6</ele>
        <time>2024-08-14T08:54:25Z</time>
      </trkpt>
      <trkpt lat="44.9145" lon="6.0828">
        <ele>1828.8</ele>
        <time>2024-08-14T08:54:26Z</time>
      </trkpt>
      <trkpt lat="44.9145" lon="6.0828">
        <ele>1829.2</ele>
        <time>2024-08-14T08:54:27Z</time>
      </trkpt>
      <trkpt lat="44.9145" lon="6.0828">
        <ele>1829.4</ele>
        <time>2024-08-14T08:54:28Z</time>
      </trkpt>
      <trkpt lat="44.91452" lon="6.0828">
        <ele>1829.6</ele>
        <time>2024-08-14T08:54:29Z</time>
      </trkpt>
      <trkpt lat="44.91452" lon="6.0828">
        <ele>1829.8</ele>
        <time>2024-08-14T08:54:30Z</time>
      </trkpt>
      <trkpt lat="44.91452" lon="6.0828">
        <ele>1829.8</ele>
        <time>2024-08-14T08:54:31Z</time>
      </trkpt>
      <trkpt lat="44.91454" lon="6.0828">
        <ele>1829.8</ele>
        <time>2024-08-14T08:54:32Z</time>
      </trkpt>
      <trkpt lat="44.91454" lon="6.0828">
        <ele>1830.2</ele>
        <time>2024-08-14T08:54:33Z</time>
      </trkpt>
      <trkpt lat="44.91454" lon="6.0828">
        <ele>1830.4</ele>
        <time>2024-08-14T08:54:34Z</time>
      </trkpt>
      <trkpt lat="44.91454" lon="6.0828">
        <ele>1830.4</ele>
        <time>2024-08-14T08:54:35Z</time>
      </trkpt>
      <trkpt lat="44.91456" lon="6.0828">
        <ele>1830.4</ele>
        <time>2024-08-14T08:54:36Z</time>
      </trkpt>
      <trkpt lat="44.91456" lon="6.0828">
        <ele>1830.8</ele>
        <time>2024-08-14T08:54:37Z</time>
      </trkpt>
      <trkpt lat="44.91456" lon="6.0828">
        <ele>1830.8</ele>
        <time>2024-08-14T08:54:38Z</time>
      </trkpt>
      <trkpt lat="44.91456" lon="6.0828">
        <ele>1831</ele>
        <time>2024-08-14T08:54:39Z</time>
      </trkpt>
      <trkpt lat="44.91456" lon="6.0828">
        <ele>1831.4</ele>
        <time>2024-08-14T08:54:40Z</time>
      </trkpt>
      <trkpt lat="44.91456" lon="6.0828">
        <ele>1831.4</ele>
        <time>2024-08-14T08:54:41Z</time>
      </trkpt>
      <trkpt lat="44.91456" lon="6.0828">
        <ele>1831.6</ele>
        <time>2024-08-14T08:54:42Z</time>
      </trkpt>
      <trkpt lat="44.91456" lon="6.0828">
        <ele>1831.6</ele>
        <time>2024-08-14T08:54:43Z</time>
      </trkpt>
      <trkpt lat="44.91456" lon="6.0828">
        <ele>1831.6</ele>
        <time>2024-08-14T08:54:44Z</time>
      </trkpt>
      <trkpt lat="44.91456" lon="6.0828">
        <ele>1831.6</ele>
        <time>2024-08-14T08:54:45Z</time>
      </trkpt>
      <trkpt lat="44.91456" lon="6.0828">
        <ele>1831.8</ele>
        <time>2024-08-14T08:54:46Z</time>
      </trkpt>
      <trkpt lat="44.91456" lon="6.0828">
        <ele>1831.8</ele>
        <time>2024-08-14T08:54:47Z</time>
      </trkpt>
      <trkpt lat="44.91459" lon="6.08281">
        <ele>1831.8</ele>
        <time>2024-08-14T08:54:48Z</time>
      </trkpt>
      <trkpt lat="44.91459" lon="6.08281">
        <ele>1832</ele>
        <time>2024-08-14T08:54:49Z</time>
      </trkpt>
      <trkpt lat="44.91461" lon="6.08281">
        <ele>1832.4</ele>
        <time>2024-08-14T08:54:50Z</time>
      </trkpt>
      <trkpt lat="44.91461" lon="6.08281">
        <ele>1832.6</ele>
        <time>2024-08-14T08:54:51Z</time>
      </trkpt>
      <trkpt lat="44.91463" lon="6.08281">
        <ele>1832.8</ele>
        <time>2024-08-14T08:54:52Z</time>
      </trkpt>
      <trkpt lat="44.91463" lon="6.08281">
        <ele>1832.8</ele>
        <time>2024-08-14T08:54:53Z</time>
      </trkpt>
      <trkpt lat="44.91465" lon="6.08281">
        <ele>1833</ele>
        <time>2024-08-14T08:54:54Z</time>
      </trkpt>
      <trkpt lat="44.91465" lon="6.08281">
        <ele>1833.4</ele>
        <time>2024-08-14T08:54:55Z</time>
      </trkpt>
      <trkpt lat="44.91465" lon="6.08281">
        <ele>1833.6</ele>
        <time>2024-08-14T08:54:56Z</time>
      </trkpt>
      <trkpt lat="44.91467" lon="6.0828">
        <ele>1833.8</ele>
        <time>2024-08-14T08:54:57Z</time>
      </trkpt>
      <trkpt lat="44.91467" lon="6.0828">
        <ele>1834.6</ele>
        <time>2024-08-14T08:54:58Z</time>
      </trkpt>
      <trkpt lat="44.91467" lon="6.0828">
        <ele>1834.6</ele>
        <time>2024-08-14T08:54:59Z</time>
      </trkpt>
      <trkpt lat="44.91469" lon="6.0828">
        <ele>1834.8</ele>
        <time>2024-08-14T08:55:00Z</time>
      </trkpt>
      <trkpt lat="44.91469" lon="6.0828">
        <ele>1835.2</ele>
        <time>2024-08-14T08:55:01Z</time>
      </trkpt>
      <trkpt lat="44.91469" lon="6.0828">
        <ele>1835.4</ele>
        <time>2024-08-14T08:55:02Z</time>
      </trkpt>
      <trkpt lat="44.91471" lon="6.08279">
        <ele>1835.4</ele>
        <time>2024-08-14T08:55:03Z</time>
      </trkpt>
      <trkpt lat="44.91471" lon="6.08279">
        <ele>1835.4</ele>
        <time>2024-08-14T08:55:04Z</time>
      </trkpt>
      <trkpt lat="44.91471" lon="6.08279">
        <ele>1835.6</ele>
        <time>2024-08-14T08:55:05Z</time>
      </trkpt>
      <trkpt lat="44.91473" lon="6.08278">
        <ele>1836</ele>
        <time>2024-08-14T08:55:06Z</time>
      </trkpt>
      <trkpt lat="44.91473" lon="6.08278">
        <ele>1836</ele>
        <time>2024-08-14T08:55:07Z</time>
      </trkpt>
      <trkpt lat="44.91475" lon="6.08278">
        <ele>1836.2</ele>
        <time>2024-08-14T08:55:08Z</time>
      </trkpt>
      <trkpt lat="44.91475" lon="6.08278">
        <ele>1836.4</ele>
        <time>2024-08-14T08:55:09Z</time>
      </trkpt>
      <trkpt lat="44.91475" lon="6.08278">
        <ele>1836.4</ele>
        <time>2024-08-14T08:55:10Z</time>
      </trkpt>
      <trkpt lat="44.91477" lon="6.08278">
        <ele>1836.8</ele>
        <time>2024-08-14T08:55:11Z</time>
      </trkpt>
      <trkpt lat="44.91477" lon="6.08278">
        <ele>1837</ele>
        <time>2024-08-14T08:55:12Z</time>
      </trkpt>
      <trkpt lat="44.91479" lon="6.08278">
        <ele>1837.2</ele>
        <time>2024-08-14T08:55:13Z</time>
      </trkpt>
      <trkpt lat="44.91479" lon="6.08278">
        <ele>1837.4</ele>
        <time>2024-08-14T08:55:14Z</time>
      </trkpt>
      <trkpt lat="44.91479" lon="6.08278">
        <ele>1837.6</ele>
        <time>2024-08-14T08:55:15Z</time>
      </trkpt>
      <trkpt lat="44.91482" lon="6.08278">
        <ele>1838</ele>
        <time>2024-08-14T08:55:16Z</time>
      </trkpt>
      <trkpt lat="44.91482" lon="6.08278">
        <ele>1838.2</ele>
        <time>2024-08-14T08:55:17Z</time>
      </trkpt>
      <trkpt lat="44.91482" lon="6.08278">
        <ele>1838.2</ele>
        <time>2024-08-14T08:55:18Z</time>
      </trkpt>
      <trkpt lat="44.91484" lon="6.08278">
        <ele>1838.6</ele>
        <time>2024-08-14T08:55:19Z</time>
      </trkpt>
      <trkpt lat="44.91484" lon="6.08278">
        <ele>1838.6</ele>
        <time>2024-08-14T08:55:20Z</time>
      </trkpt>
      <trkpt lat="44.91484" lon="6.08278">
        <ele>1839</ele>
        <time>2024-08-14T08:55:21Z</time>
      </trkpt>
      <trkpt lat="44.91486" lon="6.08277">
        <ele>1839</ele>
        <time>2024-08-14T08:55:22Z</time>
      </trkpt>
      <trkpt lat="44.91486" lon="6.08277">
        <ele>1839.2</ele>
        <time>2024-08-14T08:55:23Z</time>
      </trkpt>
      <trkpt lat="44.91486" lon="6.08277">
        <ele>1839.6</ele>
        <time>2024-08-14T08:55:24Z</time>
      </trkpt>
      <trkpt lat="44.91486" lon="6.08277">
        <ele>1839.6</ele>
        <time>2024-08-14T08:55:25Z</time>
      </trkpt>
      <trkpt lat="44.91488" lon="6.08277">
        <ele>1840</ele>
        <time>2024-08-14T08:55:26Z</time>
      </trkpt>
      <trkpt lat="44.91488" lon="6.08277">
        <ele>1840.4</ele>
        <time>2024-08-14T08:55:27Z</time>
      </trkpt>
      <trkpt lat="44.91488" lon="6.08277">
        <ele>1840.4</ele>
        <time>2024-08-14T08:55:28Z</time>
      </trkpt>
      <trkpt lat="44.91488" lon="6.08277">
        <ele>1840.8</ele>
        <time>2024-08-14T08:55:29Z</time>
      </trkpt>
      <trkpt lat="44.9149" lon="6.08277">
        <ele>1841.2</ele>
        <time>2024-08-14T08:55:30Z</time>
      </trkpt>
      <trkpt lat="44.9149" lon="6.08277">
        <ele>1841.2</ele>
        <time>2024-08-14T08:55:31Z</time>
      </trkpt>
      <trkpt lat="44.9149" lon="6.08277">
        <ele>1841.4</ele>
        <time>2024-08-14T08:55:32Z</time>
      </trkpt>
      <trkpt lat="44.91492" lon="6.08277">
        <ele>1841.6</ele>
        <time>2024-08-14T08:55:33Z</time>
      </trkpt>
      <trkpt lat="44.91492" lon="6.08277">
        <ele>1841.6</ele>
        <time>2024-08-14T08:55:34Z</time>
      </trkpt>
      <trkpt lat="44.91492" lon="6.08277">
        <ele>1841.8</ele>
        <time>2024-08-14T08:55:35Z</time>
      </trkpt>
      <trkpt lat="44.91492" lon="6.08277">
        <ele>1841.8</ele>
        <time>2024-08-14T08:55:36Z</time>
      </trkpt>
      <trkpt lat="44.91494" lon="6.08277">
        <ele>1842.2</ele>
        <time>2024-08-14T08:55:37Z</time>
      </trkpt>
      <trkpt lat="44.91494" lon="6.08277">
        <ele>1842.6</ele>
        <time>2024-08-14T08:55:38Z</time>
      </trkpt>
      <trkpt lat="44.91494" lon="6.08277">
        <ele>1842.8</ele>
        <time>2024-08-14T08:55:39Z</time>
      </trkpt>
      <trkpt lat="44.91494" lon="6.08277">
        <ele>1842.8</ele>
        <time>2024-08-14T08:55:40Z</time>
      </trkpt>
      <trkpt lat="44.91496" lon="6.08277">
        <ele>1842.8</ele>
        <time>2024-08-14T08:55:41Z</time>
      </trkpt>
      <trkpt lat="44.91496" lon="6.08277">
        <ele>1843.4</ele>
        <time>2024-08-14T08:55:42Z</time>
      </trkpt>
      <trkpt lat="44.91496" lon="6.08277">
        <ele>1843.4</ele>
        <time>2024-08-14T08:55:43Z</time>
      </trkpt>
      <trkpt lat="44.91498" lon="6.08277">
        <ele>1843.6</ele>
        <time>2024-08-14T08:55:44Z</time>
      </trkpt>
      <trkpt lat="44.91498" lon="6.08277">
        <ele>1844</ele>
        <time>2024-08-14T08:55:45Z</time>
      </trkpt>
      <trkpt lat="44.91498" lon="6.08277">
        <ele>1844.2</ele>
        <time>2024-08-14T08:55:46Z</time>
      </trkpt>
      <trkpt lat="44.91498" lon="6.08277">
        <ele>1844.2</ele>
        <time>2024-08-14T08:55:47Z</time>
      </trkpt>
      <trkpt lat="44.915" lon="6.08278">
        <ele>1844.6</ele>
        <time>2024-08-14T08:55:48Z</time>
      </trkpt>
      <trkpt lat="44.915" lon="6.08278">
        <ele>1844.6</ele>
        <time>2024-08-14T08:55:49Z</time>
      </trkpt>
      <trkpt lat="44.915" lon="6.08278">
        <ele>1844.8</ele>
        <time>2024-08-14T08:55:50Z</time>
      </trkpt>
      <trkpt lat="44.91502" lon="6.08277">
        <ele>1845</ele>
        <time>2024-08-14T08:55:51Z</time>
      </trkpt>
      <trkpt lat="44.91502" lon="6.08277">
        <ele>1845.2</ele>
        <time>2024-08-14T08:55:52Z</time>
      </trkpt>
      <trkpt lat="44.91502" lon="6.08277">
        <ele>1845.4</ele>
        <time>2024-08-14T08:55:53Z</time>
      </trkpt>
      <trkpt lat="44.91504" lon="6.08277">
        <ele>1845.4</ele>
        <time>2024-08-14T08:55:54Z</time>
      </trkpt>
      <trkpt lat="44.91504" lon="6.08277">
        <ele>1845.8</ele>
        <time>2024-08-14T08:55:55Z</time>
      </trkpt>
      <trkpt lat="44.91504" lon="6.08277">
        <ele>1845.8</ele>
        <time>2024-08-14T08:55:56Z</time>
      </trkpt>
      <trkpt lat="44.91504" lon="6.08277">
        <ele>1846</ele>
        <time>2024-08-14T08:55:57Z</time>
      </trkpt>
      <trkpt lat="44.91506" lon="6.08278">
        <ele>1846.4</ele>
        <time>2024-08-14T08:55:58Z</time>
      </trkpt>
      <trkpt lat="44.91506" lon="6.08278">
        <ele>1846.4</ele>
        <time>2024-08-14T08:55:59Z</time>
      </trkpt>
      <trkpt lat="44.91506" lon="6.08278">
        <ele>1846.6</ele>
        <time>2024-08-14T08:56:00Z</time>
      </trkpt>
      <trkpt lat="44.91509" lon="6.08278">
        <ele>1847</ele>
        <time>2024-08-14T08:56:01Z</time>
      </trkpt>
      <trkpt lat="44.91509" lon="6.08278">
        <ele>1847.2</ele>
        <time>2024-08-14T08:56:02Z</time>
      </trkpt>
      <trkpt lat="44.91509" lon="6.08278">
        <ele>1847.2</ele>
        <time>2024-08-14T08:56:03Z</time>
      </trkpt>
      <trkpt lat="44.91511" lon="6.08279">
        <ele>1847.4</ele>
        <time>2024-08-14T08:56:04Z</time>
      </trkpt>
      <trkpt lat="44.91511" lon="6.08279">
        <ele>1847.6</ele>
        <time>2024-08-14T08:56:05Z</time>
      </trkpt>
      <trkpt lat="44.91511" lon="6.08279">
        <ele>1848.2</ele>
        <time>2024-08-14T08:56:06Z</time>
      </trkpt>
      <trkpt lat="44.91513" lon="6.0828">
        <ele>1848.4</ele>
        <time>2024-08-14T08:56:07Z</time>
      </trkpt>
      <trkpt lat="44.91513" lon="6.0828">
        <ele>1848.4</ele>
        <time>2024-08-14T08:56:08Z</time>
      </trkpt>
      <trkpt lat="44.91513" lon="6.0828">
        <ele>1848.8</ele>
        <time>2024-08-14T08:56:09Z</time>
      </trkpt>
      <trkpt lat="44.91515" lon="6.0828">
        <ele>1849.2</ele>
        <time>2024-08-14T08:56:10Z</time>
      </trkpt>
      <trkpt lat="44.91515" lon="6.0828">
        <ele>1849.4</ele>
        <time>2024-08-14T08:56:11Z</time>
      </trkpt>
      <trkpt lat="44.91515" lon="6.0828">
        <ele>1849.4</ele>
        <time>2024-08-14T08:56:12Z</time>
      </trkpt>
      <trkpt lat="44.91517" lon="6.08281">
        <ele>1849.4</ele>
        <time>2024-08-14T08:56:13Z</time>
      </trkpt>
      <trkpt lat="44.91517" lon="6.08281">
        <ele>1849.8</ele>
        <time>2024-08-14T08:56:14Z</time>
      </trkpt>
      <trkpt lat="44.91517" lon="6.08281">
        <ele>1850</ele>
        <time>2024-08-14T08:56:15Z</time>
      </trkpt>
      <trkpt lat="44.91518" lon="6.08282">
        <ele>1850</ele>
        <time>2024-08-14T08:56:16Z</time>
      </trkpt>
      <trkpt lat="44.91518" lon="6.08282">
        <ele>1850.2</ele>
        <time>2024-08-14T08:56:17Z</time>
      </trkpt>
      <trkpt lat="44.91518" lon="6.08282">
        <ele>1850.4</ele>
        <time>2024-08-14T08:56:18Z</time>
      </trkpt>
      <trkpt lat="44.91521" lon="6.08281">
        <ele>1850.8</ele>
        <time>2024-08-14T08:56:19Z</time>
      </trkpt>
      <trkpt lat="44.91521" lon="6.08281">
        <ele>1851</ele>
        <time>2024-08-14T08:56:20Z</time>
      </trkpt>
      <trkpt lat="44.91521" lon="6.08281">
        <ele>1851.2</ele>
        <time>2024-08-14T08:56:21Z</time>
      </trkpt>
      <trkpt lat="44.91523" lon="6.08282">
        <ele>1851.4</ele>
        <time>2024-08-14T08:56:22Z</time>
      </trkpt>
      <trkpt lat="44.91523" lon="6.08282">
        <ele>1851.8</ele>
        <time>2024-08-14T08:56:23Z</time>
      </trkpt>
      <trkpt lat="44.91523" lon="6.08282">
        <ele>1852</ele>
        <time>2024-08-14T08:56:24Z</time>
      </trkpt>
      <trkpt lat="44.91525" lon="6.08282">
        <ele>1852.4</ele>
        <time>2024-08-14T08:56:25Z</time>
      </trkpt>
      <trkpt lat="44.91525" lon="6.08282">
        <ele>1852.4</ele>
        <time>2024-08-14T08:56:26Z</time>
      </trkpt>
      <trkpt lat="44.91527" lon="6.08282">
        <ele>1852.2</ele>
        <time>2024-08-14T08:56:27Z</time>
      </trkpt>
      <trkpt lat="44.91527" lon="6.08282">
        <ele>1852.2</ele>
        <time>2024-08-14T08:56:28Z</time>
      </trkpt>
      <trkpt lat="44.91527" lon="6.08282">
        <ele>1852.2</ele>
        <time>2024-08-14T08:56:29Z</time>
      </trkpt>
      <trkpt lat="44.91527" lon="6.08282">
        <ele>1852.4</ele>
        <time>2024-08-14T08:56:30Z</time>
      </trkpt>
      <trkpt lat="44.9153" lon="6.08283">
        <ele>1852.8</ele>
        <time>2024-08-14T08:56:31Z</time>
      </trkpt>
      <trkpt lat="44.9153" lon="6.08283">
        <ele>1853.2</ele>
        <time>2024-08-14T08:56:32Z</time>
      </trkpt>
      <trkpt lat="44.9153" lon="6.08283">
        <ele>1853.2</ele>
        <time>2024-08-14T08:56:33Z</time>
      </trkpt>
      <trkpt lat="44.9153" lon="6.08283">
        <ele>1853.6</ele>
        <time>2024-08-14T08:56:34Z</time>
      </trkpt>
      <trkpt lat="44.91532" lon="6.08283">
        <ele>1853.8</ele>
        <time>2024-08-14T08:56:35Z</time>
      </trkpt>
      <trkpt lat="44.91532" lon="6.08283">
        <ele>1854</ele>
        <time>2024-08-14T08:56:36Z</time>
      </trkpt>
      <trkpt lat="44.91532" lon="6.08283">
        <ele>1854</ele>
        <time>2024-08-14T08:56:37Z</time>
      </trkpt>
      <trkpt lat="44.91532" lon="6.08283">
        <ele>1854.2</ele>
        <time>2024-08-14T08:56:38Z</time>
      </trkpt>
      <trkpt lat="44.91534" lon="6.08284">
        <ele>1854.6</ele>
        <time>2024-08-14T08:56:39Z</time>
      </trkpt>
      <trkpt lat="44.91534" lon="6.08284">
        <ele>1854.8</ele>
        <time>2024-08-14T08:56:40Z</time>
      </trkpt>
      <trkpt lat="44.91536" lon="6.08285">
        <ele>1855</ele>
        <time>2024-08-14T08:56:41Z</time>
      </trkpt>
      <trkpt lat="44.91536" lon="6.08285">
        <ele>1855</ele>
        <time>2024-08-14T08:56:42Z</time>
      </trkpt>
      <trkpt lat="44.91536" lon="6.08285">
        <ele>1855</ele>
        <time>2024-08-14T08:56:43Z</time>
      </trkpt>
      <trkpt lat="44.91539" lon="6.08286">
        <ele>1855</ele>
        <time>2024-08-14T08:56:44Z</time>
      </trkpt>
      <trkpt lat="44.91539" lon="6.08286">
        <ele>1855</ele>
        <time>2024-08-14T08:56:45Z</time>
      </trkpt>
      <trkpt lat="44.91539" lon="6.08286">
        <ele>1855</ele>
        <time>2024-08-14T08:56:46Z</time>
      </trkpt>
      <trkpt lat="44.91542" lon="6.08288">
        <ele>1855.4</ele>
        <time>2024-08-14T08:56:47Z</time>
      </trkpt>
      <trkpt lat="44.91542" lon="6.08288">
        <ele>1855.4</ele>
        <time>2024-08-14T08:56:48Z</time>
      </trkpt>
      <trkpt lat="44.91542" lon="6.08288">
        <ele>1855.4</ele>
        <time>2024-08-14T08:56:49Z</time>
      </trkpt>
      <trkpt lat="44.91544" lon="6.08288">
        <ele>1855.8</ele>
        <time>2024-08-14T08:56:50Z</time>
      </trkpt>
      <trkpt lat="44.91544" lon="6.08288">
        <ele>1856</ele>
        <time>2024-08-14T08:56:51Z</time>
      </trkpt>
      <trkpt lat="44.91544" lon="6.08288">
        <ele>1856</ele>
        <time>2024-08-14T08:56:52Z</time>
      </trkpt>
      <trkpt lat="44.91546" lon="6.08287">
        <ele>1856.8</ele>
        <time>2024-08-14T08:56:53Z</time>
      </trkpt>
      <trkpt lat="44.91546" lon="6.08287">
        <ele>1856.8</ele>
        <time>2024-08-14T08:56:54Z</time>
      </trkpt>
      <trkpt lat="44.91548" lon="6.08287">
        <ele>1857</ele>
        <time>2024-08-14T08:56:55Z</time>
      </trkpt>
      <trkpt lat="44.91548" lon="6.08287">
        <ele>1857</ele>
        <time>2024-08-14T08:56:56Z</time>
      </trkpt>
      <trkpt lat="44.91548" lon="6.08287">
        <ele>1857</ele>
        <time>2024-08-14T08:56:57Z</time>
      </trkpt>
      <trkpt lat="44.9155" lon="6.08287">
        <ele>1857.4</ele>
        <time>2024-08-14T08:56:58Z</time>
      </trkpt>
      <trkpt lat="44.9155" lon="6.08287">
        <ele>1857.4</ele>
        <time>2024-08-14T08:56:59Z</time>
      </trkpt>
      <trkpt lat="44.9155" lon="6.08287">
        <ele>1857.6</ele>
        <time>2024-08-14T08:57:00Z</time>
      </trkpt>
      <trkpt lat="44.91552" lon="6.08288">
        <ele>1858.2</ele>
        <time>2024-08-14T08:57:01Z</time>
      </trkpt>
      <trkpt lat="44.91552" lon="6.08288">
        <ele>1858.2</ele>
        <time>2024-08-14T08:57:02Z</time>
      </trkpt>
      <trkpt lat="44.91552" lon="6.08288">
        <ele>1858.2</ele>
        <time>2024-08-14T08:57:03Z</time>
      </trkpt>
      <trkpt lat="44.91554" lon="6.08288">
        <ele>1858.4</ele>
        <time>2024-08-14T08:57:04Z</time>
      </trkpt>
      <trkpt lat="44.91554" lon="6.08288">
        <ele>1858.6</ele>
        <time>2024-08-14T08:57:05Z</time>
      </trkpt>
      <trkpt lat="44.91554" lon="6.08288">
        <ele>1859</ele>
        <time>2024-08-14T08:57:06Z</time>
      </trkpt>
      <trkpt lat="44.91556" lon="6.08289">
        <ele>1859.2</ele>
        <time>2024-08-14T08:57:07Z</time>
      </trkpt>
      <trkpt lat="44.91556" lon="6.08289">
        <ele>1859.2</ele>
        <time>2024-08-14T08:57:08Z</time>
      </trkpt>
      <trkpt lat="44.91558" lon="6.0829">
        <ele>1859.2</ele>
        <time>2024-08-14T08:57:09Z</time>
      </trkpt>
      <trkpt lat="44.91558" lon="6.0829">
        <ele>1859.4</ele>
        <time>2024-08-14T08:57:10Z</time>
      </trkpt>
      <trkpt lat="44.9156" lon="6.08291">
        <ele>1859.6</ele>
        <time>2024-08-14T08:57:11Z</time>
      </trkpt>
      <trkpt lat="44.9156" lon="6.08291">
        <ele>1859.6</ele>
        <time>2024-08-14T08:57:12Z</time>
      </trkpt>
      <trkpt lat="44.91562" lon="6.08293">
        <ele>1859.6</ele>
        <time>2024-08-14T08:57:13Z</time>
      </trkpt>
      <trkpt lat="44.91562" lon="6.08293">
        <ele>1860.2</ele>
        <time>2024-08-14T08:57:14Z</time>
      </trkpt>
      <trkpt lat="44.91562" lon="6.08293">
        <ele>1860.4</ele>
        <time>2024-08-14T08:57:15Z</time>
      </trkpt>
      <trkpt lat="44.91563" lon="6.08295">
        <ele>1860.4</ele>
        <time>2024-08-14T08:57:16Z</time>
      </trkpt>
      <trkpt lat="44.91563" lon="6.08295">
        <ele>1860.8</ele>
        <time>2024-08-14T08:57:17Z</time>
      </trkpt>
      <trkpt lat="44.91565" lon="6.08297">
        <ele>1861.2</ele>
        <time>2024-08-14T08:57:18Z</time>
      </trkpt>
      <trkpt lat="44.91565" lon="6.08297">
        <ele>1861.4</ele>
        <time>2024-08-14T08:57:19Z</time>
      </trkpt>
      <trkpt lat="44.91566" lon="6.08299">
        <ele>1861.4</ele>
        <time>2024-08-14T08:57:20Z</time>
      </trkpt>
      <trkpt lat="44.91566" lon="6.08299">
        <ele>1862.2</ele>
        <time>2024-08-14T08:57:21Z</time>
      </trkpt>
      <trkpt lat="44.91567" lon="6.08301">
        <ele>1862.2</ele>
        <time>2024-08-14T08:57:22Z</time>
      </trkpt>
      <trkpt lat="44.91567" lon="6.08301">
        <ele>1862.2</ele>
        <time>2024-08-14T08:57:23Z</time>
      </trkpt>
      <trkpt lat="44.91567" lon="6.08301">
        <ele>1862.6</ele>
        <time>2024-08-14T08:57:24Z</time>
      </trkpt>
      <trkpt lat="44.91567" lon="6.08301">
        <ele>1862.8</ele>
        <time>2024-08-14T08:57:25Z</time>
      </trkpt>
      <trkpt lat="44.91567" lon="6.08301">
        <ele>1862.8</ele>
        <time>2024-08-14T08:57:26Z</time>
      </trkpt>
      <trkpt lat="44.91569" lon="6.08302">
        <ele>1862.8</ele>
        <time>2024-08-14T08:57:27Z</time>
      </trkpt>
      <trkpt lat="44.91569" lon="6.08302">
        <ele>1863.2</ele>
        <time>2024-08-14T08:57:28Z</time>
      </trkpt>
      <trkpt lat="44.91569" lon="6.08302">
        <ele>1863.6</ele>
        <time>2024-08-14T08:57:29Z</time>
      </trkpt>
      <trkpt lat="44.91569" lon="6.08302">
        <ele>1863.6</ele>
        <time>2024-08-14T08:57:30Z</time>
      </trkpt>
      <trkpt lat="44.91571" lon="6.08303">
        <ele>1863.8</ele>
        <time>2024-08-14T08:57:31Z</time>
      </trkpt>
      <trkpt lat="44.91571" lon="6.08303">
        <ele>1864.2</ele>
        <time>2024-08-14T08:57:32Z</time>
      </trkpt>
      <trkpt lat="44.91571" lon="6.08303">
        <ele>1864.4</ele>
        <time>2024-08-14T08:57:33Z</time>
      </trkpt>
      <trkpt lat="44.91571" lon="6.08303">
        <ele>1864.4</ele>
        <time>2024-08-14T08:57:34Z</time>
      </trkpt>
      <trkpt lat="44.91573" lon="6.08303">
        <ele>1865</ele>
        <time>2024-08-14T08:57:35Z</time>
      </trkpt>
      <trkpt lat="44.91573" lon="6.08303">
        <ele>1865</ele>
        <time>2024-08-14T08:57:36Z</time>
      </trkpt>
      <trkpt lat="44.91573" lon="6.08303">
        <ele>1865.2</ele>
        <time>2024-08-14T08:57:37Z</time>
      </trkpt>
      <trkpt lat="44.91574" lon="6.08304">
        <ele>1865.6</ele>
        <time>2024-08-14T08:57:38Z</time>
      </trkpt>
      <trkpt lat="44.91574" lon="6.08304">
        <ele>1865.6</ele>
        <time>2024-08-14T08:57:39Z</time>
      </trkpt>
      <trkpt lat="44.91574" lon="6.08304">
        <ele>1865.8</ele>
        <time>2024-08-14T08:57:40Z</time>
      </trkpt>
      <trkpt lat="44.91574" lon="6.08304">
        <ele>1866</ele>
        <time>2024-08-14T08:57:41Z</time>
      </trkpt>
      <trkpt lat="44.91577" lon="6.08304">
        <ele>1866.4</ele>
        <time>2024-08-14T08:57:42Z</time>
      </trkpt>
      <trkpt lat="44.91577" lon="6.08304">
        <ele>1866.4</ele>
        <time>2024-08-14T08:57:43Z</time>
      </trkpt>
      <trkpt lat="44.91577" lon="6.08304">
        <ele>1866.6</ele>
        <time>2024-08-14T08:57:44Z</time>
      </trkpt>
      <trkpt lat="44.91577" lon="6.08304">
        <ele>1866.8</ele>
        <time>2024-08-14T08:57:45Z</time>
      </trkpt>
      <trkpt lat="44.91579" lon="6.08304">
        <ele>1866.8</ele>
        <time>2024-08-14T08:57:46Z</time>
      </trkpt>
      <trkpt lat="44.91579" lon="6.08304">
        <ele>1867.4</ele>
        <time>2024-08-14T08:57:47Z</time>
      </trkpt>
      <trkpt lat="44.91579" lon="6.08304">
        <ele>1867.6</ele>
        <time>2024-08-14T08:57:48Z</time>
      </trkpt>
      <trkpt lat="44.91581" lon="6.08304">
        <ele>1867.6</ele>
        <time>2024-08-14T08:57:49Z</time>
      </trkpt>
      <trkpt lat="44.91581" lon="6.08304">
        <ele>1868</ele>
        <time>2024-08-14T08:57:50Z</time>
      </trkpt>
      <trkpt lat="44.91582" lon="6.08305">
        <ele>1868</ele>
        <time>2024-08-14T08:57:51Z</time>
      </trkpt>
      <trkpt lat="44.91582" lon="6.08305">
        <ele>1868.2</ele>
        <time>2024-08-14T08:57:52Z</time>
      </trkpt>
      <trkpt lat="44.91582" lon="6.08305">
        <ele>1868.4</ele>
        <time>2024-08-14T08:57:53Z</time>
      </trkpt>
      <trkpt lat="44.91584" lon="6.08307">
        <ele>1868.6</ele>
        <time>2024-08-14T08:57:54Z</time>
      </trkpt>
      <trkpt lat="44.91584" lon="6.08307">
        <ele>1868.8</ele>
        <time>2024-08-14T08:57:55Z</time>
      </trkpt>
      <trkpt lat="44.91584" lon="6.08307">
        <ele>1869</ele>
        <time>2024-08-14T08:57:56Z</time>
      </trkpt>
      <trkpt lat="44.91587" lon="6.08308">
        <ele>1869.4</ele>
        <time>2024-08-14T08:57:57Z</time>
      </trkpt>
      <trkpt lat="44.91587" lon="6.08308">
        <ele>1869.4</ele>
        <time>2024-08-14T08:57:58Z</time>
      </trkpt>
      <trkpt lat="44.91589" lon="6.08308">
        <ele>1869.4</ele>
        <time>2024-08-14T08:57:59Z</time>
      </trkpt>
      <trkpt lat="44.91589" lon="6.08308">
        <ele>1869.8</ele>
        <time>2024-08-14T08:58:00Z</time>
      </trkpt>
      <trkpt lat="44.9159" lon="6.08309">
        <ele>1869.8</ele>
        <time>2024-08-14T08:58:01Z</time>
      </trkpt>
      <trkpt lat="44.9159" lon="6.08309">
        <ele>1870.4</ele>
        <time>2024-08-14T08:58:02Z</time>
      </trkpt>
      <trkpt lat="44.9159" lon="6.08309">
        <ele>1870.4</ele>
        <time>2024-08-14T08:58:03Z</time>
      </trkpt>
      <trkpt lat="44.91593" lon="6.0831">
        <ele>1870.4</ele>
        <time>2024-08-14T08:58:04Z</time>
      </trkpt>
      <trkpt lat="44.91593" lon="6.0831">
        <ele>1870.6</ele>
        <time>2024-08-14T08:58:05Z</time>
      </trkpt>
      <trkpt lat="44.91593" lon="6.0831">
        <ele>1871.2</ele>
        <time>2024-08-14T08:58:06Z</time>
      </trkpt>
      <trkpt lat="44.91593" lon="6.0831">
        <ele>1871.2</ele>
        <time>2024-08-14T08:58:07Z</time>
      </trkpt>
      <trkpt lat="44.91595" lon="6.0831">
        <ele>1871.4</ele>
        <time>2024-08-14T08:58:08Z</time>
      </trkpt>
      <trkpt lat="44.91595" lon="6.0831">
        <ele>1871.6</ele>
        <time>2024-08-14T08:58:09Z</time>
      </trkpt>
      <trkpt lat="44.91595" lon="6.0831">
        <ele>1871.6</ele>
        <time>2024-08-14T08:58:10Z</time>
      </trkpt>
      <trkpt lat="44.91598" lon="6.08311">
        <ele>1871.8</ele>
        <time>2024-08-14T08:58:11Z</time>
      </trkpt>
      <trkpt lat="44.91598" lon="6.08311">
        <ele>1872.2</ele>
        <time>2024-08-14T08:58:12Z</time>
      </trkpt>
      <trkpt lat="44.91598" lon="6.08311">
        <ele>1872.2</ele>
        <time>2024-08-14T08:58:13Z</time>
      </trkpt>
      <trkpt lat="44.916" lon="6.08312">
        <ele>1872.2</ele>
        <time>2024-08-14T08:58:14Z</time>
      </trkpt>
      <trkpt lat="44.916" lon="6.08312">
        <ele>1872.2</ele>
        <time>2024-08-14T08:58:15Z</time>
      </trkpt>
      <trkpt lat="44.916" lon="6.08312">
        <ele>1872.4</ele>
        <time>2024-08-14T08:58:16Z</time>
      </trkpt>
      <trkpt lat="44.91602" lon="6.08312">
        <ele>1872.4</ele>
        <time>2024-08-14T08:58:17Z</time>
      </trkpt>
      <trkpt lat="44.91602" lon="6.08312">
        <ele>1872.8</ele>
        <time>2024-08-14T08:58:18Z</time>
      </trkpt>
      <trkpt lat="44.91602" lon="6.08312">
        <ele>1872.8</ele>
        <time>2024-08-14T08:58:19Z</time>
      </trkpt>
      <trkpt lat="44.91605" lon="6.08312">
        <ele>1873</ele>
        <time>2024-08-14T08:58:20Z</time>
      </trkpt>
      <trkpt lat="44.91605" lon="6.08312">
        <ele>1873</ele>
        <time>2024-08-14T08:58:21Z</time>
      </trkpt>
      <trkpt lat="44.91605" lon="6.08312">
        <ele>1873.2</ele>
        <time>2024-08-14T08:58:22Z</time>
      </trkpt>
      <trkpt lat="44.91606" lon="6.08312">
        <ele>1873.4</ele>
        <time>2024-08-14T08:58:23Z</time>
      </trkpt>
      <trkpt lat="44.91606" lon="6.08312">
        <ele>1873.8</ele>
        <time>2024-08-14T08:58:24Z</time>
      </trkpt>
      <trkpt lat="44.91606" lon="6.08312">
        <ele>1874</ele>
        <time>2024-08-14T08:58:25Z</time>
      </trkpt>
      <trkpt lat="44.91609" lon="6.08312">
        <ele>1874.4</ele>
        <time>2024-08-14T08:58:26Z</time>
      </trkpt>
      <trkpt lat="44.91609" lon="6.08312">
        <ele>1874.8</ele>
        <time>2024-08-14T08:58:27Z</time>
      </trkpt>
      <trkpt lat="44.91609" lon="6.08312">
        <ele>1874.8</ele>
        <time>2024-08-14T08:58:28Z</time>
      </trkpt>
      <trkpt lat="44.91609" lon="6.08312">
        <ele>1875.2</ele>
        <time>2024-08-14T08:58:29Z</time>
      </trkpt>
      <trkpt lat="44.91611" lon="6.08314">
        <ele>1875.4</ele>
        <time>2024-08-14T08:58:30Z</time>
      </trkpt>
      <trkpt lat="44.91611" lon="6.08314">
        <ele>1875.6</ele>
        <time>2024-08-14T08:58:31Z</time>
      </trkpt>
      <trkpt lat="44.91611" lon="6.08314">
        <ele>1876</ele>
        <time>2024-08-14T08:58:32Z</time>
      </trkpt>
      <trkpt lat="44.91613" lon="6.08316">
        <ele>1876</ele>
        <time>2024-08-14T08:58:33Z</time>
      </trkpt>
      <trkpt lat="44.91613" lon="6.08316">
        <ele>1876.2</ele>
        <time>2024-08-14T08:58:34Z</time>
      </trkpt>
      <trkpt lat="44.91613" lon="6.08316">
        <ele>1876.4</ele>
        <time>2024-08-14T08:58:35Z</time>
      </trkpt>
      <trkpt lat="44.91615" lon="6.08316">
        <ele>1876.6</ele>
        <time>2024-08-14T08:58:36Z</time>
      </trkpt>
      <trkpt lat="44.91615" lon="6.08316">
        <ele>1877</ele>
        <time>2024-08-14T08:58:37Z</time>
      </trkpt>
      <trkpt lat="44.91615" lon="6.08316">
        <ele>1877</ele>
        <time>2024-08-14T08:58:38Z</time>
      </trkpt>
      <trkpt lat="44.91618" lon="6.08317">
        <ele>1877.2</ele>
        <time>2024-08-14T08:58:39Z</time>
      </trkpt>
      <trkpt lat="44.91618" lon="6.08317">
        <ele>1877.4</ele>
        <time>2024-08-14T08:58:40Z</time>
      </trkpt>
      <trkpt lat="44.91618" lon="6.08317">
        <ele>1877.8</ele>
        <time>2024-08-14T08:58:41Z</time>
      </trkpt>
      <trkpt lat="44.91618" lon="6.08317">
        <ele>1877.8</ele>
        <time>2024-08-14T08:58:42Z</time>
      </trkpt>
      <trkpt lat="44.9162" lon="6.08319">
        <ele>1877.8</ele>
        <time>2024-08-14T08:58:43Z</time>
      </trkpt>
      <trkpt lat="44.9162" lon="6.08319">
        <ele>1877.8</ele>
        <time>2024-08-14T08:58:44Z</time>
      </trkpt>
      <trkpt lat="44.9162" lon="6.08319">
        <ele>1877.8</ele>
        <time>2024-08-14T08:58:45Z</time>
      </trkpt>
      <trkpt lat="44.91621" lon="6.0832">
        <ele>1878.4</ele>
        <time>2024-08-14T08:58:46Z</time>
      </trkpt>
      <trkpt lat="44.91621" lon="6.0832">
        <ele>1878.8</ele>
        <time>2024-08-14T08:58:47Z</time>
      </trkpt>
      <trkpt lat="44.91621" lon="6.0832">
        <ele>1878.8</ele>
        <time>2024-08-14T08:58:48Z</time>
      </trkpt>
      <trkpt lat="44.91623" lon="6.08322">
        <ele>1879</ele>
        <time>2024-08-14T08:58:49Z</time>
      </trkpt>
      <trkpt lat="44.91623" lon="6.08322">
        <ele>1879.6</ele>
        <time>2024-08-14T08:58:50Z</time>
      </trkpt>
      <trkpt lat="44.91623" lon="6.08322">
        <ele>1880</ele>
        <time>2024-08-14T08:58:51Z</time>
      </trkpt>
      <trkpt lat="44.91623" lon="6.08322">
        <ele>1880</ele>
        <time>2024-08-14T08:58:52Z</time>
      </trkpt>
      <trkpt lat="44.91625" lon="6.08323">
        <ele>1880</ele>
        <time>2024-08-14T08:58:53Z</time>
      </trkpt>
      <trkpt lat="44.91625" lon="6.08323">
        <ele>1880.2</ele>
        <time>2024-08-14T08:58:54Z</time>
      </trkpt>
      <trkpt lat="44.91625" lon="6.08323">
        <ele>1880.2</ele>
        <time>2024-08-14T08:58:55Z</time>
      </trkpt>
      <trkpt lat="44.91628" lon="6.08325">
        <ele>1880.6</ele>
        <time>2024-08-14T08:58:56Z</time>
      </trkpt>
      <trkpt lat="44.91628" lon="6.08325">
        <ele>1880.6</ele>
        <time>2024-08-14T08:58:57Z</time>
      </trkpt>
      <trkpt lat="44.91628" lon="6.08325">
        <ele>1880.6</ele>
        <time>2024-08-14T08:58:58Z</time>
      </trkpt>
      <trkpt lat="44.9163" lon="6.08326">
        <ele>1880.8</ele>
        <time>2024-08-14T08:58:59Z</time>
      </trkpt>
      <trkpt lat="44.9163" lon="6.08326">
        <ele>1880.8</ele>
        <time>2024-08-14T08:59:00Z</time>
      </trkpt>
      <trkpt lat="44.91631" lon="6.08328">
        <ele>1880.8</ele>
        <time>2024-08-14T08:59:01Z</time>
      </trkpt>
      <trkpt lat="44.91631" lon="6.08328">
        <ele>1880.8</ele>
        <time>2024-08-14T08:59:02Z</time>
      </trkpt>
      <trkpt lat="44.91633" lon="6.08329">
        <ele>1881</ele>
        <time>2024-08-14T08:59:03Z</time>
      </trkpt>
      <trkpt lat="44.91633" lon="6.08329">
        <ele>1881</ele>
        <time>2024-08-14T08:59:04Z</time>
      </trkpt>
      <trkpt lat="44.91635" lon="6.08331">
        <ele>1881.2</ele>
        <time>2024-08-14T08:59:05Z</time>
      </trkpt>
      <trkpt lat="44.91635" lon="6.08331">
        <ele>1881.4</ele>
        <time>2024-08-14T08:59:06Z</time>
      </trkpt>
      <trkpt lat="44.91637" lon="6.08333">
        <ele>1881.4</ele>
        <time>2024-08-14T08:59:07Z</time>
      </trkpt>
      <trkpt lat="44.91637" lon="6.08333">
        <ele>1881.4</ele>
        <time>2024-08-14T08:59:08Z</time>
      </trkpt>
      <trkpt lat="44.91639" lon="6.08335">
        <ele>1881.4</ele>
        <time>2024-08-14T08:59:09Z</time>
      </trkpt>
      <trkpt lat="44.91639" lon="6.08335">
        <ele>1881.6</ele>
        <time>2024-08-14T08:59:10Z</time>
      </trkpt>
      <trkpt lat="44.91641" lon="6.08337">
        <ele>1881.6</ele>
        <time>2024-08-14T08:59:11Z</time>
      </trkpt>
      <trkpt lat="44.91641" lon="6.08337">
        <ele>1881.6</ele>
        <time>2024-08-14T08:59:12Z</time>
      </trkpt>
      <trkpt lat="44.91643" lon="6.08339">
        <ele>1881.6</ele>
        <time>2024-08-14T08:59:13Z</time>
      </trkpt>
      <trkpt lat="44.91643" lon="6.08339">
        <ele>1881.6</ele>
        <time>2024-08-14T08:59:14Z</time>
      </trkpt>
      <trkpt lat="44.91645" lon="6.08341">
        <ele>1881.6</ele>
        <time>2024-08-14T08:59:15Z</time>
      </trkpt>
      <trkpt lat="44.91645" lon="6.08341">
        <ele>1881.6</ele>
        <time>2024-08-14T08:59:16Z</time>
      </trkpt>
      <trkpt lat="44.91647" lon="6.08343">
        <ele>1881.6</ele>
        <time>2024-08-14T08:59:17Z</time>
      </trkpt>
      <trkpt lat="44.91647" lon="6.08343">
        <ele>1881.6</ele>
        <time>2024-08-14T08:59:18Z</time>
      </trkpt>
      <trkpt lat="44.91648" lon="6.08346">
        <ele>1881.6</ele>
        <time>2024-08-14T08:59:19Z</time>
      </trkpt>
      <trkpt lat="44.91648" lon="6.08346">
        <ele>1881.6</ele>
        <time>2024-08-14T08:59:20Z</time>
      </trkpt>
      <trkpt lat="44.9165" lon="6.08347">
        <ele>1881.6</ele>
        <time>2024-08-14T08:59:21Z</time>
      </trkpt>
      <trkpt lat="44.9165" lon="6.08347">
        <ele>1882</ele>
        <time>2024-08-14T08:59:22Z</time>
      </trkpt>
      <trkpt lat="44.91652" lon="6.08349">
        <ele>1882</ele>
        <time>2024-08-14T08:59:23Z</time>
      </trkpt>
      <trkpt lat="44.91652" lon="6.08349">
        <ele>1882</ele>
        <time>2024-08-14T08:59:24Z</time>
      </trkpt>
      <trkpt lat="44.91653" lon="6.08351">
        <ele>1882</ele>
        <time>2024-08-14T08:59:25Z</time>
      </trkpt>
      <trkpt lat="44.91653" lon="6.08351">
        <ele>1882.4</ele>
        <time>2024-08-14T08:59:26Z</time>
      </trkpt>
      <trkpt lat="44.91655" lon="6.08353">
        <ele>1882.6</ele>
        <time>2024-08-14T08:59:27Z</time>
      </trkpt>
      <trkpt lat="44.91655" lon="6.08353">
        <ele>1882.6</ele>
        <time>2024-08-14T08:59:28Z</time>
      </trkpt>
      <trkpt lat="44.91656" lon="6.08355">
        <ele>1883</ele>
        <time>2024-08-14T08:59:29Z</time>
      </trkpt>
      <trkpt lat="44.91656" lon="6.08355">
        <ele>1883.4</ele>
        <time>2024-08-14T08:59:30Z</time>
      </trkpt>
      <trkpt lat="44.91658" lon="6.08357">
        <ele>1883.8</ele>
        <time>2024-08-14T08:59:31Z</time>
      </trkpt>
      <trkpt lat="44.91658" lon="6.08357">
        <ele>1884.4</ele>
        <time>2024-08-14T08:59:32Z</time>
      </trkpt>
      <trkpt lat="44.91659" lon="6.0836">
        <ele>1884.4</ele>
        <time>2024-08-14T08:59:33Z</time>
      </trkpt>
      <trkpt lat="44.91659" lon="6.0836">
        <ele>1884.4</ele>
        <time>2024-08-14T08:59:34Z</time>
      </trkpt>
      <trkpt lat="44.9166" lon="6.08362">
        <ele>1884.4</ele>
        <time>2024-08-14T08:59:35Z</time>
      </trkpt>
      <trkpt lat="44.9166" lon="6.08362">
        <ele>1884.4</ele>
        <time>2024-08-14T08:59:36Z</time>
      </trkpt>
      <trkpt lat="44.91663" lon="6.08364">
        <ele>1884.4</ele>
        <time>2024-08-14T08:59:37Z</time>
      </trkpt>
      <trkpt lat="44.91663" lon="6.08364">
        <ele>1884.6</ele>
        <time>2024-08-14T08:59:38Z</time>
      </trkpt>
      <trkpt lat="44.91663" lon="6.08364">
        <ele>1884.6</ele>
        <time>2024-08-14T08:59:39Z</time>
      </trkpt>
      <trkpt lat="44.91665" lon="6.08365">
        <ele>1884.8</ele>
        <time>2024-08-14T08:59:40Z</time>
      </trkpt>
      <trkpt lat="44.91665" lon="6.08365">
        <ele>1884.8</ele>
        <time>2024-08-14T08:59:41Z</time>
      </trkpt>
      <trkpt lat="44.91665" lon="6.08365">
        <ele>1884.8</ele>
        <time>2024-08-14T08:59:42Z</time>
      </trkpt>
      <trkpt lat="44.91667" lon="6.08366">
        <ele>1885.2</ele>
        <time>2024-08-14T08:59:43Z</time>
      </trkpt>
      <trkpt lat="44.91667" lon="6.08366">
        <ele>1885.4</ele>
        <time>2024-08-14T08:59:44Z</time>
      </trkpt>
      <trkpt lat="44.91667" lon="6.08366">
        <ele>1885.6</ele>
        <time>2024-08-14T08:59:45Z</time>
      </trkpt>
      <trkpt lat="44.91669" lon="6.08366">
        <ele>1885.8</ele>
        <time>2024-08-14T08:59:46Z</time>
      </trkpt>
      <trkpt lat="44.91669" lon="6.08366">
        <ele>1885.8</ele>
        <time>2024-08-14T08:59:47Z</time>
      </trkpt>
      <trkpt lat="44.91669" lon="6.08366">
        <ele>1886.2</ele>
        <time>2024-08-14T08:59:48Z</time>
      </trkpt>
      <trkpt lat="44.91671" lon="6.08367">
        <ele>1886.4</ele>
        <time>2024-08-14T08:59:49Z</time>
      </trkpt>
      <trkpt lat="44.91671" lon="6.08367">
        <ele>1886.4</ele>
        <time>2024-08-14T08:59:50Z</time>
      </trkpt>
      <trkpt lat="44.91671" lon="6.08367">
        <ele>1886.8</ele>
        <time>2024-08-14T08:59:51Z</time>
      </trkpt>
      <trkpt lat="44.91674" lon="6.08368">
        <ele>1887.2</ele>
        <time>2024-08-14T08:59:52Z</time>
      </trkpt>
      <trkpt lat="44.91674" lon="6.08368">
        <ele>1887.4</ele>
        <time>2024-08-14T08:59:53Z</time>
      </trkpt>
      <trkpt lat="44.91676" lon="6.0837">
        <ele>1887.6</ele>
        <time>2024-08-14T08:59:54Z</time>
      </trkpt>
      <trkpt lat="44.91676" lon="6.0837">
        <ele>1887.6</ele>
        <time>2024-08-14T08:59:55Z</time>
      </trkpt>
      <trkpt lat="44.91677" lon="6.08371">
        <ele>1888.4</ele>
        <time>2024-08-14T08:59:56Z</time>
      </trkpt>
      <trkpt lat="44.91677" lon="6.08371">
        <ele>1888.4</ele>
        <time>2024-08-14T08:59:57Z</time>
      </trkpt>
      <trkpt lat="44.91677" lon="6.08371">
        <ele>1888.6</ele>
        <time>2024-08-14T08:59:58Z</time>
      </trkpt>
      <trkpt lat="44.91679" lon="6.08372">
        <ele>1888.6</ele>
        <time>2024-08-14T08:59:59Z</time>
      </trkpt>
      <trkpt lat="44.91679" lon="6.08372">
        <ele>1888.8</ele>
        <time>2024-08-14T09:00:00Z</time>
      </trkpt>
      <trkpt lat="44.91679" lon="6.08372">
        <ele>1889</ele>
        <time>2024-08-14T09:00:01Z</time>
      </trkpt>
      <trkpt lat="44.91682" lon="6.08374">
        <ele>1889.4</ele>
        <time>2024-08-14T09:00:02Z</time>
      </trkpt>
      <trkpt lat="44.91682" lon="6.08374">
        <ele>1889.4</ele>
        <time>2024-08-14T09:00:03Z</time>
      </trkpt>
      <trkpt lat="44.91684" lon="6.08375">
        <ele>1889.6</ele>
        <time>2024-08-14T09:00:04Z</time>
      </trkpt>
      <trkpt lat="44.91684" lon="6.08375">
        <ele>1889.6</ele>
        <time>2024-08-14T09:00:05Z</time>
      </trkpt>
      <trkpt lat="44.91685" lon="6.08376">
        <ele>1889.6</ele>
        <time>2024-08-14T09:00:06Z</time>
      </trkpt>
      <trkpt lat="44.91685" lon="6.08376">
        <ele>1889.8</ele>
        <time>2024-08-14T09:00:07Z</time>
      </trkpt>
      <trkpt lat="44.91687" lon="6.08378">
        <ele>1889.8</ele>
        <time>2024-08-14T09:00:08Z</time>
      </trkpt>
      <trkpt lat="44.91687" lon="6.08378">
        <ele>1889.8</ele>
        <time>2024-08-14T09:00:09Z</time>
      </trkpt>
      <trkpt lat="44.91687" lon="6.08378">
        <ele>1890</ele>
        <time>2024-08-14T09:00:10Z</time>
      </trkpt>
      <trkpt lat="44.9169" lon="6.0838">
        <ele>1890.2</ele>
        <time>2024-08-14T09:00:11Z</time>
      </trkpt>
      <trkpt lat="44.9169" lon="6.0838">
        <ele>1890.4</ele>
        <time>2024-08-14T09:00:12Z</time>
      </trkpt>
      <trkpt lat="44.9169" lon="6.0838">
        <ele>1890.4</ele>
        <time>2024-08-14T09:00:13Z</time>
      </trkpt>
      <trkpt lat="44.91693" lon="6.08381">
        <ele>1890.4</ele>
        <time>2024-08-14T09:00:14Z</time>
      </trkpt>
      <trkpt lat="44.91693" lon="6.08381">
        <ele>1890.4</ele>
        <time>2024-08-14T09:00:15Z</time>
      </trkpt>
      <trkpt lat="44.91693" lon="6.08381">
        <ele>1890.4</ele>
        <time>2024-08-14T09:00:16Z</time>
      </trkpt>
      <trkpt lat="44.91694" lon="6.08383">
        <ele>1891.2</ele>
        <time>2024-08-14T09:00:17Z</time>
      </trkpt>
      <trkpt lat="44.91694" lon="6.08383">
        <ele>1891.6</ele>
        <time>2024-08-14T09:00:18Z</time>
      </trkpt>
      <trkpt lat="44.91694" lon="6.08383">
        <ele>1891.6</ele>
        <time>2024-08-14T09:00:19Z</time>
      </trkpt>
      <trkpt lat="44.91696" lon="6.08385">
        <ele>1891.6</ele>
        <time>2024-08-14T09:00:20Z</time>
      </trkpt>
      <trkpt lat="44.91696" lon="6.08385">
        <ele>1891.8</ele>
        <time>2024-08-14T09:00:21Z</time>
      </trkpt>
      <trkpt lat="44.91696" lon="6.08385">
        <ele>1892.6</ele>
        <time>2024-08-14T09:00:22Z</time>
      </trkpt>
      <trkpt lat="44.91698" lon="6.08387">
        <ele>1892.6</ele>
        <time>2024-08-14T09:00:23Z</time>
      </trkpt>
      <trkpt lat="44.91698" lon="6.08387">
        <ele>1892.8</ele>
        <time>2024-08-14T09:00:24Z</time>
      </trkpt>
      <trkpt lat="44.91698" lon="6.08387">
        <ele>1892.8</ele>
        <time>2024-08-14T09:00:25Z</time>
      </trkpt>
      <trkpt lat="44.917" lon="6.08389">
        <ele>1892.8</ele>
        <time>2024-08-14T09:00:26Z</time>
      </trkpt>
      <trkpt lat="44.917" lon="6.08389">
        <ele>1892.8</ele>
        <time>2024-08-14T09:00:27Z</time>
      </trkpt>
      <trkpt lat="44.91701" lon="6.08391">
        <ele>1893</ele>
        <time>2024-08-14T09:00:28Z</time>
      </trkpt>
      <trkpt lat="44.91701" lon="6.08391">
        <ele>1893.4</ele>
        <time>2024-08-14T09:00:29Z</time>
      </trkpt>
      <trkpt lat="44.91701" lon="6.08391">
        <ele>1893.4</ele>
        <time>2024-08-14T09:00:30Z</time>
      </trkpt>
      <trkpt lat="44.91703" lon="6.08392">
        <ele>1894</ele>
        <time>2024-08-14T09:00:31Z</time>
      </trkpt>
      <trkpt lat="44.91703" lon="6.08392">
        <ele>1894.2</ele>
        <time>2024-08-14T09:00:32Z</time>
      </trkpt>
      <trkpt lat="44.91703" lon="6.08392">
        <ele>1894.2</ele>
        <time>2024-08-14T09:00:33Z</time>
      </trkpt>
      <trkpt lat="44.91705" lon="6.08393">
        <ele>1894.6</ele>
        <time>2024-08-14T09:00:34Z</time>
      </trkpt>
      <trkpt lat="44.91705" lon="6.08393">
        <ele>1894.6</ele>
        <time>2024-08-14T09:00:35Z</time>
      </trkpt>
      <trkpt lat="44.91705" lon="6.08393">
        <ele>1895.2</ele>
        <time>2024-08-14T09:00:36Z</time>
      </trkpt>
      <trkpt lat="44.91707" lon="6.08394">
        <ele>1895.6</ele>
        <time>2024-08-14T09:00:37Z</time>
      </trkpt>
      <trkpt lat="44.91707" lon="6.08394">
        <ele>1895.6</ele>
        <time>2024-08-14T09:00:38Z</time>
      </trkpt>
      <trkpt lat="44.91709" lon="6.08395">
        <ele>1896.2</ele>
        <time>2024-08-14T09:00:39Z</time>
      </trkpt>
      <trkpt lat="44.91709" lon="6.08395">
        <ele>1896.4</ele>
        <time>2024-08-14T09:00:40Z</time>
      </trkpt>
      <trkpt lat="44.91711" lon="6.08397">
        <ele>1896.4</ele>
        <time>2024-08-14T09:00:41Z</time>
      </trkpt>
      <trkpt lat="44.91711" lon="6.08397">
        <ele>1896.8</ele>
        <time>2024-08-14T09:00:42Z</time>
      </trkpt>
      <trkpt lat="44.91712" lon="6.08398">
        <ele>1897.4</ele>
        <time>2024-08-14T09:00:43Z</time>
      </trkpt>
      <trkpt lat="44.91712" lon="6.08398">
        <ele>1897.4</ele>
        <time>2024-08-14T09:00:44Z</time>
      </trkpt>
      <trkpt lat="44.91712" lon="6.08398">
        <ele>1897.6</ele>
        <time>2024-08-14T09:00:45Z</time>
      </trkpt>
      <trkpt lat="44.91715" lon="6.084">
        <ele>1897.8</ele>
        <time>2024-08-14T09:00:46Z</time>
      </trkpt>
      <trkpt lat="44.91715" lon="6.084">
        <ele>1897.8</ele>
        <time>2024-08-14T09:00:47Z</time>
      </trkpt>
      <trkpt lat="44.91715" lon="6.084">
        <ele>1898.2</ele>
        <time>2024-08-14T09:00:48Z</time>
      </trkpt>
      <trkpt lat="44.91716" lon="6.08401">
        <ele>1898.2</ele>
        <time>2024-08-14T09:00:49Z</time>
      </trkpt>
      <trkpt lat="44.91716" lon="6.08401">
        <ele>1898.2</ele>
        <time>2024-08-14T09:00:50Z</time>
      </trkpt>
      <trkpt lat="44.91716" lon="6.08401">
        <ele>1898.6</ele>
        <time>2024-08-14T09:00:51Z</time>
      </trkpt>
      <trkpt lat="44.91716" lon="6.08401">
        <ele>1898.8</ele>
        <time>2024-08-14T09:00:52Z</time>
      </trkpt>
      <trkpt lat="44.91718" lon="6.08402">
        <ele>1899</ele>
        <time>2024-08-14T09:00:53Z</time>
      </trkpt>
      <trkpt lat="44.91718" lon="6.08402">
        <ele>1899.2</ele>
        <time>2024-08-14T09:00:54Z</time>
      </trkpt>
      <trkpt lat="44.91718" lon="6.08402">
        <ele>1899.2</ele>
        <time>2024-08-14T09:00:55Z</time>
      </trkpt>
      <trkpt lat="44.91718" lon="6.08402">
        <ele>1899.6</ele>
        <time>2024-08-14T09:00:56Z</time>
      </trkpt>
      <trkpt lat="44.91718" lon="6.08402">
        <ele>1899.8</ele>
        <time>2024-08-14T09:00:57Z</time>
      </trkpt>
      <trkpt lat="44.9172" lon="6.08404">
        <ele>1899.8</ele>
        <time>2024-08-14T09:00:58Z</time>
      </trkpt>
      <trkpt lat="44.9172" lon="6.08404">
        <ele>1900.2</ele>
        <time>2024-08-14T09:00:59Z</time>
      </trkpt>
      <trkpt lat="44.9172" lon="6.08404">
        <ele>1900.4</ele>
        <time>2024-08-14T09:01:00Z</time>
      </trkpt>
      <trkpt lat="44.91722" lon="6.08405">
        <ele>1900.4</ele>
        <time>2024-08-14T09:01:01Z</time>
      </trkpt>
      <trkpt lat="44.91722" lon="6.08405">
        <ele>1900.8</ele>
        <time>2024-08-14T09:01:02Z</time>
      </trkpt>
      <trkpt lat="44.91722" lon="6.08405">
        <ele>1900.8</ele>
        <time>2024-08-14T09:01:03Z</time>
      </trkpt>
      <trkpt lat="44.91725" lon="6.08407">
        <ele>1901.4</ele>
        <time>2024-08-14T09:01:04Z</time>
      </trkpt>
      <trkpt lat="44.91725" lon="6.08407">
        <ele>1901.6</ele>
        <time>2024-08-14T09:01:05Z</time>
      </trkpt>
      <trkpt lat="44.91725" lon="6.08407">
        <ele>1901.6</ele>
        <time>2024-08-14T09:01:06Z</time>
      </trkpt>
      <trkpt lat="44.91727" lon="6.08409">
        <ele>1901.8</ele>
        <time>2024-08-14T09:01:07Z</time>
      </trkpt>
      <trkpt lat="44.91727" lon="6.08409">
        <ele>1902</ele>
        <time>2024-08-14T09:01:08Z</time>
      </trkpt>
      <trkpt lat="44.91728" lon="6.0841">
        <ele>1902</ele>
        <time>2024-08-14T09:01:09Z</time>
      </trkpt>
      <trkpt lat="44.91728" lon="6.0841">
        <ele>1902.4</ele>
        <time>2024-08-14T09:01:10Z</time>
      </trkpt>
      <trkpt lat="44.91728" lon="6.0841">
        <ele>1902.4</ele>
        <time>2024-08-14T09:01:11Z</time>
      </trkpt>
      <trkpt lat="44.9173" lon="6.08413">
        <ele>1902.4</ele>
        <time>2024-08-14T09:01:12Z</time>
      </trkpt>
      <trkpt lat="44.9173" lon="6.08413">
        <ele>1902.6</ele>
        <time>2024-08-14T09:01:13Z</time>
      </trkpt>
      <trkpt lat="44.9173" lon="6.08413">
        <ele>1902.6</ele>
        <time>2024-08-14T09:01:14Z</time>
      </trkpt>
      <trkpt lat="44.91732" lon="6.08414">
        <ele>1902.8</ele>
        <time>2024-08-14T09:01:15Z</time>
      </trkpt>
      <trkpt lat="44.91732" lon="6.08414">
        <ele>1903.4</ele>
        <time>2024-08-14T09:01:16Z</time>
      </trkpt>
      <trkpt lat="44.91732" lon="6.08414">
        <ele>1903.6</ele>
        <time>2024-08-14T09:01:17Z</time>
      </trkpt>
      <trkpt lat="44.91734" lon="6.08417">
        <ele>1903.6</ele>
        <time>2024-08-14T09:01:18Z</time>
      </trkpt>
      <trkpt lat="44.91734" lon="6.08417">
        <ele>1903.8</ele>
        <time>2024-08-14T09:01:19Z</time>
      </trkpt>
      <trkpt lat="44.91734" lon="6.08417">
        <ele>1904</ele>
        <time>2024-08-14T09:01:20Z</time>
      </trkpt>
      <trkpt lat="44.91736" lon="6.08419">
        <ele>1904</ele>
        <time>2024-08-14T09:01:21Z</time>
      </trkpt>
      <trkpt lat="44.91736" lon="6.08419">
        <ele>1904.4</ele>
        <time>2024-08-14T09:01:22Z</time>
      </trkpt>
      <trkpt lat="44.91736" lon="6.08419">
        <ele>1904.4</ele>
        <time>2024-08-14T09:01:23Z</time>
      </trkpt>
      <trkpt lat="44.91738" lon="6.0842">
        <ele>1904.6</ele>
        <time>2024-08-14T09:01:24Z</time>
      </trkpt>
      <trkpt lat="44.91738" lon="6.0842">
        <ele>1904.6</ele>
        <time>2024-08-14T09:01:25Z</time>
      </trkpt>
      <trkpt lat="44.91738" lon="6.0842">
        <ele>1905</ele>
        <time>2024-08-14T09:01:26Z</time>
      </trkpt>
      <trkpt lat="44.91741" lon="6.08419">
        <ele>1905</ele>
        <time>2024-08-14T09:01:27Z</time>
      </trkpt>
      <trkpt lat="44.91741" lon="6.08419">
        <ele>1905.6</ele>
        <time>2024-08-14T09:01:28Z</time>
      </trkpt>
      <trkpt lat="44.91741" lon="6.08419">
        <ele>1905.8</ele>
        <time>2024-08-14T09:01:29Z</time>
      </trkpt>
      <trkpt lat="44.91742" lon="6.08419">
        <ele>1905.8</ele>
        <time>2024-08-14T09:01:30Z</time>
      </trkpt>
      <trkpt lat="44.91742" lon="6.08419">
        <ele>1906.4</ele>
        <time>2024-08-14T09:01:31Z</time>
      </trkpt>
      <trkpt lat="44.91742" lon="6.08419">
        <ele>1906.6</ele>
        <time>2024-08-14T09:01:32Z</time>
      </trkpt>
      <trkpt lat="44.91742" lon="6.08419">
        <ele>1906.6</ele>
        <time>2024-08-14T09:01:33Z</time>
      </trkpt>
      <trkpt lat="44.91745" lon="6.0842">
        <ele>1907.6</ele>
        <time>2024-08-14T09:01:34Z</time>
      </trkpt>
      <trkpt lat="44.91745" lon="6.0842">
        <ele>1907.6</ele>
        <time>2024-08-14T09:01:35Z</time>
      </trkpt>
      <trkpt lat="44.91745" lon="6.0842">
        <ele>1907.8</ele>
        <time>2024-08-14T09:01:36Z</time>
      </trkpt>
      <trkpt lat="44.91747" lon="6.08422">
        <ele>1908</ele>
        <time>2024-08-14T09:01:37Z</time>
      </trkpt>
      <trkpt lat="44.91747" lon="6.08422">
        <ele>1908</ele>
        <time>2024-08-14T09:01:38Z</time>
      </trkpt>
      <trkpt lat="44.91747" lon="6.08422">
        <ele>1908.2</ele>
        <time>2024-08-14T09:01:39Z</time>
      </trkpt>
      <trkpt lat="44.91749" lon="6.08423">
        <ele>1908.6</ele>
        <time>2024-08-14T09:01:40Z</time>
      </trkpt>
      <trkpt lat="44.91749" lon="6.08423">
        <ele>1908.6</ele>
        <time>2024-08-14T09:01:41Z</time>
      </trkpt>
      <trkpt lat="44.91749" lon="6.08423">
        <ele>1908.8</ele>
        <time>2024-08-14T09:01:42Z</time>
      </trkpt>
      <trkpt lat="44.91751" lon="6.08424">
        <ele>1908.8</ele>
        <time>2024-08-14T09:01:43Z</time>
      </trkpt>
      <trkpt lat="44.91751" lon="6.08424">
        <ele>1909.2</ele>
        <time>2024-08-14T09:01:44Z</time>
      </trkpt>
      <trkpt lat="44.91751" lon="6.08424">
        <ele>1909.2</ele>
        <time>2024-08-14T09:01:45Z</time>
      </trkpt>
      <trkpt lat="44.91753" lon="6.08424">
        <ele>1909.6</ele>
        <time>2024-08-14T09:01:46Z</time>
      </trkpt>
      <trkpt lat="44.91753" lon="6.08424">
        <ele>1909.6</ele>
        <time>2024-08-14T09:01:47Z</time>
      </trkpt>
      <trkpt lat="44.91753" lon="6.08424">
        <ele>1910</ele>
        <time>2024-08-14T09:01:48Z</time>
      </trkpt>
      <trkpt lat="44.91755" lon="6.08425">
        <ele>1910.2</ele>
        <time>2024-08-14T09:01:49Z</time>
      </trkpt>
      <trkpt lat="44.91755" lon="6.08425">
        <ele>1910.4</ele>
        <time>2024-08-14T09:01:50Z</time>
      </trkpt>
      <trkpt lat="44.91755" lon="6.08425">
        <ele>1910.6</ele>
        <time>2024-08-14T09:01:51Z</time>
      </trkpt>
      <trkpt lat="44.91755" lon="6.08425">
        <ele>1910.6</ele>
        <time>2024-08-14T09:01:52Z</time>
      </trkpt>
      <trkpt lat="44.91757" lon="6.08425">
        <ele>1910.8</ele>
        <time>2024-08-14T09:01:53Z</time>
      </trkpt>
      <trkpt lat="44.91757" lon="6.08425">
        <ele>1911.2</ele>
        <time>2024-08-14T09:01:54Z</time>
      </trkpt>
      <trkpt lat="44.91757" lon="6.08425">
        <ele>1911.6</ele>
        <time>2024-08-14T09:01:55Z</time>
      </trkpt>
      <trkpt lat="44.91759" lon="6.08425">
        <ele>1911.6</ele>
        <time>2024-08-14T09:01:56Z</time>
      </trkpt>
      <trkpt lat="44.91759" lon="6.08425">
        <ele>1911.8</ele>
        <time>2024-08-14T09:01:57Z</time>
      </trkpt>
      <trkpt lat="44.91759" lon="6.08425">
        <ele>1911.8</ele>
        <time>2024-08-14T09:01:58Z</time>
      </trkpt>
      <trkpt lat="44.91759" lon="6.08425">
        <ele>1912</ele>
        <time>2024-08-14T09:01:59Z</time>
      </trkpt>
      <trkpt lat="44.91759" lon="6.08425">
        <ele>1912.4</ele>
        <time>2024-08-14T09:02:00Z</time>
      </trkpt>
      <trkpt lat="44.91761" lon="6.08425">
        <ele>1912.4</ele>
        <time>2024-08-14T09:02:01Z</time>
      </trkpt>
      <trkpt lat="44.91761" lon="6.08425">
        <ele>1913</ele>
        <time>2024-08-14T09:02:02Z</time>
      </trkpt>
      <trkpt lat="44.91761" lon="6.08425">
        <ele>1913</ele>
        <time>2024-08-14T09:02:03Z</time>
      </trkpt>
      <trkpt lat="44.91761" lon="6.08425">
        <ele>1913</ele>
        <time>2024-08-14T09:02:04Z</time>
      </trkpt>
      <trkpt lat="44.91763" lon="6.08426">
        <ele>1913.2</ele>
        <time>2024-08-14T09:02:05Z</time>
      </trkpt>
      <trkpt lat="44.91763" lon="6.08426">
        <ele>1913.6</ele>
        <time>2024-08-14T09:02:06Z</time>
      </trkpt>
      <trkpt lat="44.91763" lon="6.08426">
        <ele>1913.8</ele>
        <time>2024-08-14T09:02:07Z</time>
      </trkpt>
      <trkpt lat="44.91765" lon="6.08426">
        <ele>1913.8</ele>
        <time>2024-08-14T09:02:08Z</time>
      </trkpt>
      <trkpt lat="44.91765" lon="6.08426">
        <ele>1914.2</ele>
        <time>2024-08-14T09:02:09Z</time>
      </trkpt>
      <trkpt lat="44.91766" lon="6.08427">
        <ele>1914.2</ele>
        <time>2024-08-14T09:02:10Z</time>
      </trkpt>
      <trkpt lat="44.91766" lon="6.08427">
        <ele>1914.4</ele>
        <time>2024-08-14T09:02:11Z</time>
      </trkpt>
      <trkpt lat="44.91766" lon="6.08427">
        <ele>1914.8</ele>
        <time>2024-08-14T09:02:12Z</time>
      </trkpt>
      <trkpt lat="44.91769" lon="6.08429">
        <ele>1915.4</ele>
        <time>2024-08-14T09:02:13Z</time>
      </trkpt>
      <trkpt lat="44.91769" lon="6.08429">
        <ele>1915.4</ele>
        <time>2024-08-14T09:02:14Z</time>
      </trkpt>
      <trkpt lat="44.91769" lon="6.08429">
        <ele>1915.6</ele>
        <time>2024-08-14T09:02:15Z</time>
      </trkpt>
      <trkpt lat="44.9177" lon="6.08431">
        <ele>1915.6</ele>
        <time>2024-08-14T09:02:16Z</time>
      </trkpt>
      <trkpt lat="44.9177" lon="6.08431">
        <ele>1915.8</ele>
        <time>2024-08-14T09:02:17Z</time>
      </trkpt>
      <trkpt lat="44.9177" lon="6.08431">
        <ele>1915.8</ele>
        <time>2024-08-14T09:02:18Z</time>
      </trkpt>
      <trkpt lat="44.91771" lon="6.08433">
        <ele>1916.2</ele>
        <time>2024-08-14T09:02:19Z</time>
      </trkpt>
      <trkpt lat="44.91771" lon="6.08433">
        <ele>1916.4</ele>
        <time>2024-08-14T09:02:20Z</time>
      </trkpt>
      <trkpt lat="44.91771" lon="6.08433">
        <ele>1916.6</ele>
        <time>2024-08-14T09:02:21Z</time>
      </trkpt>
      <trkpt lat="44.91773" lon="6.08435">
        <ele>1916.8</ele>
        <time>2024-08-14T09:02:22Z</time>
      </trkpt>
      <trkpt lat="44.91773" lon="6.08435">
        <ele>1917</ele>
        <time>2024-08-14T09:02:23Z</time>
      </trkpt>
      <trkpt lat="44.91773" lon="6.08435">
        <ele>1917</ele>
        <time>2024-08-14T09:02:24Z</time>
      </trkpt>
      <trkpt lat="44.91773" lon="6.08438">
        <ele>1917.2</ele>
        <time>2024-08-14T09:02:25Z</time>
      </trkpt>
      <trkpt lat="44.91773" lon="6.08438">
        <ele>1917.4</ele>
        <time>2024-08-14T09:02:26Z</time>
      </trkpt>
      <trkpt lat="44.91773" lon="6.08438">
        <ele>1917.6</ele>
        <time>2024-08-14T09:02:27Z</time>
      </trkpt>
      <trkpt lat="44.91775" lon="6.0844">
        <ele>1917.6</ele>
        <time>2024-08-14T09:02:28Z</time>
      </trkpt>
      <trkpt lat="44.91775" lon="6.0844">
        <ele>1917.8</ele>
        <time>2024-08-14T09:02:29Z</time>
      </trkpt>
      <trkpt lat="44.91775" lon="6.0844">
        <ele>1917.8</ele>
        <time>2024-08-14T09:02:30Z</time>
      </trkpt>
      <trkpt lat="44.91776" lon="6.08442">
        <ele>1918.4</ele>
        <time>2024-08-14T09:02:31Z</time>
      </trkpt>
      <trkpt lat="44.91776" lon="6.08442">
        <ele>1918.4</ele>
        <time>2024-08-14T09:02:32Z</time>
      </trkpt>
      <trkpt lat="44.91776" lon="6.08442">
        <ele>1918.4</ele>
        <time>2024-08-14T09:02:33Z</time>
      </trkpt>
      <trkpt lat="44.91778" lon="6.08445">
        <ele>1919.2</ele>
        <time>2024-08-14T09:02:34Z</time>
      </trkpt>
      <trkpt lat="44.91778" lon="6.08445">
        <ele>1919.2</ele>
        <time>2024-08-14T09:02:35Z</time>
      </trkpt>
      <trkpt lat="44.91778" lon="6.08445">
        <ele>1919.4</ele>
        <time>2024-08-14T09:02:36Z</time>
      </trkpt>
      <trkpt lat="44.9178" lon="6.08447">
        <ele>1919.8</ele>
        <time>2024-08-14T09:02:37Z</time>
      </trkpt>
      <trkpt lat="44.9178" lon="6.08447">
        <ele>1920</ele>
        <time>2024-08-14T09:02:38Z</time>
      </trkpt>
      <trkpt lat="44.9178" lon="6.08447">
        <ele>1920</ele>
        <time>2024-08-14T09:02:39Z</time>
      </trkpt>
      <trkpt lat="44.9178" lon="6.08447">
        <ele>1920.2</ele>
        <time>2024-08-14T09:02:40Z</time>
      </trkpt>
      <trkpt lat="44.91782" lon="6.08449">
        <ele>1920.2</ele>
        <time>2024-08-14T09:02:41Z</time>
      </trkpt>
      <trkpt lat="44.91782" lon="6.08449">
        <ele>1920.6</ele>
        <time>2024-08-14T09:02:42Z</time>
      </trkpt>
      <trkpt lat="44.91782" lon="6.08449">
        <ele>1920.8</ele>
        <time>2024-08-14T09:02:43Z</time>
      </trkpt>
      <trkpt lat="44.91783" lon="6.08452">
        <ele>1920.8</ele>
        <time>2024-08-14T09:02:44Z</time>
      </trkpt>
      <trkpt lat="44.91783" lon="6.08452">
        <ele>1921.2</ele>
        <time>2024-08-14T09:02:45Z</time>
      </trkpt>
      <trkpt lat="44.91783" lon="6.08452">
        <ele>1921.4</ele>
        <time>2024-08-14T09:02:46Z</time>
      </trkpt>
      <trkpt lat="44.91785" lon="6.08455">
        <ele>1921.6</ele>
        <time>2024-08-14T09:02:47Z</time>
      </trkpt>
      <trkpt lat="44.91785" lon="6.08455">
        <ele>1922</ele>
        <time>2024-08-14T09:02:48Z</time>
      </trkpt>
      <trkpt lat="44.91785" lon="6.08455">
        <ele>1922</ele>
        <time>2024-08-14T09:02:49Z</time>
      </trkpt>
      <trkpt lat="44.91786" lon="6.08457">
        <ele>1922</ele>
        <time>2024-08-14T09:02:50Z</time>
      </trkpt>
      <trkpt lat="44.91786" lon="6.08457">
        <ele>1922.2</ele>
        <time>2024-08-14T09:02:51Z</time>
      </trkpt>
      <trkpt lat="44.91786" lon="6.08457">
        <ele>1922.6</ele>
        <time>2024-08-14T09:02:52Z</time>
      </trkpt>
      <trkpt lat="44.91786" lon="6.08457">
        <ele>1923.2</ele>
        <time>2024-08-14T09:02:53Z</time>
      </trkpt>
      <trkpt lat="44.91787" lon="6.08461">
        <ele>1923.2</ele>
        <time>2024-08-14T09:02:54Z</time>
      </trkpt>
      <trkpt lat="44.91787" lon="6.08461">
        <ele>1923.4</ele>
        <time>2024-08-14T09:02:55Z</time>
      </trkpt>
      <trkpt lat="44.91787" lon="6.08461">
        <ele>1923.4</ele>
        <time>2024-08-14T09:02:56Z</time>
      </trkpt>
      <trkpt lat="44.91787" lon="6.08461">
        <ele>1924</ele>
        <time>2024-08-14T09:02:57Z</time>
      </trkpt>
      <trkpt lat="44.91787" lon="6.08463">
        <ele>1924</ele>
        <time>2024-08-14T09:02:58Z</time>
      </trkpt>
      <trkpt lat="44.91787" lon="6.08463">
        <ele>1924</ele>
        <time>2024-08-14T09:02:59Z</time>
      </trkpt>
      <trkpt lat="44.91787" lon="6.08463">
        <ele>1924.8</ele>
        <time>2024-08-14T09:03:00Z</time>
      </trkpt>
      <trkpt lat="44.91788" lon="6.08466">
        <ele>1925</ele>
        <time>2024-08-14T09:03:01Z</time>
      </trkpt>
      <trkpt lat="44.91788" lon="6.08466">
        <ele>1925.2</ele>
        <time>2024-08-14T09:03:02Z</time>
      </trkpt>
      <trkpt lat="44.91789" lon="6.08469">
        <ele>1925.2</ele>
        <time>2024-08-14T09:03:03Z</time>
      </trkpt>
      <trkpt lat="44.91789" lon="6.08469">
        <ele>1925.2</ele>
        <time>2024-08-14T09:03:04Z</time>
      </trkpt>
      <trkpt lat="44.91789" lon="6.08469">
        <ele>1925.4</ele>
        <time>2024-08-14T09:03:05Z</time>
      </trkpt>
      <trkpt lat="44.91789" lon="6.08469">
        <ele>1926</ele>
        <time>2024-08-14T09:03:06Z</time>
      </trkpt>
      <trkpt lat="44.91789" lon="6.08471">
        <ele>1926.2</ele>
        <time>2024-08-14T09:03:07Z</time>
      </trkpt>
      <trkpt lat="44.91789" lon="6.08471">
        <ele>1926.2</ele>
        <time>2024-08-14T09:03:08Z</time>
      </trkpt>
      <trkpt lat="44.91789" lon="6.08471">
        <ele>1926.2</ele>
        <time>2024-08-14T09:03:09Z</time>
      </trkpt>
      <trkpt lat="44.91789" lon="6.08471">
        <ele>1926.8</ele>
        <time>2024-08-14T09:03:10Z</time>
      </trkpt>
      <trkpt lat="44.91789" lon="6.08471">
        <ele>1927</ele>
        <time>2024-08-14T09:03:11Z</time>
      </trkpt>
      <trkpt lat="44.91791" lon="6.0847">
        <ele>1927.2</ele>
        <time>2024-08-14T09:03:12Z</time>
      </trkpt>
      <trkpt lat="44.91791" lon="6.0847">
        <ele>1927.4</ele>
        <time>2024-08-14T09:03:13Z</time>
      </trkpt>
      <trkpt lat="44.91791" lon="6.0847">
        <ele>1927.6</ele>
        <time>2024-08-14T09:03:14Z</time>
      </trkpt>
      <trkpt lat="44.91793" lon="6.08468">
        <ele>1927.8</ele>
        <time>2024-08-14T09:03:15Z</time>
      </trkpt>
      <trkpt lat="44.91793" lon="6.08468">
        <ele>1928</ele>
        <time>2024-08-14T09:03:16Z</time>
      </trkpt>
      <trkpt lat="44.91794" lon="6.08465">
        <ele>1928.2</ele>
        <time>2024-08-14T09:03:17Z</time>
      </trkpt>
      <trkpt lat="44.91794" lon="6.08465">
        <ele>1928.2</ele>
        <time>2024-08-14T09:03:18Z</time>
      </trkpt>
      <trkpt lat="44.91794" lon="6.08465">
        <ele>1928.8</ele>
        <time>2024-08-14T09:03:19Z</time>
      </trkpt>
      <trkpt lat="44.91795" lon="6.08461">
        <ele>1929</ele>
        <time>2024-08-14T09:03:20Z</time>
      </trkpt>
      <trkpt lat="44.91795" lon="6.08461">
        <ele>1929</ele>
        <time>2024-08-14T09:03:21Z</time>
      </trkpt>
      <trkpt lat="44.91795" lon="6.08461">
        <ele>1929.2</ele>
        <time>2024-08-14T09:03:22Z</time>
      </trkpt>
      <trkpt lat="44.91795" lon="6.08458">
        <ele>1929.2</ele>
        <time>2024-08-14T09:03:23Z</time>
      </trkpt>
      <trkpt lat="44.91795" lon="6.08458">
        <ele>1929.4</ele>
        <time>2024-08-14T09:03:24Z</time>
      </trkpt>
      <trkpt lat="44.91795" lon="6.08458">
        <ele>1929.4</ele>
        <time>2024-08-14T09:03:25Z</time>
      </trkpt>
      <trkpt lat="44.91795" lon="6.08454">
        <ele>1929.4</ele>
        <time>2024-08-14T09:03:26Z</time>
      </trkpt>
      <trkpt lat="44.91795" lon="6.08454">
        <ele>1930</ele>
        <time>2024-08-14T09:03:27Z</time>
      </trkpt>
      <trkpt lat="44.91795" lon="6.08454">
        <ele>1930</ele>
        <time>2024-08-14T09:03:28Z</time>
      </trkpt>
      <trkpt lat="44.91796" lon="6.0845">
        <ele>1930.2</ele>
        <time>2024-08-14T09:03:29Z</time>
      </trkpt>
      <trkpt lat="44.91796" lon="6.0845">
        <ele>1930.2</ele>
        <time>2024-08-14T09:03:30Z</time>
      </trkpt>
      <trkpt lat="44.91796" lon="6.0845">
        <ele>1930.4</ele>
        <time>2024-08-14T09:03:31Z</time>
      </trkpt>
      <trkpt lat="44.91797" lon="6.08447">
        <ele>1930.6</ele>
        <time>2024-08-14T09:03:32Z</time>
      </trkpt>
      <trkpt lat="44.91797" lon="6.08447">
        <ele>1931</ele>
        <time>2024-08-14T09:03:33Z</time>
      </trkpt>
      <trkpt lat="44.91797" lon="6.08447">
        <ele>1931.6</ele>
        <time>2024-08-14T09:03:34Z</time>
      </trkpt>
      <trkpt lat="44.91797" lon="6.08444">
        <ele>1932</ele>
        <time>2024-08-14T09:03:35Z</time>
      </trkpt>
      <trkpt lat="44.91797" lon="6.08444">
        <ele>1932.4</ele>
        <time>2024-08-14T09:03:36Z</time>
      </trkpt>
      <trkpt lat="44.91797" lon="6.08444">
        <ele>1932.4</ele>
        <time>2024-08-14T09:03:37Z</time>
      </trkpt>
      <trkpt lat="44.91797" lon="6.0844">
        <ele>1932.8</ele>
        <time>2024-08-14T09:03:38Z</time>
      </trkpt>
      <trkpt lat="44.91797" lon="6.0844">
        <ele>1933</ele>
        <time>2024-08-14T09:03:39Z</time>
      </trkpt>
      <trkpt lat="44.91797" lon="6.0844">
        <ele>1933.2</ele>
        <time>2024-08-14T09:03:40Z</time>
      </trkpt>
      <trkpt lat="44.91798" lon="6.08437">
        <ele>1933.8</ele>
        <time>2024-08-14T09:03:41Z</time>
      </trkpt>
      <trkpt lat="44.91798" lon="6.08437">
        <ele>1933.8</ele>
        <time>2024-08-14T09:03:42Z</time>
      </trkpt>
      <trkpt lat="44.91798" lon="6.08434">
        <ele>1933.8</ele>
        <time>2024-08-14T09:03:43Z</time>
      </trkpt>
      <trkpt lat="44.91798" lon="6.08434">
        <ele>1934</ele>
        <time>2024-08-14T09:03:44Z</time>
      </trkpt>
      <trkpt lat="44.91798" lon="6.08432">
        <ele>1934</ele>
        <time>2024-08-14T09:03:45Z</time>
      </trkpt>
      <trkpt lat="44.91798" lon="6.08432">
        <ele>1934.2</ele>
        <time>2024-08-14T09:03:46Z</time>
      </trkpt>
      <trkpt lat="44.91798" lon="6.08432">
        <ele>1934.2</ele>
        <time>2024-08-14T09:03:47Z</time>
      </trkpt>
      <trkpt lat="44.91799" lon="6.08428">
        <ele>1934.4</ele>
        <time>2024-08-14T09:03:48Z</time>
      </trkpt>
      <trkpt lat="44.91799" lon="6.08428">
        <ele>1934.6</ele>
        <time>2024-08-14T09:03:49Z</time>
      </trkpt>
      <trkpt lat="44.91799" lon="6.08425">
        <ele>1934.6</ele>
        <time>2024-08-14T09:03:50Z</time>
      </trkpt>
      <trkpt lat="44.91799" lon="6.08425">
        <ele>1934.8</ele>
        <time>2024-08-14T09:03:51Z</time>
      </trkpt>
      <trkpt lat="44.91799" lon="6.08425">
        <ele>1935</ele>
        <time>2024-08-14T09:03:52Z</time>
      </trkpt>
      <trkpt lat="44.91799" lon="6.08421">
        <ele>1935.6</ele>
        <time>2024-08-14T09:03:53Z</time>
      </trkpt>
      <trkpt lat="44.91799" lon="6.08421">
        <ele>1935.6</ele>
        <time>2024-08-14T09:03:54Z</time>
      </trkpt>
      <trkpt lat="44.91799" lon="6.08421">
        <ele>1935.8</ele>
        <time>2024-08-14T09:03:55Z</time>
      </trkpt>
      <trkpt lat="44.91799" lon="6.08418">
        <ele>1936.2</ele>
        <time>2024-08-14T09:03:56Z</time>
      </trkpt>
      <trkpt lat="44.91799" lon="6.08418">
        <ele>1936.2</ele>
        <time>2024-08-14T09:03:57Z</time>
      </trkpt>
      <trkpt lat="44.91799" lon="6.08418">
        <ele>1936.4</ele>
        <time>2024-08-14T09:03:58Z</time>
      </trkpt>
      <trkpt lat="44.91798" lon="6.08414">
        <ele>1936.4</ele>
        <time>2024-08-14T09:03:59Z</time>
      </trkpt>
      <trkpt lat="44.91798" lon="6.08414">
        <ele>1936.6</ele>
        <time>2024-08-14T09:04:00Z</time>
      </trkpt>
      <trkpt lat="44.91798" lon="6.08414">
        <ele>1937</ele>
        <time>2024-08-14T09:04:01Z</time>
      </trkpt>
      <trkpt lat="44.91801" lon="6.08414">
        <ele>1937.2</ele>
        <time>2024-08-14T09:04:02Z</time>
      </trkpt>
      <trkpt lat="44.91801" lon="6.08414">
        <ele>1937.2</ele>
        <time>2024-08-14T09:04:03Z</time>
      </trkpt>
      <trkpt lat="44.91801" lon="6.08414">
        <ele>1937.6</ele>
        <time>2024-08-14T09:04:04Z</time>
      </trkpt>
      <trkpt lat="44.91802" lon="6.08415">
        <ele>1937.6</ele>
        <time>2024-08-14T09:04:05Z</time>
      </trkpt>
      <trkpt lat="44.91802" lon="6.08415">
        <ele>1937.8</ele>
        <time>2024-08-14T09:04:06Z</time>
      </trkpt>
      <trkpt lat="44.91802" lon="6.08415">
        <ele>1937.8</ele>
        <time>2024-08-14T09:04:07Z</time>
      </trkpt>
      <trkpt lat="44.91802" lon="6.08415">
        <ele>1938.2</ele>
        <time>2024-08-14T09:04:08Z</time>
      </trkpt>
      <trkpt lat="44.91805" lon="6.08417">
        <ele>1938.2</ele>
        <time>2024-08-14T09:04:09Z</time>
      </trkpt>
      <trkpt lat="44.91805" lon="6.08417">
        <ele>1938.4</ele>
        <time>2024-08-14T09:04:10Z</time>
      </trkpt>
      <trkpt lat="44.91805" lon="6.08417">
        <ele>1938.4</ele>
        <time>2024-08-14T09:04:11Z</time>
      </trkpt>
      <trkpt lat="44.91806" lon="6.08419">
        <ele>1938.8</ele>
        <time>2024-08-14T09:04:12Z</time>
      </trkpt>
      <trkpt lat="44.91806" lon="6.08419">
        <ele>1939.2</ele>
        <time>2024-08-14T09:04:13Z</time>
      </trkpt>
      <trkpt lat="44.91807" lon="6.08422">
        <ele>1939.4</ele>
        <time>2024-08-14T09:04:14Z</time>
      </trkpt>
      <trkpt lat="44.91807" lon="6.08422">
        <ele>1939.6</ele>
        <time>2024-08-14T09:04:15Z</time>
      </trkpt>
      <trkpt lat="44.91808" lon="6.08424">
        <ele>1939.6</ele>
        <time>2024-08-14T09:04:16Z</time>
      </trkpt>
      <trkpt lat="44.91808" lon="6.08424">
        <ele>1939.6</ele>
        <time>2024-08-14T09:04:17Z</time>
      </trkpt>
      <trkpt lat="44.91808" lon="6.08424">
        <ele>1939.6</ele>
        <time>2024-08-14T09:04:18Z</time>
      </trkpt>
      <trkpt lat="44.91808" lon="6.08424">
        <ele>1939.8</ele>
        <time>2024-08-14T09:04:19Z</time>
      </trkpt>
      <trkpt lat="44.9181" lon="6.08426">
        <ele>1940</ele>
        <time>2024-08-14T09:04:20Z</time>
      </trkpt>
      <trkpt lat="44.9181" lon="6.08426">
        <ele>1940</ele>
        <time>2024-08-14T09:04:21Z</time>
      </trkpt>
      <trkpt lat="44.9181" lon="6.08426">
        <ele>1940</ele>
        <time>2024-08-14T09:04:22Z</time>
      </trkpt>
      <trkpt lat="44.9181" lon="6.08426">
        <ele>1940.4</ele>
        <time>2024-08-14T09:04:23Z</time>
      </trkpt>
      <trkpt lat="44.91812" lon="6.08428">
        <ele>1941</ele>
        <time>2024-08-14T09:04:24Z</time>
      </trkpt>
      <trkpt lat="44.91812" lon="6.08428">
        <ele>1941.2</ele>
        <time>2024-08-14T09:04:25Z</time>
      </trkpt>
      <trkpt lat="44.91812" lon="6.08428">
        <ele>1941.8</ele>
        <time>2024-08-14T09:04:26Z</time>
      </trkpt>
      <trkpt lat="44.91812" lon="6.08428">
        <ele>1942</ele>
        <time>2024-08-14T09:04:27Z</time>
      </trkpt>
      <trkpt lat="44.91812" lon="6.08428">
        <ele>1942.2</ele>
        <time>2024-08-14T09:04:28Z</time>
      </trkpt>
      <trkpt lat="44.91813" lon="6.0843">
        <ele>1942.4</ele>
        <time>2024-08-14T09:04:29Z</time>
      </trkpt>
      <trkpt lat="44.91813" lon="6.0843">
        <ele>1942.6</ele>
        <time>2024-08-14T09:04:30Z</time>
      </trkpt>
      <trkpt lat="44.91813" lon="6.0843">
        <ele>1942.8</ele>
        <time>2024-08-14T09:04:31Z</time>
      </trkpt>
      <trkpt lat="44.91813" lon="6.0843">
        <ele>1942.8</ele>
        <time>2024-08-14T09:04:32Z</time>
      </trkpt>
      <trkpt lat="44.91814" lon="6.08432">
        <ele>1943</ele>
        <time>2024-08-14T09:04:33Z</time>
      </trkpt>
      <trkpt lat="44.91814" lon="6.08432">
        <ele>1943.4</ele>
        <time>2024-08-14T09:04:34Z</time>
      </trkpt>
      <trkpt lat="44.91814" lon="6.08432">
        <ele>1944</ele>
        <time>2024-08-14T09:04:35Z</time>
      </trkpt>
      <trkpt lat="44.91816" lon="6.08435">
        <ele>1944</ele>
        <time>2024-08-14T09:04:36Z</time>
      </trkpt>
      <trkpt lat="44.91816" lon="6.08435">
        <ele>1944.2</ele>
        <time>2024-08-14T09:04:37Z</time>
      </trkpt>
      <trkpt lat="44.91816" lon="6.08435">
        <ele>1944.8</ele>
        <time>2024-08-14T09:04:38Z</time>
      </trkpt>
      <trkpt lat="44.91817" lon="6.08437">
        <ele>1944.8</ele>
        <time>2024-08-14T09:04:39Z</time>
      </trkpt>
      <trkpt lat="44.91817" lon="6.08437">
        <ele>1944.8</ele>
        <time>2024-08-14T09:04:40Z</time>
      </trkpt>
      <trkpt lat="44.91817" lon="6.08437">
        <ele>1945.4</ele>
        <time>2024-08-14T09:04:41Z</time>
      </trkpt>
      <trkpt lat="44.91818" lon="6.08439">
        <ele>1945.4</ele>
        <time>2024-08-14T09:04:42Z</time>
      </trkpt>
      <trkpt lat="44.91818" lon="6.08439">
        <ele>1945.6</ele>
        <time>2024-08-14T09:04:43Z</time>
      </trkpt>
      <trkpt lat="44.91818" lon="6.08439">
        <ele>1945.8</ele>
        <time>2024-08-14T09:04:44Z</time>
      </trkpt>
      <trkpt lat="44.91818" lon="6.08439">
        <ele>1946.2</ele>
        <time>2024-08-14T09:04:45Z</time>
      </trkpt>
      <trkpt lat="44.9182" lon="6.08442">
        <ele>1946.4</ele>
        <time>2024-08-14T09:04:46Z</time>
      </trkpt>
      <trkpt lat="44.9182" lon="6.08442">
        <ele>1946.4</ele>
        <time>2024-08-14T09:04:47Z</time>
      </trkpt>
      <trkpt lat="44.9182" lon="6.08442">
        <ele>1946.6</ele>
        <time>2024-08-14T09:04:48Z</time>
      </trkpt>
      <trkpt lat="44.91822" lon="6.08443">
        <ele>1947.2</ele>
        <time>2024-08-14T09:04:49Z</time>
      </trkpt>
      <trkpt lat="44.91822" lon="6.08443">
        <ele>1947.2</ele>
        <time>2024-08-14T09:04:50Z</time>
      </trkpt>
      <trkpt lat="44.91822" lon="6.08443">
        <ele>1947.2</ele>
        <time>2024-08-14T09:04:51Z</time>
      </trkpt>
      <trkpt lat="44.91824" lon="6.08443">
        <ele>1947.8</ele>
        <time>2024-08-14T09:04:52Z</time>
      </trkpt>
      <trkpt lat="44.91824" lon="6.08443">
        <ele>1948</ele>
        <time>2024-08-14T09:04:53Z</time>
      </trkpt>
      <trkpt lat="44.91824" lon="6.08443">
        <ele>1948.2</ele>
        <time>2024-08-14T09:04:54Z</time>
      </trkpt>
      <trkpt lat="44.91824" lon="6.08443">
        <ele>1948.6</ele>
        <time>2024-08-14T09:04:55Z</time>
      </trkpt>
      <trkpt lat="44.91826" lon="6.08444">
        <ele>1948.8</ele>
        <time>2024-08-14T09:04:56Z</time>
      </trkpt>
      <trkpt lat="44.91826" lon="6.08444">
        <ele>1949.2</ele>
        <time>2024-08-14T09:04:57Z</time>
      </trkpt>
      <trkpt lat="44.91826" lon="6.08444">
        <ele>1949.8</ele>
        <time>2024-08-14T09:04:58Z</time>
      </trkpt>
      <trkpt lat="44.91826" lon="6.08444">
        <ele>1949.8</ele>
        <time>2024-08-14T09:04:59Z</time>
      </trkpt>
      <trkpt lat="44.91828" lon="6.08446">
        <ele>1950</ele>
        <time>2024-08-14T09:05:00Z</time>
      </trkpt>
      <trkpt lat="44.91828" lon="6.08446">
        <ele>1950.2</ele>
        <time>2024-08-14T09:05:01Z</time>
      </trkpt>
      <trkpt lat="44.91828" lon="6.08446">
        <ele>1950.6</ele>
        <time>2024-08-14T09:05:02Z</time>
      </trkpt>
      <trkpt lat="44.9183" lon="6.08446">
        <ele>1950.6</ele>
        <time>2024-08-14T09:05:03Z</time>
      </trkpt>
      <trkpt lat="44.9183" lon="6.08446">
        <ele>1950.8</ele>
        <time>2024-08-14T09:05:04Z</time>
      </trkpt>
      <trkpt lat="44.9183" lon="6.08446">
        <ele>1950.8</ele>
        <time>2024-08-14T09:05:05Z</time>
      </trkpt>
      <trkpt lat="44.91832" lon="6.08446">
        <ele>1951.2</ele>
        <time>2024-08-14T09:05:06Z</time>
      </trkpt>
      <trkpt lat="44.91832" lon="6.08446">
        <ele>1951.2</ele>
        <time>2024-08-14T09:05:07Z</time>
      </trkpt>
      <trkpt lat="44.91832" lon="6.08446">
        <ele>1951.6</ele>
        <time>2024-08-14T09:05:08Z</time>
      </trkpt>
      <trkpt lat="44.91832" lon="6.08446">
        <ele>1951.6</ele>
        <time>2024-08-14T09:05:09Z</time>
      </trkpt>
      <trkpt lat="44.91834" lon="6.08447">
        <ele>1951.6</ele>
        <time>2024-08-14T09:05:10Z</time>
      </trkpt>
      <trkpt lat="44.91834" lon="6.08447">
        <ele>1951.8</ele>
        <time>2024-08-14T09:05:11Z</time>
      </trkpt>
      <trkpt lat="44.91834" lon="6.08447">
        <ele>1952.4</ele>
        <time>2024-08-14T09:05:12Z</time>
      </trkpt>
      <trkpt lat="44.91836" lon="6.08447">
        <ele>1952.4</ele>
        <time>2024-08-14T09:05:13Z</time>
      </trkpt>
      <trkpt lat="44.91836" lon="6.08447">
        <ele>1952.6</ele>
        <time>2024-08-14T09:05:14Z</time>
      </trkpt>
      <trkpt lat="44.91836" lon="6.08447">
        <ele>1952.6</ele>
        <time>2024-08-14T09:05:15Z</time>
      </trkpt>
      <trkpt lat="44.91838" lon="6.08447">
        <ele>1953.2</ele>
        <time>2024-08-14T09:05:16Z</time>
      </trkpt>
      <trkpt lat="44.91838" lon="6.08447">
        <ele>1953.4</ele>
        <time>2024-08-14T09:05:17Z</time>
      </trkpt>
      <trkpt lat="44.91838" lon="6.08447">
        <ele>1953.4</ele>
        <time>2024-08-14T09:05:18Z</time>
      </trkpt>
      <trkpt lat="44.91838" lon="6.08447">
        <ele>1953.8</ele>
        <time>2024-08-14T09:05:19Z</time>
      </trkpt>
      <trkpt lat="44.9184" lon="6.08446">
        <ele>1953.8</ele>
        <time>2024-08-14T09:05:20Z</time>
      </trkpt>
      <trkpt lat="44.9184" lon="6.08446">
        <ele>1954</ele>
        <time>2024-08-14T09:05:21Z</time>
      </trkpt>
      <trkpt lat="44.9184" lon="6.08446">
        <ele>1954.4</ele>
        <time>2024-08-14T09:05:22Z</time>
      </trkpt>
      <trkpt lat="44.91842" lon="6.08446">
        <ele>1954.8</ele>
        <time>2024-08-14T09:05:23Z</time>
      </trkpt>
      <trkpt lat="44.91842" lon="6.08446">
        <ele>1955</ele>
        <time>2024-08-14T09:05:24Z</time>
      </trkpt>
      <trkpt lat="44.91842" lon="6.08446">
        <ele>1955.4</ele>
        <time>2024-08-14T09:05:25Z</time>
      </trkpt>
      <trkpt lat="44.91842" lon="6.08446">
        <ele>1955.6</ele>
        <time>2024-08-14T09:05:26Z</time>
      </trkpt>
      <trkpt lat="44.91845" lon="6.08447">
        <ele>1956</ele>
        <time>2024-08-14T09:05:27Z</time>
      </trkpt>
      <trkpt lat="44.91845" lon="6.08447">
        <ele>1956</ele>
        <time>2024-08-14T09:05:28Z</time>
      </trkpt>
      <trkpt lat="44.91845" lon="6.08447">
        <ele>1956.2</ele>
        <time>2024-08-14T09:05:29Z</time>
      </trkpt>
      <trkpt lat="44.91847" lon="6.08448">
        <ele>1956.4</ele>
        <time>2024-08-14T09:05:30Z</time>
      </trkpt>
      <trkpt lat="44.91847" lon="6.08448">
        <ele>1956.6</ele>
        <time>2024-08-14T09:05:31Z</time>
      </trkpt>
      <trkpt lat="44.91847" lon="6.08448">
        <ele>1956.8</ele>
        <time>2024-08-14T09:05:32Z</time>
      </trkpt>
      <trkpt lat="44.91847" lon="6.08448">
        <ele>1957</ele>
        <time>2024-08-14T09:05:33Z</time>
      </trkpt>
      <trkpt lat="44.91849" lon="6.08447">
        <ele>1957</ele>
        <time>2024-08-14T09:05:34Z</time>
      </trkpt>
      <trkpt lat="44.91849" lon="6.08447">
        <ele>1957.2</ele>
        <time>2024-08-14T09:05:35Z</time>
      </trkpt>
      <trkpt lat="44.91849" lon="6.08447">
        <ele>1957.8</ele>
        <time>2024-08-14T09:05:36Z</time>
      </trkpt>
      <trkpt lat="44.91851" lon="6.08448">
        <ele>1957.8</ele>
        <time>2024-08-14T09:05:37Z</time>
      </trkpt>
      <trkpt lat="44.91851" lon="6.08448">
        <ele>1957.8</ele>
        <time>2024-08-14T09:05:38Z</time>
      </trkpt>
      <trkpt lat="44.91851" lon="6.08448">
        <ele>1958</ele>
        <time>2024-08-14T09:05:39Z</time>
      </trkpt>
      <trkpt lat="44.91851" lon="6.08448">
        <ele>1958.2</ele>
        <time>2024-08-14T09:05:40Z</time>
      </trkpt>
      <trkpt lat="44.91853" lon="6.08449">
        <ele>1958.4</ele>
        <time>2024-08-14T09:05:41Z</time>
      </trkpt>
      <trkpt lat="44.91853" lon="6.08449">
        <ele>1958.8</ele>
        <time>2024-08-14T09:05:42Z</time>
      </trkpt>
      <trkpt lat="44.91853" lon="6.08449">
        <ele>1959</ele>
        <time>2024-08-14T09:05:43Z</time>
      </trkpt>
      <trkpt lat="44.91853" lon="6.08449">
        <ele>1959.4</ele>
        <time>2024-08-14T09:05:44Z</time>
      </trkpt>
      <trkpt lat="44.91856" lon="6.08451">
        <ele>1959.4</ele>
        <time>2024-08-14T09:05:45Z</time>
      </trkpt>
      <trkpt lat="44.91856" lon="6.08451">
        <ele>1959.4</ele>
        <time>2024-08-14T09:05:46Z</time>
      </trkpt>
      <trkpt lat="44.91856" lon="6.08451">
        <ele>1959.6</ele>
        <time>2024-08-14T09:05:47Z</time>
      </trkpt>
      <trkpt lat="44.91858" lon="6.08451">
        <ele>1959.8</ele>
        <time>2024-08-14T09:05:48Z</time>
      </trkpt>
      <trkpt lat="44.91858" lon="6.08451">
        <ele>1960</ele>
        <time>2024-08-14T09:05:49Z</time>
      </trkpt>
      <trkpt lat="44.91858" lon="6.08451">
        <ele>1960.8</ele>
        <time>2024-08-14T09:05:50Z</time>
      </trkpt>
      <trkpt lat="44.9186" lon="6.08451">
        <ele>1960.8</ele>
        <time>2024-08-14T09:05:51Z</time>
      </trkpt>
      <trkpt lat="44.9186" lon="6.08451">
        <ele>1961</ele>
        <time>2024-08-14T09:05:52Z</time>
      </trkpt>
      <trkpt lat="44.9186" lon="6.08451">
        <ele>1961.4</ele>
        <time>2024-08-14T09:05:53Z</time>
      </trkpt>
      <trkpt lat="44.9186" lon="6.08451">
        <ele>1961.4</ele>
        <time>2024-08-14T09:05:54Z</time>
      </trkpt>
      <trkpt lat="44.91861" lon="6.08451">
        <ele>1962</ele>
        <time>2024-08-14T09:05:55Z</time>
      </trkpt>
      <trkpt lat="44.91861" lon="6.08451">
        <ele>1962.2</ele>
        <time>2024-08-14T09:05:56Z</time>
      </trkpt>
      <trkpt lat="44.91861" lon="6.08451">
        <ele>1962.4</ele>
        <time>2024-08-14T09:05:57Z</time>
      </trkpt>
      <trkpt lat="44.91863" lon="6.08451">
        <ele>1962.6</ele>
        <time>2024-08-14T09:05:58Z</time>
      </trkpt>
      <trkpt lat="44.91863" lon="6.08451">
        <ele>1962.8</ele>
        <time>2024-08-14T09:05:59Z</time>
      </trkpt>
      <trkpt lat="44.91863" lon="6.08451">
        <ele>1963.2</ele>
        <time>2024-08-14T09:06:00Z</time>
      </trkpt>
      <trkpt lat="44.91863" lon="6.08451">
        <ele>1963.2</ele>
        <time>2024-08-14T09:06:01Z</time>
      </trkpt>
      <trkpt lat="44.91865" lon="6.08452">
        <ele>1963.6</ele>
        <time>2024-08-14T09:06:02Z</time>
      </trkpt>
      <trkpt lat="44.91865" lon="6.08452">
        <ele>1963.6</ele>
        <time>2024-08-14T09:06:03Z</time>
      </trkpt>
      <trkpt lat="44.91865" lon="6.08452">
        <ele>1963.8</ele>
        <time>2024-08-14T09:06:04Z</time>
      </trkpt>
      <trkpt lat="44.91868" lon="6.08451">
        <ele>1963.8</ele>
        <time>2024-08-14T09:06:05Z</time>
      </trkpt>
      <trkpt lat="44.91868" lon="6.08451">
        <ele>1964.6</ele>
        <time>2024-08-14T09:06:06Z</time>
      </trkpt>
      <trkpt lat="44.91868" lon="6.08451">
        <ele>1964.6</ele>
        <time>2024-08-14T09:06:07Z</time>
      </trkpt>
      <trkpt lat="44.91869" lon="6.08452">
        <ele>1964.8</ele>
        <time>2024-08-14T09:06:08Z</time>
      </trkpt>
      <trkpt lat="44.91869" lon="6.08452">
        <ele>1964.8</ele>
        <time>2024-08-14T09:06:09Z</time>
      </trkpt>
      <trkpt lat="44.91869" lon="6.08452">
        <ele>1965.4</ele>
        <time>2024-08-14T09:06:10Z</time>
      </trkpt>
      <trkpt lat="44.91871" lon="6.08454">
        <ele>1965.6</ele>
        <time>2024-08-14T09:06:11Z</time>
      </trkpt>
      <trkpt lat="44.91871" lon="6.08454">
        <ele>1965.6</ele>
        <time>2024-08-14T09:06:12Z</time>
      </trkpt>
      <trkpt lat="44.91871" lon="6.08454">
        <ele>1965.8</ele>
        <time>2024-08-14T09:06:13Z</time>
      </trkpt>
      <trkpt lat="44.91873" lon="6.08454">
        <ele>1966</ele>
        <time>2024-08-14T09:06:14Z</time>
      </trkpt>
      <trkpt lat="44.91873" lon="6.08454">
        <ele>1966.2</ele>
        <time>2024-08-14T09:06:15Z</time>
      </trkpt>
      <trkpt lat="44.91873" lon="6.08454">
        <ele>1966.2</ele>
        <time>2024-08-14T09:06:16Z</time>
      </trkpt>
      <trkpt lat="44.91873" lon="6.08454">
        <ele>1966.8</ele>
        <time>2024-08-14T09:06:17Z</time>
      </trkpt>
      <trkpt lat="44.91875" lon="6.08455">
        <ele>1966.8</ele>
        <time>2024-08-14T09:06:18Z</time>
      </trkpt>
      <trkpt lat="44.91875" lon="6.08455">
        <ele>1967</ele>
        <time>2024-08-14T09:06:19Z</time>
      </trkpt>
      <trkpt lat="44.91875" lon="6.08455">
        <ele>1967.2</ele>
        <time>2024-08-14T09:06:20Z</time>
      </trkpt>
      <trkpt lat="44.91877" lon="6.08454">
        <ele>1967.4</ele>
        <time>2024-08-14T09:06:21Z</time>
      </trkpt>
      <trkpt lat="44.91877" lon="6.08454">
        <ele>1967.6</ele>
        <time>2024-08-14T09:06:22Z</time>
      </trkpt>
      <trkpt lat="44.91877" lon="6.08454">
        <ele>1968</ele>
        <time>2024-08-14T09:06:23Z</time>
      </trkpt>
      <trkpt lat="44.91877" lon="6.08454">
        <ele>1968.2</ele>
        <time>2024-08-14T09:06:24Z</time>
      </trkpt>
      <trkpt lat="44.91879" lon="6.08452">
        <ele>1968.4</ele>
        <time>2024-08-14T09:06:25Z</time>
      </trkpt>
      <trkpt lat="44.91879" lon="6.08452">
        <ele>1968.8</ele>
        <time>2024-08-14T09:06:26Z</time>
      </trkpt>
      <trkpt lat="44.91879" lon="6.08452">
        <ele>1968.8</ele>
        <time>2024-08-14T09:06:27Z</time>
      </trkpt>
      <trkpt lat="44.91879" lon="6.08452">
        <ele>1969.2</ele>
        <time>2024-08-14T09:06:28Z</time>
      </trkpt>
      <trkpt lat="44.91881" lon="6.08452">
        <ele>1969.6</ele>
        <time>2024-08-14T09:06:29Z</time>
      </trkpt>
      <trkpt lat="44.91881" lon="6.08452">
        <ele>1969.8</ele>
        <time>2024-08-14T09:06:30Z</time>
      </trkpt>
      <trkpt lat="44.91881" lon="6.08452">
        <ele>1970</ele>
        <time>2024-08-14T09:06:31Z</time>
      </trkpt>
      <trkpt lat="44.91881" lon="6.08452">
        <ele>1970.2</ele>
        <time>2024-08-14T09:06:32Z</time>
      </trkpt>
      <trkpt lat="44.91883" lon="6.0845">
        <ele>1970.4</ele>
        <time>2024-08-14T09:06:33Z</time>
      </trkpt>
      <trkpt lat="44.91883" lon="6.0845">
        <ele>1970.8</ele>
        <time>2024-08-14T09:06:34Z</time>
      </trkpt>
      <trkpt lat="44.91883" lon="6.0845">
        <ele>1971</ele>
        <time>2024-08-14T09:06:35Z</time>
      </trkpt>
      <trkpt lat="44.91885" lon="6.0845">
        <ele>1971.4</ele>
        <time>2024-08-14T09:06:36Z</time>
      </trkpt>
      <trkpt lat="44.91885" lon="6.0845">
        <ele>1971.8</ele>
        <time>2024-08-14T09:06:37Z</time>
      </trkpt>
      <trkpt lat="44.91885" lon="6.0845">
        <ele>1972</ele>
        <time>2024-08-14T09:06:38Z</time>
      </trkpt>
      <trkpt lat="44.91887" lon="6.08449">
        <ele>1972.2</ele>
        <time>2024-08-14T09:06:39Z</time>
      </trkpt>
      <trkpt lat="44.91887" lon="6.08449">
        <ele>1972.4</ele>
        <time>2024-08-14T09:06:40Z</time>
      </trkpt>
      <trkpt lat="44.91887" lon="6.08449">
        <ele>1972.6</ele>
        <time>2024-08-14T09:06:41Z</time>
      </trkpt>
      <trkpt lat="44.91887" lon="6.08449">
        <ele>1973</ele>
        <time>2024-08-14T09:06:42Z</time>
      </trkpt>
      <trkpt lat="44.91889" lon="6.08448">
        <ele>1973.2</ele>
        <time>2024-08-14T09:06:43Z</time>
      </trkpt>
      <trkpt lat="44.91889" lon="6.08448">
        <ele>1973.2</ele>
        <time>2024-08-14T09:06:44Z</time>
      </trkpt>
      <trkpt lat="44.91889" lon="6.08448">
        <ele>1973.8</ele>
        <time>2024-08-14T09:06:45Z</time>
      </trkpt>
      <trkpt lat="44.91889" lon="6.08448">
        <ele>1974.2</ele>
        <time>2024-08-14T09:06:46Z</time>
      </trkpt>
      <trkpt lat="44.91892" lon="6.08448">
        <ele>1974.4</ele>
        <time>2024-08-14T09:06:47Z</time>
      </trkpt>
      <trkpt lat="44.91892" lon="6.08448">
        <ele>1974.6</ele>
        <time>2024-08-14T09:06:48Z</time>
      </trkpt>
      <trkpt lat="44.91892" lon="6.08448">
        <ele>1974.8</ele>
        <time>2024-08-14T09:06:49Z</time>
      </trkpt>
      <trkpt lat="44.91892" lon="6.08448">
        <ele>1974.8</ele>
        <time>2024-08-14T09:06:50Z</time>
      </trkpt>
      <trkpt lat="44.91893" lon="6.08447">
        <ele>1975.2</ele>
        <time>2024-08-14T09:06:51Z</time>
      </trkpt>
      <trkpt lat="44.91893" lon="6.08447">
        <ele>1975.6</ele>
        <time>2024-08-14T09:06:52Z</time>
      </trkpt>
      <trkpt lat="44.91893" lon="6.08447">
        <ele>1975.6</ele>
        <time>2024-08-14T09:06:53Z</time>
      </trkpt>
      <trkpt lat="44.91895" lon="6.08448">
        <ele>1975.6</ele>
        <time>2024-08-14T09:06:54Z</time>
      </trkpt>
      <trkpt lat="44.91895" lon="6.08448">
        <ele>1976</ele>
        <time>2024-08-14T09:06:55Z</time>
      </trkpt>
      <trkpt lat="44.91895" lon="6.08448">
        <ele>1976.6</ele>
        <time>2024-08-14T09:06:56Z</time>
      </trkpt>
      <trkpt lat="44.91895" lon="6.08448">
        <ele>1976.8</ele>
        <time>2024-08-14T09:06:57Z</time>
      </trkpt>
      <trkpt lat="44.91897" lon="6.0845">
        <ele>1976.8</ele>
        <time>2024-08-14T09:06:58Z</time>
      </trkpt>
      <trkpt lat="44.91897" lon="6.0845">
        <ele>1977.2</ele>
        <time>2024-08-14T09:06:59Z</time>
      </trkpt>
      <trkpt lat="44.91897" lon="6.0845">
        <ele>1977.4</ele>
        <time>2024-08-14T09:07:00Z</time>
      </trkpt>
      <trkpt lat="44.91899" lon="6.0845">
        <ele>1977.8</ele>
        <time>2024-08-14T09:07:01Z</time>
      </trkpt>
      <trkpt lat="44.91899" lon="6.0845">
        <ele>1978</ele>
        <time>2024-08-14T09:07:02Z</time>
      </trkpt>
      <trkpt lat="44.91899" lon="6.0845">
        <ele>1978.2</ele>
        <time>2024-08-14T09:07:03Z</time>
      </trkpt>
      <trkpt lat="44.91899" lon="6.0845">
        <ele>1978.6</ele>
        <time>2024-08-14T09:07:04Z</time>
      </trkpt>
      <trkpt lat="44.91899" lon="6.0845">
        <ele>1978.6</ele>
        <time>2024-08-14T09:07:05Z</time>
      </trkpt>
      <trkpt lat="44.91901" lon="6.08451">
        <ele>1979</ele>
        <time>2024-08-14T09:07:06Z</time>
      </trkpt>
      <trkpt lat="44.91901" lon="6.08451">
        <ele>1979</ele>
        <time>2024-08-14T09:07:07Z</time>
      </trkpt>
      <trkpt lat="44.91901" lon="6.08451">
        <ele>1979.2</ele>
        <time>2024-08-14T09:07:08Z</time>
      </trkpt>
      <trkpt lat="44.91901" lon="6.08451">
        <ele>1979.4</ele>
        <time>2024-08-14T09:07:09Z</time>
      </trkpt>
      <trkpt lat="44.91903" lon="6.08453">
        <ele>1979.8</ele>
        <time>2024-08-14T09:07:10Z</time>
      </trkpt>
      <trkpt lat="44.91903" lon="6.08453">
        <ele>1980</ele>
        <time>2024-08-14T09:07:11Z</time>
      </trkpt>
      <trkpt lat="44.91903" lon="6.08453">
        <ele>1980</ele>
        <time>2024-08-14T09:07:12Z</time>
      </trkpt>
      <trkpt lat="44.91903" lon="6.08453">
        <ele>1980.2</ele>
        <time>2024-08-14T09:07:13Z</time>
      </trkpt>
      <trkpt lat="44.91905" lon="6.08454">
        <ele>1980.2</ele>
        <time>2024-08-14T09:07:14Z</time>
      </trkpt>
      <trkpt lat="44.91905" lon="6.08454">
        <ele>1980.4</ele>
        <time>2024-08-14T09:07:15Z</time>
      </trkpt>
      <trkpt lat="44.91905" lon="6.08454">
        <ele>1981</ele>
        <time>2024-08-14T09:07:16Z</time>
      </trkpt>
      <trkpt lat="44.91905" lon="6.08454">
        <ele>1981</ele>
        <time>2024-08-14T09:07:17Z</time>
      </trkpt>
      <trkpt lat="44.91908" lon="6.08454">
        <ele>1981.2</ele>
        <time>2024-08-14T09:07:18Z</time>
      </trkpt>
      <trkpt lat="44.91908" lon="6.08454">
        <ele>1981.4</ele>
        <time>2024-08-14T09:07:19Z</time>
      </trkpt>
      <trkpt lat="44.91908" lon="6.08454">
        <ele>1981.6</ele>
        <time>2024-08-14T09:07:20Z</time>
      </trkpt>
      <trkpt lat="44.91908" lon="6.08454">
        <ele>1981.8</ele>
        <time>2024-08-14T09:07:21Z</time>
      </trkpt>
      <trkpt lat="44.9191" lon="6.08454">
        <ele>1981.8</ele>
        <time>2024-08-14T09:07:22Z</time>
      </trkpt>
      <trkpt lat="44.9191" lon="6.08454">
        <ele>1982.2</ele>
        <time>2024-08-14T09:07:23Z</time>
      </trkpt>
      <trkpt lat="44.9191" lon="6.08454">
        <ele>1982.6</ele>
        <time>2024-08-14T09:07:24Z</time>
      </trkpt>
      <trkpt lat="44.9191" lon="6.08454">
        <ele>1982.6</ele>
        <time>2024-08-14T09:07:25Z</time>
      </trkpt>
      <trkpt lat="44.91912" lon="6.08454">
        <ele>1983.2</ele>
        <time>2024-08-14T09:07:26Z</time>
      </trkpt>
      <trkpt lat="44.91912" lon="6.08454">
        <ele>1983.4</ele>
        <time>2024-08-14T09:07:27Z</time>
      </trkpt>
      <trkpt lat="44.91912" lon="6.08454">
        <ele>1983.4</ele>
        <time>2024-08-14T09:07:28Z</time>
      </trkpt>
      <trkpt lat="44.91912" lon="6.08454">
        <ele>1983.6</ele>
        <time>2024-08-14T09:07:29Z</time>
      </trkpt>
      <trkpt lat="44.91914" lon="6.08453">
        <ele>1984</ele>
        <time>2024-08-14T09:07:30Z</time>
      </trkpt>
      <trkpt lat="44.91914" lon="6.08453">
        <ele>1984</ele>
        <time>2024-08-14T09:07:31Z</time>
      </trkpt>
      <trkpt lat="44.91914" lon="6.08453">
        <ele>1984.2</ele>
        <time>2024-08-14T09:07:32Z</time>
      </trkpt>
      <trkpt lat="44.91914" lon="6.08453">
        <ele>1984.2</ele>
        <time>2024-08-14T09:07:33Z</time>
      </trkpt>
      <trkpt lat="44.91915" lon="6.0845">
        <ele>1984.6</ele>
        <time>2024-08-14T09:07:34Z</time>
      </trkpt>
      <trkpt lat="44.91915" lon="6.0845">
        <ele>1984.8</ele>
        <time>2024-08-14T09:07:35Z</time>
      </trkpt>
      <trkpt lat="44.91915" lon="6.0845">
        <ele>1985</ele>
        <time>2024-08-14T09:07:36Z</time>
      </trkpt>
      <trkpt lat="44.91915" lon="6.0845">
        <ele>1985.2</ele>
        <time>2024-08-14T09:07:37Z</time>
      </trkpt>
      <trkpt lat="44.91915" lon="6.0845">
        <ele>1985.6</ele>
        <time>2024-08-14T09:07:38Z</time>
      </trkpt>
      <trkpt lat="44.91914" lon="6.08448">
        <ele>1985.6</ele>
        <time>2024-08-14T09:07:39Z</time>
      </trkpt>
      <trkpt lat="44.91914" lon="6.08448">
        <ele>1986.4</ele>
        <time>2024-08-14T09:07:40Z</time>
      </trkpt>
      <trkpt lat="44.91914" lon="6.08448">
        <ele>1986.8</ele>
        <time>2024-08-14T09:07:41Z</time>
      </trkpt>
      <trkpt lat="44.91913" lon="6.08445">
        <ele>1987</ele>
        <time>2024-08-14T09:07:42Z</time>
      </trkpt>
      <trkpt lat="44.91913" lon="6.08445">
        <ele>1987</ele>
        <time>2024-08-14T09:07:43Z</time>
      </trkpt>
      <trkpt lat="44.91913" lon="6.08445">
        <ele>1987.2</ele>
        <time>2024-08-14T09:07:44Z</time>
      </trkpt>
      <trkpt lat="44.91913" lon="6.08445">
        <ele>1987.6</ele>
        <time>2024-08-14T09:07:45Z</time>
      </trkpt>
      <trkpt lat="44.91913" lon="6.08445">
        <ele>1987.6</ele>
        <time>2024-08-14T09:07:46Z</time>
      </trkpt>
      <trkpt lat="44.91913" lon="6.08442">
        <ele>1987.8</ele>
        <time>2024-08-14T09:07:47Z</time>
      </trkpt>
      <trkpt lat="44.91913" lon="6.08442">
        <ele>1987.8</ele>
        <time>2024-08-14T09:07:48Z</time>
      </trkpt>
      <trkpt lat="44.91912" lon="6.08439">
        <ele>1988.2</ele>
        <time>2024-08-14T09:07:49Z</time>
      </trkpt>
      <trkpt lat="44.91912" lon="6.08439">
        <ele>1988.6</ele>
        <time>2024-08-14T09:07:50Z</time>
      </trkpt>
      <trkpt lat="44.91912" lon="6.08439">
        <ele>1988.8</ele>
        <time>2024-08-14T09:07:51Z</time>
      </trkpt>
      <trkpt lat="44.91912" lon="6.08436">
        <ele>1989</ele>
        <time>2024-08-14T09:07:52Z</time>
      </trkpt>
      <trkpt lat="44.91912" lon="6.08436">
        <ele>1989</ele>
        <time>2024-08-14T09:07:53Z</time>
      </trkpt>
      <trkpt lat="44.91912" lon="6.08436">
        <ele>1989.2</ele>
        <time>2024-08-14T09:07:54Z</time>
      </trkpt>
      <trkpt lat="44.91911" lon="6.08433">
        <ele>1989.4</ele>
        <time>2024-08-14T09:07:55Z</time>
      </trkpt>
      <trkpt lat="44.91911" lon="6.08433">
        <ele>1989.8</ele>
        <time>2024-08-14T09:07:56Z</time>
      </trkpt>
      <trkpt lat="44.91911" lon="6.08433">
        <ele>1989.8</ele>
        <time>2024-08-14T09:07:57Z</time>
      </trkpt>
      <trkpt lat="44.91911" lon="6.08433">
        <ele>1990</ele>
        <time>2024-08-14T09:07:58Z</time>
      </trkpt>
      <trkpt lat="44.91911" lon="6.0843">
        <ele>1990.8</ele>
        <time>2024-08-14T09:07:59Z</time>
      </trkpt>
      <trkpt lat="44.91911" lon="6.0843">
        <ele>1990.8</ele>
        <time>2024-08-14T09:08:00Z</time>
      </trkpt>
      <trkpt lat="44.91911" lon="6.0843">
        <ele>1990.8</ele>
        <time>2024-08-14T09:08:01Z</time>
      </trkpt>
      <trkpt lat="44.9191" lon="6.08427">
        <ele>1991.4</ele>
        <time>2024-08-14T09:08:02Z</time>
      </trkpt>
      <trkpt lat="44.9191" lon="6.08427">
        <ele>1991.4</ele>
        <time>2024-08-14T09:08:03Z</time>
      </trkpt>
      <trkpt lat="44.9191" lon="6.08427">
        <ele>1991.2</ele>
        <time>2024-08-14T09:08:04Z</time>
      </trkpt>
      <trkpt lat="44.9191" lon="6.08427">
        <ele>1991.2</ele>
        <time>2024-08-14T09:08:05Z</time>
      </trkpt>
      <trkpt lat="44.9191" lon="6.08424">
        <ele>1991.4</ele>
        <time>2024-08-14T09:08:06Z</time>
      </trkpt>
      <trkpt lat="44.9191" lon="6.08424">
        <ele>1992</ele>
        <time>2024-08-14T09:08:07Z</time>
      </trkpt>
      <trkpt lat="44.9191" lon="6.08424">
        <ele>1992.2</ele>
        <time>2024-08-14T09:08:08Z</time>
      </trkpt>
      <trkpt lat="44.91909" lon="6.08421">
        <ele>1992.6</ele>
        <time>2024-08-14T09:08:09Z</time>
      </trkpt>
      <trkpt lat="44.91909" lon="6.08421">
        <ele>1992.8</ele>
        <time>2024-08-14T09:08:10Z</time>
      </trkpt>
      <trkpt lat="44.91909" lon="6.08421">
        <ele>1993</ele>
        <time>2024-08-14T09:08:11Z</time>
      </trkpt>
      <trkpt lat="44.91909" lon="6.08417">
        <ele>1993</ele>
        <time>2024-08-14T09:08:12Z</time>
      </trkpt>
      <trkpt lat="44.91909" lon="6.08417">
        <ele>1993.4</ele>
        <time>2024-08-14T09:08:13Z</time>
      </trkpt>
      <trkpt lat="44.91909" lon="6.08417">
        <ele>1993.4</ele>
        <time>2024-08-14T09:08:14Z</time>
      </trkpt>
      <trkpt lat="44.91908" lon="6.08415">
        <ele>1993.4</ele>
        <time>2024-08-14T09:08:15Z</time>
      </trkpt>
      <trkpt lat="44.91908" lon="6.08415">
        <ele>1993.8</ele>
        <time>2024-08-14T09:08:16Z</time>
      </trkpt>
      <trkpt lat="44.91908" lon="6.08415">
        <ele>1994</ele>
        <time>2024-08-14T09:08:17Z</time>
      </trkpt>
      <trkpt lat="44.91908" lon="6.08412">
        <ele>1994.2</ele>
        <time>2024-08-14T09:08:18Z</time>
      </trkpt>
      <trkpt lat="44.91908" lon="6.08412">
        <ele>1994.4</ele>
        <time>2024-08-14T09:08:19Z</time>
      </trkpt>
      <trkpt lat="44.91908" lon="6.08412">
        <ele>1994.4</ele>
        <time>2024-08-14T09:08:20Z</time>
      </trkpt>
      <trkpt lat="44.91908" lon="6.08409">
        <ele>1995</ele>
        <time>2024-08-14T09:08:21Z</time>
      </trkpt>
      <trkpt lat="44.91908" lon="6.08409">
        <ele>1995</ele>
        <time>2024-08-14T09:08:22Z</time>
      </trkpt>
      <trkpt lat="44.91908" lon="6.08409">
        <ele>1995</ele>
        <time>2024-08-14T09:08:23Z</time>
      </trkpt>
      <trkpt lat="44.91908" lon="6.08409">
        <ele>1995.4</ele>
        <time>2024-08-14T09:08:24Z</time>
      </trkpt>
      <trkpt lat="44.91906" lon="6.08405">
        <ele>1995.6</ele>
        <time>2024-08-14T09:08:25Z</time>
      </trkpt>
      <trkpt lat="44.91906" lon="6.08405">
        <ele>1995.8</ele>
        <time>2024-08-14T09:08:26Z</time>
      </trkpt>
      <trkpt lat="44.91906" lon="6.08405">
        <ele>1996</ele>
        <time>2024-08-14T09:08:27Z</time>
      </trkpt>
      <trkpt lat="44.91906" lon="6.08403">
        <ele>1996.2</ele>
        <time>2024-08-14T09:08:28Z</time>
      </trkpt>
      <trkpt lat="44.91906" lon="6.08403">
        <ele>1996.2</ele>
        <time>2024-08-14T09:08:29Z</time>
      </trkpt>
      <trkpt lat="44.91906" lon="6.08403">
        <ele>1996.4</ele>
        <time>2024-08-14T09:08:30Z</time>
      </trkpt>
      <trkpt lat="44.91905" lon="6.084">
        <ele>1996.6</ele>
        <time>2024-08-14T09:08:31Z</time>
      </trkpt>
      <trkpt lat="44.91905" lon="6.084">
        <ele>1996.8</ele>
        <time>2024-08-14T09:08:32Z</time>
      </trkpt>
      <trkpt lat="44.91904" lon="6.08397">
        <ele>1997</ele>
        <time>2024-08-14T09:08:33Z</time>
      </trkpt>
      <trkpt lat="44.91904" lon="6.08397">
        <ele>1997.6</ele>
        <time>2024-08-14T09:08:34Z</time>
      </trkpt>
      <trkpt lat="44.91904" lon="6.08397">
        <ele>1998</ele>
        <time>2024-08-14T09:08:35Z</time>
      </trkpt>
      <trkpt lat="44.91904" lon="6.08394">
        <ele>1998</ele>
        <time>2024-08-14T09:08:36Z</time>
      </trkpt>
      <trkpt lat="44.91904" lon="6.08394">
        <ele>1998.2</ele>
        <time>2024-08-14T09:08:37Z</time>
      </trkpt>
      <trkpt lat="44.91904" lon="6.08394">
        <ele>1998.2</ele>
        <time>2024-08-14T09:08:38Z</time>
      </trkpt>
      <trkpt lat="44.91904" lon="6.08391">
        <ele>1998.4</ele>
        <time>2024-08-14T09:08:39Z</time>
      </trkpt>
      <trkpt lat="44.91904" lon="6.08391">
        <ele>1998.4</ele>
        <time>2024-08-14T09:08:40Z</time>
      </trkpt>
      <trkpt lat="44.91904" lon="6.08391">
        <ele>1998.8</ele>
        <time>2024-08-14T09:08:41Z</time>
      </trkpt>
      <trkpt lat="44.91903" lon="6.08388">
        <ele>1999</ele>
        <time>2024-08-14T09:08:42Z</time>
      </trkpt>
      <trkpt lat="44.91903" lon="6.08388">
        <ele>1999.4</ele>
        <time>2024-08-14T09:08:43Z</time>
      </trkpt>
      <trkpt lat="44.91903" lon="6.08388">
        <ele>1999.4</ele>
        <time>2024-08-14T09:08:44Z</time>
      </trkpt>
      <trkpt lat="44.91903" lon="6.08385">
        <ele>1999.8</ele>
        <time>2024-08-14T09:08:45Z</time>
      </trkpt>
      <trkpt lat="44.91903" lon="6.08385">
        <ele>1999.8</ele>
        <time>2024-08-14T09:08:46Z</time>
      </trkpt>
      <trkpt lat="44.91903" lon="6.08385">
        <ele>2000</ele>
        <time>2024-08-14T09:08:47Z</time>
      </trkpt>
      <trkpt lat="44.91902" lon="6.08381">
        <ele>2000.2</ele>
        <time>2024-08-14T09:08:48Z</time>
      </trkpt>
      <trkpt lat="44.91902" lon="6.08381">
        <ele>2000.4</ele>
        <time>2024-08-14T09:08:49Z</time>
      </trkpt>
      <trkpt lat="44.91902" lon="6.08381">
        <ele>2000.4</ele>
        <time>2024-08-14T09:08:50Z</time>
      </trkpt>
      <trkpt lat="44.91902" lon="6.08378">
        <ele>2000.8</ele>
        <time>2024-08-14T09:08:51Z</time>
      </trkpt>
      <trkpt lat="44.91902" lon="6.08378">
        <ele>2001.2</ele>
        <time>2024-08-14T09:08:52Z</time>
      </trkpt>
      <trkpt lat="44.91902" lon="6.08378">
        <ele>2001.2</ele>
        <time>2024-08-14T09:08:53Z</time>
      </trkpt>
      <trkpt lat="44.91901" lon="6.08375">
        <ele>2001.6</ele>
        <time>2024-08-14T09:08:54Z</time>
      </trkpt>
      <trkpt lat="44.91901" lon="6.08375">
        <ele>2001.6</ele>
        <time>2024-08-14T09:08:55Z</time>
      </trkpt>
      <trkpt lat="44.91901" lon="6.08375">
        <ele>2001.6</ele>
        <time>2024-08-14T09:08:56Z</time>
      </trkpt>
      <trkpt lat="44.91901" lon="6.08371">
        <ele>2001.8</ele>
        <time>2024-08-14T09:08:57Z</time>
      </trkpt>
      <trkpt lat="44.91901" lon="6.08371">
        <ele>2001.8</ele>
        <time>2024-08-14T09:08:58Z</time>
      </trkpt>
      <trkpt lat="44.919" lon="6.08369">
        <ele>2002.4</ele>
        <time>2024-08-14T09:08:59Z</time>
      </trkpt>
      <trkpt lat="44.919" lon="6.08369">
        <ele>2002.6</ele>
        <time>2024-08-14T09:09:00Z</time>
      </trkpt>
      <trkpt lat="44.919" lon="6.08369">
        <ele>2002.8</ele>
        <time>2024-08-14T09:09:01Z</time>
      </trkpt>
      <trkpt lat="44.919" lon="6.08366">
        <ele>2003</ele>
        <time>2024-08-14T09:09:02Z</time>
      </trkpt>
      <trkpt lat="44.919" lon="6.08366">
        <ele>2003</ele>
        <time>2024-08-14T09:09:03Z</time>
      </trkpt>
      <trkpt lat="44.919" lon="6.08366">
        <ele>2003</ele>
        <time>2024-08-14T09:09:04Z</time>
      </trkpt>
      <trkpt lat="44.919" lon="6.08362">
        <ele>2003</ele>
        <time>2024-08-14T09:09:05Z</time>
      </trkpt>
      <trkpt lat="44.919" lon="6.08362">
        <ele>2003.2</ele>
        <time>2024-08-14T09:09:06Z</time>
      </trkpt>
      <trkpt lat="44.919" lon="6.08362">
        <ele>2003.4</ele>
        <time>2024-08-14T09:09:07Z</time>
      </trkpt>
      <trkpt lat="44.91901" lon="6.08359">
        <ele>2003.6</ele>
        <time>2024-08-14T09:09:08Z</time>
      </trkpt>
      <trkpt lat="44.91901" lon="6.08359">
        <ele>2003.8</ele>
        <time>2024-08-14T09:09:09Z</time>
      </trkpt>
      <trkpt lat="44.91901" lon="6.08359">
        <ele>2004</ele>
        <time>2024-08-14T09:09:10Z</time>
      </trkpt>
      <trkpt lat="44.91901" lon="6.08359">
        <ele>2004.6</ele>
        <time>2024-08-14T09:09:11Z</time>
      </trkpt>
      <trkpt lat="44.91903" lon="6.08359">
        <ele>2004.8</ele>
        <time>2024-08-14T09:09:12Z</time>
      </trkpt>
      <trkpt lat="44.91903" lon="6.08359">
        <ele>2005</ele>
        <time>2024-08-14T09:09:13Z</time>
      </trkpt>
      <trkpt lat="44.91903" lon="6.08359">
        <ele>2005.4</ele>
        <time>2024-08-14T09:09:14Z</time>
      </trkpt>
      <trkpt lat="44.91905" lon="6.08359">
        <ele>2005.6</ele>
        <time>2024-08-14T09:09:15Z</time>
      </trkpt>
      <trkpt lat="44.91905" lon="6.08359">
        <ele>2005.6</ele>
        <time>2024-08-14T09:09:16Z</time>
      </trkpt>
      <trkpt lat="44.91905" lon="6.08359">
        <ele>2005.8</ele>
        <time>2024-08-14T09:09:17Z</time>
      </trkpt>
      <trkpt lat="44.91908" lon="6.08361">
        <ele>2006.4</ele>
        <time>2024-08-14T09:09:18Z</time>
      </trkpt>
      <trkpt lat="44.91908" lon="6.08361">
        <ele>2006.6</ele>
        <time>2024-08-14T09:09:19Z</time>
      </trkpt>
      <trkpt lat="44.91908" lon="6.08361">
        <ele>2006.6</ele>
        <time>2024-08-14T09:09:20Z</time>
      </trkpt>
      <trkpt lat="44.91908" lon="6.08361">
        <ele>2007</ele>
        <time>2024-08-14T09:09:21Z</time>
      </trkpt>
      <trkpt lat="44.9191" lon="6.08361">
        <ele>2007</ele>
        <time>2024-08-14T09:09:22Z</time>
      </trkpt>
      <trkpt lat="44.9191" lon="6.08361">
        <ele>2007.2</ele>
        <time>2024-08-14T09:09:23Z</time>
      </trkpt>
      <trkpt lat="44.9191" lon="6.08361">
        <ele>2007.4</ele>
        <time>2024-08-14T09:09:24Z</time>
      </trkpt>
      <trkpt lat="44.91912" lon="6.08362">
        <ele>2007.4</ele>
        <time>2024-08-14T09:09:25Z</time>
      </trkpt>
      <trkpt lat="44.91912" lon="6.08362">
        <ele>2007.8</ele>
        <time>2024-08-14T09:09:26Z</time>
      </trkpt>
      <trkpt lat="44.91912" lon="6.08362">
        <ele>2008.2</ele>
        <time>2024-08-14T09:09:27Z</time>
      </trkpt>
      <trkpt lat="44.91914" lon="6.08363">
        <ele>2008.2</ele>
        <time>2024-08-14T09:09:28Z</time>
      </trkpt>
      <trkpt lat="44.91914" lon="6.08363">
        <ele>2008.2</ele>
        <time>2024-08-14T09:09:29Z</time>
      </trkpt>
      <trkpt lat="44.91914" lon="6.08363">
        <ele>2008.2</ele>
        <time>2024-08-14T09:09:30Z</time>
      </trkpt>
      <trkpt lat="44.91914" lon="6.08363">
        <ele>2009</ele>
        <time>2024-08-14T09:09:31Z</time>
      </trkpt>
      <trkpt lat="44.91917" lon="6.08363">
        <ele>2009.2</ele>
        <time>2024-08-14T09:09:32Z</time>
      </trkpt>
      <trkpt lat="44.91917" lon="6.08363">
        <ele>2009.2</ele>
        <time>2024-08-14T09:09:33Z</time>
      </trkpt>
      <trkpt lat="44.91917" lon="6.08363">
        <ele>2009.2</ele>
        <time>2024-08-14T09:09:34Z</time>
      </trkpt>
      <trkpt lat="44.91917" lon="6.08363">
        <ele>2009.8</ele>
        <time>2024-08-14T09:09:35Z</time>
      </trkpt>
      <trkpt lat="44.91919" lon="6.08364">
        <ele>2010.2</ele>
        <time>2024-08-14T09:09:36Z</time>
      </trkpt>
      <trkpt lat="44.91919" lon="6.08364">
        <ele>2010.4</ele>
        <time>2024-08-14T09:09:37Z</time>
      </trkpt>
      <trkpt lat="44.91919" lon="6.08364">
        <ele>2010.4</ele>
        <time>2024-08-14T09:09:38Z</time>
      </trkpt>
      <trkpt lat="44.91921" lon="6.08365">
        <ele>2010.6</ele>
        <time>2024-08-14T09:09:39Z</time>
      </trkpt>
      <trkpt lat="44.91921" lon="6.08365">
        <ele>2010.8</ele>
        <time>2024-08-14T09:09:40Z</time>
      </trkpt>
      <trkpt lat="44.91921" lon="6.08365">
        <ele>2010.8</ele>
        <time>2024-08-14T09:09:41Z</time>
      </trkpt>
      <trkpt lat="44.91921" lon="6.08365">
        <ele>2011</ele>
        <time>2024-08-14T09:09:42Z</time>
      </trkpt>
      <trkpt lat="44.91923" lon="6.08366">
        <ele>2011.2</ele>
        <time>2024-08-14T09:09:43Z</time>
      </trkpt>
      <trkpt lat="44.91923" lon="6.08366">
        <ele>2011.4</ele>
        <time>2024-08-14T09:09:44Z</time>
      </trkpt>
      <trkpt lat="44.91923" lon="6.08366">
        <ele>2011.8</ele>
        <time>2024-08-14T09:09:45Z</time>
      </trkpt>
      <trkpt lat="44.91925" lon="6.08365">
        <ele>2012</ele>
        <time>2024-08-14T09:09:46Z</time>
      </trkpt>
      <trkpt lat="44.91925" lon="6.08365">
        <ele>2012</ele>
        <time>2024-08-14T09:09:47Z</time>
      </trkpt>
      <trkpt lat="44.91925" lon="6.08365">
        <ele>2012.4</ele>
        <time>2024-08-14T09:09:48Z</time>
      </trkpt>
      <trkpt lat="44.91927" lon="6.08365">
        <ele>2012.6</ele>
        <time>2024-08-14T09:09:49Z</time>
      </trkpt>
      <trkpt lat="44.91927" lon="6.08365">
        <ele>2013</ele>
        <time>2024-08-14T09:09:50Z</time>
      </trkpt>
      <trkpt lat="44.91929" lon="6.08366">
        <ele>2013</ele>
        <time>2024-08-14T09:09:51Z</time>
      </trkpt>
      <trkpt lat="44.91929" lon="6.08366">
        <ele>2013.4</ele>
        <time>2024-08-14T09:09:52Z</time>
      </trkpt>
      <trkpt lat="44.91929" lon="6.08366">
        <ele>2013.4</ele>
        <time>2024-08-14T09:09:53Z</time>
      </trkpt>
      <trkpt lat="44.91931" lon="6.08367">
        <ele>2013.4</ele>
        <time>2024-08-14T09:09:54Z</time>
      </trkpt>
      <trkpt lat="44.91931" lon="6.08367">
        <ele>2014</ele>
        <time>2024-08-14T09:09:55Z</time>
      </trkpt>
      <trkpt lat="44.91931" lon="6.08367">
        <ele>2014</ele>
        <time>2024-08-14T09:09:56Z</time>
      </trkpt>
      <trkpt lat="44.91933" lon="6.08367">
        <ele>2014.2</ele>
        <time>2024-08-14T09:09:57Z</time>
      </trkpt>
      <trkpt lat="44.91933" lon="6.08367">
        <ele>2014.4</ele>
        <time>2024-08-14T09:09:58Z</time>
      </trkpt>
      <trkpt lat="44.91935" lon="6.08367">
        <ele>2014.4</ele>
        <time>2024-08-14T09:09:59Z</time>
      </trkpt>
      <trkpt lat="44.91935" lon="6.08367">
        <ele>2014.8</ele>
        <time>2024-08-14T09:10:00Z</time>
      </trkpt>
      <trkpt lat="44.91935" lon="6.08367">
        <ele>2015.2</ele>
        <time>2024-08-14T09:10:01Z</time>
      </trkpt>
      <trkpt lat="44.91938" lon="6.08368">
        <ele>2015.6</ele>
        <time>2024-08-14T09:10:02Z</time>
      </trkpt>
      <trkpt lat="44.91938" lon="6.08368">
        <ele>2015.6</ele>
        <time>2024-08-14T09:10:03Z</time>
      </trkpt>
      <trkpt lat="44.91938" lon="6.08368">
        <ele>2015.8</ele>
        <time>2024-08-14T09:10:04Z</time>
      </trkpt>
      <trkpt lat="44.9194" lon="6.08368">
        <ele>2015.8</ele>
        <time>2024-08-14T09:10:05Z</time>
      </trkpt>
      <trkpt lat="44.9194" lon="6.08368">
        <ele>2016</ele>
        <time>2024-08-14T09:10:06Z</time>
      </trkpt>
      <trkpt lat="44.9194" lon="6.08368">
        <ele>2016</ele>
        <time>2024-08-14T09:10:07Z</time>
      </trkpt>
      <trkpt lat="44.91943" lon="6.08368">
        <ele>2016.2</ele>
        <time>2024-08-14T09:10:08Z</time>
      </trkpt>
      <trkpt lat="44.91943" lon="6.08368">
        <ele>2016.4</ele>
        <time>2024-08-14T09:10:09Z</time>
      </trkpt>
      <trkpt lat="44.91943" lon="6.08368">
        <ele>2016.4</ele>
        <time>2024-08-14T09:10:10Z</time>
      </trkpt>
      <trkpt lat="44.91945" lon="6.08369">
        <ele>2016.8</ele>
        <time>2024-08-14T09:10:11Z</time>
      </trkpt>
      <trkpt lat="44.91945" lon="6.08369">
        <ele>2017</ele>
        <time>2024-08-14T09:10:12Z</time>
      </trkpt>
      <trkpt lat="44.91945" lon="6.08369">
        <ele>2017.2</ele>
        <time>2024-08-14T09:10:13Z</time>
      </trkpt>
      <trkpt lat="44.91947" lon="6.08369">
        <ele>2017.6</ele>
        <time>2024-08-14T09:10:14Z</time>
      </trkpt>
      <trkpt lat="44.91947" lon="6.08369">
        <ele>2017.8</ele>
        <time>2024-08-14T09:10:15Z</time>
      </trkpt>
      <trkpt lat="44.91947" lon="6.08369">
        <ele>2018</ele>
        <time>2024-08-14T09:10:16Z</time>
      </trkpt>
      <trkpt lat="44.91949" lon="6.08369">
        <ele>2018</ele>
        <time>2024-08-14T09:10:17Z</time>
      </trkpt>
      <trkpt lat="44.91949" lon="6.08369">
        <ele>2018.4</ele>
        <time>2024-08-14T09:10:18Z</time>
      </trkpt>
      <trkpt lat="44.91949" lon="6.08369">
        <ele>2018.4</ele>
        <time>2024-08-14T09:10:19Z</time>
      </trkpt>
      <trkpt lat="44.91951" lon="6.08369">
        <ele>2019</ele>
        <time>2024-08-14T09:10:20Z</time>
      </trkpt>
      <trkpt lat="44.91951" lon="6.08369">
        <ele>2019.4</ele>
        <time>2024-08-14T09:10:21Z</time>
      </trkpt>
      <trkpt lat="44.91951" lon="6.08369">
        <ele>2019.4</ele>
        <time>2024-08-14T09:10:22Z</time>
      </trkpt>
      <trkpt lat="44.91953" lon="6.08368">
        <ele>2019.6</ele>
        <time>2024-08-14T09:10:23Z</time>
      </trkpt>
      <trkpt lat="44.91953" lon="6.08368">
        <ele>2019.6</ele>
        <time>2024-08-14T09:10:24Z</time>
      </trkpt>
      <trkpt lat="44.91953" lon="6.08368">
        <ele>2019.6</ele>
        <time>2024-08-14T09:10:25Z</time>
      </trkpt>
      <trkpt lat="44.91953" lon="6.08368">
        <ele>2020</ele>
        <time>2024-08-14T09:10:26Z</time>
      </trkpt>
      <trkpt lat="44.91955" lon="6.08367">
        <ele>2020.2</ele>
        <time>2024-08-14T09:10:27Z</time>
      </trkpt>
      <trkpt lat="44.91955" lon="6.08367">
        <ele>2020.4</ele>
        <time>2024-08-14T09:10:28Z</time>
      </trkpt>
      <trkpt lat="44.91955" lon="6.08367">
        <ele>2021</ele>
        <time>2024-08-14T09:10:29Z</time>
      </trkpt>
      <trkpt lat="44.91955" lon="6.08367">
        <ele>2021.2</ele>
        <time>2024-08-14T09:10:30Z</time>
      </trkpt>
      <trkpt lat="44.91955" lon="6.08364">
        <ele>2021.2</ele>
        <time>2024-08-14T09:10:31Z</time>
      </trkpt>
      <trkpt lat="44.91955" lon="6.08364">
        <ele>2021.2</ele>
        <time>2024-08-14T09:10:32Z</time>
      </trkpt>
      <trkpt lat="44.91955" lon="6.08364">
        <ele>2021.6</ele>
        <time>2024-08-14T09:10:33Z</time>
      </trkpt>
      <trkpt lat="44.91957" lon="6.08362">
        <ele>2022.2</ele>
        <time>2024-08-14T09:10:34Z</time>
      </trkpt>
      <trkpt lat="44.91957" lon="6.08362">
        <ele>2022.6</ele>
        <time>2024-08-14T09:10:35Z</time>
      </trkpt>
      <trkpt lat="44.91957" lon="6.08362">
        <ele>2022.6</ele>
        <time>2024-08-14T09:10:36Z</time>
      </trkpt>
      <trkpt lat="44.91957" lon="6.08362">
        <ele>2022.8</ele>
        <time>2024-08-14T09:10:37Z</time>
      </trkpt>
      <trkpt lat="44.91959" lon="6.0836">
        <ele>2022.8</ele>
        <time>2024-08-14T09:10:38Z</time>
      </trkpt>
      <trkpt lat="44.91959" lon="6.0836">
        <ele>2023</ele>
        <time>2024-08-14T09:10:39Z</time>
      </trkpt>
      <trkpt lat="44.91959" lon="6.0836">
        <ele>2023</ele>
        <time>2024-08-14T09:10:40Z</time>
      </trkpt>
      <trkpt lat="44.91961" lon="6.08359">
        <ele>2023.6</ele>
        <time>2024-08-14T09:10:41Z</time>
      </trkpt>
      <trkpt lat="44.91961" lon="6.08359">
        <ele>2023.8</ele>
        <time>2024-08-14T09:10:42Z</time>
      </trkpt>
      <trkpt lat="44.91961" lon="6.08359">
        <ele>2023.8</ele>
        <time>2024-08-14T09:10:43Z</time>
      </trkpt>
      <trkpt lat="44.91963" lon="6.08361">
        <ele>2024.2</ele>
        <time>2024-08-14T09:10:44Z</time>
      </trkpt>
      <trkpt lat="44.91963" lon="6.08361">
        <ele>2024.2</ele>
        <time>2024-08-14T09:10:45Z</time>
      </trkpt>
      <trkpt lat="44.91963" lon="6.08361">
        <ele>2024.2</ele>
        <time>2024-08-14T09:10:46Z</time>
      </trkpt>
      <trkpt lat="44.91965" lon="6.08361">
        <ele>2024.8</ele>
        <time>2024-08-14T09:10:47Z</time>
      </trkpt>
      <trkpt lat="44.91965" lon="6.08361">
        <ele>2024.8</ele>
        <time>2024-08-14T09:10:48Z</time>
      </trkpt>
      <trkpt lat="44.91965" lon="6.08361">
        <ele>2025.4</ele>
        <time>2024-08-14T09:10:49Z</time>
      </trkpt>
      <trkpt lat="44.91965" lon="6.08361">
        <ele>2025.4</ele>
        <time>2024-08-14T09:10:50Z</time>
      </trkpt>
      <trkpt lat="44.91967" lon="6.08361">
        <ele>2025.4</ele>
        <time>2024-08-14T09:10:51Z</time>
      </trkpt>
      <trkpt lat="44.91967" lon="6.08361">
        <ele>2025.4</ele>
        <time>2024-08-14T09:10:52Z</time>
      </trkpt>
      <trkpt lat="44.91967" lon="6.08361">
        <ele>2025.8</ele>
        <time>2024-08-14T09:10:53Z</time>
      </trkpt>
      <trkpt lat="44.91969" lon="6.08361">
        <ele>2025.8</ele>
        <time>2024-08-14T09:10:54Z</time>
      </trkpt>
      <trkpt lat="44.91969" lon="6.08361">
        <ele>2026.4</ele>
        <time>2024-08-14T09:10:55Z</time>
      </trkpt>
      <trkpt lat="44.91969" lon="6.08361">
        <ele>2026.6</ele>
        <time>2024-08-14T09:10:56Z</time>
      </trkpt>
      <trkpt lat="44.91971" lon="6.0836">
        <ele>2026.8</ele>
        <time>2024-08-14T09:10:57Z</time>
      </trkpt>
      <trkpt lat="44.91971" lon="6.0836">
        <ele>2027.4</ele>
        <time>2024-08-14T09:10:58Z</time>
      </trkpt>
      <trkpt lat="44.91971" lon="6.0836">
        <ele>2027.4</ele>
        <time>2024-08-14T09:10:59Z</time>
      </trkpt>
      <trkpt lat="44.91973" lon="6.08361">
        <ele>2027.4</ele>
        <time>2024-08-14T09:11:00Z</time>
      </trkpt>
      <trkpt lat="44.91973" lon="6.08361">
        <ele>2028</ele>
        <time>2024-08-14T09:11:01Z</time>
      </trkpt>
      <trkpt lat="44.91973" lon="6.08361">
        <ele>2028.4</ele>
        <time>2024-08-14T09:11:02Z</time>
      </trkpt>
      <trkpt lat="44.91975" lon="6.08361">
        <ele>2028.4</ele>
        <time>2024-08-14T09:11:03Z</time>
      </trkpt>
      <trkpt lat="44.91975" lon="6.08361">
        <ele>2028.4</ele>
        <time>2024-08-14T09:11:04Z</time>
      </trkpt>
      <trkpt lat="44.91975" lon="6.08361">
        <ele>2028.4</ele>
        <time>2024-08-14T09:11:05Z</time>
      </trkpt>
      <trkpt lat="44.91975" lon="6.08361">
        <ele>2028.4</ele>
        <time>2024-08-14T09:11:06Z</time>
      </trkpt>
      <trkpt lat="44.91977" lon="6.08361">
        <ele>2028.4</ele>
        <time>2024-08-14T09:11:07Z</time>
      </trkpt>
      <trkpt lat="44.91977" lon="6.08361">
        <ele>2028.8</ele>
        <time>2024-08-14T09:11:08Z</time>
      </trkpt>
      <trkpt lat="44.91977" lon="6.08361">
        <ele>2029.2</ele>
        <time>2024-08-14T09:11:09Z</time>
      </trkpt>
      <trkpt lat="44.91979" lon="6.08361">
        <ele>2029.2</ele>
        <time>2024-08-14T09:11:10Z</time>
      </trkpt>
      <trkpt lat="44.91979" lon="6.08361">
        <ele>2029.2</ele>
        <time>2024-08-14T09:11:11Z</time>
      </trkpt>
      <trkpt lat="44.91979" lon="6.08361">
        <ele>2029.4</ele>
        <time>2024-08-14T09:11:12Z</time>
      </trkpt>
      <trkpt lat="44.91981" lon="6.08362">
        <ele>2030</ele>
        <time>2024-08-14T09:11:13Z</time>
      </trkpt>
      <trkpt lat="44.91981" lon="6.08362">
        <ele>2030</ele>
        <time>2024-08-14T09:11:14Z</time>
      </trkpt>
      <trkpt lat="44.91981" lon="6.08362">
        <ele>2030.4</ele>
        <time>2024-08-14T09:11:15Z</time>
      </trkpt>
      <trkpt lat="44.91983" lon="6.0836">
        <ele>2031</ele>
        <time>2024-08-14T09:11:16Z</time>
      </trkpt>
      <trkpt lat="44.91983" lon="6.0836">
        <ele>2031</ele>
        <time>2024-08-14T09:11:17Z</time>
      </trkpt>
      <trkpt lat="44.91983" lon="6.0836">
        <ele>2031</ele>
        <time>2024-08-14T09:11:18Z</time>
      </trkpt>
      <trkpt lat="44.91983" lon="6.0836">
        <ele>2031.2</ele>
        <time>2024-08-14T09:11:19Z</time>
      </trkpt>
      <trkpt lat="44.91983" lon="6.08358">
        <ele>2031.6</ele>
        <time>2024-08-14T09:11:20Z</time>
      </trkpt>
      <trkpt lat="44.91983" lon="6.08358">
        <ele>2031.6</ele>
        <time>2024-08-14T09:11:21Z</time>
      </trkpt>
      <trkpt lat="44.91983" lon="6.08358">
        <ele>2031.8</ele>
        <time>2024-08-14T09:11:22Z</time>
      </trkpt>
      <trkpt lat="44.91982" lon="6.08355">
        <ele>2032</ele>
        <time>2024-08-14T09:11:23Z</time>
      </trkpt>
      <trkpt lat="44.91982" lon="6.08355">
        <ele>2032.4</ele>
        <time>2024-08-14T09:11:24Z</time>
      </trkpt>
      <trkpt lat="44.91982" lon="6.08355">
        <ele>2032.4</ele>
        <time>2024-08-14T09:11:25Z</time>
      </trkpt>
      <trkpt lat="44.91983" lon="6.08352">
        <ele>2032.4</ele>
        <time>2024-08-14T09:11:26Z</time>
      </trkpt>
      <trkpt lat="44.91983" lon="6.08352">
        <ele>2032.6</ele>
        <time>2024-08-14T09:11:27Z</time>
      </trkpt>
      <trkpt lat="44.91983" lon="6.08352">
        <ele>2032.8</ele>
        <time>2024-08-14T09:11:28Z</time>
      </trkpt>
      <trkpt lat="44.91985" lon="6.08352">
        <ele>2033</ele>
        <time>2024-08-14T09:11:29Z</time>
      </trkpt>
      <trkpt lat="44.91985" lon="6.08352">
        <ele>2033</ele>
        <time>2024-08-14T09:11:30Z</time>
      </trkpt>
      <trkpt lat="44.91985" lon="6.08352">
        <ele>2033</ele>
        <time>2024-08-14T09:11:31Z</time>
      </trkpt>
      <trkpt lat="44.91985" lon="6.08352">
        <ele>2033.2</ele>
        <time>2024-08-14T09:11:32Z</time>
      </trkpt>
      <trkpt lat="44.91986" lon="6.0835">
        <ele>2033.8</ele>
        <time>2024-08-14T09:11:33Z</time>
      </trkpt>
      <trkpt lat="44.91986" lon="6.0835">
        <ele>2034.6</ele>
        <time>2024-08-14T09:11:34Z</time>
      </trkpt>
      <trkpt lat="44.91986" lon="6.0835">
        <ele>2034.6</ele>
        <time>2024-08-14T09:11:35Z</time>
      </trkpt>
      <trkpt lat="44.91989" lon="6.0835">
        <ele>2034.4</ele>
        <time>2024-08-14T09:11:36Z</time>
      </trkpt>
      <trkpt lat="44.91989" lon="6.0835">
        <ele>2034.4</ele>
        <time>2024-08-14T09:11:37Z</time>
      </trkpt>
      <trkpt lat="44.91989" lon="6.0835">
        <ele>2035</ele>
        <time>2024-08-14T09:11:38Z</time>
      </trkpt>
      <trkpt lat="44.9199" lon="6.08351">
        <ele>2035</ele>
        <time>2024-08-14T09:11:39Z</time>
      </trkpt>
      <trkpt lat="44.9199" lon="6.08351">
        <ele>2035.4</ele>
        <time>2024-08-14T09:11:40Z</time>
      </trkpt>
      <trkpt lat="44.91992" lon="6.08351">
        <ele>2035.4</ele>
        <time>2024-08-14T09:11:41Z</time>
      </trkpt>
      <trkpt lat="44.91992" lon="6.08351">
        <ele>2035.4</ele>
        <time>2024-08-14T09:11:42Z</time>
      </trkpt>
      <trkpt lat="44.91992" lon="6.08351">
        <ele>2035.6</ele>
        <time>2024-08-14T09:11:43Z</time>
      </trkpt>
      <trkpt lat="44.91994" lon="6.08351">
        <ele>2035.8</ele>
        <time>2024-08-14T09:11:44Z</time>
      </trkpt>
      <trkpt lat="44.91994" lon="6.08351">
        <ele>2036</ele>
        <time>2024-08-14T09:11:45Z</time>
      </trkpt>
      <trkpt lat="44.91994" lon="6.08351">
        <ele>2036.2</ele>
        <time>2024-08-14T09:11:46Z</time>
      </trkpt>
      <trkpt lat="44.91994" lon="6.08351">
        <ele>2036.6</ele>
        <time>2024-08-14T09:11:47Z</time>
      </trkpt>
      <trkpt lat="44.91996" lon="6.08349">
        <ele>2036.8</ele>
        <time>2024-08-14T09:11:48Z</time>
      </trkpt>
      <trkpt lat="44.91996" lon="6.08349">
        <ele>2037.2</ele>
        <time>2024-08-14T09:11:49Z</time>
      </trkpt>
      <trkpt lat="44.91996" lon="6.08349">
        <ele>2037.4</ele>
        <time>2024-08-14T09:11:50Z</time>
      </trkpt>
      <trkpt lat="44.91996" lon="6.08349">
        <ele>2037.6</ele>
        <time>2024-08-14T09:11:51Z</time>
      </trkpt>
      <trkpt lat="44.91998" lon="6.08348">
        <ele>2038</ele>
        <time>2024-08-14T09:11:52Z</time>
      </trkpt>
      <trkpt lat="44.91998" lon="6.08348">
        <ele>2038</ele>
        <time>2024-08-14T09:11:53Z</time>
      </trkpt>
      <trkpt lat="44.91998" lon="6.08348">
        <ele>2038</ele>
        <time>2024-08-14T09:11:54Z</time>
      </trkpt>
      <trkpt lat="44.92" lon="6.08348">
        <ele>2038</ele>
        <time>2024-08-14T09:11:55Z</time>
      </trkpt>
      <trkpt lat="44.92" lon="6.08348">
        <ele>2038.4</ele>
        <time>2024-08-14T09:11:56Z</time>
      </trkpt>
      <trkpt lat="44.92" lon="6.08348">
        <ele>2038.4</ele>
        <time>2024-08-14T09:11:57Z</time>
      </trkpt>
      <trkpt lat="44.92002" lon="6.0835">
        <ele>2038.6</ele>
        <time>2024-08-14T09:11:58Z</time>
      </trkpt>
      <trkpt lat="44.92002" lon="6.0835">
        <ele>2038.6</ele>
        <time>2024-08-14T09:11:59Z</time>
      </trkpt>
      <trkpt lat="44.92002" lon="6.0835">
        <ele>2039</ele>
        <time>2024-08-14T09:12:00Z</time>
      </trkpt>
      <trkpt lat="44.92005" lon="6.0835">
        <ele>2039.4</ele>
        <time>2024-08-14T09:12:01Z</time>
      </trkpt>
      <trkpt lat="44.92005" lon="6.0835">
        <ele>2039.6</ele>
        <time>2024-08-14T09:12:02Z</time>
      </trkpt>
      <trkpt lat="44.92005" lon="6.0835">
        <ele>2039.6</ele>
        <time>2024-08-14T09:12:03Z</time>
      </trkpt>
      <trkpt lat="44.92005" lon="6.0835">
        <ele>2040</ele>
        <time>2024-08-14T09:12:04Z</time>
      </trkpt>
      <trkpt lat="44.92007" lon="6.08349">
        <ele>2040.2</ele>
        <time>2024-08-14T09:12:05Z</time>
      </trkpt>
      <trkpt lat="44.92007" lon="6.08349">
        <ele>2040.4</ele>
        <time>2024-08-14T09:12:06Z</time>
      </trkpt>
      <trkpt lat="44.92007" lon="6.08349">
        <ele>2040.6</ele>
        <time>2024-08-14T09:12:07Z</time>
      </trkpt>
      <trkpt lat="44.92009" lon="6.08348">
        <ele>2040.8</ele>
        <time>2024-08-14T09:12:08Z</time>
      </trkpt>
      <trkpt lat="44.92009" lon="6.08348">
        <ele>2041</ele>
        <time>2024-08-14T09:12:09Z</time>
      </trkpt>
      <trkpt lat="44.92009" lon="6.08348">
        <ele>2041.2</ele>
        <time>2024-08-14T09:12:10Z</time>
      </trkpt>
      <trkpt lat="44.92009" lon="6.08348">
        <ele>2041.4</ele>
        <time>2024-08-14T09:12:11Z</time>
      </trkpt>
      <trkpt lat="44.92011" lon="6.08348">
        <ele>2041.6</ele>
        <time>2024-08-14T09:12:12Z</time>
      </trkpt>
      <trkpt lat="44.92011" lon="6.08348">
        <ele>2042</ele>
        <time>2024-08-14T09:12:13Z</time>
      </trkpt>
      <trkpt lat="44.92011" lon="6.08348">
        <ele>2042.4</ele>
        <time>2024-08-14T09:12:14Z</time>
      </trkpt>
      <trkpt lat="44.92011" lon="6.08348">
        <ele>2042.6</ele>
        <time>2024-08-14T09:12:15Z</time>
      </trkpt>
      <trkpt lat="44.92013" lon="6.08346">
        <ele>2042.6</ele>
        <time>2024-08-14T09:12:16Z</time>
      </trkpt>
      <trkpt lat="44.92013" lon="6.08346">
        <ele>2042.8</ele>
        <time>2024-08-14T09:12:17Z</time>
      </trkpt>
      <trkpt lat="44.92013" lon="6.08346">
        <ele>2043.2</ele>
        <time>2024-08-14T09:12:18Z</time>
      </trkpt>
      <trkpt lat="44.92014" lon="6.08345">
        <ele>2043.2</ele>
        <time>2024-08-14T09:12:19Z</time>
      </trkpt>
      <trkpt lat="44.92014" lon="6.08345">
        <ele>2043.6</ele>
        <time>2024-08-14T09:12:20Z</time>
      </trkpt>
      <trkpt lat="44.92014" lon="6.08345">
        <ele>2043.8</ele>
        <time>2024-08-14T09:12:21Z</time>
      </trkpt>
      <trkpt lat="44.92014" lon="6.08345">
        <ele>2043.8</ele>
        <time>2024-08-14T09:12:22Z</time>
      </trkpt>
      <trkpt lat="44.92017" lon="6.08344">
        <ele>2044.8</ele>
        <time>2024-08-14T09:12:23Z</time>
      </trkpt>
      <trkpt lat="44.92017" lon="6.08344">
        <ele>2044.8</ele>
        <time>2024-08-14T09:12:24Z</time>
      </trkpt>
      <trkpt lat="44.92017" lon="6.08344">
        <ele>2044.8</ele>
        <time>2024-08-14T09:12:25Z</time>
      </trkpt>
      <trkpt lat="44.92019" lon="6.08344">
        <ele>2045.2</ele>
        <time>2024-08-14T09:12:26Z</time>
      </trkpt>
      <trkpt lat="44.92019" lon="6.08344">
        <ele>2045.6</ele>
        <time>2024-08-14T09:12:27Z</time>
      </trkpt>
      <trkpt lat="44.92019" lon="6.08344">
        <ele>2045.6</ele>
        <time>2024-08-14T09:12:28Z</time>
      </trkpt>
      <trkpt lat="44.92021" lon="6.08344">
        <ele>2045.4</ele>
        <time>2024-08-14T09:12:29Z</time>
      </trkpt>
      <trkpt lat="44.92021" lon="6.08344">
        <ele>2045.4</ele>
        <time>2024-08-14T09:12:30Z</time>
      </trkpt>
      <trkpt lat="44.92022" lon="6.08345">
        <ele>2045.6</ele>
        <time>2024-08-14T09:12:31Z</time>
      </trkpt>
      <trkpt lat="44.92022" lon="6.08345">
        <ele>2045.6</ele>
        <time>2024-08-14T09:12:32Z</time>
      </trkpt>
      <trkpt lat="44.92024" lon="6.08344">
        <ele>2045.8</ele>
        <time>2024-08-14T09:12:33Z</time>
      </trkpt>
      <trkpt lat="44.92024" lon="6.08344">
        <ele>2046</ele>
        <time>2024-08-14T09:12:34Z</time>
      </trkpt>
      <trkpt lat="44.92026" lon="6.08344">
        <ele>2046.4</ele>
        <time>2024-08-14T09:12:35Z</time>
      </trkpt>
      <trkpt lat="44.92026" lon="6.08344">
        <ele>2046.6</ele>
        <time>2024-08-14T09:12:36Z</time>
      </trkpt>
      <trkpt lat="44.92026" lon="6.08344">
        <ele>2046.8</ele>
        <time>2024-08-14T09:12:37Z</time>
      </trkpt>
      <trkpt lat="44.92029" lon="6.08343">
        <ele>2046.8</ele>
        <time>2024-08-14T09:12:38Z</time>
      </trkpt>
      <trkpt lat="44.92029" lon="6.08343">
        <ele>2047</ele>
        <time>2024-08-14T09:12:39Z</time>
      </trkpt>
      <trkpt lat="44.92029" lon="6.08343">
        <ele>2047.2</ele>
        <time>2024-08-14T09:12:40Z</time>
      </trkpt>
      <trkpt lat="44.92031" lon="6.08344">
        <ele>2047.6</ele>
        <time>2024-08-14T09:12:41Z</time>
      </trkpt>
      <trkpt lat="44.92031" lon="6.08344">
        <ele>2048</ele>
        <time>2024-08-14T09:12:42Z</time>
      </trkpt>
      <trkpt lat="44.92031" lon="6.08344">
        <ele>2048</ele>
        <time>2024-08-14T09:12:43Z</time>
      </trkpt>
      <trkpt lat="44.92033" lon="6.08344">
        <ele>2048.2</ele>
        <time>2024-08-14T09:12:44Z</time>
      </trkpt>
      <trkpt lat="44.92033" lon="6.08344">
        <ele>2048.4</ele>
        <time>2024-08-14T09:12:45Z</time>
      </trkpt>
      <trkpt lat="44.92035" lon="6.08344">
        <ele>2048.4</ele>
        <time>2024-08-14T09:12:46Z</time>
      </trkpt>
      <trkpt lat="44.92035" lon="6.08344">
        <ele>2048.8</ele>
        <time>2024-08-14T09:12:47Z</time>
      </trkpt>
      <trkpt lat="44.92035" lon="6.08344">
        <ele>2049</ele>
        <time>2024-08-14T09:12:48Z</time>
      </trkpt>
      <trkpt lat="44.92037" lon="6.08344">
        <ele>2049</ele>
        <time>2024-08-14T09:12:49Z</time>
      </trkpt>
      <trkpt lat="44.92037" lon="6.08344">
        <ele>2049.2</ele>
        <time>2024-08-14T09:12:50Z</time>
      </trkpt>
      <trkpt lat="44.92037" lon="6.08344">
        <ele>2049.2</ele>
        <time>2024-08-14T09:12:51Z</time>
      </trkpt>
      <trkpt lat="44.92037" lon="6.08344">
        <ele>2049.4</ele>
        <time>2024-08-14T09:12:52Z</time>
      </trkpt>
      <trkpt lat="44.92039" lon="6.08343">
        <ele>2049.6</ele>
        <time>2024-08-14T09:12:53Z</time>
      </trkpt>
      <trkpt lat="44.92039" lon="6.08343">
        <ele>2050</ele>
        <time>2024-08-14T09:12:54Z</time>
      </trkpt>
      <trkpt lat="44.92039" lon="6.08343">
        <ele>2050.4</ele>
        <time>2024-08-14T09:12:55Z</time>
      </trkpt>
      <trkpt lat="44.92041" lon="6.08343">
        <ele>2050.8</ele>
        <time>2024-08-14T09:12:56Z</time>
      </trkpt>
      <trkpt lat="44.92041" lon="6.08343">
        <ele>2051</ele>
        <time>2024-08-14T09:12:57Z</time>
      </trkpt>
      <trkpt lat="44.92041" lon="6.08343">
        <ele>2051.2</ele>
        <time>2024-08-14T09:12:58Z</time>
      </trkpt>
      <trkpt lat="44.92041" lon="6.08343">
        <ele>2051.6</ele>
        <time>2024-08-14T09:12:59Z</time>
      </trkpt>
      <trkpt lat="44.92043" lon="6.08343">
        <ele>2051.6</ele>
        <time>2024-08-14T09:13:00Z</time>
      </trkpt>
      <trkpt lat="44.92043" lon="6.08343">
        <ele>2051.6</ele>
        <time>2024-08-14T09:13:01Z</time>
      </trkpt>
      <trkpt lat="44.92043" lon="6.08343">
        <ele>2051.8</ele>
        <time>2024-08-14T09:13:02Z</time>
      </trkpt>
      <trkpt lat="44.92045" lon="6.08344">
        <ele>2051.8</ele>
        <time>2024-08-14T09:13:03Z</time>
      </trkpt>
      <trkpt lat="44.92045" lon="6.08344">
        <ele>2052.4</ele>
        <time>2024-08-14T09:13:04Z</time>
      </trkpt>
      <trkpt lat="44.92047" lon="6.08345">
        <ele>2052.4</ele>
        <time>2024-08-14T09:13:05Z</time>
      </trkpt>
      <trkpt lat="44.92047" lon="6.08345">
        <ele>2052.6</ele>
        <time>2024-08-14T09:13:06Z</time>
      </trkpt>
      <trkpt lat="44.92047" lon="6.08345">
        <ele>2053</ele>
        <time>2024-08-14T09:13:07Z</time>
      </trkpt>
      <trkpt lat="44.92049" lon="6.08346">
        <ele>2053</ele>
        <time>2024-08-14T09:13:08Z</time>
      </trkpt>
      <trkpt lat="44.92049" lon="6.08346">
        <ele>2053.4</ele>
        <time>2024-08-14T09:13:09Z</time>
      </trkpt>
      <trkpt lat="44.92049" lon="6.08346">
        <ele>2053.4</ele>
        <time>2024-08-14T09:13:10Z</time>
      </trkpt>
      <trkpt lat="44.92051" lon="6.08346">
        <ele>2053.8</ele>
        <time>2024-08-14T09:13:11Z</time>
      </trkpt>
      <trkpt lat="44.92051" lon="6.08346">
        <ele>2054</ele>
        <time>2024-08-14T09:13:12Z</time>
      </trkpt>
      <trkpt lat="44.92051" lon="6.08346">
        <ele>2054.2</ele>
        <time>2024-08-14T09:13:13Z</time>
      </trkpt>
      <trkpt lat="44.92053" lon="6.08346">
        <ele>2054.4</ele>
        <time>2024-08-14T09:13:14Z</time>
      </trkpt>
      <trkpt lat="44.92053" lon="6.08346">
        <ele>2054.6</ele>
        <time>2024-08-14T09:13:15Z</time>
      </trkpt>
      <trkpt lat="44.92053" lon="6.08346">
        <ele>2054.6</ele>
        <time>2024-08-14T09:13:16Z</time>
      </trkpt>
      <trkpt lat="44.92055" lon="6.08346">
        <ele>2055</ele>
        <time>2024-08-14T09:13:17Z</time>
      </trkpt>
      <trkpt lat="44.92055" lon="6.08346">
        <ele>2055</ele>
        <time>2024-08-14T09:13:18Z</time>
      </trkpt>
      <trkpt lat="44.92055" lon="6.08346">
        <ele>2055</ele>
        <time>2024-08-14T09:13:19Z</time>
      </trkpt>
      <trkpt lat="44.92055" lon="6.08346">
        <ele>2055</ele>
        <time>2024-08-14T09:13:20Z</time>
      </trkpt>
      <trkpt lat="44.92058" lon="6.08345">
        <ele>2055.2</ele>
        <time>2024-08-14T09:13:21Z</time>
      </trkpt>
      <trkpt lat="44.92058" lon="6.08345">
        <ele>2055.4</ele>
        <time>2024-08-14T09:13:22Z</time>
      </trkpt>
      <trkpt lat="44.92058" lon="6.08345">
        <ele>2056</ele>
        <time>2024-08-14T09:13:23Z</time>
      </trkpt>
      <trkpt lat="44.9206" lon="6.08345">
        <ele>2056.4</ele>
        <time>2024-08-14T09:13:24Z</time>
      </trkpt>
      <trkpt lat="44.9206" lon="6.08345">
        <ele>2056.4</ele>
        <time>2024-08-14T09:13:25Z</time>
      </trkpt>
      <trkpt lat="44.9206" lon="6.08345">
        <ele>2057</ele>
        <time>2024-08-14T09:13:26Z</time>
      </trkpt>
      <trkpt lat="44.92062" lon="6.08346">
        <ele>2057.4</ele>
        <time>2024-08-14T09:13:27Z</time>
      </trkpt>
      <trkpt lat="44.92062" lon="6.08346">
        <ele>2057.4</ele>
        <time>2024-08-14T09:13:28Z</time>
      </trkpt>
      <trkpt lat="44.92062" lon="6.08346">
        <ele>2057.6</ele>
        <time>2024-08-14T09:13:29Z</time>
      </trkpt>
      <trkpt lat="44.92064" lon="6.08346">
        <ele>2057.6</ele>
        <time>2024-08-14T09:13:30Z</time>
      </trkpt>
      <trkpt lat="44.92064" lon="6.08346">
        <ele>2058</ele>
        <time>2024-08-14T09:13:31Z</time>
      </trkpt>
      <trkpt lat="44.92064" lon="6.08346">
        <ele>2058</ele>
        <time>2024-08-14T09:13:32Z</time>
      </trkpt>
      <trkpt lat="44.92064" lon="6.08346">
        <ele>2058</ele>
        <time>2024-08-14T09:13:33Z</time>
      </trkpt>
      <trkpt lat="44.92066" lon="6.08346">
        <ele>2058.4</ele>
        <time>2024-08-14T09:13:34Z</time>
      </trkpt>
      <trkpt lat="44.92066" lon="6.08346">
        <ele>2058.4</ele>
        <time>2024-08-14T09:13:35Z</time>
      </trkpt>
      <trkpt lat="44.92066" lon="6.08346">
        <ele>2058.4</ele>
        <time>2024-08-14T09:13:36Z</time>
      </trkpt>
      <trkpt lat="44.92068" lon="6.08346">
        <ele>2058.8</ele>
        <time>2024-08-14T09:13:37Z</time>
      </trkpt>
      <trkpt lat="44.92068" lon="6.08346">
        <ele>2059</ele>
        <time>2024-08-14T09:13:38Z</time>
      </trkpt>
      <trkpt lat="44.92068" lon="6.08346">
        <ele>2059.2</ele>
        <time>2024-08-14T09:13:39Z</time>
      </trkpt>
      <trkpt lat="44.92068" lon="6.08346">
        <ele>2059.6</ele>
        <time>2024-08-14T09:13:40Z</time>
      </trkpt>
      <trkpt lat="44.9207" lon="6.08346">
        <ele>2060</ele>
        <time>2024-08-14T09:13:41Z</time>
      </trkpt>
      <trkpt lat="44.9207" lon="6.08346">
        <ele>2060</ele>
        <time>2024-08-14T09:13:42Z</time>
      </trkpt>
      <trkpt lat="44.9207" lon="6.08346">
        <ele>2060</ele>
        <time>2024-08-14T09:13:43Z</time>
      </trkpt>
      <trkpt lat="44.92072" lon="6.08346">
        <ele>2060.2</ele>
        <time>2024-08-14T09:13:44Z</time>
      </trkpt>
      <trkpt lat="44.92072" lon="6.08346">
        <ele>2060.8</ele>
        <time>2024-08-14T09:13:45Z</time>
      </trkpt>
      <trkpt lat="44.92072" lon="6.08346">
        <ele>2060.8</ele>
        <time>2024-08-14T09:13:46Z</time>
      </trkpt>
      <trkpt lat="44.92074" lon="6.08346">
        <ele>2060.4</ele>
        <time>2024-08-14T09:13:47Z</time>
      </trkpt>
      <trkpt lat="44.92074" lon="6.08346">
        <ele>2060.4</ele>
        <time>2024-08-14T09:13:48Z</time>
      </trkpt>
      <trkpt lat="44.92076" lon="6.08346">
        <ele>2060.4</ele>
        <time>2024-08-14T09:13:49Z</time>
      </trkpt>
      <trkpt lat="44.92076" lon="6.08346">
        <ele>2060.8</ele>
        <time>2024-08-14T09:13:50Z</time>
      </trkpt>
      <trkpt lat="44.92076" lon="6.08346">
        <ele>2061</ele>
        <time>2024-08-14T09:13:51Z</time>
      </trkpt>
      <trkpt lat="44.92078" lon="6.08347">
        <ele>2061.2</ele>
        <time>2024-08-14T09:13:52Z</time>
      </trkpt>
      <trkpt lat="44.92078" lon="6.08347">
        <ele>2061.4</ele>
        <time>2024-08-14T09:13:53Z</time>
      </trkpt>
      <trkpt lat="44.92078" lon="6.08347">
        <ele>2061.6</ele>
        <time>2024-08-14T09:13:54Z</time>
      </trkpt>
      <trkpt lat="44.9208" lon="6.08349">
        <ele>2062</ele>
        <time>2024-08-14T09:13:55Z</time>
      </trkpt>
      <trkpt lat="44.9208" lon="6.08349">
        <ele>2062.4</ele>
        <time>2024-08-14T09:13:56Z</time>
      </trkpt>
      <trkpt lat="44.9208" lon="6.08349">
        <ele>2062.4</ele>
        <time>2024-08-14T09:13:57Z</time>
      </trkpt>
      <trkpt lat="44.92082" lon="6.08349">
        <ele>2062.6</ele>
        <time>2024-08-14T09:13:58Z</time>
      </trkpt>
      <trkpt lat="44.92082" lon="6.08349">
        <ele>2062.8</ele>
        <time>2024-08-14T09:13:59Z</time>
      </trkpt>
      <trkpt lat="44.92082" lon="6.08349">
        <ele>2063</ele>
        <time>2024-08-14T09:14:00Z</time>
      </trkpt>
      <trkpt lat="44.92084" lon="6.08348">
        <ele>2063.2</ele>
        <time>2024-08-14T09:14:01Z</time>
      </trkpt>
      <trkpt lat="44.92084" lon="6.08348">
        <ele>2063.4</ele>
        <time>2024-08-14T09:14:02Z</time>
      </trkpt>
      <trkpt lat="44.92084" lon="6.08348">
        <ele>2063.6</ele>
        <time>2024-08-14T09:14:03Z</time>
      </trkpt>
      <trkpt lat="44.92086" lon="6.08348">
        <ele>2063.8</ele>
        <time>2024-08-14T09:14:04Z</time>
      </trkpt>
      <trkpt lat="44.92086" lon="6.08348">
        <ele>2064</ele>
        <time>2024-08-14T09:14:05Z</time>
      </trkpt>
      <trkpt lat="44.92086" lon="6.08348">
        <ele>2064.2</ele>
        <time>2024-08-14T09:14:06Z</time>
      </trkpt>
      <trkpt lat="44.92086" lon="6.08348">
        <ele>2064.6</ele>
        <time>2024-08-14T09:14:07Z</time>
      </trkpt>
      <trkpt lat="44.92086" lon="6.08348">
        <ele>2064.8</ele>
        <time>2024-08-14T09:14:08Z</time>
      </trkpt>
      <trkpt lat="44.92086" lon="6.08348">
        <ele>2065</ele>
        <time>2024-08-14T09:14:09Z</time>
      </trkpt>
      <trkpt lat="44.92086" lon="6.08348">
        <ele>2065</ele>
        <time>2024-08-14T09:14:10Z</time>
      </trkpt>
      <trkpt lat="44.92086" lon="6.08348">
        <ele>2065</ele>
        <time>2024-08-14T09:14:11Z</time>
      </trkpt>
      <trkpt lat="44.92086" lon="6.08348">
        <ele>2065</ele>
        <time>2024-08-14T09:14:12Z</time>
      </trkpt>
      <trkpt lat="44.92086" lon="6.08348">
        <ele>2065</ele>
        <time>2024-08-14T09:14:13Z</time>
      </trkpt>
      <trkpt lat="44.92086" lon="6.08348">
        <ele>2065</ele>
        <time>2024-08-14T09:14:14Z</time>
      </trkpt>
      <trkpt lat="44.92086" lon="6.08348">
        <ele>2065</ele>
        <time>2024-08-14T09:14:15Z</time>
      </trkpt>
      <trkpt lat="44.92086" lon="6.08348">
        <ele>2065</ele>
        <time>2024-08-14T09:14:16Z</time>
      </trkpt>
      <trkpt lat="44.92086" lon="6.08348">
        <ele>2065</ele>
        <time>2024-08-14T09:14:17Z</time>
      </trkpt>
      <trkpt lat="44.92086" lon="6.08348">
        <ele>2065</ele>
        <time>2024-08-14T09:14:18Z</time>
      </trkpt>
      <trkpt lat="44.92086" lon="6.08348">
        <ele>2064.8</ele>
        <time>2024-08-14T09:14:19Z</time>
      </trkpt>
      <trkpt lat="44.92086" lon="6.08348">
        <ele>2064.8</ele>
        <time>2024-08-14T09:14:20Z</time>
      </trkpt>
      <trkpt lat="44.92086" lon="6.08348">
        <ele>2064.8</ele>
        <time>2024-08-14T09:14:21Z</time>
      </trkpt>
      <trkpt lat="44.92086" lon="6.08348">
        <ele>2064.8</ele>
        <time>2024-08-14T09:14:22Z</time>
      </trkpt>
      <trkpt lat="44.92086" lon="6.08348">
        <ele>2065</ele>
        <time>2024-08-14T09:14:23Z</time>
      </trkpt>
      <trkpt lat="44.92086" lon="6.08348">
        <ele>2065.2</ele>
        <time>2024-08-14T09:14:24Z</time>
      </trkpt>
      <trkpt lat="44.92086" lon="6.08348">
        <ele>2065.4</ele>
        <time>2024-08-14T09:14:25Z</time>
      </trkpt>
      <trkpt lat="44.92086" lon="6.08348">
        <ele>2065.4</ele>
        <time>2024-08-14T09:14:26Z</time>
      </trkpt>
      <trkpt lat="44.92086" lon="6.08348">
        <ele>2065.4</ele>
        <time>2024-08-14T09:14:27Z</time>
      </trkpt>
      <trkpt lat="44.92086" lon="6.08348">
        <ele>2065.4</ele>
        <time>2024-08-14T09:14:28Z</time>
      </trkpt>
      <trkpt lat="44.92086" lon="6.08348">
        <ele>2065.2</ele>
        <time>2024-08-14T09:14:29Z</time>
      </trkpt>
      <trkpt lat="44.92086" lon="6.08348">
        <ele>2065.2</ele>
        <time>2024-08-14T09:14:30Z</time>
      </trkpt>
      <trkpt lat="44.92086" lon="6.08348">
        <ele>2065.4</ele>
        <time>2024-08-14T09:14:31Z</time>
      </trkpt>
      <trkpt lat="44.92086" lon="6.08348">
        <ele>2065.4</ele>
        <time>2024-08-14T09:14:32Z</time>
      </trkpt>
      <trkpt lat="44.92086" lon="6.08348">
        <ele>2065.4</ele>
        <time>2024-08-14T09:14:33Z</time>
      </trkpt>
      <trkpt lat="44.92086" lon="6.08348">
        <ele>2065.4</ele>
        <time>2024-08-14T09:14:34Z</time>
      </trkpt>
      <trkpt lat="44.92086" lon="6.08348">
        <ele>2065.4</ele>
        <time>2024-08-14T09:14:35Z</time>
      </trkpt>
      <trkpt lat="44.92086" lon="6.08348">
        <ele>2065.4</ele>
        <time>2024-08-14T09:14:36Z</time>
      </trkpt>
      <trkpt lat="44.92086" lon="6.08348">
        <ele>2065.6</ele>
        <time>2024-08-14T09:14:37Z</time>
      </trkpt>
      <trkpt lat="44.92086" lon="6.08348">
        <ele>2065.6</ele>
        <time>2024-08-14T09:14:38Z</time>
      </trkpt>
      <trkpt lat="44.92086" lon="6.08348">
        <ele>2065.4</ele>
        <time>2024-08-14T09:14:39Z</time>
      </trkpt>
      <trkpt lat="44.92086" lon="6.08348">
        <ele>2065.4</ele>
        <time>2024-08-14T09:14:40Z</time>
      </trkpt>
      <trkpt lat="44.92086" lon="6.08348">
        <ele>2065.4</ele>
        <time>2024-08-14T09:14:41Z</time>
      </trkpt>
      <trkpt lat="44.92086" lon="6.08348">
        <ele>2065.6</ele>
        <time>2024-08-14T09:14:42Z</time>
      </trkpt>
      <trkpt lat="44.92086" lon="6.08348">
        <ele>2065.6</ele>
        <time>2024-08-14T09:14:43Z</time>
      </trkpt>
      <trkpt lat="44.92086" lon="6.08348">
        <ele>2065.4</ele>
        <time>2024-08-14T09:14:44Z</time>
      </trkpt>
      <trkpt lat="44.92086" lon="6.08348">
        <ele>2065.2</ele>
        <time>2024-08-14T09:14:45Z</time>
      </trkpt>
      <trkpt lat="44.92086" lon="6.08348">
        <ele>2065.2</ele>
        <time>2024-08-14T09:14:46Z</time>
      </trkpt>
      <trkpt lat="44.92086" lon="6.08348">
        <ele>2065.2</ele>
        <time>2024-08-14T09:14:47Z</time>
      </trkpt>
      <trkpt lat="44.92086" lon="6.08348">
        <ele>2065.2</ele>
        <time>2024-08-14T09:14:48Z</time>
      </trkpt>
      <trkpt lat="44.92086" lon="6.08348">
        <ele>2065.2</ele>
        <time>2024-08-14T09:14:49Z</time>
      </trkpt>
      <trkpt lat="44.92086" lon="6.08348">
        <ele>2065.2</ele>
        <time>2024-08-14T09:14:50Z</time>
      </trkpt>
      <trkpt lat="44.92086" lon="6.08348">
        <ele>2065.8</ele>
        <time>2024-08-14T09:14:51Z</time>
      </trkpt>
      <trkpt lat="44.92086" lon="6.08348">
        <ele>2065.8</ele>
        <time>2024-08-14T09:14:52Z</time>
      </trkpt>
      <trkpt lat="44.92086" lon="6.08348">
        <ele>2065.6</ele>
        <time>2024-08-14T09:14:53Z</time>
      </trkpt>
      <trkpt lat="44.92086" lon="6.08348">
        <ele>2065.6</ele>
        <time>2024-08-14T09:14:54Z</time>
      </trkpt>
      <trkpt lat="44.92086" lon="6.08348">
        <ele>2065.6</ele>
        <time>2024-08-14T09:14:55Z</time>
      </trkpt>
      <trkpt lat="44.92086" lon="6.08348">
        <ele>2065.6</ele>
        <time>2024-08-14T09:14:56Z</time>
      </trkpt>
      <trkpt lat="44.92086" lon="6.08348">
        <ele>2065.6</ele>
        <time>2024-08-14T09:14:57Z</time>
      </trkpt>
      <trkpt lat="44.92086" lon="6.08348">
        <ele>2065.4</ele>
        <time>2024-08-14T09:14:58Z</time>
      </trkpt>
      <trkpt lat="44.92086" lon="6.08348">
        <ele>2065.4</ele>
        <time>2024-08-14T09:14:59Z</time>
      </trkpt>
      <trkpt lat="44.92086" lon="6.08348">
        <ele>2065.4</ele>
        <time>2024-08-14T09:15:00Z</time>
      </trkpt>
      <trkpt lat="44.92086" lon="6.08348">
        <ele>2065.2</ele>
        <time>2024-08-14T09:15:01Z</time>
      </trkpt>
      <trkpt lat="44.92086" lon="6.08348">
        <ele>2065.2</ele>
        <time>2024-08-14T09:15:02Z</time>
      </trkpt>
      <trkpt lat="44.92086" lon="6.08348">
        <ele>2065.2</ele>
        <time>2024-08-14T09:15:03Z</time>
      </trkpt>
      <trkpt lat="44.92086" lon="6.08348">
        <ele>2065.2</ele>
        <time>2024-08-14T09:15:04Z</time>
      </trkpt>
      <trkpt lat="44.92086" lon="6.08348">
        <ele>2065.4</ele>
        <time>2024-08-14T09:15:05Z</time>
      </trkpt>
      <trkpt lat="44.92086" lon="6.08348">
        <ele>2065.4</ele>
        <time>2024-08-14T09:15:06Z</time>
      </trkpt>
      <trkpt lat="44.92086" lon="6.08348">
        <ele>2065.2</ele>
        <time>2024-08-14T09:15:07Z</time>
      </trkpt>
      <trkpt lat="44.92086" lon="6.08348">
        <ele>2065.2</ele>
        <time>2024-08-14T09:15:08Z</time>
      </trkpt>
      <trkpt lat="44.92086" lon="6.08348">
        <ele>2065.2</ele>
        <time>2024-08-14T09:15:09Z</time>
      </trkpt>
      <trkpt lat="44.92086" lon="6.08348">
        <ele>2065.6</ele>
        <time>2024-08-14T09:15:10Z</time>
      </trkpt>
      <trkpt lat="44.92086" lon="6.08348">
        <ele>2065.6</ele>
        <time>2024-08-14T09:15:11Z</time>
      </trkpt>
      <trkpt lat="44.92086" lon="6.08348">
        <ele>2065.6</ele>
        <time>2024-08-14T09:15:12Z</time>
      </trkpt>
      <trkpt lat="44.92086" lon="6.08348">
        <ele>2065.6</ele>
        <time>2024-08-14T09:15:13Z</time>
      </trkpt>
      <trkpt lat="44.92086" lon="6.08348">
        <ele>2065.4</ele>
        <time>2024-08-14T09:15:14Z</time>
      </trkpt>
      <trkpt lat="44.92086" lon="6.08348">
        <ele>2065.4</ele>
        <time>2024-08-14T09:15:15Z</time>
      </trkpt>
      <trkpt lat="44.92086" lon="6.08348">
        <ele>2065.4</ele>
        <time>2024-08-14T09:15:16Z</time>
      </trkpt>
      <trkpt lat="44.92086" lon="6.08348">
        <ele>2065.4</ele>
        <time>2024-08-14T09:15:17Z</time>
      </trkpt>
      <trkpt lat="44.92086" lon="6.08348">
        <ele>2065.4</ele>
        <time>2024-08-14T09:15:18Z</time>
      </trkpt>
      <trkpt lat="44.92086" lon="6.08348">
        <ele>2065.2</ele>
        <time>2024-08-14T09:15:19Z</time>
      </trkpt>
      <trkpt lat="44.92086" lon="6.08348">
        <ele>2065</ele>
        <time>2024-08-14T09:15:20Z</time>
      </trkpt>
      <trkpt lat="44.92086" lon="6.08348">
        <ele>2065</ele>
        <time>2024-08-14T09:15:21Z</time>
      </trkpt>
      <trkpt lat="44.92086" lon="6.08348">
        <ele>2065.2</ele>
        <time>2024-08-14T09:15:22Z</time>
      </trkpt>
      <trkpt lat="44.92086" lon="6.08348">
        <ele>2065.4</ele>
        <time>2024-08-14T09:15:23Z</time>
      </trkpt>
      <trkpt lat="44.92086" lon="6.08348">
        <ele>2065.4</ele>
        <time>2024-08-14T09:15:24Z</time>
      </trkpt>
      <trkpt lat="44.92086" lon="6.08348">
        <ele>2065.4</ele>
        <time>2024-08-14T09:15:25Z</time>
      </trkpt>
      <trkpt lat="44.92086" lon="6.08348">
        <ele>2065.2</ele>
        <time>2024-08-14T09:15:26Z</time>
      </trkpt>
      <trkpt lat="44.92086" lon="6.08348">
        <ele>2065.2</ele>
        <time>2024-08-14T09:15:27Z</time>
      </trkpt>
      <trkpt lat="44.92086" lon="6.08348">
        <ele>2065.2</ele>
        <time>2024-08-14T09:15:28Z</time>
      </trkpt>
      <trkpt lat="44.92086" lon="6.08348">
        <ele>2065.4</ele>
        <time>2024-08-14T09:15:29Z</time>
      </trkpt>
      <trkpt lat="44.92086" lon="6.08348">
        <ele>2065.4</ele>
        <time>2024-08-14T09:15:30Z</time>
      </trkpt>
      <trkpt lat="44.92086" lon="6.08348">
        <ele>2065.4</ele>
        <time>2024-08-14T09:15:31Z</time>
      </trkpt>
      <trkpt lat="44.92086" lon="6.08348">
        <ele>2065.4</ele>
        <time>2024-08-14T09:15:32Z</time>
      </trkpt>
      <trkpt lat="44.92086" lon="6.08348">
        <ele>2065.2</ele>
        <time>2024-08-14T09:15:33Z</time>
      </trkpt>
      <trkpt lat="44.92086" lon="6.08348">
        <ele>2065.2</ele>
        <time>2024-08-14T09:15:34Z</time>
      </trkpt>
      <trkpt lat="44.92086" lon="6.08348">
        <ele>2065.2</ele>
        <time>2024-08-14T09:15:35Z</time>
      </trkpt>
      <trkpt lat="44.92086" lon="6.08348">
        <ele>2065.2</ele>
        <time>2024-08-14T09:15:36Z</time>
      </trkpt>
      <trkpt lat="44.92086" lon="6.08348">
        <ele>2065.2</ele>
        <time>2024-08-14T09:15:37Z</time>
      </trkpt>
      <trkpt lat="44.92086" lon="6.08348">
        <ele>2065.2</ele>
        <time>2024-08-14T09:15:38Z</time>
      </trkpt>
      <trkpt lat="44.92086" lon="6.08348">
        <ele>2065.2</ele>
        <time>2024-08-14T09:15:39Z</time>
      </trkpt>
      <trkpt lat="44.92086" lon="6.08348">
        <ele>2065.2</ele>
        <time>2024-08-14T09:15:40Z</time>
      </trkpt>
      <trkpt lat="44.92086" lon="6.08348">
        <ele>2065.2</ele>
        <time>2024-08-14T09:15:41Z</time>
      </trkpt>
      <trkpt lat="44.92086" lon="6.08348">
        <ele>2065.4</ele>
        <time>2024-08-14T09:15:42Z</time>
      </trkpt>
      <trkpt lat="44.92086" lon="6.08348">
        <ele>2065.4</ele>
        <time>2024-08-14T09:15:43Z</time>
      </trkpt>
      <trkpt lat="44.92086" lon="6.08348">
        <ele>2065.6</ele>
        <time>2024-08-14T09:15:44Z</time>
      </trkpt>
      <trkpt lat="44.92086" lon="6.08348">
        <ele>2065.6</ele>
        <time>2024-08-14T09:15:45Z</time>
      </trkpt>
      <trkpt lat="44.92086" lon="6.08348">
        <ele>2065.6</ele>
        <time>2024-08-14T09:15:46Z</time>
      </trkpt>
      <trkpt lat="44.92086" lon="6.08348">
        <ele>2065.6</ele>
        <time>2024-08-14T09:15:47Z</time>
      </trkpt>
      <trkpt lat="44.92086" lon="6.08348">
        <ele>2065.8</ele>
        <time>2024-08-14T09:15:48Z</time>
      </trkpt>
      <trkpt lat="44.92086" lon="6.08348">
        <ele>2065.8</ele>
        <time>2024-08-14T09:15:49Z</time>
      </trkpt>
      <trkpt lat="44.92086" lon="6.08348">
        <ele>2065.8</ele>
        <time>2024-08-14T09:15:50Z</time>
      </trkpt>
      <trkpt lat="44.92086" lon="6.08348">
        <ele>2065.6</ele>
        <time>2024-08-14T09:15:51Z</time>
      </trkpt>
      <trkpt lat="44.92086" lon="6.08348">
        <ele>2065.6</ele>
        <time>2024-08-14T09:15:52Z</time>
      </trkpt>
      <trkpt lat="44.92086" lon="6.08348">
        <ele>2065.8</ele>
        <time>2024-08-14T09:15:53Z</time>
      </trkpt>
      <trkpt lat="44.92086" lon="6.08348">
        <ele>2065.8</ele>
        <time>2024-08-14T09:15:54Z</time>
      </trkpt>
      <trkpt lat="44.92086" lon="6.08348">
        <ele>2065.8</ele>
        <time>2024-08-14T09:15:55Z</time>
      </trkpt>
      <trkpt lat="44.92086" lon="6.08348">
        <ele>2065.8</ele>
        <time>2024-08-14T09:15:56Z</time>
      </trkpt>
      <trkpt lat="44.92086" lon="6.08348">
        <ele>2065.8</ele>
        <time>2024-08-14T09:15:57Z</time>
      </trkpt>
      <trkpt lat="44.92086" lon="6.08348">
        <ele>2065.8</ele>
        <time>2024-08-14T09:15:58Z</time>
      </trkpt>
      <trkpt lat="44.92086" lon="6.08348">
        <ele>2065.8</ele>
        <time>2024-08-14T09:15:59Z</time>
      </trkpt>
      <trkpt lat="44.92086" lon="6.08348">
        <ele>2065.6</ele>
        <time>2024-08-14T09:16:00Z</time>
      </trkpt>
      <trkpt lat="44.92086" lon="6.08348">
        <ele>2065.6</ele>
        <time>2024-08-14T09:16:01Z</time>
      </trkpt>
      <trkpt lat="44.92086" lon="6.08348">
        <ele>2066</ele>
        <time>2024-08-14T09:16:02Z</time>
      </trkpt>
      <trkpt lat="44.92086" lon="6.08348">
        <ele>2066</ele>
        <time>2024-08-14T09:16:03Z</time>
      </trkpt>
      <trkpt lat="44.92086" lon="6.08348">
        <ele>2066</ele>
        <time>2024-08-14T09:16:04Z</time>
      </trkpt>
      <trkpt lat="44.92086" lon="6.08348">
        <ele>2066</ele>
        <time>2024-08-14T09:16:05Z</time>
      </trkpt>
      <trkpt lat="44.92086" lon="6.08348">
        <ele>2065.8</ele>
        <time>2024-08-14T09:16:06Z</time>
      </trkpt>
      <trkpt lat="44.92086" lon="6.08348">
        <ele>2065.6</ele>
        <time>2024-08-14T09:16:07Z</time>
      </trkpt>
      <trkpt lat="44.92086" lon="6.08348">
        <ele>2065.6</ele>
        <time>2024-08-14T09:16:08Z</time>
      </trkpt>
      <trkpt lat="44.92086" lon="6.08348">
        <ele>2065.6</ele>
        <time>2024-08-14T09:16:09Z</time>
      </trkpt>
      <trkpt lat="44.92086" lon="6.08348">
        <ele>2065.6</ele>
        <time>2024-08-14T09:16:10Z</time>
      </trkpt>
      <trkpt lat="44.92086" lon="6.08348">
        <ele>2065.6</ele>
        <time>2024-08-14T09:16:11Z</time>
      </trkpt>
      <trkpt lat="44.92086" lon="6.08348">
        <ele>2065.4</ele>
        <time>2024-08-14T09:16:12Z</time>
      </trkpt>
      <trkpt lat="44.92086" lon="6.08348">
        <ele>2065.6</ele>
        <time>2024-08-14T09:16:13Z</time>
      </trkpt>
      <trkpt lat="44.92086" lon="6.08348">
        <ele>2065.6</ele>
        <time>2024-08-14T09:16:14Z</time>
      </trkpt>
      <trkpt lat="44.92086" lon="6.08348">
        <ele>2065.6</ele>
        <time>2024-08-14T09:16:15Z</time>
      </trkpt>
      <trkpt lat="44.92086" lon="6.08348">
        <ele>2065.6</ele>
        <time>2024-08-14T09:16:16Z</time>
      </trkpt>
      <trkpt lat="44.92086" lon="6.08348">
        <ele>2065.6</ele>
        <time>2024-08-14T09:16:17Z</time>
      </trkpt>
      <trkpt lat="44.92086" lon="6.08348">
        <ele>2065.6</ele>
        <time>2024-08-14T09:16:18Z</time>
      </trkpt>
      <trkpt lat="44.92086" lon="6.08348">
        <ele>2065.4</ele>
        <time>2024-08-14T09:16:19Z</time>
      </trkpt>
      <trkpt lat="44.92086" lon="6.08348">
        <ele>2065.4</ele>
        <time>2024-08-14T09:16:20Z</time>
      </trkpt>
      <trkpt lat="44.92086" lon="6.08348">
        <ele>2065.4</ele>
        <time>2024-08-14T09:16:21Z</time>
      </trkpt>
      <trkpt lat="44.92086" lon="6.08348">
        <ele>2065.4</ele>
        <time>2024-08-14T09:16:22Z</time>
      </trkpt>
      <trkpt lat="44.92086" lon="6.08348">
        <ele>2065.4</ele>
        <time>2024-08-14T09:16:23Z</time>
      </trkpt>
      <trkpt lat="44.92086" lon="6.08348">
        <ele>2065.4</ele>
        <time>2024-08-14T09:16:24Z</time>
      </trkpt>
      <trkpt lat="44.92086" lon="6.08348">
        <ele>2065.4</ele>
        <time>2024-08-14T09:16:25Z</time>
      </trkpt>
      <trkpt lat="44.92086" lon="6.08348">
        <ele>2065.2</ele>
        <time>2024-08-14T09:16:26Z</time>
      </trkpt>
      <trkpt lat="44.92086" lon="6.08348">
        <ele>2065.4</ele>
        <time>2024-08-14T09:16:27Z</time>
      </trkpt>
      <trkpt lat="44.92086" lon="6.08348">
        <ele>2065.2</ele>
        <time>2024-08-14T09:16:28Z</time>
      </trkpt>
      <trkpt lat="44.92086" lon="6.08348">
        <ele>2065.4</ele>
        <time>2024-08-14T09:16:29Z</time>
      </trkpt>
      <trkpt lat="44.92086" lon="6.08348">
        <ele>2065.4</ele>
        <time>2024-08-14T09:16:30Z</time>
      </trkpt>
      <trkpt lat="44.92086" lon="6.08348">
        <ele>2065.4</ele>
        <time>2024-08-14T09:16:31Z</time>
      </trkpt>
      <trkpt lat="44.92086" lon="6.08348">
        <ele>2065.6</ele>
        <time>2024-08-14T09:16:32Z</time>
      </trkpt>
      <trkpt lat="44.92086" lon="6.08348">
        <ele>2065.6</ele>
        <time>2024-08-14T09:16:33Z</time>
      </trkpt>
      <trkpt lat="44.92086" lon="6.08348">
        <ele>2065.4</ele>
        <time>2024-08-14T09:16:34Z</time>
      </trkpt>
      <trkpt lat="44.92086" lon="6.08348">
        <ele>2065.4</ele>
        <time>2024-08-14T09:16:35Z</time>
      </trkpt>
      <trkpt lat="44.92086" lon="6.08348">
        <ele>2065.8</ele>
        <time>2024-08-14T09:16:36Z</time>
      </trkpt>
      <trkpt lat="44.92086" lon="6.08348">
        <ele>2065.8</ele>
        <time>2024-08-14T09:16:37Z</time>
      </trkpt>
      <trkpt lat="44.92086" lon="6.08348">
        <ele>2065.6</ele>
        <time>2024-08-14T09:16:38Z</time>
      </trkpt>
      <trkpt lat="44.92086" lon="6.08348">
        <ele>2065.6</ele>
        <time>2024-08-14T09:16:39Z</time>
      </trkpt>
      <trkpt lat="44.92086" lon="6.08348">
        <ele>2065.6</ele>
        <time>2024-08-14T09:16:40Z</time>
      </trkpt>
      <trkpt lat="44.92086" lon="6.08348">
        <ele>2065.8</ele>
        <time>2024-08-14T09:16:41Z</time>
      </trkpt>
      <trkpt lat="44.92086" lon="6.08348">
        <ele>2065.8</ele>
        <time>2024-08-14T09:16:42Z</time>
      </trkpt>
      <trkpt lat="44.92086" lon="6.08348">
        <ele>2065.8</ele>
        <time>2024-08-14T09:16:43Z</time>
      </trkpt>
      <trkpt lat="44.92086" lon="6.08348">
        <ele>2065.8</ele>
        <time>2024-08-14T09:16:44Z</time>
      </trkpt>
      <trkpt lat="44.92086" lon="6.08348">
        <ele>2065.8</ele>
        <time>2024-08-14T09:16:45Z</time>
      </trkpt>
      <trkpt lat="44.92086" lon="6.08348">
        <ele>2066</ele>
        <time>2024-08-14T09:16:46Z</time>
      </trkpt>
      <trkpt lat="44.92086" lon="6.08348">
        <ele>2066</ele>
        <time>2024-08-14T09:16:47Z</time>
      </trkpt>
      <trkpt lat="44.92086" lon="6.08348">
        <ele>2066</ele>
        <time>2024-08-14T09:16:48Z</time>
      </trkpt>
      <trkpt lat="44.92086" lon="6.08348">
        <ele>2066</ele>
        <time>2024-08-14T09:16:49Z</time>
      </trkpt>
      <trkpt lat="44.92086" lon="6.08348">
        <ele>2066.2</ele>
        <time>2024-08-14T09:16:50Z</time>
      </trkpt>
      <trkpt lat="44.92086" lon="6.08348">
        <ele>2066.2</ele>
        <time>2024-08-14T09:16:51Z</time>
      </trkpt>
      <trkpt lat="44.92086" lon="6.08348">
        <ele>2066</ele>
        <time>2024-08-14T09:16:52Z</time>
      </trkpt>
      <trkpt lat="44.92086" lon="6.08348">
        <ele>2065.8</ele>
        <time>2024-08-14T09:16:53Z</time>
      </trkpt>
      <trkpt lat="44.92086" lon="6.08348">
        <ele>2066</ele>
        <time>2024-08-14T09:16:54Z</time>
      </trkpt>
      <trkpt lat="44.92086" lon="6.08348">
        <ele>2066.2</ele>
        <time>2024-08-14T09:16:55Z</time>
      </trkpt>
      <trkpt lat="44.92086" lon="6.08348">
        <ele>2066.4</ele>
        <time>2024-08-14T09:16:56Z</time>
      </trkpt>
      <trkpt lat="44.92086" lon="6.08348">
        <ele>2066.4</ele>
        <time>2024-08-14T09:16:57Z</time>
      </trkpt>
      <trkpt lat="44.92086" lon="6.08348">
        <ele>2066.4</ele>
        <time>2024-08-14T09:16:58Z</time>
      </trkpt>
      <trkpt lat="44.92086" lon="6.08348">
        <ele>2066.2</ele>
        <time>2024-08-14T09:16:59Z</time>
      </trkpt>
      <trkpt lat="44.92086" lon="6.08348">
        <ele>2066.2</ele>
        <time>2024-08-14T09:17:00Z</time>
      </trkpt>
      <trkpt lat="44.92086" lon="6.08348">
        <ele>2066.2</ele>
        <time>2024-08-14T09:17:01Z</time>
      </trkpt>
      <trkpt lat="44.92086" lon="6.08348">
        <ele>2066.4</ele>
        <time>2024-08-14T09:17:02Z</time>
      </trkpt>
      <trkpt lat="44.92086" lon="6.08348">
        <ele>2066.4</ele>
        <time>2024-08-14T09:17:03Z</time>
      </trkpt>
      <trkpt lat="44.92086" lon="6.08348">
        <ele>2066.4</ele>
        <time>2024-08-14T09:17:04Z</time>
      </trkpt>
      <trkpt lat="44.92086" lon="6.08348">
        <ele>2066.4</ele>
        <time>2024-08-14T09:17:05Z</time>
      </trkpt>
      <trkpt lat="44.92086" lon="6.08348">
        <ele>2066.4</ele>
        <time>2024-08-14T09:17:06Z</time>
      </trkpt>
      <trkpt lat="44.92086" lon="6.08348">
        <ele>2066.4</ele>
        <time>2024-08-14T09:17:07Z</time>
      </trkpt>
      <trkpt lat="44.92086" lon="6.08348">
        <ele>2066.4</ele>
        <time>2024-08-14T09:17:08Z</time>
      </trkpt>
      <trkpt lat="44.92086" lon="6.08348">
        <ele>2066.6</ele>
        <time>2024-08-14T09:17:09Z</time>
      </trkpt>
      <trkpt lat="44.92086" lon="6.08348">
        <ele>2066.6</ele>
        <time>2024-08-14T09:17:10Z</time>
      </trkpt>
      <trkpt lat="44.92086" lon="6.08348">
        <ele>2066.4</ele>
        <time>2024-08-14T09:17:11Z</time>
      </trkpt>
      <trkpt lat="44.92086" lon="6.08348">
        <ele>2066.4</ele>
        <time>2024-08-14T09:17:12Z</time>
      </trkpt>
      <trkpt lat="44.92086" lon="6.08348">
        <ele>2066.2</ele>
        <time>2024-08-14T09:17:13Z</time>
      </trkpt>
      <trkpt lat="44.92086" lon="6.08348">
        <ele>2066</ele>
        <time>2024-08-14T09:17:14Z</time>
      </trkpt>
      <trkpt lat="44.92086" lon="6.08348">
        <ele>2065.8</ele>
        <time>2024-08-14T09:17:15Z</time>
      </trkpt>
      <trkpt lat="44.92086" lon="6.08348">
        <ele>2065.8</ele>
        <time>2024-08-14T09:17:16Z</time>
      </trkpt>
      <trkpt lat="44.92086" lon="6.08348">
        <ele>2065.8</ele>
        <time>2024-08-14T09:17:17Z</time>
      </trkpt>
      <trkpt lat="44.92086" lon="6.08348">
        <ele>2065.8</ele>
        <time>2024-08-14T09:17:18Z</time>
      </trkpt>
      <trkpt lat="44.92086" lon="6.08348">
        <ele>2065.8</ele>
        <time>2024-08-14T09:17:19Z</time>
      </trkpt>
      <trkpt lat="44.92086" lon="6.08348">
        <ele>2065.8</ele>
        <time>2024-08-14T09:17:20Z</time>
      </trkpt>
      <trkpt lat="44.92086" lon="6.08348">
        <ele>2066</ele>
        <time>2024-08-14T09:17:21Z</time>
      </trkpt>
      <trkpt lat="44.92086" lon="6.08348">
        <ele>2066.2</ele>
        <time>2024-08-14T09:17:22Z</time>
      </trkpt>
      <trkpt lat="44.92086" lon="6.08348">
        <ele>2066.2</ele>
        <time>2024-08-14T09:17:23Z</time>
      </trkpt>
      <trkpt lat="44.92086" lon="6.08348">
        <ele>2066.4</ele>
        <time>2024-08-14T09:17:24Z</time>
      </trkpt>
      <trkpt lat="44.92086" lon="6.08348">
        <ele>2066.4</ele>
        <time>2024-08-14T09:17:25Z</time>
      </trkpt>
      <trkpt lat="44.92086" lon="6.08348">
        <ele>2066</ele>
        <time>2024-08-14T09:17:26Z</time>
      </trkpt>
      <trkpt lat="44.92086" lon="6.08348">
        <ele>2066</ele>
        <time>2024-08-14T09:17:27Z</time>
      </trkpt>
      <trkpt lat="44.92086" lon="6.08348">
        <ele>2065.6</ele>
        <time>2024-08-14T09:17:28Z</time>
      </trkpt>
      <trkpt lat="44.92086" lon="6.08348">
        <ele>2065.6</ele>
        <time>2024-08-14T09:17:29Z</time>
      </trkpt>
      <trkpt lat="44.92086" lon="6.08348">
        <ele>2065.8</ele>
        <time>2024-08-14T09:17:30Z</time>
      </trkpt>
      <trkpt lat="44.92086" lon="6.08348">
        <ele>2066.2</ele>
        <time>2024-08-14T09:17:31Z</time>
      </trkpt>
      <trkpt lat="44.92086" lon="6.08348">
        <ele>2066.2</ele>
        <time>2024-08-14T09:17:32Z</time>
      </trkpt>
      <trkpt lat="44.92086" lon="6.08348">
        <ele>2066.2</ele>
        <time>2024-08-14T09:17:33Z</time>
      </trkpt>
      <trkpt lat="44.92086" lon="6.08348">
        <ele>2066.2</ele>
        <time>2024-08-14T09:17:34Z</time>
      </trkpt>
      <trkpt lat="44.92086" lon="6.08348">
        <ele>2066</ele>
        <time>2024-08-14T09:17:35Z</time>
      </trkpt>
      <trkpt lat="44.92086" lon="6.08348">
        <ele>2066</ele>
        <time>2024-08-14T09:17:36Z</time>
      </trkpt>
      <trkpt lat="44.92086" lon="6.08348">
        <ele>2066</ele>
        <time>2024-08-14T09:17:37Z</time>
      </trkpt>
      <trkpt lat="44.92086" lon="6.08348">
        <ele>2066</ele>
        <time>2024-08-14T09:17:38Z</time>
      </trkpt>
      <trkpt lat="44.92086" lon="6.08348">
        <ele>2066.2</ele>
        <time>2024-08-14T09:17:39Z</time>
      </trkpt>
      <trkpt lat="44.92086" lon="6.08348">
        <ele>2066.2</ele>
        <time>2024-08-14T09:17:40Z</time>
      </trkpt>
      <trkpt lat="44.92086" lon="6.08348">
        <ele>2066</ele>
        <time>2024-08-14T09:17:41Z</time>
      </trkpt>
      <trkpt lat="44.92086" lon="6.08348">
        <ele>2065.8</ele>
        <time>2024-08-14T09:17:42Z</time>
      </trkpt>
      <trkpt lat="44.92086" lon="6.08348">
        <ele>2066</ele>
        <time>2024-08-14T09:17:43Z</time>
      </trkpt>
      <trkpt lat="44.92086" lon="6.08348">
        <ele>2066</ele>
        <time>2024-08-14T09:17:44Z</time>
      </trkpt>
      <trkpt lat="44.92086" lon="6.08348">
        <ele>2066</ele>
        <time>2024-08-14T09:17:45Z</time>
      </trkpt>
      <trkpt lat="44.92086" lon="6.08348">
        <ele>2066</ele>
        <time>2024-08-14T09:17:46Z</time>
      </trkpt>
      <trkpt lat="44.92086" lon="6.08348">
        <ele>2066</ele>
        <time>2024-08-14T09:17:47Z</time>
      </trkpt>
      <trkpt lat="44.92086" lon="6.08348">
        <ele>2066</ele>
        <time>2024-08-14T09:17:48Z</time>
      </trkpt>
      <trkpt lat="44.92086" lon="6.08348">
        <ele>2066.2</ele>
        <time>2024-08-14T09:17:49Z</time>
      </trkpt>
      <trkpt lat="44.92086" lon="6.08348">
        <ele>2066.4</ele>
        <time>2024-08-14T09:17:50Z</time>
      </trkpt>
      <trkpt lat="44.92086" lon="6.08348">
        <ele>2066.8</ele>
        <time>2024-08-14T09:17:51Z</time>
      </trkpt>
      <trkpt lat="44.92086" lon="6.08348">
        <ele>2067</ele>
        <time>2024-08-14T09:17:52Z</time>
      </trkpt>
      <trkpt lat="44.92086" lon="6.08348">
        <ele>2067</ele>
        <time>2024-08-14T09:17:53Z</time>
      </trkpt>
      <trkpt lat="44.92086" lon="6.08348">
        <ele>2067</ele>
        <time>2024-08-14T09:17:54Z</time>
      </trkpt>
      <trkpt lat="44.92086" lon="6.08348">
        <ele>2067</ele>
        <time>2024-08-14T09:17:55Z</time>
      </trkpt>
      <trkpt lat="44.92086" lon="6.08348">
        <ele>2067</ele>
        <time>2024-08-14T09:17:56Z</time>
      </trkpt>
      <trkpt lat="44.92086" lon="6.08348">
        <ele>2067</ele>
        <time>2024-08-14T09:17:57Z</time>
      </trkpt>
      <trkpt lat="44.92086" lon="6.08348">
        <ele>2067.2</ele>
        <time>2024-08-14T09:17:58Z</time>
      </trkpt>
      <trkpt lat="44.92086" lon="6.08348">
        <ele>2067.8</ele>
        <time>2024-08-14T09:17:59Z</time>
      </trkpt>
      <trkpt lat="44.92088" lon="6.08347">
        <ele>2067.8</ele>
        <time>2024-08-14T09:18:00Z</time>
      </trkpt>
      <trkpt lat="44.92088" lon="6.08347">
        <ele>2067.4</ele>
        <time>2024-08-14T09:18:01Z</time>
      </trkpt>
      <trkpt lat="44.92091" lon="6.08347">
        <ele>2067.4</ele>
        <time>2024-08-14T09:18:02Z</time>
      </trkpt>
      <trkpt lat="44.92091" lon="6.08347">
        <ele>2067.4</ele>
        <time>2024-08-14T09:18:03Z</time>
      </trkpt>
      <trkpt lat="44.92094" lon="6.08347">
        <ele>2068</ele>
        <time>2024-08-14T09:18:04Z</time>
      </trkpt>
      <trkpt lat="44.92094" lon="6.08347">
        <ele>2068.2</ele>
        <time>2024-08-14T09:18:05Z</time>
      </trkpt>
      <trkpt lat="44.92096" lon="6.08347">
        <ele>2068.6</ele>
        <time>2024-08-14T09:18:06Z</time>
      </trkpt>
      <trkpt lat="44.92096" lon="6.08347">
        <ele>2068.6</ele>
        <time>2024-08-14T09:18:07Z</time>
      </trkpt>
      <trkpt lat="44.92096" lon="6.08347">
        <ele>2068.8</ele>
        <time>2024-08-14T09:18:08Z</time>
      </trkpt>
      <trkpt lat="44.92098" lon="6.08348">
        <ele>2069</ele>
        <time>2024-08-14T09:18:09Z</time>
      </trkpt>
      <trkpt lat="44.92098" lon="6.08348">
        <ele>2069.2</ele>
        <time>2024-08-14T09:18:10Z</time>
      </trkpt>
      <trkpt lat="44.92101" lon="6.08349">
        <ele>2069.4</ele>
        <time>2024-08-14T09:18:11Z</time>
      </trkpt>
      <trkpt lat="44.92101" lon="6.08349">
        <ele>2069.6</ele>
        <time>2024-08-14T09:18:12Z</time>
      </trkpt>
      <trkpt lat="44.92103" lon="6.0835">
        <ele>2069.8</ele>
        <time>2024-08-14T09:18:13Z</time>
      </trkpt>
      <trkpt lat="44.92103" lon="6.0835">
        <ele>2069.8</ele>
        <time>2024-08-14T09:18:14Z</time>
      </trkpt>
      <trkpt lat="44.92105" lon="6.0835">
        <ele>2070</ele>
        <time>2024-08-14T09:18:15Z</time>
      </trkpt>
      <trkpt lat="44.92105" lon="6.0835">
        <ele>2070</ele>
        <time>2024-08-14T09:18:16Z</time>
      </trkpt>
      <trkpt lat="44.92107" lon="6.0835">
        <ele>2070.2</ele>
        <time>2024-08-14T09:18:17Z</time>
      </trkpt>
      <trkpt lat="44.92107" lon="6.0835">
        <ele>2070.4</ele>
        <time>2024-08-14T09:18:18Z</time>
      </trkpt>
      <trkpt lat="44.92109" lon="6.08349">
        <ele>2070.4</ele>
        <time>2024-08-14T09:18:19Z</time>
      </trkpt>
      <trkpt lat="44.92109" lon="6.08349">
        <ele>2070.4</ele>
        <time>2024-08-14T09:18:20Z</time>
      </trkpt>
      <trkpt lat="44.92111" lon="6.08347">
        <ele>2070.4</ele>
        <time>2024-08-14T09:18:21Z</time>
      </trkpt>
      <trkpt lat="44.92111" lon="6.08347">
        <ele>2070.6</ele>
        <time>2024-08-14T09:18:22Z</time>
      </trkpt>
      <trkpt lat="44.92113" lon="6.08346">
        <ele>2070.6</ele>
        <time>2024-08-14T09:18:23Z</time>
      </trkpt>
      <trkpt lat="44.92113" lon="6.08346">
        <ele>2070.6</ele>
        <time>2024-08-14T09:18:24Z</time>
      </trkpt>
      <trkpt lat="44.92115" lon="6.08344">
        <ele>2070.8</ele>
        <time>2024-08-14T09:18:25Z</time>
      </trkpt>
      <trkpt lat="44.92115" lon="6.08344">
        <ele>2070.8</ele>
        <time>2024-08-14T09:18:26Z</time>
      </trkpt>
      <trkpt lat="44.92116" lon="6.08342">
        <ele>2071</ele>
        <time>2024-08-14T09:18:27Z</time>
      </trkpt>
      <trkpt lat="44.92116" lon="6.08342">
        <ele>2071</ele>
        <time>2024-08-14T09:18:28Z</time>
      </trkpt>
      <trkpt lat="44.92118" lon="6.08341">
        <ele>2071.2</ele>
        <time>2024-08-14T09:18:29Z</time>
      </trkpt>
      <trkpt lat="44.92118" lon="6.08341">
        <ele>2071.2</ele>
        <time>2024-08-14T09:18:30Z</time>
      </trkpt>
      <trkpt lat="44.9212" lon="6.08339">
        <ele>2071.2</ele>
        <time>2024-08-14T09:18:31Z</time>
      </trkpt>
      <trkpt lat="44.9212" lon="6.08339">
        <ele>2071.2</ele>
        <time>2024-08-14T09:18:32Z</time>
      </trkpt>
      <trkpt lat="44.92122" lon="6.08338">
        <ele>2071.4</ele>
        <time>2024-08-14T09:18:33Z</time>
      </trkpt>
      <trkpt lat="44.92122" lon="6.08338">
        <ele>2071.4</ele>
        <time>2024-08-14T09:18:34Z</time>
      </trkpt>
      <trkpt lat="44.92123" lon="6.08336">
        <ele>2071.4</ele>
        <time>2024-08-14T09:18:35Z</time>
      </trkpt>
      <trkpt lat="44.92123" lon="6.08336">
        <ele>2071.4</ele>
        <time>2024-08-14T09:18:36Z</time>
      </trkpt>
      <trkpt lat="44.92125" lon="6.08334">
        <ele>2071.8</ele>
        <time>2024-08-14T09:18:37Z</time>
      </trkpt>
      <trkpt lat="44.92125" lon="6.08334">
        <ele>2071.8</ele>
        <time>2024-08-14T09:18:38Z</time>
      </trkpt>
      <trkpt lat="44.92126" lon="6.08332">
        <ele>2072</ele>
        <time>2024-08-14T09:18:39Z</time>
      </trkpt>
      <trkpt lat="44.92126" lon="6.08332">
        <ele>2072</ele>
        <time>2024-08-14T09:18:40Z</time>
      </trkpt>
      <trkpt lat="44.92126" lon="6.08332">
        <ele>2072</ele>
        <time>2024-08-14T09:18:41Z</time>
      </trkpt>
      <trkpt lat="44.92129" lon="6.08331">
        <ele>2072.2</ele>
        <time>2024-08-14T09:18:42Z</time>
      </trkpt>
      <trkpt lat="44.92129" lon="6.08331">
        <ele>2072.6</ele>
        <time>2024-08-14T09:18:43Z</time>
      </trkpt>
      <trkpt lat="44.92131" lon="6.08332">
        <ele>2072.6</ele>
        <time>2024-08-14T09:18:44Z</time>
      </trkpt>
      <trkpt lat="44.92131" lon="6.08332">
        <ele>2072.6</ele>
        <time>2024-08-14T09:18:45Z</time>
      </trkpt>
      <trkpt lat="44.92133" lon="6.08333">
        <ele>2072.6</ele>
        <time>2024-08-14T09:18:46Z</time>
      </trkpt>
      <trkpt lat="44.92133" lon="6.08333">
        <ele>2072.6</ele>
        <time>2024-08-14T09:18:47Z</time>
      </trkpt>
      <trkpt lat="44.92135" lon="6.08337">
        <ele>2072.8</ele>
        <time>2024-08-14T09:18:48Z</time>
      </trkpt>
      <trkpt lat="44.92135" lon="6.08337">
        <ele>2073</ele>
        <time>2024-08-14T09:18:49Z</time>
      </trkpt>
      <trkpt lat="44.92135" lon="6.0834">
        <ele>2073</ele>
        <time>2024-08-14T09:18:50Z</time>
      </trkpt>
      <trkpt lat="44.92135" lon="6.0834">
        <ele>2072.8</ele>
        <time>2024-08-14T09:18:51Z</time>
      </trkpt>
      <trkpt lat="44.92136" lon="6.08343">
        <ele>2072.8</ele>
        <time>2024-08-14T09:18:52Z</time>
      </trkpt>
      <trkpt lat="44.92136" lon="6.08343">
        <ele>2073</ele>
        <time>2024-08-14T09:18:53Z</time>
      </trkpt>
      <trkpt lat="44.92136" lon="6.08346">
        <ele>2073.2</ele>
        <time>2024-08-14T09:18:54Z</time>
      </trkpt>
      <trkpt lat="44.92136" lon="6.08346">
        <ele>2073.2</ele>
        <time>2024-08-14T09:18:55Z</time>
      </trkpt>
      <trkpt lat="44.92137" lon="6.08348">
        <ele>2073.4</ele>
        <time>2024-08-14T09:18:56Z</time>
      </trkpt>
      <trkpt lat="44.92137" lon="6.08348">
        <ele>2073.4</ele>
        <time>2024-08-14T09:18:57Z</time>
      </trkpt>
      <trkpt lat="44.92137" lon="6.08352">
        <ele>2073.8</ele>
        <time>2024-08-14T09:18:58Z</time>
      </trkpt>
      <trkpt lat="44.92137" lon="6.08352">
        <ele>2073.8</ele>
        <time>2024-08-14T09:18:59Z</time>
      </trkpt>
      <trkpt lat="44.92136" lon="6.08354">
        <ele>2074</ele>
        <time>2024-08-14T09:19:00Z</time>
      </trkpt>
      <trkpt lat="44.92136" lon="6.08354">
        <ele>2074</ele>
        <time>2024-08-14T09:19:01Z</time>
      </trkpt>
      <trkpt lat="44.92137" lon="6.08358">
        <ele>2073.6</ele>
        <time>2024-08-14T09:19:02Z</time>
      </trkpt>
      <trkpt lat="44.92137" lon="6.08358">
        <ele>2073.6</ele>
        <time>2024-08-14T09:19:03Z</time>
      </trkpt>
      <trkpt lat="44.92137" lon="6.08361">
        <ele>2073.4</ele>
        <time>2024-08-14T09:19:04Z</time>
      </trkpt>
      <trkpt lat="44.92137" lon="6.08361">
        <ele>2073.4</ele>
        <time>2024-08-14T09:19:05Z</time>
      </trkpt>
      <trkpt lat="44.92137" lon="6.08364">
        <ele>2073.4</ele>
        <time>2024-08-14T09:19:06Z</time>
      </trkpt>
      <trkpt lat="44.92137" lon="6.08364">
        <ele>2073.4</ele>
        <time>2024-08-14T09:19:07Z</time>
      </trkpt>
      <trkpt lat="44.92137" lon="6.08368">
        <ele>2073.8</ele>
        <time>2024-08-14T09:19:08Z</time>
      </trkpt>
      <trkpt lat="44.92137" lon="6.08368">
        <ele>2074</ele>
        <time>2024-08-14T09:19:09Z</time>
      </trkpt>
      <trkpt lat="44.92138" lon="6.08371">
        <ele>2074.2</ele>
        <time>2024-08-14T09:19:10Z</time>
      </trkpt>
      <trkpt lat="44.92138" lon="6.08371">
        <ele>2074.2</ele>
        <time>2024-08-14T09:19:11Z</time>
      </trkpt>
      <trkpt lat="44.92138" lon="6.08371">
        <ele>2074.4</ele>
        <time>2024-08-14T09:19:12Z</time>
      </trkpt>
      <trkpt lat="44.92139" lon="6.08374">
        <ele>2074.8</ele>
        <time>2024-08-14T09:19:13Z</time>
      </trkpt>
      <trkpt lat="44.92139" lon="6.08374">
        <ele>2075</ele>
        <time>2024-08-14T09:19:14Z</time>
      </trkpt>
      <trkpt lat="44.92139" lon="6.08374">
        <ele>2075.6</ele>
        <time>2024-08-14T09:19:15Z</time>
      </trkpt>
      <trkpt lat="44.9214" lon="6.08375">
        <ele>2075.6</ele>
        <time>2024-08-14T09:19:16Z</time>
      </trkpt>
      <trkpt lat="44.9214" lon="6.08375">
        <ele>2075.8</ele>
        <time>2024-08-14T09:19:17Z</time>
      </trkpt>
      <trkpt lat="44.92142" lon="6.08375">
        <ele>2076</ele>
        <time>2024-08-14T09:19:18Z</time>
      </trkpt>
      <trkpt lat="44.92142" lon="6.08375">
        <ele>2076.2</ele>
        <time>2024-08-14T09:19:19Z</time>
      </trkpt>
      <trkpt lat="44.92142" lon="6.08375">
        <ele>2076.4</ele>
        <time>2024-08-14T09:19:20Z</time>
      </trkpt>
      <trkpt lat="44.92144" lon="6.08375">
        <ele>2076.8</ele>
        <time>2024-08-14T09:19:21Z</time>
      </trkpt>
      <trkpt lat="44.92144" lon="6.08375">
        <ele>2077</ele>
        <time>2024-08-14T09:19:22Z</time>
      </trkpt>
      <trkpt lat="44.92144" lon="6.08375">
        <ele>2077.2</ele>
        <time>2024-08-14T09:19:23Z</time>
      </trkpt>
      <trkpt lat="44.92146" lon="6.08374">
        <ele>2077.2</ele>
        <time>2024-08-14T09:19:24Z</time>
      </trkpt>
      <trkpt lat="44.92146" lon="6.08374">
        <ele>2077.2</ele>
        <time>2024-08-14T09:19:25Z</time>
      </trkpt>
      <trkpt lat="44.92146" lon="6.08374">
        <ele>2077.4</ele>
        <time>2024-08-14T09:19:26Z</time>
      </trkpt>
      <trkpt lat="44.92149" lon="6.08373">
        <ele>2077.6</ele>
        <time>2024-08-14T09:19:27Z</time>
      </trkpt>
      <trkpt lat="44.92149" lon="6.08373">
        <ele>2077.6</ele>
        <time>2024-08-14T09:19:28Z</time>
      </trkpt>
      <trkpt lat="44.92149" lon="6.08373">
        <ele>2078</ele>
        <time>2024-08-14T09:19:29Z</time>
      </trkpt>
      <trkpt lat="44.92149" lon="6.08373">
        <ele>2078.4</ele>
        <time>2024-08-14T09:19:30Z</time>
      </trkpt>
      <trkpt lat="44.92151" lon="6.08373">
        <ele>2078.6</ele>
        <time>2024-08-14T09:19:31Z</time>
      </trkpt>
      <trkpt lat="44.92151" lon="6.08373">
        <ele>2078.6</ele>
        <time>2024-08-14T09:19:32Z</time>
      </trkpt>
      <trkpt lat="44.92153" lon="6.08373">
        <ele>2079.2</ele>
        <time>2024-08-14T09:19:33Z</time>
      </trkpt>
      <trkpt lat="44.92153" lon="6.08373">
        <ele>2079.4</ele>
        <time>2024-08-14T09:19:34Z</time>
      </trkpt>
      <trkpt lat="44.92153" lon="6.08373">
        <ele>2079.4</ele>
        <time>2024-08-14T09:19:35Z</time>
      </trkpt>
      <trkpt lat="44.92155" lon="6.08372">
        <ele>2079.6</ele>
        <time>2024-08-14T09:19:36Z</time>
      </trkpt>
      <trkpt lat="44.92155" lon="6.08372">
        <ele>2079.8</ele>
        <time>2024-08-14T09:19:37Z</time>
      </trkpt>
      <trkpt lat="44.92155" lon="6.08372">
        <ele>2079.8</ele>
        <time>2024-08-14T09:19:38Z</time>
      </trkpt>
      <trkpt lat="44.92155" lon="6.08372">
        <ele>2080</ele>
        <time>2024-08-14T09:19:39Z</time>
      </trkpt>
      <trkpt lat="44.92157" lon="6.08373">
        <ele>2080</ele>
        <time>2024-08-14T09:19:40Z</time>
      </trkpt>
      <trkpt lat="44.92157" lon="6.08373">
        <ele>2080.4</ele>
        <time>2024-08-14T09:19:41Z</time>
      </trkpt>
      <trkpt lat="44.92157" lon="6.08373">
        <ele>2080.6</ele>
        <time>2024-08-14T09:19:42Z</time>
      </trkpt>
      <trkpt lat="44.9216" lon="6.08373">
        <ele>2080.6</ele>
        <time>2024-08-14T09:19:43Z</time>
      </trkpt>
      <trkpt lat="44.9216" lon="6.08373">
        <ele>2081</ele>
        <time>2024-08-14T09:19:44Z</time>
      </trkpt>
      <trkpt lat="44.9216" lon="6.08373">
        <ele>2081</ele>
        <time>2024-08-14T09:19:45Z</time>
      </trkpt>
      <trkpt lat="44.92162" lon="6.08372">
        <ele>2081.2</ele>
        <time>2024-08-14T09:19:46Z</time>
      </trkpt>
      <trkpt lat="44.92162" lon="6.08372">
        <ele>2081.2</ele>
        <time>2024-08-14T09:19:47Z</time>
      </trkpt>
      <trkpt lat="44.92162" lon="6.08372">
        <ele>2081.4</ele>
        <time>2024-08-14T09:19:48Z</time>
      </trkpt>
      <trkpt lat="44.92165" lon="6.08372">
        <ele>2081.6</ele>
        <time>2024-08-14T09:19:49Z</time>
      </trkpt>
      <trkpt lat="44.92165" lon="6.08372">
        <ele>2081.6</ele>
        <time>2024-08-14T09:19:50Z</time>
      </trkpt>
      <trkpt lat="44.92166" lon="6.08372">
        <ele>2082.2</ele>
        <time>2024-08-14T09:19:51Z</time>
      </trkpt>
      <trkpt lat="44.92166" lon="6.08372">
        <ele>2082.2</ele>
        <time>2024-08-14T09:19:52Z</time>
      </trkpt>
      <trkpt lat="44.92168" lon="6.08373">
        <ele>2082.4</ele>
        <time>2024-08-14T09:19:53Z</time>
      </trkpt>
      <trkpt lat="44.92168" lon="6.08373">
        <ele>2082.4</ele>
        <time>2024-08-14T09:19:54Z</time>
      </trkpt>
      <trkpt lat="44.9217" lon="6.08373">
        <ele>2082.6</ele>
        <time>2024-08-14T09:19:55Z</time>
      </trkpt>
      <trkpt lat="44.9217" lon="6.08373">
        <ele>2082.8</ele>
        <time>2024-08-14T09:19:56Z</time>
      </trkpt>
      <trkpt lat="44.9217" lon="6.08373">
        <ele>2082.8</ele>
        <time>2024-08-14T09:19:57Z</time>
      </trkpt>
      <trkpt lat="44.9217" lon="6.08373">
        <ele>2083</ele>
        <time>2024-08-14T09:19:58Z</time>
      </trkpt>
      <trkpt lat="44.92173" lon="6.08373">
        <ele>2083</ele>
        <time>2024-08-14T09:19:59Z</time>
      </trkpt>
      <trkpt lat="44.92173" lon="6.08373">
        <ele>2083.6</ele>
        <time>2024-08-14T09:20:00Z</time>
      </trkpt>
      <trkpt lat="44.92173" lon="6.08373">
        <ele>2083.8</ele>
        <time>2024-08-14T09:20:01Z</time>
      </trkpt>
      <trkpt lat="44.92173" lon="6.08373">
        <ele>2084</ele>
        <time>2024-08-14T09:20:02Z</time>
      </trkpt>
      <trkpt lat="44.92176" lon="6.08372">
        <ele>2084</ele>
        <time>2024-08-14T09:20:03Z</time>
      </trkpt>
      <trkpt lat="44.92176" lon="6.08372">
        <ele>2084</ele>
        <time>2024-08-14T09:20:04Z</time>
      </trkpt>
      <trkpt lat="44.92176" lon="6.08372">
        <ele>2084</ele>
        <time>2024-08-14T09:20:05Z</time>
      </trkpt>
      <trkpt lat="44.92178" lon="6.08373">
        <ele>2084.2</ele>
        <time>2024-08-14T09:20:06Z</time>
      </trkpt>
      <trkpt lat="44.92178" lon="6.08373">
        <ele>2084.2</ele>
        <time>2024-08-14T09:20:07Z</time>
      </trkpt>
      <trkpt lat="44.9218" lon="6.08373">
        <ele>2084.2</ele>
        <time>2024-08-14T09:20:08Z</time>
      </trkpt>
      <trkpt lat="44.9218" lon="6.08373">
        <ele>2084.2</ele>
        <time>2024-08-14T09:20:09Z</time>
      </trkpt>
      <trkpt lat="44.92182" lon="6.08373">
        <ele>2084.4</ele>
        <time>2024-08-14T09:20:10Z</time>
      </trkpt>
      <trkpt lat="44.92182" lon="6.08373">
        <ele>2084.6</ele>
        <time>2024-08-14T09:20:11Z</time>
      </trkpt>
      <trkpt lat="44.92184" lon="6.08373">
        <ele>2084.6</ele>
        <time>2024-08-14T09:20:12Z</time>
      </trkpt>
      <trkpt lat="44.92184" lon="6.08373">
        <ele>2084.8</ele>
        <time>2024-08-14T09:20:13Z</time>
      </trkpt>
      <trkpt lat="44.92186" lon="6.08374">
        <ele>2085.2</ele>
        <time>2024-08-14T09:20:14Z</time>
      </trkpt>
      <trkpt lat="44.92186" lon="6.08374">
        <ele>2085.2</ele>
        <time>2024-08-14T09:20:15Z</time>
      </trkpt>
      <trkpt lat="44.92188" lon="6.08375">
        <ele>2085.4</ele>
        <time>2024-08-14T09:20:16Z</time>
      </trkpt>
      <trkpt lat="44.92188" lon="6.08375">
        <ele>2085.6</ele>
        <time>2024-08-14T09:20:17Z</time>
      </trkpt>
      <trkpt lat="44.92188" lon="6.08375">
        <ele>2086</ele>
        <time>2024-08-14T09:20:18Z</time>
      </trkpt>
      <trkpt lat="44.9219" lon="6.08376">
        <ele>2086.2</ele>
        <time>2024-08-14T09:20:19Z</time>
      </trkpt>
      <trkpt lat="44.9219" lon="6.08376">
        <ele>2086.2</ele>
        <time>2024-08-14T09:20:20Z</time>
      </trkpt>
      <trkpt lat="44.9219" lon="6.08376">
        <ele>2086.2</ele>
        <time>2024-08-14T09:20:21Z</time>
      </trkpt>
      <trkpt lat="44.9219" lon="6.08376">
        <ele>2086.8</ele>
        <time>2024-08-14T09:20:22Z</time>
      </trkpt>
      <trkpt lat="44.92193" lon="6.08377">
        <ele>2087.4</ele>
        <time>2024-08-14T09:20:23Z</time>
      </trkpt>
      <trkpt lat="44.92193" lon="6.08377">
        <ele>2087.4</ele>
        <time>2024-08-14T09:20:24Z</time>
      </trkpt>
      <trkpt lat="44.92193" lon="6.08377">
        <ele>2087.4</ele>
        <time>2024-08-14T09:20:25Z</time>
      </trkpt>
      <trkpt lat="44.92195" lon="6.08378">
        <ele>2088</ele>
        <time>2024-08-14T09:20:26Z</time>
      </trkpt>
      <trkpt lat="44.92195" lon="6.08378">
        <ele>2088.2</ele>
        <time>2024-08-14T09:20:27Z</time>
      </trkpt>
      <trkpt lat="44.92196" lon="6.0838">
        <ele>2088.4</ele>
        <time>2024-08-14T09:20:28Z</time>
      </trkpt>
      <trkpt lat="44.92196" lon="6.0838">
        <ele>2088.6</ele>
        <time>2024-08-14T09:20:29Z</time>
      </trkpt>
      <trkpt lat="44.92196" lon="6.0838">
        <ele>2088.6</ele>
        <time>2024-08-14T09:20:30Z</time>
      </trkpt>
      <trkpt lat="44.92196" lon="6.0838">
        <ele>2088.8</ele>
        <time>2024-08-14T09:20:31Z</time>
      </trkpt>
      <trkpt lat="44.92198" lon="6.08382">
        <ele>2089</ele>
        <time>2024-08-14T09:20:32Z</time>
      </trkpt>
      <trkpt lat="44.92198" lon="6.08382">
        <ele>2089.2</ele>
        <time>2024-08-14T09:20:33Z</time>
      </trkpt>
      <trkpt lat="44.92198" lon="6.08382">
        <ele>2089.2</ele>
        <time>2024-08-14T09:20:34Z</time>
      </trkpt>
      <trkpt lat="44.92198" lon="6.08382">
        <ele>2089.2</ele>
        <time>2024-08-14T09:20:35Z</time>
      </trkpt>
      <trkpt lat="44.922" lon="6.08383">
        <ele>2089.6</ele>
        <time>2024-08-14T09:20:36Z</time>
      </trkpt>
      <trkpt lat="44.922" lon="6.08383">
        <ele>2089.6</ele>
        <time>2024-08-14T09:20:37Z</time>
      </trkpt>
      <trkpt lat="44.922" lon="6.08383">
        <ele>2090.2</ele>
        <time>2024-08-14T09:20:38Z</time>
      </trkpt>
      <trkpt lat="44.92202" lon="6.08383">
        <ele>2090.2</ele>
        <time>2024-08-14T09:20:39Z</time>
      </trkpt>
      <trkpt lat="44.92202" lon="6.08383">
        <ele>2090.2</ele>
        <time>2024-08-14T09:20:40Z</time>
      </trkpt>
      <trkpt lat="44.92202" lon="6.08383">
        <ele>2090.6</ele>
        <time>2024-08-14T09:20:41Z</time>
      </trkpt>
      <trkpt lat="44.92203" lon="6.08384">
        <ele>2090.8</ele>
        <time>2024-08-14T09:20:42Z</time>
      </trkpt>
      <trkpt lat="44.92203" lon="6.08384">
        <ele>2090.8</ele>
        <time>2024-08-14T09:20:43Z</time>
      </trkpt>
      <trkpt lat="44.92203" lon="6.08384">
        <ele>2091.4</ele>
        <time>2024-08-14T09:20:44Z</time>
      </trkpt>
      <trkpt lat="44.92205" lon="6.08386">
        <ele>2091.4</ele>
        <time>2024-08-14T09:20:45Z</time>
      </trkpt>
      <trkpt lat="44.92205" lon="6.08386">
        <ele>2091.6</ele>
        <time>2024-08-14T09:20:46Z</time>
      </trkpt>
      <trkpt lat="44.92205" lon="6.08386">
        <ele>2091.6</ele>
        <time>2024-08-14T09:20:47Z</time>
      </trkpt>
      <trkpt lat="44.92205" lon="6.08386">
        <ele>2091.8</ele>
        <time>2024-08-14T09:20:48Z</time>
      </trkpt>
      <trkpt lat="44.92207" lon="6.08388">
        <ele>2091.8</ele>
        <time>2024-08-14T09:20:49Z</time>
      </trkpt>
      <trkpt lat="44.92207" lon="6.08388">
        <ele>2091.8</ele>
        <time>2024-08-14T09:20:50Z</time>
      </trkpt>
      <trkpt lat="44.92207" lon="6.08388">
        <ele>2092.4</ele>
        <time>2024-08-14T09:20:51Z</time>
      </trkpt>
      <trkpt lat="44.92207" lon="6.08388">
        <ele>2092.8</ele>
        <time>2024-08-14T09:20:52Z</time>
      </trkpt>
      <trkpt lat="44.92208" lon="6.0839">
        <ele>2092.8</ele>
        <time>2024-08-14T09:20:53Z</time>
      </trkpt>
      <trkpt lat="44.92208" lon="6.0839">
        <ele>2092.8</ele>
        <time>2024-08-14T09:20:54Z</time>
      </trkpt>
      <trkpt lat="44.92208" lon="6.0839">
        <ele>2093.2</ele>
        <time>2024-08-14T09:20:55Z</time>
      </trkpt>
      <trkpt lat="44.92208" lon="6.0839">
        <ele>2093.4</ele>
        <time>2024-08-14T09:20:56Z</time>
      </trkpt>
      <trkpt lat="44.9221" lon="6.08392">
        <ele>2093.4</ele>
        <time>2024-08-14T09:20:57Z</time>
      </trkpt>
      <trkpt lat="44.9221" lon="6.08392">
        <ele>2094</ele>
        <time>2024-08-14T09:20:58Z</time>
      </trkpt>
      <trkpt lat="44.9221" lon="6.08392">
        <ele>2094</ele>
        <time>2024-08-14T09:20:59Z</time>
      </trkpt>
      <trkpt lat="44.9221" lon="6.08392">
        <ele>2094.4</ele>
        <time>2024-08-14T09:21:00Z</time>
      </trkpt>
      <trkpt lat="44.92211" lon="6.08395">
        <ele>2094.4</ele>
        <time>2024-08-14T09:21:01Z</time>
      </trkpt>
      <trkpt lat="44.92211" lon="6.08395">
        <ele>2094.6</ele>
        <time>2024-08-14T09:21:02Z</time>
      </trkpt>
      <trkpt lat="44.92211" lon="6.08395">
        <ele>2094.6</ele>
        <time>2024-08-14T09:21:03Z</time>
      </trkpt>
      <trkpt lat="44.92211" lon="6.08395">
        <ele>2095</ele>
        <time>2024-08-14T09:21:04Z</time>
      </trkpt>
      <trkpt lat="44.92211" lon="6.08395">
        <ele>2095.2</ele>
        <time>2024-08-14T09:21:05Z</time>
      </trkpt>
      <trkpt lat="44.92211" lon="6.08395">
        <ele>2095.2</ele>
        <time>2024-08-14T09:21:06Z</time>
      </trkpt>
      <trkpt lat="44.92213" lon="6.08396">
        <ele>2095.4</ele>
        <time>2024-08-14T09:21:07Z</time>
      </trkpt>
      <trkpt lat="44.92213" lon="6.08396">
        <ele>2095.6</ele>
        <time>2024-08-14T09:21:08Z</time>
      </trkpt>
      <trkpt lat="44.92213" lon="6.08396">
        <ele>2095.6</ele>
        <time>2024-08-14T09:21:09Z</time>
      </trkpt>
      <trkpt lat="44.92213" lon="6.08396">
        <ele>2096.2</ele>
        <time>2024-08-14T09:21:10Z</time>
      </trkpt>
      <trkpt lat="44.92213" lon="6.08396">
        <ele>2096.2</ele>
        <time>2024-08-14T09:21:11Z</time>
      </trkpt>
      <trkpt lat="44.92214" lon="6.08398">
        <ele>2096.4</ele>
        <time>2024-08-14T09:21:12Z</time>
      </trkpt>
      <trkpt lat="44.92214" lon="6.08398">
        <ele>2096.6</ele>
        <time>2024-08-14T09:21:13Z</time>
      </trkpt>
      <trkpt lat="44.92214" lon="6.08398">
        <ele>2096.8</ele>
        <time>2024-08-14T09:21:14Z</time>
      </trkpt>
      <trkpt lat="44.92215" lon="6.08401">
        <ele>2097</ele>
        <time>2024-08-14T09:21:15Z</time>
      </trkpt>
      <trkpt lat="44.92215" lon="6.08401">
        <ele>2097.2</ele>
        <time>2024-08-14T09:21:16Z</time>
      </trkpt>
      <trkpt lat="44.92215" lon="6.08401">
        <ele>2097.2</ele>
        <time>2024-08-14T09:21:17Z</time>
      </trkpt>
      <trkpt lat="44.92215" lon="6.08403">
        <ele>2097.4</ele>
        <time>2024-08-14T09:21:18Z</time>
      </trkpt>
      <trkpt lat="44.92215" lon="6.08403">
        <ele>2097.8</ele>
        <time>2024-08-14T09:21:19Z</time>
      </trkpt>
      <trkpt lat="44.92215" lon="6.08403">
        <ele>2098</ele>
        <time>2024-08-14T09:21:20Z</time>
      </trkpt>
      <trkpt lat="44.92216" lon="6.08406">
        <ele>2098</ele>
        <time>2024-08-14T09:21:21Z</time>
      </trkpt>
      <trkpt lat="44.92216" lon="6.08406">
        <ele>2098.2</ele>
        <time>2024-08-14T09:21:22Z</time>
      </trkpt>
      <trkpt lat="44.92216" lon="6.08406">
        <ele>2098.2</ele>
        <time>2024-08-14T09:21:23Z</time>
      </trkpt>
      <trkpt lat="44.92216" lon="6.08406">
        <ele>2098.2</ele>
        <time>2024-08-14T09:21:24Z</time>
      </trkpt>
      <trkpt lat="44.92218" lon="6.08408">
        <ele>2098.6</ele>
        <time>2024-08-14T09:21:25Z</time>
      </trkpt>
      <trkpt lat="44.92218" lon="6.08408">
        <ele>2098.8</ele>
        <time>2024-08-14T09:21:26Z</time>
      </trkpt>
      <trkpt lat="44.92218" lon="6.08408">
        <ele>2099</ele>
        <time>2024-08-14T09:21:27Z</time>
      </trkpt>
      <trkpt lat="44.92218" lon="6.08408">
        <ele>2099.2</ele>
        <time>2024-08-14T09:21:28Z</time>
      </trkpt>
      <trkpt lat="44.92218" lon="6.08408">
        <ele>2100</ele>
        <time>2024-08-14T09:21:29Z</time>
      </trkpt>
      <trkpt lat="44.92217" lon="6.08411">
        <ele>2100</ele>
        <time>2024-08-14T09:21:30Z</time>
      </trkpt>
      <trkpt lat="44.92217" lon="6.08411">
        <ele>2100</ele>
        <time>2024-08-14T09:21:31Z</time>
      </trkpt>
      <trkpt lat="44.92217" lon="6.08411">
        <ele>2100.2</ele>
        <time>2024-08-14T09:21:32Z</time>
      </trkpt>
      <trkpt lat="44.92217" lon="6.08411">
        <ele>2100.2</ele>
        <time>2024-08-14T09:21:33Z</time>
      </trkpt>
      <trkpt lat="44.92217" lon="6.08411">
        <ele>2100.2</ele>
        <time>2024-08-14T09:21:34Z</time>
      </trkpt>
      <trkpt lat="44.92219" lon="6.08414">
        <ele>2100.6</ele>
        <time>2024-08-14T09:21:35Z</time>
      </trkpt>
      <trkpt lat="44.92219" lon="6.08414">
        <ele>2100.6</ele>
        <time>2024-08-14T09:21:36Z</time>
      </trkpt>
      <trkpt lat="44.92219" lon="6.08414">
        <ele>2101</ele>
        <time>2024-08-14T09:21:37Z</time>
      </trkpt>
      <trkpt lat="44.92219" lon="6.08414">
        <ele>2101</ele>
        <time>2024-08-14T09:21:38Z</time>
      </trkpt>
      <trkpt lat="44.9222" lon="6.08416">
        <ele>2101.2</ele>
        <time>2024-08-14T09:21:39Z</time>
      </trkpt>
      <trkpt lat="44.9222" lon="6.08416">
        <ele>2101.2</ele>
        <time>2024-08-14T09:21:40Z</time>
      </trkpt>
      <trkpt lat="44.9222" lon="6.08416">
        <ele>2101.6</ele>
        <time>2024-08-14T09:21:41Z</time>
      </trkpt>
      <trkpt lat="44.9222" lon="6.08416">
        <ele>2101.8</ele>
        <time>2024-08-14T09:21:42Z</time>
      </trkpt>
      <trkpt lat="44.9222" lon="6.08419">
        <ele>2101.8</ele>
        <time>2024-08-14T09:21:43Z</time>
      </trkpt>
      <trkpt lat="44.9222" lon="6.08419">
        <ele>2102</ele>
        <time>2024-08-14T09:21:44Z</time>
      </trkpt>
      <trkpt lat="44.9222" lon="6.08419">
        <ele>2102.2</ele>
        <time>2024-08-14T09:21:45Z</time>
      </trkpt>
      <trkpt lat="44.9222" lon="6.08419">
        <ele>2102.2</ele>
        <time>2024-08-14T09:21:46Z</time>
      </trkpt>
      <trkpt lat="44.92221" lon="6.08421">
        <ele>2102.4</ele>
        <time>2024-08-14T09:21:47Z</time>
      </trkpt>
      <trkpt lat="44.92221" lon="6.08421">
        <ele>2102.4</ele>
        <time>2024-08-14T09:21:48Z</time>
      </trkpt>
      <trkpt lat="44.92221" lon="6.08421">
        <ele>2102.6</ele>
        <time>2024-08-14T09:21:49Z</time>
      </trkpt>
      <trkpt lat="44.92221" lon="6.08421">
        <ele>2102.8</ele>
        <time>2024-08-14T09:21:50Z</time>
      </trkpt>
      <trkpt lat="44.92223" lon="6.08423">
        <ele>2102.8</ele>
        <time>2024-08-14T09:21:51Z</time>
      </trkpt>
      <trkpt lat="44.92223" lon="6.08423">
        <ele>2102.8</ele>
        <time>2024-08-14T09:21:52Z</time>
      </trkpt>
      <trkpt lat="44.92223" lon="6.08423">
        <ele>2102.8</ele>
        <time>2024-08-14T09:21:53Z</time>
      </trkpt>
      <trkpt lat="44.92225" lon="6.08424">
        <ele>2103</ele>
        <time>2024-08-14T09:21:54Z</time>
      </trkpt>
      <trkpt lat="44.92225" lon="6.08424">
        <ele>2103</ele>
        <time>2024-08-14T09:21:55Z</time>
      </trkpt>
      <trkpt lat="44.92227" lon="6.08427">
        <ele>2103.4</ele>
        <time>2024-08-14T09:21:56Z</time>
      </trkpt>
      <trkpt lat="44.92227" lon="6.08427">
        <ele>2103.6</ele>
        <time>2024-08-14T09:21:57Z</time>
      </trkpt>
      <trkpt lat="44.92227" lon="6.08427">
        <ele>2103.6</ele>
        <time>2024-08-14T09:21:58Z</time>
      </trkpt>
      <trkpt lat="44.92229" lon="6.08429">
        <ele>2104</ele>
        <time>2024-08-14T09:21:59Z</time>
      </trkpt>
      <trkpt lat="44.92229" lon="6.08429">
        <ele>2104</ele>
        <time>2024-08-14T09:22:00Z</time>
      </trkpt>
      <trkpt lat="44.92229" lon="6.08429">
        <ele>2104</ele>
        <time>2024-08-14T09:22:01Z</time>
      </trkpt>
      <trkpt lat="44.92229" lon="6.08429">
        <ele>2104.4</ele>
        <time>2024-08-14T09:22:02Z</time>
      </trkpt>
      <trkpt lat="44.92232" lon="6.0843">
        <ele>2104.4</ele>
        <time>2024-08-14T09:22:03Z</time>
      </trkpt>
      <trkpt lat="44.92232" lon="6.0843">
        <ele>2104.6</ele>
        <time>2024-08-14T09:22:04Z</time>
      </trkpt>
      <trkpt lat="44.92232" lon="6.0843">
        <ele>2105</ele>
        <time>2024-08-14T09:22:05Z</time>
      </trkpt>
      <trkpt lat="44.92234" lon="6.0843">
        <ele>2105</ele>
        <time>2024-08-14T09:22:06Z</time>
      </trkpt>
      <trkpt lat="44.92234" lon="6.0843">
        <ele>2105.2</ele>
        <time>2024-08-14T09:22:07Z</time>
      </trkpt>
      <trkpt lat="44.92234" lon="6.0843">
        <ele>2105.6</ele>
        <time>2024-08-14T09:22:08Z</time>
      </trkpt>
      <trkpt lat="44.92236" lon="6.08431">
        <ele>2105.6</ele>
        <time>2024-08-14T09:22:09Z</time>
      </trkpt>
      <trkpt lat="44.92236" lon="6.08431">
        <ele>2105.8</ele>
        <time>2024-08-14T09:22:10Z</time>
      </trkpt>
      <trkpt lat="44.92236" lon="6.08431">
        <ele>2105.8</ele>
        <time>2024-08-14T09:22:11Z</time>
      </trkpt>
      <trkpt lat="44.92238" lon="6.08432">
        <ele>2106.2</ele>
        <time>2024-08-14T09:22:12Z</time>
      </trkpt>
      <trkpt lat="44.92238" lon="6.08432">
        <ele>2106.2</ele>
        <time>2024-08-14T09:22:13Z</time>
      </trkpt>
      <trkpt lat="44.92238" lon="6.08432">
        <ele>2106.4</ele>
        <time>2024-08-14T09:22:14Z</time>
      </trkpt>
      <trkpt lat="44.9224" lon="6.08434">
        <ele>2106.6</ele>
        <time>2024-08-14T09:22:15Z</time>
      </trkpt>
      <trkpt lat="44.9224" lon="6.08434">
        <ele>2106.8</ele>
        <time>2024-08-14T09:22:16Z</time>
      </trkpt>
      <trkpt lat="44.9224" lon="6.08434">
        <ele>2107.2</ele>
        <time>2024-08-14T09:22:17Z</time>
      </trkpt>
      <trkpt lat="44.92242" lon="6.08434">
        <ele>2107.4</ele>
        <time>2024-08-14T09:22:18Z</time>
      </trkpt>
      <trkpt lat="44.92242" lon="6.08434">
        <ele>2107.6</ele>
        <time>2024-08-14T09:22:19Z</time>
      </trkpt>
      <trkpt lat="44.92242" lon="6.08434">
        <ele>2108.2</ele>
        <time>2024-08-14T09:22:20Z</time>
      </trkpt>
      <trkpt lat="44.92245" lon="6.08434">
        <ele>2108.2</ele>
        <time>2024-08-14T09:22:21Z</time>
      </trkpt>
      <trkpt lat="44.92245" lon="6.08434">
        <ele>2108.2</ele>
        <time>2024-08-14T09:22:22Z</time>
      </trkpt>
      <trkpt lat="44.92245" lon="6.08434">
        <ele>2108.4</ele>
        <time>2024-08-14T09:22:23Z</time>
      </trkpt>
      <trkpt lat="44.92246" lon="6.08433">
        <ele>2108.6</ele>
        <time>2024-08-14T09:22:24Z</time>
      </trkpt>
      <trkpt lat="44.92246" lon="6.08433">
        <ele>2108.6</ele>
        <time>2024-08-14T09:22:25Z</time>
      </trkpt>
      <trkpt lat="44.92246" lon="6.08433">
        <ele>2109.2</ele>
        <time>2024-08-14T09:22:26Z</time>
      </trkpt>
      <trkpt lat="44.92246" lon="6.08433">
        <ele>2109.4</ele>
        <time>2024-08-14T09:22:27Z</time>
      </trkpt>
      <trkpt lat="44.92249" lon="6.08435">
        <ele>2109.4</ele>
        <time>2024-08-14T09:22:28Z</time>
      </trkpt>
      <trkpt lat="44.92249" lon="6.08435">
        <ele>2109.8</ele>
        <time>2024-08-14T09:22:29Z</time>
      </trkpt>
      <trkpt lat="44.92249" lon="6.08435">
        <ele>2109.8</ele>
        <time>2024-08-14T09:22:30Z</time>
      </trkpt>
      <trkpt lat="44.92249" lon="6.08435">
        <ele>2109.8</ele>
        <time>2024-08-14T09:22:31Z</time>
      </trkpt>
      <trkpt lat="44.92251" lon="6.08435">
        <ele>2110</ele>
        <time>2024-08-14T09:22:32Z</time>
      </trkpt>
      <trkpt lat="44.92251" lon="6.08435">
        <ele>2110.4</ele>
        <time>2024-08-14T09:22:33Z</time>
      </trkpt>
      <trkpt lat="44.92251" lon="6.08435">
        <ele>2110.4</ele>
        <time>2024-08-14T09:22:34Z</time>
      </trkpt>
      <trkpt lat="44.92253" lon="6.08435">
        <ele>2110.8</ele>
        <time>2024-08-14T09:22:35Z</time>
      </trkpt>
      <trkpt lat="44.92253" lon="6.08435">
        <ele>2110.8</ele>
        <time>2024-08-14T09:22:36Z</time>
      </trkpt>
      <trkpt lat="44.92253" lon="6.08435">
        <ele>2110.8</ele>
        <time>2024-08-14T09:22:37Z</time>
      </trkpt>
      <trkpt lat="44.92253" lon="6.08435">
        <ele>2111.2</ele>
        <time>2024-08-14T09:22:38Z</time>
      </trkpt>
      <trkpt lat="44.92254" lon="6.08437">
        <ele>2111.2</ele>
        <time>2024-08-14T09:22:39Z</time>
      </trkpt>
      <trkpt lat="44.92254" lon="6.08437">
        <ele>2111.4</ele>
        <time>2024-08-14T09:22:40Z</time>
      </trkpt>
      <trkpt lat="44.92254" lon="6.08437">
        <ele>2111.4</ele>
        <time>2024-08-14T09:22:41Z</time>
      </trkpt>
      <trkpt lat="44.92255" lon="6.08439">
        <ele>2111.8</ele>
        <time>2024-08-14T09:22:42Z</time>
      </trkpt>
      <trkpt lat="44.92255" lon="6.08439">
        <ele>2112</ele>
        <time>2024-08-14T09:22:43Z</time>
      </trkpt>
      <trkpt lat="44.92255" lon="6.08439">
        <ele>2112</ele>
        <time>2024-08-14T09:22:44Z</time>
      </trkpt>
      <trkpt lat="44.92257" lon="6.0844">
        <ele>2112.2</ele>
        <time>2024-08-14T09:22:45Z</time>
      </trkpt>
      <trkpt lat="44.92257" lon="6.0844">
        <ele>2112.6</ele>
        <time>2024-08-14T09:22:46Z</time>
      </trkpt>
      <trkpt lat="44.92257" lon="6.0844">
        <ele>2112.6</ele>
        <time>2024-08-14T09:22:47Z</time>
      </trkpt>
      <trkpt lat="44.92259" lon="6.08441">
        <ele>2112.8</ele>
        <time>2024-08-14T09:22:48Z</time>
      </trkpt>
      <trkpt lat="44.92259" lon="6.08441">
        <ele>2112.6</ele>
        <time>2024-08-14T09:22:49Z</time>
      </trkpt>
      <trkpt lat="44.92259" lon="6.08441">
        <ele>2112.8</ele>
        <time>2024-08-14T09:22:50Z</time>
      </trkpt>
      <trkpt lat="44.92261" lon="6.08442">
        <ele>2112.8</ele>
        <time>2024-08-14T09:22:51Z</time>
      </trkpt>
      <trkpt lat="44.92261" lon="6.08442">
        <ele>2112.8</ele>
        <time>2024-08-14T09:22:52Z</time>
      </trkpt>
      <trkpt lat="44.92261" lon="6.08442">
        <ele>2113.4</ele>
        <time>2024-08-14T09:22:53Z</time>
      </trkpt>
      <trkpt lat="44.92263" lon="6.08442">
        <ele>2113.6</ele>
        <time>2024-08-14T09:22:54Z</time>
      </trkpt>
      <trkpt lat="44.92263" lon="6.08442">
        <ele>2113.6</ele>
        <time>2024-08-14T09:22:55Z</time>
      </trkpt>
      <trkpt lat="44.92265" lon="6.08443">
        <ele>2113.6</ele>
        <time>2024-08-14T09:22:56Z</time>
      </trkpt>
      <trkpt lat="44.92265" lon="6.08443">
        <ele>2113.6</ele>
        <time>2024-08-14T09:22:57Z</time>
      </trkpt>
      <trkpt lat="44.92267" lon="6.08445">
        <ele>2114</ele>
        <time>2024-08-14T09:22:58Z</time>
      </trkpt>
      <trkpt lat="44.92267" lon="6.08445">
        <ele>2114.2</ele>
        <time>2024-08-14T09:22:59Z</time>
      </trkpt>
      <trkpt lat="44.92267" lon="6.08445">
        <ele>2114.6</ele>
        <time>2024-08-14T09:23:00Z</time>
      </trkpt>
      <trkpt lat="44.92269" lon="6.08446">
        <ele>2114.8</ele>
        <time>2024-08-14T09:23:01Z</time>
      </trkpt>
      <trkpt lat="44.92269" lon="6.08446">
        <ele>2115.2</ele>
        <time>2024-08-14T09:23:02Z</time>
      </trkpt>
      <trkpt lat="44.92269" lon="6.08446">
        <ele>2115.2</ele>
        <time>2024-08-14T09:23:03Z</time>
      </trkpt>
      <trkpt lat="44.92271" lon="6.08447">
        <ele>2115.4</ele>
        <time>2024-08-14T09:23:04Z</time>
      </trkpt>
      <trkpt lat="44.92271" lon="6.08447">
        <ele>2115.6</ele>
        <time>2024-08-14T09:23:05Z</time>
      </trkpt>
      <trkpt lat="44.92271" lon="6.08447">
        <ele>2115.8</ele>
        <time>2024-08-14T09:23:06Z</time>
      </trkpt>
      <trkpt lat="44.92271" lon="6.08447">
        <ele>2116</ele>
        <time>2024-08-14T09:23:07Z</time>
      </trkpt>
      <trkpt lat="44.92273" lon="6.08448">
        <ele>2116.2</ele>
        <time>2024-08-14T09:23:08Z</time>
      </trkpt>
      <trkpt lat="44.92273" lon="6.08448">
        <ele>2116.2</ele>
        <time>2024-08-14T09:23:09Z</time>
      </trkpt>
      <trkpt lat="44.92273" lon="6.08448">
        <ele>2116.4</ele>
        <time>2024-08-14T09:23:10Z</time>
      </trkpt>
      <trkpt lat="44.92273" lon="6.08448">
        <ele>2116.4</ele>
        <time>2024-08-14T09:23:11Z</time>
      </trkpt>
      <trkpt lat="44.92275" lon="6.0845">
        <ele>2116.8</ele>
        <time>2024-08-14T09:23:12Z</time>
      </trkpt>
      <trkpt lat="44.92275" lon="6.0845">
        <ele>2116.8</ele>
        <time>2024-08-14T09:23:13Z</time>
      </trkpt>
      <trkpt lat="44.92275" lon="6.0845">
        <ele>2117.4</ele>
        <time>2024-08-14T09:23:14Z</time>
      </trkpt>
      <trkpt lat="44.92275" lon="6.0845">
        <ele>2117.8</ele>
        <time>2024-08-14T09:23:15Z</time>
      </trkpt>
      <trkpt lat="44.92275" lon="6.0845">
        <ele>2117.8</ele>
        <time>2024-08-14T09:23:16Z</time>
      </trkpt>
      <trkpt lat="44.92275" lon="6.0845">
        <ele>2117.8</ele>
        <time>2024-08-14T09:23:17Z</time>
      </trkpt>
      <trkpt lat="44.92277" lon="6.08452">
        <ele>2118.2</ele>
        <time>2024-08-14T09:23:18Z</time>
      </trkpt>
      <trkpt lat="44.92277" lon="6.08452">
        <ele>2118.4</ele>
        <time>2024-08-14T09:23:19Z</time>
      </trkpt>
      <trkpt lat="44.92277" lon="6.08452">
        <ele>2118.4</ele>
        <time>2024-08-14T09:23:20Z</time>
      </trkpt>
      <trkpt lat="44.92277" lon="6.08452">
        <ele>2118.4</ele>
        <time>2024-08-14T09:23:21Z</time>
      </trkpt>
      <trkpt lat="44.92279" lon="6.08454">
        <ele>2118.8</ele>
        <time>2024-08-14T09:23:22Z</time>
      </trkpt>
      <trkpt lat="44.92279" lon="6.08454">
        <ele>2118.8</ele>
        <time>2024-08-14T09:23:23Z</time>
      </trkpt>
      <trkpt lat="44.92279" lon="6.08454">
        <ele>2118.8</ele>
        <time>2024-08-14T09:23:24Z</time>
      </trkpt>
      <trkpt lat="44.92281" lon="6.08455">
        <ele>2119.2</ele>
        <time>2024-08-14T09:23:25Z</time>
      </trkpt>
      <trkpt lat="44.92281" lon="6.08455">
        <ele>2119.8</ele>
        <time>2024-08-14T09:23:26Z</time>
      </trkpt>
      <trkpt lat="44.92281" lon="6.08455">
        <ele>2119.8</ele>
        <time>2024-08-14T09:23:27Z</time>
      </trkpt>
      <trkpt lat="44.92281" lon="6.08455">
        <ele>2120</ele>
        <time>2024-08-14T09:23:28Z</time>
      </trkpt>
      <trkpt lat="44.92283" lon="6.08456">
        <ele>2120.4</ele>
        <time>2024-08-14T09:23:29Z</time>
      </trkpt>
      <trkpt lat="44.92283" lon="6.08456">
        <ele>2120.6</ele>
        <time>2024-08-14T09:23:30Z</time>
      </trkpt>
      <trkpt lat="44.92285" lon="6.08457">
        <ele>2120.6</ele>
        <time>2024-08-14T09:23:31Z</time>
      </trkpt>
      <trkpt lat="44.92285" lon="6.08457">
        <ele>2121</ele>
        <time>2024-08-14T09:23:32Z</time>
      </trkpt>
      <trkpt lat="44.92287" lon="6.08458">
        <ele>2121</ele>
        <time>2024-08-14T09:23:33Z</time>
      </trkpt>
      <trkpt lat="44.92287" lon="6.08458">
        <ele>2121</ele>
        <time>2024-08-14T09:23:34Z</time>
      </trkpt>
      <trkpt lat="44.92289" lon="6.08459">
        <ele>2120.8</ele>
        <time>2024-08-14T09:23:35Z</time>
      </trkpt>
      <trkpt lat="44.92289" lon="6.08459">
        <ele>2120.8</ele>
        <time>2024-08-14T09:23:36Z</time>
      </trkpt>
      <trkpt lat="44.92291" lon="6.08459">
        <ele>2120.8</ele>
        <time>2024-08-14T09:23:37Z</time>
      </trkpt>
      <trkpt lat="44.92291" lon="6.08459">
        <ele>2120.8</ele>
        <time>2024-08-14T09:23:38Z</time>
      </trkpt>
      <trkpt lat="44.92293" lon="6.08459">
        <ele>2121.2</ele>
        <time>2024-08-14T09:23:39Z</time>
      </trkpt>
      <trkpt lat="44.92293" lon="6.08459">
        <ele>2121.2</ele>
        <time>2024-08-14T09:23:40Z</time>
      </trkpt>
      <trkpt lat="44.92293" lon="6.08459">
        <ele>2121.4</ele>
        <time>2024-08-14T09:23:41Z</time>
      </trkpt>
      <trkpt lat="44.92295" lon="6.08459">
        <ele>2122</ele>
        <time>2024-08-14T09:23:42Z</time>
      </trkpt>
      <trkpt lat="44.92295" lon="6.08459">
        <ele>2122</ele>
        <time>2024-08-14T09:23:43Z</time>
      </trkpt>
      <trkpt lat="44.92295" lon="6.08459">
        <ele>2122.4</ele>
        <time>2024-08-14T09:23:44Z</time>
      </trkpt>
      <trkpt lat="44.92298" lon="6.0846">
        <ele>2122.6</ele>
        <time>2024-08-14T09:23:45Z</time>
      </trkpt>
      <trkpt lat="44.92298" lon="6.0846">
        <ele>2122.8</ele>
        <time>2024-08-14T09:23:46Z</time>
      </trkpt>
      <trkpt lat="44.92298" lon="6.0846">
        <ele>2123</ele>
        <time>2024-08-14T09:23:47Z</time>
      </trkpt>
      <trkpt lat="44.923" lon="6.08461">
        <ele>2123.4</ele>
        <time>2024-08-14T09:23:48Z</time>
      </trkpt>
      <trkpt lat="44.923" lon="6.08461">
        <ele>2123.6</ele>
        <time>2024-08-14T09:23:49Z</time>
      </trkpt>
      <trkpt lat="44.923" lon="6.08461">
        <ele>2123.6</ele>
        <time>2024-08-14T09:23:50Z</time>
      </trkpt>
      <trkpt lat="44.92302" lon="6.08462">
        <ele>2123.6</ele>
        <time>2024-08-14T09:23:51Z</time>
      </trkpt>
      <trkpt lat="44.92302" lon="6.08462">
        <ele>2123.8</ele>
        <time>2024-08-14T09:23:52Z</time>
      </trkpt>
      <trkpt lat="44.92304" lon="6.08463">
        <ele>2123.8</ele>
        <time>2024-08-14T09:23:53Z</time>
      </trkpt>
      <trkpt lat="44.92304" lon="6.08463">
        <ele>2123.8</ele>
        <time>2024-08-14T09:23:54Z</time>
      </trkpt>
      <trkpt lat="44.92307" lon="6.08463">
        <ele>2124.2</ele>
        <time>2024-08-14T09:23:55Z</time>
      </trkpt>
      <trkpt lat="44.92307" lon="6.08463">
        <ele>2124.6</ele>
        <time>2024-08-14T09:23:56Z</time>
      </trkpt>
      <trkpt lat="44.92307" lon="6.08463">
        <ele>2124.6</ele>
        <time>2024-08-14T09:23:57Z</time>
      </trkpt>
      <trkpt lat="44.92309" lon="6.08465">
        <ele>2125</ele>
        <time>2024-08-14T09:23:58Z</time>
      </trkpt>
      <trkpt lat="44.92309" lon="6.08465">
        <ele>2125</ele>
        <time>2024-08-14T09:23:59Z</time>
      </trkpt>
      <trkpt lat="44.92311" lon="6.08467">
        <ele>2125</ele>
        <time>2024-08-14T09:24:00Z</time>
      </trkpt>
      <trkpt lat="44.92311" lon="6.08467">
        <ele>2125</ele>
        <time>2024-08-14T09:24:01Z</time>
      </trkpt>
      <trkpt lat="44.92312" lon="6.08469">
        <ele>2125.4</ele>
        <time>2024-08-14T09:24:02Z</time>
      </trkpt>
      <trkpt lat="44.92312" lon="6.08469">
        <ele>2125.4</ele>
        <time>2024-08-14T09:24:03Z</time>
      </trkpt>
      <trkpt lat="44.92313" lon="6.08471">
        <ele>2125.6</ele>
        <time>2024-08-14T09:24:04Z</time>
      </trkpt>
      <trkpt lat="44.92313" lon="6.08471">
        <ele>2125.8</ele>
        <time>2024-08-14T09:24:05Z</time>
      </trkpt>
      <trkpt lat="44.92315" lon="6.08473">
        <ele>2126</ele>
        <time>2024-08-14T09:24:06Z</time>
      </trkpt>
      <trkpt lat="44.92315" lon="6.08473">
        <ele>2126</ele>
        <time>2024-08-14T09:24:07Z</time>
      </trkpt>
      <trkpt lat="44.92317" lon="6.08474">
        <ele>2126.2</ele>
        <time>2024-08-14T09:24:08Z</time>
      </trkpt>
      <trkpt lat="44.92317" lon="6.08474">
        <ele>2126.2</ele>
        <time>2024-08-14T09:24:09Z</time>
      </trkpt>
      <trkpt lat="44.92317" lon="6.08474">
        <ele>2126.2</ele>
        <time>2024-08-14T09:24:10Z</time>
      </trkpt>
      <trkpt lat="44.92318" lon="6.08473">
        <ele>2126.6</ele>
        <time>2024-08-14T09:24:11Z</time>
      </trkpt>
      <trkpt lat="44.92318" lon="6.08473">
        <ele>2126.8</ele>
        <time>2024-08-14T09:24:12Z</time>
      </trkpt>
      <trkpt lat="44.92318" lon="6.08473">
        <ele>2126.8</ele>
        <time>2024-08-14T09:24:13Z</time>
      </trkpt>
      <trkpt lat="44.92318" lon="6.08473">
        <ele>2127.6</ele>
        <time>2024-08-14T09:24:14Z</time>
      </trkpt>
      <trkpt lat="44.9232" lon="6.08471">
        <ele>2127.6</ele>
        <time>2024-08-14T09:24:15Z</time>
      </trkpt>
      <trkpt lat="44.9232" lon="6.08471">
        <ele>2127.8</ele>
        <time>2024-08-14T09:24:16Z</time>
      </trkpt>
      <trkpt lat="44.9232" lon="6.08471">
        <ele>2128</ele>
        <time>2024-08-14T09:24:17Z</time>
      </trkpt>
      <trkpt lat="44.92322" lon="6.0847">
        <ele>2128</ele>
        <time>2024-08-14T09:24:18Z</time>
      </trkpt>
      <trkpt lat="44.92322" lon="6.0847">
        <ele>2128.2</ele>
        <time>2024-08-14T09:24:19Z</time>
      </trkpt>
      <trkpt lat="44.92322" lon="6.0847">
        <ele>2128.4</ele>
        <time>2024-08-14T09:24:20Z</time>
      </trkpt>
      <trkpt lat="44.92322" lon="6.0847">
        <ele>2128.4</ele>
        <time>2024-08-14T09:24:21Z</time>
      </trkpt>
      <trkpt lat="44.92324" lon="6.08469">
        <ele>2128.6</ele>
        <time>2024-08-14T09:24:22Z</time>
      </trkpt>
      <trkpt lat="44.92324" lon="6.08469">
        <ele>2128.8</ele>
        <time>2024-08-14T09:24:23Z</time>
      </trkpt>
      <trkpt lat="44.92324" lon="6.08469">
        <ele>2129</ele>
        <time>2024-08-14T09:24:24Z</time>
      </trkpt>
      <trkpt lat="44.92326" lon="6.08468">
        <ele>2129.6</ele>
        <time>2024-08-14T09:24:25Z</time>
      </trkpt>
      <trkpt lat="44.92326" lon="6.08468">
        <ele>2129.6</ele>
        <time>2024-08-14T09:24:26Z</time>
      </trkpt>
      <trkpt lat="44.92326" lon="6.08468">
        <ele>2129.6</ele>
        <time>2024-08-14T09:24:27Z</time>
      </trkpt>
      <trkpt lat="44.92329" lon="6.08469">
        <ele>2130.2</ele>
        <time>2024-08-14T09:24:28Z</time>
      </trkpt>
      <trkpt lat="44.92329" lon="6.08469">
        <ele>2130.2</ele>
        <time>2024-08-14T09:24:29Z</time>
      </trkpt>
      <trkpt lat="44.92331" lon="6.0847">
        <ele>2130.2</ele>
        <time>2024-08-14T09:24:30Z</time>
      </trkpt>
      <trkpt lat="44.92331" lon="6.0847">
        <ele>2130.4</ele>
        <time>2024-08-14T09:24:31Z</time>
      </trkpt>
      <trkpt lat="44.92333" lon="6.0847">
        <ele>2130.4</ele>
        <time>2024-08-14T09:24:32Z</time>
      </trkpt>
      <trkpt lat="44.92333" lon="6.0847">
        <ele>2130.4</ele>
        <time>2024-08-14T09:24:33Z</time>
      </trkpt>
      <trkpt lat="44.92335" lon="6.0847">
        <ele>2130.4</ele>
        <time>2024-08-14T09:24:34Z</time>
      </trkpt>
      <trkpt lat="44.92335" lon="6.0847">
        <ele>2130.6</ele>
        <time>2024-08-14T09:24:35Z</time>
      </trkpt>
      <trkpt lat="44.92337" lon="6.08471">
        <ele>2130.6</ele>
        <time>2024-08-14T09:24:36Z</time>
      </trkpt>
      <trkpt lat="44.92337" lon="6.08471">
        <ele>2130.8</ele>
        <time>2024-08-14T09:24:37Z</time>
      </trkpt>
      <trkpt lat="44.92338" lon="6.08472">
        <ele>2130.8</ele>
        <time>2024-08-14T09:24:38Z</time>
      </trkpt>
      <trkpt lat="44.92338" lon="6.08472">
        <ele>2130.8</ele>
        <time>2024-08-14T09:24:39Z</time>
      </trkpt>
      <trkpt lat="44.9234" lon="6.08473">
        <ele>2130.8</ele>
        <time>2024-08-14T09:24:40Z</time>
      </trkpt>
      <trkpt lat="44.9234" lon="6.08473">
        <ele>2131</ele>
        <time>2024-08-14T09:24:41Z</time>
      </trkpt>
      <trkpt lat="44.92342" lon="6.08474">
        <ele>2131.8</ele>
        <time>2024-08-14T09:24:42Z</time>
      </trkpt>
      <trkpt lat="44.92342" lon="6.08474">
        <ele>2131.8</ele>
        <time>2024-08-14T09:24:43Z</time>
      </trkpt>
      <trkpt lat="44.92344" lon="6.08475">
        <ele>2131.8</ele>
        <time>2024-08-14T09:24:44Z</time>
      </trkpt>
      <trkpt lat="44.92344" lon="6.08475">
        <ele>2131.8</ele>
        <time>2024-08-14T09:24:45Z</time>
      </trkpt>
      <trkpt lat="44.92344" lon="6.08475">
        <ele>2132</ele>
        <time>2024-08-14T09:24:46Z</time>
      </trkpt>
      <trkpt lat="44.92346" lon="6.08475">
        <ele>2132.2</ele>
        <time>2024-08-14T09:24:47Z</time>
      </trkpt>
      <trkpt lat="44.92346" lon="6.08475">
        <ele>2132.4</ele>
        <time>2024-08-14T09:24:48Z</time>
      </trkpt>
      <trkpt lat="44.92348" lon="6.08476">
        <ele>2132.6</ele>
        <time>2024-08-14T09:24:49Z</time>
      </trkpt>
      <trkpt lat="44.92348" lon="6.08476">
        <ele>2132.6</ele>
        <time>2024-08-14T09:24:50Z</time>
      </trkpt>
      <trkpt lat="44.92348" lon="6.08476">
        <ele>2132.8</ele>
        <time>2024-08-14T09:24:51Z</time>
      </trkpt>
      <trkpt lat="44.9235" lon="6.08478">
        <ele>2133</ele>
        <time>2024-08-14T09:24:52Z</time>
      </trkpt>
      <trkpt lat="44.9235" lon="6.08478">
        <ele>2133.4</ele>
        <time>2024-08-14T09:24:53Z</time>
      </trkpt>
      <trkpt lat="44.92352" lon="6.08479">
        <ele>2133.6</ele>
        <time>2024-08-14T09:24:54Z</time>
      </trkpt>
      <trkpt lat="44.92352" lon="6.08479">
        <ele>2134.2</ele>
        <time>2024-08-14T09:24:55Z</time>
      </trkpt>
      <trkpt lat="44.92353" lon="6.08481">
        <ele>2134.4</ele>
        <time>2024-08-14T09:24:56Z</time>
      </trkpt>
      <trkpt lat="44.92353" lon="6.08481">
        <ele>2134.4</ele>
        <time>2024-08-14T09:24:57Z</time>
      </trkpt>
      <trkpt lat="44.92353" lon="6.08481">
        <ele>2134.6</ele>
        <time>2024-08-14T09:24:58Z</time>
      </trkpt>
      <trkpt lat="44.92355" lon="6.08482">
        <ele>2135</ele>
        <time>2024-08-14T09:24:59Z</time>
      </trkpt>
      <trkpt lat="44.92355" lon="6.08482">
        <ele>2135.2</ele>
        <time>2024-08-14T09:25:00Z</time>
      </trkpt>
      <trkpt lat="44.92357" lon="6.08483">
        <ele>2135.6</ele>
        <time>2024-08-14T09:25:01Z</time>
      </trkpt>
      <trkpt lat="44.92357" lon="6.08483">
        <ele>2136</ele>
        <time>2024-08-14T09:25:02Z</time>
      </trkpt>
      <trkpt lat="44.92357" lon="6.08483">
        <ele>2136</ele>
        <time>2024-08-14T09:25:03Z</time>
      </trkpt>
      <trkpt lat="44.92359" lon="6.08486">
        <ele>2136.2</ele>
        <time>2024-08-14T09:25:04Z</time>
      </trkpt>
      <trkpt lat="44.92359" lon="6.08486">
        <ele>2136.2</ele>
        <time>2024-08-14T09:25:05Z</time>
      </trkpt>
      <trkpt lat="44.92359" lon="6.08486">
        <ele>2136.2</ele>
        <time>2024-08-14T09:25:06Z</time>
      </trkpt>
      <trkpt lat="44.92361" lon="6.08487">
        <ele>2136.4</ele>
        <time>2024-08-14T09:25:07Z</time>
      </trkpt>
      <trkpt lat="44.92361" lon="6.08487">
        <ele>2136.8</ele>
        <time>2024-08-14T09:25:08Z</time>
      </trkpt>
      <trkpt lat="44.92361" lon="6.08487">
        <ele>2137</ele>
        <time>2024-08-14T09:25:09Z</time>
      </trkpt>
      <trkpt lat="44.92362" lon="6.08488">
        <ele>2137.4</ele>
        <time>2024-08-14T09:25:10Z</time>
      </trkpt>
      <trkpt lat="44.92362" lon="6.08488">
        <ele>2137.6</ele>
        <time>2024-08-14T09:25:11Z</time>
      </trkpt>
      <trkpt lat="44.92362" lon="6.08488">
        <ele>2137.6</ele>
        <time>2024-08-14T09:25:12Z</time>
      </trkpt>
      <trkpt lat="44.92364" lon="6.08489">
        <ele>2137.8</ele>
        <time>2024-08-14T09:25:13Z</time>
      </trkpt>
      <trkpt lat="44.92364" lon="6.08489">
        <ele>2138</ele>
        <time>2024-08-14T09:25:14Z</time>
      </trkpt>
      <trkpt lat="44.92364" lon="6.08489">
        <ele>2138</ele>
        <time>2024-08-14T09:25:15Z</time>
      </trkpt>
      <trkpt lat="44.92366" lon="6.0849">
        <ele>2138.2</ele>
        <time>2024-08-14T09:25:16Z</time>
      </trkpt>
      <trkpt lat="44.92366" lon="6.0849">
        <ele>2138.2</ele>
        <time>2024-08-14T09:25:17Z</time>
      </trkpt>
      <trkpt lat="44.92368" lon="6.0849">
        <ele>2138.4</ele>
        <time>2024-08-14T09:25:18Z</time>
      </trkpt>
      <trkpt lat="44.92368" lon="6.0849">
        <ele>2138.4</ele>
        <time>2024-08-14T09:25:19Z</time>
      </trkpt>
      <trkpt lat="44.92368" lon="6.0849">
        <ele>2138.8</ele>
        <time>2024-08-14T09:25:20Z</time>
      </trkpt>
      <trkpt lat="44.92371" lon="6.08489">
        <ele>2139.4</ele>
        <time>2024-08-14T09:25:21Z</time>
      </trkpt>
      <trkpt lat="44.92371" lon="6.08489">
        <ele>2139.4</ele>
        <time>2024-08-14T09:25:22Z</time>
      </trkpt>
      <trkpt lat="44.92371" lon="6.08489">
        <ele>2139.4</ele>
        <time>2024-08-14T09:25:23Z</time>
      </trkpt>
      <trkpt lat="44.92373" lon="6.08488">
        <ele>2139.8</ele>
        <time>2024-08-14T09:25:24Z</time>
      </trkpt>
      <trkpt lat="44.92373" lon="6.08488">
        <ele>2139.8</ele>
        <time>2024-08-14T09:25:25Z</time>
      </trkpt>
      <trkpt lat="44.92375" lon="6.08488">
        <ele>2140</ele>
        <time>2024-08-14T09:25:26Z</time>
      </trkpt>
      <trkpt lat="44.92375" lon="6.08488">
        <ele>2140</ele>
        <time>2024-08-14T09:25:27Z</time>
      </trkpt>
      <trkpt lat="44.92377" lon="6.08488">
        <ele>2140.2</ele>
        <time>2024-08-14T09:25:28Z</time>
      </trkpt>
      <trkpt lat="44.92377" lon="6.08488">
        <ele>2140.4</ele>
        <time>2024-08-14T09:25:29Z</time>
      </trkpt>
      <trkpt lat="44.92379" lon="6.08487">
        <ele>2140.4</ele>
        <time>2024-08-14T09:25:30Z</time>
      </trkpt>
      <trkpt lat="44.92379" lon="6.08487">
        <ele>2140.6</ele>
        <time>2024-08-14T09:25:31Z</time>
      </trkpt>
      <trkpt lat="44.92381" lon="6.08487">
        <ele>2140.8</ele>
        <time>2024-08-14T09:25:32Z</time>
      </trkpt>
      <trkpt lat="44.92381" lon="6.08487">
        <ele>2141</ele>
        <time>2024-08-14T09:25:33Z</time>
      </trkpt>
      <trkpt lat="44.92383" lon="6.08488">
        <ele>2141.2</ele>
        <time>2024-08-14T09:25:34Z</time>
      </trkpt>
      <trkpt lat="44.92383" lon="6.08488">
        <ele>2141.2</ele>
        <time>2024-08-14T09:25:35Z</time>
      </trkpt>
      <trkpt lat="44.92385" lon="6.08488">
        <ele>2141</ele>
        <time>2024-08-14T09:25:36Z</time>
      </trkpt>
      <trkpt lat="44.92385" lon="6.08488">
        <ele>2141</ele>
        <time>2024-08-14T09:25:37Z</time>
      </trkpt>
      <trkpt lat="44.92387" lon="6.08488">
        <ele>2141</ele>
        <time>2024-08-14T09:25:38Z</time>
      </trkpt>
      <trkpt lat="44.92387" lon="6.08488">
        <ele>2141.2</ele>
        <time>2024-08-14T09:25:39Z</time>
      </trkpt>
      <trkpt lat="44.92389" lon="6.08488">
        <ele>2141.6</ele>
        <time>2024-08-14T09:25:40Z</time>
      </trkpt>
      <trkpt lat="44.92389" lon="6.08488">
        <ele>2141.6</ele>
        <time>2024-08-14T09:25:41Z</time>
      </trkpt>
      <trkpt lat="44.92392" lon="6.08488">
        <ele>2141.6</ele>
        <time>2024-08-14T09:25:42Z</time>
      </trkpt>
      <trkpt lat="44.92392" lon="6.08488">
        <ele>2141.6</ele>
        <time>2024-08-14T09:25:43Z</time>
      </trkpt>
      <trkpt lat="44.92394" lon="6.08488">
        <ele>2142</ele>
        <time>2024-08-14T09:25:44Z</time>
      </trkpt>
      <trkpt lat="44.92394" lon="6.08488">
        <ele>2142.4</ele>
        <time>2024-08-14T09:25:45Z</time>
      </trkpt>
      <trkpt lat="44.92396" lon="6.08487">
        <ele>2142.4</ele>
        <time>2024-08-14T09:25:46Z</time>
      </trkpt>
      <trkpt lat="44.92396" lon="6.08487">
        <ele>2142.4</ele>
        <time>2024-08-14T09:25:47Z</time>
      </trkpt>
      <trkpt lat="44.92398" lon="6.08486">
        <ele>2142.6</ele>
        <time>2024-08-14T09:25:48Z</time>
      </trkpt>
      <trkpt lat="44.92398" lon="6.08486">
        <ele>2142.8</ele>
        <time>2024-08-14T09:25:49Z</time>
      </trkpt>
      <trkpt lat="44.924" lon="6.08487">
        <ele>2143</ele>
        <time>2024-08-14T09:25:50Z</time>
      </trkpt>
      <trkpt lat="44.924" lon="6.08487">
        <ele>2143.2</ele>
        <time>2024-08-14T09:25:51Z</time>
      </trkpt>
      <trkpt lat="44.924" lon="6.08487">
        <ele>2143.6</ele>
        <time>2024-08-14T09:25:52Z</time>
      </trkpt>
      <trkpt lat="44.92403" lon="6.08487">
        <ele>2143.6</ele>
        <time>2024-08-14T09:25:53Z</time>
      </trkpt>
      <trkpt lat="44.92403" lon="6.08487">
        <ele>2143.6</ele>
        <time>2024-08-14T09:25:54Z</time>
      </trkpt>
      <trkpt lat="44.92405" lon="6.08487">
        <ele>2144</ele>
        <time>2024-08-14T09:25:55Z</time>
      </trkpt>
      <trkpt lat="44.92405" lon="6.08487">
        <ele>2144</ele>
        <time>2024-08-14T09:25:56Z</time>
      </trkpt>
      <trkpt lat="44.92405" lon="6.08487">
        <ele>2144</ele>
        <time>2024-08-14T09:25:57Z</time>
      </trkpt>
      <trkpt lat="44.92408" lon="6.08488">
        <ele>2144</ele>
        <time>2024-08-14T09:25:58Z</time>
      </trkpt>
      <trkpt lat="44.92408" lon="6.08488">
        <ele>2144.4</ele>
        <time>2024-08-14T09:25:59Z</time>
      </trkpt>
      <trkpt lat="44.9241" lon="6.08489">
        <ele>2144.4</ele>
        <time>2024-08-14T09:26:00Z</time>
      </trkpt>
      <trkpt lat="44.9241" lon="6.08489">
        <ele>2144.4</ele>
        <time>2024-08-14T09:26:01Z</time>
      </trkpt>
      <trkpt lat="44.9241" lon="6.08489">
        <ele>2145.2</ele>
        <time>2024-08-14T09:26:02Z</time>
      </trkpt>
      <trkpt lat="44.92412" lon="6.08489">
        <ele>2145.2</ele>
        <time>2024-08-14T09:26:03Z</time>
      </trkpt>
      <trkpt lat="44.92412" lon="6.08489">
        <ele>2145.6</ele>
        <time>2024-08-14T09:26:04Z</time>
      </trkpt>
      <trkpt lat="44.92412" lon="6.08489">
        <ele>2145.6</ele>
        <time>2024-08-14T09:26:05Z</time>
      </trkpt>
      <trkpt lat="44.92414" lon="6.08489">
        <ele>2146.2</ele>
        <time>2024-08-14T09:26:06Z</time>
      </trkpt>
      <trkpt lat="44.92414" lon="6.08489">
        <ele>2146.8</ele>
        <time>2024-08-14T09:26:07Z</time>
      </trkpt>
      <trkpt lat="44.92414" lon="6.08489">
        <ele>2146.8</ele>
        <time>2024-08-14T09:26:08Z</time>
      </trkpt>
      <trkpt lat="44.92416" lon="6.08489">
        <ele>2146.8</ele>
        <time>2024-08-14T09:26:09Z</time>
      </trkpt>
      <trkpt lat="44.92416" lon="6.08489">
        <ele>2147.2</ele>
        <time>2024-08-14T09:26:10Z</time>
      </trkpt>
      <trkpt lat="44.92418" lon="6.08489">
        <ele>2147.6</ele>
        <time>2024-08-14T09:26:11Z</time>
      </trkpt>
      <trkpt lat="44.92418" lon="6.08489">
        <ele>2147.6</ele>
        <time>2024-08-14T09:26:12Z</time>
      </trkpt>
      <trkpt lat="44.92418" lon="6.08489">
        <ele>2147.8</ele>
        <time>2024-08-14T09:26:13Z</time>
      </trkpt>
      <trkpt lat="44.9242" lon="6.08489">
        <ele>2147.8</ele>
        <time>2024-08-14T09:26:14Z</time>
      </trkpt>
      <trkpt lat="44.9242" lon="6.08489">
        <ele>2148</ele>
        <time>2024-08-14T09:26:15Z</time>
      </trkpt>
      <trkpt lat="44.9242" lon="6.08489">
        <ele>2148</ele>
        <time>2024-08-14T09:26:16Z</time>
      </trkpt>
      <trkpt lat="44.92422" lon="6.08489">
        <ele>2148</ele>
        <time>2024-08-14T09:26:17Z</time>
      </trkpt>
      <trkpt lat="44.92422" lon="6.08489">
        <ele>2148.2</ele>
        <time>2024-08-14T09:26:18Z</time>
      </trkpt>
      <trkpt lat="44.92424" lon="6.08489">
        <ele>2148.2</ele>
        <time>2024-08-14T09:26:19Z</time>
      </trkpt>
      <trkpt lat="44.92424" lon="6.08489">
        <ele>2148.8</ele>
        <time>2024-08-14T09:26:20Z</time>
      </trkpt>
      <trkpt lat="44.92426" lon="6.08489">
        <ele>2148.8</ele>
        <time>2024-08-14T09:26:21Z</time>
      </trkpt>
      <trkpt lat="44.92426" lon="6.08489">
        <ele>2149.2</ele>
        <time>2024-08-14T09:26:22Z</time>
      </trkpt>
      <trkpt lat="44.92426" lon="6.08489">
        <ele>2149.2</ele>
        <time>2024-08-14T09:26:23Z</time>
      </trkpt>
      <trkpt lat="44.92428" lon="6.08489">
        <ele>2149.4</ele>
        <time>2024-08-14T09:26:24Z</time>
      </trkpt>
      <trkpt lat="44.92428" lon="6.08489">
        <ele>2149.8</ele>
        <time>2024-08-14T09:26:25Z</time>
      </trkpt>
      <trkpt lat="44.92428" lon="6.08489">
        <ele>2150</ele>
        <time>2024-08-14T09:26:26Z</time>
      </trkpt>
      <trkpt lat="44.9243" lon="6.08489">
        <ele>2150.2</ele>
        <time>2024-08-14T09:26:27Z</time>
      </trkpt>
      <trkpt lat="44.9243" lon="6.08489">
        <ele>2150.2</ele>
        <time>2024-08-14T09:26:28Z</time>
      </trkpt>
      <trkpt lat="44.9243" lon="6.08489">
        <ele>2150.2</ele>
        <time>2024-08-14T09:26:29Z</time>
      </trkpt>
      <trkpt lat="44.92432" lon="6.08489">
        <ele>2150.6</ele>
        <time>2024-08-14T09:26:30Z</time>
      </trkpt>
      <trkpt lat="44.92432" lon="6.08489">
        <ele>2150.6</ele>
        <time>2024-08-14T09:26:31Z</time>
      </trkpt>
      <trkpt lat="44.92432" lon="6.08489">
        <ele>2151.2</ele>
        <time>2024-08-14T09:26:32Z</time>
      </trkpt>
      <trkpt lat="44.92434" lon="6.08489">
        <ele>2151.4</ele>
        <time>2024-08-14T09:26:33Z</time>
      </trkpt>
      <trkpt lat="44.92434" lon="6.08489">
        <ele>2151.6</ele>
        <time>2024-08-14T09:26:34Z</time>
      </trkpt>
      <trkpt lat="44.92434" lon="6.08489">
        <ele>2152</ele>
        <time>2024-08-14T09:26:35Z</time>
      </trkpt>
      <trkpt lat="44.92436" lon="6.08491">
        <ele>2152</ele>
        <time>2024-08-14T09:26:36Z</time>
      </trkpt>
      <trkpt lat="44.92436" lon="6.08491">
        <ele>2152</ele>
        <time>2024-08-14T09:26:37Z</time>
      </trkpt>
      <trkpt lat="44.92436" lon="6.08491">
        <ele>2152.2</ele>
        <time>2024-08-14T09:26:38Z</time>
      </trkpt>
      <trkpt lat="44.92438" lon="6.0849">
        <ele>2152.2</ele>
        <time>2024-08-14T09:26:39Z</time>
      </trkpt>
      <trkpt lat="44.92438" lon="6.0849">
        <ele>2152.4</ele>
        <time>2024-08-14T09:26:40Z</time>
      </trkpt>
      <trkpt lat="44.92438" lon="6.0849">
        <ele>2152.8</ele>
        <time>2024-08-14T09:26:41Z</time>
      </trkpt>
      <trkpt lat="44.9244" lon="6.08491">
        <ele>2153</ele>
        <time>2024-08-14T09:26:42Z</time>
      </trkpt>
      <trkpt lat="44.9244" lon="6.08491">
        <ele>2153</ele>
        <time>2024-08-14T09:26:43Z</time>
      </trkpt>
      <trkpt lat="44.9244" lon="6.08491">
        <ele>2153.6</ele>
        <time>2024-08-14T09:26:44Z</time>
      </trkpt>
      <trkpt lat="44.92442" lon="6.08493">
        <ele>2153.6</ele>
        <time>2024-08-14T09:26:45Z</time>
      </trkpt>
      <trkpt lat="44.92442" lon="6.08493">
        <ele>2153.6</ele>
        <time>2024-08-14T09:26:46Z</time>
      </trkpt>
      <trkpt lat="44.92442" lon="6.08493">
        <ele>2153.8</ele>
        <time>2024-08-14T09:26:47Z</time>
      </trkpt>
      <trkpt lat="44.92445" lon="6.08494">
        <ele>2153.8</ele>
        <time>2024-08-14T09:26:48Z</time>
      </trkpt>
      <trkpt lat="44.92445" lon="6.08494">
        <ele>2154.2</ele>
        <time>2024-08-14T09:26:49Z</time>
      </trkpt>
      <trkpt lat="44.92445" lon="6.08494">
        <ele>2154.4</ele>
        <time>2024-08-14T09:26:50Z</time>
      </trkpt>
      <trkpt lat="44.92445" lon="6.08494">
        <ele>2154.4</ele>
        <time>2024-08-14T09:26:51Z</time>
      </trkpt>
      <trkpt lat="44.92446" lon="6.08496">
        <ele>2154.4</ele>
        <time>2024-08-14T09:26:52Z</time>
      </trkpt>
      <trkpt lat="44.92446" lon="6.08496">
        <ele>2154.4</ele>
        <time>2024-08-14T09:26:53Z</time>
      </trkpt>
      <trkpt lat="44.92446" lon="6.08496">
        <ele>2154.4</ele>
        <time>2024-08-14T09:26:54Z</time>
      </trkpt>
      <trkpt lat="44.92446" lon="6.08496">
        <ele>2154.2</ele>
        <time>2024-08-14T09:26:55Z</time>
      </trkpt>
      <trkpt lat="44.92446" lon="6.08499">
        <ele>2154.4</ele>
        <time>2024-08-14T09:26:56Z</time>
      </trkpt>
      <trkpt lat="44.92446" lon="6.08499">
        <ele>2154.6</ele>
        <time>2024-08-14T09:26:57Z</time>
      </trkpt>
      <trkpt lat="44.92446" lon="6.08499">
        <ele>2154.8</ele>
        <time>2024-08-14T09:26:58Z</time>
      </trkpt>
      <trkpt lat="44.92447" lon="6.08503">
        <ele>2154.2</ele>
        <time>2024-08-14T09:26:59Z</time>
      </trkpt>
      <trkpt lat="44.92447" lon="6.08503">
        <ele>2154.4</ele>
        <time>2024-08-14T09:27:00Z</time>
      </trkpt>
      <trkpt lat="44.92447" lon="6.08503">
        <ele>2155</ele>
        <time>2024-08-14T09:27:01Z</time>
      </trkpt>
      <trkpt lat="44.92447" lon="6.08503">
        <ele>2154.8</ele>
        <time>2024-08-14T09:27:02Z</time>
      </trkpt>
      <trkpt lat="44.92447" lon="6.08503">
        <ele>2154.8</ele>
        <time>2024-08-14T09:27:03Z</time>
      </trkpt>
      <trkpt lat="44.92448" lon="6.08505">
        <ele>2154.8</ele>
        <time>2024-08-14T09:27:04Z</time>
      </trkpt>
      <trkpt lat="44.92448" lon="6.08505">
        <ele>2155.2</ele>
        <time>2024-08-14T09:27:05Z</time>
      </trkpt>
      <trkpt lat="44.92448" lon="6.08505">
        <ele>2155.2</ele>
        <time>2024-08-14T09:27:06Z</time>
      </trkpt>
      <trkpt lat="44.9245" lon="6.08505">
        <ele>2155.4</ele>
        <time>2024-08-14T09:27:07Z</time>
      </trkpt>
      <trkpt lat="44.9245" lon="6.08505">
        <ele>2155.6</ele>
        <time>2024-08-14T09:27:08Z</time>
      </trkpt>
      <trkpt lat="44.9245" lon="6.08505">
        <ele>2155.8</ele>
        <time>2024-08-14T09:27:09Z</time>
      </trkpt>
      <trkpt lat="44.9245" lon="6.08505">
        <ele>2156</ele>
        <time>2024-08-14T09:27:10Z</time>
      </trkpt>
      <trkpt lat="44.92451" lon="6.08507">
        <ele>2156</ele>
        <time>2024-08-14T09:27:11Z</time>
      </trkpt>
      <trkpt lat="44.92451" lon="6.08507">
        <ele>2156.2</ele>
        <time>2024-08-14T09:27:12Z</time>
      </trkpt>
      <trkpt lat="44.92451" lon="6.08507">
        <ele>2156.4</ele>
        <time>2024-08-14T09:27:13Z</time>
      </trkpt>
      <trkpt lat="44.92451" lon="6.08507">
        <ele>2156.8</ele>
        <time>2024-08-14T09:27:14Z</time>
      </trkpt>
      <trkpt lat="44.92453" lon="6.08508">
        <ele>2157</ele>
        <time>2024-08-14T09:27:15Z</time>
      </trkpt>
      <trkpt lat="44.92453" lon="6.08508">
        <ele>2157</ele>
        <time>2024-08-14T09:27:16Z</time>
      </trkpt>
      <trkpt lat="44.92453" lon="6.08508">
        <ele>2157.2</ele>
        <time>2024-08-14T09:27:17Z</time>
      </trkpt>
      <trkpt lat="44.92453" lon="6.08508">
        <ele>2157.4</ele>
        <time>2024-08-14T09:27:18Z</time>
      </trkpt>
      <trkpt lat="44.92455" lon="6.08508">
        <ele>2157.4</ele>
        <time>2024-08-14T09:27:19Z</time>
      </trkpt>
      <trkpt lat="44.92455" lon="6.08508">
        <ele>2157.6</ele>
        <time>2024-08-14T09:27:20Z</time>
      </trkpt>
      <trkpt lat="44.92455" lon="6.08508">
        <ele>2158</ele>
        <time>2024-08-14T09:27:21Z</time>
      </trkpt>
      <trkpt lat="44.92457" lon="6.08507">
        <ele>2158.2</ele>
        <time>2024-08-14T09:27:22Z</time>
      </trkpt>
      <trkpt lat="44.92457" lon="6.08507">
        <ele>2158.4</ele>
        <time>2024-08-14T09:27:23Z</time>
      </trkpt>
      <trkpt lat="44.92457" lon="6.08507">
        <ele>2158.8</ele>
        <time>2024-08-14T09:27:24Z</time>
      </trkpt>
      <trkpt lat="44.92459" lon="6.08508">
        <ele>2158.8</ele>
        <time>2024-08-14T09:27:25Z</time>
      </trkpt>
      <trkpt lat="44.92459" lon="6.08508">
        <ele>2159.2</ele>
        <time>2024-08-14T09:27:26Z</time>
      </trkpt>
      <trkpt lat="44.92459" lon="6.08508">
        <ele>2159.4</ele>
        <time>2024-08-14T09:27:27Z</time>
      </trkpt>
      <trkpt lat="44.92461" lon="6.08509">
        <ele>2159.6</ele>
        <time>2024-08-14T09:27:28Z</time>
      </trkpt>
      <trkpt lat="44.92461" lon="6.08509">
        <ele>2159.6</ele>
        <time>2024-08-14T09:27:29Z</time>
      </trkpt>
      <trkpt lat="44.92461" lon="6.08509">
        <ele>2160</ele>
        <time>2024-08-14T09:27:30Z</time>
      </trkpt>
      <trkpt lat="44.92462" lon="6.08511">
        <ele>2160.4</ele>
        <time>2024-08-14T09:27:31Z</time>
      </trkpt>
      <trkpt lat="44.92462" lon="6.08511">
        <ele>2160.6</ele>
        <time>2024-08-14T09:27:32Z</time>
      </trkpt>
      <trkpt lat="44.92462" lon="6.08511">
        <ele>2160.6</ele>
        <time>2024-08-14T09:27:33Z</time>
      </trkpt>
      <trkpt lat="44.92464" lon="6.08511">
        <ele>2161</ele>
        <time>2024-08-14T09:27:34Z</time>
      </trkpt>
      <trkpt lat="44.92464" lon="6.08511">
        <ele>2161</ele>
        <time>2024-08-14T09:27:35Z</time>
      </trkpt>
      <trkpt lat="44.92464" lon="6.08511">
        <ele>2161</ele>
        <time>2024-08-14T09:27:36Z</time>
      </trkpt>
      <trkpt lat="44.92466" lon="6.08513">
        <ele>2161.4</ele>
        <time>2024-08-14T09:27:37Z</time>
      </trkpt>
      <trkpt lat="44.92466" lon="6.08513">
        <ele>2161.6</ele>
        <time>2024-08-14T09:27:38Z</time>
      </trkpt>
      <trkpt lat="44.92466" lon="6.08513">
        <ele>2162</ele>
        <time>2024-08-14T09:27:39Z</time>
      </trkpt>
      <trkpt lat="44.92468" lon="6.08514">
        <ele>2162</ele>
        <time>2024-08-14T09:27:40Z</time>
      </trkpt>
      <trkpt lat="44.92468" lon="6.08514">
        <ele>2162.2</ele>
        <time>2024-08-14T09:27:41Z</time>
      </trkpt>
      <trkpt lat="44.92468" lon="6.08514">
        <ele>2162.4</ele>
        <time>2024-08-14T09:27:42Z</time>
      </trkpt>
      <trkpt lat="44.9247" lon="6.08515">
        <ele>2162.6</ele>
        <time>2024-08-14T09:27:43Z</time>
      </trkpt>
      <trkpt lat="44.9247" lon="6.08515">
        <ele>2162.6</ele>
        <time>2024-08-14T09:27:44Z</time>
      </trkpt>
      <trkpt lat="44.9247" lon="6.08515">
        <ele>2162.6</ele>
        <time>2024-08-14T09:27:45Z</time>
      </trkpt>
      <trkpt lat="44.92472" lon="6.08516">
        <ele>2163.2</ele>
        <time>2024-08-14T09:27:46Z</time>
      </trkpt>
      <trkpt lat="44.92472" lon="6.08516">
        <ele>2163.2</ele>
        <time>2024-08-14T09:27:47Z</time>
      </trkpt>
      <trkpt lat="44.92474" lon="6.08518">
        <ele>2163</ele>
        <time>2024-08-14T09:27:48Z</time>
      </trkpt>
      <trkpt lat="44.92474" lon="6.08518">
        <ele>2163</ele>
        <time>2024-08-14T09:27:49Z</time>
      </trkpt>
      <trkpt lat="44.92474" lon="6.08518">
        <ele>2163.2</ele>
        <time>2024-08-14T09:27:50Z</time>
      </trkpt>
      <trkpt lat="44.92476" lon="6.0852">
        <ele>2163.6</ele>
        <time>2024-08-14T09:27:51Z</time>
      </trkpt>
      <trkpt lat="44.92476" lon="6.0852">
        <ele>2163.6</ele>
        <time>2024-08-14T09:27:52Z</time>
      </trkpt>
      <trkpt lat="44.92476" lon="6.0852">
        <ele>2163.6</ele>
        <time>2024-08-14T09:27:53Z</time>
      </trkpt>
      <trkpt lat="44.92476" lon="6.0852">
        <ele>2163.6</ele>
        <time>2024-08-14T09:27:54Z</time>
      </trkpt>
      <trkpt lat="44.92478" lon="6.0852">
        <ele>2163.6</ele>
        <time>2024-08-14T09:27:55Z</time>
      </trkpt>
      <trkpt lat="44.92478" lon="6.0852">
        <ele>2163.8</ele>
        <time>2024-08-14T09:27:56Z</time>
      </trkpt>
      <trkpt lat="44.92478" lon="6.0852">
        <ele>2164</ele>
        <time>2024-08-14T09:27:57Z</time>
      </trkpt>
      <trkpt lat="44.92478" lon="6.0852">
        <ele>2164.6</ele>
        <time>2024-08-14T09:27:58Z</time>
      </trkpt>
      <trkpt lat="44.9248" lon="6.08521">
        <ele>2164.8</ele>
        <time>2024-08-14T09:27:59Z</time>
      </trkpt>
      <trkpt lat="44.9248" lon="6.08521">
        <ele>2165.2</ele>
        <time>2024-08-14T09:28:00Z</time>
      </trkpt>
      <trkpt lat="44.9248" lon="6.08521">
        <ele>2165.6</ele>
        <time>2024-08-14T09:28:01Z</time>
      </trkpt>
      <trkpt lat="44.92483" lon="6.08522">
        <ele>2165.8</ele>
        <time>2024-08-14T09:28:02Z</time>
      </trkpt>
      <trkpt lat="44.92483" lon="6.08522">
        <ele>2165.8</ele>
        <time>2024-08-14T09:28:03Z</time>
      </trkpt>
      <trkpt lat="44.92483" lon="6.08522">
        <ele>2165.8</ele>
        <time>2024-08-14T09:28:04Z</time>
      </trkpt>
      <trkpt lat="44.92485" lon="6.08524">
        <ele>2166</ele>
        <time>2024-08-14T09:28:05Z</time>
      </trkpt>
      <trkpt lat="44.92485" lon="6.08524">
        <ele>2166</ele>
        <time>2024-08-14T09:28:06Z</time>
      </trkpt>
      <trkpt lat="44.92485" lon="6.08524">
        <ele>2166</ele>
        <time>2024-08-14T09:28:07Z</time>
      </trkpt>
      <trkpt lat="44.92485" lon="6.08524">
        <ele>2166.2</ele>
        <time>2024-08-14T09:28:08Z</time>
      </trkpt>
      <trkpt lat="44.92487" lon="6.08526">
        <ele>2166.6</ele>
        <time>2024-08-14T09:28:09Z</time>
      </trkpt>
      <trkpt lat="44.92487" lon="6.08526">
        <ele>2167</ele>
        <time>2024-08-14T09:28:10Z</time>
      </trkpt>
      <trkpt lat="44.92487" lon="6.08526">
        <ele>2167.2</ele>
        <time>2024-08-14T09:28:11Z</time>
      </trkpt>
      <trkpt lat="44.92487" lon="6.08526">
        <ele>2167.2</ele>
        <time>2024-08-14T09:28:12Z</time>
      </trkpt>
      <trkpt lat="44.92489" lon="6.08528">
        <ele>2167.2</ele>
        <time>2024-08-14T09:28:13Z</time>
      </trkpt>
      <trkpt lat="44.92489" lon="6.08528">
        <ele>2167.4</ele>
        <time>2024-08-14T09:28:14Z</time>
      </trkpt>
      <trkpt lat="44.92489" lon="6.08528">
        <ele>2167.8</ele>
        <time>2024-08-14T09:28:15Z</time>
      </trkpt>
      <trkpt lat="44.92492" lon="6.08529">
        <ele>2168</ele>
        <time>2024-08-14T09:28:16Z</time>
      </trkpt>
      <trkpt lat="44.92492" lon="6.08529">
        <ele>2168.4</ele>
        <time>2024-08-14T09:28:17Z</time>
      </trkpt>
      <trkpt lat="44.92492" lon="6.08529">
        <ele>2168.4</ele>
        <time>2024-08-14T09:28:18Z</time>
      </trkpt>
      <trkpt lat="44.92493" lon="6.08531">
        <ele>2168.4</ele>
        <time>2024-08-14T09:28:19Z</time>
      </trkpt>
      <trkpt lat="44.92493" lon="6.08531">
        <ele>2168.4</ele>
        <time>2024-08-14T09:28:20Z</time>
      </trkpt>
      <trkpt lat="44.92493" lon="6.08531">
        <ele>2168.8</ele>
        <time>2024-08-14T09:28:21Z</time>
      </trkpt>
      <trkpt lat="44.92495" lon="6.08532">
        <ele>2169</ele>
        <time>2024-08-14T09:28:22Z</time>
      </trkpt>
      <trkpt lat="44.92495" lon="6.08532">
        <ele>2169.4</ele>
        <time>2024-08-14T09:28:23Z</time>
      </trkpt>
      <trkpt lat="44.92495" lon="6.08532">
        <ele>2169.4</ele>
        <time>2024-08-14T09:28:24Z</time>
      </trkpt>
      <trkpt lat="44.92497" lon="6.08532">
        <ele>2169.6</ele>
        <time>2024-08-14T09:28:25Z</time>
      </trkpt>
      <trkpt lat="44.92497" lon="6.08532">
        <ele>2169.8</ele>
        <time>2024-08-14T09:28:26Z</time>
      </trkpt>
      <trkpt lat="44.92497" lon="6.08532">
        <ele>2170.4</ele>
        <time>2024-08-14T09:28:27Z</time>
      </trkpt>
      <trkpt lat="44.92497" lon="6.08532">
        <ele>2170.4</ele>
        <time>2024-08-14T09:28:28Z</time>
      </trkpt>
      <trkpt lat="44.92499" lon="6.08535">
        <ele>2170.4</ele>
        <time>2024-08-14T09:28:29Z</time>
      </trkpt>
      <trkpt lat="44.92499" lon="6.08535">
        <ele>2170.6</ele>
        <time>2024-08-14T09:28:30Z</time>
      </trkpt>
      <trkpt lat="44.92499" lon="6.08535">
        <ele>2170.8</ele>
        <time>2024-08-14T09:28:31Z</time>
      </trkpt>
      <trkpt lat="44.92501" lon="6.08536">
        <ele>2171.2</ele>
        <time>2024-08-14T09:28:32Z</time>
      </trkpt>
      <trkpt lat="44.92501" lon="6.08536">
        <ele>2171.4</ele>
        <time>2024-08-14T09:28:33Z</time>
      </trkpt>
      <trkpt lat="44.92501" lon="6.08536">
        <ele>2171.6</ele>
        <time>2024-08-14T09:28:34Z</time>
      </trkpt>
      <trkpt lat="44.92503" lon="6.08537">
        <ele>2171.8</ele>
        <time>2024-08-14T09:28:35Z</time>
      </trkpt>
      <trkpt lat="44.92503" lon="6.08537">
        <ele>2172</ele>
        <time>2024-08-14T09:28:36Z</time>
      </trkpt>
      <trkpt lat="44.92503" lon="6.08537">
        <ele>2172</ele>
        <time>2024-08-14T09:28:37Z</time>
      </trkpt>
      <trkpt lat="44.92505" lon="6.08539">
        <ele>2172.2</ele>
        <time>2024-08-14T09:28:38Z</time>
      </trkpt>
      <trkpt lat="44.92505" lon="6.08539">
        <ele>2172.6</ele>
        <time>2024-08-14T09:28:39Z</time>
      </trkpt>
      <trkpt lat="44.92505" lon="6.08539">
        <ele>2172.6</ele>
        <time>2024-08-14T09:28:40Z</time>
      </trkpt>
      <trkpt lat="44.92507" lon="6.08541">
        <ele>2172.8</ele>
        <time>2024-08-14T09:28:41Z</time>
      </trkpt>
      <trkpt lat="44.92507" lon="6.08541">
        <ele>2173.6</ele>
        <time>2024-08-14T09:28:42Z</time>
      </trkpt>
      <trkpt lat="44.92507" lon="6.08541">
        <ele>2173.8</ele>
        <time>2024-08-14T09:28:43Z</time>
      </trkpt>
      <trkpt lat="44.92507" lon="6.08541">
        <ele>2174</ele>
        <time>2024-08-14T09:28:44Z</time>
      </trkpt>
      <trkpt lat="44.92509" lon="6.08543">
        <ele>2174.2</ele>
        <time>2024-08-14T09:28:45Z</time>
      </trkpt>
      <trkpt lat="44.92509" lon="6.08543">
        <ele>2174.4</ele>
        <time>2024-08-14T09:28:46Z</time>
      </trkpt>
      <trkpt lat="44.92509" lon="6.08543">
        <ele>2174.4</ele>
        <time>2024-08-14T09:28:47Z</time>
      </trkpt>
      <trkpt lat="44.92511" lon="6.08543">
        <ele>2174.4</ele>
        <time>2024-08-14T09:28:48Z</time>
      </trkpt>
      <trkpt lat="44.92511" lon="6.08543">
        <ele>2174.6</ele>
        <time>2024-08-14T09:28:49Z</time>
      </trkpt>
      <trkpt lat="44.92511" lon="6.08543">
        <ele>2174.8</ele>
        <time>2024-08-14T09:28:50Z</time>
      </trkpt>
      <trkpt lat="44.92513" lon="6.08544">
        <ele>2175</ele>
        <time>2024-08-14T09:28:51Z</time>
      </trkpt>
      <trkpt lat="44.92513" lon="6.08544">
        <ele>2175.4</ele>
        <time>2024-08-14T09:28:52Z</time>
      </trkpt>
      <trkpt lat="44.92513" lon="6.08544">
        <ele>2175.4</ele>
        <time>2024-08-14T09:28:53Z</time>
      </trkpt>
      <trkpt lat="44.92515" lon="6.08544">
        <ele>2175.4</ele>
        <time>2024-08-14T09:28:54Z</time>
      </trkpt>
      <trkpt lat="44.92515" lon="6.08544">
        <ele>2175.8</ele>
        <time>2024-08-14T09:28:55Z</time>
      </trkpt>
      <trkpt lat="44.92515" lon="6.08544">
        <ele>2176</ele>
        <time>2024-08-14T09:28:56Z</time>
      </trkpt>
      <trkpt lat="44.92515" lon="6.08544">
        <ele>2176</ele>
        <time>2024-08-14T09:28:57Z</time>
      </trkpt>
      <trkpt lat="44.92515" lon="6.08544">
        <ele>2176.4</ele>
        <time>2024-08-14T09:28:58Z</time>
      </trkpt>
      <trkpt lat="44.92516" lon="6.08541">
        <ele>2176.6</ele>
        <time>2024-08-14T09:28:59Z</time>
      </trkpt>
      <trkpt lat="44.92516" lon="6.08541">
        <ele>2176.6</ele>
        <time>2024-08-14T09:29:00Z</time>
      </trkpt>
      <trkpt lat="44.92516" lon="6.08541">
        <ele>2177.4</ele>
        <time>2024-08-14T09:29:01Z</time>
      </trkpt>
      <trkpt lat="44.92518" lon="6.08541">
        <ele>2177.4</ele>
        <time>2024-08-14T09:29:02Z</time>
      </trkpt>
      <trkpt lat="44.92518" lon="6.08541">
        <ele>2177.4</ele>
        <time>2024-08-14T09:29:03Z</time>
      </trkpt>
      <trkpt lat="44.92518" lon="6.08541">
        <ele>2177.6</ele>
        <time>2024-08-14T09:29:04Z</time>
      </trkpt>
      <trkpt lat="44.9252" lon="6.08542">
        <ele>2177.8</ele>
        <time>2024-08-14T09:29:05Z</time>
      </trkpt>
      <trkpt lat="44.9252" lon="6.08542">
        <ele>2177.8</ele>
        <time>2024-08-14T09:29:06Z</time>
      </trkpt>
      <trkpt lat="44.9252" lon="6.08542">
        <ele>2178.2</ele>
        <time>2024-08-14T09:29:07Z</time>
      </trkpt>
      <trkpt lat="44.9252" lon="6.08542">
        <ele>2178.2</ele>
        <time>2024-08-14T09:29:08Z</time>
      </trkpt>
      <trkpt lat="44.92522" lon="6.08544">
        <ele>2178.2</ele>
        <time>2024-08-14T09:29:09Z</time>
      </trkpt>
      <trkpt lat="44.92522" lon="6.08544">
        <ele>2178.4</ele>
        <time>2024-08-14T09:29:10Z</time>
      </trkpt>
      <trkpt lat="44.92522" lon="6.08544">
        <ele>2178.4</ele>
        <time>2024-08-14T09:29:11Z</time>
      </trkpt>
      <trkpt lat="44.92525" lon="6.08544">
        <ele>2178.6</ele>
        <time>2024-08-14T09:29:12Z</time>
      </trkpt>
      <trkpt lat="44.92525" lon="6.08544">
        <ele>2178.6</ele>
        <time>2024-08-14T09:29:13Z</time>
      </trkpt>
      <trkpt lat="44.92525" lon="6.08544">
        <ele>2178.8</ele>
        <time>2024-08-14T09:29:14Z</time>
      </trkpt>
      <trkpt lat="44.92525" lon="6.08544">
        <ele>2179</ele>
        <time>2024-08-14T09:29:15Z</time>
      </trkpt>
      <trkpt lat="44.92526" lon="6.08545">
        <ele>2179.4</ele>
        <time>2024-08-14T09:29:16Z</time>
      </trkpt>
      <trkpt lat="44.92526" lon="6.08545">
        <ele>2179.6</ele>
        <time>2024-08-14T09:29:17Z</time>
      </trkpt>
      <trkpt lat="44.92526" lon="6.08545">
        <ele>2179.6</ele>
        <time>2024-08-14T09:29:18Z</time>
      </trkpt>
      <trkpt lat="44.92526" lon="6.08545">
        <ele>2179.6</ele>
        <time>2024-08-14T09:29:19Z</time>
      </trkpt>
      <trkpt lat="44.92526" lon="6.08545">
        <ele>2179.8</ele>
        <time>2024-08-14T09:29:20Z</time>
      </trkpt>
      <trkpt lat="44.92529" lon="6.08546">
        <ele>2180</ele>
        <time>2024-08-14T09:29:21Z</time>
      </trkpt>
      <trkpt lat="44.92529" lon="6.08546">
        <ele>2180.2</ele>
        <time>2024-08-14T09:29:22Z</time>
      </trkpt>
      <trkpt lat="44.92529" lon="6.08546">
        <ele>2180.4</ele>
        <time>2024-08-14T09:29:23Z</time>
      </trkpt>
      <trkpt lat="44.92529" lon="6.08546">
        <ele>2180.8</ele>
        <time>2024-08-14T09:29:24Z</time>
      </trkpt>
      <trkpt lat="44.92531" lon="6.08548">
        <ele>2180.8</ele>
        <time>2024-08-14T09:29:25Z</time>
      </trkpt>
      <trkpt lat="44.92531" lon="6.08548">
        <ele>2181</ele>
        <time>2024-08-14T09:29:26Z</time>
      </trkpt>
      <trkpt lat="44.92531" lon="6.08548">
        <ele>2181.2</ele>
        <time>2024-08-14T09:29:27Z</time>
      </trkpt>
      <trkpt lat="44.92533" lon="6.08548">
        <ele>2181.4</ele>
        <time>2024-08-14T09:29:28Z</time>
      </trkpt>
      <trkpt lat="44.92533" lon="6.08548">
        <ele>2181.6</ele>
        <time>2024-08-14T09:29:29Z</time>
      </trkpt>
      <trkpt lat="44.92533" lon="6.08548">
        <ele>2181.6</ele>
        <time>2024-08-14T09:29:30Z</time>
      </trkpt>
      <trkpt lat="44.92535" lon="6.0855">
        <ele>2182</ele>
        <time>2024-08-14T09:29:31Z</time>
      </trkpt>
      <trkpt lat="44.92535" lon="6.0855">
        <ele>2182.2</ele>
        <time>2024-08-14T09:29:32Z</time>
      </trkpt>
      <trkpt lat="44.92535" lon="6.0855">
        <ele>2182.2</ele>
        <time>2024-08-14T09:29:33Z</time>
      </trkpt>
      <trkpt lat="44.92535" lon="6.0855">
        <ele>2182.4</ele>
        <time>2024-08-14T09:29:34Z</time>
      </trkpt>
      <trkpt lat="44.92537" lon="6.0855">
        <ele>2182.6</ele>
        <time>2024-08-14T09:29:35Z</time>
      </trkpt>
      <trkpt lat="44.92537" lon="6.0855">
        <ele>2182.6</ele>
        <time>2024-08-14T09:29:36Z</time>
      </trkpt>
      <trkpt lat="44.92537" lon="6.0855">
        <ele>2182.8</ele>
        <time>2024-08-14T09:29:37Z</time>
      </trkpt>
      <trkpt lat="44.92539" lon="6.08551">
        <ele>2183.2</ele>
        <time>2024-08-14T09:29:38Z</time>
      </trkpt>
      <trkpt lat="44.92539" lon="6.08551">
        <ele>2183.4</ele>
        <time>2024-08-14T09:29:39Z</time>
      </trkpt>
      <trkpt lat="44.92539" lon="6.08551">
        <ele>2183.4</ele>
        <time>2024-08-14T09:29:40Z</time>
      </trkpt>
      <trkpt lat="44.92541" lon="6.08553">
        <ele>2183.6</ele>
        <time>2024-08-14T09:29:41Z</time>
      </trkpt>
      <trkpt lat="44.92541" lon="6.08553">
        <ele>2183.6</ele>
        <time>2024-08-14T09:29:42Z</time>
      </trkpt>
      <trkpt lat="44.92541" lon="6.08553">
        <ele>2183.8</ele>
        <time>2024-08-14T09:29:43Z</time>
      </trkpt>
      <trkpt lat="44.92542" lon="6.08553">
        <ele>2184.2</ele>
        <time>2024-08-14T09:29:44Z</time>
      </trkpt>
      <trkpt lat="44.92542" lon="6.08553">
        <ele>2184.4</ele>
        <time>2024-08-14T09:29:45Z</time>
      </trkpt>
      <trkpt lat="44.92542" lon="6.08553">
        <ele>2184.4</ele>
        <time>2024-08-14T09:29:46Z</time>
      </trkpt>
      <trkpt lat="44.92544" lon="6.08553">
        <ele>2184.6</ele>
        <time>2024-08-14T09:29:47Z</time>
      </trkpt>
      <trkpt lat="44.92544" lon="6.08553">
        <ele>2184.8</ele>
        <time>2024-08-14T09:29:48Z</time>
      </trkpt>
      <trkpt lat="44.92544" lon="6.08553">
        <ele>2185</ele>
        <time>2024-08-14T09:29:49Z</time>
      </trkpt>
      <trkpt lat="44.92546" lon="6.08554">
        <ele>2185.4</ele>
        <time>2024-08-14T09:29:50Z</time>
      </trkpt>
      <trkpt lat="44.92546" lon="6.08554">
        <ele>2185.6</ele>
        <time>2024-08-14T09:29:51Z</time>
      </trkpt>
      <trkpt lat="44.92546" lon="6.08554">
        <ele>2185.6</ele>
        <time>2024-08-14T09:29:52Z</time>
      </trkpt>
      <trkpt lat="44.92546" lon="6.08554">
        <ele>2185.8</ele>
        <time>2024-08-14T09:29:53Z</time>
      </trkpt>
      <trkpt lat="44.92549" lon="6.08555">
        <ele>2186</ele>
        <time>2024-08-14T09:29:54Z</time>
      </trkpt>
      <trkpt lat="44.92549" lon="6.08555">
        <ele>2186.2</ele>
        <time>2024-08-14T09:29:55Z</time>
      </trkpt>
      <trkpt lat="44.92549" lon="6.08555">
        <ele>2186.4</ele>
        <time>2024-08-14T09:29:56Z</time>
      </trkpt>
      <trkpt lat="44.92551" lon="6.08556">
        <ele>2186.4</ele>
        <time>2024-08-14T09:29:57Z</time>
      </trkpt>
      <trkpt lat="44.92551" lon="6.08556">
        <ele>2186.6</ele>
        <time>2024-08-14T09:29:58Z</time>
      </trkpt>
      <trkpt lat="44.92553" lon="6.08558">
        <ele>2186.8</ele>
        <time>2024-08-14T09:29:59Z</time>
      </trkpt>
      <trkpt lat="44.92553" lon="6.08558">
        <ele>2187.2</ele>
        <time>2024-08-14T09:30:00Z</time>
      </trkpt>
      <trkpt lat="44.92553" lon="6.08558">
        <ele>2187.6</ele>
        <time>2024-08-14T09:30:01Z</time>
      </trkpt>
      <trkpt lat="44.92553" lon="6.08558">
        <ele>2188</ele>
        <time>2024-08-14T09:30:02Z</time>
      </trkpt>
      <trkpt lat="44.92555" lon="6.08559">
        <ele>2188.2</ele>
        <time>2024-08-14T09:30:03Z</time>
      </trkpt>
      <trkpt lat="44.92555" lon="6.08559">
        <ele>2188.4</ele>
        <time>2024-08-14T09:30:04Z</time>
      </trkpt>
      <trkpt lat="44.92555" lon="6.08559">
        <ele>2188.4</ele>
        <time>2024-08-14T09:30:05Z</time>
      </trkpt>
      <trkpt lat="44.92557" lon="6.08559">
        <ele>2188.4</ele>
        <time>2024-08-14T09:30:06Z</time>
      </trkpt>
      <trkpt lat="44.92557" lon="6.08559">
        <ele>2188.4</ele>
        <time>2024-08-14T09:30:07Z</time>
      </trkpt>
      <trkpt lat="44.92557" lon="6.08559">
        <ele>2188.8</ele>
        <time>2024-08-14T09:30:08Z</time>
      </trkpt>
      <trkpt lat="44.92559" lon="6.0856">
        <ele>2189</ele>
        <time>2024-08-14T09:30:09Z</time>
      </trkpt>
      <trkpt lat="44.92559" lon="6.0856">
        <ele>2189.2</ele>
        <time>2024-08-14T09:30:10Z</time>
      </trkpt>
      <trkpt lat="44.92559" lon="6.0856">
        <ele>2189.2</ele>
        <time>2024-08-14T09:30:11Z</time>
      </trkpt>
      <trkpt lat="44.92561" lon="6.08563">
        <ele>2189.2</ele>
        <time>2024-08-14T09:30:12Z</time>
      </trkpt>
      <trkpt lat="44.92561" lon="6.08563">
        <ele>2190</ele>
        <time>2024-08-14T09:30:13Z</time>
      </trkpt>
      <trkpt lat="44.92561" lon="6.08563">
        <ele>2190</ele>
        <time>2024-08-14T09:30:14Z</time>
      </trkpt>
      <trkpt lat="44.92562" lon="6.08565">
        <ele>2190</ele>
        <time>2024-08-14T09:30:15Z</time>
      </trkpt>
      <trkpt lat="44.92562" lon="6.08565">
        <ele>2190.4</ele>
        <time>2024-08-14T09:30:16Z</time>
      </trkpt>
      <trkpt lat="44.92562" lon="6.08565">
        <ele>2190.6</ele>
        <time>2024-08-14T09:30:17Z</time>
      </trkpt>
      <trkpt lat="44.92564" lon="6.08567">
        <ele>2190.8</ele>
        <time>2024-08-14T09:30:18Z</time>
      </trkpt>
      <trkpt lat="44.92564" lon="6.08567">
        <ele>2191.2</ele>
        <time>2024-08-14T09:30:19Z</time>
      </trkpt>
      <trkpt lat="44.92564" lon="6.08567">
        <ele>2191.2</ele>
        <time>2024-08-14T09:30:20Z</time>
      </trkpt>
      <trkpt lat="44.92564" lon="6.08567">
        <ele>2191.2</ele>
        <time>2024-08-14T09:30:21Z</time>
      </trkpt>
      <trkpt lat="44.92566" lon="6.08567">
        <ele>2191.6</ele>
        <time>2024-08-14T09:30:22Z</time>
      </trkpt>
      <trkpt lat="44.92566" lon="6.08567">
        <ele>2191.8</ele>
        <time>2024-08-14T09:30:23Z</time>
      </trkpt>
      <trkpt lat="44.92566" lon="6.08567">
        <ele>2192</ele>
        <time>2024-08-14T09:30:24Z</time>
      </trkpt>
      <trkpt lat="44.92568" lon="6.08566">
        <ele>2192.2</ele>
        <time>2024-08-14T09:30:25Z</time>
      </trkpt>
      <trkpt lat="44.92568" lon="6.08566">
        <ele>2192.2</ele>
        <time>2024-08-14T09:30:26Z</time>
      </trkpt>
      <trkpt lat="44.92568" lon="6.08566">
        <ele>2192.4</ele>
        <time>2024-08-14T09:30:27Z</time>
      </trkpt>
      <trkpt lat="44.92571" lon="6.08567">
        <ele>2192.6</ele>
        <time>2024-08-14T09:30:28Z</time>
      </trkpt>
      <trkpt lat="44.92571" lon="6.08567">
        <ele>2192.6</ele>
        <time>2024-08-14T09:30:29Z</time>
      </trkpt>
      <trkpt lat="44.92571" lon="6.08567">
        <ele>2192.6</ele>
        <time>2024-08-14T09:30:30Z</time>
      </trkpt>
      <trkpt lat="44.92571" lon="6.08567">
        <ele>2192.8</ele>
        <time>2024-08-14T09:30:31Z</time>
      </trkpt>
      <trkpt lat="44.92573" lon="6.08567">
        <ele>2192.8</ele>
        <time>2024-08-14T09:30:32Z</time>
      </trkpt>
      <trkpt lat="44.92573" lon="6.08567">
        <ele>2193</ele>
        <time>2024-08-14T09:30:33Z</time>
      </trkpt>
      <trkpt lat="44.92573" lon="6.08567">
        <ele>2193.2</ele>
        <time>2024-08-14T09:30:34Z</time>
      </trkpt>
      <trkpt lat="44.92575" lon="6.08569">
        <ele>2193.4</ele>
        <time>2024-08-14T09:30:35Z</time>
      </trkpt>
      <trkpt lat="44.92575" lon="6.08569">
        <ele>2193.8</ele>
        <time>2024-08-14T09:30:36Z</time>
      </trkpt>
      <trkpt lat="44.92575" lon="6.08569">
        <ele>2194.2</ele>
        <time>2024-08-14T09:30:37Z</time>
      </trkpt>
      <trkpt lat="44.92577" lon="6.08569">
        <ele>2194.4</ele>
        <time>2024-08-14T09:30:38Z</time>
      </trkpt>
      <trkpt lat="44.92577" lon="6.08569">
        <ele>2194.4</ele>
        <time>2024-08-14T09:30:39Z</time>
      </trkpt>
      <trkpt lat="44.92577" lon="6.08569">
        <ele>2194.6</ele>
        <time>2024-08-14T09:30:40Z</time>
      </trkpt>
      <trkpt lat="44.92579" lon="6.0857">
        <ele>2194.6</ele>
        <time>2024-08-14T09:30:41Z</time>
      </trkpt>
      <trkpt lat="44.92579" lon="6.0857">
        <ele>2195</ele>
        <time>2024-08-14T09:30:42Z</time>
      </trkpt>
      <trkpt lat="44.92579" lon="6.0857">
        <ele>2195.2</ele>
        <time>2024-08-14T09:30:43Z</time>
      </trkpt>
      <trkpt lat="44.92579" lon="6.0857">
        <ele>2195.2</ele>
        <time>2024-08-14T09:30:44Z</time>
      </trkpt>
      <trkpt lat="44.92581" lon="6.0857">
        <ele>2195.2</ele>
        <time>2024-08-14T09:30:45Z</time>
      </trkpt>
      <trkpt lat="44.92581" lon="6.0857">
        <ele>2195.4</ele>
        <time>2024-08-14T09:30:46Z</time>
      </trkpt>
      <trkpt lat="44.92581" lon="6.0857">
        <ele>2195.6</ele>
        <time>2024-08-14T09:30:47Z</time>
      </trkpt>
      <trkpt lat="44.92583" lon="6.0857">
        <ele>2196</ele>
        <time>2024-08-14T09:30:48Z</time>
      </trkpt>
      <trkpt lat="44.92583" lon="6.0857">
        <ele>2196.4</ele>
        <time>2024-08-14T09:30:49Z</time>
      </trkpt>
      <trkpt lat="44.92583" lon="6.0857">
        <ele>2196.4</ele>
        <time>2024-08-14T09:30:50Z</time>
      </trkpt>
      <trkpt lat="44.92585" lon="6.08572">
        <ele>2196.4</ele>
        <time>2024-08-14T09:30:51Z</time>
      </trkpt>
      <trkpt lat="44.92585" lon="6.08572">
        <ele>2196.6</ele>
        <time>2024-08-14T09:30:52Z</time>
      </trkpt>
      <trkpt lat="44.92585" lon="6.08572">
        <ele>2196.8</ele>
        <time>2024-08-14T09:30:53Z</time>
      </trkpt>
      <trkpt lat="44.92585" lon="6.08572">
        <ele>2197.2</ele>
        <time>2024-08-14T09:30:54Z</time>
      </trkpt>
      <trkpt lat="44.92587" lon="6.08573">
        <ele>2197.4</ele>
        <time>2024-08-14T09:30:55Z</time>
      </trkpt>
      <trkpt lat="44.92587" lon="6.08573">
        <ele>2197.4</ele>
        <time>2024-08-14T09:30:56Z</time>
      </trkpt>
      <trkpt lat="44.92587" lon="6.08573">
        <ele>2197.6</ele>
        <time>2024-08-14T09:30:57Z</time>
      </trkpt>
      <trkpt lat="44.92589" lon="6.08573">
        <ele>2197.6</ele>
        <time>2024-08-14T09:30:58Z</time>
      </trkpt>
      <trkpt lat="44.92589" lon="6.08573">
        <ele>2197.8</ele>
        <time>2024-08-14T09:30:59Z</time>
      </trkpt>
      <trkpt lat="44.92589" lon="6.08573">
        <ele>2198</ele>
        <time>2024-08-14T09:31:00Z</time>
      </trkpt>
      <trkpt lat="44.92591" lon="6.08573">
        <ele>2198</ele>
        <time>2024-08-14T09:31:01Z</time>
      </trkpt>
      <trkpt lat="44.92591" lon="6.08573">
        <ele>2198.6</ele>
        <time>2024-08-14T09:31:02Z</time>
      </trkpt>
      <trkpt lat="44.92591" lon="6.08573">
        <ele>2198.6</ele>
        <time>2024-08-14T09:31:03Z</time>
      </trkpt>
      <trkpt lat="44.92593" lon="6.08573">
        <ele>2198.8</ele>
        <time>2024-08-14T09:31:04Z</time>
      </trkpt>
      <trkpt lat="44.92593" lon="6.08573">
        <ele>2199</ele>
        <time>2024-08-14T09:31:05Z</time>
      </trkpt>
      <trkpt lat="44.92593" lon="6.08573">
        <ele>2199.2</ele>
        <time>2024-08-14T09:31:06Z</time>
      </trkpt>
      <trkpt lat="44.92595" lon="6.08574">
        <ele>2199.4</ele>
        <time>2024-08-14T09:31:07Z</time>
      </trkpt>
      <trkpt lat="44.92595" lon="6.08574">
        <ele>2199.4</ele>
        <time>2024-08-14T09:31:08Z</time>
      </trkpt>
      <trkpt lat="44.92595" lon="6.08574">
        <ele>2199.8</ele>
        <time>2024-08-14T09:31:09Z</time>
      </trkpt>
      <trkpt lat="44.92596" lon="6.08576">
        <ele>2200</ele>
        <time>2024-08-14T09:31:10Z</time>
      </trkpt>
      <trkpt lat="44.92596" lon="6.08576">
        <ele>2200.2</ele>
        <time>2024-08-14T09:31:11Z</time>
      </trkpt>
      <trkpt lat="44.92596" lon="6.08576">
        <ele>2200.2</ele>
        <time>2024-08-14T09:31:12Z</time>
      </trkpt>
      <trkpt lat="44.92596" lon="6.08576">
        <ele>2200.4</ele>
        <time>2024-08-14T09:31:13Z</time>
      </trkpt>
      <trkpt lat="44.92597" lon="6.08578">
        <ele>2200.6</ele>
        <time>2024-08-14T09:31:14Z</time>
      </trkpt>
      <trkpt lat="44.92597" lon="6.08578">
        <ele>2200.8</ele>
        <time>2024-08-14T09:31:15Z</time>
      </trkpt>
      <trkpt lat="44.92597" lon="6.08578">
        <ele>2201</ele>
        <time>2024-08-14T09:31:16Z</time>
      </trkpt>
      <trkpt lat="44.92599" lon="6.08579">
        <ele>2201</ele>
        <time>2024-08-14T09:31:17Z</time>
      </trkpt>
      <trkpt lat="44.92599" lon="6.08579">
        <ele>2201.2</ele>
        <time>2024-08-14T09:31:18Z</time>
      </trkpt>
      <trkpt lat="44.92599" lon="6.08579">
        <ele>2201.2</ele>
        <time>2024-08-14T09:31:19Z</time>
      </trkpt>
      <trkpt lat="44.92599" lon="6.08579">
        <ele>2201.8</ele>
        <time>2024-08-14T09:31:20Z</time>
      </trkpt>
      <trkpt lat="44.92601" lon="6.08579">
        <ele>2202</ele>
        <time>2024-08-14T09:31:21Z</time>
      </trkpt>
      <trkpt lat="44.92601" lon="6.08579">
        <ele>2202.2</ele>
        <time>2024-08-14T09:31:22Z</time>
      </trkpt>
      <trkpt lat="44.92601" lon="6.08579">
        <ele>2202.6</ele>
        <time>2024-08-14T09:31:23Z</time>
      </trkpt>
      <trkpt lat="44.92603" lon="6.08579">
        <ele>2202.6</ele>
        <time>2024-08-14T09:31:24Z</time>
      </trkpt>
      <trkpt lat="44.92603" lon="6.08579">
        <ele>2202.6</ele>
        <time>2024-08-14T09:31:25Z</time>
      </trkpt>
      <trkpt lat="44.92603" lon="6.08579">
        <ele>2203</ele>
        <time>2024-08-14T09:31:26Z</time>
      </trkpt>
      <trkpt lat="44.92603" lon="6.08579">
        <ele>2203.2</ele>
        <time>2024-08-14T09:31:27Z</time>
      </trkpt>
      <trkpt lat="44.92603" lon="6.08579">
        <ele>2203.2</ele>
        <time>2024-08-14T09:31:28Z</time>
      </trkpt>
      <trkpt lat="44.92605" lon="6.08577">
        <ele>2203.4</ele>
        <time>2024-08-14T09:31:29Z</time>
      </trkpt>
      <trkpt lat="44.92605" lon="6.08577">
        <ele>2203.6</ele>
        <time>2024-08-14T09:31:30Z</time>
      </trkpt>
      <trkpt lat="44.92605" lon="6.08577">
        <ele>2203.8</ele>
        <time>2024-08-14T09:31:31Z</time>
      </trkpt>
      <trkpt lat="44.92607" lon="6.08575">
        <ele>2204</ele>
        <time>2024-08-14T09:31:32Z</time>
      </trkpt>
      <trkpt lat="44.92607" lon="6.08575">
        <ele>2204.2</ele>
        <time>2024-08-14T09:31:33Z</time>
      </trkpt>
      <trkpt lat="44.92607" lon="6.08575">
        <ele>2204.4</ele>
        <time>2024-08-14T09:31:34Z</time>
      </trkpt>
      <trkpt lat="44.92607" lon="6.08575">
        <ele>2204.6</ele>
        <time>2024-08-14T09:31:35Z</time>
      </trkpt>
      <trkpt lat="44.92609" lon="6.08575">
        <ele>2204.8</ele>
        <time>2024-08-14T09:31:36Z</time>
      </trkpt>
      <trkpt lat="44.92609" lon="6.08575">
        <ele>2205.2</ele>
        <time>2024-08-14T09:31:37Z</time>
      </trkpt>
      <trkpt lat="44.92609" lon="6.08575">
        <ele>2205.4</ele>
        <time>2024-08-14T09:31:38Z</time>
      </trkpt>
      <trkpt lat="44.92609" lon="6.08575">
        <ele>2205.6</ele>
        <time>2024-08-14T09:31:39Z</time>
      </trkpt>
      <trkpt lat="44.92611" lon="6.08575">
        <ele>2205.8</ele>
        <time>2024-08-14T09:31:40Z</time>
      </trkpt>
      <trkpt lat="44.92611" lon="6.08575">
        <ele>2206</ele>
        <time>2024-08-14T09:31:41Z</time>
      </trkpt>
      <trkpt lat="44.92611" lon="6.08575">
        <ele>2206</ele>
        <time>2024-08-14T09:31:42Z</time>
      </trkpt>
      <trkpt lat="44.92613" lon="6.08577">
        <ele>2206.2</ele>
        <time>2024-08-14T09:31:43Z</time>
      </trkpt>
      <trkpt lat="44.92613" lon="6.08577">
        <ele>2206.4</ele>
        <time>2024-08-14T09:31:44Z</time>
      </trkpt>
      <trkpt lat="44.92613" lon="6.08577">
        <ele>2206.6</ele>
        <time>2024-08-14T09:31:45Z</time>
      </trkpt>
      <trkpt lat="44.92615" lon="6.08579">
        <ele>2206.8</ele>
        <time>2024-08-14T09:31:46Z</time>
      </trkpt>
      <trkpt lat="44.92615" lon="6.08579">
        <ele>2207</ele>
        <time>2024-08-14T09:31:47Z</time>
      </trkpt>
      <trkpt lat="44.92615" lon="6.08579">
        <ele>2207</ele>
        <time>2024-08-14T09:31:48Z</time>
      </trkpt>
      <trkpt lat="44.92617" lon="6.0858">
        <ele>2206.8</ele>
        <time>2024-08-14T09:31:49Z</time>
      </trkpt>
      <trkpt lat="44.92617" lon="6.0858">
        <ele>2206.8</ele>
        <time>2024-08-14T09:31:50Z</time>
      </trkpt>
      <trkpt lat="44.92617" lon="6.0858">
        <ele>2207.2</ele>
        <time>2024-08-14T09:31:51Z</time>
      </trkpt>
      <trkpt lat="44.92617" lon="6.0858">
        <ele>2207.4</ele>
        <time>2024-08-14T09:31:52Z</time>
      </trkpt>
      <trkpt lat="44.92617" lon="6.0858">
        <ele>2207.6</ele>
        <time>2024-08-14T09:31:53Z</time>
      </trkpt>
      <trkpt lat="44.92617" lon="6.0858">
        <ele>2208</ele>
        <time>2024-08-14T09:31:54Z</time>
      </trkpt>
      <trkpt lat="44.92617" lon="6.0858">
        <ele>2208</ele>
        <time>2024-08-14T09:31:55Z</time>
      </trkpt>
      <trkpt lat="44.92617" lon="6.0858">
        <ele>2208</ele>
        <time>2024-08-14T09:31:56Z</time>
      </trkpt>
      <trkpt lat="44.92617" lon="6.0858">
        <ele>2208</ele>
        <time>2024-08-14T09:31:57Z</time>
      </trkpt>
      <trkpt lat="44.92619" lon="6.08581">
        <ele>2208.2</ele>
        <time>2024-08-14T09:31:58Z</time>
      </trkpt>
      <trkpt lat="44.92619" lon="6.08581">
        <ele>2208.2</ele>
        <time>2024-08-14T09:31:59Z</time>
      </trkpt>
      <trkpt lat="44.92619" lon="6.08581">
        <ele>2208.2</ele>
        <time>2024-08-14T09:32:00Z</time>
      </trkpt>
      <trkpt lat="44.92622" lon="6.08582">
        <ele>2208.2</ele>
        <time>2024-08-14T09:32:01Z</time>
      </trkpt>
      <trkpt lat="44.92622" lon="6.08582">
        <ele>2208.6</ele>
        <time>2024-08-14T09:32:02Z</time>
      </trkpt>
      <trkpt lat="44.92622" lon="6.08582">
        <ele>2208.6</ele>
        <time>2024-08-14T09:32:03Z</time>
      </trkpt>
      <trkpt lat="44.92624" lon="6.08583">
        <ele>2209</ele>
        <time>2024-08-14T09:32:04Z</time>
      </trkpt>
      <trkpt lat="44.92624" lon="6.08583">
        <ele>2209</ele>
        <time>2024-08-14T09:32:05Z</time>
      </trkpt>
      <trkpt lat="44.92626" lon="6.08583">
        <ele>2209</ele>
        <time>2024-08-14T09:32:06Z</time>
      </trkpt>
      <trkpt lat="44.92626" lon="6.08583">
        <ele>2209.2</ele>
        <time>2024-08-14T09:32:07Z</time>
      </trkpt>
      <trkpt lat="44.92626" lon="6.08583">
        <ele>2209.2</ele>
        <time>2024-08-14T09:32:08Z</time>
      </trkpt>
      <trkpt lat="44.92628" lon="6.08583">
        <ele>2209.6</ele>
        <time>2024-08-14T09:32:09Z</time>
      </trkpt>
      <trkpt lat="44.92628" lon="6.08583">
        <ele>2210</ele>
        <time>2024-08-14T09:32:10Z</time>
      </trkpt>
      <trkpt lat="44.92628" lon="6.08583">
        <ele>2210.2</ele>
        <time>2024-08-14T09:32:11Z</time>
      </trkpt>
      <trkpt lat="44.9263" lon="6.08584">
        <ele>2210.4</ele>
        <time>2024-08-14T09:32:12Z</time>
      </trkpt>
      <trkpt lat="44.9263" lon="6.08584">
        <ele>2210.6</ele>
        <time>2024-08-14T09:32:13Z</time>
      </trkpt>
      <trkpt lat="44.92632" lon="6.08586">
        <ele>2210.8</ele>
        <time>2024-08-14T09:32:14Z</time>
      </trkpt>
      <trkpt lat="44.92632" lon="6.08586">
        <ele>2211</ele>
        <time>2024-08-14T09:32:15Z</time>
      </trkpt>
      <trkpt lat="44.92632" lon="6.08586">
        <ele>2211</ele>
        <time>2024-08-14T09:32:16Z</time>
      </trkpt>
      <trkpt lat="44.92634" lon="6.08588">
        <ele>2211</ele>
        <time>2024-08-14T09:32:17Z</time>
      </trkpt>
      <trkpt lat="44.92634" lon="6.08588">
        <ele>2211.2</ele>
        <time>2024-08-14T09:32:18Z</time>
      </trkpt>
      <trkpt lat="44.92634" lon="6.08588">
        <ele>2211.4</ele>
        <time>2024-08-14T09:32:19Z</time>
      </trkpt>
      <trkpt lat="44.92636" lon="6.0859">
        <ele>2211.4</ele>
        <time>2024-08-14T09:32:20Z</time>
      </trkpt>
      <trkpt lat="44.92636" lon="6.0859">
        <ele>2211.4</ele>
        <time>2024-08-14T09:32:21Z</time>
      </trkpt>
      <trkpt lat="44.92636" lon="6.0859">
        <ele>2211.6</ele>
        <time>2024-08-14T09:32:22Z</time>
      </trkpt>
      <trkpt lat="44.92636" lon="6.0859">
        <ele>2212</ele>
        <time>2024-08-14T09:32:23Z</time>
      </trkpt>
      <trkpt lat="44.92636" lon="6.0859">
        <ele>2212.2</ele>
        <time>2024-08-14T09:32:24Z</time>
      </trkpt>
      <trkpt lat="44.92638" lon="6.08591">
        <ele>2212.2</ele>
        <time>2024-08-14T09:32:25Z</time>
      </trkpt>
      <trkpt lat="44.92638" lon="6.08591">
        <ele>2212.6</ele>
        <time>2024-08-14T09:32:26Z</time>
      </trkpt>
      <trkpt lat="44.92638" lon="6.08591">
        <ele>2212.8</ele>
        <time>2024-08-14T09:32:27Z</time>
      </trkpt>
      <trkpt lat="44.92641" lon="6.08591">
        <ele>2213</ele>
        <time>2024-08-14T09:32:28Z</time>
      </trkpt>
      <trkpt lat="44.92641" lon="6.08591">
        <ele>2213</ele>
        <time>2024-08-14T09:32:29Z</time>
      </trkpt>
      <trkpt lat="44.92643" lon="6.08593">
        <ele>2213.2</ele>
        <time>2024-08-14T09:32:30Z</time>
      </trkpt>
      <trkpt lat="44.92643" lon="6.08593">
        <ele>2213.4</ele>
        <time>2024-08-14T09:32:31Z</time>
      </trkpt>
      <trkpt lat="44.92643" lon="6.08593">
        <ele>2213.6</ele>
        <time>2024-08-14T09:32:32Z</time>
      </trkpt>
      <trkpt lat="44.92645" lon="6.08594">
        <ele>2213.8</ele>
        <time>2024-08-14T09:32:33Z</time>
      </trkpt>
      <trkpt lat="44.92645" lon="6.08594">
        <ele>2213.8</ele>
        <time>2024-08-14T09:32:34Z</time>
      </trkpt>
      <trkpt lat="44.92645" lon="6.08594">
        <ele>2214</ele>
        <time>2024-08-14T09:32:35Z</time>
      </trkpt>
      <trkpt lat="44.92647" lon="6.08595">
        <ele>2214.4</ele>
        <time>2024-08-14T09:32:36Z</time>
      </trkpt>
      <trkpt lat="44.92647" lon="6.08595">
        <ele>2214.8</ele>
        <time>2024-08-14T09:32:37Z</time>
      </trkpt>
      <trkpt lat="44.92647" lon="6.08595">
        <ele>2215</ele>
        <time>2024-08-14T09:32:38Z</time>
      </trkpt>
      <trkpt lat="44.92649" lon="6.08596">
        <ele>2215</ele>
        <time>2024-08-14T09:32:39Z</time>
      </trkpt>
      <trkpt lat="44.92649" lon="6.08596">
        <ele>2215.2</ele>
        <time>2024-08-14T09:32:40Z</time>
      </trkpt>
      <trkpt lat="44.92649" lon="6.08596">
        <ele>2215.2</ele>
        <time>2024-08-14T09:32:41Z</time>
      </trkpt>
      <trkpt lat="44.92651" lon="6.08597">
        <ele>2215.4</ele>
        <time>2024-08-14T09:32:42Z</time>
      </trkpt>
      <trkpt lat="44.92651" lon="6.08597">
        <ele>2215.8</ele>
        <time>2024-08-14T09:32:43Z</time>
      </trkpt>
      <trkpt lat="44.92651" lon="6.08597">
        <ele>2216</ele>
        <time>2024-08-14T09:32:44Z</time>
      </trkpt>
      <trkpt lat="44.92653" lon="6.08599">
        <ele>2216</ele>
        <time>2024-08-14T09:32:45Z</time>
      </trkpt>
      <trkpt lat="44.92653" lon="6.08599">
        <ele>2216.4</ele>
        <time>2024-08-14T09:32:46Z</time>
      </trkpt>
      <trkpt lat="44.92653" lon="6.08599">
        <ele>2216.6</ele>
        <time>2024-08-14T09:32:47Z</time>
      </trkpt>
      <trkpt lat="44.92655" lon="6.08601">
        <ele>2216.6</ele>
        <time>2024-08-14T09:32:48Z</time>
      </trkpt>
      <trkpt lat="44.92655" lon="6.08601">
        <ele>2216.8</ele>
        <time>2024-08-14T09:32:49Z</time>
      </trkpt>
      <trkpt lat="44.92656" lon="6.08602">
        <ele>2217</ele>
        <time>2024-08-14T09:32:50Z</time>
      </trkpt>
      <trkpt lat="44.92656" lon="6.08602">
        <ele>2217</ele>
        <time>2024-08-14T09:32:51Z</time>
      </trkpt>
      <trkpt lat="44.92656" lon="6.08602">
        <ele>2217.2</ele>
        <time>2024-08-14T09:32:52Z</time>
      </trkpt>
      <trkpt lat="44.92658" lon="6.08603">
        <ele>2217.4</ele>
        <time>2024-08-14T09:32:53Z</time>
      </trkpt>
      <trkpt lat="44.92658" lon="6.08603">
        <ele>2217.6</ele>
        <time>2024-08-14T09:32:54Z</time>
      </trkpt>
      <trkpt lat="44.92658" lon="6.08603">
        <ele>2217.6</ele>
        <time>2024-08-14T09:32:55Z</time>
      </trkpt>
      <trkpt lat="44.92661" lon="6.08605">
        <ele>2217.8</ele>
        <time>2024-08-14T09:32:56Z</time>
      </trkpt>
      <trkpt lat="44.92661" lon="6.08605">
        <ele>2218</ele>
        <time>2024-08-14T09:32:57Z</time>
      </trkpt>
      <trkpt lat="44.92661" lon="6.08605">
        <ele>2218.4</ele>
        <time>2024-08-14T09:32:58Z</time>
      </trkpt>
      <trkpt lat="44.92662" lon="6.08606">
        <ele>2218.8</ele>
        <time>2024-08-14T09:32:59Z</time>
      </trkpt>
      <trkpt lat="44.92662" lon="6.08606">
        <ele>2219</ele>
        <time>2024-08-14T09:33:00Z</time>
      </trkpt>
      <trkpt lat="44.92662" lon="6.08606">
        <ele>2219.4</ele>
        <time>2024-08-14T09:33:01Z</time>
      </trkpt>
      <trkpt lat="44.92662" lon="6.08606">
        <ele>2220</ele>
        <time>2024-08-14T09:33:02Z</time>
      </trkpt>
      <trkpt lat="44.92664" lon="6.08606">
        <ele>2220</ele>
        <time>2024-08-14T09:33:03Z</time>
      </trkpt>
      <trkpt lat="44.92664" lon="6.08606">
        <ele>2220</ele>
        <time>2024-08-14T09:33:04Z</time>
      </trkpt>
      <trkpt lat="44.92664" lon="6.08606">
        <ele>2220</ele>
        <time>2024-08-14T09:33:05Z</time>
      </trkpt>
      <trkpt lat="44.92666" lon="6.08607">
        <ele>2220.2</ele>
        <time>2024-08-14T09:33:06Z</time>
      </trkpt>
      <trkpt lat="44.92666" lon="6.08607">
        <ele>2220.4</ele>
        <time>2024-08-14T09:33:07Z</time>
      </trkpt>
      <trkpt lat="44.92666" lon="6.08607">
        <ele>2220.6</ele>
        <time>2024-08-14T09:33:08Z</time>
      </trkpt>
      <trkpt lat="44.92669" lon="6.08608">
        <ele>2220.8</ele>
        <time>2024-08-14T09:33:09Z</time>
      </trkpt>
      <trkpt lat="44.92669" lon="6.08608">
        <ele>2221.2</ele>
        <time>2024-08-14T09:33:10Z</time>
      </trkpt>
      <trkpt lat="44.92669" lon="6.08608">
        <ele>2221.4</ele>
        <time>2024-08-14T09:33:11Z</time>
      </trkpt>
      <trkpt lat="44.9267" lon="6.08608">
        <ele>2221.4</ele>
        <time>2024-08-14T09:33:12Z</time>
      </trkpt>
      <trkpt lat="44.9267" lon="6.08608">
        <ele>2221.6</ele>
        <time>2024-08-14T09:33:13Z</time>
      </trkpt>
      <trkpt lat="44.92672" lon="6.0861">
        <ele>2221.6</ele>
        <time>2024-08-14T09:33:14Z</time>
      </trkpt>
      <trkpt lat="44.92672" lon="6.0861">
        <ele>2221.8</ele>
        <time>2024-08-14T09:33:15Z</time>
      </trkpt>
      <trkpt lat="44.92672" lon="6.0861">
        <ele>2222</ele>
        <time>2024-08-14T09:33:16Z</time>
      </trkpt>
      <trkpt lat="44.92672" lon="6.0861">
        <ele>2222.6</ele>
        <time>2024-08-14T09:33:17Z</time>
      </trkpt>
      <trkpt lat="44.92675" lon="6.0861">
        <ele>2222.8</ele>
        <time>2024-08-14T09:33:18Z</time>
      </trkpt>
      <trkpt lat="44.92675" lon="6.0861">
        <ele>2222.8</ele>
        <time>2024-08-14T09:33:19Z</time>
      </trkpt>
      <trkpt lat="44.92675" lon="6.0861">
        <ele>2222.8</ele>
        <time>2024-08-14T09:33:20Z</time>
      </trkpt>
      <trkpt lat="44.92675" lon="6.0861">
        <ele>2223.4</ele>
        <time>2024-08-14T09:33:21Z</time>
      </trkpt>
      <trkpt lat="44.92677" lon="6.08611">
        <ele>2223.4</ele>
        <time>2024-08-14T09:33:22Z</time>
      </trkpt>
      <trkpt lat="44.92677" lon="6.08611">
        <ele>2223.4</ele>
        <time>2024-08-14T09:33:23Z</time>
      </trkpt>
      <trkpt lat="44.92677" lon="6.08611">
        <ele>2223.8</ele>
        <time>2024-08-14T09:33:24Z</time>
      </trkpt>
      <trkpt lat="44.92679" lon="6.08611">
        <ele>2223.8</ele>
        <time>2024-08-14T09:33:25Z</time>
      </trkpt>
      <trkpt lat="44.92679" lon="6.08611">
        <ele>2223.8</ele>
        <time>2024-08-14T09:33:26Z</time>
      </trkpt>
      <trkpt lat="44.92679" lon="6.08611">
        <ele>2224.2</ele>
        <time>2024-08-14T09:33:27Z</time>
      </trkpt>
      <trkpt lat="44.92681" lon="6.08612">
        <ele>2224.4</ele>
        <time>2024-08-14T09:33:28Z</time>
      </trkpt>
      <trkpt lat="44.92681" lon="6.08612">
        <ele>2224.4</ele>
        <time>2024-08-14T09:33:29Z</time>
      </trkpt>
      <trkpt lat="44.92681" lon="6.08612">
        <ele>2224.4</ele>
        <time>2024-08-14T09:33:30Z</time>
      </trkpt>
      <trkpt lat="44.92682" lon="6.08613">
        <ele>2224.8</ele>
        <time>2024-08-14T09:33:31Z</time>
      </trkpt>
      <trkpt lat="44.92682" lon="6.08613">
        <ele>2224.8</ele>
        <time>2024-08-14T09:33:32Z</time>
      </trkpt>
      <trkpt lat="44.92682" lon="6.08613">
        <ele>2224.8</ele>
        <time>2024-08-14T09:33:33Z</time>
      </trkpt>
      <trkpt lat="44.92685" lon="6.08614">
        <ele>2224.8</ele>
        <time>2024-08-14T09:33:34Z</time>
      </trkpt>
      <trkpt lat="44.92685" lon="6.08614">
        <ele>2225.2</ele>
        <time>2024-08-14T09:33:35Z</time>
      </trkpt>
      <trkpt lat="44.92685" lon="6.08614">
        <ele>2225.2</ele>
        <time>2024-08-14T09:33:36Z</time>
      </trkpt>
      <trkpt lat="44.92685" lon="6.08614">
        <ele>2225.8</ele>
        <time>2024-08-14T09:33:37Z</time>
      </trkpt>
      <trkpt lat="44.92687" lon="6.08613">
        <ele>2226.2</ele>
        <time>2024-08-14T09:33:38Z</time>
      </trkpt>
      <trkpt lat="44.92687" lon="6.08613">
        <ele>2226.4</ele>
        <time>2024-08-14T09:33:39Z</time>
      </trkpt>
      <trkpt lat="44.92687" lon="6.08613">
        <ele>2226.4</ele>
        <time>2024-08-14T09:33:40Z</time>
      </trkpt>
      <trkpt lat="44.92687" lon="6.08613">
        <ele>2226.6</ele>
        <time>2024-08-14T09:33:41Z</time>
      </trkpt>
      <trkpt lat="44.9269" lon="6.08615">
        <ele>2226.8</ele>
        <time>2024-08-14T09:33:42Z</time>
      </trkpt>
      <trkpt lat="44.9269" lon="6.08615">
        <ele>2226.8</ele>
        <time>2024-08-14T09:33:43Z</time>
      </trkpt>
      <trkpt lat="44.9269" lon="6.08615">
        <ele>2226.8</ele>
        <time>2024-08-14T09:33:44Z</time>
      </trkpt>
      <trkpt lat="44.92692" lon="6.08616">
        <ele>2227.2</ele>
        <time>2024-08-14T09:33:45Z</time>
      </trkpt>
      <trkpt lat="44.92692" lon="6.08616">
        <ele>2227.2</ele>
        <time>2024-08-14T09:33:46Z</time>
      </trkpt>
      <trkpt lat="44.92692" lon="6.08616">
        <ele>2227.4</ele>
        <time>2024-08-14T09:33:47Z</time>
      </trkpt>
      <trkpt lat="44.92694" lon="6.08617">
        <ele>2227.6</ele>
        <time>2024-08-14T09:33:48Z</time>
      </trkpt>
      <trkpt lat="44.92694" lon="6.08617">
        <ele>2227.8</ele>
        <time>2024-08-14T09:33:49Z</time>
      </trkpt>
      <trkpt lat="44.92694" lon="6.08617">
        <ele>2227.8</ele>
        <time>2024-08-14T09:33:50Z</time>
      </trkpt>
      <trkpt lat="44.92694" lon="6.08617">
        <ele>2228.2</ele>
        <time>2024-08-14T09:33:51Z</time>
      </trkpt>
      <trkpt lat="44.92696" lon="6.08618">
        <ele>2228.2</ele>
        <time>2024-08-14T09:33:52Z</time>
      </trkpt>
      <trkpt lat="44.92696" lon="6.08618">
        <ele>2228.4</ele>
        <time>2024-08-14T09:33:53Z</time>
      </trkpt>
      <trkpt lat="44.92696" lon="6.08618">
        <ele>2228.6</ele>
        <time>2024-08-14T09:33:54Z</time>
      </trkpt>
      <trkpt lat="44.92697" lon="6.08619">
        <ele>2228.8</ele>
        <time>2024-08-14T09:33:55Z</time>
      </trkpt>
      <trkpt lat="44.92697" lon="6.08619">
        <ele>2229</ele>
        <time>2024-08-14T09:33:56Z</time>
      </trkpt>
      <trkpt lat="44.92697" lon="6.08619">
        <ele>2229.4</ele>
        <time>2024-08-14T09:33:57Z</time>
      </trkpt>
      <trkpt lat="44.92697" lon="6.08619">
        <ele>2229.8</ele>
        <time>2024-08-14T09:33:58Z</time>
      </trkpt>
      <trkpt lat="44.92699" lon="6.0862">
        <ele>2229.8</ele>
        <time>2024-08-14T09:33:59Z</time>
      </trkpt>
      <trkpt lat="44.92699" lon="6.0862">
        <ele>2230</ele>
        <time>2024-08-14T09:34:00Z</time>
      </trkpt>
      <trkpt lat="44.92699" lon="6.0862">
        <ele>2230</ele>
        <time>2024-08-14T09:34:01Z</time>
      </trkpt>
      <trkpt lat="44.92699" lon="6.0862">
        <ele>2230.6</ele>
        <time>2024-08-14T09:34:02Z</time>
      </trkpt>
      <trkpt lat="44.927" lon="6.08616">
        <ele>2230.6</ele>
        <time>2024-08-14T09:34:03Z</time>
      </trkpt>
      <trkpt lat="44.927" lon="6.08616">
        <ele>2230.8</ele>
        <time>2024-08-14T09:34:04Z</time>
      </trkpt>
      <trkpt lat="44.927" lon="6.08616">
        <ele>2231</ele>
        <time>2024-08-14T09:34:05Z</time>
      </trkpt>
      <trkpt lat="44.92701" lon="6.08614">
        <ele>2231.4</ele>
        <time>2024-08-14T09:34:06Z</time>
      </trkpt>
      <trkpt lat="44.92701" lon="6.08614">
        <ele>2231.6</ele>
        <time>2024-08-14T09:34:07Z</time>
      </trkpt>
      <trkpt lat="44.92701" lon="6.08614">
        <ele>2231.6</ele>
        <time>2024-08-14T09:34:08Z</time>
      </trkpt>
      <trkpt lat="44.92701" lon="6.08614">
        <ele>2231.8</ele>
        <time>2024-08-14T09:34:09Z</time>
      </trkpt>
      <trkpt lat="44.92701" lon="6.08614">
        <ele>2231.8</ele>
        <time>2024-08-14T09:34:10Z</time>
      </trkpt>
      <trkpt lat="44.92702" lon="6.08612">
        <ele>2232</ele>
        <time>2024-08-14T09:34:11Z</time>
      </trkpt>
      <trkpt lat="44.92702" lon="6.08612">
        <ele>2232.6</ele>
        <time>2024-08-14T09:34:12Z</time>
      </trkpt>
      <trkpt lat="44.92702" lon="6.08609">
        <ele>2232.6</ele>
        <time>2024-08-14T09:34:13Z</time>
      </trkpt>
      <trkpt lat="44.92702" lon="6.08609">
        <ele>2232.8</ele>
        <time>2024-08-14T09:34:14Z</time>
      </trkpt>
      <trkpt lat="44.92704" lon="6.08607">
        <ele>2233</ele>
        <time>2024-08-14T09:34:15Z</time>
      </trkpt>
      <trkpt lat="44.92704" lon="6.08607">
        <ele>2233.2</ele>
        <time>2024-08-14T09:34:16Z</time>
      </trkpt>
      <trkpt lat="44.92704" lon="6.08607">
        <ele>2233.4</ele>
        <time>2024-08-14T09:34:17Z</time>
      </trkpt>
      <trkpt lat="44.92706" lon="6.08608">
        <ele>2233.4</ele>
        <time>2024-08-14T09:34:18Z</time>
      </trkpt>
      <trkpt lat="44.92706" lon="6.08608">
        <ele>2233.6</ele>
        <time>2024-08-14T09:34:19Z</time>
      </trkpt>
      <trkpt lat="44.92706" lon="6.08608">
        <ele>2233.8</ele>
        <time>2024-08-14T09:34:20Z</time>
      </trkpt>
      <trkpt lat="44.92708" lon="6.08609">
        <ele>2233.8</ele>
        <time>2024-08-14T09:34:21Z</time>
      </trkpt>
      <trkpt lat="44.92708" lon="6.08609">
        <ele>2233.6</ele>
        <time>2024-08-14T09:34:22Z</time>
      </trkpt>
      <trkpt lat="44.92708" lon="6.08609">
        <ele>2233.6</ele>
        <time>2024-08-14T09:34:23Z</time>
      </trkpt>
      <trkpt lat="44.92708" lon="6.08609">
        <ele>2233.8</ele>
        <time>2024-08-14T09:34:24Z</time>
      </trkpt>
      <trkpt lat="44.92708" lon="6.08609">
        <ele>2234.4</ele>
        <time>2024-08-14T09:34:25Z</time>
      </trkpt>
      <trkpt lat="44.92709" lon="6.08611">
        <ele>2234.6</ele>
        <time>2024-08-14T09:34:26Z</time>
      </trkpt>
      <trkpt lat="44.92709" lon="6.08611">
        <ele>2234.6</ele>
        <time>2024-08-14T09:34:27Z</time>
      </trkpt>
      <trkpt lat="44.92709" lon="6.08611">
        <ele>2235</ele>
        <time>2024-08-14T09:34:28Z</time>
      </trkpt>
      <trkpt lat="44.92711" lon="6.08614">
        <ele>2235.4</ele>
        <time>2024-08-14T09:34:29Z</time>
      </trkpt>
      <trkpt lat="44.92711" lon="6.08614">
        <ele>2235.4</ele>
        <time>2024-08-14T09:34:30Z</time>
      </trkpt>
      <trkpt lat="44.92713" lon="6.08616">
        <ele>2235.6</ele>
        <time>2024-08-14T09:34:31Z</time>
      </trkpt>
      <trkpt lat="44.92713" lon="6.08616">
        <ele>2235.6</ele>
        <time>2024-08-14T09:34:32Z</time>
      </trkpt>
      <trkpt lat="44.92713" lon="6.08616">
        <ele>2235.8</ele>
        <time>2024-08-14T09:34:33Z</time>
      </trkpt>
      <trkpt lat="44.92713" lon="6.08616">
        <ele>2236</ele>
        <time>2024-08-14T09:34:34Z</time>
      </trkpt>
      <trkpt lat="44.92714" lon="6.08618">
        <ele>2236.8</ele>
        <time>2024-08-14T09:34:35Z</time>
      </trkpt>
      <trkpt lat="44.92714" lon="6.08618">
        <ele>2236.8</ele>
        <time>2024-08-14T09:34:36Z</time>
      </trkpt>
      <trkpt lat="44.92714" lon="6.08618">
        <ele>2236.8</ele>
        <time>2024-08-14T09:34:37Z</time>
      </trkpt>
      <trkpt lat="44.92714" lon="6.08618">
        <ele>2237</ele>
        <time>2024-08-14T09:34:38Z</time>
      </trkpt>
      <trkpt lat="44.92715" lon="6.0862">
        <ele>2237.2</ele>
        <time>2024-08-14T09:34:39Z</time>
      </trkpt>
      <trkpt lat="44.92715" lon="6.0862">
        <ele>2237.2</ele>
        <time>2024-08-14T09:34:40Z</time>
      </trkpt>
      <trkpt lat="44.92715" lon="6.0862">
        <ele>2237.2</ele>
        <time>2024-08-14T09:34:41Z</time>
      </trkpt>
      <trkpt lat="44.92715" lon="6.0862">
        <ele>2237.8</ele>
        <time>2024-08-14T09:34:42Z</time>
      </trkpt>
      <trkpt lat="44.92717" lon="6.08623">
        <ele>2237.8</ele>
        <time>2024-08-14T09:34:43Z</time>
      </trkpt>
      <trkpt lat="44.92717" lon="6.08623">
        <ele>2238.2</ele>
        <time>2024-08-14T09:34:44Z</time>
      </trkpt>
      <trkpt lat="44.92718" lon="6.08624">
        <ele>2238.4</ele>
        <time>2024-08-14T09:34:45Z</time>
      </trkpt>
      <trkpt lat="44.92718" lon="6.08624">
        <ele>2238.8</ele>
        <time>2024-08-14T09:34:46Z</time>
      </trkpt>
      <trkpt lat="44.92718" lon="6.08624">
        <ele>2238.8</ele>
        <time>2024-08-14T09:34:47Z</time>
      </trkpt>
      <trkpt lat="44.92718" lon="6.08624">
        <ele>2239</ele>
        <time>2024-08-14T09:34:48Z</time>
      </trkpt>
      <trkpt lat="44.92721" lon="6.08625">
        <ele>2239</ele>
        <time>2024-08-14T09:34:49Z</time>
      </trkpt>
      <trkpt lat="44.92721" lon="6.08625">
        <ele>2239.2</ele>
        <time>2024-08-14T09:34:50Z</time>
      </trkpt>
      <trkpt lat="44.92721" lon="6.08625">
        <ele>2239.4</ele>
        <time>2024-08-14T09:34:51Z</time>
      </trkpt>
      <trkpt lat="44.92721" lon="6.08625">
        <ele>2240</ele>
        <time>2024-08-14T09:34:52Z</time>
      </trkpt>
      <trkpt lat="44.92722" lon="6.08626">
        <ele>2240</ele>
        <time>2024-08-14T09:34:53Z</time>
      </trkpt>
      <trkpt lat="44.92722" lon="6.08626">
        <ele>2240</ele>
        <time>2024-08-14T09:34:54Z</time>
      </trkpt>
      <trkpt lat="44.92724" lon="6.08628">
        <ele>2240.2</ele>
        <time>2024-08-14T09:34:55Z</time>
      </trkpt>
      <trkpt lat="44.92724" lon="6.08628">
        <ele>2240.4</ele>
        <time>2024-08-14T09:34:56Z</time>
      </trkpt>
      <trkpt lat="44.92724" lon="6.08628">
        <ele>2240.6</ele>
        <time>2024-08-14T09:34:57Z</time>
      </trkpt>
      <trkpt lat="44.92725" lon="6.0863">
        <ele>2241</ele>
        <time>2024-08-14T09:34:58Z</time>
      </trkpt>
      <trkpt lat="44.92725" lon="6.0863">
        <ele>2241</ele>
        <time>2024-08-14T09:34:59Z</time>
      </trkpt>
      <trkpt lat="44.92725" lon="6.0863">
        <ele>2241.2</ele>
        <time>2024-08-14T09:35:00Z</time>
      </trkpt>
      <trkpt lat="44.92726" lon="6.08632">
        <ele>2241.2</ele>
        <time>2024-08-14T09:35:01Z</time>
      </trkpt>
      <trkpt lat="44.92726" lon="6.08632">
        <ele>2242</ele>
        <time>2024-08-14T09:35:02Z</time>
      </trkpt>
      <trkpt lat="44.92726" lon="6.08632">
        <ele>2242</ele>
        <time>2024-08-14T09:35:03Z</time>
      </trkpt>
      <trkpt lat="44.92726" lon="6.08632">
        <ele>2241.6</ele>
        <time>2024-08-14T09:35:04Z</time>
      </trkpt>
      <trkpt lat="44.92726" lon="6.08632">
        <ele>2241.6</ele>
        <time>2024-08-14T09:35:05Z</time>
      </trkpt>
      <trkpt lat="44.92728" lon="6.0863">
        <ele>2242.2</ele>
        <time>2024-08-14T09:35:06Z</time>
      </trkpt>
      <trkpt lat="44.92728" lon="6.0863">
        <ele>2242.4</ele>
        <time>2024-08-14T09:35:07Z</time>
      </trkpt>
      <trkpt lat="44.92728" lon="6.0863">
        <ele>2242.6</ele>
        <time>2024-08-14T09:35:08Z</time>
      </trkpt>
      <trkpt lat="44.92728" lon="6.08627">
        <ele>2243</ele>
        <time>2024-08-14T09:35:09Z</time>
      </trkpt>
      <trkpt lat="44.92728" lon="6.08627">
        <ele>2243.2</ele>
        <time>2024-08-14T09:35:10Z</time>
      </trkpt>
      <trkpt lat="44.92729" lon="6.08624">
        <ele>2243.4</ele>
        <time>2024-08-14T09:35:11Z</time>
      </trkpt>
      <trkpt lat="44.92729" lon="6.08624">
        <ele>2243.6</ele>
        <time>2024-08-14T09:35:12Z</time>
      </trkpt>
      <trkpt lat="44.92729" lon="6.08624">
        <ele>2243.6</ele>
        <time>2024-08-14T09:35:13Z</time>
      </trkpt>
      <trkpt lat="44.92729" lon="6.08624">
        <ele>2244</ele>
        <time>2024-08-14T09:35:14Z</time>
      </trkpt>
      <trkpt lat="44.92729" lon="6.08624">
        <ele>2244</ele>
        <time>2024-08-14T09:35:15Z</time>
      </trkpt>
      <trkpt lat="44.9273" lon="6.08622">
        <ele>2244.2</ele>
        <time>2024-08-14T09:35:16Z</time>
      </trkpt>
      <trkpt lat="44.9273" lon="6.08622">
        <ele>2244.4</ele>
        <time>2024-08-14T09:35:17Z</time>
      </trkpt>
      <trkpt lat="44.9273" lon="6.08622">
        <ele>2244.8</ele>
        <time>2024-08-14T09:35:18Z</time>
      </trkpt>
      <trkpt lat="44.92732" lon="6.08621">
        <ele>2244.8</ele>
        <time>2024-08-14T09:35:19Z</time>
      </trkpt>
      <trkpt lat="44.92732" lon="6.08621">
        <ele>2245.2</ele>
        <time>2024-08-14T09:35:20Z</time>
      </trkpt>
      <trkpt lat="44.92734" lon="6.08621">
        <ele>2245.2</ele>
        <time>2024-08-14T09:35:21Z</time>
      </trkpt>
      <trkpt lat="44.92734" lon="6.08621">
        <ele>2245.6</ele>
        <time>2024-08-14T09:35:22Z</time>
      </trkpt>
      <trkpt lat="44.92734" lon="6.08621">
        <ele>2245.6</ele>
        <time>2024-08-14T09:35:23Z</time>
      </trkpt>
      <trkpt lat="44.92734" lon="6.08621">
        <ele>2245.6</ele>
        <time>2024-08-14T09:35:24Z</time>
      </trkpt>
      <trkpt lat="44.92736" lon="6.08623">
        <ele>2246.2</ele>
        <time>2024-08-14T09:35:25Z</time>
      </trkpt>
      <trkpt lat="44.92736" lon="6.08623">
        <ele>2246.2</ele>
        <time>2024-08-14T09:35:26Z</time>
      </trkpt>
      <trkpt lat="44.92736" lon="6.08623">
        <ele>2246.2</ele>
        <time>2024-08-14T09:35:27Z</time>
      </trkpt>
      <trkpt lat="44.92736" lon="6.08623">
        <ele>2246.2</ele>
        <time>2024-08-14T09:35:28Z</time>
      </trkpt>
      <trkpt lat="44.92736" lon="6.08623">
        <ele>2246.6</ele>
        <time>2024-08-14T09:35:29Z</time>
      </trkpt>
      <trkpt lat="44.92736" lon="6.08623">
        <ele>2247</ele>
        <time>2024-08-14T09:35:30Z</time>
      </trkpt>
      <trkpt lat="44.92738" lon="6.08622">
        <ele>2247</ele>
        <time>2024-08-14T09:35:31Z</time>
      </trkpt>
      <trkpt lat="44.92738" lon="6.08622">
        <ele>2247.2</ele>
        <time>2024-08-14T09:35:32Z</time>
      </trkpt>
      <trkpt lat="44.92738" lon="6.08622">
        <ele>2247.8</ele>
        <time>2024-08-14T09:35:33Z</time>
      </trkpt>
      <trkpt lat="44.92738" lon="6.08622">
        <ele>2247.8</ele>
        <time>2024-08-14T09:35:34Z</time>
      </trkpt>
      <trkpt lat="44.92739" lon="6.0862">
        <ele>2247.8</ele>
        <time>2024-08-14T09:35:35Z</time>
      </trkpt>
      <trkpt lat="44.92739" lon="6.0862">
        <ele>2248</ele>
        <time>2024-08-14T09:35:36Z</time>
      </trkpt>
      <trkpt lat="44.92739" lon="6.0862">
        <ele>2248.4</ele>
        <time>2024-08-14T09:35:37Z</time>
      </trkpt>
      <trkpt lat="44.92739" lon="6.0862">
        <ele>2248.6</ele>
        <time>2024-08-14T09:35:38Z</time>
      </trkpt>
      <trkpt lat="44.92739" lon="6.0862">
        <ele>2248.6</ele>
        <time>2024-08-14T09:35:39Z</time>
      </trkpt>
      <trkpt lat="44.92739" lon="6.0862">
        <ele>2248.6</ele>
        <time>2024-08-14T09:35:40Z</time>
      </trkpt>
      <trkpt lat="44.92739" lon="6.0862">
        <ele>2248.8</ele>
        <time>2024-08-14T09:35:41Z</time>
      </trkpt>
      <trkpt lat="44.92739" lon="6.0862">
        <ele>2249.4</ele>
        <time>2024-08-14T09:35:42Z</time>
      </trkpt>
      <trkpt lat="44.92739" lon="6.0862">
        <ele>2249.4</ele>
        <time>2024-08-14T09:35:43Z</time>
      </trkpt>
      <trkpt lat="44.92741" lon="6.0862">
        <ele>2249.4</ele>
        <time>2024-08-14T09:35:44Z</time>
      </trkpt>
      <trkpt lat="44.92741" lon="6.0862">
        <ele>2249.8</ele>
        <time>2024-08-14T09:35:45Z</time>
      </trkpt>
      <trkpt lat="44.92743" lon="6.08621">
        <ele>2249.8</ele>
        <time>2024-08-14T09:35:46Z</time>
      </trkpt>
      <trkpt lat="44.92743" lon="6.08621">
        <ele>2249.8</ele>
        <time>2024-08-14T09:35:47Z</time>
      </trkpt>
      <trkpt lat="44.92743" lon="6.08621">
        <ele>2250</ele>
        <time>2024-08-14T09:35:48Z</time>
      </trkpt>
      <trkpt lat="44.92743" lon="6.08621">
        <ele>2250.2</ele>
        <time>2024-08-14T09:35:49Z</time>
      </trkpt>
      <trkpt lat="44.92743" lon="6.08621">
        <ele>2250.4</ele>
        <time>2024-08-14T09:35:50Z</time>
      </trkpt>
      <trkpt lat="44.92744" lon="6.08618">
        <ele>2250.6</ele>
        <time>2024-08-14T09:35:51Z</time>
      </trkpt>
      <trkpt lat="44.92744" lon="6.08618">
        <ele>2250.8</ele>
        <time>2024-08-14T09:35:52Z</time>
      </trkpt>
      <trkpt lat="44.92744" lon="6.08618">
        <ele>2251</ele>
        <time>2024-08-14T09:35:53Z</time>
      </trkpt>
      <trkpt lat="44.92744" lon="6.08615">
        <ele>2251.4</ele>
        <time>2024-08-14T09:35:54Z</time>
      </trkpt>
      <trkpt lat="44.92744" lon="6.08615">
        <ele>2251.8</ele>
        <time>2024-08-14T09:35:55Z</time>
      </trkpt>
      <trkpt lat="44.92745" lon="6.08612">
        <ele>2251.8</ele>
        <time>2024-08-14T09:35:56Z</time>
      </trkpt>
      <trkpt lat="44.92745" lon="6.08612">
        <ele>2252</ele>
        <time>2024-08-14T09:35:57Z</time>
      </trkpt>
      <trkpt lat="44.92745" lon="6.08612">
        <ele>2252</ele>
        <time>2024-08-14T09:35:58Z</time>
      </trkpt>
      <trkpt lat="44.92745" lon="6.08612">
        <ele>2252.2</ele>
        <time>2024-08-14T09:35:59Z</time>
      </trkpt>
      <trkpt lat="44.92745" lon="6.08612">
        <ele>2252.4</ele>
        <time>2024-08-14T09:36:00Z</time>
      </trkpt>
      <trkpt lat="44.92745" lon="6.08612">
        <ele>2252.4</ele>
        <time>2024-08-14T09:36:01Z</time>
      </trkpt>
      <trkpt lat="44.92745" lon="6.08612">
        <ele>2253</ele>
        <time>2024-08-14T09:36:02Z</time>
      </trkpt>
      <trkpt lat="44.92748" lon="6.08614">
        <ele>2253</ele>
        <time>2024-08-14T09:36:03Z</time>
      </trkpt>
      <trkpt lat="44.92748" lon="6.08614">
        <ele>2253.2</ele>
        <time>2024-08-14T09:36:04Z</time>
      </trkpt>
      <trkpt lat="44.92749" lon="6.08616">
        <ele>2253.2</ele>
        <time>2024-08-14T09:36:05Z</time>
      </trkpt>
      <trkpt lat="44.92749" lon="6.08616">
        <ele>2253.6</ele>
        <time>2024-08-14T09:36:06Z</time>
      </trkpt>
      <trkpt lat="44.92749" lon="6.08616">
        <ele>2253.8</ele>
        <time>2024-08-14T09:36:07Z</time>
      </trkpt>
      <trkpt lat="44.9275" lon="6.08617">
        <ele>2254</ele>
        <time>2024-08-14T09:36:08Z</time>
      </trkpt>
      <trkpt lat="44.9275" lon="6.08617">
        <ele>2254</ele>
        <time>2024-08-14T09:36:09Z</time>
      </trkpt>
      <trkpt lat="44.9275" lon="6.08617">
        <ele>2254.2</ele>
        <time>2024-08-14T09:36:10Z</time>
      </trkpt>
      <trkpt lat="44.92752" lon="6.08619">
        <ele>2254.4</ele>
        <time>2024-08-14T09:36:11Z</time>
      </trkpt>
      <trkpt lat="44.92752" lon="6.08619">
        <ele>2254.8</ele>
        <time>2024-08-14T09:36:12Z</time>
      </trkpt>
      <trkpt lat="44.92752" lon="6.08619">
        <ele>2255.2</ele>
        <time>2024-08-14T09:36:13Z</time>
      </trkpt>
      <trkpt lat="44.92752" lon="6.08619">
        <ele>2255.2</ele>
        <time>2024-08-14T09:36:14Z</time>
      </trkpt>
      <trkpt lat="44.92754" lon="6.0862">
        <ele>2255.4</ele>
        <time>2024-08-14T09:36:15Z</time>
      </trkpt>
      <trkpt lat="44.92754" lon="6.0862">
        <ele>2255.6</ele>
        <time>2024-08-14T09:36:16Z</time>
      </trkpt>
      <trkpt lat="44.92754" lon="6.0862">
        <ele>2255.8</ele>
        <time>2024-08-14T09:36:17Z</time>
      </trkpt>
      <trkpt lat="44.92754" lon="6.0862">
        <ele>2256.2</ele>
        <time>2024-08-14T09:36:18Z</time>
      </trkpt>
      <trkpt lat="44.92756" lon="6.08622">
        <ele>2256.4</ele>
        <time>2024-08-14T09:36:19Z</time>
      </trkpt>
      <trkpt lat="44.92756" lon="6.08622">
        <ele>2256.6</ele>
        <time>2024-08-14T09:36:20Z</time>
      </trkpt>
      <trkpt lat="44.92756" lon="6.08622">
        <ele>2256.6</ele>
        <time>2024-08-14T09:36:21Z</time>
      </trkpt>
      <trkpt lat="44.92758" lon="6.08623">
        <ele>2256.8</ele>
        <time>2024-08-14T09:36:22Z</time>
      </trkpt>
      <trkpt lat="44.92758" lon="6.08623">
        <ele>2257</ele>
        <time>2024-08-14T09:36:23Z</time>
      </trkpt>
      <trkpt lat="44.92758" lon="6.08623">
        <ele>2257.2</ele>
        <time>2024-08-14T09:36:24Z</time>
      </trkpt>
      <trkpt lat="44.92758" lon="6.08623">
        <ele>2257.2</ele>
        <time>2024-08-14T09:36:25Z</time>
      </trkpt>
      <trkpt lat="44.9276" lon="6.08625">
        <ele>2257.4</ele>
        <time>2024-08-14T09:36:26Z</time>
      </trkpt>
      <trkpt lat="44.9276" lon="6.08625">
        <ele>2257.6</ele>
        <time>2024-08-14T09:36:27Z</time>
      </trkpt>
      <trkpt lat="44.9276" lon="6.08625">
        <ele>2258</ele>
        <time>2024-08-14T09:36:28Z</time>
      </trkpt>
      <trkpt lat="44.92761" lon="6.08627">
        <ele>2258</ele>
        <time>2024-08-14T09:36:29Z</time>
      </trkpt>
      <trkpt lat="44.92761" lon="6.08627">
        <ele>2258.4</ele>
        <time>2024-08-14T09:36:30Z</time>
      </trkpt>
      <trkpt lat="44.92761" lon="6.08627">
        <ele>2258.6</ele>
        <time>2024-08-14T09:36:31Z</time>
      </trkpt>
      <trkpt lat="44.92761" lon="6.08627">
        <ele>2258.8</ele>
        <time>2024-08-14T09:36:32Z</time>
      </trkpt>
      <trkpt lat="44.92763" lon="6.08628">
        <ele>2258.8</ele>
        <time>2024-08-14T09:36:33Z</time>
      </trkpt>
      <trkpt lat="44.92763" lon="6.08628">
        <ele>2258.8</ele>
        <time>2024-08-14T09:36:34Z</time>
      </trkpt>
      <trkpt lat="44.92763" lon="6.08628">
        <ele>2259.4</ele>
        <time>2024-08-14T09:36:35Z</time>
      </trkpt>
      <trkpt lat="44.92765" lon="6.08629">
        <ele>2259.4</ele>
        <time>2024-08-14T09:36:36Z</time>
      </trkpt>
      <trkpt lat="44.92765" lon="6.08629">
        <ele>2259.6</ele>
        <time>2024-08-14T09:36:37Z</time>
      </trkpt>
      <trkpt lat="44.92765" lon="6.08629">
        <ele>2260.2</ele>
        <time>2024-08-14T09:36:38Z</time>
      </trkpt>
      <trkpt lat="44.92765" lon="6.08629">
        <ele>2260.4</ele>
        <time>2024-08-14T09:36:39Z</time>
      </trkpt>
      <trkpt lat="44.92767" lon="6.08632">
        <ele>2260.4</ele>
        <time>2024-08-14T09:36:40Z</time>
      </trkpt>
      <trkpt lat="44.92767" lon="6.08632">
        <ele>2260.6</ele>
        <time>2024-08-14T09:36:41Z</time>
      </trkpt>
      <trkpt lat="44.92767" lon="6.08632">
        <ele>2260.6</ele>
        <time>2024-08-14T09:36:42Z</time>
      </trkpt>
      <trkpt lat="44.92768" lon="6.08634">
        <ele>2261.2</ele>
        <time>2024-08-14T09:36:43Z</time>
      </trkpt>
      <trkpt lat="44.92768" lon="6.08634">
        <ele>2261.2</ele>
        <time>2024-08-14T09:36:44Z</time>
      </trkpt>
      <trkpt lat="44.9277" lon="6.08636">
        <ele>2261.4</ele>
        <time>2024-08-14T09:36:45Z</time>
      </trkpt>
      <trkpt lat="44.9277" lon="6.08636">
        <ele>2261.6</ele>
        <time>2024-08-14T09:36:46Z</time>
      </trkpt>
      <trkpt lat="44.9277" lon="6.08636">
        <ele>2261.8</ele>
        <time>2024-08-14T09:36:47Z</time>
      </trkpt>
      <trkpt lat="44.9277" lon="6.08636">
        <ele>2262.2</ele>
        <time>2024-08-14T09:36:48Z</time>
      </trkpt>
      <trkpt lat="44.9277" lon="6.08636">
        <ele>2262.2</ele>
        <time>2024-08-14T09:36:49Z</time>
      </trkpt>
      <trkpt lat="44.9277" lon="6.08636">
        <ele>2262.4</ele>
        <time>2024-08-14T09:36:50Z</time>
      </trkpt>
      <trkpt lat="44.9277" lon="6.08636">
        <ele>2262.4</ele>
        <time>2024-08-14T09:36:51Z</time>
      </trkpt>
      <trkpt lat="44.9277" lon="6.08632">
        <ele>2262.8</ele>
        <time>2024-08-14T09:36:52Z</time>
      </trkpt>
      <trkpt lat="44.9277" lon="6.08632">
        <ele>2263</ele>
        <time>2024-08-14T09:36:53Z</time>
      </trkpt>
      <trkpt lat="44.9277" lon="6.08632">
        <ele>2263.2</ele>
        <time>2024-08-14T09:36:54Z</time>
      </trkpt>
      <trkpt lat="44.9277" lon="6.08629">
        <ele>2263.4</ele>
        <time>2024-08-14T09:36:55Z</time>
      </trkpt>
      <trkpt lat="44.9277" lon="6.08629">
        <ele>2263.6</ele>
        <time>2024-08-14T09:36:56Z</time>
      </trkpt>
      <trkpt lat="44.9277" lon="6.08629">
        <ele>2263.8</ele>
        <time>2024-08-14T09:36:57Z</time>
      </trkpt>
      <trkpt lat="44.9277" lon="6.08629">
        <ele>2263.8</ele>
        <time>2024-08-14T09:36:58Z</time>
      </trkpt>
      <trkpt lat="44.9277" lon="6.08629">
        <ele>2263.8</ele>
        <time>2024-08-14T09:36:59Z</time>
      </trkpt>
      <trkpt lat="44.9277" lon="6.08629">
        <ele>2264.4</ele>
        <time>2024-08-14T09:37:00Z</time>
      </trkpt>
      <trkpt lat="44.9277" lon="6.08629">
        <ele>2264.8</ele>
        <time>2024-08-14T09:37:01Z</time>
      </trkpt>
      <trkpt lat="44.9277" lon="6.08629">
        <ele>2264.8</ele>
        <time>2024-08-14T09:37:02Z</time>
      </trkpt>
      <trkpt lat="44.92771" lon="6.08627">
        <ele>2264.8</ele>
        <time>2024-08-14T09:37:03Z</time>
      </trkpt>
      <trkpt lat="44.92771" lon="6.08627">
        <ele>2265.2</ele>
        <time>2024-08-14T09:37:04Z</time>
      </trkpt>
      <trkpt lat="44.92771" lon="6.08624">
        <ele>2265.2</ele>
        <time>2024-08-14T09:37:05Z</time>
      </trkpt>
      <trkpt lat="44.92771" lon="6.08624">
        <ele>2265.4</ele>
        <time>2024-08-14T09:37:06Z</time>
      </trkpt>
      <trkpt lat="44.92772" lon="6.0862">
        <ele>2265.6</ele>
        <time>2024-08-14T09:37:07Z</time>
      </trkpt>
      <trkpt lat="44.92772" lon="6.0862">
        <ele>2265.8</ele>
        <time>2024-08-14T09:37:08Z</time>
      </trkpt>
      <trkpt lat="44.92772" lon="6.08616">
        <ele>2266</ele>
        <time>2024-08-14T09:37:09Z</time>
      </trkpt>
      <trkpt lat="44.92772" lon="6.08616">
        <ele>2266</ele>
        <time>2024-08-14T09:37:10Z</time>
      </trkpt>
      <trkpt lat="44.92772" lon="6.08616">
        <ele>2266.6</ele>
        <time>2024-08-14T09:37:11Z</time>
      </trkpt>
      <trkpt lat="44.92773" lon="6.08614">
        <ele>2266.8</ele>
        <time>2024-08-14T09:37:12Z</time>
      </trkpt>
      <trkpt lat="44.92773" lon="6.08614">
        <ele>2266.8</ele>
        <time>2024-08-14T09:37:13Z</time>
      </trkpt>
      <trkpt lat="44.92775" lon="6.08613">
        <ele>2266.8</ele>
        <time>2024-08-14T09:37:14Z</time>
      </trkpt>
      <trkpt lat="44.92775" lon="6.08613">
        <ele>2267</ele>
        <time>2024-08-14T09:37:15Z</time>
      </trkpt>
      <trkpt lat="44.92775" lon="6.08613">
        <ele>2267.2</ele>
        <time>2024-08-14T09:37:16Z</time>
      </trkpt>
      <trkpt lat="44.92775" lon="6.08613">
        <ele>2267.4</ele>
        <time>2024-08-14T09:37:17Z</time>
      </trkpt>
      <trkpt lat="44.92777" lon="6.08615">
        <ele>2267.4</ele>
        <time>2024-08-14T09:37:18Z</time>
      </trkpt>
      <trkpt lat="44.92777" lon="6.08615">
        <ele>2267.6</ele>
        <time>2024-08-14T09:37:19Z</time>
      </trkpt>
      <trkpt lat="44.92777" lon="6.08615">
        <ele>2268</ele>
        <time>2024-08-14T09:37:20Z</time>
      </trkpt>
      <trkpt lat="44.92777" lon="6.08615">
        <ele>2268</ele>
        <time>2024-08-14T09:37:21Z</time>
      </trkpt>
      <trkpt lat="44.92778" lon="6.08617">
        <ele>2268.4</ele>
        <time>2024-08-14T09:37:22Z</time>
      </trkpt>
      <trkpt lat="44.92778" lon="6.08617">
        <ele>2268.4</ele>
        <time>2024-08-14T09:37:23Z</time>
      </trkpt>
      <trkpt lat="44.92778" lon="6.08617">
        <ele>2268.6</ele>
        <time>2024-08-14T09:37:24Z</time>
      </trkpt>
      <trkpt lat="44.92779" lon="6.08619">
        <ele>2269</ele>
        <time>2024-08-14T09:37:25Z</time>
      </trkpt>
      <trkpt lat="44.92779" lon="6.08619">
        <ele>2269</ele>
        <time>2024-08-14T09:37:26Z</time>
      </trkpt>
      <trkpt lat="44.92779" lon="6.08619">
        <ele>2269.4</ele>
        <time>2024-08-14T09:37:27Z</time>
      </trkpt>
      <trkpt lat="44.92779" lon="6.08619">
        <ele>2269.4</ele>
        <time>2024-08-14T09:37:28Z</time>
      </trkpt>
      <trkpt lat="44.92779" lon="6.08619">
        <ele>2269.6</ele>
        <time>2024-08-14T09:37:29Z</time>
      </trkpt>
      <trkpt lat="44.92781" lon="6.0862">
        <ele>2269.8</ele>
        <time>2024-08-14T09:37:30Z</time>
      </trkpt>
      <trkpt lat="44.92781" lon="6.0862">
        <ele>2270.2</ele>
        <time>2024-08-14T09:37:31Z</time>
      </trkpt>
      <trkpt lat="44.92781" lon="6.0862">
        <ele>2270.4</ele>
        <time>2024-08-14T09:37:32Z</time>
      </trkpt>
      <trkpt lat="44.92783" lon="6.08622">
        <ele>2270.4</ele>
        <time>2024-08-14T09:37:33Z</time>
      </trkpt>
      <trkpt lat="44.92783" lon="6.08622">
        <ele>2270.4</ele>
        <time>2024-08-14T09:37:34Z</time>
      </trkpt>
      <trkpt lat="44.92783" lon="6.08622">
        <ele>2270.8</ele>
        <time>2024-08-14T09:37:35Z</time>
      </trkpt>
      <trkpt lat="44.92784" lon="6.08624">
        <ele>2271.2</ele>
        <time>2024-08-14T09:37:36Z</time>
      </trkpt>
      <trkpt lat="44.92784" lon="6.08624">
        <ele>2271.2</ele>
        <time>2024-08-14T09:37:37Z</time>
      </trkpt>
      <trkpt lat="44.92786" lon="6.08625">
        <ele>2271.4</ele>
        <time>2024-08-14T09:37:38Z</time>
      </trkpt>
      <trkpt lat="44.92786" lon="6.08625">
        <ele>2271.6</ele>
        <time>2024-08-14T09:37:39Z</time>
      </trkpt>
      <trkpt lat="44.92786" lon="6.08625">
        <ele>2271.8</ele>
        <time>2024-08-14T09:37:40Z</time>
      </trkpt>
      <trkpt lat="44.92787" lon="6.08627">
        <ele>2272</ele>
        <time>2024-08-14T09:37:41Z</time>
      </trkpt>
      <trkpt lat="44.92787" lon="6.08627">
        <ele>2272.4</ele>
        <time>2024-08-14T09:37:42Z</time>
      </trkpt>
      <trkpt lat="44.92787" lon="6.08627">
        <ele>2272.4</ele>
        <time>2024-08-14T09:37:43Z</time>
      </trkpt>
      <trkpt lat="44.92789" lon="6.08629">
        <ele>2272.4</ele>
        <time>2024-08-14T09:37:44Z</time>
      </trkpt>
      <trkpt lat="44.92789" lon="6.08629">
        <ele>2272.4</ele>
        <time>2024-08-14T09:37:45Z</time>
      </trkpt>
      <trkpt lat="44.92791" lon="6.0863">
        <ele>2272.6</ele>
        <time>2024-08-14T09:37:46Z</time>
      </trkpt>
      <trkpt lat="44.92791" lon="6.0863">
        <ele>2273</ele>
        <time>2024-08-14T09:37:47Z</time>
      </trkpt>
      <trkpt lat="44.92791" lon="6.0863">
        <ele>2273.2</ele>
        <time>2024-08-14T09:37:48Z</time>
      </trkpt>
      <trkpt lat="44.92791" lon="6.0863">
        <ele>2273.2</ele>
        <time>2024-08-14T09:37:49Z</time>
      </trkpt>
      <trkpt lat="44.92793" lon="6.08632">
        <ele>2273.8</ele>
        <time>2024-08-14T09:37:50Z</time>
      </trkpt>
      <trkpt lat="44.92793" lon="6.08632">
        <ele>2273.8</ele>
        <time>2024-08-14T09:37:51Z</time>
      </trkpt>
      <trkpt lat="44.92793" lon="6.08632">
        <ele>2273.8</ele>
        <time>2024-08-14T09:37:52Z</time>
      </trkpt>
      <trkpt lat="44.92793" lon="6.08632">
        <ele>2273.8</ele>
        <time>2024-08-14T09:37:53Z</time>
      </trkpt>
      <trkpt lat="44.92795" lon="6.08634">
        <ele>2273.8</ele>
        <time>2024-08-14T09:37:54Z</time>
      </trkpt>
      <trkpt lat="44.92795" lon="6.08634">
        <ele>2274</ele>
        <time>2024-08-14T09:37:55Z</time>
      </trkpt>
      <trkpt lat="44.92795" lon="6.08634">
        <ele>2274.4</ele>
        <time>2024-08-14T09:37:56Z</time>
      </trkpt>
      <trkpt lat="44.92795" lon="6.08634">
        <ele>2274.6</ele>
        <time>2024-08-14T09:37:57Z</time>
      </trkpt>
      <trkpt lat="44.92796" lon="6.08637">
        <ele>2274.6</ele>
        <time>2024-08-14T09:37:58Z</time>
      </trkpt>
      <trkpt lat="44.92796" lon="6.08637">
        <ele>2274.6</ele>
        <time>2024-08-14T09:37:59Z</time>
      </trkpt>
      <trkpt lat="44.92796" lon="6.08637">
        <ele>2274.8</ele>
        <time>2024-08-14T09:38:00Z</time>
      </trkpt>
      <trkpt lat="44.92796" lon="6.08637">
        <ele>2274.8</ele>
        <time>2024-08-14T09:38:01Z</time>
      </trkpt>
      <trkpt lat="44.92797" lon="6.08639">
        <ele>2275.2</ele>
        <time>2024-08-14T09:38:02Z</time>
      </trkpt>
      <trkpt lat="44.92797" lon="6.08639">
        <ele>2275.2</ele>
        <time>2024-08-14T09:38:03Z</time>
      </trkpt>
      <trkpt lat="44.92797" lon="6.08639">
        <ele>2275.2</ele>
        <time>2024-08-14T09:38:04Z</time>
      </trkpt>
      <trkpt lat="44.92799" lon="6.08641">
        <ele>2275.6</ele>
        <time>2024-08-14T09:38:05Z</time>
      </trkpt>
      <trkpt lat="44.92799" lon="6.08641">
        <ele>2275.6</ele>
        <time>2024-08-14T09:38:06Z</time>
      </trkpt>
      <trkpt lat="44.92799" lon="6.08641">
        <ele>2275.6</ele>
        <time>2024-08-14T09:38:07Z</time>
      </trkpt>
      <trkpt lat="44.92799" lon="6.08641">
        <ele>2276.4</ele>
        <time>2024-08-14T09:38:08Z</time>
      </trkpt>
      <trkpt lat="44.92801" lon="6.08644">
        <ele>2276.4</ele>
        <time>2024-08-14T09:38:09Z</time>
      </trkpt>
      <trkpt lat="44.92801" lon="6.08644">
        <ele>2276.4</ele>
        <time>2024-08-14T09:38:10Z</time>
      </trkpt>
      <trkpt lat="44.92801" lon="6.08644">
        <ele>2276.6</ele>
        <time>2024-08-14T09:38:11Z</time>
      </trkpt>
      <trkpt lat="44.92802" lon="6.08646">
        <ele>2276.8</ele>
        <time>2024-08-14T09:38:12Z</time>
      </trkpt>
      <trkpt lat="44.92802" lon="6.08646">
        <ele>2277</ele>
        <time>2024-08-14T09:38:13Z</time>
      </trkpt>
      <trkpt lat="44.92802" lon="6.08646">
        <ele>2277.2</ele>
        <time>2024-08-14T09:38:14Z</time>
      </trkpt>
      <trkpt lat="44.92803" lon="6.08648">
        <ele>2277.2</ele>
        <time>2024-08-14T09:38:15Z</time>
      </trkpt>
      <trkpt lat="44.92803" lon="6.08648">
        <ele>2277.4</ele>
        <time>2024-08-14T09:38:16Z</time>
      </trkpt>
      <trkpt lat="44.92803" lon="6.08648">
        <ele>2277.6</ele>
        <time>2024-08-14T09:38:17Z</time>
      </trkpt>
      <trkpt lat="44.92804" lon="6.08651">
        <ele>2277.6</ele>
        <time>2024-08-14T09:38:18Z</time>
      </trkpt>
      <trkpt lat="44.92804" lon="6.08651">
        <ele>2277.6</ele>
        <time>2024-08-14T09:38:19Z</time>
      </trkpt>
      <trkpt lat="44.92805" lon="6.08653">
        <ele>2277.6</ele>
        <time>2024-08-14T09:38:20Z</time>
      </trkpt>
      <trkpt lat="44.92805" lon="6.08653">
        <ele>2278</ele>
        <time>2024-08-14T09:38:21Z</time>
      </trkpt>
      <trkpt lat="44.92805" lon="6.08653">
        <ele>2278</ele>
        <time>2024-08-14T09:38:22Z</time>
      </trkpt>
      <trkpt lat="44.92805" lon="6.08653">
        <ele>2278.4</ele>
        <time>2024-08-14T09:38:23Z</time>
      </trkpt>
      <trkpt lat="44.92807" lon="6.08655">
        <ele>2278.6</ele>
        <time>2024-08-14T09:38:24Z</time>
      </trkpt>
      <trkpt lat="44.92807" lon="6.08655">
        <ele>2278.8</ele>
        <time>2024-08-14T09:38:25Z</time>
      </trkpt>
      <trkpt lat="44.92807" lon="6.08655">
        <ele>2279.2</ele>
        <time>2024-08-14T09:38:26Z</time>
      </trkpt>
      <trkpt lat="44.92807" lon="6.08655">
        <ele>2279.2</ele>
        <time>2024-08-14T09:38:27Z</time>
      </trkpt>
      <trkpt lat="44.92807" lon="6.08658">
        <ele>2279.4</ele>
        <time>2024-08-14T09:38:28Z</time>
      </trkpt>
      <trkpt lat="44.92807" lon="6.08658">
        <ele>2279.6</ele>
        <time>2024-08-14T09:38:29Z</time>
      </trkpt>
      <trkpt lat="44.92807" lon="6.08658">
        <ele>2279.8</ele>
        <time>2024-08-14T09:38:30Z</time>
      </trkpt>
      <trkpt lat="44.92807" lon="6.08658">
        <ele>2280</ele>
        <time>2024-08-14T09:38:31Z</time>
      </trkpt>
      <trkpt lat="44.92807" lon="6.08658">
        <ele>2280</ele>
        <time>2024-08-14T09:38:32Z</time>
      </trkpt>
      <trkpt lat="44.92807" lon="6.08658">
        <ele>2280.2</ele>
        <time>2024-08-14T09:38:33Z</time>
      </trkpt>
      <trkpt lat="44.92809" lon="6.08656">
        <ele>2280.4</ele>
        <time>2024-08-14T09:38:34Z</time>
      </trkpt>
      <trkpt lat="44.92809" lon="6.08656">
        <ele>2280.6</ele>
        <time>2024-08-14T09:38:35Z</time>
      </trkpt>
      <trkpt lat="44.92809" lon="6.08656">
        <ele>2280.8</ele>
        <time>2024-08-14T09:38:36Z</time>
      </trkpt>
      <trkpt lat="44.9281" lon="6.08653">
        <ele>2280.8</ele>
        <time>2024-08-14T09:38:37Z</time>
      </trkpt>
      <trkpt lat="44.9281" lon="6.08653">
        <ele>2281.4</ele>
        <time>2024-08-14T09:38:38Z</time>
      </trkpt>
      <trkpt lat="44.9281" lon="6.08653">
        <ele>2281.4</ele>
        <time>2024-08-14T09:38:39Z</time>
      </trkpt>
      <trkpt lat="44.9281" lon="6.08653">
        <ele>2281.4</ele>
        <time>2024-08-14T09:38:40Z</time>
      </trkpt>
      <trkpt lat="44.9281" lon="6.08653">
        <ele>2281.6</ele>
        <time>2024-08-14T09:38:41Z</time>
      </trkpt>
      <trkpt lat="44.9281" lon="6.08653">
        <ele>2281.8</ele>
        <time>2024-08-14T09:38:42Z</time>
      </trkpt>
      <trkpt lat="44.9281" lon="6.08653">
        <ele>2281.8</ele>
        <time>2024-08-14T09:38:43Z</time>
      </trkpt>
      <trkpt lat="44.92811" lon="6.08651">
        <ele>2282.4</ele>
        <time>2024-08-14T09:38:44Z</time>
      </trkpt>
      <trkpt lat="44.92811" lon="6.08651">
        <ele>2282.4</ele>
        <time>2024-08-14T09:38:45Z</time>
      </trkpt>
      <trkpt lat="44.92811" lon="6.08651">
        <ele>2282.4</ele>
        <time>2024-08-14T09:38:46Z</time>
      </trkpt>
      <trkpt lat="44.92811" lon="6.08648">
        <ele>2282.6</ele>
        <time>2024-08-14T09:38:47Z</time>
      </trkpt>
      <trkpt lat="44.92811" lon="6.08648">
        <ele>2283</ele>
        <time>2024-08-14T09:38:48Z</time>
      </trkpt>
      <trkpt lat="44.92812" lon="6.08645">
        <ele>2283</ele>
        <time>2024-08-14T09:38:49Z</time>
      </trkpt>
      <trkpt lat="44.92812" lon="6.08645">
        <ele>2283</ele>
        <time>2024-08-14T09:38:50Z</time>
      </trkpt>
      <trkpt lat="44.92812" lon="6.08642">
        <ele>2283.4</ele>
        <time>2024-08-14T09:38:51Z</time>
      </trkpt>
      <trkpt lat="44.92812" lon="6.08642">
        <ele>2283.6</ele>
        <time>2024-08-14T09:38:52Z</time>
      </trkpt>
      <trkpt lat="44.92812" lon="6.08642">
        <ele>2283.8</ele>
        <time>2024-08-14T09:38:53Z</time>
      </trkpt>
      <trkpt lat="44.92814" lon="6.0864">
        <ele>2283.8</ele>
        <time>2024-08-14T09:38:54Z</time>
      </trkpt>
      <trkpt lat="44.92814" lon="6.0864">
        <ele>2284</ele>
        <time>2024-08-14T09:38:55Z</time>
      </trkpt>
      <trkpt lat="44.92814" lon="6.0864">
        <ele>2284.4</ele>
        <time>2024-08-14T09:38:56Z</time>
      </trkpt>
      <trkpt lat="44.92816" lon="6.08642">
        <ele>2284.4</ele>
        <time>2024-08-14T09:38:57Z</time>
      </trkpt>
      <trkpt lat="44.92816" lon="6.08642">
        <ele>2284.4</ele>
        <time>2024-08-14T09:38:58Z</time>
      </trkpt>
      <trkpt lat="44.92816" lon="6.08642">
        <ele>2284.8</ele>
        <time>2024-08-14T09:38:59Z</time>
      </trkpt>
      <trkpt lat="44.92816" lon="6.08642">
        <ele>2285</ele>
        <time>2024-08-14T09:39:00Z</time>
      </trkpt>
      <trkpt lat="44.92816" lon="6.08642">
        <ele>2285</ele>
        <time>2024-08-14T09:39:01Z</time>
      </trkpt>
      <trkpt lat="44.92816" lon="6.08642">
        <ele>2285.6</ele>
        <time>2024-08-14T09:39:02Z</time>
      </trkpt>
      <trkpt lat="44.92816" lon="6.08642">
        <ele>2285.8</ele>
        <time>2024-08-14T09:39:03Z</time>
      </trkpt>
      <trkpt lat="44.92817" lon="6.08645">
        <ele>2285.8</ele>
        <time>2024-08-14T09:39:04Z</time>
      </trkpt>
      <trkpt lat="44.92817" lon="6.08645">
        <ele>2285.8</ele>
        <time>2024-08-14T09:39:05Z</time>
      </trkpt>
      <trkpt lat="44.92817" lon="6.08645">
        <ele>2286</ele>
        <time>2024-08-14T09:39:06Z</time>
      </trkpt>
      <trkpt lat="44.92819" lon="6.08647">
        <ele>2286.4</ele>
        <time>2024-08-14T09:39:07Z</time>
      </trkpt>
      <trkpt lat="44.92819" lon="6.08647">
        <ele>2286.8</ele>
        <time>2024-08-14T09:39:08Z</time>
      </trkpt>
      <trkpt lat="44.92819" lon="6.08647">
        <ele>2286.8</ele>
        <time>2024-08-14T09:39:09Z</time>
      </trkpt>
      <trkpt lat="44.92819" lon="6.08647">
        <ele>2286.8</ele>
        <time>2024-08-14T09:39:10Z</time>
      </trkpt>
      <trkpt lat="44.92819" lon="6.08647">
        <ele>2287.4</ele>
        <time>2024-08-14T09:39:11Z</time>
      </trkpt>
      <trkpt lat="44.9282" lon="6.08649">
        <ele>2287.4</ele>
        <time>2024-08-14T09:39:12Z</time>
      </trkpt>
      <trkpt lat="44.9282" lon="6.08649">
        <ele>2287.4</ele>
        <time>2024-08-14T09:39:13Z</time>
      </trkpt>
      <trkpt lat="44.92821" lon="6.08651">
        <ele>2287.4</ele>
        <time>2024-08-14T09:39:14Z</time>
      </trkpt>
      <trkpt lat="44.92821" lon="6.08651">
        <ele>2287.6</ele>
        <time>2024-08-14T09:39:15Z</time>
      </trkpt>
      <trkpt lat="44.92821" lon="6.08651">
        <ele>2288.4</ele>
        <time>2024-08-14T09:39:16Z</time>
      </trkpt>
      <trkpt lat="44.92823" lon="6.08653">
        <ele>2288.6</ele>
        <time>2024-08-14T09:39:17Z</time>
      </trkpt>
      <trkpt lat="44.92823" lon="6.08653">
        <ele>2288.6</ele>
        <time>2024-08-14T09:39:18Z</time>
      </trkpt>
      <trkpt lat="44.92824" lon="6.08655">
        <ele>2289</ele>
        <time>2024-08-14T09:39:19Z</time>
      </trkpt>
      <trkpt lat="44.92824" lon="6.08655">
        <ele>2289.2</ele>
        <time>2024-08-14T09:39:20Z</time>
      </trkpt>
      <trkpt lat="44.92824" lon="6.08655">
        <ele>2289.2</ele>
        <time>2024-08-14T09:39:21Z</time>
      </trkpt>
      <trkpt lat="44.92825" lon="6.08658">
        <ele>2289.4</ele>
        <time>2024-08-14T09:39:22Z</time>
      </trkpt>
      <trkpt lat="44.92825" lon="6.08658">
        <ele>2289.4</ele>
        <time>2024-08-14T09:39:23Z</time>
      </trkpt>
      <trkpt lat="44.92825" lon="6.08658">
        <ele>2289.6</ele>
        <time>2024-08-14T09:39:24Z</time>
      </trkpt>
      <trkpt lat="44.92825" lon="6.08658">
        <ele>2289.8</ele>
        <time>2024-08-14T09:39:25Z</time>
      </trkpt>
      <trkpt lat="44.92825" lon="6.08658">
        <ele>2289.8</ele>
        <time>2024-08-14T09:39:26Z</time>
      </trkpt>
      <trkpt lat="44.92825" lon="6.08658">
        <ele>2290.2</ele>
        <time>2024-08-14T09:39:27Z</time>
      </trkpt>
      <trkpt lat="44.92825" lon="6.08658">
        <ele>2290.6</ele>
        <time>2024-08-14T09:39:28Z</time>
      </trkpt>
      <trkpt lat="44.92826" lon="6.08655">
        <ele>2291</ele>
        <time>2024-08-14T09:39:29Z</time>
      </trkpt>
      <trkpt lat="44.92826" lon="6.08655">
        <ele>2291</ele>
        <time>2024-08-14T09:39:30Z</time>
      </trkpt>
      <trkpt lat="44.92826" lon="6.08655">
        <ele>2291.2</ele>
        <time>2024-08-14T09:39:31Z</time>
      </trkpt>
      <trkpt lat="44.92827" lon="6.08653">
        <ele>2291.6</ele>
        <time>2024-08-14T09:39:32Z</time>
      </trkpt>
      <trkpt lat="44.92827" lon="6.08653">
        <ele>2291.6</ele>
        <time>2024-08-14T09:39:33Z</time>
      </trkpt>
      <trkpt lat="44.92827" lon="6.08653">
        <ele>2291.6</ele>
        <time>2024-08-14T09:39:34Z</time>
      </trkpt>
      <trkpt lat="44.92827" lon="6.08653">
        <ele>2291.8</ele>
        <time>2024-08-14T09:39:35Z</time>
      </trkpt>
      <trkpt lat="44.92827" lon="6.08653">
        <ele>2291.8</ele>
        <time>2024-08-14T09:39:36Z</time>
      </trkpt>
      <trkpt lat="44.92827" lon="6.08653">
        <ele>2292.2</ele>
        <time>2024-08-14T09:39:37Z</time>
      </trkpt>
      <trkpt lat="44.92827" lon="6.08653">
        <ele>2292.4</ele>
        <time>2024-08-14T09:39:38Z</time>
      </trkpt>
      <trkpt lat="44.92827" lon="6.08653">
        <ele>2292.4</ele>
        <time>2024-08-14T09:39:39Z</time>
      </trkpt>
      <trkpt lat="44.92827" lon="6.08653">
        <ele>2292.4</ele>
        <time>2024-08-14T09:39:40Z</time>
      </trkpt>
      <trkpt lat="44.92827" lon="6.08653">
        <ele>2292.6</ele>
        <time>2024-08-14T09:39:41Z</time>
      </trkpt>
      <trkpt lat="44.92827" lon="6.08653">
        <ele>2293.2</ele>
        <time>2024-08-14T09:39:42Z</time>
      </trkpt>
      <trkpt lat="44.92827" lon="6.08653">
        <ele>2293.2</ele>
        <time>2024-08-14T09:39:43Z</time>
      </trkpt>
      <trkpt lat="44.92827" lon="6.08653">
        <ele>2293.2</ele>
        <time>2024-08-14T09:39:44Z</time>
      </trkpt>
      <trkpt lat="44.92827" lon="6.08653">
        <ele>2293.2</ele>
        <time>2024-08-14T09:39:45Z</time>
      </trkpt>
      <trkpt lat="44.92827" lon="6.08653">
        <ele>2293.2</ele>
        <time>2024-08-14T09:39:46Z</time>
      </trkpt>
      <trkpt lat="44.92827" lon="6.08653">
        <ele>2293.6</ele>
        <time>2024-08-14T09:39:47Z</time>
      </trkpt>
      <trkpt lat="44.92827" lon="6.08653">
        <ele>2293.8</ele>
        <time>2024-08-14T09:39:48Z</time>
      </trkpt>
      <trkpt lat="44.92827" lon="6.08653">
        <ele>2294</ele>
        <time>2024-08-14T09:39:49Z</time>
      </trkpt>
      <trkpt lat="44.92829" lon="6.08651">
        <ele>2294</ele>
        <time>2024-08-14T09:39:50Z</time>
      </trkpt>
      <trkpt lat="44.92829" lon="6.08651">
        <ele>2294</ele>
        <time>2024-08-14T09:39:51Z</time>
      </trkpt>
      <trkpt lat="44.92831" lon="6.08653">
        <ele>2294.2</ele>
        <time>2024-08-14T09:39:52Z</time>
      </trkpt>
      <trkpt lat="44.92831" lon="6.08653">
        <ele>2294.8</ele>
        <time>2024-08-14T09:39:53Z</time>
      </trkpt>
      <trkpt lat="44.92834" lon="6.08655">
        <ele>2294.8</ele>
        <time>2024-08-14T09:39:54Z</time>
      </trkpt>
      <trkpt lat="44.92834" lon="6.08655">
        <ele>2294.8</ele>
        <time>2024-08-14T09:39:55Z</time>
      </trkpt>
      <trkpt lat="44.92834" lon="6.08655">
        <ele>2295</ele>
        <time>2024-08-14T09:39:56Z</time>
      </trkpt>
      <trkpt lat="44.92836" lon="6.08657">
        <ele>2295.6</ele>
        <time>2024-08-14T09:39:57Z</time>
      </trkpt>
      <trkpt lat="44.92836" lon="6.08657">
        <ele>2295.8</ele>
        <time>2024-08-14T09:39:58Z</time>
      </trkpt>
      <trkpt lat="44.92836" lon="6.08657">
        <ele>2295.8</ele>
        <time>2024-08-14T09:39:59Z</time>
      </trkpt>
      <trkpt lat="44.92836" lon="6.08657">
        <ele>2296.2</ele>
        <time>2024-08-14T09:40:00Z</time>
      </trkpt>
      <trkpt lat="44.92837" lon="6.08658">
        <ele>2296.4</ele>
        <time>2024-08-14T09:40:01Z</time>
      </trkpt>
      <trkpt lat="44.92837" lon="6.08658">
        <ele>2296.4</ele>
        <time>2024-08-14T09:40:02Z</time>
      </trkpt>
      <trkpt lat="44.92837" lon="6.08658">
        <ele>2296.4</ele>
        <time>2024-08-14T09:40:03Z</time>
      </trkpt>
      <trkpt lat="44.92837" lon="6.08658">
        <ele>2296.6</ele>
        <time>2024-08-14T09:40:04Z</time>
      </trkpt>
      <trkpt lat="44.92837" lon="6.08658">
        <ele>2296.8</ele>
        <time>2024-08-14T09:40:05Z</time>
      </trkpt>
      <trkpt lat="44.9284" lon="6.08659">
        <ele>2297</ele>
        <time>2024-08-14T09:40:06Z</time>
      </trkpt>
      <trkpt lat="44.9284" lon="6.08659">
        <ele>2297.4</ele>
        <time>2024-08-14T09:40:07Z</time>
      </trkpt>
      <trkpt lat="44.9284" lon="6.08659">
        <ele>2297.8</ele>
        <time>2024-08-14T09:40:08Z</time>
      </trkpt>
      <trkpt lat="44.92841" lon="6.0866">
        <ele>2298</ele>
        <time>2024-08-14T09:40:09Z</time>
      </trkpt>
      <trkpt lat="44.92841" lon="6.0866">
        <ele>2298.2</ele>
        <time>2024-08-14T09:40:10Z</time>
      </trkpt>
      <trkpt lat="44.92841" lon="6.0866">
        <ele>2298.2</ele>
        <time>2024-08-14T09:40:11Z</time>
      </trkpt>
      <trkpt lat="44.92843" lon="6.08661">
        <ele>2298.2</ele>
        <time>2024-08-14T09:40:12Z</time>
      </trkpt>
      <trkpt lat="44.92843" lon="6.08661">
        <ele>2298.4</ele>
        <time>2024-08-14T09:40:13Z</time>
      </trkpt>
      <trkpt lat="44.92843" lon="6.08661">
        <ele>2298.8</ele>
        <time>2024-08-14T09:40:14Z</time>
      </trkpt>
      <trkpt lat="44.92843" lon="6.08661">
        <ele>2298.8</ele>
        <time>2024-08-14T09:40:15Z</time>
      </trkpt>
      <trkpt lat="44.92843" lon="6.08661">
        <ele>2298.6</ele>
        <time>2024-08-14T09:40:16Z</time>
      </trkpt>
      <trkpt lat="44.92845" lon="6.08663">
        <ele>2298.6</ele>
        <time>2024-08-14T09:40:17Z</time>
      </trkpt>
      <trkpt lat="44.92845" lon="6.08663">
        <ele>2299</ele>
        <time>2024-08-14T09:40:18Z</time>
      </trkpt>
      <trkpt lat="44.92845" lon="6.08663">
        <ele>2299</ele>
        <time>2024-08-14T09:40:19Z</time>
      </trkpt>
      <trkpt lat="44.92845" lon="6.08663">
        <ele>2299.2</ele>
        <time>2024-08-14T09:40:20Z</time>
      </trkpt>
      <trkpt lat="44.92845" lon="6.08663">
        <ele>2299.4</ele>
        <time>2024-08-14T09:40:21Z</time>
      </trkpt>
      <trkpt lat="44.92845" lon="6.08663">
        <ele>2299.4</ele>
        <time>2024-08-14T09:40:22Z</time>
      </trkpt>
      <trkpt lat="44.92845" lon="6.08663">
        <ele>2299.4</ele>
        <time>2024-08-14T09:40:23Z</time>
      </trkpt>
      <trkpt lat="44.92845" lon="6.08663">
        <ele>2299.4</ele>
        <time>2024-08-14T09:40:24Z</time>
      </trkpt>
      <trkpt lat="44.92846" lon="6.08665">
        <ele>2299.6</ele>
        <time>2024-08-14T09:40:25Z</time>
      </trkpt>
      <trkpt lat="44.92846" lon="6.08665">
        <ele>2299.8</ele>
        <time>2024-08-14T09:40:26Z</time>
      </trkpt>
      <trkpt lat="44.92846" lon="6.08665">
        <ele>2300.2</ele>
        <time>2024-08-14T09:40:27Z</time>
      </trkpt>
      <trkpt lat="44.92846" lon="6.08665">
        <ele>2300.8</ele>
        <time>2024-08-14T09:40:28Z</time>
      </trkpt>
      <trkpt lat="44.92846" lon="6.08665">
        <ele>2301</ele>
        <time>2024-08-14T09:40:29Z</time>
      </trkpt>
      <trkpt lat="44.92846" lon="6.08665">
        <ele>2301</ele>
        <time>2024-08-14T09:40:30Z</time>
      </trkpt>
      <trkpt lat="44.92846" lon="6.08665">
        <ele>2301.2</ele>
        <time>2024-08-14T09:40:31Z</time>
      </trkpt>
      <trkpt lat="44.92846" lon="6.08665">
        <ele>2301.4</ele>
        <time>2024-08-14T09:40:32Z</time>
      </trkpt>
      <trkpt lat="44.92846" lon="6.08665">
        <ele>2301.6</ele>
        <time>2024-08-14T09:40:33Z</time>
      </trkpt>
      <trkpt lat="44.92846" lon="6.08665">
        <ele>2301.8</ele>
        <time>2024-08-14T09:40:34Z</time>
      </trkpt>
      <trkpt lat="44.92846" lon="6.08665">
        <ele>2301.8</ele>
        <time>2024-08-14T09:40:35Z</time>
      </trkpt>
      <trkpt lat="44.92846" lon="6.08665">
        <ele>2302.2</ele>
        <time>2024-08-14T09:40:36Z</time>
      </trkpt>
      <trkpt lat="44.92846" lon="6.08665">
        <ele>2302.2</ele>
        <time>2024-08-14T09:40:37Z</time>
      </trkpt>
      <trkpt lat="44.92846" lon="6.08665">
        <ele>2302.2</ele>
        <time>2024-08-14T09:40:38Z</time>
      </trkpt>
      <trkpt lat="44.92846" lon="6.08665">
        <ele>2302.4</ele>
        <time>2024-08-14T09:40:39Z</time>
      </trkpt>
      <trkpt lat="44.92846" lon="6.08665">
        <ele>2302.4</ele>
        <time>2024-08-14T09:40:40Z</time>
      </trkpt>
      <trkpt lat="44.92846" lon="6.08665">
        <ele>2303</ele>
        <time>2024-08-14T09:40:41Z</time>
      </trkpt>
      <trkpt lat="44.92846" lon="6.08665">
        <ele>2303.4</ele>
        <time>2024-08-14T09:40:42Z</time>
      </trkpt>
      <trkpt lat="44.92848" lon="6.08666">
        <ele>2303.4</ele>
        <time>2024-08-14T09:40:43Z</time>
      </trkpt>
      <trkpt lat="44.92848" lon="6.08666">
        <ele>2303.4</ele>
        <time>2024-08-14T09:40:44Z</time>
      </trkpt>
      <trkpt lat="44.92851" lon="6.08669">
        <ele>2303.4</ele>
        <time>2024-08-14T09:40:45Z</time>
      </trkpt>
      <trkpt lat="44.92853" lon="6.0867">
        <ele>2303.4</ele>
        <time>2024-08-14T09:40:46Z</time>
      </trkpt>
      <trkpt lat="44.92853" lon="6.0867">
        <ele>2303.6</ele>
        <time>2024-08-14T09:40:47Z</time>
      </trkpt>
      <trkpt lat="44.92854" lon="6.08671">
        <ele>2303.8</ele>
        <time>2024-08-14T09:40:48Z</time>
      </trkpt>
      <trkpt lat="44.92854" lon="6.08671">
        <ele>2304.4</ele>
        <time>2024-08-14T09:40:49Z</time>
      </trkpt>
      <trkpt lat="44.92854" lon="6.08671">
        <ele>2304.4</ele>
        <time>2024-08-14T09:40:50Z</time>
      </trkpt>
      <trkpt lat="44.92854" lon="6.08671">
        <ele>2304.6</ele>
        <time>2024-08-14T09:40:51Z</time>
      </trkpt>
      <trkpt lat="44.92856" lon="6.0867">
        <ele>2305.2</ele>
        <time>2024-08-14T09:40:52Z</time>
      </trkpt>
      <trkpt lat="44.92856" lon="6.0867">
        <ele>2305.2</ele>
        <time>2024-08-14T09:40:53Z</time>
      </trkpt>
      <trkpt lat="44.92856" lon="6.0867">
        <ele>2305.2</ele>
        <time>2024-08-14T09:40:54Z</time>
      </trkpt>
      <trkpt lat="44.92856" lon="6.0867">
        <ele>2305.2</ele>
        <time>2024-08-14T09:40:55Z</time>
      </trkpt>
      <trkpt lat="44.92857" lon="6.08667">
        <ele>2305.6</ele>
        <time>2024-08-14T09:40:56Z</time>
      </trkpt>
      <trkpt lat="44.92857" lon="6.08667">
        <ele>2305.8</ele>
        <time>2024-08-14T09:40:57Z</time>
      </trkpt>
      <trkpt lat="44.92857" lon="6.08667">
        <ele>2305.8</ele>
        <time>2024-08-14T09:40:58Z</time>
      </trkpt>
      <trkpt lat="44.92857" lon="6.08667">
        <ele>2306</ele>
        <time>2024-08-14T09:40:59Z</time>
      </trkpt>
      <trkpt lat="44.92857" lon="6.08667">
        <ele>2306</ele>
        <time>2024-08-14T09:41:00Z</time>
      </trkpt>
      <trkpt lat="44.92857" lon="6.08667">
        <ele>2306</ele>
        <time>2024-08-14T09:41:01Z</time>
      </trkpt>
      <trkpt lat="44.92857" lon="6.08667">
        <ele>2306.8</ele>
        <time>2024-08-14T09:41:02Z</time>
      </trkpt>
      <trkpt lat="44.92857" lon="6.08667">
        <ele>2306.8</ele>
        <time>2024-08-14T09:41:03Z</time>
      </trkpt>
      <trkpt lat="44.92857" lon="6.08667">
        <ele>2307</ele>
        <time>2024-08-14T09:41:04Z</time>
      </trkpt>
      <trkpt lat="44.92857" lon="6.08667">
        <ele>2307</ele>
        <time>2024-08-14T09:41:05Z</time>
      </trkpt>
      <trkpt lat="44.92857" lon="6.08667">
        <ele>2307.2</ele>
        <time>2024-08-14T09:41:06Z</time>
      </trkpt>
      <trkpt lat="44.92859" lon="6.08666">
        <ele>2307.4</ele>
        <time>2024-08-14T09:41:07Z</time>
      </trkpt>
      <trkpt lat="44.92859" lon="6.08666">
        <ele>2307.4</ele>
        <time>2024-08-14T09:41:08Z</time>
      </trkpt>
      <trkpt lat="44.92859" lon="6.08666">
        <ele>2307.8</ele>
        <time>2024-08-14T09:41:09Z</time>
      </trkpt>
      <trkpt lat="44.92861" lon="6.08667">
        <ele>2307.8</ele>
        <time>2024-08-14T09:41:10Z</time>
      </trkpt>
      <trkpt lat="44.92861" lon="6.08667">
        <ele>2307.8</ele>
        <time>2024-08-14T09:41:11Z</time>
      </trkpt>
      <trkpt lat="44.92861" lon="6.08667">
        <ele>2308.4</ele>
        <time>2024-08-14T09:41:12Z</time>
      </trkpt>
      <trkpt lat="44.92862" lon="6.08669">
        <ele>2308.8</ele>
        <time>2024-08-14T09:41:13Z</time>
      </trkpt>
      <trkpt lat="44.92862" lon="6.08669">
        <ele>2308.8</ele>
        <time>2024-08-14T09:41:14Z</time>
      </trkpt>
      <trkpt lat="44.92862" lon="6.08669">
        <ele>2308.8</ele>
        <time>2024-08-14T09:41:15Z</time>
      </trkpt>
      <trkpt lat="44.92862" lon="6.08669">
        <ele>2309</ele>
        <time>2024-08-14T09:41:16Z</time>
      </trkpt>
      <trkpt lat="44.92862" lon="6.08669">
        <ele>2309</ele>
        <time>2024-08-14T09:41:17Z</time>
      </trkpt>
      <trkpt lat="44.92862" lon="6.08669">
        <ele>2309.4</ele>
        <time>2024-08-14T09:41:18Z</time>
      </trkpt>
      <trkpt lat="44.92862" lon="6.08669">
        <ele>2309.8</ele>
        <time>2024-08-14T09:41:19Z</time>
      </trkpt>
      <trkpt lat="44.92862" lon="6.08669">
        <ele>2309.8</ele>
        <time>2024-08-14T09:41:20Z</time>
      </trkpt>
      <trkpt lat="44.92862" lon="6.08669">
        <ele>2309.8</ele>
        <time>2024-08-14T09:41:21Z</time>
      </trkpt>
      <trkpt lat="44.92862" lon="6.08669">
        <ele>2309.8</ele>
        <time>2024-08-14T09:41:22Z</time>
      </trkpt>
      <trkpt lat="44.92862" lon="6.08669">
        <ele>2310.4</ele>
        <time>2024-08-14T09:41:23Z</time>
      </trkpt>
      <trkpt lat="44.92862" lon="6.08669">
        <ele>2310.6</ele>
        <time>2024-08-14T09:41:24Z</time>
      </trkpt>
      <trkpt lat="44.92862" lon="6.08669">
        <ele>2310.8</ele>
        <time>2024-08-14T09:41:25Z</time>
      </trkpt>
      <trkpt lat="44.92862" lon="6.08669">
        <ele>2311</ele>
        <time>2024-08-14T09:41:26Z</time>
      </trkpt>
      <trkpt lat="44.92862" lon="6.08669">
        <ele>2311.2</ele>
        <time>2024-08-14T09:41:27Z</time>
      </trkpt>
      <trkpt lat="44.92862" lon="6.08669">
        <ele>2311.4</ele>
        <time>2024-08-14T09:41:28Z</time>
      </trkpt>
      <trkpt lat="44.92862" lon="6.08669">
        <ele>2311.6</ele>
        <time>2024-08-14T09:41:29Z</time>
      </trkpt>
      <trkpt lat="44.92864" lon="6.08668">
        <ele>2312</ele>
        <time>2024-08-14T09:41:30Z</time>
      </trkpt>
      <trkpt lat="44.92864" lon="6.08668">
        <ele>2312</ele>
        <time>2024-08-14T09:41:31Z</time>
      </trkpt>
      <trkpt lat="44.92866" lon="6.08669">
        <ele>2312</ele>
        <time>2024-08-14T09:41:32Z</time>
      </trkpt>
      <trkpt lat="44.92866" lon="6.08669">
        <ele>2312.2</ele>
        <time>2024-08-14T09:41:33Z</time>
      </trkpt>
      <trkpt lat="44.92868" lon="6.0867">
        <ele>2312.2</ele>
        <time>2024-08-14T09:41:34Z</time>
      </trkpt>
      <trkpt lat="44.92868" lon="6.0867">
        <ele>2312.6</ele>
        <time>2024-08-14T09:41:35Z</time>
      </trkpt>
      <trkpt lat="44.9287" lon="6.08672">
        <ele>2312.8</ele>
        <time>2024-08-14T09:41:36Z</time>
      </trkpt>
      <trkpt lat="44.9287" lon="6.08672">
        <ele>2313.2</ele>
        <time>2024-08-14T09:41:37Z</time>
      </trkpt>
      <trkpt lat="44.9287" lon="6.08672">
        <ele>2313.2</ele>
        <time>2024-08-14T09:41:38Z</time>
      </trkpt>
      <trkpt lat="44.92872" lon="6.08675">
        <ele>2313.2</ele>
        <time>2024-08-14T09:41:39Z</time>
      </trkpt>
      <trkpt lat="44.92872" lon="6.08675">
        <ele>2313.4</ele>
        <time>2024-08-14T09:41:40Z</time>
      </trkpt>
      <trkpt lat="44.92872" lon="6.08675">
        <ele>2313.4</ele>
        <time>2024-08-14T09:41:41Z</time>
      </trkpt>
      <trkpt lat="44.92873" lon="6.08677">
        <ele>2313.6</ele>
        <time>2024-08-14T09:41:42Z</time>
      </trkpt>
      <trkpt lat="44.92873" lon="6.08677">
        <ele>2313.8</ele>
        <time>2024-08-14T09:41:43Z</time>
      </trkpt>
      <trkpt lat="44.92873" lon="6.08677">
        <ele>2314</ele>
        <time>2024-08-14T09:41:44Z</time>
      </trkpt>
      <trkpt lat="44.92875" lon="6.08678">
        <ele>2314.2</ele>
        <time>2024-08-14T09:41:45Z</time>
      </trkpt>
      <trkpt lat="44.92875" lon="6.08678">
        <ele>2314.4</ele>
        <time>2024-08-14T09:41:46Z</time>
      </trkpt>
      <trkpt lat="44.92875" lon="6.08678">
        <ele>2314.8</ele>
        <time>2024-08-14T09:41:47Z</time>
      </trkpt>
      <trkpt lat="44.92875" lon="6.08678">
        <ele>2315.2</ele>
        <time>2024-08-14T09:41:48Z</time>
      </trkpt>
      <trkpt lat="44.92876" lon="6.08676">
        <ele>2315.4</ele>
        <time>2024-08-14T09:41:49Z</time>
      </trkpt>
      <trkpt lat="44.92876" lon="6.08676">
        <ele>2315.4</ele>
        <time>2024-08-14T09:41:50Z</time>
      </trkpt>
      <trkpt lat="44.92876" lon="6.08676">
        <ele>2315.4</ele>
        <time>2024-08-14T09:41:51Z</time>
      </trkpt>
      <trkpt lat="44.92876" lon="6.08676">
        <ele>2315.6</ele>
        <time>2024-08-14T09:41:52Z</time>
      </trkpt>
      <trkpt lat="44.92876" lon="6.08676">
        <ele>2315.6</ele>
        <time>2024-08-14T09:41:53Z</time>
      </trkpt>
      <trkpt lat="44.92876" lon="6.08676">
        <ele>2315.6</ele>
        <time>2024-08-14T09:41:54Z</time>
      </trkpt>
      <trkpt lat="44.92876" lon="6.08676">
        <ele>2315.6</ele>
        <time>2024-08-14T09:41:55Z</time>
      </trkpt>
      <trkpt lat="44.92876" lon="6.08676">
        <ele>2315.6</ele>
        <time>2024-08-14T09:41:56Z</time>
      </trkpt>
      <trkpt lat="44.92876" lon="6.08676">
        <ele>2315.6</ele>
        <time>2024-08-14T09:41:57Z</time>
      </trkpt>
      <trkpt lat="44.92876" lon="6.08676">
        <ele>2315.6</ele>
        <time>2024-08-14T09:41:58Z</time>
      </trkpt>
      <trkpt lat="44.92876" lon="6.08676">
        <ele>2315.2</ele>
        <time>2024-08-14T09:41:59Z</time>
      </trkpt>
      <trkpt lat="44.92876" lon="6.08676">
        <ele>2315.2</ele>
        <time>2024-08-14T09:42:00Z</time>
      </trkpt>
      <trkpt lat="44.92876" lon="6.08676">
        <ele>2315.2</ele>
        <time>2024-08-14T09:42:01Z</time>
      </trkpt>
      <trkpt lat="44.92876" lon="6.08676">
        <ele>2315.2</ele>
        <time>2024-08-14T09:42:02Z</time>
      </trkpt>
      <trkpt lat="44.92876" lon="6.08676">
        <ele>2315.2</ele>
        <time>2024-08-14T09:42:03Z</time>
      </trkpt>
      <trkpt lat="44.92876" lon="6.08676">
        <ele>2315.2</ele>
        <time>2024-08-14T09:42:04Z</time>
      </trkpt>
      <trkpt lat="44.92876" lon="6.08676">
        <ele>2315.2</ele>
        <time>2024-08-14T09:42:05Z</time>
      </trkpt>
      <trkpt lat="44.92876" lon="6.08676">
        <ele>2315.2</ele>
        <time>2024-08-14T09:42:06Z</time>
      </trkpt>
      <trkpt lat="44.92876" lon="6.08676">
        <ele>2315.2</ele>
        <time>2024-08-14T09:42:07Z</time>
      </trkpt>
      <trkpt lat="44.92876" lon="6.08676">
        <ele>2315.2</ele>
        <time>2024-08-14T09:42:08Z</time>
      </trkpt>
      <trkpt lat="44.92876" lon="6.08676">
        <ele>2315.2</ele>
        <time>2024-08-14T09:42:09Z</time>
      </trkpt>
      <trkpt lat="44.92876" lon="6.08676">
        <ele>2315.2</ele>
        <time>2024-08-14T09:42:10Z</time>
      </trkpt>
      <trkpt lat="44.92876" lon="6.08676">
        <ele>2315.2</ele>
        <time>2024-08-14T09:42:11Z</time>
      </trkpt>
      <trkpt lat="44.92876" lon="6.08676">
        <ele>2315.2</ele>
        <time>2024-08-14T09:42:12Z</time>
      </trkpt>
      <trkpt lat="44.92876" lon="6.08676">
        <ele>2315.2</ele>
        <time>2024-08-14T09:42:13Z</time>
      </trkpt>
      <trkpt lat="44.92876" lon="6.08676">
        <ele>2315.4</ele>
        <time>2024-08-14T09:42:14Z</time>
      </trkpt>
      <trkpt lat="44.92876" lon="6.08676">
        <ele>2315.4</ele>
        <time>2024-08-14T09:42:15Z</time>
      </trkpt>
      <trkpt lat="44.92876" lon="6.08676">
        <ele>2315.4</ele>
        <time>2024-08-14T09:42:16Z</time>
      </trkpt>
      <trkpt lat="44.92876" lon="6.08676">
        <ele>2315.6</ele>
        <time>2024-08-14T09:42:17Z</time>
      </trkpt>
      <trkpt lat="44.92876" lon="6.08676">
        <ele>2315.6</ele>
        <time>2024-08-14T09:42:18Z</time>
      </trkpt>
      <trkpt lat="44.92876" lon="6.08676">
        <ele>2315.4</ele>
        <time>2024-08-14T09:42:19Z</time>
      </trkpt>
      <trkpt lat="44.92876" lon="6.08676">
        <ele>2315.4</ele>
        <time>2024-08-14T09:42:20Z</time>
      </trkpt>
      <trkpt lat="44.92876" lon="6.08676">
        <ele>2315.6</ele>
        <time>2024-08-14T09:42:21Z</time>
      </trkpt>
      <trkpt lat="44.92876" lon="6.08676">
        <ele>2315.8</ele>
        <time>2024-08-14T09:42:22Z</time>
      </trkpt>
      <trkpt lat="44.92876" lon="6.08676">
        <ele>2315.8</ele>
        <time>2024-08-14T09:42:23Z</time>
      </trkpt>
      <trkpt lat="44.92876" lon="6.08676">
        <ele>2315.8</ele>
        <time>2024-08-14T09:42:24Z</time>
      </trkpt>
      <trkpt lat="44.92876" lon="6.08676">
        <ele>2315.6</ele>
        <time>2024-08-14T09:42:25Z</time>
      </trkpt>
      <trkpt lat="44.92876" lon="6.08676">
        <ele>2315.6</ele>
        <time>2024-08-14T09:42:26Z</time>
      </trkpt>
      <trkpt lat="44.92876" lon="6.08676">
        <ele>2315.6</ele>
        <time>2024-08-14T09:42:27Z</time>
      </trkpt>
      <trkpt lat="44.92876" lon="6.08676">
        <ele>2315.6</ele>
        <time>2024-08-14T09:42:28Z</time>
      </trkpt>
      <trkpt lat="44.92876" lon="6.08676">
        <ele>2315.6</ele>
        <time>2024-08-14T09:42:29Z</time>
      </trkpt>
      <trkpt lat="44.92876" lon="6.08676">
        <ele>2315.6</ele>
        <time>2024-08-14T09:42:30Z</time>
      </trkpt>
      <trkpt lat="44.92876" lon="6.08676">
        <ele>2315.6</ele>
        <time>2024-08-14T09:42:31Z</time>
      </trkpt>
      <trkpt lat="44.92876" lon="6.08676">
        <ele>2315.6</ele>
        <time>2024-08-14T09:42:32Z</time>
      </trkpt>
      <trkpt lat="44.92876" lon="6.08676">
        <ele>2315.6</ele>
        <time>2024-08-14T09:42:33Z</time>
      </trkpt>
      <trkpt lat="44.92876" lon="6.08676">
        <ele>2315.6</ele>
        <time>2024-08-14T09:42:34Z</time>
      </trkpt>
      <trkpt lat="44.92876" lon="6.08676">
        <ele>2315.8</ele>
        <time>2024-08-14T09:42:35Z</time>
      </trkpt>
      <trkpt lat="44.92876" lon="6.08676">
        <ele>2315.8</ele>
        <time>2024-08-14T09:42:36Z</time>
      </trkpt>
      <trkpt lat="44.92876" lon="6.08676">
        <ele>2315.8</ele>
        <time>2024-08-14T09:42:37Z</time>
      </trkpt>
      <trkpt lat="44.92876" lon="6.08676">
        <ele>2315.8</ele>
        <time>2024-08-14T09:42:38Z</time>
      </trkpt>
      <trkpt lat="44.92876" lon="6.08676">
        <ele>2316</ele>
        <time>2024-08-14T09:42:39Z</time>
      </trkpt>
      <trkpt lat="44.92876" lon="6.08676">
        <ele>2316</ele>
        <time>2024-08-14T09:42:40Z</time>
      </trkpt>
      <trkpt lat="44.92876" lon="6.08676">
        <ele>2316</ele>
        <time>2024-08-14T09:42:41Z</time>
      </trkpt>
      <trkpt lat="44.92876" lon="6.08676">
        <ele>2316</ele>
        <time>2024-08-14T09:42:42Z</time>
      </trkpt>
      <trkpt lat="44.92876" lon="6.08676">
        <ele>2316</ele>
        <time>2024-08-14T09:42:43Z</time>
      </trkpt>
      <trkpt lat="44.92876" lon="6.08676">
        <ele>2316</ele>
        <time>2024-08-14T09:42:44Z</time>
      </trkpt>
      <trkpt lat="44.92876" lon="6.08676">
        <ele>2316</ele>
        <time>2024-08-14T09:42:45Z</time>
      </trkpt>
      <trkpt lat="44.92876" lon="6.08676">
        <ele>2315.8</ele>
        <time>2024-08-14T09:42:46Z</time>
      </trkpt>
      <trkpt lat="44.92876" lon="6.08676">
        <ele>2315.8</ele>
        <time>2024-08-14T09:42:47Z</time>
      </trkpt>
      <trkpt lat="44.92876" lon="6.08676">
        <ele>2315.8</ele>
        <time>2024-08-14T09:42:48Z</time>
      </trkpt>
      <trkpt lat="44.92876" lon="6.08676">
        <ele>2315.8</ele>
        <time>2024-08-14T09:42:49Z</time>
      </trkpt>
      <trkpt lat="44.92876" lon="6.08676">
        <ele>2315.6</ele>
        <time>2024-08-14T09:42:50Z</time>
      </trkpt>
      <trkpt lat="44.92876" lon="6.08676">
        <ele>2315.6</ele>
        <time>2024-08-14T09:42:51Z</time>
      </trkpt>
      <trkpt lat="44.92876" lon="6.08676">
        <ele>2315.8</ele>
        <time>2024-08-14T09:42:52Z</time>
      </trkpt>
      <trkpt lat="44.92876" lon="6.08676">
        <ele>2315.8</ele>
        <time>2024-08-14T09:42:53Z</time>
      </trkpt>
      <trkpt lat="44.92876" lon="6.08676">
        <ele>2315.8</ele>
        <time>2024-08-14T09:42:54Z</time>
      </trkpt>
      <trkpt lat="44.92876" lon="6.08676">
        <ele>2315.8</ele>
        <time>2024-08-14T09:42:55Z</time>
      </trkpt>
      <trkpt lat="44.92876" lon="6.08676">
        <ele>2315.8</ele>
        <time>2024-08-14T09:42:56Z</time>
      </trkpt>
      <trkpt lat="44.92876" lon="6.08676">
        <ele>2315.8</ele>
        <time>2024-08-14T09:42:57Z</time>
      </trkpt>
      <trkpt lat="44.92876" lon="6.08676">
        <ele>2315.8</ele>
        <time>2024-08-14T09:42:58Z</time>
      </trkpt>
      <trkpt lat="44.92876" lon="6.08676">
        <ele>2315.8</ele>
        <time>2024-08-14T09:42:59Z</time>
      </trkpt>
      <trkpt lat="44.92876" lon="6.08676">
        <ele>2315.8</ele>
        <time>2024-08-14T09:43:00Z</time>
      </trkpt>
      <trkpt lat="44.92876" lon="6.08676">
        <ele>2315.8</ele>
        <time>2024-08-14T09:43:01Z</time>
      </trkpt>
      <trkpt lat="44.92876" lon="6.08676">
        <ele>2316</ele>
        <time>2024-08-14T09:43:02Z</time>
      </trkpt>
      <trkpt lat="44.92876" lon="6.08676">
        <ele>2316</ele>
        <time>2024-08-14T09:43:03Z</time>
      </trkpt>
      <trkpt lat="44.92876" lon="6.08676">
        <ele>2315.8</ele>
        <time>2024-08-14T09:43:04Z</time>
      </trkpt>
      <trkpt lat="44.92876" lon="6.08676">
        <ele>2315.8</ele>
        <time>2024-08-14T09:43:05Z</time>
      </trkpt>
      <trkpt lat="44.92876" lon="6.08676">
        <ele>2316</ele>
        <time>2024-08-14T09:43:06Z</time>
      </trkpt>
      <trkpt lat="44.92876" lon="6.08676">
        <ele>2316</ele>
        <time>2024-08-14T09:43:07Z</time>
      </trkpt>
      <trkpt lat="44.92876" lon="6.08676">
        <ele>2316</ele>
        <time>2024-08-14T09:43:08Z</time>
      </trkpt>
      <trkpt lat="44.92876" lon="6.08676">
        <ele>2316</ele>
        <time>2024-08-14T09:43:09Z</time>
      </trkpt>
      <trkpt lat="44.92876" lon="6.08676">
        <ele>2316</ele>
        <time>2024-08-14T09:43:10Z</time>
      </trkpt>
      <trkpt lat="44.92876" lon="6.08676">
        <ele>2316</ele>
        <time>2024-08-14T09:43:11Z</time>
      </trkpt>
      <trkpt lat="44.92876" lon="6.08676">
        <ele>2316</ele>
        <time>2024-08-14T09:43:12Z</time>
      </trkpt>
      <trkpt lat="44.92876" lon="6.08676">
        <ele>2316</ele>
        <time>2024-08-14T09:43:13Z</time>
      </trkpt>
      <trkpt lat="44.92876" lon="6.08676">
        <ele>2316</ele>
        <time>2024-08-14T09:43:14Z</time>
      </trkpt>
      <trkpt lat="44.92876" lon="6.08676">
        <ele>2316.2</ele>
        <time>2024-08-14T09:43:15Z</time>
      </trkpt>
      <trkpt lat="44.92876" lon="6.08676">
        <ele>2316.2</ele>
        <time>2024-08-14T09:43:16Z</time>
      </trkpt>
      <trkpt lat="44.92876" lon="6.08676">
        <ele>2316.2</ele>
        <time>2024-08-14T09:43:17Z</time>
      </trkpt>
      <trkpt lat="44.92876" lon="6.08676">
        <ele>2316.2</ele>
        <time>2024-08-14T09:43:18Z</time>
      </trkpt>
      <trkpt lat="44.92876" lon="6.08676">
        <ele>2316.2</ele>
        <time>2024-08-14T09:43:19Z</time>
      </trkpt>
      <trkpt lat="44.92876" lon="6.08676">
        <ele>2316.2</ele>
        <time>2024-08-14T09:43:20Z</time>
      </trkpt>
      <trkpt lat="44.92876" lon="6.08676">
        <ele>2316.4</ele>
        <time>2024-08-14T09:43:21Z</time>
      </trkpt>
      <trkpt lat="44.92876" lon="6.08676">
        <ele>2316.6</ele>
        <time>2024-08-14T09:43:22Z</time>
      </trkpt>
      <trkpt lat="44.92876" lon="6.08676">
        <ele>2316.6</ele>
        <time>2024-08-14T09:43:23Z</time>
      </trkpt>
      <trkpt lat="44.92876" lon="6.08676">
        <ele>2316.6</ele>
        <time>2024-08-14T09:43:24Z</time>
      </trkpt>
      <trkpt lat="44.92876" lon="6.08676">
        <ele>2316.6</ele>
        <time>2024-08-14T09:43:25Z</time>
      </trkpt>
      <trkpt lat="44.92876" lon="6.08676">
        <ele>2317</ele>
        <time>2024-08-14T09:43:26Z</time>
      </trkpt>
      <trkpt lat="44.92876" lon="6.08676">
        <ele>2317</ele>
        <time>2024-08-14T09:43:27Z</time>
      </trkpt>
      <trkpt lat="44.92876" lon="6.08676">
        <ele>2317</ele>
        <time>2024-08-14T09:43:28Z</time>
      </trkpt>
      <trkpt lat="44.92876" lon="6.08676">
        <ele>2317</ele>
        <time>2024-08-14T09:43:29Z</time>
      </trkpt>
      <trkpt lat="44.92876" lon="6.08676">
        <ele>2317</ele>
        <time>2024-08-14T09:43:30Z</time>
      </trkpt>
      <trkpt lat="44.92876" lon="6.08676">
        <ele>2317</ele>
        <time>2024-08-14T09:43:31Z</time>
      </trkpt>
      <trkpt lat="44.92876" lon="6.08676">
        <ele>2317</ele>
        <time>2024-08-14T09:43:32Z</time>
      </trkpt>
      <trkpt lat="44.92876" lon="6.08676">
        <ele>2317.2</ele>
        <time>2024-08-14T09:43:33Z</time>
      </trkpt>
      <trkpt lat="44.92876" lon="6.08676">
        <ele>2317.2</ele>
        <time>2024-08-14T09:43:34Z</time>
      </trkpt>
      <trkpt lat="44.92876" lon="6.08676">
        <ele>2317.2</ele>
        <time>2024-08-14T09:43:35Z</time>
      </trkpt>
      <trkpt lat="44.92876" lon="6.08676">
        <ele>2317.2</ele>
        <time>2024-08-14T09:43:36Z</time>
      </trkpt>
      <trkpt lat="44.92876" lon="6.08676">
        <ele>2317.2</ele>
        <time>2024-08-14T09:43:37Z</time>
      </trkpt>
      <trkpt lat="44.92876" lon="6.08676">
        <ele>2317.2</ele>
        <time>2024-08-14T09:43:38Z</time>
      </trkpt>
      <trkpt lat="44.92876" lon="6.08676">
        <ele>2317.4</ele>
        <time>2024-08-14T09:43:39Z</time>
      </trkpt>
      <trkpt lat="44.92876" lon="6.08676">
        <ele>2317.4</ele>
        <time>2024-08-14T09:43:40Z</time>
      </trkpt>
      <trkpt lat="44.92876" lon="6.08676">
        <ele>2317.4</ele>
        <time>2024-08-14T09:43:41Z</time>
      </trkpt>
      <trkpt lat="44.92876" lon="6.08676">
        <ele>2317.6</ele>
        <time>2024-08-14T09:43:42Z</time>
      </trkpt>
      <trkpt lat="44.92876" lon="6.08676">
        <ele>2317.8</ele>
        <time>2024-08-14T09:43:43Z</time>
      </trkpt>
      <trkpt lat="44.92876" lon="6.08676">
        <ele>2317.8</ele>
        <time>2024-08-14T09:43:44Z</time>
      </trkpt>
      <trkpt lat="44.92876" lon="6.08676">
        <ele>2317.8</ele>
        <time>2024-08-14T09:43:45Z</time>
      </trkpt>
      <trkpt lat="44.92876" lon="6.08676">
        <ele>2318</ele>
        <time>2024-08-14T09:43:46Z</time>
      </trkpt>
      <trkpt lat="44.92876" lon="6.08676">
        <ele>2318</ele>
        <time>2024-08-14T09:43:47Z</time>
      </trkpt>
      <trkpt lat="44.92876" lon="6.08676">
        <ele>2317.8</ele>
        <time>2024-08-14T09:43:48Z</time>
      </trkpt>
      <trkpt lat="44.92876" lon="6.08676">
        <ele>2317.8</ele>
        <time>2024-08-14T09:43:49Z</time>
      </trkpt>
      <trkpt lat="44.92876" lon="6.08676">
        <ele>2317.6</ele>
        <time>2024-08-14T09:43:50Z</time>
      </trkpt>
      <trkpt lat="44.92876" lon="6.08676">
        <ele>2317.6</ele>
        <time>2024-08-14T09:43:51Z</time>
      </trkpt>
      <trkpt lat="44.92876" lon="6.08676">
        <ele>2317.6</ele>
        <time>2024-08-14T09:43:52Z</time>
      </trkpt>
      <trkpt lat="44.92876" lon="6.08676">
        <ele>2317.8</ele>
        <time>2024-08-14T09:43:53Z</time>
      </trkpt>
      <trkpt lat="44.92876" lon="6.08676">
        <ele>2317.8</ele>
        <time>2024-08-14T09:43:54Z</time>
      </trkpt>
      <trkpt lat="44.92876" lon="6.08676">
        <ele>2317.8</ele>
        <time>2024-08-14T09:43:55Z</time>
      </trkpt>
      <trkpt lat="44.92876" lon="6.08676">
        <ele>2317.6</ele>
        <time>2024-08-14T09:43:56Z</time>
      </trkpt>
      <trkpt lat="44.92876" lon="6.08676">
        <ele>2317.6</ele>
        <time>2024-08-14T09:43:57Z</time>
      </trkpt>
      <trkpt lat="44.92876" lon="6.08676">
        <ele>2317.4</ele>
        <time>2024-08-14T09:43:58Z</time>
      </trkpt>
      <trkpt lat="44.92876" lon="6.08676">
        <ele>2317.4</ele>
        <time>2024-08-14T09:43:59Z</time>
      </trkpt>
      <trkpt lat="44.92876" lon="6.08676">
        <ele>2317.4</ele>
        <time>2024-08-14T09:44:00Z</time>
      </trkpt>
      <trkpt lat="44.92876" lon="6.08676">
        <ele>2317.4</ele>
        <time>2024-08-14T09:44:01Z</time>
      </trkpt>
      <trkpt lat="44.92876" lon="6.08676">
        <ele>2317</ele>
        <time>2024-08-14T09:44:02Z</time>
      </trkpt>
      <trkpt lat="44.92876" lon="6.08676">
        <ele>2317</ele>
        <time>2024-08-14T09:44:03Z</time>
      </trkpt>
      <trkpt lat="44.92876" lon="6.08676">
        <ele>2317</ele>
        <time>2024-08-14T09:44:04Z</time>
      </trkpt>
      <trkpt lat="44.92876" lon="6.08676">
        <ele>2317</ele>
        <time>2024-08-14T09:44:05Z</time>
      </trkpt>
      <trkpt lat="44.92876" lon="6.08676">
        <ele>2317.4</ele>
        <time>2024-08-14T09:44:06Z</time>
      </trkpt>
      <trkpt lat="44.92876" lon="6.08676">
        <ele>2317.6</ele>
        <time>2024-08-14T09:44:07Z</time>
      </trkpt>
      <trkpt lat="44.92876" lon="6.08676">
        <ele>2317.8</ele>
        <time>2024-08-14T09:44:08Z</time>
      </trkpt>
      <trkpt lat="44.92876" lon="6.08676">
        <ele>2318</ele>
        <time>2024-08-14T09:44:09Z</time>
      </trkpt>
      <trkpt lat="44.92876" lon="6.08676">
        <ele>2318</ele>
        <time>2024-08-14T09:44:10Z</time>
      </trkpt>
      <trkpt lat="44.92876" lon="6.08676">
        <ele>2318</ele>
        <time>2024-08-14T09:44:11Z</time>
      </trkpt>
      <trkpt lat="44.92876" lon="6.08676">
        <ele>2317.8</ele>
        <time>2024-08-14T09:44:12Z</time>
      </trkpt>
      <trkpt lat="44.92876" lon="6.08676">
        <ele>2317.6</ele>
        <time>2024-08-14T09:44:13Z</time>
      </trkpt>
      <trkpt lat="44.92876" lon="6.08676">
        <ele>2317.6</ele>
        <time>2024-08-14T09:44:14Z</time>
      </trkpt>
      <trkpt lat="44.92876" lon="6.08676">
        <ele>2317.6</ele>
        <time>2024-08-14T09:44:15Z</time>
      </trkpt>
      <trkpt lat="44.92876" lon="6.08676">
        <ele>2317.6</ele>
        <time>2024-08-14T09:44:16Z</time>
      </trkpt>
      <trkpt lat="44.92876" lon="6.08676">
        <ele>2317.4</ele>
        <time>2024-08-14T09:44:17Z</time>
      </trkpt>
      <trkpt lat="44.92876" lon="6.08676">
        <ele>2317.2</ele>
        <time>2024-08-14T09:44:18Z</time>
      </trkpt>
      <trkpt lat="44.92876" lon="6.08676">
        <ele>2317.2</ele>
        <time>2024-08-14T09:44:19Z</time>
      </trkpt>
      <trkpt lat="44.92876" lon="6.08676">
        <ele>2316.8</ele>
        <time>2024-08-14T09:44:20Z</time>
      </trkpt>
      <trkpt lat="44.92876" lon="6.08676">
        <ele>2316.6</ele>
        <time>2024-08-14T09:44:21Z</time>
      </trkpt>
      <trkpt lat="44.92876" lon="6.08676">
        <ele>2316.6</ele>
        <time>2024-08-14T09:44:22Z</time>
      </trkpt>
      <trkpt lat="44.92876" lon="6.08676">
        <ele>2316.6</ele>
        <time>2024-08-14T09:44:23Z</time>
      </trkpt>
      <trkpt lat="44.92876" lon="6.08676">
        <ele>2316.6</ele>
        <time>2024-08-14T09:44:24Z</time>
      </trkpt>
      <trkpt lat="44.92876" lon="6.08676">
        <ele>2316.6</ele>
        <time>2024-08-14T09:44:25Z</time>
      </trkpt>
      <trkpt lat="44.92876" lon="6.08676">
        <ele>2317</ele>
        <time>2024-08-14T09:44:26Z</time>
      </trkpt>
      <trkpt lat="44.92876" lon="6.08676">
        <ele>2317</ele>
        <time>2024-08-14T09:44:27Z</time>
      </trkpt>
      <trkpt lat="44.92876" lon="6.08676">
        <ele>2317</ele>
        <time>2024-08-14T09:44:28Z</time>
      </trkpt>
      <trkpt lat="44.92876" lon="6.08676">
        <ele>2317</ele>
        <time>2024-08-14T09:44:29Z</time>
      </trkpt>
      <trkpt lat="44.92876" lon="6.08676">
        <ele>2317</ele>
        <time>2024-08-14T09:44:30Z</time>
      </trkpt>
      <trkpt lat="44.92876" lon="6.08676">
        <ele>2316.8</ele>
        <time>2024-08-14T09:44:31Z</time>
      </trkpt>
      <trkpt lat="44.92876" lon="6.08676">
        <ele>2316.8</ele>
        <time>2024-08-14T09:44:32Z</time>
      </trkpt>
      <trkpt lat="44.92876" lon="6.08676">
        <ele>2316.8</ele>
        <time>2024-08-14T09:44:33Z</time>
      </trkpt>
      <trkpt lat="44.92876" lon="6.08676">
        <ele>2316.6</ele>
        <time>2024-08-14T09:44:34Z</time>
      </trkpt>
      <trkpt lat="44.92876" lon="6.08676">
        <ele>2316.6</ele>
        <time>2024-08-14T09:44:35Z</time>
      </trkpt>
      <trkpt lat="44.92876" lon="6.08676">
        <ele>2317</ele>
        <time>2024-08-14T09:44:36Z</time>
      </trkpt>
      <trkpt lat="44.92876" lon="6.08676">
        <ele>2317</ele>
        <time>2024-08-14T09:44:37Z</time>
      </trkpt>
      <trkpt lat="44.92876" lon="6.08676">
        <ele>2316.8</ele>
        <time>2024-08-14T09:44:38Z</time>
      </trkpt>
      <trkpt lat="44.92876" lon="6.08676">
        <ele>2316.8</ele>
        <time>2024-08-14T09:44:39Z</time>
      </trkpt>
      <trkpt lat="44.92876" lon="6.08676">
        <ele>2316.8</ele>
        <time>2024-08-14T09:44:40Z</time>
      </trkpt>
      <trkpt lat="44.92876" lon="6.08676">
        <ele>2316.6</ele>
        <time>2024-08-14T09:44:41Z</time>
      </trkpt>
      <trkpt lat="44.92876" lon="6.08676">
        <ele>2316.6</ele>
        <time>2024-08-14T09:44:42Z</time>
      </trkpt>
      <trkpt lat="44.92876" lon="6.08676">
        <ele>2316.6</ele>
        <time>2024-08-14T09:44:43Z</time>
      </trkpt>
      <trkpt lat="44.92876" lon="6.08676">
        <ele>2316.6</ele>
        <time>2024-08-14T09:44:44Z</time>
      </trkpt>
      <trkpt lat="44.92876" lon="6.08676">
        <ele>2316.6</ele>
        <time>2024-08-14T09:44:45Z</time>
      </trkpt>
      <trkpt lat="44.92876" lon="6.08676">
        <ele>2316.6</ele>
        <time>2024-08-14T09:44:46Z</time>
      </trkpt>
      <trkpt lat="44.92876" lon="6.08676">
        <ele>2316.6</ele>
        <time>2024-08-14T09:44:47Z</time>
      </trkpt>
      <trkpt lat="44.92876" lon="6.08676">
        <ele>2316.6</ele>
        <time>2024-08-14T09:44:48Z</time>
      </trkpt>
      <trkpt lat="44.92876" lon="6.08676">
        <ele>2316.6</ele>
        <time>2024-08-14T09:44:49Z</time>
      </trkpt>
      <trkpt lat="44.92876" lon="6.08676">
        <ele>2316.8</ele>
        <time>2024-08-14T09:44:50Z</time>
      </trkpt>
      <trkpt lat="44.92876" lon="6.08676">
        <ele>2316.8</ele>
        <time>2024-08-14T09:44:51Z</time>
      </trkpt>
      <trkpt lat="44.92876" lon="6.08676">
        <ele>2316.8</ele>
        <time>2024-08-14T09:44:52Z</time>
      </trkpt>
      <trkpt lat="44.92876" lon="6.08676">
        <ele>2316.6</ele>
        <time>2024-08-14T09:44:53Z</time>
      </trkpt>
      <trkpt lat="44.92876" lon="6.08676">
        <ele>2316.6</ele>
        <time>2024-08-14T09:44:54Z</time>
      </trkpt>
      <trkpt lat="44.92876" lon="6.08676">
        <ele>2316.6</ele>
        <time>2024-08-14T09:44:55Z</time>
      </trkpt>
      <trkpt lat="44.92876" lon="6.08676">
        <ele>2316.4</ele>
        <time>2024-08-14T09:44:56Z</time>
      </trkpt>
      <trkpt lat="44.92876" lon="6.08676">
        <ele>2316.6</ele>
        <time>2024-08-14T09:44:57Z</time>
      </trkpt>
      <trkpt lat="44.92876" lon="6.08676">
        <ele>2316.6</ele>
        <time>2024-08-14T09:44:58Z</time>
      </trkpt>
      <trkpt lat="44.92876" lon="6.08676">
        <ele>2316.6</ele>
        <time>2024-08-14T09:44:59Z</time>
      </trkpt>
      <trkpt lat="44.92876" lon="6.08676">
        <ele>2316.4</ele>
        <time>2024-08-14T09:45:00Z</time>
      </trkpt>
      <trkpt lat="44.92876" lon="6.08676">
        <ele>2316.4</ele>
        <time>2024-08-14T09:45:01Z</time>
      </trkpt>
      <trkpt lat="44.92876" lon="6.08676">
        <ele>2316.4</ele>
        <time>2024-08-14T09:45:02Z</time>
      </trkpt>
      <trkpt lat="44.92876" lon="6.08676">
        <ele>2316.4</ele>
        <time>2024-08-14T09:45:03Z</time>
      </trkpt>
      <trkpt lat="44.92876" lon="6.08676">
        <ele>2316.6</ele>
        <time>2024-08-14T09:45:04Z</time>
      </trkpt>
      <trkpt lat="44.92876" lon="6.08676">
        <ele>2316.8</ele>
        <time>2024-08-14T09:45:05Z</time>
      </trkpt>
      <trkpt lat="44.92876" lon="6.08676">
        <ele>2316.8</ele>
        <time>2024-08-14T09:45:06Z</time>
      </trkpt>
      <trkpt lat="44.92876" lon="6.08676">
        <ele>2317</ele>
        <time>2024-08-14T09:45:07Z</time>
      </trkpt>
      <trkpt lat="44.92876" lon="6.08676">
        <ele>2317</ele>
        <time>2024-08-14T09:45:08Z</time>
      </trkpt>
      <trkpt lat="44.92876" lon="6.08676">
        <ele>2316.8</ele>
        <time>2024-08-14T09:45:09Z</time>
      </trkpt>
      <trkpt lat="44.92876" lon="6.08676">
        <ele>2316.8</ele>
        <time>2024-08-14T09:45:10Z</time>
      </trkpt>
      <trkpt lat="44.92876" lon="6.08676">
        <ele>2316.8</ele>
        <time>2024-08-14T09:45:11Z</time>
      </trkpt>
      <trkpt lat="44.92876" lon="6.08676">
        <ele>2316.8</ele>
        <time>2024-08-14T09:45:12Z</time>
      </trkpt>
      <trkpt lat="44.92876" lon="6.08676">
        <ele>2316.8</ele>
        <time>2024-08-14T09:45:13Z</time>
      </trkpt>
      <trkpt lat="44.92876" lon="6.08676">
        <ele>2316.8</ele>
        <time>2024-08-14T09:45:14Z</time>
      </trkpt>
      <trkpt lat="44.92876" lon="6.08676">
        <ele>2317.2</ele>
        <time>2024-08-14T09:45:15Z</time>
      </trkpt>
      <trkpt lat="44.92876" lon="6.08676">
        <ele>2317.2</ele>
        <time>2024-08-14T09:45:16Z</time>
      </trkpt>
      <trkpt lat="44.92876" lon="6.08676">
        <ele>2317.2</ele>
        <time>2024-08-14T09:45:17Z</time>
      </trkpt>
      <trkpt lat="44.92876" lon="6.08676">
        <ele>2317.2</ele>
        <time>2024-08-14T09:45:18Z</time>
      </trkpt>
      <trkpt lat="44.92876" lon="6.08676">
        <ele>2316.8</ele>
        <time>2024-08-14T09:45:19Z</time>
      </trkpt>
      <trkpt lat="44.92876" lon="6.08676">
        <ele>2316.8</ele>
        <time>2024-08-14T09:45:20Z</time>
      </trkpt>
      <trkpt lat="44.92876" lon="6.08676">
        <ele>2316.8</ele>
        <time>2024-08-14T09:45:21Z</time>
      </trkpt>
      <trkpt lat="44.92876" lon="6.08676">
        <ele>2317</ele>
        <time>2024-08-14T09:45:22Z</time>
      </trkpt>
      <trkpt lat="44.92876" lon="6.08676">
        <ele>2317</ele>
        <time>2024-08-14T09:45:23Z</time>
      </trkpt>
      <trkpt lat="44.92875" lon="6.08672">
        <ele>2317</ele>
        <time>2024-08-14T09:45:24Z</time>
      </trkpt>
      <trkpt lat="44.92875" lon="6.08672">
        <ele>2317.2</ele>
        <time>2024-08-14T09:45:25Z</time>
      </trkpt>
      <trkpt lat="44.92875" lon="6.0867">
        <ele>2317.4</ele>
        <time>2024-08-14T09:45:26Z</time>
      </trkpt>
      <trkpt lat="44.92875" lon="6.0867">
        <ele>2317.6</ele>
        <time>2024-08-14T09:45:27Z</time>
      </trkpt>
      <trkpt lat="44.92875" lon="6.0867">
        <ele>2318</ele>
        <time>2024-08-14T09:45:28Z</time>
      </trkpt>
      <trkpt lat="44.92876" lon="6.08666">
        <ele>2318.2</ele>
        <time>2024-08-14T09:45:29Z</time>
      </trkpt>
      <trkpt lat="44.92876" lon="6.08666">
        <ele>2318.2</ele>
        <time>2024-08-14T09:45:30Z</time>
      </trkpt>
      <trkpt lat="44.92876" lon="6.08666">
        <ele>2318.6</ele>
        <time>2024-08-14T09:45:31Z</time>
      </trkpt>
      <trkpt lat="44.92876" lon="6.08663">
        <ele>2318.6</ele>
        <time>2024-08-14T09:45:32Z</time>
      </trkpt>
      <trkpt lat="44.92876" lon="6.08663">
        <ele>2318.8</ele>
        <time>2024-08-14T09:45:33Z</time>
      </trkpt>
      <trkpt lat="44.92876" lon="6.08663">
        <ele>2318.8</ele>
        <time>2024-08-14T09:45:34Z</time>
      </trkpt>
      <trkpt lat="44.92875" lon="6.0866">
        <ele>2319.4</ele>
        <time>2024-08-14T09:45:35Z</time>
      </trkpt>
      <trkpt lat="44.92875" lon="6.0866">
        <ele>2319.4</ele>
        <time>2024-08-14T09:45:36Z</time>
      </trkpt>
      <trkpt lat="44.92875" lon="6.0866">
        <ele>2319.6</ele>
        <time>2024-08-14T09:45:37Z</time>
      </trkpt>
      <trkpt lat="44.92875" lon="6.0866">
        <ele>2320</ele>
        <time>2024-08-14T09:45:38Z</time>
      </trkpt>
      <trkpt lat="44.92876" lon="6.08658">
        <ele>2320</ele>
        <time>2024-08-14T09:45:39Z</time>
      </trkpt>
      <trkpt lat="44.92876" lon="6.08658">
        <ele>2320.6</ele>
        <time>2024-08-14T09:45:40Z</time>
      </trkpt>
      <trkpt lat="44.92876" lon="6.08658">
        <ele>2320.6</ele>
        <time>2024-08-14T09:45:41Z</time>
      </trkpt>
      <trkpt lat="44.92876" lon="6.08658">
        <ele>2320.4</ele>
        <time>2024-08-14T09:45:42Z</time>
      </trkpt>
      <trkpt lat="44.92876" lon="6.08658">
        <ele>2320.4</ele>
        <time>2024-08-14T09:45:43Z</time>
      </trkpt>
      <trkpt lat="44.92876" lon="6.08658">
        <ele>2320.4</ele>
        <time>2024-08-14T09:45:44Z</time>
      </trkpt>
      <trkpt lat="44.92876" lon="6.08658">
        <ele>2320.4</ele>
        <time>2024-08-14T09:45:45Z</time>
      </trkpt>
      <trkpt lat="44.92876" lon="6.08658">
        <ele>2320.4</ele>
        <time>2024-08-14T09:45:46Z</time>
      </trkpt>
      <trkpt lat="44.92876" lon="6.08658">
        <ele>2320.4</ele>
        <time>2024-08-14T09:45:47Z</time>
      </trkpt>
      <trkpt lat="44.92876" lon="6.08658">
        <ele>2320.2</ele>
        <time>2024-08-14T09:45:48Z</time>
      </trkpt>
      <trkpt lat="44.92876" lon="6.08658">
        <ele>2320.2</ele>
        <time>2024-08-14T09:45:49Z</time>
      </trkpt>
      <trkpt lat="44.92876" lon="6.08658">
        <ele>2320.8</ele>
        <time>2024-08-14T09:45:50Z</time>
      </trkpt>
      <trkpt lat="44.92876" lon="6.08658">
        <ele>2320.8</ele>
        <time>2024-08-14T09:45:51Z</time>
      </trkpt>
      <trkpt lat="44.92876" lon="6.08658">
        <ele>2320.8</ele>
        <time>2024-08-14T09:45:52Z</time>
      </trkpt>
      <trkpt lat="44.92876" lon="6.08654">
        <ele>2321.2</ele>
        <time>2024-08-14T09:45:53Z</time>
      </trkpt>
      <trkpt lat="44.92876" lon="6.08654">
        <ele>2321.2</ele>
        <time>2024-08-14T09:45:54Z</time>
      </trkpt>
      <trkpt lat="44.92877" lon="6.08651">
        <ele>2321.2</ele>
        <time>2024-08-14T09:45:55Z</time>
      </trkpt>
      <trkpt lat="44.92877" lon="6.08651">
        <ele>2321.6</ele>
        <time>2024-08-14T09:45:56Z</time>
      </trkpt>
      <trkpt lat="44.92877" lon="6.08651">
        <ele>2322</ele>
        <time>2024-08-14T09:45:57Z</time>
      </trkpt>
      <trkpt lat="44.92877" lon="6.08648">
        <ele>2322</ele>
        <time>2024-08-14T09:45:58Z</time>
      </trkpt>
      <trkpt lat="44.92877" lon="6.08648">
        <ele>2322.2</ele>
        <time>2024-08-14T09:45:59Z</time>
      </trkpt>
      <trkpt lat="44.92877" lon="6.08648">
        <ele>2322.4</ele>
        <time>2024-08-14T09:46:00Z</time>
      </trkpt>
      <trkpt lat="44.92877" lon="6.08646">
        <ele>2322.8</ele>
        <time>2024-08-14T09:46:01Z</time>
      </trkpt>
      <trkpt lat="44.92877" lon="6.08646">
        <ele>2323</ele>
        <time>2024-08-14T09:46:02Z</time>
      </trkpt>
      <trkpt lat="44.92877" lon="6.08646">
        <ele>2323</ele>
        <time>2024-08-14T09:46:03Z</time>
      </trkpt>
      <trkpt lat="44.92877" lon="6.08646">
        <ele>2323.4</ele>
        <time>2024-08-14T09:46:04Z</time>
      </trkpt>
      <trkpt lat="44.92879" lon="6.08644">
        <ele>2323.4</ele>
        <time>2024-08-14T09:46:05Z</time>
      </trkpt>
      <trkpt lat="44.92879" lon="6.08644">
        <ele>2323.8</ele>
        <time>2024-08-14T09:46:06Z</time>
      </trkpt>
      <trkpt lat="44.92879" lon="6.08644">
        <ele>2323.8</ele>
        <time>2024-08-14T09:46:07Z</time>
      </trkpt>
      <trkpt lat="44.92881" lon="6.08644">
        <ele>2324</ele>
        <time>2024-08-14T09:46:08Z</time>
      </trkpt>
      <trkpt lat="44.92881" lon="6.08644">
        <ele>2324.6</ele>
        <time>2024-08-14T09:46:09Z</time>
      </trkpt>
      <trkpt lat="44.92881" lon="6.08644">
        <ele>2324.6</ele>
        <time>2024-08-14T09:46:10Z</time>
      </trkpt>
      <trkpt lat="44.92881" lon="6.08644">
        <ele>2324.6</ele>
        <time>2024-08-14T09:46:11Z</time>
      </trkpt>
      <trkpt lat="44.92882" lon="6.08647">
        <ele>2324.8</ele>
        <time>2024-08-14T09:46:12Z</time>
      </trkpt>
      <trkpt lat="44.92882" lon="6.08647">
        <ele>2325.2</ele>
        <time>2024-08-14T09:46:13Z</time>
      </trkpt>
      <trkpt lat="44.92882" lon="6.08647">
        <ele>2325.4</ele>
        <time>2024-08-14T09:46:14Z</time>
      </trkpt>
      <trkpt lat="44.92882" lon="6.08647">
        <ele>2325.8</ele>
        <time>2024-08-14T09:46:15Z</time>
      </trkpt>
      <trkpt lat="44.92884" lon="6.08649">
        <ele>2325.8</ele>
        <time>2024-08-14T09:46:16Z</time>
      </trkpt>
      <trkpt lat="44.92884" lon="6.08649">
        <ele>2326.2</ele>
        <time>2024-08-14T09:46:17Z</time>
      </trkpt>
      <trkpt lat="44.92884" lon="6.08649">
        <ele>2326.4</ele>
        <time>2024-08-14T09:46:18Z</time>
      </trkpt>
      <trkpt lat="44.92884" lon="6.08649">
        <ele>2326.4</ele>
        <time>2024-08-14T09:46:19Z</time>
      </trkpt>
      <trkpt lat="44.92885" lon="6.08652">
        <ele>2326.4</ele>
        <time>2024-08-14T09:46:20Z</time>
      </trkpt>
      <trkpt lat="44.92885" lon="6.08652">
        <ele>2326.6</ele>
        <time>2024-08-14T09:46:21Z</time>
      </trkpt>
      <trkpt lat="44.92885" lon="6.08652">
        <ele>2326.8</ele>
        <time>2024-08-14T09:46:22Z</time>
      </trkpt>
      <trkpt lat="44.92885" lon="6.08652">
        <ele>2326.8</ele>
        <time>2024-08-14T09:46:23Z</time>
      </trkpt>
      <trkpt lat="44.92886" lon="6.08654">
        <ele>2327.2</ele>
        <time>2024-08-14T09:46:24Z</time>
      </trkpt>
      <trkpt lat="44.92886" lon="6.08654">
        <ele>2327.2</ele>
        <time>2024-08-14T09:46:25Z</time>
      </trkpt>
      <trkpt lat="44.92886" lon="6.08654">
        <ele>2327.6</ele>
        <time>2024-08-14T09:46:26Z</time>
      </trkpt>
      <trkpt lat="44.92886" lon="6.08654">
        <ele>2328</ele>
        <time>2024-08-14T09:46:27Z</time>
      </trkpt>
      <trkpt lat="44.92886" lon="6.08654">
        <ele>2328</ele>
        <time>2024-08-14T09:46:28Z</time>
      </trkpt>
      <trkpt lat="44.92886" lon="6.08654">
        <ele>2328</ele>
        <time>2024-08-14T09:46:29Z</time>
      </trkpt>
      <trkpt lat="44.92886" lon="6.08654">
        <ele>2328.4</ele>
        <time>2024-08-14T09:46:30Z</time>
      </trkpt>
      <trkpt lat="44.92887" lon="6.08651">
        <ele>2328.6</ele>
        <time>2024-08-14T09:46:31Z</time>
      </trkpt>
      <trkpt lat="44.92887" lon="6.08651">
        <ele>2328.6</ele>
        <time>2024-08-14T09:46:32Z</time>
      </trkpt>
      <trkpt lat="44.92887" lon="6.08651">
        <ele>2327.8</ele>
        <time>2024-08-14T09:46:33Z</time>
      </trkpt>
      <trkpt lat="44.92887" lon="6.08651">
        <ele>2327.2</ele>
        <time>2024-08-14T09:46:34Z</time>
      </trkpt>
      <trkpt lat="44.92887" lon="6.08651">
        <ele>2327.2</ele>
        <time>2024-08-14T09:46:35Z</time>
      </trkpt>
      <trkpt lat="44.92887" lon="6.08651">
        <ele>2327.2</ele>
        <time>2024-08-14T09:46:36Z</time>
      </trkpt>
      <trkpt lat="44.92887" lon="6.08651">
        <ele>2327.2</ele>
        <time>2024-08-14T09:46:37Z</time>
      </trkpt>
      <trkpt lat="44.92887" lon="6.08651">
        <ele>2327.2</ele>
        <time>2024-08-14T09:46:38Z</time>
      </trkpt>
      <trkpt lat="44.92887" lon="6.08648">
        <ele>2327.4</ele>
        <time>2024-08-14T09:46:39Z</time>
      </trkpt>
      <trkpt lat="44.92887" lon="6.08648">
        <ele>2327.6</ele>
        <time>2024-08-14T09:46:40Z</time>
      </trkpt>
      <trkpt lat="44.92887" lon="6.08648">
        <ele>2327.8</ele>
        <time>2024-08-14T09:46:41Z</time>
      </trkpt>
      <trkpt lat="44.92889" lon="6.08646">
        <ele>2327.8</ele>
        <time>2024-08-14T09:46:42Z</time>
      </trkpt>
      <trkpt lat="44.92889" lon="6.08646">
        <ele>2328.4</ele>
        <time>2024-08-14T09:46:43Z</time>
      </trkpt>
      <trkpt lat="44.92891" lon="6.08645">
        <ele>2328.4</ele>
        <time>2024-08-14T09:46:44Z</time>
      </trkpt>
      <trkpt lat="44.92891" lon="6.08645">
        <ele>2328.4</ele>
        <time>2024-08-14T09:46:45Z</time>
      </trkpt>
      <trkpt lat="44.92891" lon="6.08645">
        <ele>2328.4</ele>
        <time>2024-08-14T09:46:46Z</time>
      </trkpt>
      <trkpt lat="44.92891" lon="6.08645">
        <ele>2328.8</ele>
        <time>2024-08-14T09:46:47Z</time>
      </trkpt>
      <trkpt lat="44.92893" lon="6.08647">
        <ele>2328.8</ele>
        <time>2024-08-14T09:46:48Z</time>
      </trkpt>
      <trkpt lat="44.92893" lon="6.08647">
        <ele>2329.4</ele>
        <time>2024-08-14T09:46:49Z</time>
      </trkpt>
      <trkpt lat="44.92893" lon="6.08647">
        <ele>2329.8</ele>
        <time>2024-08-14T09:46:50Z</time>
      </trkpt>
      <trkpt lat="44.92893" lon="6.08647">
        <ele>2329.8</ele>
        <time>2024-08-14T09:46:51Z</time>
      </trkpt>
      <trkpt lat="44.92894" lon="6.08649">
        <ele>2330.2</ele>
        <time>2024-08-14T09:46:52Z</time>
      </trkpt>
      <trkpt lat="44.92894" lon="6.08649">
        <ele>2330.4</ele>
        <time>2024-08-14T09:46:53Z</time>
      </trkpt>
      <trkpt lat="44.92894" lon="6.08649">
        <ele>2330.6</ele>
        <time>2024-08-14T09:46:54Z</time>
      </trkpt>
      <trkpt lat="44.92894" lon="6.08649">
        <ele>2330.6</ele>
        <time>2024-08-14T09:46:55Z</time>
      </trkpt>
      <trkpt lat="44.92894" lon="6.08649">
        <ele>2330.8</ele>
        <time>2024-08-14T09:46:56Z</time>
      </trkpt>
      <trkpt lat="44.92894" lon="6.08649">
        <ele>2331</ele>
        <time>2024-08-14T09:46:57Z</time>
      </trkpt>
      <trkpt lat="44.92894" lon="6.08649">
        <ele>2331</ele>
        <time>2024-08-14T09:46:58Z</time>
      </trkpt>
      <trkpt lat="44.92894" lon="6.08649">
        <ele>2331.2</ele>
        <time>2024-08-14T09:46:59Z</time>
      </trkpt>
      <trkpt lat="44.92894" lon="6.08649">
        <ele>2331.6</ele>
        <time>2024-08-14T09:47:00Z</time>
      </trkpt>
      <trkpt lat="44.92894" lon="6.08649">
        <ele>2331.8</ele>
        <time>2024-08-14T09:47:01Z</time>
      </trkpt>
      <trkpt lat="44.92894" lon="6.08649">
        <ele>2332.2</ele>
        <time>2024-08-14T09:47:02Z</time>
      </trkpt>
      <trkpt lat="44.92894" lon="6.08649">
        <ele>2332.2</ele>
        <time>2024-08-14T09:47:03Z</time>
      </trkpt>
      <trkpt lat="44.92894" lon="6.08649">
        <ele>2332.2</ele>
        <time>2024-08-14T09:47:04Z</time>
      </trkpt>
      <trkpt lat="44.92894" lon="6.08649">
        <ele>2332.4</ele>
        <time>2024-08-14T09:47:05Z</time>
      </trkpt>
      <trkpt lat="44.92894" lon="6.08649">
        <ele>2332.8</ele>
        <time>2024-08-14T09:47:06Z</time>
      </trkpt>
      <trkpt lat="44.92894" lon="6.08649">
        <ele>2333</ele>
        <time>2024-08-14T09:47:07Z</time>
      </trkpt>
      <trkpt lat="44.92894" lon="6.08649">
        <ele>2333</ele>
        <time>2024-08-14T09:47:08Z</time>
      </trkpt>
      <trkpt lat="44.92895" lon="6.08648">
        <ele>2333.6</ele>
        <time>2024-08-14T09:47:09Z</time>
      </trkpt>
      <trkpt lat="44.92895" lon="6.08648">
        <ele>2333.6</ele>
        <time>2024-08-14T09:47:10Z</time>
      </trkpt>
      <trkpt lat="44.92895" lon="6.08648">
        <ele>2333.6</ele>
        <time>2024-08-14T09:47:11Z</time>
      </trkpt>
      <trkpt lat="44.92895" lon="6.08648">
        <ele>2334</ele>
        <time>2024-08-14T09:47:12Z</time>
      </trkpt>
      <trkpt lat="44.92895" lon="6.08648">
        <ele>2334.4</ele>
        <time>2024-08-14T09:47:13Z</time>
      </trkpt>
      <trkpt lat="44.92895" lon="6.08648">
        <ele>2334.4</ele>
        <time>2024-08-14T09:47:14Z</time>
      </trkpt>
      <trkpt lat="44.92895" lon="6.08648">
        <ele>2334.4</ele>
        <time>2024-08-14T09:47:15Z</time>
      </trkpt>
      <trkpt lat="44.92895" lon="6.08648">
        <ele>2334.6</ele>
        <time>2024-08-14T09:47:16Z</time>
      </trkpt>
      <trkpt lat="44.92895" lon="6.08648">
        <ele>2334.8</ele>
        <time>2024-08-14T09:47:17Z</time>
      </trkpt>
      <trkpt lat="44.92897" lon="6.08647">
        <ele>2334.8</ele>
        <time>2024-08-14T09:47:18Z</time>
      </trkpt>
      <trkpt lat="44.92897" lon="6.08647">
        <ele>2335</ele>
        <time>2024-08-14T09:47:19Z</time>
      </trkpt>
      <trkpt lat="44.92901" lon="6.08648">
        <ele>2335.4</ele>
        <time>2024-08-14T09:47:20Z</time>
      </trkpt>
      <trkpt lat="44.92902" lon="6.08648">
        <ele>2335.6</ele>
        <time>2024-08-14T09:47:21Z</time>
      </trkpt>
      <trkpt lat="44.92902" lon="6.08648">
        <ele>2335.6</ele>
        <time>2024-08-14T09:47:22Z</time>
      </trkpt>
      <trkpt lat="44.92904" lon="6.08649">
        <ele>2335.8</ele>
        <time>2024-08-14T09:47:23Z</time>
      </trkpt>
      <trkpt lat="44.92904" lon="6.08649">
        <ele>2336.6</ele>
        <time>2024-08-14T09:47:24Z</time>
      </trkpt>
      <trkpt lat="44.92904" lon="6.08649">
        <ele>2336.6</ele>
        <time>2024-08-14T09:47:25Z</time>
      </trkpt>
      <trkpt lat="44.92904" lon="6.08649">
        <ele>2336.6</ele>
        <time>2024-08-14T09:47:26Z</time>
      </trkpt>
      <trkpt lat="44.92905" lon="6.08651">
        <ele>2336.6</ele>
        <time>2024-08-14T09:47:27Z</time>
      </trkpt>
      <trkpt lat="44.92905" lon="6.08651">
        <ele>2337</ele>
        <time>2024-08-14T09:47:28Z</time>
      </trkpt>
      <trkpt lat="44.92905" lon="6.08651">
        <ele>2337.6</ele>
        <time>2024-08-14T09:47:29Z</time>
      </trkpt>
      <trkpt lat="44.92905" lon="6.08651">
        <ele>2337.8</ele>
        <time>2024-08-14T09:47:30Z</time>
      </trkpt>
      <trkpt lat="44.92905" lon="6.08651">
        <ele>2337.8</ele>
        <time>2024-08-14T09:47:31Z</time>
      </trkpt>
      <trkpt lat="44.92905" lon="6.08651">
        <ele>2337.8</ele>
        <time>2024-08-14T09:47:32Z</time>
      </trkpt>
      <trkpt lat="44.92905" lon="6.08651">
        <ele>2337.8</ele>
        <time>2024-08-14T09:47:33Z</time>
      </trkpt>
      <trkpt lat="44.92905" lon="6.08651">
        <ele>2337.8</ele>
        <time>2024-08-14T09:47:34Z</time>
      </trkpt>
      <trkpt lat="44.92905" lon="6.08651">
        <ele>2338</ele>
        <time>2024-08-14T09:47:35Z</time>
      </trkpt>
      <trkpt lat="44.92905" lon="6.08651">
        <ele>2338.2</ele>
        <time>2024-08-14T09:47:36Z</time>
      </trkpt>
      <trkpt lat="44.92905" lon="6.08651">
        <ele>2338.4</ele>
        <time>2024-08-14T09:47:37Z</time>
      </trkpt>
      <trkpt lat="44.92905" lon="6.08651">
        <ele>2338.6</ele>
        <time>2024-08-14T09:47:38Z</time>
      </trkpt>
      <trkpt lat="44.92905" lon="6.08651">
        <ele>2338.8</ele>
        <time>2024-08-14T09:47:39Z</time>
      </trkpt>
      <trkpt lat="44.92905" lon="6.08651">
        <ele>2339.2</ele>
        <time>2024-08-14T09:47:40Z</time>
      </trkpt>
      <trkpt lat="44.92905" lon="6.08651">
        <ele>2339.4</ele>
        <time>2024-08-14T09:47:41Z</time>
      </trkpt>
      <trkpt lat="44.92905" lon="6.08651">
        <ele>2339.4</ele>
        <time>2024-08-14T09:47:42Z</time>
      </trkpt>
      <trkpt lat="44.92905" lon="6.08651">
        <ele>2339.4</ele>
        <time>2024-08-14T09:47:43Z</time>
      </trkpt>
      <trkpt lat="44.92905" lon="6.08651">
        <ele>2339.8</ele>
        <time>2024-08-14T09:47:44Z</time>
      </trkpt>
      <trkpt lat="44.92905" lon="6.08651">
        <ele>2340.2</ele>
        <time>2024-08-14T09:47:45Z</time>
      </trkpt>
      <trkpt lat="44.92905" lon="6.08651">
        <ele>2340.2</ele>
        <time>2024-08-14T09:47:46Z</time>
      </trkpt>
      <trkpt lat="44.92905" lon="6.08651">
        <ele>2340.2</ele>
        <time>2024-08-14T09:47:47Z</time>
      </trkpt>
      <trkpt lat="44.92905" lon="6.08651">
        <ele>2340.4</ele>
        <time>2024-08-14T09:47:48Z</time>
      </trkpt>
      <trkpt lat="44.92907" lon="6.08651">
        <ele>2340.4</ele>
        <time>2024-08-14T09:47:49Z</time>
      </trkpt>
      <trkpt lat="44.92907" lon="6.08651">
        <ele>2340.6</ele>
        <time>2024-08-14T09:47:50Z</time>
      </trkpt>
      <trkpt lat="44.92909" lon="6.08648">
        <ele>2340.8</ele>
        <time>2024-08-14T09:47:51Z</time>
      </trkpt>
      <trkpt lat="44.92909" lon="6.08648">
        <ele>2341</ele>
        <time>2024-08-14T09:47:52Z</time>
      </trkpt>
      <trkpt lat="44.9291" lon="6.08645">
        <ele>2341.4</ele>
        <time>2024-08-14T09:47:53Z</time>
      </trkpt>
      <trkpt lat="44.9291" lon="6.08645">
        <ele>2342</ele>
        <time>2024-08-14T09:47:54Z</time>
      </trkpt>
      <trkpt lat="44.9291" lon="6.08645">
        <ele>2342.2</ele>
        <time>2024-08-14T09:47:55Z</time>
      </trkpt>
      <trkpt lat="44.92911" lon="6.08643">
        <ele>2342.4</ele>
        <time>2024-08-14T09:47:56Z</time>
      </trkpt>
      <trkpt lat="44.92911" lon="6.08643">
        <ele>2342.4</ele>
        <time>2024-08-14T09:47:57Z</time>
      </trkpt>
      <trkpt lat="44.92911" lon="6.08643">
        <ele>2342.4</ele>
        <time>2024-08-14T09:47:58Z</time>
      </trkpt>
      <trkpt lat="44.92911" lon="6.08643">
        <ele>2342.6</ele>
        <time>2024-08-14T09:47:59Z</time>
      </trkpt>
      <trkpt lat="44.92911" lon="6.08643">
        <ele>2342.8</ele>
        <time>2024-08-14T09:48:00Z</time>
      </trkpt>
      <trkpt lat="44.9291" lon="6.0864">
        <ele>2342.8</ele>
        <time>2024-08-14T09:48:01Z</time>
      </trkpt>
      <trkpt lat="44.9291" lon="6.0864">
        <ele>2343.2</ele>
        <time>2024-08-14T09:48:02Z</time>
      </trkpt>
      <trkpt lat="44.9291" lon="6.0864">
        <ele>2343.2</ele>
        <time>2024-08-14T09:48:03Z</time>
      </trkpt>
      <trkpt lat="44.92909" lon="6.08638">
        <ele>2343.6</ele>
        <time>2024-08-14T09:48:04Z</time>
      </trkpt>
      <trkpt lat="44.92909" lon="6.08638">
        <ele>2343.6</ele>
        <time>2024-08-14T09:48:05Z</time>
      </trkpt>
      <trkpt lat="44.92909" lon="6.08638">
        <ele>2343.8</ele>
        <time>2024-08-14T09:48:06Z</time>
      </trkpt>
      <trkpt lat="44.9291" lon="6.08635">
        <ele>2344.2</ele>
        <time>2024-08-14T09:48:07Z</time>
      </trkpt>
      <trkpt lat="44.9291" lon="6.08635">
        <ele>2344.4</ele>
        <time>2024-08-14T09:48:08Z</time>
      </trkpt>
      <trkpt lat="44.9291" lon="6.08635">
        <ele>2344.4</ele>
        <time>2024-08-14T09:48:09Z</time>
      </trkpt>
      <trkpt lat="44.92912" lon="6.08635">
        <ele>2344.6</ele>
        <time>2024-08-14T09:48:10Z</time>
      </trkpt>
      <trkpt lat="44.92912" lon="6.08635">
        <ele>2344.6</ele>
        <time>2024-08-14T09:48:11Z</time>
      </trkpt>
      <trkpt lat="44.92912" lon="6.08635">
        <ele>2344.6</ele>
        <time>2024-08-14T09:48:12Z</time>
      </trkpt>
      <trkpt lat="44.92912" lon="6.08635">
        <ele>2344.8</ele>
        <time>2024-08-14T09:48:13Z</time>
      </trkpt>
      <trkpt lat="44.92913" lon="6.08636">
        <ele>2345.2</ele>
        <time>2024-08-14T09:48:14Z</time>
      </trkpt>
      <trkpt lat="44.92913" lon="6.08636">
        <ele>2345.4</ele>
        <time>2024-08-14T09:48:15Z</time>
      </trkpt>
      <trkpt lat="44.92913" lon="6.08636">
        <ele>2345.4</ele>
        <time>2024-08-14T09:48:16Z</time>
      </trkpt>
      <trkpt lat="44.92913" lon="6.08636">
        <ele>2345.4</ele>
        <time>2024-08-14T09:48:17Z</time>
      </trkpt>
      <trkpt lat="44.92913" lon="6.08636">
        <ele>2345.8</ele>
        <time>2024-08-14T09:48:18Z</time>
      </trkpt>
      <trkpt lat="44.92913" lon="6.08636">
        <ele>2346</ele>
        <time>2024-08-14T09:48:19Z</time>
      </trkpt>
      <trkpt lat="44.92913" lon="6.08636">
        <ele>2346.4</ele>
        <time>2024-08-14T09:48:20Z</time>
      </trkpt>
      <trkpt lat="44.92913" lon="6.08636">
        <ele>2346.4</ele>
        <time>2024-08-14T09:48:21Z</time>
      </trkpt>
      <trkpt lat="44.92913" lon="6.08636">
        <ele>2346.6</ele>
        <time>2024-08-14T09:48:22Z</time>
      </trkpt>
      <trkpt lat="44.92913" lon="6.08636">
        <ele>2346.6</ele>
        <time>2024-08-14T09:48:23Z</time>
      </trkpt>
      <trkpt lat="44.92915" lon="6.08638">
        <ele>2347.4</ele>
        <time>2024-08-14T09:48:24Z</time>
      </trkpt>
      <trkpt lat="44.92915" lon="6.08638">
        <ele>2347.4</ele>
        <time>2024-08-14T09:48:25Z</time>
      </trkpt>
      <trkpt lat="44.92917" lon="6.0864">
        <ele>2347.4</ele>
        <time>2024-08-14T09:48:26Z</time>
      </trkpt>
      <trkpt lat="44.92917" lon="6.0864">
        <ele>2347.8</ele>
        <time>2024-08-14T09:48:27Z</time>
      </trkpt>
      <trkpt lat="44.92918" lon="6.08644">
        <ele>2348</ele>
        <time>2024-08-14T09:48:28Z</time>
      </trkpt>
      <trkpt lat="44.92918" lon="6.08644">
        <ele>2348.2</ele>
        <time>2024-08-14T09:48:29Z</time>
      </trkpt>
      <trkpt lat="44.9292" lon="6.08646">
        <ele>2348.4</ele>
        <time>2024-08-14T09:48:30Z</time>
      </trkpt>
      <trkpt lat="44.9292" lon="6.08646">
        <ele>2348.6</ele>
        <time>2024-08-14T09:48:31Z</time>
      </trkpt>
      <trkpt lat="44.92922" lon="6.08647">
        <ele>2348.6</ele>
        <time>2024-08-14T09:48:32Z</time>
      </trkpt>
      <trkpt lat="44.92922" lon="6.08647">
        <ele>2348.8</ele>
        <time>2024-08-14T09:48:33Z</time>
      </trkpt>
      <trkpt lat="44.92922" lon="6.08647">
        <ele>2348.8</ele>
        <time>2024-08-14T09:48:34Z</time>
      </trkpt>
      <trkpt lat="44.92922" lon="6.08647">
        <ele>2349.4</ele>
        <time>2024-08-14T09:48:35Z</time>
      </trkpt>
      <trkpt lat="44.92922" lon="6.08647">
        <ele>2349.4</ele>
        <time>2024-08-14T09:48:36Z</time>
      </trkpt>
      <trkpt lat="44.92922" lon="6.08647">
        <ele>2349.4</ele>
        <time>2024-08-14T09:48:37Z</time>
      </trkpt>
      <trkpt lat="44.92923" lon="6.08645">
        <ele>2349.8</ele>
        <time>2024-08-14T09:48:38Z</time>
      </trkpt>
      <trkpt lat="44.92923" lon="6.08645">
        <ele>2349.8</ele>
        <time>2024-08-14T09:48:39Z</time>
      </trkpt>
      <trkpt lat="44.92923" lon="6.08645">
        <ele>2349.8</ele>
        <time>2024-08-14T09:48:40Z</time>
      </trkpt>
      <trkpt lat="44.92923" lon="6.08645">
        <ele>2350</ele>
        <time>2024-08-14T09:48:41Z</time>
      </trkpt>
      <trkpt lat="44.92923" lon="6.08645">
        <ele>2350</ele>
        <time>2024-08-14T09:48:42Z</time>
      </trkpt>
      <trkpt lat="44.92923" lon="6.08645">
        <ele>2350.2</ele>
        <time>2024-08-14T09:48:43Z</time>
      </trkpt>
      <trkpt lat="44.92925" lon="6.08643">
        <ele>2350.4</ele>
        <time>2024-08-14T09:48:44Z</time>
      </trkpt>
      <trkpt lat="44.92925" lon="6.08643">
        <ele>2350.6</ele>
        <time>2024-08-14T09:48:45Z</time>
      </trkpt>
      <trkpt lat="44.92925" lon="6.08643">
        <ele>2350.8</ele>
        <time>2024-08-14T09:48:46Z</time>
      </trkpt>
      <trkpt lat="44.92925" lon="6.08643">
        <ele>2351.2</ele>
        <time>2024-08-14T09:48:47Z</time>
      </trkpt>
      <trkpt lat="44.92925" lon="6.08643">
        <ele>2351.4</ele>
        <time>2024-08-14T09:48:48Z</time>
      </trkpt>
      <trkpt lat="44.92925" lon="6.08643">
        <ele>2351.6</ele>
        <time>2024-08-14T09:48:49Z</time>
      </trkpt>
      <trkpt lat="44.92925" lon="6.08643">
        <ele>2351.8</ele>
        <time>2024-08-14T09:48:50Z</time>
      </trkpt>
      <trkpt lat="44.92925" lon="6.08643">
        <ele>2351.8</ele>
        <time>2024-08-14T09:48:51Z</time>
      </trkpt>
      <trkpt lat="44.92925" lon="6.08643">
        <ele>2352.2</ele>
        <time>2024-08-14T09:48:52Z</time>
      </trkpt>
      <trkpt lat="44.92925" lon="6.08643">
        <ele>2352.6</ele>
        <time>2024-08-14T09:48:53Z</time>
      </trkpt>
      <trkpt lat="44.92925" lon="6.08643">
        <ele>2352.8</ele>
        <time>2024-08-14T09:48:54Z</time>
      </trkpt>
      <trkpt lat="44.92926" lon="6.08641">
        <ele>2352.8</ele>
        <time>2024-08-14T09:48:55Z</time>
      </trkpt>
      <trkpt lat="44.92926" lon="6.08641">
        <ele>2353.2</ele>
        <time>2024-08-14T09:48:56Z</time>
      </trkpt>
      <trkpt lat="44.92926" lon="6.08641">
        <ele>2353.4</ele>
        <time>2024-08-14T09:48:57Z</time>
      </trkpt>
      <trkpt lat="44.92929" lon="6.0864">
        <ele>2353.6</ele>
        <time>2024-08-14T09:48:58Z</time>
      </trkpt>
      <trkpt lat="44.92929" lon="6.0864">
        <ele>2353.6</ele>
        <time>2024-08-14T09:48:59Z</time>
      </trkpt>
      <trkpt lat="44.92929" lon="6.0864">
        <ele>2353.8</ele>
        <time>2024-08-14T09:49:00Z</time>
      </trkpt>
      <trkpt lat="44.92929" lon="6.0864">
        <ele>2353.8</ele>
        <time>2024-08-14T09:49:01Z</time>
      </trkpt>
      <trkpt lat="44.92929" lon="6.0864">
        <ele>2354.6</ele>
        <time>2024-08-14T09:49:02Z</time>
      </trkpt>
      <trkpt lat="44.92929" lon="6.0864">
        <ele>2354.6</ele>
        <time>2024-08-14T09:49:03Z</time>
      </trkpt>
      <trkpt lat="44.92929" lon="6.0864">
        <ele>2354.6</ele>
        <time>2024-08-14T09:49:04Z</time>
      </trkpt>
      <trkpt lat="44.92929" lon="6.0864">
        <ele>2354.8</ele>
        <time>2024-08-14T09:49:05Z</time>
      </trkpt>
      <trkpt lat="44.92929" lon="6.0864">
        <ele>2354.8</ele>
        <time>2024-08-14T09:49:06Z</time>
      </trkpt>
      <trkpt lat="44.92929" lon="6.0864">
        <ele>2355</ele>
        <time>2024-08-14T09:49:07Z</time>
      </trkpt>
      <trkpt lat="44.92929" lon="6.0864">
        <ele>2355.6</ele>
        <time>2024-08-14T09:49:08Z</time>
      </trkpt>
      <trkpt lat="44.92929" lon="6.0864">
        <ele>2355.6</ele>
        <time>2024-08-14T09:49:09Z</time>
      </trkpt>
      <trkpt lat="44.92929" lon="6.0864">
        <ele>2355.6</ele>
        <time>2024-08-14T09:49:10Z</time>
      </trkpt>
      <trkpt lat="44.92929" lon="6.0864">
        <ele>2356</ele>
        <time>2024-08-14T09:49:11Z</time>
      </trkpt>
      <trkpt lat="44.92931" lon="6.08642">
        <ele>2356</ele>
        <time>2024-08-14T09:49:12Z</time>
      </trkpt>
      <trkpt lat="44.92931" lon="6.08642">
        <ele>2356</ele>
        <time>2024-08-14T09:49:13Z</time>
      </trkpt>
      <trkpt lat="44.92933" lon="6.08644">
        <ele>2356.4</ele>
        <time>2024-08-14T09:49:14Z</time>
      </trkpt>
      <trkpt lat="44.92933" lon="6.08644">
        <ele>2356.8</ele>
        <time>2024-08-14T09:49:15Z</time>
      </trkpt>
      <trkpt lat="44.92933" lon="6.08644">
        <ele>2356.8</ele>
        <time>2024-08-14T09:49:16Z</time>
      </trkpt>
      <trkpt lat="44.92933" lon="6.08644">
        <ele>2357</ele>
        <time>2024-08-14T09:49:17Z</time>
      </trkpt>
      <trkpt lat="44.92933" lon="6.08644">
        <ele>2357.4</ele>
        <time>2024-08-14T09:49:18Z</time>
      </trkpt>
      <trkpt lat="44.92934" lon="6.08641">
        <ele>2357.6</ele>
        <time>2024-08-14T09:49:19Z</time>
      </trkpt>
      <trkpt lat="44.92934" lon="6.08641">
        <ele>2358</ele>
        <time>2024-08-14T09:49:20Z</time>
      </trkpt>
      <trkpt lat="44.92934" lon="6.08641">
        <ele>2358.2</ele>
        <time>2024-08-14T09:49:21Z</time>
      </trkpt>
      <trkpt lat="44.92934" lon="6.08641">
        <ele>2358.2</ele>
        <time>2024-08-14T09:49:22Z</time>
      </trkpt>
      <trkpt lat="44.92934" lon="6.08641">
        <ele>2358.4</ele>
        <time>2024-08-14T09:49:23Z</time>
      </trkpt>
      <trkpt lat="44.92934" lon="6.08641">
        <ele>2358.4</ele>
        <time>2024-08-14T09:49:24Z</time>
      </trkpt>
      <trkpt lat="44.92934" lon="6.08641">
        <ele>2358.4</ele>
        <time>2024-08-14T09:49:25Z</time>
      </trkpt>
      <trkpt lat="44.92934" lon="6.08641">
        <ele>2358.6</ele>
        <time>2024-08-14T09:49:26Z</time>
      </trkpt>
      <trkpt lat="44.92934" lon="6.08641">
        <ele>2358.8</ele>
        <time>2024-08-14T09:49:27Z</time>
      </trkpt>
      <trkpt lat="44.92934" lon="6.08641">
        <ele>2358.8</ele>
        <time>2024-08-14T09:49:28Z</time>
      </trkpt>
      <trkpt lat="44.92934" lon="6.08638">
        <ele>2359.6</ele>
        <time>2024-08-14T09:49:29Z</time>
      </trkpt>
      <trkpt lat="44.92934" lon="6.08638">
        <ele>2359.6</ele>
        <time>2024-08-14T09:49:30Z</time>
      </trkpt>
      <trkpt lat="44.92934" lon="6.08635">
        <ele>2360</ele>
        <time>2024-08-14T09:49:31Z</time>
      </trkpt>
      <trkpt lat="44.92934" lon="6.08635">
        <ele>2360</ele>
        <time>2024-08-14T09:49:32Z</time>
      </trkpt>
      <trkpt lat="44.92934" lon="6.08631">
        <ele>2360.2</ele>
        <time>2024-08-14T09:49:33Z</time>
      </trkpt>
      <trkpt lat="44.92934" lon="6.08631">
        <ele>2360.4</ele>
        <time>2024-08-14T09:49:34Z</time>
      </trkpt>
      <trkpt lat="44.92936" lon="6.08629">
        <ele>2360.6</ele>
        <time>2024-08-14T09:49:35Z</time>
      </trkpt>
      <trkpt lat="44.92936" lon="6.08629">
        <ele>2361.4</ele>
        <time>2024-08-14T09:49:36Z</time>
      </trkpt>
      <trkpt lat="44.92936" lon="6.08629">
        <ele>2361.6</ele>
        <time>2024-08-14T09:49:37Z</time>
      </trkpt>
      <trkpt lat="44.92936" lon="6.08629">
        <ele>2361.6</ele>
        <time>2024-08-14T09:49:38Z</time>
      </trkpt>
      <trkpt lat="44.92938" lon="6.08628">
        <ele>2361.8</ele>
        <time>2024-08-14T09:49:39Z</time>
      </trkpt>
      <trkpt lat="44.92938" lon="6.08628">
        <ele>2361.8</ele>
        <time>2024-08-14T09:49:40Z</time>
      </trkpt>
      <trkpt lat="44.92938" lon="6.08628">
        <ele>2362.2</ele>
        <time>2024-08-14T09:49:41Z</time>
      </trkpt>
      <trkpt lat="44.92939" lon="6.0863">
        <ele>2362.2</ele>
        <time>2024-08-14T09:49:42Z</time>
      </trkpt>
      <trkpt lat="44.92939" lon="6.0863">
        <ele>2362.6</ele>
        <time>2024-08-14T09:49:43Z</time>
      </trkpt>
      <trkpt lat="44.92939" lon="6.0863">
        <ele>2362.6</ele>
        <time>2024-08-14T09:49:44Z</time>
      </trkpt>
      <trkpt lat="44.92941" lon="6.08631">
        <ele>2362.8</ele>
        <time>2024-08-14T09:49:45Z</time>
      </trkpt>
      <trkpt lat="44.92941" lon="6.08631">
        <ele>2363.4</ele>
        <time>2024-08-14T09:49:46Z</time>
      </trkpt>
      <trkpt lat="44.92941" lon="6.08631">
        <ele>2363.6</ele>
        <time>2024-08-14T09:49:47Z</time>
      </trkpt>
      <trkpt lat="44.92941" lon="6.08631">
        <ele>2363.8</ele>
        <time>2024-08-14T09:49:48Z</time>
      </trkpt>
      <trkpt lat="44.92942" lon="6.08634">
        <ele>2364</ele>
        <time>2024-08-14T09:49:49Z</time>
      </trkpt>
      <trkpt lat="44.92942" lon="6.08634">
        <ele>2364</ele>
        <time>2024-08-14T09:49:50Z</time>
      </trkpt>
      <trkpt lat="44.92942" lon="6.08634">
        <ele>2364.2</ele>
        <time>2024-08-14T09:49:51Z</time>
      </trkpt>
      <trkpt lat="44.92943" lon="6.08636">
        <ele>2364.4</ele>
        <time>2024-08-14T09:49:52Z</time>
      </trkpt>
      <trkpt lat="44.92943" lon="6.08636">
        <ele>2365.4</ele>
        <time>2024-08-14T09:49:53Z</time>
      </trkpt>
      <trkpt lat="44.92943" lon="6.08636">
        <ele>2365.4</ele>
        <time>2024-08-14T09:49:54Z</time>
      </trkpt>
      <trkpt lat="44.92943" lon="6.08639">
        <ele>2365.4</ele>
        <time>2024-08-14T09:49:55Z</time>
      </trkpt>
      <trkpt lat="44.92943" lon="6.08639">
        <ele>2365.4</ele>
        <time>2024-08-14T09:49:56Z</time>
      </trkpt>
      <trkpt lat="44.92944" lon="6.08642">
        <ele>2365.6</ele>
        <time>2024-08-14T09:49:57Z</time>
      </trkpt>
      <trkpt lat="44.92944" lon="6.08642">
        <ele>2365.8</ele>
        <time>2024-08-14T09:49:58Z</time>
      </trkpt>
      <trkpt lat="44.92944" lon="6.08642">
        <ele>2366</ele>
        <time>2024-08-14T09:49:59Z</time>
      </trkpt>
      <trkpt lat="44.92945" lon="6.08644">
        <ele>2366</ele>
        <time>2024-08-14T09:50:00Z</time>
      </trkpt>
      <trkpt lat="44.92945" lon="6.08644">
        <ele>2365.8</ele>
        <time>2024-08-14T09:50:01Z</time>
      </trkpt>
      <trkpt lat="44.92947" lon="6.08646">
        <ele>2366</ele>
        <time>2024-08-14T09:50:02Z</time>
      </trkpt>
      <trkpt lat="44.92947" lon="6.08646">
        <ele>2366</ele>
        <time>2024-08-14T09:50:03Z</time>
      </trkpt>
      <trkpt lat="44.92947" lon="6.08646">
        <ele>2366</ele>
        <time>2024-08-14T09:50:04Z</time>
      </trkpt>
      <trkpt lat="44.92948" lon="6.08649">
        <ele>2366.2</ele>
        <time>2024-08-14T09:50:05Z</time>
      </trkpt>
      <trkpt lat="44.92948" lon="6.08649">
        <ele>2366.4</ele>
        <time>2024-08-14T09:50:06Z</time>
      </trkpt>
      <trkpt lat="44.92949" lon="6.08652">
        <ele>2366.4</ele>
        <time>2024-08-14T09:50:07Z</time>
      </trkpt>
      <trkpt lat="44.92949" lon="6.08652">
        <ele>2366.8</ele>
        <time>2024-08-14T09:50:08Z</time>
      </trkpt>
      <trkpt lat="44.92949" lon="6.08652">
        <ele>2367</ele>
        <time>2024-08-14T09:50:09Z</time>
      </trkpt>
      <trkpt lat="44.92949" lon="6.08655">
        <ele>2367</ele>
        <time>2024-08-14T09:50:10Z</time>
      </trkpt>
      <trkpt lat="44.92949" lon="6.08655">
        <ele>2367.4</ele>
        <time>2024-08-14T09:50:11Z</time>
      </trkpt>
      <trkpt lat="44.92949" lon="6.08658">
        <ele>2367.4</ele>
        <time>2024-08-14T09:50:12Z</time>
      </trkpt>
      <trkpt lat="44.92949" lon="6.08658">
        <ele>2367.4</ele>
        <time>2024-08-14T09:50:13Z</time>
      </trkpt>
      <trkpt lat="44.92948" lon="6.08661">
        <ele>2367.4</ele>
        <time>2024-08-14T09:50:14Z</time>
      </trkpt>
      <trkpt lat="44.92948" lon="6.08661">
        <ele>2367.6</ele>
        <time>2024-08-14T09:50:15Z</time>
      </trkpt>
      <trkpt lat="44.92948" lon="6.08664">
        <ele>2367.8</ele>
        <time>2024-08-14T09:50:16Z</time>
      </trkpt>
      <trkpt lat="44.92948" lon="6.08664">
        <ele>2367.8</ele>
        <time>2024-08-14T09:50:17Z</time>
      </trkpt>
      <trkpt lat="44.92949" lon="6.08666">
        <ele>2368.2</ele>
        <time>2024-08-14T09:50:18Z</time>
      </trkpt>
      <trkpt lat="44.92949" lon="6.08666">
        <ele>2368.6</ele>
        <time>2024-08-14T09:50:19Z</time>
      </trkpt>
      <trkpt lat="44.92949" lon="6.08666">
        <ele>2369</ele>
        <time>2024-08-14T09:50:20Z</time>
      </trkpt>
      <trkpt lat="44.92949" lon="6.08666">
        <ele>2369</ele>
        <time>2024-08-14T09:50:21Z</time>
      </trkpt>
      <trkpt lat="44.92952" lon="6.08668">
        <ele>2369</ele>
        <time>2024-08-14T09:50:22Z</time>
      </trkpt>
      <trkpt lat="44.92952" lon="6.08668">
        <ele>2369.2</ele>
        <time>2024-08-14T09:50:23Z</time>
      </trkpt>
      <trkpt lat="44.92952" lon="6.08668">
        <ele>2369.4</ele>
        <time>2024-08-14T09:50:24Z</time>
      </trkpt>
      <trkpt lat="44.92952" lon="6.08668">
        <ele>2369.6</ele>
        <time>2024-08-14T09:50:25Z</time>
      </trkpt>
      <trkpt lat="44.92952" lon="6.08668">
        <ele>2370</ele>
        <time>2024-08-14T09:50:26Z</time>
      </trkpt>
      <trkpt lat="44.92952" lon="6.08665">
        <ele>2370</ele>
        <time>2024-08-14T09:50:27Z</time>
      </trkpt>
      <trkpt lat="44.92952" lon="6.08665">
        <ele>2370.2</ele>
        <time>2024-08-14T09:50:28Z</time>
      </trkpt>
      <trkpt lat="44.92952" lon="6.08665">
        <ele>2370.4</ele>
        <time>2024-08-14T09:50:29Z</time>
      </trkpt>
      <trkpt lat="44.92952" lon="6.08665">
        <ele>2370.4</ele>
        <time>2024-08-14T09:50:30Z</time>
      </trkpt>
      <trkpt lat="44.92954" lon="6.08663">
        <ele>2370.8</ele>
        <time>2024-08-14T09:50:31Z</time>
      </trkpt>
      <trkpt lat="44.92954" lon="6.08663">
        <ele>2371.2</ele>
        <time>2024-08-14T09:50:32Z</time>
      </trkpt>
      <trkpt lat="44.92954" lon="6.08663">
        <ele>2371.4</ele>
        <time>2024-08-14T09:50:33Z</time>
      </trkpt>
      <trkpt lat="44.92954" lon="6.08663">
        <ele>2371.4</ele>
        <time>2024-08-14T09:50:34Z</time>
      </trkpt>
      <trkpt lat="44.92954" lon="6.08663">
        <ele>2372</ele>
        <time>2024-08-14T09:50:35Z</time>
      </trkpt>
      <trkpt lat="44.92954" lon="6.08663">
        <ele>2372</ele>
        <time>2024-08-14T09:50:36Z</time>
      </trkpt>
      <trkpt lat="44.92954" lon="6.08663">
        <ele>2372.2</ele>
        <time>2024-08-14T09:50:37Z</time>
      </trkpt>
      <trkpt lat="44.92954" lon="6.08663">
        <ele>2372.6</ele>
        <time>2024-08-14T09:50:38Z</time>
      </trkpt>
      <trkpt lat="44.92954" lon="6.08663">
        <ele>2372.8</ele>
        <time>2024-08-14T09:50:39Z</time>
      </trkpt>
      <trkpt lat="44.92954" lon="6.08663">
        <ele>2372.8</ele>
        <time>2024-08-14T09:50:40Z</time>
      </trkpt>
      <trkpt lat="44.92954" lon="6.08663">
        <ele>2373</ele>
        <time>2024-08-14T09:50:41Z</time>
      </trkpt>
      <trkpt lat="44.92954" lon="6.08663">
        <ele>2373.4</ele>
        <time>2024-08-14T09:50:42Z</time>
      </trkpt>
      <trkpt lat="44.92954" lon="6.08663">
        <ele>2373.6</ele>
        <time>2024-08-14T09:50:43Z</time>
      </trkpt>
      <trkpt lat="44.92954" lon="6.08663">
        <ele>2373.8</ele>
        <time>2024-08-14T09:50:44Z</time>
      </trkpt>
      <trkpt lat="44.92956" lon="6.08663">
        <ele>2373.8</ele>
        <time>2024-08-14T09:50:45Z</time>
      </trkpt>
      <trkpt lat="44.92956" lon="6.08663">
        <ele>2374</ele>
        <time>2024-08-14T09:50:46Z</time>
      </trkpt>
      <trkpt lat="44.92958" lon="6.08664">
        <ele>2374.2</ele>
        <time>2024-08-14T09:50:47Z</time>
      </trkpt>
      <trkpt lat="44.92958" lon="6.08664">
        <ele>2374.4</ele>
        <time>2024-08-14T09:50:48Z</time>
      </trkpt>
      <trkpt lat="44.9296" lon="6.08665">
        <ele>2374.6</ele>
        <time>2024-08-14T09:50:49Z</time>
      </trkpt>
      <trkpt lat="44.9296" lon="6.08665">
        <ele>2374.6</ele>
        <time>2024-08-14T09:50:50Z</time>
      </trkpt>
      <trkpt lat="44.9296" lon="6.08665">
        <ele>2375</ele>
        <time>2024-08-14T09:50:51Z</time>
      </trkpt>
      <trkpt lat="44.92962" lon="6.08665">
        <ele>2375.4</ele>
        <time>2024-08-14T09:50:52Z</time>
      </trkpt>
      <trkpt lat="44.92962" lon="6.08665">
        <ele>2375.6</ele>
        <time>2024-08-14T09:50:53Z</time>
      </trkpt>
      <trkpt lat="44.92962" lon="6.08665">
        <ele>2375.8</ele>
        <time>2024-08-14T09:50:54Z</time>
      </trkpt>
      <trkpt lat="44.92962" lon="6.08665">
        <ele>2376</ele>
        <time>2024-08-14T09:50:55Z</time>
      </trkpt>
      <trkpt lat="44.92964" lon="6.08667">
        <ele>2376</ele>
        <time>2024-08-14T09:50:56Z</time>
      </trkpt>
      <trkpt lat="44.92964" lon="6.08667">
        <ele>2376.2</ele>
        <time>2024-08-14T09:50:57Z</time>
      </trkpt>
      <trkpt lat="44.92964" lon="6.08667">
        <ele>2376.8</ele>
        <time>2024-08-14T09:50:58Z</time>
      </trkpt>
      <trkpt lat="44.92964" lon="6.08667">
        <ele>2377</ele>
        <time>2024-08-14T09:50:59Z</time>
      </trkpt>
      <trkpt lat="44.92966" lon="6.08667">
        <ele>2377.2</ele>
        <time>2024-08-14T09:51:00Z</time>
      </trkpt>
      <trkpt lat="44.92966" lon="6.08667">
        <ele>2377.2</ele>
        <time>2024-08-14T09:51:01Z</time>
      </trkpt>
      <trkpt lat="44.92966" lon="6.08667">
        <ele>2377.6</ele>
        <time>2024-08-14T09:51:02Z</time>
      </trkpt>
      <trkpt lat="44.92966" lon="6.08667">
        <ele>2377.6</ele>
        <time>2024-08-14T09:51:03Z</time>
      </trkpt>
      <trkpt lat="44.92967" lon="6.0867">
        <ele>2377.8</ele>
        <time>2024-08-14T09:51:04Z</time>
      </trkpt>
      <trkpt lat="44.92967" lon="6.0867">
        <ele>2377.8</ele>
        <time>2024-08-14T09:51:05Z</time>
      </trkpt>
      <trkpt lat="44.92967" lon="6.0867">
        <ele>2378</ele>
        <time>2024-08-14T09:51:06Z</time>
      </trkpt>
      <trkpt lat="44.92968" lon="6.08673">
        <ele>2378.4</ele>
        <time>2024-08-14T09:51:07Z</time>
      </trkpt>
      <trkpt lat="44.92968" lon="6.08673">
        <ele>2378.8</ele>
        <time>2024-08-14T09:51:08Z</time>
      </trkpt>
      <trkpt lat="44.92968" lon="6.08673">
        <ele>2379</ele>
        <time>2024-08-14T09:51:09Z</time>
      </trkpt>
      <trkpt lat="44.92968" lon="6.08673">
        <ele>2379</ele>
        <time>2024-08-14T09:51:10Z</time>
      </trkpt>
      <trkpt lat="44.9297" lon="6.08671">
        <ele>2379.2</ele>
        <time>2024-08-14T09:51:11Z</time>
      </trkpt>
      <trkpt lat="44.9297" lon="6.08671">
        <ele>2379.2</ele>
        <time>2024-08-14T09:51:12Z</time>
      </trkpt>
      <trkpt lat="44.9297" lon="6.08671">
        <ele>2379.6</ele>
        <time>2024-08-14T09:51:13Z</time>
      </trkpt>
      <trkpt lat="44.9297" lon="6.08668">
        <ele>2379.6</ele>
        <time>2024-08-14T09:51:14Z</time>
      </trkpt>
      <trkpt lat="44.9297" lon="6.08668">
        <ele>2379.6</ele>
        <time>2024-08-14T09:51:15Z</time>
      </trkpt>
      <trkpt lat="44.9297" lon="6.08668">
        <ele>2380.2</ele>
        <time>2024-08-14T09:51:16Z</time>
      </trkpt>
      <trkpt lat="44.9297" lon="6.08668">
        <ele>2380.4</ele>
        <time>2024-08-14T09:51:17Z</time>
      </trkpt>
      <trkpt lat="44.9297" lon="6.08668">
        <ele>2380.4</ele>
        <time>2024-08-14T09:51:18Z</time>
      </trkpt>
      <trkpt lat="44.92969" lon="6.08666">
        <ele>2380.8</ele>
        <time>2024-08-14T09:51:19Z</time>
      </trkpt>
      <trkpt lat="44.92969" lon="6.08666">
        <ele>2380.8</ele>
        <time>2024-08-14T09:51:20Z</time>
      </trkpt>
      <trkpt lat="44.92969" lon="6.08666">
        <ele>2381</ele>
        <time>2024-08-14T09:51:21Z</time>
      </trkpt>
      <trkpt lat="44.92969" lon="6.08666">
        <ele>2381.2</ele>
        <time>2024-08-14T09:51:22Z</time>
      </trkpt>
      <trkpt lat="44.92969" lon="6.08666">
        <ele>2381.4</ele>
        <time>2024-08-14T09:51:23Z</time>
      </trkpt>
      <trkpt lat="44.92969" lon="6.08666">
        <ele>2381.4</ele>
        <time>2024-08-14T09:51:24Z</time>
      </trkpt>
      <trkpt lat="44.92969" lon="6.08666">
        <ele>2381.8</ele>
        <time>2024-08-14T09:51:25Z</time>
      </trkpt>
      <trkpt lat="44.92969" lon="6.08666">
        <ele>2381.8</ele>
        <time>2024-08-14T09:51:26Z</time>
      </trkpt>
      <trkpt lat="44.92969" lon="6.08666">
        <ele>2382.4</ele>
        <time>2024-08-14T09:51:27Z</time>
      </trkpt>
      <trkpt lat="44.9297" lon="6.08663">
        <ele>2382.6</ele>
        <time>2024-08-14T09:51:28Z</time>
      </trkpt>
      <trkpt lat="44.9297" lon="6.08663">
        <ele>2382.6</ele>
        <time>2024-08-14T09:51:29Z</time>
      </trkpt>
      <trkpt lat="44.92971" lon="6.08661">
        <ele>2382.8</ele>
        <time>2024-08-14T09:51:30Z</time>
      </trkpt>
      <trkpt lat="44.92971" lon="6.08661">
        <ele>2383</ele>
        <time>2024-08-14T09:51:31Z</time>
      </trkpt>
      <trkpt lat="44.92971" lon="6.08661">
        <ele>2383.2</ele>
        <time>2024-08-14T09:51:32Z</time>
      </trkpt>
      <trkpt lat="44.92971" lon="6.08661">
        <ele>2383.6</ele>
        <time>2024-08-14T09:51:33Z</time>
      </trkpt>
      <trkpt lat="44.92971" lon="6.08661">
        <ele>2383.6</ele>
        <time>2024-08-14T09:51:34Z</time>
      </trkpt>
      <trkpt lat="44.92971" lon="6.08661">
        <ele>2383.6</ele>
        <time>2024-08-14T09:51:35Z</time>
      </trkpt>
      <trkpt lat="44.92971" lon="6.08661">
        <ele>2383.8</ele>
        <time>2024-08-14T09:51:36Z</time>
      </trkpt>
      <trkpt lat="44.92971" lon="6.08661">
        <ele>2384.2</ele>
        <time>2024-08-14T09:51:37Z</time>
      </trkpt>
      <trkpt lat="44.92971" lon="6.08661">
        <ele>2384.4</ele>
        <time>2024-08-14T09:51:38Z</time>
      </trkpt>
      <trkpt lat="44.92973" lon="6.08661">
        <ele>2384.8</ele>
        <time>2024-08-14T09:51:39Z</time>
      </trkpt>
      <trkpt lat="44.92973" lon="6.08661">
        <ele>2385</ele>
        <time>2024-08-14T09:51:40Z</time>
      </trkpt>
      <trkpt lat="44.92973" lon="6.08661">
        <ele>2385</ele>
        <time>2024-08-14T09:51:41Z</time>
      </trkpt>
      <trkpt lat="44.92973" lon="6.08661">
        <ele>2385.2</ele>
        <time>2024-08-14T09:51:42Z</time>
      </trkpt>
      <trkpt lat="44.92973" lon="6.08661">
        <ele>2385.4</ele>
        <time>2024-08-14T09:51:43Z</time>
      </trkpt>
      <trkpt lat="44.92973" lon="6.08661">
        <ele>2385.6</ele>
        <time>2024-08-14T09:51:44Z</time>
      </trkpt>
      <trkpt lat="44.92975" lon="6.08663">
        <ele>2385.6</ele>
        <time>2024-08-14T09:51:45Z</time>
      </trkpt>
      <trkpt lat="44.92975" lon="6.08663">
        <ele>2386</ele>
        <time>2024-08-14T09:51:46Z</time>
      </trkpt>
      <trkpt lat="44.92977" lon="6.08663">
        <ele>2386.8</ele>
        <time>2024-08-14T09:51:47Z</time>
      </trkpt>
      <trkpt lat="44.92977" lon="6.08663">
        <ele>2386.8</ele>
        <time>2024-08-14T09:51:48Z</time>
      </trkpt>
      <trkpt lat="44.92977" lon="6.08663">
        <ele>2386.8</ele>
        <time>2024-08-14T09:51:49Z</time>
      </trkpt>
      <trkpt lat="44.92977" lon="6.08661">
        <ele>2386.8</ele>
        <time>2024-08-14T09:51:50Z</time>
      </trkpt>
      <trkpt lat="44.92977" lon="6.08661">
        <ele>2386.8</ele>
        <time>2024-08-14T09:51:51Z</time>
      </trkpt>
      <trkpt lat="44.92977" lon="6.08661">
        <ele>2387</ele>
        <time>2024-08-14T09:51:52Z</time>
      </trkpt>
      <trkpt lat="44.92978" lon="6.08658">
        <ele>2387.4</ele>
        <time>2024-08-14T09:51:53Z</time>
      </trkpt>
      <trkpt lat="44.92978" lon="6.08658">
        <ele>2387.8</ele>
        <time>2024-08-14T09:51:54Z</time>
      </trkpt>
      <trkpt lat="44.92978" lon="6.08658">
        <ele>2387.8</ele>
        <time>2024-08-14T09:51:55Z</time>
      </trkpt>
      <trkpt lat="44.92978" lon="6.08658">
        <ele>2387.8</ele>
        <time>2024-08-14T09:51:56Z</time>
      </trkpt>
      <trkpt lat="44.92978" lon="6.08658">
        <ele>2388.2</ele>
        <time>2024-08-14T09:51:57Z</time>
      </trkpt>
      <trkpt lat="44.92978" lon="6.08658">
        <ele>2388.6</ele>
        <time>2024-08-14T09:51:58Z</time>
      </trkpt>
      <trkpt lat="44.92978" lon="6.08658">
        <ele>2389.2</ele>
        <time>2024-08-14T09:51:59Z</time>
      </trkpt>
      <trkpt lat="44.92978" lon="6.08658">
        <ele>2389.2</ele>
        <time>2024-08-14T09:52:00Z</time>
      </trkpt>
      <trkpt lat="44.92978" lon="6.08658">
        <ele>2389.4</ele>
        <time>2024-08-14T09:52:01Z</time>
      </trkpt>
      <trkpt lat="44.9298" lon="6.08658">
        <ele>2389.6</ele>
        <time>2024-08-14T09:52:02Z</time>
      </trkpt>
      <trkpt lat="44.9298" lon="6.08658">
        <ele>2389.6</ele>
        <time>2024-08-14T09:52:03Z</time>
      </trkpt>
      <trkpt lat="44.92981" lon="6.0866">
        <ele>2389.8</ele>
        <time>2024-08-14T09:52:04Z</time>
      </trkpt>
      <trkpt lat="44.92981" lon="6.0866">
        <ele>2389.8</ele>
        <time>2024-08-14T09:52:05Z</time>
      </trkpt>
      <trkpt lat="44.92982" lon="6.08662">
        <ele>2390</ele>
        <time>2024-08-14T09:52:06Z</time>
      </trkpt>
      <trkpt lat="44.92982" lon="6.08662">
        <ele>2390.2</ele>
        <time>2024-08-14T09:52:07Z</time>
      </trkpt>
      <trkpt lat="44.92982" lon="6.08662">
        <ele>2390.4</ele>
        <time>2024-08-14T09:52:08Z</time>
      </trkpt>
      <trkpt lat="44.92982" lon="6.08662">
        <ele>2390.6</ele>
        <time>2024-08-14T09:52:09Z</time>
      </trkpt>
      <trkpt lat="44.92982" lon="6.08662">
        <ele>2391</ele>
        <time>2024-08-14T09:52:10Z</time>
      </trkpt>
      <trkpt lat="44.92982" lon="6.08662">
        <ele>2391.2</ele>
        <time>2024-08-14T09:52:11Z</time>
      </trkpt>
      <trkpt lat="44.92984" lon="6.08665">
        <ele>2391.4</ele>
        <time>2024-08-14T09:52:12Z</time>
      </trkpt>
      <trkpt lat="44.92984" lon="6.08665">
        <ele>2391.6</ele>
        <time>2024-08-14T09:52:13Z</time>
      </trkpt>
      <trkpt lat="44.92986" lon="6.08667">
        <ele>2391.8</ele>
        <time>2024-08-14T09:52:14Z</time>
      </trkpt>
      <trkpt lat="44.92986" lon="6.08667">
        <ele>2391.8</ele>
        <time>2024-08-14T09:52:15Z</time>
      </trkpt>
      <trkpt lat="44.92987" lon="6.08669">
        <ele>2391.8</ele>
        <time>2024-08-14T09:52:16Z</time>
      </trkpt>
      <trkpt lat="44.92987" lon="6.08669">
        <ele>2392.2</ele>
        <time>2024-08-14T09:52:17Z</time>
      </trkpt>
      <trkpt lat="44.92988" lon="6.08671">
        <ele>2392.4</ele>
        <time>2024-08-14T09:52:18Z</time>
      </trkpt>
      <trkpt lat="44.92988" lon="6.08671">
        <ele>2392.6</ele>
        <time>2024-08-14T09:52:19Z</time>
      </trkpt>
      <trkpt lat="44.92988" lon="6.08671">
        <ele>2393</ele>
        <time>2024-08-14T09:52:20Z</time>
      </trkpt>
      <trkpt lat="44.92989" lon="6.08674">
        <ele>2393.4</ele>
        <time>2024-08-14T09:52:21Z</time>
      </trkpt>
      <trkpt lat="44.92989" lon="6.08674">
        <ele>2393.6</ele>
        <time>2024-08-14T09:52:22Z</time>
      </trkpt>
      <trkpt lat="44.92989" lon="6.08674">
        <ele>2393.6</ele>
        <time>2024-08-14T09:52:23Z</time>
      </trkpt>
      <trkpt lat="44.9299" lon="6.08676">
        <ele>2394</ele>
        <time>2024-08-14T09:52:24Z</time>
      </trkpt>
      <trkpt lat="44.9299" lon="6.08676">
        <ele>2394.2</ele>
        <time>2024-08-14T09:52:25Z</time>
      </trkpt>
      <trkpt lat="44.9299" lon="6.08676">
        <ele>2394.2</ele>
        <time>2024-08-14T09:52:26Z</time>
      </trkpt>
      <trkpt lat="44.92992" lon="6.08677">
        <ele>2394.4</ele>
        <time>2024-08-14T09:52:27Z</time>
      </trkpt>
      <trkpt lat="44.92992" lon="6.08677">
        <ele>2395</ele>
        <time>2024-08-14T09:52:28Z</time>
      </trkpt>
      <trkpt lat="44.92992" lon="6.08677">
        <ele>2395</ele>
        <time>2024-08-14T09:52:29Z</time>
      </trkpt>
      <trkpt lat="44.92993" lon="6.08679">
        <ele>2395.4</ele>
        <time>2024-08-14T09:52:30Z</time>
      </trkpt>
      <trkpt lat="44.92993" lon="6.08679">
        <ele>2395.6</ele>
        <time>2024-08-14T09:52:31Z</time>
      </trkpt>
      <trkpt lat="44.92993" lon="6.08679">
        <ele>2395.6</ele>
        <time>2024-08-14T09:52:32Z</time>
      </trkpt>
      <trkpt lat="44.92994" lon="6.08682">
        <ele>2395.8</ele>
        <time>2024-08-14T09:52:33Z</time>
      </trkpt>
      <trkpt lat="44.92994" lon="6.08682">
        <ele>2396</ele>
        <time>2024-08-14T09:52:34Z</time>
      </trkpt>
      <trkpt lat="44.92994" lon="6.08682">
        <ele>2396</ele>
        <time>2024-08-14T09:52:35Z</time>
      </trkpt>
      <trkpt lat="44.92996" lon="6.08685">
        <ele>2396</ele>
        <time>2024-08-14T09:52:36Z</time>
      </trkpt>
      <trkpt lat="44.92996" lon="6.08685">
        <ele>2396</ele>
        <time>2024-08-14T09:52:37Z</time>
      </trkpt>
      <trkpt lat="44.92996" lon="6.08685">
        <ele>2396</ele>
        <time>2024-08-14T09:52:38Z</time>
      </trkpt>
      <trkpt lat="44.92996" lon="6.08685">
        <ele>2396.2</ele>
        <time>2024-08-14T09:52:39Z</time>
      </trkpt>
      <trkpt lat="44.92996" lon="6.08685">
        <ele>2396.4</ele>
        <time>2024-08-14T09:52:40Z</time>
      </trkpt>
      <trkpt lat="44.92996" lon="6.08685">
        <ele>2396.6</ele>
        <time>2024-08-14T09:52:41Z</time>
      </trkpt>
      <trkpt lat="44.92996" lon="6.08685">
        <ele>2396.8</ele>
        <time>2024-08-14T09:52:42Z</time>
      </trkpt>
      <trkpt lat="44.92996" lon="6.08681">
        <ele>2396.8</ele>
        <time>2024-08-14T09:52:43Z</time>
      </trkpt>
      <trkpt lat="44.92996" lon="6.08681">
        <ele>2396.8</ele>
        <time>2024-08-14T09:52:44Z</time>
      </trkpt>
      <trkpt lat="44.92996" lon="6.08681">
        <ele>2397</ele>
        <time>2024-08-14T09:52:45Z</time>
      </trkpt>
      <trkpt lat="44.92996" lon="6.08681">
        <ele>2397.4</ele>
        <time>2024-08-14T09:52:46Z</time>
      </trkpt>
      <trkpt lat="44.92996" lon="6.08681">
        <ele>2397.4</ele>
        <time>2024-08-14T09:52:47Z</time>
      </trkpt>
      <trkpt lat="44.92996" lon="6.08681">
        <ele>2397.4</ele>
        <time>2024-08-14T09:52:48Z</time>
      </trkpt>
      <trkpt lat="44.92995" lon="6.08677">
        <ele>2397.6</ele>
        <time>2024-08-14T09:52:49Z</time>
      </trkpt>
      <trkpt lat="44.92995" lon="6.08677">
        <ele>2397.8</ele>
        <time>2024-08-14T09:52:50Z</time>
      </trkpt>
      <trkpt lat="44.92994" lon="6.08673">
        <ele>2398</ele>
        <time>2024-08-14T09:52:51Z</time>
      </trkpt>
      <trkpt lat="44.92994" lon="6.08673">
        <ele>2398</ele>
        <time>2024-08-14T09:52:52Z</time>
      </trkpt>
      <trkpt lat="44.92994" lon="6.08669">
        <ele>2398</ele>
        <time>2024-08-14T09:52:53Z</time>
      </trkpt>
      <trkpt lat="44.92994" lon="6.08669">
        <ele>2398.2</ele>
        <time>2024-08-14T09:52:54Z</time>
      </trkpt>
      <trkpt lat="44.92995" lon="6.08665">
        <ele>2398.2</ele>
        <time>2024-08-14T09:52:55Z</time>
      </trkpt>
      <trkpt lat="44.92995" lon="6.08665">
        <ele>2398.6</ele>
        <time>2024-08-14T09:52:56Z</time>
      </trkpt>
      <trkpt lat="44.92995" lon="6.08665">
        <ele>2398.6</ele>
        <time>2024-08-14T09:52:57Z</time>
      </trkpt>
      <trkpt lat="44.92995" lon="6.08662">
        <ele>2399</ele>
        <time>2024-08-14T09:52:58Z</time>
      </trkpt>
      <trkpt lat="44.92995" lon="6.08662">
        <ele>2399</ele>
        <time>2024-08-14T09:52:59Z</time>
      </trkpt>
      <trkpt lat="44.92995" lon="6.08662">
        <ele>2399.4</ele>
        <time>2024-08-14T09:53:00Z</time>
      </trkpt>
      <trkpt lat="44.92996" lon="6.08659">
        <ele>2399.6</ele>
        <time>2024-08-14T09:53:01Z</time>
      </trkpt>
      <trkpt lat="44.92996" lon="6.08659">
        <ele>2400</ele>
        <time>2024-08-14T09:53:02Z</time>
      </trkpt>
      <trkpt lat="44.92996" lon="6.08659">
        <ele>2400</ele>
        <time>2024-08-14T09:53:03Z</time>
      </trkpt>
      <trkpt lat="44.92997" lon="6.08656">
        <ele>2400.4</ele>
        <time>2024-08-14T09:53:04Z</time>
      </trkpt>
      <trkpt lat="44.92997" lon="6.08656">
        <ele>2400.4</ele>
        <time>2024-08-14T09:53:05Z</time>
      </trkpt>
      <trkpt lat="44.92998" lon="6.08654">
        <ele>2400.6</ele>
        <time>2024-08-14T09:53:06Z</time>
      </trkpt>
      <trkpt lat="44.92998" lon="6.08654">
        <ele>2400.6</ele>
        <time>2024-08-14T09:53:07Z</time>
      </trkpt>
      <trkpt lat="44.92998" lon="6.08654">
        <ele>2401</ele>
        <time>2024-08-14T09:53:08Z</time>
      </trkpt>
      <trkpt lat="44.92998" lon="6.08654">
        <ele>2401.6</ele>
        <time>2024-08-14T09:53:09Z</time>
      </trkpt>
      <trkpt lat="44.93" lon="6.08656">
        <ele>2401.6</ele>
        <time>2024-08-14T09:53:10Z</time>
      </trkpt>
      <trkpt lat="44.93" lon="6.08656">
        <ele>2401.6</ele>
        <time>2024-08-14T09:53:11Z</time>
      </trkpt>
      <trkpt lat="44.93" lon="6.08656">
        <ele>2401.6</ele>
        <time>2024-08-14T09:53:12Z</time>
      </trkpt>
      <trkpt lat="44.93" lon="6.0866">
        <ele>2401.6</ele>
        <time>2024-08-14T09:53:13Z</time>
      </trkpt>
      <trkpt lat="44.93" lon="6.0866">
        <ele>2402.2</ele>
        <time>2024-08-14T09:53:14Z</time>
      </trkpt>
      <trkpt lat="44.93" lon="6.08663">
        <ele>2402.2</ele>
        <time>2024-08-14T09:53:15Z</time>
      </trkpt>
      <trkpt lat="44.93" lon="6.08663">
        <ele>2402.4</ele>
        <time>2024-08-14T09:53:16Z</time>
      </trkpt>
      <trkpt lat="44.93" lon="6.08663">
        <ele>2402.4</ele>
        <time>2024-08-14T09:53:17Z</time>
      </trkpt>
      <trkpt lat="44.93" lon="6.08663">
        <ele>2402.4</ele>
        <time>2024-08-14T09:53:18Z</time>
      </trkpt>
      <trkpt lat="44.93" lon="6.08663">
        <ele>2402.8</ele>
        <time>2024-08-14T09:53:19Z</time>
      </trkpt>
      <trkpt lat="44.93" lon="6.08663">
        <ele>2403</ele>
        <time>2024-08-14T09:53:20Z</time>
      </trkpt>
      <trkpt lat="44.93" lon="6.08663">
        <ele>2403.2</ele>
        <time>2024-08-14T09:53:21Z</time>
      </trkpt>
      <trkpt lat="44.93" lon="6.08663">
        <ele>2403.4</ele>
        <time>2024-08-14T09:53:22Z</time>
      </trkpt>
      <trkpt lat="44.93" lon="6.08663">
        <ele>2403.6</ele>
        <time>2024-08-14T09:53:23Z</time>
      </trkpt>
      <trkpt lat="44.93" lon="6.08663">
        <ele>2403.6</ele>
        <time>2024-08-14T09:53:24Z</time>
      </trkpt>
      <trkpt lat="44.93" lon="6.08663">
        <ele>2403.8</ele>
        <time>2024-08-14T09:53:25Z</time>
      </trkpt>
      <trkpt lat="44.93" lon="6.08663">
        <ele>2404</ele>
        <time>2024-08-14T09:53:26Z</time>
      </trkpt>
      <trkpt lat="44.93" lon="6.08663">
        <ele>2404.4</ele>
        <time>2024-08-14T09:53:27Z</time>
      </trkpt>
      <trkpt lat="44.93002" lon="6.08661">
        <ele>2404.4</ele>
        <time>2024-08-14T09:53:28Z</time>
      </trkpt>
      <trkpt lat="44.93002" lon="6.08661">
        <ele>2404.6</ele>
        <time>2024-08-14T09:53:29Z</time>
      </trkpt>
      <trkpt lat="44.93002" lon="6.08661">
        <ele>2404.8</ele>
        <time>2024-08-14T09:53:30Z</time>
      </trkpt>
      <trkpt lat="44.93002" lon="6.08661">
        <ele>2404.8</ele>
        <time>2024-08-14T09:53:31Z</time>
      </trkpt>
      <trkpt lat="44.93002" lon="6.08661">
        <ele>2405</ele>
        <time>2024-08-14T09:53:32Z</time>
      </trkpt>
      <trkpt lat="44.93002" lon="6.08661">
        <ele>2405.2</ele>
        <time>2024-08-14T09:53:33Z</time>
      </trkpt>
      <trkpt lat="44.93004" lon="6.08659">
        <ele>2405.4</ele>
        <time>2024-08-14T09:53:34Z</time>
      </trkpt>
      <trkpt lat="44.93004" lon="6.08659">
        <ele>2406</ele>
        <time>2024-08-14T09:53:35Z</time>
      </trkpt>
      <trkpt lat="44.93004" lon="6.08659">
        <ele>2406</ele>
        <time>2024-08-14T09:53:36Z</time>
      </trkpt>
      <trkpt lat="44.93004" lon="6.08659">
        <ele>2406.2</ele>
        <time>2024-08-14T09:53:37Z</time>
      </trkpt>
      <trkpt lat="44.93005" lon="6.08658">
        <ele>2406.4</ele>
        <time>2024-08-14T09:53:38Z</time>
      </trkpt>
      <trkpt lat="44.93005" lon="6.08658">
        <ele>2406.8</ele>
        <time>2024-08-14T09:53:39Z</time>
      </trkpt>
      <trkpt lat="44.93005" lon="6.08658">
        <ele>2407</ele>
        <time>2024-08-14T09:53:40Z</time>
      </trkpt>
      <trkpt lat="44.93005" lon="6.08658">
        <ele>2407</ele>
        <time>2024-08-14T09:53:41Z</time>
      </trkpt>
      <trkpt lat="44.93006" lon="6.0866">
        <ele>2407</ele>
        <time>2024-08-14T09:53:42Z</time>
      </trkpt>
      <trkpt lat="44.93006" lon="6.0866">
        <ele>2407.2</ele>
        <time>2024-08-14T09:53:43Z</time>
      </trkpt>
      <trkpt lat="44.93006" lon="6.0866">
        <ele>2407.4</ele>
        <time>2024-08-14T09:53:44Z</time>
      </trkpt>
      <trkpt lat="44.93007" lon="6.08664">
        <ele>2407.6</ele>
        <time>2024-08-14T09:53:45Z</time>
      </trkpt>
      <trkpt lat="44.93007" lon="6.08664">
        <ele>2408</ele>
        <time>2024-08-14T09:53:46Z</time>
      </trkpt>
      <trkpt lat="44.93007" lon="6.08664">
        <ele>2408.2</ele>
        <time>2024-08-14T09:53:47Z</time>
      </trkpt>
      <trkpt lat="44.93007" lon="6.08664">
        <ele>2408.6</ele>
        <time>2024-08-14T09:53:48Z</time>
      </trkpt>
      <trkpt lat="44.93007" lon="6.08664">
        <ele>2408.6</ele>
        <time>2024-08-14T09:53:49Z</time>
      </trkpt>
      <trkpt lat="44.93007" lon="6.08664">
        <ele>2409</ele>
        <time>2024-08-14T09:53:50Z</time>
      </trkpt>
      <trkpt lat="44.93007" lon="6.08664">
        <ele>2409.4</ele>
        <time>2024-08-14T09:53:51Z</time>
      </trkpt>
      <trkpt lat="44.93007" lon="6.08664">
        <ele>2409.6</ele>
        <time>2024-08-14T09:53:52Z</time>
      </trkpt>
      <trkpt lat="44.93007" lon="6.08664">
        <ele>2409.8</ele>
        <time>2024-08-14T09:53:53Z</time>
      </trkpt>
      <trkpt lat="44.93007" lon="6.08664">
        <ele>2410.4</ele>
        <time>2024-08-14T09:53:54Z</time>
      </trkpt>
      <trkpt lat="44.93007" lon="6.08664">
        <ele>2410.4</ele>
        <time>2024-08-14T09:53:55Z</time>
      </trkpt>
      <trkpt lat="44.93007" lon="6.08664">
        <ele>2410.8</ele>
        <time>2024-08-14T09:53:56Z</time>
      </trkpt>
      <trkpt lat="44.93007" lon="6.08664">
        <ele>2411</ele>
        <time>2024-08-14T09:53:57Z</time>
      </trkpt>
      <trkpt lat="44.93007" lon="6.08664">
        <ele>2411</ele>
        <time>2024-08-14T09:53:58Z</time>
      </trkpt>
      <trkpt lat="44.93007" lon="6.08664">
        <ele>2411</ele>
        <time>2024-08-14T09:53:59Z</time>
      </trkpt>
      <trkpt lat="44.93007" lon="6.08664">
        <ele>2411.2</ele>
        <time>2024-08-14T09:54:00Z</time>
      </trkpt>
      <trkpt lat="44.93009" lon="6.08664">
        <ele>2411.4</ele>
        <time>2024-08-14T09:54:01Z</time>
      </trkpt>
      <trkpt lat="44.93009" lon="6.08664">
        <ele>2412</ele>
        <time>2024-08-14T09:54:02Z</time>
      </trkpt>
      <trkpt lat="44.93012" lon="6.08662">
        <ele>2412</ele>
        <time>2024-08-14T09:54:03Z</time>
      </trkpt>
      <trkpt lat="44.93012" lon="6.08662">
        <ele>2412</ele>
        <time>2024-08-14T09:54:04Z</time>
      </trkpt>
      <trkpt lat="44.93013" lon="6.08661">
        <ele>2412.2</ele>
        <time>2024-08-14T09:54:05Z</time>
      </trkpt>
      <trkpt lat="44.93013" lon="6.08661">
        <ele>2412.4</ele>
        <time>2024-08-14T09:54:06Z</time>
      </trkpt>
      <trkpt lat="44.93013" lon="6.08661">
        <ele>2412.4</ele>
        <time>2024-08-14T09:54:07Z</time>
      </trkpt>
      <trkpt lat="44.93016" lon="6.0866">
        <ele>2412.8</ele>
        <time>2024-08-14T09:54:08Z</time>
      </trkpt>
      <trkpt lat="44.93016" lon="6.0866">
        <ele>2413</ele>
        <time>2024-08-14T09:54:09Z</time>
      </trkpt>
      <trkpt lat="44.93016" lon="6.0866">
        <ele>2413.2</ele>
        <time>2024-08-14T09:54:10Z</time>
      </trkpt>
      <trkpt lat="44.93016" lon="6.0866">
        <ele>2413.4</ele>
        <time>2024-08-14T09:54:11Z</time>
      </trkpt>
      <trkpt lat="44.93016" lon="6.0866">
        <ele>2413.4</ele>
        <time>2024-08-14T09:54:12Z</time>
      </trkpt>
      <trkpt lat="44.93016" lon="6.0866">
        <ele>2413.8</ele>
        <time>2024-08-14T09:54:13Z</time>
      </trkpt>
      <trkpt lat="44.93016" lon="6.08662">
        <ele>2414.2</ele>
        <time>2024-08-14T09:54:14Z</time>
      </trkpt>
      <trkpt lat="44.93016" lon="6.08662">
        <ele>2414.2</ele>
        <time>2024-08-14T09:54:15Z</time>
      </trkpt>
      <trkpt lat="44.93016" lon="6.08662">
        <ele>2414.2</ele>
        <time>2024-08-14T09:54:16Z</time>
      </trkpt>
      <trkpt lat="44.93014" lon="6.08666">
        <ele>2414.2</ele>
        <time>2024-08-14T09:54:17Z</time>
      </trkpt>
      <trkpt lat="44.93014" lon="6.08666">
        <ele>2414.6</ele>
        <time>2024-08-14T09:54:18Z</time>
      </trkpt>
      <trkpt lat="44.93014" lon="6.08666">
        <ele>2414.8</ele>
        <time>2024-08-14T09:54:19Z</time>
      </trkpt>
      <trkpt lat="44.93014" lon="6.08666">
        <ele>2414.8</ele>
        <time>2024-08-14T09:54:20Z</time>
      </trkpt>
      <trkpt lat="44.93014" lon="6.08666">
        <ele>2415</ele>
        <time>2024-08-14T09:54:21Z</time>
      </trkpt>
      <trkpt lat="44.93014" lon="6.08666">
        <ele>2415.2</ele>
        <time>2024-08-14T09:54:22Z</time>
      </trkpt>
      <trkpt lat="44.93014" lon="6.08666">
        <ele>2415.6</ele>
        <time>2024-08-14T09:54:23Z</time>
      </trkpt>
      <trkpt lat="44.93014" lon="6.08666">
        <ele>2415.6</ele>
        <time>2024-08-14T09:54:24Z</time>
      </trkpt>
      <trkpt lat="44.93014" lon="6.08666">
        <ele>2415.6</ele>
        <time>2024-08-14T09:54:25Z</time>
      </trkpt>
      <trkpt lat="44.93014" lon="6.08666">
        <ele>2415.8</ele>
        <time>2024-08-14T09:54:26Z</time>
      </trkpt>
      <trkpt lat="44.93014" lon="6.08666">
        <ele>2416.2</ele>
        <time>2024-08-14T09:54:27Z</time>
      </trkpt>
      <trkpt lat="44.93014" lon="6.08666">
        <ele>2416.8</ele>
        <time>2024-08-14T09:54:28Z</time>
      </trkpt>
      <trkpt lat="44.93016" lon="6.08666">
        <ele>2416.8</ele>
        <time>2024-08-14T09:54:29Z</time>
      </trkpt>
      <trkpt lat="44.93016" lon="6.08666">
        <ele>2417</ele>
        <time>2024-08-14T09:54:30Z</time>
      </trkpt>
      <trkpt lat="44.93018" lon="6.08665">
        <ele>2417.2</ele>
        <time>2024-08-14T09:54:31Z</time>
      </trkpt>
      <trkpt lat="44.93018" lon="6.08665">
        <ele>2417.4</ele>
        <time>2024-08-14T09:54:32Z</time>
      </trkpt>
      <trkpt lat="44.93021" lon="6.08663">
        <ele>2417.4</ele>
        <time>2024-08-14T09:54:33Z</time>
      </trkpt>
      <trkpt lat="44.93021" lon="6.08663">
        <ele>2417.6</ele>
        <time>2024-08-14T09:54:34Z</time>
      </trkpt>
      <trkpt lat="44.93022" lon="6.08662">
        <ele>2417.6</ele>
        <time>2024-08-14T09:54:35Z</time>
      </trkpt>
      <trkpt lat="44.93022" lon="6.08662">
        <ele>2418.2</ele>
        <time>2024-08-14T09:54:36Z</time>
      </trkpt>
      <trkpt lat="44.93024" lon="6.08661">
        <ele>2418.4</ele>
        <time>2024-08-14T09:54:37Z</time>
      </trkpt>
      <trkpt lat="44.93024" lon="6.08661">
        <ele>2418.6</ele>
        <time>2024-08-14T09:54:38Z</time>
      </trkpt>
      <trkpt lat="44.93024" lon="6.08661">
        <ele>2418.8</ele>
        <time>2024-08-14T09:54:39Z</time>
      </trkpt>
      <trkpt lat="44.93024" lon="6.08661">
        <ele>2418.8</ele>
        <time>2024-08-14T09:54:40Z</time>
      </trkpt>
      <trkpt lat="44.93026" lon="6.08662">
        <ele>2419</ele>
        <time>2024-08-14T09:54:41Z</time>
      </trkpt>
      <trkpt lat="44.93026" lon="6.08662">
        <ele>2419.4</ele>
        <time>2024-08-14T09:54:42Z</time>
      </trkpt>
      <trkpt lat="44.93026" lon="6.08662">
        <ele>2419.6</ele>
        <time>2024-08-14T09:54:43Z</time>
      </trkpt>
      <trkpt lat="44.93025" lon="6.08665">
        <ele>2419.6</ele>
        <time>2024-08-14T09:54:44Z</time>
      </trkpt>
      <trkpt lat="44.93025" lon="6.08665">
        <ele>2420</ele>
        <time>2024-08-14T09:54:45Z</time>
      </trkpt>
      <trkpt lat="44.93025" lon="6.08665">
        <ele>2420.2</ele>
        <time>2024-08-14T09:54:46Z</time>
      </trkpt>
      <trkpt lat="44.93025" lon="6.08665">
        <ele>2420.4</ele>
        <time>2024-08-14T09:54:47Z</time>
      </trkpt>
      <trkpt lat="44.93025" lon="6.08665">
        <ele>2420.8</ele>
        <time>2024-08-14T09:54:48Z</time>
      </trkpt>
      <trkpt lat="44.93025" lon="6.08665">
        <ele>2420.8</ele>
        <time>2024-08-14T09:54:49Z</time>
      </trkpt>
      <trkpt lat="44.93025" lon="6.08665">
        <ele>2420.8</ele>
        <time>2024-08-14T09:54:50Z</time>
      </trkpt>
      <trkpt lat="44.93025" lon="6.08665">
        <ele>2421</ele>
        <time>2024-08-14T09:54:51Z</time>
      </trkpt>
      <trkpt lat="44.93025" lon="6.08668">
        <ele>2421.2</ele>
        <time>2024-08-14T09:54:52Z</time>
      </trkpt>
      <trkpt lat="44.93025" lon="6.08668">
        <ele>2421.8</ele>
        <time>2024-08-14T09:54:53Z</time>
      </trkpt>
      <trkpt lat="44.93025" lon="6.08668">
        <ele>2421.8</ele>
        <time>2024-08-14T09:54:54Z</time>
      </trkpt>
      <trkpt lat="44.93025" lon="6.08668">
        <ele>2422.2</ele>
        <time>2024-08-14T09:54:55Z</time>
      </trkpt>
      <trkpt lat="44.93025" lon="6.08668">
        <ele>2422.6</ele>
        <time>2024-08-14T09:54:56Z</time>
      </trkpt>
      <trkpt lat="44.93028" lon="6.0867">
        <ele>2422.6</ele>
        <time>2024-08-14T09:54:57Z</time>
      </trkpt>
      <trkpt lat="44.93028" lon="6.0867">
        <ele>2422.8</ele>
        <time>2024-08-14T09:54:58Z</time>
      </trkpt>
      <trkpt lat="44.93028" lon="6.0867">
        <ele>2423.2</ele>
        <time>2024-08-14T09:54:59Z</time>
      </trkpt>
      <trkpt lat="44.93028" lon="6.0867">
        <ele>2423.2</ele>
        <time>2024-08-14T09:55:00Z</time>
      </trkpt>
      <trkpt lat="44.93029" lon="6.08669">
        <ele>2423.2</ele>
        <time>2024-08-14T09:55:01Z</time>
      </trkpt>
      <trkpt lat="44.93029" lon="6.08669">
        <ele>2423.8</ele>
        <time>2024-08-14T09:55:02Z</time>
      </trkpt>
      <trkpt lat="44.93029" lon="6.08669">
        <ele>2423.8</ele>
        <time>2024-08-14T09:55:03Z</time>
      </trkpt>
      <trkpt lat="44.93029" lon="6.08669">
        <ele>2424</ele>
        <time>2024-08-14T09:55:04Z</time>
      </trkpt>
      <trkpt lat="44.93029" lon="6.08669">
        <ele>2424</ele>
        <time>2024-08-14T09:55:05Z</time>
      </trkpt>
      <trkpt lat="44.93029" lon="6.08669">
        <ele>2424.4</ele>
        <time>2024-08-14T09:55:06Z</time>
      </trkpt>
      <trkpt lat="44.93029" lon="6.08669">
        <ele>2424.4</ele>
        <time>2024-08-14T09:55:07Z</time>
      </trkpt>
      <trkpt lat="44.93029" lon="6.08669">
        <ele>2424.6</ele>
        <time>2024-08-14T09:55:08Z</time>
      </trkpt>
      <trkpt lat="44.93029" lon="6.08669">
        <ele>2425</ele>
        <time>2024-08-14T09:55:09Z</time>
      </trkpt>
      <trkpt lat="44.9303" lon="6.08667">
        <ele>2425.2</ele>
        <time>2024-08-14T09:55:10Z</time>
      </trkpt>
      <trkpt lat="44.9303" lon="6.08667">
        <ele>2425.6</ele>
        <time>2024-08-14T09:55:11Z</time>
      </trkpt>
      <trkpt lat="44.9303" lon="6.08667">
        <ele>2425.6</ele>
        <time>2024-08-14T09:55:12Z</time>
      </trkpt>
      <trkpt lat="44.9303" lon="6.08667">
        <ele>2426</ele>
        <time>2024-08-14T09:55:13Z</time>
      </trkpt>
      <trkpt lat="44.93032" lon="6.08665">
        <ele>2426.2</ele>
        <time>2024-08-14T09:55:14Z</time>
      </trkpt>
      <trkpt lat="44.93032" lon="6.08665">
        <ele>2426.4</ele>
        <time>2024-08-14T09:55:15Z</time>
      </trkpt>
      <trkpt lat="44.93035" lon="6.08664">
        <ele>2426.6</ele>
        <time>2024-08-14T09:55:16Z</time>
      </trkpt>
      <trkpt lat="44.93035" lon="6.08664">
        <ele>2426.8</ele>
        <time>2024-08-14T09:55:17Z</time>
      </trkpt>
      <trkpt lat="44.93037" lon="6.08662">
        <ele>2426.8</ele>
        <time>2024-08-14T09:55:18Z</time>
      </trkpt>
      <trkpt lat="44.93037" lon="6.08662">
        <ele>2427</ele>
        <time>2024-08-14T09:55:19Z</time>
      </trkpt>
      <trkpt lat="44.93037" lon="6.08662">
        <ele>2427.6</ele>
        <time>2024-08-14T09:55:20Z</time>
      </trkpt>
      <trkpt lat="44.93037" lon="6.08662">
        <ele>2427.8</ele>
        <time>2024-08-14T09:55:21Z</time>
      </trkpt>
      <trkpt lat="44.93037" lon="6.08662">
        <ele>2428.2</ele>
        <time>2024-08-14T09:55:22Z</time>
      </trkpt>
      <trkpt lat="44.93038" lon="6.08665">
        <ele>2428.2</ele>
        <time>2024-08-14T09:55:23Z</time>
      </trkpt>
      <trkpt lat="44.93038" lon="6.08665">
        <ele>2428.2</ele>
        <time>2024-08-14T09:55:24Z</time>
      </trkpt>
      <trkpt lat="44.93038" lon="6.08665">
        <ele>2428.4</ele>
        <time>2024-08-14T09:55:25Z</time>
      </trkpt>
      <trkpt lat="44.93037" lon="6.08668">
        <ele>2428.8</ele>
        <time>2024-08-14T09:55:26Z</time>
      </trkpt>
      <trkpt lat="44.93037" lon="6.08668">
        <ele>2429</ele>
        <time>2024-08-14T09:55:27Z</time>
      </trkpt>
      <trkpt lat="44.93037" lon="6.08668">
        <ele>2429</ele>
        <time>2024-08-14T09:55:28Z</time>
      </trkpt>
      <trkpt lat="44.93037" lon="6.08668">
        <ele>2429.2</ele>
        <time>2024-08-14T09:55:29Z</time>
      </trkpt>
      <trkpt lat="44.93037" lon="6.08668">
        <ele>2429.4</ele>
        <time>2024-08-14T09:55:30Z</time>
      </trkpt>
      <trkpt lat="44.93037" lon="6.08668">
        <ele>2429.4</ele>
        <time>2024-08-14T09:55:31Z</time>
      </trkpt>
      <trkpt lat="44.93037" lon="6.08668">
        <ele>2429.4</ele>
        <time>2024-08-14T09:55:32Z</time>
      </trkpt>
      <trkpt lat="44.93037" lon="6.08668">
        <ele>2429.4</ele>
        <time>2024-08-14T09:55:33Z</time>
      </trkpt>
      <trkpt lat="44.93037" lon="6.08668">
        <ele>2429.6</ele>
        <time>2024-08-14T09:55:34Z</time>
      </trkpt>
      <trkpt lat="44.93037" lon="6.08668">
        <ele>2429.6</ele>
        <time>2024-08-14T09:55:35Z</time>
      </trkpt>
      <trkpt lat="44.93037" lon="6.08668">
        <ele>2429.8</ele>
        <time>2024-08-14T09:55:36Z</time>
      </trkpt>
      <trkpt lat="44.93039" lon="6.08666">
        <ele>2430</ele>
        <time>2024-08-14T09:55:37Z</time>
      </trkpt>
      <trkpt lat="44.93039" lon="6.08666">
        <ele>2430</ele>
        <time>2024-08-14T09:55:38Z</time>
      </trkpt>
      <trkpt lat="44.93039" lon="6.08666">
        <ele>2430.4</ele>
        <time>2024-08-14T09:55:39Z</time>
      </trkpt>
      <trkpt lat="44.93041" lon="6.08664">
        <ele>2430.6</ele>
        <time>2024-08-14T09:55:40Z</time>
      </trkpt>
      <trkpt lat="44.93041" lon="6.08664">
        <ele>2430.8</ele>
        <time>2024-08-14T09:55:41Z</time>
      </trkpt>
      <trkpt lat="44.93041" lon="6.08664">
        <ele>2430.8</ele>
        <time>2024-08-14T09:55:42Z</time>
      </trkpt>
      <trkpt lat="44.93043" lon="6.08663">
        <ele>2431.2</ele>
        <time>2024-08-14T09:55:43Z</time>
      </trkpt>
      <trkpt lat="44.93043" lon="6.08663">
        <ele>2431.4</ele>
        <time>2024-08-14T09:55:44Z</time>
      </trkpt>
      <trkpt lat="44.93043" lon="6.08663">
        <ele>2431.6</ele>
        <time>2024-08-14T09:55:45Z</time>
      </trkpt>
      <trkpt lat="44.93043" lon="6.08663">
        <ele>2431.8</ele>
        <time>2024-08-14T09:55:46Z</time>
      </trkpt>
      <trkpt lat="44.93045" lon="6.08662">
        <ele>2432</ele>
        <time>2024-08-14T09:55:47Z</time>
      </trkpt>
      <trkpt lat="44.93045" lon="6.08662">
        <ele>2432.2</ele>
        <time>2024-08-14T09:55:48Z</time>
      </trkpt>
      <trkpt lat="44.93045" lon="6.08662">
        <ele>2432.6</ele>
        <time>2024-08-14T09:55:49Z</time>
      </trkpt>
      <trkpt lat="44.93045" lon="6.08662">
        <ele>2432.8</ele>
        <time>2024-08-14T09:55:50Z</time>
      </trkpt>
      <trkpt lat="44.93046" lon="6.08665">
        <ele>2433</ele>
        <time>2024-08-14T09:55:51Z</time>
      </trkpt>
      <trkpt lat="44.93046" lon="6.08665">
        <ele>2433.6</ele>
        <time>2024-08-14T09:55:52Z</time>
      </trkpt>
      <trkpt lat="44.93046" lon="6.08665">
        <ele>2433.6</ele>
        <time>2024-08-14T09:55:53Z</time>
      </trkpt>
      <trkpt lat="44.93045" lon="6.08668">
        <ele>2433.6</ele>
        <time>2024-08-14T09:55:54Z</time>
      </trkpt>
      <trkpt lat="44.93045" lon="6.08668">
        <ele>2434</ele>
        <time>2024-08-14T09:55:55Z</time>
      </trkpt>
      <trkpt lat="44.93045" lon="6.08668">
        <ele>2434</ele>
        <time>2024-08-14T09:55:56Z</time>
      </trkpt>
      <trkpt lat="44.93045" lon="6.08668">
        <ele>2434.2</ele>
        <time>2024-08-14T09:55:57Z</time>
      </trkpt>
      <trkpt lat="44.93045" lon="6.08668">
        <ele>2434.2</ele>
        <time>2024-08-14T09:55:58Z</time>
      </trkpt>
      <trkpt lat="44.93045" lon="6.08668">
        <ele>2434.2</ele>
        <time>2024-08-14T09:55:59Z</time>
      </trkpt>
      <trkpt lat="44.93045" lon="6.08668">
        <ele>2434.4</ele>
        <time>2024-08-14T09:56:00Z</time>
      </trkpt>
      <trkpt lat="44.93045" lon="6.08668">
        <ele>2434.6</ele>
        <time>2024-08-14T09:56:01Z</time>
      </trkpt>
      <trkpt lat="44.93045" lon="6.08668">
        <ele>2435.2</ele>
        <time>2024-08-14T09:56:02Z</time>
      </trkpt>
      <trkpt lat="44.93045" lon="6.08668">
        <ele>2435.4</ele>
        <time>2024-08-14T09:56:03Z</time>
      </trkpt>
      <trkpt lat="44.93045" lon="6.08668">
        <ele>2435.4</ele>
        <time>2024-08-14T09:56:04Z</time>
      </trkpt>
      <trkpt lat="44.93045" lon="6.08668">
        <ele>2435.4</ele>
        <time>2024-08-14T09:56:05Z</time>
      </trkpt>
      <trkpt lat="44.93045" lon="6.08668">
        <ele>2435.6</ele>
        <time>2024-08-14T09:56:06Z</time>
      </trkpt>
      <trkpt lat="44.93045" lon="6.08668">
        <ele>2436</ele>
        <time>2024-08-14T09:56:07Z</time>
      </trkpt>
      <trkpt lat="44.93045" lon="6.08668">
        <ele>2436</ele>
        <time>2024-08-14T09:56:08Z</time>
      </trkpt>
      <trkpt lat="44.93047" lon="6.08668">
        <ele>2436.4</ele>
        <time>2024-08-14T09:56:09Z</time>
      </trkpt>
      <trkpt lat="44.93047" lon="6.08668">
        <ele>2436.4</ele>
        <time>2024-08-14T09:56:10Z</time>
      </trkpt>
      <trkpt lat="44.93049" lon="6.08666">
        <ele>2436.6</ele>
        <time>2024-08-14T09:56:11Z</time>
      </trkpt>
      <trkpt lat="44.93049" lon="6.08666">
        <ele>2436.8</ele>
        <time>2024-08-14T09:56:12Z</time>
      </trkpt>
      <trkpt lat="44.93051" lon="6.08666">
        <ele>2437</ele>
        <time>2024-08-14T09:56:13Z</time>
      </trkpt>
      <trkpt lat="44.93051" lon="6.08666">
        <ele>2437</ele>
        <time>2024-08-14T09:56:14Z</time>
      </trkpt>
      <trkpt lat="44.93051" lon="6.08666">
        <ele>2437.8</ele>
        <time>2024-08-14T09:56:15Z</time>
      </trkpt>
      <trkpt lat="44.93051" lon="6.08666">
        <ele>2437.8</ele>
        <time>2024-08-14T09:56:16Z</time>
      </trkpt>
      <trkpt lat="44.93051" lon="6.08666">
        <ele>2438.2</ele>
        <time>2024-08-14T09:56:17Z</time>
      </trkpt>
      <trkpt lat="44.93051" lon="6.08666">
        <ele>2438.2</ele>
        <time>2024-08-14T09:56:18Z</time>
      </trkpt>
      <trkpt lat="44.93053" lon="6.08667">
        <ele>2438.4</ele>
        <time>2024-08-14T09:56:19Z</time>
      </trkpt>
      <trkpt lat="44.93053" lon="6.08667">
        <ele>2438.6</ele>
        <time>2024-08-14T09:56:20Z</time>
      </trkpt>
      <trkpt lat="44.93051" lon="6.08669">
        <ele>2438.6</ele>
        <time>2024-08-14T09:56:21Z</time>
      </trkpt>
      <trkpt lat="44.93051" lon="6.08669">
        <ele>2438.8</ele>
        <time>2024-08-14T09:56:22Z</time>
      </trkpt>
      <trkpt lat="44.93051" lon="6.08669">
        <ele>2439</ele>
        <time>2024-08-14T09:56:23Z</time>
      </trkpt>
      <trkpt lat="44.93051" lon="6.08669">
        <ele>2439.2</ele>
        <time>2024-08-14T09:56:24Z</time>
      </trkpt>
      <trkpt lat="44.93051" lon="6.08672">
        <ele>2439.4</ele>
        <time>2024-08-14T09:56:25Z</time>
      </trkpt>
      <trkpt lat="44.93051" lon="6.08672">
        <ele>2439.6</ele>
        <time>2024-08-14T09:56:26Z</time>
      </trkpt>
      <trkpt lat="44.93051" lon="6.08672">
        <ele>2440</ele>
        <time>2024-08-14T09:56:27Z</time>
      </trkpt>
      <trkpt lat="44.93051" lon="6.08672">
        <ele>2440</ele>
        <time>2024-08-14T09:56:28Z</time>
      </trkpt>
      <trkpt lat="44.93051" lon="6.08672">
        <ele>2440.4</ele>
        <time>2024-08-14T09:56:29Z</time>
      </trkpt>
      <trkpt lat="44.93051" lon="6.08672">
        <ele>2440.4</ele>
        <time>2024-08-14T09:56:30Z</time>
      </trkpt>
      <trkpt lat="44.93051" lon="6.08672">
        <ele>2440.6</ele>
        <time>2024-08-14T09:56:31Z</time>
      </trkpt>
      <trkpt lat="44.93053" lon="6.08674">
        <ele>2441</ele>
        <time>2024-08-14T09:56:32Z</time>
      </trkpt>
      <trkpt lat="44.93053" lon="6.08674">
        <ele>2441.2</ele>
        <time>2024-08-14T09:56:33Z</time>
      </trkpt>
      <trkpt lat="44.93053" lon="6.08674">
        <ele>2441.2</ele>
        <time>2024-08-14T09:56:34Z</time>
      </trkpt>
      <trkpt lat="44.93054" lon="6.08676">
        <ele>2441.2</ele>
        <time>2024-08-14T09:56:35Z</time>
      </trkpt>
      <trkpt lat="44.93054" lon="6.08676">
        <ele>2441.4</ele>
        <time>2024-08-14T09:56:36Z</time>
      </trkpt>
      <trkpt lat="44.93054" lon="6.08676">
        <ele>2441.6</ele>
        <time>2024-08-14T09:56:37Z</time>
      </trkpt>
      <trkpt lat="44.93054" lon="6.08676">
        <ele>2441.8</ele>
        <time>2024-08-14T09:56:38Z</time>
      </trkpt>
      <trkpt lat="44.93054" lon="6.08676">
        <ele>2441.8</ele>
        <time>2024-08-14T09:56:39Z</time>
      </trkpt>
      <trkpt lat="44.93054" lon="6.08676">
        <ele>2441.8</ele>
        <time>2024-08-14T09:56:40Z</time>
      </trkpt>
      <trkpt lat="44.93054" lon="6.08676">
        <ele>2442</ele>
        <time>2024-08-14T09:56:41Z</time>
      </trkpt>
      <trkpt lat="44.93054" lon="6.08676">
        <ele>2442.2</ele>
        <time>2024-08-14T09:56:42Z</time>
      </trkpt>
      <trkpt lat="44.93054" lon="6.08676">
        <ele>2442.4</ele>
        <time>2024-08-14T09:56:43Z</time>
      </trkpt>
      <trkpt lat="44.93054" lon="6.08676">
        <ele>2442.4</ele>
        <time>2024-08-14T09:56:44Z</time>
      </trkpt>
      <trkpt lat="44.93055" lon="6.08673">
        <ele>2442.4</ele>
        <time>2024-08-14T09:56:45Z</time>
      </trkpt>
      <trkpt lat="44.93055" lon="6.08673">
        <ele>2442.4</ele>
        <time>2024-08-14T09:56:46Z</time>
      </trkpt>
      <trkpt lat="44.93057" lon="6.08671">
        <ele>2442.6</ele>
        <time>2024-08-14T09:56:47Z</time>
      </trkpt>
      <trkpt lat="44.93057" lon="6.08671">
        <ele>2443</ele>
        <time>2024-08-14T09:56:48Z</time>
      </trkpt>
      <trkpt lat="44.93059" lon="6.0867">
        <ele>2443</ele>
        <time>2024-08-14T09:56:49Z</time>
      </trkpt>
      <trkpt lat="44.93059" lon="6.0867">
        <ele>2443.2</ele>
        <time>2024-08-14T09:56:50Z</time>
      </trkpt>
      <trkpt lat="44.93061" lon="6.08669">
        <ele>2443.4</ele>
        <time>2024-08-14T09:56:51Z</time>
      </trkpt>
      <trkpt lat="44.93061" lon="6.08669">
        <ele>2443.4</ele>
        <time>2024-08-14T09:56:52Z</time>
      </trkpt>
      <trkpt lat="44.93061" lon="6.08669">
        <ele>2443.8</ele>
        <time>2024-08-14T09:56:53Z</time>
      </trkpt>
      <trkpt lat="44.93063" lon="6.08671">
        <ele>2444</ele>
        <time>2024-08-14T09:56:54Z</time>
      </trkpt>
      <trkpt lat="44.93063" lon="6.08671">
        <ele>2444.4</ele>
        <time>2024-08-14T09:56:55Z</time>
      </trkpt>
      <trkpt lat="44.93061" lon="6.08673">
        <ele>2444.6</ele>
        <time>2024-08-14T09:56:56Z</time>
      </trkpt>
      <trkpt lat="44.93061" lon="6.08673">
        <ele>2445</ele>
        <time>2024-08-14T09:56:57Z</time>
      </trkpt>
      <trkpt lat="44.9306" lon="6.08675">
        <ele>2445</ele>
        <time>2024-08-14T09:56:58Z</time>
      </trkpt>
      <trkpt lat="44.9306" lon="6.08675">
        <ele>2445</ele>
        <time>2024-08-14T09:56:59Z</time>
      </trkpt>
      <trkpt lat="44.9306" lon="6.08675">
        <ele>2445</ele>
        <time>2024-08-14T09:57:00Z</time>
      </trkpt>
      <trkpt lat="44.9306" lon="6.08675">
        <ele>2445.4</ele>
        <time>2024-08-14T09:57:01Z</time>
      </trkpt>
      <trkpt lat="44.9306" lon="6.08675">
        <ele>2445.6</ele>
        <time>2024-08-14T09:57:02Z</time>
      </trkpt>
      <trkpt lat="44.9306" lon="6.08675">
        <ele>2445.6</ele>
        <time>2024-08-14T09:57:03Z</time>
      </trkpt>
      <trkpt lat="44.9306" lon="6.08675">
        <ele>2445.8</ele>
        <time>2024-08-14T09:57:04Z</time>
      </trkpt>
      <trkpt lat="44.9306" lon="6.08675">
        <ele>2445.8</ele>
        <time>2024-08-14T09:57:05Z</time>
      </trkpt>
      <trkpt lat="44.9306" lon="6.08675">
        <ele>2446.2</ele>
        <time>2024-08-14T09:57:06Z</time>
      </trkpt>
      <trkpt lat="44.9306" lon="6.08675">
        <ele>2446.6</ele>
        <time>2024-08-14T09:57:07Z</time>
      </trkpt>
      <trkpt lat="44.9306" lon="6.08675">
        <ele>2446.6</ele>
        <time>2024-08-14T09:57:08Z</time>
      </trkpt>
      <trkpt lat="44.9306" lon="6.08678">
        <ele>2446.6</ele>
        <time>2024-08-14T09:57:09Z</time>
      </trkpt>
      <trkpt lat="44.9306" lon="6.08678">
        <ele>2447</ele>
        <time>2024-08-14T09:57:10Z</time>
      </trkpt>
      <trkpt lat="44.9306" lon="6.08678">
        <ele>2447.2</ele>
        <time>2024-08-14T09:57:11Z</time>
      </trkpt>
      <trkpt lat="44.93063" lon="6.08676">
        <ele>2447.4</ele>
        <time>2024-08-14T09:57:12Z</time>
      </trkpt>
      <trkpt lat="44.93063" lon="6.08676">
        <ele>2447.6</ele>
        <time>2024-08-14T09:57:13Z</time>
      </trkpt>
      <trkpt lat="44.93065" lon="6.08674">
        <ele>2447.6</ele>
        <time>2024-08-14T09:57:14Z</time>
      </trkpt>
      <trkpt lat="44.93065" lon="6.08674">
        <ele>2447.8</ele>
        <time>2024-08-14T09:57:15Z</time>
      </trkpt>
      <trkpt lat="44.93067" lon="6.08673">
        <ele>2448.2</ele>
        <time>2024-08-14T09:57:16Z</time>
      </trkpt>
      <trkpt lat="44.93067" lon="6.08673">
        <ele>2448.2</ele>
        <time>2024-08-14T09:57:17Z</time>
      </trkpt>
      <trkpt lat="44.93067" lon="6.08673">
        <ele>2448.6</ele>
        <time>2024-08-14T09:57:18Z</time>
      </trkpt>
      <trkpt lat="44.93068" lon="6.08675">
        <ele>2448.8</ele>
        <time>2024-08-14T09:57:19Z</time>
      </trkpt>
      <trkpt lat="44.93068" lon="6.08675">
        <ele>2449</ele>
        <time>2024-08-14T09:57:20Z</time>
      </trkpt>
      <trkpt lat="44.93068" lon="6.08675">
        <ele>2449.6</ele>
        <time>2024-08-14T09:57:21Z</time>
      </trkpt>
      <trkpt lat="44.93068" lon="6.08675">
        <ele>2449.6</ele>
        <time>2024-08-14T09:57:22Z</time>
      </trkpt>
      <trkpt lat="44.93067" lon="6.08679">
        <ele>2449.8</ele>
        <time>2024-08-14T09:57:23Z</time>
      </trkpt>
      <trkpt lat="44.93067" lon="6.08679">
        <ele>2449.8</ele>
        <time>2024-08-14T09:57:24Z</time>
      </trkpt>
      <trkpt lat="44.93067" lon="6.08679">
        <ele>2450.2</ele>
        <time>2024-08-14T09:57:25Z</time>
      </trkpt>
      <trkpt lat="44.93068" lon="6.08681">
        <ele>2450.2</ele>
        <time>2024-08-14T09:57:26Z</time>
      </trkpt>
      <trkpt lat="44.93068" lon="6.08681">
        <ele>2450.4</ele>
        <time>2024-08-14T09:57:27Z</time>
      </trkpt>
      <trkpt lat="44.93068" lon="6.08681">
        <ele>2450.8</ele>
        <time>2024-08-14T09:57:28Z</time>
      </trkpt>
      <trkpt lat="44.93068" lon="6.08681">
        <ele>2451</ele>
        <time>2024-08-14T09:57:29Z</time>
      </trkpt>
      <trkpt lat="44.93068" lon="6.08681">
        <ele>2451.4</ele>
        <time>2024-08-14T09:57:30Z</time>
      </trkpt>
      <trkpt lat="44.93068" lon="6.08681">
        <ele>2451.6</ele>
        <time>2024-08-14T09:57:31Z</time>
      </trkpt>
      <trkpt lat="44.93068" lon="6.08681">
        <ele>2451.8</ele>
        <time>2024-08-14T09:57:32Z</time>
      </trkpt>
      <trkpt lat="44.93068" lon="6.08681">
        <ele>2451.8</ele>
        <time>2024-08-14T09:57:33Z</time>
      </trkpt>
      <trkpt lat="44.93068" lon="6.08681">
        <ele>2452.2</ele>
        <time>2024-08-14T09:57:34Z</time>
      </trkpt>
      <trkpt lat="44.93068" lon="6.08681">
        <ele>2452.4</ele>
        <time>2024-08-14T09:57:35Z</time>
      </trkpt>
      <trkpt lat="44.93068" lon="6.08681">
        <ele>2453</ele>
        <time>2024-08-14T09:57:36Z</time>
      </trkpt>
      <trkpt lat="44.93068" lon="6.08681">
        <ele>2453</ele>
        <time>2024-08-14T09:57:37Z</time>
      </trkpt>
      <trkpt lat="44.93068" lon="6.08681">
        <ele>2453.2</ele>
        <time>2024-08-14T09:57:38Z</time>
      </trkpt>
      <trkpt lat="44.93068" lon="6.08681">
        <ele>2453.6</ele>
        <time>2024-08-14T09:57:39Z</time>
      </trkpt>
      <trkpt lat="44.93068" lon="6.08681">
        <ele>2453.6</ele>
        <time>2024-08-14T09:57:40Z</time>
      </trkpt>
      <trkpt lat="44.93068" lon="6.08681">
        <ele>2453.6</ele>
        <time>2024-08-14T09:57:41Z</time>
      </trkpt>
      <trkpt lat="44.93068" lon="6.08681">
        <ele>2453.6</ele>
        <time>2024-08-14T09:57:42Z</time>
      </trkpt>
      <trkpt lat="44.93068" lon="6.08681">
        <ele>2453.8</ele>
        <time>2024-08-14T09:57:43Z</time>
      </trkpt>
      <trkpt lat="44.9307" lon="6.08682">
        <ele>2453.8</ele>
        <time>2024-08-14T09:57:44Z</time>
      </trkpt>
      <trkpt lat="44.9307" lon="6.08682">
        <ele>2454</ele>
        <time>2024-08-14T09:57:45Z</time>
      </trkpt>
      <trkpt lat="44.93072" lon="6.08681">
        <ele>2454.4</ele>
        <time>2024-08-14T09:57:46Z</time>
      </trkpt>
      <trkpt lat="44.93072" lon="6.08681">
        <ele>2454.8</ele>
        <time>2024-08-14T09:57:47Z</time>
      </trkpt>
      <trkpt lat="44.93074" lon="6.08679">
        <ele>2454.8</ele>
        <time>2024-08-14T09:57:48Z</time>
      </trkpt>
      <trkpt lat="44.93074" lon="6.08679">
        <ele>2455</ele>
        <time>2024-08-14T09:57:49Z</time>
      </trkpt>
      <trkpt lat="44.93076" lon="6.08678">
        <ele>2455.2</ele>
        <time>2024-08-14T09:57:50Z</time>
      </trkpt>
      <trkpt lat="44.93076" lon="6.08678">
        <ele>2455.4</ele>
        <time>2024-08-14T09:57:51Z</time>
      </trkpt>
      <trkpt lat="44.93076" lon="6.08678">
        <ele>2455.6</ele>
        <time>2024-08-14T09:57:52Z</time>
      </trkpt>
      <trkpt lat="44.93078" lon="6.08678">
        <ele>2455.8</ele>
        <time>2024-08-14T09:57:53Z</time>
      </trkpt>
      <trkpt lat="44.93078" lon="6.08678">
        <ele>2456</ele>
        <time>2024-08-14T09:57:54Z</time>
      </trkpt>
      <trkpt lat="44.93078" lon="6.0868">
        <ele>2456.2</ele>
        <time>2024-08-14T09:57:55Z</time>
      </trkpt>
      <trkpt lat="44.93078" lon="6.0868">
        <ele>2456.4</ele>
        <time>2024-08-14T09:57:56Z</time>
      </trkpt>
      <trkpt lat="44.93077" lon="6.08683">
        <ele>2456.6</ele>
        <time>2024-08-14T09:57:57Z</time>
      </trkpt>
      <trkpt lat="44.93077" lon="6.08683">
        <ele>2457</ele>
        <time>2024-08-14T09:57:58Z</time>
      </trkpt>
      <trkpt lat="44.93077" lon="6.08683">
        <ele>2457.2</ele>
        <time>2024-08-14T09:57:59Z</time>
      </trkpt>
      <trkpt lat="44.93077" lon="6.08686">
        <ele>2457.2</ele>
        <time>2024-08-14T09:58:00Z</time>
      </trkpt>
      <trkpt lat="44.93077" lon="6.08686">
        <ele>2457.4</ele>
        <time>2024-08-14T09:58:01Z</time>
      </trkpt>
      <trkpt lat="44.93077" lon="6.08686">
        <ele>2457.8</ele>
        <time>2024-08-14T09:58:02Z</time>
      </trkpt>
      <trkpt lat="44.93078" lon="6.08688">
        <ele>2457.8</ele>
        <time>2024-08-14T09:58:03Z</time>
      </trkpt>
      <trkpt lat="44.93078" lon="6.08688">
        <ele>2457.8</ele>
        <time>2024-08-14T09:58:04Z</time>
      </trkpt>
      <trkpt lat="44.93078" lon="6.08688">
        <ele>2457.8</ele>
        <time>2024-08-14T09:58:05Z</time>
      </trkpt>
      <trkpt lat="44.93078" lon="6.08688">
        <ele>2458</ele>
        <time>2024-08-14T09:58:06Z</time>
      </trkpt>
      <trkpt lat="44.93078" lon="6.08688">
        <ele>2458.2</ele>
        <time>2024-08-14T09:58:07Z</time>
      </trkpt>
      <trkpt lat="44.93078" lon="6.08688">
        <ele>2458.4</ele>
        <time>2024-08-14T09:58:08Z</time>
      </trkpt>
      <trkpt lat="44.93078" lon="6.08688">
        <ele>2458.8</ele>
        <time>2024-08-14T09:58:09Z</time>
      </trkpt>
      <trkpt lat="44.93078" lon="6.08688">
        <ele>2458.8</ele>
        <time>2024-08-14T09:58:10Z</time>
      </trkpt>
      <trkpt lat="44.93078" lon="6.08688">
        <ele>2459.6</ele>
        <time>2024-08-14T09:58:11Z</time>
      </trkpt>
      <trkpt lat="44.93078" lon="6.08688">
        <ele>2460</ele>
        <time>2024-08-14T09:58:12Z</time>
      </trkpt>
      <trkpt lat="44.93078" lon="6.08688">
        <ele>2460</ele>
        <time>2024-08-14T09:58:13Z</time>
      </trkpt>
      <trkpt lat="44.93078" lon="6.08688">
        <ele>2460</ele>
        <time>2024-08-14T09:58:14Z</time>
      </trkpt>
      <trkpt lat="44.93078" lon="6.08688">
        <ele>2460</ele>
        <time>2024-08-14T09:58:15Z</time>
      </trkpt>
      <trkpt lat="44.93078" lon="6.08688">
        <ele>2460.4</ele>
        <time>2024-08-14T09:58:16Z</time>
      </trkpt>
      <trkpt lat="44.93078" lon="6.08688">
        <ele>2460.6</ele>
        <time>2024-08-14T09:58:17Z</time>
      </trkpt>
      <trkpt lat="44.93078" lon="6.08688">
        <ele>2460.6</ele>
        <time>2024-08-14T09:58:18Z</time>
      </trkpt>
      <trkpt lat="44.9308" lon="6.08686">
        <ele>2460.8</ele>
        <time>2024-08-14T09:58:19Z</time>
      </trkpt>
      <trkpt lat="44.9308" lon="6.08686">
        <ele>2460.8</ele>
        <time>2024-08-14T09:58:20Z</time>
      </trkpt>
      <trkpt lat="44.93082" lon="6.08684">
        <ele>2461</ele>
        <time>2024-08-14T09:58:21Z</time>
      </trkpt>
      <trkpt lat="44.93082" lon="6.08684">
        <ele>2461.2</ele>
        <time>2024-08-14T09:58:22Z</time>
      </trkpt>
      <trkpt lat="44.93084" lon="6.08683">
        <ele>2461.4</ele>
        <time>2024-08-14T09:58:23Z</time>
      </trkpt>
      <trkpt lat="44.93084" lon="6.08683">
        <ele>2461.8</ele>
        <time>2024-08-14T09:58:24Z</time>
      </trkpt>
      <trkpt lat="44.93084" lon="6.08683">
        <ele>2461.8</ele>
        <time>2024-08-14T09:58:25Z</time>
      </trkpt>
      <trkpt lat="44.93084" lon="6.08683">
        <ele>2462.2</ele>
        <time>2024-08-14T09:58:26Z</time>
      </trkpt>
      <trkpt lat="44.93085" lon="6.08686">
        <ele>2462.4</ele>
        <time>2024-08-14T09:58:27Z</time>
      </trkpt>
      <trkpt lat="44.93085" lon="6.08686">
        <ele>2462.6</ele>
        <time>2024-08-14T09:58:28Z</time>
      </trkpt>
      <trkpt lat="44.93085" lon="6.08686">
        <ele>2462.6</ele>
        <time>2024-08-14T09:58:29Z</time>
      </trkpt>
      <trkpt lat="44.93084" lon="6.08689">
        <ele>2463</ele>
        <time>2024-08-14T09:58:30Z</time>
      </trkpt>
      <trkpt lat="44.93084" lon="6.08689">
        <ele>2463</ele>
        <time>2024-08-14T09:58:31Z</time>
      </trkpt>
      <trkpt lat="44.93084" lon="6.08689">
        <ele>2463.2</ele>
        <time>2024-08-14T09:58:32Z</time>
      </trkpt>
      <trkpt lat="44.93084" lon="6.08689">
        <ele>2463.4</ele>
        <time>2024-08-14T09:58:33Z</time>
      </trkpt>
      <trkpt lat="44.93084" lon="6.08689">
        <ele>2463.6</ele>
        <time>2024-08-14T09:58:34Z</time>
      </trkpt>
      <trkpt lat="44.93084" lon="6.08689">
        <ele>2463.8</ele>
        <time>2024-08-14T09:58:35Z</time>
      </trkpt>
      <trkpt lat="44.93084" lon="6.08689">
        <ele>2464</ele>
        <time>2024-08-14T09:58:36Z</time>
      </trkpt>
      <trkpt lat="44.93084" lon="6.08689">
        <ele>2464.8</ele>
        <time>2024-08-14T09:58:37Z</time>
      </trkpt>
      <trkpt lat="44.93084" lon="6.08689">
        <ele>2464.8</ele>
        <time>2024-08-14T09:58:38Z</time>
      </trkpt>
      <trkpt lat="44.93084" lon="6.08689">
        <ele>2465.2</ele>
        <time>2024-08-14T09:58:39Z</time>
      </trkpt>
      <trkpt lat="44.93084" lon="6.08689">
        <ele>2465.4</ele>
        <time>2024-08-14T09:58:40Z</time>
      </trkpt>
      <trkpt lat="44.93084" lon="6.08689">
        <ele>2465.4</ele>
        <time>2024-08-14T09:58:41Z</time>
      </trkpt>
      <trkpt lat="44.93084" lon="6.08689">
        <ele>2465.4</ele>
        <time>2024-08-14T09:58:42Z</time>
      </trkpt>
      <trkpt lat="44.93084" lon="6.08689">
        <ele>2465.8</ele>
        <time>2024-08-14T09:58:43Z</time>
      </trkpt>
      <trkpt lat="44.93084" lon="6.08689">
        <ele>2466</ele>
        <time>2024-08-14T09:58:44Z</time>
      </trkpt>
      <trkpt lat="44.93084" lon="6.08689">
        <ele>2466.2</ele>
        <time>2024-08-14T09:58:45Z</time>
      </trkpt>
      <trkpt lat="44.93084" lon="6.08689">
        <ele>2466.4</ele>
        <time>2024-08-14T09:58:46Z</time>
      </trkpt>
      <trkpt lat="44.93084" lon="6.08689">
        <ele>2466.8</ele>
        <time>2024-08-14T09:58:47Z</time>
      </trkpt>
      <trkpt lat="44.93084" lon="6.08689">
        <ele>2466.8</ele>
        <time>2024-08-14T09:58:48Z</time>
      </trkpt>
      <trkpt lat="44.93084" lon="6.08689">
        <ele>2466.8</ele>
        <time>2024-08-14T09:58:49Z</time>
      </trkpt>
      <trkpt lat="44.93084" lon="6.08689">
        <ele>2466.8</ele>
        <time>2024-08-14T09:58:50Z</time>
      </trkpt>
      <trkpt lat="44.93084" lon="6.08689">
        <ele>2467.6</ele>
        <time>2024-08-14T09:58:51Z</time>
      </trkpt>
      <trkpt lat="44.93085" lon="6.08691">
        <ele>2468</ele>
        <time>2024-08-14T09:58:52Z</time>
      </trkpt>
      <trkpt lat="44.93085" lon="6.08691">
        <ele>2468</ele>
        <time>2024-08-14T09:58:53Z</time>
      </trkpt>
      <trkpt lat="44.93089" lon="6.0869">
        <ele>2468.2</ele>
        <time>2024-08-14T09:58:54Z</time>
      </trkpt>
      <trkpt lat="44.93091" lon="6.0869">
        <ele>2468.2</ele>
        <time>2024-08-14T09:58:55Z</time>
      </trkpt>
      <trkpt lat="44.93091" lon="6.0869">
        <ele>2468.4</ele>
        <time>2024-08-14T09:58:56Z</time>
      </trkpt>
      <trkpt lat="44.93093" lon="6.08691">
        <ele>2468.8</ele>
        <time>2024-08-14T09:58:57Z</time>
      </trkpt>
      <trkpt lat="44.93093" lon="6.08691">
        <ele>2469.2</ele>
        <time>2024-08-14T09:58:58Z</time>
      </trkpt>
      <trkpt lat="44.93093" lon="6.08691">
        <ele>2469.6</ele>
        <time>2024-08-14T09:58:59Z</time>
      </trkpt>
      <trkpt lat="44.93092" lon="6.08693">
        <ele>2469.8</ele>
        <time>2024-08-14T09:59:00Z</time>
      </trkpt>
      <trkpt lat="44.93092" lon="6.08693">
        <ele>2470.2</ele>
        <time>2024-08-14T09:59:01Z</time>
      </trkpt>
      <trkpt lat="44.93092" lon="6.08693">
        <ele>2470.4</ele>
        <time>2024-08-14T09:59:02Z</time>
      </trkpt>
      <trkpt lat="44.93092" lon="6.08693">
        <ele>2470.4</ele>
        <time>2024-08-14T09:59:03Z</time>
      </trkpt>
      <trkpt lat="44.93092" lon="6.08693">
        <ele>2470.6</ele>
        <time>2024-08-14T09:59:04Z</time>
      </trkpt>
      <trkpt lat="44.93092" lon="6.08697">
        <ele>2470.6</ele>
        <time>2024-08-14T09:59:05Z</time>
      </trkpt>
      <trkpt lat="44.93092" lon="6.08697">
        <ele>2471.2</ele>
        <time>2024-08-14T09:59:06Z</time>
      </trkpt>
      <trkpt lat="44.93092" lon="6.08697">
        <ele>2471.4</ele>
        <time>2024-08-14T09:59:07Z</time>
      </trkpt>
      <trkpt lat="44.93092" lon="6.08697">
        <ele>2471.4</ele>
        <time>2024-08-14T09:59:08Z</time>
      </trkpt>
      <trkpt lat="44.93092" lon="6.08697">
        <ele>2471.6</ele>
        <time>2024-08-14T09:59:09Z</time>
      </trkpt>
      <trkpt lat="44.93093" lon="6.08699">
        <ele>2471.6</ele>
        <time>2024-08-14T09:59:10Z</time>
      </trkpt>
      <trkpt lat="44.93093" lon="6.08699">
        <ele>2471.8</ele>
        <time>2024-08-14T09:59:11Z</time>
      </trkpt>
      <trkpt lat="44.93093" lon="6.08702">
        <ele>2471.8</ele>
        <time>2024-08-14T09:59:12Z</time>
      </trkpt>
      <trkpt lat="44.93093" lon="6.08702">
        <ele>2472.2</ele>
        <time>2024-08-14T09:59:13Z</time>
      </trkpt>
      <trkpt lat="44.93095" lon="6.08704">
        <ele>2472.2</ele>
        <time>2024-08-14T09:59:14Z</time>
      </trkpt>
      <trkpt lat="44.93095" lon="6.08704">
        <ele>2472.4</ele>
        <time>2024-08-14T09:59:15Z</time>
      </trkpt>
      <trkpt lat="44.93095" lon="6.08704">
        <ele>2473.2</ele>
        <time>2024-08-14T09:59:16Z</time>
      </trkpt>
      <trkpt lat="44.93095" lon="6.08704">
        <ele>2473.2</ele>
        <time>2024-08-14T09:59:17Z</time>
      </trkpt>
      <trkpt lat="44.93095" lon="6.08704">
        <ele>2473.2</ele>
        <time>2024-08-14T09:59:18Z</time>
      </trkpt>
      <trkpt lat="44.93095" lon="6.08704">
        <ele>2473.2</ele>
        <time>2024-08-14T09:59:19Z</time>
      </trkpt>
      <trkpt lat="44.93095" lon="6.08701">
        <ele>2473.6</ele>
        <time>2024-08-14T09:59:20Z</time>
      </trkpt>
      <trkpt lat="44.93095" lon="6.08701">
        <ele>2473.8</ele>
        <time>2024-08-14T09:59:21Z</time>
      </trkpt>
      <trkpt lat="44.93095" lon="6.08701">
        <ele>2474</ele>
        <time>2024-08-14T09:59:22Z</time>
      </trkpt>
      <trkpt lat="44.93097" lon="6.08699">
        <ele>2474.4</ele>
        <time>2024-08-14T09:59:23Z</time>
      </trkpt>
      <trkpt lat="44.93097" lon="6.08699">
        <ele>2474.4</ele>
        <time>2024-08-14T09:59:24Z</time>
      </trkpt>
      <trkpt lat="44.93097" lon="6.08699">
        <ele>2474.6</ele>
        <time>2024-08-14T09:59:25Z</time>
      </trkpt>
      <trkpt lat="44.93097" lon="6.08699">
        <ele>2475</ele>
        <time>2024-08-14T09:59:26Z</time>
      </trkpt>
      <trkpt lat="44.93097" lon="6.08699">
        <ele>2475.2</ele>
        <time>2024-08-14T09:59:27Z</time>
      </trkpt>
      <trkpt lat="44.93097" lon="6.08699">
        <ele>2475.2</ele>
        <time>2024-08-14T09:59:28Z</time>
      </trkpt>
      <trkpt lat="44.93097" lon="6.08699">
        <ele>2475.6</ele>
        <time>2024-08-14T09:59:29Z</time>
      </trkpt>
      <trkpt lat="44.93097" lon="6.08699">
        <ele>2476</ele>
        <time>2024-08-14T09:59:30Z</time>
      </trkpt>
      <trkpt lat="44.93097" lon="6.08699">
        <ele>2476.4</ele>
        <time>2024-08-14T09:59:31Z</time>
      </trkpt>
      <trkpt lat="44.93097" lon="6.08699">
        <ele>2476.6</ele>
        <time>2024-08-14T09:59:32Z</time>
      </trkpt>
      <trkpt lat="44.93099" lon="6.08697">
        <ele>2476.6</ele>
        <time>2024-08-14T09:59:33Z</time>
      </trkpt>
      <trkpt lat="44.93099" lon="6.08697">
        <ele>2476.6</ele>
        <time>2024-08-14T09:59:34Z</time>
      </trkpt>
      <trkpt lat="44.93099" lon="6.08697">
        <ele>2477</ele>
        <time>2024-08-14T09:59:35Z</time>
      </trkpt>
      <trkpt lat="44.93101" lon="6.08699">
        <ele>2477.4</ele>
        <time>2024-08-14T09:59:36Z</time>
      </trkpt>
      <trkpt lat="44.93101" lon="6.08699">
        <ele>2477.4</ele>
        <time>2024-08-14T09:59:37Z</time>
      </trkpt>
      <trkpt lat="44.93101" lon="6.08699">
        <ele>2477.4</ele>
        <time>2024-08-14T09:59:38Z</time>
      </trkpt>
      <trkpt lat="44.93101" lon="6.08703">
        <ele>2478</ele>
        <time>2024-08-14T09:59:39Z</time>
      </trkpt>
      <trkpt lat="44.93101" lon="6.08703">
        <ele>2478.2</ele>
        <time>2024-08-14T09:59:40Z</time>
      </trkpt>
      <trkpt lat="44.93101" lon="6.08703">
        <ele>2478.2</ele>
        <time>2024-08-14T09:59:41Z</time>
      </trkpt>
      <trkpt lat="44.93101" lon="6.08703">
        <ele>2478.4</ele>
        <time>2024-08-14T09:59:42Z</time>
      </trkpt>
      <trkpt lat="44.93101" lon="6.08703">
        <ele>2478.6</ele>
        <time>2024-08-14T09:59:43Z</time>
      </trkpt>
      <trkpt lat="44.93101" lon="6.08703">
        <ele>2478.8</ele>
        <time>2024-08-14T09:59:44Z</time>
      </trkpt>
      <trkpt lat="44.93101" lon="6.08703">
        <ele>2479.2</ele>
        <time>2024-08-14T09:59:45Z</time>
      </trkpt>
      <trkpt lat="44.93101" lon="6.08706">
        <ele>2479.2</ele>
        <time>2024-08-14T09:59:46Z</time>
      </trkpt>
      <trkpt lat="44.93101" lon="6.08706">
        <ele>2479.4</ele>
        <time>2024-08-14T09:59:47Z</time>
      </trkpt>
      <trkpt lat="44.93101" lon="6.08706">
        <ele>2479.8</ele>
        <time>2024-08-14T09:59:48Z</time>
      </trkpt>
      <trkpt lat="44.93101" lon="6.08706">
        <ele>2480</ele>
        <time>2024-08-14T09:59:49Z</time>
      </trkpt>
      <trkpt lat="44.93101" lon="6.08706">
        <ele>2480</ele>
        <time>2024-08-14T09:59:50Z</time>
      </trkpt>
      <trkpt lat="44.93101" lon="6.08706">
        <ele>2480.2</ele>
        <time>2024-08-14T09:59:51Z</time>
      </trkpt>
      <trkpt lat="44.93101" lon="6.08706">
        <ele>2480.2</ele>
        <time>2024-08-14T09:59:52Z</time>
      </trkpt>
      <trkpt lat="44.93101" lon="6.08706">
        <ele>2480.4</ele>
        <time>2024-08-14T09:59:53Z</time>
      </trkpt>
      <trkpt lat="44.93101" lon="6.08706">
        <ele>2480.4</ele>
        <time>2024-08-14T09:59:54Z</time>
      </trkpt>
      <trkpt lat="44.93101" lon="6.08706">
        <ele>2480.4</ele>
        <time>2024-08-14T09:59:55Z</time>
      </trkpt>
      <trkpt lat="44.93101" lon="6.08706">
        <ele>2480.4</ele>
        <time>2024-08-14T09:59:56Z</time>
      </trkpt>
      <trkpt lat="44.93101" lon="6.08706">
        <ele>2480.4</ele>
        <time>2024-08-14T09:59:57Z</time>
      </trkpt>
      <trkpt lat="44.93101" lon="6.08706">
        <ele>2480.8</ele>
        <time>2024-08-14T09:59:58Z</time>
      </trkpt>
      <trkpt lat="44.93103" lon="6.08704">
        <ele>2480.8</ele>
        <time>2024-08-14T09:59:59Z</time>
      </trkpt>
      <trkpt lat="44.93103" lon="6.08704">
        <ele>2481</ele>
        <time>2024-08-14T10:00:00Z</time>
      </trkpt>
      <trkpt lat="44.93104" lon="6.08701">
        <ele>2481.4</ele>
        <time>2024-08-14T10:00:01Z</time>
      </trkpt>
      <trkpt lat="44.93104" lon="6.08701">
        <ele>2481.6</ele>
        <time>2024-08-14T10:00:02Z</time>
      </trkpt>
      <trkpt lat="44.93104" lon="6.08701">
        <ele>2481.6</ele>
        <time>2024-08-14T10:00:03Z</time>
      </trkpt>
      <trkpt lat="44.93106" lon="6.087">
        <ele>2481.8</ele>
        <time>2024-08-14T10:00:04Z</time>
      </trkpt>
      <trkpt lat="44.93106" lon="6.087">
        <ele>2482</ele>
        <time>2024-08-14T10:00:05Z</time>
      </trkpt>
      <trkpt lat="44.93108" lon="6.08699">
        <ele>2482.4</ele>
        <time>2024-08-14T10:00:06Z</time>
      </trkpt>
      <trkpt lat="44.93108" lon="6.08699">
        <ele>2482.6</ele>
        <time>2024-08-14T10:00:07Z</time>
      </trkpt>
      <trkpt lat="44.93108" lon="6.08699">
        <ele>2482.8</ele>
        <time>2024-08-14T10:00:08Z</time>
      </trkpt>
      <trkpt lat="44.93108" lon="6.08699">
        <ele>2483</ele>
        <time>2024-08-14T10:00:09Z</time>
      </trkpt>
      <trkpt lat="44.93108" lon="6.08699">
        <ele>2483.4</ele>
        <time>2024-08-14T10:00:10Z</time>
      </trkpt>
      <trkpt lat="44.93108" lon="6.08702">
        <ele>2483.6</ele>
        <time>2024-08-14T10:00:11Z</time>
      </trkpt>
      <trkpt lat="44.93108" lon="6.08702">
        <ele>2483.8</ele>
        <time>2024-08-14T10:00:12Z</time>
      </trkpt>
      <trkpt lat="44.93108" lon="6.08702">
        <ele>2484</ele>
        <time>2024-08-14T10:00:13Z</time>
      </trkpt>
      <trkpt lat="44.93108" lon="6.08702">
        <ele>2484.4</ele>
        <time>2024-08-14T10:00:14Z</time>
      </trkpt>
      <trkpt lat="44.93107" lon="6.08705">
        <ele>2484.4</ele>
        <time>2024-08-14T10:00:15Z</time>
      </trkpt>
      <trkpt lat="44.93107" lon="6.08705">
        <ele>2484.6</ele>
        <time>2024-08-14T10:00:16Z</time>
      </trkpt>
      <trkpt lat="44.93107" lon="6.08705">
        <ele>2484.8</ele>
        <time>2024-08-14T10:00:17Z</time>
      </trkpt>
      <trkpt lat="44.93107" lon="6.08705">
        <ele>2485</ele>
        <time>2024-08-14T10:00:18Z</time>
      </trkpt>
      <trkpt lat="44.93107" lon="6.08705">
        <ele>2485</ele>
        <time>2024-08-14T10:00:19Z</time>
      </trkpt>
      <trkpt lat="44.93107" lon="6.08705">
        <ele>2485.8</ele>
        <time>2024-08-14T10:00:20Z</time>
      </trkpt>
      <trkpt lat="44.93107" lon="6.08705">
        <ele>2486</ele>
        <time>2024-08-14T10:00:21Z</time>
      </trkpt>
      <trkpt lat="44.93107" lon="6.08705">
        <ele>2486</ele>
        <time>2024-08-14T10:00:22Z</time>
      </trkpt>
      <trkpt lat="44.93107" lon="6.08705">
        <ele>2486.2</ele>
        <time>2024-08-14T10:00:23Z</time>
      </trkpt>
      <trkpt lat="44.93107" lon="6.08705">
        <ele>2486.2</ele>
        <time>2024-08-14T10:00:24Z</time>
      </trkpt>
      <trkpt lat="44.93107" lon="6.08705">
        <ele>2486.4</ele>
        <time>2024-08-14T10:00:25Z</time>
      </trkpt>
      <trkpt lat="44.93108" lon="6.08708">
        <ele>2487</ele>
        <time>2024-08-14T10:00:26Z</time>
      </trkpt>
      <trkpt lat="44.93108" lon="6.08708">
        <ele>2487</ele>
        <time>2024-08-14T10:00:27Z</time>
      </trkpt>
      <trkpt lat="44.93108" lon="6.08708">
        <ele>2487.2</ele>
        <time>2024-08-14T10:00:28Z</time>
      </trkpt>
      <trkpt lat="44.93109" lon="6.08712">
        <ele>2487.4</ele>
        <time>2024-08-14T10:00:29Z</time>
      </trkpt>
      <trkpt lat="44.93109" lon="6.08712">
        <ele>2488</ele>
        <time>2024-08-14T10:00:30Z</time>
      </trkpt>
      <trkpt lat="44.9311" lon="6.08714">
        <ele>2488</ele>
        <time>2024-08-14T10:00:31Z</time>
      </trkpt>
      <trkpt lat="44.9311" lon="6.08714">
        <ele>2488.2</ele>
        <time>2024-08-14T10:00:32Z</time>
      </trkpt>
      <trkpt lat="44.9311" lon="6.08714">
        <ele>2488.6</ele>
        <time>2024-08-14T10:00:33Z</time>
      </trkpt>
      <trkpt lat="44.9311" lon="6.08714">
        <ele>2488.8</ele>
        <time>2024-08-14T10:00:34Z</time>
      </trkpt>
      <trkpt lat="44.93111" lon="6.08716">
        <ele>2489</ele>
        <time>2024-08-14T10:00:35Z</time>
      </trkpt>
      <trkpt lat="44.93111" lon="6.08716">
        <ele>2489.2</ele>
        <time>2024-08-14T10:00:36Z</time>
      </trkpt>
      <trkpt lat="44.93111" lon="6.08716">
        <ele>2489.8</ele>
        <time>2024-08-14T10:00:37Z</time>
      </trkpt>
      <trkpt lat="44.93111" lon="6.08716">
        <ele>2489.8</ele>
        <time>2024-08-14T10:00:38Z</time>
      </trkpt>
      <trkpt lat="44.93111" lon="6.08716">
        <ele>2490.2</ele>
        <time>2024-08-14T10:00:39Z</time>
      </trkpt>
      <trkpt lat="44.93111" lon="6.08716">
        <ele>2490.2</ele>
        <time>2024-08-14T10:00:40Z</time>
      </trkpt>
      <trkpt lat="44.93113" lon="6.08718">
        <ele>2490.4</ele>
        <time>2024-08-14T10:00:41Z</time>
      </trkpt>
      <trkpt lat="44.93113" lon="6.08718">
        <ele>2490.6</ele>
        <time>2024-08-14T10:00:42Z</time>
      </trkpt>
      <trkpt lat="44.93113" lon="6.08718">
        <ele>2490.8</ele>
        <time>2024-08-14T10:00:43Z</time>
      </trkpt>
      <trkpt lat="44.93113" lon="6.08718">
        <ele>2491</ele>
        <time>2024-08-14T10:00:44Z</time>
      </trkpt>
      <trkpt lat="44.93113" lon="6.08718">
        <ele>2491</ele>
        <time>2024-08-14T10:00:45Z</time>
      </trkpt>
      <trkpt lat="44.93113" lon="6.08718">
        <ele>2491</ele>
        <time>2024-08-14T10:00:46Z</time>
      </trkpt>
      <trkpt lat="44.93115" lon="6.08716">
        <ele>2491.6</ele>
        <time>2024-08-14T10:00:47Z</time>
      </trkpt>
      <trkpt lat="44.93115" lon="6.08716">
        <ele>2492</ele>
        <time>2024-08-14T10:00:48Z</time>
      </trkpt>
      <trkpt lat="44.93115" lon="6.08716">
        <ele>2492</ele>
        <time>2024-08-14T10:00:49Z</time>
      </trkpt>
      <trkpt lat="44.93115" lon="6.08716">
        <ele>2492.2</ele>
        <time>2024-08-14T10:00:50Z</time>
      </trkpt>
      <trkpt lat="44.93115" lon="6.08713">
        <ele>2492.6</ele>
        <time>2024-08-14T10:00:51Z</time>
      </trkpt>
      <trkpt lat="44.93115" lon="6.08713">
        <ele>2492.8</ele>
        <time>2024-08-14T10:00:52Z</time>
      </trkpt>
      <trkpt lat="44.93115" lon="6.08713">
        <ele>2493.2</ele>
        <time>2024-08-14T10:00:53Z</time>
      </trkpt>
      <trkpt lat="44.93115" lon="6.08713">
        <ele>2493.2</ele>
        <time>2024-08-14T10:00:54Z</time>
      </trkpt>
      <trkpt lat="44.93115" lon="6.08713">
        <ele>2493.6</ele>
        <time>2024-08-14T10:00:55Z</time>
      </trkpt>
      <trkpt lat="44.93115" lon="6.08713">
        <ele>2493.6</ele>
        <time>2024-08-14T10:00:56Z</time>
      </trkpt>
      <trkpt lat="44.93115" lon="6.08713">
        <ele>2493.6</ele>
        <time>2024-08-14T10:00:57Z</time>
      </trkpt>
      <trkpt lat="44.93115" lon="6.08713">
        <ele>2494</ele>
        <time>2024-08-14T10:00:58Z</time>
      </trkpt>
      <trkpt lat="44.93115" lon="6.08713">
        <ele>2494.4</ele>
        <time>2024-08-14T10:00:59Z</time>
      </trkpt>
      <trkpt lat="44.93115" lon="6.08713">
        <ele>2494.6</ele>
        <time>2024-08-14T10:01:00Z</time>
      </trkpt>
      <trkpt lat="44.93117" lon="6.08712">
        <ele>2494.8</ele>
        <time>2024-08-14T10:01:01Z</time>
      </trkpt>
      <trkpt lat="44.93117" lon="6.08712">
        <ele>2495.2</ele>
        <time>2024-08-14T10:01:02Z</time>
      </trkpt>
      <trkpt lat="44.93119" lon="6.08713">
        <ele>2495.2</ele>
        <time>2024-08-14T10:01:03Z</time>
      </trkpt>
      <trkpt lat="44.93119" lon="6.08713">
        <ele>2495.4</ele>
        <time>2024-08-14T10:01:04Z</time>
      </trkpt>
      <trkpt lat="44.93121" lon="6.08715">
        <ele>2495.8</ele>
        <time>2024-08-14T10:01:05Z</time>
      </trkpt>
      <trkpt lat="44.93121" lon="6.08715">
        <ele>2496</ele>
        <time>2024-08-14T10:01:06Z</time>
      </trkpt>
      <trkpt lat="44.93121" lon="6.08718">
        <ele>2496.2</ele>
        <time>2024-08-14T10:01:07Z</time>
      </trkpt>
      <trkpt lat="44.93121" lon="6.08718">
        <ele>2496.4</ele>
        <time>2024-08-14T10:01:08Z</time>
      </trkpt>
      <trkpt lat="44.93121" lon="6.08718">
        <ele>2496.8</ele>
        <time>2024-08-14T10:01:09Z</time>
      </trkpt>
      <trkpt lat="44.93121" lon="6.08718">
        <ele>2496.8</ele>
        <time>2024-08-14T10:01:10Z</time>
      </trkpt>
      <trkpt lat="44.93121" lon="6.08721">
        <ele>2497</ele>
        <time>2024-08-14T10:01:11Z</time>
      </trkpt>
      <trkpt lat="44.93121" lon="6.08721">
        <ele>2497</ele>
        <time>2024-08-14T10:01:12Z</time>
      </trkpt>
      <trkpt lat="44.93121" lon="6.08721">
        <ele>2497.2</ele>
        <time>2024-08-14T10:01:13Z</time>
      </trkpt>
      <trkpt lat="44.93121" lon="6.08721">
        <ele>2497.2</ele>
        <time>2024-08-14T10:01:14Z</time>
      </trkpt>
      <trkpt lat="44.93121" lon="6.08721">
        <ele>2497.4</ele>
        <time>2024-08-14T10:01:15Z</time>
      </trkpt>
      <trkpt lat="44.93121" lon="6.08721">
        <ele>2497.8</ele>
        <time>2024-08-14T10:01:16Z</time>
      </trkpt>
      <trkpt lat="44.93121" lon="6.08721">
        <ele>2498.2</ele>
        <time>2024-08-14T10:01:17Z</time>
      </trkpt>
      <trkpt lat="44.93121" lon="6.08721">
        <ele>2498.6</ele>
        <time>2024-08-14T10:01:18Z</time>
      </trkpt>
      <trkpt lat="44.93122" lon="6.08723">
        <ele>2499</ele>
        <time>2024-08-14T10:01:19Z</time>
      </trkpt>
      <trkpt lat="44.93122" lon="6.08723">
        <ele>2499</ele>
        <time>2024-08-14T10:01:20Z</time>
      </trkpt>
      <trkpt lat="44.93122" lon="6.08723">
        <ele>2499.2</ele>
        <time>2024-08-14T10:01:21Z</time>
      </trkpt>
      <trkpt lat="44.93122" lon="6.08723">
        <ele>2499.2</ele>
        <time>2024-08-14T10:01:22Z</time>
      </trkpt>
      <trkpt lat="44.93122" lon="6.08723">
        <ele>2499.6</ele>
        <time>2024-08-14T10:01:23Z</time>
      </trkpt>
      <trkpt lat="44.93122" lon="6.08723">
        <ele>2499.6</ele>
        <time>2024-08-14T10:01:24Z</time>
      </trkpt>
      <trkpt lat="44.93123" lon="6.08721">
        <ele>2499.4</ele>
        <time>2024-08-14T10:01:25Z</time>
      </trkpt>
      <trkpt lat="44.93123" lon="6.08721">
        <ele>2499.4</ele>
        <time>2024-08-14T10:01:26Z</time>
      </trkpt>
      <trkpt lat="44.93125" lon="6.08719">
        <ele>2499.4</ele>
        <time>2024-08-14T10:01:27Z</time>
      </trkpt>
      <trkpt lat="44.93125" lon="6.08719">
        <ele>2500</ele>
        <time>2024-08-14T10:01:28Z</time>
      </trkpt>
      <trkpt lat="44.93125" lon="6.08719">
        <ele>2500.2</ele>
        <time>2024-08-14T10:01:29Z</time>
      </trkpt>
      <trkpt lat="44.93125" lon="6.08719">
        <ele>2500.6</ele>
        <time>2024-08-14T10:01:30Z</time>
      </trkpt>
      <trkpt lat="44.93125" lon="6.08719">
        <ele>2501</ele>
        <time>2024-08-14T10:01:31Z</time>
      </trkpt>
      <trkpt lat="44.93125" lon="6.08719">
        <ele>2501</ele>
        <time>2024-08-14T10:01:32Z</time>
      </trkpt>
      <trkpt lat="44.93125" lon="6.08719">
        <ele>2501.4</ele>
        <time>2024-08-14T10:01:33Z</time>
      </trkpt>
      <trkpt lat="44.93125" lon="6.08719">
        <ele>2501.8</ele>
        <time>2024-08-14T10:01:34Z</time>
      </trkpt>
      <trkpt lat="44.93125" lon="6.08719">
        <ele>2502</ele>
        <time>2024-08-14T10:01:35Z</time>
      </trkpt>
      <trkpt lat="44.93125" lon="6.08719">
        <ele>2502.4</ele>
        <time>2024-08-14T10:01:36Z</time>
      </trkpt>
      <trkpt lat="44.93126" lon="6.0872">
        <ele>2502.4</ele>
        <time>2024-08-14T10:01:37Z</time>
      </trkpt>
      <trkpt lat="44.93126" lon="6.0872">
        <ele>2502.6</ele>
        <time>2024-08-14T10:01:38Z</time>
      </trkpt>
      <trkpt lat="44.93128" lon="6.08723">
        <ele>2502.8</ele>
        <time>2024-08-14T10:01:39Z</time>
      </trkpt>
      <trkpt lat="44.93128" lon="6.08723">
        <ele>2502.8</ele>
        <time>2024-08-14T10:01:40Z</time>
      </trkpt>
      <trkpt lat="44.93129" lon="6.08727">
        <ele>2503</ele>
        <time>2024-08-14T10:01:41Z</time>
      </trkpt>
      <trkpt lat="44.93129" lon="6.08727">
        <ele>2503</ele>
        <time>2024-08-14T10:01:42Z</time>
      </trkpt>
      <trkpt lat="44.93129" lon="6.08727">
        <ele>2503.4</ele>
        <time>2024-08-14T10:01:43Z</time>
      </trkpt>
      <trkpt lat="44.93129" lon="6.08727">
        <ele>2503.4</ele>
        <time>2024-08-14T10:01:44Z</time>
      </trkpt>
      <trkpt lat="44.93129" lon="6.08727">
        <ele>2503.6</ele>
        <time>2024-08-14T10:01:45Z</time>
      </trkpt>
      <trkpt lat="44.93129" lon="6.08727">
        <ele>2504.2</ele>
        <time>2024-08-14T10:01:46Z</time>
      </trkpt>
      <trkpt lat="44.93129" lon="6.08727">
        <ele>2504.2</ele>
        <time>2024-08-14T10:01:47Z</time>
      </trkpt>
      <trkpt lat="44.93129" lon="6.08727">
        <ele>2504.2</ele>
        <time>2024-08-14T10:01:48Z</time>
      </trkpt>
      <trkpt lat="44.93129" lon="6.08727">
        <ele>2504.8</ele>
        <time>2024-08-14T10:01:49Z</time>
      </trkpt>
      <trkpt lat="44.93129" lon="6.08727">
        <ele>2505</ele>
        <time>2024-08-14T10:01:50Z</time>
      </trkpt>
      <trkpt lat="44.93129" lon="6.08727">
        <ele>2505</ele>
        <time>2024-08-14T10:01:51Z</time>
      </trkpt>
      <trkpt lat="44.93129" lon="6.08727">
        <ele>2505.2</ele>
        <time>2024-08-14T10:01:52Z</time>
      </trkpt>
      <trkpt lat="44.93129" lon="6.08727">
        <ele>2505.4</ele>
        <time>2024-08-14T10:01:53Z</time>
      </trkpt>
      <trkpt lat="44.93129" lon="6.08727">
        <ele>2505.6</ele>
        <time>2024-08-14T10:01:54Z</time>
      </trkpt>
      <trkpt lat="44.93129" lon="6.08727">
        <ele>2506.2</ele>
        <time>2024-08-14T10:01:55Z</time>
      </trkpt>
      <trkpt lat="44.93129" lon="6.08727">
        <ele>2506.2</ele>
        <time>2024-08-14T10:01:56Z</time>
      </trkpt>
      <trkpt lat="44.93129" lon="6.08727">
        <ele>2506.2</ele>
        <time>2024-08-14T10:01:57Z</time>
      </trkpt>
      <trkpt lat="44.93129" lon="6.08727">
        <ele>2506.6</ele>
        <time>2024-08-14T10:01:58Z</time>
      </trkpt>
      <trkpt lat="44.93129" lon="6.08727">
        <ele>2506.8</ele>
        <time>2024-08-14T10:01:59Z</time>
      </trkpt>
      <trkpt lat="44.93129" lon="6.08727">
        <ele>2507.4</ele>
        <time>2024-08-14T10:02:00Z</time>
      </trkpt>
      <trkpt lat="44.93129" lon="6.08727">
        <ele>2507.6</ele>
        <time>2024-08-14T10:02:01Z</time>
      </trkpt>
      <trkpt lat="44.93129" lon="6.08727">
        <ele>2507.6</ele>
        <time>2024-08-14T10:02:02Z</time>
      </trkpt>
      <trkpt lat="44.93131" lon="6.08726">
        <ele>2507.6</ele>
        <time>2024-08-14T10:02:03Z</time>
      </trkpt>
      <trkpt lat="44.93131" lon="6.08726">
        <ele>2507.8</ele>
        <time>2024-08-14T10:02:04Z</time>
      </trkpt>
      <trkpt lat="44.93133" lon="6.08725">
        <ele>2508</ele>
        <time>2024-08-14T10:02:05Z</time>
      </trkpt>
      <trkpt lat="44.93133" lon="6.08725">
        <ele>2508.4</ele>
        <time>2024-08-14T10:02:06Z</time>
      </trkpt>
      <trkpt lat="44.93133" lon="6.08725">
        <ele>2509</ele>
        <time>2024-08-14T10:02:07Z</time>
      </trkpt>
      <trkpt lat="44.93133" lon="6.08725">
        <ele>2509.2</ele>
        <time>2024-08-14T10:02:08Z</time>
      </trkpt>
      <trkpt lat="44.93133" lon="6.08725">
        <ele>2509.4</ele>
        <time>2024-08-14T10:02:09Z</time>
      </trkpt>
      <trkpt lat="44.93133" lon="6.08725">
        <ele>2509.6</ele>
        <time>2024-08-14T10:02:10Z</time>
      </trkpt>
      <trkpt lat="44.93133" lon="6.08725">
        <ele>2509.8</ele>
        <time>2024-08-14T10:02:11Z</time>
      </trkpt>
      <trkpt lat="44.93133" lon="6.08725">
        <ele>2510</ele>
        <time>2024-08-14T10:02:12Z</time>
      </trkpt>
      <trkpt lat="44.93133" lon="6.08725">
        <ele>2510</ele>
        <time>2024-08-14T10:02:13Z</time>
      </trkpt>
      <trkpt lat="44.93133" lon="6.08725">
        <ele>2510.4</ele>
        <time>2024-08-14T10:02:14Z</time>
      </trkpt>
      <trkpt lat="44.93133" lon="6.08725">
        <ele>2510.4</ele>
        <time>2024-08-14T10:02:15Z</time>
      </trkpt>
      <trkpt lat="44.93133" lon="6.08725">
        <ele>2510.6</ele>
        <time>2024-08-14T10:02:16Z</time>
      </trkpt>
      <trkpt lat="44.93133" lon="6.08725">
        <ele>2511</ele>
        <time>2024-08-14T10:02:17Z</time>
      </trkpt>
      <trkpt lat="44.93133" lon="6.08725">
        <ele>2511.2</ele>
        <time>2024-08-14T10:02:18Z</time>
      </trkpt>
      <trkpt lat="44.93133" lon="6.08725">
        <ele>2511.4</ele>
        <time>2024-08-14T10:02:19Z</time>
      </trkpt>
      <trkpt lat="44.93134" lon="6.08726">
        <ele>2511.8</ele>
        <time>2024-08-14T10:02:20Z</time>
      </trkpt>
      <trkpt lat="44.93134" lon="6.08726">
        <ele>2512.2</ele>
        <time>2024-08-14T10:02:21Z</time>
      </trkpt>
      <trkpt lat="44.93136" lon="6.08728">
        <ele>2512.2</ele>
        <time>2024-08-14T10:02:22Z</time>
      </trkpt>
      <trkpt lat="44.93136" lon="6.08728">
        <ele>2512.2</ele>
        <time>2024-08-14T10:02:23Z</time>
      </trkpt>
      <trkpt lat="44.93138" lon="6.08728">
        <ele>2512.6</ele>
        <time>2024-08-14T10:02:24Z</time>
      </trkpt>
      <trkpt lat="44.93138" lon="6.08728">
        <ele>2512.8</ele>
        <time>2024-08-14T10:02:25Z</time>
      </trkpt>
      <trkpt lat="44.93141" lon="6.08727">
        <ele>2512.8</ele>
        <time>2024-08-14T10:02:26Z</time>
      </trkpt>
      <trkpt lat="44.93141" lon="6.08727">
        <ele>2513.4</ele>
        <time>2024-08-14T10:02:27Z</time>
      </trkpt>
      <trkpt lat="44.93142" lon="6.08727">
        <ele>2513.4</ele>
        <time>2024-08-14T10:02:28Z</time>
      </trkpt>
      <trkpt lat="44.93142" lon="6.08727">
        <ele>2513.4</ele>
        <time>2024-08-14T10:02:29Z</time>
      </trkpt>
      <trkpt lat="44.93142" lon="6.08727">
        <ele>2513.4</ele>
        <time>2024-08-14T10:02:30Z</time>
      </trkpt>
      <trkpt lat="44.93142" lon="6.0873">
        <ele>2514</ele>
        <time>2024-08-14T10:02:31Z</time>
      </trkpt>
      <trkpt lat="44.93142" lon="6.0873">
        <ele>2514.6</ele>
        <time>2024-08-14T10:02:32Z</time>
      </trkpt>
      <trkpt lat="44.93142" lon="6.0873">
        <ele>2514.6</ele>
        <time>2024-08-14T10:02:33Z</time>
      </trkpt>
      <trkpt lat="44.93142" lon="6.0873">
        <ele>2514.6</ele>
        <time>2024-08-14T10:02:34Z</time>
      </trkpt>
      <trkpt lat="44.93143" lon="6.08734">
        <ele>2515</ele>
        <time>2024-08-14T10:02:35Z</time>
      </trkpt>
      <trkpt lat="44.93143" lon="6.08734">
        <ele>2515</ele>
        <time>2024-08-14T10:02:36Z</time>
      </trkpt>
      <trkpt lat="44.93143" lon="6.08734">
        <ele>2515.4</ele>
        <time>2024-08-14T10:02:37Z</time>
      </trkpt>
      <trkpt lat="44.93144" lon="6.08736">
        <ele>2515.6</ele>
        <time>2024-08-14T10:02:38Z</time>
      </trkpt>
      <trkpt lat="44.93144" lon="6.08736">
        <ele>2515.8</ele>
        <time>2024-08-14T10:02:39Z</time>
      </trkpt>
      <trkpt lat="44.93144" lon="6.08736">
        <ele>2515.8</ele>
        <time>2024-08-14T10:02:40Z</time>
      </trkpt>
      <trkpt lat="44.93143" lon="6.08739">
        <ele>2516.2</ele>
        <time>2024-08-14T10:02:41Z</time>
      </trkpt>
      <trkpt lat="44.93143" lon="6.08739">
        <ele>2516.4</ele>
        <time>2024-08-14T10:02:42Z</time>
      </trkpt>
      <trkpt lat="44.93143" lon="6.08739">
        <ele>2516.6</ele>
        <time>2024-08-14T10:02:43Z</time>
      </trkpt>
      <trkpt lat="44.93143" lon="6.08739">
        <ele>2516.8</ele>
        <time>2024-08-14T10:02:44Z</time>
      </trkpt>
      <trkpt lat="44.93143" lon="6.08739">
        <ele>2516.8</ele>
        <time>2024-08-14T10:02:45Z</time>
      </trkpt>
      <trkpt lat="44.93143" lon="6.08739">
        <ele>2517.6</ele>
        <time>2024-08-14T10:02:46Z</time>
      </trkpt>
      <trkpt lat="44.93143" lon="6.08739">
        <ele>2517.8</ele>
        <time>2024-08-14T10:02:47Z</time>
      </trkpt>
      <trkpt lat="44.93143" lon="6.08739">
        <ele>2518</ele>
        <time>2024-08-14T10:02:48Z</time>
      </trkpt>
      <trkpt lat="44.93143" lon="6.08739">
        <ele>2518</ele>
        <time>2024-08-14T10:02:49Z</time>
      </trkpt>
      <trkpt lat="44.93143" lon="6.08739">
        <ele>2518.2</ele>
        <time>2024-08-14T10:02:50Z</time>
      </trkpt>
      <trkpt lat="44.93143" lon="6.08739">
        <ele>2518.2</ele>
        <time>2024-08-14T10:02:51Z</time>
      </trkpt>
      <trkpt lat="44.93143" lon="6.08739">
        <ele>2518.4</ele>
        <time>2024-08-14T10:02:52Z</time>
      </trkpt>
      <trkpt lat="44.93145" lon="6.08738">
        <ele>2518.6</ele>
        <time>2024-08-14T10:02:53Z</time>
      </trkpt>
      <trkpt lat="44.93145" lon="6.08738">
        <ele>2519</ele>
        <time>2024-08-14T10:02:54Z</time>
      </trkpt>
      <trkpt lat="44.93148" lon="6.08736">
        <ele>2519.2</ele>
        <time>2024-08-14T10:02:55Z</time>
      </trkpt>
      <trkpt lat="44.93148" lon="6.08736">
        <ele>2519.4</ele>
        <time>2024-08-14T10:02:56Z</time>
      </trkpt>
      <trkpt lat="44.93148" lon="6.08736">
        <ele>2520</ele>
        <time>2024-08-14T10:02:57Z</time>
      </trkpt>
      <trkpt lat="44.93148" lon="6.08736">
        <ele>2520</ele>
        <time>2024-08-14T10:02:58Z</time>
      </trkpt>
      <trkpt lat="44.93148" lon="6.08739">
        <ele>2520</ele>
        <time>2024-08-14T10:02:59Z</time>
      </trkpt>
      <trkpt lat="44.93148" lon="6.08739">
        <ele>2520.4</ele>
        <time>2024-08-14T10:03:00Z</time>
      </trkpt>
      <trkpt lat="44.93148" lon="6.08739">
        <ele>2520.6</ele>
        <time>2024-08-14T10:03:01Z</time>
      </trkpt>
      <trkpt lat="44.93148" lon="6.08742">
        <ele>2521.2</ele>
        <time>2024-08-14T10:03:02Z</time>
      </trkpt>
      <trkpt lat="44.93148" lon="6.08742">
        <ele>2521.2</ele>
        <time>2024-08-14T10:03:03Z</time>
      </trkpt>
      <trkpt lat="44.93148" lon="6.08742">
        <ele>2521.4</ele>
        <time>2024-08-14T10:03:04Z</time>
      </trkpt>
      <trkpt lat="44.93148" lon="6.08742">
        <ele>2521.6</ele>
        <time>2024-08-14T10:03:05Z</time>
      </trkpt>
      <trkpt lat="44.93148" lon="6.08742">
        <ele>2521.8</ele>
        <time>2024-08-14T10:03:06Z</time>
      </trkpt>
      <trkpt lat="44.93148" lon="6.08742">
        <ele>2522</ele>
        <time>2024-08-14T10:03:07Z</time>
      </trkpt>
      <trkpt lat="44.93148" lon="6.08742">
        <ele>2522</ele>
        <time>2024-08-14T10:03:08Z</time>
      </trkpt>
      <trkpt lat="44.93148" lon="6.08742">
        <ele>2522</ele>
        <time>2024-08-14T10:03:09Z</time>
      </trkpt>
      <trkpt lat="44.93148" lon="6.08742">
        <ele>2522</ele>
        <time>2024-08-14T10:03:10Z</time>
      </trkpt>
      <trkpt lat="44.93148" lon="6.08742">
        <ele>2522</ele>
        <time>2024-08-14T10:03:11Z</time>
      </trkpt>
      <trkpt lat="44.93148" lon="6.08742">
        <ele>2522.2</ele>
        <time>2024-08-14T10:03:12Z</time>
      </trkpt>
      <trkpt lat="44.93148" lon="6.08742">
        <ele>2522.8</ele>
        <time>2024-08-14T10:03:13Z</time>
      </trkpt>
      <trkpt lat="44.93148" lon="6.08742">
        <ele>2522.8</ele>
        <time>2024-08-14T10:03:14Z</time>
      </trkpt>
      <trkpt lat="44.93148" lon="6.08742">
        <ele>2522.8</ele>
        <time>2024-08-14T10:03:15Z</time>
      </trkpt>
      <trkpt lat="44.9315" lon="6.08739">
        <ele>2522.8</ele>
        <time>2024-08-14T10:03:16Z</time>
      </trkpt>
      <trkpt lat="44.9315" lon="6.08739">
        <ele>2523.4</ele>
        <time>2024-08-14T10:03:17Z</time>
      </trkpt>
      <trkpt lat="44.9315" lon="6.08739">
        <ele>2523.6</ele>
        <time>2024-08-14T10:03:18Z</time>
      </trkpt>
      <trkpt lat="44.9315" lon="6.08739">
        <ele>2523.6</ele>
        <time>2024-08-14T10:03:19Z</time>
      </trkpt>
      <trkpt lat="44.9315" lon="6.08739">
        <ele>2524</ele>
        <time>2024-08-14T10:03:20Z</time>
      </trkpt>
      <trkpt lat="44.93152" lon="6.08736">
        <ele>2524</ele>
        <time>2024-08-14T10:03:21Z</time>
      </trkpt>
      <trkpt lat="44.93152" lon="6.08736">
        <ele>2524.2</ele>
        <time>2024-08-14T10:03:22Z</time>
      </trkpt>
      <trkpt lat="44.93155" lon="6.08733">
        <ele>2524.4</ele>
        <time>2024-08-14T10:03:23Z</time>
      </trkpt>
      <trkpt lat="44.93156" lon="6.08731">
        <ele>2524.6</ele>
        <time>2024-08-14T10:03:24Z</time>
      </trkpt>
      <trkpt lat="44.93156" lon="6.08731">
        <ele>2524.6</ele>
        <time>2024-08-14T10:03:25Z</time>
      </trkpt>
      <trkpt lat="44.93159" lon="6.08729">
        <ele>2525</ele>
        <time>2024-08-14T10:03:26Z</time>
      </trkpt>
      <trkpt lat="44.93159" lon="6.08729">
        <ele>2525.4</ele>
        <time>2024-08-14T10:03:27Z</time>
      </trkpt>
      <trkpt lat="44.93159" lon="6.08729">
        <ele>2525.4</ele>
        <time>2024-08-14T10:03:28Z</time>
      </trkpt>
      <trkpt lat="44.93159" lon="6.08732">
        <ele>2525.6</ele>
        <time>2024-08-14T10:03:29Z</time>
      </trkpt>
      <trkpt lat="44.93159" lon="6.08732">
        <ele>2525.8</ele>
        <time>2024-08-14T10:03:30Z</time>
      </trkpt>
      <trkpt lat="44.93159" lon="6.08732">
        <ele>2526.2</ele>
        <time>2024-08-14T10:03:31Z</time>
      </trkpt>
      <trkpt lat="44.93159" lon="6.08735">
        <ele>2526.8</ele>
        <time>2024-08-14T10:03:32Z</time>
      </trkpt>
      <trkpt lat="44.93159" lon="6.08735">
        <ele>2526.8</ele>
        <time>2024-08-14T10:03:33Z</time>
      </trkpt>
      <trkpt lat="44.93159" lon="6.08735">
        <ele>2527</ele>
        <time>2024-08-14T10:03:34Z</time>
      </trkpt>
      <trkpt lat="44.93158" lon="6.08738">
        <ele>2527.4</ele>
        <time>2024-08-14T10:03:35Z</time>
      </trkpt>
      <trkpt lat="44.93158" lon="6.08738">
        <ele>2527.4</ele>
        <time>2024-08-14T10:03:36Z</time>
      </trkpt>
      <trkpt lat="44.93158" lon="6.08738">
        <ele>2527.4</ele>
        <time>2024-08-14T10:03:37Z</time>
      </trkpt>
      <trkpt lat="44.93158" lon="6.08738">
        <ele>2527.8</ele>
        <time>2024-08-14T10:03:38Z</time>
      </trkpt>
      <trkpt lat="44.93158" lon="6.08738">
        <ele>2527.8</ele>
        <time>2024-08-14T10:03:39Z</time>
      </trkpt>
      <trkpt lat="44.93157" lon="6.08741">
        <ele>2527.8</ele>
        <time>2024-08-14T10:03:40Z</time>
      </trkpt>
      <trkpt lat="44.93157" lon="6.08741">
        <ele>2528</ele>
        <time>2024-08-14T10:03:41Z</time>
      </trkpt>
      <trkpt lat="44.93157" lon="6.08744">
        <ele>2528</ele>
        <time>2024-08-14T10:03:42Z</time>
      </trkpt>
      <trkpt lat="44.93157" lon="6.08744">
        <ele>2528.2</ele>
        <time>2024-08-14T10:03:43Z</time>
      </trkpt>
      <trkpt lat="44.93157" lon="6.08748">
        <ele>2528.8</ele>
        <time>2024-08-14T10:03:44Z</time>
      </trkpt>
      <trkpt lat="44.93157" lon="6.08748">
        <ele>2529.2</ele>
        <time>2024-08-14T10:03:45Z</time>
      </trkpt>
      <trkpt lat="44.93157" lon="6.08748">
        <ele>2529.2</ele>
        <time>2024-08-14T10:03:46Z</time>
      </trkpt>
      <trkpt lat="44.93159" lon="6.0875">
        <ele>2529.4</ele>
        <time>2024-08-14T10:03:47Z</time>
      </trkpt>
      <trkpt lat="44.93159" lon="6.0875">
        <ele>2529.6</ele>
        <time>2024-08-14T10:03:48Z</time>
      </trkpt>
      <trkpt lat="44.93159" lon="6.0875">
        <ele>2529.8</ele>
        <time>2024-08-14T10:03:49Z</time>
      </trkpt>
      <trkpt lat="44.9316" lon="6.08753">
        <ele>2529.8</ele>
        <time>2024-08-14T10:03:50Z</time>
      </trkpt>
      <trkpt lat="44.9316" lon="6.08753">
        <ele>2530.4</ele>
        <time>2024-08-14T10:03:51Z</time>
      </trkpt>
      <trkpt lat="44.9316" lon="6.08753">
        <ele>2530.6</ele>
        <time>2024-08-14T10:03:52Z</time>
      </trkpt>
      <trkpt lat="44.93162" lon="6.08755">
        <ele>2530.8</ele>
        <time>2024-08-14T10:03:53Z</time>
      </trkpt>
      <trkpt lat="44.93162" lon="6.08755">
        <ele>2531.2</ele>
        <time>2024-08-14T10:03:54Z</time>
      </trkpt>
      <trkpt lat="44.93162" lon="6.08755">
        <ele>2531.2</ele>
        <time>2024-08-14T10:03:55Z</time>
      </trkpt>
      <trkpt lat="44.93162" lon="6.08755">
        <ele>2531.6</ele>
        <time>2024-08-14T10:03:56Z</time>
      </trkpt>
      <trkpt lat="44.93162" lon="6.08755">
        <ele>2531.8</ele>
        <time>2024-08-14T10:03:57Z</time>
      </trkpt>
      <trkpt lat="44.93162" lon="6.08755">
        <ele>2532.2</ele>
        <time>2024-08-14T10:03:58Z</time>
      </trkpt>
      <trkpt lat="44.93162" lon="6.08755">
        <ele>2532.4</ele>
        <time>2024-08-14T10:03:59Z</time>
      </trkpt>
      <trkpt lat="44.93162" lon="6.08755">
        <ele>2532.4</ele>
        <time>2024-08-14T10:04:00Z</time>
      </trkpt>
      <trkpt lat="44.93162" lon="6.08755">
        <ele>2532.8</ele>
        <time>2024-08-14T10:04:01Z</time>
      </trkpt>
      <trkpt lat="44.93162" lon="6.08755">
        <ele>2533.2</ele>
        <time>2024-08-14T10:04:02Z</time>
      </trkpt>
      <trkpt lat="44.93162" lon="6.08755">
        <ele>2533.2</ele>
        <time>2024-08-14T10:04:03Z</time>
      </trkpt>
      <trkpt lat="44.93162" lon="6.08755">
        <ele>2533.2</ele>
        <time>2024-08-14T10:04:04Z</time>
      </trkpt>
      <trkpt lat="44.93162" lon="6.08752">
        <ele>2533</ele>
        <time>2024-08-14T10:04:05Z</time>
      </trkpt>
      <trkpt lat="44.93162" lon="6.08752">
        <ele>2533</ele>
        <time>2024-08-14T10:04:06Z</time>
      </trkpt>
      <trkpt lat="44.93162" lon="6.08748">
        <ele>2532.8</ele>
        <time>2024-08-14T10:04:07Z</time>
      </trkpt>
      <trkpt lat="44.93162" lon="6.08748">
        <ele>2532.8</ele>
        <time>2024-08-14T10:04:08Z</time>
      </trkpt>
      <trkpt lat="44.93163" lon="6.08744">
        <ele>2532.8</ele>
        <time>2024-08-14T10:04:09Z</time>
      </trkpt>
      <trkpt lat="44.93163" lon="6.08744">
        <ele>2533.4</ele>
        <time>2024-08-14T10:04:10Z</time>
      </trkpt>
      <trkpt lat="44.93164" lon="6.08742">
        <ele>2533.8</ele>
        <time>2024-08-14T10:04:11Z</time>
      </trkpt>
      <trkpt lat="44.93164" lon="6.08742">
        <ele>2534.6</ele>
        <time>2024-08-14T10:04:12Z</time>
      </trkpt>
      <trkpt lat="44.93164" lon="6.08742">
        <ele>2534.6</ele>
        <time>2024-08-14T10:04:13Z</time>
      </trkpt>
      <trkpt lat="44.93165" lon="6.0874">
        <ele>2534.6</ele>
        <time>2024-08-14T10:04:14Z</time>
      </trkpt>
      <trkpt lat="44.93165" lon="6.0874">
        <ele>2534.8</ele>
        <time>2024-08-14T10:04:15Z</time>
      </trkpt>
      <trkpt lat="44.93165" lon="6.0874">
        <ele>2535</ele>
        <time>2024-08-14T10:04:16Z</time>
      </trkpt>
      <trkpt lat="44.93167" lon="6.08739">
        <ele>2535.2</ele>
        <time>2024-08-14T10:04:17Z</time>
      </trkpt>
      <trkpt lat="44.93167" lon="6.08739">
        <ele>2535.8</ele>
        <time>2024-08-14T10:04:18Z</time>
      </trkpt>
      <trkpt lat="44.93167" lon="6.08739">
        <ele>2536</ele>
        <time>2024-08-14T10:04:19Z</time>
      </trkpt>
      <trkpt lat="44.93169" lon="6.08739">
        <ele>2536.2</ele>
        <time>2024-08-14T10:04:20Z</time>
      </trkpt>
      <trkpt lat="44.93169" lon="6.08739">
        <ele>2536.6</ele>
        <time>2024-08-14T10:04:21Z</time>
      </trkpt>
      <trkpt lat="44.93169" lon="6.08739">
        <ele>2536.8</ele>
        <time>2024-08-14T10:04:22Z</time>
      </trkpt>
      <trkpt lat="44.93171" lon="6.0874">
        <ele>2537</ele>
        <time>2024-08-14T10:04:23Z</time>
      </trkpt>
      <trkpt lat="44.93171" lon="6.0874">
        <ele>2537.4</ele>
        <time>2024-08-14T10:04:24Z</time>
      </trkpt>
      <trkpt lat="44.93171" lon="6.0874">
        <ele>2537.8</ele>
        <time>2024-08-14T10:04:25Z</time>
      </trkpt>
      <trkpt lat="44.93171" lon="6.0874">
        <ele>2537.8</ele>
        <time>2024-08-14T10:04:26Z</time>
      </trkpt>
      <trkpt lat="44.93173" lon="6.08741">
        <ele>2537.8</ele>
        <time>2024-08-14T10:04:27Z</time>
      </trkpt>
      <trkpt lat="44.93173" lon="6.08741">
        <ele>2538</ele>
        <time>2024-08-14T10:04:28Z</time>
      </trkpt>
      <trkpt lat="44.93173" lon="6.08741">
        <ele>2538.4</ele>
        <time>2024-08-14T10:04:29Z</time>
      </trkpt>
      <trkpt lat="44.93173" lon="6.08741">
        <ele>2539</ele>
        <time>2024-08-14T10:04:30Z</time>
      </trkpt>
      <trkpt lat="44.93171" lon="6.08744">
        <ele>2539</ele>
        <time>2024-08-14T10:04:31Z</time>
      </trkpt>
      <trkpt lat="44.93171" lon="6.08744">
        <ele>2539</ele>
        <time>2024-08-14T10:04:32Z</time>
      </trkpt>
      <trkpt lat="44.93171" lon="6.08744">
        <ele>2539.4</ele>
        <time>2024-08-14T10:04:33Z</time>
      </trkpt>
      <trkpt lat="44.9317" lon="6.08747">
        <ele>2539.6</ele>
        <time>2024-08-14T10:04:34Z</time>
      </trkpt>
      <trkpt lat="44.9317" lon="6.08747">
        <ele>2539.8</ele>
        <time>2024-08-14T10:04:35Z</time>
      </trkpt>
      <trkpt lat="44.9317" lon="6.08747">
        <ele>2539.8</ele>
        <time>2024-08-14T10:04:36Z</time>
      </trkpt>
      <trkpt lat="44.9317" lon="6.08747">
        <ele>2540.4</ele>
        <time>2024-08-14T10:04:37Z</time>
      </trkpt>
      <trkpt lat="44.9317" lon="6.08747">
        <ele>2540.4</ele>
        <time>2024-08-14T10:04:38Z</time>
      </trkpt>
      <trkpt lat="44.93171" lon="6.0875">
        <ele>2540.4</ele>
        <time>2024-08-14T10:04:39Z</time>
      </trkpt>
      <trkpt lat="44.93171" lon="6.0875">
        <ele>2540.4</ele>
        <time>2024-08-14T10:04:40Z</time>
      </trkpt>
      <trkpt lat="44.93172" lon="6.08753">
        <ele>2540.6</ele>
        <time>2024-08-14T10:04:41Z</time>
      </trkpt>
      <trkpt lat="44.93172" lon="6.08753">
        <ele>2540.8</ele>
        <time>2024-08-14T10:04:42Z</time>
      </trkpt>
      <trkpt lat="44.93173" lon="6.08756">
        <ele>2541</ele>
        <time>2024-08-14T10:04:43Z</time>
      </trkpt>
      <trkpt lat="44.93173" lon="6.08756">
        <ele>2541.2</ele>
        <time>2024-08-14T10:04:44Z</time>
      </trkpt>
      <trkpt lat="44.93173" lon="6.08756">
        <ele>2541.4</ele>
        <time>2024-08-14T10:04:45Z</time>
      </trkpt>
      <trkpt lat="44.93174" lon="6.08757">
        <ele>2541.6</ele>
        <time>2024-08-14T10:04:46Z</time>
      </trkpt>
      <trkpt lat="44.93174" lon="6.08757">
        <ele>2541.6</ele>
        <time>2024-08-14T10:04:47Z</time>
      </trkpt>
      <trkpt lat="44.93174" lon="6.08757">
        <ele>2541.6</ele>
        <time>2024-08-14T10:04:48Z</time>
      </trkpt>
      <trkpt lat="44.93174" lon="6.08757">
        <ele>2541.8</ele>
        <time>2024-08-14T10:04:49Z</time>
      </trkpt>
      <trkpt lat="44.93176" lon="6.0876">
        <ele>2542</ele>
        <time>2024-08-14T10:04:50Z</time>
      </trkpt>
      <trkpt lat="44.93176" lon="6.0876">
        <ele>2542.2</ele>
        <time>2024-08-14T10:04:51Z</time>
      </trkpt>
      <trkpt lat="44.93176" lon="6.0876">
        <ele>2542.6</ele>
        <time>2024-08-14T10:04:52Z</time>
      </trkpt>
      <trkpt lat="44.93176" lon="6.0876">
        <ele>2542.8</ele>
        <time>2024-08-14T10:04:53Z</time>
      </trkpt>
      <trkpt lat="44.93176" lon="6.08763">
        <ele>2543.2</ele>
        <time>2024-08-14T10:04:54Z</time>
      </trkpt>
      <trkpt lat="44.93176" lon="6.08763">
        <ele>2543.2</ele>
        <time>2024-08-14T10:04:55Z</time>
      </trkpt>
      <trkpt lat="44.93176" lon="6.08763">
        <ele>2543.6</ele>
        <time>2024-08-14T10:04:56Z</time>
      </trkpt>
      <trkpt lat="44.93176" lon="6.08763">
        <ele>2543.8</ele>
        <time>2024-08-14T10:04:57Z</time>
      </trkpt>
      <trkpt lat="44.93175" lon="6.08766">
        <ele>2544</ele>
        <time>2024-08-14T10:04:58Z</time>
      </trkpt>
      <trkpt lat="44.93175" lon="6.08766">
        <ele>2544</ele>
        <time>2024-08-14T10:04:59Z</time>
      </trkpt>
      <trkpt lat="44.93175" lon="6.08766">
        <ele>2544.4</ele>
        <time>2024-08-14T10:05:00Z</time>
      </trkpt>
      <trkpt lat="44.93175" lon="6.08766">
        <ele>2544.8</ele>
        <time>2024-08-14T10:05:01Z</time>
      </trkpt>
      <trkpt lat="44.93175" lon="6.08766">
        <ele>2544.8</ele>
        <time>2024-08-14T10:05:02Z</time>
      </trkpt>
      <trkpt lat="44.93175" lon="6.08768">
        <ele>2544.8</ele>
        <time>2024-08-14T10:05:03Z</time>
      </trkpt>
      <trkpt lat="44.93175" lon="6.08768">
        <ele>2545.4</ele>
        <time>2024-08-14T10:05:04Z</time>
      </trkpt>
      <trkpt lat="44.93175" lon="6.08768">
        <ele>2545.8</ele>
        <time>2024-08-14T10:05:05Z</time>
      </trkpt>
      <trkpt lat="44.93175" lon="6.08768">
        <ele>2545.8</ele>
        <time>2024-08-14T10:05:06Z</time>
      </trkpt>
      <trkpt lat="44.93175" lon="6.08768">
        <ele>2546.2</ele>
        <time>2024-08-14T10:05:07Z</time>
      </trkpt>
      <trkpt lat="44.93175" lon="6.08768">
        <ele>2546.8</ele>
        <time>2024-08-14T10:05:08Z</time>
      </trkpt>
      <trkpt lat="44.93175" lon="6.08768">
        <ele>2546.8</ele>
        <time>2024-08-14T10:05:09Z</time>
      </trkpt>
      <trkpt lat="44.93175" lon="6.08768">
        <ele>2546.8</ele>
        <time>2024-08-14T10:05:10Z</time>
      </trkpt>
      <trkpt lat="44.93175" lon="6.08768">
        <ele>2546.8</ele>
        <time>2024-08-14T10:05:11Z</time>
      </trkpt>
      <trkpt lat="44.93175" lon="6.08768">
        <ele>2547</ele>
        <time>2024-08-14T10:05:12Z</time>
      </trkpt>
      <trkpt lat="44.93175" lon="6.08768">
        <ele>2547.4</ele>
        <time>2024-08-14T10:05:13Z</time>
      </trkpt>
      <trkpt lat="44.93175" lon="6.08768">
        <ele>2548.2</ele>
        <time>2024-08-14T10:05:14Z</time>
      </trkpt>
      <trkpt lat="44.93175" lon="6.08768">
        <ele>2548.2</ele>
        <time>2024-08-14T10:05:15Z</time>
      </trkpt>
      <trkpt lat="44.93175" lon="6.08768">
        <ele>2548.2</ele>
        <time>2024-08-14T10:05:16Z</time>
      </trkpt>
      <trkpt lat="44.93175" lon="6.08768">
        <ele>2548.2</ele>
        <time>2024-08-14T10:05:17Z</time>
      </trkpt>
      <trkpt lat="44.93175" lon="6.08768">
        <ele>2548.6</ele>
        <time>2024-08-14T10:05:18Z</time>
      </trkpt>
      <trkpt lat="44.93175" lon="6.08768">
        <ele>2549</ele>
        <time>2024-08-14T10:05:19Z</time>
      </trkpt>
      <trkpt lat="44.93175" lon="6.08768">
        <ele>2549</ele>
        <time>2024-08-14T10:05:20Z</time>
      </trkpt>
      <trkpt lat="44.93177" lon="6.08768">
        <ele>2549.2</ele>
        <time>2024-08-14T10:05:21Z</time>
      </trkpt>
      <trkpt lat="44.93177" lon="6.08768">
        <ele>2549.4</ele>
        <time>2024-08-14T10:05:22Z</time>
      </trkpt>
      <trkpt lat="44.93179" lon="6.08766">
        <ele>2549.8</ele>
        <time>2024-08-14T10:05:23Z</time>
      </trkpt>
      <trkpt lat="44.93179" lon="6.08766">
        <ele>2550</ele>
        <time>2024-08-14T10:05:24Z</time>
      </trkpt>
      <trkpt lat="44.9318" lon="6.08765">
        <ele>2550.2</ele>
        <time>2024-08-14T10:05:25Z</time>
      </trkpt>
      <trkpt lat="44.9318" lon="6.08765">
        <ele>2550.6</ele>
        <time>2024-08-14T10:05:26Z</time>
      </trkpt>
      <trkpt lat="44.9318" lon="6.08765">
        <ele>2550.8</ele>
        <time>2024-08-14T10:05:27Z</time>
      </trkpt>
      <trkpt lat="44.9318" lon="6.08765">
        <ele>2550.8</ele>
        <time>2024-08-14T10:05:28Z</time>
      </trkpt>
      <trkpt lat="44.93181" lon="6.08762">
        <ele>2550.8</ele>
        <time>2024-08-14T10:05:29Z</time>
      </trkpt>
      <trkpt lat="44.93181" lon="6.08762">
        <ele>2551.2</ele>
        <time>2024-08-14T10:05:30Z</time>
      </trkpt>
      <trkpt lat="44.93181" lon="6.08762">
        <ele>2551.4</ele>
        <time>2024-08-14T10:05:31Z</time>
      </trkpt>
      <trkpt lat="44.93181" lon="6.08762">
        <ele>2551.4</ele>
        <time>2024-08-14T10:05:32Z</time>
      </trkpt>
      <trkpt lat="44.93181" lon="6.08762">
        <ele>2552</ele>
        <time>2024-08-14T10:05:33Z</time>
      </trkpt>
      <trkpt lat="44.93181" lon="6.08762">
        <ele>2552.4</ele>
        <time>2024-08-14T10:05:34Z</time>
      </trkpt>
      <trkpt lat="44.93181" lon="6.08762">
        <ele>2552.6</ele>
        <time>2024-08-14T10:05:35Z</time>
      </trkpt>
      <trkpt lat="44.93181" lon="6.08762">
        <ele>2552.8</ele>
        <time>2024-08-14T10:05:36Z</time>
      </trkpt>
      <trkpt lat="44.93181" lon="6.08762">
        <ele>2552.8</ele>
        <time>2024-08-14T10:05:37Z</time>
      </trkpt>
      <trkpt lat="44.93181" lon="6.08762">
        <ele>2552.8</ele>
        <time>2024-08-14T10:05:38Z</time>
      </trkpt>
      <trkpt lat="44.93181" lon="6.08762">
        <ele>2552.8</ele>
        <time>2024-08-14T10:05:39Z</time>
      </trkpt>
      <trkpt lat="44.93181" lon="6.08762">
        <ele>2553.4</ele>
        <time>2024-08-14T10:05:40Z</time>
      </trkpt>
      <trkpt lat="44.93183" lon="6.08762">
        <ele>2553.8</ele>
        <time>2024-08-14T10:05:41Z</time>
      </trkpt>
      <trkpt lat="44.93183" lon="6.08762">
        <ele>2554</ele>
        <time>2024-08-14T10:05:42Z</time>
      </trkpt>
      <trkpt lat="44.93184" lon="6.08761">
        <ele>2554</ele>
        <time>2024-08-14T10:05:43Z</time>
      </trkpt>
      <trkpt lat="44.93184" lon="6.08761">
        <ele>2554.2</ele>
        <time>2024-08-14T10:05:44Z</time>
      </trkpt>
      <trkpt lat="44.93186" lon="6.08759">
        <ele>2554.8</ele>
        <time>2024-08-14T10:05:45Z</time>
      </trkpt>
      <trkpt lat="44.93186" lon="6.08759">
        <ele>2555</ele>
        <time>2024-08-14T10:05:46Z</time>
      </trkpt>
      <trkpt lat="44.93188" lon="6.08756">
        <ele>2555</ele>
        <time>2024-08-14T10:05:47Z</time>
      </trkpt>
      <trkpt lat="44.93188" lon="6.08756">
        <ele>2555.2</ele>
        <time>2024-08-14T10:05:48Z</time>
      </trkpt>
      <trkpt lat="44.93188" lon="6.08756">
        <ele>2555.2</ele>
        <time>2024-08-14T10:05:49Z</time>
      </trkpt>
      <trkpt lat="44.93187" lon="6.08753">
        <ele>2555.4</ele>
        <time>2024-08-14T10:05:50Z</time>
      </trkpt>
      <trkpt lat="44.93187" lon="6.08753">
        <ele>2555.4</ele>
        <time>2024-08-14T10:05:51Z</time>
      </trkpt>
      <trkpt lat="44.93187" lon="6.08753">
        <ele>2555.4</ele>
        <time>2024-08-14T10:05:52Z</time>
      </trkpt>
      <trkpt lat="44.93187" lon="6.08753">
        <ele>2555.6</ele>
        <time>2024-08-14T10:05:53Z</time>
      </trkpt>
      <trkpt lat="44.93189" lon="6.08752">
        <ele>2555.6</ele>
        <time>2024-08-14T10:05:54Z</time>
      </trkpt>
      <trkpt lat="44.93189" lon="6.08752">
        <ele>2555.6</ele>
        <time>2024-08-14T10:05:55Z</time>
      </trkpt>
      <trkpt lat="44.93189" lon="6.08752">
        <ele>2556.2</ele>
        <time>2024-08-14T10:05:56Z</time>
      </trkpt>
      <trkpt lat="44.93189" lon="6.08752">
        <ele>2557</ele>
        <time>2024-08-14T10:05:57Z</time>
      </trkpt>
      <trkpt lat="44.9319" lon="6.08754">
        <ele>2557</ele>
        <time>2024-08-14T10:05:58Z</time>
      </trkpt>
      <trkpt lat="44.9319" lon="6.08754">
        <ele>2557.2</ele>
        <time>2024-08-14T10:05:59Z</time>
      </trkpt>
      <trkpt lat="44.9319" lon="6.08754">
        <ele>2557.6</ele>
        <time>2024-08-14T10:06:00Z</time>
      </trkpt>
      <trkpt lat="44.9319" lon="6.08754">
        <ele>2558</ele>
        <time>2024-08-14T10:06:01Z</time>
      </trkpt>
      <trkpt lat="44.93192" lon="6.08757">
        <ele>2558.2</ele>
        <time>2024-08-14T10:06:02Z</time>
      </trkpt>
      <trkpt lat="44.93192" lon="6.08757">
        <ele>2558.2</ele>
        <time>2024-08-14T10:06:03Z</time>
      </trkpt>
      <trkpt lat="44.93192" lon="6.08757">
        <ele>2558.4</ele>
        <time>2024-08-14T10:06:04Z</time>
      </trkpt>
      <trkpt lat="44.93192" lon="6.08757">
        <ele>2558.6</ele>
        <time>2024-08-14T10:06:05Z</time>
      </trkpt>
      <trkpt lat="44.93193" lon="6.08761">
        <ele>2559</ele>
        <time>2024-08-14T10:06:06Z</time>
      </trkpt>
      <trkpt lat="44.93193" lon="6.08761">
        <ele>2559.6</ele>
        <time>2024-08-14T10:06:07Z</time>
      </trkpt>
      <trkpt lat="44.93193" lon="6.08761">
        <ele>2559.6</ele>
        <time>2024-08-14T10:06:08Z</time>
      </trkpt>
      <trkpt lat="44.93194" lon="6.08763">
        <ele>2559.8</ele>
        <time>2024-08-14T10:06:09Z</time>
      </trkpt>
      <trkpt lat="44.93194" lon="6.08763">
        <ele>2560</ele>
        <time>2024-08-14T10:06:10Z</time>
      </trkpt>
      <trkpt lat="44.93194" lon="6.08763">
        <ele>2560</ele>
        <time>2024-08-14T10:06:11Z</time>
      </trkpt>
      <trkpt lat="44.93194" lon="6.08763">
        <ele>2560</ele>
        <time>2024-08-14T10:06:12Z</time>
      </trkpt>
      <trkpt lat="44.93196" lon="6.0876">
        <ele>2560.4</ele>
        <time>2024-08-14T10:06:13Z</time>
      </trkpt>
      <trkpt lat="44.93196" lon="6.0876">
        <ele>2560.6</ele>
        <time>2024-08-14T10:06:14Z</time>
      </trkpt>
      <trkpt lat="44.93196" lon="6.0876">
        <ele>2560.6</ele>
        <time>2024-08-14T10:06:15Z</time>
      </trkpt>
      <trkpt lat="44.93197" lon="6.08762">
        <ele>2561</ele>
        <time>2024-08-14T10:06:16Z</time>
      </trkpt>
      <trkpt lat="44.93197" lon="6.08762">
        <ele>2561.6</ele>
        <time>2024-08-14T10:06:17Z</time>
      </trkpt>
      <trkpt lat="44.93197" lon="6.08765">
        <ele>2562</ele>
        <time>2024-08-14T10:06:18Z</time>
      </trkpt>
      <trkpt lat="44.93197" lon="6.08765">
        <ele>2562.2</ele>
        <time>2024-08-14T10:06:19Z</time>
      </trkpt>
      <trkpt lat="44.93197" lon="6.08768">
        <ele>2562.4</ele>
        <time>2024-08-14T10:06:20Z</time>
      </trkpt>
      <trkpt lat="44.93197" lon="6.08768">
        <ele>2562.6</ele>
        <time>2024-08-14T10:06:21Z</time>
      </trkpt>
      <trkpt lat="44.93197" lon="6.08768">
        <ele>2563</ele>
        <time>2024-08-14T10:06:22Z</time>
      </trkpt>
      <trkpt lat="44.93197" lon="6.08771">
        <ele>2563.4</ele>
        <time>2024-08-14T10:06:23Z</time>
      </trkpt>
      <trkpt lat="44.93197" lon="6.08771">
        <ele>2563.4</ele>
        <time>2024-08-14T10:06:24Z</time>
      </trkpt>
      <trkpt lat="44.93197" lon="6.08771">
        <ele>2563.6</ele>
        <time>2024-08-14T10:06:25Z</time>
      </trkpt>
      <trkpt lat="44.93196" lon="6.08774">
        <ele>2563.6</ele>
        <time>2024-08-14T10:06:26Z</time>
      </trkpt>
      <trkpt lat="44.93196" lon="6.08774">
        <ele>2563.4</ele>
        <time>2024-08-14T10:06:27Z</time>
      </trkpt>
      <trkpt lat="44.93196" lon="6.08774">
        <ele>2563.4</ele>
        <time>2024-08-14T10:06:28Z</time>
      </trkpt>
      <trkpt lat="44.93197" lon="6.08777">
        <ele>2563.4</ele>
        <time>2024-08-14T10:06:29Z</time>
      </trkpt>
      <trkpt lat="44.93197" lon="6.08777">
        <ele>2563.4</ele>
        <time>2024-08-14T10:06:30Z</time>
      </trkpt>
      <trkpt lat="44.93197" lon="6.08777">
        <ele>2563.8</ele>
        <time>2024-08-14T10:06:31Z</time>
      </trkpt>
      <trkpt lat="44.93195" lon="6.0878">
        <ele>2564</ele>
        <time>2024-08-14T10:06:32Z</time>
      </trkpt>
      <trkpt lat="44.93195" lon="6.0878">
        <ele>2564</ele>
        <time>2024-08-14T10:06:33Z</time>
      </trkpt>
      <trkpt lat="44.93195" lon="6.0878">
        <ele>2564.2</ele>
        <time>2024-08-14T10:06:34Z</time>
      </trkpt>
      <trkpt lat="44.93195" lon="6.08783">
        <ele>2564.8</ele>
        <time>2024-08-14T10:06:35Z</time>
      </trkpt>
      <trkpt lat="44.93195" lon="6.08783">
        <ele>2564.8</ele>
        <time>2024-08-14T10:06:36Z</time>
      </trkpt>
      <trkpt lat="44.93195" lon="6.08783">
        <ele>2565</ele>
        <time>2024-08-14T10:06:37Z</time>
      </trkpt>
      <trkpt lat="44.93195" lon="6.08783">
        <ele>2565.4</ele>
        <time>2024-08-14T10:06:38Z</time>
      </trkpt>
      <trkpt lat="44.93195" lon="6.08783">
        <ele>2565.6</ele>
        <time>2024-08-14T10:06:39Z</time>
      </trkpt>
      <trkpt lat="44.93197" lon="6.08781">
        <ele>2565.6</ele>
        <time>2024-08-14T10:06:40Z</time>
      </trkpt>
      <trkpt lat="44.93197" lon="6.08781">
        <ele>2565.8</ele>
        <time>2024-08-14T10:06:41Z</time>
      </trkpt>
      <trkpt lat="44.93197" lon="6.08781">
        <ele>2565.8</ele>
        <time>2024-08-14T10:06:42Z</time>
      </trkpt>
      <trkpt lat="44.93198" lon="6.08779">
        <ele>2566.4</ele>
        <time>2024-08-14T10:06:43Z</time>
      </trkpt>
      <trkpt lat="44.93198" lon="6.08779">
        <ele>2566.8</ele>
        <time>2024-08-14T10:06:44Z</time>
      </trkpt>
      <trkpt lat="44.93198" lon="6.08779">
        <ele>2566.8</ele>
        <time>2024-08-14T10:06:45Z</time>
      </trkpt>
      <trkpt lat="44.93198" lon="6.08779">
        <ele>2567.2</ele>
        <time>2024-08-14T10:06:46Z</time>
      </trkpt>
      <trkpt lat="44.93198" lon="6.08779">
        <ele>2567.4</ele>
        <time>2024-08-14T10:06:47Z</time>
      </trkpt>
      <trkpt lat="44.93198" lon="6.08779">
        <ele>2567.4</ele>
        <time>2024-08-14T10:06:48Z</time>
      </trkpt>
      <trkpt lat="44.93198" lon="6.08779">
        <ele>2567.6</ele>
        <time>2024-08-14T10:06:49Z</time>
      </trkpt>
      <trkpt lat="44.932" lon="6.08776">
        <ele>2567.8</ele>
        <time>2024-08-14T10:06:50Z</time>
      </trkpt>
      <trkpt lat="44.932" lon="6.08776">
        <ele>2567.8</ele>
        <time>2024-08-14T10:06:51Z</time>
      </trkpt>
      <trkpt lat="44.932" lon="6.08776">
        <ele>2568</ele>
        <time>2024-08-14T10:06:52Z</time>
      </trkpt>
      <trkpt lat="44.932" lon="6.08776">
        <ele>2568.4</ele>
        <time>2024-08-14T10:06:53Z</time>
      </trkpt>
      <trkpt lat="44.932" lon="6.08776">
        <ele>2568.6</ele>
        <time>2024-08-14T10:06:54Z</time>
      </trkpt>
      <trkpt lat="44.93202" lon="6.08772">
        <ele>2568.6</ele>
        <time>2024-08-14T10:06:55Z</time>
      </trkpt>
      <trkpt lat="44.93203" lon="6.0877">
        <ele>2568.6</ele>
        <time>2024-08-14T10:06:56Z</time>
      </trkpt>
      <trkpt lat="44.93204" lon="6.08767">
        <ele>2569</ele>
        <time>2024-08-14T10:06:57Z</time>
      </trkpt>
      <trkpt lat="44.93204" lon="6.08767">
        <ele>2569</ele>
        <time>2024-08-14T10:06:58Z</time>
      </trkpt>
      <trkpt lat="44.93204" lon="6.08763">
        <ele>2569.4</ele>
        <time>2024-08-14T10:06:59Z</time>
      </trkpt>
      <trkpt lat="44.93204" lon="6.08763">
        <ele>2569.4</ele>
        <time>2024-08-14T10:07:00Z</time>
      </trkpt>
      <trkpt lat="44.93205" lon="6.0876">
        <ele>2569.8</ele>
        <time>2024-08-14T10:07:01Z</time>
      </trkpt>
      <trkpt lat="44.93205" lon="6.0876">
        <ele>2570</ele>
        <time>2024-08-14T10:07:02Z</time>
      </trkpt>
      <trkpt lat="44.93205" lon="6.0876">
        <ele>2570</ele>
        <time>2024-08-14T10:07:03Z</time>
      </trkpt>
      <trkpt lat="44.93206" lon="6.08763">
        <ele>2570.6</ele>
        <time>2024-08-14T10:07:04Z</time>
      </trkpt>
      <trkpt lat="44.93206" lon="6.08763">
        <ele>2570.8</ele>
        <time>2024-08-14T10:07:05Z</time>
      </trkpt>
      <trkpt lat="44.93207" lon="6.08766">
        <ele>2571.2</ele>
        <time>2024-08-14T10:07:06Z</time>
      </trkpt>
      <trkpt lat="44.93207" lon="6.08766">
        <ele>2571.2</ele>
        <time>2024-08-14T10:07:07Z</time>
      </trkpt>
      <trkpt lat="44.93208" lon="6.08769">
        <ele>2571.4</ele>
        <time>2024-08-14T10:07:08Z</time>
      </trkpt>
      <trkpt lat="44.93208" lon="6.08769">
        <ele>2571.6</ele>
        <time>2024-08-14T10:07:09Z</time>
      </trkpt>
      <trkpt lat="44.93208" lon="6.08769">
        <ele>2572</ele>
        <time>2024-08-14T10:07:10Z</time>
      </trkpt>
      <trkpt lat="44.93208" lon="6.08769">
        <ele>2572.2</ele>
        <time>2024-08-14T10:07:11Z</time>
      </trkpt>
      <trkpt lat="44.93208" lon="6.08769">
        <ele>2572.4</ele>
        <time>2024-08-14T10:07:12Z</time>
      </trkpt>
      <trkpt lat="44.93208" lon="6.08769">
        <ele>2572.6</ele>
        <time>2024-08-14T10:07:13Z</time>
      </trkpt>
      <trkpt lat="44.93208" lon="6.08769">
        <ele>2572.8</ele>
        <time>2024-08-14T10:07:14Z</time>
      </trkpt>
      <trkpt lat="44.93208" lon="6.08769">
        <ele>2573</ele>
        <time>2024-08-14T10:07:15Z</time>
      </trkpt>
      <trkpt lat="44.93208" lon="6.08769">
        <ele>2573.4</ele>
        <time>2024-08-14T10:07:16Z</time>
      </trkpt>
      <trkpt lat="44.93208" lon="6.08772">
        <ele>2573.4</ele>
        <time>2024-08-14T10:07:17Z</time>
      </trkpt>
      <trkpt lat="44.93208" lon="6.08772">
        <ele>2573.6</ele>
        <time>2024-08-14T10:07:18Z</time>
      </trkpt>
      <trkpt lat="44.9321" lon="6.08775">
        <ele>2574</ele>
        <time>2024-08-14T10:07:19Z</time>
      </trkpt>
      <trkpt lat="44.9321" lon="6.08775">
        <ele>2574.8</ele>
        <time>2024-08-14T10:07:20Z</time>
      </trkpt>
      <trkpt lat="44.9321" lon="6.08778">
        <ele>2575</ele>
        <time>2024-08-14T10:07:21Z</time>
      </trkpt>
      <trkpt lat="44.9321" lon="6.08778">
        <ele>2575</ele>
        <time>2024-08-14T10:07:22Z</time>
      </trkpt>
      <trkpt lat="44.9321" lon="6.08778">
        <ele>2575.4</ele>
        <time>2024-08-14T10:07:23Z</time>
      </trkpt>
      <trkpt lat="44.93211" lon="6.08781">
        <ele>2575.6</ele>
        <time>2024-08-14T10:07:24Z</time>
      </trkpt>
      <trkpt lat="44.93211" lon="6.08781">
        <ele>2575.8</ele>
        <time>2024-08-14T10:07:25Z</time>
      </trkpt>
      <trkpt lat="44.93211" lon="6.08781">
        <ele>2575.8</ele>
        <time>2024-08-14T10:07:26Z</time>
      </trkpt>
      <trkpt lat="44.93211" lon="6.08781">
        <ele>2576.2</ele>
        <time>2024-08-14T10:07:27Z</time>
      </trkpt>
      <trkpt lat="44.93211" lon="6.08784">
        <ele>2576.4</ele>
        <time>2024-08-14T10:07:28Z</time>
      </trkpt>
      <trkpt lat="44.93211" lon="6.08784">
        <ele>2576.6</ele>
        <time>2024-08-14T10:07:29Z</time>
      </trkpt>
      <trkpt lat="44.93211" lon="6.08784">
        <ele>2576.8</ele>
        <time>2024-08-14T10:07:30Z</time>
      </trkpt>
      <trkpt lat="44.93211" lon="6.08786">
        <ele>2577.2</ele>
        <time>2024-08-14T10:07:31Z</time>
      </trkpt>
      <trkpt lat="44.93211" lon="6.08786">
        <ele>2577.2</ele>
        <time>2024-08-14T10:07:32Z</time>
      </trkpt>
      <trkpt lat="44.93211" lon="6.08786">
        <ele>2577.4</ele>
        <time>2024-08-14T10:07:33Z</time>
      </trkpt>
      <trkpt lat="44.9321" lon="6.08789">
        <ele>2577.4</ele>
        <time>2024-08-14T10:07:34Z</time>
      </trkpt>
      <trkpt lat="44.9321" lon="6.08789">
        <ele>2577.6</ele>
        <time>2024-08-14T10:07:35Z</time>
      </trkpt>
      <trkpt lat="44.9321" lon="6.08789">
        <ele>2577.8</ele>
        <time>2024-08-14T10:07:36Z</time>
      </trkpt>
      <trkpt lat="44.9321" lon="6.08792">
        <ele>2578</ele>
        <time>2024-08-14T10:07:37Z</time>
      </trkpt>
      <trkpt lat="44.9321" lon="6.08792">
        <ele>2578.2</ele>
        <time>2024-08-14T10:07:38Z</time>
      </trkpt>
      <trkpt lat="44.9321" lon="6.08792">
        <ele>2578.4</ele>
        <time>2024-08-14T10:07:39Z</time>
      </trkpt>
      <trkpt lat="44.9321" lon="6.08796">
        <ele>2578.6</ele>
        <time>2024-08-14T10:07:40Z</time>
      </trkpt>
      <trkpt lat="44.9321" lon="6.08796">
        <ele>2578.8</ele>
        <time>2024-08-14T10:07:41Z</time>
      </trkpt>
      <trkpt lat="44.93209" lon="6.08798">
        <ele>2578.8</ele>
        <time>2024-08-14T10:07:42Z</time>
      </trkpt>
      <trkpt lat="44.93209" lon="6.08798">
        <ele>2579</ele>
        <time>2024-08-14T10:07:43Z</time>
      </trkpt>
      <trkpt lat="44.93207" lon="6.088">
        <ele>2579.2</ele>
        <time>2024-08-14T10:07:44Z</time>
      </trkpt>
      <trkpt lat="44.93207" lon="6.088">
        <ele>2579.2</ele>
        <time>2024-08-14T10:07:45Z</time>
      </trkpt>
      <trkpt lat="44.93207" lon="6.088">
        <ele>2579.4</ele>
        <time>2024-08-14T10:07:46Z</time>
      </trkpt>
      <trkpt lat="44.93207" lon="6.088">
        <ele>2579.4</ele>
        <time>2024-08-14T10:07:47Z</time>
      </trkpt>
      <trkpt lat="44.93207" lon="6.088">
        <ele>2579.6</ele>
        <time>2024-08-14T10:07:48Z</time>
      </trkpt>
      <trkpt lat="44.93207" lon="6.088">
        <ele>2580</ele>
        <time>2024-08-14T10:07:49Z</time>
      </trkpt>
      <trkpt lat="44.9321" lon="6.088">
        <ele>2580.2</ele>
        <time>2024-08-14T10:07:50Z</time>
      </trkpt>
      <trkpt lat="44.9321" lon="6.088">
        <ele>2580.2</ele>
        <time>2024-08-14T10:07:51Z</time>
      </trkpt>
      <trkpt lat="44.9321" lon="6.088">
        <ele>2581</ele>
        <time>2024-08-14T10:07:52Z</time>
      </trkpt>
      <trkpt lat="44.9321" lon="6.088">
        <ele>2581</ele>
        <time>2024-08-14T10:07:53Z</time>
      </trkpt>
      <trkpt lat="44.93211" lon="6.08797">
        <ele>2581.2</ele>
        <time>2024-08-14T10:07:54Z</time>
      </trkpt>
      <trkpt lat="44.93211" lon="6.08797">
        <ele>2581.8</ele>
        <time>2024-08-14T10:07:55Z</time>
      </trkpt>
      <trkpt lat="44.93211" lon="6.08797">
        <ele>2582.2</ele>
        <time>2024-08-14T10:07:56Z</time>
      </trkpt>
      <trkpt lat="44.93211" lon="6.08797">
        <ele>2582.2</ele>
        <time>2024-08-14T10:07:57Z</time>
      </trkpt>
      <trkpt lat="44.93211" lon="6.08797">
        <ele>2582.2</ele>
        <time>2024-08-14T10:07:58Z</time>
      </trkpt>
      <trkpt lat="44.93211" lon="6.08797">
        <ele>2582.8</ele>
        <time>2024-08-14T10:07:59Z</time>
      </trkpt>
      <trkpt lat="44.93211" lon="6.08797">
        <ele>2583.2</ele>
        <time>2024-08-14T10:08:00Z</time>
      </trkpt>
      <trkpt lat="44.93211" lon="6.08797">
        <ele>2583.4</ele>
        <time>2024-08-14T10:08:01Z</time>
      </trkpt>
      <trkpt lat="44.93211" lon="6.08797">
        <ele>2583.4</ele>
        <time>2024-08-14T10:08:02Z</time>
      </trkpt>
      <trkpt lat="44.93211" lon="6.08797">
        <ele>2583.4</ele>
        <time>2024-08-14T10:08:03Z</time>
      </trkpt>
      <trkpt lat="44.93211" lon="6.08797">
        <ele>2583.6</ele>
        <time>2024-08-14T10:08:04Z</time>
      </trkpt>
      <trkpt lat="44.93213" lon="6.08795">
        <ele>2583.8</ele>
        <time>2024-08-14T10:08:05Z</time>
      </trkpt>
      <trkpt lat="44.93213" lon="6.08795">
        <ele>2583.8</ele>
        <time>2024-08-14T10:08:06Z</time>
      </trkpt>
      <trkpt lat="44.93216" lon="6.08793">
        <ele>2584.6</ele>
        <time>2024-08-14T10:08:07Z</time>
      </trkpt>
      <trkpt lat="44.93216" lon="6.08793">
        <ele>2584.8</ele>
        <time>2024-08-14T10:08:08Z</time>
      </trkpt>
      <trkpt lat="44.93218" lon="6.08791">
        <ele>2585</ele>
        <time>2024-08-14T10:08:09Z</time>
      </trkpt>
      <trkpt lat="44.93218" lon="6.08791">
        <ele>2585.2</ele>
        <time>2024-08-14T10:08:10Z</time>
      </trkpt>
      <trkpt lat="44.93218" lon="6.08791">
        <ele>2585.2</ele>
        <time>2024-08-14T10:08:11Z</time>
      </trkpt>
      <trkpt lat="44.93219" lon="6.08788">
        <ele>2585.8</ele>
        <time>2024-08-14T10:08:12Z</time>
      </trkpt>
      <trkpt lat="44.93219" lon="6.08788">
        <ele>2586</ele>
        <time>2024-08-14T10:08:13Z</time>
      </trkpt>
      <trkpt lat="44.93219" lon="6.08785">
        <ele>2586</ele>
        <time>2024-08-14T10:08:14Z</time>
      </trkpt>
      <trkpt lat="44.93219" lon="6.08785">
        <ele>2586</ele>
        <time>2024-08-14T10:08:15Z</time>
      </trkpt>
      <trkpt lat="44.93221" lon="6.08783">
        <ele>2585.6</ele>
        <time>2024-08-14T10:08:16Z</time>
      </trkpt>
      <trkpt lat="44.93221" lon="6.08783">
        <ele>2585.6</ele>
        <time>2024-08-14T10:08:17Z</time>
      </trkpt>
      <trkpt lat="44.93221" lon="6.08783">
        <ele>2586</ele>
        <time>2024-08-14T10:08:18Z</time>
      </trkpt>
      <trkpt lat="44.93221" lon="6.08783">
        <ele>2586.6</ele>
        <time>2024-08-14T10:08:19Z</time>
      </trkpt>
      <trkpt lat="44.93222" lon="6.08785">
        <ele>2587</ele>
        <time>2024-08-14T10:08:20Z</time>
      </trkpt>
      <trkpt lat="44.93222" lon="6.08785">
        <ele>2587.2</ele>
        <time>2024-08-14T10:08:21Z</time>
      </trkpt>
      <trkpt lat="44.93222" lon="6.08785">
        <ele>2587.4</ele>
        <time>2024-08-14T10:08:22Z</time>
      </trkpt>
      <trkpt lat="44.93222" lon="6.08785">
        <ele>2587.8</ele>
        <time>2024-08-14T10:08:23Z</time>
      </trkpt>
      <trkpt lat="44.93222" lon="6.08789">
        <ele>2587.8</ele>
        <time>2024-08-14T10:08:24Z</time>
      </trkpt>
      <trkpt lat="44.93222" lon="6.08789">
        <ele>2588.2</ele>
        <time>2024-08-14T10:08:25Z</time>
      </trkpt>
      <trkpt lat="44.93222" lon="6.08789">
        <ele>2588.2</ele>
        <time>2024-08-14T10:08:26Z</time>
      </trkpt>
      <trkpt lat="44.93222" lon="6.08789">
        <ele>2588.2</ele>
        <time>2024-08-14T10:08:27Z</time>
      </trkpt>
      <trkpt lat="44.93222" lon="6.08789">
        <ele>2588.4</ele>
        <time>2024-08-14T10:08:28Z</time>
      </trkpt>
      <trkpt lat="44.93222" lon="6.08789">
        <ele>2588.6</ele>
        <time>2024-08-14T10:08:29Z</time>
      </trkpt>
      <trkpt lat="44.93222" lon="6.08789">
        <ele>2589.2</ele>
        <time>2024-08-14T10:08:30Z</time>
      </trkpt>
      <trkpt lat="44.93222" lon="6.08789">
        <ele>2589.4</ele>
        <time>2024-08-14T10:08:31Z</time>
      </trkpt>
      <trkpt lat="44.93222" lon="6.08792">
        <ele>2589.4</ele>
        <time>2024-08-14T10:08:32Z</time>
      </trkpt>
      <trkpt lat="44.93222" lon="6.08792">
        <ele>2589.6</ele>
        <time>2024-08-14T10:08:33Z</time>
      </trkpt>
      <trkpt lat="44.93222" lon="6.08792">
        <ele>2589.8</ele>
        <time>2024-08-14T10:08:34Z</time>
      </trkpt>
      <trkpt lat="44.93222" lon="6.08792">
        <ele>2590</ele>
        <time>2024-08-14T10:08:35Z</time>
      </trkpt>
      <trkpt lat="44.93222" lon="6.08792">
        <ele>2590.6</ele>
        <time>2024-08-14T10:08:36Z</time>
      </trkpt>
      <trkpt lat="44.93222" lon="6.08792">
        <ele>2590.8</ele>
        <time>2024-08-14T10:08:37Z</time>
      </trkpt>
      <trkpt lat="44.93222" lon="6.08792">
        <ele>2591</ele>
        <time>2024-08-14T10:08:38Z</time>
      </trkpt>
      <trkpt lat="44.93222" lon="6.08792">
        <ele>2591</ele>
        <time>2024-08-14T10:08:39Z</time>
      </trkpt>
      <trkpt lat="44.93222" lon="6.08792">
        <ele>2591.2</ele>
        <time>2024-08-14T10:08:40Z</time>
      </trkpt>
      <trkpt lat="44.93224" lon="6.08789">
        <ele>2591.2</ele>
        <time>2024-08-14T10:08:41Z</time>
      </trkpt>
      <trkpt lat="44.93224" lon="6.08789">
        <ele>2591.4</ele>
        <time>2024-08-14T10:08:42Z</time>
      </trkpt>
      <trkpt lat="44.93224" lon="6.08789">
        <ele>2591.8</ele>
        <time>2024-08-14T10:08:43Z</time>
      </trkpt>
      <trkpt lat="44.93224" lon="6.08789">
        <ele>2592.4</ele>
        <time>2024-08-14T10:08:44Z</time>
      </trkpt>
      <trkpt lat="44.93224" lon="6.08789">
        <ele>2592.6</ele>
        <time>2024-08-14T10:08:45Z</time>
      </trkpt>
      <trkpt lat="44.93225" lon="6.08786">
        <ele>2593.2</ele>
        <time>2024-08-14T10:08:46Z</time>
      </trkpt>
      <trkpt lat="44.93225" lon="6.08786">
        <ele>2593.4</ele>
        <time>2024-08-14T10:08:47Z</time>
      </trkpt>
      <trkpt lat="44.93227" lon="6.08785">
        <ele>2593.6</ele>
        <time>2024-08-14T10:08:48Z</time>
      </trkpt>
      <trkpt lat="44.93227" lon="6.08785">
        <ele>2594</ele>
        <time>2024-08-14T10:08:49Z</time>
      </trkpt>
      <trkpt lat="44.93228" lon="6.08787">
        <ele>2594</ele>
        <time>2024-08-14T10:08:50Z</time>
      </trkpt>
      <trkpt lat="44.93228" lon="6.08787">
        <ele>2594.2</ele>
        <time>2024-08-14T10:08:51Z</time>
      </trkpt>
      <trkpt lat="44.9323" lon="6.0879">
        <ele>2594.2</ele>
        <time>2024-08-14T10:08:52Z</time>
      </trkpt>
      <trkpt lat="44.9323" lon="6.0879">
        <ele>2594.6</ele>
        <time>2024-08-14T10:08:53Z</time>
      </trkpt>
      <trkpt lat="44.9323" lon="6.0879">
        <ele>2594.6</ele>
        <time>2024-08-14T10:08:54Z</time>
      </trkpt>
      <trkpt lat="44.9323" lon="6.0879">
        <ele>2595</ele>
        <time>2024-08-14T10:08:55Z</time>
      </trkpt>
      <trkpt lat="44.9323" lon="6.0879">
        <ele>2595</ele>
        <time>2024-08-14T10:08:56Z</time>
      </trkpt>
      <trkpt lat="44.9323" lon="6.0879">
        <ele>2595</ele>
        <time>2024-08-14T10:08:57Z</time>
      </trkpt>
      <trkpt lat="44.9323" lon="6.0879">
        <ele>2595</ele>
        <time>2024-08-14T10:08:58Z</time>
      </trkpt>
      <trkpt lat="44.9323" lon="6.0879">
        <ele>2595.2</ele>
        <time>2024-08-14T10:08:59Z</time>
      </trkpt>
      <trkpt lat="44.9323" lon="6.0879">
        <ele>2595.2</ele>
        <time>2024-08-14T10:09:00Z</time>
      </trkpt>
      <trkpt lat="44.9323" lon="6.0879">
        <ele>2595.8</ele>
        <time>2024-08-14T10:09:01Z</time>
      </trkpt>
      <trkpt lat="44.9323" lon="6.0879">
        <ele>2596.2</ele>
        <time>2024-08-14T10:09:02Z</time>
      </trkpt>
      <trkpt lat="44.9323" lon="6.0879">
        <ele>2596.2</ele>
        <time>2024-08-14T10:09:03Z</time>
      </trkpt>
      <trkpt lat="44.9323" lon="6.0879">
        <ele>2596.6</ele>
        <time>2024-08-14T10:09:04Z</time>
      </trkpt>
      <trkpt lat="44.9323" lon="6.0879">
        <ele>2596.8</ele>
        <time>2024-08-14T10:09:05Z</time>
      </trkpt>
      <trkpt lat="44.93231" lon="6.08787">
        <ele>2597</ele>
        <time>2024-08-14T10:09:06Z</time>
      </trkpt>
      <trkpt lat="44.93231" lon="6.08787">
        <ele>2597.4</ele>
        <time>2024-08-14T10:09:07Z</time>
      </trkpt>
      <trkpt lat="44.93231" lon="6.08787">
        <ele>2597.6</ele>
        <time>2024-08-14T10:09:08Z</time>
      </trkpt>
      <trkpt lat="44.93231" lon="6.08787">
        <ele>2598.2</ele>
        <time>2024-08-14T10:09:09Z</time>
      </trkpt>
      <trkpt lat="44.93231" lon="6.08787">
        <ele>2598.2</ele>
        <time>2024-08-14T10:09:10Z</time>
      </trkpt>
      <trkpt lat="44.93231" lon="6.08787">
        <ele>2598.2</ele>
        <time>2024-08-14T10:09:11Z</time>
      </trkpt>
      <trkpt lat="44.93231" lon="6.08787">
        <ele>2598.8</ele>
        <time>2024-08-14T10:09:12Z</time>
      </trkpt>
      <trkpt lat="44.93233" lon="6.08788">
        <ele>2599</ele>
        <time>2024-08-14T10:09:13Z</time>
      </trkpt>
      <trkpt lat="44.93233" lon="6.08788">
        <ele>2599</ele>
        <time>2024-08-14T10:09:14Z</time>
      </trkpt>
      <trkpt lat="44.93235" lon="6.08791">
        <ele>2599.4</ele>
        <time>2024-08-14T10:09:15Z</time>
      </trkpt>
      <trkpt lat="44.93235" lon="6.08791">
        <ele>2599.6</ele>
        <time>2024-08-14T10:09:16Z</time>
      </trkpt>
      <trkpt lat="44.93236" lon="6.08795">
        <ele>2600</ele>
        <time>2024-08-14T10:09:17Z</time>
      </trkpt>
      <trkpt lat="44.93236" lon="6.08795">
        <ele>2600.4</ele>
        <time>2024-08-14T10:09:18Z</time>
      </trkpt>
      <trkpt lat="44.93236" lon="6.08795">
        <ele>2600.6</ele>
        <time>2024-08-14T10:09:19Z</time>
      </trkpt>
      <trkpt lat="44.93236" lon="6.08795">
        <ele>2600.8</ele>
        <time>2024-08-14T10:09:20Z</time>
      </trkpt>
      <trkpt lat="44.93236" lon="6.08795">
        <ele>2601</ele>
        <time>2024-08-14T10:09:21Z</time>
      </trkpt>
      <trkpt lat="44.93236" lon="6.08795">
        <ele>2601.2</ele>
        <time>2024-08-14T10:09:22Z</time>
      </trkpt>
      <trkpt lat="44.93236" lon="6.08795">
        <ele>2601.4</ele>
        <time>2024-08-14T10:09:23Z</time>
      </trkpt>
      <trkpt lat="44.93236" lon="6.08795">
        <ele>2601.4</ele>
        <time>2024-08-14T10:09:24Z</time>
      </trkpt>
      <trkpt lat="44.93236" lon="6.08795">
        <ele>2601.4</ele>
        <time>2024-08-14T10:09:25Z</time>
      </trkpt>
      <trkpt lat="44.93236" lon="6.08795">
        <ele>2601.4</ele>
        <time>2024-08-14T10:09:26Z</time>
      </trkpt>
      <trkpt lat="44.93236" lon="6.08795">
        <ele>2601.6</ele>
        <time>2024-08-14T10:09:27Z</time>
      </trkpt>
      <trkpt lat="44.93238" lon="6.08793">
        <ele>2601.8</ele>
        <time>2024-08-14T10:09:28Z</time>
      </trkpt>
      <trkpt lat="44.93238" lon="6.08793">
        <ele>2601.8</ele>
        <time>2024-08-14T10:09:29Z</time>
      </trkpt>
      <trkpt lat="44.93238" lon="6.0879">
        <ele>2602.2</ele>
        <time>2024-08-14T10:09:30Z</time>
      </trkpt>
      <trkpt lat="44.93238" lon="6.0879">
        <ele>2602.6</ele>
        <time>2024-08-14T10:09:31Z</time>
      </trkpt>
      <trkpt lat="44.93238" lon="6.0879">
        <ele>2602.6</ele>
        <time>2024-08-14T10:09:32Z</time>
      </trkpt>
      <trkpt lat="44.93238" lon="6.08787">
        <ele>2602.6</ele>
        <time>2024-08-14T10:09:33Z</time>
      </trkpt>
      <trkpt lat="44.93238" lon="6.08787">
        <ele>2602.6</ele>
        <time>2024-08-14T10:09:34Z</time>
      </trkpt>
      <trkpt lat="44.93238" lon="6.08784">
        <ele>2602.8</ele>
        <time>2024-08-14T10:09:35Z</time>
      </trkpt>
      <trkpt lat="44.93238" lon="6.08784">
        <ele>2602.8</ele>
        <time>2024-08-14T10:09:36Z</time>
      </trkpt>
      <trkpt lat="44.93239" lon="6.08781">
        <ele>2602.8</ele>
        <time>2024-08-14T10:09:37Z</time>
      </trkpt>
      <trkpt lat="44.93239" lon="6.08781">
        <ele>2603.4</ele>
        <time>2024-08-14T10:09:38Z</time>
      </trkpt>
      <trkpt lat="44.9324" lon="6.08779">
        <ele>2603.4</ele>
        <time>2024-08-14T10:09:39Z</time>
      </trkpt>
      <trkpt lat="44.9324" lon="6.08779">
        <ele>2603.8</ele>
        <time>2024-08-14T10:09:40Z</time>
      </trkpt>
      <trkpt lat="44.9324" lon="6.08779">
        <ele>2604.2</ele>
        <time>2024-08-14T10:09:41Z</time>
      </trkpt>
      <trkpt lat="44.93242" lon="6.08778">
        <ele>2604.2</ele>
        <time>2024-08-14T10:09:42Z</time>
      </trkpt>
      <trkpt lat="44.93242" lon="6.08778">
        <ele>2604.4</ele>
        <time>2024-08-14T10:09:43Z</time>
      </trkpt>
      <trkpt lat="44.93242" lon="6.08778">
        <ele>2605</ele>
        <time>2024-08-14T10:09:44Z</time>
      </trkpt>
      <trkpt lat="44.93244" lon="6.08775">
        <ele>2605</ele>
        <time>2024-08-14T10:09:45Z</time>
      </trkpt>
      <trkpt lat="44.93244" lon="6.08775">
        <ele>2605.4</ele>
        <time>2024-08-14T10:09:46Z</time>
      </trkpt>
      <trkpt lat="44.93244" lon="6.08775">
        <ele>2605.4</ele>
        <time>2024-08-14T10:09:47Z</time>
      </trkpt>
      <trkpt lat="44.93244" lon="6.08775">
        <ele>2605.8</ele>
        <time>2024-08-14T10:09:48Z</time>
      </trkpt>
      <trkpt lat="44.93245" lon="6.08778">
        <ele>2606</ele>
        <time>2024-08-14T10:09:49Z</time>
      </trkpt>
      <trkpt lat="44.93245" lon="6.08778">
        <ele>2606.6</ele>
        <time>2024-08-14T10:09:50Z</time>
      </trkpt>
      <trkpt lat="44.93244" lon="6.08781">
        <ele>2606.8</ele>
        <time>2024-08-14T10:09:51Z</time>
      </trkpt>
      <trkpt lat="44.93244" lon="6.08781">
        <ele>2606.8</ele>
        <time>2024-08-14T10:09:52Z</time>
      </trkpt>
      <trkpt lat="44.93244" lon="6.08781">
        <ele>2607</ele>
        <time>2024-08-14T10:09:53Z</time>
      </trkpt>
      <trkpt lat="44.93245" lon="6.08785">
        <ele>2607.2</ele>
        <time>2024-08-14T10:09:54Z</time>
      </trkpt>
      <trkpt lat="44.93245" lon="6.08785">
        <ele>2607.4</ele>
        <time>2024-08-14T10:09:55Z</time>
      </trkpt>
      <trkpt lat="44.93245" lon="6.08787">
        <ele>2607.4</ele>
        <time>2024-08-14T10:09:56Z</time>
      </trkpt>
      <trkpt lat="44.93245" lon="6.08787">
        <ele>2607.4</ele>
        <time>2024-08-14T10:09:57Z</time>
      </trkpt>
      <trkpt lat="44.93245" lon="6.08787">
        <ele>2608</ele>
        <time>2024-08-14T10:09:58Z</time>
      </trkpt>
      <trkpt lat="44.93245" lon="6.08787">
        <ele>2608.2</ele>
        <time>2024-08-14T10:09:59Z</time>
      </trkpt>
      <trkpt lat="44.93245" lon="6.08787">
        <ele>2608.4</ele>
        <time>2024-08-14T10:10:00Z</time>
      </trkpt>
      <trkpt lat="44.93246" lon="6.0879">
        <ele>2608.4</ele>
        <time>2024-08-14T10:10:01Z</time>
      </trkpt>
      <trkpt lat="44.93246" lon="6.0879">
        <ele>2608.8</ele>
        <time>2024-08-14T10:10:02Z</time>
      </trkpt>
      <trkpt lat="44.93246" lon="6.0879">
        <ele>2608.8</ele>
        <time>2024-08-14T10:10:03Z</time>
      </trkpt>
      <trkpt lat="44.93247" lon="6.08794">
        <ele>2609</ele>
        <time>2024-08-14T10:10:04Z</time>
      </trkpt>
      <trkpt lat="44.93247" lon="6.08794">
        <ele>2609.4</ele>
        <time>2024-08-14T10:10:05Z</time>
      </trkpt>
      <trkpt lat="44.93248" lon="6.08796">
        <ele>2609.8</ele>
        <time>2024-08-14T10:10:06Z</time>
      </trkpt>
      <trkpt lat="44.93248" lon="6.08796">
        <ele>2609.8</ele>
        <time>2024-08-14T10:10:07Z</time>
      </trkpt>
      <trkpt lat="44.93248" lon="6.08796">
        <ele>2610</ele>
        <time>2024-08-14T10:10:08Z</time>
      </trkpt>
      <trkpt lat="44.93248" lon="6.08796">
        <ele>2610.6</ele>
        <time>2024-08-14T10:10:09Z</time>
      </trkpt>
      <trkpt lat="44.9325" lon="6.08797">
        <ele>2610.8</ele>
        <time>2024-08-14T10:10:10Z</time>
      </trkpt>
      <trkpt lat="44.9325" lon="6.08797">
        <ele>2610.8</ele>
        <time>2024-08-14T10:10:11Z</time>
      </trkpt>
      <trkpt lat="44.9325" lon="6.08797">
        <ele>2610.8</ele>
        <time>2024-08-14T10:10:12Z</time>
      </trkpt>
      <trkpt lat="44.9325" lon="6.08794">
        <ele>2611</ele>
        <time>2024-08-14T10:10:13Z</time>
      </trkpt>
      <trkpt lat="44.9325" lon="6.08794">
        <ele>2611.4</ele>
        <time>2024-08-14T10:10:14Z</time>
      </trkpt>
      <trkpt lat="44.9325" lon="6.08794">
        <ele>2611.6</ele>
        <time>2024-08-14T10:10:15Z</time>
      </trkpt>
      <trkpt lat="44.93251" lon="6.08791">
        <ele>2611.8</ele>
        <time>2024-08-14T10:10:16Z</time>
      </trkpt>
      <trkpt lat="44.93251" lon="6.08791">
        <ele>2612</ele>
        <time>2024-08-14T10:10:17Z</time>
      </trkpt>
      <trkpt lat="44.93251" lon="6.08791">
        <ele>2612.2</ele>
        <time>2024-08-14T10:10:18Z</time>
      </trkpt>
      <trkpt lat="44.93251" lon="6.08791">
        <ele>2612.4</ele>
        <time>2024-08-14T10:10:19Z</time>
      </trkpt>
      <trkpt lat="44.93251" lon="6.08791">
        <ele>2612.4</ele>
        <time>2024-08-14T10:10:20Z</time>
      </trkpt>
      <trkpt lat="44.93251" lon="6.08791">
        <ele>2612.4</ele>
        <time>2024-08-14T10:10:21Z</time>
      </trkpt>
      <trkpt lat="44.93251" lon="6.08791">
        <ele>2612.4</ele>
        <time>2024-08-14T10:10:22Z</time>
      </trkpt>
      <trkpt lat="44.93252" lon="6.08788">
        <ele>2612.6</ele>
        <time>2024-08-14T10:10:23Z</time>
      </trkpt>
      <trkpt lat="44.93252" lon="6.08788">
        <ele>2612.8</ele>
        <time>2024-08-14T10:10:24Z</time>
      </trkpt>
      <trkpt lat="44.93253" lon="6.08784">
        <ele>2613.2</ele>
        <time>2024-08-14T10:10:25Z</time>
      </trkpt>
      <trkpt lat="44.93253" lon="6.08784">
        <ele>2613.4</ele>
        <time>2024-08-14T10:10:26Z</time>
      </trkpt>
      <trkpt lat="44.93254" lon="6.0878">
        <ele>2613.6</ele>
        <time>2024-08-14T10:10:27Z</time>
      </trkpt>
      <trkpt lat="44.93254" lon="6.0878">
        <ele>2614</ele>
        <time>2024-08-14T10:10:28Z</time>
      </trkpt>
      <trkpt lat="44.93255" lon="6.08777">
        <ele>2614</ele>
        <time>2024-08-14T10:10:29Z</time>
      </trkpt>
      <trkpt lat="44.93255" lon="6.08777">
        <ele>2614.2</ele>
        <time>2024-08-14T10:10:30Z</time>
      </trkpt>
      <trkpt lat="44.93256" lon="6.08775">
        <ele>2614.2</ele>
        <time>2024-08-14T10:10:31Z</time>
      </trkpt>
      <trkpt lat="44.93256" lon="6.08775">
        <ele>2614.8</ele>
        <time>2024-08-14T10:10:32Z</time>
      </trkpt>
      <trkpt lat="44.93256" lon="6.08775">
        <ele>2615</ele>
        <time>2024-08-14T10:10:33Z</time>
      </trkpt>
      <trkpt lat="44.93258" lon="6.08772">
        <ele>2615</ele>
        <time>2024-08-14T10:10:34Z</time>
      </trkpt>
      <trkpt lat="44.93258" lon="6.08772">
        <ele>2615.4</ele>
        <time>2024-08-14T10:10:35Z</time>
      </trkpt>
      <trkpt lat="44.93258" lon="6.08772">
        <ele>2615.4</ele>
        <time>2024-08-14T10:10:36Z</time>
      </trkpt>
      <trkpt lat="44.9326" lon="6.08771">
        <ele>2615.6</ele>
        <time>2024-08-14T10:10:37Z</time>
      </trkpt>
      <trkpt lat="44.9326" lon="6.08771">
        <ele>2615.8</ele>
        <time>2024-08-14T10:10:38Z</time>
      </trkpt>
      <trkpt lat="44.9326" lon="6.08771">
        <ele>2616</ele>
        <time>2024-08-14T10:10:39Z</time>
      </trkpt>
      <trkpt lat="44.9326" lon="6.08773">
        <ele>2616.4</ele>
        <time>2024-08-14T10:10:40Z</time>
      </trkpt>
      <trkpt lat="44.9326" lon="6.08773">
        <ele>2616.4</ele>
        <time>2024-08-14T10:10:41Z</time>
      </trkpt>
      <trkpt lat="44.9326" lon="6.08776">
        <ele>2617</ele>
        <time>2024-08-14T10:10:42Z</time>
      </trkpt>
      <trkpt lat="44.9326" lon="6.08776">
        <ele>2617.6</ele>
        <time>2024-08-14T10:10:43Z</time>
      </trkpt>
      <trkpt lat="44.9326" lon="6.08779">
        <ele>2617.8</ele>
        <time>2024-08-14T10:10:44Z</time>
      </trkpt>
      <trkpt lat="44.9326" lon="6.08779">
        <ele>2618</ele>
        <time>2024-08-14T10:10:45Z</time>
      </trkpt>
      <trkpt lat="44.9326" lon="6.08782">
        <ele>2618</ele>
        <time>2024-08-14T10:10:46Z</time>
      </trkpt>
      <trkpt lat="44.9326" lon="6.08782">
        <ele>2618.2</ele>
        <time>2024-08-14T10:10:47Z</time>
      </trkpt>
      <trkpt lat="44.93259" lon="6.08785">
        <ele>2618.4</ele>
        <time>2024-08-14T10:10:48Z</time>
      </trkpt>
      <trkpt lat="44.93259" lon="6.08785">
        <ele>2618.6</ele>
        <time>2024-08-14T10:10:49Z</time>
      </trkpt>
      <trkpt lat="44.93259" lon="6.08788">
        <ele>2618.8</ele>
        <time>2024-08-14T10:10:50Z</time>
      </trkpt>
      <trkpt lat="44.93259" lon="6.08788">
        <ele>2618.8</ele>
        <time>2024-08-14T10:10:51Z</time>
      </trkpt>
      <trkpt lat="44.93258" lon="6.08791">
        <ele>2618.8</ele>
        <time>2024-08-14T10:10:52Z</time>
      </trkpt>
      <trkpt lat="44.93258" lon="6.08791">
        <ele>2618.8</ele>
        <time>2024-08-14T10:10:53Z</time>
      </trkpt>
      <trkpt lat="44.93258" lon="6.08791">
        <ele>2619</ele>
        <time>2024-08-14T10:10:54Z</time>
      </trkpt>
      <trkpt lat="44.93259" lon="6.08794">
        <ele>2619.2</ele>
        <time>2024-08-14T10:10:55Z</time>
      </trkpt>
      <trkpt lat="44.93259" lon="6.08794">
        <ele>2619.2</ele>
        <time>2024-08-14T10:10:56Z</time>
      </trkpt>
      <trkpt lat="44.93259" lon="6.08794">
        <ele>2619.2</ele>
        <time>2024-08-14T10:10:57Z</time>
      </trkpt>
      <trkpt lat="44.9326" lon="6.08796">
        <ele>2619.8</ele>
        <time>2024-08-14T10:10:58Z</time>
      </trkpt>
      <trkpt lat="44.9326" lon="6.08796">
        <ele>2620</ele>
        <time>2024-08-14T10:10:59Z</time>
      </trkpt>
      <trkpt lat="44.93261" lon="6.08799">
        <ele>2620</ele>
        <time>2024-08-14T10:11:00Z</time>
      </trkpt>
      <trkpt lat="44.93261" lon="6.08799">
        <ele>2620.2</ele>
        <time>2024-08-14T10:11:01Z</time>
      </trkpt>
      <trkpt lat="44.93261" lon="6.08799">
        <ele>2620.8</ele>
        <time>2024-08-14T10:11:02Z</time>
      </trkpt>
      <trkpt lat="44.93261" lon="6.08802">
        <ele>2620.8</ele>
        <time>2024-08-14T10:11:03Z</time>
      </trkpt>
      <trkpt lat="44.93261" lon="6.08802">
        <ele>2621</ele>
        <time>2024-08-14T10:11:04Z</time>
      </trkpt>
      <trkpt lat="44.93261" lon="6.08802">
        <ele>2621.2</ele>
        <time>2024-08-14T10:11:05Z</time>
      </trkpt>
      <trkpt lat="44.93262" lon="6.08805">
        <ele>2621.8</ele>
        <time>2024-08-14T10:11:06Z</time>
      </trkpt>
      <trkpt lat="44.93262" lon="6.08805">
        <ele>2621.8</ele>
        <time>2024-08-14T10:11:07Z</time>
      </trkpt>
      <trkpt lat="44.93262" lon="6.08805">
        <ele>2622</ele>
        <time>2024-08-14T10:11:08Z</time>
      </trkpt>
      <trkpt lat="44.93264" lon="6.08807">
        <ele>2622.4</ele>
        <time>2024-08-14T10:11:09Z</time>
      </trkpt>
      <trkpt lat="44.93264" lon="6.08807">
        <ele>2623</ele>
        <time>2024-08-14T10:11:10Z</time>
      </trkpt>
      <trkpt lat="44.93264" lon="6.08807">
        <ele>2623</ele>
        <time>2024-08-14T10:11:11Z</time>
      </trkpt>
      <trkpt lat="44.93266" lon="6.0881">
        <ele>2623.2</ele>
        <time>2024-08-14T10:11:12Z</time>
      </trkpt>
      <trkpt lat="44.93266" lon="6.0881">
        <ele>2623.6</ele>
        <time>2024-08-14T10:11:13Z</time>
      </trkpt>
      <trkpt lat="44.93266" lon="6.0881">
        <ele>2624</ele>
        <time>2024-08-14T10:11:14Z</time>
      </trkpt>
      <trkpt lat="44.93267" lon="6.08813">
        <ele>2624.4</ele>
        <time>2024-08-14T10:11:15Z</time>
      </trkpt>
      <trkpt lat="44.93267" lon="6.08813">
        <ele>2624.8</ele>
        <time>2024-08-14T10:11:16Z</time>
      </trkpt>
      <trkpt lat="44.93267" lon="6.08816">
        <ele>2625</ele>
        <time>2024-08-14T10:11:17Z</time>
      </trkpt>
      <trkpt lat="44.93267" lon="6.08816">
        <ele>2625.2</ele>
        <time>2024-08-14T10:11:18Z</time>
      </trkpt>
      <trkpt lat="44.93267" lon="6.08816">
        <ele>2625.2</ele>
        <time>2024-08-14T10:11:19Z</time>
      </trkpt>
      <trkpt lat="44.93267" lon="6.08816">
        <ele>2625.6</ele>
        <time>2024-08-14T10:11:20Z</time>
      </trkpt>
      <trkpt lat="44.93268" lon="6.08819">
        <ele>2625.8</ele>
        <time>2024-08-14T10:11:21Z</time>
      </trkpt>
      <trkpt lat="44.93268" lon="6.08819">
        <ele>2626.2</ele>
        <time>2024-08-14T10:11:22Z</time>
      </trkpt>
      <trkpt lat="44.93268" lon="6.08819">
        <ele>2626.4</ele>
        <time>2024-08-14T10:11:23Z</time>
      </trkpt>
      <trkpt lat="44.93268" lon="6.08819">
        <ele>2626.4</ele>
        <time>2024-08-14T10:11:24Z</time>
      </trkpt>
      <trkpt lat="44.93268" lon="6.08819">
        <ele>2626.4</ele>
        <time>2024-08-14T10:11:25Z</time>
      </trkpt>
      <trkpt lat="44.93268" lon="6.08819">
        <ele>2626.4</ele>
        <time>2024-08-14T10:11:26Z</time>
      </trkpt>
      <trkpt lat="44.93268" lon="6.08819">
        <ele>2626.4</ele>
        <time>2024-08-14T10:11:27Z</time>
      </trkpt>
      <trkpt lat="44.93268" lon="6.08819">
        <ele>2626.4</ele>
        <time>2024-08-14T10:11:28Z</time>
      </trkpt>
      <trkpt lat="44.93268" lon="6.08819">
        <ele>2626.4</ele>
        <time>2024-08-14T10:11:29Z</time>
      </trkpt>
      <trkpt lat="44.93268" lon="6.08819">
        <ele>2626.4</ele>
        <time>2024-08-14T10:11:30Z</time>
      </trkpt>
      <trkpt lat="44.93268" lon="6.08819">
        <ele>2626.4</ele>
        <time>2024-08-14T10:11:31Z</time>
      </trkpt>
      <trkpt lat="44.93268" lon="6.08819">
        <ele>2626.2</ele>
        <time>2024-08-14T10:11:32Z</time>
      </trkpt>
      <trkpt lat="44.93268" lon="6.08819">
        <ele>2626.2</ele>
        <time>2024-08-14T10:11:33Z</time>
      </trkpt>
      <trkpt lat="44.93268" lon="6.08819">
        <ele>2626.2</ele>
        <time>2024-08-14T10:11:34Z</time>
      </trkpt>
      <trkpt lat="44.93268" lon="6.08819">
        <ele>2626.2</ele>
        <time>2024-08-14T10:11:35Z</time>
      </trkpt>
      <trkpt lat="44.93268" lon="6.08819">
        <ele>2626.4</ele>
        <time>2024-08-14T10:11:36Z</time>
      </trkpt>
      <trkpt lat="44.93268" lon="6.08819">
        <ele>2626.4</ele>
        <time>2024-08-14T10:11:37Z</time>
      </trkpt>
      <trkpt lat="44.93268" lon="6.08819">
        <ele>2626.4</ele>
        <time>2024-08-14T10:11:38Z</time>
      </trkpt>
      <trkpt lat="44.93268" lon="6.08819">
        <ele>2626.4</ele>
        <time>2024-08-14T10:11:39Z</time>
      </trkpt>
      <trkpt lat="44.93268" lon="6.08819">
        <ele>2626.4</ele>
        <time>2024-08-14T10:11:40Z</time>
      </trkpt>
      <trkpt lat="44.93268" lon="6.08819">
        <ele>2626.4</ele>
        <time>2024-08-14T10:11:41Z</time>
      </trkpt>
      <trkpt lat="44.93268" lon="6.08819">
        <ele>2626.2</ele>
        <time>2024-08-14T10:11:42Z</time>
      </trkpt>
      <trkpt lat="44.93268" lon="6.08819">
        <ele>2626.2</ele>
        <time>2024-08-14T10:11:43Z</time>
      </trkpt>
      <trkpt lat="44.93268" lon="6.08819">
        <ele>2626</ele>
        <time>2024-08-14T10:11:44Z</time>
      </trkpt>
      <trkpt lat="44.93268" lon="6.08819">
        <ele>2626</ele>
        <time>2024-08-14T10:11:45Z</time>
      </trkpt>
      <trkpt lat="44.93268" lon="6.08819">
        <ele>2625.8</ele>
        <time>2024-08-14T10:11:46Z</time>
      </trkpt>
      <trkpt lat="44.93268" lon="6.08819">
        <ele>2625.8</ele>
        <time>2024-08-14T10:11:47Z</time>
      </trkpt>
      <trkpt lat="44.93268" lon="6.08819">
        <ele>2626</ele>
        <time>2024-08-14T10:11:48Z</time>
      </trkpt>
      <trkpt lat="44.93268" lon="6.08819">
        <ele>2626.2</ele>
        <time>2024-08-14T10:11:49Z</time>
      </trkpt>
      <trkpt lat="44.93268" lon="6.08819">
        <ele>2626.2</ele>
        <time>2024-08-14T10:11:50Z</time>
      </trkpt>
      <trkpt lat="44.93268" lon="6.08819">
        <ele>2626</ele>
        <time>2024-08-14T10:11:51Z</time>
      </trkpt>
      <trkpt lat="44.93268" lon="6.08819">
        <ele>2626</ele>
        <time>2024-08-14T10:11:52Z</time>
      </trkpt>
      <trkpt lat="44.93268" lon="6.08819">
        <ele>2625.8</ele>
        <time>2024-08-14T10:11:53Z</time>
      </trkpt>
      <trkpt lat="44.93268" lon="6.08819">
        <ele>2625.8</ele>
        <time>2024-08-14T10:11:54Z</time>
      </trkpt>
      <trkpt lat="44.93268" lon="6.08819">
        <ele>2625.8</ele>
        <time>2024-08-14T10:11:55Z</time>
      </trkpt>
      <trkpt lat="44.93268" lon="6.08819">
        <ele>2625.8</ele>
        <time>2024-08-14T10:11:56Z</time>
      </trkpt>
      <trkpt lat="44.93268" lon="6.08819">
        <ele>2626.2</ele>
        <time>2024-08-14T10:11:57Z</time>
      </trkpt>
      <trkpt lat="44.93268" lon="6.08819">
        <ele>2626.2</ele>
        <time>2024-08-14T10:11:58Z</time>
      </trkpt>
      <trkpt lat="44.93268" lon="6.08819">
        <ele>2625.8</ele>
        <time>2024-08-14T10:11:59Z</time>
      </trkpt>
      <trkpt lat="44.93268" lon="6.08819">
        <ele>2625.8</ele>
        <time>2024-08-14T10:12:00Z</time>
      </trkpt>
      <trkpt lat="44.93268" lon="6.08819">
        <ele>2625.8</ele>
        <time>2024-08-14T10:12:01Z</time>
      </trkpt>
      <trkpt lat="44.93268" lon="6.08819">
        <ele>2625.8</ele>
        <time>2024-08-14T10:12:02Z</time>
      </trkpt>
      <trkpt lat="44.93268" lon="6.08819">
        <ele>2625.8</ele>
        <time>2024-08-14T10:12:03Z</time>
      </trkpt>
      <trkpt lat="44.93268" lon="6.08819">
        <ele>2625.8</ele>
        <time>2024-08-14T10:12:04Z</time>
      </trkpt>
      <trkpt lat="44.93268" lon="6.08819">
        <ele>2625.6</ele>
        <time>2024-08-14T10:12:05Z</time>
      </trkpt>
      <trkpt lat="44.93268" lon="6.08819">
        <ele>2625.2</ele>
        <time>2024-08-14T10:12:06Z</time>
      </trkpt>
      <trkpt lat="44.93268" lon="6.08819">
        <ele>2625.2</ele>
        <time>2024-08-14T10:12:07Z</time>
      </trkpt>
      <trkpt lat="44.93268" lon="6.08819">
        <ele>2625.2</ele>
        <time>2024-08-14T10:12:08Z</time>
      </trkpt>
      <trkpt lat="44.93268" lon="6.08819">
        <ele>2625.4</ele>
        <time>2024-08-14T10:12:09Z</time>
      </trkpt>
      <trkpt lat="44.93268" lon="6.08819">
        <ele>2625.4</ele>
        <time>2024-08-14T10:12:10Z</time>
      </trkpt>
      <trkpt lat="44.93268" lon="6.08819">
        <ele>2625.4</ele>
        <time>2024-08-14T10:12:11Z</time>
      </trkpt>
      <trkpt lat="44.93268" lon="6.08819">
        <ele>2625.4</ele>
        <time>2024-08-14T10:12:12Z</time>
      </trkpt>
      <trkpt lat="44.93268" lon="6.08819">
        <ele>2625.4</ele>
        <time>2024-08-14T10:12:13Z</time>
      </trkpt>
      <trkpt lat="44.93268" lon="6.08819">
        <ele>2625.4</ele>
        <time>2024-08-14T10:12:14Z</time>
      </trkpt>
      <trkpt lat="44.93268" lon="6.08819">
        <ele>2625.4</ele>
        <time>2024-08-14T10:12:15Z</time>
      </trkpt>
      <trkpt lat="44.93268" lon="6.08819">
        <ele>2625</ele>
        <time>2024-08-14T10:12:16Z</time>
      </trkpt>
      <trkpt lat="44.93268" lon="6.08819">
        <ele>2625</ele>
        <time>2024-08-14T10:12:17Z</time>
      </trkpt>
      <trkpt lat="44.93268" lon="6.08819">
        <ele>2625</ele>
        <time>2024-08-14T10:12:18Z</time>
      </trkpt>
      <trkpt lat="44.93268" lon="6.08819">
        <ele>2625</ele>
        <time>2024-08-14T10:12:19Z</time>
      </trkpt>
      <trkpt lat="44.93268" lon="6.08819">
        <ele>2625</ele>
        <time>2024-08-14T10:12:20Z</time>
      </trkpt>
      <trkpt lat="44.93268" lon="6.08819">
        <ele>2625</ele>
        <time>2024-08-14T10:12:21Z</time>
      </trkpt>
      <trkpt lat="44.93268" lon="6.08819">
        <ele>2625.4</ele>
        <time>2024-08-14T10:12:22Z</time>
      </trkpt>
      <trkpt lat="44.93268" lon="6.08819">
        <ele>2625.8</ele>
        <time>2024-08-14T10:12:23Z</time>
      </trkpt>
      <trkpt lat="44.93268" lon="6.08819">
        <ele>2625.8</ele>
        <time>2024-08-14T10:12:24Z</time>
      </trkpt>
      <trkpt lat="44.93268" lon="6.08819">
        <ele>2625.6</ele>
        <time>2024-08-14T10:12:25Z</time>
      </trkpt>
      <trkpt lat="44.93268" lon="6.08819">
        <ele>2625.2</ele>
        <time>2024-08-14T10:12:26Z</time>
      </trkpt>
      <trkpt lat="44.93268" lon="6.08819">
        <ele>2625</ele>
        <time>2024-08-14T10:12:27Z</time>
      </trkpt>
      <trkpt lat="44.93268" lon="6.08819">
        <ele>2625.6</ele>
        <time>2024-08-14T10:12:28Z</time>
      </trkpt>
      <trkpt lat="44.93268" lon="6.08819">
        <ele>2625.4</ele>
        <time>2024-08-14T10:12:29Z</time>
      </trkpt>
      <trkpt lat="44.93268" lon="6.08819">
        <ele>2625.4</ele>
        <time>2024-08-14T10:12:30Z</time>
      </trkpt>
      <trkpt lat="44.93268" lon="6.08819">
        <ele>2625.4</ele>
        <time>2024-08-14T10:12:31Z</time>
      </trkpt>
      <trkpt lat="44.93268" lon="6.08819">
        <ele>2625.4</ele>
        <time>2024-08-14T10:12:32Z</time>
      </trkpt>
      <trkpt lat="44.93268" lon="6.08819">
        <ele>2625.4</ele>
        <time>2024-08-14T10:12:33Z</time>
      </trkpt>
      <trkpt lat="44.93268" lon="6.08819">
        <ele>2625.4</ele>
        <time>2024-08-14T10:12:34Z</time>
      </trkpt>
      <trkpt lat="44.93268" lon="6.08819">
        <ele>2625.2</ele>
        <time>2024-08-14T10:12:35Z</time>
      </trkpt>
      <trkpt lat="44.93268" lon="6.08819">
        <ele>2625.2</ele>
        <time>2024-08-14T10:12:36Z</time>
      </trkpt>
      <trkpt lat="44.93268" lon="6.08819">
        <ele>2625.4</ele>
        <time>2024-08-14T10:12:37Z</time>
      </trkpt>
      <trkpt lat="44.93268" lon="6.08819">
        <ele>2625.6</ele>
        <time>2024-08-14T10:12:38Z</time>
      </trkpt>
      <trkpt lat="44.93268" lon="6.08819">
        <ele>2625.6</ele>
        <time>2024-08-14T10:12:39Z</time>
      </trkpt>
      <trkpt lat="44.93268" lon="6.08819">
        <ele>2625.6</ele>
        <time>2024-08-14T10:12:40Z</time>
      </trkpt>
      <trkpt lat="44.93268" lon="6.08819">
        <ele>2626</ele>
        <time>2024-08-14T10:12:41Z</time>
      </trkpt>
      <trkpt lat="44.93268" lon="6.08819">
        <ele>2626</ele>
        <time>2024-08-14T10:12:42Z</time>
      </trkpt>
      <trkpt lat="44.93268" lon="6.08819">
        <ele>2626</ele>
        <time>2024-08-14T10:12:43Z</time>
      </trkpt>
      <trkpt lat="44.93268" lon="6.08819">
        <ele>2625.6</ele>
        <time>2024-08-14T10:12:44Z</time>
      </trkpt>
      <trkpt lat="44.93268" lon="6.08819">
        <ele>2625.6</ele>
        <time>2024-08-14T10:12:45Z</time>
      </trkpt>
      <trkpt lat="44.93268" lon="6.08819">
        <ele>2625.8</ele>
        <time>2024-08-14T10:12:46Z</time>
      </trkpt>
      <trkpt lat="44.93268" lon="6.08819">
        <ele>2625.8</ele>
        <time>2024-08-14T10:12:47Z</time>
      </trkpt>
      <trkpt lat="44.93268" lon="6.08819">
        <ele>2625.6</ele>
        <time>2024-08-14T10:12:48Z</time>
      </trkpt>
      <trkpt lat="44.93268" lon="6.08819">
        <ele>2625.2</ele>
        <time>2024-08-14T10:12:49Z</time>
      </trkpt>
      <trkpt lat="44.93268" lon="6.08819">
        <ele>2624.8</ele>
        <time>2024-08-14T10:12:50Z</time>
      </trkpt>
      <trkpt lat="44.93268" lon="6.08819">
        <ele>2624.8</ele>
        <time>2024-08-14T10:12:51Z</time>
      </trkpt>
      <trkpt lat="44.93268" lon="6.08819">
        <ele>2624.8</ele>
        <time>2024-08-14T10:12:52Z</time>
      </trkpt>
      <trkpt lat="44.93268" lon="6.08819">
        <ele>2625</ele>
        <time>2024-08-14T10:12:53Z</time>
      </trkpt>
      <trkpt lat="44.93268" lon="6.08819">
        <ele>2625.2</ele>
        <time>2024-08-14T10:12:54Z</time>
      </trkpt>
      <trkpt lat="44.93268" lon="6.08819">
        <ele>2625</ele>
        <time>2024-08-14T10:12:55Z</time>
      </trkpt>
      <trkpt lat="44.93268" lon="6.08819">
        <ele>2624.4</ele>
        <time>2024-08-14T10:12:56Z</time>
      </trkpt>
      <trkpt lat="44.93268" lon="6.08819">
        <ele>2624.4</ele>
        <time>2024-08-14T10:12:57Z</time>
      </trkpt>
      <trkpt lat="44.93268" lon="6.08819">
        <ele>2624.2</ele>
        <time>2024-08-14T10:12:58Z</time>
      </trkpt>
      <trkpt lat="44.93268" lon="6.08819">
        <ele>2624.6</ele>
        <time>2024-08-14T10:12:59Z</time>
      </trkpt>
      <trkpt lat="44.93268" lon="6.08819">
        <ele>2624.6</ele>
        <time>2024-08-14T10:13:00Z</time>
      </trkpt>
      <trkpt lat="44.93268" lon="6.08819">
        <ele>2624.8</ele>
        <time>2024-08-14T10:13:01Z</time>
      </trkpt>
      <trkpt lat="44.93268" lon="6.08819">
        <ele>2624.8</ele>
        <time>2024-08-14T10:13:02Z</time>
      </trkpt>
      <trkpt lat="44.93268" lon="6.08819">
        <ele>2624.8</ele>
        <time>2024-08-14T10:13:03Z</time>
      </trkpt>
      <trkpt lat="44.93268" lon="6.08819">
        <ele>2624.2</ele>
        <time>2024-08-14T10:13:04Z</time>
      </trkpt>
      <trkpt lat="44.93268" lon="6.08819">
        <ele>2624.2</ele>
        <time>2024-08-14T10:13:05Z</time>
      </trkpt>
      <trkpt lat="44.93268" lon="6.08819">
        <ele>2624.6</ele>
        <time>2024-08-14T10:13:06Z</time>
      </trkpt>
      <trkpt lat="44.93268" lon="6.08819">
        <ele>2624.8</ele>
        <time>2024-08-14T10:13:07Z</time>
      </trkpt>
      <trkpt lat="44.93268" lon="6.08819">
        <ele>2624.8</ele>
        <time>2024-08-14T10:13:08Z</time>
      </trkpt>
      <trkpt lat="44.93268" lon="6.08819">
        <ele>2624.8</ele>
        <time>2024-08-14T10:13:09Z</time>
      </trkpt>
      <trkpt lat="44.93268" lon="6.08819">
        <ele>2625</ele>
        <time>2024-08-14T10:13:10Z</time>
      </trkpt>
      <trkpt lat="44.93268" lon="6.08819">
        <ele>2625.2</ele>
        <time>2024-08-14T10:13:11Z</time>
      </trkpt>
      <trkpt lat="44.93268" lon="6.08819">
        <ele>2625.6</ele>
        <time>2024-08-14T10:13:12Z</time>
      </trkpt>
      <trkpt lat="44.93268" lon="6.08819">
        <ele>2625.6</ele>
        <time>2024-08-14T10:13:13Z</time>
      </trkpt>
      <trkpt lat="44.93268" lon="6.08819">
        <ele>2625.2</ele>
        <time>2024-08-14T10:13:14Z</time>
      </trkpt>
      <trkpt lat="44.93268" lon="6.08819">
        <ele>2625.2</ele>
        <time>2024-08-14T10:13:15Z</time>
      </trkpt>
      <trkpt lat="44.93268" lon="6.08819">
        <ele>2625.6</ele>
        <time>2024-08-14T10:13:16Z</time>
      </trkpt>
      <trkpt lat="44.9327" lon="6.08817">
        <ele>2625.6</ele>
        <time>2024-08-14T10:13:17Z</time>
      </trkpt>
      <trkpt lat="44.9327" lon="6.08817">
        <ele>2625.2</ele>
        <time>2024-08-14T10:13:18Z</time>
      </trkpt>
      <trkpt lat="44.9327" lon="6.08817">
        <ele>2625.2</ele>
        <time>2024-08-14T10:13:19Z</time>
      </trkpt>
      <trkpt lat="44.9327" lon="6.08817">
        <ele>2625.4</ele>
        <time>2024-08-14T10:13:20Z</time>
      </trkpt>
      <trkpt lat="44.9327" lon="6.08817">
        <ele>2625.4</ele>
        <time>2024-08-14T10:13:21Z</time>
      </trkpt>
      <trkpt lat="44.9327" lon="6.08817">
        <ele>2625.4</ele>
        <time>2024-08-14T10:13:22Z</time>
      </trkpt>
      <trkpt lat="44.9327" lon="6.08817">
        <ele>2625.4</ele>
        <time>2024-08-14T10:13:23Z</time>
      </trkpt>
      <trkpt lat="44.9327" lon="6.08817">
        <ele>2625.4</ele>
        <time>2024-08-14T10:13:24Z</time>
      </trkpt>
      <trkpt lat="44.9327" lon="6.08817">
        <ele>2625.4</ele>
        <time>2024-08-14T10:13:25Z</time>
      </trkpt>
      <trkpt lat="44.9327" lon="6.08817">
        <ele>2625.4</ele>
        <time>2024-08-14T10:13:26Z</time>
      </trkpt>
      <trkpt lat="44.9327" lon="6.08817">
        <ele>2625.2</ele>
        <time>2024-08-14T10:13:27Z</time>
      </trkpt>
      <trkpt lat="44.9327" lon="6.08817">
        <ele>2625.2</ele>
        <time>2024-08-14T10:13:28Z</time>
      </trkpt>
      <trkpt lat="44.9327" lon="6.08817">
        <ele>2625.2</ele>
        <time>2024-08-14T10:13:29Z</time>
      </trkpt>
      <trkpt lat="44.9327" lon="6.08817">
        <ele>2625.2</ele>
        <time>2024-08-14T10:13:30Z</time>
      </trkpt>
      <trkpt lat="44.9327" lon="6.08817">
        <ele>2625</ele>
        <time>2024-08-14T10:13:31Z</time>
      </trkpt>
      <trkpt lat="44.9327" lon="6.08817">
        <ele>2625</ele>
        <time>2024-08-14T10:13:32Z</time>
      </trkpt>
      <trkpt lat="44.9327" lon="6.08817">
        <ele>2625.2</ele>
        <time>2024-08-14T10:13:33Z</time>
      </trkpt>
      <trkpt lat="44.9327" lon="6.08817">
        <ele>2625.4</ele>
        <time>2024-08-14T10:13:34Z</time>
      </trkpt>
      <trkpt lat="44.93271" lon="6.0882">
        <ele>2625.4</ele>
        <time>2024-08-14T10:13:35Z</time>
      </trkpt>
      <trkpt lat="44.93271" lon="6.0882">
        <ele>2625.4</ele>
        <time>2024-08-14T10:13:36Z</time>
      </trkpt>
      <trkpt lat="44.93271" lon="6.0882">
        <ele>2625</ele>
        <time>2024-08-14T10:13:37Z</time>
      </trkpt>
      <trkpt lat="44.93271" lon="6.0882">
        <ele>2624.6</ele>
        <time>2024-08-14T10:13:38Z</time>
      </trkpt>
      <trkpt lat="44.93271" lon="6.0882">
        <ele>2624.2</ele>
        <time>2024-08-14T10:13:39Z</time>
      </trkpt>
      <trkpt lat="44.93272" lon="6.08818">
        <ele>2624.2</ele>
        <time>2024-08-14T10:13:40Z</time>
      </trkpt>
      <trkpt lat="44.93272" lon="6.08818">
        <ele>2624.6</ele>
        <time>2024-08-14T10:13:41Z</time>
      </trkpt>
      <trkpt lat="44.93274" lon="6.08817">
        <ele>2624.6</ele>
        <time>2024-08-14T10:13:42Z</time>
      </trkpt>
      <trkpt lat="44.93274" lon="6.08817">
        <ele>2624.4</ele>
        <time>2024-08-14T10:13:43Z</time>
      </trkpt>
      <trkpt lat="44.93274" lon="6.08817">
        <ele>2624</ele>
        <time>2024-08-14T10:13:44Z</time>
      </trkpt>
      <trkpt lat="44.93274" lon="6.08821">
        <ele>2624</ele>
        <time>2024-08-14T10:13:45Z</time>
      </trkpt>
      <trkpt lat="44.93274" lon="6.08821">
        <ele>2623.8</ele>
        <time>2024-08-14T10:13:46Z</time>
      </trkpt>
      <trkpt lat="44.93275" lon="6.08824">
        <ele>2623.8</ele>
        <time>2024-08-14T10:13:47Z</time>
      </trkpt>
      <trkpt lat="44.93275" lon="6.08824">
        <ele>2623.6</ele>
        <time>2024-08-14T10:13:48Z</time>
      </trkpt>
      <trkpt lat="44.93275" lon="6.08824">
        <ele>2623.2</ele>
        <time>2024-08-14T10:13:49Z</time>
      </trkpt>
      <trkpt lat="44.93275" lon="6.08824">
        <ele>2623</ele>
        <time>2024-08-14T10:13:50Z</time>
      </trkpt>
      <trkpt lat="44.93275" lon="6.08824">
        <ele>2622.6</ele>
        <time>2024-08-14T10:13:51Z</time>
      </trkpt>
      <trkpt lat="44.93277" lon="6.08823">
        <ele>2622.4</ele>
        <time>2024-08-14T10:13:52Z</time>
      </trkpt>
      <trkpt lat="44.93277" lon="6.08823">
        <ele>2621.8</ele>
        <time>2024-08-14T10:13:53Z</time>
      </trkpt>
      <trkpt lat="44.93277" lon="6.08823">
        <ele>2621.4</ele>
        <time>2024-08-14T10:13:54Z</time>
      </trkpt>
      <trkpt lat="44.93278" lon="6.08821">
        <ele>2621.2</ele>
        <time>2024-08-14T10:13:55Z</time>
      </trkpt>
      <trkpt lat="44.93278" lon="6.08821">
        <ele>2621</ele>
        <time>2024-08-14T10:13:56Z</time>
      </trkpt>
      <trkpt lat="44.9328" lon="6.0882">
        <ele>2620.6</ele>
        <time>2024-08-14T10:13:57Z</time>
      </trkpt>
      <trkpt lat="44.9328" lon="6.0882">
        <ele>2620.4</ele>
        <time>2024-08-14T10:13:58Z</time>
      </trkpt>
      <trkpt lat="44.9328" lon="6.0882">
        <ele>2620.2</ele>
        <time>2024-08-14T10:13:59Z</time>
      </trkpt>
      <trkpt lat="44.93282" lon="6.08817">
        <ele>2620</ele>
        <time>2024-08-14T10:14:00Z</time>
      </trkpt>
      <trkpt lat="44.93282" lon="6.08817">
        <ele>2619.6</ele>
        <time>2024-08-14T10:14:01Z</time>
      </trkpt>
      <trkpt lat="44.93282" lon="6.08817">
        <ele>2618.8</ele>
        <time>2024-08-14T10:14:02Z</time>
      </trkpt>
      <trkpt lat="44.93282" lon="6.08817">
        <ele>2618.8</ele>
        <time>2024-08-14T10:14:03Z</time>
      </trkpt>
      <trkpt lat="44.93282" lon="6.08817">
        <ele>2618.8</ele>
        <time>2024-08-14T10:14:04Z</time>
      </trkpt>
      <trkpt lat="44.93282" lon="6.08817">
        <ele>2618.8</ele>
        <time>2024-08-14T10:14:05Z</time>
      </trkpt>
      <trkpt lat="44.93282" lon="6.08817">
        <ele>2619</ele>
        <time>2024-08-14T10:14:06Z</time>
      </trkpt>
      <trkpt lat="44.93282" lon="6.08817">
        <ele>2619</ele>
        <time>2024-08-14T10:14:07Z</time>
      </trkpt>
      <trkpt lat="44.93282" lon="6.08817">
        <ele>2618.8</ele>
        <time>2024-08-14T10:14:08Z</time>
      </trkpt>
      <trkpt lat="44.93282" lon="6.08817">
        <ele>2618.8</ele>
        <time>2024-08-14T10:14:09Z</time>
      </trkpt>
      <trkpt lat="44.93282" lon="6.08817">
        <ele>2618.6</ele>
        <time>2024-08-14T10:14:10Z</time>
      </trkpt>
      <trkpt lat="44.93282" lon="6.08817">
        <ele>2618.6</ele>
        <time>2024-08-14T10:14:11Z</time>
      </trkpt>
      <trkpt lat="44.93282" lon="6.08817">
        <ele>2618.6</ele>
        <time>2024-08-14T10:14:12Z</time>
      </trkpt>
      <trkpt lat="44.93282" lon="6.08817">
        <ele>2618.4</ele>
        <time>2024-08-14T10:14:13Z</time>
      </trkpt>
      <trkpt lat="44.93284" lon="6.08815">
        <ele>2618.4</ele>
        <time>2024-08-14T10:14:14Z</time>
      </trkpt>
      <trkpt lat="44.93284" lon="6.08815">
        <ele>2618</ele>
        <time>2024-08-14T10:14:15Z</time>
      </trkpt>
      <trkpt lat="44.93285" lon="6.08813">
        <ele>2618</ele>
        <time>2024-08-14T10:14:16Z</time>
      </trkpt>
      <trkpt lat="44.93285" lon="6.08813">
        <ele>2617.6</ele>
        <time>2024-08-14T10:14:17Z</time>
      </trkpt>
      <trkpt lat="44.93286" lon="6.0881">
        <ele>2617.6</ele>
        <time>2024-08-14T10:14:18Z</time>
      </trkpt>
      <trkpt lat="44.93286" lon="6.0881">
        <ele>2617.4</ele>
        <time>2024-08-14T10:14:19Z</time>
      </trkpt>
      <trkpt lat="44.93288" lon="6.08808">
        <ele>2616.8</ele>
        <time>2024-08-14T10:14:20Z</time>
      </trkpt>
      <trkpt lat="44.93288" lon="6.08808">
        <ele>2616.4</ele>
        <time>2024-08-14T10:14:21Z</time>
      </trkpt>
      <trkpt lat="44.93288" lon="6.08808">
        <ele>2616</ele>
        <time>2024-08-14T10:14:22Z</time>
      </trkpt>
      <trkpt lat="44.93288" lon="6.08808">
        <ele>2616</ele>
        <time>2024-08-14T10:14:23Z</time>
      </trkpt>
      <trkpt lat="44.93288" lon="6.08808">
        <ele>2616.2</ele>
        <time>2024-08-14T10:14:24Z</time>
      </trkpt>
      <trkpt lat="44.93288" lon="6.08808">
        <ele>2616.2</ele>
        <time>2024-08-14T10:14:25Z</time>
      </trkpt>
      <trkpt lat="44.93288" lon="6.08808">
        <ele>2616</ele>
        <time>2024-08-14T10:14:26Z</time>
      </trkpt>
      <trkpt lat="44.93288" lon="6.08808">
        <ele>2616</ele>
        <time>2024-08-14T10:14:27Z</time>
      </trkpt>
      <trkpt lat="44.93288" lon="6.08808">
        <ele>2616</ele>
        <time>2024-08-14T10:14:28Z</time>
      </trkpt>
      <trkpt lat="44.93289" lon="6.08806">
        <ele>2615.6</ele>
        <time>2024-08-14T10:14:29Z</time>
      </trkpt>
      <trkpt lat="44.93289" lon="6.08806">
        <ele>2615.2</ele>
        <time>2024-08-14T10:14:30Z</time>
      </trkpt>
      <trkpt lat="44.93291" lon="6.08803">
        <ele>2614.4</ele>
        <time>2024-08-14T10:14:31Z</time>
      </trkpt>
      <trkpt lat="44.93291" lon="6.08803">
        <ele>2613.6</ele>
        <time>2024-08-14T10:14:32Z</time>
      </trkpt>
      <trkpt lat="44.93293" lon="6.088">
        <ele>2613.4</ele>
        <time>2024-08-14T10:14:33Z</time>
      </trkpt>
      <trkpt lat="44.93293" lon="6.088">
        <ele>2613</ele>
        <time>2024-08-14T10:14:34Z</time>
      </trkpt>
      <trkpt lat="44.93295" lon="6.08797">
        <ele>2612.6</ele>
        <time>2024-08-14T10:14:35Z</time>
      </trkpt>
      <trkpt lat="44.93295" lon="6.08797">
        <ele>2612.2</ele>
        <time>2024-08-14T10:14:36Z</time>
      </trkpt>
      <trkpt lat="44.93298" lon="6.08795">
        <ele>2611.4</ele>
        <time>2024-08-14T10:14:37Z</time>
      </trkpt>
      <trkpt lat="44.93298" lon="6.08795">
        <ele>2611</ele>
        <time>2024-08-14T10:14:38Z</time>
      </trkpt>
      <trkpt lat="44.933" lon="6.08793">
        <ele>2610.8</ele>
        <time>2024-08-14T10:14:39Z</time>
      </trkpt>
      <trkpt lat="44.933" lon="6.08793">
        <ele>2610.4</ele>
        <time>2024-08-14T10:14:40Z</time>
      </trkpt>
      <trkpt lat="44.93301" lon="6.08791">
        <ele>2610</ele>
        <time>2024-08-14T10:14:41Z</time>
      </trkpt>
      <trkpt lat="44.93301" lon="6.08791">
        <ele>2609.8</ele>
        <time>2024-08-14T10:14:42Z</time>
      </trkpt>
      <trkpt lat="44.93303" lon="6.0879">
        <ele>2609.6</ele>
        <time>2024-08-14T10:14:43Z</time>
      </trkpt>
      <trkpt lat="44.93303" lon="6.0879">
        <ele>2609</ele>
        <time>2024-08-14T10:14:44Z</time>
      </trkpt>
      <trkpt lat="44.93305" lon="6.08788">
        <ele>2608.6</ele>
        <time>2024-08-14T10:14:45Z</time>
      </trkpt>
      <trkpt lat="44.93305" lon="6.08788">
        <ele>2608.4</ele>
        <time>2024-08-14T10:14:46Z</time>
      </trkpt>
      <trkpt lat="44.93306" lon="6.08786">
        <ele>2608</ele>
        <time>2024-08-14T10:14:47Z</time>
      </trkpt>
      <trkpt lat="44.93306" lon="6.08786">
        <ele>2607.8</ele>
        <time>2024-08-14T10:14:48Z</time>
      </trkpt>
      <trkpt lat="44.93308" lon="6.08785">
        <ele>2607.4</ele>
        <time>2024-08-14T10:14:49Z</time>
      </trkpt>
      <trkpt lat="44.93308" lon="6.08785">
        <ele>2607.2</ele>
        <time>2024-08-14T10:14:50Z</time>
      </trkpt>
      <trkpt lat="44.9331" lon="6.08783">
        <ele>2607</ele>
        <time>2024-08-14T10:14:51Z</time>
      </trkpt>
      <trkpt lat="44.9331" lon="6.08783">
        <ele>2606.6</ele>
        <time>2024-08-14T10:14:52Z</time>
      </trkpt>
      <trkpt lat="44.93312" lon="6.08781">
        <ele>2606</ele>
        <time>2024-08-14T10:14:53Z</time>
      </trkpt>
      <trkpt lat="44.93312" lon="6.08781">
        <ele>2605.6</ele>
        <time>2024-08-14T10:14:54Z</time>
      </trkpt>
      <trkpt lat="44.93314" lon="6.08779">
        <ele>2605.2</ele>
        <time>2024-08-14T10:14:55Z</time>
      </trkpt>
      <trkpt lat="44.93314" lon="6.08779">
        <ele>2604.8</ele>
        <time>2024-08-14T10:14:56Z</time>
      </trkpt>
      <trkpt lat="44.93316" lon="6.08778">
        <ele>2604.6</ele>
        <time>2024-08-14T10:14:57Z</time>
      </trkpt>
      <trkpt lat="44.93316" lon="6.08778">
        <ele>2604.6</ele>
        <time>2024-08-14T10:14:58Z</time>
      </trkpt>
      <trkpt lat="44.93318" lon="6.08776">
        <ele>2604.4</ele>
        <time>2024-08-14T10:14:59Z</time>
      </trkpt>
      <trkpt lat="44.93318" lon="6.08776">
        <ele>2604</ele>
        <time>2024-08-14T10:15:00Z</time>
      </trkpt>
      <trkpt lat="44.9332" lon="6.08775">
        <ele>2603.4</ele>
        <time>2024-08-14T10:15:01Z</time>
      </trkpt>
      <trkpt lat="44.9332" lon="6.08775">
        <ele>2602.8</ele>
        <time>2024-08-14T10:15:02Z</time>
      </trkpt>
      <trkpt lat="44.93322" lon="6.08773">
        <ele>2602.8</ele>
        <time>2024-08-14T10:15:03Z</time>
      </trkpt>
      <trkpt lat="44.93322" lon="6.08773">
        <ele>2602.6</ele>
        <time>2024-08-14T10:15:04Z</time>
      </trkpt>
      <trkpt lat="44.93324" lon="6.08772">
        <ele>2602.4</ele>
        <time>2024-08-14T10:15:05Z</time>
      </trkpt>
      <trkpt lat="44.93324" lon="6.08772">
        <ele>2602</ele>
        <time>2024-08-14T10:15:06Z</time>
      </trkpt>
      <trkpt lat="44.93326" lon="6.0877">
        <ele>2601.8</ele>
        <time>2024-08-14T10:15:07Z</time>
      </trkpt>
      <trkpt lat="44.93326" lon="6.0877">
        <ele>2601.8</ele>
        <time>2024-08-14T10:15:08Z</time>
      </trkpt>
      <trkpt lat="44.93328" lon="6.08769">
        <ele>2601</ele>
        <time>2024-08-14T10:15:09Z</time>
      </trkpt>
      <trkpt lat="44.93328" lon="6.08769">
        <ele>2600.6</ele>
        <time>2024-08-14T10:15:10Z</time>
      </trkpt>
      <trkpt lat="44.93329" lon="6.08767">
        <ele>2600.2</ele>
        <time>2024-08-14T10:15:11Z</time>
      </trkpt>
      <trkpt lat="44.93329" lon="6.08767">
        <ele>2600</ele>
        <time>2024-08-14T10:15:12Z</time>
      </trkpt>
      <trkpt lat="44.93332" lon="6.08766">
        <ele>2599.8</ele>
        <time>2024-08-14T10:15:13Z</time>
      </trkpt>
      <trkpt lat="44.93332" lon="6.08766">
        <ele>2599.2</ele>
        <time>2024-08-14T10:15:14Z</time>
      </trkpt>
      <trkpt lat="44.93334" lon="6.08765">
        <ele>2599</ele>
        <time>2024-08-14T10:15:15Z</time>
      </trkpt>
      <trkpt lat="44.93334" lon="6.08765">
        <ele>2598.6</ele>
        <time>2024-08-14T10:15:16Z</time>
      </trkpt>
      <trkpt lat="44.93336" lon="6.08764">
        <ele>2598.2</ele>
        <time>2024-08-14T10:15:17Z</time>
      </trkpt>
      <trkpt lat="44.93336" lon="6.08764">
        <ele>2597.6</ele>
        <time>2024-08-14T10:15:18Z</time>
      </trkpt>
      <trkpt lat="44.93338" lon="6.08764">
        <ele>2597.2</ele>
        <time>2024-08-14T10:15:19Z</time>
      </trkpt>
      <trkpt lat="44.93338" lon="6.08764">
        <ele>2597</ele>
        <time>2024-08-14T10:15:20Z</time>
      </trkpt>
      <trkpt lat="44.9334" lon="6.08763">
        <ele>2597</ele>
        <time>2024-08-14T10:15:21Z</time>
      </trkpt>
      <trkpt lat="44.9334" lon="6.08763">
        <ele>2596.4</ele>
        <time>2024-08-14T10:15:22Z</time>
      </trkpt>
      <trkpt lat="44.9334" lon="6.08763">
        <ele>2595.8</ele>
        <time>2024-08-14T10:15:23Z</time>
      </trkpt>
      <trkpt lat="44.93342" lon="6.08762">
        <ele>2595.6</ele>
        <time>2024-08-14T10:15:24Z</time>
      </trkpt>
      <trkpt lat="44.93342" lon="6.08762">
        <ele>2595.4</ele>
        <time>2024-08-14T10:15:25Z</time>
      </trkpt>
      <trkpt lat="44.93344" lon="6.08762">
        <ele>2595.2</ele>
        <time>2024-08-14T10:15:26Z</time>
      </trkpt>
      <trkpt lat="44.93344" lon="6.08762">
        <ele>2594.8</ele>
        <time>2024-08-14T10:15:27Z</time>
      </trkpt>
      <trkpt lat="44.93346" lon="6.08762">
        <ele>2594.2</ele>
        <time>2024-08-14T10:15:28Z</time>
      </trkpt>
      <trkpt lat="44.93346" lon="6.08762">
        <ele>2594</ele>
        <time>2024-08-14T10:15:29Z</time>
      </trkpt>
      <trkpt lat="44.93346" lon="6.08762">
        <ele>2593.6</ele>
        <time>2024-08-14T10:15:30Z</time>
      </trkpt>
      <trkpt lat="44.93348" lon="6.08761">
        <ele>2593.4</ele>
        <time>2024-08-14T10:15:31Z</time>
      </trkpt>
      <trkpt lat="44.93348" lon="6.08761">
        <ele>2592.8</ele>
        <time>2024-08-14T10:15:32Z</time>
      </trkpt>
      <trkpt lat="44.9335" lon="6.08761">
        <ele>2592.2</ele>
        <time>2024-08-14T10:15:33Z</time>
      </trkpt>
      <trkpt lat="44.9335" lon="6.08761">
        <ele>2591.8</ele>
        <time>2024-08-14T10:15:34Z</time>
      </trkpt>
      <trkpt lat="44.9335" lon="6.08761">
        <ele>2591.4</ele>
        <time>2024-08-14T10:15:35Z</time>
      </trkpt>
      <trkpt lat="44.93352" lon="6.08761">
        <ele>2591.2</ele>
        <time>2024-08-14T10:15:36Z</time>
      </trkpt>
      <trkpt lat="44.93352" lon="6.08761">
        <ele>2590.8</ele>
        <time>2024-08-14T10:15:37Z</time>
      </trkpt>
      <trkpt lat="44.93352" lon="6.08761">
        <ele>2590.6</ele>
        <time>2024-08-14T10:15:38Z</time>
      </trkpt>
      <trkpt lat="44.93355" lon="6.0876">
        <ele>2590.2</ele>
        <time>2024-08-14T10:15:39Z</time>
      </trkpt>
      <trkpt lat="44.93355" lon="6.0876">
        <ele>2589.8</ele>
        <time>2024-08-14T10:15:40Z</time>
      </trkpt>
      <trkpt lat="44.93355" lon="6.0876">
        <ele>2589.6</ele>
        <time>2024-08-14T10:15:41Z</time>
      </trkpt>
      <trkpt lat="44.93358" lon="6.08759">
        <ele>2589.4</ele>
        <time>2024-08-14T10:15:42Z</time>
      </trkpt>
      <trkpt lat="44.93358" lon="6.08759">
        <ele>2588.6</ele>
        <time>2024-08-14T10:15:43Z</time>
      </trkpt>
      <trkpt lat="44.93358" lon="6.08759">
        <ele>2588.4</ele>
        <time>2024-08-14T10:15:44Z</time>
      </trkpt>
      <trkpt lat="44.93361" lon="6.08758">
        <ele>2588</ele>
        <time>2024-08-14T10:15:45Z</time>
      </trkpt>
      <trkpt lat="44.93361" lon="6.08758">
        <ele>2587.8</ele>
        <time>2024-08-14T10:15:46Z</time>
      </trkpt>
      <trkpt lat="44.93363" lon="6.08756">
        <ele>2587.6</ele>
        <time>2024-08-14T10:15:47Z</time>
      </trkpt>
      <trkpt lat="44.93363" lon="6.08756">
        <ele>2586.8</ele>
        <time>2024-08-14T10:15:48Z</time>
      </trkpt>
      <trkpt lat="44.93365" lon="6.08755">
        <ele>2586.2</ele>
        <time>2024-08-14T10:15:49Z</time>
      </trkpt>
      <trkpt lat="44.93365" lon="6.08755">
        <ele>2586</ele>
        <time>2024-08-14T10:15:50Z</time>
      </trkpt>
      <trkpt lat="44.93367" lon="6.08754">
        <ele>2585.8</ele>
        <time>2024-08-14T10:15:51Z</time>
      </trkpt>
      <trkpt lat="44.93367" lon="6.08754">
        <ele>2585.6</ele>
        <time>2024-08-14T10:15:52Z</time>
      </trkpt>
      <trkpt lat="44.93367" lon="6.08754">
        <ele>2585.4</ele>
        <time>2024-08-14T10:15:53Z</time>
      </trkpt>
      <trkpt lat="44.9337" lon="6.08754">
        <ele>2585.2</ele>
        <time>2024-08-14T10:15:54Z</time>
      </trkpt>
      <trkpt lat="44.9337" lon="6.08754">
        <ele>2584.6</ele>
        <time>2024-08-14T10:15:55Z</time>
      </trkpt>
      <trkpt lat="44.93372" lon="6.08753">
        <ele>2584</ele>
        <time>2024-08-14T10:15:56Z</time>
      </trkpt>
      <trkpt lat="44.93372" lon="6.08753">
        <ele>2583.8</ele>
        <time>2024-08-14T10:15:57Z</time>
      </trkpt>
      <trkpt lat="44.93372" lon="6.08753">
        <ele>2583.8</ele>
        <time>2024-08-14T10:15:58Z</time>
      </trkpt>
      <trkpt lat="44.93374" lon="6.08752">
        <ele>2583.2</ele>
        <time>2024-08-14T10:15:59Z</time>
      </trkpt>
      <trkpt lat="44.93374" lon="6.08752">
        <ele>2583</ele>
        <time>2024-08-14T10:16:00Z</time>
      </trkpt>
      <trkpt lat="44.93374" lon="6.08752">
        <ele>2582.6</ele>
        <time>2024-08-14T10:16:01Z</time>
      </trkpt>
      <trkpt lat="44.93377" lon="6.08752">
        <ele>2582</ele>
        <time>2024-08-14T10:16:02Z</time>
      </trkpt>
      <trkpt lat="44.93377" lon="6.08752">
        <ele>2582</ele>
        <time>2024-08-14T10:16:03Z</time>
      </trkpt>
      <trkpt lat="44.93378" lon="6.08754">
        <ele>2581.8</ele>
        <time>2024-08-14T10:16:04Z</time>
      </trkpt>
      <trkpt lat="44.93378" lon="6.08754">
        <ele>2581.6</ele>
        <time>2024-08-14T10:16:05Z</time>
      </trkpt>
      <trkpt lat="44.93378" lon="6.08757">
        <ele>2581.4</ele>
        <time>2024-08-14T10:16:06Z</time>
      </trkpt>
      <trkpt lat="44.93378" lon="6.08757">
        <ele>2580.8</ele>
        <time>2024-08-14T10:16:07Z</time>
      </trkpt>
      <trkpt lat="44.93377" lon="6.0876">
        <ele>2580</ele>
        <time>2024-08-14T10:16:08Z</time>
      </trkpt>
      <trkpt lat="44.93377" lon="6.0876">
        <ele>2579.4</ele>
        <time>2024-08-14T10:16:09Z</time>
      </trkpt>
      <trkpt lat="44.93377" lon="6.0876">
        <ele>2579</ele>
        <time>2024-08-14T10:16:10Z</time>
      </trkpt>
      <trkpt lat="44.93377" lon="6.0876">
        <ele>2578.8</ele>
        <time>2024-08-14T10:16:11Z</time>
      </trkpt>
      <trkpt lat="44.93377" lon="6.0876">
        <ele>2578.4</ele>
        <time>2024-08-14T10:16:12Z</time>
      </trkpt>
      <trkpt lat="44.93377" lon="6.0876">
        <ele>2578.4</ele>
        <time>2024-08-14T10:16:13Z</time>
      </trkpt>
      <trkpt lat="44.93377" lon="6.08764">
        <ele>2578.4</ele>
        <time>2024-08-14T10:16:14Z</time>
      </trkpt>
      <trkpt lat="44.93377" lon="6.08764">
        <ele>2578.4</ele>
        <time>2024-08-14T10:16:15Z</time>
      </trkpt>
      <trkpt lat="44.93377" lon="6.08764">
        <ele>2578</ele>
        <time>2024-08-14T10:16:16Z</time>
      </trkpt>
      <trkpt lat="44.93377" lon="6.08768">
        <ele>2577.6</ele>
        <time>2024-08-14T10:16:17Z</time>
      </trkpt>
      <trkpt lat="44.93377" lon="6.08768">
        <ele>2577.6</ele>
        <time>2024-08-14T10:16:18Z</time>
      </trkpt>
      <trkpt lat="44.93377" lon="6.08768">
        <ele>2577.2</ele>
        <time>2024-08-14T10:16:19Z</time>
      </trkpt>
      <trkpt lat="44.93377" lon="6.08771">
        <ele>2576.8</ele>
        <time>2024-08-14T10:16:20Z</time>
      </trkpt>
      <trkpt lat="44.93377" lon="6.08771">
        <ele>2576.6</ele>
        <time>2024-08-14T10:16:21Z</time>
      </trkpt>
      <trkpt lat="44.93377" lon="6.08771">
        <ele>2575.8</ele>
        <time>2024-08-14T10:16:22Z</time>
      </trkpt>
      <trkpt lat="44.93377" lon="6.08775">
        <ele>2575.2</ele>
        <time>2024-08-14T10:16:23Z</time>
      </trkpt>
      <trkpt lat="44.93377" lon="6.08775">
        <ele>2575</ele>
        <time>2024-08-14T10:16:24Z</time>
      </trkpt>
      <trkpt lat="44.93377" lon="6.08778">
        <ele>2574.8</ele>
        <time>2024-08-14T10:16:25Z</time>
      </trkpt>
      <trkpt lat="44.93377" lon="6.08778">
        <ele>2574.4</ele>
        <time>2024-08-14T10:16:26Z</time>
      </trkpt>
      <trkpt lat="44.93377" lon="6.08778">
        <ele>2574</ele>
        <time>2024-08-14T10:16:27Z</time>
      </trkpt>
      <trkpt lat="44.93377" lon="6.08778">
        <ele>2573.6</ele>
        <time>2024-08-14T10:16:28Z</time>
      </trkpt>
      <trkpt lat="44.9338" lon="6.08778">
        <ele>2573.2</ele>
        <time>2024-08-14T10:16:29Z</time>
      </trkpt>
      <trkpt lat="44.9338" lon="6.08778">
        <ele>2573.2</ele>
        <time>2024-08-14T10:16:30Z</time>
      </trkpt>
      <trkpt lat="44.93381" lon="6.08776">
        <ele>2572.8</ele>
        <time>2024-08-14T10:16:31Z</time>
      </trkpt>
      <trkpt lat="44.93381" lon="6.08776">
        <ele>2572.8</ele>
        <time>2024-08-14T10:16:32Z</time>
      </trkpt>
      <trkpt lat="44.93383" lon="6.08774">
        <ele>2572.4</ele>
        <time>2024-08-14T10:16:33Z</time>
      </trkpt>
      <trkpt lat="44.93383" lon="6.08774">
        <ele>2572</ele>
        <time>2024-08-14T10:16:34Z</time>
      </trkpt>
      <trkpt lat="44.93385" lon="6.08773">
        <ele>2571.8</ele>
        <time>2024-08-14T10:16:35Z</time>
      </trkpt>
      <trkpt lat="44.93385" lon="6.08773">
        <ele>2571.6</ele>
        <time>2024-08-14T10:16:36Z</time>
      </trkpt>
      <trkpt lat="44.93387" lon="6.08771">
        <ele>2571.2</ele>
        <time>2024-08-14T10:16:37Z</time>
      </trkpt>
      <trkpt lat="44.93387" lon="6.08771">
        <ele>2570.8</ele>
        <time>2024-08-14T10:16:38Z</time>
      </trkpt>
      <trkpt lat="44.93389" lon="6.0877">
        <ele>2570.6</ele>
        <time>2024-08-14T10:16:39Z</time>
      </trkpt>
      <trkpt lat="44.93389" lon="6.0877">
        <ele>2570.2</ele>
        <time>2024-08-14T10:16:40Z</time>
      </trkpt>
      <trkpt lat="44.93389" lon="6.0877">
        <ele>2569.6</ele>
        <time>2024-08-14T10:16:41Z</time>
      </trkpt>
      <trkpt lat="44.93391" lon="6.08768">
        <ele>2569.2</ele>
        <time>2024-08-14T10:16:42Z</time>
      </trkpt>
      <trkpt lat="44.93391" lon="6.08768">
        <ele>2569</ele>
        <time>2024-08-14T10:16:43Z</time>
      </trkpt>
      <trkpt lat="44.93391" lon="6.08768">
        <ele>2568.8</ele>
        <time>2024-08-14T10:16:44Z</time>
      </trkpt>
      <trkpt lat="44.93391" lon="6.08768">
        <ele>2568.4</ele>
        <time>2024-08-14T10:16:45Z</time>
      </trkpt>
      <trkpt lat="44.93391" lon="6.08768">
        <ele>2568.4</ele>
        <time>2024-08-14T10:16:46Z</time>
      </trkpt>
      <trkpt lat="44.93391" lon="6.08768">
        <ele>2568.6</ele>
        <time>2024-08-14T10:16:47Z</time>
      </trkpt>
      <trkpt lat="44.93391" lon="6.08768">
        <ele>2568.6</ele>
        <time>2024-08-14T10:16:48Z</time>
      </trkpt>
      <trkpt lat="44.93393" lon="6.08767">
        <ele>2568.4</ele>
        <time>2024-08-14T10:16:49Z</time>
      </trkpt>
      <trkpt lat="44.93393" lon="6.08767">
        <ele>2568.2</ele>
        <time>2024-08-14T10:16:50Z</time>
      </trkpt>
      <trkpt lat="44.93395" lon="6.08767">
        <ele>2567.8</ele>
        <time>2024-08-14T10:16:51Z</time>
      </trkpt>
      <trkpt lat="44.93395" lon="6.08767">
        <ele>2567.6</ele>
        <time>2024-08-14T10:16:52Z</time>
      </trkpt>
      <trkpt lat="44.93397" lon="6.08767">
        <ele>2567.2</ele>
        <time>2024-08-14T10:16:53Z</time>
      </trkpt>
      <trkpt lat="44.93397" lon="6.08767">
        <ele>2566.6</ele>
        <time>2024-08-14T10:16:54Z</time>
      </trkpt>
      <trkpt lat="44.93397" lon="6.08767">
        <ele>2566</ele>
        <time>2024-08-14T10:16:55Z</time>
      </trkpt>
      <trkpt lat="44.93399" lon="6.08766">
        <ele>2565.8</ele>
        <time>2024-08-14T10:16:56Z</time>
      </trkpt>
      <trkpt lat="44.93399" lon="6.08766">
        <ele>2565.2</ele>
        <time>2024-08-14T10:16:57Z</time>
      </trkpt>
      <trkpt lat="44.93399" lon="6.08766">
        <ele>2565.2</ele>
        <time>2024-08-14T10:16:58Z</time>
      </trkpt>
      <trkpt lat="44.93402" lon="6.08766">
        <ele>2564.8</ele>
        <time>2024-08-14T10:16:59Z</time>
      </trkpt>
      <trkpt lat="44.93402" lon="6.08766">
        <ele>2564.2</ele>
        <time>2024-08-14T10:17:00Z</time>
      </trkpt>
      <trkpt lat="44.93402" lon="6.08766">
        <ele>2563.8</ele>
        <time>2024-08-14T10:17:01Z</time>
      </trkpt>
      <trkpt lat="44.93404" lon="6.08766">
        <ele>2563.6</ele>
        <time>2024-08-14T10:17:02Z</time>
      </trkpt>
      <trkpt lat="44.93404" lon="6.08766">
        <ele>2563.6</ele>
        <time>2024-08-14T10:17:03Z</time>
      </trkpt>
      <trkpt lat="44.93406" lon="6.08766">
        <ele>2563</ele>
        <time>2024-08-14T10:17:04Z</time>
      </trkpt>
      <trkpt lat="44.93406" lon="6.08766">
        <ele>2563</ele>
        <time>2024-08-14T10:17:05Z</time>
      </trkpt>
      <trkpt lat="44.93407" lon="6.0877">
        <ele>2562.8</ele>
        <time>2024-08-14T10:17:06Z</time>
      </trkpt>
      <trkpt lat="44.93407" lon="6.0877">
        <ele>2562.4</ele>
        <time>2024-08-14T10:17:07Z</time>
      </trkpt>
      <trkpt lat="44.93407" lon="6.0877">
        <ele>2561.8</ele>
        <time>2024-08-14T10:17:08Z</time>
      </trkpt>
      <trkpt lat="44.93407" lon="6.08773">
        <ele>2561.6</ele>
        <time>2024-08-14T10:17:09Z</time>
      </trkpt>
      <trkpt lat="44.93407" lon="6.08773">
        <ele>2561.4</ele>
        <time>2024-08-14T10:17:10Z</time>
      </trkpt>
      <trkpt lat="44.93407" lon="6.08776">
        <ele>2561.2</ele>
        <time>2024-08-14T10:17:11Z</time>
      </trkpt>
      <trkpt lat="44.93407" lon="6.08776">
        <ele>2560.8</ele>
        <time>2024-08-14T10:17:12Z</time>
      </trkpt>
      <trkpt lat="44.93407" lon="6.08779">
        <ele>2560.4</ele>
        <time>2024-08-14T10:17:13Z</time>
      </trkpt>
      <trkpt lat="44.93407" lon="6.08779">
        <ele>2560</ele>
        <time>2024-08-14T10:17:14Z</time>
      </trkpt>
      <trkpt lat="44.93407" lon="6.08782">
        <ele>2559.6</ele>
        <time>2024-08-14T10:17:15Z</time>
      </trkpt>
      <trkpt lat="44.93407" lon="6.08782">
        <ele>2559.4</ele>
        <time>2024-08-14T10:17:16Z</time>
      </trkpt>
      <trkpt lat="44.93407" lon="6.08782">
        <ele>2559.2</ele>
        <time>2024-08-14T10:17:17Z</time>
      </trkpt>
      <trkpt lat="44.93407" lon="6.08785">
        <ele>2558.8</ele>
        <time>2024-08-14T10:17:18Z</time>
      </trkpt>
      <trkpt lat="44.93407" lon="6.08785">
        <ele>2558.6</ele>
        <time>2024-08-14T10:17:19Z</time>
      </trkpt>
      <trkpt lat="44.93407" lon="6.08788">
        <ele>2558.2</ele>
        <time>2024-08-14T10:17:20Z</time>
      </trkpt>
      <trkpt lat="44.93407" lon="6.08788">
        <ele>2558</ele>
        <time>2024-08-14T10:17:21Z</time>
      </trkpt>
      <trkpt lat="44.93407" lon="6.08791">
        <ele>2557.8</ele>
        <time>2024-08-14T10:17:22Z</time>
      </trkpt>
      <trkpt lat="44.93407" lon="6.08791">
        <ele>2557.2</ele>
        <time>2024-08-14T10:17:23Z</time>
      </trkpt>
      <trkpt lat="44.93407" lon="6.08794">
        <ele>2557.2</ele>
        <time>2024-08-14T10:17:24Z</time>
      </trkpt>
      <trkpt lat="44.93407" lon="6.08794">
        <ele>2557</ele>
        <time>2024-08-14T10:17:25Z</time>
      </trkpt>
      <trkpt lat="44.93407" lon="6.08794">
        <ele>2556.8</ele>
        <time>2024-08-14T10:17:26Z</time>
      </trkpt>
      <trkpt lat="44.93408" lon="6.08798">
        <ele>2556.4</ele>
        <time>2024-08-14T10:17:27Z</time>
      </trkpt>
      <trkpt lat="44.93408" lon="6.08798">
        <ele>2556</ele>
        <time>2024-08-14T10:17:28Z</time>
      </trkpt>
      <trkpt lat="44.93408" lon="6.08801">
        <ele>2555.6</ele>
        <time>2024-08-14T10:17:29Z</time>
      </trkpt>
      <trkpt lat="44.93408" lon="6.08801">
        <ele>2555.4</ele>
        <time>2024-08-14T10:17:30Z</time>
      </trkpt>
      <trkpt lat="44.93409" lon="6.08803">
        <ele>2555</ele>
        <time>2024-08-14T10:17:31Z</time>
      </trkpt>
      <trkpt lat="44.93409" lon="6.08803">
        <ele>2554.6</ele>
        <time>2024-08-14T10:17:32Z</time>
      </trkpt>
      <trkpt lat="44.93409" lon="6.08803">
        <ele>2554.4</ele>
        <time>2024-08-14T10:17:33Z</time>
      </trkpt>
      <trkpt lat="44.93409" lon="6.08808">
        <ele>2554</ele>
        <time>2024-08-14T10:17:34Z</time>
      </trkpt>
      <trkpt lat="44.93409" lon="6.08808">
        <ele>2553.8</ele>
        <time>2024-08-14T10:17:35Z</time>
      </trkpt>
      <trkpt lat="44.93408" lon="6.08811">
        <ele>2553.4</ele>
        <time>2024-08-14T10:17:36Z</time>
      </trkpt>
      <trkpt lat="44.93408" lon="6.08811">
        <ele>2553</ele>
        <time>2024-08-14T10:17:37Z</time>
      </trkpt>
      <trkpt lat="44.93408" lon="6.08813">
        <ele>2552.6</ele>
        <time>2024-08-14T10:17:38Z</time>
      </trkpt>
      <trkpt lat="44.93408" lon="6.08813">
        <ele>2552.4</ele>
        <time>2024-08-14T10:17:39Z</time>
      </trkpt>
      <trkpt lat="44.93408" lon="6.08816">
        <ele>2552.4</ele>
        <time>2024-08-14T10:17:40Z</time>
      </trkpt>
      <trkpt lat="44.93408" lon="6.08816">
        <ele>2552</ele>
        <time>2024-08-14T10:17:41Z</time>
      </trkpt>
      <trkpt lat="44.93407" lon="6.08819">
        <ele>2551.4</ele>
        <time>2024-08-14T10:17:42Z</time>
      </trkpt>
      <trkpt lat="44.93407" lon="6.08819">
        <ele>2551</ele>
        <time>2024-08-14T10:17:43Z</time>
      </trkpt>
      <trkpt lat="44.93407" lon="6.08822">
        <ele>2550.8</ele>
        <time>2024-08-14T10:17:44Z</time>
      </trkpt>
      <trkpt lat="44.93407" lon="6.08822">
        <ele>2550.4</ele>
        <time>2024-08-14T10:17:45Z</time>
      </trkpt>
      <trkpt lat="44.93406" lon="6.08824">
        <ele>2550.2</ele>
        <time>2024-08-14T10:17:46Z</time>
      </trkpt>
      <trkpt lat="44.93406" lon="6.08824">
        <ele>2549.8</ele>
        <time>2024-08-14T10:17:47Z</time>
      </trkpt>
      <trkpt lat="44.93406" lon="6.08824">
        <ele>2549.4</ele>
        <time>2024-08-14T10:17:48Z</time>
      </trkpt>
      <trkpt lat="44.93404" lon="6.08827">
        <ele>2549.4</ele>
        <time>2024-08-14T10:17:49Z</time>
      </trkpt>
      <trkpt lat="44.93404" lon="6.08827">
        <ele>2548.8</ele>
        <time>2024-08-14T10:17:50Z</time>
      </trkpt>
      <trkpt lat="44.93404" lon="6.08827">
        <ele>2548.8</ele>
        <time>2024-08-14T10:17:51Z</time>
      </trkpt>
      <trkpt lat="44.93405" lon="6.08831">
        <ele>2548.4</ele>
        <time>2024-08-14T10:17:52Z</time>
      </trkpt>
      <trkpt lat="44.93405" lon="6.08831">
        <ele>2548</ele>
        <time>2024-08-14T10:17:53Z</time>
      </trkpt>
      <trkpt lat="44.93405" lon="6.08833">
        <ele>2547.8</ele>
        <time>2024-08-14T10:17:54Z</time>
      </trkpt>
      <trkpt lat="44.93405" lon="6.08833">
        <ele>2547.2</ele>
        <time>2024-08-14T10:17:55Z</time>
      </trkpt>
      <trkpt lat="44.93406" lon="6.08836">
        <ele>2547</ele>
        <time>2024-08-14T10:17:56Z</time>
      </trkpt>
      <trkpt lat="44.93406" lon="6.08836">
        <ele>2546.8</ele>
        <time>2024-08-14T10:17:57Z</time>
      </trkpt>
      <trkpt lat="44.93406" lon="6.08839">
        <ele>2546.6</ele>
        <time>2024-08-14T10:17:58Z</time>
      </trkpt>
      <trkpt lat="44.93406" lon="6.08839">
        <ele>2546.4</ele>
        <time>2024-08-14T10:17:59Z</time>
      </trkpt>
      <trkpt lat="44.93405" lon="6.08841">
        <ele>2545.8</ele>
        <time>2024-08-14T10:18:00Z</time>
      </trkpt>
      <trkpt lat="44.93405" lon="6.08841">
        <ele>2545.4</ele>
        <time>2024-08-14T10:18:01Z</time>
      </trkpt>
      <trkpt lat="44.93405" lon="6.08844">
        <ele>2544.8</ele>
        <time>2024-08-14T10:18:02Z</time>
      </trkpt>
      <trkpt lat="44.93405" lon="6.08844">
        <ele>2544.8</ele>
        <time>2024-08-14T10:18:03Z</time>
      </trkpt>
      <trkpt lat="44.93403" lon="6.08847">
        <ele>2544.8</ele>
        <time>2024-08-14T10:18:04Z</time>
      </trkpt>
      <trkpt lat="44.93403" lon="6.08847">
        <ele>2544.4</ele>
        <time>2024-08-14T10:18:05Z</time>
      </trkpt>
      <trkpt lat="44.93401" lon="6.08848">
        <ele>2544</ele>
        <time>2024-08-14T10:18:06Z</time>
      </trkpt>
      <trkpt lat="44.93401" lon="6.08848">
        <ele>2544</ele>
        <time>2024-08-14T10:18:07Z</time>
      </trkpt>
      <trkpt lat="44.93401" lon="6.08848">
        <ele>2543.8</ele>
        <time>2024-08-14T10:18:08Z</time>
      </trkpt>
      <trkpt lat="44.93403" lon="6.08851">
        <ele>2543.8</ele>
        <time>2024-08-14T10:18:09Z</time>
      </trkpt>
      <trkpt lat="44.93403" lon="6.08851">
        <ele>2543.6</ele>
        <time>2024-08-14T10:18:10Z</time>
      </trkpt>
      <trkpt lat="44.93403" lon="6.08851">
        <ele>2543.4</ele>
        <time>2024-08-14T10:18:11Z</time>
      </trkpt>
      <trkpt lat="44.93404" lon="6.08854">
        <ele>2543.4</ele>
        <time>2024-08-14T10:18:12Z</time>
      </trkpt>
      <trkpt lat="44.93404" lon="6.08854">
        <ele>2542.8</ele>
        <time>2024-08-14T10:18:13Z</time>
      </trkpt>
      <trkpt lat="44.93404" lon="6.08854">
        <ele>2542.4</ele>
        <time>2024-08-14T10:18:14Z</time>
      </trkpt>
      <trkpt lat="44.93404" lon="6.08857">
        <ele>2542.2</ele>
        <time>2024-08-14T10:18:15Z</time>
      </trkpt>
      <trkpt lat="44.93404" lon="6.08857">
        <ele>2541.8</ele>
        <time>2024-08-14T10:18:16Z</time>
      </trkpt>
      <trkpt lat="44.93403" lon="6.0886">
        <ele>2541.6</ele>
        <time>2024-08-14T10:18:17Z</time>
      </trkpt>
      <trkpt lat="44.93403" lon="6.0886">
        <ele>2541.4</ele>
        <time>2024-08-14T10:18:18Z</time>
      </trkpt>
      <trkpt lat="44.93404" lon="6.08862">
        <ele>2541.2</ele>
        <time>2024-08-14T10:18:19Z</time>
      </trkpt>
      <trkpt lat="44.93404" lon="6.08862">
        <ele>2541</ele>
        <time>2024-08-14T10:18:20Z</time>
      </trkpt>
      <trkpt lat="44.93405" lon="6.08864">
        <ele>2541</ele>
        <time>2024-08-14T10:18:21Z</time>
      </trkpt>
      <trkpt lat="44.93405" lon="6.08864">
        <ele>2540.6</ele>
        <time>2024-08-14T10:18:22Z</time>
      </trkpt>
      <trkpt lat="44.93405" lon="6.08864">
        <ele>2540.4</ele>
        <time>2024-08-14T10:18:23Z</time>
      </trkpt>
      <trkpt lat="44.93407" lon="6.08866">
        <ele>2539.8</ele>
        <time>2024-08-14T10:18:24Z</time>
      </trkpt>
      <trkpt lat="44.93407" lon="6.08866">
        <ele>2539.4</ele>
        <time>2024-08-14T10:18:25Z</time>
      </trkpt>
      <trkpt lat="44.93407" lon="6.08866">
        <ele>2539.2</ele>
        <time>2024-08-14T10:18:26Z</time>
      </trkpt>
      <trkpt lat="44.93408" lon="6.08869">
        <ele>2539</ele>
        <time>2024-08-14T10:18:27Z</time>
      </trkpt>
      <trkpt lat="44.93408" lon="6.08869">
        <ele>2538.8</ele>
        <time>2024-08-14T10:18:28Z</time>
      </trkpt>
      <trkpt lat="44.93408" lon="6.08869">
        <ele>2538.4</ele>
        <time>2024-08-14T10:18:29Z</time>
      </trkpt>
      <trkpt lat="44.93409" lon="6.08872">
        <ele>2538.2</ele>
        <time>2024-08-14T10:18:30Z</time>
      </trkpt>
      <trkpt lat="44.93409" lon="6.08872">
        <ele>2538</ele>
        <time>2024-08-14T10:18:31Z</time>
      </trkpt>
      <trkpt lat="44.93409" lon="6.08872">
        <ele>2537.8</ele>
        <time>2024-08-14T10:18:32Z</time>
      </trkpt>
      <trkpt lat="44.93412" lon="6.08874">
        <ele>2537.2</ele>
        <time>2024-08-14T10:18:33Z</time>
      </trkpt>
      <trkpt lat="44.93412" lon="6.08874">
        <ele>2537</ele>
        <time>2024-08-14T10:18:34Z</time>
      </trkpt>
      <trkpt lat="44.93413" lon="6.08876">
        <ele>2536.8</ele>
        <time>2024-08-14T10:18:35Z</time>
      </trkpt>
      <trkpt lat="44.93413" lon="6.08876">
        <ele>2536.4</ele>
        <time>2024-08-14T10:18:36Z</time>
      </trkpt>
      <trkpt lat="44.93413" lon="6.08879">
        <ele>2536</ele>
        <time>2024-08-14T10:18:37Z</time>
      </trkpt>
      <trkpt lat="44.93413" lon="6.08879">
        <ele>2535.8</ele>
        <time>2024-08-14T10:18:38Z</time>
      </trkpt>
      <trkpt lat="44.93413" lon="6.08879">
        <ele>2535.8</ele>
        <time>2024-08-14T10:18:39Z</time>
      </trkpt>
      <trkpt lat="44.93412" lon="6.08883">
        <ele>2535.2</ele>
        <time>2024-08-14T10:18:40Z</time>
      </trkpt>
      <trkpt lat="44.93412" lon="6.08883">
        <ele>2535</ele>
        <time>2024-08-14T10:18:41Z</time>
      </trkpt>
      <trkpt lat="44.93411" lon="6.08885">
        <ele>2534.8</ele>
        <time>2024-08-14T10:18:42Z</time>
      </trkpt>
      <trkpt lat="44.93411" lon="6.08885">
        <ele>2534.6</ele>
        <time>2024-08-14T10:18:43Z</time>
      </trkpt>
      <trkpt lat="44.9341" lon="6.08887">
        <ele>2534.2</ele>
        <time>2024-08-14T10:18:44Z</time>
      </trkpt>
      <trkpt lat="44.9341" lon="6.08887">
        <ele>2533.6</ele>
        <time>2024-08-14T10:18:45Z</time>
      </trkpt>
      <trkpt lat="44.9341" lon="6.08887">
        <ele>2533.4</ele>
        <time>2024-08-14T10:18:46Z</time>
      </trkpt>
      <trkpt lat="44.93409" lon="6.0889">
        <ele>2533</ele>
        <time>2024-08-14T10:18:47Z</time>
      </trkpt>
      <trkpt lat="44.93409" lon="6.0889">
        <ele>2532.8</ele>
        <time>2024-08-14T10:18:48Z</time>
      </trkpt>
      <trkpt lat="44.93409" lon="6.0889">
        <ele>2532.4</ele>
        <time>2024-08-14T10:18:49Z</time>
      </trkpt>
      <trkpt lat="44.93411" lon="6.0889">
        <ele>2532.4</ele>
        <time>2024-08-14T10:18:50Z</time>
      </trkpt>
      <trkpt lat="44.93411" lon="6.0889">
        <ele>2532</ele>
        <time>2024-08-14T10:18:51Z</time>
      </trkpt>
      <trkpt lat="44.93413" lon="6.0889">
        <ele>2531.6</ele>
        <time>2024-08-14T10:18:52Z</time>
      </trkpt>
      <trkpt lat="44.93413" lon="6.0889">
        <ele>2531.6</ele>
        <time>2024-08-14T10:18:53Z</time>
      </trkpt>
      <trkpt lat="44.93415" lon="6.0889">
        <ele>2531.2</ele>
        <time>2024-08-14T10:18:54Z</time>
      </trkpt>
      <trkpt lat="44.93415" lon="6.0889">
        <ele>2530.6</ele>
        <time>2024-08-14T10:18:55Z</time>
      </trkpt>
      <trkpt lat="44.93417" lon="6.0889">
        <ele>2530.4</ele>
        <time>2024-08-14T10:18:56Z</time>
      </trkpt>
      <trkpt lat="44.93417" lon="6.0889">
        <ele>2529.8</ele>
        <time>2024-08-14T10:18:57Z</time>
      </trkpt>
      <trkpt lat="44.93419" lon="6.0889">
        <ele>2529.6</ele>
        <time>2024-08-14T10:18:58Z</time>
      </trkpt>
      <trkpt lat="44.93419" lon="6.0889">
        <ele>2529.2</ele>
        <time>2024-08-14T10:18:59Z</time>
      </trkpt>
      <trkpt lat="44.93419" lon="6.0889">
        <ele>2528.8</ele>
        <time>2024-08-14T10:19:00Z</time>
      </trkpt>
      <trkpt lat="44.93421" lon="6.0889">
        <ele>2528.4</ele>
        <time>2024-08-14T10:19:01Z</time>
      </trkpt>
      <trkpt lat="44.93421" lon="6.0889">
        <ele>2528</ele>
        <time>2024-08-14T10:19:02Z</time>
      </trkpt>
      <trkpt lat="44.93421" lon="6.0889">
        <ele>2528</ele>
        <time>2024-08-14T10:19:03Z</time>
      </trkpt>
      <trkpt lat="44.93424" lon="6.08889">
        <ele>2527.6</ele>
        <time>2024-08-14T10:19:04Z</time>
      </trkpt>
      <trkpt lat="44.93424" lon="6.08889">
        <ele>2527.4</ele>
        <time>2024-08-14T10:19:05Z</time>
      </trkpt>
      <trkpt lat="44.93425" lon="6.08892">
        <ele>2527.2</ele>
        <time>2024-08-14T10:19:06Z</time>
      </trkpt>
      <trkpt lat="44.93425" lon="6.08892">
        <ele>2527</ele>
        <time>2024-08-14T10:19:07Z</time>
      </trkpt>
      <trkpt lat="44.93424" lon="6.08895">
        <ele>2526.2</ele>
        <time>2024-08-14T10:19:08Z</time>
      </trkpt>
      <trkpt lat="44.93424" lon="6.08895">
        <ele>2526.2</ele>
        <time>2024-08-14T10:19:09Z</time>
      </trkpt>
      <trkpt lat="44.93424" lon="6.08899">
        <ele>2525.8</ele>
        <time>2024-08-14T10:19:10Z</time>
      </trkpt>
      <trkpt lat="44.93424" lon="6.08899">
        <ele>2525.2</ele>
        <time>2024-08-14T10:19:11Z</time>
      </trkpt>
      <trkpt lat="44.93423" lon="6.08902">
        <ele>2525</ele>
        <time>2024-08-14T10:19:12Z</time>
      </trkpt>
      <trkpt lat="44.93423" lon="6.08902">
        <ele>2524.8</ele>
        <time>2024-08-14T10:19:13Z</time>
      </trkpt>
      <trkpt lat="44.93425" lon="6.08904">
        <ele>2524.2</ele>
        <time>2024-08-14T10:19:14Z</time>
      </trkpt>
      <trkpt lat="44.93425" lon="6.08904">
        <ele>2524</ele>
        <time>2024-08-14T10:19:15Z</time>
      </trkpt>
      <trkpt lat="44.93425" lon="6.08907">
        <ele>2524</ele>
        <time>2024-08-14T10:19:16Z</time>
      </trkpt>
      <trkpt lat="44.93425" lon="6.08907">
        <ele>2523.6</ele>
        <time>2024-08-14T10:19:17Z</time>
      </trkpt>
      <trkpt lat="44.93427" lon="6.0891">
        <ele>2523.4</ele>
        <time>2024-08-14T10:19:18Z</time>
      </trkpt>
      <trkpt lat="44.93427" lon="6.0891">
        <ele>2523</ele>
        <time>2024-08-14T10:19:19Z</time>
      </trkpt>
      <trkpt lat="44.93429" lon="6.08912">
        <ele>2522.6</ele>
        <time>2024-08-14T10:19:20Z</time>
      </trkpt>
      <trkpt lat="44.93429" lon="6.08912">
        <ele>2522.2</ele>
        <time>2024-08-14T10:19:21Z</time>
      </trkpt>
      <trkpt lat="44.93431" lon="6.08914">
        <ele>2521.8</ele>
        <time>2024-08-14T10:19:22Z</time>
      </trkpt>
      <trkpt lat="44.93431" lon="6.08914">
        <ele>2521.8</ele>
        <time>2024-08-14T10:19:23Z</time>
      </trkpt>
      <trkpt lat="44.93433" lon="6.08918">
        <ele>2521.6</ele>
        <time>2024-08-14T10:19:24Z</time>
      </trkpt>
      <trkpt lat="44.93433" lon="6.08918">
        <ele>2521.2</ele>
        <time>2024-08-14T10:19:25Z</time>
      </trkpt>
      <trkpt lat="44.93434" lon="6.08921">
        <ele>2520.6</ele>
        <time>2024-08-14T10:19:26Z</time>
      </trkpt>
      <trkpt lat="44.93434" lon="6.08921">
        <ele>2520.4</ele>
        <time>2024-08-14T10:19:27Z</time>
      </trkpt>
      <trkpt lat="44.93435" lon="6.08925">
        <ele>2519.8</ele>
        <time>2024-08-14T10:19:28Z</time>
      </trkpt>
      <trkpt lat="44.93435" lon="6.08925">
        <ele>2519.6</ele>
        <time>2024-08-14T10:19:29Z</time>
      </trkpt>
      <trkpt lat="44.93436" lon="6.08929">
        <ele>2519.4</ele>
        <time>2024-08-14T10:19:30Z</time>
      </trkpt>
      <trkpt lat="44.93436" lon="6.08929">
        <ele>2519.2</ele>
        <time>2024-08-14T10:19:31Z</time>
      </trkpt>
      <trkpt lat="44.93437" lon="6.08932">
        <ele>2518.6</ele>
        <time>2024-08-14T10:19:32Z</time>
      </trkpt>
      <trkpt lat="44.93437" lon="6.08932">
        <ele>2518.4</ele>
        <time>2024-08-14T10:19:33Z</time>
      </trkpt>
      <trkpt lat="44.93437" lon="6.08936">
        <ele>2518.4</ele>
        <time>2024-08-14T10:19:34Z</time>
      </trkpt>
      <trkpt lat="44.93437" lon="6.08936">
        <ele>2518</ele>
        <time>2024-08-14T10:19:35Z</time>
      </trkpt>
      <trkpt lat="44.93437" lon="6.0894">
        <ele>2517.8</ele>
        <time>2024-08-14T10:19:36Z</time>
      </trkpt>
      <trkpt lat="44.93437" lon="6.0894">
        <ele>2517.4</ele>
        <time>2024-08-14T10:19:37Z</time>
      </trkpt>
      <trkpt lat="44.93437" lon="6.08943">
        <ele>2517</ele>
        <time>2024-08-14T10:19:38Z</time>
      </trkpt>
      <trkpt lat="44.93437" lon="6.08943">
        <ele>2517</ele>
        <time>2024-08-14T10:19:39Z</time>
      </trkpt>
      <trkpt lat="44.93437" lon="6.08943">
        <ele>2516.4</ele>
        <time>2024-08-14T10:19:40Z</time>
      </trkpt>
      <trkpt lat="44.93437" lon="6.08946">
        <ele>2516</ele>
        <time>2024-08-14T10:19:41Z</time>
      </trkpt>
      <trkpt lat="44.93437" lon="6.08946">
        <ele>2515.8</ele>
        <time>2024-08-14T10:19:42Z</time>
      </trkpt>
      <trkpt lat="44.93437" lon="6.08949">
        <ele>2515.8</ele>
        <time>2024-08-14T10:19:43Z</time>
      </trkpt>
      <trkpt lat="44.93437" lon="6.08949">
        <ele>2515.6</ele>
        <time>2024-08-14T10:19:44Z</time>
      </trkpt>
      <trkpt lat="44.93437" lon="6.08952">
        <ele>2515</ele>
        <time>2024-08-14T10:19:45Z</time>
      </trkpt>
      <trkpt lat="44.93437" lon="6.08952">
        <ele>2514.4</ele>
        <time>2024-08-14T10:19:46Z</time>
      </trkpt>
      <trkpt lat="44.93437" lon="6.08952">
        <ele>2514.2</ele>
        <time>2024-08-14T10:19:47Z</time>
      </trkpt>
      <trkpt lat="44.93436" lon="6.08956">
        <ele>2513.8</ele>
        <time>2024-08-14T10:19:48Z</time>
      </trkpt>
      <trkpt lat="44.93436" lon="6.08956">
        <ele>2513.6</ele>
        <time>2024-08-14T10:19:49Z</time>
      </trkpt>
      <trkpt lat="44.93436" lon="6.08959">
        <ele>2513.4</ele>
        <time>2024-08-14T10:19:50Z</time>
      </trkpt>
      <trkpt lat="44.93436" lon="6.08959">
        <ele>2513.4</ele>
        <time>2024-08-14T10:19:51Z</time>
      </trkpt>
      <trkpt lat="44.93437" lon="6.08963">
        <ele>2513</ele>
        <time>2024-08-14T10:19:52Z</time>
      </trkpt>
      <trkpt lat="44.93437" lon="6.08963">
        <ele>2512.6</ele>
        <time>2024-08-14T10:19:53Z</time>
      </trkpt>
      <trkpt lat="44.93437" lon="6.08966">
        <ele>2512.6</ele>
        <time>2024-08-14T10:19:54Z</time>
      </trkpt>
      <trkpt lat="44.93437" lon="6.08966">
        <ele>2512.4</ele>
        <time>2024-08-14T10:19:55Z</time>
      </trkpt>
      <trkpt lat="44.93438" lon="6.08969">
        <ele>2512</ele>
        <time>2024-08-14T10:19:56Z</time>
      </trkpt>
      <trkpt lat="44.93438" lon="6.08969">
        <ele>2511.6</ele>
        <time>2024-08-14T10:19:57Z</time>
      </trkpt>
      <trkpt lat="44.93439" lon="6.08973">
        <ele>2511.6</ele>
        <time>2024-08-14T10:19:58Z</time>
      </trkpt>
      <trkpt lat="44.93439" lon="6.08973">
        <ele>2511.2</ele>
        <time>2024-08-14T10:19:59Z</time>
      </trkpt>
      <trkpt lat="44.93441" lon="6.08976">
        <ele>2511.2</ele>
        <time>2024-08-14T10:20:00Z</time>
      </trkpt>
      <trkpt lat="44.93441" lon="6.08976">
        <ele>2511</ele>
        <time>2024-08-14T10:20:01Z</time>
      </trkpt>
      <trkpt lat="44.93442" lon="6.08979">
        <ele>2510.8</ele>
        <time>2024-08-14T10:20:02Z</time>
      </trkpt>
      <trkpt lat="44.93442" lon="6.08979">
        <ele>2510.8</ele>
        <time>2024-08-14T10:20:03Z</time>
      </trkpt>
      <trkpt lat="44.93443" lon="6.08983">
        <ele>2510.8</ele>
        <time>2024-08-14T10:20:04Z</time>
      </trkpt>
      <trkpt lat="44.93443" lon="6.08983">
        <ele>2510.6</ele>
        <time>2024-08-14T10:20:05Z</time>
      </trkpt>
      <trkpt lat="44.93445" lon="6.08985">
        <ele>2510.4</ele>
        <time>2024-08-14T10:20:06Z</time>
      </trkpt>
      <trkpt lat="44.93445" lon="6.08985">
        <ele>2510.2</ele>
        <time>2024-08-14T10:20:07Z</time>
      </trkpt>
      <trkpt lat="44.93446" lon="6.08988">
        <ele>2510.2</ele>
        <time>2024-08-14T10:20:08Z</time>
      </trkpt>
      <trkpt lat="44.93446" lon="6.08988">
        <ele>2510.2</ele>
        <time>2024-08-14T10:20:09Z</time>
      </trkpt>
      <trkpt lat="44.93448" lon="6.08989">
        <ele>2509.8</ele>
        <time>2024-08-14T10:20:10Z</time>
      </trkpt>
      <trkpt lat="44.93448" lon="6.08989">
        <ele>2509.8</ele>
        <time>2024-08-14T10:20:11Z</time>
      </trkpt>
      <trkpt lat="44.9345" lon="6.08991">
        <ele>2509.8</ele>
        <time>2024-08-14T10:20:12Z</time>
      </trkpt>
      <trkpt lat="44.9345" lon="6.08991">
        <ele>2509.6</ele>
        <time>2024-08-14T10:20:13Z</time>
      </trkpt>
      <trkpt lat="44.93452" lon="6.08992">
        <ele>2509.6</ele>
        <time>2024-08-14T10:20:14Z</time>
      </trkpt>
      <trkpt lat="44.93452" lon="6.08992">
        <ele>2509.6</ele>
        <time>2024-08-14T10:20:15Z</time>
      </trkpt>
      <trkpt lat="44.93454" lon="6.08993">
        <ele>2509.2</ele>
        <time>2024-08-14T10:20:16Z</time>
      </trkpt>
      <trkpt lat="44.93454" lon="6.08993">
        <ele>2508.6</ele>
        <time>2024-08-14T10:20:17Z</time>
      </trkpt>
      <trkpt lat="44.93456" lon="6.08993">
        <ele>2508.4</ele>
        <time>2024-08-14T10:20:18Z</time>
      </trkpt>
      <trkpt lat="44.93456" lon="6.08993">
        <ele>2508.2</ele>
        <time>2024-08-14T10:20:19Z</time>
      </trkpt>
      <trkpt lat="44.93458" lon="6.08993">
        <ele>2508</ele>
        <time>2024-08-14T10:20:20Z</time>
      </trkpt>
      <trkpt lat="44.93458" lon="6.08993">
        <ele>2507.8</ele>
        <time>2024-08-14T10:20:21Z</time>
      </trkpt>
      <trkpt lat="44.93461" lon="6.08994">
        <ele>2507.8</ele>
        <time>2024-08-14T10:20:22Z</time>
      </trkpt>
      <trkpt lat="44.93461" lon="6.08994">
        <ele>2507.6</ele>
        <time>2024-08-14T10:20:23Z</time>
      </trkpt>
      <trkpt lat="44.93461" lon="6.08994">
        <ele>2507.4</ele>
        <time>2024-08-14T10:20:24Z</time>
      </trkpt>
      <trkpt lat="44.93463" lon="6.08993">
        <ele>2507</ele>
        <time>2024-08-14T10:20:25Z</time>
      </trkpt>
      <trkpt lat="44.93463" lon="6.08993">
        <ele>2506.8</ele>
        <time>2024-08-14T10:20:26Z</time>
      </trkpt>
      <trkpt lat="44.93465" lon="6.08992">
        <ele>2506.6</ele>
        <time>2024-08-14T10:20:27Z</time>
      </trkpt>
      <trkpt lat="44.93465" lon="6.08992">
        <ele>2506.2</ele>
        <time>2024-08-14T10:20:28Z</time>
      </trkpt>
      <trkpt lat="44.93467" lon="6.08993">
        <ele>2505.8</ele>
        <time>2024-08-14T10:20:29Z</time>
      </trkpt>
      <trkpt lat="44.93467" lon="6.08993">
        <ele>2505.4</ele>
        <time>2024-08-14T10:20:30Z</time>
      </trkpt>
      <trkpt lat="44.93469" lon="6.08993">
        <ele>2505.2</ele>
        <time>2024-08-14T10:20:31Z</time>
      </trkpt>
      <trkpt lat="44.93469" lon="6.08993">
        <ele>2505</ele>
        <time>2024-08-14T10:20:32Z</time>
      </trkpt>
      <trkpt lat="44.93471" lon="6.08993">
        <ele>2504.4</ele>
        <time>2024-08-14T10:20:33Z</time>
      </trkpt>
      <trkpt lat="44.93473" lon="6.08994">
        <ele>2504.2</ele>
        <time>2024-08-14T10:20:34Z</time>
      </trkpt>
      <trkpt lat="44.93473" lon="6.08994">
        <ele>2504.2</ele>
        <time>2024-08-14T10:20:35Z</time>
      </trkpt>
      <trkpt lat="44.93474" lon="6.08996">
        <ele>2503.8</ele>
        <time>2024-08-14T10:20:36Z</time>
      </trkpt>
      <trkpt lat="44.93474" lon="6.08996">
        <ele>2503.6</ele>
        <time>2024-08-14T10:20:37Z</time>
      </trkpt>
      <trkpt lat="44.93477" lon="6.08997">
        <ele>2503.4</ele>
        <time>2024-08-14T10:20:38Z</time>
      </trkpt>
      <trkpt lat="44.93477" lon="6.08997">
        <ele>2503.2</ele>
        <time>2024-08-14T10:20:39Z</time>
      </trkpt>
      <trkpt lat="44.93479" lon="6.08999">
        <ele>2503</ele>
        <time>2024-08-14T10:20:40Z</time>
      </trkpt>
      <trkpt lat="44.93479" lon="6.08999">
        <ele>2502.6</ele>
        <time>2024-08-14T10:20:41Z</time>
      </trkpt>
      <trkpt lat="44.93481" lon="6.09">
        <ele>2502.4</ele>
        <time>2024-08-14T10:20:42Z</time>
      </trkpt>
      <trkpt lat="44.93481" lon="6.09">
        <ele>2502.2</ele>
        <time>2024-08-14T10:20:43Z</time>
      </trkpt>
      <trkpt lat="44.93483" lon="6.09002">
        <ele>2502</ele>
        <time>2024-08-14T10:20:44Z</time>
      </trkpt>
      <trkpt lat="44.93483" lon="6.09002">
        <ele>2502</ele>
        <time>2024-08-14T10:20:45Z</time>
      </trkpt>
      <trkpt lat="44.93486" lon="6.09004">
        <ele>2501.6</ele>
        <time>2024-08-14T10:20:46Z</time>
      </trkpt>
      <trkpt lat="44.93486" lon="6.09004">
        <ele>2501</ele>
        <time>2024-08-14T10:20:47Z</time>
      </trkpt>
      <trkpt lat="44.93488" lon="6.09005">
        <ele>2500.8</ele>
        <time>2024-08-14T10:20:48Z</time>
      </trkpt>
      <trkpt lat="44.93488" lon="6.09005">
        <ele>2500.8</ele>
        <time>2024-08-14T10:20:49Z</time>
      </trkpt>
      <trkpt lat="44.93489" lon="6.09007">
        <ele>2500.6</ele>
        <time>2024-08-14T10:20:50Z</time>
      </trkpt>
      <trkpt lat="44.93489" lon="6.09007">
        <ele>2500.2</ele>
        <time>2024-08-14T10:20:51Z</time>
      </trkpt>
      <trkpt lat="44.93491" lon="6.09009">
        <ele>2499.6</ele>
        <time>2024-08-14T10:20:52Z</time>
      </trkpt>
      <trkpt lat="44.93491" lon="6.09009">
        <ele>2499.4</ele>
        <time>2024-08-14T10:20:53Z</time>
      </trkpt>
      <trkpt lat="44.93493" lon="6.09011">
        <ele>2499.2</ele>
        <time>2024-08-14T10:20:54Z</time>
      </trkpt>
      <trkpt lat="44.93493" lon="6.09011">
        <ele>2498.8</ele>
        <time>2024-08-14T10:20:55Z</time>
      </trkpt>
      <trkpt lat="44.93493" lon="6.09011">
        <ele>2498.6</ele>
        <time>2024-08-14T10:20:56Z</time>
      </trkpt>
      <trkpt lat="44.93495" lon="6.09011">
        <ele>2498.4</ele>
        <time>2024-08-14T10:20:57Z</time>
      </trkpt>
      <trkpt lat="44.93495" lon="6.09011">
        <ele>2498.4</ele>
        <time>2024-08-14T10:20:58Z</time>
      </trkpt>
      <trkpt lat="44.93497" lon="6.09011">
        <ele>2497.6</ele>
        <time>2024-08-14T10:20:59Z</time>
      </trkpt>
      <trkpt lat="44.93497" lon="6.09011">
        <ele>2497.6</ele>
        <time>2024-08-14T10:21:00Z</time>
      </trkpt>
      <trkpt lat="44.93497" lon="6.09011">
        <ele>2497.4</ele>
        <time>2024-08-14T10:21:01Z</time>
      </trkpt>
      <trkpt lat="44.935" lon="6.09012">
        <ele>2496.8</ele>
        <time>2024-08-14T10:21:02Z</time>
      </trkpt>
      <trkpt lat="44.935" lon="6.09012">
        <ele>2496.8</ele>
        <time>2024-08-14T10:21:03Z</time>
      </trkpt>
      <trkpt lat="44.93502" lon="6.09012">
        <ele>2496.2</ele>
        <time>2024-08-14T10:21:04Z</time>
      </trkpt>
      <trkpt lat="44.93502" lon="6.09012">
        <ele>2496</ele>
        <time>2024-08-14T10:21:05Z</time>
      </trkpt>
      <trkpt lat="44.93502" lon="6.09012">
        <ele>2496</ele>
        <time>2024-08-14T10:21:06Z</time>
      </trkpt>
      <trkpt lat="44.93504" lon="6.09012">
        <ele>2495.6</ele>
        <time>2024-08-14T10:21:07Z</time>
      </trkpt>
      <trkpt lat="44.93504" lon="6.09012">
        <ele>2495.2</ele>
        <time>2024-08-14T10:21:08Z</time>
      </trkpt>
      <trkpt lat="44.93504" lon="6.09012">
        <ele>2494.8</ele>
        <time>2024-08-14T10:21:09Z</time>
      </trkpt>
      <trkpt lat="44.93507" lon="6.09012">
        <ele>2494.6</ele>
        <time>2024-08-14T10:21:10Z</time>
      </trkpt>
      <trkpt lat="44.93507" lon="6.09012">
        <ele>2494.4</ele>
        <time>2024-08-14T10:21:11Z</time>
      </trkpt>
      <trkpt lat="44.93507" lon="6.09012">
        <ele>2493.8</ele>
        <time>2024-08-14T10:21:12Z</time>
      </trkpt>
      <trkpt lat="44.93509" lon="6.09012">
        <ele>2493.6</ele>
        <time>2024-08-14T10:21:13Z</time>
      </trkpt>
      <trkpt lat="44.93509" lon="6.09012">
        <ele>2493.2</ele>
        <time>2024-08-14T10:21:14Z</time>
      </trkpt>
      <trkpt lat="44.93509" lon="6.09012">
        <ele>2493.2</ele>
        <time>2024-08-14T10:21:15Z</time>
      </trkpt>
      <trkpt lat="44.93511" lon="6.09011">
        <ele>2493.2</ele>
        <time>2024-08-14T10:21:16Z</time>
      </trkpt>
      <trkpt lat="44.93511" lon="6.09011">
        <ele>2492.6</ele>
        <time>2024-08-14T10:21:17Z</time>
      </trkpt>
      <trkpt lat="44.93511" lon="6.09011">
        <ele>2492.4</ele>
        <time>2024-08-14T10:21:18Z</time>
      </trkpt>
      <trkpt lat="44.93514" lon="6.09011">
        <ele>2491.8</ele>
        <time>2024-08-14T10:21:19Z</time>
      </trkpt>
      <trkpt lat="44.93514" lon="6.09011">
        <ele>2491.6</ele>
        <time>2024-08-14T10:21:20Z</time>
      </trkpt>
      <trkpt lat="44.93514" lon="6.09011">
        <ele>2491.4</ele>
        <time>2024-08-14T10:21:21Z</time>
      </trkpt>
      <trkpt lat="44.93516" lon="6.09009">
        <ele>2491.4</ele>
        <time>2024-08-14T10:21:22Z</time>
      </trkpt>
      <trkpt lat="44.93516" lon="6.09009">
        <ele>2490.8</ele>
        <time>2024-08-14T10:21:23Z</time>
      </trkpt>
      <trkpt lat="44.93516" lon="6.09009">
        <ele>2490.4</ele>
        <time>2024-08-14T10:21:24Z</time>
      </trkpt>
      <trkpt lat="44.93518" lon="6.09008">
        <ele>2490.2</ele>
        <time>2024-08-14T10:21:25Z</time>
      </trkpt>
      <trkpt lat="44.93518" lon="6.09008">
        <ele>2490</ele>
        <time>2024-08-14T10:21:26Z</time>
      </trkpt>
      <trkpt lat="44.93518" lon="6.09008">
        <ele>2489.6</ele>
        <time>2024-08-14T10:21:27Z</time>
      </trkpt>
      <trkpt lat="44.9352" lon="6.09007">
        <ele>2489.6</ele>
        <time>2024-08-14T10:21:28Z</time>
      </trkpt>
      <trkpt lat="44.9352" lon="6.09007">
        <ele>2489.4</ele>
        <time>2024-08-14T10:21:29Z</time>
      </trkpt>
      <trkpt lat="44.9352" lon="6.09007">
        <ele>2489</ele>
        <time>2024-08-14T10:21:30Z</time>
      </trkpt>
      <trkpt lat="44.93522" lon="6.09004">
        <ele>2488.6</ele>
        <time>2024-08-14T10:21:31Z</time>
      </trkpt>
      <trkpt lat="44.93522" lon="6.09004">
        <ele>2488.2</ele>
        <time>2024-08-14T10:21:32Z</time>
      </trkpt>
      <trkpt lat="44.93524" lon="6.09003">
        <ele>2488</ele>
        <time>2024-08-14T10:21:33Z</time>
      </trkpt>
      <trkpt lat="44.93524" lon="6.09003">
        <ele>2488</ele>
        <time>2024-08-14T10:21:34Z</time>
      </trkpt>
      <trkpt lat="44.93524" lon="6.09003">
        <ele>2487.8</ele>
        <time>2024-08-14T10:21:35Z</time>
      </trkpt>
      <trkpt lat="44.93526" lon="6.09002">
        <ele>2487.6</ele>
        <time>2024-08-14T10:21:36Z</time>
      </trkpt>
      <trkpt lat="44.93526" lon="6.09002">
        <ele>2487.6</ele>
        <time>2024-08-14T10:21:37Z</time>
      </trkpt>
      <trkpt lat="44.93528" lon="6.09002">
        <ele>2487</ele>
        <time>2024-08-14T10:21:38Z</time>
      </trkpt>
      <trkpt lat="44.93528" lon="6.09002">
        <ele>2486.8</ele>
        <time>2024-08-14T10:21:39Z</time>
      </trkpt>
      <trkpt lat="44.9353" lon="6.09002">
        <ele>2486.6</ele>
        <time>2024-08-14T10:21:40Z</time>
      </trkpt>
      <trkpt lat="44.9353" lon="6.09002">
        <ele>2486.4</ele>
        <time>2024-08-14T10:21:41Z</time>
      </trkpt>
      <trkpt lat="44.93532" lon="6.09003">
        <ele>2486</ele>
        <time>2024-08-14T10:21:42Z</time>
      </trkpt>
      <trkpt lat="44.93532" lon="6.09003">
        <ele>2486</ele>
        <time>2024-08-14T10:21:43Z</time>
      </trkpt>
      <trkpt lat="44.93532" lon="6.09003">
        <ele>2485.6</ele>
        <time>2024-08-14T10:21:44Z</time>
      </trkpt>
      <trkpt lat="44.93534" lon="6.09004">
        <ele>2485.4</ele>
        <time>2024-08-14T10:21:45Z</time>
      </trkpt>
      <trkpt lat="44.93534" lon="6.09004">
        <ele>2484.6</ele>
        <time>2024-08-14T10:21:46Z</time>
      </trkpt>
      <trkpt lat="44.93536" lon="6.09006">
        <ele>2484.4</ele>
        <time>2024-08-14T10:21:47Z</time>
      </trkpt>
      <trkpt lat="44.93536" lon="6.09006">
        <ele>2484.2</ele>
        <time>2024-08-14T10:21:48Z</time>
      </trkpt>
      <trkpt lat="44.93536" lon="6.09006">
        <ele>2483.4</ele>
        <time>2024-08-14T10:21:49Z</time>
      </trkpt>
      <trkpt lat="44.93538" lon="6.09005">
        <ele>2483.4</ele>
        <time>2024-08-14T10:21:50Z</time>
      </trkpt>
      <trkpt lat="44.93538" lon="6.09005">
        <ele>2483.4</ele>
        <time>2024-08-14T10:21:51Z</time>
      </trkpt>
      <trkpt lat="44.93538" lon="6.09005">
        <ele>2483.2</ele>
        <time>2024-08-14T10:21:52Z</time>
      </trkpt>
      <trkpt lat="44.93538" lon="6.09002">
        <ele>2483</ele>
        <time>2024-08-14T10:21:53Z</time>
      </trkpt>
      <trkpt lat="44.93538" lon="6.09002">
        <ele>2482.8</ele>
        <time>2024-08-14T10:21:54Z</time>
      </trkpt>
      <trkpt lat="44.93538" lon="6.09002">
        <ele>2482.4</ele>
        <time>2024-08-14T10:21:55Z</time>
      </trkpt>
      <trkpt lat="44.93539" lon="6.08998">
        <ele>2482.4</ele>
        <time>2024-08-14T10:21:56Z</time>
      </trkpt>
      <trkpt lat="44.93539" lon="6.08998">
        <ele>2482</ele>
        <time>2024-08-14T10:21:57Z</time>
      </trkpt>
      <trkpt lat="44.9354" lon="6.08995">
        <ele>2481.8</ele>
        <time>2024-08-14T10:21:58Z</time>
      </trkpt>
      <trkpt lat="44.9354" lon="6.08995">
        <ele>2481.6</ele>
        <time>2024-08-14T10:21:59Z</time>
      </trkpt>
      <trkpt lat="44.93541" lon="6.08992">
        <ele>2481.4</ele>
        <time>2024-08-14T10:22:00Z</time>
      </trkpt>
      <trkpt lat="44.93541" lon="6.08992">
        <ele>2481.2</ele>
        <time>2024-08-14T10:22:01Z</time>
      </trkpt>
      <trkpt lat="44.93541" lon="6.08992">
        <ele>2480.6</ele>
        <time>2024-08-14T10:22:02Z</time>
      </trkpt>
      <trkpt lat="44.93543" lon="6.0899">
        <ele>2480.6</ele>
        <time>2024-08-14T10:22:03Z</time>
      </trkpt>
      <trkpt lat="44.93543" lon="6.0899">
        <ele>2480.4</ele>
        <time>2024-08-14T10:22:04Z</time>
      </trkpt>
      <trkpt lat="44.93544" lon="6.08986">
        <ele>2479.8</ele>
        <time>2024-08-14T10:22:05Z</time>
      </trkpt>
      <trkpt lat="44.93544" lon="6.08986">
        <ele>2479.4</ele>
        <time>2024-08-14T10:22:06Z</time>
      </trkpt>
      <trkpt lat="44.93545" lon="6.08984">
        <ele>2479</ele>
        <time>2024-08-14T10:22:07Z</time>
      </trkpt>
      <trkpt lat="44.93545" lon="6.08984">
        <ele>2479</ele>
        <time>2024-08-14T10:22:08Z</time>
      </trkpt>
      <trkpt lat="44.93546" lon="6.08981">
        <ele>2478.8</ele>
        <time>2024-08-14T10:22:09Z</time>
      </trkpt>
      <trkpt lat="44.93546" lon="6.08981">
        <ele>2478.4</ele>
        <time>2024-08-14T10:22:10Z</time>
      </trkpt>
      <trkpt lat="44.93548" lon="6.08981">
        <ele>2478.2</ele>
        <time>2024-08-14T10:22:11Z</time>
      </trkpt>
      <trkpt lat="44.93548" lon="6.08981">
        <ele>2478</ele>
        <time>2024-08-14T10:22:12Z</time>
      </trkpt>
      <trkpt lat="44.9355" lon="6.08984">
        <ele>2477.8</ele>
        <time>2024-08-14T10:22:13Z</time>
      </trkpt>
      <trkpt lat="44.9355" lon="6.08984">
        <ele>2477.4</ele>
        <time>2024-08-14T10:22:14Z</time>
      </trkpt>
      <trkpt lat="44.9355" lon="6.08984">
        <ele>2477</ele>
        <time>2024-08-14T10:22:15Z</time>
      </trkpt>
      <trkpt lat="44.93551" lon="6.08986">
        <ele>2476.6</ele>
        <time>2024-08-14T10:22:16Z</time>
      </trkpt>
      <trkpt lat="44.93551" lon="6.08986">
        <ele>2476.6</ele>
        <time>2024-08-14T10:22:17Z</time>
      </trkpt>
      <trkpt lat="44.93551" lon="6.08986">
        <ele>2476.4</ele>
        <time>2024-08-14T10:22:18Z</time>
      </trkpt>
      <trkpt lat="44.93553" lon="6.08984">
        <ele>2476.4</ele>
        <time>2024-08-14T10:22:19Z</time>
      </trkpt>
      <trkpt lat="44.93553" lon="6.08984">
        <ele>2476.2</ele>
        <time>2024-08-14T10:22:20Z</time>
      </trkpt>
      <trkpt lat="44.93553" lon="6.08984">
        <ele>2476</ele>
        <time>2024-08-14T10:22:21Z</time>
      </trkpt>
      <trkpt lat="44.93555" lon="6.08982">
        <ele>2475.6</ele>
        <time>2024-08-14T10:22:22Z</time>
      </trkpt>
      <trkpt lat="44.93555" lon="6.08982">
        <ele>2475</ele>
        <time>2024-08-14T10:22:23Z</time>
      </trkpt>
      <trkpt lat="44.93555" lon="6.08982">
        <ele>2475</ele>
        <time>2024-08-14T10:22:24Z</time>
      </trkpt>
      <trkpt lat="44.93555" lon="6.08982">
        <ele>2475</ele>
        <time>2024-08-14T10:22:25Z</time>
      </trkpt>
      <trkpt lat="44.93555" lon="6.08982">
        <ele>2474.8</ele>
        <time>2024-08-14T10:22:26Z</time>
      </trkpt>
      <trkpt lat="44.93555" lon="6.08982">
        <ele>2474.8</ele>
        <time>2024-08-14T10:22:27Z</time>
      </trkpt>
      <trkpt lat="44.93555" lon="6.08982">
        <ele>2474.8</ele>
        <time>2024-08-14T10:22:28Z</time>
      </trkpt>
      <trkpt lat="44.93555" lon="6.08982">
        <ele>2474.6</ele>
        <time>2024-08-14T10:22:29Z</time>
      </trkpt>
      <trkpt lat="44.93555" lon="6.08982">
        <ele>2474.4</ele>
        <time>2024-08-14T10:22:30Z</time>
      </trkpt>
      <trkpt lat="44.93555" lon="6.08982">
        <ele>2474.4</ele>
        <time>2024-08-14T10:22:31Z</time>
      </trkpt>
      <trkpt lat="44.93555" lon="6.08982">
        <ele>2474.2</ele>
        <time>2024-08-14T10:22:32Z</time>
      </trkpt>
      <trkpt lat="44.93555" lon="6.08982">
        <ele>2473.8</ele>
        <time>2024-08-14T10:22:33Z</time>
      </trkpt>
      <trkpt lat="44.93555" lon="6.08982">
        <ele>2473.6</ele>
        <time>2024-08-14T10:22:34Z</time>
      </trkpt>
      <trkpt lat="44.93555" lon="6.08982">
        <ele>2473.4</ele>
        <time>2024-08-14T10:22:35Z</time>
      </trkpt>
      <trkpt lat="44.93557" lon="6.08983">
        <ele>2473.2</ele>
        <time>2024-08-14T10:22:36Z</time>
      </trkpt>
      <trkpt lat="44.93557" lon="6.08983">
        <ele>2473</ele>
        <time>2024-08-14T10:22:37Z</time>
      </trkpt>
      <trkpt lat="44.9356" lon="6.08983">
        <ele>2472.8</ele>
        <time>2024-08-14T10:22:38Z</time>
      </trkpt>
      <trkpt lat="44.9356" lon="6.08983">
        <ele>2472.4</ele>
        <time>2024-08-14T10:22:39Z</time>
      </trkpt>
      <trkpt lat="44.93562" lon="6.08981">
        <ele>2472.4</ele>
        <time>2024-08-14T10:22:40Z</time>
      </trkpt>
      <trkpt lat="44.93562" lon="6.08981">
        <ele>2472.2</ele>
        <time>2024-08-14T10:22:41Z</time>
      </trkpt>
      <trkpt lat="44.93562" lon="6.08981">
        <ele>2472</ele>
        <time>2024-08-14T10:22:42Z</time>
      </trkpt>
      <trkpt lat="44.93565" lon="6.0898">
        <ele>2472</ele>
        <time>2024-08-14T10:22:43Z</time>
      </trkpt>
      <trkpt lat="44.93565" lon="6.0898">
        <ele>2471.4</ele>
        <time>2024-08-14T10:22:44Z</time>
      </trkpt>
      <trkpt lat="44.93565" lon="6.0898">
        <ele>2471</ele>
        <time>2024-08-14T10:22:45Z</time>
      </trkpt>
      <trkpt lat="44.93567" lon="6.0898">
        <ele>2470.4</ele>
        <time>2024-08-14T10:22:46Z</time>
      </trkpt>
      <trkpt lat="44.93567" lon="6.0898">
        <ele>2469.8</ele>
        <time>2024-08-14T10:22:47Z</time>
      </trkpt>
      <trkpt lat="44.93567" lon="6.0898">
        <ele>2469.6</ele>
        <time>2024-08-14T10:22:48Z</time>
      </trkpt>
      <trkpt lat="44.93569" lon="6.0898">
        <ele>2469.2</ele>
        <time>2024-08-14T10:22:49Z</time>
      </trkpt>
      <trkpt lat="44.93569" lon="6.0898">
        <ele>2469</ele>
        <time>2024-08-14T10:22:50Z</time>
      </trkpt>
      <trkpt lat="44.93571" lon="6.0898">
        <ele>2468.6</ele>
        <time>2024-08-14T10:22:51Z</time>
      </trkpt>
      <trkpt lat="44.93571" lon="6.0898">
        <ele>2468.2</ele>
        <time>2024-08-14T10:22:52Z</time>
      </trkpt>
      <trkpt lat="44.93571" lon="6.0898">
        <ele>2467.6</ele>
        <time>2024-08-14T10:22:53Z</time>
      </trkpt>
      <trkpt lat="44.93573" lon="6.0898">
        <ele>2467</ele>
        <time>2024-08-14T10:22:54Z</time>
      </trkpt>
      <trkpt lat="44.93573" lon="6.0898">
        <ele>2466.6</ele>
        <time>2024-08-14T10:22:55Z</time>
      </trkpt>
      <trkpt lat="44.93573" lon="6.0898">
        <ele>2466.4</ele>
        <time>2024-08-14T10:22:56Z</time>
      </trkpt>
      <trkpt lat="44.93576" lon="6.0898">
        <ele>2466.2</ele>
        <time>2024-08-14T10:22:57Z</time>
      </trkpt>
      <trkpt lat="44.93576" lon="6.0898">
        <ele>2465.6</ele>
        <time>2024-08-14T10:22:58Z</time>
      </trkpt>
      <trkpt lat="44.93576" lon="6.0898">
        <ele>2465.2</ele>
        <time>2024-08-14T10:22:59Z</time>
      </trkpt>
      <trkpt lat="44.93578" lon="6.08979">
        <ele>2464.8</ele>
        <time>2024-08-14T10:23:00Z</time>
      </trkpt>
      <trkpt lat="44.93578" lon="6.08979">
        <ele>2464.6</ele>
        <time>2024-08-14T10:23:01Z</time>
      </trkpt>
      <trkpt lat="44.9358" lon="6.08978">
        <ele>2464.4</ele>
        <time>2024-08-14T10:23:02Z</time>
      </trkpt>
      <trkpt lat="44.9358" lon="6.08978">
        <ele>2464.4</ele>
        <time>2024-08-14T10:23:03Z</time>
      </trkpt>
      <trkpt lat="44.93582" lon="6.08978">
        <ele>2463.8</ele>
        <time>2024-08-14T10:23:04Z</time>
      </trkpt>
      <trkpt lat="44.93582" lon="6.08978">
        <ele>2463.4</ele>
        <time>2024-08-14T10:23:05Z</time>
      </trkpt>
      <trkpt lat="44.93582" lon="6.08978">
        <ele>2463</ele>
        <time>2024-08-14T10:23:06Z</time>
      </trkpt>
      <trkpt lat="44.93582" lon="6.08975">
        <ele>2462.8</ele>
        <time>2024-08-14T10:23:07Z</time>
      </trkpt>
      <trkpt lat="44.93582" lon="6.08975">
        <ele>2462.4</ele>
        <time>2024-08-14T10:23:08Z</time>
      </trkpt>
      <trkpt lat="44.93582" lon="6.08975">
        <ele>2462.2</ele>
        <time>2024-08-14T10:23:09Z</time>
      </trkpt>
      <trkpt lat="44.93582" lon="6.08972">
        <ele>2461.8</ele>
        <time>2024-08-14T10:23:10Z</time>
      </trkpt>
      <trkpt lat="44.93582" lon="6.08972">
        <ele>2461.6</ele>
        <time>2024-08-14T10:23:11Z</time>
      </trkpt>
      <trkpt lat="44.93582" lon="6.08969">
        <ele>2461.2</ele>
        <time>2024-08-14T10:23:12Z</time>
      </trkpt>
      <trkpt lat="44.93582" lon="6.08969">
        <ele>2460.8</ele>
        <time>2024-08-14T10:23:13Z</time>
      </trkpt>
      <trkpt lat="44.93582" lon="6.08969">
        <ele>2460.8</ele>
        <time>2024-08-14T10:23:14Z</time>
      </trkpt>
      <trkpt lat="44.93584" lon="6.08968">
        <ele>2460.4</ele>
        <time>2024-08-14T10:23:15Z</time>
      </trkpt>
      <trkpt lat="44.93584" lon="6.08968">
        <ele>2460</ele>
        <time>2024-08-14T10:23:16Z</time>
      </trkpt>
      <trkpt lat="44.93586" lon="6.08969">
        <ele>2459.8</ele>
        <time>2024-08-14T10:23:17Z</time>
      </trkpt>
      <trkpt lat="44.93586" lon="6.08969">
        <ele>2459.4</ele>
        <time>2024-08-14T10:23:18Z</time>
      </trkpt>
      <trkpt lat="44.93586" lon="6.08969">
        <ele>2459</ele>
        <time>2024-08-14T10:23:19Z</time>
      </trkpt>
      <trkpt lat="44.93589" lon="6.08971">
        <ele>2458.8</ele>
        <time>2024-08-14T10:23:20Z</time>
      </trkpt>
      <trkpt lat="44.93589" lon="6.08971">
        <ele>2458.4</ele>
        <time>2024-08-14T10:23:21Z</time>
      </trkpt>
      <trkpt lat="44.9359" lon="6.08973">
        <ele>2458.2</ele>
        <time>2024-08-14T10:23:22Z</time>
      </trkpt>
      <trkpt lat="44.9359" lon="6.08973">
        <ele>2458</ele>
        <time>2024-08-14T10:23:23Z</time>
      </trkpt>
      <trkpt lat="44.93591" lon="6.08975">
        <ele>2457.6</ele>
        <time>2024-08-14T10:23:24Z</time>
      </trkpt>
      <trkpt lat="44.93591" lon="6.08975">
        <ele>2457.6</ele>
        <time>2024-08-14T10:23:25Z</time>
      </trkpt>
      <trkpt lat="44.93592" lon="6.08978">
        <ele>2457.2</ele>
        <time>2024-08-14T10:23:26Z</time>
      </trkpt>
      <trkpt lat="44.93592" lon="6.08978">
        <ele>2456.6</ele>
        <time>2024-08-14T10:23:27Z</time>
      </trkpt>
      <trkpt lat="44.93592" lon="6.08978">
        <ele>2456.2</ele>
        <time>2024-08-14T10:23:28Z</time>
      </trkpt>
      <trkpt lat="44.93592" lon="6.08978">
        <ele>2456.2</ele>
        <time>2024-08-14T10:23:29Z</time>
      </trkpt>
      <trkpt lat="44.93594" lon="6.08977">
        <ele>2456</ele>
        <time>2024-08-14T10:23:30Z</time>
      </trkpt>
      <trkpt lat="44.93594" lon="6.08977">
        <ele>2455.8</ele>
        <time>2024-08-14T10:23:31Z</time>
      </trkpt>
      <trkpt lat="44.93595" lon="6.08974">
        <ele>2455.4</ele>
        <time>2024-08-14T10:23:32Z</time>
      </trkpt>
      <trkpt lat="44.93595" lon="6.08974">
        <ele>2455</ele>
        <time>2024-08-14T10:23:33Z</time>
      </trkpt>
      <trkpt lat="44.93595" lon="6.08974">
        <ele>2454.8</ele>
        <time>2024-08-14T10:23:34Z</time>
      </trkpt>
      <trkpt lat="44.93597" lon="6.08972">
        <ele>2454.4</ele>
        <time>2024-08-14T10:23:35Z</time>
      </trkpt>
      <trkpt lat="44.93597" lon="6.08972">
        <ele>2454.2</ele>
        <time>2024-08-14T10:23:36Z</time>
      </trkpt>
      <trkpt lat="44.93597" lon="6.08972">
        <ele>2453.8</ele>
        <time>2024-08-14T10:23:37Z</time>
      </trkpt>
      <trkpt lat="44.93598" lon="6.08968">
        <ele>2453.6</ele>
        <time>2024-08-14T10:23:38Z</time>
      </trkpt>
      <trkpt lat="44.93598" lon="6.08968">
        <ele>2453.4</ele>
        <time>2024-08-14T10:23:39Z</time>
      </trkpt>
      <trkpt lat="44.936" lon="6.08968">
        <ele>2453.2</ele>
        <time>2024-08-14T10:23:40Z</time>
      </trkpt>
      <trkpt lat="44.936" lon="6.08968">
        <ele>2452.6</ele>
        <time>2024-08-14T10:23:41Z</time>
      </trkpt>
      <trkpt lat="44.93601" lon="6.08969">
        <ele>2452.4</ele>
        <time>2024-08-14T10:23:42Z</time>
      </trkpt>
      <trkpt lat="44.93601" lon="6.08969">
        <ele>2451.8</ele>
        <time>2024-08-14T10:23:43Z</time>
      </trkpt>
      <trkpt lat="44.93601" lon="6.08969">
        <ele>2451.4</ele>
        <time>2024-08-14T10:23:44Z</time>
      </trkpt>
      <trkpt lat="44.93603" lon="6.08972">
        <ele>2451.2</ele>
        <time>2024-08-14T10:23:45Z</time>
      </trkpt>
      <trkpt lat="44.93603" lon="6.08972">
        <ele>2450.8</ele>
        <time>2024-08-14T10:23:46Z</time>
      </trkpt>
      <trkpt lat="44.93603" lon="6.08972">
        <ele>2450.4</ele>
        <time>2024-08-14T10:23:47Z</time>
      </trkpt>
      <trkpt lat="44.93605" lon="6.08975">
        <ele>2450.4</ele>
        <time>2024-08-14T10:23:48Z</time>
      </trkpt>
      <trkpt lat="44.93605" lon="6.08975">
        <ele>2449.8</ele>
        <time>2024-08-14T10:23:49Z</time>
      </trkpt>
      <trkpt lat="44.93606" lon="6.08977">
        <ele>2449.4</ele>
        <time>2024-08-14T10:23:50Z</time>
      </trkpt>
      <trkpt lat="44.93606" lon="6.08977">
        <ele>2449.2</ele>
        <time>2024-08-14T10:23:51Z</time>
      </trkpt>
      <trkpt lat="44.93608" lon="6.08979">
        <ele>2449</ele>
        <time>2024-08-14T10:23:52Z</time>
      </trkpt>
      <trkpt lat="44.93608" lon="6.08979">
        <ele>2448.8</ele>
        <time>2024-08-14T10:23:53Z</time>
      </trkpt>
      <trkpt lat="44.93608" lon="6.08979">
        <ele>2448.6</ele>
        <time>2024-08-14T10:23:54Z</time>
      </trkpt>
      <trkpt lat="44.9361" lon="6.0898">
        <ele>2448.2</ele>
        <time>2024-08-14T10:23:55Z</time>
      </trkpt>
      <trkpt lat="44.9361" lon="6.0898">
        <ele>2448</ele>
        <time>2024-08-14T10:23:56Z</time>
      </trkpt>
      <trkpt lat="44.9361" lon="6.0898">
        <ele>2447.8</ele>
        <time>2024-08-14T10:23:57Z</time>
      </trkpt>
      <trkpt lat="44.93612" lon="6.0898">
        <ele>2447.2</ele>
        <time>2024-08-14T10:23:58Z</time>
      </trkpt>
      <trkpt lat="44.93612" lon="6.0898">
        <ele>2447</ele>
        <time>2024-08-14T10:23:59Z</time>
      </trkpt>
      <trkpt lat="44.93612" lon="6.0898">
        <ele>2446.6</ele>
        <time>2024-08-14T10:24:00Z</time>
      </trkpt>
      <trkpt lat="44.93614" lon="6.08979">
        <ele>2446.4</ele>
        <time>2024-08-14T10:24:01Z</time>
      </trkpt>
      <trkpt lat="44.93614" lon="6.08979">
        <ele>2445.8</ele>
        <time>2024-08-14T10:24:02Z</time>
      </trkpt>
      <trkpt lat="44.93616" lon="6.08979">
        <ele>2445.8</ele>
        <time>2024-08-14T10:24:03Z</time>
      </trkpt>
      <trkpt lat="44.93616" lon="6.08979">
        <ele>2445.6</ele>
        <time>2024-08-14T10:24:04Z</time>
      </trkpt>
      <trkpt lat="44.93616" lon="6.08979">
        <ele>2445</ele>
        <time>2024-08-14T10:24:05Z</time>
      </trkpt>
      <trkpt lat="44.93618" lon="6.08979">
        <ele>2444.8</ele>
        <time>2024-08-14T10:24:06Z</time>
      </trkpt>
      <trkpt lat="44.93618" lon="6.08979">
        <ele>2444.4</ele>
        <time>2024-08-14T10:24:07Z</time>
      </trkpt>
      <trkpt lat="44.93618" lon="6.08979">
        <ele>2444</ele>
        <time>2024-08-14T10:24:08Z</time>
      </trkpt>
      <trkpt lat="44.9362" lon="6.08976">
        <ele>2443.8</ele>
        <time>2024-08-14T10:24:09Z</time>
      </trkpt>
      <trkpt lat="44.9362" lon="6.08976">
        <ele>2443.6</ele>
        <time>2024-08-14T10:24:10Z</time>
      </trkpt>
      <trkpt lat="44.9362" lon="6.08976">
        <ele>2443.6</ele>
        <time>2024-08-14T10:24:11Z</time>
      </trkpt>
      <trkpt lat="44.9362" lon="6.08973">
        <ele>2443.6</ele>
        <time>2024-08-14T10:24:12Z</time>
      </trkpt>
      <trkpt lat="44.9362" lon="6.08973">
        <ele>2443.4</ele>
        <time>2024-08-14T10:24:13Z</time>
      </trkpt>
      <trkpt lat="44.9362" lon="6.08973">
        <ele>2442.8</ele>
        <time>2024-08-14T10:24:14Z</time>
      </trkpt>
      <trkpt lat="44.93622" lon="6.08971">
        <ele>2442.8</ele>
        <time>2024-08-14T10:24:15Z</time>
      </trkpt>
      <trkpt lat="44.93622" lon="6.08971">
        <ele>2442.6</ele>
        <time>2024-08-14T10:24:16Z</time>
      </trkpt>
      <trkpt lat="44.93622" lon="6.08971">
        <ele>2442.4</ele>
        <time>2024-08-14T10:24:17Z</time>
      </trkpt>
      <trkpt lat="44.93623" lon="6.08968">
        <ele>2442</ele>
        <time>2024-08-14T10:24:18Z</time>
      </trkpt>
      <trkpt lat="44.93623" lon="6.08968">
        <ele>2441.8</ele>
        <time>2024-08-14T10:24:19Z</time>
      </trkpt>
      <trkpt lat="44.93623" lon="6.08968">
        <ele>2441.4</ele>
        <time>2024-08-14T10:24:20Z</time>
      </trkpt>
      <trkpt lat="44.93623" lon="6.08964">
        <ele>2441.4</ele>
        <time>2024-08-14T10:24:21Z</time>
      </trkpt>
      <trkpt lat="44.93623" lon="6.08964">
        <ele>2441.2</ele>
        <time>2024-08-14T10:24:22Z</time>
      </trkpt>
      <trkpt lat="44.93623" lon="6.08964">
        <ele>2440.4</ele>
        <time>2024-08-14T10:24:23Z</time>
      </trkpt>
      <trkpt lat="44.93626" lon="6.08965">
        <ele>2440.4</ele>
        <time>2024-08-14T10:24:24Z</time>
      </trkpt>
      <trkpt lat="44.93626" lon="6.08965">
        <ele>2440.2</ele>
        <time>2024-08-14T10:24:25Z</time>
      </trkpt>
      <trkpt lat="44.93627" lon="6.08967">
        <ele>2439.8</ele>
        <time>2024-08-14T10:24:26Z</time>
      </trkpt>
      <trkpt lat="44.93627" lon="6.08967">
        <ele>2439.4</ele>
        <time>2024-08-14T10:24:27Z</time>
      </trkpt>
      <trkpt lat="44.93627" lon="6.08967">
        <ele>2439</ele>
        <time>2024-08-14T10:24:28Z</time>
      </trkpt>
      <trkpt lat="44.93629" lon="6.08967">
        <ele>2438.8</ele>
        <time>2024-08-14T10:24:29Z</time>
      </trkpt>
      <trkpt lat="44.93629" lon="6.08967">
        <ele>2438.6</ele>
        <time>2024-08-14T10:24:30Z</time>
      </trkpt>
      <trkpt lat="44.93629" lon="6.08967">
        <ele>2438.6</ele>
        <time>2024-08-14T10:24:31Z</time>
      </trkpt>
      <trkpt lat="44.9363" lon="6.08965">
        <ele>2438.6</ele>
        <time>2024-08-14T10:24:32Z</time>
      </trkpt>
      <trkpt lat="44.9363" lon="6.08965">
        <ele>2438</ele>
        <time>2024-08-14T10:24:33Z</time>
      </trkpt>
      <trkpt lat="44.93632" lon="6.08966">
        <ele>2437.6</ele>
        <time>2024-08-14T10:24:34Z</time>
      </trkpt>
      <trkpt lat="44.93632" lon="6.08966">
        <ele>2437.2</ele>
        <time>2024-08-14T10:24:35Z</time>
      </trkpt>
      <trkpt lat="44.93633" lon="6.08968">
        <ele>2436.8</ele>
        <time>2024-08-14T10:24:36Z</time>
      </trkpt>
      <trkpt lat="44.93633" lon="6.08968">
        <ele>2436.6</ele>
        <time>2024-08-14T10:24:37Z</time>
      </trkpt>
      <trkpt lat="44.93635" lon="6.08969">
        <ele>2436.4</ele>
        <time>2024-08-14T10:24:38Z</time>
      </trkpt>
      <trkpt lat="44.93635" lon="6.08969">
        <ele>2436.2</ele>
        <time>2024-08-14T10:24:39Z</time>
      </trkpt>
      <trkpt lat="44.93635" lon="6.08969">
        <ele>2436</ele>
        <time>2024-08-14T10:24:40Z</time>
      </trkpt>
      <trkpt lat="44.93637" lon="6.08971">
        <ele>2435.6</ele>
        <time>2024-08-14T10:24:41Z</time>
      </trkpt>
      <trkpt lat="44.93637" lon="6.08971">
        <ele>2435</ele>
        <time>2024-08-14T10:24:42Z</time>
      </trkpt>
      <trkpt lat="44.93639" lon="6.08972">
        <ele>2434.8</ele>
        <time>2024-08-14T10:24:43Z</time>
      </trkpt>
      <trkpt lat="44.93639" lon="6.08972">
        <ele>2434.6</ele>
        <time>2024-08-14T10:24:44Z</time>
      </trkpt>
      <trkpt lat="44.93641" lon="6.08974">
        <ele>2434.4</ele>
        <time>2024-08-14T10:24:45Z</time>
      </trkpt>
      <trkpt lat="44.93641" lon="6.08974">
        <ele>2433.8</ele>
        <time>2024-08-14T10:24:46Z</time>
      </trkpt>
      <trkpt lat="44.93641" lon="6.08974">
        <ele>2433.6</ele>
        <time>2024-08-14T10:24:47Z</time>
      </trkpt>
      <trkpt lat="44.93643" lon="6.08976">
        <ele>2433.4</ele>
        <time>2024-08-14T10:24:48Z</time>
      </trkpt>
      <trkpt lat="44.93643" lon="6.08976">
        <ele>2433.2</ele>
        <time>2024-08-14T10:24:49Z</time>
      </trkpt>
      <trkpt lat="44.93643" lon="6.08976">
        <ele>2432.8</ele>
        <time>2024-08-14T10:24:50Z</time>
      </trkpt>
      <trkpt lat="44.93645" lon="6.08978">
        <ele>2432.8</ele>
        <time>2024-08-14T10:24:51Z</time>
      </trkpt>
      <trkpt lat="44.93645" lon="6.08978">
        <ele>2432.2</ele>
        <time>2024-08-14T10:24:52Z</time>
      </trkpt>
      <trkpt lat="44.93645" lon="6.08978">
        <ele>2432.2</ele>
        <time>2024-08-14T10:24:53Z</time>
      </trkpt>
      <trkpt lat="44.93647" lon="6.08978">
        <ele>2432</ele>
        <time>2024-08-14T10:24:54Z</time>
      </trkpt>
      <trkpt lat="44.93647" lon="6.08978">
        <ele>2431.6</ele>
        <time>2024-08-14T10:24:55Z</time>
      </trkpt>
      <trkpt lat="44.93649" lon="6.08977">
        <ele>2431.6</ele>
        <time>2024-08-14T10:24:56Z</time>
      </trkpt>
      <trkpt lat="44.93649" lon="6.08977">
        <ele>2431.6</ele>
        <time>2024-08-14T10:24:57Z</time>
      </trkpt>
      <trkpt lat="44.93649" lon="6.08977">
        <ele>2431.4</ele>
        <time>2024-08-14T10:24:58Z</time>
      </trkpt>
      <trkpt lat="44.93651" lon="6.08976">
        <ele>2431</ele>
        <time>2024-08-14T10:24:59Z</time>
      </trkpt>
      <trkpt lat="44.93651" lon="6.08976">
        <ele>2430.6</ele>
        <time>2024-08-14T10:25:00Z</time>
      </trkpt>
      <trkpt lat="44.93653" lon="6.08977">
        <ele>2430.2</ele>
        <time>2024-08-14T10:25:01Z</time>
      </trkpt>
      <trkpt lat="44.93653" lon="6.08977">
        <ele>2429.6</ele>
        <time>2024-08-14T10:25:02Z</time>
      </trkpt>
      <trkpt lat="44.93653" lon="6.08977">
        <ele>2429.6</ele>
        <time>2024-08-14T10:25:03Z</time>
      </trkpt>
      <trkpt lat="44.93654" lon="6.0898">
        <ele>2429</ele>
        <time>2024-08-14T10:25:04Z</time>
      </trkpt>
      <trkpt lat="44.93654" lon="6.0898">
        <ele>2428.8</ele>
        <time>2024-08-14T10:25:05Z</time>
      </trkpt>
      <trkpt lat="44.93654" lon="6.0898">
        <ele>2428.6</ele>
        <time>2024-08-14T10:25:06Z</time>
      </trkpt>
      <trkpt lat="44.93657" lon="6.08979">
        <ele>2428.6</ele>
        <time>2024-08-14T10:25:07Z</time>
      </trkpt>
      <trkpt lat="44.93657" lon="6.08979">
        <ele>2428.4</ele>
        <time>2024-08-14T10:25:08Z</time>
      </trkpt>
      <trkpt lat="44.93659" lon="6.08979">
        <ele>2428</ele>
        <time>2024-08-14T10:25:09Z</time>
      </trkpt>
      <trkpt lat="44.93659" lon="6.08979">
        <ele>2427.6</ele>
        <time>2024-08-14T10:25:10Z</time>
      </trkpt>
      <trkpt lat="44.93659" lon="6.08979">
        <ele>2427.6</ele>
        <time>2024-08-14T10:25:11Z</time>
      </trkpt>
      <trkpt lat="44.93661" lon="6.08977">
        <ele>2427.2</ele>
        <time>2024-08-14T10:25:12Z</time>
      </trkpt>
      <trkpt lat="44.93661" lon="6.08977">
        <ele>2427</ele>
        <time>2024-08-14T10:25:13Z</time>
      </trkpt>
      <trkpt lat="44.93662" lon="6.08978">
        <ele>2426.6</ele>
        <time>2024-08-14T10:25:14Z</time>
      </trkpt>
      <trkpt lat="44.93662" lon="6.08978">
        <ele>2426.6</ele>
        <time>2024-08-14T10:25:15Z</time>
      </trkpt>
      <trkpt lat="44.93662" lon="6.08978">
        <ele>2425.8</ele>
        <time>2024-08-14T10:25:16Z</time>
      </trkpt>
      <trkpt lat="44.93664" lon="6.08981">
        <ele>2425.4</ele>
        <time>2024-08-14T10:25:17Z</time>
      </trkpt>
      <trkpt lat="44.93664" lon="6.08981">
        <ele>2425.2</ele>
        <time>2024-08-14T10:25:18Z</time>
      </trkpt>
      <trkpt lat="44.93664" lon="6.08981">
        <ele>2424.8</ele>
        <time>2024-08-14T10:25:19Z</time>
      </trkpt>
      <trkpt lat="44.93666" lon="6.08981">
        <ele>2424.8</ele>
        <time>2024-08-14T10:25:20Z</time>
      </trkpt>
      <trkpt lat="44.93666" lon="6.08981">
        <ele>2424.8</ele>
        <time>2024-08-14T10:25:21Z</time>
      </trkpt>
      <trkpt lat="44.93668" lon="6.0898">
        <ele>2424.4</ele>
        <time>2024-08-14T10:25:22Z</time>
      </trkpt>
      <trkpt lat="44.93668" lon="6.0898">
        <ele>2424.2</ele>
        <time>2024-08-14T10:25:23Z</time>
      </trkpt>
      <trkpt lat="44.9367" lon="6.0898">
        <ele>2424</ele>
        <time>2024-08-14T10:25:24Z</time>
      </trkpt>
      <trkpt lat="44.9367" lon="6.0898">
        <ele>2423.6</ele>
        <time>2024-08-14T10:25:25Z</time>
      </trkpt>
      <trkpt lat="44.9367" lon="6.0898">
        <ele>2423.4</ele>
        <time>2024-08-14T10:25:26Z</time>
      </trkpt>
      <trkpt lat="44.93671" lon="6.08981">
        <ele>2422.8</ele>
        <time>2024-08-14T10:25:27Z</time>
      </trkpt>
      <trkpt lat="44.93671" lon="6.08981">
        <ele>2422.4</ele>
        <time>2024-08-14T10:25:28Z</time>
      </trkpt>
      <trkpt lat="44.93671" lon="6.08981">
        <ele>2422.4</ele>
        <time>2024-08-14T10:25:29Z</time>
      </trkpt>
      <trkpt lat="44.93673" lon="6.0898">
        <ele>2422.2</ele>
        <time>2024-08-14T10:25:30Z</time>
      </trkpt>
      <trkpt lat="44.93673" lon="6.0898">
        <ele>2421.8</ele>
        <time>2024-08-14T10:25:31Z</time>
      </trkpt>
      <trkpt lat="44.93675" lon="6.08978">
        <ele>2421.8</ele>
        <time>2024-08-14T10:25:32Z</time>
      </trkpt>
      <trkpt lat="44.93675" lon="6.08978">
        <ele>2421.4</ele>
        <time>2024-08-14T10:25:33Z</time>
      </trkpt>
      <trkpt lat="44.93677" lon="6.0898">
        <ele>2420.8</ele>
        <time>2024-08-14T10:25:34Z</time>
      </trkpt>
      <trkpt lat="44.93677" lon="6.0898">
        <ele>2420.8</ele>
        <time>2024-08-14T10:25:35Z</time>
      </trkpt>
      <trkpt lat="44.93677" lon="6.0898">
        <ele>2420.4</ele>
        <time>2024-08-14T10:25:36Z</time>
      </trkpt>
      <trkpt lat="44.93678" lon="6.08981">
        <ele>2419.8</ele>
        <time>2024-08-14T10:25:37Z</time>
      </trkpt>
      <trkpt lat="44.93678" lon="6.08981">
        <ele>2419.6</ele>
        <time>2024-08-14T10:25:38Z</time>
      </trkpt>
      <trkpt lat="44.93678" lon="6.08981">
        <ele>2419.4</ele>
        <time>2024-08-14T10:25:39Z</time>
      </trkpt>
      <trkpt lat="44.93681" lon="6.0898">
        <ele>2419.4</ele>
        <time>2024-08-14T10:25:40Z</time>
      </trkpt>
      <trkpt lat="44.93681" lon="6.0898">
        <ele>2419</ele>
        <time>2024-08-14T10:25:41Z</time>
      </trkpt>
      <trkpt lat="44.93683" lon="6.08981">
        <ele>2419</ele>
        <time>2024-08-14T10:25:42Z</time>
      </trkpt>
      <trkpt lat="44.93683" lon="6.08981">
        <ele>2418.4</ele>
        <time>2024-08-14T10:25:43Z</time>
      </trkpt>
      <trkpt lat="44.93683" lon="6.08981">
        <ele>2417.8</ele>
        <time>2024-08-14T10:25:44Z</time>
      </trkpt>
      <trkpt lat="44.93685" lon="6.08981">
        <ele>2417.2</ele>
        <time>2024-08-14T10:25:45Z</time>
      </trkpt>
      <trkpt lat="44.93685" lon="6.08981">
        <ele>2417.2</ele>
        <time>2024-08-14T10:25:46Z</time>
      </trkpt>
      <trkpt lat="44.93685" lon="6.08981">
        <ele>2417</ele>
        <time>2024-08-14T10:25:47Z</time>
      </trkpt>
      <trkpt lat="44.93685" lon="6.08981">
        <ele>2416.6</ele>
        <time>2024-08-14T10:25:48Z</time>
      </trkpt>
      <trkpt lat="44.93685" lon="6.08981">
        <ele>2416.4</ele>
        <time>2024-08-14T10:25:49Z</time>
      </trkpt>
      <trkpt lat="44.93685" lon="6.08981">
        <ele>2416.2</ele>
        <time>2024-08-14T10:25:50Z</time>
      </trkpt>
      <trkpt lat="44.93685" lon="6.08981">
        <ele>2416</ele>
        <time>2024-08-14T10:25:51Z</time>
      </trkpt>
      <trkpt lat="44.93685" lon="6.08981">
        <ele>2415.8</ele>
        <time>2024-08-14T10:25:52Z</time>
      </trkpt>
      <trkpt lat="44.93685" lon="6.08981">
        <ele>2415.8</ele>
        <time>2024-08-14T10:25:53Z</time>
      </trkpt>
      <trkpt lat="44.93686" lon="6.08978">
        <ele>2415.8</ele>
        <time>2024-08-14T10:25:54Z</time>
      </trkpt>
      <trkpt lat="44.93686" lon="6.08978">
        <ele>2415.8</ele>
        <time>2024-08-14T10:25:55Z</time>
      </trkpt>
      <trkpt lat="44.93688" lon="6.08978">
        <ele>2415.4</ele>
        <time>2024-08-14T10:25:56Z</time>
      </trkpt>
      <trkpt lat="44.93688" lon="6.08978">
        <ele>2415.4</ele>
        <time>2024-08-14T10:25:57Z</time>
      </trkpt>
      <trkpt lat="44.9369" lon="6.08979">
        <ele>2415.2</ele>
        <time>2024-08-14T10:25:58Z</time>
      </trkpt>
      <trkpt lat="44.9369" lon="6.08979">
        <ele>2414.4</ele>
        <time>2024-08-14T10:25:59Z</time>
      </trkpt>
      <trkpt lat="44.93692" lon="6.08979">
        <ele>2414.4</ele>
        <time>2024-08-14T10:26:00Z</time>
      </trkpt>
      <trkpt lat="44.93692" lon="6.08979">
        <ele>2413.8</ele>
        <time>2024-08-14T10:26:01Z</time>
      </trkpt>
      <trkpt lat="44.93694" lon="6.08977">
        <ele>2413</ele>
        <time>2024-08-14T10:26:02Z</time>
      </trkpt>
      <trkpt lat="44.93694" lon="6.08977">
        <ele>2413</ele>
        <time>2024-08-14T10:26:03Z</time>
      </trkpt>
      <trkpt lat="44.93694" lon="6.08977">
        <ele>2412.8</ele>
        <time>2024-08-14T10:26:04Z</time>
      </trkpt>
      <trkpt lat="44.93697" lon="6.08977">
        <ele>2412.6</ele>
        <time>2024-08-14T10:26:05Z</time>
      </trkpt>
      <trkpt lat="44.93697" lon="6.08977">
        <ele>2412.2</ele>
        <time>2024-08-14T10:26:06Z</time>
      </trkpt>
      <trkpt lat="44.93697" lon="6.08977">
        <ele>2411.8</ele>
        <time>2024-08-14T10:26:07Z</time>
      </trkpt>
      <trkpt lat="44.93699" lon="6.08975">
        <ele>2411.4</ele>
        <time>2024-08-14T10:26:08Z</time>
      </trkpt>
      <trkpt lat="44.93699" lon="6.08975">
        <ele>2411</ele>
        <time>2024-08-14T10:26:09Z</time>
      </trkpt>
      <trkpt lat="44.937" lon="6.08976">
        <ele>2410.8</ele>
        <time>2024-08-14T10:26:10Z</time>
      </trkpt>
      <trkpt lat="44.937" lon="6.08976">
        <ele>2410.6</ele>
        <time>2024-08-14T10:26:11Z</time>
      </trkpt>
      <trkpt lat="44.937" lon="6.08976">
        <ele>2410.4</ele>
        <time>2024-08-14T10:26:12Z</time>
      </trkpt>
      <trkpt lat="44.93702" lon="6.08979">
        <ele>2410.2</ele>
        <time>2024-08-14T10:26:13Z</time>
      </trkpt>
      <trkpt lat="44.93702" lon="6.08979">
        <ele>2410</ele>
        <time>2024-08-14T10:26:14Z</time>
      </trkpt>
      <trkpt lat="44.93704" lon="6.0898">
        <ele>2409.4</ele>
        <time>2024-08-14T10:26:15Z</time>
      </trkpt>
      <trkpt lat="44.93704" lon="6.0898">
        <ele>2409</ele>
        <time>2024-08-14T10:26:16Z</time>
      </trkpt>
      <trkpt lat="44.93704" lon="6.0898">
        <ele>2408.8</ele>
        <time>2024-08-14T10:26:17Z</time>
      </trkpt>
      <trkpt lat="44.93706" lon="6.08978">
        <ele>2408.4</ele>
        <time>2024-08-14T10:26:18Z</time>
      </trkpt>
      <trkpt lat="44.93706" lon="6.08978">
        <ele>2408.2</ele>
        <time>2024-08-14T10:26:19Z</time>
      </trkpt>
      <trkpt lat="44.93709" lon="6.08976">
        <ele>2408</ele>
        <time>2024-08-14T10:26:20Z</time>
      </trkpt>
      <trkpt lat="44.93709" lon="6.08976">
        <ele>2407.8</ele>
        <time>2024-08-14T10:26:21Z</time>
      </trkpt>
      <trkpt lat="44.93709" lon="6.08976">
        <ele>2407.4</ele>
        <time>2024-08-14T10:26:22Z</time>
      </trkpt>
      <trkpt lat="44.93711" lon="6.08974">
        <ele>2407.2</ele>
        <time>2024-08-14T10:26:23Z</time>
      </trkpt>
      <trkpt lat="44.93711" lon="6.08974">
        <ele>2406.6</ele>
        <time>2024-08-14T10:26:24Z</time>
      </trkpt>
      <trkpt lat="44.93712" lon="6.08971">
        <ele>2406.4</ele>
        <time>2024-08-14T10:26:25Z</time>
      </trkpt>
      <trkpt lat="44.93712" lon="6.08971">
        <ele>2406.2</ele>
        <time>2024-08-14T10:26:26Z</time>
      </trkpt>
      <trkpt lat="44.93715" lon="6.08969">
        <ele>2405.8</ele>
        <time>2024-08-14T10:26:27Z</time>
      </trkpt>
      <trkpt lat="44.93715" lon="6.08969">
        <ele>2405.4</ele>
        <time>2024-08-14T10:26:28Z</time>
      </trkpt>
      <trkpt lat="44.93716" lon="6.0897">
        <ele>2405.2</ele>
        <time>2024-08-14T10:26:29Z</time>
      </trkpt>
      <trkpt lat="44.93716" lon="6.0897">
        <ele>2405</ele>
        <time>2024-08-14T10:26:30Z</time>
      </trkpt>
      <trkpt lat="44.93718" lon="6.08971">
        <ele>2404.8</ele>
        <time>2024-08-14T10:26:31Z</time>
      </trkpt>
      <trkpt lat="44.93718" lon="6.08971">
        <ele>2404.6</ele>
        <time>2024-08-14T10:26:32Z</time>
      </trkpt>
      <trkpt lat="44.93718" lon="6.08971">
        <ele>2404.6</ele>
        <time>2024-08-14T10:26:33Z</time>
      </trkpt>
      <trkpt lat="44.9372" lon="6.0897">
        <ele>2404.2</ele>
        <time>2024-08-14T10:26:34Z</time>
      </trkpt>
      <trkpt lat="44.9372" lon="6.0897">
        <ele>2403.6</ele>
        <time>2024-08-14T10:26:35Z</time>
      </trkpt>
      <trkpt lat="44.93722" lon="6.0897">
        <ele>2403.6</ele>
        <time>2024-08-14T10:26:36Z</time>
      </trkpt>
      <trkpt lat="44.93722" lon="6.0897">
        <ele>2403.4</ele>
        <time>2024-08-14T10:26:37Z</time>
      </trkpt>
      <trkpt lat="44.93722" lon="6.0897">
        <ele>2403</ele>
        <time>2024-08-14T10:26:38Z</time>
      </trkpt>
      <trkpt lat="44.93725" lon="6.0897">
        <ele>2402.6</ele>
        <time>2024-08-14T10:26:39Z</time>
      </trkpt>
      <trkpt lat="44.93725" lon="6.0897">
        <ele>2402.4</ele>
        <time>2024-08-14T10:26:40Z</time>
      </trkpt>
      <trkpt lat="44.93727" lon="6.0897">
        <ele>2402</ele>
        <time>2024-08-14T10:26:41Z</time>
      </trkpt>
      <trkpt lat="44.93727" lon="6.0897">
        <ele>2401.4</ele>
        <time>2024-08-14T10:26:42Z</time>
      </trkpt>
      <trkpt lat="44.93729" lon="6.0897">
        <ele>2401.2</ele>
        <time>2024-08-14T10:26:43Z</time>
      </trkpt>
      <trkpt lat="44.93729" lon="6.0897">
        <ele>2401.2</ele>
        <time>2024-08-14T10:26:44Z</time>
      </trkpt>
      <trkpt lat="44.93732" lon="6.0897">
        <ele>2401</ele>
        <time>2024-08-14T10:26:45Z</time>
      </trkpt>
      <trkpt lat="44.93732" lon="6.0897">
        <ele>2400.8</ele>
        <time>2024-08-14T10:26:46Z</time>
      </trkpt>
      <trkpt lat="44.93732" lon="6.0897">
        <ele>2400.8</ele>
        <time>2024-08-14T10:26:47Z</time>
      </trkpt>
      <trkpt lat="44.93734" lon="6.08968">
        <ele>2400.6</ele>
        <time>2024-08-14T10:26:48Z</time>
      </trkpt>
      <trkpt lat="44.93734" lon="6.08968">
        <ele>2400.4</ele>
        <time>2024-08-14T10:26:49Z</time>
      </trkpt>
      <trkpt lat="44.93734" lon="6.08968">
        <ele>2400</ele>
        <time>2024-08-14T10:26:50Z</time>
      </trkpt>
      <trkpt lat="44.93734" lon="6.08968">
        <ele>2399.8</ele>
        <time>2024-08-14T10:26:51Z</time>
      </trkpt>
      <trkpt lat="44.93736" lon="6.08968">
        <ele>2399.6</ele>
        <time>2024-08-14T10:26:52Z</time>
      </trkpt>
      <trkpt lat="44.93736" lon="6.08968">
        <ele>2399</ele>
        <time>2024-08-14T10:26:53Z</time>
      </trkpt>
      <trkpt lat="44.93736" lon="6.08968">
        <ele>2399</ele>
        <time>2024-08-14T10:26:54Z</time>
      </trkpt>
      <trkpt lat="44.93738" lon="6.0897">
        <ele>2399</ele>
        <time>2024-08-14T10:26:55Z</time>
      </trkpt>
      <trkpt lat="44.93738" lon="6.0897">
        <ele>2398.6</ele>
        <time>2024-08-14T10:26:56Z</time>
      </trkpt>
      <trkpt lat="44.93738" lon="6.0897">
        <ele>2398.4</ele>
        <time>2024-08-14T10:26:57Z</time>
      </trkpt>
      <trkpt lat="44.93741" lon="6.08969">
        <ele>2398.2</ele>
        <time>2024-08-14T10:26:58Z</time>
      </trkpt>
      <trkpt lat="44.93741" lon="6.08969">
        <ele>2397.6</ele>
        <time>2024-08-14T10:26:59Z</time>
      </trkpt>
      <trkpt lat="44.93741" lon="6.08972">
        <ele>2397.2</ele>
        <time>2024-08-14T10:27:00Z</time>
      </trkpt>
      <trkpt lat="44.93741" lon="6.08972">
        <ele>2396.6</ele>
        <time>2024-08-14T10:27:01Z</time>
      </trkpt>
      <trkpt lat="44.93741" lon="6.08972">
        <ele>2395.4</ele>
        <time>2024-08-14T10:27:02Z</time>
      </trkpt>
      <trkpt lat="44.93741" lon="6.08975">
        <ele>2395.4</ele>
        <time>2024-08-14T10:27:03Z</time>
      </trkpt>
      <trkpt lat="44.93741" lon="6.08975">
        <ele>2395.4</ele>
        <time>2024-08-14T10:27:04Z</time>
      </trkpt>
      <trkpt lat="44.93741" lon="6.08975">
        <ele>2395.2</ele>
        <time>2024-08-14T10:27:05Z</time>
      </trkpt>
      <trkpt lat="44.93743" lon="6.08974">
        <ele>2395.2</ele>
        <time>2024-08-14T10:27:06Z</time>
      </trkpt>
      <trkpt lat="44.93743" lon="6.08974">
        <ele>2395.4</ele>
        <time>2024-08-14T10:27:07Z</time>
      </trkpt>
      <trkpt lat="44.93743" lon="6.08974">
        <ele>2395.4</ele>
        <time>2024-08-14T10:27:08Z</time>
      </trkpt>
      <trkpt lat="44.93745" lon="6.08974">
        <ele>2395.2</ele>
        <time>2024-08-14T10:27:09Z</time>
      </trkpt>
      <trkpt lat="44.93745" lon="6.08974">
        <ele>2395</ele>
        <time>2024-08-14T10:27:10Z</time>
      </trkpt>
      <trkpt lat="44.93746" lon="6.08971">
        <ele>2394.8</ele>
        <time>2024-08-14T10:27:11Z</time>
      </trkpt>
      <trkpt lat="44.93746" lon="6.08971">
        <ele>2394.2</ele>
        <time>2024-08-14T10:27:12Z</time>
      </trkpt>
      <trkpt lat="44.93747" lon="6.08969">
        <ele>2393.8</ele>
        <time>2024-08-14T10:27:13Z</time>
      </trkpt>
      <trkpt lat="44.93747" lon="6.08969">
        <ele>2393.2</ele>
        <time>2024-08-14T10:27:14Z</time>
      </trkpt>
      <trkpt lat="44.93749" lon="6.08969">
        <ele>2393</ele>
        <time>2024-08-14T10:27:15Z</time>
      </trkpt>
      <trkpt lat="44.93749" lon="6.08969">
        <ele>2392.8</ele>
        <time>2024-08-14T10:27:16Z</time>
      </trkpt>
      <trkpt lat="44.93749" lon="6.08969">
        <ele>2392.6</ele>
        <time>2024-08-14T10:27:17Z</time>
      </trkpt>
      <trkpt lat="44.93752" lon="6.0897">
        <ele>2391.8</ele>
        <time>2024-08-14T10:27:18Z</time>
      </trkpt>
      <trkpt lat="44.93752" lon="6.0897">
        <ele>2391</ele>
        <time>2024-08-14T10:27:19Z</time>
      </trkpt>
      <trkpt lat="44.93752" lon="6.0897">
        <ele>2391</ele>
        <time>2024-08-14T10:27:20Z</time>
      </trkpt>
      <trkpt lat="44.93754" lon="6.08972">
        <ele>2390.8</ele>
        <time>2024-08-14T10:27:21Z</time>
      </trkpt>
      <trkpt lat="44.93754" lon="6.08972">
        <ele>2390.2</ele>
        <time>2024-08-14T10:27:22Z</time>
      </trkpt>
      <trkpt lat="44.93754" lon="6.08972">
        <ele>2390</ele>
        <time>2024-08-14T10:27:23Z</time>
      </trkpt>
      <trkpt lat="44.93756" lon="6.08973">
        <ele>2390</ele>
        <time>2024-08-14T10:27:24Z</time>
      </trkpt>
      <trkpt lat="44.93756" lon="6.08973">
        <ele>2389.6</ele>
        <time>2024-08-14T10:27:25Z</time>
      </trkpt>
      <trkpt lat="44.93756" lon="6.08973">
        <ele>2389.4</ele>
        <time>2024-08-14T10:27:26Z</time>
      </trkpt>
      <trkpt lat="44.93758" lon="6.08972">
        <ele>2388.8</ele>
        <time>2024-08-14T10:27:27Z</time>
      </trkpt>
      <trkpt lat="44.93758" lon="6.08972">
        <ele>2388.6</ele>
        <time>2024-08-14T10:27:28Z</time>
      </trkpt>
      <trkpt lat="44.93758" lon="6.08972">
        <ele>2388.2</ele>
        <time>2024-08-14T10:27:29Z</time>
      </trkpt>
      <trkpt lat="44.9376" lon="6.08973">
        <ele>2388.2</ele>
        <time>2024-08-14T10:27:30Z</time>
      </trkpt>
      <trkpt lat="44.9376" lon="6.08973">
        <ele>2387.8</ele>
        <time>2024-08-14T10:27:31Z</time>
      </trkpt>
      <trkpt lat="44.93762" lon="6.08976">
        <ele>2387.6</ele>
        <time>2024-08-14T10:27:32Z</time>
      </trkpt>
      <trkpt lat="44.93762" lon="6.08976">
        <ele>2387.6</ele>
        <time>2024-08-14T10:27:33Z</time>
      </trkpt>
      <trkpt lat="44.93762" lon="6.08976">
        <ele>2387.4</ele>
        <time>2024-08-14T10:27:34Z</time>
      </trkpt>
      <trkpt lat="44.93763" lon="6.08979">
        <ele>2387.4</ele>
        <time>2024-08-14T10:27:35Z</time>
      </trkpt>
      <trkpt lat="44.93763" lon="6.08979">
        <ele>2387.2</ele>
        <time>2024-08-14T10:27:36Z</time>
      </trkpt>
      <trkpt lat="44.93765" lon="6.0898">
        <ele>2387</ele>
        <time>2024-08-14T10:27:37Z</time>
      </trkpt>
      <trkpt lat="44.93765" lon="6.0898">
        <ele>2386.8</ele>
        <time>2024-08-14T10:27:38Z</time>
      </trkpt>
      <trkpt lat="44.93765" lon="6.0898">
        <ele>2386.6</ele>
        <time>2024-08-14T10:27:39Z</time>
      </trkpt>
      <trkpt lat="44.93766" lon="6.08981">
        <ele>2386.6</ele>
        <time>2024-08-14T10:27:40Z</time>
      </trkpt>
      <trkpt lat="44.93766" lon="6.08981">
        <ele>2386.6</ele>
        <time>2024-08-14T10:27:41Z</time>
      </trkpt>
      <trkpt lat="44.93766" lon="6.08981">
        <ele>2386.4</ele>
        <time>2024-08-14T10:27:42Z</time>
      </trkpt>
      <trkpt lat="44.93768" lon="6.08981">
        <ele>2386</ele>
        <time>2024-08-14T10:27:43Z</time>
      </trkpt>
      <trkpt lat="44.93768" lon="6.08981">
        <ele>2385.8</ele>
        <time>2024-08-14T10:27:44Z</time>
      </trkpt>
      <trkpt lat="44.9377" lon="6.08979">
        <ele>2385.6</ele>
        <time>2024-08-14T10:27:45Z</time>
      </trkpt>
      <trkpt lat="44.9377" lon="6.08979">
        <ele>2385.2</ele>
        <time>2024-08-14T10:27:46Z</time>
      </trkpt>
      <trkpt lat="44.9377" lon="6.08979">
        <ele>2385</ele>
        <time>2024-08-14T10:27:47Z</time>
      </trkpt>
      <trkpt lat="44.93772" lon="6.0898">
        <ele>2384.8</ele>
        <time>2024-08-14T10:27:48Z</time>
      </trkpt>
      <trkpt lat="44.93772" lon="6.0898">
        <ele>2384.4</ele>
        <time>2024-08-14T10:27:49Z</time>
      </trkpt>
      <trkpt lat="44.93772" lon="6.0898">
        <ele>2384.4</ele>
        <time>2024-08-14T10:27:50Z</time>
      </trkpt>
      <trkpt lat="44.93774" lon="6.08981">
        <ele>2384.2</ele>
        <time>2024-08-14T10:27:51Z</time>
      </trkpt>
      <trkpt lat="44.93774" lon="6.08981">
        <ele>2384</ele>
        <time>2024-08-14T10:27:52Z</time>
      </trkpt>
      <trkpt lat="44.93776" lon="6.08983">
        <ele>2383.8</ele>
        <time>2024-08-14T10:27:53Z</time>
      </trkpt>
      <trkpt lat="44.93776" lon="6.08983">
        <ele>2383.6</ele>
        <time>2024-08-14T10:27:54Z</time>
      </trkpt>
      <trkpt lat="44.93776" lon="6.08983">
        <ele>2383.4</ele>
        <time>2024-08-14T10:27:55Z</time>
      </trkpt>
      <trkpt lat="44.93778" lon="6.08984">
        <ele>2383</ele>
        <time>2024-08-14T10:27:56Z</time>
      </trkpt>
      <trkpt lat="44.93778" lon="6.08984">
        <ele>2382.4</ele>
        <time>2024-08-14T10:27:57Z</time>
      </trkpt>
      <trkpt lat="44.9378" lon="6.08983">
        <ele>2382.4</ele>
        <time>2024-08-14T10:27:58Z</time>
      </trkpt>
      <trkpt lat="44.9378" lon="6.08983">
        <ele>2382.4</ele>
        <time>2024-08-14T10:27:59Z</time>
      </trkpt>
      <trkpt lat="44.93781" lon="6.08982">
        <ele>2382.2</ele>
        <time>2024-08-14T10:28:00Z</time>
      </trkpt>
      <trkpt lat="44.93781" lon="6.08982">
        <ele>2382.2</ele>
        <time>2024-08-14T10:28:01Z</time>
      </trkpt>
      <trkpt lat="44.93781" lon="6.08982">
        <ele>2381.8</ele>
        <time>2024-08-14T10:28:02Z</time>
      </trkpt>
      <trkpt lat="44.93784" lon="6.08983">
        <ele>2381.8</ele>
        <time>2024-08-14T10:28:03Z</time>
      </trkpt>
      <trkpt lat="44.93784" lon="6.08983">
        <ele>2381.2</ele>
        <time>2024-08-14T10:28:04Z</time>
      </trkpt>
      <trkpt lat="44.93784" lon="6.08983">
        <ele>2381</ele>
        <time>2024-08-14T10:28:05Z</time>
      </trkpt>
      <trkpt lat="44.93786" lon="6.08984">
        <ele>2380.8</ele>
        <time>2024-08-14T10:28:06Z</time>
      </trkpt>
      <trkpt lat="44.93786" lon="6.08984">
        <ele>2380.8</ele>
        <time>2024-08-14T10:28:07Z</time>
      </trkpt>
      <trkpt lat="44.93788" lon="6.08986">
        <ele>2380</ele>
        <time>2024-08-14T10:28:08Z</time>
      </trkpt>
      <trkpt lat="44.93788" lon="6.08986">
        <ele>2379.8</ele>
        <time>2024-08-14T10:28:09Z</time>
      </trkpt>
      <trkpt lat="44.93788" lon="6.08986">
        <ele>2379.6</ele>
        <time>2024-08-14T10:28:10Z</time>
      </trkpt>
      <trkpt lat="44.9379" lon="6.08987">
        <ele>2379.6</ele>
        <time>2024-08-14T10:28:11Z</time>
      </trkpt>
      <trkpt lat="44.9379" lon="6.08987">
        <ele>2379.4</ele>
        <time>2024-08-14T10:28:12Z</time>
      </trkpt>
      <trkpt lat="44.9379" lon="6.08987">
        <ele>2379.2</ele>
        <time>2024-08-14T10:28:13Z</time>
      </trkpt>
      <trkpt lat="44.93792" lon="6.08989">
        <ele>2378.8</ele>
        <time>2024-08-14T10:28:14Z</time>
      </trkpt>
      <trkpt lat="44.93792" lon="6.08989">
        <ele>2378.6</ele>
        <time>2024-08-14T10:28:15Z</time>
      </trkpt>
      <trkpt lat="44.93792" lon="6.08989">
        <ele>2378.4</ele>
        <time>2024-08-14T10:28:16Z</time>
      </trkpt>
      <trkpt lat="44.93795" lon="6.0899">
        <ele>2377.8</ele>
        <time>2024-08-14T10:28:17Z</time>
      </trkpt>
      <trkpt lat="44.93795" lon="6.0899">
        <ele>2377.6</ele>
        <time>2024-08-14T10:28:18Z</time>
      </trkpt>
      <trkpt lat="44.93795" lon="6.0899">
        <ele>2377.2</ele>
        <time>2024-08-14T10:28:19Z</time>
      </trkpt>
      <trkpt lat="44.93797" lon="6.0899">
        <ele>2377</ele>
        <time>2024-08-14T10:28:20Z</time>
      </trkpt>
      <trkpt lat="44.93797" lon="6.0899">
        <ele>2377</ele>
        <time>2024-08-14T10:28:21Z</time>
      </trkpt>
      <trkpt lat="44.93797" lon="6.0899">
        <ele>2376.8</ele>
        <time>2024-08-14T10:28:22Z</time>
      </trkpt>
      <trkpt lat="44.93799" lon="6.08991">
        <ele>2376.6</ele>
        <time>2024-08-14T10:28:23Z</time>
      </trkpt>
      <trkpt lat="44.93799" lon="6.08991">
        <ele>2376.2</ele>
        <time>2024-08-14T10:28:24Z</time>
      </trkpt>
      <trkpt lat="44.93799" lon="6.08991">
        <ele>2376</ele>
        <time>2024-08-14T10:28:25Z</time>
      </trkpt>
      <trkpt lat="44.93801" lon="6.0899">
        <ele>2375.8</ele>
        <time>2024-08-14T10:28:26Z</time>
      </trkpt>
      <trkpt lat="44.93801" lon="6.0899">
        <ele>2375.4</ele>
        <time>2024-08-14T10:28:27Z</time>
      </trkpt>
      <trkpt lat="44.93801" lon="6.0899">
        <ele>2375</ele>
        <time>2024-08-14T10:28:28Z</time>
      </trkpt>
      <trkpt lat="44.93803" lon="6.0899">
        <ele>2374.8</ele>
        <time>2024-08-14T10:28:29Z</time>
      </trkpt>
      <trkpt lat="44.93803" lon="6.0899">
        <ele>2374.8</ele>
        <time>2024-08-14T10:28:30Z</time>
      </trkpt>
      <trkpt lat="44.93803" lon="6.0899">
        <ele>2374.2</ele>
        <time>2024-08-14T10:28:31Z</time>
      </trkpt>
      <trkpt lat="44.93805" lon="6.08991">
        <ele>2373.8</ele>
        <time>2024-08-14T10:28:32Z</time>
      </trkpt>
      <trkpt lat="44.93805" lon="6.08991">
        <ele>2373.6</ele>
        <time>2024-08-14T10:28:33Z</time>
      </trkpt>
      <trkpt lat="44.93805" lon="6.08991">
        <ele>2373.6</ele>
        <time>2024-08-14T10:28:34Z</time>
      </trkpt>
      <trkpt lat="44.93807" lon="6.08991">
        <ele>2373.4</ele>
        <time>2024-08-14T10:28:35Z</time>
      </trkpt>
      <trkpt lat="44.93807" lon="6.08991">
        <ele>2373.2</ele>
        <time>2024-08-14T10:28:36Z</time>
      </trkpt>
      <trkpt lat="44.93807" lon="6.08991">
        <ele>2373</ele>
        <time>2024-08-14T10:28:37Z</time>
      </trkpt>
      <trkpt lat="44.93809" lon="6.08992">
        <ele>2372.6</ele>
        <time>2024-08-14T10:28:38Z</time>
      </trkpt>
      <trkpt lat="44.93809" lon="6.08992">
        <ele>2372.4</ele>
        <time>2024-08-14T10:28:39Z</time>
      </trkpt>
      <trkpt lat="44.93809" lon="6.08992">
        <ele>2372.2</ele>
        <time>2024-08-14T10:28:40Z</time>
      </trkpt>
      <trkpt lat="44.93809" lon="6.08992">
        <ele>2371.8</ele>
        <time>2024-08-14T10:28:41Z</time>
      </trkpt>
      <trkpt lat="44.93809" lon="6.08992">
        <ele>2371.8</ele>
        <time>2024-08-14T10:28:42Z</time>
      </trkpt>
      <trkpt lat="44.93809" lon="6.08992">
        <ele>2371.8</ele>
        <time>2024-08-14T10:28:43Z</time>
      </trkpt>
      <trkpt lat="44.93809" lon="6.08992">
        <ele>2371.8</ele>
        <time>2024-08-14T10:28:44Z</time>
      </trkpt>
      <trkpt lat="44.93809" lon="6.08992">
        <ele>2371.8</ele>
        <time>2024-08-14T10:28:45Z</time>
      </trkpt>
      <trkpt lat="44.93809" lon="6.08992">
        <ele>2371.6</ele>
        <time>2024-08-14T10:28:46Z</time>
      </trkpt>
      <trkpt lat="44.93809" lon="6.08992">
        <ele>2371.6</ele>
        <time>2024-08-14T10:28:47Z</time>
      </trkpt>
      <trkpt lat="44.93809" lon="6.08992">
        <ele>2371.4</ele>
        <time>2024-08-14T10:28:48Z</time>
      </trkpt>
      <trkpt lat="44.93809" lon="6.08992">
        <ele>2371.4</ele>
        <time>2024-08-14T10:28:49Z</time>
      </trkpt>
      <trkpt lat="44.93811" lon="6.08993">
        <ele>2371.4</ele>
        <time>2024-08-14T10:28:50Z</time>
      </trkpt>
      <trkpt lat="44.93811" lon="6.08993">
        <ele>2370.8</ele>
        <time>2024-08-14T10:28:51Z</time>
      </trkpt>
      <trkpt lat="44.93813" lon="6.08993">
        <ele>2370.6</ele>
        <time>2024-08-14T10:28:52Z</time>
      </trkpt>
      <trkpt lat="44.93813" lon="6.08993">
        <ele>2370.2</ele>
        <time>2024-08-14T10:28:53Z</time>
      </trkpt>
      <trkpt lat="44.93816" lon="6.08994">
        <ele>2369.8</ele>
        <time>2024-08-14T10:28:54Z</time>
      </trkpt>
      <trkpt lat="44.93816" lon="6.08994">
        <ele>2369.4</ele>
        <time>2024-08-14T10:28:55Z</time>
      </trkpt>
      <trkpt lat="44.93818" lon="6.08994">
        <ele>2369.4</ele>
        <time>2024-08-14T10:28:56Z</time>
      </trkpt>
      <trkpt lat="44.93818" lon="6.08994">
        <ele>2369</ele>
        <time>2024-08-14T10:28:57Z</time>
      </trkpt>
      <trkpt lat="44.93818" lon="6.08994">
        <ele>2369</ele>
        <time>2024-08-14T10:28:58Z</time>
      </trkpt>
      <trkpt lat="44.93818" lon="6.08994">
        <ele>2369</ele>
        <time>2024-08-14T10:28:59Z</time>
      </trkpt>
      <trkpt lat="44.93818" lon="6.08994">
        <ele>2368.8</ele>
        <time>2024-08-14T10:29:00Z</time>
      </trkpt>
      <trkpt lat="44.9382" lon="6.08996">
        <ele>2368.6</ele>
        <time>2024-08-14T10:29:01Z</time>
      </trkpt>
      <trkpt lat="44.9382" lon="6.08996">
        <ele>2368.2</ele>
        <time>2024-08-14T10:29:02Z</time>
      </trkpt>
      <trkpt lat="44.9382" lon="6.08996">
        <ele>2368.2</ele>
        <time>2024-08-14T10:29:03Z</time>
      </trkpt>
      <trkpt lat="44.9382" lon="6.08996">
        <ele>2368.2</ele>
        <time>2024-08-14T10:29:04Z</time>
      </trkpt>
      <trkpt lat="44.9382" lon="6.08996">
        <ele>2368.2</ele>
        <time>2024-08-14T10:29:05Z</time>
      </trkpt>
      <trkpt lat="44.93821" lon="6.08998">
        <ele>2368.4</ele>
        <time>2024-08-14T10:29:06Z</time>
      </trkpt>
      <trkpt lat="44.93821" lon="6.08998">
        <ele>2368.4</ele>
        <time>2024-08-14T10:29:07Z</time>
      </trkpt>
      <trkpt lat="44.93821" lon="6.08998">
        <ele>2368</ele>
        <time>2024-08-14T10:29:08Z</time>
      </trkpt>
      <trkpt lat="44.93822" lon="6.09">
        <ele>2368</ele>
        <time>2024-08-14T10:29:09Z</time>
      </trkpt>
      <trkpt lat="44.93822" lon="6.09">
        <ele>2367.8</ele>
        <time>2024-08-14T10:29:10Z</time>
      </trkpt>
      <trkpt lat="44.93822" lon="6.09">
        <ele>2367.2</ele>
        <time>2024-08-14T10:29:11Z</time>
      </trkpt>
      <trkpt lat="44.93825" lon="6.09002">
        <ele>2367</ele>
        <time>2024-08-14T10:29:12Z</time>
      </trkpt>
      <trkpt lat="44.93825" lon="6.09002">
        <ele>2366.8</ele>
        <time>2024-08-14T10:29:13Z</time>
      </trkpt>
      <trkpt lat="44.93827" lon="6.09001">
        <ele>2366.6</ele>
        <time>2024-08-14T10:29:14Z</time>
      </trkpt>
      <trkpt lat="44.93827" lon="6.09001">
        <ele>2366.6</ele>
        <time>2024-08-14T10:29:15Z</time>
      </trkpt>
      <trkpt lat="44.93829" lon="6.09001">
        <ele>2366.4</ele>
        <time>2024-08-14T10:29:16Z</time>
      </trkpt>
      <trkpt lat="44.93829" lon="6.09001">
        <ele>2366.2</ele>
        <time>2024-08-14T10:29:17Z</time>
      </trkpt>
      <trkpt lat="44.93829" lon="6.09001">
        <ele>2365.8</ele>
        <time>2024-08-14T10:29:18Z</time>
      </trkpt>
      <trkpt lat="44.93829" lon="6.09001">
        <ele>2365.6</ele>
        <time>2024-08-14T10:29:19Z</time>
      </trkpt>
      <trkpt lat="44.93829" lon="6.09001">
        <ele>2365.2</ele>
        <time>2024-08-14T10:29:20Z</time>
      </trkpt>
      <trkpt lat="44.9383" lon="6.09001">
        <ele>2365</ele>
        <time>2024-08-14T10:29:21Z</time>
      </trkpt>
      <trkpt lat="44.9383" lon="6.09001">
        <ele>2365</ele>
        <time>2024-08-14T10:29:22Z</time>
      </trkpt>
      <trkpt lat="44.9383" lon="6.09001">
        <ele>2364.6</ele>
        <time>2024-08-14T10:29:23Z</time>
      </trkpt>
      <trkpt lat="44.9383" lon="6.09001">
        <ele>2364.6</ele>
        <time>2024-08-14T10:29:24Z</time>
      </trkpt>
      <trkpt lat="44.9383" lon="6.09001">
        <ele>2364</ele>
        <time>2024-08-14T10:29:25Z</time>
      </trkpt>
      <trkpt lat="44.93833" lon="6.09001">
        <ele>2363.8</ele>
        <time>2024-08-14T10:29:26Z</time>
      </trkpt>
      <trkpt lat="44.93833" lon="6.09001">
        <ele>2363.8</ele>
        <time>2024-08-14T10:29:27Z</time>
      </trkpt>
      <trkpt lat="44.93835" lon="6.09">
        <ele>2363.4</ele>
        <time>2024-08-14T10:29:28Z</time>
      </trkpt>
      <trkpt lat="44.93835" lon="6.09">
        <ele>2363</ele>
        <time>2024-08-14T10:29:29Z</time>
      </trkpt>
      <trkpt lat="44.93835" lon="6.09">
        <ele>2362.8</ele>
        <time>2024-08-14T10:29:30Z</time>
      </trkpt>
      <trkpt lat="44.93837" lon="6.09002">
        <ele>2362.4</ele>
        <time>2024-08-14T10:29:31Z</time>
      </trkpt>
      <trkpt lat="44.93837" lon="6.09002">
        <ele>2362.2</ele>
        <time>2024-08-14T10:29:32Z</time>
      </trkpt>
      <trkpt lat="44.93837" lon="6.09002">
        <ele>2362</ele>
        <time>2024-08-14T10:29:33Z</time>
      </trkpt>
      <trkpt lat="44.9384" lon="6.09003">
        <ele>2361.4</ele>
        <time>2024-08-14T10:29:34Z</time>
      </trkpt>
      <trkpt lat="44.9384" lon="6.09003">
        <ele>2360.8</ele>
        <time>2024-08-14T10:29:35Z</time>
      </trkpt>
      <trkpt lat="44.93842" lon="6.09004">
        <ele>2360.6</ele>
        <time>2024-08-14T10:29:36Z</time>
      </trkpt>
      <trkpt lat="44.93842" lon="6.09004">
        <ele>2360.2</ele>
        <time>2024-08-14T10:29:37Z</time>
      </trkpt>
      <trkpt lat="44.93844" lon="6.09005">
        <ele>2359.8</ele>
        <time>2024-08-14T10:29:38Z</time>
      </trkpt>
      <trkpt lat="44.93844" lon="6.09005">
        <ele>2359.6</ele>
        <time>2024-08-14T10:29:39Z</time>
      </trkpt>
      <trkpt lat="44.93846" lon="6.09006">
        <ele>2359.4</ele>
        <time>2024-08-14T10:29:40Z</time>
      </trkpt>
      <trkpt lat="44.93846" lon="6.09006">
        <ele>2359.2</ele>
        <time>2024-08-14T10:29:41Z</time>
      </trkpt>
      <trkpt lat="44.93848" lon="6.09007">
        <ele>2359</ele>
        <time>2024-08-14T10:29:42Z</time>
      </trkpt>
      <trkpt lat="44.93848" lon="6.09007">
        <ele>2358.6</ele>
        <time>2024-08-14T10:29:43Z</time>
      </trkpt>
      <trkpt lat="44.93851" lon="6.09007">
        <ele>2358.4</ele>
        <time>2024-08-14T10:29:44Z</time>
      </trkpt>
      <trkpt lat="44.93851" lon="6.09007">
        <ele>2358.2</ele>
        <time>2024-08-14T10:29:45Z</time>
      </trkpt>
      <trkpt lat="44.93853" lon="6.09008">
        <ele>2358.2</ele>
        <time>2024-08-14T10:29:46Z</time>
      </trkpt>
      <trkpt lat="44.93853" lon="6.09008">
        <ele>2358</ele>
        <time>2024-08-14T10:29:47Z</time>
      </trkpt>
      <trkpt lat="44.93853" lon="6.09008">
        <ele>2357.8</ele>
        <time>2024-08-14T10:29:48Z</time>
      </trkpt>
      <trkpt lat="44.93853" lon="6.09008">
        <ele>2357.6</ele>
        <time>2024-08-14T10:29:49Z</time>
      </trkpt>
      <trkpt lat="44.93853" lon="6.09008">
        <ele>2357.4</ele>
        <time>2024-08-14T10:29:50Z</time>
      </trkpt>
      <trkpt lat="44.93853" lon="6.09008">
        <ele>2357.4</ele>
        <time>2024-08-14T10:29:51Z</time>
      </trkpt>
      <trkpt lat="44.93853" lon="6.09008">
        <ele>2357.4</ele>
        <time>2024-08-14T10:29:52Z</time>
      </trkpt>
      <trkpt lat="44.93853" lon="6.09008">
        <ele>2357.4</ele>
        <time>2024-08-14T10:29:53Z</time>
      </trkpt>
      <trkpt lat="44.93853" lon="6.09008">
        <ele>2357.4</ele>
        <time>2024-08-14T10:29:54Z</time>
      </trkpt>
      <trkpt lat="44.93853" lon="6.09008">
        <ele>2357.4</ele>
        <time>2024-08-14T10:29:55Z</time>
      </trkpt>
      <trkpt lat="44.93853" lon="6.09008">
        <ele>2357.4</ele>
        <time>2024-08-14T10:29:56Z</time>
      </trkpt>
      <trkpt lat="44.93853" lon="6.09008">
        <ele>2357.4</ele>
        <time>2024-08-14T10:29:57Z</time>
      </trkpt>
      <trkpt lat="44.93853" lon="6.09008">
        <ele>2357.4</ele>
        <time>2024-08-14T10:29:58Z</time>
      </trkpt>
      <trkpt lat="44.93853" lon="6.09008">
        <ele>2357.2</ele>
        <time>2024-08-14T10:29:59Z</time>
      </trkpt>
      <trkpt lat="44.93853" lon="6.09008">
        <ele>2357.2</ele>
        <time>2024-08-14T10:30:00Z</time>
      </trkpt>
      <trkpt lat="44.93853" lon="6.09008">
        <ele>2357.2</ele>
        <time>2024-08-14T10:30:01Z</time>
      </trkpt>
      <trkpt lat="44.93853" lon="6.09008">
        <ele>2357.2</ele>
        <time>2024-08-14T10:30:02Z</time>
      </trkpt>
      <trkpt lat="44.93853" lon="6.09008">
        <ele>2357.2</ele>
        <time>2024-08-14T10:30:03Z</time>
      </trkpt>
      <trkpt lat="44.93853" lon="6.09008">
        <ele>2357.2</ele>
        <time>2024-08-14T10:30:04Z</time>
      </trkpt>
      <trkpt lat="44.93855" lon="6.09007">
        <ele>2357.2</ele>
        <time>2024-08-14T10:30:05Z</time>
      </trkpt>
      <trkpt lat="44.93855" lon="6.09007">
        <ele>2357.2</ele>
        <time>2024-08-14T10:30:06Z</time>
      </trkpt>
      <trkpt lat="44.93855" lon="6.09007">
        <ele>2356.8</ele>
        <time>2024-08-14T10:30:07Z</time>
      </trkpt>
      <trkpt lat="44.93858" lon="6.09008">
        <ele>2356.8</ele>
        <time>2024-08-14T10:30:08Z</time>
      </trkpt>
      <trkpt lat="44.93858" lon="6.09008">
        <ele>2356.6</ele>
        <time>2024-08-14T10:30:09Z</time>
      </trkpt>
      <trkpt lat="44.93861" lon="6.09009">
        <ele>2356.4</ele>
        <time>2024-08-14T10:30:10Z</time>
      </trkpt>
      <trkpt lat="44.93861" lon="6.09009">
        <ele>2356.4</ele>
        <time>2024-08-14T10:30:11Z</time>
      </trkpt>
      <trkpt lat="44.93861" lon="6.09009">
        <ele>2356</ele>
        <time>2024-08-14T10:30:12Z</time>
      </trkpt>
      <trkpt lat="44.93862" lon="6.0901">
        <ele>2356</ele>
        <time>2024-08-14T10:30:13Z</time>
      </trkpt>
      <trkpt lat="44.93862" lon="6.0901">
        <ele>2355.6</ele>
        <time>2024-08-14T10:30:14Z</time>
      </trkpt>
      <trkpt lat="44.93862" lon="6.0901">
        <ele>2355.4</ele>
        <time>2024-08-14T10:30:15Z</time>
      </trkpt>
      <trkpt lat="44.93862" lon="6.0901">
        <ele>2355.4</ele>
        <time>2024-08-14T10:30:16Z</time>
      </trkpt>
      <trkpt lat="44.93864" lon="6.0901">
        <ele>2355</ele>
        <time>2024-08-14T10:30:17Z</time>
      </trkpt>
      <trkpt lat="44.93864" lon="6.0901">
        <ele>2355</ele>
        <time>2024-08-14T10:30:18Z</time>
      </trkpt>
      <trkpt lat="44.93866" lon="6.09011">
        <ele>2354.8</ele>
        <time>2024-08-14T10:30:19Z</time>
      </trkpt>
      <trkpt lat="44.93866" lon="6.09011">
        <ele>2354.6</ele>
        <time>2024-08-14T10:30:20Z</time>
      </trkpt>
      <trkpt lat="44.93868" lon="6.09013">
        <ele>2354.6</ele>
        <time>2024-08-14T10:30:21Z</time>
      </trkpt>
      <trkpt lat="44.93868" lon="6.09013">
        <ele>2354</ele>
        <time>2024-08-14T10:30:22Z</time>
      </trkpt>
      <trkpt lat="44.93869" lon="6.09015">
        <ele>2353.6</ele>
        <time>2024-08-14T10:30:23Z</time>
      </trkpt>
      <trkpt lat="44.93869" lon="6.09015">
        <ele>2353.6</ele>
        <time>2024-08-14T10:30:24Z</time>
      </trkpt>
      <trkpt lat="44.93869" lon="6.09015">
        <ele>2353.4</ele>
        <time>2024-08-14T10:30:25Z</time>
      </trkpt>
      <trkpt lat="44.93871" lon="6.09015">
        <ele>2353.4</ele>
        <time>2024-08-14T10:30:26Z</time>
      </trkpt>
      <trkpt lat="44.93871" lon="6.09015">
        <ele>2353.2</ele>
        <time>2024-08-14T10:30:27Z</time>
      </trkpt>
      <trkpt lat="44.93871" lon="6.09015">
        <ele>2352.8</ele>
        <time>2024-08-14T10:30:28Z</time>
      </trkpt>
      <trkpt lat="44.93874" lon="6.09017">
        <ele>2352.4</ele>
        <time>2024-08-14T10:30:29Z</time>
      </trkpt>
      <trkpt lat="44.93874" lon="6.09017">
        <ele>2352.4</ele>
        <time>2024-08-14T10:30:30Z</time>
      </trkpt>
      <trkpt lat="44.93876" lon="6.09018">
        <ele>2352.2</ele>
        <time>2024-08-14T10:30:31Z</time>
      </trkpt>
      <trkpt lat="44.93876" lon="6.09018">
        <ele>2352</ele>
        <time>2024-08-14T10:30:32Z</time>
      </trkpt>
      <trkpt lat="44.93878" lon="6.0902">
        <ele>2351.8</ele>
        <time>2024-08-14T10:30:33Z</time>
      </trkpt>
      <trkpt lat="44.93878" lon="6.0902">
        <ele>2351.6</ele>
        <time>2024-08-14T10:30:34Z</time>
      </trkpt>
      <trkpt lat="44.9388" lon="6.09022">
        <ele>2351.6</ele>
        <time>2024-08-14T10:30:35Z</time>
      </trkpt>
      <trkpt lat="44.9388" lon="6.09022">
        <ele>2351.6</ele>
        <time>2024-08-14T10:30:36Z</time>
      </trkpt>
      <trkpt lat="44.93882" lon="6.09023">
        <ele>2351.2</ele>
        <time>2024-08-14T10:30:37Z</time>
      </trkpt>
      <trkpt lat="44.93882" lon="6.09023">
        <ele>2351</ele>
        <time>2024-08-14T10:30:38Z</time>
      </trkpt>
      <trkpt lat="44.93884" lon="6.09024">
        <ele>2350.8</ele>
        <time>2024-08-14T10:30:39Z</time>
      </trkpt>
      <trkpt lat="44.93884" lon="6.09024">
        <ele>2350.8</ele>
        <time>2024-08-14T10:30:40Z</time>
      </trkpt>
      <trkpt lat="44.93887" lon="6.09024">
        <ele>2350.8</ele>
        <time>2024-08-14T10:30:41Z</time>
      </trkpt>
      <trkpt lat="44.93887" lon="6.09024">
        <ele>2350.6</ele>
        <time>2024-08-14T10:30:42Z</time>
      </trkpt>
      <trkpt lat="44.93889" lon="6.09026">
        <ele>2350.2</ele>
        <time>2024-08-14T10:30:43Z</time>
      </trkpt>
      <trkpt lat="44.93889" lon="6.09026">
        <ele>2350.2</ele>
        <time>2024-08-14T10:30:44Z</time>
      </trkpt>
      <trkpt lat="44.93891" lon="6.09027">
        <ele>2349.6</ele>
        <time>2024-08-14T10:30:45Z</time>
      </trkpt>
      <trkpt lat="44.93891" lon="6.09027">
        <ele>2349.6</ele>
        <time>2024-08-14T10:30:46Z</time>
      </trkpt>
      <trkpt lat="44.93894" lon="6.09028">
        <ele>2350.2</ele>
        <time>2024-08-14T10:30:47Z</time>
      </trkpt>
      <trkpt lat="44.93894" lon="6.09028">
        <ele>2350.2</ele>
        <time>2024-08-14T10:30:48Z</time>
      </trkpt>
      <trkpt lat="44.93897" lon="6.09029">
        <ele>2350.2</ele>
        <time>2024-08-14T10:30:49Z</time>
      </trkpt>
      <trkpt lat="44.93897" lon="6.09029">
        <ele>2350.2</ele>
        <time>2024-08-14T10:30:50Z</time>
      </trkpt>
      <trkpt lat="44.93897" lon="6.09029">
        <ele>2349.8</ele>
        <time>2024-08-14T10:30:51Z</time>
      </trkpt>
      <trkpt lat="44.939" lon="6.09031">
        <ele>2349.8</ele>
        <time>2024-08-14T10:30:52Z</time>
      </trkpt>
      <trkpt lat="44.939" lon="6.09031">
        <ele>2349.8</ele>
        <time>2024-08-14T10:30:53Z</time>
      </trkpt>
      <trkpt lat="44.93902" lon="6.09031">
        <ele>2349.8</ele>
        <time>2024-08-14T10:30:54Z</time>
      </trkpt>
      <trkpt lat="44.93902" lon="6.09031">
        <ele>2349.8</ele>
        <time>2024-08-14T10:30:55Z</time>
      </trkpt>
      <trkpt lat="44.93904" lon="6.09032">
        <ele>2349.8</ele>
        <time>2024-08-14T10:30:56Z</time>
      </trkpt>
      <trkpt lat="44.93904" lon="6.09032">
        <ele>2350</ele>
        <time>2024-08-14T10:30:57Z</time>
      </trkpt>
      <trkpt lat="44.93907" lon="6.09032">
        <ele>2350</ele>
        <time>2024-08-14T10:30:58Z</time>
      </trkpt>
      <trkpt lat="44.93907" lon="6.09032">
        <ele>2350</ele>
        <time>2024-08-14T10:30:59Z</time>
      </trkpt>
      <trkpt lat="44.93909" lon="6.09032">
        <ele>2349.6</ele>
        <time>2024-08-14T10:31:00Z</time>
      </trkpt>
      <trkpt lat="44.93909" lon="6.09032">
        <ele>2349.6</ele>
        <time>2024-08-14T10:31:01Z</time>
      </trkpt>
      <trkpt lat="44.93911" lon="6.09032">
        <ele>2349</ele>
        <time>2024-08-14T10:31:02Z</time>
      </trkpt>
      <trkpt lat="44.93911" lon="6.09032">
        <ele>2349</ele>
        <time>2024-08-14T10:31:03Z</time>
      </trkpt>
      <trkpt lat="44.93914" lon="6.09033">
        <ele>2349.2</ele>
        <time>2024-08-14T10:31:04Z</time>
      </trkpt>
      <trkpt lat="44.93914" lon="6.09033">
        <ele>2349.2</ele>
        <time>2024-08-14T10:31:05Z</time>
      </trkpt>
      <trkpt lat="44.93916" lon="6.09034">
        <ele>2349</ele>
        <time>2024-08-14T10:31:06Z</time>
      </trkpt>
      <trkpt lat="44.93916" lon="6.09034">
        <ele>2348.8</ele>
        <time>2024-08-14T10:31:07Z</time>
      </trkpt>
      <trkpt lat="44.93918" lon="6.09033">
        <ele>2348.4</ele>
        <time>2024-08-14T10:31:08Z</time>
      </trkpt>
      <trkpt lat="44.93918" lon="6.09033">
        <ele>2348</ele>
        <time>2024-08-14T10:31:09Z</time>
      </trkpt>
      <trkpt lat="44.9392" lon="6.09032">
        <ele>2347.8</ele>
        <time>2024-08-14T10:31:10Z</time>
      </trkpt>
      <trkpt lat="44.9392" lon="6.09032">
        <ele>2347.8</ele>
        <time>2024-08-14T10:31:11Z</time>
      </trkpt>
      <trkpt lat="44.93922" lon="6.09032">
        <ele>2347.8</ele>
        <time>2024-08-14T10:31:12Z</time>
      </trkpt>
      <trkpt lat="44.93922" lon="6.09032">
        <ele>2347.6</ele>
        <time>2024-08-14T10:31:13Z</time>
      </trkpt>
      <trkpt lat="44.93924" lon="6.09032">
        <ele>2347.4</ele>
        <time>2024-08-14T10:31:14Z</time>
      </trkpt>
      <trkpt lat="44.93924" lon="6.09032">
        <ele>2347</ele>
        <time>2024-08-14T10:31:15Z</time>
      </trkpt>
      <trkpt lat="44.93925" lon="6.09033">
        <ele>2346.6</ele>
        <time>2024-08-14T10:31:16Z</time>
      </trkpt>
      <trkpt lat="44.93925" lon="6.09033">
        <ele>2346.4</ele>
        <time>2024-08-14T10:31:17Z</time>
      </trkpt>
      <trkpt lat="44.93927" lon="6.09032">
        <ele>2346.4</ele>
        <time>2024-08-14T10:31:18Z</time>
      </trkpt>
      <trkpt lat="44.93927" lon="6.09032">
        <ele>2346</ele>
        <time>2024-08-14T10:31:19Z</time>
      </trkpt>
      <trkpt lat="44.9393" lon="6.09031">
        <ele>2345.6</ele>
        <time>2024-08-14T10:31:20Z</time>
      </trkpt>
      <trkpt lat="44.9393" lon="6.09031">
        <ele>2345.4</ele>
        <time>2024-08-14T10:31:21Z</time>
      </trkpt>
      <trkpt lat="44.93931" lon="6.09029">
        <ele>2345.2</ele>
        <time>2024-08-14T10:31:22Z</time>
      </trkpt>
      <trkpt lat="44.93931" lon="6.09029">
        <ele>2345</ele>
        <time>2024-08-14T10:31:23Z</time>
      </trkpt>
      <trkpt lat="44.93933" lon="6.09027">
        <ele>2344.6</ele>
        <time>2024-08-14T10:31:24Z</time>
      </trkpt>
      <trkpt lat="44.93933" lon="6.09027">
        <ele>2344.6</ele>
        <time>2024-08-14T10:31:25Z</time>
      </trkpt>
      <trkpt lat="44.93933" lon="6.09027">
        <ele>2343.8</ele>
        <time>2024-08-14T10:31:26Z</time>
      </trkpt>
      <trkpt lat="44.93935" lon="6.09026">
        <ele>2343.6</ele>
        <time>2024-08-14T10:31:27Z</time>
      </trkpt>
      <trkpt lat="44.93935" lon="6.09026">
        <ele>2343.2</ele>
        <time>2024-08-14T10:31:28Z</time>
      </trkpt>
      <trkpt lat="44.93935" lon="6.09026">
        <ele>2343</ele>
        <time>2024-08-14T10:31:29Z</time>
      </trkpt>
      <trkpt lat="44.93937" lon="6.09024">
        <ele>2342.4</ele>
        <time>2024-08-14T10:31:30Z</time>
      </trkpt>
      <trkpt lat="44.93937" lon="6.09024">
        <ele>2341.8</ele>
        <time>2024-08-14T10:31:31Z</time>
      </trkpt>
      <trkpt lat="44.93937" lon="6.09021">
        <ele>2341.8</ele>
        <time>2024-08-14T10:31:32Z</time>
      </trkpt>
      <trkpt lat="44.93937" lon="6.09021">
        <ele>2341.8</ele>
        <time>2024-08-14T10:31:33Z</time>
      </trkpt>
      <trkpt lat="44.93937" lon="6.09018">
        <ele>2341.4</ele>
        <time>2024-08-14T10:31:34Z</time>
      </trkpt>
      <trkpt lat="44.93937" lon="6.09018">
        <ele>2341</ele>
        <time>2024-08-14T10:31:35Z</time>
      </trkpt>
      <trkpt lat="44.93938" lon="6.09015">
        <ele>2340.8</ele>
        <time>2024-08-14T10:31:36Z</time>
      </trkpt>
      <trkpt lat="44.93938" lon="6.09015">
        <ele>2340.6</ele>
        <time>2024-08-14T10:31:37Z</time>
      </trkpt>
      <trkpt lat="44.9394" lon="6.09014">
        <ele>2340.2</ele>
        <time>2024-08-14T10:31:38Z</time>
      </trkpt>
      <trkpt lat="44.9394" lon="6.09014">
        <ele>2340</ele>
        <time>2024-08-14T10:31:39Z</time>
      </trkpt>
      <trkpt lat="44.93941" lon="6.09014">
        <ele>2339.6</ele>
        <time>2024-08-14T10:31:40Z</time>
      </trkpt>
      <trkpt lat="44.93941" lon="6.09014">
        <ele>2339.6</ele>
        <time>2024-08-14T10:31:41Z</time>
      </trkpt>
      <trkpt lat="44.93941" lon="6.09014">
        <ele>2339.4</ele>
        <time>2024-08-14T10:31:42Z</time>
      </trkpt>
      <trkpt lat="44.93943" lon="6.09015">
        <ele>2339</ele>
        <time>2024-08-14T10:31:43Z</time>
      </trkpt>
      <trkpt lat="44.93943" lon="6.09015">
        <ele>2339</ele>
        <time>2024-08-14T10:31:44Z</time>
      </trkpt>
      <trkpt lat="44.93943" lon="6.09015">
        <ele>2339</ele>
        <time>2024-08-14T10:31:45Z</time>
      </trkpt>
      <trkpt lat="44.93946" lon="6.09015">
        <ele>2338.8</ele>
        <time>2024-08-14T10:31:46Z</time>
      </trkpt>
      <trkpt lat="44.93946" lon="6.09015">
        <ele>2338.2</ele>
        <time>2024-08-14T10:31:47Z</time>
      </trkpt>
      <trkpt lat="44.93948" lon="6.09015">
        <ele>2337.8</ele>
        <time>2024-08-14T10:31:48Z</time>
      </trkpt>
      <trkpt lat="44.93948" lon="6.09015">
        <ele>2337.4</ele>
        <time>2024-08-14T10:31:49Z</time>
      </trkpt>
      <trkpt lat="44.9395" lon="6.09014">
        <ele>2337.2</ele>
        <time>2024-08-14T10:31:50Z</time>
      </trkpt>
      <trkpt lat="44.9395" lon="6.09014">
        <ele>2336.4</ele>
        <time>2024-08-14T10:31:51Z</time>
      </trkpt>
      <trkpt lat="44.93952" lon="6.09013">
        <ele>2336.2</ele>
        <time>2024-08-14T10:31:52Z</time>
      </trkpt>
      <trkpt lat="44.93952" lon="6.09013">
        <ele>2336</ele>
        <time>2024-08-14T10:31:53Z</time>
      </trkpt>
      <trkpt lat="44.93955" lon="6.09012">
        <ele>2335.8</ele>
        <time>2024-08-14T10:31:54Z</time>
      </trkpt>
      <trkpt lat="44.93955" lon="6.09012">
        <ele>2335.6</ele>
        <time>2024-08-14T10:31:55Z</time>
      </trkpt>
      <trkpt lat="44.93957" lon="6.09011">
        <ele>2335.2</ele>
        <time>2024-08-14T10:31:56Z</time>
      </trkpt>
      <trkpt lat="44.93957" lon="6.09011">
        <ele>2334.8</ele>
        <time>2024-08-14T10:31:57Z</time>
      </trkpt>
      <trkpt lat="44.93957" lon="6.09011">
        <ele>2334.6</ele>
        <time>2024-08-14T10:31:58Z</time>
      </trkpt>
      <trkpt lat="44.9396" lon="6.09012">
        <ele>2334.2</ele>
        <time>2024-08-14T10:31:59Z</time>
      </trkpt>
      <trkpt lat="44.9396" lon="6.09012">
        <ele>2334</ele>
        <time>2024-08-14T10:32:00Z</time>
      </trkpt>
      <trkpt lat="44.93961" lon="6.09013">
        <ele>2333.4</ele>
        <time>2024-08-14T10:32:01Z</time>
      </trkpt>
      <trkpt lat="44.93961" lon="6.09013">
        <ele>2332.8</ele>
        <time>2024-08-14T10:32:02Z</time>
      </trkpt>
      <trkpt lat="44.93964" lon="6.09014">
        <ele>2332.8</ele>
        <time>2024-08-14T10:32:03Z</time>
      </trkpt>
      <trkpt lat="44.93964" lon="6.09014">
        <ele>2332.4</ele>
        <time>2024-08-14T10:32:04Z</time>
      </trkpt>
      <trkpt lat="44.93964" lon="6.09014">
        <ele>2332.2</ele>
        <time>2024-08-14T10:32:05Z</time>
      </trkpt>
      <trkpt lat="44.93966" lon="6.09015">
        <ele>2331.8</ele>
        <time>2024-08-14T10:32:06Z</time>
      </trkpt>
      <trkpt lat="44.93966" lon="6.09015">
        <ele>2331.4</ele>
        <time>2024-08-14T10:32:07Z</time>
      </trkpt>
      <trkpt lat="44.93968" lon="6.09016">
        <ele>2331</ele>
        <time>2024-08-14T10:32:08Z</time>
      </trkpt>
      <trkpt lat="44.93968" lon="6.09016">
        <ele>2330.8</ele>
        <time>2024-08-14T10:32:09Z</time>
      </trkpt>
      <trkpt lat="44.9397" lon="6.09017">
        <ele>2330.4</ele>
        <time>2024-08-14T10:32:10Z</time>
      </trkpt>
      <trkpt lat="44.9397" lon="6.09017">
        <ele>2330.2</ele>
        <time>2024-08-14T10:32:11Z</time>
      </trkpt>
      <trkpt lat="44.93972" lon="6.09019">
        <ele>2329.8</ele>
        <time>2024-08-14T10:32:12Z</time>
      </trkpt>
      <trkpt lat="44.93972" lon="6.09019">
        <ele>2329.4</ele>
        <time>2024-08-14T10:32:13Z</time>
      </trkpt>
      <trkpt lat="44.93974" lon="6.09019">
        <ele>2329.2</ele>
        <time>2024-08-14T10:32:14Z</time>
      </trkpt>
      <trkpt lat="44.93974" lon="6.09019">
        <ele>2328.8</ele>
        <time>2024-08-14T10:32:15Z</time>
      </trkpt>
      <trkpt lat="44.93974" lon="6.09019">
        <ele>2328.8</ele>
        <time>2024-08-14T10:32:16Z</time>
      </trkpt>
      <trkpt lat="44.93977" lon="6.09019">
        <ele>2328.4</ele>
        <time>2024-08-14T10:32:17Z</time>
      </trkpt>
      <trkpt lat="44.93977" lon="6.09019">
        <ele>2328.2</ele>
        <time>2024-08-14T10:32:18Z</time>
      </trkpt>
      <trkpt lat="44.93979" lon="6.0902">
        <ele>2327.8</ele>
        <time>2024-08-14T10:32:19Z</time>
      </trkpt>
      <trkpt lat="44.93979" lon="6.0902">
        <ele>2327.4</ele>
        <time>2024-08-14T10:32:20Z</time>
      </trkpt>
      <trkpt lat="44.93981" lon="6.09022">
        <ele>2327.2</ele>
        <time>2024-08-14T10:32:21Z</time>
      </trkpt>
      <trkpt lat="44.93981" lon="6.09022">
        <ele>2327</ele>
        <time>2024-08-14T10:32:22Z</time>
      </trkpt>
      <trkpt lat="44.93983" lon="6.09022">
        <ele>2326.8</ele>
        <time>2024-08-14T10:32:23Z</time>
      </trkpt>
      <trkpt lat="44.93983" lon="6.09022">
        <ele>2326.4</ele>
        <time>2024-08-14T10:32:24Z</time>
      </trkpt>
      <trkpt lat="44.93985" lon="6.09022">
        <ele>2326</ele>
        <time>2024-08-14T10:32:25Z</time>
      </trkpt>
      <trkpt lat="44.93985" lon="6.09022">
        <ele>2325.8</ele>
        <time>2024-08-14T10:32:26Z</time>
      </trkpt>
      <trkpt lat="44.93985" lon="6.09022">
        <ele>2325.4</ele>
        <time>2024-08-14T10:32:27Z</time>
      </trkpt>
      <trkpt lat="44.93987" lon="6.09022">
        <ele>2325.2</ele>
        <time>2024-08-14T10:32:28Z</time>
      </trkpt>
      <trkpt lat="44.93987" lon="6.09022">
        <ele>2324.8</ele>
        <time>2024-08-14T10:32:29Z</time>
      </trkpt>
      <trkpt lat="44.93989" lon="6.09023">
        <ele>2324.6</ele>
        <time>2024-08-14T10:32:30Z</time>
      </trkpt>
      <trkpt lat="44.93989" lon="6.09023">
        <ele>2324.4</ele>
        <time>2024-08-14T10:32:31Z</time>
      </trkpt>
      <trkpt lat="44.93989" lon="6.09023">
        <ele>2323.8</ele>
        <time>2024-08-14T10:32:32Z</time>
      </trkpt>
      <trkpt lat="44.93989" lon="6.09023">
        <ele>2323.4</ele>
        <time>2024-08-14T10:32:33Z</time>
      </trkpt>
      <trkpt lat="44.93991" lon="6.09022">
        <ele>2323.2</ele>
        <time>2024-08-14T10:32:34Z</time>
      </trkpt>
      <trkpt lat="44.93991" lon="6.09022">
        <ele>2323</ele>
        <time>2024-08-14T10:32:35Z</time>
      </trkpt>
      <trkpt lat="44.93993" lon="6.09022">
        <ele>2322.6</ele>
        <time>2024-08-14T10:32:36Z</time>
      </trkpt>
      <trkpt lat="44.93993" lon="6.09022">
        <ele>2322.2</ele>
        <time>2024-08-14T10:32:37Z</time>
      </trkpt>
      <trkpt lat="44.93993" lon="6.09022">
        <ele>2322.2</ele>
        <time>2024-08-14T10:32:38Z</time>
      </trkpt>
      <trkpt lat="44.93996" lon="6.09023">
        <ele>2321.8</ele>
        <time>2024-08-14T10:32:39Z</time>
      </trkpt>
      <trkpt lat="44.93996" lon="6.09023">
        <ele>2321.2</ele>
        <time>2024-08-14T10:32:40Z</time>
      </trkpt>
      <trkpt lat="44.93996" lon="6.09023">
        <ele>2320.8</ele>
        <time>2024-08-14T10:32:41Z</time>
      </trkpt>
      <trkpt lat="44.93998" lon="6.09024">
        <ele>2320.2</ele>
        <time>2024-08-14T10:32:42Z</time>
      </trkpt>
      <trkpt lat="44.93998" lon="6.09024">
        <ele>2319.8</ele>
        <time>2024-08-14T10:32:43Z</time>
      </trkpt>
      <trkpt lat="44.93999" lon="6.09026">
        <ele>2319.6</ele>
        <time>2024-08-14T10:32:44Z</time>
      </trkpt>
      <trkpt lat="44.93999" lon="6.09026">
        <ele>2319.4</ele>
        <time>2024-08-14T10:32:45Z</time>
      </trkpt>
      <trkpt lat="44.94001" lon="6.09029">
        <ele>2318.8</ele>
        <time>2024-08-14T10:32:46Z</time>
      </trkpt>
      <trkpt lat="44.94001" lon="6.09029">
        <ele>2318.6</ele>
        <time>2024-08-14T10:32:47Z</time>
      </trkpt>
      <trkpt lat="44.94003" lon="6.09032">
        <ele>2318.2</ele>
        <time>2024-08-14T10:32:48Z</time>
      </trkpt>
      <trkpt lat="44.94003" lon="6.09032">
        <ele>2317.8</ele>
        <time>2024-08-14T10:32:49Z</time>
      </trkpt>
      <trkpt lat="44.94005" lon="6.09035">
        <ele>2317.6</ele>
        <time>2024-08-14T10:32:50Z</time>
      </trkpt>
      <trkpt lat="44.94005" lon="6.09035">
        <ele>2317.4</ele>
        <time>2024-08-14T10:32:51Z</time>
      </trkpt>
      <trkpt lat="44.94005" lon="6.09035">
        <ele>2316.8</ele>
        <time>2024-08-14T10:32:52Z</time>
      </trkpt>
      <trkpt lat="44.94006" lon="6.09037">
        <ele>2316.6</ele>
        <time>2024-08-14T10:32:53Z</time>
      </trkpt>
      <trkpt lat="44.94006" lon="6.09037">
        <ele>2316.2</ele>
        <time>2024-08-14T10:32:54Z</time>
      </trkpt>
      <trkpt lat="44.94008" lon="6.0904">
        <ele>2316.2</ele>
        <time>2024-08-14T10:32:55Z</time>
      </trkpt>
      <trkpt lat="44.94008" lon="6.0904">
        <ele>2315.8</ele>
        <time>2024-08-14T10:32:56Z</time>
      </trkpt>
      <trkpt lat="44.9401" lon="6.09042">
        <ele>2315.4</ele>
        <time>2024-08-14T10:32:57Z</time>
      </trkpt>
      <trkpt lat="44.9401" lon="6.09042">
        <ele>2315.4</ele>
        <time>2024-08-14T10:32:58Z</time>
      </trkpt>
      <trkpt lat="44.9401" lon="6.09042">
        <ele>2315</ele>
        <time>2024-08-14T10:32:59Z</time>
      </trkpt>
      <trkpt lat="44.94013" lon="6.09043">
        <ele>2314.6</ele>
        <time>2024-08-14T10:33:00Z</time>
      </trkpt>
      <trkpt lat="44.94013" lon="6.09043">
        <ele>2314.6</ele>
        <time>2024-08-14T10:33:01Z</time>
      </trkpt>
      <trkpt lat="44.94013" lon="6.09043">
        <ele>2314.2</ele>
        <time>2024-08-14T10:33:02Z</time>
      </trkpt>
      <trkpt lat="44.94015" lon="6.09045">
        <ele>2314</ele>
        <time>2024-08-14T10:33:03Z</time>
      </trkpt>
      <trkpt lat="44.94015" lon="6.09045">
        <ele>2313.6</ele>
        <time>2024-08-14T10:33:04Z</time>
      </trkpt>
      <trkpt lat="44.94016" lon="6.09047">
        <ele>2313.4</ele>
        <time>2024-08-14T10:33:05Z</time>
      </trkpt>
      <trkpt lat="44.94016" lon="6.09047">
        <ele>2313</ele>
        <time>2024-08-14T10:33:06Z</time>
      </trkpt>
      <trkpt lat="44.94018" lon="6.09048">
        <ele>2312.8</ele>
        <time>2024-08-14T10:33:07Z</time>
      </trkpt>
      <trkpt lat="44.94018" lon="6.09048">
        <ele>2312.8</ele>
        <time>2024-08-14T10:33:08Z</time>
      </trkpt>
      <trkpt lat="44.94018" lon="6.09048">
        <ele>2312.4</ele>
        <time>2024-08-14T10:33:09Z</time>
      </trkpt>
      <trkpt lat="44.9402" lon="6.09051">
        <ele>2312.2</ele>
        <time>2024-08-14T10:33:10Z</time>
      </trkpt>
      <trkpt lat="44.9402" lon="6.09051">
        <ele>2312</ele>
        <time>2024-08-14T10:33:11Z</time>
      </trkpt>
      <trkpt lat="44.9402" lon="6.09051">
        <ele>2311.8</ele>
        <time>2024-08-14T10:33:12Z</time>
      </trkpt>
      <trkpt lat="44.94022" lon="6.09053">
        <ele>2311.6</ele>
        <time>2024-08-14T10:33:13Z</time>
      </trkpt>
      <trkpt lat="44.94022" lon="6.09053">
        <ele>2311.4</ele>
        <time>2024-08-14T10:33:14Z</time>
      </trkpt>
      <trkpt lat="44.94022" lon="6.09053">
        <ele>2311</ele>
        <time>2024-08-14T10:33:15Z</time>
      </trkpt>
      <trkpt lat="44.94022" lon="6.09053">
        <ele>2311</ele>
        <time>2024-08-14T10:33:16Z</time>
      </trkpt>
      <trkpt lat="44.94024" lon="6.09054">
        <ele>2311</ele>
        <time>2024-08-14T10:33:17Z</time>
      </trkpt>
      <trkpt lat="44.94024" lon="6.09054">
        <ele>2310.4</ele>
        <time>2024-08-14T10:33:18Z</time>
      </trkpt>
      <trkpt lat="44.94024" lon="6.09054">
        <ele>2310.2</ele>
        <time>2024-08-14T10:33:19Z</time>
      </trkpt>
      <trkpt lat="44.94026" lon="6.09054">
        <ele>2310</ele>
        <time>2024-08-14T10:33:20Z</time>
      </trkpt>
      <trkpt lat="44.94026" lon="6.09054">
        <ele>2309.4</ele>
        <time>2024-08-14T10:33:21Z</time>
      </trkpt>
      <trkpt lat="44.94026" lon="6.09054">
        <ele>2309.4</ele>
        <time>2024-08-14T10:33:22Z</time>
      </trkpt>
      <trkpt lat="44.94029" lon="6.09053">
        <ele>2309</ele>
        <time>2024-08-14T10:33:23Z</time>
      </trkpt>
      <trkpt lat="44.94029" lon="6.09053">
        <ele>2308.8</ele>
        <time>2024-08-14T10:33:24Z</time>
      </trkpt>
      <trkpt lat="44.94029" lon="6.09053">
        <ele>2308.8</ele>
        <time>2024-08-14T10:33:25Z</time>
      </trkpt>
      <trkpt lat="44.94029" lon="6.09053">
        <ele>2308.6</ele>
        <time>2024-08-14T10:33:26Z</time>
      </trkpt>
      <trkpt lat="44.94029" lon="6.09053">
        <ele>2308.4</ele>
        <time>2024-08-14T10:33:27Z</time>
      </trkpt>
      <trkpt lat="44.94029" lon="6.09053">
        <ele>2308.2</ele>
        <time>2024-08-14T10:33:28Z</time>
      </trkpt>
      <trkpt lat="44.94029" lon="6.09053">
        <ele>2308.2</ele>
        <time>2024-08-14T10:33:29Z</time>
      </trkpt>
      <trkpt lat="44.94029" lon="6.09053">
        <ele>2308.2</ele>
        <time>2024-08-14T10:33:30Z</time>
      </trkpt>
      <trkpt lat="44.94029" lon="6.09053">
        <ele>2307.8</ele>
        <time>2024-08-14T10:33:31Z</time>
      </trkpt>
      <trkpt lat="44.94031" lon="6.09055">
        <ele>2307.6</ele>
        <time>2024-08-14T10:33:32Z</time>
      </trkpt>
      <trkpt lat="44.94031" lon="6.09055">
        <ele>2307.6</ele>
        <time>2024-08-14T10:33:33Z</time>
      </trkpt>
      <trkpt lat="44.94033" lon="6.09056">
        <ele>2307.6</ele>
        <time>2024-08-14T10:33:34Z</time>
      </trkpt>
      <trkpt lat="44.94033" lon="6.09056">
        <ele>2307.4</ele>
        <time>2024-08-14T10:33:35Z</time>
      </trkpt>
      <trkpt lat="44.94033" lon="6.09056">
        <ele>2307</ele>
        <time>2024-08-14T10:33:36Z</time>
      </trkpt>
      <trkpt lat="44.94033" lon="6.09056">
        <ele>2307</ele>
        <time>2024-08-14T10:33:37Z</time>
      </trkpt>
      <trkpt lat="44.94033" lon="6.09056">
        <ele>2307</ele>
        <time>2024-08-14T10:33:38Z</time>
      </trkpt>
      <trkpt lat="44.94033" lon="6.0906">
        <ele>2307.2</ele>
        <time>2024-08-14T10:33:39Z</time>
      </trkpt>
      <trkpt lat="44.94033" lon="6.0906">
        <ele>2307.2</ele>
        <time>2024-08-14T10:33:40Z</time>
      </trkpt>
      <trkpt lat="44.94035" lon="6.09061">
        <ele>2307.2</ele>
        <time>2024-08-14T10:33:41Z</time>
      </trkpt>
      <trkpt lat="44.94035" lon="6.09061">
        <ele>2307</ele>
        <time>2024-08-14T10:33:42Z</time>
      </trkpt>
      <trkpt lat="44.94037" lon="6.09063">
        <ele>2306.8</ele>
        <time>2024-08-14T10:33:43Z</time>
      </trkpt>
      <trkpt lat="44.94037" lon="6.09063">
        <ele>2306.6</ele>
        <time>2024-08-14T10:33:44Z</time>
      </trkpt>
      <trkpt lat="44.94037" lon="6.09063">
        <ele>2306.6</ele>
        <time>2024-08-14T10:33:45Z</time>
      </trkpt>
      <trkpt lat="44.94038" lon="6.09065">
        <ele>2306.6</ele>
        <time>2024-08-14T10:33:46Z</time>
      </trkpt>
      <trkpt lat="44.94038" lon="6.09065">
        <ele>2306.4</ele>
        <time>2024-08-14T10:33:47Z</time>
      </trkpt>
      <trkpt lat="44.94038" lon="6.09065">
        <ele>2306.2</ele>
        <time>2024-08-14T10:33:48Z</time>
      </trkpt>
      <trkpt lat="44.9404" lon="6.09066">
        <ele>2306.2</ele>
        <time>2024-08-14T10:33:49Z</time>
      </trkpt>
      <trkpt lat="44.9404" lon="6.09066">
        <ele>2306.2</ele>
        <time>2024-08-14T10:33:50Z</time>
      </trkpt>
      <trkpt lat="44.9404" lon="6.09066">
        <ele>2306.2</ele>
        <time>2024-08-14T10:33:51Z</time>
      </trkpt>
      <trkpt lat="44.9404" lon="6.09066">
        <ele>2306</ele>
        <time>2024-08-14T10:33:52Z</time>
      </trkpt>
      <trkpt lat="44.9404" lon="6.09066">
        <ele>2306</ele>
        <time>2024-08-14T10:33:53Z</time>
      </trkpt>
      <trkpt lat="44.94043" lon="6.09065">
        <ele>2306</ele>
        <time>2024-08-14T10:33:54Z</time>
      </trkpt>
      <trkpt lat="44.94043" lon="6.09065">
        <ele>2306</ele>
        <time>2024-08-14T10:33:55Z</time>
      </trkpt>
      <trkpt lat="44.94043" lon="6.09065">
        <ele>2305.8</ele>
        <time>2024-08-14T10:33:56Z</time>
      </trkpt>
      <trkpt lat="44.94045" lon="6.09062">
        <ele>2305.6</ele>
        <time>2024-08-14T10:33:57Z</time>
      </trkpt>
      <trkpt lat="44.94045" lon="6.09062">
        <ele>2305.4</ele>
        <time>2024-08-14T10:33:58Z</time>
      </trkpt>
      <trkpt lat="44.94045" lon="6.09062">
        <ele>2305</ele>
        <time>2024-08-14T10:33:59Z</time>
      </trkpt>
      <trkpt lat="44.94046" lon="6.09059">
        <ele>2305</ele>
        <time>2024-08-14T10:34:00Z</time>
      </trkpt>
      <trkpt lat="44.94046" lon="6.09059">
        <ele>2304.8</ele>
        <time>2024-08-14T10:34:01Z</time>
      </trkpt>
      <trkpt lat="44.94046" lon="6.09059">
        <ele>2304.6</ele>
        <time>2024-08-14T10:34:02Z</time>
      </trkpt>
      <trkpt lat="44.94048" lon="6.0906">
        <ele>2304.6</ele>
        <time>2024-08-14T10:34:03Z</time>
      </trkpt>
      <trkpt lat="44.94048" lon="6.0906">
        <ele>2304.4</ele>
        <time>2024-08-14T10:34:04Z</time>
      </trkpt>
      <trkpt lat="44.94048" lon="6.0906">
        <ele>2304.2</ele>
        <time>2024-08-14T10:34:05Z</time>
      </trkpt>
      <trkpt lat="44.94048" lon="6.0906">
        <ele>2304</ele>
        <time>2024-08-14T10:34:06Z</time>
      </trkpt>
      <trkpt lat="44.94048" lon="6.0906">
        <ele>2304</ele>
        <time>2024-08-14T10:34:07Z</time>
      </trkpt>
      <trkpt lat="44.94048" lon="6.0906">
        <ele>2304</ele>
        <time>2024-08-14T10:34:08Z</time>
      </trkpt>
      <trkpt lat="44.94048" lon="6.0906">
        <ele>2303.6</ele>
        <time>2024-08-14T10:34:09Z</time>
      </trkpt>
      <trkpt lat="44.94048" lon="6.0906">
        <ele>2303.6</ele>
        <time>2024-08-14T10:34:10Z</time>
      </trkpt>
      <trkpt lat="44.9405" lon="6.09061">
        <ele>2303.6</ele>
        <time>2024-08-14T10:34:11Z</time>
      </trkpt>
      <trkpt lat="44.9405" lon="6.09061">
        <ele>2303.4</ele>
        <time>2024-08-14T10:34:12Z</time>
      </trkpt>
      <trkpt lat="44.9405" lon="6.09061">
        <ele>2303.4</ele>
        <time>2024-08-14T10:34:13Z</time>
      </trkpt>
      <trkpt lat="44.9405" lon="6.09061">
        <ele>2303.4</ele>
        <time>2024-08-14T10:34:14Z</time>
      </trkpt>
      <trkpt lat="44.9405" lon="6.09061">
        <ele>2303.4</ele>
        <time>2024-08-14T10:34:15Z</time>
      </trkpt>
      <trkpt lat="44.9405" lon="6.09061">
        <ele>2303.2</ele>
        <time>2024-08-14T10:34:16Z</time>
      </trkpt>
      <trkpt lat="44.9405" lon="6.09058">
        <ele>2303.2</ele>
        <time>2024-08-14T10:34:17Z</time>
      </trkpt>
      <trkpt lat="44.9405" lon="6.09058">
        <ele>2303</ele>
        <time>2024-08-14T10:34:18Z</time>
      </trkpt>
      <trkpt lat="44.9405" lon="6.09058">
        <ele>2302.6</ele>
        <time>2024-08-14T10:34:19Z</time>
      </trkpt>
      <trkpt lat="44.9405" lon="6.09058">
        <ele>2302</ele>
        <time>2024-08-14T10:34:20Z</time>
      </trkpt>
      <trkpt lat="44.9405" lon="6.09058">
        <ele>2302</ele>
        <time>2024-08-14T10:34:21Z</time>
      </trkpt>
      <trkpt lat="44.9405" lon="6.09058">
        <ele>2302.2</ele>
        <time>2024-08-14T10:34:22Z</time>
      </trkpt>
      <trkpt lat="44.9405" lon="6.09058">
        <ele>2302.2</ele>
        <time>2024-08-14T10:34:23Z</time>
      </trkpt>
      <trkpt lat="44.9405" lon="6.09058">
        <ele>2302</ele>
        <time>2024-08-14T10:34:24Z</time>
      </trkpt>
      <trkpt lat="44.9405" lon="6.09058">
        <ele>2302</ele>
        <time>2024-08-14T10:34:25Z</time>
      </trkpt>
      <trkpt lat="44.9405" lon="6.09058">
        <ele>2302</ele>
        <time>2024-08-14T10:34:26Z</time>
      </trkpt>
      <trkpt lat="44.9405" lon="6.09058">
        <ele>2302.2</ele>
        <time>2024-08-14T10:34:27Z</time>
      </trkpt>
      <trkpt lat="44.9405" lon="6.09055">
        <ele>2302.2</ele>
        <time>2024-08-14T10:34:28Z</time>
      </trkpt>
      <trkpt lat="44.9405" lon="6.09055">
        <ele>2302.2</ele>
        <time>2024-08-14T10:34:29Z</time>
      </trkpt>
      <trkpt lat="44.9405" lon="6.09051">
        <ele>2302.2</ele>
        <time>2024-08-14T10:34:30Z</time>
      </trkpt>
      <trkpt lat="44.94049" lon="6.09049">
        <ele>2302.2</ele>
        <time>2024-08-14T10:34:31Z</time>
      </trkpt>
      <trkpt lat="44.94049" lon="6.09049">
        <ele>2302.2</ele>
        <time>2024-08-14T10:34:32Z</time>
      </trkpt>
      <trkpt lat="44.94048" lon="6.09046">
        <ele>2302.2</ele>
        <time>2024-08-14T10:34:33Z</time>
      </trkpt>
      <trkpt lat="44.94048" lon="6.09046">
        <ele>2302.4</ele>
        <time>2024-08-14T10:34:34Z</time>
      </trkpt>
      <trkpt lat="44.94047" lon="6.09043">
        <ele>2302.4</ele>
        <time>2024-08-14T10:34:35Z</time>
      </trkpt>
      <trkpt lat="44.94047" lon="6.09043">
        <ele>2302.4</ele>
        <time>2024-08-14T10:34:36Z</time>
      </trkpt>
      <trkpt lat="44.94047" lon="6.09043">
        <ele>2302.6</ele>
        <time>2024-08-14T10:34:37Z</time>
      </trkpt>
      <trkpt lat="44.94047" lon="6.09043">
        <ele>2302.8</ele>
        <time>2024-08-14T10:34:38Z</time>
      </trkpt>
      <trkpt lat="44.94047" lon="6.09043">
        <ele>2302.8</ele>
        <time>2024-08-14T10:34:39Z</time>
      </trkpt>
      <trkpt lat="44.94047" lon="6.09043">
        <ele>2302.8</ele>
        <time>2024-08-14T10:34:40Z</time>
      </trkpt>
      <trkpt lat="44.94047" lon="6.09043">
        <ele>2303</ele>
        <time>2024-08-14T10:34:41Z</time>
      </trkpt>
      <trkpt lat="44.94046" lon="6.09041">
        <ele>2303</ele>
        <time>2024-08-14T10:34:42Z</time>
      </trkpt>
      <trkpt lat="44.94046" lon="6.09041">
        <ele>2303</ele>
        <time>2024-08-14T10:34:43Z</time>
      </trkpt>
      <trkpt lat="44.94046" lon="6.09041">
        <ele>2303</ele>
        <time>2024-08-14T10:34:44Z</time>
      </trkpt>
      <trkpt lat="44.94043" lon="6.09039">
        <ele>2303</ele>
        <time>2024-08-14T10:34:45Z</time>
      </trkpt>
      <trkpt lat="44.94043" lon="6.09039">
        <ele>2303.2</ele>
        <time>2024-08-14T10:34:46Z</time>
      </trkpt>
      <trkpt lat="44.94043" lon="6.09039">
        <ele>2303.2</ele>
        <time>2024-08-14T10:34:47Z</time>
      </trkpt>
      <trkpt lat="44.94043" lon="6.09039">
        <ele>2303.2</ele>
        <time>2024-08-14T10:34:48Z</time>
      </trkpt>
      <trkpt lat="44.94043" lon="6.09039">
        <ele>2303</ele>
        <time>2024-08-14T10:34:49Z</time>
      </trkpt>
      <trkpt lat="44.94043" lon="6.09039">
        <ele>2303</ele>
        <time>2024-08-14T10:34:50Z</time>
      </trkpt>
      <trkpt lat="44.94043" lon="6.09039">
        <ele>2302.8</ele>
        <time>2024-08-14T10:34:51Z</time>
      </trkpt>
      <trkpt lat="44.94043" lon="6.09039">
        <ele>2302.8</ele>
        <time>2024-08-14T10:34:52Z</time>
      </trkpt>
      <trkpt lat="44.94043" lon="6.09039">
        <ele>2303</ele>
        <time>2024-08-14T10:34:53Z</time>
      </trkpt>
      <trkpt lat="44.94043" lon="6.09039">
        <ele>2303</ele>
        <time>2024-08-14T10:34:54Z</time>
      </trkpt>
      <trkpt lat="44.94043" lon="6.09036">
        <ele>2303</ele>
        <time>2024-08-14T10:34:55Z</time>
      </trkpt>
      <trkpt lat="44.94043" lon="6.09036">
        <ele>2303</ele>
        <time>2024-08-14T10:34:56Z</time>
      </trkpt>
      <trkpt lat="44.94043" lon="6.09036">
        <ele>2303</ele>
        <time>2024-08-14T10:34:57Z</time>
      </trkpt>
      <trkpt lat="44.94043" lon="6.09036">
        <ele>2303.2</ele>
        <time>2024-08-14T10:34:58Z</time>
      </trkpt>
      <trkpt lat="44.94043" lon="6.09036">
        <ele>2303.2</ele>
        <time>2024-08-14T10:34:59Z</time>
      </trkpt>
      <trkpt lat="44.94043" lon="6.09036">
        <ele>2303</ele>
        <time>2024-08-14T10:35:00Z</time>
      </trkpt>
      <trkpt lat="44.94043" lon="6.09036">
        <ele>2303</ele>
        <time>2024-08-14T10:35:01Z</time>
      </trkpt>
      <trkpt lat="44.94043" lon="6.09036">
        <ele>2303</ele>
        <time>2024-08-14T10:35:02Z</time>
      </trkpt>
      <trkpt lat="44.94043" lon="6.09036">
        <ele>2303</ele>
        <time>2024-08-14T10:35:03Z</time>
      </trkpt>
      <trkpt lat="44.94043" lon="6.09036">
        <ele>2303</ele>
        <time>2024-08-14T10:35:04Z</time>
      </trkpt>
      <trkpt lat="44.94043" lon="6.09036">
        <ele>2303</ele>
        <time>2024-08-14T10:35:05Z</time>
      </trkpt>
      <trkpt lat="44.94045" lon="6.09034">
        <ele>2303</ele>
        <time>2024-08-14T10:35:06Z</time>
      </trkpt>
      <trkpt lat="44.94045" lon="6.09034">
        <ele>2303.2</ele>
        <time>2024-08-14T10:35:07Z</time>
      </trkpt>
      <trkpt lat="44.94047" lon="6.09033">
        <ele>2303.2</ele>
        <time>2024-08-14T10:35:08Z</time>
      </trkpt>
      <trkpt lat="44.94047" lon="6.09033">
        <ele>2303.4</ele>
        <time>2024-08-14T10:35:09Z</time>
      </trkpt>
      <trkpt lat="44.94049" lon="6.09035">
        <ele>2303.4</ele>
        <time>2024-08-14T10:35:10Z</time>
      </trkpt>
      <trkpt lat="44.94049" lon="6.09035">
        <ele>2303.4</ele>
        <time>2024-08-14T10:35:11Z</time>
      </trkpt>
      <trkpt lat="44.9405" lon="6.09038">
        <ele>2303.2</ele>
        <time>2024-08-14T10:35:12Z</time>
      </trkpt>
      <trkpt lat="44.9405" lon="6.09038">
        <ele>2302.8</ele>
        <time>2024-08-14T10:35:13Z</time>
      </trkpt>
      <trkpt lat="44.9405" lon="6.09038">
        <ele>2302.8</ele>
        <time>2024-08-14T10:35:14Z</time>
      </trkpt>
      <trkpt lat="44.94052" lon="6.0904">
        <ele>2302.6</ele>
        <time>2024-08-14T10:35:15Z</time>
      </trkpt>
      <trkpt lat="44.94052" lon="6.0904">
        <ele>2302.6</ele>
        <time>2024-08-14T10:35:16Z</time>
      </trkpt>
      <trkpt lat="44.94053" lon="6.09041">
        <ele>2302.6</ele>
        <time>2024-08-14T10:35:17Z</time>
      </trkpt>
      <trkpt lat="44.94053" lon="6.09041">
        <ele>2302.4</ele>
        <time>2024-08-14T10:35:18Z</time>
      </trkpt>
      <trkpt lat="44.94055" lon="6.09043">
        <ele>2302.4</ele>
        <time>2024-08-14T10:35:19Z</time>
      </trkpt>
      <trkpt lat="44.94055" lon="6.09043">
        <ele>2302</ele>
        <time>2024-08-14T10:35:20Z</time>
      </trkpt>
      <trkpt lat="44.94058" lon="6.09043">
        <ele>2301.8</ele>
        <time>2024-08-14T10:35:21Z</time>
      </trkpt>
      <trkpt lat="44.94058" lon="6.09043">
        <ele>2301.8</ele>
        <time>2024-08-14T10:35:22Z</time>
      </trkpt>
      <trkpt lat="44.9406" lon="6.09044">
        <ele>2301.8</ele>
        <time>2024-08-14T10:35:23Z</time>
      </trkpt>
      <trkpt lat="44.9406" lon="6.09044">
        <ele>2301.4</ele>
        <time>2024-08-14T10:35:24Z</time>
      </trkpt>
      <trkpt lat="44.94062" lon="6.09045">
        <ele>2301.2</ele>
        <time>2024-08-14T10:35:25Z</time>
      </trkpt>
      <trkpt lat="44.94062" lon="6.09045">
        <ele>2301.2</ele>
        <time>2024-08-14T10:35:26Z</time>
      </trkpt>
      <trkpt lat="44.94062" lon="6.09045">
        <ele>2301</ele>
        <time>2024-08-14T10:35:27Z</time>
      </trkpt>
      <trkpt lat="44.94064" lon="6.09046">
        <ele>2301</ele>
        <time>2024-08-14T10:35:28Z</time>
      </trkpt>
      <trkpt lat="44.94064" lon="6.09046">
        <ele>2300.8</ele>
        <time>2024-08-14T10:35:29Z</time>
      </trkpt>
      <trkpt lat="44.94064" lon="6.09046">
        <ele>2300.8</ele>
        <time>2024-08-14T10:35:30Z</time>
      </trkpt>
      <trkpt lat="44.94067" lon="6.09047">
        <ele>2300.6</ele>
        <time>2024-08-14T10:35:31Z</time>
      </trkpt>
      <trkpt lat="44.94067" lon="6.09047">
        <ele>2300.4</ele>
        <time>2024-08-14T10:35:32Z</time>
      </trkpt>
      <trkpt lat="44.94069" lon="6.09047">
        <ele>2300.2</ele>
        <time>2024-08-14T10:35:33Z</time>
      </trkpt>
      <trkpt lat="44.94069" lon="6.09047">
        <ele>2299.8</ele>
        <time>2024-08-14T10:35:34Z</time>
      </trkpt>
      <trkpt lat="44.94071" lon="6.09046">
        <ele>2299.6</ele>
        <time>2024-08-14T10:35:35Z</time>
      </trkpt>
      <trkpt lat="44.94071" lon="6.09046">
        <ele>2299.6</ele>
        <time>2024-08-14T10:35:36Z</time>
      </trkpt>
      <trkpt lat="44.94073" lon="6.09047">
        <ele>2299.6</ele>
        <time>2024-08-14T10:35:37Z</time>
      </trkpt>
      <trkpt lat="44.94073" lon="6.09047">
        <ele>2299.4</ele>
        <time>2024-08-14T10:35:38Z</time>
      </trkpt>
      <trkpt lat="44.94075" lon="6.09048">
        <ele>2299</ele>
        <time>2024-08-14T10:35:39Z</time>
      </trkpt>
      <trkpt lat="44.94075" lon="6.09048">
        <ele>2299</ele>
        <time>2024-08-14T10:35:40Z</time>
      </trkpt>
      <trkpt lat="44.94075" lon="6.09048">
        <ele>2298.6</ele>
        <time>2024-08-14T10:35:41Z</time>
      </trkpt>
      <trkpt lat="44.94077" lon="6.09048">
        <ele>2298.4</ele>
        <time>2024-08-14T10:35:42Z</time>
      </trkpt>
      <trkpt lat="44.94077" lon="6.09048">
        <ele>2298.2</ele>
        <time>2024-08-14T10:35:43Z</time>
      </trkpt>
      <trkpt lat="44.94079" lon="6.09046">
        <ele>2298</ele>
        <time>2024-08-14T10:35:44Z</time>
      </trkpt>
      <trkpt lat="44.94079" lon="6.09046">
        <ele>2298</ele>
        <time>2024-08-14T10:35:45Z</time>
      </trkpt>
      <trkpt lat="44.94079" lon="6.09046">
        <ele>2297.8</ele>
        <time>2024-08-14T10:35:46Z</time>
      </trkpt>
      <trkpt lat="44.94082" lon="6.09044">
        <ele>2297.4</ele>
        <time>2024-08-14T10:35:47Z</time>
      </trkpt>
      <trkpt lat="44.94082" lon="6.09044">
        <ele>2297.4</ele>
        <time>2024-08-14T10:35:48Z</time>
      </trkpt>
      <trkpt lat="44.94084" lon="6.09044">
        <ele>2297</ele>
        <time>2024-08-14T10:35:49Z</time>
      </trkpt>
      <trkpt lat="44.94084" lon="6.09044">
        <ele>2297</ele>
        <time>2024-08-14T10:35:50Z</time>
      </trkpt>
      <trkpt lat="44.94084" lon="6.09044">
        <ele>2297</ele>
        <time>2024-08-14T10:35:51Z</time>
      </trkpt>
      <trkpt lat="44.94086" lon="6.09043">
        <ele>2296.8</ele>
        <time>2024-08-14T10:35:52Z</time>
      </trkpt>
      <trkpt lat="44.94086" lon="6.09043">
        <ele>2296.6</ele>
        <time>2024-08-14T10:35:53Z</time>
      </trkpt>
      <trkpt lat="44.94086" lon="6.09043">
        <ele>2296.4</ele>
        <time>2024-08-14T10:35:54Z</time>
      </trkpt>
      <trkpt lat="44.94088" lon="6.09046">
        <ele>2296</ele>
        <time>2024-08-14T10:35:55Z</time>
      </trkpt>
      <trkpt lat="44.94088" lon="6.09046">
        <ele>2296</ele>
        <time>2024-08-14T10:35:56Z</time>
      </trkpt>
      <trkpt lat="44.94088" lon="6.09046">
        <ele>2295.6</ele>
        <time>2024-08-14T10:35:57Z</time>
      </trkpt>
      <trkpt lat="44.94088" lon="6.09046">
        <ele>2295</ele>
        <time>2024-08-14T10:35:58Z</time>
      </trkpt>
      <trkpt lat="44.9409" lon="6.09046">
        <ele>2295</ele>
        <time>2024-08-14T10:35:59Z</time>
      </trkpt>
      <trkpt lat="44.9409" lon="6.09046">
        <ele>2295</ele>
        <time>2024-08-14T10:36:00Z</time>
      </trkpt>
      <trkpt lat="44.94093" lon="6.09044">
        <ele>2294.8</ele>
        <time>2024-08-14T10:36:01Z</time>
      </trkpt>
      <trkpt lat="44.94093" lon="6.09044">
        <ele>2294.2</ele>
        <time>2024-08-14T10:36:02Z</time>
      </trkpt>
      <trkpt lat="44.94095" lon="6.09045">
        <ele>2294.2</ele>
        <time>2024-08-14T10:36:03Z</time>
      </trkpt>
      <trkpt lat="44.94095" lon="6.09045">
        <ele>2294</ele>
        <time>2024-08-14T10:36:04Z</time>
      </trkpt>
      <trkpt lat="44.94097" lon="6.09045">
        <ele>2293.8</ele>
        <time>2024-08-14T10:36:05Z</time>
      </trkpt>
      <trkpt lat="44.94097" lon="6.09045">
        <ele>2293.4</ele>
        <time>2024-08-14T10:36:06Z</time>
      </trkpt>
      <trkpt lat="44.94097" lon="6.09045">
        <ele>2293.2</ele>
        <time>2024-08-14T10:36:07Z</time>
      </trkpt>
      <trkpt lat="44.94099" lon="6.09042">
        <ele>2293</ele>
        <time>2024-08-14T10:36:08Z</time>
      </trkpt>
      <trkpt lat="44.94099" lon="6.09042">
        <ele>2293</ele>
        <time>2024-08-14T10:36:09Z</time>
      </trkpt>
      <trkpt lat="44.94101" lon="6.09041">
        <ele>2292.8</ele>
        <time>2024-08-14T10:36:10Z</time>
      </trkpt>
      <trkpt lat="44.94101" lon="6.09041">
        <ele>2292.4</ele>
        <time>2024-08-14T10:36:11Z</time>
      </trkpt>
      <trkpt lat="44.94103" lon="6.09041">
        <ele>2292.4</ele>
        <time>2024-08-14T10:36:12Z</time>
      </trkpt>
      <trkpt lat="44.94103" lon="6.09041">
        <ele>2292.2</ele>
        <time>2024-08-14T10:36:13Z</time>
      </trkpt>
      <trkpt lat="44.94106" lon="6.09042">
        <ele>2292</ele>
        <time>2024-08-14T10:36:14Z</time>
      </trkpt>
      <trkpt lat="44.94106" lon="6.09042">
        <ele>2291.8</ele>
        <time>2024-08-14T10:36:15Z</time>
      </trkpt>
      <trkpt lat="44.94108" lon="6.09043">
        <ele>2291.6</ele>
        <time>2024-08-14T10:36:16Z</time>
      </trkpt>
      <trkpt lat="44.94108" lon="6.09043">
        <ele>2291.6</ele>
        <time>2024-08-14T10:36:17Z</time>
      </trkpt>
      <trkpt lat="44.9411" lon="6.09044">
        <ele>2291.4</ele>
        <time>2024-08-14T10:36:18Z</time>
      </trkpt>
      <trkpt lat="44.9411" lon="6.09044">
        <ele>2291.2</ele>
        <time>2024-08-14T10:36:19Z</time>
      </trkpt>
      <trkpt lat="44.94112" lon="6.09043">
        <ele>2291.2</ele>
        <time>2024-08-14T10:36:20Z</time>
      </trkpt>
      <trkpt lat="44.94112" lon="6.09043">
        <ele>2291.2</ele>
        <time>2024-08-14T10:36:21Z</time>
      </trkpt>
      <trkpt lat="44.94115" lon="6.09044">
        <ele>2290.8</ele>
        <time>2024-08-14T10:36:22Z</time>
      </trkpt>
      <trkpt lat="44.94115" lon="6.09044">
        <ele>2290.6</ele>
        <time>2024-08-14T10:36:23Z</time>
      </trkpt>
      <trkpt lat="44.94115" lon="6.09044">
        <ele>2290.6</ele>
        <time>2024-08-14T10:36:24Z</time>
      </trkpt>
      <trkpt lat="44.94117" lon="6.09045">
        <ele>2290.6</ele>
        <time>2024-08-14T10:36:25Z</time>
      </trkpt>
      <trkpt lat="44.94117" lon="6.09045">
        <ele>2290.4</ele>
        <time>2024-08-14T10:36:26Z</time>
      </trkpt>
      <trkpt lat="44.94119" lon="6.09045">
        <ele>2290.2</ele>
        <time>2024-08-14T10:36:27Z</time>
      </trkpt>
      <trkpt lat="44.94119" lon="6.09045">
        <ele>2290.2</ele>
        <time>2024-08-14T10:36:28Z</time>
      </trkpt>
      <trkpt lat="44.94121" lon="6.09046">
        <ele>2290</ele>
        <time>2024-08-14T10:36:29Z</time>
      </trkpt>
      <trkpt lat="44.94121" lon="6.09046">
        <ele>2289.8</ele>
        <time>2024-08-14T10:36:30Z</time>
      </trkpt>
      <trkpt lat="44.94123" lon="6.09046">
        <ele>2289.8</ele>
        <time>2024-08-14T10:36:31Z</time>
      </trkpt>
      <trkpt lat="44.94123" lon="6.09046">
        <ele>2289.6</ele>
        <time>2024-08-14T10:36:32Z</time>
      </trkpt>
      <trkpt lat="44.94123" lon="6.09046">
        <ele>2289.4</ele>
        <time>2024-08-14T10:36:33Z</time>
      </trkpt>
      <trkpt lat="44.94126" lon="6.09047">
        <ele>2289.2</ele>
        <time>2024-08-14T10:36:34Z</time>
      </trkpt>
      <trkpt lat="44.94126" lon="6.09047">
        <ele>2288.8</ele>
        <time>2024-08-14T10:36:35Z</time>
      </trkpt>
      <trkpt lat="44.94128" lon="6.09047">
        <ele>2288.6</ele>
        <time>2024-08-14T10:36:36Z</time>
      </trkpt>
      <trkpt lat="44.94128" lon="6.09047">
        <ele>2288.4</ele>
        <time>2024-08-14T10:36:37Z</time>
      </trkpt>
      <trkpt lat="44.9413" lon="6.09047">
        <ele>2288.4</ele>
        <time>2024-08-14T10:36:38Z</time>
      </trkpt>
      <trkpt lat="44.9413" lon="6.09047">
        <ele>2288.4</ele>
        <time>2024-08-14T10:36:39Z</time>
      </trkpt>
      <trkpt lat="44.94132" lon="6.09046">
        <ele>2288.2</ele>
        <time>2024-08-14T10:36:40Z</time>
      </trkpt>
      <trkpt lat="44.94132" lon="6.09046">
        <ele>2288.2</ele>
        <time>2024-08-14T10:36:41Z</time>
      </trkpt>
      <trkpt lat="44.94134" lon="6.09047">
        <ele>2288.2</ele>
        <time>2024-08-14T10:36:42Z</time>
      </trkpt>
      <trkpt lat="44.94134" lon="6.09047">
        <ele>2288.6</ele>
        <time>2024-08-14T10:36:43Z</time>
      </trkpt>
      <trkpt lat="44.94137" lon="6.09048">
        <ele>2288.6</ele>
        <time>2024-08-14T10:36:44Z</time>
      </trkpt>
      <trkpt lat="44.94137" lon="6.09048">
        <ele>2288.6</ele>
        <time>2024-08-14T10:36:45Z</time>
      </trkpt>
      <trkpt lat="44.9414" lon="6.09049">
        <ele>2288.6</ele>
        <time>2024-08-14T10:36:46Z</time>
      </trkpt>
      <trkpt lat="44.9414" lon="6.09049">
        <ele>2288.6</ele>
        <time>2024-08-14T10:36:47Z</time>
      </trkpt>
      <trkpt lat="44.94142" lon="6.09051">
        <ele>2288.2</ele>
        <time>2024-08-14T10:36:48Z</time>
      </trkpt>
      <trkpt lat="44.94142" lon="6.09051">
        <ele>2287.8</ele>
        <time>2024-08-14T10:36:49Z</time>
      </trkpt>
      <trkpt lat="44.94145" lon="6.09052">
        <ele>2287.4</ele>
        <time>2024-08-14T10:36:50Z</time>
      </trkpt>
      <trkpt lat="44.94145" lon="6.09052">
        <ele>2287.2</ele>
        <time>2024-08-14T10:36:51Z</time>
      </trkpt>
      <trkpt lat="44.94148" lon="6.09054">
        <ele>2287</ele>
        <time>2024-08-14T10:36:52Z</time>
      </trkpt>
      <trkpt lat="44.94148" lon="6.09054">
        <ele>2286.8</ele>
        <time>2024-08-14T10:36:53Z</time>
      </trkpt>
      <trkpt lat="44.9415" lon="6.09054">
        <ele>2286.6</ele>
        <time>2024-08-14T10:36:54Z</time>
      </trkpt>
      <trkpt lat="44.9415" lon="6.09054">
        <ele>2286.4</ele>
        <time>2024-08-14T10:36:55Z</time>
      </trkpt>
      <trkpt lat="44.94153" lon="6.09056">
        <ele>2286</ele>
        <time>2024-08-14T10:36:56Z</time>
      </trkpt>
      <trkpt lat="44.94153" lon="6.09056">
        <ele>2285.4</ele>
        <time>2024-08-14T10:36:57Z</time>
      </trkpt>
      <trkpt lat="44.94156" lon="6.09058">
        <ele>2285.4</ele>
        <time>2024-08-14T10:36:58Z</time>
      </trkpt>
      <trkpt lat="44.94156" lon="6.09058">
        <ele>2285.2</ele>
        <time>2024-08-14T10:36:59Z</time>
      </trkpt>
      <trkpt lat="44.94158" lon="6.09061">
        <ele>2285.2</ele>
        <time>2024-08-14T10:37:00Z</time>
      </trkpt>
      <trkpt lat="44.94158" lon="6.09061">
        <ele>2285</ele>
        <time>2024-08-14T10:37:01Z</time>
      </trkpt>
      <trkpt lat="44.94161" lon="6.09062">
        <ele>2284.4</ele>
        <time>2024-08-14T10:37:02Z</time>
      </trkpt>
      <trkpt lat="44.94161" lon="6.09062">
        <ele>2284.4</ele>
        <time>2024-08-14T10:37:03Z</time>
      </trkpt>
      <trkpt lat="44.94164" lon="6.09063">
        <ele>2284</ele>
        <time>2024-08-14T10:37:04Z</time>
      </trkpt>
      <trkpt lat="44.94164" lon="6.09063">
        <ele>2284</ele>
        <time>2024-08-14T10:37:05Z</time>
      </trkpt>
      <trkpt lat="44.94166" lon="6.09065">
        <ele>2283.8</ele>
        <time>2024-08-14T10:37:06Z</time>
      </trkpt>
      <trkpt lat="44.94166" lon="6.09065">
        <ele>2283.8</ele>
        <time>2024-08-14T10:37:07Z</time>
      </trkpt>
      <trkpt lat="44.94168" lon="6.09067">
        <ele>2283.6</ele>
        <time>2024-08-14T10:37:08Z</time>
      </trkpt>
      <trkpt lat="44.94168" lon="6.09067">
        <ele>2283.6</ele>
        <time>2024-08-14T10:37:09Z</time>
      </trkpt>
      <trkpt lat="44.9417" lon="6.09069">
        <ele>2283.4</ele>
        <time>2024-08-14T10:37:10Z</time>
      </trkpt>
      <trkpt lat="44.9417" lon="6.09069">
        <ele>2283.4</ele>
        <time>2024-08-14T10:37:11Z</time>
      </trkpt>
      <trkpt lat="44.94172" lon="6.09071">
        <ele>2283</ele>
        <time>2024-08-14T10:37:12Z</time>
      </trkpt>
      <trkpt lat="44.94172" lon="6.09071">
        <ele>2282.6</ele>
        <time>2024-08-14T10:37:13Z</time>
      </trkpt>
      <trkpt lat="44.94175" lon="6.09072">
        <ele>2282.2</ele>
        <time>2024-08-14T10:37:14Z</time>
      </trkpt>
      <trkpt lat="44.94175" lon="6.09072">
        <ele>2282</ele>
        <time>2024-08-14T10:37:15Z</time>
      </trkpt>
      <trkpt lat="44.94177" lon="6.09074">
        <ele>2282</ele>
        <time>2024-08-14T10:37:16Z</time>
      </trkpt>
      <trkpt lat="44.94177" lon="6.09074">
        <ele>2281.8</ele>
        <time>2024-08-14T10:37:17Z</time>
      </trkpt>
      <trkpt lat="44.9418" lon="6.09076">
        <ele>2281.4</ele>
        <time>2024-08-14T10:37:18Z</time>
      </trkpt>
      <trkpt lat="44.9418" lon="6.09076">
        <ele>2281</ele>
        <time>2024-08-14T10:37:19Z</time>
      </trkpt>
      <trkpt lat="44.94182" lon="6.09078">
        <ele>2281</ele>
        <time>2024-08-14T10:37:20Z</time>
      </trkpt>
      <trkpt lat="44.94182" lon="6.09078">
        <ele>2281</ele>
        <time>2024-08-14T10:37:21Z</time>
      </trkpt>
      <trkpt lat="44.94185" lon="6.0908">
        <ele>2280.6</ele>
        <time>2024-08-14T10:37:22Z</time>
      </trkpt>
      <trkpt lat="44.94185" lon="6.0908">
        <ele>2280.6</ele>
        <time>2024-08-14T10:37:23Z</time>
      </trkpt>
      <trkpt lat="44.94186" lon="6.09082">
        <ele>2280.4</ele>
        <time>2024-08-14T10:37:24Z</time>
      </trkpt>
      <trkpt lat="44.94186" lon="6.09082">
        <ele>2280.4</ele>
        <time>2024-08-14T10:37:25Z</time>
      </trkpt>
      <trkpt lat="44.94186" lon="6.09082">
        <ele>2280</ele>
        <time>2024-08-14T10:37:26Z</time>
      </trkpt>
      <trkpt lat="44.94189" lon="6.09084">
        <ele>2279.8</ele>
        <time>2024-08-14T10:37:27Z</time>
      </trkpt>
      <trkpt lat="44.94189" lon="6.09084">
        <ele>2279.4</ele>
        <time>2024-08-14T10:37:28Z</time>
      </trkpt>
      <trkpt lat="44.94191" lon="6.09086">
        <ele>2279.4</ele>
        <time>2024-08-14T10:37:29Z</time>
      </trkpt>
      <trkpt lat="44.94191" lon="6.09086">
        <ele>2279</ele>
        <time>2024-08-14T10:37:30Z</time>
      </trkpt>
      <trkpt lat="44.94193" lon="6.09087">
        <ele>2278.6</ele>
        <time>2024-08-14T10:37:31Z</time>
      </trkpt>
      <trkpt lat="44.94193" lon="6.09087">
        <ele>2278</ele>
        <time>2024-08-14T10:37:32Z</time>
      </trkpt>
      <trkpt lat="44.94195" lon="6.09088">
        <ele>2278</ele>
        <time>2024-08-14T10:37:33Z</time>
      </trkpt>
      <trkpt lat="44.94195" lon="6.09088">
        <ele>2278</ele>
        <time>2024-08-14T10:37:34Z</time>
      </trkpt>
      <trkpt lat="44.94198" lon="6.0909">
        <ele>2277.8</ele>
        <time>2024-08-14T10:37:35Z</time>
      </trkpt>
      <trkpt lat="44.94198" lon="6.0909">
        <ele>2277.6</ele>
        <time>2024-08-14T10:37:36Z</time>
      </trkpt>
      <trkpt lat="44.94199" lon="6.09092">
        <ele>2277</ele>
        <time>2024-08-14T10:37:37Z</time>
      </trkpt>
      <trkpt lat="44.94199" lon="6.09092">
        <ele>2276.8</ele>
        <time>2024-08-14T10:37:38Z</time>
      </trkpt>
      <trkpt lat="44.94201" lon="6.09094">
        <ele>2276.8</ele>
        <time>2024-08-14T10:37:39Z</time>
      </trkpt>
      <trkpt lat="44.94201" lon="6.09094">
        <ele>2276.6</ele>
        <time>2024-08-14T10:37:40Z</time>
      </trkpt>
      <trkpt lat="44.94201" lon="6.09094">
        <ele>2276.4</ele>
        <time>2024-08-14T10:37:41Z</time>
      </trkpt>
      <trkpt lat="44.94203" lon="6.09096">
        <ele>2276.4</ele>
        <time>2024-08-14T10:37:42Z</time>
      </trkpt>
      <trkpt lat="44.94203" lon="6.09096">
        <ele>2276</ele>
        <time>2024-08-14T10:37:43Z</time>
      </trkpt>
      <trkpt lat="44.94203" lon="6.09096">
        <ele>2275.8</ele>
        <time>2024-08-14T10:37:44Z</time>
      </trkpt>
      <trkpt lat="44.94205" lon="6.09098">
        <ele>2275.2</ele>
        <time>2024-08-14T10:37:45Z</time>
      </trkpt>
      <trkpt lat="44.94205" lon="6.09098">
        <ele>2275</ele>
        <time>2024-08-14T10:37:46Z</time>
      </trkpt>
      <trkpt lat="44.94207" lon="6.091">
        <ele>2275</ele>
        <time>2024-08-14T10:37:47Z</time>
      </trkpt>
      <trkpt lat="44.94207" lon="6.091">
        <ele>2274.6</ele>
        <time>2024-08-14T10:37:48Z</time>
      </trkpt>
      <trkpt lat="44.94209" lon="6.09102">
        <ele>2274.2</ele>
        <time>2024-08-14T10:37:49Z</time>
      </trkpt>
      <trkpt lat="44.94209" lon="6.09102">
        <ele>2273.8</ele>
        <time>2024-08-14T10:37:50Z</time>
      </trkpt>
      <trkpt lat="44.94211" lon="6.09103">
        <ele>2273.8</ele>
        <time>2024-08-14T10:37:51Z</time>
      </trkpt>
      <trkpt lat="44.94211" lon="6.09103">
        <ele>2273.4</ele>
        <time>2024-08-14T10:37:52Z</time>
      </trkpt>
      <trkpt lat="44.94213" lon="6.09105">
        <ele>2273.2</ele>
        <time>2024-08-14T10:37:53Z</time>
      </trkpt>
      <trkpt lat="44.94213" lon="6.09105">
        <ele>2273</ele>
        <time>2024-08-14T10:37:54Z</time>
      </trkpt>
      <trkpt lat="44.94215" lon="6.09107">
        <ele>2272.4</ele>
        <time>2024-08-14T10:37:55Z</time>
      </trkpt>
      <trkpt lat="44.94215" lon="6.09107">
        <ele>2272</ele>
        <time>2024-08-14T10:37:56Z</time>
      </trkpt>
      <trkpt lat="44.94218" lon="6.09108">
        <ele>2271.8</ele>
        <time>2024-08-14T10:37:57Z</time>
      </trkpt>
      <trkpt lat="44.94218" lon="6.09108">
        <ele>2271.8</ele>
        <time>2024-08-14T10:37:58Z</time>
      </trkpt>
      <trkpt lat="44.9422" lon="6.09109">
        <ele>2271.8</ele>
        <time>2024-08-14T10:37:59Z</time>
      </trkpt>
      <trkpt lat="44.9422" lon="6.09109">
        <ele>2271.4</ele>
        <time>2024-08-14T10:38:00Z</time>
      </trkpt>
      <trkpt lat="44.94222" lon="6.0911">
        <ele>2271</ele>
        <time>2024-08-14T10:38:01Z</time>
      </trkpt>
      <trkpt lat="44.94222" lon="6.0911">
        <ele>2270.2</ele>
        <time>2024-08-14T10:38:02Z</time>
      </trkpt>
      <trkpt lat="44.94222" lon="6.0911">
        <ele>2270.2</ele>
        <time>2024-08-14T10:38:03Z</time>
      </trkpt>
      <trkpt lat="44.94222" lon="6.0911">
        <ele>2269.6</ele>
        <time>2024-08-14T10:38:04Z</time>
      </trkpt>
      <trkpt lat="44.94222" lon="6.0911">
        <ele>2269.4</ele>
        <time>2024-08-14T10:38:05Z</time>
      </trkpt>
      <trkpt lat="44.94222" lon="6.0911">
        <ele>2269.2</ele>
        <time>2024-08-14T10:38:06Z</time>
      </trkpt>
      <trkpt lat="44.94222" lon="6.0911">
        <ele>2269.2</ele>
        <time>2024-08-14T10:38:07Z</time>
      </trkpt>
      <trkpt lat="44.94224" lon="6.09111">
        <ele>2269</ele>
        <time>2024-08-14T10:38:08Z</time>
      </trkpt>
      <trkpt lat="44.94224" lon="6.09111">
        <ele>2269</ele>
        <time>2024-08-14T10:38:09Z</time>
      </trkpt>
      <trkpt lat="44.94226" lon="6.0911">
        <ele>2269</ele>
        <time>2024-08-14T10:38:10Z</time>
      </trkpt>
      <trkpt lat="44.94226" lon="6.0911">
        <ele>2268.8</ele>
        <time>2024-08-14T10:38:11Z</time>
      </trkpt>
      <trkpt lat="44.94228" lon="6.0911">
        <ele>2268.6</ele>
        <time>2024-08-14T10:38:12Z</time>
      </trkpt>
      <trkpt lat="44.94228" lon="6.0911">
        <ele>2268.2</ele>
        <time>2024-08-14T10:38:13Z</time>
      </trkpt>
      <trkpt lat="44.94229" lon="6.0911">
        <ele>2268</ele>
        <time>2024-08-14T10:38:14Z</time>
      </trkpt>
      <trkpt lat="44.94229" lon="6.0911">
        <ele>2267.6</ele>
        <time>2024-08-14T10:38:15Z</time>
      </trkpt>
      <trkpt lat="44.94231" lon="6.09108">
        <ele>2267</ele>
        <time>2024-08-14T10:38:16Z</time>
      </trkpt>
      <trkpt lat="44.94231" lon="6.09108">
        <ele>2267</ele>
        <time>2024-08-14T10:38:17Z</time>
      </trkpt>
      <trkpt lat="44.94233" lon="6.09106">
        <ele>2266.6</ele>
        <time>2024-08-14T10:38:18Z</time>
      </trkpt>
      <trkpt lat="44.94233" lon="6.09106">
        <ele>2266.2</ele>
        <time>2024-08-14T10:38:19Z</time>
      </trkpt>
      <trkpt lat="44.94236" lon="6.09105">
        <ele>2266</ele>
        <time>2024-08-14T10:38:20Z</time>
      </trkpt>
      <trkpt lat="44.94236" lon="6.09105">
        <ele>2265.8</ele>
        <time>2024-08-14T10:38:21Z</time>
      </trkpt>
      <trkpt lat="44.94239" lon="6.09104">
        <ele>2265.4</ele>
        <time>2024-08-14T10:38:22Z</time>
      </trkpt>
      <trkpt lat="44.94239" lon="6.09104">
        <ele>2265.2</ele>
        <time>2024-08-14T10:38:23Z</time>
      </trkpt>
      <trkpt lat="44.94242" lon="6.09104">
        <ele>2265</ele>
        <time>2024-08-14T10:38:24Z</time>
      </trkpt>
      <trkpt lat="44.94242" lon="6.09104">
        <ele>2264.6</ele>
        <time>2024-08-14T10:38:25Z</time>
      </trkpt>
      <trkpt lat="44.94244" lon="6.09104">
        <ele>2264.6</ele>
        <time>2024-08-14T10:38:26Z</time>
      </trkpt>
      <trkpt lat="44.94244" lon="6.09104">
        <ele>2264.4</ele>
        <time>2024-08-14T10:38:27Z</time>
      </trkpt>
      <trkpt lat="44.94244" lon="6.09104">
        <ele>2264.2</ele>
        <time>2024-08-14T10:38:28Z</time>
      </trkpt>
      <trkpt lat="44.94247" lon="6.09105">
        <ele>2264</ele>
        <time>2024-08-14T10:38:29Z</time>
      </trkpt>
      <trkpt lat="44.94247" lon="6.09105">
        <ele>2263.6</ele>
        <time>2024-08-14T10:38:30Z</time>
      </trkpt>
      <trkpt lat="44.94248" lon="6.09107">
        <ele>2263.6</ele>
        <time>2024-08-14T10:38:31Z</time>
      </trkpt>
      <trkpt lat="44.94248" lon="6.09107">
        <ele>2263.4</ele>
        <time>2024-08-14T10:38:32Z</time>
      </trkpt>
      <trkpt lat="44.9425" lon="6.09109">
        <ele>2263.2</ele>
        <time>2024-08-14T10:38:33Z</time>
      </trkpt>
      <trkpt lat="44.9425" lon="6.09109">
        <ele>2263</ele>
        <time>2024-08-14T10:38:34Z</time>
      </trkpt>
      <trkpt lat="44.9425" lon="6.09109">
        <ele>2262.6</ele>
        <time>2024-08-14T10:38:35Z</time>
      </trkpt>
      <trkpt lat="44.94251" lon="6.09112">
        <ele>2262.4</ele>
        <time>2024-08-14T10:38:36Z</time>
      </trkpt>
      <trkpt lat="44.94251" lon="6.09112">
        <ele>2262.2</ele>
        <time>2024-08-14T10:38:37Z</time>
      </trkpt>
      <trkpt lat="44.94253" lon="6.09114">
        <ele>2262</ele>
        <time>2024-08-14T10:38:38Z</time>
      </trkpt>
      <trkpt lat="44.94253" lon="6.09114">
        <ele>2261.8</ele>
        <time>2024-08-14T10:38:39Z</time>
      </trkpt>
      <trkpt lat="44.94253" lon="6.09114">
        <ele>2261.6</ele>
        <time>2024-08-14T10:38:40Z</time>
      </trkpt>
      <trkpt lat="44.94253" lon="6.09117">
        <ele>2261.4</ele>
        <time>2024-08-14T10:38:41Z</time>
      </trkpt>
      <trkpt lat="44.94253" lon="6.09117">
        <ele>2261</ele>
        <time>2024-08-14T10:38:42Z</time>
      </trkpt>
      <trkpt lat="44.94253" lon="6.09117">
        <ele>2260.8</ele>
        <time>2024-08-14T10:38:43Z</time>
      </trkpt>
      <trkpt lat="44.94255" lon="6.09119">
        <ele>2260.2</ele>
        <time>2024-08-14T10:38:44Z</time>
      </trkpt>
      <trkpt lat="44.94255" lon="6.09119">
        <ele>2259.8</ele>
        <time>2024-08-14T10:38:45Z</time>
      </trkpt>
      <trkpt lat="44.94257" lon="6.09119">
        <ele>2259.6</ele>
        <time>2024-08-14T10:38:46Z</time>
      </trkpt>
      <trkpt lat="44.94257" lon="6.09119">
        <ele>2259.4</ele>
        <time>2024-08-14T10:38:47Z</time>
      </trkpt>
      <trkpt lat="44.94257" lon="6.09119">
        <ele>2259.2</ele>
        <time>2024-08-14T10:38:48Z</time>
      </trkpt>
      <trkpt lat="44.94259" lon="6.09122">
        <ele>2258.8</ele>
        <time>2024-08-14T10:38:49Z</time>
      </trkpt>
      <trkpt lat="44.94259" lon="6.09122">
        <ele>2258.8</ele>
        <time>2024-08-14T10:38:50Z</time>
      </trkpt>
      <trkpt lat="44.94261" lon="6.09123">
        <ele>2258.6</ele>
        <time>2024-08-14T10:38:51Z</time>
      </trkpt>
      <trkpt lat="44.94261" lon="6.09123">
        <ele>2258.4</ele>
        <time>2024-08-14T10:38:52Z</time>
      </trkpt>
      <trkpt lat="44.94261" lon="6.09123">
        <ele>2257.8</ele>
        <time>2024-08-14T10:38:53Z</time>
      </trkpt>
      <trkpt lat="44.94263" lon="6.09124">
        <ele>2257.4</ele>
        <time>2024-08-14T10:38:54Z</time>
      </trkpt>
      <trkpt lat="44.94263" lon="6.09124">
        <ele>2257.2</ele>
        <time>2024-08-14T10:38:55Z</time>
      </trkpt>
      <trkpt lat="44.94263" lon="6.09124">
        <ele>2256.8</ele>
        <time>2024-08-14T10:38:56Z</time>
      </trkpt>
      <trkpt lat="44.94264" lon="6.09127">
        <ele>2256.4</ele>
        <time>2024-08-14T10:38:57Z</time>
      </trkpt>
      <trkpt lat="44.94264" lon="6.09127">
        <ele>2256</ele>
        <time>2024-08-14T10:38:58Z</time>
      </trkpt>
      <trkpt lat="44.94264" lon="6.09127">
        <ele>2256</ele>
        <time>2024-08-14T10:38:59Z</time>
      </trkpt>
      <trkpt lat="44.94264" lon="6.0913">
        <ele>2255.8</ele>
        <time>2024-08-14T10:39:00Z</time>
      </trkpt>
      <trkpt lat="44.94264" lon="6.0913">
        <ele>2255.6</ele>
        <time>2024-08-14T10:39:01Z</time>
      </trkpt>
      <trkpt lat="44.94264" lon="6.0913">
        <ele>2255.2</ele>
        <time>2024-08-14T10:39:02Z</time>
      </trkpt>
      <trkpt lat="44.94266" lon="6.0913">
        <ele>2255</ele>
        <time>2024-08-14T10:39:03Z</time>
      </trkpt>
      <trkpt lat="44.94266" lon="6.0913">
        <ele>2254.4</ele>
        <time>2024-08-14T10:39:04Z</time>
      </trkpt>
      <trkpt lat="44.94268" lon="6.09132">
        <ele>2254.2</ele>
        <time>2024-08-14T10:39:05Z</time>
      </trkpt>
      <trkpt lat="44.94268" lon="6.09132">
        <ele>2254.2</ele>
        <time>2024-08-14T10:39:06Z</time>
      </trkpt>
      <trkpt lat="44.94269" lon="6.09134">
        <ele>2253.8</ele>
        <time>2024-08-14T10:39:07Z</time>
      </trkpt>
      <trkpt lat="44.94269" lon="6.09134">
        <ele>2253.2</ele>
        <time>2024-08-14T10:39:08Z</time>
      </trkpt>
      <trkpt lat="44.94269" lon="6.09136">
        <ele>2253</ele>
        <time>2024-08-14T10:39:09Z</time>
      </trkpt>
      <trkpt lat="44.94269" lon="6.09136">
        <ele>2252.8</ele>
        <time>2024-08-14T10:39:10Z</time>
      </trkpt>
      <trkpt lat="44.94271" lon="6.09139">
        <ele>2252.2</ele>
        <time>2024-08-14T10:39:11Z</time>
      </trkpt>
      <trkpt lat="44.94271" lon="6.09139">
        <ele>2251.6</ele>
        <time>2024-08-14T10:39:12Z</time>
      </trkpt>
      <trkpt lat="44.94271" lon="6.09139">
        <ele>2251.6</ele>
        <time>2024-08-14T10:39:13Z</time>
      </trkpt>
      <trkpt lat="44.94272" lon="6.09142">
        <ele>2251.4</ele>
        <time>2024-08-14T10:39:14Z</time>
      </trkpt>
      <trkpt lat="44.94272" lon="6.09142">
        <ele>2251.2</ele>
        <time>2024-08-14T10:39:15Z</time>
      </trkpt>
      <trkpt lat="44.94272" lon="6.09142">
        <ele>2250.8</ele>
        <time>2024-08-14T10:39:16Z</time>
      </trkpt>
      <trkpt lat="44.94275" lon="6.09143">
        <ele>2250.6</ele>
        <time>2024-08-14T10:39:17Z</time>
      </trkpt>
      <trkpt lat="44.94275" lon="6.09143">
        <ele>2250.2</ele>
        <time>2024-08-14T10:39:18Z</time>
      </trkpt>
      <trkpt lat="44.94275" lon="6.09143">
        <ele>2249.8</ele>
        <time>2024-08-14T10:39:19Z</time>
      </trkpt>
      <trkpt lat="44.94277" lon="6.09146">
        <ele>2249.8</ele>
        <time>2024-08-14T10:39:20Z</time>
      </trkpt>
      <trkpt lat="44.94277" lon="6.09146">
        <ele>2249.6</ele>
        <time>2024-08-14T10:39:21Z</time>
      </trkpt>
      <trkpt lat="44.94277" lon="6.09146">
        <ele>2249.6</ele>
        <time>2024-08-14T10:39:22Z</time>
      </trkpt>
      <trkpt lat="44.94277" lon="6.09149">
        <ele>2249.4</ele>
        <time>2024-08-14T10:39:23Z</time>
      </trkpt>
      <trkpt lat="44.94277" lon="6.09149">
        <ele>2249.2</ele>
        <time>2024-08-14T10:39:24Z</time>
      </trkpt>
      <trkpt lat="44.94279" lon="6.09151">
        <ele>2248.8</ele>
        <time>2024-08-14T10:39:25Z</time>
      </trkpt>
      <trkpt lat="44.94279" lon="6.09151">
        <ele>2248.4</ele>
        <time>2024-08-14T10:39:26Z</time>
      </trkpt>
      <trkpt lat="44.94279" lon="6.09151">
        <ele>2248</ele>
        <time>2024-08-14T10:39:27Z</time>
      </trkpt>
      <trkpt lat="44.94281" lon="6.09154">
        <ele>2247.6</ele>
        <time>2024-08-14T10:39:28Z</time>
      </trkpt>
      <trkpt lat="44.94281" lon="6.09154">
        <ele>2247.4</ele>
        <time>2024-08-14T10:39:29Z</time>
      </trkpt>
      <trkpt lat="44.94282" lon="6.09156">
        <ele>2247.2</ele>
        <time>2024-08-14T10:39:30Z</time>
      </trkpt>
      <trkpt lat="44.94282" lon="6.09156">
        <ele>2246.6</ele>
        <time>2024-08-14T10:39:31Z</time>
      </trkpt>
      <trkpt lat="44.94282" lon="6.09156">
        <ele>2246.2</ele>
        <time>2024-08-14T10:39:32Z</time>
      </trkpt>
      <trkpt lat="44.94284" lon="6.09158">
        <ele>2245.4</ele>
        <time>2024-08-14T10:39:33Z</time>
      </trkpt>
      <trkpt lat="44.94284" lon="6.09158">
        <ele>2245</ele>
        <time>2024-08-14T10:39:34Z</time>
      </trkpt>
      <trkpt lat="44.94285" lon="6.09159">
        <ele>2244.6</ele>
        <time>2024-08-14T10:39:35Z</time>
      </trkpt>
      <trkpt lat="44.94285" lon="6.09159">
        <ele>2244.6</ele>
        <time>2024-08-14T10:39:36Z</time>
      </trkpt>
      <trkpt lat="44.94285" lon="6.09159">
        <ele>2244.2</ele>
        <time>2024-08-14T10:39:37Z</time>
      </trkpt>
      <trkpt lat="44.94288" lon="6.0916">
        <ele>2244</ele>
        <time>2024-08-14T10:39:38Z</time>
      </trkpt>
      <trkpt lat="44.94288" lon="6.0916">
        <ele>2243.6</ele>
        <time>2024-08-14T10:39:39Z</time>
      </trkpt>
      <trkpt lat="44.9429" lon="6.09162">
        <ele>2243.2</ele>
        <time>2024-08-14T10:39:40Z</time>
      </trkpt>
      <trkpt lat="44.9429" lon="6.09162">
        <ele>2242.6</ele>
        <time>2024-08-14T10:39:41Z</time>
      </trkpt>
      <trkpt lat="44.94292" lon="6.09164">
        <ele>2242.6</ele>
        <time>2024-08-14T10:39:42Z</time>
      </trkpt>
      <trkpt lat="44.94292" lon="6.09164">
        <ele>2242</ele>
        <time>2024-08-14T10:39:43Z</time>
      </trkpt>
      <trkpt lat="44.94293" lon="6.09166">
        <ele>2241.6</ele>
        <time>2024-08-14T10:39:44Z</time>
      </trkpt>
      <trkpt lat="44.94293" lon="6.09166">
        <ele>2241.2</ele>
        <time>2024-08-14T10:39:45Z</time>
      </trkpt>
      <trkpt lat="44.94293" lon="6.09166">
        <ele>2240.8</ele>
        <time>2024-08-14T10:39:46Z</time>
      </trkpt>
      <trkpt lat="44.94294" lon="6.09169">
        <ele>2240.6</ele>
        <time>2024-08-14T10:39:47Z</time>
      </trkpt>
      <trkpt lat="44.94294" lon="6.09169">
        <ele>2240</ele>
        <time>2024-08-14T10:39:48Z</time>
      </trkpt>
      <trkpt lat="44.94296" lon="6.0917">
        <ele>2239.8</ele>
        <time>2024-08-14T10:39:49Z</time>
      </trkpt>
      <trkpt lat="44.94296" lon="6.0917">
        <ele>2239.6</ele>
        <time>2024-08-14T10:39:50Z</time>
      </trkpt>
      <trkpt lat="44.94298" lon="6.09172">
        <ele>2239.2</ele>
        <time>2024-08-14T10:39:51Z</time>
      </trkpt>
      <trkpt lat="44.94298" lon="6.09172">
        <ele>2238.8</ele>
        <time>2024-08-14T10:39:52Z</time>
      </trkpt>
      <trkpt lat="44.94298" lon="6.09172">
        <ele>2238.6</ele>
        <time>2024-08-14T10:39:53Z</time>
      </trkpt>
      <trkpt lat="44.94299" lon="6.09174">
        <ele>2238.4</ele>
        <time>2024-08-14T10:39:54Z</time>
      </trkpt>
      <trkpt lat="44.94299" lon="6.09174">
        <ele>2238.2</ele>
        <time>2024-08-14T10:39:55Z</time>
      </trkpt>
      <trkpt lat="44.94301" lon="6.09176">
        <ele>2237.6</ele>
        <time>2024-08-14T10:39:56Z</time>
      </trkpt>
      <trkpt lat="44.94301" lon="6.09176">
        <ele>2237.2</ele>
        <time>2024-08-14T10:39:57Z</time>
      </trkpt>
      <trkpt lat="44.94302" lon="6.09179">
        <ele>2236.8</ele>
        <time>2024-08-14T10:39:58Z</time>
      </trkpt>
      <trkpt lat="44.94302" lon="6.09179">
        <ele>2236.6</ele>
        <time>2024-08-14T10:39:59Z</time>
      </trkpt>
      <trkpt lat="44.94302" lon="6.09179">
        <ele>2236.4</ele>
        <time>2024-08-14T10:40:00Z</time>
      </trkpt>
      <trkpt lat="44.94305" lon="6.0918">
        <ele>2236.2</ele>
        <time>2024-08-14T10:40:01Z</time>
      </trkpt>
      <trkpt lat="44.94305" lon="6.0918">
        <ele>2235.4</ele>
        <time>2024-08-14T10:40:02Z</time>
      </trkpt>
      <trkpt lat="44.94306" lon="6.09182">
        <ele>2235</ele>
        <time>2024-08-14T10:40:03Z</time>
      </trkpt>
      <trkpt lat="44.94306" lon="6.09182">
        <ele>2234.8</ele>
        <time>2024-08-14T10:40:04Z</time>
      </trkpt>
      <trkpt lat="44.94307" lon="6.09184">
        <ele>2234.4</ele>
        <time>2024-08-14T10:40:05Z</time>
      </trkpt>
      <trkpt lat="44.94307" lon="6.09184">
        <ele>2234</ele>
        <time>2024-08-14T10:40:06Z</time>
      </trkpt>
      <trkpt lat="44.94307" lon="6.09184">
        <ele>2233.8</ele>
        <time>2024-08-14T10:40:07Z</time>
      </trkpt>
      <trkpt lat="44.94309" lon="6.09187">
        <ele>2233.8</ele>
        <time>2024-08-14T10:40:08Z</time>
      </trkpt>
      <trkpt lat="44.94309" lon="6.09187">
        <ele>2233.6</ele>
        <time>2024-08-14T10:40:09Z</time>
      </trkpt>
      <trkpt lat="44.94311" lon="6.09189">
        <ele>2233.2</ele>
        <time>2024-08-14T10:40:10Z</time>
      </trkpt>
      <trkpt lat="44.94311" lon="6.09189">
        <ele>2233.2</ele>
        <time>2024-08-14T10:40:11Z</time>
      </trkpt>
      <trkpt lat="44.94312" lon="6.09191">
        <ele>2232.4</ele>
        <time>2024-08-14T10:40:12Z</time>
      </trkpt>
      <trkpt lat="44.94312" lon="6.09191">
        <ele>2231.8</ele>
        <time>2024-08-14T10:40:13Z</time>
      </trkpt>
      <trkpt lat="44.94313" lon="6.09194">
        <ele>2231.6</ele>
        <time>2024-08-14T10:40:14Z</time>
      </trkpt>
      <trkpt lat="44.94313" lon="6.09194">
        <ele>2231.4</ele>
        <time>2024-08-14T10:40:15Z</time>
      </trkpt>
      <trkpt lat="44.94315" lon="6.09196">
        <ele>2231.2</ele>
        <time>2024-08-14T10:40:16Z</time>
      </trkpt>
      <trkpt lat="44.94315" lon="6.09196">
        <ele>2230.8</ele>
        <time>2024-08-14T10:40:17Z</time>
      </trkpt>
      <trkpt lat="44.94316" lon="6.09198">
        <ele>2230.4</ele>
        <time>2024-08-14T10:40:18Z</time>
      </trkpt>
      <trkpt lat="44.94316" lon="6.09198">
        <ele>2230.2</ele>
        <time>2024-08-14T10:40:19Z</time>
      </trkpt>
      <trkpt lat="44.94318" lon="6.09199">
        <ele>2230</ele>
        <time>2024-08-14T10:40:20Z</time>
      </trkpt>
      <trkpt lat="44.94318" lon="6.09199">
        <ele>2229.8</ele>
        <time>2024-08-14T10:40:21Z</time>
      </trkpt>
      <trkpt lat="44.94318" lon="6.09199">
        <ele>2229.4</ele>
        <time>2024-08-14T10:40:22Z</time>
      </trkpt>
      <trkpt lat="44.9432" lon="6.09201">
        <ele>2229.2</ele>
        <time>2024-08-14T10:40:23Z</time>
      </trkpt>
      <trkpt lat="44.9432" lon="6.09201">
        <ele>2228.8</ele>
        <time>2024-08-14T10:40:24Z</time>
      </trkpt>
      <trkpt lat="44.9432" lon="6.09201">
        <ele>2228.6</ele>
        <time>2024-08-14T10:40:25Z</time>
      </trkpt>
      <trkpt lat="44.94322" lon="6.09202">
        <ele>2228.2</ele>
        <time>2024-08-14T10:40:26Z</time>
      </trkpt>
      <trkpt lat="44.94322" lon="6.09202">
        <ele>2228</ele>
        <time>2024-08-14T10:40:27Z</time>
      </trkpt>
      <trkpt lat="44.94322" lon="6.09202">
        <ele>2227.8</ele>
        <time>2024-08-14T10:40:28Z</time>
      </trkpt>
      <trkpt lat="44.94324" lon="6.09205">
        <ele>2227.6</ele>
        <time>2024-08-14T10:40:29Z</time>
      </trkpt>
      <trkpt lat="44.94324" lon="6.09205">
        <ele>2227.2</ele>
        <time>2024-08-14T10:40:30Z</time>
      </trkpt>
      <trkpt lat="44.94325" lon="6.09207">
        <ele>2227</ele>
        <time>2024-08-14T10:40:31Z</time>
      </trkpt>
      <trkpt lat="44.94325" lon="6.09207">
        <ele>2226.8</ele>
        <time>2024-08-14T10:40:32Z</time>
      </trkpt>
      <trkpt lat="44.94325" lon="6.0921">
        <ele>2226.4</ele>
        <time>2024-08-14T10:40:33Z</time>
      </trkpt>
      <trkpt lat="44.94325" lon="6.0921">
        <ele>2226</ele>
        <time>2024-08-14T10:40:34Z</time>
      </trkpt>
      <trkpt lat="44.94325" lon="6.09213">
        <ele>2225.6</ele>
        <time>2024-08-14T10:40:35Z</time>
      </trkpt>
      <trkpt lat="44.94325" lon="6.09213">
        <ele>2225</ele>
        <time>2024-08-14T10:40:36Z</time>
      </trkpt>
      <trkpt lat="44.94325" lon="6.09213">
        <ele>2224.6</ele>
        <time>2024-08-14T10:40:37Z</time>
      </trkpt>
      <trkpt lat="44.94325" lon="6.09213">
        <ele>2224.4</ele>
        <time>2024-08-14T10:40:38Z</time>
      </trkpt>
      <trkpt lat="44.94325" lon="6.09213">
        <ele>2224.4</ele>
        <time>2024-08-14T10:40:39Z</time>
      </trkpt>
      <trkpt lat="44.94327" lon="6.09213">
        <ele>2224.4</ele>
        <time>2024-08-14T10:40:40Z</time>
      </trkpt>
      <trkpt lat="44.94327" lon="6.09213">
        <ele>2223.8</ele>
        <time>2024-08-14T10:40:41Z</time>
      </trkpt>
      <trkpt lat="44.94328" lon="6.09211">
        <ele>2223.6</ele>
        <time>2024-08-14T10:40:42Z</time>
      </trkpt>
      <trkpt lat="44.94328" lon="6.09211">
        <ele>2223</ele>
        <time>2024-08-14T10:40:43Z</time>
      </trkpt>
      <trkpt lat="44.9433" lon="6.0921">
        <ele>2222.6</ele>
        <time>2024-08-14T10:40:44Z</time>
      </trkpt>
      <trkpt lat="44.9433" lon="6.0921">
        <ele>2222.4</ele>
        <time>2024-08-14T10:40:45Z</time>
      </trkpt>
      <trkpt lat="44.9433" lon="6.0921">
        <ele>2222</ele>
        <time>2024-08-14T10:40:46Z</time>
      </trkpt>
      <trkpt lat="44.94332" lon="6.0921">
        <ele>2221.8</ele>
        <time>2024-08-14T10:40:47Z</time>
      </trkpt>
      <trkpt lat="44.94332" lon="6.0921">
        <ele>2221.6</ele>
        <time>2024-08-14T10:40:48Z</time>
      </trkpt>
      <trkpt lat="44.94334" lon="6.09209">
        <ele>2221</ele>
        <time>2024-08-14T10:40:49Z</time>
      </trkpt>
      <trkpt lat="44.94334" lon="6.09209">
        <ele>2220.6</ele>
        <time>2024-08-14T10:40:50Z</time>
      </trkpt>
      <trkpt lat="44.94336" lon="6.09207">
        <ele>2220.4</ele>
        <time>2024-08-14T10:40:51Z</time>
      </trkpt>
      <trkpt lat="44.94336" lon="6.09207">
        <ele>2219.8</ele>
        <time>2024-08-14T10:40:52Z</time>
      </trkpt>
      <trkpt lat="44.94338" lon="6.09205">
        <ele>2219.8</ele>
        <time>2024-08-14T10:40:53Z</time>
      </trkpt>
      <trkpt lat="44.94338" lon="6.09205">
        <ele>2219.8</ele>
        <time>2024-08-14T10:40:54Z</time>
      </trkpt>
      <trkpt lat="44.9434" lon="6.09205">
        <ele>2219.4</ele>
        <time>2024-08-14T10:40:55Z</time>
      </trkpt>
      <trkpt lat="44.9434" lon="6.09205">
        <ele>2219.2</ele>
        <time>2024-08-14T10:40:56Z</time>
      </trkpt>
      <trkpt lat="44.94342" lon="6.09206">
        <ele>2219</ele>
        <time>2024-08-14T10:40:57Z</time>
      </trkpt>
      <trkpt lat="44.94342" lon="6.09206">
        <ele>2218.8</ele>
        <time>2024-08-14T10:40:58Z</time>
      </trkpt>
      <trkpt lat="44.94342" lon="6.09206">
        <ele>2218.6</ele>
        <time>2024-08-14T10:40:59Z</time>
      </trkpt>
      <trkpt lat="44.94344" lon="6.09206">
        <ele>2218</ele>
        <time>2024-08-14T10:41:00Z</time>
      </trkpt>
      <trkpt lat="44.94344" lon="6.09206">
        <ele>2217.8</ele>
        <time>2024-08-14T10:41:01Z</time>
      </trkpt>
      <trkpt lat="44.94347" lon="6.09208">
        <ele>2217</ele>
        <time>2024-08-14T10:41:02Z</time>
      </trkpt>
      <trkpt lat="44.94347" lon="6.09208">
        <ele>2217</ele>
        <time>2024-08-14T10:41:03Z</time>
      </trkpt>
      <trkpt lat="44.94349" lon="6.0921">
        <ele>2217</ele>
        <time>2024-08-14T10:41:04Z</time>
      </trkpt>
      <trkpt lat="44.94349" lon="6.0921">
        <ele>2216.6</ele>
        <time>2024-08-14T10:41:05Z</time>
      </trkpt>
      <trkpt lat="44.94351" lon="6.09211">
        <ele>2216.2</ele>
        <time>2024-08-14T10:41:06Z</time>
      </trkpt>
      <trkpt lat="44.94351" lon="6.09211">
        <ele>2216.2</ele>
        <time>2024-08-14T10:41:07Z</time>
      </trkpt>
      <trkpt lat="44.94351" lon="6.09211">
        <ele>2215.8</ele>
        <time>2024-08-14T10:41:08Z</time>
      </trkpt>
      <trkpt lat="44.94354" lon="6.09211">
        <ele>2215.4</ele>
        <time>2024-08-14T10:41:09Z</time>
      </trkpt>
      <trkpt lat="44.94354" lon="6.09211">
        <ele>2215.2</ele>
        <time>2024-08-14T10:41:10Z</time>
      </trkpt>
      <trkpt lat="44.94356" lon="6.0921">
        <ele>2215</ele>
        <time>2024-08-14T10:41:11Z</time>
      </trkpt>
      <trkpt lat="44.94356" lon="6.0921">
        <ele>2214.8</ele>
        <time>2024-08-14T10:41:12Z</time>
      </trkpt>
      <trkpt lat="44.94358" lon="6.09209">
        <ele>2214</ele>
        <time>2024-08-14T10:41:13Z</time>
      </trkpt>
      <trkpt lat="44.94358" lon="6.09209">
        <ele>2213.6</ele>
        <time>2024-08-14T10:41:14Z</time>
      </trkpt>
      <trkpt lat="44.9436" lon="6.09208">
        <ele>2213.6</ele>
        <time>2024-08-14T10:41:15Z</time>
      </trkpt>
      <trkpt lat="44.9436" lon="6.09208">
        <ele>2213.4</ele>
        <time>2024-08-14T10:41:16Z</time>
      </trkpt>
      <trkpt lat="44.9436" lon="6.09208">
        <ele>2213.2</ele>
        <time>2024-08-14T10:41:17Z</time>
      </trkpt>
      <trkpt lat="44.94362" lon="6.09209">
        <ele>2212.8</ele>
        <time>2024-08-14T10:41:18Z</time>
      </trkpt>
      <trkpt lat="44.94362" lon="6.09209">
        <ele>2212.4</ele>
        <time>2024-08-14T10:41:19Z</time>
      </trkpt>
      <trkpt lat="44.94364" lon="6.09209">
        <ele>2212.4</ele>
        <time>2024-08-14T10:41:20Z</time>
      </trkpt>
      <trkpt lat="44.94364" lon="6.09209">
        <ele>2212</ele>
        <time>2024-08-14T10:41:21Z</time>
      </trkpt>
      <trkpt lat="44.94366" lon="6.09212">
        <ele>2212</ele>
        <time>2024-08-14T10:41:22Z</time>
      </trkpt>
      <trkpt lat="44.94366" lon="6.09212">
        <ele>2211.8</ele>
        <time>2024-08-14T10:41:23Z</time>
      </trkpt>
      <trkpt lat="44.94367" lon="6.09214">
        <ele>2211.4</ele>
        <time>2024-08-14T10:41:24Z</time>
      </trkpt>
      <trkpt lat="44.94367" lon="6.09214">
        <ele>2211.2</ele>
        <time>2024-08-14T10:41:25Z</time>
      </trkpt>
      <trkpt lat="44.9437" lon="6.09215">
        <ele>2210.8</ele>
        <time>2024-08-14T10:41:26Z</time>
      </trkpt>
      <trkpt lat="44.9437" lon="6.09215">
        <ele>2210.2</ele>
        <time>2024-08-14T10:41:27Z</time>
      </trkpt>
      <trkpt lat="44.94371" lon="6.09213">
        <ele>2209.6</ele>
        <time>2024-08-14T10:41:28Z</time>
      </trkpt>
      <trkpt lat="44.94371" lon="6.09213">
        <ele>2209.4</ele>
        <time>2024-08-14T10:41:29Z</time>
      </trkpt>
      <trkpt lat="44.94372" lon="6.0921">
        <ele>2209.4</ele>
        <time>2024-08-14T10:41:30Z</time>
      </trkpt>
      <trkpt lat="44.94372" lon="6.0921">
        <ele>2209.2</ele>
        <time>2024-08-14T10:41:31Z</time>
      </trkpt>
      <trkpt lat="44.94372" lon="6.0921">
        <ele>2209</ele>
        <time>2024-08-14T10:41:32Z</time>
      </trkpt>
      <trkpt lat="44.94373" lon="6.09207">
        <ele>2209</ele>
        <time>2024-08-14T10:41:33Z</time>
      </trkpt>
      <trkpt lat="44.94373" lon="6.09207">
        <ele>2208.8</ele>
        <time>2024-08-14T10:41:34Z</time>
      </trkpt>
      <trkpt lat="44.94373" lon="6.09207">
        <ele>2208.4</ele>
        <time>2024-08-14T10:41:35Z</time>
      </trkpt>
      <trkpt lat="44.94375" lon="6.09205">
        <ele>2208.2</ele>
        <time>2024-08-14T10:41:36Z</time>
      </trkpt>
      <trkpt lat="44.94375" lon="6.09205">
        <ele>2208</ele>
        <time>2024-08-14T10:41:37Z</time>
      </trkpt>
      <trkpt lat="44.94376" lon="6.09202">
        <ele>2207.6</ele>
        <time>2024-08-14T10:41:38Z</time>
      </trkpt>
      <trkpt lat="44.94376" lon="6.09202">
        <ele>2207.4</ele>
        <time>2024-08-14T10:41:39Z</time>
      </trkpt>
      <trkpt lat="44.94378" lon="6.09201">
        <ele>2206.8</ele>
        <time>2024-08-14T10:41:40Z</time>
      </trkpt>
      <trkpt lat="44.94378" lon="6.09201">
        <ele>2206.2</ele>
        <time>2024-08-14T10:41:41Z</time>
      </trkpt>
      <trkpt lat="44.94378" lon="6.09201">
        <ele>2206.2</ele>
        <time>2024-08-14T10:41:42Z</time>
      </trkpt>
      <trkpt lat="44.9438" lon="6.09199">
        <ele>2206.2</ele>
        <time>2024-08-14T10:41:43Z</time>
      </trkpt>
      <trkpt lat="44.9438" lon="6.09199">
        <ele>2206</ele>
        <time>2024-08-14T10:41:44Z</time>
      </trkpt>
      <trkpt lat="44.9438" lon="6.09199">
        <ele>2206</ele>
        <time>2024-08-14T10:41:45Z</time>
      </trkpt>
      <trkpt lat="44.94382" lon="6.09197">
        <ele>2205.2</ele>
        <time>2024-08-14T10:41:46Z</time>
      </trkpt>
      <trkpt lat="44.94382" lon="6.09197">
        <ele>2205.2</ele>
        <time>2024-08-14T10:41:47Z</time>
      </trkpt>
      <trkpt lat="44.94382" lon="6.09197">
        <ele>2205</ele>
        <time>2024-08-14T10:41:48Z</time>
      </trkpt>
      <trkpt lat="44.94382" lon="6.09197">
        <ele>2205</ele>
        <time>2024-08-14T10:41:49Z</time>
      </trkpt>
      <trkpt lat="44.94382" lon="6.09197">
        <ele>2205</ele>
        <time>2024-08-14T10:41:50Z</time>
      </trkpt>
      <trkpt lat="44.94382" lon="6.09197">
        <ele>2205</ele>
        <time>2024-08-14T10:41:51Z</time>
      </trkpt>
      <trkpt lat="44.94382" lon="6.09197">
        <ele>2204.8</ele>
        <time>2024-08-14T10:41:52Z</time>
      </trkpt>
      <trkpt lat="44.94382" lon="6.09197">
        <ele>2204.4</ele>
        <time>2024-08-14T10:41:53Z</time>
      </trkpt>
      <trkpt lat="44.94382" lon="6.09197">
        <ele>2204.2</ele>
        <time>2024-08-14T10:41:54Z</time>
      </trkpt>
      <trkpt lat="44.94382" lon="6.09197">
        <ele>2204.2</ele>
        <time>2024-08-14T10:41:55Z</time>
      </trkpt>
      <trkpt lat="44.94382" lon="6.09197">
        <ele>2204.2</ele>
        <time>2024-08-14T10:41:56Z</time>
      </trkpt>
      <trkpt lat="44.94382" lon="6.09197">
        <ele>2204.2</ele>
        <time>2024-08-14T10:41:57Z</time>
      </trkpt>
      <trkpt lat="44.94382" lon="6.09197">
        <ele>2204.2</ele>
        <time>2024-08-14T10:41:58Z</time>
      </trkpt>
      <trkpt lat="44.94382" lon="6.09197">
        <ele>2204.2</ele>
        <time>2024-08-14T10:41:59Z</time>
      </trkpt>
      <trkpt lat="44.94382" lon="6.09197">
        <ele>2204.2</ele>
        <time>2024-08-14T10:42:00Z</time>
      </trkpt>
      <trkpt lat="44.94382" lon="6.09197">
        <ele>2204.4</ele>
        <time>2024-08-14T10:42:01Z</time>
      </trkpt>
      <trkpt lat="44.94382" lon="6.09197">
        <ele>2204.2</ele>
        <time>2024-08-14T10:42:02Z</time>
      </trkpt>
      <trkpt lat="44.94382" lon="6.09197">
        <ele>2204.2</ele>
        <time>2024-08-14T10:42:03Z</time>
      </trkpt>
      <trkpt lat="44.94382" lon="6.09197">
        <ele>2204.2</ele>
        <time>2024-08-14T10:42:04Z</time>
      </trkpt>
      <trkpt lat="44.94382" lon="6.09197">
        <ele>2204.2</ele>
        <time>2024-08-14T10:42:05Z</time>
      </trkpt>
      <trkpt lat="44.94382" lon="6.09197">
        <ele>2204.4</ele>
        <time>2024-08-14T10:42:06Z</time>
      </trkpt>
      <trkpt lat="44.94382" lon="6.09197">
        <ele>2204.4</ele>
        <time>2024-08-14T10:42:07Z</time>
      </trkpt>
      <trkpt lat="44.94382" lon="6.09197">
        <ele>2204.4</ele>
        <time>2024-08-14T10:42:08Z</time>
      </trkpt>
      <trkpt lat="44.94382" lon="6.09197">
        <ele>2204.4</ele>
        <time>2024-08-14T10:42:09Z</time>
      </trkpt>
      <trkpt lat="44.94382" lon="6.09197">
        <ele>2204.4</ele>
        <time>2024-08-14T10:42:10Z</time>
      </trkpt>
      <trkpt lat="44.94382" lon="6.09197">
        <ele>2204.4</ele>
        <time>2024-08-14T10:42:11Z</time>
      </trkpt>
      <trkpt lat="44.94382" lon="6.09197">
        <ele>2204.8</ele>
        <time>2024-08-14T10:42:12Z</time>
      </trkpt>
      <trkpt lat="44.94382" lon="6.09197">
        <ele>2204.8</ele>
        <time>2024-08-14T10:42:13Z</time>
      </trkpt>
      <trkpt lat="44.94382" lon="6.09197">
        <ele>2205</ele>
        <time>2024-08-14T10:42:14Z</time>
      </trkpt>
      <trkpt lat="44.94382" lon="6.09197">
        <ele>2205</ele>
        <time>2024-08-14T10:42:15Z</time>
      </trkpt>
      <trkpt lat="44.94382" lon="6.09197">
        <ele>2205.2</ele>
        <time>2024-08-14T10:42:16Z</time>
      </trkpt>
      <trkpt lat="44.94382" lon="6.09197">
        <ele>2205</ele>
        <time>2024-08-14T10:42:17Z</time>
      </trkpt>
      <trkpt lat="44.94382" lon="6.09197">
        <ele>2205</ele>
        <time>2024-08-14T10:42:18Z</time>
      </trkpt>
      <trkpt lat="44.94382" lon="6.09197">
        <ele>2204.8</ele>
        <time>2024-08-14T10:42:19Z</time>
      </trkpt>
      <trkpt lat="44.94382" lon="6.09197">
        <ele>2204.4</ele>
        <time>2024-08-14T10:42:20Z</time>
      </trkpt>
      <trkpt lat="44.94382" lon="6.09197">
        <ele>2204.4</ele>
        <time>2024-08-14T10:42:21Z</time>
      </trkpt>
      <trkpt lat="44.94382" lon="6.09197">
        <ele>2204.2</ele>
        <time>2024-08-14T10:42:22Z</time>
      </trkpt>
      <trkpt lat="44.94382" lon="6.09197">
        <ele>2204.2</ele>
        <time>2024-08-14T10:42:23Z</time>
      </trkpt>
      <trkpt lat="44.94382" lon="6.09197">
        <ele>2204</ele>
        <time>2024-08-14T10:42:24Z</time>
      </trkpt>
      <trkpt lat="44.94382" lon="6.09197">
        <ele>2204</ele>
        <time>2024-08-14T10:42:25Z</time>
      </trkpt>
      <trkpt lat="44.94382" lon="6.09197">
        <ele>2204</ele>
        <time>2024-08-14T10:42:26Z</time>
      </trkpt>
      <trkpt lat="44.94382" lon="6.09197">
        <ele>2204</ele>
        <time>2024-08-14T10:42:27Z</time>
      </trkpt>
      <trkpt lat="44.94382" lon="6.09197">
        <ele>2203.8</ele>
        <time>2024-08-14T10:42:28Z</time>
      </trkpt>
      <trkpt lat="44.94382" lon="6.09197">
        <ele>2203.8</ele>
        <time>2024-08-14T10:42:29Z</time>
      </trkpt>
      <trkpt lat="44.94382" lon="6.09197">
        <ele>2203.8</ele>
        <time>2024-08-14T10:42:30Z</time>
      </trkpt>
      <trkpt lat="44.94382" lon="6.09197">
        <ele>2203.8</ele>
        <time>2024-08-14T10:42:31Z</time>
      </trkpt>
      <trkpt lat="44.94382" lon="6.09197">
        <ele>2203.6</ele>
        <time>2024-08-14T10:42:32Z</time>
      </trkpt>
      <trkpt lat="44.94382" lon="6.09197">
        <ele>2203.6</ele>
        <time>2024-08-14T10:42:33Z</time>
      </trkpt>
      <trkpt lat="44.94382" lon="6.09197">
        <ele>2203.8</ele>
        <time>2024-08-14T10:42:34Z</time>
      </trkpt>
      <trkpt lat="44.94382" lon="6.09197">
        <ele>2204.4</ele>
        <time>2024-08-14T10:42:35Z</time>
      </trkpt>
      <trkpt lat="44.94382" lon="6.09197">
        <ele>2204.6</ele>
        <time>2024-08-14T10:42:36Z</time>
      </trkpt>
      <trkpt lat="44.94382" lon="6.09197">
        <ele>2204.6</ele>
        <time>2024-08-14T10:42:37Z</time>
      </trkpt>
      <trkpt lat="44.94382" lon="6.09197">
        <ele>2204.6</ele>
        <time>2024-08-14T10:42:38Z</time>
      </trkpt>
      <trkpt lat="44.94382" lon="6.09197">
        <ele>2204.6</ele>
        <time>2024-08-14T10:42:39Z</time>
      </trkpt>
      <trkpt lat="44.94382" lon="6.09197">
        <ele>2204.6</ele>
        <time>2024-08-14T10:42:40Z</time>
      </trkpt>
      <trkpt lat="44.94382" lon="6.09197">
        <ele>2204.4</ele>
        <time>2024-08-14T10:42:41Z</time>
      </trkpt>
      <trkpt lat="44.94382" lon="6.09197">
        <ele>2204.4</ele>
        <time>2024-08-14T10:42:42Z</time>
      </trkpt>
      <trkpt lat="44.94382" lon="6.09197">
        <ele>2204.6</ele>
        <time>2024-08-14T10:42:43Z</time>
      </trkpt>
      <trkpt lat="44.94382" lon="6.09197">
        <ele>2204.6</ele>
        <time>2024-08-14T10:42:44Z</time>
      </trkpt>
      <trkpt lat="44.94382" lon="6.09197">
        <ele>2204.4</ele>
        <time>2024-08-14T10:42:45Z</time>
      </trkpt>
      <trkpt lat="44.94382" lon="6.09197">
        <ele>2204.4</ele>
        <time>2024-08-14T10:42:46Z</time>
      </trkpt>
      <trkpt lat="44.94382" lon="6.09197">
        <ele>2204.4</ele>
        <time>2024-08-14T10:42:47Z</time>
      </trkpt>
      <trkpt lat="44.94382" lon="6.09197">
        <ele>2204.6</ele>
        <time>2024-08-14T10:42:48Z</time>
      </trkpt>
      <trkpt lat="44.94382" lon="6.09197">
        <ele>2204.6</ele>
        <time>2024-08-14T10:42:49Z</time>
      </trkpt>
      <trkpt lat="44.94382" lon="6.09197">
        <ele>2204.6</ele>
        <time>2024-08-14T10:42:50Z</time>
      </trkpt>
      <trkpt lat="44.94382" lon="6.09197">
        <ele>2204.4</ele>
        <time>2024-08-14T10:42:51Z</time>
      </trkpt>
      <trkpt lat="44.94382" lon="6.09197">
        <ele>2204.4</ele>
        <time>2024-08-14T10:42:52Z</time>
      </trkpt>
      <trkpt lat="44.94382" lon="6.09197">
        <ele>2204.6</ele>
        <time>2024-08-14T10:42:53Z</time>
      </trkpt>
      <trkpt lat="44.94382" lon="6.09197">
        <ele>2204.8</ele>
        <time>2024-08-14T10:42:54Z</time>
      </trkpt>
      <trkpt lat="44.94382" lon="6.09197">
        <ele>2204.8</ele>
        <time>2024-08-14T10:42:55Z</time>
      </trkpt>
      <trkpt lat="44.94382" lon="6.09197">
        <ele>2204.6</ele>
        <time>2024-08-14T10:42:56Z</time>
      </trkpt>
      <trkpt lat="44.94382" lon="6.09197">
        <ele>2204.4</ele>
        <time>2024-08-14T10:42:57Z</time>
      </trkpt>
      <trkpt lat="44.94382" lon="6.09197">
        <ele>2204.4</ele>
        <time>2024-08-14T10:42:58Z</time>
      </trkpt>
      <trkpt lat="44.94382" lon="6.09197">
        <ele>2204.4</ele>
        <time>2024-08-14T10:42:59Z</time>
      </trkpt>
      <trkpt lat="44.94382" lon="6.09197">
        <ele>2204.2</ele>
        <time>2024-08-14T10:43:00Z</time>
      </trkpt>
      <trkpt lat="44.94382" lon="6.09197">
        <ele>2204</ele>
        <time>2024-08-14T10:43:01Z</time>
      </trkpt>
      <trkpt lat="44.94382" lon="6.09197">
        <ele>2203.4</ele>
        <time>2024-08-14T10:43:02Z</time>
      </trkpt>
      <trkpt lat="44.94382" lon="6.09197">
        <ele>2203.4</ele>
        <time>2024-08-14T10:43:03Z</time>
      </trkpt>
      <trkpt lat="44.94382" lon="6.09197">
        <ele>2203.4</ele>
        <time>2024-08-14T10:43:04Z</time>
      </trkpt>
      <trkpt lat="44.94382" lon="6.09197">
        <ele>2203.4</ele>
        <time>2024-08-14T10:43:05Z</time>
      </trkpt>
      <trkpt lat="44.94382" lon="6.09197">
        <ele>2203.4</ele>
        <time>2024-08-14T10:43:06Z</time>
      </trkpt>
      <trkpt lat="44.94382" lon="6.09197">
        <ele>2203.6</ele>
        <time>2024-08-14T10:43:07Z</time>
      </trkpt>
      <trkpt lat="44.94382" lon="6.09197">
        <ele>2203.8</ele>
        <time>2024-08-14T10:43:08Z</time>
      </trkpt>
      <trkpt lat="44.94382" lon="6.09197">
        <ele>2204.2</ele>
        <time>2024-08-14T10:43:09Z</time>
      </trkpt>
      <trkpt lat="44.94382" lon="6.09197">
        <ele>2204.2</ele>
        <time>2024-08-14T10:43:10Z</time>
      </trkpt>
      <trkpt lat="44.94382" lon="6.09197">
        <ele>2204.4</ele>
        <time>2024-08-14T10:43:11Z</time>
      </trkpt>
      <trkpt lat="44.94382" lon="6.09197">
        <ele>2204.4</ele>
        <time>2024-08-14T10:43:12Z</time>
      </trkpt>
      <trkpt lat="44.94382" lon="6.09197">
        <ele>2204.4</ele>
        <time>2024-08-14T10:43:13Z</time>
      </trkpt>
      <trkpt lat="44.94382" lon="6.09197">
        <ele>2204</ele>
        <time>2024-08-14T10:43:14Z</time>
      </trkpt>
      <trkpt lat="44.94382" lon="6.09197">
        <ele>2204</ele>
        <time>2024-08-14T10:43:15Z</time>
      </trkpt>
      <trkpt lat="44.94382" lon="6.09197">
        <ele>2204.2</ele>
        <time>2024-08-14T10:43:16Z</time>
      </trkpt>
      <trkpt lat="44.94382" lon="6.09197">
        <ele>2204.2</ele>
        <time>2024-08-14T10:43:17Z</time>
      </trkpt>
      <trkpt lat="44.94382" lon="6.09197">
        <ele>2204.4</ele>
        <time>2024-08-14T10:43:18Z</time>
      </trkpt>
      <trkpt lat="44.94382" lon="6.09197">
        <ele>2204.6</ele>
        <time>2024-08-14T10:43:19Z</time>
      </trkpt>
      <trkpt lat="44.94382" lon="6.09197">
        <ele>2204.6</ele>
        <time>2024-08-14T10:43:20Z</time>
      </trkpt>
      <trkpt lat="44.94382" lon="6.09197">
        <ele>2204.4</ele>
        <time>2024-08-14T10:43:21Z</time>
      </trkpt>
      <trkpt lat="44.94382" lon="6.09197">
        <ele>2204.2</ele>
        <time>2024-08-14T10:43:22Z</time>
      </trkpt>
      <trkpt lat="44.94382" lon="6.09197">
        <ele>2204.2</ele>
        <time>2024-08-14T10:43:23Z</time>
      </trkpt>
      <trkpt lat="44.94382" lon="6.09197">
        <ele>2204.2</ele>
        <time>2024-08-14T10:43:24Z</time>
      </trkpt>
      <trkpt lat="44.94382" lon="6.09197">
        <ele>2204.2</ele>
        <time>2024-08-14T10:43:25Z</time>
      </trkpt>
      <trkpt lat="44.94382" lon="6.09197">
        <ele>2204</ele>
        <time>2024-08-14T10:43:26Z</time>
      </trkpt>
      <trkpt lat="44.94382" lon="6.09197">
        <ele>2203.8</ele>
        <time>2024-08-14T10:43:27Z</time>
      </trkpt>
      <trkpt lat="44.94382" lon="6.09197">
        <ele>2203.8</ele>
        <time>2024-08-14T10:43:28Z</time>
      </trkpt>
      <trkpt lat="44.94382" lon="6.09197">
        <ele>2204</ele>
        <time>2024-08-14T10:43:29Z</time>
      </trkpt>
      <trkpt lat="44.94382" lon="6.09197">
        <ele>2204.8</ele>
        <time>2024-08-14T10:43:30Z</time>
      </trkpt>
      <trkpt lat="44.94382" lon="6.09197">
        <ele>2204.6</ele>
        <time>2024-08-14T10:43:31Z</time>
      </trkpt>
      <trkpt lat="44.94382" lon="6.09197">
        <ele>2204.4</ele>
        <time>2024-08-14T10:43:32Z</time>
      </trkpt>
      <trkpt lat="44.94382" lon="6.09197">
        <ele>2204.4</ele>
        <time>2024-08-14T10:43:33Z</time>
      </trkpt>
      <trkpt lat="44.94382" lon="6.09197">
        <ele>2204.4</ele>
        <time>2024-08-14T10:43:34Z</time>
      </trkpt>
      <trkpt lat="44.94382" lon="6.09197">
        <ele>2204.4</ele>
        <time>2024-08-14T10:43:35Z</time>
      </trkpt>
      <trkpt lat="44.94382" lon="6.09197">
        <ele>2204.4</ele>
        <time>2024-08-14T10:43:36Z</time>
      </trkpt>
      <trkpt lat="44.94382" lon="6.09197">
        <ele>2204.4</ele>
        <time>2024-08-14T10:43:37Z</time>
      </trkpt>
      <trkpt lat="44.94382" lon="6.09197">
        <ele>2204.4</ele>
        <time>2024-08-14T10:43:38Z</time>
      </trkpt>
      <trkpt lat="44.94382" lon="6.09197">
        <ele>2204.4</ele>
        <time>2024-08-14T10:43:39Z</time>
      </trkpt>
      <trkpt lat="44.94382" lon="6.09197">
        <ele>2204.6</ele>
        <time>2024-08-14T10:43:40Z</time>
      </trkpt>
      <trkpt lat="44.94382" lon="6.09197">
        <ele>2204.6</ele>
        <time>2024-08-14T10:43:41Z</time>
      </trkpt>
      <trkpt lat="44.94382" lon="6.09197">
        <ele>2204.6</ele>
        <time>2024-08-14T10:43:42Z</time>
      </trkpt>
      <trkpt lat="44.94382" lon="6.09197">
        <ele>2204.8</ele>
        <time>2024-08-14T10:43:43Z</time>
      </trkpt>
      <trkpt lat="44.94382" lon="6.09197">
        <ele>2205.2</ele>
        <time>2024-08-14T10:43:44Z</time>
      </trkpt>
      <trkpt lat="44.94382" lon="6.09197">
        <ele>2205.2</ele>
        <time>2024-08-14T10:43:45Z</time>
      </trkpt>
      <trkpt lat="44.94382" lon="6.09197">
        <ele>2205.2</ele>
        <time>2024-08-14T10:43:46Z</time>
      </trkpt>
      <trkpt lat="44.94382" lon="6.09197">
        <ele>2205.2</ele>
        <time>2024-08-14T10:43:47Z</time>
      </trkpt>
      <trkpt lat="44.94382" lon="6.09197">
        <ele>2205.2</ele>
        <time>2024-08-14T10:43:48Z</time>
      </trkpt>
      <trkpt lat="44.94382" lon="6.09197">
        <ele>2205.2</ele>
        <time>2024-08-14T10:43:49Z</time>
      </trkpt>
      <trkpt lat="44.94382" lon="6.09197">
        <ele>2205.2</ele>
        <time>2024-08-14T10:43:50Z</time>
      </trkpt>
      <trkpt lat="44.94382" lon="6.09197">
        <ele>2205.2</ele>
        <time>2024-08-14T10:43:51Z</time>
      </trkpt>
      <trkpt lat="44.94382" lon="6.09197">
        <ele>2205.2</ele>
        <time>2024-08-14T10:43:52Z</time>
      </trkpt>
      <trkpt lat="44.94382" lon="6.09197">
        <ele>2205.2</ele>
        <time>2024-08-14T10:43:53Z</time>
      </trkpt>
      <trkpt lat="44.94382" lon="6.09197">
        <ele>2205.2</ele>
        <time>2024-08-14T10:43:54Z</time>
      </trkpt>
      <trkpt lat="44.94382" lon="6.09197">
        <ele>2205.2</ele>
        <time>2024-08-14T10:43:55Z</time>
      </trkpt>
      <trkpt lat="44.94382" lon="6.09197">
        <ele>2205.4</ele>
        <time>2024-08-14T10:43:56Z</time>
      </trkpt>
      <trkpt lat="44.94382" lon="6.09197">
        <ele>2205.4</ele>
        <time>2024-08-14T10:43:57Z</time>
      </trkpt>
      <trkpt lat="44.94382" lon="6.09197">
        <ele>2205.4</ele>
        <time>2024-08-14T10:43:58Z</time>
      </trkpt>
      <trkpt lat="44.94382" lon="6.09197">
        <ele>2205.4</ele>
        <time>2024-08-14T10:43:59Z</time>
      </trkpt>
      <trkpt lat="44.94382" lon="6.09197">
        <ele>2204.6</ele>
        <time>2024-08-14T10:44:00Z</time>
      </trkpt>
      <trkpt lat="44.94382" lon="6.09197">
        <ele>2204.4</ele>
        <time>2024-08-14T10:44:01Z</time>
      </trkpt>
      <trkpt lat="44.94382" lon="6.09197">
        <ele>2204.4</ele>
        <time>2024-08-14T10:44:02Z</time>
      </trkpt>
      <trkpt lat="44.94382" lon="6.09197">
        <ele>2204.4</ele>
        <time>2024-08-14T10:44:03Z</time>
      </trkpt>
      <trkpt lat="44.94382" lon="6.09197">
        <ele>2204.4</ele>
        <time>2024-08-14T10:44:04Z</time>
      </trkpt>
      <trkpt lat="44.94382" lon="6.09197">
        <ele>2204.4</ele>
        <time>2024-08-14T10:44:05Z</time>
      </trkpt>
      <trkpt lat="44.94382" lon="6.09197">
        <ele>2204.4</ele>
        <time>2024-08-14T10:44:06Z</time>
      </trkpt>
      <trkpt lat="44.94382" lon="6.09197">
        <ele>2204.4</ele>
        <time>2024-08-14T10:44:07Z</time>
      </trkpt>
      <trkpt lat="44.94382" lon="6.09197">
        <ele>2204.4</ele>
        <time>2024-08-14T10:44:08Z</time>
      </trkpt>
      <trkpt lat="44.94382" lon="6.09197">
        <ele>2204.4</ele>
        <time>2024-08-14T10:44:09Z</time>
      </trkpt>
      <trkpt lat="44.94382" lon="6.09197">
        <ele>2204.4</ele>
        <time>2024-08-14T10:44:10Z</time>
      </trkpt>
      <trkpt lat="44.94382" lon="6.09197">
        <ele>2204.4</ele>
        <time>2024-08-14T10:44:11Z</time>
      </trkpt>
      <trkpt lat="44.94382" lon="6.09197">
        <ele>2204.4</ele>
        <time>2024-08-14T10:44:12Z</time>
      </trkpt>
      <trkpt lat="44.94382" lon="6.09197">
        <ele>2204.2</ele>
        <time>2024-08-14T10:44:13Z</time>
      </trkpt>
      <trkpt lat="44.94382" lon="6.09197">
        <ele>2204.2</ele>
        <time>2024-08-14T10:44:14Z</time>
      </trkpt>
      <trkpt lat="44.94382" lon="6.09197">
        <ele>2204.2</ele>
        <time>2024-08-14T10:44:15Z</time>
      </trkpt>
      <trkpt lat="44.94382" lon="6.09197">
        <ele>2204.4</ele>
        <time>2024-08-14T10:44:16Z</time>
      </trkpt>
      <trkpt lat="44.94382" lon="6.09197">
        <ele>2204.2</ele>
        <time>2024-08-14T10:44:17Z</time>
      </trkpt>
      <trkpt lat="44.94382" lon="6.09197">
        <ele>2204.2</ele>
        <time>2024-08-14T10:44:18Z</time>
      </trkpt>
      <trkpt lat="44.94382" lon="6.09197">
        <ele>2204.2</ele>
        <time>2024-08-14T10:44:19Z</time>
      </trkpt>
      <trkpt lat="44.94382" lon="6.09197">
        <ele>2204.2</ele>
        <time>2024-08-14T10:44:20Z</time>
      </trkpt>
      <trkpt lat="44.94382" lon="6.09197">
        <ele>2204.2</ele>
        <time>2024-08-14T10:44:21Z</time>
      </trkpt>
      <trkpt lat="44.94382" lon="6.09197">
        <ele>2204.2</ele>
        <time>2024-08-14T10:44:22Z</time>
      </trkpt>
      <trkpt lat="44.94382" lon="6.09197">
        <ele>2204.2</ele>
        <time>2024-08-14T10:44:23Z</time>
      </trkpt>
      <trkpt lat="44.94382" lon="6.09197">
        <ele>2204.2</ele>
        <time>2024-08-14T10:44:24Z</time>
      </trkpt>
      <trkpt lat="44.94382" lon="6.09197">
        <ele>2204.2</ele>
        <time>2024-08-14T10:44:25Z</time>
      </trkpt>
      <trkpt lat="44.94382" lon="6.09197">
        <ele>2204.2</ele>
        <time>2024-08-14T10:44:26Z</time>
      </trkpt>
      <trkpt lat="44.94382" lon="6.09197">
        <ele>2204.2</ele>
        <time>2024-08-14T10:44:27Z</time>
      </trkpt>
      <trkpt lat="44.94382" lon="6.09197">
        <ele>2204</ele>
        <time>2024-08-14T10:44:28Z</time>
      </trkpt>
      <trkpt lat="44.94382" lon="6.09197">
        <ele>2204</ele>
        <time>2024-08-14T10:44:29Z</time>
      </trkpt>
      <trkpt lat="44.94382" lon="6.09197">
        <ele>2204</ele>
        <time>2024-08-14T10:44:30Z</time>
      </trkpt>
      <trkpt lat="44.94382" lon="6.09197">
        <ele>2204</ele>
        <time>2024-08-14T10:44:31Z</time>
      </trkpt>
      <trkpt lat="44.94382" lon="6.09197">
        <ele>2204</ele>
        <time>2024-08-14T10:44:32Z</time>
      </trkpt>
      <trkpt lat="44.94382" lon="6.09197">
        <ele>2204</ele>
        <time>2024-08-14T10:44:33Z</time>
      </trkpt>
      <trkpt lat="44.94382" lon="6.09197">
        <ele>2204</ele>
        <time>2024-08-14T10:44:34Z</time>
      </trkpt>
      <trkpt lat="44.94382" lon="6.09197">
        <ele>2204</ele>
        <time>2024-08-14T10:44:35Z</time>
      </trkpt>
      <trkpt lat="44.94382" lon="6.09197">
        <ele>2204.2</ele>
        <time>2024-08-14T10:44:36Z</time>
      </trkpt>
      <trkpt lat="44.94382" lon="6.09197">
        <ele>2204.2</ele>
        <time>2024-08-14T10:44:37Z</time>
      </trkpt>
      <trkpt lat="44.94382" lon="6.09197">
        <ele>2204.2</ele>
        <time>2024-08-14T10:44:38Z</time>
      </trkpt>
      <trkpt lat="44.94382" lon="6.09197">
        <ele>2204.2</ele>
        <time>2024-08-14T10:44:39Z</time>
      </trkpt>
      <trkpt lat="44.94382" lon="6.09197">
        <ele>2204.4</ele>
        <time>2024-08-14T10:44:40Z</time>
      </trkpt>
      <trkpt lat="44.94382" lon="6.09197">
        <ele>2204.6</ele>
        <time>2024-08-14T10:44:41Z</time>
      </trkpt>
      <trkpt lat="44.94382" lon="6.09197">
        <ele>2204.6</ele>
        <time>2024-08-14T10:44:42Z</time>
      </trkpt>
      <trkpt lat="44.94382" lon="6.09197">
        <ele>2204.6</ele>
        <time>2024-08-14T10:44:43Z</time>
      </trkpt>
      <trkpt lat="44.94382" lon="6.09197">
        <ele>2204.6</ele>
        <time>2024-08-14T10:44:44Z</time>
      </trkpt>
      <trkpt lat="44.94382" lon="6.09197">
        <ele>2204.8</ele>
        <time>2024-08-14T10:44:45Z</time>
      </trkpt>
      <trkpt lat="44.94382" lon="6.09197">
        <ele>2204.8</ele>
        <time>2024-08-14T10:44:46Z</time>
      </trkpt>
      <trkpt lat="44.94382" lon="6.09197">
        <ele>2204.6</ele>
        <time>2024-08-14T10:44:47Z</time>
      </trkpt>
      <trkpt lat="44.94382" lon="6.09197">
        <ele>2204.6</ele>
        <time>2024-08-14T10:44:48Z</time>
      </trkpt>
      <trkpt lat="44.94382" lon="6.09197">
        <ele>2204.6</ele>
        <time>2024-08-14T10:44:49Z</time>
      </trkpt>
      <trkpt lat="44.94382" lon="6.09197">
        <ele>2204.6</ele>
        <time>2024-08-14T10:44:50Z</time>
      </trkpt>
      <trkpt lat="44.94382" lon="6.09197">
        <ele>2204.4</ele>
        <time>2024-08-14T10:44:51Z</time>
      </trkpt>
      <trkpt lat="44.94382" lon="6.09197">
        <ele>2204.4</ele>
        <time>2024-08-14T10:44:52Z</time>
      </trkpt>
      <trkpt lat="44.94382" lon="6.09197">
        <ele>2204</ele>
        <time>2024-08-14T10:44:53Z</time>
      </trkpt>
      <trkpt lat="44.94382" lon="6.09197">
        <ele>2204</ele>
        <time>2024-08-14T10:44:54Z</time>
      </trkpt>
      <trkpt lat="44.94382" lon="6.09197">
        <ele>2204.2</ele>
        <time>2024-08-14T10:44:55Z</time>
      </trkpt>
      <trkpt lat="44.94382" lon="6.09197">
        <ele>2204.2</ele>
        <time>2024-08-14T10:44:56Z</time>
      </trkpt>
      <trkpt lat="44.94382" lon="6.09197">
        <ele>2204</ele>
        <time>2024-08-14T10:44:57Z</time>
      </trkpt>
      <trkpt lat="44.94384" lon="6.09197">
        <ele>2204</ele>
        <time>2024-08-14T10:44:58Z</time>
      </trkpt>
      <trkpt lat="44.94384" lon="6.09197">
        <ele>2203.8</ele>
        <time>2024-08-14T10:44:59Z</time>
      </trkpt>
      <trkpt lat="44.94385" lon="6.09195">
        <ele>2203.8</ele>
        <time>2024-08-14T10:45:00Z</time>
      </trkpt>
      <trkpt lat="44.94385" lon="6.09195">
        <ele>2203.8</ele>
        <time>2024-08-14T10:45:01Z</time>
      </trkpt>
      <trkpt lat="44.94385" lon="6.09195">
        <ele>2204</ele>
        <time>2024-08-14T10:45:02Z</time>
      </trkpt>
      <trkpt lat="44.94386" lon="6.09193">
        <ele>2204</ele>
        <time>2024-08-14T10:45:03Z</time>
      </trkpt>
      <trkpt lat="44.94386" lon="6.09193">
        <ele>2203.6</ele>
        <time>2024-08-14T10:45:04Z</time>
      </trkpt>
      <trkpt lat="44.94386" lon="6.09193">
        <ele>2203.6</ele>
        <time>2024-08-14T10:45:05Z</time>
      </trkpt>
      <trkpt lat="44.94389" lon="6.09193">
        <ele>2203.6</ele>
        <time>2024-08-14T10:45:06Z</time>
      </trkpt>
      <trkpt lat="44.94389" lon="6.09193">
        <ele>2203.6</ele>
        <time>2024-08-14T10:45:07Z</time>
      </trkpt>
      <trkpt lat="44.94389" lon="6.09193">
        <ele>2203.4</ele>
        <time>2024-08-14T10:45:08Z</time>
      </trkpt>
      <trkpt lat="44.94391" lon="6.09193">
        <ele>2203</ele>
        <time>2024-08-14T10:45:09Z</time>
      </trkpt>
      <trkpt lat="44.94391" lon="6.09193">
        <ele>2203</ele>
        <time>2024-08-14T10:45:10Z</time>
      </trkpt>
      <trkpt lat="44.94393" lon="6.09192">
        <ele>2203</ele>
        <time>2024-08-14T10:45:11Z</time>
      </trkpt>
      <trkpt lat="44.94393" lon="6.09192">
        <ele>2203</ele>
        <time>2024-08-14T10:45:12Z</time>
      </trkpt>
      <trkpt lat="44.94396" lon="6.09192">
        <ele>2202.8</ele>
        <time>2024-08-14T10:45:13Z</time>
      </trkpt>
      <trkpt lat="44.94396" lon="6.09192">
        <ele>2202.6</ele>
        <time>2024-08-14T10:45:14Z</time>
      </trkpt>
      <trkpt lat="44.94398" lon="6.09193">
        <ele>2202.6</ele>
        <time>2024-08-14T10:45:15Z</time>
      </trkpt>
      <trkpt lat="44.94398" lon="6.09193">
        <ele>2202.8</ele>
        <time>2024-08-14T10:45:16Z</time>
      </trkpt>
      <trkpt lat="44.944" lon="6.09195">
        <ele>2202.8</ele>
        <time>2024-08-14T10:45:17Z</time>
      </trkpt>
      <trkpt lat="44.944" lon="6.09195">
        <ele>2202.8</ele>
        <time>2024-08-14T10:45:18Z</time>
      </trkpt>
      <trkpt lat="44.94402" lon="6.09197">
        <ele>2202.6</ele>
        <time>2024-08-14T10:45:19Z</time>
      </trkpt>
      <trkpt lat="44.94402" lon="6.09197">
        <ele>2202.6</ele>
        <time>2024-08-14T10:45:20Z</time>
      </trkpt>
      <trkpt lat="44.94405" lon="6.09198">
        <ele>2202.4</ele>
        <time>2024-08-14T10:45:21Z</time>
      </trkpt>
      <trkpt lat="44.94405" lon="6.09198">
        <ele>2202</ele>
        <time>2024-08-14T10:45:22Z</time>
      </trkpt>
      <trkpt lat="44.94407" lon="6.09199">
        <ele>2201.4</ele>
        <time>2024-08-14T10:45:23Z</time>
      </trkpt>
      <trkpt lat="44.94407" lon="6.09199">
        <ele>2201.4</ele>
        <time>2024-08-14T10:45:24Z</time>
      </trkpt>
      <trkpt lat="44.94409" lon="6.09201">
        <ele>2201.4</ele>
        <time>2024-08-14T10:45:25Z</time>
      </trkpt>
      <trkpt lat="44.94409" lon="6.09201">
        <ele>2201.4</ele>
        <time>2024-08-14T10:45:26Z</time>
      </trkpt>
      <trkpt lat="44.94411" lon="6.09202">
        <ele>2201.4</ele>
        <time>2024-08-14T10:45:27Z</time>
      </trkpt>
      <trkpt lat="44.94411" lon="6.09202">
        <ele>2201.2</ele>
        <time>2024-08-14T10:45:28Z</time>
      </trkpt>
      <trkpt lat="44.94411" lon="6.09202">
        <ele>2201.2</ele>
        <time>2024-08-14T10:45:29Z</time>
      </trkpt>
      <trkpt lat="44.94413" lon="6.09203">
        <ele>2201.2</ele>
        <time>2024-08-14T10:45:30Z</time>
      </trkpt>
      <trkpt lat="44.94413" lon="6.09203">
        <ele>2201.2</ele>
        <time>2024-08-14T10:45:31Z</time>
      </trkpt>
      <trkpt lat="44.94413" lon="6.09203">
        <ele>2201</ele>
        <time>2024-08-14T10:45:32Z</time>
      </trkpt>
      <trkpt lat="44.94416" lon="6.09204">
        <ele>2200.6</ele>
        <time>2024-08-14T10:45:33Z</time>
      </trkpt>
      <trkpt lat="44.94416" lon="6.09204">
        <ele>2200.4</ele>
        <time>2024-08-14T10:45:34Z</time>
      </trkpt>
      <trkpt lat="44.94416" lon="6.09204">
        <ele>2200.2</ele>
        <time>2024-08-14T10:45:35Z</time>
      </trkpt>
      <trkpt lat="44.94418" lon="6.09205">
        <ele>2199.8</ele>
        <time>2024-08-14T10:45:36Z</time>
      </trkpt>
      <trkpt lat="44.94418" lon="6.09205">
        <ele>2199.4</ele>
        <time>2024-08-14T10:45:37Z</time>
      </trkpt>
      <trkpt lat="44.94418" lon="6.09205">
        <ele>2199.2</ele>
        <time>2024-08-14T10:45:38Z</time>
      </trkpt>
      <trkpt lat="44.9442" lon="6.09208">
        <ele>2199</ele>
        <time>2024-08-14T10:45:39Z</time>
      </trkpt>
      <trkpt lat="44.9442" lon="6.09208">
        <ele>2198.6</ele>
        <time>2024-08-14T10:45:40Z</time>
      </trkpt>
      <trkpt lat="44.9442" lon="6.09208">
        <ele>2198.6</ele>
        <time>2024-08-14T10:45:41Z</time>
      </trkpt>
      <trkpt lat="44.9442" lon="6.09211">
        <ele>2198.4</ele>
        <time>2024-08-14T10:45:42Z</time>
      </trkpt>
      <trkpt lat="44.9442" lon="6.09211">
        <ele>2198.2</ele>
        <time>2024-08-14T10:45:43Z</time>
      </trkpt>
      <trkpt lat="44.9442" lon="6.09211">
        <ele>2198</ele>
        <time>2024-08-14T10:45:44Z</time>
      </trkpt>
      <trkpt lat="44.94422" lon="6.09212">
        <ele>2197.8</ele>
        <time>2024-08-14T10:45:45Z</time>
      </trkpt>
      <trkpt lat="44.94422" lon="6.09212">
        <ele>2197.8</ele>
        <time>2024-08-14T10:45:46Z</time>
      </trkpt>
      <trkpt lat="44.94422" lon="6.09212">
        <ele>2197.6</ele>
        <time>2024-08-14T10:45:47Z</time>
      </trkpt>
      <trkpt lat="44.94424" lon="6.09213">
        <ele>2197.6</ele>
        <time>2024-08-14T10:45:48Z</time>
      </trkpt>
      <trkpt lat="44.94424" lon="6.09213">
        <ele>2197.2</ele>
        <time>2024-08-14T10:45:49Z</time>
      </trkpt>
      <trkpt lat="44.94424" lon="6.09213">
        <ele>2197</ele>
        <time>2024-08-14T10:45:50Z</time>
      </trkpt>
      <trkpt lat="44.94425" lon="6.09215">
        <ele>2197</ele>
        <time>2024-08-14T10:45:51Z</time>
      </trkpt>
      <trkpt lat="44.94425" lon="6.09215">
        <ele>2197</ele>
        <time>2024-08-14T10:45:52Z</time>
      </trkpt>
      <trkpt lat="44.94425" lon="6.09215">
        <ele>2196.6</ele>
        <time>2024-08-14T10:45:53Z</time>
      </trkpt>
      <trkpt lat="44.94425" lon="6.09215">
        <ele>2196.4</ele>
        <time>2024-08-14T10:45:54Z</time>
      </trkpt>
      <trkpt lat="44.94425" lon="6.09218">
        <ele>2195.8</ele>
        <time>2024-08-14T10:45:55Z</time>
      </trkpt>
      <trkpt lat="44.94425" lon="6.09218">
        <ele>2195.2</ele>
        <time>2024-08-14T10:45:56Z</time>
      </trkpt>
      <trkpt lat="44.94425" lon="6.09218">
        <ele>2195.2</ele>
        <time>2024-08-14T10:45:57Z</time>
      </trkpt>
      <trkpt lat="44.94425" lon="6.09218">
        <ele>2195</ele>
        <time>2024-08-14T10:45:58Z</time>
      </trkpt>
      <trkpt lat="44.94425" lon="6.09218">
        <ele>2195</ele>
        <time>2024-08-14T10:45:59Z</time>
      </trkpt>
      <trkpt lat="44.94427" lon="6.09219">
        <ele>2195</ele>
        <time>2024-08-14T10:46:00Z</time>
      </trkpt>
      <trkpt lat="44.94427" lon="6.09219">
        <ele>2194.6</ele>
        <time>2024-08-14T10:46:01Z</time>
      </trkpt>
      <trkpt lat="44.94427" lon="6.09219">
        <ele>2194.2</ele>
        <time>2024-08-14T10:46:02Z</time>
      </trkpt>
      <trkpt lat="44.94429" lon="6.0922">
        <ele>2194.2</ele>
        <time>2024-08-14T10:46:03Z</time>
      </trkpt>
      <trkpt lat="44.94429" lon="6.0922">
        <ele>2194</ele>
        <time>2024-08-14T10:46:04Z</time>
      </trkpt>
      <trkpt lat="44.94429" lon="6.0922">
        <ele>2193.8</ele>
        <time>2024-08-14T10:46:05Z</time>
      </trkpt>
      <trkpt lat="44.94431" lon="6.09221">
        <ele>2193.6</ele>
        <time>2024-08-14T10:46:06Z</time>
      </trkpt>
      <trkpt lat="44.94431" lon="6.09221">
        <ele>2193.6</ele>
        <time>2024-08-14T10:46:07Z</time>
      </trkpt>
      <trkpt lat="44.94431" lon="6.09221">
        <ele>2193</ele>
        <time>2024-08-14T10:46:08Z</time>
      </trkpt>
      <trkpt lat="44.94433" lon="6.09221">
        <ele>2192.8</ele>
        <time>2024-08-14T10:46:09Z</time>
      </trkpt>
      <trkpt lat="44.94433" lon="6.09221">
        <ele>2192.6</ele>
        <time>2024-08-14T10:46:10Z</time>
      </trkpt>
      <trkpt lat="44.94433" lon="6.09221">
        <ele>2192.2</ele>
        <time>2024-08-14T10:46:11Z</time>
      </trkpt>
      <trkpt lat="44.94435" lon="6.0922">
        <ele>2192</ele>
        <time>2024-08-14T10:46:12Z</time>
      </trkpt>
      <trkpt lat="44.94435" lon="6.0922">
        <ele>2191.8</ele>
        <time>2024-08-14T10:46:13Z</time>
      </trkpt>
      <trkpt lat="44.94437" lon="6.09221">
        <ele>2191.8</ele>
        <time>2024-08-14T10:46:14Z</time>
      </trkpt>
      <trkpt lat="44.94437" lon="6.09221">
        <ele>2191.6</ele>
        <time>2024-08-14T10:46:15Z</time>
      </trkpt>
      <trkpt lat="44.94437" lon="6.09221">
        <ele>2191.6</ele>
        <time>2024-08-14T10:46:16Z</time>
      </trkpt>
      <trkpt lat="44.94437" lon="6.09221">
        <ele>2191.4</ele>
        <time>2024-08-14T10:46:17Z</time>
      </trkpt>
      <trkpt lat="44.94437" lon="6.09221">
        <ele>2190.8</ele>
        <time>2024-08-14T10:46:18Z</time>
      </trkpt>
      <trkpt lat="44.94439" lon="6.09221">
        <ele>2190.4</ele>
        <time>2024-08-14T10:46:19Z</time>
      </trkpt>
      <trkpt lat="44.94439" lon="6.09221">
        <ele>2190</ele>
        <time>2024-08-14T10:46:20Z</time>
      </trkpt>
      <trkpt lat="44.94442" lon="6.0922">
        <ele>2189.8</ele>
        <time>2024-08-14T10:46:21Z</time>
      </trkpt>
      <trkpt lat="44.94442" lon="6.0922">
        <ele>2189.6</ele>
        <time>2024-08-14T10:46:22Z</time>
      </trkpt>
      <trkpt lat="44.94442" lon="6.0922">
        <ele>2189.4</ele>
        <time>2024-08-14T10:46:23Z</time>
      </trkpt>
      <trkpt lat="44.94444" lon="6.09221">
        <ele>2189.2</ele>
        <time>2024-08-14T10:46:24Z</time>
      </trkpt>
      <trkpt lat="44.94444" lon="6.09221">
        <ele>2189</ele>
        <time>2024-08-14T10:46:25Z</time>
      </trkpt>
      <trkpt lat="44.94444" lon="6.09221">
        <ele>2188.6</ele>
        <time>2024-08-14T10:46:26Z</time>
      </trkpt>
      <trkpt lat="44.94446" lon="6.09221">
        <ele>2188.6</ele>
        <time>2024-08-14T10:46:27Z</time>
      </trkpt>
      <trkpt lat="44.94446" lon="6.09221">
        <ele>2188.4</ele>
        <time>2024-08-14T10:46:28Z</time>
      </trkpt>
      <trkpt lat="44.94448" lon="6.0922">
        <ele>2188.2</ele>
        <time>2024-08-14T10:46:29Z</time>
      </trkpt>
      <trkpt lat="44.94448" lon="6.0922">
        <ele>2188.2</ele>
        <time>2024-08-14T10:46:30Z</time>
      </trkpt>
      <trkpt lat="44.9445" lon="6.09219">
        <ele>2187.8</ele>
        <time>2024-08-14T10:46:31Z</time>
      </trkpt>
      <trkpt lat="44.9445" lon="6.09219">
        <ele>2187.6</ele>
        <time>2024-08-14T10:46:32Z</time>
      </trkpt>
      <trkpt lat="44.9445" lon="6.09219">
        <ele>2187.4</ele>
        <time>2024-08-14T10:46:33Z</time>
      </trkpt>
      <trkpt lat="44.9445" lon="6.09219">
        <ele>2187.2</ele>
        <time>2024-08-14T10:46:34Z</time>
      </trkpt>
      <trkpt lat="44.94452" lon="6.09218">
        <ele>2187</ele>
        <time>2024-08-14T10:46:35Z</time>
      </trkpt>
      <trkpt lat="44.94452" lon="6.09218">
        <ele>2186.8</ele>
        <time>2024-08-14T10:46:36Z</time>
      </trkpt>
      <trkpt lat="44.94452" lon="6.09218">
        <ele>2186.8</ele>
        <time>2024-08-14T10:46:37Z</time>
      </trkpt>
      <trkpt lat="44.94453" lon="6.09218">
        <ele>2186.6</ele>
        <time>2024-08-14T10:46:38Z</time>
      </trkpt>
      <trkpt lat="44.94453" lon="6.09218">
        <ele>2186.6</ele>
        <time>2024-08-14T10:46:39Z</time>
      </trkpt>
      <trkpt lat="44.94453" lon="6.09218">
        <ele>2186.4</ele>
        <time>2024-08-14T10:46:40Z</time>
      </trkpt>
      <trkpt lat="44.94453" lon="6.09218">
        <ele>2186.4</ele>
        <time>2024-08-14T10:46:41Z</time>
      </trkpt>
      <trkpt lat="44.94455" lon="6.09217">
        <ele>2186.2</ele>
        <time>2024-08-14T10:46:42Z</time>
      </trkpt>
      <trkpt lat="44.94455" lon="6.09217">
        <ele>2186</ele>
        <time>2024-08-14T10:46:43Z</time>
      </trkpt>
      <trkpt lat="44.94457" lon="6.09217">
        <ele>2186</ele>
        <time>2024-08-14T10:46:44Z</time>
      </trkpt>
      <trkpt lat="44.94457" lon="6.09217">
        <ele>2186</ele>
        <time>2024-08-14T10:46:45Z</time>
      </trkpt>
      <trkpt lat="44.94457" lon="6.09217">
        <ele>2186</ele>
        <time>2024-08-14T10:46:46Z</time>
      </trkpt>
      <trkpt lat="44.9446" lon="6.09219">
        <ele>2186</ele>
        <time>2024-08-14T10:46:47Z</time>
      </trkpt>
      <trkpt lat="44.9446" lon="6.09219">
        <ele>2186</ele>
        <time>2024-08-14T10:46:48Z</time>
      </trkpt>
      <trkpt lat="44.94461" lon="6.0922">
        <ele>2185.8</ele>
        <time>2024-08-14T10:46:49Z</time>
      </trkpt>
      <trkpt lat="44.94461" lon="6.0922">
        <ele>2185.2</ele>
        <time>2024-08-14T10:46:50Z</time>
      </trkpt>
      <trkpt lat="44.94461" lon="6.0922">
        <ele>2185.2</ele>
        <time>2024-08-14T10:46:51Z</time>
      </trkpt>
      <trkpt lat="44.94463" lon="6.09221">
        <ele>2185</ele>
        <time>2024-08-14T10:46:52Z</time>
      </trkpt>
      <trkpt lat="44.94463" lon="6.09221">
        <ele>2184.6</ele>
        <time>2024-08-14T10:46:53Z</time>
      </trkpt>
      <trkpt lat="44.94463" lon="6.09221">
        <ele>2184.4</ele>
        <time>2024-08-14T10:46:54Z</time>
      </trkpt>
      <trkpt lat="44.94465" lon="6.09223">
        <ele>2184.2</ele>
        <time>2024-08-14T10:46:55Z</time>
      </trkpt>
      <trkpt lat="44.94465" lon="6.09223">
        <ele>2184</ele>
        <time>2024-08-14T10:46:56Z</time>
      </trkpt>
      <trkpt lat="44.94465" lon="6.09223">
        <ele>2184</ele>
        <time>2024-08-14T10:46:57Z</time>
      </trkpt>
      <trkpt lat="44.94465" lon="6.09223">
        <ele>2183.8</ele>
        <time>2024-08-14T10:46:58Z</time>
      </trkpt>
      <trkpt lat="44.94465" lon="6.09223">
        <ele>2183.6</ele>
        <time>2024-08-14T10:46:59Z</time>
      </trkpt>
      <trkpt lat="44.94467" lon="6.09223">
        <ele>2183.6</ele>
        <time>2024-08-14T10:47:00Z</time>
      </trkpt>
      <trkpt lat="44.94467" lon="6.09223">
        <ele>2183.2</ele>
        <time>2024-08-14T10:47:01Z</time>
      </trkpt>
      <trkpt lat="44.94467" lon="6.09223">
        <ele>2183</ele>
        <time>2024-08-14T10:47:02Z</time>
      </trkpt>
      <trkpt lat="44.94469" lon="6.09223">
        <ele>2183</ele>
        <time>2024-08-14T10:47:03Z</time>
      </trkpt>
      <trkpt lat="44.94469" lon="6.09223">
        <ele>2182.6</ele>
        <time>2024-08-14T10:47:04Z</time>
      </trkpt>
      <trkpt lat="44.94469" lon="6.09223">
        <ele>2182.6</ele>
        <time>2024-08-14T10:47:05Z</time>
      </trkpt>
      <trkpt lat="44.94471" lon="6.09224">
        <ele>2182.4</ele>
        <time>2024-08-14T10:47:06Z</time>
      </trkpt>
      <trkpt lat="44.94471" lon="6.09224">
        <ele>2182.2</ele>
        <time>2024-08-14T10:47:07Z</time>
      </trkpt>
      <trkpt lat="44.94471" lon="6.09224">
        <ele>2182</ele>
        <time>2024-08-14T10:47:08Z</time>
      </trkpt>
      <trkpt lat="44.94471" lon="6.09224">
        <ele>2181.8</ele>
        <time>2024-08-14T10:47:09Z</time>
      </trkpt>
      <trkpt lat="44.94474" lon="6.09225">
        <ele>2181.8</ele>
        <time>2024-08-14T10:47:10Z</time>
      </trkpt>
      <trkpt lat="44.94474" lon="6.09225">
        <ele>2181.4</ele>
        <time>2024-08-14T10:47:11Z</time>
      </trkpt>
      <trkpt lat="44.94474" lon="6.09225">
        <ele>2181.4</ele>
        <time>2024-08-14T10:47:12Z</time>
      </trkpt>
      <trkpt lat="44.94476" lon="6.09224">
        <ele>2180.8</ele>
        <time>2024-08-14T10:47:13Z</time>
      </trkpt>
      <trkpt lat="44.94476" lon="6.09224">
        <ele>2180.6</ele>
        <time>2024-08-14T10:47:14Z</time>
      </trkpt>
      <trkpt lat="44.94477" lon="6.09222">
        <ele>2180.4</ele>
        <time>2024-08-14T10:47:15Z</time>
      </trkpt>
      <trkpt lat="44.94477" lon="6.09222">
        <ele>2180</ele>
        <time>2024-08-14T10:47:16Z</time>
      </trkpt>
      <trkpt lat="44.94477" lon="6.09222">
        <ele>2179.8</ele>
        <time>2024-08-14T10:47:17Z</time>
      </trkpt>
      <trkpt lat="44.94477" lon="6.09222">
        <ele>2179.6</ele>
        <time>2024-08-14T10:47:18Z</time>
      </trkpt>
      <trkpt lat="44.9448" lon="6.09222">
        <ele>2179.2</ele>
        <time>2024-08-14T10:47:19Z</time>
      </trkpt>
      <trkpt lat="44.9448" lon="6.09222">
        <ele>2179</ele>
        <time>2024-08-14T10:47:20Z</time>
      </trkpt>
      <trkpt lat="44.94482" lon="6.09222">
        <ele>2179</ele>
        <time>2024-08-14T10:47:21Z</time>
      </trkpt>
      <trkpt lat="44.94482" lon="6.09222">
        <ele>2178.6</ele>
        <time>2024-08-14T10:47:22Z</time>
      </trkpt>
      <trkpt lat="44.94484" lon="6.0922">
        <ele>2178.4</ele>
        <time>2024-08-14T10:47:23Z</time>
      </trkpt>
      <trkpt lat="44.94484" lon="6.0922">
        <ele>2177.8</ele>
        <time>2024-08-14T10:47:24Z</time>
      </trkpt>
      <trkpt lat="44.94485" lon="6.09219">
        <ele>2177.6</ele>
        <time>2024-08-14T10:47:25Z</time>
      </trkpt>
      <trkpt lat="44.94485" lon="6.09219">
        <ele>2177.6</ele>
        <time>2024-08-14T10:47:26Z</time>
      </trkpt>
      <trkpt lat="44.94487" lon="6.0922">
        <ele>2177.6</ele>
        <time>2024-08-14T10:47:27Z</time>
      </trkpt>
      <trkpt lat="44.94487" lon="6.0922">
        <ele>2177.2</ele>
        <time>2024-08-14T10:47:28Z</time>
      </trkpt>
      <trkpt lat="44.94487" lon="6.0922">
        <ele>2177</ele>
        <time>2024-08-14T10:47:29Z</time>
      </trkpt>
      <trkpt lat="44.94489" lon="6.09221">
        <ele>2176.8</ele>
        <time>2024-08-14T10:47:30Z</time>
      </trkpt>
      <trkpt lat="44.94489" lon="6.09221">
        <ele>2176.4</ele>
        <time>2024-08-14T10:47:31Z</time>
      </trkpt>
      <trkpt lat="44.94491" lon="6.09223">
        <ele>2176.2</ele>
        <time>2024-08-14T10:47:32Z</time>
      </trkpt>
      <trkpt lat="44.94491" lon="6.09223">
        <ele>2176</ele>
        <time>2024-08-14T10:47:33Z</time>
      </trkpt>
      <trkpt lat="44.94493" lon="6.09227">
        <ele>2175.8</ele>
        <time>2024-08-14T10:47:34Z</time>
      </trkpt>
      <trkpt lat="44.94493" lon="6.09227">
        <ele>2175.6</ele>
        <time>2024-08-14T10:47:35Z</time>
      </trkpt>
      <trkpt lat="44.94495" lon="6.09228">
        <ele>2175</ele>
        <time>2024-08-14T10:47:36Z</time>
      </trkpt>
      <trkpt lat="44.94495" lon="6.09228">
        <ele>2174.8</ele>
        <time>2024-08-14T10:47:37Z</time>
      </trkpt>
      <trkpt lat="44.94497" lon="6.09229">
        <ele>2174.8</ele>
        <time>2024-08-14T10:47:38Z</time>
      </trkpt>
      <trkpt lat="44.94497" lon="6.09229">
        <ele>2174.2</ele>
        <time>2024-08-14T10:47:39Z</time>
      </trkpt>
      <trkpt lat="44.945" lon="6.0923">
        <ele>2174.2</ele>
        <time>2024-08-14T10:47:40Z</time>
      </trkpt>
      <trkpt lat="44.945" lon="6.0923">
        <ele>2174.2</ele>
        <time>2024-08-14T10:47:41Z</time>
      </trkpt>
      <trkpt lat="44.94502" lon="6.09232">
        <ele>2174.2</ele>
        <time>2024-08-14T10:47:42Z</time>
      </trkpt>
      <trkpt lat="44.94502" lon="6.09232">
        <ele>2174.2</ele>
        <time>2024-08-14T10:47:43Z</time>
      </trkpt>
      <trkpt lat="44.94505" lon="6.09233">
        <ele>2174.2</ele>
        <time>2024-08-14T10:47:44Z</time>
      </trkpt>
      <trkpt lat="44.94505" lon="6.09233">
        <ele>2174.2</ele>
        <time>2024-08-14T10:47:45Z</time>
      </trkpt>
      <trkpt lat="44.94507" lon="6.09236">
        <ele>2174.4</ele>
        <time>2024-08-14T10:47:46Z</time>
      </trkpt>
      <trkpt lat="44.94507" lon="6.09236">
        <ele>2174.4</ele>
        <time>2024-08-14T10:47:47Z</time>
      </trkpt>
      <trkpt lat="44.94509" lon="6.09238">
        <ele>2174.4</ele>
        <time>2024-08-14T10:47:48Z</time>
      </trkpt>
      <trkpt lat="44.94509" lon="6.09238">
        <ele>2174.4</ele>
        <time>2024-08-14T10:47:49Z</time>
      </trkpt>
      <trkpt lat="44.9451" lon="6.09241">
        <ele>2174.2</ele>
        <time>2024-08-14T10:47:50Z</time>
      </trkpt>
      <trkpt lat="44.9451" lon="6.09241">
        <ele>2174</ele>
        <time>2024-08-14T10:47:51Z</time>
      </trkpt>
      <trkpt lat="44.94512" lon="6.09243">
        <ele>2173.6</ele>
        <time>2024-08-14T10:47:52Z</time>
      </trkpt>
      <trkpt lat="44.94512" lon="6.09243">
        <ele>2173.2</ele>
        <time>2024-08-14T10:47:53Z</time>
      </trkpt>
      <trkpt lat="44.94514" lon="6.09245">
        <ele>2172.8</ele>
        <time>2024-08-14T10:47:54Z</time>
      </trkpt>
      <trkpt lat="44.94514" lon="6.09245">
        <ele>2172.8</ele>
        <time>2024-08-14T10:47:55Z</time>
      </trkpt>
      <trkpt lat="44.94515" lon="6.09247">
        <ele>2172.6</ele>
        <time>2024-08-14T10:47:56Z</time>
      </trkpt>
      <trkpt lat="44.94515" lon="6.09247">
        <ele>2172.4</ele>
        <time>2024-08-14T10:47:57Z</time>
      </trkpt>
      <trkpt lat="44.94517" lon="6.0925">
        <ele>2172.2</ele>
        <time>2024-08-14T10:47:58Z</time>
      </trkpt>
      <trkpt lat="44.94517" lon="6.0925">
        <ele>2172.2</ele>
        <time>2024-08-14T10:47:59Z</time>
      </trkpt>
      <trkpt lat="44.94519" lon="6.09252">
        <ele>2172</ele>
        <time>2024-08-14T10:48:00Z</time>
      </trkpt>
      <trkpt lat="44.94519" lon="6.09252">
        <ele>2171.8</ele>
        <time>2024-08-14T10:48:01Z</time>
      </trkpt>
      <trkpt lat="44.94519" lon="6.09252">
        <ele>2171.6</ele>
        <time>2024-08-14T10:48:02Z</time>
      </trkpt>
      <trkpt lat="44.9452" lon="6.09255">
        <ele>2171.6</ele>
        <time>2024-08-14T10:48:03Z</time>
      </trkpt>
      <trkpt lat="44.9452" lon="6.09255">
        <ele>2171.2</ele>
        <time>2024-08-14T10:48:04Z</time>
      </trkpt>
      <trkpt lat="44.94521" lon="6.09258">
        <ele>2171</ele>
        <time>2024-08-14T10:48:05Z</time>
      </trkpt>
      <trkpt lat="44.94521" lon="6.09258">
        <ele>2170.6</ele>
        <time>2024-08-14T10:48:06Z</time>
      </trkpt>
      <trkpt lat="44.94521" lon="6.0926">
        <ele>2170.2</ele>
        <time>2024-08-14T10:48:07Z</time>
      </trkpt>
      <trkpt lat="44.94521" lon="6.0926">
        <ele>2170</ele>
        <time>2024-08-14T10:48:08Z</time>
      </trkpt>
      <trkpt lat="44.94523" lon="6.09262">
        <ele>2169.8</ele>
        <time>2024-08-14T10:48:09Z</time>
      </trkpt>
      <trkpt lat="44.94523" lon="6.09262">
        <ele>2169.6</ele>
        <time>2024-08-14T10:48:10Z</time>
      </trkpt>
      <trkpt lat="44.94525" lon="6.09264">
        <ele>2169.4</ele>
        <time>2024-08-14T10:48:11Z</time>
      </trkpt>
      <trkpt lat="44.94525" lon="6.09264">
        <ele>2169</ele>
        <time>2024-08-14T10:48:12Z</time>
      </trkpt>
      <trkpt lat="44.94525" lon="6.09264">
        <ele>2168.8</ele>
        <time>2024-08-14T10:48:13Z</time>
      </trkpt>
      <trkpt lat="44.94525" lon="6.09267">
        <ele>2168.4</ele>
        <time>2024-08-14T10:48:14Z</time>
      </trkpt>
      <trkpt lat="44.94525" lon="6.09267">
        <ele>2168.4</ele>
        <time>2024-08-14T10:48:15Z</time>
      </trkpt>
      <trkpt lat="44.94525" lon="6.09267">
        <ele>2168</ele>
        <time>2024-08-14T10:48:16Z</time>
      </trkpt>
      <trkpt lat="44.94525" lon="6.09267">
        <ele>2167.8</ele>
        <time>2024-08-14T10:48:17Z</time>
      </trkpt>
      <trkpt lat="44.94525" lon="6.09267">
        <ele>2167.8</ele>
        <time>2024-08-14T10:48:18Z</time>
      </trkpt>
      <trkpt lat="44.94525" lon="6.09267">
        <ele>2167.8</ele>
        <time>2024-08-14T10:48:19Z</time>
      </trkpt>
      <trkpt lat="44.94525" lon="6.09267">
        <ele>2168</ele>
        <time>2024-08-14T10:48:20Z</time>
      </trkpt>
      <trkpt lat="44.94525" lon="6.09267">
        <ele>2168</ele>
        <time>2024-08-14T10:48:21Z</time>
      </trkpt>
      <trkpt lat="44.94526" lon="6.09268">
        <ele>2168</ele>
        <time>2024-08-14T10:48:22Z</time>
      </trkpt>
      <trkpt lat="44.94526" lon="6.09268">
        <ele>2168</ele>
        <time>2024-08-14T10:48:23Z</time>
      </trkpt>
      <trkpt lat="44.94529" lon="6.09271">
        <ele>2167.8</ele>
        <time>2024-08-14T10:48:24Z</time>
      </trkpt>
      <trkpt lat="44.9453" lon="6.09272">
        <ele>2167.4</ele>
        <time>2024-08-14T10:48:25Z</time>
      </trkpt>
      <trkpt lat="44.9453" lon="6.09272">
        <ele>2167</ele>
        <time>2024-08-14T10:48:26Z</time>
      </trkpt>
      <trkpt lat="44.94532" lon="6.09274">
        <ele>2166.8</ele>
        <time>2024-08-14T10:48:27Z</time>
      </trkpt>
      <trkpt lat="44.94532" lon="6.09274">
        <ele>2166.6</ele>
        <time>2024-08-14T10:48:28Z</time>
      </trkpt>
      <trkpt lat="44.94534" lon="6.09277">
        <ele>2166.4</ele>
        <time>2024-08-14T10:48:29Z</time>
      </trkpt>
      <trkpt lat="44.94534" lon="6.09277">
        <ele>2166</ele>
        <time>2024-08-14T10:48:30Z</time>
      </trkpt>
      <trkpt lat="44.94536" lon="6.09278">
        <ele>2165.6</ele>
        <time>2024-08-14T10:48:31Z</time>
      </trkpt>
      <trkpt lat="44.94536" lon="6.09278">
        <ele>2165.4</ele>
        <time>2024-08-14T10:48:32Z</time>
      </trkpt>
      <trkpt lat="44.94539" lon="6.0928">
        <ele>2165.2</ele>
        <time>2024-08-14T10:48:33Z</time>
      </trkpt>
      <trkpt lat="44.94539" lon="6.0928">
        <ele>2164.8</ele>
        <time>2024-08-14T10:48:34Z</time>
      </trkpt>
      <trkpt lat="44.9454" lon="6.09282">
        <ele>2164.6</ele>
        <time>2024-08-14T10:48:35Z</time>
      </trkpt>
      <trkpt lat="44.9454" lon="6.09282">
        <ele>2164.4</ele>
        <time>2024-08-14T10:48:36Z</time>
      </trkpt>
      <trkpt lat="44.94542" lon="6.09284">
        <ele>2164.2</ele>
        <time>2024-08-14T10:48:37Z</time>
      </trkpt>
      <trkpt lat="44.94542" lon="6.09284">
        <ele>2164</ele>
        <time>2024-08-14T10:48:38Z</time>
      </trkpt>
      <trkpt lat="44.94544" lon="6.09285">
        <ele>2163.4</ele>
        <time>2024-08-14T10:48:39Z</time>
      </trkpt>
      <trkpt lat="44.94544" lon="6.09285">
        <ele>2163.4</ele>
        <time>2024-08-14T10:48:40Z</time>
      </trkpt>
      <trkpt lat="44.94547" lon="6.09286">
        <ele>2163.2</ele>
        <time>2024-08-14T10:48:41Z</time>
      </trkpt>
      <trkpt lat="44.94547" lon="6.09286">
        <ele>2163.2</ele>
        <time>2024-08-14T10:48:42Z</time>
      </trkpt>
      <trkpt lat="44.94549" lon="6.09287">
        <ele>2163</ele>
        <time>2024-08-14T10:48:43Z</time>
      </trkpt>
      <trkpt lat="44.94549" lon="6.09287">
        <ele>2162.8</ele>
        <time>2024-08-14T10:48:44Z</time>
      </trkpt>
      <trkpt lat="44.94549" lon="6.09287">
        <ele>2162.6</ele>
        <time>2024-08-14T10:48:45Z</time>
      </trkpt>
      <trkpt lat="44.94551" lon="6.09288">
        <ele>2162.4</ele>
        <time>2024-08-14T10:48:46Z</time>
      </trkpt>
      <trkpt lat="44.94551" lon="6.09288">
        <ele>2162.2</ele>
        <time>2024-08-14T10:48:47Z</time>
      </trkpt>
      <trkpt lat="44.94553" lon="6.09289">
        <ele>2161.6</ele>
        <time>2024-08-14T10:48:48Z</time>
      </trkpt>
      <trkpt lat="44.94553" lon="6.09289">
        <ele>2161.4</ele>
        <time>2024-08-14T10:48:49Z</time>
      </trkpt>
      <trkpt lat="44.94555" lon="6.0929">
        <ele>2161.2</ele>
        <time>2024-08-14T10:48:50Z</time>
      </trkpt>
      <trkpt lat="44.94555" lon="6.0929">
        <ele>2161</ele>
        <time>2024-08-14T10:48:51Z</time>
      </trkpt>
      <trkpt lat="44.94557" lon="6.09291">
        <ele>2160.6</ele>
        <time>2024-08-14T10:48:52Z</time>
      </trkpt>
      <trkpt lat="44.94557" lon="6.09291">
        <ele>2160.2</ele>
        <time>2024-08-14T10:48:53Z</time>
      </trkpt>
      <trkpt lat="44.94559" lon="6.09292">
        <ele>2160.2</ele>
        <time>2024-08-14T10:48:54Z</time>
      </trkpt>
      <trkpt lat="44.94559" lon="6.09292">
        <ele>2160.2</ele>
        <time>2024-08-14T10:48:55Z</time>
      </trkpt>
      <trkpt lat="44.9456" lon="6.09295">
        <ele>2159.8</ele>
        <time>2024-08-14T10:48:56Z</time>
      </trkpt>
      <trkpt lat="44.9456" lon="6.09295">
        <ele>2159.6</ele>
        <time>2024-08-14T10:48:57Z</time>
      </trkpt>
      <trkpt lat="44.9456" lon="6.09298">
        <ele>2159.4</ele>
        <time>2024-08-14T10:48:58Z</time>
      </trkpt>
      <trkpt lat="44.9456" lon="6.09298">
        <ele>2159.2</ele>
        <time>2024-08-14T10:48:59Z</time>
      </trkpt>
      <trkpt lat="44.94561" lon="6.093">
        <ele>2159.2</ele>
        <time>2024-08-14T10:49:00Z</time>
      </trkpt>
      <trkpt lat="44.94561" lon="6.093">
        <ele>2158.8</ele>
        <time>2024-08-14T10:49:01Z</time>
      </trkpt>
      <trkpt lat="44.94563" lon="6.09301">
        <ele>2158.4</ele>
        <time>2024-08-14T10:49:02Z</time>
      </trkpt>
      <trkpt lat="44.94563" lon="6.09301">
        <ele>2158.4</ele>
        <time>2024-08-14T10:49:03Z</time>
      </trkpt>
      <trkpt lat="44.94565" lon="6.09302">
        <ele>2158.2</ele>
        <time>2024-08-14T10:49:04Z</time>
      </trkpt>
      <trkpt lat="44.94565" lon="6.09302">
        <ele>2157.8</ele>
        <time>2024-08-14T10:49:05Z</time>
      </trkpt>
      <trkpt lat="44.94566" lon="6.09304">
        <ele>2157.4</ele>
        <time>2024-08-14T10:49:06Z</time>
      </trkpt>
      <trkpt lat="44.94566" lon="6.09304">
        <ele>2157.2</ele>
        <time>2024-08-14T10:49:07Z</time>
      </trkpt>
      <trkpt lat="44.94567" lon="6.09306">
        <ele>2157</ele>
        <time>2024-08-14T10:49:08Z</time>
      </trkpt>
      <trkpt lat="44.94567" lon="6.09306">
        <ele>2156.6</ele>
        <time>2024-08-14T10:49:09Z</time>
      </trkpt>
      <trkpt lat="44.9457" lon="6.09308">
        <ele>2156.6</ele>
        <time>2024-08-14T10:49:10Z</time>
      </trkpt>
      <trkpt lat="44.9457" lon="6.09308">
        <ele>2156.6</ele>
        <time>2024-08-14T10:49:11Z</time>
      </trkpt>
      <trkpt lat="44.94572" lon="6.09309">
        <ele>2156.2</ele>
        <time>2024-08-14T10:49:12Z</time>
      </trkpt>
      <trkpt lat="44.94572" lon="6.09309">
        <ele>2155.6</ele>
        <time>2024-08-14T10:49:13Z</time>
      </trkpt>
      <trkpt lat="44.94573" lon="6.09312">
        <ele>2155.6</ele>
        <time>2024-08-14T10:49:14Z</time>
      </trkpt>
      <trkpt lat="44.94573" lon="6.09312">
        <ele>2155.6</ele>
        <time>2024-08-14T10:49:15Z</time>
      </trkpt>
      <trkpt lat="44.94575" lon="6.09314">
        <ele>2155.2</ele>
        <time>2024-08-14T10:49:16Z</time>
      </trkpt>
      <trkpt lat="44.94575" lon="6.09314">
        <ele>2155</ele>
        <time>2024-08-14T10:49:17Z</time>
      </trkpt>
      <trkpt lat="44.94578" lon="6.09314">
        <ele>2154.6</ele>
        <time>2024-08-14T10:49:18Z</time>
      </trkpt>
      <trkpt lat="44.94578" lon="6.09314">
        <ele>2154.2</ele>
        <time>2024-08-14T10:49:19Z</time>
      </trkpt>
      <trkpt lat="44.94581" lon="6.09314">
        <ele>2154</ele>
        <time>2024-08-14T10:49:20Z</time>
      </trkpt>
      <trkpt lat="44.94581" lon="6.09314">
        <ele>2153.6</ele>
        <time>2024-08-14T10:49:21Z</time>
      </trkpt>
      <trkpt lat="44.94582" lon="6.09315">
        <ele>2153.6</ele>
        <time>2024-08-14T10:49:22Z</time>
      </trkpt>
      <trkpt lat="44.94582" lon="6.09315">
        <ele>2153.6</ele>
        <time>2024-08-14T10:49:23Z</time>
      </trkpt>
      <trkpt lat="44.94585" lon="6.09314">
        <ele>2153.6</ele>
        <time>2024-08-14T10:49:24Z</time>
      </trkpt>
      <trkpt lat="44.94585" lon="6.09314">
        <ele>2153.8</ele>
        <time>2024-08-14T10:49:25Z</time>
      </trkpt>
      <trkpt lat="44.94587" lon="6.09314">
        <ele>2153.8</ele>
        <time>2024-08-14T10:49:26Z</time>
      </trkpt>
      <trkpt lat="44.94587" lon="6.09314">
        <ele>2153.8</ele>
        <time>2024-08-14T10:49:27Z</time>
      </trkpt>
      <trkpt lat="44.94587" lon="6.09314">
        <ele>2153.6</ele>
        <time>2024-08-14T10:49:28Z</time>
      </trkpt>
      <trkpt lat="44.9459" lon="6.09314">
        <ele>2153.6</ele>
        <time>2024-08-14T10:49:29Z</time>
      </trkpt>
      <trkpt lat="44.9459" lon="6.09314">
        <ele>2153.6</ele>
        <time>2024-08-14T10:49:30Z</time>
      </trkpt>
      <trkpt lat="44.94592" lon="6.09314">
        <ele>2153.6</ele>
        <time>2024-08-14T10:49:31Z</time>
      </trkpt>
      <trkpt lat="44.94592" lon="6.09314">
        <ele>2154</ele>
        <time>2024-08-14T10:49:32Z</time>
      </trkpt>
      <trkpt lat="44.94592" lon="6.09314">
        <ele>2154</ele>
        <time>2024-08-14T10:49:33Z</time>
      </trkpt>
      <trkpt lat="44.94594" lon="6.09315">
        <ele>2153.6</ele>
        <time>2024-08-14T10:49:34Z</time>
      </trkpt>
      <trkpt lat="44.94594" lon="6.09315">
        <ele>2153.6</ele>
        <time>2024-08-14T10:49:35Z</time>
      </trkpt>
      <trkpt lat="44.94596" lon="6.09317">
        <ele>2153.6</ele>
        <time>2024-08-14T10:49:36Z</time>
      </trkpt>
      <trkpt lat="44.94596" lon="6.09317">
        <ele>2153.4</ele>
        <time>2024-08-14T10:49:37Z</time>
      </trkpt>
      <trkpt lat="44.94598" lon="6.09318">
        <ele>2153.4</ele>
        <time>2024-08-14T10:49:38Z</time>
      </trkpt>
      <trkpt lat="44.94598" lon="6.09318">
        <ele>2153.2</ele>
        <time>2024-08-14T10:49:39Z</time>
      </trkpt>
      <trkpt lat="44.94599" lon="6.0932">
        <ele>2153</ele>
        <time>2024-08-14T10:49:40Z</time>
      </trkpt>
      <trkpt lat="44.94599" lon="6.0932">
        <ele>2153</ele>
        <time>2024-08-14T10:49:41Z</time>
      </trkpt>
      <trkpt lat="44.94601" lon="6.09322">
        <ele>2152.8</ele>
        <time>2024-08-14T10:49:42Z</time>
      </trkpt>
      <trkpt lat="44.94601" lon="6.09322">
        <ele>2152.6</ele>
        <time>2024-08-14T10:49:43Z</time>
      </trkpt>
      <trkpt lat="44.94603" lon="6.09324">
        <ele>2152.4</ele>
        <time>2024-08-14T10:49:44Z</time>
      </trkpt>
      <trkpt lat="44.94603" lon="6.09324">
        <ele>2152</ele>
        <time>2024-08-14T10:49:45Z</time>
      </trkpt>
      <trkpt lat="44.94603" lon="6.09324">
        <ele>2152</ele>
        <time>2024-08-14T10:49:46Z</time>
      </trkpt>
      <trkpt lat="44.94605" lon="6.09325">
        <ele>2151.6</ele>
        <time>2024-08-14T10:49:47Z</time>
      </trkpt>
      <trkpt lat="44.94605" lon="6.09325">
        <ele>2151.4</ele>
        <time>2024-08-14T10:49:48Z</time>
      </trkpt>
      <trkpt lat="44.94606" lon="6.09327">
        <ele>2151</ele>
        <time>2024-08-14T10:49:49Z</time>
      </trkpt>
      <trkpt lat="44.94606" lon="6.09327">
        <ele>2150.6</ele>
        <time>2024-08-14T10:49:50Z</time>
      </trkpt>
      <trkpt lat="44.94608" lon="6.09327">
        <ele>2150.2</ele>
        <time>2024-08-14T10:49:51Z</time>
      </trkpt>
      <trkpt lat="44.94608" lon="6.09327">
        <ele>2150</ele>
        <time>2024-08-14T10:49:52Z</time>
      </trkpt>
      <trkpt lat="44.9461" lon="6.09329">
        <ele>2149.8</ele>
        <time>2024-08-14T10:49:53Z</time>
      </trkpt>
      <trkpt lat="44.9461" lon="6.09329">
        <ele>2149.8</ele>
        <time>2024-08-14T10:49:54Z</time>
      </trkpt>
      <trkpt lat="44.9461" lon="6.09329">
        <ele>2149.6</ele>
        <time>2024-08-14T10:49:55Z</time>
      </trkpt>
      <trkpt lat="44.94611" lon="6.09331">
        <ele>2149.4</ele>
        <time>2024-08-14T10:49:56Z</time>
      </trkpt>
      <trkpt lat="44.94611" lon="6.09331">
        <ele>2149.4</ele>
        <time>2024-08-14T10:49:57Z</time>
      </trkpt>
      <trkpt lat="44.94613" lon="6.09333">
        <ele>2149.4</ele>
        <time>2024-08-14T10:49:58Z</time>
      </trkpt>
      <trkpt lat="44.94613" lon="6.09333">
        <ele>2149.2</ele>
        <time>2024-08-14T10:49:59Z</time>
      </trkpt>
      <trkpt lat="44.94613" lon="6.09333">
        <ele>2148.8</ele>
        <time>2024-08-14T10:50:00Z</time>
      </trkpt>
      <trkpt lat="44.94615" lon="6.09335">
        <ele>2148.6</ele>
        <time>2024-08-14T10:50:01Z</time>
      </trkpt>
      <trkpt lat="44.94615" lon="6.09335">
        <ele>2148</ele>
        <time>2024-08-14T10:50:02Z</time>
      </trkpt>
      <trkpt lat="44.94615" lon="6.09335">
        <ele>2148</ele>
        <time>2024-08-14T10:50:03Z</time>
      </trkpt>
      <trkpt lat="44.94618" lon="6.09336">
        <ele>2147.8</ele>
        <time>2024-08-14T10:50:04Z</time>
      </trkpt>
      <trkpt lat="44.94618" lon="6.09336">
        <ele>2147.8</ele>
        <time>2024-08-14T10:50:05Z</time>
      </trkpt>
      <trkpt lat="44.9462" lon="6.09336">
        <ele>2147.8</ele>
        <time>2024-08-14T10:50:06Z</time>
      </trkpt>
      <trkpt lat="44.9462" lon="6.09336">
        <ele>2147.6</ele>
        <time>2024-08-14T10:50:07Z</time>
      </trkpt>
      <trkpt lat="44.9462" lon="6.09336">
        <ele>2147.6</ele>
        <time>2024-08-14T10:50:08Z</time>
      </trkpt>
      <trkpt lat="44.94622" lon="6.09339">
        <ele>2147.4</ele>
        <time>2024-08-14T10:50:09Z</time>
      </trkpt>
      <trkpt lat="44.94622" lon="6.09339">
        <ele>2147.2</ele>
        <time>2024-08-14T10:50:10Z</time>
      </trkpt>
      <trkpt lat="44.94622" lon="6.09339">
        <ele>2147</ele>
        <time>2024-08-14T10:50:11Z</time>
      </trkpt>
      <trkpt lat="44.94624" lon="6.09341">
        <ele>2146.8</ele>
        <time>2024-08-14T10:50:12Z</time>
      </trkpt>
      <trkpt lat="44.94624" lon="6.09341">
        <ele>2146.4</ele>
        <time>2024-08-14T10:50:13Z</time>
      </trkpt>
      <trkpt lat="44.94626" lon="6.09342">
        <ele>2146.4</ele>
        <time>2024-08-14T10:50:14Z</time>
      </trkpt>
      <trkpt lat="44.94626" lon="6.09342">
        <ele>2146.2</ele>
        <time>2024-08-14T10:50:15Z</time>
      </trkpt>
      <trkpt lat="44.94628" lon="6.09342">
        <ele>2146</ele>
        <time>2024-08-14T10:50:16Z</time>
      </trkpt>
      <trkpt lat="44.94628" lon="6.09342">
        <ele>2145.4</ele>
        <time>2024-08-14T10:50:17Z</time>
      </trkpt>
      <trkpt lat="44.94628" lon="6.09342">
        <ele>2145.4</ele>
        <time>2024-08-14T10:50:18Z</time>
      </trkpt>
      <trkpt lat="44.9463" lon="6.09343">
        <ele>2145.2</ele>
        <time>2024-08-14T10:50:19Z</time>
      </trkpt>
      <trkpt lat="44.9463" lon="6.09343">
        <ele>2145.2</ele>
        <time>2024-08-14T10:50:20Z</time>
      </trkpt>
      <trkpt lat="44.9463" lon="6.09343">
        <ele>2145.2</ele>
        <time>2024-08-14T10:50:21Z</time>
      </trkpt>
      <trkpt lat="44.94632" lon="6.09342">
        <ele>2145</ele>
        <time>2024-08-14T10:50:22Z</time>
      </trkpt>
      <trkpt lat="44.94632" lon="6.09342">
        <ele>2144.8</ele>
        <time>2024-08-14T10:50:23Z</time>
      </trkpt>
      <trkpt lat="44.94634" lon="6.09342">
        <ele>2144.6</ele>
        <time>2024-08-14T10:50:24Z</time>
      </trkpt>
      <trkpt lat="44.94634" lon="6.09342">
        <ele>2144.4</ele>
        <time>2024-08-14T10:50:25Z</time>
      </trkpt>
      <trkpt lat="44.94636" lon="6.09343">
        <ele>2144.4</ele>
        <time>2024-08-14T10:50:26Z</time>
      </trkpt>
      <trkpt lat="44.94636" lon="6.09343">
        <ele>2144.2</ele>
        <time>2024-08-14T10:50:27Z</time>
      </trkpt>
      <trkpt lat="44.94638" lon="6.09343">
        <ele>2144</ele>
        <time>2024-08-14T10:50:28Z</time>
      </trkpt>
      <trkpt lat="44.94638" lon="6.09343">
        <ele>2144</ele>
        <time>2024-08-14T10:50:29Z</time>
      </trkpt>
      <trkpt lat="44.9464" lon="6.09344">
        <ele>2144</ele>
        <time>2024-08-14T10:50:30Z</time>
      </trkpt>
      <trkpt lat="44.9464" lon="6.09344">
        <ele>2143.6</ele>
        <time>2024-08-14T10:50:31Z</time>
      </trkpt>
      <trkpt lat="44.94642" lon="6.09344">
        <ele>2143.4</ele>
        <time>2024-08-14T10:50:32Z</time>
      </trkpt>
      <trkpt lat="44.94642" lon="6.09344">
        <ele>2143.2</ele>
        <time>2024-08-14T10:50:33Z</time>
      </trkpt>
      <trkpt lat="44.94644" lon="6.09345">
        <ele>2143</ele>
        <time>2024-08-14T10:50:34Z</time>
      </trkpt>
      <trkpt lat="44.94644" lon="6.09345">
        <ele>2142.8</ele>
        <time>2024-08-14T10:50:35Z</time>
      </trkpt>
      <trkpt lat="44.94646" lon="6.09345">
        <ele>2142.6</ele>
        <time>2024-08-14T10:50:36Z</time>
      </trkpt>
      <trkpt lat="44.94646" lon="6.09345">
        <ele>2142.4</ele>
        <time>2024-08-14T10:50:37Z</time>
      </trkpt>
      <trkpt lat="44.94646" lon="6.09345">
        <ele>2142.2</ele>
        <time>2024-08-14T10:50:38Z</time>
      </trkpt>
      <trkpt lat="44.94646" lon="6.09345">
        <ele>2142</ele>
        <time>2024-08-14T10:50:39Z</time>
      </trkpt>
      <trkpt lat="44.94646" lon="6.09345">
        <ele>2142</ele>
        <time>2024-08-14T10:50:40Z</time>
      </trkpt>
      <trkpt lat="44.94646" lon="6.09345">
        <ele>2142</ele>
        <time>2024-08-14T10:50:41Z</time>
      </trkpt>
      <trkpt lat="44.94646" lon="6.09345">
        <ele>2142</ele>
        <time>2024-08-14T10:50:42Z</time>
      </trkpt>
      <trkpt lat="44.94646" lon="6.09345">
        <ele>2142</ele>
        <time>2024-08-14T10:50:43Z</time>
      </trkpt>
      <trkpt lat="44.94646" lon="6.09345">
        <ele>2142</ele>
        <time>2024-08-14T10:50:44Z</time>
      </trkpt>
      <trkpt lat="44.94646" lon="6.09345">
        <ele>2141.6</ele>
        <time>2024-08-14T10:50:45Z</time>
      </trkpt>
      <trkpt lat="44.94647" lon="6.09344">
        <ele>2141.6</ele>
        <time>2024-08-14T10:50:46Z</time>
      </trkpt>
      <trkpt lat="44.94647" lon="6.09344">
        <ele>2141.6</ele>
        <time>2024-08-14T10:50:47Z</time>
      </trkpt>
      <trkpt lat="44.9465" lon="6.09343">
        <ele>2141.6</ele>
        <time>2024-08-14T10:50:48Z</time>
      </trkpt>
      <trkpt lat="44.9465" lon="6.09343">
        <ele>2141.4</ele>
        <time>2024-08-14T10:50:49Z</time>
      </trkpt>
      <trkpt lat="44.94652" lon="6.09343">
        <ele>2141.2</ele>
        <time>2024-08-14T10:50:50Z</time>
      </trkpt>
      <trkpt lat="44.94652" lon="6.09343">
        <ele>2141.2</ele>
        <time>2024-08-14T10:50:51Z</time>
      </trkpt>
      <trkpt lat="44.94655" lon="6.09345">
        <ele>2141.2</ele>
        <time>2024-08-14T10:50:52Z</time>
      </trkpt>
      <trkpt lat="44.94655" lon="6.09345">
        <ele>2141</ele>
        <time>2024-08-14T10:50:53Z</time>
      </trkpt>
      <trkpt lat="44.94658" lon="6.09344">
        <ele>2140.8</ele>
        <time>2024-08-14T10:50:54Z</time>
      </trkpt>
      <trkpt lat="44.94658" lon="6.09344">
        <ele>2140.6</ele>
        <time>2024-08-14T10:50:55Z</time>
      </trkpt>
      <trkpt lat="44.9466" lon="6.09344">
        <ele>2140.4</ele>
        <time>2024-08-14T10:50:56Z</time>
      </trkpt>
      <trkpt lat="44.9466" lon="6.09344">
        <ele>2140.4</ele>
        <time>2024-08-14T10:50:57Z</time>
      </trkpt>
      <trkpt lat="44.94662" lon="6.09343">
        <ele>2140</ele>
        <time>2024-08-14T10:50:58Z</time>
      </trkpt>
      <trkpt lat="44.94662" lon="6.09343">
        <ele>2139.6</ele>
        <time>2024-08-14T10:50:59Z</time>
      </trkpt>
      <trkpt lat="44.94665" lon="6.09344">
        <ele>2139.6</ele>
        <time>2024-08-14T10:51:00Z</time>
      </trkpt>
      <trkpt lat="44.94665" lon="6.09344">
        <ele>2139.4</ele>
        <time>2024-08-14T10:51:01Z</time>
      </trkpt>
      <trkpt lat="44.94667" lon="6.09344">
        <ele>2139.4</ele>
        <time>2024-08-14T10:51:02Z</time>
      </trkpt>
      <trkpt lat="44.94667" lon="6.09344">
        <ele>2139.4</ele>
        <time>2024-08-14T10:51:03Z</time>
      </trkpt>
      <trkpt lat="44.94669" lon="6.09345">
        <ele>2139.2</ele>
        <time>2024-08-14T10:51:04Z</time>
      </trkpt>
      <trkpt lat="44.94669" lon="6.09345">
        <ele>2138.8</ele>
        <time>2024-08-14T10:51:05Z</time>
      </trkpt>
      <trkpt lat="44.9467" lon="6.09344">
        <ele>2138.4</ele>
        <time>2024-08-14T10:51:06Z</time>
      </trkpt>
      <trkpt lat="44.9467" lon="6.09344">
        <ele>2138.4</ele>
        <time>2024-08-14T10:51:07Z</time>
      </trkpt>
      <trkpt lat="44.94672" lon="6.09342">
        <ele>2138.4</ele>
        <time>2024-08-14T10:51:08Z</time>
      </trkpt>
      <trkpt lat="44.94672" lon="6.09342">
        <ele>2138</ele>
        <time>2024-08-14T10:51:09Z</time>
      </trkpt>
      <trkpt lat="44.94674" lon="6.0934">
        <ele>2137.8</ele>
        <time>2024-08-14T10:51:10Z</time>
      </trkpt>
      <trkpt lat="44.94674" lon="6.0934">
        <ele>2137.6</ele>
        <time>2024-08-14T10:51:11Z</time>
      </trkpt>
      <trkpt lat="44.94676" lon="6.09339">
        <ele>2137.4</ele>
        <time>2024-08-14T10:51:12Z</time>
      </trkpt>
      <trkpt lat="44.94676" lon="6.09339">
        <ele>2137.4</ele>
        <time>2024-08-14T10:51:13Z</time>
      </trkpt>
      <trkpt lat="44.94676" lon="6.09339">
        <ele>2137.2</ele>
        <time>2024-08-14T10:51:14Z</time>
      </trkpt>
      <trkpt lat="44.94678" lon="6.0934">
        <ele>2137</ele>
        <time>2024-08-14T10:51:15Z</time>
      </trkpt>
      <trkpt lat="44.94678" lon="6.0934">
        <ele>2136.8</ele>
        <time>2024-08-14T10:51:16Z</time>
      </trkpt>
      <trkpt lat="44.94681" lon="6.0934">
        <ele>2136.4</ele>
        <time>2024-08-14T10:51:17Z</time>
      </trkpt>
      <trkpt lat="44.94681" lon="6.0934">
        <ele>2136.4</ele>
        <time>2024-08-14T10:51:18Z</time>
      </trkpt>
      <trkpt lat="44.94683" lon="6.0934">
        <ele>2136</ele>
        <time>2024-08-14T10:51:19Z</time>
      </trkpt>
      <trkpt lat="44.94683" lon="6.0934">
        <ele>2135.6</ele>
        <time>2024-08-14T10:51:20Z</time>
      </trkpt>
      <trkpt lat="44.94685" lon="6.09341">
        <ele>2135.2</ele>
        <time>2024-08-14T10:51:21Z</time>
      </trkpt>
      <trkpt lat="44.94685" lon="6.09341">
        <ele>2134.8</ele>
        <time>2024-08-14T10:51:22Z</time>
      </trkpt>
      <trkpt lat="44.94688" lon="6.09342">
        <ele>2134.4</ele>
        <time>2024-08-14T10:51:23Z</time>
      </trkpt>
      <trkpt lat="44.94688" lon="6.09342">
        <ele>2134.2</ele>
        <time>2024-08-14T10:51:24Z</time>
      </trkpt>
      <trkpt lat="44.9469" lon="6.09343">
        <ele>2134.2</ele>
        <time>2024-08-14T10:51:25Z</time>
      </trkpt>
      <trkpt lat="44.9469" lon="6.09343">
        <ele>2134</ele>
        <time>2024-08-14T10:51:26Z</time>
      </trkpt>
      <trkpt lat="44.94693" lon="6.09344">
        <ele>2133.8</ele>
        <time>2024-08-14T10:51:27Z</time>
      </trkpt>
      <trkpt lat="44.94693" lon="6.09344">
        <ele>2133.4</ele>
        <time>2024-08-14T10:51:28Z</time>
      </trkpt>
      <trkpt lat="44.94695" lon="6.09346">
        <ele>2133.2</ele>
        <time>2024-08-14T10:51:29Z</time>
      </trkpt>
      <trkpt lat="44.94695" lon="6.09346">
        <ele>2132.8</ele>
        <time>2024-08-14T10:51:30Z</time>
      </trkpt>
      <trkpt lat="44.94697" lon="6.09348">
        <ele>2132.6</ele>
        <time>2024-08-14T10:51:31Z</time>
      </trkpt>
      <trkpt lat="44.94697" lon="6.09348">
        <ele>2132.4</ele>
        <time>2024-08-14T10:51:32Z</time>
      </trkpt>
      <trkpt lat="44.94699" lon="6.0935">
        <ele>2132.2</ele>
        <time>2024-08-14T10:51:33Z</time>
      </trkpt>
      <trkpt lat="44.94699" lon="6.0935">
        <ele>2131.8</ele>
        <time>2024-08-14T10:51:34Z</time>
      </trkpt>
      <trkpt lat="44.94701" lon="6.09351">
        <ele>2131.6</ele>
        <time>2024-08-14T10:51:35Z</time>
      </trkpt>
      <trkpt lat="44.94701" lon="6.09351">
        <ele>2131.4</ele>
        <time>2024-08-14T10:51:36Z</time>
      </trkpt>
      <trkpt lat="44.94703" lon="6.0935">
        <ele>2131.2</ele>
        <time>2024-08-14T10:51:37Z</time>
      </trkpt>
      <trkpt lat="44.94703" lon="6.0935">
        <ele>2131</ele>
        <time>2024-08-14T10:51:38Z</time>
      </trkpt>
      <trkpt lat="44.94705" lon="6.09347">
        <ele>2130.6</ele>
        <time>2024-08-14T10:51:39Z</time>
      </trkpt>
      <trkpt lat="44.94705" lon="6.09347">
        <ele>2130.4</ele>
        <time>2024-08-14T10:51:40Z</time>
      </trkpt>
      <trkpt lat="44.94707" lon="6.09347">
        <ele>2130.2</ele>
        <time>2024-08-14T10:51:41Z</time>
      </trkpt>
      <trkpt lat="44.94707" lon="6.09347">
        <ele>2130</ele>
        <time>2024-08-14T10:51:42Z</time>
      </trkpt>
      <trkpt lat="44.94709" lon="6.09349">
        <ele>2130</ele>
        <time>2024-08-14T10:51:43Z</time>
      </trkpt>
      <trkpt lat="44.94709" lon="6.09349">
        <ele>2130</ele>
        <time>2024-08-14T10:51:44Z</time>
      </trkpt>
      <trkpt lat="44.94712" lon="6.0935">
        <ele>2130.2</ele>
        <time>2024-08-14T10:51:45Z</time>
      </trkpt>
      <trkpt lat="44.94712" lon="6.0935">
        <ele>2130.2</ele>
        <time>2024-08-14T10:51:46Z</time>
      </trkpt>
      <trkpt lat="44.94714" lon="6.09351">
        <ele>2130</ele>
        <time>2024-08-14T10:51:47Z</time>
      </trkpt>
      <trkpt lat="44.94714" lon="6.09351">
        <ele>2129.6</ele>
        <time>2024-08-14T10:51:48Z</time>
      </trkpt>
      <trkpt lat="44.94716" lon="6.09351">
        <ele>2129.6</ele>
        <time>2024-08-14T10:51:49Z</time>
      </trkpt>
      <trkpt lat="44.94716" lon="6.09351">
        <ele>2129.2</ele>
        <time>2024-08-14T10:51:50Z</time>
      </trkpt>
      <trkpt lat="44.94718" lon="6.0935">
        <ele>2128.8</ele>
        <time>2024-08-14T10:51:51Z</time>
      </trkpt>
      <trkpt lat="44.94718" lon="6.0935">
        <ele>2128.8</ele>
        <time>2024-08-14T10:51:52Z</time>
      </trkpt>
      <trkpt lat="44.94721" lon="6.09349">
        <ele>2128.4</ele>
        <time>2024-08-14T10:51:53Z</time>
      </trkpt>
      <trkpt lat="44.94721" lon="6.09349">
        <ele>2128.2</ele>
        <time>2024-08-14T10:51:54Z</time>
      </trkpt>
      <trkpt lat="44.94724" lon="6.09349">
        <ele>2128</ele>
        <time>2024-08-14T10:51:55Z</time>
      </trkpt>
      <trkpt lat="44.94724" lon="6.09349">
        <ele>2127.8</ele>
        <time>2024-08-14T10:51:56Z</time>
      </trkpt>
      <trkpt lat="44.94726" lon="6.09349">
        <ele>2127.6</ele>
        <time>2024-08-14T10:51:57Z</time>
      </trkpt>
      <trkpt lat="44.94726" lon="6.09349">
        <ele>2127.6</ele>
        <time>2024-08-14T10:51:58Z</time>
      </trkpt>
      <trkpt lat="44.94729" lon="6.0935">
        <ele>2127.6</ele>
        <time>2024-08-14T10:51:59Z</time>
      </trkpt>
      <trkpt lat="44.94729" lon="6.0935">
        <ele>2127.6</ele>
        <time>2024-08-14T10:52:00Z</time>
      </trkpt>
      <trkpt lat="44.94731" lon="6.09352">
        <ele>2127.2</ele>
        <time>2024-08-14T10:52:01Z</time>
      </trkpt>
      <trkpt lat="44.94731" lon="6.09352">
        <ele>2126.8</ele>
        <time>2024-08-14T10:52:02Z</time>
      </trkpt>
      <trkpt lat="44.94734" lon="6.09353">
        <ele>2126.8</ele>
        <time>2024-08-14T10:52:03Z</time>
      </trkpt>
      <trkpt lat="44.94734" lon="6.09353">
        <ele>2126.6</ele>
        <time>2024-08-14T10:52:04Z</time>
      </trkpt>
      <trkpt lat="44.94736" lon="6.09353">
        <ele>2126.6</ele>
        <time>2024-08-14T10:52:05Z</time>
      </trkpt>
      <trkpt lat="44.94736" lon="6.09353">
        <ele>2126.4</ele>
        <time>2024-08-14T10:52:06Z</time>
      </trkpt>
      <trkpt lat="44.94736" lon="6.09353">
        <ele>2126.2</ele>
        <time>2024-08-14T10:52:07Z</time>
      </trkpt>
      <trkpt lat="44.94736" lon="6.09353">
        <ele>2126</ele>
        <time>2024-08-14T10:52:08Z</time>
      </trkpt>
      <trkpt lat="44.94736" lon="6.09353">
        <ele>2126</ele>
        <time>2024-08-14T10:52:09Z</time>
      </trkpt>
      <trkpt lat="44.94736" lon="6.09353">
        <ele>2125.8</ele>
        <time>2024-08-14T10:52:10Z</time>
      </trkpt>
      <trkpt lat="44.94736" lon="6.09353">
        <ele>2125.6</ele>
        <time>2024-08-14T10:52:11Z</time>
      </trkpt>
      <trkpt lat="44.94736" lon="6.09353">
        <ele>2125.6</ele>
        <time>2024-08-14T10:52:12Z</time>
      </trkpt>
      <trkpt lat="44.94736" lon="6.09353">
        <ele>2125.8</ele>
        <time>2024-08-14T10:52:13Z</time>
      </trkpt>
      <trkpt lat="44.94736" lon="6.09353">
        <ele>2125.8</ele>
        <time>2024-08-14T10:52:14Z</time>
      </trkpt>
      <trkpt lat="44.94736" lon="6.09353">
        <ele>2125.8</ele>
        <time>2024-08-14T10:52:15Z</time>
      </trkpt>
      <trkpt lat="44.94736" lon="6.09353">
        <ele>2126</ele>
        <time>2024-08-14T10:52:16Z</time>
      </trkpt>
      <trkpt lat="44.94736" lon="6.09353">
        <ele>2126</ele>
        <time>2024-08-14T10:52:17Z</time>
      </trkpt>
      <trkpt lat="44.94738" lon="6.09355">
        <ele>2125.8</ele>
        <time>2024-08-14T10:52:18Z</time>
      </trkpt>
      <trkpt lat="44.94738" lon="6.09355">
        <ele>2125.8</ele>
        <time>2024-08-14T10:52:19Z</time>
      </trkpt>
      <trkpt lat="44.9474" lon="6.09356">
        <ele>2125.6</ele>
        <time>2024-08-14T10:52:20Z</time>
      </trkpt>
      <trkpt lat="44.9474" lon="6.09356">
        <ele>2125.6</ele>
        <time>2024-08-14T10:52:21Z</time>
      </trkpt>
      <trkpt lat="44.94743" lon="6.09357">
        <ele>2125.6</ele>
        <time>2024-08-14T10:52:22Z</time>
      </trkpt>
      <trkpt lat="44.94743" lon="6.09357">
        <ele>2125.4</ele>
        <time>2024-08-14T10:52:23Z</time>
      </trkpt>
      <trkpt lat="44.94746" lon="6.09359">
        <ele>2125.2</ele>
        <time>2024-08-14T10:52:24Z</time>
      </trkpt>
      <trkpt lat="44.94746" lon="6.09359">
        <ele>2125.2</ele>
        <time>2024-08-14T10:52:25Z</time>
      </trkpt>
      <trkpt lat="44.94749" lon="6.0936">
        <ele>2124.8</ele>
        <time>2024-08-14T10:52:26Z</time>
      </trkpt>
      <trkpt lat="44.94749" lon="6.0936">
        <ele>2124.8</ele>
        <time>2024-08-14T10:52:27Z</time>
      </trkpt>
      <trkpt lat="44.94753" lon="6.0936">
        <ele>2124.8</ele>
        <time>2024-08-14T10:52:28Z</time>
      </trkpt>
      <trkpt lat="44.94753" lon="6.0936">
        <ele>2124.6</ele>
        <time>2024-08-14T10:52:29Z</time>
      </trkpt>
      <trkpt lat="44.94755" lon="6.09362">
        <ele>2124.6</ele>
        <time>2024-08-14T10:52:30Z</time>
      </trkpt>
      <trkpt lat="44.94755" lon="6.09362">
        <ele>2124.6</ele>
        <time>2024-08-14T10:52:31Z</time>
      </trkpt>
      <trkpt lat="44.94757" lon="6.09364">
        <ele>2124.6</ele>
        <time>2024-08-14T10:52:32Z</time>
      </trkpt>
      <trkpt lat="44.94757" lon="6.09364">
        <ele>2124.4</ele>
        <time>2024-08-14T10:52:33Z</time>
      </trkpt>
      <trkpt lat="44.9476" lon="6.09365">
        <ele>2124.2</ele>
        <time>2024-08-14T10:52:34Z</time>
      </trkpt>
      <trkpt lat="44.9476" lon="6.09365">
        <ele>2124.2</ele>
        <time>2024-08-14T10:52:35Z</time>
      </trkpt>
      <trkpt lat="44.94763" lon="6.09366">
        <ele>2124.2</ele>
        <time>2024-08-14T10:52:36Z</time>
      </trkpt>
      <trkpt lat="44.94763" lon="6.09366">
        <ele>2124.2</ele>
        <time>2024-08-14T10:52:37Z</time>
      </trkpt>
      <trkpt lat="44.94765" lon="6.09368">
        <ele>2124</ele>
        <time>2024-08-14T10:52:38Z</time>
      </trkpt>
      <trkpt lat="44.94765" lon="6.09368">
        <ele>2123.8</ele>
        <time>2024-08-14T10:52:39Z</time>
      </trkpt>
      <trkpt lat="44.94768" lon="6.09369">
        <ele>2123.8</ele>
        <time>2024-08-14T10:52:40Z</time>
      </trkpt>
      <trkpt lat="44.94768" lon="6.09369">
        <ele>2123.8</ele>
        <time>2024-08-14T10:52:41Z</time>
      </trkpt>
      <trkpt lat="44.9477" lon="6.0937">
        <ele>2123.6</ele>
        <time>2024-08-14T10:52:42Z</time>
      </trkpt>
      <trkpt lat="44.9477" lon="6.0937">
        <ele>2123.2</ele>
        <time>2024-08-14T10:52:43Z</time>
      </trkpt>
      <trkpt lat="44.94773" lon="6.09371">
        <ele>2123.2</ele>
        <time>2024-08-14T10:52:44Z</time>
      </trkpt>
      <trkpt lat="44.94773" lon="6.09371">
        <ele>2123</ele>
        <time>2024-08-14T10:52:45Z</time>
      </trkpt>
      <trkpt lat="44.94775" lon="6.09372">
        <ele>2123</ele>
        <time>2024-08-14T10:52:46Z</time>
      </trkpt>
      <trkpt lat="44.94775" lon="6.09372">
        <ele>2123</ele>
        <time>2024-08-14T10:52:47Z</time>
      </trkpt>
      <trkpt lat="44.94777" lon="6.09374">
        <ele>2122.8</ele>
        <time>2024-08-14T10:52:48Z</time>
      </trkpt>
      <trkpt lat="44.94777" lon="6.09374">
        <ele>2122.8</ele>
        <time>2024-08-14T10:52:49Z</time>
      </trkpt>
      <trkpt lat="44.94779" lon="6.09375">
        <ele>2122.8</ele>
        <time>2024-08-14T10:52:50Z</time>
      </trkpt>
      <trkpt lat="44.94779" lon="6.09375">
        <ele>2122.6</ele>
        <time>2024-08-14T10:52:51Z</time>
      </trkpt>
      <trkpt lat="44.94782" lon="6.09376">
        <ele>2122.6</ele>
        <time>2024-08-14T10:52:52Z</time>
      </trkpt>
      <trkpt lat="44.94782" lon="6.09376">
        <ele>2122.6</ele>
        <time>2024-08-14T10:52:53Z</time>
      </trkpt>
      <trkpt lat="44.94784" lon="6.09378">
        <ele>2122.8</ele>
        <time>2024-08-14T10:52:54Z</time>
      </trkpt>
      <trkpt lat="44.94784" lon="6.09378">
        <ele>2122.8</ele>
        <time>2024-08-14T10:52:55Z</time>
      </trkpt>
      <trkpt lat="44.94786" lon="6.0938">
        <ele>2122.8</ele>
        <time>2024-08-14T10:52:56Z</time>
      </trkpt>
      <trkpt lat="44.94786" lon="6.0938">
        <ele>2122.8</ele>
        <time>2024-08-14T10:52:57Z</time>
      </trkpt>
      <trkpt lat="44.94788" lon="6.09382">
        <ele>2122.8</ele>
        <time>2024-08-14T10:52:58Z</time>
      </trkpt>
      <trkpt lat="44.94788" lon="6.09382">
        <ele>2122.6</ele>
        <time>2024-08-14T10:52:59Z</time>
      </trkpt>
      <trkpt lat="44.9479" lon="6.09383">
        <ele>2122.6</ele>
        <time>2024-08-14T10:53:00Z</time>
      </trkpt>
      <trkpt lat="44.9479" lon="6.09383">
        <ele>2122.6</ele>
        <time>2024-08-14T10:53:01Z</time>
      </trkpt>
      <trkpt lat="44.94793" lon="6.09384">
        <ele>2122.6</ele>
        <time>2024-08-14T10:53:02Z</time>
      </trkpt>
      <trkpt lat="44.94793" lon="6.09384">
        <ele>2122.6</ele>
        <time>2024-08-14T10:53:03Z</time>
      </trkpt>
      <trkpt lat="44.94795" lon="6.09385">
        <ele>2122.6</ele>
        <time>2024-08-14T10:53:04Z</time>
      </trkpt>
      <trkpt lat="44.94795" lon="6.09385">
        <ele>2122.8</ele>
        <time>2024-08-14T10:53:05Z</time>
      </trkpt>
      <trkpt lat="44.94797" lon="6.09385">
        <ele>2122.8</ele>
        <time>2024-08-14T10:53:06Z</time>
      </trkpt>
      <trkpt lat="44.94797" lon="6.09385">
        <ele>2122.6</ele>
        <time>2024-08-14T10:53:07Z</time>
      </trkpt>
      <trkpt lat="44.94799" lon="6.09386">
        <ele>2122.6</ele>
        <time>2024-08-14T10:53:08Z</time>
      </trkpt>
      <trkpt lat="44.94799" lon="6.09386">
        <ele>2122.6</ele>
        <time>2024-08-14T10:53:09Z</time>
      </trkpt>
      <trkpt lat="44.94802" lon="6.09387">
        <ele>2122.6</ele>
        <time>2024-08-14T10:53:10Z</time>
      </trkpt>
      <trkpt lat="44.94802" lon="6.09387">
        <ele>2122.2</ele>
        <time>2024-08-14T10:53:11Z</time>
      </trkpt>
      <trkpt lat="44.94805" lon="6.09388">
        <ele>2122.2</ele>
        <time>2024-08-14T10:53:12Z</time>
      </trkpt>
      <trkpt lat="44.94805" lon="6.09388">
        <ele>2122.4</ele>
        <time>2024-08-14T10:53:13Z</time>
      </trkpt>
      <trkpt lat="44.94807" lon="6.09388">
        <ele>2122.6</ele>
        <time>2024-08-14T10:53:14Z</time>
      </trkpt>
      <trkpt lat="44.94807" lon="6.09388">
        <ele>2122.6</ele>
        <time>2024-08-14T10:53:15Z</time>
      </trkpt>
      <trkpt lat="44.94809" lon="6.09389">
        <ele>2122.6</ele>
        <time>2024-08-14T10:53:16Z</time>
      </trkpt>
      <trkpt lat="44.94809" lon="6.09389">
        <ele>2122.4</ele>
        <time>2024-08-14T10:53:17Z</time>
      </trkpt>
      <trkpt lat="44.94812" lon="6.09389">
        <ele>2122.4</ele>
        <time>2024-08-14T10:53:18Z</time>
      </trkpt>
      <trkpt lat="44.94812" lon="6.09389">
        <ele>2122.4</ele>
        <time>2024-08-14T10:53:19Z</time>
      </trkpt>
      <trkpt lat="44.94813" lon="6.0939">
        <ele>2122.4</ele>
        <time>2024-08-14T10:53:20Z</time>
      </trkpt>
      <trkpt lat="44.94813" lon="6.0939">
        <ele>2122.4</ele>
        <time>2024-08-14T10:53:21Z</time>
      </trkpt>
      <trkpt lat="44.94813" lon="6.0939">
        <ele>2122.4</ele>
        <time>2024-08-14T10:53:22Z</time>
      </trkpt>
      <trkpt lat="44.94815" lon="6.0939">
        <ele>2122.2</ele>
        <time>2024-08-14T10:53:23Z</time>
      </trkpt>
      <trkpt lat="44.94815" lon="6.0939">
        <ele>2122.2</ele>
        <time>2024-08-14T10:53:24Z</time>
      </trkpt>
      <trkpt lat="44.94815" lon="6.0939">
        <ele>2122.2</ele>
        <time>2024-08-14T10:53:25Z</time>
      </trkpt>
      <trkpt lat="44.94815" lon="6.0939">
        <ele>2122.2</ele>
        <time>2024-08-14T10:53:26Z</time>
      </trkpt>
      <trkpt lat="44.94815" lon="6.0939">
        <ele>2122.2</ele>
        <time>2024-08-14T10:53:27Z</time>
      </trkpt>
      <trkpt lat="44.94815" lon="6.0939">
        <ele>2122.2</ele>
        <time>2024-08-14T10:53:28Z</time>
      </trkpt>
      <trkpt lat="44.94815" lon="6.0939">
        <ele>2122.2</ele>
        <time>2024-08-14T10:53:29Z</time>
      </trkpt>
      <trkpt lat="44.94815" lon="6.0939">
        <ele>2122.2</ele>
        <time>2024-08-14T10:53:30Z</time>
      </trkpt>
      <trkpt lat="44.94815" lon="6.0939">
        <ele>2122.2</ele>
        <time>2024-08-14T10:53:31Z</time>
      </trkpt>
      <trkpt lat="44.94815" lon="6.0939">
        <ele>2122.2</ele>
        <time>2024-08-14T10:53:32Z</time>
      </trkpt>
      <trkpt lat="44.94815" lon="6.0939">
        <ele>2122.2</ele>
        <time>2024-08-14T10:53:33Z</time>
      </trkpt>
      <trkpt lat="44.94815" lon="6.0939">
        <ele>2122.2</ele>
        <time>2024-08-14T10:53:34Z</time>
      </trkpt>
      <trkpt lat="44.94815" lon="6.0939">
        <ele>2122.2</ele>
        <time>2024-08-14T10:53:35Z</time>
      </trkpt>
      <trkpt lat="44.94815" lon="6.0939">
        <ele>2122</ele>
        <time>2024-08-14T10:53:36Z</time>
      </trkpt>
      <trkpt lat="44.94815" lon="6.0939">
        <ele>2122</ele>
        <time>2024-08-14T10:53:37Z</time>
      </trkpt>
      <trkpt lat="44.94815" lon="6.0939">
        <ele>2122</ele>
        <time>2024-08-14T10:53:38Z</time>
      </trkpt>
      <trkpt lat="44.94815" lon="6.0939">
        <ele>2122</ele>
        <time>2024-08-14T10:53:39Z</time>
      </trkpt>
      <trkpt lat="44.94815" lon="6.0939">
        <ele>2122</ele>
        <time>2024-08-14T10:53:40Z</time>
      </trkpt>
      <trkpt lat="44.94815" lon="6.0939">
        <ele>2122</ele>
        <time>2024-08-14T10:53:41Z</time>
      </trkpt>
      <trkpt lat="44.94815" lon="6.0939">
        <ele>2121.8</ele>
        <time>2024-08-14T10:53:42Z</time>
      </trkpt>
      <trkpt lat="44.94815" lon="6.0939">
        <ele>2121.8</ele>
        <time>2024-08-14T10:53:43Z</time>
      </trkpt>
      <trkpt lat="44.94817" lon="6.09389">
        <ele>2121.8</ele>
        <time>2024-08-14T10:53:44Z</time>
      </trkpt>
      <trkpt lat="44.94817" lon="6.09389">
        <ele>2121.6</ele>
        <time>2024-08-14T10:53:45Z</time>
      </trkpt>
      <trkpt lat="44.9482" lon="6.09389">
        <ele>2121.4</ele>
        <time>2024-08-14T10:53:46Z</time>
      </trkpt>
      <trkpt lat="44.9482" lon="6.09389">
        <ele>2121.4</ele>
        <time>2024-08-14T10:53:47Z</time>
      </trkpt>
      <trkpt lat="44.94823" lon="6.0939">
        <ele>2121.4</ele>
        <time>2024-08-14T10:53:48Z</time>
      </trkpt>
      <trkpt lat="44.94823" lon="6.0939">
        <ele>2121.4</ele>
        <time>2024-08-14T10:53:49Z</time>
      </trkpt>
      <trkpt lat="44.94825" lon="6.0939">
        <ele>2121.4</ele>
        <time>2024-08-14T10:53:50Z</time>
      </trkpt>
      <trkpt lat="44.94825" lon="6.0939">
        <ele>2121.4</ele>
        <time>2024-08-14T10:53:51Z</time>
      </trkpt>
      <trkpt lat="44.94828" lon="6.09391">
        <ele>2121.4</ele>
        <time>2024-08-14T10:53:52Z</time>
      </trkpt>
      <trkpt lat="44.94828" lon="6.09391">
        <ele>2121.4</ele>
        <time>2024-08-14T10:53:53Z</time>
      </trkpt>
      <trkpt lat="44.94831" lon="6.09391">
        <ele>2121.4</ele>
        <time>2024-08-14T10:53:54Z</time>
      </trkpt>
      <trkpt lat="44.94831" lon="6.09391">
        <ele>2121.4</ele>
        <time>2024-08-14T10:53:55Z</time>
      </trkpt>
      <trkpt lat="44.94833" lon="6.09391">
        <ele>2121.2</ele>
        <time>2024-08-14T10:53:56Z</time>
      </trkpt>
      <trkpt lat="44.94833" lon="6.09391">
        <ele>2121</ele>
        <time>2024-08-14T10:53:57Z</time>
      </trkpt>
      <trkpt lat="44.94837" lon="6.09391">
        <ele>2120.8</ele>
        <time>2024-08-14T10:53:58Z</time>
      </trkpt>
      <trkpt lat="44.94837" lon="6.09391">
        <ele>2120.8</ele>
        <time>2024-08-14T10:53:59Z</time>
      </trkpt>
      <trkpt lat="44.94839" lon="6.09392">
        <ele>2121</ele>
        <time>2024-08-14T10:54:00Z</time>
      </trkpt>
      <trkpt lat="44.94839" lon="6.09392">
        <ele>2121</ele>
        <time>2024-08-14T10:54:01Z</time>
      </trkpt>
      <trkpt lat="44.94841" lon="6.09392">
        <ele>2120.6</ele>
        <time>2024-08-14T10:54:02Z</time>
      </trkpt>
      <trkpt lat="44.94841" lon="6.09392">
        <ele>2120.6</ele>
        <time>2024-08-14T10:54:03Z</time>
      </trkpt>
      <trkpt lat="44.94844" lon="6.09394">
        <ele>2120.2</ele>
        <time>2024-08-14T10:54:04Z</time>
      </trkpt>
      <trkpt lat="44.94844" lon="6.09394">
        <ele>2120</ele>
        <time>2024-08-14T10:54:05Z</time>
      </trkpt>
      <trkpt lat="44.94846" lon="6.09395">
        <ele>2120</ele>
        <time>2024-08-14T10:54:06Z</time>
      </trkpt>
      <trkpt lat="44.94846" lon="6.09395">
        <ele>2120</ele>
        <time>2024-08-14T10:54:07Z</time>
      </trkpt>
      <trkpt lat="44.94848" lon="6.09397">
        <ele>2120</ele>
        <time>2024-08-14T10:54:08Z</time>
      </trkpt>
      <trkpt lat="44.94848" lon="6.09397">
        <ele>2120</ele>
        <time>2024-08-14T10:54:09Z</time>
      </trkpt>
      <trkpt lat="44.94851" lon="6.09399">
        <ele>2120</ele>
        <time>2024-08-14T10:54:10Z</time>
      </trkpt>
      <trkpt lat="44.94851" lon="6.09399">
        <ele>2119.8</ele>
        <time>2024-08-14T10:54:11Z</time>
      </trkpt>
      <trkpt lat="44.94853" lon="6.09401">
        <ele>2119.8</ele>
        <time>2024-08-14T10:54:12Z</time>
      </trkpt>
      <trkpt lat="44.94853" lon="6.09401">
        <ele>2119.6</ele>
        <time>2024-08-14T10:54:13Z</time>
      </trkpt>
      <trkpt lat="44.94855" lon="6.09402">
        <ele>2119.6</ele>
        <time>2024-08-14T10:54:14Z</time>
      </trkpt>
      <trkpt lat="44.94855" lon="6.09402">
        <ele>2119.6</ele>
        <time>2024-08-14T10:54:15Z</time>
      </trkpt>
      <trkpt lat="44.94858" lon="6.09404">
        <ele>2119.6</ele>
        <time>2024-08-14T10:54:16Z</time>
      </trkpt>
      <trkpt lat="44.94858" lon="6.09404">
        <ele>2119.4</ele>
        <time>2024-08-14T10:54:17Z</time>
      </trkpt>
      <trkpt lat="44.94861" lon="6.09405">
        <ele>2119.2</ele>
        <time>2024-08-14T10:54:18Z</time>
      </trkpt>
      <trkpt lat="44.94861" lon="6.09405">
        <ele>2119.2</ele>
        <time>2024-08-14T10:54:19Z</time>
      </trkpt>
      <trkpt lat="44.94863" lon="6.09406">
        <ele>2119</ele>
        <time>2024-08-14T10:54:20Z</time>
      </trkpt>
      <trkpt lat="44.94863" lon="6.09406">
        <ele>2119</ele>
        <time>2024-08-14T10:54:21Z</time>
      </trkpt>
      <trkpt lat="44.94866" lon="6.09407">
        <ele>2119</ele>
        <time>2024-08-14T10:54:22Z</time>
      </trkpt>
      <trkpt lat="44.94866" lon="6.09407">
        <ele>2118.8</ele>
        <time>2024-08-14T10:54:23Z</time>
      </trkpt>
      <trkpt lat="44.94869" lon="6.09408">
        <ele>2118.8</ele>
        <time>2024-08-14T10:54:24Z</time>
      </trkpt>
      <trkpt lat="44.94869" lon="6.09408">
        <ele>2118.6</ele>
        <time>2024-08-14T10:54:25Z</time>
      </trkpt>
      <trkpt lat="44.94872" lon="6.09409">
        <ele>2118.6</ele>
        <time>2024-08-14T10:54:26Z</time>
      </trkpt>
      <trkpt lat="44.94872" lon="6.09409">
        <ele>2118.4</ele>
        <time>2024-08-14T10:54:27Z</time>
      </trkpt>
      <trkpt lat="44.94874" lon="6.09409">
        <ele>2118.4</ele>
        <time>2024-08-14T10:54:28Z</time>
      </trkpt>
      <trkpt lat="44.94874" lon="6.09409">
        <ele>2118.2</ele>
        <time>2024-08-14T10:54:29Z</time>
      </trkpt>
      <trkpt lat="44.94877" lon="6.09411">
        <ele>2118.2</ele>
        <time>2024-08-14T10:54:30Z</time>
      </trkpt>
      <trkpt lat="44.94877" lon="6.09411">
        <ele>2118.2</ele>
        <time>2024-08-14T10:54:31Z</time>
      </trkpt>
      <trkpt lat="44.9488" lon="6.09412">
        <ele>2118.2</ele>
        <time>2024-08-14T10:54:32Z</time>
      </trkpt>
      <trkpt lat="44.9488" lon="6.09412">
        <ele>2118.2</ele>
        <time>2024-08-14T10:54:33Z</time>
      </trkpt>
      <trkpt lat="44.94882" lon="6.09414">
        <ele>2118.2</ele>
        <time>2024-08-14T10:54:34Z</time>
      </trkpt>
      <trkpt lat="44.94882" lon="6.09414">
        <ele>2118</ele>
        <time>2024-08-14T10:54:35Z</time>
      </trkpt>
      <trkpt lat="44.94885" lon="6.09416">
        <ele>2118</ele>
        <time>2024-08-14T10:54:36Z</time>
      </trkpt>
      <trkpt lat="44.94885" lon="6.09416">
        <ele>2117.8</ele>
        <time>2024-08-14T10:54:37Z</time>
      </trkpt>
      <trkpt lat="44.94887" lon="6.09417">
        <ele>2117.8</ele>
        <time>2024-08-14T10:54:38Z</time>
      </trkpt>
      <trkpt lat="44.94887" lon="6.09417">
        <ele>2117.6</ele>
        <time>2024-08-14T10:54:39Z</time>
      </trkpt>
      <trkpt lat="44.94889" lon="6.09418">
        <ele>2117.6</ele>
        <time>2024-08-14T10:54:40Z</time>
      </trkpt>
      <trkpt lat="44.94889" lon="6.09418">
        <ele>2117.6</ele>
        <time>2024-08-14T10:54:41Z</time>
      </trkpt>
      <trkpt lat="44.94892" lon="6.09419">
        <ele>2117.4</ele>
        <time>2024-08-14T10:54:42Z</time>
      </trkpt>
      <trkpt lat="44.94892" lon="6.09419">
        <ele>2117.2</ele>
        <time>2024-08-14T10:54:43Z</time>
      </trkpt>
      <trkpt lat="44.94894" lon="6.0942">
        <ele>2117.2</ele>
        <time>2024-08-14T10:54:44Z</time>
      </trkpt>
      <trkpt lat="44.94894" lon="6.0942">
        <ele>2117</ele>
        <time>2024-08-14T10:54:45Z</time>
      </trkpt>
      <trkpt lat="44.94896" lon="6.0942">
        <ele>2116.8</ele>
        <time>2024-08-14T10:54:46Z</time>
      </trkpt>
      <trkpt lat="44.94896" lon="6.0942">
        <ele>2116.8</ele>
        <time>2024-08-14T10:54:47Z</time>
      </trkpt>
      <trkpt lat="44.94898" lon="6.09421">
        <ele>2116.6</ele>
        <time>2024-08-14T10:54:48Z</time>
      </trkpt>
      <trkpt lat="44.94898" lon="6.09421">
        <ele>2116.2</ele>
        <time>2024-08-14T10:54:49Z</time>
      </trkpt>
      <trkpt lat="44.94901" lon="6.09422">
        <ele>2116</ele>
        <time>2024-08-14T10:54:50Z</time>
      </trkpt>
      <trkpt lat="44.94901" lon="6.09422">
        <ele>2115.8</ele>
        <time>2024-08-14T10:54:51Z</time>
      </trkpt>
      <trkpt lat="44.94902" lon="6.09425">
        <ele>2115.6</ele>
        <time>2024-08-14T10:54:52Z</time>
      </trkpt>
      <trkpt lat="44.94902" lon="6.09425">
        <ele>2115</ele>
        <time>2024-08-14T10:54:53Z</time>
      </trkpt>
      <trkpt lat="44.94904" lon="6.09428">
        <ele>2114.4</ele>
        <time>2024-08-14T10:54:54Z</time>
      </trkpt>
      <trkpt lat="44.94904" lon="6.09428">
        <ele>2114.4</ele>
        <time>2024-08-14T10:54:55Z</time>
      </trkpt>
      <trkpt lat="44.94907" lon="6.0943">
        <ele>2114.4</ele>
        <time>2024-08-14T10:54:56Z</time>
      </trkpt>
      <trkpt lat="44.94907" lon="6.0943">
        <ele>2114.2</ele>
        <time>2024-08-14T10:54:57Z</time>
      </trkpt>
      <trkpt lat="44.94909" lon="6.09432">
        <ele>2114.2</ele>
        <time>2024-08-14T10:54:58Z</time>
      </trkpt>
      <trkpt lat="44.94909" lon="6.09432">
        <ele>2114</ele>
        <time>2024-08-14T10:54:59Z</time>
      </trkpt>
      <trkpt lat="44.9491" lon="6.09435">
        <ele>2113.8</ele>
        <time>2024-08-14T10:55:00Z</time>
      </trkpt>
      <trkpt lat="44.9491" lon="6.09435">
        <ele>2113.8</ele>
        <time>2024-08-14T10:55:01Z</time>
      </trkpt>
      <trkpt lat="44.94913" lon="6.09437">
        <ele>2113.8</ele>
        <time>2024-08-14T10:55:02Z</time>
      </trkpt>
      <trkpt lat="44.94913" lon="6.09437">
        <ele>2113.8</ele>
        <time>2024-08-14T10:55:03Z</time>
      </trkpt>
      <trkpt lat="44.94915" lon="6.09438">
        <ele>2113.4</ele>
        <time>2024-08-14T10:55:04Z</time>
      </trkpt>
      <trkpt lat="44.94915" lon="6.09438">
        <ele>2113.2</ele>
        <time>2024-08-14T10:55:05Z</time>
      </trkpt>
      <trkpt lat="44.94918" lon="6.0944">
        <ele>2113.2</ele>
        <time>2024-08-14T10:55:06Z</time>
      </trkpt>
      <trkpt lat="44.94918" lon="6.0944">
        <ele>2113</ele>
        <time>2024-08-14T10:55:07Z</time>
      </trkpt>
      <trkpt lat="44.9492" lon="6.09442">
        <ele>2113</ele>
        <time>2024-08-14T10:55:08Z</time>
      </trkpt>
      <trkpt lat="44.9492" lon="6.09442">
        <ele>2113</ele>
        <time>2024-08-14T10:55:09Z</time>
      </trkpt>
      <trkpt lat="44.94922" lon="6.09445">
        <ele>2113</ele>
        <time>2024-08-14T10:55:10Z</time>
      </trkpt>
      <trkpt lat="44.94922" lon="6.09445">
        <ele>2112.6</ele>
        <time>2024-08-14T10:55:11Z</time>
      </trkpt>
      <trkpt lat="44.94923" lon="6.09448">
        <ele>2112.6</ele>
        <time>2024-08-14T10:55:12Z</time>
      </trkpt>
      <trkpt lat="44.94923" lon="6.09448">
        <ele>2112.6</ele>
        <time>2024-08-14T10:55:13Z</time>
      </trkpt>
      <trkpt lat="44.94924" lon="6.0945">
        <ele>2112.6</ele>
        <time>2024-08-14T10:55:14Z</time>
      </trkpt>
      <trkpt lat="44.94924" lon="6.0945">
        <ele>2112.6</ele>
        <time>2024-08-14T10:55:15Z</time>
      </trkpt>
      <trkpt lat="44.94926" lon="6.09451">
        <ele>2112.6</ele>
        <time>2024-08-14T10:55:16Z</time>
      </trkpt>
      <trkpt lat="44.94926" lon="6.09451">
        <ele>2112.6</ele>
        <time>2024-08-14T10:55:17Z</time>
      </trkpt>
      <trkpt lat="44.94929" lon="6.09451">
        <ele>2112.6</ele>
        <time>2024-08-14T10:55:18Z</time>
      </trkpt>
      <trkpt lat="44.94929" lon="6.09451">
        <ele>2112.4</ele>
        <time>2024-08-14T10:55:19Z</time>
      </trkpt>
      <trkpt lat="44.94932" lon="6.09453">
        <ele>2112.4</ele>
        <time>2024-08-14T10:55:20Z</time>
      </trkpt>
      <trkpt lat="44.94932" lon="6.09453">
        <ele>2112.4</ele>
        <time>2024-08-14T10:55:21Z</time>
      </trkpt>
      <trkpt lat="44.94934" lon="6.09454">
        <ele>2112.4</ele>
        <time>2024-08-14T10:55:22Z</time>
      </trkpt>
      <trkpt lat="44.94934" lon="6.09454">
        <ele>2112.4</ele>
        <time>2024-08-14T10:55:23Z</time>
      </trkpt>
      <trkpt lat="44.94936" lon="6.09455">
        <ele>2112</ele>
        <time>2024-08-14T10:55:24Z</time>
      </trkpt>
      <trkpt lat="44.94936" lon="6.09455">
        <ele>2111.6</ele>
        <time>2024-08-14T10:55:25Z</time>
      </trkpt>
      <trkpt lat="44.94939" lon="6.09456">
        <ele>2111.6</ele>
        <time>2024-08-14T10:55:26Z</time>
      </trkpt>
      <trkpt lat="44.94939" lon="6.09456">
        <ele>2111.6</ele>
        <time>2024-08-14T10:55:27Z</time>
      </trkpt>
      <trkpt lat="44.94942" lon="6.09456">
        <ele>2111.4</ele>
        <time>2024-08-14T10:55:28Z</time>
      </trkpt>
      <trkpt lat="44.94942" lon="6.09456">
        <ele>2111.4</ele>
        <time>2024-08-14T10:55:29Z</time>
      </trkpt>
      <trkpt lat="44.94945" lon="6.09455">
        <ele>2111.4</ele>
        <time>2024-08-14T10:55:30Z</time>
      </trkpt>
      <trkpt lat="44.94945" lon="6.09455">
        <ele>2111.6</ele>
        <time>2024-08-14T10:55:31Z</time>
      </trkpt>
      <trkpt lat="44.94948" lon="6.09455">
        <ele>2111.6</ele>
        <time>2024-08-14T10:55:32Z</time>
      </trkpt>
      <trkpt lat="44.94949" lon="6.09455">
        <ele>2111.6</ele>
        <time>2024-08-14T10:55:33Z</time>
      </trkpt>
      <trkpt lat="44.94949" lon="6.09455">
        <ele>2111.4</ele>
        <time>2024-08-14T10:55:34Z</time>
      </trkpt>
      <trkpt lat="44.94952" lon="6.09455">
        <ele>2111.4</ele>
        <time>2024-08-14T10:55:35Z</time>
      </trkpt>
      <trkpt lat="44.94952" lon="6.09455">
        <ele>2111.4</ele>
        <time>2024-08-14T10:55:36Z</time>
      </trkpt>
      <trkpt lat="44.94956" lon="6.09455">
        <ele>2111.4</ele>
        <time>2024-08-14T10:55:37Z</time>
      </trkpt>
      <trkpt lat="44.94956" lon="6.09455">
        <ele>2111.4</ele>
        <time>2024-08-14T10:55:38Z</time>
      </trkpt>
      <trkpt lat="44.94958" lon="6.09456">
        <ele>2111.2</ele>
        <time>2024-08-14T10:55:39Z</time>
      </trkpt>
      <trkpt lat="44.94958" lon="6.09456">
        <ele>2111.2</ele>
        <time>2024-08-14T10:55:40Z</time>
      </trkpt>
      <trkpt lat="44.94961" lon="6.09457">
        <ele>2111.2</ele>
        <time>2024-08-14T10:55:41Z</time>
      </trkpt>
      <trkpt lat="44.94961" lon="6.09457">
        <ele>2111.2</ele>
        <time>2024-08-14T10:55:42Z</time>
      </trkpt>
      <trkpt lat="44.94964" lon="6.09457">
        <ele>2111.2</ele>
        <time>2024-08-14T10:55:43Z</time>
      </trkpt>
      <trkpt lat="44.94964" lon="6.09457">
        <ele>2111.2</ele>
        <time>2024-08-14T10:55:44Z</time>
      </trkpt>
      <trkpt lat="44.94967" lon="6.09457">
        <ele>2111.2</ele>
        <time>2024-08-14T10:55:45Z</time>
      </trkpt>
      <trkpt lat="44.94967" lon="6.09457">
        <ele>2111</ele>
        <time>2024-08-14T10:55:46Z</time>
      </trkpt>
      <trkpt lat="44.9497" lon="6.09457">
        <ele>2110.8</ele>
        <time>2024-08-14T10:55:47Z</time>
      </trkpt>
      <trkpt lat="44.9497" lon="6.09457">
        <ele>2110.6</ele>
        <time>2024-08-14T10:55:48Z</time>
      </trkpt>
      <trkpt lat="44.94972" lon="6.09457">
        <ele>2110.6</ele>
        <time>2024-08-14T10:55:49Z</time>
      </trkpt>
      <trkpt lat="44.94972" lon="6.09457">
        <ele>2110.6</ele>
        <time>2024-08-14T10:55:50Z</time>
      </trkpt>
      <trkpt lat="44.94974" lon="6.09456">
        <ele>2110.4</ele>
        <time>2024-08-14T10:55:51Z</time>
      </trkpt>
      <trkpt lat="44.94974" lon="6.09456">
        <ele>2110.4</ele>
        <time>2024-08-14T10:55:52Z</time>
      </trkpt>
      <trkpt lat="44.94976" lon="6.09454">
        <ele>2110.2</ele>
        <time>2024-08-14T10:55:53Z</time>
      </trkpt>
      <trkpt lat="44.94976" lon="6.09454">
        <ele>2110</ele>
        <time>2024-08-14T10:55:54Z</time>
      </trkpt>
      <trkpt lat="44.94978" lon="6.09455">
        <ele>2110</ele>
        <time>2024-08-14T10:55:55Z</time>
      </trkpt>
      <trkpt lat="44.94978" lon="6.09455">
        <ele>2110</ele>
        <time>2024-08-14T10:55:56Z</time>
      </trkpt>
      <trkpt lat="44.9498" lon="6.09457">
        <ele>2110</ele>
        <time>2024-08-14T10:55:57Z</time>
      </trkpt>
      <trkpt lat="44.9498" lon="6.09457">
        <ele>2110.2</ele>
        <time>2024-08-14T10:55:58Z</time>
      </trkpt>
      <trkpt lat="44.94982" lon="6.09458">
        <ele>2110.2</ele>
        <time>2024-08-14T10:55:59Z</time>
      </trkpt>
      <trkpt lat="44.94982" lon="6.09458">
        <ele>2110</ele>
        <time>2024-08-14T10:56:00Z</time>
      </trkpt>
      <trkpt lat="44.94985" lon="6.09459">
        <ele>2110.2</ele>
        <time>2024-08-14T10:56:01Z</time>
      </trkpt>
      <trkpt lat="44.94985" lon="6.09459">
        <ele>2110.2</ele>
        <time>2024-08-14T10:56:02Z</time>
      </trkpt>
      <trkpt lat="44.94988" lon="6.0946">
        <ele>2110.2</ele>
        <time>2024-08-14T10:56:03Z</time>
      </trkpt>
      <trkpt lat="44.94988" lon="6.0946">
        <ele>2110.2</ele>
        <time>2024-08-14T10:56:04Z</time>
      </trkpt>
      <trkpt lat="44.9499" lon="6.09461">
        <ele>2110.2</ele>
        <time>2024-08-14T10:56:05Z</time>
      </trkpt>
      <trkpt lat="44.9499" lon="6.09461">
        <ele>2110</ele>
        <time>2024-08-14T10:56:06Z</time>
      </trkpt>
      <trkpt lat="44.94992" lon="6.09462">
        <ele>2110</ele>
        <time>2024-08-14T10:56:07Z</time>
      </trkpt>
      <trkpt lat="44.94992" lon="6.09462">
        <ele>2110</ele>
        <time>2024-08-14T10:56:08Z</time>
      </trkpt>
      <trkpt lat="44.94994" lon="6.09464">
        <ele>2110</ele>
        <time>2024-08-14T10:56:09Z</time>
      </trkpt>
      <trkpt lat="44.94994" lon="6.09464">
        <ele>2110.2</ele>
        <time>2024-08-14T10:56:10Z</time>
      </trkpt>
      <trkpt lat="44.94996" lon="6.09466">
        <ele>2110.2</ele>
        <time>2024-08-14T10:56:11Z</time>
      </trkpt>
      <trkpt lat="44.94996" lon="6.09466">
        <ele>2109.8</ele>
        <time>2024-08-14T10:56:12Z</time>
      </trkpt>
      <trkpt lat="44.94998" lon="6.09469">
        <ele>2109.6</ele>
        <time>2024-08-14T10:56:13Z</time>
      </trkpt>
      <trkpt lat="44.94998" lon="6.09469">
        <ele>2109.6</ele>
        <time>2024-08-14T10:56:14Z</time>
      </trkpt>
      <trkpt lat="44.94999" lon="6.09471">
        <ele>2109.4</ele>
        <time>2024-08-14T10:56:15Z</time>
      </trkpt>
      <trkpt lat="44.94999" lon="6.09471">
        <ele>2109</ele>
        <time>2024-08-14T10:56:16Z</time>
      </trkpt>
      <trkpt lat="44.94999" lon="6.09471">
        <ele>2108.8</ele>
        <time>2024-08-14T10:56:17Z</time>
      </trkpt>
      <trkpt lat="44.95002" lon="6.09472">
        <ele>2108.8</ele>
        <time>2024-08-14T10:56:18Z</time>
      </trkpt>
      <trkpt lat="44.95002" lon="6.09472">
        <ele>2108.2</ele>
        <time>2024-08-14T10:56:19Z</time>
      </trkpt>
      <trkpt lat="44.95002" lon="6.09472">
        <ele>2108.2</ele>
        <time>2024-08-14T10:56:20Z</time>
      </trkpt>
      <trkpt lat="44.95004" lon="6.09474">
        <ele>2108.2</ele>
        <time>2024-08-14T10:56:21Z</time>
      </trkpt>
      <trkpt lat="44.95004" lon="6.09474">
        <ele>2108</ele>
        <time>2024-08-14T10:56:22Z</time>
      </trkpt>
      <trkpt lat="44.95004" lon="6.09474">
        <ele>2108</ele>
        <time>2024-08-14T10:56:23Z</time>
      </trkpt>
      <trkpt lat="44.95004" lon="6.09474">
        <ele>2107.8</ele>
        <time>2024-08-14T10:56:24Z</time>
      </trkpt>
      <trkpt lat="44.95006" lon="6.09474">
        <ele>2107.8</ele>
        <time>2024-08-14T10:56:25Z</time>
      </trkpt>
      <trkpt lat="44.95006" lon="6.09474">
        <ele>2107.8</ele>
        <time>2024-08-14T10:56:26Z</time>
      </trkpt>
      <trkpt lat="44.95008" lon="6.09475">
        <ele>2108.2</ele>
        <time>2024-08-14T10:56:27Z</time>
      </trkpt>
      <trkpt lat="44.95008" lon="6.09475">
        <ele>2108.2</ele>
        <time>2024-08-14T10:56:28Z</time>
      </trkpt>
      <trkpt lat="44.9501" lon="6.09475">
        <ele>2108</ele>
        <time>2024-08-14T10:56:29Z</time>
      </trkpt>
      <trkpt lat="44.9501" lon="6.09475">
        <ele>2108</ele>
        <time>2024-08-14T10:56:30Z</time>
      </trkpt>
      <trkpt lat="44.95012" lon="6.09476">
        <ele>2108.2</ele>
        <time>2024-08-14T10:56:31Z</time>
      </trkpt>
      <trkpt lat="44.95012" lon="6.09476">
        <ele>2108.2</ele>
        <time>2024-08-14T10:56:32Z</time>
      </trkpt>
      <trkpt lat="44.95014" lon="6.09478">
        <ele>2108</ele>
        <time>2024-08-14T10:56:33Z</time>
      </trkpt>
      <trkpt lat="44.95014" lon="6.09478">
        <ele>2108</ele>
        <time>2024-08-14T10:56:34Z</time>
      </trkpt>
      <trkpt lat="44.95016" lon="6.09478">
        <ele>2107.8</ele>
        <time>2024-08-14T10:56:35Z</time>
      </trkpt>
      <trkpt lat="44.95016" lon="6.09478">
        <ele>2107.6</ele>
        <time>2024-08-14T10:56:36Z</time>
      </trkpt>
      <trkpt lat="44.95018" lon="6.09479">
        <ele>2107.2</ele>
        <time>2024-08-14T10:56:37Z</time>
      </trkpt>
      <trkpt lat="44.95018" lon="6.09479">
        <ele>2106.8</ele>
        <time>2024-08-14T10:56:38Z</time>
      </trkpt>
      <trkpt lat="44.95021" lon="6.0948">
        <ele>2106.8</ele>
        <time>2024-08-14T10:56:39Z</time>
      </trkpt>
      <trkpt lat="44.95021" lon="6.0948">
        <ele>2106.8</ele>
        <time>2024-08-14T10:56:40Z</time>
      </trkpt>
      <trkpt lat="44.95023" lon="6.09481">
        <ele>2107.2</ele>
        <time>2024-08-14T10:56:41Z</time>
      </trkpt>
      <trkpt lat="44.95023" lon="6.09481">
        <ele>2107.4</ele>
        <time>2024-08-14T10:56:42Z</time>
      </trkpt>
      <trkpt lat="44.95023" lon="6.09481">
        <ele>2107.4</ele>
        <time>2024-08-14T10:56:43Z</time>
      </trkpt>
      <trkpt lat="44.95026" lon="6.09481">
        <ele>2107.4</ele>
        <time>2024-08-14T10:56:44Z</time>
      </trkpt>
      <trkpt lat="44.95026" lon="6.09481">
        <ele>2107.4</ele>
        <time>2024-08-14T10:56:45Z</time>
      </trkpt>
      <trkpt lat="44.95028" lon="6.09481">
        <ele>2107.4</ele>
        <time>2024-08-14T10:56:46Z</time>
      </trkpt>
      <trkpt lat="44.95028" lon="6.09481">
        <ele>2107.4</ele>
        <time>2024-08-14T10:56:47Z</time>
      </trkpt>
      <trkpt lat="44.9503" lon="6.09483">
        <ele>2107.4</ele>
        <time>2024-08-14T10:56:48Z</time>
      </trkpt>
      <trkpt lat="44.9503" lon="6.09483">
        <ele>2107.4</ele>
        <time>2024-08-14T10:56:49Z</time>
      </trkpt>
      <trkpt lat="44.95032" lon="6.09484">
        <ele>2107.6</ele>
        <time>2024-08-14T10:56:50Z</time>
      </trkpt>
      <trkpt lat="44.95032" lon="6.09484">
        <ele>2107.6</ele>
        <time>2024-08-14T10:56:51Z</time>
      </trkpt>
      <trkpt lat="44.95032" lon="6.09484">
        <ele>2107.6</ele>
        <time>2024-08-14T10:56:52Z</time>
      </trkpt>
      <trkpt lat="44.95034" lon="6.09484">
        <ele>2107.6</ele>
        <time>2024-08-14T10:56:53Z</time>
      </trkpt>
      <trkpt lat="44.95034" lon="6.09484">
        <ele>2107.4</ele>
        <time>2024-08-14T10:56:54Z</time>
      </trkpt>
      <trkpt lat="44.95036" lon="6.09485">
        <ele>2107.4</ele>
        <time>2024-08-14T10:56:55Z</time>
      </trkpt>
      <trkpt lat="44.95036" lon="6.09485">
        <ele>2107.4</ele>
        <time>2024-08-14T10:56:56Z</time>
      </trkpt>
      <trkpt lat="44.95039" lon="6.09485">
        <ele>2107.4</ele>
        <time>2024-08-14T10:56:57Z</time>
      </trkpt>
      <trkpt lat="44.95039" lon="6.09485">
        <ele>2107.4</ele>
        <time>2024-08-14T10:56:58Z</time>
      </trkpt>
      <trkpt lat="44.95041" lon="6.09487">
        <ele>2107.4</ele>
        <time>2024-08-14T10:56:59Z</time>
      </trkpt>
      <trkpt lat="44.95041" lon="6.09487">
        <ele>2107.4</ele>
        <time>2024-08-14T10:57:00Z</time>
      </trkpt>
      <trkpt lat="44.95043" lon="6.09488">
        <ele>2107.2</ele>
        <time>2024-08-14T10:57:01Z</time>
      </trkpt>
      <trkpt lat="44.95043" lon="6.09488">
        <ele>2107.4</ele>
        <time>2024-08-14T10:57:02Z</time>
      </trkpt>
      <trkpt lat="44.95045" lon="6.09489">
        <ele>2107.4</ele>
        <time>2024-08-14T10:57:03Z</time>
      </trkpt>
      <trkpt lat="44.95045" lon="6.09489">
        <ele>2107.4</ele>
        <time>2024-08-14T10:57:04Z</time>
      </trkpt>
      <trkpt lat="44.95045" lon="6.09489">
        <ele>2107.2</ele>
        <time>2024-08-14T10:57:05Z</time>
      </trkpt>
      <trkpt lat="44.95047" lon="6.09491">
        <ele>2107.2</ele>
        <time>2024-08-14T10:57:06Z</time>
      </trkpt>
      <trkpt lat="44.95047" lon="6.09491">
        <ele>2107.2</ele>
        <time>2024-08-14T10:57:07Z</time>
      </trkpt>
      <trkpt lat="44.95047" lon="6.09491">
        <ele>2107.4</ele>
        <time>2024-08-14T10:57:08Z</time>
      </trkpt>
      <trkpt lat="44.9505" lon="6.09491">
        <ele>2107.6</ele>
        <time>2024-08-14T10:57:09Z</time>
      </trkpt>
      <trkpt lat="44.9505" lon="6.09491">
        <ele>2107.6</ele>
        <time>2024-08-14T10:57:10Z</time>
      </trkpt>
      <trkpt lat="44.9505" lon="6.09491">
        <ele>2107.8</ele>
        <time>2024-08-14T10:57:11Z</time>
      </trkpt>
      <trkpt lat="44.95053" lon="6.09492">
        <ele>2107.8</ele>
        <time>2024-08-14T10:57:12Z</time>
      </trkpt>
      <trkpt lat="44.95053" lon="6.09492">
        <ele>2108.2</ele>
        <time>2024-08-14T10:57:13Z</time>
      </trkpt>
      <trkpt lat="44.95054" lon="6.09493">
        <ele>2108.2</ele>
        <time>2024-08-14T10:57:14Z</time>
      </trkpt>
      <trkpt lat="44.95054" lon="6.09493">
        <ele>2108.4</ele>
        <time>2024-08-14T10:57:15Z</time>
      </trkpt>
      <trkpt lat="44.95057" lon="6.09495">
        <ele>2108.4</ele>
        <time>2024-08-14T10:57:16Z</time>
      </trkpt>
      <trkpt lat="44.95057" lon="6.09495">
        <ele>2108.4</ele>
        <time>2024-08-14T10:57:17Z</time>
      </trkpt>
      <trkpt lat="44.95059" lon="6.09495">
        <ele>2108.6</ele>
        <time>2024-08-14T10:57:18Z</time>
      </trkpt>
      <trkpt lat="44.95059" lon="6.09495">
        <ele>2108.6</ele>
        <time>2024-08-14T10:57:19Z</time>
      </trkpt>
      <trkpt lat="44.95061" lon="6.09497">
        <ele>2108.6</ele>
        <time>2024-08-14T10:57:20Z</time>
      </trkpt>
      <trkpt lat="44.95061" lon="6.09497">
        <ele>2108.4</ele>
        <time>2024-08-14T10:57:21Z</time>
      </trkpt>
      <trkpt lat="44.95063" lon="6.09499">
        <ele>2108.4</ele>
        <time>2024-08-14T10:57:22Z</time>
      </trkpt>
      <trkpt lat="44.95063" lon="6.09499">
        <ele>2108.2</ele>
        <time>2024-08-14T10:57:23Z</time>
      </trkpt>
      <trkpt lat="44.95065" lon="6.09501">
        <ele>2108.2</ele>
        <time>2024-08-14T10:57:24Z</time>
      </trkpt>
      <trkpt lat="44.95065" lon="6.09501">
        <ele>2108.4</ele>
        <time>2024-08-14T10:57:25Z</time>
      </trkpt>
      <trkpt lat="44.95067" lon="6.09503">
        <ele>2108.4</ele>
        <time>2024-08-14T10:57:26Z</time>
      </trkpt>
      <trkpt lat="44.95067" lon="6.09503">
        <ele>2108.4</ele>
        <time>2024-08-14T10:57:27Z</time>
      </trkpt>
      <trkpt lat="44.95069" lon="6.09505">
        <ele>2108.2</ele>
        <time>2024-08-14T10:57:28Z</time>
      </trkpt>
      <trkpt lat="44.95069" lon="6.09505">
        <ele>2108.2</ele>
        <time>2024-08-14T10:57:29Z</time>
      </trkpt>
      <trkpt lat="44.95071" lon="6.09506">
        <ele>2108.2</ele>
        <time>2024-08-14T10:57:30Z</time>
      </trkpt>
      <trkpt lat="44.95071" lon="6.09506">
        <ele>2108.2</ele>
        <time>2024-08-14T10:57:31Z</time>
      </trkpt>
      <trkpt lat="44.95073" lon="6.09508">
        <ele>2108.6</ele>
        <time>2024-08-14T10:57:32Z</time>
      </trkpt>
      <trkpt lat="44.95073" lon="6.09508">
        <ele>2108.8</ele>
        <time>2024-08-14T10:57:33Z</time>
      </trkpt>
      <trkpt lat="44.95075" lon="6.0951">
        <ele>2108.8</ele>
        <time>2024-08-14T10:57:34Z</time>
      </trkpt>
      <trkpt lat="44.95075" lon="6.0951">
        <ele>2108.8</ele>
        <time>2024-08-14T10:57:35Z</time>
      </trkpt>
      <trkpt lat="44.95077" lon="6.09513">
        <ele>2108.8</ele>
        <time>2024-08-14T10:57:36Z</time>
      </trkpt>
      <trkpt lat="44.95077" lon="6.09513">
        <ele>2108.8</ele>
        <time>2024-08-14T10:57:37Z</time>
      </trkpt>
      <trkpt lat="44.95079" lon="6.09515">
        <ele>2108.8</ele>
        <time>2024-08-14T10:57:38Z</time>
      </trkpt>
      <trkpt lat="44.95079" lon="6.09515">
        <ele>2108.8</ele>
        <time>2024-08-14T10:57:39Z</time>
      </trkpt>
      <trkpt lat="44.9508" lon="6.09518">
        <ele>2109.2</ele>
        <time>2024-08-14T10:57:40Z</time>
      </trkpt>
      <trkpt lat="44.9508" lon="6.09518">
        <ele>2109.2</ele>
        <time>2024-08-14T10:57:41Z</time>
      </trkpt>
      <trkpt lat="44.95082" lon="6.0952">
        <ele>2109.2</ele>
        <time>2024-08-14T10:57:42Z</time>
      </trkpt>
      <trkpt lat="44.95082" lon="6.0952">
        <ele>2109.2</ele>
        <time>2024-08-14T10:57:43Z</time>
      </trkpt>
      <trkpt lat="44.95085" lon="6.09522">
        <ele>2109.2</ele>
        <time>2024-08-14T10:57:44Z</time>
      </trkpt>
      <trkpt lat="44.95085" lon="6.09522">
        <ele>2109.2</ele>
        <time>2024-08-14T10:57:45Z</time>
      </trkpt>
      <trkpt lat="44.95087" lon="6.09523">
        <ele>2109.2</ele>
        <time>2024-08-14T10:57:46Z</time>
      </trkpt>
      <trkpt lat="44.95087" lon="6.09523">
        <ele>2109.2</ele>
        <time>2024-08-14T10:57:47Z</time>
      </trkpt>
      <trkpt lat="44.95089" lon="6.09523">
        <ele>2109</ele>
        <time>2024-08-14T10:57:48Z</time>
      </trkpt>
      <trkpt lat="44.95089" lon="6.09523">
        <ele>2109</ele>
        <time>2024-08-14T10:57:49Z</time>
      </trkpt>
      <trkpt lat="44.95092" lon="6.09521">
        <ele>2108.8</ele>
        <time>2024-08-14T10:57:50Z</time>
      </trkpt>
      <trkpt lat="44.95092" lon="6.09521">
        <ele>2108.8</ele>
        <time>2024-08-14T10:57:51Z</time>
      </trkpt>
      <trkpt lat="44.95094" lon="6.09519">
        <ele>2108.4</ele>
        <time>2024-08-14T10:57:52Z</time>
      </trkpt>
      <trkpt lat="44.95094" lon="6.09519">
        <ele>2108.4</ele>
        <time>2024-08-14T10:57:53Z</time>
      </trkpt>
      <trkpt lat="44.95097" lon="6.09517">
        <ele>2108.4</ele>
        <time>2024-08-14T10:57:54Z</time>
      </trkpt>
      <trkpt lat="44.95097" lon="6.09517">
        <ele>2108.4</ele>
        <time>2024-08-14T10:57:55Z</time>
      </trkpt>
      <trkpt lat="44.95099" lon="6.09516">
        <ele>2108.4</ele>
        <time>2024-08-14T10:57:56Z</time>
      </trkpt>
      <trkpt lat="44.95099" lon="6.09516">
        <ele>2108.4</ele>
        <time>2024-08-14T10:57:57Z</time>
      </trkpt>
      <trkpt lat="44.95101" lon="6.09514">
        <ele>2108.6</ele>
        <time>2024-08-14T10:57:58Z</time>
      </trkpt>
      <trkpt lat="44.95101" lon="6.09514">
        <ele>2108.6</ele>
        <time>2024-08-14T10:57:59Z</time>
      </trkpt>
      <trkpt lat="44.95103" lon="6.09512">
        <ele>2108.4</ele>
        <time>2024-08-14T10:58:00Z</time>
      </trkpt>
      <trkpt lat="44.95103" lon="6.09512">
        <ele>2108.4</ele>
        <time>2024-08-14T10:58:01Z</time>
      </trkpt>
      <trkpt lat="44.95105" lon="6.0951">
        <ele>2108.4</ele>
        <time>2024-08-14T10:58:02Z</time>
      </trkpt>
      <trkpt lat="44.95105" lon="6.0951">
        <ele>2108.4</ele>
        <time>2024-08-14T10:58:03Z</time>
      </trkpt>
      <trkpt lat="44.95107" lon="6.0951">
        <ele>2108.4</ele>
        <time>2024-08-14T10:58:04Z</time>
      </trkpt>
      <trkpt lat="44.95107" lon="6.0951">
        <ele>2108.2</ele>
        <time>2024-08-14T10:58:05Z</time>
      </trkpt>
      <trkpt lat="44.95109" lon="6.09511">
        <ele>2108</ele>
        <time>2024-08-14T10:58:06Z</time>
      </trkpt>
      <trkpt lat="44.95109" lon="6.09511">
        <ele>2107.8</ele>
        <time>2024-08-14T10:58:07Z</time>
      </trkpt>
      <trkpt lat="44.9511" lon="6.09514">
        <ele>2107.6</ele>
        <time>2024-08-14T10:58:08Z</time>
      </trkpt>
      <trkpt lat="44.9511" lon="6.09514">
        <ele>2107.6</ele>
        <time>2024-08-14T10:58:09Z</time>
      </trkpt>
      <trkpt lat="44.9511" lon="6.09518">
        <ele>2107.2</ele>
        <time>2024-08-14T10:58:10Z</time>
      </trkpt>
      <trkpt lat="44.9511" lon="6.09518">
        <ele>2106.8</ele>
        <time>2024-08-14T10:58:11Z</time>
      </trkpt>
      <trkpt lat="44.9511" lon="6.09522">
        <ele>2106.8</ele>
        <time>2024-08-14T10:58:12Z</time>
      </trkpt>
      <trkpt lat="44.9511" lon="6.09522">
        <ele>2106.8</ele>
        <time>2024-08-14T10:58:13Z</time>
      </trkpt>
      <trkpt lat="44.95111" lon="6.09525">
        <ele>2106.8</ele>
        <time>2024-08-14T10:58:14Z</time>
      </trkpt>
      <trkpt lat="44.95111" lon="6.09525">
        <ele>2107</ele>
        <time>2024-08-14T10:58:15Z</time>
      </trkpt>
      <trkpt lat="44.95111" lon="6.09528">
        <ele>2106.8</ele>
        <time>2024-08-14T10:58:16Z</time>
      </trkpt>
      <trkpt lat="44.95111" lon="6.09528">
        <ele>2106.8</ele>
        <time>2024-08-14T10:58:17Z</time>
      </trkpt>
      <trkpt lat="44.95112" lon="6.09532">
        <ele>2106.8</ele>
        <time>2024-08-14T10:58:18Z</time>
      </trkpt>
      <trkpt lat="44.95112" lon="6.09532">
        <ele>2107</ele>
        <time>2024-08-14T10:58:19Z</time>
      </trkpt>
      <trkpt lat="44.95113" lon="6.09536">
        <ele>2107.6</ele>
        <time>2024-08-14T10:58:20Z</time>
      </trkpt>
      <trkpt lat="44.95113" lon="6.09536">
        <ele>2107.6</ele>
        <time>2024-08-14T10:58:21Z</time>
      </trkpt>
      <trkpt lat="44.95113" lon="6.09539">
        <ele>2107.4</ele>
        <time>2024-08-14T10:58:22Z</time>
      </trkpt>
      <trkpt lat="44.95113" lon="6.09539">
        <ele>2107.4</ele>
        <time>2024-08-14T10:58:23Z</time>
      </trkpt>
      <trkpt lat="44.95115" lon="6.09541">
        <ele>2107.4</ele>
        <time>2024-08-14T10:58:24Z</time>
      </trkpt>
      <trkpt lat="44.95115" lon="6.09541">
        <ele>2107.4</ele>
        <time>2024-08-14T10:58:25Z</time>
      </trkpt>
      <trkpt lat="44.95117" lon="6.09544">
        <ele>2107.4</ele>
        <time>2024-08-14T10:58:26Z</time>
      </trkpt>
      <trkpt lat="44.95117" lon="6.09544">
        <ele>2107.6</ele>
        <time>2024-08-14T10:58:27Z</time>
      </trkpt>
      <trkpt lat="44.95118" lon="6.09547">
        <ele>2107.8</ele>
        <time>2024-08-14T10:58:28Z</time>
      </trkpt>
      <trkpt lat="44.95118" lon="6.09547">
        <ele>2108</ele>
        <time>2024-08-14T10:58:29Z</time>
      </trkpt>
      <trkpt lat="44.95119" lon="6.0955">
        <ele>2108</ele>
        <time>2024-08-14T10:58:30Z</time>
      </trkpt>
      <trkpt lat="44.95119" lon="6.0955">
        <ele>2108</ele>
        <time>2024-08-14T10:58:31Z</time>
      </trkpt>
      <trkpt lat="44.95121" lon="6.09552">
        <ele>2108</ele>
        <time>2024-08-14T10:58:32Z</time>
      </trkpt>
      <trkpt lat="44.95121" lon="6.09552">
        <ele>2108</ele>
        <time>2024-08-14T10:58:33Z</time>
      </trkpt>
      <trkpt lat="44.95124" lon="6.09554">
        <ele>2108.4</ele>
        <time>2024-08-14T10:58:34Z</time>
      </trkpt>
      <trkpt lat="44.95124" lon="6.09554">
        <ele>2108.8</ele>
        <time>2024-08-14T10:58:35Z</time>
      </trkpt>
      <trkpt lat="44.95125" lon="6.09556">
        <ele>2108.8</ele>
        <time>2024-08-14T10:58:36Z</time>
      </trkpt>
      <trkpt lat="44.95125" lon="6.09556">
        <ele>2108.8</ele>
        <time>2024-08-14T10:58:37Z</time>
      </trkpt>
      <trkpt lat="44.95127" lon="6.09558">
        <ele>2109</ele>
        <time>2024-08-14T10:58:38Z</time>
      </trkpt>
      <trkpt lat="44.95127" lon="6.09558">
        <ele>2109.2</ele>
        <time>2024-08-14T10:58:39Z</time>
      </trkpt>
      <trkpt lat="44.95128" lon="6.09561">
        <ele>2109.2</ele>
        <time>2024-08-14T10:58:40Z</time>
      </trkpt>
      <trkpt lat="44.95128" lon="6.09561">
        <ele>2109.4</ele>
        <time>2024-08-14T10:58:41Z</time>
      </trkpt>
      <trkpt lat="44.95129" lon="6.09563">
        <ele>2109.8</ele>
        <time>2024-08-14T10:58:42Z</time>
      </trkpt>
      <trkpt lat="44.95129" lon="6.09563">
        <ele>2110.2</ele>
        <time>2024-08-14T10:58:43Z</time>
      </trkpt>
      <trkpt lat="44.95132" lon="6.09565">
        <ele>2110.4</ele>
        <time>2024-08-14T10:58:44Z</time>
      </trkpt>
      <trkpt lat="44.95132" lon="6.09565">
        <ele>2110.4</ele>
        <time>2024-08-14T10:58:45Z</time>
      </trkpt>
      <trkpt lat="44.95132" lon="6.09565">
        <ele>2110.6</ele>
        <time>2024-08-14T10:58:46Z</time>
      </trkpt>
      <trkpt lat="44.95134" lon="6.09567">
        <ele>2111</ele>
        <time>2024-08-14T10:58:47Z</time>
      </trkpt>
      <trkpt lat="44.95134" lon="6.09567">
        <ele>2111</ele>
        <time>2024-08-14T10:58:48Z</time>
      </trkpt>
      <trkpt lat="44.95137" lon="6.09567">
        <ele>2111</ele>
        <time>2024-08-14T10:58:49Z</time>
      </trkpt>
      <trkpt lat="44.95137" lon="6.09567">
        <ele>2110.8</ele>
        <time>2024-08-14T10:58:50Z</time>
      </trkpt>
      <trkpt lat="44.95139" lon="6.09568">
        <ele>2110.4</ele>
        <time>2024-08-14T10:58:51Z</time>
      </trkpt>
      <trkpt lat="44.95139" lon="6.09568">
        <ele>2110</ele>
        <time>2024-08-14T10:58:52Z</time>
      </trkpt>
      <trkpt lat="44.95142" lon="6.09569">
        <ele>2110</ele>
        <time>2024-08-14T10:58:53Z</time>
      </trkpt>
      <trkpt lat="44.95142" lon="6.09569">
        <ele>2109.8</ele>
        <time>2024-08-14T10:58:54Z</time>
      </trkpt>
      <trkpt lat="44.95144" lon="6.09569">
        <ele>2109.8</ele>
        <time>2024-08-14T10:58:55Z</time>
      </trkpt>
      <trkpt lat="44.95144" lon="6.09569">
        <ele>2109.6</ele>
        <time>2024-08-14T10:58:56Z</time>
      </trkpt>
      <trkpt lat="44.95146" lon="6.0957">
        <ele>2109.4</ele>
        <time>2024-08-14T10:58:57Z</time>
      </trkpt>
      <trkpt lat="44.95146" lon="6.0957">
        <ele>2109.2</ele>
        <time>2024-08-14T10:58:58Z</time>
      </trkpt>
      <trkpt lat="44.95149" lon="6.09571">
        <ele>2109.2</ele>
        <time>2024-08-14T10:58:59Z</time>
      </trkpt>
      <trkpt lat="44.95149" lon="6.09571">
        <ele>2109.2</ele>
        <time>2024-08-14T10:59:00Z</time>
      </trkpt>
      <trkpt lat="44.95151" lon="6.09572">
        <ele>2109.2</ele>
        <time>2024-08-14T10:59:01Z</time>
      </trkpt>
      <trkpt lat="44.95151" lon="6.09572">
        <ele>2109.4</ele>
        <time>2024-08-14T10:59:02Z</time>
      </trkpt>
      <trkpt lat="44.95153" lon="6.09573">
        <ele>2109.4</ele>
        <time>2024-08-14T10:59:03Z</time>
      </trkpt>
      <trkpt lat="44.95153" lon="6.09573">
        <ele>2109.2</ele>
        <time>2024-08-14T10:59:04Z</time>
      </trkpt>
      <trkpt lat="44.95156" lon="6.09574">
        <ele>2109.2</ele>
        <time>2024-08-14T10:59:05Z</time>
      </trkpt>
      <trkpt lat="44.95156" lon="6.09574">
        <ele>2109.2</ele>
        <time>2024-08-14T10:59:06Z</time>
      </trkpt>
      <trkpt lat="44.95158" lon="6.09575">
        <ele>2109</ele>
        <time>2024-08-14T10:59:07Z</time>
      </trkpt>
      <trkpt lat="44.95158" lon="6.09575">
        <ele>2109</ele>
        <time>2024-08-14T10:59:08Z</time>
      </trkpt>
      <trkpt lat="44.95161" lon="6.09576">
        <ele>2109</ele>
        <time>2024-08-14T10:59:09Z</time>
      </trkpt>
      <trkpt lat="44.95161" lon="6.09576">
        <ele>2109.2</ele>
        <time>2024-08-14T10:59:10Z</time>
      </trkpt>
      <trkpt lat="44.95163" lon="6.09577">
        <ele>2109.4</ele>
        <time>2024-08-14T10:59:11Z</time>
      </trkpt>
      <trkpt lat="44.95163" lon="6.09577">
        <ele>2109.4</ele>
        <time>2024-08-14T10:59:12Z</time>
      </trkpt>
      <trkpt lat="44.95166" lon="6.09578">
        <ele>2109.4</ele>
        <time>2024-08-14T10:59:13Z</time>
      </trkpt>
      <trkpt lat="44.95166" lon="6.09578">
        <ele>2109.4</ele>
        <time>2024-08-14T10:59:14Z</time>
      </trkpt>
      <trkpt lat="44.95168" lon="6.0958">
        <ele>2109.4</ele>
        <time>2024-08-14T10:59:15Z</time>
      </trkpt>
      <trkpt lat="44.95168" lon="6.0958">
        <ele>2109.4</ele>
        <time>2024-08-14T10:59:16Z</time>
      </trkpt>
      <trkpt lat="44.95171" lon="6.09582">
        <ele>2109.4</ele>
        <time>2024-08-14T10:59:17Z</time>
      </trkpt>
      <trkpt lat="44.95171" lon="6.09582">
        <ele>2109.4</ele>
        <time>2024-08-14T10:59:18Z</time>
      </trkpt>
      <trkpt lat="44.95173" lon="6.09584">
        <ele>2109.4</ele>
        <time>2024-08-14T10:59:19Z</time>
      </trkpt>
      <trkpt lat="44.95173" lon="6.09584">
        <ele>2109.4</ele>
        <time>2024-08-14T10:59:20Z</time>
      </trkpt>
      <trkpt lat="44.95175" lon="6.09586">
        <ele>2109.4</ele>
        <time>2024-08-14T10:59:21Z</time>
      </trkpt>
      <trkpt lat="44.95175" lon="6.09586">
        <ele>2109.4</ele>
        <time>2024-08-14T10:59:22Z</time>
      </trkpt>
      <trkpt lat="44.95178" lon="6.09588">
        <ele>2109.6</ele>
        <time>2024-08-14T10:59:23Z</time>
      </trkpt>
      <trkpt lat="44.95178" lon="6.09588">
        <ele>2109.8</ele>
        <time>2024-08-14T10:59:24Z</time>
      </trkpt>
      <trkpt lat="44.9518" lon="6.09589">
        <ele>2109.8</ele>
        <time>2024-08-14T10:59:25Z</time>
      </trkpt>
      <trkpt lat="44.9518" lon="6.09589">
        <ele>2110</ele>
        <time>2024-08-14T10:59:26Z</time>
      </trkpt>
      <trkpt lat="44.95181" lon="6.09591">
        <ele>2110</ele>
        <time>2024-08-14T10:59:27Z</time>
      </trkpt>
      <trkpt lat="44.95181" lon="6.09591">
        <ele>2110.4</ele>
        <time>2024-08-14T10:59:28Z</time>
      </trkpt>
      <trkpt lat="44.95182" lon="6.09594">
        <ele>2110.4</ele>
        <time>2024-08-14T10:59:29Z</time>
      </trkpt>
      <trkpt lat="44.95182" lon="6.09594">
        <ele>2109.8</ele>
        <time>2024-08-14T10:59:30Z</time>
      </trkpt>
      <trkpt lat="44.95184" lon="6.09596">
        <ele>2109.8</ele>
        <time>2024-08-14T10:59:31Z</time>
      </trkpt>
      <trkpt lat="44.95184" lon="6.09596">
        <ele>2109.4</ele>
        <time>2024-08-14T10:59:32Z</time>
      </trkpt>
      <trkpt lat="44.95186" lon="6.09599">
        <ele>2109.4</ele>
        <time>2024-08-14T10:59:33Z</time>
      </trkpt>
      <trkpt lat="44.95186" lon="6.09599">
        <ele>2109.4</ele>
        <time>2024-08-14T10:59:34Z</time>
      </trkpt>
      <trkpt lat="44.95188" lon="6.096">
        <ele>2109.4</ele>
        <time>2024-08-14T10:59:35Z</time>
      </trkpt>
      <trkpt lat="44.95188" lon="6.096">
        <ele>2109.8</ele>
        <time>2024-08-14T10:59:36Z</time>
      </trkpt>
      <trkpt lat="44.9519" lon="6.09602">
        <ele>2110</ele>
        <time>2024-08-14T10:59:37Z</time>
      </trkpt>
      <trkpt lat="44.9519" lon="6.09602">
        <ele>2110</ele>
        <time>2024-08-14T10:59:38Z</time>
      </trkpt>
      <trkpt lat="44.95192" lon="6.09605">
        <ele>2110</ele>
        <time>2024-08-14T10:59:39Z</time>
      </trkpt>
      <trkpt lat="44.95192" lon="6.09605">
        <ele>2110</ele>
        <time>2024-08-14T10:59:40Z</time>
      </trkpt>
      <trkpt lat="44.95194" lon="6.09608">
        <ele>2109.8</ele>
        <time>2024-08-14T10:59:41Z</time>
      </trkpt>
      <trkpt lat="44.95194" lon="6.09608">
        <ele>2109.8</ele>
        <time>2024-08-14T10:59:42Z</time>
      </trkpt>
      <trkpt lat="44.95196" lon="6.0961">
        <ele>2109.8</ele>
        <time>2024-08-14T10:59:43Z</time>
      </trkpt>
      <trkpt lat="44.95196" lon="6.0961">
        <ele>2110</ele>
        <time>2024-08-14T10:59:44Z</time>
      </trkpt>
      <trkpt lat="44.95197" lon="6.09612">
        <ele>2110.2</ele>
        <time>2024-08-14T10:59:45Z</time>
      </trkpt>
      <trkpt lat="44.95197" lon="6.09612">
        <ele>2110.2</ele>
        <time>2024-08-14T10:59:46Z</time>
      </trkpt>
      <trkpt lat="44.95199" lon="6.09615">
        <ele>2110.2</ele>
        <time>2024-08-14T10:59:47Z</time>
      </trkpt>
      <trkpt lat="44.95199" lon="6.09615">
        <ele>2110.2</ele>
        <time>2024-08-14T10:59:48Z</time>
      </trkpt>
      <trkpt lat="44.952" lon="6.09617">
        <ele>2110.2</ele>
        <time>2024-08-14T10:59:49Z</time>
      </trkpt>
      <trkpt lat="44.952" lon="6.09617">
        <ele>2110.2</ele>
        <time>2024-08-14T10:59:50Z</time>
      </trkpt>
      <trkpt lat="44.95202" lon="6.09619">
        <ele>2110.4</ele>
        <time>2024-08-14T10:59:51Z</time>
      </trkpt>
      <trkpt lat="44.95202" lon="6.09619">
        <ele>2110.2</ele>
        <time>2024-08-14T10:59:52Z</time>
      </trkpt>
      <trkpt lat="44.95204" lon="6.09622">
        <ele>2110.2</ele>
        <time>2024-08-14T10:59:53Z</time>
      </trkpt>
      <trkpt lat="44.95204" lon="6.09622">
        <ele>2110.2</ele>
        <time>2024-08-14T10:59:54Z</time>
      </trkpt>
      <trkpt lat="44.95206" lon="6.09625">
        <ele>2110.4</ele>
        <time>2024-08-14T10:59:55Z</time>
      </trkpt>
      <trkpt lat="44.95206" lon="6.09625">
        <ele>2110.4</ele>
        <time>2024-08-14T10:59:56Z</time>
      </trkpt>
      <trkpt lat="44.95208" lon="6.09628">
        <ele>2110.2</ele>
        <time>2024-08-14T10:59:57Z</time>
      </trkpt>
      <trkpt lat="44.95208" lon="6.09628">
        <ele>2110.2</ele>
        <time>2024-08-14T10:59:58Z</time>
      </trkpt>
      <trkpt lat="44.9521" lon="6.09631">
        <ele>2110</ele>
        <time>2024-08-14T10:59:59Z</time>
      </trkpt>
      <trkpt lat="44.9521" lon="6.09631">
        <ele>2109.8</ele>
        <time>2024-08-14T11:00:00Z</time>
      </trkpt>
      <trkpt lat="44.95212" lon="6.09634">
        <ele>2109.8</ele>
        <time>2024-08-14T11:00:01Z</time>
      </trkpt>
      <trkpt lat="44.95212" lon="6.09634">
        <ele>2110.4</ele>
        <time>2024-08-14T11:00:02Z</time>
      </trkpt>
      <trkpt lat="44.95214" lon="6.09637">
        <ele>2110.4</ele>
        <time>2024-08-14T11:00:03Z</time>
      </trkpt>
      <trkpt lat="44.95214" lon="6.09637">
        <ele>2110.4</ele>
        <time>2024-08-14T11:00:04Z</time>
      </trkpt>
      <trkpt lat="44.95216" lon="6.09639">
        <ele>2110.4</ele>
        <time>2024-08-14T11:00:05Z</time>
      </trkpt>
      <trkpt lat="44.95216" lon="6.09639">
        <ele>2110.4</ele>
        <time>2024-08-14T11:00:06Z</time>
      </trkpt>
      <trkpt lat="44.95218" lon="6.09641">
        <ele>2110.4</ele>
        <time>2024-08-14T11:00:07Z</time>
      </trkpt>
      <trkpt lat="44.95218" lon="6.09641">
        <ele>2110.4</ele>
        <time>2024-08-14T11:00:08Z</time>
      </trkpt>
      <trkpt lat="44.9522" lon="6.09644">
        <ele>2110.4</ele>
        <time>2024-08-14T11:00:09Z</time>
      </trkpt>
      <trkpt lat="44.9522" lon="6.09644">
        <ele>2110.4</ele>
        <time>2024-08-14T11:00:10Z</time>
      </trkpt>
      <trkpt lat="44.95221" lon="6.09645">
        <ele>2110.4</ele>
        <time>2024-08-14T11:00:11Z</time>
      </trkpt>
      <trkpt lat="44.95221" lon="6.09645">
        <ele>2110.4</ele>
        <time>2024-08-14T11:00:12Z</time>
      </trkpt>
      <trkpt lat="44.95223" lon="6.09648">
        <ele>2110.4</ele>
        <time>2024-08-14T11:00:13Z</time>
      </trkpt>
      <trkpt lat="44.95223" lon="6.09648">
        <ele>2110.4</ele>
        <time>2024-08-14T11:00:14Z</time>
      </trkpt>
      <trkpt lat="44.95225" lon="6.0965">
        <ele>2110.2</ele>
        <time>2024-08-14T11:00:15Z</time>
      </trkpt>
      <trkpt lat="44.95225" lon="6.0965">
        <ele>2110.2</ele>
        <time>2024-08-14T11:00:16Z</time>
      </trkpt>
      <trkpt lat="44.95227" lon="6.09653">
        <ele>2110.4</ele>
        <time>2024-08-14T11:00:17Z</time>
      </trkpt>
      <trkpt lat="44.95227" lon="6.09653">
        <ele>2110.6</ele>
        <time>2024-08-14T11:00:18Z</time>
      </trkpt>
      <trkpt lat="44.95229" lon="6.09655">
        <ele>2110.6</ele>
        <time>2024-08-14T11:00:19Z</time>
      </trkpt>
      <trkpt lat="44.95229" lon="6.09655">
        <ele>2110.6</ele>
        <time>2024-08-14T11:00:20Z</time>
      </trkpt>
      <trkpt lat="44.9523" lon="6.09656">
        <ele>2111</ele>
        <time>2024-08-14T11:00:21Z</time>
      </trkpt>
      <trkpt lat="44.9523" lon="6.09656">
        <ele>2111</ele>
        <time>2024-08-14T11:00:22Z</time>
      </trkpt>
      <trkpt lat="44.95233" lon="6.09658">
        <ele>2111</ele>
        <time>2024-08-14T11:00:23Z</time>
      </trkpt>
      <trkpt lat="44.95233" lon="6.09658">
        <ele>2111</ele>
        <time>2024-08-14T11:00:24Z</time>
      </trkpt>
      <trkpt lat="44.95234" lon="6.09661">
        <ele>2111</ele>
        <time>2024-08-14T11:00:25Z</time>
      </trkpt>
      <trkpt lat="44.95234" lon="6.09661">
        <ele>2111</ele>
        <time>2024-08-14T11:00:26Z</time>
      </trkpt>
      <trkpt lat="44.95236" lon="6.09664">
        <ele>2111</ele>
        <time>2024-08-14T11:00:27Z</time>
      </trkpt>
      <trkpt lat="44.95236" lon="6.09664">
        <ele>2111</ele>
        <time>2024-08-14T11:00:28Z</time>
      </trkpt>
      <trkpt lat="44.95238" lon="6.09666">
        <ele>2111</ele>
        <time>2024-08-14T11:00:29Z</time>
      </trkpt>
      <trkpt lat="44.95238" lon="6.09666">
        <ele>2111.2</ele>
        <time>2024-08-14T11:00:30Z</time>
      </trkpt>
      <trkpt lat="44.9524" lon="6.09669">
        <ele>2111.2</ele>
        <time>2024-08-14T11:00:31Z</time>
      </trkpt>
      <trkpt lat="44.9524" lon="6.09669">
        <ele>2111.4</ele>
        <time>2024-08-14T11:00:32Z</time>
      </trkpt>
      <trkpt lat="44.95241" lon="6.09671">
        <ele>2111.6</ele>
        <time>2024-08-14T11:00:33Z</time>
      </trkpt>
      <trkpt lat="44.95241" lon="6.09671">
        <ele>2111.6</ele>
        <time>2024-08-14T11:00:34Z</time>
      </trkpt>
      <trkpt lat="44.95244" lon="6.09672">
        <ele>2111.8</ele>
        <time>2024-08-14T11:00:35Z</time>
      </trkpt>
      <trkpt lat="44.95244" lon="6.09672">
        <ele>2111.8</ele>
        <time>2024-08-14T11:00:36Z</time>
      </trkpt>
      <trkpt lat="44.95245" lon="6.09674">
        <ele>2112</ele>
        <time>2024-08-14T11:00:37Z</time>
      </trkpt>
      <trkpt lat="44.95245" lon="6.09674">
        <ele>2112</ele>
        <time>2024-08-14T11:00:38Z</time>
      </trkpt>
      <trkpt lat="44.95246" lon="6.09676">
        <ele>2112</ele>
        <time>2024-08-14T11:00:39Z</time>
      </trkpt>
      <trkpt lat="44.95246" lon="6.09676">
        <ele>2112</ele>
        <time>2024-08-14T11:00:40Z</time>
      </trkpt>
      <trkpt lat="44.95248" lon="6.09679">
        <ele>2112.2</ele>
        <time>2024-08-14T11:00:41Z</time>
      </trkpt>
      <trkpt lat="44.95248" lon="6.09679">
        <ele>2112.4</ele>
        <time>2024-08-14T11:00:42Z</time>
      </trkpt>
      <trkpt lat="44.95249" lon="6.0968">
        <ele>2112.4</ele>
        <time>2024-08-14T11:00:43Z</time>
      </trkpt>
      <trkpt lat="44.95249" lon="6.0968">
        <ele>2112.6</ele>
        <time>2024-08-14T11:00:44Z</time>
      </trkpt>
      <trkpt lat="44.95251" lon="6.09683">
        <ele>2112.6</ele>
        <time>2024-08-14T11:00:45Z</time>
      </trkpt>
      <trkpt lat="44.95251" lon="6.09683">
        <ele>2112.6</ele>
        <time>2024-08-14T11:00:46Z</time>
      </trkpt>
      <trkpt lat="44.95252" lon="6.09685">
        <ele>2112.8</ele>
        <time>2024-08-14T11:00:47Z</time>
      </trkpt>
      <trkpt lat="44.95252" lon="6.09685">
        <ele>2112.8</ele>
        <time>2024-08-14T11:00:48Z</time>
      </trkpt>
      <trkpt lat="44.95254" lon="6.09687">
        <ele>2113</ele>
        <time>2024-08-14T11:00:49Z</time>
      </trkpt>
      <trkpt lat="44.95254" lon="6.09687">
        <ele>2113.2</ele>
        <time>2024-08-14T11:00:50Z</time>
      </trkpt>
      <trkpt lat="44.95256" lon="6.09689">
        <ele>2113.4</ele>
        <time>2024-08-14T11:00:51Z</time>
      </trkpt>
      <trkpt lat="44.95256" lon="6.09689">
        <ele>2113.4</ele>
        <time>2024-08-14T11:00:52Z</time>
      </trkpt>
      <trkpt lat="44.95258" lon="6.09691">
        <ele>2113.4</ele>
        <time>2024-08-14T11:00:53Z</time>
      </trkpt>
      <trkpt lat="44.95258" lon="6.09691">
        <ele>2113.4</ele>
        <time>2024-08-14T11:00:54Z</time>
      </trkpt>
      <trkpt lat="44.95259" lon="6.09693">
        <ele>2113.8</ele>
        <time>2024-08-14T11:00:55Z</time>
      </trkpt>
      <trkpt lat="44.95259" lon="6.09693">
        <ele>2113.8</ele>
        <time>2024-08-14T11:00:56Z</time>
      </trkpt>
      <trkpt lat="44.95261" lon="6.09695">
        <ele>2113.8</ele>
        <time>2024-08-14T11:00:57Z</time>
      </trkpt>
      <trkpt lat="44.95261" lon="6.09695">
        <ele>2113.8</ele>
        <time>2024-08-14T11:00:58Z</time>
      </trkpt>
      <trkpt lat="44.95263" lon="6.09696">
        <ele>2114</ele>
        <time>2024-08-14T11:00:59Z</time>
      </trkpt>
      <trkpt lat="44.95263" lon="6.09696">
        <ele>2114</ele>
        <time>2024-08-14T11:01:00Z</time>
      </trkpt>
      <trkpt lat="44.95265" lon="6.09698">
        <ele>2114.2</ele>
        <time>2024-08-14T11:01:01Z</time>
      </trkpt>
      <trkpt lat="44.95265" lon="6.09698">
        <ele>2114.4</ele>
        <time>2024-08-14T11:01:02Z</time>
      </trkpt>
      <trkpt lat="44.95268" lon="6.097">
        <ele>2114.4</ele>
        <time>2024-08-14T11:01:03Z</time>
      </trkpt>
      <trkpt lat="44.95268" lon="6.097">
        <ele>2114.2</ele>
        <time>2024-08-14T11:01:04Z</time>
      </trkpt>
      <trkpt lat="44.95269" lon="6.09702">
        <ele>2114.2</ele>
        <time>2024-08-14T11:01:05Z</time>
      </trkpt>
      <trkpt lat="44.95269" lon="6.09702">
        <ele>2114.4</ele>
        <time>2024-08-14T11:01:06Z</time>
      </trkpt>
      <trkpt lat="44.95271" lon="6.09704">
        <ele>2114.4</ele>
        <time>2024-08-14T11:01:07Z</time>
      </trkpt>
      <trkpt lat="44.95271" lon="6.09704">
        <ele>2114.6</ele>
        <time>2024-08-14T11:01:08Z</time>
      </trkpt>
      <trkpt lat="44.95273" lon="6.09706">
        <ele>2114.8</ele>
        <time>2024-08-14T11:01:09Z</time>
      </trkpt>
      <trkpt lat="44.95273" lon="6.09706">
        <ele>2114.8</ele>
        <time>2024-08-14T11:01:10Z</time>
      </trkpt>
      <trkpt lat="44.95276" lon="6.09707">
        <ele>2114.8</ele>
        <time>2024-08-14T11:01:11Z</time>
      </trkpt>
      <trkpt lat="44.95276" lon="6.09707">
        <ele>2115.2</ele>
        <time>2024-08-14T11:01:12Z</time>
      </trkpt>
      <trkpt lat="44.95276" lon="6.09707">
        <ele>2115.4</ele>
        <time>2024-08-14T11:01:13Z</time>
      </trkpt>
      <trkpt lat="44.95278" lon="6.09709">
        <ele>2115.4</ele>
        <time>2024-08-14T11:01:14Z</time>
      </trkpt>
      <trkpt lat="44.95278" lon="6.09709">
        <ele>2115.4</ele>
        <time>2024-08-14T11:01:15Z</time>
      </trkpt>
      <trkpt lat="44.95278" lon="6.09709">
        <ele>2115.6</ele>
        <time>2024-08-14T11:01:16Z</time>
      </trkpt>
      <trkpt lat="44.95281" lon="6.0971">
        <ele>2115.8</ele>
        <time>2024-08-14T11:01:17Z</time>
      </trkpt>
      <trkpt lat="44.95281" lon="6.0971">
        <ele>2116</ele>
        <time>2024-08-14T11:01:18Z</time>
      </trkpt>
      <trkpt lat="44.95281" lon="6.0971">
        <ele>2116.2</ele>
        <time>2024-08-14T11:01:19Z</time>
      </trkpt>
      <trkpt lat="44.95283" lon="6.09711">
        <ele>2116.4</ele>
        <time>2024-08-14T11:01:20Z</time>
      </trkpt>
      <trkpt lat="44.95283" lon="6.09711">
        <ele>2116.4</ele>
        <time>2024-08-14T11:01:21Z</time>
      </trkpt>
      <trkpt lat="44.95285" lon="6.09712">
        <ele>2116.8</ele>
        <time>2024-08-14T11:01:22Z</time>
      </trkpt>
      <trkpt lat="44.95285" lon="6.09712">
        <ele>2117</ele>
        <time>2024-08-14T11:01:23Z</time>
      </trkpt>
      <trkpt lat="44.95285" lon="6.09712">
        <ele>2117</ele>
        <time>2024-08-14T11:01:24Z</time>
      </trkpt>
      <trkpt lat="44.95287" lon="6.09715">
        <ele>2117</ele>
        <time>2024-08-14T11:01:25Z</time>
      </trkpt>
      <trkpt lat="44.95287" lon="6.09715">
        <ele>2117.2</ele>
        <time>2024-08-14T11:01:26Z</time>
      </trkpt>
      <trkpt lat="44.95289" lon="6.09715">
        <ele>2117.4</ele>
        <time>2024-08-14T11:01:27Z</time>
      </trkpt>
      <trkpt lat="44.95289" lon="6.09715">
        <ele>2117.8</ele>
        <time>2024-08-14T11:01:28Z</time>
      </trkpt>
      <trkpt lat="44.95289" lon="6.09715">
        <ele>2117.8</ele>
        <time>2024-08-14T11:01:29Z</time>
      </trkpt>
      <trkpt lat="44.95291" lon="6.09717">
        <ele>2118</ele>
        <time>2024-08-14T11:01:30Z</time>
      </trkpt>
      <trkpt lat="44.95291" lon="6.09717">
        <ele>2118.2</ele>
        <time>2024-08-14T11:01:31Z</time>
      </trkpt>
      <trkpt lat="44.95291" lon="6.09717">
        <ele>2118.6</ele>
        <time>2024-08-14T11:01:32Z</time>
      </trkpt>
      <trkpt lat="44.95293" lon="6.0972">
        <ele>2119.4</ele>
        <time>2024-08-14T11:01:33Z</time>
      </trkpt>
      <trkpt lat="44.95293" lon="6.0972">
        <ele>2119.4</ele>
        <time>2024-08-14T11:01:34Z</time>
      </trkpt>
      <trkpt lat="44.95293" lon="6.0972">
        <ele>2120</ele>
        <time>2024-08-14T11:01:35Z</time>
      </trkpt>
      <trkpt lat="44.95293" lon="6.0972">
        <ele>2120</ele>
        <time>2024-08-14T11:01:36Z</time>
      </trkpt>
      <trkpt lat="44.95294" lon="6.09722">
        <ele>2120.2</ele>
        <time>2024-08-14T11:01:37Z</time>
      </trkpt>
      <trkpt lat="44.95294" lon="6.09722">
        <ele>2120.4</ele>
        <time>2024-08-14T11:01:38Z</time>
      </trkpt>
      <trkpt lat="44.95294" lon="6.09722">
        <ele>2120.8</ele>
        <time>2024-08-14T11:01:39Z</time>
      </trkpt>
      <trkpt lat="44.95294" lon="6.09722">
        <ele>2120.8</ele>
        <time>2024-08-14T11:01:40Z</time>
      </trkpt>
      <trkpt lat="44.95294" lon="6.09722">
        <ele>2120.8</ele>
        <time>2024-08-14T11:01:41Z</time>
      </trkpt>
      <trkpt lat="44.95296" lon="6.09723">
        <ele>2121.2</ele>
        <time>2024-08-14T11:01:42Z</time>
      </trkpt>
      <trkpt lat="44.95296" lon="6.09723">
        <ele>2121.4</ele>
        <time>2024-08-14T11:01:43Z</time>
      </trkpt>
      <trkpt lat="44.95296" lon="6.09723">
        <ele>2121.4</ele>
        <time>2024-08-14T11:01:44Z</time>
      </trkpt>
      <trkpt lat="44.95296" lon="6.09723">
        <ele>2121.4</ele>
        <time>2024-08-14T11:01:45Z</time>
      </trkpt>
      <trkpt lat="44.95296" lon="6.09723">
        <ele>2121.6</ele>
        <time>2024-08-14T11:01:46Z</time>
      </trkpt>
      <trkpt lat="44.95298" lon="6.09723">
        <ele>2121.6</ele>
        <time>2024-08-14T11:01:47Z</time>
      </trkpt>
      <trkpt lat="44.95298" lon="6.09723">
        <ele>2122</ele>
        <time>2024-08-14T11:01:48Z</time>
      </trkpt>
      <trkpt lat="44.953" lon="6.09723">
        <ele>2122.4</ele>
        <time>2024-08-14T11:01:49Z</time>
      </trkpt>
      <trkpt lat="44.953" lon="6.09723">
        <ele>2122.6</ele>
        <time>2024-08-14T11:01:50Z</time>
      </trkpt>
      <trkpt lat="44.95301" lon="6.09724">
        <ele>2122.8</ele>
        <time>2024-08-14T11:01:51Z</time>
      </trkpt>
      <trkpt lat="44.95301" lon="6.09724">
        <ele>2122.8</ele>
        <time>2024-08-14T11:01:52Z</time>
      </trkpt>
      <trkpt lat="44.95303" lon="6.09726">
        <ele>2122.8</ele>
        <time>2024-08-14T11:01:53Z</time>
      </trkpt>
      <trkpt lat="44.95303" lon="6.09726">
        <ele>2123</ele>
        <time>2024-08-14T11:01:54Z</time>
      </trkpt>
      <trkpt lat="44.95303" lon="6.09726">
        <ele>2123</ele>
        <time>2024-08-14T11:01:55Z</time>
      </trkpt>
      <trkpt lat="44.95304" lon="6.09729">
        <ele>2123</ele>
        <time>2024-08-14T11:01:56Z</time>
      </trkpt>
      <trkpt lat="44.95304" lon="6.09729">
        <ele>2123</ele>
        <time>2024-08-14T11:01:57Z</time>
      </trkpt>
      <trkpt lat="44.95304" lon="6.09729">
        <ele>2123</ele>
        <time>2024-08-14T11:01:58Z</time>
      </trkpt>
      <trkpt lat="44.95304" lon="6.09733">
        <ele>2123</ele>
        <time>2024-08-14T11:01:59Z</time>
      </trkpt>
      <trkpt lat="44.95304" lon="6.09733">
        <ele>2123.4</ele>
        <time>2024-08-14T11:02:00Z</time>
      </trkpt>
      <trkpt lat="44.95304" lon="6.09733">
        <ele>2123.4</ele>
        <time>2024-08-14T11:02:01Z</time>
      </trkpt>
      <trkpt lat="44.95302" lon="6.09733">
        <ele>2123.4</ele>
        <time>2024-08-14T11:02:02Z</time>
      </trkpt>
      <trkpt lat="44.95302" lon="6.09733">
        <ele>2123.4</ele>
        <time>2024-08-14T11:02:03Z</time>
      </trkpt>
      <trkpt lat="44.95302" lon="6.09733">
        <ele>2123.4</ele>
        <time>2024-08-14T11:02:04Z</time>
      </trkpt>
      <trkpt lat="44.953" lon="6.09733">
        <ele>2123.4</ele>
        <time>2024-08-14T11:02:05Z</time>
      </trkpt>
      <trkpt lat="44.953" lon="6.09733">
        <ele>2123.6</ele>
        <time>2024-08-14T11:02:06Z</time>
      </trkpt>
      <trkpt lat="44.953" lon="6.09733">
        <ele>2123.6</ele>
        <time>2024-08-14T11:02:07Z</time>
      </trkpt>
      <trkpt lat="44.95298" lon="6.09732">
        <ele>2123.8</ele>
        <time>2024-08-14T11:02:08Z</time>
      </trkpt>
      <trkpt lat="44.95298" lon="6.09732">
        <ele>2124</ele>
        <time>2024-08-14T11:02:09Z</time>
      </trkpt>
      <trkpt lat="44.95298" lon="6.09732">
        <ele>2124</ele>
        <time>2024-08-14T11:02:10Z</time>
      </trkpt>
      <trkpt lat="44.95298" lon="6.09732">
        <ele>2124</ele>
        <time>2024-08-14T11:02:11Z</time>
      </trkpt>
      <trkpt lat="44.95298" lon="6.09732">
        <ele>2123.8</ele>
        <time>2024-08-14T11:02:12Z</time>
      </trkpt>
      <trkpt lat="44.95298" lon="6.09732">
        <ele>2123.8</ele>
        <time>2024-08-14T11:02:13Z</time>
      </trkpt>
      <trkpt lat="44.95298" lon="6.09732">
        <ele>2123.8</ele>
        <time>2024-08-14T11:02:14Z</time>
      </trkpt>
      <trkpt lat="44.95298" lon="6.09732">
        <ele>2123.8</ele>
        <time>2024-08-14T11:02:15Z</time>
      </trkpt>
      <trkpt lat="44.95298" lon="6.09732">
        <ele>2123.8</ele>
        <time>2024-08-14T11:02:16Z</time>
      </trkpt>
      <trkpt lat="44.95298" lon="6.09732">
        <ele>2123.8</ele>
        <time>2024-08-14T11:02:17Z</time>
      </trkpt>
      <trkpt lat="44.95298" lon="6.09732">
        <ele>2123.8</ele>
        <time>2024-08-14T11:02:18Z</time>
      </trkpt>
      <trkpt lat="44.95297" lon="6.09734">
        <ele>2123.8</ele>
        <time>2024-08-14T11:02:19Z</time>
      </trkpt>
      <trkpt lat="44.95297" lon="6.09734">
        <ele>2123.8</ele>
        <time>2024-08-14T11:02:20Z</time>
      </trkpt>
      <trkpt lat="44.95297" lon="6.09734">
        <ele>2123.8</ele>
        <time>2024-08-14T11:02:21Z</time>
      </trkpt>
      <trkpt lat="44.95297" lon="6.09734">
        <ele>2123.8</ele>
        <time>2024-08-14T11:02:22Z</time>
      </trkpt>
      <trkpt lat="44.95297" lon="6.09734">
        <ele>2123.8</ele>
        <time>2024-08-14T11:02:23Z</time>
      </trkpt>
      <trkpt lat="44.95297" lon="6.09734">
        <ele>2123.8</ele>
        <time>2024-08-14T11:02:24Z</time>
      </trkpt>
      <trkpt lat="44.95297" lon="6.09734">
        <ele>2123.8</ele>
        <time>2024-08-14T11:02:25Z</time>
      </trkpt>
      <trkpt lat="44.95297" lon="6.09734">
        <ele>2123.8</ele>
        <time>2024-08-14T11:02:26Z</time>
      </trkpt>
      <trkpt lat="44.95297" lon="6.09734">
        <ele>2123.8</ele>
        <time>2024-08-14T11:02:27Z</time>
      </trkpt>
      <trkpt lat="44.95297" lon="6.09734">
        <ele>2123.8</ele>
        <time>2024-08-14T11:02:28Z</time>
      </trkpt>
      <trkpt lat="44.95297" lon="6.09734">
        <ele>2123.8</ele>
        <time>2024-08-14T11:02:29Z</time>
      </trkpt>
      <trkpt lat="44.95297" lon="6.09734">
        <ele>2124</ele>
        <time>2024-08-14T11:02:30Z</time>
      </trkpt>
      <trkpt lat="44.95297" lon="6.09734">
        <ele>2124.6</ele>
        <time>2024-08-14T11:02:31Z</time>
      </trkpt>
      <trkpt lat="44.95297" lon="6.09734">
        <ele>2124.8</ele>
        <time>2024-08-14T11:02:32Z</time>
      </trkpt>
      <trkpt lat="44.95297" lon="6.09734">
        <ele>2124.8</ele>
        <time>2024-08-14T11:02:33Z</time>
      </trkpt>
      <trkpt lat="44.95297" lon="6.09734">
        <ele>2124.8</ele>
        <time>2024-08-14T11:02:34Z</time>
      </trkpt>
      <trkpt lat="44.95297" lon="6.09734">
        <ele>2124.4</ele>
        <time>2024-08-14T11:02:35Z</time>
      </trkpt>
      <trkpt lat="44.95297" lon="6.09734">
        <ele>2124.4</ele>
        <time>2024-08-14T11:02:36Z</time>
      </trkpt>
      <trkpt lat="44.95297" lon="6.09734">
        <ele>2124.6</ele>
        <time>2024-08-14T11:02:37Z</time>
      </trkpt>
      <trkpt lat="44.95297" lon="6.09734">
        <ele>2124.6</ele>
        <time>2024-08-14T11:02:38Z</time>
      </trkpt>
      <trkpt lat="44.95297" lon="6.09734">
        <ele>2124.6</ele>
        <time>2024-08-14T11:02:39Z</time>
      </trkpt>
      <trkpt lat="44.95297" lon="6.09734">
        <ele>2124.6</ele>
        <time>2024-08-14T11:02:40Z</time>
      </trkpt>
      <trkpt lat="44.95297" lon="6.09734">
        <ele>2124.6</ele>
        <time>2024-08-14T11:02:41Z</time>
      </trkpt>
      <trkpt lat="44.95297" lon="6.09734">
        <ele>2124.6</ele>
        <time>2024-08-14T11:02:42Z</time>
      </trkpt>
      <trkpt lat="44.95297" lon="6.09734">
        <ele>2124.8</ele>
        <time>2024-08-14T11:02:43Z</time>
      </trkpt>
      <trkpt lat="44.95297" lon="6.09734">
        <ele>2124.8</ele>
        <time>2024-08-14T11:02:44Z</time>
      </trkpt>
      <trkpt lat="44.95297" lon="6.09734">
        <ele>2124.8</ele>
        <time>2024-08-14T11:02:45Z</time>
      </trkpt>
      <trkpt lat="44.95297" lon="6.09734">
        <ele>2125</ele>
        <time>2024-08-14T11:02:46Z</time>
      </trkpt>
      <trkpt lat="44.95297" lon="6.09734">
        <ele>2125</ele>
        <time>2024-08-14T11:02:47Z</time>
      </trkpt>
      <trkpt lat="44.95297" lon="6.09734">
        <ele>2125</ele>
        <time>2024-08-14T11:02:48Z</time>
      </trkpt>
      <trkpt lat="44.95297" lon="6.09734">
        <ele>2124.8</ele>
        <time>2024-08-14T11:02:49Z</time>
      </trkpt>
      <trkpt lat="44.95297" lon="6.09734">
        <ele>2124.8</ele>
        <time>2024-08-14T11:02:50Z</time>
      </trkpt>
      <trkpt lat="44.95297" lon="6.09734">
        <ele>2124.8</ele>
        <time>2024-08-14T11:02:51Z</time>
      </trkpt>
      <trkpt lat="44.95297" lon="6.09734">
        <ele>2125</ele>
        <time>2024-08-14T11:02:52Z</time>
      </trkpt>
      <trkpt lat="44.95297" lon="6.09734">
        <ele>2125</ele>
        <time>2024-08-14T11:02:53Z</time>
      </trkpt>
      <trkpt lat="44.95297" lon="6.09734">
        <ele>2124.8</ele>
        <time>2024-08-14T11:02:54Z</time>
      </trkpt>
      <trkpt lat="44.95297" lon="6.09734">
        <ele>2124.6</ele>
        <time>2024-08-14T11:02:55Z</time>
      </trkpt>
      <trkpt lat="44.95297" lon="6.09734">
        <ele>2124.6</ele>
        <time>2024-08-14T11:02:56Z</time>
      </trkpt>
      <trkpt lat="44.95297" lon="6.09734">
        <ele>2124.6</ele>
        <time>2024-08-14T11:02:57Z</time>
      </trkpt>
      <trkpt lat="44.95297" lon="6.09734">
        <ele>2124.6</ele>
        <time>2024-08-14T11:02:58Z</time>
      </trkpt>
      <trkpt lat="44.95297" lon="6.09734">
        <ele>2125</ele>
        <time>2024-08-14T11:02:59Z</time>
      </trkpt>
      <trkpt lat="44.95297" lon="6.09734">
        <ele>2125</ele>
        <time>2024-08-14T11:03:00Z</time>
      </trkpt>
      <trkpt lat="44.95297" lon="6.09734">
        <ele>2125</ele>
        <time>2024-08-14T11:03:01Z</time>
      </trkpt>
      <trkpt lat="44.95297" lon="6.09734">
        <ele>2125</ele>
        <time>2024-08-14T11:03:02Z</time>
      </trkpt>
      <trkpt lat="44.95297" lon="6.09734">
        <ele>2125</ele>
        <time>2024-08-14T11:03:03Z</time>
      </trkpt>
      <trkpt lat="44.95297" lon="6.09734">
        <ele>2124.8</ele>
        <time>2024-08-14T11:03:04Z</time>
      </trkpt>
      <trkpt lat="44.95297" lon="6.09734">
        <ele>2124.6</ele>
        <time>2024-08-14T11:03:05Z</time>
      </trkpt>
      <trkpt lat="44.95297" lon="6.09734">
        <ele>2124.4</ele>
        <time>2024-08-14T11:03:06Z</time>
      </trkpt>
      <trkpt lat="44.95297" lon="6.09734">
        <ele>2124.4</ele>
        <time>2024-08-14T11:03:07Z</time>
      </trkpt>
      <trkpt lat="44.95297" lon="6.09734">
        <ele>2124.6</ele>
        <time>2024-08-14T11:03:08Z</time>
      </trkpt>
      <trkpt lat="44.95297" lon="6.09734">
        <ele>2124.6</ele>
        <time>2024-08-14T11:03:09Z</time>
      </trkpt>
      <trkpt lat="44.95297" lon="6.09734">
        <ele>2124.6</ele>
        <time>2024-08-14T11:03:10Z</time>
      </trkpt>
      <trkpt lat="44.95297" lon="6.09734">
        <ele>2124.8</ele>
        <time>2024-08-14T11:03:11Z</time>
      </trkpt>
      <trkpt lat="44.95297" lon="6.09734">
        <ele>2124.8</ele>
        <time>2024-08-14T11:03:12Z</time>
      </trkpt>
      <trkpt lat="44.95297" lon="6.09734">
        <ele>2125</ele>
        <time>2024-08-14T11:03:13Z</time>
      </trkpt>
      <trkpt lat="44.95297" lon="6.09734">
        <ele>2125</ele>
        <time>2024-08-14T11:03:14Z</time>
      </trkpt>
      <trkpt lat="44.95297" lon="6.09734">
        <ele>2125.4</ele>
        <time>2024-08-14T11:03:15Z</time>
      </trkpt>
      <trkpt lat="44.95297" lon="6.09734">
        <ele>2125.4</ele>
        <time>2024-08-14T11:03:16Z</time>
      </trkpt>
      <trkpt lat="44.95297" lon="6.09734">
        <ele>2125.4</ele>
        <time>2024-08-14T11:03:17Z</time>
      </trkpt>
      <trkpt lat="44.95297" lon="6.09734">
        <ele>2125.4</ele>
        <time>2024-08-14T11:03:18Z</time>
      </trkpt>
      <trkpt lat="44.95297" lon="6.09734">
        <ele>2125.2</ele>
        <time>2024-08-14T11:03:19Z</time>
      </trkpt>
      <trkpt lat="44.95297" lon="6.09734">
        <ele>2125.2</ele>
        <time>2024-08-14T11:03:20Z</time>
      </trkpt>
      <trkpt lat="44.95297" lon="6.09734">
        <ele>2124.8</ele>
        <time>2024-08-14T11:03:21Z</time>
      </trkpt>
      <trkpt lat="44.95297" lon="6.09734">
        <ele>2124.8</ele>
        <time>2024-08-14T11:03:22Z</time>
      </trkpt>
      <trkpt lat="44.95297" lon="6.09734">
        <ele>2125</ele>
        <time>2024-08-14T11:03:23Z</time>
      </trkpt>
      <trkpt lat="44.95297" lon="6.09734">
        <ele>2125</ele>
        <time>2024-08-14T11:03:24Z</time>
      </trkpt>
      <trkpt lat="44.95297" lon="6.09734">
        <ele>2125.2</ele>
        <time>2024-08-14T11:03:25Z</time>
      </trkpt>
      <trkpt lat="44.95297" lon="6.09734">
        <ele>2125.2</ele>
        <time>2024-08-14T11:03:26Z</time>
      </trkpt>
      <trkpt lat="44.95297" lon="6.09734">
        <ele>2125.2</ele>
        <time>2024-08-14T11:03:27Z</time>
      </trkpt>
      <trkpt lat="44.95297" lon="6.09734">
        <ele>2124.6</ele>
        <time>2024-08-14T11:03:28Z</time>
      </trkpt>
      <trkpt lat="44.95297" lon="6.09734">
        <ele>2124.8</ele>
        <time>2024-08-14T11:03:29Z</time>
      </trkpt>
      <trkpt lat="44.95297" lon="6.09734">
        <ele>2124.8</ele>
        <time>2024-08-14T11:03:30Z</time>
      </trkpt>
      <trkpt lat="44.95297" lon="6.09734">
        <ele>2124.8</ele>
        <time>2024-08-14T11:03:31Z</time>
      </trkpt>
      <trkpt lat="44.95297" lon="6.09734">
        <ele>2124.8</ele>
        <time>2024-08-14T11:03:32Z</time>
      </trkpt>
      <trkpt lat="44.95297" lon="6.09734">
        <ele>2124.8</ele>
        <time>2024-08-14T11:03:33Z</time>
      </trkpt>
      <trkpt lat="44.95297" lon="6.09734">
        <ele>2124.8</ele>
        <time>2024-08-14T11:03:34Z</time>
      </trkpt>
      <trkpt lat="44.95297" lon="6.09734">
        <ele>2124.8</ele>
        <time>2024-08-14T11:03:35Z</time>
      </trkpt>
      <trkpt lat="44.95297" lon="6.09734">
        <ele>2124.8</ele>
        <time>2024-08-14T11:03:36Z</time>
      </trkpt>
      <trkpt lat="44.95297" lon="6.09734">
        <ele>2125</ele>
        <time>2024-08-14T11:03:37Z</time>
      </trkpt>
      <trkpt lat="44.95297" lon="6.09734">
        <ele>2125.2</ele>
        <time>2024-08-14T11:03:38Z</time>
      </trkpt>
      <trkpt lat="44.95297" lon="6.09734">
        <ele>2125.2</ele>
        <time>2024-08-14T11:03:39Z</time>
      </trkpt>
      <trkpt lat="44.95297" lon="6.09734">
        <ele>2125.2</ele>
        <time>2024-08-14T11:03:40Z</time>
      </trkpt>
      <trkpt lat="44.95297" lon="6.09734">
        <ele>2125.2</ele>
        <time>2024-08-14T11:03:41Z</time>
      </trkpt>
      <trkpt lat="44.95297" lon="6.09734">
        <ele>2125.2</ele>
        <time>2024-08-14T11:03:42Z</time>
      </trkpt>
      <trkpt lat="44.95297" lon="6.09734">
        <ele>2125.6</ele>
        <time>2024-08-14T11:03:43Z</time>
      </trkpt>
      <trkpt lat="44.95297" lon="6.09734">
        <ele>2125.6</ele>
        <time>2024-08-14T11:03:44Z</time>
      </trkpt>
      <trkpt lat="44.95297" lon="6.09734">
        <ele>2125.6</ele>
        <time>2024-08-14T11:03:45Z</time>
      </trkpt>
      <trkpt lat="44.95297" lon="6.09734">
        <ele>2125.6</ele>
        <time>2024-08-14T11:03:46Z</time>
      </trkpt>
      <trkpt lat="44.95297" lon="6.09734">
        <ele>2125.6</ele>
        <time>2024-08-14T11:03:47Z</time>
      </trkpt>
      <trkpt lat="44.95297" lon="6.09734">
        <ele>2125.2</ele>
        <time>2024-08-14T11:03:48Z</time>
      </trkpt>
      <trkpt lat="44.95297" lon="6.09734">
        <ele>2125</ele>
        <time>2024-08-14T11:03:49Z</time>
      </trkpt>
      <trkpt lat="44.95297" lon="6.09734">
        <ele>2125</ele>
        <time>2024-08-14T11:03:50Z</time>
      </trkpt>
      <trkpt lat="44.95297" lon="6.09734">
        <ele>2125</ele>
        <time>2024-08-14T11:03:51Z</time>
      </trkpt>
      <trkpt lat="44.95297" lon="6.09734">
        <ele>2125</ele>
        <time>2024-08-14T11:03:52Z</time>
      </trkpt>
      <trkpt lat="44.95297" lon="6.09734">
        <ele>2125</ele>
        <time>2024-08-14T11:03:53Z</time>
      </trkpt>
      <trkpt lat="44.95297" lon="6.09734">
        <ele>2125</ele>
        <time>2024-08-14T11:03:54Z</time>
      </trkpt>
      <trkpt lat="44.95297" lon="6.09734">
        <ele>2125.2</ele>
        <time>2024-08-14T11:03:55Z</time>
      </trkpt>
      <trkpt lat="44.95297" lon="6.09734">
        <ele>2125.2</ele>
        <time>2024-08-14T11:03:56Z</time>
      </trkpt>
      <trkpt lat="44.95297" lon="6.09734">
        <ele>2125.2</ele>
        <time>2024-08-14T11:03:57Z</time>
      </trkpt>
      <trkpt lat="44.95297" lon="6.09734">
        <ele>2125.2</ele>
        <time>2024-08-14T11:03:58Z</time>
      </trkpt>
      <trkpt lat="44.95297" lon="6.09734">
        <ele>2125.2</ele>
        <time>2024-08-14T11:03:59Z</time>
      </trkpt>
      <trkpt lat="44.95297" lon="6.09734">
        <ele>2125.2</ele>
        <time>2024-08-14T11:04:00Z</time>
      </trkpt>
      <trkpt lat="44.95297" lon="6.09734">
        <ele>2125.2</ele>
        <time>2024-08-14T11:04:01Z</time>
      </trkpt>
      <trkpt lat="44.95297" lon="6.09734">
        <ele>2125.2</ele>
        <time>2024-08-14T11:04:02Z</time>
      </trkpt>
      <trkpt lat="44.95297" lon="6.09734">
        <ele>2125.2</ele>
        <time>2024-08-14T11:04:03Z</time>
      </trkpt>
      <trkpt lat="44.95297" lon="6.09734">
        <ele>2125.2</ele>
        <time>2024-08-14T11:04:04Z</time>
      </trkpt>
      <trkpt lat="44.95297" lon="6.09734">
        <ele>2125.2</ele>
        <time>2024-08-14T11:04:05Z</time>
      </trkpt>
      <trkpt lat="44.95297" lon="6.09734">
        <ele>2125.2</ele>
        <time>2024-08-14T11:04:06Z</time>
      </trkpt>
      <trkpt lat="44.95297" lon="6.09734">
        <ele>2125</ele>
        <time>2024-08-14T11:04:07Z</time>
      </trkpt>
      <trkpt lat="44.95297" lon="6.09734">
        <ele>2125</ele>
        <time>2024-08-14T11:04:08Z</time>
      </trkpt>
      <trkpt lat="44.95297" lon="6.09734">
        <ele>2125.2</ele>
        <time>2024-08-14T11:04:09Z</time>
      </trkpt>
      <trkpt lat="44.95297" lon="6.09734">
        <ele>2125.2</ele>
        <time>2024-08-14T11:04:10Z</time>
      </trkpt>
      <trkpt lat="44.95297" lon="6.09734">
        <ele>2125</ele>
        <time>2024-08-14T11:04:11Z</time>
      </trkpt>
      <trkpt lat="44.95297" lon="6.09734">
        <ele>2125</ele>
        <time>2024-08-14T11:04:12Z</time>
      </trkpt>
      <trkpt lat="44.95297" lon="6.09734">
        <ele>2125</ele>
        <time>2024-08-14T11:04:13Z</time>
      </trkpt>
      <trkpt lat="44.95297" lon="6.09734">
        <ele>2125</ele>
        <time>2024-08-14T11:04:14Z</time>
      </trkpt>
      <trkpt lat="44.95297" lon="6.09734">
        <ele>2125</ele>
        <time>2024-08-14T11:04:15Z</time>
      </trkpt>
      <trkpt lat="44.95297" lon="6.09734">
        <ele>2125</ele>
        <time>2024-08-14T11:04:16Z</time>
      </trkpt>
      <trkpt lat="44.95297" lon="6.09734">
        <ele>2125</ele>
        <time>2024-08-14T11:04:17Z</time>
      </trkpt>
      <trkpt lat="44.95297" lon="6.09734">
        <ele>2125</ele>
        <time>2024-08-14T11:04:18Z</time>
      </trkpt>
      <trkpt lat="44.95297" lon="6.09734">
        <ele>2125</ele>
        <time>2024-08-14T11:04:19Z</time>
      </trkpt>
      <trkpt lat="44.95297" lon="6.09734">
        <ele>2124.8</ele>
        <time>2024-08-14T11:04:20Z</time>
      </trkpt>
      <trkpt lat="44.95297" lon="6.09734">
        <ele>2124.8</ele>
        <time>2024-08-14T11:04:21Z</time>
      </trkpt>
      <trkpt lat="44.95297" lon="6.09734">
        <ele>2124.8</ele>
        <time>2024-08-14T11:04:22Z</time>
      </trkpt>
      <trkpt lat="44.95297" lon="6.09734">
        <ele>2124.8</ele>
        <time>2024-08-14T11:04:23Z</time>
      </trkpt>
      <trkpt lat="44.95297" lon="6.09734">
        <ele>2124.8</ele>
        <time>2024-08-14T11:04:24Z</time>
      </trkpt>
      <trkpt lat="44.95297" lon="6.09734">
        <ele>2124.8</ele>
        <time>2024-08-14T11:04:25Z</time>
      </trkpt>
      <trkpt lat="44.95297" lon="6.09734">
        <ele>2124.8</ele>
        <time>2024-08-14T11:04:26Z</time>
      </trkpt>
      <trkpt lat="44.95297" lon="6.09734">
        <ele>2124.8</ele>
        <time>2024-08-14T11:04:27Z</time>
      </trkpt>
      <trkpt lat="44.95297" lon="6.09734">
        <ele>2124.8</ele>
        <time>2024-08-14T11:04:28Z</time>
      </trkpt>
      <trkpt lat="44.95297" lon="6.09734">
        <ele>2124.8</ele>
        <time>2024-08-14T11:04:29Z</time>
      </trkpt>
      <trkpt lat="44.95297" lon="6.09734">
        <ele>2124.8</ele>
        <time>2024-08-14T11:04:30Z</time>
      </trkpt>
      <trkpt lat="44.95297" lon="6.09734">
        <ele>2124.8</ele>
        <time>2024-08-14T11:04:31Z</time>
      </trkpt>
      <trkpt lat="44.95297" lon="6.09734">
        <ele>2124.8</ele>
        <time>2024-08-14T11:04:32Z</time>
      </trkpt>
      <trkpt lat="44.95297" lon="6.09734">
        <ele>2124.8</ele>
        <time>2024-08-14T11:04:33Z</time>
      </trkpt>
      <trkpt lat="44.95297" lon="6.09734">
        <ele>2125</ele>
        <time>2024-08-14T11:04:34Z</time>
      </trkpt>
      <trkpt lat="44.95297" lon="6.09734">
        <ele>2125</ele>
        <time>2024-08-14T11:04:35Z</time>
      </trkpt>
      <trkpt lat="44.95297" lon="6.09734">
        <ele>2124.8</ele>
        <time>2024-08-14T11:04:36Z</time>
      </trkpt>
      <trkpt lat="44.95297" lon="6.09734">
        <ele>2124.8</ele>
        <time>2024-08-14T11:04:37Z</time>
      </trkpt>
      <trkpt lat="44.95297" lon="6.09734">
        <ele>2124.8</ele>
        <time>2024-08-14T11:04:38Z</time>
      </trkpt>
      <trkpt lat="44.95297" lon="6.09734">
        <ele>2124.8</ele>
        <time>2024-08-14T11:04:39Z</time>
      </trkpt>
      <trkpt lat="44.95297" lon="6.09734">
        <ele>2125</ele>
        <time>2024-08-14T11:04:40Z</time>
      </trkpt>
      <trkpt lat="44.95297" lon="6.09734">
        <ele>2125</ele>
        <time>2024-08-14T11:04:41Z</time>
      </trkpt>
      <trkpt lat="44.95297" lon="6.09734">
        <ele>2125</ele>
        <time>2024-08-14T11:04:42Z</time>
      </trkpt>
      <trkpt lat="44.95297" lon="6.09734">
        <ele>2125.2</ele>
        <time>2024-08-14T11:04:43Z</time>
      </trkpt>
      <trkpt lat="44.95297" lon="6.09734">
        <ele>2125.2</ele>
        <time>2024-08-14T11:04:44Z</time>
      </trkpt>
      <trkpt lat="44.95297" lon="6.09734">
        <ele>2125</ele>
        <time>2024-08-14T11:04:45Z</time>
      </trkpt>
      <trkpt lat="44.95297" lon="6.09734">
        <ele>2125</ele>
        <time>2024-08-14T11:04:46Z</time>
      </trkpt>
      <trkpt lat="44.95297" lon="6.09734">
        <ele>2124.8</ele>
        <time>2024-08-14T11:04:47Z</time>
      </trkpt>
      <trkpt lat="44.95297" lon="6.09734">
        <ele>2124.8</ele>
        <time>2024-08-14T11:04:48Z</time>
      </trkpt>
      <trkpt lat="44.95297" lon="6.09734">
        <ele>2125</ele>
        <time>2024-08-14T11:04:49Z</time>
      </trkpt>
      <trkpt lat="44.95297" lon="6.09734">
        <ele>2125</ele>
        <time>2024-08-14T11:04:50Z</time>
      </trkpt>
      <trkpt lat="44.95297" lon="6.09734">
        <ele>2125</ele>
        <time>2024-08-14T11:04:51Z</time>
      </trkpt>
      <trkpt lat="44.95297" lon="6.09734">
        <ele>2125</ele>
        <time>2024-08-14T11:04:52Z</time>
      </trkpt>
      <trkpt lat="44.95297" lon="6.09734">
        <ele>2125</ele>
        <time>2024-08-14T11:04:53Z</time>
      </trkpt>
      <trkpt lat="44.95297" lon="6.09734">
        <ele>2125</ele>
        <time>2024-08-14T11:04:54Z</time>
      </trkpt>
      <trkpt lat="44.95297" lon="6.09734">
        <ele>2125.2</ele>
        <time>2024-08-14T11:04:55Z</time>
      </trkpt>
      <trkpt lat="44.95297" lon="6.09734">
        <ele>2125.2</ele>
        <time>2024-08-14T11:04:56Z</time>
      </trkpt>
      <trkpt lat="44.95297" lon="6.09734">
        <ele>2125</ele>
        <time>2024-08-14T11:04:57Z</time>
      </trkpt>
      <trkpt lat="44.95297" lon="6.09734">
        <ele>2125</ele>
        <time>2024-08-14T11:04:58Z</time>
      </trkpt>
      <trkpt lat="44.95297" lon="6.09734">
        <ele>2125</ele>
        <time>2024-08-14T11:04:59Z</time>
      </trkpt>
      <trkpt lat="44.95297" lon="6.09734">
        <ele>2125</ele>
        <time>2024-08-14T11:05:00Z</time>
      </trkpt>
      <trkpt lat="44.95297" lon="6.09734">
        <ele>2125</ele>
        <time>2024-08-14T11:05:01Z</time>
      </trkpt>
      <trkpt lat="44.95297" lon="6.09734">
        <ele>2124.8</ele>
        <time>2024-08-14T11:05:02Z</time>
      </trkpt>
      <trkpt lat="44.95297" lon="6.09734">
        <ele>2124.8</ele>
        <time>2024-08-14T11:05:03Z</time>
      </trkpt>
      <trkpt lat="44.95297" lon="6.09734">
        <ele>2125</ele>
        <time>2024-08-14T11:05:04Z</time>
      </trkpt>
      <trkpt lat="44.95297" lon="6.09734">
        <ele>2125</ele>
        <time>2024-08-14T11:05:05Z</time>
      </trkpt>
      <trkpt lat="44.95297" lon="6.09734">
        <ele>2124.8</ele>
        <time>2024-08-14T11:05:06Z</time>
      </trkpt>
      <trkpt lat="44.95297" lon="6.09734">
        <ele>2124.8</ele>
        <time>2024-08-14T11:05:07Z</time>
      </trkpt>
      <trkpt lat="44.95297" lon="6.09734">
        <ele>2124.8</ele>
        <time>2024-08-14T11:05:08Z</time>
      </trkpt>
      <trkpt lat="44.95297" lon="6.09734">
        <ele>2124.8</ele>
        <time>2024-08-14T11:05:09Z</time>
      </trkpt>
      <trkpt lat="44.95297" lon="6.09734">
        <ele>2125.2</ele>
        <time>2024-08-14T11:05:10Z</time>
      </trkpt>
      <trkpt lat="44.95297" lon="6.09734">
        <ele>2125.2</ele>
        <time>2024-08-14T11:05:11Z</time>
      </trkpt>
      <trkpt lat="44.95297" lon="6.09734">
        <ele>2125.2</ele>
        <time>2024-08-14T11:05:12Z</time>
      </trkpt>
      <trkpt lat="44.95297" lon="6.09734">
        <ele>2125</ele>
        <time>2024-08-14T11:05:13Z</time>
      </trkpt>
      <trkpt lat="44.95297" lon="6.09734">
        <ele>2125</ele>
        <time>2024-08-14T11:05:14Z</time>
      </trkpt>
      <trkpt lat="44.95297" lon="6.09734">
        <ele>2125</ele>
        <time>2024-08-14T11:05:15Z</time>
      </trkpt>
      <trkpt lat="44.95297" lon="6.09734">
        <ele>2125</ele>
        <time>2024-08-14T11:05:16Z</time>
      </trkpt>
      <trkpt lat="44.95297" lon="6.09734">
        <ele>2125.4</ele>
        <time>2024-08-14T11:05:17Z</time>
      </trkpt>
      <trkpt lat="44.95297" lon="6.09734">
        <ele>2125.4</ele>
        <time>2024-08-14T11:05:18Z</time>
      </trkpt>
      <trkpt lat="44.95297" lon="6.09734">
        <ele>2125.4</ele>
        <time>2024-08-14T11:05:19Z</time>
      </trkpt>
      <trkpt lat="44.95297" lon="6.09734">
        <ele>2125.4</ele>
        <time>2024-08-14T11:05:20Z</time>
      </trkpt>
      <trkpt lat="44.95297" lon="6.09734">
        <ele>2125.4</ele>
        <time>2024-08-14T11:05:21Z</time>
      </trkpt>
      <trkpt lat="44.95297" lon="6.09734">
        <ele>2125.4</ele>
        <time>2024-08-14T11:05:22Z</time>
      </trkpt>
      <trkpt lat="44.95297" lon="6.09734">
        <ele>2124.6</ele>
        <time>2024-08-14T11:05:23Z</time>
      </trkpt>
      <trkpt lat="44.95297" lon="6.09734">
        <ele>2124.6</ele>
        <time>2024-08-14T11:05:24Z</time>
      </trkpt>
      <trkpt lat="44.95297" lon="6.09734">
        <ele>2124.6</ele>
        <time>2024-08-14T11:05:25Z</time>
      </trkpt>
      <trkpt lat="44.95297" lon="6.09734">
        <ele>2124.6</ele>
        <time>2024-08-14T11:05:26Z</time>
      </trkpt>
      <trkpt lat="44.95297" lon="6.09734">
        <ele>2124.6</ele>
        <time>2024-08-14T11:05:27Z</time>
      </trkpt>
      <trkpt lat="44.95297" lon="6.09734">
        <ele>2124.6</ele>
        <time>2024-08-14T11:05:28Z</time>
      </trkpt>
      <trkpt lat="44.95297" lon="6.09734">
        <ele>2124.6</ele>
        <time>2024-08-14T11:05:29Z</time>
      </trkpt>
      <trkpt lat="44.95297" lon="6.09734">
        <ele>2124.6</ele>
        <time>2024-08-14T11:05:30Z</time>
      </trkpt>
      <trkpt lat="44.95297" lon="6.09734">
        <ele>2124.6</ele>
        <time>2024-08-14T11:05:31Z</time>
      </trkpt>
      <trkpt lat="44.95297" lon="6.09734">
        <ele>2124.4</ele>
        <time>2024-08-14T11:05:32Z</time>
      </trkpt>
      <trkpt lat="44.95297" lon="6.09734">
        <ele>2124.4</ele>
        <time>2024-08-14T11:05:33Z</time>
      </trkpt>
      <trkpt lat="44.95297" lon="6.09734">
        <ele>2124.6</ele>
        <time>2024-08-14T11:05:34Z</time>
      </trkpt>
      <trkpt lat="44.95297" lon="6.09734">
        <ele>2124.8</ele>
        <time>2024-08-14T11:05:35Z</time>
      </trkpt>
      <trkpt lat="44.95297" lon="6.09734">
        <ele>2124.8</ele>
        <time>2024-08-14T11:05:36Z</time>
      </trkpt>
      <trkpt lat="44.95297" lon="6.09734">
        <ele>2124.8</ele>
        <time>2024-08-14T11:05:37Z</time>
      </trkpt>
      <trkpt lat="44.95297" lon="6.09734">
        <ele>2124.6</ele>
        <time>2024-08-14T11:05:38Z</time>
      </trkpt>
      <trkpt lat="44.95297" lon="6.09734">
        <ele>2124.8</ele>
        <time>2024-08-14T11:05:39Z</time>
      </trkpt>
      <trkpt lat="44.95297" lon="6.09734">
        <ele>2124.8</ele>
        <time>2024-08-14T11:05:40Z</time>
      </trkpt>
      <trkpt lat="44.95297" lon="6.09734">
        <ele>2124.8</ele>
        <time>2024-08-14T11:05:41Z</time>
      </trkpt>
      <trkpt lat="44.95297" lon="6.09734">
        <ele>2124.6</ele>
        <time>2024-08-14T11:05:42Z</time>
      </trkpt>
      <trkpt lat="44.95297" lon="6.09734">
        <ele>2124.6</ele>
        <time>2024-08-14T11:05:43Z</time>
      </trkpt>
      <trkpt lat="44.95297" lon="6.09734">
        <ele>2124.8</ele>
        <time>2024-08-14T11:05:44Z</time>
      </trkpt>
      <trkpt lat="44.95297" lon="6.09734">
        <ele>2124.8</ele>
        <time>2024-08-14T11:05:45Z</time>
      </trkpt>
      <trkpt lat="44.95297" lon="6.09734">
        <ele>2124.8</ele>
        <time>2024-08-14T11:05:46Z</time>
      </trkpt>
      <trkpt lat="44.95297" lon="6.09734">
        <ele>2124.8</ele>
        <time>2024-08-14T11:05:47Z</time>
      </trkpt>
      <trkpt lat="44.95297" lon="6.09734">
        <ele>2124.8</ele>
        <time>2024-08-14T11:05:48Z</time>
      </trkpt>
      <trkpt lat="44.95297" lon="6.09734">
        <ele>2124.8</ele>
        <time>2024-08-14T11:05:49Z</time>
      </trkpt>
      <trkpt lat="44.95297" lon="6.09734">
        <ele>2125</ele>
        <time>2024-08-14T11:05:50Z</time>
      </trkpt>
      <trkpt lat="44.95297" lon="6.09734">
        <ele>2125</ele>
        <time>2024-08-14T11:05:51Z</time>
      </trkpt>
      <trkpt lat="44.95297" lon="6.09734">
        <ele>2125</ele>
        <time>2024-08-14T11:05:52Z</time>
      </trkpt>
      <trkpt lat="44.95297" lon="6.09734">
        <ele>2124.6</ele>
        <time>2024-08-14T11:05:53Z</time>
      </trkpt>
      <trkpt lat="44.95297" lon="6.09734">
        <ele>2124.6</ele>
        <time>2024-08-14T11:05:54Z</time>
      </trkpt>
      <trkpt lat="44.95297" lon="6.09734">
        <ele>2124.8</ele>
        <time>2024-08-14T11:05:55Z</time>
      </trkpt>
      <trkpt lat="44.95297" lon="6.09734">
        <ele>2124.8</ele>
        <time>2024-08-14T11:05:56Z</time>
      </trkpt>
      <trkpt lat="44.95297" lon="6.09734">
        <ele>2124.8</ele>
        <time>2024-08-14T11:05:57Z</time>
      </trkpt>
      <trkpt lat="44.95297" lon="6.09734">
        <ele>2124.8</ele>
        <time>2024-08-14T11:05:58Z</time>
      </trkpt>
      <trkpt lat="44.95297" lon="6.09734">
        <ele>2124.8</ele>
        <time>2024-08-14T11:05:59Z</time>
      </trkpt>
      <trkpt lat="44.95297" lon="6.09734">
        <ele>2124.8</ele>
        <time>2024-08-14T11:06:00Z</time>
      </trkpt>
      <trkpt lat="44.95297" lon="6.09734">
        <ele>2124.8</ele>
        <time>2024-08-14T11:06:01Z</time>
      </trkpt>
      <trkpt lat="44.95297" lon="6.09734">
        <ele>2124.8</ele>
        <time>2024-08-14T11:06:02Z</time>
      </trkpt>
      <trkpt lat="44.95297" lon="6.09734">
        <ele>2124.8</ele>
        <time>2024-08-14T11:06:03Z</time>
      </trkpt>
      <trkpt lat="44.95297" lon="6.09734">
        <ele>2124.8</ele>
        <time>2024-08-14T11:06:04Z</time>
      </trkpt>
      <trkpt lat="44.95297" lon="6.09734">
        <ele>2124.8</ele>
        <time>2024-08-14T11:06:05Z</time>
      </trkpt>
      <trkpt lat="44.95297" lon="6.09734">
        <ele>2124.8</ele>
        <time>2024-08-14T11:06:06Z</time>
      </trkpt>
      <trkpt lat="44.95297" lon="6.09734">
        <ele>2124.8</ele>
        <time>2024-08-14T11:06:07Z</time>
      </trkpt>
      <trkpt lat="44.95297" lon="6.09734">
        <ele>2124.8</ele>
        <time>2024-08-14T11:06:08Z</time>
      </trkpt>
      <trkpt lat="44.95297" lon="6.09734">
        <ele>2124.8</ele>
        <time>2024-08-14T11:06:09Z</time>
      </trkpt>
      <trkpt lat="44.95297" lon="6.09734">
        <ele>2124.8</ele>
        <time>2024-08-14T11:06:10Z</time>
      </trkpt>
      <trkpt lat="44.95297" lon="6.09734">
        <ele>2124.8</ele>
        <time>2024-08-14T11:06:11Z</time>
      </trkpt>
      <trkpt lat="44.95297" lon="6.09734">
        <ele>2124.8</ele>
        <time>2024-08-14T11:06:12Z</time>
      </trkpt>
      <trkpt lat="44.95297" lon="6.09734">
        <ele>2124.8</ele>
        <time>2024-08-14T11:06:13Z</time>
      </trkpt>
      <trkpt lat="44.95297" lon="6.09734">
        <ele>2124.8</ele>
        <time>2024-08-14T11:06:14Z</time>
      </trkpt>
      <trkpt lat="44.95297" lon="6.09734">
        <ele>2124.8</ele>
        <time>2024-08-14T11:06:15Z</time>
      </trkpt>
      <trkpt lat="44.95297" lon="6.09734">
        <ele>2125</ele>
        <time>2024-08-14T11:06:16Z</time>
      </trkpt>
      <trkpt lat="44.95297" lon="6.09734">
        <ele>2125</ele>
        <time>2024-08-14T11:06:17Z</time>
      </trkpt>
      <trkpt lat="44.95297" lon="6.09734">
        <ele>2125</ele>
        <time>2024-08-14T11:06:18Z</time>
      </trkpt>
      <trkpt lat="44.95297" lon="6.09734">
        <ele>2124.8</ele>
        <time>2024-08-14T11:06:19Z</time>
      </trkpt>
      <trkpt lat="44.95297" lon="6.09734">
        <ele>2124.8</ele>
        <time>2024-08-14T11:06:20Z</time>
      </trkpt>
      <trkpt lat="44.95297" lon="6.09734">
        <ele>2125</ele>
        <time>2024-08-14T11:06:21Z</time>
      </trkpt>
      <trkpt lat="44.95297" lon="6.09734">
        <ele>2125</ele>
        <time>2024-08-14T11:06:22Z</time>
      </trkpt>
      <trkpt lat="44.95297" lon="6.09734">
        <ele>2124.8</ele>
        <time>2024-08-14T11:06:23Z</time>
      </trkpt>
      <trkpt lat="44.95297" lon="6.09734">
        <ele>2124.8</ele>
        <time>2024-08-14T11:06:24Z</time>
      </trkpt>
      <trkpt lat="44.95297" lon="6.09734">
        <ele>2124.8</ele>
        <time>2024-08-14T11:06:25Z</time>
      </trkpt>
      <trkpt lat="44.95297" lon="6.09734">
        <ele>2124.8</ele>
        <time>2024-08-14T11:06:26Z</time>
      </trkpt>
      <trkpt lat="44.95297" lon="6.09734">
        <ele>2125</ele>
        <time>2024-08-14T11:06:27Z</time>
      </trkpt>
      <trkpt lat="44.95297" lon="6.09734">
        <ele>2125</ele>
        <time>2024-08-14T11:06:28Z</time>
      </trkpt>
      <trkpt lat="44.95297" lon="6.09734">
        <ele>2125</ele>
        <time>2024-08-14T11:06:29Z</time>
      </trkpt>
      <trkpt lat="44.95297" lon="6.09734">
        <ele>2124.8</ele>
        <time>2024-08-14T11:06:30Z</time>
      </trkpt>
      <trkpt lat="44.95297" lon="6.09734">
        <ele>2124.8</ele>
        <time>2024-08-14T11:06:31Z</time>
      </trkpt>
      <trkpt lat="44.95297" lon="6.09734">
        <ele>2124.8</ele>
        <time>2024-08-14T11:06:32Z</time>
      </trkpt>
      <trkpt lat="44.95297" lon="6.09734">
        <ele>2124.8</ele>
        <time>2024-08-14T11:06:33Z</time>
      </trkpt>
      <trkpt lat="44.95297" lon="6.09734">
        <ele>2125</ele>
        <time>2024-08-14T11:06:34Z</time>
      </trkpt>
      <trkpt lat="44.95297" lon="6.09734">
        <ele>2125</ele>
        <time>2024-08-14T11:06:35Z</time>
      </trkpt>
      <trkpt lat="44.95297" lon="6.09734">
        <ele>2124.8</ele>
        <time>2024-08-14T11:06:36Z</time>
      </trkpt>
      <trkpt lat="44.95297" lon="6.09734">
        <ele>2124.8</ele>
        <time>2024-08-14T11:06:37Z</time>
      </trkpt>
      <trkpt lat="44.95297" lon="6.09734">
        <ele>2124.8</ele>
        <time>2024-08-14T11:06:38Z</time>
      </trkpt>
      <trkpt lat="44.95297" lon="6.09734">
        <ele>2124.8</ele>
        <time>2024-08-14T11:06:39Z</time>
      </trkpt>
      <trkpt lat="44.95297" lon="6.09734">
        <ele>2124.8</ele>
        <time>2024-08-14T11:06:40Z</time>
      </trkpt>
      <trkpt lat="44.95297" lon="6.09734">
        <ele>2125</ele>
        <time>2024-08-14T11:06:41Z</time>
      </trkpt>
      <trkpt lat="44.95297" lon="6.09734">
        <ele>2125.2</ele>
        <time>2024-08-14T11:06:42Z</time>
      </trkpt>
      <trkpt lat="44.95297" lon="6.09734">
        <ele>2125.2</ele>
        <time>2024-08-14T11:06:43Z</time>
      </trkpt>
      <trkpt lat="44.95295" lon="6.09735">
        <ele>2125.2</ele>
        <time>2024-08-14T11:06:44Z</time>
      </trkpt>
      <trkpt lat="44.95295" lon="6.09735">
        <ele>2125.2</ele>
        <time>2024-08-14T11:06:45Z</time>
      </trkpt>
      <trkpt lat="44.95295" lon="6.09735">
        <ele>2125.2</ele>
        <time>2024-08-14T11:06:46Z</time>
      </trkpt>
      <trkpt lat="44.95295" lon="6.09735">
        <ele>2125.2</ele>
        <time>2024-08-14T11:06:47Z</time>
      </trkpt>
      <trkpt lat="44.95295" lon="6.09735">
        <ele>2125.2</ele>
        <time>2024-08-14T11:06:48Z</time>
      </trkpt>
      <trkpt lat="44.95295" lon="6.09735">
        <ele>2125.2</ele>
        <time>2024-08-14T11:06:49Z</time>
      </trkpt>
      <trkpt lat="44.95295" lon="6.09735">
        <ele>2125</ele>
        <time>2024-08-14T11:06:50Z</time>
      </trkpt>
      <trkpt lat="44.95295" lon="6.09735">
        <ele>2125</ele>
        <time>2024-08-14T11:06:51Z</time>
      </trkpt>
      <trkpt lat="44.95295" lon="6.09735">
        <ele>2124.8</ele>
        <time>2024-08-14T11:06:52Z</time>
      </trkpt>
      <trkpt lat="44.95295" lon="6.09735">
        <ele>2124.8</ele>
        <time>2024-08-14T11:06:53Z</time>
      </trkpt>
      <trkpt lat="44.95295" lon="6.09735">
        <ele>2125</ele>
        <time>2024-08-14T11:06:54Z</time>
      </trkpt>
      <trkpt lat="44.95295" lon="6.09735">
        <ele>2125</ele>
        <time>2024-08-14T11:06:55Z</time>
      </trkpt>
      <trkpt lat="44.95295" lon="6.09735">
        <ele>2125</ele>
        <time>2024-08-14T11:06:56Z</time>
      </trkpt>
      <trkpt lat="44.95295" lon="6.09735">
        <ele>2124.6</ele>
        <time>2024-08-14T11:06:57Z</time>
      </trkpt>
      <trkpt lat="44.95295" lon="6.09735">
        <ele>2124.6</ele>
        <time>2024-08-14T11:06:58Z</time>
      </trkpt>
      <trkpt lat="44.95295" lon="6.09735">
        <ele>2124.4</ele>
        <time>2024-08-14T11:06:59Z</time>
      </trkpt>
      <trkpt lat="44.95295" lon="6.09735">
        <ele>2124.4</ele>
        <time>2024-08-14T11:07:00Z</time>
      </trkpt>
      <trkpt lat="44.95295" lon="6.09735">
        <ele>2124.6</ele>
        <time>2024-08-14T11:07:01Z</time>
      </trkpt>
      <trkpt lat="44.95295" lon="6.09735">
        <ele>2124.8</ele>
        <time>2024-08-14T11:07:02Z</time>
      </trkpt>
      <trkpt lat="44.95295" lon="6.09735">
        <ele>2124.8</ele>
        <time>2024-08-14T11:07:03Z</time>
      </trkpt>
      <trkpt lat="44.95295" lon="6.09735">
        <ele>2124.6</ele>
        <time>2024-08-14T11:07:04Z</time>
      </trkpt>
      <trkpt lat="44.95295" lon="6.09735">
        <ele>2124.6</ele>
        <time>2024-08-14T11:07:05Z</time>
      </trkpt>
      <trkpt lat="44.95295" lon="6.09735">
        <ele>2124.6</ele>
        <time>2024-08-14T11:07:06Z</time>
      </trkpt>
      <trkpt lat="44.95295" lon="6.09735">
        <ele>2124.6</ele>
        <time>2024-08-14T11:07:07Z</time>
      </trkpt>
      <trkpt lat="44.95295" lon="6.09735">
        <ele>2124.8</ele>
        <time>2024-08-14T11:07:08Z</time>
      </trkpt>
      <trkpt lat="44.95295" lon="6.09735">
        <ele>2124.8</ele>
        <time>2024-08-14T11:07:09Z</time>
      </trkpt>
      <trkpt lat="44.95295" lon="6.09735">
        <ele>2124.8</ele>
        <time>2024-08-14T11:07:10Z</time>
      </trkpt>
      <trkpt lat="44.95295" lon="6.09735">
        <ele>2124.8</ele>
        <time>2024-08-14T11:07:11Z</time>
      </trkpt>
      <trkpt lat="44.95295" lon="6.09735">
        <ele>2124.8</ele>
        <time>2024-08-14T11:07:12Z</time>
      </trkpt>
      <trkpt lat="44.95295" lon="6.09735">
        <ele>2124.8</ele>
        <time>2024-08-14T11:07:13Z</time>
      </trkpt>
      <trkpt lat="44.95295" lon="6.09735">
        <ele>2124.8</ele>
        <time>2024-08-14T11:07:14Z</time>
      </trkpt>
      <trkpt lat="44.95295" lon="6.09735">
        <ele>2124.8</ele>
        <time>2024-08-14T11:07:15Z</time>
      </trkpt>
      <trkpt lat="44.95295" lon="6.09735">
        <ele>2124.8</ele>
        <time>2024-08-14T11:07:16Z</time>
      </trkpt>
      <trkpt lat="44.95295" lon="6.09735">
        <ele>2124.8</ele>
        <time>2024-08-14T11:07:17Z</time>
      </trkpt>
      <trkpt lat="44.95295" lon="6.09735">
        <ele>2124.8</ele>
        <time>2024-08-14T11:07:18Z</time>
      </trkpt>
      <trkpt lat="44.95295" lon="6.09735">
        <ele>2124.2</ele>
        <time>2024-08-14T11:07:19Z</time>
      </trkpt>
      <trkpt lat="44.95295" lon="6.09735">
        <ele>2124.2</ele>
        <time>2024-08-14T11:07:20Z</time>
      </trkpt>
      <trkpt lat="44.95295" lon="6.09735">
        <ele>2124.2</ele>
        <time>2024-08-14T11:07:21Z</time>
      </trkpt>
      <trkpt lat="44.95295" lon="6.09735">
        <ele>2124.2</ele>
        <time>2024-08-14T11:07:22Z</time>
      </trkpt>
      <trkpt lat="44.95295" lon="6.09735">
        <ele>2124.4</ele>
        <time>2024-08-14T11:07:23Z</time>
      </trkpt>
      <trkpt lat="44.95295" lon="6.09735">
        <ele>2124.4</ele>
        <time>2024-08-14T11:07:24Z</time>
      </trkpt>
      <trkpt lat="44.95295" lon="6.09735">
        <ele>2124.4</ele>
        <time>2024-08-14T11:07:25Z</time>
      </trkpt>
      <trkpt lat="44.95295" lon="6.09735">
        <ele>2124.6</ele>
        <time>2024-08-14T11:07:26Z</time>
      </trkpt>
      <trkpt lat="44.95295" lon="6.09735">
        <ele>2124.6</ele>
        <time>2024-08-14T11:07:27Z</time>
      </trkpt>
      <trkpt lat="44.95295" lon="6.09735">
        <ele>2124.6</ele>
        <time>2024-08-14T11:07:28Z</time>
      </trkpt>
      <trkpt lat="44.95295" lon="6.09735">
        <ele>2124.6</ele>
        <time>2024-08-14T11:07:29Z</time>
      </trkpt>
      <trkpt lat="44.95295" lon="6.09735">
        <ele>2124.4</ele>
        <time>2024-08-14T11:07:30Z</time>
      </trkpt>
      <trkpt lat="44.95295" lon="6.09735">
        <ele>2124.2</ele>
        <time>2024-08-14T11:07:31Z</time>
      </trkpt>
      <trkpt lat="44.95295" lon="6.09735">
        <ele>2124.2</ele>
        <time>2024-08-14T11:07:32Z</time>
      </trkpt>
      <trkpt lat="44.95295" lon="6.09735">
        <ele>2124.2</ele>
        <time>2024-08-14T11:07:33Z</time>
      </trkpt>
      <trkpt lat="44.95295" lon="6.09735">
        <ele>2124.2</ele>
        <time>2024-08-14T11:07:34Z</time>
      </trkpt>
      <trkpt lat="44.95295" lon="6.09735">
        <ele>2124.2</ele>
        <time>2024-08-14T11:07:35Z</time>
      </trkpt>
      <trkpt lat="44.95295" lon="6.09735">
        <ele>2124.2</ele>
        <time>2024-08-14T11:07:36Z</time>
      </trkpt>
      <trkpt lat="44.95295" lon="6.09735">
        <ele>2124</ele>
        <time>2024-08-14T11:07:37Z</time>
      </trkpt>
      <trkpt lat="44.95295" lon="6.09735">
        <ele>2124.2</ele>
        <time>2024-08-14T11:07:38Z</time>
      </trkpt>
      <trkpt lat="44.95295" lon="6.09735">
        <ele>2124.2</ele>
        <time>2024-08-14T11:07:39Z</time>
      </trkpt>
      <trkpt lat="44.95295" lon="6.09735">
        <ele>2124.2</ele>
        <time>2024-08-14T11:07:40Z</time>
      </trkpt>
      <trkpt lat="44.95295" lon="6.09735">
        <ele>2124.2</ele>
        <time>2024-08-14T11:07:41Z</time>
      </trkpt>
      <trkpt lat="44.95295" lon="6.09735">
        <ele>2124</ele>
        <time>2024-08-14T11:07:42Z</time>
      </trkpt>
      <trkpt lat="44.95295" lon="6.09735">
        <ele>2123.8</ele>
        <time>2024-08-14T11:07:43Z</time>
      </trkpt>
      <trkpt lat="44.95295" lon="6.09735">
        <ele>2123.8</ele>
        <time>2024-08-14T11:07:44Z</time>
      </trkpt>
      <trkpt lat="44.95295" lon="6.09735">
        <ele>2123.8</ele>
        <time>2024-08-14T11:07:45Z</time>
      </trkpt>
      <trkpt lat="44.95295" lon="6.09735">
        <ele>2123.8</ele>
        <time>2024-08-14T11:07:46Z</time>
      </trkpt>
      <trkpt lat="44.95295" lon="6.09735">
        <ele>2124</ele>
        <time>2024-08-14T11:07:47Z</time>
      </trkpt>
      <trkpt lat="44.95295" lon="6.09735">
        <ele>2124</ele>
        <time>2024-08-14T11:07:48Z</time>
      </trkpt>
      <trkpt lat="44.95295" lon="6.09735">
        <ele>2123.8</ele>
        <time>2024-08-14T11:07:49Z</time>
      </trkpt>
      <trkpt lat="44.95295" lon="6.09735">
        <ele>2123.8</ele>
        <time>2024-08-14T11:07:50Z</time>
      </trkpt>
      <trkpt lat="44.95295" lon="6.09735">
        <ele>2124.2</ele>
        <time>2024-08-14T11:07:51Z</time>
      </trkpt>
      <trkpt lat="44.95295" lon="6.09735">
        <ele>2124.2</ele>
        <time>2024-08-14T11:07:52Z</time>
      </trkpt>
      <trkpt lat="44.95295" lon="6.09735">
        <ele>2124</ele>
        <time>2024-08-14T11:07:53Z</time>
      </trkpt>
      <trkpt lat="44.95295" lon="6.09735">
        <ele>2124</ele>
        <time>2024-08-14T11:07:54Z</time>
      </trkpt>
      <trkpt lat="44.95295" lon="6.09735">
        <ele>2124.2</ele>
        <time>2024-08-14T11:07:55Z</time>
      </trkpt>
      <trkpt lat="44.95295" lon="6.09735">
        <ele>2124.2</ele>
        <time>2024-08-14T11:07:56Z</time>
      </trkpt>
      <trkpt lat="44.95295" lon="6.09735">
        <ele>2124.2</ele>
        <time>2024-08-14T11:07:57Z</time>
      </trkpt>
      <trkpt lat="44.95295" lon="6.09735">
        <ele>2124.2</ele>
        <time>2024-08-14T11:07:58Z</time>
      </trkpt>
      <trkpt lat="44.95295" lon="6.09735">
        <ele>2124.2</ele>
        <time>2024-08-14T11:07:59Z</time>
      </trkpt>
      <trkpt lat="44.95295" lon="6.09735">
        <ele>2124.2</ele>
        <time>2024-08-14T11:08:00Z</time>
      </trkpt>
      <trkpt lat="44.95295" lon="6.09735">
        <ele>2124.2</ele>
        <time>2024-08-14T11:08:01Z</time>
      </trkpt>
      <trkpt lat="44.95295" lon="6.09735">
        <ele>2123.8</ele>
        <time>2024-08-14T11:08:02Z</time>
      </trkpt>
      <trkpt lat="44.95295" lon="6.09735">
        <ele>2123.8</ele>
        <time>2024-08-14T11:08:03Z</time>
      </trkpt>
      <trkpt lat="44.95295" lon="6.09735">
        <ele>2124</ele>
        <time>2024-08-14T11:08:04Z</time>
      </trkpt>
      <trkpt lat="44.95295" lon="6.09735">
        <ele>2124.2</ele>
        <time>2024-08-14T11:08:05Z</time>
      </trkpt>
      <trkpt lat="44.95295" lon="6.09735">
        <ele>2124.2</ele>
        <time>2024-08-14T11:08:06Z</time>
      </trkpt>
      <trkpt lat="44.95295" lon="6.09735">
        <ele>2124.2</ele>
        <time>2024-08-14T11:08:07Z</time>
      </trkpt>
      <trkpt lat="44.95295" lon="6.09735">
        <ele>2124.2</ele>
        <time>2024-08-14T11:08:08Z</time>
      </trkpt>
      <trkpt lat="44.95295" lon="6.09735">
        <ele>2123.8</ele>
        <time>2024-08-14T11:08:09Z</time>
      </trkpt>
      <trkpt lat="44.95295" lon="6.09735">
        <ele>2123.8</ele>
        <time>2024-08-14T11:08:10Z</time>
      </trkpt>
      <trkpt lat="44.95295" lon="6.09735">
        <ele>2124.2</ele>
        <time>2024-08-14T11:08:11Z</time>
      </trkpt>
      <trkpt lat="44.95295" lon="6.09735">
        <ele>2124.2</ele>
        <time>2024-08-14T11:08:12Z</time>
      </trkpt>
      <trkpt lat="44.95295" lon="6.09735">
        <ele>2124.2</ele>
        <time>2024-08-14T11:08:13Z</time>
      </trkpt>
      <trkpt lat="44.95295" lon="6.09735">
        <ele>2124.2</ele>
        <time>2024-08-14T11:08:14Z</time>
      </trkpt>
      <trkpt lat="44.95295" lon="6.09735">
        <ele>2124</ele>
        <time>2024-08-14T11:08:15Z</time>
      </trkpt>
      <trkpt lat="44.95295" lon="6.09735">
        <ele>2124</ele>
        <time>2024-08-14T11:08:16Z</time>
      </trkpt>
      <trkpt lat="44.95295" lon="6.09735">
        <ele>2124</ele>
        <time>2024-08-14T11:08:17Z</time>
      </trkpt>
      <trkpt lat="44.95295" lon="6.09735">
        <ele>2124.4</ele>
        <time>2024-08-14T11:08:18Z</time>
      </trkpt>
      <trkpt lat="44.95295" lon="6.09735">
        <ele>2124.4</ele>
        <time>2024-08-14T11:08:19Z</time>
      </trkpt>
      <trkpt lat="44.95295" lon="6.09735">
        <ele>2124.4</ele>
        <time>2024-08-14T11:08:20Z</time>
      </trkpt>
      <trkpt lat="44.95295" lon="6.09735">
        <ele>2124.4</ele>
        <time>2024-08-14T11:08:21Z</time>
      </trkpt>
      <trkpt lat="44.95295" lon="6.09735">
        <ele>2124.4</ele>
        <time>2024-08-14T11:08:22Z</time>
      </trkpt>
      <trkpt lat="44.95295" lon="6.09735">
        <ele>2124.2</ele>
        <time>2024-08-14T11:08:23Z</time>
      </trkpt>
      <trkpt lat="44.95295" lon="6.09735">
        <ele>2124.2</ele>
        <time>2024-08-14T11:08:24Z</time>
      </trkpt>
      <trkpt lat="44.95295" lon="6.09735">
        <ele>2124.2</ele>
        <time>2024-08-14T11:08:25Z</time>
      </trkpt>
      <trkpt lat="44.95295" lon="6.09735">
        <ele>2124</ele>
        <time>2024-08-14T11:08:26Z</time>
      </trkpt>
      <trkpt lat="44.95295" lon="6.09735">
        <ele>2124</ele>
        <time>2024-08-14T11:08:27Z</time>
      </trkpt>
      <trkpt lat="44.95295" lon="6.09735">
        <ele>2124</ele>
        <time>2024-08-14T11:08:28Z</time>
      </trkpt>
      <trkpt lat="44.95295" lon="6.09735">
        <ele>2124</ele>
        <time>2024-08-14T11:08:29Z</time>
      </trkpt>
      <trkpt lat="44.95295" lon="6.09735">
        <ele>2124</ele>
        <time>2024-08-14T11:08:30Z</time>
      </trkpt>
      <trkpt lat="44.95295" lon="6.09735">
        <ele>2124</ele>
        <time>2024-08-14T11:08:31Z</time>
      </trkpt>
      <trkpt lat="44.95295" lon="6.09735">
        <ele>2124</ele>
        <time>2024-08-14T11:08:32Z</time>
      </trkpt>
      <trkpt lat="44.95295" lon="6.09735">
        <ele>2124.2</ele>
        <time>2024-08-14T11:08:33Z</time>
      </trkpt>
      <trkpt lat="44.95295" lon="6.09735">
        <ele>2124.4</ele>
        <time>2024-08-14T11:08:34Z</time>
      </trkpt>
      <trkpt lat="44.95295" lon="6.09735">
        <ele>2124.4</ele>
        <time>2024-08-14T11:08:35Z</time>
      </trkpt>
      <trkpt lat="44.95295" lon="6.09735">
        <ele>2124.4</ele>
        <time>2024-08-14T11:08:36Z</time>
      </trkpt>
      <trkpt lat="44.95295" lon="6.09735">
        <ele>2124.4</ele>
        <time>2024-08-14T11:08:37Z</time>
      </trkpt>
      <trkpt lat="44.95295" lon="6.09735">
        <ele>2124.4</ele>
        <time>2024-08-14T11:08:38Z</time>
      </trkpt>
      <trkpt lat="44.95295" lon="6.09735">
        <ele>2124.4</ele>
        <time>2024-08-14T11:08:39Z</time>
      </trkpt>
      <trkpt lat="44.95295" lon="6.09735">
        <ele>2124.4</ele>
        <time>2024-08-14T11:08:40Z</time>
      </trkpt>
      <trkpt lat="44.95295" lon="6.09735">
        <ele>2124.4</ele>
        <time>2024-08-14T11:08:41Z</time>
      </trkpt>
      <trkpt lat="44.95295" lon="6.09735">
        <ele>2124.4</ele>
        <time>2024-08-14T11:08:42Z</time>
      </trkpt>
      <trkpt lat="44.95295" lon="6.09735">
        <ele>2124.4</ele>
        <time>2024-08-14T11:08:43Z</time>
      </trkpt>
      <trkpt lat="44.95295" lon="6.09735">
        <ele>2124.4</ele>
        <time>2024-08-14T11:08:44Z</time>
      </trkpt>
      <trkpt lat="44.95295" lon="6.09735">
        <ele>2124.4</ele>
        <time>2024-08-14T11:08:45Z</time>
      </trkpt>
      <trkpt lat="44.95295" lon="6.09735">
        <ele>2124.4</ele>
        <time>2024-08-14T11:08:46Z</time>
      </trkpt>
      <trkpt lat="44.95295" lon="6.09735">
        <ele>2124.4</ele>
        <time>2024-08-14T11:08:47Z</time>
      </trkpt>
      <trkpt lat="44.95295" lon="6.09735">
        <ele>2124.4</ele>
        <time>2024-08-14T11:08:48Z</time>
      </trkpt>
      <trkpt lat="44.95295" lon="6.09735">
        <ele>2124.4</ele>
        <time>2024-08-14T11:08:49Z</time>
      </trkpt>
      <trkpt lat="44.95295" lon="6.09735">
        <ele>2124.4</ele>
        <time>2024-08-14T11:08:50Z</time>
      </trkpt>
      <trkpt lat="44.95295" lon="6.09735">
        <ele>2124.4</ele>
        <time>2024-08-14T11:08:51Z</time>
      </trkpt>
      <trkpt lat="44.95295" lon="6.09735">
        <ele>2124.4</ele>
        <time>2024-08-14T11:08:52Z</time>
      </trkpt>
      <trkpt lat="44.95295" lon="6.09735">
        <ele>2124.8</ele>
        <time>2024-08-14T11:08:53Z</time>
      </trkpt>
      <trkpt lat="44.95295" lon="6.09735">
        <ele>2124.8</ele>
        <time>2024-08-14T11:08:54Z</time>
      </trkpt>
      <trkpt lat="44.95295" lon="6.09735">
        <ele>2124.8</ele>
        <time>2024-08-14T11:08:55Z</time>
      </trkpt>
      <trkpt lat="44.95295" lon="6.09735">
        <ele>2124.8</ele>
        <time>2024-08-14T11:08:56Z</time>
      </trkpt>
      <trkpt lat="44.95295" lon="6.09735">
        <ele>2124.8</ele>
        <time>2024-08-14T11:08:57Z</time>
      </trkpt>
      <trkpt lat="44.95295" lon="6.09735">
        <ele>2124.8</ele>
        <time>2024-08-14T11:08:58Z</time>
      </trkpt>
      <trkpt lat="44.95295" lon="6.09735">
        <ele>2124.8</ele>
        <time>2024-08-14T11:08:59Z</time>
      </trkpt>
      <trkpt lat="44.95295" lon="6.09735">
        <ele>2124.8</ele>
        <time>2024-08-14T11:09:00Z</time>
      </trkpt>
      <trkpt lat="44.95295" lon="6.09735">
        <ele>2124.8</ele>
        <time>2024-08-14T11:09:01Z</time>
      </trkpt>
      <trkpt lat="44.95295" lon="6.09735">
        <ele>2124.6</ele>
        <time>2024-08-14T11:09:02Z</time>
      </trkpt>
      <trkpt lat="44.95295" lon="6.09735">
        <ele>2124.6</ele>
        <time>2024-08-14T11:09:03Z</time>
      </trkpt>
      <trkpt lat="44.95295" lon="6.09735">
        <ele>2124.6</ele>
        <time>2024-08-14T11:09:04Z</time>
      </trkpt>
      <trkpt lat="44.95295" lon="6.09735">
        <ele>2124.6</ele>
        <time>2024-08-14T11:09:05Z</time>
      </trkpt>
      <trkpt lat="44.95295" lon="6.09735">
        <ele>2124.6</ele>
        <time>2024-08-14T11:09:06Z</time>
      </trkpt>
      <trkpt lat="44.95295" lon="6.09735">
        <ele>2124.6</ele>
        <time>2024-08-14T11:09:07Z</time>
      </trkpt>
      <trkpt lat="44.95295" lon="6.09735">
        <ele>2124.6</ele>
        <time>2024-08-14T11:09:08Z</time>
      </trkpt>
      <trkpt lat="44.95295" lon="6.09735">
        <ele>2124.6</ele>
        <time>2024-08-14T11:09:09Z</time>
      </trkpt>
      <trkpt lat="44.95295" lon="6.09735">
        <ele>2124.4</ele>
        <time>2024-08-14T11:09:10Z</time>
      </trkpt>
      <trkpt lat="44.95295" lon="6.09735">
        <ele>2124.4</ele>
        <time>2024-08-14T11:09:11Z</time>
      </trkpt>
      <trkpt lat="44.95295" lon="6.09735">
        <ele>2124.4</ele>
        <time>2024-08-14T11:09:12Z</time>
      </trkpt>
      <trkpt lat="44.95295" lon="6.09735">
        <ele>2124.6</ele>
        <time>2024-08-14T11:09:13Z</time>
      </trkpt>
      <trkpt lat="44.95295" lon="6.09735">
        <ele>2124.6</ele>
        <time>2024-08-14T11:09:14Z</time>
      </trkpt>
      <trkpt lat="44.95295" lon="6.09735">
        <ele>2124.6</ele>
        <time>2024-08-14T11:09:15Z</time>
      </trkpt>
      <trkpt lat="44.95295" lon="6.09735">
        <ele>2124.6</ele>
        <time>2024-08-14T11:09:16Z</time>
      </trkpt>
      <trkpt lat="44.95295" lon="6.09735">
        <ele>2124.6</ele>
        <time>2024-08-14T11:09:17Z</time>
      </trkpt>
      <trkpt lat="44.95295" lon="6.09735">
        <ele>2124.6</ele>
        <time>2024-08-14T11:09:18Z</time>
      </trkpt>
      <trkpt lat="44.95295" lon="6.09735">
        <ele>2124.6</ele>
        <time>2024-08-14T11:09:19Z</time>
      </trkpt>
      <trkpt lat="44.95295" lon="6.09735">
        <ele>2124.4</ele>
        <time>2024-08-14T11:09:20Z</time>
      </trkpt>
      <trkpt lat="44.95295" lon="6.09735">
        <ele>2124.4</ele>
        <time>2024-08-14T11:09:21Z</time>
      </trkpt>
      <trkpt lat="44.95295" lon="6.09735">
        <ele>2124.8</ele>
        <time>2024-08-14T11:09:22Z</time>
      </trkpt>
      <trkpt lat="44.95295" lon="6.09735">
        <ele>2124.8</ele>
        <time>2024-08-14T11:09:23Z</time>
      </trkpt>
      <trkpt lat="44.95295" lon="6.09735">
        <ele>2124.8</ele>
        <time>2024-08-14T11:09:24Z</time>
      </trkpt>
      <trkpt lat="44.95295" lon="6.09735">
        <ele>2124.8</ele>
        <time>2024-08-14T11:09:25Z</time>
      </trkpt>
      <trkpt lat="44.95295" lon="6.09735">
        <ele>2124.8</ele>
        <time>2024-08-14T11:09:26Z</time>
      </trkpt>
      <trkpt lat="44.95295" lon="6.09735">
        <ele>2124.8</ele>
        <time>2024-08-14T11:09:27Z</time>
      </trkpt>
      <trkpt lat="44.95295" lon="6.09735">
        <ele>2124.8</ele>
        <time>2024-08-14T11:09:28Z</time>
      </trkpt>
      <trkpt lat="44.95295" lon="6.09735">
        <ele>2124.8</ele>
        <time>2024-08-14T11:09:29Z</time>
      </trkpt>
      <trkpt lat="44.95295" lon="6.09735">
        <ele>2125</ele>
        <time>2024-08-14T11:09:30Z</time>
      </trkpt>
      <trkpt lat="44.95295" lon="6.09735">
        <ele>2125</ele>
        <time>2024-08-14T11:09:31Z</time>
      </trkpt>
      <trkpt lat="44.95295" lon="6.09735">
        <ele>2125</ele>
        <time>2024-08-14T11:09:32Z</time>
      </trkpt>
      <trkpt lat="44.95295" lon="6.09735">
        <ele>2125</ele>
        <time>2024-08-14T11:09:33Z</time>
      </trkpt>
      <trkpt lat="44.95295" lon="6.09735">
        <ele>2124.8</ele>
        <time>2024-08-14T11:09:34Z</time>
      </trkpt>
      <trkpt lat="44.95295" lon="6.09735">
        <ele>2124.8</ele>
        <time>2024-08-14T11:09:35Z</time>
      </trkpt>
      <trkpt lat="44.95295" lon="6.09735">
        <ele>2125</ele>
        <time>2024-08-14T11:09:36Z</time>
      </trkpt>
      <trkpt lat="44.95295" lon="6.09735">
        <ele>2125.2</ele>
        <time>2024-08-14T11:09:37Z</time>
      </trkpt>
      <trkpt lat="44.95295" lon="6.09735">
        <ele>2125.2</ele>
        <time>2024-08-14T11:09:38Z</time>
      </trkpt>
      <trkpt lat="44.95295" lon="6.09735">
        <ele>2125.2</ele>
        <time>2024-08-14T11:09:39Z</time>
      </trkpt>
      <trkpt lat="44.95295" lon="6.09735">
        <ele>2125.2</ele>
        <time>2024-08-14T11:09:40Z</time>
      </trkpt>
      <trkpt lat="44.95295" lon="6.09735">
        <ele>2125.2</ele>
        <time>2024-08-14T11:09:41Z</time>
      </trkpt>
      <trkpt lat="44.95295" lon="6.09735">
        <ele>2125.2</ele>
        <time>2024-08-14T11:09:42Z</time>
      </trkpt>
      <trkpt lat="44.95295" lon="6.09735">
        <ele>2125.2</ele>
        <time>2024-08-14T11:09:43Z</time>
      </trkpt>
      <trkpt lat="44.95295" lon="6.09735">
        <ele>2125</ele>
        <time>2024-08-14T11:09:44Z</time>
      </trkpt>
      <trkpt lat="44.95295" lon="6.09735">
        <ele>2125</ele>
        <time>2024-08-14T11:09:45Z</time>
      </trkpt>
      <trkpt lat="44.95295" lon="6.09735">
        <ele>2125.2</ele>
        <time>2024-08-14T11:09:46Z</time>
      </trkpt>
      <trkpt lat="44.95295" lon="6.09735">
        <ele>2125.6</ele>
        <time>2024-08-14T11:09:47Z</time>
      </trkpt>
      <trkpt lat="44.95295" lon="6.09735">
        <ele>2125.6</ele>
        <time>2024-08-14T11:09:48Z</time>
      </trkpt>
      <trkpt lat="44.95295" lon="6.09735">
        <ele>2125.2</ele>
        <time>2024-08-14T11:09:49Z</time>
      </trkpt>
      <trkpt lat="44.95295" lon="6.09735">
        <ele>2125.2</ele>
        <time>2024-08-14T11:09:50Z</time>
      </trkpt>
      <trkpt lat="44.95295" lon="6.09735">
        <ele>2125.4</ele>
        <time>2024-08-14T11:09:51Z</time>
      </trkpt>
      <trkpt lat="44.95295" lon="6.09735">
        <ele>2125.4</ele>
        <time>2024-08-14T11:09:52Z</time>
      </trkpt>
      <trkpt lat="44.95295" lon="6.09735">
        <ele>2125.4</ele>
        <time>2024-08-14T11:09:53Z</time>
      </trkpt>
      <trkpt lat="44.95295" lon="6.09735">
        <ele>2125.4</ele>
        <time>2024-08-14T11:09:54Z</time>
      </trkpt>
      <trkpt lat="44.95295" lon="6.09735">
        <ele>2125</ele>
        <time>2024-08-14T11:09:55Z</time>
      </trkpt>
      <trkpt lat="44.95295" lon="6.09735">
        <ele>2125</ele>
        <time>2024-08-14T11:09:56Z</time>
      </trkpt>
      <trkpt lat="44.95295" lon="6.09735">
        <ele>2125</ele>
        <time>2024-08-14T11:09:57Z</time>
      </trkpt>
      <trkpt lat="44.95295" lon="6.09735">
        <ele>2125.2</ele>
        <time>2024-08-14T11:09:58Z</time>
      </trkpt>
      <trkpt lat="44.95295" lon="6.09735">
        <ele>2125.2</ele>
        <time>2024-08-14T11:09:59Z</time>
      </trkpt>
      <trkpt lat="44.95295" lon="6.09735">
        <ele>2125.2</ele>
        <time>2024-08-14T11:10:00Z</time>
      </trkpt>
      <trkpt lat="44.95295" lon="6.09735">
        <ele>2125.2</ele>
        <time>2024-08-14T11:10:01Z</time>
      </trkpt>
      <trkpt lat="44.95295" lon="6.09735">
        <ele>2125.2</ele>
        <time>2024-08-14T11:10:02Z</time>
      </trkpt>
      <trkpt lat="44.95295" lon="6.09735">
        <ele>2125.2</ele>
        <time>2024-08-14T11:10:03Z</time>
      </trkpt>
      <trkpt lat="44.95295" lon="6.09735">
        <ele>2125.2</ele>
        <time>2024-08-14T11:10:04Z</time>
      </trkpt>
      <trkpt lat="44.95295" lon="6.09735">
        <ele>2125.2</ele>
        <time>2024-08-14T11:10:05Z</time>
      </trkpt>
      <trkpt lat="44.95295" lon="6.09735">
        <ele>2125.2</ele>
        <time>2024-08-14T11:10:06Z</time>
      </trkpt>
      <trkpt lat="44.95295" lon="6.09735">
        <ele>2125.2</ele>
        <time>2024-08-14T11:10:07Z</time>
      </trkpt>
      <trkpt lat="44.95295" lon="6.09735">
        <ele>2125.2</ele>
        <time>2024-08-14T11:10:08Z</time>
      </trkpt>
      <trkpt lat="44.95295" lon="6.09735">
        <ele>2125.2</ele>
        <time>2024-08-14T11:10:09Z</time>
      </trkpt>
      <trkpt lat="44.95295" lon="6.09735">
        <ele>2125.4</ele>
        <time>2024-08-14T11:10:10Z</time>
      </trkpt>
      <trkpt lat="44.95295" lon="6.09735">
        <ele>2125.4</ele>
        <time>2024-08-14T11:10:11Z</time>
      </trkpt>
      <trkpt lat="44.95295" lon="6.09735">
        <ele>2125.4</ele>
        <time>2024-08-14T11:10:12Z</time>
      </trkpt>
      <trkpt lat="44.95295" lon="6.09735">
        <ele>2125.4</ele>
        <time>2024-08-14T11:10:13Z</time>
      </trkpt>
      <trkpt lat="44.95295" lon="6.09735">
        <ele>2125.6</ele>
        <time>2024-08-14T11:10:14Z</time>
      </trkpt>
      <trkpt lat="44.95295" lon="6.09735">
        <ele>2125.6</ele>
        <time>2024-08-14T11:10:15Z</time>
      </trkpt>
      <trkpt lat="44.95295" lon="6.09735">
        <ele>2125.6</ele>
        <time>2024-08-14T11:10:16Z</time>
      </trkpt>
      <trkpt lat="44.95295" lon="6.09735">
        <ele>2125.4</ele>
        <time>2024-08-14T11:10:17Z</time>
      </trkpt>
      <trkpt lat="44.95295" lon="6.09735">
        <ele>2125.4</ele>
        <time>2024-08-14T11:10:18Z</time>
      </trkpt>
      <trkpt lat="44.95295" lon="6.09735">
        <ele>2125.4</ele>
        <time>2024-08-14T11:10:19Z</time>
      </trkpt>
      <trkpt lat="44.95295" lon="6.09735">
        <ele>2125.4</ele>
        <time>2024-08-14T11:10:20Z</time>
      </trkpt>
      <trkpt lat="44.95295" lon="6.09735">
        <ele>2125.4</ele>
        <time>2024-08-14T11:10:21Z</time>
      </trkpt>
      <trkpt lat="44.95295" lon="6.09735">
        <ele>2125.4</ele>
        <time>2024-08-14T11:10:22Z</time>
      </trkpt>
      <trkpt lat="44.95295" lon="6.09735">
        <ele>2125.4</ele>
        <time>2024-08-14T11:10:23Z</time>
      </trkpt>
      <trkpt lat="44.95295" lon="6.09735">
        <ele>2125.4</ele>
        <time>2024-08-14T11:10:24Z</time>
      </trkpt>
      <trkpt lat="44.95295" lon="6.09735">
        <ele>2125.4</ele>
        <time>2024-08-14T11:10:25Z</time>
      </trkpt>
      <trkpt lat="44.95295" lon="6.09735">
        <ele>2125.4</ele>
        <time>2024-08-14T11:10:26Z</time>
      </trkpt>
      <trkpt lat="44.95295" lon="6.09735">
        <ele>2125.4</ele>
        <time>2024-08-14T11:10:27Z</time>
      </trkpt>
      <trkpt lat="44.95295" lon="6.09735">
        <ele>2125.4</ele>
        <time>2024-08-14T11:10:28Z</time>
      </trkpt>
      <trkpt lat="44.95295" lon="6.09735">
        <ele>2125.4</ele>
        <time>2024-08-14T11:10:29Z</time>
      </trkpt>
      <trkpt lat="44.95295" lon="6.09735">
        <ele>2125.4</ele>
        <time>2024-08-14T11:10:30Z</time>
      </trkpt>
      <trkpt lat="44.95295" lon="6.09735">
        <ele>2125.4</ele>
        <time>2024-08-14T11:10:31Z</time>
      </trkpt>
      <trkpt lat="44.95295" lon="6.09735">
        <ele>2125.2</ele>
        <time>2024-08-14T11:10:32Z</time>
      </trkpt>
      <trkpt lat="44.95295" lon="6.09735">
        <ele>2125.2</ele>
        <time>2024-08-14T11:10:33Z</time>
      </trkpt>
      <trkpt lat="44.95295" lon="6.09735">
        <ele>2125.6</ele>
        <time>2024-08-14T11:10:34Z</time>
      </trkpt>
      <trkpt lat="44.95295" lon="6.09735">
        <ele>2125.6</ele>
        <time>2024-08-14T11:10:35Z</time>
      </trkpt>
      <trkpt lat="44.95295" lon="6.09735">
        <ele>2125.6</ele>
        <time>2024-08-14T11:10:36Z</time>
      </trkpt>
      <trkpt lat="44.95295" lon="6.09735">
        <ele>2125.6</ele>
        <time>2024-08-14T11:10:37Z</time>
      </trkpt>
      <trkpt lat="44.95295" lon="6.09735">
        <ele>2125.6</ele>
        <time>2024-08-14T11:10:38Z</time>
      </trkpt>
      <trkpt lat="44.95295" lon="6.09735">
        <ele>2125.6</ele>
        <time>2024-08-14T11:10:39Z</time>
      </trkpt>
      <trkpt lat="44.95295" lon="6.09735">
        <ele>2125.6</ele>
        <time>2024-08-14T11:10:40Z</time>
      </trkpt>
      <trkpt lat="44.95295" lon="6.09735">
        <ele>2125.6</ele>
        <time>2024-08-14T11:10:41Z</time>
      </trkpt>
      <trkpt lat="44.95295" lon="6.09735">
        <ele>2125.6</ele>
        <time>2024-08-14T11:10:42Z</time>
      </trkpt>
      <trkpt lat="44.95295" lon="6.09735">
        <ele>2125.6</ele>
        <time>2024-08-14T11:10:43Z</time>
      </trkpt>
      <trkpt lat="44.95295" lon="6.09735">
        <ele>2125.6</ele>
        <time>2024-08-14T11:10:44Z</time>
      </trkpt>
      <trkpt lat="44.95295" lon="6.09735">
        <ele>2125.6</ele>
        <time>2024-08-14T11:10:45Z</time>
      </trkpt>
      <trkpt lat="44.95295" lon="6.09735">
        <ele>2125.6</ele>
        <time>2024-08-14T11:10:46Z</time>
      </trkpt>
      <trkpt lat="44.95295" lon="6.09735">
        <ele>2125.6</ele>
        <time>2024-08-14T11:10:47Z</time>
      </trkpt>
      <trkpt lat="44.95295" lon="6.09735">
        <ele>2125.8</ele>
        <time>2024-08-14T11:10:48Z</time>
      </trkpt>
      <trkpt lat="44.95295" lon="6.09735">
        <ele>2125.8</ele>
        <time>2024-08-14T11:10:49Z</time>
      </trkpt>
      <trkpt lat="44.95295" lon="6.09735">
        <ele>2125.8</ele>
        <time>2024-08-14T11:10:50Z</time>
      </trkpt>
      <trkpt lat="44.95295" lon="6.09735">
        <ele>2125.8</ele>
        <time>2024-08-14T11:10:51Z</time>
      </trkpt>
      <trkpt lat="44.95295" lon="6.09735">
        <ele>2125.8</ele>
        <time>2024-08-14T11:10:52Z</time>
      </trkpt>
      <trkpt lat="44.95295" lon="6.09735">
        <ele>2126</ele>
        <time>2024-08-14T11:10:53Z</time>
      </trkpt>
      <trkpt lat="44.95295" lon="6.09735">
        <ele>2126</ele>
        <time>2024-08-14T11:10:54Z</time>
      </trkpt>
      <trkpt lat="44.95295" lon="6.09735">
        <ele>2125.8</ele>
        <time>2024-08-14T11:10:55Z</time>
      </trkpt>
      <trkpt lat="44.95295" lon="6.09735">
        <ele>2125.8</ele>
        <time>2024-08-14T11:10:56Z</time>
      </trkpt>
      <trkpt lat="44.95295" lon="6.09735">
        <ele>2125.8</ele>
        <time>2024-08-14T11:10:57Z</time>
      </trkpt>
      <trkpt lat="44.95295" lon="6.09735">
        <ele>2125.8</ele>
        <time>2024-08-14T11:10:58Z</time>
      </trkpt>
      <trkpt lat="44.95295" lon="6.09735">
        <ele>2125.8</ele>
        <time>2024-08-14T11:10:59Z</time>
      </trkpt>
      <trkpt lat="44.95295" lon="6.09735">
        <ele>2125.8</ele>
        <time>2024-08-14T11:11:00Z</time>
      </trkpt>
      <trkpt lat="44.95295" lon="6.09735">
        <ele>2125.8</ele>
        <time>2024-08-14T11:11:01Z</time>
      </trkpt>
      <trkpt lat="44.95295" lon="6.09735">
        <ele>2125.8</ele>
        <time>2024-08-14T11:11:02Z</time>
      </trkpt>
      <trkpt lat="44.95295" lon="6.09735">
        <ele>2125.8</ele>
        <time>2024-08-14T11:11:03Z</time>
      </trkpt>
      <trkpt lat="44.95295" lon="6.09735">
        <ele>2125.8</ele>
        <time>2024-08-14T11:11:04Z</time>
      </trkpt>
      <trkpt lat="44.95295" lon="6.09735">
        <ele>2125.8</ele>
        <time>2024-08-14T11:11:05Z</time>
      </trkpt>
      <trkpt lat="44.95295" lon="6.09735">
        <ele>2125.8</ele>
        <time>2024-08-14T11:11:06Z</time>
      </trkpt>
      <trkpt lat="44.95295" lon="6.09735">
        <ele>2125.8</ele>
        <time>2024-08-14T11:11:07Z</time>
      </trkpt>
      <trkpt lat="44.95295" lon="6.09735">
        <ele>2125.8</ele>
        <time>2024-08-14T11:11:08Z</time>
      </trkpt>
      <trkpt lat="44.95295" lon="6.09735">
        <ele>2125.8</ele>
        <time>2024-08-14T11:11:09Z</time>
      </trkpt>
      <trkpt lat="44.95295" lon="6.09735">
        <ele>2125.8</ele>
        <time>2024-08-14T11:11:10Z</time>
      </trkpt>
      <trkpt lat="44.95295" lon="6.09735">
        <ele>2125.6</ele>
        <time>2024-08-14T11:11:11Z</time>
      </trkpt>
      <trkpt lat="44.95295" lon="6.09735">
        <ele>2125.8</ele>
        <time>2024-08-14T11:11:12Z</time>
      </trkpt>
      <trkpt lat="44.95295" lon="6.09735">
        <ele>2125.8</ele>
        <time>2024-08-14T11:11:13Z</time>
      </trkpt>
      <trkpt lat="44.95295" lon="6.09735">
        <ele>2126</ele>
        <time>2024-08-14T11:11:14Z</time>
      </trkpt>
      <trkpt lat="44.95295" lon="6.09735">
        <ele>2126</ele>
        <time>2024-08-14T11:11:15Z</time>
      </trkpt>
      <trkpt lat="44.95295" lon="6.09735">
        <ele>2125.8</ele>
        <time>2024-08-14T11:11:16Z</time>
      </trkpt>
      <trkpt lat="44.95295" lon="6.09735">
        <ele>2125.8</ele>
        <time>2024-08-14T11:11:17Z</time>
      </trkpt>
      <trkpt lat="44.95295" lon="6.09735">
        <ele>2125.8</ele>
        <time>2024-08-14T11:11:18Z</time>
      </trkpt>
      <trkpt lat="44.95295" lon="6.09735">
        <ele>2125.8</ele>
        <time>2024-08-14T11:11:19Z</time>
      </trkpt>
      <trkpt lat="44.95295" lon="6.09735">
        <ele>2125.8</ele>
        <time>2024-08-14T11:11:20Z</time>
      </trkpt>
      <trkpt lat="44.95295" lon="6.09735">
        <ele>2125.6</ele>
        <time>2024-08-14T11:11:21Z</time>
      </trkpt>
      <trkpt lat="44.95295" lon="6.09735">
        <ele>2125.6</ele>
        <time>2024-08-14T11:11:22Z</time>
      </trkpt>
      <trkpt lat="44.95295" lon="6.09735">
        <ele>2125.6</ele>
        <time>2024-08-14T11:11:23Z</time>
      </trkpt>
      <trkpt lat="44.95295" lon="6.09735">
        <ele>2125.6</ele>
        <time>2024-08-14T11:11:24Z</time>
      </trkpt>
      <trkpt lat="44.95295" lon="6.09735">
        <ele>2125.6</ele>
        <time>2024-08-14T11:11:25Z</time>
      </trkpt>
      <trkpt lat="44.95295" lon="6.09735">
        <ele>2125.8</ele>
        <time>2024-08-14T11:11:26Z</time>
      </trkpt>
      <trkpt lat="44.95295" lon="6.09735">
        <ele>2125.8</ele>
        <time>2024-08-14T11:11:27Z</time>
      </trkpt>
      <trkpt lat="44.95295" lon="6.09735">
        <ele>2125.8</ele>
        <time>2024-08-14T11:11:28Z</time>
      </trkpt>
      <trkpt lat="44.95295" lon="6.09735">
        <ele>2126</ele>
        <time>2024-08-14T11:11:29Z</time>
      </trkpt>
      <trkpt lat="44.95295" lon="6.09735">
        <ele>2126</ele>
        <time>2024-08-14T11:11:30Z</time>
      </trkpt>
      <trkpt lat="44.95295" lon="6.09735">
        <ele>2126</ele>
        <time>2024-08-14T11:11:31Z</time>
      </trkpt>
      <trkpt lat="44.95295" lon="6.09735">
        <ele>2125.8</ele>
        <time>2024-08-14T11:11:32Z</time>
      </trkpt>
      <trkpt lat="44.95295" lon="6.09735">
        <ele>2125.8</ele>
        <time>2024-08-14T11:11:33Z</time>
      </trkpt>
      <trkpt lat="44.95295" lon="6.09735">
        <ele>2125.6</ele>
        <time>2024-08-14T11:11:34Z</time>
      </trkpt>
      <trkpt lat="44.95295" lon="6.09735">
        <ele>2125.6</ele>
        <time>2024-08-14T11:11:35Z</time>
      </trkpt>
      <trkpt lat="44.95295" lon="6.09735">
        <ele>2125.6</ele>
        <time>2024-08-14T11:11:36Z</time>
      </trkpt>
      <trkpt lat="44.95295" lon="6.09735">
        <ele>2125.6</ele>
        <time>2024-08-14T11:11:37Z</time>
      </trkpt>
      <trkpt lat="44.95295" lon="6.09735">
        <ele>2125.6</ele>
        <time>2024-08-14T11:11:38Z</time>
      </trkpt>
      <trkpt lat="44.95295" lon="6.09735">
        <ele>2125.6</ele>
        <time>2024-08-14T11:11:39Z</time>
      </trkpt>
      <trkpt lat="44.95295" lon="6.09735">
        <ele>2125.6</ele>
        <time>2024-08-14T11:11:40Z</time>
      </trkpt>
      <trkpt lat="44.95295" lon="6.09735">
        <ele>2125.8</ele>
        <time>2024-08-14T11:11:41Z</time>
      </trkpt>
      <trkpt lat="44.95295" lon="6.09735">
        <ele>2125.8</ele>
        <time>2024-08-14T11:11:42Z</time>
      </trkpt>
      <trkpt lat="44.95295" lon="6.09735">
        <ele>2125.8</ele>
        <time>2024-08-14T11:11:43Z</time>
      </trkpt>
      <trkpt lat="44.95295" lon="6.09735">
        <ele>2125.8</ele>
        <time>2024-08-14T11:11:44Z</time>
      </trkpt>
      <trkpt lat="44.95295" lon="6.09735">
        <ele>2125.8</ele>
        <time>2024-08-14T11:11:45Z</time>
      </trkpt>
      <trkpt lat="44.95295" lon="6.09735">
        <ele>2125.8</ele>
        <time>2024-08-14T11:11:46Z</time>
      </trkpt>
      <trkpt lat="44.95295" lon="6.09735">
        <ele>2125.8</ele>
        <time>2024-08-14T11:11:47Z</time>
      </trkpt>
      <trkpt lat="44.95295" lon="6.09735">
        <ele>2125.8</ele>
        <time>2024-08-14T11:11:48Z</time>
      </trkpt>
      <trkpt lat="44.95295" lon="6.09735">
        <ele>2125.6</ele>
        <time>2024-08-14T11:11:49Z</time>
      </trkpt>
      <trkpt lat="44.95295" lon="6.09735">
        <ele>2125.6</ele>
        <time>2024-08-14T11:11:50Z</time>
      </trkpt>
      <trkpt lat="44.95295" lon="6.09735">
        <ele>2125.4</ele>
        <time>2024-08-14T11:11:51Z</time>
      </trkpt>
      <trkpt lat="44.95295" lon="6.09735">
        <ele>2125.4</ele>
        <time>2024-08-14T11:11:52Z</time>
      </trkpt>
      <trkpt lat="44.95295" lon="6.09735">
        <ele>2125.6</ele>
        <time>2024-08-14T11:11:53Z</time>
      </trkpt>
      <trkpt lat="44.95295" lon="6.09735">
        <ele>2125.6</ele>
        <time>2024-08-14T11:11:54Z</time>
      </trkpt>
      <trkpt lat="44.95295" lon="6.09735">
        <ele>2125.6</ele>
        <time>2024-08-14T11:11:55Z</time>
      </trkpt>
      <trkpt lat="44.95295" lon="6.09735">
        <ele>2125.8</ele>
        <time>2024-08-14T11:11:56Z</time>
      </trkpt>
      <trkpt lat="44.95295" lon="6.09735">
        <ele>2125.8</ele>
        <time>2024-08-14T11:11:57Z</time>
      </trkpt>
      <trkpt lat="44.95295" lon="6.09735">
        <ele>2125.8</ele>
        <time>2024-08-14T11:11:58Z</time>
      </trkpt>
      <trkpt lat="44.95295" lon="6.09735">
        <ele>2125.8</ele>
        <time>2024-08-14T11:11:59Z</time>
      </trkpt>
      <trkpt lat="44.95295" lon="6.09735">
        <ele>2125.8</ele>
        <time>2024-08-14T11:12:00Z</time>
      </trkpt>
      <trkpt lat="44.95295" lon="6.09735">
        <ele>2125.8</ele>
        <time>2024-08-14T11:12:01Z</time>
      </trkpt>
      <trkpt lat="44.95295" lon="6.09735">
        <ele>2125.8</ele>
        <time>2024-08-14T11:12:02Z</time>
      </trkpt>
      <trkpt lat="44.95295" lon="6.09735">
        <ele>2125.8</ele>
        <time>2024-08-14T11:12:03Z</time>
      </trkpt>
      <trkpt lat="44.95295" lon="6.09735">
        <ele>2125.8</ele>
        <time>2024-08-14T11:12:04Z</time>
      </trkpt>
      <trkpt lat="44.95295" lon="6.09735">
        <ele>2125.8</ele>
        <time>2024-08-14T11:12:05Z</time>
      </trkpt>
      <trkpt lat="44.95295" lon="6.09735">
        <ele>2125.8</ele>
        <time>2024-08-14T11:12:06Z</time>
      </trkpt>
      <trkpt lat="44.95295" lon="6.09735">
        <ele>2125.8</ele>
        <time>2024-08-14T11:12:07Z</time>
      </trkpt>
      <trkpt lat="44.95295" lon="6.09735">
        <ele>2126</ele>
        <time>2024-08-14T11:12:08Z</time>
      </trkpt>
      <trkpt lat="44.95295" lon="6.09735">
        <ele>2126</ele>
        <time>2024-08-14T11:12:09Z</time>
      </trkpt>
      <trkpt lat="44.95295" lon="6.09735">
        <ele>2126</ele>
        <time>2024-08-14T11:12:10Z</time>
      </trkpt>
      <trkpt lat="44.95295" lon="6.09735">
        <ele>2126</ele>
        <time>2024-08-14T11:12:11Z</time>
      </trkpt>
      <trkpt lat="44.95295" lon="6.09735">
        <ele>2125.6</ele>
        <time>2024-08-14T11:12:12Z</time>
      </trkpt>
      <trkpt lat="44.95295" lon="6.09735">
        <ele>2125.4</ele>
        <time>2024-08-14T11:12:13Z</time>
      </trkpt>
      <trkpt lat="44.95295" lon="6.09735">
        <ele>2125.4</ele>
        <time>2024-08-14T11:12:14Z</time>
      </trkpt>
      <trkpt lat="44.95295" lon="6.09735">
        <ele>2125.4</ele>
        <time>2024-08-14T11:12:15Z</time>
      </trkpt>
      <trkpt lat="44.95295" lon="6.09735">
        <ele>2125.4</ele>
        <time>2024-08-14T11:12:16Z</time>
      </trkpt>
      <trkpt lat="44.95295" lon="6.09735">
        <ele>2126</ele>
        <time>2024-08-14T11:12:17Z</time>
      </trkpt>
      <trkpt lat="44.95295" lon="6.09735">
        <ele>2126.2</ele>
        <time>2024-08-14T11:12:18Z</time>
      </trkpt>
      <trkpt lat="44.95295" lon="6.09735">
        <ele>2126.2</ele>
        <time>2024-08-14T11:12:19Z</time>
      </trkpt>
      <trkpt lat="44.95295" lon="6.09735">
        <ele>2126.2</ele>
        <time>2024-08-14T11:12:20Z</time>
      </trkpt>
      <trkpt lat="44.95295" lon="6.09735">
        <ele>2126</ele>
        <time>2024-08-14T11:12:21Z</time>
      </trkpt>
      <trkpt lat="44.95295" lon="6.09735">
        <ele>2126.2</ele>
        <time>2024-08-14T11:12:22Z</time>
      </trkpt>
      <trkpt lat="44.95295" lon="6.09735">
        <ele>2126</ele>
        <time>2024-08-14T11:12:23Z</time>
      </trkpt>
      <trkpt lat="44.95295" lon="6.09735">
        <ele>2126</ele>
        <time>2024-08-14T11:12:24Z</time>
      </trkpt>
      <trkpt lat="44.95295" lon="6.09735">
        <ele>2125.8</ele>
        <time>2024-08-14T11:12:25Z</time>
      </trkpt>
      <trkpt lat="44.95295" lon="6.09735">
        <ele>2125.8</ele>
        <time>2024-08-14T11:12:26Z</time>
      </trkpt>
      <trkpt lat="44.95295" lon="6.09735">
        <ele>2126</ele>
        <time>2024-08-14T11:12:27Z</time>
      </trkpt>
      <trkpt lat="44.95295" lon="6.09735">
        <ele>2126.2</ele>
        <time>2024-08-14T11:12:28Z</time>
      </trkpt>
      <trkpt lat="44.95295" lon="6.09735">
        <ele>2126.2</ele>
        <time>2024-08-14T11:12:29Z</time>
      </trkpt>
      <trkpt lat="44.95295" lon="6.09735">
        <ele>2126.2</ele>
        <time>2024-08-14T11:12:30Z</time>
      </trkpt>
      <trkpt lat="44.95295" lon="6.09735">
        <ele>2126.2</ele>
        <time>2024-08-14T11:12:31Z</time>
      </trkpt>
      <trkpt lat="44.95295" lon="6.09735">
        <ele>2126.2</ele>
        <time>2024-08-14T11:12:32Z</time>
      </trkpt>
      <trkpt lat="44.95295" lon="6.09735">
        <ele>2126</ele>
        <time>2024-08-14T11:12:33Z</time>
      </trkpt>
      <trkpt lat="44.95295" lon="6.09735">
        <ele>2126</ele>
        <time>2024-08-14T11:12:34Z</time>
      </trkpt>
      <trkpt lat="44.95295" lon="6.09735">
        <ele>2126.2</ele>
        <time>2024-08-14T11:12:35Z</time>
      </trkpt>
      <trkpt lat="44.95295" lon="6.09735">
        <ele>2126.2</ele>
        <time>2024-08-14T11:12:36Z</time>
      </trkpt>
      <trkpt lat="44.95295" lon="6.09735">
        <ele>2126.2</ele>
        <time>2024-08-14T11:12:37Z</time>
      </trkpt>
      <trkpt lat="44.95295" lon="6.09735">
        <ele>2126.2</ele>
        <time>2024-08-14T11:12:38Z</time>
      </trkpt>
      <trkpt lat="44.95295" lon="6.09735">
        <ele>2126</ele>
        <time>2024-08-14T11:12:39Z</time>
      </trkpt>
      <trkpt lat="44.95295" lon="6.09735">
        <ele>2126</ele>
        <time>2024-08-14T11:12:40Z</time>
      </trkpt>
      <trkpt lat="44.95295" lon="6.09735">
        <ele>2126</ele>
        <time>2024-08-14T11:12:41Z</time>
      </trkpt>
      <trkpt lat="44.95295" lon="6.09735">
        <ele>2128.8</ele>
        <time>2024-08-14T11:24:58Z</time>
      </trkpt>
      <trkpt lat="44.95295" lon="6.09735">
        <ele>2128.8</ele>
        <time>2024-08-14T11:24:59Z</time>
      </trkpt>
      <trkpt lat="44.95295" lon="6.09735">
        <ele>2129</ele>
        <time>2024-08-14T11:25:00Z</time>
      </trkpt>
      <trkpt lat="44.95295" lon="6.09735">
        <ele>2129</ele>
        <time>2024-08-14T11:25:01Z</time>
      </trkpt>
      <trkpt lat="44.95295" lon="6.09735">
        <ele>2128.8</ele>
        <time>2024-08-14T11:25:02Z</time>
      </trkpt>
      <trkpt lat="44.95298" lon="6.09731">
        <ele>2128.8</ele>
        <time>2024-08-14T11:25:03Z</time>
      </trkpt>
      <trkpt lat="44.95298" lon="6.09731">
        <ele>2128.8</ele>
        <time>2024-08-14T11:25:04Z</time>
      </trkpt>
      <trkpt lat="44.95301" lon="6.09731">
        <ele>2128.8</ele>
        <time>2024-08-14T11:25:05Z</time>
      </trkpt>
      <trkpt lat="44.95303" lon="6.0973">
        <ele>2128.8</ele>
        <time>2024-08-14T11:25:06Z</time>
      </trkpt>
      <trkpt lat="44.95303" lon="6.0973">
        <ele>2128.6</ele>
        <time>2024-08-14T11:25:07Z</time>
      </trkpt>
      <trkpt lat="44.95306" lon="6.09728">
        <ele>2128.2</ele>
        <time>2024-08-14T11:25:08Z</time>
      </trkpt>
      <trkpt lat="44.95306" lon="6.09728">
        <ele>2128.2</ele>
        <time>2024-08-14T11:25:09Z</time>
      </trkpt>
      <trkpt lat="44.95308" lon="6.09728">
        <ele>2128.2</ele>
        <time>2024-08-14T11:25:10Z</time>
      </trkpt>
      <trkpt lat="44.95308" lon="6.09728">
        <ele>2128.2</ele>
        <time>2024-08-14T11:25:11Z</time>
      </trkpt>
      <trkpt lat="44.9531" lon="6.09731">
        <ele>2128.2</ele>
        <time>2024-08-14T11:25:12Z</time>
      </trkpt>
      <trkpt lat="44.9531" lon="6.09731">
        <ele>2128.2</ele>
        <time>2024-08-14T11:25:13Z</time>
      </trkpt>
      <trkpt lat="44.95312" lon="6.09734">
        <ele>2128.8</ele>
        <time>2024-08-14T11:25:14Z</time>
      </trkpt>
      <trkpt lat="44.95312" lon="6.09734">
        <ele>2129</ele>
        <time>2024-08-14T11:25:15Z</time>
      </trkpt>
      <trkpt lat="44.95315" lon="6.09736">
        <ele>2129.2</ele>
        <time>2024-08-14T11:25:16Z</time>
      </trkpt>
      <trkpt lat="44.95315" lon="6.09736">
        <ele>2129.4</ele>
        <time>2024-08-14T11:25:17Z</time>
      </trkpt>
      <trkpt lat="44.95316" lon="6.09738">
        <ele>2129.6</ele>
        <time>2024-08-14T11:25:18Z</time>
      </trkpt>
      <trkpt lat="44.95316" lon="6.09738">
        <ele>2130</ele>
        <time>2024-08-14T11:25:19Z</time>
      </trkpt>
      <trkpt lat="44.95318" lon="6.0974">
        <ele>2130.4</ele>
        <time>2024-08-14T11:25:20Z</time>
      </trkpt>
      <trkpt lat="44.95318" lon="6.0974">
        <ele>2130.4</ele>
        <time>2024-08-14T11:25:21Z</time>
      </trkpt>
      <trkpt lat="44.95318" lon="6.0974">
        <ele>2130.6</ele>
        <time>2024-08-14T11:25:22Z</time>
      </trkpt>
      <trkpt lat="44.9532" lon="6.0974">
        <ele>2130.6</ele>
        <time>2024-08-14T11:25:23Z</time>
      </trkpt>
      <trkpt lat="44.9532" lon="6.0974">
        <ele>2130.8</ele>
        <time>2024-08-14T11:25:24Z</time>
      </trkpt>
      <trkpt lat="44.9532" lon="6.0974">
        <ele>2131.2</ele>
        <time>2024-08-14T11:25:25Z</time>
      </trkpt>
      <trkpt lat="44.95321" lon="6.09742">
        <ele>2131.2</ele>
        <time>2024-08-14T11:25:26Z</time>
      </trkpt>
      <trkpt lat="44.95321" lon="6.09742">
        <ele>2131.2</ele>
        <time>2024-08-14T11:25:27Z</time>
      </trkpt>
      <trkpt lat="44.95321" lon="6.09742">
        <ele>2131.2</ele>
        <time>2024-08-14T11:25:28Z</time>
      </trkpt>
      <trkpt lat="44.95321" lon="6.09742">
        <ele>2131.4</ele>
        <time>2024-08-14T11:25:29Z</time>
      </trkpt>
      <trkpt lat="44.95323" lon="6.09743">
        <ele>2131.6</ele>
        <time>2024-08-14T11:25:30Z</time>
      </trkpt>
      <trkpt lat="44.95323" lon="6.09743">
        <ele>2132</ele>
        <time>2024-08-14T11:25:31Z</time>
      </trkpt>
      <trkpt lat="44.95323" lon="6.09743">
        <ele>2132</ele>
        <time>2024-08-14T11:25:32Z</time>
      </trkpt>
      <trkpt lat="44.95326" lon="6.09744">
        <ele>2132.4</ele>
        <time>2024-08-14T11:25:33Z</time>
      </trkpt>
      <trkpt lat="44.95326" lon="6.09744">
        <ele>2132.6</ele>
        <time>2024-08-14T11:25:34Z</time>
      </trkpt>
      <trkpt lat="44.95326" lon="6.09744">
        <ele>2132.8</ele>
        <time>2024-08-14T11:25:35Z</time>
      </trkpt>
      <trkpt lat="44.95328" lon="6.09744">
        <ele>2133</ele>
        <time>2024-08-14T11:25:36Z</time>
      </trkpt>
      <trkpt lat="44.95328" lon="6.09744">
        <ele>2133</ele>
        <time>2024-08-14T11:25:37Z</time>
      </trkpt>
      <trkpt lat="44.95328" lon="6.09744">
        <ele>2133.2</ele>
        <time>2024-08-14T11:25:38Z</time>
      </trkpt>
      <trkpt lat="44.9533" lon="6.09745">
        <ele>2133.2</ele>
        <time>2024-08-14T11:25:39Z</time>
      </trkpt>
      <trkpt lat="44.9533" lon="6.09745">
        <ele>2133.2</ele>
        <time>2024-08-14T11:25:40Z</time>
      </trkpt>
      <trkpt lat="44.9533" lon="6.09745">
        <ele>2133.6</ele>
        <time>2024-08-14T11:25:41Z</time>
      </trkpt>
      <trkpt lat="44.95331" lon="6.09746">
        <ele>2133.6</ele>
        <time>2024-08-14T11:25:42Z</time>
      </trkpt>
      <trkpt lat="44.95331" lon="6.09746">
        <ele>2133.8</ele>
        <time>2024-08-14T11:25:43Z</time>
      </trkpt>
      <trkpt lat="44.95331" lon="6.09746">
        <ele>2134.4</ele>
        <time>2024-08-14T11:25:44Z</time>
      </trkpt>
      <trkpt lat="44.95333" lon="6.09748">
        <ele>2134.8</ele>
        <time>2024-08-14T11:25:45Z</time>
      </trkpt>
      <trkpt lat="44.95333" lon="6.09748">
        <ele>2134.8</ele>
        <time>2024-08-14T11:25:46Z</time>
      </trkpt>
      <trkpt lat="44.95333" lon="6.09748">
        <ele>2135</ele>
        <time>2024-08-14T11:25:47Z</time>
      </trkpt>
      <trkpt lat="44.95333" lon="6.0975">
        <ele>2135.2</ele>
        <time>2024-08-14T11:25:48Z</time>
      </trkpt>
      <trkpt lat="44.95333" lon="6.0975">
        <ele>2135.2</ele>
        <time>2024-08-14T11:25:49Z</time>
      </trkpt>
      <trkpt lat="44.95333" lon="6.0975">
        <ele>2135.2</ele>
        <time>2024-08-14T11:25:50Z</time>
      </trkpt>
      <trkpt lat="44.95335" lon="6.09753">
        <ele>2135.4</ele>
        <time>2024-08-14T11:25:51Z</time>
      </trkpt>
      <trkpt lat="44.95335" lon="6.09753">
        <ele>2135.8</ele>
        <time>2024-08-14T11:25:52Z</time>
      </trkpt>
      <trkpt lat="44.95335" lon="6.09753">
        <ele>2136.4</ele>
        <time>2024-08-14T11:25:53Z</time>
      </trkpt>
      <trkpt lat="44.95335" lon="6.09757">
        <ele>2136.4</ele>
        <time>2024-08-14T11:25:54Z</time>
      </trkpt>
      <trkpt lat="44.95335" lon="6.09757">
        <ele>2136.4</ele>
        <time>2024-08-14T11:25:55Z</time>
      </trkpt>
      <trkpt lat="44.95335" lon="6.09757">
        <ele>2136.6</ele>
        <time>2024-08-14T11:25:56Z</time>
      </trkpt>
      <trkpt lat="44.95335" lon="6.09759">
        <ele>2136.8</ele>
        <time>2024-08-14T11:25:57Z</time>
      </trkpt>
      <trkpt lat="44.95335" lon="6.09759">
        <ele>2137</ele>
        <time>2024-08-14T11:25:58Z</time>
      </trkpt>
      <trkpt lat="44.95335" lon="6.09759">
        <ele>2137.2</ele>
        <time>2024-08-14T11:25:59Z</time>
      </trkpt>
      <trkpt lat="44.95335" lon="6.09759">
        <ele>2137.6</ele>
        <time>2024-08-14T11:26:00Z</time>
      </trkpt>
      <trkpt lat="44.95335" lon="6.09759">
        <ele>2137.6</ele>
        <time>2024-08-14T11:26:01Z</time>
      </trkpt>
      <trkpt lat="44.95335" lon="6.09759">
        <ele>2137.4</ele>
        <time>2024-08-14T11:26:02Z</time>
      </trkpt>
      <trkpt lat="44.95335" lon="6.09759">
        <ele>2137.4</ele>
        <time>2024-08-14T11:26:03Z</time>
      </trkpt>
      <trkpt lat="44.95335" lon="6.09759">
        <ele>2137.4</ele>
        <time>2024-08-14T11:26:04Z</time>
      </trkpt>
      <trkpt lat="44.95335" lon="6.09759">
        <ele>2137.6</ele>
        <time>2024-08-14T11:26:05Z</time>
      </trkpt>
      <trkpt lat="44.95335" lon="6.09759">
        <ele>2137.6</ele>
        <time>2024-08-14T11:26:06Z</time>
      </trkpt>
      <trkpt lat="44.95335" lon="6.09759">
        <ele>2137.6</ele>
        <time>2024-08-14T11:26:07Z</time>
      </trkpt>
      <trkpt lat="44.95335" lon="6.09759">
        <ele>2137.6</ele>
        <time>2024-08-14T11:26:08Z</time>
      </trkpt>
      <trkpt lat="44.95335" lon="6.09759">
        <ele>2137.6</ele>
        <time>2024-08-14T11:26:09Z</time>
      </trkpt>
      <trkpt lat="44.95335" lon="6.09759">
        <ele>2137.8</ele>
        <time>2024-08-14T11:26:10Z</time>
      </trkpt>
      <trkpt lat="44.95337" lon="6.09761">
        <ele>2138</ele>
        <time>2024-08-14T11:26:11Z</time>
      </trkpt>
      <trkpt lat="44.95337" lon="6.09761">
        <ele>2138</ele>
        <time>2024-08-14T11:26:12Z</time>
      </trkpt>
      <trkpt lat="44.95339" lon="6.09762">
        <ele>2138.4</ele>
        <time>2024-08-14T11:26:13Z</time>
      </trkpt>
      <trkpt lat="44.95339" lon="6.09762">
        <ele>2138.6</ele>
        <time>2024-08-14T11:26:14Z</time>
      </trkpt>
      <trkpt lat="44.95341" lon="6.09763">
        <ele>2138.8</ele>
        <time>2024-08-14T11:26:15Z</time>
      </trkpt>
      <trkpt lat="44.95341" lon="6.09763">
        <ele>2139</ele>
        <time>2024-08-14T11:26:16Z</time>
      </trkpt>
      <trkpt lat="44.95341" lon="6.09763">
        <ele>2139.2</ele>
        <time>2024-08-14T11:26:17Z</time>
      </trkpt>
      <trkpt lat="44.95344" lon="6.09763">
        <ele>2139.4</ele>
        <time>2024-08-14T11:26:18Z</time>
      </trkpt>
      <trkpt lat="44.95344" lon="6.09763">
        <ele>2139.6</ele>
        <time>2024-08-14T11:26:19Z</time>
      </trkpt>
      <trkpt lat="44.95344" lon="6.09763">
        <ele>2139.6</ele>
        <time>2024-08-14T11:26:20Z</time>
      </trkpt>
      <trkpt lat="44.95347" lon="6.09763">
        <ele>2139.8</ele>
        <time>2024-08-14T11:26:21Z</time>
      </trkpt>
      <trkpt lat="44.95347" lon="6.09763">
        <ele>2140</ele>
        <time>2024-08-14T11:26:22Z</time>
      </trkpt>
      <trkpt lat="44.95347" lon="6.09763">
        <ele>2140</ele>
        <time>2024-08-14T11:26:23Z</time>
      </trkpt>
      <trkpt lat="44.95349" lon="6.09763">
        <ele>2140</ele>
        <time>2024-08-14T11:26:24Z</time>
      </trkpt>
      <trkpt lat="44.95349" lon="6.09763">
        <ele>2140.4</ele>
        <time>2024-08-14T11:26:25Z</time>
      </trkpt>
      <trkpt lat="44.95349" lon="6.09763">
        <ele>2140.6</ele>
        <time>2024-08-14T11:26:26Z</time>
      </trkpt>
      <trkpt lat="44.9535" lon="6.09764">
        <ele>2141</ele>
        <time>2024-08-14T11:26:27Z</time>
      </trkpt>
      <trkpt lat="44.9535" lon="6.09764">
        <ele>2141.2</ele>
        <time>2024-08-14T11:26:28Z</time>
      </trkpt>
      <trkpt lat="44.9535" lon="6.09764">
        <ele>2141.6</ele>
        <time>2024-08-14T11:26:29Z</time>
      </trkpt>
      <trkpt lat="44.9535" lon="6.09764">
        <ele>2141.6</ele>
        <time>2024-08-14T11:26:30Z</time>
      </trkpt>
      <trkpt lat="44.95352" lon="6.09764">
        <ele>2142</ele>
        <time>2024-08-14T11:26:31Z</time>
      </trkpt>
      <trkpt lat="44.95352" lon="6.09764">
        <ele>2142.2</ele>
        <time>2024-08-14T11:26:32Z</time>
      </trkpt>
      <trkpt lat="44.95352" lon="6.09764">
        <ele>2142.2</ele>
        <time>2024-08-14T11:26:33Z</time>
      </trkpt>
      <trkpt lat="44.95354" lon="6.09765">
        <ele>2142.4</ele>
        <time>2024-08-14T11:26:34Z</time>
      </trkpt>
      <trkpt lat="44.95354" lon="6.09765">
        <ele>2142.6</ele>
        <time>2024-08-14T11:26:35Z</time>
      </trkpt>
      <trkpt lat="44.95354" lon="6.09765">
        <ele>2142.8</ele>
        <time>2024-08-14T11:26:36Z</time>
      </trkpt>
      <trkpt lat="44.95354" lon="6.09765">
        <ele>2143.2</ele>
        <time>2024-08-14T11:26:37Z</time>
      </trkpt>
      <trkpt lat="44.95357" lon="6.09765">
        <ele>2143.4</ele>
        <time>2024-08-14T11:26:38Z</time>
      </trkpt>
      <trkpt lat="44.95357" lon="6.09765">
        <ele>2143.8</ele>
        <time>2024-08-14T11:26:39Z</time>
      </trkpt>
      <trkpt lat="44.95357" lon="6.09765">
        <ele>2143.8</ele>
        <time>2024-08-14T11:26:40Z</time>
      </trkpt>
      <trkpt lat="44.95357" lon="6.09765">
        <ele>2144</ele>
        <time>2024-08-14T11:26:41Z</time>
      </trkpt>
      <trkpt lat="44.95359" lon="6.09766">
        <ele>2144.2</ele>
        <time>2024-08-14T11:26:42Z</time>
      </trkpt>
      <trkpt lat="44.95359" lon="6.09766">
        <ele>2144.4</ele>
        <time>2024-08-14T11:26:43Z</time>
      </trkpt>
      <trkpt lat="44.95359" lon="6.09766">
        <ele>2144.6</ele>
        <time>2024-08-14T11:26:44Z</time>
      </trkpt>
      <trkpt lat="44.95361" lon="6.09767">
        <ele>2144.8</ele>
        <time>2024-08-14T11:26:45Z</time>
      </trkpt>
      <trkpt lat="44.95361" lon="6.09767">
        <ele>2145.2</ele>
        <time>2024-08-14T11:26:46Z</time>
      </trkpt>
      <trkpt lat="44.95361" lon="6.09767">
        <ele>2145.2</ele>
        <time>2024-08-14T11:26:47Z</time>
      </trkpt>
      <trkpt lat="44.95361" lon="6.09767">
        <ele>2145.8</ele>
        <time>2024-08-14T11:26:48Z</time>
      </trkpt>
      <trkpt lat="44.95363" lon="6.09768">
        <ele>2145.8</ele>
        <time>2024-08-14T11:26:49Z</time>
      </trkpt>
      <trkpt lat="44.95363" lon="6.09768">
        <ele>2146</ele>
        <time>2024-08-14T11:26:50Z</time>
      </trkpt>
      <trkpt lat="44.95363" lon="6.09768">
        <ele>2146.4</ele>
        <time>2024-08-14T11:26:51Z</time>
      </trkpt>
      <trkpt lat="44.95365" lon="6.09768">
        <ele>2146.4</ele>
        <time>2024-08-14T11:26:52Z</time>
      </trkpt>
      <trkpt lat="44.95365" lon="6.09768">
        <ele>2146.8</ele>
        <time>2024-08-14T11:26:53Z</time>
      </trkpt>
      <trkpt lat="44.95365" lon="6.09768">
        <ele>2147</ele>
        <time>2024-08-14T11:26:54Z</time>
      </trkpt>
      <trkpt lat="44.95368" lon="6.09768">
        <ele>2147.2</ele>
        <time>2024-08-14T11:26:55Z</time>
      </trkpt>
      <trkpt lat="44.95368" lon="6.09768">
        <ele>2147.2</ele>
        <time>2024-08-14T11:26:56Z</time>
      </trkpt>
      <trkpt lat="44.9537" lon="6.09768">
        <ele>2147.4</ele>
        <time>2024-08-14T11:26:57Z</time>
      </trkpt>
      <trkpt lat="44.9537" lon="6.09768">
        <ele>2147.6</ele>
        <time>2024-08-14T11:26:58Z</time>
      </trkpt>
      <trkpt lat="44.95372" lon="6.09768">
        <ele>2147.8</ele>
        <time>2024-08-14T11:26:59Z</time>
      </trkpt>
      <trkpt lat="44.95372" lon="6.09768">
        <ele>2148</ele>
        <time>2024-08-14T11:27:00Z</time>
      </trkpt>
      <trkpt lat="44.95372" lon="6.09768">
        <ele>2148</ele>
        <time>2024-08-14T11:27:01Z</time>
      </trkpt>
      <trkpt lat="44.95373" lon="6.09768">
        <ele>2148.4</ele>
        <time>2024-08-14T11:27:02Z</time>
      </trkpt>
      <trkpt lat="44.95373" lon="6.09768">
        <ele>2148.4</ele>
        <time>2024-08-14T11:27:03Z</time>
      </trkpt>
      <trkpt lat="44.95373" lon="6.09768">
        <ele>2148.6</ele>
        <time>2024-08-14T11:27:04Z</time>
      </trkpt>
      <trkpt lat="44.95373" lon="6.09768">
        <ele>2148.6</ele>
        <time>2024-08-14T11:27:05Z</time>
      </trkpt>
      <trkpt lat="44.95373" lon="6.09768">
        <ele>2148.8</ele>
        <time>2024-08-14T11:27:06Z</time>
      </trkpt>
      <trkpt lat="44.95373" lon="6.09768">
        <ele>2148.8</ele>
        <time>2024-08-14T11:27:07Z</time>
      </trkpt>
      <trkpt lat="44.95373" lon="6.09768">
        <ele>2148.8</ele>
        <time>2024-08-14T11:27:08Z</time>
      </trkpt>
      <trkpt lat="44.95373" lon="6.09768">
        <ele>2148.8</ele>
        <time>2024-08-14T11:27:09Z</time>
      </trkpt>
      <trkpt lat="44.95373" lon="6.09768">
        <ele>2148.8</ele>
        <time>2024-08-14T11:27:10Z</time>
      </trkpt>
      <trkpt lat="44.95373" lon="6.09768">
        <ele>2149</ele>
        <time>2024-08-14T11:27:11Z</time>
      </trkpt>
      <trkpt lat="44.95373" lon="6.09768">
        <ele>2149</ele>
        <time>2024-08-14T11:27:12Z</time>
      </trkpt>
      <trkpt lat="44.95373" lon="6.09768">
        <ele>2149</ele>
        <time>2024-08-14T11:27:13Z</time>
      </trkpt>
      <trkpt lat="44.95373" lon="6.09768">
        <ele>2149</ele>
        <time>2024-08-14T11:27:14Z</time>
      </trkpt>
      <trkpt lat="44.95373" lon="6.09768">
        <ele>2149</ele>
        <time>2024-08-14T11:27:15Z</time>
      </trkpt>
      <trkpt lat="44.95373" lon="6.09768">
        <ele>2148.6</ele>
        <time>2024-08-14T11:27:16Z</time>
      </trkpt>
      <trkpt lat="44.95373" lon="6.09768">
        <ele>2148.6</ele>
        <time>2024-08-14T11:27:17Z</time>
      </trkpt>
      <trkpt lat="44.95373" lon="6.09768">
        <ele>2148.8</ele>
        <time>2024-08-14T11:27:18Z</time>
      </trkpt>
      <trkpt lat="44.95375" lon="6.09768">
        <ele>2149</ele>
        <time>2024-08-14T11:27:19Z</time>
      </trkpt>
      <trkpt lat="44.95375" lon="6.09768">
        <ele>2149.2</ele>
        <time>2024-08-14T11:27:20Z</time>
      </trkpt>
      <trkpt lat="44.95377" lon="6.09769">
        <ele>2149.4</ele>
        <time>2024-08-14T11:27:21Z</time>
      </trkpt>
      <trkpt lat="44.95377" lon="6.09769">
        <ele>2149.6</ele>
        <time>2024-08-14T11:27:22Z</time>
      </trkpt>
      <trkpt lat="44.95377" lon="6.09769">
        <ele>2149.6</ele>
        <time>2024-08-14T11:27:23Z</time>
      </trkpt>
      <trkpt lat="44.9538" lon="6.0977">
        <ele>2150</ele>
        <time>2024-08-14T11:27:24Z</time>
      </trkpt>
      <trkpt lat="44.9538" lon="6.0977">
        <ele>2150.2</ele>
        <time>2024-08-14T11:27:25Z</time>
      </trkpt>
      <trkpt lat="44.9538" lon="6.0977">
        <ele>2150.2</ele>
        <time>2024-08-14T11:27:26Z</time>
      </trkpt>
      <trkpt lat="44.95382" lon="6.0977">
        <ele>2150.6</ele>
        <time>2024-08-14T11:27:27Z</time>
      </trkpt>
      <trkpt lat="44.95382" lon="6.0977">
        <ele>2150.8</ele>
        <time>2024-08-14T11:27:28Z</time>
      </trkpt>
      <trkpt lat="44.95382" lon="6.0977">
        <ele>2151</ele>
        <time>2024-08-14T11:27:29Z</time>
      </trkpt>
      <trkpt lat="44.95385" lon="6.0977">
        <ele>2151</ele>
        <time>2024-08-14T11:27:30Z</time>
      </trkpt>
      <trkpt lat="44.95385" lon="6.0977">
        <ele>2151.2</ele>
        <time>2024-08-14T11:27:31Z</time>
      </trkpt>
      <trkpt lat="44.95388" lon="6.0977">
        <ele>2151.4</ele>
        <time>2024-08-14T11:27:32Z</time>
      </trkpt>
      <trkpt lat="44.95388" lon="6.0977">
        <ele>2151.8</ele>
        <time>2024-08-14T11:27:33Z</time>
      </trkpt>
      <trkpt lat="44.95389" lon="6.09769">
        <ele>2151.8</ele>
        <time>2024-08-14T11:27:34Z</time>
      </trkpt>
      <trkpt lat="44.95389" lon="6.09769">
        <ele>2152</ele>
        <time>2024-08-14T11:27:35Z</time>
      </trkpt>
      <trkpt lat="44.95392" lon="6.09769">
        <ele>2152</ele>
        <time>2024-08-14T11:27:36Z</time>
      </trkpt>
      <trkpt lat="44.95392" lon="6.09769">
        <ele>2152.2</ele>
        <time>2024-08-14T11:27:37Z</time>
      </trkpt>
      <trkpt lat="44.95392" lon="6.09769">
        <ele>2152.2</ele>
        <time>2024-08-14T11:27:38Z</time>
      </trkpt>
      <trkpt lat="44.95395" lon="6.09769">
        <ele>2152.2</ele>
        <time>2024-08-14T11:27:39Z</time>
      </trkpt>
      <trkpt lat="44.95395" lon="6.09769">
        <ele>2152.4</ele>
        <time>2024-08-14T11:27:40Z</time>
      </trkpt>
      <trkpt lat="44.95397" lon="6.09768">
        <ele>2152.6</ele>
        <time>2024-08-14T11:27:41Z</time>
      </trkpt>
      <trkpt lat="44.95397" lon="6.09768">
        <ele>2152.8</ele>
        <time>2024-08-14T11:27:42Z</time>
      </trkpt>
      <trkpt lat="44.95399" lon="6.09767">
        <ele>2153</ele>
        <time>2024-08-14T11:27:43Z</time>
      </trkpt>
      <trkpt lat="44.95399" lon="6.09767">
        <ele>2153</ele>
        <time>2024-08-14T11:27:44Z</time>
      </trkpt>
      <trkpt lat="44.95399" lon="6.09767">
        <ele>2153</ele>
        <time>2024-08-14T11:27:45Z</time>
      </trkpt>
      <trkpt lat="44.95401" lon="6.09768">
        <ele>2153.2</ele>
        <time>2024-08-14T11:27:46Z</time>
      </trkpt>
      <trkpt lat="44.95401" lon="6.09768">
        <ele>2153.6</ele>
        <time>2024-08-14T11:27:47Z</time>
      </trkpt>
      <trkpt lat="44.95401" lon="6.09768">
        <ele>2153.8</ele>
        <time>2024-08-14T11:27:48Z</time>
      </trkpt>
      <trkpt lat="44.95404" lon="6.09768">
        <ele>2154</ele>
        <time>2024-08-14T11:27:49Z</time>
      </trkpt>
      <trkpt lat="44.95404" lon="6.09768">
        <ele>2154</ele>
        <time>2024-08-14T11:27:50Z</time>
      </trkpt>
      <trkpt lat="44.95406" lon="6.09767">
        <ele>2154.6</ele>
        <time>2024-08-14T11:27:51Z</time>
      </trkpt>
      <trkpt lat="44.95406" lon="6.09767">
        <ele>2154.8</ele>
        <time>2024-08-14T11:27:52Z</time>
      </trkpt>
      <trkpt lat="44.95408" lon="6.09766">
        <ele>2155</ele>
        <time>2024-08-14T11:27:53Z</time>
      </trkpt>
      <trkpt lat="44.95408" lon="6.09766">
        <ele>2155.2</ele>
        <time>2024-08-14T11:27:54Z</time>
      </trkpt>
      <trkpt lat="44.9541" lon="6.09766">
        <ele>2155.2</ele>
        <time>2024-08-14T11:27:55Z</time>
      </trkpt>
      <trkpt lat="44.9541" lon="6.09766">
        <ele>2155.6</ele>
        <time>2024-08-14T11:27:56Z</time>
      </trkpt>
      <trkpt lat="44.9541" lon="6.09766">
        <ele>2155.8</ele>
        <time>2024-08-14T11:27:57Z</time>
      </trkpt>
      <trkpt lat="44.9541" lon="6.09766">
        <ele>2155.8</ele>
        <time>2024-08-14T11:27:58Z</time>
      </trkpt>
      <trkpt lat="44.95412" lon="6.09765">
        <ele>2156.2</ele>
        <time>2024-08-14T11:27:59Z</time>
      </trkpt>
      <trkpt lat="44.95412" lon="6.09765">
        <ele>2156.4</ele>
        <time>2024-08-14T11:28:00Z</time>
      </trkpt>
      <trkpt lat="44.95415" lon="6.09765">
        <ele>2156.4</ele>
        <time>2024-08-14T11:28:01Z</time>
      </trkpt>
      <trkpt lat="44.95415" lon="6.09765">
        <ele>2155.8</ele>
        <time>2024-08-14T11:28:02Z</time>
      </trkpt>
      <trkpt lat="44.95417" lon="6.09764">
        <ele>2155.8</ele>
        <time>2024-08-14T11:28:03Z</time>
      </trkpt>
      <trkpt lat="44.95417" lon="6.09764">
        <ele>2156.2</ele>
        <time>2024-08-14T11:28:04Z</time>
      </trkpt>
      <trkpt lat="44.95419" lon="6.09763">
        <ele>2156.2</ele>
        <time>2024-08-14T11:28:05Z</time>
      </trkpt>
      <trkpt lat="44.95419" lon="6.09763">
        <ele>2156.2</ele>
        <time>2024-08-14T11:28:06Z</time>
      </trkpt>
      <trkpt lat="44.95421" lon="6.09763">
        <ele>2156.4</ele>
        <time>2024-08-14T11:28:07Z</time>
      </trkpt>
      <trkpt lat="44.95421" lon="6.09763">
        <ele>2156.6</ele>
        <time>2024-08-14T11:28:08Z</time>
      </trkpt>
      <trkpt lat="44.95423" lon="6.09762">
        <ele>2156.6</ele>
        <time>2024-08-14T11:28:09Z</time>
      </trkpt>
      <trkpt lat="44.95423" lon="6.09762">
        <ele>2156.8</ele>
        <time>2024-08-14T11:28:10Z</time>
      </trkpt>
      <trkpt lat="44.95425" lon="6.0976">
        <ele>2157</ele>
        <time>2024-08-14T11:28:11Z</time>
      </trkpt>
      <trkpt lat="44.95425" lon="6.0976">
        <ele>2157</ele>
        <time>2024-08-14T11:28:12Z</time>
      </trkpt>
      <trkpt lat="44.95427" lon="6.09759">
        <ele>2157.2</ele>
        <time>2024-08-14T11:28:13Z</time>
      </trkpt>
      <trkpt lat="44.95427" lon="6.09759">
        <ele>2157.6</ele>
        <time>2024-08-14T11:28:14Z</time>
      </trkpt>
      <trkpt lat="44.9543" lon="6.09758">
        <ele>2157.8</ele>
        <time>2024-08-14T11:28:15Z</time>
      </trkpt>
      <trkpt lat="44.9543" lon="6.09758">
        <ele>2157.8</ele>
        <time>2024-08-14T11:28:16Z</time>
      </trkpt>
      <trkpt lat="44.9543" lon="6.09758">
        <ele>2158</ele>
        <time>2024-08-14T11:28:17Z</time>
      </trkpt>
      <trkpt lat="44.95432" lon="6.09758">
        <ele>2158.2</ele>
        <time>2024-08-14T11:28:18Z</time>
      </trkpt>
      <trkpt lat="44.95432" lon="6.09758">
        <ele>2158.8</ele>
        <time>2024-08-14T11:28:19Z</time>
      </trkpt>
      <trkpt lat="44.95434" lon="6.09757">
        <ele>2159</ele>
        <time>2024-08-14T11:28:20Z</time>
      </trkpt>
      <trkpt lat="44.95434" lon="6.09757">
        <ele>2159.6</ele>
        <time>2024-08-14T11:28:21Z</time>
      </trkpt>
      <trkpt lat="44.95436" lon="6.09757">
        <ele>2159.6</ele>
        <time>2024-08-14T11:28:22Z</time>
      </trkpt>
      <trkpt lat="44.95436" lon="6.09757">
        <ele>2159.8</ele>
        <time>2024-08-14T11:28:23Z</time>
      </trkpt>
      <trkpt lat="44.95438" lon="6.09756">
        <ele>2159.8</ele>
        <time>2024-08-14T11:28:24Z</time>
      </trkpt>
      <trkpt lat="44.95438" lon="6.09756">
        <ele>2160</ele>
        <time>2024-08-14T11:28:25Z</time>
      </trkpt>
      <trkpt lat="44.95438" lon="6.09756">
        <ele>2160</ele>
        <time>2024-08-14T11:28:26Z</time>
      </trkpt>
      <trkpt lat="44.9544" lon="6.09754">
        <ele>2160.2</ele>
        <time>2024-08-14T11:28:27Z</time>
      </trkpt>
      <trkpt lat="44.9544" lon="6.09754">
        <ele>2160.6</ele>
        <time>2024-08-14T11:28:28Z</time>
      </trkpt>
      <trkpt lat="44.95442" lon="6.09754">
        <ele>2160.6</ele>
        <time>2024-08-14T11:28:29Z</time>
      </trkpt>
      <trkpt lat="44.95442" lon="6.09754">
        <ele>2161</ele>
        <time>2024-08-14T11:28:30Z</time>
      </trkpt>
      <trkpt lat="44.95444" lon="6.09754">
        <ele>2161.4</ele>
        <time>2024-08-14T11:28:31Z</time>
      </trkpt>
      <trkpt lat="44.95444" lon="6.09754">
        <ele>2161.6</ele>
        <time>2024-08-14T11:28:32Z</time>
      </trkpt>
      <trkpt lat="44.95446" lon="6.09754">
        <ele>2161.6</ele>
        <time>2024-08-14T11:28:33Z</time>
      </trkpt>
      <trkpt lat="44.95446" lon="6.09754">
        <ele>2161.6</ele>
        <time>2024-08-14T11:28:34Z</time>
      </trkpt>
      <trkpt lat="44.95449" lon="6.09755">
        <ele>2161.8</ele>
        <time>2024-08-14T11:28:35Z</time>
      </trkpt>
      <trkpt lat="44.95449" lon="6.09755">
        <ele>2162.2</ele>
        <time>2024-08-14T11:28:36Z</time>
      </trkpt>
      <trkpt lat="44.95451" lon="6.09757">
        <ele>2162.4</ele>
        <time>2024-08-14T11:28:37Z</time>
      </trkpt>
      <trkpt lat="44.95451" lon="6.09757">
        <ele>2162.4</ele>
        <time>2024-08-14T11:28:38Z</time>
      </trkpt>
      <trkpt lat="44.95454" lon="6.09758">
        <ele>2162</ele>
        <time>2024-08-14T11:28:39Z</time>
      </trkpt>
      <trkpt lat="44.95454" lon="6.09758">
        <ele>2162</ele>
        <time>2024-08-14T11:28:40Z</time>
      </trkpt>
      <trkpt lat="44.95456" lon="6.0976">
        <ele>2162.2</ele>
        <time>2024-08-14T11:28:41Z</time>
      </trkpt>
      <trkpt lat="44.95456" lon="6.0976">
        <ele>2162.4</ele>
        <time>2024-08-14T11:28:42Z</time>
      </trkpt>
      <trkpt lat="44.95458" lon="6.09761">
        <ele>2162.4</ele>
        <time>2024-08-14T11:28:43Z</time>
      </trkpt>
      <trkpt lat="44.95458" lon="6.09761">
        <ele>2162.4</ele>
        <time>2024-08-14T11:28:44Z</time>
      </trkpt>
      <trkpt lat="44.95461" lon="6.09764">
        <ele>2162.4</ele>
        <time>2024-08-14T11:28:45Z</time>
      </trkpt>
      <trkpt lat="44.95461" lon="6.09764">
        <ele>2162.4</ele>
        <time>2024-08-14T11:28:46Z</time>
      </trkpt>
      <trkpt lat="44.95462" lon="6.09767">
        <ele>2162.4</ele>
        <time>2024-08-14T11:28:47Z</time>
      </trkpt>
      <trkpt lat="44.95462" lon="6.09767">
        <ele>2162.6</ele>
        <time>2024-08-14T11:28:48Z</time>
      </trkpt>
      <trkpt lat="44.95463" lon="6.09769">
        <ele>2162.6</ele>
        <time>2024-08-14T11:28:49Z</time>
      </trkpt>
      <trkpt lat="44.95463" lon="6.09769">
        <ele>2162.6</ele>
        <time>2024-08-14T11:28:50Z</time>
      </trkpt>
      <trkpt lat="44.95463" lon="6.09773">
        <ele>2162.6</ele>
        <time>2024-08-14T11:28:51Z</time>
      </trkpt>
      <trkpt lat="44.95463" lon="6.09773">
        <ele>2162.2</ele>
        <time>2024-08-14T11:28:52Z</time>
      </trkpt>
      <trkpt lat="44.95465" lon="6.09777">
        <ele>2162.2</ele>
        <time>2024-08-14T11:28:53Z</time>
      </trkpt>
      <trkpt lat="44.95465" lon="6.09777">
        <ele>2162</ele>
        <time>2024-08-14T11:28:54Z</time>
      </trkpt>
      <trkpt lat="44.95467" lon="6.09779">
        <ele>2161.8</ele>
        <time>2024-08-14T11:28:55Z</time>
      </trkpt>
      <trkpt lat="44.95467" lon="6.09779">
        <ele>2161.6</ele>
        <time>2024-08-14T11:28:56Z</time>
      </trkpt>
      <trkpt lat="44.95468" lon="6.09783">
        <ele>2161.6</ele>
        <time>2024-08-14T11:28:57Z</time>
      </trkpt>
      <trkpt lat="44.95468" lon="6.09783">
        <ele>2161.6</ele>
        <time>2024-08-14T11:28:58Z</time>
      </trkpt>
      <trkpt lat="44.9547" lon="6.09786">
        <ele>2161.2</ele>
        <time>2024-08-14T11:28:59Z</time>
      </trkpt>
      <trkpt lat="44.9547" lon="6.09786">
        <ele>2161</ele>
        <time>2024-08-14T11:29:00Z</time>
      </trkpt>
      <trkpt lat="44.95472" lon="6.09788">
        <ele>2160.8</ele>
        <time>2024-08-14T11:29:01Z</time>
      </trkpt>
      <trkpt lat="44.95472" lon="6.09788">
        <ele>2160.6</ele>
        <time>2024-08-14T11:29:02Z</time>
      </trkpt>
      <trkpt lat="44.95475" lon="6.0979">
        <ele>2160.6</ele>
        <time>2024-08-14T11:29:03Z</time>
      </trkpt>
      <trkpt lat="44.95475" lon="6.0979">
        <ele>2160.6</ele>
        <time>2024-08-14T11:29:04Z</time>
      </trkpt>
      <trkpt lat="44.95478" lon="6.09792">
        <ele>2160.6</ele>
        <time>2024-08-14T11:29:05Z</time>
      </trkpt>
      <trkpt lat="44.95478" lon="6.09792">
        <ele>2160.6</ele>
        <time>2024-08-14T11:29:06Z</time>
      </trkpt>
      <trkpt lat="44.9548" lon="6.09795">
        <ele>2160.2</ele>
        <time>2024-08-14T11:29:07Z</time>
      </trkpt>
      <trkpt lat="44.9548" lon="6.09795">
        <ele>2160.2</ele>
        <time>2024-08-14T11:29:08Z</time>
      </trkpt>
      <trkpt lat="44.95482" lon="6.09798">
        <ele>2160.2</ele>
        <time>2024-08-14T11:29:09Z</time>
      </trkpt>
      <trkpt lat="44.95482" lon="6.09798">
        <ele>2160.2</ele>
        <time>2024-08-14T11:29:10Z</time>
      </trkpt>
      <trkpt lat="44.95485" lon="6.098">
        <ele>2160</ele>
        <time>2024-08-14T11:29:11Z</time>
      </trkpt>
      <trkpt lat="44.95485" lon="6.098">
        <ele>2160</ele>
        <time>2024-08-14T11:29:12Z</time>
      </trkpt>
      <trkpt lat="44.95487" lon="6.09802">
        <ele>2160</ele>
        <time>2024-08-14T11:29:13Z</time>
      </trkpt>
      <trkpt lat="44.95487" lon="6.09802">
        <ele>2160.2</ele>
        <time>2024-08-14T11:29:14Z</time>
      </trkpt>
      <trkpt lat="44.9549" lon="6.09804">
        <ele>2160.2</ele>
        <time>2024-08-14T11:29:15Z</time>
      </trkpt>
      <trkpt lat="44.9549" lon="6.09804">
        <ele>2160.2</ele>
        <time>2024-08-14T11:29:16Z</time>
      </trkpt>
      <trkpt lat="44.95492" lon="6.09806">
        <ele>2160.2</ele>
        <time>2024-08-14T11:29:17Z</time>
      </trkpt>
      <trkpt lat="44.95492" lon="6.09806">
        <ele>2160.2</ele>
        <time>2024-08-14T11:29:18Z</time>
      </trkpt>
      <trkpt lat="44.95494" lon="6.09808">
        <ele>2160.4</ele>
        <time>2024-08-14T11:29:19Z</time>
      </trkpt>
      <trkpt lat="44.95494" lon="6.09808">
        <ele>2160.4</ele>
        <time>2024-08-14T11:29:20Z</time>
      </trkpt>
      <trkpt lat="44.95498" lon="6.0981">
        <ele>2160.6</ele>
        <time>2024-08-14T11:29:21Z</time>
      </trkpt>
      <trkpt lat="44.95498" lon="6.0981">
        <ele>2160.6</ele>
        <time>2024-08-14T11:29:22Z</time>
      </trkpt>
      <trkpt lat="44.955" lon="6.09813">
        <ele>2160.8</ele>
        <time>2024-08-14T11:29:23Z</time>
      </trkpt>
      <trkpt lat="44.955" lon="6.09813">
        <ele>2160.8</ele>
        <time>2024-08-14T11:29:24Z</time>
      </trkpt>
      <trkpt lat="44.95503" lon="6.09814">
        <ele>2160.6</ele>
        <time>2024-08-14T11:29:25Z</time>
      </trkpt>
      <trkpt lat="44.95503" lon="6.09814">
        <ele>2160.6</ele>
        <time>2024-08-14T11:29:26Z</time>
      </trkpt>
      <trkpt lat="44.95505" lon="6.09817">
        <ele>2160.4</ele>
        <time>2024-08-14T11:29:27Z</time>
      </trkpt>
      <trkpt lat="44.95505" lon="6.09817">
        <ele>2160.4</ele>
        <time>2024-08-14T11:29:28Z</time>
      </trkpt>
      <trkpt lat="44.95508" lon="6.0982">
        <ele>2160.4</ele>
        <time>2024-08-14T11:29:29Z</time>
      </trkpt>
      <trkpt lat="44.95508" lon="6.0982">
        <ele>2160.2</ele>
        <time>2024-08-14T11:29:30Z</time>
      </trkpt>
      <trkpt lat="44.9551" lon="6.09822">
        <ele>2160</ele>
        <time>2024-08-14T11:29:31Z</time>
      </trkpt>
      <trkpt lat="44.9551" lon="6.09822">
        <ele>2160</ele>
        <time>2024-08-14T11:29:32Z</time>
      </trkpt>
      <trkpt lat="44.95512" lon="6.09825">
        <ele>2159.8</ele>
        <time>2024-08-14T11:29:33Z</time>
      </trkpt>
      <trkpt lat="44.95512" lon="6.09825">
        <ele>2160</ele>
        <time>2024-08-14T11:29:34Z</time>
      </trkpt>
      <trkpt lat="44.95514" lon="6.09827">
        <ele>2160</ele>
        <time>2024-08-14T11:29:35Z</time>
      </trkpt>
      <trkpt lat="44.95514" lon="6.09827">
        <ele>2160</ele>
        <time>2024-08-14T11:29:36Z</time>
      </trkpt>
      <trkpt lat="44.95516" lon="6.09829">
        <ele>2159.8</ele>
        <time>2024-08-14T11:29:37Z</time>
      </trkpt>
      <trkpt lat="44.95516" lon="6.09829">
        <ele>2159.8</ele>
        <time>2024-08-14T11:29:38Z</time>
      </trkpt>
      <trkpt lat="44.95519" lon="6.09829">
        <ele>2159.6</ele>
        <time>2024-08-14T11:29:39Z</time>
      </trkpt>
      <trkpt lat="44.95519" lon="6.09829">
        <ele>2159.6</ele>
        <time>2024-08-14T11:29:40Z</time>
      </trkpt>
      <trkpt lat="44.95522" lon="6.09831">
        <ele>2159.4</ele>
        <time>2024-08-14T11:29:41Z</time>
      </trkpt>
      <trkpt lat="44.95522" lon="6.09831">
        <ele>2159.2</ele>
        <time>2024-08-14T11:29:42Z</time>
      </trkpt>
      <trkpt lat="44.95525" lon="6.09832">
        <ele>2159.2</ele>
        <time>2024-08-14T11:29:43Z</time>
      </trkpt>
      <trkpt lat="44.95525" lon="6.09832">
        <ele>2159</ele>
        <time>2024-08-14T11:29:44Z</time>
      </trkpt>
      <trkpt lat="44.95528" lon="6.09833">
        <ele>2158.6</ele>
        <time>2024-08-14T11:29:45Z</time>
      </trkpt>
      <trkpt lat="44.95528" lon="6.09833">
        <ele>2158.4</ele>
        <time>2024-08-14T11:29:46Z</time>
      </trkpt>
      <trkpt lat="44.95531" lon="6.09833">
        <ele>2158.4</ele>
        <time>2024-08-14T11:29:47Z</time>
      </trkpt>
      <trkpt lat="44.95531" lon="6.09833">
        <ele>2158.2</ele>
        <time>2024-08-14T11:29:48Z</time>
      </trkpt>
      <trkpt lat="44.95534" lon="6.09832">
        <ele>2158</ele>
        <time>2024-08-14T11:29:49Z</time>
      </trkpt>
      <trkpt lat="44.95536" lon="6.09832">
        <ele>2158</ele>
        <time>2024-08-14T11:29:50Z</time>
      </trkpt>
      <trkpt lat="44.95536" lon="6.09832">
        <ele>2158</ele>
        <time>2024-08-14T11:29:51Z</time>
      </trkpt>
      <trkpt lat="44.95538" lon="6.09833">
        <ele>2158</ele>
        <time>2024-08-14T11:29:52Z</time>
      </trkpt>
      <trkpt lat="44.95538" lon="6.09833">
        <ele>2157.6</ele>
        <time>2024-08-14T11:29:53Z</time>
      </trkpt>
      <trkpt lat="44.95541" lon="6.09835">
        <ele>2157.6</ele>
        <time>2024-08-14T11:29:54Z</time>
      </trkpt>
      <trkpt lat="44.95541" lon="6.09835">
        <ele>2157.4</ele>
        <time>2024-08-14T11:29:55Z</time>
      </trkpt>
      <trkpt lat="44.95544" lon="6.09837">
        <ele>2157.4</ele>
        <time>2024-08-14T11:29:56Z</time>
      </trkpt>
      <trkpt lat="44.95544" lon="6.09837">
        <ele>2157.4</ele>
        <time>2024-08-14T11:29:57Z</time>
      </trkpt>
      <trkpt lat="44.95546" lon="6.0984">
        <ele>2157.4</ele>
        <time>2024-08-14T11:29:58Z</time>
      </trkpt>
      <trkpt lat="44.95546" lon="6.0984">
        <ele>2157.4</ele>
        <time>2024-08-14T11:29:59Z</time>
      </trkpt>
      <trkpt lat="44.95549" lon="6.09843">
        <ele>2157.4</ele>
        <time>2024-08-14T11:30:00Z</time>
      </trkpt>
      <trkpt lat="44.95549" lon="6.09843">
        <ele>2157</ele>
        <time>2024-08-14T11:30:01Z</time>
      </trkpt>
      <trkpt lat="44.95551" lon="6.09846">
        <ele>2156.8</ele>
        <time>2024-08-14T11:30:02Z</time>
      </trkpt>
      <trkpt lat="44.95553" lon="6.09846">
        <ele>2156.6</ele>
        <time>2024-08-14T11:30:03Z</time>
      </trkpt>
      <trkpt lat="44.95553" lon="6.09846">
        <ele>2156.6</ele>
        <time>2024-08-14T11:30:04Z</time>
      </trkpt>
      <trkpt lat="44.95555" lon="6.09846">
        <ele>2156.6</ele>
        <time>2024-08-14T11:30:05Z</time>
      </trkpt>
      <trkpt lat="44.95555" lon="6.09846">
        <ele>2156.2</ele>
        <time>2024-08-14T11:30:06Z</time>
      </trkpt>
      <trkpt lat="44.95557" lon="6.09846">
        <ele>2156.2</ele>
        <time>2024-08-14T11:30:07Z</time>
      </trkpt>
      <trkpt lat="44.95557" lon="6.09846">
        <ele>2156.2</ele>
        <time>2024-08-14T11:30:08Z</time>
      </trkpt>
      <trkpt lat="44.95557" lon="6.09846">
        <ele>2156.2</ele>
        <time>2024-08-14T11:30:09Z</time>
      </trkpt>
      <trkpt lat="44.95557" lon="6.09846">
        <ele>2156</ele>
        <time>2024-08-14T11:30:10Z</time>
      </trkpt>
      <trkpt lat="44.95557" lon="6.09846">
        <ele>2156</ele>
        <time>2024-08-14T11:30:11Z</time>
      </trkpt>
      <trkpt lat="44.95557" lon="6.09846">
        <ele>2156</ele>
        <time>2024-08-14T11:30:12Z</time>
      </trkpt>
      <trkpt lat="44.9556" lon="6.09848">
        <ele>2156</ele>
        <time>2024-08-14T11:30:13Z</time>
      </trkpt>
      <trkpt lat="44.9556" lon="6.09848">
        <ele>2155.8</ele>
        <time>2024-08-14T11:30:14Z</time>
      </trkpt>
      <trkpt lat="44.95563" lon="6.09849">
        <ele>2155.6</ele>
        <time>2024-08-14T11:30:15Z</time>
      </trkpt>
      <trkpt lat="44.95563" lon="6.09849">
        <ele>2155.2</ele>
        <time>2024-08-14T11:30:16Z</time>
      </trkpt>
      <trkpt lat="44.95565" lon="6.0985">
        <ele>2155</ele>
        <time>2024-08-14T11:30:17Z</time>
      </trkpt>
      <trkpt lat="44.95565" lon="6.0985">
        <ele>2155.2</ele>
        <time>2024-08-14T11:30:18Z</time>
      </trkpt>
      <trkpt lat="44.95567" lon="6.09852">
        <ele>2155.4</ele>
        <time>2024-08-14T11:30:19Z</time>
      </trkpt>
      <trkpt lat="44.95567" lon="6.09852">
        <ele>2155.4</ele>
        <time>2024-08-14T11:30:20Z</time>
      </trkpt>
      <trkpt lat="44.95567" lon="6.09852">
        <ele>2155.4</ele>
        <time>2024-08-14T11:30:21Z</time>
      </trkpt>
      <trkpt lat="44.95567" lon="6.09852">
        <ele>2155.2</ele>
        <time>2024-08-14T11:30:22Z</time>
      </trkpt>
      <trkpt lat="44.95567" lon="6.09852">
        <ele>2154.8</ele>
        <time>2024-08-14T11:30:23Z</time>
      </trkpt>
      <trkpt lat="44.95567" lon="6.09852">
        <ele>2154.8</ele>
        <time>2024-08-14T11:30:24Z</time>
      </trkpt>
      <trkpt lat="44.95567" lon="6.09852">
        <ele>2155</ele>
        <time>2024-08-14T11:30:25Z</time>
      </trkpt>
      <trkpt lat="44.95567" lon="6.09852">
        <ele>2155</ele>
        <time>2024-08-14T11:30:26Z</time>
      </trkpt>
      <trkpt lat="44.95567" lon="6.09852">
        <ele>2155</ele>
        <time>2024-08-14T11:30:27Z</time>
      </trkpt>
      <trkpt lat="44.95567" lon="6.09852">
        <ele>2155</ele>
        <time>2024-08-14T11:30:28Z</time>
      </trkpt>
      <trkpt lat="44.95567" lon="6.09852">
        <ele>2155</ele>
        <time>2024-08-14T11:30:29Z</time>
      </trkpt>
      <trkpt lat="44.95567" lon="6.09852">
        <ele>2155</ele>
        <time>2024-08-14T11:30:30Z</time>
      </trkpt>
      <trkpt lat="44.95567" lon="6.09852">
        <ele>2155</ele>
        <time>2024-08-14T11:30:31Z</time>
      </trkpt>
      <trkpt lat="44.95567" lon="6.09852">
        <ele>2155.2</ele>
        <time>2024-08-14T11:30:32Z</time>
      </trkpt>
      <trkpt lat="44.95567" lon="6.09852">
        <ele>2155.2</ele>
        <time>2024-08-14T11:30:33Z</time>
      </trkpt>
      <trkpt lat="44.95568" lon="6.09854">
        <ele>2155</ele>
        <time>2024-08-14T11:30:34Z</time>
      </trkpt>
      <trkpt lat="44.95568" lon="6.09854">
        <ele>2155</ele>
        <time>2024-08-14T11:30:35Z</time>
      </trkpt>
      <trkpt lat="44.9557" lon="6.09857">
        <ele>2155</ele>
        <time>2024-08-14T11:30:36Z</time>
      </trkpt>
      <trkpt lat="44.95571" lon="6.09859">
        <ele>2155</ele>
        <time>2024-08-14T11:30:37Z</time>
      </trkpt>
      <trkpt lat="44.95573" lon="6.09861">
        <ele>2155</ele>
        <time>2024-08-14T11:30:38Z</time>
      </trkpt>
      <trkpt lat="44.95573" lon="6.09861">
        <ele>2155</ele>
        <time>2024-08-14T11:30:39Z</time>
      </trkpt>
      <trkpt lat="44.95575" lon="6.09865">
        <ele>2155</ele>
        <time>2024-08-14T11:30:40Z</time>
      </trkpt>
      <trkpt lat="44.95575" lon="6.09865">
        <ele>2155</ele>
        <time>2024-08-14T11:30:41Z</time>
      </trkpt>
      <trkpt lat="44.95578" lon="6.09868">
        <ele>2154.8</ele>
        <time>2024-08-14T11:30:42Z</time>
      </trkpt>
      <trkpt lat="44.95578" lon="6.09868">
        <ele>2154.6</ele>
        <time>2024-08-14T11:30:43Z</time>
      </trkpt>
      <trkpt lat="44.9558" lon="6.0987">
        <ele>2154.6</ele>
        <time>2024-08-14T11:30:44Z</time>
      </trkpt>
      <trkpt lat="44.95582" lon="6.09872">
        <ele>2154.4</ele>
        <time>2024-08-14T11:30:45Z</time>
      </trkpt>
      <trkpt lat="44.95582" lon="6.09872">
        <ele>2154.4</ele>
        <time>2024-08-14T11:30:46Z</time>
      </trkpt>
      <trkpt lat="44.95585" lon="6.09874">
        <ele>2154.4</ele>
        <time>2024-08-14T11:30:47Z</time>
      </trkpt>
      <trkpt lat="44.95585" lon="6.09874">
        <ele>2154.4</ele>
        <time>2024-08-14T11:30:48Z</time>
      </trkpt>
      <trkpt lat="44.95587" lon="6.09876">
        <ele>2154.8</ele>
        <time>2024-08-14T11:30:49Z</time>
      </trkpt>
      <trkpt lat="44.95587" lon="6.09876">
        <ele>2154.8</ele>
        <time>2024-08-14T11:30:50Z</time>
      </trkpt>
      <trkpt lat="44.9559" lon="6.09878">
        <ele>2154.8</ele>
        <time>2024-08-14T11:30:51Z</time>
      </trkpt>
      <trkpt lat="44.9559" lon="6.09878">
        <ele>2154.8</ele>
        <time>2024-08-14T11:30:52Z</time>
      </trkpt>
      <trkpt lat="44.95593" lon="6.0988">
        <ele>2154.8</ele>
        <time>2024-08-14T11:30:53Z</time>
      </trkpt>
      <trkpt lat="44.95593" lon="6.0988">
        <ele>2154.6</ele>
        <time>2024-08-14T11:30:54Z</time>
      </trkpt>
      <trkpt lat="44.95595" lon="6.09882">
        <ele>2154.4</ele>
        <time>2024-08-14T11:30:55Z</time>
      </trkpt>
      <trkpt lat="44.95595" lon="6.09882">
        <ele>2154.4</ele>
        <time>2024-08-14T11:30:56Z</time>
      </trkpt>
      <trkpt lat="44.95598" lon="6.09884">
        <ele>2154.4</ele>
        <time>2024-08-14T11:30:57Z</time>
      </trkpt>
      <trkpt lat="44.95598" lon="6.09884">
        <ele>2154.4</ele>
        <time>2024-08-14T11:30:58Z</time>
      </trkpt>
      <trkpt lat="44.95601" lon="6.09886">
        <ele>2154.2</ele>
        <time>2024-08-14T11:30:59Z</time>
      </trkpt>
      <trkpt lat="44.95601" lon="6.09886">
        <ele>2154.2</ele>
        <time>2024-08-14T11:31:00Z</time>
      </trkpt>
      <trkpt lat="44.95604" lon="6.09888">
        <ele>2154.2</ele>
        <time>2024-08-14T11:31:01Z</time>
      </trkpt>
      <trkpt lat="44.95604" lon="6.09888">
        <ele>2154</ele>
        <time>2024-08-14T11:31:02Z</time>
      </trkpt>
      <trkpt lat="44.95607" lon="6.09891">
        <ele>2154</ele>
        <time>2024-08-14T11:31:03Z</time>
      </trkpt>
      <trkpt lat="44.95607" lon="6.09891">
        <ele>2154</ele>
        <time>2024-08-14T11:31:04Z</time>
      </trkpt>
      <trkpt lat="44.95609" lon="6.09894">
        <ele>2154</ele>
        <time>2024-08-14T11:31:05Z</time>
      </trkpt>
      <trkpt lat="44.95609" lon="6.09894">
        <ele>2154</ele>
        <time>2024-08-14T11:31:06Z</time>
      </trkpt>
      <trkpt lat="44.95611" lon="6.09897">
        <ele>2153.8</ele>
        <time>2024-08-14T11:31:07Z</time>
      </trkpt>
      <trkpt lat="44.95611" lon="6.09897">
        <ele>2153.8</ele>
        <time>2024-08-14T11:31:08Z</time>
      </trkpt>
      <trkpt lat="44.95613" lon="6.09901">
        <ele>2153.8</ele>
        <time>2024-08-14T11:31:09Z</time>
      </trkpt>
      <trkpt lat="44.95613" lon="6.09901">
        <ele>2153.8</ele>
        <time>2024-08-14T11:31:10Z</time>
      </trkpt>
      <trkpt lat="44.95613" lon="6.09905">
        <ele>2153.8</ele>
        <time>2024-08-14T11:31:11Z</time>
      </trkpt>
      <trkpt lat="44.95613" lon="6.09905">
        <ele>2153.8</ele>
        <time>2024-08-14T11:31:12Z</time>
      </trkpt>
      <trkpt lat="44.95613" lon="6.09909">
        <ele>2153.8</ele>
        <time>2024-08-14T11:31:13Z</time>
      </trkpt>
      <trkpt lat="44.95613" lon="6.09909">
        <ele>2153.8</ele>
        <time>2024-08-14T11:31:14Z</time>
      </trkpt>
      <trkpt lat="44.95614" lon="6.09914">
        <ele>2153.8</ele>
        <time>2024-08-14T11:31:15Z</time>
      </trkpt>
      <trkpt lat="44.95614" lon="6.09914">
        <ele>2153.8</ele>
        <time>2024-08-14T11:31:16Z</time>
      </trkpt>
      <trkpt lat="44.95615" lon="6.09918">
        <ele>2153.8</ele>
        <time>2024-08-14T11:31:17Z</time>
      </trkpt>
      <trkpt lat="44.95615" lon="6.09918">
        <ele>2153.6</ele>
        <time>2024-08-14T11:31:18Z</time>
      </trkpt>
      <trkpt lat="44.95615" lon="6.09923">
        <ele>2153.6</ele>
        <time>2024-08-14T11:31:19Z</time>
      </trkpt>
      <trkpt lat="44.95615" lon="6.09923">
        <ele>2153.6</ele>
        <time>2024-08-14T11:31:20Z</time>
      </trkpt>
      <trkpt lat="44.95615" lon="6.09927">
        <ele>2153.8</ele>
        <time>2024-08-14T11:31:21Z</time>
      </trkpt>
      <trkpt lat="44.95615" lon="6.09927">
        <ele>2153.8</ele>
        <time>2024-08-14T11:31:22Z</time>
      </trkpt>
      <trkpt lat="44.95615" lon="6.09931">
        <ele>2153.8</ele>
        <time>2024-08-14T11:31:23Z</time>
      </trkpt>
      <trkpt lat="44.95615" lon="6.09931">
        <ele>2154.2</ele>
        <time>2024-08-14T11:31:24Z</time>
      </trkpt>
      <trkpt lat="44.95615" lon="6.09935">
        <ele>2154.2</ele>
        <time>2024-08-14T11:31:25Z</time>
      </trkpt>
      <trkpt lat="44.95615" lon="6.09935">
        <ele>2154.2</ele>
        <time>2024-08-14T11:31:26Z</time>
      </trkpt>
      <trkpt lat="44.95614" lon="6.09939">
        <ele>2154.2</ele>
        <time>2024-08-14T11:31:27Z</time>
      </trkpt>
      <trkpt lat="44.95614" lon="6.09939">
        <ele>2154</ele>
        <time>2024-08-14T11:31:28Z</time>
      </trkpt>
      <trkpt lat="44.95613" lon="6.09943">
        <ele>2154</ele>
        <time>2024-08-14T11:31:29Z</time>
      </trkpt>
      <trkpt lat="44.95613" lon="6.09943">
        <ele>2153.6</ele>
        <time>2024-08-14T11:31:30Z</time>
      </trkpt>
      <trkpt lat="44.95612" lon="6.09947">
        <ele>2153.6</ele>
        <time>2024-08-14T11:31:31Z</time>
      </trkpt>
      <trkpt lat="44.95612" lon="6.09947">
        <ele>2153.8</ele>
        <time>2024-08-14T11:31:32Z</time>
      </trkpt>
      <trkpt lat="44.95611" lon="6.09951">
        <ele>2153.8</ele>
        <time>2024-08-14T11:31:33Z</time>
      </trkpt>
      <trkpt lat="44.95611" lon="6.09951">
        <ele>2153.8</ele>
        <time>2024-08-14T11:31:34Z</time>
      </trkpt>
      <trkpt lat="44.95609" lon="6.09955">
        <ele>2153.8</ele>
        <time>2024-08-14T11:31:35Z</time>
      </trkpt>
      <trkpt lat="44.95609" lon="6.09955">
        <ele>2153.8</ele>
        <time>2024-08-14T11:31:36Z</time>
      </trkpt>
      <trkpt lat="44.95608" lon="6.09958">
        <ele>2153.8</ele>
        <time>2024-08-14T11:31:37Z</time>
      </trkpt>
      <trkpt lat="44.95608" lon="6.09958">
        <ele>2153.6</ele>
        <time>2024-08-14T11:31:38Z</time>
      </trkpt>
      <trkpt lat="44.95607" lon="6.09962">
        <ele>2153.6</ele>
        <time>2024-08-14T11:31:39Z</time>
      </trkpt>
      <trkpt lat="44.95607" lon="6.09962">
        <ele>2153.6</ele>
        <time>2024-08-14T11:31:40Z</time>
      </trkpt>
      <trkpt lat="44.95605" lon="6.09966">
        <ele>2153.6</ele>
        <time>2024-08-14T11:31:41Z</time>
      </trkpt>
      <trkpt lat="44.95605" lon="6.09966">
        <ele>2153.6</ele>
        <time>2024-08-14T11:31:42Z</time>
      </trkpt>
      <trkpt lat="44.95605" lon="6.09969">
        <ele>2153.6</ele>
        <time>2024-08-14T11:31:43Z</time>
      </trkpt>
      <trkpt lat="44.95605" lon="6.09969">
        <ele>2153.6</ele>
        <time>2024-08-14T11:31:44Z</time>
      </trkpt>
      <trkpt lat="44.95603" lon="6.09973">
        <ele>2153.6</ele>
        <time>2024-08-14T11:31:45Z</time>
      </trkpt>
      <trkpt lat="44.95603" lon="6.09973">
        <ele>2153.6</ele>
        <time>2024-08-14T11:31:46Z</time>
      </trkpt>
      <trkpt lat="44.95603" lon="6.09977">
        <ele>2153.4</ele>
        <time>2024-08-14T11:31:47Z</time>
      </trkpt>
      <trkpt lat="44.95603" lon="6.09977">
        <ele>2153.4</ele>
        <time>2024-08-14T11:31:48Z</time>
      </trkpt>
      <trkpt lat="44.95602" lon="6.09981">
        <ele>2153.6</ele>
        <time>2024-08-14T11:31:49Z</time>
      </trkpt>
      <trkpt lat="44.95602" lon="6.09981">
        <ele>2153.6</ele>
        <time>2024-08-14T11:31:50Z</time>
      </trkpt>
      <trkpt lat="44.95601" lon="6.09985">
        <ele>2153.6</ele>
        <time>2024-08-14T11:31:51Z</time>
      </trkpt>
      <trkpt lat="44.95601" lon="6.09985">
        <ele>2153.4</ele>
        <time>2024-08-14T11:31:52Z</time>
      </trkpt>
      <trkpt lat="44.956" lon="6.09988">
        <ele>2153.2</ele>
        <time>2024-08-14T11:31:53Z</time>
      </trkpt>
      <trkpt lat="44.956" lon="6.09988">
        <ele>2153</ele>
        <time>2024-08-14T11:31:54Z</time>
      </trkpt>
      <trkpt lat="44.95599" lon="6.09992">
        <ele>2153</ele>
        <time>2024-08-14T11:31:55Z</time>
      </trkpt>
      <trkpt lat="44.95599" lon="6.09992">
        <ele>2153</ele>
        <time>2024-08-14T11:31:56Z</time>
      </trkpt>
      <trkpt lat="44.95599" lon="6.09996">
        <ele>2152.8</ele>
        <time>2024-08-14T11:31:57Z</time>
      </trkpt>
      <trkpt lat="44.95599" lon="6.09996">
        <ele>2152.8</ele>
        <time>2024-08-14T11:31:58Z</time>
      </trkpt>
      <trkpt lat="44.95599" lon="6.1">
        <ele>2152.6</ele>
        <time>2024-08-14T11:31:59Z</time>
      </trkpt>
      <trkpt lat="44.95599" lon="6.1">
        <ele>2152.4</ele>
        <time>2024-08-14T11:32:00Z</time>
      </trkpt>
      <trkpt lat="44.95599" lon="6.10004">
        <ele>2152</ele>
        <time>2024-08-14T11:32:01Z</time>
      </trkpt>
      <trkpt lat="44.95599" lon="6.10004">
        <ele>2151.6</ele>
        <time>2024-08-14T11:32:02Z</time>
      </trkpt>
      <trkpt lat="44.95598" lon="6.10008">
        <ele>2151.6</ele>
        <time>2024-08-14T11:32:03Z</time>
      </trkpt>
      <trkpt lat="44.95598" lon="6.10008">
        <ele>2151.2</ele>
        <time>2024-08-14T11:32:04Z</time>
      </trkpt>
      <trkpt lat="44.95599" lon="6.10012">
        <ele>2151</ele>
        <time>2024-08-14T11:32:05Z</time>
      </trkpt>
      <trkpt lat="44.95599" lon="6.10012">
        <ele>2151</ele>
        <time>2024-08-14T11:32:06Z</time>
      </trkpt>
      <trkpt lat="44.95599" lon="6.10014">
        <ele>2150.8</ele>
        <time>2024-08-14T11:32:07Z</time>
      </trkpt>
      <trkpt lat="44.95599" lon="6.10014">
        <ele>2150.6</ele>
        <time>2024-08-14T11:32:08Z</time>
      </trkpt>
      <trkpt lat="44.956" lon="6.10018">
        <ele>2150.4</ele>
        <time>2024-08-14T11:32:09Z</time>
      </trkpt>
      <trkpt lat="44.956" lon="6.10018">
        <ele>2150.2</ele>
        <time>2024-08-14T11:32:10Z</time>
      </trkpt>
      <trkpt lat="44.95601" lon="6.10022">
        <ele>2149.8</ele>
        <time>2024-08-14T11:32:11Z</time>
      </trkpt>
      <trkpt lat="44.95601" lon="6.10022">
        <ele>2149.6</ele>
        <time>2024-08-14T11:32:12Z</time>
      </trkpt>
      <trkpt lat="44.95602" lon="6.10025">
        <ele>2149.4</ele>
        <time>2024-08-14T11:32:13Z</time>
      </trkpt>
      <trkpt lat="44.95602" lon="6.10025">
        <ele>2149.2</ele>
        <time>2024-08-14T11:32:14Z</time>
      </trkpt>
      <trkpt lat="44.95603" lon="6.10029">
        <ele>2149</ele>
        <time>2024-08-14T11:32:15Z</time>
      </trkpt>
      <trkpt lat="44.95603" lon="6.10029">
        <ele>2148.8</ele>
        <time>2024-08-14T11:32:16Z</time>
      </trkpt>
      <trkpt lat="44.95603" lon="6.10032">
        <ele>2148.8</ele>
        <time>2024-08-14T11:32:17Z</time>
      </trkpt>
      <trkpt lat="44.95603" lon="6.10032">
        <ele>2148.8</ele>
        <time>2024-08-14T11:32:18Z</time>
      </trkpt>
      <trkpt lat="44.95602" lon="6.10035">
        <ele>2148.4</ele>
        <time>2024-08-14T11:32:19Z</time>
      </trkpt>
      <trkpt lat="44.95602" lon="6.10035">
        <ele>2148</ele>
        <time>2024-08-14T11:32:20Z</time>
      </trkpt>
      <trkpt lat="44.95601" lon="6.10038">
        <ele>2147.8</ele>
        <time>2024-08-14T11:32:21Z</time>
      </trkpt>
      <trkpt lat="44.95601" lon="6.10038">
        <ele>2147.6</ele>
        <time>2024-08-14T11:32:22Z</time>
      </trkpt>
      <trkpt lat="44.95601" lon="6.10041">
        <ele>2147.2</ele>
        <time>2024-08-14T11:32:23Z</time>
      </trkpt>
      <trkpt lat="44.95601" lon="6.10041">
        <ele>2147</ele>
        <time>2024-08-14T11:32:24Z</time>
      </trkpt>
      <trkpt lat="44.95601" lon="6.10045">
        <ele>2146.8</ele>
        <time>2024-08-14T11:32:25Z</time>
      </trkpt>
      <trkpt lat="44.95601" lon="6.10045">
        <ele>2146.6</ele>
        <time>2024-08-14T11:32:26Z</time>
      </trkpt>
      <trkpt lat="44.95601" lon="6.10049">
        <ele>2146.2</ele>
        <time>2024-08-14T11:32:27Z</time>
      </trkpt>
      <trkpt lat="44.95601" lon="6.10049">
        <ele>2146</ele>
        <time>2024-08-14T11:32:28Z</time>
      </trkpt>
      <trkpt lat="44.95601" lon="6.10053">
        <ele>2145.8</ele>
        <time>2024-08-14T11:32:29Z</time>
      </trkpt>
      <trkpt lat="44.95601" lon="6.10053">
        <ele>2145.6</ele>
        <time>2024-08-14T11:32:30Z</time>
      </trkpt>
      <trkpt lat="44.95602" lon="6.10056">
        <ele>2145.2</ele>
        <time>2024-08-14T11:32:31Z</time>
      </trkpt>
      <trkpt lat="44.95602" lon="6.10056">
        <ele>2145</ele>
        <time>2024-08-14T11:32:32Z</time>
      </trkpt>
      <trkpt lat="44.95603" lon="6.1006">
        <ele>2145</ele>
        <time>2024-08-14T11:32:33Z</time>
      </trkpt>
      <trkpt lat="44.95603" lon="6.1006">
        <ele>2144.4</ele>
        <time>2024-08-14T11:32:34Z</time>
      </trkpt>
      <trkpt lat="44.95604" lon="6.10064">
        <ele>2144.4</ele>
        <time>2024-08-14T11:32:35Z</time>
      </trkpt>
      <trkpt lat="44.95604" lon="6.10064">
        <ele>2144.2</ele>
        <time>2024-08-14T11:32:36Z</time>
      </trkpt>
      <trkpt lat="44.95605" lon="6.10067">
        <ele>2144</ele>
        <time>2024-08-14T11:32:37Z</time>
      </trkpt>
      <trkpt lat="44.95605" lon="6.10067">
        <ele>2143.8</ele>
        <time>2024-08-14T11:32:38Z</time>
      </trkpt>
      <trkpt lat="44.95607" lon="6.10071">
        <ele>2143.8</ele>
        <time>2024-08-14T11:32:39Z</time>
      </trkpt>
      <trkpt lat="44.95607" lon="6.10071">
        <ele>2143.8</ele>
        <time>2024-08-14T11:32:40Z</time>
      </trkpt>
      <trkpt lat="44.95609" lon="6.10072">
        <ele>2143.8</ele>
        <time>2024-08-14T11:32:41Z</time>
      </trkpt>
      <trkpt lat="44.95609" lon="6.10072">
        <ele>2143.8</ele>
        <time>2024-08-14T11:32:42Z</time>
      </trkpt>
      <trkpt lat="44.95609" lon="6.10072">
        <ele>2143.8</ele>
        <time>2024-08-14T11:32:43Z</time>
      </trkpt>
      <trkpt lat="44.95612" lon="6.10074">
        <ele>2143.2</ele>
        <time>2024-08-14T11:32:44Z</time>
      </trkpt>
      <trkpt lat="44.95612" lon="6.10074">
        <ele>2143.2</ele>
        <time>2024-08-14T11:32:45Z</time>
      </trkpt>
      <trkpt lat="44.95613" lon="6.10075">
        <ele>2142.8</ele>
        <time>2024-08-14T11:32:46Z</time>
      </trkpt>
      <trkpt lat="44.95613" lon="6.10075">
        <ele>2142.8</ele>
        <time>2024-08-14T11:32:47Z</time>
      </trkpt>
      <trkpt lat="44.95613" lon="6.10079">
        <ele>2142.6</ele>
        <time>2024-08-14T11:32:48Z</time>
      </trkpt>
      <trkpt lat="44.95613" lon="6.10079">
        <ele>2142.2</ele>
        <time>2024-08-14T11:32:49Z</time>
      </trkpt>
      <trkpt lat="44.95613" lon="6.10083">
        <ele>2141.8</ele>
        <time>2024-08-14T11:32:50Z</time>
      </trkpt>
      <trkpt lat="44.95613" lon="6.10083">
        <ele>2141.4</ele>
        <time>2024-08-14T11:32:51Z</time>
      </trkpt>
      <trkpt lat="44.95613" lon="6.10086">
        <ele>2141.2</ele>
        <time>2024-08-14T11:32:52Z</time>
      </trkpt>
      <trkpt lat="44.95613" lon="6.10086">
        <ele>2140.8</ele>
        <time>2024-08-14T11:32:53Z</time>
      </trkpt>
      <trkpt lat="44.95611" lon="6.10089">
        <ele>2140.8</ele>
        <time>2024-08-14T11:32:54Z</time>
      </trkpt>
      <trkpt lat="44.95611" lon="6.10089">
        <ele>2140.6</ele>
        <time>2024-08-14T11:32:55Z</time>
      </trkpt>
      <trkpt lat="44.95609" lon="6.10092">
        <ele>2140.2</ele>
        <time>2024-08-14T11:32:56Z</time>
      </trkpt>
      <trkpt lat="44.95609" lon="6.10092">
        <ele>2140</ele>
        <time>2024-08-14T11:32:57Z</time>
      </trkpt>
      <trkpt lat="44.95608" lon="6.10095">
        <ele>2140</ele>
        <time>2024-08-14T11:32:58Z</time>
      </trkpt>
      <trkpt lat="44.95608" lon="6.10095">
        <ele>2139.6</ele>
        <time>2024-08-14T11:32:59Z</time>
      </trkpt>
      <trkpt lat="44.95606" lon="6.10098">
        <ele>2139.4</ele>
        <time>2024-08-14T11:33:00Z</time>
      </trkpt>
      <trkpt lat="44.95606" lon="6.10098">
        <ele>2139.2</ele>
        <time>2024-08-14T11:33:01Z</time>
      </trkpt>
      <trkpt lat="44.95605" lon="6.10101">
        <ele>2139</ele>
        <time>2024-08-14T11:33:02Z</time>
      </trkpt>
      <trkpt lat="44.95605" lon="6.10101">
        <ele>2139</ele>
        <time>2024-08-14T11:33:03Z</time>
      </trkpt>
      <trkpt lat="44.95603" lon="6.10102">
        <ele>2138.8</ele>
        <time>2024-08-14T11:33:04Z</time>
      </trkpt>
      <trkpt lat="44.95603" lon="6.10102">
        <ele>2138.4</ele>
        <time>2024-08-14T11:33:05Z</time>
      </trkpt>
      <trkpt lat="44.95601" lon="6.10105">
        <ele>2138.2</ele>
        <time>2024-08-14T11:33:06Z</time>
      </trkpt>
      <trkpt lat="44.95601" lon="6.10105">
        <ele>2138</ele>
        <time>2024-08-14T11:33:07Z</time>
      </trkpt>
      <trkpt lat="44.95599" lon="6.10106">
        <ele>2137.8</ele>
        <time>2024-08-14T11:33:08Z</time>
      </trkpt>
      <trkpt lat="44.95599" lon="6.10106">
        <ele>2137.8</ele>
        <time>2024-08-14T11:33:09Z</time>
      </trkpt>
      <trkpt lat="44.95598" lon="6.10108">
        <ele>2137.6</ele>
        <time>2024-08-14T11:33:10Z</time>
      </trkpt>
      <trkpt lat="44.95598" lon="6.10108">
        <ele>2137.2</ele>
        <time>2024-08-14T11:33:11Z</time>
      </trkpt>
      <trkpt lat="44.95598" lon="6.10108">
        <ele>2137.2</ele>
        <time>2024-08-14T11:33:12Z</time>
      </trkpt>
      <trkpt lat="44.95596" lon="6.10111">
        <ele>2137</ele>
        <time>2024-08-14T11:33:13Z</time>
      </trkpt>
      <trkpt lat="44.95596" lon="6.10111">
        <ele>2136.8</ele>
        <time>2024-08-14T11:33:14Z</time>
      </trkpt>
      <trkpt lat="44.95595" lon="6.10113">
        <ele>2136.6</ele>
        <time>2024-08-14T11:33:15Z</time>
      </trkpt>
      <trkpt lat="44.95595" lon="6.10113">
        <ele>2136.2</ele>
        <time>2024-08-14T11:33:16Z</time>
      </trkpt>
      <trkpt lat="44.95593" lon="6.10116">
        <ele>2136.2</ele>
        <time>2024-08-14T11:33:17Z</time>
      </trkpt>
      <trkpt lat="44.95593" lon="6.10116">
        <ele>2135.8</ele>
        <time>2024-08-14T11:33:18Z</time>
      </trkpt>
      <trkpt lat="44.95591" lon="6.10118">
        <ele>2135.4</ele>
        <time>2024-08-14T11:33:19Z</time>
      </trkpt>
      <trkpt lat="44.95591" lon="6.10118">
        <ele>2135.4</ele>
        <time>2024-08-14T11:33:20Z</time>
      </trkpt>
      <trkpt lat="44.95589" lon="6.1012">
        <ele>2135.2</ele>
        <time>2024-08-14T11:33:21Z</time>
      </trkpt>
      <trkpt lat="44.95589" lon="6.1012">
        <ele>2135.2</ele>
        <time>2024-08-14T11:33:22Z</time>
      </trkpt>
      <trkpt lat="44.95586" lon="6.10123">
        <ele>2135</ele>
        <time>2024-08-14T11:33:23Z</time>
      </trkpt>
      <trkpt lat="44.95586" lon="6.10123">
        <ele>2134.6</ele>
        <time>2024-08-14T11:33:24Z</time>
      </trkpt>
      <trkpt lat="44.95584" lon="6.10124">
        <ele>2134.4</ele>
        <time>2024-08-14T11:33:25Z</time>
      </trkpt>
      <trkpt lat="44.95584" lon="6.10124">
        <ele>2134.2</ele>
        <time>2024-08-14T11:33:26Z</time>
      </trkpt>
      <trkpt lat="44.95581" lon="6.10126">
        <ele>2134</ele>
        <time>2024-08-14T11:33:27Z</time>
      </trkpt>
      <trkpt lat="44.95581" lon="6.10126">
        <ele>2134</ele>
        <time>2024-08-14T11:33:28Z</time>
      </trkpt>
      <trkpt lat="44.95579" lon="6.10127">
        <ele>2133.4</ele>
        <time>2024-08-14T11:33:29Z</time>
      </trkpt>
      <trkpt lat="44.95579" lon="6.10127">
        <ele>2133.2</ele>
        <time>2024-08-14T11:33:30Z</time>
      </trkpt>
      <trkpt lat="44.95579" lon="6.10127">
        <ele>2133</ele>
        <time>2024-08-14T11:33:31Z</time>
      </trkpt>
      <trkpt lat="44.9558" lon="6.1013">
        <ele>2132.6</ele>
        <time>2024-08-14T11:33:32Z</time>
      </trkpt>
      <trkpt lat="44.9558" lon="6.1013">
        <ele>2132.2</ele>
        <time>2024-08-14T11:33:33Z</time>
      </trkpt>
      <trkpt lat="44.95583" lon="6.10131">
        <ele>2132</ele>
        <time>2024-08-14T11:33:34Z</time>
      </trkpt>
      <trkpt lat="44.95583" lon="6.10131">
        <ele>2132</ele>
        <time>2024-08-14T11:33:35Z</time>
      </trkpt>
      <trkpt lat="44.95585" lon="6.10131">
        <ele>2132</ele>
        <time>2024-08-14T11:33:36Z</time>
      </trkpt>
      <trkpt lat="44.95585" lon="6.10131">
        <ele>2131.8</ele>
        <time>2024-08-14T11:33:37Z</time>
      </trkpt>
      <trkpt lat="44.95587" lon="6.10131">
        <ele>2131.4</ele>
        <time>2024-08-14T11:33:38Z</time>
      </trkpt>
      <trkpt lat="44.95587" lon="6.10131">
        <ele>2131.4</ele>
        <time>2024-08-14T11:33:39Z</time>
      </trkpt>
      <trkpt lat="44.95589" lon="6.10133">
        <ele>2131</ele>
        <time>2024-08-14T11:33:40Z</time>
      </trkpt>
      <trkpt lat="44.95589" lon="6.10133">
        <ele>2130.8</ele>
        <time>2024-08-14T11:33:41Z</time>
      </trkpt>
      <trkpt lat="44.95591" lon="6.10133">
        <ele>2130.2</ele>
        <time>2024-08-14T11:33:42Z</time>
      </trkpt>
      <trkpt lat="44.95591" lon="6.10133">
        <ele>2130.2</ele>
        <time>2024-08-14T11:33:43Z</time>
      </trkpt>
      <trkpt lat="44.95593" lon="6.10134">
        <ele>2130.2</ele>
        <time>2024-08-14T11:33:44Z</time>
      </trkpt>
      <trkpt lat="44.95593" lon="6.10134">
        <ele>2129.8</ele>
        <time>2024-08-14T11:33:45Z</time>
      </trkpt>
      <trkpt lat="44.95595" lon="6.10135">
        <ele>2129.4</ele>
        <time>2024-08-14T11:33:46Z</time>
      </trkpt>
      <trkpt lat="44.95595" lon="6.10135">
        <ele>2129</ele>
        <time>2024-08-14T11:33:47Z</time>
      </trkpt>
      <trkpt lat="44.95597" lon="6.10136">
        <ele>2128.4</ele>
        <time>2024-08-14T11:33:48Z</time>
      </trkpt>
      <trkpt lat="44.95597" lon="6.10136">
        <ele>2128.4</ele>
        <time>2024-08-14T11:33:49Z</time>
      </trkpt>
      <trkpt lat="44.95598" lon="6.10138">
        <ele>2128.2</ele>
        <time>2024-08-14T11:33:50Z</time>
      </trkpt>
      <trkpt lat="44.95598" lon="6.10138">
        <ele>2128.2</ele>
        <time>2024-08-14T11:33:51Z</time>
      </trkpt>
      <trkpt lat="44.95598" lon="6.10138">
        <ele>2127.8</ele>
        <time>2024-08-14T11:33:52Z</time>
      </trkpt>
      <trkpt lat="44.956" lon="6.10139">
        <ele>2127.6</ele>
        <time>2024-08-14T11:33:53Z</time>
      </trkpt>
      <trkpt lat="44.956" lon="6.10139">
        <ele>2127.4</ele>
        <time>2024-08-14T11:33:54Z</time>
      </trkpt>
      <trkpt lat="44.95601" lon="6.10136">
        <ele>2127.2</ele>
        <time>2024-08-14T11:33:55Z</time>
      </trkpt>
      <trkpt lat="44.95601" lon="6.10136">
        <ele>2127.2</ele>
        <time>2024-08-14T11:33:56Z</time>
      </trkpt>
      <trkpt lat="44.95603" lon="6.10137">
        <ele>2126.8</ele>
        <time>2024-08-14T11:33:57Z</time>
      </trkpt>
      <trkpt lat="44.95603" lon="6.10137">
        <ele>2126.6</ele>
        <time>2024-08-14T11:33:58Z</time>
      </trkpt>
      <trkpt lat="44.95604" lon="6.10139">
        <ele>2126.4</ele>
        <time>2024-08-14T11:33:59Z</time>
      </trkpt>
      <trkpt lat="44.95604" lon="6.10139">
        <ele>2126.2</ele>
        <time>2024-08-14T11:34:00Z</time>
      </trkpt>
      <trkpt lat="44.95605" lon="6.10142">
        <ele>2125.6</ele>
        <time>2024-08-14T11:34:01Z</time>
      </trkpt>
      <trkpt lat="44.95605" lon="6.10142">
        <ele>2125.2</ele>
        <time>2024-08-14T11:34:02Z</time>
      </trkpt>
      <trkpt lat="44.95604" lon="6.10145">
        <ele>2125.2</ele>
        <time>2024-08-14T11:34:03Z</time>
      </trkpt>
      <trkpt lat="44.95604" lon="6.10145">
        <ele>2125</ele>
        <time>2024-08-14T11:34:04Z</time>
      </trkpt>
      <trkpt lat="44.95604" lon="6.10145">
        <ele>2125</ele>
        <time>2024-08-14T11:34:05Z</time>
      </trkpt>
      <trkpt lat="44.95605" lon="6.10147">
        <ele>2124.8</ele>
        <time>2024-08-14T11:34:06Z</time>
      </trkpt>
      <trkpt lat="44.95605" lon="6.10147">
        <ele>2124.4</ele>
        <time>2024-08-14T11:34:07Z</time>
      </trkpt>
      <trkpt lat="44.95605" lon="6.10147">
        <ele>2124.2</ele>
        <time>2024-08-14T11:34:08Z</time>
      </trkpt>
      <trkpt lat="44.95607" lon="6.10147">
        <ele>2123.8</ele>
        <time>2024-08-14T11:34:09Z</time>
      </trkpt>
      <trkpt lat="44.95607" lon="6.10147">
        <ele>2123.6</ele>
        <time>2024-08-14T11:34:10Z</time>
      </trkpt>
      <trkpt lat="44.95609" lon="6.10145">
        <ele>2123.4</ele>
        <time>2024-08-14T11:34:11Z</time>
      </trkpt>
      <trkpt lat="44.95609" lon="6.10145">
        <ele>2123.2</ele>
        <time>2024-08-14T11:34:12Z</time>
      </trkpt>
      <trkpt lat="44.9561" lon="6.10142">
        <ele>2123.2</ele>
        <time>2024-08-14T11:34:13Z</time>
      </trkpt>
      <trkpt lat="44.9561" lon="6.10142">
        <ele>2123</ele>
        <time>2024-08-14T11:34:14Z</time>
      </trkpt>
      <trkpt lat="44.95612" lon="6.10139">
        <ele>2122.4</ele>
        <time>2024-08-14T11:34:15Z</time>
      </trkpt>
      <trkpt lat="44.95612" lon="6.10139">
        <ele>2122.2</ele>
        <time>2024-08-14T11:34:16Z</time>
      </trkpt>
      <trkpt lat="44.95613" lon="6.10137">
        <ele>2121.8</ele>
        <time>2024-08-14T11:34:17Z</time>
      </trkpt>
      <trkpt lat="44.95613" lon="6.10137">
        <ele>2121.6</ele>
        <time>2024-08-14T11:34:18Z</time>
      </trkpt>
      <trkpt lat="44.95613" lon="6.10137">
        <ele>2121.4</ele>
        <time>2024-08-14T11:34:19Z</time>
      </trkpt>
      <trkpt lat="44.95615" lon="6.10134">
        <ele>2121.2</ele>
        <time>2024-08-14T11:34:20Z</time>
      </trkpt>
      <trkpt lat="44.95615" lon="6.10134">
        <ele>2121.2</ele>
        <time>2024-08-14T11:34:21Z</time>
      </trkpt>
      <trkpt lat="44.95617" lon="6.10132">
        <ele>2120.8</ele>
        <time>2024-08-14T11:34:22Z</time>
      </trkpt>
      <trkpt lat="44.95617" lon="6.10132">
        <ele>2120.4</ele>
        <time>2024-08-14T11:34:23Z</time>
      </trkpt>
      <trkpt lat="44.95619" lon="6.10132">
        <ele>2120.4</ele>
        <time>2024-08-14T11:34:24Z</time>
      </trkpt>
      <trkpt lat="44.95619" lon="6.10132">
        <ele>2120.2</ele>
        <time>2024-08-14T11:34:25Z</time>
      </trkpt>
      <trkpt lat="44.95621" lon="6.10133">
        <ele>2119.8</ele>
        <time>2024-08-14T11:34:26Z</time>
      </trkpt>
      <trkpt lat="44.95621" lon="6.10133">
        <ele>2119.6</ele>
        <time>2024-08-14T11:34:27Z</time>
      </trkpt>
      <trkpt lat="44.95621" lon="6.10133">
        <ele>2119.2</ele>
        <time>2024-08-14T11:34:28Z</time>
      </trkpt>
      <trkpt lat="44.95623" lon="6.10134">
        <ele>2119</ele>
        <time>2024-08-14T11:34:29Z</time>
      </trkpt>
      <trkpt lat="44.95623" lon="6.10134">
        <ele>2118.6</ele>
        <time>2024-08-14T11:34:30Z</time>
      </trkpt>
      <trkpt lat="44.95625" lon="6.10135">
        <ele>2118.4</ele>
        <time>2024-08-14T11:34:31Z</time>
      </trkpt>
      <trkpt lat="44.95625" lon="6.10135">
        <ele>2117.8</ele>
        <time>2024-08-14T11:34:32Z</time>
      </trkpt>
      <trkpt lat="44.95627" lon="6.10136">
        <ele>2117.8</ele>
        <time>2024-08-14T11:34:33Z</time>
      </trkpt>
      <trkpt lat="44.95627" lon="6.10136">
        <ele>2117.4</ele>
        <time>2024-08-14T11:34:34Z</time>
      </trkpt>
      <trkpt lat="44.95629" lon="6.10135">
        <ele>2117.4</ele>
        <time>2024-08-14T11:34:35Z</time>
      </trkpt>
      <trkpt lat="44.95629" lon="6.10135">
        <ele>2117.2</ele>
        <time>2024-08-14T11:34:36Z</time>
      </trkpt>
      <trkpt lat="44.95631" lon="6.10134">
        <ele>2116.8</ele>
        <time>2024-08-14T11:34:37Z</time>
      </trkpt>
      <trkpt lat="44.95631" lon="6.10134">
        <ele>2116.8</ele>
        <time>2024-08-14T11:34:38Z</time>
      </trkpt>
      <trkpt lat="44.95634" lon="6.10134">
        <ele>2116.6</ele>
        <time>2024-08-14T11:34:39Z</time>
      </trkpt>
      <trkpt lat="44.95634" lon="6.10134">
        <ele>2116.4</ele>
        <time>2024-08-14T11:34:40Z</time>
      </trkpt>
      <trkpt lat="44.95636" lon="6.10133">
        <ele>2116</ele>
        <time>2024-08-14T11:34:41Z</time>
      </trkpt>
      <trkpt lat="44.95636" lon="6.10133">
        <ele>2115.6</ele>
        <time>2024-08-14T11:34:42Z</time>
      </trkpt>
      <trkpt lat="44.95638" lon="6.10132">
        <ele>2115.4</ele>
        <time>2024-08-14T11:34:43Z</time>
      </trkpt>
      <trkpt lat="44.95638" lon="6.10132">
        <ele>2115</ele>
        <time>2024-08-14T11:34:44Z</time>
      </trkpt>
      <trkpt lat="44.95641" lon="6.10131">
        <ele>2114.8</ele>
        <time>2024-08-14T11:34:45Z</time>
      </trkpt>
      <trkpt lat="44.95641" lon="6.10131">
        <ele>2114.6</ele>
        <time>2024-08-14T11:34:46Z</time>
      </trkpt>
      <trkpt lat="44.95644" lon="6.10131">
        <ele>2114.4</ele>
        <time>2024-08-14T11:34:47Z</time>
      </trkpt>
      <trkpt lat="44.95644" lon="6.10131">
        <ele>2114.2</ele>
        <time>2024-08-14T11:34:48Z</time>
      </trkpt>
      <trkpt lat="44.95645" lon="6.10129">
        <ele>2114</ele>
        <time>2024-08-14T11:34:49Z</time>
      </trkpt>
      <trkpt lat="44.95645" lon="6.10129">
        <ele>2113.6</ele>
        <time>2024-08-14T11:34:50Z</time>
      </trkpt>
      <trkpt lat="44.95648" lon="6.10127">
        <ele>2113.4</ele>
        <time>2024-08-14T11:34:51Z</time>
      </trkpt>
      <trkpt lat="44.95648" lon="6.10127">
        <ele>2113.4</ele>
        <time>2024-08-14T11:34:52Z</time>
      </trkpt>
      <trkpt lat="44.95651" lon="6.10125">
        <ele>2113.2</ele>
        <time>2024-08-14T11:34:53Z</time>
      </trkpt>
      <trkpt lat="44.95651" lon="6.10125">
        <ele>2113</ele>
        <time>2024-08-14T11:34:54Z</time>
      </trkpt>
      <trkpt lat="44.95653" lon="6.10123">
        <ele>2113</ele>
        <time>2024-08-14T11:34:55Z</time>
      </trkpt>
      <trkpt lat="44.95653" lon="6.10123">
        <ele>2113</ele>
        <time>2024-08-14T11:34:56Z</time>
      </trkpt>
      <trkpt lat="44.95655" lon="6.10121">
        <ele>2113</ele>
        <time>2024-08-14T11:34:57Z</time>
      </trkpt>
      <trkpt lat="44.95655" lon="6.10121">
        <ele>2113</ele>
        <time>2024-08-14T11:34:58Z</time>
      </trkpt>
      <trkpt lat="44.95658" lon="6.10119">
        <ele>2112.6</ele>
        <time>2024-08-14T11:34:59Z</time>
      </trkpt>
      <trkpt lat="44.95658" lon="6.10119">
        <ele>2112.4</ele>
        <time>2024-08-14T11:35:00Z</time>
      </trkpt>
      <trkpt lat="44.95661" lon="6.10118">
        <ele>2112</ele>
        <time>2024-08-14T11:35:01Z</time>
      </trkpt>
      <trkpt lat="44.95661" lon="6.10118">
        <ele>2111.4</ele>
        <time>2024-08-14T11:35:02Z</time>
      </trkpt>
      <trkpt lat="44.95663" lon="6.10118">
        <ele>2111.4</ele>
        <time>2024-08-14T11:35:03Z</time>
      </trkpt>
      <trkpt lat="44.95663" lon="6.10118">
        <ele>2111.2</ele>
        <time>2024-08-14T11:35:04Z</time>
      </trkpt>
      <trkpt lat="44.95664" lon="6.1012">
        <ele>2111</ele>
        <time>2024-08-14T11:35:05Z</time>
      </trkpt>
      <trkpt lat="44.95664" lon="6.1012">
        <ele>2110.8</ele>
        <time>2024-08-14T11:35:06Z</time>
      </trkpt>
      <trkpt lat="44.95665" lon="6.10123">
        <ele>2110.4</ele>
        <time>2024-08-14T11:35:07Z</time>
      </trkpt>
      <trkpt lat="44.95665" lon="6.10123">
        <ele>2110.2</ele>
        <time>2024-08-14T11:35:08Z</time>
      </trkpt>
      <trkpt lat="44.95665" lon="6.10126">
        <ele>2110</ele>
        <time>2024-08-14T11:35:09Z</time>
      </trkpt>
      <trkpt lat="44.95665" lon="6.10126">
        <ele>2109.4</ele>
        <time>2024-08-14T11:35:10Z</time>
      </trkpt>
      <trkpt lat="44.95664" lon="6.10129">
        <ele>2109.2</ele>
        <time>2024-08-14T11:35:11Z</time>
      </trkpt>
      <trkpt lat="44.95664" lon="6.10129">
        <ele>2109.2</ele>
        <time>2024-08-14T11:35:12Z</time>
      </trkpt>
      <trkpt lat="44.95664" lon="6.10129">
        <ele>2109</ele>
        <time>2024-08-14T11:35:13Z</time>
      </trkpt>
      <trkpt lat="44.95664" lon="6.10129">
        <ele>2108.6</ele>
        <time>2024-08-14T11:35:14Z</time>
      </trkpt>
      <trkpt lat="44.95667" lon="6.10131">
        <ele>2108.4</ele>
        <time>2024-08-14T11:35:15Z</time>
      </trkpt>
      <trkpt lat="44.95667" lon="6.10131">
        <ele>2108</ele>
        <time>2024-08-14T11:35:16Z</time>
      </trkpt>
      <trkpt lat="44.95669" lon="6.10132">
        <ele>2107.8</ele>
        <time>2024-08-14T11:35:17Z</time>
      </trkpt>
      <trkpt lat="44.95669" lon="6.10132">
        <ele>2107.8</ele>
        <time>2024-08-14T11:35:18Z</time>
      </trkpt>
      <trkpt lat="44.95671" lon="6.10133">
        <ele>2107.4</ele>
        <time>2024-08-14T11:35:19Z</time>
      </trkpt>
      <trkpt lat="44.95671" lon="6.10133">
        <ele>2107</ele>
        <time>2024-08-14T11:35:20Z</time>
      </trkpt>
      <trkpt lat="44.95672" lon="6.10136">
        <ele>2107</ele>
        <time>2024-08-14T11:35:21Z</time>
      </trkpt>
      <trkpt lat="44.95672" lon="6.10136">
        <ele>2107</ele>
        <time>2024-08-14T11:35:22Z</time>
      </trkpt>
      <trkpt lat="44.95671" lon="6.10139">
        <ele>2106.6</ele>
        <time>2024-08-14T11:35:23Z</time>
      </trkpt>
      <trkpt lat="44.95671" lon="6.10139">
        <ele>2106</ele>
        <time>2024-08-14T11:35:24Z</time>
      </trkpt>
      <trkpt lat="44.95669" lon="6.10142">
        <ele>2105.6</ele>
        <time>2024-08-14T11:35:25Z</time>
      </trkpt>
      <trkpt lat="44.95669" lon="6.10142">
        <ele>2105.6</ele>
        <time>2024-08-14T11:35:26Z</time>
      </trkpt>
      <trkpt lat="44.95668" lon="6.10144">
        <ele>2105.8</ele>
        <time>2024-08-14T11:35:27Z</time>
      </trkpt>
      <trkpt lat="44.95668" lon="6.10144">
        <ele>2105.8</ele>
        <time>2024-08-14T11:35:28Z</time>
      </trkpt>
      <trkpt lat="44.95666" lon="6.10146">
        <ele>2105.4</ele>
        <time>2024-08-14T11:35:29Z</time>
      </trkpt>
      <trkpt lat="44.95666" lon="6.10146">
        <ele>2105.4</ele>
        <time>2024-08-14T11:35:30Z</time>
      </trkpt>
      <trkpt lat="44.95664" lon="6.10148">
        <ele>2105.2</ele>
        <time>2024-08-14T11:35:31Z</time>
      </trkpt>
      <trkpt lat="44.95664" lon="6.10148">
        <ele>2105.2</ele>
        <time>2024-08-14T11:35:32Z</time>
      </trkpt>
      <trkpt lat="44.95663" lon="6.1015">
        <ele>2104.8</ele>
        <time>2024-08-14T11:35:33Z</time>
      </trkpt>
      <trkpt lat="44.95663" lon="6.1015">
        <ele>2104.8</ele>
        <time>2024-08-14T11:35:34Z</time>
      </trkpt>
      <trkpt lat="44.95661" lon="6.10152">
        <ele>2104.4</ele>
        <time>2024-08-14T11:35:35Z</time>
      </trkpt>
      <trkpt lat="44.95661" lon="6.10152">
        <ele>2104</ele>
        <time>2024-08-14T11:35:36Z</time>
      </trkpt>
      <trkpt lat="44.95659" lon="6.10153">
        <ele>2103.8</ele>
        <time>2024-08-14T11:35:37Z</time>
      </trkpt>
      <trkpt lat="44.95659" lon="6.10153">
        <ele>2103.6</ele>
        <time>2024-08-14T11:35:38Z</time>
      </trkpt>
      <trkpt lat="44.95657" lon="6.10154">
        <ele>2103.4</ele>
        <time>2024-08-14T11:35:39Z</time>
      </trkpt>
      <trkpt lat="44.95657" lon="6.10154">
        <ele>2103.2</ele>
        <time>2024-08-14T11:35:40Z</time>
      </trkpt>
      <trkpt lat="44.95655" lon="6.10155">
        <ele>2103.2</ele>
        <time>2024-08-14T11:35:41Z</time>
      </trkpt>
      <trkpt lat="44.95655" lon="6.10155">
        <ele>2102.8</ele>
        <time>2024-08-14T11:35:42Z</time>
      </trkpt>
      <trkpt lat="44.95654" lon="6.10158">
        <ele>2102.4</ele>
        <time>2024-08-14T11:35:43Z</time>
      </trkpt>
      <trkpt lat="44.95654" lon="6.10158">
        <ele>2102.2</ele>
        <time>2024-08-14T11:35:44Z</time>
      </trkpt>
      <trkpt lat="44.95654" lon="6.10158">
        <ele>2102</ele>
        <time>2024-08-14T11:35:45Z</time>
      </trkpt>
      <trkpt lat="44.95657" lon="6.10159">
        <ele>2101.8</ele>
        <time>2024-08-14T11:35:46Z</time>
      </trkpt>
      <trkpt lat="44.95657" lon="6.10159">
        <ele>2101.6</ele>
        <time>2024-08-14T11:35:47Z</time>
      </trkpt>
      <trkpt lat="44.95659" lon="6.1016">
        <ele>2101.6</ele>
        <time>2024-08-14T11:35:48Z</time>
      </trkpt>
      <trkpt lat="44.95659" lon="6.1016">
        <ele>2101.4</ele>
        <time>2024-08-14T11:35:49Z</time>
      </trkpt>
      <trkpt lat="44.95659" lon="6.10164">
        <ele>2100.8</ele>
        <time>2024-08-14T11:35:50Z</time>
      </trkpt>
      <trkpt lat="44.95659" lon="6.10164">
        <ele>2100.6</ele>
        <time>2024-08-14T11:35:51Z</time>
      </trkpt>
      <trkpt lat="44.95657" lon="6.10167">
        <ele>2100</ele>
        <time>2024-08-14T11:35:52Z</time>
      </trkpt>
      <trkpt lat="44.95657" lon="6.10167">
        <ele>2099.8</ele>
        <time>2024-08-14T11:35:53Z</time>
      </trkpt>
      <trkpt lat="44.95655" lon="6.10169">
        <ele>2099.6</ele>
        <time>2024-08-14T11:35:54Z</time>
      </trkpt>
      <trkpt lat="44.95655" lon="6.10169">
        <ele>2099.2</ele>
        <time>2024-08-14T11:35:55Z</time>
      </trkpt>
      <trkpt lat="44.95653" lon="6.10172">
        <ele>2099.2</ele>
        <time>2024-08-14T11:35:56Z</time>
      </trkpt>
      <trkpt lat="44.95653" lon="6.10172">
        <ele>2098.6</ele>
        <time>2024-08-14T11:35:57Z</time>
      </trkpt>
      <trkpt lat="44.95653" lon="6.10172">
        <ele>2098.6</ele>
        <time>2024-08-14T11:35:58Z</time>
      </trkpt>
      <trkpt lat="44.95656" lon="6.10174">
        <ele>2098.2</ele>
        <time>2024-08-14T11:35:59Z</time>
      </trkpt>
      <trkpt lat="44.95656" lon="6.10174">
        <ele>2098.2</ele>
        <time>2024-08-14T11:36:00Z</time>
      </trkpt>
      <trkpt lat="44.95656" lon="6.10174">
        <ele>2098.2</ele>
        <time>2024-08-14T11:36:01Z</time>
      </trkpt>
      <trkpt lat="44.95659" lon="6.10173">
        <ele>2097.8</ele>
        <time>2024-08-14T11:36:02Z</time>
      </trkpt>
      <trkpt lat="44.95659" lon="6.10173">
        <ele>2097.8</ele>
        <time>2024-08-14T11:36:03Z</time>
      </trkpt>
      <trkpt lat="44.95661" lon="6.10172">
        <ele>2097.4</ele>
        <time>2024-08-14T11:36:04Z</time>
      </trkpt>
      <trkpt lat="44.95661" lon="6.10172">
        <ele>2097</ele>
        <time>2024-08-14T11:36:05Z</time>
      </trkpt>
      <trkpt lat="44.95663" lon="6.1017">
        <ele>2096.8</ele>
        <time>2024-08-14T11:36:06Z</time>
      </trkpt>
      <trkpt lat="44.95663" lon="6.1017">
        <ele>2096.6</ele>
        <time>2024-08-14T11:36:07Z</time>
      </trkpt>
      <trkpt lat="44.95665" lon="6.10169">
        <ele>2096.4</ele>
        <time>2024-08-14T11:36:08Z</time>
      </trkpt>
      <trkpt lat="44.95665" lon="6.10169">
        <ele>2096.4</ele>
        <time>2024-08-14T11:36:09Z</time>
      </trkpt>
      <trkpt lat="44.95668" lon="6.10168">
        <ele>2096</ele>
        <time>2024-08-14T11:36:10Z</time>
      </trkpt>
      <trkpt lat="44.95668" lon="6.10168">
        <ele>2096</ele>
        <time>2024-08-14T11:36:11Z</time>
      </trkpt>
      <trkpt lat="44.95669" lon="6.1017">
        <ele>2096</ele>
        <time>2024-08-14T11:36:12Z</time>
      </trkpt>
      <trkpt lat="44.95669" lon="6.1017">
        <ele>2095.8</ele>
        <time>2024-08-14T11:36:13Z</time>
      </trkpt>
      <trkpt lat="44.9567" lon="6.10172">
        <ele>2095.4</ele>
        <time>2024-08-14T11:36:14Z</time>
      </trkpt>
      <trkpt lat="44.9567" lon="6.10172">
        <ele>2095.4</ele>
        <time>2024-08-14T11:36:15Z</time>
      </trkpt>
      <trkpt lat="44.95669" lon="6.10175">
        <ele>2095</ele>
        <time>2024-08-14T11:36:16Z</time>
      </trkpt>
      <trkpt lat="44.95669" lon="6.10175">
        <ele>2094.4</ele>
        <time>2024-08-14T11:36:17Z</time>
      </trkpt>
      <trkpt lat="44.95668" lon="6.10178">
        <ele>2094.2</ele>
        <time>2024-08-14T11:36:18Z</time>
      </trkpt>
      <trkpt lat="44.95668" lon="6.10178">
        <ele>2093.8</ele>
        <time>2024-08-14T11:36:19Z</time>
      </trkpt>
      <trkpt lat="44.95668" lon="6.10178">
        <ele>2093.2</ele>
        <time>2024-08-14T11:36:20Z</time>
      </trkpt>
      <trkpt lat="44.95667" lon="6.1018">
        <ele>2093</ele>
        <time>2024-08-14T11:36:21Z</time>
      </trkpt>
      <trkpt lat="44.95667" lon="6.1018">
        <ele>2093</ele>
        <time>2024-08-14T11:36:22Z</time>
      </trkpt>
      <trkpt lat="44.95667" lon="6.1018">
        <ele>2093</ele>
        <time>2024-08-14T11:36:23Z</time>
      </trkpt>
      <trkpt lat="44.95669" lon="6.1018">
        <ele>2092.2</ele>
        <time>2024-08-14T11:36:24Z</time>
      </trkpt>
      <trkpt lat="44.95669" lon="6.1018">
        <ele>2092</ele>
        <time>2024-08-14T11:36:25Z</time>
      </trkpt>
      <trkpt lat="44.95672" lon="6.1018">
        <ele>2092</ele>
        <time>2024-08-14T11:36:26Z</time>
      </trkpt>
      <trkpt lat="44.95672" lon="6.1018">
        <ele>2091.8</ele>
        <time>2024-08-14T11:36:27Z</time>
      </trkpt>
      <trkpt lat="44.95672" lon="6.1018">
        <ele>2091.2</ele>
        <time>2024-08-14T11:36:28Z</time>
      </trkpt>
      <trkpt lat="44.95675" lon="6.10181">
        <ele>2090.8</ele>
        <time>2024-08-14T11:36:29Z</time>
      </trkpt>
      <trkpt lat="44.95675" lon="6.10181">
        <ele>2090.8</ele>
        <time>2024-08-14T11:36:30Z</time>
      </trkpt>
      <trkpt lat="44.95677" lon="6.1018">
        <ele>2090.4</ele>
        <time>2024-08-14T11:36:31Z</time>
      </trkpt>
      <trkpt lat="44.95677" lon="6.1018">
        <ele>2090.2</ele>
        <time>2024-08-14T11:36:32Z</time>
      </trkpt>
      <trkpt lat="44.95679" lon="6.1018">
        <ele>2090.2</ele>
        <time>2024-08-14T11:36:33Z</time>
      </trkpt>
      <trkpt lat="44.95679" lon="6.1018">
        <ele>2089.4</ele>
        <time>2024-08-14T11:36:34Z</time>
      </trkpt>
      <trkpt lat="44.95681" lon="6.1018">
        <ele>2089</ele>
        <time>2024-08-14T11:36:35Z</time>
      </trkpt>
      <trkpt lat="44.95681" lon="6.1018">
        <ele>2088.8</ele>
        <time>2024-08-14T11:36:36Z</time>
      </trkpt>
      <trkpt lat="44.95683" lon="6.1018">
        <ele>2088.6</ele>
        <time>2024-08-14T11:36:37Z</time>
      </trkpt>
      <trkpt lat="44.95683" lon="6.1018">
        <ele>2088.2</ele>
        <time>2024-08-14T11:36:38Z</time>
      </trkpt>
      <trkpt lat="44.95685" lon="6.10179">
        <ele>2087.8</ele>
        <time>2024-08-14T11:36:39Z</time>
      </trkpt>
      <trkpt lat="44.95685" lon="6.10179">
        <ele>2087.6</ele>
        <time>2024-08-14T11:36:40Z</time>
      </trkpt>
      <trkpt lat="44.95687" lon="6.10178">
        <ele>2087.4</ele>
        <time>2024-08-14T11:36:41Z</time>
      </trkpt>
      <trkpt lat="44.95687" lon="6.10178">
        <ele>2087</ele>
        <time>2024-08-14T11:36:42Z</time>
      </trkpt>
      <trkpt lat="44.9569" lon="6.1018">
        <ele>2086.8</ele>
        <time>2024-08-14T11:36:43Z</time>
      </trkpt>
      <trkpt lat="44.9569" lon="6.1018">
        <ele>2086.4</ele>
        <time>2024-08-14T11:36:44Z</time>
      </trkpt>
      <trkpt lat="44.9569" lon="6.10183">
        <ele>2086.2</ele>
        <time>2024-08-14T11:36:45Z</time>
      </trkpt>
      <trkpt lat="44.9569" lon="6.10183">
        <ele>2086</ele>
        <time>2024-08-14T11:36:46Z</time>
      </trkpt>
      <trkpt lat="44.9569" lon="6.10186">
        <ele>2085.6</ele>
        <time>2024-08-14T11:36:47Z</time>
      </trkpt>
      <trkpt lat="44.9569" lon="6.10186">
        <ele>2085.6</ele>
        <time>2024-08-14T11:36:48Z</time>
      </trkpt>
      <trkpt lat="44.95688" lon="6.1019">
        <ele>2085.2</ele>
        <time>2024-08-14T11:36:49Z</time>
      </trkpt>
      <trkpt lat="44.95688" lon="6.1019">
        <ele>2085</ele>
        <time>2024-08-14T11:36:50Z</time>
      </trkpt>
      <trkpt lat="44.95686" lon="6.10192">
        <ele>2084.2</ele>
        <time>2024-08-14T11:36:51Z</time>
      </trkpt>
      <trkpt lat="44.95686" lon="6.10192">
        <ele>2084</ele>
        <time>2024-08-14T11:36:52Z</time>
      </trkpt>
      <trkpt lat="44.95685" lon="6.10193">
        <ele>2083.8</ele>
        <time>2024-08-14T11:36:53Z</time>
      </trkpt>
      <trkpt lat="44.95685" lon="6.10193">
        <ele>2083.8</ele>
        <time>2024-08-14T11:36:54Z</time>
      </trkpt>
      <trkpt lat="44.95685" lon="6.10193">
        <ele>2083.6</ele>
        <time>2024-08-14T11:36:55Z</time>
      </trkpt>
      <trkpt lat="44.95684" lon="6.10196">
        <ele>2083.4</ele>
        <time>2024-08-14T11:36:56Z</time>
      </trkpt>
      <trkpt lat="44.95684" lon="6.10196">
        <ele>2083</ele>
        <time>2024-08-14T11:36:57Z</time>
      </trkpt>
      <trkpt lat="44.95684" lon="6.10196">
        <ele>2082.8</ele>
        <time>2024-08-14T11:36:58Z</time>
      </trkpt>
      <trkpt lat="44.95685" lon="6.10198">
        <ele>2082.8</ele>
        <time>2024-08-14T11:36:59Z</time>
      </trkpt>
      <trkpt lat="44.95685" lon="6.10198">
        <ele>2082.4</ele>
        <time>2024-08-14T11:37:00Z</time>
      </trkpt>
      <trkpt lat="44.95687" lon="6.10198">
        <ele>2082.2</ele>
        <time>2024-08-14T11:37:01Z</time>
      </trkpt>
      <trkpt lat="44.95687" lon="6.10198">
        <ele>2081.4</ele>
        <time>2024-08-14T11:37:02Z</time>
      </trkpt>
      <trkpt lat="44.95689" lon="6.10199">
        <ele>2081.4</ele>
        <time>2024-08-14T11:37:03Z</time>
      </trkpt>
      <trkpt lat="44.95689" lon="6.10199">
        <ele>2081.2</ele>
        <time>2024-08-14T11:37:04Z</time>
      </trkpt>
      <trkpt lat="44.95689" lon="6.10199">
        <ele>2081</ele>
        <time>2024-08-14T11:37:05Z</time>
      </trkpt>
      <trkpt lat="44.95691" lon="6.10199">
        <ele>2080.8</ele>
        <time>2024-08-14T11:37:06Z</time>
      </trkpt>
      <trkpt lat="44.95691" lon="6.10199">
        <ele>2080.4</ele>
        <time>2024-08-14T11:37:07Z</time>
      </trkpt>
      <trkpt lat="44.95693" lon="6.10197">
        <ele>2080.2</ele>
        <time>2024-08-14T11:37:08Z</time>
      </trkpt>
      <trkpt lat="44.95693" lon="6.10197">
        <ele>2080.2</ele>
        <time>2024-08-14T11:37:09Z</time>
      </trkpt>
      <trkpt lat="44.95695" lon="6.10196">
        <ele>2079.6</ele>
        <time>2024-08-14T11:37:10Z</time>
      </trkpt>
      <trkpt lat="44.95695" lon="6.10196">
        <ele>2079.6</ele>
        <time>2024-08-14T11:37:11Z</time>
      </trkpt>
      <trkpt lat="44.95697" lon="6.10195">
        <ele>2079.2</ele>
        <time>2024-08-14T11:37:12Z</time>
      </trkpt>
      <trkpt lat="44.95697" lon="6.10195">
        <ele>2079.2</ele>
        <time>2024-08-14T11:37:13Z</time>
      </trkpt>
      <trkpt lat="44.95697" lon="6.10195">
        <ele>2078.2</ele>
        <time>2024-08-14T11:37:14Z</time>
      </trkpt>
      <trkpt lat="44.95699" lon="6.10194">
        <ele>2078.2</ele>
        <time>2024-08-14T11:37:15Z</time>
      </trkpt>
      <trkpt lat="44.95699" lon="6.10194">
        <ele>2078.2</ele>
        <time>2024-08-14T11:37:16Z</time>
      </trkpt>
      <trkpt lat="44.95701" lon="6.10194">
        <ele>2077.8</ele>
        <time>2024-08-14T11:37:17Z</time>
      </trkpt>
      <trkpt lat="44.95701" lon="6.10194">
        <ele>2077.4</ele>
        <time>2024-08-14T11:37:18Z</time>
      </trkpt>
      <trkpt lat="44.95703" lon="6.10192">
        <ele>2077.2</ele>
        <time>2024-08-14T11:37:19Z</time>
      </trkpt>
      <trkpt lat="44.95703" lon="6.10192">
        <ele>2076.8</ele>
        <time>2024-08-14T11:37:20Z</time>
      </trkpt>
      <trkpt lat="44.95705" lon="6.10192">
        <ele>2076.4</ele>
        <time>2024-08-14T11:37:21Z</time>
      </trkpt>
      <trkpt lat="44.95705" lon="6.10192">
        <ele>2076.4</ele>
        <time>2024-08-14T11:37:22Z</time>
      </trkpt>
      <trkpt lat="44.95707" lon="6.10191">
        <ele>2076.2</ele>
        <time>2024-08-14T11:37:23Z</time>
      </trkpt>
      <trkpt lat="44.95707" lon="6.10191">
        <ele>2075.6</ele>
        <time>2024-08-14T11:37:24Z</time>
      </trkpt>
      <trkpt lat="44.95709" lon="6.1019">
        <ele>2075.2</ele>
        <time>2024-08-14T11:37:25Z</time>
      </trkpt>
      <trkpt lat="44.95709" lon="6.1019">
        <ele>2075</ele>
        <time>2024-08-14T11:37:26Z</time>
      </trkpt>
      <trkpt lat="44.95711" lon="6.10188">
        <ele>2074.8</ele>
        <time>2024-08-14T11:37:27Z</time>
      </trkpt>
      <trkpt lat="44.95711" lon="6.10188">
        <ele>2074.4</ele>
        <time>2024-08-14T11:37:28Z</time>
      </trkpt>
      <trkpt lat="44.95712" lon="6.10185">
        <ele>2073.8</ele>
        <time>2024-08-14T11:37:29Z</time>
      </trkpt>
      <trkpt lat="44.95712" lon="6.10185">
        <ele>2073.4</ele>
        <time>2024-08-14T11:37:30Z</time>
      </trkpt>
      <trkpt lat="44.95714" lon="6.10182">
        <ele>2073.4</ele>
        <time>2024-08-14T11:37:31Z</time>
      </trkpt>
      <trkpt lat="44.95714" lon="6.10182">
        <ele>2073.4</ele>
        <time>2024-08-14T11:37:32Z</time>
      </trkpt>
      <trkpt lat="44.95716" lon="6.1018">
        <ele>2072.8</ele>
        <time>2024-08-14T11:37:33Z</time>
      </trkpt>
      <trkpt lat="44.95716" lon="6.1018">
        <ele>2072.6</ele>
        <time>2024-08-14T11:37:34Z</time>
      </trkpt>
      <trkpt lat="44.95718" lon="6.10178">
        <ele>2072.4</ele>
        <time>2024-08-14T11:37:35Z</time>
      </trkpt>
      <trkpt lat="44.95718" lon="6.10178">
        <ele>2072</ele>
        <time>2024-08-14T11:37:36Z</time>
      </trkpt>
      <trkpt lat="44.95718" lon="6.10178">
        <ele>2071.8</ele>
        <time>2024-08-14T11:37:37Z</time>
      </trkpt>
      <trkpt lat="44.9572" lon="6.10175">
        <ele>2071.6</ele>
        <time>2024-08-14T11:37:38Z</time>
      </trkpt>
      <trkpt lat="44.9572" lon="6.10175">
        <ele>2071.2</ele>
        <time>2024-08-14T11:37:39Z</time>
      </trkpt>
      <trkpt lat="44.95721" lon="6.10173">
        <ele>2070.8</ele>
        <time>2024-08-14T11:37:40Z</time>
      </trkpt>
      <trkpt lat="44.95721" lon="6.10173">
        <ele>2070.6</ele>
        <time>2024-08-14T11:37:41Z</time>
      </trkpt>
      <trkpt lat="44.95722" lon="6.1017">
        <ele>2070.6</ele>
        <time>2024-08-14T11:37:42Z</time>
      </trkpt>
      <trkpt lat="44.95722" lon="6.1017">
        <ele>2070.2</ele>
        <time>2024-08-14T11:37:43Z</time>
      </trkpt>
      <trkpt lat="44.95724" lon="6.10168">
        <ele>2070</ele>
        <time>2024-08-14T11:37:44Z</time>
      </trkpt>
      <trkpt lat="44.95724" lon="6.10168">
        <ele>2069.8</ele>
        <time>2024-08-14T11:37:45Z</time>
      </trkpt>
      <trkpt lat="44.95724" lon="6.10168">
        <ele>2069.4</ele>
        <time>2024-08-14T11:37:46Z</time>
      </trkpt>
      <trkpt lat="44.95726" lon="6.10165">
        <ele>2068.8</ele>
        <time>2024-08-14T11:37:47Z</time>
      </trkpt>
      <trkpt lat="44.95726" lon="6.10165">
        <ele>2068.4</ele>
        <time>2024-08-14T11:37:48Z</time>
      </trkpt>
      <trkpt lat="44.95726" lon="6.10165">
        <ele>2068.4</ele>
        <time>2024-08-14T11:37:49Z</time>
      </trkpt>
      <trkpt lat="44.95729" lon="6.10165">
        <ele>2068</ele>
        <time>2024-08-14T11:37:50Z</time>
      </trkpt>
      <trkpt lat="44.9573" lon="6.10166">
        <ele>2067.4</ele>
        <time>2024-08-14T11:37:51Z</time>
      </trkpt>
      <trkpt lat="44.9573" lon="6.10166">
        <ele>2066.8</ele>
        <time>2024-08-14T11:37:52Z</time>
      </trkpt>
      <trkpt lat="44.95731" lon="6.10171">
        <ele>2066.8</ele>
        <time>2024-08-14T11:37:53Z</time>
      </trkpt>
      <trkpt lat="44.95731" lon="6.10171">
        <ele>2066.4</ele>
        <time>2024-08-14T11:37:54Z</time>
      </trkpt>
      <trkpt lat="44.95731" lon="6.10174">
        <ele>2066</ele>
        <time>2024-08-14T11:37:55Z</time>
      </trkpt>
      <trkpt lat="44.95731" lon="6.10174">
        <ele>2065.8</ele>
        <time>2024-08-14T11:37:56Z</time>
      </trkpt>
      <trkpt lat="44.95731" lon="6.10174">
        <ele>2065.4</ele>
        <time>2024-08-14T11:37:57Z</time>
      </trkpt>
      <trkpt lat="44.95731" lon="6.10174">
        <ele>2065</ele>
        <time>2024-08-14T11:37:58Z</time>
      </trkpt>
      <trkpt lat="44.95731" lon="6.10174">
        <ele>2065</ele>
        <time>2024-08-14T11:37:59Z</time>
      </trkpt>
      <trkpt lat="44.95734" lon="6.10175">
        <ele>2065</ele>
        <time>2024-08-14T11:38:00Z</time>
      </trkpt>
      <trkpt lat="44.95734" lon="6.10175">
        <ele>2065</ele>
        <time>2024-08-14T11:38:01Z</time>
      </trkpt>
      <trkpt lat="44.95736" lon="6.10174">
        <ele>2064</ele>
        <time>2024-08-14T11:38:02Z</time>
      </trkpt>
      <trkpt lat="44.95736" lon="6.10174">
        <ele>2064</ele>
        <time>2024-08-14T11:38:03Z</time>
      </trkpt>
      <trkpt lat="44.95736" lon="6.10174">
        <ele>2063.6</ele>
        <time>2024-08-14T11:38:04Z</time>
      </trkpt>
      <trkpt lat="44.95738" lon="6.10171">
        <ele>2063.6</ele>
        <time>2024-08-14T11:38:05Z</time>
      </trkpt>
      <trkpt lat="44.95738" lon="6.10171">
        <ele>2063.4</ele>
        <time>2024-08-14T11:38:06Z</time>
      </trkpt>
      <trkpt lat="44.95739" lon="6.10168">
        <ele>2063.2</ele>
        <time>2024-08-14T11:38:07Z</time>
      </trkpt>
      <trkpt lat="44.95739" lon="6.10168">
        <ele>2062.8</ele>
        <time>2024-08-14T11:38:08Z</time>
      </trkpt>
      <trkpt lat="44.95739" lon="6.10168">
        <ele>2062.4</ele>
        <time>2024-08-14T11:38:09Z</time>
      </trkpt>
      <trkpt lat="44.95739" lon="6.10168">
        <ele>2062.2</ele>
        <time>2024-08-14T11:38:10Z</time>
      </trkpt>
      <trkpt lat="44.95739" lon="6.10168">
        <ele>2062.2</ele>
        <time>2024-08-14T11:38:11Z</time>
      </trkpt>
      <trkpt lat="44.95739" lon="6.10168">
        <ele>2061.8</ele>
        <time>2024-08-14T11:38:12Z</time>
      </trkpt>
      <trkpt lat="44.95739" lon="6.10168">
        <ele>2061.8</ele>
        <time>2024-08-14T11:38:13Z</time>
      </trkpt>
      <trkpt lat="44.95739" lon="6.10168">
        <ele>2061.6</ele>
        <time>2024-08-14T11:38:14Z</time>
      </trkpt>
      <trkpt lat="44.95739" lon="6.10168">
        <ele>2061.6</ele>
        <time>2024-08-14T11:38:15Z</time>
      </trkpt>
      <trkpt lat="44.95739" lon="6.10168">
        <ele>2061.6</ele>
        <time>2024-08-14T11:38:16Z</time>
      </trkpt>
      <trkpt lat="44.95739" lon="6.10166">
        <ele>2061.8</ele>
        <time>2024-08-14T11:38:17Z</time>
      </trkpt>
      <trkpt lat="44.95739" lon="6.10166">
        <ele>2061.8</ele>
        <time>2024-08-14T11:38:18Z</time>
      </trkpt>
      <trkpt lat="44.95739" lon="6.10166">
        <ele>2061.6</ele>
        <time>2024-08-14T11:38:19Z</time>
      </trkpt>
      <trkpt lat="44.95741" lon="6.10162">
        <ele>2061.2</ele>
        <time>2024-08-14T11:38:20Z</time>
      </trkpt>
      <trkpt lat="44.95741" lon="6.10162">
        <ele>2061</ele>
        <time>2024-08-14T11:38:21Z</time>
      </trkpt>
      <trkpt lat="44.95743" lon="6.10163">
        <ele>2060.8</ele>
        <time>2024-08-14T11:38:22Z</time>
      </trkpt>
      <trkpt lat="44.95745" lon="6.10164">
        <ele>2060.2</ele>
        <time>2024-08-14T11:38:23Z</time>
      </trkpt>
      <trkpt lat="44.95745" lon="6.10164">
        <ele>2059.8</ele>
        <time>2024-08-14T11:38:24Z</time>
      </trkpt>
      <trkpt lat="44.95746" lon="6.10168">
        <ele>2059.6</ele>
        <time>2024-08-14T11:38:25Z</time>
      </trkpt>
      <trkpt lat="44.95746" lon="6.10168">
        <ele>2059.2</ele>
        <time>2024-08-14T11:38:26Z</time>
      </trkpt>
      <trkpt lat="44.95746" lon="6.10171">
        <ele>2058.8</ele>
        <time>2024-08-14T11:38:27Z</time>
      </trkpt>
      <trkpt lat="44.95746" lon="6.10171">
        <ele>2058.8</ele>
        <time>2024-08-14T11:38:28Z</time>
      </trkpt>
      <trkpt lat="44.95746" lon="6.10175">
        <ele>2058.4</ele>
        <time>2024-08-14T11:38:29Z</time>
      </trkpt>
      <trkpt lat="44.95746" lon="6.10175">
        <ele>2058</ele>
        <time>2024-08-14T11:38:30Z</time>
      </trkpt>
      <trkpt lat="44.95746" lon="6.10178">
        <ele>2057.6</ele>
        <time>2024-08-14T11:38:31Z</time>
      </trkpt>
      <trkpt lat="44.95746" lon="6.10178">
        <ele>2057.2</ele>
        <time>2024-08-14T11:38:32Z</time>
      </trkpt>
      <trkpt lat="44.95746" lon="6.10181">
        <ele>2057</ele>
        <time>2024-08-14T11:38:33Z</time>
      </trkpt>
      <trkpt lat="44.95746" lon="6.10181">
        <ele>2056.8</ele>
        <time>2024-08-14T11:38:34Z</time>
      </trkpt>
      <trkpt lat="44.95746" lon="6.10181">
        <ele>2056.4</ele>
        <time>2024-08-14T11:38:35Z</time>
      </trkpt>
      <trkpt lat="44.95747" lon="6.10184">
        <ele>2056.2</ele>
        <time>2024-08-14T11:38:36Z</time>
      </trkpt>
      <trkpt lat="44.95747" lon="6.10184">
        <ele>2055.8</ele>
        <time>2024-08-14T11:38:37Z</time>
      </trkpt>
      <trkpt lat="44.95747" lon="6.10184">
        <ele>2055.6</ele>
        <time>2024-08-14T11:38:38Z</time>
      </trkpt>
      <trkpt lat="44.95749" lon="6.10187">
        <ele>2055</ele>
        <time>2024-08-14T11:38:39Z</time>
      </trkpt>
      <trkpt lat="44.95749" lon="6.10187">
        <ele>2054.8</ele>
        <time>2024-08-14T11:38:40Z</time>
      </trkpt>
      <trkpt lat="44.95749" lon="6.10187">
        <ele>2054.6</ele>
        <time>2024-08-14T11:38:41Z</time>
      </trkpt>
      <trkpt lat="44.95749" lon="6.10187">
        <ele>2054.2</ele>
        <time>2024-08-14T11:38:42Z</time>
      </trkpt>
      <trkpt lat="44.95749" lon="6.10187">
        <ele>2054</ele>
        <time>2024-08-14T11:38:43Z</time>
      </trkpt>
      <trkpt lat="44.95751" lon="6.10187">
        <ele>2053.8</ele>
        <time>2024-08-14T11:38:44Z</time>
      </trkpt>
      <trkpt lat="44.95751" lon="6.10187">
        <ele>2053.2</ele>
        <time>2024-08-14T11:38:45Z</time>
      </trkpt>
      <trkpt lat="44.95751" lon="6.10187">
        <ele>2053</ele>
        <time>2024-08-14T11:38:46Z</time>
      </trkpt>
      <trkpt lat="44.95754" lon="6.10186">
        <ele>2053</ele>
        <time>2024-08-14T11:38:47Z</time>
      </trkpt>
      <trkpt lat="44.95754" lon="6.10186">
        <ele>2052.6</ele>
        <time>2024-08-14T11:38:48Z</time>
      </trkpt>
      <trkpt lat="44.95755" lon="6.10183">
        <ele>2052.2</ele>
        <time>2024-08-14T11:38:49Z</time>
      </trkpt>
      <trkpt lat="44.95755" lon="6.10183">
        <ele>2051.8</ele>
        <time>2024-08-14T11:38:50Z</time>
      </trkpt>
      <trkpt lat="44.95755" lon="6.10183">
        <ele>2051.6</ele>
        <time>2024-08-14T11:38:51Z</time>
      </trkpt>
      <trkpt lat="44.95757" lon="6.10181">
        <ele>2051.2</ele>
        <time>2024-08-14T11:38:52Z</time>
      </trkpt>
      <trkpt lat="44.95757" lon="6.10181">
        <ele>2050.8</ele>
        <time>2024-08-14T11:38:53Z</time>
      </trkpt>
      <trkpt lat="44.95758" lon="6.10179">
        <ele>2050.4</ele>
        <time>2024-08-14T11:38:54Z</time>
      </trkpt>
      <trkpt lat="44.95758" lon="6.10179">
        <ele>2050.4</ele>
        <time>2024-08-14T11:38:55Z</time>
      </trkpt>
      <trkpt lat="44.9576" lon="6.10176">
        <ele>2050.2</ele>
        <time>2024-08-14T11:38:56Z</time>
      </trkpt>
      <trkpt lat="44.9576" lon="6.10176">
        <ele>2049.8</ele>
        <time>2024-08-14T11:38:57Z</time>
      </trkpt>
      <trkpt lat="44.95761" lon="6.10174">
        <ele>2049.8</ele>
        <time>2024-08-14T11:38:58Z</time>
      </trkpt>
      <trkpt lat="44.95761" lon="6.10174">
        <ele>2049.6</ele>
        <time>2024-08-14T11:38:59Z</time>
      </trkpt>
      <trkpt lat="44.95761" lon="6.10174">
        <ele>2049.4</ele>
        <time>2024-08-14T11:39:00Z</time>
      </trkpt>
      <trkpt lat="44.95762" lon="6.10171">
        <ele>2049.2</ele>
        <time>2024-08-14T11:39:01Z</time>
      </trkpt>
      <trkpt lat="44.95762" lon="6.10171">
        <ele>2049</ele>
        <time>2024-08-14T11:39:02Z</time>
      </trkpt>
      <trkpt lat="44.95765" lon="6.1017">
        <ele>2049</ele>
        <time>2024-08-14T11:39:03Z</time>
      </trkpt>
      <trkpt lat="44.95765" lon="6.1017">
        <ele>2048.4</ele>
        <time>2024-08-14T11:39:04Z</time>
      </trkpt>
      <trkpt lat="44.95766" lon="6.10172">
        <ele>2048.2</ele>
        <time>2024-08-14T11:39:05Z</time>
      </trkpt>
      <trkpt lat="44.95766" lon="6.10172">
        <ele>2047.6</ele>
        <time>2024-08-14T11:39:06Z</time>
      </trkpt>
      <trkpt lat="44.95766" lon="6.10176">
        <ele>2047.4</ele>
        <time>2024-08-14T11:39:07Z</time>
      </trkpt>
      <trkpt lat="44.95766" lon="6.10176">
        <ele>2047</ele>
        <time>2024-08-14T11:39:08Z</time>
      </trkpt>
      <trkpt lat="44.95766" lon="6.10176">
        <ele>2046.8</ele>
        <time>2024-08-14T11:39:09Z</time>
      </trkpt>
      <trkpt lat="44.95765" lon="6.10179">
        <ele>2046.6</ele>
        <time>2024-08-14T11:39:10Z</time>
      </trkpt>
      <trkpt lat="44.95765" lon="6.10179">
        <ele>2046.4</ele>
        <time>2024-08-14T11:39:11Z</time>
      </trkpt>
      <trkpt lat="44.95765" lon="6.10179">
        <ele>2046.4</ele>
        <time>2024-08-14T11:39:12Z</time>
      </trkpt>
      <trkpt lat="44.95766" lon="6.10181">
        <ele>2046.2</ele>
        <time>2024-08-14T11:39:13Z</time>
      </trkpt>
      <trkpt lat="44.95766" lon="6.10181">
        <ele>2046</ele>
        <time>2024-08-14T11:39:14Z</time>
      </trkpt>
      <trkpt lat="44.95766" lon="6.10181">
        <ele>2045.6</ele>
        <time>2024-08-14T11:39:15Z</time>
      </trkpt>
      <trkpt lat="44.95766" lon="6.10185">
        <ele>2045</ele>
        <time>2024-08-14T11:39:16Z</time>
      </trkpt>
      <trkpt lat="44.95766" lon="6.10185">
        <ele>2044.8</ele>
        <time>2024-08-14T11:39:17Z</time>
      </trkpt>
      <trkpt lat="44.95766" lon="6.10185">
        <ele>2044.8</ele>
        <time>2024-08-14T11:39:18Z</time>
      </trkpt>
      <trkpt lat="44.95765" lon="6.10188">
        <ele>2044.4</ele>
        <time>2024-08-14T11:39:19Z</time>
      </trkpt>
      <trkpt lat="44.95765" lon="6.10188">
        <ele>2044.4</ele>
        <time>2024-08-14T11:39:20Z</time>
      </trkpt>
      <trkpt lat="44.95765" lon="6.10188">
        <ele>2044.2</ele>
        <time>2024-08-14T11:39:21Z</time>
      </trkpt>
      <trkpt lat="44.95765" lon="6.10188">
        <ele>2044.2</ele>
        <time>2024-08-14T11:39:22Z</time>
      </trkpt>
      <trkpt lat="44.95765" lon="6.10188">
        <ele>2043.8</ele>
        <time>2024-08-14T11:39:23Z</time>
      </trkpt>
      <trkpt lat="44.95767" lon="6.10188">
        <ele>2043.6</ele>
        <time>2024-08-14T11:39:24Z</time>
      </trkpt>
      <trkpt lat="44.95767" lon="6.10188">
        <ele>2043.4</ele>
        <time>2024-08-14T11:39:25Z</time>
      </trkpt>
      <trkpt lat="44.95768" lon="6.10186">
        <ele>2043</ele>
        <time>2024-08-14T11:39:26Z</time>
      </trkpt>
      <trkpt lat="44.95768" lon="6.10186">
        <ele>2042.8</ele>
        <time>2024-08-14T11:39:27Z</time>
      </trkpt>
      <trkpt lat="44.9577" lon="6.10184">
        <ele>2042.4</ele>
        <time>2024-08-14T11:39:28Z</time>
      </trkpt>
      <trkpt lat="44.9577" lon="6.10184">
        <ele>2042</ele>
        <time>2024-08-14T11:39:29Z</time>
      </trkpt>
      <trkpt lat="44.95772" lon="6.10184">
        <ele>2041.6</ele>
        <time>2024-08-14T11:39:30Z</time>
      </trkpt>
      <trkpt lat="44.95772" lon="6.10184">
        <ele>2041.4</ele>
        <time>2024-08-14T11:39:31Z</time>
      </trkpt>
      <trkpt lat="44.95772" lon="6.10184">
        <ele>2041</ele>
        <time>2024-08-14T11:39:32Z</time>
      </trkpt>
      <trkpt lat="44.95772" lon="6.10188">
        <ele>2040.6</ele>
        <time>2024-08-14T11:39:33Z</time>
      </trkpt>
      <trkpt lat="44.95772" lon="6.10188">
        <ele>2039.8</ele>
        <time>2024-08-14T11:39:34Z</time>
      </trkpt>
      <trkpt lat="44.95772" lon="6.10188">
        <ele>2039.6</ele>
        <time>2024-08-14T11:39:35Z</time>
      </trkpt>
      <trkpt lat="44.95772" lon="6.10192">
        <ele>2039.6</ele>
        <time>2024-08-14T11:39:36Z</time>
      </trkpt>
      <trkpt lat="44.95772" lon="6.10192">
        <ele>2039</ele>
        <time>2024-08-14T11:39:37Z</time>
      </trkpt>
      <trkpt lat="44.95772" lon="6.10192">
        <ele>2038.6</ele>
        <time>2024-08-14T11:39:38Z</time>
      </trkpt>
      <trkpt lat="44.95772" lon="6.10195">
        <ele>2038.6</ele>
        <time>2024-08-14T11:39:39Z</time>
      </trkpt>
      <trkpt lat="44.95772" lon="6.10195">
        <ele>2038.2</ele>
        <time>2024-08-14T11:39:40Z</time>
      </trkpt>
      <trkpt lat="44.95772" lon="6.10195">
        <ele>2038</ele>
        <time>2024-08-14T11:39:41Z</time>
      </trkpt>
      <trkpt lat="44.95772" lon="6.10198">
        <ele>2038</ele>
        <time>2024-08-14T11:39:42Z</time>
      </trkpt>
      <trkpt lat="44.95772" lon="6.10198">
        <ele>2037.4</ele>
        <time>2024-08-14T11:39:43Z</time>
      </trkpt>
      <trkpt lat="44.95772" lon="6.10198">
        <ele>2037</ele>
        <time>2024-08-14T11:39:44Z</time>
      </trkpt>
      <trkpt lat="44.95772" lon="6.10202">
        <ele>2036.6</ele>
        <time>2024-08-14T11:39:45Z</time>
      </trkpt>
      <trkpt lat="44.95772" lon="6.10202">
        <ele>2036</ele>
        <time>2024-08-14T11:39:46Z</time>
      </trkpt>
      <trkpt lat="44.95772" lon="6.10202">
        <ele>2035.8</ele>
        <time>2024-08-14T11:39:47Z</time>
      </trkpt>
      <trkpt lat="44.95771" lon="6.10205">
        <ele>2035.6</ele>
        <time>2024-08-14T11:39:48Z</time>
      </trkpt>
      <trkpt lat="44.95771" lon="6.10205">
        <ele>2035.2</ele>
        <time>2024-08-14T11:39:49Z</time>
      </trkpt>
      <trkpt lat="44.95771" lon="6.10205">
        <ele>2034.8</ele>
        <time>2024-08-14T11:39:50Z</time>
      </trkpt>
      <trkpt lat="44.95771" lon="6.10207">
        <ele>2034.8</ele>
        <time>2024-08-14T11:39:51Z</time>
      </trkpt>
      <trkpt lat="44.95771" lon="6.10207">
        <ele>2034.4</ele>
        <time>2024-08-14T11:39:52Z</time>
      </trkpt>
      <trkpt lat="44.95771" lon="6.10207">
        <ele>2033.8</ele>
        <time>2024-08-14T11:39:53Z</time>
      </trkpt>
      <trkpt lat="44.95771" lon="6.1021">
        <ele>2033.2</ele>
        <time>2024-08-14T11:39:54Z</time>
      </trkpt>
      <trkpt lat="44.95771" lon="6.1021">
        <ele>2033</ele>
        <time>2024-08-14T11:39:55Z</time>
      </trkpt>
      <trkpt lat="44.95771" lon="6.1021">
        <ele>2032.6</ele>
        <time>2024-08-14T11:39:56Z</time>
      </trkpt>
      <trkpt lat="44.95771" lon="6.1021">
        <ele>2032.4</ele>
        <time>2024-08-14T11:39:57Z</time>
      </trkpt>
      <trkpt lat="44.95773" lon="6.1021">
        <ele>2032</ele>
        <time>2024-08-14T11:39:58Z</time>
      </trkpt>
      <trkpt lat="44.95773" lon="6.1021">
        <ele>2031.8</ele>
        <time>2024-08-14T11:39:59Z</time>
      </trkpt>
      <trkpt lat="44.95775" lon="6.10208">
        <ele>2031.4</ele>
        <time>2024-08-14T11:40:00Z</time>
      </trkpt>
      <trkpt lat="44.95775" lon="6.10208">
        <ele>2031</ele>
        <time>2024-08-14T11:40:01Z</time>
      </trkpt>
      <trkpt lat="44.95777" lon="6.10207">
        <ele>2030.6</ele>
        <time>2024-08-14T11:40:02Z</time>
      </trkpt>
      <trkpt lat="44.95777" lon="6.10207">
        <ele>2030.4</ele>
        <time>2024-08-14T11:40:03Z</time>
      </trkpt>
      <trkpt lat="44.95779" lon="6.10204">
        <ele>2030.4</ele>
        <time>2024-08-14T11:40:04Z</time>
      </trkpt>
      <trkpt lat="44.95779" lon="6.10204">
        <ele>2030</ele>
        <time>2024-08-14T11:40:05Z</time>
      </trkpt>
      <trkpt lat="44.95781" lon="6.10202">
        <ele>2029.8</ele>
        <time>2024-08-14T11:40:06Z</time>
      </trkpt>
      <trkpt lat="44.95781" lon="6.10202">
        <ele>2029.8</ele>
        <time>2024-08-14T11:40:07Z</time>
      </trkpt>
      <trkpt lat="44.95782" lon="6.10199">
        <ele>2029.4</ele>
        <time>2024-08-14T11:40:08Z</time>
      </trkpt>
      <trkpt lat="44.95782" lon="6.10199">
        <ele>2029.2</ele>
        <time>2024-08-14T11:40:09Z</time>
      </trkpt>
      <trkpt lat="44.95783" lon="6.10197">
        <ele>2028.8</ele>
        <time>2024-08-14T11:40:10Z</time>
      </trkpt>
      <trkpt lat="44.95783" lon="6.10197">
        <ele>2028.4</ele>
        <time>2024-08-14T11:40:11Z</time>
      </trkpt>
      <trkpt lat="44.95785" lon="6.10195">
        <ele>2028.2</ele>
        <time>2024-08-14T11:40:12Z</time>
      </trkpt>
      <trkpt lat="44.95785" lon="6.10195">
        <ele>2027.8</ele>
        <time>2024-08-14T11:40:13Z</time>
      </trkpt>
      <trkpt lat="44.95785" lon="6.10195">
        <ele>2027.6</ele>
        <time>2024-08-14T11:40:14Z</time>
      </trkpt>
      <trkpt lat="44.95788" lon="6.10196">
        <ele>2027.6</ele>
        <time>2024-08-14T11:40:15Z</time>
      </trkpt>
      <trkpt lat="44.95788" lon="6.10196">
        <ele>2027.2</ele>
        <time>2024-08-14T11:40:16Z</time>
      </trkpt>
      <trkpt lat="44.95788" lon="6.10196">
        <ele>2026.8</ele>
        <time>2024-08-14T11:40:17Z</time>
      </trkpt>
      <trkpt lat="44.95789" lon="6.10199">
        <ele>2026.4</ele>
        <time>2024-08-14T11:40:18Z</time>
      </trkpt>
      <trkpt lat="44.95789" lon="6.10199">
        <ele>2026.2</ele>
        <time>2024-08-14T11:40:19Z</time>
      </trkpt>
      <trkpt lat="44.95789" lon="6.10199">
        <ele>2025.8</ele>
        <time>2024-08-14T11:40:20Z</time>
      </trkpt>
      <trkpt lat="44.95789" lon="6.10199">
        <ele>2025.6</ele>
        <time>2024-08-14T11:40:21Z</time>
      </trkpt>
      <trkpt lat="44.95789" lon="6.10199">
        <ele>2025.4</ele>
        <time>2024-08-14T11:40:22Z</time>
      </trkpt>
      <trkpt lat="44.95789" lon="6.10199">
        <ele>2025.2</ele>
        <time>2024-08-14T11:40:23Z</time>
      </trkpt>
      <trkpt lat="44.9579" lon="6.10201">
        <ele>2025</ele>
        <time>2024-08-14T11:40:24Z</time>
      </trkpt>
      <trkpt lat="44.9579" lon="6.10201">
        <ele>2024.6</ele>
        <time>2024-08-14T11:40:25Z</time>
      </trkpt>
      <trkpt lat="44.95792" lon="6.10203">
        <ele>2024.4</ele>
        <time>2024-08-14T11:40:26Z</time>
      </trkpt>
      <trkpt lat="44.95792" lon="6.10203">
        <ele>2024</ele>
        <time>2024-08-14T11:40:27Z</time>
      </trkpt>
      <trkpt lat="44.95792" lon="6.10206">
        <ele>2023.8</ele>
        <time>2024-08-14T11:40:28Z</time>
      </trkpt>
      <trkpt lat="44.95792" lon="6.10206">
        <ele>2023.2</ele>
        <time>2024-08-14T11:40:29Z</time>
      </trkpt>
      <trkpt lat="44.95791" lon="6.1021">
        <ele>2023</ele>
        <time>2024-08-14T11:40:30Z</time>
      </trkpt>
      <trkpt lat="44.95791" lon="6.1021">
        <ele>2022.4</ele>
        <time>2024-08-14T11:40:31Z</time>
      </trkpt>
      <trkpt lat="44.9579" lon="6.10212">
        <ele>2022</ele>
        <time>2024-08-14T11:40:32Z</time>
      </trkpt>
      <trkpt lat="44.9579" lon="6.10212">
        <ele>2021.8</ele>
        <time>2024-08-14T11:40:33Z</time>
      </trkpt>
      <trkpt lat="44.9579" lon="6.10212">
        <ele>2021.4</ele>
        <time>2024-08-14T11:40:34Z</time>
      </trkpt>
      <trkpt lat="44.9579" lon="6.10215">
        <ele>2021</ele>
        <time>2024-08-14T11:40:35Z</time>
      </trkpt>
      <trkpt lat="44.9579" lon="6.10215">
        <ele>2020.6</ele>
        <time>2024-08-14T11:40:36Z</time>
      </trkpt>
      <trkpt lat="44.95789" lon="6.10218">
        <ele>2020.2</ele>
        <time>2024-08-14T11:40:37Z</time>
      </trkpt>
      <trkpt lat="44.95789" lon="6.10218">
        <ele>2020.2</ele>
        <time>2024-08-14T11:40:38Z</time>
      </trkpt>
      <trkpt lat="44.95789" lon="6.10218">
        <ele>2020</ele>
        <time>2024-08-14T11:40:39Z</time>
      </trkpt>
      <trkpt lat="44.95787" lon="6.10221">
        <ele>2019.8</ele>
        <time>2024-08-14T11:40:40Z</time>
      </trkpt>
      <trkpt lat="44.95787" lon="6.10221">
        <ele>2019.4</ele>
        <time>2024-08-14T11:40:41Z</time>
      </trkpt>
      <trkpt lat="44.95787" lon="6.10221">
        <ele>2019.2</ele>
        <time>2024-08-14T11:40:42Z</time>
      </trkpt>
      <trkpt lat="44.95787" lon="6.10221">
        <ele>2019</ele>
        <time>2024-08-14T11:40:43Z</time>
      </trkpt>
      <trkpt lat="44.95787" lon="6.10221">
        <ele>2018.6</ele>
        <time>2024-08-14T11:40:44Z</time>
      </trkpt>
      <trkpt lat="44.95787" lon="6.10221">
        <ele>2018.4</ele>
        <time>2024-08-14T11:40:45Z</time>
      </trkpt>
      <trkpt lat="44.95787" lon="6.10221">
        <ele>2018.4</ele>
        <time>2024-08-14T11:40:46Z</time>
      </trkpt>
      <trkpt lat="44.95787" lon="6.10221">
        <ele>2018.6</ele>
        <time>2024-08-14T11:40:47Z</time>
      </trkpt>
      <trkpt lat="44.95785" lon="6.10221">
        <ele>2018.6</ele>
        <time>2024-08-14T11:40:48Z</time>
      </trkpt>
      <trkpt lat="44.95785" lon="6.10221">
        <ele>2018.6</ele>
        <time>2024-08-14T11:40:49Z</time>
      </trkpt>
      <trkpt lat="44.95785" lon="6.10221">
        <ele>2018.6</ele>
        <time>2024-08-14T11:40:50Z</time>
      </trkpt>
      <trkpt lat="44.95785" lon="6.10221">
        <ele>2018.6</ele>
        <time>2024-08-14T11:40:51Z</time>
      </trkpt>
      <trkpt lat="44.95785" lon="6.10221">
        <ele>2018.6</ele>
        <time>2024-08-14T11:40:52Z</time>
      </trkpt>
      <trkpt lat="44.95785" lon="6.10221">
        <ele>2018.6</ele>
        <time>2024-08-14T11:40:53Z</time>
      </trkpt>
      <trkpt lat="44.95785" lon="6.10221">
        <ele>2018.6</ele>
        <time>2024-08-14T11:40:54Z</time>
      </trkpt>
      <trkpt lat="44.95785" lon="6.10221">
        <ele>2018.6</ele>
        <time>2024-08-14T11:40:55Z</time>
      </trkpt>
      <trkpt lat="44.95785" lon="6.10221">
        <ele>2018.8</ele>
        <time>2024-08-14T11:40:56Z</time>
      </trkpt>
      <trkpt lat="44.95785" lon="6.10221">
        <ele>2018.8</ele>
        <time>2024-08-14T11:40:57Z</time>
      </trkpt>
      <trkpt lat="44.95785" lon="6.10221">
        <ele>2018.8</ele>
        <time>2024-08-14T11:40:58Z</time>
      </trkpt>
      <trkpt lat="44.95785" lon="6.10221">
        <ele>2018.8</ele>
        <time>2024-08-14T11:40:59Z</time>
      </trkpt>
      <trkpt lat="44.95785" lon="6.10221">
        <ele>2018.6</ele>
        <time>2024-08-14T11:41:00Z</time>
      </trkpt>
      <trkpt lat="44.95785" lon="6.10221">
        <ele>2018.6</ele>
        <time>2024-08-14T11:41:01Z</time>
      </trkpt>
      <trkpt lat="44.95785" lon="6.10221">
        <ele>2018.6</ele>
        <time>2024-08-14T11:41:02Z</time>
      </trkpt>
      <trkpt lat="44.95785" lon="6.10221">
        <ele>2018.8</ele>
        <time>2024-08-14T11:41:03Z</time>
      </trkpt>
      <trkpt lat="44.95785" lon="6.10221">
        <ele>2018.8</ele>
        <time>2024-08-14T11:41:04Z</time>
      </trkpt>
      <trkpt lat="44.95785" lon="6.10221">
        <ele>2018.6</ele>
        <time>2024-08-14T11:41:05Z</time>
      </trkpt>
      <trkpt lat="44.95785" lon="6.10221">
        <ele>2018.6</ele>
        <time>2024-08-14T11:41:06Z</time>
      </trkpt>
      <trkpt lat="44.95785" lon="6.10221">
        <ele>2018.6</ele>
        <time>2024-08-14T11:41:07Z</time>
      </trkpt>
      <trkpt lat="44.95785" lon="6.10221">
        <ele>2018.8</ele>
        <time>2024-08-14T11:41:08Z</time>
      </trkpt>
      <trkpt lat="44.95785" lon="6.10221">
        <ele>2018.8</ele>
        <time>2024-08-14T11:41:09Z</time>
      </trkpt>
      <trkpt lat="44.95785" lon="6.10221">
        <ele>2018.6</ele>
        <time>2024-08-14T11:41:10Z</time>
      </trkpt>
      <trkpt lat="44.95785" lon="6.10221">
        <ele>2018.4</ele>
        <time>2024-08-14T11:41:11Z</time>
      </trkpt>
      <trkpt lat="44.95785" lon="6.10221">
        <ele>2018.2</ele>
        <time>2024-08-14T11:41:12Z</time>
      </trkpt>
      <trkpt lat="44.95785" lon="6.10221">
        <ele>2018</ele>
        <time>2024-08-14T11:41:13Z</time>
      </trkpt>
      <trkpt lat="44.95785" lon="6.10221">
        <ele>2018</ele>
        <time>2024-08-14T11:41:14Z</time>
      </trkpt>
      <trkpt lat="44.95785" lon="6.10221">
        <ele>2018</ele>
        <time>2024-08-14T11:41:15Z</time>
      </trkpt>
      <trkpt lat="44.95785" lon="6.10221">
        <ele>2018</ele>
        <time>2024-08-14T11:41:16Z</time>
      </trkpt>
      <trkpt lat="44.95785" lon="6.10221">
        <ele>2018</ele>
        <time>2024-08-14T11:41:17Z</time>
      </trkpt>
      <trkpt lat="44.95785" lon="6.10221">
        <ele>2018</ele>
        <time>2024-08-14T11:41:18Z</time>
      </trkpt>
      <trkpt lat="44.95785" lon="6.10221">
        <ele>2018</ele>
        <time>2024-08-14T11:41:19Z</time>
      </trkpt>
      <trkpt lat="44.95785" lon="6.10221">
        <ele>2018</ele>
        <time>2024-08-14T11:41:20Z</time>
      </trkpt>
      <trkpt lat="44.95785" lon="6.10221">
        <ele>2018</ele>
        <time>2024-08-14T11:41:21Z</time>
      </trkpt>
      <trkpt lat="44.95785" lon="6.10221">
        <ele>2017.8</ele>
        <time>2024-08-14T11:41:22Z</time>
      </trkpt>
      <trkpt lat="44.95785" lon="6.10221">
        <ele>2017.8</ele>
        <time>2024-08-14T11:41:23Z</time>
      </trkpt>
      <trkpt lat="44.95785" lon="6.10221">
        <ele>2018</ele>
        <time>2024-08-14T11:41:24Z</time>
      </trkpt>
      <trkpt lat="44.95785" lon="6.10221">
        <ele>2018</ele>
        <time>2024-08-14T11:41:25Z</time>
      </trkpt>
      <trkpt lat="44.95785" lon="6.10221">
        <ele>2017.8</ele>
        <time>2024-08-14T11:41:26Z</time>
      </trkpt>
      <trkpt lat="44.95785" lon="6.10221">
        <ele>2017.8</ele>
        <time>2024-08-14T11:41:27Z</time>
      </trkpt>
      <trkpt lat="44.95785" lon="6.10221">
        <ele>2017.6</ele>
        <time>2024-08-14T11:41:28Z</time>
      </trkpt>
      <trkpt lat="44.95785" lon="6.10221">
        <ele>2017.6</ele>
        <time>2024-08-14T11:41:29Z</time>
      </trkpt>
      <trkpt lat="44.95785" lon="6.10221">
        <ele>2017.6</ele>
        <time>2024-08-14T11:41:30Z</time>
      </trkpt>
      <trkpt lat="44.95785" lon="6.10221">
        <ele>2018.2</ele>
        <time>2024-08-14T11:41:31Z</time>
      </trkpt>
      <trkpt lat="44.95785" lon="6.10221">
        <ele>2018.2</ele>
        <time>2024-08-14T11:41:32Z</time>
      </trkpt>
      <trkpt lat="44.95785" lon="6.10221">
        <ele>2018.2</ele>
        <time>2024-08-14T11:41:33Z</time>
      </trkpt>
      <trkpt lat="44.95785" lon="6.10221">
        <ele>2018.2</ele>
        <time>2024-08-14T11:41:34Z</time>
      </trkpt>
      <trkpt lat="44.95785" lon="6.10221">
        <ele>2018.4</ele>
        <time>2024-08-14T11:41:35Z</time>
      </trkpt>
      <trkpt lat="44.95785" lon="6.10221">
        <ele>2018.4</ele>
        <time>2024-08-14T11:41:36Z</time>
      </trkpt>
      <trkpt lat="44.95785" lon="6.10221">
        <ele>2018.4</ele>
        <time>2024-08-14T11:41:37Z</time>
      </trkpt>
      <trkpt lat="44.95785" lon="6.10221">
        <ele>2018.2</ele>
        <time>2024-08-14T11:41:38Z</time>
      </trkpt>
      <trkpt lat="44.95785" lon="6.10221">
        <ele>2018.2</ele>
        <time>2024-08-14T11:41:39Z</time>
      </trkpt>
      <trkpt lat="44.95785" lon="6.10221">
        <ele>2018.2</ele>
        <time>2024-08-14T11:41:40Z</time>
      </trkpt>
      <trkpt lat="44.95785" lon="6.10221">
        <ele>2018.4</ele>
        <time>2024-08-14T11:41:41Z</time>
      </trkpt>
      <trkpt lat="44.95785" lon="6.10221">
        <ele>2018.4</ele>
        <time>2024-08-14T11:41:42Z</time>
      </trkpt>
      <trkpt lat="44.95785" lon="6.10221">
        <ele>2018.2</ele>
        <time>2024-08-14T11:41:43Z</time>
      </trkpt>
      <trkpt lat="44.95785" lon="6.10221">
        <ele>2018</ele>
        <time>2024-08-14T11:41:44Z</time>
      </trkpt>
      <trkpt lat="44.95785" lon="6.10221">
        <ele>2018</ele>
        <time>2024-08-14T11:41:45Z</time>
      </trkpt>
      <trkpt lat="44.95785" lon="6.10221">
        <ele>2017.8</ele>
        <time>2024-08-14T11:41:46Z</time>
      </trkpt>
      <trkpt lat="44.95785" lon="6.10221">
        <ele>2017.8</ele>
        <time>2024-08-14T11:41:47Z</time>
      </trkpt>
      <trkpt lat="44.95786" lon="6.10225">
        <ele>2017.4</ele>
        <time>2024-08-14T11:41:48Z</time>
      </trkpt>
      <trkpt lat="44.95786" lon="6.10225">
        <ele>2017</ele>
        <time>2024-08-14T11:41:49Z</time>
      </trkpt>
      <trkpt lat="44.95785" lon="6.10228">
        <ele>2016.6</ele>
        <time>2024-08-14T11:41:50Z</time>
      </trkpt>
      <trkpt lat="44.95785" lon="6.10228">
        <ele>2016.6</ele>
        <time>2024-08-14T11:41:51Z</time>
      </trkpt>
      <trkpt lat="44.95784" lon="6.10231">
        <ele>2016.2</ele>
        <time>2024-08-14T11:41:52Z</time>
      </trkpt>
      <trkpt lat="44.95784" lon="6.10231">
        <ele>2016</ele>
        <time>2024-08-14T11:41:53Z</time>
      </trkpt>
      <trkpt lat="44.95784" lon="6.10231">
        <ele>2015.4</ele>
        <time>2024-08-14T11:41:54Z</time>
      </trkpt>
      <trkpt lat="44.95784" lon="6.10235">
        <ele>2015.2</ele>
        <time>2024-08-14T11:41:55Z</time>
      </trkpt>
      <trkpt lat="44.95784" lon="6.10235">
        <ele>2015</ele>
        <time>2024-08-14T11:41:56Z</time>
      </trkpt>
      <trkpt lat="44.95784" lon="6.10238">
        <ele>2014.8</ele>
        <time>2024-08-14T11:41:57Z</time>
      </trkpt>
      <trkpt lat="44.95784" lon="6.10238">
        <ele>2014.4</ele>
        <time>2024-08-14T11:41:58Z</time>
      </trkpt>
      <trkpt lat="44.95783" lon="6.1024">
        <ele>2013.8</ele>
        <time>2024-08-14T11:41:59Z</time>
      </trkpt>
      <trkpt lat="44.95783" lon="6.1024">
        <ele>2013.4</ele>
        <time>2024-08-14T11:42:00Z</time>
      </trkpt>
      <trkpt lat="44.95781" lon="6.10242">
        <ele>2013</ele>
        <time>2024-08-14T11:42:01Z</time>
      </trkpt>
      <trkpt lat="44.95781" lon="6.10242">
        <ele>2012.2</ele>
        <time>2024-08-14T11:42:02Z</time>
      </trkpt>
      <trkpt lat="44.95781" lon="6.10242">
        <ele>2012.2</ele>
        <time>2024-08-14T11:42:03Z</time>
      </trkpt>
      <trkpt lat="44.95781" lon="6.10246">
        <ele>2012.2</ele>
        <time>2024-08-14T11:42:04Z</time>
      </trkpt>
      <trkpt lat="44.95781" lon="6.10246">
        <ele>2012.2</ele>
        <time>2024-08-14T11:42:05Z</time>
      </trkpt>
      <trkpt lat="44.95781" lon="6.10249">
        <ele>2011.8</ele>
        <time>2024-08-14T11:42:06Z</time>
      </trkpt>
      <trkpt lat="44.95781" lon="6.10249">
        <ele>2011.4</ele>
        <time>2024-08-14T11:42:07Z</time>
      </trkpt>
      <trkpt lat="44.95781" lon="6.10249">
        <ele>2011</ele>
        <time>2024-08-14T11:42:08Z</time>
      </trkpt>
      <trkpt lat="44.95781" lon="6.10252">
        <ele>2010.4</ele>
        <time>2024-08-14T11:42:09Z</time>
      </trkpt>
      <trkpt lat="44.95781" lon="6.10252">
        <ele>2010</ele>
        <time>2024-08-14T11:42:10Z</time>
      </trkpt>
      <trkpt lat="44.95781" lon="6.10252">
        <ele>2009.8</ele>
        <time>2024-08-14T11:42:11Z</time>
      </trkpt>
      <trkpt lat="44.95784" lon="6.10251">
        <ele>2009.8</ele>
        <time>2024-08-14T11:42:12Z</time>
      </trkpt>
      <trkpt lat="44.95784" lon="6.10251">
        <ele>2009.8</ele>
        <time>2024-08-14T11:42:13Z</time>
      </trkpt>
      <trkpt lat="44.95784" lon="6.10251">
        <ele>2009.4</ele>
        <time>2024-08-14T11:42:14Z</time>
      </trkpt>
      <trkpt lat="44.95785" lon="6.10248">
        <ele>2009</ele>
        <time>2024-08-14T11:42:15Z</time>
      </trkpt>
      <trkpt lat="44.95785" lon="6.10248">
        <ele>2008.4</ele>
        <time>2024-08-14T11:42:16Z</time>
      </trkpt>
      <trkpt lat="44.95786" lon="6.10245">
        <ele>2008.2</ele>
        <time>2024-08-14T11:42:17Z</time>
      </trkpt>
      <trkpt lat="44.95786" lon="6.10245">
        <ele>2007.8</ele>
        <time>2024-08-14T11:42:18Z</time>
      </trkpt>
      <trkpt lat="44.95786" lon="6.10245">
        <ele>2007.8</ele>
        <time>2024-08-14T11:42:19Z</time>
      </trkpt>
      <trkpt lat="44.95789" lon="6.10247">
        <ele>2007.4</ele>
        <time>2024-08-14T11:42:20Z</time>
      </trkpt>
      <trkpt lat="44.95789" lon="6.10247">
        <ele>2007.2</ele>
        <time>2024-08-14T11:42:21Z</time>
      </trkpt>
      <trkpt lat="44.95789" lon="6.1025">
        <ele>2006.8</ele>
        <time>2024-08-14T11:42:22Z</time>
      </trkpt>
      <trkpt lat="44.95789" lon="6.1025">
        <ele>2006.2</ele>
        <time>2024-08-14T11:42:23Z</time>
      </trkpt>
      <trkpt lat="44.9579" lon="6.10253">
        <ele>2005.8</ele>
        <time>2024-08-14T11:42:24Z</time>
      </trkpt>
      <trkpt lat="44.9579" lon="6.10253">
        <ele>2005.6</ele>
        <time>2024-08-14T11:42:25Z</time>
      </trkpt>
      <trkpt lat="44.9579" lon="6.10253">
        <ele>2005</ele>
        <time>2024-08-14T11:42:26Z</time>
      </trkpt>
      <trkpt lat="44.95793" lon="6.10253">
        <ele>2004.8</ele>
        <time>2024-08-14T11:42:27Z</time>
      </trkpt>
      <trkpt lat="44.95793" lon="6.10253">
        <ele>2004.6</ele>
        <time>2024-08-14T11:42:28Z</time>
      </trkpt>
      <trkpt lat="44.95795" lon="6.10253">
        <ele>2004.2</ele>
        <time>2024-08-14T11:42:29Z</time>
      </trkpt>
      <trkpt lat="44.95795" lon="6.10253">
        <ele>2003.6</ele>
        <time>2024-08-14T11:42:30Z</time>
      </trkpt>
      <trkpt lat="44.95795" lon="6.10253">
        <ele>2003.4</ele>
        <time>2024-08-14T11:42:31Z</time>
      </trkpt>
      <trkpt lat="44.95797" lon="6.10253">
        <ele>2003</ele>
        <time>2024-08-14T11:42:32Z</time>
      </trkpt>
      <trkpt lat="44.95797" lon="6.10253">
        <ele>2002.4</ele>
        <time>2024-08-14T11:42:33Z</time>
      </trkpt>
      <trkpt lat="44.95799" lon="6.10252">
        <ele>2001.6</ele>
        <time>2024-08-14T11:42:34Z</time>
      </trkpt>
      <trkpt lat="44.95799" lon="6.10252">
        <ele>2001.6</ele>
        <time>2024-08-14T11:42:35Z</time>
      </trkpt>
      <trkpt lat="44.95801" lon="6.1025">
        <ele>2001.6</ele>
        <time>2024-08-14T11:42:36Z</time>
      </trkpt>
      <trkpt lat="44.95801" lon="6.1025">
        <ele>2001</ele>
        <time>2024-08-14T11:42:37Z</time>
      </trkpt>
      <trkpt lat="44.95803" lon="6.10248">
        <ele>2001</ele>
        <time>2024-08-14T11:42:38Z</time>
      </trkpt>
      <trkpt lat="44.95803" lon="6.10248">
        <ele>2000.8</ele>
        <time>2024-08-14T11:42:39Z</time>
      </trkpt>
      <trkpt lat="44.95805" lon="6.10249">
        <ele>2000.6</ele>
        <time>2024-08-14T11:42:40Z</time>
      </trkpt>
      <trkpt lat="44.95805" lon="6.10249">
        <ele>2000.4</ele>
        <time>2024-08-14T11:42:41Z</time>
      </trkpt>
      <trkpt lat="44.95805" lon="6.10249">
        <ele>1999.8</ele>
        <time>2024-08-14T11:42:42Z</time>
      </trkpt>
      <trkpt lat="44.95807" lon="6.1025">
        <ele>1999.6</ele>
        <time>2024-08-14T11:42:43Z</time>
      </trkpt>
      <trkpt lat="44.95807" lon="6.1025">
        <ele>1999.4</ele>
        <time>2024-08-14T11:42:44Z</time>
      </trkpt>
      <trkpt lat="44.95809" lon="6.1025">
        <ele>1999</ele>
        <time>2024-08-14T11:42:45Z</time>
      </trkpt>
      <trkpt lat="44.95809" lon="6.1025">
        <ele>1998.6</ele>
        <time>2024-08-14T11:42:46Z</time>
      </trkpt>
      <trkpt lat="44.95809" lon="6.1025">
        <ele>1998.4</ele>
        <time>2024-08-14T11:42:47Z</time>
      </trkpt>
      <trkpt lat="44.95809" lon="6.1025">
        <ele>1998</ele>
        <time>2024-08-14T11:42:48Z</time>
      </trkpt>
      <trkpt lat="44.95812" lon="6.10248">
        <ele>1997.4</ele>
        <time>2024-08-14T11:42:49Z</time>
      </trkpt>
      <trkpt lat="44.95812" lon="6.10248">
        <ele>1997.4</ele>
        <time>2024-08-14T11:42:50Z</time>
      </trkpt>
      <trkpt lat="44.95813" lon="6.10246">
        <ele>1997</ele>
        <time>2024-08-14T11:42:51Z</time>
      </trkpt>
      <trkpt lat="44.95813" lon="6.10246">
        <ele>1996.6</ele>
        <time>2024-08-14T11:42:52Z</time>
      </trkpt>
      <trkpt lat="44.95814" lon="6.10243">
        <ele>1996.4</ele>
        <time>2024-08-14T11:42:53Z</time>
      </trkpt>
      <trkpt lat="44.95814" lon="6.10243">
        <ele>1996</ele>
        <time>2024-08-14T11:42:54Z</time>
      </trkpt>
      <trkpt lat="44.95816" lon="6.10242">
        <ele>1995.6</ele>
        <time>2024-08-14T11:42:55Z</time>
      </trkpt>
      <trkpt lat="44.95816" lon="6.10242">
        <ele>1995.2</ele>
        <time>2024-08-14T11:42:56Z</time>
      </trkpt>
      <trkpt lat="44.95818" lon="6.1024">
        <ele>1995.2</ele>
        <time>2024-08-14T11:42:57Z</time>
      </trkpt>
      <trkpt lat="44.9582" lon="6.10239">
        <ele>1995</ele>
        <time>2024-08-14T11:42:58Z</time>
      </trkpt>
      <trkpt lat="44.9582" lon="6.10239">
        <ele>1994.8</ele>
        <time>2024-08-14T11:42:59Z</time>
      </trkpt>
      <trkpt lat="44.95822" lon="6.10238">
        <ele>1994.2</ele>
        <time>2024-08-14T11:43:00Z</time>
      </trkpt>
      <trkpt lat="44.95822" lon="6.10238">
        <ele>1993.6</ele>
        <time>2024-08-14T11:43:01Z</time>
      </trkpt>
      <trkpt lat="44.95824" lon="6.1024">
        <ele>1992.8</ele>
        <time>2024-08-14T11:43:02Z</time>
      </trkpt>
      <trkpt lat="44.95824" lon="6.1024">
        <ele>1992.8</ele>
        <time>2024-08-14T11:43:03Z</time>
      </trkpt>
      <trkpt lat="44.95824" lon="6.10243">
        <ele>1992.8</ele>
        <time>2024-08-14T11:43:04Z</time>
      </trkpt>
      <trkpt lat="44.95824" lon="6.10243">
        <ele>1992.6</ele>
        <time>2024-08-14T11:43:05Z</time>
      </trkpt>
      <trkpt lat="44.95824" lon="6.10246">
        <ele>1992.6</ele>
        <time>2024-08-14T11:43:06Z</time>
      </trkpt>
      <trkpt lat="44.95824" lon="6.10246">
        <ele>1992</ele>
        <time>2024-08-14T11:43:07Z</time>
      </trkpt>
      <trkpt lat="44.95822" lon="6.10248">
        <ele>1991.8</ele>
        <time>2024-08-14T11:43:08Z</time>
      </trkpt>
      <trkpt lat="44.95822" lon="6.10248">
        <ele>1991.8</ele>
        <time>2024-08-14T11:43:09Z</time>
      </trkpt>
      <trkpt lat="44.95821" lon="6.10251">
        <ele>1991.4</ele>
        <time>2024-08-14T11:43:10Z</time>
      </trkpt>
      <trkpt lat="44.95821" lon="6.10251">
        <ele>1991.2</ele>
        <time>2024-08-14T11:43:11Z</time>
      </trkpt>
      <trkpt lat="44.95821" lon="6.10251">
        <ele>1990.8</ele>
        <time>2024-08-14T11:43:12Z</time>
      </trkpt>
      <trkpt lat="44.95821" lon="6.10251">
        <ele>1990.4</ele>
        <time>2024-08-14T11:43:13Z</time>
      </trkpt>
      <trkpt lat="44.95821" lon="6.10251">
        <ele>1990.4</ele>
        <time>2024-08-14T11:43:14Z</time>
      </trkpt>
      <trkpt lat="44.95823" lon="6.10252">
        <ele>1990.4</ele>
        <time>2024-08-14T11:43:15Z</time>
      </trkpt>
      <trkpt lat="44.95823" lon="6.10252">
        <ele>1990.2</ele>
        <time>2024-08-14T11:43:16Z</time>
      </trkpt>
      <trkpt lat="44.95823" lon="6.10252">
        <ele>1989.8</ele>
        <time>2024-08-14T11:43:17Z</time>
      </trkpt>
      <trkpt lat="44.95826" lon="6.10252">
        <ele>1989.2</ele>
        <time>2024-08-14T11:43:18Z</time>
      </trkpt>
      <trkpt lat="44.95826" lon="6.10252">
        <ele>1988.8</ele>
        <time>2024-08-14T11:43:19Z</time>
      </trkpt>
      <trkpt lat="44.95828" lon="6.10252">
        <ele>1988.6</ele>
        <time>2024-08-14T11:43:20Z</time>
      </trkpt>
      <trkpt lat="44.95828" lon="6.10252">
        <ele>1988</ele>
        <time>2024-08-14T11:43:21Z</time>
      </trkpt>
      <trkpt lat="44.9583" lon="6.10251">
        <ele>1987.6</ele>
        <time>2024-08-14T11:43:22Z</time>
      </trkpt>
      <trkpt lat="44.9583" lon="6.10251">
        <ele>1987.2</ele>
        <time>2024-08-14T11:43:23Z</time>
      </trkpt>
      <trkpt lat="44.95832" lon="6.10249">
        <ele>1986.8</ele>
        <time>2024-08-14T11:43:24Z</time>
      </trkpt>
      <trkpt lat="44.95832" lon="6.10249">
        <ele>1986.6</ele>
        <time>2024-08-14T11:43:25Z</time>
      </trkpt>
      <trkpt lat="44.95834" lon="6.10247">
        <ele>1986.4</ele>
        <time>2024-08-14T11:43:26Z</time>
      </trkpt>
      <trkpt lat="44.95834" lon="6.10247">
        <ele>1986.4</ele>
        <time>2024-08-14T11:43:27Z</time>
      </trkpt>
      <trkpt lat="44.95834" lon="6.10247">
        <ele>1986.2</ele>
        <time>2024-08-14T11:43:28Z</time>
      </trkpt>
      <trkpt lat="44.95836" lon="6.10244">
        <ele>1986</ele>
        <time>2024-08-14T11:43:29Z</time>
      </trkpt>
      <trkpt lat="44.95836" lon="6.10244">
        <ele>1985.8</ele>
        <time>2024-08-14T11:43:30Z</time>
      </trkpt>
      <trkpt lat="44.95837" lon="6.10242">
        <ele>1985.2</ele>
        <time>2024-08-14T11:43:31Z</time>
      </trkpt>
      <trkpt lat="44.95837" lon="6.10242">
        <ele>1984.8</ele>
        <time>2024-08-14T11:43:32Z</time>
      </trkpt>
      <trkpt lat="44.95837" lon="6.1024">
        <ele>1984.6</ele>
        <time>2024-08-14T11:43:33Z</time>
      </trkpt>
      <trkpt lat="44.95837" lon="6.1024">
        <ele>1984.4</ele>
        <time>2024-08-14T11:43:34Z</time>
      </trkpt>
      <trkpt lat="44.95837" lon="6.1024">
        <ele>1984</ele>
        <time>2024-08-14T11:43:35Z</time>
      </trkpt>
      <trkpt lat="44.95838" lon="6.10236">
        <ele>1983.8</ele>
        <time>2024-08-14T11:43:36Z</time>
      </trkpt>
      <trkpt lat="44.95838" lon="6.10236">
        <ele>1983.6</ele>
        <time>2024-08-14T11:43:37Z</time>
      </trkpt>
      <trkpt lat="44.9584" lon="6.10233">
        <ele>1983.2</ele>
        <time>2024-08-14T11:43:38Z</time>
      </trkpt>
      <trkpt lat="44.9584" lon="6.10233">
        <ele>1982.8</ele>
        <time>2024-08-14T11:43:39Z</time>
      </trkpt>
      <trkpt lat="44.95841" lon="6.1023">
        <ele>1982.4</ele>
        <time>2024-08-14T11:43:40Z</time>
      </trkpt>
      <trkpt lat="44.95841" lon="6.1023">
        <ele>1982</ele>
        <time>2024-08-14T11:43:41Z</time>
      </trkpt>
      <trkpt lat="44.95844" lon="6.10228">
        <ele>1981.8</ele>
        <time>2024-08-14T11:43:42Z</time>
      </trkpt>
      <trkpt lat="44.95844" lon="6.10228">
        <ele>1981.8</ele>
        <time>2024-08-14T11:43:43Z</time>
      </trkpt>
      <trkpt lat="44.95845" lon="6.10227">
        <ele>1981.6</ele>
        <time>2024-08-14T11:43:44Z</time>
      </trkpt>
      <trkpt lat="44.95845" lon="6.10227">
        <ele>1981.4</ele>
        <time>2024-08-14T11:43:45Z</time>
      </trkpt>
      <trkpt lat="44.95848" lon="6.10225">
        <ele>1980.8</ele>
        <time>2024-08-14T11:43:46Z</time>
      </trkpt>
      <trkpt lat="44.95848" lon="6.10225">
        <ele>1980.6</ele>
        <time>2024-08-14T11:43:47Z</time>
      </trkpt>
      <trkpt lat="44.9585" lon="6.10225">
        <ele>1980.4</ele>
        <time>2024-08-14T11:43:48Z</time>
      </trkpt>
      <trkpt lat="44.9585" lon="6.10225">
        <ele>1980</ele>
        <time>2024-08-14T11:43:49Z</time>
      </trkpt>
      <trkpt lat="44.95852" lon="6.10225">
        <ele>1979.6</ele>
        <time>2024-08-14T11:43:50Z</time>
      </trkpt>
      <trkpt lat="44.95852" lon="6.10225">
        <ele>1979.6</ele>
        <time>2024-08-14T11:43:51Z</time>
      </trkpt>
      <trkpt lat="44.95855" lon="6.10224">
        <ele>1979.2</ele>
        <time>2024-08-14T11:43:52Z</time>
      </trkpt>
      <trkpt lat="44.95855" lon="6.10224">
        <ele>1979.2</ele>
        <time>2024-08-14T11:43:53Z</time>
      </trkpt>
      <trkpt lat="44.95858" lon="6.10223">
        <ele>1978.8</ele>
        <time>2024-08-14T11:43:54Z</time>
      </trkpt>
      <trkpt lat="44.95858" lon="6.10223">
        <ele>1978.4</ele>
        <time>2024-08-14T11:43:55Z</time>
      </trkpt>
      <trkpt lat="44.9586" lon="6.10221">
        <ele>1977.8</ele>
        <time>2024-08-14T11:43:56Z</time>
      </trkpt>
      <trkpt lat="44.9586" lon="6.10221">
        <ele>1977.2</ele>
        <time>2024-08-14T11:43:57Z</time>
      </trkpt>
      <trkpt lat="44.95862" lon="6.10219">
        <ele>1977</ele>
        <time>2024-08-14T11:43:58Z</time>
      </trkpt>
      <trkpt lat="44.95862" lon="6.10219">
        <ele>1977</ele>
        <time>2024-08-14T11:43:59Z</time>
      </trkpt>
      <trkpt lat="44.95863" lon="6.10217">
        <ele>1976.8</ele>
        <time>2024-08-14T11:44:00Z</time>
      </trkpt>
      <trkpt lat="44.95863" lon="6.10217">
        <ele>1976.6</ele>
        <time>2024-08-14T11:44:01Z</time>
      </trkpt>
      <trkpt lat="44.95865" lon="6.10214">
        <ele>1976.4</ele>
        <time>2024-08-14T11:44:02Z</time>
      </trkpt>
      <trkpt lat="44.95865" lon="6.10214">
        <ele>1976.4</ele>
        <time>2024-08-14T11:44:03Z</time>
      </trkpt>
      <trkpt lat="44.95866" lon="6.10211">
        <ele>1976.2</ele>
        <time>2024-08-14T11:44:04Z</time>
      </trkpt>
      <trkpt lat="44.95866" lon="6.10211">
        <ele>1976</ele>
        <time>2024-08-14T11:44:05Z</time>
      </trkpt>
      <trkpt lat="44.95868" lon="6.10208">
        <ele>1975.8</ele>
        <time>2024-08-14T11:44:06Z</time>
      </trkpt>
      <trkpt lat="44.95868" lon="6.10208">
        <ele>1975.8</ele>
        <time>2024-08-14T11:44:07Z</time>
      </trkpt>
      <trkpt lat="44.9587" lon="6.10206">
        <ele>1975.2</ele>
        <time>2024-08-14T11:44:08Z</time>
      </trkpt>
      <trkpt lat="44.9587" lon="6.10206">
        <ele>1975.2</ele>
        <time>2024-08-14T11:44:09Z</time>
      </trkpt>
      <trkpt lat="44.95872" lon="6.10203">
        <ele>1974.8</ele>
        <time>2024-08-14T11:44:10Z</time>
      </trkpt>
      <trkpt lat="44.95874" lon="6.10202">
        <ele>1974.8</ele>
        <time>2024-08-14T11:44:11Z</time>
      </trkpt>
      <trkpt lat="44.95874" lon="6.10202">
        <ele>1974.6</ele>
        <time>2024-08-14T11:44:12Z</time>
      </trkpt>
      <trkpt lat="44.95875" lon="6.10199">
        <ele>1974.4</ele>
        <time>2024-08-14T11:44:13Z</time>
      </trkpt>
      <trkpt lat="44.95875" lon="6.10199">
        <ele>1974</ele>
        <time>2024-08-14T11:44:14Z</time>
      </trkpt>
      <trkpt lat="44.95875" lon="6.10196">
        <ele>1974</ele>
        <time>2024-08-14T11:44:15Z</time>
      </trkpt>
      <trkpt lat="44.95875" lon="6.10196">
        <ele>1974</ele>
        <time>2024-08-14T11:44:16Z</time>
      </trkpt>
      <trkpt lat="44.95875" lon="6.10196">
        <ele>1974</ele>
        <time>2024-08-14T11:44:17Z</time>
      </trkpt>
      <trkpt lat="44.95877" lon="6.10194">
        <ele>1974</ele>
        <time>2024-08-14T11:44:18Z</time>
      </trkpt>
      <trkpt lat="44.95877" lon="6.10194">
        <ele>1973.6</ele>
        <time>2024-08-14T11:44:19Z</time>
      </trkpt>
      <trkpt lat="44.95877" lon="6.10194">
        <ele>1973.2</ele>
        <time>2024-08-14T11:44:20Z</time>
      </trkpt>
      <trkpt lat="44.95877" lon="6.10194">
        <ele>1973</ele>
        <time>2024-08-14T11:44:21Z</time>
      </trkpt>
      <trkpt lat="44.95876" lon="6.10191">
        <ele>1972.8</ele>
        <time>2024-08-14T11:44:22Z</time>
      </trkpt>
      <trkpt lat="44.95876" lon="6.10191">
        <ele>1972.8</ele>
        <time>2024-08-14T11:44:23Z</time>
      </trkpt>
      <trkpt lat="44.95876" lon="6.10191">
        <ele>1972.6</ele>
        <time>2024-08-14T11:44:24Z</time>
      </trkpt>
      <trkpt lat="44.95876" lon="6.10187">
        <ele>1972.2</ele>
        <time>2024-08-14T11:44:25Z</time>
      </trkpt>
      <trkpt lat="44.95876" lon="6.10187">
        <ele>1971.8</ele>
        <time>2024-08-14T11:44:26Z</time>
      </trkpt>
      <trkpt lat="44.95876" lon="6.10187">
        <ele>1971.4</ele>
        <time>2024-08-14T11:44:27Z</time>
      </trkpt>
      <trkpt lat="44.95876" lon="6.10184">
        <ele>1971</ele>
        <time>2024-08-14T11:44:28Z</time>
      </trkpt>
      <trkpt lat="44.95876" lon="6.10184">
        <ele>1970.8</ele>
        <time>2024-08-14T11:44:29Z</time>
      </trkpt>
      <trkpt lat="44.95876" lon="6.10184">
        <ele>1970.6</ele>
        <time>2024-08-14T11:44:30Z</time>
      </trkpt>
      <trkpt lat="44.95877" lon="6.10181">
        <ele>1970</ele>
        <time>2024-08-14T11:44:31Z</time>
      </trkpt>
      <trkpt lat="44.95877" lon="6.10181">
        <ele>1969.2</ele>
        <time>2024-08-14T11:44:32Z</time>
      </trkpt>
      <trkpt lat="44.95877" lon="6.10181">
        <ele>1969</ele>
        <time>2024-08-14T11:44:33Z</time>
      </trkpt>
      <trkpt lat="44.95877" lon="6.10178">
        <ele>1968.8</ele>
        <time>2024-08-14T11:44:34Z</time>
      </trkpt>
      <trkpt lat="44.95877" lon="6.10178">
        <ele>1968.6</ele>
        <time>2024-08-14T11:44:35Z</time>
      </trkpt>
      <trkpt lat="44.95877" lon="6.10178">
        <ele>1968.2</ele>
        <time>2024-08-14T11:44:36Z</time>
      </trkpt>
      <trkpt lat="44.95877" lon="6.10175">
        <ele>1967.6</ele>
        <time>2024-08-14T11:44:37Z</time>
      </trkpt>
      <trkpt lat="44.95877" lon="6.10175">
        <ele>1967.4</ele>
        <time>2024-08-14T11:44:38Z</time>
      </trkpt>
      <trkpt lat="44.95877" lon="6.10172">
        <ele>1967.2</ele>
        <time>2024-08-14T11:44:39Z</time>
      </trkpt>
      <trkpt lat="44.95877" lon="6.10172">
        <ele>1966.8</ele>
        <time>2024-08-14T11:44:40Z</time>
      </trkpt>
      <trkpt lat="44.95877" lon="6.10172">
        <ele>1966.2</ele>
        <time>2024-08-14T11:44:41Z</time>
      </trkpt>
      <trkpt lat="44.95877" lon="6.10172">
        <ele>1965.8</ele>
        <time>2024-08-14T11:44:42Z</time>
      </trkpt>
      <trkpt lat="44.95877" lon="6.10172">
        <ele>1965.4</ele>
        <time>2024-08-14T11:44:43Z</time>
      </trkpt>
      <trkpt lat="44.95878" lon="6.1017">
        <ele>1965</ele>
        <time>2024-08-14T11:44:44Z</time>
      </trkpt>
      <trkpt lat="44.95878" lon="6.1017">
        <ele>1964.8</ele>
        <time>2024-08-14T11:44:45Z</time>
      </trkpt>
      <trkpt lat="44.95877" lon="6.10167">
        <ele>1964.8</ele>
        <time>2024-08-14T11:44:46Z</time>
      </trkpt>
      <trkpt lat="44.95877" lon="6.10167">
        <ele>1964.4</ele>
        <time>2024-08-14T11:44:47Z</time>
      </trkpt>
      <trkpt lat="44.95876" lon="6.10165">
        <ele>1964</ele>
        <time>2024-08-14T11:44:48Z</time>
      </trkpt>
      <trkpt lat="44.95876" lon="6.10165">
        <ele>1963.6</ele>
        <time>2024-08-14T11:44:49Z</time>
      </trkpt>
      <trkpt lat="44.95876" lon="6.10162">
        <ele>1963.6</ele>
        <time>2024-08-14T11:44:50Z</time>
      </trkpt>
      <trkpt lat="44.95876" lon="6.10162">
        <ele>1963.4</ele>
        <time>2024-08-14T11:44:51Z</time>
      </trkpt>
      <trkpt lat="44.95876" lon="6.10159">
        <ele>1963</ele>
        <time>2024-08-14T11:44:52Z</time>
      </trkpt>
      <trkpt lat="44.95876" lon="6.10159">
        <ele>1962.8</ele>
        <time>2024-08-14T11:44:53Z</time>
      </trkpt>
      <trkpt lat="44.95878" lon="6.10157">
        <ele>1962.4</ele>
        <time>2024-08-14T11:44:54Z</time>
      </trkpt>
      <trkpt lat="44.95878" lon="6.10157">
        <ele>1962</ele>
        <time>2024-08-14T11:44:55Z</time>
      </trkpt>
      <trkpt lat="44.95878" lon="6.10157">
        <ele>1961.8</ele>
        <time>2024-08-14T11:44:56Z</time>
      </trkpt>
      <trkpt lat="44.9588" lon="6.10157">
        <ele>1961.6</ele>
        <time>2024-08-14T11:44:57Z</time>
      </trkpt>
      <trkpt lat="44.9588" lon="6.10157">
        <ele>1961.2</ele>
        <time>2024-08-14T11:44:58Z</time>
      </trkpt>
      <trkpt lat="44.95882" lon="6.10159">
        <ele>1960.8</ele>
        <time>2024-08-14T11:44:59Z</time>
      </trkpt>
      <trkpt lat="44.95882" lon="6.10159">
        <ele>1960.4</ele>
        <time>2024-08-14T11:45:00Z</time>
      </trkpt>
      <trkpt lat="44.95883" lon="6.10161">
        <ele>1960</ele>
        <time>2024-08-14T11:45:01Z</time>
      </trkpt>
      <trkpt lat="44.95883" lon="6.10161">
        <ele>1959.4</ele>
        <time>2024-08-14T11:45:02Z</time>
      </trkpt>
      <trkpt lat="44.95883" lon="6.10161">
        <ele>1959.4</ele>
        <time>2024-08-14T11:45:03Z</time>
      </trkpt>
      <trkpt lat="44.95885" lon="6.10164">
        <ele>1959.2</ele>
        <time>2024-08-14T11:45:04Z</time>
      </trkpt>
      <trkpt lat="44.95885" lon="6.10164">
        <ele>1958.8</ele>
        <time>2024-08-14T11:45:05Z</time>
      </trkpt>
      <trkpt lat="44.95885" lon="6.10164">
        <ele>1958.6</ele>
        <time>2024-08-14T11:45:06Z</time>
      </trkpt>
      <trkpt lat="44.95887" lon="6.10163">
        <ele>1958.2</ele>
        <time>2024-08-14T11:45:07Z</time>
      </trkpt>
      <trkpt lat="44.95887" lon="6.10163">
        <ele>1957.8</ele>
        <time>2024-08-14T11:45:08Z</time>
      </trkpt>
      <trkpt lat="44.95886" lon="6.1016">
        <ele>1957.6</ele>
        <time>2024-08-14T11:45:09Z</time>
      </trkpt>
      <trkpt lat="44.95886" lon="6.1016">
        <ele>1957.2</ele>
        <time>2024-08-14T11:45:10Z</time>
      </trkpt>
      <trkpt lat="44.95885" lon="6.10157">
        <ele>1957.2</ele>
        <time>2024-08-14T11:45:11Z</time>
      </trkpt>
      <trkpt lat="44.95885" lon="6.10157">
        <ele>1956.8</ele>
        <time>2024-08-14T11:45:12Z</time>
      </trkpt>
      <trkpt lat="44.95885" lon="6.10153">
        <ele>1956.8</ele>
        <time>2024-08-14T11:45:13Z</time>
      </trkpt>
      <trkpt lat="44.95885" lon="6.10153">
        <ele>1956.4</ele>
        <time>2024-08-14T11:45:14Z</time>
      </trkpt>
      <trkpt lat="44.95884" lon="6.1015">
        <ele>1955.8</ele>
        <time>2024-08-14T11:45:15Z</time>
      </trkpt>
      <trkpt lat="44.95884" lon="6.1015">
        <ele>1955.8</ele>
        <time>2024-08-14T11:45:16Z</time>
      </trkpt>
      <trkpt lat="44.95883" lon="6.10147">
        <ele>1955.6</ele>
        <time>2024-08-14T11:45:17Z</time>
      </trkpt>
      <trkpt lat="44.95883" lon="6.10147">
        <ele>1955.6</ele>
        <time>2024-08-14T11:45:18Z</time>
      </trkpt>
      <trkpt lat="44.95884" lon="6.10144">
        <ele>1955.2</ele>
        <time>2024-08-14T11:45:19Z</time>
      </trkpt>
      <trkpt lat="44.95884" lon="6.10144">
        <ele>1954.8</ele>
        <time>2024-08-14T11:45:20Z</time>
      </trkpt>
      <trkpt lat="44.95883" lon="6.10141">
        <ele>1954.6</ele>
        <time>2024-08-14T11:45:21Z</time>
      </trkpt>
      <trkpt lat="44.95883" lon="6.10141">
        <ele>1954.2</ele>
        <time>2024-08-14T11:45:22Z</time>
      </trkpt>
      <trkpt lat="44.95883" lon="6.10139">
        <ele>1953.8</ele>
        <time>2024-08-14T11:45:23Z</time>
      </trkpt>
      <trkpt lat="44.95883" lon="6.10139">
        <ele>1953.2</ele>
        <time>2024-08-14T11:45:24Z</time>
      </trkpt>
      <trkpt lat="44.95883" lon="6.10139">
        <ele>1952.8</ele>
        <time>2024-08-14T11:45:25Z</time>
      </trkpt>
      <trkpt lat="44.95881" lon="6.10136">
        <ele>1952.8</ele>
        <time>2024-08-14T11:45:26Z</time>
      </trkpt>
      <trkpt lat="44.95881" lon="6.10136">
        <ele>1952.8</ele>
        <time>2024-08-14T11:45:27Z</time>
      </trkpt>
      <trkpt lat="44.95881" lon="6.10136">
        <ele>1952.4</ele>
        <time>2024-08-14T11:45:28Z</time>
      </trkpt>
      <trkpt lat="44.95881" lon="6.10136">
        <ele>1952.2</ele>
        <time>2024-08-14T11:45:29Z</time>
      </trkpt>
      <trkpt lat="44.95884" lon="6.10136">
        <ele>1951.6</ele>
        <time>2024-08-14T11:45:30Z</time>
      </trkpt>
      <trkpt lat="44.95884" lon="6.10136">
        <ele>1951.4</ele>
        <time>2024-08-14T11:45:31Z</time>
      </trkpt>
      <trkpt lat="44.95885" lon="6.10137">
        <ele>1951.2</ele>
        <time>2024-08-14T11:45:32Z</time>
      </trkpt>
      <trkpt lat="44.95885" lon="6.10137">
        <ele>1950.8</ele>
        <time>2024-08-14T11:45:33Z</time>
      </trkpt>
      <trkpt lat="44.95885" lon="6.10137">
        <ele>1950</ele>
        <time>2024-08-14T11:45:34Z</time>
      </trkpt>
      <trkpt lat="44.95888" lon="6.10139">
        <ele>1949.8</ele>
        <time>2024-08-14T11:45:35Z</time>
      </trkpt>
      <trkpt lat="44.95888" lon="6.10139">
        <ele>1949.2</ele>
        <time>2024-08-14T11:45:36Z</time>
      </trkpt>
      <trkpt lat="44.95889" lon="6.10141">
        <ele>1949</ele>
        <time>2024-08-14T11:45:37Z</time>
      </trkpt>
      <trkpt lat="44.95889" lon="6.10141">
        <ele>1948.6</ele>
        <time>2024-08-14T11:45:38Z</time>
      </trkpt>
      <trkpt lat="44.95891" lon="6.10143">
        <ele>1948.2</ele>
        <time>2024-08-14T11:45:39Z</time>
      </trkpt>
      <trkpt lat="44.95891" lon="6.10143">
        <ele>1948</ele>
        <time>2024-08-14T11:45:40Z</time>
      </trkpt>
      <trkpt lat="44.95891" lon="6.10143">
        <ele>1947.8</ele>
        <time>2024-08-14T11:45:41Z</time>
      </trkpt>
      <trkpt lat="44.95891" lon="6.10143">
        <ele>1947.4</ele>
        <time>2024-08-14T11:45:42Z</time>
      </trkpt>
      <trkpt lat="44.95891" lon="6.10143">
        <ele>1946.8</ele>
        <time>2024-08-14T11:45:43Z</time>
      </trkpt>
      <trkpt lat="44.95891" lon="6.10143">
        <ele>1946.8</ele>
        <time>2024-08-14T11:45:44Z</time>
      </trkpt>
      <trkpt lat="44.95892" lon="6.1014">
        <ele>1946.8</ele>
        <time>2024-08-14T11:45:45Z</time>
      </trkpt>
      <trkpt lat="44.95892" lon="6.1014">
        <ele>1946.6</ele>
        <time>2024-08-14T11:45:46Z</time>
      </trkpt>
      <trkpt lat="44.95891" lon="6.10136">
        <ele>1946.2</ele>
        <time>2024-08-14T11:45:47Z</time>
      </trkpt>
      <trkpt lat="44.95891" lon="6.10136">
        <ele>1946</ele>
        <time>2024-08-14T11:45:48Z</time>
      </trkpt>
      <trkpt lat="44.95891" lon="6.10136">
        <ele>1945.8</ele>
        <time>2024-08-14T11:45:49Z</time>
      </trkpt>
      <trkpt lat="44.95891" lon="6.10133">
        <ele>1945.2</ele>
        <time>2024-08-14T11:45:50Z</time>
      </trkpt>
      <trkpt lat="44.95891" lon="6.10133">
        <ele>1945</ele>
        <time>2024-08-14T11:45:51Z</time>
      </trkpt>
      <trkpt lat="44.95889" lon="6.10131">
        <ele>1944.8</ele>
        <time>2024-08-14T11:45:52Z</time>
      </trkpt>
      <trkpt lat="44.95889" lon="6.10131">
        <ele>1944.2</ele>
        <time>2024-08-14T11:45:53Z</time>
      </trkpt>
      <trkpt lat="44.95887" lon="6.10129">
        <ele>1943.8</ele>
        <time>2024-08-14T11:45:54Z</time>
      </trkpt>
      <trkpt lat="44.95887" lon="6.10129">
        <ele>1943.8</ele>
        <time>2024-08-14T11:45:55Z</time>
      </trkpt>
      <trkpt lat="44.95885" lon="6.10127">
        <ele>1943.8</ele>
        <time>2024-08-14T11:45:56Z</time>
      </trkpt>
      <trkpt lat="44.95885" lon="6.10127">
        <ele>1943.6</ele>
        <time>2024-08-14T11:45:57Z</time>
      </trkpt>
      <trkpt lat="44.95884" lon="6.10125">
        <ele>1943.6</ele>
        <time>2024-08-14T11:45:58Z</time>
      </trkpt>
      <trkpt lat="44.95884" lon="6.10125">
        <ele>1943.4</ele>
        <time>2024-08-14T11:45:59Z</time>
      </trkpt>
      <trkpt lat="44.95884" lon="6.10125">
        <ele>1943.4</ele>
        <time>2024-08-14T11:46:00Z</time>
      </trkpt>
      <trkpt lat="44.95884" lon="6.10125">
        <ele>1943</ele>
        <time>2024-08-14T11:46:01Z</time>
      </trkpt>
      <trkpt lat="44.95883" lon="6.10122">
        <ele>1942.8</ele>
        <time>2024-08-14T11:46:02Z</time>
      </trkpt>
      <trkpt lat="44.95883" lon="6.10122">
        <ele>1942.8</ele>
        <time>2024-08-14T11:46:03Z</time>
      </trkpt>
      <trkpt lat="44.95883" lon="6.10122">
        <ele>1942.4</ele>
        <time>2024-08-14T11:46:04Z</time>
      </trkpt>
      <trkpt lat="44.95885" lon="6.10121">
        <ele>1942.2</ele>
        <time>2024-08-14T11:46:05Z</time>
      </trkpt>
      <trkpt lat="44.95885" lon="6.10121">
        <ele>1941.8</ele>
        <time>2024-08-14T11:46:06Z</time>
      </trkpt>
      <trkpt lat="44.95885" lon="6.10121">
        <ele>1941.4</ele>
        <time>2024-08-14T11:46:07Z</time>
      </trkpt>
      <trkpt lat="44.95887" lon="6.10121">
        <ele>1941</ele>
        <time>2024-08-14T11:46:08Z</time>
      </trkpt>
      <trkpt lat="44.95887" lon="6.10121">
        <ele>1940.6</ele>
        <time>2024-08-14T11:46:09Z</time>
      </trkpt>
      <trkpt lat="44.95887" lon="6.10121">
        <ele>1940.2</ele>
        <time>2024-08-14T11:46:10Z</time>
      </trkpt>
      <trkpt lat="44.95889" lon="6.10122">
        <ele>1940</ele>
        <time>2024-08-14T11:46:11Z</time>
      </trkpt>
      <trkpt lat="44.95889" lon="6.10122">
        <ele>1939.8</ele>
        <time>2024-08-14T11:46:12Z</time>
      </trkpt>
      <trkpt lat="44.95891" lon="6.10122">
        <ele>1939.6</ele>
        <time>2024-08-14T11:46:13Z</time>
      </trkpt>
      <trkpt lat="44.95891" lon="6.10122">
        <ele>1939.2</ele>
        <time>2024-08-14T11:46:14Z</time>
      </trkpt>
      <trkpt lat="44.95891" lon="6.10122">
        <ele>1938.8</ele>
        <time>2024-08-14T11:46:15Z</time>
      </trkpt>
      <trkpt lat="44.95891" lon="6.10122">
        <ele>1938.6</ele>
        <time>2024-08-14T11:46:16Z</time>
      </trkpt>
      <trkpt lat="44.95891" lon="6.10122">
        <ele>1938.4</ele>
        <time>2024-08-14T11:46:17Z</time>
      </trkpt>
      <trkpt lat="44.95889" lon="6.10118">
        <ele>1938.2</ele>
        <time>2024-08-14T11:46:18Z</time>
      </trkpt>
      <trkpt lat="44.95889" lon="6.10118">
        <ele>1937.8</ele>
        <time>2024-08-14T11:46:19Z</time>
      </trkpt>
      <trkpt lat="44.95887" lon="6.10115">
        <ele>1937.8</ele>
        <time>2024-08-14T11:46:20Z</time>
      </trkpt>
      <trkpt lat="44.95887" lon="6.10115">
        <ele>1937.8</ele>
        <time>2024-08-14T11:46:21Z</time>
      </trkpt>
      <trkpt lat="44.95886" lon="6.10111">
        <ele>1937</ele>
        <time>2024-08-14T11:46:22Z</time>
      </trkpt>
      <trkpt lat="44.95886" lon="6.10111">
        <ele>1936.8</ele>
        <time>2024-08-14T11:46:23Z</time>
      </trkpt>
      <trkpt lat="44.95885" lon="6.10107">
        <ele>1936.8</ele>
        <time>2024-08-14T11:46:24Z</time>
      </trkpt>
      <trkpt lat="44.95885" lon="6.10107">
        <ele>1936.6</ele>
        <time>2024-08-14T11:46:25Z</time>
      </trkpt>
      <trkpt lat="44.95885" lon="6.10104">
        <ele>1936.4</ele>
        <time>2024-08-14T11:46:26Z</time>
      </trkpt>
      <trkpt lat="44.95885" lon="6.10104">
        <ele>1936.2</ele>
        <time>2024-08-14T11:46:27Z</time>
      </trkpt>
      <trkpt lat="44.95885" lon="6.101">
        <ele>1935.8</ele>
        <time>2024-08-14T11:46:28Z</time>
      </trkpt>
      <trkpt lat="44.95885" lon="6.101">
        <ele>1935.2</ele>
        <time>2024-08-14T11:46:29Z</time>
      </trkpt>
      <trkpt lat="44.95885" lon="6.10098">
        <ele>1934.8</ele>
        <time>2024-08-14T11:46:30Z</time>
      </trkpt>
      <trkpt lat="44.95885" lon="6.10098">
        <ele>1934.6</ele>
        <time>2024-08-14T11:46:31Z</time>
      </trkpt>
      <trkpt lat="44.95885" lon="6.10098">
        <ele>1934.2</ele>
        <time>2024-08-14T11:46:32Z</time>
      </trkpt>
      <trkpt lat="44.95885" lon="6.10094">
        <ele>1933.6</ele>
        <time>2024-08-14T11:46:33Z</time>
      </trkpt>
      <trkpt lat="44.95885" lon="6.10094">
        <ele>1933.4</ele>
        <time>2024-08-14T11:46:34Z</time>
      </trkpt>
      <trkpt lat="44.95885" lon="6.10094">
        <ele>1933.2</ele>
        <time>2024-08-14T11:46:35Z</time>
      </trkpt>
      <trkpt lat="44.95885" lon="6.10091">
        <ele>1932.8</ele>
        <time>2024-08-14T11:46:36Z</time>
      </trkpt>
      <trkpt lat="44.95885" lon="6.10091">
        <ele>1932.6</ele>
        <time>2024-08-14T11:46:37Z</time>
      </trkpt>
      <trkpt lat="44.95885" lon="6.10091">
        <ele>1932.2</ele>
        <time>2024-08-14T11:46:38Z</time>
      </trkpt>
      <trkpt lat="44.95883" lon="6.10089">
        <ele>1931.6</ele>
        <time>2024-08-14T11:46:39Z</time>
      </trkpt>
      <trkpt lat="44.95883" lon="6.10089">
        <ele>1931.4</ele>
        <time>2024-08-14T11:46:40Z</time>
      </trkpt>
      <trkpt lat="44.95883" lon="6.10089">
        <ele>1931.2</ele>
        <time>2024-08-14T11:46:41Z</time>
      </trkpt>
      <trkpt lat="44.95883" lon="6.10089">
        <ele>1931.2</ele>
        <time>2024-08-14T11:46:42Z</time>
      </trkpt>
      <trkpt lat="44.95883" lon="6.10089">
        <ele>1931</ele>
        <time>2024-08-14T11:46:43Z</time>
      </trkpt>
      <trkpt lat="44.95883" lon="6.10089">
        <ele>1931</ele>
        <time>2024-08-14T11:46:44Z</time>
      </trkpt>
      <trkpt lat="44.95883" lon="6.10089">
        <ele>1930.6</ele>
        <time>2024-08-14T11:46:45Z</time>
      </trkpt>
      <trkpt lat="44.95883" lon="6.10089">
        <ele>1930.4</ele>
        <time>2024-08-14T11:46:46Z</time>
      </trkpt>
      <trkpt lat="44.95883" lon="6.10089">
        <ele>1930.4</ele>
        <time>2024-08-14T11:46:47Z</time>
      </trkpt>
      <trkpt lat="44.95883" lon="6.10089">
        <ele>1930.2</ele>
        <time>2024-08-14T11:46:48Z</time>
      </trkpt>
      <trkpt lat="44.95883" lon="6.10089">
        <ele>1929.8</ele>
        <time>2024-08-14T11:46:49Z</time>
      </trkpt>
      <trkpt lat="44.95885" lon="6.10086">
        <ele>1929.4</ele>
        <time>2024-08-14T11:46:50Z</time>
      </trkpt>
      <trkpt lat="44.95885" lon="6.10086">
        <ele>1929.2</ele>
        <time>2024-08-14T11:46:51Z</time>
      </trkpt>
      <trkpt lat="44.95887" lon="6.10087">
        <ele>1928.8</ele>
        <time>2024-08-14T11:46:52Z</time>
      </trkpt>
      <trkpt lat="44.95887" lon="6.10087">
        <ele>1928.4</ele>
        <time>2024-08-14T11:46:53Z</time>
      </trkpt>
      <trkpt lat="44.95889" lon="6.10089">
        <ele>1928.2</ele>
        <time>2024-08-14T11:46:54Z</time>
      </trkpt>
      <trkpt lat="44.95889" lon="6.10089">
        <ele>1928</ele>
        <time>2024-08-14T11:46:55Z</time>
      </trkpt>
      <trkpt lat="44.95889" lon="6.10089">
        <ele>1927.6</ele>
        <time>2024-08-14T11:46:56Z</time>
      </trkpt>
      <trkpt lat="44.9589" lon="6.10093">
        <ele>1927.4</ele>
        <time>2024-08-14T11:46:57Z</time>
      </trkpt>
      <trkpt lat="44.9589" lon="6.10093">
        <ele>1927</ele>
        <time>2024-08-14T11:46:58Z</time>
      </trkpt>
      <trkpt lat="44.9589" lon="6.10093">
        <ele>1926.6</ele>
        <time>2024-08-14T11:46:59Z</time>
      </trkpt>
      <trkpt lat="44.95892" lon="6.10094">
        <ele>1926.4</ele>
        <time>2024-08-14T11:47:00Z</time>
      </trkpt>
      <trkpt lat="44.95892" lon="6.10094">
        <ele>1926.4</ele>
        <time>2024-08-14T11:47:01Z</time>
      </trkpt>
      <trkpt lat="44.95892" lon="6.10094">
        <ele>1926.2</ele>
        <time>2024-08-14T11:47:02Z</time>
      </trkpt>
      <trkpt lat="44.95892" lon="6.10094">
        <ele>1926.2</ele>
        <time>2024-08-14T11:47:03Z</time>
      </trkpt>
      <trkpt lat="44.95892" lon="6.10091">
        <ele>1926</ele>
        <time>2024-08-14T11:47:04Z</time>
      </trkpt>
      <trkpt lat="44.95892" lon="6.10091">
        <ele>1925.4</ele>
        <time>2024-08-14T11:47:05Z</time>
      </trkpt>
      <trkpt lat="44.95892" lon="6.10091">
        <ele>1925</ele>
        <time>2024-08-14T11:47:06Z</time>
      </trkpt>
      <trkpt lat="44.95893" lon="6.10088">
        <ele>1924.8</ele>
        <time>2024-08-14T11:47:07Z</time>
      </trkpt>
      <trkpt lat="44.95893" lon="6.10088">
        <ele>1924.6</ele>
        <time>2024-08-14T11:47:08Z</time>
      </trkpt>
      <trkpt lat="44.95893" lon="6.10088">
        <ele>1924.4</ele>
        <time>2024-08-14T11:47:09Z</time>
      </trkpt>
      <trkpt lat="44.95893" lon="6.10088">
        <ele>1924.2</ele>
        <time>2024-08-14T11:47:10Z</time>
      </trkpt>
      <trkpt lat="44.95893" lon="6.10088">
        <ele>1923.6</ele>
        <time>2024-08-14T11:47:11Z</time>
      </trkpt>
      <trkpt lat="44.95893" lon="6.10088">
        <ele>1923.6</ele>
        <time>2024-08-14T11:47:12Z</time>
      </trkpt>
      <trkpt lat="44.95893" lon="6.10088">
        <ele>1923.4</ele>
        <time>2024-08-14T11:47:13Z</time>
      </trkpt>
      <trkpt lat="44.95893" lon="6.10085">
        <ele>1922.8</ele>
        <time>2024-08-14T11:47:14Z</time>
      </trkpt>
      <trkpt lat="44.95893" lon="6.10085">
        <ele>1922.8</ele>
        <time>2024-08-14T11:47:15Z</time>
      </trkpt>
      <trkpt lat="44.95895" lon="6.10083">
        <ele>1922.6</ele>
        <time>2024-08-14T11:47:16Z</time>
      </trkpt>
      <trkpt lat="44.95895" lon="6.10083">
        <ele>1922.2</ele>
        <time>2024-08-14T11:47:17Z</time>
      </trkpt>
      <trkpt lat="44.95897" lon="6.10084">
        <ele>1921.6</ele>
        <time>2024-08-14T11:47:18Z</time>
      </trkpt>
      <trkpt lat="44.95897" lon="6.10084">
        <ele>1921</ele>
        <time>2024-08-14T11:47:19Z</time>
      </trkpt>
      <trkpt lat="44.95899" lon="6.10084">
        <ele>1920.6</ele>
        <time>2024-08-14T11:47:20Z</time>
      </trkpt>
      <trkpt lat="44.95899" lon="6.10084">
        <ele>1920.6</ele>
        <time>2024-08-14T11:47:21Z</time>
      </trkpt>
      <trkpt lat="44.959" lon="6.10082">
        <ele>1920.4</ele>
        <time>2024-08-14T11:47:22Z</time>
      </trkpt>
      <trkpt lat="44.959" lon="6.10082">
        <ele>1920</ele>
        <time>2024-08-14T11:47:23Z</time>
      </trkpt>
      <trkpt lat="44.959" lon="6.10082">
        <ele>1920</ele>
        <time>2024-08-14T11:47:24Z</time>
      </trkpt>
      <trkpt lat="44.959" lon="6.10078">
        <ele>1919.8</ele>
        <time>2024-08-14T11:47:25Z</time>
      </trkpt>
      <trkpt lat="44.959" lon="6.10078">
        <ele>1919.4</ele>
        <time>2024-08-14T11:47:26Z</time>
      </trkpt>
      <trkpt lat="44.959" lon="6.10075">
        <ele>1918.6</ele>
        <time>2024-08-14T11:47:27Z</time>
      </trkpt>
      <trkpt lat="44.959" lon="6.10075">
        <ele>1918.6</ele>
        <time>2024-08-14T11:47:28Z</time>
      </trkpt>
      <trkpt lat="44.959" lon="6.10075">
        <ele>1918.4</ele>
        <time>2024-08-14T11:47:29Z</time>
      </trkpt>
      <trkpt lat="44.95899" lon="6.10073">
        <ele>1918</ele>
        <time>2024-08-14T11:47:30Z</time>
      </trkpt>
      <trkpt lat="44.95899" lon="6.10073">
        <ele>1917.6</ele>
        <time>2024-08-14T11:47:31Z</time>
      </trkpt>
      <trkpt lat="44.95897" lon="6.10071">
        <ele>1917.4</ele>
        <time>2024-08-14T11:47:32Z</time>
      </trkpt>
      <trkpt lat="44.95897" lon="6.10071">
        <ele>1916.8</ele>
        <time>2024-08-14T11:47:33Z</time>
      </trkpt>
      <trkpt lat="44.95895" lon="6.1007">
        <ele>1916.6</ele>
        <time>2024-08-14T11:47:34Z</time>
      </trkpt>
      <trkpt lat="44.95895" lon="6.1007">
        <ele>1916.6</ele>
        <time>2024-08-14T11:47:35Z</time>
      </trkpt>
      <trkpt lat="44.95895" lon="6.1007">
        <ele>1916.6</ele>
        <time>2024-08-14T11:47:36Z</time>
      </trkpt>
      <trkpt lat="44.95893" lon="6.10068">
        <ele>1916.2</ele>
        <time>2024-08-14T11:47:37Z</time>
      </trkpt>
      <trkpt lat="44.95893" lon="6.10068">
        <ele>1915.8</ele>
        <time>2024-08-14T11:47:38Z</time>
      </trkpt>
      <trkpt lat="44.95893" lon="6.10068">
        <ele>1915.8</ele>
        <time>2024-08-14T11:47:39Z</time>
      </trkpt>
      <trkpt lat="44.95894" lon="6.10065">
        <ele>1915.6</ele>
        <time>2024-08-14T11:47:40Z</time>
      </trkpt>
      <trkpt lat="44.95894" lon="6.10065">
        <ele>1915.6</ele>
        <time>2024-08-14T11:47:41Z</time>
      </trkpt>
      <trkpt lat="44.95897" lon="6.10066">
        <ele>1915.2</ele>
        <time>2024-08-14T11:47:42Z</time>
      </trkpt>
      <trkpt lat="44.95897" lon="6.10066">
        <ele>1914.8</ele>
        <time>2024-08-14T11:47:43Z</time>
      </trkpt>
      <trkpt lat="44.95898" lon="6.10068">
        <ele>1914.2</ele>
        <time>2024-08-14T11:47:44Z</time>
      </trkpt>
      <trkpt lat="44.95898" lon="6.10068">
        <ele>1913.8</ele>
        <time>2024-08-14T11:47:45Z</time>
      </trkpt>
      <trkpt lat="44.95898" lon="6.10068">
        <ele>1913.4</ele>
        <time>2024-08-14T11:47:46Z</time>
      </trkpt>
      <trkpt lat="44.95898" lon="6.10068">
        <ele>1913</ele>
        <time>2024-08-14T11:47:47Z</time>
      </trkpt>
      <trkpt lat="44.95898" lon="6.10068">
        <ele>1913</ele>
        <time>2024-08-14T11:47:48Z</time>
      </trkpt>
      <trkpt lat="44.95898" lon="6.10068">
        <ele>1912.6</ele>
        <time>2024-08-14T11:47:49Z</time>
      </trkpt>
      <trkpt lat="44.959" lon="6.10067">
        <ele>1912.6</ele>
        <time>2024-08-14T11:47:50Z</time>
      </trkpt>
      <trkpt lat="44.959" lon="6.10067">
        <ele>1912.2</ele>
        <time>2024-08-14T11:47:51Z</time>
      </trkpt>
      <trkpt lat="44.959" lon="6.10064">
        <ele>1911.8</ele>
        <time>2024-08-14T11:47:52Z</time>
      </trkpt>
      <trkpt lat="44.959" lon="6.10064">
        <ele>1911.4</ele>
        <time>2024-08-14T11:47:53Z</time>
      </trkpt>
      <trkpt lat="44.95899" lon="6.1006">
        <ele>1911</ele>
        <time>2024-08-14T11:47:54Z</time>
      </trkpt>
      <trkpt lat="44.95899" lon="6.1006">
        <ele>1910.6</ele>
        <time>2024-08-14T11:47:55Z</time>
      </trkpt>
      <trkpt lat="44.95896" lon="6.10057">
        <ele>1910.6</ele>
        <time>2024-08-14T11:47:56Z</time>
      </trkpt>
      <trkpt lat="44.95896" lon="6.10057">
        <ele>1910.4</ele>
        <time>2024-08-14T11:47:57Z</time>
      </trkpt>
      <trkpt lat="44.95895" lon="6.10054">
        <ele>1910.2</ele>
        <time>2024-08-14T11:47:58Z</time>
      </trkpt>
      <trkpt lat="44.95895" lon="6.10054">
        <ele>1909.6</ele>
        <time>2024-08-14T11:47:59Z</time>
      </trkpt>
      <trkpt lat="44.95895" lon="6.10052">
        <ele>1909.4</ele>
        <time>2024-08-14T11:48:00Z</time>
      </trkpt>
      <trkpt lat="44.95895" lon="6.10052">
        <ele>1909.4</ele>
        <time>2024-08-14T11:48:01Z</time>
      </trkpt>
      <trkpt lat="44.95898" lon="6.10051">
        <ele>1909.2</ele>
        <time>2024-08-14T11:48:02Z</time>
      </trkpt>
      <trkpt lat="44.95898" lon="6.10051">
        <ele>1909.2</ele>
        <time>2024-08-14T11:48:03Z</time>
      </trkpt>
      <trkpt lat="44.95899" lon="6.10053">
        <ele>1909</ele>
        <time>2024-08-14T11:48:04Z</time>
      </trkpt>
      <trkpt lat="44.95899" lon="6.10053">
        <ele>1908.8</ele>
        <time>2024-08-14T11:48:05Z</time>
      </trkpt>
      <trkpt lat="44.95901" lon="6.10054">
        <ele>1908.4</ele>
        <time>2024-08-14T11:48:06Z</time>
      </trkpt>
      <trkpt lat="44.95901" lon="6.10054">
        <ele>1908.2</ele>
        <time>2024-08-14T11:48:07Z</time>
      </trkpt>
      <trkpt lat="44.95903" lon="6.10056">
        <ele>1908</ele>
        <time>2024-08-14T11:48:08Z</time>
      </trkpt>
      <trkpt lat="44.95903" lon="6.10056">
        <ele>1908</ele>
        <time>2024-08-14T11:48:09Z</time>
      </trkpt>
      <trkpt lat="44.95905" lon="6.10057">
        <ele>1907.8</ele>
        <time>2024-08-14T11:48:10Z</time>
      </trkpt>
      <trkpt lat="44.95905" lon="6.10057">
        <ele>1907.4</ele>
        <time>2024-08-14T11:48:11Z</time>
      </trkpt>
      <trkpt lat="44.95907" lon="6.10058">
        <ele>1907.2</ele>
        <time>2024-08-14T11:48:12Z</time>
      </trkpt>
      <trkpt lat="44.95907" lon="6.10058">
        <ele>1906.8</ele>
        <time>2024-08-14T11:48:13Z</time>
      </trkpt>
      <trkpt lat="44.95909" lon="6.10057">
        <ele>1906.4</ele>
        <time>2024-08-14T11:48:14Z</time>
      </trkpt>
      <trkpt lat="44.95909" lon="6.10057">
        <ele>1906.2</ele>
        <time>2024-08-14T11:48:15Z</time>
      </trkpt>
      <trkpt lat="44.95909" lon="6.10057">
        <ele>1906</ele>
        <time>2024-08-14T11:48:16Z</time>
      </trkpt>
      <trkpt lat="44.95909" lon="6.10053">
        <ele>1905.8</ele>
        <time>2024-08-14T11:48:17Z</time>
      </trkpt>
      <trkpt lat="44.95909" lon="6.10053">
        <ele>1905.6</ele>
        <time>2024-08-14T11:48:18Z</time>
      </trkpt>
      <trkpt lat="44.95909" lon="6.10053">
        <ele>1905</ele>
        <time>2024-08-14T11:48:19Z</time>
      </trkpt>
      <trkpt lat="44.95909" lon="6.1005">
        <ele>1904.4</ele>
        <time>2024-08-14T11:48:20Z</time>
      </trkpt>
      <trkpt lat="44.95909" lon="6.1005">
        <ele>1904.2</ele>
        <time>2024-08-14T11:48:21Z</time>
      </trkpt>
      <trkpt lat="44.95909" lon="6.10047">
        <ele>1904</ele>
        <time>2024-08-14T11:48:22Z</time>
      </trkpt>
      <trkpt lat="44.95909" lon="6.10047">
        <ele>1903.6</ele>
        <time>2024-08-14T11:48:23Z</time>
      </trkpt>
      <trkpt lat="44.95909" lon="6.10044">
        <ele>1903.4</ele>
        <time>2024-08-14T11:48:24Z</time>
      </trkpt>
      <trkpt lat="44.95909" lon="6.10044">
        <ele>1903.2</ele>
        <time>2024-08-14T11:48:25Z</time>
      </trkpt>
      <trkpt lat="44.95908" lon="6.1004">
        <ele>1902.4</ele>
        <time>2024-08-14T11:48:26Z</time>
      </trkpt>
      <trkpt lat="44.95908" lon="6.1004">
        <ele>1901.8</ele>
        <time>2024-08-14T11:48:27Z</time>
      </trkpt>
      <trkpt lat="44.95907" lon="6.10038">
        <ele>1901.6</ele>
        <time>2024-08-14T11:48:28Z</time>
      </trkpt>
      <trkpt lat="44.95907" lon="6.10038">
        <ele>1901.4</ele>
        <time>2024-08-14T11:48:29Z</time>
      </trkpt>
      <trkpt lat="44.95907" lon="6.10035">
        <ele>1901.2</ele>
        <time>2024-08-14T11:48:30Z</time>
      </trkpt>
      <trkpt lat="44.95907" lon="6.10035">
        <ele>1901.2</ele>
        <time>2024-08-14T11:48:31Z</time>
      </trkpt>
      <trkpt lat="44.95907" lon="6.10035">
        <ele>1900.8</ele>
        <time>2024-08-14T11:48:32Z</time>
      </trkpt>
      <trkpt lat="44.95907" lon="6.10031">
        <ele>1900.4</ele>
        <time>2024-08-14T11:48:33Z</time>
      </trkpt>
      <trkpt lat="44.95907" lon="6.10031">
        <ele>1900</ele>
        <time>2024-08-14T11:48:34Z</time>
      </trkpt>
      <trkpt lat="44.95907" lon="6.10031">
        <ele>1899.8</ele>
        <time>2024-08-14T11:48:35Z</time>
      </trkpt>
      <trkpt lat="44.95909" lon="6.1003">
        <ele>1899.6</ele>
        <time>2024-08-14T11:48:36Z</time>
      </trkpt>
      <trkpt lat="44.95909" lon="6.1003">
        <ele>1899.2</ele>
        <time>2024-08-14T11:48:37Z</time>
      </trkpt>
      <trkpt lat="44.9591" lon="6.10032">
        <ele>1899</ele>
        <time>2024-08-14T11:48:38Z</time>
      </trkpt>
      <trkpt lat="44.9591" lon="6.10032">
        <ele>1898.8</ele>
        <time>2024-08-14T11:48:39Z</time>
      </trkpt>
      <trkpt lat="44.95912" lon="6.10033">
        <ele>1898.6</ele>
        <time>2024-08-14T11:48:40Z</time>
      </trkpt>
      <trkpt lat="44.95912" lon="6.10033">
        <ele>1898.2</ele>
        <time>2024-08-14T11:48:41Z</time>
      </trkpt>
      <trkpt lat="44.95914" lon="6.10035">
        <ele>1897.8</ele>
        <time>2024-08-14T11:48:42Z</time>
      </trkpt>
      <trkpt lat="44.95914" lon="6.10035">
        <ele>1897.6</ele>
        <time>2024-08-14T11:48:43Z</time>
      </trkpt>
      <trkpt lat="44.95915" lon="6.10038">
        <ele>1897</ele>
        <time>2024-08-14T11:48:44Z</time>
      </trkpt>
      <trkpt lat="44.95915" lon="6.10038">
        <ele>1896.6</ele>
        <time>2024-08-14T11:48:45Z</time>
      </trkpt>
      <trkpt lat="44.95915" lon="6.10038">
        <ele>1896.2</ele>
        <time>2024-08-14T11:48:46Z</time>
      </trkpt>
      <trkpt lat="44.95915" lon="6.10038">
        <ele>1895.6</ele>
        <time>2024-08-14T11:48:47Z</time>
      </trkpt>
      <trkpt lat="44.95915" lon="6.10034">
        <ele>1895.2</ele>
        <time>2024-08-14T11:48:48Z</time>
      </trkpt>
      <trkpt lat="44.95915" lon="6.10034">
        <ele>1895</ele>
        <time>2024-08-14T11:48:49Z</time>
      </trkpt>
      <trkpt lat="44.95917" lon="6.10033">
        <ele>1895</ele>
        <time>2024-08-14T11:48:50Z</time>
      </trkpt>
      <trkpt lat="44.95917" lon="6.10033">
        <ele>1894.6</ele>
        <time>2024-08-14T11:48:51Z</time>
      </trkpt>
      <trkpt lat="44.95919" lon="6.10033">
        <ele>1894.6</ele>
        <time>2024-08-14T11:48:52Z</time>
      </trkpt>
      <trkpt lat="44.95919" lon="6.10033">
        <ele>1894.2</ele>
        <time>2024-08-14T11:48:53Z</time>
      </trkpt>
      <trkpt lat="44.95919" lon="6.10033">
        <ele>1893.8</ele>
        <time>2024-08-14T11:48:54Z</time>
      </trkpt>
      <trkpt lat="44.95921" lon="6.10031">
        <ele>1893.2</ele>
        <time>2024-08-14T11:48:55Z</time>
      </trkpt>
      <trkpt lat="44.95921" lon="6.10031">
        <ele>1893</ele>
        <time>2024-08-14T11:48:56Z</time>
      </trkpt>
      <trkpt lat="44.95923" lon="6.10029">
        <ele>1892.6</ele>
        <time>2024-08-14T11:48:57Z</time>
      </trkpt>
      <trkpt lat="44.95923" lon="6.10029">
        <ele>1892.2</ele>
        <time>2024-08-14T11:48:58Z</time>
      </trkpt>
      <trkpt lat="44.95924" lon="6.10031">
        <ele>1892.2</ele>
        <time>2024-08-14T11:48:59Z</time>
      </trkpt>
      <trkpt lat="44.95924" lon="6.10031">
        <ele>1891.8</ele>
        <time>2024-08-14T11:49:00Z</time>
      </trkpt>
      <trkpt lat="44.95926" lon="6.10032">
        <ele>1891.4</ele>
        <time>2024-08-14T11:49:01Z</time>
      </trkpt>
      <trkpt lat="44.95926" lon="6.10032">
        <ele>1890.8</ele>
        <time>2024-08-14T11:49:02Z</time>
      </trkpt>
      <trkpt lat="44.95926" lon="6.10032">
        <ele>1890.8</ele>
        <time>2024-08-14T11:49:03Z</time>
      </trkpt>
      <trkpt lat="44.95927" lon="6.10031">
        <ele>1890.6</ele>
        <time>2024-08-14T11:49:04Z</time>
      </trkpt>
      <trkpt lat="44.95927" lon="6.10031">
        <ele>1890.4</ele>
        <time>2024-08-14T11:49:05Z</time>
      </trkpt>
      <trkpt lat="44.95927" lon="6.10031">
        <ele>1889.8</ele>
        <time>2024-08-14T11:49:06Z</time>
      </trkpt>
      <trkpt lat="44.95927" lon="6.10027">
        <ele>1889.6</ele>
        <time>2024-08-14T11:49:07Z</time>
      </trkpt>
      <trkpt lat="44.95927" lon="6.10027">
        <ele>1889.2</ele>
        <time>2024-08-14T11:49:08Z</time>
      </trkpt>
      <trkpt lat="44.95927" lon="6.10024">
        <ele>1888.8</ele>
        <time>2024-08-14T11:49:09Z</time>
      </trkpt>
      <trkpt lat="44.95927" lon="6.10024">
        <ele>1888.6</ele>
        <time>2024-08-14T11:49:10Z</time>
      </trkpt>
      <trkpt lat="44.95927" lon="6.10024">
        <ele>1888.2</ele>
        <time>2024-08-14T11:49:11Z</time>
      </trkpt>
      <trkpt lat="44.95928" lon="6.10021">
        <ele>1887.6</ele>
        <time>2024-08-14T11:49:12Z</time>
      </trkpt>
      <trkpt lat="44.95928" lon="6.10021">
        <ele>1887.4</ele>
        <time>2024-08-14T11:49:13Z</time>
      </trkpt>
      <trkpt lat="44.95928" lon="6.10021">
        <ele>1887.2</ele>
        <time>2024-08-14T11:49:14Z</time>
      </trkpt>
      <trkpt lat="44.95928" lon="6.10018">
        <ele>1886.8</ele>
        <time>2024-08-14T11:49:15Z</time>
      </trkpt>
      <trkpt lat="44.95928" lon="6.10018">
        <ele>1886.6</ele>
        <time>2024-08-14T11:49:16Z</time>
      </trkpt>
      <trkpt lat="44.95927" lon="6.10015">
        <ele>1886</ele>
        <time>2024-08-14T11:49:17Z</time>
      </trkpt>
      <trkpt lat="44.95927" lon="6.10015">
        <ele>1885.8</ele>
        <time>2024-08-14T11:49:18Z</time>
      </trkpt>
      <trkpt lat="44.95927" lon="6.10015">
        <ele>1885.6</ele>
        <time>2024-08-14T11:49:19Z</time>
      </trkpt>
      <trkpt lat="44.95925" lon="6.10013">
        <ele>1885.2</ele>
        <time>2024-08-14T11:49:20Z</time>
      </trkpt>
      <trkpt lat="44.95925" lon="6.10013">
        <ele>1884.8</ele>
        <time>2024-08-14T11:49:21Z</time>
      </trkpt>
      <trkpt lat="44.95923" lon="6.10011">
        <ele>1884.8</ele>
        <time>2024-08-14T11:49:22Z</time>
      </trkpt>
      <trkpt lat="44.95923" lon="6.10011">
        <ele>1884.8</ele>
        <time>2024-08-14T11:49:23Z</time>
      </trkpt>
      <trkpt lat="44.95921" lon="6.10008">
        <ele>1884.4</ele>
        <time>2024-08-14T11:49:24Z</time>
      </trkpt>
      <trkpt lat="44.95921" lon="6.10008">
        <ele>1884.2</ele>
        <time>2024-08-14T11:49:25Z</time>
      </trkpt>
      <trkpt lat="44.95921" lon="6.10005">
        <ele>1884</ele>
        <time>2024-08-14T11:49:26Z</time>
      </trkpt>
      <trkpt lat="44.95921" lon="6.10005">
        <ele>1883.8</ele>
        <time>2024-08-14T11:49:27Z</time>
      </trkpt>
      <trkpt lat="44.9592" lon="6.10002">
        <ele>1883.8</ele>
        <time>2024-08-14T11:49:28Z</time>
      </trkpt>
      <trkpt lat="44.9592" lon="6.10002">
        <ele>1883.6</ele>
        <time>2024-08-14T11:49:29Z</time>
      </trkpt>
      <trkpt lat="44.9592" lon="6.09997">
        <ele>1883.2</ele>
        <time>2024-08-14T11:49:30Z</time>
      </trkpt>
      <trkpt lat="44.9592" lon="6.09997">
        <ele>1883</ele>
        <time>2024-08-14T11:49:31Z</time>
      </trkpt>
      <trkpt lat="44.95919" lon="6.09993">
        <ele>1882.8</ele>
        <time>2024-08-14T11:49:32Z</time>
      </trkpt>
      <trkpt lat="44.95919" lon="6.09993">
        <ele>1882.6</ele>
        <time>2024-08-14T11:49:33Z</time>
      </trkpt>
      <trkpt lat="44.95919" lon="6.0999">
        <ele>1882.6</ele>
        <time>2024-08-14T11:49:34Z</time>
      </trkpt>
      <trkpt lat="44.95919" lon="6.0999">
        <ele>1882.8</ele>
        <time>2024-08-14T11:49:35Z</time>
      </trkpt>
      <trkpt lat="44.95917" lon="6.09988">
        <ele>1883</ele>
        <time>2024-08-14T11:49:36Z</time>
      </trkpt>
      <trkpt lat="44.95917" lon="6.09988">
        <ele>1883</ele>
        <time>2024-08-14T11:49:37Z</time>
      </trkpt>
      <trkpt lat="44.95917" lon="6.09988">
        <ele>1882.8</ele>
        <time>2024-08-14T11:49:38Z</time>
      </trkpt>
      <trkpt lat="44.95917" lon="6.09988">
        <ele>1882.8</ele>
        <time>2024-08-14T11:49:39Z</time>
      </trkpt>
      <trkpt lat="44.95917" lon="6.09988">
        <ele>1882.6</ele>
        <time>2024-08-14T11:49:40Z</time>
      </trkpt>
      <trkpt lat="44.95916" lon="6.09986">
        <ele>1882.4</ele>
        <time>2024-08-14T11:49:41Z</time>
      </trkpt>
      <trkpt lat="44.95916" lon="6.09986">
        <ele>1882</ele>
        <time>2024-08-14T11:49:42Z</time>
      </trkpt>
      <trkpt lat="44.95916" lon="6.09986">
        <ele>1882</ele>
        <time>2024-08-14T11:49:43Z</time>
      </trkpt>
      <trkpt lat="44.95914" lon="6.09984">
        <ele>1881.8</ele>
        <time>2024-08-14T11:49:44Z</time>
      </trkpt>
      <trkpt lat="44.95914" lon="6.09984">
        <ele>1881.6</ele>
        <time>2024-08-14T11:49:45Z</time>
      </trkpt>
      <trkpt lat="44.95914" lon="6.09984">
        <ele>1881.6</ele>
        <time>2024-08-14T11:49:46Z</time>
      </trkpt>
      <trkpt lat="44.95914" lon="6.09984">
        <ele>1881.2</ele>
        <time>2024-08-14T11:49:47Z</time>
      </trkpt>
      <trkpt lat="44.95914" lon="6.09984">
        <ele>1880.8</ele>
        <time>2024-08-14T11:49:48Z</time>
      </trkpt>
      <trkpt lat="44.95914" lon="6.09984">
        <ele>1880.8</ele>
        <time>2024-08-14T11:49:49Z</time>
      </trkpt>
      <trkpt lat="44.95914" lon="6.09981">
        <ele>1880.4</ele>
        <time>2024-08-14T11:49:50Z</time>
      </trkpt>
      <trkpt lat="44.95914" lon="6.09981">
        <ele>1880.2</ele>
        <time>2024-08-14T11:49:51Z</time>
      </trkpt>
      <trkpt lat="44.95914" lon="6.09981">
        <ele>1880.2</ele>
        <time>2024-08-14T11:49:52Z</time>
      </trkpt>
      <trkpt lat="44.95913" lon="6.09978">
        <ele>1880.2</ele>
        <time>2024-08-14T11:49:53Z</time>
      </trkpt>
      <trkpt lat="44.95913" lon="6.09978">
        <ele>1879.6</ele>
        <time>2024-08-14T11:49:54Z</time>
      </trkpt>
      <trkpt lat="44.95913" lon="6.09975">
        <ele>1879.2</ele>
        <time>2024-08-14T11:49:55Z</time>
      </trkpt>
      <trkpt lat="44.95913" lon="6.09975">
        <ele>1879</ele>
        <time>2024-08-14T11:49:56Z</time>
      </trkpt>
      <trkpt lat="44.95913" lon="6.09972">
        <ele>1878.4</ele>
        <time>2024-08-14T11:49:57Z</time>
      </trkpt>
      <trkpt lat="44.95913" lon="6.09972">
        <ele>1878</ele>
        <time>2024-08-14T11:49:58Z</time>
      </trkpt>
      <trkpt lat="44.95911" lon="6.09969">
        <ele>1877.6</ele>
        <time>2024-08-14T11:49:59Z</time>
      </trkpt>
      <trkpt lat="44.95911" lon="6.09969">
        <ele>1877.2</ele>
        <time>2024-08-14T11:50:00Z</time>
      </trkpt>
      <trkpt lat="44.95911" lon="6.09965">
        <ele>1877.2</ele>
        <time>2024-08-14T11:50:01Z</time>
      </trkpt>
      <trkpt lat="44.95911" lon="6.09965">
        <ele>1876.8</ele>
        <time>2024-08-14T11:50:02Z</time>
      </trkpt>
      <trkpt lat="44.95911" lon="6.09965">
        <ele>1876.8</ele>
        <time>2024-08-14T11:50:03Z</time>
      </trkpt>
      <trkpt lat="44.9591" lon="6.09962">
        <ele>1876.8</ele>
        <time>2024-08-14T11:50:04Z</time>
      </trkpt>
      <trkpt lat="44.9591" lon="6.09962">
        <ele>1876.4</ele>
        <time>2024-08-14T11:50:05Z</time>
      </trkpt>
      <trkpt lat="44.9591" lon="6.09962">
        <ele>1876.2</ele>
        <time>2024-08-14T11:50:06Z</time>
      </trkpt>
      <trkpt lat="44.95909" lon="6.09959">
        <ele>1876</ele>
        <time>2024-08-14T11:50:07Z</time>
      </trkpt>
      <trkpt lat="44.95909" lon="6.09959">
        <ele>1875.8</ele>
        <time>2024-08-14T11:50:08Z</time>
      </trkpt>
      <trkpt lat="44.95909" lon="6.09959">
        <ele>1875.6</ele>
        <time>2024-08-14T11:50:09Z</time>
      </trkpt>
      <trkpt lat="44.95909" lon="6.09955">
        <ele>1875.4</ele>
        <time>2024-08-14T11:50:10Z</time>
      </trkpt>
      <trkpt lat="44.95909" lon="6.09955">
        <ele>1874.8</ele>
        <time>2024-08-14T11:50:11Z</time>
      </trkpt>
      <trkpt lat="44.95908" lon="6.09953">
        <ele>1874.4</ele>
        <time>2024-08-14T11:50:12Z</time>
      </trkpt>
      <trkpt lat="44.95908" lon="6.09953">
        <ele>1874.2</ele>
        <time>2024-08-14T11:50:13Z</time>
      </trkpt>
      <trkpt lat="44.95907" lon="6.09951">
        <ele>1874</ele>
        <time>2024-08-14T11:50:14Z</time>
      </trkpt>
      <trkpt lat="44.95907" lon="6.09951">
        <ele>1874</ele>
        <time>2024-08-14T11:50:15Z</time>
      </trkpt>
      <trkpt lat="44.95907" lon="6.09951">
        <ele>1874</ele>
        <time>2024-08-14T11:50:16Z</time>
      </trkpt>
      <trkpt lat="44.95905" lon="6.09948">
        <ele>1873.8</ele>
        <time>2024-08-14T11:50:17Z</time>
      </trkpt>
      <trkpt lat="44.95905" lon="6.09948">
        <ele>1873.6</ele>
        <time>2024-08-14T11:50:18Z</time>
      </trkpt>
      <trkpt lat="44.95905" lon="6.09948">
        <ele>1873.4</ele>
        <time>2024-08-14T11:50:19Z</time>
      </trkpt>
      <trkpt lat="44.95904" lon="6.09945">
        <ele>1873</ele>
        <time>2024-08-14T11:50:20Z</time>
      </trkpt>
      <trkpt lat="44.95904" lon="6.09945">
        <ele>1873</ele>
        <time>2024-08-14T11:50:21Z</time>
      </trkpt>
      <trkpt lat="44.95904" lon="6.09945">
        <ele>1872.4</ele>
        <time>2024-08-14T11:50:22Z</time>
      </trkpt>
      <trkpt lat="44.95906" lon="6.09944">
        <ele>1872.2</ele>
        <time>2024-08-14T11:50:23Z</time>
      </trkpt>
      <trkpt lat="44.95906" lon="6.09944">
        <ele>1872.2</ele>
        <time>2024-08-14T11:50:24Z</time>
      </trkpt>
      <trkpt lat="44.95907" lon="6.09947">
        <ele>1872</ele>
        <time>2024-08-14T11:50:25Z</time>
      </trkpt>
      <trkpt lat="44.95907" lon="6.09947">
        <ele>1871.6</ele>
        <time>2024-08-14T11:50:26Z</time>
      </trkpt>
      <trkpt lat="44.95909" lon="6.09948">
        <ele>1871.2</ele>
        <time>2024-08-14T11:50:27Z</time>
      </trkpt>
      <trkpt lat="44.95909" lon="6.09948">
        <ele>1871</ele>
        <time>2024-08-14T11:50:28Z</time>
      </trkpt>
      <trkpt lat="44.95909" lon="6.09948">
        <ele>1871</ele>
        <time>2024-08-14T11:50:29Z</time>
      </trkpt>
      <trkpt lat="44.95911" lon="6.09949">
        <ele>1871</ele>
        <time>2024-08-14T11:50:30Z</time>
      </trkpt>
      <trkpt lat="44.95911" lon="6.09949">
        <ele>1870.8</ele>
        <time>2024-08-14T11:50:31Z</time>
      </trkpt>
      <trkpt lat="44.95914" lon="6.0995">
        <ele>1870.4</ele>
        <time>2024-08-14T11:50:32Z</time>
      </trkpt>
      <trkpt lat="44.95914" lon="6.0995">
        <ele>1870</ele>
        <time>2024-08-14T11:50:33Z</time>
      </trkpt>
      <trkpt lat="44.95916" lon="6.09952">
        <ele>1869.8</ele>
        <time>2024-08-14T11:50:34Z</time>
      </trkpt>
      <trkpt lat="44.95916" lon="6.09952">
        <ele>1869.6</ele>
        <time>2024-08-14T11:50:35Z</time>
      </trkpt>
      <trkpt lat="44.95916" lon="6.09952">
        <ele>1869.2</ele>
        <time>2024-08-14T11:50:36Z</time>
      </trkpt>
      <trkpt lat="44.95916" lon="6.09952">
        <ele>1869.2</ele>
        <time>2024-08-14T11:50:37Z</time>
      </trkpt>
      <trkpt lat="44.95917" lon="6.09951">
        <ele>1868.6</ele>
        <time>2024-08-14T11:50:38Z</time>
      </trkpt>
      <trkpt lat="44.95917" lon="6.09951">
        <ele>1868.4</ele>
        <time>2024-08-14T11:50:39Z</time>
      </trkpt>
      <trkpt lat="44.95917" lon="6.09951">
        <ele>1868.4</ele>
        <time>2024-08-14T11:50:40Z</time>
      </trkpt>
      <trkpt lat="44.95916" lon="6.09947">
        <ele>1868.2</ele>
        <time>2024-08-14T11:50:41Z</time>
      </trkpt>
      <trkpt lat="44.95916" lon="6.09947">
        <ele>1867.8</ele>
        <time>2024-08-14T11:50:42Z</time>
      </trkpt>
      <trkpt lat="44.95915" lon="6.09944">
        <ele>1867.8</ele>
        <time>2024-08-14T11:50:43Z</time>
      </trkpt>
      <trkpt lat="44.95915" lon="6.09944">
        <ele>1867.6</ele>
        <time>2024-08-14T11:50:44Z</time>
      </trkpt>
      <trkpt lat="44.95913" lon="6.09942">
        <ele>1867.4</ele>
        <time>2024-08-14T11:50:45Z</time>
      </trkpt>
      <trkpt lat="44.95913" lon="6.09942">
        <ele>1867</ele>
        <time>2024-08-14T11:50:46Z</time>
      </trkpt>
      <trkpt lat="44.95913" lon="6.09942">
        <ele>1866.6</ele>
        <time>2024-08-14T11:50:47Z</time>
      </trkpt>
      <trkpt lat="44.95913" lon="6.09942">
        <ele>1866.6</ele>
        <time>2024-08-14T11:50:48Z</time>
      </trkpt>
      <trkpt lat="44.95913" lon="6.0994">
        <ele>1866.4</ele>
        <time>2024-08-14T11:50:49Z</time>
      </trkpt>
      <trkpt lat="44.95913" lon="6.0994">
        <ele>1866.2</ele>
        <time>2024-08-14T11:50:50Z</time>
      </trkpt>
      <trkpt lat="44.95913" lon="6.0994">
        <ele>1866</ele>
        <time>2024-08-14T11:50:51Z</time>
      </trkpt>
      <trkpt lat="44.95911" lon="6.09938">
        <ele>1865.6</ele>
        <time>2024-08-14T11:50:52Z</time>
      </trkpt>
      <trkpt lat="44.95911" lon="6.09938">
        <ele>1865.2</ele>
        <time>2024-08-14T11:50:53Z</time>
      </trkpt>
      <trkpt lat="44.95909" lon="6.09934">
        <ele>1865.2</ele>
        <time>2024-08-14T11:50:54Z</time>
      </trkpt>
      <trkpt lat="44.95909" lon="6.09934">
        <ele>1865.2</ele>
        <time>2024-08-14T11:50:55Z</time>
      </trkpt>
      <trkpt lat="44.95911" lon="6.09931">
        <ele>1864.6</ele>
        <time>2024-08-14T11:50:56Z</time>
      </trkpt>
      <trkpt lat="44.95911" lon="6.09931">
        <ele>1863.8</ele>
        <time>2024-08-14T11:50:57Z</time>
      </trkpt>
      <trkpt lat="44.95911" lon="6.09931">
        <ele>1863.6</ele>
        <time>2024-08-14T11:50:58Z</time>
      </trkpt>
      <trkpt lat="44.95913" lon="6.09932">
        <ele>1863.2</ele>
        <time>2024-08-14T11:50:59Z</time>
      </trkpt>
      <trkpt lat="44.95913" lon="6.09932">
        <ele>1863</ele>
        <time>2024-08-14T11:51:00Z</time>
      </trkpt>
      <trkpt lat="44.95913" lon="6.09932">
        <ele>1862.8</ele>
        <time>2024-08-14T11:51:01Z</time>
      </trkpt>
      <trkpt lat="44.95913" lon="6.09932">
        <ele>1862</ele>
        <time>2024-08-14T11:51:02Z</time>
      </trkpt>
      <trkpt lat="44.95914" lon="6.09929">
        <ele>1862</ele>
        <time>2024-08-14T11:51:03Z</time>
      </trkpt>
      <trkpt lat="44.95914" lon="6.09929">
        <ele>1861.8</ele>
        <time>2024-08-14T11:51:04Z</time>
      </trkpt>
      <trkpt lat="44.95914" lon="6.09929">
        <ele>1861.4</ele>
        <time>2024-08-14T11:51:05Z</time>
      </trkpt>
      <trkpt lat="44.95917" lon="6.09928">
        <ele>1861.4</ele>
        <time>2024-08-14T11:51:06Z</time>
      </trkpt>
      <trkpt lat="44.95917" lon="6.09928">
        <ele>1861</ele>
        <time>2024-08-14T11:51:07Z</time>
      </trkpt>
      <trkpt lat="44.95918" lon="6.0993">
        <ele>1861</ele>
        <time>2024-08-14T11:51:08Z</time>
      </trkpt>
      <trkpt lat="44.95918" lon="6.0993">
        <ele>1860.4</ele>
        <time>2024-08-14T11:51:09Z</time>
      </trkpt>
      <trkpt lat="44.95918" lon="6.0993">
        <ele>1859.8</ele>
        <time>2024-08-14T11:51:10Z</time>
      </trkpt>
      <trkpt lat="44.9592" lon="6.09932">
        <ele>1859.6</ele>
        <time>2024-08-14T11:51:11Z</time>
      </trkpt>
      <trkpt lat="44.9592" lon="6.09932">
        <ele>1859.4</ele>
        <time>2024-08-14T11:51:12Z</time>
      </trkpt>
      <trkpt lat="44.9592" lon="6.09932">
        <ele>1859</ele>
        <time>2024-08-14T11:51:13Z</time>
      </trkpt>
      <trkpt lat="44.9592" lon="6.09932">
        <ele>1858.4</ele>
        <time>2024-08-14T11:51:14Z</time>
      </trkpt>
      <trkpt lat="44.95923" lon="6.0993">
        <ele>1858.4</ele>
        <time>2024-08-14T11:51:15Z</time>
      </trkpt>
      <trkpt lat="44.95923" lon="6.0993">
        <ele>1858.2</ele>
        <time>2024-08-14T11:51:16Z</time>
      </trkpt>
      <trkpt lat="44.95923" lon="6.09927">
        <ele>1857.6</ele>
        <time>2024-08-14T11:51:17Z</time>
      </trkpt>
      <trkpt lat="44.95923" lon="6.09927">
        <ele>1857.6</ele>
        <time>2024-08-14T11:51:18Z</time>
      </trkpt>
      <trkpt lat="44.95923" lon="6.09927">
        <ele>1857.2</ele>
        <time>2024-08-14T11:51:19Z</time>
      </trkpt>
      <trkpt lat="44.95922" lon="6.09923">
        <ele>1857</ele>
        <time>2024-08-14T11:51:20Z</time>
      </trkpt>
      <trkpt lat="44.95922" lon="6.09923">
        <ele>1856.6</ele>
        <time>2024-08-14T11:51:21Z</time>
      </trkpt>
      <trkpt lat="44.95923" lon="6.0992">
        <ele>1856.4</ele>
        <time>2024-08-14T11:51:22Z</time>
      </trkpt>
      <trkpt lat="44.95923" lon="6.0992">
        <ele>1856</ele>
        <time>2024-08-14T11:51:23Z</time>
      </trkpt>
      <trkpt lat="44.95925" lon="6.0992">
        <ele>1855.8</ele>
        <time>2024-08-14T11:51:24Z</time>
      </trkpt>
      <trkpt lat="44.95925" lon="6.0992">
        <ele>1855.6</ele>
        <time>2024-08-14T11:51:25Z</time>
      </trkpt>
      <trkpt lat="44.95925" lon="6.0992">
        <ele>1854.8</ele>
        <time>2024-08-14T11:51:26Z</time>
      </trkpt>
      <trkpt lat="44.95927" lon="6.0992">
        <ele>1854.4</ele>
        <time>2024-08-14T11:51:27Z</time>
      </trkpt>
      <trkpt lat="44.95927" lon="6.0992">
        <ele>1853.6</ele>
        <time>2024-08-14T11:51:28Z</time>
      </trkpt>
      <trkpt lat="44.95927" lon="6.0992">
        <ele>1853.4</ele>
        <time>2024-08-14T11:51:29Z</time>
      </trkpt>
      <trkpt lat="44.9593" lon="6.09917">
        <ele>1853.4</ele>
        <time>2024-08-14T11:51:30Z</time>
      </trkpt>
      <trkpt lat="44.9593" lon="6.09917">
        <ele>1852.8</ele>
        <time>2024-08-14T11:51:31Z</time>
      </trkpt>
      <trkpt lat="44.95932" lon="6.09918">
        <ele>1852.4</ele>
        <time>2024-08-14T11:51:32Z</time>
      </trkpt>
      <trkpt lat="44.95932" lon="6.09918">
        <ele>1852</ele>
        <time>2024-08-14T11:51:33Z</time>
      </trkpt>
      <trkpt lat="44.95934" lon="6.09919">
        <ele>1851.8</ele>
        <time>2024-08-14T11:51:34Z</time>
      </trkpt>
      <trkpt lat="44.95934" lon="6.09919">
        <ele>1851.2</ele>
        <time>2024-08-14T11:51:35Z</time>
      </trkpt>
      <trkpt lat="44.95937" lon="6.09921">
        <ele>1851</ele>
        <time>2024-08-14T11:51:36Z</time>
      </trkpt>
      <trkpt lat="44.95937" lon="6.09921">
        <ele>1850.6</ele>
        <time>2024-08-14T11:51:37Z</time>
      </trkpt>
      <trkpt lat="44.95939" lon="6.09922">
        <ele>1850.2</ele>
        <time>2024-08-14T11:51:38Z</time>
      </trkpt>
      <trkpt lat="44.95939" lon="6.09922">
        <ele>1850</ele>
        <time>2024-08-14T11:51:39Z</time>
      </trkpt>
      <trkpt lat="44.95939" lon="6.09926">
        <ele>1849.6</ele>
        <time>2024-08-14T11:51:40Z</time>
      </trkpt>
      <trkpt lat="44.95939" lon="6.09926">
        <ele>1849.2</ele>
        <time>2024-08-14T11:51:41Z</time>
      </trkpt>
      <trkpt lat="44.95939" lon="6.09928">
        <ele>1849</ele>
        <time>2024-08-14T11:51:42Z</time>
      </trkpt>
      <trkpt lat="44.95939" lon="6.09928">
        <ele>1848.6</ele>
        <time>2024-08-14T11:51:43Z</time>
      </trkpt>
      <trkpt lat="44.95941" lon="6.09931">
        <ele>1848.6</ele>
        <time>2024-08-14T11:51:44Z</time>
      </trkpt>
      <trkpt lat="44.95941" lon="6.09931">
        <ele>1848.2</ele>
        <time>2024-08-14T11:51:45Z</time>
      </trkpt>
      <trkpt lat="44.95941" lon="6.09931">
        <ele>1847.8</ele>
        <time>2024-08-14T11:51:46Z</time>
      </trkpt>
      <trkpt lat="44.95942" lon="6.09932">
        <ele>1847.4</ele>
        <time>2024-08-14T11:51:47Z</time>
      </trkpt>
      <trkpt lat="44.95942" lon="6.09932">
        <ele>1847</ele>
        <time>2024-08-14T11:51:48Z</time>
      </trkpt>
      <trkpt lat="44.95944" lon="6.0993">
        <ele>1846.6</ele>
        <time>2024-08-14T11:51:49Z</time>
      </trkpt>
      <trkpt lat="44.95944" lon="6.0993">
        <ele>1846.2</ele>
        <time>2024-08-14T11:51:50Z</time>
      </trkpt>
      <trkpt lat="44.95945" lon="6.09927">
        <ele>1846.2</ele>
        <time>2024-08-14T11:51:51Z</time>
      </trkpt>
      <trkpt lat="44.95945" lon="6.09927">
        <ele>1846</ele>
        <time>2024-08-14T11:51:52Z</time>
      </trkpt>
      <trkpt lat="44.95947" lon="6.09924">
        <ele>1845.4</ele>
        <time>2024-08-14T11:51:53Z</time>
      </trkpt>
      <trkpt lat="44.95947" lon="6.09924">
        <ele>1845.2</ele>
        <time>2024-08-14T11:51:54Z</time>
      </trkpt>
      <trkpt lat="44.95948" lon="6.09922">
        <ele>1844.8</ele>
        <time>2024-08-14T11:51:55Z</time>
      </trkpt>
      <trkpt lat="44.95948" lon="6.09922">
        <ele>1844.6</ele>
        <time>2024-08-14T11:51:56Z</time>
      </trkpt>
      <trkpt lat="44.95949" lon="6.09918">
        <ele>1844.4</ele>
        <time>2024-08-14T11:51:57Z</time>
      </trkpt>
      <trkpt lat="44.95949" lon="6.09918">
        <ele>1844.2</ele>
        <time>2024-08-14T11:51:58Z</time>
      </trkpt>
      <trkpt lat="44.95949" lon="6.09915">
        <ele>1843.6</ele>
        <time>2024-08-14T11:51:59Z</time>
      </trkpt>
      <trkpt lat="44.95949" lon="6.09915">
        <ele>1843.2</ele>
        <time>2024-08-14T11:52:00Z</time>
      </trkpt>
      <trkpt lat="44.9595" lon="6.09912">
        <ele>1842.8</ele>
        <time>2024-08-14T11:52:01Z</time>
      </trkpt>
      <trkpt lat="44.9595" lon="6.09912">
        <ele>1842</ele>
        <time>2024-08-14T11:52:02Z</time>
      </trkpt>
      <trkpt lat="44.95952" lon="6.09911">
        <ele>1842</ele>
        <time>2024-08-14T11:52:03Z</time>
      </trkpt>
      <trkpt lat="44.95952" lon="6.09911">
        <ele>1841.8</ele>
        <time>2024-08-14T11:52:04Z</time>
      </trkpt>
      <trkpt lat="44.95954" lon="6.0991">
        <ele>1841.2</ele>
        <time>2024-08-14T11:52:05Z</time>
      </trkpt>
      <trkpt lat="44.95954" lon="6.0991">
        <ele>1841</ele>
        <time>2024-08-14T11:52:06Z</time>
      </trkpt>
      <trkpt lat="44.95957" lon="6.09909">
        <ele>1841</ele>
        <time>2024-08-14T11:52:07Z</time>
      </trkpt>
      <trkpt lat="44.95957" lon="6.09909">
        <ele>1840.2</ele>
        <time>2024-08-14T11:52:08Z</time>
      </trkpt>
      <trkpt lat="44.95958" lon="6.09913">
        <ele>1840.2</ele>
        <time>2024-08-14T11:52:09Z</time>
      </trkpt>
      <trkpt lat="44.95958" lon="6.09913">
        <ele>1839.6</ele>
        <time>2024-08-14T11:52:10Z</time>
      </trkpt>
      <trkpt lat="44.95958" lon="6.09913">
        <ele>1839.4</ele>
        <time>2024-08-14T11:52:11Z</time>
      </trkpt>
      <trkpt lat="44.9596" lon="6.09914">
        <ele>1839</ele>
        <time>2024-08-14T11:52:12Z</time>
      </trkpt>
      <trkpt lat="44.9596" lon="6.09914">
        <ele>1838.8</ele>
        <time>2024-08-14T11:52:13Z</time>
      </trkpt>
      <trkpt lat="44.95961" lon="6.09911">
        <ele>1838.4</ele>
        <time>2024-08-14T11:52:14Z</time>
      </trkpt>
      <trkpt lat="44.95961" lon="6.09911">
        <ele>1838</ele>
        <time>2024-08-14T11:52:15Z</time>
      </trkpt>
      <trkpt lat="44.95962" lon="6.09908">
        <ele>1837.8</ele>
        <time>2024-08-14T11:52:16Z</time>
      </trkpt>
      <trkpt lat="44.95962" lon="6.09908">
        <ele>1837.4</ele>
        <time>2024-08-14T11:52:17Z</time>
      </trkpt>
      <trkpt lat="44.95964" lon="6.09909">
        <ele>1837</ele>
        <time>2024-08-14T11:52:18Z</time>
      </trkpt>
      <trkpt lat="44.95964" lon="6.09909">
        <ele>1837</ele>
        <time>2024-08-14T11:52:19Z</time>
      </trkpt>
      <trkpt lat="44.95965" lon="6.09912">
        <ele>1836.8</ele>
        <time>2024-08-14T11:52:20Z</time>
      </trkpt>
      <trkpt lat="44.95965" lon="6.09912">
        <ele>1836.2</ele>
        <time>2024-08-14T11:52:21Z</time>
      </trkpt>
      <trkpt lat="44.95967" lon="6.09915">
        <ele>1836.2</ele>
        <time>2024-08-14T11:52:22Z</time>
      </trkpt>
      <trkpt lat="44.95967" lon="6.09915">
        <ele>1835.6</ele>
        <time>2024-08-14T11:52:23Z</time>
      </trkpt>
      <trkpt lat="44.95969" lon="6.09917">
        <ele>1835.4</ele>
        <time>2024-08-14T11:52:24Z</time>
      </trkpt>
      <trkpt lat="44.95969" lon="6.09917">
        <ele>1835.2</ele>
        <time>2024-08-14T11:52:25Z</time>
      </trkpt>
      <trkpt lat="44.95971" lon="6.09919">
        <ele>1835</ele>
        <time>2024-08-14T11:52:26Z</time>
      </trkpt>
      <trkpt lat="44.95971" lon="6.09919">
        <ele>1834.6</ele>
        <time>2024-08-14T11:52:27Z</time>
      </trkpt>
      <trkpt lat="44.95972" lon="6.09921">
        <ele>1834</ele>
        <time>2024-08-14T11:52:28Z</time>
      </trkpt>
      <trkpt lat="44.95972" lon="6.09921">
        <ele>1833.8</ele>
        <time>2024-08-14T11:52:29Z</time>
      </trkpt>
      <trkpt lat="44.95973" lon="6.09923">
        <ele>1833.6</ele>
        <time>2024-08-14T11:52:30Z</time>
      </trkpt>
      <trkpt lat="44.95973" lon="6.09923">
        <ele>1832.8</ele>
        <time>2024-08-14T11:52:31Z</time>
      </trkpt>
      <trkpt lat="44.95973" lon="6.09927">
        <ele>1832.4</ele>
        <time>2024-08-14T11:52:32Z</time>
      </trkpt>
      <trkpt lat="44.95973" lon="6.09927">
        <ele>1832.2</ele>
        <time>2024-08-14T11:52:33Z</time>
      </trkpt>
      <trkpt lat="44.95974" lon="6.0993">
        <ele>1832.2</ele>
        <time>2024-08-14T11:52:34Z</time>
      </trkpt>
      <trkpt lat="44.95974" lon="6.0993">
        <ele>1832</ele>
        <time>2024-08-14T11:52:35Z</time>
      </trkpt>
      <trkpt lat="44.95975" lon="6.09933">
        <ele>1831.8</ele>
        <time>2024-08-14T11:52:36Z</time>
      </trkpt>
      <trkpt lat="44.95975" lon="6.09933">
        <ele>1831.4</ele>
        <time>2024-08-14T11:52:37Z</time>
      </trkpt>
      <trkpt lat="44.95976" lon="6.09934">
        <ele>1830.6</ele>
        <time>2024-08-14T11:52:38Z</time>
      </trkpt>
      <trkpt lat="44.95976" lon="6.09934">
        <ele>1830.2</ele>
        <time>2024-08-14T11:52:39Z</time>
      </trkpt>
      <trkpt lat="44.95976" lon="6.09934">
        <ele>1830.2</ele>
        <time>2024-08-14T11:52:40Z</time>
      </trkpt>
      <trkpt lat="44.95978" lon="6.09936">
        <ele>1829.8</ele>
        <time>2024-08-14T11:52:41Z</time>
      </trkpt>
      <trkpt lat="44.95978" lon="6.09936">
        <ele>1829.4</ele>
        <time>2024-08-14T11:52:42Z</time>
      </trkpt>
      <trkpt lat="44.95978" lon="6.09936">
        <ele>1829.2</ele>
        <time>2024-08-14T11:52:43Z</time>
      </trkpt>
      <trkpt lat="44.95978" lon="6.09936">
        <ele>1829.2</ele>
        <time>2024-08-14T11:52:44Z</time>
      </trkpt>
      <trkpt lat="44.95978" lon="6.09936">
        <ele>1829.4</ele>
        <time>2024-08-14T11:52:45Z</time>
      </trkpt>
      <trkpt lat="44.95978" lon="6.09936">
        <ele>1829.4</ele>
        <time>2024-08-14T11:52:46Z</time>
      </trkpt>
      <trkpt lat="44.95979" lon="6.09938">
        <ele>1829.4</ele>
        <time>2024-08-14T11:52:47Z</time>
      </trkpt>
      <trkpt lat="44.95979" lon="6.09938">
        <ele>1829.4</ele>
        <time>2024-08-14T11:52:48Z</time>
      </trkpt>
      <trkpt lat="44.95979" lon="6.09942">
        <ele>1829.2</ele>
        <time>2024-08-14T11:52:49Z</time>
      </trkpt>
      <trkpt lat="44.95979" lon="6.09942">
        <ele>1828.8</ele>
        <time>2024-08-14T11:52:50Z</time>
      </trkpt>
      <trkpt lat="44.9598" lon="6.09945">
        <ele>1828.6</ele>
        <time>2024-08-14T11:52:51Z</time>
      </trkpt>
      <trkpt lat="44.9598" lon="6.09945">
        <ele>1828.4</ele>
        <time>2024-08-14T11:52:52Z</time>
      </trkpt>
      <trkpt lat="44.95981" lon="6.09947">
        <ele>1828.2</ele>
        <time>2024-08-14T11:52:53Z</time>
      </trkpt>
      <trkpt lat="44.95981" lon="6.09947">
        <ele>1828.2</ele>
        <time>2024-08-14T11:52:54Z</time>
      </trkpt>
      <trkpt lat="44.95984" lon="6.09948">
        <ele>1828</ele>
        <time>2024-08-14T11:52:55Z</time>
      </trkpt>
      <trkpt lat="44.95984" lon="6.09948">
        <ele>1828</ele>
        <time>2024-08-14T11:52:56Z</time>
      </trkpt>
      <trkpt lat="44.95986" lon="6.09948">
        <ele>1827.8</ele>
        <time>2024-08-14T11:52:57Z</time>
      </trkpt>
      <trkpt lat="44.95986" lon="6.09948">
        <ele>1827.8</ele>
        <time>2024-08-14T11:52:58Z</time>
      </trkpt>
      <trkpt lat="44.95988" lon="6.09947">
        <ele>1827.8</ele>
        <time>2024-08-14T11:52:59Z</time>
      </trkpt>
      <trkpt lat="44.95988" lon="6.09947">
        <ele>1827.8</ele>
        <time>2024-08-14T11:53:00Z</time>
      </trkpt>
      <trkpt lat="44.95991" lon="6.09947">
        <ele>1827.2</ele>
        <time>2024-08-14T11:53:01Z</time>
      </trkpt>
      <trkpt lat="44.95991" lon="6.09947">
        <ele>1827.2</ele>
        <time>2024-08-14T11:53:02Z</time>
      </trkpt>
      <trkpt lat="44.95991" lon="6.09947">
        <ele>1827.2</ele>
        <time>2024-08-14T11:53:03Z</time>
      </trkpt>
      <trkpt lat="44.95993" lon="6.09947">
        <ele>1827</ele>
        <time>2024-08-14T11:53:04Z</time>
      </trkpt>
      <trkpt lat="44.95993" lon="6.09947">
        <ele>1827</ele>
        <time>2024-08-14T11:53:05Z</time>
      </trkpt>
      <trkpt lat="44.95995" lon="6.09946">
        <ele>1826.6</ele>
        <time>2024-08-14T11:53:06Z</time>
      </trkpt>
      <trkpt lat="44.95995" lon="6.09946">
        <ele>1826.4</ele>
        <time>2024-08-14T11:53:07Z</time>
      </trkpt>
      <trkpt lat="44.95998" lon="6.09946">
        <ele>1826.2</ele>
        <time>2024-08-14T11:53:08Z</time>
      </trkpt>
      <trkpt lat="44.95998" lon="6.09946">
        <ele>1825.8</ele>
        <time>2024-08-14T11:53:09Z</time>
      </trkpt>
      <trkpt lat="44.95998" lon="6.09946">
        <ele>1825.4</ele>
        <time>2024-08-14T11:53:10Z</time>
      </trkpt>
      <trkpt lat="44.96001" lon="6.09948">
        <ele>1825.2</ele>
        <time>2024-08-14T11:53:11Z</time>
      </trkpt>
      <trkpt lat="44.96001" lon="6.09948">
        <ele>1824.8</ele>
        <time>2024-08-14T11:53:12Z</time>
      </trkpt>
      <trkpt lat="44.96001" lon="6.09948">
        <ele>1824.4</ele>
        <time>2024-08-14T11:53:13Z</time>
      </trkpt>
      <trkpt lat="44.96003" lon="6.09948">
        <ele>1824.2</ele>
        <time>2024-08-14T11:53:14Z</time>
      </trkpt>
      <trkpt lat="44.96003" lon="6.09948">
        <ele>1823.8</ele>
        <time>2024-08-14T11:53:15Z</time>
      </trkpt>
      <trkpt lat="44.96003" lon="6.09948">
        <ele>1823.4</ele>
        <time>2024-08-14T11:53:16Z</time>
      </trkpt>
      <trkpt lat="44.96006" lon="6.09948">
        <ele>1823.2</ele>
        <time>2024-08-14T11:53:17Z</time>
      </trkpt>
      <trkpt lat="44.96006" lon="6.09948">
        <ele>1822.8</ele>
        <time>2024-08-14T11:53:18Z</time>
      </trkpt>
      <trkpt lat="44.96008" lon="6.0995">
        <ele>1822.2</ele>
        <time>2024-08-14T11:53:19Z</time>
      </trkpt>
      <trkpt lat="44.96008" lon="6.0995">
        <ele>1822</ele>
        <time>2024-08-14T11:53:20Z</time>
      </trkpt>
      <trkpt lat="44.96008" lon="6.0995">
        <ele>1821.8</ele>
        <time>2024-08-14T11:53:21Z</time>
      </trkpt>
      <trkpt lat="44.96009" lon="6.09954">
        <ele>1821.6</ele>
        <time>2024-08-14T11:53:22Z</time>
      </trkpt>
      <trkpt lat="44.96009" lon="6.09954">
        <ele>1821.2</ele>
        <time>2024-08-14T11:53:23Z</time>
      </trkpt>
      <trkpt lat="44.96009" lon="6.09957">
        <ele>1820.8</ele>
        <time>2024-08-14T11:53:24Z</time>
      </trkpt>
      <trkpt lat="44.96009" lon="6.09957">
        <ele>1820.6</ele>
        <time>2024-08-14T11:53:25Z</time>
      </trkpt>
      <trkpt lat="44.9601" lon="6.09959">
        <ele>1820.4</ele>
        <time>2024-08-14T11:53:26Z</time>
      </trkpt>
      <trkpt lat="44.9601" lon="6.09959">
        <ele>1820.2</ele>
        <time>2024-08-14T11:53:27Z</time>
      </trkpt>
      <trkpt lat="44.96012" lon="6.09961">
        <ele>1820</ele>
        <time>2024-08-14T11:53:28Z</time>
      </trkpt>
      <trkpt lat="44.96012" lon="6.09961">
        <ele>1819.8</ele>
        <time>2024-08-14T11:53:29Z</time>
      </trkpt>
      <trkpt lat="44.96013" lon="6.09963">
        <ele>1819.6</ele>
        <time>2024-08-14T11:53:30Z</time>
      </trkpt>
      <trkpt lat="44.96013" lon="6.09963">
        <ele>1819.2</ele>
        <time>2024-08-14T11:53:31Z</time>
      </trkpt>
      <trkpt lat="44.96015" lon="6.09965">
        <ele>1819</ele>
        <time>2024-08-14T11:53:32Z</time>
      </trkpt>
      <trkpt lat="44.96015" lon="6.09965">
        <ele>1818.6</ele>
        <time>2024-08-14T11:53:33Z</time>
      </trkpt>
      <trkpt lat="44.96017" lon="6.09967">
        <ele>1818.4</ele>
        <time>2024-08-14T11:53:34Z</time>
      </trkpt>
      <trkpt lat="44.96017" lon="6.09967">
        <ele>1818.4</ele>
        <time>2024-08-14T11:53:35Z</time>
      </trkpt>
      <trkpt lat="44.96019" lon="6.0997">
        <ele>1818.2</ele>
        <time>2024-08-14T11:53:36Z</time>
      </trkpt>
      <trkpt lat="44.96019" lon="6.0997">
        <ele>1818</ele>
        <time>2024-08-14T11:53:37Z</time>
      </trkpt>
      <trkpt lat="44.9602" lon="6.09973">
        <ele>1818</ele>
        <time>2024-08-14T11:53:38Z</time>
      </trkpt>
      <trkpt lat="44.9602" lon="6.09973">
        <ele>1817.6</ele>
        <time>2024-08-14T11:53:39Z</time>
      </trkpt>
      <trkpt lat="44.96021" lon="6.09977">
        <ele>1817.4</ele>
        <time>2024-08-14T11:53:40Z</time>
      </trkpt>
      <trkpt lat="44.96021" lon="6.09977">
        <ele>1817.4</ele>
        <time>2024-08-14T11:53:41Z</time>
      </trkpt>
      <trkpt lat="44.96022" lon="6.0998">
        <ele>1817.2</ele>
        <time>2024-08-14T11:53:42Z</time>
      </trkpt>
      <trkpt lat="44.96022" lon="6.0998">
        <ele>1816.8</ele>
        <time>2024-08-14T11:53:43Z</time>
      </trkpt>
      <trkpt lat="44.96023" lon="6.09983">
        <ele>1816.8</ele>
        <time>2024-08-14T11:53:44Z</time>
      </trkpt>
      <trkpt lat="44.96023" lon="6.09983">
        <ele>1816.6</ele>
        <time>2024-08-14T11:53:45Z</time>
      </trkpt>
      <trkpt lat="44.96024" lon="6.09985">
        <ele>1816.6</ele>
        <time>2024-08-14T11:53:46Z</time>
      </trkpt>
      <trkpt lat="44.96024" lon="6.09985">
        <ele>1816.4</ele>
        <time>2024-08-14T11:53:47Z</time>
      </trkpt>
      <trkpt lat="44.96027" lon="6.09988">
        <ele>1816</ele>
        <time>2024-08-14T11:53:48Z</time>
      </trkpt>
      <trkpt lat="44.96027" lon="6.09988">
        <ele>1815.6</ele>
        <time>2024-08-14T11:53:49Z</time>
      </trkpt>
      <trkpt lat="44.96029" lon="6.09991">
        <ele>1815.4</ele>
        <time>2024-08-14T11:53:50Z</time>
      </trkpt>
      <trkpt lat="44.96029" lon="6.09991">
        <ele>1815.2</ele>
        <time>2024-08-14T11:53:51Z</time>
      </trkpt>
      <trkpt lat="44.9603" lon="6.09993">
        <ele>1815.2</ele>
        <time>2024-08-14T11:53:52Z</time>
      </trkpt>
      <trkpt lat="44.9603" lon="6.09993">
        <ele>1815.2</ele>
        <time>2024-08-14T11:53:53Z</time>
      </trkpt>
      <trkpt lat="44.96032" lon="6.09995">
        <ele>1815</ele>
        <time>2024-08-14T11:53:54Z</time>
      </trkpt>
      <trkpt lat="44.96032" lon="6.09995">
        <ele>1815</ele>
        <time>2024-08-14T11:53:55Z</time>
      </trkpt>
      <trkpt lat="44.96032" lon="6.09995">
        <ele>1814.8</ele>
        <time>2024-08-14T11:53:56Z</time>
      </trkpt>
      <trkpt lat="44.96034" lon="6.09996">
        <ele>1814.8</ele>
        <time>2024-08-14T11:53:57Z</time>
      </trkpt>
      <trkpt lat="44.96034" lon="6.09996">
        <ele>1814.8</ele>
        <time>2024-08-14T11:53:58Z</time>
      </trkpt>
      <trkpt lat="44.96034" lon="6.09996">
        <ele>1815</ele>
        <time>2024-08-14T11:53:59Z</time>
      </trkpt>
      <trkpt lat="44.96034" lon="6.09996">
        <ele>1814.8</ele>
        <time>2024-08-14T11:54:00Z</time>
      </trkpt>
      <trkpt lat="44.96034" lon="6.09996">
        <ele>1814.8</ele>
        <time>2024-08-14T11:54:01Z</time>
      </trkpt>
      <trkpt lat="44.96036" lon="6.09997">
        <ele>1814.4</ele>
        <time>2024-08-14T11:54:02Z</time>
      </trkpt>
      <trkpt lat="44.96036" lon="6.09997">
        <ele>1814</ele>
        <time>2024-08-14T11:54:03Z</time>
      </trkpt>
      <trkpt lat="44.96036" lon="6.09997">
        <ele>1814</ele>
        <time>2024-08-14T11:54:04Z</time>
      </trkpt>
      <trkpt lat="44.96036" lon="6.09997">
        <ele>1814</ele>
        <time>2024-08-14T11:54:05Z</time>
      </trkpt>
      <trkpt lat="44.96038" lon="6.09996">
        <ele>1813.6</ele>
        <time>2024-08-14T11:54:06Z</time>
      </trkpt>
      <trkpt lat="44.96038" lon="6.09996">
        <ele>1813.4</ele>
        <time>2024-08-14T11:54:07Z</time>
      </trkpt>
      <trkpt lat="44.96038" lon="6.09996">
        <ele>1813.2</ele>
        <time>2024-08-14T11:54:08Z</time>
      </trkpt>
      <trkpt lat="44.9604" lon="6.09997">
        <ele>1812.8</ele>
        <time>2024-08-14T11:54:09Z</time>
      </trkpt>
      <trkpt lat="44.9604" lon="6.09997">
        <ele>1812.6</ele>
        <time>2024-08-14T11:54:10Z</time>
      </trkpt>
      <trkpt lat="44.9604" lon="6.09997">
        <ele>1812.4</ele>
        <time>2024-08-14T11:54:11Z</time>
      </trkpt>
      <trkpt lat="44.96042" lon="6.09998">
        <ele>1812.4</ele>
        <time>2024-08-14T11:54:12Z</time>
      </trkpt>
      <trkpt lat="44.96042" lon="6.09998">
        <ele>1812.2</ele>
        <time>2024-08-14T11:54:13Z</time>
      </trkpt>
      <trkpt lat="44.96044" lon="6.09999">
        <ele>1812.2</ele>
        <time>2024-08-14T11:54:14Z</time>
      </trkpt>
      <trkpt lat="44.96044" lon="6.09999">
        <ele>1812</ele>
        <time>2024-08-14T11:54:15Z</time>
      </trkpt>
      <trkpt lat="44.96045" lon="6.09999">
        <ele>1812</ele>
        <time>2024-08-14T11:54:16Z</time>
      </trkpt>
      <trkpt lat="44.96045" lon="6.09999">
        <ele>1811.8</ele>
        <time>2024-08-14T11:54:17Z</time>
      </trkpt>
      <trkpt lat="44.96048" lon="6.09999">
        <ele>1811.2</ele>
        <time>2024-08-14T11:54:18Z</time>
      </trkpt>
      <trkpt lat="44.96048" lon="6.09999">
        <ele>1811</ele>
        <time>2024-08-14T11:54:19Z</time>
      </trkpt>
      <trkpt lat="44.9605" lon="6.10001">
        <ele>1810.6</ele>
        <time>2024-08-14T11:54:20Z</time>
      </trkpt>
      <trkpt lat="44.9605" lon="6.10001">
        <ele>1810.4</ele>
        <time>2024-08-14T11:54:21Z</time>
      </trkpt>
      <trkpt lat="44.96053" lon="6.10001">
        <ele>1810.2</ele>
        <time>2024-08-14T11:54:22Z</time>
      </trkpt>
      <trkpt lat="44.96053" lon="6.10001">
        <ele>1810</ele>
        <time>2024-08-14T11:54:23Z</time>
      </trkpt>
      <trkpt lat="44.96055" lon="6.10002">
        <ele>1810</ele>
        <time>2024-08-14T11:54:24Z</time>
      </trkpt>
      <trkpt lat="44.96055" lon="6.10002">
        <ele>1809.6</ele>
        <time>2024-08-14T11:54:25Z</time>
      </trkpt>
      <trkpt lat="44.96058" lon="6.10002">
        <ele>1809.4</ele>
        <time>2024-08-14T11:54:26Z</time>
      </trkpt>
      <trkpt lat="44.96058" lon="6.10002">
        <ele>1809.2</ele>
        <time>2024-08-14T11:54:27Z</time>
      </trkpt>
      <trkpt lat="44.9606" lon="6.10004">
        <ele>1809.2</ele>
        <time>2024-08-14T11:54:28Z</time>
      </trkpt>
      <trkpt lat="44.9606" lon="6.10004">
        <ele>1809.2</ele>
        <time>2024-08-14T11:54:29Z</time>
      </trkpt>
      <trkpt lat="44.96062" lon="6.10004">
        <ele>1808.8</ele>
        <time>2024-08-14T11:54:30Z</time>
      </trkpt>
      <trkpt lat="44.96062" lon="6.10004">
        <ele>1808.8</ele>
        <time>2024-08-14T11:54:31Z</time>
      </trkpt>
      <trkpt lat="44.96062" lon="6.10004">
        <ele>1808.8</ele>
        <time>2024-08-14T11:54:32Z</time>
      </trkpt>
      <trkpt lat="44.96062" lon="6.10004">
        <ele>1809</ele>
        <time>2024-08-14T11:54:33Z</time>
      </trkpt>
      <trkpt lat="44.96064" lon="6.10003">
        <ele>1809</ele>
        <time>2024-08-14T11:54:34Z</time>
      </trkpt>
      <trkpt lat="44.96064" lon="6.10003">
        <ele>1808.8</ele>
        <time>2024-08-14T11:54:35Z</time>
      </trkpt>
      <trkpt lat="44.96064" lon="6.10003">
        <ele>1808.8</ele>
        <time>2024-08-14T11:54:36Z</time>
      </trkpt>
      <trkpt lat="44.96064" lon="6.10003">
        <ele>1808.6</ele>
        <time>2024-08-14T11:54:37Z</time>
      </trkpt>
      <trkpt lat="44.96066" lon="6.10001">
        <ele>1808.2</ele>
        <time>2024-08-14T11:54:38Z</time>
      </trkpt>
      <trkpt lat="44.96066" lon="6.10001">
        <ele>1808</ele>
        <time>2024-08-14T11:54:39Z</time>
      </trkpt>
      <trkpt lat="44.96067" lon="6.09998">
        <ele>1807.8</ele>
        <time>2024-08-14T11:54:40Z</time>
      </trkpt>
      <trkpt lat="44.96067" lon="6.09998">
        <ele>1807.8</ele>
        <time>2024-08-14T11:54:41Z</time>
      </trkpt>
      <trkpt lat="44.96068" lon="6.09996">
        <ele>1807.8</ele>
        <time>2024-08-14T11:54:42Z</time>
      </trkpt>
      <trkpt lat="44.96068" lon="6.09996">
        <ele>1807.8</ele>
        <time>2024-08-14T11:54:43Z</time>
      </trkpt>
      <trkpt lat="44.96069" lon="6.09993">
        <ele>1807.6</ele>
        <time>2024-08-14T11:54:44Z</time>
      </trkpt>
      <trkpt lat="44.96069" lon="6.09993">
        <ele>1807.6</ele>
        <time>2024-08-14T11:54:45Z</time>
      </trkpt>
      <trkpt lat="44.9607" lon="6.0999">
        <ele>1807.6</ele>
        <time>2024-08-14T11:54:46Z</time>
      </trkpt>
      <trkpt lat="44.9607" lon="6.0999">
        <ele>1807.6</ele>
        <time>2024-08-14T11:54:47Z</time>
      </trkpt>
      <trkpt lat="44.9607" lon="6.09987">
        <ele>1807.6</ele>
        <time>2024-08-14T11:54:48Z</time>
      </trkpt>
      <trkpt lat="44.9607" lon="6.09987">
        <ele>1807.6</ele>
        <time>2024-08-14T11:54:49Z</time>
      </trkpt>
      <trkpt lat="44.9607" lon="6.09984">
        <ele>1807.6</ele>
        <time>2024-08-14T11:54:50Z</time>
      </trkpt>
      <trkpt lat="44.96072" lon="6.09982">
        <ele>1807.8</ele>
        <time>2024-08-14T11:54:51Z</time>
      </trkpt>
      <trkpt lat="44.96072" lon="6.09982">
        <ele>1808</ele>
        <time>2024-08-14T11:54:52Z</time>
      </trkpt>
      <trkpt lat="44.96074" lon="6.09982">
        <ele>1808</ele>
        <time>2024-08-14T11:54:53Z</time>
      </trkpt>
      <trkpt lat="44.96074" lon="6.09982">
        <ele>1808.2</ele>
        <time>2024-08-14T11:54:54Z</time>
      </trkpt>
      <trkpt lat="44.96077" lon="6.09981">
        <ele>1808.4</ele>
        <time>2024-08-14T11:54:55Z</time>
      </trkpt>
      <trkpt lat="44.96077" lon="6.09981">
        <ele>1808.4</ele>
        <time>2024-08-14T11:54:56Z</time>
      </trkpt>
      <trkpt lat="44.9608" lon="6.0998">
        <ele>1808.6</ele>
        <time>2024-08-14T11:54:57Z</time>
      </trkpt>
      <trkpt lat="44.9608" lon="6.0998">
        <ele>1808.8</ele>
        <time>2024-08-14T11:54:58Z</time>
      </trkpt>
      <trkpt lat="44.9608" lon="6.0998">
        <ele>1808.8</ele>
        <time>2024-08-14T11:54:59Z</time>
      </trkpt>
      <trkpt lat="44.96082" lon="6.09979">
        <ele>1808.6</ele>
        <time>2024-08-14T11:55:00Z</time>
      </trkpt>
      <trkpt lat="44.96082" lon="6.09979">
        <ele>1808.6</ele>
        <time>2024-08-14T11:55:01Z</time>
      </trkpt>
      <trkpt lat="44.96084" lon="6.09978">
        <ele>1809.2</ele>
        <time>2024-08-14T11:55:02Z</time>
      </trkpt>
      <trkpt lat="44.96084" lon="6.09978">
        <ele>1809.2</ele>
        <time>2024-08-14T11:55:03Z</time>
      </trkpt>
      <trkpt lat="44.96086" lon="6.09976">
        <ele>1809.2</ele>
        <time>2024-08-14T11:55:04Z</time>
      </trkpt>
      <trkpt lat="44.96086" lon="6.09976">
        <ele>1809</ele>
        <time>2024-08-14T11:55:05Z</time>
      </trkpt>
      <trkpt lat="44.96088" lon="6.09975">
        <ele>1808.6</ele>
        <time>2024-08-14T11:55:06Z</time>
      </trkpt>
      <trkpt lat="44.96088" lon="6.09975">
        <ele>1808.6</ele>
        <time>2024-08-14T11:55:07Z</time>
      </trkpt>
      <trkpt lat="44.9609" lon="6.09974">
        <ele>1808.8</ele>
        <time>2024-08-14T11:55:08Z</time>
      </trkpt>
      <trkpt lat="44.9609" lon="6.09974">
        <ele>1808.8</ele>
        <time>2024-08-14T11:55:09Z</time>
      </trkpt>
      <trkpt lat="44.96092" lon="6.09972">
        <ele>1809.2</ele>
        <time>2024-08-14T11:55:10Z</time>
      </trkpt>
      <trkpt lat="44.96092" lon="6.09972">
        <ele>1809.4</ele>
        <time>2024-08-14T11:55:11Z</time>
      </trkpt>
      <trkpt lat="44.96094" lon="6.09971">
        <ele>1809.6</ele>
        <time>2024-08-14T11:55:12Z</time>
      </trkpt>
      <trkpt lat="44.96094" lon="6.09971">
        <ele>1809.8</ele>
        <time>2024-08-14T11:55:13Z</time>
      </trkpt>
      <trkpt lat="44.96096" lon="6.09972">
        <ele>1809.8</ele>
        <time>2024-08-14T11:55:14Z</time>
      </trkpt>
      <trkpt lat="44.96096" lon="6.09972">
        <ele>1810</ele>
        <time>2024-08-14T11:55:15Z</time>
      </trkpt>
      <trkpt lat="44.96099" lon="6.09974">
        <ele>1810</ele>
        <time>2024-08-14T11:55:16Z</time>
      </trkpt>
      <trkpt lat="44.96099" lon="6.09974">
        <ele>1810</ele>
        <time>2024-08-14T11:55:17Z</time>
      </trkpt>
      <trkpt lat="44.96101" lon="6.09975">
        <ele>1810.2</ele>
        <time>2024-08-14T11:55:18Z</time>
      </trkpt>
      <trkpt lat="44.96101" lon="6.09975">
        <ele>1810.2</ele>
        <time>2024-08-14T11:55:19Z</time>
      </trkpt>
      <trkpt lat="44.96104" lon="6.09976">
        <ele>1810.4</ele>
        <time>2024-08-14T11:55:20Z</time>
      </trkpt>
      <trkpt lat="44.96104" lon="6.09976">
        <ele>1810.2</ele>
        <time>2024-08-14T11:55:21Z</time>
      </trkpt>
      <trkpt lat="44.96106" lon="6.09976">
        <ele>1810.2</ele>
        <time>2024-08-14T11:55:22Z</time>
      </trkpt>
      <trkpt lat="44.96106" lon="6.09976">
        <ele>1810</ele>
        <time>2024-08-14T11:55:23Z</time>
      </trkpt>
      <trkpt lat="44.96109" lon="6.09976">
        <ele>1810</ele>
        <time>2024-08-14T11:55:24Z</time>
      </trkpt>
      <trkpt lat="44.96109" lon="6.09976">
        <ele>1809.4</ele>
        <time>2024-08-14T11:55:25Z</time>
      </trkpt>
      <trkpt lat="44.96112" lon="6.09978">
        <ele>1809.4</ele>
        <time>2024-08-14T11:55:26Z</time>
      </trkpt>
      <trkpt lat="44.96112" lon="6.09978">
        <ele>1809.6</ele>
        <time>2024-08-14T11:55:27Z</time>
      </trkpt>
      <trkpt lat="44.96114" lon="6.0998">
        <ele>1809.6</ele>
        <time>2024-08-14T11:55:28Z</time>
      </trkpt>
      <trkpt lat="44.96114" lon="6.0998">
        <ele>1809.6</ele>
        <time>2024-08-14T11:55:29Z</time>
      </trkpt>
      <trkpt lat="44.96116" lon="6.09982">
        <ele>1809.6</ele>
        <time>2024-08-14T11:55:30Z</time>
      </trkpt>
      <trkpt lat="44.96116" lon="6.09982">
        <ele>1809.6</ele>
        <time>2024-08-14T11:55:31Z</time>
      </trkpt>
      <trkpt lat="44.96116" lon="6.09982">
        <ele>1809.8</ele>
        <time>2024-08-14T11:55:32Z</time>
      </trkpt>
      <trkpt lat="44.96118" lon="6.09984">
        <ele>1809.8</ele>
        <time>2024-08-14T11:55:33Z</time>
      </trkpt>
      <trkpt lat="44.96118" lon="6.09984">
        <ele>1809.6</ele>
        <time>2024-08-14T11:55:34Z</time>
      </trkpt>
      <trkpt lat="44.9612" lon="6.09987">
        <ele>1809.6</ele>
        <time>2024-08-14T11:55:35Z</time>
      </trkpt>
      <trkpt lat="44.9612" lon="6.09987">
        <ele>1809.6</ele>
        <time>2024-08-14T11:55:36Z</time>
      </trkpt>
      <trkpt lat="44.96122" lon="6.09989">
        <ele>1809.6</ele>
        <time>2024-08-14T11:55:37Z</time>
      </trkpt>
      <trkpt lat="44.96122" lon="6.09989">
        <ele>1809.6</ele>
        <time>2024-08-14T11:55:38Z</time>
      </trkpt>
      <trkpt lat="44.96124" lon="6.09991">
        <ele>1809.4</ele>
        <time>2024-08-14T11:55:39Z</time>
      </trkpt>
      <trkpt lat="44.96124" lon="6.09991">
        <ele>1809.2</ele>
        <time>2024-08-14T11:55:40Z</time>
      </trkpt>
      <trkpt lat="44.96126" lon="6.09993">
        <ele>1809.2</ele>
        <time>2024-08-14T11:55:41Z</time>
      </trkpt>
      <trkpt lat="44.96126" lon="6.09993">
        <ele>1809.2</ele>
        <time>2024-08-14T11:55:42Z</time>
      </trkpt>
      <trkpt lat="44.96129" lon="6.09994">
        <ele>1809.2</ele>
        <time>2024-08-14T11:55:43Z</time>
      </trkpt>
      <trkpt lat="44.96129" lon="6.09994">
        <ele>1808.6</ele>
        <time>2024-08-14T11:55:44Z</time>
      </trkpt>
      <trkpt lat="44.96131" lon="6.09997">
        <ele>1808.6</ele>
        <time>2024-08-14T11:55:45Z</time>
      </trkpt>
      <trkpt lat="44.96133" lon="6.09998">
        <ele>1808.4</ele>
        <time>2024-08-14T11:55:46Z</time>
      </trkpt>
      <trkpt lat="44.96133" lon="6.09998">
        <ele>1808.4</ele>
        <time>2024-08-14T11:55:47Z</time>
      </trkpt>
      <trkpt lat="44.96134" lon="6.1">
        <ele>1808.2</ele>
        <time>2024-08-14T11:55:48Z</time>
      </trkpt>
      <trkpt lat="44.96134" lon="6.1">
        <ele>1808</ele>
        <time>2024-08-14T11:55:49Z</time>
      </trkpt>
      <trkpt lat="44.96136" lon="6.10002">
        <ele>1807.8</ele>
        <time>2024-08-14T11:55:50Z</time>
      </trkpt>
      <trkpt lat="44.96136" lon="6.10002">
        <ele>1807.8</ele>
        <time>2024-08-14T11:55:51Z</time>
      </trkpt>
      <trkpt lat="44.96138" lon="6.10005">
        <ele>1807.4</ele>
        <time>2024-08-14T11:55:52Z</time>
      </trkpt>
      <trkpt lat="44.96138" lon="6.10005">
        <ele>1807</ele>
        <time>2024-08-14T11:55:53Z</time>
      </trkpt>
      <trkpt lat="44.9614" lon="6.10007">
        <ele>1806.8</ele>
        <time>2024-08-14T11:55:54Z</time>
      </trkpt>
      <trkpt lat="44.9614" lon="6.10007">
        <ele>1806.8</ele>
        <time>2024-08-14T11:55:55Z</time>
      </trkpt>
      <trkpt lat="44.96142" lon="6.10009">
        <ele>1806.6</ele>
        <time>2024-08-14T11:55:56Z</time>
      </trkpt>
      <trkpt lat="44.96142" lon="6.10009">
        <ele>1806.2</ele>
        <time>2024-08-14T11:55:57Z</time>
      </trkpt>
      <trkpt lat="44.96144" lon="6.1001">
        <ele>1806</ele>
        <time>2024-08-14T11:55:58Z</time>
      </trkpt>
      <trkpt lat="44.96144" lon="6.1001">
        <ele>1805.6</ele>
        <time>2024-08-14T11:55:59Z</time>
      </trkpt>
      <trkpt lat="44.96145" lon="6.10014">
        <ele>1805.6</ele>
        <time>2024-08-14T11:56:00Z</time>
      </trkpt>
      <trkpt lat="44.96145" lon="6.10014">
        <ele>1805.6</ele>
        <time>2024-08-14T11:56:01Z</time>
      </trkpt>
      <trkpt lat="44.96147" lon="6.10017">
        <ele>1805.2</ele>
        <time>2024-08-14T11:56:02Z</time>
      </trkpt>
      <trkpt lat="44.96147" lon="6.10017">
        <ele>1805.2</ele>
        <time>2024-08-14T11:56:03Z</time>
      </trkpt>
      <trkpt lat="44.96149" lon="6.10018">
        <ele>1805.2</ele>
        <time>2024-08-14T11:56:04Z</time>
      </trkpt>
      <trkpt lat="44.96149" lon="6.10018">
        <ele>1805</ele>
        <time>2024-08-14T11:56:05Z</time>
      </trkpt>
      <trkpt lat="44.96152" lon="6.10019">
        <ele>1805</ele>
        <time>2024-08-14T11:56:06Z</time>
      </trkpt>
      <trkpt lat="44.96152" lon="6.10019">
        <ele>1804.6</ele>
        <time>2024-08-14T11:56:07Z</time>
      </trkpt>
      <trkpt lat="44.96154" lon="6.1002">
        <ele>1804.6</ele>
        <time>2024-08-14T11:56:08Z</time>
      </trkpt>
      <trkpt lat="44.96154" lon="6.1002">
        <ele>1804.6</ele>
        <time>2024-08-14T11:56:09Z</time>
      </trkpt>
      <trkpt lat="44.96156" lon="6.1002">
        <ele>1804.6</ele>
        <time>2024-08-14T11:56:10Z</time>
      </trkpt>
      <trkpt lat="44.96156" lon="6.1002">
        <ele>1804.6</ele>
        <time>2024-08-14T11:56:11Z</time>
      </trkpt>
      <trkpt lat="44.96159" lon="6.10021">
        <ele>1804.6</ele>
        <time>2024-08-14T11:56:12Z</time>
      </trkpt>
      <trkpt lat="44.96159" lon="6.10021">
        <ele>1804.6</ele>
        <time>2024-08-14T11:56:13Z</time>
      </trkpt>
      <trkpt lat="44.96162" lon="6.10021">
        <ele>1805</ele>
        <time>2024-08-14T11:56:14Z</time>
      </trkpt>
      <trkpt lat="44.96162" lon="6.10021">
        <ele>1805</ele>
        <time>2024-08-14T11:56:15Z</time>
      </trkpt>
      <trkpt lat="44.96162" lon="6.10021">
        <ele>1804.8</ele>
        <time>2024-08-14T11:56:16Z</time>
      </trkpt>
      <trkpt lat="44.96165" lon="6.10022">
        <ele>1804.6</ele>
        <time>2024-08-14T11:56:17Z</time>
      </trkpt>
      <trkpt lat="44.96167" lon="6.10022">
        <ele>1804.4</ele>
        <time>2024-08-14T11:56:18Z</time>
      </trkpt>
      <trkpt lat="44.96167" lon="6.10022">
        <ele>1804.4</ele>
        <time>2024-08-14T11:56:19Z</time>
      </trkpt>
      <trkpt lat="44.96169" lon="6.10024">
        <ele>1804.4</ele>
        <time>2024-08-14T11:56:20Z</time>
      </trkpt>
      <trkpt lat="44.96169" lon="6.10024">
        <ele>1804.2</ele>
        <time>2024-08-14T11:56:21Z</time>
      </trkpt>
      <trkpt lat="44.96171" lon="6.10024">
        <ele>1804.2</ele>
        <time>2024-08-14T11:56:22Z</time>
      </trkpt>
      <trkpt lat="44.96171" lon="6.10024">
        <ele>1804.2</ele>
        <time>2024-08-14T11:56:23Z</time>
      </trkpt>
      <trkpt lat="44.96173" lon="6.10024">
        <ele>1804.4</ele>
        <time>2024-08-14T11:56:24Z</time>
      </trkpt>
      <trkpt lat="44.96173" lon="6.10024">
        <ele>1804.4</ele>
        <time>2024-08-14T11:56:25Z</time>
      </trkpt>
      <trkpt lat="44.96175" lon="6.10025">
        <ele>1804.2</ele>
        <time>2024-08-14T11:56:26Z</time>
      </trkpt>
      <trkpt lat="44.96175" lon="6.10025">
        <ele>1803.8</ele>
        <time>2024-08-14T11:56:27Z</time>
      </trkpt>
      <trkpt lat="44.96178" lon="6.10025">
        <ele>1803.6</ele>
        <time>2024-08-14T11:56:28Z</time>
      </trkpt>
      <trkpt lat="44.96178" lon="6.10025">
        <ele>1803.4</ele>
        <time>2024-08-14T11:56:29Z</time>
      </trkpt>
      <trkpt lat="44.9618" lon="6.10027">
        <ele>1803</ele>
        <time>2024-08-14T11:56:30Z</time>
      </trkpt>
      <trkpt lat="44.9618" lon="6.10027">
        <ele>1802.8</ele>
        <time>2024-08-14T11:56:31Z</time>
      </trkpt>
      <trkpt lat="44.96182" lon="6.10027">
        <ele>1802.4</ele>
        <time>2024-08-14T11:56:32Z</time>
      </trkpt>
      <trkpt lat="44.96182" lon="6.10027">
        <ele>1802.2</ele>
        <time>2024-08-14T11:56:33Z</time>
      </trkpt>
      <trkpt lat="44.96185" lon="6.10028">
        <ele>1802.2</ele>
        <time>2024-08-14T11:56:34Z</time>
      </trkpt>
      <trkpt lat="44.96185" lon="6.10028">
        <ele>1802</ele>
        <time>2024-08-14T11:56:35Z</time>
      </trkpt>
      <trkpt lat="44.96187" lon="6.10029">
        <ele>1801.8</ele>
        <time>2024-08-14T11:56:36Z</time>
      </trkpt>
      <trkpt lat="44.96187" lon="6.10029">
        <ele>1801.6</ele>
        <time>2024-08-14T11:56:37Z</time>
      </trkpt>
      <trkpt lat="44.9619" lon="6.10031">
        <ele>1801.6</ele>
        <time>2024-08-14T11:56:38Z</time>
      </trkpt>
      <trkpt lat="44.9619" lon="6.10031">
        <ele>1801.8</ele>
        <time>2024-08-14T11:56:39Z</time>
      </trkpt>
      <trkpt lat="44.96192" lon="6.10031">
        <ele>1802</ele>
        <time>2024-08-14T11:56:40Z</time>
      </trkpt>
      <trkpt lat="44.96192" lon="6.10031">
        <ele>1802</ele>
        <time>2024-08-14T11:56:41Z</time>
      </trkpt>
      <trkpt lat="44.96196" lon="6.10032">
        <ele>1802</ele>
        <time>2024-08-14T11:56:42Z</time>
      </trkpt>
      <trkpt lat="44.96197" lon="6.10032">
        <ele>1802.2</ele>
        <time>2024-08-14T11:56:43Z</time>
      </trkpt>
      <trkpt lat="44.96197" lon="6.10032">
        <ele>1802.2</ele>
        <time>2024-08-14T11:56:44Z</time>
      </trkpt>
      <trkpt lat="44.96201" lon="6.10031">
        <ele>1802.2</ele>
        <time>2024-08-14T11:56:45Z</time>
      </trkpt>
      <trkpt lat="44.96201" lon="6.10031">
        <ele>1802.2</ele>
        <time>2024-08-14T11:56:46Z</time>
      </trkpt>
      <trkpt lat="44.96203" lon="6.10031">
        <ele>1802.2</ele>
        <time>2024-08-14T11:56:47Z</time>
      </trkpt>
      <trkpt lat="44.96203" lon="6.10031">
        <ele>1802.2</ele>
        <time>2024-08-14T11:56:48Z</time>
      </trkpt>
      <trkpt lat="44.96203" lon="6.10031">
        <ele>1802.2</ele>
        <time>2024-08-14T11:56:49Z</time>
      </trkpt>
      <trkpt lat="44.96205" lon="6.10032">
        <ele>1802.2</ele>
        <time>2024-08-14T11:56:50Z</time>
      </trkpt>
      <trkpt lat="44.96205" lon="6.10032">
        <ele>1802.4</ele>
        <time>2024-08-14T11:56:51Z</time>
      </trkpt>
      <trkpt lat="44.96207" lon="6.10033">
        <ele>1802.4</ele>
        <time>2024-08-14T11:56:52Z</time>
      </trkpt>
      <trkpt lat="44.96207" lon="6.10033">
        <ele>1802.4</ele>
        <time>2024-08-14T11:56:53Z</time>
      </trkpt>
      <trkpt lat="44.9621" lon="6.10034">
        <ele>1802.4</ele>
        <time>2024-08-14T11:56:54Z</time>
      </trkpt>
      <trkpt lat="44.9621" lon="6.10034">
        <ele>1802.6</ele>
        <time>2024-08-14T11:56:55Z</time>
      </trkpt>
      <trkpt lat="44.96213" lon="6.10036">
        <ele>1802.6</ele>
        <time>2024-08-14T11:56:56Z</time>
      </trkpt>
      <trkpt lat="44.96213" lon="6.10036">
        <ele>1802.6</ele>
        <time>2024-08-14T11:56:57Z</time>
      </trkpt>
      <trkpt lat="44.96215" lon="6.10038">
        <ele>1802.6</ele>
        <time>2024-08-14T11:56:58Z</time>
      </trkpt>
      <trkpt lat="44.96215" lon="6.10038">
        <ele>1802.8</ele>
        <time>2024-08-14T11:56:59Z</time>
      </trkpt>
      <trkpt lat="44.96216" lon="6.10042">
        <ele>1802.8</ele>
        <time>2024-08-14T11:57:00Z</time>
      </trkpt>
      <trkpt lat="44.96217" lon="6.10044">
        <ele>1802.8</ele>
        <time>2024-08-14T11:57:01Z</time>
      </trkpt>
      <trkpt lat="44.96218" lon="6.10046">
        <ele>1802.4</ele>
        <time>2024-08-14T11:57:02Z</time>
      </trkpt>
      <trkpt lat="44.96218" lon="6.10046">
        <ele>1802</ele>
        <time>2024-08-14T11:57:03Z</time>
      </trkpt>
      <trkpt lat="44.96221" lon="6.10049">
        <ele>1801.8</ele>
        <time>2024-08-14T11:57:04Z</time>
      </trkpt>
      <trkpt lat="44.96221" lon="6.10049">
        <ele>1801.6</ele>
        <time>2024-08-14T11:57:05Z</time>
      </trkpt>
      <trkpt lat="44.96222" lon="6.10051">
        <ele>1801.6</ele>
        <time>2024-08-14T11:57:06Z</time>
      </trkpt>
      <trkpt lat="44.96222" lon="6.10051">
        <ele>1801.2</ele>
        <time>2024-08-14T11:57:07Z</time>
      </trkpt>
      <trkpt lat="44.96224" lon="6.10055">
        <ele>1800.8</ele>
        <time>2024-08-14T11:57:08Z</time>
      </trkpt>
      <trkpt lat="44.96224" lon="6.10055">
        <ele>1800.6</ele>
        <time>2024-08-14T11:57:09Z</time>
      </trkpt>
      <trkpt lat="44.96227" lon="6.10058">
        <ele>1800.6</ele>
        <time>2024-08-14T11:57:10Z</time>
      </trkpt>
      <trkpt lat="44.96227" lon="6.10058">
        <ele>1800.4</ele>
        <time>2024-08-14T11:57:11Z</time>
      </trkpt>
      <trkpt lat="44.96229" lon="6.10062">
        <ele>1800</ele>
        <time>2024-08-14T11:57:12Z</time>
      </trkpt>
      <trkpt lat="44.96229" lon="6.10062">
        <ele>1799.8</ele>
        <time>2024-08-14T11:57:13Z</time>
      </trkpt>
      <trkpt lat="44.96231" lon="6.10064">
        <ele>1799.6</ele>
        <time>2024-08-14T11:57:14Z</time>
      </trkpt>
      <trkpt lat="44.96231" lon="6.10064">
        <ele>1799.4</ele>
        <time>2024-08-14T11:57:15Z</time>
      </trkpt>
      <trkpt lat="44.96233" lon="6.10066">
        <ele>1799.2</ele>
        <time>2024-08-14T11:57:16Z</time>
      </trkpt>
      <trkpt lat="44.96233" lon="6.10066">
        <ele>1799.2</ele>
        <time>2024-08-14T11:57:17Z</time>
      </trkpt>
      <trkpt lat="44.96235" lon="6.10069">
        <ele>1799</ele>
        <time>2024-08-14T11:57:18Z</time>
      </trkpt>
      <trkpt lat="44.96235" lon="6.10069">
        <ele>1798.8</ele>
        <time>2024-08-14T11:57:19Z</time>
      </trkpt>
      <trkpt lat="44.96237" lon="6.10072">
        <ele>1798.4</ele>
        <time>2024-08-14T11:57:20Z</time>
      </trkpt>
      <trkpt lat="44.96237" lon="6.10072">
        <ele>1798.2</ele>
        <time>2024-08-14T11:57:21Z</time>
      </trkpt>
      <trkpt lat="44.96239" lon="6.10075">
        <ele>1798</ele>
        <time>2024-08-14T11:57:22Z</time>
      </trkpt>
      <trkpt lat="44.96239" lon="6.10075">
        <ele>1798</ele>
        <time>2024-08-14T11:57:23Z</time>
      </trkpt>
      <trkpt lat="44.96241" lon="6.10078">
        <ele>1797.8</ele>
        <time>2024-08-14T11:57:24Z</time>
      </trkpt>
      <trkpt lat="44.96241" lon="6.10078">
        <ele>1797.6</ele>
        <time>2024-08-14T11:57:25Z</time>
      </trkpt>
      <trkpt lat="44.96242" lon="6.10081">
        <ele>1797.6</ele>
        <time>2024-08-14T11:57:26Z</time>
      </trkpt>
      <trkpt lat="44.96242" lon="6.10081">
        <ele>1797.6</ele>
        <time>2024-08-14T11:57:27Z</time>
      </trkpt>
      <trkpt lat="44.96244" lon="6.10085">
        <ele>1797.6</ele>
        <time>2024-08-14T11:57:28Z</time>
      </trkpt>
      <trkpt lat="44.96244" lon="6.10085">
        <ele>1797.6</ele>
        <time>2024-08-14T11:57:29Z</time>
      </trkpt>
      <trkpt lat="44.96244" lon="6.10085">
        <ele>1797.6</ele>
        <time>2024-08-14T11:57:30Z</time>
      </trkpt>
      <trkpt lat="44.96245" lon="6.10086">
        <ele>1797.2</ele>
        <time>2024-08-14T11:57:31Z</time>
      </trkpt>
      <trkpt lat="44.96245" lon="6.10086">
        <ele>1797</ele>
        <time>2024-08-14T11:57:32Z</time>
      </trkpt>
      <trkpt lat="44.96245" lon="6.10086">
        <ele>1796.8</ele>
        <time>2024-08-14T11:57:33Z</time>
      </trkpt>
      <trkpt lat="44.96247" lon="6.10085">
        <ele>1796.4</ele>
        <time>2024-08-14T11:57:34Z</time>
      </trkpt>
      <trkpt lat="44.96247" lon="6.10085">
        <ele>1796.2</ele>
        <time>2024-08-14T11:57:35Z</time>
      </trkpt>
      <trkpt lat="44.96247" lon="6.10085">
        <ele>1796.2</ele>
        <time>2024-08-14T11:57:36Z</time>
      </trkpt>
      <trkpt lat="44.96248" lon="6.10088">
        <ele>1796</ele>
        <time>2024-08-14T11:57:37Z</time>
      </trkpt>
      <trkpt lat="44.96248" lon="6.10088">
        <ele>1795.6</ele>
        <time>2024-08-14T11:57:38Z</time>
      </trkpt>
      <trkpt lat="44.96248" lon="6.10088">
        <ele>1795.2</ele>
        <time>2024-08-14T11:57:39Z</time>
      </trkpt>
      <trkpt lat="44.96248" lon="6.10091">
        <ele>1794.6</ele>
        <time>2024-08-14T11:57:40Z</time>
      </trkpt>
      <trkpt lat="44.96248" lon="6.10091">
        <ele>1794.2</ele>
        <time>2024-08-14T11:57:41Z</time>
      </trkpt>
      <trkpt lat="44.96248" lon="6.10091">
        <ele>1794.2</ele>
        <time>2024-08-14T11:57:42Z</time>
      </trkpt>
      <trkpt lat="44.9625" lon="6.10089">
        <ele>1794</ele>
        <time>2024-08-14T11:57:43Z</time>
      </trkpt>
      <trkpt lat="44.9625" lon="6.10089">
        <ele>1793.6</ele>
        <time>2024-08-14T11:57:44Z</time>
      </trkpt>
      <trkpt lat="44.96253" lon="6.10088">
        <ele>1793.2</ele>
        <time>2024-08-14T11:57:45Z</time>
      </trkpt>
      <trkpt lat="44.96253" lon="6.10088">
        <ele>1793</ele>
        <time>2024-08-14T11:57:46Z</time>
      </trkpt>
      <trkpt lat="44.96255" lon="6.1009">
        <ele>1793</ele>
        <time>2024-08-14T11:57:47Z</time>
      </trkpt>
      <trkpt lat="44.96255" lon="6.1009">
        <ele>1793</ele>
        <time>2024-08-14T11:57:48Z</time>
      </trkpt>
      <trkpt lat="44.96256" lon="6.10092">
        <ele>1792.8</ele>
        <time>2024-08-14T11:57:49Z</time>
      </trkpt>
      <trkpt lat="44.96256" lon="6.10092">
        <ele>1792.8</ele>
        <time>2024-08-14T11:57:50Z</time>
      </trkpt>
      <trkpt lat="44.96258" lon="6.10094">
        <ele>1793</ele>
        <time>2024-08-14T11:57:51Z</time>
      </trkpt>
      <trkpt lat="44.96258" lon="6.10094">
        <ele>1793</ele>
        <time>2024-08-14T11:57:52Z</time>
      </trkpt>
      <trkpt lat="44.96259" lon="6.10097">
        <ele>1792.8</ele>
        <time>2024-08-14T11:57:53Z</time>
      </trkpt>
      <trkpt lat="44.96259" lon="6.10097">
        <ele>1792.6</ele>
        <time>2024-08-14T11:57:54Z</time>
      </trkpt>
      <trkpt lat="44.96259" lon="6.10097">
        <ele>1792.6</ele>
        <time>2024-08-14T11:57:55Z</time>
      </trkpt>
      <trkpt lat="44.96261" lon="6.101">
        <ele>1792.4</ele>
        <time>2024-08-14T11:57:56Z</time>
      </trkpt>
      <trkpt lat="44.96261" lon="6.101">
        <ele>1792.2</ele>
        <time>2024-08-14T11:57:57Z</time>
      </trkpt>
      <trkpt lat="44.96261" lon="6.101">
        <ele>1792</ele>
        <time>2024-08-14T11:57:58Z</time>
      </trkpt>
      <trkpt lat="44.96263" lon="6.101">
        <ele>1791.8</ele>
        <time>2024-08-14T11:57:59Z</time>
      </trkpt>
      <trkpt lat="44.96263" lon="6.101">
        <ele>1791.4</ele>
        <time>2024-08-14T11:58:00Z</time>
      </trkpt>
      <trkpt lat="44.96265" lon="6.10102">
        <ele>1791</ele>
        <time>2024-08-14T11:58:01Z</time>
      </trkpt>
      <trkpt lat="44.96265" lon="6.10102">
        <ele>1790.8</ele>
        <time>2024-08-14T11:58:02Z</time>
      </trkpt>
      <trkpt lat="44.96267" lon="6.10104">
        <ele>1790.8</ele>
        <time>2024-08-14T11:58:03Z</time>
      </trkpt>
      <trkpt lat="44.96269" lon="6.10105">
        <ele>1790.2</ele>
        <time>2024-08-14T11:58:04Z</time>
      </trkpt>
      <trkpt lat="44.96269" lon="6.10105">
        <ele>1790</ele>
        <time>2024-08-14T11:58:05Z</time>
      </trkpt>
      <trkpt lat="44.96271" lon="6.10108">
        <ele>1789.6</ele>
        <time>2024-08-14T11:58:06Z</time>
      </trkpt>
      <trkpt lat="44.96271" lon="6.10108">
        <ele>1789.6</ele>
        <time>2024-08-14T11:58:07Z</time>
      </trkpt>
      <trkpt lat="44.96273" lon="6.10111">
        <ele>1789.6</ele>
        <time>2024-08-14T11:58:08Z</time>
      </trkpt>
      <trkpt lat="44.96273" lon="6.10111">
        <ele>1789.6</ele>
        <time>2024-08-14T11:58:09Z</time>
      </trkpt>
      <trkpt lat="44.96275" lon="6.10113">
        <ele>1789.6</ele>
        <time>2024-08-14T11:58:10Z</time>
      </trkpt>
      <trkpt lat="44.96275" lon="6.10113">
        <ele>1789.4</ele>
        <time>2024-08-14T11:58:11Z</time>
      </trkpt>
      <trkpt lat="44.96277" lon="6.10114">
        <ele>1789.4</ele>
        <time>2024-08-14T11:58:12Z</time>
      </trkpt>
      <trkpt lat="44.96277" lon="6.10114">
        <ele>1789.4</ele>
        <time>2024-08-14T11:58:13Z</time>
      </trkpt>
      <trkpt lat="44.96279" lon="6.10114">
        <ele>1789.4</ele>
        <time>2024-08-14T11:58:14Z</time>
      </trkpt>
      <trkpt lat="44.96279" lon="6.10114">
        <ele>1789.4</ele>
        <time>2024-08-14T11:58:15Z</time>
      </trkpt>
      <trkpt lat="44.96281" lon="6.10115">
        <ele>1789.4</ele>
        <time>2024-08-14T11:58:16Z</time>
      </trkpt>
      <trkpt lat="44.96281" lon="6.10115">
        <ele>1789.4</ele>
        <time>2024-08-14T11:58:17Z</time>
      </trkpt>
      <trkpt lat="44.96284" lon="6.10116">
        <ele>1789.2</ele>
        <time>2024-08-14T11:58:18Z</time>
      </trkpt>
      <trkpt lat="44.96284" lon="6.10116">
        <ele>1789.2</ele>
        <time>2024-08-14T11:58:19Z</time>
      </trkpt>
      <trkpt lat="44.96286" lon="6.10116">
        <ele>1789.2</ele>
        <time>2024-08-14T11:58:20Z</time>
      </trkpt>
      <trkpt lat="44.96286" lon="6.10116">
        <ele>1789.2</ele>
        <time>2024-08-14T11:58:21Z</time>
      </trkpt>
      <trkpt lat="44.96289" lon="6.10118">
        <ele>1789.2</ele>
        <time>2024-08-14T11:58:22Z</time>
      </trkpt>
      <trkpt lat="44.96289" lon="6.10118">
        <ele>1789.2</ele>
        <time>2024-08-14T11:58:23Z</time>
      </trkpt>
      <trkpt lat="44.96291" lon="6.10118">
        <ele>1789</ele>
        <time>2024-08-14T11:58:24Z</time>
      </trkpt>
      <trkpt lat="44.96291" lon="6.10118">
        <ele>1789</ele>
        <time>2024-08-14T11:58:25Z</time>
      </trkpt>
      <trkpt lat="44.96294" lon="6.10116">
        <ele>1788.8</ele>
        <time>2024-08-14T11:58:26Z</time>
      </trkpt>
      <trkpt lat="44.96294" lon="6.10116">
        <ele>1788.8</ele>
        <time>2024-08-14T11:58:27Z</time>
      </trkpt>
      <trkpt lat="44.96296" lon="6.10115">
        <ele>1788.8</ele>
        <time>2024-08-14T11:58:28Z</time>
      </trkpt>
      <trkpt lat="44.96296" lon="6.10115">
        <ele>1788.8</ele>
        <time>2024-08-14T11:58:29Z</time>
      </trkpt>
      <trkpt lat="44.96298" lon="6.10115">
        <ele>1788.8</ele>
        <time>2024-08-14T11:58:30Z</time>
      </trkpt>
      <trkpt lat="44.96298" lon="6.10115">
        <ele>1788.8</ele>
        <time>2024-08-14T11:58:31Z</time>
      </trkpt>
      <trkpt lat="44.963" lon="6.10116">
        <ele>1788.8</ele>
        <time>2024-08-14T11:58:32Z</time>
      </trkpt>
      <trkpt lat="44.963" lon="6.10116">
        <ele>1788.6</ele>
        <time>2024-08-14T11:58:33Z</time>
      </trkpt>
      <trkpt lat="44.963" lon="6.10116">
        <ele>1788.4</ele>
        <time>2024-08-14T11:58:34Z</time>
      </trkpt>
      <trkpt lat="44.96302" lon="6.10116">
        <ele>1788</ele>
        <time>2024-08-14T11:58:35Z</time>
      </trkpt>
      <trkpt lat="44.96302" lon="6.10116">
        <ele>1787.8</ele>
        <time>2024-08-14T11:58:36Z</time>
      </trkpt>
      <trkpt lat="44.96302" lon="6.10116">
        <ele>1787.8</ele>
        <time>2024-08-14T11:58:37Z</time>
      </trkpt>
      <trkpt lat="44.96302" lon="6.10116">
        <ele>1787.8</ele>
        <time>2024-08-14T11:58:38Z</time>
      </trkpt>
      <trkpt lat="44.96302" lon="6.10116">
        <ele>1787.4</ele>
        <time>2024-08-14T11:58:39Z</time>
      </trkpt>
      <trkpt lat="44.96304" lon="6.10114">
        <ele>1787.2</ele>
        <time>2024-08-14T11:58:40Z</time>
      </trkpt>
      <trkpt lat="44.96304" lon="6.10114">
        <ele>1787</ele>
        <time>2024-08-14T11:58:41Z</time>
      </trkpt>
      <trkpt lat="44.96304" lon="6.10114">
        <ele>1787</ele>
        <time>2024-08-14T11:58:42Z</time>
      </trkpt>
      <trkpt lat="44.96304" lon="6.10114">
        <ele>1786.6</ele>
        <time>2024-08-14T11:58:43Z</time>
      </trkpt>
      <trkpt lat="44.96307" lon="6.10114">
        <ele>1786.6</ele>
        <time>2024-08-14T11:58:44Z</time>
      </trkpt>
      <trkpt lat="44.96307" lon="6.10114">
        <ele>1786.6</ele>
        <time>2024-08-14T11:58:45Z</time>
      </trkpt>
      <trkpt lat="44.96307" lon="6.10114">
        <ele>1786.4</ele>
        <time>2024-08-14T11:58:46Z</time>
      </trkpt>
      <trkpt lat="44.96309" lon="6.10114">
        <ele>1786.2</ele>
        <time>2024-08-14T11:58:47Z</time>
      </trkpt>
      <trkpt lat="44.96309" lon="6.10114">
        <ele>1786</ele>
        <time>2024-08-14T11:58:48Z</time>
      </trkpt>
      <trkpt lat="44.96311" lon="6.10114">
        <ele>1785.6</ele>
        <time>2024-08-14T11:58:49Z</time>
      </trkpt>
      <trkpt lat="44.96311" lon="6.10114">
        <ele>1785.6</ele>
        <time>2024-08-14T11:58:50Z</time>
      </trkpt>
      <trkpt lat="44.96311" lon="6.10114">
        <ele>1785.4</ele>
        <time>2024-08-14T11:58:51Z</time>
      </trkpt>
      <trkpt lat="44.96313" lon="6.10115">
        <ele>1784.8</ele>
        <time>2024-08-14T11:58:52Z</time>
      </trkpt>
      <trkpt lat="44.96313" lon="6.10115">
        <ele>1784.4</ele>
        <time>2024-08-14T11:58:53Z</time>
      </trkpt>
      <trkpt lat="44.96313" lon="6.10115">
        <ele>1784.4</ele>
        <time>2024-08-14T11:58:54Z</time>
      </trkpt>
      <trkpt lat="44.96314" lon="6.10118">
        <ele>1784.4</ele>
        <time>2024-08-14T11:58:55Z</time>
      </trkpt>
      <trkpt lat="44.96314" lon="6.10118">
        <ele>1784.4</ele>
        <time>2024-08-14T11:58:56Z</time>
      </trkpt>
      <trkpt lat="44.96314" lon="6.10118">
        <ele>1784.2</ele>
        <time>2024-08-14T11:58:57Z</time>
      </trkpt>
      <trkpt lat="44.96312" lon="6.10121">
        <ele>1784</ele>
        <time>2024-08-14T11:58:58Z</time>
      </trkpt>
      <trkpt lat="44.96312" lon="6.10121">
        <ele>1783.6</ele>
        <time>2024-08-14T11:58:59Z</time>
      </trkpt>
      <trkpt lat="44.96312" lon="6.10121">
        <ele>1783.4</ele>
        <time>2024-08-14T11:59:00Z</time>
      </trkpt>
      <trkpt lat="44.96311" lon="6.10123">
        <ele>1783.2</ele>
        <time>2024-08-14T11:59:01Z</time>
      </trkpt>
      <trkpt lat="44.96311" lon="6.10123">
        <ele>1783</ele>
        <time>2024-08-14T11:59:02Z</time>
      </trkpt>
      <trkpt lat="44.96311" lon="6.10123">
        <ele>1783</ele>
        <time>2024-08-14T11:59:03Z</time>
      </trkpt>
      <trkpt lat="44.96311" lon="6.10123">
        <ele>1782.6</ele>
        <time>2024-08-14T11:59:04Z</time>
      </trkpt>
      <trkpt lat="44.9631" lon="6.10125">
        <ele>1782.2</ele>
        <time>2024-08-14T11:59:05Z</time>
      </trkpt>
      <trkpt lat="44.9631" lon="6.10125">
        <ele>1781.8</ele>
        <time>2024-08-14T11:59:06Z</time>
      </trkpt>
      <trkpt lat="44.9631" lon="6.10125">
        <ele>1781.2</ele>
        <time>2024-08-14T11:59:07Z</time>
      </trkpt>
      <trkpt lat="44.96308" lon="6.10128">
        <ele>1781</ele>
        <time>2024-08-14T11:59:08Z</time>
      </trkpt>
      <trkpt lat="44.96308" lon="6.10128">
        <ele>1780.6</ele>
        <time>2024-08-14T11:59:09Z</time>
      </trkpt>
      <trkpt lat="44.96308" lon="6.10128">
        <ele>1780.4</ele>
        <time>2024-08-14T11:59:10Z</time>
      </trkpt>
      <trkpt lat="44.96308" lon="6.10128">
        <ele>1780.2</ele>
        <time>2024-08-14T11:59:11Z</time>
      </trkpt>
      <trkpt lat="44.96307" lon="6.1013">
        <ele>1780.2</ele>
        <time>2024-08-14T11:59:12Z</time>
      </trkpt>
      <trkpt lat="44.96307" lon="6.1013">
        <ele>1780.2</ele>
        <time>2024-08-14T11:59:13Z</time>
      </trkpt>
      <trkpt lat="44.96307" lon="6.1013">
        <ele>1780.2</ele>
        <time>2024-08-14T11:59:14Z</time>
      </trkpt>
      <trkpt lat="44.96307" lon="6.1013">
        <ele>1780</ele>
        <time>2024-08-14T11:59:15Z</time>
      </trkpt>
      <trkpt lat="44.96307" lon="6.1013">
        <ele>1779.6</ele>
        <time>2024-08-14T11:59:16Z</time>
      </trkpt>
      <trkpt lat="44.96307" lon="6.1013">
        <ele>1779.6</ele>
        <time>2024-08-14T11:59:17Z</time>
      </trkpt>
      <trkpt lat="44.96307" lon="6.1013">
        <ele>1779.6</ele>
        <time>2024-08-14T11:59:18Z</time>
      </trkpt>
      <trkpt lat="44.96309" lon="6.10129">
        <ele>1779.4</ele>
        <time>2024-08-14T11:59:19Z</time>
      </trkpt>
      <trkpt lat="44.96309" lon="6.10129">
        <ele>1779</ele>
        <time>2024-08-14T11:59:20Z</time>
      </trkpt>
      <trkpt lat="44.9631" lon="6.1013">
        <ele>1778.8</ele>
        <time>2024-08-14T11:59:21Z</time>
      </trkpt>
      <trkpt lat="44.9631" lon="6.1013">
        <ele>1778.4</ele>
        <time>2024-08-14T11:59:22Z</time>
      </trkpt>
      <trkpt lat="44.9631" lon="6.1013">
        <ele>1778.2</ele>
        <time>2024-08-14T11:59:23Z</time>
      </trkpt>
      <trkpt lat="44.9631" lon="6.1013">
        <ele>1778</ele>
        <time>2024-08-14T11:59:24Z</time>
      </trkpt>
      <trkpt lat="44.9631" lon="6.1013">
        <ele>1777.8</ele>
        <time>2024-08-14T11:59:25Z</time>
      </trkpt>
      <trkpt lat="44.9631" lon="6.1013">
        <ele>1777.6</ele>
        <time>2024-08-14T11:59:26Z</time>
      </trkpt>
      <trkpt lat="44.9631" lon="6.1013">
        <ele>1777.2</ele>
        <time>2024-08-14T11:59:27Z</time>
      </trkpt>
      <trkpt lat="44.96312" lon="6.10132">
        <ele>1777.2</ele>
        <time>2024-08-14T11:59:28Z</time>
      </trkpt>
      <trkpt lat="44.96312" lon="6.10132">
        <ele>1776.6</ele>
        <time>2024-08-14T11:59:29Z</time>
      </trkpt>
      <trkpt lat="44.96312" lon="6.10132">
        <ele>1776.2</ele>
        <time>2024-08-14T11:59:30Z</time>
      </trkpt>
      <trkpt lat="44.96312" lon="6.10132">
        <ele>1775.8</ele>
        <time>2024-08-14T11:59:31Z</time>
      </trkpt>
      <trkpt lat="44.96314" lon="6.10135">
        <ele>1775.8</ele>
        <time>2024-08-14T11:59:32Z</time>
      </trkpt>
      <trkpt lat="44.96314" lon="6.10135">
        <ele>1775.6</ele>
        <time>2024-08-14T11:59:33Z</time>
      </trkpt>
      <trkpt lat="44.96317" lon="6.10138">
        <ele>1775</ele>
        <time>2024-08-14T11:59:34Z</time>
      </trkpt>
      <trkpt lat="44.96317" lon="6.10138">
        <ele>1774.8</ele>
        <time>2024-08-14T11:59:35Z</time>
      </trkpt>
      <trkpt lat="44.96321" lon="6.10139">
        <ele>1774.6</ele>
        <time>2024-08-14T11:59:36Z</time>
      </trkpt>
      <trkpt lat="44.96321" lon="6.10139">
        <ele>1774.4</ele>
        <time>2024-08-14T11:59:37Z</time>
      </trkpt>
      <trkpt lat="44.96324" lon="6.1014">
        <ele>1774.2</ele>
        <time>2024-08-14T11:59:38Z</time>
      </trkpt>
      <trkpt lat="44.96324" lon="6.1014">
        <ele>1774.2</ele>
        <time>2024-08-14T11:59:39Z</time>
      </trkpt>
      <trkpt lat="44.96324" lon="6.1014">
        <ele>1774</ele>
        <time>2024-08-14T11:59:40Z</time>
      </trkpt>
      <trkpt lat="44.96326" lon="6.10142">
        <ele>1773.8</ele>
        <time>2024-08-14T11:59:41Z</time>
      </trkpt>
      <trkpt lat="44.96326" lon="6.10142">
        <ele>1773.2</ele>
        <time>2024-08-14T11:59:42Z</time>
      </trkpt>
      <trkpt lat="44.96328" lon="6.10143">
        <ele>1773</ele>
        <time>2024-08-14T11:59:43Z</time>
      </trkpt>
      <trkpt lat="44.96328" lon="6.10143">
        <ele>1772.6</ele>
        <time>2024-08-14T11:59:44Z</time>
      </trkpt>
      <trkpt lat="44.9633" lon="6.10145">
        <ele>1772.4</ele>
        <time>2024-08-14T11:59:45Z</time>
      </trkpt>
      <trkpt lat="44.9633" lon="6.10145">
        <ele>1772.2</ele>
        <time>2024-08-14T11:59:46Z</time>
      </trkpt>
      <trkpt lat="44.96331" lon="6.10149">
        <ele>1772</ele>
        <time>2024-08-14T11:59:47Z</time>
      </trkpt>
      <trkpt lat="44.96331" lon="6.10149">
        <ele>1772</ele>
        <time>2024-08-14T11:59:48Z</time>
      </trkpt>
      <trkpt lat="44.96332" lon="6.10152">
        <ele>1771.6</ele>
        <time>2024-08-14T11:59:49Z</time>
      </trkpt>
      <trkpt lat="44.96332" lon="6.10152">
        <ele>1771.2</ele>
        <time>2024-08-14T11:59:50Z</time>
      </trkpt>
      <trkpt lat="44.96332" lon="6.10152">
        <ele>1771</ele>
        <time>2024-08-14T11:59:51Z</time>
      </trkpt>
      <trkpt lat="44.96332" lon="6.10156">
        <ele>1770.6</ele>
        <time>2024-08-14T11:59:52Z</time>
      </trkpt>
      <trkpt lat="44.96332" lon="6.10156">
        <ele>1770.6</ele>
        <time>2024-08-14T11:59:53Z</time>
      </trkpt>
      <trkpt lat="44.96332" lon="6.10158">
        <ele>1770.4</ele>
        <time>2024-08-14T11:59:54Z</time>
      </trkpt>
      <trkpt lat="44.96332" lon="6.10158">
        <ele>1770.2</ele>
        <time>2024-08-14T11:59:55Z</time>
      </trkpt>
      <trkpt lat="44.96333" lon="6.10162">
        <ele>1769.6</ele>
        <time>2024-08-14T11:59:56Z</time>
      </trkpt>
      <trkpt lat="44.96333" lon="6.10162">
        <ele>1769.4</ele>
        <time>2024-08-14T11:59:57Z</time>
      </trkpt>
      <trkpt lat="44.96333" lon="6.10164">
        <ele>1769.2</ele>
        <time>2024-08-14T11:59:58Z</time>
      </trkpt>
      <trkpt lat="44.96333" lon="6.10164">
        <ele>1769.2</ele>
        <time>2024-08-14T11:59:59Z</time>
      </trkpt>
      <trkpt lat="44.96334" lon="6.10167">
        <ele>1769.4</ele>
        <time>2024-08-14T12:00:00Z</time>
      </trkpt>
      <trkpt lat="44.96334" lon="6.10167">
        <ele>1769.4</ele>
        <time>2024-08-14T12:00:01Z</time>
      </trkpt>
      <trkpt lat="44.96336" lon="6.10169">
        <ele>1768.8</ele>
        <time>2024-08-14T12:00:02Z</time>
      </trkpt>
      <trkpt lat="44.96336" lon="6.10169">
        <ele>1768.8</ele>
        <time>2024-08-14T12:00:03Z</time>
      </trkpt>
      <trkpt lat="44.96338" lon="6.10171">
        <ele>1768.6</ele>
        <time>2024-08-14T12:00:04Z</time>
      </trkpt>
      <trkpt lat="44.96338" lon="6.10171">
        <ele>1768.4</ele>
        <time>2024-08-14T12:00:05Z</time>
      </trkpt>
      <trkpt lat="44.9634" lon="6.10173">
        <ele>1768.2</ele>
        <time>2024-08-14T12:00:06Z</time>
      </trkpt>
      <trkpt lat="44.9634" lon="6.10173">
        <ele>1768</ele>
        <time>2024-08-14T12:00:07Z</time>
      </trkpt>
      <trkpt lat="44.96341" lon="6.10174">
        <ele>1768</ele>
        <time>2024-08-14T12:00:08Z</time>
      </trkpt>
      <trkpt lat="44.96341" lon="6.10174">
        <ele>1768</ele>
        <time>2024-08-14T12:00:09Z</time>
      </trkpt>
      <trkpt lat="44.96343" lon="6.10176">
        <ele>1767.8</ele>
        <time>2024-08-14T12:00:10Z</time>
      </trkpt>
      <trkpt lat="44.96343" lon="6.10176">
        <ele>1767.8</ele>
        <time>2024-08-14T12:00:11Z</time>
      </trkpt>
      <trkpt lat="44.96343" lon="6.10176">
        <ele>1767.8</ele>
        <time>2024-08-14T12:00:12Z</time>
      </trkpt>
      <trkpt lat="44.96344" lon="6.10179">
        <ele>1767.8</ele>
        <time>2024-08-14T12:00:13Z</time>
      </trkpt>
      <trkpt lat="44.96344" lon="6.10179">
        <ele>1767.8</ele>
        <time>2024-08-14T12:00:14Z</time>
      </trkpt>
      <trkpt lat="44.96346" lon="6.10181">
        <ele>1767.4</ele>
        <time>2024-08-14T12:00:15Z</time>
      </trkpt>
      <trkpt lat="44.96346" lon="6.10181">
        <ele>1767</ele>
        <time>2024-08-14T12:00:16Z</time>
      </trkpt>
      <trkpt lat="44.96346" lon="6.10181">
        <ele>1767</ele>
        <time>2024-08-14T12:00:17Z</time>
      </trkpt>
      <trkpt lat="44.96348" lon="6.10184">
        <ele>1766.6</ele>
        <time>2024-08-14T12:00:18Z</time>
      </trkpt>
      <trkpt lat="44.96348" lon="6.10184">
        <ele>1766.2</ele>
        <time>2024-08-14T12:00:19Z</time>
      </trkpt>
      <trkpt lat="44.96349" lon="6.10187">
        <ele>1766</ele>
        <time>2024-08-14T12:00:20Z</time>
      </trkpt>
      <trkpt lat="44.96349" lon="6.10187">
        <ele>1765.6</ele>
        <time>2024-08-14T12:00:21Z</time>
      </trkpt>
      <trkpt lat="44.96351" lon="6.1019">
        <ele>1765.4</ele>
        <time>2024-08-14T12:00:22Z</time>
      </trkpt>
      <trkpt lat="44.96351" lon="6.1019">
        <ele>1765.2</ele>
        <time>2024-08-14T12:00:23Z</time>
      </trkpt>
      <trkpt lat="44.96353" lon="6.10192">
        <ele>1764.8</ele>
        <time>2024-08-14T12:00:24Z</time>
      </trkpt>
      <trkpt lat="44.96353" lon="6.10192">
        <ele>1764.6</ele>
        <time>2024-08-14T12:00:25Z</time>
      </trkpt>
      <trkpt lat="44.96355" lon="6.10194">
        <ele>1764.6</ele>
        <time>2024-08-14T12:00:26Z</time>
      </trkpt>
      <trkpt lat="44.96355" lon="6.10194">
        <ele>1764.6</ele>
        <time>2024-08-14T12:00:27Z</time>
      </trkpt>
      <trkpt lat="44.96355" lon="6.10194">
        <ele>1764.4</ele>
        <time>2024-08-14T12:00:28Z</time>
      </trkpt>
      <trkpt lat="44.96357" lon="6.10195">
        <ele>1764.4</ele>
        <time>2024-08-14T12:00:29Z</time>
      </trkpt>
      <trkpt lat="44.96357" lon="6.10195">
        <ele>1764.2</ele>
        <time>2024-08-14T12:00:30Z</time>
      </trkpt>
      <trkpt lat="44.96357" lon="6.10195">
        <ele>1764.2</ele>
        <time>2024-08-14T12:00:31Z</time>
      </trkpt>
      <trkpt lat="44.96357" lon="6.10195">
        <ele>1764</ele>
        <time>2024-08-14T12:00:32Z</time>
      </trkpt>
      <trkpt lat="44.96358" lon="6.10199">
        <ele>1763.6</ele>
        <time>2024-08-14T12:00:33Z</time>
      </trkpt>
      <trkpt lat="44.96358" lon="6.10199">
        <ele>1763.4</ele>
        <time>2024-08-14T12:00:34Z</time>
      </trkpt>
      <trkpt lat="44.96358" lon="6.10202">
        <ele>1763.2</ele>
        <time>2024-08-14T12:00:35Z</time>
      </trkpt>
      <trkpt lat="44.96358" lon="6.10202">
        <ele>1762.8</ele>
        <time>2024-08-14T12:00:36Z</time>
      </trkpt>
      <trkpt lat="44.9636" lon="6.10204">
        <ele>1762.4</ele>
        <time>2024-08-14T12:00:37Z</time>
      </trkpt>
      <trkpt lat="44.9636" lon="6.10204">
        <ele>1762</ele>
        <time>2024-08-14T12:00:38Z</time>
      </trkpt>
      <trkpt lat="44.96361" lon="6.10207">
        <ele>1761.6</ele>
        <time>2024-08-14T12:00:39Z</time>
      </trkpt>
      <trkpt lat="44.96361" lon="6.10207">
        <ele>1761.4</ele>
        <time>2024-08-14T12:00:40Z</time>
      </trkpt>
      <trkpt lat="44.96361" lon="6.10207">
        <ele>1761.2</ele>
        <time>2024-08-14T12:00:41Z</time>
      </trkpt>
      <trkpt lat="44.96363" lon="6.1021">
        <ele>1761</ele>
        <time>2024-08-14T12:00:42Z</time>
      </trkpt>
      <trkpt lat="44.96363" lon="6.1021">
        <ele>1760.8</ele>
        <time>2024-08-14T12:00:43Z</time>
      </trkpt>
      <trkpt lat="44.96364" lon="6.10213">
        <ele>1760.4</ele>
        <time>2024-08-14T12:00:44Z</time>
      </trkpt>
      <trkpt lat="44.96364" lon="6.10213">
        <ele>1760.2</ele>
        <time>2024-08-14T12:00:45Z</time>
      </trkpt>
      <trkpt lat="44.96365" lon="6.10216">
        <ele>1759.8</ele>
        <time>2024-08-14T12:00:46Z</time>
      </trkpt>
      <trkpt lat="44.96365" lon="6.10216">
        <ele>1759.6</ele>
        <time>2024-08-14T12:00:47Z</time>
      </trkpt>
      <trkpt lat="44.96365" lon="6.10219">
        <ele>1759.4</ele>
        <time>2024-08-14T12:00:48Z</time>
      </trkpt>
      <trkpt lat="44.96365" lon="6.10219">
        <ele>1759.4</ele>
        <time>2024-08-14T12:00:49Z</time>
      </trkpt>
      <trkpt lat="44.96365" lon="6.10222">
        <ele>1759.4</ele>
        <time>2024-08-14T12:00:50Z</time>
      </trkpt>
      <trkpt lat="44.96365" lon="6.10222">
        <ele>1759.2</ele>
        <time>2024-08-14T12:00:51Z</time>
      </trkpt>
      <trkpt lat="44.96365" lon="6.10225">
        <ele>1758.8</ele>
        <time>2024-08-14T12:00:52Z</time>
      </trkpt>
      <trkpt lat="44.96365" lon="6.10225">
        <ele>1758.6</ele>
        <time>2024-08-14T12:00:53Z</time>
      </trkpt>
      <trkpt lat="44.96366" lon="6.10227">
        <ele>1758.4</ele>
        <time>2024-08-14T12:00:54Z</time>
      </trkpt>
      <trkpt lat="44.96366" lon="6.10227">
        <ele>1758.2</ele>
        <time>2024-08-14T12:00:55Z</time>
      </trkpt>
      <trkpt lat="44.96368" lon="6.10227">
        <ele>1758</ele>
        <time>2024-08-14T12:00:56Z</time>
      </trkpt>
      <trkpt lat="44.96368" lon="6.10227">
        <ele>1757.8</ele>
        <time>2024-08-14T12:00:57Z</time>
      </trkpt>
      <trkpt lat="44.96368" lon="6.10227">
        <ele>1757.4</ele>
        <time>2024-08-14T12:00:58Z</time>
      </trkpt>
      <trkpt lat="44.96371" lon="6.10227">
        <ele>1757.2</ele>
        <time>2024-08-14T12:00:59Z</time>
      </trkpt>
      <trkpt lat="44.96371" lon="6.10227">
        <ele>1757.2</ele>
        <time>2024-08-14T12:01:00Z</time>
      </trkpt>
      <trkpt lat="44.96373" lon="6.10226">
        <ele>1756.6</ele>
        <time>2024-08-14T12:01:01Z</time>
      </trkpt>
      <trkpt lat="44.96373" lon="6.10226">
        <ele>1755.8</ele>
        <time>2024-08-14T12:01:02Z</time>
      </trkpt>
      <trkpt lat="44.96374" lon="6.10226">
        <ele>1755.8</ele>
        <time>2024-08-14T12:01:03Z</time>
      </trkpt>
      <trkpt lat="44.96374" lon="6.10226">
        <ele>1755.8</ele>
        <time>2024-08-14T12:01:04Z</time>
      </trkpt>
      <trkpt lat="44.96374" lon="6.10226">
        <ele>1755.2</ele>
        <time>2024-08-14T12:01:05Z</time>
      </trkpt>
      <trkpt lat="44.96375" lon="6.10229">
        <ele>1754.8</ele>
        <time>2024-08-14T12:01:06Z</time>
      </trkpt>
      <trkpt lat="44.96375" lon="6.10229">
        <ele>1754.6</ele>
        <time>2024-08-14T12:01:07Z</time>
      </trkpt>
      <trkpt lat="44.96375" lon="6.10229">
        <ele>1754.2</ele>
        <time>2024-08-14T12:01:08Z</time>
      </trkpt>
      <trkpt lat="44.96376" lon="6.10232">
        <ele>1753.8</ele>
        <time>2024-08-14T12:01:09Z</time>
      </trkpt>
      <trkpt lat="44.96376" lon="6.10232">
        <ele>1753.8</ele>
        <time>2024-08-14T12:01:10Z</time>
      </trkpt>
      <trkpt lat="44.96376" lon="6.10236">
        <ele>1753.6</ele>
        <time>2024-08-14T12:01:11Z</time>
      </trkpt>
      <trkpt lat="44.96376" lon="6.10236">
        <ele>1753.2</ele>
        <time>2024-08-14T12:01:12Z</time>
      </trkpt>
      <trkpt lat="44.96376" lon="6.10236">
        <ele>1752.8</ele>
        <time>2024-08-14T12:01:13Z</time>
      </trkpt>
      <trkpt lat="44.96377" lon="6.10238">
        <ele>1752.6</ele>
        <time>2024-08-14T12:01:14Z</time>
      </trkpt>
      <trkpt lat="44.96377" lon="6.10238">
        <ele>1752.4</ele>
        <time>2024-08-14T12:01:15Z</time>
      </trkpt>
      <trkpt lat="44.96377" lon="6.10238">
        <ele>1752</ele>
        <time>2024-08-14T12:01:16Z</time>
      </trkpt>
      <trkpt lat="44.96379" lon="6.10237">
        <ele>1751.8</ele>
        <time>2024-08-14T12:01:17Z</time>
      </trkpt>
      <trkpt lat="44.96379" lon="6.10237">
        <ele>1751.4</ele>
        <time>2024-08-14T12:01:18Z</time>
      </trkpt>
      <trkpt lat="44.96379" lon="6.10237">
        <ele>1751</ele>
        <time>2024-08-14T12:01:19Z</time>
      </trkpt>
      <trkpt lat="44.96381" lon="6.10236">
        <ele>1751</ele>
        <time>2024-08-14T12:01:20Z</time>
      </trkpt>
      <trkpt lat="44.96381" lon="6.10236">
        <ele>1750.8</ele>
        <time>2024-08-14T12:01:21Z</time>
      </trkpt>
      <trkpt lat="44.96381" lon="6.10236">
        <ele>1750.6</ele>
        <time>2024-08-14T12:01:22Z</time>
      </trkpt>
      <trkpt lat="44.96382" lon="6.10238">
        <ele>1750.2</ele>
        <time>2024-08-14T12:01:23Z</time>
      </trkpt>
      <trkpt lat="44.96382" lon="6.10238">
        <ele>1750</ele>
        <time>2024-08-14T12:01:24Z</time>
      </trkpt>
      <trkpt lat="44.96382" lon="6.10238">
        <ele>1749.6</ele>
        <time>2024-08-14T12:01:25Z</time>
      </trkpt>
      <trkpt lat="44.96384" lon="6.10239">
        <ele>1749.6</ele>
        <time>2024-08-14T12:01:26Z</time>
      </trkpt>
      <trkpt lat="44.96384" lon="6.10239">
        <ele>1749.6</ele>
        <time>2024-08-14T12:01:27Z</time>
      </trkpt>
      <trkpt lat="44.96386" lon="6.10241">
        <ele>1749.2</ele>
        <time>2024-08-14T12:01:28Z</time>
      </trkpt>
      <trkpt lat="44.96386" lon="6.10241">
        <ele>1748.8</ele>
        <time>2024-08-14T12:01:29Z</time>
      </trkpt>
      <trkpt lat="44.96386" lon="6.10241">
        <ele>1748.6</ele>
        <time>2024-08-14T12:01:30Z</time>
      </trkpt>
      <trkpt lat="44.96387" lon="6.10244">
        <ele>1748.4</ele>
        <time>2024-08-14T12:01:31Z</time>
      </trkpt>
      <trkpt lat="44.96387" lon="6.10244">
        <ele>1748.2</ele>
        <time>2024-08-14T12:01:32Z</time>
      </trkpt>
      <trkpt lat="44.96388" lon="6.10245">
        <ele>1747.8</ele>
        <time>2024-08-14T12:01:33Z</time>
      </trkpt>
      <trkpt lat="44.96388" lon="6.10245">
        <ele>1747.6</ele>
        <time>2024-08-14T12:01:34Z</time>
      </trkpt>
      <trkpt lat="44.96388" lon="6.10245">
        <ele>1747.4</ele>
        <time>2024-08-14T12:01:35Z</time>
      </trkpt>
      <trkpt lat="44.9639" lon="6.10247">
        <ele>1747</ele>
        <time>2024-08-14T12:01:36Z</time>
      </trkpt>
      <trkpt lat="44.9639" lon="6.10247">
        <ele>1746.8</ele>
        <time>2024-08-14T12:01:37Z</time>
      </trkpt>
      <trkpt lat="44.9639" lon="6.10247">
        <ele>1746.8</ele>
        <time>2024-08-14T12:01:38Z</time>
      </trkpt>
      <trkpt lat="44.9639" lon="6.1025">
        <ele>1746.2</ele>
        <time>2024-08-14T12:01:39Z</time>
      </trkpt>
      <trkpt lat="44.9639" lon="6.1025">
        <ele>1746</ele>
        <time>2024-08-14T12:01:40Z</time>
      </trkpt>
      <trkpt lat="44.9639" lon="6.1025">
        <ele>1745.8</ele>
        <time>2024-08-14T12:01:41Z</time>
      </trkpt>
      <trkpt lat="44.96393" lon="6.10251">
        <ele>1745.4</ele>
        <time>2024-08-14T12:01:42Z</time>
      </trkpt>
      <trkpt lat="44.96393" lon="6.10251">
        <ele>1745.2</ele>
        <time>2024-08-14T12:01:43Z</time>
      </trkpt>
      <trkpt lat="44.96393" lon="6.10251">
        <ele>1745.2</ele>
        <time>2024-08-14T12:01:44Z</time>
      </trkpt>
      <trkpt lat="44.96396" lon="6.10251">
        <ele>1744.8</ele>
        <time>2024-08-14T12:01:45Z</time>
      </trkpt>
      <trkpt lat="44.96396" lon="6.10251">
        <ele>1744.8</ele>
        <time>2024-08-14T12:01:46Z</time>
      </trkpt>
      <trkpt lat="44.96397" lon="6.10252">
        <ele>1744.6</ele>
        <time>2024-08-14T12:01:47Z</time>
      </trkpt>
      <trkpt lat="44.96397" lon="6.10252">
        <ele>1744.2</ele>
        <time>2024-08-14T12:01:48Z</time>
      </trkpt>
      <trkpt lat="44.96399" lon="6.10252">
        <ele>1744</ele>
        <time>2024-08-14T12:01:49Z</time>
      </trkpt>
      <trkpt lat="44.96399" lon="6.10252">
        <ele>1743.6</ele>
        <time>2024-08-14T12:01:50Z</time>
      </trkpt>
      <trkpt lat="44.96401" lon="6.10253">
        <ele>1743.4</ele>
        <time>2024-08-14T12:01:51Z</time>
      </trkpt>
      <trkpt lat="44.96401" lon="6.10253">
        <ele>1742.8</ele>
        <time>2024-08-14T12:01:52Z</time>
      </trkpt>
      <trkpt lat="44.96401" lon="6.10253">
        <ele>1742.6</ele>
        <time>2024-08-14T12:01:53Z</time>
      </trkpt>
      <trkpt lat="44.96403" lon="6.10256">
        <ele>1742.2</ele>
        <time>2024-08-14T12:01:54Z</time>
      </trkpt>
      <trkpt lat="44.96403" lon="6.10256">
        <ele>1742.2</ele>
        <time>2024-08-14T12:01:55Z</time>
      </trkpt>
      <trkpt lat="44.96403" lon="6.10256">
        <ele>1742</ele>
        <time>2024-08-14T12:01:56Z</time>
      </trkpt>
      <trkpt lat="44.96404" lon="6.10259">
        <ele>1741.6</ele>
        <time>2024-08-14T12:01:57Z</time>
      </trkpt>
      <trkpt lat="44.96404" lon="6.10259">
        <ele>1741.2</ele>
        <time>2024-08-14T12:01:58Z</time>
      </trkpt>
      <trkpt lat="44.96404" lon="6.10259">
        <ele>1740.8</ele>
        <time>2024-08-14T12:01:59Z</time>
      </trkpt>
      <trkpt lat="44.96405" lon="6.10261">
        <ele>1740.8</ele>
        <time>2024-08-14T12:02:00Z</time>
      </trkpt>
      <trkpt lat="44.96405" lon="6.10261">
        <ele>1740.6</ele>
        <time>2024-08-14T12:02:01Z</time>
      </trkpt>
      <trkpt lat="44.96405" lon="6.10261">
        <ele>1740</ele>
        <time>2024-08-14T12:02:02Z</time>
      </trkpt>
      <trkpt lat="44.96407" lon="6.10262">
        <ele>1740</ele>
        <time>2024-08-14T12:02:03Z</time>
      </trkpt>
      <trkpt lat="44.96407" lon="6.10262">
        <ele>1739.8</ele>
        <time>2024-08-14T12:02:04Z</time>
      </trkpt>
      <trkpt lat="44.96407" lon="6.10262">
        <ele>1739.6</ele>
        <time>2024-08-14T12:02:05Z</time>
      </trkpt>
      <trkpt lat="44.96408" lon="6.10265">
        <ele>1739.4</ele>
        <time>2024-08-14T12:02:06Z</time>
      </trkpt>
      <trkpt lat="44.96408" lon="6.10265">
        <ele>1739.2</ele>
        <time>2024-08-14T12:02:07Z</time>
      </trkpt>
      <trkpt lat="44.96408" lon="6.10265">
        <ele>1738.6</ele>
        <time>2024-08-14T12:02:08Z</time>
      </trkpt>
      <trkpt lat="44.96408" lon="6.10265">
        <ele>1738.4</ele>
        <time>2024-08-14T12:02:09Z</time>
      </trkpt>
      <trkpt lat="44.96408" lon="6.10265">
        <ele>1738</ele>
        <time>2024-08-14T12:02:10Z</time>
      </trkpt>
      <trkpt lat="44.96408" lon="6.10265">
        <ele>1737.8</ele>
        <time>2024-08-14T12:02:11Z</time>
      </trkpt>
      <trkpt lat="44.9641" lon="6.10266">
        <ele>1737.6</ele>
        <time>2024-08-14T12:02:12Z</time>
      </trkpt>
      <trkpt lat="44.9641" lon="6.10266">
        <ele>1737.6</ele>
        <time>2024-08-14T12:02:13Z</time>
      </trkpt>
      <trkpt lat="44.96413" lon="6.10267">
        <ele>1737.4</ele>
        <time>2024-08-14T12:02:14Z</time>
      </trkpt>
      <trkpt lat="44.96413" lon="6.10267">
        <ele>1737</ele>
        <time>2024-08-14T12:02:15Z</time>
      </trkpt>
      <trkpt lat="44.96414" lon="6.10269">
        <ele>1736.4</ele>
        <time>2024-08-14T12:02:16Z</time>
      </trkpt>
      <trkpt lat="44.96414" lon="6.10269">
        <ele>1736.2</ele>
        <time>2024-08-14T12:02:17Z</time>
      </trkpt>
      <trkpt lat="44.96414" lon="6.10269">
        <ele>1736.2</ele>
        <time>2024-08-14T12:02:18Z</time>
      </trkpt>
      <trkpt lat="44.96416" lon="6.10272">
        <ele>1736</ele>
        <time>2024-08-14T12:02:19Z</time>
      </trkpt>
      <trkpt lat="44.96416" lon="6.10272">
        <ele>1735.8</ele>
        <time>2024-08-14T12:02:20Z</time>
      </trkpt>
      <trkpt lat="44.96418" lon="6.10274">
        <ele>1735.4</ele>
        <time>2024-08-14T12:02:21Z</time>
      </trkpt>
      <trkpt lat="44.96418" lon="6.10274">
        <ele>1735</ele>
        <time>2024-08-14T12:02:22Z</time>
      </trkpt>
      <trkpt lat="44.9642" lon="6.10277">
        <ele>1734.6</ele>
        <time>2024-08-14T12:02:23Z</time>
      </trkpt>
      <trkpt lat="44.9642" lon="6.10277">
        <ele>1734.6</ele>
        <time>2024-08-14T12:02:24Z</time>
      </trkpt>
      <trkpt lat="44.9642" lon="6.1028">
        <ele>1734.2</ele>
        <time>2024-08-14T12:02:25Z</time>
      </trkpt>
      <trkpt lat="44.9642" lon="6.1028">
        <ele>1734.2</ele>
        <time>2024-08-14T12:02:26Z</time>
      </trkpt>
      <trkpt lat="44.96421" lon="6.10283">
        <ele>1734</ele>
        <time>2024-08-14T12:02:27Z</time>
      </trkpt>
      <trkpt lat="44.96421" lon="6.10283">
        <ele>1734</ele>
        <time>2024-08-14T12:02:28Z</time>
      </trkpt>
      <trkpt lat="44.96422" lon="6.10286">
        <ele>1733.8</ele>
        <time>2024-08-14T12:02:29Z</time>
      </trkpt>
      <trkpt lat="44.96422" lon="6.10286">
        <ele>1733.6</ele>
        <time>2024-08-14T12:02:30Z</time>
      </trkpt>
      <trkpt lat="44.96424" lon="6.10287">
        <ele>1733.2</ele>
        <time>2024-08-14T12:02:31Z</time>
      </trkpt>
      <trkpt lat="44.96424" lon="6.10287">
        <ele>1733</ele>
        <time>2024-08-14T12:02:32Z</time>
      </trkpt>
      <trkpt lat="44.96425" lon="6.10288">
        <ele>1732.8</ele>
        <time>2024-08-14T12:02:33Z</time>
      </trkpt>
      <trkpt lat="44.96425" lon="6.10288">
        <ele>1732.6</ele>
        <time>2024-08-14T12:02:34Z</time>
      </trkpt>
      <trkpt lat="44.96427" lon="6.10289">
        <ele>1732.6</ele>
        <time>2024-08-14T12:02:35Z</time>
      </trkpt>
      <trkpt lat="44.96427" lon="6.10289">
        <ele>1732.4</ele>
        <time>2024-08-14T12:02:36Z</time>
      </trkpt>
      <trkpt lat="44.96429" lon="6.10291">
        <ele>1732.2</ele>
        <time>2024-08-14T12:02:37Z</time>
      </trkpt>
      <trkpt lat="44.96429" lon="6.10291">
        <ele>1732</ele>
        <time>2024-08-14T12:02:38Z</time>
      </trkpt>
      <trkpt lat="44.9643" lon="6.10294">
        <ele>1731.8</ele>
        <time>2024-08-14T12:02:39Z</time>
      </trkpt>
      <trkpt lat="44.9643" lon="6.10294">
        <ele>1731.4</ele>
        <time>2024-08-14T12:02:40Z</time>
      </trkpt>
      <trkpt lat="44.96431" lon="6.10296">
        <ele>1731.2</ele>
        <time>2024-08-14T12:02:41Z</time>
      </trkpt>
      <trkpt lat="44.96431" lon="6.10296">
        <ele>1731</ele>
        <time>2024-08-14T12:02:42Z</time>
      </trkpt>
      <trkpt lat="44.96432" lon="6.10299">
        <ele>1731</ele>
        <time>2024-08-14T12:02:43Z</time>
      </trkpt>
      <trkpt lat="44.96432" lon="6.10299">
        <ele>1730.8</ele>
        <time>2024-08-14T12:02:44Z</time>
      </trkpt>
      <trkpt lat="44.96432" lon="6.10302">
        <ele>1730.6</ele>
        <time>2024-08-14T12:02:45Z</time>
      </trkpt>
      <trkpt lat="44.96432" lon="6.10302">
        <ele>1730.2</ele>
        <time>2024-08-14T12:02:46Z</time>
      </trkpt>
      <trkpt lat="44.96432" lon="6.10305">
        <ele>1729.6</ele>
        <time>2024-08-14T12:02:47Z</time>
      </trkpt>
      <trkpt lat="44.96432" lon="6.10305">
        <ele>1729.4</ele>
        <time>2024-08-14T12:02:48Z</time>
      </trkpt>
      <trkpt lat="44.96432" lon="6.10308">
        <ele>1729.2</ele>
        <time>2024-08-14T12:02:49Z</time>
      </trkpt>
      <trkpt lat="44.96432" lon="6.10308">
        <ele>1728.8</ele>
        <time>2024-08-14T12:02:50Z</time>
      </trkpt>
      <trkpt lat="44.96434" lon="6.10311">
        <ele>1728.6</ele>
        <time>2024-08-14T12:02:51Z</time>
      </trkpt>
      <trkpt lat="44.96434" lon="6.10311">
        <ele>1728.2</ele>
        <time>2024-08-14T12:02:52Z</time>
      </trkpt>
      <trkpt lat="44.96436" lon="6.10314">
        <ele>1728</ele>
        <time>2024-08-14T12:02:53Z</time>
      </trkpt>
      <trkpt lat="44.96436" lon="6.10314">
        <ele>1727.8</ele>
        <time>2024-08-14T12:02:54Z</time>
      </trkpt>
      <trkpt lat="44.96437" lon="6.10317">
        <ele>1727.8</ele>
        <time>2024-08-14T12:02:55Z</time>
      </trkpt>
      <trkpt lat="44.96437" lon="6.10317">
        <ele>1727.8</ele>
        <time>2024-08-14T12:02:56Z</time>
      </trkpt>
      <trkpt lat="44.96439" lon="6.10319">
        <ele>1727.4</ele>
        <time>2024-08-14T12:02:57Z</time>
      </trkpt>
      <trkpt lat="44.96439" lon="6.10319">
        <ele>1727.2</ele>
        <time>2024-08-14T12:02:58Z</time>
      </trkpt>
      <trkpt lat="44.96441" lon="6.10321">
        <ele>1726.8</ele>
        <time>2024-08-14T12:02:59Z</time>
      </trkpt>
      <trkpt lat="44.96441" lon="6.10321">
        <ele>1726.8</ele>
        <time>2024-08-14T12:03:00Z</time>
      </trkpt>
      <trkpt lat="44.96441" lon="6.10321">
        <ele>1726.8</ele>
        <time>2024-08-14T12:03:01Z</time>
      </trkpt>
      <trkpt lat="44.96443" lon="6.10323">
        <ele>1726.4</ele>
        <time>2024-08-14T12:03:02Z</time>
      </trkpt>
      <trkpt lat="44.96443" lon="6.10323">
        <ele>1726.4</ele>
        <time>2024-08-14T12:03:03Z</time>
      </trkpt>
      <trkpt lat="44.96445" lon="6.10323">
        <ele>1726.4</ele>
        <time>2024-08-14T12:03:04Z</time>
      </trkpt>
      <trkpt lat="44.96445" lon="6.10323">
        <ele>1726</ele>
        <time>2024-08-14T12:03:05Z</time>
      </trkpt>
      <trkpt lat="44.96445" lon="6.10323">
        <ele>1726</ele>
        <time>2024-08-14T12:03:06Z</time>
      </trkpt>
      <trkpt lat="44.96447" lon="6.10324">
        <ele>1725.8</ele>
        <time>2024-08-14T12:03:07Z</time>
      </trkpt>
      <trkpt lat="44.96447" lon="6.10324">
        <ele>1725.6</ele>
        <time>2024-08-14T12:03:08Z</time>
      </trkpt>
      <trkpt lat="44.96447" lon="6.10324">
        <ele>1725.4</ele>
        <time>2024-08-14T12:03:09Z</time>
      </trkpt>
      <trkpt lat="44.9645" lon="6.10324">
        <ele>1725</ele>
        <time>2024-08-14T12:03:10Z</time>
      </trkpt>
      <trkpt lat="44.9645" lon="6.10324">
        <ele>1725</ele>
        <time>2024-08-14T12:03:11Z</time>
      </trkpt>
      <trkpt lat="44.96452" lon="6.10323">
        <ele>1724.6</ele>
        <time>2024-08-14T12:03:12Z</time>
      </trkpt>
      <trkpt lat="44.96452" lon="6.10323">
        <ele>1724.4</ele>
        <time>2024-08-14T12:03:13Z</time>
      </trkpt>
      <trkpt lat="44.96452" lon="6.10323">
        <ele>1724.4</ele>
        <time>2024-08-14T12:03:14Z</time>
      </trkpt>
      <trkpt lat="44.96454" lon="6.10323">
        <ele>1724</ele>
        <time>2024-08-14T12:03:15Z</time>
      </trkpt>
      <trkpt lat="44.96454" lon="6.10323">
        <ele>1723.8</ele>
        <time>2024-08-14T12:03:16Z</time>
      </trkpt>
      <trkpt lat="44.96454" lon="6.10323">
        <ele>1723.8</ele>
        <time>2024-08-14T12:03:17Z</time>
      </trkpt>
      <trkpt lat="44.96454" lon="6.10323">
        <ele>1723.4</ele>
        <time>2024-08-14T12:03:18Z</time>
      </trkpt>
      <trkpt lat="44.96457" lon="6.10322">
        <ele>1723.4</ele>
        <time>2024-08-14T12:03:19Z</time>
      </trkpt>
      <trkpt lat="44.96457" lon="6.10322">
        <ele>1723.4</ele>
        <time>2024-08-14T12:03:20Z</time>
      </trkpt>
      <trkpt lat="44.96457" lon="6.10322">
        <ele>1723</ele>
        <time>2024-08-14T12:03:21Z</time>
      </trkpt>
      <trkpt lat="44.96459" lon="6.1032">
        <ele>1722.6</ele>
        <time>2024-08-14T12:03:22Z</time>
      </trkpt>
      <trkpt lat="44.96459" lon="6.1032">
        <ele>1722.2</ele>
        <time>2024-08-14T12:03:23Z</time>
      </trkpt>
      <trkpt lat="44.96461" lon="6.10318">
        <ele>1722</ele>
        <time>2024-08-14T12:03:24Z</time>
      </trkpt>
      <trkpt lat="44.96461" lon="6.10318">
        <ele>1721.8</ele>
        <time>2024-08-14T12:03:25Z</time>
      </trkpt>
      <trkpt lat="44.96461" lon="6.10318">
        <ele>1721.6</ele>
        <time>2024-08-14T12:03:26Z</time>
      </trkpt>
      <trkpt lat="44.96462" lon="6.10316">
        <ele>1721.4</ele>
        <time>2024-08-14T12:03:27Z</time>
      </trkpt>
      <trkpt lat="44.96462" lon="6.10316">
        <ele>1721</ele>
        <time>2024-08-14T12:03:28Z</time>
      </trkpt>
      <trkpt lat="44.96464" lon="6.10315">
        <ele>1720.8</ele>
        <time>2024-08-14T12:03:29Z</time>
      </trkpt>
      <trkpt lat="44.96464" lon="6.10315">
        <ele>1720.8</ele>
        <time>2024-08-14T12:03:30Z</time>
      </trkpt>
      <trkpt lat="44.96464" lon="6.10315">
        <ele>1720.4</ele>
        <time>2024-08-14T12:03:31Z</time>
      </trkpt>
      <trkpt lat="44.96465" lon="6.10318">
        <ele>1720.4</ele>
        <time>2024-08-14T12:03:32Z</time>
      </trkpt>
      <trkpt lat="44.96465" lon="6.10318">
        <ele>1720.2</ele>
        <time>2024-08-14T12:03:33Z</time>
      </trkpt>
      <trkpt lat="44.96465" lon="6.10318">
        <ele>1720</ele>
        <time>2024-08-14T12:03:34Z</time>
      </trkpt>
      <trkpt lat="44.96468" lon="6.10318">
        <ele>1719.6</ele>
        <time>2024-08-14T12:03:35Z</time>
      </trkpt>
      <trkpt lat="44.96468" lon="6.10318">
        <ele>1719.4</ele>
        <time>2024-08-14T12:03:36Z</time>
      </trkpt>
      <trkpt lat="44.9647" lon="6.10317">
        <ele>1719.2</ele>
        <time>2024-08-14T12:03:37Z</time>
      </trkpt>
      <trkpt lat="44.9647" lon="6.10317">
        <ele>1719.2</ele>
        <time>2024-08-14T12:03:38Z</time>
      </trkpt>
      <trkpt lat="44.96472" lon="6.10318">
        <ele>1719</ele>
        <time>2024-08-14T12:03:39Z</time>
      </trkpt>
      <trkpt lat="44.96472" lon="6.10318">
        <ele>1718.8</ele>
        <time>2024-08-14T12:03:40Z</time>
      </trkpt>
      <trkpt lat="44.96472" lon="6.10318">
        <ele>1718.8</ele>
        <time>2024-08-14T12:03:41Z</time>
      </trkpt>
      <trkpt lat="44.96475" lon="6.1032">
        <ele>1718.4</ele>
        <time>2024-08-14T12:03:42Z</time>
      </trkpt>
      <trkpt lat="44.96475" lon="6.1032">
        <ele>1718</ele>
        <time>2024-08-14T12:03:43Z</time>
      </trkpt>
      <trkpt lat="44.96475" lon="6.1032">
        <ele>1717.8</ele>
        <time>2024-08-14T12:03:44Z</time>
      </trkpt>
      <trkpt lat="44.96477" lon="6.10321">
        <ele>1717.4</ele>
        <time>2024-08-14T12:03:45Z</time>
      </trkpt>
      <trkpt lat="44.96477" lon="6.10321">
        <ele>1717.2</ele>
        <time>2024-08-14T12:03:46Z</time>
      </trkpt>
      <trkpt lat="44.96479" lon="6.10322">
        <ele>1717</ele>
        <time>2024-08-14T12:03:47Z</time>
      </trkpt>
      <trkpt lat="44.96479" lon="6.10322">
        <ele>1716.2</ele>
        <time>2024-08-14T12:03:48Z</time>
      </trkpt>
      <trkpt lat="44.96481" lon="6.10323">
        <ele>1716</ele>
        <time>2024-08-14T12:03:49Z</time>
      </trkpt>
      <trkpt lat="44.96481" lon="6.10323">
        <ele>1716</ele>
        <time>2024-08-14T12:03:50Z</time>
      </trkpt>
      <trkpt lat="44.96484" lon="6.10323">
        <ele>1715.8</ele>
        <time>2024-08-14T12:03:51Z</time>
      </trkpt>
      <trkpt lat="44.96484" lon="6.10323">
        <ele>1715.8</ele>
        <time>2024-08-14T12:03:52Z</time>
      </trkpt>
      <trkpt lat="44.96484" lon="6.10323">
        <ele>1715.4</ele>
        <time>2024-08-14T12:03:53Z</time>
      </trkpt>
      <trkpt lat="44.96486" lon="6.10324">
        <ele>1715</ele>
        <time>2024-08-14T12:03:54Z</time>
      </trkpt>
      <trkpt lat="44.96486" lon="6.10324">
        <ele>1715</ele>
        <time>2024-08-14T12:03:55Z</time>
      </trkpt>
      <trkpt lat="44.96488" lon="6.10324">
        <ele>1715</ele>
        <time>2024-08-14T12:03:56Z</time>
      </trkpt>
      <trkpt lat="44.96488" lon="6.10324">
        <ele>1714.6</ele>
        <time>2024-08-14T12:03:57Z</time>
      </trkpt>
      <trkpt lat="44.9649" lon="6.10324">
        <ele>1714.4</ele>
        <time>2024-08-14T12:03:58Z</time>
      </trkpt>
      <trkpt lat="44.9649" lon="6.10324">
        <ele>1714.2</ele>
        <time>2024-08-14T12:03:59Z</time>
      </trkpt>
      <trkpt lat="44.96493" lon="6.10323">
        <ele>1714</ele>
        <time>2024-08-14T12:04:00Z</time>
      </trkpt>
      <trkpt lat="44.96493" lon="6.10323">
        <ele>1714</ele>
        <time>2024-08-14T12:04:01Z</time>
      </trkpt>
      <trkpt lat="44.96495" lon="6.10322">
        <ele>1713.4</ele>
        <time>2024-08-14T12:04:02Z</time>
      </trkpt>
      <trkpt lat="44.96495" lon="6.10322">
        <ele>1713.4</ele>
        <time>2024-08-14T12:04:03Z</time>
      </trkpt>
      <trkpt lat="44.96497" lon="6.10321">
        <ele>1713.4</ele>
        <time>2024-08-14T12:04:04Z</time>
      </trkpt>
      <trkpt lat="44.96497" lon="6.10321">
        <ele>1713.4</ele>
        <time>2024-08-14T12:04:05Z</time>
      </trkpt>
      <trkpt lat="44.965" lon="6.1032">
        <ele>1713.4</ele>
        <time>2024-08-14T12:04:06Z</time>
      </trkpt>
      <trkpt lat="44.965" lon="6.1032">
        <ele>1713.2</ele>
        <time>2024-08-14T12:04:07Z</time>
      </trkpt>
      <trkpt lat="44.96502" lon="6.10319">
        <ele>1713.2</ele>
        <time>2024-08-14T12:04:08Z</time>
      </trkpt>
      <trkpt lat="44.96502" lon="6.10319">
        <ele>1713.6</ele>
        <time>2024-08-14T12:04:09Z</time>
      </trkpt>
      <trkpt lat="44.96504" lon="6.10318">
        <ele>1713.8</ele>
        <time>2024-08-14T12:04:10Z</time>
      </trkpt>
      <trkpt lat="44.96504" lon="6.10318">
        <ele>1713.8</ele>
        <time>2024-08-14T12:04:11Z</time>
      </trkpt>
      <trkpt lat="44.96507" lon="6.10318">
        <ele>1713.8</ele>
        <time>2024-08-14T12:04:12Z</time>
      </trkpt>
      <trkpt lat="44.96507" lon="6.10318">
        <ele>1713.6</ele>
        <time>2024-08-14T12:04:13Z</time>
      </trkpt>
      <trkpt lat="44.96507" lon="6.10318">
        <ele>1713.6</ele>
        <time>2024-08-14T12:04:14Z</time>
      </trkpt>
      <trkpt lat="44.96509" lon="6.10317">
        <ele>1713.4</ele>
        <time>2024-08-14T12:04:15Z</time>
      </trkpt>
      <trkpt lat="44.96509" lon="6.10317">
        <ele>1713.4</ele>
        <time>2024-08-14T12:04:16Z</time>
      </trkpt>
      <trkpt lat="44.96509" lon="6.10317">
        <ele>1713.4</ele>
        <time>2024-08-14T12:04:17Z</time>
      </trkpt>
      <trkpt lat="44.96509" lon="6.10317">
        <ele>1713.4</ele>
        <time>2024-08-14T12:04:18Z</time>
      </trkpt>
      <trkpt lat="44.96511" lon="6.10315">
        <ele>1712.8</ele>
        <time>2024-08-14T12:04:19Z</time>
      </trkpt>
      <trkpt lat="44.96511" lon="6.10315">
        <ele>1712.4</ele>
        <time>2024-08-14T12:04:20Z</time>
      </trkpt>
      <trkpt lat="44.96512" lon="6.10314">
        <ele>1712.2</ele>
        <time>2024-08-14T12:04:21Z</time>
      </trkpt>
      <trkpt lat="44.96512" lon="6.10314">
        <ele>1711.6</ele>
        <time>2024-08-14T12:04:22Z</time>
      </trkpt>
      <trkpt lat="44.96514" lon="6.10312">
        <ele>1711.6</ele>
        <time>2024-08-14T12:04:23Z</time>
      </trkpt>
      <trkpt lat="44.96514" lon="6.10312">
        <ele>1711.4</ele>
        <time>2024-08-14T12:04:24Z</time>
      </trkpt>
      <trkpt lat="44.96516" lon="6.10309">
        <ele>1710.8</ele>
        <time>2024-08-14T12:04:25Z</time>
      </trkpt>
      <trkpt lat="44.96516" lon="6.10309">
        <ele>1710.6</ele>
        <time>2024-08-14T12:04:26Z</time>
      </trkpt>
      <trkpt lat="44.96518" lon="6.10308">
        <ele>1710.6</ele>
        <time>2024-08-14T12:04:27Z</time>
      </trkpt>
      <trkpt lat="44.96518" lon="6.10308">
        <ele>1710.8</ele>
        <time>2024-08-14T12:04:28Z</time>
      </trkpt>
      <trkpt lat="44.96521" lon="6.10306">
        <ele>1710.8</ele>
        <time>2024-08-14T12:04:29Z</time>
      </trkpt>
      <trkpt lat="44.96521" lon="6.10306">
        <ele>1710.8</ele>
        <time>2024-08-14T12:04:30Z</time>
      </trkpt>
      <trkpt lat="44.96523" lon="6.10306">
        <ele>1710.8</ele>
        <time>2024-08-14T12:04:31Z</time>
      </trkpt>
      <trkpt lat="44.96525" lon="6.10307">
        <ele>1710.6</ele>
        <time>2024-08-14T12:04:32Z</time>
      </trkpt>
      <trkpt lat="44.96525" lon="6.10307">
        <ele>1710.4</ele>
        <time>2024-08-14T12:04:33Z</time>
      </trkpt>
      <trkpt lat="44.96525" lon="6.10311">
        <ele>1710</ele>
        <time>2024-08-14T12:04:34Z</time>
      </trkpt>
      <trkpt lat="44.96525" lon="6.10311">
        <ele>1710</ele>
        <time>2024-08-14T12:04:35Z</time>
      </trkpt>
      <trkpt lat="44.96526" lon="6.10315">
        <ele>1710.2</ele>
        <time>2024-08-14T12:04:36Z</time>
      </trkpt>
      <trkpt lat="44.96526" lon="6.10315">
        <ele>1710.2</ele>
        <time>2024-08-14T12:04:37Z</time>
      </trkpt>
      <trkpt lat="44.96529" lon="6.10317">
        <ele>1710</ele>
        <time>2024-08-14T12:04:38Z</time>
      </trkpt>
      <trkpt lat="44.96529" lon="6.10317">
        <ele>1710</ele>
        <time>2024-08-14T12:04:39Z</time>
      </trkpt>
      <trkpt lat="44.96531" lon="6.10319">
        <ele>1710</ele>
        <time>2024-08-14T12:04:40Z</time>
      </trkpt>
      <trkpt lat="44.96531" lon="6.10319">
        <ele>1709.8</ele>
        <time>2024-08-14T12:04:41Z</time>
      </trkpt>
      <trkpt lat="44.96533" lon="6.10322">
        <ele>1709.8</ele>
        <time>2024-08-14T12:04:42Z</time>
      </trkpt>
      <trkpt lat="44.96533" lon="6.10322">
        <ele>1709.8</ele>
        <time>2024-08-14T12:04:43Z</time>
      </trkpt>
      <trkpt lat="44.96535" lon="6.10324">
        <ele>1709.6</ele>
        <time>2024-08-14T12:04:44Z</time>
      </trkpt>
      <trkpt lat="44.96535" lon="6.10324">
        <ele>1709.6</ele>
        <time>2024-08-14T12:04:45Z</time>
      </trkpt>
      <trkpt lat="44.96537" lon="6.10326">
        <ele>1709.4</ele>
        <time>2024-08-14T12:04:46Z</time>
      </trkpt>
      <trkpt lat="44.96537" lon="6.10326">
        <ele>1709.4</ele>
        <time>2024-08-14T12:04:47Z</time>
      </trkpt>
      <trkpt lat="44.96539" lon="6.10329">
        <ele>1709.6</ele>
        <time>2024-08-14T12:04:48Z</time>
      </trkpt>
      <trkpt lat="44.96539" lon="6.10329">
        <ele>1709.6</ele>
        <time>2024-08-14T12:04:49Z</time>
      </trkpt>
      <trkpt lat="44.96541" lon="6.10331">
        <ele>1709.6</ele>
        <time>2024-08-14T12:04:50Z</time>
      </trkpt>
      <trkpt lat="44.96541" lon="6.10331">
        <ele>1709.4</ele>
        <time>2024-08-14T12:04:51Z</time>
      </trkpt>
      <trkpt lat="44.96543" lon="6.10333">
        <ele>1709.4</ele>
        <time>2024-08-14T12:04:52Z</time>
      </trkpt>
      <trkpt lat="44.96543" lon="6.10333">
        <ele>1709.4</ele>
        <time>2024-08-14T12:04:53Z</time>
      </trkpt>
      <trkpt lat="44.96546" lon="6.10334">
        <ele>1709.4</ele>
        <time>2024-08-14T12:04:54Z</time>
      </trkpt>
      <trkpt lat="44.96546" lon="6.10334">
        <ele>1709.4</ele>
        <time>2024-08-14T12:04:55Z</time>
      </trkpt>
      <trkpt lat="44.96549" lon="6.10335">
        <ele>1709.4</ele>
        <time>2024-08-14T12:04:56Z</time>
      </trkpt>
      <trkpt lat="44.96549" lon="6.10335">
        <ele>1709.2</ele>
        <time>2024-08-14T12:04:57Z</time>
      </trkpt>
      <trkpt lat="44.96551" lon="6.10336">
        <ele>1709.2</ele>
        <time>2024-08-14T12:04:58Z</time>
      </trkpt>
      <trkpt lat="44.96551" lon="6.10336">
        <ele>1708.8</ele>
        <time>2024-08-14T12:04:59Z</time>
      </trkpt>
      <trkpt lat="44.96553" lon="6.10336">
        <ele>1708.6</ele>
        <time>2024-08-14T12:05:00Z</time>
      </trkpt>
      <trkpt lat="44.96553" lon="6.10336">
        <ele>1708.4</ele>
        <time>2024-08-14T12:05:01Z</time>
      </trkpt>
      <trkpt lat="44.96555" lon="6.10336">
        <ele>1708.4</ele>
        <time>2024-08-14T12:05:02Z</time>
      </trkpt>
      <trkpt lat="44.96555" lon="6.10336">
        <ele>1708.2</ele>
        <time>2024-08-14T12:05:03Z</time>
      </trkpt>
      <trkpt lat="44.96558" lon="6.10336">
        <ele>1708</ele>
        <time>2024-08-14T12:05:04Z</time>
      </trkpt>
      <trkpt lat="44.96558" lon="6.10336">
        <ele>1708</ele>
        <time>2024-08-14T12:05:05Z</time>
      </trkpt>
      <trkpt lat="44.9656" lon="6.10336">
        <ele>1708</ele>
        <time>2024-08-14T12:05:06Z</time>
      </trkpt>
      <trkpt lat="44.9656" lon="6.10336">
        <ele>1708</ele>
        <time>2024-08-14T12:05:07Z</time>
      </trkpt>
      <trkpt lat="44.96562" lon="6.10336">
        <ele>1708</ele>
        <time>2024-08-14T12:05:08Z</time>
      </trkpt>
      <trkpt lat="44.96562" lon="6.10336">
        <ele>1708</ele>
        <time>2024-08-14T12:05:09Z</time>
      </trkpt>
      <trkpt lat="44.96565" lon="6.10337">
        <ele>1707.8</ele>
        <time>2024-08-14T12:05:10Z</time>
      </trkpt>
      <trkpt lat="44.96565" lon="6.10337">
        <ele>1707.8</ele>
        <time>2024-08-14T12:05:11Z</time>
      </trkpt>
      <trkpt lat="44.96566" lon="6.10338">
        <ele>1707.6</ele>
        <time>2024-08-14T12:05:12Z</time>
      </trkpt>
      <trkpt lat="44.96566" lon="6.10338">
        <ele>1707.4</ele>
        <time>2024-08-14T12:05:13Z</time>
      </trkpt>
      <trkpt lat="44.96568" lon="6.10339">
        <ele>1707.2</ele>
        <time>2024-08-14T12:05:14Z</time>
      </trkpt>
      <trkpt lat="44.96568" lon="6.10339">
        <ele>1707</ele>
        <time>2024-08-14T12:05:15Z</time>
      </trkpt>
      <trkpt lat="44.9657" lon="6.1034">
        <ele>1706.6</ele>
        <time>2024-08-14T12:05:16Z</time>
      </trkpt>
      <trkpt lat="44.9657" lon="6.1034">
        <ele>1706.4</ele>
        <time>2024-08-14T12:05:17Z</time>
      </trkpt>
      <trkpt lat="44.96573" lon="6.10341">
        <ele>1706.4</ele>
        <time>2024-08-14T12:05:18Z</time>
      </trkpt>
      <trkpt lat="44.96573" lon="6.10341">
        <ele>1706.4</ele>
        <time>2024-08-14T12:05:19Z</time>
      </trkpt>
      <trkpt lat="44.96575" lon="6.10344">
        <ele>1706</ele>
        <time>2024-08-14T12:05:20Z</time>
      </trkpt>
      <trkpt lat="44.96575" lon="6.10344">
        <ele>1705.6</ele>
        <time>2024-08-14T12:05:21Z</time>
      </trkpt>
      <trkpt lat="44.96577" lon="6.10346">
        <ele>1705.4</ele>
        <time>2024-08-14T12:05:22Z</time>
      </trkpt>
      <trkpt lat="44.96577" lon="6.10346">
        <ele>1705</ele>
        <time>2024-08-14T12:05:23Z</time>
      </trkpt>
      <trkpt lat="44.96579" lon="6.10348">
        <ele>1705</ele>
        <time>2024-08-14T12:05:24Z</time>
      </trkpt>
      <trkpt lat="44.96579" lon="6.10348">
        <ele>1705</ele>
        <time>2024-08-14T12:05:25Z</time>
      </trkpt>
      <trkpt lat="44.9658" lon="6.1035">
        <ele>1704.8</ele>
        <time>2024-08-14T12:05:26Z</time>
      </trkpt>
      <trkpt lat="44.9658" lon="6.1035">
        <ele>1704.6</ele>
        <time>2024-08-14T12:05:27Z</time>
      </trkpt>
      <trkpt lat="44.96582" lon="6.10352">
        <ele>1704.4</ele>
        <time>2024-08-14T12:05:28Z</time>
      </trkpt>
      <trkpt lat="44.96582" lon="6.10352">
        <ele>1704.2</ele>
        <time>2024-08-14T12:05:29Z</time>
      </trkpt>
      <trkpt lat="44.96582" lon="6.10355">
        <ele>1704.2</ele>
        <time>2024-08-14T12:05:30Z</time>
      </trkpt>
      <trkpt lat="44.96582" lon="6.10355">
        <ele>1703.8</ele>
        <time>2024-08-14T12:05:31Z</time>
      </trkpt>
      <trkpt lat="44.96583" lon="6.10359">
        <ele>1703.8</ele>
        <time>2024-08-14T12:05:32Z</time>
      </trkpt>
      <trkpt lat="44.96583" lon="6.10359">
        <ele>1703.4</ele>
        <time>2024-08-14T12:05:33Z</time>
      </trkpt>
      <trkpt lat="44.96585" lon="6.10361">
        <ele>1702.8</ele>
        <time>2024-08-14T12:05:34Z</time>
      </trkpt>
      <trkpt lat="44.96585" lon="6.10361">
        <ele>1702.8</ele>
        <time>2024-08-14T12:05:35Z</time>
      </trkpt>
      <trkpt lat="44.96587" lon="6.10363">
        <ele>1702.8</ele>
        <time>2024-08-14T12:05:36Z</time>
      </trkpt>
      <trkpt lat="44.96587" lon="6.10363">
        <ele>1702.8</ele>
        <time>2024-08-14T12:05:37Z</time>
      </trkpt>
      <trkpt lat="44.96589" lon="6.10363">
        <ele>1702.8</ele>
        <time>2024-08-14T12:05:38Z</time>
      </trkpt>
      <trkpt lat="44.96589" lon="6.10363">
        <ele>1702.6</ele>
        <time>2024-08-14T12:05:39Z</time>
      </trkpt>
      <trkpt lat="44.9659" lon="6.10366">
        <ele>1702.6</ele>
        <time>2024-08-14T12:05:40Z</time>
      </trkpt>
      <trkpt lat="44.9659" lon="6.10366">
        <ele>1702.4</ele>
        <time>2024-08-14T12:05:41Z</time>
      </trkpt>
      <trkpt lat="44.96592" lon="6.10368">
        <ele>1702.4</ele>
        <time>2024-08-14T12:05:42Z</time>
      </trkpt>
      <trkpt lat="44.96592" lon="6.10368">
        <ele>1702.4</ele>
        <time>2024-08-14T12:05:43Z</time>
      </trkpt>
      <trkpt lat="44.96594" lon="6.1037">
        <ele>1702.4</ele>
        <time>2024-08-14T12:05:44Z</time>
      </trkpt>
      <trkpt lat="44.96594" lon="6.1037">
        <ele>1702.2</ele>
        <time>2024-08-14T12:05:45Z</time>
      </trkpt>
      <trkpt lat="44.96595" lon="6.10372">
        <ele>1702</ele>
        <time>2024-08-14T12:05:46Z</time>
      </trkpt>
      <trkpt lat="44.96595" lon="6.10372">
        <ele>1701.8</ele>
        <time>2024-08-14T12:05:47Z</time>
      </trkpt>
      <trkpt lat="44.96597" lon="6.10374">
        <ele>1701.6</ele>
        <time>2024-08-14T12:05:48Z</time>
      </trkpt>
      <trkpt lat="44.96597" lon="6.10374">
        <ele>1701</ele>
        <time>2024-08-14T12:05:49Z</time>
      </trkpt>
      <trkpt lat="44.96599" lon="6.10377">
        <ele>1700.8</ele>
        <time>2024-08-14T12:05:50Z</time>
      </trkpt>
      <trkpt lat="44.96599" lon="6.10377">
        <ele>1700.6</ele>
        <time>2024-08-14T12:05:51Z</time>
      </trkpt>
      <trkpt lat="44.96601" lon="6.10379">
        <ele>1700.6</ele>
        <time>2024-08-14T12:05:52Z</time>
      </trkpt>
      <trkpt lat="44.96601" lon="6.10379">
        <ele>1700.6</ele>
        <time>2024-08-14T12:05:53Z</time>
      </trkpt>
      <trkpt lat="44.96603" lon="6.10381">
        <ele>1700.6</ele>
        <time>2024-08-14T12:05:54Z</time>
      </trkpt>
      <trkpt lat="44.96603" lon="6.10381">
        <ele>1700.6</ele>
        <time>2024-08-14T12:05:55Z</time>
      </trkpt>
      <trkpt lat="44.96606" lon="6.10382">
        <ele>1700.6</ele>
        <time>2024-08-14T12:05:56Z</time>
      </trkpt>
      <trkpt lat="44.96606" lon="6.10382">
        <ele>1700.6</ele>
        <time>2024-08-14T12:05:57Z</time>
      </trkpt>
      <trkpt lat="44.96607" lon="6.10384">
        <ele>1700.6</ele>
        <time>2024-08-14T12:05:58Z</time>
      </trkpt>
      <trkpt lat="44.96607" lon="6.10384">
        <ele>1700.6</ele>
        <time>2024-08-14T12:05:59Z</time>
      </trkpt>
      <trkpt lat="44.9661" lon="6.10385">
        <ele>1700.4</ele>
        <time>2024-08-14T12:06:00Z</time>
      </trkpt>
      <trkpt lat="44.9661" lon="6.10385">
        <ele>1700.2</ele>
        <time>2024-08-14T12:06:01Z</time>
      </trkpt>
      <trkpt lat="44.96612" lon="6.10386">
        <ele>1700</ele>
        <time>2024-08-14T12:06:02Z</time>
      </trkpt>
      <trkpt lat="44.96612" lon="6.10386">
        <ele>1700</ele>
        <time>2024-08-14T12:06:03Z</time>
      </trkpt>
      <trkpt lat="44.96615" lon="6.10386">
        <ele>1699.6</ele>
        <time>2024-08-14T12:06:04Z</time>
      </trkpt>
      <trkpt lat="44.96615" lon="6.10386">
        <ele>1699.4</ele>
        <time>2024-08-14T12:06:05Z</time>
      </trkpt>
      <trkpt lat="44.96617" lon="6.10387">
        <ele>1699.4</ele>
        <time>2024-08-14T12:06:06Z</time>
      </trkpt>
      <trkpt lat="44.96617" lon="6.10387">
        <ele>1699.2</ele>
        <time>2024-08-14T12:06:07Z</time>
      </trkpt>
      <trkpt lat="44.96619" lon="6.10387">
        <ele>1699.2</ele>
        <time>2024-08-14T12:06:08Z</time>
      </trkpt>
      <trkpt lat="44.96619" lon="6.10387">
        <ele>1699</ele>
        <time>2024-08-14T12:06:09Z</time>
      </trkpt>
      <trkpt lat="44.96621" lon="6.10389">
        <ele>1698.8</ele>
        <time>2024-08-14T12:06:10Z</time>
      </trkpt>
      <trkpt lat="44.96621" lon="6.10389">
        <ele>1698.4</ele>
        <time>2024-08-14T12:06:11Z</time>
      </trkpt>
      <trkpt lat="44.96622" lon="6.10392">
        <ele>1697.8</ele>
        <time>2024-08-14T12:06:12Z</time>
      </trkpt>
      <trkpt lat="44.96622" lon="6.10392">
        <ele>1697.6</ele>
        <time>2024-08-14T12:06:13Z</time>
      </trkpt>
      <trkpt lat="44.96624" lon="6.10392">
        <ele>1697.4</ele>
        <time>2024-08-14T12:06:14Z</time>
      </trkpt>
      <trkpt lat="44.96624" lon="6.10392">
        <ele>1697.2</ele>
        <time>2024-08-14T12:06:15Z</time>
      </trkpt>
      <trkpt lat="44.96626" lon="6.10392">
        <ele>1697</ele>
        <time>2024-08-14T12:06:16Z</time>
      </trkpt>
      <trkpt lat="44.96626" lon="6.10392">
        <ele>1696.6</ele>
        <time>2024-08-14T12:06:17Z</time>
      </trkpt>
      <trkpt lat="44.96628" lon="6.10392">
        <ele>1696.6</ele>
        <time>2024-08-14T12:06:18Z</time>
      </trkpt>
      <trkpt lat="44.96628" lon="6.10392">
        <ele>1696.4</ele>
        <time>2024-08-14T12:06:19Z</time>
      </trkpt>
      <trkpt lat="44.96631" lon="6.10392">
        <ele>1695.8</ele>
        <time>2024-08-14T12:06:20Z</time>
      </trkpt>
      <trkpt lat="44.96631" lon="6.10392">
        <ele>1695.6</ele>
        <time>2024-08-14T12:06:21Z</time>
      </trkpt>
      <trkpt lat="44.96634" lon="6.10392">
        <ele>1695.4</ele>
        <time>2024-08-14T12:06:22Z</time>
      </trkpt>
      <trkpt lat="44.96634" lon="6.10392">
        <ele>1695</ele>
        <time>2024-08-14T12:06:23Z</time>
      </trkpt>
      <trkpt lat="44.96634" lon="6.10392">
        <ele>1694.8</ele>
        <time>2024-08-14T12:06:24Z</time>
      </trkpt>
      <trkpt lat="44.96636" lon="6.10393">
        <ele>1694.4</ele>
        <time>2024-08-14T12:06:25Z</time>
      </trkpt>
      <trkpt lat="44.96636" lon="6.10393">
        <ele>1694.4</ele>
        <time>2024-08-14T12:06:26Z</time>
      </trkpt>
      <trkpt lat="44.96637" lon="6.10396">
        <ele>1694.6</ele>
        <time>2024-08-14T12:06:27Z</time>
      </trkpt>
      <trkpt lat="44.96637" lon="6.10396">
        <ele>1694.8</ele>
        <time>2024-08-14T12:06:28Z</time>
      </trkpt>
      <trkpt lat="44.96637" lon="6.10396">
        <ele>1695</ele>
        <time>2024-08-14T12:06:29Z</time>
      </trkpt>
      <trkpt lat="44.96638" lon="6.104">
        <ele>1695</ele>
        <time>2024-08-14T12:06:30Z</time>
      </trkpt>
      <trkpt lat="44.96638" lon="6.104">
        <ele>1695</ele>
        <time>2024-08-14T12:06:31Z</time>
      </trkpt>
      <trkpt lat="44.9664" lon="6.10403">
        <ele>1694.6</ele>
        <time>2024-08-14T12:06:32Z</time>
      </trkpt>
      <trkpt lat="44.9664" lon="6.10403">
        <ele>1694.2</ele>
        <time>2024-08-14T12:06:33Z</time>
      </trkpt>
      <trkpt lat="44.96641" lon="6.10406">
        <ele>1694.2</ele>
        <time>2024-08-14T12:06:34Z</time>
      </trkpt>
      <trkpt lat="44.96641" lon="6.10406">
        <ele>1694.2</ele>
        <time>2024-08-14T12:06:35Z</time>
      </trkpt>
      <trkpt lat="44.96642" lon="6.10409">
        <ele>1694.2</ele>
        <time>2024-08-14T12:06:36Z</time>
      </trkpt>
      <trkpt lat="44.96642" lon="6.10409">
        <ele>1694.4</ele>
        <time>2024-08-14T12:06:37Z</time>
      </trkpt>
      <trkpt lat="44.96642" lon="6.10413">
        <ele>1694.6</ele>
        <time>2024-08-14T12:06:38Z</time>
      </trkpt>
      <trkpt lat="44.96642" lon="6.10413">
        <ele>1694.6</ele>
        <time>2024-08-14T12:06:39Z</time>
      </trkpt>
      <trkpt lat="44.96643" lon="6.10415">
        <ele>1694.4</ele>
        <time>2024-08-14T12:06:40Z</time>
      </trkpt>
      <trkpt lat="44.96643" lon="6.10415">
        <ele>1694</ele>
        <time>2024-08-14T12:06:41Z</time>
      </trkpt>
      <trkpt lat="44.96645" lon="6.10418">
        <ele>1694</ele>
        <time>2024-08-14T12:06:42Z</time>
      </trkpt>
      <trkpt lat="44.96645" lon="6.10418">
        <ele>1693.6</ele>
        <time>2024-08-14T12:06:43Z</time>
      </trkpt>
      <trkpt lat="44.96647" lon="6.1042">
        <ele>1693.2</ele>
        <time>2024-08-14T12:06:44Z</time>
      </trkpt>
      <trkpt lat="44.96647" lon="6.1042">
        <ele>1693</ele>
        <time>2024-08-14T12:06:45Z</time>
      </trkpt>
      <trkpt lat="44.96649" lon="6.10422">
        <ele>1693</ele>
        <time>2024-08-14T12:06:46Z</time>
      </trkpt>
      <trkpt lat="44.96649" lon="6.10422">
        <ele>1692.8</ele>
        <time>2024-08-14T12:06:47Z</time>
      </trkpt>
      <trkpt lat="44.9665" lon="6.10425">
        <ele>1692.6</ele>
        <time>2024-08-14T12:06:48Z</time>
      </trkpt>
      <trkpt lat="44.9665" lon="6.10425">
        <ele>1692.2</ele>
        <time>2024-08-14T12:06:49Z</time>
      </trkpt>
      <trkpt lat="44.96651" lon="6.10428">
        <ele>1692</ele>
        <time>2024-08-14T12:06:50Z</time>
      </trkpt>
      <trkpt lat="44.96651" lon="6.10428">
        <ele>1691.6</ele>
        <time>2024-08-14T12:06:51Z</time>
      </trkpt>
      <trkpt lat="44.96653" lon="6.1043">
        <ele>1691.2</ele>
        <time>2024-08-14T12:06:52Z</time>
      </trkpt>
      <trkpt lat="44.96653" lon="6.1043">
        <ele>1690.8</ele>
        <time>2024-08-14T12:06:53Z</time>
      </trkpt>
      <trkpt lat="44.96655" lon="6.10432">
        <ele>1690.6</ele>
        <time>2024-08-14T12:06:54Z</time>
      </trkpt>
      <trkpt lat="44.96655" lon="6.10432">
        <ele>1690.4</ele>
        <time>2024-08-14T12:06:55Z</time>
      </trkpt>
      <trkpt lat="44.96656" lon="6.10434">
        <ele>1690.2</ele>
        <time>2024-08-14T12:06:56Z</time>
      </trkpt>
      <trkpt lat="44.96656" lon="6.10434">
        <ele>1690</ele>
        <time>2024-08-14T12:06:57Z</time>
      </trkpt>
      <trkpt lat="44.96657" lon="6.10436">
        <ele>1690</ele>
        <time>2024-08-14T12:06:58Z</time>
      </trkpt>
      <trkpt lat="44.96657" lon="6.10436">
        <ele>1689.4</ele>
        <time>2024-08-14T12:06:59Z</time>
      </trkpt>
      <trkpt lat="44.96657" lon="6.10436">
        <ele>1689</ele>
        <time>2024-08-14T12:07:00Z</time>
      </trkpt>
      <trkpt lat="44.96659" lon="6.1044">
        <ele>1688.8</ele>
        <time>2024-08-14T12:07:01Z</time>
      </trkpt>
      <trkpt lat="44.96659" lon="6.1044">
        <ele>1688.8</ele>
        <time>2024-08-14T12:07:02Z</time>
      </trkpt>
      <trkpt lat="44.9666" lon="6.10442">
        <ele>1688.6</ele>
        <time>2024-08-14T12:07:03Z</time>
      </trkpt>
      <trkpt lat="44.9666" lon="6.10442">
        <ele>1688.2</ele>
        <time>2024-08-14T12:07:04Z</time>
      </trkpt>
      <trkpt lat="44.9666" lon="6.10442">
        <ele>1688</ele>
        <time>2024-08-14T12:07:05Z</time>
      </trkpt>
      <trkpt lat="44.96662" lon="6.10445">
        <ele>1687.6</ele>
        <time>2024-08-14T12:07:06Z</time>
      </trkpt>
      <trkpt lat="44.96662" lon="6.10445">
        <ele>1687.2</ele>
        <time>2024-08-14T12:07:07Z</time>
      </trkpt>
      <trkpt lat="44.96664" lon="6.10447">
        <ele>1687</ele>
        <time>2024-08-14T12:07:08Z</time>
      </trkpt>
      <trkpt lat="44.96664" lon="6.10447">
        <ele>1686.8</ele>
        <time>2024-08-14T12:07:09Z</time>
      </trkpt>
      <trkpt lat="44.96666" lon="6.1045">
        <ele>1686.4</ele>
        <time>2024-08-14T12:07:10Z</time>
      </trkpt>
      <trkpt lat="44.96666" lon="6.1045">
        <ele>1686.2</ele>
        <time>2024-08-14T12:07:11Z</time>
      </trkpt>
      <trkpt lat="44.96668" lon="6.10452">
        <ele>1686</ele>
        <time>2024-08-14T12:07:12Z</time>
      </trkpt>
      <trkpt lat="44.96668" lon="6.10452">
        <ele>1685.6</ele>
        <time>2024-08-14T12:07:13Z</time>
      </trkpt>
      <trkpt lat="44.9667" lon="6.10452">
        <ele>1685.6</ele>
        <time>2024-08-14T12:07:14Z</time>
      </trkpt>
      <trkpt lat="44.9667" lon="6.10452">
        <ele>1685.4</ele>
        <time>2024-08-14T12:07:15Z</time>
      </trkpt>
      <trkpt lat="44.96673" lon="6.10452">
        <ele>1685.2</ele>
        <time>2024-08-14T12:07:16Z</time>
      </trkpt>
      <trkpt lat="44.96673" lon="6.10452">
        <ele>1685</ele>
        <time>2024-08-14T12:07:17Z</time>
      </trkpt>
      <trkpt lat="44.96676" lon="6.10452">
        <ele>1685</ele>
        <time>2024-08-14T12:07:18Z</time>
      </trkpt>
      <trkpt lat="44.96676" lon="6.10452">
        <ele>1684.8</ele>
        <time>2024-08-14T12:07:19Z</time>
      </trkpt>
      <trkpt lat="44.96678" lon="6.10452">
        <ele>1684.8</ele>
        <time>2024-08-14T12:07:20Z</time>
      </trkpt>
      <trkpt lat="44.96678" lon="6.10452">
        <ele>1684.4</ele>
        <time>2024-08-14T12:07:21Z</time>
      </trkpt>
      <trkpt lat="44.96681" lon="6.10453">
        <ele>1684.4</ele>
        <time>2024-08-14T12:07:22Z</time>
      </trkpt>
      <trkpt lat="44.96681" lon="6.10453">
        <ele>1684.4</ele>
        <time>2024-08-14T12:07:23Z</time>
      </trkpt>
      <trkpt lat="44.96684" lon="6.10454">
        <ele>1684.4</ele>
        <time>2024-08-14T12:07:24Z</time>
      </trkpt>
      <trkpt lat="44.96684" lon="6.10454">
        <ele>1684.4</ele>
        <time>2024-08-14T12:07:25Z</time>
      </trkpt>
      <trkpt lat="44.96685" lon="6.10455">
        <ele>1684.4</ele>
        <time>2024-08-14T12:07:26Z</time>
      </trkpt>
      <trkpt lat="44.96685" lon="6.10455">
        <ele>1684.2</ele>
        <time>2024-08-14T12:07:27Z</time>
      </trkpt>
      <trkpt lat="44.96687" lon="6.10458">
        <ele>1684</ele>
        <time>2024-08-14T12:07:28Z</time>
      </trkpt>
      <trkpt lat="44.96687" lon="6.10458">
        <ele>1683.6</ele>
        <time>2024-08-14T12:07:29Z</time>
      </trkpt>
      <trkpt lat="44.96688" lon="6.1046">
        <ele>1683.2</ele>
        <time>2024-08-14T12:07:30Z</time>
      </trkpt>
      <trkpt lat="44.96688" lon="6.1046">
        <ele>1683</ele>
        <time>2024-08-14T12:07:31Z</time>
      </trkpt>
      <trkpt lat="44.9669" lon="6.10462">
        <ele>1682.8</ele>
        <time>2024-08-14T12:07:32Z</time>
      </trkpt>
      <trkpt lat="44.9669" lon="6.10462">
        <ele>1682.4</ele>
        <time>2024-08-14T12:07:33Z</time>
      </trkpt>
      <trkpt lat="44.96692" lon="6.10465">
        <ele>1682.4</ele>
        <time>2024-08-14T12:07:34Z</time>
      </trkpt>
      <trkpt lat="44.96692" lon="6.10465">
        <ele>1682</ele>
        <time>2024-08-14T12:07:35Z</time>
      </trkpt>
      <trkpt lat="44.96692" lon="6.10465">
        <ele>1681.6</ele>
        <time>2024-08-14T12:07:36Z</time>
      </trkpt>
      <trkpt lat="44.96694" lon="6.10468">
        <ele>1681.2</ele>
        <time>2024-08-14T12:07:37Z</time>
      </trkpt>
      <trkpt lat="44.96694" lon="6.10468">
        <ele>1681.2</ele>
        <time>2024-08-14T12:07:38Z</time>
      </trkpt>
      <trkpt lat="44.96696" lon="6.1047">
        <ele>1681</ele>
        <time>2024-08-14T12:07:39Z</time>
      </trkpt>
      <trkpt lat="44.96696" lon="6.1047">
        <ele>1680.6</ele>
        <time>2024-08-14T12:07:40Z</time>
      </trkpt>
      <trkpt lat="44.96698" lon="6.1047">
        <ele>1680.2</ele>
        <time>2024-08-14T12:07:41Z</time>
      </trkpt>
      <trkpt lat="44.96698" lon="6.1047">
        <ele>1680</ele>
        <time>2024-08-14T12:07:42Z</time>
      </trkpt>
      <trkpt lat="44.967" lon="6.10473">
        <ele>1679.6</ele>
        <time>2024-08-14T12:07:43Z</time>
      </trkpt>
      <trkpt lat="44.967" lon="6.10473">
        <ele>1679.4</ele>
        <time>2024-08-14T12:07:44Z</time>
      </trkpt>
      <trkpt lat="44.967" lon="6.10476">
        <ele>1679.4</ele>
        <time>2024-08-14T12:07:45Z</time>
      </trkpt>
      <trkpt lat="44.967" lon="6.10476">
        <ele>1679</ele>
        <time>2024-08-14T12:07:46Z</time>
      </trkpt>
      <trkpt lat="44.96702" lon="6.10478">
        <ele>1678.8</ele>
        <time>2024-08-14T12:07:47Z</time>
      </trkpt>
      <trkpt lat="44.96702" lon="6.10478">
        <ele>1678.8</ele>
        <time>2024-08-14T12:07:48Z</time>
      </trkpt>
      <trkpt lat="44.96705" lon="6.1048">
        <ele>1678.4</ele>
        <time>2024-08-14T12:07:49Z</time>
      </trkpt>
      <trkpt lat="44.96705" lon="6.1048">
        <ele>1678</ele>
        <time>2024-08-14T12:07:50Z</time>
      </trkpt>
      <trkpt lat="44.96707" lon="6.10482">
        <ele>1677.8</ele>
        <time>2024-08-14T12:07:51Z</time>
      </trkpt>
      <trkpt lat="44.96707" lon="6.10482">
        <ele>1677.8</ele>
        <time>2024-08-14T12:07:52Z</time>
      </trkpt>
      <trkpt lat="44.96709" lon="6.10484">
        <ele>1677.6</ele>
        <time>2024-08-14T12:07:53Z</time>
      </trkpt>
      <trkpt lat="44.96709" lon="6.10484">
        <ele>1677.6</ele>
        <time>2024-08-14T12:07:54Z</time>
      </trkpt>
      <trkpt lat="44.9671" lon="6.10486">
        <ele>1677.4</ele>
        <time>2024-08-14T12:07:55Z</time>
      </trkpt>
      <trkpt lat="44.9671" lon="6.10486">
        <ele>1677.2</ele>
        <time>2024-08-14T12:07:56Z</time>
      </trkpt>
      <trkpt lat="44.96712" lon="6.10489">
        <ele>1677.2</ele>
        <time>2024-08-14T12:07:57Z</time>
      </trkpt>
      <trkpt lat="44.96712" lon="6.10489">
        <ele>1677.2</ele>
        <time>2024-08-14T12:07:58Z</time>
      </trkpt>
      <trkpt lat="44.96715" lon="6.1049">
        <ele>1677</ele>
        <time>2024-08-14T12:07:59Z</time>
      </trkpt>
      <trkpt lat="44.96715" lon="6.1049">
        <ele>1677</ele>
        <time>2024-08-14T12:08:00Z</time>
      </trkpt>
      <trkpt lat="44.96717" lon="6.10492">
        <ele>1676.8</ele>
        <time>2024-08-14T12:08:01Z</time>
      </trkpt>
      <trkpt lat="44.96717" lon="6.10492">
        <ele>1676.8</ele>
        <time>2024-08-14T12:08:02Z</time>
      </trkpt>
      <trkpt lat="44.96719" lon="6.10492">
        <ele>1676.8</ele>
        <time>2024-08-14T12:08:03Z</time>
      </trkpt>
      <trkpt lat="44.96719" lon="6.10492">
        <ele>1676.6</ele>
        <time>2024-08-14T12:08:04Z</time>
      </trkpt>
      <trkpt lat="44.96719" lon="6.10492">
        <ele>1676.6</ele>
        <time>2024-08-14T12:08:05Z</time>
      </trkpt>
      <trkpt lat="44.96722" lon="6.10494">
        <ele>1676.8</ele>
        <time>2024-08-14T12:08:06Z</time>
      </trkpt>
      <trkpt lat="44.96722" lon="6.10494">
        <ele>1676.8</ele>
        <time>2024-08-14T12:08:07Z</time>
      </trkpt>
      <trkpt lat="44.96724" lon="6.10495">
        <ele>1676.8</ele>
        <time>2024-08-14T12:08:08Z</time>
      </trkpt>
      <trkpt lat="44.96724" lon="6.10495">
        <ele>1677.2</ele>
        <time>2024-08-14T12:08:09Z</time>
      </trkpt>
      <trkpt lat="44.96725" lon="6.10497">
        <ele>1677.4</ele>
        <time>2024-08-14T12:08:10Z</time>
      </trkpt>
      <trkpt lat="44.96725" lon="6.10497">
        <ele>1677.4</ele>
        <time>2024-08-14T12:08:11Z</time>
      </trkpt>
      <trkpt lat="44.96728" lon="6.10498">
        <ele>1677.4</ele>
        <time>2024-08-14T12:08:12Z</time>
      </trkpt>
      <trkpt lat="44.96728" lon="6.10498">
        <ele>1677.4</ele>
        <time>2024-08-14T12:08:13Z</time>
      </trkpt>
      <trkpt lat="44.9673" lon="6.105">
        <ele>1677</ele>
        <time>2024-08-14T12:08:14Z</time>
      </trkpt>
      <trkpt lat="44.9673" lon="6.105">
        <ele>1677</ele>
        <time>2024-08-14T12:08:15Z</time>
      </trkpt>
      <trkpt lat="44.96732" lon="6.10501">
        <ele>1677</ele>
        <time>2024-08-14T12:08:16Z</time>
      </trkpt>
      <trkpt lat="44.96732" lon="6.10501">
        <ele>1677</ele>
        <time>2024-08-14T12:08:17Z</time>
      </trkpt>
      <trkpt lat="44.96734" lon="6.10502">
        <ele>1677</ele>
        <time>2024-08-14T12:08:18Z</time>
      </trkpt>
      <trkpt lat="44.96734" lon="6.10502">
        <ele>1677.4</ele>
        <time>2024-08-14T12:08:19Z</time>
      </trkpt>
      <trkpt lat="44.96736" lon="6.10503">
        <ele>1677.4</ele>
        <time>2024-08-14T12:08:20Z</time>
      </trkpt>
      <trkpt lat="44.96736" lon="6.10503">
        <ele>1677.4</ele>
        <time>2024-08-14T12:08:21Z</time>
      </trkpt>
      <trkpt lat="44.96736" lon="6.10503">
        <ele>1677.2</ele>
        <time>2024-08-14T12:08:22Z</time>
      </trkpt>
      <trkpt lat="44.96739" lon="6.10503">
        <ele>1677.2</ele>
        <time>2024-08-14T12:08:23Z</time>
      </trkpt>
      <trkpt lat="44.96739" lon="6.10503">
        <ele>1677.6</ele>
        <time>2024-08-14T12:08:24Z</time>
      </trkpt>
      <trkpt lat="44.96739" lon="6.10503">
        <ele>1677.6</ele>
        <time>2024-08-14T12:08:25Z</time>
      </trkpt>
      <trkpt lat="44.96741" lon="6.10503">
        <ele>1677.8</ele>
        <time>2024-08-14T12:08:26Z</time>
      </trkpt>
      <trkpt lat="44.96741" lon="6.10503">
        <ele>1677.8</ele>
        <time>2024-08-14T12:08:27Z</time>
      </trkpt>
      <trkpt lat="44.96744" lon="6.10503">
        <ele>1678</ele>
        <time>2024-08-14T12:08:28Z</time>
      </trkpt>
      <trkpt lat="44.96744" lon="6.10503">
        <ele>1678</ele>
        <time>2024-08-14T12:08:29Z</time>
      </trkpt>
      <trkpt lat="44.96746" lon="6.10504">
        <ele>1678</ele>
        <time>2024-08-14T12:08:30Z</time>
      </trkpt>
      <trkpt lat="44.96746" lon="6.10504">
        <ele>1677.8</ele>
        <time>2024-08-14T12:08:31Z</time>
      </trkpt>
      <trkpt lat="44.96748" lon="6.10505">
        <ele>1677.8</ele>
        <time>2024-08-14T12:08:32Z</time>
      </trkpt>
      <trkpt lat="44.96748" lon="6.10505">
        <ele>1677.8</ele>
        <time>2024-08-14T12:08:33Z</time>
      </trkpt>
      <trkpt lat="44.96748" lon="6.10505">
        <ele>1677.8</ele>
        <time>2024-08-14T12:08:34Z</time>
      </trkpt>
      <trkpt lat="44.9675" lon="6.10507">
        <ele>1677.8</ele>
        <time>2024-08-14T12:08:35Z</time>
      </trkpt>
      <trkpt lat="44.9675" lon="6.10507">
        <ele>1677.6</ele>
        <time>2024-08-14T12:08:36Z</time>
      </trkpt>
      <trkpt lat="44.96751" lon="6.10509">
        <ele>1677.4</ele>
        <time>2024-08-14T12:08:37Z</time>
      </trkpt>
      <trkpt lat="44.96751" lon="6.10509">
        <ele>1677</ele>
        <time>2024-08-14T12:08:38Z</time>
      </trkpt>
      <trkpt lat="44.96751" lon="6.10509">
        <ele>1677</ele>
        <time>2024-08-14T12:08:39Z</time>
      </trkpt>
      <trkpt lat="44.96753" lon="6.1051">
        <ele>1676.8</ele>
        <time>2024-08-14T12:08:40Z</time>
      </trkpt>
      <trkpt lat="44.96753" lon="6.1051">
        <ele>1676.6</ele>
        <time>2024-08-14T12:08:41Z</time>
      </trkpt>
      <trkpt lat="44.96753" lon="6.1051">
        <ele>1676.4</ele>
        <time>2024-08-14T12:08:42Z</time>
      </trkpt>
      <trkpt lat="44.96755" lon="6.10513">
        <ele>1676</ele>
        <time>2024-08-14T12:08:43Z</time>
      </trkpt>
      <trkpt lat="44.96755" lon="6.10513">
        <ele>1675.8</ele>
        <time>2024-08-14T12:08:44Z</time>
      </trkpt>
      <trkpt lat="44.96757" lon="6.10514">
        <ele>1675.6</ele>
        <time>2024-08-14T12:08:45Z</time>
      </trkpt>
      <trkpt lat="44.96757" lon="6.10514">
        <ele>1675.4</ele>
        <time>2024-08-14T12:08:46Z</time>
      </trkpt>
      <trkpt lat="44.96757" lon="6.10514">
        <ele>1675</ele>
        <time>2024-08-14T12:08:47Z</time>
      </trkpt>
      <trkpt lat="44.96757" lon="6.10518">
        <ele>1674.6</ele>
        <time>2024-08-14T12:08:48Z</time>
      </trkpt>
      <trkpt lat="44.96757" lon="6.10518">
        <ele>1674.2</ele>
        <time>2024-08-14T12:08:49Z</time>
      </trkpt>
      <trkpt lat="44.96759" lon="6.1052">
        <ele>1673.8</ele>
        <time>2024-08-14T12:08:50Z</time>
      </trkpt>
      <trkpt lat="44.96759" lon="6.1052">
        <ele>1673.6</ele>
        <time>2024-08-14T12:08:51Z</time>
      </trkpt>
      <trkpt lat="44.9676" lon="6.10523">
        <ele>1673.2</ele>
        <time>2024-08-14T12:08:52Z</time>
      </trkpt>
      <trkpt lat="44.9676" lon="6.10523">
        <ele>1673</ele>
        <time>2024-08-14T12:08:53Z</time>
      </trkpt>
      <trkpt lat="44.96761" lon="6.10525">
        <ele>1672.8</ele>
        <time>2024-08-14T12:08:54Z</time>
      </trkpt>
      <trkpt lat="44.96761" lon="6.10525">
        <ele>1672.6</ele>
        <time>2024-08-14T12:08:55Z</time>
      </trkpt>
      <trkpt lat="44.96761" lon="6.10525">
        <ele>1672.4</ele>
        <time>2024-08-14T12:08:56Z</time>
      </trkpt>
      <trkpt lat="44.96763" lon="6.10529">
        <ele>1672</ele>
        <time>2024-08-14T12:08:57Z</time>
      </trkpt>
      <trkpt lat="44.96763" lon="6.10529">
        <ele>1671.2</ele>
        <time>2024-08-14T12:08:58Z</time>
      </trkpt>
      <trkpt lat="44.96765" lon="6.1053">
        <ele>1671</ele>
        <time>2024-08-14T12:08:59Z</time>
      </trkpt>
      <trkpt lat="44.96765" lon="6.1053">
        <ele>1671</ele>
        <time>2024-08-14T12:09:00Z</time>
      </trkpt>
      <trkpt lat="44.96767" lon="6.1053">
        <ele>1670.8</ele>
        <time>2024-08-14T12:09:01Z</time>
      </trkpt>
      <trkpt lat="44.96767" lon="6.1053">
        <ele>1670.4</ele>
        <time>2024-08-14T12:09:02Z</time>
      </trkpt>
      <trkpt lat="44.96769" lon="6.1053">
        <ele>1670.4</ele>
        <time>2024-08-14T12:09:03Z</time>
      </trkpt>
      <trkpt lat="44.96769" lon="6.1053">
        <ele>1670.2</ele>
        <time>2024-08-14T12:09:04Z</time>
      </trkpt>
      <trkpt lat="44.96771" lon="6.10531">
        <ele>1669.8</ele>
        <time>2024-08-14T12:09:05Z</time>
      </trkpt>
      <trkpt lat="44.96771" lon="6.10531">
        <ele>1669.4</ele>
        <time>2024-08-14T12:09:06Z</time>
      </trkpt>
      <trkpt lat="44.96771" lon="6.10531">
        <ele>1669.2</ele>
        <time>2024-08-14T12:09:07Z</time>
      </trkpt>
      <trkpt lat="44.96771" lon="6.10534">
        <ele>1669</ele>
        <time>2024-08-14T12:09:08Z</time>
      </trkpt>
      <trkpt lat="44.96771" lon="6.10534">
        <ele>1668.8</ele>
        <time>2024-08-14T12:09:09Z</time>
      </trkpt>
      <trkpt lat="44.96771" lon="6.10534">
        <ele>1668.8</ele>
        <time>2024-08-14T12:09:10Z</time>
      </trkpt>
      <trkpt lat="44.96772" lon="6.10538">
        <ele>1668.2</ele>
        <time>2024-08-14T12:09:11Z</time>
      </trkpt>
      <trkpt lat="44.96772" lon="6.10538">
        <ele>1668.2</ele>
        <time>2024-08-14T12:09:12Z</time>
      </trkpt>
      <trkpt lat="44.96772" lon="6.10538">
        <ele>1668</ele>
        <time>2024-08-14T12:09:13Z</time>
      </trkpt>
      <trkpt lat="44.96772" lon="6.1054">
        <ele>1667.8</ele>
        <time>2024-08-14T12:09:14Z</time>
      </trkpt>
      <trkpt lat="44.96772" lon="6.1054">
        <ele>1667.6</ele>
        <time>2024-08-14T12:09:15Z</time>
      </trkpt>
      <trkpt lat="44.96772" lon="6.1054">
        <ele>1667.4</ele>
        <time>2024-08-14T12:09:16Z</time>
      </trkpt>
      <trkpt lat="44.96772" lon="6.1054">
        <ele>1667</ele>
        <time>2024-08-14T12:09:17Z</time>
      </trkpt>
      <trkpt lat="44.96775" lon="6.10541">
        <ele>1666.8</ele>
        <time>2024-08-14T12:09:18Z</time>
      </trkpt>
      <trkpt lat="44.96775" lon="6.10541">
        <ele>1666.6</ele>
        <time>2024-08-14T12:09:19Z</time>
      </trkpt>
      <trkpt lat="44.96777" lon="6.10541">
        <ele>1666.4</ele>
        <time>2024-08-14T12:09:20Z</time>
      </trkpt>
      <trkpt lat="44.96777" lon="6.10541">
        <ele>1666</ele>
        <time>2024-08-14T12:09:21Z</time>
      </trkpt>
      <trkpt lat="44.96779" lon="6.10541">
        <ele>1665.6</ele>
        <time>2024-08-14T12:09:22Z</time>
      </trkpt>
      <trkpt lat="44.96779" lon="6.10541">
        <ele>1665.6</ele>
        <time>2024-08-14T12:09:23Z</time>
      </trkpt>
      <trkpt lat="44.96779" lon="6.10541">
        <ele>1665.4</ele>
        <time>2024-08-14T12:09:24Z</time>
      </trkpt>
      <trkpt lat="44.96781" lon="6.10544">
        <ele>1665</ele>
        <time>2024-08-14T12:09:25Z</time>
      </trkpt>
      <trkpt lat="44.96781" lon="6.10544">
        <ele>1664.8</ele>
        <time>2024-08-14T12:09:26Z</time>
      </trkpt>
      <trkpt lat="44.96782" lon="6.10547">
        <ele>1664.4</ele>
        <time>2024-08-14T12:09:27Z</time>
      </trkpt>
      <trkpt lat="44.96782" lon="6.10547">
        <ele>1664.4</ele>
        <time>2024-08-14T12:09:28Z</time>
      </trkpt>
      <trkpt lat="44.96783" lon="6.10549">
        <ele>1663.8</ele>
        <time>2024-08-14T12:09:29Z</time>
      </trkpt>
      <trkpt lat="44.96783" lon="6.10549">
        <ele>1663.8</ele>
        <time>2024-08-14T12:09:30Z</time>
      </trkpt>
      <trkpt lat="44.96783" lon="6.10549">
        <ele>1663.6</ele>
        <time>2024-08-14T12:09:31Z</time>
      </trkpt>
      <trkpt lat="44.96784" lon="6.10551">
        <ele>1663.6</ele>
        <time>2024-08-14T12:09:32Z</time>
      </trkpt>
      <trkpt lat="44.96784" lon="6.10551">
        <ele>1663.4</ele>
        <time>2024-08-14T12:09:33Z</time>
      </trkpt>
      <trkpt lat="44.96784" lon="6.10551">
        <ele>1663</ele>
        <time>2024-08-14T12:09:34Z</time>
      </trkpt>
      <trkpt lat="44.96787" lon="6.10554">
        <ele>1662.8</ele>
        <time>2024-08-14T12:09:35Z</time>
      </trkpt>
      <trkpt lat="44.96787" lon="6.10554">
        <ele>1662.8</ele>
        <time>2024-08-14T12:09:36Z</time>
      </trkpt>
      <trkpt lat="44.96787" lon="6.10554">
        <ele>1662.4</ele>
        <time>2024-08-14T12:09:37Z</time>
      </trkpt>
      <trkpt lat="44.96789" lon="6.10555">
        <ele>1661.8</ele>
        <time>2024-08-14T12:09:38Z</time>
      </trkpt>
      <trkpt lat="44.96789" lon="6.10555">
        <ele>1661.8</ele>
        <time>2024-08-14T12:09:39Z</time>
      </trkpt>
      <trkpt lat="44.96789" lon="6.10555">
        <ele>1661.4</ele>
        <time>2024-08-14T12:09:40Z</time>
      </trkpt>
      <trkpt lat="44.96791" lon="6.10557">
        <ele>1661.4</ele>
        <time>2024-08-14T12:09:41Z</time>
      </trkpt>
      <trkpt lat="44.96791" lon="6.10557">
        <ele>1661</ele>
        <time>2024-08-14T12:09:42Z</time>
      </trkpt>
      <trkpt lat="44.96793" lon="6.10558">
        <ele>1660.8</ele>
        <time>2024-08-14T12:09:43Z</time>
      </trkpt>
      <trkpt lat="44.96793" lon="6.10558">
        <ele>1660.6</ele>
        <time>2024-08-14T12:09:44Z</time>
      </trkpt>
      <trkpt lat="44.96795" lon="6.1056">
        <ele>1660.4</ele>
        <time>2024-08-14T12:09:45Z</time>
      </trkpt>
      <trkpt lat="44.96795" lon="6.1056">
        <ele>1660.2</ele>
        <time>2024-08-14T12:09:46Z</time>
      </trkpt>
      <trkpt lat="44.96797" lon="6.1056">
        <ele>1659.8</ele>
        <time>2024-08-14T12:09:47Z</time>
      </trkpt>
      <trkpt lat="44.96797" lon="6.1056">
        <ele>1659.8</ele>
        <time>2024-08-14T12:09:48Z</time>
      </trkpt>
      <trkpt lat="44.96797" lon="6.1056">
        <ele>1659.8</ele>
        <time>2024-08-14T12:09:49Z</time>
      </trkpt>
      <trkpt lat="44.96798" lon="6.10563">
        <ele>1659.4</ele>
        <time>2024-08-14T12:09:50Z</time>
      </trkpt>
      <trkpt lat="44.96798" lon="6.10563">
        <ele>1659.2</ele>
        <time>2024-08-14T12:09:51Z</time>
      </trkpt>
      <trkpt lat="44.96798" lon="6.10563">
        <ele>1659</ele>
        <time>2024-08-14T12:09:52Z</time>
      </trkpt>
      <trkpt lat="44.96797" lon="6.10565">
        <ele>1658.6</ele>
        <time>2024-08-14T12:09:53Z</time>
      </trkpt>
      <trkpt lat="44.96797" lon="6.10565">
        <ele>1658.4</ele>
        <time>2024-08-14T12:09:54Z</time>
      </trkpt>
      <trkpt lat="44.96797" lon="6.10565">
        <ele>1658.2</ele>
        <time>2024-08-14T12:09:55Z</time>
      </trkpt>
      <trkpt lat="44.96796" lon="6.10568">
        <ele>1658</ele>
        <time>2024-08-14T12:09:56Z</time>
      </trkpt>
      <trkpt lat="44.96796" lon="6.10568">
        <ele>1657.6</ele>
        <time>2024-08-14T12:09:57Z</time>
      </trkpt>
      <trkpt lat="44.96794" lon="6.1057">
        <ele>1657</ele>
        <time>2024-08-14T12:09:58Z</time>
      </trkpt>
      <trkpt lat="44.96794" lon="6.1057">
        <ele>1656.8</ele>
        <time>2024-08-14T12:09:59Z</time>
      </trkpt>
      <trkpt lat="44.96792" lon="6.10571">
        <ele>1656.4</ele>
        <time>2024-08-14T12:10:00Z</time>
      </trkpt>
      <trkpt lat="44.96792" lon="6.10571">
        <ele>1656.2</ele>
        <time>2024-08-14T12:10:01Z</time>
      </trkpt>
      <trkpt lat="44.96792" lon="6.10571">
        <ele>1655.6</ele>
        <time>2024-08-14T12:10:02Z</time>
      </trkpt>
      <trkpt lat="44.96789" lon="6.10571">
        <ele>1655.6</ele>
        <time>2024-08-14T12:10:03Z</time>
      </trkpt>
      <trkpt lat="44.96789" lon="6.10571">
        <ele>1655.6</ele>
        <time>2024-08-14T12:10:04Z</time>
      </trkpt>
      <trkpt lat="44.96787" lon="6.10572">
        <ele>1655.6</ele>
        <time>2024-08-14T12:10:05Z</time>
      </trkpt>
      <trkpt lat="44.96787" lon="6.10572">
        <ele>1655.4</ele>
        <time>2024-08-14T12:10:06Z</time>
      </trkpt>
      <trkpt lat="44.96787" lon="6.10572">
        <ele>1655.2</ele>
        <time>2024-08-14T12:10:07Z</time>
      </trkpt>
      <trkpt lat="44.96787" lon="6.10572">
        <ele>1654.8</ele>
        <time>2024-08-14T12:10:08Z</time>
      </trkpt>
      <trkpt lat="44.96785" lon="6.10575">
        <ele>1654.4</ele>
        <time>2024-08-14T12:10:09Z</time>
      </trkpt>
      <trkpt lat="44.96785" lon="6.10575">
        <ele>1654.2</ele>
        <time>2024-08-14T12:10:10Z</time>
      </trkpt>
      <trkpt lat="44.96785" lon="6.10575">
        <ele>1654.2</ele>
        <time>2024-08-14T12:10:11Z</time>
      </trkpt>
      <trkpt lat="44.96784" lon="6.10577">
        <ele>1654</ele>
        <time>2024-08-14T12:10:12Z</time>
      </trkpt>
      <trkpt lat="44.96784" lon="6.10577">
        <ele>1653.8</ele>
        <time>2024-08-14T12:10:13Z</time>
      </trkpt>
      <trkpt lat="44.96784" lon="6.10577">
        <ele>1653.2</ele>
        <time>2024-08-14T12:10:14Z</time>
      </trkpt>
      <trkpt lat="44.96784" lon="6.10577">
        <ele>1653.2</ele>
        <time>2024-08-14T12:10:15Z</time>
      </trkpt>
      <trkpt lat="44.96784" lon="6.10577">
        <ele>1653</ele>
        <time>2024-08-14T12:10:16Z</time>
      </trkpt>
      <trkpt lat="44.96785" lon="6.10581">
        <ele>1653</ele>
        <time>2024-08-14T12:10:17Z</time>
      </trkpt>
      <trkpt lat="44.96785" lon="6.10581">
        <ele>1653</ele>
        <time>2024-08-14T12:10:18Z</time>
      </trkpt>
      <trkpt lat="44.96785" lon="6.10581">
        <ele>1652.4</ele>
        <time>2024-08-14T12:10:19Z</time>
      </trkpt>
      <trkpt lat="44.96785" lon="6.10581">
        <ele>1652.2</ele>
        <time>2024-08-14T12:10:20Z</time>
      </trkpt>
      <trkpt lat="44.96786" lon="6.10583">
        <ele>1652</ele>
        <time>2024-08-14T12:10:21Z</time>
      </trkpt>
      <trkpt lat="44.96786" lon="6.10583">
        <ele>1651.6</ele>
        <time>2024-08-14T12:10:22Z</time>
      </trkpt>
      <trkpt lat="44.96786" lon="6.10583">
        <ele>1651.2</ele>
        <time>2024-08-14T12:10:23Z</time>
      </trkpt>
      <trkpt lat="44.96788" lon="6.10585">
        <ele>1651.2</ele>
        <time>2024-08-14T12:10:24Z</time>
      </trkpt>
      <trkpt lat="44.96788" lon="6.10585">
        <ele>1651</ele>
        <time>2024-08-14T12:10:25Z</time>
      </trkpt>
      <trkpt lat="44.96788" lon="6.10585">
        <ele>1650.6</ele>
        <time>2024-08-14T12:10:26Z</time>
      </trkpt>
      <trkpt lat="44.96789" lon="6.10588">
        <ele>1650.4</ele>
        <time>2024-08-14T12:10:27Z</time>
      </trkpt>
      <trkpt lat="44.96789" lon="6.10588">
        <ele>1650.2</ele>
        <time>2024-08-14T12:10:28Z</time>
      </trkpt>
      <trkpt lat="44.96789" lon="6.10588">
        <ele>1649.8</ele>
        <time>2024-08-14T12:10:29Z</time>
      </trkpt>
      <trkpt lat="44.96789" lon="6.10588">
        <ele>1649.2</ele>
        <time>2024-08-14T12:10:30Z</time>
      </trkpt>
      <trkpt lat="44.96789" lon="6.1059">
        <ele>1649</ele>
        <time>2024-08-14T12:10:31Z</time>
      </trkpt>
      <trkpt lat="44.96789" lon="6.1059">
        <ele>1648.8</ele>
        <time>2024-08-14T12:10:32Z</time>
      </trkpt>
      <trkpt lat="44.96789" lon="6.1059">
        <ele>1648.4</ele>
        <time>2024-08-14T12:10:33Z</time>
      </trkpt>
      <trkpt lat="44.96789" lon="6.1059">
        <ele>1648.2</ele>
        <time>2024-08-14T12:10:34Z</time>
      </trkpt>
      <trkpt lat="44.96789" lon="6.1059">
        <ele>1648</ele>
        <time>2024-08-14T12:10:35Z</time>
      </trkpt>
      <trkpt lat="44.96789" lon="6.1059">
        <ele>1647.8</ele>
        <time>2024-08-14T12:10:36Z</time>
      </trkpt>
      <trkpt lat="44.96789" lon="6.10593">
        <ele>1647.4</ele>
        <time>2024-08-14T12:10:37Z</time>
      </trkpt>
      <trkpt lat="44.96789" lon="6.10593">
        <ele>1647.2</ele>
        <time>2024-08-14T12:10:38Z</time>
      </trkpt>
      <trkpt lat="44.96791" lon="6.10592">
        <ele>1647.2</ele>
        <time>2024-08-14T12:10:39Z</time>
      </trkpt>
      <trkpt lat="44.96791" lon="6.10592">
        <ele>1647.2</ele>
        <time>2024-08-14T12:10:40Z</time>
      </trkpt>
      <trkpt lat="44.96793" lon="6.10592">
        <ele>1646.6</ele>
        <time>2024-08-14T12:10:41Z</time>
      </trkpt>
      <trkpt lat="44.96793" lon="6.10592">
        <ele>1646.6</ele>
        <time>2024-08-14T12:10:42Z</time>
      </trkpt>
      <trkpt lat="44.96793" lon="6.10592">
        <ele>1646.6</ele>
        <time>2024-08-14T12:10:43Z</time>
      </trkpt>
      <trkpt lat="44.96793" lon="6.10592">
        <ele>1646.2</ele>
        <time>2024-08-14T12:10:44Z</time>
      </trkpt>
      <trkpt lat="44.96794" lon="6.10594">
        <ele>1645.8</ele>
        <time>2024-08-14T12:10:45Z</time>
      </trkpt>
      <trkpt lat="44.96794" lon="6.10594">
        <ele>1645.6</ele>
        <time>2024-08-14T12:10:46Z</time>
      </trkpt>
      <trkpt lat="44.96794" lon="6.10594">
        <ele>1645.2</ele>
        <time>2024-08-14T12:10:47Z</time>
      </trkpt>
      <trkpt lat="44.96794" lon="6.10594">
        <ele>1645</ele>
        <time>2024-08-14T12:10:48Z</time>
      </trkpt>
      <trkpt lat="44.96795" lon="6.10597">
        <ele>1644.8</ele>
        <time>2024-08-14T12:10:49Z</time>
      </trkpt>
      <trkpt lat="44.96795" lon="6.10597">
        <ele>1644.4</ele>
        <time>2024-08-14T12:10:50Z</time>
      </trkpt>
      <trkpt lat="44.96797" lon="6.10598">
        <ele>1644.2</ele>
        <time>2024-08-14T12:10:51Z</time>
      </trkpt>
      <trkpt lat="44.96797" lon="6.10598">
        <ele>1644</ele>
        <time>2024-08-14T12:10:52Z</time>
      </trkpt>
      <trkpt lat="44.96799" lon="6.10599">
        <ele>1643.8</ele>
        <time>2024-08-14T12:10:53Z</time>
      </trkpt>
      <trkpt lat="44.96799" lon="6.10599">
        <ele>1643.6</ele>
        <time>2024-08-14T12:10:54Z</time>
      </trkpt>
      <trkpt lat="44.96799" lon="6.10599">
        <ele>1643.4</ele>
        <time>2024-08-14T12:10:55Z</time>
      </trkpt>
      <trkpt lat="44.96801" lon="6.10601">
        <ele>1642.8</ele>
        <time>2024-08-14T12:10:56Z</time>
      </trkpt>
      <trkpt lat="44.96801" lon="6.10601">
        <ele>1642.6</ele>
        <time>2024-08-14T12:10:57Z</time>
      </trkpt>
      <trkpt lat="44.96801" lon="6.10601">
        <ele>1642.4</ele>
        <time>2024-08-14T12:10:58Z</time>
      </trkpt>
      <trkpt lat="44.96803" lon="6.10603">
        <ele>1642.4</ele>
        <time>2024-08-14T12:10:59Z</time>
      </trkpt>
      <trkpt lat="44.96803" lon="6.10603">
        <ele>1642</ele>
        <time>2024-08-14T12:11:00Z</time>
      </trkpt>
      <trkpt lat="44.96805" lon="6.10604">
        <ele>1641.8</ele>
        <time>2024-08-14T12:11:01Z</time>
      </trkpt>
      <trkpt lat="44.96805" lon="6.10604">
        <ele>1641.2</ele>
        <time>2024-08-14T12:11:02Z</time>
      </trkpt>
      <trkpt lat="44.96806" lon="6.10607">
        <ele>1641.2</ele>
        <time>2024-08-14T12:11:03Z</time>
      </trkpt>
      <trkpt lat="44.96806" lon="6.10607">
        <ele>1641.2</ele>
        <time>2024-08-14T12:11:04Z</time>
      </trkpt>
      <trkpt lat="44.96808" lon="6.10611">
        <ele>1641</ele>
        <time>2024-08-14T12:11:05Z</time>
      </trkpt>
      <trkpt lat="44.96808" lon="6.10611">
        <ele>1640.6</ele>
        <time>2024-08-14T12:11:06Z</time>
      </trkpt>
      <trkpt lat="44.96808" lon="6.10611">
        <ele>1640.2</ele>
        <time>2024-08-14T12:11:07Z</time>
      </trkpt>
      <trkpt lat="44.9681" lon="6.10613">
        <ele>1639.8</ele>
        <time>2024-08-14T12:11:08Z</time>
      </trkpt>
      <trkpt lat="44.9681" lon="6.10613">
        <ele>1639.6</ele>
        <time>2024-08-14T12:11:09Z</time>
      </trkpt>
      <trkpt lat="44.9681" lon="6.10613">
        <ele>1639.6</ele>
        <time>2024-08-14T12:11:10Z</time>
      </trkpt>
      <trkpt lat="44.9681" lon="6.10613">
        <ele>1639.6</ele>
        <time>2024-08-14T12:11:11Z</time>
      </trkpt>
      <trkpt lat="44.9681" lon="6.10613">
        <ele>1639.4</ele>
        <time>2024-08-14T12:11:12Z</time>
      </trkpt>
      <trkpt lat="44.9681" lon="6.10613">
        <ele>1639.4</ele>
        <time>2024-08-14T12:11:13Z</time>
      </trkpt>
      <trkpt lat="44.9681" lon="6.10613">
        <ele>1639.4</ele>
        <time>2024-08-14T12:11:14Z</time>
      </trkpt>
      <trkpt lat="44.9681" lon="6.10613">
        <ele>1639.4</ele>
        <time>2024-08-14T12:11:15Z</time>
      </trkpt>
      <trkpt lat="44.9681" lon="6.10613">
        <ele>1639.6</ele>
        <time>2024-08-14T12:11:16Z</time>
      </trkpt>
      <trkpt lat="44.9681" lon="6.10613">
        <ele>1639.6</ele>
        <time>2024-08-14T12:11:17Z</time>
      </trkpt>
      <trkpt lat="44.9681" lon="6.10613">
        <ele>1639.6</ele>
        <time>2024-08-14T12:11:18Z</time>
      </trkpt>
      <trkpt lat="44.9681" lon="6.10613">
        <ele>1639.6</ele>
        <time>2024-08-14T12:11:19Z</time>
      </trkpt>
      <trkpt lat="44.9681" lon="6.10613">
        <ele>1639.6</ele>
        <time>2024-08-14T12:11:20Z</time>
      </trkpt>
      <trkpt lat="44.9681" lon="6.10613">
        <ele>1639.6</ele>
        <time>2024-08-14T12:11:21Z</time>
      </trkpt>
      <trkpt lat="44.9681" lon="6.10613">
        <ele>1639.6</ele>
        <time>2024-08-14T12:11:22Z</time>
      </trkpt>
      <trkpt lat="44.96811" lon="6.10616">
        <ele>1639.4</ele>
        <time>2024-08-14T12:11:23Z</time>
      </trkpt>
      <trkpt lat="44.96811" lon="6.10616">
        <ele>1639.2</ele>
        <time>2024-08-14T12:11:24Z</time>
      </trkpt>
      <trkpt lat="44.96813" lon="6.10619">
        <ele>1639.2</ele>
        <time>2024-08-14T12:11:25Z</time>
      </trkpt>
      <trkpt lat="44.96813" lon="6.10619">
        <ele>1639.2</ele>
        <time>2024-08-14T12:11:26Z</time>
      </trkpt>
      <trkpt lat="44.96814" lon="6.10622">
        <ele>1638.8</ele>
        <time>2024-08-14T12:11:27Z</time>
      </trkpt>
      <trkpt lat="44.96814" lon="6.10622">
        <ele>1638.4</ele>
        <time>2024-08-14T12:11:28Z</time>
      </trkpt>
      <trkpt lat="44.96816" lon="6.10624">
        <ele>1638</ele>
        <time>2024-08-14T12:11:29Z</time>
      </trkpt>
      <trkpt lat="44.96816" lon="6.10624">
        <ele>1637.4</ele>
        <time>2024-08-14T12:11:30Z</time>
      </trkpt>
      <trkpt lat="44.96818" lon="6.10624">
        <ele>1637.2</ele>
        <time>2024-08-14T12:11:31Z</time>
      </trkpt>
      <trkpt lat="44.96818" lon="6.10624">
        <ele>1636.8</ele>
        <time>2024-08-14T12:11:32Z</time>
      </trkpt>
      <trkpt lat="44.96818" lon="6.10624">
        <ele>1636.6</ele>
        <time>2024-08-14T12:11:33Z</time>
      </trkpt>
      <trkpt lat="44.9682" lon="6.10626">
        <ele>1636.6</ele>
        <time>2024-08-14T12:11:34Z</time>
      </trkpt>
      <trkpt lat="44.9682" lon="6.10626">
        <ele>1636.6</ele>
        <time>2024-08-14T12:11:35Z</time>
      </trkpt>
      <trkpt lat="44.9682" lon="6.10626">
        <ele>1636</ele>
        <time>2024-08-14T12:11:36Z</time>
      </trkpt>
      <trkpt lat="44.96821" lon="6.1063">
        <ele>1635.6</ele>
        <time>2024-08-14T12:11:37Z</time>
      </trkpt>
      <trkpt lat="44.96821" lon="6.1063">
        <ele>1635.4</ele>
        <time>2024-08-14T12:11:38Z</time>
      </trkpt>
      <trkpt lat="44.96821" lon="6.1063">
        <ele>1635</ele>
        <time>2024-08-14T12:11:39Z</time>
      </trkpt>
      <trkpt lat="44.9682" lon="6.10633">
        <ele>1634.8</ele>
        <time>2024-08-14T12:11:40Z</time>
      </trkpt>
      <trkpt lat="44.9682" lon="6.10633">
        <ele>1634.6</ele>
        <time>2024-08-14T12:11:41Z</time>
      </trkpt>
      <trkpt lat="44.96819" lon="6.10635">
        <ele>1634</ele>
        <time>2024-08-14T12:11:42Z</time>
      </trkpt>
      <trkpt lat="44.96819" lon="6.10635">
        <ele>1633.8</ele>
        <time>2024-08-14T12:11:43Z</time>
      </trkpt>
      <trkpt lat="44.96819" lon="6.10635">
        <ele>1633.6</ele>
        <time>2024-08-14T12:11:44Z</time>
      </trkpt>
      <trkpt lat="44.96817" lon="6.10639">
        <ele>1633.4</ele>
        <time>2024-08-14T12:11:45Z</time>
      </trkpt>
      <trkpt lat="44.96817" lon="6.10639">
        <ele>1633.4</ele>
        <time>2024-08-14T12:11:46Z</time>
      </trkpt>
      <trkpt lat="44.96817" lon="6.10639">
        <ele>1633</ele>
        <time>2024-08-14T12:11:47Z</time>
      </trkpt>
      <trkpt lat="44.96817" lon="6.10639">
        <ele>1632.6</ele>
        <time>2024-08-14T12:11:48Z</time>
      </trkpt>
      <trkpt lat="44.96819" lon="6.10641">
        <ele>1632.4</ele>
        <time>2024-08-14T12:11:49Z</time>
      </trkpt>
      <trkpt lat="44.96819" lon="6.10641">
        <ele>1632.2</ele>
        <time>2024-08-14T12:11:50Z</time>
      </trkpt>
      <trkpt lat="44.96819" lon="6.10641">
        <ele>1632</ele>
        <time>2024-08-14T12:11:51Z</time>
      </trkpt>
      <trkpt lat="44.9682" lon="6.10643">
        <ele>1631.8</ele>
        <time>2024-08-14T12:11:52Z</time>
      </trkpt>
      <trkpt lat="44.9682" lon="6.10643">
        <ele>1631.6</ele>
        <time>2024-08-14T12:11:53Z</time>
      </trkpt>
      <trkpt lat="44.9682" lon="6.10643">
        <ele>1631.4</ele>
        <time>2024-08-14T12:11:54Z</time>
      </trkpt>
      <trkpt lat="44.96822" lon="6.10644">
        <ele>1631</ele>
        <time>2024-08-14T12:11:55Z</time>
      </trkpt>
      <trkpt lat="44.96822" lon="6.10644">
        <ele>1630.6</ele>
        <time>2024-08-14T12:11:56Z</time>
      </trkpt>
      <trkpt lat="44.96822" lon="6.10644">
        <ele>1630.4</ele>
        <time>2024-08-14T12:11:57Z</time>
      </trkpt>
      <trkpt lat="44.96824" lon="6.10646">
        <ele>1630</ele>
        <time>2024-08-14T12:11:58Z</time>
      </trkpt>
      <trkpt lat="44.96824" lon="6.10646">
        <ele>1629.8</ele>
        <time>2024-08-14T12:11:59Z</time>
      </trkpt>
      <trkpt lat="44.96824" lon="6.10646">
        <ele>1629.6</ele>
        <time>2024-08-14T12:12:00Z</time>
      </trkpt>
      <trkpt lat="44.96826" lon="6.10649">
        <ele>1629.4</ele>
        <time>2024-08-14T12:12:01Z</time>
      </trkpt>
      <trkpt lat="44.96826" lon="6.10649">
        <ele>1628.8</ele>
        <time>2024-08-14T12:12:02Z</time>
      </trkpt>
      <trkpt lat="44.96826" lon="6.10649">
        <ele>1628.8</ele>
        <time>2024-08-14T12:12:03Z</time>
      </trkpt>
      <trkpt lat="44.96829" lon="6.10651">
        <ele>1628.6</ele>
        <time>2024-08-14T12:12:04Z</time>
      </trkpt>
      <trkpt lat="44.96829" lon="6.10651">
        <ele>1628.4</ele>
        <time>2024-08-14T12:12:05Z</time>
      </trkpt>
      <trkpt lat="44.9683" lon="6.10653">
        <ele>1628.2</ele>
        <time>2024-08-14T12:12:06Z</time>
      </trkpt>
      <trkpt lat="44.9683" lon="6.10653">
        <ele>1627.8</ele>
        <time>2024-08-14T12:12:07Z</time>
      </trkpt>
      <trkpt lat="44.9683" lon="6.10653">
        <ele>1627.2</ele>
        <time>2024-08-14T12:12:08Z</time>
      </trkpt>
      <trkpt lat="44.9683" lon="6.10657">
        <ele>1627.2</ele>
        <time>2024-08-14T12:12:09Z</time>
      </trkpt>
      <trkpt lat="44.9683" lon="6.10657">
        <ele>1626.8</ele>
        <time>2024-08-14T12:12:10Z</time>
      </trkpt>
      <trkpt lat="44.9683" lon="6.1066">
        <ele>1626.6</ele>
        <time>2024-08-14T12:12:11Z</time>
      </trkpt>
      <trkpt lat="44.9683" lon="6.1066">
        <ele>1626</ele>
        <time>2024-08-14T12:12:12Z</time>
      </trkpt>
      <trkpt lat="44.9683" lon="6.10662">
        <ele>1625.8</ele>
        <time>2024-08-14T12:12:13Z</time>
      </trkpt>
      <trkpt lat="44.9683" lon="6.10662">
        <ele>1625.6</ele>
        <time>2024-08-14T12:12:14Z</time>
      </trkpt>
      <trkpt lat="44.96831" lon="6.10665">
        <ele>1625.2</ele>
        <time>2024-08-14T12:12:15Z</time>
      </trkpt>
      <trkpt lat="44.96831" lon="6.10665">
        <ele>1624.8</ele>
        <time>2024-08-14T12:12:16Z</time>
      </trkpt>
      <trkpt lat="44.96833" lon="6.10666">
        <ele>1624.8</ele>
        <time>2024-08-14T12:12:17Z</time>
      </trkpt>
      <trkpt lat="44.96833" lon="6.10666">
        <ele>1624.4</ele>
        <time>2024-08-14T12:12:18Z</time>
      </trkpt>
      <trkpt lat="44.96835" lon="6.10667">
        <ele>1624</ele>
        <time>2024-08-14T12:12:19Z</time>
      </trkpt>
      <trkpt lat="44.96835" lon="6.10667">
        <ele>1623.6</ele>
        <time>2024-08-14T12:12:20Z</time>
      </trkpt>
      <trkpt lat="44.96837" lon="6.10669">
        <ele>1623.2</ele>
        <time>2024-08-14T12:12:21Z</time>
      </trkpt>
      <trkpt lat="44.96837" lon="6.10669">
        <ele>1623</ele>
        <time>2024-08-14T12:12:22Z</time>
      </trkpt>
      <trkpt lat="44.96838" lon="6.1067">
        <ele>1622.8</ele>
        <time>2024-08-14T12:12:23Z</time>
      </trkpt>
      <trkpt lat="44.96838" lon="6.1067">
        <ele>1622.6</ele>
        <time>2024-08-14T12:12:24Z</time>
      </trkpt>
      <trkpt lat="44.96839" lon="6.10673">
        <ele>1622.4</ele>
        <time>2024-08-14T12:12:25Z</time>
      </trkpt>
      <trkpt lat="44.96839" lon="6.10673">
        <ele>1622.2</ele>
        <time>2024-08-14T12:12:26Z</time>
      </trkpt>
      <trkpt lat="44.9684" lon="6.10676">
        <ele>1621.8</ele>
        <time>2024-08-14T12:12:27Z</time>
      </trkpt>
      <trkpt lat="44.9684" lon="6.10676">
        <ele>1621.4</ele>
        <time>2024-08-14T12:12:28Z</time>
      </trkpt>
      <trkpt lat="44.96841" lon="6.1068">
        <ele>1621.2</ele>
        <time>2024-08-14T12:12:29Z</time>
      </trkpt>
      <trkpt lat="44.96841" lon="6.1068">
        <ele>1621</ele>
        <time>2024-08-14T12:12:30Z</time>
      </trkpt>
      <trkpt lat="44.96843" lon="6.10683">
        <ele>1620.6</ele>
        <time>2024-08-14T12:12:31Z</time>
      </trkpt>
      <trkpt lat="44.96843" lon="6.10683">
        <ele>1620.2</ele>
        <time>2024-08-14T12:12:32Z</time>
      </trkpt>
      <trkpt lat="44.96844" lon="6.10686">
        <ele>1620.2</ele>
        <time>2024-08-14T12:12:33Z</time>
      </trkpt>
      <trkpt lat="44.96844" lon="6.10686">
        <ele>1620</ele>
        <time>2024-08-14T12:12:34Z</time>
      </trkpt>
      <trkpt lat="44.96846" lon="6.10689">
        <ele>1619.6</ele>
        <time>2024-08-14T12:12:35Z</time>
      </trkpt>
      <trkpt lat="44.96846" lon="6.10689">
        <ele>1619.4</ele>
        <time>2024-08-14T12:12:36Z</time>
      </trkpt>
      <trkpt lat="44.96846" lon="6.10689">
        <ele>1619.2</ele>
        <time>2024-08-14T12:12:37Z</time>
      </trkpt>
      <trkpt lat="44.96848" lon="6.10692">
        <ele>1619.2</ele>
        <time>2024-08-14T12:12:38Z</time>
      </trkpt>
      <trkpt lat="44.96848" lon="6.10692">
        <ele>1619.2</ele>
        <time>2024-08-14T12:12:39Z</time>
      </trkpt>
      <trkpt lat="44.96849" lon="6.10694">
        <ele>1619</ele>
        <time>2024-08-14T12:12:40Z</time>
      </trkpt>
      <trkpt lat="44.96849" lon="6.10694">
        <ele>1618.6</ele>
        <time>2024-08-14T12:12:41Z</time>
      </trkpt>
      <trkpt lat="44.9685" lon="6.10697">
        <ele>1618.4</ele>
        <time>2024-08-14T12:12:42Z</time>
      </trkpt>
      <trkpt lat="44.9685" lon="6.10697">
        <ele>1618.2</ele>
        <time>2024-08-14T12:12:43Z</time>
      </trkpt>
      <trkpt lat="44.9685" lon="6.10697">
        <ele>1617.8</ele>
        <time>2024-08-14T12:12:44Z</time>
      </trkpt>
      <trkpt lat="44.9685" lon="6.107">
        <ele>1617.8</ele>
        <time>2024-08-14T12:12:45Z</time>
      </trkpt>
      <trkpt lat="44.9685" lon="6.107">
        <ele>1617.8</ele>
        <time>2024-08-14T12:12:46Z</time>
      </trkpt>
      <trkpt lat="44.96852" lon="6.10703">
        <ele>1617.4</ele>
        <time>2024-08-14T12:12:47Z</time>
      </trkpt>
      <trkpt lat="44.96852" lon="6.10703">
        <ele>1616.8</ele>
        <time>2024-08-14T12:12:48Z</time>
      </trkpt>
      <trkpt lat="44.96852" lon="6.10703">
        <ele>1616.4</ele>
        <time>2024-08-14T12:12:49Z</time>
      </trkpt>
      <trkpt lat="44.96854" lon="6.10705">
        <ele>1616.2</ele>
        <time>2024-08-14T12:12:50Z</time>
      </trkpt>
      <trkpt lat="44.96854" lon="6.10705">
        <ele>1616</ele>
        <time>2024-08-14T12:12:51Z</time>
      </trkpt>
      <trkpt lat="44.96854" lon="6.10705">
        <ele>1615.8</ele>
        <time>2024-08-14T12:12:52Z</time>
      </trkpt>
      <trkpt lat="44.96854" lon="6.10709">
        <ele>1615.6</ele>
        <time>2024-08-14T12:12:53Z</time>
      </trkpt>
      <trkpt lat="44.96854" lon="6.10709">
        <ele>1615.4</ele>
        <time>2024-08-14T12:12:54Z</time>
      </trkpt>
      <trkpt lat="44.96856" lon="6.10712">
        <ele>1615</ele>
        <time>2024-08-14T12:12:55Z</time>
      </trkpt>
      <trkpt lat="44.96856" lon="6.10712">
        <ele>1614.6</ele>
        <time>2024-08-14T12:12:56Z</time>
      </trkpt>
      <trkpt lat="44.96857" lon="6.10715">
        <ele>1614.2</ele>
        <time>2024-08-14T12:12:57Z</time>
      </trkpt>
      <trkpt lat="44.96857" lon="6.10715">
        <ele>1614</ele>
        <time>2024-08-14T12:12:58Z</time>
      </trkpt>
      <trkpt lat="44.96859" lon="6.10718">
        <ele>1613.6</ele>
        <time>2024-08-14T12:12:59Z</time>
      </trkpt>
      <trkpt lat="44.96859" lon="6.10718">
        <ele>1613.2</ele>
        <time>2024-08-14T12:13:00Z</time>
      </trkpt>
      <trkpt lat="44.9686" lon="6.1072">
        <ele>1613</ele>
        <time>2024-08-14T12:13:01Z</time>
      </trkpt>
      <trkpt lat="44.9686" lon="6.1072">
        <ele>1612.6</ele>
        <time>2024-08-14T12:13:02Z</time>
      </trkpt>
      <trkpt lat="44.96861" lon="6.10723">
        <ele>1612.6</ele>
        <time>2024-08-14T12:13:03Z</time>
      </trkpt>
      <trkpt lat="44.96861" lon="6.10723">
        <ele>1612.4</ele>
        <time>2024-08-14T12:13:04Z</time>
      </trkpt>
      <trkpt lat="44.96862" lon="6.10727">
        <ele>1612.4</ele>
        <time>2024-08-14T12:13:05Z</time>
      </trkpt>
      <trkpt lat="44.96862" lon="6.10727">
        <ele>1612.2</ele>
        <time>2024-08-14T12:13:06Z</time>
      </trkpt>
      <trkpt lat="44.96862" lon="6.1073">
        <ele>1612</ele>
        <time>2024-08-14T12:13:07Z</time>
      </trkpt>
      <trkpt lat="44.96862" lon="6.1073">
        <ele>1611.8</ele>
        <time>2024-08-14T12:13:08Z</time>
      </trkpt>
      <trkpt lat="44.96861" lon="6.10733">
        <ele>1611.8</ele>
        <time>2024-08-14T12:13:09Z</time>
      </trkpt>
      <trkpt lat="44.96861" lon="6.10733">
        <ele>1611.4</ele>
        <time>2024-08-14T12:13:10Z</time>
      </trkpt>
      <trkpt lat="44.96861" lon="6.10736">
        <ele>1611</ele>
        <time>2024-08-14T12:13:11Z</time>
      </trkpt>
      <trkpt lat="44.96861" lon="6.10736">
        <ele>1611</ele>
        <time>2024-08-14T12:13:12Z</time>
      </trkpt>
      <trkpt lat="44.96861" lon="6.10738">
        <ele>1610.8</ele>
        <time>2024-08-14T12:13:13Z</time>
      </trkpt>
      <trkpt lat="44.96861" lon="6.10738">
        <ele>1610.4</ele>
        <time>2024-08-14T12:13:14Z</time>
      </trkpt>
      <trkpt lat="44.96861" lon="6.10741">
        <ele>1610.2</ele>
        <time>2024-08-14T12:13:15Z</time>
      </trkpt>
      <trkpt lat="44.96861" lon="6.10741">
        <ele>1610</ele>
        <time>2024-08-14T12:13:16Z</time>
      </trkpt>
      <trkpt lat="44.96861" lon="6.10744">
        <ele>1609.8</ele>
        <time>2024-08-14T12:13:17Z</time>
      </trkpt>
      <trkpt lat="44.96861" lon="6.10744">
        <ele>1609.6</ele>
        <time>2024-08-14T12:13:18Z</time>
      </trkpt>
      <trkpt lat="44.96862" lon="6.10747">
        <ele>1609.6</ele>
        <time>2024-08-14T12:13:19Z</time>
      </trkpt>
      <trkpt lat="44.96862" lon="6.10747">
        <ele>1609.2</ele>
        <time>2024-08-14T12:13:20Z</time>
      </trkpt>
      <trkpt lat="44.96862" lon="6.10749">
        <ele>1608.8</ele>
        <time>2024-08-14T12:13:21Z</time>
      </trkpt>
      <trkpt lat="44.96862" lon="6.10749">
        <ele>1608.6</ele>
        <time>2024-08-14T12:13:22Z</time>
      </trkpt>
      <trkpt lat="44.96862" lon="6.10749">
        <ele>1608.4</ele>
        <time>2024-08-14T12:13:23Z</time>
      </trkpt>
      <trkpt lat="44.96863" lon="6.10753">
        <ele>1608.2</ele>
        <time>2024-08-14T12:13:24Z</time>
      </trkpt>
      <trkpt lat="44.96863" lon="6.10753">
        <ele>1607.8</ele>
        <time>2024-08-14T12:13:25Z</time>
      </trkpt>
      <trkpt lat="44.96863" lon="6.10755">
        <ele>1607.6</ele>
        <time>2024-08-14T12:13:26Z</time>
      </trkpt>
      <trkpt lat="44.96863" lon="6.10755">
        <ele>1607.4</ele>
        <time>2024-08-14T12:13:27Z</time>
      </trkpt>
      <trkpt lat="44.96864" lon="6.10758">
        <ele>1606.8</ele>
        <time>2024-08-14T12:13:28Z</time>
      </trkpt>
      <trkpt lat="44.96864" lon="6.10758">
        <ele>1606.2</ele>
        <time>2024-08-14T12:13:29Z</time>
      </trkpt>
      <trkpt lat="44.96867" lon="6.1076">
        <ele>1606</ele>
        <time>2024-08-14T12:13:30Z</time>
      </trkpt>
      <trkpt lat="44.96869" lon="6.10761">
        <ele>1606</ele>
        <time>2024-08-14T12:13:31Z</time>
      </trkpt>
      <trkpt lat="44.96869" lon="6.10761">
        <ele>1605.8</ele>
        <time>2024-08-14T12:13:32Z</time>
      </trkpt>
      <trkpt lat="44.9687" lon="6.10763">
        <ele>1605.6</ele>
        <time>2024-08-14T12:13:33Z</time>
      </trkpt>
      <trkpt lat="44.9687" lon="6.10763">
        <ele>1605.4</ele>
        <time>2024-08-14T12:13:34Z</time>
      </trkpt>
      <trkpt lat="44.96872" lon="6.10765">
        <ele>1605.4</ele>
        <time>2024-08-14T12:13:35Z</time>
      </trkpt>
      <trkpt lat="44.96872" lon="6.10765">
        <ele>1605.4</ele>
        <time>2024-08-14T12:13:36Z</time>
      </trkpt>
      <trkpt lat="44.96872" lon="6.10765">
        <ele>1605</ele>
        <time>2024-08-14T12:13:37Z</time>
      </trkpt>
      <trkpt lat="44.96874" lon="6.10767">
        <ele>1604.8</ele>
        <time>2024-08-14T12:13:38Z</time>
      </trkpt>
      <trkpt lat="44.96874" lon="6.10767">
        <ele>1604.4</ele>
        <time>2024-08-14T12:13:39Z</time>
      </trkpt>
      <trkpt lat="44.96874" lon="6.10767">
        <ele>1604.2</ele>
        <time>2024-08-14T12:13:40Z</time>
      </trkpt>
      <trkpt lat="44.96876" lon="6.10769">
        <ele>1604.2</ele>
        <time>2024-08-14T12:13:41Z</time>
      </trkpt>
      <trkpt lat="44.96876" lon="6.10769">
        <ele>1603.8</ele>
        <time>2024-08-14T12:13:42Z</time>
      </trkpt>
      <trkpt lat="44.96876" lon="6.10769">
        <ele>1603.4</ele>
        <time>2024-08-14T12:13:43Z</time>
      </trkpt>
      <trkpt lat="44.96874" lon="6.1077">
        <ele>1603</ele>
        <time>2024-08-14T12:13:44Z</time>
      </trkpt>
      <trkpt lat="44.96874" lon="6.1077">
        <ele>1603</ele>
        <time>2024-08-14T12:13:45Z</time>
      </trkpt>
      <trkpt lat="44.96874" lon="6.1077">
        <ele>1602.8</ele>
        <time>2024-08-14T12:13:46Z</time>
      </trkpt>
      <trkpt lat="44.96872" lon="6.10769">
        <ele>1602.6</ele>
        <time>2024-08-14T12:13:47Z</time>
      </trkpt>
      <trkpt lat="44.96872" lon="6.10769">
        <ele>1602.4</ele>
        <time>2024-08-14T12:13:48Z</time>
      </trkpt>
      <trkpt lat="44.96872" lon="6.10769">
        <ele>1602</ele>
        <time>2024-08-14T12:13:49Z</time>
      </trkpt>
      <trkpt lat="44.9687" lon="6.10771">
        <ele>1602</ele>
        <time>2024-08-14T12:13:50Z</time>
      </trkpt>
      <trkpt lat="44.9687" lon="6.10771">
        <ele>1601.8</ele>
        <time>2024-08-14T12:13:51Z</time>
      </trkpt>
      <trkpt lat="44.9687" lon="6.10771">
        <ele>1601.6</ele>
        <time>2024-08-14T12:13:52Z</time>
      </trkpt>
      <trkpt lat="44.9687" lon="6.10771">
        <ele>1601.6</ele>
        <time>2024-08-14T12:13:53Z</time>
      </trkpt>
      <trkpt lat="44.9687" lon="6.10771">
        <ele>1601.2</ele>
        <time>2024-08-14T12:13:54Z</time>
      </trkpt>
      <trkpt lat="44.9687" lon="6.10771">
        <ele>1600.8</ele>
        <time>2024-08-14T12:13:55Z</time>
      </trkpt>
      <trkpt lat="44.9687" lon="6.10771">
        <ele>1600.4</ele>
        <time>2024-08-14T12:13:56Z</time>
      </trkpt>
      <trkpt lat="44.9687" lon="6.10771">
        <ele>1600.2</ele>
        <time>2024-08-14T12:13:57Z</time>
      </trkpt>
      <trkpt lat="44.96871" lon="6.10774">
        <ele>1600</ele>
        <time>2024-08-14T12:13:58Z</time>
      </trkpt>
      <trkpt lat="44.96871" lon="6.10774">
        <ele>1599.6</ele>
        <time>2024-08-14T12:13:59Z</time>
      </trkpt>
      <trkpt lat="44.96871" lon="6.10774">
        <ele>1599.2</ele>
        <time>2024-08-14T12:14:00Z</time>
      </trkpt>
      <trkpt lat="44.96871" lon="6.10774">
        <ele>1599</ele>
        <time>2024-08-14T12:14:01Z</time>
      </trkpt>
      <trkpt lat="44.96871" lon="6.10774">
        <ele>1598.6</ele>
        <time>2024-08-14T12:14:02Z</time>
      </trkpt>
      <trkpt lat="44.96872" lon="6.10776">
        <ele>1598.6</ele>
        <time>2024-08-14T12:14:03Z</time>
      </trkpt>
      <trkpt lat="44.96872" lon="6.10776">
        <ele>1598.2</ele>
        <time>2024-08-14T12:14:04Z</time>
      </trkpt>
      <trkpt lat="44.96874" lon="6.10778">
        <ele>1598</ele>
        <time>2024-08-14T12:14:05Z</time>
      </trkpt>
      <trkpt lat="44.96874" lon="6.10778">
        <ele>1597.4</ele>
        <time>2024-08-14T12:14:06Z</time>
      </trkpt>
      <trkpt lat="44.96876" lon="6.10781">
        <ele>1597.4</ele>
        <time>2024-08-14T12:14:07Z</time>
      </trkpt>
      <trkpt lat="44.96876" lon="6.10781">
        <ele>1597</ele>
        <time>2024-08-14T12:14:08Z</time>
      </trkpt>
      <trkpt lat="44.96878" lon="6.10784">
        <ele>1596.8</ele>
        <time>2024-08-14T12:14:09Z</time>
      </trkpt>
      <trkpt lat="44.96878" lon="6.10784">
        <ele>1596.4</ele>
        <time>2024-08-14T12:14:10Z</time>
      </trkpt>
      <trkpt lat="44.9688" lon="6.10786">
        <ele>1596.2</ele>
        <time>2024-08-14T12:14:11Z</time>
      </trkpt>
      <trkpt lat="44.9688" lon="6.10786">
        <ele>1596</ele>
        <time>2024-08-14T12:14:12Z</time>
      </trkpt>
      <trkpt lat="44.96881" lon="6.10789">
        <ele>1595.6</ele>
        <time>2024-08-14T12:14:13Z</time>
      </trkpt>
      <trkpt lat="44.96881" lon="6.10789">
        <ele>1595.2</ele>
        <time>2024-08-14T12:14:14Z</time>
      </trkpt>
      <trkpt lat="44.96883" lon="6.10792">
        <ele>1595</ele>
        <time>2024-08-14T12:14:15Z</time>
      </trkpt>
      <trkpt lat="44.96883" lon="6.10792">
        <ele>1595</ele>
        <time>2024-08-14T12:14:16Z</time>
      </trkpt>
      <trkpt lat="44.96884" lon="6.10795">
        <ele>1595</ele>
        <time>2024-08-14T12:14:17Z</time>
      </trkpt>
      <trkpt lat="44.96884" lon="6.10795">
        <ele>1594.8</ele>
        <time>2024-08-14T12:14:18Z</time>
      </trkpt>
      <trkpt lat="44.96885" lon="6.10798">
        <ele>1594.8</ele>
        <time>2024-08-14T12:14:19Z</time>
      </trkpt>
      <trkpt lat="44.96885" lon="6.10798">
        <ele>1594.8</ele>
        <time>2024-08-14T12:14:20Z</time>
      </trkpt>
      <trkpt lat="44.96886" lon="6.10801">
        <ele>1594.6</ele>
        <time>2024-08-14T12:14:21Z</time>
      </trkpt>
      <trkpt lat="44.96886" lon="6.10801">
        <ele>1594.4</ele>
        <time>2024-08-14T12:14:22Z</time>
      </trkpt>
      <trkpt lat="44.96888" lon="6.10804">
        <ele>1594.4</ele>
        <time>2024-08-14T12:14:23Z</time>
      </trkpt>
      <trkpt lat="44.96888" lon="6.10804">
        <ele>1594.4</ele>
        <time>2024-08-14T12:14:24Z</time>
      </trkpt>
      <trkpt lat="44.96888" lon="6.10807">
        <ele>1594.8</ele>
        <time>2024-08-14T12:14:25Z</time>
      </trkpt>
      <trkpt lat="44.96888" lon="6.10807">
        <ele>1594.8</ele>
        <time>2024-08-14T12:14:26Z</time>
      </trkpt>
      <trkpt lat="44.96888" lon="6.10807">
        <ele>1594.6</ele>
        <time>2024-08-14T12:14:27Z</time>
      </trkpt>
      <trkpt lat="44.9689" lon="6.1081">
        <ele>1594.4</ele>
        <time>2024-08-14T12:14:28Z</time>
      </trkpt>
      <trkpt lat="44.9689" lon="6.1081">
        <ele>1594.2</ele>
        <time>2024-08-14T12:14:29Z</time>
      </trkpt>
      <trkpt lat="44.9689" lon="6.1081">
        <ele>1594</ele>
        <time>2024-08-14T12:14:30Z</time>
      </trkpt>
      <trkpt lat="44.9689" lon="6.1081">
        <ele>1594</ele>
        <time>2024-08-14T12:14:31Z</time>
      </trkpt>
      <trkpt lat="44.96892" lon="6.10813">
        <ele>1593.8</ele>
        <time>2024-08-14T12:14:32Z</time>
      </trkpt>
      <trkpt lat="44.96892" lon="6.10813">
        <ele>1593.4</ele>
        <time>2024-08-14T12:14:33Z</time>
      </trkpt>
      <trkpt lat="44.96892" lon="6.10813">
        <ele>1593</ele>
        <time>2024-08-14T12:14:34Z</time>
      </trkpt>
      <trkpt lat="44.96892" lon="6.10813">
        <ele>1592.8</ele>
        <time>2024-08-14T12:14:35Z</time>
      </trkpt>
      <trkpt lat="44.9689" lon="6.10815">
        <ele>1592.6</ele>
        <time>2024-08-14T12:14:36Z</time>
      </trkpt>
      <trkpt lat="44.9689" lon="6.10815">
        <ele>1592.2</ele>
        <time>2024-08-14T12:14:37Z</time>
      </trkpt>
      <trkpt lat="44.9689" lon="6.10815">
        <ele>1591.4</ele>
        <time>2024-08-14T12:14:38Z</time>
      </trkpt>
      <trkpt lat="44.96892" lon="6.10817">
        <ele>1591</ele>
        <time>2024-08-14T12:14:39Z</time>
      </trkpt>
      <trkpt lat="44.96892" lon="6.10817">
        <ele>1591</ele>
        <time>2024-08-14T12:14:40Z</time>
      </trkpt>
      <trkpt lat="44.96892" lon="6.10821">
        <ele>1590.6</ele>
        <time>2024-08-14T12:14:41Z</time>
      </trkpt>
      <trkpt lat="44.96892" lon="6.10821">
        <ele>1590.4</ele>
        <time>2024-08-14T12:14:42Z</time>
      </trkpt>
      <trkpt lat="44.96892" lon="6.10824">
        <ele>1590.2</ele>
        <time>2024-08-14T12:14:43Z</time>
      </trkpt>
      <trkpt lat="44.96892" lon="6.10824">
        <ele>1590</ele>
        <time>2024-08-14T12:14:44Z</time>
      </trkpt>
      <trkpt lat="44.96893" lon="6.10827">
        <ele>1589.6</ele>
        <time>2024-08-14T12:14:45Z</time>
      </trkpt>
      <trkpt lat="44.96893" lon="6.10827">
        <ele>1589.4</ele>
        <time>2024-08-14T12:14:46Z</time>
      </trkpt>
      <trkpt lat="44.96893" lon="6.1083">
        <ele>1589</ele>
        <time>2024-08-14T12:14:47Z</time>
      </trkpt>
      <trkpt lat="44.96893" lon="6.1083">
        <ele>1588.6</ele>
        <time>2024-08-14T12:14:48Z</time>
      </trkpt>
      <trkpt lat="44.96894" lon="6.10834">
        <ele>1588.6</ele>
        <time>2024-08-14T12:14:49Z</time>
      </trkpt>
      <trkpt lat="44.96894" lon="6.10834">
        <ele>1588.2</ele>
        <time>2024-08-14T12:14:50Z</time>
      </trkpt>
      <trkpt lat="44.96894" lon="6.10838">
        <ele>1587.8</ele>
        <time>2024-08-14T12:14:51Z</time>
      </trkpt>
      <trkpt lat="44.96894" lon="6.10838">
        <ele>1587.4</ele>
        <time>2024-08-14T12:14:52Z</time>
      </trkpt>
      <trkpt lat="44.96894" lon="6.10841">
        <ele>1587.2</ele>
        <time>2024-08-14T12:14:53Z</time>
      </trkpt>
      <trkpt lat="44.96894" lon="6.10841">
        <ele>1587</ele>
        <time>2024-08-14T12:14:54Z</time>
      </trkpt>
      <trkpt lat="44.96894" lon="6.10843">
        <ele>1587</ele>
        <time>2024-08-14T12:14:55Z</time>
      </trkpt>
      <trkpt lat="44.96894" lon="6.10843">
        <ele>1586.6</ele>
        <time>2024-08-14T12:14:56Z</time>
      </trkpt>
      <trkpt lat="44.96894" lon="6.10843">
        <ele>1586.2</ele>
        <time>2024-08-14T12:14:57Z</time>
      </trkpt>
      <trkpt lat="44.96894" lon="6.10847">
        <ele>1585.8</ele>
        <time>2024-08-14T12:14:58Z</time>
      </trkpt>
      <trkpt lat="44.96894" lon="6.10847">
        <ele>1585.4</ele>
        <time>2024-08-14T12:14:59Z</time>
      </trkpt>
      <trkpt lat="44.96893" lon="6.1085">
        <ele>1585.2</ele>
        <time>2024-08-14T12:15:00Z</time>
      </trkpt>
      <trkpt lat="44.96893" lon="6.1085">
        <ele>1584.4</ele>
        <time>2024-08-14T12:15:01Z</time>
      </trkpt>
      <trkpt lat="44.96893" lon="6.1085">
        <ele>1584</ele>
        <time>2024-08-14T12:15:02Z</time>
      </trkpt>
      <trkpt lat="44.96893" lon="6.10853">
        <ele>1584</ele>
        <time>2024-08-14T12:15:03Z</time>
      </trkpt>
      <trkpt lat="44.96893" lon="6.10853">
        <ele>1583.8</ele>
        <time>2024-08-14T12:15:04Z</time>
      </trkpt>
      <trkpt lat="44.96892" lon="6.10856">
        <ele>1583.6</ele>
        <time>2024-08-14T12:15:05Z</time>
      </trkpt>
      <trkpt lat="44.96892" lon="6.10856">
        <ele>1583.2</ele>
        <time>2024-08-14T12:15:06Z</time>
      </trkpt>
      <trkpt lat="44.96891" lon="6.10858">
        <ele>1583</ele>
        <time>2024-08-14T12:15:07Z</time>
      </trkpt>
      <trkpt lat="44.96891" lon="6.10858">
        <ele>1582.8</ele>
        <time>2024-08-14T12:15:08Z</time>
      </trkpt>
      <trkpt lat="44.9689" lon="6.10861">
        <ele>1582.6</ele>
        <time>2024-08-14T12:15:09Z</time>
      </trkpt>
      <trkpt lat="44.9689" lon="6.10861">
        <ele>1582.4</ele>
        <time>2024-08-14T12:15:10Z</time>
      </trkpt>
      <trkpt lat="44.9689" lon="6.10861">
        <ele>1582</ele>
        <time>2024-08-14T12:15:11Z</time>
      </trkpt>
      <trkpt lat="44.9689" lon="6.10864">
        <ele>1581.8</ele>
        <time>2024-08-14T12:15:12Z</time>
      </trkpt>
      <trkpt lat="44.9689" lon="6.10864">
        <ele>1581.4</ele>
        <time>2024-08-14T12:15:13Z</time>
      </trkpt>
      <trkpt lat="44.9689" lon="6.10864">
        <ele>1581</ele>
        <time>2024-08-14T12:15:14Z</time>
      </trkpt>
      <trkpt lat="44.9689" lon="6.10864">
        <ele>1580.8</ele>
        <time>2024-08-14T12:15:15Z</time>
      </trkpt>
      <trkpt lat="44.96887" lon="6.10865">
        <ele>1580.4</ele>
        <time>2024-08-14T12:15:16Z</time>
      </trkpt>
      <trkpt lat="44.96887" lon="6.10865">
        <ele>1580.4</ele>
        <time>2024-08-14T12:15:17Z</time>
      </trkpt>
      <trkpt lat="44.96887" lon="6.10865">
        <ele>1580</ele>
        <time>2024-08-14T12:15:18Z</time>
      </trkpt>
      <trkpt lat="44.96885" lon="6.10864">
        <ele>1579.6</ele>
        <time>2024-08-14T12:15:19Z</time>
      </trkpt>
      <trkpt lat="44.96885" lon="6.10864">
        <ele>1579.4</ele>
        <time>2024-08-14T12:15:20Z</time>
      </trkpt>
      <trkpt lat="44.96885" lon="6.10864">
        <ele>1579.2</ele>
        <time>2024-08-14T12:15:21Z</time>
      </trkpt>
      <trkpt lat="44.96884" lon="6.10866">
        <ele>1578.6</ele>
        <time>2024-08-14T12:15:22Z</time>
      </trkpt>
      <trkpt lat="44.96884" lon="6.10866">
        <ele>1578.6</ele>
        <time>2024-08-14T12:15:23Z</time>
      </trkpt>
      <trkpt lat="44.96884" lon="6.10866">
        <ele>1578.2</ele>
        <time>2024-08-14T12:15:24Z</time>
      </trkpt>
      <trkpt lat="44.96882" lon="6.10868">
        <ele>1578</ele>
        <time>2024-08-14T12:15:25Z</time>
      </trkpt>
      <trkpt lat="44.96882" lon="6.10868">
        <ele>1577.8</ele>
        <time>2024-08-14T12:15:26Z</time>
      </trkpt>
      <trkpt lat="44.96882" lon="6.10871">
        <ele>1577.6</ele>
        <time>2024-08-14T12:15:27Z</time>
      </trkpt>
      <trkpt lat="44.96882" lon="6.10871">
        <ele>1577.2</ele>
        <time>2024-08-14T12:15:28Z</time>
      </trkpt>
      <trkpt lat="44.96882" lon="6.10871">
        <ele>1576.8</ele>
        <time>2024-08-14T12:15:29Z</time>
      </trkpt>
      <trkpt lat="44.96882" lon="6.10875">
        <ele>1576.6</ele>
        <time>2024-08-14T12:15:30Z</time>
      </trkpt>
      <trkpt lat="44.96882" lon="6.10875">
        <ele>1576.4</ele>
        <time>2024-08-14T12:15:31Z</time>
      </trkpt>
      <trkpt lat="44.9688" lon="6.10876">
        <ele>1575.8</ele>
        <time>2024-08-14T12:15:32Z</time>
      </trkpt>
      <trkpt lat="44.9688" lon="6.10876">
        <ele>1575.4</ele>
        <time>2024-08-14T12:15:33Z</time>
      </trkpt>
      <trkpt lat="44.96879" lon="6.10878">
        <ele>1575.4</ele>
        <time>2024-08-14T12:15:34Z</time>
      </trkpt>
      <trkpt lat="44.96879" lon="6.10878">
        <ele>1575</ele>
        <time>2024-08-14T12:15:35Z</time>
      </trkpt>
      <trkpt lat="44.96879" lon="6.10881">
        <ele>1575</ele>
        <time>2024-08-14T12:15:36Z</time>
      </trkpt>
      <trkpt lat="44.96879" lon="6.10881">
        <ele>1574.8</ele>
        <time>2024-08-14T12:15:37Z</time>
      </trkpt>
      <trkpt lat="44.96879" lon="6.10881">
        <ele>1574.4</ele>
        <time>2024-08-14T12:15:38Z</time>
      </trkpt>
      <trkpt lat="44.96879" lon="6.10885">
        <ele>1574</ele>
        <time>2024-08-14T12:15:39Z</time>
      </trkpt>
      <trkpt lat="44.96879" lon="6.10885">
        <ele>1573.8</ele>
        <time>2024-08-14T12:15:40Z</time>
      </trkpt>
      <trkpt lat="44.96879" lon="6.10885">
        <ele>1573.6</ele>
        <time>2024-08-14T12:15:41Z</time>
      </trkpt>
      <trkpt lat="44.9688" lon="6.10888">
        <ele>1573.2</ele>
        <time>2024-08-14T12:15:42Z</time>
      </trkpt>
      <trkpt lat="44.9688" lon="6.10888">
        <ele>1572.8</ele>
        <time>2024-08-14T12:15:43Z</time>
      </trkpt>
      <trkpt lat="44.9688" lon="6.10891">
        <ele>1572.6</ele>
        <time>2024-08-14T12:15:44Z</time>
      </trkpt>
      <trkpt lat="44.9688" lon="6.10891">
        <ele>1572.2</ele>
        <time>2024-08-14T12:15:45Z</time>
      </trkpt>
      <trkpt lat="44.96882" lon="6.10893">
        <ele>1572.2</ele>
        <time>2024-08-14T12:15:46Z</time>
      </trkpt>
      <trkpt lat="44.96882" lon="6.10893">
        <ele>1572.2</ele>
        <time>2024-08-14T12:15:47Z</time>
      </trkpt>
      <trkpt lat="44.96882" lon="6.10896">
        <ele>1572</ele>
        <time>2024-08-14T12:15:48Z</time>
      </trkpt>
      <trkpt lat="44.96882" lon="6.10896">
        <ele>1571.8</ele>
        <time>2024-08-14T12:15:49Z</time>
      </trkpt>
      <trkpt lat="44.96883" lon="6.10899">
        <ele>1571.6</ele>
        <time>2024-08-14T12:15:50Z</time>
      </trkpt>
      <trkpt lat="44.96883" lon="6.10899">
        <ele>1571.4</ele>
        <time>2024-08-14T12:15:51Z</time>
      </trkpt>
      <trkpt lat="44.96883" lon="6.10899">
        <ele>1571.2</ele>
        <time>2024-08-14T12:15:52Z</time>
      </trkpt>
      <trkpt lat="44.96884" lon="6.10903">
        <ele>1571</ele>
        <time>2024-08-14T12:15:53Z</time>
      </trkpt>
      <trkpt lat="44.96884" lon="6.10903">
        <ele>1571</ele>
        <time>2024-08-14T12:15:54Z</time>
      </trkpt>
      <trkpt lat="44.96884" lon="6.10903">
        <ele>1570.6</ele>
        <time>2024-08-14T12:15:55Z</time>
      </trkpt>
      <trkpt lat="44.96884" lon="6.10906">
        <ele>1570.4</ele>
        <time>2024-08-14T12:15:56Z</time>
      </trkpt>
      <trkpt lat="44.96884" lon="6.10906">
        <ele>1570.2</ele>
        <time>2024-08-14T12:15:57Z</time>
      </trkpt>
      <trkpt lat="44.96884" lon="6.10906">
        <ele>1570</ele>
        <time>2024-08-14T12:15:58Z</time>
      </trkpt>
      <trkpt lat="44.96883" lon="6.10908">
        <ele>1569.6</ele>
        <time>2024-08-14T12:15:59Z</time>
      </trkpt>
      <trkpt lat="44.96883" lon="6.10908">
        <ele>1569.4</ele>
        <time>2024-08-14T12:16:00Z</time>
      </trkpt>
      <trkpt lat="44.96883" lon="6.10908">
        <ele>1569.4</ele>
        <time>2024-08-14T12:16:01Z</time>
      </trkpt>
      <trkpt lat="44.96883" lon="6.10908">
        <ele>1568.6</ele>
        <time>2024-08-14T12:16:02Z</time>
      </trkpt>
      <trkpt lat="44.96884" lon="6.1091">
        <ele>1568.6</ele>
        <time>2024-08-14T12:16:03Z</time>
      </trkpt>
      <trkpt lat="44.96884" lon="6.1091">
        <ele>1568.2</ele>
        <time>2024-08-14T12:16:04Z</time>
      </trkpt>
      <trkpt lat="44.96886" lon="6.10912">
        <ele>1568.2</ele>
        <time>2024-08-14T12:16:05Z</time>
      </trkpt>
      <trkpt lat="44.96886" lon="6.10912">
        <ele>1568.2</ele>
        <time>2024-08-14T12:16:06Z</time>
      </trkpt>
      <trkpt lat="44.96888" lon="6.10913">
        <ele>1568</ele>
        <time>2024-08-14T12:16:07Z</time>
      </trkpt>
      <trkpt lat="44.96888" lon="6.10913">
        <ele>1567.8</ele>
        <time>2024-08-14T12:16:08Z</time>
      </trkpt>
      <trkpt lat="44.9689" lon="6.10915">
        <ele>1567.6</ele>
        <time>2024-08-14T12:16:09Z</time>
      </trkpt>
      <trkpt lat="44.9689" lon="6.10915">
        <ele>1567.6</ele>
        <time>2024-08-14T12:16:10Z</time>
      </trkpt>
      <trkpt lat="44.96891" lon="6.10917">
        <ele>1567.6</ele>
        <time>2024-08-14T12:16:11Z</time>
      </trkpt>
      <trkpt lat="44.96891" lon="6.10917">
        <ele>1567.4</ele>
        <time>2024-08-14T12:16:12Z</time>
      </trkpt>
      <trkpt lat="44.96892" lon="6.1092">
        <ele>1567.4</ele>
        <time>2024-08-14T12:16:13Z</time>
      </trkpt>
      <trkpt lat="44.96892" lon="6.1092">
        <ele>1567</ele>
        <time>2024-08-14T12:16:14Z</time>
      </trkpt>
      <trkpt lat="44.96893" lon="6.10924">
        <ele>1566.8</ele>
        <time>2024-08-14T12:16:15Z</time>
      </trkpt>
      <trkpt lat="44.96893" lon="6.10924">
        <ele>1566.8</ele>
        <time>2024-08-14T12:16:16Z</time>
      </trkpt>
      <trkpt lat="44.96893" lon="6.10924">
        <ele>1566.6</ele>
        <time>2024-08-14T12:16:17Z</time>
      </trkpt>
      <trkpt lat="44.96895" lon="6.10926">
        <ele>1566</ele>
        <time>2024-08-14T12:16:18Z</time>
      </trkpt>
      <trkpt lat="44.96895" lon="6.10926">
        <ele>1566</ele>
        <time>2024-08-14T12:16:19Z</time>
      </trkpt>
      <trkpt lat="44.96895" lon="6.10926">
        <ele>1565.8</ele>
        <time>2024-08-14T12:16:20Z</time>
      </trkpt>
      <trkpt lat="44.96895" lon="6.10926">
        <ele>1565.6</ele>
        <time>2024-08-14T12:16:21Z</time>
      </trkpt>
      <trkpt lat="44.96895" lon="6.10926">
        <ele>1565.4</ele>
        <time>2024-08-14T12:16:22Z</time>
      </trkpt>
      <trkpt lat="44.96895" lon="6.10926">
        <ele>1565.2</ele>
        <time>2024-08-14T12:16:23Z</time>
      </trkpt>
      <trkpt lat="44.96893" lon="6.10926">
        <ele>1564.8</ele>
        <time>2024-08-14T12:16:24Z</time>
      </trkpt>
      <trkpt lat="44.96893" lon="6.10926">
        <ele>1564.4</ele>
        <time>2024-08-14T12:16:25Z</time>
      </trkpt>
      <trkpt lat="44.96893" lon="6.10926">
        <ele>1564.4</ele>
        <time>2024-08-14T12:16:26Z</time>
      </trkpt>
      <trkpt lat="44.96891" lon="6.10925">
        <ele>1564</ele>
        <time>2024-08-14T12:16:27Z</time>
      </trkpt>
      <trkpt lat="44.96891" lon="6.10925">
        <ele>1563.6</ele>
        <time>2024-08-14T12:16:28Z</time>
      </trkpt>
      <trkpt lat="44.96889" lon="6.10925">
        <ele>1563.2</ele>
        <time>2024-08-14T12:16:29Z</time>
      </trkpt>
      <trkpt lat="44.96889" lon="6.10925">
        <ele>1563</ele>
        <time>2024-08-14T12:16:30Z</time>
      </trkpt>
      <trkpt lat="44.96889" lon="6.10925">
        <ele>1562.8</ele>
        <time>2024-08-14T12:16:31Z</time>
      </trkpt>
      <trkpt lat="44.96889" lon="6.10925">
        <ele>1562.6</ele>
        <time>2024-08-14T12:16:32Z</time>
      </trkpt>
      <trkpt lat="44.96889" lon="6.10925">
        <ele>1562.2</ele>
        <time>2024-08-14T12:16:33Z</time>
      </trkpt>
      <trkpt lat="44.96889" lon="6.10925">
        <ele>1562</ele>
        <time>2024-08-14T12:16:34Z</time>
      </trkpt>
      <trkpt lat="44.96887" lon="6.10928">
        <ele>1562</ele>
        <time>2024-08-14T12:16:35Z</time>
      </trkpt>
      <trkpt lat="44.96887" lon="6.10928">
        <ele>1561.6</ele>
        <time>2024-08-14T12:16:36Z</time>
      </trkpt>
      <trkpt lat="44.96888" lon="6.10931">
        <ele>1561.2</ele>
        <time>2024-08-14T12:16:37Z</time>
      </trkpt>
      <trkpt lat="44.96888" lon="6.10931">
        <ele>1561.2</ele>
        <time>2024-08-14T12:16:38Z</time>
      </trkpt>
      <trkpt lat="44.96888" lon="6.10934">
        <ele>1560.8</ele>
        <time>2024-08-14T12:16:39Z</time>
      </trkpt>
      <trkpt lat="44.96888" lon="6.10934">
        <ele>1560.4</ele>
        <time>2024-08-14T12:16:40Z</time>
      </trkpt>
      <trkpt lat="44.9689" lon="6.10937">
        <ele>1560.2</ele>
        <time>2024-08-14T12:16:41Z</time>
      </trkpt>
      <trkpt lat="44.9689" lon="6.10937">
        <ele>1560</ele>
        <time>2024-08-14T12:16:42Z</time>
      </trkpt>
      <trkpt lat="44.96891" lon="6.1094">
        <ele>1559.8</ele>
        <time>2024-08-14T12:16:43Z</time>
      </trkpt>
      <trkpt lat="44.96891" lon="6.1094">
        <ele>1559.4</ele>
        <time>2024-08-14T12:16:44Z</time>
      </trkpt>
      <trkpt lat="44.96893" lon="6.10943">
        <ele>1559.2</ele>
        <time>2024-08-14T12:16:45Z</time>
      </trkpt>
      <trkpt lat="44.96893" lon="6.10943">
        <ele>1559</ele>
        <time>2024-08-14T12:16:46Z</time>
      </trkpt>
      <trkpt lat="44.96894" lon="6.10945">
        <ele>1558.6</ele>
        <time>2024-08-14T12:16:47Z</time>
      </trkpt>
      <trkpt lat="44.96894" lon="6.10945">
        <ele>1558.4</ele>
        <time>2024-08-14T12:16:48Z</time>
      </trkpt>
      <trkpt lat="44.96894" lon="6.10948">
        <ele>1558.2</ele>
        <time>2024-08-14T12:16:49Z</time>
      </trkpt>
      <trkpt lat="44.96894" lon="6.10948">
        <ele>1558.2</ele>
        <time>2024-08-14T12:16:50Z</time>
      </trkpt>
      <trkpt lat="44.96894" lon="6.10952">
        <ele>1558</ele>
        <time>2024-08-14T12:16:51Z</time>
      </trkpt>
      <trkpt lat="44.96894" lon="6.10952">
        <ele>1557.8</ele>
        <time>2024-08-14T12:16:52Z</time>
      </trkpt>
      <trkpt lat="44.96894" lon="6.10955">
        <ele>1557.4</ele>
        <time>2024-08-14T12:16:53Z</time>
      </trkpt>
      <trkpt lat="44.96894" lon="6.10955">
        <ele>1557.4</ele>
        <time>2024-08-14T12:16:54Z</time>
      </trkpt>
      <trkpt lat="44.96895" lon="6.10958">
        <ele>1557</ele>
        <time>2024-08-14T12:16:55Z</time>
      </trkpt>
      <trkpt lat="44.96895" lon="6.10958">
        <ele>1556.8</ele>
        <time>2024-08-14T12:16:56Z</time>
      </trkpt>
      <trkpt lat="44.96895" lon="6.10962">
        <ele>1556.6</ele>
        <time>2024-08-14T12:16:57Z</time>
      </trkpt>
      <trkpt lat="44.96895" lon="6.10962">
        <ele>1556.4</ele>
        <time>2024-08-14T12:16:58Z</time>
      </trkpt>
      <trkpt lat="44.96895" lon="6.10966">
        <ele>1556.2</ele>
        <time>2024-08-14T12:16:59Z</time>
      </trkpt>
      <trkpt lat="44.96895" lon="6.10966">
        <ele>1556</ele>
        <time>2024-08-14T12:17:00Z</time>
      </trkpt>
      <trkpt lat="44.96895" lon="6.10969">
        <ele>1556</ele>
        <time>2024-08-14T12:17:01Z</time>
      </trkpt>
      <trkpt lat="44.96895" lon="6.10969">
        <ele>1555.8</ele>
        <time>2024-08-14T12:17:02Z</time>
      </trkpt>
      <trkpt lat="44.96896" lon="6.10972">
        <ele>1555.8</ele>
        <time>2024-08-14T12:17:03Z</time>
      </trkpt>
      <trkpt lat="44.96896" lon="6.10972">
        <ele>1555.6</ele>
        <time>2024-08-14T12:17:04Z</time>
      </trkpt>
      <trkpt lat="44.96898" lon="6.10976">
        <ele>1555.4</ele>
        <time>2024-08-14T12:17:05Z</time>
      </trkpt>
      <trkpt lat="44.96898" lon="6.10976">
        <ele>1555.4</ele>
        <time>2024-08-14T12:17:06Z</time>
      </trkpt>
      <trkpt lat="44.96898" lon="6.10976">
        <ele>1555.4</ele>
        <time>2024-08-14T12:17:07Z</time>
      </trkpt>
      <trkpt lat="44.96898" lon="6.10979">
        <ele>1555</ele>
        <time>2024-08-14T12:17:08Z</time>
      </trkpt>
      <trkpt lat="44.96898" lon="6.10979">
        <ele>1555</ele>
        <time>2024-08-14T12:17:09Z</time>
      </trkpt>
      <trkpt lat="44.96899" lon="6.10982">
        <ele>1554.6</ele>
        <time>2024-08-14T12:17:10Z</time>
      </trkpt>
      <trkpt lat="44.96899" lon="6.10982">
        <ele>1554.4</ele>
        <time>2024-08-14T12:17:11Z</time>
      </trkpt>
      <trkpt lat="44.96899" lon="6.10985">
        <ele>1554.4</ele>
        <time>2024-08-14T12:17:12Z</time>
      </trkpt>
      <trkpt lat="44.96899" lon="6.10985">
        <ele>1554.4</ele>
        <time>2024-08-14T12:17:13Z</time>
      </trkpt>
      <trkpt lat="44.969" lon="6.10988">
        <ele>1553.8</ele>
        <time>2024-08-14T12:17:14Z</time>
      </trkpt>
      <trkpt lat="44.969" lon="6.10988">
        <ele>1553.4</ele>
        <time>2024-08-14T12:17:15Z</time>
      </trkpt>
      <trkpt lat="44.969" lon="6.10988">
        <ele>1553.2</ele>
        <time>2024-08-14T12:17:16Z</time>
      </trkpt>
      <trkpt lat="44.969" lon="6.10991">
        <ele>1552.8</ele>
        <time>2024-08-14T12:17:17Z</time>
      </trkpt>
      <trkpt lat="44.969" lon="6.10991">
        <ele>1552.4</ele>
        <time>2024-08-14T12:17:18Z</time>
      </trkpt>
      <trkpt lat="44.96901" lon="6.10994">
        <ele>1552.2</ele>
        <time>2024-08-14T12:17:19Z</time>
      </trkpt>
      <trkpt lat="44.96901" lon="6.10994">
        <ele>1552.2</ele>
        <time>2024-08-14T12:17:20Z</time>
      </trkpt>
      <trkpt lat="44.96901" lon="6.10997">
        <ele>1552</ele>
        <time>2024-08-14T12:17:21Z</time>
      </trkpt>
      <trkpt lat="44.96901" lon="6.10997">
        <ele>1551.8</ele>
        <time>2024-08-14T12:17:22Z</time>
      </trkpt>
      <trkpt lat="44.96901" lon="6.11">
        <ele>1551.4</ele>
        <time>2024-08-14T12:17:23Z</time>
      </trkpt>
      <trkpt lat="44.96901" lon="6.11">
        <ele>1551.4</ele>
        <time>2024-08-14T12:17:24Z</time>
      </trkpt>
      <trkpt lat="44.96901" lon="6.11">
        <ele>1551</ele>
        <time>2024-08-14T12:17:25Z</time>
      </trkpt>
      <trkpt lat="44.969" lon="6.11002">
        <ele>1550.6</ele>
        <time>2024-08-14T12:17:26Z</time>
      </trkpt>
      <trkpt lat="44.969" lon="6.11002">
        <ele>1550.6</ele>
        <time>2024-08-14T12:17:27Z</time>
      </trkpt>
      <trkpt lat="44.969" lon="6.11002">
        <ele>1550.6</ele>
        <time>2024-08-14T12:17:28Z</time>
      </trkpt>
      <trkpt lat="44.96898" lon="6.11004">
        <ele>1550.2</ele>
        <time>2024-08-14T12:17:29Z</time>
      </trkpt>
      <trkpt lat="44.96898" lon="6.11004">
        <ele>1549.8</ele>
        <time>2024-08-14T12:17:30Z</time>
      </trkpt>
      <trkpt lat="44.96896" lon="6.11005">
        <ele>1549.6</ele>
        <time>2024-08-14T12:17:31Z</time>
      </trkpt>
      <trkpt lat="44.96896" lon="6.11005">
        <ele>1549.4</ele>
        <time>2024-08-14T12:17:32Z</time>
      </trkpt>
      <trkpt lat="44.96894" lon="6.11007">
        <ele>1549.2</ele>
        <time>2024-08-14T12:17:33Z</time>
      </trkpt>
      <trkpt lat="44.96894" lon="6.11007">
        <ele>1548.8</ele>
        <time>2024-08-14T12:17:34Z</time>
      </trkpt>
      <trkpt lat="44.96894" lon="6.11007">
        <ele>1548.4</ele>
        <time>2024-08-14T12:17:35Z</time>
      </trkpt>
      <trkpt lat="44.96893" lon="6.1101">
        <ele>1548.4</ele>
        <time>2024-08-14T12:17:36Z</time>
      </trkpt>
      <trkpt lat="44.96893" lon="6.1101">
        <ele>1548.2</ele>
        <time>2024-08-14T12:17:37Z</time>
      </trkpt>
      <trkpt lat="44.96893" lon="6.11013">
        <ele>1548</ele>
        <time>2024-08-14T12:17:38Z</time>
      </trkpt>
      <trkpt lat="44.96893" lon="6.11013">
        <ele>1547.4</ele>
        <time>2024-08-14T12:17:39Z</time>
      </trkpt>
      <trkpt lat="44.96893" lon="6.11016">
        <ele>1547.2</ele>
        <time>2024-08-14T12:17:40Z</time>
      </trkpt>
      <trkpt lat="44.96893" lon="6.11016">
        <ele>1547</ele>
        <time>2024-08-14T12:17:41Z</time>
      </trkpt>
      <trkpt lat="44.96893" lon="6.1102">
        <ele>1546.8</ele>
        <time>2024-08-14T12:17:42Z</time>
      </trkpt>
      <trkpt lat="44.96893" lon="6.1102">
        <ele>1546.4</ele>
        <time>2024-08-14T12:17:43Z</time>
      </trkpt>
      <trkpt lat="44.96894" lon="6.11023">
        <ele>1546</ele>
        <time>2024-08-14T12:17:44Z</time>
      </trkpt>
      <trkpt lat="44.96894" lon="6.11023">
        <ele>1546</ele>
        <time>2024-08-14T12:17:45Z</time>
      </trkpt>
      <trkpt lat="44.96896" lon="6.11026">
        <ele>1545.6</ele>
        <time>2024-08-14T12:17:46Z</time>
      </trkpt>
      <trkpt lat="44.96896" lon="6.11026">
        <ele>1545.4</ele>
        <time>2024-08-14T12:17:47Z</time>
      </trkpt>
      <trkpt lat="44.96897" lon="6.11028">
        <ele>1545.4</ele>
        <time>2024-08-14T12:17:48Z</time>
      </trkpt>
      <trkpt lat="44.96897" lon="6.11028">
        <ele>1545.2</ele>
        <time>2024-08-14T12:17:49Z</time>
      </trkpt>
      <trkpt lat="44.96898" lon="6.1103">
        <ele>1545.2</ele>
        <time>2024-08-14T12:17:50Z</time>
      </trkpt>
      <trkpt lat="44.96898" lon="6.1103">
        <ele>1545</ele>
        <time>2024-08-14T12:17:51Z</time>
      </trkpt>
      <trkpt lat="44.96898" lon="6.1103">
        <ele>1544.8</ele>
        <time>2024-08-14T12:17:52Z</time>
      </trkpt>
      <trkpt lat="44.96898" lon="6.11034">
        <ele>1544.6</ele>
        <time>2024-08-14T12:17:53Z</time>
      </trkpt>
      <trkpt lat="44.96898" lon="6.11034">
        <ele>1544.2</ele>
        <time>2024-08-14T12:17:54Z</time>
      </trkpt>
      <trkpt lat="44.96898" lon="6.11037">
        <ele>1544</ele>
        <time>2024-08-14T12:17:55Z</time>
      </trkpt>
      <trkpt lat="44.96898" lon="6.11037">
        <ele>1543.8</ele>
        <time>2024-08-14T12:17:56Z</time>
      </trkpt>
      <trkpt lat="44.969" lon="6.1104">
        <ele>1543.6</ele>
        <time>2024-08-14T12:17:57Z</time>
      </trkpt>
      <trkpt lat="44.969" lon="6.1104">
        <ele>1543.4</ele>
        <time>2024-08-14T12:17:58Z</time>
      </trkpt>
      <trkpt lat="44.969" lon="6.11044">
        <ele>1543.2</ele>
        <time>2024-08-14T12:17:59Z</time>
      </trkpt>
      <trkpt lat="44.969" lon="6.11044">
        <ele>1542.6</ele>
        <time>2024-08-14T12:18:00Z</time>
      </trkpt>
      <trkpt lat="44.96901" lon="6.11048">
        <ele>1542.6</ele>
        <time>2024-08-14T12:18:01Z</time>
      </trkpt>
      <trkpt lat="44.96901" lon="6.11048">
        <ele>1542.4</ele>
        <time>2024-08-14T12:18:02Z</time>
      </trkpt>
      <trkpt lat="44.96902" lon="6.11052">
        <ele>1542.4</ele>
        <time>2024-08-14T12:18:03Z</time>
      </trkpt>
      <trkpt lat="44.96902" lon="6.11052">
        <ele>1542</ele>
        <time>2024-08-14T12:18:04Z</time>
      </trkpt>
      <trkpt lat="44.96903" lon="6.11055">
        <ele>1541.6</ele>
        <time>2024-08-14T12:18:05Z</time>
      </trkpt>
      <trkpt lat="44.96903" lon="6.11055">
        <ele>1541.6</ele>
        <time>2024-08-14T12:18:06Z</time>
      </trkpt>
      <trkpt lat="44.96905" lon="6.11056">
        <ele>1541.6</ele>
        <time>2024-08-14T12:18:07Z</time>
      </trkpt>
      <trkpt lat="44.96905" lon="6.11056">
        <ele>1541.4</ele>
        <time>2024-08-14T12:18:08Z</time>
      </trkpt>
      <trkpt lat="44.96907" lon="6.11058">
        <ele>1541.2</ele>
        <time>2024-08-14T12:18:09Z</time>
      </trkpt>
      <trkpt lat="44.96907" lon="6.11058">
        <ele>1541.2</ele>
        <time>2024-08-14T12:18:10Z</time>
      </trkpt>
      <trkpt lat="44.96908" lon="6.11062">
        <ele>1541.2</ele>
        <time>2024-08-14T12:18:11Z</time>
      </trkpt>
      <trkpt lat="44.96908" lon="6.11062">
        <ele>1541.2</ele>
        <time>2024-08-14T12:18:12Z</time>
      </trkpt>
      <trkpt lat="44.96909" lon="6.11064">
        <ele>1541.2</ele>
        <time>2024-08-14T12:18:13Z</time>
      </trkpt>
      <trkpt lat="44.96909" lon="6.11064">
        <ele>1541.2</ele>
        <time>2024-08-14T12:18:14Z</time>
      </trkpt>
      <trkpt lat="44.96909" lon="6.11067">
        <ele>1540.8</ele>
        <time>2024-08-14T12:18:15Z</time>
      </trkpt>
      <trkpt lat="44.96909" lon="6.11067">
        <ele>1540.6</ele>
        <time>2024-08-14T12:18:16Z</time>
      </trkpt>
      <trkpt lat="44.96909" lon="6.11067">
        <ele>1540.6</ele>
        <time>2024-08-14T12:18:17Z</time>
      </trkpt>
      <trkpt lat="44.96912" lon="6.11069">
        <ele>1540.4</ele>
        <time>2024-08-14T12:18:18Z</time>
      </trkpt>
      <trkpt lat="44.96912" lon="6.11069">
        <ele>1540.2</ele>
        <time>2024-08-14T12:18:19Z</time>
      </trkpt>
      <trkpt lat="44.96914" lon="6.1107">
        <ele>1539.8</ele>
        <time>2024-08-14T12:18:20Z</time>
      </trkpt>
      <trkpt lat="44.96914" lon="6.1107">
        <ele>1539.8</ele>
        <time>2024-08-14T12:18:21Z</time>
      </trkpt>
      <trkpt lat="44.96916" lon="6.1107">
        <ele>1539.6</ele>
        <time>2024-08-14T12:18:22Z</time>
      </trkpt>
      <trkpt lat="44.96916" lon="6.1107">
        <ele>1539.4</ele>
        <time>2024-08-14T12:18:23Z</time>
      </trkpt>
      <trkpt lat="44.96917" lon="6.11072">
        <ele>1539</ele>
        <time>2024-08-14T12:18:24Z</time>
      </trkpt>
      <trkpt lat="44.96917" lon="6.11072">
        <ele>1539</ele>
        <time>2024-08-14T12:18:25Z</time>
      </trkpt>
      <trkpt lat="44.96917" lon="6.11072">
        <ele>1538.8</ele>
        <time>2024-08-14T12:18:26Z</time>
      </trkpt>
      <trkpt lat="44.96918" lon="6.11075">
        <ele>1538.4</ele>
        <time>2024-08-14T12:18:27Z</time>
      </trkpt>
      <trkpt lat="44.96918" lon="6.11075">
        <ele>1537.8</ele>
        <time>2024-08-14T12:18:28Z</time>
      </trkpt>
      <trkpt lat="44.96918" lon="6.11078">
        <ele>1537.8</ele>
        <time>2024-08-14T12:18:29Z</time>
      </trkpt>
      <trkpt lat="44.96918" lon="6.11078">
        <ele>1537.6</ele>
        <time>2024-08-14T12:18:30Z</time>
      </trkpt>
      <trkpt lat="44.96918" lon="6.11078">
        <ele>1537.2</ele>
        <time>2024-08-14T12:18:31Z</time>
      </trkpt>
      <trkpt lat="44.9692" lon="6.1108">
        <ele>1536.8</ele>
        <time>2024-08-14T12:18:32Z</time>
      </trkpt>
      <trkpt lat="44.9692" lon="6.1108">
        <ele>1536.2</ele>
        <time>2024-08-14T12:18:33Z</time>
      </trkpt>
      <trkpt lat="44.9692" lon="6.1108">
        <ele>1536.2</ele>
        <time>2024-08-14T12:18:34Z</time>
      </trkpt>
      <trkpt lat="44.96922" lon="6.11082">
        <ele>1536</ele>
        <time>2024-08-14T12:18:35Z</time>
      </trkpt>
      <trkpt lat="44.96922" lon="6.11082">
        <ele>1535.6</ele>
        <time>2024-08-14T12:18:36Z</time>
      </trkpt>
      <trkpt lat="44.96923" lon="6.11085">
        <ele>1535.4</ele>
        <time>2024-08-14T12:18:37Z</time>
      </trkpt>
      <trkpt lat="44.96923" lon="6.11085">
        <ele>1535.2</ele>
        <time>2024-08-14T12:18:38Z</time>
      </trkpt>
      <trkpt lat="44.96923" lon="6.11085">
        <ele>1535.2</ele>
        <time>2024-08-14T12:18:39Z</time>
      </trkpt>
      <trkpt lat="44.96922" lon="6.11089">
        <ele>1534.8</ele>
        <time>2024-08-14T12:18:40Z</time>
      </trkpt>
      <trkpt lat="44.96922" lon="6.11089">
        <ele>1534.6</ele>
        <time>2024-08-14T12:18:41Z</time>
      </trkpt>
      <trkpt lat="44.96923" lon="6.11092">
        <ele>1534.6</ele>
        <time>2024-08-14T12:18:42Z</time>
      </trkpt>
      <trkpt lat="44.96923" lon="6.11092">
        <ele>1534.4</ele>
        <time>2024-08-14T12:18:43Z</time>
      </trkpt>
      <trkpt lat="44.96923" lon="6.11094">
        <ele>1534</ele>
        <time>2024-08-14T12:18:44Z</time>
      </trkpt>
      <trkpt lat="44.96923" lon="6.11094">
        <ele>1533.4</ele>
        <time>2024-08-14T12:18:45Z</time>
      </trkpt>
      <trkpt lat="44.96923" lon="6.11094">
        <ele>1533</ele>
        <time>2024-08-14T12:18:46Z</time>
      </trkpt>
      <trkpt lat="44.9692" lon="6.11093">
        <ele>1532.8</ele>
        <time>2024-08-14T12:18:47Z</time>
      </trkpt>
      <trkpt lat="44.9692" lon="6.11093">
        <ele>1532.8</ele>
        <time>2024-08-14T12:18:48Z</time>
      </trkpt>
      <trkpt lat="44.96918" lon="6.11093">
        <ele>1532.6</ele>
        <time>2024-08-14T12:18:49Z</time>
      </trkpt>
      <trkpt lat="44.96918" lon="6.11093">
        <ele>1532.4</ele>
        <time>2024-08-14T12:18:50Z</time>
      </trkpt>
      <trkpt lat="44.96918" lon="6.11093">
        <ele>1532</ele>
        <time>2024-08-14T12:18:51Z</time>
      </trkpt>
      <trkpt lat="44.96917" lon="6.11095">
        <ele>1531.6</ele>
        <time>2024-08-14T12:18:52Z</time>
      </trkpt>
      <trkpt lat="44.96917" lon="6.11095">
        <ele>1531</ele>
        <time>2024-08-14T12:18:53Z</time>
      </trkpt>
      <trkpt lat="44.96916" lon="6.11098">
        <ele>1531</ele>
        <time>2024-08-14T12:18:54Z</time>
      </trkpt>
      <trkpt lat="44.96916" lon="6.11098">
        <ele>1531</ele>
        <time>2024-08-14T12:18:55Z</time>
      </trkpt>
      <trkpt lat="44.96914" lon="6.111">
        <ele>1530.4</ele>
        <time>2024-08-14T12:18:56Z</time>
      </trkpt>
      <trkpt lat="44.96914" lon="6.111">
        <ele>1530</ele>
        <time>2024-08-14T12:18:57Z</time>
      </trkpt>
      <trkpt lat="44.96914" lon="6.111">
        <ele>1529.6</ele>
        <time>2024-08-14T12:18:58Z</time>
      </trkpt>
      <trkpt lat="44.96914" lon="6.111">
        <ele>1529.4</ele>
        <time>2024-08-14T12:18:59Z</time>
      </trkpt>
      <trkpt lat="44.96914" lon="6.111">
        <ele>1529.2</ele>
        <time>2024-08-14T12:19:00Z</time>
      </trkpt>
      <trkpt lat="44.96914" lon="6.111">
        <ele>1529</ele>
        <time>2024-08-14T12:19:01Z</time>
      </trkpt>
      <trkpt lat="44.96915" lon="6.11103">
        <ele>1528.8</ele>
        <time>2024-08-14T12:19:02Z</time>
      </trkpt>
      <trkpt lat="44.96915" lon="6.11103">
        <ele>1528.8</ele>
        <time>2024-08-14T12:19:03Z</time>
      </trkpt>
      <trkpt lat="44.96915" lon="6.11103">
        <ele>1528.6</ele>
        <time>2024-08-14T12:19:04Z</time>
      </trkpt>
      <trkpt lat="44.96916" lon="6.11106">
        <ele>1528.6</ele>
        <time>2024-08-14T12:19:05Z</time>
      </trkpt>
      <trkpt lat="44.96916" lon="6.11106">
        <ele>1528</ele>
        <time>2024-08-14T12:19:06Z</time>
      </trkpt>
      <trkpt lat="44.96916" lon="6.11106">
        <ele>1527.6</ele>
        <time>2024-08-14T12:19:07Z</time>
      </trkpt>
      <trkpt lat="44.96916" lon="6.11109">
        <ele>1527.4</ele>
        <time>2024-08-14T12:19:08Z</time>
      </trkpt>
      <trkpt lat="44.96916" lon="6.11109">
        <ele>1527.2</ele>
        <time>2024-08-14T12:19:09Z</time>
      </trkpt>
      <trkpt lat="44.96916" lon="6.11109">
        <ele>1526.8</ele>
        <time>2024-08-14T12:19:10Z</time>
      </trkpt>
      <trkpt lat="44.96918" lon="6.11111">
        <ele>1526.6</ele>
        <time>2024-08-14T12:19:11Z</time>
      </trkpt>
      <trkpt lat="44.96918" lon="6.11111">
        <ele>1526.2</ele>
        <time>2024-08-14T12:19:12Z</time>
      </trkpt>
      <trkpt lat="44.9692" lon="6.11113">
        <ele>1525.8</ele>
        <time>2024-08-14T12:19:13Z</time>
      </trkpt>
      <trkpt lat="44.9692" lon="6.11113">
        <ele>1525.6</ele>
        <time>2024-08-14T12:19:14Z</time>
      </trkpt>
      <trkpt lat="44.9692" lon="6.11113">
        <ele>1525</ele>
        <time>2024-08-14T12:19:15Z</time>
      </trkpt>
      <trkpt lat="44.9692" lon="6.11116">
        <ele>1524.8</ele>
        <time>2024-08-14T12:19:16Z</time>
      </trkpt>
      <trkpt lat="44.9692" lon="6.11116">
        <ele>1524.6</ele>
        <time>2024-08-14T12:19:17Z</time>
      </trkpt>
      <trkpt lat="44.96921" lon="6.11119">
        <ele>1524.4</ele>
        <time>2024-08-14T12:19:18Z</time>
      </trkpt>
      <trkpt lat="44.96921" lon="6.11119">
        <ele>1524</ele>
        <time>2024-08-14T12:19:19Z</time>
      </trkpt>
      <trkpt lat="44.96921" lon="6.11119">
        <ele>1523.6</ele>
        <time>2024-08-14T12:19:20Z</time>
      </trkpt>
      <trkpt lat="44.96923" lon="6.11122">
        <ele>1523.4</ele>
        <time>2024-08-14T12:19:21Z</time>
      </trkpt>
      <trkpt lat="44.96923" lon="6.11122">
        <ele>1523</ele>
        <time>2024-08-14T12:19:22Z</time>
      </trkpt>
      <trkpt lat="44.96924" lon="6.11125">
        <ele>1522.8</ele>
        <time>2024-08-14T12:19:23Z</time>
      </trkpt>
      <trkpt lat="44.96924" lon="6.11125">
        <ele>1522.4</ele>
        <time>2024-08-14T12:19:24Z</time>
      </trkpt>
      <trkpt lat="44.96925" lon="6.11128">
        <ele>1522</ele>
        <time>2024-08-14T12:19:25Z</time>
      </trkpt>
      <trkpt lat="44.96925" lon="6.11128">
        <ele>1521.8</ele>
        <time>2024-08-14T12:19:26Z</time>
      </trkpt>
      <trkpt lat="44.96925" lon="6.11128">
        <ele>1521.6</ele>
        <time>2024-08-14T12:19:27Z</time>
      </trkpt>
      <trkpt lat="44.96923" lon="6.11129">
        <ele>1521.2</ele>
        <time>2024-08-14T12:19:28Z</time>
      </trkpt>
      <trkpt lat="44.96923" lon="6.11129">
        <ele>1521.2</ele>
        <time>2024-08-14T12:19:29Z</time>
      </trkpt>
      <trkpt lat="44.96921" lon="6.1113">
        <ele>1521.2</ele>
        <time>2024-08-14T12:19:30Z</time>
      </trkpt>
      <trkpt lat="44.96921" lon="6.1113">
        <ele>1520.8</ele>
        <time>2024-08-14T12:19:31Z</time>
      </trkpt>
      <trkpt lat="44.96919" lon="6.11131">
        <ele>1520.4</ele>
        <time>2024-08-14T12:19:32Z</time>
      </trkpt>
      <trkpt lat="44.96919" lon="6.11131">
        <ele>1520</ele>
        <time>2024-08-14T12:19:33Z</time>
      </trkpt>
      <trkpt lat="44.96919" lon="6.11131">
        <ele>1519.6</ele>
        <time>2024-08-14T12:19:34Z</time>
      </trkpt>
      <trkpt lat="44.96917" lon="6.11131">
        <ele>1519.4</ele>
        <time>2024-08-14T12:19:35Z</time>
      </trkpt>
      <trkpt lat="44.96917" lon="6.11131">
        <ele>1519.2</ele>
        <time>2024-08-14T12:19:36Z</time>
      </trkpt>
      <trkpt lat="44.96917" lon="6.11131">
        <ele>1519</ele>
        <time>2024-08-14T12:19:37Z</time>
      </trkpt>
      <trkpt lat="44.96917" lon="6.11131">
        <ele>1519</ele>
        <time>2024-08-14T12:19:38Z</time>
      </trkpt>
      <trkpt lat="44.96914" lon="6.11134">
        <ele>1518.6</ele>
        <time>2024-08-14T12:19:39Z</time>
      </trkpt>
      <trkpt lat="44.96914" lon="6.11134">
        <ele>1518.4</ele>
        <time>2024-08-14T12:19:40Z</time>
      </trkpt>
      <trkpt lat="44.96914" lon="6.11134">
        <ele>1518</ele>
        <time>2024-08-14T12:19:41Z</time>
      </trkpt>
      <trkpt lat="44.96912" lon="6.11135">
        <ele>1517.8</ele>
        <time>2024-08-14T12:19:42Z</time>
      </trkpt>
      <trkpt lat="44.96912" lon="6.11135">
        <ele>1517.8</ele>
        <time>2024-08-14T12:19:43Z</time>
      </trkpt>
      <trkpt lat="44.96912" lon="6.11135">
        <ele>1517.4</ele>
        <time>2024-08-14T12:19:44Z</time>
      </trkpt>
      <trkpt lat="44.9691" lon="6.11135">
        <ele>1517.4</ele>
        <time>2024-08-14T12:19:45Z</time>
      </trkpt>
      <trkpt lat="44.9691" lon="6.11135">
        <ele>1517.2</ele>
        <time>2024-08-14T12:19:46Z</time>
      </trkpt>
      <trkpt lat="44.9691" lon="6.11135">
        <ele>1516.8</ele>
        <time>2024-08-14T12:19:47Z</time>
      </trkpt>
      <trkpt lat="44.9691" lon="6.11135">
        <ele>1516.6</ele>
        <time>2024-08-14T12:19:48Z</time>
      </trkpt>
      <trkpt lat="44.9691" lon="6.11135">
        <ele>1516.4</ele>
        <time>2024-08-14T12:19:49Z</time>
      </trkpt>
      <trkpt lat="44.96908" lon="6.11135">
        <ele>1516.2</ele>
        <time>2024-08-14T12:19:50Z</time>
      </trkpt>
      <trkpt lat="44.96908" lon="6.11135">
        <ele>1516</ele>
        <time>2024-08-14T12:19:51Z</time>
      </trkpt>
      <trkpt lat="44.96908" lon="6.11135">
        <ele>1515.8</ele>
        <time>2024-08-14T12:19:52Z</time>
      </trkpt>
      <trkpt lat="44.96906" lon="6.11136">
        <ele>1515.4</ele>
        <time>2024-08-14T12:19:53Z</time>
      </trkpt>
      <trkpt lat="44.96906" lon="6.11136">
        <ele>1515.4</ele>
        <time>2024-08-14T12:19:54Z</time>
      </trkpt>
      <trkpt lat="44.96906" lon="6.11136">
        <ele>1515</ele>
        <time>2024-08-14T12:19:55Z</time>
      </trkpt>
      <trkpt lat="44.96904" lon="6.11137">
        <ele>1514.6</ele>
        <time>2024-08-14T12:19:56Z</time>
      </trkpt>
      <trkpt lat="44.96904" lon="6.11137">
        <ele>1514.4</ele>
        <time>2024-08-14T12:19:57Z</time>
      </trkpt>
      <trkpt lat="44.96902" lon="6.11137">
        <ele>1514.4</ele>
        <time>2024-08-14T12:19:58Z</time>
      </trkpt>
      <trkpt lat="44.96902" lon="6.11137">
        <ele>1514</ele>
        <time>2024-08-14T12:19:59Z</time>
      </trkpt>
      <trkpt lat="44.96901" lon="6.11139">
        <ele>1513.8</ele>
        <time>2024-08-14T12:20:00Z</time>
      </trkpt>
      <trkpt lat="44.96901" lon="6.11139">
        <ele>1513.4</ele>
        <time>2024-08-14T12:20:01Z</time>
      </trkpt>
      <trkpt lat="44.96901" lon="6.11143">
        <ele>1513</ele>
        <time>2024-08-14T12:20:02Z</time>
      </trkpt>
      <trkpt lat="44.96901" lon="6.11143">
        <ele>1512.8</ele>
        <time>2024-08-14T12:20:03Z</time>
      </trkpt>
      <trkpt lat="44.96902" lon="6.11147">
        <ele>1512.8</ele>
        <time>2024-08-14T12:20:04Z</time>
      </trkpt>
      <trkpt lat="44.96902" lon="6.11147">
        <ele>1512.6</ele>
        <time>2024-08-14T12:20:05Z</time>
      </trkpt>
      <trkpt lat="44.96901" lon="6.1115">
        <ele>1512.2</ele>
        <time>2024-08-14T12:20:06Z</time>
      </trkpt>
      <trkpt lat="44.96901" lon="6.1115">
        <ele>1512</ele>
        <time>2024-08-14T12:20:07Z</time>
      </trkpt>
      <trkpt lat="44.96901" lon="6.11153">
        <ele>1511.8</ele>
        <time>2024-08-14T12:20:08Z</time>
      </trkpt>
      <trkpt lat="44.96901" lon="6.11153">
        <ele>1511.8</ele>
        <time>2024-08-14T12:20:09Z</time>
      </trkpt>
      <trkpt lat="44.96901" lon="6.11156">
        <ele>1511.6</ele>
        <time>2024-08-14T12:20:10Z</time>
      </trkpt>
      <trkpt lat="44.96901" lon="6.11156">
        <ele>1511.6</ele>
        <time>2024-08-14T12:20:11Z</time>
      </trkpt>
      <trkpt lat="44.96901" lon="6.11156">
        <ele>1511.4</ele>
        <time>2024-08-14T12:20:12Z</time>
      </trkpt>
      <trkpt lat="44.96901" lon="6.11156">
        <ele>1511.4</ele>
        <time>2024-08-14T12:20:13Z</time>
      </trkpt>
      <trkpt lat="44.96903" lon="6.11156">
        <ele>1511.4</ele>
        <time>2024-08-14T12:20:14Z</time>
      </trkpt>
      <trkpt lat="44.96903" lon="6.11156">
        <ele>1511.4</ele>
        <time>2024-08-14T12:20:15Z</time>
      </trkpt>
      <trkpt lat="44.96903" lon="6.11156">
        <ele>1511.2</ele>
        <time>2024-08-14T12:20:16Z</time>
      </trkpt>
      <trkpt lat="44.96906" lon="6.11155">
        <ele>1511.2</ele>
        <time>2024-08-14T12:20:17Z</time>
      </trkpt>
      <trkpt lat="44.96906" lon="6.11155">
        <ele>1510.8</ele>
        <time>2024-08-14T12:20:18Z</time>
      </trkpt>
      <trkpt lat="44.96906" lon="6.11155">
        <ele>1510.6</ele>
        <time>2024-08-14T12:20:19Z</time>
      </trkpt>
      <trkpt lat="44.96908" lon="6.11154">
        <ele>1510.2</ele>
        <time>2024-08-14T12:20:20Z</time>
      </trkpt>
      <trkpt lat="44.96908" lon="6.11154">
        <ele>1510</ele>
        <time>2024-08-14T12:20:21Z</time>
      </trkpt>
      <trkpt lat="44.96908" lon="6.11154">
        <ele>1509.6</ele>
        <time>2024-08-14T12:20:22Z</time>
      </trkpt>
      <trkpt lat="44.9691" lon="6.11155">
        <ele>1509.2</ele>
        <time>2024-08-14T12:20:23Z</time>
      </trkpt>
      <trkpt lat="44.9691" lon="6.11155">
        <ele>1509.2</ele>
        <time>2024-08-14T12:20:24Z</time>
      </trkpt>
      <trkpt lat="44.9691" lon="6.11155">
        <ele>1509.2</ele>
        <time>2024-08-14T12:20:25Z</time>
      </trkpt>
      <trkpt lat="44.9691" lon="6.11155">
        <ele>1508.8</ele>
        <time>2024-08-14T12:20:26Z</time>
      </trkpt>
      <trkpt lat="44.96912" lon="6.11157">
        <ele>1508.6</ele>
        <time>2024-08-14T12:20:27Z</time>
      </trkpt>
      <trkpt lat="44.96912" lon="6.11157">
        <ele>1508.2</ele>
        <time>2024-08-14T12:20:28Z</time>
      </trkpt>
      <trkpt lat="44.96912" lon="6.11157">
        <ele>1507.8</ele>
        <time>2024-08-14T12:20:29Z</time>
      </trkpt>
      <trkpt lat="44.96914" lon="6.11159">
        <ele>1507.6</ele>
        <time>2024-08-14T12:20:30Z</time>
      </trkpt>
      <trkpt lat="44.96914" lon="6.11159">
        <ele>1507.2</ele>
        <time>2024-08-14T12:20:31Z</time>
      </trkpt>
      <trkpt lat="44.96914" lon="6.11159">
        <ele>1507.2</ele>
        <time>2024-08-14T12:20:32Z</time>
      </trkpt>
      <trkpt lat="44.96916" lon="6.11159">
        <ele>1507</ele>
        <time>2024-08-14T12:20:33Z</time>
      </trkpt>
      <trkpt lat="44.96916" lon="6.11159">
        <ele>1506.6</ele>
        <time>2024-08-14T12:20:34Z</time>
      </trkpt>
      <trkpt lat="44.96918" lon="6.11159">
        <ele>1506.2</ele>
        <time>2024-08-14T12:20:35Z</time>
      </trkpt>
      <trkpt lat="44.96918" lon="6.11159">
        <ele>1506</ele>
        <time>2024-08-14T12:20:36Z</time>
      </trkpt>
      <trkpt lat="44.9692" lon="6.1116">
        <ele>1506</ele>
        <time>2024-08-14T12:20:37Z</time>
      </trkpt>
      <trkpt lat="44.9692" lon="6.1116">
        <ele>1505.8</ele>
        <time>2024-08-14T12:20:38Z</time>
      </trkpt>
      <trkpt lat="44.9692" lon="6.1116">
        <ele>1505.4</ele>
        <time>2024-08-14T12:20:39Z</time>
      </trkpt>
      <trkpt lat="44.9692" lon="6.1116">
        <ele>1505.4</ele>
        <time>2024-08-14T12:20:40Z</time>
      </trkpt>
      <trkpt lat="44.96919" lon="6.11164">
        <ele>1505</ele>
        <time>2024-08-14T12:20:41Z</time>
      </trkpt>
      <trkpt lat="44.96919" lon="6.11164">
        <ele>1504.4</ele>
        <time>2024-08-14T12:20:42Z</time>
      </trkpt>
      <trkpt lat="44.96918" lon="6.11166">
        <ele>1504.4</ele>
        <time>2024-08-14T12:20:43Z</time>
      </trkpt>
      <trkpt lat="44.96918" lon="6.11166">
        <ele>1504.2</ele>
        <time>2024-08-14T12:20:44Z</time>
      </trkpt>
      <trkpt lat="44.96918" lon="6.11169">
        <ele>1503.6</ele>
        <time>2024-08-14T12:20:45Z</time>
      </trkpt>
      <trkpt lat="44.96918" lon="6.11169">
        <ele>1503.4</ele>
        <time>2024-08-14T12:20:46Z</time>
      </trkpt>
      <trkpt lat="44.96918" lon="6.11169">
        <ele>1503.2</ele>
        <time>2024-08-14T12:20:47Z</time>
      </trkpt>
      <trkpt lat="44.96918" lon="6.11169">
        <ele>1503.2</ele>
        <time>2024-08-14T12:20:48Z</time>
      </trkpt>
      <trkpt lat="44.9692" lon="6.11169">
        <ele>1503</ele>
        <time>2024-08-14T12:20:49Z</time>
      </trkpt>
      <trkpt lat="44.9692" lon="6.11169">
        <ele>1502.6</ele>
        <time>2024-08-14T12:20:50Z</time>
      </trkpt>
      <trkpt lat="44.9692" lon="6.11169">
        <ele>1502.4</ele>
        <time>2024-08-14T12:20:51Z</time>
      </trkpt>
      <trkpt lat="44.96922" lon="6.1117">
        <ele>1502</ele>
        <time>2024-08-14T12:20:52Z</time>
      </trkpt>
      <trkpt lat="44.96922" lon="6.1117">
        <ele>1502</ele>
        <time>2024-08-14T12:20:53Z</time>
      </trkpt>
      <trkpt lat="44.96922" lon="6.1117">
        <ele>1501.8</ele>
        <time>2024-08-14T12:20:54Z</time>
      </trkpt>
      <trkpt lat="44.96922" lon="6.1117">
        <ele>1501.6</ele>
        <time>2024-08-14T12:20:55Z</time>
      </trkpt>
      <trkpt lat="44.96922" lon="6.11173">
        <ele>1501.2</ele>
        <time>2024-08-14T12:20:56Z</time>
      </trkpt>
      <trkpt lat="44.96922" lon="6.11173">
        <ele>1501</ele>
        <time>2024-08-14T12:20:57Z</time>
      </trkpt>
      <trkpt lat="44.96922" lon="6.11173">
        <ele>1500.8</ele>
        <time>2024-08-14T12:20:58Z</time>
      </trkpt>
      <trkpt lat="44.96924" lon="6.11176">
        <ele>1500.4</ele>
        <time>2024-08-14T12:20:59Z</time>
      </trkpt>
      <trkpt lat="44.96924" lon="6.11176">
        <ele>1500</ele>
        <time>2024-08-14T12:21:00Z</time>
      </trkpt>
      <trkpt lat="44.96924" lon="6.11176">
        <ele>1499.6</ele>
        <time>2024-08-14T12:21:01Z</time>
      </trkpt>
      <trkpt lat="44.96924" lon="6.11176">
        <ele>1499</ele>
        <time>2024-08-14T12:21:02Z</time>
      </trkpt>
      <trkpt lat="44.96923" lon="6.11179">
        <ele>1499</ele>
        <time>2024-08-14T12:21:03Z</time>
      </trkpt>
      <trkpt lat="44.96923" lon="6.11179">
        <ele>1498.6</ele>
        <time>2024-08-14T12:21:04Z</time>
      </trkpt>
      <trkpt lat="44.96923" lon="6.11179">
        <ele>1498.4</ele>
        <time>2024-08-14T12:21:05Z</time>
      </trkpt>
      <trkpt lat="44.96925" lon="6.11181">
        <ele>1498.2</ele>
        <time>2024-08-14T12:21:06Z</time>
      </trkpt>
      <trkpt lat="44.96925" lon="6.11181">
        <ele>1498</ele>
        <time>2024-08-14T12:21:07Z</time>
      </trkpt>
      <trkpt lat="44.96925" lon="6.11181">
        <ele>1497.6</ele>
        <time>2024-08-14T12:21:08Z</time>
      </trkpt>
      <trkpt lat="44.96927" lon="6.11183">
        <ele>1497.4</ele>
        <time>2024-08-14T12:21:09Z</time>
      </trkpt>
      <trkpt lat="44.96927" lon="6.11183">
        <ele>1497.2</ele>
        <time>2024-08-14T12:21:10Z</time>
      </trkpt>
      <trkpt lat="44.96927" lon="6.11183">
        <ele>1497</ele>
        <time>2024-08-14T12:21:11Z</time>
      </trkpt>
      <trkpt lat="44.96929" lon="6.11184">
        <ele>1496.6</ele>
        <time>2024-08-14T12:21:12Z</time>
      </trkpt>
      <trkpt lat="44.96929" lon="6.11184">
        <ele>1496.4</ele>
        <time>2024-08-14T12:21:13Z</time>
      </trkpt>
      <trkpt lat="44.96931" lon="6.11184">
        <ele>1495.8</ele>
        <time>2024-08-14T12:21:14Z</time>
      </trkpt>
      <trkpt lat="44.96931" lon="6.11184">
        <ele>1495.4</ele>
        <time>2024-08-14T12:21:15Z</time>
      </trkpt>
      <trkpt lat="44.96931" lon="6.11184">
        <ele>1495.2</ele>
        <time>2024-08-14T12:21:16Z</time>
      </trkpt>
      <trkpt lat="44.96933" lon="6.11185">
        <ele>1495</ele>
        <time>2024-08-14T12:21:17Z</time>
      </trkpt>
      <trkpt lat="44.96933" lon="6.11185">
        <ele>1494.8</ele>
        <time>2024-08-14T12:21:18Z</time>
      </trkpt>
      <trkpt lat="44.96933" lon="6.11185">
        <ele>1494.2</ele>
        <time>2024-08-14T12:21:19Z</time>
      </trkpt>
      <trkpt lat="44.96933" lon="6.11185">
        <ele>1494</ele>
        <time>2024-08-14T12:21:20Z</time>
      </trkpt>
      <trkpt lat="44.96935" lon="6.11186">
        <ele>1494</ele>
        <time>2024-08-14T12:21:21Z</time>
      </trkpt>
      <trkpt lat="44.96935" lon="6.11186">
        <ele>1493.6</ele>
        <time>2024-08-14T12:21:22Z</time>
      </trkpt>
      <trkpt lat="44.96935" lon="6.11186">
        <ele>1493.4</ele>
        <time>2024-08-14T12:21:23Z</time>
      </trkpt>
      <trkpt lat="44.96936" lon="6.11188">
        <ele>1493</ele>
        <time>2024-08-14T12:21:24Z</time>
      </trkpt>
      <trkpt lat="44.96936" lon="6.11188">
        <ele>1492.6</ele>
        <time>2024-08-14T12:21:25Z</time>
      </trkpt>
      <trkpt lat="44.96936" lon="6.11188">
        <ele>1492.6</ele>
        <time>2024-08-14T12:21:26Z</time>
      </trkpt>
      <trkpt lat="44.96936" lon="6.11191">
        <ele>1492.2</ele>
        <time>2024-08-14T12:21:27Z</time>
      </trkpt>
      <trkpt lat="44.96936" lon="6.11191">
        <ele>1491.6</ele>
        <time>2024-08-14T12:21:28Z</time>
      </trkpt>
      <trkpt lat="44.96936" lon="6.11191">
        <ele>1491.4</ele>
        <time>2024-08-14T12:21:29Z</time>
      </trkpt>
      <trkpt lat="44.96934" lon="6.11192">
        <ele>1491.2</ele>
        <time>2024-08-14T12:21:30Z</time>
      </trkpt>
      <trkpt lat="44.96934" lon="6.11192">
        <ele>1491.2</ele>
        <time>2024-08-14T12:21:31Z</time>
      </trkpt>
      <trkpt lat="44.96934" lon="6.11192">
        <ele>1491</ele>
        <time>2024-08-14T12:21:32Z</time>
      </trkpt>
      <trkpt lat="44.96933" lon="6.11193">
        <ele>1490.6</ele>
        <time>2024-08-14T12:21:33Z</time>
      </trkpt>
      <trkpt lat="44.96933" lon="6.11193">
        <ele>1490.2</ele>
        <time>2024-08-14T12:21:34Z</time>
      </trkpt>
      <trkpt lat="44.96932" lon="6.11196">
        <ele>1490</ele>
        <time>2024-08-14T12:21:35Z</time>
      </trkpt>
      <trkpt lat="44.96932" lon="6.11196">
        <ele>1490</ele>
        <time>2024-08-14T12:21:36Z</time>
      </trkpt>
      <trkpt lat="44.96932" lon="6.11196">
        <ele>1489.8</ele>
        <time>2024-08-14T12:21:37Z</time>
      </trkpt>
      <trkpt lat="44.96932" lon="6.11196">
        <ele>1489.6</ele>
        <time>2024-08-14T12:21:38Z</time>
      </trkpt>
      <trkpt lat="44.96933" lon="6.11198">
        <ele>1489.4</ele>
        <time>2024-08-14T12:21:39Z</time>
      </trkpt>
      <trkpt lat="44.96933" lon="6.11198">
        <ele>1489</ele>
        <time>2024-08-14T12:21:40Z</time>
      </trkpt>
      <trkpt lat="44.96933" lon="6.11198">
        <ele>1488.6</ele>
        <time>2024-08-14T12:21:41Z</time>
      </trkpt>
      <trkpt lat="44.96935" lon="6.112">
        <ele>1488.4</ele>
        <time>2024-08-14T12:21:42Z</time>
      </trkpt>
      <trkpt lat="44.96935" lon="6.112">
        <ele>1488</ele>
        <time>2024-08-14T12:21:43Z</time>
      </trkpt>
      <trkpt lat="44.96937" lon="6.112">
        <ele>1487.6</ele>
        <time>2024-08-14T12:21:44Z</time>
      </trkpt>
      <trkpt lat="44.96937" lon="6.112">
        <ele>1487.4</ele>
        <time>2024-08-14T12:21:45Z</time>
      </trkpt>
      <trkpt lat="44.96937" lon="6.112">
        <ele>1487.4</ele>
        <time>2024-08-14T12:21:46Z</time>
      </trkpt>
      <trkpt lat="44.96939" lon="6.11201">
        <ele>1487.2</ele>
        <time>2024-08-14T12:21:47Z</time>
      </trkpt>
      <trkpt lat="44.96939" lon="6.11201">
        <ele>1487</ele>
        <time>2024-08-14T12:21:48Z</time>
      </trkpt>
      <trkpt lat="44.96941" lon="6.11202">
        <ele>1486.6</ele>
        <time>2024-08-14T12:21:49Z</time>
      </trkpt>
      <trkpt lat="44.96941" lon="6.11202">
        <ele>1486.4</ele>
        <time>2024-08-14T12:21:50Z</time>
      </trkpt>
      <trkpt lat="44.96941" lon="6.11202">
        <ele>1485.8</ele>
        <time>2024-08-14T12:21:51Z</time>
      </trkpt>
      <trkpt lat="44.96944" lon="6.11204">
        <ele>1485.4</ele>
        <time>2024-08-14T12:21:52Z</time>
      </trkpt>
      <trkpt lat="44.96944" lon="6.11204">
        <ele>1485.4</ele>
        <time>2024-08-14T12:21:53Z</time>
      </trkpt>
      <trkpt lat="44.96944" lon="6.11204">
        <ele>1485</ele>
        <time>2024-08-14T12:21:54Z</time>
      </trkpt>
      <trkpt lat="44.96944" lon="6.11207">
        <ele>1485</ele>
        <time>2024-08-14T12:21:55Z</time>
      </trkpt>
      <trkpt lat="44.96944" lon="6.11207">
        <ele>1484.8</ele>
        <time>2024-08-14T12:21:56Z</time>
      </trkpt>
      <trkpt lat="44.96945" lon="6.1121">
        <ele>1484.4</ele>
        <time>2024-08-14T12:21:57Z</time>
      </trkpt>
      <trkpt lat="44.96945" lon="6.1121">
        <ele>1484</ele>
        <time>2024-08-14T12:21:58Z</time>
      </trkpt>
      <trkpt lat="44.96945" lon="6.1121">
        <ele>1483.8</ele>
        <time>2024-08-14T12:21:59Z</time>
      </trkpt>
      <trkpt lat="44.96946" lon="6.11213">
        <ele>1483.6</ele>
        <time>2024-08-14T12:22:00Z</time>
      </trkpt>
      <trkpt lat="44.96946" lon="6.11213">
        <ele>1483.4</ele>
        <time>2024-08-14T12:22:01Z</time>
      </trkpt>
      <trkpt lat="44.96946" lon="6.11213">
        <ele>1483</ele>
        <time>2024-08-14T12:22:02Z</time>
      </trkpt>
      <trkpt lat="44.96948" lon="6.11212">
        <ele>1483</ele>
        <time>2024-08-14T12:22:03Z</time>
      </trkpt>
      <trkpt lat="44.96948" lon="6.11212">
        <ele>1482.8</ele>
        <time>2024-08-14T12:22:04Z</time>
      </trkpt>
      <trkpt lat="44.96948" lon="6.11212">
        <ele>1482.8</ele>
        <time>2024-08-14T12:22:05Z</time>
      </trkpt>
      <trkpt lat="44.96948" lon="6.11212">
        <ele>1482.4</ele>
        <time>2024-08-14T12:22:06Z</time>
      </trkpt>
      <trkpt lat="44.96949" lon="6.11215">
        <ele>1482.4</ele>
        <time>2024-08-14T12:22:07Z</time>
      </trkpt>
      <trkpt lat="44.96949" lon="6.11215">
        <ele>1482</ele>
        <time>2024-08-14T12:22:08Z</time>
      </trkpt>
      <trkpt lat="44.96949" lon="6.11215">
        <ele>1481.6</ele>
        <time>2024-08-14T12:22:09Z</time>
      </trkpt>
      <trkpt lat="44.96951" lon="6.11217">
        <ele>1481.4</ele>
        <time>2024-08-14T12:22:10Z</time>
      </trkpt>
      <trkpt lat="44.96951" lon="6.11217">
        <ele>1481.4</ele>
        <time>2024-08-14T12:22:11Z</time>
      </trkpt>
      <trkpt lat="44.9695" lon="6.1122">
        <ele>1481.2</ele>
        <time>2024-08-14T12:22:12Z</time>
      </trkpt>
      <trkpt lat="44.9695" lon="6.1122">
        <ele>1480.8</ele>
        <time>2024-08-14T12:22:13Z</time>
      </trkpt>
      <trkpt lat="44.9695" lon="6.1122">
        <ele>1480.2</ele>
        <time>2024-08-14T12:22:14Z</time>
      </trkpt>
      <trkpt lat="44.96949" lon="6.11222">
        <ele>1479.8</ele>
        <time>2024-08-14T12:22:15Z</time>
      </trkpt>
      <trkpt lat="44.96949" lon="6.11222">
        <ele>1479.6</ele>
        <time>2024-08-14T12:22:16Z</time>
      </trkpt>
      <trkpt lat="44.96949" lon="6.11222">
        <ele>1479.6</ele>
        <time>2024-08-14T12:22:17Z</time>
      </trkpt>
      <trkpt lat="44.96948" lon="6.11225">
        <ele>1479.4</ele>
        <time>2024-08-14T12:22:18Z</time>
      </trkpt>
      <trkpt lat="44.96948" lon="6.11225">
        <ele>1479</ele>
        <time>2024-08-14T12:22:19Z</time>
      </trkpt>
      <trkpt lat="44.96948" lon="6.11225">
        <ele>1478.6</ele>
        <time>2024-08-14T12:22:20Z</time>
      </trkpt>
      <trkpt lat="44.96948" lon="6.11228">
        <ele>1478.4</ele>
        <time>2024-08-14T12:22:21Z</time>
      </trkpt>
      <trkpt lat="44.96948" lon="6.11228">
        <ele>1478.2</ele>
        <time>2024-08-14T12:22:22Z</time>
      </trkpt>
      <trkpt lat="44.96949" lon="6.1123">
        <ele>1477.6</ele>
        <time>2024-08-14T12:22:23Z</time>
      </trkpt>
      <trkpt lat="44.96949" lon="6.1123">
        <ele>1477.6</ele>
        <time>2024-08-14T12:22:24Z</time>
      </trkpt>
      <trkpt lat="44.9695" lon="6.11233">
        <ele>1477.2</ele>
        <time>2024-08-14T12:22:25Z</time>
      </trkpt>
      <trkpt lat="44.9695" lon="6.11233">
        <ele>1476.6</ele>
        <time>2024-08-14T12:22:26Z</time>
      </trkpt>
      <trkpt lat="44.96952" lon="6.11234">
        <ele>1476.4</ele>
        <time>2024-08-14T12:22:27Z</time>
      </trkpt>
      <trkpt lat="44.96952" lon="6.11234">
        <ele>1476.4</ele>
        <time>2024-08-14T12:22:28Z</time>
      </trkpt>
      <trkpt lat="44.96955" lon="6.11237">
        <ele>1476.2</ele>
        <time>2024-08-14T12:22:29Z</time>
      </trkpt>
      <trkpt lat="44.96955" lon="6.11237">
        <ele>1476</ele>
        <time>2024-08-14T12:22:30Z</time>
      </trkpt>
      <trkpt lat="44.96955" lon="6.11237">
        <ele>1475.8</ele>
        <time>2024-08-14T12:22:31Z</time>
      </trkpt>
      <trkpt lat="44.96957" lon="6.11238">
        <ele>1475.6</ele>
        <time>2024-08-14T12:22:32Z</time>
      </trkpt>
      <trkpt lat="44.96957" lon="6.11238">
        <ele>1475.6</ele>
        <time>2024-08-14T12:22:33Z</time>
      </trkpt>
      <trkpt lat="44.96959" lon="6.11237">
        <ele>1475.4</ele>
        <time>2024-08-14T12:22:34Z</time>
      </trkpt>
      <trkpt lat="44.96959" lon="6.11237">
        <ele>1475.4</ele>
        <time>2024-08-14T12:22:35Z</time>
      </trkpt>
      <trkpt lat="44.96959" lon="6.11237">
        <ele>1475.4</ele>
        <time>2024-08-14T12:22:36Z</time>
      </trkpt>
      <trkpt lat="44.96961" lon="6.11238">
        <ele>1475.2</ele>
        <time>2024-08-14T12:22:37Z</time>
      </trkpt>
      <trkpt lat="44.96961" lon="6.11238">
        <ele>1474.6</ele>
        <time>2024-08-14T12:22:38Z</time>
      </trkpt>
      <trkpt lat="44.96961" lon="6.11238">
        <ele>1474.4</ele>
        <time>2024-08-14T12:22:39Z</time>
      </trkpt>
      <trkpt lat="44.96964" lon="6.11239">
        <ele>1474</ele>
        <time>2024-08-14T12:22:40Z</time>
      </trkpt>
      <trkpt lat="44.96964" lon="6.11239">
        <ele>1473.6</ele>
        <time>2024-08-14T12:22:41Z</time>
      </trkpt>
      <trkpt lat="44.96965" lon="6.11241">
        <ele>1473.2</ele>
        <time>2024-08-14T12:22:42Z</time>
      </trkpt>
      <trkpt lat="44.96965" lon="6.11241">
        <ele>1473</ele>
        <time>2024-08-14T12:22:43Z</time>
      </trkpt>
      <trkpt lat="44.96965" lon="6.11241">
        <ele>1472.6</ele>
        <time>2024-08-14T12:22:44Z</time>
      </trkpt>
      <trkpt lat="44.96967" lon="6.11242">
        <ele>1472.4</ele>
        <time>2024-08-14T12:22:45Z</time>
      </trkpt>
      <trkpt lat="44.96967" lon="6.11242">
        <ele>1472</ele>
        <time>2024-08-14T12:22:46Z</time>
      </trkpt>
      <trkpt lat="44.96969" lon="6.11242">
        <ele>1471.6</ele>
        <time>2024-08-14T12:22:47Z</time>
      </trkpt>
      <trkpt lat="44.96969" lon="6.11242">
        <ele>1471.4</ele>
        <time>2024-08-14T12:22:48Z</time>
      </trkpt>
      <trkpt lat="44.96971" lon="6.11245">
        <ele>1471.4</ele>
        <time>2024-08-14T12:22:49Z</time>
      </trkpt>
      <trkpt lat="44.96971" lon="6.11245">
        <ele>1471</ele>
        <time>2024-08-14T12:22:50Z</time>
      </trkpt>
      <trkpt lat="44.96971" lon="6.11248">
        <ele>1470.8</ele>
        <time>2024-08-14T12:22:51Z</time>
      </trkpt>
      <trkpt lat="44.96971" lon="6.11248">
        <ele>1470.4</ele>
        <time>2024-08-14T12:22:52Z</time>
      </trkpt>
      <trkpt lat="44.96971" lon="6.11248">
        <ele>1470</ele>
        <time>2024-08-14T12:22:53Z</time>
      </trkpt>
      <trkpt lat="44.96972" lon="6.11251">
        <ele>1470</ele>
        <time>2024-08-14T12:22:54Z</time>
      </trkpt>
      <trkpt lat="44.96972" lon="6.11251">
        <ele>1469.8</ele>
        <time>2024-08-14T12:22:55Z</time>
      </trkpt>
      <trkpt lat="44.96972" lon="6.11251">
        <ele>1469.6</ele>
        <time>2024-08-14T12:22:56Z</time>
      </trkpt>
      <trkpt lat="44.9697" lon="6.11255">
        <ele>1469.2</ele>
        <time>2024-08-14T12:22:57Z</time>
      </trkpt>
      <trkpt lat="44.9697" lon="6.11255">
        <ele>1468.8</ele>
        <time>2024-08-14T12:22:58Z</time>
      </trkpt>
      <trkpt lat="44.9697" lon="6.11255">
        <ele>1468.6</ele>
        <time>2024-08-14T12:22:59Z</time>
      </trkpt>
      <trkpt lat="44.9697" lon="6.11258">
        <ele>1468.4</ele>
        <time>2024-08-14T12:23:00Z</time>
      </trkpt>
      <trkpt lat="44.9697" lon="6.11258">
        <ele>1467.8</ele>
        <time>2024-08-14T12:23:01Z</time>
      </trkpt>
      <trkpt lat="44.96972" lon="6.1126">
        <ele>1467.6</ele>
        <time>2024-08-14T12:23:02Z</time>
      </trkpt>
      <trkpt lat="44.96972" lon="6.1126">
        <ele>1467.6</ele>
        <time>2024-08-14T12:23:03Z</time>
      </trkpt>
      <trkpt lat="44.96973" lon="6.11262">
        <ele>1467.2</ele>
        <time>2024-08-14T12:23:04Z</time>
      </trkpt>
      <trkpt lat="44.96973" lon="6.11262">
        <ele>1467</ele>
        <time>2024-08-14T12:23:05Z</time>
      </trkpt>
      <trkpt lat="44.96973" lon="6.11262">
        <ele>1466.8</ele>
        <time>2024-08-14T12:23:06Z</time>
      </trkpt>
      <trkpt lat="44.96973" lon="6.11265">
        <ele>1466.4</ele>
        <time>2024-08-14T12:23:07Z</time>
      </trkpt>
      <trkpt lat="44.96973" lon="6.11265">
        <ele>1466</ele>
        <time>2024-08-14T12:23:08Z</time>
      </trkpt>
      <trkpt lat="44.96973" lon="6.11265">
        <ele>1466</ele>
        <time>2024-08-14T12:23:09Z</time>
      </trkpt>
      <trkpt lat="44.96973" lon="6.11269">
        <ele>1465.6</ele>
        <time>2024-08-14T12:23:10Z</time>
      </trkpt>
      <trkpt lat="44.96973" lon="6.11269">
        <ele>1465.4</ele>
        <time>2024-08-14T12:23:11Z</time>
      </trkpt>
      <trkpt lat="44.96973" lon="6.11269">
        <ele>1465</ele>
        <time>2024-08-14T12:23:12Z</time>
      </trkpt>
      <trkpt lat="44.96973" lon="6.11271">
        <ele>1464.8</ele>
        <time>2024-08-14T12:23:13Z</time>
      </trkpt>
      <trkpt lat="44.96973" lon="6.11271">
        <ele>1464.4</ele>
        <time>2024-08-14T12:23:14Z</time>
      </trkpt>
      <trkpt lat="44.96973" lon="6.11271">
        <ele>1464</ele>
        <time>2024-08-14T12:23:15Z</time>
      </trkpt>
      <trkpt lat="44.96973" lon="6.11271">
        <ele>1463.8</ele>
        <time>2024-08-14T12:23:16Z</time>
      </trkpt>
      <trkpt lat="44.96973" lon="6.11274">
        <ele>1463.4</ele>
        <time>2024-08-14T12:23:17Z</time>
      </trkpt>
      <trkpt lat="44.96973" lon="6.11274">
        <ele>1463.2</ele>
        <time>2024-08-14T12:23:18Z</time>
      </trkpt>
      <trkpt lat="44.96974" lon="6.11276">
        <ele>1463</ele>
        <time>2024-08-14T12:23:19Z</time>
      </trkpt>
      <trkpt lat="44.96974" lon="6.11276">
        <ele>1462.6</ele>
        <time>2024-08-14T12:23:20Z</time>
      </trkpt>
      <trkpt lat="44.96975" lon="6.1128">
        <ele>1462.6</ele>
        <time>2024-08-14T12:23:21Z</time>
      </trkpt>
      <trkpt lat="44.96975" lon="6.1128">
        <ele>1462.6</ele>
        <time>2024-08-14T12:23:22Z</time>
      </trkpt>
      <trkpt lat="44.96977" lon="6.11281">
        <ele>1462.2</ele>
        <time>2024-08-14T12:23:23Z</time>
      </trkpt>
      <trkpt lat="44.96977" lon="6.11281">
        <ele>1462.2</ele>
        <time>2024-08-14T12:23:24Z</time>
      </trkpt>
      <trkpt lat="44.9698" lon="6.11283">
        <ele>1462.2</ele>
        <time>2024-08-14T12:23:25Z</time>
      </trkpt>
      <trkpt lat="44.9698" lon="6.11283">
        <ele>1461.8</ele>
        <time>2024-08-14T12:23:26Z</time>
      </trkpt>
      <trkpt lat="44.96982" lon="6.11284">
        <ele>1461.6</ele>
        <time>2024-08-14T12:23:27Z</time>
      </trkpt>
      <trkpt lat="44.96982" lon="6.11284">
        <ele>1461.2</ele>
        <time>2024-08-14T12:23:28Z</time>
      </trkpt>
      <trkpt lat="44.96984" lon="6.11286">
        <ele>1461.2</ele>
        <time>2024-08-14T12:23:29Z</time>
      </trkpt>
      <trkpt lat="44.96984" lon="6.11286">
        <ele>1461</ele>
        <time>2024-08-14T12:23:30Z</time>
      </trkpt>
      <trkpt lat="44.96985" lon="6.11289">
        <ele>1461</ele>
        <time>2024-08-14T12:23:31Z</time>
      </trkpt>
      <trkpt lat="44.96985" lon="6.11289">
        <ele>1460.8</ele>
        <time>2024-08-14T12:23:32Z</time>
      </trkpt>
      <trkpt lat="44.96985" lon="6.11289">
        <ele>1460.6</ele>
        <time>2024-08-14T12:23:33Z</time>
      </trkpt>
      <trkpt lat="44.96986" lon="6.11293">
        <ele>1460.4</ele>
        <time>2024-08-14T12:23:34Z</time>
      </trkpt>
      <trkpt lat="44.96986" lon="6.11293">
        <ele>1460.2</ele>
        <time>2024-08-14T12:23:35Z</time>
      </trkpt>
      <trkpt lat="44.96987" lon="6.11296">
        <ele>1460</ele>
        <time>2024-08-14T12:23:36Z</time>
      </trkpt>
      <trkpt lat="44.96987" lon="6.11296">
        <ele>1459.8</ele>
        <time>2024-08-14T12:23:37Z</time>
      </trkpt>
      <trkpt lat="44.96987" lon="6.11296">
        <ele>1459.6</ele>
        <time>2024-08-14T12:23:38Z</time>
      </trkpt>
      <trkpt lat="44.96989" lon="6.113">
        <ele>1459.4</ele>
        <time>2024-08-14T12:23:39Z</time>
      </trkpt>
      <trkpt lat="44.96989" lon="6.113">
        <ele>1459.2</ele>
        <time>2024-08-14T12:23:40Z</time>
      </trkpt>
      <trkpt lat="44.96989" lon="6.113">
        <ele>1459</ele>
        <time>2024-08-14T12:23:41Z</time>
      </trkpt>
      <trkpt lat="44.96989" lon="6.11304">
        <ele>1458.6</ele>
        <time>2024-08-14T12:23:42Z</time>
      </trkpt>
      <trkpt lat="44.96989" lon="6.11304">
        <ele>1458.4</ele>
        <time>2024-08-14T12:23:43Z</time>
      </trkpt>
      <trkpt lat="44.96989" lon="6.11304">
        <ele>1458</ele>
        <time>2024-08-14T12:23:44Z</time>
      </trkpt>
      <trkpt lat="44.96987" lon="6.11303">
        <ele>1457.4</ele>
        <time>2024-08-14T12:23:45Z</time>
      </trkpt>
      <trkpt lat="44.96987" lon="6.11303">
        <ele>1457</ele>
        <time>2024-08-14T12:23:46Z</time>
      </trkpt>
      <trkpt lat="44.96985" lon="6.11302">
        <ele>1456.6</ele>
        <time>2024-08-14T12:23:47Z</time>
      </trkpt>
      <trkpt lat="44.96985" lon="6.11302">
        <ele>1456.4</ele>
        <time>2024-08-14T12:23:48Z</time>
      </trkpt>
      <trkpt lat="44.96985" lon="6.11302">
        <ele>1456.2</ele>
        <time>2024-08-14T12:23:49Z</time>
      </trkpt>
      <trkpt lat="44.96985" lon="6.11302">
        <ele>1456.2</ele>
        <time>2024-08-14T12:23:50Z</time>
      </trkpt>
      <trkpt lat="44.96985" lon="6.11302">
        <ele>1456</ele>
        <time>2024-08-14T12:23:51Z</time>
      </trkpt>
      <trkpt lat="44.96985" lon="6.11302">
        <ele>1455.6</ele>
        <time>2024-08-14T12:23:52Z</time>
      </trkpt>
      <trkpt lat="44.96983" lon="6.11304">
        <ele>1455.6</ele>
        <time>2024-08-14T12:23:53Z</time>
      </trkpt>
      <trkpt lat="44.96983" lon="6.11304">
        <ele>1455.4</ele>
        <time>2024-08-14T12:23:54Z</time>
      </trkpt>
      <trkpt lat="44.96983" lon="6.11304">
        <ele>1455</ele>
        <time>2024-08-14T12:23:55Z</time>
      </trkpt>
      <trkpt lat="44.96983" lon="6.11304">
        <ele>1454.8</ele>
        <time>2024-08-14T12:23:56Z</time>
      </trkpt>
      <trkpt lat="44.96983" lon="6.11304">
        <ele>1454.8</ele>
        <time>2024-08-14T12:23:57Z</time>
      </trkpt>
      <trkpt lat="44.96983" lon="6.11304">
        <ele>1454.4</ele>
        <time>2024-08-14T12:23:58Z</time>
      </trkpt>
      <trkpt lat="44.96983" lon="6.11306">
        <ele>1454.2</ele>
        <time>2024-08-14T12:23:59Z</time>
      </trkpt>
      <trkpt lat="44.96983" lon="6.11306">
        <ele>1454</ele>
        <time>2024-08-14T12:24:00Z</time>
      </trkpt>
      <trkpt lat="44.96983" lon="6.11306">
        <ele>1453.6</ele>
        <time>2024-08-14T12:24:01Z</time>
      </trkpt>
      <trkpt lat="44.96984" lon="6.11311">
        <ele>1453.2</ele>
        <time>2024-08-14T12:24:02Z</time>
      </trkpt>
      <trkpt lat="44.96984" lon="6.11311">
        <ele>1453.2</ele>
        <time>2024-08-14T12:24:03Z</time>
      </trkpt>
      <trkpt lat="44.96985" lon="6.11316">
        <ele>1452.8</ele>
        <time>2024-08-14T12:24:04Z</time>
      </trkpt>
      <trkpt lat="44.96985" lon="6.11316">
        <ele>1452.4</ele>
        <time>2024-08-14T12:24:05Z</time>
      </trkpt>
      <trkpt lat="44.96986" lon="6.11319">
        <ele>1452.2</ele>
        <time>2024-08-14T12:24:06Z</time>
      </trkpt>
      <trkpt lat="44.96986" lon="6.11319">
        <ele>1452</ele>
        <time>2024-08-14T12:24:07Z</time>
      </trkpt>
      <trkpt lat="44.96988" lon="6.11323">
        <ele>1452</ele>
        <time>2024-08-14T12:24:08Z</time>
      </trkpt>
      <trkpt lat="44.96988" lon="6.11323">
        <ele>1451.6</ele>
        <time>2024-08-14T12:24:09Z</time>
      </trkpt>
      <trkpt lat="44.96988" lon="6.11323">
        <ele>1451.6</ele>
        <time>2024-08-14T12:24:10Z</time>
      </trkpt>
      <trkpt lat="44.96989" lon="6.11325">
        <ele>1451.4</ele>
        <time>2024-08-14T12:24:11Z</time>
      </trkpt>
      <trkpt lat="44.96989" lon="6.11325">
        <ele>1451</ele>
        <time>2024-08-14T12:24:12Z</time>
      </trkpt>
      <trkpt lat="44.96989" lon="6.11325">
        <ele>1450.8</ele>
        <time>2024-08-14T12:24:13Z</time>
      </trkpt>
      <trkpt lat="44.96989" lon="6.11325">
        <ele>1450.8</ele>
        <time>2024-08-14T12:24:14Z</time>
      </trkpt>
      <trkpt lat="44.9699" lon="6.11329">
        <ele>1450.4</ele>
        <time>2024-08-14T12:24:15Z</time>
      </trkpt>
      <trkpt lat="44.9699" lon="6.11329">
        <ele>1450</ele>
        <time>2024-08-14T12:24:16Z</time>
      </trkpt>
      <trkpt lat="44.9699" lon="6.11329">
        <ele>1449.8</ele>
        <time>2024-08-14T12:24:17Z</time>
      </trkpt>
      <trkpt lat="44.96989" lon="6.11332">
        <ele>1449.6</ele>
        <time>2024-08-14T12:24:18Z</time>
      </trkpt>
      <trkpt lat="44.96989" lon="6.11332">
        <ele>1449.2</ele>
        <time>2024-08-14T12:24:19Z</time>
      </trkpt>
      <trkpt lat="44.9699" lon="6.11335">
        <ele>1449.2</ele>
        <time>2024-08-14T12:24:20Z</time>
      </trkpt>
      <trkpt lat="44.9699" lon="6.11335">
        <ele>1449</ele>
        <time>2024-08-14T12:24:21Z</time>
      </trkpt>
      <trkpt lat="44.9699" lon="6.11338">
        <ele>1448.8</ele>
        <time>2024-08-14T12:24:22Z</time>
      </trkpt>
      <trkpt lat="44.9699" lon="6.11338">
        <ele>1448.2</ele>
        <time>2024-08-14T12:24:23Z</time>
      </trkpt>
      <trkpt lat="44.9699" lon="6.11341">
        <ele>1448</ele>
        <time>2024-08-14T12:24:24Z</time>
      </trkpt>
      <trkpt lat="44.9699" lon="6.11341">
        <ele>1447.8</ele>
        <time>2024-08-14T12:24:25Z</time>
      </trkpt>
      <trkpt lat="44.96991" lon="6.11344">
        <ele>1447.6</ele>
        <time>2024-08-14T12:24:26Z</time>
      </trkpt>
      <trkpt lat="44.96991" lon="6.11344">
        <ele>1447.6</ele>
        <time>2024-08-14T12:24:27Z</time>
      </trkpt>
      <trkpt lat="44.96993" lon="6.11347">
        <ele>1447.4</ele>
        <time>2024-08-14T12:24:28Z</time>
      </trkpt>
      <trkpt lat="44.96993" lon="6.11347">
        <ele>1447</ele>
        <time>2024-08-14T12:24:29Z</time>
      </trkpt>
      <trkpt lat="44.96994" lon="6.1135">
        <ele>1446.8</ele>
        <time>2024-08-14T12:24:30Z</time>
      </trkpt>
      <trkpt lat="44.96994" lon="6.1135">
        <ele>1446.6</ele>
        <time>2024-08-14T12:24:31Z</time>
      </trkpt>
      <trkpt lat="44.96995" lon="6.11353">
        <ele>1446.6</ele>
        <time>2024-08-14T12:24:32Z</time>
      </trkpt>
      <trkpt lat="44.96995" lon="6.11353">
        <ele>1446.4</ele>
        <time>2024-08-14T12:24:33Z</time>
      </trkpt>
      <trkpt lat="44.96995" lon="6.11353">
        <ele>1446</ele>
        <time>2024-08-14T12:24:34Z</time>
      </trkpt>
      <trkpt lat="44.96995" lon="6.11353">
        <ele>1445.8</ele>
        <time>2024-08-14T12:24:35Z</time>
      </trkpt>
      <trkpt lat="44.96993" lon="6.11353">
        <ele>1445.6</ele>
        <time>2024-08-14T12:24:36Z</time>
      </trkpt>
      <trkpt lat="44.96993" lon="6.11353">
        <ele>1445.4</ele>
        <time>2024-08-14T12:24:37Z</time>
      </trkpt>
      <trkpt lat="44.96993" lon="6.11353">
        <ele>1445</ele>
        <time>2024-08-14T12:24:38Z</time>
      </trkpt>
      <trkpt lat="44.96993" lon="6.11353">
        <ele>1445</ele>
        <time>2024-08-14T12:24:39Z</time>
      </trkpt>
      <trkpt lat="44.9699" lon="6.11352">
        <ele>1444.8</ele>
        <time>2024-08-14T12:24:40Z</time>
      </trkpt>
      <trkpt lat="44.9699" lon="6.11352">
        <ele>1444.4</ele>
        <time>2024-08-14T12:24:41Z</time>
      </trkpt>
      <trkpt lat="44.96988" lon="6.11352">
        <ele>1444.2</ele>
        <time>2024-08-14T12:24:42Z</time>
      </trkpt>
      <trkpt lat="44.96988" lon="6.11352">
        <ele>1443.8</ele>
        <time>2024-08-14T12:24:43Z</time>
      </trkpt>
      <trkpt lat="44.96988" lon="6.11352">
        <ele>1443.6</ele>
        <time>2024-08-14T12:24:44Z</time>
      </trkpt>
      <trkpt lat="44.96986" lon="6.11352">
        <ele>1443.2</ele>
        <time>2024-08-14T12:24:45Z</time>
      </trkpt>
      <trkpt lat="44.96986" lon="6.11352">
        <ele>1442.8</ele>
        <time>2024-08-14T12:24:46Z</time>
      </trkpt>
      <trkpt lat="44.96986" lon="6.11352">
        <ele>1442.8</ele>
        <time>2024-08-14T12:24:47Z</time>
      </trkpt>
      <trkpt lat="44.96984" lon="6.1135">
        <ele>1442.2</ele>
        <time>2024-08-14T12:24:48Z</time>
      </trkpt>
      <trkpt lat="44.96984" lon="6.1135">
        <ele>1441.8</ele>
        <time>2024-08-14T12:24:49Z</time>
      </trkpt>
      <trkpt lat="44.96984" lon="6.1135">
        <ele>1441.6</ele>
        <time>2024-08-14T12:24:50Z</time>
      </trkpt>
      <trkpt lat="44.96982" lon="6.11348">
        <ele>1441.2</ele>
        <time>2024-08-14T12:24:51Z</time>
      </trkpt>
      <trkpt lat="44.96982" lon="6.11348">
        <ele>1441</ele>
        <time>2024-08-14T12:24:52Z</time>
      </trkpt>
      <trkpt lat="44.96982" lon="6.11348">
        <ele>1440.8</ele>
        <time>2024-08-14T12:24:53Z</time>
      </trkpt>
      <trkpt lat="44.9698" lon="6.11348">
        <ele>1440.4</ele>
        <time>2024-08-14T12:24:54Z</time>
      </trkpt>
      <trkpt lat="44.9698" lon="6.11348">
        <ele>1440</ele>
        <time>2024-08-14T12:24:55Z</time>
      </trkpt>
      <trkpt lat="44.9698" lon="6.11348">
        <ele>1439.8</ele>
        <time>2024-08-14T12:24:56Z</time>
      </trkpt>
      <trkpt lat="44.9698" lon="6.11348">
        <ele>1439.4</ele>
        <time>2024-08-14T12:24:57Z</time>
      </trkpt>
      <trkpt lat="44.9698" lon="6.11348">
        <ele>1439.2</ele>
        <time>2024-08-14T12:24:58Z</time>
      </trkpt>
      <trkpt lat="44.96978" lon="6.11351">
        <ele>1438.8</ele>
        <time>2024-08-14T12:24:59Z</time>
      </trkpt>
      <trkpt lat="44.96978" lon="6.11351">
        <ele>1438.8</ele>
        <time>2024-08-14T12:25:00Z</time>
      </trkpt>
      <trkpt lat="44.96978" lon="6.11351">
        <ele>1438.6</ele>
        <time>2024-08-14T12:25:01Z</time>
      </trkpt>
      <trkpt lat="44.96978" lon="6.11351">
        <ele>1438</ele>
        <time>2024-08-14T12:25:02Z</time>
      </trkpt>
      <trkpt lat="44.96978" lon="6.11355">
        <ele>1438</ele>
        <time>2024-08-14T12:25:03Z</time>
      </trkpt>
      <trkpt lat="44.96978" lon="6.11355">
        <ele>1437.6</ele>
        <time>2024-08-14T12:25:04Z</time>
      </trkpt>
      <trkpt lat="44.96978" lon="6.11359">
        <ele>1437.4</ele>
        <time>2024-08-14T12:25:05Z</time>
      </trkpt>
      <trkpt lat="44.96978" lon="6.11359">
        <ele>1436.8</ele>
        <time>2024-08-14T12:25:06Z</time>
      </trkpt>
      <trkpt lat="44.96978" lon="6.11359">
        <ele>1436.4</ele>
        <time>2024-08-14T12:25:07Z</time>
      </trkpt>
      <trkpt lat="44.96978" lon="6.11362">
        <ele>1436.2</ele>
        <time>2024-08-14T12:25:08Z</time>
      </trkpt>
      <trkpt lat="44.96978" lon="6.11362">
        <ele>1436</ele>
        <time>2024-08-14T12:25:09Z</time>
      </trkpt>
      <trkpt lat="44.96978" lon="6.11362">
        <ele>1435.6</ele>
        <time>2024-08-14T12:25:10Z</time>
      </trkpt>
      <trkpt lat="44.96978" lon="6.11362">
        <ele>1435.4</ele>
        <time>2024-08-14T12:25:11Z</time>
      </trkpt>
      <trkpt lat="44.96978" lon="6.11365">
        <ele>1435</ele>
        <time>2024-08-14T12:25:12Z</time>
      </trkpt>
      <trkpt lat="44.96978" lon="6.11365">
        <ele>1434.6</ele>
        <time>2024-08-14T12:25:13Z</time>
      </trkpt>
      <trkpt lat="44.96978" lon="6.11365">
        <ele>1434.4</ele>
        <time>2024-08-14T12:25:14Z</time>
      </trkpt>
      <trkpt lat="44.96978" lon="6.11365">
        <ele>1434.2</ele>
        <time>2024-08-14T12:25:15Z</time>
      </trkpt>
      <trkpt lat="44.96977" lon="6.11367">
        <ele>1434</ele>
        <time>2024-08-14T12:25:16Z</time>
      </trkpt>
      <trkpt lat="44.96977" lon="6.11367">
        <ele>1433.8</ele>
        <time>2024-08-14T12:25:17Z</time>
      </trkpt>
      <trkpt lat="44.96977" lon="6.11367">
        <ele>1433.4</ele>
        <time>2024-08-14T12:25:18Z</time>
      </trkpt>
      <trkpt lat="44.96976" lon="6.1137">
        <ele>1433.4</ele>
        <time>2024-08-14T12:25:19Z</time>
      </trkpt>
      <trkpt lat="44.96976" lon="6.1137">
        <ele>1433.2</ele>
        <time>2024-08-14T12:25:20Z</time>
      </trkpt>
      <trkpt lat="44.96976" lon="6.1137">
        <ele>1432.8</ele>
        <time>2024-08-14T12:25:21Z</time>
      </trkpt>
      <trkpt lat="44.96976" lon="6.11373">
        <ele>1432.6</ele>
        <time>2024-08-14T12:25:22Z</time>
      </trkpt>
      <trkpt lat="44.96977" lon="6.11376">
        <ele>1432.4</ele>
        <time>2024-08-14T12:25:23Z</time>
      </trkpt>
      <trkpt lat="44.96977" lon="6.11376">
        <ele>1431.8</ele>
        <time>2024-08-14T12:25:24Z</time>
      </trkpt>
      <trkpt lat="44.96977" lon="6.11376">
        <ele>1431.8</ele>
        <time>2024-08-14T12:25:25Z</time>
      </trkpt>
      <trkpt lat="44.96978" lon="6.11379">
        <ele>1431.4</ele>
        <time>2024-08-14T12:25:26Z</time>
      </trkpt>
      <trkpt lat="44.96978" lon="6.11379">
        <ele>1431.2</ele>
        <time>2024-08-14T12:25:27Z</time>
      </trkpt>
      <trkpt lat="44.96979" lon="6.11382">
        <ele>1431</ele>
        <time>2024-08-14T12:25:28Z</time>
      </trkpt>
      <trkpt lat="44.96979" lon="6.11382">
        <ele>1431</ele>
        <time>2024-08-14T12:25:29Z</time>
      </trkpt>
      <trkpt lat="44.9698" lon="6.11385">
        <ele>1430.8</ele>
        <time>2024-08-14T12:25:30Z</time>
      </trkpt>
      <trkpt lat="44.9698" lon="6.11385">
        <ele>1430.6</ele>
        <time>2024-08-14T12:25:31Z</time>
      </trkpt>
      <trkpt lat="44.96981" lon="6.11387">
        <ele>1430.2</ele>
        <time>2024-08-14T12:25:32Z</time>
      </trkpt>
      <trkpt lat="44.96981" lon="6.11387">
        <ele>1430</ele>
        <time>2024-08-14T12:25:33Z</time>
      </trkpt>
      <trkpt lat="44.96981" lon="6.11387">
        <ele>1429.6</ele>
        <time>2024-08-14T12:25:34Z</time>
      </trkpt>
      <trkpt lat="44.96983" lon="6.11388">
        <ele>1429.6</ele>
        <time>2024-08-14T12:25:35Z</time>
      </trkpt>
      <trkpt lat="44.96983" lon="6.11388">
        <ele>1429.4</ele>
        <time>2024-08-14T12:25:36Z</time>
      </trkpt>
      <trkpt lat="44.96983" lon="6.11388">
        <ele>1429.2</ele>
        <time>2024-08-14T12:25:37Z</time>
      </trkpt>
      <trkpt lat="44.96985" lon="6.11388">
        <ele>1429</ele>
        <time>2024-08-14T12:25:38Z</time>
      </trkpt>
      <trkpt lat="44.96985" lon="6.11388">
        <ele>1428.8</ele>
        <time>2024-08-14T12:25:39Z</time>
      </trkpt>
      <trkpt lat="44.96985" lon="6.11388">
        <ele>1428.6</ele>
        <time>2024-08-14T12:25:40Z</time>
      </trkpt>
      <trkpt lat="44.96987" lon="6.11392">
        <ele>1428.2</ele>
        <time>2024-08-14T12:25:41Z</time>
      </trkpt>
      <trkpt lat="44.96987" lon="6.11392">
        <ele>1428</ele>
        <time>2024-08-14T12:25:42Z</time>
      </trkpt>
      <trkpt lat="44.96989" lon="6.11394">
        <ele>1427.4</ele>
        <time>2024-08-14T12:25:43Z</time>
      </trkpt>
      <trkpt lat="44.96989" lon="6.11394">
        <ele>1427</ele>
        <time>2024-08-14T12:25:44Z</time>
      </trkpt>
      <trkpt lat="44.9699" lon="6.11396">
        <ele>1426.8</ele>
        <time>2024-08-14T12:25:45Z</time>
      </trkpt>
      <trkpt lat="44.9699" lon="6.11396">
        <ele>1426.8</ele>
        <time>2024-08-14T12:25:46Z</time>
      </trkpt>
      <trkpt lat="44.9699" lon="6.11399">
        <ele>1426.4</ele>
        <time>2024-08-14T12:25:47Z</time>
      </trkpt>
      <trkpt lat="44.9699" lon="6.11399">
        <ele>1426.4</ele>
        <time>2024-08-14T12:25:48Z</time>
      </trkpt>
      <trkpt lat="44.9699" lon="6.11399">
        <ele>1426.4</ele>
        <time>2024-08-14T12:25:49Z</time>
      </trkpt>
      <trkpt lat="44.9699" lon="6.11399">
        <ele>1426.4</ele>
        <time>2024-08-14T12:25:50Z</time>
      </trkpt>
      <trkpt lat="44.96992" lon="6.114">
        <ele>1426.2</ele>
        <time>2024-08-14T12:25:51Z</time>
      </trkpt>
      <trkpt lat="44.96992" lon="6.114">
        <ele>1426</ele>
        <time>2024-08-14T12:25:52Z</time>
      </trkpt>
      <trkpt lat="44.96992" lon="6.114">
        <ele>1425.8</ele>
        <time>2024-08-14T12:25:53Z</time>
      </trkpt>
      <trkpt lat="44.96994" lon="6.11403">
        <ele>1425.6</ele>
        <time>2024-08-14T12:25:54Z</time>
      </trkpt>
      <trkpt lat="44.96994" lon="6.11403">
        <ele>1425.4</ele>
        <time>2024-08-14T12:25:55Z</time>
      </trkpt>
      <trkpt lat="44.96994" lon="6.11403">
        <ele>1425.2</ele>
        <time>2024-08-14T12:25:56Z</time>
      </trkpt>
      <trkpt lat="44.96995" lon="6.11405">
        <ele>1424.8</ele>
        <time>2024-08-14T12:25:57Z</time>
      </trkpt>
      <trkpt lat="44.96995" lon="6.11405">
        <ele>1424.6</ele>
        <time>2024-08-14T12:25:58Z</time>
      </trkpt>
      <trkpt lat="44.96995" lon="6.11405">
        <ele>1424.4</ele>
        <time>2024-08-14T12:25:59Z</time>
      </trkpt>
      <trkpt lat="44.96995" lon="6.11405">
        <ele>1424.4</ele>
        <time>2024-08-14T12:26:00Z</time>
      </trkpt>
      <trkpt lat="44.96995" lon="6.11405">
        <ele>1424.4</ele>
        <time>2024-08-14T12:26:01Z</time>
      </trkpt>
      <trkpt lat="44.96995" lon="6.11405">
        <ele>1424.2</ele>
        <time>2024-08-14T12:26:02Z</time>
      </trkpt>
      <trkpt lat="44.96995" lon="6.11405">
        <ele>1424.2</ele>
        <time>2024-08-14T12:26:03Z</time>
      </trkpt>
      <trkpt lat="44.96995" lon="6.11405">
        <ele>1424.2</ele>
        <time>2024-08-14T12:26:04Z</time>
      </trkpt>
      <trkpt lat="44.96995" lon="6.11405">
        <ele>1424.2</ele>
        <time>2024-08-14T12:26:05Z</time>
      </trkpt>
      <trkpt lat="44.96995" lon="6.11405">
        <ele>1424.2</ele>
        <time>2024-08-14T12:26:06Z</time>
      </trkpt>
      <trkpt lat="44.96995" lon="6.11405">
        <ele>1423.8</ele>
        <time>2024-08-14T12:26:07Z</time>
      </trkpt>
      <trkpt lat="44.96995" lon="6.11405">
        <ele>1423.6</ele>
        <time>2024-08-14T12:26:08Z</time>
      </trkpt>
      <trkpt lat="44.96995" lon="6.11405">
        <ele>1423.4</ele>
        <time>2024-08-14T12:26:09Z</time>
      </trkpt>
      <trkpt lat="44.96996" lon="6.11408">
        <ele>1423.2</ele>
        <time>2024-08-14T12:26:10Z</time>
      </trkpt>
      <trkpt lat="44.96996" lon="6.11408">
        <ele>1423</ele>
        <time>2024-08-14T12:26:11Z</time>
      </trkpt>
      <trkpt lat="44.96997" lon="6.11411">
        <ele>1422.8</ele>
        <time>2024-08-14T12:26:12Z</time>
      </trkpt>
      <trkpt lat="44.96997" lon="6.11411">
        <ele>1422.4</ele>
        <time>2024-08-14T12:26:13Z</time>
      </trkpt>
      <trkpt lat="44.97" lon="6.11411">
        <ele>1422</ele>
        <time>2024-08-14T12:26:14Z</time>
      </trkpt>
      <trkpt lat="44.97" lon="6.11411">
        <ele>1421.6</ele>
        <time>2024-08-14T12:26:15Z</time>
      </trkpt>
      <trkpt lat="44.97002" lon="6.11411">
        <ele>1421.6</ele>
        <time>2024-08-14T12:26:16Z</time>
      </trkpt>
      <trkpt lat="44.97002" lon="6.11411">
        <ele>1421.2</ele>
        <time>2024-08-14T12:26:17Z</time>
      </trkpt>
      <trkpt lat="44.97002" lon="6.11413">
        <ele>1421</ele>
        <time>2024-08-14T12:26:18Z</time>
      </trkpt>
      <trkpt lat="44.97003" lon="6.11414">
        <ele>1420.8</ele>
        <time>2024-08-14T12:26:19Z</time>
      </trkpt>
      <trkpt lat="44.97004" lon="6.11416">
        <ele>1420.4</ele>
        <time>2024-08-14T12:26:20Z</time>
      </trkpt>
      <trkpt lat="44.97004" lon="6.11419">
        <ele>1420.2</ele>
        <time>2024-08-14T12:26:21Z</time>
      </trkpt>
      <trkpt lat="44.97004" lon="6.11419">
        <ele>1420</ele>
        <time>2024-08-14T12:26:22Z</time>
      </trkpt>
      <trkpt lat="44.97004" lon="6.11419">
        <ele>1419.8</ele>
        <time>2024-08-14T12:26:23Z</time>
      </trkpt>
      <trkpt lat="44.97003" lon="6.11422">
        <ele>1419.8</ele>
        <time>2024-08-14T12:26:24Z</time>
      </trkpt>
      <trkpt lat="44.97003" lon="6.11422">
        <ele>1419.2</ele>
        <time>2024-08-14T12:26:25Z</time>
      </trkpt>
      <trkpt lat="44.97003" lon="6.11422">
        <ele>1418.8</ele>
        <time>2024-08-14T12:26:26Z</time>
      </trkpt>
      <trkpt lat="44.97004" lon="6.11425">
        <ele>1418.6</ele>
        <time>2024-08-14T12:26:27Z</time>
      </trkpt>
      <trkpt lat="44.97004" lon="6.11425">
        <ele>1418.4</ele>
        <time>2024-08-14T12:26:28Z</time>
      </trkpt>
      <trkpt lat="44.97004" lon="6.11425">
        <ele>1418</ele>
        <time>2024-08-14T12:26:29Z</time>
      </trkpt>
      <trkpt lat="44.97004" lon="6.11428">
        <ele>1417.8</ele>
        <time>2024-08-14T12:26:30Z</time>
      </trkpt>
      <trkpt lat="44.97004" lon="6.11428">
        <ele>1417.6</ele>
        <time>2024-08-14T12:26:31Z</time>
      </trkpt>
      <trkpt lat="44.97004" lon="6.11428">
        <ele>1417.4</ele>
        <time>2024-08-14T12:26:32Z</time>
      </trkpt>
      <trkpt lat="44.97002" lon="6.1143">
        <ele>1417</ele>
        <time>2024-08-14T12:26:33Z</time>
      </trkpt>
      <trkpt lat="44.97002" lon="6.1143">
        <ele>1416.6</ele>
        <time>2024-08-14T12:26:34Z</time>
      </trkpt>
      <trkpt lat="44.97001" lon="6.11434">
        <ele>1416.2</ele>
        <time>2024-08-14T12:26:35Z</time>
      </trkpt>
      <trkpt lat="44.97001" lon="6.11434">
        <ele>1416</ele>
        <time>2024-08-14T12:26:36Z</time>
      </trkpt>
      <trkpt lat="44.97001" lon="6.11437">
        <ele>1415.8</ele>
        <time>2024-08-14T12:26:37Z</time>
      </trkpt>
      <trkpt lat="44.97001" lon="6.11437">
        <ele>1415.6</ele>
        <time>2024-08-14T12:26:38Z</time>
      </trkpt>
      <trkpt lat="44.97001" lon="6.1144">
        <ele>1415.4</ele>
        <time>2024-08-14T12:26:39Z</time>
      </trkpt>
      <trkpt lat="44.97001" lon="6.1144">
        <ele>1415</ele>
        <time>2024-08-14T12:26:40Z</time>
      </trkpt>
      <trkpt lat="44.97001" lon="6.1144">
        <ele>1414.6</ele>
        <time>2024-08-14T12:26:41Z</time>
      </trkpt>
      <trkpt lat="44.97003" lon="6.11442">
        <ele>1414.4</ele>
        <time>2024-08-14T12:26:42Z</time>
      </trkpt>
      <trkpt lat="44.97003" lon="6.11442">
        <ele>1414.2</ele>
        <time>2024-08-14T12:26:43Z</time>
      </trkpt>
      <trkpt lat="44.97003" lon="6.11442">
        <ele>1414.2</ele>
        <time>2024-08-14T12:26:44Z</time>
      </trkpt>
      <trkpt lat="44.97005" lon="6.11443">
        <ele>1413.6</ele>
        <time>2024-08-14T12:26:45Z</time>
      </trkpt>
      <trkpt lat="44.97005" lon="6.11443">
        <ele>1413.2</ele>
        <time>2024-08-14T12:26:46Z</time>
      </trkpt>
      <trkpt lat="44.97005" lon="6.11443">
        <ele>1413.2</ele>
        <time>2024-08-14T12:26:47Z</time>
      </trkpt>
      <trkpt lat="44.97008" lon="6.11445">
        <ele>1412.8</ele>
        <time>2024-08-14T12:26:48Z</time>
      </trkpt>
      <trkpt lat="44.97008" lon="6.11445">
        <ele>1412.4</ele>
        <time>2024-08-14T12:26:49Z</time>
      </trkpt>
      <trkpt lat="44.97009" lon="6.11447">
        <ele>1412.4</ele>
        <time>2024-08-14T12:26:50Z</time>
      </trkpt>
      <trkpt lat="44.97009" lon="6.11447">
        <ele>1412.2</ele>
        <time>2024-08-14T12:26:51Z</time>
      </trkpt>
      <trkpt lat="44.97009" lon="6.11447">
        <ele>1412</ele>
        <time>2024-08-14T12:26:52Z</time>
      </trkpt>
      <trkpt lat="44.97009" lon="6.11447">
        <ele>1411.8</ele>
        <time>2024-08-14T12:26:53Z</time>
      </trkpt>
      <trkpt lat="44.97007" lon="6.11449">
        <ele>1411.2</ele>
        <time>2024-08-14T12:26:54Z</time>
      </trkpt>
      <trkpt lat="44.97007" lon="6.11449">
        <ele>1411.2</ele>
        <time>2024-08-14T12:26:55Z</time>
      </trkpt>
      <trkpt lat="44.97007" lon="6.11449">
        <ele>1411</ele>
        <time>2024-08-14T12:26:56Z</time>
      </trkpt>
      <trkpt lat="44.97007" lon="6.11449">
        <ele>1411</ele>
        <time>2024-08-14T12:26:57Z</time>
      </trkpt>
      <trkpt lat="44.97005" lon="6.11451">
        <ele>1411</ele>
        <time>2024-08-14T12:26:58Z</time>
      </trkpt>
      <trkpt lat="44.97005" lon="6.11451">
        <ele>1410.8</ele>
        <time>2024-08-14T12:26:59Z</time>
      </trkpt>
      <trkpt lat="44.97005" lon="6.11451">
        <ele>1410.4</ele>
        <time>2024-08-14T12:27:00Z</time>
      </trkpt>
      <trkpt lat="44.97007" lon="6.11454">
        <ele>1410.2</ele>
        <time>2024-08-14T12:27:01Z</time>
      </trkpt>
      <trkpt lat="44.97007" lon="6.11454">
        <ele>1409.8</ele>
        <time>2024-08-14T12:27:02Z</time>
      </trkpt>
      <trkpt lat="44.97009" lon="6.11455">
        <ele>1409.8</ele>
        <time>2024-08-14T12:27:03Z</time>
      </trkpt>
      <trkpt lat="44.97009" lon="6.11455">
        <ele>1409.4</ele>
        <time>2024-08-14T12:27:04Z</time>
      </trkpt>
      <trkpt lat="44.97009" lon="6.11455">
        <ele>1409.2</ele>
        <time>2024-08-14T12:27:05Z</time>
      </trkpt>
      <trkpt lat="44.97009" lon="6.11455">
        <ele>1408.8</ele>
        <time>2024-08-14T12:27:06Z</time>
      </trkpt>
      <trkpt lat="44.97011" lon="6.11456">
        <ele>1408.6</ele>
        <time>2024-08-14T12:27:07Z</time>
      </trkpt>
      <trkpt lat="44.97011" lon="6.11456">
        <ele>1408.4</ele>
        <time>2024-08-14T12:27:08Z</time>
      </trkpt>
      <trkpt lat="44.97011" lon="6.11456">
        <ele>1408</ele>
        <time>2024-08-14T12:27:09Z</time>
      </trkpt>
      <trkpt lat="44.97012" lon="6.11458">
        <ele>1407.8</ele>
        <time>2024-08-14T12:27:10Z</time>
      </trkpt>
      <trkpt lat="44.97012" lon="6.11458">
        <ele>1407.6</ele>
        <time>2024-08-14T12:27:11Z</time>
      </trkpt>
      <trkpt lat="44.97012" lon="6.11458">
        <ele>1407.4</ele>
        <time>2024-08-14T12:27:12Z</time>
      </trkpt>
      <trkpt lat="44.97012" lon="6.11458">
        <ele>1407.2</ele>
        <time>2024-08-14T12:27:13Z</time>
      </trkpt>
      <trkpt lat="44.97012" lon="6.11458">
        <ele>1406.8</ele>
        <time>2024-08-14T12:27:14Z</time>
      </trkpt>
      <trkpt lat="44.97011" lon="6.1146">
        <ele>1406.6</ele>
        <time>2024-08-14T12:27:15Z</time>
      </trkpt>
      <trkpt lat="44.97011" lon="6.1146">
        <ele>1406.6</ele>
        <time>2024-08-14T12:27:16Z</time>
      </trkpt>
      <trkpt lat="44.97011" lon="6.11463">
        <ele>1406.6</ele>
        <time>2024-08-14T12:27:17Z</time>
      </trkpt>
      <trkpt lat="44.97011" lon="6.11463">
        <ele>1406.2</ele>
        <time>2024-08-14T12:27:18Z</time>
      </trkpt>
      <trkpt lat="44.97011" lon="6.11463">
        <ele>1406.2</ele>
        <time>2024-08-14T12:27:19Z</time>
      </trkpt>
      <trkpt lat="44.97011" lon="6.11463">
        <ele>1405.8</ele>
        <time>2024-08-14T12:27:20Z</time>
      </trkpt>
      <trkpt lat="44.97011" lon="6.11463">
        <ele>1405.6</ele>
        <time>2024-08-14T12:27:21Z</time>
      </trkpt>
      <trkpt lat="44.97011" lon="6.11463">
        <ele>1405.4</ele>
        <time>2024-08-14T12:27:22Z</time>
      </trkpt>
      <trkpt lat="44.97011" lon="6.11463">
        <ele>1405.4</ele>
        <time>2024-08-14T12:27:23Z</time>
      </trkpt>
      <trkpt lat="44.97011" lon="6.11463">
        <ele>1405</ele>
        <time>2024-08-14T12:27:24Z</time>
      </trkpt>
      <trkpt lat="44.97011" lon="6.11463">
        <ele>1405</ele>
        <time>2024-08-14T12:27:25Z</time>
      </trkpt>
      <trkpt lat="44.97011" lon="6.11463">
        <ele>1404.6</ele>
        <time>2024-08-14T12:27:26Z</time>
      </trkpt>
      <trkpt lat="44.97011" lon="6.11467">
        <ele>1404.4</ele>
        <time>2024-08-14T12:27:27Z</time>
      </trkpt>
      <trkpt lat="44.97011" lon="6.11467">
        <ele>1404</ele>
        <time>2024-08-14T12:27:28Z</time>
      </trkpt>
      <trkpt lat="44.97013" lon="6.1147">
        <ele>1404</ele>
        <time>2024-08-14T12:27:29Z</time>
      </trkpt>
      <trkpt lat="44.97013" lon="6.1147">
        <ele>1403.8</ele>
        <time>2024-08-14T12:27:30Z</time>
      </trkpt>
      <trkpt lat="44.97016" lon="6.11471">
        <ele>1403.2</ele>
        <time>2024-08-14T12:27:31Z</time>
      </trkpt>
      <trkpt lat="44.97016" lon="6.11471">
        <ele>1403</ele>
        <time>2024-08-14T12:27:32Z</time>
      </trkpt>
      <trkpt lat="44.97018" lon="6.11472">
        <ele>1402.8</ele>
        <time>2024-08-14T12:27:33Z</time>
      </trkpt>
      <trkpt lat="44.97018" lon="6.11472">
        <ele>1402.6</ele>
        <time>2024-08-14T12:27:34Z</time>
      </trkpt>
      <trkpt lat="44.97021" lon="6.11472">
        <ele>1402.4</ele>
        <time>2024-08-14T12:27:35Z</time>
      </trkpt>
      <trkpt lat="44.97021" lon="6.11472">
        <ele>1402.2</ele>
        <time>2024-08-14T12:27:36Z</time>
      </trkpt>
      <trkpt lat="44.97021" lon="6.11472">
        <ele>1402.2</ele>
        <time>2024-08-14T12:27:37Z</time>
      </trkpt>
      <trkpt lat="44.97022" lon="6.11474">
        <ele>1402</ele>
        <time>2024-08-14T12:27:38Z</time>
      </trkpt>
      <trkpt lat="44.97022" lon="6.11474">
        <ele>1401.6</ele>
        <time>2024-08-14T12:27:39Z</time>
      </trkpt>
      <trkpt lat="44.97022" lon="6.11474">
        <ele>1401.4</ele>
        <time>2024-08-14T12:27:40Z</time>
      </trkpt>
      <trkpt lat="44.97022" lon="6.11474">
        <ele>1401.2</ele>
        <time>2024-08-14T12:27:41Z</time>
      </trkpt>
      <trkpt lat="44.97022" lon="6.11474">
        <ele>1401.2</ele>
        <time>2024-08-14T12:27:42Z</time>
      </trkpt>
      <trkpt lat="44.97025" lon="6.11475">
        <ele>1400.8</ele>
        <time>2024-08-14T12:27:43Z</time>
      </trkpt>
      <trkpt lat="44.97025" lon="6.11475">
        <ele>1400.6</ele>
        <time>2024-08-14T12:27:44Z</time>
      </trkpt>
      <trkpt lat="44.97027" lon="6.11474">
        <ele>1400.4</ele>
        <time>2024-08-14T12:27:45Z</time>
      </trkpt>
      <trkpt lat="44.97027" lon="6.11474">
        <ele>1400.2</ele>
        <time>2024-08-14T12:27:46Z</time>
      </trkpt>
      <trkpt lat="44.97027" lon="6.11474">
        <ele>1400</ele>
        <time>2024-08-14T12:27:47Z</time>
      </trkpt>
      <trkpt lat="44.97029" lon="6.11474">
        <ele>1399.8</ele>
        <time>2024-08-14T12:27:48Z</time>
      </trkpt>
      <trkpt lat="44.97029" lon="6.11474">
        <ele>1399.6</ele>
        <time>2024-08-14T12:27:49Z</time>
      </trkpt>
      <trkpt lat="44.97029" lon="6.11474">
        <ele>1399.4</ele>
        <time>2024-08-14T12:27:50Z</time>
      </trkpt>
      <trkpt lat="44.97029" lon="6.11474">
        <ele>1399</ele>
        <time>2024-08-14T12:27:51Z</time>
      </trkpt>
      <trkpt lat="44.97028" lon="6.11477">
        <ele>1398.8</ele>
        <time>2024-08-14T12:27:52Z</time>
      </trkpt>
      <trkpt lat="44.97028" lon="6.11477">
        <ele>1398.6</ele>
        <time>2024-08-14T12:27:53Z</time>
      </trkpt>
      <trkpt lat="44.97028" lon="6.11477">
        <ele>1398.6</ele>
        <time>2024-08-14T12:27:54Z</time>
      </trkpt>
      <trkpt lat="44.97026" lon="6.11478">
        <ele>1398.6</ele>
        <time>2024-08-14T12:27:55Z</time>
      </trkpt>
      <trkpt lat="44.97026" lon="6.11478">
        <ele>1398.2</ele>
        <time>2024-08-14T12:27:56Z</time>
      </trkpt>
      <trkpt lat="44.97026" lon="6.11478">
        <ele>1398</ele>
        <time>2024-08-14T12:27:57Z</time>
      </trkpt>
      <trkpt lat="44.97026" lon="6.11478">
        <ele>1398</ele>
        <time>2024-08-14T12:27:58Z</time>
      </trkpt>
      <trkpt lat="44.97026" lon="6.11478">
        <ele>1397.6</ele>
        <time>2024-08-14T12:27:59Z</time>
      </trkpt>
      <trkpt lat="44.97026" lon="6.11478">
        <ele>1397.6</ele>
        <time>2024-08-14T12:28:00Z</time>
      </trkpt>
      <trkpt lat="44.97027" lon="6.11481">
        <ele>1397.6</ele>
        <time>2024-08-14T12:28:01Z</time>
      </trkpt>
      <trkpt lat="44.97027" lon="6.11481">
        <ele>1397.2</ele>
        <time>2024-08-14T12:28:02Z</time>
      </trkpt>
      <trkpt lat="44.97029" lon="6.11482">
        <ele>1397</ele>
        <time>2024-08-14T12:28:03Z</time>
      </trkpt>
      <trkpt lat="44.97029" lon="6.11482">
        <ele>1396.8</ele>
        <time>2024-08-14T12:28:04Z</time>
      </trkpt>
      <trkpt lat="44.97033" lon="6.11482">
        <ele>1396.4</ele>
        <time>2024-08-14T12:28:05Z</time>
      </trkpt>
      <trkpt lat="44.97033" lon="6.11482">
        <ele>1396.2</ele>
        <time>2024-08-14T12:28:06Z</time>
      </trkpt>
      <trkpt lat="44.97036" lon="6.11482">
        <ele>1396.2</ele>
        <time>2024-08-14T12:28:07Z</time>
      </trkpt>
      <trkpt lat="44.97036" lon="6.11482">
        <ele>1396</ele>
        <time>2024-08-14T12:28:08Z</time>
      </trkpt>
      <trkpt lat="44.97037" lon="6.11482">
        <ele>1395.4</ele>
        <time>2024-08-14T12:28:09Z</time>
      </trkpt>
      <trkpt lat="44.97037" lon="6.11482">
        <ele>1395.4</ele>
        <time>2024-08-14T12:28:10Z</time>
      </trkpt>
      <trkpt lat="44.9704" lon="6.11483">
        <ele>1395.2</ele>
        <time>2024-08-14T12:28:11Z</time>
      </trkpt>
      <trkpt lat="44.9704" lon="6.11483">
        <ele>1395.2</ele>
        <time>2024-08-14T12:28:12Z</time>
      </trkpt>
      <trkpt lat="44.97043" lon="6.11483">
        <ele>1395</ele>
        <time>2024-08-14T12:28:13Z</time>
      </trkpt>
      <trkpt lat="44.97043" lon="6.11483">
        <ele>1394.8</ele>
        <time>2024-08-14T12:28:14Z</time>
      </trkpt>
      <trkpt lat="44.97045" lon="6.11483">
        <ele>1394.8</ele>
        <time>2024-08-14T12:28:15Z</time>
      </trkpt>
      <trkpt lat="44.97045" lon="6.11483">
        <ele>1394.6</ele>
        <time>2024-08-14T12:28:16Z</time>
      </trkpt>
      <trkpt lat="44.97047" lon="6.11483">
        <ele>1394.2</ele>
        <time>2024-08-14T12:28:17Z</time>
      </trkpt>
      <trkpt lat="44.97047" lon="6.11483">
        <ele>1394</ele>
        <time>2024-08-14T12:28:18Z</time>
      </trkpt>
      <trkpt lat="44.97049" lon="6.11484">
        <ele>1394</ele>
        <time>2024-08-14T12:28:19Z</time>
      </trkpt>
      <trkpt lat="44.97049" lon="6.11484">
        <ele>1393.6</ele>
        <time>2024-08-14T12:28:20Z</time>
      </trkpt>
      <trkpt lat="44.97051" lon="6.11487">
        <ele>1393.6</ele>
        <time>2024-08-14T12:28:21Z</time>
      </trkpt>
      <trkpt lat="44.97053" lon="6.11488">
        <ele>1393.4</ele>
        <time>2024-08-14T12:28:22Z</time>
      </trkpt>
      <trkpt lat="44.97053" lon="6.11488">
        <ele>1393.4</ele>
        <time>2024-08-14T12:28:23Z</time>
      </trkpt>
      <trkpt lat="44.97054" lon="6.1149">
        <ele>1393.2</ele>
        <time>2024-08-14T12:28:24Z</time>
      </trkpt>
      <trkpt lat="44.97054" lon="6.1149">
        <ele>1393.2</ele>
        <time>2024-08-14T12:28:25Z</time>
      </trkpt>
      <trkpt lat="44.97056" lon="6.11491">
        <ele>1393.2</ele>
        <time>2024-08-14T12:28:26Z</time>
      </trkpt>
      <trkpt lat="44.97056" lon="6.11491">
        <ele>1393.2</ele>
        <time>2024-08-14T12:28:27Z</time>
      </trkpt>
      <trkpt lat="44.97058" lon="6.11492">
        <ele>1392.8</ele>
        <time>2024-08-14T12:28:28Z</time>
      </trkpt>
      <trkpt lat="44.97058" lon="6.11492">
        <ele>1392.8</ele>
        <time>2024-08-14T12:28:29Z</time>
      </trkpt>
      <trkpt lat="44.9706" lon="6.11494">
        <ele>1392.6</ele>
        <time>2024-08-14T12:28:30Z</time>
      </trkpt>
      <trkpt lat="44.9706" lon="6.11494">
        <ele>1392.4</ele>
        <time>2024-08-14T12:28:31Z</time>
      </trkpt>
      <trkpt lat="44.97063" lon="6.11495">
        <ele>1392.4</ele>
        <time>2024-08-14T12:28:32Z</time>
      </trkpt>
      <trkpt lat="44.97063" lon="6.11495">
        <ele>1392.2</ele>
        <time>2024-08-14T12:28:33Z</time>
      </trkpt>
      <trkpt lat="44.97065" lon="6.11495">
        <ele>1392</ele>
        <time>2024-08-14T12:28:34Z</time>
      </trkpt>
      <trkpt lat="44.97065" lon="6.11495">
        <ele>1391.8</ele>
        <time>2024-08-14T12:28:35Z</time>
      </trkpt>
      <trkpt lat="44.97065" lon="6.11495">
        <ele>1391.2</ele>
        <time>2024-08-14T12:28:36Z</time>
      </trkpt>
      <trkpt lat="44.97068" lon="6.11496">
        <ele>1390.8</ele>
        <time>2024-08-14T12:28:37Z</time>
      </trkpt>
      <trkpt lat="44.97068" lon="6.11496">
        <ele>1390.8</ele>
        <time>2024-08-14T12:28:38Z</time>
      </trkpt>
      <trkpt lat="44.9707" lon="6.11496">
        <ele>1390.6</ele>
        <time>2024-08-14T12:28:39Z</time>
      </trkpt>
      <trkpt lat="44.9707" lon="6.11496">
        <ele>1390.2</ele>
        <time>2024-08-14T12:28:40Z</time>
      </trkpt>
      <trkpt lat="44.97073" lon="6.11497">
        <ele>1390.2</ele>
        <time>2024-08-14T12:28:41Z</time>
      </trkpt>
      <trkpt lat="44.97073" lon="6.11497">
        <ele>1390</ele>
        <time>2024-08-14T12:28:42Z</time>
      </trkpt>
      <trkpt lat="44.97075" lon="6.11497">
        <ele>1389.6</ele>
        <time>2024-08-14T12:28:43Z</time>
      </trkpt>
      <trkpt lat="44.97075" lon="6.11497">
        <ele>1389.6</ele>
        <time>2024-08-14T12:28:44Z</time>
      </trkpt>
      <trkpt lat="44.97075" lon="6.11497">
        <ele>1389.4</ele>
        <time>2024-08-14T12:28:45Z</time>
      </trkpt>
      <trkpt lat="44.97077" lon="6.11498">
        <ele>1389</ele>
        <time>2024-08-14T12:28:46Z</time>
      </trkpt>
      <trkpt lat="44.97077" lon="6.11498">
        <ele>1389</ele>
        <time>2024-08-14T12:28:47Z</time>
      </trkpt>
      <trkpt lat="44.97077" lon="6.11498">
        <ele>1388.4</ele>
        <time>2024-08-14T12:28:48Z</time>
      </trkpt>
      <trkpt lat="44.97077" lon="6.11498">
        <ele>1388</ele>
        <time>2024-08-14T12:28:49Z</time>
      </trkpt>
      <trkpt lat="44.97077" lon="6.11498">
        <ele>1388</ele>
        <time>2024-08-14T12:28:50Z</time>
      </trkpt>
      <trkpt lat="44.97077" lon="6.11498">
        <ele>1387.8</ele>
        <time>2024-08-14T12:28:51Z</time>
      </trkpt>
      <trkpt lat="44.97078" lon="6.11501">
        <ele>1387.4</ele>
        <time>2024-08-14T12:28:52Z</time>
      </trkpt>
      <trkpt lat="44.97078" lon="6.11501">
        <ele>1387.4</ele>
        <time>2024-08-14T12:28:53Z</time>
      </trkpt>
      <trkpt lat="44.9708" lon="6.11503">
        <ele>1387.2</ele>
        <time>2024-08-14T12:28:54Z</time>
      </trkpt>
      <trkpt lat="44.9708" lon="6.11503">
        <ele>1387</ele>
        <time>2024-08-14T12:28:55Z</time>
      </trkpt>
      <trkpt lat="44.97082" lon="6.11504">
        <ele>1386.8</ele>
        <time>2024-08-14T12:28:56Z</time>
      </trkpt>
      <trkpt lat="44.97082" lon="6.11504">
        <ele>1386.6</ele>
        <time>2024-08-14T12:28:57Z</time>
      </trkpt>
      <trkpt lat="44.97082" lon="6.11504">
        <ele>1386.6</ele>
        <time>2024-08-14T12:28:58Z</time>
      </trkpt>
      <trkpt lat="44.97082" lon="6.11504">
        <ele>1386</ele>
        <time>2024-08-14T12:28:59Z</time>
      </trkpt>
      <trkpt lat="44.97085" lon="6.11504">
        <ele>1385.8</ele>
        <time>2024-08-14T12:29:00Z</time>
      </trkpt>
      <trkpt lat="44.97085" lon="6.11504">
        <ele>1385.6</ele>
        <time>2024-08-14T12:29:01Z</time>
      </trkpt>
      <trkpt lat="44.97087" lon="6.11506">
        <ele>1385.2</ele>
        <time>2024-08-14T12:29:02Z</time>
      </trkpt>
      <trkpt lat="44.97087" lon="6.11506">
        <ele>1385</ele>
        <time>2024-08-14T12:29:03Z</time>
      </trkpt>
      <trkpt lat="44.97087" lon="6.11506">
        <ele>1384.8</ele>
        <time>2024-08-14T12:29:04Z</time>
      </trkpt>
      <trkpt lat="44.97089" lon="6.11507">
        <ele>1384.6</ele>
        <time>2024-08-14T12:29:05Z</time>
      </trkpt>
      <trkpt lat="44.9709" lon="6.11508">
        <ele>1384.2</ele>
        <time>2024-08-14T12:29:06Z</time>
      </trkpt>
      <trkpt lat="44.9709" lon="6.11508">
        <ele>1384</ele>
        <time>2024-08-14T12:29:07Z</time>
      </trkpt>
      <trkpt lat="44.9709" lon="6.11508">
        <ele>1383.8</ele>
        <time>2024-08-14T12:29:08Z</time>
      </trkpt>
      <trkpt lat="44.97091" lon="6.11511">
        <ele>1383.6</ele>
        <time>2024-08-14T12:29:09Z</time>
      </trkpt>
      <trkpt lat="44.97091" lon="6.11511">
        <ele>1383.2</ele>
        <time>2024-08-14T12:29:10Z</time>
      </trkpt>
      <trkpt lat="44.97093" lon="6.11511">
        <ele>1383</ele>
        <time>2024-08-14T12:29:11Z</time>
      </trkpt>
      <trkpt lat="44.97093" lon="6.11511">
        <ele>1383</ele>
        <time>2024-08-14T12:29:12Z</time>
      </trkpt>
      <trkpt lat="44.97096" lon="6.11512">
        <ele>1382.6</ele>
        <time>2024-08-14T12:29:13Z</time>
      </trkpt>
      <trkpt lat="44.97096" lon="6.11512">
        <ele>1382</ele>
        <time>2024-08-14T12:29:14Z</time>
      </trkpt>
      <trkpt lat="44.97098" lon="6.11512">
        <ele>1381.8</ele>
        <time>2024-08-14T12:29:15Z</time>
      </trkpt>
      <trkpt lat="44.97098" lon="6.11512">
        <ele>1381.6</ele>
        <time>2024-08-14T12:29:16Z</time>
      </trkpt>
      <trkpt lat="44.97098" lon="6.11512">
        <ele>1381.6</ele>
        <time>2024-08-14T12:29:17Z</time>
      </trkpt>
      <trkpt lat="44.97098" lon="6.11512">
        <ele>1381.2</ele>
        <time>2024-08-14T12:29:18Z</time>
      </trkpt>
      <trkpt lat="44.97098" lon="6.11512">
        <ele>1380.8</ele>
        <time>2024-08-14T12:29:19Z</time>
      </trkpt>
      <trkpt lat="44.97098" lon="6.11512">
        <ele>1380.8</ele>
        <time>2024-08-14T12:29:20Z</time>
      </trkpt>
      <trkpt lat="44.97098" lon="6.11512">
        <ele>1380.8</ele>
        <time>2024-08-14T12:29:21Z</time>
      </trkpt>
      <trkpt lat="44.97098" lon="6.11518">
        <ele>1380.4</ele>
        <time>2024-08-14T12:29:22Z</time>
      </trkpt>
      <trkpt lat="44.97097" lon="6.11521">
        <ele>1380</ele>
        <time>2024-08-14T12:29:23Z</time>
      </trkpt>
      <trkpt lat="44.97097" lon="6.11521">
        <ele>1380</ele>
        <time>2024-08-14T12:29:24Z</time>
      </trkpt>
      <trkpt lat="44.97097" lon="6.11524">
        <ele>1379.8</ele>
        <time>2024-08-14T12:29:25Z</time>
      </trkpt>
      <trkpt lat="44.97097" lon="6.11524">
        <ele>1379.6</ele>
        <time>2024-08-14T12:29:26Z</time>
      </trkpt>
      <trkpt lat="44.97097" lon="6.11524">
        <ele>1379.4</ele>
        <time>2024-08-14T12:29:27Z</time>
      </trkpt>
      <trkpt lat="44.97094" lon="6.11526">
        <ele>1379.4</ele>
        <time>2024-08-14T12:29:28Z</time>
      </trkpt>
      <trkpt lat="44.97093" lon="6.11528">
        <ele>1379.4</ele>
        <time>2024-08-14T12:29:29Z</time>
      </trkpt>
      <trkpt lat="44.97093" lon="6.11528">
        <ele>1379</ele>
        <time>2024-08-14T12:29:30Z</time>
      </trkpt>
      <trkpt lat="44.97093" lon="6.11531">
        <ele>1378.6</ele>
        <time>2024-08-14T12:29:31Z</time>
      </trkpt>
      <trkpt lat="44.97093" lon="6.11531">
        <ele>1378.2</ele>
        <time>2024-08-14T12:29:32Z</time>
      </trkpt>
      <trkpt lat="44.97093" lon="6.11531">
        <ele>1378</ele>
        <time>2024-08-14T12:29:33Z</time>
      </trkpt>
      <trkpt lat="44.97093" lon="6.11531">
        <ele>1378</ele>
        <time>2024-08-14T12:29:34Z</time>
      </trkpt>
      <trkpt lat="44.97095" lon="6.11531">
        <ele>1377.8</ele>
        <time>2024-08-14T12:29:35Z</time>
      </trkpt>
      <trkpt lat="44.97095" lon="6.11531">
        <ele>1377.4</ele>
        <time>2024-08-14T12:29:36Z</time>
      </trkpt>
      <trkpt lat="44.97095" lon="6.11531">
        <ele>1377.2</ele>
        <time>2024-08-14T12:29:37Z</time>
      </trkpt>
      <trkpt lat="44.97095" lon="6.11531">
        <ele>1376.8</ele>
        <time>2024-08-14T12:29:38Z</time>
      </trkpt>
      <trkpt lat="44.97098" lon="6.11532">
        <ele>1376.4</ele>
        <time>2024-08-14T12:29:39Z</time>
      </trkpt>
      <trkpt lat="44.97099" lon="6.11532">
        <ele>1376.2</ele>
        <time>2024-08-14T12:29:40Z</time>
      </trkpt>
      <trkpt lat="44.97099" lon="6.11532">
        <ele>1376</ele>
        <time>2024-08-14T12:29:41Z</time>
      </trkpt>
      <trkpt lat="44.97101" lon="6.11533">
        <ele>1375.8</ele>
        <time>2024-08-14T12:29:42Z</time>
      </trkpt>
      <trkpt lat="44.97101" lon="6.11533">
        <ele>1375.4</ele>
        <time>2024-08-14T12:29:43Z</time>
      </trkpt>
      <trkpt lat="44.97101" lon="6.11533">
        <ele>1375</ele>
        <time>2024-08-14T12:29:44Z</time>
      </trkpt>
      <trkpt lat="44.97103" lon="6.1153">
        <ele>1374.8</ele>
        <time>2024-08-14T12:29:45Z</time>
      </trkpt>
      <trkpt lat="44.97103" lon="6.1153">
        <ele>1374.4</ele>
        <time>2024-08-14T12:29:46Z</time>
      </trkpt>
      <trkpt lat="44.97103" lon="6.1153">
        <ele>1374.4</ele>
        <time>2024-08-14T12:29:47Z</time>
      </trkpt>
      <trkpt lat="44.97105" lon="6.1153">
        <ele>1374</ele>
        <time>2024-08-14T12:29:48Z</time>
      </trkpt>
      <trkpt lat="44.97105" lon="6.1153">
        <ele>1373.6</ele>
        <time>2024-08-14T12:29:49Z</time>
      </trkpt>
      <trkpt lat="44.97108" lon="6.1153">
        <ele>1373.4</ele>
        <time>2024-08-14T12:29:50Z</time>
      </trkpt>
      <trkpt lat="44.9711" lon="6.1153">
        <ele>1373</ele>
        <time>2024-08-14T12:29:51Z</time>
      </trkpt>
      <trkpt lat="44.9711" lon="6.1153">
        <ele>1372.8</ele>
        <time>2024-08-14T12:29:52Z</time>
      </trkpt>
      <trkpt lat="44.97112" lon="6.11532">
        <ele>1372.2</ele>
        <time>2024-08-14T12:29:53Z</time>
      </trkpt>
      <trkpt lat="44.97112" lon="6.11532">
        <ele>1372</ele>
        <time>2024-08-14T12:29:54Z</time>
      </trkpt>
      <trkpt lat="44.97113" lon="6.11535">
        <ele>1372</ele>
        <time>2024-08-14T12:29:55Z</time>
      </trkpt>
      <trkpt lat="44.97113" lon="6.11535">
        <ele>1371.8</ele>
        <time>2024-08-14T12:29:56Z</time>
      </trkpt>
      <trkpt lat="44.97114" lon="6.1154">
        <ele>1371.4</ele>
        <time>2024-08-14T12:29:57Z</time>
      </trkpt>
      <trkpt lat="44.97114" lon="6.1154">
        <ele>1371.4</ele>
        <time>2024-08-14T12:29:58Z</time>
      </trkpt>
      <trkpt lat="44.97114" lon="6.1154">
        <ele>1371</ele>
        <time>2024-08-14T12:29:59Z</time>
      </trkpt>
      <trkpt lat="44.97114" lon="6.11544">
        <ele>1370.6</ele>
        <time>2024-08-14T12:30:00Z</time>
      </trkpt>
      <trkpt lat="44.97114" lon="6.11544">
        <ele>1370.4</ele>
        <time>2024-08-14T12:30:01Z</time>
      </trkpt>
      <trkpt lat="44.97114" lon="6.11547">
        <ele>1369.4</ele>
        <time>2024-08-14T12:30:02Z</time>
      </trkpt>
      <trkpt lat="44.97114" lon="6.11547">
        <ele>1369.4</ele>
        <time>2024-08-14T12:30:03Z</time>
      </trkpt>
      <trkpt lat="44.97111" lon="6.11548">
        <ele>1369.2</ele>
        <time>2024-08-14T12:30:04Z</time>
      </trkpt>
      <trkpt lat="44.97111" lon="6.11548">
        <ele>1369</ele>
        <time>2024-08-14T12:30:05Z</time>
      </trkpt>
      <trkpt lat="44.97111" lon="6.11548">
        <ele>1368.6</ele>
        <time>2024-08-14T12:30:06Z</time>
      </trkpt>
      <trkpt lat="44.97111" lon="6.11548">
        <ele>1368.2</ele>
        <time>2024-08-14T12:30:07Z</time>
      </trkpt>
      <trkpt lat="44.9711" lon="6.11551">
        <ele>1368.2</ele>
        <time>2024-08-14T12:30:08Z</time>
      </trkpt>
      <trkpt lat="44.9711" lon="6.11551">
        <ele>1367.8</ele>
        <time>2024-08-14T12:30:09Z</time>
      </trkpt>
      <trkpt lat="44.9711" lon="6.11551">
        <ele>1367.8</ele>
        <time>2024-08-14T12:30:10Z</time>
      </trkpt>
      <trkpt lat="44.9711" lon="6.11551">
        <ele>1367.6</ele>
        <time>2024-08-14T12:30:11Z</time>
      </trkpt>
      <trkpt lat="44.9711" lon="6.11551">
        <ele>1367.6</ele>
        <time>2024-08-14T12:30:12Z</time>
      </trkpt>
      <trkpt lat="44.9711" lon="6.11551">
        <ele>1366.8</ele>
        <time>2024-08-14T12:30:13Z</time>
      </trkpt>
      <trkpt lat="44.97113" lon="6.11552">
        <ele>1366.2</ele>
        <time>2024-08-14T12:30:14Z</time>
      </trkpt>
      <trkpt lat="44.97113" lon="6.11552">
        <ele>1366</ele>
        <time>2024-08-14T12:30:15Z</time>
      </trkpt>
      <trkpt lat="44.97115" lon="6.11553">
        <ele>1365.8</ele>
        <time>2024-08-14T12:30:16Z</time>
      </trkpt>
      <trkpt lat="44.97115" lon="6.11553">
        <ele>1365.6</ele>
        <time>2024-08-14T12:30:17Z</time>
      </trkpt>
      <trkpt lat="44.97117" lon="6.11553">
        <ele>1365.4</ele>
        <time>2024-08-14T12:30:18Z</time>
      </trkpt>
      <trkpt lat="44.97117" lon="6.11553">
        <ele>1365</ele>
        <time>2024-08-14T12:30:19Z</time>
      </trkpt>
      <trkpt lat="44.97117" lon="6.11553">
        <ele>1364.4</ele>
        <time>2024-08-14T12:30:20Z</time>
      </trkpt>
      <trkpt lat="44.97117" lon="6.11553">
        <ele>1364</ele>
        <time>2024-08-14T12:30:21Z</time>
      </trkpt>
      <trkpt lat="44.97117" lon="6.11553">
        <ele>1363.8</ele>
        <time>2024-08-14T12:30:22Z</time>
      </trkpt>
      <trkpt lat="44.97117" lon="6.11553">
        <ele>1363.6</ele>
        <time>2024-08-14T12:30:23Z</time>
      </trkpt>
      <trkpt lat="44.97117" lon="6.11553">
        <ele>1363.4</ele>
        <time>2024-08-14T12:30:24Z</time>
      </trkpt>
      <trkpt lat="44.9712" lon="6.11553">
        <ele>1363.2</ele>
        <time>2024-08-14T12:30:25Z</time>
      </trkpt>
      <trkpt lat="44.9712" lon="6.11553">
        <ele>1363</ele>
        <time>2024-08-14T12:30:26Z</time>
      </trkpt>
      <trkpt lat="44.97122" lon="6.11555">
        <ele>1362.6</ele>
        <time>2024-08-14T12:30:27Z</time>
      </trkpt>
      <trkpt lat="44.97123" lon="6.11558">
        <ele>1362.6</ele>
        <time>2024-08-14T12:30:28Z</time>
      </trkpt>
      <trkpt lat="44.97122" lon="6.1156">
        <ele>1362.4</ele>
        <time>2024-08-14T12:30:29Z</time>
      </trkpt>
      <trkpt lat="44.97122" lon="6.1156">
        <ele>1362.2</ele>
        <time>2024-08-14T12:30:30Z</time>
      </trkpt>
      <trkpt lat="44.97122" lon="6.1156">
        <ele>1361.8</ele>
        <time>2024-08-14T12:30:31Z</time>
      </trkpt>
      <trkpt lat="44.97122" lon="6.1156">
        <ele>1361.6</ele>
        <time>2024-08-14T12:30:32Z</time>
      </trkpt>
      <trkpt lat="44.97122" lon="6.1156">
        <ele>1361.2</ele>
        <time>2024-08-14T12:30:33Z</time>
      </trkpt>
      <trkpt lat="44.97122" lon="6.11563">
        <ele>1360.8</ele>
        <time>2024-08-14T12:30:34Z</time>
      </trkpt>
      <trkpt lat="44.97122" lon="6.11563">
        <ele>1360.4</ele>
        <time>2024-08-14T12:30:35Z</time>
      </trkpt>
      <trkpt lat="44.97122" lon="6.11563">
        <ele>1360.2</ele>
        <time>2024-08-14T12:30:36Z</time>
      </trkpt>
      <trkpt lat="44.97122" lon="6.11563">
        <ele>1360</ele>
        <time>2024-08-14T12:30:37Z</time>
      </trkpt>
      <trkpt lat="44.97124" lon="6.11565">
        <ele>1359.4</ele>
        <time>2024-08-14T12:30:38Z</time>
      </trkpt>
      <trkpt lat="44.97124" lon="6.11565">
        <ele>1359</ele>
        <time>2024-08-14T12:30:39Z</time>
      </trkpt>
      <trkpt lat="44.97124" lon="6.11565">
        <ele>1358.6</ele>
        <time>2024-08-14T12:30:40Z</time>
      </trkpt>
      <trkpt lat="44.97124" lon="6.11565">
        <ele>1358.2</ele>
        <time>2024-08-14T12:30:41Z</time>
      </trkpt>
      <trkpt lat="44.97126" lon="6.11569">
        <ele>1358</ele>
        <time>2024-08-14T12:30:42Z</time>
      </trkpt>
      <trkpt lat="44.97126" lon="6.11569">
        <ele>1357.4</ele>
        <time>2024-08-14T12:30:43Z</time>
      </trkpt>
      <trkpt lat="44.97127" lon="6.11572">
        <ele>1356.8</ele>
        <time>2024-08-14T12:30:44Z</time>
      </trkpt>
      <trkpt lat="44.97127" lon="6.11572">
        <ele>1356.2</ele>
        <time>2024-08-14T12:30:45Z</time>
      </trkpt>
      <trkpt lat="44.97129" lon="6.11574">
        <ele>1356</ele>
        <time>2024-08-14T12:30:46Z</time>
      </trkpt>
      <trkpt lat="44.9713" lon="6.11576">
        <ele>1355.6</ele>
        <time>2024-08-14T12:30:47Z</time>
      </trkpt>
      <trkpt lat="44.9713" lon="6.11576">
        <ele>1355.2</ele>
        <time>2024-08-14T12:30:48Z</time>
      </trkpt>
      <trkpt lat="44.9713" lon="6.11576">
        <ele>1354.6</ele>
        <time>2024-08-14T12:30:49Z</time>
      </trkpt>
      <trkpt lat="44.97132" lon="6.11578">
        <ele>1354.4</ele>
        <time>2024-08-14T12:30:50Z</time>
      </trkpt>
      <trkpt lat="44.97132" lon="6.11578">
        <ele>1354.2</ele>
        <time>2024-08-14T12:30:51Z</time>
      </trkpt>
      <trkpt lat="44.97134" lon="6.11581">
        <ele>1353.6</ele>
        <time>2024-08-14T12:30:52Z</time>
      </trkpt>
      <trkpt lat="44.97134" lon="6.11581">
        <ele>1353.6</ele>
        <time>2024-08-14T12:30:53Z</time>
      </trkpt>
      <trkpt lat="44.97136" lon="6.11583">
        <ele>1353.2</ele>
        <time>2024-08-14T12:30:54Z</time>
      </trkpt>
      <trkpt lat="44.97136" lon="6.11583">
        <ele>1352.8</ele>
        <time>2024-08-14T12:30:55Z</time>
      </trkpt>
      <trkpt lat="44.97138" lon="6.11585">
        <ele>1352.6</ele>
        <time>2024-08-14T12:30:56Z</time>
      </trkpt>
      <trkpt lat="44.97138" lon="6.11585">
        <ele>1352.4</ele>
        <time>2024-08-14T12:30:57Z</time>
      </trkpt>
      <trkpt lat="44.9714" lon="6.11585">
        <ele>1352.2</ele>
        <time>2024-08-14T12:30:58Z</time>
      </trkpt>
      <trkpt lat="44.9714" lon="6.11585">
        <ele>1352</ele>
        <time>2024-08-14T12:30:59Z</time>
      </trkpt>
      <trkpt lat="44.9714" lon="6.11585">
        <ele>1351.8</ele>
        <time>2024-08-14T12:31:00Z</time>
      </trkpt>
      <trkpt lat="44.97142" lon="6.11586">
        <ele>1351.6</ele>
        <time>2024-08-14T12:31:01Z</time>
      </trkpt>
      <trkpt lat="44.97142" lon="6.11586">
        <ele>1351.2</ele>
        <time>2024-08-14T12:31:02Z</time>
      </trkpt>
      <trkpt lat="44.97142" lon="6.11586">
        <ele>1351</ele>
        <time>2024-08-14T12:31:03Z</time>
      </trkpt>
      <trkpt lat="44.97142" lon="6.11586">
        <ele>1350.6</ele>
        <time>2024-08-14T12:31:04Z</time>
      </trkpt>
      <trkpt lat="44.97145" lon="6.11588">
        <ele>1350.4</ele>
        <time>2024-08-14T12:31:05Z</time>
      </trkpt>
      <trkpt lat="44.97146" lon="6.11589">
        <ele>1350.2</ele>
        <time>2024-08-14T12:31:06Z</time>
      </trkpt>
      <trkpt lat="44.97146" lon="6.11589">
        <ele>1349.8</ele>
        <time>2024-08-14T12:31:07Z</time>
      </trkpt>
      <trkpt lat="44.97146" lon="6.11589">
        <ele>1349.8</ele>
        <time>2024-08-14T12:31:08Z</time>
      </trkpt>
      <trkpt lat="44.97148" lon="6.11591">
        <ele>1349.4</ele>
        <time>2024-08-14T12:31:09Z</time>
      </trkpt>
      <trkpt lat="44.97148" lon="6.11591">
        <ele>1348.8</ele>
        <time>2024-08-14T12:31:10Z</time>
      </trkpt>
      <trkpt lat="44.97148" lon="6.11591">
        <ele>1348.4</ele>
        <time>2024-08-14T12:31:11Z</time>
      </trkpt>
      <trkpt lat="44.97148" lon="6.11591">
        <ele>1348.2</ele>
        <time>2024-08-14T12:31:12Z</time>
      </trkpt>
      <trkpt lat="44.9715" lon="6.11594">
        <ele>1347.8</ele>
        <time>2024-08-14T12:31:13Z</time>
      </trkpt>
      <trkpt lat="44.9715" lon="6.11594">
        <ele>1347.8</ele>
        <time>2024-08-14T12:31:14Z</time>
      </trkpt>
      <trkpt lat="44.97152" lon="6.11596">
        <ele>1347.4</ele>
        <time>2024-08-14T12:31:15Z</time>
      </trkpt>
      <trkpt lat="44.97152" lon="6.11596">
        <ele>1346.8</ele>
        <time>2024-08-14T12:31:16Z</time>
      </trkpt>
      <trkpt lat="44.97155" lon="6.11596">
        <ele>1346.6</ele>
        <time>2024-08-14T12:31:17Z</time>
      </trkpt>
      <trkpt lat="44.97155" lon="6.11596">
        <ele>1346.2</ele>
        <time>2024-08-14T12:31:18Z</time>
      </trkpt>
      <trkpt lat="44.97155" lon="6.11596">
        <ele>1346</ele>
        <time>2024-08-14T12:31:19Z</time>
      </trkpt>
      <trkpt lat="44.97157" lon="6.11598">
        <ele>1345.8</ele>
        <time>2024-08-14T12:31:20Z</time>
      </trkpt>
      <trkpt lat="44.97157" lon="6.11598">
        <ele>1345.2</ele>
        <time>2024-08-14T12:31:21Z</time>
      </trkpt>
      <trkpt lat="44.97158" lon="6.11601">
        <ele>1345</ele>
        <time>2024-08-14T12:31:22Z</time>
      </trkpt>
      <trkpt lat="44.97158" lon="6.11601">
        <ele>1344.8</ele>
        <time>2024-08-14T12:31:23Z</time>
      </trkpt>
      <trkpt lat="44.97158" lon="6.11601">
        <ele>1344.8</ele>
        <time>2024-08-14T12:31:24Z</time>
      </trkpt>
      <trkpt lat="44.97158" lon="6.11601">
        <ele>1344.4</ele>
        <time>2024-08-14T12:31:25Z</time>
      </trkpt>
      <trkpt lat="44.9716" lon="6.11603">
        <ele>1343.8</ele>
        <time>2024-08-14T12:31:26Z</time>
      </trkpt>
      <trkpt lat="44.9716" lon="6.11603">
        <ele>1343.6</ele>
        <time>2024-08-14T12:31:27Z</time>
      </trkpt>
      <trkpt lat="44.9716" lon="6.11603">
        <ele>1343.4</ele>
        <time>2024-08-14T12:31:28Z</time>
      </trkpt>
      <trkpt lat="44.97162" lon="6.11605">
        <ele>1343.2</ele>
        <time>2024-08-14T12:31:29Z</time>
      </trkpt>
      <trkpt lat="44.97162" lon="6.11605">
        <ele>1342.8</ele>
        <time>2024-08-14T12:31:30Z</time>
      </trkpt>
      <trkpt lat="44.97164" lon="6.11607">
        <ele>1342.8</ele>
        <time>2024-08-14T12:31:31Z</time>
      </trkpt>
      <trkpt lat="44.97164" lon="6.11607">
        <ele>1342.4</ele>
        <time>2024-08-14T12:31:32Z</time>
      </trkpt>
      <trkpt lat="44.97166" lon="6.11608">
        <ele>1342</ele>
        <time>2024-08-14T12:31:33Z</time>
      </trkpt>
      <trkpt lat="44.97166" lon="6.11608">
        <ele>1341.6</ele>
        <time>2024-08-14T12:31:34Z</time>
      </trkpt>
      <trkpt lat="44.97166" lon="6.11608">
        <ele>1341.2</ele>
        <time>2024-08-14T12:31:35Z</time>
      </trkpt>
      <trkpt lat="44.97167" lon="6.11611">
        <ele>1341</ele>
        <time>2024-08-14T12:31:36Z</time>
      </trkpt>
      <trkpt lat="44.97167" lon="6.11611">
        <ele>1341</ele>
        <time>2024-08-14T12:31:37Z</time>
      </trkpt>
      <trkpt lat="44.97167" lon="6.11611">
        <ele>1340.6</ele>
        <time>2024-08-14T12:31:38Z</time>
      </trkpt>
      <trkpt lat="44.97169" lon="6.11614">
        <ele>1340.2</ele>
        <time>2024-08-14T12:31:39Z</time>
      </trkpt>
      <trkpt lat="44.97169" lon="6.11614">
        <ele>1340</ele>
        <time>2024-08-14T12:31:40Z</time>
      </trkpt>
      <trkpt lat="44.97171" lon="6.11617">
        <ele>1339.6</ele>
        <time>2024-08-14T12:31:41Z</time>
      </trkpt>
      <trkpt lat="44.97171" lon="6.11617">
        <ele>1339.2</ele>
        <time>2024-08-14T12:31:42Z</time>
      </trkpt>
      <trkpt lat="44.97173" lon="6.11618">
        <ele>1339</ele>
        <time>2024-08-14T12:31:43Z</time>
      </trkpt>
      <trkpt lat="44.97173" lon="6.11618">
        <ele>1338.8</ele>
        <time>2024-08-14T12:31:44Z</time>
      </trkpt>
      <trkpt lat="44.97174" lon="6.1162">
        <ele>1338.2</ele>
        <time>2024-08-14T12:31:45Z</time>
      </trkpt>
      <trkpt lat="44.97174" lon="6.1162">
        <ele>1338</ele>
        <time>2024-08-14T12:31:46Z</time>
      </trkpt>
      <trkpt lat="44.97174" lon="6.1162">
        <ele>1337.6</ele>
        <time>2024-08-14T12:31:47Z</time>
      </trkpt>
      <trkpt lat="44.97174" lon="6.11623">
        <ele>1337.4</ele>
        <time>2024-08-14T12:31:48Z</time>
      </trkpt>
      <trkpt lat="44.97174" lon="6.11623">
        <ele>1337.4</ele>
        <time>2024-08-14T12:31:49Z</time>
      </trkpt>
      <trkpt lat="44.97174" lon="6.11623">
        <ele>1337</ele>
        <time>2024-08-14T12:31:50Z</time>
      </trkpt>
      <trkpt lat="44.97176" lon="6.11625">
        <ele>1336.4</ele>
        <time>2024-08-14T12:31:51Z</time>
      </trkpt>
      <trkpt lat="44.97176" lon="6.11625">
        <ele>1336.4</ele>
        <time>2024-08-14T12:31:52Z</time>
      </trkpt>
      <trkpt lat="44.97176" lon="6.11625">
        <ele>1336.2</ele>
        <time>2024-08-14T12:31:53Z</time>
      </trkpt>
      <trkpt lat="44.97179" lon="6.11626">
        <ele>1336</ele>
        <time>2024-08-14T12:31:54Z</time>
      </trkpt>
      <trkpt lat="44.97179" lon="6.11626">
        <ele>1336</ele>
        <time>2024-08-14T12:31:55Z</time>
      </trkpt>
      <trkpt lat="44.97181" lon="6.11627">
        <ele>1335.6</ele>
        <time>2024-08-14T12:31:56Z</time>
      </trkpt>
      <trkpt lat="44.97181" lon="6.11627">
        <ele>1335.4</ele>
        <time>2024-08-14T12:31:57Z</time>
      </trkpt>
      <trkpt lat="44.97184" lon="6.11629">
        <ele>1335</ele>
        <time>2024-08-14T12:31:58Z</time>
      </trkpt>
      <trkpt lat="44.97184" lon="6.11629">
        <ele>1334.8</ele>
        <time>2024-08-14T12:31:59Z</time>
      </trkpt>
      <trkpt lat="44.97184" lon="6.11629">
        <ele>1334.4</ele>
        <time>2024-08-14T12:32:00Z</time>
      </trkpt>
      <trkpt lat="44.97186" lon="6.11633">
        <ele>1334.2</ele>
        <time>2024-08-14T12:32:01Z</time>
      </trkpt>
      <trkpt lat="44.97187" lon="6.11634">
        <ele>1333.8</ele>
        <time>2024-08-14T12:32:02Z</time>
      </trkpt>
      <trkpt lat="44.97187" lon="6.11634">
        <ele>1333.6</ele>
        <time>2024-08-14T12:32:03Z</time>
      </trkpt>
      <trkpt lat="44.97188" lon="6.11636">
        <ele>1333.4</ele>
        <time>2024-08-14T12:32:04Z</time>
      </trkpt>
      <trkpt lat="44.97188" lon="6.11636">
        <ele>1333</ele>
        <time>2024-08-14T12:32:05Z</time>
      </trkpt>
      <trkpt lat="44.9719" lon="6.11638">
        <ele>1332.8</ele>
        <time>2024-08-14T12:32:06Z</time>
      </trkpt>
      <trkpt lat="44.9719" lon="6.11638">
        <ele>1332.6</ele>
        <time>2024-08-14T12:32:07Z</time>
      </trkpt>
      <trkpt lat="44.97192" lon="6.11639">
        <ele>1332.4</ele>
        <time>2024-08-14T12:32:08Z</time>
      </trkpt>
      <trkpt lat="44.97192" lon="6.11639">
        <ele>1331.8</ele>
        <time>2024-08-14T12:32:09Z</time>
      </trkpt>
      <trkpt lat="44.97194" lon="6.1164">
        <ele>1331.6</ele>
        <time>2024-08-14T12:32:10Z</time>
      </trkpt>
      <trkpt lat="44.97194" lon="6.1164">
        <ele>1331.2</ele>
        <time>2024-08-14T12:32:11Z</time>
      </trkpt>
      <trkpt lat="44.97196" lon="6.11642">
        <ele>1331</ele>
        <time>2024-08-14T12:32:12Z</time>
      </trkpt>
      <trkpt lat="44.97196" lon="6.11642">
        <ele>1331</ele>
        <time>2024-08-14T12:32:13Z</time>
      </trkpt>
      <trkpt lat="44.97196" lon="6.11642">
        <ele>1330.8</ele>
        <time>2024-08-14T12:32:14Z</time>
      </trkpt>
      <trkpt lat="44.97198" lon="6.11645">
        <ele>1330.4</ele>
        <time>2024-08-14T12:32:15Z</time>
      </trkpt>
      <trkpt lat="44.97198" lon="6.11645">
        <ele>1330.4</ele>
        <time>2024-08-14T12:32:16Z</time>
      </trkpt>
      <trkpt lat="44.972" lon="6.11647">
        <ele>1329.8</ele>
        <time>2024-08-14T12:32:17Z</time>
      </trkpt>
      <trkpt lat="44.972" lon="6.11647">
        <ele>1329.8</ele>
        <time>2024-08-14T12:32:18Z</time>
      </trkpt>
      <trkpt lat="44.97201" lon="6.11649">
        <ele>1329.8</ele>
        <time>2024-08-14T12:32:19Z</time>
      </trkpt>
      <trkpt lat="44.97201" lon="6.11649">
        <ele>1329.4</ele>
        <time>2024-08-14T12:32:20Z</time>
      </trkpt>
      <trkpt lat="44.97201" lon="6.11649">
        <ele>1329</ele>
        <time>2024-08-14T12:32:21Z</time>
      </trkpt>
      <trkpt lat="44.97202" lon="6.11653">
        <ele>1328.8</ele>
        <time>2024-08-14T12:32:22Z</time>
      </trkpt>
      <trkpt lat="44.97202" lon="6.11653">
        <ele>1328.8</ele>
        <time>2024-08-14T12:32:23Z</time>
      </trkpt>
      <trkpt lat="44.97202" lon="6.11653">
        <ele>1328.4</ele>
        <time>2024-08-14T12:32:24Z</time>
      </trkpt>
      <trkpt lat="44.97204" lon="6.11656">
        <ele>1328.2</ele>
        <time>2024-08-14T12:32:25Z</time>
      </trkpt>
      <trkpt lat="44.97204" lon="6.11656">
        <ele>1328</ele>
        <time>2024-08-14T12:32:26Z</time>
      </trkpt>
      <trkpt lat="44.97205" lon="6.11657">
        <ele>1327.8</ele>
        <time>2024-08-14T12:32:27Z</time>
      </trkpt>
      <trkpt lat="44.97205" lon="6.11657">
        <ele>1327.4</ele>
        <time>2024-08-14T12:32:28Z</time>
      </trkpt>
      <trkpt lat="44.97206" lon="6.1166">
        <ele>1327</ele>
        <time>2024-08-14T12:32:29Z</time>
      </trkpt>
      <trkpt lat="44.97206" lon="6.1166">
        <ele>1326.4</ele>
        <time>2024-08-14T12:32:30Z</time>
      </trkpt>
      <trkpt lat="44.97208" lon="6.11663">
        <ele>1326</ele>
        <time>2024-08-14T12:32:31Z</time>
      </trkpt>
      <trkpt lat="44.97208" lon="6.11663">
        <ele>1326</ele>
        <time>2024-08-14T12:32:32Z</time>
      </trkpt>
      <trkpt lat="44.9721" lon="6.11665">
        <ele>1325.4</ele>
        <time>2024-08-14T12:32:33Z</time>
      </trkpt>
      <trkpt lat="44.97212" lon="6.11666">
        <ele>1325.2</ele>
        <time>2024-08-14T12:32:34Z</time>
      </trkpt>
      <trkpt lat="44.97212" lon="6.11666">
        <ele>1325</ele>
        <time>2024-08-14T12:32:35Z</time>
      </trkpt>
      <trkpt lat="44.97212" lon="6.11669">
        <ele>1324.2</ele>
        <time>2024-08-14T12:32:36Z</time>
      </trkpt>
      <trkpt lat="44.97212" lon="6.11669">
        <ele>1323.6</ele>
        <time>2024-08-14T12:32:37Z</time>
      </trkpt>
      <trkpt lat="44.97214" lon="6.11673">
        <ele>1323.4</ele>
        <time>2024-08-14T12:32:38Z</time>
      </trkpt>
      <trkpt lat="44.97214" lon="6.11673">
        <ele>1323</ele>
        <time>2024-08-14T12:32:39Z</time>
      </trkpt>
      <trkpt lat="44.97216" lon="6.11674">
        <ele>1322.8</ele>
        <time>2024-08-14T12:32:40Z</time>
      </trkpt>
      <trkpt lat="44.97216" lon="6.11674">
        <ele>1322.6</ele>
        <time>2024-08-14T12:32:41Z</time>
      </trkpt>
      <trkpt lat="44.97218" lon="6.11676">
        <ele>1322.4</ele>
        <time>2024-08-14T12:32:42Z</time>
      </trkpt>
      <trkpt lat="44.97218" lon="6.11676">
        <ele>1322.2</ele>
        <time>2024-08-14T12:32:43Z</time>
      </trkpt>
      <trkpt lat="44.9722" lon="6.11679">
        <ele>1321.8</ele>
        <time>2024-08-14T12:32:44Z</time>
      </trkpt>
      <trkpt lat="44.97221" lon="6.11681">
        <ele>1321.2</ele>
        <time>2024-08-14T12:32:45Z</time>
      </trkpt>
      <trkpt lat="44.97221" lon="6.11681">
        <ele>1321</ele>
        <time>2024-08-14T12:32:46Z</time>
      </trkpt>
      <trkpt lat="44.97223" lon="6.11683">
        <ele>1320.8</ele>
        <time>2024-08-14T12:32:47Z</time>
      </trkpt>
      <trkpt lat="44.97223" lon="6.11683">
        <ele>1320.6</ele>
        <time>2024-08-14T12:32:48Z</time>
      </trkpt>
      <trkpt lat="44.97224" lon="6.11685">
        <ele>1320.4</ele>
        <time>2024-08-14T12:32:49Z</time>
      </trkpt>
      <trkpt lat="44.97224" lon="6.11685">
        <ele>1320.2</ele>
        <time>2024-08-14T12:32:50Z</time>
      </trkpt>
      <trkpt lat="44.97226" lon="6.11689">
        <ele>1320</ele>
        <time>2024-08-14T12:32:51Z</time>
      </trkpt>
      <trkpt lat="44.97226" lon="6.11689">
        <ele>1319.8</ele>
        <time>2024-08-14T12:32:52Z</time>
      </trkpt>
      <trkpt lat="44.97226" lon="6.11692">
        <ele>1319.4</ele>
        <time>2024-08-14T12:32:53Z</time>
      </trkpt>
      <trkpt lat="44.97226" lon="6.11692">
        <ele>1319</ele>
        <time>2024-08-14T12:32:54Z</time>
      </trkpt>
      <trkpt lat="44.97226" lon="6.11692">
        <ele>1319</ele>
        <time>2024-08-14T12:32:55Z</time>
      </trkpt>
      <trkpt lat="44.97226" lon="6.11692">
        <ele>1318.6</ele>
        <time>2024-08-14T12:32:56Z</time>
      </trkpt>
      <trkpt lat="44.97227" lon="6.11695">
        <ele>1318.2</ele>
        <time>2024-08-14T12:32:57Z</time>
      </trkpt>
      <trkpt lat="44.97227" lon="6.11695">
        <ele>1318</ele>
        <time>2024-08-14T12:32:58Z</time>
      </trkpt>
      <trkpt lat="44.97229" lon="6.11698">
        <ele>1317.8</ele>
        <time>2024-08-14T12:32:59Z</time>
      </trkpt>
      <trkpt lat="44.97231" lon="6.11699">
        <ele>1317.6</ele>
        <time>2024-08-14T12:33:00Z</time>
      </trkpt>
      <trkpt lat="44.97231" lon="6.11699">
        <ele>1317.6</ele>
        <time>2024-08-14T12:33:01Z</time>
      </trkpt>
      <trkpt lat="44.97232" lon="6.11702">
        <ele>1316.8</ele>
        <time>2024-08-14T12:33:02Z</time>
      </trkpt>
      <trkpt lat="44.97232" lon="6.11702">
        <ele>1316.8</ele>
        <time>2024-08-14T12:33:03Z</time>
      </trkpt>
      <trkpt lat="44.97234" lon="6.11704">
        <ele>1316.6</ele>
        <time>2024-08-14T12:33:04Z</time>
      </trkpt>
      <trkpt lat="44.97234" lon="6.11704">
        <ele>1316.6</ele>
        <time>2024-08-14T12:33:05Z</time>
      </trkpt>
      <trkpt lat="44.97236" lon="6.11706">
        <ele>1316.2</ele>
        <time>2024-08-14T12:33:06Z</time>
      </trkpt>
      <trkpt lat="44.97236" lon="6.11706">
        <ele>1315.8</ele>
        <time>2024-08-14T12:33:07Z</time>
      </trkpt>
      <trkpt lat="44.97238" lon="6.11708">
        <ele>1315.6</ele>
        <time>2024-08-14T12:33:08Z</time>
      </trkpt>
      <trkpt lat="44.97238" lon="6.11708">
        <ele>1315.4</ele>
        <time>2024-08-14T12:33:09Z</time>
      </trkpt>
      <trkpt lat="44.9724" lon="6.1171">
        <ele>1314.8</ele>
        <time>2024-08-14T12:33:10Z</time>
      </trkpt>
      <trkpt lat="44.9724" lon="6.1171">
        <ele>1314.8</ele>
        <time>2024-08-14T12:33:11Z</time>
      </trkpt>
      <trkpt lat="44.97243" lon="6.11711">
        <ele>1314.6</ele>
        <time>2024-08-14T12:33:12Z</time>
      </trkpt>
      <trkpt lat="44.97243" lon="6.11711">
        <ele>1314.4</ele>
        <time>2024-08-14T12:33:13Z</time>
      </trkpt>
      <trkpt lat="44.97244" lon="6.11715">
        <ele>1314.2</ele>
        <time>2024-08-14T12:33:14Z</time>
      </trkpt>
      <trkpt lat="44.97244" lon="6.11715">
        <ele>1313.8</ele>
        <time>2024-08-14T12:33:15Z</time>
      </trkpt>
      <trkpt lat="44.97244" lon="6.11715">
        <ele>1313.4</ele>
        <time>2024-08-14T12:33:16Z</time>
      </trkpt>
      <trkpt lat="44.97244" lon="6.11715">
        <ele>1313.4</ele>
        <time>2024-08-14T12:33:17Z</time>
      </trkpt>
      <trkpt lat="44.97246" lon="6.11719">
        <ele>1313.2</ele>
        <time>2024-08-14T12:33:18Z</time>
      </trkpt>
      <trkpt lat="44.97246" lon="6.11721">
        <ele>1312.6</ele>
        <time>2024-08-14T12:33:19Z</time>
      </trkpt>
      <trkpt lat="44.97246" lon="6.11721">
        <ele>1312.4</ele>
        <time>2024-08-14T12:33:20Z</time>
      </trkpt>
      <trkpt lat="44.97246" lon="6.11724">
        <ele>1312</ele>
        <time>2024-08-14T12:33:21Z</time>
      </trkpt>
      <trkpt lat="44.97246" lon="6.11724">
        <ele>1311.6</ele>
        <time>2024-08-14T12:33:22Z</time>
      </trkpt>
      <trkpt lat="44.97246" lon="6.11724">
        <ele>1311.4</ele>
        <time>2024-08-14T12:33:23Z</time>
      </trkpt>
      <trkpt lat="44.97244" lon="6.11725">
        <ele>1311.2</ele>
        <time>2024-08-14T12:33:24Z</time>
      </trkpt>
      <trkpt lat="44.97244" lon="6.11725">
        <ele>1310.8</ele>
        <time>2024-08-14T12:33:25Z</time>
      </trkpt>
      <trkpt lat="44.97244" lon="6.11725">
        <ele>1310.6</ele>
        <time>2024-08-14T12:33:26Z</time>
      </trkpt>
      <trkpt lat="44.97244" lon="6.11725">
        <ele>1310.2</ele>
        <time>2024-08-14T12:33:27Z</time>
      </trkpt>
      <trkpt lat="44.97242" lon="6.11727">
        <ele>1310.2</ele>
        <time>2024-08-14T12:33:28Z</time>
      </trkpt>
      <trkpt lat="44.97242" lon="6.11727">
        <ele>1309.6</ele>
        <time>2024-08-14T12:33:29Z</time>
      </trkpt>
      <trkpt lat="44.9724" lon="6.11728">
        <ele>1309.2</ele>
        <time>2024-08-14T12:33:30Z</time>
      </trkpt>
      <trkpt lat="44.9724" lon="6.11728">
        <ele>1309</ele>
        <time>2024-08-14T12:33:31Z</time>
      </trkpt>
      <trkpt lat="44.9724" lon="6.11728">
        <ele>1308.6</ele>
        <time>2024-08-14T12:33:32Z</time>
      </trkpt>
      <trkpt lat="44.97237" lon="6.11729">
        <ele>1308.4</ele>
        <time>2024-08-14T12:33:33Z</time>
      </trkpt>
      <trkpt lat="44.97237" lon="6.11729">
        <ele>1308.4</ele>
        <time>2024-08-14T12:33:34Z</time>
      </trkpt>
      <trkpt lat="44.97236" lon="6.1173">
        <ele>1308.2</ele>
        <time>2024-08-14T12:33:35Z</time>
      </trkpt>
      <trkpt lat="44.97236" lon="6.1173">
        <ele>1307.6</ele>
        <time>2024-08-14T12:33:36Z</time>
      </trkpt>
      <trkpt lat="44.97236" lon="6.1173">
        <ele>1307.2</ele>
        <time>2024-08-14T12:33:37Z</time>
      </trkpt>
      <trkpt lat="44.97234" lon="6.1173">
        <ele>1307</ele>
        <time>2024-08-14T12:33:38Z</time>
      </trkpt>
      <trkpt lat="44.97234" lon="6.1173">
        <ele>1306.8</ele>
        <time>2024-08-14T12:33:39Z</time>
      </trkpt>
      <trkpt lat="44.97234" lon="6.11733">
        <ele>1306.4</ele>
        <time>2024-08-14T12:33:40Z</time>
      </trkpt>
      <trkpt lat="44.97234" lon="6.11733">
        <ele>1306</ele>
        <time>2024-08-14T12:33:41Z</time>
      </trkpt>
      <trkpt lat="44.97234" lon="6.11733">
        <ele>1305.8</ele>
        <time>2024-08-14T12:33:42Z</time>
      </trkpt>
      <trkpt lat="44.97235" lon="6.11736">
        <ele>1305.6</ele>
        <time>2024-08-14T12:33:43Z</time>
      </trkpt>
      <trkpt lat="44.97235" lon="6.11736">
        <ele>1305.4</ele>
        <time>2024-08-14T12:33:44Z</time>
      </trkpt>
      <trkpt lat="44.97237" lon="6.11738">
        <ele>1305</ele>
        <time>2024-08-14T12:33:45Z</time>
      </trkpt>
      <trkpt lat="44.97237" lon="6.11738">
        <ele>1305</ele>
        <time>2024-08-14T12:33:46Z</time>
      </trkpt>
      <trkpt lat="44.97238" lon="6.11741">
        <ele>1304.4</ele>
        <time>2024-08-14T12:33:47Z</time>
      </trkpt>
      <trkpt lat="44.97238" lon="6.11741">
        <ele>1303.8</ele>
        <time>2024-08-14T12:33:48Z</time>
      </trkpt>
      <trkpt lat="44.97238" lon="6.11744">
        <ele>1303.6</ele>
        <time>2024-08-14T12:33:49Z</time>
      </trkpt>
      <trkpt lat="44.97238" lon="6.11744">
        <ele>1303.6</ele>
        <time>2024-08-14T12:33:50Z</time>
      </trkpt>
      <trkpt lat="44.97238" lon="6.11744">
        <ele>1303.2</ele>
        <time>2024-08-14T12:33:51Z</time>
      </trkpt>
      <trkpt lat="44.97236" lon="6.11744">
        <ele>1303</ele>
        <time>2024-08-14T12:33:52Z</time>
      </trkpt>
      <trkpt lat="44.97236" lon="6.11744">
        <ele>1302.8</ele>
        <time>2024-08-14T12:33:53Z</time>
      </trkpt>
      <trkpt lat="44.97236" lon="6.11744">
        <ele>1302.6</ele>
        <time>2024-08-14T12:33:54Z</time>
      </trkpt>
      <trkpt lat="44.97236" lon="6.11744">
        <ele>1302.2</ele>
        <time>2024-08-14T12:33:55Z</time>
      </trkpt>
      <trkpt lat="44.97236" lon="6.11744">
        <ele>1301.8</ele>
        <time>2024-08-14T12:33:56Z</time>
      </trkpt>
      <trkpt lat="44.97236" lon="6.11744">
        <ele>1301.6</ele>
        <time>2024-08-14T12:33:57Z</time>
      </trkpt>
      <trkpt lat="44.97236" lon="6.11744">
        <ele>1301.2</ele>
        <time>2024-08-14T12:33:58Z</time>
      </trkpt>
      <trkpt lat="44.97236" lon="6.11748">
        <ele>1301</ele>
        <time>2024-08-14T12:33:59Z</time>
      </trkpt>
      <trkpt lat="44.97236" lon="6.11748">
        <ele>1300.8</ele>
        <time>2024-08-14T12:34:00Z</time>
      </trkpt>
      <trkpt lat="44.97236" lon="6.11751">
        <ele>1300.6</ele>
        <time>2024-08-14T12:34:01Z</time>
      </trkpt>
      <trkpt lat="44.97236" lon="6.11751">
        <ele>1299.8</ele>
        <time>2024-08-14T12:34:02Z</time>
      </trkpt>
      <trkpt lat="44.97237" lon="6.11754">
        <ele>1299.8</ele>
        <time>2024-08-14T12:34:03Z</time>
      </trkpt>
      <trkpt lat="44.97237" lon="6.11754">
        <ele>1299.6</ele>
        <time>2024-08-14T12:34:04Z</time>
      </trkpt>
      <trkpt lat="44.9724" lon="6.11756">
        <ele>1299.2</ele>
        <time>2024-08-14T12:34:05Z</time>
      </trkpt>
      <trkpt lat="44.9724" lon="6.11756">
        <ele>1298.8</ele>
        <time>2024-08-14T12:34:06Z</time>
      </trkpt>
      <trkpt lat="44.9724" lon="6.11756">
        <ele>1298.6</ele>
        <time>2024-08-14T12:34:07Z</time>
      </trkpt>
      <trkpt lat="44.97241" lon="6.1176">
        <ele>1298.4</ele>
        <time>2024-08-14T12:34:08Z</time>
      </trkpt>
      <trkpt lat="44.97241" lon="6.1176">
        <ele>1298</ele>
        <time>2024-08-14T12:34:09Z</time>
      </trkpt>
      <trkpt lat="44.97241" lon="6.1176">
        <ele>1297.6</ele>
        <time>2024-08-14T12:34:10Z</time>
      </trkpt>
      <trkpt lat="44.97242" lon="6.11763">
        <ele>1297.6</ele>
        <time>2024-08-14T12:34:11Z</time>
      </trkpt>
      <trkpt lat="44.97242" lon="6.11763">
        <ele>1297.2</ele>
        <time>2024-08-14T12:34:12Z</time>
      </trkpt>
      <trkpt lat="44.97242" lon="6.11763">
        <ele>1297</ele>
        <time>2024-08-14T12:34:13Z</time>
      </trkpt>
      <trkpt lat="44.97244" lon="6.11765">
        <ele>1296.6</ele>
        <time>2024-08-14T12:34:14Z</time>
      </trkpt>
      <trkpt lat="44.97244" lon="6.11765">
        <ele>1296</ele>
        <time>2024-08-14T12:34:15Z</time>
      </trkpt>
      <trkpt lat="44.97246" lon="6.11766">
        <ele>1295.8</ele>
        <time>2024-08-14T12:34:16Z</time>
      </trkpt>
      <trkpt lat="44.97246" lon="6.11766">
        <ele>1295.4</ele>
        <time>2024-08-14T12:34:17Z</time>
      </trkpt>
      <trkpt lat="44.97246" lon="6.11769">
        <ele>1295</ele>
        <time>2024-08-14T12:34:18Z</time>
      </trkpt>
      <trkpt lat="44.97246" lon="6.11769">
        <ele>1295</ele>
        <time>2024-08-14T12:34:19Z</time>
      </trkpt>
      <trkpt lat="44.97247" lon="6.11772">
        <ele>1294.6</ele>
        <time>2024-08-14T12:34:20Z</time>
      </trkpt>
      <trkpt lat="44.97247" lon="6.11772">
        <ele>1294</ele>
        <time>2024-08-14T12:34:21Z</time>
      </trkpt>
      <trkpt lat="44.97249" lon="6.11774">
        <ele>1293.6</ele>
        <time>2024-08-14T12:34:22Z</time>
      </trkpt>
      <trkpt lat="44.97249" lon="6.11774">
        <ele>1293.2</ele>
        <time>2024-08-14T12:34:23Z</time>
      </trkpt>
      <trkpt lat="44.97249" lon="6.11774">
        <ele>1293</ele>
        <time>2024-08-14T12:34:24Z</time>
      </trkpt>
      <trkpt lat="44.9725" lon="6.11778">
        <ele>1292.6</ele>
        <time>2024-08-14T12:34:25Z</time>
      </trkpt>
      <trkpt lat="44.9725" lon="6.1178">
        <ele>1292.4</ele>
        <time>2024-08-14T12:34:26Z</time>
      </trkpt>
      <trkpt lat="44.9725" lon="6.1178">
        <ele>1292</ele>
        <time>2024-08-14T12:34:27Z</time>
      </trkpt>
      <trkpt lat="44.9725" lon="6.1178">
        <ele>1291.8</ele>
        <time>2024-08-14T12:34:28Z</time>
      </trkpt>
      <trkpt lat="44.97249" lon="6.11783">
        <ele>1291.6</ele>
        <time>2024-08-14T12:34:29Z</time>
      </trkpt>
      <trkpt lat="44.97249" lon="6.11783">
        <ele>1291.2</ele>
        <time>2024-08-14T12:34:30Z</time>
      </trkpt>
      <trkpt lat="44.97249" lon="6.11783">
        <ele>1291</ele>
        <time>2024-08-14T12:34:31Z</time>
      </trkpt>
      <trkpt lat="44.9725" lon="6.11786">
        <ele>1290.8</ele>
        <time>2024-08-14T12:34:32Z</time>
      </trkpt>
      <trkpt lat="44.9725" lon="6.11786">
        <ele>1290.6</ele>
        <time>2024-08-14T12:34:33Z</time>
      </trkpt>
      <trkpt lat="44.97251" lon="6.11788">
        <ele>1290</ele>
        <time>2024-08-14T12:34:34Z</time>
      </trkpt>
      <trkpt lat="44.97251" lon="6.11788">
        <ele>1289.8</ele>
        <time>2024-08-14T12:34:35Z</time>
      </trkpt>
      <trkpt lat="44.97252" lon="6.11792">
        <ele>1289.6</ele>
        <time>2024-08-14T12:34:36Z</time>
      </trkpt>
      <trkpt lat="44.97252" lon="6.11792">
        <ele>1289.4</ele>
        <time>2024-08-14T12:34:37Z</time>
      </trkpt>
      <trkpt lat="44.97253" lon="6.11794">
        <ele>1289</ele>
        <time>2024-08-14T12:34:38Z</time>
      </trkpt>
      <trkpt lat="44.97253" lon="6.11794">
        <ele>1288.6</ele>
        <time>2024-08-14T12:34:39Z</time>
      </trkpt>
      <trkpt lat="44.97253" lon="6.11798">
        <ele>1288.2</ele>
        <time>2024-08-14T12:34:40Z</time>
      </trkpt>
      <trkpt lat="44.97253" lon="6.11798">
        <ele>1288</ele>
        <time>2024-08-14T12:34:41Z</time>
      </trkpt>
      <trkpt lat="44.97253" lon="6.11803">
        <ele>1287.6</ele>
        <time>2024-08-14T12:34:42Z</time>
      </trkpt>
      <trkpt lat="44.97253" lon="6.11803">
        <ele>1287.6</ele>
        <time>2024-08-14T12:34:43Z</time>
      </trkpt>
      <trkpt lat="44.97253" lon="6.11807">
        <ele>1287.2</ele>
        <time>2024-08-14T12:34:44Z</time>
      </trkpt>
      <trkpt lat="44.97253" lon="6.11807">
        <ele>1286.8</ele>
        <time>2024-08-14T12:34:45Z</time>
      </trkpt>
      <trkpt lat="44.97254" lon="6.11811">
        <ele>1286.8</ele>
        <time>2024-08-14T12:34:46Z</time>
      </trkpt>
      <trkpt lat="44.97254" lon="6.11811">
        <ele>1286.8</ele>
        <time>2024-08-14T12:34:47Z</time>
      </trkpt>
      <trkpt lat="44.97255" lon="6.11814">
        <ele>1286.8</ele>
        <time>2024-08-14T12:34:48Z</time>
      </trkpt>
      <trkpt lat="44.97255" lon="6.11814">
        <ele>1286.8</ele>
        <time>2024-08-14T12:34:49Z</time>
      </trkpt>
      <trkpt lat="44.97255" lon="6.11814">
        <ele>1287</ele>
        <time>2024-08-14T12:34:50Z</time>
      </trkpt>
      <trkpt lat="44.97257" lon="6.11817">
        <ele>1286.8</ele>
        <time>2024-08-14T12:34:51Z</time>
      </trkpt>
      <trkpt lat="44.97258" lon="6.11818">
        <ele>1286.8</ele>
        <time>2024-08-14T12:34:52Z</time>
      </trkpt>
      <trkpt lat="44.9726" lon="6.11819">
        <ele>1286.8</ele>
        <time>2024-08-14T12:34:53Z</time>
      </trkpt>
      <trkpt lat="44.9726" lon="6.11819">
        <ele>1286.8</ele>
        <time>2024-08-14T12:34:54Z</time>
      </trkpt>
      <trkpt lat="44.97262" lon="6.11821">
        <ele>1286.8</ele>
        <time>2024-08-14T12:34:55Z</time>
      </trkpt>
      <trkpt lat="44.97262" lon="6.11821">
        <ele>1287</ele>
        <time>2024-08-14T12:34:56Z</time>
      </trkpt>
      <trkpt lat="44.97264" lon="6.11822">
        <ele>1287</ele>
        <time>2024-08-14T12:34:57Z</time>
      </trkpt>
      <trkpt lat="44.97266" lon="6.11823">
        <ele>1287</ele>
        <time>2024-08-14T12:34:58Z</time>
      </trkpt>
      <trkpt lat="44.97266" lon="6.11823">
        <ele>1287.2</ele>
        <time>2024-08-14T12:34:59Z</time>
      </trkpt>
      <trkpt lat="44.97268" lon="6.11824">
        <ele>1287.6</ele>
        <time>2024-08-14T12:35:00Z</time>
      </trkpt>
      <trkpt lat="44.97268" lon="6.11824">
        <ele>1287.8</ele>
        <time>2024-08-14T12:35:01Z</time>
      </trkpt>
      <trkpt lat="44.97268" lon="6.11824">
        <ele>1287.8</ele>
        <time>2024-08-14T12:35:02Z</time>
      </trkpt>
      <trkpt lat="44.9727" lon="6.11827">
        <ele>1287.8</ele>
        <time>2024-08-14T12:35:03Z</time>
      </trkpt>
      <trkpt lat="44.9727" lon="6.11827">
        <ele>1287.8</ele>
        <time>2024-08-14T12:35:04Z</time>
      </trkpt>
      <trkpt lat="44.97273" lon="6.11829">
        <ele>1287.8</ele>
        <time>2024-08-14T12:35:05Z</time>
      </trkpt>
      <trkpt lat="44.97273" lon="6.11829">
        <ele>1287.8</ele>
        <time>2024-08-14T12:35:06Z</time>
      </trkpt>
      <trkpt lat="44.97275" lon="6.11832">
        <ele>1287.8</ele>
        <time>2024-08-14T12:35:07Z</time>
      </trkpt>
      <trkpt lat="44.97275" lon="6.11832">
        <ele>1287.8</ele>
        <time>2024-08-14T12:35:08Z</time>
      </trkpt>
      <trkpt lat="44.97277" lon="6.11833">
        <ele>1287.4</ele>
        <time>2024-08-14T12:35:09Z</time>
      </trkpt>
      <trkpt lat="44.97277" lon="6.11833">
        <ele>1287.2</ele>
        <time>2024-08-14T12:35:10Z</time>
      </trkpt>
      <trkpt lat="44.9728" lon="6.11835">
        <ele>1287.2</ele>
        <time>2024-08-14T12:35:11Z</time>
      </trkpt>
      <trkpt lat="44.9728" lon="6.11835">
        <ele>1287</ele>
        <time>2024-08-14T12:35:12Z</time>
      </trkpt>
      <trkpt lat="44.9728" lon="6.11835">
        <ele>1286.6</ele>
        <time>2024-08-14T12:35:13Z</time>
      </trkpt>
      <trkpt lat="44.97283" lon="6.11835">
        <ele>1286.6</ele>
        <time>2024-08-14T12:35:14Z</time>
      </trkpt>
      <trkpt lat="44.97283" lon="6.11835">
        <ele>1286.6</ele>
        <time>2024-08-14T12:35:15Z</time>
      </trkpt>
      <trkpt lat="44.97286" lon="6.11836">
        <ele>1286.8</ele>
        <time>2024-08-14T12:35:16Z</time>
      </trkpt>
      <trkpt lat="44.97286" lon="6.11836">
        <ele>1287.2</ele>
        <time>2024-08-14T12:35:17Z</time>
      </trkpt>
      <trkpt lat="44.97288" lon="6.11839">
        <ele>1287.2</ele>
        <time>2024-08-14T12:35:18Z</time>
      </trkpt>
      <trkpt lat="44.97288" lon="6.11839">
        <ele>1287</ele>
        <time>2024-08-14T12:35:19Z</time>
      </trkpt>
      <trkpt lat="44.9729" lon="6.11839">
        <ele>1287</ele>
        <time>2024-08-14T12:35:20Z</time>
      </trkpt>
      <trkpt lat="44.9729" lon="6.11839">
        <ele>1287.2</ele>
        <time>2024-08-14T12:35:21Z</time>
      </trkpt>
      <trkpt lat="44.97292" lon="6.11839">
        <ele>1287.4</ele>
        <time>2024-08-14T12:35:22Z</time>
      </trkpt>
      <trkpt lat="44.97294" lon="6.11839">
        <ele>1287.4</ele>
        <time>2024-08-14T12:35:23Z</time>
      </trkpt>
      <trkpt lat="44.97294" lon="6.11839">
        <ele>1287.8</ele>
        <time>2024-08-14T12:35:24Z</time>
      </trkpt>
      <trkpt lat="44.97296" lon="6.11839">
        <ele>1288</ele>
        <time>2024-08-14T12:35:25Z</time>
      </trkpt>
      <trkpt lat="44.97296" lon="6.11839">
        <ele>1288.2</ele>
        <time>2024-08-14T12:35:26Z</time>
      </trkpt>
      <trkpt lat="44.97298" lon="6.11839">
        <ele>1288.2</ele>
        <time>2024-08-14T12:35:27Z</time>
      </trkpt>
      <trkpt lat="44.97298" lon="6.11839">
        <ele>1288.2</ele>
        <time>2024-08-14T12:35:28Z</time>
      </trkpt>
      <trkpt lat="44.97301" lon="6.1184">
        <ele>1288.4</ele>
        <time>2024-08-14T12:35:29Z</time>
      </trkpt>
      <trkpt lat="44.97301" lon="6.1184">
        <ele>1288.4</ele>
        <time>2024-08-14T12:35:30Z</time>
      </trkpt>
      <trkpt lat="44.97303" lon="6.11843">
        <ele>1288.6</ele>
        <time>2024-08-14T12:35:31Z</time>
      </trkpt>
      <trkpt lat="44.97303" lon="6.11843">
        <ele>1288.6</ele>
        <time>2024-08-14T12:35:32Z</time>
      </trkpt>
      <trkpt lat="44.97307" lon="6.11843">
        <ele>1288.6</ele>
        <time>2024-08-14T12:35:33Z</time>
      </trkpt>
      <trkpt lat="44.97307" lon="6.11843">
        <ele>1288.6</ele>
        <time>2024-08-14T12:35:34Z</time>
      </trkpt>
      <trkpt lat="44.97309" lon="6.11844">
        <ele>1289</ele>
        <time>2024-08-14T12:35:35Z</time>
      </trkpt>
      <trkpt lat="44.97309" lon="6.11844">
        <ele>1289</ele>
        <time>2024-08-14T12:35:36Z</time>
      </trkpt>
      <trkpt lat="44.97312" lon="6.11845">
        <ele>1289</ele>
        <time>2024-08-14T12:35:37Z</time>
      </trkpt>
      <trkpt lat="44.97312" lon="6.11845">
        <ele>1289.2</ele>
        <time>2024-08-14T12:35:38Z</time>
      </trkpt>
      <trkpt lat="44.97315" lon="6.11846">
        <ele>1289.2</ele>
        <time>2024-08-14T12:35:39Z</time>
      </trkpt>
      <trkpt lat="44.97315" lon="6.11846">
        <ele>1289.2</ele>
        <time>2024-08-14T12:35:40Z</time>
      </trkpt>
      <trkpt lat="44.97317" lon="6.11846">
        <ele>1289.2</ele>
        <time>2024-08-14T12:35:41Z</time>
      </trkpt>
      <trkpt lat="44.97317" lon="6.11846">
        <ele>1289.2</ele>
        <time>2024-08-14T12:35:42Z</time>
      </trkpt>
      <trkpt lat="44.9732" lon="6.11848">
        <ele>1289.2</ele>
        <time>2024-08-14T12:35:43Z</time>
      </trkpt>
      <trkpt lat="44.9732" lon="6.11848">
        <ele>1289.4</ele>
        <time>2024-08-14T12:35:44Z</time>
      </trkpt>
      <trkpt lat="44.97322" lon="6.11848">
        <ele>1289.6</ele>
        <time>2024-08-14T12:35:45Z</time>
      </trkpt>
      <trkpt lat="44.97322" lon="6.11848">
        <ele>1289.6</ele>
        <time>2024-08-14T12:35:46Z</time>
      </trkpt>
      <trkpt lat="44.97325" lon="6.11848">
        <ele>1289.8</ele>
        <time>2024-08-14T12:35:47Z</time>
      </trkpt>
      <trkpt lat="44.97325" lon="6.11848">
        <ele>1290</ele>
        <time>2024-08-14T12:35:48Z</time>
      </trkpt>
      <trkpt lat="44.97327" lon="6.11848">
        <ele>1290</ele>
        <time>2024-08-14T12:35:49Z</time>
      </trkpt>
      <trkpt lat="44.97327" lon="6.11848">
        <ele>1290</ele>
        <time>2024-08-14T12:35:50Z</time>
      </trkpt>
      <trkpt lat="44.97329" lon="6.11849">
        <ele>1290</ele>
        <time>2024-08-14T12:35:51Z</time>
      </trkpt>
      <trkpt lat="44.97329" lon="6.11849">
        <ele>1290.4</ele>
        <time>2024-08-14T12:35:52Z</time>
      </trkpt>
      <trkpt lat="44.97332" lon="6.11851">
        <ele>1290.4</ele>
        <time>2024-08-14T12:35:53Z</time>
      </trkpt>
      <trkpt lat="44.97332" lon="6.11851">
        <ele>1290.4</ele>
        <time>2024-08-14T12:35:54Z</time>
      </trkpt>
      <trkpt lat="44.97334" lon="6.11853">
        <ele>1290.4</ele>
        <time>2024-08-14T12:35:55Z</time>
      </trkpt>
      <trkpt lat="44.97334" lon="6.11853">
        <ele>1290.4</ele>
        <time>2024-08-14T12:35:56Z</time>
      </trkpt>
      <trkpt lat="44.97336" lon="6.11855">
        <ele>1290.4</ele>
        <time>2024-08-14T12:35:57Z</time>
      </trkpt>
      <trkpt lat="44.97336" lon="6.11855">
        <ele>1290</ele>
        <time>2024-08-14T12:35:58Z</time>
      </trkpt>
      <trkpt lat="44.97338" lon="6.11857">
        <ele>1289.8</ele>
        <time>2024-08-14T12:35:59Z</time>
      </trkpt>
      <trkpt lat="44.97338" lon="6.11857">
        <ele>1289.8</ele>
        <time>2024-08-14T12:36:00Z</time>
      </trkpt>
      <trkpt lat="44.9734" lon="6.11858">
        <ele>1289.6</ele>
        <time>2024-08-14T12:36:01Z</time>
      </trkpt>
      <trkpt lat="44.97341" lon="6.11859">
        <ele>1289</ele>
        <time>2024-08-14T12:36:02Z</time>
      </trkpt>
      <trkpt lat="44.97342" lon="6.1186">
        <ele>1289</ele>
        <time>2024-08-14T12:36:03Z</time>
      </trkpt>
      <trkpt lat="44.97343" lon="6.11861">
        <ele>1288.6</ele>
        <time>2024-08-14T12:36:04Z</time>
      </trkpt>
      <trkpt lat="44.97345" lon="6.11863">
        <ele>1288.6</ele>
        <time>2024-08-14T12:36:05Z</time>
      </trkpt>
      <trkpt lat="44.97345" lon="6.11863">
        <ele>1288.6</ele>
        <time>2024-08-14T12:36:06Z</time>
      </trkpt>
      <trkpt lat="44.97347" lon="6.11865">
        <ele>1288.6</ele>
        <time>2024-08-14T12:36:07Z</time>
      </trkpt>
      <trkpt lat="44.97347" lon="6.11865">
        <ele>1288.8</ele>
        <time>2024-08-14T12:36:08Z</time>
      </trkpt>
      <trkpt lat="44.97349" lon="6.11867">
        <ele>1288.8</ele>
        <time>2024-08-14T12:36:09Z</time>
      </trkpt>
      <trkpt lat="44.97349" lon="6.11867">
        <ele>1288.6</ele>
        <time>2024-08-14T12:36:10Z</time>
      </trkpt>
      <trkpt lat="44.97351" lon="6.11869">
        <ele>1288.2</ele>
        <time>2024-08-14T12:36:11Z</time>
      </trkpt>
      <trkpt lat="44.97351" lon="6.11869">
        <ele>1288</ele>
        <time>2024-08-14T12:36:12Z</time>
      </trkpt>
      <trkpt lat="44.97352" lon="6.1187">
        <ele>1287.8</ele>
        <time>2024-08-14T12:36:13Z</time>
      </trkpt>
      <trkpt lat="44.97352" lon="6.1187">
        <ele>1287.4</ele>
        <time>2024-08-14T12:36:14Z</time>
      </trkpt>
      <trkpt lat="44.97352" lon="6.1187">
        <ele>1287.2</ele>
        <time>2024-08-14T12:36:15Z</time>
      </trkpt>
      <trkpt lat="44.97354" lon="6.11873">
        <ele>1287</ele>
        <time>2024-08-14T12:36:16Z</time>
      </trkpt>
      <trkpt lat="44.97354" lon="6.11873">
        <ele>1287</ele>
        <time>2024-08-14T12:36:17Z</time>
      </trkpt>
      <trkpt lat="44.97356" lon="6.11874">
        <ele>1286.6</ele>
        <time>2024-08-14T12:36:18Z</time>
      </trkpt>
      <trkpt lat="44.97356" lon="6.11874">
        <ele>1286.2</ele>
        <time>2024-08-14T12:36:19Z</time>
      </trkpt>
      <trkpt lat="44.97357" lon="6.11876">
        <ele>1286</ele>
        <time>2024-08-14T12:36:20Z</time>
      </trkpt>
      <trkpt lat="44.97357" lon="6.11876">
        <ele>1285.6</ele>
        <time>2024-08-14T12:36:21Z</time>
      </trkpt>
      <trkpt lat="44.97357" lon="6.11876">
        <ele>1285.4</ele>
        <time>2024-08-14T12:36:22Z</time>
      </trkpt>
      <trkpt lat="44.9736" lon="6.11878">
        <ele>1285.4</ele>
        <time>2024-08-14T12:36:23Z</time>
      </trkpt>
      <trkpt lat="44.9736" lon="6.11878">
        <ele>1285.2</ele>
        <time>2024-08-14T12:36:24Z</time>
      </trkpt>
      <trkpt lat="44.97362" lon="6.1188">
        <ele>1285</ele>
        <time>2024-08-14T12:36:25Z</time>
      </trkpt>
      <trkpt lat="44.97362" lon="6.1188">
        <ele>1284.6</ele>
        <time>2024-08-14T12:36:26Z</time>
      </trkpt>
      <trkpt lat="44.97362" lon="6.1188">
        <ele>1284.2</ele>
        <time>2024-08-14T12:36:27Z</time>
      </trkpt>
      <trkpt lat="44.97363" lon="6.11883">
        <ele>1284</ele>
        <time>2024-08-14T12:36:28Z</time>
      </trkpt>
      <trkpt lat="44.97363" lon="6.11883">
        <ele>1283.6</ele>
        <time>2024-08-14T12:36:29Z</time>
      </trkpt>
      <trkpt lat="44.97365" lon="6.11883">
        <ele>1283.6</ele>
        <time>2024-08-14T12:36:30Z</time>
      </trkpt>
      <trkpt lat="44.97365" lon="6.11883">
        <ele>1283.4</ele>
        <time>2024-08-14T12:36:31Z</time>
      </trkpt>
      <trkpt lat="44.97367" lon="6.11885">
        <ele>1283.4</ele>
        <time>2024-08-14T12:36:32Z</time>
      </trkpt>
      <trkpt lat="44.97367" lon="6.11885">
        <ele>1282.8</ele>
        <time>2024-08-14T12:36:33Z</time>
      </trkpt>
      <trkpt lat="44.97368" lon="6.11886">
        <ele>1282.4</ele>
        <time>2024-08-14T12:36:34Z</time>
      </trkpt>
      <trkpt lat="44.97368" lon="6.11886">
        <ele>1282.4</ele>
        <time>2024-08-14T12:36:35Z</time>
      </trkpt>
      <trkpt lat="44.9737" lon="6.11887">
        <ele>1282.2</ele>
        <time>2024-08-14T12:36:36Z</time>
      </trkpt>
      <trkpt lat="44.9737" lon="6.11887">
        <ele>1281.8</ele>
        <time>2024-08-14T12:36:37Z</time>
      </trkpt>
      <trkpt lat="44.9737" lon="6.11887">
        <ele>1281.8</ele>
        <time>2024-08-14T12:36:38Z</time>
      </trkpt>
      <trkpt lat="44.97373" lon="6.1189">
        <ele>1281.6</ele>
        <time>2024-08-14T12:36:39Z</time>
      </trkpt>
      <trkpt lat="44.97373" lon="6.1189">
        <ele>1281.2</ele>
        <time>2024-08-14T12:36:40Z</time>
      </trkpt>
      <trkpt lat="44.97374" lon="6.11892">
        <ele>1281</ele>
        <time>2024-08-14T12:36:41Z</time>
      </trkpt>
      <trkpt lat="44.97374" lon="6.11892">
        <ele>1280.6</ele>
        <time>2024-08-14T12:36:42Z</time>
      </trkpt>
      <trkpt lat="44.97374" lon="6.11892">
        <ele>1280.2</ele>
        <time>2024-08-14T12:36:43Z</time>
      </trkpt>
      <trkpt lat="44.97376" lon="6.11893">
        <ele>1280</ele>
        <time>2024-08-14T12:36:44Z</time>
      </trkpt>
      <trkpt lat="44.97376" lon="6.11893">
        <ele>1280</ele>
        <time>2024-08-14T12:36:45Z</time>
      </trkpt>
      <trkpt lat="44.97376" lon="6.11893">
        <ele>1279.8</ele>
        <time>2024-08-14T12:36:46Z</time>
      </trkpt>
      <trkpt lat="44.97379" lon="6.11894">
        <ele>1279.6</ele>
        <time>2024-08-14T12:36:47Z</time>
      </trkpt>
      <trkpt lat="44.97379" lon="6.11894">
        <ele>1278.8</ele>
        <time>2024-08-14T12:36:48Z</time>
      </trkpt>
      <trkpt lat="44.97381" lon="6.11896">
        <ele>1278.6</ele>
        <time>2024-08-14T12:36:49Z</time>
      </trkpt>
      <trkpt lat="44.97381" lon="6.11896">
        <ele>1278.6</ele>
        <time>2024-08-14T12:36:50Z</time>
      </trkpt>
      <trkpt lat="44.97383" lon="6.11898">
        <ele>1278.2</ele>
        <time>2024-08-14T12:36:51Z</time>
      </trkpt>
      <trkpt lat="44.97383" lon="6.11898">
        <ele>1278</ele>
        <time>2024-08-14T12:36:52Z</time>
      </trkpt>
      <trkpt lat="44.97386" lon="6.11901">
        <ele>1277.6</ele>
        <time>2024-08-14T12:36:53Z</time>
      </trkpt>
      <trkpt lat="44.97386" lon="6.11901">
        <ele>1277.4</ele>
        <time>2024-08-14T12:36:54Z</time>
      </trkpt>
      <trkpt lat="44.97386" lon="6.11901">
        <ele>1277.4</ele>
        <time>2024-08-14T12:36:55Z</time>
      </trkpt>
      <trkpt lat="44.97386" lon="6.11901">
        <ele>1277.2</ele>
        <time>2024-08-14T12:36:56Z</time>
      </trkpt>
      <trkpt lat="44.97387" lon="6.11904">
        <ele>1276.8</ele>
        <time>2024-08-14T12:36:57Z</time>
      </trkpt>
      <trkpt lat="44.97387" lon="6.11904">
        <ele>1276.6</ele>
        <time>2024-08-14T12:36:58Z</time>
      </trkpt>
      <trkpt lat="44.97387" lon="6.11904">
        <ele>1276.4</ele>
        <time>2024-08-14T12:36:59Z</time>
      </trkpt>
      <trkpt lat="44.97389" lon="6.11906">
        <ele>1276</ele>
        <time>2024-08-14T12:37:00Z</time>
      </trkpt>
      <trkpt lat="44.97389" lon="6.11906">
        <ele>1275.6</ele>
        <time>2024-08-14T12:37:01Z</time>
      </trkpt>
      <trkpt lat="44.97391" lon="6.11907">
        <ele>1275.2</ele>
        <time>2024-08-14T12:37:02Z</time>
      </trkpt>
      <trkpt lat="44.97391" lon="6.11907">
        <ele>1274.8</ele>
        <time>2024-08-14T12:37:03Z</time>
      </trkpt>
      <trkpt lat="44.97392" lon="6.11908">
        <ele>1274.4</ele>
        <time>2024-08-14T12:37:04Z</time>
      </trkpt>
      <trkpt lat="44.97392" lon="6.11908">
        <ele>1274.2</ele>
        <time>2024-08-14T12:37:05Z</time>
      </trkpt>
      <trkpt lat="44.97394" lon="6.11908">
        <ele>1274</ele>
        <time>2024-08-14T12:37:06Z</time>
      </trkpt>
      <trkpt lat="44.97394" lon="6.11908">
        <ele>1273.8</ele>
        <time>2024-08-14T12:37:07Z</time>
      </trkpt>
      <trkpt lat="44.97394" lon="6.11908">
        <ele>1273.4</ele>
        <time>2024-08-14T12:37:08Z</time>
      </trkpt>
      <trkpt lat="44.97397" lon="6.11909">
        <ele>1273</ele>
        <time>2024-08-14T12:37:09Z</time>
      </trkpt>
      <trkpt lat="44.97397" lon="6.11909">
        <ele>1272.6</ele>
        <time>2024-08-14T12:37:10Z</time>
      </trkpt>
      <trkpt lat="44.974" lon="6.1191">
        <ele>1272.2</ele>
        <time>2024-08-14T12:37:11Z</time>
      </trkpt>
      <trkpt lat="44.974" lon="6.1191">
        <ele>1271.8</ele>
        <time>2024-08-14T12:37:12Z</time>
      </trkpt>
      <trkpt lat="44.97402" lon="6.11911">
        <ele>1271.6</ele>
        <time>2024-08-14T12:37:13Z</time>
      </trkpt>
      <trkpt lat="44.97402" lon="6.11911">
        <ele>1271.4</ele>
        <time>2024-08-14T12:37:14Z</time>
      </trkpt>
      <trkpt lat="44.97405" lon="6.11911">
        <ele>1271</ele>
        <time>2024-08-14T12:37:15Z</time>
      </trkpt>
      <trkpt lat="44.97405" lon="6.11911">
        <ele>1270.8</ele>
        <time>2024-08-14T12:37:16Z</time>
      </trkpt>
      <trkpt lat="44.97407" lon="6.11911">
        <ele>1270.8</ele>
        <time>2024-08-14T12:37:17Z</time>
      </trkpt>
      <trkpt lat="44.97407" lon="6.11911">
        <ele>1270.6</ele>
        <time>2024-08-14T12:37:18Z</time>
      </trkpt>
      <trkpt lat="44.97409" lon="6.1191">
        <ele>1270.2</ele>
        <time>2024-08-14T12:37:19Z</time>
      </trkpt>
      <trkpt lat="44.97409" lon="6.1191">
        <ele>1270.2</ele>
        <time>2024-08-14T12:37:20Z</time>
      </trkpt>
      <trkpt lat="44.97411" lon="6.1191">
        <ele>1270.2</ele>
        <time>2024-08-14T12:37:21Z</time>
      </trkpt>
      <trkpt lat="44.97411" lon="6.1191">
        <ele>1270.2</ele>
        <time>2024-08-14T12:37:22Z</time>
      </trkpt>
      <trkpt lat="44.97414" lon="6.11909">
        <ele>1270.2</ele>
        <time>2024-08-14T12:37:23Z</time>
      </trkpt>
      <trkpt lat="44.97414" lon="6.11909">
        <ele>1270.2</ele>
        <time>2024-08-14T12:37:24Z</time>
      </trkpt>
      <trkpt lat="44.97414" lon="6.11909">
        <ele>1270.2</ele>
        <time>2024-08-14T12:37:25Z</time>
      </trkpt>
      <trkpt lat="44.97417" lon="6.11909">
        <ele>1270.2</ele>
        <time>2024-08-14T12:37:26Z</time>
      </trkpt>
      <trkpt lat="44.97417" lon="6.11909">
        <ele>1270</ele>
        <time>2024-08-14T12:37:27Z</time>
      </trkpt>
      <trkpt lat="44.97419" lon="6.11909">
        <ele>1270</ele>
        <time>2024-08-14T12:37:28Z</time>
      </trkpt>
      <trkpt lat="44.97419" lon="6.11909">
        <ele>1269.4</ele>
        <time>2024-08-14T12:37:29Z</time>
      </trkpt>
      <trkpt lat="44.97421" lon="6.11909">
        <ele>1268.8</ele>
        <time>2024-08-14T12:37:30Z</time>
      </trkpt>
      <trkpt lat="44.97421" lon="6.11909">
        <ele>1268.6</ele>
        <time>2024-08-14T12:37:31Z</time>
      </trkpt>
      <trkpt lat="44.97421" lon="6.11909">
        <ele>1268.6</ele>
        <time>2024-08-14T12:37:32Z</time>
      </trkpt>
      <trkpt lat="44.97423" lon="6.11908">
        <ele>1268.2</ele>
        <time>2024-08-14T12:37:33Z</time>
      </trkpt>
      <trkpt lat="44.97423" lon="6.11908">
        <ele>1268</ele>
        <time>2024-08-14T12:37:34Z</time>
      </trkpt>
      <trkpt lat="44.97426" lon="6.11907">
        <ele>1267.4</ele>
        <time>2024-08-14T12:37:35Z</time>
      </trkpt>
      <trkpt lat="44.97426" lon="6.11907">
        <ele>1267</ele>
        <time>2024-08-14T12:37:36Z</time>
      </trkpt>
      <trkpt lat="44.97428" lon="6.11907">
        <ele>1266.8</ele>
        <time>2024-08-14T12:37:37Z</time>
      </trkpt>
      <trkpt lat="44.97428" lon="6.11907">
        <ele>1266.4</ele>
        <time>2024-08-14T12:37:38Z</time>
      </trkpt>
      <trkpt lat="44.97431" lon="6.11907">
        <ele>1266.2</ele>
        <time>2024-08-14T12:37:39Z</time>
      </trkpt>
      <trkpt lat="44.97431" lon="6.11907">
        <ele>1265.8</ele>
        <time>2024-08-14T12:37:40Z</time>
      </trkpt>
      <trkpt lat="44.97434" lon="6.11907">
        <ele>1265.6</ele>
        <time>2024-08-14T12:37:41Z</time>
      </trkpt>
      <trkpt lat="44.97434" lon="6.11907">
        <ele>1265.4</ele>
        <time>2024-08-14T12:37:42Z</time>
      </trkpt>
      <trkpt lat="44.97436" lon="6.11908">
        <ele>1265</ele>
        <time>2024-08-14T12:37:43Z</time>
      </trkpt>
      <trkpt lat="44.97436" lon="6.11908">
        <ele>1264.6</ele>
        <time>2024-08-14T12:37:44Z</time>
      </trkpt>
      <trkpt lat="44.97436" lon="6.11908">
        <ele>1264.6</ele>
        <time>2024-08-14T12:37:45Z</time>
      </trkpt>
      <trkpt lat="44.97436" lon="6.11908">
        <ele>1264.6</ele>
        <time>2024-08-14T12:37:46Z</time>
      </trkpt>
      <trkpt lat="44.97436" lon="6.11908">
        <ele>1264.4</ele>
        <time>2024-08-14T12:37:47Z</time>
      </trkpt>
      <trkpt lat="44.97436" lon="6.11908">
        <ele>1264.4</ele>
        <time>2024-08-14T12:37:48Z</time>
      </trkpt>
      <trkpt lat="44.97436" lon="6.11908">
        <ele>1264.2</ele>
        <time>2024-08-14T12:37:49Z</time>
      </trkpt>
      <trkpt lat="44.97436" lon="6.11908">
        <ele>1264.2</ele>
        <time>2024-08-14T12:37:50Z</time>
      </trkpt>
      <trkpt lat="44.97436" lon="6.11908">
        <ele>1264.2</ele>
        <time>2024-08-14T12:37:51Z</time>
      </trkpt>
      <trkpt lat="44.97437" lon="6.11908">
        <ele>1264.2</ele>
        <time>2024-08-14T12:37:52Z</time>
      </trkpt>
      <trkpt lat="44.97437" lon="6.11908">
        <ele>1264.2</ele>
        <time>2024-08-14T12:37:53Z</time>
      </trkpt>
      <trkpt lat="44.97437" lon="6.11908">
        <ele>1264.2</ele>
        <time>2024-08-14T12:37:54Z</time>
      </trkpt>
      <trkpt lat="44.97436" lon="6.1191">
        <ele>1264.2</ele>
        <time>2024-08-14T12:37:55Z</time>
      </trkpt>
      <trkpt lat="44.97436" lon="6.1191">
        <ele>1264</ele>
        <time>2024-08-14T12:37:56Z</time>
      </trkpt>
      <trkpt lat="44.97436" lon="6.1191">
        <ele>1263.8</ele>
        <time>2024-08-14T12:37:57Z</time>
      </trkpt>
      <trkpt lat="44.97436" lon="6.1191">
        <ele>1264</ele>
        <time>2024-08-14T12:37:58Z</time>
      </trkpt>
      <trkpt lat="44.97436" lon="6.1191">
        <ele>1264</ele>
        <time>2024-08-14T12:37:59Z</time>
      </trkpt>
      <trkpt lat="44.97436" lon="6.1191">
        <ele>1264</ele>
        <time>2024-08-14T12:38:00Z</time>
      </trkpt>
      <trkpt lat="44.97435" lon="6.11911">
        <ele>1263.8</ele>
        <time>2024-08-14T12:38:01Z</time>
      </trkpt>
      <trkpt lat="44.97433" lon="6.11912">
        <ele>1263.8</ele>
        <time>2024-08-14T12:38:02Z</time>
      </trkpt>
      <trkpt lat="44.97431" lon="6.11914">
        <ele>1263.8</ele>
        <time>2024-08-14T12:38:03Z</time>
      </trkpt>
      <trkpt lat="44.97431" lon="6.11914">
        <ele>1264</ele>
        <time>2024-08-14T12:38:04Z</time>
      </trkpt>
      <trkpt lat="44.97429" lon="6.11916">
        <ele>1264</ele>
        <time>2024-08-14T12:38:05Z</time>
      </trkpt>
      <trkpt lat="44.97429" lon="6.11916">
        <ele>1263.8</ele>
        <time>2024-08-14T12:38:06Z</time>
      </trkpt>
      <trkpt lat="44.97429" lon="6.11916">
        <ele>1263.8</ele>
        <time>2024-08-14T12:38:07Z</time>
      </trkpt>
      <trkpt lat="44.97429" lon="6.11916">
        <ele>1263.8</ele>
        <time>2024-08-14T12:38:08Z</time>
      </trkpt>
      <trkpt lat="44.97429" lon="6.11916">
        <ele>1263.8</ele>
        <time>2024-08-14T12:38:09Z</time>
      </trkpt>
      <trkpt lat="44.97429" lon="6.11916">
        <ele>1263.8</ele>
        <time>2024-08-14T12:38:10Z</time>
      </trkpt>
      <trkpt lat="44.97429" lon="6.11916">
        <ele>1263.8</ele>
        <time>2024-08-14T12:38:11Z</time>
      </trkpt>
      <trkpt lat="44.97429" lon="6.11916">
        <ele>1263.8</ele>
        <time>2024-08-14T12:38:12Z</time>
      </trkpt>
      <trkpt lat="44.97429" lon="6.11916">
        <ele>1263.8</ele>
        <time>2024-08-14T12:38:13Z</time>
      </trkpt>
      <trkpt lat="44.97429" lon="6.11916">
        <ele>1263.8</ele>
        <time>2024-08-14T12:38:14Z</time>
      </trkpt>
      <trkpt lat="44.97429" lon="6.11916">
        <ele>1263.6</ele>
        <time>2024-08-14T12:38:15Z</time>
      </trkpt>
      <trkpt lat="44.97429" lon="6.11916">
        <ele>1263.6</ele>
        <time>2024-08-14T12:38:16Z</time>
      </trkpt>
      <trkpt lat="44.97429" lon="6.11916">
        <ele>1263.6</ele>
        <time>2024-08-14T12:38:17Z</time>
      </trkpt>
      <trkpt lat="44.97429" lon="6.11916">
        <ele>1263.6</ele>
        <time>2024-08-14T12:38:18Z</time>
      </trkpt>
      <trkpt lat="44.97429" lon="6.11916">
        <ele>1263.8</ele>
        <time>2024-08-14T12:38:19Z</time>
      </trkpt>
      <trkpt lat="44.97429" lon="6.11916">
        <ele>1263.8</ele>
        <time>2024-08-14T12:38:20Z</time>
      </trkpt>
      <trkpt lat="44.97429" lon="6.11916">
        <ele>1263.8</ele>
        <time>2024-08-14T12:38:21Z</time>
      </trkpt>
      <trkpt lat="44.97429" lon="6.11916">
        <ele>1263.8</ele>
        <time>2024-08-14T12:38:22Z</time>
      </trkpt>
      <trkpt lat="44.97429" lon="6.11916">
        <ele>1264</ele>
        <time>2024-08-14T12:38:23Z</time>
      </trkpt>
      <trkpt lat="44.97429" lon="6.11916">
        <ele>1264.2</ele>
        <time>2024-08-14T12:38:24Z</time>
      </trkpt>
      <trkpt lat="44.97429" lon="6.11916">
        <ele>1264.2</ele>
        <time>2024-08-14T12:38:25Z</time>
      </trkpt>
      <trkpt lat="44.97429" lon="6.11916">
        <ele>1264</ele>
        <time>2024-08-14T12:38:26Z</time>
      </trkpt>
      <trkpt lat="44.97429" lon="6.11916">
        <ele>1264</ele>
        <time>2024-08-14T12:38:27Z</time>
      </trkpt>
      <trkpt lat="44.97429" lon="6.11916">
        <ele>1264</ele>
        <time>2024-08-14T12:38:28Z</time>
      </trkpt>
      <trkpt lat="44.97429" lon="6.11916">
        <ele>1264</ele>
        <time>2024-08-14T12:38:29Z</time>
      </trkpt>
      <trkpt lat="44.97429" lon="6.11916">
        <ele>1264</ele>
        <time>2024-08-14T12:38:30Z</time>
      </trkpt>
      <trkpt lat="44.97429" lon="6.11916">
        <ele>1264</ele>
        <time>2024-08-14T12:38:31Z</time>
      </trkpt>
      <trkpt lat="44.97429" lon="6.11916">
        <ele>1264</ele>
        <time>2024-08-14T12:38:32Z</time>
      </trkpt>
      <trkpt lat="44.97429" lon="6.11916">
        <ele>1264</ele>
        <time>2024-08-14T12:38:33Z</time>
      </trkpt>
      <trkpt lat="44.97429" lon="6.11916">
        <ele>1263.8</ele>
        <time>2024-08-14T12:38:34Z</time>
      </trkpt>
      <trkpt lat="44.97429" lon="6.11916">
        <ele>1263.6</ele>
        <time>2024-08-14T12:38:35Z</time>
      </trkpt>
      <trkpt lat="44.97429" lon="6.11916">
        <ele>1263.4</ele>
        <time>2024-08-14T12:38:36Z</time>
      </trkpt>
      <trkpt lat="44.97429" lon="6.11916">
        <ele>1263.4</ele>
        <time>2024-08-14T12:38:37Z</time>
      </trkpt>
      <trkpt lat="44.97429" lon="6.11916">
        <ele>1263.4</ele>
        <time>2024-08-14T12:38:38Z</time>
      </trkpt>
      <trkpt lat="44.97429" lon="6.11916">
        <ele>1263.6</ele>
        <time>2024-08-14T12:38:39Z</time>
      </trkpt>
      <trkpt lat="44.97429" lon="6.11916">
        <ele>1264</ele>
        <time>2024-08-14T12:38:40Z</time>
      </trkpt>
      <trkpt lat="44.97429" lon="6.11916">
        <ele>1264</ele>
        <time>2024-08-14T12:38:41Z</time>
      </trkpt>
      <trkpt lat="44.97429" lon="6.11916">
        <ele>1264</ele>
        <time>2024-08-14T12:38:42Z</time>
      </trkpt>
      <trkpt lat="44.97429" lon="6.11916">
        <ele>1263.8</ele>
        <time>2024-08-14T12:38:43Z</time>
      </trkpt>
      <trkpt lat="44.97429" lon="6.11916">
        <ele>1264</ele>
        <time>2024-08-14T12:38:44Z</time>
      </trkpt>
      <trkpt lat="44.97429" lon="6.11916">
        <ele>1263.8</ele>
        <time>2024-08-14T12:38:45Z</time>
      </trkpt>
      <trkpt lat="44.97429" lon="6.11916">
        <ele>1263.8</ele>
        <time>2024-08-14T12:38:46Z</time>
      </trkpt>
      <trkpt lat="44.97429" lon="6.11916">
        <ele>1263.6</ele>
        <time>2024-08-14T12:38:47Z</time>
      </trkpt>
      <trkpt lat="44.97429" lon="6.11916">
        <ele>1263.6</ele>
        <time>2024-08-14T12:38:48Z</time>
      </trkpt>
      <trkpt lat="44.97429" lon="6.11916">
        <ele>1263.6</ele>
        <time>2024-08-14T12:38:49Z</time>
      </trkpt>
      <trkpt lat="44.97429" lon="6.11916">
        <ele>1263.6</ele>
        <time>2024-08-14T12:38:50Z</time>
      </trkpt>
      <trkpt lat="44.97429" lon="6.11916">
        <ele>1263.6</ele>
        <time>2024-08-14T12:38:51Z</time>
      </trkpt>
      <trkpt lat="44.97429" lon="6.11916">
        <ele>1263.6</ele>
        <time>2024-08-14T12:38:52Z</time>
      </trkpt>
      <trkpt lat="44.97429" lon="6.11916">
        <ele>1263.4</ele>
        <time>2024-08-14T12:38:53Z</time>
      </trkpt>
      <trkpt lat="44.97429" lon="6.11916">
        <ele>1263.2</ele>
        <time>2024-08-14T12:38:54Z</time>
      </trkpt>
      <trkpt lat="44.97429" lon="6.11916">
        <ele>1263.2</ele>
        <time>2024-08-14T12:38:55Z</time>
      </trkpt>
      <trkpt lat="44.97429" lon="6.11916">
        <ele>1263.2</ele>
        <time>2024-08-14T12:38:56Z</time>
      </trkpt>
      <trkpt lat="44.97429" lon="6.11916">
        <ele>1263.2</ele>
        <time>2024-08-14T12:38:57Z</time>
      </trkpt>
      <trkpt lat="44.97429" lon="6.11916">
        <ele>1263</ele>
        <time>2024-08-14T12:38:58Z</time>
      </trkpt>
      <trkpt lat="44.97429" lon="6.11916">
        <ele>1262.8</ele>
        <time>2024-08-14T12:38:59Z</time>
      </trkpt>
      <trkpt lat="44.97429" lon="6.11916">
        <ele>1262.6</ele>
        <time>2024-08-14T12:39:00Z</time>
      </trkpt>
      <trkpt lat="44.97429" lon="6.11916">
        <ele>1262.6</ele>
        <time>2024-08-14T12:39:01Z</time>
      </trkpt>
      <trkpt lat="44.97429" lon="6.11916">
        <ele>1262.6</ele>
        <time>2024-08-14T12:39:02Z</time>
      </trkpt>
      <trkpt lat="44.97429" lon="6.11916">
        <ele>1262.6</ele>
        <time>2024-08-14T12:39:03Z</time>
      </trkpt>
      <trkpt lat="44.97429" lon="6.11916">
        <ele>1262.6</ele>
        <time>2024-08-14T12:39:04Z</time>
      </trkpt>
      <trkpt lat="44.97429" lon="6.11916">
        <ele>1262.6</ele>
        <time>2024-08-14T12:39:05Z</time>
      </trkpt>
      <trkpt lat="44.97429" lon="6.11916">
        <ele>1262.6</ele>
        <time>2024-08-14T12:39:06Z</time>
      </trkpt>
      <trkpt lat="44.97429" lon="6.11916">
        <ele>1262.6</ele>
        <time>2024-08-14T12:39:07Z</time>
      </trkpt>
      <trkpt lat="44.97429" lon="6.11916">
        <ele>1262.6</ele>
        <time>2024-08-14T12:39:08Z</time>
      </trkpt>
      <trkpt lat="44.97429" lon="6.11916">
        <ele>1262.6</ele>
        <time>2024-08-14T12:39:09Z</time>
      </trkpt>
      <trkpt lat="44.97429" lon="6.11916">
        <ele>1263</ele>
        <time>2024-08-14T12:39:10Z</time>
      </trkpt>
      <trkpt lat="44.97429" lon="6.11916">
        <ele>1263.4</ele>
        <time>2024-08-14T12:39:11Z</time>
      </trkpt>
      <trkpt lat="44.97429" lon="6.11916">
        <ele>1263.6</ele>
        <time>2024-08-14T12:39:12Z</time>
      </trkpt>
      <trkpt lat="44.97429" lon="6.11916">
        <ele>1263.6</ele>
        <time>2024-08-14T12:39:13Z</time>
      </trkpt>
      <trkpt lat="44.97429" lon="6.11916">
        <ele>1263.6</ele>
        <time>2024-08-14T12:39:14Z</time>
      </trkpt>
      <trkpt lat="44.97429" lon="6.11916">
        <ele>1263.6</ele>
        <time>2024-08-14T12:39:15Z</time>
      </trkpt>
      <trkpt lat="44.97429" lon="6.11916">
        <ele>1263.6</ele>
        <time>2024-08-14T12:39:16Z</time>
      </trkpt>
      <trkpt lat="44.97429" lon="6.11916">
        <ele>1263.4</ele>
        <time>2024-08-14T12:39:17Z</time>
      </trkpt>
      <trkpt lat="44.97429" lon="6.11916">
        <ele>1263</ele>
        <time>2024-08-14T12:39:18Z</time>
      </trkpt>
      <trkpt lat="44.97429" lon="6.11916">
        <ele>1262.6</ele>
        <time>2024-08-14T12:39:19Z</time>
      </trkpt>
      <trkpt lat="44.97429" lon="6.11916">
        <ele>1262.2</ele>
        <time>2024-08-14T12:39:20Z</time>
      </trkpt>
      <trkpt lat="44.97429" lon="6.11916">
        <ele>1262.2</ele>
        <time>2024-08-14T12:39:21Z</time>
      </trkpt>
      <trkpt lat="44.97429" lon="6.11916">
        <ele>1262.2</ele>
        <time>2024-08-14T12:39:22Z</time>
      </trkpt>
      <trkpt lat="44.97429" lon="6.11916">
        <ele>1262.4</ele>
        <time>2024-08-14T12:39:23Z</time>
      </trkpt>
      <trkpt lat="44.97429" lon="6.11916">
        <ele>1262.4</ele>
        <time>2024-08-14T12:39:24Z</time>
      </trkpt>
      <trkpt lat="44.97429" lon="6.11916">
        <ele>1262.4</ele>
        <time>2024-08-14T12:39:25Z</time>
      </trkpt>
      <trkpt lat="44.97429" lon="6.11916">
        <ele>1262.4</ele>
        <time>2024-08-14T12:39:26Z</time>
      </trkpt>
      <trkpt lat="44.97427" lon="6.11917">
        <ele>1262.6</ele>
        <time>2024-08-14T12:39:27Z</time>
      </trkpt>
      <trkpt lat="44.97427" lon="6.11917">
        <ele>1262.6</ele>
        <time>2024-08-14T12:39:28Z</time>
      </trkpt>
      <trkpt lat="44.97425" lon="6.11918">
        <ele>1262.2</ele>
        <time>2024-08-14T12:39:29Z</time>
      </trkpt>
      <trkpt lat="44.97425" lon="6.11918">
        <ele>1262.2</ele>
        <time>2024-08-14T12:39:30Z</time>
      </trkpt>
      <trkpt lat="44.97425" lon="6.11918">
        <ele>1262.2</ele>
        <time>2024-08-14T12:39:31Z</time>
      </trkpt>
      <trkpt lat="44.97425" lon="6.11918">
        <ele>1262.2</ele>
        <time>2024-08-14T12:39:32Z</time>
      </trkpt>
      <trkpt lat="44.97425" lon="6.11918">
        <ele>1262.4</ele>
        <time>2024-08-14T12:39:33Z</time>
      </trkpt>
      <trkpt lat="44.97425" lon="6.11918">
        <ele>1262.4</ele>
        <time>2024-08-14T12:39:34Z</time>
      </trkpt>
      <trkpt lat="44.97425" lon="6.11918">
        <ele>1262.8</ele>
        <time>2024-08-14T12:39:35Z</time>
      </trkpt>
      <trkpt lat="44.97425" lon="6.11918">
        <ele>1262.8</ele>
        <time>2024-08-14T12:39:36Z</time>
      </trkpt>
      <trkpt lat="44.97425" lon="6.11918">
        <ele>1262.8</ele>
        <time>2024-08-14T12:39:37Z</time>
      </trkpt>
      <trkpt lat="44.97425" lon="6.11918">
        <ele>1262.6</ele>
        <time>2024-08-14T12:39:38Z</time>
      </trkpt>
      <trkpt lat="44.97425" lon="6.11918">
        <ele>1262.6</ele>
        <time>2024-08-14T12:39:39Z</time>
      </trkpt>
      <trkpt lat="44.97425" lon="6.11918">
        <ele>1262.2</ele>
        <time>2024-08-14T12:39:40Z</time>
      </trkpt>
      <trkpt lat="44.97425" lon="6.11918">
        <ele>1262.2</ele>
        <time>2024-08-14T12:39:41Z</time>
      </trkpt>
      <trkpt lat="44.97425" lon="6.11918">
        <ele>1262.2</ele>
        <time>2024-08-14T12:39:42Z</time>
      </trkpt>
      <trkpt lat="44.97425" lon="6.11918">
        <ele>1262.2</ele>
        <time>2024-08-14T12:39:43Z</time>
      </trkpt>
      <trkpt lat="44.97425" lon="6.11918">
        <ele>1262.2</ele>
        <time>2024-08-14T12:39:44Z</time>
      </trkpt>
      <trkpt lat="44.97425" lon="6.11918">
        <ele>1262.2</ele>
        <time>2024-08-14T12:39:45Z</time>
      </trkpt>
      <trkpt lat="44.97425" lon="6.11918">
        <ele>1262.2</ele>
        <time>2024-08-14T12:39:46Z</time>
      </trkpt>
      <trkpt lat="44.97425" lon="6.11918">
        <ele>1262</ele>
        <time>2024-08-14T12:39:47Z</time>
      </trkpt>
      <trkpt lat="44.97425" lon="6.11918">
        <ele>1262</ele>
        <time>2024-08-14T12:39:48Z</time>
      </trkpt>
      <trkpt lat="44.97425" lon="6.11918">
        <ele>1262</ele>
        <time>2024-08-14T12:39:49Z</time>
      </trkpt>
      <trkpt lat="44.97425" lon="6.11918">
        <ele>1262</ele>
        <time>2024-08-14T12:39:50Z</time>
      </trkpt>
      <trkpt lat="44.97425" lon="6.11918">
        <ele>1262.2</ele>
        <time>2024-08-14T12:39:51Z</time>
      </trkpt>
      <trkpt lat="44.97425" lon="6.11918">
        <ele>1262.2</ele>
        <time>2024-08-14T12:39:52Z</time>
      </trkpt>
      <trkpt lat="44.97425" lon="6.11918">
        <ele>1262.2</ele>
        <time>2024-08-14T12:39:53Z</time>
      </trkpt>
      <trkpt lat="44.97425" lon="6.11918">
        <ele>1262.2</ele>
        <time>2024-08-14T12:39:54Z</time>
      </trkpt>
      <trkpt lat="44.97425" lon="6.11918">
        <ele>1262.4</ele>
        <time>2024-08-14T12:39:55Z</time>
      </trkpt>
      <trkpt lat="44.97425" lon="6.11918">
        <ele>1262.4</ele>
        <time>2024-08-14T12:39:56Z</time>
      </trkpt>
      <trkpt lat="44.97425" lon="6.11918">
        <ele>1262.4</ele>
        <time>2024-08-14T12:39:57Z</time>
      </trkpt>
      <trkpt lat="44.97425" lon="6.11918">
        <ele>1262.2</ele>
        <time>2024-08-14T12:39:58Z</time>
      </trkpt>
      <trkpt lat="44.97425" lon="6.11918">
        <ele>1262.2</ele>
        <time>2024-08-14T12:39:59Z</time>
      </trkpt>
      <trkpt lat="44.97425" lon="6.11918">
        <ele>1262.4</ele>
        <time>2024-08-14T12:40:00Z</time>
      </trkpt>
      <trkpt lat="44.97425" lon="6.11918">
        <ele>1262.6</ele>
        <time>2024-08-14T12:40:01Z</time>
      </trkpt>
      <trkpt lat="44.97425" lon="6.11918">
        <ele>1262.6</ele>
        <time>2024-08-14T12:40:02Z</time>
      </trkpt>
      <trkpt lat="44.97425" lon="6.11918">
        <ele>1262.6</ele>
        <time>2024-08-14T12:40:03Z</time>
      </trkpt>
      <trkpt lat="44.97425" lon="6.11918">
        <ele>1262.6</ele>
        <time>2024-08-14T12:40:04Z</time>
      </trkpt>
      <trkpt lat="44.97425" lon="6.11918">
        <ele>1262.8</ele>
        <time>2024-08-14T12:40:05Z</time>
      </trkpt>
      <trkpt lat="44.97425" lon="6.11918">
        <ele>1262.8</ele>
        <time>2024-08-14T12:40:06Z</time>
      </trkpt>
      <trkpt lat="44.97425" lon="6.11918">
        <ele>1262.6</ele>
        <time>2024-08-14T12:40:07Z</time>
      </trkpt>
      <trkpt lat="44.97425" lon="6.11918">
        <ele>1262.6</ele>
        <time>2024-08-14T12:40:08Z</time>
      </trkpt>
      <trkpt lat="44.97425" lon="6.11918">
        <ele>1262.8</ele>
        <time>2024-08-14T12:40:09Z</time>
      </trkpt>
      <trkpt lat="44.97425" lon="6.11918">
        <ele>1262.8</ele>
        <time>2024-08-14T12:40:10Z</time>
      </trkpt>
      <trkpt lat="44.97425" lon="6.11918">
        <ele>1262.8</ele>
        <time>2024-08-14T12:40:11Z</time>
      </trkpt>
      <trkpt lat="44.97425" lon="6.11918">
        <ele>1262.8</ele>
        <time>2024-08-14T12:40:12Z</time>
      </trkpt>
      <trkpt lat="44.97425" lon="6.11918">
        <ele>1262.6</ele>
        <time>2024-08-14T12:40:13Z</time>
      </trkpt>
      <trkpt lat="44.97425" lon="6.11918">
        <ele>1262.6</ele>
        <time>2024-08-14T12:40:14Z</time>
      </trkpt>
      <trkpt lat="44.97425" lon="6.11918">
        <ele>1262.8</ele>
        <time>2024-08-14T12:40:15Z</time>
      </trkpt>
      <trkpt lat="44.97425" lon="6.11918">
        <ele>1262.6</ele>
        <time>2024-08-14T12:40:16Z</time>
      </trkpt>
      <trkpt lat="44.97425" lon="6.11918">
        <ele>1262.6</ele>
        <time>2024-08-14T12:40:17Z</time>
      </trkpt>
      <trkpt lat="44.97425" lon="6.11918">
        <ele>1262.6</ele>
        <time>2024-08-14T12:40:18Z</time>
      </trkpt>
      <trkpt lat="44.97425" lon="6.11918">
        <ele>1262.6</ele>
        <time>2024-08-14T12:40:19Z</time>
      </trkpt>
      <trkpt lat="44.97425" lon="6.11918">
        <ele>1262.6</ele>
        <time>2024-08-14T12:40:20Z</time>
      </trkpt>
      <trkpt lat="44.97425" lon="6.11918">
        <ele>1262.8</ele>
        <time>2024-08-14T12:40:21Z</time>
      </trkpt>
      <trkpt lat="44.97425" lon="6.11918">
        <ele>1262.8</ele>
        <time>2024-08-14T12:40:22Z</time>
      </trkpt>
      <trkpt lat="44.97425" lon="6.11918">
        <ele>1262.8</ele>
        <time>2024-08-14T12:40:23Z</time>
      </trkpt>
      <trkpt lat="44.97425" lon="6.11918">
        <ele>1262.6</ele>
        <time>2024-08-14T12:40:24Z</time>
      </trkpt>
      <trkpt lat="44.97425" lon="6.11918">
        <ele>1262.4</ele>
        <time>2024-08-14T12:40:25Z</time>
      </trkpt>
      <trkpt lat="44.97425" lon="6.11918">
        <ele>1262.4</ele>
        <time>2024-08-14T12:40:26Z</time>
      </trkpt>
      <trkpt lat="44.97425" lon="6.11918">
        <ele>1262.4</ele>
        <time>2024-08-14T12:40:27Z</time>
      </trkpt>
      <trkpt lat="44.97425" lon="6.11918">
        <ele>1262.2</ele>
        <time>2024-08-14T12:40:28Z</time>
      </trkpt>
      <trkpt lat="44.97425" lon="6.11918">
        <ele>1262.6</ele>
        <time>2024-08-14T12:40:29Z</time>
      </trkpt>
      <trkpt lat="44.97425" lon="6.11918">
        <ele>1262.8</ele>
        <time>2024-08-14T12:40:30Z</time>
      </trkpt>
      <trkpt lat="44.97425" lon="6.11918">
        <ele>1262.8</ele>
        <time>2024-08-14T12:40:31Z</time>
      </trkpt>
      <trkpt lat="44.97425" lon="6.11918">
        <ele>1262.4</ele>
        <time>2024-08-14T12:40:32Z</time>
      </trkpt>
      <trkpt lat="44.97425" lon="6.11918">
        <ele>1262.2</ele>
        <time>2024-08-14T12:40:33Z</time>
      </trkpt>
      <trkpt lat="44.97425" lon="6.11918">
        <ele>1262.2</ele>
        <time>2024-08-14T12:40:34Z</time>
      </trkpt>
      <trkpt lat="44.97425" lon="6.11918">
        <ele>1262</ele>
        <time>2024-08-14T12:40:35Z</time>
      </trkpt>
      <trkpt lat="44.97425" lon="6.11918">
        <ele>1261.8</ele>
        <time>2024-08-14T12:40:36Z</time>
      </trkpt>
      <trkpt lat="44.97425" lon="6.11918">
        <ele>1261.8</ele>
        <time>2024-08-14T12:40:37Z</time>
      </trkpt>
      <trkpt lat="44.97425" lon="6.11918">
        <ele>1261.6</ele>
        <time>2024-08-14T12:40:38Z</time>
      </trkpt>
      <trkpt lat="44.97425" lon="6.11918">
        <ele>1261.6</ele>
        <time>2024-08-14T12:40:39Z</time>
      </trkpt>
      <trkpt lat="44.97425" lon="6.11918">
        <ele>1262.2</ele>
        <time>2024-08-14T12:40:40Z</time>
      </trkpt>
      <trkpt lat="44.97425" lon="6.11918">
        <ele>1262.2</ele>
        <time>2024-08-14T12:40:41Z</time>
      </trkpt>
      <trkpt lat="44.97425" lon="6.11918">
        <ele>1262.2</ele>
        <time>2024-08-14T12:40:42Z</time>
      </trkpt>
      <trkpt lat="44.97425" lon="6.11918">
        <ele>1262.2</ele>
        <time>2024-08-14T12:40:43Z</time>
      </trkpt>
      <trkpt lat="44.97425" lon="6.11918">
        <ele>1262</ele>
        <time>2024-08-14T12:40:44Z</time>
      </trkpt>
      <trkpt lat="44.97425" lon="6.11918">
        <ele>1261.6</ele>
        <time>2024-08-14T12:40:45Z</time>
      </trkpt>
      <trkpt lat="44.97425" lon="6.11918">
        <ele>1261.6</ele>
        <time>2024-08-14T12:40:46Z</time>
      </trkpt>
      <trkpt lat="44.97425" lon="6.11918">
        <ele>1261.8</ele>
        <time>2024-08-14T12:40:47Z</time>
      </trkpt>
      <trkpt lat="44.97425" lon="6.11918">
        <ele>1261.6</ele>
        <time>2024-08-14T12:40:48Z</time>
      </trkpt>
      <trkpt lat="44.97425" lon="6.11918">
        <ele>1261.6</ele>
        <time>2024-08-14T12:40:49Z</time>
      </trkpt>
      <trkpt lat="44.97425" lon="6.11918">
        <ele>1261.6</ele>
        <time>2024-08-14T12:40:50Z</time>
      </trkpt>
      <trkpt lat="44.97425" lon="6.11918">
        <ele>1261.6</ele>
        <time>2024-08-14T12:40:51Z</time>
      </trkpt>
      <trkpt lat="44.97425" lon="6.11918">
        <ele>1261.6</ele>
        <time>2024-08-14T12:40:52Z</time>
      </trkpt>
      <trkpt lat="44.97425" lon="6.11918">
        <ele>1261.8</ele>
        <time>2024-08-14T12:40:53Z</time>
      </trkpt>
      <trkpt lat="44.97425" lon="6.11918">
        <ele>1261.8</ele>
        <time>2024-08-14T12:40:54Z</time>
      </trkpt>
      <trkpt lat="44.97425" lon="6.11918">
        <ele>1261.4</ele>
        <time>2024-08-14T12:40:55Z</time>
      </trkpt>
      <trkpt lat="44.97425" lon="6.11918">
        <ele>1261.2</ele>
        <time>2024-08-14T12:40:56Z</time>
      </trkpt>
      <trkpt lat="44.97425" lon="6.11918">
        <ele>1261.2</ele>
        <time>2024-08-14T12:40:57Z</time>
      </trkpt>
      <trkpt lat="44.97425" lon="6.11918">
        <ele>1261.4</ele>
        <time>2024-08-14T12:40:58Z</time>
      </trkpt>
      <trkpt lat="44.97425" lon="6.11918">
        <ele>1261.4</ele>
        <time>2024-08-14T12:40:59Z</time>
      </trkpt>
      <trkpt lat="44.97425" lon="6.11918">
        <ele>1261.4</ele>
        <time>2024-08-14T12:41:00Z</time>
      </trkpt>
      <trkpt lat="44.97425" lon="6.11918">
        <ele>1261.4</ele>
        <time>2024-08-14T12:41:01Z</time>
      </trkpt>
      <trkpt lat="44.97425" lon="6.11918">
        <ele>1261.2</ele>
        <time>2024-08-14T12:41:02Z</time>
      </trkpt>
      <trkpt lat="44.97425" lon="6.11918">
        <ele>1261.2</ele>
        <time>2024-08-14T12:41:03Z</time>
      </trkpt>
      <trkpt lat="44.97425" lon="6.11918">
        <ele>1261.2</ele>
        <time>2024-08-14T12:41:04Z</time>
      </trkpt>
      <trkpt lat="44.97425" lon="6.11918">
        <ele>1261.2</ele>
        <time>2024-08-14T12:41:05Z</time>
      </trkpt>
      <trkpt lat="44.97425" lon="6.11918">
        <ele>1261.2</ele>
        <time>2024-08-14T12:41:06Z</time>
      </trkpt>
      <trkpt lat="44.97425" lon="6.11918">
        <ele>1261</ele>
        <time>2024-08-14T12:41:07Z</time>
      </trkpt>
      <trkpt lat="44.97425" lon="6.11918">
        <ele>1261</ele>
        <time>2024-08-14T12:41:08Z</time>
      </trkpt>
      <trkpt lat="44.97425" lon="6.11918">
        <ele>1261.2</ele>
        <time>2024-08-14T12:41:09Z</time>
      </trkpt>
      <trkpt lat="44.97424" lon="6.11916">
        <ele>1261</ele>
        <time>2024-08-14T12:41:10Z</time>
      </trkpt>
      <trkpt lat="44.97424" lon="6.11916">
        <ele>1261</ele>
        <time>2024-08-14T12:41:11Z</time>
      </trkpt>
      <trkpt lat="44.97424" lon="6.11916">
        <ele>1261</ele>
        <time>2024-08-14T12:41:12Z</time>
      </trkpt>
      <trkpt lat="44.97424" lon="6.11916">
        <ele>1261</ele>
        <time>2024-08-14T12:41:13Z</time>
      </trkpt>
      <trkpt lat="44.97424" lon="6.11916">
        <ele>1261.2</ele>
        <time>2024-08-14T12:41:14Z</time>
      </trkpt>
      <trkpt lat="44.97424" lon="6.11916">
        <ele>1261.2</ele>
        <time>2024-08-14T12:41:15Z</time>
      </trkpt>
      <trkpt lat="44.97424" lon="6.11916">
        <ele>1261</ele>
        <time>2024-08-14T12:41:16Z</time>
      </trkpt>
      <trkpt lat="44.97424" lon="6.11916">
        <ele>1260.8</ele>
        <time>2024-08-14T12:41:17Z</time>
      </trkpt>
      <trkpt lat="44.97424" lon="6.11916">
        <ele>1260.8</ele>
        <time>2024-08-14T12:41:18Z</time>
      </trkpt>
      <trkpt lat="44.97424" lon="6.11916">
        <ele>1260.8</ele>
        <time>2024-08-14T12:41:19Z</time>
      </trkpt>
      <trkpt lat="44.97424" lon="6.11916">
        <ele>1260.8</ele>
        <time>2024-08-14T12:41:20Z</time>
      </trkpt>
      <trkpt lat="44.97424" lon="6.11916">
        <ele>1261</ele>
        <time>2024-08-14T12:41:21Z</time>
      </trkpt>
      <trkpt lat="44.97424" lon="6.11916">
        <ele>1260.8</ele>
        <time>2024-08-14T12:41:22Z</time>
      </trkpt>
      <trkpt lat="44.97424" lon="6.11916">
        <ele>1260.6</ele>
        <time>2024-08-14T12:41:23Z</time>
      </trkpt>
      <trkpt lat="44.97424" lon="6.11916">
        <ele>1260.2</ele>
        <time>2024-08-14T12:41:24Z</time>
      </trkpt>
      <trkpt lat="44.97424" lon="6.11916">
        <ele>1260.2</ele>
        <time>2024-08-14T12:41:25Z</time>
      </trkpt>
      <trkpt lat="44.97424" lon="6.11916">
        <ele>1260.6</ele>
        <time>2024-08-14T12:41:26Z</time>
      </trkpt>
      <trkpt lat="44.97424" lon="6.11916">
        <ele>1260.6</ele>
        <time>2024-08-14T12:41:27Z</time>
      </trkpt>
      <trkpt lat="44.97424" lon="6.11916">
        <ele>1260.6</ele>
        <time>2024-08-14T12:41:28Z</time>
      </trkpt>
      <trkpt lat="44.97424" lon="6.11916">
        <ele>1260.4</ele>
        <time>2024-08-14T12:41:29Z</time>
      </trkpt>
      <trkpt lat="44.97424" lon="6.11916">
        <ele>1260.4</ele>
        <time>2024-08-14T12:41:30Z</time>
      </trkpt>
      <trkpt lat="44.97424" lon="6.11916">
        <ele>1260.6</ele>
        <time>2024-08-14T12:41:31Z</time>
      </trkpt>
      <trkpt lat="44.97424" lon="6.11916">
        <ele>1260.6</ele>
        <time>2024-08-14T12:41:32Z</time>
      </trkpt>
      <trkpt lat="44.97424" lon="6.11916">
        <ele>1260.6</ele>
        <time>2024-08-14T12:41:33Z</time>
      </trkpt>
      <trkpt lat="44.97424" lon="6.11916">
        <ele>1260.6</ele>
        <time>2024-08-14T12:41:34Z</time>
      </trkpt>
      <trkpt lat="44.97424" lon="6.11916">
        <ele>1260.4</ele>
        <time>2024-08-14T12:41:35Z</time>
      </trkpt>
      <trkpt lat="44.97424" lon="6.11916">
        <ele>1260.4</ele>
        <time>2024-08-14T12:41:36Z</time>
      </trkpt>
      <trkpt lat="44.97424" lon="6.11916">
        <ele>1260.4</ele>
        <time>2024-08-14T12:41:37Z</time>
      </trkpt>
      <trkpt lat="44.97424" lon="6.11916">
        <ele>1260.4</ele>
        <time>2024-08-14T12:41:38Z</time>
      </trkpt>
      <trkpt lat="44.97424" lon="6.11916">
        <ele>1260.2</ele>
        <time>2024-08-14T12:41:39Z</time>
      </trkpt>
      <trkpt lat="44.97424" lon="6.11916">
        <ele>1260.2</ele>
        <time>2024-08-14T12:41:40Z</time>
      </trkpt>
      <trkpt lat="44.97424" lon="6.11916">
        <ele>1260.2</ele>
        <time>2024-08-14T12:41:41Z</time>
      </trkpt>
      <trkpt lat="44.97424" lon="6.11916">
        <ele>1260</ele>
        <time>2024-08-14T12:41:42Z</time>
      </trkpt>
      <trkpt lat="44.97424" lon="6.11916">
        <ele>1260.2</ele>
        <time>2024-08-14T12:41:43Z</time>
      </trkpt>
      <trkpt lat="44.97424" lon="6.11916">
        <ele>1260.2</ele>
        <time>2024-08-14T12:41:44Z</time>
      </trkpt>
      <trkpt lat="44.97424" lon="6.11916">
        <ele>1260.2</ele>
        <time>2024-08-14T12:41:45Z</time>
      </trkpt>
      <trkpt lat="44.97424" lon="6.11916">
        <ele>1260.2</ele>
        <time>2024-08-14T12:41:46Z</time>
      </trkpt>
      <trkpt lat="44.97424" lon="6.11916">
        <ele>1260.2</ele>
        <time>2024-08-14T12:41:47Z</time>
      </trkpt>
      <trkpt lat="44.97424" lon="6.11916">
        <ele>1260</ele>
        <time>2024-08-14T12:41:48Z</time>
      </trkpt>
      <trkpt lat="44.97424" lon="6.11916">
        <ele>1260</ele>
        <time>2024-08-14T12:41:49Z</time>
      </trkpt>
      <trkpt lat="44.97424" lon="6.11916">
        <ele>1260</ele>
        <time>2024-08-14T12:41:50Z</time>
      </trkpt>
      <trkpt lat="44.97424" lon="6.11916">
        <ele>1260.2</ele>
        <time>2024-08-14T12:41:51Z</time>
      </trkpt>
      <trkpt lat="44.97424" lon="6.11916">
        <ele>1260.2</ele>
        <time>2024-08-14T12:41:52Z</time>
      </trkpt>
      <trkpt lat="44.97424" lon="6.11916">
        <ele>1260</ele>
        <time>2024-08-14T12:41:53Z</time>
      </trkpt>
      <trkpt lat="44.97424" lon="6.11916">
        <ele>1260</ele>
        <time>2024-08-14T12:41:54Z</time>
      </trkpt>
      <trkpt lat="44.97424" lon="6.11916">
        <ele>1260</ele>
        <time>2024-08-14T12:41:55Z</time>
      </trkpt>
      <trkpt lat="44.97424" lon="6.11916">
        <ele>1260</ele>
        <time>2024-08-14T12:41:56Z</time>
      </trkpt>
      <trkpt lat="44.97424" lon="6.11916">
        <ele>1260</ele>
        <time>2024-08-14T12:41:57Z</time>
      </trkpt>
      <trkpt lat="44.97424" lon="6.11916">
        <ele>1260</ele>
        <time>2024-08-14T12:41:58Z</time>
      </trkpt>
      <trkpt lat="44.97424" lon="6.11916">
        <ele>1260.2</ele>
        <time>2024-08-14T12:41:59Z</time>
      </trkpt>
      <trkpt lat="44.97424" lon="6.11916">
        <ele>1260.4</ele>
        <time>2024-08-14T12:42:00Z</time>
      </trkpt>
      <trkpt lat="44.97424" lon="6.11916">
        <ele>1260.2</ele>
        <time>2024-08-14T12:42:01Z</time>
      </trkpt>
      <trkpt lat="44.97424" lon="6.11916">
        <ele>1260.4</ele>
        <time>2024-08-14T12:42:02Z</time>
      </trkpt>
      <trkpt lat="44.97424" lon="6.11916">
        <ele>1260.4</ele>
        <time>2024-08-14T12:42:03Z</time>
      </trkpt>
      <trkpt lat="44.97424" lon="6.11916">
        <ele>1260.4</ele>
        <time>2024-08-14T12:42:04Z</time>
      </trkpt>
      <trkpt lat="44.97424" lon="6.11916">
        <ele>1260.4</ele>
        <time>2024-08-14T12:42:05Z</time>
      </trkpt>
      <trkpt lat="44.97424" lon="6.11916">
        <ele>1260.4</ele>
        <time>2024-08-14T12:42:06Z</time>
      </trkpt>
      <trkpt lat="44.97424" lon="6.11916">
        <ele>1260.2</ele>
        <time>2024-08-14T12:42:07Z</time>
      </trkpt>
      <trkpt lat="44.97424" lon="6.11916">
        <ele>1260</ele>
        <time>2024-08-14T12:42:08Z</time>
      </trkpt>
      <trkpt lat="44.97424" lon="6.11916">
        <ele>1259.8</ele>
        <time>2024-08-14T12:42:09Z</time>
      </trkpt>
      <trkpt lat="44.97424" lon="6.11916">
        <ele>1259.6</ele>
        <time>2024-08-14T12:42:10Z</time>
      </trkpt>
      <trkpt lat="44.97424" lon="6.11916">
        <ele>1259.6</ele>
        <time>2024-08-14T12:42:11Z</time>
      </trkpt>
      <trkpt lat="44.97424" lon="6.11916">
        <ele>1259.6</ele>
        <time>2024-08-14T12:42:12Z</time>
      </trkpt>
      <trkpt lat="44.97424" lon="6.11916">
        <ele>1259.6</ele>
        <time>2024-08-14T12:42:13Z</time>
      </trkpt>
      <trkpt lat="44.97424" lon="6.11916">
        <ele>1260</ele>
        <time>2024-08-14T12:42:14Z</time>
      </trkpt>
      <trkpt lat="44.97424" lon="6.11916">
        <ele>1260</ele>
        <time>2024-08-14T12:42:15Z</time>
      </trkpt>
      <trkpt lat="44.97424" lon="6.11916">
        <ele>1260</ele>
        <time>2024-08-14T12:42:16Z</time>
      </trkpt>
      <trkpt lat="44.97424" lon="6.11916">
        <ele>1259.6</ele>
        <time>2024-08-14T12:42:17Z</time>
      </trkpt>
      <trkpt lat="44.97425" lon="6.11915">
        <ele>1259.2</ele>
        <time>2024-08-14T12:42:18Z</time>
      </trkpt>
      <trkpt lat="44.97425" lon="6.11915">
        <ele>1259.2</ele>
        <time>2024-08-14T12:42:19Z</time>
      </trkpt>
      <trkpt lat="44.97429" lon="6.11912">
        <ele>1259.2</ele>
        <time>2024-08-14T12:42:20Z</time>
      </trkpt>
      <trkpt lat="44.9743" lon="6.11911">
        <ele>1259.2</ele>
        <time>2024-08-14T12:42:21Z</time>
      </trkpt>
      <trkpt lat="44.97432" lon="6.1191">
        <ele>1258.8</ele>
        <time>2024-08-14T12:42:22Z</time>
      </trkpt>
      <trkpt lat="44.97435" lon="6.11909">
        <ele>1258.8</ele>
        <time>2024-08-14T12:42:23Z</time>
      </trkpt>
      <trkpt lat="44.97435" lon="6.11909">
        <ele>1259.2</ele>
        <time>2024-08-14T12:42:24Z</time>
      </trkpt>
      <trkpt lat="44.97436" lon="6.11906">
        <ele>1259.2</ele>
        <time>2024-08-14T12:42:25Z</time>
      </trkpt>
      <trkpt lat="44.97436" lon="6.11906">
        <ele>1259.4</ele>
        <time>2024-08-14T12:42:26Z</time>
      </trkpt>
      <trkpt lat="44.97436" lon="6.11906">
        <ele>1259.4</ele>
        <time>2024-08-14T12:42:27Z</time>
      </trkpt>
      <trkpt lat="44.97436" lon="6.11906">
        <ele>1259.4</ele>
        <time>2024-08-14T12:42:28Z</time>
      </trkpt>
      <trkpt lat="44.97436" lon="6.11906">
        <ele>1259.4</ele>
        <time>2024-08-14T12:42:29Z</time>
      </trkpt>
      <trkpt lat="44.97436" lon="6.11906">
        <ele>1259.4</ele>
        <time>2024-08-14T12:42:30Z</time>
      </trkpt>
      <trkpt lat="44.97436" lon="6.11906">
        <ele>1259.4</ele>
        <time>2024-08-14T12:42:31Z</time>
      </trkpt>
      <trkpt lat="44.97438" lon="6.11907">
        <ele>1259.4</ele>
        <time>2024-08-14T12:42:32Z</time>
      </trkpt>
      <trkpt lat="44.97438" lon="6.11907">
        <ele>1259.4</ele>
        <time>2024-08-14T12:42:33Z</time>
      </trkpt>
      <trkpt lat="44.9744" lon="6.11908">
        <ele>1259.2</ele>
        <time>2024-08-14T12:42:34Z</time>
      </trkpt>
      <trkpt lat="44.9744" lon="6.11908">
        <ele>1259</ele>
        <time>2024-08-14T12:42:35Z</time>
      </trkpt>
      <trkpt lat="44.97443" lon="6.11909">
        <ele>1258.8</ele>
        <time>2024-08-14T12:42:36Z</time>
      </trkpt>
      <trkpt lat="44.97445" lon="6.11909">
        <ele>1258.4</ele>
        <time>2024-08-14T12:42:37Z</time>
      </trkpt>
      <trkpt lat="44.97445" lon="6.11909">
        <ele>1258.4</ele>
        <time>2024-08-14T12:42:38Z</time>
      </trkpt>
      <trkpt lat="44.97447" lon="6.11909">
        <ele>1258.2</ele>
        <time>2024-08-14T12:42:39Z</time>
      </trkpt>
      <trkpt lat="44.97447" lon="6.11909">
        <ele>1258.2</ele>
        <time>2024-08-14T12:42:40Z</time>
      </trkpt>
      <trkpt lat="44.97449" lon="6.11911">
        <ele>1258.2</ele>
        <time>2024-08-14T12:42:41Z</time>
      </trkpt>
      <trkpt lat="44.9745" lon="6.11913">
        <ele>1258</ele>
        <time>2024-08-14T12:42:42Z</time>
      </trkpt>
      <trkpt lat="44.9745" lon="6.11913">
        <ele>1257.8</ele>
        <time>2024-08-14T12:42:43Z</time>
      </trkpt>
      <trkpt lat="44.97452" lon="6.11914">
        <ele>1257.6</ele>
        <time>2024-08-14T12:42:44Z</time>
      </trkpt>
      <trkpt lat="44.97452" lon="6.11914">
        <ele>1257.4</ele>
        <time>2024-08-14T12:42:45Z</time>
      </trkpt>
      <trkpt lat="44.97455" lon="6.11915">
        <ele>1257.2</ele>
        <time>2024-08-14T12:42:46Z</time>
      </trkpt>
      <trkpt lat="44.97455" lon="6.11915">
        <ele>1257</ele>
        <time>2024-08-14T12:42:47Z</time>
      </trkpt>
      <trkpt lat="44.97457" lon="6.11916">
        <ele>1256.4</ele>
        <time>2024-08-14T12:42:48Z</time>
      </trkpt>
      <trkpt lat="44.97457" lon="6.11916">
        <ele>1256.2</ele>
        <time>2024-08-14T12:42:49Z</time>
      </trkpt>
      <trkpt lat="44.97459" lon="6.11917">
        <ele>1255.8</ele>
        <time>2024-08-14T12:42:50Z</time>
      </trkpt>
      <trkpt lat="44.97459" lon="6.11917">
        <ele>1255.4</ele>
        <time>2024-08-14T12:42:51Z</time>
      </trkpt>
      <trkpt lat="44.97461" lon="6.11919">
        <ele>1255.2</ele>
        <time>2024-08-14T12:42:52Z</time>
      </trkpt>
      <trkpt lat="44.97461" lon="6.11919">
        <ele>1255.2</ele>
        <time>2024-08-14T12:42:53Z</time>
      </trkpt>
      <trkpt lat="44.97464" lon="6.1192">
        <ele>1255</ele>
        <time>2024-08-14T12:42:54Z</time>
      </trkpt>
      <trkpt lat="44.97464" lon="6.1192">
        <ele>1254.8</ele>
        <time>2024-08-14T12:42:55Z</time>
      </trkpt>
      <trkpt lat="44.97467" lon="6.11921">
        <ele>1254.8</ele>
        <time>2024-08-14T12:42:56Z</time>
      </trkpt>
      <trkpt lat="44.97467" lon="6.11921">
        <ele>1254.6</ele>
        <time>2024-08-14T12:42:57Z</time>
      </trkpt>
      <trkpt lat="44.9747" lon="6.11922">
        <ele>1254.4</ele>
        <time>2024-08-14T12:42:58Z</time>
      </trkpt>
      <trkpt lat="44.97472" lon="6.11922">
        <ele>1254.4</ele>
        <time>2024-08-14T12:42:59Z</time>
      </trkpt>
      <trkpt lat="44.97472" lon="6.11922">
        <ele>1254.4</ele>
        <time>2024-08-14T12:43:00Z</time>
      </trkpt>
      <trkpt lat="44.97474" lon="6.11924">
        <ele>1254.2</ele>
        <time>2024-08-14T12:43:01Z</time>
      </trkpt>
      <trkpt lat="44.97474" lon="6.11924">
        <ele>1254.6</ele>
        <time>2024-08-14T12:43:02Z</time>
      </trkpt>
      <trkpt lat="44.97477" lon="6.11924">
        <ele>1254.6</ele>
        <time>2024-08-14T12:43:03Z</time>
      </trkpt>
      <trkpt lat="44.97477" lon="6.11924">
        <ele>1254.8</ele>
        <time>2024-08-14T12:43:04Z</time>
      </trkpt>
      <trkpt lat="44.97479" lon="6.11924">
        <ele>1254.8</ele>
        <time>2024-08-14T12:43:05Z</time>
      </trkpt>
      <trkpt lat="44.97479" lon="6.11924">
        <ele>1255</ele>
        <time>2024-08-14T12:43:06Z</time>
      </trkpt>
      <trkpt lat="44.97481" lon="6.11923">
        <ele>1255.2</ele>
        <time>2024-08-14T12:43:07Z</time>
      </trkpt>
      <trkpt lat="44.97481" lon="6.11923">
        <ele>1255.4</ele>
        <time>2024-08-14T12:43:08Z</time>
      </trkpt>
      <trkpt lat="44.97481" lon="6.11923">
        <ele>1255.8</ele>
        <time>2024-08-14T12:43:09Z</time>
      </trkpt>
      <trkpt lat="44.97484" lon="6.11925">
        <ele>1256</ele>
        <time>2024-08-14T12:43:10Z</time>
      </trkpt>
      <trkpt lat="44.97484" lon="6.11925">
        <ele>1256.2</ele>
        <time>2024-08-14T12:43:11Z</time>
      </trkpt>
      <trkpt lat="44.97484" lon="6.11925">
        <ele>1256.4</ele>
        <time>2024-08-14T12:43:12Z</time>
      </trkpt>
      <trkpt lat="44.97487" lon="6.11927">
        <ele>1256.2</ele>
        <time>2024-08-14T12:43:13Z</time>
      </trkpt>
      <trkpt lat="44.97488" lon="6.11927">
        <ele>1256.2</ele>
        <time>2024-08-14T12:43:14Z</time>
      </trkpt>
      <trkpt lat="44.97488" lon="6.11927">
        <ele>1256.2</ele>
        <time>2024-08-14T12:43:15Z</time>
      </trkpt>
      <trkpt lat="44.97491" lon="6.11927">
        <ele>1256.4</ele>
        <time>2024-08-14T12:43:16Z</time>
      </trkpt>
      <trkpt lat="44.97491" lon="6.11927">
        <ele>1256.6</ele>
        <time>2024-08-14T12:43:17Z</time>
      </trkpt>
      <trkpt lat="44.97493" lon="6.11927">
        <ele>1256.6</ele>
        <time>2024-08-14T12:43:18Z</time>
      </trkpt>
      <trkpt lat="44.97493" lon="6.11927">
        <ele>1256.6</ele>
        <time>2024-08-14T12:43:19Z</time>
      </trkpt>
      <trkpt lat="44.97496" lon="6.11926">
        <ele>1256.8</ele>
        <time>2024-08-14T12:43:20Z</time>
      </trkpt>
      <trkpt lat="44.97496" lon="6.11926">
        <ele>1257.2</ele>
        <time>2024-08-14T12:43:21Z</time>
      </trkpt>
      <trkpt lat="44.97499" lon="6.11925">
        <ele>1257.2</ele>
        <time>2024-08-14T12:43:22Z</time>
      </trkpt>
      <trkpt lat="44.97499" lon="6.11925">
        <ele>1257.2</ele>
        <time>2024-08-14T12:43:23Z</time>
      </trkpt>
      <trkpt lat="44.97499" lon="6.11925">
        <ele>1257.2</ele>
        <time>2024-08-14T12:43:24Z</time>
      </trkpt>
      <trkpt lat="44.97502" lon="6.11922">
        <ele>1257</ele>
        <time>2024-08-14T12:43:25Z</time>
      </trkpt>
      <trkpt lat="44.97504" lon="6.1192">
        <ele>1257</ele>
        <time>2024-08-14T12:43:26Z</time>
      </trkpt>
      <trkpt lat="44.97504" lon="6.1192">
        <ele>1257</ele>
        <time>2024-08-14T12:43:27Z</time>
      </trkpt>
      <trkpt lat="44.97507" lon="6.11919">
        <ele>1257</ele>
        <time>2024-08-14T12:43:28Z</time>
      </trkpt>
      <trkpt lat="44.97507" lon="6.11919">
        <ele>1257</ele>
        <time>2024-08-14T12:43:29Z</time>
      </trkpt>
      <trkpt lat="44.97509" lon="6.11918">
        <ele>1257.2</ele>
        <time>2024-08-14T12:43:30Z</time>
      </trkpt>
      <trkpt lat="44.97509" lon="6.11918">
        <ele>1257.2</ele>
        <time>2024-08-14T12:43:31Z</time>
      </trkpt>
      <trkpt lat="44.97509" lon="6.11918">
        <ele>1257.2</ele>
        <time>2024-08-14T12:43:32Z</time>
      </trkpt>
      <trkpt lat="44.97512" lon="6.11916">
        <ele>1257.2</ele>
        <time>2024-08-14T12:43:33Z</time>
      </trkpt>
      <trkpt lat="44.97512" lon="6.11916">
        <ele>1257.8</ele>
        <time>2024-08-14T12:43:34Z</time>
      </trkpt>
      <trkpt lat="44.97513" lon="6.11913">
        <ele>1258</ele>
        <time>2024-08-14T12:43:35Z</time>
      </trkpt>
      <trkpt lat="44.97513" lon="6.11913">
        <ele>1258</ele>
        <time>2024-08-14T12:43:36Z</time>
      </trkpt>
      <trkpt lat="44.97515" lon="6.1191">
        <ele>1258</ele>
        <time>2024-08-14T12:43:37Z</time>
      </trkpt>
      <trkpt lat="44.97515" lon="6.1191">
        <ele>1258</ele>
        <time>2024-08-14T12:43:38Z</time>
      </trkpt>
      <trkpt lat="44.97516" lon="6.11908">
        <ele>1258</ele>
        <time>2024-08-14T12:43:39Z</time>
      </trkpt>
      <trkpt lat="44.97516" lon="6.11908">
        <ele>1258.2</ele>
        <time>2024-08-14T12:43:40Z</time>
      </trkpt>
      <trkpt lat="44.97517" lon="6.11906">
        <ele>1258.4</ele>
        <time>2024-08-14T12:43:41Z</time>
      </trkpt>
      <trkpt lat="44.97517" lon="6.11906">
        <ele>1258.4</ele>
        <time>2024-08-14T12:43:42Z</time>
      </trkpt>
      <trkpt lat="44.97517" lon="6.11906">
        <ele>1258.8</ele>
        <time>2024-08-14T12:43:43Z</time>
      </trkpt>
      <trkpt lat="44.97519" lon="6.11904">
        <ele>1258.8</ele>
        <time>2024-08-14T12:43:44Z</time>
      </trkpt>
      <trkpt lat="44.97519" lon="6.11904">
        <ele>1259</ele>
        <time>2024-08-14T12:43:45Z</time>
      </trkpt>
      <trkpt lat="44.97521" lon="6.11901">
        <ele>1259</ele>
        <time>2024-08-14T12:43:46Z</time>
      </trkpt>
      <trkpt lat="44.97523" lon="6.11898">
        <ele>1259.2</ele>
        <time>2024-08-14T12:43:47Z</time>
      </trkpt>
      <trkpt lat="44.97525" lon="6.11896">
        <ele>1259.2</ele>
        <time>2024-08-14T12:43:48Z</time>
      </trkpt>
      <trkpt lat="44.97525" lon="6.11896">
        <ele>1259.4</ele>
        <time>2024-08-14T12:43:49Z</time>
      </trkpt>
      <trkpt lat="44.97527" lon="6.11894">
        <ele>1259.6</ele>
        <time>2024-08-14T12:43:50Z</time>
      </trkpt>
      <trkpt lat="44.97527" lon="6.11894">
        <ele>1260</ele>
        <time>2024-08-14T12:43:51Z</time>
      </trkpt>
      <trkpt lat="44.97527" lon="6.11894">
        <ele>1260.4</ele>
        <time>2024-08-14T12:43:52Z</time>
      </trkpt>
      <trkpt lat="44.97531" lon="6.11893">
        <ele>1260.2</ele>
        <time>2024-08-14T12:43:53Z</time>
      </trkpt>
      <trkpt lat="44.97533" lon="6.11894">
        <ele>1260.2</ele>
        <time>2024-08-14T12:43:54Z</time>
      </trkpt>
      <trkpt lat="44.97533" lon="6.11894">
        <ele>1260.4</ele>
        <time>2024-08-14T12:43:55Z</time>
      </trkpt>
      <trkpt lat="44.97535" lon="6.11894">
        <ele>1260.4</ele>
        <time>2024-08-14T12:43:56Z</time>
      </trkpt>
      <trkpt lat="44.97535" lon="6.11894">
        <ele>1260.4</ele>
        <time>2024-08-14T12:43:57Z</time>
      </trkpt>
      <trkpt lat="44.97538" lon="6.11895">
        <ele>1260.8</ele>
        <time>2024-08-14T12:43:58Z</time>
      </trkpt>
      <trkpt lat="44.97538" lon="6.11895">
        <ele>1260.8</ele>
        <time>2024-08-14T12:43:59Z</time>
      </trkpt>
      <trkpt lat="44.9754" lon="6.11897">
        <ele>1261</ele>
        <time>2024-08-14T12:44:00Z</time>
      </trkpt>
      <trkpt lat="44.97543" lon="6.11898">
        <ele>1261</ele>
        <time>2024-08-14T12:44:01Z</time>
      </trkpt>
      <trkpt lat="44.97544" lon="6.119">
        <ele>1261</ele>
        <time>2024-08-14T12:44:02Z</time>
      </trkpt>
      <trkpt lat="44.97544" lon="6.119">
        <ele>1261</ele>
        <time>2024-08-14T12:44:03Z</time>
      </trkpt>
      <trkpt lat="44.97547" lon="6.11902">
        <ele>1261.2</ele>
        <time>2024-08-14T12:44:04Z</time>
      </trkpt>
      <trkpt lat="44.97547" lon="6.11902">
        <ele>1261.2</ele>
        <time>2024-08-14T12:44:05Z</time>
      </trkpt>
      <trkpt lat="44.97549" lon="6.11904">
        <ele>1261.2</ele>
        <time>2024-08-14T12:44:06Z</time>
      </trkpt>
      <trkpt lat="44.97549" lon="6.11904">
        <ele>1261</ele>
        <time>2024-08-14T12:44:07Z</time>
      </trkpt>
      <trkpt lat="44.97551" lon="6.11905">
        <ele>1260.8</ele>
        <time>2024-08-14T12:44:08Z</time>
      </trkpt>
      <trkpt lat="44.97551" lon="6.11905">
        <ele>1260.6</ele>
        <time>2024-08-14T12:44:09Z</time>
      </trkpt>
      <trkpt lat="44.97554" lon="6.11907">
        <ele>1260.4</ele>
        <time>2024-08-14T12:44:10Z</time>
      </trkpt>
      <trkpt lat="44.97554" lon="6.11907">
        <ele>1260.4</ele>
        <time>2024-08-14T12:44:11Z</time>
      </trkpt>
      <trkpt lat="44.97556" lon="6.11909">
        <ele>1260</ele>
        <time>2024-08-14T12:44:12Z</time>
      </trkpt>
      <trkpt lat="44.97556" lon="6.11909">
        <ele>1259.6</ele>
        <time>2024-08-14T12:44:13Z</time>
      </trkpt>
      <trkpt lat="44.97558" lon="6.1191">
        <ele>1259.4</ele>
        <time>2024-08-14T12:44:14Z</time>
      </trkpt>
      <trkpt lat="44.97558" lon="6.1191">
        <ele>1259.2</ele>
        <time>2024-08-14T12:44:15Z</time>
      </trkpt>
      <trkpt lat="44.97561" lon="6.1191">
        <ele>1259.2</ele>
        <time>2024-08-14T12:44:16Z</time>
      </trkpt>
      <trkpt lat="44.97561" lon="6.1191">
        <ele>1259.2</ele>
        <time>2024-08-14T12:44:17Z</time>
      </trkpt>
      <trkpt lat="44.97563" lon="6.1191">
        <ele>1259.2</ele>
        <time>2024-08-14T12:44:18Z</time>
      </trkpt>
      <trkpt lat="44.97563" lon="6.1191">
        <ele>1259</ele>
        <time>2024-08-14T12:44:19Z</time>
      </trkpt>
      <trkpt lat="44.97565" lon="6.1191">
        <ele>1259</ele>
        <time>2024-08-14T12:44:20Z</time>
      </trkpt>
      <trkpt lat="44.97565" lon="6.1191">
        <ele>1259</ele>
        <time>2024-08-14T12:44:21Z</time>
      </trkpt>
      <trkpt lat="44.97568" lon="6.11911">
        <ele>1259</ele>
        <time>2024-08-14T12:44:22Z</time>
      </trkpt>
      <trkpt lat="44.97568" lon="6.11911">
        <ele>1259.2</ele>
        <time>2024-08-14T12:44:23Z</time>
      </trkpt>
      <trkpt lat="44.97571" lon="6.11911">
        <ele>1259.2</ele>
        <time>2024-08-14T12:44:24Z</time>
      </trkpt>
      <trkpt lat="44.97571" lon="6.11911">
        <ele>1259.4</ele>
        <time>2024-08-14T12:44:25Z</time>
      </trkpt>
      <trkpt lat="44.97574" lon="6.11912">
        <ele>1259.4</ele>
        <time>2024-08-14T12:44:26Z</time>
      </trkpt>
      <trkpt lat="44.97574" lon="6.11912">
        <ele>1259.2</ele>
        <time>2024-08-14T12:44:27Z</time>
      </trkpt>
      <trkpt lat="44.97577" lon="6.11911">
        <ele>1259</ele>
        <time>2024-08-14T12:44:28Z</time>
      </trkpt>
      <trkpt lat="44.97577" lon="6.11911">
        <ele>1258.8</ele>
        <time>2024-08-14T12:44:29Z</time>
      </trkpt>
      <trkpt lat="44.97579" lon="6.11912">
        <ele>1258.6</ele>
        <time>2024-08-14T12:44:30Z</time>
      </trkpt>
      <trkpt lat="44.97579" lon="6.11912">
        <ele>1258.6</ele>
        <time>2024-08-14T12:44:31Z</time>
      </trkpt>
      <trkpt lat="44.97581" lon="6.11912">
        <ele>1258.4</ele>
        <time>2024-08-14T12:44:32Z</time>
      </trkpt>
      <trkpt lat="44.97581" lon="6.11912">
        <ele>1258.2</ele>
        <time>2024-08-14T12:44:33Z</time>
      </trkpt>
      <trkpt lat="44.97584" lon="6.11913">
        <ele>1258.2</ele>
        <time>2024-08-14T12:44:34Z</time>
      </trkpt>
      <trkpt lat="44.97584" lon="6.11913">
        <ele>1258</ele>
        <time>2024-08-14T12:44:35Z</time>
      </trkpt>
      <trkpt lat="44.97587" lon="6.11915">
        <ele>1257.8</ele>
        <time>2024-08-14T12:44:36Z</time>
      </trkpt>
      <trkpt lat="44.97587" lon="6.11915">
        <ele>1257.6</ele>
        <time>2024-08-14T12:44:37Z</time>
      </trkpt>
      <trkpt lat="44.97589" lon="6.11917">
        <ele>1257.6</ele>
        <time>2024-08-14T12:44:38Z</time>
      </trkpt>
      <trkpt lat="44.97589" lon="6.11917">
        <ele>1257</ele>
        <time>2024-08-14T12:44:39Z</time>
      </trkpt>
      <trkpt lat="44.97591" lon="6.11919">
        <ele>1256.8</ele>
        <time>2024-08-14T12:44:40Z</time>
      </trkpt>
      <trkpt lat="44.97591" lon="6.11919">
        <ele>1256.8</ele>
        <time>2024-08-14T12:44:41Z</time>
      </trkpt>
      <trkpt lat="44.97592" lon="6.11921">
        <ele>1256.6</ele>
        <time>2024-08-14T12:44:42Z</time>
      </trkpt>
      <trkpt lat="44.97592" lon="6.11921">
        <ele>1256.6</ele>
        <time>2024-08-14T12:44:43Z</time>
      </trkpt>
      <trkpt lat="44.97595" lon="6.11924">
        <ele>1256.2</ele>
        <time>2024-08-14T12:44:44Z</time>
      </trkpt>
      <trkpt lat="44.97595" lon="6.11924">
        <ele>1255.8</ele>
        <time>2024-08-14T12:44:45Z</time>
      </trkpt>
      <trkpt lat="44.97597" lon="6.11926">
        <ele>1255.4</ele>
        <time>2024-08-14T12:44:46Z</time>
      </trkpt>
      <trkpt lat="44.97599" lon="6.11927">
        <ele>1255.4</ele>
        <time>2024-08-14T12:44:47Z</time>
      </trkpt>
      <trkpt lat="44.97599" lon="6.11927">
        <ele>1255.2</ele>
        <time>2024-08-14T12:44:48Z</time>
      </trkpt>
      <trkpt lat="44.97603" lon="6.11928">
        <ele>1255</ele>
        <time>2024-08-14T12:44:49Z</time>
      </trkpt>
      <trkpt lat="44.97603" lon="6.11928">
        <ele>1254.8</ele>
        <time>2024-08-14T12:44:50Z</time>
      </trkpt>
      <trkpt lat="44.97605" lon="6.11928">
        <ele>1254.6</ele>
        <time>2024-08-14T12:44:51Z</time>
      </trkpt>
      <trkpt lat="44.97605" lon="6.11928">
        <ele>1254.4</ele>
        <time>2024-08-14T12:44:52Z</time>
      </trkpt>
      <trkpt lat="44.97608" lon="6.11929">
        <ele>1254</ele>
        <time>2024-08-14T12:44:53Z</time>
      </trkpt>
      <trkpt lat="44.97608" lon="6.11929">
        <ele>1253.8</ele>
        <time>2024-08-14T12:44:54Z</time>
      </trkpt>
      <trkpt lat="44.97611" lon="6.1193">
        <ele>1253.6</ele>
        <time>2024-08-14T12:44:55Z</time>
      </trkpt>
      <trkpt lat="44.97611" lon="6.1193">
        <ele>1253.4</ele>
        <time>2024-08-14T12:44:56Z</time>
      </trkpt>
      <trkpt lat="44.97613" lon="6.11931">
        <ele>1253</ele>
        <time>2024-08-14T12:44:57Z</time>
      </trkpt>
      <trkpt lat="44.97613" lon="6.11931">
        <ele>1252.6</ele>
        <time>2024-08-14T12:44:58Z</time>
      </trkpt>
      <trkpt lat="44.97614" lon="6.11932">
        <ele>1252.4</ele>
        <time>2024-08-14T12:44:59Z</time>
      </trkpt>
      <trkpt lat="44.97614" lon="6.11932">
        <ele>1252.2</ele>
        <time>2024-08-14T12:45:00Z</time>
      </trkpt>
      <trkpt lat="44.97614" lon="6.11932">
        <ele>1252</ele>
        <time>2024-08-14T12:45:01Z</time>
      </trkpt>
      <trkpt lat="44.97617" lon="6.11936">
        <ele>1251.6</ele>
        <time>2024-08-14T12:45:02Z</time>
      </trkpt>
      <trkpt lat="44.97618" lon="6.11938">
        <ele>1251.6</ele>
        <time>2024-08-14T12:45:03Z</time>
      </trkpt>
      <trkpt lat="44.97618" lon="6.11938">
        <ele>1251.2</ele>
        <time>2024-08-14T12:45:04Z</time>
      </trkpt>
      <trkpt lat="44.97619" lon="6.11941">
        <ele>1250.8</ele>
        <time>2024-08-14T12:45:05Z</time>
      </trkpt>
      <trkpt lat="44.97619" lon="6.11941">
        <ele>1250.6</ele>
        <time>2024-08-14T12:45:06Z</time>
      </trkpt>
      <trkpt lat="44.9762" lon="6.11944">
        <ele>1250.4</ele>
        <time>2024-08-14T12:45:07Z</time>
      </trkpt>
      <trkpt lat="44.9762" lon="6.11944">
        <ele>1249.8</ele>
        <time>2024-08-14T12:45:08Z</time>
      </trkpt>
      <trkpt lat="44.97621" lon="6.11947">
        <ele>1249.6</ele>
        <time>2024-08-14T12:45:09Z</time>
      </trkpt>
      <trkpt lat="44.97621" lon="6.11947">
        <ele>1249.4</ele>
        <time>2024-08-14T12:45:10Z</time>
      </trkpt>
      <trkpt lat="44.97623" lon="6.11948">
        <ele>1249.2</ele>
        <time>2024-08-14T12:45:11Z</time>
      </trkpt>
      <trkpt lat="44.97623" lon="6.11948">
        <ele>1248.8</ele>
        <time>2024-08-14T12:45:12Z</time>
      </trkpt>
      <trkpt lat="44.97623" lon="6.11948">
        <ele>1248.4</ele>
        <time>2024-08-14T12:45:13Z</time>
      </trkpt>
      <trkpt lat="44.97625" lon="6.11951">
        <ele>1248.4</ele>
        <time>2024-08-14T12:45:14Z</time>
      </trkpt>
      <trkpt lat="44.97625" lon="6.11951">
        <ele>1248</ele>
        <time>2024-08-14T12:45:15Z</time>
      </trkpt>
      <trkpt lat="44.97626" lon="6.11952">
        <ele>1247.8</ele>
        <time>2024-08-14T12:45:16Z</time>
      </trkpt>
      <trkpt lat="44.97626" lon="6.11952">
        <ele>1247.6</ele>
        <time>2024-08-14T12:45:17Z</time>
      </trkpt>
      <trkpt lat="44.97629" lon="6.11952">
        <ele>1247</ele>
        <time>2024-08-14T12:45:18Z</time>
      </trkpt>
      <trkpt lat="44.97629" lon="6.11952">
        <ele>1246.2</ele>
        <time>2024-08-14T12:45:19Z</time>
      </trkpt>
      <trkpt lat="44.97631" lon="6.11954">
        <ele>1246</ele>
        <time>2024-08-14T12:45:20Z</time>
      </trkpt>
      <trkpt lat="44.97631" lon="6.11954">
        <ele>1245.8</ele>
        <time>2024-08-14T12:45:21Z</time>
      </trkpt>
      <trkpt lat="44.97634" lon="6.11955">
        <ele>1245.6</ele>
        <time>2024-08-14T12:45:22Z</time>
      </trkpt>
      <trkpt lat="44.97634" lon="6.11955">
        <ele>1245.6</ele>
        <time>2024-08-14T12:45:23Z</time>
      </trkpt>
      <trkpt lat="44.97637" lon="6.11956">
        <ele>1245.4</ele>
        <time>2024-08-14T12:45:24Z</time>
      </trkpt>
      <trkpt lat="44.97637" lon="6.11956">
        <ele>1245.2</ele>
        <time>2024-08-14T12:45:25Z</time>
      </trkpt>
      <trkpt lat="44.97639" lon="6.11958">
        <ele>1245</ele>
        <time>2024-08-14T12:45:26Z</time>
      </trkpt>
      <trkpt lat="44.97639" lon="6.11958">
        <ele>1244.8</ele>
        <time>2024-08-14T12:45:27Z</time>
      </trkpt>
      <trkpt lat="44.97643" lon="6.11959">
        <ele>1244.2</ele>
        <time>2024-08-14T12:45:28Z</time>
      </trkpt>
      <trkpt lat="44.97643" lon="6.11959">
        <ele>1243.8</ele>
        <time>2024-08-14T12:45:29Z</time>
      </trkpt>
      <trkpt lat="44.97645" lon="6.11959">
        <ele>1243.4</ele>
        <time>2024-08-14T12:45:30Z</time>
      </trkpt>
      <trkpt lat="44.97645" lon="6.11959">
        <ele>1243.4</ele>
        <time>2024-08-14T12:45:31Z</time>
      </trkpt>
      <trkpt lat="44.97647" lon="6.11958">
        <ele>1243</ele>
        <time>2024-08-14T12:45:32Z</time>
      </trkpt>
      <trkpt lat="44.97647" lon="6.11958">
        <ele>1242.8</ele>
        <time>2024-08-14T12:45:33Z</time>
      </trkpt>
      <trkpt lat="44.9765" lon="6.1196">
        <ele>1242.8</ele>
        <time>2024-08-14T12:45:34Z</time>
      </trkpt>
      <trkpt lat="44.9765" lon="6.1196">
        <ele>1242.6</ele>
        <time>2024-08-14T12:45:35Z</time>
      </trkpt>
      <trkpt lat="44.97653" lon="6.1196">
        <ele>1242.2</ele>
        <time>2024-08-14T12:45:36Z</time>
      </trkpt>
      <trkpt lat="44.97653" lon="6.1196">
        <ele>1242.2</ele>
        <time>2024-08-14T12:45:37Z</time>
      </trkpt>
      <trkpt lat="44.97655" lon="6.1196">
        <ele>1241.8</ele>
        <time>2024-08-14T12:45:38Z</time>
      </trkpt>
      <trkpt lat="44.97655" lon="6.1196">
        <ele>1241.6</ele>
        <time>2024-08-14T12:45:39Z</time>
      </trkpt>
      <trkpt lat="44.97659" lon="6.11958">
        <ele>1241.4</ele>
        <time>2024-08-14T12:45:40Z</time>
      </trkpt>
      <trkpt lat="44.97659" lon="6.11958">
        <ele>1241.2</ele>
        <time>2024-08-14T12:45:41Z</time>
      </trkpt>
      <trkpt lat="44.97661" lon="6.11959">
        <ele>1241</ele>
        <time>2024-08-14T12:45:42Z</time>
      </trkpt>
      <trkpt lat="44.97661" lon="6.11959">
        <ele>1241</ele>
        <time>2024-08-14T12:45:43Z</time>
      </trkpt>
      <trkpt lat="44.97664" lon="6.11959">
        <ele>1240.6</ele>
        <time>2024-08-14T12:45:44Z</time>
      </trkpt>
      <trkpt lat="44.97664" lon="6.11959">
        <ele>1240.6</ele>
        <time>2024-08-14T12:45:45Z</time>
      </trkpt>
      <trkpt lat="44.97667" lon="6.1196">
        <ele>1240.4</ele>
        <time>2024-08-14T12:45:46Z</time>
      </trkpt>
      <trkpt lat="44.97667" lon="6.1196">
        <ele>1240</ele>
        <time>2024-08-14T12:45:47Z</time>
      </trkpt>
      <trkpt lat="44.9767" lon="6.11962">
        <ele>1239.8</ele>
        <time>2024-08-14T12:45:48Z</time>
      </trkpt>
      <trkpt lat="44.97671" lon="6.11963">
        <ele>1239.8</ele>
        <time>2024-08-14T12:45:49Z</time>
      </trkpt>
      <trkpt lat="44.97671" lon="6.11963">
        <ele>1239.8</ele>
        <time>2024-08-14T12:45:50Z</time>
      </trkpt>
      <trkpt lat="44.97674" lon="6.11965">
        <ele>1239.8</ele>
        <time>2024-08-14T12:45:51Z</time>
      </trkpt>
      <trkpt lat="44.97674" lon="6.11965">
        <ele>1239.6</ele>
        <time>2024-08-14T12:45:52Z</time>
      </trkpt>
      <trkpt lat="44.97677" lon="6.11966">
        <ele>1239.4</ele>
        <time>2024-08-14T12:45:53Z</time>
      </trkpt>
      <trkpt lat="44.97677" lon="6.11966">
        <ele>1239</ele>
        <time>2024-08-14T12:45:54Z</time>
      </trkpt>
      <trkpt lat="44.97679" lon="6.11967">
        <ele>1239</ele>
        <time>2024-08-14T12:45:55Z</time>
      </trkpt>
      <trkpt lat="44.97679" lon="6.11967">
        <ele>1238.8</ele>
        <time>2024-08-14T12:45:56Z</time>
      </trkpt>
      <trkpt lat="44.97683" lon="6.11968">
        <ele>1238.4</ele>
        <time>2024-08-14T12:45:57Z</time>
      </trkpt>
      <trkpt lat="44.97683" lon="6.11968">
        <ele>1237.8</ele>
        <time>2024-08-14T12:45:58Z</time>
      </trkpt>
      <trkpt lat="44.97686" lon="6.11968">
        <ele>1237.6</ele>
        <time>2024-08-14T12:45:59Z</time>
      </trkpt>
      <trkpt lat="44.97686" lon="6.11968">
        <ele>1237.6</ele>
        <time>2024-08-14T12:46:00Z</time>
      </trkpt>
      <trkpt lat="44.97688" lon="6.11968">
        <ele>1237.4</ele>
        <time>2024-08-14T12:46:01Z</time>
      </trkpt>
      <trkpt lat="44.97688" lon="6.11968">
        <ele>1237</ele>
        <time>2024-08-14T12:46:02Z</time>
      </trkpt>
      <trkpt lat="44.9769" lon="6.11967">
        <ele>1237</ele>
        <time>2024-08-14T12:46:03Z</time>
      </trkpt>
      <trkpt lat="44.9769" lon="6.11967">
        <ele>1237</ele>
        <time>2024-08-14T12:46:04Z</time>
      </trkpt>
      <trkpt lat="44.97693" lon="6.11968">
        <ele>1236.6</ele>
        <time>2024-08-14T12:46:05Z</time>
      </trkpt>
      <trkpt lat="44.97693" lon="6.11968">
        <ele>1236.6</ele>
        <time>2024-08-14T12:46:06Z</time>
      </trkpt>
      <trkpt lat="44.97695" lon="6.11967">
        <ele>1236.4</ele>
        <time>2024-08-14T12:46:07Z</time>
      </trkpt>
      <trkpt lat="44.97695" lon="6.11967">
        <ele>1236.2</ele>
        <time>2024-08-14T12:46:08Z</time>
      </trkpt>
      <trkpt lat="44.97698" lon="6.11967">
        <ele>1236.2</ele>
        <time>2024-08-14T12:46:09Z</time>
      </trkpt>
      <trkpt lat="44.97698" lon="6.11967">
        <ele>1236</ele>
        <time>2024-08-14T12:46:10Z</time>
      </trkpt>
      <trkpt lat="44.977" lon="6.11966">
        <ele>1236</ele>
        <time>2024-08-14T12:46:11Z</time>
      </trkpt>
      <trkpt lat="44.977" lon="6.11966">
        <ele>1235.8</ele>
        <time>2024-08-14T12:46:12Z</time>
      </trkpt>
      <trkpt lat="44.97704" lon="6.11966">
        <ele>1235.6</ele>
        <time>2024-08-14T12:46:13Z</time>
      </trkpt>
      <trkpt lat="44.97706" lon="6.11965">
        <ele>1235.4</ele>
        <time>2024-08-14T12:46:14Z</time>
      </trkpt>
      <trkpt lat="44.97706" lon="6.11965">
        <ele>1235.2</ele>
        <time>2024-08-14T12:46:15Z</time>
      </trkpt>
      <trkpt lat="44.97709" lon="6.11964">
        <ele>1235.2</ele>
        <time>2024-08-14T12:46:16Z</time>
      </trkpt>
      <trkpt lat="44.97709" lon="6.11964">
        <ele>1235.2</ele>
        <time>2024-08-14T12:46:17Z</time>
      </trkpt>
      <trkpt lat="44.97709" lon="6.11964">
        <ele>1235</ele>
        <time>2024-08-14T12:46:18Z</time>
      </trkpt>
      <trkpt lat="44.97712" lon="6.11963">
        <ele>1235</ele>
        <time>2024-08-14T12:46:19Z</time>
      </trkpt>
      <trkpt lat="44.97713" lon="6.11964">
        <ele>1235</ele>
        <time>2024-08-14T12:46:20Z</time>
      </trkpt>
      <trkpt lat="44.97713" lon="6.11964">
        <ele>1235</ele>
        <time>2024-08-14T12:46:21Z</time>
      </trkpt>
      <trkpt lat="44.97716" lon="6.11964">
        <ele>1234.8</ele>
        <time>2024-08-14T12:46:22Z</time>
      </trkpt>
      <trkpt lat="44.97716" lon="6.11964">
        <ele>1234.8</ele>
        <time>2024-08-14T12:46:23Z</time>
      </trkpt>
      <trkpt lat="44.97719" lon="6.11965">
        <ele>1234.8</ele>
        <time>2024-08-14T12:46:24Z</time>
      </trkpt>
      <trkpt lat="44.97719" lon="6.11965">
        <ele>1234.6</ele>
        <time>2024-08-14T12:46:25Z</time>
      </trkpt>
      <trkpt lat="44.97722" lon="6.11966">
        <ele>1234.6</ele>
        <time>2024-08-14T12:46:26Z</time>
      </trkpt>
      <trkpt lat="44.97722" lon="6.11966">
        <ele>1234.4</ele>
        <time>2024-08-14T12:46:27Z</time>
      </trkpt>
      <trkpt lat="44.97725" lon="6.11966">
        <ele>1234.4</ele>
        <time>2024-08-14T12:46:28Z</time>
      </trkpt>
      <trkpt lat="44.97725" lon="6.11966">
        <ele>1234.2</ele>
        <time>2024-08-14T12:46:29Z</time>
      </trkpt>
      <trkpt lat="44.97728" lon="6.11967">
        <ele>1234</ele>
        <time>2024-08-14T12:46:30Z</time>
      </trkpt>
      <trkpt lat="44.9773" lon="6.11967">
        <ele>1233.6</ele>
        <time>2024-08-14T12:46:31Z</time>
      </trkpt>
      <trkpt lat="44.9773" lon="6.11967">
        <ele>1233.4</ele>
        <time>2024-08-14T12:46:32Z</time>
      </trkpt>
      <trkpt lat="44.97732" lon="6.11968">
        <ele>1233.2</ele>
        <time>2024-08-14T12:46:33Z</time>
      </trkpt>
      <trkpt lat="44.97732" lon="6.11968">
        <ele>1232.8</ele>
        <time>2024-08-14T12:46:34Z</time>
      </trkpt>
      <trkpt lat="44.97734" lon="6.1197">
        <ele>1232.6</ele>
        <time>2024-08-14T12:46:35Z</time>
      </trkpt>
      <trkpt lat="44.97734" lon="6.1197">
        <ele>1232.4</ele>
        <time>2024-08-14T12:46:36Z</time>
      </trkpt>
      <trkpt lat="44.97736" lon="6.11971">
        <ele>1232.2</ele>
        <time>2024-08-14T12:46:37Z</time>
      </trkpt>
      <trkpt lat="44.97736" lon="6.11971">
        <ele>1232.2</ele>
        <time>2024-08-14T12:46:38Z</time>
      </trkpt>
      <trkpt lat="44.97739" lon="6.11971">
        <ele>1231.8</ele>
        <time>2024-08-14T12:46:39Z</time>
      </trkpt>
      <trkpt lat="44.97739" lon="6.11971">
        <ele>1231.8</ele>
        <time>2024-08-14T12:46:40Z</time>
      </trkpt>
      <trkpt lat="44.97742" lon="6.11971">
        <ele>1231.6</ele>
        <time>2024-08-14T12:46:41Z</time>
      </trkpt>
      <trkpt lat="44.97742" lon="6.11971">
        <ele>1231.2</ele>
        <time>2024-08-14T12:46:42Z</time>
      </trkpt>
      <trkpt lat="44.97742" lon="6.11971">
        <ele>1231.2</ele>
        <time>2024-08-14T12:46:43Z</time>
      </trkpt>
      <trkpt lat="44.97744" lon="6.1197">
        <ele>1231</ele>
        <time>2024-08-14T12:46:44Z</time>
      </trkpt>
      <trkpt lat="44.97744" lon="6.1197">
        <ele>1230.6</ele>
        <time>2024-08-14T12:46:45Z</time>
      </trkpt>
      <trkpt lat="44.97748" lon="6.1197">
        <ele>1230</ele>
        <time>2024-08-14T12:46:46Z</time>
      </trkpt>
      <trkpt lat="44.97748" lon="6.1197">
        <ele>1229.8</ele>
        <time>2024-08-14T12:46:47Z</time>
      </trkpt>
      <trkpt lat="44.97749" lon="6.11968">
        <ele>1229.6</ele>
        <time>2024-08-14T12:46:48Z</time>
      </trkpt>
      <trkpt lat="44.97749" lon="6.11968">
        <ele>1229.6</ele>
        <time>2024-08-14T12:46:49Z</time>
      </trkpt>
      <trkpt lat="44.9775" lon="6.11965">
        <ele>1229.4</ele>
        <time>2024-08-14T12:46:50Z</time>
      </trkpt>
      <trkpt lat="44.9775" lon="6.11965">
        <ele>1229</ele>
        <time>2024-08-14T12:46:51Z</time>
      </trkpt>
      <trkpt lat="44.97752" lon="6.11962">
        <ele>1228.8</ele>
        <time>2024-08-14T12:46:52Z</time>
      </trkpt>
      <trkpt lat="44.97752" lon="6.11962">
        <ele>1228.6</ele>
        <time>2024-08-14T12:46:53Z</time>
      </trkpt>
      <trkpt lat="44.97752" lon="6.11962">
        <ele>1228.4</ele>
        <time>2024-08-14T12:46:54Z</time>
      </trkpt>
      <trkpt lat="44.97754" lon="6.1196">
        <ele>1228.4</ele>
        <time>2024-08-14T12:46:55Z</time>
      </trkpt>
      <trkpt lat="44.97754" lon="6.1196">
        <ele>1228.2</ele>
        <time>2024-08-14T12:46:56Z</time>
      </trkpt>
      <trkpt lat="44.97757" lon="6.11958">
        <ele>1228.2</ele>
        <time>2024-08-14T12:46:57Z</time>
      </trkpt>
      <trkpt lat="44.97757" lon="6.11958">
        <ele>1228.2</ele>
        <time>2024-08-14T12:46:58Z</time>
      </trkpt>
      <trkpt lat="44.9776" lon="6.11957">
        <ele>1228.4</ele>
        <time>2024-08-14T12:46:59Z</time>
      </trkpt>
      <trkpt lat="44.9776" lon="6.11957">
        <ele>1228.4</ele>
        <time>2024-08-14T12:47:00Z</time>
      </trkpt>
      <trkpt lat="44.97761" lon="6.11955">
        <ele>1228.4</ele>
        <time>2024-08-14T12:47:01Z</time>
      </trkpt>
      <trkpt lat="44.97763" lon="6.11954">
        <ele>1228</ele>
        <time>2024-08-14T12:47:02Z</time>
      </trkpt>
      <trkpt lat="44.97765" lon="6.11955">
        <ele>1228</ele>
        <time>2024-08-14T12:47:03Z</time>
      </trkpt>
      <trkpt lat="44.97765" lon="6.11955">
        <ele>1228.2</ele>
        <time>2024-08-14T12:47:04Z</time>
      </trkpt>
      <trkpt lat="44.97765" lon="6.11955">
        <ele>1228.6</ele>
        <time>2024-08-14T12:47:05Z</time>
      </trkpt>
      <trkpt lat="44.9777" lon="6.11953">
        <ele>1228.6</ele>
        <time>2024-08-14T12:47:06Z</time>
      </trkpt>
      <trkpt lat="44.97772" lon="6.11952">
        <ele>1228.6</ele>
        <time>2024-08-14T12:47:07Z</time>
      </trkpt>
      <trkpt lat="44.97772" lon="6.11952">
        <ele>1228.6</ele>
        <time>2024-08-14T12:47:08Z</time>
      </trkpt>
      <trkpt lat="44.97774" lon="6.11952">
        <ele>1228.6</ele>
        <time>2024-08-14T12:47:09Z</time>
      </trkpt>
      <trkpt lat="44.97774" lon="6.11952">
        <ele>1228.6</ele>
        <time>2024-08-14T12:47:10Z</time>
      </trkpt>
      <trkpt lat="44.97776" lon="6.1195">
        <ele>1228.4</ele>
        <time>2024-08-14T12:47:11Z</time>
      </trkpt>
      <trkpt lat="44.97776" lon="6.1195">
        <ele>1228.4</ele>
        <time>2024-08-14T12:47:12Z</time>
      </trkpt>
      <trkpt lat="44.97778" lon="6.11949">
        <ele>1228.4</ele>
        <time>2024-08-14T12:47:13Z</time>
      </trkpt>
      <trkpt lat="44.97778" lon="6.11949">
        <ele>1228</ele>
        <time>2024-08-14T12:47:14Z</time>
      </trkpt>
      <trkpt lat="44.97781" lon="6.11949">
        <ele>1227.6</ele>
        <time>2024-08-14T12:47:15Z</time>
      </trkpt>
      <trkpt lat="44.97781" lon="6.11949">
        <ele>1227.6</ele>
        <time>2024-08-14T12:47:16Z</time>
      </trkpt>
      <trkpt lat="44.97784" lon="6.1195">
        <ele>1227.6</ele>
        <time>2024-08-14T12:47:17Z</time>
      </trkpt>
      <trkpt lat="44.97784" lon="6.1195">
        <ele>1227.6</ele>
        <time>2024-08-14T12:47:18Z</time>
      </trkpt>
      <trkpt lat="44.97786" lon="6.11949">
        <ele>1227.8</ele>
        <time>2024-08-14T12:47:19Z</time>
      </trkpt>
      <trkpt lat="44.97786" lon="6.11949">
        <ele>1228</ele>
        <time>2024-08-14T12:47:20Z</time>
      </trkpt>
      <trkpt lat="44.97788" lon="6.11948">
        <ele>1228</ele>
        <time>2024-08-14T12:47:21Z</time>
      </trkpt>
      <trkpt lat="44.97788" lon="6.11948">
        <ele>1228.4</ele>
        <time>2024-08-14T12:47:22Z</time>
      </trkpt>
      <trkpt lat="44.9779" lon="6.11946">
        <ele>1228.4</ele>
        <time>2024-08-14T12:47:23Z</time>
      </trkpt>
      <trkpt lat="44.9779" lon="6.11946">
        <ele>1228.4</ele>
        <time>2024-08-14T12:47:24Z</time>
      </trkpt>
      <trkpt lat="44.97792" lon="6.11946">
        <ele>1228.6</ele>
        <time>2024-08-14T12:47:25Z</time>
      </trkpt>
      <trkpt lat="44.97792" lon="6.11946">
        <ele>1228.6</ele>
        <time>2024-08-14T12:47:26Z</time>
      </trkpt>
      <trkpt lat="44.97792" lon="6.11946">
        <ele>1228.4</ele>
        <time>2024-08-14T12:47:27Z</time>
      </trkpt>
      <trkpt lat="44.97795" lon="6.11943">
        <ele>1228.4</ele>
        <time>2024-08-14T12:47:28Z</time>
      </trkpt>
      <trkpt lat="44.97796" lon="6.11942">
        <ele>1228.2</ele>
        <time>2024-08-14T12:47:29Z</time>
      </trkpt>
      <trkpt lat="44.97796" lon="6.11942">
        <ele>1228.2</ele>
        <time>2024-08-14T12:47:30Z</time>
      </trkpt>
      <trkpt lat="44.97802" lon="6.11938">
        <ele>1228</ele>
        <time>2024-08-14T12:47:31Z</time>
      </trkpt>
      <trkpt lat="44.97803" lon="6.11938">
        <ele>1228</ele>
        <time>2024-08-14T12:47:32Z</time>
      </trkpt>
      <trkpt lat="44.97803" lon="6.11938">
        <ele>1228</ele>
        <time>2024-08-14T12:47:33Z</time>
      </trkpt>
      <trkpt lat="44.97806" lon="6.11936">
        <ele>1227.8</ele>
        <time>2024-08-14T12:47:34Z</time>
      </trkpt>
      <trkpt lat="44.97806" lon="6.11936">
        <ele>1227.6</ele>
        <time>2024-08-14T12:47:35Z</time>
      </trkpt>
      <trkpt lat="44.97808" lon="6.11933">
        <ele>1227.4</ele>
        <time>2024-08-14T12:47:36Z</time>
      </trkpt>
      <trkpt lat="44.97808" lon="6.11933">
        <ele>1227.4</ele>
        <time>2024-08-14T12:47:37Z</time>
      </trkpt>
      <trkpt lat="44.97808" lon="6.11933">
        <ele>1227.4</ele>
        <time>2024-08-14T12:47:38Z</time>
      </trkpt>
      <trkpt lat="44.97812" lon="6.1193">
        <ele>1227.4</ele>
        <time>2024-08-14T12:47:39Z</time>
      </trkpt>
      <trkpt lat="44.97813" lon="6.11929">
        <ele>1227.2</ele>
        <time>2024-08-14T12:47:40Z</time>
      </trkpt>
      <trkpt lat="44.97813" lon="6.11929">
        <ele>1227</ele>
        <time>2024-08-14T12:47:41Z</time>
      </trkpt>
      <trkpt lat="44.97815" lon="6.11927">
        <ele>1226.8</ele>
        <time>2024-08-14T12:47:42Z</time>
      </trkpt>
      <trkpt lat="44.97815" lon="6.11927">
        <ele>1226.8</ele>
        <time>2024-08-14T12:47:43Z</time>
      </trkpt>
      <trkpt lat="44.97818" lon="6.11926">
        <ele>1226.6</ele>
        <time>2024-08-14T12:47:44Z</time>
      </trkpt>
      <trkpt lat="44.97818" lon="6.11926">
        <ele>1226.4</ele>
        <time>2024-08-14T12:47:45Z</time>
      </trkpt>
      <trkpt lat="44.9782" lon="6.11924">
        <ele>1226.2</ele>
        <time>2024-08-14T12:47:46Z</time>
      </trkpt>
      <trkpt lat="44.9782" lon="6.11924">
        <ele>1226</ele>
        <time>2024-08-14T12:47:47Z</time>
      </trkpt>
      <trkpt lat="44.9782" lon="6.11921">
        <ele>1225.6</ele>
        <time>2024-08-14T12:47:48Z</time>
      </trkpt>
      <trkpt lat="44.9782" lon="6.11921">
        <ele>1225.6</ele>
        <time>2024-08-14T12:47:49Z</time>
      </trkpt>
      <trkpt lat="44.97821" lon="6.11919">
        <ele>1225.6</ele>
        <time>2024-08-14T12:47:50Z</time>
      </trkpt>
      <trkpt lat="44.97821" lon="6.11919">
        <ele>1225.4</ele>
        <time>2024-08-14T12:47:51Z</time>
      </trkpt>
      <trkpt lat="44.97821" lon="6.11919">
        <ele>1225.4</ele>
        <time>2024-08-14T12:47:52Z</time>
      </trkpt>
      <trkpt lat="44.97823" lon="6.11916">
        <ele>1224.8</ele>
        <time>2024-08-14T12:47:53Z</time>
      </trkpt>
      <trkpt lat="44.97823" lon="6.11916">
        <ele>1224.6</ele>
        <time>2024-08-14T12:47:54Z</time>
      </trkpt>
      <trkpt lat="44.97825" lon="6.11913">
        <ele>1224</ele>
        <time>2024-08-14T12:47:55Z</time>
      </trkpt>
      <trkpt lat="44.97826" lon="6.11911">
        <ele>1223.6</ele>
        <time>2024-08-14T12:47:56Z</time>
      </trkpt>
      <trkpt lat="44.97826" lon="6.11911">
        <ele>1223.2</ele>
        <time>2024-08-14T12:47:57Z</time>
      </trkpt>
      <trkpt lat="44.97828" lon="6.11908">
        <ele>1222.8</ele>
        <time>2024-08-14T12:47:58Z</time>
      </trkpt>
      <trkpt lat="44.97828" lon="6.11908">
        <ele>1222.4</ele>
        <time>2024-08-14T12:47:59Z</time>
      </trkpt>
      <trkpt lat="44.97829" lon="6.11905">
        <ele>1222.4</ele>
        <time>2024-08-14T12:48:00Z</time>
      </trkpt>
      <trkpt lat="44.97829" lon="6.11905">
        <ele>1222.2</ele>
        <time>2024-08-14T12:48:01Z</time>
      </trkpt>
      <trkpt lat="44.97831" lon="6.11902">
        <ele>1221.2</ele>
        <time>2024-08-14T12:48:02Z</time>
      </trkpt>
      <trkpt lat="44.97831" lon="6.11902">
        <ele>1221.2</ele>
        <time>2024-08-14T12:48:03Z</time>
      </trkpt>
      <trkpt lat="44.97833" lon="6.11899">
        <ele>1220.8</ele>
        <time>2024-08-14T12:48:04Z</time>
      </trkpt>
      <trkpt lat="44.97833" lon="6.11899">
        <ele>1220.8</ele>
        <time>2024-08-14T12:48:05Z</time>
      </trkpt>
      <trkpt lat="44.97835" lon="6.11897">
        <ele>1220.6</ele>
        <time>2024-08-14T12:48:06Z</time>
      </trkpt>
      <trkpt lat="44.97835" lon="6.11897">
        <ele>1220.4</ele>
        <time>2024-08-14T12:48:07Z</time>
      </trkpt>
      <trkpt lat="44.97837" lon="6.11892">
        <ele>1220.2</ele>
        <time>2024-08-14T12:48:08Z</time>
      </trkpt>
      <trkpt lat="44.97837" lon="6.11892">
        <ele>1220</ele>
        <time>2024-08-14T12:48:09Z</time>
      </trkpt>
      <trkpt lat="44.97838" lon="6.11889">
        <ele>1219.6</ele>
        <time>2024-08-14T12:48:10Z</time>
      </trkpt>
      <trkpt lat="44.97839" lon="6.11887">
        <ele>1219.6</ele>
        <time>2024-08-14T12:48:11Z</time>
      </trkpt>
      <trkpt lat="44.97839" lon="6.11887">
        <ele>1219.6</ele>
        <time>2024-08-14T12:48:12Z</time>
      </trkpt>
      <trkpt lat="44.97839" lon="6.11887">
        <ele>1219.2</ele>
        <time>2024-08-14T12:48:13Z</time>
      </trkpt>
      <trkpt lat="44.9784" lon="6.11884">
        <ele>1219.2</ele>
        <time>2024-08-14T12:48:14Z</time>
      </trkpt>
      <trkpt lat="44.9784" lon="6.11884">
        <ele>1219</ele>
        <time>2024-08-14T12:48:15Z</time>
      </trkpt>
      <trkpt lat="44.97841" lon="6.11881">
        <ele>1219</ele>
        <time>2024-08-14T12:48:16Z</time>
      </trkpt>
      <trkpt lat="44.97841" lon="6.11881">
        <ele>1219</ele>
        <time>2024-08-14T12:48:17Z</time>
      </trkpt>
      <trkpt lat="44.97843" lon="6.11879">
        <ele>1219</ele>
        <time>2024-08-14T12:48:18Z</time>
      </trkpt>
      <trkpt lat="44.97843" lon="6.11879">
        <ele>1218.6</ele>
        <time>2024-08-14T12:48:19Z</time>
      </trkpt>
      <trkpt lat="44.97845" lon="6.11875">
        <ele>1218</ele>
        <time>2024-08-14T12:48:20Z</time>
      </trkpt>
      <trkpt lat="44.97845" lon="6.11875">
        <ele>1218</ele>
        <time>2024-08-14T12:48:21Z</time>
      </trkpt>
      <trkpt lat="44.97847" lon="6.11873">
        <ele>1218</ele>
        <time>2024-08-14T12:48:22Z</time>
      </trkpt>
      <trkpt lat="44.97847" lon="6.11873">
        <ele>1218</ele>
        <time>2024-08-14T12:48:23Z</time>
      </trkpt>
      <trkpt lat="44.97849" lon="6.1187">
        <ele>1217.8</ele>
        <time>2024-08-14T12:48:24Z</time>
      </trkpt>
      <trkpt lat="44.97849" lon="6.1187">
        <ele>1217.6</ele>
        <time>2024-08-14T12:48:25Z</time>
      </trkpt>
      <trkpt lat="44.97851" lon="6.11867">
        <ele>1217.4</ele>
        <time>2024-08-14T12:48:26Z</time>
      </trkpt>
      <trkpt lat="44.97851" lon="6.11867">
        <ele>1217.2</ele>
        <time>2024-08-14T12:48:27Z</time>
      </trkpt>
      <trkpt lat="44.97853" lon="6.11865">
        <ele>1217</ele>
        <time>2024-08-14T12:48:28Z</time>
      </trkpt>
      <trkpt lat="44.97853" lon="6.11865">
        <ele>1216.8</ele>
        <time>2024-08-14T12:48:29Z</time>
      </trkpt>
      <trkpt lat="44.97856" lon="6.11864">
        <ele>1216.8</ele>
        <time>2024-08-14T12:48:30Z</time>
      </trkpt>
      <trkpt lat="44.97856" lon="6.11864">
        <ele>1216.6</ele>
        <time>2024-08-14T12:48:31Z</time>
      </trkpt>
      <trkpt lat="44.97858" lon="6.11863">
        <ele>1216.4</ele>
        <time>2024-08-14T12:48:32Z</time>
      </trkpt>
      <trkpt lat="44.97858" lon="6.11863">
        <ele>1216.4</ele>
        <time>2024-08-14T12:48:33Z</time>
      </trkpt>
      <trkpt lat="44.97861" lon="6.11862">
        <ele>1215.8</ele>
        <time>2024-08-14T12:48:34Z</time>
      </trkpt>
      <trkpt lat="44.97861" lon="6.11862">
        <ele>1215.2</ele>
        <time>2024-08-14T12:48:35Z</time>
      </trkpt>
      <trkpt lat="44.97862" lon="6.11861">
        <ele>1214.8</ele>
        <time>2024-08-14T12:48:36Z</time>
      </trkpt>
      <trkpt lat="44.97862" lon="6.11861">
        <ele>1214.6</ele>
        <time>2024-08-14T12:48:37Z</time>
      </trkpt>
      <trkpt lat="44.97862" lon="6.11861">
        <ele>1214.4</ele>
        <time>2024-08-14T12:48:38Z</time>
      </trkpt>
      <trkpt lat="44.97864" lon="6.11858">
        <ele>1214.2</ele>
        <time>2024-08-14T12:48:39Z</time>
      </trkpt>
      <trkpt lat="44.97864" lon="6.11858">
        <ele>1213.8</ele>
        <time>2024-08-14T12:48:40Z</time>
      </trkpt>
      <trkpt lat="44.97864" lon="6.11858">
        <ele>1213.4</ele>
        <time>2024-08-14T12:48:41Z</time>
      </trkpt>
      <trkpt lat="44.97866" lon="6.1186">
        <ele>1213.2</ele>
        <time>2024-08-14T12:48:42Z</time>
      </trkpt>
      <trkpt lat="44.97866" lon="6.1186">
        <ele>1213</ele>
        <time>2024-08-14T12:48:43Z</time>
      </trkpt>
      <trkpt lat="44.97866" lon="6.11864">
        <ele>1213</ele>
        <time>2024-08-14T12:48:44Z</time>
      </trkpt>
      <trkpt lat="44.97866" lon="6.11864">
        <ele>1212.8</ele>
        <time>2024-08-14T12:48:45Z</time>
      </trkpt>
      <trkpt lat="44.97864" lon="6.11867">
        <ele>1212.4</ele>
        <time>2024-08-14T12:48:46Z</time>
      </trkpt>
      <trkpt lat="44.97864" lon="6.11867">
        <ele>1212.4</ele>
        <time>2024-08-14T12:48:47Z</time>
      </trkpt>
      <trkpt lat="44.97863" lon="6.1187">
        <ele>1212.2</ele>
        <time>2024-08-14T12:48:48Z</time>
      </trkpt>
      <trkpt lat="44.97863" lon="6.1187">
        <ele>1212</ele>
        <time>2024-08-14T12:48:49Z</time>
      </trkpt>
      <trkpt lat="44.97862" lon="6.11873">
        <ele>1211.6</ele>
        <time>2024-08-14T12:48:50Z</time>
      </trkpt>
      <trkpt lat="44.97862" lon="6.11873">
        <ele>1211.4</ele>
        <time>2024-08-14T12:48:51Z</time>
      </trkpt>
      <trkpt lat="44.97862" lon="6.11873">
        <ele>1211.2</ele>
        <time>2024-08-14T12:48:52Z</time>
      </trkpt>
      <trkpt lat="44.97861" lon="6.11876">
        <ele>1210.8</ele>
        <time>2024-08-14T12:48:53Z</time>
      </trkpt>
      <trkpt lat="44.97861" lon="6.11876">
        <ele>1210.6</ele>
        <time>2024-08-14T12:48:54Z</time>
      </trkpt>
      <trkpt lat="44.97863" lon="6.11875">
        <ele>1210</ele>
        <time>2024-08-14T12:48:55Z</time>
      </trkpt>
      <trkpt lat="44.97863" lon="6.11875">
        <ele>1209.8</ele>
        <time>2024-08-14T12:48:56Z</time>
      </trkpt>
      <trkpt lat="44.97865" lon="6.11874">
        <ele>1209.6</ele>
        <time>2024-08-14T12:48:57Z</time>
      </trkpt>
      <trkpt lat="44.97865" lon="6.11874">
        <ele>1209.4</ele>
        <time>2024-08-14T12:48:58Z</time>
      </trkpt>
      <trkpt lat="44.97867" lon="6.11872">
        <ele>1209.2</ele>
        <time>2024-08-14T12:48:59Z</time>
      </trkpt>
      <trkpt lat="44.97867" lon="6.11872">
        <ele>1208.8</ele>
        <time>2024-08-14T12:49:00Z</time>
      </trkpt>
      <trkpt lat="44.97867" lon="6.11872">
        <ele>1208.4</ele>
        <time>2024-08-14T12:49:01Z</time>
      </trkpt>
      <trkpt lat="44.97869" lon="6.11868">
        <ele>1207.6</ele>
        <time>2024-08-14T12:49:02Z</time>
      </trkpt>
      <trkpt lat="44.97869" lon="6.11868">
        <ele>1207.6</ele>
        <time>2024-08-14T12:49:03Z</time>
      </trkpt>
      <trkpt lat="44.97871" lon="6.11867">
        <ele>1207.2</ele>
        <time>2024-08-14T12:49:04Z</time>
      </trkpt>
      <trkpt lat="44.97871" lon="6.11867">
        <ele>1206.8</ele>
        <time>2024-08-14T12:49:05Z</time>
      </trkpt>
      <trkpt lat="44.97872" lon="6.11865">
        <ele>1206.6</ele>
        <time>2024-08-14T12:49:06Z</time>
      </trkpt>
      <trkpt lat="44.97872" lon="6.11865">
        <ele>1206.4</ele>
        <time>2024-08-14T12:49:07Z</time>
      </trkpt>
      <trkpt lat="44.97874" lon="6.11863">
        <ele>1206.2</ele>
        <time>2024-08-14T12:49:08Z</time>
      </trkpt>
      <trkpt lat="44.97874" lon="6.11863">
        <ele>1206</ele>
        <time>2024-08-14T12:49:09Z</time>
      </trkpt>
      <trkpt lat="44.97875" lon="6.1186">
        <ele>1205.6</ele>
        <time>2024-08-14T12:49:10Z</time>
      </trkpt>
      <trkpt lat="44.97875" lon="6.1186">
        <ele>1205.2</ele>
        <time>2024-08-14T12:49:11Z</time>
      </trkpt>
      <trkpt lat="44.97875" lon="6.11857">
        <ele>1204.6</ele>
        <time>2024-08-14T12:49:12Z</time>
      </trkpt>
      <trkpt lat="44.97875" lon="6.11857">
        <ele>1204.2</ele>
        <time>2024-08-14T12:49:13Z</time>
      </trkpt>
      <trkpt lat="44.97877" lon="6.11855">
        <ele>1204</ele>
        <time>2024-08-14T12:49:14Z</time>
      </trkpt>
      <trkpt lat="44.97877" lon="6.11855">
        <ele>1203.8</ele>
        <time>2024-08-14T12:49:15Z</time>
      </trkpt>
      <trkpt lat="44.97878" lon="6.11852">
        <ele>1203.8</ele>
        <time>2024-08-14T12:49:16Z</time>
      </trkpt>
      <trkpt lat="44.97878" lon="6.11852">
        <ele>1203.4</ele>
        <time>2024-08-14T12:49:17Z</time>
      </trkpt>
      <trkpt lat="44.97879" lon="6.1185">
        <ele>1202.8</ele>
        <time>2024-08-14T12:49:18Z</time>
      </trkpt>
      <trkpt lat="44.97879" lon="6.1185">
        <ele>1202.6</ele>
        <time>2024-08-14T12:49:19Z</time>
      </trkpt>
      <trkpt lat="44.97881" lon="6.11848">
        <ele>1202.2</ele>
        <time>2024-08-14T12:49:20Z</time>
      </trkpt>
      <trkpt lat="44.97881" lon="6.11848">
        <ele>1201.8</ele>
        <time>2024-08-14T12:49:21Z</time>
      </trkpt>
      <trkpt lat="44.97884" lon="6.11846">
        <ele>1201.6</ele>
        <time>2024-08-14T12:49:22Z</time>
      </trkpt>
      <trkpt lat="44.97884" lon="6.11846">
        <ele>1201.2</ele>
        <time>2024-08-14T12:49:23Z</time>
      </trkpt>
      <trkpt lat="44.97885" lon="6.11846">
        <ele>1201</ele>
        <time>2024-08-14T12:49:24Z</time>
      </trkpt>
      <trkpt lat="44.97885" lon="6.11846">
        <ele>1200.8</ele>
        <time>2024-08-14T12:49:25Z</time>
      </trkpt>
      <trkpt lat="44.97887" lon="6.11845">
        <ele>1200.2</ele>
        <time>2024-08-14T12:49:26Z</time>
      </trkpt>
      <trkpt lat="44.97887" lon="6.11845">
        <ele>1200</ele>
        <time>2024-08-14T12:49:27Z</time>
      </trkpt>
      <trkpt lat="44.97889" lon="6.11843">
        <ele>1199.8</ele>
        <time>2024-08-14T12:49:28Z</time>
      </trkpt>
      <trkpt lat="44.97889" lon="6.11843">
        <ele>1199.2</ele>
        <time>2024-08-14T12:49:29Z</time>
      </trkpt>
      <trkpt lat="44.97891" lon="6.11842">
        <ele>1198.8</ele>
        <time>2024-08-14T12:49:30Z</time>
      </trkpt>
      <trkpt lat="44.97891" lon="6.11842">
        <ele>1198.4</ele>
        <time>2024-08-14T12:49:31Z</time>
      </trkpt>
      <trkpt lat="44.97894" lon="6.1184">
        <ele>1198</ele>
        <time>2024-08-14T12:49:32Z</time>
      </trkpt>
      <trkpt lat="44.97894" lon="6.1184">
        <ele>1197.8</ele>
        <time>2024-08-14T12:49:33Z</time>
      </trkpt>
      <trkpt lat="44.97896" lon="6.11838">
        <ele>1197.2</ele>
        <time>2024-08-14T12:49:34Z</time>
      </trkpt>
      <trkpt lat="44.97896" lon="6.11838">
        <ele>1196.8</ele>
        <time>2024-08-14T12:49:35Z</time>
      </trkpt>
      <trkpt lat="44.97898" lon="6.11835">
        <ele>1196.6</ele>
        <time>2024-08-14T12:49:36Z</time>
      </trkpt>
      <trkpt lat="44.97898" lon="6.11835">
        <ele>1196.2</ele>
        <time>2024-08-14T12:49:37Z</time>
      </trkpt>
      <trkpt lat="44.979" lon="6.11833">
        <ele>1195.8</ele>
        <time>2024-08-14T12:49:38Z</time>
      </trkpt>
      <trkpt lat="44.979" lon="6.11833">
        <ele>1195.6</ele>
        <time>2024-08-14T12:49:39Z</time>
      </trkpt>
      <trkpt lat="44.97901" lon="6.1183">
        <ele>1195.2</ele>
        <time>2024-08-14T12:49:40Z</time>
      </trkpt>
      <trkpt lat="44.97901" lon="6.1183">
        <ele>1195</ele>
        <time>2024-08-14T12:49:41Z</time>
      </trkpt>
      <trkpt lat="44.97903" lon="6.11827">
        <ele>1194.6</ele>
        <time>2024-08-14T12:49:42Z</time>
      </trkpt>
      <trkpt lat="44.97903" lon="6.11827">
        <ele>1194.4</ele>
        <time>2024-08-14T12:49:43Z</time>
      </trkpt>
      <trkpt lat="44.97905" lon="6.11826">
        <ele>1194</ele>
        <time>2024-08-14T12:49:44Z</time>
      </trkpt>
      <trkpt lat="44.97905" lon="6.11826">
        <ele>1193.8</ele>
        <time>2024-08-14T12:49:45Z</time>
      </trkpt>
      <trkpt lat="44.97907" lon="6.11824">
        <ele>1193.4</ele>
        <time>2024-08-14T12:49:46Z</time>
      </trkpt>
      <trkpt lat="44.97907" lon="6.11824">
        <ele>1193.2</ele>
        <time>2024-08-14T12:49:47Z</time>
      </trkpt>
      <trkpt lat="44.97909" lon="6.11826">
        <ele>1193</ele>
        <time>2024-08-14T12:49:48Z</time>
      </trkpt>
      <trkpt lat="44.97909" lon="6.11826">
        <ele>1192.8</ele>
        <time>2024-08-14T12:49:49Z</time>
      </trkpt>
      <trkpt lat="44.97909" lon="6.11826">
        <ele>1192.4</ele>
        <time>2024-08-14T12:49:50Z</time>
      </trkpt>
      <trkpt lat="44.97909" lon="6.11828">
        <ele>1192</ele>
        <time>2024-08-14T12:49:51Z</time>
      </trkpt>
      <trkpt lat="44.97909" lon="6.11828">
        <ele>1191.6</ele>
        <time>2024-08-14T12:49:52Z</time>
      </trkpt>
      <trkpt lat="44.97908" lon="6.11831">
        <ele>1191.4</ele>
        <time>2024-08-14T12:49:53Z</time>
      </trkpt>
      <trkpt lat="44.97908" lon="6.11831">
        <ele>1191</ele>
        <time>2024-08-14T12:49:54Z</time>
      </trkpt>
      <trkpt lat="44.97907" lon="6.11834">
        <ele>1190.6</ele>
        <time>2024-08-14T12:49:55Z</time>
      </trkpt>
      <trkpt lat="44.97907" lon="6.11834">
        <ele>1190.2</ele>
        <time>2024-08-14T12:49:56Z</time>
      </trkpt>
      <trkpt lat="44.97907" lon="6.11838">
        <ele>1189.8</ele>
        <time>2024-08-14T12:49:57Z</time>
      </trkpt>
      <trkpt lat="44.97907" lon="6.11838">
        <ele>1189.6</ele>
        <time>2024-08-14T12:49:58Z</time>
      </trkpt>
      <trkpt lat="44.97907" lon="6.11842">
        <ele>1189.4</ele>
        <time>2024-08-14T12:49:59Z</time>
      </trkpt>
      <trkpt lat="44.97907" lon="6.11842">
        <ele>1189</ele>
        <time>2024-08-14T12:50:00Z</time>
      </trkpt>
      <trkpt lat="44.97905" lon="6.11845">
        <ele>1188.8</ele>
        <time>2024-08-14T12:50:01Z</time>
      </trkpt>
      <trkpt lat="44.97905" lon="6.11845">
        <ele>1188.2</ele>
        <time>2024-08-14T12:50:02Z</time>
      </trkpt>
      <trkpt lat="44.97904" lon="6.11849">
        <ele>1188.2</ele>
        <time>2024-08-14T12:50:03Z</time>
      </trkpt>
      <trkpt lat="44.97904" lon="6.11849">
        <ele>1187.8</ele>
        <time>2024-08-14T12:50:04Z</time>
      </trkpt>
      <trkpt lat="44.97905" lon="6.11852">
        <ele>1187.4</ele>
        <time>2024-08-14T12:50:05Z</time>
      </trkpt>
      <trkpt lat="44.97905" lon="6.11852">
        <ele>1187.2</ele>
        <time>2024-08-14T12:50:06Z</time>
      </trkpt>
      <trkpt lat="44.97905" lon="6.11852">
        <ele>1186.8</ele>
        <time>2024-08-14T12:50:07Z</time>
      </trkpt>
      <trkpt lat="44.97905" lon="6.11852">
        <ele>1186.2</ele>
        <time>2024-08-14T12:50:08Z</time>
      </trkpt>
      <trkpt lat="44.97905" lon="6.11852">
        <ele>1185.8</ele>
        <time>2024-08-14T12:50:09Z</time>
      </trkpt>
      <trkpt lat="44.97906" lon="6.11849">
        <ele>1185.8</ele>
        <time>2024-08-14T12:50:10Z</time>
      </trkpt>
      <trkpt lat="44.97906" lon="6.11849">
        <ele>1185.8</ele>
        <time>2024-08-14T12:50:11Z</time>
      </trkpt>
      <trkpt lat="44.97908" lon="6.11847">
        <ele>1185.4</ele>
        <time>2024-08-14T12:50:12Z</time>
      </trkpt>
      <trkpt lat="44.97908" lon="6.11847">
        <ele>1185.2</ele>
        <time>2024-08-14T12:50:13Z</time>
      </trkpt>
      <trkpt lat="44.97909" lon="6.11844">
        <ele>1185</ele>
        <time>2024-08-14T12:50:14Z</time>
      </trkpt>
      <trkpt lat="44.97909" lon="6.11844">
        <ele>1184.6</ele>
        <time>2024-08-14T12:50:15Z</time>
      </trkpt>
      <trkpt lat="44.97912" lon="6.11842">
        <ele>1184.4</ele>
        <time>2024-08-14T12:50:16Z</time>
      </trkpt>
      <trkpt lat="44.97912" lon="6.11842">
        <ele>1184.2</ele>
        <time>2024-08-14T12:50:17Z</time>
      </trkpt>
      <trkpt lat="44.97912" lon="6.11842">
        <ele>1184.2</ele>
        <time>2024-08-14T12:50:18Z</time>
      </trkpt>
      <trkpt lat="44.97913" lon="6.11841">
        <ele>1183.8</ele>
        <time>2024-08-14T12:50:19Z</time>
      </trkpt>
      <trkpt lat="44.97913" lon="6.11841">
        <ele>1183.4</ele>
        <time>2024-08-14T12:50:20Z</time>
      </trkpt>
      <trkpt lat="44.97913" lon="6.11841">
        <ele>1183.2</ele>
        <time>2024-08-14T12:50:21Z</time>
      </trkpt>
      <trkpt lat="44.97915" lon="6.11838">
        <ele>1182.8</ele>
        <time>2024-08-14T12:50:22Z</time>
      </trkpt>
      <trkpt lat="44.97915" lon="6.11838">
        <ele>1182.8</ele>
        <time>2024-08-14T12:50:23Z</time>
      </trkpt>
      <trkpt lat="44.97917" lon="6.11835">
        <ele>1182.2</ele>
        <time>2024-08-14T12:50:24Z</time>
      </trkpt>
      <trkpt lat="44.97917" lon="6.11835">
        <ele>1181.8</ele>
        <time>2024-08-14T12:50:25Z</time>
      </trkpt>
      <trkpt lat="44.97917" lon="6.1183">
        <ele>1181.6</ele>
        <time>2024-08-14T12:50:26Z</time>
      </trkpt>
      <trkpt lat="44.97917" lon="6.1183">
        <ele>1181.4</ele>
        <time>2024-08-14T12:50:27Z</time>
      </trkpt>
      <trkpt lat="44.97919" lon="6.11829">
        <ele>1181.2</ele>
        <time>2024-08-14T12:50:28Z</time>
      </trkpt>
      <trkpt lat="44.97919" lon="6.11829">
        <ele>1181</ele>
        <time>2024-08-14T12:50:29Z</time>
      </trkpt>
      <trkpt lat="44.97919" lon="6.11829">
        <ele>1180.8</ele>
        <time>2024-08-14T12:50:30Z</time>
      </trkpt>
      <trkpt lat="44.97919" lon="6.11829">
        <ele>1180.2</ele>
        <time>2024-08-14T12:50:31Z</time>
      </trkpt>
      <trkpt lat="44.97921" lon="6.11827">
        <ele>1179.8</ele>
        <time>2024-08-14T12:50:32Z</time>
      </trkpt>
      <trkpt lat="44.97921" lon="6.11827">
        <ele>1179.8</ele>
        <time>2024-08-14T12:50:33Z</time>
      </trkpt>
      <trkpt lat="44.97921" lon="6.11827">
        <ele>1179.4</ele>
        <time>2024-08-14T12:50:34Z</time>
      </trkpt>
      <trkpt lat="44.97922" lon="6.11831">
        <ele>1178.8</ele>
        <time>2024-08-14T12:50:35Z</time>
      </trkpt>
      <trkpt lat="44.97922" lon="6.11831">
        <ele>1178.6</ele>
        <time>2024-08-14T12:50:36Z</time>
      </trkpt>
      <trkpt lat="44.97921" lon="6.11834">
        <ele>1178.4</ele>
        <time>2024-08-14T12:50:37Z</time>
      </trkpt>
      <trkpt lat="44.97921" lon="6.11834">
        <ele>1178.4</ele>
        <time>2024-08-14T12:50:38Z</time>
      </trkpt>
      <trkpt lat="44.97921" lon="6.11838">
        <ele>1178</ele>
        <time>2024-08-14T12:50:39Z</time>
      </trkpt>
      <trkpt lat="44.97921" lon="6.11838">
        <ele>1177.6</ele>
        <time>2024-08-14T12:50:40Z</time>
      </trkpt>
      <trkpt lat="44.97921" lon="6.11842">
        <ele>1177.6</ele>
        <time>2024-08-14T12:50:41Z</time>
      </trkpt>
      <trkpt lat="44.97921" lon="6.11842">
        <ele>1177.2</ele>
        <time>2024-08-14T12:50:42Z</time>
      </trkpt>
      <trkpt lat="44.9792" lon="6.11845">
        <ele>1176.8</ele>
        <time>2024-08-14T12:50:43Z</time>
      </trkpt>
      <trkpt lat="44.9792" lon="6.11845">
        <ele>1176.6</ele>
        <time>2024-08-14T12:50:44Z</time>
      </trkpt>
      <trkpt lat="44.97919" lon="6.11848">
        <ele>1176.2</ele>
        <time>2024-08-14T12:50:45Z</time>
      </trkpt>
      <trkpt lat="44.97919" lon="6.11848">
        <ele>1176</ele>
        <time>2024-08-14T12:50:46Z</time>
      </trkpt>
      <trkpt lat="44.97918" lon="6.11852">
        <ele>1175.8</ele>
        <time>2024-08-14T12:50:47Z</time>
      </trkpt>
      <trkpt lat="44.97918" lon="6.11852">
        <ele>1175.6</ele>
        <time>2024-08-14T12:50:48Z</time>
      </trkpt>
      <trkpt lat="44.97918" lon="6.11856">
        <ele>1175.6</ele>
        <time>2024-08-14T12:50:49Z</time>
      </trkpt>
      <trkpt lat="44.97918" lon="6.11856">
        <ele>1175.6</ele>
        <time>2024-08-14T12:50:50Z</time>
      </trkpt>
      <trkpt lat="44.9792" lon="6.11857">
        <ele>1175.2</ele>
        <time>2024-08-14T12:50:51Z</time>
      </trkpt>
      <trkpt lat="44.9792" lon="6.11857">
        <ele>1174.8</ele>
        <time>2024-08-14T12:50:52Z</time>
      </trkpt>
      <trkpt lat="44.97923" lon="6.11856">
        <ele>1174.6</ele>
        <time>2024-08-14T12:50:53Z</time>
      </trkpt>
      <trkpt lat="44.97923" lon="6.11856">
        <ele>1174.2</ele>
        <time>2024-08-14T12:50:54Z</time>
      </trkpt>
      <trkpt lat="44.97924" lon="6.11853">
        <ele>1174</ele>
        <time>2024-08-14T12:50:55Z</time>
      </trkpt>
      <trkpt lat="44.97924" lon="6.11853">
        <ele>1173.8</ele>
        <time>2024-08-14T12:50:56Z</time>
      </trkpt>
      <trkpt lat="44.97925" lon="6.1185">
        <ele>1173.4</ele>
        <time>2024-08-14T12:50:57Z</time>
      </trkpt>
      <trkpt lat="44.97925" lon="6.1185">
        <ele>1173.2</ele>
        <time>2024-08-14T12:50:58Z</time>
      </trkpt>
      <trkpt lat="44.97926" lon="6.11848">
        <ele>1173</ele>
        <time>2024-08-14T12:50:59Z</time>
      </trkpt>
      <trkpt lat="44.97926" lon="6.11848">
        <ele>1172.6</ele>
        <time>2024-08-14T12:51:00Z</time>
      </trkpt>
      <trkpt lat="44.97928" lon="6.11847">
        <ele>1172.4</ele>
        <time>2024-08-14T12:51:01Z</time>
      </trkpt>
      <trkpt lat="44.97928" lon="6.11847">
        <ele>1171.6</ele>
        <time>2024-08-14T12:51:02Z</time>
      </trkpt>
      <trkpt lat="44.9793" lon="6.11844">
        <ele>1171.6</ele>
        <time>2024-08-14T12:51:03Z</time>
      </trkpt>
      <trkpt lat="44.9793" lon="6.11844">
        <ele>1171.2</ele>
        <time>2024-08-14T12:51:04Z</time>
      </trkpt>
      <trkpt lat="44.97931" lon="6.11842">
        <ele>1171</ele>
        <time>2024-08-14T12:51:05Z</time>
      </trkpt>
      <trkpt lat="44.97931" lon="6.11842">
        <ele>1170.6</ele>
        <time>2024-08-14T12:51:06Z</time>
      </trkpt>
      <trkpt lat="44.97931" lon="6.11842">
        <ele>1170.2</ele>
        <time>2024-08-14T12:51:07Z</time>
      </trkpt>
      <trkpt lat="44.97933" lon="6.1184">
        <ele>1169.8</ele>
        <time>2024-08-14T12:51:08Z</time>
      </trkpt>
      <trkpt lat="44.97933" lon="6.1184">
        <ele>1169.6</ele>
        <time>2024-08-14T12:51:09Z</time>
      </trkpt>
      <trkpt lat="44.97933" lon="6.1184">
        <ele>1169.4</ele>
        <time>2024-08-14T12:51:10Z</time>
      </trkpt>
      <trkpt lat="44.97934" lon="6.11841">
        <ele>1169.2</ele>
        <time>2024-08-14T12:51:11Z</time>
      </trkpt>
      <trkpt lat="44.97934" lon="6.11841">
        <ele>1168.8</ele>
        <time>2024-08-14T12:51:12Z</time>
      </trkpt>
      <trkpt lat="44.97934" lon="6.11841">
        <ele>1168.4</ele>
        <time>2024-08-14T12:51:13Z</time>
      </trkpt>
      <trkpt lat="44.97935" lon="6.11845">
        <ele>1168.4</ele>
        <time>2024-08-14T12:51:14Z</time>
      </trkpt>
      <trkpt lat="44.97935" lon="6.11845">
        <ele>1167.8</ele>
        <time>2024-08-14T12:51:15Z</time>
      </trkpt>
      <trkpt lat="44.97935" lon="6.11845">
        <ele>1167.4</ele>
        <time>2024-08-14T12:51:16Z</time>
      </trkpt>
      <trkpt lat="44.97936" lon="6.11848">
        <ele>1167</ele>
        <time>2024-08-14T12:51:17Z</time>
      </trkpt>
      <trkpt lat="44.97936" lon="6.11848">
        <ele>1167</ele>
        <time>2024-08-14T12:51:18Z</time>
      </trkpt>
      <trkpt lat="44.97937" lon="6.11851">
        <ele>1166.8</ele>
        <time>2024-08-14T12:51:19Z</time>
      </trkpt>
      <trkpt lat="44.97937" lon="6.11851">
        <ele>1166.4</ele>
        <time>2024-08-14T12:51:20Z</time>
      </trkpt>
      <trkpt lat="44.97938" lon="6.11855">
        <ele>1166</ele>
        <time>2024-08-14T12:51:21Z</time>
      </trkpt>
      <trkpt lat="44.97938" lon="6.11855">
        <ele>1165.8</ele>
        <time>2024-08-14T12:51:22Z</time>
      </trkpt>
      <trkpt lat="44.97938" lon="6.11855">
        <ele>1165.4</ele>
        <time>2024-08-14T12:51:23Z</time>
      </trkpt>
      <trkpt lat="44.97937" lon="6.1186">
        <ele>1165.2</ele>
        <time>2024-08-14T12:51:24Z</time>
      </trkpt>
      <trkpt lat="44.97937" lon="6.11862">
        <ele>1165</ele>
        <time>2024-08-14T12:51:25Z</time>
      </trkpt>
      <trkpt lat="44.97937" lon="6.11862">
        <ele>1164.8</ele>
        <time>2024-08-14T12:51:26Z</time>
      </trkpt>
      <trkpt lat="44.97935" lon="6.11865">
        <ele>1164.6</ele>
        <time>2024-08-14T12:51:27Z</time>
      </trkpt>
      <trkpt lat="44.97935" lon="6.11865">
        <ele>1164.4</ele>
        <time>2024-08-14T12:51:28Z</time>
      </trkpt>
      <trkpt lat="44.97934" lon="6.11867">
        <ele>1164.2</ele>
        <time>2024-08-14T12:51:29Z</time>
      </trkpt>
      <trkpt lat="44.97934" lon="6.11867">
        <ele>1163.8</ele>
        <time>2024-08-14T12:51:30Z</time>
      </trkpt>
      <trkpt lat="44.97933" lon="6.1187">
        <ele>1163.6</ele>
        <time>2024-08-14T12:51:31Z</time>
      </trkpt>
      <trkpt lat="44.97933" lon="6.1187">
        <ele>1163.6</ele>
        <time>2024-08-14T12:51:32Z</time>
      </trkpt>
      <trkpt lat="44.97932" lon="6.11873">
        <ele>1163.2</ele>
        <time>2024-08-14T12:51:33Z</time>
      </trkpt>
      <trkpt lat="44.97932" lon="6.11873">
        <ele>1163</ele>
        <time>2024-08-14T12:51:34Z</time>
      </trkpt>
      <trkpt lat="44.9793" lon="6.11876">
        <ele>1162.6</ele>
        <time>2024-08-14T12:51:35Z</time>
      </trkpt>
      <trkpt lat="44.9793" lon="6.11876">
        <ele>1162.4</ele>
        <time>2024-08-14T12:51:36Z</time>
      </trkpt>
      <trkpt lat="44.97929" lon="6.11878">
        <ele>1162.4</ele>
        <time>2024-08-14T12:51:37Z</time>
      </trkpt>
      <trkpt lat="44.97929" lon="6.11878">
        <ele>1162.2</ele>
        <time>2024-08-14T12:51:38Z</time>
      </trkpt>
      <trkpt lat="44.97929" lon="6.11878">
        <ele>1162</ele>
        <time>2024-08-14T12:51:39Z</time>
      </trkpt>
      <trkpt lat="44.97929" lon="6.11878">
        <ele>1161.6</ele>
        <time>2024-08-14T12:51:40Z</time>
      </trkpt>
      <trkpt lat="44.97929" lon="6.11878">
        <ele>1161.4</ele>
        <time>2024-08-14T12:51:41Z</time>
      </trkpt>
      <trkpt lat="44.97929" lon="6.11878">
        <ele>1161.4</ele>
        <time>2024-08-14T12:51:42Z</time>
      </trkpt>
      <trkpt lat="44.97931" lon="6.11877">
        <ele>1161</ele>
        <time>2024-08-14T12:51:43Z</time>
      </trkpt>
      <trkpt lat="44.97933" lon="6.11876">
        <ele>1161</ele>
        <time>2024-08-14T12:51:44Z</time>
      </trkpt>
      <trkpt lat="44.97933" lon="6.11876">
        <ele>1160.8</ele>
        <time>2024-08-14T12:51:45Z</time>
      </trkpt>
      <trkpt lat="44.97935" lon="6.11873">
        <ele>1160.6</ele>
        <time>2024-08-14T12:51:46Z</time>
      </trkpt>
      <trkpt lat="44.97935" lon="6.11873">
        <ele>1160.4</ele>
        <time>2024-08-14T12:51:47Z</time>
      </trkpt>
      <trkpt lat="44.97937" lon="6.11873">
        <ele>1160.2</ele>
        <time>2024-08-14T12:51:48Z</time>
      </trkpt>
      <trkpt lat="44.97937" lon="6.11873">
        <ele>1159.8</ele>
        <time>2024-08-14T12:51:49Z</time>
      </trkpt>
      <trkpt lat="44.97937" lon="6.11873">
        <ele>1159.4</ele>
        <time>2024-08-14T12:51:50Z</time>
      </trkpt>
      <trkpt lat="44.97937" lon="6.11873">
        <ele>1159.4</ele>
        <time>2024-08-14T12:51:51Z</time>
      </trkpt>
      <trkpt lat="44.97937" lon="6.11873">
        <ele>1159.4</ele>
        <time>2024-08-14T12:51:52Z</time>
      </trkpt>
      <trkpt lat="44.97937" lon="6.11873">
        <ele>1159.2</ele>
        <time>2024-08-14T12:51:53Z</time>
      </trkpt>
      <trkpt lat="44.97937" lon="6.11873">
        <ele>1159</ele>
        <time>2024-08-14T12:51:54Z</time>
      </trkpt>
      <trkpt lat="44.97937" lon="6.11876">
        <ele>1158.8</ele>
        <time>2024-08-14T12:51:55Z</time>
      </trkpt>
      <trkpt lat="44.97937" lon="6.11876">
        <ele>1158.4</ele>
        <time>2024-08-14T12:51:56Z</time>
      </trkpt>
      <trkpt lat="44.97936" lon="6.11879">
        <ele>1157.8</ele>
        <time>2024-08-14T12:51:57Z</time>
      </trkpt>
      <trkpt lat="44.97936" lon="6.11879">
        <ele>1157.4</ele>
        <time>2024-08-14T12:51:58Z</time>
      </trkpt>
      <trkpt lat="44.97936" lon="6.11879">
        <ele>1157.2</ele>
        <time>2024-08-14T12:51:59Z</time>
      </trkpt>
      <trkpt lat="44.97936" lon="6.11879">
        <ele>1156.8</ele>
        <time>2024-08-14T12:52:00Z</time>
      </trkpt>
      <trkpt lat="44.97935" lon="6.11882">
        <ele>1156.4</ele>
        <time>2024-08-14T12:52:01Z</time>
      </trkpt>
      <trkpt lat="44.97935" lon="6.11882">
        <ele>1156</ele>
        <time>2024-08-14T12:52:02Z</time>
      </trkpt>
      <trkpt lat="44.97933" lon="6.11886">
        <ele>1156</ele>
        <time>2024-08-14T12:52:03Z</time>
      </trkpt>
      <trkpt lat="44.97933" lon="6.11886">
        <ele>1156</ele>
        <time>2024-08-14T12:52:04Z</time>
      </trkpt>
      <trkpt lat="44.97933" lon="6.11889">
        <ele>1155.6</ele>
        <time>2024-08-14T12:52:05Z</time>
      </trkpt>
      <trkpt lat="44.97933" lon="6.11889">
        <ele>1155.4</ele>
        <time>2024-08-14T12:52:06Z</time>
      </trkpt>
      <trkpt lat="44.97933" lon="6.11892">
        <ele>1155</ele>
        <time>2024-08-14T12:52:07Z</time>
      </trkpt>
      <trkpt lat="44.97933" lon="6.11892">
        <ele>1154.8</ele>
        <time>2024-08-14T12:52:08Z</time>
      </trkpt>
      <trkpt lat="44.97935" lon="6.11893">
        <ele>1154.6</ele>
        <time>2024-08-14T12:52:09Z</time>
      </trkpt>
      <trkpt lat="44.97935" lon="6.11893">
        <ele>1154</ele>
        <time>2024-08-14T12:52:10Z</time>
      </trkpt>
      <trkpt lat="44.97935" lon="6.11893">
        <ele>1153.6</ele>
        <time>2024-08-14T12:52:11Z</time>
      </trkpt>
      <trkpt lat="44.97937" lon="6.11889">
        <ele>1153.4</ele>
        <time>2024-08-14T12:52:12Z</time>
      </trkpt>
      <trkpt lat="44.97937" lon="6.11889">
        <ele>1153</ele>
        <time>2024-08-14T12:52:13Z</time>
      </trkpt>
      <trkpt lat="44.97939" lon="6.11888">
        <ele>1152.8</ele>
        <time>2024-08-14T12:52:14Z</time>
      </trkpt>
      <trkpt lat="44.97939" lon="6.11888">
        <ele>1152.4</ele>
        <time>2024-08-14T12:52:15Z</time>
      </trkpt>
      <trkpt lat="44.97939" lon="6.11888">
        <ele>1152</ele>
        <time>2024-08-14T12:52:16Z</time>
      </trkpt>
      <trkpt lat="44.97941" lon="6.11887">
        <ele>1151.8</ele>
        <time>2024-08-14T12:52:17Z</time>
      </trkpt>
      <trkpt lat="44.97941" lon="6.11887">
        <ele>1151.6</ele>
        <time>2024-08-14T12:52:18Z</time>
      </trkpt>
      <trkpt lat="44.97943" lon="6.11885">
        <ele>1151.4</ele>
        <time>2024-08-14T12:52:19Z</time>
      </trkpt>
      <trkpt lat="44.97943" lon="6.11885">
        <ele>1151.2</ele>
        <time>2024-08-14T12:52:20Z</time>
      </trkpt>
      <trkpt lat="44.97946" lon="6.11885">
        <ele>1150.8</ele>
        <time>2024-08-14T12:52:21Z</time>
      </trkpt>
      <trkpt lat="44.97946" lon="6.11885">
        <ele>1150.4</ele>
        <time>2024-08-14T12:52:22Z</time>
      </trkpt>
      <trkpt lat="44.97946" lon="6.11885">
        <ele>1150</ele>
        <time>2024-08-14T12:52:23Z</time>
      </trkpt>
      <trkpt lat="44.97946" lon="6.11885">
        <ele>1149.6</ele>
        <time>2024-08-14T12:52:24Z</time>
      </trkpt>
      <trkpt lat="44.97946" lon="6.11885">
        <ele>1149.4</ele>
        <time>2024-08-14T12:52:25Z</time>
      </trkpt>
      <trkpt lat="44.97949" lon="6.11884">
        <ele>1149</ele>
        <time>2024-08-14T12:52:26Z</time>
      </trkpt>
      <trkpt lat="44.97949" lon="6.11884">
        <ele>1148.8</ele>
        <time>2024-08-14T12:52:27Z</time>
      </trkpt>
      <trkpt lat="44.97949" lon="6.11887">
        <ele>1148.4</ele>
        <time>2024-08-14T12:52:28Z</time>
      </trkpt>
      <trkpt lat="44.97949" lon="6.11887">
        <ele>1148</ele>
        <time>2024-08-14T12:52:29Z</time>
      </trkpt>
      <trkpt lat="44.97949" lon="6.11887">
        <ele>1147.8</ele>
        <time>2024-08-14T12:52:30Z</time>
      </trkpt>
      <trkpt lat="44.97949" lon="6.11887">
        <ele>1147.4</ele>
        <time>2024-08-14T12:52:31Z</time>
      </trkpt>
      <trkpt lat="44.97949" lon="6.11891">
        <ele>1147.4</ele>
        <time>2024-08-14T12:52:32Z</time>
      </trkpt>
      <trkpt lat="44.97949" lon="6.11891">
        <ele>1147</ele>
        <time>2024-08-14T12:52:33Z</time>
      </trkpt>
      <trkpt lat="44.97947" lon="6.11894">
        <ele>1146.6</ele>
        <time>2024-08-14T12:52:34Z</time>
      </trkpt>
      <trkpt lat="44.97947" lon="6.11894">
        <ele>1146.4</ele>
        <time>2024-08-14T12:52:35Z</time>
      </trkpt>
      <trkpt lat="44.97947" lon="6.11899">
        <ele>1146.4</ele>
        <time>2024-08-14T12:52:36Z</time>
      </trkpt>
      <trkpt lat="44.97947" lon="6.11901">
        <ele>1146</ele>
        <time>2024-08-14T12:52:37Z</time>
      </trkpt>
      <trkpt lat="44.97947" lon="6.11901">
        <ele>1145.8</ele>
        <time>2024-08-14T12:52:38Z</time>
      </trkpt>
      <trkpt lat="44.97947" lon="6.11904">
        <ele>1145.4</ele>
        <time>2024-08-14T12:52:39Z</time>
      </trkpt>
      <trkpt lat="44.97947" lon="6.11904">
        <ele>1145</ele>
        <time>2024-08-14T12:52:40Z</time>
      </trkpt>
      <trkpt lat="44.97947" lon="6.11904">
        <ele>1144.8</ele>
        <time>2024-08-14T12:52:41Z</time>
      </trkpt>
      <trkpt lat="44.97946" lon="6.11907">
        <ele>1144.4</ele>
        <time>2024-08-14T12:52:42Z</time>
      </trkpt>
      <trkpt lat="44.97946" lon="6.11907">
        <ele>1144.2</ele>
        <time>2024-08-14T12:52:43Z</time>
      </trkpt>
      <trkpt lat="44.97945" lon="6.1191">
        <ele>1144</ele>
        <time>2024-08-14T12:52:44Z</time>
      </trkpt>
      <trkpt lat="44.97945" lon="6.1191">
        <ele>1143.8</ele>
        <time>2024-08-14T12:52:45Z</time>
      </trkpt>
      <trkpt lat="44.97944" lon="6.11913">
        <ele>1143.6</ele>
        <time>2024-08-14T12:52:46Z</time>
      </trkpt>
      <trkpt lat="44.97944" lon="6.11913">
        <ele>1143.4</ele>
        <time>2024-08-14T12:52:47Z</time>
      </trkpt>
      <trkpt lat="44.97942" lon="6.11917">
        <ele>1143.2</ele>
        <time>2024-08-14T12:52:48Z</time>
      </trkpt>
      <trkpt lat="44.97942" lon="6.11917">
        <ele>1142.8</ele>
        <time>2024-08-14T12:52:49Z</time>
      </trkpt>
      <trkpt lat="44.97941" lon="6.11921">
        <ele>1142.6</ele>
        <time>2024-08-14T12:52:50Z</time>
      </trkpt>
      <trkpt lat="44.97941" lon="6.11921">
        <ele>1142.2</ele>
        <time>2024-08-14T12:52:51Z</time>
      </trkpt>
      <trkpt lat="44.97941" lon="6.11923">
        <ele>1142</ele>
        <time>2024-08-14T12:52:52Z</time>
      </trkpt>
      <trkpt lat="44.97941" lon="6.11923">
        <ele>1141.8</ele>
        <time>2024-08-14T12:52:53Z</time>
      </trkpt>
      <trkpt lat="44.9794" lon="6.11926">
        <ele>1141.8</ele>
        <time>2024-08-14T12:52:54Z</time>
      </trkpt>
      <trkpt lat="44.9794" lon="6.11926">
        <ele>1141.4</ele>
        <time>2024-08-14T12:52:55Z</time>
      </trkpt>
      <trkpt lat="44.9794" lon="6.11929">
        <ele>1141.2</ele>
        <time>2024-08-14T12:52:56Z</time>
      </trkpt>
      <trkpt lat="44.9794" lon="6.11929">
        <ele>1141.2</ele>
        <time>2024-08-14T12:52:57Z</time>
      </trkpt>
      <trkpt lat="44.97939" lon="6.11931">
        <ele>1141.2</ele>
        <time>2024-08-14T12:52:58Z</time>
      </trkpt>
      <trkpt lat="44.97939" lon="6.11931">
        <ele>1140.8</ele>
        <time>2024-08-14T12:52:59Z</time>
      </trkpt>
      <trkpt lat="44.97939" lon="6.11931">
        <ele>1140.6</ele>
        <time>2024-08-14T12:53:00Z</time>
      </trkpt>
      <trkpt lat="44.97939" lon="6.11931">
        <ele>1140.4</ele>
        <time>2024-08-14T12:53:01Z</time>
      </trkpt>
      <trkpt lat="44.97939" lon="6.11931">
        <ele>1139.8</ele>
        <time>2024-08-14T12:53:02Z</time>
      </trkpt>
      <trkpt lat="44.97939" lon="6.11931">
        <ele>1139.8</ele>
        <time>2024-08-14T12:53:03Z</time>
      </trkpt>
      <trkpt lat="44.97939" lon="6.11931">
        <ele>1139.6</ele>
        <time>2024-08-14T12:53:04Z</time>
      </trkpt>
      <trkpt lat="44.97939" lon="6.11931">
        <ele>1139.4</ele>
        <time>2024-08-14T12:53:05Z</time>
      </trkpt>
      <trkpt lat="44.97939" lon="6.11931">
        <ele>1139.2</ele>
        <time>2024-08-14T12:53:06Z</time>
      </trkpt>
      <trkpt lat="44.97939" lon="6.11931">
        <ele>1138.6</ele>
        <time>2024-08-14T12:53:07Z</time>
      </trkpt>
      <trkpt lat="44.97939" lon="6.11931">
        <ele>1138.4</ele>
        <time>2024-08-14T12:53:08Z</time>
      </trkpt>
      <trkpt lat="44.97941" lon="6.11931">
        <ele>1138</ele>
        <time>2024-08-14T12:53:09Z</time>
      </trkpt>
      <trkpt lat="44.97941" lon="6.11931">
        <ele>1137.6</ele>
        <time>2024-08-14T12:53:10Z</time>
      </trkpt>
      <trkpt lat="44.97941" lon="6.11931">
        <ele>1137.2</ele>
        <time>2024-08-14T12:53:11Z</time>
      </trkpt>
      <trkpt lat="44.97941" lon="6.11931">
        <ele>1137</ele>
        <time>2024-08-14T12:53:12Z</time>
      </trkpt>
      <trkpt lat="44.97941" lon="6.11931">
        <ele>1137</ele>
        <time>2024-08-14T12:53:13Z</time>
      </trkpt>
      <trkpt lat="44.97941" lon="6.11931">
        <ele>1137</ele>
        <time>2024-08-14T12:53:14Z</time>
      </trkpt>
      <trkpt lat="44.97941" lon="6.11931">
        <ele>1136.4</ele>
        <time>2024-08-14T12:53:15Z</time>
      </trkpt>
      <trkpt lat="44.97941" lon="6.11931">
        <ele>1136.4</ele>
        <time>2024-08-14T12:53:16Z</time>
      </trkpt>
      <trkpt lat="44.97941" lon="6.11931">
        <ele>1136.2</ele>
        <time>2024-08-14T12:53:17Z</time>
      </trkpt>
      <trkpt lat="44.97941" lon="6.11931">
        <ele>1136.4</ele>
        <time>2024-08-14T12:53:18Z</time>
      </trkpt>
      <trkpt lat="44.97941" lon="6.11931">
        <ele>1136.2</ele>
        <time>2024-08-14T12:53:19Z</time>
      </trkpt>
      <trkpt lat="44.97941" lon="6.11931">
        <ele>1136.4</ele>
        <time>2024-08-14T12:53:20Z</time>
      </trkpt>
      <trkpt lat="44.97941" lon="6.11931">
        <ele>1136.2</ele>
        <time>2024-08-14T12:53:21Z</time>
      </trkpt>
      <trkpt lat="44.97941" lon="6.11931">
        <ele>1136.2</ele>
        <time>2024-08-14T12:53:22Z</time>
      </trkpt>
      <trkpt lat="44.97941" lon="6.11931">
        <ele>1136.2</ele>
        <time>2024-08-14T12:53:23Z</time>
      </trkpt>
      <trkpt lat="44.97941" lon="6.11931">
        <ele>1136.2</ele>
        <time>2024-08-14T12:53:24Z</time>
      </trkpt>
      <trkpt lat="44.97941" lon="6.11931">
        <ele>1136.4</ele>
        <time>2024-08-14T12:53:25Z</time>
      </trkpt>
      <trkpt lat="44.97941" lon="6.11931">
        <ele>1136.4</ele>
        <time>2024-08-14T12:53:26Z</time>
      </trkpt>
      <trkpt lat="44.97941" lon="6.11931">
        <ele>1136.4</ele>
        <time>2024-08-14T12:53:27Z</time>
      </trkpt>
      <trkpt lat="44.97941" lon="6.11931">
        <ele>1136.4</ele>
        <time>2024-08-14T12:53:28Z</time>
      </trkpt>
      <trkpt lat="44.97942" lon="6.11929">
        <ele>1136.4</ele>
        <time>2024-08-14T12:53:29Z</time>
      </trkpt>
      <trkpt lat="44.97942" lon="6.11929">
        <ele>1136.2</ele>
        <time>2024-08-14T12:53:30Z</time>
      </trkpt>
      <trkpt lat="44.97942" lon="6.11929">
        <ele>1136</ele>
        <time>2024-08-14T12:53:31Z</time>
      </trkpt>
      <trkpt lat="44.97945" lon="6.11926">
        <ele>1135.8</ele>
        <time>2024-08-14T12:53:32Z</time>
      </trkpt>
      <trkpt lat="44.97946" lon="6.11925">
        <ele>1135.6</ele>
        <time>2024-08-14T12:53:33Z</time>
      </trkpt>
      <trkpt lat="44.97946" lon="6.11925">
        <ele>1135.4</ele>
        <time>2024-08-14T12:53:34Z</time>
      </trkpt>
      <trkpt lat="44.97946" lon="6.11925">
        <ele>1135</ele>
        <time>2024-08-14T12:53:35Z</time>
      </trkpt>
      <trkpt lat="44.97947" lon="6.11929">
        <ele>1135</ele>
        <time>2024-08-14T12:53:36Z</time>
      </trkpt>
      <trkpt lat="44.97947" lon="6.11929">
        <ele>1134.6</ele>
        <time>2024-08-14T12:53:37Z</time>
      </trkpt>
      <trkpt lat="44.97948" lon="6.11932">
        <ele>1134.2</ele>
        <time>2024-08-14T12:53:38Z</time>
      </trkpt>
      <trkpt lat="44.97948" lon="6.11932">
        <ele>1134.2</ele>
        <time>2024-08-14T12:53:39Z</time>
      </trkpt>
      <trkpt lat="44.97947" lon="6.11935">
        <ele>1134</ele>
        <time>2024-08-14T12:53:40Z</time>
      </trkpt>
      <trkpt lat="44.97947" lon="6.11935">
        <ele>1133.8</ele>
        <time>2024-08-14T12:53:41Z</time>
      </trkpt>
      <trkpt lat="44.97947" lon="6.11938">
        <ele>1133.6</ele>
        <time>2024-08-14T12:53:42Z</time>
      </trkpt>
      <trkpt lat="44.97947" lon="6.11938">
        <ele>1133.4</ele>
        <time>2024-08-14T12:53:43Z</time>
      </trkpt>
      <trkpt lat="44.97947" lon="6.11938">
        <ele>1133</ele>
        <time>2024-08-14T12:53:44Z</time>
      </trkpt>
      <trkpt lat="44.97947" lon="6.11938">
        <ele>1133</ele>
        <time>2024-08-14T12:53:45Z</time>
      </trkpt>
      <trkpt lat="44.97947" lon="6.11938">
        <ele>1133</ele>
        <time>2024-08-14T12:53:46Z</time>
      </trkpt>
      <trkpt lat="44.97947" lon="6.11938">
        <ele>1133</ele>
        <time>2024-08-14T12:53:47Z</time>
      </trkpt>
      <trkpt lat="44.97947" lon="6.11938">
        <ele>1133</ele>
        <time>2024-08-14T12:53:48Z</time>
      </trkpt>
      <trkpt lat="44.97947" lon="6.11938">
        <ele>1133</ele>
        <time>2024-08-14T12:53:49Z</time>
      </trkpt>
      <trkpt lat="44.97946" lon="6.11941">
        <ele>1133</ele>
        <time>2024-08-14T12:53:50Z</time>
      </trkpt>
      <trkpt lat="44.97946" lon="6.11941">
        <ele>1133</ele>
        <time>2024-08-14T12:53:51Z</time>
      </trkpt>
      <trkpt lat="44.97947" lon="6.11944">
        <ele>1132.8</ele>
        <time>2024-08-14T12:53:52Z</time>
      </trkpt>
      <trkpt lat="44.97947" lon="6.11944">
        <ele>1132.4</ele>
        <time>2024-08-14T12:53:53Z</time>
      </trkpt>
      <trkpt lat="44.97947" lon="6.11944">
        <ele>1132</ele>
        <time>2024-08-14T12:53:54Z</time>
      </trkpt>
      <trkpt lat="44.97947" lon="6.11948">
        <ele>1131.8</ele>
        <time>2024-08-14T12:53:55Z</time>
      </trkpt>
      <trkpt lat="44.97947" lon="6.1195">
        <ele>1131.6</ele>
        <time>2024-08-14T12:53:56Z</time>
      </trkpt>
      <trkpt lat="44.97947" lon="6.1195">
        <ele>1131</ele>
        <time>2024-08-14T12:53:57Z</time>
      </trkpt>
      <trkpt lat="44.97948" lon="6.11951">
        <ele>1130.4</ele>
        <time>2024-08-14T12:53:58Z</time>
      </trkpt>
      <trkpt lat="44.97948" lon="6.11951">
        <ele>1130.2</ele>
        <time>2024-08-14T12:53:59Z</time>
      </trkpt>
      <trkpt lat="44.97948" lon="6.11951">
        <ele>1130.2</ele>
        <time>2024-08-14T12:54:00Z</time>
      </trkpt>
      <trkpt lat="44.97948" lon="6.11951">
        <ele>1129.8</ele>
        <time>2024-08-14T12:54:01Z</time>
      </trkpt>
      <trkpt lat="44.97948" lon="6.11951">
        <ele>1129</ele>
        <time>2024-08-14T12:54:02Z</time>
      </trkpt>
      <trkpt lat="44.9795" lon="6.11949">
        <ele>1129</ele>
        <time>2024-08-14T12:54:03Z</time>
      </trkpt>
      <trkpt lat="44.9795" lon="6.11949">
        <ele>1128.6</ele>
        <time>2024-08-14T12:54:04Z</time>
      </trkpt>
      <trkpt lat="44.97951" lon="6.11946">
        <ele>1128.2</ele>
        <time>2024-08-14T12:54:05Z</time>
      </trkpt>
      <trkpt lat="44.97951" lon="6.11946">
        <ele>1128</ele>
        <time>2024-08-14T12:54:06Z</time>
      </trkpt>
      <trkpt lat="44.97951" lon="6.11946">
        <ele>1127.6</ele>
        <time>2024-08-14T12:54:07Z</time>
      </trkpt>
      <trkpt lat="44.97954" lon="6.11947">
        <ele>1127.2</ele>
        <time>2024-08-14T12:54:08Z</time>
      </trkpt>
      <trkpt lat="44.97954" lon="6.11947">
        <ele>1127</ele>
        <time>2024-08-14T12:54:09Z</time>
      </trkpt>
      <trkpt lat="44.97954" lon="6.11947">
        <ele>1126.8</ele>
        <time>2024-08-14T12:54:10Z</time>
      </trkpt>
      <trkpt lat="44.97953" lon="6.11951">
        <ele>1126.4</ele>
        <time>2024-08-14T12:54:11Z</time>
      </trkpt>
      <trkpt lat="44.97953" lon="6.11951">
        <ele>1126.2</ele>
        <time>2024-08-14T12:54:12Z</time>
      </trkpt>
      <trkpt lat="44.97953" lon="6.11951">
        <ele>1126</ele>
        <time>2024-08-14T12:54:13Z</time>
      </trkpt>
      <trkpt lat="44.97951" lon="6.11955">
        <ele>1125.8</ele>
        <time>2024-08-14T12:54:14Z</time>
      </trkpt>
      <trkpt lat="44.97951" lon="6.11957">
        <ele>1125.6</ele>
        <time>2024-08-14T12:54:15Z</time>
      </trkpt>
      <trkpt lat="44.97951" lon="6.11957">
        <ele>1125.4</ele>
        <time>2024-08-14T12:54:16Z</time>
      </trkpt>
      <trkpt lat="44.97952" lon="6.11956">
        <ele>1125.2</ele>
        <time>2024-08-14T12:54:17Z</time>
      </trkpt>
      <trkpt lat="44.97953" lon="6.11956">
        <ele>1125</ele>
        <time>2024-08-14T12:54:18Z</time>
      </trkpt>
      <trkpt lat="44.97953" lon="6.11955">
        <ele>1124.8</ele>
        <time>2024-08-14T12:54:19Z</time>
      </trkpt>
      <trkpt lat="44.97954" lon="6.11954">
        <ele>1124.4</ele>
        <time>2024-08-14T12:54:20Z</time>
      </trkpt>
      <trkpt lat="44.97954" lon="6.11953">
        <ele>1124.4</ele>
        <time>2024-08-14T12:54:21Z</time>
      </trkpt>
      <trkpt lat="44.97955" lon="6.11952">
        <ele>1124</ele>
        <time>2024-08-14T12:54:22Z</time>
      </trkpt>
      <trkpt lat="44.97955" lon="6.11952">
        <ele>1123.6</ele>
        <time>2024-08-14T12:54:23Z</time>
      </trkpt>
      <trkpt lat="44.97955" lon="6.11952">
        <ele>1123.4</ele>
        <time>2024-08-14T12:54:24Z</time>
      </trkpt>
      <trkpt lat="44.97955" lon="6.11952">
        <ele>1122.8</ele>
        <time>2024-08-14T12:54:25Z</time>
      </trkpt>
      <trkpt lat="44.97958" lon="6.11953">
        <ele>1122.8</ele>
        <time>2024-08-14T12:54:26Z</time>
      </trkpt>
      <trkpt lat="44.97958" lon="6.11953">
        <ele>1122.6</ele>
        <time>2024-08-14T12:54:27Z</time>
      </trkpt>
      <trkpt lat="44.97958" lon="6.11954">
        <ele>1122.2</ele>
        <time>2024-08-14T12:54:28Z</time>
      </trkpt>
      <trkpt lat="44.97958" lon="6.11954">
        <ele>1122.2</ele>
        <time>2024-08-14T12:54:29Z</time>
      </trkpt>
      <trkpt lat="44.97958" lon="6.11954">
        <ele>1122</ele>
        <time>2024-08-14T12:54:30Z</time>
      </trkpt>
      <trkpt lat="44.9796" lon="6.11954">
        <ele>1121.8</ele>
        <time>2024-08-14T12:54:31Z</time>
      </trkpt>
      <trkpt lat="44.9796" lon="6.11954">
        <ele>1121.4</ele>
        <time>2024-08-14T12:54:32Z</time>
      </trkpt>
      <trkpt lat="44.9796" lon="6.11954">
        <ele>1121.2</ele>
        <time>2024-08-14T12:54:33Z</time>
      </trkpt>
      <trkpt lat="44.9796" lon="6.11954">
        <ele>1120.8</ele>
        <time>2024-08-14T12:54:34Z</time>
      </trkpt>
      <trkpt lat="44.9796" lon="6.11954">
        <ele>1120.4</ele>
        <time>2024-08-14T12:54:35Z</time>
      </trkpt>
      <trkpt lat="44.9796" lon="6.11954">
        <ele>1120.2</ele>
        <time>2024-08-14T12:54:36Z</time>
      </trkpt>
      <trkpt lat="44.9796" lon="6.11954">
        <ele>1120</ele>
        <time>2024-08-14T12:54:37Z</time>
      </trkpt>
      <trkpt lat="44.9796" lon="6.11954">
        <ele>1120</ele>
        <time>2024-08-14T12:54:38Z</time>
      </trkpt>
      <trkpt lat="44.9796" lon="6.11954">
        <ele>1120</ele>
        <time>2024-08-14T12:54:39Z</time>
      </trkpt>
      <trkpt lat="44.9796" lon="6.11954">
        <ele>1120</ele>
        <time>2024-08-14T12:54:40Z</time>
      </trkpt>
      <trkpt lat="44.9796" lon="6.11954">
        <ele>1120</ele>
        <time>2024-08-14T12:54:41Z</time>
      </trkpt>
      <trkpt lat="44.9796" lon="6.11954">
        <ele>1119.8</ele>
        <time>2024-08-14T12:54:42Z</time>
      </trkpt>
      <trkpt lat="44.9796" lon="6.11954">
        <ele>1119.8</ele>
        <time>2024-08-14T12:54:43Z</time>
      </trkpt>
      <trkpt lat="44.9796" lon="6.11954">
        <ele>1119.8</ele>
        <time>2024-08-14T12:54:44Z</time>
      </trkpt>
      <trkpt lat="44.9796" lon="6.11954">
        <ele>1119.8</ele>
        <time>2024-08-14T12:54:45Z</time>
      </trkpt>
      <trkpt lat="44.9796" lon="6.11954">
        <ele>1119.8</ele>
        <time>2024-08-14T12:54:46Z</time>
      </trkpt>
      <trkpt lat="44.97961" lon="6.11951">
        <ele>1119.8</ele>
        <time>2024-08-14T12:54:47Z</time>
      </trkpt>
      <trkpt lat="44.97961" lon="6.11951">
        <ele>1119.8</ele>
        <time>2024-08-14T12:54:48Z</time>
      </trkpt>
      <trkpt lat="44.97961" lon="6.11951">
        <ele>1119.4</ele>
        <time>2024-08-14T12:54:49Z</time>
      </trkpt>
      <trkpt lat="44.97962" lon="6.11953">
        <ele>1119</ele>
        <time>2024-08-14T12:54:50Z</time>
      </trkpt>
      <trkpt lat="44.97962" lon="6.11953">
        <ele>1118.8</ele>
        <time>2024-08-14T12:54:51Z</time>
      </trkpt>
      <trkpt lat="44.97962" lon="6.11956">
        <ele>1118.4</ele>
        <time>2024-08-14T12:54:52Z</time>
      </trkpt>
      <trkpt lat="44.97962" lon="6.11956">
        <ele>1118.4</ele>
        <time>2024-08-14T12:54:53Z</time>
      </trkpt>
      <trkpt lat="44.97961" lon="6.11959">
        <ele>1118.2</ele>
        <time>2024-08-14T12:54:54Z</time>
      </trkpt>
      <trkpt lat="44.97961" lon="6.11959">
        <ele>1117.8</ele>
        <time>2024-08-14T12:54:55Z</time>
      </trkpt>
      <trkpt lat="44.97961" lon="6.11959">
        <ele>1117.4</ele>
        <time>2024-08-14T12:54:56Z</time>
      </trkpt>
      <trkpt lat="44.97961" lon="6.11959">
        <ele>1117.4</ele>
        <time>2024-08-14T12:54:57Z</time>
      </trkpt>
      <trkpt lat="44.97963" lon="6.11959">
        <ele>1117</ele>
        <time>2024-08-14T12:54:58Z</time>
      </trkpt>
      <trkpt lat="44.97963" lon="6.11959">
        <ele>1116.8</ele>
        <time>2024-08-14T12:54:59Z</time>
      </trkpt>
      <trkpt lat="44.97966" lon="6.11957">
        <ele>1116.4</ele>
        <time>2024-08-14T12:55:00Z</time>
      </trkpt>
      <trkpt lat="44.97966" lon="6.11957">
        <ele>1116.2</ele>
        <time>2024-08-14T12:55:01Z</time>
      </trkpt>
      <trkpt lat="44.97969" lon="6.11956">
        <ele>1115.6</ele>
        <time>2024-08-14T12:55:02Z</time>
      </trkpt>
      <trkpt lat="44.97969" lon="6.11956">
        <ele>1115.6</ele>
        <time>2024-08-14T12:55:03Z</time>
      </trkpt>
      <trkpt lat="44.97969" lon="6.11956">
        <ele>1115.4</ele>
        <time>2024-08-14T12:55:04Z</time>
      </trkpt>
      <trkpt lat="44.97968" lon="6.1196">
        <ele>1115</ele>
        <time>2024-08-14T12:55:05Z</time>
      </trkpt>
      <trkpt lat="44.97968" lon="6.1196">
        <ele>1115</ele>
        <time>2024-08-14T12:55:06Z</time>
      </trkpt>
      <trkpt lat="44.97968" lon="6.1196">
        <ele>1114.8</ele>
        <time>2024-08-14T12:55:07Z</time>
      </trkpt>
      <trkpt lat="44.97967" lon="6.11962">
        <ele>1114.8</ele>
        <time>2024-08-14T12:55:08Z</time>
      </trkpt>
      <trkpt lat="44.97967" lon="6.11962">
        <ele>1114.6</ele>
        <time>2024-08-14T12:55:09Z</time>
      </trkpt>
      <trkpt lat="44.97967" lon="6.11962">
        <ele>1114.2</ele>
        <time>2024-08-14T12:55:10Z</time>
      </trkpt>
      <trkpt lat="44.97967" lon="6.11962">
        <ele>1114.2</ele>
        <time>2024-08-14T12:55:11Z</time>
      </trkpt>
      <trkpt lat="44.97967" lon="6.11962">
        <ele>1114</ele>
        <time>2024-08-14T12:55:12Z</time>
      </trkpt>
      <trkpt lat="44.97967" lon="6.11962">
        <ele>1113.8</ele>
        <time>2024-08-14T12:55:13Z</time>
      </trkpt>
      <trkpt lat="44.97967" lon="6.11962">
        <ele>1113.2</ele>
        <time>2024-08-14T12:55:14Z</time>
      </trkpt>
      <trkpt lat="44.97967" lon="6.11962">
        <ele>1113</ele>
        <time>2024-08-14T12:55:15Z</time>
      </trkpt>
      <trkpt lat="44.97967" lon="6.11962">
        <ele>1112.8</ele>
        <time>2024-08-14T12:55:16Z</time>
      </trkpt>
      <trkpt lat="44.97967" lon="6.11962">
        <ele>1112.6</ele>
        <time>2024-08-14T12:55:17Z</time>
      </trkpt>
      <trkpt lat="44.97967" lon="6.11962">
        <ele>1112</ele>
        <time>2024-08-14T12:55:18Z</time>
      </trkpt>
      <trkpt lat="44.9797" lon="6.11962">
        <ele>1112</ele>
        <time>2024-08-14T12:55:19Z</time>
      </trkpt>
      <trkpt lat="44.97972" lon="6.11961">
        <ele>1112</ele>
        <time>2024-08-14T12:55:20Z</time>
      </trkpt>
      <trkpt lat="44.97974" lon="6.1196">
        <ele>1111.4</ele>
        <time>2024-08-14T12:55:21Z</time>
      </trkpt>
      <trkpt lat="44.97974" lon="6.1196">
        <ele>1111</ele>
        <time>2024-08-14T12:55:22Z</time>
      </trkpt>
      <trkpt lat="44.97976" lon="6.11957">
        <ele>1111</ele>
        <time>2024-08-14T12:55:23Z</time>
      </trkpt>
      <trkpt lat="44.97976" lon="6.11957">
        <ele>1110.6</ele>
        <time>2024-08-14T12:55:24Z</time>
      </trkpt>
      <trkpt lat="44.97979" lon="6.11955">
        <ele>1110.2</ele>
        <time>2024-08-14T12:55:25Z</time>
      </trkpt>
      <trkpt lat="44.97979" lon="6.11955">
        <ele>1109.6</ele>
        <time>2024-08-14T12:55:26Z</time>
      </trkpt>
      <trkpt lat="44.97981" lon="6.11956">
        <ele>1109.4</ele>
        <time>2024-08-14T12:55:27Z</time>
      </trkpt>
      <trkpt lat="44.97981" lon="6.11956">
        <ele>1109.2</ele>
        <time>2024-08-14T12:55:28Z</time>
      </trkpt>
      <trkpt lat="44.97982" lon="6.11957">
        <ele>1109</ele>
        <time>2024-08-14T12:55:29Z</time>
      </trkpt>
      <trkpt lat="44.97982" lon="6.11957">
        <ele>1108.8</ele>
        <time>2024-08-14T12:55:30Z</time>
      </trkpt>
      <trkpt lat="44.97982" lon="6.11961">
        <ele>1108.6</ele>
        <time>2024-08-14T12:55:31Z</time>
      </trkpt>
      <trkpt lat="44.97982" lon="6.11961">
        <ele>1108.4</ele>
        <time>2024-08-14T12:55:32Z</time>
      </trkpt>
      <trkpt lat="44.97981" lon="6.11964">
        <ele>1107.8</ele>
        <time>2024-08-14T12:55:33Z</time>
      </trkpt>
      <trkpt lat="44.97981" lon="6.11964">
        <ele>1107.8</ele>
        <time>2024-08-14T12:55:34Z</time>
      </trkpt>
      <trkpt lat="44.97982" lon="6.11967">
        <ele>1107.6</ele>
        <time>2024-08-14T12:55:35Z</time>
      </trkpt>
      <trkpt lat="44.97982" lon="6.11967">
        <ele>1107.4</ele>
        <time>2024-08-14T12:55:36Z</time>
      </trkpt>
      <trkpt lat="44.97984" lon="6.11965">
        <ele>1107</ele>
        <time>2024-08-14T12:55:37Z</time>
      </trkpt>
      <trkpt lat="44.97984" lon="6.11965">
        <ele>1106.4</ele>
        <time>2024-08-14T12:55:38Z</time>
      </trkpt>
      <trkpt lat="44.97984" lon="6.11965">
        <ele>1106.4</ele>
        <time>2024-08-14T12:55:39Z</time>
      </trkpt>
      <trkpt lat="44.97984" lon="6.11965">
        <ele>1106.2</ele>
        <time>2024-08-14T12:55:40Z</time>
      </trkpt>
      <trkpt lat="44.97984" lon="6.11962">
        <ele>1106.2</ele>
        <time>2024-08-14T12:55:41Z</time>
      </trkpt>
      <trkpt lat="44.97984" lon="6.11962">
        <ele>1106</ele>
        <time>2024-08-14T12:55:42Z</time>
      </trkpt>
      <trkpt lat="44.97984" lon="6.11962">
        <ele>1105.8</ele>
        <time>2024-08-14T12:55:43Z</time>
      </trkpt>
      <trkpt lat="44.97984" lon="6.11962">
        <ele>1105.6</ele>
        <time>2024-08-14T12:55:44Z</time>
      </trkpt>
      <trkpt lat="44.97984" lon="6.11962">
        <ele>1105</ele>
        <time>2024-08-14T12:55:45Z</time>
      </trkpt>
      <trkpt lat="44.97984" lon="6.11962">
        <ele>1104.6</ele>
        <time>2024-08-14T12:55:46Z</time>
      </trkpt>
      <trkpt lat="44.97984" lon="6.11962">
        <ele>1104.6</ele>
        <time>2024-08-14T12:55:47Z</time>
      </trkpt>
      <trkpt lat="44.97984" lon="6.11962">
        <ele>1104.4</ele>
        <time>2024-08-14T12:55:48Z</time>
      </trkpt>
      <trkpt lat="44.97984" lon="6.11962">
        <ele>1104.4</ele>
        <time>2024-08-14T12:55:49Z</time>
      </trkpt>
      <trkpt lat="44.97984" lon="6.11962">
        <ele>1104.2</ele>
        <time>2024-08-14T12:55:50Z</time>
      </trkpt>
      <trkpt lat="44.97984" lon="6.11962">
        <ele>1104</ele>
        <time>2024-08-14T12:55:51Z</time>
      </trkpt>
      <trkpt lat="44.97984" lon="6.11962">
        <ele>1103.8</ele>
        <time>2024-08-14T12:55:52Z</time>
      </trkpt>
      <trkpt lat="44.97984" lon="6.11962">
        <ele>1103.4</ele>
        <time>2024-08-14T12:55:53Z</time>
      </trkpt>
      <trkpt lat="44.97987" lon="6.11963">
        <ele>1103.2</ele>
        <time>2024-08-14T12:55:54Z</time>
      </trkpt>
      <trkpt lat="44.97987" lon="6.11963">
        <ele>1103</ele>
        <time>2024-08-14T12:55:55Z</time>
      </trkpt>
      <trkpt lat="44.97987" lon="6.11963">
        <ele>1102.6</ele>
        <time>2024-08-14T12:55:56Z</time>
      </trkpt>
      <trkpt lat="44.97988" lon="6.11965">
        <ele>1102.2</ele>
        <time>2024-08-14T12:55:57Z</time>
      </trkpt>
      <trkpt lat="44.97988" lon="6.11965">
        <ele>1102</ele>
        <time>2024-08-14T12:55:58Z</time>
      </trkpt>
      <trkpt lat="44.9799" lon="6.11969">
        <ele>1102</ele>
        <time>2024-08-14T12:55:59Z</time>
      </trkpt>
      <trkpt lat="44.9799" lon="6.11969">
        <ele>1101.6</ele>
        <time>2024-08-14T12:56:00Z</time>
      </trkpt>
      <trkpt lat="44.97992" lon="6.11972">
        <ele>1101.2</ele>
        <time>2024-08-14T12:56:01Z</time>
      </trkpt>
      <trkpt lat="44.97992" lon="6.11972">
        <ele>1100.6</ele>
        <time>2024-08-14T12:56:02Z</time>
      </trkpt>
      <trkpt lat="44.97992" lon="6.11972">
        <ele>1100.6</ele>
        <time>2024-08-14T12:56:03Z</time>
      </trkpt>
      <trkpt lat="44.97994" lon="6.11972">
        <ele>1100.4</ele>
        <time>2024-08-14T12:56:04Z</time>
      </trkpt>
      <trkpt lat="44.97994" lon="6.11972">
        <ele>1099.8</ele>
        <time>2024-08-14T12:56:05Z</time>
      </trkpt>
      <trkpt lat="44.97994" lon="6.11972">
        <ele>1099.4</ele>
        <time>2024-08-14T12:56:06Z</time>
      </trkpt>
      <trkpt lat="44.97995" lon="6.11975">
        <ele>1099.2</ele>
        <time>2024-08-14T12:56:07Z</time>
      </trkpt>
      <trkpt lat="44.97995" lon="6.11975">
        <ele>1099</ele>
        <time>2024-08-14T12:56:08Z</time>
      </trkpt>
      <trkpt lat="44.97996" lon="6.11978">
        <ele>1098.8</ele>
        <time>2024-08-14T12:56:09Z</time>
      </trkpt>
      <trkpt lat="44.97996" lon="6.11978">
        <ele>1098.8</ele>
        <time>2024-08-14T12:56:10Z</time>
      </trkpt>
      <trkpt lat="44.97996" lon="6.11981">
        <ele>1098.4</ele>
        <time>2024-08-14T12:56:11Z</time>
      </trkpt>
      <trkpt lat="44.97996" lon="6.11981">
        <ele>1098.2</ele>
        <time>2024-08-14T12:56:12Z</time>
      </trkpt>
      <trkpt lat="44.97995" lon="6.11983">
        <ele>1097.8</ele>
        <time>2024-08-14T12:56:13Z</time>
      </trkpt>
      <trkpt lat="44.97995" lon="6.11983">
        <ele>1097.4</ele>
        <time>2024-08-14T12:56:14Z</time>
      </trkpt>
      <trkpt lat="44.97995" lon="6.11983">
        <ele>1097.4</ele>
        <time>2024-08-14T12:56:15Z</time>
      </trkpt>
      <trkpt lat="44.97995" lon="6.11983">
        <ele>1097.2</ele>
        <time>2024-08-14T12:56:16Z</time>
      </trkpt>
      <trkpt lat="44.97995" lon="6.11983">
        <ele>1096.8</ele>
        <time>2024-08-14T12:56:17Z</time>
      </trkpt>
      <trkpt lat="44.97995" lon="6.11983">
        <ele>1096.8</ele>
        <time>2024-08-14T12:56:18Z</time>
      </trkpt>
      <trkpt lat="44.97996" lon="6.1198">
        <ele>1096.6</ele>
        <time>2024-08-14T12:56:19Z</time>
      </trkpt>
      <trkpt lat="44.97996" lon="6.1198">
        <ele>1096.4</ele>
        <time>2024-08-14T12:56:20Z</time>
      </trkpt>
      <trkpt lat="44.97998" lon="6.11977">
        <ele>1096</ele>
        <time>2024-08-14T12:56:21Z</time>
      </trkpt>
      <trkpt lat="44.97998" lon="6.11977">
        <ele>1095.6</ele>
        <time>2024-08-14T12:56:22Z</time>
      </trkpt>
      <trkpt lat="44.97999" lon="6.11973">
        <ele>1095.4</ele>
        <time>2024-08-14T12:56:23Z</time>
      </trkpt>
      <trkpt lat="44.97999" lon="6.11973">
        <ele>1095</ele>
        <time>2024-08-14T12:56:24Z</time>
      </trkpt>
      <trkpt lat="44.98002" lon="6.11972">
        <ele>1094.8</ele>
        <time>2024-08-14T12:56:25Z</time>
      </trkpt>
      <trkpt lat="44.98002" lon="6.11972">
        <ele>1094.6</ele>
        <time>2024-08-14T12:56:26Z</time>
      </trkpt>
      <trkpt lat="44.98005" lon="6.11971">
        <ele>1094.4</ele>
        <time>2024-08-14T12:56:27Z</time>
      </trkpt>
      <trkpt lat="44.98005" lon="6.11971">
        <ele>1094.2</ele>
        <time>2024-08-14T12:56:28Z</time>
      </trkpt>
      <trkpt lat="44.98005" lon="6.11971">
        <ele>1093.8</ele>
        <time>2024-08-14T12:56:29Z</time>
      </trkpt>
      <trkpt lat="44.98007" lon="6.11971">
        <ele>1093.6</ele>
        <time>2024-08-14T12:56:30Z</time>
      </trkpt>
      <trkpt lat="44.98007" lon="6.11971">
        <ele>1093.4</ele>
        <time>2024-08-14T12:56:31Z</time>
      </trkpt>
      <trkpt lat="44.98008" lon="6.11973">
        <ele>1093.2</ele>
        <time>2024-08-14T12:56:32Z</time>
      </trkpt>
      <trkpt lat="44.98008" lon="6.11973">
        <ele>1092.8</ele>
        <time>2024-08-14T12:56:33Z</time>
      </trkpt>
      <trkpt lat="44.98008" lon="6.11976">
        <ele>1092.6</ele>
        <time>2024-08-14T12:56:34Z</time>
      </trkpt>
      <trkpt lat="44.98008" lon="6.11976">
        <ele>1092.4</ele>
        <time>2024-08-14T12:56:35Z</time>
      </trkpt>
      <trkpt lat="44.98008" lon="6.1198">
        <ele>1092</ele>
        <time>2024-08-14T12:56:36Z</time>
      </trkpt>
      <trkpt lat="44.98008" lon="6.1198">
        <ele>1091.8</ele>
        <time>2024-08-14T12:56:37Z</time>
      </trkpt>
      <trkpt lat="44.98008" lon="6.11983">
        <ele>1091.8</ele>
        <time>2024-08-14T12:56:38Z</time>
      </trkpt>
      <trkpt lat="44.98008" lon="6.11983">
        <ele>1091.6</ele>
        <time>2024-08-14T12:56:39Z</time>
      </trkpt>
      <trkpt lat="44.98008" lon="6.11983">
        <ele>1091.4</ele>
        <time>2024-08-14T12:56:40Z</time>
      </trkpt>
      <trkpt lat="44.98007" lon="6.11986">
        <ele>1091.2</ele>
        <time>2024-08-14T12:56:41Z</time>
      </trkpt>
      <trkpt lat="44.98007" lon="6.11986">
        <ele>1091</ele>
        <time>2024-08-14T12:56:42Z</time>
      </trkpt>
      <trkpt lat="44.98007" lon="6.11989">
        <ele>1090.6</ele>
        <time>2024-08-14T12:56:43Z</time>
      </trkpt>
      <trkpt lat="44.98007" lon="6.11989">
        <ele>1090.4</ele>
        <time>2024-08-14T12:56:44Z</time>
      </trkpt>
      <trkpt lat="44.98007" lon="6.11989">
        <ele>1090.2</ele>
        <time>2024-08-14T12:56:45Z</time>
      </trkpt>
      <trkpt lat="44.98006" lon="6.11992">
        <ele>1090</ele>
        <time>2024-08-14T12:56:46Z</time>
      </trkpt>
      <trkpt lat="44.98006" lon="6.11992">
        <ele>1089.8</ele>
        <time>2024-08-14T12:56:47Z</time>
      </trkpt>
      <trkpt lat="44.98006" lon="6.11992">
        <ele>1089.4</ele>
        <time>2024-08-14T12:56:48Z</time>
      </trkpt>
      <trkpt lat="44.98006" lon="6.11992">
        <ele>1089.4</ele>
        <time>2024-08-14T12:56:49Z</time>
      </trkpt>
      <trkpt lat="44.98006" lon="6.11992">
        <ele>1089</ele>
        <time>2024-08-14T12:56:50Z</time>
      </trkpt>
      <trkpt lat="44.98006" lon="6.11992">
        <ele>1088.8</ele>
        <time>2024-08-14T12:56:51Z</time>
      </trkpt>
      <trkpt lat="44.98006" lon="6.11992">
        <ele>1088</ele>
        <time>2024-08-14T12:56:52Z</time>
      </trkpt>
      <trkpt lat="44.98006" lon="6.11992">
        <ele>1087.8</ele>
        <time>2024-08-14T12:56:53Z</time>
      </trkpt>
      <trkpt lat="44.98006" lon="6.11992">
        <ele>1087.6</ele>
        <time>2024-08-14T12:56:54Z</time>
      </trkpt>
      <trkpt lat="44.98006" lon="6.11992">
        <ele>1087</ele>
        <time>2024-08-14T12:56:55Z</time>
      </trkpt>
      <trkpt lat="44.98008" lon="6.11991">
        <ele>1087</ele>
        <time>2024-08-14T12:56:56Z</time>
      </trkpt>
      <trkpt lat="44.98008" lon="6.11991">
        <ele>1086.8</ele>
        <time>2024-08-14T12:56:57Z</time>
      </trkpt>
      <trkpt lat="44.98008" lon="6.11991">
        <ele>1086.4</ele>
        <time>2024-08-14T12:56:58Z</time>
      </trkpt>
      <trkpt lat="44.9801" lon="6.11995">
        <ele>1086</ele>
        <time>2024-08-14T12:56:59Z</time>
      </trkpt>
      <trkpt lat="44.9801" lon="6.11996">
        <ele>1086</ele>
        <time>2024-08-14T12:57:00Z</time>
      </trkpt>
      <trkpt lat="44.9801" lon="6.11996">
        <ele>1085.8</ele>
        <time>2024-08-14T12:57:01Z</time>
      </trkpt>
      <trkpt lat="44.98008" lon="6.11999">
        <ele>1085.4</ele>
        <time>2024-08-14T12:57:02Z</time>
      </trkpt>
      <trkpt lat="44.98008" lon="6.11999">
        <ele>1085.4</ele>
        <time>2024-08-14T12:57:03Z</time>
      </trkpt>
      <trkpt lat="44.98007" lon="6.12002">
        <ele>1085.4</ele>
        <time>2024-08-14T12:57:04Z</time>
      </trkpt>
      <trkpt lat="44.98007" lon="6.12002">
        <ele>1085</ele>
        <time>2024-08-14T12:57:05Z</time>
      </trkpt>
      <trkpt lat="44.98007" lon="6.12002">
        <ele>1084.6</ele>
        <time>2024-08-14T12:57:06Z</time>
      </trkpt>
      <trkpt lat="44.98006" lon="6.12005">
        <ele>1084.4</ele>
        <time>2024-08-14T12:57:07Z</time>
      </trkpt>
      <trkpt lat="44.98006" lon="6.12005">
        <ele>1084.4</ele>
        <time>2024-08-14T12:57:08Z</time>
      </trkpt>
      <trkpt lat="44.98006" lon="6.12005">
        <ele>1084</ele>
        <time>2024-08-14T12:57:09Z</time>
      </trkpt>
      <trkpt lat="44.98006" lon="6.12007">
        <ele>1083.6</ele>
        <time>2024-08-14T12:57:10Z</time>
      </trkpt>
      <trkpt lat="44.98006" lon="6.12007">
        <ele>1083.4</ele>
        <time>2024-08-14T12:57:11Z</time>
      </trkpt>
      <trkpt lat="44.98006" lon="6.12007">
        <ele>1083</ele>
        <time>2024-08-14T12:57:12Z</time>
      </trkpt>
      <trkpt lat="44.98006" lon="6.12007">
        <ele>1082.8</ele>
        <time>2024-08-14T12:57:13Z</time>
      </trkpt>
      <trkpt lat="44.98008" lon="6.12006">
        <ele>1082.8</ele>
        <time>2024-08-14T12:57:14Z</time>
      </trkpt>
      <trkpt lat="44.98008" lon="6.12006">
        <ele>1082.4</ele>
        <time>2024-08-14T12:57:15Z</time>
      </trkpt>
      <trkpt lat="44.98008" lon="6.12006">
        <ele>1082.2</ele>
        <time>2024-08-14T12:57:16Z</time>
      </trkpt>
      <trkpt lat="44.9801" lon="6.12007">
        <ele>1082.2</ele>
        <time>2024-08-14T12:57:17Z</time>
      </trkpt>
      <trkpt lat="44.9801" lon="6.12007">
        <ele>1081.8</ele>
        <time>2024-08-14T12:57:18Z</time>
      </trkpt>
      <trkpt lat="44.9801" lon="6.12007">
        <ele>1081.6</ele>
        <time>2024-08-14T12:57:19Z</time>
      </trkpt>
      <trkpt lat="44.9801" lon="6.12007">
        <ele>1081</ele>
        <time>2024-08-14T12:57:20Z</time>
      </trkpt>
      <trkpt lat="44.9801" lon="6.12007">
        <ele>1080.6</ele>
        <time>2024-08-14T12:57:21Z</time>
      </trkpt>
      <trkpt lat="44.9801" lon="6.12007">
        <ele>1080.6</ele>
        <time>2024-08-14T12:57:22Z</time>
      </trkpt>
      <trkpt lat="44.9801" lon="6.12007">
        <ele>1080.6</ele>
        <time>2024-08-14T12:57:23Z</time>
      </trkpt>
      <trkpt lat="44.9801" lon="6.12007">
        <ele>1080.6</ele>
        <time>2024-08-14T12:57:24Z</time>
      </trkpt>
      <trkpt lat="44.9801" lon="6.12007">
        <ele>1080.6</ele>
        <time>2024-08-14T12:57:25Z</time>
      </trkpt>
      <trkpt lat="44.9801" lon="6.12007">
        <ele>1080.6</ele>
        <time>2024-08-14T12:57:26Z</time>
      </trkpt>
      <trkpt lat="44.9801" lon="6.12007">
        <ele>1080.6</ele>
        <time>2024-08-14T12:57:27Z</time>
      </trkpt>
      <trkpt lat="44.9801" lon="6.12007">
        <ele>1080.8</ele>
        <time>2024-08-14T12:57:28Z</time>
      </trkpt>
      <trkpt lat="44.9801" lon="6.12007">
        <ele>1080.6</ele>
        <time>2024-08-14T12:57:29Z</time>
      </trkpt>
      <trkpt lat="44.9801" lon="6.12007">
        <ele>1080.8</ele>
        <time>2024-08-14T12:57:30Z</time>
      </trkpt>
      <trkpt lat="44.9801" lon="6.12007">
        <ele>1080.8</ele>
        <time>2024-08-14T12:57:31Z</time>
      </trkpt>
      <trkpt lat="44.9801" lon="6.12007">
        <ele>1080.8</ele>
        <time>2024-08-14T12:57:32Z</time>
      </trkpt>
      <trkpt lat="44.9801" lon="6.12007">
        <ele>1080.6</ele>
        <time>2024-08-14T12:57:33Z</time>
      </trkpt>
      <trkpt lat="44.9801" lon="6.12007">
        <ele>1080.6</ele>
        <time>2024-08-14T12:57:34Z</time>
      </trkpt>
      <trkpt lat="44.9801" lon="6.12007">
        <ele>1080.6</ele>
        <time>2024-08-14T12:57:35Z</time>
      </trkpt>
      <trkpt lat="44.9801" lon="6.12007">
        <ele>1080.8</ele>
        <time>2024-08-14T12:57:36Z</time>
      </trkpt>
      <trkpt lat="44.9801" lon="6.12007">
        <ele>1080.8</ele>
        <time>2024-08-14T12:57:37Z</time>
      </trkpt>
      <trkpt lat="44.9801" lon="6.12007">
        <ele>1080.8</ele>
        <time>2024-08-14T12:57:38Z</time>
      </trkpt>
      <trkpt lat="44.9801" lon="6.12007">
        <ele>1081</ele>
        <time>2024-08-14T12:57:39Z</time>
      </trkpt>
      <trkpt lat="44.9801" lon="6.12007">
        <ele>1081</ele>
        <time>2024-08-14T12:57:40Z</time>
      </trkpt>
      <trkpt lat="44.9801" lon="6.12007">
        <ele>1081</ele>
        <time>2024-08-14T12:57:41Z</time>
      </trkpt>
      <trkpt lat="44.9801" lon="6.12007">
        <ele>1080.8</ele>
        <time>2024-08-14T12:57:42Z</time>
      </trkpt>
      <trkpt lat="44.9801" lon="6.12007">
        <ele>1080.8</ele>
        <time>2024-08-14T12:57:43Z</time>
      </trkpt>
      <trkpt lat="44.9801" lon="6.12007">
        <ele>1080.8</ele>
        <time>2024-08-14T12:57:44Z</time>
      </trkpt>
      <trkpt lat="44.9801" lon="6.12007">
        <ele>1080.8</ele>
        <time>2024-08-14T12:57:45Z</time>
      </trkpt>
      <trkpt lat="44.9801" lon="6.12007">
        <ele>1081</ele>
        <time>2024-08-14T12:57:46Z</time>
      </trkpt>
      <trkpt lat="44.9801" lon="6.12007">
        <ele>1081</ele>
        <time>2024-08-14T12:57:47Z</time>
      </trkpt>
      <trkpt lat="44.9801" lon="6.12007">
        <ele>1081</ele>
        <time>2024-08-14T12:57:48Z</time>
      </trkpt>
      <trkpt lat="44.9801" lon="6.12007">
        <ele>1081</ele>
        <time>2024-08-14T12:57:49Z</time>
      </trkpt>
      <trkpt lat="44.9801" lon="6.12007">
        <ele>1081</ele>
        <time>2024-08-14T12:57:50Z</time>
      </trkpt>
      <trkpt lat="44.9801" lon="6.12007">
        <ele>1081</ele>
        <time>2024-08-14T12:57:51Z</time>
      </trkpt>
      <trkpt lat="44.9801" lon="6.12007">
        <ele>1080.8</ele>
        <time>2024-08-14T12:57:52Z</time>
      </trkpt>
      <trkpt lat="44.9801" lon="6.12007">
        <ele>1081</ele>
        <time>2024-08-14T12:57:53Z</time>
      </trkpt>
      <trkpt lat="44.9801" lon="6.12007">
        <ele>1081</ele>
        <time>2024-08-14T12:57:54Z</time>
      </trkpt>
      <trkpt lat="44.9801" lon="6.12007">
        <ele>1081</ele>
        <time>2024-08-14T12:57:55Z</time>
      </trkpt>
      <trkpt lat="44.9801" lon="6.12007">
        <ele>1080.6</ele>
        <time>2024-08-14T12:57:56Z</time>
      </trkpt>
      <trkpt lat="44.9801" lon="6.12007">
        <ele>1080.6</ele>
        <time>2024-08-14T12:57:57Z</time>
      </trkpt>
      <trkpt lat="44.9801" lon="6.12007">
        <ele>1080.6</ele>
        <time>2024-08-14T12:57:58Z</time>
      </trkpt>
      <trkpt lat="44.9801" lon="6.12007">
        <ele>1080.4</ele>
        <time>2024-08-14T12:57:59Z</time>
      </trkpt>
      <trkpt lat="44.9801" lon="6.12007">
        <ele>1080.4</ele>
        <time>2024-08-14T12:58:00Z</time>
      </trkpt>
      <trkpt lat="44.9801" lon="6.12007">
        <ele>1080.4</ele>
        <time>2024-08-14T12:58:01Z</time>
      </trkpt>
      <trkpt lat="44.9801" lon="6.12007">
        <ele>1080.4</ele>
        <time>2024-08-14T12:58:02Z</time>
      </trkpt>
      <trkpt lat="44.9801" lon="6.12007">
        <ele>1080.4</ele>
        <time>2024-08-14T12:58:03Z</time>
      </trkpt>
      <trkpt lat="44.9801" lon="6.12007">
        <ele>1080.4</ele>
        <time>2024-08-14T12:58:04Z</time>
      </trkpt>
      <trkpt lat="44.9801" lon="6.12007">
        <ele>1080.4</ele>
        <time>2024-08-14T12:58:05Z</time>
      </trkpt>
      <trkpt lat="44.9801" lon="6.12007">
        <ele>1080.6</ele>
        <time>2024-08-14T12:58:06Z</time>
      </trkpt>
      <trkpt lat="44.9801" lon="6.12007">
        <ele>1080.6</ele>
        <time>2024-08-14T12:58:07Z</time>
      </trkpt>
      <trkpt lat="44.9801" lon="6.12007">
        <ele>1080.6</ele>
        <time>2024-08-14T12:58:08Z</time>
      </trkpt>
      <trkpt lat="44.9801" lon="6.12007">
        <ele>1080.4</ele>
        <time>2024-08-14T12:58:09Z</time>
      </trkpt>
      <trkpt lat="44.9801" lon="6.12007">
        <ele>1080.4</ele>
        <time>2024-08-14T12:58:10Z</time>
      </trkpt>
      <trkpt lat="44.9801" lon="6.12007">
        <ele>1080.6</ele>
        <time>2024-08-14T12:58:11Z</time>
      </trkpt>
      <trkpt lat="44.9801" lon="6.12007">
        <ele>1080.6</ele>
        <time>2024-08-14T12:58:12Z</time>
      </trkpt>
      <trkpt lat="44.9801" lon="6.12007">
        <ele>1080.6</ele>
        <time>2024-08-14T12:58:13Z</time>
      </trkpt>
      <trkpt lat="44.9801" lon="6.12007">
        <ele>1080.6</ele>
        <time>2024-08-14T12:58:14Z</time>
      </trkpt>
      <trkpt lat="44.9801" lon="6.12007">
        <ele>1080.6</ele>
        <time>2024-08-14T12:58:15Z</time>
      </trkpt>
      <trkpt lat="44.9801" lon="6.12007">
        <ele>1080.6</ele>
        <time>2024-08-14T12:58:16Z</time>
      </trkpt>
      <trkpt lat="44.9801" lon="6.12007">
        <ele>1080.6</ele>
        <time>2024-08-14T12:58:17Z</time>
      </trkpt>
      <trkpt lat="44.9801" lon="6.12007">
        <ele>1080.6</ele>
        <time>2024-08-14T12:58:18Z</time>
      </trkpt>
      <trkpt lat="44.9801" lon="6.12007">
        <ele>1080.6</ele>
        <time>2024-08-14T12:58:19Z</time>
      </trkpt>
      <trkpt lat="44.9801" lon="6.12007">
        <ele>1080.6</ele>
        <time>2024-08-14T12:58:20Z</time>
      </trkpt>
      <trkpt lat="44.9801" lon="6.12007">
        <ele>1080.6</ele>
        <time>2024-08-14T12:58:21Z</time>
      </trkpt>
      <trkpt lat="44.9801" lon="6.12007">
        <ele>1080.6</ele>
        <time>2024-08-14T12:58:22Z</time>
      </trkpt>
      <trkpt lat="44.9801" lon="6.12007">
        <ele>1080.6</ele>
        <time>2024-08-14T12:58:23Z</time>
      </trkpt>
      <trkpt lat="44.9801" lon="6.12007">
        <ele>1080.6</ele>
        <time>2024-08-14T12:58:24Z</time>
      </trkpt>
      <trkpt lat="44.9801" lon="6.12007">
        <ele>1080.6</ele>
        <time>2024-08-14T12:58:25Z</time>
      </trkpt>
      <trkpt lat="44.9801" lon="6.12007">
        <ele>1080.6</ele>
        <time>2024-08-14T12:58:26Z</time>
      </trkpt>
      <trkpt lat="44.9801" lon="6.12007">
        <ele>1080.8</ele>
        <time>2024-08-14T12:58:27Z</time>
      </trkpt>
      <trkpt lat="44.9801" lon="6.12007">
        <ele>1080.8</ele>
        <time>2024-08-14T12:58:28Z</time>
      </trkpt>
      <trkpt lat="44.9801" lon="6.12007">
        <ele>1080.8</ele>
        <time>2024-08-14T12:58:29Z</time>
      </trkpt>
      <trkpt lat="44.9801" lon="6.12007">
        <ele>1080.8</ele>
        <time>2024-08-14T12:58:30Z</time>
      </trkpt>
      <trkpt lat="44.9801" lon="6.12007">
        <ele>1080.8</ele>
        <time>2024-08-14T12:58:31Z</time>
      </trkpt>
      <trkpt lat="44.9801" lon="6.12007">
        <ele>1080.8</ele>
        <time>2024-08-14T12:58:32Z</time>
      </trkpt>
      <trkpt lat="44.9801" lon="6.12007">
        <ele>1081</ele>
        <time>2024-08-14T12:58:33Z</time>
      </trkpt>
      <trkpt lat="44.9801" lon="6.12007">
        <ele>1081</ele>
        <time>2024-08-14T12:58:34Z</time>
      </trkpt>
      <trkpt lat="44.9801" lon="6.12007">
        <ele>1080.8</ele>
        <time>2024-08-14T12:58:35Z</time>
      </trkpt>
      <trkpt lat="44.9801" lon="6.12007">
        <ele>1080.8</ele>
        <time>2024-08-14T12:58:36Z</time>
      </trkpt>
      <trkpt lat="44.9801" lon="6.12007">
        <ele>1080.8</ele>
        <time>2024-08-14T12:58:37Z</time>
      </trkpt>
      <trkpt lat="44.9801" lon="6.12007">
        <ele>1080.8</ele>
        <time>2024-08-14T12:58:38Z</time>
      </trkpt>
      <trkpt lat="44.9801" lon="6.12007">
        <ele>1081</ele>
        <time>2024-08-14T12:58:39Z</time>
      </trkpt>
      <trkpt lat="44.9801" lon="6.12007">
        <ele>1081</ele>
        <time>2024-08-14T12:58:40Z</time>
      </trkpt>
      <trkpt lat="44.9801" lon="6.12007">
        <ele>1081</ele>
        <time>2024-08-14T12:58:41Z</time>
      </trkpt>
      <trkpt lat="44.9801" lon="6.12007">
        <ele>1081</ele>
        <time>2024-08-14T12:58:42Z</time>
      </trkpt>
      <trkpt lat="44.9801" lon="6.12007">
        <ele>1081</ele>
        <time>2024-08-14T12:58:43Z</time>
      </trkpt>
      <trkpt lat="44.9801" lon="6.12007">
        <ele>1081</ele>
        <time>2024-08-14T12:58:44Z</time>
      </trkpt>
      <trkpt lat="44.9801" lon="6.12007">
        <ele>1081</ele>
        <time>2024-08-14T12:58:45Z</time>
      </trkpt>
      <trkpt lat="44.9801" lon="6.12007">
        <ele>1081</ele>
        <time>2024-08-14T12:58:46Z</time>
      </trkpt>
      <trkpt lat="44.9801" lon="6.12007">
        <ele>1081</ele>
        <time>2024-08-14T12:58:47Z</time>
      </trkpt>
      <trkpt lat="44.9801" lon="6.12007">
        <ele>1080.8</ele>
        <time>2024-08-14T12:58:48Z</time>
      </trkpt>
      <trkpt lat="44.9801" lon="6.12007">
        <ele>1080.8</ele>
        <time>2024-08-14T12:58:49Z</time>
      </trkpt>
      <trkpt lat="44.9801" lon="6.12007">
        <ele>1080.8</ele>
        <time>2024-08-14T12:58:50Z</time>
      </trkpt>
      <trkpt lat="44.9801" lon="6.12007">
        <ele>1080.8</ele>
        <time>2024-08-14T12:58:51Z</time>
      </trkpt>
      <trkpt lat="44.9801" lon="6.12007">
        <ele>1081</ele>
        <time>2024-08-14T12:58:52Z</time>
      </trkpt>
      <trkpt lat="44.9801" lon="6.12007">
        <ele>1081</ele>
        <time>2024-08-14T12:58:53Z</time>
      </trkpt>
      <trkpt lat="44.9801" lon="6.12007">
        <ele>1081</ele>
        <time>2024-08-14T12:58:54Z</time>
      </trkpt>
      <trkpt lat="44.9801" lon="6.12007">
        <ele>1081</ele>
        <time>2024-08-14T12:58:55Z</time>
      </trkpt>
      <trkpt lat="44.9801" lon="6.12007">
        <ele>1081</ele>
        <time>2024-08-14T12:58:56Z</time>
      </trkpt>
      <trkpt lat="44.9801" lon="6.12007">
        <ele>1081</ele>
        <time>2024-08-14T12:58:57Z</time>
      </trkpt>
      <trkpt lat="44.98012" lon="6.12008">
        <ele>1081</ele>
        <time>2024-08-14T12:58:58Z</time>
      </trkpt>
      <trkpt lat="44.98012" lon="6.12008">
        <ele>1080.6</ele>
        <time>2024-08-14T12:58:59Z</time>
      </trkpt>
      <trkpt lat="44.98013" lon="6.1201">
        <ele>1080.6</ele>
        <time>2024-08-14T12:59:00Z</time>
      </trkpt>
      <trkpt lat="44.98013" lon="6.1201">
        <ele>1080.2</ele>
        <time>2024-08-14T12:59:01Z</time>
      </trkpt>
      <trkpt lat="44.98016" lon="6.12011">
        <ele>1079.4</ele>
        <time>2024-08-14T12:59:02Z</time>
      </trkpt>
      <trkpt lat="44.98018" lon="6.12012">
        <ele>1079.4</ele>
        <time>2024-08-14T12:59:03Z</time>
      </trkpt>
      <trkpt lat="44.98018" lon="6.12012">
        <ele>1079.2</ele>
        <time>2024-08-14T12:59:04Z</time>
      </trkpt>
      <trkpt lat="44.9802" lon="6.12013">
        <ele>1079</ele>
        <time>2024-08-14T12:59:05Z</time>
      </trkpt>
      <trkpt lat="44.9802" lon="6.12013">
        <ele>1078.8</ele>
        <time>2024-08-14T12:59:06Z</time>
      </trkpt>
      <trkpt lat="44.98021" lon="6.12016">
        <ele>1078.6</ele>
        <time>2024-08-14T12:59:07Z</time>
      </trkpt>
      <trkpt lat="44.98021" lon="6.12016">
        <ele>1078.4</ele>
        <time>2024-08-14T12:59:08Z</time>
      </trkpt>
      <trkpt lat="44.98021" lon="6.12016">
        <ele>1078</ele>
        <time>2024-08-14T12:59:09Z</time>
      </trkpt>
      <trkpt lat="44.98021" lon="6.12018">
        <ele>1077.6</ele>
        <time>2024-08-14T12:59:10Z</time>
      </trkpt>
      <trkpt lat="44.98021" lon="6.12018">
        <ele>1077.2</ele>
        <time>2024-08-14T12:59:11Z</time>
      </trkpt>
      <trkpt lat="44.98019" lon="6.12019">
        <ele>1076.8</ele>
        <time>2024-08-14T12:59:12Z</time>
      </trkpt>
      <trkpt lat="44.98019" lon="6.12019">
        <ele>1076.6</ele>
        <time>2024-08-14T12:59:13Z</time>
      </trkpt>
      <trkpt lat="44.98019" lon="6.12019">
        <ele>1076.2</ele>
        <time>2024-08-14T12:59:14Z</time>
      </trkpt>
      <trkpt lat="44.98018" lon="6.12023">
        <ele>1076</ele>
        <time>2024-08-14T12:59:15Z</time>
      </trkpt>
      <trkpt lat="44.98018" lon="6.12023">
        <ele>1075.8</ele>
        <time>2024-08-14T12:59:16Z</time>
      </trkpt>
      <trkpt lat="44.98019" lon="6.12024">
        <ele>1075.4</ele>
        <time>2024-08-14T12:59:17Z</time>
      </trkpt>
      <trkpt lat="44.98019" lon="6.12024">
        <ele>1075.2</ele>
        <time>2024-08-14T12:59:18Z</time>
      </trkpt>
      <trkpt lat="44.98019" lon="6.12024">
        <ele>1075</ele>
        <time>2024-08-14T12:59:19Z</time>
      </trkpt>
      <trkpt lat="44.9802" lon="6.12027">
        <ele>1074.8</ele>
        <time>2024-08-14T12:59:20Z</time>
      </trkpt>
      <trkpt lat="44.9802" lon="6.12027">
        <ele>1074.6</ele>
        <time>2024-08-14T12:59:21Z</time>
      </trkpt>
      <trkpt lat="44.9802" lon="6.12027">
        <ele>1074.4</ele>
        <time>2024-08-14T12:59:22Z</time>
      </trkpt>
      <trkpt lat="44.98021" lon="6.1203">
        <ele>1074</ele>
        <time>2024-08-14T12:59:23Z</time>
      </trkpt>
      <trkpt lat="44.98021" lon="6.1203">
        <ele>1074</ele>
        <time>2024-08-14T12:59:24Z</time>
      </trkpt>
      <trkpt lat="44.98021" lon="6.1203">
        <ele>1073.6</ele>
        <time>2024-08-14T12:59:25Z</time>
      </trkpt>
      <trkpt lat="44.98021" lon="6.1203">
        <ele>1073.2</ele>
        <time>2024-08-14T12:59:26Z</time>
      </trkpt>
      <trkpt lat="44.9802" lon="6.12032">
        <ele>1073</ele>
        <time>2024-08-14T12:59:27Z</time>
      </trkpt>
      <trkpt lat="44.9802" lon="6.12032">
        <ele>1072.8</ele>
        <time>2024-08-14T12:59:28Z</time>
      </trkpt>
      <trkpt lat="44.98019" lon="6.12035">
        <ele>1072.6</ele>
        <time>2024-08-14T12:59:29Z</time>
      </trkpt>
      <trkpt lat="44.98019" lon="6.12035">
        <ele>1072.4</ele>
        <time>2024-08-14T12:59:30Z</time>
      </trkpt>
      <trkpt lat="44.98019" lon="6.12035">
        <ele>1072.2</ele>
        <time>2024-08-14T12:59:31Z</time>
      </trkpt>
      <trkpt lat="44.98021" lon="6.12036">
        <ele>1071.8</ele>
        <time>2024-08-14T12:59:32Z</time>
      </trkpt>
      <trkpt lat="44.98021" lon="6.12036">
        <ele>1071.4</ele>
        <time>2024-08-14T12:59:33Z</time>
      </trkpt>
      <trkpt lat="44.98021" lon="6.12036">
        <ele>1071.2</ele>
        <time>2024-08-14T12:59:34Z</time>
      </trkpt>
      <trkpt lat="44.98022" lon="6.12038">
        <ele>1070.8</ele>
        <time>2024-08-14T12:59:35Z</time>
      </trkpt>
      <trkpt lat="44.98022" lon="6.12038">
        <ele>1070.8</ele>
        <time>2024-08-14T12:59:36Z</time>
      </trkpt>
      <trkpt lat="44.98022" lon="6.12038">
        <ele>1070.6</ele>
        <time>2024-08-14T12:59:37Z</time>
      </trkpt>
      <trkpt lat="44.98024" lon="6.1204">
        <ele>1070.2</ele>
        <time>2024-08-14T12:59:38Z</time>
      </trkpt>
      <trkpt lat="44.98024" lon="6.1204">
        <ele>1069.8</ele>
        <time>2024-08-14T12:59:39Z</time>
      </trkpt>
      <trkpt lat="44.98025" lon="6.12043">
        <ele>1069.4</ele>
        <time>2024-08-14T12:59:40Z</time>
      </trkpt>
      <trkpt lat="44.98025" lon="6.12043">
        <ele>1069.2</ele>
        <time>2024-08-14T12:59:41Z</time>
      </trkpt>
      <trkpt lat="44.98024" lon="6.12046">
        <ele>1069</ele>
        <time>2024-08-14T12:59:42Z</time>
      </trkpt>
      <trkpt lat="44.98024" lon="6.12046">
        <ele>1068.8</ele>
        <time>2024-08-14T12:59:43Z</time>
      </trkpt>
      <trkpt lat="44.98024" lon="6.12046">
        <ele>1068.2</ele>
        <time>2024-08-14T12:59:44Z</time>
      </trkpt>
      <trkpt lat="44.98025" lon="6.12049">
        <ele>1068.2</ele>
        <time>2024-08-14T12:59:45Z</time>
      </trkpt>
      <trkpt lat="44.98025" lon="6.12049">
        <ele>1067.8</ele>
        <time>2024-08-14T12:59:46Z</time>
      </trkpt>
      <trkpt lat="44.98026" lon="6.12049">
        <ele>1067.8</ele>
        <time>2024-08-14T12:59:47Z</time>
      </trkpt>
      <trkpt lat="44.98026" lon="6.12049">
        <ele>1067.4</ele>
        <time>2024-08-14T12:59:48Z</time>
      </trkpt>
      <trkpt lat="44.98026" lon="6.12049">
        <ele>1066.8</ele>
        <time>2024-08-14T12:59:49Z</time>
      </trkpt>
      <trkpt lat="44.98029" lon="6.12049">
        <ele>1066.6</ele>
        <time>2024-08-14T12:59:50Z</time>
      </trkpt>
      <trkpt lat="44.98029" lon="6.12049">
        <ele>1066.4</ele>
        <time>2024-08-14T12:59:51Z</time>
      </trkpt>
      <trkpt lat="44.9803" lon="6.1205">
        <ele>1066</ele>
        <time>2024-08-14T12:59:52Z</time>
      </trkpt>
      <trkpt lat="44.9803" lon="6.1205">
        <ele>1065.6</ele>
        <time>2024-08-14T12:59:53Z</time>
      </trkpt>
      <trkpt lat="44.9803" lon="6.1205">
        <ele>1065.2</ele>
        <time>2024-08-14T12:59:54Z</time>
      </trkpt>
      <trkpt lat="44.98033" lon="6.12051">
        <ele>1065</ele>
        <time>2024-08-14T12:59:55Z</time>
      </trkpt>
      <trkpt lat="44.98033" lon="6.12051">
        <ele>1064.8</ele>
        <time>2024-08-14T12:59:56Z</time>
      </trkpt>
      <trkpt lat="44.98033" lon="6.12051">
        <ele>1064.4</ele>
        <time>2024-08-14T12:59:57Z</time>
      </trkpt>
      <trkpt lat="44.98035" lon="6.1205">
        <ele>1064</ele>
        <time>2024-08-14T12:59:58Z</time>
      </trkpt>
      <trkpt lat="44.98035" lon="6.1205">
        <ele>1063.6</ele>
        <time>2024-08-14T12:59:59Z</time>
      </trkpt>
      <trkpt lat="44.98037" lon="6.12052">
        <ele>1063.6</ele>
        <time>2024-08-14T13:00:00Z</time>
      </trkpt>
      <trkpt lat="44.98037" lon="6.12052">
        <ele>1063.6</ele>
        <time>2024-08-14T13:00:01Z</time>
      </trkpt>
      <trkpt lat="44.98038" lon="6.12053">
        <ele>1063.2</ele>
        <time>2024-08-14T13:00:02Z</time>
      </trkpt>
      <trkpt lat="44.98038" lon="6.12053">
        <ele>1063</ele>
        <time>2024-08-14T13:00:03Z</time>
      </trkpt>
      <trkpt lat="44.98038" lon="6.12053">
        <ele>1062.8</ele>
        <time>2024-08-14T13:00:04Z</time>
      </trkpt>
      <trkpt lat="44.98039" lon="6.12056">
        <ele>1062.6</ele>
        <time>2024-08-14T13:00:05Z</time>
      </trkpt>
      <trkpt lat="44.98039" lon="6.12056">
        <ele>1062.2</ele>
        <time>2024-08-14T13:00:06Z</time>
      </trkpt>
      <trkpt lat="44.98039" lon="6.12056">
        <ele>1062</ele>
        <time>2024-08-14T13:00:07Z</time>
      </trkpt>
      <trkpt lat="44.98041" lon="6.12058">
        <ele>1061.8</ele>
        <time>2024-08-14T13:00:08Z</time>
      </trkpt>
      <trkpt lat="44.98041" lon="6.12058">
        <ele>1061.6</ele>
        <time>2024-08-14T13:00:09Z</time>
      </trkpt>
      <trkpt lat="44.98041" lon="6.12058">
        <ele>1061.2</ele>
        <time>2024-08-14T13:00:10Z</time>
      </trkpt>
      <trkpt lat="44.9804" lon="6.1206">
        <ele>1061</ele>
        <time>2024-08-14T13:00:11Z</time>
      </trkpt>
      <trkpt lat="44.9804" lon="6.1206">
        <ele>1060.6</ele>
        <time>2024-08-14T13:00:12Z</time>
      </trkpt>
      <trkpt lat="44.9804" lon="6.1206">
        <ele>1060.4</ele>
        <time>2024-08-14T13:00:13Z</time>
      </trkpt>
      <trkpt lat="44.9804" lon="6.1206">
        <ele>1060.2</ele>
        <time>2024-08-14T13:00:14Z</time>
      </trkpt>
      <trkpt lat="44.9804" lon="6.1206">
        <ele>1059.8</ele>
        <time>2024-08-14T13:00:15Z</time>
      </trkpt>
      <trkpt lat="44.98041" lon="6.12063">
        <ele>1059.6</ele>
        <time>2024-08-14T13:00:16Z</time>
      </trkpt>
      <trkpt lat="44.98041" lon="6.12063">
        <ele>1059.4</ele>
        <time>2024-08-14T13:00:17Z</time>
      </trkpt>
      <trkpt lat="44.98041" lon="6.12063">
        <ele>1059.4</ele>
        <time>2024-08-14T13:00:18Z</time>
      </trkpt>
      <trkpt lat="44.98043" lon="6.12065">
        <ele>1058.8</ele>
        <time>2024-08-14T13:00:19Z</time>
      </trkpt>
      <trkpt lat="44.98043" lon="6.12065">
        <ele>1058.8</ele>
        <time>2024-08-14T13:00:20Z</time>
      </trkpt>
      <trkpt lat="44.98044" lon="6.12067">
        <ele>1058.4</ele>
        <time>2024-08-14T13:00:21Z</time>
      </trkpt>
      <trkpt lat="44.98044" lon="6.12067">
        <ele>1058.2</ele>
        <time>2024-08-14T13:00:22Z</time>
      </trkpt>
      <trkpt lat="44.98044" lon="6.12067">
        <ele>1057.6</ele>
        <time>2024-08-14T13:00:23Z</time>
      </trkpt>
      <trkpt lat="44.98044" lon="6.12067">
        <ele>1057.4</ele>
        <time>2024-08-14T13:00:24Z</time>
      </trkpt>
      <trkpt lat="44.98044" lon="6.12067">
        <ele>1057.2</ele>
        <time>2024-08-14T13:00:25Z</time>
      </trkpt>
      <trkpt lat="44.98046" lon="6.12066">
        <ele>1057.2</ele>
        <time>2024-08-14T13:00:26Z</time>
      </trkpt>
      <trkpt lat="44.98046" lon="6.12066">
        <ele>1057.4</ele>
        <time>2024-08-14T13:00:27Z</time>
      </trkpt>
      <trkpt lat="44.98047" lon="6.12066">
        <ele>1057.2</ele>
        <time>2024-08-14T13:00:28Z</time>
      </trkpt>
      <trkpt lat="44.98048" lon="6.12067">
        <ele>1056.8</ele>
        <time>2024-08-14T13:00:29Z</time>
      </trkpt>
      <trkpt lat="44.98049" lon="6.12067">
        <ele>1056.8</ele>
        <time>2024-08-14T13:00:30Z</time>
      </trkpt>
      <trkpt lat="44.9805" lon="6.12068">
        <ele>1056.8</ele>
        <time>2024-08-14T13:00:31Z</time>
      </trkpt>
      <trkpt lat="44.9805" lon="6.12068">
        <ele>1056.4</ele>
        <time>2024-08-14T13:00:32Z</time>
      </trkpt>
      <trkpt lat="44.98052" lon="6.12069">
        <ele>1056.2</ele>
        <time>2024-08-14T13:00:33Z</time>
      </trkpt>
      <trkpt lat="44.98052" lon="6.12069">
        <ele>1055.8</ele>
        <time>2024-08-14T13:00:34Z</time>
      </trkpt>
      <trkpt lat="44.98052" lon="6.12069">
        <ele>1055.6</ele>
        <time>2024-08-14T13:00:35Z</time>
      </trkpt>
      <trkpt lat="44.98054" lon="6.1207">
        <ele>1055.4</ele>
        <time>2024-08-14T13:00:36Z</time>
      </trkpt>
      <trkpt lat="44.98054" lon="6.1207">
        <ele>1055</ele>
        <time>2024-08-14T13:00:37Z</time>
      </trkpt>
      <trkpt lat="44.98058" lon="6.1207">
        <ele>1054.6</ele>
        <time>2024-08-14T13:00:38Z</time>
      </trkpt>
      <trkpt lat="44.98058" lon="6.1207">
        <ele>1054.2</ele>
        <time>2024-08-14T13:00:39Z</time>
      </trkpt>
      <trkpt lat="44.9806" lon="6.12071">
        <ele>1054</ele>
        <time>2024-08-14T13:00:40Z</time>
      </trkpt>
      <trkpt lat="44.9806" lon="6.12071">
        <ele>1053.8</ele>
        <time>2024-08-14T13:00:41Z</time>
      </trkpt>
      <trkpt lat="44.9806" lon="6.12071">
        <ele>1053.6</ele>
        <time>2024-08-14T13:00:42Z</time>
      </trkpt>
      <trkpt lat="44.98062" lon="6.1207">
        <ele>1053.4</ele>
        <time>2024-08-14T13:00:43Z</time>
      </trkpt>
      <trkpt lat="44.98062" lon="6.1207">
        <ele>1053</ele>
        <time>2024-08-14T13:00:44Z</time>
      </trkpt>
      <trkpt lat="44.98064" lon="6.12071">
        <ele>1052.8</ele>
        <time>2024-08-14T13:00:45Z</time>
      </trkpt>
      <trkpt lat="44.98064" lon="6.12071">
        <ele>1052.6</ele>
        <time>2024-08-14T13:00:46Z</time>
      </trkpt>
      <trkpt lat="44.98066" lon="6.12072">
        <ele>1052.2</ele>
        <time>2024-08-14T13:00:47Z</time>
      </trkpt>
      <trkpt lat="44.98066" lon="6.12072">
        <ele>1051.8</ele>
        <time>2024-08-14T13:00:48Z</time>
      </trkpt>
      <trkpt lat="44.98069" lon="6.1207">
        <ele>1051.4</ele>
        <time>2024-08-14T13:00:49Z</time>
      </trkpt>
      <trkpt lat="44.98069" lon="6.1207">
        <ele>1051.2</ele>
        <time>2024-08-14T13:00:50Z</time>
      </trkpt>
      <trkpt lat="44.98071" lon="6.12067">
        <ele>1050.8</ele>
        <time>2024-08-14T13:00:51Z</time>
      </trkpt>
      <trkpt lat="44.98073" lon="6.12065">
        <ele>1050.6</ele>
        <time>2024-08-14T13:00:52Z</time>
      </trkpt>
      <trkpt lat="44.98073" lon="6.12065">
        <ele>1050.2</ele>
        <time>2024-08-14T13:00:53Z</time>
      </trkpt>
      <trkpt lat="44.98073" lon="6.12065">
        <ele>1050</ele>
        <time>2024-08-14T13:00:54Z</time>
      </trkpt>
      <trkpt lat="44.98076" lon="6.12065">
        <ele>1049.8</ele>
        <time>2024-08-14T13:00:55Z</time>
      </trkpt>
      <trkpt lat="44.98077" lon="6.12063">
        <ele>1049.4</ele>
        <time>2024-08-14T13:00:56Z</time>
      </trkpt>
      <trkpt lat="44.98078" lon="6.12061">
        <ele>1049.4</ele>
        <time>2024-08-14T13:00:57Z</time>
      </trkpt>
      <trkpt lat="44.98078" lon="6.12061">
        <ele>1049.2</ele>
        <time>2024-08-14T13:00:58Z</time>
      </trkpt>
      <trkpt lat="44.98078" lon="6.12061">
        <ele>1049</ele>
        <time>2024-08-14T13:00:59Z</time>
      </trkpt>
      <trkpt lat="44.98081" lon="6.12059">
        <ele>1048.8</ele>
        <time>2024-08-14T13:01:00Z</time>
      </trkpt>
      <trkpt lat="44.98081" lon="6.12059">
        <ele>1048.6</ele>
        <time>2024-08-14T13:01:01Z</time>
      </trkpt>
      <trkpt lat="44.98081" lon="6.12059">
        <ele>1048</ele>
        <time>2024-08-14T13:01:02Z</time>
      </trkpt>
      <trkpt lat="44.98083" lon="6.12059">
        <ele>1048</ele>
        <time>2024-08-14T13:01:03Z</time>
      </trkpt>
      <trkpt lat="44.98083" lon="6.12059">
        <ele>1047.6</ele>
        <time>2024-08-14T13:01:04Z</time>
      </trkpt>
      <trkpt lat="44.98083" lon="6.12059">
        <ele>1047.4</ele>
        <time>2024-08-14T13:01:05Z</time>
      </trkpt>
      <trkpt lat="44.98084" lon="6.12056">
        <ele>1047.2</ele>
        <time>2024-08-14T13:01:06Z</time>
      </trkpt>
      <trkpt lat="44.98084" lon="6.12056">
        <ele>1046.8</ele>
        <time>2024-08-14T13:01:07Z</time>
      </trkpt>
      <trkpt lat="44.98086" lon="6.12055">
        <ele>1046.6</ele>
        <time>2024-08-14T13:01:08Z</time>
      </trkpt>
      <trkpt lat="44.98086" lon="6.12055">
        <ele>1046.4</ele>
        <time>2024-08-14T13:01:09Z</time>
      </trkpt>
      <trkpt lat="44.98086" lon="6.12055">
        <ele>1046</ele>
        <time>2024-08-14T13:01:10Z</time>
      </trkpt>
      <trkpt lat="44.98089" lon="6.12053">
        <ele>1045.8</ele>
        <time>2024-08-14T13:01:11Z</time>
      </trkpt>
      <trkpt lat="44.98089" lon="6.12053">
        <ele>1045.4</ele>
        <time>2024-08-14T13:01:12Z</time>
      </trkpt>
      <trkpt lat="44.98091" lon="6.12053">
        <ele>1045.2</ele>
        <time>2024-08-14T13:01:13Z</time>
      </trkpt>
      <trkpt lat="44.98091" lon="6.12053">
        <ele>1044.8</ele>
        <time>2024-08-14T13:01:14Z</time>
      </trkpt>
      <trkpt lat="44.98091" lon="6.12053">
        <ele>1044.4</ele>
        <time>2024-08-14T13:01:15Z</time>
      </trkpt>
      <trkpt lat="44.98093" lon="6.12053">
        <ele>1044.4</ele>
        <time>2024-08-14T13:01:16Z</time>
      </trkpt>
      <trkpt lat="44.98093" lon="6.12053">
        <ele>1043.6</ele>
        <time>2024-08-14T13:01:17Z</time>
      </trkpt>
      <trkpt lat="44.98095" lon="6.12053">
        <ele>1043.2</ele>
        <time>2024-08-14T13:01:18Z</time>
      </trkpt>
      <trkpt lat="44.98095" lon="6.12053">
        <ele>1043</ele>
        <time>2024-08-14T13:01:19Z</time>
      </trkpt>
      <trkpt lat="44.98095" lon="6.12053">
        <ele>1043</ele>
        <time>2024-08-14T13:01:20Z</time>
      </trkpt>
      <trkpt lat="44.98095" lon="6.12053">
        <ele>1042.4</ele>
        <time>2024-08-14T13:01:21Z</time>
      </trkpt>
      <trkpt lat="44.98099" lon="6.12053">
        <ele>1042.2</ele>
        <time>2024-08-14T13:01:22Z</time>
      </trkpt>
      <trkpt lat="44.98099" lon="6.12053">
        <ele>1042</ele>
        <time>2024-08-14T13:01:23Z</time>
      </trkpt>
      <trkpt lat="44.98101" lon="6.12052">
        <ele>1041.6</ele>
        <time>2024-08-14T13:01:24Z</time>
      </trkpt>
      <trkpt lat="44.98101" lon="6.12052">
        <ele>1040.8</ele>
        <time>2024-08-14T13:01:25Z</time>
      </trkpt>
      <trkpt lat="44.98101" lon="6.12052">
        <ele>1040.6</ele>
        <time>2024-08-14T13:01:26Z</time>
      </trkpt>
      <trkpt lat="44.98103" lon="6.12051">
        <ele>1040.4</ele>
        <time>2024-08-14T13:01:27Z</time>
      </trkpt>
      <trkpt lat="44.98103" lon="6.12051">
        <ele>1039.8</ele>
        <time>2024-08-14T13:01:28Z</time>
      </trkpt>
      <trkpt lat="44.98104" lon="6.12048">
        <ele>1039.6</ele>
        <time>2024-08-14T13:01:29Z</time>
      </trkpt>
      <trkpt lat="44.98104" lon="6.12048">
        <ele>1039.2</ele>
        <time>2024-08-14T13:01:30Z</time>
      </trkpt>
      <trkpt lat="44.98104" lon="6.12048">
        <ele>1039</ele>
        <time>2024-08-14T13:01:31Z</time>
      </trkpt>
      <trkpt lat="44.98104" lon="6.12048">
        <ele>1038.6</ele>
        <time>2024-08-14T13:01:32Z</time>
      </trkpt>
      <trkpt lat="44.98104" lon="6.12048">
        <ele>1038.4</ele>
        <time>2024-08-14T13:01:33Z</time>
      </trkpt>
      <trkpt lat="44.98107" lon="6.12046">
        <ele>1038.4</ele>
        <time>2024-08-14T13:01:34Z</time>
      </trkpt>
      <trkpt lat="44.98107" lon="6.12046">
        <ele>1038</ele>
        <time>2024-08-14T13:01:35Z</time>
      </trkpt>
      <trkpt lat="44.98107" lon="6.12046">
        <ele>1037.8</ele>
        <time>2024-08-14T13:01:36Z</time>
      </trkpt>
      <trkpt lat="44.9811" lon="6.12043">
        <ele>1037.4</ele>
        <time>2024-08-14T13:01:37Z</time>
      </trkpt>
      <trkpt lat="44.98111" lon="6.12042">
        <ele>1037</ele>
        <time>2024-08-14T13:01:38Z</time>
      </trkpt>
      <trkpt lat="44.98111" lon="6.12042">
        <ele>1036.6</ele>
        <time>2024-08-14T13:01:39Z</time>
      </trkpt>
      <trkpt lat="44.98113" lon="6.12041">
        <ele>1036.2</ele>
        <time>2024-08-14T13:01:40Z</time>
      </trkpt>
      <trkpt lat="44.98113" lon="6.12041">
        <ele>1036</ele>
        <time>2024-08-14T13:01:41Z</time>
      </trkpt>
      <trkpt lat="44.98116" lon="6.12041">
        <ele>1036</ele>
        <time>2024-08-14T13:01:42Z</time>
      </trkpt>
      <trkpt lat="44.98116" lon="6.12041">
        <ele>1035.6</ele>
        <time>2024-08-14T13:01:43Z</time>
      </trkpt>
      <trkpt lat="44.98117" lon="6.12041">
        <ele>1035.2</ele>
        <time>2024-08-14T13:01:44Z</time>
      </trkpt>
      <trkpt lat="44.98117" lon="6.12041">
        <ele>1034.6</ele>
        <time>2024-08-14T13:01:45Z</time>
      </trkpt>
      <trkpt lat="44.98119" lon="6.12041">
        <ele>1034.4</ele>
        <time>2024-08-14T13:01:46Z</time>
      </trkpt>
      <trkpt lat="44.98119" lon="6.12041">
        <ele>1034.2</ele>
        <time>2024-08-14T13:01:47Z</time>
      </trkpt>
      <trkpt lat="44.98119" lon="6.12041">
        <ele>1033.6</ele>
        <time>2024-08-14T13:01:48Z</time>
      </trkpt>
      <trkpt lat="44.98121" lon="6.12041">
        <ele>1033.6</ele>
        <time>2024-08-14T13:01:49Z</time>
      </trkpt>
      <trkpt lat="44.98121" lon="6.12041">
        <ele>1033.2</ele>
        <time>2024-08-14T13:01:50Z</time>
      </trkpt>
      <trkpt lat="44.98123" lon="6.1204">
        <ele>1032.8</ele>
        <time>2024-08-14T13:01:51Z</time>
      </trkpt>
      <trkpt lat="44.98123" lon="6.1204">
        <ele>1032.4</ele>
        <time>2024-08-14T13:01:52Z</time>
      </trkpt>
      <trkpt lat="44.98125" lon="6.12039">
        <ele>1032.2</ele>
        <time>2024-08-14T13:01:53Z</time>
      </trkpt>
      <trkpt lat="44.98125" lon="6.12039">
        <ele>1032.2</ele>
        <time>2024-08-14T13:01:54Z</time>
      </trkpt>
      <trkpt lat="44.98125" lon="6.12039">
        <ele>1032</ele>
        <time>2024-08-14T13:01:55Z</time>
      </trkpt>
      <trkpt lat="44.98127" lon="6.12037">
        <ele>1031.6</ele>
        <time>2024-08-14T13:01:56Z</time>
      </trkpt>
      <trkpt lat="44.98127" lon="6.12037">
        <ele>1031.4</ele>
        <time>2024-08-14T13:01:57Z</time>
      </trkpt>
      <trkpt lat="44.98127" lon="6.12037">
        <ele>1031</ele>
        <time>2024-08-14T13:01:58Z</time>
      </trkpt>
      <trkpt lat="44.98129" lon="6.12036">
        <ele>1030.6</ele>
        <time>2024-08-14T13:01:59Z</time>
      </trkpt>
      <trkpt lat="44.98129" lon="6.12036">
        <ele>1030.4</ele>
        <time>2024-08-14T13:02:00Z</time>
      </trkpt>
      <trkpt lat="44.98129" lon="6.12036">
        <ele>1030.2</ele>
        <time>2024-08-14T13:02:01Z</time>
      </trkpt>
      <trkpt lat="44.98129" lon="6.12036">
        <ele>1030</ele>
        <time>2024-08-14T13:02:02Z</time>
      </trkpt>
      <trkpt lat="44.98129" lon="6.12036">
        <ele>1029.8</ele>
        <time>2024-08-14T13:02:03Z</time>
      </trkpt>
      <trkpt lat="44.98131" lon="6.12034">
        <ele>1029.2</ele>
        <time>2024-08-14T13:02:04Z</time>
      </trkpt>
      <trkpt lat="44.98131" lon="6.12034">
        <ele>1029.2</ele>
        <time>2024-08-14T13:02:05Z</time>
      </trkpt>
      <trkpt lat="44.98133" lon="6.12035">
        <ele>1029</ele>
        <time>2024-08-14T13:02:06Z</time>
      </trkpt>
      <trkpt lat="44.98133" lon="6.12035">
        <ele>1028.8</ele>
        <time>2024-08-14T13:02:07Z</time>
      </trkpt>
      <trkpt lat="44.98135" lon="6.12035">
        <ele>1028.4</ele>
        <time>2024-08-14T13:02:08Z</time>
      </trkpt>
      <trkpt lat="44.98135" lon="6.12035">
        <ele>1028.2</ele>
        <time>2024-08-14T13:02:09Z</time>
      </trkpt>
      <trkpt lat="44.98137" lon="6.12035">
        <ele>1027.8</ele>
        <time>2024-08-14T13:02:10Z</time>
      </trkpt>
      <trkpt lat="44.98137" lon="6.12035">
        <ele>1027.8</ele>
        <time>2024-08-14T13:02:11Z</time>
      </trkpt>
      <trkpt lat="44.9814" lon="6.12035">
        <ele>1027.6</ele>
        <time>2024-08-14T13:02:12Z</time>
      </trkpt>
      <trkpt lat="44.9814" lon="6.12035">
        <ele>1027.2</ele>
        <time>2024-08-14T13:02:13Z</time>
      </trkpt>
      <trkpt lat="44.9814" lon="6.12035">
        <ele>1026.6</ele>
        <time>2024-08-14T13:02:14Z</time>
      </trkpt>
      <trkpt lat="44.98142" lon="6.12033">
        <ele>1026.4</ele>
        <time>2024-08-14T13:02:15Z</time>
      </trkpt>
      <trkpt lat="44.98142" lon="6.12033">
        <ele>1026</ele>
        <time>2024-08-14T13:02:16Z</time>
      </trkpt>
      <trkpt lat="44.98144" lon="6.12032">
        <ele>1025.4</ele>
        <time>2024-08-14T13:02:17Z</time>
      </trkpt>
      <trkpt lat="44.98144" lon="6.12032">
        <ele>1025</ele>
        <time>2024-08-14T13:02:18Z</time>
      </trkpt>
      <trkpt lat="44.98144" lon="6.12032">
        <ele>1024.6</ele>
        <time>2024-08-14T13:02:19Z</time>
      </trkpt>
      <trkpt lat="44.98145" lon="6.12029">
        <ele>1024.4</ele>
        <time>2024-08-14T13:02:20Z</time>
      </trkpt>
      <trkpt lat="44.98145" lon="6.12029">
        <ele>1024.4</ele>
        <time>2024-08-14T13:02:21Z</time>
      </trkpt>
      <trkpt lat="44.98145" lon="6.12029">
        <ele>1024.2</ele>
        <time>2024-08-14T13:02:22Z</time>
      </trkpt>
      <trkpt lat="44.98147" lon="6.12028">
        <ele>1024</ele>
        <time>2024-08-14T13:02:23Z</time>
      </trkpt>
      <trkpt lat="44.98147" lon="6.12028">
        <ele>1023.8</ele>
        <time>2024-08-14T13:02:24Z</time>
      </trkpt>
      <trkpt lat="44.98147" lon="6.12028">
        <ele>1023.2</ele>
        <time>2024-08-14T13:02:25Z</time>
      </trkpt>
      <trkpt lat="44.98149" lon="6.12028">
        <ele>1022.8</ele>
        <time>2024-08-14T13:02:26Z</time>
      </trkpt>
      <trkpt lat="44.98149" lon="6.12028">
        <ele>1022.4</ele>
        <time>2024-08-14T13:02:27Z</time>
      </trkpt>
      <trkpt lat="44.98149" lon="6.12028">
        <ele>1022.2</ele>
        <time>2024-08-14T13:02:28Z</time>
      </trkpt>
      <trkpt lat="44.98149" lon="6.12028">
        <ele>1022</ele>
        <time>2024-08-14T13:02:29Z</time>
      </trkpt>
      <trkpt lat="44.98151" lon="6.12026">
        <ele>1021.8</ele>
        <time>2024-08-14T13:02:30Z</time>
      </trkpt>
      <trkpt lat="44.98151" lon="6.12026">
        <ele>1021.6</ele>
        <time>2024-08-14T13:02:31Z</time>
      </trkpt>
      <trkpt lat="44.98152" lon="6.12024">
        <ele>1021.2</ele>
        <time>2024-08-14T13:02:32Z</time>
      </trkpt>
      <trkpt lat="44.98152" lon="6.12024">
        <ele>1020.8</ele>
        <time>2024-08-14T13:02:33Z</time>
      </trkpt>
      <trkpt lat="44.98153" lon="6.12022">
        <ele>1020.8</ele>
        <time>2024-08-14T13:02:34Z</time>
      </trkpt>
      <trkpt lat="44.98153" lon="6.12022">
        <ele>1020.4</ele>
        <time>2024-08-14T13:02:35Z</time>
      </trkpt>
      <trkpt lat="44.98155" lon="6.12021">
        <ele>1020</ele>
        <time>2024-08-14T13:02:36Z</time>
      </trkpt>
      <trkpt lat="44.98155" lon="6.12021">
        <ele>1019.8</ele>
        <time>2024-08-14T13:02:37Z</time>
      </trkpt>
      <trkpt lat="44.98157" lon="6.12019">
        <ele>1019.4</ele>
        <time>2024-08-14T13:02:38Z</time>
      </trkpt>
      <trkpt lat="44.98157" lon="6.12019">
        <ele>1019</ele>
        <time>2024-08-14T13:02:39Z</time>
      </trkpt>
      <trkpt lat="44.9816" lon="6.12018">
        <ele>1018.8</ele>
        <time>2024-08-14T13:02:40Z</time>
      </trkpt>
      <trkpt lat="44.9816" lon="6.12018">
        <ele>1018.8</ele>
        <time>2024-08-14T13:02:41Z</time>
      </trkpt>
      <trkpt lat="44.98162" lon="6.12018">
        <ele>1018.2</ele>
        <time>2024-08-14T13:02:42Z</time>
      </trkpt>
      <trkpt lat="44.98162" lon="6.12018">
        <ele>1017.8</ele>
        <time>2024-08-14T13:02:43Z</time>
      </trkpt>
      <trkpt lat="44.98164" lon="6.12017">
        <ele>1017.6</ele>
        <time>2024-08-14T13:02:44Z</time>
      </trkpt>
      <trkpt lat="44.98164" lon="6.12017">
        <ele>1017.4</ele>
        <time>2024-08-14T13:02:45Z</time>
      </trkpt>
      <trkpt lat="44.98166" lon="6.12017">
        <ele>1017.2</ele>
        <time>2024-08-14T13:02:46Z</time>
      </trkpt>
      <trkpt lat="44.98166" lon="6.12017">
        <ele>1016.8</ele>
        <time>2024-08-14T13:02:47Z</time>
      </trkpt>
      <trkpt lat="44.98169" lon="6.12016">
        <ele>1016.4</ele>
        <time>2024-08-14T13:02:48Z</time>
      </trkpt>
      <trkpt lat="44.98169" lon="6.12016">
        <ele>1016.2</ele>
        <time>2024-08-14T13:02:49Z</time>
      </trkpt>
      <trkpt lat="44.98171" lon="6.12017">
        <ele>1015.8</ele>
        <time>2024-08-14T13:02:50Z</time>
      </trkpt>
      <trkpt lat="44.98171" lon="6.12017">
        <ele>1015.6</ele>
        <time>2024-08-14T13:02:51Z</time>
      </trkpt>
      <trkpt lat="44.98171" lon="6.12017">
        <ele>1015</ele>
        <time>2024-08-14T13:02:52Z</time>
      </trkpt>
      <trkpt lat="44.98171" lon="6.12017">
        <ele>1014.8</ele>
        <time>2024-08-14T13:02:53Z</time>
      </trkpt>
      <trkpt lat="44.98173" lon="6.12017">
        <ele>1014.4</ele>
        <time>2024-08-14T13:02:54Z</time>
      </trkpt>
      <trkpt lat="44.98173" lon="6.12017">
        <ele>1014.2</ele>
        <time>2024-08-14T13:02:55Z</time>
      </trkpt>
      <trkpt lat="44.98173" lon="6.12017">
        <ele>1013.8</ele>
        <time>2024-08-14T13:02:56Z</time>
      </trkpt>
      <trkpt lat="44.98174" lon="6.12017">
        <ele>1013.4</ele>
        <time>2024-08-14T13:02:57Z</time>
      </trkpt>
      <trkpt lat="44.98174" lon="6.12017">
        <ele>1013.2</ele>
        <time>2024-08-14T13:02:58Z</time>
      </trkpt>
      <trkpt lat="44.98177" lon="6.12015">
        <ele>1012.8</ele>
        <time>2024-08-14T13:02:59Z</time>
      </trkpt>
      <trkpt lat="44.98177" lon="6.12015">
        <ele>1012.4</ele>
        <time>2024-08-14T13:03:00Z</time>
      </trkpt>
      <trkpt lat="44.9818" lon="6.12014">
        <ele>1012.2</ele>
        <time>2024-08-14T13:03:01Z</time>
      </trkpt>
      <trkpt lat="44.9818" lon="6.12014">
        <ele>1011.8</ele>
        <time>2024-08-14T13:03:02Z</time>
      </trkpt>
      <trkpt lat="44.9818" lon="6.12014">
        <ele>1011.8</ele>
        <time>2024-08-14T13:03:03Z</time>
      </trkpt>
      <trkpt lat="44.98183" lon="6.12013">
        <ele>1011.2</ele>
        <time>2024-08-14T13:03:04Z</time>
      </trkpt>
      <trkpt lat="44.98183" lon="6.12013">
        <ele>1011.2</ele>
        <time>2024-08-14T13:03:05Z</time>
      </trkpt>
      <trkpt lat="44.98183" lon="6.12013">
        <ele>1011</ele>
        <time>2024-08-14T13:03:06Z</time>
      </trkpt>
      <trkpt lat="44.98185" lon="6.12013">
        <ele>1010.8</ele>
        <time>2024-08-14T13:03:07Z</time>
      </trkpt>
      <trkpt lat="44.98185" lon="6.12013">
        <ele>1010.4</ele>
        <time>2024-08-14T13:03:08Z</time>
      </trkpt>
      <trkpt lat="44.98185" lon="6.12013">
        <ele>1010.2</ele>
        <time>2024-08-14T13:03:09Z</time>
      </trkpt>
      <trkpt lat="44.98185" lon="6.12013">
        <ele>1010</ele>
        <time>2024-08-14T13:03:10Z</time>
      </trkpt>
      <trkpt lat="44.98185" lon="6.12013">
        <ele>1010</ele>
        <time>2024-08-14T13:03:11Z</time>
      </trkpt>
      <trkpt lat="44.98187" lon="6.12011">
        <ele>1010</ele>
        <time>2024-08-14T13:03:12Z</time>
      </trkpt>
      <trkpt lat="44.98187" lon="6.12011">
        <ele>1009.8</ele>
        <time>2024-08-14T13:03:13Z</time>
      </trkpt>
      <trkpt lat="44.98189" lon="6.1201">
        <ele>1009.6</ele>
        <time>2024-08-14T13:03:14Z</time>
      </trkpt>
      <trkpt lat="44.98189" lon="6.1201">
        <ele>1009.2</ele>
        <time>2024-08-14T13:03:15Z</time>
      </trkpt>
      <trkpt lat="44.98193" lon="6.1201">
        <ele>1008.6</ele>
        <time>2024-08-14T13:03:16Z</time>
      </trkpt>
      <trkpt lat="44.98193" lon="6.1201">
        <ele>1008.2</ele>
        <time>2024-08-14T13:03:17Z</time>
      </trkpt>
      <trkpt lat="44.98195" lon="6.12011">
        <ele>1007.8</ele>
        <time>2024-08-14T13:03:18Z</time>
      </trkpt>
      <trkpt lat="44.98195" lon="6.12011">
        <ele>1007.6</ele>
        <time>2024-08-14T13:03:19Z</time>
      </trkpt>
      <trkpt lat="44.98197" lon="6.12013">
        <ele>1006.8</ele>
        <time>2024-08-14T13:03:20Z</time>
      </trkpt>
      <trkpt lat="44.98197" lon="6.12013">
        <ele>1006.6</ele>
        <time>2024-08-14T13:03:21Z</time>
      </trkpt>
      <trkpt lat="44.98199" lon="6.12013">
        <ele>1006.4</ele>
        <time>2024-08-14T13:03:22Z</time>
      </trkpt>
      <trkpt lat="44.98199" lon="6.12013">
        <ele>1006.2</ele>
        <time>2024-08-14T13:03:23Z</time>
      </trkpt>
      <trkpt lat="44.98201" lon="6.12014">
        <ele>1005.6</ele>
        <time>2024-08-14T13:03:24Z</time>
      </trkpt>
      <trkpt lat="44.98201" lon="6.12014">
        <ele>1005.4</ele>
        <time>2024-08-14T13:03:25Z</time>
      </trkpt>
      <trkpt lat="44.98204" lon="6.12014">
        <ele>1005.2</ele>
        <time>2024-08-14T13:03:26Z</time>
      </trkpt>
      <trkpt lat="44.98204" lon="6.12014">
        <ele>1004.8</ele>
        <time>2024-08-14T13:03:27Z</time>
      </trkpt>
      <trkpt lat="44.98206" lon="6.12015">
        <ele>1004.4</ele>
        <time>2024-08-14T13:03:28Z</time>
      </trkpt>
      <trkpt lat="44.98206" lon="6.12015">
        <ele>1004</ele>
        <time>2024-08-14T13:03:29Z</time>
      </trkpt>
      <trkpt lat="44.98208" lon="6.12015">
        <ele>1003.6</ele>
        <time>2024-08-14T13:03:30Z</time>
      </trkpt>
      <trkpt lat="44.98208" lon="6.12015">
        <ele>1003.2</ele>
        <time>2024-08-14T13:03:31Z</time>
      </trkpt>
      <trkpt lat="44.98208" lon="6.12015">
        <ele>1002.8</ele>
        <time>2024-08-14T13:03:32Z</time>
      </trkpt>
      <trkpt lat="44.98211" lon="6.12014">
        <ele>1002.6</ele>
        <time>2024-08-14T13:03:33Z</time>
      </trkpt>
      <trkpt lat="44.98211" lon="6.12014">
        <ele>1002.2</ele>
        <time>2024-08-14T13:03:34Z</time>
      </trkpt>
      <trkpt lat="44.98213" lon="6.12013">
        <ele>1001.6</ele>
        <time>2024-08-14T13:03:35Z</time>
      </trkpt>
      <trkpt lat="44.98213" lon="6.12013">
        <ele>1001.6</ele>
        <time>2024-08-14T13:03:36Z</time>
      </trkpt>
      <trkpt lat="44.98213" lon="6.12013">
        <ele>1001.4</ele>
        <time>2024-08-14T13:03:37Z</time>
      </trkpt>
      <trkpt lat="44.98213" lon="6.12013">
        <ele>1001.2</ele>
        <time>2024-08-14T13:03:38Z</time>
      </trkpt>
      <trkpt lat="44.98214" lon="6.12013">
        <ele>1001</ele>
        <time>2024-08-14T13:03:39Z</time>
      </trkpt>
      <trkpt lat="44.98214" lon="6.12013">
        <ele>1000.8</ele>
        <time>2024-08-14T13:03:40Z</time>
      </trkpt>
      <trkpt lat="44.98214" lon="6.12013">
        <ele>1000.6</ele>
        <time>2024-08-14T13:03:41Z</time>
      </trkpt>
      <trkpt lat="44.98217" lon="6.12013">
        <ele>1000.6</ele>
        <time>2024-08-14T13:03:42Z</time>
      </trkpt>
      <trkpt lat="44.98217" lon="6.12013">
        <ele>1000.2</ele>
        <time>2024-08-14T13:03:43Z</time>
      </trkpt>
      <trkpt lat="44.98219" lon="6.12013">
        <ele>999.8</ele>
        <time>2024-08-14T13:03:44Z</time>
      </trkpt>
      <trkpt lat="44.98219" lon="6.12013">
        <ele>999.6</ele>
        <time>2024-08-14T13:03:45Z</time>
      </trkpt>
      <trkpt lat="44.98219" lon="6.12013">
        <ele>999.2</ele>
        <time>2024-08-14T13:03:46Z</time>
      </trkpt>
      <trkpt lat="44.98221" lon="6.12014">
        <ele>999</ele>
        <time>2024-08-14T13:03:47Z</time>
      </trkpt>
      <trkpt lat="44.98221" lon="6.12014">
        <ele>998.6</ele>
        <time>2024-08-14T13:03:48Z</time>
      </trkpt>
      <trkpt lat="44.98221" lon="6.12014">
        <ele>998.4</ele>
        <time>2024-08-14T13:03:49Z</time>
      </trkpt>
      <trkpt lat="44.98223" lon="6.12016">
        <ele>997.8</ele>
        <time>2024-08-14T13:03:50Z</time>
      </trkpt>
      <trkpt lat="44.98223" lon="6.12016">
        <ele>997.4</ele>
        <time>2024-08-14T13:03:51Z</time>
      </trkpt>
      <trkpt lat="44.98223" lon="6.12016">
        <ele>997</ele>
        <time>2024-08-14T13:03:52Z</time>
      </trkpt>
      <trkpt lat="44.98226" lon="6.12015">
        <ele>997</ele>
        <time>2024-08-14T13:03:53Z</time>
      </trkpt>
      <trkpt lat="44.98226" lon="6.12015">
        <ele>996.4</ele>
        <time>2024-08-14T13:03:54Z</time>
      </trkpt>
      <trkpt lat="44.98229" lon="6.12015">
        <ele>996.2</ele>
        <time>2024-08-14T13:03:55Z</time>
      </trkpt>
      <trkpt lat="44.98229" lon="6.12015">
        <ele>996.2</ele>
        <time>2024-08-14T13:03:56Z</time>
      </trkpt>
      <trkpt lat="44.98229" lon="6.12015">
        <ele>995.8</ele>
        <time>2024-08-14T13:03:57Z</time>
      </trkpt>
      <trkpt lat="44.98231" lon="6.12016">
        <ele>995.4</ele>
        <time>2024-08-14T13:03:58Z</time>
      </trkpt>
      <trkpt lat="44.98231" lon="6.12016">
        <ele>995.4</ele>
        <time>2024-08-14T13:03:59Z</time>
      </trkpt>
      <trkpt lat="44.98234" lon="6.12015">
        <ele>995</ele>
        <time>2024-08-14T13:04:00Z</time>
      </trkpt>
      <trkpt lat="44.98234" lon="6.12015">
        <ele>994.8</ele>
        <time>2024-08-14T13:04:01Z</time>
      </trkpt>
      <trkpt lat="44.98234" lon="6.12015">
        <ele>994.2</ele>
        <time>2024-08-14T13:04:02Z</time>
      </trkpt>
      <trkpt lat="44.98234" lon="6.12015">
        <ele>994.2</ele>
        <time>2024-08-14T13:04:03Z</time>
      </trkpt>
      <trkpt lat="44.98234" lon="6.12015">
        <ele>993.8</ele>
        <time>2024-08-14T13:04:04Z</time>
      </trkpt>
      <trkpt lat="44.98236" lon="6.12014">
        <ele>993.6</ele>
        <time>2024-08-14T13:04:05Z</time>
      </trkpt>
      <trkpt lat="44.98236" lon="6.12014">
        <ele>993.2</ele>
        <time>2024-08-14T13:04:06Z</time>
      </trkpt>
      <trkpt lat="44.98236" lon="6.12014">
        <ele>992.8</ele>
        <time>2024-08-14T13:04:07Z</time>
      </trkpt>
      <trkpt lat="44.98239" lon="6.12012">
        <ele>992.4</ele>
        <time>2024-08-14T13:04:08Z</time>
      </trkpt>
      <trkpt lat="44.98239" lon="6.12012">
        <ele>992.2</ele>
        <time>2024-08-14T13:04:09Z</time>
      </trkpt>
      <trkpt lat="44.9824" lon="6.12009">
        <ele>991.8</ele>
        <time>2024-08-14T13:04:10Z</time>
      </trkpt>
      <trkpt lat="44.9824" lon="6.12009">
        <ele>991.6</ele>
        <time>2024-08-14T13:04:11Z</time>
      </trkpt>
      <trkpt lat="44.9824" lon="6.12009">
        <ele>991.2</ele>
        <time>2024-08-14T13:04:12Z</time>
      </trkpt>
      <trkpt lat="44.98243" lon="6.12008">
        <ele>990.8</ele>
        <time>2024-08-14T13:04:13Z</time>
      </trkpt>
      <trkpt lat="44.98243" lon="6.12008">
        <ele>990.4</ele>
        <time>2024-08-14T13:04:14Z</time>
      </trkpt>
      <trkpt lat="44.98243" lon="6.12008">
        <ele>990.2</ele>
        <time>2024-08-14T13:04:15Z</time>
      </trkpt>
      <trkpt lat="44.98246" lon="6.1201">
        <ele>990</ele>
        <time>2024-08-14T13:04:16Z</time>
      </trkpt>
      <trkpt lat="44.98246" lon="6.12011">
        <ele>989.6</ele>
        <time>2024-08-14T13:04:17Z</time>
      </trkpt>
      <trkpt lat="44.98246" lon="6.12011">
        <ele>989.2</ele>
        <time>2024-08-14T13:04:18Z</time>
      </trkpt>
      <trkpt lat="44.98248" lon="6.12014">
        <ele>989.2</ele>
        <time>2024-08-14T13:04:19Z</time>
      </trkpt>
      <trkpt lat="44.98248" lon="6.12014">
        <ele>988.8</ele>
        <time>2024-08-14T13:04:20Z</time>
      </trkpt>
      <trkpt lat="44.98248" lon="6.12017">
        <ele>988.4</ele>
        <time>2024-08-14T13:04:21Z</time>
      </trkpt>
      <trkpt lat="44.98248" lon="6.12017">
        <ele>987.6</ele>
        <time>2024-08-14T13:04:22Z</time>
      </trkpt>
      <trkpt lat="44.98248" lon="6.12017">
        <ele>987.2</ele>
        <time>2024-08-14T13:04:23Z</time>
      </trkpt>
      <trkpt lat="44.98248" lon="6.12017">
        <ele>987</ele>
        <time>2024-08-14T13:04:24Z</time>
      </trkpt>
      <trkpt lat="44.9825" lon="6.1202">
        <ele>986.6</ele>
        <time>2024-08-14T13:04:25Z</time>
      </trkpt>
      <trkpt lat="44.9825" lon="6.1202">
        <ele>986.4</ele>
        <time>2024-08-14T13:04:26Z</time>
      </trkpt>
      <trkpt lat="44.9825" lon="6.1202">
        <ele>986.2</ele>
        <time>2024-08-14T13:04:27Z</time>
      </trkpt>
      <trkpt lat="44.98253" lon="6.1202">
        <ele>985.6</ele>
        <time>2024-08-14T13:04:28Z</time>
      </trkpt>
      <trkpt lat="44.98253" lon="6.1202">
        <ele>985.4</ele>
        <time>2024-08-14T13:04:29Z</time>
      </trkpt>
      <trkpt lat="44.98255" lon="6.1202">
        <ele>985.2</ele>
        <time>2024-08-14T13:04:30Z</time>
      </trkpt>
      <trkpt lat="44.98255" lon="6.1202">
        <ele>984.8</ele>
        <time>2024-08-14T13:04:31Z</time>
      </trkpt>
      <trkpt lat="44.98258" lon="6.12021">
        <ele>984.6</ele>
        <time>2024-08-14T13:04:32Z</time>
      </trkpt>
      <trkpt lat="44.98258" lon="6.12021">
        <ele>984.2</ele>
        <time>2024-08-14T13:04:33Z</time>
      </trkpt>
      <trkpt lat="44.9826" lon="6.12019">
        <ele>984</ele>
        <time>2024-08-14T13:04:34Z</time>
      </trkpt>
      <trkpt lat="44.9826" lon="6.12019">
        <ele>983.8</ele>
        <time>2024-08-14T13:04:35Z</time>
      </trkpt>
      <trkpt lat="44.98261" lon="6.12016">
        <ele>983.4</ele>
        <time>2024-08-14T13:04:36Z</time>
      </trkpt>
      <trkpt lat="44.98261" lon="6.12016">
        <ele>983.2</ele>
        <time>2024-08-14T13:04:37Z</time>
      </trkpt>
      <trkpt lat="44.98262" lon="6.12012">
        <ele>983</ele>
        <time>2024-08-14T13:04:38Z</time>
      </trkpt>
      <trkpt lat="44.98262" lon="6.12012">
        <ele>982.8</ele>
        <time>2024-08-14T13:04:39Z</time>
      </trkpt>
      <trkpt lat="44.98263" lon="6.12009">
        <ele>982.6</ele>
        <time>2024-08-14T13:04:40Z</time>
      </trkpt>
      <trkpt lat="44.98263" lon="6.12009">
        <ele>982.6</ele>
        <time>2024-08-14T13:04:41Z</time>
      </trkpt>
      <trkpt lat="44.98263" lon="6.12006">
        <ele>982.4</ele>
        <time>2024-08-14T13:04:42Z</time>
      </trkpt>
      <trkpt lat="44.98263" lon="6.12006">
        <ele>982.4</ele>
        <time>2024-08-14T13:04:43Z</time>
      </trkpt>
      <trkpt lat="44.98263" lon="6.12006">
        <ele>982.2</ele>
        <time>2024-08-14T13:04:44Z</time>
      </trkpt>
      <trkpt lat="44.98263" lon="6.12006">
        <ele>982.2</ele>
        <time>2024-08-14T13:04:45Z</time>
      </trkpt>
      <trkpt lat="44.98263" lon="6.12006">
        <ele>982.2</ele>
        <time>2024-08-14T13:04:46Z</time>
      </trkpt>
      <trkpt lat="44.98263" lon="6.12006">
        <ele>982.4</ele>
        <time>2024-08-14T13:04:47Z</time>
      </trkpt>
      <trkpt lat="44.98263" lon="6.12006">
        <ele>982.4</ele>
        <time>2024-08-14T13:04:48Z</time>
      </trkpt>
      <trkpt lat="44.98263" lon="6.12006">
        <ele>982.4</ele>
        <time>2024-08-14T13:04:49Z</time>
      </trkpt>
      <trkpt lat="44.98263" lon="6.12006">
        <ele>982.4</ele>
        <time>2024-08-14T13:04:50Z</time>
      </trkpt>
      <trkpt lat="44.98263" lon="6.12006">
        <ele>982.4</ele>
        <time>2024-08-14T13:04:51Z</time>
      </trkpt>
      <trkpt lat="44.98263" lon="6.12006">
        <ele>982.4</ele>
        <time>2024-08-14T13:04:52Z</time>
      </trkpt>
      <trkpt lat="44.98263" lon="6.12006">
        <ele>982.4</ele>
        <time>2024-08-14T13:04:53Z</time>
      </trkpt>
      <trkpt lat="44.98264" lon="6.12002">
        <ele>982.4</ele>
        <time>2024-08-14T13:04:54Z</time>
      </trkpt>
      <trkpt lat="44.98266" lon="6.12002">
        <ele>982.2</ele>
        <time>2024-08-14T13:04:55Z</time>
      </trkpt>
      <trkpt lat="44.98266" lon="6.12002">
        <ele>982.2</ele>
        <time>2024-08-14T13:04:56Z</time>
      </trkpt>
      <trkpt lat="44.98268" lon="6.12003">
        <ele>982.2</ele>
        <time>2024-08-14T13:04:57Z</time>
      </trkpt>
      <trkpt lat="44.98268" lon="6.12003">
        <ele>982.2</ele>
        <time>2024-08-14T13:04:58Z</time>
      </trkpt>
      <trkpt lat="44.9827" lon="6.12005">
        <ele>982.2</ele>
        <time>2024-08-14T13:04:59Z</time>
      </trkpt>
      <trkpt lat="44.9827" lon="6.12005">
        <ele>982.2</ele>
        <time>2024-08-14T13:05:00Z</time>
      </trkpt>
      <trkpt lat="44.98273" lon="6.12007">
        <ele>982.2</ele>
        <time>2024-08-14T13:05:01Z</time>
      </trkpt>
      <trkpt lat="44.98273" lon="6.12007">
        <ele>982.4</ele>
        <time>2024-08-14T13:05:02Z</time>
      </trkpt>
      <trkpt lat="44.98273" lon="6.12007">
        <ele>982.4</ele>
        <time>2024-08-14T13:05:03Z</time>
      </trkpt>
      <trkpt lat="44.98278" lon="6.12009">
        <ele>982.4</ele>
        <time>2024-08-14T13:05:04Z</time>
      </trkpt>
      <trkpt lat="44.98279" lon="6.1201">
        <ele>982.2</ele>
        <time>2024-08-14T13:05:05Z</time>
      </trkpt>
      <trkpt lat="44.98281" lon="6.12012">
        <ele>982.2</ele>
        <time>2024-08-14T13:05:06Z</time>
      </trkpt>
      <trkpt lat="44.98283" lon="6.12012">
        <ele>981.8</ele>
        <time>2024-08-14T13:05:07Z</time>
      </trkpt>
      <trkpt lat="44.98284" lon="6.12014">
        <ele>981.8</ele>
        <time>2024-08-14T13:05:08Z</time>
      </trkpt>
      <trkpt lat="44.98284" lon="6.12014">
        <ele>981.4</ele>
        <time>2024-08-14T13:05:09Z</time>
      </trkpt>
      <trkpt lat="44.98286" lon="6.12016">
        <ele>981.4</ele>
        <time>2024-08-14T13:05:10Z</time>
      </trkpt>
      <trkpt lat="44.98286" lon="6.12016">
        <ele>981.4</ele>
        <time>2024-08-14T13:05:11Z</time>
      </trkpt>
      <trkpt lat="44.98289" lon="6.12018">
        <ele>981.4</ele>
        <time>2024-08-14T13:05:12Z</time>
      </trkpt>
      <trkpt lat="44.98289" lon="6.12018">
        <ele>981</ele>
        <time>2024-08-14T13:05:13Z</time>
      </trkpt>
      <trkpt lat="44.98291" lon="6.12018">
        <ele>981</ele>
        <time>2024-08-14T13:05:14Z</time>
      </trkpt>
      <trkpt lat="44.98291" lon="6.12018">
        <ele>981.2</ele>
        <time>2024-08-14T13:05:15Z</time>
      </trkpt>
      <trkpt lat="44.98294" lon="6.12018">
        <ele>981.6</ele>
        <time>2024-08-14T13:05:16Z</time>
      </trkpt>
      <trkpt lat="44.98294" lon="6.12018">
        <ele>981.6</ele>
        <time>2024-08-14T13:05:17Z</time>
      </trkpt>
      <trkpt lat="44.98296" lon="6.12017">
        <ele>981.6</ele>
        <time>2024-08-14T13:05:18Z</time>
      </trkpt>
      <trkpt lat="44.98296" lon="6.12017">
        <ele>981.6</ele>
        <time>2024-08-14T13:05:19Z</time>
      </trkpt>
      <trkpt lat="44.98299" lon="6.12018">
        <ele>981.6</ele>
        <time>2024-08-14T13:05:20Z</time>
      </trkpt>
      <trkpt lat="44.98299" lon="6.12018">
        <ele>981.8</ele>
        <time>2024-08-14T13:05:21Z</time>
      </trkpt>
      <trkpt lat="44.98301" lon="6.12018">
        <ele>981.8</ele>
        <time>2024-08-14T13:05:22Z</time>
      </trkpt>
      <trkpt lat="44.98301" lon="6.12018">
        <ele>981.6</ele>
        <time>2024-08-14T13:05:23Z</time>
      </trkpt>
      <trkpt lat="44.98304" lon="6.12018">
        <ele>981.6</ele>
        <time>2024-08-14T13:05:24Z</time>
      </trkpt>
      <trkpt lat="44.98304" lon="6.12018">
        <ele>981.8</ele>
        <time>2024-08-14T13:05:25Z</time>
      </trkpt>
      <trkpt lat="44.98307" lon="6.12019">
        <ele>981.8</ele>
        <time>2024-08-14T13:05:26Z</time>
      </trkpt>
      <trkpt lat="44.98307" lon="6.12019">
        <ele>981.6</ele>
        <time>2024-08-14T13:05:27Z</time>
      </trkpt>
      <trkpt lat="44.98309" lon="6.12019">
        <ele>981.4</ele>
        <time>2024-08-14T13:05:28Z</time>
      </trkpt>
      <trkpt lat="44.98309" lon="6.12019">
        <ele>981.4</ele>
        <time>2024-08-14T13:05:29Z</time>
      </trkpt>
      <trkpt lat="44.98312" lon="6.12019">
        <ele>980.8</ele>
        <time>2024-08-14T13:05:30Z</time>
      </trkpt>
      <trkpt lat="44.98312" lon="6.12019">
        <ele>980.6</ele>
        <time>2024-08-14T13:05:31Z</time>
      </trkpt>
      <trkpt lat="44.98315" lon="6.12019">
        <ele>980.2</ele>
        <time>2024-08-14T13:05:32Z</time>
      </trkpt>
      <trkpt lat="44.98315" lon="6.12019">
        <ele>980.2</ele>
        <time>2024-08-14T13:05:33Z</time>
      </trkpt>
      <trkpt lat="44.98317" lon="6.1202">
        <ele>980</ele>
        <time>2024-08-14T13:05:34Z</time>
      </trkpt>
      <trkpt lat="44.98317" lon="6.1202">
        <ele>980</ele>
        <time>2024-08-14T13:05:35Z</time>
      </trkpt>
      <trkpt lat="44.9832" lon="6.12021">
        <ele>979.6</ele>
        <time>2024-08-14T13:05:36Z</time>
      </trkpt>
      <trkpt lat="44.9832" lon="6.12021">
        <ele>979.4</ele>
        <time>2024-08-14T13:05:37Z</time>
      </trkpt>
      <trkpt lat="44.98323" lon="6.12021">
        <ele>979.4</ele>
        <time>2024-08-14T13:05:38Z</time>
      </trkpt>
      <trkpt lat="44.98323" lon="6.12021">
        <ele>979.4</ele>
        <time>2024-08-14T13:05:39Z</time>
      </trkpt>
      <trkpt lat="44.98326" lon="6.12022">
        <ele>979.2</ele>
        <time>2024-08-14T13:05:40Z</time>
      </trkpt>
      <trkpt lat="44.98326" lon="6.12022">
        <ele>979</ele>
        <time>2024-08-14T13:05:41Z</time>
      </trkpt>
      <trkpt lat="44.98329" lon="6.12022">
        <ele>979</ele>
        <time>2024-08-14T13:05:42Z</time>
      </trkpt>
      <trkpt lat="44.98331" lon="6.12022">
        <ele>979</ele>
        <time>2024-08-14T13:05:43Z</time>
      </trkpt>
      <trkpt lat="44.98331" lon="6.12022">
        <ele>978.6</ele>
        <time>2024-08-14T13:05:44Z</time>
      </trkpt>
      <trkpt lat="44.98333" lon="6.12024">
        <ele>978.4</ele>
        <time>2024-08-14T13:05:45Z</time>
      </trkpt>
      <trkpt lat="44.98335" lon="6.12025">
        <ele>978.2</ele>
        <time>2024-08-14T13:05:46Z</time>
      </trkpt>
      <trkpt lat="44.98335" lon="6.12025">
        <ele>978</ele>
        <time>2024-08-14T13:05:47Z</time>
      </trkpt>
      <trkpt lat="44.98338" lon="6.12026">
        <ele>977.6</ele>
        <time>2024-08-14T13:05:48Z</time>
      </trkpt>
      <trkpt lat="44.98338" lon="6.12026">
        <ele>977.4</ele>
        <time>2024-08-14T13:05:49Z</time>
      </trkpt>
      <trkpt lat="44.98341" lon="6.12028">
        <ele>977</ele>
        <time>2024-08-14T13:05:50Z</time>
      </trkpt>
      <trkpt lat="44.98341" lon="6.12028">
        <ele>976.8</ele>
        <time>2024-08-14T13:05:51Z</time>
      </trkpt>
      <trkpt lat="44.98343" lon="6.12028">
        <ele>976.6</ele>
        <time>2024-08-14T13:05:52Z</time>
      </trkpt>
      <trkpt lat="44.98343" lon="6.12028">
        <ele>976.6</ele>
        <time>2024-08-14T13:05:53Z</time>
      </trkpt>
      <trkpt lat="44.98345" lon="6.12026">
        <ele>976.6</ele>
        <time>2024-08-14T13:05:54Z</time>
      </trkpt>
      <trkpt lat="44.98345" lon="6.12026">
        <ele>976.4</ele>
        <time>2024-08-14T13:05:55Z</time>
      </trkpt>
      <trkpt lat="44.98346" lon="6.12023">
        <ele>976.4</ele>
        <time>2024-08-14T13:05:56Z</time>
      </trkpt>
      <trkpt lat="44.98346" lon="6.12023">
        <ele>976.4</ele>
        <time>2024-08-14T13:05:57Z</time>
      </trkpt>
      <trkpt lat="44.98346" lon="6.12023">
        <ele>976.4</ele>
        <time>2024-08-14T13:05:58Z</time>
      </trkpt>
      <trkpt lat="44.98346" lon="6.12023">
        <ele>976.4</ele>
        <time>2024-08-14T13:05:59Z</time>
      </trkpt>
      <trkpt lat="44.98346" lon="6.12023">
        <ele>976.4</ele>
        <time>2024-08-14T13:06:00Z</time>
      </trkpt>
      <trkpt lat="44.98346" lon="6.12023">
        <ele>976.2</ele>
        <time>2024-08-14T13:06:01Z</time>
      </trkpt>
      <trkpt lat="44.98346" lon="6.12023">
        <ele>976.2</ele>
        <time>2024-08-14T13:06:02Z</time>
      </trkpt>
      <trkpt lat="44.98346" lon="6.12023">
        <ele>976.2</ele>
        <time>2024-08-14T13:06:03Z</time>
      </trkpt>
      <trkpt lat="44.98346" lon="6.12023">
        <ele>975.8</ele>
        <time>2024-08-14T13:06:04Z</time>
      </trkpt>
      <trkpt lat="44.98346" lon="6.12023">
        <ele>975.8</ele>
        <time>2024-08-14T13:06:05Z</time>
      </trkpt>
      <trkpt lat="44.98346" lon="6.12023">
        <ele>975.8</ele>
        <time>2024-08-14T13:06:06Z</time>
      </trkpt>
      <trkpt lat="44.98346" lon="6.12023">
        <ele>976</ele>
        <time>2024-08-14T13:06:07Z</time>
      </trkpt>
      <trkpt lat="44.98346" lon="6.12023">
        <ele>976</ele>
        <time>2024-08-14T13:06:08Z</time>
      </trkpt>
      <trkpt lat="44.98346" lon="6.12023">
        <ele>976</ele>
        <time>2024-08-14T13:06:09Z</time>
      </trkpt>
      <trkpt lat="44.98346" lon="6.12023">
        <ele>976.2</ele>
        <time>2024-08-14T13:06:10Z</time>
      </trkpt>
      <trkpt lat="44.98346" lon="6.12023">
        <ele>976.2</ele>
        <time>2024-08-14T13:06:11Z</time>
      </trkpt>
      <trkpt lat="44.98346" lon="6.12023">
        <ele>976.2</ele>
        <time>2024-08-14T13:06:12Z</time>
      </trkpt>
      <trkpt lat="44.98346" lon="6.12023">
        <ele>976.2</ele>
        <time>2024-08-14T13:06:13Z</time>
      </trkpt>
      <trkpt lat="44.98346" lon="6.12023">
        <ele>976.2</ele>
        <time>2024-08-14T13:06:14Z</time>
      </trkpt>
      <trkpt lat="44.98346" lon="6.12023">
        <ele>976.2</ele>
        <time>2024-08-14T13:06:15Z</time>
      </trkpt>
      <trkpt lat="44.98346" lon="6.12023">
        <ele>976.2</ele>
        <time>2024-08-14T13:06:16Z</time>
      </trkpt>
      <trkpt lat="44.98346" lon="6.12023">
        <ele>976.2</ele>
        <time>2024-08-14T13:06:17Z</time>
      </trkpt>
      <trkpt lat="44.98346" lon="6.12023">
        <ele>976.2</ele>
        <time>2024-08-14T13:06:18Z</time>
      </trkpt>
      <trkpt lat="44.98346" lon="6.12023">
        <ele>976.2</ele>
        <time>2024-08-14T13:06:19Z</time>
      </trkpt>
      <trkpt lat="44.98346" lon="6.12023">
        <ele>976</ele>
        <time>2024-08-14T13:06:20Z</time>
      </trkpt>
      <trkpt lat="44.98346" lon="6.12023">
        <ele>975.8</ele>
        <time>2024-08-14T13:06:21Z</time>
      </trkpt>
      <trkpt lat="44.98346" lon="6.12023">
        <ele>975.6</ele>
        <time>2024-08-14T13:06:22Z</time>
      </trkpt>
      <trkpt lat="44.98346" lon="6.12023">
        <ele>975.6</ele>
        <time>2024-08-14T13:06:23Z</time>
      </trkpt>
      <trkpt lat="44.98346" lon="6.12023">
        <ele>975.6</ele>
        <time>2024-08-14T13:06:24Z</time>
      </trkpt>
      <trkpt lat="44.98346" lon="6.12023">
        <ele>975.8</ele>
        <time>2024-08-14T13:06:25Z</time>
      </trkpt>
      <trkpt lat="44.98346" lon="6.12023">
        <ele>976</ele>
        <time>2024-08-14T13:06:26Z</time>
      </trkpt>
      <trkpt lat="44.98346" lon="6.12023">
        <ele>976</ele>
        <time>2024-08-14T13:06:27Z</time>
      </trkpt>
      <trkpt lat="44.98346" lon="6.12023">
        <ele>975.8</ele>
        <time>2024-08-14T13:06:28Z</time>
      </trkpt>
      <trkpt lat="44.98346" lon="6.12023">
        <ele>975.4</ele>
        <time>2024-08-14T13:06:29Z</time>
      </trkpt>
      <trkpt lat="44.98346" lon="6.12023">
        <ele>975.4</ele>
        <time>2024-08-14T13:06:30Z</time>
      </trkpt>
      <trkpt lat="44.98346" lon="6.12023">
        <ele>975.4</ele>
        <time>2024-08-14T13:06:31Z</time>
      </trkpt>
      <trkpt lat="44.98346" lon="6.12023">
        <ele>975.4</ele>
        <time>2024-08-14T13:06:32Z</time>
      </trkpt>
      <trkpt lat="44.98346" lon="6.12023">
        <ele>975.2</ele>
        <time>2024-08-14T13:06:33Z</time>
      </trkpt>
      <trkpt lat="44.98346" lon="6.12023">
        <ele>975.2</ele>
        <time>2024-08-14T13:06:34Z</time>
      </trkpt>
      <trkpt lat="44.98346" lon="6.12023">
        <ele>975</ele>
        <time>2024-08-14T13:06:35Z</time>
      </trkpt>
      <trkpt lat="44.98346" lon="6.12023">
        <ele>975</ele>
        <time>2024-08-14T13:06:36Z</time>
      </trkpt>
      <trkpt lat="44.98346" lon="6.12023">
        <ele>974.8</ele>
        <time>2024-08-14T13:06:37Z</time>
      </trkpt>
      <trkpt lat="44.98346" lon="6.12023">
        <ele>974.6</ele>
        <time>2024-08-14T13:06:38Z</time>
      </trkpt>
      <trkpt lat="44.98346" lon="6.12023">
        <ele>974.4</ele>
        <time>2024-08-14T13:06:39Z</time>
      </trkpt>
      <trkpt lat="44.98346" lon="6.12023">
        <ele>974.2</ele>
        <time>2024-08-14T13:06:40Z</time>
      </trkpt>
      <trkpt lat="44.98346" lon="6.12023">
        <ele>974.4</ele>
        <time>2024-08-14T13:06:41Z</time>
      </trkpt>
      <trkpt lat="44.98346" lon="6.12023">
        <ele>974.2</ele>
        <time>2024-08-14T13:06:42Z</time>
      </trkpt>
      <trkpt lat="44.98346" lon="6.12023">
        <ele>974</ele>
        <time>2024-08-14T13:06:43Z</time>
      </trkpt>
      <trkpt lat="44.98346" lon="6.12023">
        <ele>974</ele>
        <time>2024-08-14T13:06:44Z</time>
      </trkpt>
      <trkpt lat="44.98346" lon="6.12023">
        <ele>973.8</ele>
        <time>2024-08-14T13:06:45Z</time>
      </trkpt>
      <trkpt lat="44.98346" lon="6.12023">
        <ele>974</ele>
        <time>2024-08-14T13:06:46Z</time>
      </trkpt>
      <trkpt lat="44.98346" lon="6.12023">
        <ele>974</ele>
        <time>2024-08-14T13:06:47Z</time>
      </trkpt>
      <trkpt lat="44.98346" lon="6.12023">
        <ele>974</ele>
        <time>2024-08-14T13:06:48Z</time>
      </trkpt>
      <trkpt lat="44.98346" lon="6.12023">
        <ele>973.8</ele>
        <time>2024-08-14T13:06:49Z</time>
      </trkpt>
      <trkpt lat="44.98346" lon="6.12023">
        <ele>973.8</ele>
        <time>2024-08-14T13:06:50Z</time>
      </trkpt>
      <trkpt lat="44.98348" lon="6.12024">
        <ele>973.6</ele>
        <time>2024-08-14T13:06:51Z</time>
      </trkpt>
      <trkpt lat="44.98348" lon="6.12024">
        <ele>973.4</ele>
        <time>2024-08-14T13:06:52Z</time>
      </trkpt>
      <trkpt lat="44.9835" lon="6.12025">
        <ele>973.2</ele>
        <time>2024-08-14T13:06:53Z</time>
      </trkpt>
      <trkpt lat="44.98352" lon="6.12026">
        <ele>972.8</ele>
        <time>2024-08-14T13:06:54Z</time>
      </trkpt>
      <trkpt lat="44.98354" lon="6.12026">
        <ele>972.6</ele>
        <time>2024-08-14T13:06:55Z</time>
      </trkpt>
      <trkpt lat="44.98354" lon="6.12026">
        <ele>972.6</ele>
        <time>2024-08-14T13:06:56Z</time>
      </trkpt>
      <trkpt lat="44.98357" lon="6.12028">
        <ele>972.6</ele>
        <time>2024-08-14T13:06:57Z</time>
      </trkpt>
      <trkpt lat="44.98357" lon="6.12028">
        <ele>972.2</ele>
        <time>2024-08-14T13:06:58Z</time>
      </trkpt>
      <trkpt lat="44.98359" lon="6.1203">
        <ele>972</ele>
        <time>2024-08-14T13:06:59Z</time>
      </trkpt>
      <trkpt lat="44.98359" lon="6.1203">
        <ele>971.8</ele>
        <time>2024-08-14T13:07:00Z</time>
      </trkpt>
      <trkpt lat="44.98362" lon="6.12032">
        <ele>971.6</ele>
        <time>2024-08-14T13:07:01Z</time>
      </trkpt>
      <trkpt lat="44.98362" lon="6.12032">
        <ele>971.4</ele>
        <time>2024-08-14T13:07:02Z</time>
      </trkpt>
      <trkpt lat="44.98363" lon="6.12034">
        <ele>971.4</ele>
        <time>2024-08-14T13:07:03Z</time>
      </trkpt>
      <trkpt lat="44.98363" lon="6.12034">
        <ele>971</ele>
        <time>2024-08-14T13:07:04Z</time>
      </trkpt>
      <trkpt lat="44.98365" lon="6.12036">
        <ele>971</ele>
        <time>2024-08-14T13:07:05Z</time>
      </trkpt>
      <trkpt lat="44.98365" lon="6.12036">
        <ele>971</ele>
        <time>2024-08-14T13:07:06Z</time>
      </trkpt>
      <trkpt lat="44.98366" lon="6.12037">
        <ele>971</ele>
        <time>2024-08-14T13:07:07Z</time>
      </trkpt>
      <trkpt lat="44.98366" lon="6.12037">
        <ele>971.2</ele>
        <time>2024-08-14T13:07:08Z</time>
      </trkpt>
      <trkpt lat="44.9837" lon="6.12037">
        <ele>971.2</ele>
        <time>2024-08-14T13:07:09Z</time>
      </trkpt>
      <trkpt lat="44.98372" lon="6.12038">
        <ele>970.8</ele>
        <time>2024-08-14T13:07:10Z</time>
      </trkpt>
      <trkpt lat="44.98373" lon="6.1204">
        <ele>970.4</ele>
        <time>2024-08-14T13:07:11Z</time>
      </trkpt>
      <trkpt lat="44.98373" lon="6.1204">
        <ele>970.2</ele>
        <time>2024-08-14T13:07:12Z</time>
      </trkpt>
      <trkpt lat="44.98375" lon="6.12041">
        <ele>970.2</ele>
        <time>2024-08-14T13:07:13Z</time>
      </trkpt>
      <trkpt lat="44.98375" lon="6.12041">
        <ele>970</ele>
        <time>2024-08-14T13:07:14Z</time>
      </trkpt>
      <trkpt lat="44.98378" lon="6.12041">
        <ele>970</ele>
        <time>2024-08-14T13:07:15Z</time>
      </trkpt>
      <trkpt lat="44.98378" lon="6.12041">
        <ele>970</ele>
        <time>2024-08-14T13:07:16Z</time>
      </trkpt>
      <trkpt lat="44.9838" lon="6.12043">
        <ele>970</ele>
        <time>2024-08-14T13:07:17Z</time>
      </trkpt>
      <trkpt lat="44.9838" lon="6.12043">
        <ele>970</ele>
        <time>2024-08-14T13:07:18Z</time>
      </trkpt>
      <trkpt lat="44.98383" lon="6.12044">
        <ele>970</ele>
        <time>2024-08-14T13:07:19Z</time>
      </trkpt>
      <trkpt lat="44.98385" lon="6.12046">
        <ele>970</ele>
        <time>2024-08-14T13:07:20Z</time>
      </trkpt>
      <trkpt lat="44.98385" lon="6.12046">
        <ele>969.8</ele>
        <time>2024-08-14T13:07:21Z</time>
      </trkpt>
      <trkpt lat="44.98388" lon="6.12046">
        <ele>969.6</ele>
        <time>2024-08-14T13:07:22Z</time>
      </trkpt>
      <trkpt lat="44.98388" lon="6.12046">
        <ele>969.4</ele>
        <time>2024-08-14T13:07:23Z</time>
      </trkpt>
      <trkpt lat="44.98392" lon="6.12048">
        <ele>969.2</ele>
        <time>2024-08-14T13:07:24Z</time>
      </trkpt>
      <trkpt lat="44.98392" lon="6.12048">
        <ele>969.2</ele>
        <time>2024-08-14T13:07:25Z</time>
      </trkpt>
      <trkpt lat="44.98395" lon="6.12048">
        <ele>969.2</ele>
        <time>2024-08-14T13:07:26Z</time>
      </trkpt>
      <trkpt lat="44.98395" lon="6.12048">
        <ele>969</ele>
        <time>2024-08-14T13:07:27Z</time>
      </trkpt>
      <trkpt lat="44.98398" lon="6.12049">
        <ele>968.8</ele>
        <time>2024-08-14T13:07:28Z</time>
      </trkpt>
      <trkpt lat="44.98398" lon="6.12049">
        <ele>968.6</ele>
        <time>2024-08-14T13:07:29Z</time>
      </trkpt>
      <trkpt lat="44.984" lon="6.12051">
        <ele>968.4</ele>
        <time>2024-08-14T13:07:30Z</time>
      </trkpt>
      <trkpt lat="44.984" lon="6.12051">
        <ele>968.2</ele>
        <time>2024-08-14T13:07:31Z</time>
      </trkpt>
      <trkpt lat="44.98403" lon="6.12053">
        <ele>968.2</ele>
        <time>2024-08-14T13:07:32Z</time>
      </trkpt>
      <trkpt lat="44.98403" lon="6.12053">
        <ele>968.2</ele>
        <time>2024-08-14T13:07:33Z</time>
      </trkpt>
      <trkpt lat="44.98405" lon="6.12056">
        <ele>968.2</ele>
        <time>2024-08-14T13:07:34Z</time>
      </trkpt>
      <trkpt lat="44.98405" lon="6.12056">
        <ele>968</ele>
        <time>2024-08-14T13:07:35Z</time>
      </trkpt>
      <trkpt lat="44.98407" lon="6.12057">
        <ele>968</ele>
        <time>2024-08-14T13:07:36Z</time>
      </trkpt>
      <trkpt lat="44.98407" lon="6.12057">
        <ele>968</ele>
        <time>2024-08-14T13:07:37Z</time>
      </trkpt>
      <trkpt lat="44.9841" lon="6.1206">
        <ele>968</ele>
        <time>2024-08-14T13:07:38Z</time>
      </trkpt>
      <trkpt lat="44.9841" lon="6.1206">
        <ele>967.8</ele>
        <time>2024-08-14T13:07:39Z</time>
      </trkpt>
      <trkpt lat="44.98411" lon="6.12063">
        <ele>967.8</ele>
        <time>2024-08-14T13:07:40Z</time>
      </trkpt>
      <trkpt lat="44.98411" lon="6.12063">
        <ele>967.8</ele>
        <time>2024-08-14T13:07:41Z</time>
      </trkpt>
      <trkpt lat="44.98413" lon="6.12066">
        <ele>967.6</ele>
        <time>2024-08-14T13:07:42Z</time>
      </trkpt>
      <trkpt lat="44.98413" lon="6.12066">
        <ele>967.4</ele>
        <time>2024-08-14T13:07:43Z</time>
      </trkpt>
      <trkpt lat="44.98415" lon="6.12069">
        <ele>967.4</ele>
        <time>2024-08-14T13:07:44Z</time>
      </trkpt>
      <trkpt lat="44.98415" lon="6.12069">
        <ele>967.4</ele>
        <time>2024-08-14T13:07:45Z</time>
      </trkpt>
      <trkpt lat="44.98418" lon="6.12072">
        <ele>967.4</ele>
        <time>2024-08-14T13:07:46Z</time>
      </trkpt>
      <trkpt lat="44.98418" lon="6.12072">
        <ele>967.4</ele>
        <time>2024-08-14T13:07:47Z</time>
      </trkpt>
      <trkpt lat="44.9842" lon="6.12075">
        <ele>967</ele>
        <time>2024-08-14T13:07:48Z</time>
      </trkpt>
      <trkpt lat="44.98421" lon="6.12077">
        <ele>966.8</ele>
        <time>2024-08-14T13:07:49Z</time>
      </trkpt>
      <trkpt lat="44.98421" lon="6.12077">
        <ele>966.4</ele>
        <time>2024-08-14T13:07:50Z</time>
      </trkpt>
      <trkpt lat="44.98423" lon="6.12081">
        <ele>966.2</ele>
        <time>2024-08-14T13:07:51Z</time>
      </trkpt>
      <trkpt lat="44.98423" lon="6.12081">
        <ele>966.2</ele>
        <time>2024-08-14T13:07:52Z</time>
      </trkpt>
      <trkpt lat="44.98425" lon="6.12084">
        <ele>966.2</ele>
        <time>2024-08-14T13:07:53Z</time>
      </trkpt>
      <trkpt lat="44.98425" lon="6.12084">
        <ele>966</ele>
        <time>2024-08-14T13:07:54Z</time>
      </trkpt>
      <trkpt lat="44.98426" lon="6.12087">
        <ele>965.8</ele>
        <time>2024-08-14T13:07:55Z</time>
      </trkpt>
      <trkpt lat="44.98426" lon="6.12087">
        <ele>965.8</ele>
        <time>2024-08-14T13:07:56Z</time>
      </trkpt>
      <trkpt lat="44.98429" lon="6.1209">
        <ele>965.8</ele>
        <time>2024-08-14T13:07:57Z</time>
      </trkpt>
      <trkpt lat="44.98429" lon="6.1209">
        <ele>965.8</ele>
        <time>2024-08-14T13:07:58Z</time>
      </trkpt>
      <trkpt lat="44.9843" lon="6.12093">
        <ele>965.8</ele>
        <time>2024-08-14T13:07:59Z</time>
      </trkpt>
      <trkpt lat="44.9843" lon="6.12093">
        <ele>965.6</ele>
        <time>2024-08-14T13:08:00Z</time>
      </trkpt>
      <trkpt lat="44.98432" lon="6.12096">
        <ele>965.6</ele>
        <time>2024-08-14T13:08:01Z</time>
      </trkpt>
      <trkpt lat="44.98434" lon="6.12097">
        <ele>965.8</ele>
        <time>2024-08-14T13:08:02Z</time>
      </trkpt>
      <trkpt lat="44.98434" lon="6.12097">
        <ele>965.8</ele>
        <time>2024-08-14T13:08:03Z</time>
      </trkpt>
      <trkpt lat="44.98436" lon="6.121">
        <ele>965.4</ele>
        <time>2024-08-14T13:08:04Z</time>
      </trkpt>
      <trkpt lat="44.98437" lon="6.12101">
        <ele>965.2</ele>
        <time>2024-08-14T13:08:05Z</time>
      </trkpt>
      <trkpt lat="44.98437" lon="6.12101">
        <ele>965</ele>
        <time>2024-08-14T13:08:06Z</time>
      </trkpt>
      <trkpt lat="44.98439" lon="6.12104">
        <ele>965</ele>
        <time>2024-08-14T13:08:07Z</time>
      </trkpt>
      <trkpt lat="44.98439" lon="6.12104">
        <ele>965</ele>
        <time>2024-08-14T13:08:08Z</time>
      </trkpt>
      <trkpt lat="44.98441" lon="6.12107">
        <ele>964.8</ele>
        <time>2024-08-14T13:08:09Z</time>
      </trkpt>
      <trkpt lat="44.98441" lon="6.12107">
        <ele>964.6</ele>
        <time>2024-08-14T13:08:10Z</time>
      </trkpt>
      <trkpt lat="44.98443" lon="6.1211">
        <ele>964.6</ele>
        <time>2024-08-14T13:08:11Z</time>
      </trkpt>
      <trkpt lat="44.98443" lon="6.1211">
        <ele>964.4</ele>
        <time>2024-08-14T13:08:12Z</time>
      </trkpt>
      <trkpt lat="44.98445" lon="6.12113">
        <ele>964.4</ele>
        <time>2024-08-14T13:08:13Z</time>
      </trkpt>
      <trkpt lat="44.98445" lon="6.12113">
        <ele>964.4</ele>
        <time>2024-08-14T13:08:14Z</time>
      </trkpt>
      <trkpt lat="44.98447" lon="6.12117">
        <ele>964.2</ele>
        <time>2024-08-14T13:08:15Z</time>
      </trkpt>
      <trkpt lat="44.98447" lon="6.12117">
        <ele>964.2</ele>
        <time>2024-08-14T13:08:16Z</time>
      </trkpt>
      <trkpt lat="44.98448" lon="6.12121">
        <ele>964.2</ele>
        <time>2024-08-14T13:08:17Z</time>
      </trkpt>
      <trkpt lat="44.98448" lon="6.12121">
        <ele>964.2</ele>
        <time>2024-08-14T13:08:18Z</time>
      </trkpt>
      <trkpt lat="44.98449" lon="6.12125">
        <ele>964.2</ele>
        <time>2024-08-14T13:08:19Z</time>
      </trkpt>
      <trkpt lat="44.98449" lon="6.12125">
        <ele>964</ele>
        <time>2024-08-14T13:08:20Z</time>
      </trkpt>
      <trkpt lat="44.98449" lon="6.12129">
        <ele>963.8</ele>
        <time>2024-08-14T13:08:21Z</time>
      </trkpt>
      <trkpt lat="44.98449" lon="6.12129">
        <ele>963.8</ele>
        <time>2024-08-14T13:08:22Z</time>
      </trkpt>
      <trkpt lat="44.98449" lon="6.12133">
        <ele>964</ele>
        <time>2024-08-14T13:08:23Z</time>
      </trkpt>
      <trkpt lat="44.98449" lon="6.12133">
        <ele>963.8</ele>
        <time>2024-08-14T13:08:24Z</time>
      </trkpt>
      <trkpt lat="44.98451" lon="6.12137">
        <ele>963.8</ele>
        <time>2024-08-14T13:08:25Z</time>
      </trkpt>
      <trkpt lat="44.98451" lon="6.12137">
        <ele>964</ele>
        <time>2024-08-14T13:08:26Z</time>
      </trkpt>
      <trkpt lat="44.98451" lon="6.12141">
        <ele>963.8</ele>
        <time>2024-08-14T13:08:27Z</time>
      </trkpt>
      <trkpt lat="44.98451" lon="6.12141">
        <ele>963.8</ele>
        <time>2024-08-14T13:08:28Z</time>
      </trkpt>
      <trkpt lat="44.98451" lon="6.12145">
        <ele>963.8</ele>
        <time>2024-08-14T13:08:29Z</time>
      </trkpt>
      <trkpt lat="44.98451" lon="6.12145">
        <ele>963.6</ele>
        <time>2024-08-14T13:08:30Z</time>
      </trkpt>
      <trkpt lat="44.98452" lon="6.12148">
        <ele>963.6</ele>
        <time>2024-08-14T13:08:31Z</time>
      </trkpt>
      <trkpt lat="44.98452" lon="6.12148">
        <ele>963.6</ele>
        <time>2024-08-14T13:08:32Z</time>
      </trkpt>
      <trkpt lat="44.98454" lon="6.12151">
        <ele>963.6</ele>
        <time>2024-08-14T13:08:33Z</time>
      </trkpt>
      <trkpt lat="44.98454" lon="6.12151">
        <ele>963.4</ele>
        <time>2024-08-14T13:08:34Z</time>
      </trkpt>
      <trkpt lat="44.98457" lon="6.12155">
        <ele>963.4</ele>
        <time>2024-08-14T13:08:35Z</time>
      </trkpt>
      <trkpt lat="44.98457" lon="6.12155">
        <ele>963.2</ele>
        <time>2024-08-14T13:08:36Z</time>
      </trkpt>
      <trkpt lat="44.98461" lon="6.12156">
        <ele>963.2</ele>
        <time>2024-08-14T13:08:37Z</time>
      </trkpt>
      <trkpt lat="44.98462" lon="6.12157">
        <ele>963.4</ele>
        <time>2024-08-14T13:08:38Z</time>
      </trkpt>
      <trkpt lat="44.98462" lon="6.12157">
        <ele>963.4</ele>
        <time>2024-08-14T13:08:39Z</time>
      </trkpt>
      <trkpt lat="44.98465" lon="6.12159">
        <ele>963.4</ele>
        <time>2024-08-14T13:08:40Z</time>
      </trkpt>
      <trkpt lat="44.98467" lon="6.1216">
        <ele>963.4</ele>
        <time>2024-08-14T13:08:41Z</time>
      </trkpt>
      <trkpt lat="44.98467" lon="6.1216">
        <ele>963.2</ele>
        <time>2024-08-14T13:08:42Z</time>
      </trkpt>
      <trkpt lat="44.98469" lon="6.12163">
        <ele>963</ele>
        <time>2024-08-14T13:08:43Z</time>
      </trkpt>
      <trkpt lat="44.98469" lon="6.12163">
        <ele>963</ele>
        <time>2024-08-14T13:08:44Z</time>
      </trkpt>
      <trkpt lat="44.9847" lon="6.12166">
        <ele>963</ele>
        <time>2024-08-14T13:08:45Z</time>
      </trkpt>
      <trkpt lat="44.9847" lon="6.12166">
        <ele>963</ele>
        <time>2024-08-14T13:08:46Z</time>
      </trkpt>
      <trkpt lat="44.98473" lon="6.12169">
        <ele>963</ele>
        <time>2024-08-14T13:08:47Z</time>
      </trkpt>
      <trkpt lat="44.98473" lon="6.12169">
        <ele>963</ele>
        <time>2024-08-14T13:08:48Z</time>
      </trkpt>
      <trkpt lat="44.98474" lon="6.12172">
        <ele>963.4</ele>
        <time>2024-08-14T13:08:49Z</time>
      </trkpt>
      <trkpt lat="44.98474" lon="6.12172">
        <ele>963.4</ele>
        <time>2024-08-14T13:08:50Z</time>
      </trkpt>
      <trkpt lat="44.98475" lon="6.12176">
        <ele>963.4</ele>
        <time>2024-08-14T13:08:51Z</time>
      </trkpt>
      <trkpt lat="44.98475" lon="6.12176">
        <ele>963.2</ele>
        <time>2024-08-14T13:08:52Z</time>
      </trkpt>
      <trkpt lat="44.98477" lon="6.1218">
        <ele>963</ele>
        <time>2024-08-14T13:08:53Z</time>
      </trkpt>
      <trkpt lat="44.98477" lon="6.1218">
        <ele>963</ele>
        <time>2024-08-14T13:08:54Z</time>
      </trkpt>
      <trkpt lat="44.98477" lon="6.12184">
        <ele>963</ele>
        <time>2024-08-14T13:08:55Z</time>
      </trkpt>
      <trkpt lat="44.98477" lon="6.12184">
        <ele>963</ele>
        <time>2024-08-14T13:08:56Z</time>
      </trkpt>
      <trkpt lat="44.98478" lon="6.12188">
        <ele>963</ele>
        <time>2024-08-14T13:08:57Z</time>
      </trkpt>
      <trkpt lat="44.98478" lon="6.12188">
        <ele>962.8</ele>
        <time>2024-08-14T13:08:58Z</time>
      </trkpt>
      <trkpt lat="44.98479" lon="6.12192">
        <ele>962.8</ele>
        <time>2024-08-14T13:08:59Z</time>
      </trkpt>
      <trkpt lat="44.98479" lon="6.12192">
        <ele>962.8</ele>
        <time>2024-08-14T13:09:00Z</time>
      </trkpt>
      <trkpt lat="44.9848" lon="6.12196">
        <ele>963</ele>
        <time>2024-08-14T13:09:01Z</time>
      </trkpt>
      <trkpt lat="44.9848" lon="6.12196">
        <ele>963</ele>
        <time>2024-08-14T13:09:02Z</time>
      </trkpt>
      <trkpt lat="44.98481" lon="6.122">
        <ele>963</ele>
        <time>2024-08-14T13:09:03Z</time>
      </trkpt>
      <trkpt lat="44.98481" lon="6.122">
        <ele>963</ele>
        <time>2024-08-14T13:09:04Z</time>
      </trkpt>
      <trkpt lat="44.98481" lon="6.12203">
        <ele>963</ele>
        <time>2024-08-14T13:09:05Z</time>
      </trkpt>
      <trkpt lat="44.98481" lon="6.12203">
        <ele>963</ele>
        <time>2024-08-14T13:09:06Z</time>
      </trkpt>
      <trkpt lat="44.98482" lon="6.12207">
        <ele>963</ele>
        <time>2024-08-14T13:09:07Z</time>
      </trkpt>
      <trkpt lat="44.98482" lon="6.12207">
        <ele>963.2</ele>
        <time>2024-08-14T13:09:08Z</time>
      </trkpt>
      <trkpt lat="44.98483" lon="6.12211">
        <ele>963.2</ele>
        <time>2024-08-14T13:09:09Z</time>
      </trkpt>
      <trkpt lat="44.98483" lon="6.12211">
        <ele>963.2</ele>
        <time>2024-08-14T13:09:10Z</time>
      </trkpt>
      <trkpt lat="44.98483" lon="6.12215">
        <ele>963.2</ele>
        <time>2024-08-14T13:09:11Z</time>
      </trkpt>
      <trkpt lat="44.98483" lon="6.12215">
        <ele>963.2</ele>
        <time>2024-08-14T13:09:12Z</time>
      </trkpt>
      <trkpt lat="44.98484" lon="6.12217">
        <ele>963</ele>
        <time>2024-08-14T13:09:13Z</time>
      </trkpt>
      <trkpt lat="44.98484" lon="6.12217">
        <ele>963</ele>
        <time>2024-08-14T13:09:14Z</time>
      </trkpt>
      <trkpt lat="44.98485" lon="6.1222">
        <ele>963.2</ele>
        <time>2024-08-14T13:09:15Z</time>
      </trkpt>
      <trkpt lat="44.98485" lon="6.1222">
        <ele>963</ele>
        <time>2024-08-14T13:09:16Z</time>
      </trkpt>
      <trkpt lat="44.98485" lon="6.12224">
        <ele>963.4</ele>
        <time>2024-08-14T13:09:17Z</time>
      </trkpt>
      <trkpt lat="44.98485" lon="6.12224">
        <ele>963.2</ele>
        <time>2024-08-14T13:09:18Z</time>
      </trkpt>
      <trkpt lat="44.98486" lon="6.12228">
        <ele>963</ele>
        <time>2024-08-14T13:09:19Z</time>
      </trkpt>
      <trkpt lat="44.98486" lon="6.12228">
        <ele>962.6</ele>
        <time>2024-08-14T13:09:20Z</time>
      </trkpt>
      <trkpt lat="44.98487" lon="6.12232">
        <ele>962.4</ele>
        <time>2024-08-14T13:09:21Z</time>
      </trkpt>
      <trkpt lat="44.98487" lon="6.12232">
        <ele>962.6</ele>
        <time>2024-08-14T13:09:22Z</time>
      </trkpt>
      <trkpt lat="44.98488" lon="6.12236">
        <ele>962.6</ele>
        <time>2024-08-14T13:09:23Z</time>
      </trkpt>
      <trkpt lat="44.98488" lon="6.12236">
        <ele>962.4</ele>
        <time>2024-08-14T13:09:24Z</time>
      </trkpt>
      <trkpt lat="44.98488" lon="6.1224">
        <ele>962.6</ele>
        <time>2024-08-14T13:09:25Z</time>
      </trkpt>
      <trkpt lat="44.98488" lon="6.1224">
        <ele>962.4</ele>
        <time>2024-08-14T13:09:26Z</time>
      </trkpt>
      <trkpt lat="44.98489" lon="6.12244">
        <ele>962.4</ele>
        <time>2024-08-14T13:09:27Z</time>
      </trkpt>
      <trkpt lat="44.98489" lon="6.12244">
        <ele>962.6</ele>
        <time>2024-08-14T13:09:28Z</time>
      </trkpt>
      <trkpt lat="44.98489" lon="6.12244">
        <ele>962.6</ele>
        <time>2024-08-14T13:09:29Z</time>
      </trkpt>
      <trkpt lat="44.9849" lon="6.12248">
        <ele>962.6</ele>
        <time>2024-08-14T13:09:30Z</time>
      </trkpt>
      <trkpt lat="44.9849" lon="6.12248">
        <ele>962.4</ele>
        <time>2024-08-14T13:09:31Z</time>
      </trkpt>
      <trkpt lat="44.98491" lon="6.12251">
        <ele>962.4</ele>
        <time>2024-08-14T13:09:32Z</time>
      </trkpt>
      <trkpt lat="44.98491" lon="6.12251">
        <ele>962.4</ele>
        <time>2024-08-14T13:09:33Z</time>
      </trkpt>
      <trkpt lat="44.98491" lon="6.12255">
        <ele>962.2</ele>
        <time>2024-08-14T13:09:34Z</time>
      </trkpt>
      <trkpt lat="44.98491" lon="6.12255">
        <ele>962.4</ele>
        <time>2024-08-14T13:09:35Z</time>
      </trkpt>
      <trkpt lat="44.98493" lon="6.12258">
        <ele>962.4</ele>
        <time>2024-08-14T13:09:36Z</time>
      </trkpt>
      <trkpt lat="44.98493" lon="6.12258">
        <ele>962.4</ele>
        <time>2024-08-14T13:09:37Z</time>
      </trkpt>
      <trkpt lat="44.98493" lon="6.12261">
        <ele>962.4</ele>
        <time>2024-08-14T13:09:38Z</time>
      </trkpt>
      <trkpt lat="44.98493" lon="6.12261">
        <ele>962.4</ele>
        <time>2024-08-14T13:09:39Z</time>
      </trkpt>
      <trkpt lat="44.98495" lon="6.12263">
        <ele>962.4</ele>
        <time>2024-08-14T13:09:40Z</time>
      </trkpt>
      <trkpt lat="44.98495" lon="6.12263">
        <ele>962.2</ele>
        <time>2024-08-14T13:09:41Z</time>
      </trkpt>
      <trkpt lat="44.98495" lon="6.12263">
        <ele>962.4</ele>
        <time>2024-08-14T13:09:42Z</time>
      </trkpt>
      <trkpt lat="44.98495" lon="6.12263">
        <ele>962.4</ele>
        <time>2024-08-14T13:09:43Z</time>
      </trkpt>
      <trkpt lat="44.98495" lon="6.12263">
        <ele>962.4</ele>
        <time>2024-08-14T13:09:44Z</time>
      </trkpt>
      <trkpt lat="44.98495" lon="6.12263">
        <ele>962.2</ele>
        <time>2024-08-14T13:09:45Z</time>
      </trkpt>
      <trkpt lat="44.98495" lon="6.12263">
        <ele>962.2</ele>
        <time>2024-08-14T13:09:46Z</time>
      </trkpt>
      <trkpt lat="44.98495" lon="6.12263">
        <ele>962.2</ele>
        <time>2024-08-14T13:09:47Z</time>
      </trkpt>
      <trkpt lat="44.98495" lon="6.12263">
        <ele>962.2</ele>
        <time>2024-08-14T13:09:48Z</time>
      </trkpt>
      <trkpt lat="44.98495" lon="6.12263">
        <ele>962.2</ele>
        <time>2024-08-14T13:09:49Z</time>
      </trkpt>
      <trkpt lat="44.98495" lon="6.12263">
        <ele>962.2</ele>
        <time>2024-08-14T13:09:50Z</time>
      </trkpt>
      <trkpt lat="44.98495" lon="6.12263">
        <ele>962.2</ele>
        <time>2024-08-14T13:09:51Z</time>
      </trkpt>
      <trkpt lat="44.98495" lon="6.12263">
        <ele>962.2</ele>
        <time>2024-08-14T13:09:52Z</time>
      </trkpt>
      <trkpt lat="44.98495" lon="6.12263">
        <ele>962</ele>
        <time>2024-08-14T13:09:53Z</time>
      </trkpt>
      <trkpt lat="44.98495" lon="6.12263">
        <ele>962</ele>
        <time>2024-08-14T13:09:54Z</time>
      </trkpt>
      <trkpt lat="44.98495" lon="6.12263">
        <ele>962</ele>
        <time>2024-08-14T13:09:55Z</time>
      </trkpt>
      <trkpt lat="44.98495" lon="6.12263">
        <ele>962.2</ele>
        <time>2024-08-14T13:09:56Z</time>
      </trkpt>
      <trkpt lat="44.98495" lon="6.12263">
        <ele>962.2</ele>
        <time>2024-08-14T13:09:57Z</time>
      </trkpt>
      <trkpt lat="44.98495" lon="6.12263">
        <ele>962.2</ele>
        <time>2024-08-14T13:09:58Z</time>
      </trkpt>
      <trkpt lat="44.98495" lon="6.12263">
        <ele>962.2</ele>
        <time>2024-08-14T13:09:59Z</time>
      </trkpt>
      <trkpt lat="44.98495" lon="6.12263">
        <ele>961.6</ele>
        <time>2024-08-14T13:10:00Z</time>
      </trkpt>
      <trkpt lat="44.98495" lon="6.12263">
        <ele>961.6</ele>
        <time>2024-08-14T13:10:01Z</time>
      </trkpt>
      <trkpt lat="44.98493" lon="6.12264">
        <ele>961.8</ele>
        <time>2024-08-14T13:10:02Z</time>
      </trkpt>
      <trkpt lat="44.98493" lon="6.12264">
        <ele>961.6</ele>
        <time>2024-08-14T13:10:03Z</time>
      </trkpt>
      <trkpt lat="44.98493" lon="6.1227">
        <ele>961.8</ele>
        <time>2024-08-14T13:10:04Z</time>
      </trkpt>
      <trkpt lat="44.98493" lon="6.1227">
        <ele>961.8</ele>
        <time>2024-08-14T13:10:05Z</time>
      </trkpt>
      <trkpt lat="44.98494" lon="6.12276">
        <ele>961.8</ele>
        <time>2024-08-14T13:10:06Z</time>
      </trkpt>
      <trkpt lat="44.98494" lon="6.12276">
        <ele>961.8</ele>
        <time>2024-08-14T13:10:07Z</time>
      </trkpt>
      <trkpt lat="44.98494" lon="6.1228">
        <ele>962</ele>
        <time>2024-08-14T13:10:08Z</time>
      </trkpt>
      <trkpt lat="44.98494" lon="6.1228">
        <ele>961.8</ele>
        <time>2024-08-14T13:10:09Z</time>
      </trkpt>
      <trkpt lat="44.98495" lon="6.12283">
        <ele>962</ele>
        <time>2024-08-14T13:10:10Z</time>
      </trkpt>
      <trkpt lat="44.98495" lon="6.12283">
        <ele>962</ele>
        <time>2024-08-14T13:10:11Z</time>
      </trkpt>
      <trkpt lat="44.98497" lon="6.12286">
        <ele>962.2</ele>
        <time>2024-08-14T13:10:12Z</time>
      </trkpt>
      <trkpt lat="44.98498" lon="6.12288">
        <ele>962.2</ele>
        <time>2024-08-14T13:10:13Z</time>
      </trkpt>
      <trkpt lat="44.98498" lon="6.12288">
        <ele>962</ele>
        <time>2024-08-14T13:10:14Z</time>
      </trkpt>
      <trkpt lat="44.98499" lon="6.12292">
        <ele>962</ele>
        <time>2024-08-14T13:10:15Z</time>
      </trkpt>
      <trkpt lat="44.98499" lon="6.12292">
        <ele>962</ele>
        <time>2024-08-14T13:10:16Z</time>
      </trkpt>
      <trkpt lat="44.98501" lon="6.12296">
        <ele>962.4</ele>
        <time>2024-08-14T13:10:17Z</time>
      </trkpt>
      <trkpt lat="44.98501" lon="6.12296">
        <ele>962.4</ele>
        <time>2024-08-14T13:10:18Z</time>
      </trkpt>
      <trkpt lat="44.98501" lon="6.12299">
        <ele>962.6</ele>
        <time>2024-08-14T13:10:19Z</time>
      </trkpt>
      <trkpt lat="44.98501" lon="6.12299">
        <ele>962.6</ele>
        <time>2024-08-14T13:10:20Z</time>
      </trkpt>
      <trkpt lat="44.98502" lon="6.12303">
        <ele>962.6</ele>
        <time>2024-08-14T13:10:21Z</time>
      </trkpt>
      <trkpt lat="44.98502" lon="6.12303">
        <ele>962.6</ele>
        <time>2024-08-14T13:10:22Z</time>
      </trkpt>
      <trkpt lat="44.98503" lon="6.12307">
        <ele>962.4</ele>
        <time>2024-08-14T13:10:23Z</time>
      </trkpt>
      <trkpt lat="44.98503" lon="6.12307">
        <ele>962.4</ele>
        <time>2024-08-14T13:10:24Z</time>
      </trkpt>
      <trkpt lat="44.98505" lon="6.1231">
        <ele>962.6</ele>
        <time>2024-08-14T13:10:25Z</time>
      </trkpt>
      <trkpt lat="44.98505" lon="6.1231">
        <ele>962.6</ele>
        <time>2024-08-14T13:10:26Z</time>
      </trkpt>
      <trkpt lat="44.98506" lon="6.12313">
        <ele>962.4</ele>
        <time>2024-08-14T13:10:27Z</time>
      </trkpt>
      <trkpt lat="44.98506" lon="6.12313">
        <ele>962.4</ele>
        <time>2024-08-14T13:10:28Z</time>
      </trkpt>
      <trkpt lat="44.98506" lon="6.12313">
        <ele>962.4</ele>
        <time>2024-08-14T13:10:29Z</time>
      </trkpt>
      <trkpt lat="44.98506" lon="6.12318">
        <ele>962.4</ele>
        <time>2024-08-14T13:10:30Z</time>
      </trkpt>
      <trkpt lat="44.98506" lon="6.12319">
        <ele>962.4</ele>
        <time>2024-08-14T13:10:31Z</time>
      </trkpt>
      <trkpt lat="44.98506" lon="6.12319">
        <ele>962.6</ele>
        <time>2024-08-14T13:10:32Z</time>
      </trkpt>
      <trkpt lat="44.98506" lon="6.12319">
        <ele>962.6</ele>
        <time>2024-08-14T13:10:33Z</time>
      </trkpt>
      <trkpt lat="44.98506" lon="6.12319">
        <ele>962.4</ele>
        <time>2024-08-14T13:10:34Z</time>
      </trkpt>
      <trkpt lat="44.98506" lon="6.12319">
        <ele>962.4</ele>
        <time>2024-08-14T13:10:35Z</time>
      </trkpt>
      <trkpt lat="44.98508" lon="6.12319">
        <ele>962.4</ele>
        <time>2024-08-14T13:10:36Z</time>
      </trkpt>
      <trkpt lat="44.98508" lon="6.12319">
        <ele>962.4</ele>
        <time>2024-08-14T13:10:37Z</time>
      </trkpt>
      <trkpt lat="44.9851" lon="6.12317">
        <ele>962.2</ele>
        <time>2024-08-14T13:10:38Z</time>
      </trkpt>
      <trkpt lat="44.9851" lon="6.12317">
        <ele>962.2</ele>
        <time>2024-08-14T13:10:39Z</time>
      </trkpt>
      <trkpt lat="44.98512" lon="6.12314">
        <ele>962</ele>
        <time>2024-08-14T13:10:40Z</time>
      </trkpt>
      <trkpt lat="44.98512" lon="6.12314">
        <ele>962</ele>
        <time>2024-08-14T13:10:41Z</time>
      </trkpt>
      <trkpt lat="44.98515" lon="6.12313">
        <ele>962</ele>
        <time>2024-08-14T13:10:42Z</time>
      </trkpt>
      <trkpt lat="44.98515" lon="6.12313">
        <ele>962</ele>
        <time>2024-08-14T13:10:43Z</time>
      </trkpt>
      <trkpt lat="44.98515" lon="6.12313">
        <ele>962</ele>
        <time>2024-08-14T13:10:44Z</time>
      </trkpt>
      <trkpt lat="44.98519" lon="6.12311">
        <ele>961.8</ele>
        <time>2024-08-14T13:10:45Z</time>
      </trkpt>
      <trkpt lat="44.9852" lon="6.12311">
        <ele>961.8</ele>
        <time>2024-08-14T13:10:46Z</time>
      </trkpt>
      <trkpt lat="44.9852" lon="6.12311">
        <ele>961.8</ele>
        <time>2024-08-14T13:10:47Z</time>
      </trkpt>
      <trkpt lat="44.98523" lon="6.1231">
        <ele>962</ele>
        <time>2024-08-14T13:10:48Z</time>
      </trkpt>
      <trkpt lat="44.98523" lon="6.1231">
        <ele>961.8</ele>
        <time>2024-08-14T13:10:49Z</time>
      </trkpt>
      <trkpt lat="44.98526" lon="6.12309">
        <ele>961.8</ele>
        <time>2024-08-14T13:10:50Z</time>
      </trkpt>
      <trkpt lat="44.98526" lon="6.12309">
        <ele>961.8</ele>
        <time>2024-08-14T13:10:51Z</time>
      </trkpt>
      <trkpt lat="44.98526" lon="6.12309">
        <ele>962</ele>
        <time>2024-08-14T13:10:52Z</time>
      </trkpt>
      <trkpt lat="44.9853" lon="6.12309">
        <ele>962</ele>
        <time>2024-08-14T13:10:53Z</time>
      </trkpt>
      <trkpt lat="44.9853" lon="6.12309">
        <ele>961.8</ele>
        <time>2024-08-14T13:10:54Z</time>
      </trkpt>
      <trkpt lat="44.98533" lon="6.12309">
        <ele>961.8</ele>
        <time>2024-08-14T13:10:55Z</time>
      </trkpt>
      <trkpt lat="44.98534" lon="6.12308">
        <ele>962</ele>
        <time>2024-08-14T13:10:56Z</time>
      </trkpt>
      <trkpt lat="44.98534" lon="6.12308">
        <ele>962</ele>
        <time>2024-08-14T13:10:57Z</time>
      </trkpt>
      <trkpt lat="44.98538" lon="6.12308">
        <ele>962</ele>
        <time>2024-08-14T13:10:58Z</time>
      </trkpt>
      <trkpt lat="44.98538" lon="6.12308">
        <ele>961.8</ele>
        <time>2024-08-14T13:10:59Z</time>
      </trkpt>
      <trkpt lat="44.98541" lon="6.12307">
        <ele>961.8</ele>
        <time>2024-08-14T13:11:00Z</time>
      </trkpt>
      <trkpt lat="44.98541" lon="6.12307">
        <ele>961.8</ele>
        <time>2024-08-14T13:11:01Z</time>
      </trkpt>
      <trkpt lat="44.98543" lon="6.12305">
        <ele>961.8</ele>
        <time>2024-08-14T13:11:02Z</time>
      </trkpt>
      <trkpt lat="44.98543" lon="6.12305">
        <ele>962</ele>
        <time>2024-08-14T13:11:03Z</time>
      </trkpt>
      <trkpt lat="44.98546" lon="6.12303">
        <ele>962</ele>
        <time>2024-08-14T13:11:04Z</time>
      </trkpt>
      <trkpt lat="44.98546" lon="6.12303">
        <ele>962.2</ele>
        <time>2024-08-14T13:11:05Z</time>
      </trkpt>
      <trkpt lat="44.98548" lon="6.12302">
        <ele>962.2</ele>
        <time>2024-08-14T13:11:06Z</time>
      </trkpt>
      <trkpt lat="44.98548" lon="6.12302">
        <ele>961.8</ele>
        <time>2024-08-14T13:11:07Z</time>
      </trkpt>
      <trkpt lat="44.98551" lon="6.123">
        <ele>961.8</ele>
        <time>2024-08-14T13:11:08Z</time>
      </trkpt>
      <trkpt lat="44.98551" lon="6.123">
        <ele>961.8</ele>
        <time>2024-08-14T13:11:09Z</time>
      </trkpt>
      <trkpt lat="44.98554" lon="6.12299">
        <ele>961.6</ele>
        <time>2024-08-14T13:11:10Z</time>
      </trkpt>
      <trkpt lat="44.98554" lon="6.12299">
        <ele>961.6</ele>
        <time>2024-08-14T13:11:11Z</time>
      </trkpt>
      <trkpt lat="44.98557" lon="6.12298">
        <ele>961.2</ele>
        <time>2024-08-14T13:11:12Z</time>
      </trkpt>
      <trkpt lat="44.98557" lon="6.12298">
        <ele>961.2</ele>
        <time>2024-08-14T13:11:13Z</time>
      </trkpt>
      <trkpt lat="44.9856" lon="6.12296">
        <ele>961</ele>
        <time>2024-08-14T13:11:14Z</time>
      </trkpt>
      <trkpt lat="44.9856" lon="6.12296">
        <ele>960.8</ele>
        <time>2024-08-14T13:11:15Z</time>
      </trkpt>
      <trkpt lat="44.98563" lon="6.12294">
        <ele>960.8</ele>
        <time>2024-08-14T13:11:16Z</time>
      </trkpt>
      <trkpt lat="44.98563" lon="6.12294">
        <ele>960.6</ele>
        <time>2024-08-14T13:11:17Z</time>
      </trkpt>
      <trkpt lat="44.98565" lon="6.12293">
        <ele>960.4</ele>
        <time>2024-08-14T13:11:18Z</time>
      </trkpt>
      <trkpt lat="44.98565" lon="6.12293">
        <ele>960.4</ele>
        <time>2024-08-14T13:11:19Z</time>
      </trkpt>
      <trkpt lat="44.98568" lon="6.12291">
        <ele>960.2</ele>
        <time>2024-08-14T13:11:20Z</time>
      </trkpt>
      <trkpt lat="44.98568" lon="6.12291">
        <ele>960</ele>
        <time>2024-08-14T13:11:21Z</time>
      </trkpt>
      <trkpt lat="44.9857" lon="6.12288">
        <ele>960</ele>
        <time>2024-08-14T13:11:22Z</time>
      </trkpt>
      <trkpt lat="44.98572" lon="6.12287">
        <ele>959.6</ele>
        <time>2024-08-14T13:11:23Z</time>
      </trkpt>
      <trkpt lat="44.98572" lon="6.12287">
        <ele>959.6</ele>
        <time>2024-08-14T13:11:24Z</time>
      </trkpt>
      <trkpt lat="44.98573" lon="6.12283">
        <ele>959.4</ele>
        <time>2024-08-14T13:11:25Z</time>
      </trkpt>
      <trkpt lat="44.98573" lon="6.12283">
        <ele>959.2</ele>
        <time>2024-08-14T13:11:26Z</time>
      </trkpt>
      <trkpt lat="44.98575" lon="6.1228">
        <ele>959</ele>
        <time>2024-08-14T13:11:27Z</time>
      </trkpt>
      <trkpt lat="44.98576" lon="6.12278">
        <ele>959</ele>
        <time>2024-08-14T13:11:28Z</time>
      </trkpt>
      <trkpt lat="44.98576" lon="6.12278">
        <ele>958.8</ele>
        <time>2024-08-14T13:11:29Z</time>
      </trkpt>
      <trkpt lat="44.98578" lon="6.12275">
        <ele>958.6</ele>
        <time>2024-08-14T13:11:30Z</time>
      </trkpt>
      <trkpt lat="44.98578" lon="6.12275">
        <ele>958.4</ele>
        <time>2024-08-14T13:11:31Z</time>
      </trkpt>
      <trkpt lat="44.98579" lon="6.12273">
        <ele>958.2</ele>
        <time>2024-08-14T13:11:32Z</time>
      </trkpt>
      <trkpt lat="44.98579" lon="6.12273">
        <ele>958</ele>
        <time>2024-08-14T13:11:33Z</time>
      </trkpt>
      <trkpt lat="44.9858" lon="6.12268">
        <ele>957.8</ele>
        <time>2024-08-14T13:11:34Z</time>
      </trkpt>
      <trkpt lat="44.9858" lon="6.12268">
        <ele>957.8</ele>
        <time>2024-08-14T13:11:35Z</time>
      </trkpt>
      <trkpt lat="44.9858" lon="6.12263">
        <ele>957.4</ele>
        <time>2024-08-14T13:11:36Z</time>
      </trkpt>
      <trkpt lat="44.9858" lon="6.12263">
        <ele>957.2</ele>
        <time>2024-08-14T13:11:37Z</time>
      </trkpt>
      <trkpt lat="44.9858" lon="6.12259">
        <ele>957.2</ele>
        <time>2024-08-14T13:11:38Z</time>
      </trkpt>
      <trkpt lat="44.9858" lon="6.12259">
        <ele>957.2</ele>
        <time>2024-08-14T13:11:39Z</time>
      </trkpt>
      <trkpt lat="44.98581" lon="6.12254">
        <ele>957.4</ele>
        <time>2024-08-14T13:11:40Z</time>
      </trkpt>
      <trkpt lat="44.98581" lon="6.12254">
        <ele>957.4</ele>
        <time>2024-08-14T13:11:41Z</time>
      </trkpt>
      <trkpt lat="44.98582" lon="6.1225">
        <ele>956.8</ele>
        <time>2024-08-14T13:11:42Z</time>
      </trkpt>
      <trkpt lat="44.98582" lon="6.12248">
        <ele>956.8</ele>
        <time>2024-08-14T13:11:43Z</time>
      </trkpt>
      <trkpt lat="44.98583" lon="6.12245">
        <ele>956.8</ele>
        <time>2024-08-14T13:11:44Z</time>
      </trkpt>
      <trkpt lat="44.98583" lon="6.12245">
        <ele>956.6</ele>
        <time>2024-08-14T13:11:45Z</time>
      </trkpt>
      <trkpt lat="44.98583" lon="6.12241">
        <ele>956.6</ele>
        <time>2024-08-14T13:11:46Z</time>
      </trkpt>
      <trkpt lat="44.98583" lon="6.12241">
        <ele>956.6</ele>
        <time>2024-08-14T13:11:47Z</time>
      </trkpt>
      <trkpt lat="44.98583" lon="6.12237">
        <ele>956.4</ele>
        <time>2024-08-14T13:11:48Z</time>
      </trkpt>
      <trkpt lat="44.98583" lon="6.12237">
        <ele>956.4</ele>
        <time>2024-08-14T13:11:49Z</time>
      </trkpt>
      <trkpt lat="44.98584" lon="6.12233">
        <ele>956.4</ele>
        <time>2024-08-14T13:11:50Z</time>
      </trkpt>
      <trkpt lat="44.98584" lon="6.12233">
        <ele>956.2</ele>
        <time>2024-08-14T13:11:51Z</time>
      </trkpt>
      <trkpt lat="44.98584" lon="6.12229">
        <ele>956.2</ele>
        <time>2024-08-14T13:11:52Z</time>
      </trkpt>
      <trkpt lat="44.98584" lon="6.12229">
        <ele>956.2</ele>
        <time>2024-08-14T13:11:53Z</time>
      </trkpt>
      <trkpt lat="44.98585" lon="6.12225">
        <ele>956.2</ele>
        <time>2024-08-14T13:11:54Z</time>
      </trkpt>
      <trkpt lat="44.98585" lon="6.12225">
        <ele>956.2</ele>
        <time>2024-08-14T13:11:55Z</time>
      </trkpt>
      <trkpt lat="44.98587" lon="6.12222">
        <ele>956.2</ele>
        <time>2024-08-14T13:11:56Z</time>
      </trkpt>
      <trkpt lat="44.98587" lon="6.12222">
        <ele>956.2</ele>
        <time>2024-08-14T13:11:57Z</time>
      </trkpt>
      <trkpt lat="44.98587" lon="6.12222">
        <ele>956.2</ele>
        <time>2024-08-14T13:11:58Z</time>
      </trkpt>
      <trkpt lat="44.98588" lon="6.12221">
        <ele>956.2</ele>
        <time>2024-08-14T13:11:59Z</time>
      </trkpt>
      <trkpt lat="44.98588" lon="6.12221">
        <ele>956.4</ele>
        <time>2024-08-14T13:12:00Z</time>
      </trkpt>
      <trkpt lat="44.98588" lon="6.12221">
        <ele>956.4</ele>
        <time>2024-08-14T13:12:01Z</time>
      </trkpt>
      <trkpt lat="44.98588" lon="6.12221">
        <ele>956.4</ele>
        <time>2024-08-14T13:12:02Z</time>
      </trkpt>
      <trkpt lat="44.98588" lon="6.12221">
        <ele>956.2</ele>
        <time>2024-08-14T13:12:03Z</time>
      </trkpt>
      <trkpt lat="44.98588" lon="6.12221">
        <ele>956.2</ele>
        <time>2024-08-14T13:12:04Z</time>
      </trkpt>
      <trkpt lat="44.98588" lon="6.12221">
        <ele>956.2</ele>
        <time>2024-08-14T13:12:05Z</time>
      </trkpt>
      <trkpt lat="44.98588" lon="6.12221">
        <ele>956.2</ele>
        <time>2024-08-14T13:12:06Z</time>
      </trkpt>
      <trkpt lat="44.98588" lon="6.12221">
        <ele>956.2</ele>
        <time>2024-08-14T13:12:07Z</time>
      </trkpt>
      <trkpt lat="44.98588" lon="6.12221">
        <ele>956.2</ele>
        <time>2024-08-14T13:12:08Z</time>
      </trkpt>
      <trkpt lat="44.98588" lon="6.12221">
        <ele>956.2</ele>
        <time>2024-08-14T13:12:09Z</time>
      </trkpt>
      <trkpt lat="44.98591" lon="6.12221">
        <ele>955.8</ele>
        <time>2024-08-14T13:12:10Z</time>
      </trkpt>
      <trkpt lat="44.98591" lon="6.12221">
        <ele>955.8</ele>
        <time>2024-08-14T13:12:11Z</time>
      </trkpt>
      <trkpt lat="44.98593" lon="6.12218">
        <ele>955.8</ele>
        <time>2024-08-14T13:12:12Z</time>
      </trkpt>
      <trkpt lat="44.98595" lon="6.12216">
        <ele>955.8</ele>
        <time>2024-08-14T13:12:13Z</time>
      </trkpt>
      <trkpt lat="44.98596" lon="6.12214">
        <ele>955.6</ele>
        <time>2024-08-14T13:12:14Z</time>
      </trkpt>
      <trkpt lat="44.98598" lon="6.12213">
        <ele>955.6</ele>
        <time>2024-08-14T13:12:15Z</time>
      </trkpt>
      <trkpt lat="44.98598" lon="6.12213">
        <ele>955.8</ele>
        <time>2024-08-14T13:12:16Z</time>
      </trkpt>
      <trkpt lat="44.986" lon="6.1221">
        <ele>955.6</ele>
        <time>2024-08-14T13:12:17Z</time>
      </trkpt>
      <trkpt lat="44.986" lon="6.1221">
        <ele>955.4</ele>
        <time>2024-08-14T13:12:18Z</time>
      </trkpt>
      <trkpt lat="44.98602" lon="6.12208">
        <ele>955.4</ele>
        <time>2024-08-14T13:12:19Z</time>
      </trkpt>
      <trkpt lat="44.98602" lon="6.12208">
        <ele>955.4</ele>
        <time>2024-08-14T13:12:20Z</time>
      </trkpt>
      <trkpt lat="44.98604" lon="6.12204">
        <ele>955.4</ele>
        <time>2024-08-14T13:12:21Z</time>
      </trkpt>
      <trkpt lat="44.98604" lon="6.12204">
        <ele>955.4</ele>
        <time>2024-08-14T13:12:22Z</time>
      </trkpt>
      <trkpt lat="44.98606" lon="6.12201">
        <ele>955.4</ele>
        <time>2024-08-14T13:12:23Z</time>
      </trkpt>
      <trkpt lat="44.98606" lon="6.12201">
        <ele>955.2</ele>
        <time>2024-08-14T13:12:24Z</time>
      </trkpt>
      <trkpt lat="44.98608" lon="6.12198">
        <ele>955</ele>
        <time>2024-08-14T13:12:25Z</time>
      </trkpt>
      <trkpt lat="44.98608" lon="6.12198">
        <ele>954.8</ele>
        <time>2024-08-14T13:12:26Z</time>
      </trkpt>
      <trkpt lat="44.9861" lon="6.12196">
        <ele>955</ele>
        <time>2024-08-14T13:12:27Z</time>
      </trkpt>
      <trkpt lat="44.9861" lon="6.12196">
        <ele>955</ele>
        <time>2024-08-14T13:12:28Z</time>
      </trkpt>
      <trkpt lat="44.98612" lon="6.12193">
        <ele>955</ele>
        <time>2024-08-14T13:12:29Z</time>
      </trkpt>
      <trkpt lat="44.98612" lon="6.12193">
        <ele>954.8</ele>
        <time>2024-08-14T13:12:30Z</time>
      </trkpt>
      <trkpt lat="44.98614" lon="6.12191">
        <ele>954.6</ele>
        <time>2024-08-14T13:12:31Z</time>
      </trkpt>
      <trkpt lat="44.98614" lon="6.12191">
        <ele>954.4</ele>
        <time>2024-08-14T13:12:32Z</time>
      </trkpt>
      <trkpt lat="44.98616" lon="6.12188">
        <ele>954.4</ele>
        <time>2024-08-14T13:12:33Z</time>
      </trkpt>
      <trkpt lat="44.98616" lon="6.12188">
        <ele>954.6</ele>
        <time>2024-08-14T13:12:34Z</time>
      </trkpt>
      <trkpt lat="44.98616" lon="6.12188">
        <ele>954.6</ele>
        <time>2024-08-14T13:12:35Z</time>
      </trkpt>
      <trkpt lat="44.9862" lon="6.12183">
        <ele>954.2</ele>
        <time>2024-08-14T13:12:36Z</time>
      </trkpt>
      <trkpt lat="44.98621" lon="6.12182">
        <ele>954</ele>
        <time>2024-08-14T13:12:37Z</time>
      </trkpt>
      <trkpt lat="44.98621" lon="6.12182">
        <ele>954</ele>
        <time>2024-08-14T13:12:38Z</time>
      </trkpt>
      <trkpt lat="44.98624" lon="6.12181">
        <ele>954</ele>
        <time>2024-08-14T13:12:39Z</time>
      </trkpt>
      <trkpt lat="44.98624" lon="6.12181">
        <ele>953.8</ele>
        <time>2024-08-14T13:12:40Z</time>
      </trkpt>
      <trkpt lat="44.98626" lon="6.12179">
        <ele>953.8</ele>
        <time>2024-08-14T13:12:41Z</time>
      </trkpt>
      <trkpt lat="44.98626" lon="6.12179">
        <ele>953.6</ele>
        <time>2024-08-14T13:12:42Z</time>
      </trkpt>
      <trkpt lat="44.98629" lon="6.12178">
        <ele>953.6</ele>
        <time>2024-08-14T13:12:43Z</time>
      </trkpt>
      <trkpt lat="44.98629" lon="6.12178">
        <ele>953.4</ele>
        <time>2024-08-14T13:12:44Z</time>
      </trkpt>
      <trkpt lat="44.98629" lon="6.12178">
        <ele>953.4</ele>
        <time>2024-08-14T13:12:45Z</time>
      </trkpt>
      <trkpt lat="44.98633" lon="6.12176">
        <ele>953.4</ele>
        <time>2024-08-14T13:12:46Z</time>
      </trkpt>
      <trkpt lat="44.98635" lon="6.12175">
        <ele>953.4</ele>
        <time>2024-08-14T13:12:47Z</time>
      </trkpt>
      <trkpt lat="44.98635" lon="6.12175">
        <ele>953.4</ele>
        <time>2024-08-14T13:12:48Z</time>
      </trkpt>
      <trkpt lat="44.98637" lon="6.12173">
        <ele>953.4</ele>
        <time>2024-08-14T13:12:49Z</time>
      </trkpt>
      <trkpt lat="44.98637" lon="6.12173">
        <ele>953.2</ele>
        <time>2024-08-14T13:12:50Z</time>
      </trkpt>
      <trkpt lat="44.9864" lon="6.12171">
        <ele>953.2</ele>
        <time>2024-08-14T13:12:51Z</time>
      </trkpt>
      <trkpt lat="44.9864" lon="6.12171">
        <ele>953.2</ele>
        <time>2024-08-14T13:12:52Z</time>
      </trkpt>
      <trkpt lat="44.98642" lon="6.12169">
        <ele>953</ele>
        <time>2024-08-14T13:12:53Z</time>
      </trkpt>
      <trkpt lat="44.98642" lon="6.12169">
        <ele>952.8</ele>
        <time>2024-08-14T13:12:54Z</time>
      </trkpt>
      <trkpt lat="44.98645" lon="6.12167">
        <ele>952.8</ele>
        <time>2024-08-14T13:12:55Z</time>
      </trkpt>
      <trkpt lat="44.98645" lon="6.12167">
        <ele>952.8</ele>
        <time>2024-08-14T13:12:56Z</time>
      </trkpt>
      <trkpt lat="44.98648" lon="6.12165">
        <ele>952.6</ele>
        <time>2024-08-14T13:12:57Z</time>
      </trkpt>
      <trkpt lat="44.98648" lon="6.12165">
        <ele>952.6</ele>
        <time>2024-08-14T13:12:58Z</time>
      </trkpt>
      <trkpt lat="44.98651" lon="6.12163">
        <ele>952.6</ele>
        <time>2024-08-14T13:12:59Z</time>
      </trkpt>
      <trkpt lat="44.98651" lon="6.12163">
        <ele>952.4</ele>
        <time>2024-08-14T13:13:00Z</time>
      </trkpt>
      <trkpt lat="44.98653" lon="6.12162">
        <ele>952.2</ele>
        <time>2024-08-14T13:13:01Z</time>
      </trkpt>
      <trkpt lat="44.98653" lon="6.12162">
        <ele>952.2</ele>
        <time>2024-08-14T13:13:02Z</time>
      </trkpt>
      <trkpt lat="44.98653" lon="6.12162">
        <ele>952.2</ele>
        <time>2024-08-14T13:13:03Z</time>
      </trkpt>
      <trkpt lat="44.98658" lon="6.12159">
        <ele>952.4</ele>
        <time>2024-08-14T13:13:04Z</time>
      </trkpt>
      <trkpt lat="44.98659" lon="6.12158">
        <ele>952.4</ele>
        <time>2024-08-14T13:13:05Z</time>
      </trkpt>
      <trkpt lat="44.98659" lon="6.12158">
        <ele>952.2</ele>
        <time>2024-08-14T13:13:06Z</time>
      </trkpt>
      <trkpt lat="44.98659" lon="6.12158">
        <ele>952.2</ele>
        <time>2024-08-14T13:13:07Z</time>
      </trkpt>
      <trkpt lat="44.98663" lon="6.12155">
        <ele>952</ele>
        <time>2024-08-14T13:13:08Z</time>
      </trkpt>
      <trkpt lat="44.98664" lon="6.12154">
        <ele>952</ele>
        <time>2024-08-14T13:13:09Z</time>
      </trkpt>
      <trkpt lat="44.98664" lon="6.12154">
        <ele>951.8</ele>
        <time>2024-08-14T13:13:10Z</time>
      </trkpt>
      <trkpt lat="44.98667" lon="6.12153">
        <ele>951.8</ele>
        <time>2024-08-14T13:13:11Z</time>
      </trkpt>
      <trkpt lat="44.98667" lon="6.12153">
        <ele>951.8</ele>
        <time>2024-08-14T13:13:12Z</time>
      </trkpt>
      <trkpt lat="44.9867" lon="6.12153">
        <ele>952</ele>
        <time>2024-08-14T13:13:13Z</time>
      </trkpt>
      <trkpt lat="44.9867" lon="6.12153">
        <ele>952</ele>
        <time>2024-08-14T13:13:14Z</time>
      </trkpt>
      <trkpt lat="44.98673" lon="6.12153">
        <ele>952</ele>
        <time>2024-08-14T13:13:15Z</time>
      </trkpt>
      <trkpt lat="44.98673" lon="6.12153">
        <ele>952</ele>
        <time>2024-08-14T13:13:16Z</time>
      </trkpt>
      <trkpt lat="44.98676" lon="6.12152">
        <ele>951.8</ele>
        <time>2024-08-14T13:13:17Z</time>
      </trkpt>
      <trkpt lat="44.98676" lon="6.12152">
        <ele>951.8</ele>
        <time>2024-08-14T13:13:18Z</time>
      </trkpt>
      <trkpt lat="44.98679" lon="6.1215">
        <ele>952</ele>
        <time>2024-08-14T13:13:19Z</time>
      </trkpt>
      <trkpt lat="44.98679" lon="6.1215">
        <ele>952</ele>
        <time>2024-08-14T13:13:20Z</time>
      </trkpt>
      <trkpt lat="44.98681" lon="6.12149">
        <ele>951.8</ele>
        <time>2024-08-14T13:13:21Z</time>
      </trkpt>
      <trkpt lat="44.98681" lon="6.12149">
        <ele>951.8</ele>
        <time>2024-08-14T13:13:22Z</time>
      </trkpt>
      <trkpt lat="44.98684" lon="6.12147">
        <ele>951.8</ele>
        <time>2024-08-14T13:13:23Z</time>
      </trkpt>
      <trkpt lat="44.98684" lon="6.12147">
        <ele>951.6</ele>
        <time>2024-08-14T13:13:24Z</time>
      </trkpt>
      <trkpt lat="44.98686" lon="6.12145">
        <ele>951.4</ele>
        <time>2024-08-14T13:13:25Z</time>
      </trkpt>
      <trkpt lat="44.98686" lon="6.12145">
        <ele>951.4</ele>
        <time>2024-08-14T13:13:26Z</time>
      </trkpt>
      <trkpt lat="44.98688" lon="6.12143">
        <ele>951.4</ele>
        <time>2024-08-14T13:13:27Z</time>
      </trkpt>
      <trkpt lat="44.98688" lon="6.12143">
        <ele>951.4</ele>
        <time>2024-08-14T13:13:28Z</time>
      </trkpt>
      <trkpt lat="44.98691" lon="6.12141">
        <ele>951.4</ele>
        <time>2024-08-14T13:13:29Z</time>
      </trkpt>
      <trkpt lat="44.98691" lon="6.12141">
        <ele>951.2</ele>
        <time>2024-08-14T13:13:30Z</time>
      </trkpt>
      <trkpt lat="44.98693" lon="6.12138">
        <ele>951.2</ele>
        <time>2024-08-14T13:13:31Z</time>
      </trkpt>
      <trkpt lat="44.98693" lon="6.12138">
        <ele>951</ele>
        <time>2024-08-14T13:13:32Z</time>
      </trkpt>
      <trkpt lat="44.98695" lon="6.12135">
        <ele>951</ele>
        <time>2024-08-14T13:13:33Z</time>
      </trkpt>
      <trkpt lat="44.98695" lon="6.12135">
        <ele>951</ele>
        <time>2024-08-14T13:13:34Z</time>
      </trkpt>
      <trkpt lat="44.98697" lon="6.12132">
        <ele>951</ele>
        <time>2024-08-14T13:13:35Z</time>
      </trkpt>
      <trkpt lat="44.98697" lon="6.12132">
        <ele>951</ele>
        <time>2024-08-14T13:13:36Z</time>
      </trkpt>
      <trkpt lat="44.98699" lon="6.12128">
        <ele>951</ele>
        <time>2024-08-14T13:13:37Z</time>
      </trkpt>
      <trkpt lat="44.98699" lon="6.12128">
        <ele>951</ele>
        <time>2024-08-14T13:13:38Z</time>
      </trkpt>
      <trkpt lat="44.98701" lon="6.12125">
        <ele>950.8</ele>
        <time>2024-08-14T13:13:39Z</time>
      </trkpt>
      <trkpt lat="44.98701" lon="6.12125">
        <ele>950.8</ele>
        <time>2024-08-14T13:13:40Z</time>
      </trkpt>
      <trkpt lat="44.98702" lon="6.12122">
        <ele>950.8</ele>
        <time>2024-08-14T13:13:41Z</time>
      </trkpt>
      <trkpt lat="44.98702" lon="6.12122">
        <ele>951</ele>
        <time>2024-08-14T13:13:42Z</time>
      </trkpt>
      <trkpt lat="44.98704" lon="6.12118">
        <ele>951</ele>
        <time>2024-08-14T13:13:43Z</time>
      </trkpt>
      <trkpt lat="44.98704" lon="6.12118">
        <ele>951</ele>
        <time>2024-08-14T13:13:44Z</time>
      </trkpt>
      <trkpt lat="44.98705" lon="6.12115">
        <ele>951</ele>
        <time>2024-08-14T13:13:45Z</time>
      </trkpt>
      <trkpt lat="44.98705" lon="6.12115">
        <ele>951</ele>
        <time>2024-08-14T13:13:46Z</time>
      </trkpt>
      <trkpt lat="44.98706" lon="6.12111">
        <ele>951</ele>
        <time>2024-08-14T13:13:47Z</time>
      </trkpt>
      <trkpt lat="44.98706" lon="6.12111">
        <ele>951</ele>
        <time>2024-08-14T13:13:48Z</time>
      </trkpt>
      <trkpt lat="44.98707" lon="6.12106">
        <ele>950.8</ele>
        <time>2024-08-14T13:13:49Z</time>
      </trkpt>
      <trkpt lat="44.98707" lon="6.12103">
        <ele>950.8</ele>
        <time>2024-08-14T13:13:50Z</time>
      </trkpt>
      <trkpt lat="44.98707" lon="6.12103">
        <ele>950.8</ele>
        <time>2024-08-14T13:13:51Z</time>
      </trkpt>
      <trkpt lat="44.98707" lon="6.12099">
        <ele>951</ele>
        <time>2024-08-14T13:13:52Z</time>
      </trkpt>
      <trkpt lat="44.98707" lon="6.12099">
        <ele>951</ele>
        <time>2024-08-14T13:13:53Z</time>
      </trkpt>
      <trkpt lat="44.98708" lon="6.12094">
        <ele>950.8</ele>
        <time>2024-08-14T13:13:54Z</time>
      </trkpt>
      <trkpt lat="44.98708" lon="6.12094">
        <ele>950.8</ele>
        <time>2024-08-14T13:13:55Z</time>
      </trkpt>
      <trkpt lat="44.98707" lon="6.12091">
        <ele>951</ele>
        <time>2024-08-14T13:13:56Z</time>
      </trkpt>
      <trkpt lat="44.98707" lon="6.12091">
        <ele>951.2</ele>
        <time>2024-08-14T13:13:57Z</time>
      </trkpt>
      <trkpt lat="44.98707" lon="6.12088">
        <ele>951.2</ele>
        <time>2024-08-14T13:13:58Z</time>
      </trkpt>
      <trkpt lat="44.98707" lon="6.12088">
        <ele>951.4</ele>
        <time>2024-08-14T13:13:59Z</time>
      </trkpt>
      <trkpt lat="44.98705" lon="6.12085">
        <ele>951.4</ele>
        <time>2024-08-14T13:14:00Z</time>
      </trkpt>
      <trkpt lat="44.98705" lon="6.12085">
        <ele>951.2</ele>
        <time>2024-08-14T13:14:01Z</time>
      </trkpt>
      <trkpt lat="44.98703" lon="6.12083">
        <ele>951</ele>
        <time>2024-08-14T13:14:02Z</time>
      </trkpt>
      <trkpt lat="44.98703" lon="6.12083">
        <ele>951</ele>
        <time>2024-08-14T13:14:03Z</time>
      </trkpt>
      <trkpt lat="44.987" lon="6.12081">
        <ele>951.2</ele>
        <time>2024-08-14T13:14:04Z</time>
      </trkpt>
      <trkpt lat="44.98699" lon="6.12079">
        <ele>951.2</ele>
        <time>2024-08-14T13:14:05Z</time>
      </trkpt>
      <trkpt lat="44.98699" lon="6.12079">
        <ele>951.2</ele>
        <time>2024-08-14T13:14:06Z</time>
      </trkpt>
      <trkpt lat="44.98697" lon="6.12076">
        <ele>951</ele>
        <time>2024-08-14T13:14:07Z</time>
      </trkpt>
      <trkpt lat="44.98697" lon="6.12076">
        <ele>950.8</ele>
        <time>2024-08-14T13:14:08Z</time>
      </trkpt>
      <trkpt lat="44.98694" lon="6.12074">
        <ele>950.8</ele>
        <time>2024-08-14T13:14:09Z</time>
      </trkpt>
      <trkpt lat="44.98694" lon="6.12074">
        <ele>950.4</ele>
        <time>2024-08-14T13:14:10Z</time>
      </trkpt>
      <trkpt lat="44.98692" lon="6.12072">
        <ele>950.4</ele>
        <time>2024-08-14T13:14:11Z</time>
      </trkpt>
      <trkpt lat="44.98692" lon="6.12072">
        <ele>950.4</ele>
        <time>2024-08-14T13:14:12Z</time>
      </trkpt>
      <trkpt lat="44.98689" lon="6.12069">
        <ele>950.2</ele>
        <time>2024-08-14T13:14:13Z</time>
      </trkpt>
      <trkpt lat="44.98688" lon="6.12068">
        <ele>950</ele>
        <time>2024-08-14T13:14:14Z</time>
      </trkpt>
      <trkpt lat="44.98688" lon="6.12068">
        <ele>949.8</ele>
        <time>2024-08-14T13:14:15Z</time>
      </trkpt>
      <trkpt lat="44.98686" lon="6.12065">
        <ele>949.4</ele>
        <time>2024-08-14T13:14:16Z</time>
      </trkpt>
      <trkpt lat="44.98686" lon="6.12065">
        <ele>949.2</ele>
        <time>2024-08-14T13:14:17Z</time>
      </trkpt>
      <trkpt lat="44.98684" lon="6.12062">
        <ele>949.6</ele>
        <time>2024-08-14T13:14:18Z</time>
      </trkpt>
      <trkpt lat="44.98684" lon="6.12062">
        <ele>949.6</ele>
        <time>2024-08-14T13:14:19Z</time>
      </trkpt>
      <trkpt lat="44.98681" lon="6.1206">
        <ele>949.4</ele>
        <time>2024-08-14T13:14:20Z</time>
      </trkpt>
      <trkpt lat="44.98681" lon="6.1206">
        <ele>949.2</ele>
        <time>2024-08-14T13:14:21Z</time>
      </trkpt>
      <trkpt lat="44.98679" lon="6.12057">
        <ele>949</ele>
        <time>2024-08-14T13:14:22Z</time>
      </trkpt>
      <trkpt lat="44.98679" lon="6.12057">
        <ele>948.8</ele>
        <time>2024-08-14T13:14:23Z</time>
      </trkpt>
      <trkpt lat="44.98677" lon="6.12054">
        <ele>948.2</ele>
        <time>2024-08-14T13:14:24Z</time>
      </trkpt>
      <trkpt lat="44.98677" lon="6.12054">
        <ele>948</ele>
        <time>2024-08-14T13:14:25Z</time>
      </trkpt>
      <trkpt lat="44.98674" lon="6.12051">
        <ele>947.8</ele>
        <time>2024-08-14T13:14:26Z</time>
      </trkpt>
      <trkpt lat="44.98674" lon="6.12051">
        <ele>947.8</ele>
        <time>2024-08-14T13:14:27Z</time>
      </trkpt>
      <trkpt lat="44.98672" lon="6.12049">
        <ele>947.6</ele>
        <time>2024-08-14T13:14:28Z</time>
      </trkpt>
      <trkpt lat="44.98672" lon="6.12049">
        <ele>947.6</ele>
        <time>2024-08-14T13:14:29Z</time>
      </trkpt>
      <trkpt lat="44.98669" lon="6.12047">
        <ele>947.6</ele>
        <time>2024-08-14T13:14:30Z</time>
      </trkpt>
      <trkpt lat="44.98669" lon="6.12047">
        <ele>947.4</ele>
        <time>2024-08-14T13:14:31Z</time>
      </trkpt>
      <trkpt lat="44.98669" lon="6.12047">
        <ele>947.4</ele>
        <time>2024-08-14T13:14:32Z</time>
      </trkpt>
      <trkpt lat="44.98665" lon="6.12044">
        <ele>947.2</ele>
        <time>2024-08-14T13:14:33Z</time>
      </trkpt>
      <trkpt lat="44.98663" lon="6.12043">
        <ele>947</ele>
        <time>2024-08-14T13:14:34Z</time>
      </trkpt>
      <trkpt lat="44.98663" lon="6.12043">
        <ele>947</ele>
        <time>2024-08-14T13:14:35Z</time>
      </trkpt>
      <trkpt lat="44.98661" lon="6.1204">
        <ele>946.8</ele>
        <time>2024-08-14T13:14:36Z</time>
      </trkpt>
      <trkpt lat="44.98661" lon="6.1204">
        <ele>946.8</ele>
        <time>2024-08-14T13:14:37Z</time>
      </trkpt>
      <trkpt lat="44.98658" lon="6.12038">
        <ele>946.8</ele>
        <time>2024-08-14T13:14:38Z</time>
      </trkpt>
      <trkpt lat="44.98658" lon="6.12038">
        <ele>946.8</ele>
        <time>2024-08-14T13:14:39Z</time>
      </trkpt>
      <trkpt lat="44.98656" lon="6.12035">
        <ele>946.8</ele>
        <time>2024-08-14T13:14:40Z</time>
      </trkpt>
      <trkpt lat="44.98656" lon="6.12035">
        <ele>946.6</ele>
        <time>2024-08-14T13:14:41Z</time>
      </trkpt>
      <trkpt lat="44.98654" lon="6.12033">
        <ele>946.4</ele>
        <time>2024-08-14T13:14:42Z</time>
      </trkpt>
      <trkpt lat="44.98654" lon="6.12033">
        <ele>946.4</ele>
        <time>2024-08-14T13:14:43Z</time>
      </trkpt>
      <trkpt lat="44.98652" lon="6.1203">
        <ele>946.4</ele>
        <time>2024-08-14T13:14:44Z</time>
      </trkpt>
      <trkpt lat="44.98652" lon="6.1203">
        <ele>946.4</ele>
        <time>2024-08-14T13:14:45Z</time>
      </trkpt>
      <trkpt lat="44.9865" lon="6.12027">
        <ele>946.2</ele>
        <time>2024-08-14T13:14:46Z</time>
      </trkpt>
      <trkpt lat="44.9865" lon="6.12027">
        <ele>946</ele>
        <time>2024-08-14T13:14:47Z</time>
      </trkpt>
      <trkpt lat="44.98648" lon="6.12023">
        <ele>946</ele>
        <time>2024-08-14T13:14:48Z</time>
      </trkpt>
      <trkpt lat="44.98648" lon="6.12023">
        <ele>946</ele>
        <time>2024-08-14T13:14:49Z</time>
      </trkpt>
      <trkpt lat="44.98648" lon="6.12023">
        <ele>946</ele>
        <time>2024-08-14T13:14:50Z</time>
      </trkpt>
      <trkpt lat="44.98646" lon="6.12018">
        <ele>946.2</ele>
        <time>2024-08-14T13:14:51Z</time>
      </trkpt>
      <trkpt lat="44.98646" lon="6.12016">
        <ele>946.4</ele>
        <time>2024-08-14T13:14:52Z</time>
      </trkpt>
      <trkpt lat="44.98646" lon="6.12016">
        <ele>946.4</ele>
        <time>2024-08-14T13:14:53Z</time>
      </trkpt>
      <trkpt lat="44.98646" lon="6.12016">
        <ele>946.2</ele>
        <time>2024-08-14T13:14:54Z</time>
      </trkpt>
      <trkpt lat="44.98645" lon="6.1201">
        <ele>946</ele>
        <time>2024-08-14T13:14:55Z</time>
      </trkpt>
      <trkpt lat="44.98644" lon="6.12008">
        <ele>946</ele>
        <time>2024-08-14T13:14:56Z</time>
      </trkpt>
      <trkpt lat="44.98644" lon="6.12008">
        <ele>946</ele>
        <time>2024-08-14T13:14:57Z</time>
      </trkpt>
      <trkpt lat="44.98644" lon="6.12004">
        <ele>946</ele>
        <time>2024-08-14T13:14:58Z</time>
      </trkpt>
      <trkpt lat="44.98644" lon="6.12004">
        <ele>945.8</ele>
        <time>2024-08-14T13:14:59Z</time>
      </trkpt>
      <trkpt lat="44.98644" lon="6.12001">
        <ele>945.8</ele>
        <time>2024-08-14T13:15:00Z</time>
      </trkpt>
      <trkpt lat="44.98644" lon="6.12001">
        <ele>945.6</ele>
        <time>2024-08-14T13:15:01Z</time>
      </trkpt>
      <trkpt lat="44.98645" lon="6.11997">
        <ele>945.4</ele>
        <time>2024-08-14T13:15:02Z</time>
      </trkpt>
      <trkpt lat="44.98645" lon="6.11997">
        <ele>945.4</ele>
        <time>2024-08-14T13:15:03Z</time>
      </trkpt>
      <trkpt lat="44.98646" lon="6.11993">
        <ele>945.4</ele>
        <time>2024-08-14T13:15:04Z</time>
      </trkpt>
      <trkpt lat="44.98646" lon="6.11993">
        <ele>945.4</ele>
        <time>2024-08-14T13:15:05Z</time>
      </trkpt>
      <trkpt lat="44.98646" lon="6.11988">
        <ele>945.4</ele>
        <time>2024-08-14T13:15:06Z</time>
      </trkpt>
      <trkpt lat="44.98646" lon="6.11988">
        <ele>945.4</ele>
        <time>2024-08-14T13:15:07Z</time>
      </trkpt>
      <trkpt lat="44.98646" lon="6.11984">
        <ele>945.2</ele>
        <time>2024-08-14T13:15:08Z</time>
      </trkpt>
      <trkpt lat="44.98646" lon="6.11984">
        <ele>945</ele>
        <time>2024-08-14T13:15:09Z</time>
      </trkpt>
      <trkpt lat="44.98646" lon="6.1198">
        <ele>945</ele>
        <time>2024-08-14T13:15:10Z</time>
      </trkpt>
      <trkpt lat="44.98646" lon="6.1198">
        <ele>945</ele>
        <time>2024-08-14T13:15:11Z</time>
      </trkpt>
      <trkpt lat="44.98646" lon="6.11976">
        <ele>945</ele>
        <time>2024-08-14T13:15:12Z</time>
      </trkpt>
      <trkpt lat="44.98646" lon="6.11976">
        <ele>944.6</ele>
        <time>2024-08-14T13:15:13Z</time>
      </trkpt>
      <trkpt lat="44.98645" lon="6.11972">
        <ele>944.6</ele>
        <time>2024-08-14T13:15:14Z</time>
      </trkpt>
      <trkpt lat="44.98645" lon="6.11972">
        <ele>944.2</ele>
        <time>2024-08-14T13:15:15Z</time>
      </trkpt>
      <trkpt lat="44.98644" lon="6.11969">
        <ele>944.2</ele>
        <time>2024-08-14T13:15:16Z</time>
      </trkpt>
      <trkpt lat="44.98644" lon="6.11969">
        <ele>944.2</ele>
        <time>2024-08-14T13:15:17Z</time>
      </trkpt>
      <trkpt lat="44.98642" lon="6.11965">
        <ele>944.2</ele>
        <time>2024-08-14T13:15:18Z</time>
      </trkpt>
      <trkpt lat="44.98642" lon="6.11965">
        <ele>944.2</ele>
        <time>2024-08-14T13:15:19Z</time>
      </trkpt>
      <trkpt lat="44.98641" lon="6.11961">
        <ele>944.2</ele>
        <time>2024-08-14T13:15:20Z</time>
      </trkpt>
      <trkpt lat="44.98641" lon="6.11961">
        <ele>944</ele>
        <time>2024-08-14T13:15:21Z</time>
      </trkpt>
      <trkpt lat="44.9864" lon="6.11958">
        <ele>944</ele>
        <time>2024-08-14T13:15:22Z</time>
      </trkpt>
      <trkpt lat="44.9864" lon="6.11958">
        <ele>943.6</ele>
        <time>2024-08-14T13:15:23Z</time>
      </trkpt>
      <trkpt lat="44.98639" lon="6.11954">
        <ele>943.6</ele>
        <time>2024-08-14T13:15:24Z</time>
      </trkpt>
      <trkpt lat="44.98639" lon="6.11954">
        <ele>943.6</ele>
        <time>2024-08-14T13:15:25Z</time>
      </trkpt>
      <trkpt lat="44.98637" lon="6.11951">
        <ele>944</ele>
        <time>2024-08-14T13:15:26Z</time>
      </trkpt>
      <trkpt lat="44.98637" lon="6.11951">
        <ele>944</ele>
        <time>2024-08-14T13:15:27Z</time>
      </trkpt>
      <trkpt lat="44.98636" lon="6.11947">
        <ele>943.8</ele>
        <time>2024-08-14T13:15:28Z</time>
      </trkpt>
      <trkpt lat="44.98636" lon="6.11947">
        <ele>943.8</ele>
        <time>2024-08-14T13:15:29Z</time>
      </trkpt>
      <trkpt lat="44.98635" lon="6.11943">
        <ele>943.8</ele>
        <time>2024-08-14T13:15:30Z</time>
      </trkpt>
      <trkpt lat="44.98635" lon="6.11943">
        <ele>943.8</ele>
        <time>2024-08-14T13:15:31Z</time>
      </trkpt>
      <trkpt lat="44.98634" lon="6.1194">
        <ele>943.8</ele>
        <time>2024-08-14T13:15:32Z</time>
      </trkpt>
      <trkpt lat="44.98634" lon="6.1194">
        <ele>943.6</ele>
        <time>2024-08-14T13:15:33Z</time>
      </trkpt>
      <trkpt lat="44.98634" lon="6.11936">
        <ele>943.6</ele>
        <time>2024-08-14T13:15:34Z</time>
      </trkpt>
      <trkpt lat="44.98634" lon="6.11936">
        <ele>943.6</ele>
        <time>2024-08-14T13:15:35Z</time>
      </trkpt>
      <trkpt lat="44.98633" lon="6.11932">
        <ele>943.6</ele>
        <time>2024-08-14T13:15:36Z</time>
      </trkpt>
      <trkpt lat="44.98633" lon="6.11932">
        <ele>943.6</ele>
        <time>2024-08-14T13:15:37Z</time>
      </trkpt>
      <trkpt lat="44.98633" lon="6.11928">
        <ele>943.6</ele>
        <time>2024-08-14T13:15:38Z</time>
      </trkpt>
      <trkpt lat="44.98633" lon="6.11928">
        <ele>943.4</ele>
        <time>2024-08-14T13:15:39Z</time>
      </trkpt>
      <trkpt lat="44.98633" lon="6.11924">
        <ele>943.2</ele>
        <time>2024-08-14T13:15:40Z</time>
      </trkpt>
      <trkpt lat="44.98633" lon="6.11924">
        <ele>943</ele>
        <time>2024-08-14T13:15:41Z</time>
      </trkpt>
      <trkpt lat="44.98634" lon="6.1192">
        <ele>942.8</ele>
        <time>2024-08-14T13:15:42Z</time>
      </trkpt>
      <trkpt lat="44.98634" lon="6.1192">
        <ele>942.8</ele>
        <time>2024-08-14T13:15:43Z</time>
      </trkpt>
      <trkpt lat="44.98634" lon="6.11916">
        <ele>942.6</ele>
        <time>2024-08-14T13:15:44Z</time>
      </trkpt>
      <trkpt lat="44.98634" lon="6.11916">
        <ele>942.6</ele>
        <time>2024-08-14T13:15:45Z</time>
      </trkpt>
      <trkpt lat="44.98634" lon="6.11912">
        <ele>942.6</ele>
        <time>2024-08-14T13:15:46Z</time>
      </trkpt>
      <trkpt lat="44.98634" lon="6.11912">
        <ele>942.6</ele>
        <time>2024-08-14T13:15:47Z</time>
      </trkpt>
      <trkpt lat="44.98635" lon="6.11908">
        <ele>942.6</ele>
        <time>2024-08-14T13:15:48Z</time>
      </trkpt>
      <trkpt lat="44.98635" lon="6.11908">
        <ele>942.8</ele>
        <time>2024-08-14T13:15:49Z</time>
      </trkpt>
      <trkpt lat="44.98635" lon="6.11904">
        <ele>942.8</ele>
        <time>2024-08-14T13:15:50Z</time>
      </trkpt>
      <trkpt lat="44.98635" lon="6.11904">
        <ele>942.6</ele>
        <time>2024-08-14T13:15:51Z</time>
      </trkpt>
      <trkpt lat="44.98635" lon="6.119">
        <ele>942.6</ele>
        <time>2024-08-14T13:15:52Z</time>
      </trkpt>
      <trkpt lat="44.98635" lon="6.119">
        <ele>942.4</ele>
        <time>2024-08-14T13:15:53Z</time>
      </trkpt>
      <trkpt lat="44.98635" lon="6.11895">
        <ele>942.4</ele>
        <time>2024-08-14T13:15:54Z</time>
      </trkpt>
      <trkpt lat="44.98635" lon="6.11895">
        <ele>942.2</ele>
        <time>2024-08-14T13:15:55Z</time>
      </trkpt>
      <trkpt lat="44.98636" lon="6.11891">
        <ele>942.2</ele>
        <time>2024-08-14T13:15:56Z</time>
      </trkpt>
      <trkpt lat="44.98636" lon="6.11891">
        <ele>942</ele>
        <time>2024-08-14T13:15:57Z</time>
      </trkpt>
      <trkpt lat="44.98635" lon="6.11887">
        <ele>942</ele>
        <time>2024-08-14T13:15:58Z</time>
      </trkpt>
      <trkpt lat="44.98635" lon="6.11887">
        <ele>942</ele>
        <time>2024-08-14T13:15:59Z</time>
      </trkpt>
      <trkpt lat="44.98635" lon="6.11884">
        <ele>941.8</ele>
        <time>2024-08-14T13:16:00Z</time>
      </trkpt>
      <trkpt lat="44.98635" lon="6.11884">
        <ele>941.8</ele>
        <time>2024-08-14T13:16:01Z</time>
      </trkpt>
      <trkpt lat="44.98634" lon="6.11881">
        <ele>941.8</ele>
        <time>2024-08-14T13:16:02Z</time>
      </trkpt>
      <trkpt lat="44.98634" lon="6.11881">
        <ele>941.8</ele>
        <time>2024-08-14T13:16:03Z</time>
      </trkpt>
      <trkpt lat="44.98632" lon="6.11878">
        <ele>941.8</ele>
        <time>2024-08-14T13:16:04Z</time>
      </trkpt>
      <trkpt lat="44.98632" lon="6.11878">
        <ele>942</ele>
        <time>2024-08-14T13:16:05Z</time>
      </trkpt>
      <trkpt lat="44.9863" lon="6.11875">
        <ele>942</ele>
        <time>2024-08-14T13:16:06Z</time>
      </trkpt>
      <trkpt lat="44.9863" lon="6.11875">
        <ele>941.6</ele>
        <time>2024-08-14T13:16:07Z</time>
      </trkpt>
      <trkpt lat="44.98629" lon="6.11873">
        <ele>941.6</ele>
        <time>2024-08-14T13:16:08Z</time>
      </trkpt>
      <trkpt lat="44.98629" lon="6.11873">
        <ele>941.4</ele>
        <time>2024-08-14T13:16:09Z</time>
      </trkpt>
      <trkpt lat="44.98627" lon="6.1187">
        <ele>941.4</ele>
        <time>2024-08-14T13:16:10Z</time>
      </trkpt>
      <trkpt lat="44.98627" lon="6.1187">
        <ele>941.6</ele>
        <time>2024-08-14T13:16:11Z</time>
      </trkpt>
      <trkpt lat="44.98626" lon="6.11867">
        <ele>941.6</ele>
        <time>2024-08-14T13:16:12Z</time>
      </trkpt>
      <trkpt lat="44.98626" lon="6.11867">
        <ele>941.6</ele>
        <time>2024-08-14T13:16:13Z</time>
      </trkpt>
      <trkpt lat="44.98628" lon="6.11865">
        <ele>941.6</ele>
        <time>2024-08-14T13:16:14Z</time>
      </trkpt>
      <trkpt lat="44.98628" lon="6.11865">
        <ele>941.6</ele>
        <time>2024-08-14T13:16:15Z</time>
      </trkpt>
      <trkpt lat="44.98628" lon="6.11865">
        <ele>941.4</ele>
        <time>2024-08-14T13:16:16Z</time>
      </trkpt>
      <trkpt lat="44.9863" lon="6.11864">
        <ele>941.4</ele>
        <time>2024-08-14T13:16:17Z</time>
      </trkpt>
      <trkpt lat="44.9863" lon="6.11864">
        <ele>941.4</ele>
        <time>2024-08-14T13:16:18Z</time>
      </trkpt>
      <trkpt lat="44.9863" lon="6.11864">
        <ele>941.4</ele>
        <time>2024-08-14T13:16:19Z</time>
      </trkpt>
      <trkpt lat="44.9863" lon="6.11864">
        <ele>941.4</ele>
        <time>2024-08-14T13:16:20Z</time>
      </trkpt>
      <trkpt lat="44.9863" lon="6.11864">
        <ele>941.4</ele>
        <time>2024-08-14T13:16:21Z</time>
      </trkpt>
      <trkpt lat="44.9863" lon="6.11864">
        <ele>941.4</ele>
        <time>2024-08-14T13:16:22Z</time>
      </trkpt>
      <trkpt lat="44.9863" lon="6.11864">
        <ele>941.4</ele>
        <time>2024-08-14T13:16:23Z</time>
      </trkpt>
      <trkpt lat="44.9863" lon="6.11864">
        <ele>941.4</ele>
        <time>2024-08-14T13:16:24Z</time>
      </trkpt>
      <trkpt lat="44.9863" lon="6.11864">
        <ele>941.2</ele>
        <time>2024-08-14T13:16:25Z</time>
      </trkpt>
      <trkpt lat="44.9863" lon="6.11864">
        <ele>941.2</ele>
        <time>2024-08-14T13:16:26Z</time>
      </trkpt>
      <trkpt lat="44.9863" lon="6.11864">
        <ele>941.4</ele>
        <time>2024-08-14T13:16:27Z</time>
      </trkpt>
      <trkpt lat="44.9863" lon="6.11864">
        <ele>941.4</ele>
        <time>2024-08-14T13:16:28Z</time>
      </trkpt>
      <trkpt lat="44.9863" lon="6.11864">
        <ele>941.4</ele>
        <time>2024-08-14T13:16:29Z</time>
      </trkpt>
      <trkpt lat="44.9863" lon="6.11864">
        <ele>941.4</ele>
        <time>2024-08-14T13:16:30Z</time>
      </trkpt>
      <trkpt lat="44.9863" lon="6.11864">
        <ele>941.4</ele>
        <time>2024-08-14T13:16:31Z</time>
      </trkpt>
      <trkpt lat="44.9863" lon="6.11864">
        <ele>941.2</ele>
        <time>2024-08-14T13:16:32Z</time>
      </trkpt>
      <trkpt lat="44.9863" lon="6.11864">
        <ele>941.2</ele>
        <time>2024-08-14T13:16:33Z</time>
      </trkpt>
      <trkpt lat="44.9863" lon="6.11864">
        <ele>941.2</ele>
        <time>2024-08-14T13:16:34Z</time>
      </trkpt>
      <trkpt lat="44.9863" lon="6.11864">
        <ele>941.2</ele>
        <time>2024-08-14T13:16:35Z</time>
      </trkpt>
      <trkpt lat="44.9863" lon="6.11864">
        <ele>941</ele>
        <time>2024-08-14T13:16:36Z</time>
      </trkpt>
      <trkpt lat="44.9863" lon="6.11864">
        <ele>941</ele>
        <time>2024-08-14T13:16:37Z</time>
      </trkpt>
      <trkpt lat="44.9863" lon="6.11864">
        <ele>941</ele>
        <time>2024-08-14T13:16:38Z</time>
      </trkpt>
      <trkpt lat="44.9863" lon="6.11864">
        <ele>941</ele>
        <time>2024-08-14T13:16:39Z</time>
      </trkpt>
      <trkpt lat="44.9863" lon="6.11864">
        <ele>940.8</ele>
        <time>2024-08-14T13:16:40Z</time>
      </trkpt>
      <trkpt lat="44.9863" lon="6.11864">
        <ele>940.8</ele>
        <time>2024-08-14T13:16:41Z</time>
      </trkpt>
      <trkpt lat="44.9863" lon="6.11864">
        <ele>940.8</ele>
        <time>2024-08-14T13:16:42Z</time>
      </trkpt>
      <trkpt lat="44.9863" lon="6.11864">
        <ele>940.6</ele>
        <time>2024-08-14T13:16:43Z</time>
      </trkpt>
      <trkpt lat="44.9863" lon="6.11864">
        <ele>940.6</ele>
        <time>2024-08-14T13:16:44Z</time>
      </trkpt>
      <trkpt lat="44.9863" lon="6.11864">
        <ele>940.4</ele>
        <time>2024-08-14T13:16:45Z</time>
      </trkpt>
      <trkpt lat="44.9863" lon="6.11864">
        <ele>940.4</ele>
        <time>2024-08-14T13:16:46Z</time>
      </trkpt>
      <trkpt lat="44.9863" lon="6.11864">
        <ele>940.4</ele>
        <time>2024-08-14T13:16:47Z</time>
      </trkpt>
      <trkpt lat="44.9863" lon="6.11864">
        <ele>940.6</ele>
        <time>2024-08-14T13:16:48Z</time>
      </trkpt>
      <trkpt lat="44.9863" lon="6.11864">
        <ele>940.6</ele>
        <time>2024-08-14T13:16:49Z</time>
      </trkpt>
      <trkpt lat="44.9863" lon="6.11864">
        <ele>940.6</ele>
        <time>2024-08-14T13:16:50Z</time>
      </trkpt>
      <trkpt lat="44.9863" lon="6.11864">
        <ele>940.6</ele>
        <time>2024-08-14T13:16:51Z</time>
      </trkpt>
      <trkpt lat="44.9863" lon="6.11864">
        <ele>940.4</ele>
        <time>2024-08-14T13:16:52Z</time>
      </trkpt>
      <trkpt lat="44.9863" lon="6.11864">
        <ele>940.4</ele>
        <time>2024-08-14T13:16:53Z</time>
      </trkpt>
      <trkpt lat="44.98632" lon="6.11863">
        <ele>940.4</ele>
        <time>2024-08-14T13:16:54Z</time>
      </trkpt>
      <trkpt lat="44.98632" lon="6.11863">
        <ele>940.4</ele>
        <time>2024-08-14T13:16:55Z</time>
      </trkpt>
      <trkpt lat="44.98633" lon="6.11864">
        <ele>940.4</ele>
        <time>2024-08-14T13:16:56Z</time>
      </trkpt>
      <trkpt lat="44.98633" lon="6.11864">
        <ele>940.6</ele>
        <time>2024-08-14T13:16:57Z</time>
      </trkpt>
      <trkpt lat="44.98633" lon="6.11864">
        <ele>940.8</ele>
        <time>2024-08-14T13:16:58Z</time>
      </trkpt>
      <trkpt lat="44.98633" lon="6.11864">
        <ele>941</ele>
        <time>2024-08-14T13:16:59Z</time>
      </trkpt>
      <trkpt lat="44.98633" lon="6.11864">
        <ele>941</ele>
        <time>2024-08-14T13:17:00Z</time>
      </trkpt>
      <trkpt lat="44.98633" lon="6.11864">
        <ele>941</ele>
        <time>2024-08-14T13:17:01Z</time>
      </trkpt>
      <trkpt lat="44.98633" lon="6.11864">
        <ele>941</ele>
        <time>2024-08-14T13:17:02Z</time>
      </trkpt>
      <trkpt lat="44.98633" lon="6.11864">
        <ele>941</ele>
        <time>2024-08-14T13:17:03Z</time>
      </trkpt>
      <trkpt lat="44.98633" lon="6.11864">
        <ele>940.8</ele>
        <time>2024-08-14T13:17:04Z</time>
      </trkpt>
      <trkpt lat="44.98636" lon="6.11867">
        <ele>940.6</ele>
        <time>2024-08-14T13:17:05Z</time>
      </trkpt>
      <trkpt lat="44.98636" lon="6.11867">
        <ele>940.6</ele>
        <time>2024-08-14T13:17:06Z</time>
      </trkpt>
      <trkpt lat="44.98637" lon="6.11871">
        <ele>940.4</ele>
        <time>2024-08-14T13:17:07Z</time>
      </trkpt>
      <trkpt lat="44.98637" lon="6.11874">
        <ele>940.4</ele>
        <time>2024-08-14T13:17:08Z</time>
      </trkpt>
      <trkpt lat="44.98637" lon="6.11876">
        <ele>940.2</ele>
        <time>2024-08-14T13:17:09Z</time>
      </trkpt>
      <trkpt lat="44.98637" lon="6.11876">
        <ele>940.2</ele>
        <time>2024-08-14T13:17:10Z</time>
      </trkpt>
      <trkpt lat="44.98638" lon="6.11881">
        <ele>940.2</ele>
        <time>2024-08-14T13:17:11Z</time>
      </trkpt>
      <trkpt lat="44.98638" lon="6.11881">
        <ele>940.6</ele>
        <time>2024-08-14T13:17:12Z</time>
      </trkpt>
      <trkpt lat="44.98639" lon="6.11886">
        <ele>940.6</ele>
        <time>2024-08-14T13:17:13Z</time>
      </trkpt>
      <trkpt lat="44.98638" lon="6.11888">
        <ele>940.6</ele>
        <time>2024-08-14T13:17:14Z</time>
      </trkpt>
      <trkpt lat="44.98638" lon="6.11888">
        <ele>940.6</ele>
        <time>2024-08-14T13:17:15Z</time>
      </trkpt>
      <trkpt lat="44.98638" lon="6.11892">
        <ele>940.6</ele>
        <time>2024-08-14T13:17:16Z</time>
      </trkpt>
      <trkpt lat="44.98638" lon="6.11892">
        <ele>940.6</ele>
        <time>2024-08-14T13:17:17Z</time>
      </trkpt>
      <trkpt lat="44.98637" lon="6.11896">
        <ele>940.6</ele>
        <time>2024-08-14T13:17:18Z</time>
      </trkpt>
      <trkpt lat="44.98637" lon="6.11896">
        <ele>940.6</ele>
        <time>2024-08-14T13:17:19Z</time>
      </trkpt>
      <trkpt lat="44.98637" lon="6.119">
        <ele>940.6</ele>
        <time>2024-08-14T13:17:20Z</time>
      </trkpt>
      <trkpt lat="44.98637" lon="6.119">
        <ele>940.4</ele>
        <time>2024-08-14T13:17:21Z</time>
      </trkpt>
      <trkpt lat="44.98637" lon="6.11904">
        <ele>940.6</ele>
        <time>2024-08-14T13:17:22Z</time>
      </trkpt>
      <trkpt lat="44.98637" lon="6.11904">
        <ele>940.8</ele>
        <time>2024-08-14T13:17:23Z</time>
      </trkpt>
      <trkpt lat="44.98637" lon="6.11908">
        <ele>940.8</ele>
        <time>2024-08-14T13:17:24Z</time>
      </trkpt>
      <trkpt lat="44.98637" lon="6.11908">
        <ele>940.8</ele>
        <time>2024-08-14T13:17:25Z</time>
      </trkpt>
      <trkpt lat="44.98636" lon="6.11912">
        <ele>940.8</ele>
        <time>2024-08-14T13:17:26Z</time>
      </trkpt>
      <trkpt lat="44.98636" lon="6.11912">
        <ele>940.8</ele>
        <time>2024-08-14T13:17:27Z</time>
      </trkpt>
      <trkpt lat="44.98634" lon="6.11916">
        <ele>940.8</ele>
        <time>2024-08-14T13:17:28Z</time>
      </trkpt>
      <trkpt lat="44.98634" lon="6.11916">
        <ele>940.8</ele>
        <time>2024-08-14T13:17:29Z</time>
      </trkpt>
      <trkpt lat="44.98634" lon="6.1192">
        <ele>940.8</ele>
        <time>2024-08-14T13:17:30Z</time>
      </trkpt>
      <trkpt lat="44.98634" lon="6.1192">
        <ele>940.8</ele>
        <time>2024-08-14T13:17:31Z</time>
      </trkpt>
      <trkpt lat="44.98634" lon="6.11924">
        <ele>940.6</ele>
        <time>2024-08-14T13:17:32Z</time>
      </trkpt>
      <trkpt lat="44.98634" lon="6.11924">
        <ele>940.6</ele>
        <time>2024-08-14T13:17:33Z</time>
      </trkpt>
      <trkpt lat="44.98634" lon="6.11928">
        <ele>940.6</ele>
        <time>2024-08-14T13:17:34Z</time>
      </trkpt>
      <trkpt lat="44.98634" lon="6.11928">
        <ele>940.8</ele>
        <time>2024-08-14T13:17:35Z</time>
      </trkpt>
      <trkpt lat="44.98634" lon="6.11932">
        <ele>940.8</ele>
        <time>2024-08-14T13:17:36Z</time>
      </trkpt>
      <trkpt lat="44.98634" lon="6.11932">
        <ele>940.8</ele>
        <time>2024-08-14T13:17:37Z</time>
      </trkpt>
      <trkpt lat="44.98635" lon="6.11936">
        <ele>940.8</ele>
        <time>2024-08-14T13:17:38Z</time>
      </trkpt>
      <trkpt lat="44.98635" lon="6.11936">
        <ele>940.8</ele>
        <time>2024-08-14T13:17:39Z</time>
      </trkpt>
      <trkpt lat="44.98636" lon="6.1194">
        <ele>940.8</ele>
        <time>2024-08-14T13:17:40Z</time>
      </trkpt>
      <trkpt lat="44.98636" lon="6.1194">
        <ele>941</ele>
        <time>2024-08-14T13:17:41Z</time>
      </trkpt>
      <trkpt lat="44.98637" lon="6.11944">
        <ele>941.2</ele>
        <time>2024-08-14T13:17:42Z</time>
      </trkpt>
      <trkpt lat="44.98637" lon="6.11944">
        <ele>941.2</ele>
        <time>2024-08-14T13:17:43Z</time>
      </trkpt>
      <trkpt lat="44.98638" lon="6.11947">
        <ele>941</ele>
        <time>2024-08-14T13:17:44Z</time>
      </trkpt>
      <trkpt lat="44.98638" lon="6.11947">
        <ele>941</ele>
        <time>2024-08-14T13:17:45Z</time>
      </trkpt>
      <trkpt lat="44.9864" lon="6.1195">
        <ele>941.2</ele>
        <time>2024-08-14T13:17:46Z</time>
      </trkpt>
      <trkpt lat="44.9864" lon="6.1195">
        <ele>941.2</ele>
        <time>2024-08-14T13:17:47Z</time>
      </trkpt>
      <trkpt lat="44.98641" lon="6.11954">
        <ele>941.6</ele>
        <time>2024-08-14T13:17:48Z</time>
      </trkpt>
      <trkpt lat="44.98641" lon="6.11954">
        <ele>941.6</ele>
        <time>2024-08-14T13:17:49Z</time>
      </trkpt>
      <trkpt lat="44.98643" lon="6.11957">
        <ele>941.6</ele>
        <time>2024-08-14T13:17:50Z</time>
      </trkpt>
      <trkpt lat="44.98643" lon="6.11957">
        <ele>941.8</ele>
        <time>2024-08-14T13:17:51Z</time>
      </trkpt>
      <trkpt lat="44.98644" lon="6.1196">
        <ele>941.8</ele>
        <time>2024-08-14T13:17:52Z</time>
      </trkpt>
      <trkpt lat="44.98644" lon="6.1196">
        <ele>941.8</ele>
        <time>2024-08-14T13:17:53Z</time>
      </trkpt>
      <trkpt lat="44.98645" lon="6.11964">
        <ele>942</ele>
        <time>2024-08-14T13:17:54Z</time>
      </trkpt>
      <trkpt lat="44.98645" lon="6.11964">
        <ele>941.8</ele>
        <time>2024-08-14T13:17:55Z</time>
      </trkpt>
      <trkpt lat="44.98646" lon="6.11968">
        <ele>941.8</ele>
        <time>2024-08-14T13:17:56Z</time>
      </trkpt>
      <trkpt lat="44.98646" lon="6.11968">
        <ele>941.8</ele>
        <time>2024-08-14T13:17:57Z</time>
      </trkpt>
      <trkpt lat="44.98646" lon="6.11972">
        <ele>942</ele>
        <time>2024-08-14T13:17:58Z</time>
      </trkpt>
      <trkpt lat="44.98646" lon="6.11972">
        <ele>942</ele>
        <time>2024-08-14T13:17:59Z</time>
      </trkpt>
      <trkpt lat="44.98646" lon="6.11975">
        <ele>942.2</ele>
        <time>2024-08-14T13:18:00Z</time>
      </trkpt>
      <trkpt lat="44.98646" lon="6.11975">
        <ele>942.2</ele>
        <time>2024-08-14T13:18:01Z</time>
      </trkpt>
      <trkpt lat="44.98646" lon="6.11979">
        <ele>942.2</ele>
        <time>2024-08-14T13:18:02Z</time>
      </trkpt>
      <trkpt lat="44.98646" lon="6.11979">
        <ele>942.2</ele>
        <time>2024-08-14T13:18:03Z</time>
      </trkpt>
      <trkpt lat="44.98647" lon="6.11983">
        <ele>942.4</ele>
        <time>2024-08-14T13:18:04Z</time>
      </trkpt>
      <trkpt lat="44.98647" lon="6.11983">
        <ele>942.4</ele>
        <time>2024-08-14T13:18:05Z</time>
      </trkpt>
      <trkpt lat="44.98648" lon="6.11987">
        <ele>942.6</ele>
        <time>2024-08-14T13:18:06Z</time>
      </trkpt>
      <trkpt lat="44.98648" lon="6.11987">
        <ele>942.6</ele>
        <time>2024-08-14T13:18:07Z</time>
      </trkpt>
      <trkpt lat="44.98647" lon="6.11991">
        <ele>942.8</ele>
        <time>2024-08-14T13:18:08Z</time>
      </trkpt>
      <trkpt lat="44.98647" lon="6.11991">
        <ele>942.8</ele>
        <time>2024-08-14T13:18:09Z</time>
      </trkpt>
      <trkpt lat="44.98646" lon="6.11995">
        <ele>942.8</ele>
        <time>2024-08-14T13:18:10Z</time>
      </trkpt>
      <trkpt lat="44.98646" lon="6.11995">
        <ele>942.8</ele>
        <time>2024-08-14T13:18:11Z</time>
      </trkpt>
      <trkpt lat="44.98646" lon="6.11999">
        <ele>942.8</ele>
        <time>2024-08-14T13:18:12Z</time>
      </trkpt>
      <trkpt lat="44.98646" lon="6.11999">
        <ele>942.8</ele>
        <time>2024-08-14T13:18:13Z</time>
      </trkpt>
      <trkpt lat="44.98647" lon="6.12003">
        <ele>942.8</ele>
        <time>2024-08-14T13:18:14Z</time>
      </trkpt>
      <trkpt lat="44.98647" lon="6.12003">
        <ele>943</ele>
        <time>2024-08-14T13:18:15Z</time>
      </trkpt>
      <trkpt lat="44.98646" lon="6.12007">
        <ele>943</ele>
        <time>2024-08-14T13:18:16Z</time>
      </trkpt>
      <trkpt lat="44.98646" lon="6.12007">
        <ele>943</ele>
        <time>2024-08-14T13:18:17Z</time>
      </trkpt>
      <trkpt lat="44.98646" lon="6.12011">
        <ele>943.2</ele>
        <time>2024-08-14T13:18:18Z</time>
      </trkpt>
      <trkpt lat="44.98646" lon="6.12011">
        <ele>943.4</ele>
        <time>2024-08-14T13:18:19Z</time>
      </trkpt>
      <trkpt lat="44.98646" lon="6.12011">
        <ele>943.4</ele>
        <time>2024-08-14T13:18:20Z</time>
      </trkpt>
      <trkpt lat="44.98646" lon="6.12017">
        <ele>943.4</ele>
        <time>2024-08-14T13:18:21Z</time>
      </trkpt>
      <trkpt lat="44.98646" lon="6.12018">
        <ele>943.4</ele>
        <time>2024-08-14T13:18:22Z</time>
      </trkpt>
      <trkpt lat="44.98646" lon="6.12018">
        <ele>943.2</ele>
        <time>2024-08-14T13:18:23Z</time>
      </trkpt>
      <trkpt lat="44.98648" lon="6.12022">
        <ele>943.4</ele>
        <time>2024-08-14T13:18:24Z</time>
      </trkpt>
      <trkpt lat="44.98648" lon="6.12022">
        <ele>943.4</ele>
        <time>2024-08-14T13:18:25Z</time>
      </trkpt>
      <trkpt lat="44.98649" lon="6.12025">
        <ele>943.4</ele>
        <time>2024-08-14T13:18:26Z</time>
      </trkpt>
      <trkpt lat="44.98649" lon="6.12025">
        <ele>943.2</ele>
        <time>2024-08-14T13:18:27Z</time>
      </trkpt>
      <trkpt lat="44.98651" lon="6.12028">
        <ele>943.2</ele>
        <time>2024-08-14T13:18:28Z</time>
      </trkpt>
      <trkpt lat="44.98651" lon="6.12028">
        <ele>943.4</ele>
        <time>2024-08-14T13:18:29Z</time>
      </trkpt>
      <trkpt lat="44.98653" lon="6.12031">
        <ele>943.4</ele>
        <time>2024-08-14T13:18:30Z</time>
      </trkpt>
      <trkpt lat="44.98653" lon="6.12031">
        <ele>943.4</ele>
        <time>2024-08-14T13:18:31Z</time>
      </trkpt>
      <trkpt lat="44.98656" lon="6.12033">
        <ele>943.4</ele>
        <time>2024-08-14T13:18:32Z</time>
      </trkpt>
      <trkpt lat="44.98656" lon="6.12033">
        <ele>943.4</ele>
        <time>2024-08-14T13:18:33Z</time>
      </trkpt>
      <trkpt lat="44.98658" lon="6.12036">
        <ele>943.4</ele>
        <time>2024-08-14T13:18:34Z</time>
      </trkpt>
      <trkpt lat="44.98658" lon="6.12036">
        <ele>943.4</ele>
        <time>2024-08-14T13:18:35Z</time>
      </trkpt>
      <trkpt lat="44.98661" lon="6.12038">
        <ele>943.4</ele>
        <time>2024-08-14T13:18:36Z</time>
      </trkpt>
      <trkpt lat="44.98661" lon="6.12038">
        <ele>943.4</ele>
        <time>2024-08-14T13:18:37Z</time>
      </trkpt>
      <trkpt lat="44.98663" lon="6.1204">
        <ele>943.4</ele>
        <time>2024-08-14T13:18:38Z</time>
      </trkpt>
      <trkpt lat="44.98663" lon="6.1204">
        <ele>943.4</ele>
        <time>2024-08-14T13:18:39Z</time>
      </trkpt>
      <trkpt lat="44.98666" lon="6.12043">
        <ele>943.4</ele>
        <time>2024-08-14T13:18:40Z</time>
      </trkpt>
      <trkpt lat="44.98666" lon="6.12043">
        <ele>943.4</ele>
        <time>2024-08-14T13:18:41Z</time>
      </trkpt>
      <trkpt lat="44.98668" lon="6.12046">
        <ele>943.6</ele>
        <time>2024-08-14T13:18:42Z</time>
      </trkpt>
      <trkpt lat="44.98668" lon="6.12046">
        <ele>943.6</ele>
        <time>2024-08-14T13:18:43Z</time>
      </trkpt>
      <trkpt lat="44.98671" lon="6.12048">
        <ele>943.6</ele>
        <time>2024-08-14T13:18:44Z</time>
      </trkpt>
      <trkpt lat="44.98671" lon="6.12048">
        <ele>943.6</ele>
        <time>2024-08-14T13:18:45Z</time>
      </trkpt>
      <trkpt lat="44.98673" lon="6.1205">
        <ele>943.6</ele>
        <time>2024-08-14T13:18:46Z</time>
      </trkpt>
      <trkpt lat="44.98673" lon="6.1205">
        <ele>944</ele>
        <time>2024-08-14T13:18:47Z</time>
      </trkpt>
      <trkpt lat="44.98676" lon="6.12052">
        <ele>944</ele>
        <time>2024-08-14T13:18:48Z</time>
      </trkpt>
      <trkpt lat="44.98677" lon="6.12054">
        <ele>943.8</ele>
        <time>2024-08-14T13:18:49Z</time>
      </trkpt>
      <trkpt lat="44.98681" lon="6.12056">
        <ele>943.8</ele>
        <time>2024-08-14T13:18:50Z</time>
      </trkpt>
      <trkpt lat="44.98681" lon="6.12056">
        <ele>943.8</ele>
        <time>2024-08-14T13:18:51Z</time>
      </trkpt>
      <trkpt lat="44.98683" lon="6.12058">
        <ele>944</ele>
        <time>2024-08-14T13:18:52Z</time>
      </trkpt>
      <trkpt lat="44.98683" lon="6.12058">
        <ele>944.2</ele>
        <time>2024-08-14T13:18:53Z</time>
      </trkpt>
      <trkpt lat="44.98685" lon="6.1206">
        <ele>944.4</ele>
        <time>2024-08-14T13:18:54Z</time>
      </trkpt>
      <trkpt lat="44.98685" lon="6.1206">
        <ele>944.4</ele>
        <time>2024-08-14T13:18:55Z</time>
      </trkpt>
      <trkpt lat="44.98687" lon="6.12062">
        <ele>944.4</ele>
        <time>2024-08-14T13:18:56Z</time>
      </trkpt>
      <trkpt lat="44.98687" lon="6.12062">
        <ele>944.6</ele>
        <time>2024-08-14T13:18:57Z</time>
      </trkpt>
      <trkpt lat="44.9869" lon="6.12064">
        <ele>944.8</ele>
        <time>2024-08-14T13:18:58Z</time>
      </trkpt>
      <trkpt lat="44.9869" lon="6.12064">
        <ele>944.8</ele>
        <time>2024-08-14T13:18:59Z</time>
      </trkpt>
      <trkpt lat="44.98691" lon="6.12066">
        <ele>945</ele>
        <time>2024-08-14T13:19:00Z</time>
      </trkpt>
      <trkpt lat="44.98691" lon="6.12066">
        <ele>945.2</ele>
        <time>2024-08-14T13:19:01Z</time>
      </trkpt>
      <trkpt lat="44.98693" lon="6.12068">
        <ele>945.4</ele>
        <time>2024-08-14T13:19:02Z</time>
      </trkpt>
      <trkpt lat="44.98693" lon="6.12068">
        <ele>945.4</ele>
        <time>2024-08-14T13:19:03Z</time>
      </trkpt>
      <trkpt lat="44.98695" lon="6.1207">
        <ele>945.6</ele>
        <time>2024-08-14T13:19:04Z</time>
      </trkpt>
      <trkpt lat="44.98695" lon="6.1207">
        <ele>946</ele>
        <time>2024-08-14T13:19:05Z</time>
      </trkpt>
      <trkpt lat="44.98697" lon="6.12072">
        <ele>946</ele>
        <time>2024-08-14T13:19:06Z</time>
      </trkpt>
      <trkpt lat="44.98697" lon="6.12072">
        <ele>946.2</ele>
        <time>2024-08-14T13:19:07Z</time>
      </trkpt>
      <trkpt lat="44.98699" lon="6.12073">
        <ele>946.2</ele>
        <time>2024-08-14T13:19:08Z</time>
      </trkpt>
      <trkpt lat="44.98699" lon="6.12073">
        <ele>946.2</ele>
        <time>2024-08-14T13:19:09Z</time>
      </trkpt>
      <trkpt lat="44.98701" lon="6.12073">
        <ele>946.6</ele>
        <time>2024-08-14T13:19:10Z</time>
      </trkpt>
      <trkpt lat="44.98701" lon="6.12073">
        <ele>946.6</ele>
        <time>2024-08-14T13:19:11Z</time>
      </trkpt>
      <trkpt lat="44.98704" lon="6.12072">
        <ele>947</ele>
        <time>2024-08-14T13:19:12Z</time>
      </trkpt>
      <trkpt lat="44.98704" lon="6.12072">
        <ele>947</ele>
        <time>2024-08-14T13:19:13Z</time>
      </trkpt>
      <trkpt lat="44.98705" lon="6.12069">
        <ele>947</ele>
        <time>2024-08-14T13:19:14Z</time>
      </trkpt>
      <trkpt lat="44.98705" lon="6.12069">
        <ele>947</ele>
        <time>2024-08-14T13:19:15Z</time>
      </trkpt>
      <trkpt lat="44.98706" lon="6.12065">
        <ele>947</ele>
        <time>2024-08-14T13:19:16Z</time>
      </trkpt>
      <trkpt lat="44.98706" lon="6.12065">
        <ele>947</ele>
        <time>2024-08-14T13:19:17Z</time>
      </trkpt>
      <trkpt lat="44.98707" lon="6.12062">
        <ele>946.8</ele>
        <time>2024-08-14T13:19:18Z</time>
      </trkpt>
      <trkpt lat="44.98707" lon="6.12062">
        <ele>947</ele>
        <time>2024-08-14T13:19:19Z</time>
      </trkpt>
      <trkpt lat="44.98707" lon="6.12058">
        <ele>947.4</ele>
        <time>2024-08-14T13:19:20Z</time>
      </trkpt>
      <trkpt lat="44.98707" lon="6.12058">
        <ele>947.4</ele>
        <time>2024-08-14T13:19:21Z</time>
      </trkpt>
      <trkpt lat="44.98708" lon="6.12054">
        <ele>947.6</ele>
        <time>2024-08-14T13:19:22Z</time>
      </trkpt>
      <trkpt lat="44.98708" lon="6.12054">
        <ele>947.8</ele>
        <time>2024-08-14T13:19:23Z</time>
      </trkpt>
      <trkpt lat="44.98709" lon="6.12051">
        <ele>947.8</ele>
        <time>2024-08-14T13:19:24Z</time>
      </trkpt>
      <trkpt lat="44.98709" lon="6.12051">
        <ele>947.8</ele>
        <time>2024-08-14T13:19:25Z</time>
      </trkpt>
      <trkpt lat="44.98711" lon="6.12047">
        <ele>947.8</ele>
        <time>2024-08-14T13:19:26Z</time>
      </trkpt>
      <trkpt lat="44.98711" lon="6.12047">
        <ele>948</ele>
        <time>2024-08-14T13:19:27Z</time>
      </trkpt>
      <trkpt lat="44.98713" lon="6.12044">
        <ele>948.2</ele>
        <time>2024-08-14T13:19:28Z</time>
      </trkpt>
      <trkpt lat="44.98713" lon="6.12044">
        <ele>948.6</ele>
        <time>2024-08-14T13:19:29Z</time>
      </trkpt>
      <trkpt lat="44.98715" lon="6.12042">
        <ele>948.6</ele>
        <time>2024-08-14T13:19:30Z</time>
      </trkpt>
      <trkpt lat="44.98715" lon="6.12042">
        <ele>948.6</ele>
        <time>2024-08-14T13:19:31Z</time>
      </trkpt>
      <trkpt lat="44.98717" lon="6.1204">
        <ele>948.6</ele>
        <time>2024-08-14T13:19:32Z</time>
      </trkpt>
      <trkpt lat="44.98717" lon="6.1204">
        <ele>948.8</ele>
        <time>2024-08-14T13:19:33Z</time>
      </trkpt>
      <trkpt lat="44.98719" lon="6.12038">
        <ele>948.8</ele>
        <time>2024-08-14T13:19:34Z</time>
      </trkpt>
      <trkpt lat="44.98719" lon="6.12038">
        <ele>948.8</ele>
        <time>2024-08-14T13:19:35Z</time>
      </trkpt>
      <trkpt lat="44.9872" lon="6.12034">
        <ele>948.8</ele>
        <time>2024-08-14T13:19:36Z</time>
      </trkpt>
      <trkpt lat="44.9872" lon="6.12034">
        <ele>949</ele>
        <time>2024-08-14T13:19:37Z</time>
      </trkpt>
      <trkpt lat="44.98721" lon="6.1203">
        <ele>949</ele>
        <time>2024-08-14T13:19:38Z</time>
      </trkpt>
      <trkpt lat="44.98721" lon="6.1203">
        <ele>949</ele>
        <time>2024-08-14T13:19:39Z</time>
      </trkpt>
      <trkpt lat="44.98722" lon="6.12026">
        <ele>949</ele>
        <time>2024-08-14T13:19:40Z</time>
      </trkpt>
      <trkpt lat="44.98722" lon="6.12026">
        <ele>949</ele>
        <time>2024-08-14T13:19:41Z</time>
      </trkpt>
      <trkpt lat="44.98723" lon="6.12022">
        <ele>949.2</ele>
        <time>2024-08-14T13:19:42Z</time>
      </trkpt>
      <trkpt lat="44.98723" lon="6.12022">
        <ele>949.4</ele>
        <time>2024-08-14T13:19:43Z</time>
      </trkpt>
      <trkpt lat="44.98723" lon="6.12018">
        <ele>949.4</ele>
        <time>2024-08-14T13:19:44Z</time>
      </trkpt>
      <trkpt lat="44.98723" lon="6.12018">
        <ele>949.4</ele>
        <time>2024-08-14T13:19:45Z</time>
      </trkpt>
      <trkpt lat="44.98723" lon="6.12015">
        <ele>949.6</ele>
        <time>2024-08-14T13:19:46Z</time>
      </trkpt>
      <trkpt lat="44.98723" lon="6.12015">
        <ele>949.6</ele>
        <time>2024-08-14T13:19:47Z</time>
      </trkpt>
      <trkpt lat="44.98724" lon="6.1201">
        <ele>949.8</ele>
        <time>2024-08-14T13:19:48Z</time>
      </trkpt>
      <trkpt lat="44.98724" lon="6.1201">
        <ele>950</ele>
        <time>2024-08-14T13:19:49Z</time>
      </trkpt>
      <trkpt lat="44.98725" lon="6.12006">
        <ele>950.2</ele>
        <time>2024-08-14T13:19:50Z</time>
      </trkpt>
      <trkpt lat="44.98725" lon="6.12003">
        <ele>950.2</ele>
        <time>2024-08-14T13:19:51Z</time>
      </trkpt>
      <trkpt lat="44.98725" lon="6.12003">
        <ele>950.4</ele>
        <time>2024-08-14T13:19:52Z</time>
      </trkpt>
      <trkpt lat="44.98725" lon="6.11999">
        <ele>950.6</ele>
        <time>2024-08-14T13:19:53Z</time>
      </trkpt>
      <trkpt lat="44.98725" lon="6.11999">
        <ele>950.6</ele>
        <time>2024-08-14T13:19:54Z</time>
      </trkpt>
      <trkpt lat="44.98725" lon="6.11994">
        <ele>950.8</ele>
        <time>2024-08-14T13:19:55Z</time>
      </trkpt>
      <trkpt lat="44.98725" lon="6.11994">
        <ele>950.8</ele>
        <time>2024-08-14T13:19:56Z</time>
      </trkpt>
      <trkpt lat="44.98725" lon="6.1199">
        <ele>951</ele>
        <time>2024-08-14T13:19:57Z</time>
      </trkpt>
      <trkpt lat="44.98725" lon="6.1199">
        <ele>951</ele>
        <time>2024-08-14T13:19:58Z</time>
      </trkpt>
      <trkpt lat="44.98726" lon="6.11986">
        <ele>951</ele>
        <time>2024-08-14T13:19:59Z</time>
      </trkpt>
      <trkpt lat="44.98726" lon="6.11986">
        <ele>951</ele>
        <time>2024-08-14T13:20:00Z</time>
      </trkpt>
      <trkpt lat="44.98726" lon="6.11982">
        <ele>951</ele>
        <time>2024-08-14T13:20:01Z</time>
      </trkpt>
      <trkpt lat="44.98726" lon="6.11982">
        <ele>951.2</ele>
        <time>2024-08-14T13:20:02Z</time>
      </trkpt>
      <trkpt lat="44.98727" lon="6.11977">
        <ele>951.4</ele>
        <time>2024-08-14T13:20:03Z</time>
      </trkpt>
      <trkpt lat="44.98727" lon="6.11977">
        <ele>951.2</ele>
        <time>2024-08-14T13:20:04Z</time>
      </trkpt>
      <trkpt lat="44.98727" lon="6.11974">
        <ele>951.6</ele>
        <time>2024-08-14T13:20:05Z</time>
      </trkpt>
      <trkpt lat="44.98727" lon="6.11974">
        <ele>951.6</ele>
        <time>2024-08-14T13:20:06Z</time>
      </trkpt>
      <trkpt lat="44.98727" lon="6.1197">
        <ele>951.6</ele>
        <time>2024-08-14T13:20:07Z</time>
      </trkpt>
      <trkpt lat="44.98727" lon="6.1197">
        <ele>951.6</ele>
        <time>2024-08-14T13:20:08Z</time>
      </trkpt>
      <trkpt lat="44.98727" lon="6.11966">
        <ele>951.6</ele>
        <time>2024-08-14T13:20:09Z</time>
      </trkpt>
      <trkpt lat="44.98727" lon="6.11966">
        <ele>951.8</ele>
        <time>2024-08-14T13:20:10Z</time>
      </trkpt>
      <trkpt lat="44.98728" lon="6.11962">
        <ele>951.8</ele>
        <time>2024-08-14T13:20:11Z</time>
      </trkpt>
      <trkpt lat="44.98728" lon="6.11962">
        <ele>952</ele>
        <time>2024-08-14T13:20:12Z</time>
      </trkpt>
      <trkpt lat="44.98728" lon="6.11958">
        <ele>952</ele>
        <time>2024-08-14T13:20:13Z</time>
      </trkpt>
      <trkpt lat="44.98728" lon="6.11958">
        <ele>952.4</ele>
        <time>2024-08-14T13:20:14Z</time>
      </trkpt>
      <trkpt lat="44.98729" lon="6.11954">
        <ele>952.6</ele>
        <time>2024-08-14T13:20:15Z</time>
      </trkpt>
      <trkpt lat="44.98729" lon="6.11954">
        <ele>952.6</ele>
        <time>2024-08-14T13:20:16Z</time>
      </trkpt>
      <trkpt lat="44.98729" lon="6.1195">
        <ele>952.6</ele>
        <time>2024-08-14T13:20:17Z</time>
      </trkpt>
      <trkpt lat="44.98729" lon="6.1195">
        <ele>952.6</ele>
        <time>2024-08-14T13:20:18Z</time>
      </trkpt>
      <trkpt lat="44.9873" lon="6.11946">
        <ele>952.6</ele>
        <time>2024-08-14T13:20:19Z</time>
      </trkpt>
      <trkpt lat="44.9873" lon="6.11946">
        <ele>952.6</ele>
        <time>2024-08-14T13:20:20Z</time>
      </trkpt>
      <trkpt lat="44.9873" lon="6.11942">
        <ele>952.6</ele>
        <time>2024-08-14T13:20:21Z</time>
      </trkpt>
      <trkpt lat="44.9873" lon="6.11942">
        <ele>952.6</ele>
        <time>2024-08-14T13:20:22Z</time>
      </trkpt>
      <trkpt lat="44.98731" lon="6.11938">
        <ele>952.8</ele>
        <time>2024-08-14T13:20:23Z</time>
      </trkpt>
      <trkpt lat="44.98731" lon="6.11938">
        <ele>952.8</ele>
        <time>2024-08-14T13:20:24Z</time>
      </trkpt>
      <trkpt lat="44.98731" lon="6.11934">
        <ele>953</ele>
        <time>2024-08-14T13:20:25Z</time>
      </trkpt>
      <trkpt lat="44.98731" lon="6.11934">
        <ele>953.2</ele>
        <time>2024-08-14T13:20:26Z</time>
      </trkpt>
      <trkpt lat="44.98731" lon="6.1193">
        <ele>953.4</ele>
        <time>2024-08-14T13:20:27Z</time>
      </trkpt>
      <trkpt lat="44.98731" lon="6.1193">
        <ele>953.4</ele>
        <time>2024-08-14T13:20:28Z</time>
      </trkpt>
      <trkpt lat="44.98732" lon="6.11927">
        <ele>953.4</ele>
        <time>2024-08-14T13:20:29Z</time>
      </trkpt>
      <trkpt lat="44.98732" lon="6.11927">
        <ele>953.6</ele>
        <time>2024-08-14T13:20:30Z</time>
      </trkpt>
      <trkpt lat="44.98732" lon="6.11923">
        <ele>953.8</ele>
        <time>2024-08-14T13:20:31Z</time>
      </trkpt>
      <trkpt lat="44.98732" lon="6.11923">
        <ele>954</ele>
        <time>2024-08-14T13:20:32Z</time>
      </trkpt>
      <trkpt lat="44.98733" lon="6.11919">
        <ele>954.2</ele>
        <time>2024-08-14T13:20:33Z</time>
      </trkpt>
      <trkpt lat="44.98733" lon="6.11919">
        <ele>954.2</ele>
        <time>2024-08-14T13:20:34Z</time>
      </trkpt>
      <trkpt lat="44.98733" lon="6.11915">
        <ele>954.4</ele>
        <time>2024-08-14T13:20:35Z</time>
      </trkpt>
      <trkpt lat="44.98733" lon="6.11915">
        <ele>954.4</ele>
        <time>2024-08-14T13:20:36Z</time>
      </trkpt>
      <trkpt lat="44.98733" lon="6.11911">
        <ele>954.4</ele>
        <time>2024-08-14T13:20:37Z</time>
      </trkpt>
      <trkpt lat="44.98733" lon="6.11911">
        <ele>954.2</ele>
        <time>2024-08-14T13:20:38Z</time>
      </trkpt>
      <trkpt lat="44.98733" lon="6.11907">
        <ele>954.2</ele>
        <time>2024-08-14T13:20:39Z</time>
      </trkpt>
      <trkpt lat="44.98733" lon="6.11907">
        <ele>954.2</ele>
        <time>2024-08-14T13:20:40Z</time>
      </trkpt>
      <trkpt lat="44.98734" lon="6.11903">
        <ele>954.4</ele>
        <time>2024-08-14T13:20:41Z</time>
      </trkpt>
      <trkpt lat="44.98734" lon="6.11903">
        <ele>954.6</ele>
        <time>2024-08-14T13:20:42Z</time>
      </trkpt>
      <trkpt lat="44.98735" lon="6.119">
        <ele>954.6</ele>
        <time>2024-08-14T13:20:43Z</time>
      </trkpt>
      <trkpt lat="44.98735" lon="6.119">
        <ele>954.8</ele>
        <time>2024-08-14T13:20:44Z</time>
      </trkpt>
      <trkpt lat="44.98735" lon="6.11896">
        <ele>955.2</ele>
        <time>2024-08-14T13:20:45Z</time>
      </trkpt>
      <trkpt lat="44.98735" lon="6.11896">
        <ele>955.6</ele>
        <time>2024-08-14T13:20:46Z</time>
      </trkpt>
      <trkpt lat="44.98736" lon="6.11892">
        <ele>955.6</ele>
        <time>2024-08-14T13:20:47Z</time>
      </trkpt>
      <trkpt lat="44.98736" lon="6.11892">
        <ele>955.6</ele>
        <time>2024-08-14T13:20:48Z</time>
      </trkpt>
      <trkpt lat="44.98736" lon="6.11888">
        <ele>955.8</ele>
        <time>2024-08-14T13:20:49Z</time>
      </trkpt>
      <trkpt lat="44.98736" lon="6.11888">
        <ele>956</ele>
        <time>2024-08-14T13:20:50Z</time>
      </trkpt>
      <trkpt lat="44.98737" lon="6.11884">
        <ele>956.2</ele>
        <time>2024-08-14T13:20:51Z</time>
      </trkpt>
      <trkpt lat="44.98737" lon="6.11884">
        <ele>956.2</ele>
        <time>2024-08-14T13:20:52Z</time>
      </trkpt>
      <trkpt lat="44.98737" lon="6.11881">
        <ele>956.4</ele>
        <time>2024-08-14T13:20:53Z</time>
      </trkpt>
      <trkpt lat="44.98737" lon="6.11881">
        <ele>956.6</ele>
        <time>2024-08-14T13:20:54Z</time>
      </trkpt>
      <trkpt lat="44.98738" lon="6.11877">
        <ele>956.6</ele>
        <time>2024-08-14T13:20:55Z</time>
      </trkpt>
      <trkpt lat="44.98738" lon="6.11877">
        <ele>956.4</ele>
        <time>2024-08-14T13:20:56Z</time>
      </trkpt>
      <trkpt lat="44.98738" lon="6.11873">
        <ele>956.4</ele>
        <time>2024-08-14T13:20:57Z</time>
      </trkpt>
      <trkpt lat="44.98738" lon="6.11873">
        <ele>956.4</ele>
        <time>2024-08-14T13:20:58Z</time>
      </trkpt>
      <trkpt lat="44.98738" lon="6.11869">
        <ele>956.6</ele>
        <time>2024-08-14T13:20:59Z</time>
      </trkpt>
      <trkpt lat="44.98738" lon="6.11869">
        <ele>956.8</ele>
        <time>2024-08-14T13:21:00Z</time>
      </trkpt>
      <trkpt lat="44.98739" lon="6.11865">
        <ele>957</ele>
        <time>2024-08-14T13:21:01Z</time>
      </trkpt>
      <trkpt lat="44.98739" lon="6.11865">
        <ele>957.4</ele>
        <time>2024-08-14T13:21:02Z</time>
      </trkpt>
      <trkpt lat="44.98739" lon="6.11865">
        <ele>957.4</ele>
        <time>2024-08-14T13:21:03Z</time>
      </trkpt>
      <trkpt lat="44.98739" lon="6.11859">
        <ele>957.4</ele>
        <time>2024-08-14T13:21:04Z</time>
      </trkpt>
      <trkpt lat="44.98739" lon="6.11857">
        <ele>957.6</ele>
        <time>2024-08-14T13:21:05Z</time>
      </trkpt>
      <trkpt lat="44.98739" lon="6.11857">
        <ele>957.8</ele>
        <time>2024-08-14T13:21:06Z</time>
      </trkpt>
      <trkpt lat="44.98739" lon="6.11857">
        <ele>957.8</ele>
        <time>2024-08-14T13:21:07Z</time>
      </trkpt>
      <trkpt lat="44.98739" lon="6.11851">
        <ele>957.8</ele>
        <time>2024-08-14T13:21:08Z</time>
      </trkpt>
      <trkpt lat="44.98738" lon="6.11849">
        <ele>958</ele>
        <time>2024-08-14T13:21:09Z</time>
      </trkpt>
      <trkpt lat="44.98738" lon="6.11849">
        <ele>958</ele>
        <time>2024-08-14T13:21:10Z</time>
      </trkpt>
      <trkpt lat="44.98738" lon="6.11845">
        <ele>958</ele>
        <time>2024-08-14T13:21:11Z</time>
      </trkpt>
      <trkpt lat="44.98738" lon="6.11845">
        <ele>958.2</ele>
        <time>2024-08-14T13:21:12Z</time>
      </trkpt>
      <trkpt lat="44.98737" lon="6.11842">
        <ele>958.2</ele>
        <time>2024-08-14T13:21:13Z</time>
      </trkpt>
      <trkpt lat="44.98737" lon="6.11842">
        <ele>958.2</ele>
        <time>2024-08-14T13:21:14Z</time>
      </trkpt>
      <trkpt lat="44.98737" lon="6.11839">
        <ele>958.2</ele>
        <time>2024-08-14T13:21:15Z</time>
      </trkpt>
      <trkpt lat="44.98737" lon="6.11839">
        <ele>958.2</ele>
        <time>2024-08-14T13:21:16Z</time>
      </trkpt>
      <trkpt lat="44.98737" lon="6.11835">
        <ele>958.4</ele>
        <time>2024-08-14T13:21:17Z</time>
      </trkpt>
      <trkpt lat="44.98737" lon="6.11835">
        <ele>958.4</ele>
        <time>2024-08-14T13:21:18Z</time>
      </trkpt>
      <trkpt lat="44.98735" lon="6.11832">
        <ele>958.6</ele>
        <time>2024-08-14T13:21:19Z</time>
      </trkpt>
      <trkpt lat="44.98735" lon="6.11832">
        <ele>958.8</ele>
        <time>2024-08-14T13:21:20Z</time>
      </trkpt>
      <trkpt lat="44.98734" lon="6.11828">
        <ele>958.8</ele>
        <time>2024-08-14T13:21:21Z</time>
      </trkpt>
      <trkpt lat="44.98734" lon="6.11828">
        <ele>958.8</ele>
        <time>2024-08-14T13:21:22Z</time>
      </trkpt>
      <trkpt lat="44.98733" lon="6.11825">
        <ele>959</ele>
        <time>2024-08-14T13:21:23Z</time>
      </trkpt>
      <trkpt lat="44.98732" lon="6.11822">
        <ele>959</ele>
        <time>2024-08-14T13:21:24Z</time>
      </trkpt>
      <trkpt lat="44.98732" lon="6.11822">
        <ele>959</ele>
        <time>2024-08-14T13:21:25Z</time>
      </trkpt>
      <trkpt lat="44.98731" lon="6.11818">
        <ele>959</ele>
        <time>2024-08-14T13:21:26Z</time>
      </trkpt>
      <trkpt lat="44.98731" lon="6.11818">
        <ele>959.2</ele>
        <time>2024-08-14T13:21:27Z</time>
      </trkpt>
      <trkpt lat="44.98731" lon="6.11814">
        <ele>959.4</ele>
        <time>2024-08-14T13:21:28Z</time>
      </trkpt>
      <trkpt lat="44.98731" lon="6.11814">
        <ele>959.4</ele>
        <time>2024-08-14T13:21:29Z</time>
      </trkpt>
      <trkpt lat="44.9873" lon="6.1181">
        <ele>959.4</ele>
        <time>2024-08-14T13:21:30Z</time>
      </trkpt>
      <trkpt lat="44.9873" lon="6.1181">
        <ele>959.8</ele>
        <time>2024-08-14T13:21:31Z</time>
      </trkpt>
      <trkpt lat="44.98729" lon="6.11806">
        <ele>959.8</ele>
        <time>2024-08-14T13:21:32Z</time>
      </trkpt>
      <trkpt lat="44.98729" lon="6.11806">
        <ele>959.8</ele>
        <time>2024-08-14T13:21:33Z</time>
      </trkpt>
      <trkpt lat="44.98728" lon="6.11802">
        <ele>959.8</ele>
        <time>2024-08-14T13:21:34Z</time>
      </trkpt>
      <trkpt lat="44.98728" lon="6.11802">
        <ele>959.8</ele>
        <time>2024-08-14T13:21:35Z</time>
      </trkpt>
      <trkpt lat="44.98728" lon="6.11798">
        <ele>960</ele>
        <time>2024-08-14T13:21:36Z</time>
      </trkpt>
      <trkpt lat="44.98728" lon="6.11798">
        <ele>960.2</ele>
        <time>2024-08-14T13:21:37Z</time>
      </trkpt>
      <trkpt lat="44.98727" lon="6.11794">
        <ele>960.2</ele>
        <time>2024-08-14T13:21:38Z</time>
      </trkpt>
      <trkpt lat="44.98727" lon="6.11794">
        <ele>960.4</ele>
        <time>2024-08-14T13:21:39Z</time>
      </trkpt>
      <trkpt lat="44.98725" lon="6.1179">
        <ele>960.4</ele>
        <time>2024-08-14T13:21:40Z</time>
      </trkpt>
      <trkpt lat="44.98725" lon="6.1179">
        <ele>960.4</ele>
        <time>2024-08-14T13:21:41Z</time>
      </trkpt>
      <trkpt lat="44.98725" lon="6.11786">
        <ele>960.4</ele>
        <time>2024-08-14T13:21:42Z</time>
      </trkpt>
      <trkpt lat="44.98725" lon="6.11786">
        <ele>960.4</ele>
        <time>2024-08-14T13:21:43Z</time>
      </trkpt>
      <trkpt lat="44.98724" lon="6.11783">
        <ele>960.4</ele>
        <time>2024-08-14T13:21:44Z</time>
      </trkpt>
      <trkpt lat="44.98724" lon="6.11783">
        <ele>960.6</ele>
        <time>2024-08-14T13:21:45Z</time>
      </trkpt>
      <trkpt lat="44.98723" lon="6.11778">
        <ele>960.6</ele>
        <time>2024-08-14T13:21:46Z</time>
      </trkpt>
      <trkpt lat="44.98723" lon="6.11778">
        <ele>960.6</ele>
        <time>2024-08-14T13:21:47Z</time>
      </trkpt>
      <trkpt lat="44.98723" lon="6.11774">
        <ele>960.6</ele>
        <time>2024-08-14T13:21:48Z</time>
      </trkpt>
      <trkpt lat="44.98723" lon="6.11774">
        <ele>960.6</ele>
        <time>2024-08-14T13:21:49Z</time>
      </trkpt>
      <trkpt lat="44.98723" lon="6.11774">
        <ele>960.4</ele>
        <time>2024-08-14T13:21:50Z</time>
      </trkpt>
      <trkpt lat="44.98721" lon="6.11769">
        <ele>960.4</ele>
        <time>2024-08-14T13:21:51Z</time>
      </trkpt>
      <trkpt lat="44.9872" lon="6.11767">
        <ele>960.6</ele>
        <time>2024-08-14T13:21:52Z</time>
      </trkpt>
      <trkpt lat="44.9872" lon="6.11767">
        <ele>960.6</ele>
        <time>2024-08-14T13:21:53Z</time>
      </trkpt>
      <trkpt lat="44.98719" lon="6.11763">
        <ele>960.6</ele>
        <time>2024-08-14T13:21:54Z</time>
      </trkpt>
      <trkpt lat="44.98719" lon="6.11763">
        <ele>960.6</ele>
        <time>2024-08-14T13:21:55Z</time>
      </trkpt>
      <trkpt lat="44.98719" lon="6.11759">
        <ele>960.6</ele>
        <time>2024-08-14T13:21:56Z</time>
      </trkpt>
      <trkpt lat="44.98719" lon="6.11759">
        <ele>960.8</ele>
        <time>2024-08-14T13:21:57Z</time>
      </trkpt>
      <trkpt lat="44.98717" lon="6.11754">
        <ele>960.8</ele>
        <time>2024-08-14T13:21:58Z</time>
      </trkpt>
      <trkpt lat="44.98717" lon="6.11754">
        <ele>960.6</ele>
        <time>2024-08-14T13:21:59Z</time>
      </trkpt>
      <trkpt lat="44.98717" lon="6.1175">
        <ele>960.6</ele>
        <time>2024-08-14T13:22:00Z</time>
      </trkpt>
      <trkpt lat="44.98717" lon="6.1175">
        <ele>960.6</ele>
        <time>2024-08-14T13:22:01Z</time>
      </trkpt>
      <trkpt lat="44.98715" lon="6.11747">
        <ele>960.6</ele>
        <time>2024-08-14T13:22:02Z</time>
      </trkpt>
      <trkpt lat="44.98715" lon="6.11747">
        <ele>960.6</ele>
        <time>2024-08-14T13:22:03Z</time>
      </trkpt>
      <trkpt lat="44.98714" lon="6.11742">
        <ele>960.6</ele>
        <time>2024-08-14T13:22:04Z</time>
      </trkpt>
      <trkpt lat="44.98714" lon="6.11742">
        <ele>960.6</ele>
        <time>2024-08-14T13:22:05Z</time>
      </trkpt>
      <trkpt lat="44.98713" lon="6.11738">
        <ele>960.6</ele>
        <time>2024-08-14T13:22:06Z</time>
      </trkpt>
      <trkpt lat="44.98713" lon="6.11738">
        <ele>960.6</ele>
        <time>2024-08-14T13:22:07Z</time>
      </trkpt>
      <trkpt lat="44.98711" lon="6.11734">
        <ele>960.8</ele>
        <time>2024-08-14T13:22:08Z</time>
      </trkpt>
      <trkpt lat="44.98711" lon="6.11734">
        <ele>960.8</ele>
        <time>2024-08-14T13:22:09Z</time>
      </trkpt>
      <trkpt lat="44.9871" lon="6.11731">
        <ele>960.8</ele>
        <time>2024-08-14T13:22:10Z</time>
      </trkpt>
      <trkpt lat="44.9871" lon="6.11731">
        <ele>960.8</ele>
        <time>2024-08-14T13:22:11Z</time>
      </trkpt>
      <trkpt lat="44.98709" lon="6.11727">
        <ele>960.6</ele>
        <time>2024-08-14T13:22:12Z</time>
      </trkpt>
      <trkpt lat="44.98709" lon="6.11727">
        <ele>960.6</ele>
        <time>2024-08-14T13:22:13Z</time>
      </trkpt>
      <trkpt lat="44.98708" lon="6.11723">
        <ele>960.8</ele>
        <time>2024-08-14T13:22:14Z</time>
      </trkpt>
      <trkpt lat="44.98708" lon="6.11723">
        <ele>960.8</ele>
        <time>2024-08-14T13:22:15Z</time>
      </trkpt>
      <trkpt lat="44.98707" lon="6.11719">
        <ele>960.8</ele>
        <time>2024-08-14T13:22:16Z</time>
      </trkpt>
      <trkpt lat="44.98707" lon="6.11719">
        <ele>961</ele>
        <time>2024-08-14T13:22:17Z</time>
      </trkpt>
      <trkpt lat="44.98706" lon="6.11715">
        <ele>961.2</ele>
        <time>2024-08-14T13:22:18Z</time>
      </trkpt>
      <trkpt lat="44.98706" lon="6.11715">
        <ele>961.2</ele>
        <time>2024-08-14T13:22:19Z</time>
      </trkpt>
      <trkpt lat="44.98705" lon="6.11711">
        <ele>961.2</ele>
        <time>2024-08-14T13:22:20Z</time>
      </trkpt>
      <trkpt lat="44.98705" lon="6.11711">
        <ele>961</ele>
        <time>2024-08-14T13:22:21Z</time>
      </trkpt>
      <trkpt lat="44.98704" lon="6.11707">
        <ele>961</ele>
        <time>2024-08-14T13:22:22Z</time>
      </trkpt>
      <trkpt lat="44.98704" lon="6.11707">
        <ele>960.8</ele>
        <time>2024-08-14T13:22:23Z</time>
      </trkpt>
      <trkpt lat="44.98704" lon="6.11702">
        <ele>960.8</ele>
        <time>2024-08-14T13:22:24Z</time>
      </trkpt>
      <trkpt lat="44.98704" lon="6.11702">
        <ele>960.8</ele>
        <time>2024-08-14T13:22:25Z</time>
      </trkpt>
      <trkpt lat="44.98704" lon="6.11698">
        <ele>960.8</ele>
        <time>2024-08-14T13:22:26Z</time>
      </trkpt>
      <trkpt lat="44.98704" lon="6.11698">
        <ele>961</ele>
        <time>2024-08-14T13:22:27Z</time>
      </trkpt>
      <trkpt lat="44.98704" lon="6.11694">
        <ele>961</ele>
        <time>2024-08-14T13:22:28Z</time>
      </trkpt>
      <trkpt lat="44.98704" lon="6.11694">
        <ele>961</ele>
        <time>2024-08-14T13:22:29Z</time>
      </trkpt>
      <trkpt lat="44.98704" lon="6.1169">
        <ele>961</ele>
        <time>2024-08-14T13:22:30Z</time>
      </trkpt>
      <trkpt lat="44.98704" lon="6.1169">
        <ele>961</ele>
        <time>2024-08-14T13:22:31Z</time>
      </trkpt>
      <trkpt lat="44.98704" lon="6.11685">
        <ele>961.2</ele>
        <time>2024-08-14T13:22:32Z</time>
      </trkpt>
      <trkpt lat="44.98704" lon="6.11685">
        <ele>961.2</ele>
        <time>2024-08-14T13:22:33Z</time>
      </trkpt>
      <trkpt lat="44.98705" lon="6.11681">
        <ele>961.2</ele>
        <time>2024-08-14T13:22:34Z</time>
      </trkpt>
      <trkpt lat="44.98705" lon="6.11681">
        <ele>961</ele>
        <time>2024-08-14T13:22:35Z</time>
      </trkpt>
      <trkpt lat="44.98705" lon="6.11677">
        <ele>961</ele>
        <time>2024-08-14T13:22:36Z</time>
      </trkpt>
      <trkpt lat="44.98705" lon="6.11677">
        <ele>961</ele>
        <time>2024-08-14T13:22:37Z</time>
      </trkpt>
      <trkpt lat="44.98706" lon="6.11673">
        <ele>961</ele>
        <time>2024-08-14T13:22:38Z</time>
      </trkpt>
      <trkpt lat="44.98706" lon="6.11673">
        <ele>961</ele>
        <time>2024-08-14T13:22:39Z</time>
      </trkpt>
      <trkpt lat="44.98707" lon="6.11669">
        <ele>960.8</ele>
        <time>2024-08-14T13:22:40Z</time>
      </trkpt>
      <trkpt lat="44.98707" lon="6.11669">
        <ele>960.6</ele>
        <time>2024-08-14T13:22:41Z</time>
      </trkpt>
      <trkpt lat="44.98708" lon="6.11665">
        <ele>960.6</ele>
        <time>2024-08-14T13:22:42Z</time>
      </trkpt>
      <trkpt lat="44.98708" lon="6.11665">
        <ele>960.6</ele>
        <time>2024-08-14T13:22:43Z</time>
      </trkpt>
      <trkpt lat="44.98709" lon="6.11661">
        <ele>960.6</ele>
        <time>2024-08-14T13:22:44Z</time>
      </trkpt>
      <trkpt lat="44.98709" lon="6.11661">
        <ele>960.6</ele>
        <time>2024-08-14T13:22:45Z</time>
      </trkpt>
      <trkpt lat="44.98709" lon="6.11657">
        <ele>960.6</ele>
        <time>2024-08-14T13:22:46Z</time>
      </trkpt>
      <trkpt lat="44.98709" lon="6.11657">
        <ele>960.8</ele>
        <time>2024-08-14T13:22:47Z</time>
      </trkpt>
      <trkpt lat="44.98711" lon="6.11653">
        <ele>961</ele>
        <time>2024-08-14T13:22:48Z</time>
      </trkpt>
      <trkpt lat="44.98711" lon="6.11653">
        <ele>961</ele>
        <time>2024-08-14T13:22:49Z</time>
      </trkpt>
      <trkpt lat="44.98712" lon="6.11649">
        <ele>961</ele>
        <time>2024-08-14T13:22:50Z</time>
      </trkpt>
      <trkpt lat="44.98712" lon="6.11649">
        <ele>961.2</ele>
        <time>2024-08-14T13:22:51Z</time>
      </trkpt>
      <trkpt lat="44.98714" lon="6.11645">
        <ele>962</ele>
        <time>2024-08-14T13:22:52Z</time>
      </trkpt>
      <trkpt lat="44.98714" lon="6.11645">
        <ele>962</ele>
        <time>2024-08-14T13:22:53Z</time>
      </trkpt>
      <trkpt lat="44.98715" lon="6.11642">
        <ele>962.2</ele>
        <time>2024-08-14T13:22:54Z</time>
      </trkpt>
      <trkpt lat="44.98715" lon="6.11642">
        <ele>962.2</ele>
        <time>2024-08-14T13:22:55Z</time>
      </trkpt>
      <trkpt lat="44.98717" lon="6.11638">
        <ele>962.4</ele>
        <time>2024-08-14T13:22:56Z</time>
      </trkpt>
      <trkpt lat="44.98717" lon="6.11638">
        <ele>962.4</ele>
        <time>2024-08-14T13:22:57Z</time>
      </trkpt>
      <trkpt lat="44.98718" lon="6.11635">
        <ele>962.4</ele>
        <time>2024-08-14T13:22:58Z</time>
      </trkpt>
      <trkpt lat="44.98718" lon="6.11635">
        <ele>962.4</ele>
        <time>2024-08-14T13:22:59Z</time>
      </trkpt>
      <trkpt lat="44.9872" lon="6.11632">
        <ele>962.4</ele>
        <time>2024-08-14T13:23:00Z</time>
      </trkpt>
      <trkpt lat="44.9872" lon="6.11632">
        <ele>962.4</ele>
        <time>2024-08-14T13:23:01Z</time>
      </trkpt>
      <trkpt lat="44.98722" lon="6.11629">
        <ele>962.4</ele>
        <time>2024-08-14T13:23:02Z</time>
      </trkpt>
      <trkpt lat="44.98722" lon="6.11629">
        <ele>962.4</ele>
        <time>2024-08-14T13:23:03Z</time>
      </trkpt>
      <trkpt lat="44.98722" lon="6.11629">
        <ele>962.6</ele>
        <time>2024-08-14T13:23:04Z</time>
      </trkpt>
      <trkpt lat="44.98725" lon="6.11625">
        <ele>962.6</ele>
        <time>2024-08-14T13:23:05Z</time>
      </trkpt>
      <trkpt lat="44.98725" lon="6.11626">
        <ele>962.6</ele>
        <time>2024-08-14T13:23:06Z</time>
      </trkpt>
      <trkpt lat="44.98725" lon="6.11626">
        <ele>962.6</ele>
        <time>2024-08-14T13:23:07Z</time>
      </trkpt>
      <trkpt lat="44.98728" lon="6.11627">
        <ele>962.6</ele>
        <time>2024-08-14T13:23:08Z</time>
      </trkpt>
      <trkpt lat="44.98728" lon="6.11627">
        <ele>962.4</ele>
        <time>2024-08-14T13:23:09Z</time>
      </trkpt>
      <trkpt lat="44.98731" lon="6.11628">
        <ele>962.2</ele>
        <time>2024-08-14T13:23:10Z</time>
      </trkpt>
      <trkpt lat="44.98731" lon="6.11628">
        <ele>962.2</ele>
        <time>2024-08-14T13:23:11Z</time>
      </trkpt>
      <trkpt lat="44.98733" lon="6.11629">
        <ele>962.2</ele>
        <time>2024-08-14T13:23:12Z</time>
      </trkpt>
      <trkpt lat="44.98733" lon="6.11629">
        <ele>962.2</ele>
        <time>2024-08-14T13:23:13Z</time>
      </trkpt>
      <trkpt lat="44.98736" lon="6.11628">
        <ele>962.2</ele>
        <time>2024-08-14T13:23:14Z</time>
      </trkpt>
      <trkpt lat="44.98736" lon="6.11628">
        <ele>962.4</ele>
        <time>2024-08-14T13:23:15Z</time>
      </trkpt>
      <trkpt lat="44.98739" lon="6.11627">
        <ele>962.6</ele>
        <time>2024-08-14T13:23:16Z</time>
      </trkpt>
      <trkpt lat="44.98739" lon="6.11627">
        <ele>963</ele>
        <time>2024-08-14T13:23:17Z</time>
      </trkpt>
      <trkpt lat="44.98741" lon="6.11625">
        <ele>963</ele>
        <time>2024-08-14T13:23:18Z</time>
      </trkpt>
      <trkpt lat="44.98741" lon="6.11625">
        <ele>963</ele>
        <time>2024-08-14T13:23:19Z</time>
      </trkpt>
      <trkpt lat="44.98741" lon="6.11625">
        <ele>962.8</ele>
        <time>2024-08-14T13:23:20Z</time>
      </trkpt>
      <trkpt lat="44.98743" lon="6.11625">
        <ele>962.8</ele>
        <time>2024-08-14T13:23:21Z</time>
      </trkpt>
      <trkpt lat="44.98743" lon="6.11625">
        <ele>962.6</ele>
        <time>2024-08-14T13:23:22Z</time>
      </trkpt>
      <trkpt lat="44.98743" lon="6.11625">
        <ele>962.6</ele>
        <time>2024-08-14T13:23:23Z</time>
      </trkpt>
      <trkpt lat="44.98743" lon="6.11625">
        <ele>962.6</ele>
        <time>2024-08-14T13:23:24Z</time>
      </trkpt>
      <trkpt lat="44.98743" lon="6.11625">
        <ele>962.6</ele>
        <time>2024-08-14T13:23:25Z</time>
      </trkpt>
      <trkpt lat="44.98743" lon="6.11625">
        <ele>963.2</ele>
        <time>2024-08-14T13:23:26Z</time>
      </trkpt>
      <trkpt lat="44.98743" lon="6.11625">
        <ele>963.2</ele>
        <time>2024-08-14T13:23:27Z</time>
      </trkpt>
      <trkpt lat="44.98743" lon="6.11625">
        <ele>963.2</ele>
        <time>2024-08-14T13:23:28Z</time>
      </trkpt>
      <trkpt lat="44.98743" lon="6.11625">
        <ele>963.2</ele>
        <time>2024-08-14T13:23:29Z</time>
      </trkpt>
      <trkpt lat="44.98743" lon="6.11625">
        <ele>963</ele>
        <time>2024-08-14T13:23:30Z</time>
      </trkpt>
      <trkpt lat="44.98743" lon="6.11625">
        <ele>963</ele>
        <time>2024-08-14T13:23:31Z</time>
      </trkpt>
      <trkpt lat="44.98743" lon="6.11625">
        <ele>963</ele>
        <time>2024-08-14T13:23:32Z</time>
      </trkpt>
      <trkpt lat="44.98743" lon="6.11625">
        <ele>963</ele>
        <time>2024-08-14T13:23:33Z</time>
      </trkpt>
      <trkpt lat="44.98743" lon="6.11625">
        <ele>963</ele>
        <time>2024-08-14T13:23:34Z</time>
      </trkpt>
      <trkpt lat="44.98743" lon="6.11625">
        <ele>963.4</ele>
        <time>2024-08-14T13:23:35Z</time>
      </trkpt>
      <trkpt lat="44.98743" lon="6.11625">
        <ele>963.4</ele>
        <time>2024-08-14T13:23:36Z</time>
      </trkpt>
      <trkpt lat="44.98743" lon="6.11625">
        <ele>963.4</ele>
        <time>2024-08-14T13:23:37Z</time>
      </trkpt>
      <trkpt lat="44.98743" lon="6.11625">
        <ele>963.2</ele>
        <time>2024-08-14T13:23:38Z</time>
      </trkpt>
      <trkpt lat="44.98743" lon="6.11625">
        <ele>963.2</ele>
        <time>2024-08-14T13:23:39Z</time>
      </trkpt>
      <trkpt lat="44.98743" lon="6.11625">
        <ele>963.2</ele>
        <time>2024-08-14T13:23:40Z</time>
      </trkpt>
      <trkpt lat="44.98743" lon="6.11625">
        <ele>963.2</ele>
        <time>2024-08-14T13:23:41Z</time>
      </trkpt>
      <trkpt lat="44.98743" lon="6.11625">
        <ele>963.2</ele>
        <time>2024-08-14T13:23:42Z</time>
      </trkpt>
      <trkpt lat="44.98743" lon="6.11625">
        <ele>963.2</ele>
        <time>2024-08-14T13:23:43Z</time>
      </trkpt>
      <trkpt lat="44.98743" lon="6.11625">
        <ele>963.2</ele>
        <time>2024-08-14T13:23:44Z</time>
      </trkpt>
      <trkpt lat="44.98743" lon="6.11625">
        <ele>963.2</ele>
        <time>2024-08-14T13:23:45Z</time>
      </trkpt>
      <trkpt lat="44.98743" lon="6.11625">
        <ele>963.2</ele>
        <time>2024-08-14T13:23:46Z</time>
      </trkpt>
      <trkpt lat="44.98743" lon="6.11625">
        <ele>963.2</ele>
        <time>2024-08-14T13:23:47Z</time>
      </trkpt>
      <trkpt lat="44.98743" lon="6.11625">
        <ele>963.2</ele>
        <time>2024-08-14T13:23:48Z</time>
      </trkpt>
      <trkpt lat="44.98743" lon="6.11625">
        <ele>963.2</ele>
        <time>2024-08-14T13:23:49Z</time>
      </trkpt>
      <trkpt lat="44.98743" lon="6.11625">
        <ele>963</ele>
        <time>2024-08-14T13:23:50Z</time>
      </trkpt>
      <trkpt lat="44.98743" lon="6.11625">
        <ele>963</ele>
        <time>2024-08-14T13:23:51Z</time>
      </trkpt>
      <trkpt lat="44.98743" lon="6.11625">
        <ele>962.8</ele>
        <time>2024-08-14T13:23:52Z</time>
      </trkpt>
      <trkpt lat="44.98743" lon="6.11625">
        <ele>962.8</ele>
        <time>2024-08-14T13:23:53Z</time>
      </trkpt>
      <trkpt lat="44.98743" lon="6.11625">
        <ele>962.8</ele>
        <time>2024-08-14T13:23:54Z</time>
      </trkpt>
      <trkpt lat="44.98743" lon="6.11625">
        <ele>962.8</ele>
        <time>2024-08-14T13:23:55Z</time>
      </trkpt>
      <trkpt lat="44.98743" lon="6.11625">
        <ele>962.8</ele>
        <time>2024-08-14T13:23:56Z</time>
      </trkpt>
      <trkpt lat="44.98743" lon="6.11625">
        <ele>962.8</ele>
        <time>2024-08-14T13:23:57Z</time>
      </trkpt>
      <trkpt lat="44.98743" lon="6.11625">
        <ele>962.8</ele>
        <time>2024-08-14T13:23:58Z</time>
      </trkpt>
      <trkpt lat="44.98743" lon="6.11625">
        <ele>962.8</ele>
        <time>2024-08-14T13:23:59Z</time>
      </trkpt>
      <trkpt lat="44.98743" lon="6.11625">
        <ele>962.8</ele>
        <time>2024-08-14T13:24:00Z</time>
      </trkpt>
      <trkpt lat="44.98743" lon="6.11625">
        <ele>962.8</ele>
        <time>2024-08-14T13:24:01Z</time>
      </trkpt>
      <trkpt lat="44.98743" lon="6.11625">
        <ele>962.8</ele>
        <time>2024-08-14T13:24:02Z</time>
      </trkpt>
      <trkpt lat="44.98743" lon="6.11625">
        <ele>962.8</ele>
        <time>2024-08-14T13:24:03Z</time>
      </trkpt>
      <trkpt lat="44.98743" lon="6.11625">
        <ele>962.8</ele>
        <time>2024-08-14T13:24:04Z</time>
      </trkpt>
      <trkpt lat="44.98743" lon="6.11625">
        <ele>962.8</ele>
        <time>2024-08-14T13:24:05Z</time>
      </trkpt>
      <trkpt lat="44.98743" lon="6.11625">
        <ele>962.8</ele>
        <time>2024-08-14T13:24:06Z</time>
      </trkpt>
      <trkpt lat="44.98743" lon="6.11625">
        <ele>962.8</ele>
        <time>2024-08-14T13:24:07Z</time>
      </trkpt>
      <trkpt lat="44.98743" lon="6.11625">
        <ele>962.8</ele>
        <time>2024-08-14T13:24:08Z</time>
      </trkpt>
      <trkpt lat="44.98743" lon="6.11625">
        <ele>962.8</ele>
        <time>2024-08-14T13:24:09Z</time>
      </trkpt>
      <trkpt lat="44.98743" lon="6.11625">
        <ele>962.8</ele>
        <time>2024-08-14T13:24:10Z</time>
      </trkpt>
      <trkpt lat="44.98743" lon="6.11625">
        <ele>962.8</ele>
        <time>2024-08-14T13:24:11Z</time>
      </trkpt>
      <trkpt lat="44.98743" lon="6.11625">
        <ele>962.8</ele>
        <time>2024-08-14T13:24:12Z</time>
      </trkpt>
      <trkpt lat="44.98743" lon="6.11625">
        <ele>963</ele>
        <time>2024-08-14T13:24:13Z</time>
      </trkpt>
      <trkpt lat="44.98743" lon="6.11625">
        <ele>963</ele>
        <time>2024-08-14T13:24:14Z</time>
      </trkpt>
      <trkpt lat="44.98743" lon="6.11625">
        <ele>963</ele>
        <time>2024-08-14T13:24:15Z</time>
      </trkpt>
      <trkpt lat="44.98743" lon="6.11625">
        <ele>962.8</ele>
        <time>2024-08-14T13:24:16Z</time>
      </trkpt>
      <trkpt lat="44.98743" lon="6.11625">
        <ele>962.8</ele>
        <time>2024-08-14T13:24:17Z</time>
      </trkpt>
      <trkpt lat="44.98743" lon="6.11625">
        <ele>962.8</ele>
        <time>2024-08-14T13:24:18Z</time>
      </trkpt>
      <trkpt lat="44.98743" lon="6.11625">
        <ele>962.8</ele>
        <time>2024-08-14T13:24:19Z</time>
      </trkpt>
      <trkpt lat="44.98743" lon="6.11625">
        <ele>962.8</ele>
        <time>2024-08-14T13:24:20Z</time>
      </trkpt>
      <trkpt lat="44.98743" lon="6.11625">
        <ele>962.8</ele>
        <time>2024-08-14T13:24:21Z</time>
      </trkpt>
      <trkpt lat="44.98743" lon="6.11625">
        <ele>962.8</ele>
        <time>2024-08-14T13:24:22Z</time>
      </trkpt>
      <trkpt lat="44.98743" lon="6.11625">
        <ele>962.8</ele>
        <time>2024-08-14T13:24:23Z</time>
      </trkpt>
      <trkpt lat="44.98743" lon="6.11625">
        <ele>962.8</ele>
        <time>2024-08-14T13:24:24Z</time>
      </trkpt>
      <trkpt lat="44.98743" lon="6.11625">
        <ele>962.8</ele>
        <time>2024-08-14T13:24:25Z</time>
      </trkpt>
      <trkpt lat="44.98743" lon="6.11625">
        <ele>962.8</ele>
        <time>2024-08-14T13:24:26Z</time>
      </trkpt>
      <trkpt lat="44.98743" lon="6.11625">
        <ele>962.8</ele>
        <time>2024-08-14T13:24:27Z</time>
      </trkpt>
      <trkpt lat="44.98743" lon="6.11625">
        <ele>962.8</ele>
        <time>2024-08-14T13:24:28Z</time>
      </trkpt>
      <trkpt lat="44.98743" lon="6.11625">
        <ele>962.8</ele>
        <time>2024-08-14T13:24:29Z</time>
      </trkpt>
      <trkpt lat="44.98743" lon="6.11625">
        <ele>962.8</ele>
        <time>2024-08-14T13:24:30Z</time>
      </trkpt>
      <trkpt lat="44.98743" lon="6.11625">
        <ele>962.8</ele>
        <time>2024-08-14T13:24:31Z</time>
      </trkpt>
      <trkpt lat="44.98743" lon="6.11625">
        <ele>962.8</ele>
        <time>2024-08-14T13:24:32Z</time>
      </trkpt>
      <trkpt lat="44.98743" lon="6.11625">
        <ele>962.8</ele>
        <time>2024-08-14T13:24:33Z</time>
      </trkpt>
      <trkpt lat="44.98743" lon="6.11625">
        <ele>962.8</ele>
        <time>2024-08-14T13:24:34Z</time>
      </trkpt>
      <trkpt lat="44.98743" lon="6.11625">
        <ele>962.8</ele>
        <time>2024-08-14T13:24:35Z</time>
      </trkpt>
      <trkpt lat="44.98743" lon="6.11625">
        <ele>962.8</ele>
        <time>2024-08-14T13:24:36Z</time>
      </trkpt>
      <trkpt lat="44.98743" lon="6.11625">
        <ele>962.8</ele>
        <time>2024-08-14T13:24:37Z</time>
      </trkpt>
      <trkpt lat="44.98743" lon="6.11625">
        <ele>962.8</ele>
        <time>2024-08-14T13:24:38Z</time>
      </trkpt>
      <trkpt lat="44.98743" lon="6.11625">
        <ele>962.8</ele>
        <time>2024-08-14T13:24:39Z</time>
      </trkpt>
      <trkpt lat="44.98743" lon="6.11625">
        <ele>962.8</ele>
        <time>2024-08-14T13:24:40Z</time>
      </trkpt>
      <trkpt lat="44.98743" lon="6.11625">
        <ele>962.8</ele>
        <time>2024-08-14T13:24:41Z</time>
      </trkpt>
      <trkpt lat="44.98743" lon="6.11625">
        <ele>962.8</ele>
        <time>2024-08-14T13:24:42Z</time>
      </trkpt>
      <trkpt lat="44.98743" lon="6.11625">
        <ele>962.8</ele>
        <time>2024-08-14T13:24:43Z</time>
      </trkpt>
      <trkpt lat="44.98743" lon="6.11625">
        <ele>962.8</ele>
        <time>2024-08-14T13:24:44Z</time>
      </trkpt>
      <trkpt lat="44.98743" lon="6.11625">
        <ele>962.8</ele>
        <time>2024-08-14T13:24:45Z</time>
      </trkpt>
      <trkpt lat="44.98743" lon="6.11625">
        <ele>963</ele>
        <time>2024-08-14T13:24:46Z</time>
      </trkpt>
      <trkpt lat="44.98743" lon="6.11625">
        <ele>963</ele>
        <time>2024-08-14T13:24:47Z</time>
      </trkpt>
      <trkpt lat="44.98743" lon="6.11625">
        <ele>962.8</ele>
        <time>2024-08-14T13:24:48Z</time>
      </trkpt>
      <trkpt lat="44.98743" lon="6.11625">
        <ele>962.8</ele>
        <time>2024-08-14T13:24:49Z</time>
      </trkpt>
      <trkpt lat="44.98743" lon="6.11625">
        <ele>962.8</ele>
        <time>2024-08-14T13:24:50Z</time>
      </trkpt>
      <trkpt lat="44.98743" lon="6.11625">
        <ele>962.8</ele>
        <time>2024-08-14T13:24:51Z</time>
      </trkpt>
      <trkpt lat="44.98743" lon="6.11625">
        <ele>962.8</ele>
        <time>2024-08-14T13:24:52Z</time>
      </trkpt>
      <trkpt lat="44.98743" lon="6.11625">
        <ele>962.8</ele>
        <time>2024-08-14T13:24:53Z</time>
      </trkpt>
      <trkpt lat="44.98743" lon="6.11625">
        <ele>962.8</ele>
        <time>2024-08-14T13:24:54Z</time>
      </trkpt>
      <trkpt lat="44.98743" lon="6.11625">
        <ele>962.8</ele>
        <time>2024-08-14T13:24:55Z</time>
      </trkpt>
      <trkpt lat="44.98743" lon="6.11625">
        <ele>962.8</ele>
        <time>2024-08-14T13:24:56Z</time>
      </trkpt>
      <trkpt lat="44.98743" lon="6.11625">
        <ele>962.8</ele>
        <time>2024-08-14T13:24:57Z</time>
      </trkpt>
      <trkpt lat="44.98743" lon="6.11625">
        <ele>962.8</ele>
        <time>2024-08-14T13:24:58Z</time>
      </trkpt>
      <trkpt lat="44.98743" lon="6.11625">
        <ele>962.8</ele>
        <time>2024-08-14T13:24:59Z</time>
      </trkpt>
      <trkpt lat="44.98743" lon="6.11625">
        <ele>962.8</ele>
        <time>2024-08-14T13:25:00Z</time>
      </trkpt>
      <trkpt lat="44.98743" lon="6.11625">
        <ele>962.8</ele>
        <time>2024-08-14T13:25:01Z</time>
      </trkpt>
      <trkpt lat="44.98743" lon="6.11625">
        <ele>962.8</ele>
        <time>2024-08-14T13:25:02Z</time>
      </trkpt>
      <trkpt lat="44.98743" lon="6.11625">
        <ele>962.8</ele>
        <time>2024-08-14T13:25:03Z</time>
      </trkpt>
      <trkpt lat="44.98743" lon="6.11625">
        <ele>962.8</ele>
        <time>2024-08-14T13:25:04Z</time>
      </trkpt>
      <trkpt lat="44.98741" lon="6.11624">
        <ele>962.8</ele>
        <time>2024-08-14T13:25:05Z</time>
      </trkpt>
      <trkpt lat="44.98739" lon="6.11621">
        <ele>962.8</ele>
        <time>2024-08-14T13:25:06Z</time>
      </trkpt>
      <trkpt lat="44.98739" lon="6.11621">
        <ele>962.8</ele>
        <time>2024-08-14T13:25:07Z</time>
      </trkpt>
      <trkpt lat="44.98738" lon="6.11618">
        <ele>962.8</ele>
        <time>2024-08-14T13:25:08Z</time>
      </trkpt>
      <trkpt lat="44.98737" lon="6.11616">
        <ele>962.8</ele>
        <time>2024-08-14T13:25:09Z</time>
      </trkpt>
      <trkpt lat="44.98736" lon="6.11613">
        <ele>962.8</ele>
        <time>2024-08-14T13:25:10Z</time>
      </trkpt>
      <trkpt lat="44.98736" lon="6.11613">
        <ele>962.8</ele>
        <time>2024-08-14T13:25:11Z</time>
      </trkpt>
      <trkpt lat="44.98736" lon="6.11613">
        <ele>963</ele>
        <time>2024-08-14T13:25:12Z</time>
      </trkpt>
      <trkpt lat="44.98736" lon="6.11613">
        <ele>963</ele>
        <time>2024-08-14T13:25:13Z</time>
      </trkpt>
      <trkpt lat="44.98738" lon="6.11614">
        <ele>963</ele>
        <time>2024-08-14T13:25:14Z</time>
      </trkpt>
      <trkpt lat="44.98738" lon="6.11614">
        <ele>963</ele>
        <time>2024-08-14T13:25:15Z</time>
      </trkpt>
      <trkpt lat="44.98738" lon="6.11614">
        <ele>962.8</ele>
        <time>2024-08-14T13:25:16Z</time>
      </trkpt>
      <trkpt lat="44.98738" lon="6.11614">
        <ele>962.8</ele>
        <time>2024-08-14T13:25:17Z</time>
      </trkpt>
      <trkpt lat="44.98738" lon="6.11614">
        <ele>962.6</ele>
        <time>2024-08-14T13:25:18Z</time>
      </trkpt>
      <trkpt lat="44.98738" lon="6.11614">
        <ele>962.6</ele>
        <time>2024-08-14T13:25:19Z</time>
      </trkpt>
      <trkpt lat="44.98738" lon="6.11614">
        <ele>962.6</ele>
        <time>2024-08-14T13:25:20Z</time>
      </trkpt>
      <trkpt lat="44.9874" lon="6.11615">
        <ele>962.8</ele>
        <time>2024-08-14T13:25:21Z</time>
      </trkpt>
      <trkpt lat="44.9874" lon="6.11615">
        <ele>962.8</ele>
        <time>2024-08-14T13:25:22Z</time>
      </trkpt>
      <trkpt lat="44.9874" lon="6.11615">
        <ele>962.8</ele>
        <time>2024-08-14T13:25:23Z</time>
      </trkpt>
      <trkpt lat="44.9874" lon="6.11615">
        <ele>962.8</ele>
        <time>2024-08-14T13:25:24Z</time>
      </trkpt>
      <trkpt lat="44.9874" lon="6.11615">
        <ele>962.8</ele>
        <time>2024-08-14T13:25:25Z</time>
      </trkpt>
      <trkpt lat="44.9874" lon="6.11615">
        <ele>962.8</ele>
        <time>2024-08-14T13:25:26Z</time>
      </trkpt>
      <trkpt lat="44.9874" lon="6.11615">
        <ele>962.8</ele>
        <time>2024-08-14T13:25:27Z</time>
      </trkpt>
      <trkpt lat="44.9874" lon="6.11615">
        <ele>962.8</ele>
        <time>2024-08-14T13:25:28Z</time>
      </trkpt>
      <trkpt lat="44.9874" lon="6.11615">
        <ele>962.8</ele>
        <time>2024-08-14T13:25:29Z</time>
      </trkpt>
      <trkpt lat="44.98743" lon="6.11618">
        <ele>962.8</ele>
        <time>2024-08-14T13:25:30Z</time>
      </trkpt>
      <trkpt lat="44.98743" lon="6.11618">
        <ele>962.6</ele>
        <time>2024-08-14T13:25:31Z</time>
      </trkpt>
      <trkpt lat="44.98743" lon="6.11618">
        <ele>962.6</ele>
        <time>2024-08-14T13:25:32Z</time>
      </trkpt>
      <trkpt lat="44.98745" lon="6.11619">
        <ele>962.4</ele>
        <time>2024-08-14T13:25:33Z</time>
      </trkpt>
      <trkpt lat="44.98746" lon="6.11617">
        <ele>962.4</ele>
        <time>2024-08-14T13:25:34Z</time>
      </trkpt>
      <trkpt lat="44.98746" lon="6.11616">
        <ele>962.4</ele>
        <time>2024-08-14T13:25:35Z</time>
      </trkpt>
      <trkpt lat="44.98747" lon="6.11614">
        <ele>962.2</ele>
        <time>2024-08-14T13:25:36Z</time>
      </trkpt>
      <trkpt lat="44.98748" lon="6.11612">
        <ele>962</ele>
        <time>2024-08-14T13:25:37Z</time>
      </trkpt>
      <trkpt lat="44.98749" lon="6.1161">
        <ele>962</ele>
        <time>2024-08-14T13:25:38Z</time>
      </trkpt>
      <trkpt lat="44.9875" lon="6.11609">
        <ele>962</ele>
        <time>2024-08-14T13:25:39Z</time>
      </trkpt>
      <trkpt lat="44.98751" lon="6.11607">
        <ele>962</ele>
        <time>2024-08-14T13:25:40Z</time>
      </trkpt>
      <trkpt lat="44.98752" lon="6.11604">
        <ele>961.8</ele>
        <time>2024-08-14T13:25:41Z</time>
      </trkpt>
      <trkpt lat="44.98752" lon="6.11604">
        <ele>961.8</ele>
        <time>2024-08-14T13:25:42Z</time>
      </trkpt>
      <trkpt lat="44.98753" lon="6.11601">
        <ele>962</ele>
        <time>2024-08-14T13:25:43Z</time>
      </trkpt>
      <trkpt lat="44.98753" lon="6.11601">
        <ele>962.2</ele>
        <time>2024-08-14T13:25:44Z</time>
      </trkpt>
      <trkpt lat="44.98752" lon="6.11594">
        <ele>962</ele>
        <time>2024-08-14T13:25:45Z</time>
      </trkpt>
      <trkpt lat="44.98751" lon="6.11591">
        <ele>962</ele>
        <time>2024-08-14T13:25:46Z</time>
      </trkpt>
      <trkpt lat="44.98751" lon="6.11591">
        <ele>962</ele>
        <time>2024-08-14T13:25:47Z</time>
      </trkpt>
      <trkpt lat="44.98751" lon="6.11591">
        <ele>962</ele>
        <time>2024-08-14T13:25:48Z</time>
      </trkpt>
      <trkpt lat="44.98751" lon="6.11584">
        <ele>961.8</ele>
        <time>2024-08-14T13:25:49Z</time>
      </trkpt>
      <trkpt lat="44.98751" lon="6.11582">
        <ele>961.8</ele>
        <time>2024-08-14T13:25:50Z</time>
      </trkpt>
      <trkpt lat="44.98751" lon="6.11582">
        <ele>961.6</ele>
        <time>2024-08-14T13:25:51Z</time>
      </trkpt>
      <trkpt lat="44.98751" lon="6.11577">
        <ele>961.4</ele>
        <time>2024-08-14T13:25:52Z</time>
      </trkpt>
      <trkpt lat="44.98751" lon="6.11577">
        <ele>961.4</ele>
        <time>2024-08-14T13:25:53Z</time>
      </trkpt>
      <trkpt lat="44.98751" lon="6.11577">
        <ele>961.4</ele>
        <time>2024-08-14T13:25:54Z</time>
      </trkpt>
      <trkpt lat="44.98751" lon="6.11577">
        <ele>961.4</ele>
        <time>2024-08-14T13:25:55Z</time>
      </trkpt>
      <trkpt lat="44.98752" lon="6.11579">
        <ele>961.4</ele>
        <time>2024-08-14T13:25:56Z</time>
      </trkpt>
      <trkpt lat="44.98752" lon="6.11579">
        <ele>961.4</ele>
        <time>2024-08-14T13:25:57Z</time>
      </trkpt>
      <trkpt lat="44.98752" lon="6.11579">
        <ele>961.4</ele>
        <time>2024-08-14T13:25:58Z</time>
      </trkpt>
      <trkpt lat="44.98752" lon="6.11579">
        <ele>961.4</ele>
        <time>2024-08-14T13:25:59Z</time>
      </trkpt>
      <trkpt lat="44.98752" lon="6.11579">
        <ele>961.6</ele>
        <time>2024-08-14T13:26:00Z</time>
      </trkpt>
      <trkpt lat="44.98753" lon="6.11576">
        <ele>961.6</ele>
        <time>2024-08-14T13:26:01Z</time>
      </trkpt>
      <trkpt lat="44.98753" lon="6.11576">
        <ele>961.4</ele>
        <time>2024-08-14T13:26:02Z</time>
      </trkpt>
      <trkpt lat="44.98753" lon="6.11576">
        <ele>961.4</ele>
        <time>2024-08-14T13:26:03Z</time>
      </trkpt>
      <trkpt lat="44.98754" lon="6.11569">
        <ele>961.4</ele>
        <time>2024-08-14T13:26:04Z</time>
      </trkpt>
      <trkpt lat="44.98755" lon="6.11567">
        <ele>961.6</ele>
        <time>2024-08-14T13:26:05Z</time>
      </trkpt>
      <trkpt lat="44.98755" lon="6.11567">
        <ele>961.6</ele>
        <time>2024-08-14T13:26:06Z</time>
      </trkpt>
      <trkpt lat="44.98755" lon="6.11563">
        <ele>961.6</ele>
        <time>2024-08-14T13:26:07Z</time>
      </trkpt>
      <trkpt lat="44.98755" lon="6.11563">
        <ele>961.8</ele>
        <time>2024-08-14T13:26:08Z</time>
      </trkpt>
      <trkpt lat="44.98756" lon="6.11559">
        <ele>961.8</ele>
        <time>2024-08-14T13:26:09Z</time>
      </trkpt>
      <trkpt lat="44.98756" lon="6.11559">
        <ele>962</ele>
        <time>2024-08-14T13:26:10Z</time>
      </trkpt>
      <trkpt lat="44.98755" lon="6.11555">
        <ele>962</ele>
        <time>2024-08-14T13:26:11Z</time>
      </trkpt>
      <trkpt lat="44.98755" lon="6.11555">
        <ele>962</ele>
        <time>2024-08-14T13:26:12Z</time>
      </trkpt>
      <trkpt lat="44.98754" lon="6.11551">
        <ele>961.8</ele>
        <time>2024-08-14T13:26:13Z</time>
      </trkpt>
      <trkpt lat="44.98754" lon="6.11551">
        <ele>961.8</ele>
        <time>2024-08-14T13:26:14Z</time>
      </trkpt>
      <trkpt lat="44.98754" lon="6.11551">
        <ele>961.8</ele>
        <time>2024-08-14T13:26:15Z</time>
      </trkpt>
      <trkpt lat="44.98753" lon="6.11545">
        <ele>962</ele>
        <time>2024-08-14T13:26:16Z</time>
      </trkpt>
      <trkpt lat="44.98753" lon="6.11542">
        <ele>962</ele>
        <time>2024-08-14T13:26:17Z</time>
      </trkpt>
      <trkpt lat="44.98753" lon="6.11542">
        <ele>961.8</ele>
        <time>2024-08-14T13:26:18Z</time>
      </trkpt>
      <trkpt lat="44.98753" lon="6.11538">
        <ele>961.8</ele>
        <time>2024-08-14T13:26:19Z</time>
      </trkpt>
      <trkpt lat="44.98753" lon="6.11538">
        <ele>961.8</ele>
        <time>2024-08-14T13:26:20Z</time>
      </trkpt>
      <trkpt lat="44.98751" lon="6.11534">
        <ele>962.2</ele>
        <time>2024-08-14T13:26:21Z</time>
      </trkpt>
      <trkpt lat="44.98751" lon="6.11534">
        <ele>962.2</ele>
        <time>2024-08-14T13:26:22Z</time>
      </trkpt>
      <trkpt lat="44.98749" lon="6.11531">
        <ele>962.2</ele>
        <time>2024-08-14T13:26:23Z</time>
      </trkpt>
      <trkpt lat="44.98749" lon="6.11531">
        <ele>962.2</ele>
        <time>2024-08-14T13:26:24Z</time>
      </trkpt>
      <trkpt lat="44.98748" lon="6.11527">
        <ele>962.2</ele>
        <time>2024-08-14T13:26:25Z</time>
      </trkpt>
      <trkpt lat="44.98748" lon="6.11527">
        <ele>962.2</ele>
        <time>2024-08-14T13:26:26Z</time>
      </trkpt>
      <trkpt lat="44.98747" lon="6.11523">
        <ele>962.2</ele>
        <time>2024-08-14T13:26:27Z</time>
      </trkpt>
      <trkpt lat="44.98747" lon="6.11523">
        <ele>962.2</ele>
        <time>2024-08-14T13:26:28Z</time>
      </trkpt>
      <trkpt lat="44.98747" lon="6.11523">
        <ele>962.2</ele>
        <time>2024-08-14T13:26:29Z</time>
      </trkpt>
      <trkpt lat="44.98747" lon="6.11517">
        <ele>962.2</ele>
        <time>2024-08-14T13:26:30Z</time>
      </trkpt>
      <trkpt lat="44.98747" lon="6.11515">
        <ele>962.4</ele>
        <time>2024-08-14T13:26:31Z</time>
      </trkpt>
      <trkpt lat="44.98747" lon="6.11515">
        <ele>962.4</ele>
        <time>2024-08-14T13:26:32Z</time>
      </trkpt>
      <trkpt lat="44.98747" lon="6.11511">
        <ele>962.6</ele>
        <time>2024-08-14T13:26:33Z</time>
      </trkpt>
      <trkpt lat="44.98747" lon="6.11511">
        <ele>962.6</ele>
        <time>2024-08-14T13:26:34Z</time>
      </trkpt>
      <trkpt lat="44.98747" lon="6.11507">
        <ele>962.6</ele>
        <time>2024-08-14T13:26:35Z</time>
      </trkpt>
      <trkpt lat="44.98747" lon="6.11507">
        <ele>962.6</ele>
        <time>2024-08-14T13:26:36Z</time>
      </trkpt>
      <trkpt lat="44.98748" lon="6.11503">
        <ele>962.6</ele>
        <time>2024-08-14T13:26:37Z</time>
      </trkpt>
      <trkpt lat="44.98748" lon="6.11503">
        <ele>962.8</ele>
        <time>2024-08-14T13:26:38Z</time>
      </trkpt>
      <trkpt lat="44.98749" lon="6.11498">
        <ele>962.8</ele>
        <time>2024-08-14T13:26:39Z</time>
      </trkpt>
      <trkpt lat="44.98749" lon="6.11498">
        <ele>962.8</ele>
        <time>2024-08-14T13:26:40Z</time>
      </trkpt>
      <trkpt lat="44.98749" lon="6.11494">
        <ele>962.6</ele>
        <time>2024-08-14T13:26:41Z</time>
      </trkpt>
      <trkpt lat="44.98749" lon="6.11494">
        <ele>962.6</ele>
        <time>2024-08-14T13:26:42Z</time>
      </trkpt>
      <trkpt lat="44.98749" lon="6.1149">
        <ele>962.6</ele>
        <time>2024-08-14T13:26:43Z</time>
      </trkpt>
      <trkpt lat="44.98749" lon="6.1149">
        <ele>962.6</ele>
        <time>2024-08-14T13:26:44Z</time>
      </trkpt>
      <trkpt lat="44.98748" lon="6.11486">
        <ele>963</ele>
        <time>2024-08-14T13:26:45Z</time>
      </trkpt>
      <trkpt lat="44.98748" lon="6.11486">
        <ele>963</ele>
        <time>2024-08-14T13:26:46Z</time>
      </trkpt>
      <trkpt lat="44.98748" lon="6.11482">
        <ele>962.8</ele>
        <time>2024-08-14T13:26:47Z</time>
      </trkpt>
      <trkpt lat="44.98748" lon="6.11482">
        <ele>962.8</ele>
        <time>2024-08-14T13:26:48Z</time>
      </trkpt>
      <trkpt lat="44.98749" lon="6.11479">
        <ele>963</ele>
        <time>2024-08-14T13:26:49Z</time>
      </trkpt>
      <trkpt lat="44.98749" lon="6.11479">
        <ele>963</ele>
        <time>2024-08-14T13:26:50Z</time>
      </trkpt>
      <trkpt lat="44.98749" lon="6.11475">
        <ele>963</ele>
        <time>2024-08-14T13:26:51Z</time>
      </trkpt>
      <trkpt lat="44.98749" lon="6.11475">
        <ele>963.2</ele>
        <time>2024-08-14T13:26:52Z</time>
      </trkpt>
      <trkpt lat="44.9875" lon="6.11471">
        <ele>963.2</ele>
        <time>2024-08-14T13:26:53Z</time>
      </trkpt>
      <trkpt lat="44.9875" lon="6.11471">
        <ele>963</ele>
        <time>2024-08-14T13:26:54Z</time>
      </trkpt>
      <trkpt lat="44.98749" lon="6.11467">
        <ele>963</ele>
        <time>2024-08-14T13:26:55Z</time>
      </trkpt>
      <trkpt lat="44.98749" lon="6.11467">
        <ele>962.8</ele>
        <time>2024-08-14T13:26:56Z</time>
      </trkpt>
      <trkpt lat="44.98749" lon="6.11464">
        <ele>962.8</ele>
        <time>2024-08-14T13:26:57Z</time>
      </trkpt>
      <trkpt lat="44.98749" lon="6.11464">
        <ele>962.8</ele>
        <time>2024-08-14T13:26:58Z</time>
      </trkpt>
      <trkpt lat="44.9875" lon="6.11459">
        <ele>962.8</ele>
        <time>2024-08-14T13:26:59Z</time>
      </trkpt>
      <trkpt lat="44.9875" lon="6.11459">
        <ele>962.6</ele>
        <time>2024-08-14T13:27:00Z</time>
      </trkpt>
      <trkpt lat="44.98751" lon="6.11456">
        <ele>962.6</ele>
        <time>2024-08-14T13:27:01Z</time>
      </trkpt>
      <trkpt lat="44.98751" lon="6.11456">
        <ele>962.8</ele>
        <time>2024-08-14T13:27:02Z</time>
      </trkpt>
      <trkpt lat="44.98753" lon="6.11452">
        <ele>962.8</ele>
        <time>2024-08-14T13:27:03Z</time>
      </trkpt>
      <trkpt lat="44.98753" lon="6.11452">
        <ele>962.8</ele>
        <time>2024-08-14T13:27:04Z</time>
      </trkpt>
      <trkpt lat="44.98754" lon="6.11448">
        <ele>962.8</ele>
        <time>2024-08-14T13:27:05Z</time>
      </trkpt>
      <trkpt lat="44.98754" lon="6.11448">
        <ele>963</ele>
        <time>2024-08-14T13:27:06Z</time>
      </trkpt>
      <trkpt lat="44.98755" lon="6.11444">
        <ele>963</ele>
        <time>2024-08-14T13:27:07Z</time>
      </trkpt>
      <trkpt lat="44.98755" lon="6.11444">
        <ele>963</ele>
        <time>2024-08-14T13:27:08Z</time>
      </trkpt>
      <trkpt lat="44.98756" lon="6.1144">
        <ele>962.8</ele>
        <time>2024-08-14T13:27:09Z</time>
      </trkpt>
      <trkpt lat="44.98756" lon="6.1144">
        <ele>962.8</ele>
        <time>2024-08-14T13:27:10Z</time>
      </trkpt>
      <trkpt lat="44.98757" lon="6.11437">
        <ele>962.8</ele>
        <time>2024-08-14T13:27:11Z</time>
      </trkpt>
      <trkpt lat="44.98757" lon="6.11437">
        <ele>962.8</ele>
        <time>2024-08-14T13:27:12Z</time>
      </trkpt>
      <trkpt lat="44.98758" lon="6.11434">
        <ele>962.8</ele>
        <time>2024-08-14T13:27:13Z</time>
      </trkpt>
      <trkpt lat="44.98758" lon="6.11434">
        <ele>963</ele>
        <time>2024-08-14T13:27:14Z</time>
      </trkpt>
      <trkpt lat="44.98759" lon="6.1143">
        <ele>963</ele>
        <time>2024-08-14T13:27:15Z</time>
      </trkpt>
      <trkpt lat="44.98759" lon="6.1143">
        <ele>963</ele>
        <time>2024-08-14T13:27:16Z</time>
      </trkpt>
      <trkpt lat="44.98761" lon="6.11427">
        <ele>963.2</ele>
        <time>2024-08-14T13:27:17Z</time>
      </trkpt>
      <trkpt lat="44.98761" lon="6.11427">
        <ele>963.2</ele>
        <time>2024-08-14T13:27:18Z</time>
      </trkpt>
      <trkpt lat="44.98762" lon="6.11424">
        <ele>963.2</ele>
        <time>2024-08-14T13:27:19Z</time>
      </trkpt>
      <trkpt lat="44.98762" lon="6.11424">
        <ele>963.2</ele>
        <time>2024-08-14T13:27:20Z</time>
      </trkpt>
      <trkpt lat="44.98763" lon="6.11421">
        <ele>963.2</ele>
        <time>2024-08-14T13:27:21Z</time>
      </trkpt>
      <trkpt lat="44.98763" lon="6.11421">
        <ele>963.2</ele>
        <time>2024-08-14T13:27:22Z</time>
      </trkpt>
      <trkpt lat="44.98765" lon="6.11417">
        <ele>963.2</ele>
        <time>2024-08-14T13:27:23Z</time>
      </trkpt>
      <trkpt lat="44.98765" lon="6.11417">
        <ele>963.2</ele>
        <time>2024-08-14T13:27:24Z</time>
      </trkpt>
      <trkpt lat="44.98765" lon="6.11413">
        <ele>963.4</ele>
        <time>2024-08-14T13:27:25Z</time>
      </trkpt>
      <trkpt lat="44.98765" lon="6.11413">
        <ele>963.4</ele>
        <time>2024-08-14T13:27:26Z</time>
      </trkpt>
      <trkpt lat="44.98767" lon="6.1141">
        <ele>963.2</ele>
        <time>2024-08-14T13:27:27Z</time>
      </trkpt>
      <trkpt lat="44.98767" lon="6.1141">
        <ele>963.2</ele>
        <time>2024-08-14T13:27:28Z</time>
      </trkpt>
      <trkpt lat="44.98769" lon="6.11406">
        <ele>963.4</ele>
        <time>2024-08-14T13:27:29Z</time>
      </trkpt>
      <trkpt lat="44.98769" lon="6.11406">
        <ele>963.4</ele>
        <time>2024-08-14T13:27:30Z</time>
      </trkpt>
      <trkpt lat="44.98769" lon="6.11406">
        <ele>963.4</ele>
        <time>2024-08-14T13:27:31Z</time>
      </trkpt>
      <trkpt lat="44.98769" lon="6.11406">
        <ele>963.4</ele>
        <time>2024-08-14T13:27:32Z</time>
      </trkpt>
      <trkpt lat="44.98769" lon="6.11406">
        <ele>963.6</ele>
        <time>2024-08-14T13:27:33Z</time>
      </trkpt>
      <trkpt lat="44.98769" lon="6.11406">
        <ele>963.6</ele>
        <time>2024-08-14T13:27:34Z</time>
      </trkpt>
      <trkpt lat="44.98769" lon="6.11406">
        <ele>963.4</ele>
        <time>2024-08-14T13:27:35Z</time>
      </trkpt>
      <trkpt lat="44.98769" lon="6.11406">
        <ele>963.4</ele>
        <time>2024-08-14T13:27:36Z</time>
      </trkpt>
      <trkpt lat="44.98769" lon="6.11406">
        <ele>963.4</ele>
        <time>2024-08-14T13:27:37Z</time>
      </trkpt>
      <trkpt lat="44.98769" lon="6.11406">
        <ele>963.4</ele>
        <time>2024-08-14T13:27:38Z</time>
      </trkpt>
      <trkpt lat="44.98769" lon="6.11406">
        <ele>963.4</ele>
        <time>2024-08-14T13:27:39Z</time>
      </trkpt>
      <trkpt lat="44.98769" lon="6.11406">
        <ele>963.2</ele>
        <time>2024-08-14T13:27:40Z</time>
      </trkpt>
      <trkpt lat="44.98769" lon="6.11406">
        <ele>963.2</ele>
        <time>2024-08-14T13:27:41Z</time>
      </trkpt>
      <trkpt lat="44.98769" lon="6.11406">
        <ele>963.2</ele>
        <time>2024-08-14T13:27:42Z</time>
      </trkpt>
      <trkpt lat="44.9877" lon="6.11403">
        <ele>963.2</ele>
        <time>2024-08-14T13:27:43Z</time>
      </trkpt>
      <trkpt lat="44.9877" lon="6.11403">
        <ele>963.2</ele>
        <time>2024-08-14T13:27:44Z</time>
      </trkpt>
      <trkpt lat="44.98772" lon="6.11399">
        <ele>963.2</ele>
        <time>2024-08-14T13:27:45Z</time>
      </trkpt>
      <trkpt lat="44.98773" lon="6.11397">
        <ele>963.2</ele>
        <time>2024-08-14T13:27:46Z</time>
      </trkpt>
      <trkpt lat="44.98773" lon="6.11395">
        <ele>963.4</ele>
        <time>2024-08-14T13:27:47Z</time>
      </trkpt>
      <trkpt lat="44.98773" lon="6.11395">
        <ele>963.4</ele>
        <time>2024-08-14T13:27:48Z</time>
      </trkpt>
      <trkpt lat="44.98775" lon="6.11391">
        <ele>963.4</ele>
        <time>2024-08-14T13:27:49Z</time>
      </trkpt>
      <trkpt lat="44.98775" lon="6.11391">
        <ele>963.6</ele>
        <time>2024-08-14T13:27:50Z</time>
      </trkpt>
      <trkpt lat="44.98776" lon="6.11388">
        <ele>963.6</ele>
        <time>2024-08-14T13:27:51Z</time>
      </trkpt>
      <trkpt lat="44.98776" lon="6.11388">
        <ele>963.6</ele>
        <time>2024-08-14T13:27:52Z</time>
      </trkpt>
      <trkpt lat="44.98778" lon="6.11385">
        <ele>963.6</ele>
        <time>2024-08-14T13:27:53Z</time>
      </trkpt>
      <trkpt lat="44.98778" lon="6.11385">
        <ele>963.4</ele>
        <time>2024-08-14T13:27:54Z</time>
      </trkpt>
      <trkpt lat="44.98779" lon="6.11382">
        <ele>963.4</ele>
        <time>2024-08-14T13:27:55Z</time>
      </trkpt>
      <trkpt lat="44.98779" lon="6.11382">
        <ele>963.6</ele>
        <time>2024-08-14T13:27:56Z</time>
      </trkpt>
      <trkpt lat="44.98781" lon="6.11379">
        <ele>963.8</ele>
        <time>2024-08-14T13:27:57Z</time>
      </trkpt>
      <trkpt lat="44.98781" lon="6.11379">
        <ele>963.8</ele>
        <time>2024-08-14T13:27:58Z</time>
      </trkpt>
      <trkpt lat="44.98783" lon="6.11377">
        <ele>963.6</ele>
        <time>2024-08-14T13:27:59Z</time>
      </trkpt>
      <trkpt lat="44.98783" lon="6.11377">
        <ele>963.6</ele>
        <time>2024-08-14T13:28:00Z</time>
      </trkpt>
      <trkpt lat="44.98785" lon="6.11375">
        <ele>963.6</ele>
        <time>2024-08-14T13:28:01Z</time>
      </trkpt>
      <trkpt lat="44.98785" lon="6.11375">
        <ele>963.6</ele>
        <time>2024-08-14T13:28:02Z</time>
      </trkpt>
      <trkpt lat="44.98788" lon="6.11373">
        <ele>963.6</ele>
        <time>2024-08-14T13:28:03Z</time>
      </trkpt>
      <trkpt lat="44.98788" lon="6.11373">
        <ele>963.6</ele>
        <time>2024-08-14T13:28:04Z</time>
      </trkpt>
      <trkpt lat="44.9879" lon="6.11371">
        <ele>963.6</ele>
        <time>2024-08-14T13:28:05Z</time>
      </trkpt>
      <trkpt lat="44.9879" lon="6.11371">
        <ele>963.6</ele>
        <time>2024-08-14T13:28:06Z</time>
      </trkpt>
      <trkpt lat="44.98791" lon="6.11368">
        <ele>963.4</ele>
        <time>2024-08-14T13:28:07Z</time>
      </trkpt>
      <trkpt lat="44.98791" lon="6.11368">
        <ele>963.2</ele>
        <time>2024-08-14T13:28:08Z</time>
      </trkpt>
      <trkpt lat="44.98794" lon="6.11366">
        <ele>963.2</ele>
        <time>2024-08-14T13:28:09Z</time>
      </trkpt>
      <trkpt lat="44.98794" lon="6.11366">
        <ele>963.2</ele>
        <time>2024-08-14T13:28:10Z</time>
      </trkpt>
      <trkpt lat="44.98796" lon="6.11363">
        <ele>963.2</ele>
        <time>2024-08-14T13:28:11Z</time>
      </trkpt>
      <trkpt lat="44.98796" lon="6.11363">
        <ele>963.2</ele>
        <time>2024-08-14T13:28:12Z</time>
      </trkpt>
      <trkpt lat="44.98797" lon="6.11359">
        <ele>963.4</ele>
        <time>2024-08-14T13:28:13Z</time>
      </trkpt>
      <trkpt lat="44.98797" lon="6.11359">
        <ele>963.4</ele>
        <time>2024-08-14T13:28:14Z</time>
      </trkpt>
      <trkpt lat="44.98798" lon="6.11356">
        <ele>963.4</ele>
        <time>2024-08-14T13:28:15Z</time>
      </trkpt>
      <trkpt lat="44.98798" lon="6.11356">
        <ele>963.4</ele>
        <time>2024-08-14T13:28:16Z</time>
      </trkpt>
      <trkpt lat="44.98799" lon="6.11352">
        <ele>963.4</ele>
        <time>2024-08-14T13:28:17Z</time>
      </trkpt>
      <trkpt lat="44.98799" lon="6.11352">
        <ele>963.6</ele>
        <time>2024-08-14T13:28:18Z</time>
      </trkpt>
      <trkpt lat="44.98801" lon="6.11348">
        <ele>963.4</ele>
        <time>2024-08-14T13:28:19Z</time>
      </trkpt>
      <trkpt lat="44.98801" lon="6.11348">
        <ele>963.2</ele>
        <time>2024-08-14T13:28:20Z</time>
      </trkpt>
      <trkpt lat="44.98801" lon="6.11344">
        <ele>963.2</ele>
        <time>2024-08-14T13:28:21Z</time>
      </trkpt>
      <trkpt lat="44.98801" lon="6.11344">
        <ele>963.2</ele>
        <time>2024-08-14T13:28:22Z</time>
      </trkpt>
      <trkpt lat="44.98802" lon="6.1134">
        <ele>963</ele>
        <time>2024-08-14T13:28:23Z</time>
      </trkpt>
      <trkpt lat="44.98802" lon="6.1134">
        <ele>963</ele>
        <time>2024-08-14T13:28:24Z</time>
      </trkpt>
      <trkpt lat="44.98802" lon="6.11336">
        <ele>963</ele>
        <time>2024-08-14T13:28:25Z</time>
      </trkpt>
      <trkpt lat="44.98802" lon="6.11336">
        <ele>963</ele>
        <time>2024-08-14T13:28:26Z</time>
      </trkpt>
      <trkpt lat="44.98803" lon="6.11331">
        <ele>963</ele>
        <time>2024-08-14T13:28:27Z</time>
      </trkpt>
      <trkpt lat="44.98803" lon="6.11331">
        <ele>962.8</ele>
        <time>2024-08-14T13:28:28Z</time>
      </trkpt>
      <trkpt lat="44.98802" lon="6.11327">
        <ele>962.8</ele>
        <time>2024-08-14T13:28:29Z</time>
      </trkpt>
      <trkpt lat="44.98802" lon="6.11327">
        <ele>962.4</ele>
        <time>2024-08-14T13:28:30Z</time>
      </trkpt>
      <trkpt lat="44.98802" lon="6.11323">
        <ele>962.4</ele>
        <time>2024-08-14T13:28:31Z</time>
      </trkpt>
      <trkpt lat="44.98802" lon="6.11323">
        <ele>962.4</ele>
        <time>2024-08-14T13:28:32Z</time>
      </trkpt>
      <trkpt lat="44.98802" lon="6.11319">
        <ele>962.4</ele>
        <time>2024-08-14T13:28:33Z</time>
      </trkpt>
      <trkpt lat="44.98802" lon="6.11319">
        <ele>962.2</ele>
        <time>2024-08-14T13:28:34Z</time>
      </trkpt>
      <trkpt lat="44.98801" lon="6.11315">
        <ele>962</ele>
        <time>2024-08-14T13:28:35Z</time>
      </trkpt>
      <trkpt lat="44.98801" lon="6.11315">
        <ele>962</ele>
        <time>2024-08-14T13:28:36Z</time>
      </trkpt>
      <trkpt lat="44.98801" lon="6.11311">
        <ele>961.8</ele>
        <time>2024-08-14T13:28:37Z</time>
      </trkpt>
      <trkpt lat="44.98801" lon="6.11311">
        <ele>961.6</ele>
        <time>2024-08-14T13:28:38Z</time>
      </trkpt>
      <trkpt lat="44.988" lon="6.11307">
        <ele>961.6</ele>
        <time>2024-08-14T13:28:39Z</time>
      </trkpt>
      <trkpt lat="44.988" lon="6.11307">
        <ele>961.6</ele>
        <time>2024-08-14T13:28:40Z</time>
      </trkpt>
      <trkpt lat="44.98799" lon="6.11304">
        <ele>961.6</ele>
        <time>2024-08-14T13:28:41Z</time>
      </trkpt>
      <trkpt lat="44.98799" lon="6.11304">
        <ele>961.2</ele>
        <time>2024-08-14T13:28:42Z</time>
      </trkpt>
      <trkpt lat="44.98797" lon="6.113">
        <ele>961.2</ele>
        <time>2024-08-14T13:28:43Z</time>
      </trkpt>
      <trkpt lat="44.98797" lon="6.113">
        <ele>961</ele>
        <time>2024-08-14T13:28:44Z</time>
      </trkpt>
      <trkpt lat="44.98796" lon="6.11297">
        <ele>961</ele>
        <time>2024-08-14T13:28:45Z</time>
      </trkpt>
      <trkpt lat="44.98795" lon="6.11295">
        <ele>961</ele>
        <time>2024-08-14T13:28:46Z</time>
      </trkpt>
      <trkpt lat="44.98795" lon="6.11295">
        <ele>961</ele>
        <time>2024-08-14T13:28:47Z</time>
      </trkpt>
      <trkpt lat="44.98793" lon="6.11291">
        <ele>960.8</ele>
        <time>2024-08-14T13:28:48Z</time>
      </trkpt>
      <trkpt lat="44.98793" lon="6.11291">
        <ele>960.8</ele>
        <time>2024-08-14T13:28:49Z</time>
      </trkpt>
      <trkpt lat="44.98791" lon="6.11287">
        <ele>960.6</ele>
        <time>2024-08-14T13:28:50Z</time>
      </trkpt>
      <trkpt lat="44.98791" lon="6.11287">
        <ele>960.6</ele>
        <time>2024-08-14T13:28:51Z</time>
      </trkpt>
      <trkpt lat="44.98789" lon="6.11284">
        <ele>960.6</ele>
        <time>2024-08-14T13:28:52Z</time>
      </trkpt>
      <trkpt lat="44.98789" lon="6.11284">
        <ele>960.4</ele>
        <time>2024-08-14T13:28:53Z</time>
      </trkpt>
      <trkpt lat="44.98787" lon="6.1128">
        <ele>960.2</ele>
        <time>2024-08-14T13:28:54Z</time>
      </trkpt>
      <trkpt lat="44.98787" lon="6.1128">
        <ele>960</ele>
        <time>2024-08-14T13:28:55Z</time>
      </trkpt>
      <trkpt lat="44.98786" lon="6.11276">
        <ele>960</ele>
        <time>2024-08-14T13:28:56Z</time>
      </trkpt>
      <trkpt lat="44.98785" lon="6.11273">
        <ele>959.8</ele>
        <time>2024-08-14T13:28:57Z</time>
      </trkpt>
      <trkpt lat="44.98785" lon="6.11273">
        <ele>959.8</ele>
        <time>2024-08-14T13:28:58Z</time>
      </trkpt>
      <trkpt lat="44.98784" lon="6.11269">
        <ele>959.8</ele>
        <time>2024-08-14T13:28:59Z</time>
      </trkpt>
      <trkpt lat="44.98784" lon="6.11269">
        <ele>959.6</ele>
        <time>2024-08-14T13:29:00Z</time>
      </trkpt>
      <trkpt lat="44.98783" lon="6.11265">
        <ele>959.6</ele>
        <time>2024-08-14T13:29:01Z</time>
      </trkpt>
      <trkpt lat="44.98785" lon="6.11263">
        <ele>959.2</ele>
        <time>2024-08-14T13:29:02Z</time>
      </trkpt>
      <trkpt lat="44.98785" lon="6.11263">
        <ele>959.2</ele>
        <time>2024-08-14T13:29:03Z</time>
      </trkpt>
      <trkpt lat="44.98785" lon="6.11259">
        <ele>958.8</ele>
        <time>2024-08-14T13:29:04Z</time>
      </trkpt>
      <trkpt lat="44.98785" lon="6.11259">
        <ele>958.6</ele>
        <time>2024-08-14T13:29:05Z</time>
      </trkpt>
      <trkpt lat="44.98785" lon="6.11254">
        <ele>958.8</ele>
        <time>2024-08-14T13:29:06Z</time>
      </trkpt>
      <trkpt lat="44.98785" lon="6.11254">
        <ele>958.6</ele>
        <time>2024-08-14T13:29:07Z</time>
      </trkpt>
      <trkpt lat="44.98786" lon="6.1125">
        <ele>958.6</ele>
        <time>2024-08-14T13:29:08Z</time>
      </trkpt>
      <trkpt lat="44.98786" lon="6.1125">
        <ele>958.4</ele>
        <time>2024-08-14T13:29:09Z</time>
      </trkpt>
      <trkpt lat="44.98786" lon="6.11246">
        <ele>958.2</ele>
        <time>2024-08-14T13:29:10Z</time>
      </trkpt>
      <trkpt lat="44.98786" lon="6.11246">
        <ele>958.2</ele>
        <time>2024-08-14T13:29:11Z</time>
      </trkpt>
      <trkpt lat="44.98786" lon="6.11242">
        <ele>958</ele>
        <time>2024-08-14T13:29:12Z</time>
      </trkpt>
      <trkpt lat="44.98786" lon="6.11242">
        <ele>957.6</ele>
        <time>2024-08-14T13:29:13Z</time>
      </trkpt>
      <trkpt lat="44.98786" lon="6.11238">
        <ele>957.6</ele>
        <time>2024-08-14T13:29:14Z</time>
      </trkpt>
      <trkpt lat="44.98786" lon="6.11238">
        <ele>957.4</ele>
        <time>2024-08-14T13:29:15Z</time>
      </trkpt>
      <trkpt lat="44.98786" lon="6.11233">
        <ele>957.2</ele>
        <time>2024-08-14T13:29:16Z</time>
      </trkpt>
      <trkpt lat="44.98786" lon="6.11233">
        <ele>957.2</ele>
        <time>2024-08-14T13:29:17Z</time>
      </trkpt>
      <trkpt lat="44.98785" lon="6.11229">
        <ele>957.2</ele>
        <time>2024-08-14T13:29:18Z</time>
      </trkpt>
      <trkpt lat="44.98785" lon="6.11229">
        <ele>957</ele>
        <time>2024-08-14T13:29:19Z</time>
      </trkpt>
      <trkpt lat="44.98785" lon="6.11229">
        <ele>957</ele>
        <time>2024-08-14T13:29:20Z</time>
      </trkpt>
      <trkpt lat="44.98786" lon="6.11223">
        <ele>956.6</ele>
        <time>2024-08-14T13:29:21Z</time>
      </trkpt>
      <trkpt lat="44.98786" lon="6.11221">
        <ele>956.6</ele>
        <time>2024-08-14T13:29:22Z</time>
      </trkpt>
      <trkpt lat="44.98786" lon="6.11221">
        <ele>956.6</ele>
        <time>2024-08-14T13:29:23Z</time>
      </trkpt>
      <trkpt lat="44.98786" lon="6.11217">
        <ele>956.6</ele>
        <time>2024-08-14T13:29:24Z</time>
      </trkpt>
      <trkpt lat="44.98786" lon="6.11217">
        <ele>956.6</ele>
        <time>2024-08-14T13:29:25Z</time>
      </trkpt>
      <trkpt lat="44.98786" lon="6.11213">
        <ele>956.4</ele>
        <time>2024-08-14T13:29:26Z</time>
      </trkpt>
      <trkpt lat="44.98786" lon="6.11213">
        <ele>956.2</ele>
        <time>2024-08-14T13:29:27Z</time>
      </trkpt>
      <trkpt lat="44.98786" lon="6.11209">
        <ele>955.8</ele>
        <time>2024-08-14T13:29:28Z</time>
      </trkpt>
      <trkpt lat="44.98786" lon="6.11209">
        <ele>955.8</ele>
        <time>2024-08-14T13:29:29Z</time>
      </trkpt>
      <trkpt lat="44.98785" lon="6.11205">
        <ele>955.8</ele>
        <time>2024-08-14T13:29:30Z</time>
      </trkpt>
      <trkpt lat="44.98785" lon="6.11205">
        <ele>955.8</ele>
        <time>2024-08-14T13:29:31Z</time>
      </trkpt>
      <trkpt lat="44.98785" lon="6.11201">
        <ele>955.8</ele>
        <time>2024-08-14T13:29:32Z</time>
      </trkpt>
      <trkpt lat="44.98785" lon="6.11201">
        <ele>955.8</ele>
        <time>2024-08-14T13:29:33Z</time>
      </trkpt>
      <trkpt lat="44.98784" lon="6.11197">
        <ele>955.6</ele>
        <time>2024-08-14T13:29:34Z</time>
      </trkpt>
      <trkpt lat="44.98784" lon="6.11197">
        <ele>955.4</ele>
        <time>2024-08-14T13:29:35Z</time>
      </trkpt>
      <trkpt lat="44.98784" lon="6.11193">
        <ele>955.4</ele>
        <time>2024-08-14T13:29:36Z</time>
      </trkpt>
      <trkpt lat="44.98784" lon="6.11193">
        <ele>955.4</ele>
        <time>2024-08-14T13:29:37Z</time>
      </trkpt>
      <trkpt lat="44.98783" lon="6.11189">
        <ele>955.2</ele>
        <time>2024-08-14T13:29:38Z</time>
      </trkpt>
      <trkpt lat="44.98783" lon="6.11189">
        <ele>955.2</ele>
        <time>2024-08-14T13:29:39Z</time>
      </trkpt>
      <trkpt lat="44.98783" lon="6.11185">
        <ele>955.2</ele>
        <time>2024-08-14T13:29:40Z</time>
      </trkpt>
      <trkpt lat="44.98783" lon="6.11185">
        <ele>955.2</ele>
        <time>2024-08-14T13:29:41Z</time>
      </trkpt>
      <trkpt lat="44.98783" lon="6.11181">
        <ele>954.8</ele>
        <time>2024-08-14T13:29:42Z</time>
      </trkpt>
      <trkpt lat="44.98783" lon="6.11181">
        <ele>954.6</ele>
        <time>2024-08-14T13:29:43Z</time>
      </trkpt>
      <trkpt lat="44.98783" lon="6.11178">
        <ele>954.2</ele>
        <time>2024-08-14T13:29:44Z</time>
      </trkpt>
      <trkpt lat="44.98783" lon="6.11178">
        <ele>954.2</ele>
        <time>2024-08-14T13:29:45Z</time>
      </trkpt>
      <trkpt lat="44.98785" lon="6.11174">
        <ele>954.2</ele>
        <time>2024-08-14T13:29:46Z</time>
      </trkpt>
      <trkpt lat="44.98785" lon="6.11174">
        <ele>954.2</ele>
        <time>2024-08-14T13:29:47Z</time>
      </trkpt>
      <trkpt lat="44.98785" lon="6.11171">
        <ele>954.2</ele>
        <time>2024-08-14T13:29:48Z</time>
      </trkpt>
      <trkpt lat="44.98785" lon="6.11171">
        <ele>954.2</ele>
        <time>2024-08-14T13:29:49Z</time>
      </trkpt>
      <trkpt lat="44.98785" lon="6.11167">
        <ele>954.2</ele>
        <time>2024-08-14T13:29:50Z</time>
      </trkpt>
      <trkpt lat="44.98785" lon="6.11167">
        <ele>954.2</ele>
        <time>2024-08-14T13:29:51Z</time>
      </trkpt>
      <trkpt lat="44.98786" lon="6.11162">
        <ele>954</ele>
        <time>2024-08-14T13:29:52Z</time>
      </trkpt>
      <trkpt lat="44.98786" lon="6.11162">
        <ele>953.8</ele>
        <time>2024-08-14T13:29:53Z</time>
      </trkpt>
      <trkpt lat="44.98786" lon="6.11158">
        <ele>953.4</ele>
        <time>2024-08-14T13:29:54Z</time>
      </trkpt>
      <trkpt lat="44.98786" lon="6.11158">
        <ele>953.4</ele>
        <time>2024-08-14T13:29:55Z</time>
      </trkpt>
      <trkpt lat="44.98787" lon="6.11154">
        <ele>953.4</ele>
        <time>2024-08-14T13:29:56Z</time>
      </trkpt>
      <trkpt lat="44.98787" lon="6.11154">
        <ele>953.4</ele>
        <time>2024-08-14T13:29:57Z</time>
      </trkpt>
      <trkpt lat="44.98788" lon="6.1115">
        <ele>953.2</ele>
        <time>2024-08-14T13:29:58Z</time>
      </trkpt>
      <trkpt lat="44.98788" lon="6.1115">
        <ele>953</ele>
        <time>2024-08-14T13:29:59Z</time>
      </trkpt>
      <trkpt lat="44.98788" lon="6.1115">
        <ele>953</ele>
        <time>2024-08-14T13:30:00Z</time>
      </trkpt>
      <trkpt lat="44.98789" lon="6.11144">
        <ele>952.8</ele>
        <time>2024-08-14T13:30:01Z</time>
      </trkpt>
      <trkpt lat="44.98789" lon="6.11143">
        <ele>952.8</ele>
        <time>2024-08-14T13:30:02Z</time>
      </trkpt>
      <trkpt lat="44.98789" lon="6.11143">
        <ele>952.8</ele>
        <time>2024-08-14T13:30:03Z</time>
      </trkpt>
      <trkpt lat="44.98789" lon="6.11138">
        <ele>952.8</ele>
        <time>2024-08-14T13:30:04Z</time>
      </trkpt>
      <trkpt lat="44.98789" lon="6.11138">
        <ele>952.6</ele>
        <time>2024-08-14T13:30:05Z</time>
      </trkpt>
      <trkpt lat="44.9879" lon="6.11135">
        <ele>952.2</ele>
        <time>2024-08-14T13:30:06Z</time>
      </trkpt>
      <trkpt lat="44.9879" lon="6.11135">
        <ele>952.2</ele>
        <time>2024-08-14T13:30:07Z</time>
      </trkpt>
      <trkpt lat="44.98791" lon="6.11132">
        <ele>952</ele>
        <time>2024-08-14T13:30:08Z</time>
      </trkpt>
      <trkpt lat="44.98791" lon="6.11132">
        <ele>952</ele>
        <time>2024-08-14T13:30:09Z</time>
      </trkpt>
      <trkpt lat="44.98791" lon="6.11128">
        <ele>951.8</ele>
        <time>2024-08-14T13:30:10Z</time>
      </trkpt>
      <trkpt lat="44.98791" lon="6.11128">
        <ele>951.8</ele>
        <time>2024-08-14T13:30:11Z</time>
      </trkpt>
      <trkpt lat="44.98792" lon="6.11124">
        <ele>951.8</ele>
        <time>2024-08-14T13:30:12Z</time>
      </trkpt>
      <trkpt lat="44.98792" lon="6.11124">
        <ele>951.8</ele>
        <time>2024-08-14T13:30:13Z</time>
      </trkpt>
      <trkpt lat="44.98793" lon="6.1112">
        <ele>951.6</ele>
        <time>2024-08-14T13:30:14Z</time>
      </trkpt>
      <trkpt lat="44.98793" lon="6.1112">
        <ele>951.6</ele>
        <time>2024-08-14T13:30:15Z</time>
      </trkpt>
      <trkpt lat="44.98794" lon="6.11117">
        <ele>951.4</ele>
        <time>2024-08-14T13:30:16Z</time>
      </trkpt>
      <trkpt lat="44.98794" lon="6.11117">
        <ele>951.2</ele>
        <time>2024-08-14T13:30:17Z</time>
      </trkpt>
      <trkpt lat="44.98794" lon="6.11117">
        <ele>951.2</ele>
        <time>2024-08-14T13:30:18Z</time>
      </trkpt>
      <trkpt lat="44.98794" lon="6.11117">
        <ele>951.2</ele>
        <time>2024-08-14T13:30:19Z</time>
      </trkpt>
      <trkpt lat="44.98794" lon="6.11117">
        <ele>951.2</ele>
        <time>2024-08-14T13:30:20Z</time>
      </trkpt>
      <trkpt lat="44.98794" lon="6.11117">
        <ele>951.2</ele>
        <time>2024-08-14T13:30:21Z</time>
      </trkpt>
      <trkpt lat="44.98794" lon="6.11117">
        <ele>951.2</ele>
        <time>2024-08-14T13:30:22Z</time>
      </trkpt>
      <trkpt lat="44.98794" lon="6.11117">
        <ele>951.2</ele>
        <time>2024-08-14T13:30:23Z</time>
      </trkpt>
      <trkpt lat="44.98794" lon="6.11117">
        <ele>951.2</ele>
        <time>2024-08-14T13:30:24Z</time>
      </trkpt>
      <trkpt lat="44.98794" lon="6.11117">
        <ele>951.2</ele>
        <time>2024-08-14T13:30:25Z</time>
      </trkpt>
      <trkpt lat="44.98794" lon="6.11117">
        <ele>951.2</ele>
        <time>2024-08-14T13:30:26Z</time>
      </trkpt>
      <trkpt lat="44.98794" lon="6.11117">
        <ele>951.4</ele>
        <time>2024-08-14T13:30:27Z</time>
      </trkpt>
      <trkpt lat="44.98794" lon="6.11117">
        <ele>951.4</ele>
        <time>2024-08-14T13:30:28Z</time>
      </trkpt>
      <trkpt lat="44.98794" lon="6.11117">
        <ele>951.2</ele>
        <time>2024-08-14T13:30:29Z</time>
      </trkpt>
      <trkpt lat="44.98794" lon="6.11117">
        <ele>951.2</ele>
        <time>2024-08-14T13:30:30Z</time>
      </trkpt>
      <trkpt lat="44.98794" lon="6.11117">
        <ele>951.4</ele>
        <time>2024-08-14T13:30:31Z</time>
      </trkpt>
      <trkpt lat="44.98794" lon="6.11117">
        <ele>951.4</ele>
        <time>2024-08-14T13:30:32Z</time>
      </trkpt>
      <trkpt lat="44.98794" lon="6.11117">
        <ele>951.2</ele>
        <time>2024-08-14T13:30:33Z</time>
      </trkpt>
      <trkpt lat="44.98794" lon="6.11117">
        <ele>951.2</ele>
        <time>2024-08-14T13:30:34Z</time>
      </trkpt>
      <trkpt lat="44.98794" lon="6.11117">
        <ele>951.4</ele>
        <time>2024-08-14T13:30:35Z</time>
      </trkpt>
      <trkpt lat="44.98794" lon="6.11117">
        <ele>951.4</ele>
        <time>2024-08-14T13:30:36Z</time>
      </trkpt>
      <trkpt lat="44.98794" lon="6.11117">
        <ele>951.4</ele>
        <time>2024-08-14T13:30:37Z</time>
      </trkpt>
      <trkpt lat="44.98794" lon="6.11117">
        <ele>951.4</ele>
        <time>2024-08-14T13:30:38Z</time>
      </trkpt>
      <trkpt lat="44.98794" lon="6.11117">
        <ele>951.4</ele>
        <time>2024-08-14T13:30:39Z</time>
      </trkpt>
      <trkpt lat="44.98794" lon="6.11117">
        <ele>951.4</ele>
        <time>2024-08-14T13:30:40Z</time>
      </trkpt>
      <trkpt lat="44.98794" lon="6.11117">
        <ele>951.4</ele>
        <time>2024-08-14T13:30:41Z</time>
      </trkpt>
      <trkpt lat="44.98794" lon="6.11117">
        <ele>951.4</ele>
        <time>2024-08-14T13:30:42Z</time>
      </trkpt>
      <trkpt lat="44.98794" lon="6.11117">
        <ele>951.4</ele>
        <time>2024-08-14T13:30:43Z</time>
      </trkpt>
      <trkpt lat="44.98794" lon="6.11117">
        <ele>951.4</ele>
        <time>2024-08-14T13:30:44Z</time>
      </trkpt>
      <trkpt lat="44.98794" lon="6.11117">
        <ele>951.4</ele>
        <time>2024-08-14T13:30:45Z</time>
      </trkpt>
      <trkpt lat="44.98794" lon="6.11117">
        <ele>951.4</ele>
        <time>2024-08-14T13:30:46Z</time>
      </trkpt>
      <trkpt lat="44.98794" lon="6.11117">
        <ele>951.4</ele>
        <time>2024-08-14T13:30:47Z</time>
      </trkpt>
      <trkpt lat="44.98795" lon="6.11114">
        <ele>951.4</ele>
        <time>2024-08-14T13:30:48Z</time>
      </trkpt>
      <trkpt lat="44.98796" lon="6.11112">
        <ele>951.2</ele>
        <time>2024-08-14T13:30:49Z</time>
      </trkpt>
      <trkpt lat="44.98797" lon="6.11109">
        <ele>951</ele>
        <time>2024-08-14T13:30:50Z</time>
      </trkpt>
      <trkpt lat="44.98798" lon="6.11107">
        <ele>951</ele>
        <time>2024-08-14T13:30:51Z</time>
      </trkpt>
      <trkpt lat="44.988" lon="6.11105">
        <ele>951</ele>
        <time>2024-08-14T13:30:52Z</time>
      </trkpt>
      <trkpt lat="44.988" lon="6.11105">
        <ele>950.8</ele>
        <time>2024-08-14T13:30:53Z</time>
      </trkpt>
      <trkpt lat="44.98802" lon="6.11101">
        <ele>950.8</ele>
        <time>2024-08-14T13:30:54Z</time>
      </trkpt>
      <trkpt lat="44.98802" lon="6.11101">
        <ele>950.6</ele>
        <time>2024-08-14T13:30:55Z</time>
      </trkpt>
      <trkpt lat="44.98803" lon="6.11098">
        <ele>950.6</ele>
        <time>2024-08-14T13:30:56Z</time>
      </trkpt>
      <trkpt lat="44.98804" lon="6.11095">
        <ele>950.4</ele>
        <time>2024-08-14T13:30:57Z</time>
      </trkpt>
      <trkpt lat="44.98804" lon="6.11095">
        <ele>950.4</ele>
        <time>2024-08-14T13:30:58Z</time>
      </trkpt>
      <trkpt lat="44.98806" lon="6.11091">
        <ele>950.4</ele>
        <time>2024-08-14T13:30:59Z</time>
      </trkpt>
      <trkpt lat="44.98806" lon="6.11091">
        <ele>950.2</ele>
        <time>2024-08-14T13:31:00Z</time>
      </trkpt>
      <trkpt lat="44.98807" lon="6.11088">
        <ele>950.2</ele>
        <time>2024-08-14T13:31:01Z</time>
      </trkpt>
      <trkpt lat="44.98807" lon="6.11088">
        <ele>950.4</ele>
        <time>2024-08-14T13:31:02Z</time>
      </trkpt>
      <trkpt lat="44.98808" lon="6.11085">
        <ele>950.4</ele>
        <time>2024-08-14T13:31:03Z</time>
      </trkpt>
      <trkpt lat="44.98808" lon="6.11085">
        <ele>950.4</ele>
        <time>2024-08-14T13:31:04Z</time>
      </trkpt>
      <trkpt lat="44.9881" lon="6.11081">
        <ele>950.2</ele>
        <time>2024-08-14T13:31:05Z</time>
      </trkpt>
      <trkpt lat="44.9881" lon="6.11081">
        <ele>950</ele>
        <time>2024-08-14T13:31:06Z</time>
      </trkpt>
      <trkpt lat="44.98812" lon="6.11078">
        <ele>950</ele>
        <time>2024-08-14T13:31:07Z</time>
      </trkpt>
      <trkpt lat="44.98812" lon="6.11078">
        <ele>950</ele>
        <time>2024-08-14T13:31:08Z</time>
      </trkpt>
      <trkpt lat="44.98815" lon="6.11075">
        <ele>950</ele>
        <time>2024-08-14T13:31:09Z</time>
      </trkpt>
      <trkpt lat="44.98815" lon="6.11075">
        <ele>950</ele>
        <time>2024-08-14T13:31:10Z</time>
      </trkpt>
      <trkpt lat="44.98818" lon="6.11073">
        <ele>950</ele>
        <time>2024-08-14T13:31:11Z</time>
      </trkpt>
      <trkpt lat="44.98818" lon="6.11073">
        <ele>950</ele>
        <time>2024-08-14T13:31:12Z</time>
      </trkpt>
      <trkpt lat="44.9882" lon="6.1107">
        <ele>950</ele>
        <time>2024-08-14T13:31:13Z</time>
      </trkpt>
      <trkpt lat="44.9882" lon="6.1107">
        <ele>949.8</ele>
        <time>2024-08-14T13:31:14Z</time>
      </trkpt>
      <trkpt lat="44.98823" lon="6.11068">
        <ele>949.6</ele>
        <time>2024-08-14T13:31:15Z</time>
      </trkpt>
      <trkpt lat="44.98824" lon="6.11067">
        <ele>949.6</ele>
        <time>2024-08-14T13:31:16Z</time>
      </trkpt>
      <trkpt lat="44.98826" lon="6.11065">
        <ele>949.6</ele>
        <time>2024-08-14T13:31:17Z</time>
      </trkpt>
      <trkpt lat="44.98828" lon="6.11064">
        <ele>949.8</ele>
        <time>2024-08-14T13:31:18Z</time>
      </trkpt>
      <trkpt lat="44.98828" lon="6.11064">
        <ele>949.8</ele>
        <time>2024-08-14T13:31:19Z</time>
      </trkpt>
      <trkpt lat="44.9883" lon="6.11061">
        <ele>949.6</ele>
        <time>2024-08-14T13:31:20Z</time>
      </trkpt>
      <trkpt lat="44.9883" lon="6.11061">
        <ele>949.4</ele>
        <time>2024-08-14T13:31:21Z</time>
      </trkpt>
      <trkpt lat="44.98832" lon="6.11057">
        <ele>949.4</ele>
        <time>2024-08-14T13:31:22Z</time>
      </trkpt>
      <trkpt lat="44.98834" lon="6.11056">
        <ele>949.4</ele>
        <time>2024-08-14T13:31:23Z</time>
      </trkpt>
      <trkpt lat="44.98834" lon="6.11056">
        <ele>949.2</ele>
        <time>2024-08-14T13:31:24Z</time>
      </trkpt>
      <trkpt lat="44.98836" lon="6.11053">
        <ele>949.2</ele>
        <time>2024-08-14T13:31:25Z</time>
      </trkpt>
      <trkpt lat="44.98836" lon="6.11053">
        <ele>949</ele>
        <time>2024-08-14T13:31:26Z</time>
      </trkpt>
      <trkpt lat="44.98838" lon="6.1105">
        <ele>949</ele>
        <time>2024-08-14T13:31:27Z</time>
      </trkpt>
      <trkpt lat="44.98838" lon="6.1105">
        <ele>948.8</ele>
        <time>2024-08-14T13:31:28Z</time>
      </trkpt>
      <trkpt lat="44.98839" lon="6.11046">
        <ele>948.8</ele>
        <time>2024-08-14T13:31:29Z</time>
      </trkpt>
      <trkpt lat="44.98839" lon="6.11046">
        <ele>948.6</ele>
        <time>2024-08-14T13:31:30Z</time>
      </trkpt>
      <trkpt lat="44.9884" lon="6.11042">
        <ele>948.4</ele>
        <time>2024-08-14T13:31:31Z</time>
      </trkpt>
      <trkpt lat="44.9884" lon="6.11042">
        <ele>948.4</ele>
        <time>2024-08-14T13:31:32Z</time>
      </trkpt>
      <trkpt lat="44.9884" lon="6.11037">
        <ele>948.2</ele>
        <time>2024-08-14T13:31:33Z</time>
      </trkpt>
      <trkpt lat="44.9884" lon="6.11037">
        <ele>948.2</ele>
        <time>2024-08-14T13:31:34Z</time>
      </trkpt>
      <trkpt lat="44.9884" lon="6.11033">
        <ele>948.2</ele>
        <time>2024-08-14T13:31:35Z</time>
      </trkpt>
      <trkpt lat="44.9884" lon="6.11033">
        <ele>948.2</ele>
        <time>2024-08-14T13:31:36Z</time>
      </trkpt>
      <trkpt lat="44.9884" lon="6.11028">
        <ele>948.2</ele>
        <time>2024-08-14T13:31:37Z</time>
      </trkpt>
      <trkpt lat="44.98839" lon="6.11026">
        <ele>948</ele>
        <time>2024-08-14T13:31:38Z</time>
      </trkpt>
      <trkpt lat="44.98839" lon="6.11026">
        <ele>947.6</ele>
        <time>2024-08-14T13:31:39Z</time>
      </trkpt>
      <trkpt lat="44.98837" lon="6.11021">
        <ele>947.6</ele>
        <time>2024-08-14T13:31:40Z</time>
      </trkpt>
      <trkpt lat="44.98837" lon="6.1102">
        <ele>947.4</ele>
        <time>2024-08-14T13:31:41Z</time>
      </trkpt>
      <trkpt lat="44.98837" lon="6.1102">
        <ele>947.4</ele>
        <time>2024-08-14T13:31:42Z</time>
      </trkpt>
      <trkpt lat="44.98834" lon="6.11016">
        <ele>947.4</ele>
        <time>2024-08-14T13:31:43Z</time>
      </trkpt>
      <trkpt lat="44.98834" lon="6.11016">
        <ele>947.4</ele>
        <time>2024-08-14T13:31:44Z</time>
      </trkpt>
      <trkpt lat="44.98832" lon="6.11012">
        <ele>947.6</ele>
        <time>2024-08-14T13:31:45Z</time>
      </trkpt>
      <trkpt lat="44.98832" lon="6.11012">
        <ele>947.6</ele>
        <time>2024-08-14T13:31:46Z</time>
      </trkpt>
      <trkpt lat="44.98831" lon="6.11009">
        <ele>947</ele>
        <time>2024-08-14T13:31:47Z</time>
      </trkpt>
      <trkpt lat="44.98831" lon="6.11009">
        <ele>946.8</ele>
        <time>2024-08-14T13:31:48Z</time>
      </trkpt>
      <trkpt lat="44.98829" lon="6.11005">
        <ele>946.8</ele>
        <time>2024-08-14T13:31:49Z</time>
      </trkpt>
      <trkpt lat="44.98829" lon="6.11005">
        <ele>946.6</ele>
        <time>2024-08-14T13:31:50Z</time>
      </trkpt>
      <trkpt lat="44.98828" lon="6.11002">
        <ele>946.6</ele>
        <time>2024-08-14T13:31:51Z</time>
      </trkpt>
      <trkpt lat="44.98828" lon="6.11002">
        <ele>946.4</ele>
        <time>2024-08-14T13:31:52Z</time>
      </trkpt>
      <trkpt lat="44.98826" lon="6.10998">
        <ele>946.2</ele>
        <time>2024-08-14T13:31:53Z</time>
      </trkpt>
      <trkpt lat="44.98826" lon="6.10998">
        <ele>946</ele>
        <time>2024-08-14T13:31:54Z</time>
      </trkpt>
      <trkpt lat="44.98825" lon="6.10994">
        <ele>946</ele>
        <time>2024-08-14T13:31:55Z</time>
      </trkpt>
      <trkpt lat="44.98825" lon="6.10994">
        <ele>945.8</ele>
        <time>2024-08-14T13:31:56Z</time>
      </trkpt>
      <trkpt lat="44.98823" lon="6.1099">
        <ele>945.8</ele>
        <time>2024-08-14T13:31:57Z</time>
      </trkpt>
      <trkpt lat="44.98823" lon="6.1099">
        <ele>945.8</ele>
        <time>2024-08-14T13:31:58Z</time>
      </trkpt>
      <trkpt lat="44.98822" lon="6.10985">
        <ele>945.4</ele>
        <time>2024-08-14T13:31:59Z</time>
      </trkpt>
      <trkpt lat="44.98822" lon="6.10985">
        <ele>945.4</ele>
        <time>2024-08-14T13:32:00Z</time>
      </trkpt>
      <trkpt lat="44.98821" lon="6.10981">
        <ele>945.2</ele>
        <time>2024-08-14T13:32:01Z</time>
      </trkpt>
      <trkpt lat="44.98821" lon="6.10981">
        <ele>945</ele>
        <time>2024-08-14T13:32:02Z</time>
      </trkpt>
      <trkpt lat="44.98821" lon="6.10977">
        <ele>945</ele>
        <time>2024-08-14T13:32:03Z</time>
      </trkpt>
      <trkpt lat="44.98821" lon="6.10977">
        <ele>945</ele>
        <time>2024-08-14T13:32:04Z</time>
      </trkpt>
      <trkpt lat="44.9882" lon="6.10973">
        <ele>944.8</ele>
        <time>2024-08-14T13:32:05Z</time>
      </trkpt>
      <trkpt lat="44.9882" lon="6.10973">
        <ele>944.6</ele>
        <time>2024-08-14T13:32:06Z</time>
      </trkpt>
      <trkpt lat="44.98819" lon="6.10969">
        <ele>944.4</ele>
        <time>2024-08-14T13:32:07Z</time>
      </trkpt>
      <trkpt lat="44.98819" lon="6.10969">
        <ele>944.4</ele>
        <time>2024-08-14T13:32:08Z</time>
      </trkpt>
      <trkpt lat="44.98819" lon="6.10965">
        <ele>944.2</ele>
        <time>2024-08-14T13:32:09Z</time>
      </trkpt>
      <trkpt lat="44.98819" lon="6.10965">
        <ele>944</ele>
        <time>2024-08-14T13:32:10Z</time>
      </trkpt>
      <trkpt lat="44.98818" lon="6.1096">
        <ele>943.8</ele>
        <time>2024-08-14T13:32:11Z</time>
      </trkpt>
      <trkpt lat="44.98818" lon="6.1096">
        <ele>943.8</ele>
        <time>2024-08-14T13:32:12Z</time>
      </trkpt>
      <trkpt lat="44.98818" lon="6.10956">
        <ele>943.8</ele>
        <time>2024-08-14T13:32:13Z</time>
      </trkpt>
      <trkpt lat="44.98818" lon="6.10956">
        <ele>943.6</ele>
        <time>2024-08-14T13:32:14Z</time>
      </trkpt>
      <trkpt lat="44.98818" lon="6.10952">
        <ele>943.4</ele>
        <time>2024-08-14T13:32:15Z</time>
      </trkpt>
      <trkpt lat="44.98818" lon="6.10952">
        <ele>943.2</ele>
        <time>2024-08-14T13:32:16Z</time>
      </trkpt>
      <trkpt lat="44.98818" lon="6.10947">
        <ele>943</ele>
        <time>2024-08-14T13:32:17Z</time>
      </trkpt>
      <trkpt lat="44.98818" lon="6.10947">
        <ele>943</ele>
        <time>2024-08-14T13:32:18Z</time>
      </trkpt>
      <trkpt lat="44.98817" lon="6.10943">
        <ele>943</ele>
        <time>2024-08-14T13:32:19Z</time>
      </trkpt>
      <trkpt lat="44.98817" lon="6.10943">
        <ele>943</ele>
        <time>2024-08-14T13:32:20Z</time>
      </trkpt>
      <trkpt lat="44.98817" lon="6.10939">
        <ele>942.8</ele>
        <time>2024-08-14T13:32:21Z</time>
      </trkpt>
      <trkpt lat="44.98817" lon="6.10939">
        <ele>942.6</ele>
        <time>2024-08-14T13:32:22Z</time>
      </trkpt>
      <trkpt lat="44.98817" lon="6.10934">
        <ele>942.4</ele>
        <time>2024-08-14T13:32:23Z</time>
      </trkpt>
      <trkpt lat="44.98817" lon="6.10934">
        <ele>942.4</ele>
        <time>2024-08-14T13:32:24Z</time>
      </trkpt>
      <trkpt lat="44.98816" lon="6.1093">
        <ele>942.4</ele>
        <time>2024-08-14T13:32:25Z</time>
      </trkpt>
      <trkpt lat="44.98816" lon="6.1093">
        <ele>942.2</ele>
        <time>2024-08-14T13:32:26Z</time>
      </trkpt>
      <trkpt lat="44.98816" lon="6.10925">
        <ele>942</ele>
        <time>2024-08-14T13:32:27Z</time>
      </trkpt>
      <trkpt lat="44.98816" lon="6.10925">
        <ele>942</ele>
        <time>2024-08-14T13:32:28Z</time>
      </trkpt>
      <trkpt lat="44.98814" lon="6.10921">
        <ele>942</ele>
        <time>2024-08-14T13:32:29Z</time>
      </trkpt>
      <trkpt lat="44.98814" lon="6.10921">
        <ele>942</ele>
        <time>2024-08-14T13:32:30Z</time>
      </trkpt>
      <trkpt lat="44.98814" lon="6.10916">
        <ele>941.6</ele>
        <time>2024-08-14T13:32:31Z</time>
      </trkpt>
      <trkpt lat="44.98813" lon="6.10914">
        <ele>941.6</ele>
        <time>2024-08-14T13:32:32Z</time>
      </trkpt>
      <trkpt lat="44.98813" lon="6.10914">
        <ele>941.8</ele>
        <time>2024-08-14T13:32:33Z</time>
      </trkpt>
      <trkpt lat="44.98813" lon="6.1091">
        <ele>941.8</ele>
        <time>2024-08-14T13:32:34Z</time>
      </trkpt>
      <trkpt lat="44.98813" lon="6.1091">
        <ele>941.6</ele>
        <time>2024-08-14T13:32:35Z</time>
      </trkpt>
      <trkpt lat="44.98811" lon="6.10906">
        <ele>941.2</ele>
        <time>2024-08-14T13:32:36Z</time>
      </trkpt>
      <trkpt lat="44.98811" lon="6.10906">
        <ele>941.2</ele>
        <time>2024-08-14T13:32:37Z</time>
      </trkpt>
      <trkpt lat="44.98809" lon="6.10903">
        <ele>941.2</ele>
        <time>2024-08-14T13:32:38Z</time>
      </trkpt>
      <trkpt lat="44.98809" lon="6.10903">
        <ele>940.8</ele>
        <time>2024-08-14T13:32:39Z</time>
      </trkpt>
      <trkpt lat="44.98808" lon="6.10899">
        <ele>940.8</ele>
        <time>2024-08-14T13:32:40Z</time>
      </trkpt>
      <trkpt lat="44.98806" lon="6.10897">
        <ele>940.6</ele>
        <time>2024-08-14T13:32:41Z</time>
      </trkpt>
      <trkpt lat="44.98806" lon="6.10897">
        <ele>940.4</ele>
        <time>2024-08-14T13:32:42Z</time>
      </trkpt>
      <trkpt lat="44.98805" lon="6.10894">
        <ele>940.2</ele>
        <time>2024-08-14T13:32:43Z</time>
      </trkpt>
      <trkpt lat="44.98805" lon="6.10894">
        <ele>940.2</ele>
        <time>2024-08-14T13:32:44Z</time>
      </trkpt>
      <trkpt lat="44.98805" lon="6.10894">
        <ele>940</ele>
        <time>2024-08-14T13:32:45Z</time>
      </trkpt>
      <trkpt lat="44.98802" lon="6.10888">
        <ele>939.8</ele>
        <time>2024-08-14T13:32:46Z</time>
      </trkpt>
      <trkpt lat="44.98801" lon="6.10887">
        <ele>939.6</ele>
        <time>2024-08-14T13:32:47Z</time>
      </trkpt>
      <trkpt lat="44.98801" lon="6.10887">
        <ele>939.4</ele>
        <time>2024-08-14T13:32:48Z</time>
      </trkpt>
      <trkpt lat="44.98799" lon="6.10883">
        <ele>939.2</ele>
        <time>2024-08-14T13:32:49Z</time>
      </trkpt>
      <trkpt lat="44.98799" lon="6.10883">
        <ele>939.2</ele>
        <time>2024-08-14T13:32:50Z</time>
      </trkpt>
      <trkpt lat="44.98798" lon="6.1088">
        <ele>939.2</ele>
        <time>2024-08-14T13:32:51Z</time>
      </trkpt>
      <trkpt lat="44.98797" lon="6.10878">
        <ele>939</ele>
        <time>2024-08-14T13:32:52Z</time>
      </trkpt>
      <trkpt lat="44.98797" lon="6.10878">
        <ele>939</ele>
        <time>2024-08-14T13:32:53Z</time>
      </trkpt>
      <trkpt lat="44.98795" lon="6.10875">
        <ele>939</ele>
        <time>2024-08-14T13:32:54Z</time>
      </trkpt>
      <trkpt lat="44.98795" lon="6.10875">
        <ele>938.8</ele>
        <time>2024-08-14T13:32:55Z</time>
      </trkpt>
      <trkpt lat="44.98795" lon="6.10875">
        <ele>938.8</ele>
        <time>2024-08-14T13:32:56Z</time>
      </trkpt>
      <trkpt lat="44.98791" lon="6.1087">
        <ele>938.8</ele>
        <time>2024-08-14T13:32:57Z</time>
      </trkpt>
      <trkpt lat="44.9879" lon="6.10868">
        <ele>938.8</ele>
        <time>2024-08-14T13:32:58Z</time>
      </trkpt>
      <trkpt lat="44.9879" lon="6.10868">
        <ele>938.6</ele>
        <time>2024-08-14T13:32:59Z</time>
      </trkpt>
      <trkpt lat="44.98789" lon="6.10865">
        <ele>938.4</ele>
        <time>2024-08-14T13:33:00Z</time>
      </trkpt>
      <trkpt lat="44.98789" lon="6.10865">
        <ele>938</ele>
        <time>2024-08-14T13:33:01Z</time>
      </trkpt>
      <trkpt lat="44.98787" lon="6.10862">
        <ele>938</ele>
        <time>2024-08-14T13:33:02Z</time>
      </trkpt>
      <trkpt lat="44.98787" lon="6.10862">
        <ele>938</ele>
        <time>2024-08-14T13:33:03Z</time>
      </trkpt>
      <trkpt lat="44.98785" lon="6.10859">
        <ele>937.8</ele>
        <time>2024-08-14T13:33:04Z</time>
      </trkpt>
      <trkpt lat="44.98783" lon="6.10857">
        <ele>937.6</ele>
        <time>2024-08-14T13:33:05Z</time>
      </trkpt>
      <trkpt lat="44.98783" lon="6.10857">
        <ele>937.4</ele>
        <time>2024-08-14T13:33:06Z</time>
      </trkpt>
      <trkpt lat="44.98781" lon="6.10854">
        <ele>937.2</ele>
        <time>2024-08-14T13:33:07Z</time>
      </trkpt>
      <trkpt lat="44.98781" lon="6.10854">
        <ele>937.2</ele>
        <time>2024-08-14T13:33:08Z</time>
      </trkpt>
      <trkpt lat="44.98779" lon="6.1085">
        <ele>937</ele>
        <time>2024-08-14T13:33:09Z</time>
      </trkpt>
      <trkpt lat="44.98779" lon="6.1085">
        <ele>937</ele>
        <time>2024-08-14T13:33:10Z</time>
      </trkpt>
      <trkpt lat="44.98778" lon="6.10847">
        <ele>936.8</ele>
        <time>2024-08-14T13:33:11Z</time>
      </trkpt>
      <trkpt lat="44.98778" lon="6.10847">
        <ele>936.8</ele>
        <time>2024-08-14T13:33:12Z</time>
      </trkpt>
      <trkpt lat="44.98776" lon="6.10844">
        <ele>936.8</ele>
        <time>2024-08-14T13:33:13Z</time>
      </trkpt>
      <trkpt lat="44.98776" lon="6.10844">
        <ele>936.6</ele>
        <time>2024-08-14T13:33:14Z</time>
      </trkpt>
      <trkpt lat="44.98774" lon="6.10841">
        <ele>936.6</ele>
        <time>2024-08-14T13:33:15Z</time>
      </trkpt>
      <trkpt lat="44.98774" lon="6.10841">
        <ele>936.4</ele>
        <time>2024-08-14T13:33:16Z</time>
      </trkpt>
      <trkpt lat="44.98773" lon="6.10837">
        <ele>936.2</ele>
        <time>2024-08-14T13:33:17Z</time>
      </trkpt>
      <trkpt lat="44.98772" lon="6.10835">
        <ele>936.2</ele>
        <time>2024-08-14T13:33:18Z</time>
      </trkpt>
      <trkpt lat="44.98772" lon="6.10835">
        <ele>936.2</ele>
        <time>2024-08-14T13:33:19Z</time>
      </trkpt>
      <trkpt lat="44.98769" lon="6.10832">
        <ele>936.2</ele>
        <time>2024-08-14T13:33:20Z</time>
      </trkpt>
      <trkpt lat="44.98769" lon="6.10832">
        <ele>935.8</ele>
        <time>2024-08-14T13:33:21Z</time>
      </trkpt>
      <trkpt lat="44.98767" lon="6.10828">
        <ele>935.6</ele>
        <time>2024-08-14T13:33:22Z</time>
      </trkpt>
      <trkpt lat="44.98767" lon="6.10828">
        <ele>935.6</ele>
        <time>2024-08-14T13:33:23Z</time>
      </trkpt>
      <trkpt lat="44.98766" lon="6.10824">
        <ele>935.6</ele>
        <time>2024-08-14T13:33:24Z</time>
      </trkpt>
      <trkpt lat="44.98766" lon="6.10824">
        <ele>935.6</ele>
        <time>2024-08-14T13:33:25Z</time>
      </trkpt>
      <trkpt lat="44.98765" lon="6.10821">
        <ele>935.6</ele>
        <time>2024-08-14T13:33:26Z</time>
      </trkpt>
      <trkpt lat="44.98764" lon="6.10819">
        <ele>935.4</ele>
        <time>2024-08-14T13:33:27Z</time>
      </trkpt>
      <trkpt lat="44.98764" lon="6.10819">
        <ele>935.4</ele>
        <time>2024-08-14T13:33:28Z</time>
      </trkpt>
      <trkpt lat="44.98762" lon="6.10816">
        <ele>935</ele>
        <time>2024-08-14T13:33:29Z</time>
      </trkpt>
      <trkpt lat="44.98762" lon="6.10816">
        <ele>935</ele>
        <time>2024-08-14T13:33:30Z</time>
      </trkpt>
      <trkpt lat="44.98761" lon="6.10812">
        <ele>935</ele>
        <time>2024-08-14T13:33:31Z</time>
      </trkpt>
      <trkpt lat="44.98761" lon="6.10812">
        <ele>935</ele>
        <time>2024-08-14T13:33:32Z</time>
      </trkpt>
      <trkpt lat="44.9876" lon="6.10807">
        <ele>935</ele>
        <time>2024-08-14T13:33:33Z</time>
      </trkpt>
      <trkpt lat="44.9876" lon="6.10807">
        <ele>934.8</ele>
        <time>2024-08-14T13:33:34Z</time>
      </trkpt>
      <trkpt lat="44.98759" lon="6.10804">
        <ele>934.8</ele>
        <time>2024-08-14T13:33:35Z</time>
      </trkpt>
      <trkpt lat="44.98759" lon="6.10804">
        <ele>934.8</ele>
        <time>2024-08-14T13:33:36Z</time>
      </trkpt>
      <trkpt lat="44.98758" lon="6.10799">
        <ele>934.6</ele>
        <time>2024-08-14T13:33:37Z</time>
      </trkpt>
      <trkpt lat="44.98758" lon="6.10799">
        <ele>934.6</ele>
        <time>2024-08-14T13:33:38Z</time>
      </trkpt>
      <trkpt lat="44.98757" lon="6.10795">
        <ele>934.4</ele>
        <time>2024-08-14T13:33:39Z</time>
      </trkpt>
      <trkpt lat="44.98757" lon="6.10795">
        <ele>934.4</ele>
        <time>2024-08-14T13:33:40Z</time>
      </trkpt>
      <trkpt lat="44.98756" lon="6.10791">
        <ele>934.2</ele>
        <time>2024-08-14T13:33:41Z</time>
      </trkpt>
      <trkpt lat="44.98756" lon="6.10791">
        <ele>934</ele>
        <time>2024-08-14T13:33:42Z</time>
      </trkpt>
      <trkpt lat="44.98755" lon="6.10788">
        <ele>934</ele>
        <time>2024-08-14T13:33:43Z</time>
      </trkpt>
      <trkpt lat="44.98755" lon="6.10788">
        <ele>934</ele>
        <time>2024-08-14T13:33:44Z</time>
      </trkpt>
      <trkpt lat="44.98754" lon="6.10784">
        <ele>933.8</ele>
        <time>2024-08-14T13:33:45Z</time>
      </trkpt>
      <trkpt lat="44.98754" lon="6.10784">
        <ele>933.2</ele>
        <time>2024-08-14T13:33:46Z</time>
      </trkpt>
      <trkpt lat="44.98753" lon="6.1078">
        <ele>933.2</ele>
        <time>2024-08-14T13:33:47Z</time>
      </trkpt>
      <trkpt lat="44.98753" lon="6.1078">
        <ele>933</ele>
        <time>2024-08-14T13:33:48Z</time>
      </trkpt>
      <trkpt lat="44.98751" lon="6.10776">
        <ele>933</ele>
        <time>2024-08-14T13:33:49Z</time>
      </trkpt>
      <trkpt lat="44.98751" lon="6.10776">
        <ele>933.2</ele>
        <time>2024-08-14T13:33:50Z</time>
      </trkpt>
      <trkpt lat="44.98749" lon="6.10772">
        <ele>933</ele>
        <time>2024-08-14T13:33:51Z</time>
      </trkpt>
      <trkpt lat="44.98749" lon="6.10772">
        <ele>932.8</ele>
        <time>2024-08-14T13:33:52Z</time>
      </trkpt>
      <trkpt lat="44.98748" lon="6.10768">
        <ele>932.8</ele>
        <time>2024-08-14T13:33:53Z</time>
      </trkpt>
      <trkpt lat="44.98748" lon="6.10768">
        <ele>932.6</ele>
        <time>2024-08-14T13:33:54Z</time>
      </trkpt>
      <trkpt lat="44.98747" lon="6.10764">
        <ele>932.6</ele>
        <time>2024-08-14T13:33:55Z</time>
      </trkpt>
      <trkpt lat="44.98747" lon="6.10764">
        <ele>932.6</ele>
        <time>2024-08-14T13:33:56Z</time>
      </trkpt>
      <trkpt lat="44.98745" lon="6.1076">
        <ele>932.4</ele>
        <time>2024-08-14T13:33:57Z</time>
      </trkpt>
      <trkpt lat="44.98745" lon="6.1076">
        <ele>932.4</ele>
        <time>2024-08-14T13:33:58Z</time>
      </trkpt>
      <trkpt lat="44.98744" lon="6.10756">
        <ele>932.2</ele>
        <time>2024-08-14T13:33:59Z</time>
      </trkpt>
      <trkpt lat="44.98744" lon="6.10756">
        <ele>931.8</ele>
        <time>2024-08-14T13:34:00Z</time>
      </trkpt>
      <trkpt lat="44.98742" lon="6.10751">
        <ele>931.8</ele>
        <time>2024-08-14T13:34:01Z</time>
      </trkpt>
      <trkpt lat="44.98742" lon="6.10751">
        <ele>931.8</ele>
        <time>2024-08-14T13:34:02Z</time>
      </trkpt>
      <trkpt lat="44.98741" lon="6.10748">
        <ele>931.8</ele>
        <time>2024-08-14T13:34:03Z</time>
      </trkpt>
      <trkpt lat="44.9874" lon="6.10745">
        <ele>931.6</ele>
        <time>2024-08-14T13:34:04Z</time>
      </trkpt>
      <trkpt lat="44.9874" lon="6.10745">
        <ele>931.4</ele>
        <time>2024-08-14T13:34:05Z</time>
      </trkpt>
      <trkpt lat="44.98739" lon="6.10741">
        <ele>931.2</ele>
        <time>2024-08-14T13:34:06Z</time>
      </trkpt>
      <trkpt lat="44.98739" lon="6.10741">
        <ele>931.2</ele>
        <time>2024-08-14T13:34:07Z</time>
      </trkpt>
      <trkpt lat="44.98738" lon="6.10738">
        <ele>931</ele>
        <time>2024-08-14T13:34:08Z</time>
      </trkpt>
      <trkpt lat="44.98738" lon="6.10738">
        <ele>931</ele>
        <time>2024-08-14T13:34:09Z</time>
      </trkpt>
      <trkpt lat="44.98736" lon="6.10734">
        <ele>931</ele>
        <time>2024-08-14T13:34:10Z</time>
      </trkpt>
      <trkpt lat="44.98736" lon="6.10734">
        <ele>930.8</ele>
        <time>2024-08-14T13:34:11Z</time>
      </trkpt>
      <trkpt lat="44.98735" lon="6.10731">
        <ele>930.6</ele>
        <time>2024-08-14T13:34:12Z</time>
      </trkpt>
      <trkpt lat="44.98735" lon="6.10731">
        <ele>930.6</ele>
        <time>2024-08-14T13:34:13Z</time>
      </trkpt>
      <trkpt lat="44.98734" lon="6.10727">
        <ele>930.6</ele>
        <time>2024-08-14T13:34:14Z</time>
      </trkpt>
      <trkpt lat="44.98734" lon="6.10727">
        <ele>930.4</ele>
        <time>2024-08-14T13:34:15Z</time>
      </trkpt>
      <trkpt lat="44.98732" lon="6.10724">
        <ele>930.4</ele>
        <time>2024-08-14T13:34:16Z</time>
      </trkpt>
      <trkpt lat="44.98732" lon="6.10724">
        <ele>930.2</ele>
        <time>2024-08-14T13:34:17Z</time>
      </trkpt>
      <trkpt lat="44.98731" lon="6.10719">
        <ele>930</ele>
        <time>2024-08-14T13:34:18Z</time>
      </trkpt>
      <trkpt lat="44.98731" lon="6.10719">
        <ele>929.8</ele>
        <time>2024-08-14T13:34:19Z</time>
      </trkpt>
      <trkpt lat="44.9873" lon="6.10716">
        <ele>929.8</ele>
        <time>2024-08-14T13:34:20Z</time>
      </trkpt>
      <trkpt lat="44.9873" lon="6.10716">
        <ele>929.6</ele>
        <time>2024-08-14T13:34:21Z</time>
      </trkpt>
      <trkpt lat="44.98728" lon="6.10713">
        <ele>929.6</ele>
        <time>2024-08-14T13:34:22Z</time>
      </trkpt>
      <trkpt lat="44.98728" lon="6.10713">
        <ele>929.4</ele>
        <time>2024-08-14T13:34:23Z</time>
      </trkpt>
      <trkpt lat="44.98726" lon="6.1071">
        <ele>929.4</ele>
        <time>2024-08-14T13:34:24Z</time>
      </trkpt>
      <trkpt lat="44.98726" lon="6.1071">
        <ele>929.2</ele>
        <time>2024-08-14T13:34:25Z</time>
      </trkpt>
      <trkpt lat="44.98725" lon="6.10706">
        <ele>929.2</ele>
        <time>2024-08-14T13:34:26Z</time>
      </trkpt>
      <trkpt lat="44.98723" lon="6.10705">
        <ele>928.8</ele>
        <time>2024-08-14T13:34:27Z</time>
      </trkpt>
      <trkpt lat="44.98721" lon="6.10703">
        <ele>928.8</ele>
        <time>2024-08-14T13:34:28Z</time>
      </trkpt>
      <trkpt lat="44.98721" lon="6.10703">
        <ele>928.6</ele>
        <time>2024-08-14T13:34:29Z</time>
      </trkpt>
      <trkpt lat="44.98719" lon="6.107">
        <ele>928.6</ele>
        <time>2024-08-14T13:34:30Z</time>
      </trkpt>
      <trkpt lat="44.98719" lon="6.107">
        <ele>928.2</ele>
        <time>2024-08-14T13:34:31Z</time>
      </trkpt>
      <trkpt lat="44.98719" lon="6.107">
        <ele>928.2</ele>
        <time>2024-08-14T13:34:32Z</time>
      </trkpt>
      <trkpt lat="44.98716" lon="6.10696">
        <ele>928.2</ele>
        <time>2024-08-14T13:34:33Z</time>
      </trkpt>
      <trkpt lat="44.98715" lon="6.10694">
        <ele>928.2</ele>
        <time>2024-08-14T13:34:34Z</time>
      </trkpt>
      <trkpt lat="44.98715" lon="6.10694">
        <ele>927.8</ele>
        <time>2024-08-14T13:34:35Z</time>
      </trkpt>
      <trkpt lat="44.98713" lon="6.10691">
        <ele>927.8</ele>
        <time>2024-08-14T13:34:36Z</time>
      </trkpt>
      <trkpt lat="44.98713" lon="6.10691">
        <ele>927.6</ele>
        <time>2024-08-14T13:34:37Z</time>
      </trkpt>
      <trkpt lat="44.98711" lon="6.10688">
        <ele>927.6</ele>
        <time>2024-08-14T13:34:38Z</time>
      </trkpt>
      <trkpt lat="44.98711" lon="6.10688">
        <ele>927.4</ele>
        <time>2024-08-14T13:34:39Z</time>
      </trkpt>
      <trkpt lat="44.98711" lon="6.10688">
        <ele>927.4</ele>
        <time>2024-08-14T13:34:40Z</time>
      </trkpt>
      <trkpt lat="44.98709" lon="6.10683">
        <ele>927.2</ele>
        <time>2024-08-14T13:34:41Z</time>
      </trkpt>
      <trkpt lat="44.98708" lon="6.10681">
        <ele>927.2</ele>
        <time>2024-08-14T13:34:42Z</time>
      </trkpt>
      <trkpt lat="44.98708" lon="6.10681">
        <ele>927</ele>
        <time>2024-08-14T13:34:43Z</time>
      </trkpt>
      <trkpt lat="44.98708" lon="6.10681">
        <ele>927</ele>
        <time>2024-08-14T13:34:44Z</time>
      </trkpt>
      <trkpt lat="44.98706" lon="6.10675">
        <ele>926.8</ele>
        <time>2024-08-14T13:34:45Z</time>
      </trkpt>
      <trkpt lat="44.98705" lon="6.10673">
        <ele>926.6</ele>
        <time>2024-08-14T13:34:46Z</time>
      </trkpt>
      <trkpt lat="44.98705" lon="6.10673">
        <ele>926.6</ele>
        <time>2024-08-14T13:34:47Z</time>
      </trkpt>
      <trkpt lat="44.98704" lon="6.10669">
        <ele>926.6</ele>
        <time>2024-08-14T13:34:48Z</time>
      </trkpt>
      <trkpt lat="44.98704" lon="6.10669">
        <ele>926.4</ele>
        <time>2024-08-14T13:34:49Z</time>
      </trkpt>
      <trkpt lat="44.98703" lon="6.10664">
        <ele>926.4</ele>
        <time>2024-08-14T13:34:50Z</time>
      </trkpt>
      <trkpt lat="44.98703" lon="6.10662">
        <ele>926.2</ele>
        <time>2024-08-14T13:34:51Z</time>
      </trkpt>
      <trkpt lat="44.98703" lon="6.10662">
        <ele>926</ele>
        <time>2024-08-14T13:34:52Z</time>
      </trkpt>
      <trkpt lat="44.98703" lon="6.10658">
        <ele>925.8</ele>
        <time>2024-08-14T13:34:53Z</time>
      </trkpt>
      <trkpt lat="44.98703" lon="6.10658">
        <ele>925.6</ele>
        <time>2024-08-14T13:34:54Z</time>
      </trkpt>
      <trkpt lat="44.98703" lon="6.10653">
        <ele>925.6</ele>
        <time>2024-08-14T13:34:55Z</time>
      </trkpt>
      <trkpt lat="44.98703" lon="6.10653">
        <ele>925.4</ele>
        <time>2024-08-14T13:34:56Z</time>
      </trkpt>
      <trkpt lat="44.98702" lon="6.10648">
        <ele>925.2</ele>
        <time>2024-08-14T13:34:57Z</time>
      </trkpt>
      <trkpt lat="44.98702" lon="6.10648">
        <ele>925</ele>
        <time>2024-08-14T13:34:58Z</time>
      </trkpt>
      <trkpt lat="44.98702" lon="6.10644">
        <ele>925</ele>
        <time>2024-08-14T13:34:59Z</time>
      </trkpt>
      <trkpt lat="44.98703" lon="6.10641">
        <ele>925.2</ele>
        <time>2024-08-14T13:35:00Z</time>
      </trkpt>
      <trkpt lat="44.98703" lon="6.10641">
        <ele>925.2</ele>
        <time>2024-08-14T13:35:01Z</time>
      </trkpt>
      <trkpt lat="44.98703" lon="6.10637">
        <ele>924.8</ele>
        <time>2024-08-14T13:35:02Z</time>
      </trkpt>
      <trkpt lat="44.98703" lon="6.10637">
        <ele>924.8</ele>
        <time>2024-08-14T13:35:03Z</time>
      </trkpt>
      <trkpt lat="44.98705" lon="6.10633">
        <ele>924.8</ele>
        <time>2024-08-14T13:35:04Z</time>
      </trkpt>
      <trkpt lat="44.98705" lon="6.10633">
        <ele>924.6</ele>
        <time>2024-08-14T13:35:05Z</time>
      </trkpt>
      <trkpt lat="44.98706" lon="6.10629">
        <ele>924.4</ele>
        <time>2024-08-14T13:35:06Z</time>
      </trkpt>
      <trkpt lat="44.98706" lon="6.10629">
        <ele>924.2</ele>
        <time>2024-08-14T13:35:07Z</time>
      </trkpt>
      <trkpt lat="44.98706" lon="6.10624">
        <ele>924.2</ele>
        <time>2024-08-14T13:35:08Z</time>
      </trkpt>
      <trkpt lat="44.98706" lon="6.10624">
        <ele>924.2</ele>
        <time>2024-08-14T13:35:09Z</time>
      </trkpt>
      <trkpt lat="44.98707" lon="6.1062">
        <ele>924.2</ele>
        <time>2024-08-14T13:35:10Z</time>
      </trkpt>
      <trkpt lat="44.98707" lon="6.1062">
        <ele>924</ele>
        <time>2024-08-14T13:35:11Z</time>
      </trkpt>
      <trkpt lat="44.98708" lon="6.10615">
        <ele>924</ele>
        <time>2024-08-14T13:35:12Z</time>
      </trkpt>
      <trkpt lat="44.98708" lon="6.10615">
        <ele>923.8</ele>
        <time>2024-08-14T13:35:13Z</time>
      </trkpt>
      <trkpt lat="44.98709" lon="6.10611">
        <ele>923.6</ele>
        <time>2024-08-14T13:35:14Z</time>
      </trkpt>
      <trkpt lat="44.98709" lon="6.10611">
        <ele>923.4</ele>
        <time>2024-08-14T13:35:15Z</time>
      </trkpt>
      <trkpt lat="44.9871" lon="6.10607">
        <ele>923.4</ele>
        <time>2024-08-14T13:35:16Z</time>
      </trkpt>
      <trkpt lat="44.9871" lon="6.10607">
        <ele>923.6</ele>
        <time>2024-08-14T13:35:17Z</time>
      </trkpt>
      <trkpt lat="44.98712" lon="6.10603">
        <ele>923.6</ele>
        <time>2024-08-14T13:35:18Z</time>
      </trkpt>
      <trkpt lat="44.98713" lon="6.106">
        <ele>923.6</ele>
        <time>2024-08-14T13:35:19Z</time>
      </trkpt>
      <trkpt lat="44.98713" lon="6.106">
        <ele>923.6</ele>
        <time>2024-08-14T13:35:20Z</time>
      </trkpt>
      <trkpt lat="44.98715" lon="6.10596">
        <ele>922.8</ele>
        <time>2024-08-14T13:35:21Z</time>
      </trkpt>
      <trkpt lat="44.98715" lon="6.10596">
        <ele>922</ele>
        <time>2024-08-14T13:35:22Z</time>
      </trkpt>
      <trkpt lat="44.98717" lon="6.10593">
        <ele>922</ele>
        <time>2024-08-14T13:35:23Z</time>
      </trkpt>
      <trkpt lat="44.98717" lon="6.10593">
        <ele>922</ele>
        <time>2024-08-14T13:35:24Z</time>
      </trkpt>
      <trkpt lat="44.98719" lon="6.10589">
        <ele>921.6</ele>
        <time>2024-08-14T13:35:25Z</time>
      </trkpt>
      <trkpt lat="44.98719" lon="6.10589">
        <ele>921.6</ele>
        <time>2024-08-14T13:35:26Z</time>
      </trkpt>
      <trkpt lat="44.98722" lon="6.10586">
        <ele>921.4</ele>
        <time>2024-08-14T13:35:27Z</time>
      </trkpt>
      <trkpt lat="44.98722" lon="6.10586">
        <ele>921.4</ele>
        <time>2024-08-14T13:35:28Z</time>
      </trkpt>
      <trkpt lat="44.98725" lon="6.10583">
        <ele>921.4</ele>
        <time>2024-08-14T13:35:29Z</time>
      </trkpt>
      <trkpt lat="44.98725" lon="6.10583">
        <ele>921.4</ele>
        <time>2024-08-14T13:35:30Z</time>
      </trkpt>
      <trkpt lat="44.98727" lon="6.1058">
        <ele>921.4</ele>
        <time>2024-08-14T13:35:31Z</time>
      </trkpt>
      <trkpt lat="44.98727" lon="6.1058">
        <ele>921.2</ele>
        <time>2024-08-14T13:35:32Z</time>
      </trkpt>
      <trkpt lat="44.98729" lon="6.10577">
        <ele>921</ele>
        <time>2024-08-14T13:35:33Z</time>
      </trkpt>
      <trkpt lat="44.98729" lon="6.10577">
        <ele>921</ele>
        <time>2024-08-14T13:35:34Z</time>
      </trkpt>
      <trkpt lat="44.98731" lon="6.10573">
        <ele>921</ele>
        <time>2024-08-14T13:35:35Z</time>
      </trkpt>
      <trkpt lat="44.98733" lon="6.10572">
        <ele>921</ele>
        <time>2024-08-14T13:35:36Z</time>
      </trkpt>
      <trkpt lat="44.98733" lon="6.10572">
        <ele>920.8</ele>
        <time>2024-08-14T13:35:37Z</time>
      </trkpt>
      <trkpt lat="44.98735" lon="6.10569">
        <ele>920.8</ele>
        <time>2024-08-14T13:35:38Z</time>
      </trkpt>
      <trkpt lat="44.98735" lon="6.10569">
        <ele>920.8</ele>
        <time>2024-08-14T13:35:39Z</time>
      </trkpt>
      <trkpt lat="44.98737" lon="6.10566">
        <ele>920.6</ele>
        <time>2024-08-14T13:35:40Z</time>
      </trkpt>
      <trkpt lat="44.98737" lon="6.10566">
        <ele>920.4</ele>
        <time>2024-08-14T13:35:41Z</time>
      </trkpt>
      <trkpt lat="44.98739" lon="6.10564">
        <ele>920.2</ele>
        <time>2024-08-14T13:35:42Z</time>
      </trkpt>
      <trkpt lat="44.9874" lon="6.10562">
        <ele>920.2</ele>
        <time>2024-08-14T13:35:43Z</time>
      </trkpt>
      <trkpt lat="44.9874" lon="6.10562">
        <ele>920</ele>
        <time>2024-08-14T13:35:44Z</time>
      </trkpt>
      <trkpt lat="44.98742" lon="6.10558">
        <ele>920</ele>
        <time>2024-08-14T13:35:45Z</time>
      </trkpt>
      <trkpt lat="44.98742" lon="6.10558">
        <ele>920</ele>
        <time>2024-08-14T13:35:46Z</time>
      </trkpt>
      <trkpt lat="44.98743" lon="6.10553">
        <ele>920</ele>
        <time>2024-08-14T13:35:47Z</time>
      </trkpt>
      <trkpt lat="44.98743" lon="6.10553">
        <ele>919.8</ele>
        <time>2024-08-14T13:35:48Z</time>
      </trkpt>
      <trkpt lat="44.98743" lon="6.10549">
        <ele>919.8</ele>
        <time>2024-08-14T13:35:49Z</time>
      </trkpt>
      <trkpt lat="44.98743" lon="6.10549">
        <ele>920.4</ele>
        <time>2024-08-14T13:35:50Z</time>
      </trkpt>
      <trkpt lat="44.98743" lon="6.10546">
        <ele>920.4</ele>
        <time>2024-08-14T13:35:51Z</time>
      </trkpt>
      <trkpt lat="44.98743" lon="6.10546">
        <ele>920</ele>
        <time>2024-08-14T13:35:52Z</time>
      </trkpt>
      <trkpt lat="44.98745" lon="6.10544">
        <ele>920</ele>
        <time>2024-08-14T13:35:53Z</time>
      </trkpt>
      <trkpt lat="44.98745" lon="6.10544">
        <ele>920</ele>
        <time>2024-08-14T13:35:54Z</time>
      </trkpt>
      <trkpt lat="44.98745" lon="6.10544">
        <ele>919.8</ele>
        <time>2024-08-14T13:35:55Z</time>
      </trkpt>
      <trkpt lat="44.98746" lon="6.1054">
        <ele>919.6</ele>
        <time>2024-08-14T13:35:56Z</time>
      </trkpt>
      <trkpt lat="44.98746" lon="6.10537">
        <ele>919.6</ele>
        <time>2024-08-14T13:35:57Z</time>
      </trkpt>
      <trkpt lat="44.98746" lon="6.10537">
        <ele>919.6</ele>
        <time>2024-08-14T13:35:58Z</time>
      </trkpt>
      <trkpt lat="44.98747" lon="6.10533">
        <ele>919.4</ele>
        <time>2024-08-14T13:35:59Z</time>
      </trkpt>
      <trkpt lat="44.98747" lon="6.10533">
        <ele>919.2</ele>
        <time>2024-08-14T13:36:00Z</time>
      </trkpt>
      <trkpt lat="44.98747" lon="6.10533">
        <ele>919.2</ele>
        <time>2024-08-14T13:36:01Z</time>
      </trkpt>
      <trkpt lat="44.9875" lon="6.10527">
        <ele>919</ele>
        <time>2024-08-14T13:36:02Z</time>
      </trkpt>
      <trkpt lat="44.98752" lon="6.10525">
        <ele>918.8</ele>
        <time>2024-08-14T13:36:03Z</time>
      </trkpt>
      <trkpt lat="44.98753" lon="6.10523">
        <ele>918.8</ele>
        <time>2024-08-14T13:36:04Z</time>
      </trkpt>
      <trkpt lat="44.98754" lon="6.10521">
        <ele>918.6</ele>
        <time>2024-08-14T13:36:05Z</time>
      </trkpt>
      <trkpt lat="44.98754" lon="6.10521">
        <ele>918.6</ele>
        <time>2024-08-14T13:36:06Z</time>
      </trkpt>
      <trkpt lat="44.98755" lon="6.10517">
        <ele>918.4</ele>
        <time>2024-08-14T13:36:07Z</time>
      </trkpt>
      <trkpt lat="44.98756" lon="6.10515">
        <ele>918.4</ele>
        <time>2024-08-14T13:36:08Z</time>
      </trkpt>
      <trkpt lat="44.98756" lon="6.10515">
        <ele>918.4</ele>
        <time>2024-08-14T13:36:09Z</time>
      </trkpt>
      <trkpt lat="44.98758" lon="6.10511">
        <ele>918.4</ele>
        <time>2024-08-14T13:36:10Z</time>
      </trkpt>
      <trkpt lat="44.98759" lon="6.10509">
        <ele>918.4</ele>
        <time>2024-08-14T13:36:11Z</time>
      </trkpt>
      <trkpt lat="44.98759" lon="6.10509">
        <ele>918.2</ele>
        <time>2024-08-14T13:36:12Z</time>
      </trkpt>
      <trkpt lat="44.9876" lon="6.10505">
        <ele>918.2</ele>
        <time>2024-08-14T13:36:13Z</time>
      </trkpt>
      <trkpt lat="44.9876" lon="6.10505">
        <ele>918</ele>
        <time>2024-08-14T13:36:14Z</time>
      </trkpt>
      <trkpt lat="44.98762" lon="6.10502">
        <ele>917.8</ele>
        <time>2024-08-14T13:36:15Z</time>
      </trkpt>
      <trkpt lat="44.98762" lon="6.10502">
        <ele>917.8</ele>
        <time>2024-08-14T13:36:16Z</time>
      </trkpt>
      <trkpt lat="44.98765" lon="6.10499">
        <ele>917.4</ele>
        <time>2024-08-14T13:36:17Z</time>
      </trkpt>
      <trkpt lat="44.98765" lon="6.10499">
        <ele>917.4</ele>
        <time>2024-08-14T13:36:18Z</time>
      </trkpt>
      <trkpt lat="44.98767" lon="6.10496">
        <ele>917.4</ele>
        <time>2024-08-14T13:36:19Z</time>
      </trkpt>
      <trkpt lat="44.98767" lon="6.10496">
        <ele>917.4</ele>
        <time>2024-08-14T13:36:20Z</time>
      </trkpt>
      <trkpt lat="44.98769" lon="6.10492">
        <ele>917</ele>
        <time>2024-08-14T13:36:21Z</time>
      </trkpt>
      <trkpt lat="44.98769" lon="6.10492">
        <ele>917</ele>
        <time>2024-08-14T13:36:22Z</time>
      </trkpt>
      <trkpt lat="44.98769" lon="6.10492">
        <ele>917</ele>
        <time>2024-08-14T13:36:23Z</time>
      </trkpt>
      <trkpt lat="44.98771" lon="6.10488">
        <ele>916.8</ele>
        <time>2024-08-14T13:36:24Z</time>
      </trkpt>
      <trkpt lat="44.98771" lon="6.10486">
        <ele>916.6</ele>
        <time>2024-08-14T13:36:25Z</time>
      </trkpt>
      <trkpt lat="44.98771" lon="6.10486">
        <ele>916.4</ele>
        <time>2024-08-14T13:36:26Z</time>
      </trkpt>
      <trkpt lat="44.98771" lon="6.10486">
        <ele>916.4</ele>
        <time>2024-08-14T13:36:27Z</time>
      </trkpt>
      <trkpt lat="44.98773" lon="6.10482">
        <ele>916.4</ele>
        <time>2024-08-14T13:36:28Z</time>
      </trkpt>
      <trkpt lat="44.98773" lon="6.1048">
        <ele>916.2</ele>
        <time>2024-08-14T13:36:29Z</time>
      </trkpt>
      <trkpt lat="44.98774" lon="6.10477">
        <ele>916.2</ele>
        <time>2024-08-14T13:36:30Z</time>
      </trkpt>
      <trkpt lat="44.98774" lon="6.10477">
        <ele>916</ele>
        <time>2024-08-14T13:36:31Z</time>
      </trkpt>
      <trkpt lat="44.98776" lon="6.10474">
        <ele>916</ele>
        <time>2024-08-14T13:36:32Z</time>
      </trkpt>
      <trkpt lat="44.98776" lon="6.10474">
        <ele>916</ele>
        <time>2024-08-14T13:36:33Z</time>
      </trkpt>
      <trkpt lat="44.98778" lon="6.10471">
        <ele>915.8</ele>
        <time>2024-08-14T13:36:34Z</time>
      </trkpt>
      <trkpt lat="44.98778" lon="6.10471">
        <ele>915.8</ele>
        <time>2024-08-14T13:36:35Z</time>
      </trkpt>
      <trkpt lat="44.9878" lon="6.10467">
        <ele>915.8</ele>
        <time>2024-08-14T13:36:36Z</time>
      </trkpt>
      <trkpt lat="44.9878" lon="6.10467">
        <ele>915.6</ele>
        <time>2024-08-14T13:36:37Z</time>
      </trkpt>
      <trkpt lat="44.98782" lon="6.10464">
        <ele>915.2</ele>
        <time>2024-08-14T13:36:38Z</time>
      </trkpt>
      <trkpt lat="44.98782" lon="6.10464">
        <ele>915.2</ele>
        <time>2024-08-14T13:36:39Z</time>
      </trkpt>
      <trkpt lat="44.98783" lon="6.10461">
        <ele>915.2</ele>
        <time>2024-08-14T13:36:40Z</time>
      </trkpt>
      <trkpt lat="44.98785" lon="6.10459">
        <ele>915</ele>
        <time>2024-08-14T13:36:41Z</time>
      </trkpt>
      <trkpt lat="44.98788" lon="6.10457">
        <ele>914.8</ele>
        <time>2024-08-14T13:36:42Z</time>
      </trkpt>
      <trkpt lat="44.98788" lon="6.10457">
        <ele>914.8</ele>
        <time>2024-08-14T13:36:43Z</time>
      </trkpt>
      <trkpt lat="44.9879" lon="6.10454">
        <ele>914.8</ele>
        <time>2024-08-14T13:36:44Z</time>
      </trkpt>
      <trkpt lat="44.9879" lon="6.10454">
        <ele>914.8</ele>
        <time>2024-08-14T13:36:45Z</time>
      </trkpt>
      <trkpt lat="44.98791" lon="6.1045">
        <ele>914.6</ele>
        <time>2024-08-14T13:36:46Z</time>
      </trkpt>
      <trkpt lat="44.98791" lon="6.1045">
        <ele>914.6</ele>
        <time>2024-08-14T13:36:47Z</time>
      </trkpt>
      <trkpt lat="44.98793" lon="6.10447">
        <ele>914.6</ele>
        <time>2024-08-14T13:36:48Z</time>
      </trkpt>
      <trkpt lat="44.98793" lon="6.10447">
        <ele>914.6</ele>
        <time>2024-08-14T13:36:49Z</time>
      </trkpt>
      <trkpt lat="44.98793" lon="6.10447">
        <ele>914.6</ele>
        <time>2024-08-14T13:36:50Z</time>
      </trkpt>
      <trkpt lat="44.98795" lon="6.10443">
        <ele>914.4</ele>
        <time>2024-08-14T13:36:51Z</time>
      </trkpt>
      <trkpt lat="44.98795" lon="6.1044">
        <ele>914.2</ele>
        <time>2024-08-14T13:36:52Z</time>
      </trkpt>
      <trkpt lat="44.98795" lon="6.1044">
        <ele>914</ele>
        <time>2024-08-14T13:36:53Z</time>
      </trkpt>
      <trkpt lat="44.98796" lon="6.10436">
        <ele>914</ele>
        <time>2024-08-14T13:36:54Z</time>
      </trkpt>
      <trkpt lat="44.98796" lon="6.10436">
        <ele>914</ele>
        <time>2024-08-14T13:36:55Z</time>
      </trkpt>
      <trkpt lat="44.98797" lon="6.10432">
        <ele>914</ele>
        <time>2024-08-14T13:36:56Z</time>
      </trkpt>
      <trkpt lat="44.98797" lon="6.10432">
        <ele>914</ele>
        <time>2024-08-14T13:36:57Z</time>
      </trkpt>
      <trkpt lat="44.98799" lon="6.1043">
        <ele>913.8</ele>
        <time>2024-08-14T13:36:58Z</time>
      </trkpt>
      <trkpt lat="44.98799" lon="6.1043">
        <ele>913.8</ele>
        <time>2024-08-14T13:36:59Z</time>
      </trkpt>
      <trkpt lat="44.98801" lon="6.10427">
        <ele>913.6</ele>
        <time>2024-08-14T13:37:00Z</time>
      </trkpt>
      <trkpt lat="44.98801" lon="6.10427">
        <ele>913.6</ele>
        <time>2024-08-14T13:37:01Z</time>
      </trkpt>
      <trkpt lat="44.98804" lon="6.10424">
        <ele>913.8</ele>
        <time>2024-08-14T13:37:02Z</time>
      </trkpt>
      <trkpt lat="44.98804" lon="6.10424">
        <ele>913.8</ele>
        <time>2024-08-14T13:37:03Z</time>
      </trkpt>
      <trkpt lat="44.98805" lon="6.10422">
        <ele>913.6</ele>
        <time>2024-08-14T13:37:04Z</time>
      </trkpt>
      <trkpt lat="44.98805" lon="6.10422">
        <ele>913.6</ele>
        <time>2024-08-14T13:37:05Z</time>
      </trkpt>
      <trkpt lat="44.98806" lon="6.10419">
        <ele>913.4</ele>
        <time>2024-08-14T13:37:06Z</time>
      </trkpt>
      <trkpt lat="44.98806" lon="6.10419">
        <ele>913.2</ele>
        <time>2024-08-14T13:37:07Z</time>
      </trkpt>
      <trkpt lat="44.98808" lon="6.10415">
        <ele>913.2</ele>
        <time>2024-08-14T13:37:08Z</time>
      </trkpt>
      <trkpt lat="44.98808" lon="6.10415">
        <ele>913</ele>
        <time>2024-08-14T13:37:09Z</time>
      </trkpt>
      <trkpt lat="44.98808" lon="6.10412">
        <ele>913</ele>
        <time>2024-08-14T13:37:10Z</time>
      </trkpt>
      <trkpt lat="44.98808" lon="6.10412">
        <ele>913</ele>
        <time>2024-08-14T13:37:11Z</time>
      </trkpt>
      <trkpt lat="44.98809" lon="6.10408">
        <ele>913</ele>
        <time>2024-08-14T13:37:12Z</time>
      </trkpt>
      <trkpt lat="44.98809" lon="6.10408">
        <ele>913</ele>
        <time>2024-08-14T13:37:13Z</time>
      </trkpt>
      <trkpt lat="44.98811" lon="6.10405">
        <ele>912.8</ele>
        <time>2024-08-14T13:37:14Z</time>
      </trkpt>
      <trkpt lat="44.98811" lon="6.10405">
        <ele>912.8</ele>
        <time>2024-08-14T13:37:15Z</time>
      </trkpt>
      <trkpt lat="44.98813" lon="6.10402">
        <ele>912.6</ele>
        <time>2024-08-14T13:37:16Z</time>
      </trkpt>
      <trkpt lat="44.98814" lon="6.104">
        <ele>912.4</ele>
        <time>2024-08-14T13:37:17Z</time>
      </trkpt>
      <trkpt lat="44.98814" lon="6.104">
        <ele>912.4</ele>
        <time>2024-08-14T13:37:18Z</time>
      </trkpt>
      <trkpt lat="44.98816" lon="6.10398">
        <ele>912.4</ele>
        <time>2024-08-14T13:37:19Z</time>
      </trkpt>
      <trkpt lat="44.98816" lon="6.10398">
        <ele>912.4</ele>
        <time>2024-08-14T13:37:20Z</time>
      </trkpt>
      <trkpt lat="44.98818" lon="6.10394">
        <ele>912.4</ele>
        <time>2024-08-14T13:37:21Z</time>
      </trkpt>
      <trkpt lat="44.98818" lon="6.10394">
        <ele>912.4</ele>
        <time>2024-08-14T13:37:22Z</time>
      </trkpt>
      <trkpt lat="44.9882" lon="6.10391">
        <ele>912.4</ele>
        <time>2024-08-14T13:37:23Z</time>
      </trkpt>
      <trkpt lat="44.9882" lon="6.10391">
        <ele>912.4</ele>
        <time>2024-08-14T13:37:24Z</time>
      </trkpt>
      <trkpt lat="44.98821" lon="6.10388">
        <ele>912.4</ele>
        <time>2024-08-14T13:37:25Z</time>
      </trkpt>
      <trkpt lat="44.98821" lon="6.10388">
        <ele>912.4</ele>
        <time>2024-08-14T13:37:26Z</time>
      </trkpt>
      <trkpt lat="44.98822" lon="6.10386">
        <ele>912.2</ele>
        <time>2024-08-14T13:37:27Z</time>
      </trkpt>
      <trkpt lat="44.98822" lon="6.10386">
        <ele>912.2</ele>
        <time>2024-08-14T13:37:28Z</time>
      </trkpt>
      <trkpt lat="44.98824" lon="6.10383">
        <ele>912</ele>
        <time>2024-08-14T13:37:29Z</time>
      </trkpt>
      <trkpt lat="44.98824" lon="6.10383">
        <ele>912</ele>
        <time>2024-08-14T13:37:30Z</time>
      </trkpt>
      <trkpt lat="44.98826" lon="6.10379">
        <ele>912</ele>
        <time>2024-08-14T13:37:31Z</time>
      </trkpt>
      <trkpt lat="44.98826" lon="6.10379">
        <ele>912</ele>
        <time>2024-08-14T13:37:32Z</time>
      </trkpt>
      <trkpt lat="44.98828" lon="6.10376">
        <ele>912</ele>
        <time>2024-08-14T13:37:33Z</time>
      </trkpt>
      <trkpt lat="44.98828" lon="6.10376">
        <ele>911.8</ele>
        <time>2024-08-14T13:37:34Z</time>
      </trkpt>
      <trkpt lat="44.9883" lon="6.10374">
        <ele>911.8</ele>
        <time>2024-08-14T13:37:35Z</time>
      </trkpt>
      <trkpt lat="44.9883" lon="6.10374">
        <ele>911.8</ele>
        <time>2024-08-14T13:37:36Z</time>
      </trkpt>
      <trkpt lat="44.98832" lon="6.1037">
        <ele>911.6</ele>
        <time>2024-08-14T13:37:37Z</time>
      </trkpt>
      <trkpt lat="44.98832" lon="6.1037">
        <ele>911.6</ele>
        <time>2024-08-14T13:37:38Z</time>
      </trkpt>
      <trkpt lat="44.98834" lon="6.10367">
        <ele>911.4</ele>
        <time>2024-08-14T13:37:39Z</time>
      </trkpt>
      <trkpt lat="44.98834" lon="6.10367">
        <ele>911.2</ele>
        <time>2024-08-14T13:37:40Z</time>
      </trkpt>
      <trkpt lat="44.98836" lon="6.10364">
        <ele>911.2</ele>
        <time>2024-08-14T13:37:41Z</time>
      </trkpt>
      <trkpt lat="44.98836" lon="6.10364">
        <ele>911.2</ele>
        <time>2024-08-14T13:37:42Z</time>
      </trkpt>
      <trkpt lat="44.98838" lon="6.10362">
        <ele>911.2</ele>
        <time>2024-08-14T13:37:43Z</time>
      </trkpt>
      <trkpt lat="44.98838" lon="6.10362">
        <ele>911.4</ele>
        <time>2024-08-14T13:37:44Z</time>
      </trkpt>
      <trkpt lat="44.9884" lon="6.10359">
        <ele>911.4</ele>
        <time>2024-08-14T13:37:45Z</time>
      </trkpt>
      <trkpt lat="44.9884" lon="6.10359">
        <ele>911.2</ele>
        <time>2024-08-14T13:37:46Z</time>
      </trkpt>
      <trkpt lat="44.98841" lon="6.10355">
        <ele>911</ele>
        <time>2024-08-14T13:37:47Z</time>
      </trkpt>
      <trkpt lat="44.98842" lon="6.10353">
        <ele>910.8</ele>
        <time>2024-08-14T13:37:48Z</time>
      </trkpt>
      <trkpt lat="44.98842" lon="6.10353">
        <ele>910.8</ele>
        <time>2024-08-14T13:37:49Z</time>
      </trkpt>
      <trkpt lat="44.98844" lon="6.10348">
        <ele>910.8</ele>
        <time>2024-08-14T13:37:50Z</time>
      </trkpt>
      <trkpt lat="44.98844" lon="6.10348">
        <ele>910.6</ele>
        <time>2024-08-14T13:37:51Z</time>
      </trkpt>
      <trkpt lat="44.98847" lon="6.10347">
        <ele>910.4</ele>
        <time>2024-08-14T13:37:52Z</time>
      </trkpt>
      <trkpt lat="44.98849" lon="6.10345">
        <ele>910.4</ele>
        <time>2024-08-14T13:37:53Z</time>
      </trkpt>
      <trkpt lat="44.98849" lon="6.10345">
        <ele>910.4</ele>
        <time>2024-08-14T13:37:54Z</time>
      </trkpt>
      <trkpt lat="44.98851" lon="6.10344">
        <ele>910.2</ele>
        <time>2024-08-14T13:37:55Z</time>
      </trkpt>
      <trkpt lat="44.98852" lon="6.10342">
        <ele>910.2</ele>
        <time>2024-08-14T13:37:56Z</time>
      </trkpt>
      <trkpt lat="44.98853" lon="6.1034">
        <ele>910</ele>
        <time>2024-08-14T13:37:57Z</time>
      </trkpt>
      <trkpt lat="44.98854" lon="6.10338">
        <ele>910</ele>
        <time>2024-08-14T13:37:58Z</time>
      </trkpt>
      <trkpt lat="44.98856" lon="6.10336">
        <ele>910</ele>
        <time>2024-08-14T13:37:59Z</time>
      </trkpt>
      <trkpt lat="44.98857" lon="6.10334">
        <ele>910</ele>
        <time>2024-08-14T13:38:00Z</time>
      </trkpt>
      <trkpt lat="44.98857" lon="6.10334">
        <ele>909.8</ele>
        <time>2024-08-14T13:38:01Z</time>
      </trkpt>
      <trkpt lat="44.9886" lon="6.10331">
        <ele>909.8</ele>
        <time>2024-08-14T13:38:02Z</time>
      </trkpt>
      <trkpt lat="44.9886" lon="6.10331">
        <ele>909.8</ele>
        <time>2024-08-14T13:38:03Z</time>
      </trkpt>
      <trkpt lat="44.98861" lon="6.10328">
        <ele>909.8</ele>
        <time>2024-08-14T13:38:04Z</time>
      </trkpt>
      <trkpt lat="44.98861" lon="6.10328">
        <ele>909.8</ele>
        <time>2024-08-14T13:38:05Z</time>
      </trkpt>
      <trkpt lat="44.98863" lon="6.10325">
        <ele>909.8</ele>
        <time>2024-08-14T13:38:06Z</time>
      </trkpt>
      <trkpt lat="44.98863" lon="6.10325">
        <ele>909.4</ele>
        <time>2024-08-14T13:38:07Z</time>
      </trkpt>
      <trkpt lat="44.98864" lon="6.10323">
        <ele>909.4</ele>
        <time>2024-08-14T13:38:08Z</time>
      </trkpt>
      <trkpt lat="44.98864" lon="6.10323">
        <ele>909.4</ele>
        <time>2024-08-14T13:38:09Z</time>
      </trkpt>
      <trkpt lat="44.98866" lon="6.1032">
        <ele>909.4</ele>
        <time>2024-08-14T13:38:10Z</time>
      </trkpt>
      <trkpt lat="44.98866" lon="6.1032">
        <ele>909.4</ele>
        <time>2024-08-14T13:38:11Z</time>
      </trkpt>
      <trkpt lat="44.98868" lon="6.10317">
        <ele>909.4</ele>
        <time>2024-08-14T13:38:12Z</time>
      </trkpt>
      <trkpt lat="44.98869" lon="6.10316">
        <ele>909.4</ele>
        <time>2024-08-14T13:38:13Z</time>
      </trkpt>
      <trkpt lat="44.98869" lon="6.10316">
        <ele>909.4</ele>
        <time>2024-08-14T13:38:14Z</time>
      </trkpt>
      <trkpt lat="44.9887" lon="6.10313">
        <ele>909</ele>
        <time>2024-08-14T13:38:15Z</time>
      </trkpt>
      <trkpt lat="44.9887" lon="6.10313">
        <ele>909</ele>
        <time>2024-08-14T13:38:16Z</time>
      </trkpt>
      <trkpt lat="44.98871" lon="6.1031">
        <ele>909.2</ele>
        <time>2024-08-14T13:38:17Z</time>
      </trkpt>
      <trkpt lat="44.98871" lon="6.1031">
        <ele>909.2</ele>
        <time>2024-08-14T13:38:18Z</time>
      </trkpt>
      <trkpt lat="44.98874" lon="6.10308">
        <ele>909.2</ele>
        <time>2024-08-14T13:38:19Z</time>
      </trkpt>
      <trkpt lat="44.98874" lon="6.10308">
        <ele>908.8</ele>
        <time>2024-08-14T13:38:20Z</time>
      </trkpt>
      <trkpt lat="44.98876" lon="6.10305">
        <ele>908.8</ele>
        <time>2024-08-14T13:38:21Z</time>
      </trkpt>
      <trkpt lat="44.98876" lon="6.10305">
        <ele>909</ele>
        <time>2024-08-14T13:38:22Z</time>
      </trkpt>
      <trkpt lat="44.98878" lon="6.10303">
        <ele>909</ele>
        <time>2024-08-14T13:38:23Z</time>
      </trkpt>
      <trkpt lat="44.98878" lon="6.10303">
        <ele>909</ele>
        <time>2024-08-14T13:38:24Z</time>
      </trkpt>
      <trkpt lat="44.9888" lon="6.10299">
        <ele>909</ele>
        <time>2024-08-14T13:38:25Z</time>
      </trkpt>
      <trkpt lat="44.9888" lon="6.10299">
        <ele>909.2</ele>
        <time>2024-08-14T13:38:26Z</time>
      </trkpt>
      <trkpt lat="44.98883" lon="6.10297">
        <ele>909.2</ele>
        <time>2024-08-14T13:38:27Z</time>
      </trkpt>
      <trkpt lat="44.98883" lon="6.10297">
        <ele>909.2</ele>
        <time>2024-08-14T13:38:28Z</time>
      </trkpt>
      <trkpt lat="44.98885" lon="6.10295">
        <ele>909</ele>
        <time>2024-08-14T13:38:29Z</time>
      </trkpt>
      <trkpt lat="44.98885" lon="6.10295">
        <ele>909</ele>
        <time>2024-08-14T13:38:30Z</time>
      </trkpt>
      <trkpt lat="44.98887" lon="6.10292">
        <ele>909</ele>
        <time>2024-08-14T13:38:31Z</time>
      </trkpt>
      <trkpt lat="44.98887" lon="6.10292">
        <ele>909</ele>
        <time>2024-08-14T13:38:32Z</time>
      </trkpt>
      <trkpt lat="44.98889" lon="6.1029">
        <ele>908.6</ele>
        <time>2024-08-14T13:38:33Z</time>
      </trkpt>
      <trkpt lat="44.98889" lon="6.1029">
        <ele>908.6</ele>
        <time>2024-08-14T13:38:34Z</time>
      </trkpt>
      <trkpt lat="44.98892" lon="6.10287">
        <ele>908.6</ele>
        <time>2024-08-14T13:38:35Z</time>
      </trkpt>
      <trkpt lat="44.98892" lon="6.10287">
        <ele>908.6</ele>
        <time>2024-08-14T13:38:36Z</time>
      </trkpt>
      <trkpt lat="44.98895" lon="6.10285">
        <ele>908.6</ele>
        <time>2024-08-14T13:38:37Z</time>
      </trkpt>
      <trkpt lat="44.98895" lon="6.10285">
        <ele>908.6</ele>
        <time>2024-08-14T13:38:38Z</time>
      </trkpt>
      <trkpt lat="44.98898" lon="6.10282">
        <ele>908.6</ele>
        <time>2024-08-14T13:38:39Z</time>
      </trkpt>
      <trkpt lat="44.98899" lon="6.10281">
        <ele>908.6</ele>
        <time>2024-08-14T13:38:40Z</time>
      </trkpt>
      <trkpt lat="44.98901" lon="6.1028">
        <ele>908.6</ele>
        <time>2024-08-14T13:38:41Z</time>
      </trkpt>
      <trkpt lat="44.98901" lon="6.1028">
        <ele>908.8</ele>
        <time>2024-08-14T13:38:42Z</time>
      </trkpt>
      <trkpt lat="44.98904" lon="6.10278">
        <ele>908.8</ele>
        <time>2024-08-14T13:38:43Z</time>
      </trkpt>
      <trkpt lat="44.98906" lon="6.10277">
        <ele>908.6</ele>
        <time>2024-08-14T13:38:44Z</time>
      </trkpt>
      <trkpt lat="44.98906" lon="6.10277">
        <ele>908.6</ele>
        <time>2024-08-14T13:38:45Z</time>
      </trkpt>
      <trkpt lat="44.98908" lon="6.10275">
        <ele>908.6</ele>
        <time>2024-08-14T13:38:46Z</time>
      </trkpt>
      <trkpt lat="44.98908" lon="6.10275">
        <ele>908.6</ele>
        <time>2024-08-14T13:38:47Z</time>
      </trkpt>
      <trkpt lat="44.9891" lon="6.10273">
        <ele>908.6</ele>
        <time>2024-08-14T13:38:48Z</time>
      </trkpt>
      <trkpt lat="44.9891" lon="6.10273">
        <ele>908.4</ele>
        <time>2024-08-14T13:38:49Z</time>
      </trkpt>
      <trkpt lat="44.9891" lon="6.10273">
        <ele>908.4</ele>
        <time>2024-08-14T13:38:50Z</time>
      </trkpt>
      <trkpt lat="44.98913" lon="6.10271">
        <ele>908.4</ele>
        <time>2024-08-14T13:38:51Z</time>
      </trkpt>
      <trkpt lat="44.98913" lon="6.10271">
        <ele>908.4</ele>
        <time>2024-08-14T13:38:52Z</time>
      </trkpt>
      <trkpt lat="44.98913" lon="6.10271">
        <ele>908.4</ele>
        <time>2024-08-14T13:38:53Z</time>
      </trkpt>
      <trkpt lat="44.98916" lon="6.10268">
        <ele>908.4</ele>
        <time>2024-08-14T13:38:54Z</time>
      </trkpt>
      <trkpt lat="44.98917" lon="6.10267">
        <ele>908.4</ele>
        <time>2024-08-14T13:38:55Z</time>
      </trkpt>
      <trkpt lat="44.98917" lon="6.10267">
        <ele>908.4</ele>
        <time>2024-08-14T13:38:56Z</time>
      </trkpt>
      <trkpt lat="44.98918" lon="6.10263">
        <ele>908.2</ele>
        <time>2024-08-14T13:38:57Z</time>
      </trkpt>
      <trkpt lat="44.9892" lon="6.10262">
        <ele>908.2</ele>
        <time>2024-08-14T13:38:58Z</time>
      </trkpt>
      <trkpt lat="44.9892" lon="6.10262">
        <ele>908</ele>
        <time>2024-08-14T13:38:59Z</time>
      </trkpt>
      <trkpt lat="44.98922" lon="6.10259">
        <ele>908.2</ele>
        <time>2024-08-14T13:39:00Z</time>
      </trkpt>
      <trkpt lat="44.98922" lon="6.10259">
        <ele>908.2</ele>
        <time>2024-08-14T13:39:01Z</time>
      </trkpt>
      <trkpt lat="44.98924" lon="6.10255">
        <ele>908.2</ele>
        <time>2024-08-14T13:39:02Z</time>
      </trkpt>
      <trkpt lat="44.98925" lon="6.10254">
        <ele>908.2</ele>
        <time>2024-08-14T13:39:03Z</time>
      </trkpt>
      <trkpt lat="44.98925" lon="6.10254">
        <ele>908.2</ele>
        <time>2024-08-14T13:39:04Z</time>
      </trkpt>
      <trkpt lat="44.98925" lon="6.10254">
        <ele>908</ele>
        <time>2024-08-14T13:39:05Z</time>
      </trkpt>
      <trkpt lat="44.98925" lon="6.1025">
        <ele>908</ele>
        <time>2024-08-14T13:39:06Z</time>
      </trkpt>
      <trkpt lat="44.98925" lon="6.1025">
        <ele>907.8</ele>
        <time>2024-08-14T13:39:07Z</time>
      </trkpt>
      <trkpt lat="44.98925" lon="6.1025">
        <ele>907.8</ele>
        <time>2024-08-14T13:39:08Z</time>
      </trkpt>
      <trkpt lat="44.98926" lon="6.10245">
        <ele>908</ele>
        <time>2024-08-14T13:39:09Z</time>
      </trkpt>
      <trkpt lat="44.98926" lon="6.10245">
        <ele>908</ele>
        <time>2024-08-14T13:39:10Z</time>
      </trkpt>
      <trkpt lat="44.98928" lon="6.10243">
        <ele>908</ele>
        <time>2024-08-14T13:39:11Z</time>
      </trkpt>
      <trkpt lat="44.98928" lon="6.10243">
        <ele>908</ele>
        <time>2024-08-14T13:39:12Z</time>
      </trkpt>
      <trkpt lat="44.98928" lon="6.10243">
        <ele>907.8</ele>
        <time>2024-08-14T13:39:13Z</time>
      </trkpt>
      <trkpt lat="44.98929" lon="6.10241">
        <ele>907.8</ele>
        <time>2024-08-14T13:39:14Z</time>
      </trkpt>
      <trkpt lat="44.98929" lon="6.10241">
        <ele>907.8</ele>
        <time>2024-08-14T13:39:15Z</time>
      </trkpt>
      <trkpt lat="44.98929" lon="6.10241">
        <ele>908</ele>
        <time>2024-08-14T13:39:16Z</time>
      </trkpt>
      <trkpt lat="44.98929" lon="6.10241">
        <ele>908</ele>
        <time>2024-08-14T13:39:17Z</time>
      </trkpt>
      <trkpt lat="44.98929" lon="6.10241">
        <ele>908</ele>
        <time>2024-08-14T13:39:18Z</time>
      </trkpt>
      <trkpt lat="44.98929" lon="6.10241">
        <ele>908</ele>
        <time>2024-08-14T13:39:19Z</time>
      </trkpt>
      <trkpt lat="44.98929" lon="6.10241">
        <ele>908</ele>
        <time>2024-08-14T13:39:20Z</time>
      </trkpt>
      <trkpt lat="44.98929" lon="6.10241">
        <ele>907.8</ele>
        <time>2024-08-14T13:39:21Z</time>
      </trkpt>
      <trkpt lat="44.98929" lon="6.10241">
        <ele>907.8</ele>
        <time>2024-08-14T13:39:22Z</time>
      </trkpt>
      <trkpt lat="44.98929" lon="6.10241">
        <ele>907.8</ele>
        <time>2024-08-14T13:39:23Z</time>
      </trkpt>
      <trkpt lat="44.98929" lon="6.10241">
        <ele>908</ele>
        <time>2024-08-14T13:39:24Z</time>
      </trkpt>
      <trkpt lat="44.98929" lon="6.10241">
        <ele>908</ele>
        <time>2024-08-14T13:39:25Z</time>
      </trkpt>
      <trkpt lat="44.98929" lon="6.10241">
        <ele>908.2</ele>
        <time>2024-08-14T13:39:26Z</time>
      </trkpt>
      <trkpt lat="44.98929" lon="6.10241">
        <ele>908.2</ele>
        <time>2024-08-14T13:39:27Z</time>
      </trkpt>
      <trkpt lat="44.98929" lon="6.10241">
        <ele>908.2</ele>
        <time>2024-08-14T13:39:28Z</time>
      </trkpt>
      <trkpt lat="44.98929" lon="6.10241">
        <ele>908</ele>
        <time>2024-08-14T13:39:29Z</time>
      </trkpt>
      <trkpt lat="44.98929" lon="6.10241">
        <ele>908</ele>
        <time>2024-08-14T13:39:30Z</time>
      </trkpt>
      <trkpt lat="44.98929" lon="6.10241">
        <ele>907.8</ele>
        <time>2024-08-14T13:39:31Z</time>
      </trkpt>
      <trkpt lat="44.9893" lon="6.10238">
        <ele>907.8</ele>
        <time>2024-08-14T13:39:32Z</time>
      </trkpt>
      <trkpt lat="44.98932" lon="6.10237">
        <ele>907.8</ele>
        <time>2024-08-14T13:39:33Z</time>
      </trkpt>
      <trkpt lat="44.98932" lon="6.10237">
        <ele>907.8</ele>
        <time>2024-08-14T13:39:34Z</time>
      </trkpt>
      <trkpt lat="44.98936" lon="6.10234">
        <ele>908</ele>
        <time>2024-08-14T13:39:35Z</time>
      </trkpt>
      <trkpt lat="44.98938" lon="6.10232">
        <ele>908</ele>
        <time>2024-08-14T13:39:36Z</time>
      </trkpt>
      <trkpt lat="44.9894" lon="6.10231">
        <ele>907.8</ele>
        <time>2024-08-14T13:39:37Z</time>
      </trkpt>
      <trkpt lat="44.98941" lon="6.10229">
        <ele>907.8</ele>
        <time>2024-08-14T13:39:38Z</time>
      </trkpt>
      <trkpt lat="44.98941" lon="6.10229">
        <ele>907.6</ele>
        <time>2024-08-14T13:39:39Z</time>
      </trkpt>
      <trkpt lat="44.98943" lon="6.10227">
        <ele>907</ele>
        <time>2024-08-14T13:39:40Z</time>
      </trkpt>
      <trkpt lat="44.98943" lon="6.10227">
        <ele>907</ele>
        <time>2024-08-14T13:39:41Z</time>
      </trkpt>
      <trkpt lat="44.98943" lon="6.10223">
        <ele>907</ele>
        <time>2024-08-14T13:39:42Z</time>
      </trkpt>
      <trkpt lat="44.98943" lon="6.10223">
        <ele>907</ele>
        <time>2024-08-14T13:39:43Z</time>
      </trkpt>
      <trkpt lat="44.98943" lon="6.1022">
        <ele>907</ele>
        <time>2024-08-14T13:39:44Z</time>
      </trkpt>
      <trkpt lat="44.98943" lon="6.1022">
        <ele>907</ele>
        <time>2024-08-14T13:39:45Z</time>
      </trkpt>
      <trkpt lat="44.98944" lon="6.10217">
        <ele>906.8</ele>
        <time>2024-08-14T13:39:46Z</time>
      </trkpt>
      <trkpt lat="44.98944" lon="6.10217">
        <ele>906.8</ele>
        <time>2024-08-14T13:39:47Z</time>
      </trkpt>
      <trkpt lat="44.98945" lon="6.10213">
        <ele>906.8</ele>
        <time>2024-08-14T13:39:48Z</time>
      </trkpt>
      <trkpt lat="44.98945" lon="6.10213">
        <ele>906.8</ele>
        <time>2024-08-14T13:39:49Z</time>
      </trkpt>
      <trkpt lat="44.98946" lon="6.1021">
        <ele>906.6</ele>
        <time>2024-08-14T13:39:50Z</time>
      </trkpt>
      <trkpt lat="44.98946" lon="6.1021">
        <ele>906.6</ele>
        <time>2024-08-14T13:39:51Z</time>
      </trkpt>
      <trkpt lat="44.98946" lon="6.10206">
        <ele>906.8</ele>
        <time>2024-08-14T13:39:52Z</time>
      </trkpt>
      <trkpt lat="44.98947" lon="6.10204">
        <ele>907</ele>
        <time>2024-08-14T13:39:53Z</time>
      </trkpt>
      <trkpt lat="44.98947" lon="6.10204">
        <ele>907</ele>
        <time>2024-08-14T13:39:54Z</time>
      </trkpt>
      <trkpt lat="44.98948" lon="6.102">
        <ele>906.6</ele>
        <time>2024-08-14T13:39:55Z</time>
      </trkpt>
      <trkpt lat="44.98948" lon="6.102">
        <ele>906</ele>
        <time>2024-08-14T13:39:56Z</time>
      </trkpt>
      <trkpt lat="44.98948" lon="6.10195">
        <ele>905.4</ele>
        <time>2024-08-14T13:39:57Z</time>
      </trkpt>
      <trkpt lat="44.98948" lon="6.10195">
        <ele>905.4</ele>
        <time>2024-08-14T13:39:58Z</time>
      </trkpt>
      <trkpt lat="44.98949" lon="6.10191">
        <ele>905.4</ele>
        <time>2024-08-14T13:39:59Z</time>
      </trkpt>
      <trkpt lat="44.98949" lon="6.10191">
        <ele>905.2</ele>
        <time>2024-08-14T13:40:00Z</time>
      </trkpt>
      <trkpt lat="44.98949" lon="6.10187">
        <ele>905</ele>
        <time>2024-08-14T13:40:01Z</time>
      </trkpt>
      <trkpt lat="44.98949" lon="6.10187">
        <ele>904.8</ele>
        <time>2024-08-14T13:40:02Z</time>
      </trkpt>
      <trkpt lat="44.9895" lon="6.10183">
        <ele>904.8</ele>
        <time>2024-08-14T13:40:03Z</time>
      </trkpt>
      <trkpt lat="44.98951" lon="6.10181">
        <ele>904.6</ele>
        <time>2024-08-14T13:40:04Z</time>
      </trkpt>
      <trkpt lat="44.98953" lon="6.10179">
        <ele>904.6</ele>
        <time>2024-08-14T13:40:05Z</time>
      </trkpt>
      <trkpt lat="44.98953" lon="6.10179">
        <ele>904.8</ele>
        <time>2024-08-14T13:40:06Z</time>
      </trkpt>
      <trkpt lat="44.98955" lon="6.10175">
        <ele>904.8</ele>
        <time>2024-08-14T13:40:07Z</time>
      </trkpt>
      <trkpt lat="44.98955" lon="6.10175">
        <ele>904.8</ele>
        <time>2024-08-14T13:40:08Z</time>
      </trkpt>
      <trkpt lat="44.98957" lon="6.10172">
        <ele>904.8</ele>
        <time>2024-08-14T13:40:09Z</time>
      </trkpt>
      <trkpt lat="44.98957" lon="6.10172">
        <ele>905</ele>
        <time>2024-08-14T13:40:10Z</time>
      </trkpt>
      <trkpt lat="44.98958" lon="6.1017">
        <ele>905</ele>
        <time>2024-08-14T13:40:11Z</time>
      </trkpt>
      <trkpt lat="44.98958" lon="6.1017">
        <ele>905</ele>
        <time>2024-08-14T13:40:12Z</time>
      </trkpt>
      <trkpt lat="44.98959" lon="6.10167">
        <ele>905</ele>
        <time>2024-08-14T13:40:13Z</time>
      </trkpt>
      <trkpt lat="44.98959" lon="6.10167">
        <ele>905</ele>
        <time>2024-08-14T13:40:14Z</time>
      </trkpt>
      <trkpt lat="44.98961" lon="6.10163">
        <ele>905.2</ele>
        <time>2024-08-14T13:40:15Z</time>
      </trkpt>
      <trkpt lat="44.98961" lon="6.10163">
        <ele>905.2</ele>
        <time>2024-08-14T13:40:16Z</time>
      </trkpt>
      <trkpt lat="44.98961" lon="6.1016">
        <ele>905.2</ele>
        <time>2024-08-14T13:40:17Z</time>
      </trkpt>
      <trkpt lat="44.98961" lon="6.1016">
        <ele>904.8</ele>
        <time>2024-08-14T13:40:18Z</time>
      </trkpt>
      <trkpt lat="44.9896" lon="6.10156">
        <ele>904.8</ele>
        <time>2024-08-14T13:40:19Z</time>
      </trkpt>
      <trkpt lat="44.9896" lon="6.10156">
        <ele>904.8</ele>
        <time>2024-08-14T13:40:20Z</time>
      </trkpt>
      <trkpt lat="44.98961" lon="6.10152">
        <ele>904.8</ele>
        <time>2024-08-14T13:40:21Z</time>
      </trkpt>
      <trkpt lat="44.98961" lon="6.10152">
        <ele>905.2</ele>
        <time>2024-08-14T13:40:22Z</time>
      </trkpt>
      <trkpt lat="44.98961" lon="6.10148">
        <ele>905.2</ele>
        <time>2024-08-14T13:40:23Z</time>
      </trkpt>
      <trkpt lat="44.98961" lon="6.10145">
        <ele>905.2</ele>
        <time>2024-08-14T13:40:24Z</time>
      </trkpt>
      <trkpt lat="44.98961" lon="6.10145">
        <ele>905.2</ele>
        <time>2024-08-14T13:40:25Z</time>
      </trkpt>
      <trkpt lat="44.9896" lon="6.1014">
        <ele>904.8</ele>
        <time>2024-08-14T13:40:26Z</time>
      </trkpt>
      <trkpt lat="44.9896" lon="6.1014">
        <ele>904.4</ele>
        <time>2024-08-14T13:40:27Z</time>
      </trkpt>
      <trkpt lat="44.98959" lon="6.10137">
        <ele>904.2</ele>
        <time>2024-08-14T13:40:28Z</time>
      </trkpt>
      <trkpt lat="44.98959" lon="6.10137">
        <ele>904.2</ele>
        <time>2024-08-14T13:40:29Z</time>
      </trkpt>
      <trkpt lat="44.98959" lon="6.10133">
        <ele>904.2</ele>
        <time>2024-08-14T13:40:30Z</time>
      </trkpt>
      <trkpt lat="44.98959" lon="6.10133">
        <ele>904.2</ele>
        <time>2024-08-14T13:40:31Z</time>
      </trkpt>
      <trkpt lat="44.98959" lon="6.10128">
        <ele>904.2</ele>
        <time>2024-08-14T13:40:32Z</time>
      </trkpt>
      <trkpt lat="44.98958" lon="6.10126">
        <ele>904</ele>
        <time>2024-08-14T13:40:33Z</time>
      </trkpt>
      <trkpt lat="44.98958" lon="6.10126">
        <ele>904</ele>
        <time>2024-08-14T13:40:34Z</time>
      </trkpt>
      <trkpt lat="44.98958" lon="6.10122">
        <ele>904</ele>
        <time>2024-08-14T13:40:35Z</time>
      </trkpt>
      <trkpt lat="44.98958" lon="6.10122">
        <ele>904</ele>
        <time>2024-08-14T13:40:36Z</time>
      </trkpt>
      <trkpt lat="44.98958" lon="6.10118">
        <ele>904</ele>
        <time>2024-08-14T13:40:37Z</time>
      </trkpt>
      <trkpt lat="44.98958" lon="6.10118">
        <ele>903.8</ele>
        <time>2024-08-14T13:40:38Z</time>
      </trkpt>
      <trkpt lat="44.98957" lon="6.10113">
        <ele>903.6</ele>
        <time>2024-08-14T13:40:39Z</time>
      </trkpt>
      <trkpt lat="44.98957" lon="6.10113">
        <ele>903.6</ele>
        <time>2024-08-14T13:40:40Z</time>
      </trkpt>
      <trkpt lat="44.98957" lon="6.10109">
        <ele>903.6</ele>
        <time>2024-08-14T13:40:41Z</time>
      </trkpt>
      <trkpt lat="44.98957" lon="6.10109">
        <ele>903.6</ele>
        <time>2024-08-14T13:40:42Z</time>
      </trkpt>
      <trkpt lat="44.98957" lon="6.10105">
        <ele>903.6</ele>
        <time>2024-08-14T13:40:43Z</time>
      </trkpt>
      <trkpt lat="44.98957" lon="6.10105">
        <ele>903.6</ele>
        <time>2024-08-14T13:40:44Z</time>
      </trkpt>
      <trkpt lat="44.98957" lon="6.101">
        <ele>903.6</ele>
        <time>2024-08-14T13:40:45Z</time>
      </trkpt>
      <trkpt lat="44.98957" lon="6.101">
        <ele>903.2</ele>
        <time>2024-08-14T13:40:46Z</time>
      </trkpt>
      <trkpt lat="44.98957" lon="6.10096">
        <ele>903.2</ele>
        <time>2024-08-14T13:40:47Z</time>
      </trkpt>
      <trkpt lat="44.98957" lon="6.10096">
        <ele>903.2</ele>
        <time>2024-08-14T13:40:48Z</time>
      </trkpt>
      <trkpt lat="44.98957" lon="6.10091">
        <ele>903.2</ele>
        <time>2024-08-14T13:40:49Z</time>
      </trkpt>
      <trkpt lat="44.98957" lon="6.10091">
        <ele>903.4</ele>
        <time>2024-08-14T13:40:50Z</time>
      </trkpt>
      <trkpt lat="44.98957" lon="6.10087">
        <ele>903.4</ele>
        <time>2024-08-14T13:40:51Z</time>
      </trkpt>
      <trkpt lat="44.98957" lon="6.10087">
        <ele>903.4</ele>
        <time>2024-08-14T13:40:52Z</time>
      </trkpt>
      <trkpt lat="44.98958" lon="6.10084">
        <ele>903.4</ele>
        <time>2024-08-14T13:40:53Z</time>
      </trkpt>
      <trkpt lat="44.98958" lon="6.10084">
        <ele>903.6</ele>
        <time>2024-08-14T13:40:54Z</time>
      </trkpt>
      <trkpt lat="44.98959" lon="6.1008">
        <ele>903.8</ele>
        <time>2024-08-14T13:40:55Z</time>
      </trkpt>
      <trkpt lat="44.98959" lon="6.1008">
        <ele>903.8</ele>
        <time>2024-08-14T13:40:56Z</time>
      </trkpt>
      <trkpt lat="44.98959" lon="6.1008">
        <ele>904.2</ele>
        <time>2024-08-14T13:40:57Z</time>
      </trkpt>
      <trkpt lat="44.98959" lon="6.10076">
        <ele>904.2</ele>
        <time>2024-08-14T13:40:58Z</time>
      </trkpt>
      <trkpt lat="44.98958" lon="6.10074">
        <ele>904.4</ele>
        <time>2024-08-14T13:40:59Z</time>
      </trkpt>
      <trkpt lat="44.98958" lon="6.10074">
        <ele>904.4</ele>
        <time>2024-08-14T13:41:00Z</time>
      </trkpt>
      <trkpt lat="44.98959" lon="6.1007">
        <ele>904.8</ele>
        <time>2024-08-14T13:41:01Z</time>
      </trkpt>
      <trkpt lat="44.98959" lon="6.1007">
        <ele>905.2</ele>
        <time>2024-08-14T13:41:02Z</time>
      </trkpt>
      <trkpt lat="44.98959" lon="6.10067">
        <ele>905.2</ele>
        <time>2024-08-14T13:41:03Z</time>
      </trkpt>
      <trkpt lat="44.98959" lon="6.10067">
        <ele>905.6</ele>
        <time>2024-08-14T13:41:04Z</time>
      </trkpt>
      <trkpt lat="44.98958" lon="6.10063">
        <ele>905.6</ele>
        <time>2024-08-14T13:41:05Z</time>
      </trkpt>
      <trkpt lat="44.98958" lon="6.10063">
        <ele>905.8</ele>
        <time>2024-08-14T13:41:06Z</time>
      </trkpt>
      <trkpt lat="44.98957" lon="6.1006">
        <ele>905.8</ele>
        <time>2024-08-14T13:41:07Z</time>
      </trkpt>
      <trkpt lat="44.98957" lon="6.1006">
        <ele>906</ele>
        <time>2024-08-14T13:41:08Z</time>
      </trkpt>
      <trkpt lat="44.98956" lon="6.10057">
        <ele>906.2</ele>
        <time>2024-08-14T13:41:09Z</time>
      </trkpt>
      <trkpt lat="44.98956" lon="6.10057">
        <ele>906.2</ele>
        <time>2024-08-14T13:41:10Z</time>
      </trkpt>
      <trkpt lat="44.98954" lon="6.10053">
        <ele>906.2</ele>
        <time>2024-08-14T13:41:11Z</time>
      </trkpt>
      <trkpt lat="44.98954" lon="6.10053">
        <ele>906.2</ele>
        <time>2024-08-14T13:41:12Z</time>
      </trkpt>
      <trkpt lat="44.98952" lon="6.1005">
        <ele>906.2</ele>
        <time>2024-08-14T13:41:13Z</time>
      </trkpt>
      <trkpt lat="44.98952" lon="6.1005">
        <ele>906.2</ele>
        <time>2024-08-14T13:41:14Z</time>
      </trkpt>
      <trkpt lat="44.9895" lon="6.10047">
        <ele>906.2</ele>
        <time>2024-08-14T13:41:15Z</time>
      </trkpt>
      <trkpt lat="44.9895" lon="6.10047">
        <ele>906.2</ele>
        <time>2024-08-14T13:41:16Z</time>
      </trkpt>
      <trkpt lat="44.98949" lon="6.10043">
        <ele>906.4</ele>
        <time>2024-08-14T13:41:17Z</time>
      </trkpt>
      <trkpt lat="44.98948" lon="6.10041">
        <ele>906.6</ele>
        <time>2024-08-14T13:41:18Z</time>
      </trkpt>
      <trkpt lat="44.98947" lon="6.10039">
        <ele>906.6</ele>
        <time>2024-08-14T13:41:19Z</time>
      </trkpt>
      <trkpt lat="44.98947" lon="6.10039">
        <ele>906.6</ele>
        <time>2024-08-14T13:41:20Z</time>
      </trkpt>
      <trkpt lat="44.98945" lon="6.10035">
        <ele>906.6</ele>
        <time>2024-08-14T13:41:21Z</time>
      </trkpt>
      <trkpt lat="44.98945" lon="6.10035">
        <ele>906.6</ele>
        <time>2024-08-14T13:41:22Z</time>
      </trkpt>
      <trkpt lat="44.98944" lon="6.10031">
        <ele>906.4</ele>
        <time>2024-08-14T13:41:23Z</time>
      </trkpt>
      <trkpt lat="44.98944" lon="6.10031">
        <ele>906.4</ele>
        <time>2024-08-14T13:41:24Z</time>
      </trkpt>
      <trkpt lat="44.98943" lon="6.10027">
        <ele>906.4</ele>
        <time>2024-08-14T13:41:25Z</time>
      </trkpt>
      <trkpt lat="44.98942" lon="6.10025">
        <ele>906.2</ele>
        <time>2024-08-14T13:41:26Z</time>
      </trkpt>
      <trkpt lat="44.98942" lon="6.10025">
        <ele>906.2</ele>
        <time>2024-08-14T13:41:27Z</time>
      </trkpt>
      <trkpt lat="44.98941" lon="6.10021">
        <ele>906</ele>
        <time>2024-08-14T13:41:28Z</time>
      </trkpt>
      <trkpt lat="44.9894" lon="6.10019">
        <ele>906</ele>
        <time>2024-08-14T13:41:29Z</time>
      </trkpt>
      <trkpt lat="44.9894" lon="6.10019">
        <ele>906</ele>
        <time>2024-08-14T13:41:30Z</time>
      </trkpt>
      <trkpt lat="44.98939" lon="6.10015">
        <ele>906</ele>
        <time>2024-08-14T13:41:31Z</time>
      </trkpt>
      <trkpt lat="44.98939" lon="6.10015">
        <ele>906</ele>
        <time>2024-08-14T13:41:32Z</time>
      </trkpt>
      <trkpt lat="44.98939" lon="6.10011">
        <ele>906</ele>
        <time>2024-08-14T13:41:33Z</time>
      </trkpt>
      <trkpt lat="44.98939" lon="6.10011">
        <ele>906</ele>
        <time>2024-08-14T13:41:34Z</time>
      </trkpt>
      <trkpt lat="44.98937" lon="6.10007">
        <ele>906</ele>
        <time>2024-08-14T13:41:35Z</time>
      </trkpt>
      <trkpt lat="44.98937" lon="6.10007">
        <ele>906</ele>
        <time>2024-08-14T13:41:36Z</time>
      </trkpt>
      <trkpt lat="44.98935" lon="6.10004">
        <ele>906</ele>
        <time>2024-08-14T13:41:37Z</time>
      </trkpt>
      <trkpt lat="44.98935" lon="6.10004">
        <ele>906</ele>
        <time>2024-08-14T13:41:38Z</time>
      </trkpt>
      <trkpt lat="44.98934" lon="6.10001">
        <ele>905.8</ele>
        <time>2024-08-14T13:41:39Z</time>
      </trkpt>
      <trkpt lat="44.98934" lon="6.10001">
        <ele>905.6</ele>
        <time>2024-08-14T13:41:40Z</time>
      </trkpt>
      <trkpt lat="44.98932" lon="6.09998">
        <ele>905.6</ele>
        <time>2024-08-14T13:41:41Z</time>
      </trkpt>
      <trkpt lat="44.98932" lon="6.09998">
        <ele>905.2</ele>
        <time>2024-08-14T13:41:42Z</time>
      </trkpt>
      <trkpt lat="44.9893" lon="6.09996">
        <ele>905.2</ele>
        <time>2024-08-14T13:41:43Z</time>
      </trkpt>
      <trkpt lat="44.9893" lon="6.09996">
        <ele>905.2</ele>
        <time>2024-08-14T13:41:44Z</time>
      </trkpt>
      <trkpt lat="44.98929" lon="6.09994">
        <ele>905.2</ele>
        <time>2024-08-14T13:41:45Z</time>
      </trkpt>
      <trkpt lat="44.98929" lon="6.09994">
        <ele>905</ele>
        <time>2024-08-14T13:41:46Z</time>
      </trkpt>
      <trkpt lat="44.98928" lon="6.0999">
        <ele>904.8</ele>
        <time>2024-08-14T13:41:47Z</time>
      </trkpt>
      <trkpt lat="44.98928" lon="6.0999">
        <ele>904.8</ele>
        <time>2024-08-14T13:41:48Z</time>
      </trkpt>
      <trkpt lat="44.98926" lon="6.09986">
        <ele>904.8</ele>
        <time>2024-08-14T13:41:49Z</time>
      </trkpt>
      <trkpt lat="44.98926" lon="6.09986">
        <ele>904.8</ele>
        <time>2024-08-14T13:41:50Z</time>
      </trkpt>
      <trkpt lat="44.98925" lon="6.09984">
        <ele>904.6</ele>
        <time>2024-08-14T13:41:51Z</time>
      </trkpt>
      <trkpt lat="44.98925" lon="6.09984">
        <ele>904.6</ele>
        <time>2024-08-14T13:41:52Z</time>
      </trkpt>
      <trkpt lat="44.98924" lon="6.0998">
        <ele>904.6</ele>
        <time>2024-08-14T13:41:53Z</time>
      </trkpt>
      <trkpt lat="44.98924" lon="6.0998">
        <ele>904.6</ele>
        <time>2024-08-14T13:41:54Z</time>
      </trkpt>
      <trkpt lat="44.98923" lon="6.09976">
        <ele>904.6</ele>
        <time>2024-08-14T13:41:55Z</time>
      </trkpt>
      <trkpt lat="44.98923" lon="6.09976">
        <ele>904.6</ele>
        <time>2024-08-14T13:41:56Z</time>
      </trkpt>
      <trkpt lat="44.98922" lon="6.09973">
        <ele>904.6</ele>
        <time>2024-08-14T13:41:57Z</time>
      </trkpt>
      <trkpt lat="44.98922" lon="6.09973">
        <ele>904.6</ele>
        <time>2024-08-14T13:41:58Z</time>
      </trkpt>
      <trkpt lat="44.9892" lon="6.09969">
        <ele>904.6</ele>
        <time>2024-08-14T13:41:59Z</time>
      </trkpt>
      <trkpt lat="44.9892" lon="6.09969">
        <ele>904.4</ele>
        <time>2024-08-14T13:42:00Z</time>
      </trkpt>
      <trkpt lat="44.98919" lon="6.09966">
        <ele>904.2</ele>
        <time>2024-08-14T13:42:01Z</time>
      </trkpt>
      <trkpt lat="44.98919" lon="6.09966">
        <ele>903.8</ele>
        <time>2024-08-14T13:42:02Z</time>
      </trkpt>
      <trkpt lat="44.98917" lon="6.09963">
        <ele>903.8</ele>
        <time>2024-08-14T13:42:03Z</time>
      </trkpt>
      <trkpt lat="44.98916" lon="6.09961">
        <ele>903.6</ele>
        <time>2024-08-14T13:42:04Z</time>
      </trkpt>
      <trkpt lat="44.98914" lon="6.09959">
        <ele>903.2</ele>
        <time>2024-08-14T13:42:05Z</time>
      </trkpt>
      <trkpt lat="44.98914" lon="6.09959">
        <ele>902.8</ele>
        <time>2024-08-14T13:42:06Z</time>
      </trkpt>
      <trkpt lat="44.98913" lon="6.09955">
        <ele>902.8</ele>
        <time>2024-08-14T13:42:07Z</time>
      </trkpt>
      <trkpt lat="44.98913" lon="6.09955">
        <ele>902.6</ele>
        <time>2024-08-14T13:42:08Z</time>
      </trkpt>
      <trkpt lat="44.98913" lon="6.09951">
        <ele>902.4</ele>
        <time>2024-08-14T13:42:09Z</time>
      </trkpt>
      <trkpt lat="44.98913" lon="6.09951">
        <ele>902.2</ele>
        <time>2024-08-14T13:42:10Z</time>
      </trkpt>
      <trkpt lat="44.98912" lon="6.09948">
        <ele>902</ele>
        <time>2024-08-14T13:42:11Z</time>
      </trkpt>
      <trkpt lat="44.98912" lon="6.09948">
        <ele>902</ele>
        <time>2024-08-14T13:42:12Z</time>
      </trkpt>
      <trkpt lat="44.98912" lon="6.09944">
        <ele>901.8</ele>
        <time>2024-08-14T13:42:13Z</time>
      </trkpt>
      <trkpt lat="44.98912" lon="6.09944">
        <ele>901.6</ele>
        <time>2024-08-14T13:42:14Z</time>
      </trkpt>
      <trkpt lat="44.9891" lon="6.09941">
        <ele>901.6</ele>
        <time>2024-08-14T13:42:15Z</time>
      </trkpt>
      <trkpt lat="44.9891" lon="6.09941">
        <ele>901.6</ele>
        <time>2024-08-14T13:42:16Z</time>
      </trkpt>
      <trkpt lat="44.98908" lon="6.09938">
        <ele>901.6</ele>
        <time>2024-08-14T13:42:17Z</time>
      </trkpt>
      <trkpt lat="44.98908" lon="6.09938">
        <ele>901.6</ele>
        <time>2024-08-14T13:42:18Z</time>
      </trkpt>
      <trkpt lat="44.98907" lon="6.09934">
        <ele>901.6</ele>
        <time>2024-08-14T13:42:19Z</time>
      </trkpt>
      <trkpt lat="44.98907" lon="6.09934">
        <ele>901.6</ele>
        <time>2024-08-14T13:42:20Z</time>
      </trkpt>
      <trkpt lat="44.98906" lon="6.09931">
        <ele>901.8</ele>
        <time>2024-08-14T13:42:21Z</time>
      </trkpt>
      <trkpt lat="44.98904" lon="6.09929">
        <ele>901.8</ele>
        <time>2024-08-14T13:42:22Z</time>
      </trkpt>
      <trkpt lat="44.98904" lon="6.09929">
        <ele>901.8</ele>
        <time>2024-08-14T13:42:23Z</time>
      </trkpt>
      <trkpt lat="44.98904" lon="6.09925">
        <ele>901.8</ele>
        <time>2024-08-14T13:42:24Z</time>
      </trkpt>
      <trkpt lat="44.98904" lon="6.09925">
        <ele>901.8</ele>
        <time>2024-08-14T13:42:25Z</time>
      </trkpt>
      <trkpt lat="44.98902" lon="6.09923">
        <ele>902</ele>
        <time>2024-08-14T13:42:26Z</time>
      </trkpt>
      <trkpt lat="44.98902" lon="6.09923">
        <ele>902</ele>
        <time>2024-08-14T13:42:27Z</time>
      </trkpt>
      <trkpt lat="44.98901" lon="6.09919">
        <ele>902.2</ele>
        <time>2024-08-14T13:42:28Z</time>
      </trkpt>
      <trkpt lat="44.98901" lon="6.09919">
        <ele>902.2</ele>
        <time>2024-08-14T13:42:29Z</time>
      </trkpt>
      <trkpt lat="44.98901" lon="6.09915">
        <ele>902.6</ele>
        <time>2024-08-14T13:42:30Z</time>
      </trkpt>
      <trkpt lat="44.98901" lon="6.09915">
        <ele>902.6</ele>
        <time>2024-08-14T13:42:31Z</time>
      </trkpt>
      <trkpt lat="44.989" lon="6.09911">
        <ele>902.6</ele>
        <time>2024-08-14T13:42:32Z</time>
      </trkpt>
      <trkpt lat="44.989" lon="6.09911">
        <ele>902.6</ele>
        <time>2024-08-14T13:42:33Z</time>
      </trkpt>
      <trkpt lat="44.98899" lon="6.09908">
        <ele>902.8</ele>
        <time>2024-08-14T13:42:34Z</time>
      </trkpt>
      <trkpt lat="44.98899" lon="6.09908">
        <ele>902.8</ele>
        <time>2024-08-14T13:42:35Z</time>
      </trkpt>
      <trkpt lat="44.98898" lon="6.09904">
        <ele>903</ele>
        <time>2024-08-14T13:42:36Z</time>
      </trkpt>
      <trkpt lat="44.98898" lon="6.09904">
        <ele>903</ele>
        <time>2024-08-14T13:42:37Z</time>
      </trkpt>
      <trkpt lat="44.98897" lon="6.09901">
        <ele>903</ele>
        <time>2024-08-14T13:42:38Z</time>
      </trkpt>
      <trkpt lat="44.98897" lon="6.09901">
        <ele>903.2</ele>
        <time>2024-08-14T13:42:39Z</time>
      </trkpt>
      <trkpt lat="44.98897" lon="6.09897">
        <ele>903.2</ele>
        <time>2024-08-14T13:42:40Z</time>
      </trkpt>
      <trkpt lat="44.98897" lon="6.09897">
        <ele>903.4</ele>
        <time>2024-08-14T13:42:41Z</time>
      </trkpt>
      <trkpt lat="44.98896" lon="6.09894">
        <ele>903.6</ele>
        <time>2024-08-14T13:42:42Z</time>
      </trkpt>
      <trkpt lat="44.98896" lon="6.09894">
        <ele>903.6</ele>
        <time>2024-08-14T13:42:43Z</time>
      </trkpt>
      <trkpt lat="44.98896" lon="6.0989">
        <ele>903.6</ele>
        <time>2024-08-14T13:42:44Z</time>
      </trkpt>
      <trkpt lat="44.98896" lon="6.0989">
        <ele>903.8</ele>
        <time>2024-08-14T13:42:45Z</time>
      </trkpt>
      <trkpt lat="44.98894" lon="6.09886">
        <ele>903.8</ele>
        <time>2024-08-14T13:42:46Z</time>
      </trkpt>
      <trkpt lat="44.98894" lon="6.09886">
        <ele>903.8</ele>
        <time>2024-08-14T13:42:47Z</time>
      </trkpt>
      <trkpt lat="44.98894" lon="6.09882">
        <ele>903.8</ele>
        <time>2024-08-14T13:42:48Z</time>
      </trkpt>
      <trkpt lat="44.98894" lon="6.09882">
        <ele>903.8</ele>
        <time>2024-08-14T13:42:49Z</time>
      </trkpt>
      <trkpt lat="44.98894" lon="6.09878">
        <ele>903.8</ele>
        <time>2024-08-14T13:42:50Z</time>
      </trkpt>
      <trkpt lat="44.98894" lon="6.09878">
        <ele>903.8</ele>
        <time>2024-08-14T13:42:51Z</time>
      </trkpt>
      <trkpt lat="44.98894" lon="6.09874">
        <ele>903.8</ele>
        <time>2024-08-14T13:42:52Z</time>
      </trkpt>
      <trkpt lat="44.98894" lon="6.09874">
        <ele>904</ele>
        <time>2024-08-14T13:42:53Z</time>
      </trkpt>
      <trkpt lat="44.98894" lon="6.09871">
        <ele>904</ele>
        <time>2024-08-14T13:42:54Z</time>
      </trkpt>
      <trkpt lat="44.98894" lon="6.09871">
        <ele>904.2</ele>
        <time>2024-08-14T13:42:55Z</time>
      </trkpt>
      <trkpt lat="44.98894" lon="6.09867">
        <ele>904.2</ele>
        <time>2024-08-14T13:42:56Z</time>
      </trkpt>
      <trkpt lat="44.98894" lon="6.09867">
        <ele>904.2</ele>
        <time>2024-08-14T13:42:57Z</time>
      </trkpt>
      <trkpt lat="44.98896" lon="6.09864">
        <ele>904.4</ele>
        <time>2024-08-14T13:42:58Z</time>
      </trkpt>
      <trkpt lat="44.98896" lon="6.09864">
        <ele>904.4</ele>
        <time>2024-08-14T13:42:59Z</time>
      </trkpt>
      <trkpt lat="44.98897" lon="6.09861">
        <ele>904.6</ele>
        <time>2024-08-14T13:43:00Z</time>
      </trkpt>
      <trkpt lat="44.98897" lon="6.09861">
        <ele>904.6</ele>
        <time>2024-08-14T13:43:01Z</time>
      </trkpt>
      <trkpt lat="44.98897" lon="6.09861">
        <ele>904.6</ele>
        <time>2024-08-14T13:43:02Z</time>
      </trkpt>
      <trkpt lat="44.98897" lon="6.09856">
        <ele>904.6</ele>
        <time>2024-08-14T13:43:03Z</time>
      </trkpt>
      <trkpt lat="44.98898" lon="6.09854">
        <ele>904.6</ele>
        <time>2024-08-14T13:43:04Z</time>
      </trkpt>
      <trkpt lat="44.98898" lon="6.09854">
        <ele>904.4</ele>
        <time>2024-08-14T13:43:05Z</time>
      </trkpt>
      <trkpt lat="44.98898" lon="6.09854">
        <ele>904.2</ele>
        <time>2024-08-14T13:43:06Z</time>
      </trkpt>
      <trkpt lat="44.98897" lon="6.0985">
        <ele>904.2</ele>
        <time>2024-08-14T13:43:07Z</time>
      </trkpt>
      <trkpt lat="44.98897" lon="6.09848">
        <ele>904</ele>
        <time>2024-08-14T13:43:08Z</time>
      </trkpt>
      <trkpt lat="44.98897" lon="6.09848">
        <ele>904</ele>
        <time>2024-08-14T13:43:09Z</time>
      </trkpt>
      <trkpt lat="44.98898" lon="6.09844">
        <ele>903.8</ele>
        <time>2024-08-14T13:43:10Z</time>
      </trkpt>
      <trkpt lat="44.98898" lon="6.09844">
        <ele>903.8</ele>
        <time>2024-08-14T13:43:11Z</time>
      </trkpt>
      <trkpt lat="44.98899" lon="6.09839">
        <ele>903.8</ele>
        <time>2024-08-14T13:43:12Z</time>
      </trkpt>
      <trkpt lat="44.98899" lon="6.09839">
        <ele>903.6</ele>
        <time>2024-08-14T13:43:13Z</time>
      </trkpt>
      <trkpt lat="44.98901" lon="6.09836">
        <ele>903.6</ele>
        <time>2024-08-14T13:43:14Z</time>
      </trkpt>
      <trkpt lat="44.98901" lon="6.09836">
        <ele>903.6</ele>
        <time>2024-08-14T13:43:15Z</time>
      </trkpt>
      <trkpt lat="44.98902" lon="6.09833">
        <ele>903.6</ele>
        <time>2024-08-14T13:43:16Z</time>
      </trkpt>
      <trkpt lat="44.98902" lon="6.09833">
        <ele>903.4</ele>
        <time>2024-08-14T13:43:17Z</time>
      </trkpt>
      <trkpt lat="44.98903" lon="6.0983">
        <ele>903.2</ele>
        <time>2024-08-14T13:43:18Z</time>
      </trkpt>
      <trkpt lat="44.98903" lon="6.0983">
        <ele>902.8</ele>
        <time>2024-08-14T13:43:19Z</time>
      </trkpt>
      <trkpt lat="44.98904" lon="6.09826">
        <ele>902.6</ele>
        <time>2024-08-14T13:43:20Z</time>
      </trkpt>
      <trkpt lat="44.98904" lon="6.09826">
        <ele>902.4</ele>
        <time>2024-08-14T13:43:21Z</time>
      </trkpt>
      <trkpt lat="44.98903" lon="6.09823">
        <ele>902.4</ele>
        <time>2024-08-14T13:43:22Z</time>
      </trkpt>
      <trkpt lat="44.98903" lon="6.09823">
        <ele>902</ele>
        <time>2024-08-14T13:43:23Z</time>
      </trkpt>
      <trkpt lat="44.98903" lon="6.0982">
        <ele>901.8</ele>
        <time>2024-08-14T13:43:24Z</time>
      </trkpt>
      <trkpt lat="44.98903" lon="6.0982">
        <ele>901.6</ele>
        <time>2024-08-14T13:43:25Z</time>
      </trkpt>
      <trkpt lat="44.98904" lon="6.09816">
        <ele>901.6</ele>
        <time>2024-08-14T13:43:26Z</time>
      </trkpt>
      <trkpt lat="44.98904" lon="6.09816">
        <ele>901.4</ele>
        <time>2024-08-14T13:43:27Z</time>
      </trkpt>
      <trkpt lat="44.98905" lon="6.09814">
        <ele>901.2</ele>
        <time>2024-08-14T13:43:28Z</time>
      </trkpt>
      <trkpt lat="44.98905" lon="6.09814">
        <ele>901</ele>
        <time>2024-08-14T13:43:29Z</time>
      </trkpt>
      <trkpt lat="44.98905" lon="6.09811">
        <ele>900.8</ele>
        <time>2024-08-14T13:43:30Z</time>
      </trkpt>
      <trkpt lat="44.98906" lon="6.09809">
        <ele>900.4</ele>
        <time>2024-08-14T13:43:31Z</time>
      </trkpt>
      <trkpt lat="44.98906" lon="6.09809">
        <ele>900.4</ele>
        <time>2024-08-14T13:43:32Z</time>
      </trkpt>
      <trkpt lat="44.98908" lon="6.09805">
        <ele>900.4</ele>
        <time>2024-08-14T13:43:33Z</time>
      </trkpt>
      <trkpt lat="44.98909" lon="6.09802">
        <ele>900.2</ele>
        <time>2024-08-14T13:43:34Z</time>
      </trkpt>
      <trkpt lat="44.98909" lon="6.09802">
        <ele>899.6</ele>
        <time>2024-08-14T13:43:35Z</time>
      </trkpt>
      <trkpt lat="44.98911" lon="6.09798">
        <ele>899.6</ele>
        <time>2024-08-14T13:43:36Z</time>
      </trkpt>
      <trkpt lat="44.98911" lon="6.09798">
        <ele>899.6</ele>
        <time>2024-08-14T13:43:37Z</time>
      </trkpt>
      <trkpt lat="44.98912" lon="6.09793">
        <ele>899.6</ele>
        <time>2024-08-14T13:43:38Z</time>
      </trkpt>
      <trkpt lat="44.98913" lon="6.0979">
        <ele>899.6</ele>
        <time>2024-08-14T13:43:39Z</time>
      </trkpt>
      <trkpt lat="44.98913" lon="6.0979">
        <ele>899.6</ele>
        <time>2024-08-14T13:43:40Z</time>
      </trkpt>
      <trkpt lat="44.98915" lon="6.09787">
        <ele>899.6</ele>
        <time>2024-08-14T13:43:41Z</time>
      </trkpt>
      <trkpt lat="44.98915" lon="6.09787">
        <ele>899.6</ele>
        <time>2024-08-14T13:43:42Z</time>
      </trkpt>
      <trkpt lat="44.98916" lon="6.09783">
        <ele>899.4</ele>
        <time>2024-08-14T13:43:43Z</time>
      </trkpt>
      <trkpt lat="44.98917" lon="6.0978">
        <ele>899.4</ele>
        <time>2024-08-14T13:43:44Z</time>
      </trkpt>
      <trkpt lat="44.98917" lon="6.0978">
        <ele>899.4</ele>
        <time>2024-08-14T13:43:45Z</time>
      </trkpt>
      <trkpt lat="44.98918" lon="6.09776">
        <ele>899.4</ele>
        <time>2024-08-14T13:43:46Z</time>
      </trkpt>
      <trkpt lat="44.98918" lon="6.09776">
        <ele>899.4</ele>
        <time>2024-08-14T13:43:47Z</time>
      </trkpt>
      <trkpt lat="44.98918" lon="6.09776">
        <ele>899.2</ele>
        <time>2024-08-14T13:43:48Z</time>
      </trkpt>
      <trkpt lat="44.98919" lon="6.09771">
        <ele>898.8</ele>
        <time>2024-08-14T13:43:49Z</time>
      </trkpt>
      <trkpt lat="44.9892" lon="6.09769">
        <ele>898.6</ele>
        <time>2024-08-14T13:43:50Z</time>
      </trkpt>
      <trkpt lat="44.9892" lon="6.09769">
        <ele>898.6</ele>
        <time>2024-08-14T13:43:51Z</time>
      </trkpt>
      <trkpt lat="44.98922" lon="6.09765">
        <ele>898.6</ele>
        <time>2024-08-14T13:43:52Z</time>
      </trkpt>
      <trkpt lat="44.98925" lon="6.09761">
        <ele>898.4</ele>
        <time>2024-08-14T13:43:53Z</time>
      </trkpt>
      <trkpt lat="44.98927" lon="6.09758">
        <ele>898</ele>
        <time>2024-08-14T13:43:54Z</time>
      </trkpt>
      <trkpt lat="44.98929" lon="6.09756">
        <ele>897.8</ele>
        <time>2024-08-14T13:43:55Z</time>
      </trkpt>
      <trkpt lat="44.98931" lon="6.09754">
        <ele>897.4</ele>
        <time>2024-08-14T13:43:56Z</time>
      </trkpt>
      <trkpt lat="44.98931" lon="6.09754">
        <ele>897.2</ele>
        <time>2024-08-14T13:43:57Z</time>
      </trkpt>
      <trkpt lat="44.98933" lon="6.0975">
        <ele>897.2</ele>
        <time>2024-08-14T13:43:58Z</time>
      </trkpt>
      <trkpt lat="44.98933" lon="6.0975">
        <ele>897.2</ele>
        <time>2024-08-14T13:43:59Z</time>
      </trkpt>
      <trkpt lat="44.98935" lon="6.09747">
        <ele>897</ele>
        <time>2024-08-14T13:44:00Z</time>
      </trkpt>
      <trkpt lat="44.98935" lon="6.09747">
        <ele>897</ele>
        <time>2024-08-14T13:44:01Z</time>
      </trkpt>
      <trkpt lat="44.98935" lon="6.09747">
        <ele>896.8</ele>
        <time>2024-08-14T13:44:02Z</time>
      </trkpt>
      <trkpt lat="44.98937" lon="6.09743">
        <ele>896.8</ele>
        <time>2024-08-14T13:44:03Z</time>
      </trkpt>
      <trkpt lat="44.98937" lon="6.09742">
        <ele>896.8</ele>
        <time>2024-08-14T13:44:04Z</time>
      </trkpt>
      <trkpt lat="44.98937" lon="6.09742">
        <ele>896.8</ele>
        <time>2024-08-14T13:44:05Z</time>
      </trkpt>
      <trkpt lat="44.98938" lon="6.0974">
        <ele>896.8</ele>
        <time>2024-08-14T13:44:06Z</time>
      </trkpt>
      <trkpt lat="44.98938" lon="6.0974">
        <ele>896.4</ele>
        <time>2024-08-14T13:44:07Z</time>
      </trkpt>
      <trkpt lat="44.9894" lon="6.09738">
        <ele>896.4</ele>
        <time>2024-08-14T13:44:08Z</time>
      </trkpt>
      <trkpt lat="44.9894" lon="6.09738">
        <ele>896</ele>
        <time>2024-08-14T13:44:09Z</time>
      </trkpt>
      <trkpt lat="44.9894" lon="6.09738">
        <ele>896</ele>
        <time>2024-08-14T13:44:10Z</time>
      </trkpt>
      <trkpt lat="44.98942" lon="6.09733">
        <ele>896</ele>
        <time>2024-08-14T13:44:11Z</time>
      </trkpt>
      <trkpt lat="44.98943" lon="6.09731">
        <ele>896</ele>
        <time>2024-08-14T13:44:12Z</time>
      </trkpt>
      <trkpt lat="44.98944" lon="6.09728">
        <ele>895.8</ele>
        <time>2024-08-14T13:44:13Z</time>
      </trkpt>
      <trkpt lat="44.98944" lon="6.09728">
        <ele>895.8</ele>
        <time>2024-08-14T13:44:14Z</time>
      </trkpt>
      <trkpt lat="44.98945" lon="6.09725">
        <ele>895.6</ele>
        <time>2024-08-14T13:44:15Z</time>
      </trkpt>
      <trkpt lat="44.98945" lon="6.09725">
        <ele>895.4</ele>
        <time>2024-08-14T13:44:16Z</time>
      </trkpt>
      <trkpt lat="44.98947" lon="6.09721">
        <ele>895.4</ele>
        <time>2024-08-14T13:44:17Z</time>
      </trkpt>
      <trkpt lat="44.98948" lon="6.09719">
        <ele>895.2</ele>
        <time>2024-08-14T13:44:18Z</time>
      </trkpt>
      <trkpt lat="44.9895" lon="6.09717">
        <ele>895.2</ele>
        <time>2024-08-14T13:44:19Z</time>
      </trkpt>
      <trkpt lat="44.98951" lon="6.09715">
        <ele>895.2</ele>
        <time>2024-08-14T13:44:20Z</time>
      </trkpt>
      <trkpt lat="44.98951" lon="6.09715">
        <ele>895.2</ele>
        <time>2024-08-14T13:44:21Z</time>
      </trkpt>
      <trkpt lat="44.98953" lon="6.09712">
        <ele>895.2</ele>
        <time>2024-08-14T13:44:22Z</time>
      </trkpt>
      <trkpt lat="44.98953" lon="6.09712">
        <ele>895</ele>
        <time>2024-08-14T13:44:23Z</time>
      </trkpt>
      <trkpt lat="44.98955" lon="6.09709">
        <ele>895</ele>
        <time>2024-08-14T13:44:24Z</time>
      </trkpt>
      <trkpt lat="44.98955" lon="6.09709">
        <ele>895</ele>
        <time>2024-08-14T13:44:25Z</time>
      </trkpt>
      <trkpt lat="44.98955" lon="6.09709">
        <ele>895</ele>
        <time>2024-08-14T13:44:26Z</time>
      </trkpt>
      <trkpt lat="44.98958" lon="6.09705">
        <ele>894.8</ele>
        <time>2024-08-14T13:44:27Z</time>
      </trkpt>
      <trkpt lat="44.98959" lon="6.09705">
        <ele>894.8</ele>
        <time>2024-08-14T13:44:28Z</time>
      </trkpt>
      <trkpt lat="44.98959" lon="6.09705">
        <ele>894.8</ele>
        <time>2024-08-14T13:44:29Z</time>
      </trkpt>
      <trkpt lat="44.98962" lon="6.09701">
        <ele>894.8</ele>
        <time>2024-08-14T13:44:30Z</time>
      </trkpt>
      <trkpt lat="44.98963" lon="6.09699">
        <ele>894.8</ele>
        <time>2024-08-14T13:44:31Z</time>
      </trkpt>
      <trkpt lat="44.98963" lon="6.09699">
        <ele>894.8</ele>
        <time>2024-08-14T13:44:32Z</time>
      </trkpt>
      <trkpt lat="44.98965" lon="6.09695">
        <ele>894.8</ele>
        <time>2024-08-14T13:44:33Z</time>
      </trkpt>
      <trkpt lat="44.98965" lon="6.09695">
        <ele>894.8</ele>
        <time>2024-08-14T13:44:34Z</time>
      </trkpt>
      <trkpt lat="44.98967" lon="6.09693">
        <ele>894.6</ele>
        <time>2024-08-14T13:44:35Z</time>
      </trkpt>
      <trkpt lat="44.98967" lon="6.09693">
        <ele>894.6</ele>
        <time>2024-08-14T13:44:36Z</time>
      </trkpt>
      <trkpt lat="44.98969" lon="6.0969">
        <ele>894.6</ele>
        <time>2024-08-14T13:44:37Z</time>
      </trkpt>
      <trkpt lat="44.98969" lon="6.0969">
        <ele>894.6</ele>
        <time>2024-08-14T13:44:38Z</time>
      </trkpt>
      <trkpt lat="44.98971" lon="6.09687">
        <ele>894.4</ele>
        <time>2024-08-14T13:44:39Z</time>
      </trkpt>
      <trkpt lat="44.98971" lon="6.09687">
        <ele>894.4</ele>
        <time>2024-08-14T13:44:40Z</time>
      </trkpt>
      <trkpt lat="44.98973" lon="6.09684">
        <ele>894.4</ele>
        <time>2024-08-14T13:44:41Z</time>
      </trkpt>
      <trkpt lat="44.98973" lon="6.09684">
        <ele>894.4</ele>
        <time>2024-08-14T13:44:42Z</time>
      </trkpt>
      <trkpt lat="44.98974" lon="6.09681">
        <ele>894.4</ele>
        <time>2024-08-14T13:44:43Z</time>
      </trkpt>
      <trkpt lat="44.98974" lon="6.09681">
        <ele>894.4</ele>
        <time>2024-08-14T13:44:44Z</time>
      </trkpt>
      <trkpt lat="44.98976" lon="6.09677">
        <ele>894.4</ele>
        <time>2024-08-14T13:44:45Z</time>
      </trkpt>
      <trkpt lat="44.98978" lon="6.09675">
        <ele>894.4</ele>
        <time>2024-08-14T13:44:46Z</time>
      </trkpt>
      <trkpt lat="44.98979" lon="6.09673">
        <ele>894.6</ele>
        <time>2024-08-14T13:44:47Z</time>
      </trkpt>
      <trkpt lat="44.98979" lon="6.09673">
        <ele>894.6</ele>
        <time>2024-08-14T13:44:48Z</time>
      </trkpt>
      <trkpt lat="44.98982" lon="6.0967">
        <ele>894.6</ele>
        <time>2024-08-14T13:44:49Z</time>
      </trkpt>
      <trkpt lat="44.98982" lon="6.0967">
        <ele>894.6</ele>
        <time>2024-08-14T13:44:50Z</time>
      </trkpt>
      <trkpt lat="44.98983" lon="6.09667">
        <ele>894.6</ele>
        <time>2024-08-14T13:44:51Z</time>
      </trkpt>
      <trkpt lat="44.98983" lon="6.09667">
        <ele>894.4</ele>
        <time>2024-08-14T13:44:52Z</time>
      </trkpt>
      <trkpt lat="44.98984" lon="6.09663">
        <ele>894.4</ele>
        <time>2024-08-14T13:44:53Z</time>
      </trkpt>
      <trkpt lat="44.98985" lon="6.09661">
        <ele>894.2</ele>
        <time>2024-08-14T13:44:54Z</time>
      </trkpt>
      <trkpt lat="44.98985" lon="6.09661">
        <ele>894.2</ele>
        <time>2024-08-14T13:44:55Z</time>
      </trkpt>
      <trkpt lat="44.98987" lon="6.09659">
        <ele>894.2</ele>
        <time>2024-08-14T13:44:56Z</time>
      </trkpt>
      <trkpt lat="44.98987" lon="6.09659">
        <ele>894.4</ele>
        <time>2024-08-14T13:44:57Z</time>
      </trkpt>
      <trkpt lat="44.98989" lon="6.09656">
        <ele>894.4</ele>
        <time>2024-08-14T13:44:58Z</time>
      </trkpt>
      <trkpt lat="44.98989" lon="6.09656">
        <ele>894.4</ele>
        <time>2024-08-14T13:44:59Z</time>
      </trkpt>
      <trkpt lat="44.9899" lon="6.09653">
        <ele>894.4</ele>
        <time>2024-08-14T13:45:00Z</time>
      </trkpt>
      <trkpt lat="44.9899" lon="6.09653">
        <ele>894.4</ele>
        <time>2024-08-14T13:45:01Z</time>
      </trkpt>
      <trkpt lat="44.98991" lon="6.0965">
        <ele>894.4</ele>
        <time>2024-08-14T13:45:02Z</time>
      </trkpt>
      <trkpt lat="44.98991" lon="6.0965">
        <ele>894.4</ele>
        <time>2024-08-14T13:45:03Z</time>
      </trkpt>
      <trkpt lat="44.98992" lon="6.09647">
        <ele>894.2</ele>
        <time>2024-08-14T13:45:04Z</time>
      </trkpt>
      <trkpt lat="44.98992" lon="6.09647">
        <ele>894.2</ele>
        <time>2024-08-14T13:45:05Z</time>
      </trkpt>
      <trkpt lat="44.98993" lon="6.09643">
        <ele>894.4</ele>
        <time>2024-08-14T13:45:06Z</time>
      </trkpt>
      <trkpt lat="44.98993" lon="6.09643">
        <ele>894.4</ele>
        <time>2024-08-14T13:45:07Z</time>
      </trkpt>
      <trkpt lat="44.98995" lon="6.0964">
        <ele>894.4</ele>
        <time>2024-08-14T13:45:08Z</time>
      </trkpt>
      <trkpt lat="44.98995" lon="6.0964">
        <ele>894.6</ele>
        <time>2024-08-14T13:45:09Z</time>
      </trkpt>
      <trkpt lat="44.98997" lon="6.09637">
        <ele>894.6</ele>
        <time>2024-08-14T13:45:10Z</time>
      </trkpt>
      <trkpt lat="44.98997" lon="6.09637">
        <ele>894.4</ele>
        <time>2024-08-14T13:45:11Z</time>
      </trkpt>
      <trkpt lat="44.98999" lon="6.09633">
        <ele>894.4</ele>
        <time>2024-08-14T13:45:12Z</time>
      </trkpt>
      <trkpt lat="44.99" lon="6.09631">
        <ele>894.4</ele>
        <time>2024-08-14T13:45:13Z</time>
      </trkpt>
      <trkpt lat="44.99" lon="6.09631">
        <ele>894.4</ele>
        <time>2024-08-14T13:45:14Z</time>
      </trkpt>
      <trkpt lat="44.99002" lon="6.09626">
        <ele>894.4</ele>
        <time>2024-08-14T13:45:15Z</time>
      </trkpt>
      <trkpt lat="44.99002" lon="6.09626">
        <ele>894.4</ele>
        <time>2024-08-14T13:45:16Z</time>
      </trkpt>
      <trkpt lat="44.99003" lon="6.09623">
        <ele>894.4</ele>
        <time>2024-08-14T13:45:17Z</time>
      </trkpt>
      <trkpt lat="44.99003" lon="6.09623">
        <ele>894.4</ele>
        <time>2024-08-14T13:45:18Z</time>
      </trkpt>
      <trkpt lat="44.99005" lon="6.09619">
        <ele>894.4</ele>
        <time>2024-08-14T13:45:19Z</time>
      </trkpt>
      <trkpt lat="44.99005" lon="6.09619">
        <ele>894.2</ele>
        <time>2024-08-14T13:45:20Z</time>
      </trkpt>
      <trkpt lat="44.99005" lon="6.09616">
        <ele>894</ele>
        <time>2024-08-14T13:45:21Z</time>
      </trkpt>
      <trkpt lat="44.99005" lon="6.09616">
        <ele>894</ele>
        <time>2024-08-14T13:45:22Z</time>
      </trkpt>
      <trkpt lat="44.99005" lon="6.09612">
        <ele>894</ele>
        <time>2024-08-14T13:45:23Z</time>
      </trkpt>
      <trkpt lat="44.99005" lon="6.09612">
        <ele>894</ele>
        <time>2024-08-14T13:45:24Z</time>
      </trkpt>
      <trkpt lat="44.99005" lon="6.09609">
        <ele>894.2</ele>
        <time>2024-08-14T13:45:25Z</time>
      </trkpt>
      <trkpt lat="44.99005" lon="6.09609">
        <ele>894.2</ele>
        <time>2024-08-14T13:45:26Z</time>
      </trkpt>
      <trkpt lat="44.99005" lon="6.09609">
        <ele>894</ele>
        <time>2024-08-14T13:45:27Z</time>
      </trkpt>
      <trkpt lat="44.99009" lon="6.09604">
        <ele>894</ele>
        <time>2024-08-14T13:45:28Z</time>
      </trkpt>
      <trkpt lat="44.99009" lon="6.09603">
        <ele>893.8</ele>
        <time>2024-08-14T13:45:29Z</time>
      </trkpt>
      <trkpt lat="44.99009" lon="6.09603">
        <ele>893.8</ele>
        <time>2024-08-14T13:45:30Z</time>
      </trkpt>
      <trkpt lat="44.99011" lon="6.096">
        <ele>893.8</ele>
        <time>2024-08-14T13:45:31Z</time>
      </trkpt>
      <trkpt lat="44.99011" lon="6.096">
        <ele>893.6</ele>
        <time>2024-08-14T13:45:32Z</time>
      </trkpt>
      <trkpt lat="44.99012" lon="6.09597">
        <ele>893.6</ele>
        <time>2024-08-14T13:45:33Z</time>
      </trkpt>
      <trkpt lat="44.99012" lon="6.09597">
        <ele>893.6</ele>
        <time>2024-08-14T13:45:34Z</time>
      </trkpt>
      <trkpt lat="44.99012" lon="6.09597">
        <ele>893.6</ele>
        <time>2024-08-14T13:45:35Z</time>
      </trkpt>
      <trkpt lat="44.99013" lon="6.09591">
        <ele>893.6</ele>
        <time>2024-08-14T13:45:36Z</time>
      </trkpt>
      <trkpt lat="44.99016" lon="6.09588">
        <ele>893.4</ele>
        <time>2024-08-14T13:45:37Z</time>
      </trkpt>
      <trkpt lat="44.99017" lon="6.09588">
        <ele>893.4</ele>
        <time>2024-08-14T13:45:38Z</time>
      </trkpt>
      <trkpt lat="44.99017" lon="6.09588">
        <ele>893.4</ele>
        <time>2024-08-14T13:45:39Z</time>
      </trkpt>
      <trkpt lat="44.99018" lon="6.09584">
        <ele>893.4</ele>
        <time>2024-08-14T13:45:40Z</time>
      </trkpt>
      <trkpt lat="44.99018" lon="6.09584">
        <ele>893.4</ele>
        <time>2024-08-14T13:45:41Z</time>
      </trkpt>
      <trkpt lat="44.99018" lon="6.0958">
        <ele>893.2</ele>
        <time>2024-08-14T13:45:42Z</time>
      </trkpt>
      <trkpt lat="44.99018" lon="6.0958">
        <ele>893.2</ele>
        <time>2024-08-14T13:45:43Z</time>
      </trkpt>
      <trkpt lat="44.99019" lon="6.09576">
        <ele>893.4</ele>
        <time>2024-08-14T13:45:44Z</time>
      </trkpt>
      <trkpt lat="44.99019" lon="6.09576">
        <ele>893.4</ele>
        <time>2024-08-14T13:45:45Z</time>
      </trkpt>
      <trkpt lat="44.99017" lon="6.09572">
        <ele>893.4</ele>
        <time>2024-08-14T13:45:46Z</time>
      </trkpt>
      <trkpt lat="44.99017" lon="6.09572">
        <ele>893.6</ele>
        <time>2024-08-14T13:45:47Z</time>
      </trkpt>
      <trkpt lat="44.99017" lon="6.09569">
        <ele>893.6</ele>
        <time>2024-08-14T13:45:48Z</time>
      </trkpt>
      <trkpt lat="44.99017" lon="6.09569">
        <ele>893.6</ele>
        <time>2024-08-14T13:45:49Z</time>
      </trkpt>
      <trkpt lat="44.99017" lon="6.09569">
        <ele>893.4</ele>
        <time>2024-08-14T13:45:50Z</time>
      </trkpt>
      <trkpt lat="44.99017" lon="6.09563">
        <ele>893.2</ele>
        <time>2024-08-14T13:45:51Z</time>
      </trkpt>
      <trkpt lat="44.99018" lon="6.09561">
        <ele>893.2</ele>
        <time>2024-08-14T13:45:52Z</time>
      </trkpt>
      <trkpt lat="44.99018" lon="6.09561">
        <ele>893.2</ele>
        <time>2024-08-14T13:45:53Z</time>
      </trkpt>
      <trkpt lat="44.99019" lon="6.09558">
        <ele>893.2</ele>
        <time>2024-08-14T13:45:54Z</time>
      </trkpt>
      <trkpt lat="44.99019" lon="6.09558">
        <ele>893.2</ele>
        <time>2024-08-14T13:45:55Z</time>
      </trkpt>
      <trkpt lat="44.9902" lon="6.09554">
        <ele>893</ele>
        <time>2024-08-14T13:45:56Z</time>
      </trkpt>
      <trkpt lat="44.9902" lon="6.09554">
        <ele>893</ele>
        <time>2024-08-14T13:45:57Z</time>
      </trkpt>
      <trkpt lat="44.99021" lon="6.09551">
        <ele>893</ele>
        <time>2024-08-14T13:45:58Z</time>
      </trkpt>
      <trkpt lat="44.99021" lon="6.09551">
        <ele>893.4</ele>
        <time>2024-08-14T13:45:59Z</time>
      </trkpt>
      <trkpt lat="44.99021" lon="6.09547">
        <ele>893.4</ele>
        <time>2024-08-14T13:46:00Z</time>
      </trkpt>
      <trkpt lat="44.99021" lon="6.09547">
        <ele>893.4</ele>
        <time>2024-08-14T13:46:01Z</time>
      </trkpt>
      <trkpt lat="44.99023" lon="6.09544">
        <ele>892.4</ele>
        <time>2024-08-14T13:46:02Z</time>
      </trkpt>
      <trkpt lat="44.99024" lon="6.09542">
        <ele>892.4</ele>
        <time>2024-08-14T13:46:03Z</time>
      </trkpt>
      <trkpt lat="44.99024" lon="6.09542">
        <ele>892.4</ele>
        <time>2024-08-14T13:46:04Z</time>
      </trkpt>
      <trkpt lat="44.99027" lon="6.0954">
        <ele>892.2</ele>
        <time>2024-08-14T13:46:05Z</time>
      </trkpt>
      <trkpt lat="44.99027" lon="6.0954">
        <ele>892.2</ele>
        <time>2024-08-14T13:46:06Z</time>
      </trkpt>
      <trkpt lat="44.99027" lon="6.0954">
        <ele>892.2</ele>
        <time>2024-08-14T13:46:07Z</time>
      </trkpt>
      <trkpt lat="44.99029" lon="6.0954">
        <ele>892.8</ele>
        <time>2024-08-14T13:46:08Z</time>
      </trkpt>
      <trkpt lat="44.99029" lon="6.0954">
        <ele>893.2</ele>
        <time>2024-08-14T13:46:09Z</time>
      </trkpt>
      <trkpt lat="44.99029" lon="6.0954">
        <ele>893.4</ele>
        <time>2024-08-14T13:46:10Z</time>
      </trkpt>
      <trkpt lat="44.99031" lon="6.09539">
        <ele>893.8</ele>
        <time>2024-08-14T13:46:11Z</time>
      </trkpt>
      <trkpt lat="44.99031" lon="6.09539">
        <ele>894.2</ele>
        <time>2024-08-14T13:46:12Z</time>
      </trkpt>
      <trkpt lat="44.99032" lon="6.09536">
        <ele>894.6</ele>
        <time>2024-08-14T13:46:13Z</time>
      </trkpt>
      <trkpt lat="44.99032" lon="6.09536">
        <ele>894.8</ele>
        <time>2024-08-14T13:46:14Z</time>
      </trkpt>
      <trkpt lat="44.99031" lon="6.09531">
        <ele>895</ele>
        <time>2024-08-14T13:46:15Z</time>
      </trkpt>
      <trkpt lat="44.99031" lon="6.09531">
        <ele>895.2</ele>
        <time>2024-08-14T13:46:16Z</time>
      </trkpt>
      <trkpt lat="44.99031" lon="6.09528">
        <ele>895.4</ele>
        <time>2024-08-14T13:46:17Z</time>
      </trkpt>
      <trkpt lat="44.99031" lon="6.09528">
        <ele>895.6</ele>
        <time>2024-08-14T13:46:18Z</time>
      </trkpt>
      <trkpt lat="44.99029" lon="6.09524">
        <ele>895.6</ele>
        <time>2024-08-14T13:46:19Z</time>
      </trkpt>
      <trkpt lat="44.99029" lon="6.09524">
        <ele>895.4</ele>
        <time>2024-08-14T13:46:20Z</time>
      </trkpt>
      <trkpt lat="44.99029" lon="6.0952">
        <ele>895.4</ele>
        <time>2024-08-14T13:46:21Z</time>
      </trkpt>
      <trkpt lat="44.99029" lon="6.0952">
        <ele>895.4</ele>
        <time>2024-08-14T13:46:22Z</time>
      </trkpt>
      <trkpt lat="44.9903" lon="6.09516">
        <ele>895.4</ele>
        <time>2024-08-14T13:46:23Z</time>
      </trkpt>
      <trkpt lat="44.9903" lon="6.09516">
        <ele>895.4</ele>
        <time>2024-08-14T13:46:24Z</time>
      </trkpt>
      <trkpt lat="44.99031" lon="6.09512">
        <ele>895.4</ele>
        <time>2024-08-14T13:46:25Z</time>
      </trkpt>
      <trkpt lat="44.99031" lon="6.09512">
        <ele>895.4</ele>
        <time>2024-08-14T13:46:26Z</time>
      </trkpt>
      <trkpt lat="44.99032" lon="6.09509">
        <ele>895.2</ele>
        <time>2024-08-14T13:46:27Z</time>
      </trkpt>
      <trkpt lat="44.99032" lon="6.09509">
        <ele>895.2</ele>
        <time>2024-08-14T13:46:28Z</time>
      </trkpt>
      <trkpt lat="44.99032" lon="6.09509">
        <ele>895.2</ele>
        <time>2024-08-14T13:46:29Z</time>
      </trkpt>
      <trkpt lat="44.99033" lon="6.09503">
        <ele>895.2</ele>
        <time>2024-08-14T13:46:30Z</time>
      </trkpt>
      <trkpt lat="44.99033" lon="6.09502">
        <ele>895.2</ele>
        <time>2024-08-14T13:46:31Z</time>
      </trkpt>
      <trkpt lat="44.99033" lon="6.09502">
        <ele>895</ele>
        <time>2024-08-14T13:46:32Z</time>
      </trkpt>
      <trkpt lat="44.99033" lon="6.09502">
        <ele>895</ele>
        <time>2024-08-14T13:46:33Z</time>
      </trkpt>
      <trkpt lat="44.99033" lon="6.09497">
        <ele>895</ele>
        <time>2024-08-14T13:46:34Z</time>
      </trkpt>
      <trkpt lat="44.99033" lon="6.09495">
        <ele>895</ele>
        <time>2024-08-14T13:46:35Z</time>
      </trkpt>
      <trkpt lat="44.99033" lon="6.09495">
        <ele>895</ele>
        <time>2024-08-14T13:46:36Z</time>
      </trkpt>
      <trkpt lat="44.99034" lon="6.09492">
        <ele>895</ele>
        <time>2024-08-14T13:46:37Z</time>
      </trkpt>
      <trkpt lat="44.99035" lon="6.0949">
        <ele>895</ele>
        <time>2024-08-14T13:46:38Z</time>
      </trkpt>
      <trkpt lat="44.99035" lon="6.0949">
        <ele>895</ele>
        <time>2024-08-14T13:46:39Z</time>
      </trkpt>
      <trkpt lat="44.99036" lon="6.09486">
        <ele>895</ele>
        <time>2024-08-14T13:46:40Z</time>
      </trkpt>
      <trkpt lat="44.99036" lon="6.09486">
        <ele>894.8</ele>
        <time>2024-08-14T13:46:41Z</time>
      </trkpt>
      <trkpt lat="44.99037" lon="6.09482">
        <ele>894.8</ele>
        <time>2024-08-14T13:46:42Z</time>
      </trkpt>
      <trkpt lat="44.99037" lon="6.09482">
        <ele>895</ele>
        <time>2024-08-14T13:46:43Z</time>
      </trkpt>
      <trkpt lat="44.99038" lon="6.09478">
        <ele>895.2</ele>
        <time>2024-08-14T13:46:44Z</time>
      </trkpt>
      <trkpt lat="44.99039" lon="6.09475">
        <ele>895.2</ele>
        <time>2024-08-14T13:46:45Z</time>
      </trkpt>
      <trkpt lat="44.99039" lon="6.09475">
        <ele>894.8</ele>
        <time>2024-08-14T13:46:46Z</time>
      </trkpt>
      <trkpt lat="44.9904" lon="6.09472">
        <ele>894.8</ele>
        <time>2024-08-14T13:46:47Z</time>
      </trkpt>
      <trkpt lat="44.9904" lon="6.09472">
        <ele>894.8</ele>
        <time>2024-08-14T13:46:48Z</time>
      </trkpt>
      <trkpt lat="44.99041" lon="6.09468">
        <ele>894.8</ele>
        <time>2024-08-14T13:46:49Z</time>
      </trkpt>
      <trkpt lat="44.99041" lon="6.09468">
        <ele>894.8</ele>
        <time>2024-08-14T13:46:50Z</time>
      </trkpt>
      <trkpt lat="44.99042" lon="6.09465">
        <ele>894.6</ele>
        <time>2024-08-14T13:46:51Z</time>
      </trkpt>
      <trkpt lat="44.99042" lon="6.09465">
        <ele>894.6</ele>
        <time>2024-08-14T13:46:52Z</time>
      </trkpt>
      <trkpt lat="44.99042" lon="6.09461">
        <ele>894.6</ele>
        <time>2024-08-14T13:46:53Z</time>
      </trkpt>
      <trkpt lat="44.99042" lon="6.09461">
        <ele>894.6</ele>
        <time>2024-08-14T13:46:54Z</time>
      </trkpt>
      <trkpt lat="44.99043" lon="6.09457">
        <ele>894.6</ele>
        <time>2024-08-14T13:46:55Z</time>
      </trkpt>
      <trkpt lat="44.99043" lon="6.09457">
        <ele>894.6</ele>
        <time>2024-08-14T13:46:56Z</time>
      </trkpt>
      <trkpt lat="44.99044" lon="6.09454">
        <ele>894.4</ele>
        <time>2024-08-14T13:46:57Z</time>
      </trkpt>
      <trkpt lat="44.99044" lon="6.09454">
        <ele>894</ele>
        <time>2024-08-14T13:46:58Z</time>
      </trkpt>
      <trkpt lat="44.99045" lon="6.0945">
        <ele>894</ele>
        <time>2024-08-14T13:46:59Z</time>
      </trkpt>
      <trkpt lat="44.99045" lon="6.0945">
        <ele>894</ele>
        <time>2024-08-14T13:47:00Z</time>
      </trkpt>
      <trkpt lat="44.99046" lon="6.09448">
        <ele>894</ele>
        <time>2024-08-14T13:47:01Z</time>
      </trkpt>
      <trkpt lat="44.99046" lon="6.09448">
        <ele>893.6</ele>
        <time>2024-08-14T13:47:02Z</time>
      </trkpt>
      <trkpt lat="44.99047" lon="6.09443">
        <ele>893.6</ele>
        <time>2024-08-14T13:47:03Z</time>
      </trkpt>
      <trkpt lat="44.99048" lon="6.09441">
        <ele>893.6</ele>
        <time>2024-08-14T13:47:04Z</time>
      </trkpt>
      <trkpt lat="44.99048" lon="6.09441">
        <ele>893.4</ele>
        <time>2024-08-14T13:47:05Z</time>
      </trkpt>
      <trkpt lat="44.99049" lon="6.09436">
        <ele>893.4</ele>
        <time>2024-08-14T13:47:06Z</time>
      </trkpt>
      <trkpt lat="44.9905" lon="6.09433">
        <ele>892.8</ele>
        <time>2024-08-14T13:47:07Z</time>
      </trkpt>
      <trkpt lat="44.99051" lon="6.0943">
        <ele>892.6</ele>
        <time>2024-08-14T13:47:08Z</time>
      </trkpt>
      <trkpt lat="44.99051" lon="6.0943">
        <ele>892.4</ele>
        <time>2024-08-14T13:47:09Z</time>
      </trkpt>
      <trkpt lat="44.99051" lon="6.09426">
        <ele>892</ele>
        <time>2024-08-14T13:47:10Z</time>
      </trkpt>
      <trkpt lat="44.99051" lon="6.09426">
        <ele>891.6</ele>
        <time>2024-08-14T13:47:11Z</time>
      </trkpt>
      <trkpt lat="44.99051" lon="6.09422">
        <ele>891.6</ele>
        <time>2024-08-14T13:47:12Z</time>
      </trkpt>
      <trkpt lat="44.99051" lon="6.09422">
        <ele>891.6</ele>
        <time>2024-08-14T13:47:13Z</time>
      </trkpt>
      <trkpt lat="44.99051" lon="6.09419">
        <ele>891.6</ele>
        <time>2024-08-14T13:47:14Z</time>
      </trkpt>
      <trkpt lat="44.99051" lon="6.09419">
        <ele>891.8</ele>
        <time>2024-08-14T13:47:15Z</time>
      </trkpt>
      <trkpt lat="44.99053" lon="6.09415">
        <ele>891.4</ele>
        <time>2024-08-14T13:47:16Z</time>
      </trkpt>
      <trkpt lat="44.99053" lon="6.09415">
        <ele>891.2</ele>
        <time>2024-08-14T13:47:17Z</time>
      </trkpt>
      <trkpt lat="44.99054" lon="6.09411">
        <ele>891</ele>
        <time>2024-08-14T13:47:18Z</time>
      </trkpt>
      <trkpt lat="44.99055" lon="6.09409">
        <ele>890.8</ele>
        <time>2024-08-14T13:47:19Z</time>
      </trkpt>
      <trkpt lat="44.99055" lon="6.09409">
        <ele>890.8</ele>
        <time>2024-08-14T13:47:20Z</time>
      </trkpt>
      <trkpt lat="44.99057" lon="6.09406">
        <ele>890.8</ele>
        <time>2024-08-14T13:47:21Z</time>
      </trkpt>
      <trkpt lat="44.99057" lon="6.09406">
        <ele>891.2</ele>
        <time>2024-08-14T13:47:22Z</time>
      </trkpt>
      <trkpt lat="44.99058" lon="6.09403">
        <ele>891.4</ele>
        <time>2024-08-14T13:47:23Z</time>
      </trkpt>
      <trkpt lat="44.99059" lon="6.094">
        <ele>891.2</ele>
        <time>2024-08-14T13:47:24Z</time>
      </trkpt>
      <trkpt lat="44.99059" lon="6.094">
        <ele>891.2</ele>
        <time>2024-08-14T13:47:25Z</time>
      </trkpt>
      <trkpt lat="44.99061" lon="6.09397">
        <ele>890.8</ele>
        <time>2024-08-14T13:47:26Z</time>
      </trkpt>
      <trkpt lat="44.99061" lon="6.09397">
        <ele>890.8</ele>
        <time>2024-08-14T13:47:27Z</time>
      </trkpt>
      <trkpt lat="44.99062" lon="6.09392">
        <ele>890.8</ele>
        <time>2024-08-14T13:47:28Z</time>
      </trkpt>
      <trkpt lat="44.99063" lon="6.0939">
        <ele>890.8</ele>
        <time>2024-08-14T13:47:29Z</time>
      </trkpt>
      <trkpt lat="44.99063" lon="6.0939">
        <ele>890.8</ele>
        <time>2024-08-14T13:47:30Z</time>
      </trkpt>
      <trkpt lat="44.99064" lon="6.09386">
        <ele>891</ele>
        <time>2024-08-14T13:47:31Z</time>
      </trkpt>
      <trkpt lat="44.99064" lon="6.09386">
        <ele>891</ele>
        <time>2024-08-14T13:47:32Z</time>
      </trkpt>
      <trkpt lat="44.99066" lon="6.09382">
        <ele>891</ele>
        <time>2024-08-14T13:47:33Z</time>
      </trkpt>
      <trkpt lat="44.99066" lon="6.09382">
        <ele>891</ele>
        <time>2024-08-14T13:47:34Z</time>
      </trkpt>
      <trkpt lat="44.99067" lon="6.09379">
        <ele>891.2</ele>
        <time>2024-08-14T13:47:35Z</time>
      </trkpt>
      <trkpt lat="44.99067" lon="6.09379">
        <ele>891.2</ele>
        <time>2024-08-14T13:47:36Z</time>
      </trkpt>
      <trkpt lat="44.99069" lon="6.09375">
        <ele>891.4</ele>
        <time>2024-08-14T13:47:37Z</time>
      </trkpt>
      <trkpt lat="44.99069" lon="6.09375">
        <ele>891.4</ele>
        <time>2024-08-14T13:47:38Z</time>
      </trkpt>
      <trkpt lat="44.99069" lon="6.09371">
        <ele>891</ele>
        <time>2024-08-14T13:47:39Z</time>
      </trkpt>
      <trkpt lat="44.99069" lon="6.09371">
        <ele>891</ele>
        <time>2024-08-14T13:47:40Z</time>
      </trkpt>
      <trkpt lat="44.99069" lon="6.09367">
        <ele>891</ele>
        <time>2024-08-14T13:47:41Z</time>
      </trkpt>
      <trkpt lat="44.99069" lon="6.09367">
        <ele>891</ele>
        <time>2024-08-14T13:47:42Z</time>
      </trkpt>
      <trkpt lat="44.9907" lon="6.09364">
        <ele>891</ele>
        <time>2024-08-14T13:47:43Z</time>
      </trkpt>
      <trkpt lat="44.9907" lon="6.09364">
        <ele>891</ele>
        <time>2024-08-14T13:47:44Z</time>
      </trkpt>
      <trkpt lat="44.99071" lon="6.0936">
        <ele>891</ele>
        <time>2024-08-14T13:47:45Z</time>
      </trkpt>
      <trkpt lat="44.99071" lon="6.0936">
        <ele>891</ele>
        <time>2024-08-14T13:47:46Z</time>
      </trkpt>
      <trkpt lat="44.99072" lon="6.09356">
        <ele>891</ele>
        <time>2024-08-14T13:47:47Z</time>
      </trkpt>
      <trkpt lat="44.99072" lon="6.09356">
        <ele>891</ele>
        <time>2024-08-14T13:47:48Z</time>
      </trkpt>
      <trkpt lat="44.99073" lon="6.09352">
        <ele>891</ele>
        <time>2024-08-14T13:47:49Z</time>
      </trkpt>
      <trkpt lat="44.99073" lon="6.09352">
        <ele>891</ele>
        <time>2024-08-14T13:47:50Z</time>
      </trkpt>
      <trkpt lat="44.99074" lon="6.09348">
        <ele>891</ele>
        <time>2024-08-14T13:47:51Z</time>
      </trkpt>
      <trkpt lat="44.99074" lon="6.09348">
        <ele>891</ele>
        <time>2024-08-14T13:47:52Z</time>
      </trkpt>
      <trkpt lat="44.99075" lon="6.09344">
        <ele>890.8</ele>
        <time>2024-08-14T13:47:53Z</time>
      </trkpt>
      <trkpt lat="44.99075" lon="6.09344">
        <ele>890.8</ele>
        <time>2024-08-14T13:47:54Z</time>
      </trkpt>
      <trkpt lat="44.99076" lon="6.0934">
        <ele>890.8</ele>
        <time>2024-08-14T13:47:55Z</time>
      </trkpt>
      <trkpt lat="44.99076" lon="6.0934">
        <ele>890.8</ele>
        <time>2024-08-14T13:47:56Z</time>
      </trkpt>
      <trkpt lat="44.99077" lon="6.09337">
        <ele>890.8</ele>
        <time>2024-08-14T13:47:57Z</time>
      </trkpt>
      <trkpt lat="44.99077" lon="6.09337">
        <ele>891</ele>
        <time>2024-08-14T13:47:58Z</time>
      </trkpt>
      <trkpt lat="44.99077" lon="6.09333">
        <ele>891</ele>
        <time>2024-08-14T13:47:59Z</time>
      </trkpt>
      <trkpt lat="44.99077" lon="6.09333">
        <ele>890.8</ele>
        <time>2024-08-14T13:48:00Z</time>
      </trkpt>
      <trkpt lat="44.99078" lon="6.09328">
        <ele>890.6</ele>
        <time>2024-08-14T13:48:01Z</time>
      </trkpt>
      <trkpt lat="44.99078" lon="6.09328">
        <ele>890.8</ele>
        <time>2024-08-14T13:48:02Z</time>
      </trkpt>
      <trkpt lat="44.99078" lon="6.09324">
        <ele>890.8</ele>
        <time>2024-08-14T13:48:03Z</time>
      </trkpt>
      <trkpt lat="44.99078" lon="6.09324">
        <ele>890.8</ele>
        <time>2024-08-14T13:48:04Z</time>
      </trkpt>
      <trkpt lat="44.99078" lon="6.0932">
        <ele>890.8</ele>
        <time>2024-08-14T13:48:05Z</time>
      </trkpt>
      <trkpt lat="44.99078" lon="6.0932">
        <ele>890.8</ele>
        <time>2024-08-14T13:48:06Z</time>
      </trkpt>
      <trkpt lat="44.99079" lon="6.09317">
        <ele>890.6</ele>
        <time>2024-08-14T13:48:07Z</time>
      </trkpt>
      <trkpt lat="44.99079" lon="6.09317">
        <ele>890.6</ele>
        <time>2024-08-14T13:48:08Z</time>
      </trkpt>
      <trkpt lat="44.9908" lon="6.09313">
        <ele>890.6</ele>
        <time>2024-08-14T13:48:09Z</time>
      </trkpt>
      <trkpt lat="44.9908" lon="6.09313">
        <ele>890.6</ele>
        <time>2024-08-14T13:48:10Z</time>
      </trkpt>
      <trkpt lat="44.99081" lon="6.09309">
        <ele>890.6</ele>
        <time>2024-08-14T13:48:11Z</time>
      </trkpt>
      <trkpt lat="44.99081" lon="6.09309">
        <ele>890.6</ele>
        <time>2024-08-14T13:48:12Z</time>
      </trkpt>
      <trkpt lat="44.99081" lon="6.09305">
        <ele>890.8</ele>
        <time>2024-08-14T13:48:13Z</time>
      </trkpt>
      <trkpt lat="44.99081" lon="6.09305">
        <ele>890.8</ele>
        <time>2024-08-14T13:48:14Z</time>
      </trkpt>
      <trkpt lat="44.99082" lon="6.093">
        <ele>890.6</ele>
        <time>2024-08-14T13:48:15Z</time>
      </trkpt>
      <trkpt lat="44.99083" lon="6.09298">
        <ele>890.6</ele>
        <time>2024-08-14T13:48:16Z</time>
      </trkpt>
      <trkpt lat="44.99084" lon="6.09295">
        <ele>890.6</ele>
        <time>2024-08-14T13:48:17Z</time>
      </trkpt>
      <trkpt lat="44.99084" lon="6.09295">
        <ele>890.8</ele>
        <time>2024-08-14T13:48:18Z</time>
      </trkpt>
      <trkpt lat="44.99085" lon="6.09292">
        <ele>891</ele>
        <time>2024-08-14T13:48:19Z</time>
      </trkpt>
      <trkpt lat="44.99085" lon="6.09292">
        <ele>891</ele>
        <time>2024-08-14T13:48:20Z</time>
      </trkpt>
      <trkpt lat="44.99085" lon="6.09288">
        <ele>890.6</ele>
        <time>2024-08-14T13:48:21Z</time>
      </trkpt>
      <trkpt lat="44.99085" lon="6.09288">
        <ele>890.6</ele>
        <time>2024-08-14T13:48:22Z</time>
      </trkpt>
      <trkpt lat="44.99085" lon="6.09284">
        <ele>890.6</ele>
        <time>2024-08-14T13:48:23Z</time>
      </trkpt>
      <trkpt lat="44.99085" lon="6.09284">
        <ele>890.6</ele>
        <time>2024-08-14T13:48:24Z</time>
      </trkpt>
      <trkpt lat="44.99086" lon="6.09279">
        <ele>890.6</ele>
        <time>2024-08-14T13:48:25Z</time>
      </trkpt>
      <trkpt lat="44.99086" lon="6.09279">
        <ele>890.6</ele>
        <time>2024-08-14T13:48:26Z</time>
      </trkpt>
      <trkpt lat="44.99086" lon="6.09275">
        <ele>890.6</ele>
        <time>2024-08-14T13:48:27Z</time>
      </trkpt>
      <trkpt lat="44.99086" lon="6.09275">
        <ele>890.4</ele>
        <time>2024-08-14T13:48:28Z</time>
      </trkpt>
      <trkpt lat="44.99087" lon="6.09271">
        <ele>890.4</ele>
        <time>2024-08-14T13:48:29Z</time>
      </trkpt>
      <trkpt lat="44.99087" lon="6.09271">
        <ele>890.4</ele>
        <time>2024-08-14T13:48:30Z</time>
      </trkpt>
      <trkpt lat="44.99087" lon="6.09267">
        <ele>890.4</ele>
        <time>2024-08-14T13:48:31Z</time>
      </trkpt>
      <trkpt lat="44.99087" lon="6.09267">
        <ele>890.4</ele>
        <time>2024-08-14T13:48:32Z</time>
      </trkpt>
      <trkpt lat="44.99086" lon="6.09263">
        <ele>890.4</ele>
        <time>2024-08-14T13:48:33Z</time>
      </trkpt>
      <trkpt lat="44.99086" lon="6.09263">
        <ele>890.4</ele>
        <time>2024-08-14T13:48:34Z</time>
      </trkpt>
      <trkpt lat="44.99087" lon="6.09259">
        <ele>890.4</ele>
        <time>2024-08-14T13:48:35Z</time>
      </trkpt>
      <trkpt lat="44.99087" lon="6.09259">
        <ele>890.4</ele>
        <time>2024-08-14T13:48:36Z</time>
      </trkpt>
      <trkpt lat="44.99087" lon="6.09255">
        <ele>890.4</ele>
        <time>2024-08-14T13:48:37Z</time>
      </trkpt>
      <trkpt lat="44.99087" lon="6.09255">
        <ele>890.4</ele>
        <time>2024-08-14T13:48:38Z</time>
      </trkpt>
      <trkpt lat="44.99088" lon="6.09251">
        <ele>890.4</ele>
        <time>2024-08-14T13:48:39Z</time>
      </trkpt>
      <trkpt lat="44.99088" lon="6.09251">
        <ele>890.2</ele>
        <time>2024-08-14T13:48:40Z</time>
      </trkpt>
      <trkpt lat="44.99088" lon="6.09247">
        <ele>890.2</ele>
        <time>2024-08-14T13:48:41Z</time>
      </trkpt>
      <trkpt lat="44.99088" lon="6.09247">
        <ele>890.4</ele>
        <time>2024-08-14T13:48:42Z</time>
      </trkpt>
      <trkpt lat="44.99087" lon="6.09244">
        <ele>890.4</ele>
        <time>2024-08-14T13:48:43Z</time>
      </trkpt>
      <trkpt lat="44.99087" lon="6.09244">
        <ele>890.4</ele>
        <time>2024-08-14T13:48:44Z</time>
      </trkpt>
      <trkpt lat="44.99088" lon="6.0924">
        <ele>890.2</ele>
        <time>2024-08-14T13:48:45Z</time>
      </trkpt>
      <trkpt lat="44.99088" lon="6.0924">
        <ele>890</ele>
        <time>2024-08-14T13:48:46Z</time>
      </trkpt>
      <trkpt lat="44.99087" lon="6.09236">
        <ele>890</ele>
        <time>2024-08-14T13:48:47Z</time>
      </trkpt>
      <trkpt lat="44.99087" lon="6.09236">
        <ele>890.2</ele>
        <time>2024-08-14T13:48:48Z</time>
      </trkpt>
      <trkpt lat="44.99086" lon="6.09232">
        <ele>890.2</ele>
        <time>2024-08-14T13:48:49Z</time>
      </trkpt>
      <trkpt lat="44.99086" lon="6.09232">
        <ele>890.2</ele>
        <time>2024-08-14T13:48:50Z</time>
      </trkpt>
      <trkpt lat="44.99086" lon="6.09228">
        <ele>890</ele>
        <time>2024-08-14T13:48:51Z</time>
      </trkpt>
      <trkpt lat="44.99086" lon="6.09228">
        <ele>890</ele>
        <time>2024-08-14T13:48:52Z</time>
      </trkpt>
      <trkpt lat="44.99085" lon="6.09225">
        <ele>890</ele>
        <time>2024-08-14T13:48:53Z</time>
      </trkpt>
      <trkpt lat="44.99085" lon="6.09225">
        <ele>890</ele>
        <time>2024-08-14T13:48:54Z</time>
      </trkpt>
      <trkpt lat="44.99085" lon="6.09221">
        <ele>890.2</ele>
        <time>2024-08-14T13:48:55Z</time>
      </trkpt>
      <trkpt lat="44.99085" lon="6.09221">
        <ele>890.2</ele>
        <time>2024-08-14T13:48:56Z</time>
      </trkpt>
      <trkpt lat="44.99083" lon="6.09217">
        <ele>890.2</ele>
        <time>2024-08-14T13:48:57Z</time>
      </trkpt>
      <trkpt lat="44.99083" lon="6.09217">
        <ele>890</ele>
        <time>2024-08-14T13:48:58Z</time>
      </trkpt>
      <trkpt lat="44.99083" lon="6.09213">
        <ele>890</ele>
        <time>2024-08-14T13:48:59Z</time>
      </trkpt>
      <trkpt lat="44.99083" lon="6.09213">
        <ele>890</ele>
        <time>2024-08-14T13:49:00Z</time>
      </trkpt>
      <trkpt lat="44.99083" lon="6.09209">
        <ele>890.2</ele>
        <time>2024-08-14T13:49:01Z</time>
      </trkpt>
      <trkpt lat="44.99083" lon="6.09209">
        <ele>890.2</ele>
        <time>2024-08-14T13:49:02Z</time>
      </trkpt>
      <trkpt lat="44.99082" lon="6.09205">
        <ele>890.2</ele>
        <time>2024-08-14T13:49:03Z</time>
      </trkpt>
      <trkpt lat="44.99082" lon="6.09205">
        <ele>890</ele>
        <time>2024-08-14T13:49:04Z</time>
      </trkpt>
      <trkpt lat="44.99082" lon="6.09201">
        <ele>890</ele>
        <time>2024-08-14T13:49:05Z</time>
      </trkpt>
      <trkpt lat="44.99082" lon="6.09201">
        <ele>890</ele>
        <time>2024-08-14T13:49:06Z</time>
      </trkpt>
      <trkpt lat="44.99081" lon="6.09197">
        <ele>890.2</ele>
        <time>2024-08-14T13:49:07Z</time>
      </trkpt>
      <trkpt lat="44.99081" lon="6.09197">
        <ele>890.2</ele>
        <time>2024-08-14T13:49:08Z</time>
      </trkpt>
      <trkpt lat="44.99081" lon="6.09193">
        <ele>890.2</ele>
        <time>2024-08-14T13:49:09Z</time>
      </trkpt>
      <trkpt lat="44.99081" lon="6.09193">
        <ele>890.2</ele>
        <time>2024-08-14T13:49:10Z</time>
      </trkpt>
      <trkpt lat="44.99079" lon="6.0919">
        <ele>890</ele>
        <time>2024-08-14T13:49:11Z</time>
      </trkpt>
      <trkpt lat="44.99079" lon="6.0919">
        <ele>889.8</ele>
        <time>2024-08-14T13:49:12Z</time>
      </trkpt>
      <trkpt lat="44.99078" lon="6.09186">
        <ele>890</ele>
        <time>2024-08-14T13:49:13Z</time>
      </trkpt>
      <trkpt lat="44.99077" lon="6.09184">
        <ele>890</ele>
        <time>2024-08-14T13:49:14Z</time>
      </trkpt>
      <trkpt lat="44.99077" lon="6.09184">
        <ele>889.8</ele>
        <time>2024-08-14T13:49:15Z</time>
      </trkpt>
      <trkpt lat="44.99077" lon="6.0918">
        <ele>889.8</ele>
        <time>2024-08-14T13:49:16Z</time>
      </trkpt>
      <trkpt lat="44.99077" lon="6.0918">
        <ele>889.8</ele>
        <time>2024-08-14T13:49:17Z</time>
      </trkpt>
      <trkpt lat="44.99075" lon="6.09176">
        <ele>889.8</ele>
        <time>2024-08-14T13:49:18Z</time>
      </trkpt>
      <trkpt lat="44.99075" lon="6.09176">
        <ele>889.8</ele>
        <time>2024-08-14T13:49:19Z</time>
      </trkpt>
      <trkpt lat="44.99074" lon="6.09173">
        <ele>890</ele>
        <time>2024-08-14T13:49:20Z</time>
      </trkpt>
      <trkpt lat="44.99074" lon="6.09173">
        <ele>890</ele>
        <time>2024-08-14T13:49:21Z</time>
      </trkpt>
      <trkpt lat="44.99074" lon="6.09168">
        <ele>889.6</ele>
        <time>2024-08-14T13:49:22Z</time>
      </trkpt>
      <trkpt lat="44.99074" lon="6.09168">
        <ele>889.6</ele>
        <time>2024-08-14T13:49:23Z</time>
      </trkpt>
      <trkpt lat="44.99073" lon="6.09164">
        <ele>889.8</ele>
        <time>2024-08-14T13:49:24Z</time>
      </trkpt>
      <trkpt lat="44.99073" lon="6.09164">
        <ele>889.8</ele>
        <time>2024-08-14T13:49:25Z</time>
      </trkpt>
      <trkpt lat="44.99073" lon="6.09161">
        <ele>889.8</ele>
        <time>2024-08-14T13:49:26Z</time>
      </trkpt>
      <trkpt lat="44.99073" lon="6.09161">
        <ele>889.6</ele>
        <time>2024-08-14T13:49:27Z</time>
      </trkpt>
      <trkpt lat="44.99072" lon="6.09156">
        <ele>889.8</ele>
        <time>2024-08-14T13:49:28Z</time>
      </trkpt>
      <trkpt lat="44.99072" lon="6.09156">
        <ele>889.8</ele>
        <time>2024-08-14T13:49:29Z</time>
      </trkpt>
      <trkpt lat="44.99071" lon="6.09153">
        <ele>889.8</ele>
        <time>2024-08-14T13:49:30Z</time>
      </trkpt>
      <trkpt lat="44.99071" lon="6.09153">
        <ele>889.6</ele>
        <time>2024-08-14T13:49:31Z</time>
      </trkpt>
      <trkpt lat="44.9907" lon="6.09148">
        <ele>889.6</ele>
        <time>2024-08-14T13:49:32Z</time>
      </trkpt>
      <trkpt lat="44.9907" lon="6.09148">
        <ele>889.6</ele>
        <time>2024-08-14T13:49:33Z</time>
      </trkpt>
      <trkpt lat="44.99069" lon="6.09144">
        <ele>889.6</ele>
        <time>2024-08-14T13:49:34Z</time>
      </trkpt>
      <trkpt lat="44.99069" lon="6.09144">
        <ele>889.6</ele>
        <time>2024-08-14T13:49:35Z</time>
      </trkpt>
      <trkpt lat="44.99069" lon="6.09141">
        <ele>889.8</ele>
        <time>2024-08-14T13:49:36Z</time>
      </trkpt>
      <trkpt lat="44.99069" lon="6.09141">
        <ele>889.6</ele>
        <time>2024-08-14T13:49:37Z</time>
      </trkpt>
      <trkpt lat="44.99068" lon="6.09137">
        <ele>889.2</ele>
        <time>2024-08-14T13:49:38Z</time>
      </trkpt>
      <trkpt lat="44.99068" lon="6.09137">
        <ele>889.2</ele>
        <time>2024-08-14T13:49:39Z</time>
      </trkpt>
      <trkpt lat="44.99067" lon="6.09133">
        <ele>889</ele>
        <time>2024-08-14T13:49:40Z</time>
      </trkpt>
      <trkpt lat="44.99067" lon="6.09133">
        <ele>889</ele>
        <time>2024-08-14T13:49:41Z</time>
      </trkpt>
      <trkpt lat="44.99066" lon="6.09129">
        <ele>888.8</ele>
        <time>2024-08-14T13:49:42Z</time>
      </trkpt>
      <trkpt lat="44.99066" lon="6.09129">
        <ele>888.8</ele>
        <time>2024-08-14T13:49:43Z</time>
      </trkpt>
      <trkpt lat="44.99066" lon="6.09125">
        <ele>888.8</ele>
        <time>2024-08-14T13:49:44Z</time>
      </trkpt>
      <trkpt lat="44.99066" lon="6.09125">
        <ele>888.8</ele>
        <time>2024-08-14T13:49:45Z</time>
      </trkpt>
      <trkpt lat="44.99065" lon="6.09121">
        <ele>888.8</ele>
        <time>2024-08-14T13:49:46Z</time>
      </trkpt>
      <trkpt lat="44.99065" lon="6.09121">
        <ele>888.6</ele>
        <time>2024-08-14T13:49:47Z</time>
      </trkpt>
      <trkpt lat="44.99065" lon="6.09117">
        <ele>888.6</ele>
        <time>2024-08-14T13:49:48Z</time>
      </trkpt>
      <trkpt lat="44.99065" lon="6.09117">
        <ele>888.6</ele>
        <time>2024-08-14T13:49:49Z</time>
      </trkpt>
      <trkpt lat="44.99064" lon="6.09113">
        <ele>888.6</ele>
        <time>2024-08-14T13:49:50Z</time>
      </trkpt>
      <trkpt lat="44.99063" lon="6.0911">
        <ele>888.6</ele>
        <time>2024-08-14T13:49:51Z</time>
      </trkpt>
      <trkpt lat="44.99063" lon="6.0911">
        <ele>888.4</ele>
        <time>2024-08-14T13:49:52Z</time>
      </trkpt>
      <trkpt lat="44.99063" lon="6.09107">
        <ele>888.4</ele>
        <time>2024-08-14T13:49:53Z</time>
      </trkpt>
      <trkpt lat="44.99063" lon="6.09107">
        <ele>888.2</ele>
        <time>2024-08-14T13:49:54Z</time>
      </trkpt>
      <trkpt lat="44.99062" lon="6.09103">
        <ele>888</ele>
        <time>2024-08-14T13:49:55Z</time>
      </trkpt>
      <trkpt lat="44.99062" lon="6.09103">
        <ele>887.8</ele>
        <time>2024-08-14T13:49:56Z</time>
      </trkpt>
      <trkpt lat="44.99062" lon="6.09099">
        <ele>887.8</ele>
        <time>2024-08-14T13:49:57Z</time>
      </trkpt>
      <trkpt lat="44.99062" lon="6.09099">
        <ele>888</ele>
        <time>2024-08-14T13:49:58Z</time>
      </trkpt>
      <trkpt lat="44.99061" lon="6.09094">
        <ele>888</ele>
        <time>2024-08-14T13:49:59Z</time>
      </trkpt>
      <trkpt lat="44.99061" lon="6.09094">
        <ele>888</ele>
        <time>2024-08-14T13:50:00Z</time>
      </trkpt>
      <trkpt lat="44.99061" lon="6.0909">
        <ele>888.2</ele>
        <time>2024-08-14T13:50:01Z</time>
      </trkpt>
      <trkpt lat="44.99061" lon="6.0909">
        <ele>888</ele>
        <time>2024-08-14T13:50:02Z</time>
      </trkpt>
      <trkpt lat="44.99061" lon="6.09086">
        <ele>888</ele>
        <time>2024-08-14T13:50:03Z</time>
      </trkpt>
      <trkpt lat="44.99061" lon="6.09086">
        <ele>888.2</ele>
        <time>2024-08-14T13:50:04Z</time>
      </trkpt>
      <trkpt lat="44.99061" lon="6.09082">
        <ele>888</ele>
        <time>2024-08-14T13:50:05Z</time>
      </trkpt>
      <trkpt lat="44.99061" lon="6.09082">
        <ele>888</ele>
        <time>2024-08-14T13:50:06Z</time>
      </trkpt>
      <trkpt lat="44.9906" lon="6.09078">
        <ele>888</ele>
        <time>2024-08-14T13:50:07Z</time>
      </trkpt>
      <trkpt lat="44.9906" lon="6.09078">
        <ele>888</ele>
        <time>2024-08-14T13:50:08Z</time>
      </trkpt>
      <trkpt lat="44.9906" lon="6.09074">
        <ele>888</ele>
        <time>2024-08-14T13:50:09Z</time>
      </trkpt>
      <trkpt lat="44.9906" lon="6.09074">
        <ele>888</ele>
        <time>2024-08-14T13:50:10Z</time>
      </trkpt>
      <trkpt lat="44.9906" lon="6.09071">
        <ele>888</ele>
        <time>2024-08-14T13:50:11Z</time>
      </trkpt>
      <trkpt lat="44.9906" lon="6.09071">
        <ele>888</ele>
        <time>2024-08-14T13:50:12Z</time>
      </trkpt>
      <trkpt lat="44.9906" lon="6.09071">
        <ele>888.2</ele>
        <time>2024-08-14T13:50:13Z</time>
      </trkpt>
      <trkpt lat="44.9906" lon="6.09071">
        <ele>888.2</ele>
        <time>2024-08-14T13:50:14Z</time>
      </trkpt>
      <trkpt lat="44.9906" lon="6.09068">
        <ele>888.2</ele>
        <time>2024-08-14T13:50:15Z</time>
      </trkpt>
      <trkpt lat="44.9906" lon="6.09068">
        <ele>888.4</ele>
        <time>2024-08-14T13:50:16Z</time>
      </trkpt>
      <trkpt lat="44.99059" lon="6.09065">
        <ele>888.4</ele>
        <time>2024-08-14T13:50:17Z</time>
      </trkpt>
      <trkpt lat="44.99059" lon="6.09065">
        <ele>888.4</ele>
        <time>2024-08-14T13:50:18Z</time>
      </trkpt>
      <trkpt lat="44.99058" lon="6.09062">
        <ele>888.2</ele>
        <time>2024-08-14T13:50:19Z</time>
      </trkpt>
      <trkpt lat="44.99058" lon="6.09062">
        <ele>888.4</ele>
        <time>2024-08-14T13:50:20Z</time>
      </trkpt>
      <trkpt lat="44.99058" lon="6.09062">
        <ele>888.4</ele>
        <time>2024-08-14T13:50:21Z</time>
      </trkpt>
      <trkpt lat="44.99058" lon="6.09062">
        <ele>888.4</ele>
        <time>2024-08-14T13:50:22Z</time>
      </trkpt>
      <trkpt lat="44.99058" lon="6.09062">
        <ele>888</ele>
        <time>2024-08-14T13:50:23Z</time>
      </trkpt>
      <trkpt lat="44.99058" lon="6.09062">
        <ele>888</ele>
        <time>2024-08-14T13:50:24Z</time>
      </trkpt>
      <trkpt lat="44.99059" lon="6.09059">
        <ele>888</ele>
        <time>2024-08-14T13:50:25Z</time>
      </trkpt>
      <trkpt lat="44.99059" lon="6.09059">
        <ele>888</ele>
        <time>2024-08-14T13:50:26Z</time>
      </trkpt>
      <trkpt lat="44.9906" lon="6.09055">
        <ele>888</ele>
        <time>2024-08-14T13:50:27Z</time>
      </trkpt>
      <trkpt lat="44.9906" lon="6.09055">
        <ele>888</ele>
        <time>2024-08-14T13:50:28Z</time>
      </trkpt>
      <trkpt lat="44.99061" lon="6.09052">
        <ele>888.2</ele>
        <time>2024-08-14T13:50:29Z</time>
      </trkpt>
      <trkpt lat="44.99061" lon="6.09052">
        <ele>888.2</ele>
        <time>2024-08-14T13:50:30Z</time>
      </trkpt>
      <trkpt lat="44.99061" lon="6.09048">
        <ele>888.2</ele>
        <time>2024-08-14T13:50:31Z</time>
      </trkpt>
      <trkpt lat="44.99061" lon="6.09048">
        <ele>888</ele>
        <time>2024-08-14T13:50:32Z</time>
      </trkpt>
      <trkpt lat="44.99061" lon="6.09044">
        <ele>888</ele>
        <time>2024-08-14T13:50:33Z</time>
      </trkpt>
      <trkpt lat="44.99061" lon="6.09044">
        <ele>888</ele>
        <time>2024-08-14T13:50:34Z</time>
      </trkpt>
      <trkpt lat="44.9906" lon="6.09039">
        <ele>888.2</ele>
        <time>2024-08-14T13:50:35Z</time>
      </trkpt>
      <trkpt lat="44.9906" lon="6.09039">
        <ele>888.2</ele>
        <time>2024-08-14T13:50:36Z</time>
      </trkpt>
      <trkpt lat="44.99061" lon="6.09035">
        <ele>888.2</ele>
        <time>2024-08-14T13:50:37Z</time>
      </trkpt>
      <trkpt lat="44.99061" lon="6.09035">
        <ele>888.2</ele>
        <time>2024-08-14T13:50:38Z</time>
      </trkpt>
      <trkpt lat="44.99061" lon="6.09031">
        <ele>888.2</ele>
        <time>2024-08-14T13:50:39Z</time>
      </trkpt>
      <trkpt lat="44.99061" lon="6.09031">
        <ele>888</ele>
        <time>2024-08-14T13:50:40Z</time>
      </trkpt>
      <trkpt lat="44.99061" lon="6.09027">
        <ele>888</ele>
        <time>2024-08-14T13:50:41Z</time>
      </trkpt>
      <trkpt lat="44.99061" lon="6.09027">
        <ele>888.2</ele>
        <time>2024-08-14T13:50:42Z</time>
      </trkpt>
      <trkpt lat="44.99061" lon="6.09024">
        <ele>888.2</ele>
        <time>2024-08-14T13:50:43Z</time>
      </trkpt>
      <trkpt lat="44.99061" lon="6.09024">
        <ele>888.4</ele>
        <time>2024-08-14T13:50:44Z</time>
      </trkpt>
      <trkpt lat="44.99061" lon="6.0902">
        <ele>888.6</ele>
        <time>2024-08-14T13:50:45Z</time>
      </trkpt>
      <trkpt lat="44.99061" lon="6.0902">
        <ele>888.6</ele>
        <time>2024-08-14T13:50:46Z</time>
      </trkpt>
      <trkpt lat="44.99061" lon="6.09016">
        <ele>888.6</ele>
        <time>2024-08-14T13:50:47Z</time>
      </trkpt>
      <trkpt lat="44.99061" lon="6.09016">
        <ele>888.6</ele>
        <time>2024-08-14T13:50:48Z</time>
      </trkpt>
      <trkpt lat="44.99061" lon="6.09012">
        <ele>888.8</ele>
        <time>2024-08-14T13:50:49Z</time>
      </trkpt>
      <trkpt lat="44.99061" lon="6.09012">
        <ele>888.8</ele>
        <time>2024-08-14T13:50:50Z</time>
      </trkpt>
      <trkpt lat="44.99062" lon="6.09009">
        <ele>888.6</ele>
        <time>2024-08-14T13:50:51Z</time>
      </trkpt>
      <trkpt lat="44.99062" lon="6.09009">
        <ele>888.4</ele>
        <time>2024-08-14T13:50:52Z</time>
      </trkpt>
      <trkpt lat="44.99062" lon="6.09004">
        <ele>888.4</ele>
        <time>2024-08-14T13:50:53Z</time>
      </trkpt>
      <trkpt lat="44.99062" lon="6.09004">
        <ele>888.2</ele>
        <time>2024-08-14T13:50:54Z</time>
      </trkpt>
      <trkpt lat="44.99063" lon="6.09">
        <ele>888.2</ele>
        <time>2024-08-14T13:50:55Z</time>
      </trkpt>
      <trkpt lat="44.99063" lon="6.09">
        <ele>888</ele>
        <time>2024-08-14T13:50:56Z</time>
      </trkpt>
      <trkpt lat="44.99063" lon="6.08996">
        <ele>887.8</ele>
        <time>2024-08-14T13:50:57Z</time>
      </trkpt>
      <trkpt lat="44.99063" lon="6.08996">
        <ele>887.8</ele>
        <time>2024-08-14T13:50:58Z</time>
      </trkpt>
      <trkpt lat="44.99065" lon="6.08993">
        <ele>887.8</ele>
        <time>2024-08-14T13:50:59Z</time>
      </trkpt>
      <trkpt lat="44.99065" lon="6.08993">
        <ele>887.6</ele>
        <time>2024-08-14T13:51:00Z</time>
      </trkpt>
      <trkpt lat="44.99066" lon="6.08989">
        <ele>887.4</ele>
        <time>2024-08-14T13:51:01Z</time>
      </trkpt>
      <trkpt lat="44.99066" lon="6.08989">
        <ele>887</ele>
        <time>2024-08-14T13:51:02Z</time>
      </trkpt>
      <trkpt lat="44.99068" lon="6.08986">
        <ele>887</ele>
        <time>2024-08-14T13:51:03Z</time>
      </trkpt>
      <trkpt lat="44.99068" lon="6.08986">
        <ele>886.8</ele>
        <time>2024-08-14T13:51:04Z</time>
      </trkpt>
      <trkpt lat="44.99068" lon="6.08982">
        <ele>886.6</ele>
        <time>2024-08-14T13:51:05Z</time>
      </trkpt>
      <trkpt lat="44.99068" lon="6.08982">
        <ele>886.6</ele>
        <time>2024-08-14T13:51:06Z</time>
      </trkpt>
      <trkpt lat="44.99069" lon="6.08978">
        <ele>886.6</ele>
        <time>2024-08-14T13:51:07Z</time>
      </trkpt>
      <trkpt lat="44.99069" lon="6.08978">
        <ele>886.4</ele>
        <time>2024-08-14T13:51:08Z</time>
      </trkpt>
      <trkpt lat="44.99069" lon="6.08975">
        <ele>886.4</ele>
        <time>2024-08-14T13:51:09Z</time>
      </trkpt>
      <trkpt lat="44.99069" lon="6.08975">
        <ele>886.4</ele>
        <time>2024-08-14T13:51:10Z</time>
      </trkpt>
      <trkpt lat="44.99071" lon="6.08972">
        <ele>886.4</ele>
        <time>2024-08-14T13:51:11Z</time>
      </trkpt>
      <trkpt lat="44.99071" lon="6.08972">
        <ele>886.2</ele>
        <time>2024-08-14T13:51:12Z</time>
      </trkpt>
      <trkpt lat="44.99073" lon="6.08968">
        <ele>885.8</ele>
        <time>2024-08-14T13:51:13Z</time>
      </trkpt>
      <trkpt lat="44.99073" lon="6.08968">
        <ele>885.6</ele>
        <time>2024-08-14T13:51:14Z</time>
      </trkpt>
      <trkpt lat="44.99075" lon="6.08965">
        <ele>885.6</ele>
        <time>2024-08-14T13:51:15Z</time>
      </trkpt>
      <trkpt lat="44.99077" lon="6.08964">
        <ele>885.4</ele>
        <time>2024-08-14T13:51:16Z</time>
      </trkpt>
      <trkpt lat="44.99077" lon="6.08964">
        <ele>885.2</ele>
        <time>2024-08-14T13:51:17Z</time>
      </trkpt>
      <trkpt lat="44.99078" lon="6.08962">
        <ele>885.2</ele>
        <time>2024-08-14T13:51:18Z</time>
      </trkpt>
      <trkpt lat="44.99078" lon="6.08962">
        <ele>885</ele>
        <time>2024-08-14T13:51:19Z</time>
      </trkpt>
      <trkpt lat="44.99079" lon="6.08958">
        <ele>884.8</ele>
        <time>2024-08-14T13:51:20Z</time>
      </trkpt>
      <trkpt lat="44.99079" lon="6.08958">
        <ele>884.8</ele>
        <time>2024-08-14T13:51:21Z</time>
      </trkpt>
      <trkpt lat="44.99081" lon="6.08955">
        <ele>884.6</ele>
        <time>2024-08-14T13:51:22Z</time>
      </trkpt>
      <trkpt lat="44.99081" lon="6.08955">
        <ele>884.8</ele>
        <time>2024-08-14T13:51:23Z</time>
      </trkpt>
      <trkpt lat="44.99083" lon="6.08953">
        <ele>884.8</ele>
        <time>2024-08-14T13:51:24Z</time>
      </trkpt>
      <trkpt lat="44.99083" lon="6.08953">
        <ele>884.8</ele>
        <time>2024-08-14T13:51:25Z</time>
      </trkpt>
      <trkpt lat="44.99085" lon="6.0895">
        <ele>884.6</ele>
        <time>2024-08-14T13:51:26Z</time>
      </trkpt>
      <trkpt lat="44.99085" lon="6.0895">
        <ele>884.6</ele>
        <time>2024-08-14T13:51:27Z</time>
      </trkpt>
      <trkpt lat="44.99086" lon="6.08947">
        <ele>884.8</ele>
        <time>2024-08-14T13:51:28Z</time>
      </trkpt>
      <trkpt lat="44.99086" lon="6.08947">
        <ele>885</ele>
        <time>2024-08-14T13:51:29Z</time>
      </trkpt>
      <trkpt lat="44.99088" lon="6.08944">
        <ele>885</ele>
        <time>2024-08-14T13:51:30Z</time>
      </trkpt>
      <trkpt lat="44.99088" lon="6.08944">
        <ele>885</ele>
        <time>2024-08-14T13:51:31Z</time>
      </trkpt>
      <trkpt lat="44.99089" lon="6.08941">
        <ele>885.2</ele>
        <time>2024-08-14T13:51:32Z</time>
      </trkpt>
      <trkpt lat="44.99089" lon="6.08941">
        <ele>885.2</ele>
        <time>2024-08-14T13:51:33Z</time>
      </trkpt>
      <trkpt lat="44.99091" lon="6.08938">
        <ele>885.2</ele>
        <time>2024-08-14T13:51:34Z</time>
      </trkpt>
      <trkpt lat="44.99092" lon="6.08936">
        <ele>885.4</ele>
        <time>2024-08-14T13:51:35Z</time>
      </trkpt>
      <trkpt lat="44.99093" lon="6.08934">
        <ele>885.4</ele>
        <time>2024-08-14T13:51:36Z</time>
      </trkpt>
      <trkpt lat="44.99094" lon="6.08932">
        <ele>885.6</ele>
        <time>2024-08-14T13:51:37Z</time>
      </trkpt>
      <trkpt lat="44.99094" lon="6.08932">
        <ele>885.6</ele>
        <time>2024-08-14T13:51:38Z</time>
      </trkpt>
      <trkpt lat="44.99096" lon="6.08928">
        <ele>885.8</ele>
        <time>2024-08-14T13:51:39Z</time>
      </trkpt>
      <trkpt lat="44.99096" lon="6.08928">
        <ele>885.8</ele>
        <time>2024-08-14T13:51:40Z</time>
      </trkpt>
      <trkpt lat="44.99098" lon="6.08924">
        <ele>885.8</ele>
        <time>2024-08-14T13:51:41Z</time>
      </trkpt>
      <trkpt lat="44.99098" lon="6.08924">
        <ele>885.8</ele>
        <time>2024-08-14T13:51:42Z</time>
      </trkpt>
      <trkpt lat="44.99099" lon="6.0892">
        <ele>885.8</ele>
        <time>2024-08-14T13:51:43Z</time>
      </trkpt>
      <trkpt lat="44.99099" lon="6.0892">
        <ele>885.6</ele>
        <time>2024-08-14T13:51:44Z</time>
      </trkpt>
      <trkpt lat="44.99102" lon="6.08917">
        <ele>885.2</ele>
        <time>2024-08-14T13:51:45Z</time>
      </trkpt>
      <trkpt lat="44.99102" lon="6.08917">
        <ele>885</ele>
        <time>2024-08-14T13:51:46Z</time>
      </trkpt>
      <trkpt lat="44.99103" lon="6.08913">
        <ele>885</ele>
        <time>2024-08-14T13:51:47Z</time>
      </trkpt>
      <trkpt lat="44.99103" lon="6.08913">
        <ele>885</ele>
        <time>2024-08-14T13:51:48Z</time>
      </trkpt>
      <trkpt lat="44.99106" lon="6.0891">
        <ele>885</ele>
        <time>2024-08-14T13:51:49Z</time>
      </trkpt>
      <trkpt lat="44.99106" lon="6.0891">
        <ele>885</ele>
        <time>2024-08-14T13:51:50Z</time>
      </trkpt>
      <trkpt lat="44.99108" lon="6.08907">
        <ele>885</ele>
        <time>2024-08-14T13:51:51Z</time>
      </trkpt>
      <trkpt lat="44.99108" lon="6.08907">
        <ele>885</ele>
        <time>2024-08-14T13:51:52Z</time>
      </trkpt>
      <trkpt lat="44.99109" lon="6.08904">
        <ele>885</ele>
        <time>2024-08-14T13:51:53Z</time>
      </trkpt>
      <trkpt lat="44.99109" lon="6.08904">
        <ele>884.8</ele>
        <time>2024-08-14T13:51:54Z</time>
      </trkpt>
      <trkpt lat="44.99111" lon="6.08902">
        <ele>884.6</ele>
        <time>2024-08-14T13:51:55Z</time>
      </trkpt>
      <trkpt lat="44.99111" lon="6.08902">
        <ele>884.6</ele>
        <time>2024-08-14T13:51:56Z</time>
      </trkpt>
      <trkpt lat="44.99112" lon="6.08899">
        <ele>884.6</ele>
        <time>2024-08-14T13:51:57Z</time>
      </trkpt>
      <trkpt lat="44.99112" lon="6.08899">
        <ele>885.2</ele>
        <time>2024-08-14T13:51:58Z</time>
      </trkpt>
      <trkpt lat="44.99113" lon="6.08895">
        <ele>885.2</ele>
        <time>2024-08-14T13:51:59Z</time>
      </trkpt>
      <trkpt lat="44.99114" lon="6.08893">
        <ele>885.2</ele>
        <time>2024-08-14T13:52:00Z</time>
      </trkpt>
      <trkpt lat="44.99114" lon="6.08893">
        <ele>885.2</ele>
        <time>2024-08-14T13:52:01Z</time>
      </trkpt>
      <trkpt lat="44.99115" lon="6.0889">
        <ele>885.2</ele>
        <time>2024-08-14T13:52:02Z</time>
      </trkpt>
      <trkpt lat="44.99115" lon="6.0889">
        <ele>885.2</ele>
        <time>2024-08-14T13:52:03Z</time>
      </trkpt>
      <trkpt lat="44.99116" lon="6.08886">
        <ele>885.2</ele>
        <time>2024-08-14T13:52:04Z</time>
      </trkpt>
      <trkpt lat="44.99116" lon="6.08886">
        <ele>885</ele>
        <time>2024-08-14T13:52:05Z</time>
      </trkpt>
      <trkpt lat="44.99118" lon="6.08882">
        <ele>884.8</ele>
        <time>2024-08-14T13:52:06Z</time>
      </trkpt>
      <trkpt lat="44.99118" lon="6.08882">
        <ele>884.6</ele>
        <time>2024-08-14T13:52:07Z</time>
      </trkpt>
      <trkpt lat="44.99119" lon="6.08879">
        <ele>884.6</ele>
        <time>2024-08-14T13:52:08Z</time>
      </trkpt>
      <trkpt lat="44.99119" lon="6.08879">
        <ele>884.4</ele>
        <time>2024-08-14T13:52:09Z</time>
      </trkpt>
      <trkpt lat="44.99121" lon="6.08875">
        <ele>884.4</ele>
        <time>2024-08-14T13:52:10Z</time>
      </trkpt>
      <trkpt lat="44.99121" lon="6.08875">
        <ele>884.6</ele>
        <time>2024-08-14T13:52:11Z</time>
      </trkpt>
      <trkpt lat="44.99123" lon="6.08872">
        <ele>884.6</ele>
        <time>2024-08-14T13:52:12Z</time>
      </trkpt>
      <trkpt lat="44.99123" lon="6.08872">
        <ele>884.4</ele>
        <time>2024-08-14T13:52:13Z</time>
      </trkpt>
      <trkpt lat="44.99123" lon="6.08872">
        <ele>884.4</ele>
        <time>2024-08-14T13:52:14Z</time>
      </trkpt>
      <trkpt lat="44.99123" lon="6.08872">
        <ele>884.4</ele>
        <time>2024-08-14T13:52:15Z</time>
      </trkpt>
      <trkpt lat="44.99123" lon="6.08872">
        <ele>884.4</ele>
        <time>2024-08-14T13:52:16Z</time>
      </trkpt>
      <trkpt lat="44.99123" lon="6.08872">
        <ele>884.6</ele>
        <time>2024-08-14T13:52:17Z</time>
      </trkpt>
      <trkpt lat="44.99123" lon="6.08872">
        <ele>884.4</ele>
        <time>2024-08-14T13:52:18Z</time>
      </trkpt>
      <trkpt lat="44.99125" lon="6.08871">
        <ele>884.4</ele>
        <time>2024-08-14T13:52:19Z</time>
      </trkpt>
      <trkpt lat="44.99125" lon="6.08871">
        <ele>884.4</ele>
        <time>2024-08-14T13:52:20Z</time>
      </trkpt>
      <trkpt lat="44.99127" lon="6.08869">
        <ele>884.4</ele>
        <time>2024-08-14T13:52:21Z</time>
      </trkpt>
      <trkpt lat="44.99127" lon="6.08869">
        <ele>884.2</ele>
        <time>2024-08-14T13:52:22Z</time>
      </trkpt>
      <trkpt lat="44.99128" lon="6.08866">
        <ele>884</ele>
        <time>2024-08-14T13:52:23Z</time>
      </trkpt>
      <trkpt lat="44.99128" lon="6.08866">
        <ele>884</ele>
        <time>2024-08-14T13:52:24Z</time>
      </trkpt>
      <trkpt lat="44.9913" lon="6.08863">
        <ele>883.8</ele>
        <time>2024-08-14T13:52:25Z</time>
      </trkpt>
      <trkpt lat="44.99132" lon="6.08861">
        <ele>883.8</ele>
        <time>2024-08-14T13:52:26Z</time>
      </trkpt>
      <trkpt lat="44.99132" lon="6.08861">
        <ele>883.8</ele>
        <time>2024-08-14T13:52:27Z</time>
      </trkpt>
      <trkpt lat="44.99133" lon="6.08857">
        <ele>883.6</ele>
        <time>2024-08-14T13:52:28Z</time>
      </trkpt>
      <trkpt lat="44.99133" lon="6.08857">
        <ele>883.6</ele>
        <time>2024-08-14T13:52:29Z</time>
      </trkpt>
      <trkpt lat="44.99135" lon="6.08854">
        <ele>883.4</ele>
        <time>2024-08-14T13:52:30Z</time>
      </trkpt>
      <trkpt lat="44.99135" lon="6.08854">
        <ele>883</ele>
        <time>2024-08-14T13:52:31Z</time>
      </trkpt>
      <trkpt lat="44.99136" lon="6.08851">
        <ele>883</ele>
        <time>2024-08-14T13:52:32Z</time>
      </trkpt>
      <trkpt lat="44.99136" lon="6.08851">
        <ele>883</ele>
        <time>2024-08-14T13:52:33Z</time>
      </trkpt>
      <trkpt lat="44.99138" lon="6.08848">
        <ele>883</ele>
        <time>2024-08-14T13:52:34Z</time>
      </trkpt>
      <trkpt lat="44.99138" lon="6.08848">
        <ele>883</ele>
        <time>2024-08-14T13:52:35Z</time>
      </trkpt>
      <trkpt lat="44.99139" lon="6.08844">
        <ele>882.6</ele>
        <time>2024-08-14T13:52:36Z</time>
      </trkpt>
      <trkpt lat="44.9914" lon="6.08842">
        <ele>882.6</ele>
        <time>2024-08-14T13:52:37Z</time>
      </trkpt>
      <trkpt lat="44.9914" lon="6.08842">
        <ele>882.4</ele>
        <time>2024-08-14T13:52:38Z</time>
      </trkpt>
      <trkpt lat="44.99142" lon="6.08838">
        <ele>882.4</ele>
        <time>2024-08-14T13:52:39Z</time>
      </trkpt>
      <trkpt lat="44.99142" lon="6.08838">
        <ele>882.4</ele>
        <time>2024-08-14T13:52:40Z</time>
      </trkpt>
      <trkpt lat="44.99144" lon="6.08835">
        <ele>882.4</ele>
        <time>2024-08-14T13:52:41Z</time>
      </trkpt>
      <trkpt lat="44.99144" lon="6.08835">
        <ele>882.2</ele>
        <time>2024-08-14T13:52:42Z</time>
      </trkpt>
      <trkpt lat="44.99146" lon="6.08832">
        <ele>882.2</ele>
        <time>2024-08-14T13:52:43Z</time>
      </trkpt>
      <trkpt lat="44.99146" lon="6.08832">
        <ele>882.2</ele>
        <time>2024-08-14T13:52:44Z</time>
      </trkpt>
      <trkpt lat="44.99147" lon="6.08828">
        <ele>882.2</ele>
        <time>2024-08-14T13:52:45Z</time>
      </trkpt>
      <trkpt lat="44.99147" lon="6.08828">
        <ele>882.4</ele>
        <time>2024-08-14T13:52:46Z</time>
      </trkpt>
      <trkpt lat="44.99148" lon="6.08824">
        <ele>882.4</ele>
        <time>2024-08-14T13:52:47Z</time>
      </trkpt>
      <trkpt lat="44.99148" lon="6.08824">
        <ele>882.2</ele>
        <time>2024-08-14T13:52:48Z</time>
      </trkpt>
      <trkpt lat="44.9915" lon="6.0882">
        <ele>882.2</ele>
        <time>2024-08-14T13:52:49Z</time>
      </trkpt>
      <trkpt lat="44.9915" lon="6.0882">
        <ele>882</ele>
        <time>2024-08-14T13:52:50Z</time>
      </trkpt>
      <trkpt lat="44.99151" lon="6.08816">
        <ele>881.6</ele>
        <time>2024-08-14T13:52:51Z</time>
      </trkpt>
      <trkpt lat="44.99152" lon="6.08814">
        <ele>881.6</ele>
        <time>2024-08-14T13:52:52Z</time>
      </trkpt>
      <trkpt lat="44.99152" lon="6.08814">
        <ele>881.6</ele>
        <time>2024-08-14T13:52:53Z</time>
      </trkpt>
      <trkpt lat="44.99153" lon="6.08811">
        <ele>881.6</ele>
        <time>2024-08-14T13:52:54Z</time>
      </trkpt>
      <trkpt lat="44.99153" lon="6.08811">
        <ele>881.4</ele>
        <time>2024-08-14T13:52:55Z</time>
      </trkpt>
      <trkpt lat="44.99155" lon="6.08807">
        <ele>881.4</ele>
        <time>2024-08-14T13:52:56Z</time>
      </trkpt>
      <trkpt lat="44.99155" lon="6.08807">
        <ele>881</ele>
        <time>2024-08-14T13:52:57Z</time>
      </trkpt>
      <trkpt lat="44.99156" lon="6.08803">
        <ele>881</ele>
        <time>2024-08-14T13:52:58Z</time>
      </trkpt>
      <trkpt lat="44.99156" lon="6.08803">
        <ele>881</ele>
        <time>2024-08-14T13:52:59Z</time>
      </trkpt>
      <trkpt lat="44.99158" lon="6.08801">
        <ele>880.8</ele>
        <time>2024-08-14T13:53:00Z</time>
      </trkpt>
      <trkpt lat="44.99158" lon="6.08801">
        <ele>880.8</ele>
        <time>2024-08-14T13:53:01Z</time>
      </trkpt>
      <trkpt lat="44.9916" lon="6.08797">
        <ele>880.8</ele>
        <time>2024-08-14T13:53:02Z</time>
      </trkpt>
      <trkpt lat="44.99161" lon="6.08795">
        <ele>880.8</ele>
        <time>2024-08-14T13:53:03Z</time>
      </trkpt>
      <trkpt lat="44.99161" lon="6.08795">
        <ele>880.6</ele>
        <time>2024-08-14T13:53:04Z</time>
      </trkpt>
      <trkpt lat="44.99163" lon="6.08792">
        <ele>880.6</ele>
        <time>2024-08-14T13:53:05Z</time>
      </trkpt>
      <trkpt lat="44.99163" lon="6.08792">
        <ele>880.6</ele>
        <time>2024-08-14T13:53:06Z</time>
      </trkpt>
      <trkpt lat="44.99165" lon="6.08789">
        <ele>880.6</ele>
        <time>2024-08-14T13:53:07Z</time>
      </trkpt>
      <trkpt lat="44.99165" lon="6.08789">
        <ele>880.6</ele>
        <time>2024-08-14T13:53:08Z</time>
      </trkpt>
      <trkpt lat="44.99167" lon="6.08786">
        <ele>880.4</ele>
        <time>2024-08-14T13:53:09Z</time>
      </trkpt>
      <trkpt lat="44.99167" lon="6.08786">
        <ele>880.4</ele>
        <time>2024-08-14T13:53:10Z</time>
      </trkpt>
      <trkpt lat="44.9917" lon="6.08783">
        <ele>880.4</ele>
        <time>2024-08-14T13:53:11Z</time>
      </trkpt>
      <trkpt lat="44.9917" lon="6.08783">
        <ele>880.4</ele>
        <time>2024-08-14T13:53:12Z</time>
      </trkpt>
      <trkpt lat="44.99172" lon="6.08779">
        <ele>880.2</ele>
        <time>2024-08-14T13:53:13Z</time>
      </trkpt>
      <trkpt lat="44.99172" lon="6.08779">
        <ele>880</ele>
        <time>2024-08-14T13:53:14Z</time>
      </trkpt>
      <trkpt lat="44.99174" lon="6.08776">
        <ele>879.8</ele>
        <time>2024-08-14T13:53:15Z</time>
      </trkpt>
      <trkpt lat="44.99174" lon="6.08776">
        <ele>879.8</ele>
        <time>2024-08-14T13:53:16Z</time>
      </trkpt>
      <trkpt lat="44.99175" lon="6.08772">
        <ele>880</ele>
        <time>2024-08-14T13:53:17Z</time>
      </trkpt>
      <trkpt lat="44.99175" lon="6.08772">
        <ele>880</ele>
        <time>2024-08-14T13:53:18Z</time>
      </trkpt>
      <trkpt lat="44.99178" lon="6.08769">
        <ele>880</ele>
        <time>2024-08-14T13:53:19Z</time>
      </trkpt>
      <trkpt lat="44.99178" lon="6.08769">
        <ele>880</ele>
        <time>2024-08-14T13:53:20Z</time>
      </trkpt>
      <trkpt lat="44.9918" lon="6.08765">
        <ele>880</ele>
        <time>2024-08-14T13:53:21Z</time>
      </trkpt>
      <trkpt lat="44.99181" lon="6.08763">
        <ele>880</ele>
        <time>2024-08-14T13:53:22Z</time>
      </trkpt>
      <trkpt lat="44.99181" lon="6.08759">
        <ele>879.6</ele>
        <time>2024-08-14T13:53:23Z</time>
      </trkpt>
      <trkpt lat="44.99181" lon="6.08759">
        <ele>879.6</ele>
        <time>2024-08-14T13:53:24Z</time>
      </trkpt>
      <trkpt lat="44.99183" lon="6.08756">
        <ele>879.6</ele>
        <time>2024-08-14T13:53:25Z</time>
      </trkpt>
      <trkpt lat="44.99183" lon="6.08756">
        <ele>879.4</ele>
        <time>2024-08-14T13:53:26Z</time>
      </trkpt>
      <trkpt lat="44.99185" lon="6.08752">
        <ele>879.4</ele>
        <time>2024-08-14T13:53:27Z</time>
      </trkpt>
      <trkpt lat="44.99185" lon="6.08752">
        <ele>879.6</ele>
        <time>2024-08-14T13:53:28Z</time>
      </trkpt>
      <trkpt lat="44.99186" lon="6.08748">
        <ele>879.6</ele>
        <time>2024-08-14T13:53:29Z</time>
      </trkpt>
      <trkpt lat="44.99188" lon="6.08746">
        <ele>879.4</ele>
        <time>2024-08-14T13:53:30Z</time>
      </trkpt>
      <trkpt lat="44.99188" lon="6.08746">
        <ele>879.4</ele>
        <time>2024-08-14T13:53:31Z</time>
      </trkpt>
      <trkpt lat="44.99189" lon="6.08741">
        <ele>879.4</ele>
        <time>2024-08-14T13:53:32Z</time>
      </trkpt>
      <trkpt lat="44.9919" lon="6.08739">
        <ele>879.2</ele>
        <time>2024-08-14T13:53:33Z</time>
      </trkpt>
      <trkpt lat="44.9919" lon="6.08739">
        <ele>879.2</ele>
        <time>2024-08-14T13:53:34Z</time>
      </trkpt>
      <trkpt lat="44.99192" lon="6.08736">
        <ele>879.2</ele>
        <time>2024-08-14T13:53:35Z</time>
      </trkpt>
      <trkpt lat="44.99192" lon="6.08736">
        <ele>879</ele>
        <time>2024-08-14T13:53:36Z</time>
      </trkpt>
      <trkpt lat="44.99194" lon="6.08732">
        <ele>878.8</ele>
        <time>2024-08-14T13:53:37Z</time>
      </trkpt>
      <trkpt lat="44.99194" lon="6.08732">
        <ele>878.8</ele>
        <time>2024-08-14T13:53:38Z</time>
      </trkpt>
      <trkpt lat="44.99196" lon="6.08729">
        <ele>878.8</ele>
        <time>2024-08-14T13:53:39Z</time>
      </trkpt>
      <trkpt lat="44.99197" lon="6.08727">
        <ele>878.8</ele>
        <time>2024-08-14T13:53:40Z</time>
      </trkpt>
      <trkpt lat="44.99197" lon="6.08727">
        <ele>878.8</ele>
        <time>2024-08-14T13:53:41Z</time>
      </trkpt>
      <trkpt lat="44.99198" lon="6.08724">
        <ele>878.8</ele>
        <time>2024-08-14T13:53:42Z</time>
      </trkpt>
      <trkpt lat="44.99198" lon="6.08724">
        <ele>878.6</ele>
        <time>2024-08-14T13:53:43Z</time>
      </trkpt>
      <trkpt lat="44.992" lon="6.08721">
        <ele>878.6</ele>
        <time>2024-08-14T13:53:44Z</time>
      </trkpt>
      <trkpt lat="44.992" lon="6.08721">
        <ele>878.4</ele>
        <time>2024-08-14T13:53:45Z</time>
      </trkpt>
      <trkpt lat="44.99202" lon="6.08717">
        <ele>878.4</ele>
        <time>2024-08-14T13:53:46Z</time>
      </trkpt>
      <trkpt lat="44.99202" lon="6.08717">
        <ele>878.4</ele>
        <time>2024-08-14T13:53:47Z</time>
      </trkpt>
      <trkpt lat="44.99204" lon="6.08714">
        <ele>878.4</ele>
        <time>2024-08-14T13:53:48Z</time>
      </trkpt>
      <trkpt lat="44.99204" lon="6.08714">
        <ele>878.4</ele>
        <time>2024-08-14T13:53:49Z</time>
      </trkpt>
      <trkpt lat="44.99205" lon="6.08711">
        <ele>878.2</ele>
        <time>2024-08-14T13:53:50Z</time>
      </trkpt>
      <trkpt lat="44.99205" lon="6.08711">
        <ele>878.2</ele>
        <time>2024-08-14T13:53:51Z</time>
      </trkpt>
      <trkpt lat="44.99207" lon="6.08707">
        <ele>878</ele>
        <time>2024-08-14T13:53:52Z</time>
      </trkpt>
      <trkpt lat="44.99207" lon="6.08707">
        <ele>878</ele>
        <time>2024-08-14T13:53:53Z</time>
      </trkpt>
      <trkpt lat="44.99209" lon="6.08703">
        <ele>877.8</ele>
        <time>2024-08-14T13:53:54Z</time>
      </trkpt>
      <trkpt lat="44.99209" lon="6.08703">
        <ele>877.8</ele>
        <time>2024-08-14T13:53:55Z</time>
      </trkpt>
      <trkpt lat="44.9921" lon="6.087">
        <ele>877.6</ele>
        <time>2024-08-14T13:53:56Z</time>
      </trkpt>
      <trkpt lat="44.9921" lon="6.087">
        <ele>877.6</ele>
        <time>2024-08-14T13:53:57Z</time>
      </trkpt>
      <trkpt lat="44.99212" lon="6.08696">
        <ele>877.4</ele>
        <time>2024-08-14T13:53:58Z</time>
      </trkpt>
      <trkpt lat="44.99213" lon="6.08694">
        <ele>877.4</ele>
        <time>2024-08-14T13:53:59Z</time>
      </trkpt>
      <trkpt lat="44.99213" lon="6.08694">
        <ele>877.4</ele>
        <time>2024-08-14T13:54:00Z</time>
      </trkpt>
      <trkpt lat="44.99214" lon="6.0869">
        <ele>877.4</ele>
        <time>2024-08-14T13:54:01Z</time>
      </trkpt>
      <trkpt lat="44.99214" lon="6.0869">
        <ele>877.4</ele>
        <time>2024-08-14T13:54:02Z</time>
      </trkpt>
      <trkpt lat="44.99216" lon="6.08686">
        <ele>877.4</ele>
        <time>2024-08-14T13:54:03Z</time>
      </trkpt>
      <trkpt lat="44.99216" lon="6.08686">
        <ele>877.2</ele>
        <time>2024-08-14T13:54:04Z</time>
      </trkpt>
      <trkpt lat="44.99217" lon="6.08682">
        <ele>877.2</ele>
        <time>2024-08-14T13:54:05Z</time>
      </trkpt>
      <trkpt lat="44.99217" lon="6.08682">
        <ele>877.2</ele>
        <time>2024-08-14T13:54:06Z</time>
      </trkpt>
      <trkpt lat="44.99219" lon="6.08679">
        <ele>877</ele>
        <time>2024-08-14T13:54:07Z</time>
      </trkpt>
      <trkpt lat="44.99219" lon="6.08679">
        <ele>876.8</ele>
        <time>2024-08-14T13:54:08Z</time>
      </trkpt>
      <trkpt lat="44.99221" lon="6.08675">
        <ele>876.8</ele>
        <time>2024-08-14T13:54:09Z</time>
      </trkpt>
      <trkpt lat="44.99221" lon="6.08675">
        <ele>876.6</ele>
        <time>2024-08-14T13:54:10Z</time>
      </trkpt>
      <trkpt lat="44.99222" lon="6.0867">
        <ele>876.6</ele>
        <time>2024-08-14T13:54:11Z</time>
      </trkpt>
      <trkpt lat="44.99222" lon="6.0867">
        <ele>876.6</ele>
        <time>2024-08-14T13:54:12Z</time>
      </trkpt>
      <trkpt lat="44.99223" lon="6.08666">
        <ele>876.6</ele>
        <time>2024-08-14T13:54:13Z</time>
      </trkpt>
      <trkpt lat="44.99223" lon="6.08666">
        <ele>876.6</ele>
        <time>2024-08-14T13:54:14Z</time>
      </trkpt>
      <trkpt lat="44.99223" lon="6.08661">
        <ele>876.6</ele>
        <time>2024-08-14T13:54:15Z</time>
      </trkpt>
      <trkpt lat="44.99223" lon="6.08661">
        <ele>876.4</ele>
        <time>2024-08-14T13:54:16Z</time>
      </trkpt>
      <trkpt lat="44.99224" lon="6.08657">
        <ele>876.4</ele>
        <time>2024-08-14T13:54:17Z</time>
      </trkpt>
      <trkpt lat="44.99224" lon="6.08657">
        <ele>876.2</ele>
        <time>2024-08-14T13:54:18Z</time>
      </trkpt>
      <trkpt lat="44.99224" lon="6.08653">
        <ele>876.2</ele>
        <time>2024-08-14T13:54:19Z</time>
      </trkpt>
      <trkpt lat="44.99224" lon="6.08653">
        <ele>876.2</ele>
        <time>2024-08-14T13:54:20Z</time>
      </trkpt>
      <trkpt lat="44.99224" lon="6.08649">
        <ele>876</ele>
        <time>2024-08-14T13:54:21Z</time>
      </trkpt>
      <trkpt lat="44.99224" lon="6.08649">
        <ele>875.8</ele>
        <time>2024-08-14T13:54:22Z</time>
      </trkpt>
      <trkpt lat="44.99224" lon="6.08644">
        <ele>876</ele>
        <time>2024-08-14T13:54:23Z</time>
      </trkpt>
      <trkpt lat="44.99224" lon="6.08644">
        <ele>876</ele>
        <time>2024-08-14T13:54:24Z</time>
      </trkpt>
      <trkpt lat="44.99225" lon="6.08642">
        <ele>875.8</ele>
        <time>2024-08-14T13:54:25Z</time>
      </trkpt>
      <trkpt lat="44.99227" lon="6.08642">
        <ele>875.8</ele>
        <time>2024-08-14T13:54:26Z</time>
      </trkpt>
      <trkpt lat="44.99227" lon="6.08642">
        <ele>875.6</ele>
        <time>2024-08-14T13:54:27Z</time>
      </trkpt>
      <trkpt lat="44.99228" lon="6.08639">
        <ele>875.6</ele>
        <time>2024-08-14T13:54:28Z</time>
      </trkpt>
      <trkpt lat="44.99228" lon="6.08639">
        <ele>875.4</ele>
        <time>2024-08-14T13:54:29Z</time>
      </trkpt>
      <trkpt lat="44.99228" lon="6.08636">
        <ele>875.4</ele>
        <time>2024-08-14T13:54:30Z</time>
      </trkpt>
      <trkpt lat="44.99228" lon="6.08636">
        <ele>875.2</ele>
        <time>2024-08-14T13:54:31Z</time>
      </trkpt>
      <trkpt lat="44.99228" lon="6.08633">
        <ele>875.2</ele>
        <time>2024-08-14T13:54:32Z</time>
      </trkpt>
      <trkpt lat="44.99228" lon="6.08633">
        <ele>875</ele>
        <time>2024-08-14T13:54:33Z</time>
      </trkpt>
      <trkpt lat="44.99227" lon="6.08629">
        <ele>875</ele>
        <time>2024-08-14T13:54:34Z</time>
      </trkpt>
      <trkpt lat="44.99227" lon="6.08629">
        <ele>875</ele>
        <time>2024-08-14T13:54:35Z</time>
      </trkpt>
      <trkpt lat="44.99226" lon="6.08625">
        <ele>874.8</ele>
        <time>2024-08-14T13:54:36Z</time>
      </trkpt>
      <trkpt lat="44.99226" lon="6.08625">
        <ele>874.8</ele>
        <time>2024-08-14T13:54:37Z</time>
      </trkpt>
      <trkpt lat="44.99225" lon="6.08622">
        <ele>874.8</ele>
        <time>2024-08-14T13:54:38Z</time>
      </trkpt>
      <trkpt lat="44.99225" lon="6.08622">
        <ele>874.6</ele>
        <time>2024-08-14T13:54:39Z</time>
      </trkpt>
      <trkpt lat="44.99224" lon="6.08618">
        <ele>874.2</ele>
        <time>2024-08-14T13:54:40Z</time>
      </trkpt>
      <trkpt lat="44.99224" lon="6.08618">
        <ele>874.2</ele>
        <time>2024-08-14T13:54:41Z</time>
      </trkpt>
      <trkpt lat="44.99223" lon="6.08614">
        <ele>874.2</ele>
        <time>2024-08-14T13:54:42Z</time>
      </trkpt>
      <trkpt lat="44.99223" lon="6.08614">
        <ele>874.2</ele>
        <time>2024-08-14T13:54:43Z</time>
      </trkpt>
      <trkpt lat="44.99222" lon="6.0861">
        <ele>874.2</ele>
        <time>2024-08-14T13:54:44Z</time>
      </trkpt>
      <trkpt lat="44.99222" lon="6.0861">
        <ele>874.2</ele>
        <time>2024-08-14T13:54:45Z</time>
      </trkpt>
      <trkpt lat="44.99221" lon="6.08606">
        <ele>874</ele>
        <time>2024-08-14T13:54:46Z</time>
      </trkpt>
      <trkpt lat="44.99221" lon="6.08606">
        <ele>874</ele>
        <time>2024-08-14T13:54:47Z</time>
      </trkpt>
      <trkpt lat="44.9922" lon="6.08602">
        <ele>873.8</ele>
        <time>2024-08-14T13:54:48Z</time>
      </trkpt>
      <trkpt lat="44.9922" lon="6.08602">
        <ele>873.6</ele>
        <time>2024-08-14T13:54:49Z</time>
      </trkpt>
      <trkpt lat="44.99218" lon="6.08598">
        <ele>873.6</ele>
        <time>2024-08-14T13:54:50Z</time>
      </trkpt>
      <trkpt lat="44.99218" lon="6.08598">
        <ele>873.6</ele>
        <time>2024-08-14T13:54:51Z</time>
      </trkpt>
      <trkpt lat="44.99217" lon="6.08594">
        <ele>873.4</ele>
        <time>2024-08-14T13:54:52Z</time>
      </trkpt>
      <trkpt lat="44.99217" lon="6.08594">
        <ele>873.4</ele>
        <time>2024-08-14T13:54:53Z</time>
      </trkpt>
      <trkpt lat="44.99216" lon="6.0859">
        <ele>873.4</ele>
        <time>2024-08-14T13:54:54Z</time>
      </trkpt>
      <trkpt lat="44.99216" lon="6.0859">
        <ele>873.2</ele>
        <time>2024-08-14T13:54:55Z</time>
      </trkpt>
      <trkpt lat="44.99216" lon="6.08586">
        <ele>873.2</ele>
        <time>2024-08-14T13:54:56Z</time>
      </trkpt>
      <trkpt lat="44.99216" lon="6.08586">
        <ele>873.2</ele>
        <time>2024-08-14T13:54:57Z</time>
      </trkpt>
      <trkpt lat="44.99215" lon="6.08582">
        <ele>873.2</ele>
        <time>2024-08-14T13:54:58Z</time>
      </trkpt>
      <trkpt lat="44.99215" lon="6.08582">
        <ele>873.2</ele>
        <time>2024-08-14T13:54:59Z</time>
      </trkpt>
      <trkpt lat="44.99215" lon="6.08578">
        <ele>873.2</ele>
        <time>2024-08-14T13:55:00Z</time>
      </trkpt>
      <trkpt lat="44.99215" lon="6.08578">
        <ele>873.2</ele>
        <time>2024-08-14T13:55:01Z</time>
      </trkpt>
      <trkpt lat="44.99214" lon="6.08574">
        <ele>873</ele>
        <time>2024-08-14T13:55:02Z</time>
      </trkpt>
      <trkpt lat="44.99214" lon="6.08574">
        <ele>873</ele>
        <time>2024-08-14T13:55:03Z</time>
      </trkpt>
      <trkpt lat="44.99213" lon="6.0857">
        <ele>873</ele>
        <time>2024-08-14T13:55:04Z</time>
      </trkpt>
      <trkpt lat="44.99213" lon="6.0857">
        <ele>872.8</ele>
        <time>2024-08-14T13:55:05Z</time>
      </trkpt>
      <trkpt lat="44.99213" lon="6.08566">
        <ele>872.6</ele>
        <time>2024-08-14T13:55:06Z</time>
      </trkpt>
      <trkpt lat="44.99213" lon="6.08566">
        <ele>872.4</ele>
        <time>2024-08-14T13:55:07Z</time>
      </trkpt>
      <trkpt lat="44.99212" lon="6.08562">
        <ele>872.4</ele>
        <time>2024-08-14T13:55:08Z</time>
      </trkpt>
      <trkpt lat="44.99212" lon="6.08562">
        <ele>872.4</ele>
        <time>2024-08-14T13:55:09Z</time>
      </trkpt>
      <trkpt lat="44.99212" lon="6.08558">
        <ele>872.4</ele>
        <time>2024-08-14T13:55:10Z</time>
      </trkpt>
      <trkpt lat="44.99212" lon="6.08558">
        <ele>872.2</ele>
        <time>2024-08-14T13:55:11Z</time>
      </trkpt>
      <trkpt lat="44.99212" lon="6.08558">
        <ele>872.2</ele>
        <time>2024-08-14T13:55:12Z</time>
      </trkpt>
      <trkpt lat="44.9921" lon="6.08552">
        <ele>872.2</ele>
        <time>2024-08-14T13:55:13Z</time>
      </trkpt>
      <trkpt lat="44.9921" lon="6.0855">
        <ele>872</ele>
        <time>2024-08-14T13:55:14Z</time>
      </trkpt>
      <trkpt lat="44.9921" lon="6.0855">
        <ele>871.8</ele>
        <time>2024-08-14T13:55:15Z</time>
      </trkpt>
      <trkpt lat="44.99209" lon="6.08545">
        <ele>871.8</ele>
        <time>2024-08-14T13:55:16Z</time>
      </trkpt>
      <trkpt lat="44.99209" lon="6.08545">
        <ele>871.8</ele>
        <time>2024-08-14T13:55:17Z</time>
      </trkpt>
      <trkpt lat="44.99208" lon="6.08541">
        <ele>871.8</ele>
        <time>2024-08-14T13:55:18Z</time>
      </trkpt>
      <trkpt lat="44.99208" lon="6.08541">
        <ele>871.6</ele>
        <time>2024-08-14T13:55:19Z</time>
      </trkpt>
      <trkpt lat="44.99207" lon="6.08537">
        <ele>871.6</ele>
        <time>2024-08-14T13:55:20Z</time>
      </trkpt>
      <trkpt lat="44.99207" lon="6.08537">
        <ele>871.6</ele>
        <time>2024-08-14T13:55:21Z</time>
      </trkpt>
      <trkpt lat="44.99207" lon="6.08533">
        <ele>871.8</ele>
        <time>2024-08-14T13:55:22Z</time>
      </trkpt>
      <trkpt lat="44.99207" lon="6.08533">
        <ele>871.6</ele>
        <time>2024-08-14T13:55:23Z</time>
      </trkpt>
      <trkpt lat="44.99206" lon="6.08529">
        <ele>871.6</ele>
        <time>2024-08-14T13:55:24Z</time>
      </trkpt>
      <trkpt lat="44.99206" lon="6.08529">
        <ele>871.4</ele>
        <time>2024-08-14T13:55:25Z</time>
      </trkpt>
      <trkpt lat="44.99206" lon="6.08529">
        <ele>871.4</ele>
        <time>2024-08-14T13:55:26Z</time>
      </trkpt>
      <trkpt lat="44.99206" lon="6.08523">
        <ele>871.4</ele>
        <time>2024-08-14T13:55:27Z</time>
      </trkpt>
      <trkpt lat="44.99206" lon="6.08521">
        <ele>871.2</ele>
        <time>2024-08-14T13:55:28Z</time>
      </trkpt>
      <trkpt lat="44.99206" lon="6.08521">
        <ele>870.8</ele>
        <time>2024-08-14T13:55:29Z</time>
      </trkpt>
      <trkpt lat="44.99205" lon="6.08517">
        <ele>870.8</ele>
        <time>2024-08-14T13:55:30Z</time>
      </trkpt>
      <trkpt lat="44.99205" lon="6.08517">
        <ele>870.8</ele>
        <time>2024-08-14T13:55:31Z</time>
      </trkpt>
      <trkpt lat="44.99204" lon="6.08512">
        <ele>870.8</ele>
        <time>2024-08-14T13:55:32Z</time>
      </trkpt>
      <trkpt lat="44.99204" lon="6.08512">
        <ele>870.6</ele>
        <time>2024-08-14T13:55:33Z</time>
      </trkpt>
      <trkpt lat="44.99204" lon="6.08508">
        <ele>870.6</ele>
        <time>2024-08-14T13:55:34Z</time>
      </trkpt>
      <trkpt lat="44.99204" lon="6.08508">
        <ele>870.6</ele>
        <time>2024-08-14T13:55:35Z</time>
      </trkpt>
      <trkpt lat="44.99202" lon="6.08504">
        <ele>870.6</ele>
        <time>2024-08-14T13:55:36Z</time>
      </trkpt>
      <trkpt lat="44.99202" lon="6.08504">
        <ele>870.8</ele>
        <time>2024-08-14T13:55:37Z</time>
      </trkpt>
      <trkpt lat="44.99201" lon="6.085">
        <ele>870.8</ele>
        <time>2024-08-14T13:55:38Z</time>
      </trkpt>
      <trkpt lat="44.99201" lon="6.085">
        <ele>870.6</ele>
        <time>2024-08-14T13:55:39Z</time>
      </trkpt>
      <trkpt lat="44.992" lon="6.08496">
        <ele>870.4</ele>
        <time>2024-08-14T13:55:40Z</time>
      </trkpt>
      <trkpt lat="44.992" lon="6.08496">
        <ele>870.4</ele>
        <time>2024-08-14T13:55:41Z</time>
      </trkpt>
      <trkpt lat="44.992" lon="6.08496">
        <ele>870.4</ele>
        <time>2024-08-14T13:55:42Z</time>
      </trkpt>
      <trkpt lat="44.992" lon="6.0849">
        <ele>870.2</ele>
        <time>2024-08-14T13:55:43Z</time>
      </trkpt>
      <trkpt lat="44.992" lon="6.08488">
        <ele>870.2</ele>
        <time>2024-08-14T13:55:44Z</time>
      </trkpt>
      <trkpt lat="44.992" lon="6.08488">
        <ele>870.2</ele>
        <time>2024-08-14T13:55:45Z</time>
      </trkpt>
      <trkpt lat="44.992" lon="6.08484">
        <ele>870.2</ele>
        <time>2024-08-14T13:55:46Z</time>
      </trkpt>
      <trkpt lat="44.992" lon="6.08484">
        <ele>870</ele>
        <time>2024-08-14T13:55:47Z</time>
      </trkpt>
      <trkpt lat="44.99201" lon="6.08479">
        <ele>870</ele>
        <time>2024-08-14T13:55:48Z</time>
      </trkpt>
      <trkpt lat="44.99201" lon="6.08479">
        <ele>870</ele>
        <time>2024-08-14T13:55:49Z</time>
      </trkpt>
      <trkpt lat="44.99202" lon="6.08475">
        <ele>870</ele>
        <time>2024-08-14T13:55:50Z</time>
      </trkpt>
      <trkpt lat="44.99202" lon="6.08475">
        <ele>869.6</ele>
        <time>2024-08-14T13:55:51Z</time>
      </trkpt>
      <trkpt lat="44.99202" lon="6.08471">
        <ele>869.6</ele>
        <time>2024-08-14T13:55:52Z</time>
      </trkpt>
      <trkpt lat="44.99202" lon="6.08471">
        <ele>869.4</ele>
        <time>2024-08-14T13:55:53Z</time>
      </trkpt>
      <trkpt lat="44.99203" lon="6.08467">
        <ele>869.4</ele>
        <time>2024-08-14T13:55:54Z</time>
      </trkpt>
      <trkpt lat="44.99203" lon="6.08467">
        <ele>869.4</ele>
        <time>2024-08-14T13:55:55Z</time>
      </trkpt>
      <trkpt lat="44.99204" lon="6.08463">
        <ele>869.4</ele>
        <time>2024-08-14T13:55:56Z</time>
      </trkpt>
      <trkpt lat="44.99204" lon="6.08463">
        <ele>869.4</ele>
        <time>2024-08-14T13:55:57Z</time>
      </trkpt>
      <trkpt lat="44.99205" lon="6.08459">
        <ele>869.2</ele>
        <time>2024-08-14T13:55:58Z</time>
      </trkpt>
      <trkpt lat="44.99205" lon="6.08459">
        <ele>869.2</ele>
        <time>2024-08-14T13:55:59Z</time>
      </trkpt>
      <trkpt lat="44.99206" lon="6.08455">
        <ele>869.2</ele>
        <time>2024-08-14T13:56:00Z</time>
      </trkpt>
      <trkpt lat="44.99207" lon="6.08453">
        <ele>869.2</ele>
        <time>2024-08-14T13:56:01Z</time>
      </trkpt>
      <trkpt lat="44.99207" lon="6.08453">
        <ele>869</ele>
        <time>2024-08-14T13:56:02Z</time>
      </trkpt>
      <trkpt lat="44.99208" lon="6.08449">
        <ele>869</ele>
        <time>2024-08-14T13:56:03Z</time>
      </trkpt>
      <trkpt lat="44.99208" lon="6.08449">
        <ele>869</ele>
        <time>2024-08-14T13:56:04Z</time>
      </trkpt>
      <trkpt lat="44.9921" lon="6.08445">
        <ele>868.6</ele>
        <time>2024-08-14T13:56:05Z</time>
      </trkpt>
      <trkpt lat="44.9921" lon="6.08445">
        <ele>868.6</ele>
        <time>2024-08-14T13:56:06Z</time>
      </trkpt>
      <trkpt lat="44.99212" lon="6.08442">
        <ele>868.6</ele>
        <time>2024-08-14T13:56:07Z</time>
      </trkpt>
      <trkpt lat="44.99212" lon="6.08442">
        <ele>868.6</ele>
        <time>2024-08-14T13:56:08Z</time>
      </trkpt>
      <trkpt lat="44.99213" lon="6.08438">
        <ele>868.4</ele>
        <time>2024-08-14T13:56:09Z</time>
      </trkpt>
      <trkpt lat="44.99213" lon="6.08438">
        <ele>868.4</ele>
        <time>2024-08-14T13:56:10Z</time>
      </trkpt>
      <trkpt lat="44.99214" lon="6.08435">
        <ele>868.4</ele>
        <time>2024-08-14T13:56:11Z</time>
      </trkpt>
      <trkpt lat="44.99214" lon="6.08435">
        <ele>868.4</ele>
        <time>2024-08-14T13:56:12Z</time>
      </trkpt>
      <trkpt lat="44.99216" lon="6.08432">
        <ele>868.4</ele>
        <time>2024-08-14T13:56:13Z</time>
      </trkpt>
      <trkpt lat="44.99216" lon="6.08432">
        <ele>868.6</ele>
        <time>2024-08-14T13:56:14Z</time>
      </trkpt>
      <trkpt lat="44.99217" lon="6.08428">
        <ele>868.6</ele>
        <time>2024-08-14T13:56:15Z</time>
      </trkpt>
      <trkpt lat="44.99218" lon="6.08425">
        <ele>868.6</ele>
        <time>2024-08-14T13:56:16Z</time>
      </trkpt>
      <trkpt lat="44.99218" lon="6.08425">
        <ele>868.4</ele>
        <time>2024-08-14T13:56:17Z</time>
      </trkpt>
      <trkpt lat="44.99219" lon="6.08422">
        <ele>868.4</ele>
        <time>2024-08-14T13:56:18Z</time>
      </trkpt>
      <trkpt lat="44.99219" lon="6.08422">
        <ele>868.4</ele>
        <time>2024-08-14T13:56:19Z</time>
      </trkpt>
      <trkpt lat="44.9922" lon="6.08418">
        <ele>868.2</ele>
        <time>2024-08-14T13:56:20Z</time>
      </trkpt>
      <trkpt lat="44.9922" lon="6.08418">
        <ele>868.2</ele>
        <time>2024-08-14T13:56:21Z</time>
      </trkpt>
      <trkpt lat="44.99221" lon="6.08415">
        <ele>868.2</ele>
        <time>2024-08-14T13:56:22Z</time>
      </trkpt>
      <trkpt lat="44.99221" lon="6.08415">
        <ele>868</ele>
        <time>2024-08-14T13:56:23Z</time>
      </trkpt>
      <trkpt lat="44.99223" lon="6.08411">
        <ele>867.8</ele>
        <time>2024-08-14T13:56:24Z</time>
      </trkpt>
      <trkpt lat="44.99223" lon="6.08411">
        <ele>867.8</ele>
        <time>2024-08-14T13:56:25Z</time>
      </trkpt>
      <trkpt lat="44.99224" lon="6.08408">
        <ele>867.6</ele>
        <time>2024-08-14T13:56:26Z</time>
      </trkpt>
      <trkpt lat="44.99224" lon="6.08408">
        <ele>867.6</ele>
        <time>2024-08-14T13:56:27Z</time>
      </trkpt>
      <trkpt lat="44.99226" lon="6.08405">
        <ele>867.4</ele>
        <time>2024-08-14T13:56:28Z</time>
      </trkpt>
      <trkpt lat="44.99226" lon="6.08405">
        <ele>867.4</ele>
        <time>2024-08-14T13:56:29Z</time>
      </trkpt>
      <trkpt lat="44.99227" lon="6.08402">
        <ele>867.4</ele>
        <time>2024-08-14T13:56:30Z</time>
      </trkpt>
      <trkpt lat="44.99227" lon="6.08402">
        <ele>867.4</ele>
        <time>2024-08-14T13:56:31Z</time>
      </trkpt>
      <trkpt lat="44.99228" lon="6.08399">
        <ele>867.4</ele>
        <time>2024-08-14T13:56:32Z</time>
      </trkpt>
      <trkpt lat="44.99228" lon="6.08399">
        <ele>867.4</ele>
        <time>2024-08-14T13:56:33Z</time>
      </trkpt>
      <trkpt lat="44.9923" lon="6.08396">
        <ele>867.2</ele>
        <time>2024-08-14T13:56:34Z</time>
      </trkpt>
      <trkpt lat="44.99231" lon="6.08393">
        <ele>867.2</ele>
        <time>2024-08-14T13:56:35Z</time>
      </trkpt>
      <trkpt lat="44.99231" lon="6.08393">
        <ele>867.2</ele>
        <time>2024-08-14T13:56:36Z</time>
      </trkpt>
      <trkpt lat="44.99233" lon="6.0839">
        <ele>867</ele>
        <time>2024-08-14T13:56:37Z</time>
      </trkpt>
      <trkpt lat="44.99233" lon="6.0839">
        <ele>866.8</ele>
        <time>2024-08-14T13:56:38Z</time>
      </trkpt>
      <trkpt lat="44.99234" lon="6.08387">
        <ele>866.8</ele>
        <time>2024-08-14T13:56:39Z</time>
      </trkpt>
      <trkpt lat="44.99234" lon="6.08387">
        <ele>866.8</ele>
        <time>2024-08-14T13:56:40Z</time>
      </trkpt>
      <trkpt lat="44.99235" lon="6.08384">
        <ele>866.8</ele>
        <time>2024-08-14T13:56:41Z</time>
      </trkpt>
      <trkpt lat="44.99235" lon="6.08384">
        <ele>866.6</ele>
        <time>2024-08-14T13:56:42Z</time>
      </trkpt>
      <trkpt lat="44.99236" lon="6.08381">
        <ele>866.6</ele>
        <time>2024-08-14T13:56:43Z</time>
      </trkpt>
      <trkpt lat="44.99236" lon="6.08381">
        <ele>866.6</ele>
        <time>2024-08-14T13:56:44Z</time>
      </trkpt>
      <trkpt lat="44.99237" lon="6.08377">
        <ele>866.6</ele>
        <time>2024-08-14T13:56:45Z</time>
      </trkpt>
      <trkpt lat="44.99237" lon="6.08377">
        <ele>866.4</ele>
        <time>2024-08-14T13:56:46Z</time>
      </trkpt>
      <trkpt lat="44.99239" lon="6.08374">
        <ele>866.2</ele>
        <time>2024-08-14T13:56:47Z</time>
      </trkpt>
      <trkpt lat="44.99241" lon="6.08372">
        <ele>866</ele>
        <time>2024-08-14T13:56:48Z</time>
      </trkpt>
      <trkpt lat="44.99241" lon="6.08372">
        <ele>866</ele>
        <time>2024-08-14T13:56:49Z</time>
      </trkpt>
      <trkpt lat="44.99243" lon="6.08369">
        <ele>866</ele>
        <time>2024-08-14T13:56:50Z</time>
      </trkpt>
      <trkpt lat="44.99243" lon="6.08369">
        <ele>866</ele>
        <time>2024-08-14T13:56:51Z</time>
      </trkpt>
      <trkpt lat="44.99243" lon="6.08366">
        <ele>866</ele>
        <time>2024-08-14T13:56:52Z</time>
      </trkpt>
      <trkpt lat="44.99243" lon="6.08366">
        <ele>866</ele>
        <time>2024-08-14T13:56:53Z</time>
      </trkpt>
      <trkpt lat="44.99245" lon="6.08362">
        <ele>866</ele>
        <time>2024-08-14T13:56:54Z</time>
      </trkpt>
      <trkpt lat="44.99245" lon="6.08362">
        <ele>866</ele>
        <time>2024-08-14T13:56:55Z</time>
      </trkpt>
      <trkpt lat="44.99247" lon="6.08359">
        <ele>865.8</ele>
        <time>2024-08-14T13:56:56Z</time>
      </trkpt>
      <trkpt lat="44.99247" lon="6.08359">
        <ele>865.8</ele>
        <time>2024-08-14T13:56:57Z</time>
      </trkpt>
      <trkpt lat="44.99248" lon="6.08357">
        <ele>865.8</ele>
        <time>2024-08-14T13:56:58Z</time>
      </trkpt>
      <trkpt lat="44.99248" lon="6.08357">
        <ele>865.8</ele>
        <time>2024-08-14T13:56:59Z</time>
      </trkpt>
      <trkpt lat="44.9925" lon="6.08353">
        <ele>865.8</ele>
        <time>2024-08-14T13:57:00Z</time>
      </trkpt>
      <trkpt lat="44.9925" lon="6.08353">
        <ele>865.6</ele>
        <time>2024-08-14T13:57:01Z</time>
      </trkpt>
      <trkpt lat="44.99251" lon="6.08349">
        <ele>865.6</ele>
        <time>2024-08-14T13:57:02Z</time>
      </trkpt>
      <trkpt lat="44.99251" lon="6.08349">
        <ele>865.6</ele>
        <time>2024-08-14T13:57:03Z</time>
      </trkpt>
      <trkpt lat="44.99251" lon="6.08346">
        <ele>865.6</ele>
        <time>2024-08-14T13:57:04Z</time>
      </trkpt>
      <trkpt lat="44.99251" lon="6.08346">
        <ele>865.2</ele>
        <time>2024-08-14T13:57:05Z</time>
      </trkpt>
      <trkpt lat="44.99252" lon="6.08343">
        <ele>865</ele>
        <time>2024-08-14T13:57:06Z</time>
      </trkpt>
      <trkpt lat="44.99252" lon="6.08343">
        <ele>865</ele>
        <time>2024-08-14T13:57:07Z</time>
      </trkpt>
      <trkpt lat="44.99253" lon="6.08339">
        <ele>865</ele>
        <time>2024-08-14T13:57:08Z</time>
      </trkpt>
      <trkpt lat="44.99253" lon="6.08339">
        <ele>865</ele>
        <time>2024-08-14T13:57:09Z</time>
      </trkpt>
      <trkpt lat="44.99255" lon="6.08336">
        <ele>864.8</ele>
        <time>2024-08-14T13:57:10Z</time>
      </trkpt>
      <trkpt lat="44.99255" lon="6.08336">
        <ele>864.8</ele>
        <time>2024-08-14T13:57:11Z</time>
      </trkpt>
      <trkpt lat="44.99256" lon="6.08333">
        <ele>864.6</ele>
        <time>2024-08-14T13:57:12Z</time>
      </trkpt>
      <trkpt lat="44.99256" lon="6.08333">
        <ele>864.6</ele>
        <time>2024-08-14T13:57:13Z</time>
      </trkpt>
      <trkpt lat="44.99258" lon="6.0833">
        <ele>864.4</ele>
        <time>2024-08-14T13:57:14Z</time>
      </trkpt>
      <trkpt lat="44.99259" lon="6.08328">
        <ele>864.4</ele>
        <time>2024-08-14T13:57:15Z</time>
      </trkpt>
      <trkpt lat="44.99259" lon="6.08328">
        <ele>864.4</ele>
        <time>2024-08-14T13:57:16Z</time>
      </trkpt>
      <trkpt lat="44.99261" lon="6.08325">
        <ele>864.4</ele>
        <time>2024-08-14T13:57:17Z</time>
      </trkpt>
      <trkpt lat="44.99261" lon="6.08325">
        <ele>864.2</ele>
        <time>2024-08-14T13:57:18Z</time>
      </trkpt>
      <trkpt lat="44.99262" lon="6.08321">
        <ele>864.2</ele>
        <time>2024-08-14T13:57:19Z</time>
      </trkpt>
      <trkpt lat="44.99262" lon="6.08321">
        <ele>864.2</ele>
        <time>2024-08-14T13:57:20Z</time>
      </trkpt>
      <trkpt lat="44.99263" lon="6.08317">
        <ele>864.2</ele>
        <time>2024-08-14T13:57:21Z</time>
      </trkpt>
      <trkpt lat="44.99263" lon="6.08317">
        <ele>864</ele>
        <time>2024-08-14T13:57:22Z</time>
      </trkpt>
      <trkpt lat="44.99265" lon="6.08314">
        <ele>864</ele>
        <time>2024-08-14T13:57:23Z</time>
      </trkpt>
      <trkpt lat="44.99265" lon="6.08314">
        <ele>864</ele>
        <time>2024-08-14T13:57:24Z</time>
      </trkpt>
      <trkpt lat="44.99267" lon="6.0831">
        <ele>864</ele>
        <time>2024-08-14T13:57:25Z</time>
      </trkpt>
      <trkpt lat="44.99267" lon="6.0831">
        <ele>863.8</ele>
        <time>2024-08-14T13:57:26Z</time>
      </trkpt>
      <trkpt lat="44.99269" lon="6.08307">
        <ele>863.4</ele>
        <time>2024-08-14T13:57:27Z</time>
      </trkpt>
      <trkpt lat="44.99269" lon="6.08307">
        <ele>863.4</ele>
        <time>2024-08-14T13:57:28Z</time>
      </trkpt>
      <trkpt lat="44.99269" lon="6.08304">
        <ele>863.6</ele>
        <time>2024-08-14T13:57:29Z</time>
      </trkpt>
      <trkpt lat="44.99269" lon="6.08304">
        <ele>863.6</ele>
        <time>2024-08-14T13:57:30Z</time>
      </trkpt>
      <trkpt lat="44.99271" lon="6.08301">
        <ele>863.4</ele>
        <time>2024-08-14T13:57:31Z</time>
      </trkpt>
      <trkpt lat="44.99271" lon="6.08301">
        <ele>863.4</ele>
        <time>2024-08-14T13:57:32Z</time>
      </trkpt>
      <trkpt lat="44.99272" lon="6.08297">
        <ele>863.4</ele>
        <time>2024-08-14T13:57:33Z</time>
      </trkpt>
      <trkpt lat="44.99272" lon="6.08297">
        <ele>863.4</ele>
        <time>2024-08-14T13:57:34Z</time>
      </trkpt>
      <trkpt lat="44.99274" lon="6.08294">
        <ele>863.4</ele>
        <time>2024-08-14T13:57:35Z</time>
      </trkpt>
      <trkpt lat="44.99275" lon="6.08292">
        <ele>863.4</ele>
        <time>2024-08-14T13:57:36Z</time>
      </trkpt>
      <trkpt lat="44.99275" lon="6.08292">
        <ele>863.2</ele>
        <time>2024-08-14T13:57:37Z</time>
      </trkpt>
      <trkpt lat="44.99277" lon="6.08288">
        <ele>863</ele>
        <time>2024-08-14T13:57:38Z</time>
      </trkpt>
      <trkpt lat="44.99277" lon="6.08288">
        <ele>863</ele>
        <time>2024-08-14T13:57:39Z</time>
      </trkpt>
      <trkpt lat="44.99279" lon="6.08285">
        <ele>863</ele>
        <time>2024-08-14T13:57:40Z</time>
      </trkpt>
      <trkpt lat="44.99279" lon="6.08285">
        <ele>863</ele>
        <time>2024-08-14T13:57:41Z</time>
      </trkpt>
      <trkpt lat="44.99281" lon="6.08282">
        <ele>863</ele>
        <time>2024-08-14T13:57:42Z</time>
      </trkpt>
      <trkpt lat="44.99281" lon="6.08282">
        <ele>863</ele>
        <time>2024-08-14T13:57:43Z</time>
      </trkpt>
      <trkpt lat="44.99283" lon="6.08279">
        <ele>863</ele>
        <time>2024-08-14T13:57:44Z</time>
      </trkpt>
      <trkpt lat="44.99283" lon="6.08279">
        <ele>863</ele>
        <time>2024-08-14T13:57:45Z</time>
      </trkpt>
      <trkpt lat="44.99285" lon="6.08276">
        <ele>862.8</ele>
        <time>2024-08-14T13:57:46Z</time>
      </trkpt>
      <trkpt lat="44.99285" lon="6.08276">
        <ele>862.8</ele>
        <time>2024-08-14T13:57:47Z</time>
      </trkpt>
      <trkpt lat="44.99287" lon="6.08273">
        <ele>862.8</ele>
        <time>2024-08-14T13:57:48Z</time>
      </trkpt>
      <trkpt lat="44.99287" lon="6.08273">
        <ele>862.8</ele>
        <time>2024-08-14T13:57:49Z</time>
      </trkpt>
      <trkpt lat="44.99287" lon="6.0827">
        <ele>863</ele>
        <time>2024-08-14T13:57:50Z</time>
      </trkpt>
      <trkpt lat="44.99288" lon="6.08268">
        <ele>863</ele>
        <time>2024-08-14T13:57:51Z</time>
      </trkpt>
      <trkpt lat="44.99288" lon="6.08268">
        <ele>863</ele>
        <time>2024-08-14T13:57:52Z</time>
      </trkpt>
      <trkpt lat="44.99289" lon="6.08265">
        <ele>862.8</ele>
        <time>2024-08-14T13:57:53Z</time>
      </trkpt>
      <trkpt lat="44.99289" lon="6.08265">
        <ele>862.8</ele>
        <time>2024-08-14T13:57:54Z</time>
      </trkpt>
      <trkpt lat="44.99291" lon="6.08262">
        <ele>862.8</ele>
        <time>2024-08-14T13:57:55Z</time>
      </trkpt>
      <trkpt lat="44.99291" lon="6.08262">
        <ele>862.8</ele>
        <time>2024-08-14T13:57:56Z</time>
      </trkpt>
      <trkpt lat="44.99291" lon="6.08259">
        <ele>862.8</ele>
        <time>2024-08-14T13:57:57Z</time>
      </trkpt>
      <trkpt lat="44.99291" lon="6.08259">
        <ele>862.8</ele>
        <time>2024-08-14T13:57:58Z</time>
      </trkpt>
      <trkpt lat="44.99292" lon="6.08255">
        <ele>862.6</ele>
        <time>2024-08-14T13:57:59Z</time>
      </trkpt>
      <trkpt lat="44.99292" lon="6.08255">
        <ele>862.6</ele>
        <time>2024-08-14T13:58:00Z</time>
      </trkpt>
      <trkpt lat="44.99293" lon="6.08252">
        <ele>862.4</ele>
        <time>2024-08-14T13:58:01Z</time>
      </trkpt>
      <trkpt lat="44.99293" lon="6.08252">
        <ele>862.6</ele>
        <time>2024-08-14T13:58:02Z</time>
      </trkpt>
      <trkpt lat="44.99295" lon="6.08248">
        <ele>862.6</ele>
        <time>2024-08-14T13:58:03Z</time>
      </trkpt>
      <trkpt lat="44.99295" lon="6.08248">
        <ele>862.6</ele>
        <time>2024-08-14T13:58:04Z</time>
      </trkpt>
      <trkpt lat="44.99297" lon="6.08244">
        <ele>862.6</ele>
        <time>2024-08-14T13:58:05Z</time>
      </trkpt>
      <trkpt lat="44.99297" lon="6.08244">
        <ele>862.6</ele>
        <time>2024-08-14T13:58:06Z</time>
      </trkpt>
      <trkpt lat="44.99297" lon="6.08244">
        <ele>862.8</ele>
        <time>2024-08-14T13:58:07Z</time>
      </trkpt>
      <trkpt lat="44.99299" lon="6.0824">
        <ele>862.8</ele>
        <time>2024-08-14T13:58:08Z</time>
      </trkpt>
      <trkpt lat="44.993" lon="6.08238">
        <ele>862.6</ele>
        <time>2024-08-14T13:58:09Z</time>
      </trkpt>
      <trkpt lat="44.993" lon="6.08238">
        <ele>862.6</ele>
        <time>2024-08-14T13:58:10Z</time>
      </trkpt>
      <trkpt lat="44.99301" lon="6.08235">
        <ele>862.6</ele>
        <time>2024-08-14T13:58:11Z</time>
      </trkpt>
      <trkpt lat="44.99301" lon="6.08235">
        <ele>862.6</ele>
        <time>2024-08-14T13:58:12Z</time>
      </trkpt>
      <trkpt lat="44.99304" lon="6.08232">
        <ele>862.6</ele>
        <time>2024-08-14T13:58:13Z</time>
      </trkpt>
      <trkpt lat="44.99304" lon="6.08232">
        <ele>862.6</ele>
        <time>2024-08-14T13:58:14Z</time>
      </trkpt>
      <trkpt lat="44.99305" lon="6.08229">
        <ele>862.6</ele>
        <time>2024-08-14T13:58:15Z</time>
      </trkpt>
      <trkpt lat="44.99305" lon="6.08229">
        <ele>862.4</ele>
        <time>2024-08-14T13:58:16Z</time>
      </trkpt>
      <trkpt lat="44.99305" lon="6.08229">
        <ele>862.4</ele>
        <time>2024-08-14T13:58:17Z</time>
      </trkpt>
      <trkpt lat="44.99307" lon="6.08227">
        <ele>862.4</ele>
        <time>2024-08-14T13:58:18Z</time>
      </trkpt>
      <trkpt lat="44.99307" lon="6.08227">
        <ele>862.4</ele>
        <time>2024-08-14T13:58:19Z</time>
      </trkpt>
      <trkpt lat="44.99307" lon="6.08224">
        <ele>862.4</ele>
        <time>2024-08-14T13:58:20Z</time>
      </trkpt>
      <trkpt lat="44.99307" lon="6.08224">
        <ele>862.6</ele>
        <time>2024-08-14T13:58:21Z</time>
      </trkpt>
      <trkpt lat="44.99307" lon="6.08224">
        <ele>862.6</ele>
        <time>2024-08-14T13:58:22Z</time>
      </trkpt>
      <trkpt lat="44.99307" lon="6.08218">
        <ele>862.6</ele>
        <time>2024-08-14T13:58:23Z</time>
      </trkpt>
      <trkpt lat="44.99308" lon="6.08217">
        <ele>862.6</ele>
        <time>2024-08-14T13:58:24Z</time>
      </trkpt>
      <trkpt lat="44.99308" lon="6.08217">
        <ele>862.4</ele>
        <time>2024-08-14T13:58:25Z</time>
      </trkpt>
      <trkpt lat="44.99309" lon="6.08213">
        <ele>862.4</ele>
        <time>2024-08-14T13:58:26Z</time>
      </trkpt>
      <trkpt lat="44.99309" lon="6.08213">
        <ele>862.4</ele>
        <time>2024-08-14T13:58:27Z</time>
      </trkpt>
      <trkpt lat="44.99309" lon="6.0821">
        <ele>862.4</ele>
        <time>2024-08-14T13:58:28Z</time>
      </trkpt>
      <trkpt lat="44.99309" lon="6.0821">
        <ele>862.4</ele>
        <time>2024-08-14T13:58:29Z</time>
      </trkpt>
      <trkpt lat="44.99309" lon="6.0821">
        <ele>862.4</ele>
        <time>2024-08-14T13:58:30Z</time>
      </trkpt>
      <trkpt lat="44.99312" lon="6.08205">
        <ele>862.4</ele>
        <time>2024-08-14T13:58:31Z</time>
      </trkpt>
      <trkpt lat="44.99313" lon="6.08203">
        <ele>862.2</ele>
        <time>2024-08-14T13:58:32Z</time>
      </trkpt>
      <trkpt lat="44.99313" lon="6.08203">
        <ele>862.2</ele>
        <time>2024-08-14T13:58:33Z</time>
      </trkpt>
      <trkpt lat="44.99314" lon="6.082">
        <ele>862.2</ele>
        <time>2024-08-14T13:58:34Z</time>
      </trkpt>
      <trkpt lat="44.99314" lon="6.082">
        <ele>862.4</ele>
        <time>2024-08-14T13:58:35Z</time>
      </trkpt>
      <trkpt lat="44.99316" lon="6.08197">
        <ele>862.4</ele>
        <time>2024-08-14T13:58:36Z</time>
      </trkpt>
      <trkpt lat="44.99316" lon="6.08197">
        <ele>862.4</ele>
        <time>2024-08-14T13:58:37Z</time>
      </trkpt>
      <trkpt lat="44.99317" lon="6.08193">
        <ele>862.4</ele>
        <time>2024-08-14T13:58:38Z</time>
      </trkpt>
      <trkpt lat="44.99317" lon="6.08193">
        <ele>862.4</ele>
        <time>2024-08-14T13:58:39Z</time>
      </trkpt>
      <trkpt lat="44.99319" lon="6.0819">
        <ele>862.4</ele>
        <time>2024-08-14T13:58:40Z</time>
      </trkpt>
      <trkpt lat="44.99319" lon="6.0819">
        <ele>862.4</ele>
        <time>2024-08-14T13:58:41Z</time>
      </trkpt>
      <trkpt lat="44.9932" lon="6.08187">
        <ele>862.4</ele>
        <time>2024-08-14T13:58:42Z</time>
      </trkpt>
      <trkpt lat="44.9932" lon="6.08187">
        <ele>862.4</ele>
        <time>2024-08-14T13:58:43Z</time>
      </trkpt>
      <trkpt lat="44.99322" lon="6.08184">
        <ele>862.4</ele>
        <time>2024-08-14T13:58:44Z</time>
      </trkpt>
      <trkpt lat="44.99322" lon="6.08184">
        <ele>862.4</ele>
        <time>2024-08-14T13:58:45Z</time>
      </trkpt>
      <trkpt lat="44.99323" lon="6.08181">
        <ele>862.4</ele>
        <time>2024-08-14T13:58:46Z</time>
      </trkpt>
      <trkpt lat="44.99323" lon="6.08181">
        <ele>862.4</ele>
        <time>2024-08-14T13:58:47Z</time>
      </trkpt>
      <trkpt lat="44.99325" lon="6.08178">
        <ele>862.4</ele>
        <time>2024-08-14T13:58:48Z</time>
      </trkpt>
      <trkpt lat="44.99325" lon="6.08178">
        <ele>862.6</ele>
        <time>2024-08-14T13:58:49Z</time>
      </trkpt>
      <trkpt lat="44.99327" lon="6.08175">
        <ele>862.6</ele>
        <time>2024-08-14T13:58:50Z</time>
      </trkpt>
      <trkpt lat="44.99327" lon="6.08175">
        <ele>862.6</ele>
        <time>2024-08-14T13:58:51Z</time>
      </trkpt>
      <trkpt lat="44.99328" lon="6.08173">
        <ele>862.6</ele>
        <time>2024-08-14T13:58:52Z</time>
      </trkpt>
      <trkpt lat="44.99328" lon="6.08173">
        <ele>862.6</ele>
        <time>2024-08-14T13:58:53Z</time>
      </trkpt>
      <trkpt lat="44.99329" lon="6.08169">
        <ele>862.4</ele>
        <time>2024-08-14T13:58:54Z</time>
      </trkpt>
      <trkpt lat="44.99329" lon="6.08169">
        <ele>862.4</ele>
        <time>2024-08-14T13:58:55Z</time>
      </trkpt>
      <trkpt lat="44.9933" lon="6.08165">
        <ele>862.4</ele>
        <time>2024-08-14T13:58:56Z</time>
      </trkpt>
      <trkpt lat="44.9933" lon="6.08165">
        <ele>862.4</ele>
        <time>2024-08-14T13:58:57Z</time>
      </trkpt>
      <trkpt lat="44.99331" lon="6.08161">
        <ele>862.4</ele>
        <time>2024-08-14T13:58:58Z</time>
      </trkpt>
      <trkpt lat="44.99331" lon="6.08161">
        <ele>862.4</ele>
        <time>2024-08-14T13:58:59Z</time>
      </trkpt>
      <trkpt lat="44.99333" lon="6.08157">
        <ele>862.2</ele>
        <time>2024-08-14T13:59:00Z</time>
      </trkpt>
      <trkpt lat="44.99333" lon="6.08157">
        <ele>862.2</ele>
        <time>2024-08-14T13:59:01Z</time>
      </trkpt>
      <trkpt lat="44.99333" lon="6.08154">
        <ele>862.4</ele>
        <time>2024-08-14T13:59:02Z</time>
      </trkpt>
      <trkpt lat="44.99333" lon="6.08154">
        <ele>862.4</ele>
        <time>2024-08-14T13:59:03Z</time>
      </trkpt>
      <trkpt lat="44.99334" lon="6.0815">
        <ele>862.4</ele>
        <time>2024-08-14T13:59:04Z</time>
      </trkpt>
      <trkpt lat="44.99334" lon="6.0815">
        <ele>862.4</ele>
        <time>2024-08-14T13:59:05Z</time>
      </trkpt>
      <trkpt lat="44.99335" lon="6.08146">
        <ele>862.4</ele>
        <time>2024-08-14T13:59:06Z</time>
      </trkpt>
      <trkpt lat="44.99335" lon="6.08146">
        <ele>862.4</ele>
        <time>2024-08-14T13:59:07Z</time>
      </trkpt>
      <trkpt lat="44.99337" lon="6.08143">
        <ele>862.4</ele>
        <time>2024-08-14T13:59:08Z</time>
      </trkpt>
      <trkpt lat="44.99337" lon="6.08143">
        <ele>862.4</ele>
        <time>2024-08-14T13:59:09Z</time>
      </trkpt>
      <trkpt lat="44.99337" lon="6.0814">
        <ele>862.4</ele>
        <time>2024-08-14T13:59:10Z</time>
      </trkpt>
      <trkpt lat="44.99337" lon="6.0814">
        <ele>862.4</ele>
        <time>2024-08-14T13:59:11Z</time>
      </trkpt>
      <trkpt lat="44.99338" lon="6.08136">
        <ele>862.6</ele>
        <time>2024-08-14T13:59:12Z</time>
      </trkpt>
      <trkpt lat="44.99338" lon="6.08136">
        <ele>862.8</ele>
        <time>2024-08-14T13:59:13Z</time>
      </trkpt>
      <trkpt lat="44.99339" lon="6.08132">
        <ele>862.8</ele>
        <time>2024-08-14T13:59:14Z</time>
      </trkpt>
      <trkpt lat="44.99339" lon="6.08132">
        <ele>862.8</ele>
        <time>2024-08-14T13:59:15Z</time>
      </trkpt>
      <trkpt lat="44.99341" lon="6.08129">
        <ele>862.6</ele>
        <time>2024-08-14T13:59:16Z</time>
      </trkpt>
      <trkpt lat="44.99341" lon="6.08129">
        <ele>862.6</ele>
        <time>2024-08-14T13:59:17Z</time>
      </trkpt>
      <trkpt lat="44.99343" lon="6.08126">
        <ele>862.6</ele>
        <time>2024-08-14T13:59:18Z</time>
      </trkpt>
      <trkpt lat="44.99343" lon="6.08126">
        <ele>862.6</ele>
        <time>2024-08-14T13:59:19Z</time>
      </trkpt>
      <trkpt lat="44.99345" lon="6.08123">
        <ele>862.8</ele>
        <time>2024-08-14T13:59:20Z</time>
      </trkpt>
      <trkpt lat="44.99345" lon="6.08123">
        <ele>863</ele>
        <time>2024-08-14T13:59:21Z</time>
      </trkpt>
      <trkpt lat="44.99347" lon="6.0812">
        <ele>863</ele>
        <time>2024-08-14T13:59:22Z</time>
      </trkpt>
      <trkpt lat="44.99347" lon="6.0812">
        <ele>863</ele>
        <time>2024-08-14T13:59:23Z</time>
      </trkpt>
      <trkpt lat="44.99349" lon="6.08117">
        <ele>863</ele>
        <time>2024-08-14T13:59:24Z</time>
      </trkpt>
      <trkpt lat="44.99349" lon="6.08117">
        <ele>863.2</ele>
        <time>2024-08-14T13:59:25Z</time>
      </trkpt>
      <trkpt lat="44.99351" lon="6.08114">
        <ele>863.2</ele>
        <time>2024-08-14T13:59:26Z</time>
      </trkpt>
      <trkpt lat="44.99351" lon="6.08114">
        <ele>863.2</ele>
        <time>2024-08-14T13:59:27Z</time>
      </trkpt>
      <trkpt lat="44.99353" lon="6.08111">
        <ele>863.2</ele>
        <time>2024-08-14T13:59:28Z</time>
      </trkpt>
      <trkpt lat="44.99353" lon="6.08111">
        <ele>863.4</ele>
        <time>2024-08-14T13:59:29Z</time>
      </trkpt>
      <trkpt lat="44.99355" lon="6.08109">
        <ele>863.4</ele>
        <time>2024-08-14T13:59:30Z</time>
      </trkpt>
      <trkpt lat="44.99356" lon="6.08107">
        <ele>863.4</ele>
        <time>2024-08-14T13:59:31Z</time>
      </trkpt>
      <trkpt lat="44.99356" lon="6.08107">
        <ele>863.4</ele>
        <time>2024-08-14T13:59:32Z</time>
      </trkpt>
      <trkpt lat="44.99358" lon="6.08104">
        <ele>863.4</ele>
        <time>2024-08-14T13:59:33Z</time>
      </trkpt>
      <trkpt lat="44.99358" lon="6.08104">
        <ele>863.6</ele>
        <time>2024-08-14T13:59:34Z</time>
      </trkpt>
      <trkpt lat="44.9936" lon="6.08101">
        <ele>863.6</ele>
        <time>2024-08-14T13:59:35Z</time>
      </trkpt>
      <trkpt lat="44.9936" lon="6.08101">
        <ele>863.8</ele>
        <time>2024-08-14T13:59:36Z</time>
      </trkpt>
      <trkpt lat="44.99362" lon="6.08097">
        <ele>863.8</ele>
        <time>2024-08-14T13:59:37Z</time>
      </trkpt>
      <trkpt lat="44.99362" lon="6.08097">
        <ele>863.6</ele>
        <time>2024-08-14T13:59:38Z</time>
      </trkpt>
      <trkpt lat="44.99364" lon="6.08094">
        <ele>863.6</ele>
        <time>2024-08-14T13:59:39Z</time>
      </trkpt>
      <trkpt lat="44.99364" lon="6.08094">
        <ele>863.8</ele>
        <time>2024-08-14T13:59:40Z</time>
      </trkpt>
      <trkpt lat="44.99365" lon="6.0809">
        <ele>864</ele>
        <time>2024-08-14T13:59:41Z</time>
      </trkpt>
      <trkpt lat="44.99365" lon="6.0809">
        <ele>864</ele>
        <time>2024-08-14T13:59:42Z</time>
      </trkpt>
      <trkpt lat="44.99368" lon="6.08087">
        <ele>864</ele>
        <time>2024-08-14T13:59:43Z</time>
      </trkpt>
      <trkpt lat="44.99368" lon="6.08087">
        <ele>864</ele>
        <time>2024-08-14T13:59:44Z</time>
      </trkpt>
      <trkpt lat="44.99369" lon="6.08084">
        <ele>864</ele>
        <time>2024-08-14T13:59:45Z</time>
      </trkpt>
      <trkpt lat="44.99369" lon="6.08084">
        <ele>864</ele>
        <time>2024-08-14T13:59:46Z</time>
      </trkpt>
      <trkpt lat="44.99371" lon="6.08082">
        <ele>864</ele>
        <time>2024-08-14T13:59:47Z</time>
      </trkpt>
      <trkpt lat="44.99371" lon="6.08082">
        <ele>864</ele>
        <time>2024-08-14T13:59:48Z</time>
      </trkpt>
      <trkpt lat="44.99374" lon="6.0808">
        <ele>864</ele>
        <time>2024-08-14T13:59:49Z</time>
      </trkpt>
      <trkpt lat="44.99374" lon="6.0808">
        <ele>864</ele>
        <time>2024-08-14T13:59:50Z</time>
      </trkpt>
      <trkpt lat="44.99376" lon="6.08078">
        <ele>864</ele>
        <time>2024-08-14T13:59:51Z</time>
      </trkpt>
      <trkpt lat="44.99376" lon="6.08078">
        <ele>864</ele>
        <time>2024-08-14T13:59:52Z</time>
      </trkpt>
      <trkpt lat="44.99378" lon="6.08074">
        <ele>864.2</ele>
        <time>2024-08-14T13:59:53Z</time>
      </trkpt>
      <trkpt lat="44.99378" lon="6.08074">
        <ele>864.4</ele>
        <time>2024-08-14T13:59:54Z</time>
      </trkpt>
      <trkpt lat="44.9938" lon="6.08071">
        <ele>864.4</ele>
        <time>2024-08-14T13:59:55Z</time>
      </trkpt>
      <trkpt lat="44.9938" lon="6.08071">
        <ele>864.4</ele>
        <time>2024-08-14T13:59:56Z</time>
      </trkpt>
      <trkpt lat="44.99382" lon="6.08069">
        <ele>864.6</ele>
        <time>2024-08-14T13:59:57Z</time>
      </trkpt>
      <trkpt lat="44.99382" lon="6.08069">
        <ele>864.8</ele>
        <time>2024-08-14T13:59:58Z</time>
      </trkpt>
      <trkpt lat="44.99384" lon="6.08066">
        <ele>864.8</ele>
        <time>2024-08-14T13:59:59Z</time>
      </trkpt>
      <trkpt lat="44.99384" lon="6.08066">
        <ele>864.8</ele>
        <time>2024-08-14T14:00:00Z</time>
      </trkpt>
      <trkpt lat="44.99386" lon="6.08063">
        <ele>864.6</ele>
        <time>2024-08-14T14:00:01Z</time>
      </trkpt>
      <trkpt lat="44.99386" lon="6.08063">
        <ele>864.8</ele>
        <time>2024-08-14T14:00:02Z</time>
      </trkpt>
      <trkpt lat="44.99388" lon="6.0806">
        <ele>865</ele>
        <time>2024-08-14T14:00:03Z</time>
      </trkpt>
      <trkpt lat="44.99388" lon="6.0806">
        <ele>865</ele>
        <time>2024-08-14T14:00:04Z</time>
      </trkpt>
      <trkpt lat="44.9939" lon="6.08058">
        <ele>865</ele>
        <time>2024-08-14T14:00:05Z</time>
      </trkpt>
      <trkpt lat="44.9939" lon="6.08058">
        <ele>865</ele>
        <time>2024-08-14T14:00:06Z</time>
      </trkpt>
      <trkpt lat="44.99392" lon="6.08056">
        <ele>865.2</ele>
        <time>2024-08-14T14:00:07Z</time>
      </trkpt>
      <trkpt lat="44.99392" lon="6.08056">
        <ele>865.2</ele>
        <time>2024-08-14T14:00:08Z</time>
      </trkpt>
      <trkpt lat="44.99393" lon="6.08054">
        <ele>865.2</ele>
        <time>2024-08-14T14:00:09Z</time>
      </trkpt>
      <trkpt lat="44.99393" lon="6.08054">
        <ele>865.2</ele>
        <time>2024-08-14T14:00:10Z</time>
      </trkpt>
      <trkpt lat="44.99395" lon="6.08051">
        <ele>865.4</ele>
        <time>2024-08-14T14:00:11Z</time>
      </trkpt>
      <trkpt lat="44.99395" lon="6.08051">
        <ele>865.6</ele>
        <time>2024-08-14T14:00:12Z</time>
      </trkpt>
      <trkpt lat="44.99397" lon="6.08049">
        <ele>865.6</ele>
        <time>2024-08-14T14:00:13Z</time>
      </trkpt>
      <trkpt lat="44.99397" lon="6.08049">
        <ele>865.6</ele>
        <time>2024-08-14T14:00:14Z</time>
      </trkpt>
      <trkpt lat="44.99398" lon="6.08045">
        <ele>865.4</ele>
        <time>2024-08-14T14:00:15Z</time>
      </trkpt>
      <trkpt lat="44.994" lon="6.08044">
        <ele>865.4</ele>
        <time>2024-08-14T14:00:16Z</time>
      </trkpt>
      <trkpt lat="44.994" lon="6.08044">
        <ele>865.6</ele>
        <time>2024-08-14T14:00:17Z</time>
      </trkpt>
      <trkpt lat="44.99402" lon="6.08041">
        <ele>865.6</ele>
        <time>2024-08-14T14:00:18Z</time>
      </trkpt>
      <trkpt lat="44.99403" lon="6.08039">
        <ele>865.8</ele>
        <time>2024-08-14T14:00:19Z</time>
      </trkpt>
      <trkpt lat="44.99403" lon="6.08039">
        <ele>865.8</ele>
        <time>2024-08-14T14:00:20Z</time>
      </trkpt>
      <trkpt lat="44.99405" lon="6.08035">
        <ele>865.8</ele>
        <time>2024-08-14T14:00:21Z</time>
      </trkpt>
      <trkpt lat="44.99405" lon="6.08035">
        <ele>865.8</ele>
        <time>2024-08-14T14:00:22Z</time>
      </trkpt>
      <trkpt lat="44.99407" lon="6.08033">
        <ele>865.8</ele>
        <time>2024-08-14T14:00:23Z</time>
      </trkpt>
      <trkpt lat="44.99407" lon="6.08033">
        <ele>865.8</ele>
        <time>2024-08-14T14:00:24Z</time>
      </trkpt>
      <trkpt lat="44.99409" lon="6.08029">
        <ele>866</ele>
        <time>2024-08-14T14:00:25Z</time>
      </trkpt>
      <trkpt lat="44.99409" lon="6.08029">
        <ele>866</ele>
        <time>2024-08-14T14:00:26Z</time>
      </trkpt>
      <trkpt lat="44.99411" lon="6.08027">
        <ele>866</ele>
        <time>2024-08-14T14:00:27Z</time>
      </trkpt>
      <trkpt lat="44.99411" lon="6.08027">
        <ele>866</ele>
        <time>2024-08-14T14:00:28Z</time>
      </trkpt>
      <trkpt lat="44.99413" lon="6.08024">
        <ele>866</ele>
        <time>2024-08-14T14:00:29Z</time>
      </trkpt>
      <trkpt lat="44.99413" lon="6.08024">
        <ele>866.4</ele>
        <time>2024-08-14T14:00:30Z</time>
      </trkpt>
      <trkpt lat="44.99415" lon="6.08021">
        <ele>866.4</ele>
        <time>2024-08-14T14:00:31Z</time>
      </trkpt>
      <trkpt lat="44.99415" lon="6.08021">
        <ele>866.4</ele>
        <time>2024-08-14T14:00:32Z</time>
      </trkpt>
      <trkpt lat="44.99417" lon="6.08018">
        <ele>866.4</ele>
        <time>2024-08-14T14:00:33Z</time>
      </trkpt>
      <trkpt lat="44.99417" lon="6.08018">
        <ele>866.6</ele>
        <time>2024-08-14T14:00:34Z</time>
      </trkpt>
      <trkpt lat="44.99419" lon="6.08015">
        <ele>866.6</ele>
        <time>2024-08-14T14:00:35Z</time>
      </trkpt>
      <trkpt lat="44.99419" lon="6.08015">
        <ele>866.6</ele>
        <time>2024-08-14T14:00:36Z</time>
      </trkpt>
      <trkpt lat="44.9942" lon="6.08012">
        <ele>866.6</ele>
        <time>2024-08-14T14:00:37Z</time>
      </trkpt>
      <trkpt lat="44.9942" lon="6.08012">
        <ele>866.6</ele>
        <time>2024-08-14T14:00:38Z</time>
      </trkpt>
      <trkpt lat="44.99422" lon="6.08011">
        <ele>866.6</ele>
        <time>2024-08-14T14:00:39Z</time>
      </trkpt>
      <trkpt lat="44.99422" lon="6.08011">
        <ele>866.6</ele>
        <time>2024-08-14T14:00:40Z</time>
      </trkpt>
      <trkpt lat="44.99424" lon="6.08008">
        <ele>866.8</ele>
        <time>2024-08-14T14:00:41Z</time>
      </trkpt>
      <trkpt lat="44.99424" lon="6.08008">
        <ele>866.8</ele>
        <time>2024-08-14T14:00:42Z</time>
      </trkpt>
      <trkpt lat="44.99425" lon="6.08004">
        <ele>866.8</ele>
        <time>2024-08-14T14:00:43Z</time>
      </trkpt>
      <trkpt lat="44.99425" lon="6.08004">
        <ele>867</ele>
        <time>2024-08-14T14:00:44Z</time>
      </trkpt>
      <trkpt lat="44.99426" lon="6.08001">
        <ele>867.2</ele>
        <time>2024-08-14T14:00:45Z</time>
      </trkpt>
      <trkpt lat="44.99426" lon="6.08001">
        <ele>867.2</ele>
        <time>2024-08-14T14:00:46Z</time>
      </trkpt>
      <trkpt lat="44.99428" lon="6.07999">
        <ele>867.2</ele>
        <time>2024-08-14T14:00:47Z</time>
      </trkpt>
      <trkpt lat="44.99429" lon="6.07997">
        <ele>867</ele>
        <time>2024-08-14T14:00:48Z</time>
      </trkpt>
      <trkpt lat="44.99429" lon="6.07997">
        <ele>867</ele>
        <time>2024-08-14T14:00:49Z</time>
      </trkpt>
      <trkpt lat="44.99431" lon="6.07994">
        <ele>867</ele>
        <time>2024-08-14T14:00:50Z</time>
      </trkpt>
      <trkpt lat="44.99431" lon="6.07994">
        <ele>867.4</ele>
        <time>2024-08-14T14:00:51Z</time>
      </trkpt>
      <trkpt lat="44.99432" lon="6.07991">
        <ele>867.4</ele>
        <time>2024-08-14T14:00:52Z</time>
      </trkpt>
      <trkpt lat="44.99432" lon="6.07991">
        <ele>867.4</ele>
        <time>2024-08-14T14:00:53Z</time>
      </trkpt>
      <trkpt lat="44.99434" lon="6.07988">
        <ele>867.4</ele>
        <time>2024-08-14T14:00:54Z</time>
      </trkpt>
      <trkpt lat="44.99434" lon="6.07988">
        <ele>867.4</ele>
        <time>2024-08-14T14:00:55Z</time>
      </trkpt>
      <trkpt lat="44.99436" lon="6.07985">
        <ele>867.6</ele>
        <time>2024-08-14T14:00:56Z</time>
      </trkpt>
      <trkpt lat="44.99436" lon="6.07985">
        <ele>867.6</ele>
        <time>2024-08-14T14:00:57Z</time>
      </trkpt>
      <trkpt lat="44.99438" lon="6.07982">
        <ele>867.8</ele>
        <time>2024-08-14T14:00:58Z</time>
      </trkpt>
      <trkpt lat="44.99438" lon="6.07982">
        <ele>867.8</ele>
        <time>2024-08-14T14:00:59Z</time>
      </trkpt>
      <trkpt lat="44.9944" lon="6.07979">
        <ele>867.8</ele>
        <time>2024-08-14T14:01:00Z</time>
      </trkpt>
      <trkpt lat="44.9944" lon="6.07979">
        <ele>867.8</ele>
        <time>2024-08-14T14:01:01Z</time>
      </trkpt>
      <trkpt lat="44.99442" lon="6.07976">
        <ele>867.8</ele>
        <time>2024-08-14T14:01:02Z</time>
      </trkpt>
      <trkpt lat="44.99442" lon="6.07976">
        <ele>867.8</ele>
        <time>2024-08-14T14:01:03Z</time>
      </trkpt>
      <trkpt lat="44.99445" lon="6.07973">
        <ele>868</ele>
        <time>2024-08-14T14:01:04Z</time>
      </trkpt>
      <trkpt lat="44.99445" lon="6.07973">
        <ele>868</ele>
        <time>2024-08-14T14:01:05Z</time>
      </trkpt>
      <trkpt lat="44.99446" lon="6.07971">
        <ele>868</ele>
        <time>2024-08-14T14:01:06Z</time>
      </trkpt>
      <trkpt lat="44.99446" lon="6.07971">
        <ele>868</ele>
        <time>2024-08-14T14:01:07Z</time>
      </trkpt>
      <trkpt lat="44.99448" lon="6.07968">
        <ele>868</ele>
        <time>2024-08-14T14:01:08Z</time>
      </trkpt>
      <trkpt lat="44.99448" lon="6.07968">
        <ele>868</ele>
        <time>2024-08-14T14:01:09Z</time>
      </trkpt>
      <trkpt lat="44.99451" lon="6.07966">
        <ele>868</ele>
        <time>2024-08-14T14:01:10Z</time>
      </trkpt>
      <trkpt lat="44.99451" lon="6.07966">
        <ele>868</ele>
        <time>2024-08-14T14:01:11Z</time>
      </trkpt>
      <trkpt lat="44.99453" lon="6.07963">
        <ele>868.2</ele>
        <time>2024-08-14T14:01:12Z</time>
      </trkpt>
      <trkpt lat="44.99453" lon="6.07963">
        <ele>868.4</ele>
        <time>2024-08-14T14:01:13Z</time>
      </trkpt>
      <trkpt lat="44.99455" lon="6.07961">
        <ele>868.4</ele>
        <time>2024-08-14T14:01:14Z</time>
      </trkpt>
      <trkpt lat="44.99456" lon="6.0796">
        <ele>868.4</ele>
        <time>2024-08-14T14:01:15Z</time>
      </trkpt>
      <trkpt lat="44.99456" lon="6.0796">
        <ele>868.4</ele>
        <time>2024-08-14T14:01:16Z</time>
      </trkpt>
      <trkpt lat="44.99459" lon="6.07957">
        <ele>868.6</ele>
        <time>2024-08-14T14:01:17Z</time>
      </trkpt>
      <trkpt lat="44.99459" lon="6.07957">
        <ele>868.6</ele>
        <time>2024-08-14T14:01:18Z</time>
      </trkpt>
      <trkpt lat="44.99461" lon="6.07954">
        <ele>868.6</ele>
        <time>2024-08-14T14:01:19Z</time>
      </trkpt>
      <trkpt lat="44.99461" lon="6.07954">
        <ele>868.4</ele>
        <time>2024-08-14T14:01:20Z</time>
      </trkpt>
      <trkpt lat="44.99462" lon="6.07951">
        <ele>868.4</ele>
        <time>2024-08-14T14:01:21Z</time>
      </trkpt>
      <trkpt lat="44.99462" lon="6.07951">
        <ele>868.6</ele>
        <time>2024-08-14T14:01:22Z</time>
      </trkpt>
      <trkpt lat="44.99465" lon="6.07949">
        <ele>868.8</ele>
        <time>2024-08-14T14:01:23Z</time>
      </trkpt>
      <trkpt lat="44.99465" lon="6.07949">
        <ele>868.8</ele>
        <time>2024-08-14T14:01:24Z</time>
      </trkpt>
      <trkpt lat="44.99467" lon="6.07948">
        <ele>868.8</ele>
        <time>2024-08-14T14:01:25Z</time>
      </trkpt>
      <trkpt lat="44.99467" lon="6.07948">
        <ele>868.8</ele>
        <time>2024-08-14T14:01:26Z</time>
      </trkpt>
      <trkpt lat="44.9947" lon="6.07946">
        <ele>869</ele>
        <time>2024-08-14T14:01:27Z</time>
      </trkpt>
      <trkpt lat="44.9947" lon="6.07946">
        <ele>869</ele>
        <time>2024-08-14T14:01:28Z</time>
      </trkpt>
      <trkpt lat="44.99472" lon="6.07943">
        <ele>869.2</ele>
        <time>2024-08-14T14:01:29Z</time>
      </trkpt>
      <trkpt lat="44.99473" lon="6.07942">
        <ele>869.2</ele>
        <time>2024-08-14T14:01:30Z</time>
      </trkpt>
      <trkpt lat="44.99473" lon="6.07942">
        <ele>869.2</ele>
        <time>2024-08-14T14:01:31Z</time>
      </trkpt>
      <trkpt lat="44.99476" lon="6.0794">
        <ele>869.2</ele>
        <time>2024-08-14T14:01:32Z</time>
      </trkpt>
      <trkpt lat="44.99476" lon="6.0794">
        <ele>869.2</ele>
        <time>2024-08-14T14:01:33Z</time>
      </trkpt>
      <trkpt lat="44.99476" lon="6.0794">
        <ele>869.2</ele>
        <time>2024-08-14T14:01:34Z</time>
      </trkpt>
      <trkpt lat="44.9948" lon="6.07938">
        <ele>869.2</ele>
        <time>2024-08-14T14:01:35Z</time>
      </trkpt>
      <trkpt lat="44.9948" lon="6.07936">
        <ele>869.4</ele>
        <time>2024-08-14T14:01:36Z</time>
      </trkpt>
      <trkpt lat="44.9948" lon="6.07936">
        <ele>869.4</ele>
        <time>2024-08-14T14:01:37Z</time>
      </trkpt>
      <trkpt lat="44.99482" lon="6.07933">
        <ele>869.6</ele>
        <time>2024-08-14T14:01:38Z</time>
      </trkpt>
      <trkpt lat="44.99484" lon="6.0793">
        <ele>869.6</ele>
        <time>2024-08-14T14:01:39Z</time>
      </trkpt>
      <trkpt lat="44.99484" lon="6.0793">
        <ele>869.6</ele>
        <time>2024-08-14T14:01:40Z</time>
      </trkpt>
      <trkpt lat="44.99485" lon="6.07928">
        <ele>869.6</ele>
        <time>2024-08-14T14:01:41Z</time>
      </trkpt>
      <trkpt lat="44.99485" lon="6.07928">
        <ele>869.6</ele>
        <time>2024-08-14T14:01:42Z</time>
      </trkpt>
      <trkpt lat="44.99485" lon="6.07928">
        <ele>869.8</ele>
        <time>2024-08-14T14:01:43Z</time>
      </trkpt>
      <trkpt lat="44.99485" lon="6.07928">
        <ele>869.8</ele>
        <time>2024-08-14T14:01:44Z</time>
      </trkpt>
      <trkpt lat="44.99487" lon="6.07924">
        <ele>869.8</ele>
        <time>2024-08-14T14:01:45Z</time>
      </trkpt>
      <trkpt lat="44.99488" lon="6.07923">
        <ele>869.8</ele>
        <time>2024-08-14T14:01:46Z</time>
      </trkpt>
      <trkpt lat="44.99488" lon="6.07923">
        <ele>869.8</ele>
        <time>2024-08-14T14:01:47Z</time>
      </trkpt>
      <trkpt lat="44.9949" lon="6.07923">
        <ele>869.8</ele>
        <time>2024-08-14T14:01:48Z</time>
      </trkpt>
      <trkpt lat="44.9949" lon="6.07923">
        <ele>869.8</ele>
        <time>2024-08-14T14:01:49Z</time>
      </trkpt>
      <trkpt lat="44.9949" lon="6.07923">
        <ele>869.6</ele>
        <time>2024-08-14T14:01:50Z</time>
      </trkpt>
      <trkpt lat="44.9949" lon="6.07923">
        <ele>869.6</ele>
        <time>2024-08-14T14:01:51Z</time>
      </trkpt>
      <trkpt lat="44.9949" lon="6.07923">
        <ele>869.6</ele>
        <time>2024-08-14T14:01:52Z</time>
      </trkpt>
      <trkpt lat="44.9949" lon="6.07923">
        <ele>869.6</ele>
        <time>2024-08-14T14:01:53Z</time>
      </trkpt>
      <trkpt lat="44.99492" lon="6.07922">
        <ele>869.6</ele>
        <time>2024-08-14T14:01:54Z</time>
      </trkpt>
      <trkpt lat="44.99492" lon="6.07922">
        <ele>869.6</ele>
        <time>2024-08-14T14:01:55Z</time>
      </trkpt>
      <trkpt lat="44.99492" lon="6.07922">
        <ele>869.8</ele>
        <time>2024-08-14T14:01:56Z</time>
      </trkpt>
      <trkpt lat="44.99492" lon="6.07922">
        <ele>870</ele>
        <time>2024-08-14T14:01:57Z</time>
      </trkpt>
      <trkpt lat="44.99492" lon="6.07922">
        <ele>870.4</ele>
        <time>2024-08-14T14:01:58Z</time>
      </trkpt>
      <trkpt lat="44.99492" lon="6.07922">
        <ele>870.4</ele>
        <time>2024-08-14T14:01:59Z</time>
      </trkpt>
      <trkpt lat="44.99494" lon="6.07923">
        <ele>870.2</ele>
        <time>2024-08-14T14:02:00Z</time>
      </trkpt>
      <trkpt lat="44.99494" lon="6.07923">
        <ele>870.2</ele>
        <time>2024-08-14T14:02:01Z</time>
      </trkpt>
      <trkpt lat="44.99496" lon="6.07923">
        <ele>870.4</ele>
        <time>2024-08-14T14:02:02Z</time>
      </trkpt>
      <trkpt lat="44.99496" lon="6.07923">
        <ele>870.4</ele>
        <time>2024-08-14T14:02:03Z</time>
      </trkpt>
      <trkpt lat="44.99496" lon="6.07923">
        <ele>870.4</ele>
        <time>2024-08-14T14:02:04Z</time>
      </trkpt>
      <trkpt lat="44.99496" lon="6.07923">
        <ele>870.4</ele>
        <time>2024-08-14T14:02:05Z</time>
      </trkpt>
      <trkpt lat="44.99498" lon="6.07925">
        <ele>869.8</ele>
        <time>2024-08-14T14:02:06Z</time>
      </trkpt>
      <trkpt lat="44.99498" lon="6.07925">
        <ele>869.8</ele>
        <time>2024-08-14T14:02:07Z</time>
      </trkpt>
      <trkpt lat="44.99498" lon="6.07925">
        <ele>869.8</ele>
        <time>2024-08-14T14:02:08Z</time>
      </trkpt>
      <trkpt lat="44.99498" lon="6.07925">
        <ele>869.8</ele>
        <time>2024-08-14T14:02:09Z</time>
      </trkpt>
      <trkpt lat="44.99498" lon="6.07925">
        <ele>869.8</ele>
        <time>2024-08-14T14:02:10Z</time>
      </trkpt>
      <trkpt lat="44.99498" lon="6.07925">
        <ele>870</ele>
        <time>2024-08-14T14:02:11Z</time>
      </trkpt>
      <trkpt lat="44.99498" lon="6.07925">
        <ele>870</ele>
        <time>2024-08-14T14:02:12Z</time>
      </trkpt>
      <trkpt lat="44.99498" lon="6.07925">
        <ele>870</ele>
        <time>2024-08-14T14:02:13Z</time>
      </trkpt>
      <trkpt lat="44.99498" lon="6.07925">
        <ele>869.8</ele>
        <time>2024-08-14T14:02:14Z</time>
      </trkpt>
      <trkpt lat="44.99498" lon="6.07925">
        <ele>869.6</ele>
        <time>2024-08-14T14:02:15Z</time>
      </trkpt>
      <trkpt lat="44.99498" lon="6.07925">
        <ele>869.6</ele>
        <time>2024-08-14T14:02:16Z</time>
      </trkpt>
      <trkpt lat="44.99498" lon="6.07925">
        <ele>869.6</ele>
        <time>2024-08-14T14:02:17Z</time>
      </trkpt>
      <trkpt lat="44.99498" lon="6.07925">
        <ele>869.8</ele>
        <time>2024-08-14T14:02:18Z</time>
      </trkpt>
      <trkpt lat="44.99498" lon="6.07925">
        <ele>869.8</ele>
        <time>2024-08-14T14:02:19Z</time>
      </trkpt>
      <trkpt lat="44.99498" lon="6.07925">
        <ele>869.8</ele>
        <time>2024-08-14T14:02:20Z</time>
      </trkpt>
      <trkpt lat="44.99498" lon="6.07925">
        <ele>870</ele>
        <time>2024-08-14T14:02:21Z</time>
      </trkpt>
      <trkpt lat="44.99498" lon="6.07925">
        <ele>870</ele>
        <time>2024-08-14T14:02:22Z</time>
      </trkpt>
      <trkpt lat="44.99498" lon="6.07925">
        <ele>870</ele>
        <time>2024-08-14T14:02:23Z</time>
      </trkpt>
      <trkpt lat="44.99498" lon="6.07925">
        <ele>870</ele>
        <time>2024-08-14T14:02:24Z</time>
      </trkpt>
      <trkpt lat="44.99498" lon="6.07925">
        <ele>870</ele>
        <time>2024-08-14T14:02:25Z</time>
      </trkpt>
      <trkpt lat="44.99498" lon="6.07925">
        <ele>870</ele>
        <time>2024-08-14T14:02:26Z</time>
      </trkpt>
      <trkpt lat="44.99498" lon="6.07925">
        <ele>869.8</ele>
        <time>2024-08-14T14:02:27Z</time>
      </trkpt>
      <trkpt lat="44.99498" lon="6.07925">
        <ele>869.8</ele>
        <time>2024-08-14T14:02:28Z</time>
      </trkpt>
      <trkpt lat="44.99498" lon="6.07925">
        <ele>869.6</ele>
        <time>2024-08-14T14:02:29Z</time>
      </trkpt>
      <trkpt lat="44.99498" lon="6.07925">
        <ele>869.6</ele>
        <time>2024-08-14T14:02:30Z</time>
      </trkpt>
      <trkpt lat="44.99498" lon="6.07925">
        <ele>869.6</ele>
        <time>2024-08-14T14:02:31Z</time>
      </trkpt>
      <trkpt lat="44.99498" lon="6.07925">
        <ele>869.6</ele>
        <time>2024-08-14T14:02:32Z</time>
      </trkpt>
      <trkpt lat="44.99498" lon="6.07925">
        <ele>869.4</ele>
        <time>2024-08-14T14:02:33Z</time>
      </trkpt>
      <trkpt lat="44.99498" lon="6.07925">
        <ele>869.4</ele>
        <time>2024-08-14T14:02:34Z</time>
      </trkpt>
      <trkpt lat="44.99498" lon="6.07925">
        <ele>869.4</ele>
        <time>2024-08-14T14:02:35Z</time>
      </trkpt>
      <trkpt lat="44.99498" lon="6.07925">
        <ele>869.4</ele>
        <time>2024-08-14T14:02:36Z</time>
      </trkpt>
      <trkpt lat="44.99498" lon="6.07925">
        <ele>869.4</ele>
        <time>2024-08-14T14:02:37Z</time>
      </trkpt>
      <trkpt lat="44.99498" lon="6.07925">
        <ele>869.4</ele>
        <time>2024-08-14T14:02:38Z</time>
      </trkpt>
      <trkpt lat="44.99498" lon="6.07925">
        <ele>869.4</ele>
        <time>2024-08-14T14:02:39Z</time>
      </trkpt>
      <trkpt lat="44.99498" lon="6.07925">
        <ele>869.4</ele>
        <time>2024-08-14T14:02:40Z</time>
      </trkpt>
      <trkpt lat="44.99498" lon="6.07925">
        <ele>869.4</ele>
        <time>2024-08-14T14:02:41Z</time>
      </trkpt>
      <trkpt lat="44.99498" lon="6.07925">
        <ele>869.4</ele>
        <time>2024-08-14T14:02:42Z</time>
      </trkpt>
      <trkpt lat="44.99498" lon="6.07925">
        <ele>869.2</ele>
        <time>2024-08-14T14:02:43Z</time>
      </trkpt>
      <trkpt lat="44.99498" lon="6.07925">
        <ele>869.2</ele>
        <time>2024-08-14T14:02:44Z</time>
      </trkpt>
      <trkpt lat="44.99498" lon="6.07925">
        <ele>869.4</ele>
        <time>2024-08-14T14:02:45Z</time>
      </trkpt>
      <trkpt lat="44.99498" lon="6.07925">
        <ele>869.4</ele>
        <time>2024-08-14T14:02:46Z</time>
      </trkpt>
      <trkpt lat="44.99498" lon="6.07925">
        <ele>869</ele>
        <time>2024-08-14T14:02:47Z</time>
      </trkpt>
      <trkpt lat="44.99498" lon="6.07925">
        <ele>869</ele>
        <time>2024-08-14T14:02:48Z</time>
      </trkpt>
      <trkpt lat="44.99498" lon="6.07925">
        <ele>869.2</ele>
        <time>2024-08-14T14:02:49Z</time>
      </trkpt>
      <trkpt lat="44.99498" lon="6.07925">
        <ele>869.2</ele>
        <time>2024-08-14T14:02:50Z</time>
      </trkpt>
      <trkpt lat="44.99498" lon="6.07925">
        <ele>869.2</ele>
        <time>2024-08-14T14:02:51Z</time>
      </trkpt>
      <trkpt lat="44.99498" lon="6.07925">
        <ele>869.2</ele>
        <time>2024-08-14T14:02:52Z</time>
      </trkpt>
      <trkpt lat="44.99498" lon="6.07925">
        <ele>869.2</ele>
        <time>2024-08-14T14:02:53Z</time>
      </trkpt>
      <trkpt lat="44.99498" lon="6.07925">
        <ele>869.2</ele>
        <time>2024-08-14T14:02:54Z</time>
      </trkpt>
      <trkpt lat="44.99498" lon="6.07925">
        <ele>869.4</ele>
        <time>2024-08-14T14:02:55Z</time>
      </trkpt>
      <trkpt lat="44.99498" lon="6.07925">
        <ele>869.4</ele>
        <time>2024-08-14T14:02:56Z</time>
      </trkpt>
      <trkpt lat="44.99498" lon="6.07925">
        <ele>869.4</ele>
        <time>2024-08-14T14:02:57Z</time>
      </trkpt>
      <trkpt lat="44.99498" lon="6.07925">
        <ele>869.4</ele>
        <time>2024-08-14T14:02:58Z</time>
      </trkpt>
      <trkpt lat="44.99498" lon="6.07925">
        <ele>869.4</ele>
        <time>2024-08-14T14:02:59Z</time>
      </trkpt>
      <trkpt lat="44.99498" lon="6.07925">
        <ele>869.4</ele>
        <time>2024-08-14T14:03:00Z</time>
      </trkpt>
      <trkpt lat="44.99498" lon="6.07925">
        <ele>869.4</ele>
        <time>2024-08-14T14:03:01Z</time>
      </trkpt>
      <trkpt lat="44.99498" lon="6.07925">
        <ele>869.6</ele>
        <time>2024-08-14T14:03:02Z</time>
      </trkpt>
      <trkpt lat="44.99498" lon="6.07925">
        <ele>869.6</ele>
        <time>2024-08-14T14:03:03Z</time>
      </trkpt>
      <trkpt lat="44.99498" lon="6.07925">
        <ele>869.4</ele>
        <time>2024-08-14T14:03:04Z</time>
      </trkpt>
      <trkpt lat="44.99498" lon="6.07925">
        <ele>869.4</ele>
        <time>2024-08-14T14:03:05Z</time>
      </trkpt>
      <trkpt lat="44.99498" lon="6.07925">
        <ele>869.4</ele>
        <time>2024-08-14T14:03:06Z</time>
      </trkpt>
      <trkpt lat="44.99498" lon="6.07925">
        <ele>869.4</ele>
        <time>2024-08-14T14:03:07Z</time>
      </trkpt>
      <trkpt lat="44.99498" lon="6.07925">
        <ele>869.4</ele>
        <time>2024-08-14T14:03:08Z</time>
      </trkpt>
      <trkpt lat="44.99498" lon="6.07925">
        <ele>869.4</ele>
        <time>2024-08-14T14:03:09Z</time>
      </trkpt>
      <trkpt lat="44.99498" lon="6.07925">
        <ele>869.4</ele>
        <time>2024-08-14T14:03:10Z</time>
      </trkpt>
      <trkpt lat="44.99498" lon="6.07925">
        <ele>869.2</ele>
        <time>2024-08-14T14:03:11Z</time>
      </trkpt>
      <trkpt lat="44.99498" lon="6.07925">
        <ele>869.2</ele>
        <time>2024-08-14T14:03:12Z</time>
      </trkpt>
      <trkpt lat="44.99498" lon="6.07925">
        <ele>869.2</ele>
        <time>2024-08-14T14:03:13Z</time>
      </trkpt>
      <trkpt lat="44.99498" lon="6.07925">
        <ele>869.2</ele>
        <time>2024-08-14T14:03:14Z</time>
      </trkpt>
      <trkpt lat="44.99498" lon="6.07925">
        <ele>869.2</ele>
        <time>2024-08-14T14:03:15Z</time>
      </trkpt>
      <trkpt lat="44.99498" lon="6.07925">
        <ele>869.2</ele>
        <time>2024-08-14T14:03:16Z</time>
      </trkpt>
      <trkpt lat="44.99498" lon="6.07925">
        <ele>869.2</ele>
        <time>2024-08-14T14:03:17Z</time>
      </trkpt>
      <trkpt lat="44.99498" lon="6.07925">
        <ele>869.4</ele>
        <time>2024-08-14T14:03:18Z</time>
      </trkpt>
      <trkpt lat="44.99498" lon="6.07925">
        <ele>869.4</ele>
        <time>2024-08-14T14:03:19Z</time>
      </trkpt>
      <trkpt lat="44.99498" lon="6.07925">
        <ele>869.4</ele>
        <time>2024-08-14T14:03:20Z</time>
      </trkpt>
      <trkpt lat="44.99498" lon="6.07925">
        <ele>869.2</ele>
        <time>2024-08-14T14:03:21Z</time>
      </trkpt>
      <trkpt lat="44.99498" lon="6.07925">
        <ele>869.4</ele>
        <time>2024-08-14T14:03:22Z</time>
      </trkpt>
      <trkpt lat="44.99498" lon="6.07925">
        <ele>869.4</ele>
        <time>2024-08-14T14:03:23Z</time>
      </trkpt>
      <trkpt lat="44.99498" lon="6.07925">
        <ele>869.4</ele>
        <time>2024-08-14T14:03:24Z</time>
      </trkpt>
      <trkpt lat="44.99498" lon="6.07925">
        <ele>869.4</ele>
        <time>2024-08-14T14:03:25Z</time>
      </trkpt>
      <trkpt lat="44.99498" lon="6.07925">
        <ele>869.4</ele>
        <time>2024-08-14T14:03:26Z</time>
      </trkpt>
      <trkpt lat="44.99498" lon="6.07925">
        <ele>869.4</ele>
        <time>2024-08-14T14:03:27Z</time>
      </trkpt>
      <trkpt lat="44.99498" lon="6.07925">
        <ele>869.4</ele>
        <time>2024-08-14T14:03:28Z</time>
      </trkpt>
      <trkpt lat="44.99498" lon="6.07925">
        <ele>869.2</ele>
        <time>2024-08-14T14:03:29Z</time>
      </trkpt>
      <trkpt lat="44.99498" lon="6.07925">
        <ele>869.2</ele>
        <time>2024-08-14T14:03:30Z</time>
      </trkpt>
      <trkpt lat="44.99498" lon="6.07925">
        <ele>869.2</ele>
        <time>2024-08-14T14:03:31Z</time>
      </trkpt>
      <trkpt lat="44.99498" lon="6.07925">
        <ele>869.2</ele>
        <time>2024-08-14T14:03:32Z</time>
      </trkpt>
      <trkpt lat="44.99498" lon="6.07925">
        <ele>869.2</ele>
        <time>2024-08-14T14:03:33Z</time>
      </trkpt>
      <trkpt lat="44.99498" lon="6.07925">
        <ele>869.2</ele>
        <time>2024-08-14T14:03:34Z</time>
      </trkpt>
      <trkpt lat="44.99498" lon="6.07925">
        <ele>869.4</ele>
        <time>2024-08-14T14:03:35Z</time>
      </trkpt>
      <trkpt lat="44.99498" lon="6.07925">
        <ele>869.4</ele>
        <time>2024-08-14T14:03:36Z</time>
      </trkpt>
      <trkpt lat="44.99498" lon="6.07925">
        <ele>869.4</ele>
        <time>2024-08-14T14:03:37Z</time>
      </trkpt>
      <trkpt lat="44.99498" lon="6.07925">
        <ele>869.4</ele>
        <time>2024-08-14T14:03:38Z</time>
      </trkpt>
      <trkpt lat="44.99498" lon="6.07925">
        <ele>869.2</ele>
        <time>2024-08-14T14:03:39Z</time>
      </trkpt>
      <trkpt lat="44.99498" lon="6.07925">
        <ele>869.2</ele>
        <time>2024-08-14T14:03:40Z</time>
      </trkpt>
      <trkpt lat="44.99498" lon="6.07925">
        <ele>869.4</ele>
        <time>2024-08-14T14:03:41Z</time>
      </trkpt>
      <trkpt lat="44.99498" lon="6.07925">
        <ele>869.4</ele>
        <time>2024-08-14T14:03:42Z</time>
      </trkpt>
      <trkpt lat="44.99498" lon="6.07925">
        <ele>869.4</ele>
        <time>2024-08-14T14:03:43Z</time>
      </trkpt>
      <trkpt lat="44.99498" lon="6.07925">
        <ele>869.4</ele>
        <time>2024-08-14T14:03:44Z</time>
      </trkpt>
      <trkpt lat="44.99498" lon="6.07925">
        <ele>869.4</ele>
        <time>2024-08-14T14:03:45Z</time>
      </trkpt>
      <trkpt lat="44.99498" lon="6.07925">
        <ele>869.4</ele>
        <time>2024-08-14T14:03:46Z</time>
      </trkpt>
      <trkpt lat="44.99498" lon="6.07925">
        <ele>869.4</ele>
        <time>2024-08-14T14:03:47Z</time>
      </trkpt>
      <trkpt lat="44.99498" lon="6.07925">
        <ele>869.4</ele>
        <time>2024-08-14T14:03:48Z</time>
      </trkpt>
      <trkpt lat="44.99498" lon="6.07925">
        <ele>869.4</ele>
        <time>2024-08-14T14:03:49Z</time>
      </trkpt>
      <trkpt lat="44.99498" lon="6.07925">
        <ele>869.4</ele>
        <time>2024-08-14T14:03:50Z</time>
      </trkpt>
      <trkpt lat="44.99498" lon="6.07925">
        <ele>869.4</ele>
        <time>2024-08-14T14:03:51Z</time>
      </trkpt>
      <trkpt lat="44.99498" lon="6.07925">
        <ele>869.4</ele>
        <time>2024-08-14T14:03:52Z</time>
      </trkpt>
      <trkpt lat="44.99498" lon="6.07925">
        <ele>869.4</ele>
        <time>2024-08-14T14:03:53Z</time>
      </trkpt>
      <trkpt lat="44.99498" lon="6.07925">
        <ele>869.4</ele>
        <time>2024-08-14T14:03:54Z</time>
      </trkpt>
      <trkpt lat="44.99498" lon="6.07925">
        <ele>869.6</ele>
        <time>2024-08-14T14:03:55Z</time>
      </trkpt>
      <trkpt lat="44.99498" lon="6.07925">
        <ele>870</ele>
        <time>2024-08-14T14:03:56Z</time>
      </trkpt>
      <trkpt lat="44.99498" lon="6.07925">
        <ele>870</ele>
        <time>2024-08-14T14:03:57Z</time>
      </trkpt>
      <trkpt lat="44.99498" lon="6.07925">
        <ele>870</ele>
        <time>2024-08-14T14:03:58Z</time>
      </trkpt>
      <trkpt lat="44.99498" lon="6.07925">
        <ele>870</ele>
        <time>2024-08-14T14:03:59Z</time>
      </trkpt>
      <trkpt lat="44.99498" lon="6.07925">
        <ele>870.2</ele>
        <time>2024-08-14T14:04:00Z</time>
      </trkpt>
      <trkpt lat="44.99498" lon="6.07925">
        <ele>870.2</ele>
        <time>2024-08-14T14:04:01Z</time>
      </trkpt>
      <trkpt lat="44.99498" lon="6.07925">
        <ele>870.4</ele>
        <time>2024-08-14T14:04:02Z</time>
      </trkpt>
      <trkpt lat="44.99498" lon="6.07925">
        <ele>870.4</ele>
        <time>2024-08-14T14:04:03Z</time>
      </trkpt>
      <trkpt lat="44.99498" lon="6.07925">
        <ele>870.6</ele>
        <time>2024-08-14T14:04:04Z</time>
      </trkpt>
      <trkpt lat="44.99498" lon="6.07925">
        <ele>870.6</ele>
        <time>2024-08-14T14:04:05Z</time>
      </trkpt>
      <trkpt lat="44.99498" lon="6.07925">
        <ele>870.2</ele>
        <time>2024-08-14T14:04:06Z</time>
      </trkpt>
      <trkpt lat="44.99498" lon="6.07925">
        <ele>870.2</ele>
        <time>2024-08-14T14:04:07Z</time>
      </trkpt>
      <trkpt lat="44.99498" lon="6.07925">
        <ele>870.2</ele>
        <time>2024-08-14T14:04:08Z</time>
      </trkpt>
      <trkpt lat="44.99498" lon="6.07925">
        <ele>870.2</ele>
        <time>2024-08-14T14:04:09Z</time>
      </trkpt>
      <trkpt lat="44.99498" lon="6.07925">
        <ele>870</ele>
        <time>2024-08-14T14:04:10Z</time>
      </trkpt>
      <trkpt lat="44.99498" lon="6.07925">
        <ele>870</ele>
        <time>2024-08-14T14:04:11Z</time>
      </trkpt>
      <trkpt lat="44.99498" lon="6.07925">
        <ele>870</ele>
        <time>2024-08-14T14:04:12Z</time>
      </trkpt>
      <trkpt lat="44.99498" lon="6.07925">
        <ele>870</ele>
        <time>2024-08-14T14:04:13Z</time>
      </trkpt>
      <trkpt lat="44.99498" lon="6.07925">
        <ele>870</ele>
        <time>2024-08-14T14:04:14Z</time>
      </trkpt>
      <trkpt lat="44.99498" lon="6.07925">
        <ele>870</ele>
        <time>2024-08-14T14:04:15Z</time>
      </trkpt>
      <trkpt lat="44.99498" lon="6.07925">
        <ele>870</ele>
        <time>2024-08-14T14:04:16Z</time>
      </trkpt>
      <trkpt lat="44.99498" lon="6.07925">
        <ele>870</ele>
        <time>2024-08-14T14:04:17Z</time>
      </trkpt>
      <trkpt lat="44.99498" lon="6.07925">
        <ele>869.8</ele>
        <time>2024-08-14T14:04:18Z</time>
      </trkpt>
      <trkpt lat="44.99498" lon="6.07925">
        <ele>869.8</ele>
        <time>2024-08-14T14:04:19Z</time>
      </trkpt>
      <trkpt lat="44.99498" lon="6.07925">
        <ele>869.8</ele>
        <time>2024-08-14T14:04:20Z</time>
      </trkpt>
      <trkpt lat="44.99498" lon="6.07925">
        <ele>869.8</ele>
        <time>2024-08-14T14:04:21Z</time>
      </trkpt>
      <trkpt lat="44.99498" lon="6.07925">
        <ele>869.8</ele>
        <time>2024-08-14T14:04:22Z</time>
      </trkpt>
      <trkpt lat="44.99498" lon="6.07925">
        <ele>869.8</ele>
        <time>2024-08-14T14:04:23Z</time>
      </trkpt>
      <trkpt lat="44.99498" lon="6.07925">
        <ele>869.8</ele>
        <time>2024-08-14T14:04:24Z</time>
      </trkpt>
      <trkpt lat="44.99498" lon="6.07925">
        <ele>869.8</ele>
        <time>2024-08-14T14:04:25Z</time>
      </trkpt>
      <trkpt lat="44.99498" lon="6.07925">
        <ele>869.8</ele>
        <time>2024-08-14T14:04:26Z</time>
      </trkpt>
      <trkpt lat="44.99498" lon="6.07925">
        <ele>869.8</ele>
        <time>2024-08-14T14:04:27Z</time>
      </trkpt>
      <trkpt lat="44.99498" lon="6.07925">
        <ele>869.8</ele>
        <time>2024-08-14T14:04:28Z</time>
      </trkpt>
      <trkpt lat="44.99498" lon="6.07925">
        <ele>869.8</ele>
        <time>2024-08-14T14:04:29Z</time>
      </trkpt>
      <trkpt lat="44.99498" lon="6.07925">
        <ele>869.6</ele>
        <time>2024-08-14T14:04:30Z</time>
      </trkpt>
      <trkpt lat="44.99498" lon="6.07925">
        <ele>869.6</ele>
        <time>2024-08-14T14:04:31Z</time>
      </trkpt>
      <trkpt lat="44.99498" lon="6.07925">
        <ele>869.8</ele>
        <time>2024-08-14T14:04:32Z</time>
      </trkpt>
      <trkpt lat="44.99498" lon="6.07925">
        <ele>869.8</ele>
        <time>2024-08-14T14:04:33Z</time>
      </trkpt>
      <trkpt lat="44.99498" lon="6.07925">
        <ele>869.6</ele>
        <time>2024-08-14T14:04:34Z</time>
      </trkpt>
      <trkpt lat="44.99498" lon="6.07925">
        <ele>869.6</ele>
        <time>2024-08-14T14:04:35Z</time>
      </trkpt>
      <trkpt lat="44.99498" lon="6.07925">
        <ele>870</ele>
        <time>2024-08-14T14:04:36Z</time>
      </trkpt>
      <trkpt lat="44.99498" lon="6.07925">
        <ele>870</ele>
        <time>2024-08-14T14:04:37Z</time>
      </trkpt>
      <trkpt lat="44.99498" lon="6.07925">
        <ele>870.2</ele>
        <time>2024-08-14T14:04:38Z</time>
      </trkpt>
      <trkpt lat="44.99498" lon="6.07925">
        <ele>870</ele>
        <time>2024-08-14T14:04:39Z</time>
      </trkpt>
      <trkpt lat="44.99498" lon="6.07925">
        <ele>870</ele>
        <time>2024-08-14T14:04:40Z</time>
      </trkpt>
      <trkpt lat="44.99498" lon="6.07925">
        <ele>869.8</ele>
        <time>2024-08-14T14:04:41Z</time>
      </trkpt>
      <trkpt lat="44.99498" lon="6.07925">
        <ele>869.8</ele>
        <time>2024-08-14T14:04:42Z</time>
      </trkpt>
      <trkpt lat="44.99498" lon="6.07925">
        <ele>870.2</ele>
        <time>2024-08-14T14:04:43Z</time>
      </trkpt>
      <trkpt lat="44.99498" lon="6.07925">
        <ele>870.2</ele>
        <time>2024-08-14T14:04:44Z</time>
      </trkpt>
      <trkpt lat="44.99498" lon="6.07925">
        <ele>870.2</ele>
        <time>2024-08-14T14:04:45Z</time>
      </trkpt>
      <trkpt lat="44.99498" lon="6.07925">
        <ele>870.4</ele>
        <time>2024-08-14T14:04:46Z</time>
      </trkpt>
      <trkpt lat="44.99498" lon="6.07925">
        <ele>870.4</ele>
        <time>2024-08-14T14:04:47Z</time>
      </trkpt>
      <trkpt lat="44.99498" lon="6.07925">
        <ele>870.4</ele>
        <time>2024-08-14T14:04:48Z</time>
      </trkpt>
      <trkpt lat="44.99498" lon="6.07925">
        <ele>870.4</ele>
        <time>2024-08-14T14:04:49Z</time>
      </trkpt>
      <trkpt lat="44.99498" lon="6.07925">
        <ele>870.4</ele>
        <time>2024-08-14T14:04:50Z</time>
      </trkpt>
      <trkpt lat="44.99498" lon="6.07925">
        <ele>870.4</ele>
        <time>2024-08-14T14:04:51Z</time>
      </trkpt>
      <trkpt lat="44.99498" lon="6.07925">
        <ele>870.4</ele>
        <time>2024-08-14T14:04:52Z</time>
      </trkpt>
      <trkpt lat="44.99498" lon="6.07925">
        <ele>870.4</ele>
        <time>2024-08-14T14:04:53Z</time>
      </trkpt>
      <trkpt lat="44.99498" lon="6.07925">
        <ele>870.4</ele>
        <time>2024-08-14T14:04:54Z</time>
      </trkpt>
      <trkpt lat="44.99498" lon="6.07925">
        <ele>870.2</ele>
        <time>2024-08-14T14:04:55Z</time>
      </trkpt>
      <trkpt lat="44.99498" lon="6.07925">
        <ele>870.2</ele>
        <time>2024-08-14T14:04:56Z</time>
      </trkpt>
      <trkpt lat="44.99498" lon="6.07925">
        <ele>870.2</ele>
        <time>2024-08-14T14:04:57Z</time>
      </trkpt>
      <trkpt lat="44.99498" lon="6.07925">
        <ele>870.2</ele>
        <time>2024-08-14T14:04:58Z</time>
      </trkpt>
      <trkpt lat="44.99498" lon="6.07925">
        <ele>870.2</ele>
        <time>2024-08-14T14:04:59Z</time>
      </trkpt>
      <trkpt lat="44.99498" lon="6.07925">
        <ele>870.2</ele>
        <time>2024-08-14T14:05:00Z</time>
      </trkpt>
      <trkpt lat="44.99498" lon="6.07925">
        <ele>870.2</ele>
        <time>2024-08-14T14:05:01Z</time>
      </trkpt>
      <trkpt lat="44.99498" lon="6.07925">
        <ele>870</ele>
        <time>2024-08-14T14:05:02Z</time>
      </trkpt>
      <trkpt lat="44.99498" lon="6.07925">
        <ele>870</ele>
        <time>2024-08-14T14:05:03Z</time>
      </trkpt>
      <trkpt lat="44.99498" lon="6.07925">
        <ele>870</ele>
        <time>2024-08-14T14:05:04Z</time>
      </trkpt>
      <trkpt lat="44.99498" lon="6.07925">
        <ele>870</ele>
        <time>2024-08-14T14:05:05Z</time>
      </trkpt>
      <trkpt lat="44.99498" lon="6.07925">
        <ele>869.8</ele>
        <time>2024-08-14T14:05:06Z</time>
      </trkpt>
      <trkpt lat="44.99498" lon="6.07925">
        <ele>869.8</ele>
        <time>2024-08-14T14:05:07Z</time>
      </trkpt>
      <trkpt lat="44.99498" lon="6.07925">
        <ele>869.6</ele>
        <time>2024-08-14T14:05:08Z</time>
      </trkpt>
      <trkpt lat="44.99498" lon="6.07925">
        <ele>869.6</ele>
        <time>2024-08-14T14:05:09Z</time>
      </trkpt>
      <trkpt lat="44.99498" lon="6.07925">
        <ele>869.6</ele>
        <time>2024-08-14T14:05:10Z</time>
      </trkpt>
      <trkpt lat="44.99498" lon="6.07925">
        <ele>869.6</ele>
        <time>2024-08-14T14:05:11Z</time>
      </trkpt>
      <trkpt lat="44.99498" lon="6.07925">
        <ele>869.6</ele>
        <time>2024-08-14T14:05:12Z</time>
      </trkpt>
      <trkpt lat="44.99498" lon="6.07925">
        <ele>869.6</ele>
        <time>2024-08-14T14:05:13Z</time>
      </trkpt>
      <trkpt lat="44.99498" lon="6.07925">
        <ele>869.6</ele>
        <time>2024-08-14T14:05:14Z</time>
      </trkpt>
      <trkpt lat="44.99498" lon="6.07925">
        <ele>869.8</ele>
        <time>2024-08-14T14:05:15Z</time>
      </trkpt>
      <trkpt lat="44.99498" lon="6.07925">
        <ele>869.8</ele>
        <time>2024-08-14T14:05:16Z</time>
      </trkpt>
      <trkpt lat="44.99498" lon="6.07925">
        <ele>869.8</ele>
        <time>2024-08-14T14:05:17Z</time>
      </trkpt>
      <trkpt lat="44.99498" lon="6.07925">
        <ele>869.8</ele>
        <time>2024-08-14T14:05:18Z</time>
      </trkpt>
      <trkpt lat="44.99498" lon="6.07925">
        <ele>870.2</ele>
        <time>2024-08-14T14:05:19Z</time>
      </trkpt>
      <trkpt lat="44.99498" lon="6.07925">
        <ele>870.2</ele>
        <time>2024-08-14T14:05:20Z</time>
      </trkpt>
      <trkpt lat="44.99498" lon="6.07925">
        <ele>870</ele>
        <time>2024-08-14T14:05:21Z</time>
      </trkpt>
      <trkpt lat="44.99498" lon="6.07925">
        <ele>869.8</ele>
        <time>2024-08-14T14:05:22Z</time>
      </trkpt>
      <trkpt lat="44.99496" lon="6.07926">
        <ele>869.6</ele>
        <time>2024-08-14T14:05:23Z</time>
      </trkpt>
      <trkpt lat="44.99496" lon="6.07926">
        <ele>869.4</ele>
        <time>2024-08-14T14:05:24Z</time>
      </trkpt>
      <trkpt lat="44.99493" lon="6.07927">
        <ele>869.4</ele>
        <time>2024-08-14T14:05:25Z</time>
      </trkpt>
      <trkpt lat="44.99493" lon="6.07927">
        <ele>869.4</ele>
        <time>2024-08-14T14:05:26Z</time>
      </trkpt>
      <trkpt lat="44.99492" lon="6.07928">
        <ele>869.8</ele>
        <time>2024-08-14T14:05:27Z</time>
      </trkpt>
      <trkpt lat="44.99492" lon="6.07928">
        <ele>869.8</ele>
        <time>2024-08-14T14:05:28Z</time>
      </trkpt>
      <trkpt lat="44.99492" lon="6.07928">
        <ele>869.4</ele>
        <time>2024-08-14T14:05:29Z</time>
      </trkpt>
      <trkpt lat="44.99492" lon="6.07928">
        <ele>869.4</ele>
        <time>2024-08-14T14:05:30Z</time>
      </trkpt>
      <trkpt lat="44.99492" lon="6.07928">
        <ele>869.6</ele>
        <time>2024-08-14T14:05:31Z</time>
      </trkpt>
      <trkpt lat="44.99492" lon="6.07928">
        <ele>869.6</ele>
        <time>2024-08-14T14:05:32Z</time>
      </trkpt>
      <trkpt lat="44.99492" lon="6.07928">
        <ele>869.6</ele>
        <time>2024-08-14T14:05:33Z</time>
      </trkpt>
      <trkpt lat="44.99492" lon="6.07928">
        <ele>869.6</ele>
        <time>2024-08-14T14:05:34Z</time>
      </trkpt>
      <trkpt lat="44.9949" lon="6.0793">
        <ele>869.8</ele>
        <time>2024-08-14T14:05:35Z</time>
      </trkpt>
      <trkpt lat="44.9949" lon="6.0793">
        <ele>869.8</ele>
        <time>2024-08-14T14:05:36Z</time>
      </trkpt>
      <trkpt lat="44.9949" lon="6.07934">
        <ele>869.8</ele>
        <time>2024-08-14T14:05:37Z</time>
      </trkpt>
      <trkpt lat="44.9949" lon="6.07934">
        <ele>870</ele>
        <time>2024-08-14T14:05:38Z</time>
      </trkpt>
      <trkpt lat="44.99488" lon="6.07937">
        <ele>870</ele>
        <time>2024-08-14T14:05:39Z</time>
      </trkpt>
      <trkpt lat="44.99486" lon="6.07939">
        <ele>870</ele>
        <time>2024-08-14T14:05:40Z</time>
      </trkpt>
      <trkpt lat="44.99486" lon="6.07939">
        <ele>870.2</ele>
        <time>2024-08-14T14:05:41Z</time>
      </trkpt>
      <trkpt lat="44.99486" lon="6.07939">
        <ele>870.4</ele>
        <time>2024-08-14T14:05:42Z</time>
      </trkpt>
      <trkpt lat="44.99483" lon="6.07943">
        <ele>870.8</ele>
        <time>2024-08-14T14:05:43Z</time>
      </trkpt>
      <trkpt lat="44.99482" lon="6.07944">
        <ele>870.6</ele>
        <time>2024-08-14T14:05:44Z</time>
      </trkpt>
      <trkpt lat="44.99482" lon="6.07944">
        <ele>871</ele>
        <time>2024-08-14T14:05:45Z</time>
      </trkpt>
      <trkpt lat="44.99482" lon="6.07947">
        <ele>871.2</ele>
        <time>2024-08-14T14:05:46Z</time>
      </trkpt>
      <trkpt lat="44.99482" lon="6.07947">
        <ele>871.2</ele>
        <time>2024-08-14T14:05:47Z</time>
      </trkpt>
      <trkpt lat="44.99481" lon="6.07949">
        <ele>871.4</ele>
        <time>2024-08-14T14:05:48Z</time>
      </trkpt>
      <trkpt lat="44.99481" lon="6.07949">
        <ele>871.6</ele>
        <time>2024-08-14T14:05:49Z</time>
      </trkpt>
      <trkpt lat="44.99478" lon="6.07952">
        <ele>871.8</ele>
        <time>2024-08-14T14:05:50Z</time>
      </trkpt>
      <trkpt lat="44.99478" lon="6.07952">
        <ele>872</ele>
        <time>2024-08-14T14:05:51Z</time>
      </trkpt>
      <trkpt lat="44.99478" lon="6.07955">
        <ele>872</ele>
        <time>2024-08-14T14:05:52Z</time>
      </trkpt>
      <trkpt lat="44.99478" lon="6.07955">
        <ele>872.4</ele>
        <time>2024-08-14T14:05:53Z</time>
      </trkpt>
      <trkpt lat="44.99476" lon="6.07957">
        <ele>872.6</ele>
        <time>2024-08-14T14:05:54Z</time>
      </trkpt>
      <trkpt lat="44.99476" lon="6.07957">
        <ele>872.6</ele>
        <time>2024-08-14T14:05:55Z</time>
      </trkpt>
      <trkpt lat="44.99476" lon="6.07957">
        <ele>872.6</ele>
        <time>2024-08-14T14:05:56Z</time>
      </trkpt>
      <trkpt lat="44.99474" lon="6.0796">
        <ele>872.8</ele>
        <time>2024-08-14T14:05:57Z</time>
      </trkpt>
      <trkpt lat="44.99474" lon="6.0796">
        <ele>873</ele>
        <time>2024-08-14T14:05:58Z</time>
      </trkpt>
      <trkpt lat="44.99472" lon="6.07963">
        <ele>873</ele>
        <time>2024-08-14T14:05:59Z</time>
      </trkpt>
      <trkpt lat="44.99472" lon="6.07963">
        <ele>873.2</ele>
        <time>2024-08-14T14:06:00Z</time>
      </trkpt>
      <trkpt lat="44.9947" lon="6.07966">
        <ele>873.2</ele>
        <time>2024-08-14T14:06:01Z</time>
      </trkpt>
      <trkpt lat="44.9947" lon="6.07966">
        <ele>873.4</ele>
        <time>2024-08-14T14:06:02Z</time>
      </trkpt>
      <trkpt lat="44.99468" lon="6.07968">
        <ele>873.4</ele>
        <time>2024-08-14T14:06:03Z</time>
      </trkpt>
      <trkpt lat="44.99468" lon="6.07968">
        <ele>873.6</ele>
        <time>2024-08-14T14:06:04Z</time>
      </trkpt>
      <trkpt lat="44.99466" lon="6.07971">
        <ele>873.6</ele>
        <time>2024-08-14T14:06:05Z</time>
      </trkpt>
      <trkpt lat="44.99466" lon="6.07971">
        <ele>873.6</ele>
        <time>2024-08-14T14:06:06Z</time>
      </trkpt>
      <trkpt lat="44.99464" lon="6.07973">
        <ele>873.8</ele>
        <time>2024-08-14T14:06:07Z</time>
      </trkpt>
      <trkpt lat="44.99464" lon="6.07973">
        <ele>873.8</ele>
        <time>2024-08-14T14:06:08Z</time>
      </trkpt>
      <trkpt lat="44.99462" lon="6.07976">
        <ele>873.8</ele>
        <time>2024-08-14T14:06:09Z</time>
      </trkpt>
      <trkpt lat="44.99462" lon="6.07976">
        <ele>873.8</ele>
        <time>2024-08-14T14:06:10Z</time>
      </trkpt>
      <trkpt lat="44.9946" lon="6.07979">
        <ele>874</ele>
        <time>2024-08-14T14:06:11Z</time>
      </trkpt>
      <trkpt lat="44.9946" lon="6.07979">
        <ele>874</ele>
        <time>2024-08-14T14:06:12Z</time>
      </trkpt>
      <trkpt lat="44.99458" lon="6.07981">
        <ele>873.8</ele>
        <time>2024-08-14T14:06:13Z</time>
      </trkpt>
      <trkpt lat="44.99458" lon="6.07981">
        <ele>873.8</ele>
        <time>2024-08-14T14:06:14Z</time>
      </trkpt>
      <trkpt lat="44.99456" lon="6.07983">
        <ele>874</ele>
        <time>2024-08-14T14:06:15Z</time>
      </trkpt>
      <trkpt lat="44.99456" lon="6.07983">
        <ele>874.2</ele>
        <time>2024-08-14T14:06:16Z</time>
      </trkpt>
      <trkpt lat="44.99453" lon="6.07985">
        <ele>874.2</ele>
        <time>2024-08-14T14:06:17Z</time>
      </trkpt>
      <trkpt lat="44.99453" lon="6.07985">
        <ele>874</ele>
        <time>2024-08-14T14:06:18Z</time>
      </trkpt>
      <trkpt lat="44.99452" lon="6.07988">
        <ele>874</ele>
        <time>2024-08-14T14:06:19Z</time>
      </trkpt>
      <trkpt lat="44.99452" lon="6.07988">
        <ele>874</ele>
        <time>2024-08-14T14:06:20Z</time>
      </trkpt>
      <trkpt lat="44.99452" lon="6.07988">
        <ele>874</ele>
        <time>2024-08-14T14:06:21Z</time>
      </trkpt>
      <trkpt lat="44.99448" lon="6.07992">
        <ele>874</ele>
        <time>2024-08-14T14:06:22Z</time>
      </trkpt>
      <trkpt lat="44.99447" lon="6.07993">
        <ele>874</ele>
        <time>2024-08-14T14:06:23Z</time>
      </trkpt>
      <trkpt lat="44.99447" lon="6.07993">
        <ele>874.2</ele>
        <time>2024-08-14T14:06:24Z</time>
      </trkpt>
      <trkpt lat="44.99445" lon="6.07995">
        <ele>874.2</ele>
        <time>2024-08-14T14:06:25Z</time>
      </trkpt>
      <trkpt lat="44.99445" lon="6.07995">
        <ele>874.2</ele>
        <time>2024-08-14T14:06:26Z</time>
      </trkpt>
      <trkpt lat="44.99445" lon="6.07995">
        <ele>874.2</ele>
        <time>2024-08-14T14:06:27Z</time>
      </trkpt>
      <trkpt lat="44.99444" lon="6.07997">
        <ele>874.2</ele>
        <time>2024-08-14T14:06:28Z</time>
      </trkpt>
      <trkpt lat="44.99444" lon="6.07997">
        <ele>874.4</ele>
        <time>2024-08-14T14:06:29Z</time>
      </trkpt>
      <trkpt lat="44.99444" lon="6.07997">
        <ele>874.4</ele>
        <time>2024-08-14T14:06:30Z</time>
      </trkpt>
      <trkpt lat="44.99444" lon="6.07997">
        <ele>874.4</ele>
        <time>2024-08-14T14:06:31Z</time>
      </trkpt>
      <trkpt lat="44.99444" lon="6.07997">
        <ele>874.4</ele>
        <time>2024-08-14T14:06:32Z</time>
      </trkpt>
      <trkpt lat="44.99444" lon="6.07993">
        <ele>874.4</ele>
        <time>2024-08-14T14:06:33Z</time>
      </trkpt>
      <trkpt lat="44.99444" lon="6.07993">
        <ele>874.4</ele>
        <time>2024-08-14T14:06:34Z</time>
      </trkpt>
      <trkpt lat="44.99446" lon="6.0799">
        <ele>874.4</ele>
        <time>2024-08-14T14:06:35Z</time>
      </trkpt>
      <trkpt lat="44.99446" lon="6.0799">
        <ele>874.4</ele>
        <time>2024-08-14T14:06:36Z</time>
      </trkpt>
      <trkpt lat="44.99449" lon="6.07987">
        <ele>874.6</ele>
        <time>2024-08-14T14:06:37Z</time>
      </trkpt>
      <trkpt lat="44.9945" lon="6.07986">
        <ele>874.6</ele>
        <time>2024-08-14T14:06:38Z</time>
      </trkpt>
      <trkpt lat="44.9945" lon="6.07986">
        <ele>874.6</ele>
        <time>2024-08-14T14:06:39Z</time>
      </trkpt>
      <trkpt lat="44.99453" lon="6.07983">
        <ele>874.6</ele>
        <time>2024-08-14T14:06:40Z</time>
      </trkpt>
      <trkpt lat="44.99453" lon="6.07983">
        <ele>874.6</ele>
        <time>2024-08-14T14:06:41Z</time>
      </trkpt>
      <trkpt lat="44.99455" lon="6.07981">
        <ele>874.6</ele>
        <time>2024-08-14T14:06:42Z</time>
      </trkpt>
      <trkpt lat="44.99455" lon="6.07981">
        <ele>874.4</ele>
        <time>2024-08-14T14:06:43Z</time>
      </trkpt>
      <trkpt lat="44.99456" lon="6.07979">
        <ele>874.4</ele>
        <time>2024-08-14T14:06:44Z</time>
      </trkpt>
      <trkpt lat="44.99456" lon="6.07979">
        <ele>874.4</ele>
        <time>2024-08-14T14:06:45Z</time>
      </trkpt>
      <trkpt lat="44.99456" lon="6.07979">
        <ele>874.6</ele>
        <time>2024-08-14T14:06:46Z</time>
      </trkpt>
      <trkpt lat="44.99456" lon="6.07979">
        <ele>874.6</ele>
        <time>2024-08-14T14:06:47Z</time>
      </trkpt>
      <trkpt lat="44.99456" lon="6.07979">
        <ele>874.6</ele>
        <time>2024-08-14T14:06:48Z</time>
      </trkpt>
      <trkpt lat="44.99456" lon="6.07979">
        <ele>874.6</ele>
        <time>2024-08-14T14:06:49Z</time>
      </trkpt>
      <trkpt lat="44.99456" lon="6.07979">
        <ele>874.8</ele>
        <time>2024-08-14T14:06:50Z</time>
      </trkpt>
      <trkpt lat="44.99456" lon="6.07979">
        <ele>874.8</ele>
        <time>2024-08-14T14:06:51Z</time>
      </trkpt>
      <trkpt lat="44.99456" lon="6.07979">
        <ele>874.8</ele>
        <time>2024-08-14T14:06:52Z</time>
      </trkpt>
      <trkpt lat="44.99456" lon="6.07979">
        <ele>874.8</ele>
        <time>2024-08-14T14:06:53Z</time>
      </trkpt>
      <trkpt lat="44.99456" lon="6.07979">
        <ele>874.8</ele>
        <time>2024-08-14T14:06:54Z</time>
      </trkpt>
      <trkpt lat="44.99456" lon="6.07979">
        <ele>874.6</ele>
        <time>2024-08-14T14:06:55Z</time>
      </trkpt>
      <trkpt lat="44.99456" lon="6.07979">
        <ele>874.6</ele>
        <time>2024-08-14T14:06:56Z</time>
      </trkpt>
      <trkpt lat="44.99456" lon="6.07979">
        <ele>874.8</ele>
        <time>2024-08-14T14:06:57Z</time>
      </trkpt>
      <trkpt lat="44.99456" lon="6.07979">
        <ele>874.8</ele>
        <time>2024-08-14T14:06:58Z</time>
      </trkpt>
      <trkpt lat="44.99456" lon="6.07979">
        <ele>874.8</ele>
        <time>2024-08-14T14:06:59Z</time>
      </trkpt>
      <trkpt lat="44.99456" lon="6.07979">
        <ele>874.6</ele>
        <time>2024-08-14T14:07:00Z</time>
      </trkpt>
      <trkpt lat="44.99456" lon="6.07979">
        <ele>874.4</ele>
        <time>2024-08-14T14:07:01Z</time>
      </trkpt>
      <trkpt lat="44.99456" lon="6.07979">
        <ele>874.6</ele>
        <time>2024-08-14T14:07:02Z</time>
      </trkpt>
      <trkpt lat="44.99456" lon="6.07979">
        <ele>874.6</ele>
        <time>2024-08-14T14:07:03Z</time>
      </trkpt>
      <trkpt lat="44.99456" lon="6.07979">
        <ele>874.4</ele>
        <time>2024-08-14T14:07:04Z</time>
      </trkpt>
      <trkpt lat="44.99456" lon="6.07979">
        <ele>874.4</ele>
        <time>2024-08-14T14:07:05Z</time>
      </trkpt>
      <trkpt lat="44.99456" lon="6.07979">
        <ele>874.4</ele>
        <time>2024-08-14T14:07:06Z</time>
      </trkpt>
      <trkpt lat="44.99456" lon="6.07979">
        <ele>874.6</ele>
        <time>2024-08-14T14:07:07Z</time>
      </trkpt>
      <trkpt lat="44.99456" lon="6.07979">
        <ele>874.6</ele>
        <time>2024-08-14T14:07:08Z</time>
      </trkpt>
      <trkpt lat="44.99456" lon="6.07979">
        <ele>874.6</ele>
        <time>2024-08-14T14:07:09Z</time>
      </trkpt>
      <trkpt lat="44.99456" lon="6.07979">
        <ele>874.4</ele>
        <time>2024-08-14T14:07:10Z</time>
      </trkpt>
      <trkpt lat="44.99456" lon="6.07979">
        <ele>874.4</ele>
        <time>2024-08-14T14:07:11Z</time>
      </trkpt>
      <trkpt lat="44.99456" lon="6.07979">
        <ele>874.4</ele>
        <time>2024-08-14T14:07:12Z</time>
      </trkpt>
      <trkpt lat="44.99456" lon="6.07979">
        <ele>874.4</ele>
        <time>2024-08-14T14:07:13Z</time>
      </trkpt>
      <trkpt lat="44.99458" lon="6.07979">
        <ele>874.4</ele>
        <time>2024-08-14T14:07:14Z</time>
      </trkpt>
      <trkpt lat="44.99458" lon="6.07979">
        <ele>874.4</ele>
        <time>2024-08-14T14:07:15Z</time>
      </trkpt>
      <trkpt lat="44.99461" lon="6.07975">
        <ele>874.4</ele>
        <time>2024-08-14T14:07:16Z</time>
      </trkpt>
      <trkpt lat="44.99462" lon="6.07973">
        <ele>874.4</ele>
        <time>2024-08-14T14:07:17Z</time>
      </trkpt>
      <trkpt lat="44.99462" lon="6.07973">
        <ele>874.2</ele>
        <time>2024-08-14T14:07:18Z</time>
      </trkpt>
      <trkpt lat="44.99464" lon="6.07969">
        <ele>874.2</ele>
        <time>2024-08-14T14:07:19Z</time>
      </trkpt>
      <trkpt lat="44.99464" lon="6.07969">
        <ele>874</ele>
        <time>2024-08-14T14:07:20Z</time>
      </trkpt>
      <trkpt lat="44.99466" lon="6.07966">
        <ele>873.8</ele>
        <time>2024-08-14T14:07:21Z</time>
      </trkpt>
      <trkpt lat="44.99466" lon="6.07966">
        <ele>873.8</ele>
        <time>2024-08-14T14:07:22Z</time>
      </trkpt>
      <trkpt lat="44.99468" lon="6.07964">
        <ele>873.6</ele>
        <time>2024-08-14T14:07:23Z</time>
      </trkpt>
      <trkpt lat="44.99468" lon="6.07964">
        <ele>873.6</ele>
        <time>2024-08-14T14:07:24Z</time>
      </trkpt>
      <trkpt lat="44.9947" lon="6.07962">
        <ele>873.6</ele>
        <time>2024-08-14T14:07:25Z</time>
      </trkpt>
      <trkpt lat="44.9947" lon="6.07962">
        <ele>873.6</ele>
        <time>2024-08-14T14:07:26Z</time>
      </trkpt>
      <trkpt lat="44.99472" lon="6.07959">
        <ele>873.6</ele>
        <time>2024-08-14T14:07:27Z</time>
      </trkpt>
      <trkpt lat="44.99472" lon="6.07959">
        <ele>873.4</ele>
        <time>2024-08-14T14:07:28Z</time>
      </trkpt>
      <trkpt lat="44.99474" lon="6.07956">
        <ele>873.2</ele>
        <time>2024-08-14T14:07:29Z</time>
      </trkpt>
      <trkpt lat="44.99474" lon="6.07956">
        <ele>873.2</ele>
        <time>2024-08-14T14:07:30Z</time>
      </trkpt>
      <trkpt lat="44.99477" lon="6.07953">
        <ele>873</ele>
        <time>2024-08-14T14:07:31Z</time>
      </trkpt>
      <trkpt lat="44.99477" lon="6.07953">
        <ele>873</ele>
        <time>2024-08-14T14:07:32Z</time>
      </trkpt>
      <trkpt lat="44.99478" lon="6.07949">
        <ele>872.6</ele>
        <time>2024-08-14T14:07:33Z</time>
      </trkpt>
      <trkpt lat="44.9948" lon="6.07947">
        <ele>872.4</ele>
        <time>2024-08-14T14:07:34Z</time>
      </trkpt>
      <trkpt lat="44.9948" lon="6.07947">
        <ele>872</ele>
        <time>2024-08-14T14:07:35Z</time>
      </trkpt>
      <trkpt lat="44.99482" lon="6.07945">
        <ele>872</ele>
        <time>2024-08-14T14:07:36Z</time>
      </trkpt>
      <trkpt lat="44.99483" lon="6.07943">
        <ele>871.8</ele>
        <time>2024-08-14T14:07:37Z</time>
      </trkpt>
      <trkpt lat="44.99483" lon="6.07943">
        <ele>871.6</ele>
        <time>2024-08-14T14:07:38Z</time>
      </trkpt>
      <trkpt lat="44.99483" lon="6.07943">
        <ele>871.6</ele>
        <time>2024-08-14T14:07:39Z</time>
      </trkpt>
      <trkpt lat="44.99486" lon="6.07938">
        <ele>871.4</ele>
        <time>2024-08-14T14:07:40Z</time>
      </trkpt>
      <trkpt lat="44.99487" lon="6.07936">
        <ele>871</ele>
        <time>2024-08-14T14:07:41Z</time>
      </trkpt>
      <trkpt lat="44.99487" lon="6.07936">
        <ele>871</ele>
        <time>2024-08-14T14:07:42Z</time>
      </trkpt>
      <trkpt lat="44.99487" lon="6.07936">
        <ele>871</ele>
        <time>2024-08-14T14:07:43Z</time>
      </trkpt>
      <trkpt lat="44.99489" lon="6.07932">
        <ele>870.4</ele>
        <time>2024-08-14T14:07:44Z</time>
      </trkpt>
      <trkpt lat="44.9949" lon="6.0793">
        <ele>870.2</ele>
        <time>2024-08-14T14:07:45Z</time>
      </trkpt>
      <trkpt lat="44.9949" lon="6.0793">
        <ele>870</ele>
        <time>2024-08-14T14:07:46Z</time>
      </trkpt>
      <trkpt lat="44.9949" lon="6.07926">
        <ele>869.6</ele>
        <time>2024-08-14T14:07:47Z</time>
      </trkpt>
      <trkpt lat="44.9949" lon="6.07926">
        <ele>869.6</ele>
        <time>2024-08-14T14:07:48Z</time>
      </trkpt>
      <trkpt lat="44.9949" lon="6.07923">
        <ele>869.4</ele>
        <time>2024-08-14T14:07:49Z</time>
      </trkpt>
      <trkpt lat="44.9949" lon="6.07923">
        <ele>869</ele>
        <time>2024-08-14T14:07:50Z</time>
      </trkpt>
      <trkpt lat="44.99489" lon="6.07919">
        <ele>869</ele>
        <time>2024-08-14T14:07:51Z</time>
      </trkpt>
      <trkpt lat="44.99489" lon="6.07919">
        <ele>868.8</ele>
        <time>2024-08-14T14:07:52Z</time>
      </trkpt>
      <trkpt lat="44.99489" lon="6.07915">
        <ele>868.6</ele>
        <time>2024-08-14T14:07:53Z</time>
      </trkpt>
      <trkpt lat="44.99489" lon="6.07915">
        <ele>868.6</ele>
        <time>2024-08-14T14:07:54Z</time>
      </trkpt>
      <trkpt lat="44.99489" lon="6.07915">
        <ele>868.6</ele>
        <time>2024-08-14T14:07:55Z</time>
      </trkpt>
      <trkpt lat="44.99489" lon="6.07909">
        <ele>868.8</ele>
        <time>2024-08-14T14:07:56Z</time>
      </trkpt>
      <trkpt lat="44.99489" lon="6.07908">
        <ele>868.8</ele>
        <time>2024-08-14T14:07:57Z</time>
      </trkpt>
      <trkpt lat="44.99489" lon="6.07908">
        <ele>868.8</ele>
        <time>2024-08-14T14:07:58Z</time>
      </trkpt>
      <trkpt lat="44.9949" lon="6.07905">
        <ele>868.8</ele>
        <time>2024-08-14T14:07:59Z</time>
      </trkpt>
      <trkpt lat="44.9949" lon="6.07905">
        <ele>868.8</ele>
        <time>2024-08-14T14:08:00Z</time>
      </trkpt>
      <trkpt lat="44.9949" lon="6.07901">
        <ele>869.2</ele>
        <time>2024-08-14T14:08:01Z</time>
      </trkpt>
      <trkpt lat="44.9949" lon="6.07901">
        <ele>869</ele>
        <time>2024-08-14T14:08:02Z</time>
      </trkpt>
      <trkpt lat="44.99492" lon="6.07897">
        <ele>869</ele>
        <time>2024-08-14T14:08:03Z</time>
      </trkpt>
      <trkpt lat="44.99492" lon="6.07897">
        <ele>869.2</ele>
        <time>2024-08-14T14:08:04Z</time>
      </trkpt>
      <trkpt lat="44.99494" lon="6.07894">
        <ele>869.2</ele>
        <time>2024-08-14T14:08:05Z</time>
      </trkpt>
      <trkpt lat="44.99494" lon="6.07894">
        <ele>869.2</ele>
        <time>2024-08-14T14:08:06Z</time>
      </trkpt>
      <trkpt lat="44.99494" lon="6.0789">
        <ele>869.4</ele>
        <time>2024-08-14T14:08:07Z</time>
      </trkpt>
      <trkpt lat="44.99494" lon="6.0789">
        <ele>869.4</ele>
        <time>2024-08-14T14:08:08Z</time>
      </trkpt>
      <trkpt lat="44.99495" lon="6.07886">
        <ele>869.2</ele>
        <time>2024-08-14T14:08:09Z</time>
      </trkpt>
      <trkpt lat="44.99495" lon="6.07886">
        <ele>869.2</ele>
        <time>2024-08-14T14:08:10Z</time>
      </trkpt>
      <trkpt lat="44.99496" lon="6.07882">
        <ele>869.4</ele>
        <time>2024-08-14T14:08:11Z</time>
      </trkpt>
      <trkpt lat="44.99496" lon="6.07882">
        <ele>869.4</ele>
        <time>2024-08-14T14:08:12Z</time>
      </trkpt>
      <trkpt lat="44.99496" lon="6.07879">
        <ele>869.6</ele>
        <time>2024-08-14T14:08:13Z</time>
      </trkpt>
      <trkpt lat="44.99496" lon="6.07879">
        <ele>869.8</ele>
        <time>2024-08-14T14:08:14Z</time>
      </trkpt>
      <trkpt lat="44.99497" lon="6.07875">
        <ele>869.8</ele>
        <time>2024-08-14T14:08:15Z</time>
      </trkpt>
      <trkpt lat="44.99497" lon="6.07875">
        <ele>869.6</ele>
        <time>2024-08-14T14:08:16Z</time>
      </trkpt>
      <trkpt lat="44.99497" lon="6.07875">
        <ele>869.6</ele>
        <time>2024-08-14T14:08:17Z</time>
      </trkpt>
      <trkpt lat="44.99497" lon="6.07875">
        <ele>869.6</ele>
        <time>2024-08-14T14:08:18Z</time>
      </trkpt>
      <trkpt lat="44.99497" lon="6.07875">
        <ele>869.6</ele>
        <time>2024-08-14T14:08:19Z</time>
      </trkpt>
      <trkpt lat="44.99497" lon="6.07875">
        <ele>870.2</ele>
        <time>2024-08-14T14:08:20Z</time>
      </trkpt>
      <trkpt lat="44.99498" lon="6.07871">
        <ele>870.4</ele>
        <time>2024-08-14T14:08:21Z</time>
      </trkpt>
      <trkpt lat="44.99498" lon="6.07871">
        <ele>870.4</ele>
        <time>2024-08-14T14:08:22Z</time>
      </trkpt>
      <trkpt lat="44.99498" lon="6.07868">
        <ele>870.2</ele>
        <time>2024-08-14T14:08:23Z</time>
      </trkpt>
      <trkpt lat="44.99498" lon="6.07868">
        <ele>870.2</ele>
        <time>2024-08-14T14:08:24Z</time>
      </trkpt>
      <trkpt lat="44.99499" lon="6.07864">
        <ele>870.4</ele>
        <time>2024-08-14T14:08:25Z</time>
      </trkpt>
      <trkpt lat="44.99499" lon="6.07864">
        <ele>870.4</ele>
        <time>2024-08-14T14:08:26Z</time>
      </trkpt>
      <trkpt lat="44.99499" lon="6.0786">
        <ele>870.4</ele>
        <time>2024-08-14T14:08:27Z</time>
      </trkpt>
      <trkpt lat="44.99499" lon="6.0786">
        <ele>870.4</ele>
        <time>2024-08-14T14:08:28Z</time>
      </trkpt>
      <trkpt lat="44.99499" lon="6.07857">
        <ele>870.4</ele>
        <time>2024-08-14T14:08:29Z</time>
      </trkpt>
      <trkpt lat="44.99499" lon="6.07857">
        <ele>870.6</ele>
        <time>2024-08-14T14:08:30Z</time>
      </trkpt>
      <trkpt lat="44.99499" lon="6.07853">
        <ele>870.6</ele>
        <time>2024-08-14T14:08:31Z</time>
      </trkpt>
      <trkpt lat="44.99499" lon="6.07853">
        <ele>870.6</ele>
        <time>2024-08-14T14:08:32Z</time>
      </trkpt>
      <trkpt lat="44.995" lon="6.07849">
        <ele>870.6</ele>
        <time>2024-08-14T14:08:33Z</time>
      </trkpt>
      <trkpt lat="44.995" lon="6.07849">
        <ele>870.8</ele>
        <time>2024-08-14T14:08:34Z</time>
      </trkpt>
      <trkpt lat="44.995" lon="6.07846">
        <ele>870.8</ele>
        <time>2024-08-14T14:08:35Z</time>
      </trkpt>
      <trkpt lat="44.995" lon="6.07846">
        <ele>870.8</ele>
        <time>2024-08-14T14:08:36Z</time>
      </trkpt>
      <trkpt lat="44.99501" lon="6.07842">
        <ele>871</ele>
        <time>2024-08-14T14:08:37Z</time>
      </trkpt>
      <trkpt lat="44.99501" lon="6.07842">
        <ele>871.2</ele>
        <time>2024-08-14T14:08:38Z</time>
      </trkpt>
      <trkpt lat="44.99501" lon="6.07838">
        <ele>871.2</ele>
        <time>2024-08-14T14:08:39Z</time>
      </trkpt>
      <trkpt lat="44.99501" lon="6.07838">
        <ele>871.4</ele>
        <time>2024-08-14T14:08:40Z</time>
      </trkpt>
      <trkpt lat="44.99502" lon="6.07834">
        <ele>871.6</ele>
        <time>2024-08-14T14:08:41Z</time>
      </trkpt>
      <trkpt lat="44.99502" lon="6.07834">
        <ele>871.6</ele>
        <time>2024-08-14T14:08:42Z</time>
      </trkpt>
      <trkpt lat="44.99502" lon="6.0783">
        <ele>871.8</ele>
        <time>2024-08-14T14:08:43Z</time>
      </trkpt>
      <trkpt lat="44.99502" lon="6.0783">
        <ele>872</ele>
        <time>2024-08-14T14:08:44Z</time>
      </trkpt>
      <trkpt lat="44.99503" lon="6.07827">
        <ele>872</ele>
        <time>2024-08-14T14:08:45Z</time>
      </trkpt>
      <trkpt lat="44.99503" lon="6.07827">
        <ele>872</ele>
        <time>2024-08-14T14:08:46Z</time>
      </trkpt>
      <trkpt lat="44.99503" lon="6.07827">
        <ele>872.2</ele>
        <time>2024-08-14T14:08:47Z</time>
      </trkpt>
      <trkpt lat="44.99503" lon="6.07821">
        <ele>872.2</ele>
        <time>2024-08-14T14:08:48Z</time>
      </trkpt>
      <trkpt lat="44.99503" lon="6.07819">
        <ele>872.4</ele>
        <time>2024-08-14T14:08:49Z</time>
      </trkpt>
      <trkpt lat="44.99503" lon="6.07819">
        <ele>872.8</ele>
        <time>2024-08-14T14:08:50Z</time>
      </trkpt>
      <trkpt lat="44.99503" lon="6.07819">
        <ele>873.2</ele>
        <time>2024-08-14T14:08:51Z</time>
      </trkpt>
      <trkpt lat="44.99503" lon="6.07814">
        <ele>873.4</ele>
        <time>2024-08-14T14:08:52Z</time>
      </trkpt>
      <trkpt lat="44.99503" lon="6.07812">
        <ele>873.6</ele>
        <time>2024-08-14T14:08:53Z</time>
      </trkpt>
      <trkpt lat="44.99503" lon="6.07812">
        <ele>873.6</ele>
        <time>2024-08-14T14:08:54Z</time>
      </trkpt>
      <trkpt lat="44.99504" lon="6.07808">
        <ele>873.6</ele>
        <time>2024-08-14T14:08:55Z</time>
      </trkpt>
      <trkpt lat="44.99504" lon="6.07808">
        <ele>873.8</ele>
        <time>2024-08-14T14:08:56Z</time>
      </trkpt>
      <trkpt lat="44.99504" lon="6.07804">
        <ele>874</ele>
        <time>2024-08-14T14:08:57Z</time>
      </trkpt>
      <trkpt lat="44.99504" lon="6.07804">
        <ele>874</ele>
        <time>2024-08-14T14:08:58Z</time>
      </trkpt>
      <trkpt lat="44.99504" lon="6.07804">
        <ele>874.2</ele>
        <time>2024-08-14T14:08:59Z</time>
      </trkpt>
      <trkpt lat="44.99505" lon="6.07799">
        <ele>874.4</ele>
        <time>2024-08-14T14:09:00Z</time>
      </trkpt>
      <trkpt lat="44.99505" lon="6.07799">
        <ele>874.6</ele>
        <time>2024-08-14T14:09:01Z</time>
      </trkpt>
      <trkpt lat="44.99505" lon="6.07796">
        <ele>874.6</ele>
        <time>2024-08-14T14:09:02Z</time>
      </trkpt>
      <trkpt lat="44.99506" lon="6.07794">
        <ele>874.6</ele>
        <time>2024-08-14T14:09:03Z</time>
      </trkpt>
      <trkpt lat="44.99506" lon="6.07794">
        <ele>875</ele>
        <time>2024-08-14T14:09:04Z</time>
      </trkpt>
      <trkpt lat="44.99507" lon="6.07791">
        <ele>875</ele>
        <time>2024-08-14T14:09:05Z</time>
      </trkpt>
      <trkpt lat="44.99507" lon="6.07791">
        <ele>875</ele>
        <time>2024-08-14T14:09:06Z</time>
      </trkpt>
      <trkpt lat="44.99507" lon="6.07787">
        <ele>875.2</ele>
        <time>2024-08-14T14:09:07Z</time>
      </trkpt>
      <trkpt lat="44.99507" lon="6.07787">
        <ele>875.4</ele>
        <time>2024-08-14T14:09:08Z</time>
      </trkpt>
      <trkpt lat="44.99508" lon="6.07783">
        <ele>875.4</ele>
        <time>2024-08-14T14:09:09Z</time>
      </trkpt>
      <trkpt lat="44.99508" lon="6.07783">
        <ele>875.4</ele>
        <time>2024-08-14T14:09:10Z</time>
      </trkpt>
      <trkpt lat="44.99509" lon="6.07779">
        <ele>875.4</ele>
        <time>2024-08-14T14:09:11Z</time>
      </trkpt>
      <trkpt lat="44.99509" lon="6.07779">
        <ele>875.4</ele>
        <time>2024-08-14T14:09:12Z</time>
      </trkpt>
      <trkpt lat="44.9951" lon="6.07776">
        <ele>875.4</ele>
        <time>2024-08-14T14:09:13Z</time>
      </trkpt>
      <trkpt lat="44.9951" lon="6.07776">
        <ele>875.6</ele>
        <time>2024-08-14T14:09:14Z</time>
      </trkpt>
      <trkpt lat="44.9951" lon="6.07776">
        <ele>875.6</ele>
        <time>2024-08-14T14:09:15Z</time>
      </trkpt>
      <trkpt lat="44.99512" lon="6.0777">
        <ele>875.8</ele>
        <time>2024-08-14T14:09:16Z</time>
      </trkpt>
      <trkpt lat="44.99513" lon="6.07768">
        <ele>876</ele>
        <time>2024-08-14T14:09:17Z</time>
      </trkpt>
      <trkpt lat="44.99513" lon="6.07768">
        <ele>876.2</ele>
        <time>2024-08-14T14:09:18Z</time>
      </trkpt>
      <trkpt lat="44.99513" lon="6.07768">
        <ele>876.4</ele>
        <time>2024-08-14T14:09:19Z</time>
      </trkpt>
      <trkpt lat="44.99514" lon="6.07763">
        <ele>876.6</ele>
        <time>2024-08-14T14:09:20Z</time>
      </trkpt>
      <trkpt lat="44.99514" lon="6.07761">
        <ele>876.8</ele>
        <time>2024-08-14T14:09:21Z</time>
      </trkpt>
      <trkpt lat="44.99514" lon="6.07761">
        <ele>876.8</ele>
        <time>2024-08-14T14:09:22Z</time>
      </trkpt>
      <trkpt lat="44.99516" lon="6.07758">
        <ele>877</ele>
        <time>2024-08-14T14:09:23Z</time>
      </trkpt>
      <trkpt lat="44.99516" lon="6.07758">
        <ele>877</ele>
        <time>2024-08-14T14:09:24Z</time>
      </trkpt>
      <trkpt lat="44.99517" lon="6.07754">
        <ele>877</ele>
        <time>2024-08-14T14:09:25Z</time>
      </trkpt>
      <trkpt lat="44.99517" lon="6.07754">
        <ele>877</ele>
        <time>2024-08-14T14:09:26Z</time>
      </trkpt>
      <trkpt lat="44.99518" lon="6.07751">
        <ele>877</ele>
        <time>2024-08-14T14:09:27Z</time>
      </trkpt>
      <trkpt lat="44.99518" lon="6.07751">
        <ele>877.2</ele>
        <time>2024-08-14T14:09:28Z</time>
      </trkpt>
      <trkpt lat="44.99519" lon="6.07748">
        <ele>877.6</ele>
        <time>2024-08-14T14:09:29Z</time>
      </trkpt>
      <trkpt lat="44.99519" lon="6.07748">
        <ele>877.6</ele>
        <time>2024-08-14T14:09:30Z</time>
      </trkpt>
      <trkpt lat="44.99521" lon="6.07745">
        <ele>877.6</ele>
        <time>2024-08-14T14:09:31Z</time>
      </trkpt>
      <trkpt lat="44.99521" lon="6.07745">
        <ele>877.6</ele>
        <time>2024-08-14T14:09:32Z</time>
      </trkpt>
      <trkpt lat="44.99521" lon="6.07745">
        <ele>878</ele>
        <time>2024-08-14T14:09:33Z</time>
      </trkpt>
      <trkpt lat="44.99522" lon="6.0774">
        <ele>878</ele>
        <time>2024-08-14T14:09:34Z</time>
      </trkpt>
      <trkpt lat="44.99523" lon="6.07738">
        <ele>878</ele>
        <time>2024-08-14T14:09:35Z</time>
      </trkpt>
      <trkpt lat="44.99523" lon="6.07738">
        <ele>878</ele>
        <time>2024-08-14T14:09:36Z</time>
      </trkpt>
      <trkpt lat="44.99525" lon="6.07735">
        <ele>878.2</ele>
        <time>2024-08-14T14:09:37Z</time>
      </trkpt>
      <trkpt lat="44.99525" lon="6.07735">
        <ele>878.2</ele>
        <time>2024-08-14T14:09:38Z</time>
      </trkpt>
      <trkpt lat="44.99527" lon="6.07731">
        <ele>878.2</ele>
        <time>2024-08-14T14:09:39Z</time>
      </trkpt>
      <trkpt lat="44.99527" lon="6.07731">
        <ele>878.2</ele>
        <time>2024-08-14T14:09:40Z</time>
      </trkpt>
      <trkpt lat="44.99529" lon="6.07728">
        <ele>878.4</ele>
        <time>2024-08-14T14:09:41Z</time>
      </trkpt>
      <trkpt lat="44.99529" lon="6.07728">
        <ele>878.6</ele>
        <time>2024-08-14T14:09:42Z</time>
      </trkpt>
      <trkpt lat="44.9953" lon="6.07725">
        <ele>878.6</ele>
        <time>2024-08-14T14:09:43Z</time>
      </trkpt>
      <trkpt lat="44.9953" lon="6.07725">
        <ele>878.6</ele>
        <time>2024-08-14T14:09:44Z</time>
      </trkpt>
      <trkpt lat="44.99531" lon="6.07721">
        <ele>878.6</ele>
        <time>2024-08-14T14:09:45Z</time>
      </trkpt>
      <trkpt lat="44.99531" lon="6.07721">
        <ele>878.8</ele>
        <time>2024-08-14T14:09:46Z</time>
      </trkpt>
      <trkpt lat="44.99531" lon="6.07721">
        <ele>878.8</ele>
        <time>2024-08-14T14:09:47Z</time>
      </trkpt>
      <trkpt lat="44.99532" lon="6.07715">
        <ele>878.8</ele>
        <time>2024-08-14T14:09:48Z</time>
      </trkpt>
      <trkpt lat="44.99533" lon="6.07714">
        <ele>878.8</ele>
        <time>2024-08-14T14:09:49Z</time>
      </trkpt>
      <trkpt lat="44.99533" lon="6.07714">
        <ele>879.2</ele>
        <time>2024-08-14T14:09:50Z</time>
      </trkpt>
      <trkpt lat="44.99533" lon="6.07714">
        <ele>879.2</ele>
        <time>2024-08-14T14:09:51Z</time>
      </trkpt>
      <trkpt lat="44.99534" lon="6.07708">
        <ele>879.4</ele>
        <time>2024-08-14T14:09:52Z</time>
      </trkpt>
      <trkpt lat="44.99534" lon="6.07706">
        <ele>879.4</ele>
        <time>2024-08-14T14:09:53Z</time>
      </trkpt>
      <trkpt lat="44.99534" lon="6.07706">
        <ele>879.4</ele>
        <time>2024-08-14T14:09:54Z</time>
      </trkpt>
      <trkpt lat="44.99534" lon="6.07706">
        <ele>879.6</ele>
        <time>2024-08-14T14:09:55Z</time>
      </trkpt>
      <trkpt lat="44.99536" lon="6.07701">
        <ele>879.6</ele>
        <time>2024-08-14T14:09:56Z</time>
      </trkpt>
      <trkpt lat="44.99537" lon="6.07699">
        <ele>879.6</ele>
        <time>2024-08-14T14:09:57Z</time>
      </trkpt>
      <trkpt lat="44.99537" lon="6.07699">
        <ele>879.6</ele>
        <time>2024-08-14T14:09:58Z</time>
      </trkpt>
      <trkpt lat="44.99537" lon="6.07699">
        <ele>879.8</ele>
        <time>2024-08-14T14:09:59Z</time>
      </trkpt>
      <trkpt lat="44.99539" lon="6.07695">
        <ele>880</ele>
        <time>2024-08-14T14:10:00Z</time>
      </trkpt>
      <trkpt lat="44.9954" lon="6.07693">
        <ele>880</ele>
        <time>2024-08-14T14:10:01Z</time>
      </trkpt>
      <trkpt lat="44.9954" lon="6.07693">
        <ele>880.2</ele>
        <time>2024-08-14T14:10:02Z</time>
      </trkpt>
      <trkpt lat="44.9954" lon="6.07693">
        <ele>880.4</ele>
        <time>2024-08-14T14:10:03Z</time>
      </trkpt>
      <trkpt lat="44.99543" lon="6.07688">
        <ele>880.6</ele>
        <time>2024-08-14T14:10:04Z</time>
      </trkpt>
      <trkpt lat="44.99543" lon="6.07687">
        <ele>880.6</ele>
        <time>2024-08-14T14:10:05Z</time>
      </trkpt>
      <trkpt lat="44.99543" lon="6.07687">
        <ele>880.6</ele>
        <time>2024-08-14T14:10:06Z</time>
      </trkpt>
      <trkpt lat="44.99545" lon="6.07683">
        <ele>880.4</ele>
        <time>2024-08-14T14:10:07Z</time>
      </trkpt>
      <trkpt lat="44.99545" lon="6.07683">
        <ele>880.4</ele>
        <time>2024-08-14T14:10:08Z</time>
      </trkpt>
      <trkpt lat="44.99547" lon="6.0768">
        <ele>880.4</ele>
        <time>2024-08-14T14:10:09Z</time>
      </trkpt>
      <trkpt lat="44.99547" lon="6.0768">
        <ele>880.6</ele>
        <time>2024-08-14T14:10:10Z</time>
      </trkpt>
      <trkpt lat="44.99547" lon="6.0768">
        <ele>880.4</ele>
        <time>2024-08-14T14:10:11Z</time>
      </trkpt>
      <trkpt lat="44.99549" lon="6.07675">
        <ele>880.6</ele>
        <time>2024-08-14T14:10:12Z</time>
      </trkpt>
      <trkpt lat="44.99551" lon="6.07673">
        <ele>880.6</ele>
        <time>2024-08-14T14:10:13Z</time>
      </trkpt>
      <trkpt lat="44.99551" lon="6.07673">
        <ele>880.6</ele>
        <time>2024-08-14T14:10:14Z</time>
      </trkpt>
      <trkpt lat="44.99552" lon="6.0767">
        <ele>880.8</ele>
        <time>2024-08-14T14:10:15Z</time>
      </trkpt>
      <trkpt lat="44.99552" lon="6.0767">
        <ele>880.8</ele>
        <time>2024-08-14T14:10:16Z</time>
      </trkpt>
      <trkpt lat="44.99554" lon="6.07667">
        <ele>881</ele>
        <time>2024-08-14T14:10:17Z</time>
      </trkpt>
      <trkpt lat="44.99554" lon="6.07667">
        <ele>880.8</ele>
        <time>2024-08-14T14:10:18Z</time>
      </trkpt>
      <trkpt lat="44.99554" lon="6.07667">
        <ele>881</ele>
        <time>2024-08-14T14:10:19Z</time>
      </trkpt>
      <trkpt lat="44.99557" lon="6.07662">
        <ele>881</ele>
        <time>2024-08-14T14:10:20Z</time>
      </trkpt>
      <trkpt lat="44.99558" lon="6.07661">
        <ele>881.2</ele>
        <time>2024-08-14T14:10:21Z</time>
      </trkpt>
      <trkpt lat="44.99559" lon="6.07659">
        <ele>881.2</ele>
        <time>2024-08-14T14:10:22Z</time>
      </trkpt>
      <trkpt lat="44.99559" lon="6.07659">
        <ele>881.2</ele>
        <time>2024-08-14T14:10:23Z</time>
      </trkpt>
      <trkpt lat="44.9956" lon="6.07655">
        <ele>881.2</ele>
        <time>2024-08-14T14:10:24Z</time>
      </trkpt>
      <trkpt lat="44.9956" lon="6.07655">
        <ele>881.2</ele>
        <time>2024-08-14T14:10:25Z</time>
      </trkpt>
      <trkpt lat="44.99562" lon="6.07652">
        <ele>881.2</ele>
        <time>2024-08-14T14:10:26Z</time>
      </trkpt>
      <trkpt lat="44.99562" lon="6.07652">
        <ele>881.2</ele>
        <time>2024-08-14T14:10:27Z</time>
      </trkpt>
      <trkpt lat="44.99564" lon="6.07649">
        <ele>881.2</ele>
        <time>2024-08-14T14:10:28Z</time>
      </trkpt>
      <trkpt lat="44.99564" lon="6.07649">
        <ele>881.4</ele>
        <time>2024-08-14T14:10:29Z</time>
      </trkpt>
      <trkpt lat="44.99565" lon="6.07646">
        <ele>881.4</ele>
        <time>2024-08-14T14:10:30Z</time>
      </trkpt>
      <trkpt lat="44.99567" lon="6.07644">
        <ele>881.2</ele>
        <time>2024-08-14T14:10:31Z</time>
      </trkpt>
      <trkpt lat="44.99567" lon="6.07644">
        <ele>881.2</ele>
        <time>2024-08-14T14:10:32Z</time>
      </trkpt>
      <trkpt lat="44.99568" lon="6.0764">
        <ele>881.2</ele>
        <time>2024-08-14T14:10:33Z</time>
      </trkpt>
      <trkpt lat="44.99569" lon="6.07638">
        <ele>881.2</ele>
        <time>2024-08-14T14:10:34Z</time>
      </trkpt>
      <trkpt lat="44.99569" lon="6.07638">
        <ele>881.2</ele>
        <time>2024-08-14T14:10:35Z</time>
      </trkpt>
      <trkpt lat="44.9957" lon="6.07635">
        <ele>881.4</ele>
        <time>2024-08-14T14:10:36Z</time>
      </trkpt>
      <trkpt lat="44.9957" lon="6.07635">
        <ele>881.4</ele>
        <time>2024-08-14T14:10:37Z</time>
      </trkpt>
      <trkpt lat="44.99571" lon="6.07631">
        <ele>881.4</ele>
        <time>2024-08-14T14:10:38Z</time>
      </trkpt>
      <trkpt lat="44.99571" lon="6.07631">
        <ele>881.4</ele>
        <time>2024-08-14T14:10:39Z</time>
      </trkpt>
      <trkpt lat="44.99572" lon="6.07627">
        <ele>881.2</ele>
        <time>2024-08-14T14:10:40Z</time>
      </trkpt>
      <trkpt lat="44.99573" lon="6.07625">
        <ele>881</ele>
        <time>2024-08-14T14:10:41Z</time>
      </trkpt>
      <trkpt lat="44.99573" lon="6.07625">
        <ele>881</ele>
        <time>2024-08-14T14:10:42Z</time>
      </trkpt>
      <trkpt lat="44.99573" lon="6.07625">
        <ele>881.2</ele>
        <time>2024-08-14T14:10:43Z</time>
      </trkpt>
      <trkpt lat="44.99575" lon="6.07621">
        <ele>881.2</ele>
        <time>2024-08-14T14:10:44Z</time>
      </trkpt>
      <trkpt lat="44.99575" lon="6.07621">
        <ele>881.2</ele>
        <time>2024-08-14T14:10:45Z</time>
      </trkpt>
      <trkpt lat="44.99575" lon="6.07618">
        <ele>881.2</ele>
        <time>2024-08-14T14:10:46Z</time>
      </trkpt>
      <trkpt lat="44.99575" lon="6.07618">
        <ele>881.2</ele>
        <time>2024-08-14T14:10:47Z</time>
      </trkpt>
      <trkpt lat="44.99576" lon="6.07615">
        <ele>881.2</ele>
        <time>2024-08-14T14:10:48Z</time>
      </trkpt>
      <trkpt lat="44.99576" lon="6.07615">
        <ele>881.2</ele>
        <time>2024-08-14T14:10:49Z</time>
      </trkpt>
      <trkpt lat="44.99576" lon="6.07615">
        <ele>881.2</ele>
        <time>2024-08-14T14:10:50Z</time>
      </trkpt>
      <trkpt lat="44.99578" lon="6.07609">
        <ele>881.2</ele>
        <time>2024-08-14T14:10:51Z</time>
      </trkpt>
      <trkpt lat="44.99578" lon="6.07607">
        <ele>881.2</ele>
        <time>2024-08-14T14:10:52Z</time>
      </trkpt>
      <trkpt lat="44.99578" lon="6.07607">
        <ele>881.4</ele>
        <time>2024-08-14T14:10:53Z</time>
      </trkpt>
      <trkpt lat="44.99579" lon="6.07603">
        <ele>881.4</ele>
        <time>2024-08-14T14:10:54Z</time>
      </trkpt>
      <trkpt lat="44.99579" lon="6.07603">
        <ele>881.2</ele>
        <time>2024-08-14T14:10:55Z</time>
      </trkpt>
      <trkpt lat="44.99579" lon="6.07599">
        <ele>881.2</ele>
        <time>2024-08-14T14:10:56Z</time>
      </trkpt>
      <trkpt lat="44.99579" lon="6.07599">
        <ele>881.2</ele>
        <time>2024-08-14T14:10:57Z</time>
      </trkpt>
      <trkpt lat="44.9958" lon="6.07595">
        <ele>881.2</ele>
        <time>2024-08-14T14:10:58Z</time>
      </trkpt>
      <trkpt lat="44.9958" lon="6.07595">
        <ele>881.2</ele>
        <time>2024-08-14T14:10:59Z</time>
      </trkpt>
      <trkpt lat="44.99581" lon="6.07592">
        <ele>881</ele>
        <time>2024-08-14T14:11:00Z</time>
      </trkpt>
      <trkpt lat="44.99581" lon="6.07592">
        <ele>881</ele>
        <time>2024-08-14T14:11:01Z</time>
      </trkpt>
      <trkpt lat="44.99581" lon="6.07588">
        <ele>881</ele>
        <time>2024-08-14T14:11:02Z</time>
      </trkpt>
      <trkpt lat="44.99583" lon="6.07586">
        <ele>881</ele>
        <time>2024-08-14T14:11:03Z</time>
      </trkpt>
      <trkpt lat="44.99583" lon="6.07586">
        <ele>881.2</ele>
        <time>2024-08-14T14:11:04Z</time>
      </trkpt>
      <trkpt lat="44.99583" lon="6.07582">
        <ele>881.2</ele>
        <time>2024-08-14T14:11:05Z</time>
      </trkpt>
      <trkpt lat="44.99583" lon="6.07582">
        <ele>881</ele>
        <time>2024-08-14T14:11:06Z</time>
      </trkpt>
      <trkpt lat="44.99583" lon="6.07582">
        <ele>881</ele>
        <time>2024-08-14T14:11:07Z</time>
      </trkpt>
      <trkpt lat="44.99584" lon="6.07576">
        <ele>880.8</ele>
        <time>2024-08-14T14:11:08Z</time>
      </trkpt>
      <trkpt lat="44.99585" lon="6.07574">
        <ele>880.6</ele>
        <time>2024-08-14T14:11:09Z</time>
      </trkpt>
      <trkpt lat="44.99585" lon="6.07574">
        <ele>880.6</ele>
        <time>2024-08-14T14:11:10Z</time>
      </trkpt>
      <trkpt lat="44.99585" lon="6.07574">
        <ele>880.6</ele>
        <time>2024-08-14T14:11:11Z</time>
      </trkpt>
      <trkpt lat="44.99587" lon="6.07569">
        <ele>880.6</ele>
        <time>2024-08-14T14:11:12Z</time>
      </trkpt>
      <trkpt lat="44.99587" lon="6.07567">
        <ele>880.6</ele>
        <time>2024-08-14T14:11:13Z</time>
      </trkpt>
      <trkpt lat="44.99587" lon="6.07567">
        <ele>880.6</ele>
        <time>2024-08-14T14:11:14Z</time>
      </trkpt>
      <trkpt lat="44.99587" lon="6.07567">
        <ele>880.6</ele>
        <time>2024-08-14T14:11:15Z</time>
      </trkpt>
      <trkpt lat="44.9959" lon="6.07562">
        <ele>880.4</ele>
        <time>2024-08-14T14:11:16Z</time>
      </trkpt>
      <trkpt lat="44.99591" lon="6.0756">
        <ele>880.4</ele>
        <time>2024-08-14T14:11:17Z</time>
      </trkpt>
      <trkpt lat="44.99591" lon="6.0756">
        <ele>880.6</ele>
        <time>2024-08-14T14:11:18Z</time>
      </trkpt>
      <trkpt lat="44.99591" lon="6.07556">
        <ele>880.6</ele>
        <time>2024-08-14T14:11:19Z</time>
      </trkpt>
      <trkpt lat="44.99591" lon="6.07556">
        <ele>880.6</ele>
        <time>2024-08-14T14:11:20Z</time>
      </trkpt>
      <trkpt lat="44.99592" lon="6.07552">
        <ele>880.4</ele>
        <time>2024-08-14T14:11:21Z</time>
      </trkpt>
      <trkpt lat="44.99592" lon="6.07552">
        <ele>880.2</ele>
        <time>2024-08-14T14:11:22Z</time>
      </trkpt>
      <trkpt lat="44.99593" lon="6.07549">
        <ele>880.2</ele>
        <time>2024-08-14T14:11:23Z</time>
      </trkpt>
      <trkpt lat="44.99593" lon="6.07549">
        <ele>880.2</ele>
        <time>2024-08-14T14:11:24Z</time>
      </trkpt>
      <trkpt lat="44.99593" lon="6.07545">
        <ele>880.2</ele>
        <time>2024-08-14T14:11:25Z</time>
      </trkpt>
      <trkpt lat="44.99593" lon="6.07545">
        <ele>880</ele>
        <time>2024-08-14T14:11:26Z</time>
      </trkpt>
      <trkpt lat="44.99595" lon="6.0754">
        <ele>880</ele>
        <time>2024-08-14T14:11:27Z</time>
      </trkpt>
      <trkpt lat="44.99595" lon="6.0754">
        <ele>879.6</ele>
        <time>2024-08-14T14:11:28Z</time>
      </trkpt>
      <trkpt lat="44.99596" lon="6.07536">
        <ele>879.6</ele>
        <time>2024-08-14T14:11:29Z</time>
      </trkpt>
      <trkpt lat="44.99596" lon="6.07536">
        <ele>879.8</ele>
        <time>2024-08-14T14:11:30Z</time>
      </trkpt>
      <trkpt lat="44.99597" lon="6.07533">
        <ele>879.8</ele>
        <time>2024-08-14T14:11:31Z</time>
      </trkpt>
      <trkpt lat="44.99598" lon="6.07531">
        <ele>879.6</ele>
        <time>2024-08-14T14:11:32Z</time>
      </trkpt>
      <trkpt lat="44.99598" lon="6.07531">
        <ele>879.6</ele>
        <time>2024-08-14T14:11:33Z</time>
      </trkpt>
      <trkpt lat="44.99598" lon="6.07531">
        <ele>879.6</ele>
        <time>2024-08-14T14:11:34Z</time>
      </trkpt>
      <trkpt lat="44.99601" lon="6.07525">
        <ele>879.6</ele>
        <time>2024-08-14T14:11:35Z</time>
      </trkpt>
      <trkpt lat="44.99602" lon="6.07524">
        <ele>879.4</ele>
        <time>2024-08-14T14:11:36Z</time>
      </trkpt>
      <trkpt lat="44.99602" lon="6.07524">
        <ele>879.4</ele>
        <time>2024-08-14T14:11:37Z</time>
      </trkpt>
      <trkpt lat="44.99604" lon="6.07521">
        <ele>879.4</ele>
        <time>2024-08-14T14:11:38Z</time>
      </trkpt>
      <trkpt lat="44.99604" lon="6.07521">
        <ele>879.2</ele>
        <time>2024-08-14T14:11:39Z</time>
      </trkpt>
      <trkpt lat="44.99605" lon="6.07518">
        <ele>879</ele>
        <time>2024-08-14T14:11:40Z</time>
      </trkpt>
      <trkpt lat="44.99605" lon="6.07518">
        <ele>879</ele>
        <time>2024-08-14T14:11:41Z</time>
      </trkpt>
      <trkpt lat="44.99607" lon="6.07514">
        <ele>879</ele>
        <time>2024-08-14T14:11:42Z</time>
      </trkpt>
      <trkpt lat="44.99607" lon="6.07514">
        <ele>879</ele>
        <time>2024-08-14T14:11:43Z</time>
      </trkpt>
      <trkpt lat="44.99608" lon="6.0751">
        <ele>879</ele>
        <time>2024-08-14T14:11:44Z</time>
      </trkpt>
      <trkpt lat="44.99608" lon="6.0751">
        <ele>879</ele>
        <time>2024-08-14T14:11:45Z</time>
      </trkpt>
      <trkpt lat="44.99608" lon="6.0751">
        <ele>879</ele>
        <time>2024-08-14T14:11:46Z</time>
      </trkpt>
      <trkpt lat="44.99611" lon="6.07504">
        <ele>879</ele>
        <time>2024-08-14T14:11:47Z</time>
      </trkpt>
      <trkpt lat="44.99611" lon="6.07503">
        <ele>878.8</ele>
        <time>2024-08-14T14:11:48Z</time>
      </trkpt>
      <trkpt lat="44.99611" lon="6.07503">
        <ele>878.6</ele>
        <time>2024-08-14T14:11:49Z</time>
      </trkpt>
      <trkpt lat="44.99613" lon="6.07499">
        <ele>878.6</ele>
        <time>2024-08-14T14:11:50Z</time>
      </trkpt>
      <trkpt lat="44.99614" lon="6.07497">
        <ele>878.6</ele>
        <time>2024-08-14T14:11:51Z</time>
      </trkpt>
      <trkpt lat="44.99614" lon="6.07497">
        <ele>878.6</ele>
        <time>2024-08-14T14:11:52Z</time>
      </trkpt>
      <trkpt lat="44.99616" lon="6.07494">
        <ele>878.6</ele>
        <time>2024-08-14T14:11:53Z</time>
      </trkpt>
      <trkpt lat="44.99616" lon="6.07494">
        <ele>878.6</ele>
        <time>2024-08-14T14:11:54Z</time>
      </trkpt>
      <trkpt lat="44.99619" lon="6.07491">
        <ele>878.6</ele>
        <time>2024-08-14T14:11:55Z</time>
      </trkpt>
      <trkpt lat="44.99619" lon="6.07491">
        <ele>878.4</ele>
        <time>2024-08-14T14:11:56Z</time>
      </trkpt>
      <trkpt lat="44.9962" lon="6.07487">
        <ele>878.4</ele>
        <time>2024-08-14T14:11:57Z</time>
      </trkpt>
      <trkpt lat="44.9962" lon="6.07487">
        <ele>878.4</ele>
        <time>2024-08-14T14:11:58Z</time>
      </trkpt>
      <trkpt lat="44.99622" lon="6.07484">
        <ele>878.4</ele>
        <time>2024-08-14T14:11:59Z</time>
      </trkpt>
      <trkpt lat="44.99622" lon="6.07484">
        <ele>878.4</ele>
        <time>2024-08-14T14:12:00Z</time>
      </trkpt>
      <trkpt lat="44.99624" lon="6.07481">
        <ele>878.4</ele>
        <time>2024-08-14T14:12:01Z</time>
      </trkpt>
      <trkpt lat="44.99624" lon="6.07481">
        <ele>878.4</ele>
        <time>2024-08-14T14:12:02Z</time>
      </trkpt>
      <trkpt lat="44.99627" lon="6.07477">
        <ele>878.4</ele>
        <time>2024-08-14T14:12:03Z</time>
      </trkpt>
      <trkpt lat="44.99627" lon="6.07477">
        <ele>878.4</ele>
        <time>2024-08-14T14:12:04Z</time>
      </trkpt>
      <trkpt lat="44.99629" lon="6.07475">
        <ele>878.2</ele>
        <time>2024-08-14T14:12:05Z</time>
      </trkpt>
      <trkpt lat="44.99629" lon="6.07475">
        <ele>878.2</ele>
        <time>2024-08-14T14:12:06Z</time>
      </trkpt>
      <trkpt lat="44.99632" lon="6.07472">
        <ele>878</ele>
        <time>2024-08-14T14:12:07Z</time>
      </trkpt>
      <trkpt lat="44.99632" lon="6.07472">
        <ele>878</ele>
        <time>2024-08-14T14:12:08Z</time>
      </trkpt>
      <trkpt lat="44.99634" lon="6.07471">
        <ele>878</ele>
        <time>2024-08-14T14:12:09Z</time>
      </trkpt>
      <trkpt lat="44.99634" lon="6.07471">
        <ele>878</ele>
        <time>2024-08-14T14:12:10Z</time>
      </trkpt>
      <trkpt lat="44.99637" lon="6.07468">
        <ele>878</ele>
        <time>2024-08-14T14:12:11Z</time>
      </trkpt>
      <trkpt lat="44.99637" lon="6.07468">
        <ele>878</ele>
        <time>2024-08-14T14:12:12Z</time>
      </trkpt>
      <trkpt lat="44.99639" lon="6.07465">
        <ele>878</ele>
        <time>2024-08-14T14:12:13Z</time>
      </trkpt>
      <trkpt lat="44.99639" lon="6.07465">
        <ele>878</ele>
        <time>2024-08-14T14:12:14Z</time>
      </trkpt>
      <trkpt lat="44.99641" lon="6.07462">
        <ele>878</ele>
        <time>2024-08-14T14:12:15Z</time>
      </trkpt>
      <trkpt lat="44.99641" lon="6.07462">
        <ele>878</ele>
        <time>2024-08-14T14:12:16Z</time>
      </trkpt>
      <trkpt lat="44.99644" lon="6.07461">
        <ele>878</ele>
        <time>2024-08-14T14:12:17Z</time>
      </trkpt>
      <trkpt lat="44.99644" lon="6.07461">
        <ele>878</ele>
        <time>2024-08-14T14:12:18Z</time>
      </trkpt>
      <trkpt lat="44.99646" lon="6.07458">
        <ele>878</ele>
        <time>2024-08-14T14:12:19Z</time>
      </trkpt>
      <trkpt lat="44.99648" lon="6.07457">
        <ele>878</ele>
        <time>2024-08-14T14:12:20Z</time>
      </trkpt>
      <trkpt lat="44.99648" lon="6.07457">
        <ele>878</ele>
        <time>2024-08-14T14:12:21Z</time>
      </trkpt>
      <trkpt lat="44.9965" lon="6.07456">
        <ele>877.8</ele>
        <time>2024-08-14T14:12:22Z</time>
      </trkpt>
      <trkpt lat="44.99653" lon="6.07455">
        <ele>877.6</ele>
        <time>2024-08-14T14:12:23Z</time>
      </trkpt>
      <trkpt lat="44.99653" lon="6.07455">
        <ele>877.6</ele>
        <time>2024-08-14T14:12:24Z</time>
      </trkpt>
      <trkpt lat="44.99655" lon="6.07452">
        <ele>877.4</ele>
        <time>2024-08-14T14:12:25Z</time>
      </trkpt>
      <trkpt lat="44.99657" lon="6.07451">
        <ele>877.2</ele>
        <time>2024-08-14T14:12:26Z</time>
      </trkpt>
      <trkpt lat="44.99657" lon="6.07451">
        <ele>877.2</ele>
        <time>2024-08-14T14:12:27Z</time>
      </trkpt>
      <trkpt lat="44.99659" lon="6.07449">
        <ele>877.2</ele>
        <time>2024-08-14T14:12:28Z</time>
      </trkpt>
      <trkpt lat="44.99659" lon="6.07449">
        <ele>877</ele>
        <time>2024-08-14T14:12:29Z</time>
      </trkpt>
      <trkpt lat="44.99659" lon="6.07449">
        <ele>877</ele>
        <time>2024-08-14T14:12:30Z</time>
      </trkpt>
      <trkpt lat="44.99662" lon="6.07447">
        <ele>877</ele>
        <time>2024-08-14T14:12:31Z</time>
      </trkpt>
      <trkpt lat="44.99664" lon="6.07446">
        <ele>877</ele>
        <time>2024-08-14T14:12:32Z</time>
      </trkpt>
      <trkpt lat="44.99664" lon="6.07446">
        <ele>876.8</ele>
        <time>2024-08-14T14:12:33Z</time>
      </trkpt>
      <trkpt lat="44.99666" lon="6.07444">
        <ele>876.8</ele>
        <time>2024-08-14T14:12:34Z</time>
      </trkpt>
      <trkpt lat="44.99666" lon="6.07444">
        <ele>876.6</ele>
        <time>2024-08-14T14:12:35Z</time>
      </trkpt>
      <trkpt lat="44.99669" lon="6.07443">
        <ele>876.6</ele>
        <time>2024-08-14T14:12:36Z</time>
      </trkpt>
      <trkpt lat="44.99669" lon="6.07443">
        <ele>876.6</ele>
        <time>2024-08-14T14:12:37Z</time>
      </trkpt>
      <trkpt lat="44.99672" lon="6.07441">
        <ele>876.4</ele>
        <time>2024-08-14T14:12:38Z</time>
      </trkpt>
      <trkpt lat="44.99672" lon="6.07441">
        <ele>876.4</ele>
        <time>2024-08-14T14:12:39Z</time>
      </trkpt>
      <trkpt lat="44.99675" lon="6.07441">
        <ele>876</ele>
        <time>2024-08-14T14:12:40Z</time>
      </trkpt>
      <trkpt lat="44.99675" lon="6.07441">
        <ele>876</ele>
        <time>2024-08-14T14:12:41Z</time>
      </trkpt>
      <trkpt lat="44.99677" lon="6.0744">
        <ele>875.8</ele>
        <time>2024-08-14T14:12:42Z</time>
      </trkpt>
      <trkpt lat="44.99677" lon="6.0744">
        <ele>875.8</ele>
        <time>2024-08-14T14:12:43Z</time>
      </trkpt>
      <trkpt lat="44.9968" lon="6.07439">
        <ele>875.8</ele>
        <time>2024-08-14T14:12:44Z</time>
      </trkpt>
      <trkpt lat="44.9968" lon="6.07439">
        <ele>875.8</ele>
        <time>2024-08-14T14:12:45Z</time>
      </trkpt>
      <trkpt lat="44.99683" lon="6.07438">
        <ele>875.8</ele>
        <time>2024-08-14T14:12:46Z</time>
      </trkpt>
      <trkpt lat="44.99683" lon="6.07438">
        <ele>875.6</ele>
        <time>2024-08-14T14:12:47Z</time>
      </trkpt>
      <trkpt lat="44.99686" lon="6.07438">
        <ele>875.6</ele>
        <time>2024-08-14T14:12:48Z</time>
      </trkpt>
      <trkpt lat="44.99688" lon="6.07437">
        <ele>875.4</ele>
        <time>2024-08-14T14:12:49Z</time>
      </trkpt>
      <trkpt lat="44.99688" lon="6.07437">
        <ele>875.2</ele>
        <time>2024-08-14T14:12:50Z</time>
      </trkpt>
      <trkpt lat="44.99691" lon="6.07437">
        <ele>875.2</ele>
        <time>2024-08-14T14:12:51Z</time>
      </trkpt>
      <trkpt lat="44.99691" lon="6.07437">
        <ele>875.2</ele>
        <time>2024-08-14T14:12:52Z</time>
      </trkpt>
      <trkpt lat="44.99694" lon="6.07435">
        <ele>874.8</ele>
        <time>2024-08-14T14:12:53Z</time>
      </trkpt>
      <trkpt lat="44.99694" lon="6.07435">
        <ele>874.8</ele>
        <time>2024-08-14T14:12:54Z</time>
      </trkpt>
      <trkpt lat="44.99696" lon="6.07433">
        <ele>874.8</ele>
        <time>2024-08-14T14:12:55Z</time>
      </trkpt>
      <trkpt lat="44.99696" lon="6.07433">
        <ele>874.6</ele>
        <time>2024-08-14T14:12:56Z</time>
      </trkpt>
      <trkpt lat="44.99699" lon="6.07432">
        <ele>874.2</ele>
        <time>2024-08-14T14:12:57Z</time>
      </trkpt>
      <trkpt lat="44.99699" lon="6.07432">
        <ele>874.2</ele>
        <time>2024-08-14T14:12:58Z</time>
      </trkpt>
      <trkpt lat="44.99701" lon="6.07431">
        <ele>874.2</ele>
        <time>2024-08-14T14:12:59Z</time>
      </trkpt>
      <trkpt lat="44.99701" lon="6.07431">
        <ele>874.2</ele>
        <time>2024-08-14T14:13:00Z</time>
      </trkpt>
      <trkpt lat="44.99704" lon="6.07431">
        <ele>874</ele>
        <time>2024-08-14T14:13:01Z</time>
      </trkpt>
      <trkpt lat="44.99706" lon="6.0743">
        <ele>873.8</ele>
        <time>2024-08-14T14:13:02Z</time>
      </trkpt>
      <trkpt lat="44.99708" lon="6.0743">
        <ele>873.8</ele>
        <time>2024-08-14T14:13:03Z</time>
      </trkpt>
      <trkpt lat="44.99708" lon="6.0743">
        <ele>873.8</ele>
        <time>2024-08-14T14:13:04Z</time>
      </trkpt>
      <trkpt lat="44.99708" lon="6.0743">
        <ele>873.8</ele>
        <time>2024-08-14T14:13:05Z</time>
      </trkpt>
      <trkpt lat="44.99712" lon="6.07427">
        <ele>873.8</ele>
        <time>2024-08-14T14:13:06Z</time>
      </trkpt>
      <trkpt lat="44.99712" lon="6.07427">
        <ele>873.6</ele>
        <time>2024-08-14T14:13:07Z</time>
      </trkpt>
      <trkpt lat="44.99714" lon="6.07426">
        <ele>873.6</ele>
        <time>2024-08-14T14:13:08Z</time>
      </trkpt>
      <trkpt lat="44.99715" lon="6.07425">
        <ele>873.4</ele>
        <time>2024-08-14T14:13:09Z</time>
      </trkpt>
      <trkpt lat="44.99715" lon="6.07425">
        <ele>873.4</ele>
        <time>2024-08-14T14:13:10Z</time>
      </trkpt>
      <trkpt lat="44.99718" lon="6.07424">
        <ele>873.2</ele>
        <time>2024-08-14T14:13:11Z</time>
      </trkpt>
      <trkpt lat="44.99718" lon="6.07424">
        <ele>873</ele>
        <time>2024-08-14T14:13:12Z</time>
      </trkpt>
      <trkpt lat="44.99724" lon="6.07425">
        <ele>873</ele>
        <time>2024-08-14T14:13:13Z</time>
      </trkpt>
      <trkpt lat="44.99725" lon="6.07426">
        <ele>873</ele>
        <time>2024-08-14T14:13:14Z</time>
      </trkpt>
      <trkpt lat="44.99726" lon="6.07426">
        <ele>872.6</ele>
        <time>2024-08-14T14:13:15Z</time>
      </trkpt>
      <trkpt lat="44.99728" lon="6.07426">
        <ele>872.6</ele>
        <time>2024-08-14T14:13:16Z</time>
      </trkpt>
      <trkpt lat="44.99728" lon="6.07426">
        <ele>872.6</ele>
        <time>2024-08-14T14:13:17Z</time>
      </trkpt>
      <trkpt lat="44.99732" lon="6.07425">
        <ele>872.4</ele>
        <time>2024-08-14T14:13:18Z</time>
      </trkpt>
      <trkpt lat="44.99732" lon="6.07425">
        <ele>872</ele>
        <time>2024-08-14T14:13:19Z</time>
      </trkpt>
      <trkpt lat="44.99734" lon="6.07424">
        <ele>872</ele>
        <time>2024-08-14T14:13:20Z</time>
      </trkpt>
      <trkpt lat="44.99734" lon="6.07424">
        <ele>872</ele>
        <time>2024-08-14T14:13:21Z</time>
      </trkpt>
      <trkpt lat="44.99736" lon="6.07421">
        <ele>871.8</ele>
        <time>2024-08-14T14:13:22Z</time>
      </trkpt>
      <trkpt lat="44.99736" lon="6.07421">
        <ele>872</ele>
        <time>2024-08-14T14:13:23Z</time>
      </trkpt>
      <trkpt lat="44.99739" lon="6.07419">
        <ele>872</ele>
        <time>2024-08-14T14:13:24Z</time>
      </trkpt>
      <trkpt lat="44.99739" lon="6.07419">
        <ele>871.8</ele>
        <time>2024-08-14T14:13:25Z</time>
      </trkpt>
      <trkpt lat="44.99741" lon="6.07417">
        <ele>871.6</ele>
        <time>2024-08-14T14:13:26Z</time>
      </trkpt>
      <trkpt lat="44.99741" lon="6.07417">
        <ele>871.6</ele>
        <time>2024-08-14T14:13:27Z</time>
      </trkpt>
      <trkpt lat="44.99743" lon="6.07415">
        <ele>871.4</ele>
        <time>2024-08-14T14:13:28Z</time>
      </trkpt>
      <trkpt lat="44.99743" lon="6.07415">
        <ele>871.2</ele>
        <time>2024-08-14T14:13:29Z</time>
      </trkpt>
      <trkpt lat="44.99745" lon="6.07412">
        <ele>871.2</ele>
        <time>2024-08-14T14:13:30Z</time>
      </trkpt>
      <trkpt lat="44.99745" lon="6.07412">
        <ele>871</ele>
        <time>2024-08-14T14:13:31Z</time>
      </trkpt>
      <trkpt lat="44.99747" lon="6.0741">
        <ele>871</ele>
        <time>2024-08-14T14:13:32Z</time>
      </trkpt>
      <trkpt lat="44.99747" lon="6.0741">
        <ele>871</ele>
        <time>2024-08-14T14:13:33Z</time>
      </trkpt>
      <trkpt lat="44.99749" lon="6.07407">
        <ele>870.8</ele>
        <time>2024-08-14T14:13:34Z</time>
      </trkpt>
      <trkpt lat="44.99749" lon="6.07407">
        <ele>870.8</ele>
        <time>2024-08-14T14:13:35Z</time>
      </trkpt>
      <trkpt lat="44.99749" lon="6.07407">
        <ele>870.8</ele>
        <time>2024-08-14T14:13:36Z</time>
      </trkpt>
      <trkpt lat="44.99753" lon="6.07403">
        <ele>870.8</ele>
        <time>2024-08-14T14:13:37Z</time>
      </trkpt>
      <trkpt lat="44.99754" lon="6.07403">
        <ele>870.8</ele>
        <time>2024-08-14T14:13:38Z</time>
      </trkpt>
      <trkpt lat="44.99756" lon="6.07402">
        <ele>870.4</ele>
        <time>2024-08-14T14:13:39Z</time>
      </trkpt>
      <trkpt lat="44.99757" lon="6.07401">
        <ele>870.4</ele>
        <time>2024-08-14T14:13:40Z</time>
      </trkpt>
      <trkpt lat="44.99757" lon="6.07401">
        <ele>870</ele>
        <time>2024-08-14T14:13:41Z</time>
      </trkpt>
      <trkpt lat="44.9976" lon="6.07399">
        <ele>870</ele>
        <time>2024-08-14T14:13:42Z</time>
      </trkpt>
      <trkpt lat="44.9976" lon="6.07399">
        <ele>870</ele>
        <time>2024-08-14T14:13:43Z</time>
      </trkpt>
      <trkpt lat="44.99764" lon="6.07397">
        <ele>870</ele>
        <time>2024-08-14T14:13:44Z</time>
      </trkpt>
      <trkpt lat="44.99764" lon="6.07396">
        <ele>870</ele>
        <time>2024-08-14T14:13:45Z</time>
      </trkpt>
      <trkpt lat="44.99764" lon="6.07396">
        <ele>869.6</ele>
        <time>2024-08-14T14:13:46Z</time>
      </trkpt>
      <trkpt lat="44.99767" lon="6.07394">
        <ele>869.4</ele>
        <time>2024-08-14T14:13:47Z</time>
      </trkpt>
      <trkpt lat="44.99767" lon="6.07394">
        <ele>869.2</ele>
        <time>2024-08-14T14:13:48Z</time>
      </trkpt>
      <trkpt lat="44.9977" lon="6.07392">
        <ele>869.2</ele>
        <time>2024-08-14T14:13:49Z</time>
      </trkpt>
      <trkpt lat="44.9977" lon="6.07392">
        <ele>869.2</ele>
        <time>2024-08-14T14:13:50Z</time>
      </trkpt>
      <trkpt lat="44.99772" lon="6.0739">
        <ele>868.8</ele>
        <time>2024-08-14T14:13:51Z</time>
      </trkpt>
      <trkpt lat="44.99772" lon="6.0739">
        <ele>869</ele>
        <time>2024-08-14T14:13:52Z</time>
      </trkpt>
      <trkpt lat="44.99775" lon="6.07389">
        <ele>869</ele>
        <time>2024-08-14T14:13:53Z</time>
      </trkpt>
      <trkpt lat="44.99775" lon="6.07389">
        <ele>868.8</ele>
        <time>2024-08-14T14:13:54Z</time>
      </trkpt>
      <trkpt lat="44.99777" lon="6.07386">
        <ele>868.8</ele>
        <time>2024-08-14T14:13:55Z</time>
      </trkpt>
      <trkpt lat="44.99777" lon="6.07386">
        <ele>868.6</ele>
        <time>2024-08-14T14:13:56Z</time>
      </trkpt>
      <trkpt lat="44.99779" lon="6.07384">
        <ele>868.6</ele>
        <time>2024-08-14T14:13:57Z</time>
      </trkpt>
      <trkpt lat="44.99781" lon="6.07383">
        <ele>868.4</ele>
        <time>2024-08-14T14:13:58Z</time>
      </trkpt>
      <trkpt lat="44.99781" lon="6.07383">
        <ele>868.4</ele>
        <time>2024-08-14T14:13:59Z</time>
      </trkpt>
      <trkpt lat="44.99783" lon="6.0738">
        <ele>868</ele>
        <time>2024-08-14T14:14:00Z</time>
      </trkpt>
      <trkpt lat="44.99783" lon="6.0738">
        <ele>868</ele>
        <time>2024-08-14T14:14:01Z</time>
      </trkpt>
      <trkpt lat="44.99786" lon="6.07378">
        <ele>868</ele>
        <time>2024-08-14T14:14:02Z</time>
      </trkpt>
      <trkpt lat="44.99786" lon="6.07378">
        <ele>868</ele>
        <time>2024-08-14T14:14:03Z</time>
      </trkpt>
      <trkpt lat="44.99789" lon="6.07376">
        <ele>868</ele>
        <time>2024-08-14T14:14:04Z</time>
      </trkpt>
      <trkpt lat="44.99789" lon="6.07376">
        <ele>867.8</ele>
        <time>2024-08-14T14:14:05Z</time>
      </trkpt>
      <trkpt lat="44.99791" lon="6.07375">
        <ele>867.8</ele>
        <time>2024-08-14T14:14:06Z</time>
      </trkpt>
      <trkpt lat="44.99794" lon="6.07375">
        <ele>867.8</ele>
        <time>2024-08-14T14:14:07Z</time>
      </trkpt>
      <trkpt lat="44.99794" lon="6.07375">
        <ele>867.8</ele>
        <time>2024-08-14T14:14:08Z</time>
      </trkpt>
      <trkpt lat="44.99796" lon="6.07373">
        <ele>867.6</ele>
        <time>2024-08-14T14:14:09Z</time>
      </trkpt>
      <trkpt lat="44.99796" lon="6.07373">
        <ele>867.4</ele>
        <time>2024-08-14T14:14:10Z</time>
      </trkpt>
      <trkpt lat="44.99799" lon="6.0737">
        <ele>867.4</ele>
        <time>2024-08-14T14:14:11Z</time>
      </trkpt>
      <trkpt lat="44.99799" lon="6.0737">
        <ele>867.4</ele>
        <time>2024-08-14T14:14:12Z</time>
      </trkpt>
      <trkpt lat="44.99799" lon="6.0737">
        <ele>867.4</ele>
        <time>2024-08-14T14:14:13Z</time>
      </trkpt>
      <trkpt lat="44.99802" lon="6.07365">
        <ele>867</ele>
        <time>2024-08-14T14:14:14Z</time>
      </trkpt>
      <trkpt lat="44.99802" lon="6.07364">
        <ele>867</ele>
        <time>2024-08-14T14:14:15Z</time>
      </trkpt>
      <trkpt lat="44.99802" lon="6.07364">
        <ele>866.8</ele>
        <time>2024-08-14T14:14:16Z</time>
      </trkpt>
      <trkpt lat="44.99805" lon="6.07362">
        <ele>866.8</ele>
        <time>2024-08-14T14:14:17Z</time>
      </trkpt>
      <trkpt lat="44.99805" lon="6.07362">
        <ele>866.6</ele>
        <time>2024-08-14T14:14:18Z</time>
      </trkpt>
      <trkpt lat="44.99807" lon="6.07359">
        <ele>866.2</ele>
        <time>2024-08-14T14:14:19Z</time>
      </trkpt>
      <trkpt lat="44.99807" lon="6.07359">
        <ele>866.2</ele>
        <time>2024-08-14T14:14:20Z</time>
      </trkpt>
      <trkpt lat="44.99809" lon="6.07356">
        <ele>866.2</ele>
        <time>2024-08-14T14:14:21Z</time>
      </trkpt>
      <trkpt lat="44.99809" lon="6.07356">
        <ele>866.4</ele>
        <time>2024-08-14T14:14:22Z</time>
      </trkpt>
      <trkpt lat="44.99811" lon="6.07353">
        <ele>866.4</ele>
        <time>2024-08-14T14:14:23Z</time>
      </trkpt>
      <trkpt lat="44.99813" lon="6.07351">
        <ele>866.2</ele>
        <time>2024-08-14T14:14:24Z</time>
      </trkpt>
      <trkpt lat="44.99813" lon="6.07351">
        <ele>865.8</ele>
        <time>2024-08-14T14:14:25Z</time>
      </trkpt>
      <trkpt lat="44.99815" lon="6.07348">
        <ele>865.6</ele>
        <time>2024-08-14T14:14:26Z</time>
      </trkpt>
      <trkpt lat="44.99815" lon="6.07348">
        <ele>865.6</ele>
        <time>2024-08-14T14:14:27Z</time>
      </trkpt>
      <trkpt lat="44.99817" lon="6.07344">
        <ele>865.6</ele>
        <time>2024-08-14T14:14:28Z</time>
      </trkpt>
      <trkpt lat="44.99817" lon="6.07344">
        <ele>865.4</ele>
        <time>2024-08-14T14:14:29Z</time>
      </trkpt>
      <trkpt lat="44.99817" lon="6.07344">
        <ele>865</ele>
        <time>2024-08-14T14:14:30Z</time>
      </trkpt>
      <trkpt lat="44.99819" lon="6.07339">
        <ele>865</ele>
        <time>2024-08-14T14:14:31Z</time>
      </trkpt>
      <trkpt lat="44.9982" lon="6.07337">
        <ele>865</ele>
        <time>2024-08-14T14:14:32Z</time>
      </trkpt>
      <trkpt lat="44.9982" lon="6.07337">
        <ele>865</ele>
        <time>2024-08-14T14:14:33Z</time>
      </trkpt>
      <trkpt lat="44.99821" lon="6.07335">
        <ele>864.8</ele>
        <time>2024-08-14T14:14:34Z</time>
      </trkpt>
      <trkpt lat="44.99821" lon="6.07335">
        <ele>864.8</ele>
        <time>2024-08-14T14:14:35Z</time>
      </trkpt>
      <trkpt lat="44.99823" lon="6.07331">
        <ele>864.6</ele>
        <time>2024-08-14T14:14:36Z</time>
      </trkpt>
      <trkpt lat="44.99823" lon="6.07331">
        <ele>864.6</ele>
        <time>2024-08-14T14:14:37Z</time>
      </trkpt>
      <trkpt lat="44.99825" lon="6.07328">
        <ele>864.6</ele>
        <time>2024-08-14T14:14:38Z</time>
      </trkpt>
      <trkpt lat="44.99825" lon="6.07328">
        <ele>864.4</ele>
        <time>2024-08-14T14:14:39Z</time>
      </trkpt>
      <trkpt lat="44.99827" lon="6.07324">
        <ele>864.2</ele>
        <time>2024-08-14T14:14:40Z</time>
      </trkpt>
      <trkpt lat="44.99827" lon="6.07324">
        <ele>864.2</ele>
        <time>2024-08-14T14:14:41Z</time>
      </trkpt>
      <trkpt lat="44.99829" lon="6.0732">
        <ele>864.2</ele>
        <time>2024-08-14T14:14:42Z</time>
      </trkpt>
      <trkpt lat="44.9983" lon="6.07318">
        <ele>864.2</ele>
        <time>2024-08-14T14:14:43Z</time>
      </trkpt>
      <trkpt lat="44.9983" lon="6.07318">
        <ele>864</ele>
        <time>2024-08-14T14:14:44Z</time>
      </trkpt>
      <trkpt lat="44.99832" lon="6.07314">
        <ele>864</ele>
        <time>2024-08-14T14:14:45Z</time>
      </trkpt>
      <trkpt lat="44.99832" lon="6.07314">
        <ele>863.8</ele>
        <time>2024-08-14T14:14:46Z</time>
      </trkpt>
      <trkpt lat="44.99834" lon="6.07311">
        <ele>863.6</ele>
        <time>2024-08-14T14:14:47Z</time>
      </trkpt>
      <trkpt lat="44.99834" lon="6.07311">
        <ele>863.6</ele>
        <time>2024-08-14T14:14:48Z</time>
      </trkpt>
      <trkpt lat="44.99834" lon="6.07311">
        <ele>863.4</ele>
        <time>2024-08-14T14:14:49Z</time>
      </trkpt>
      <trkpt lat="44.99837" lon="6.07307">
        <ele>863.2</ele>
        <time>2024-08-14T14:14:50Z</time>
      </trkpt>
      <trkpt lat="44.99837" lon="6.07306">
        <ele>863.2</ele>
        <time>2024-08-14T14:14:51Z</time>
      </trkpt>
      <trkpt lat="44.99837" lon="6.07306">
        <ele>863.2</ele>
        <time>2024-08-14T14:14:52Z</time>
      </trkpt>
      <trkpt lat="44.9984" lon="6.07304">
        <ele>863</ele>
        <time>2024-08-14T14:14:53Z</time>
      </trkpt>
      <trkpt lat="44.9984" lon="6.07304">
        <ele>862.8</ele>
        <time>2024-08-14T14:14:54Z</time>
      </trkpt>
      <trkpt lat="44.99843" lon="6.073">
        <ele>862.8</ele>
        <time>2024-08-14T14:14:55Z</time>
      </trkpt>
      <trkpt lat="44.99844" lon="6.07299">
        <ele>862.8</ele>
        <time>2024-08-14T14:14:56Z</time>
      </trkpt>
      <trkpt lat="44.99844" lon="6.07299">
        <ele>862.8</ele>
        <time>2024-08-14T14:14:57Z</time>
      </trkpt>
      <trkpt lat="44.99846" lon="6.07296">
        <ele>862.6</ele>
        <time>2024-08-14T14:14:58Z</time>
      </trkpt>
      <trkpt lat="44.99846" lon="6.07296">
        <ele>862.6</ele>
        <time>2024-08-14T14:14:59Z</time>
      </trkpt>
      <trkpt lat="44.99848" lon="6.07294">
        <ele>862.2</ele>
        <time>2024-08-14T14:15:00Z</time>
      </trkpt>
      <trkpt lat="44.99848" lon="6.07294">
        <ele>862.2</ele>
        <time>2024-08-14T14:15:01Z</time>
      </trkpt>
      <trkpt lat="44.99851" lon="6.07292">
        <ele>862.2</ele>
        <time>2024-08-14T14:15:02Z</time>
      </trkpt>
      <trkpt lat="44.99851" lon="6.07292">
        <ele>862.2</ele>
        <time>2024-08-14T14:15:03Z</time>
      </trkpt>
      <trkpt lat="44.99851" lon="6.07292">
        <ele>861.8</ele>
        <time>2024-08-14T14:15:04Z</time>
      </trkpt>
      <trkpt lat="44.99855" lon="6.0729">
        <ele>861.8</ele>
        <time>2024-08-14T14:15:05Z</time>
      </trkpt>
      <trkpt lat="44.99857" lon="6.07288">
        <ele>861.8</ele>
        <time>2024-08-14T14:15:06Z</time>
      </trkpt>
      <trkpt lat="44.99857" lon="6.07288">
        <ele>861.8</ele>
        <time>2024-08-14T14:15:07Z</time>
      </trkpt>
      <trkpt lat="44.9986" lon="6.07286">
        <ele>861.6</ele>
        <time>2024-08-14T14:15:08Z</time>
      </trkpt>
      <trkpt lat="44.9986" lon="6.07286">
        <ele>861.4</ele>
        <time>2024-08-14T14:15:09Z</time>
      </trkpt>
      <trkpt lat="44.99863" lon="6.07285">
        <ele>861.2</ele>
        <time>2024-08-14T14:15:10Z</time>
      </trkpt>
      <trkpt lat="44.99863" lon="6.07285">
        <ele>861</ele>
        <time>2024-08-14T14:15:11Z</time>
      </trkpt>
      <trkpt lat="44.99865" lon="6.07283">
        <ele>861</ele>
        <time>2024-08-14T14:15:12Z</time>
      </trkpt>
      <trkpt lat="44.99865" lon="6.07283">
        <ele>861</ele>
        <time>2024-08-14T14:15:13Z</time>
      </trkpt>
      <trkpt lat="44.99867" lon="6.07281">
        <ele>860.8</ele>
        <time>2024-08-14T14:15:14Z</time>
      </trkpt>
      <trkpt lat="44.99867" lon="6.07281">
        <ele>860.6</ele>
        <time>2024-08-14T14:15:15Z</time>
      </trkpt>
      <trkpt lat="44.99869" lon="6.0728">
        <ele>860.2</ele>
        <time>2024-08-14T14:15:16Z</time>
      </trkpt>
      <trkpt lat="44.99869" lon="6.0728">
        <ele>859.8</ele>
        <time>2024-08-14T14:15:17Z</time>
      </trkpt>
      <trkpt lat="44.99871" lon="6.07278">
        <ele>859.8</ele>
        <time>2024-08-14T14:15:18Z</time>
      </trkpt>
      <trkpt lat="44.99871" lon="6.07278">
        <ele>859.8</ele>
        <time>2024-08-14T14:15:19Z</time>
      </trkpt>
      <trkpt lat="44.99871" lon="6.07278">
        <ele>859.8</ele>
        <time>2024-08-14T14:15:20Z</time>
      </trkpt>
      <trkpt lat="44.99875" lon="6.07275">
        <ele>859.8</ele>
        <time>2024-08-14T14:15:21Z</time>
      </trkpt>
      <trkpt lat="44.99877" lon="6.07275">
        <ele>859.8</ele>
        <time>2024-08-14T14:15:22Z</time>
      </trkpt>
      <trkpt lat="44.99878" lon="6.07273">
        <ele>859.4</ele>
        <time>2024-08-14T14:15:23Z</time>
      </trkpt>
      <trkpt lat="44.9988" lon="6.07272">
        <ele>859.2</ele>
        <time>2024-08-14T14:15:24Z</time>
      </trkpt>
      <trkpt lat="44.99882" lon="6.07271">
        <ele>859</ele>
        <time>2024-08-14T14:15:25Z</time>
      </trkpt>
      <trkpt lat="44.99882" lon="6.07271">
        <ele>859</ele>
        <time>2024-08-14T14:15:26Z</time>
      </trkpt>
      <trkpt lat="44.99885" lon="6.0727">
        <ele>859</ele>
        <time>2024-08-14T14:15:27Z</time>
      </trkpt>
      <trkpt lat="44.99886" lon="6.07269">
        <ele>859</ele>
        <time>2024-08-14T14:15:28Z</time>
      </trkpt>
      <trkpt lat="44.99886" lon="6.07269">
        <ele>858.8</ele>
        <time>2024-08-14T14:15:29Z</time>
      </trkpt>
      <trkpt lat="44.99886" lon="6.07269">
        <ele>858.8</ele>
        <time>2024-08-14T14:15:30Z</time>
      </trkpt>
      <trkpt lat="44.9989" lon="6.07264">
        <ele>858.6</ele>
        <time>2024-08-14T14:15:31Z</time>
      </trkpt>
      <trkpt lat="44.99891" lon="6.07263">
        <ele>858.6</ele>
        <time>2024-08-14T14:15:32Z</time>
      </trkpt>
      <trkpt lat="44.99891" lon="6.07263">
        <ele>858.4</ele>
        <time>2024-08-14T14:15:33Z</time>
      </trkpt>
      <trkpt lat="44.99894" lon="6.07262">
        <ele>858.4</ele>
        <time>2024-08-14T14:15:34Z</time>
      </trkpt>
      <trkpt lat="44.99895" lon="6.07261">
        <ele>858.4</ele>
        <time>2024-08-14T14:15:35Z</time>
      </trkpt>
      <trkpt lat="44.99895" lon="6.07261">
        <ele>858.6</ele>
        <time>2024-08-14T14:15:36Z</time>
      </trkpt>
      <trkpt lat="44.99895" lon="6.07261">
        <ele>858.2</ele>
        <time>2024-08-14T14:15:37Z</time>
      </trkpt>
      <trkpt lat="44.99899" lon="6.07258">
        <ele>858</ele>
        <time>2024-08-14T14:15:38Z</time>
      </trkpt>
      <trkpt lat="44.999" lon="6.07257">
        <ele>858</ele>
        <time>2024-08-14T14:15:39Z</time>
      </trkpt>
      <trkpt lat="44.99902" lon="6.07256">
        <ele>857.8</ele>
        <time>2024-08-14T14:15:40Z</time>
      </trkpt>
      <trkpt lat="44.99903" lon="6.07255">
        <ele>857.6</ele>
        <time>2024-08-14T14:15:41Z</time>
      </trkpt>
      <trkpt lat="44.99904" lon="6.07254">
        <ele>857.4</ele>
        <time>2024-08-14T14:15:42Z</time>
      </trkpt>
      <trkpt lat="44.99904" lon="6.07254">
        <ele>857.4</ele>
        <time>2024-08-14T14:15:43Z</time>
      </trkpt>
      <trkpt lat="44.99907" lon="6.07252">
        <ele>857.4</ele>
        <time>2024-08-14T14:15:44Z</time>
      </trkpt>
      <trkpt lat="44.99907" lon="6.07252">
        <ele>857.4</ele>
        <time>2024-08-14T14:15:45Z</time>
      </trkpt>
      <trkpt lat="44.9991" lon="6.0725">
        <ele>857.2</ele>
        <time>2024-08-14T14:15:46Z</time>
      </trkpt>
      <trkpt lat="44.9991" lon="6.0725">
        <ele>857.2</ele>
        <time>2024-08-14T14:15:47Z</time>
      </trkpt>
      <trkpt lat="44.99913" lon="6.07248">
        <ele>857.2</ele>
        <time>2024-08-14T14:15:48Z</time>
      </trkpt>
      <trkpt lat="44.99915" lon="6.07248">
        <ele>857.2</ele>
        <time>2024-08-14T14:15:49Z</time>
      </trkpt>
      <trkpt lat="44.99915" lon="6.07248">
        <ele>857</ele>
        <time>2024-08-14T14:15:50Z</time>
      </trkpt>
      <trkpt lat="44.99915" lon="6.07248">
        <ele>857</ele>
        <time>2024-08-14T14:15:51Z</time>
      </trkpt>
      <trkpt lat="44.99919" lon="6.07247">
        <ele>857</ele>
        <time>2024-08-14T14:15:52Z</time>
      </trkpt>
      <trkpt lat="44.99921" lon="6.07247">
        <ele>856.8</ele>
        <time>2024-08-14T14:15:53Z</time>
      </trkpt>
      <trkpt lat="44.99921" lon="6.07247">
        <ele>856.6</ele>
        <time>2024-08-14T14:15:54Z</time>
      </trkpt>
      <trkpt lat="44.99924" lon="6.07245">
        <ele>856.4</ele>
        <time>2024-08-14T14:15:55Z</time>
      </trkpt>
      <trkpt lat="44.99924" lon="6.07245">
        <ele>856.4</ele>
        <time>2024-08-14T14:15:56Z</time>
      </trkpt>
      <trkpt lat="44.99926" lon="6.07243">
        <ele>856.2</ele>
        <time>2024-08-14T14:15:57Z</time>
      </trkpt>
      <trkpt lat="44.99926" lon="6.07243">
        <ele>856</ele>
        <time>2024-08-14T14:15:58Z</time>
      </trkpt>
      <trkpt lat="44.99926" lon="6.07243">
        <ele>855.8</ele>
        <time>2024-08-14T14:15:59Z</time>
      </trkpt>
      <trkpt lat="44.99931" lon="6.07242">
        <ele>855.2</ele>
        <time>2024-08-14T14:16:00Z</time>
      </trkpt>
      <trkpt lat="44.99932" lon="6.07242">
        <ele>855.2</ele>
        <time>2024-08-14T14:16:01Z</time>
      </trkpt>
      <trkpt lat="44.99932" lon="6.07242">
        <ele>855</ele>
        <time>2024-08-14T14:16:02Z</time>
      </trkpt>
      <trkpt lat="44.99934" lon="6.07242">
        <ele>855.2</ele>
        <time>2024-08-14T14:16:03Z</time>
      </trkpt>
      <trkpt lat="44.99937" lon="6.07242">
        <ele>855.2</ele>
        <time>2024-08-14T14:16:04Z</time>
      </trkpt>
      <trkpt lat="44.99939" lon="6.07243">
        <ele>855.4</ele>
        <time>2024-08-14T14:16:05Z</time>
      </trkpt>
      <trkpt lat="44.99939" lon="6.07243">
        <ele>855.4</ele>
        <time>2024-08-14T14:16:06Z</time>
      </trkpt>
      <trkpt lat="44.99942" lon="6.07245">
        <ele>855.4</ele>
        <time>2024-08-14T14:16:07Z</time>
      </trkpt>
      <trkpt lat="44.99942" lon="6.07245">
        <ele>855.2</ele>
        <time>2024-08-14T14:16:08Z</time>
      </trkpt>
      <trkpt lat="44.99945" lon="6.07245">
        <ele>855.2</ele>
        <time>2024-08-14T14:16:09Z</time>
      </trkpt>
      <trkpt lat="44.99945" lon="6.07245">
        <ele>855.2</ele>
        <time>2024-08-14T14:16:10Z</time>
      </trkpt>
      <trkpt lat="44.99948" lon="6.07245">
        <ele>855</ele>
        <time>2024-08-14T14:16:11Z</time>
      </trkpt>
      <trkpt lat="44.99948" lon="6.07245">
        <ele>854.8</ele>
        <time>2024-08-14T14:16:12Z</time>
      </trkpt>
      <trkpt lat="44.99951" lon="6.07244">
        <ele>854.8</ele>
        <time>2024-08-14T14:16:13Z</time>
      </trkpt>
      <trkpt lat="44.99951" lon="6.07244">
        <ele>854.8</ele>
        <time>2024-08-14T14:16:14Z</time>
      </trkpt>
      <trkpt lat="44.99955" lon="6.07245">
        <ele>854.6</ele>
        <time>2024-08-14T14:16:15Z</time>
      </trkpt>
      <trkpt lat="44.99955" lon="6.07245">
        <ele>854.4</ele>
        <time>2024-08-14T14:16:16Z</time>
      </trkpt>
      <trkpt lat="44.99958" lon="6.07246">
        <ele>854.4</ele>
        <time>2024-08-14T14:16:17Z</time>
      </trkpt>
      <trkpt lat="44.99958" lon="6.07246">
        <ele>854.2</ele>
        <time>2024-08-14T14:16:18Z</time>
      </trkpt>
      <trkpt lat="44.99961" lon="6.07245">
        <ele>854.2</ele>
        <time>2024-08-14T14:16:19Z</time>
      </trkpt>
      <trkpt lat="44.99961" lon="6.07245">
        <ele>854.2</ele>
        <time>2024-08-14T14:16:20Z</time>
      </trkpt>
      <trkpt lat="44.99963" lon="6.07244">
        <ele>854.2</ele>
        <time>2024-08-14T14:16:21Z</time>
      </trkpt>
      <trkpt lat="44.99965" lon="6.07244">
        <ele>854.2</ele>
        <time>2024-08-14T14:16:22Z</time>
      </trkpt>
      <trkpt lat="44.99965" lon="6.07244">
        <ele>854</ele>
        <time>2024-08-14T14:16:23Z</time>
      </trkpt>
      <trkpt lat="44.99968" lon="6.07244">
        <ele>853.6</ele>
        <time>2024-08-14T14:16:24Z</time>
      </trkpt>
      <trkpt lat="44.99968" lon="6.07244">
        <ele>853.6</ele>
        <time>2024-08-14T14:16:25Z</time>
      </trkpt>
      <trkpt lat="44.99968" lon="6.07244">
        <ele>853.6</ele>
        <time>2024-08-14T14:16:26Z</time>
      </trkpt>
      <trkpt lat="44.99972" lon="6.07243">
        <ele>853.4</ele>
        <time>2024-08-14T14:16:27Z</time>
      </trkpt>
      <trkpt lat="44.99972" lon="6.07243">
        <ele>853.2</ele>
        <time>2024-08-14T14:16:28Z</time>
      </trkpt>
      <trkpt lat="44.99975" lon="6.07241">
        <ele>853.2</ele>
        <time>2024-08-14T14:16:29Z</time>
      </trkpt>
      <trkpt lat="44.99975" lon="6.07241">
        <ele>853.2</ele>
        <time>2024-08-14T14:16:30Z</time>
      </trkpt>
      <trkpt lat="44.99978" lon="6.0724">
        <ele>853.2</ele>
        <time>2024-08-14T14:16:31Z</time>
      </trkpt>
      <trkpt lat="44.99979" lon="6.07239">
        <ele>853</ele>
        <time>2024-08-14T14:16:32Z</time>
      </trkpt>
      <trkpt lat="44.99979" lon="6.07239">
        <ele>853</ele>
        <time>2024-08-14T14:16:33Z</time>
      </trkpt>
      <trkpt lat="44.99982" lon="6.07237">
        <ele>853</ele>
        <time>2024-08-14T14:16:34Z</time>
      </trkpt>
      <trkpt lat="44.99982" lon="6.07237">
        <ele>852.8</ele>
        <time>2024-08-14T14:16:35Z</time>
      </trkpt>
      <trkpt lat="44.99984" lon="6.07236">
        <ele>852.4</ele>
        <time>2024-08-14T14:16:36Z</time>
      </trkpt>
      <trkpt lat="44.99984" lon="6.07236">
        <ele>852.2</ele>
        <time>2024-08-14T14:16:37Z</time>
      </trkpt>
      <trkpt lat="44.99986" lon="6.07234">
        <ele>852.2</ele>
        <time>2024-08-14T14:16:38Z</time>
      </trkpt>
      <trkpt lat="44.99986" lon="6.07234">
        <ele>852.2</ele>
        <time>2024-08-14T14:16:39Z</time>
      </trkpt>
      <trkpt lat="44.99988" lon="6.07233">
        <ele>852</ele>
        <time>2024-08-14T14:16:40Z</time>
      </trkpt>
      <trkpt lat="44.99988" lon="6.07233">
        <ele>852</ele>
        <time>2024-08-14T14:16:41Z</time>
      </trkpt>
      <trkpt lat="44.99988" lon="6.07233">
        <ele>852</ele>
        <time>2024-08-14T14:16:42Z</time>
      </trkpt>
      <trkpt lat="44.99991" lon="6.07231">
        <ele>852</ele>
        <time>2024-08-14T14:16:43Z</time>
      </trkpt>
      <trkpt lat="44.99991" lon="6.07231">
        <ele>851.8</ele>
        <time>2024-08-14T14:16:44Z</time>
      </trkpt>
      <trkpt lat="44.99994" lon="6.0723">
        <ele>851.8</ele>
        <time>2024-08-14T14:16:45Z</time>
      </trkpt>
      <trkpt lat="44.99995" lon="6.0723">
        <ele>851.8</ele>
        <time>2024-08-14T14:16:46Z</time>
      </trkpt>
      <trkpt lat="44.99995" lon="6.0723">
        <ele>851.8</ele>
        <time>2024-08-14T14:16:47Z</time>
      </trkpt>
      <trkpt lat="44.99997" lon="6.07228">
        <ele>851.4</ele>
        <time>2024-08-14T14:16:48Z</time>
      </trkpt>
      <trkpt lat="44.99999" lon="6.07227">
        <ele>851.4</ele>
        <time>2024-08-14T14:16:49Z</time>
      </trkpt>
      <trkpt lat="44.99999" lon="6.07227">
        <ele>851.2</ele>
        <time>2024-08-14T14:16:50Z</time>
      </trkpt>
      <trkpt lat="45.00002" lon="6.07227">
        <ele>851</ele>
        <time>2024-08-14T14:16:51Z</time>
      </trkpt>
      <trkpt lat="45.00002" lon="6.07227">
        <ele>850.8</ele>
        <time>2024-08-14T14:16:52Z</time>
      </trkpt>
      <trkpt lat="45.00002" lon="6.07227">
        <ele>850.8</ele>
        <time>2024-08-14T14:16:53Z</time>
      </trkpt>
      <trkpt lat="45.00006" lon="6.07228">
        <ele>850.4</ele>
        <time>2024-08-14T14:16:54Z</time>
      </trkpt>
      <trkpt lat="45.00008" lon="6.07228">
        <ele>850.4</ele>
        <time>2024-08-14T14:16:55Z</time>
      </trkpt>
      <trkpt lat="45.0001" lon="6.07228">
        <ele>850.4</ele>
        <time>2024-08-14T14:16:56Z</time>
      </trkpt>
      <trkpt lat="45.0001" lon="6.07228">
        <ele>850.4</ele>
        <time>2024-08-14T14:16:57Z</time>
      </trkpt>
      <trkpt lat="45.00013" lon="6.07227">
        <ele>850.4</ele>
        <time>2024-08-14T14:16:58Z</time>
      </trkpt>
      <trkpt lat="45.00013" lon="6.07227">
        <ele>850.2</ele>
        <time>2024-08-14T14:16:59Z</time>
      </trkpt>
      <trkpt lat="45.00013" lon="6.07227">
        <ele>849.8</ele>
        <time>2024-08-14T14:17:00Z</time>
      </trkpt>
      <trkpt lat="45.00017" lon="6.07225">
        <ele>849.6</ele>
        <time>2024-08-14T14:17:01Z</time>
      </trkpt>
      <trkpt lat="45.00019" lon="6.07226">
        <ele>849.8</ele>
        <time>2024-08-14T14:17:02Z</time>
      </trkpt>
      <trkpt lat="45.00019" lon="6.07226">
        <ele>849.8</ele>
        <time>2024-08-14T14:17:03Z</time>
      </trkpt>
      <trkpt lat="45.00019" lon="6.07226">
        <ele>849.6</ele>
        <time>2024-08-14T14:17:04Z</time>
      </trkpt>
      <trkpt lat="45.00023" lon="6.07223">
        <ele>849.4</ele>
        <time>2024-08-14T14:17:05Z</time>
      </trkpt>
      <trkpt lat="45.00024" lon="6.07222">
        <ele>849.4</ele>
        <time>2024-08-14T14:17:06Z</time>
      </trkpt>
      <trkpt lat="45.00024" lon="6.07222">
        <ele>849.2</ele>
        <time>2024-08-14T14:17:07Z</time>
      </trkpt>
      <trkpt lat="45.00026" lon="6.07219">
        <ele>849.2</ele>
        <time>2024-08-14T14:17:08Z</time>
      </trkpt>
      <trkpt lat="45.00026" lon="6.07219">
        <ele>849</ele>
        <time>2024-08-14T14:17:09Z</time>
      </trkpt>
      <trkpt lat="45.00029" lon="6.07218">
        <ele>848.8</ele>
        <time>2024-08-14T14:17:10Z</time>
      </trkpt>
      <trkpt lat="45.00029" lon="6.07218">
        <ele>848.6</ele>
        <time>2024-08-14T14:17:11Z</time>
      </trkpt>
      <trkpt lat="45.00032" lon="6.07217">
        <ele>848.6</ele>
        <time>2024-08-14T14:17:12Z</time>
      </trkpt>
      <trkpt lat="45.00032" lon="6.07217">
        <ele>848.6</ele>
        <time>2024-08-14T14:17:13Z</time>
      </trkpt>
      <trkpt lat="45.00035" lon="6.07217">
        <ele>848.6</ele>
        <time>2024-08-14T14:17:14Z</time>
      </trkpt>
      <trkpt lat="45.00035" lon="6.07217">
        <ele>848.6</ele>
        <time>2024-08-14T14:17:15Z</time>
      </trkpt>
      <trkpt lat="45.00039" lon="6.07216">
        <ele>848.4</ele>
        <time>2024-08-14T14:17:16Z</time>
      </trkpt>
      <trkpt lat="45.00039" lon="6.07216">
        <ele>848.2</ele>
        <time>2024-08-14T14:17:17Z</time>
      </trkpt>
      <trkpt lat="45.00042" lon="6.07214">
        <ele>848.2</ele>
        <time>2024-08-14T14:17:18Z</time>
      </trkpt>
      <trkpt lat="45.00042" lon="6.07214">
        <ele>848.2</ele>
        <time>2024-08-14T14:17:19Z</time>
      </trkpt>
      <trkpt lat="45.00042" lon="6.07214">
        <ele>848.2</ele>
        <time>2024-08-14T14:17:20Z</time>
      </trkpt>
      <trkpt lat="45.00046" lon="6.07211">
        <ele>848.2</ele>
        <time>2024-08-14T14:17:21Z</time>
      </trkpt>
      <trkpt lat="45.00048" lon="6.07211">
        <ele>848.2</ele>
        <time>2024-08-14T14:17:22Z</time>
      </trkpt>
      <trkpt lat="45.00048" lon="6.07211">
        <ele>848</ele>
        <time>2024-08-14T14:17:23Z</time>
      </trkpt>
      <trkpt lat="45.0005" lon="6.0721">
        <ele>848</ele>
        <time>2024-08-14T14:17:24Z</time>
      </trkpt>
      <trkpt lat="45.0005" lon="6.0721">
        <ele>847.6</ele>
        <time>2024-08-14T14:17:25Z</time>
      </trkpt>
      <trkpt lat="45.00053" lon="6.07209">
        <ele>847.6</ele>
        <time>2024-08-14T14:17:26Z</time>
      </trkpt>
      <trkpt lat="45.00053" lon="6.07209">
        <ele>847.4</ele>
        <time>2024-08-14T14:17:27Z</time>
      </trkpt>
      <trkpt lat="45.00055" lon="6.07207">
        <ele>847.4</ele>
        <time>2024-08-14T14:17:28Z</time>
      </trkpt>
      <trkpt lat="45.00055" lon="6.07207">
        <ele>847.2</ele>
        <time>2024-08-14T14:17:29Z</time>
      </trkpt>
      <trkpt lat="45.00055" lon="6.07207">
        <ele>847.2</ele>
        <time>2024-08-14T14:17:30Z</time>
      </trkpt>
      <trkpt lat="45.0006" lon="6.07205">
        <ele>847.2</ele>
        <time>2024-08-14T14:17:31Z</time>
      </trkpt>
      <trkpt lat="45.00061" lon="6.07204">
        <ele>846.8</ele>
        <time>2024-08-14T14:17:32Z</time>
      </trkpt>
      <trkpt lat="45.00061" lon="6.07204">
        <ele>846.8</ele>
        <time>2024-08-14T14:17:33Z</time>
      </trkpt>
      <trkpt lat="45.00064" lon="6.07202">
        <ele>847</ele>
        <time>2024-08-14T14:17:34Z</time>
      </trkpt>
      <trkpt lat="45.00064" lon="6.07202">
        <ele>847</ele>
        <time>2024-08-14T14:17:35Z</time>
      </trkpt>
      <trkpt lat="45.00067" lon="6.07201">
        <ele>846.6</ele>
        <time>2024-08-14T14:17:36Z</time>
      </trkpt>
      <trkpt lat="45.00067" lon="6.07201">
        <ele>846.2</ele>
        <time>2024-08-14T14:17:37Z</time>
      </trkpt>
      <trkpt lat="45.0007" lon="6.07201">
        <ele>846.2</ele>
        <time>2024-08-14T14:17:38Z</time>
      </trkpt>
      <trkpt lat="45.0007" lon="6.07201">
        <ele>846.2</ele>
        <time>2024-08-14T14:17:39Z</time>
      </trkpt>
      <trkpt lat="45.00074" lon="6.072">
        <ele>845.8</ele>
        <time>2024-08-14T14:17:40Z</time>
      </trkpt>
      <trkpt lat="45.00074" lon="6.072">
        <ele>845.8</ele>
        <time>2024-08-14T14:17:41Z</time>
      </trkpt>
      <trkpt lat="45.00077" lon="6.07199">
        <ele>846</ele>
        <time>2024-08-14T14:17:42Z</time>
      </trkpt>
      <trkpt lat="45.00077" lon="6.07199">
        <ele>845.8</ele>
        <time>2024-08-14T14:17:43Z</time>
      </trkpt>
      <trkpt lat="45.0008" lon="6.07197">
        <ele>845.8</ele>
        <time>2024-08-14T14:17:44Z</time>
      </trkpt>
      <trkpt lat="45.0008" lon="6.07197">
        <ele>845.6</ele>
        <time>2024-08-14T14:17:45Z</time>
      </trkpt>
      <trkpt lat="45.0008" lon="6.07197">
        <ele>845.6</ele>
        <time>2024-08-14T14:17:46Z</time>
      </trkpt>
      <trkpt lat="45.00084" lon="6.07196">
        <ele>845.6</ele>
        <time>2024-08-14T14:17:47Z</time>
      </trkpt>
      <trkpt lat="45.00086" lon="6.07195">
        <ele>845.4</ele>
        <time>2024-08-14T14:17:48Z</time>
      </trkpt>
      <trkpt lat="45.00086" lon="6.07195">
        <ele>845.2</ele>
        <time>2024-08-14T14:17:49Z</time>
      </trkpt>
      <trkpt lat="45.00089" lon="6.07194">
        <ele>845.2</ele>
        <time>2024-08-14T14:17:50Z</time>
      </trkpt>
      <trkpt lat="45.00091" lon="6.07194">
        <ele>845</ele>
        <time>2024-08-14T14:17:51Z</time>
      </trkpt>
      <trkpt lat="45.00091" lon="6.07194">
        <ele>844.8</ele>
        <time>2024-08-14T14:17:52Z</time>
      </trkpt>
      <trkpt lat="45.00093" lon="6.07193">
        <ele>844.6</ele>
        <time>2024-08-14T14:17:53Z</time>
      </trkpt>
      <trkpt lat="45.00093" lon="6.07193">
        <ele>844.6</ele>
        <time>2024-08-14T14:17:54Z</time>
      </trkpt>
      <trkpt lat="45.00095" lon="6.07193">
        <ele>844.6</ele>
        <time>2024-08-14T14:17:55Z</time>
      </trkpt>
      <trkpt lat="45.00097" lon="6.07193">
        <ele>844.4</ele>
        <time>2024-08-14T14:17:56Z</time>
      </trkpt>
      <trkpt lat="45.00097" lon="6.07193">
        <ele>844.2</ele>
        <time>2024-08-14T14:17:57Z</time>
      </trkpt>
      <trkpt lat="45.00097" lon="6.07193">
        <ele>844.2</ele>
        <time>2024-08-14T14:17:58Z</time>
      </trkpt>
      <trkpt lat="45.00102" lon="6.07194">
        <ele>844</ele>
        <time>2024-08-14T14:17:59Z</time>
      </trkpt>
      <trkpt lat="45.00103" lon="6.07194">
        <ele>843.8</ele>
        <time>2024-08-14T14:18:00Z</time>
      </trkpt>
      <trkpt lat="45.00105" lon="6.07195">
        <ele>843.8</ele>
        <time>2024-08-14T14:18:01Z</time>
      </trkpt>
      <trkpt lat="45.00105" lon="6.07195">
        <ele>843.4</ele>
        <time>2024-08-14T14:18:02Z</time>
      </trkpt>
      <trkpt lat="45.00105" lon="6.07195">
        <ele>843.4</ele>
        <time>2024-08-14T14:18:03Z</time>
      </trkpt>
      <trkpt lat="45.00109" lon="6.07195">
        <ele>843.4</ele>
        <time>2024-08-14T14:18:04Z</time>
      </trkpt>
      <trkpt lat="45.0011" lon="6.07194">
        <ele>843.4</ele>
        <time>2024-08-14T14:18:05Z</time>
      </trkpt>
      <trkpt lat="45.0011" lon="6.07194">
        <ele>843.4</ele>
        <time>2024-08-14T14:18:06Z</time>
      </trkpt>
      <trkpt lat="45.00113" lon="6.07193">
        <ele>843.4</ele>
        <time>2024-08-14T14:18:07Z</time>
      </trkpt>
      <trkpt lat="45.00113" lon="6.07193">
        <ele>843.2</ele>
        <time>2024-08-14T14:18:08Z</time>
      </trkpt>
      <trkpt lat="45.00116" lon="6.07192">
        <ele>843</ele>
        <time>2024-08-14T14:18:09Z</time>
      </trkpt>
      <trkpt lat="45.00116" lon="6.07192">
        <ele>843</ele>
        <time>2024-08-14T14:18:10Z</time>
      </trkpt>
      <trkpt lat="45.00118" lon="6.0719">
        <ele>843</ele>
        <time>2024-08-14T14:18:11Z</time>
      </trkpt>
      <trkpt lat="45.00118" lon="6.0719">
        <ele>843</ele>
        <time>2024-08-14T14:18:12Z</time>
      </trkpt>
      <trkpt lat="45.00122" lon="6.07191">
        <ele>842.8</ele>
        <time>2024-08-14T14:18:13Z</time>
      </trkpt>
      <trkpt lat="45.00122" lon="6.07191">
        <ele>842.8</ele>
        <time>2024-08-14T14:18:14Z</time>
      </trkpt>
      <trkpt lat="45.00122" lon="6.07191">
        <ele>842.8</ele>
        <time>2024-08-14T14:18:15Z</time>
      </trkpt>
      <trkpt lat="45.00125" lon="6.0719">
        <ele>842.6</ele>
        <time>2024-08-14T14:18:16Z</time>
      </trkpt>
      <trkpt lat="45.00127" lon="6.0719">
        <ele>842.4</ele>
        <time>2024-08-14T14:18:17Z</time>
      </trkpt>
      <trkpt lat="45.00127" lon="6.0719">
        <ele>841.8</ele>
        <time>2024-08-14T14:18:18Z</time>
      </trkpt>
      <trkpt lat="45.00127" lon="6.0719">
        <ele>841.6</ele>
        <time>2024-08-14T14:18:19Z</time>
      </trkpt>
      <trkpt lat="45.00132" lon="6.07189">
        <ele>841.6</ele>
        <time>2024-08-14T14:18:20Z</time>
      </trkpt>
      <trkpt lat="45.00133" lon="6.0719">
        <ele>841.6</ele>
        <time>2024-08-14T14:18:21Z</time>
      </trkpt>
      <trkpt lat="45.00133" lon="6.0719">
        <ele>841.4</ele>
        <time>2024-08-14T14:18:22Z</time>
      </trkpt>
      <trkpt lat="45.00136" lon="6.07192">
        <ele>841.4</ele>
        <time>2024-08-14T14:18:23Z</time>
      </trkpt>
      <trkpt lat="45.00136" lon="6.07192">
        <ele>841.4</ele>
        <time>2024-08-14T14:18:24Z</time>
      </trkpt>
      <trkpt lat="45.00139" lon="6.07192">
        <ele>841.2</ele>
        <time>2024-08-14T14:18:25Z</time>
      </trkpt>
      <trkpt lat="45.00141" lon="6.07193">
        <ele>841</ele>
        <time>2024-08-14T14:18:26Z</time>
      </trkpt>
      <trkpt lat="45.00141" lon="6.07193">
        <ele>841</ele>
        <time>2024-08-14T14:18:27Z</time>
      </trkpt>
      <trkpt lat="45.00144" lon="6.07193">
        <ele>840.8</ele>
        <time>2024-08-14T14:18:28Z</time>
      </trkpt>
      <trkpt lat="45.00146" lon="6.07193">
        <ele>840.6</ele>
        <time>2024-08-14T14:18:29Z</time>
      </trkpt>
      <trkpt lat="45.00146" lon="6.07193">
        <ele>840.6</ele>
        <time>2024-08-14T14:18:30Z</time>
      </trkpt>
      <trkpt lat="45.00149" lon="6.07193">
        <ele>840.4</ele>
        <time>2024-08-14T14:18:31Z</time>
      </trkpt>
      <trkpt lat="45.00149" lon="6.07193">
        <ele>840.2</ele>
        <time>2024-08-14T14:18:32Z</time>
      </trkpt>
      <trkpt lat="45.00151" lon="6.07192">
        <ele>840.2</ele>
        <time>2024-08-14T14:18:33Z</time>
      </trkpt>
      <trkpt lat="45.00151" lon="6.07192">
        <ele>840</ele>
        <time>2024-08-14T14:18:34Z</time>
      </trkpt>
      <trkpt lat="45.00154" lon="6.07191">
        <ele>840</ele>
        <time>2024-08-14T14:18:35Z</time>
      </trkpt>
      <trkpt lat="45.00154" lon="6.07191">
        <ele>839.8</ele>
        <time>2024-08-14T14:18:36Z</time>
      </trkpt>
      <trkpt lat="45.00157" lon="6.0719">
        <ele>839.4</ele>
        <time>2024-08-14T14:18:37Z</time>
      </trkpt>
      <trkpt lat="45.00157" lon="6.0719">
        <ele>839.4</ele>
        <time>2024-08-14T14:18:38Z</time>
      </trkpt>
      <trkpt lat="45.0016" lon="6.0719">
        <ele>839.2</ele>
        <time>2024-08-14T14:18:39Z</time>
      </trkpt>
      <trkpt lat="45.0016" lon="6.0719">
        <ele>839.2</ele>
        <time>2024-08-14T14:18:40Z</time>
      </trkpt>
      <trkpt lat="45.00162" lon="6.0719">
        <ele>839</ele>
        <time>2024-08-14T14:18:41Z</time>
      </trkpt>
      <trkpt lat="45.00165" lon="6.07189">
        <ele>839</ele>
        <time>2024-08-14T14:18:42Z</time>
      </trkpt>
      <trkpt lat="45.00165" lon="6.07189">
        <ele>839</ele>
        <time>2024-08-14T14:18:43Z</time>
      </trkpt>
      <trkpt lat="45.00167" lon="6.07188">
        <ele>838.8</ele>
        <time>2024-08-14T14:18:44Z</time>
      </trkpt>
      <trkpt lat="45.00167" lon="6.07188">
        <ele>838.6</ele>
        <time>2024-08-14T14:18:45Z</time>
      </trkpt>
      <trkpt lat="45.0017" lon="6.07188">
        <ele>838.2</ele>
        <time>2024-08-14T14:18:46Z</time>
      </trkpt>
      <trkpt lat="45.0017" lon="6.07188">
        <ele>838.2</ele>
        <time>2024-08-14T14:18:47Z</time>
      </trkpt>
      <trkpt lat="45.0017" lon="6.07188">
        <ele>838</ele>
        <time>2024-08-14T14:18:48Z</time>
      </trkpt>
      <trkpt lat="45.00174" lon="6.07187">
        <ele>837.8</ele>
        <time>2024-08-14T14:18:49Z</time>
      </trkpt>
      <trkpt lat="45.00176" lon="6.07187">
        <ele>837.6</ele>
        <time>2024-08-14T14:18:50Z</time>
      </trkpt>
      <trkpt lat="45.00176" lon="6.07187">
        <ele>837.6</ele>
        <time>2024-08-14T14:18:51Z</time>
      </trkpt>
      <trkpt lat="45.00176" lon="6.07187">
        <ele>837.6</ele>
        <time>2024-08-14T14:18:52Z</time>
      </trkpt>
      <trkpt lat="45.00181" lon="6.07187">
        <ele>837.4</ele>
        <time>2024-08-14T14:18:53Z</time>
      </trkpt>
      <trkpt lat="45.00182" lon="6.07186">
        <ele>837.2</ele>
        <time>2024-08-14T14:18:54Z</time>
      </trkpt>
      <trkpt lat="45.00182" lon="6.07186">
        <ele>837.2</ele>
        <time>2024-08-14T14:18:55Z</time>
      </trkpt>
      <trkpt lat="45.00185" lon="6.07185">
        <ele>837.2</ele>
        <time>2024-08-14T14:18:56Z</time>
      </trkpt>
      <trkpt lat="45.00185" lon="6.07185">
        <ele>837.2</ele>
        <time>2024-08-14T14:18:57Z</time>
      </trkpt>
      <trkpt lat="45.00187" lon="6.07184">
        <ele>836.8</ele>
        <time>2024-08-14T14:18:58Z</time>
      </trkpt>
      <trkpt lat="45.00187" lon="6.07184">
        <ele>836.6</ele>
        <time>2024-08-14T14:18:59Z</time>
      </trkpt>
      <trkpt lat="45.00191" lon="6.07182">
        <ele>836.6</ele>
        <time>2024-08-14T14:19:00Z</time>
      </trkpt>
      <trkpt lat="45.00191" lon="6.07182">
        <ele>836.6</ele>
        <time>2024-08-14T14:19:01Z</time>
      </trkpt>
      <trkpt lat="45.00194" lon="6.07182">
        <ele>836.2</ele>
        <time>2024-08-14T14:19:02Z</time>
      </trkpt>
      <trkpt lat="45.00196" lon="6.07182">
        <ele>836.2</ele>
        <time>2024-08-14T14:19:03Z</time>
      </trkpt>
      <trkpt lat="45.00196" lon="6.07182">
        <ele>836.2</ele>
        <time>2024-08-14T14:19:04Z</time>
      </trkpt>
      <trkpt lat="45.00199" lon="6.07182">
        <ele>836.2</ele>
        <time>2024-08-14T14:19:05Z</time>
      </trkpt>
      <trkpt lat="45.00199" lon="6.07182">
        <ele>836</ele>
        <time>2024-08-14T14:19:06Z</time>
      </trkpt>
      <trkpt lat="45.00202" lon="6.07181">
        <ele>835.8</ele>
        <time>2024-08-14T14:19:07Z</time>
      </trkpt>
      <trkpt lat="45.00202" lon="6.07181">
        <ele>835.8</ele>
        <time>2024-08-14T14:19:08Z</time>
      </trkpt>
      <trkpt lat="45.00205" lon="6.0718">
        <ele>835.8</ele>
        <time>2024-08-14T14:19:09Z</time>
      </trkpt>
      <trkpt lat="45.00205" lon="6.0718">
        <ele>835.8</ele>
        <time>2024-08-14T14:19:10Z</time>
      </trkpt>
      <trkpt lat="45.00206" lon="6.07177">
        <ele>835.8</ele>
        <time>2024-08-14T14:19:11Z</time>
      </trkpt>
      <trkpt lat="45.00206" lon="6.07177">
        <ele>835.6</ele>
        <time>2024-08-14T14:19:12Z</time>
      </trkpt>
      <trkpt lat="45.00207" lon="6.0718">
        <ele>835.4</ele>
        <time>2024-08-14T14:19:13Z</time>
      </trkpt>
      <trkpt lat="45.00207" lon="6.0718">
        <ele>835</ele>
        <time>2024-08-14T14:19:14Z</time>
      </trkpt>
      <trkpt lat="45.00209" lon="6.07179">
        <ele>835</ele>
        <time>2024-08-14T14:19:15Z</time>
      </trkpt>
      <trkpt lat="45.00211" lon="6.07179">
        <ele>835</ele>
        <time>2024-08-14T14:19:16Z</time>
      </trkpt>
      <trkpt lat="45.00211" lon="6.07179">
        <ele>834.8</ele>
        <time>2024-08-14T14:19:17Z</time>
      </trkpt>
      <trkpt lat="45.00214" lon="6.07178">
        <ele>834.8</ele>
        <time>2024-08-14T14:19:18Z</time>
      </trkpt>
      <trkpt lat="45.00216" lon="6.07177">
        <ele>834.6</ele>
        <time>2024-08-14T14:19:19Z</time>
      </trkpt>
      <trkpt lat="45.00216" lon="6.07177">
        <ele>834.6</ele>
        <time>2024-08-14T14:19:20Z</time>
      </trkpt>
      <trkpt lat="45.00218" lon="6.07176">
        <ele>834.4</ele>
        <time>2024-08-14T14:19:21Z</time>
      </trkpt>
      <trkpt lat="45.00218" lon="6.07176">
        <ele>834.4</ele>
        <time>2024-08-14T14:19:22Z</time>
      </trkpt>
      <trkpt lat="45.00221" lon="6.07175">
        <ele>834.2</ele>
        <time>2024-08-14T14:19:23Z</time>
      </trkpt>
      <trkpt lat="45.00221" lon="6.07175">
        <ele>834.2</ele>
        <time>2024-08-14T14:19:24Z</time>
      </trkpt>
      <trkpt lat="45.00224" lon="6.07175">
        <ele>834</ele>
        <time>2024-08-14T14:19:25Z</time>
      </trkpt>
      <trkpt lat="45.00224" lon="6.07175">
        <ele>833.8</ele>
        <time>2024-08-14T14:19:26Z</time>
      </trkpt>
      <trkpt lat="45.00226" lon="6.07174">
        <ele>833.6</ele>
        <time>2024-08-14T14:19:27Z</time>
      </trkpt>
      <trkpt lat="45.00226" lon="6.07174">
        <ele>833.6</ele>
        <time>2024-08-14T14:19:28Z</time>
      </trkpt>
      <trkpt lat="45.00229" lon="6.07174">
        <ele>833.6</ele>
        <time>2024-08-14T14:19:29Z</time>
      </trkpt>
      <trkpt lat="45.00229" lon="6.07174">
        <ele>833.4</ele>
        <time>2024-08-14T14:19:30Z</time>
      </trkpt>
      <trkpt lat="45.00236" lon="6.07175">
        <ele>833.4</ele>
        <time>2024-08-14T14:19:31Z</time>
      </trkpt>
      <trkpt lat="45.00237" lon="6.07175">
        <ele>833.2</ele>
        <time>2024-08-14T14:19:32Z</time>
      </trkpt>
      <trkpt lat="45.00237" lon="6.07175">
        <ele>833.2</ele>
        <time>2024-08-14T14:19:33Z</time>
      </trkpt>
      <trkpt lat="45.0024" lon="6.07175">
        <ele>833.2</ele>
        <time>2024-08-14T14:19:34Z</time>
      </trkpt>
      <trkpt lat="45.0024" lon="6.07175">
        <ele>833.2</ele>
        <time>2024-08-14T14:19:35Z</time>
      </trkpt>
      <trkpt lat="45.00243" lon="6.07174">
        <ele>833.2</ele>
        <time>2024-08-14T14:19:36Z</time>
      </trkpt>
      <trkpt lat="45.00243" lon="6.07174">
        <ele>833</ele>
        <time>2024-08-14T14:19:37Z</time>
      </trkpt>
      <trkpt lat="45.00243" lon="6.07174">
        <ele>832.8</ele>
        <time>2024-08-14T14:19:38Z</time>
      </trkpt>
      <trkpt lat="45.00247" lon="6.07174">
        <ele>832.8</ele>
        <time>2024-08-14T14:19:39Z</time>
      </trkpt>
      <trkpt lat="45.00249" lon="6.07174">
        <ele>832.8</ele>
        <time>2024-08-14T14:19:40Z</time>
      </trkpt>
      <trkpt lat="45.00249" lon="6.07174">
        <ele>832.6</ele>
        <time>2024-08-14T14:19:41Z</time>
      </trkpt>
      <trkpt lat="45.00251" lon="6.07174">
        <ele>832.4</ele>
        <time>2024-08-14T14:19:42Z</time>
      </trkpt>
      <trkpt lat="45.00254" lon="6.07174">
        <ele>832</ele>
        <time>2024-08-14T14:19:43Z</time>
      </trkpt>
      <trkpt lat="45.00254" lon="6.07174">
        <ele>831.8</ele>
        <time>2024-08-14T14:19:44Z</time>
      </trkpt>
      <trkpt lat="45.00256" lon="6.07172">
        <ele>831.8</ele>
        <time>2024-08-14T14:19:45Z</time>
      </trkpt>
      <trkpt lat="45.00256" lon="6.07172">
        <ele>831.4</ele>
        <time>2024-08-14T14:19:46Z</time>
      </trkpt>
      <trkpt lat="45.00256" lon="6.07172">
        <ele>831.4</ele>
        <time>2024-08-14T14:19:47Z</time>
      </trkpt>
      <trkpt lat="45.0026" lon="6.07171">
        <ele>831.4</ele>
        <time>2024-08-14T14:19:48Z</time>
      </trkpt>
      <trkpt lat="45.00262" lon="6.0717">
        <ele>831.2</ele>
        <time>2024-08-14T14:19:49Z</time>
      </trkpt>
      <trkpt lat="45.00262" lon="6.0717">
        <ele>831</ele>
        <time>2024-08-14T14:19:50Z</time>
      </trkpt>
      <trkpt lat="45.00264" lon="6.07169">
        <ele>831</ele>
        <time>2024-08-14T14:19:51Z</time>
      </trkpt>
      <trkpt lat="45.00264" lon="6.07169">
        <ele>830.8</ele>
        <time>2024-08-14T14:19:52Z</time>
      </trkpt>
      <trkpt lat="45.00267" lon="6.07168">
        <ele>830.6</ele>
        <time>2024-08-14T14:19:53Z</time>
      </trkpt>
      <trkpt lat="45.00267" lon="6.07168">
        <ele>830.6</ele>
        <time>2024-08-14T14:19:54Z</time>
      </trkpt>
      <trkpt lat="45.00269" lon="6.07167">
        <ele>830.4</ele>
        <time>2024-08-14T14:19:55Z</time>
      </trkpt>
      <trkpt lat="45.00269" lon="6.07167">
        <ele>830.2</ele>
        <time>2024-08-14T14:19:56Z</time>
      </trkpt>
      <trkpt lat="45.00272" lon="6.07166">
        <ele>830.2</ele>
        <time>2024-08-14T14:19:57Z</time>
      </trkpt>
      <trkpt lat="45.00272" lon="6.07166">
        <ele>830.2</ele>
        <time>2024-08-14T14:19:58Z</time>
      </trkpt>
      <trkpt lat="45.00272" lon="6.07166">
        <ele>830.2</ele>
        <time>2024-08-14T14:19:59Z</time>
      </trkpt>
      <trkpt lat="45.00277" lon="6.07166">
        <ele>830</ele>
        <time>2024-08-14T14:20:00Z</time>
      </trkpt>
      <trkpt lat="45.00278" lon="6.07165">
        <ele>829.8</ele>
        <time>2024-08-14T14:20:01Z</time>
      </trkpt>
      <trkpt lat="45.00278" lon="6.07165">
        <ele>829.4</ele>
        <time>2024-08-14T14:20:02Z</time>
      </trkpt>
      <trkpt lat="45.0028" lon="6.07164">
        <ele>829.4</ele>
        <time>2024-08-14T14:20:03Z</time>
      </trkpt>
      <trkpt lat="45.0028" lon="6.07164">
        <ele>829.2</ele>
        <time>2024-08-14T14:20:04Z</time>
      </trkpt>
      <trkpt lat="45.00283" lon="6.07161">
        <ele>829.2</ele>
        <time>2024-08-14T14:20:05Z</time>
      </trkpt>
      <trkpt lat="45.00284" lon="6.07159">
        <ele>829.4</ele>
        <time>2024-08-14T14:20:06Z</time>
      </trkpt>
      <trkpt lat="45.00285" lon="6.07158">
        <ele>829.2</ele>
        <time>2024-08-14T14:20:07Z</time>
      </trkpt>
      <trkpt lat="45.00285" lon="6.07158">
        <ele>829.2</ele>
        <time>2024-08-14T14:20:08Z</time>
      </trkpt>
      <trkpt lat="45.00289" lon="6.07156">
        <ele>829</ele>
        <time>2024-08-14T14:20:09Z</time>
      </trkpt>
      <trkpt lat="45.00289" lon="6.07156">
        <ele>828.8</ele>
        <time>2024-08-14T14:20:10Z</time>
      </trkpt>
      <trkpt lat="45.00292" lon="6.07155">
        <ele>828.6</ele>
        <time>2024-08-14T14:20:11Z</time>
      </trkpt>
      <trkpt lat="45.00292" lon="6.07155">
        <ele>828.6</ele>
        <time>2024-08-14T14:20:12Z</time>
      </trkpt>
      <trkpt lat="45.00294" lon="6.07156">
        <ele>828.4</ele>
        <time>2024-08-14T14:20:13Z</time>
      </trkpt>
      <trkpt lat="45.00296" lon="6.07156">
        <ele>828.6</ele>
        <time>2024-08-14T14:20:14Z</time>
      </trkpt>
      <trkpt lat="45.00298" lon="6.07156">
        <ele>828.4</ele>
        <time>2024-08-14T14:20:15Z</time>
      </trkpt>
      <trkpt lat="45.00298" lon="6.07156">
        <ele>828.4</ele>
        <time>2024-08-14T14:20:16Z</time>
      </trkpt>
      <trkpt lat="45.00301" lon="6.07155">
        <ele>828.4</ele>
        <time>2024-08-14T14:20:17Z</time>
      </trkpt>
      <trkpt lat="45.00301" lon="6.07155">
        <ele>828</ele>
        <time>2024-08-14T14:20:18Z</time>
      </trkpt>
      <trkpt lat="45.00304" lon="6.07154">
        <ele>828</ele>
        <time>2024-08-14T14:20:19Z</time>
      </trkpt>
      <trkpt lat="45.00304" lon="6.07154">
        <ele>827.8</ele>
        <time>2024-08-14T14:20:20Z</time>
      </trkpt>
      <trkpt lat="45.00306" lon="6.07154">
        <ele>827.6</ele>
        <time>2024-08-14T14:20:21Z</time>
      </trkpt>
      <trkpt lat="45.00306" lon="6.07154">
        <ele>827.6</ele>
        <time>2024-08-14T14:20:22Z</time>
      </trkpt>
      <trkpt lat="45.00309" lon="6.07153">
        <ele>827.6</ele>
        <time>2024-08-14T14:20:23Z</time>
      </trkpt>
      <trkpt lat="45.00309" lon="6.07153">
        <ele>827.6</ele>
        <time>2024-08-14T14:20:24Z</time>
      </trkpt>
      <trkpt lat="45.00311" lon="6.07152">
        <ele>827.4</ele>
        <time>2024-08-14T14:20:25Z</time>
      </trkpt>
      <trkpt lat="45.00311" lon="6.07152">
        <ele>827</ele>
        <time>2024-08-14T14:20:26Z</time>
      </trkpt>
      <trkpt lat="45.00314" lon="6.0715">
        <ele>826.8</ele>
        <time>2024-08-14T14:20:27Z</time>
      </trkpt>
      <trkpt lat="45.00314" lon="6.0715">
        <ele>826.8</ele>
        <time>2024-08-14T14:20:28Z</time>
      </trkpt>
      <trkpt lat="45.00317" lon="6.07149">
        <ele>826.8</ele>
        <time>2024-08-14T14:20:29Z</time>
      </trkpt>
      <trkpt lat="45.00317" lon="6.07149">
        <ele>826.8</ele>
        <time>2024-08-14T14:20:30Z</time>
      </trkpt>
      <trkpt lat="45.0032" lon="6.07149">
        <ele>826.4</ele>
        <time>2024-08-14T14:20:31Z</time>
      </trkpt>
      <trkpt lat="45.00322" lon="6.0715">
        <ele>826</ele>
        <time>2024-08-14T14:20:32Z</time>
      </trkpt>
      <trkpt lat="45.00322" lon="6.0715">
        <ele>826</ele>
        <time>2024-08-14T14:20:33Z</time>
      </trkpt>
      <trkpt lat="45.00325" lon="6.07151">
        <ele>826</ele>
        <time>2024-08-14T14:20:34Z</time>
      </trkpt>
      <trkpt lat="45.00327" lon="6.07151">
        <ele>826</ele>
        <time>2024-08-14T14:20:35Z</time>
      </trkpt>
      <trkpt lat="45.00327" lon="6.07151">
        <ele>826</ele>
        <time>2024-08-14T14:20:36Z</time>
      </trkpt>
      <trkpt lat="45.0033" lon="6.0715">
        <ele>825.8</ele>
        <time>2024-08-14T14:20:37Z</time>
      </trkpt>
      <trkpt lat="45.0033" lon="6.0715">
        <ele>825.8</ele>
        <time>2024-08-14T14:20:38Z</time>
      </trkpt>
      <trkpt lat="45.00333" lon="6.07149">
        <ele>825.6</ele>
        <time>2024-08-14T14:20:39Z</time>
      </trkpt>
      <trkpt lat="45.00333" lon="6.07149">
        <ele>825.4</ele>
        <time>2024-08-14T14:20:40Z</time>
      </trkpt>
      <trkpt lat="45.00336" lon="6.07148">
        <ele>825.4</ele>
        <time>2024-08-14T14:20:41Z</time>
      </trkpt>
      <trkpt lat="45.00336" lon="6.07148">
        <ele>825.4</ele>
        <time>2024-08-14T14:20:42Z</time>
      </trkpt>
      <trkpt lat="45.00339" lon="6.07147">
        <ele>825</ele>
        <time>2024-08-14T14:20:43Z</time>
      </trkpt>
      <trkpt lat="45.00339" lon="6.07147">
        <ele>825</ele>
        <time>2024-08-14T14:20:44Z</time>
      </trkpt>
      <trkpt lat="45.00341" lon="6.07146">
        <ele>825</ele>
        <time>2024-08-14T14:20:45Z</time>
      </trkpt>
      <trkpt lat="45.00341" lon="6.07146">
        <ele>825</ele>
        <time>2024-08-14T14:20:46Z</time>
      </trkpt>
      <trkpt lat="45.00341" lon="6.07146">
        <ele>824.8</ele>
        <time>2024-08-14T14:20:47Z</time>
      </trkpt>
      <trkpt lat="45.00346" lon="6.07145">
        <ele>824.8</ele>
        <time>2024-08-14T14:20:48Z</time>
      </trkpt>
      <trkpt lat="45.00347" lon="6.07146">
        <ele>824.4</ele>
        <time>2024-08-14T14:20:49Z</time>
      </trkpt>
      <trkpt lat="45.00349" lon="6.07147">
        <ele>824.4</ele>
        <time>2024-08-14T14:20:50Z</time>
      </trkpt>
      <trkpt lat="45.00349" lon="6.07147">
        <ele>824.4</ele>
        <time>2024-08-14T14:20:51Z</time>
      </trkpt>
      <trkpt lat="45.00352" lon="6.07147">
        <ele>824.4</ele>
        <time>2024-08-14T14:20:52Z</time>
      </trkpt>
      <trkpt lat="45.00354" lon="6.07147">
        <ele>824.4</ele>
        <time>2024-08-14T14:20:53Z</time>
      </trkpt>
      <trkpt lat="45.00354" lon="6.07147">
        <ele>824.2</ele>
        <time>2024-08-14T14:20:54Z</time>
      </trkpt>
      <trkpt lat="45.00354" lon="6.07147">
        <ele>824</ele>
        <time>2024-08-14T14:20:55Z</time>
      </trkpt>
      <trkpt lat="45.00357" lon="6.07145">
        <ele>824</ele>
        <time>2024-08-14T14:20:56Z</time>
      </trkpt>
      <trkpt lat="45.00359" lon="6.07145">
        <ele>824</ele>
        <time>2024-08-14T14:20:57Z</time>
      </trkpt>
      <trkpt lat="45.00359" lon="6.07145">
        <ele>824</ele>
        <time>2024-08-14T14:20:58Z</time>
      </trkpt>
      <trkpt lat="45.00359" lon="6.07145">
        <ele>823.8</ele>
        <time>2024-08-14T14:20:59Z</time>
      </trkpt>
      <trkpt lat="45.00362" lon="6.07143">
        <ele>823.4</ele>
        <time>2024-08-14T14:21:00Z</time>
      </trkpt>
      <trkpt lat="45.00363" lon="6.07143">
        <ele>823.4</ele>
        <time>2024-08-14T14:21:01Z</time>
      </trkpt>
      <trkpt lat="45.00363" lon="6.07143">
        <ele>823.6</ele>
        <time>2024-08-14T14:21:02Z</time>
      </trkpt>
      <trkpt lat="45.00366" lon="6.07142">
        <ele>823.6</ele>
        <time>2024-08-14T14:21:03Z</time>
      </trkpt>
      <trkpt lat="45.00366" lon="6.07142">
        <ele>823.2</ele>
        <time>2024-08-14T14:21:04Z</time>
      </trkpt>
      <trkpt lat="45.00369" lon="6.07141">
        <ele>823.2</ele>
        <time>2024-08-14T14:21:05Z</time>
      </trkpt>
      <trkpt lat="45.00369" lon="6.07141">
        <ele>823</ele>
        <time>2024-08-14T14:21:06Z</time>
      </trkpt>
      <trkpt lat="45.00371" lon="6.07139">
        <ele>823</ele>
        <time>2024-08-14T14:21:07Z</time>
      </trkpt>
      <trkpt lat="45.00371" lon="6.07139">
        <ele>823</ele>
        <time>2024-08-14T14:21:08Z</time>
      </trkpt>
      <trkpt lat="45.00371" lon="6.07139">
        <ele>822.8</ele>
        <time>2024-08-14T14:21:09Z</time>
      </trkpt>
      <trkpt lat="45.00375" lon="6.07137">
        <ele>822.8</ele>
        <time>2024-08-14T14:21:10Z</time>
      </trkpt>
      <trkpt lat="45.00377" lon="6.07136">
        <ele>822.6</ele>
        <time>2024-08-14T14:21:11Z</time>
      </trkpt>
      <trkpt lat="45.00377" lon="6.07136">
        <ele>822.4</ele>
        <time>2024-08-14T14:21:12Z</time>
      </trkpt>
      <trkpt lat="45.00379" lon="6.07135">
        <ele>822.4</ele>
        <time>2024-08-14T14:21:13Z</time>
      </trkpt>
      <trkpt lat="45.00379" lon="6.07135">
        <ele>822</ele>
        <time>2024-08-14T14:21:14Z</time>
      </trkpt>
      <trkpt lat="45.00382" lon="6.07134">
        <ele>822.2</ele>
        <time>2024-08-14T14:21:15Z</time>
      </trkpt>
      <trkpt lat="45.00383" lon="6.07132">
        <ele>822.2</ele>
        <time>2024-08-14T14:21:16Z</time>
      </trkpt>
      <trkpt lat="45.00384" lon="6.07131">
        <ele>822</ele>
        <time>2024-08-14T14:21:17Z</time>
      </trkpt>
      <trkpt lat="45.00386" lon="6.0713">
        <ele>822</ele>
        <time>2024-08-14T14:21:18Z</time>
      </trkpt>
      <trkpt lat="45.00386" lon="6.0713">
        <ele>821.8</ele>
        <time>2024-08-14T14:21:19Z</time>
      </trkpt>
      <trkpt lat="45.00386" lon="6.0713">
        <ele>821.6</ele>
        <time>2024-08-14T14:21:20Z</time>
      </trkpt>
      <trkpt lat="45.00389" lon="6.07127">
        <ele>821.4</ele>
        <time>2024-08-14T14:21:21Z</time>
      </trkpt>
      <trkpt lat="45.0039" lon="6.07127">
        <ele>821.2</ele>
        <time>2024-08-14T14:21:22Z</time>
      </trkpt>
      <trkpt lat="45.00391" lon="6.07126">
        <ele>821.2</ele>
        <time>2024-08-14T14:21:23Z</time>
      </trkpt>
      <trkpt lat="45.00392" lon="6.07124">
        <ele>821.2</ele>
        <time>2024-08-14T14:21:24Z</time>
      </trkpt>
      <trkpt lat="45.00393" lon="6.07123">
        <ele>821.2</ele>
        <time>2024-08-14T14:21:25Z</time>
      </trkpt>
      <trkpt lat="45.00393" lon="6.07123">
        <ele>821</ele>
        <time>2024-08-14T14:21:26Z</time>
      </trkpt>
      <trkpt lat="45.00393" lon="6.07123">
        <ele>821</ele>
        <time>2024-08-14T14:21:27Z</time>
      </trkpt>
      <trkpt lat="45.00396" lon="6.07118">
        <ele>821</ele>
        <time>2024-08-14T14:21:28Z</time>
      </trkpt>
      <trkpt lat="45.00397" lon="6.07116">
        <ele>821</ele>
        <time>2024-08-14T14:21:29Z</time>
      </trkpt>
      <trkpt lat="45.00397" lon="6.07116">
        <ele>820.6</ele>
        <time>2024-08-14T14:21:30Z</time>
      </trkpt>
      <trkpt lat="45.00398" lon="6.07113">
        <ele>820.2</ele>
        <time>2024-08-14T14:21:31Z</time>
      </trkpt>
      <trkpt lat="45.00398" lon="6.07113">
        <ele>820</ele>
        <time>2024-08-14T14:21:32Z</time>
      </trkpt>
      <trkpt lat="45.004" lon="6.0711">
        <ele>820</ele>
        <time>2024-08-14T14:21:33Z</time>
      </trkpt>
      <trkpt lat="45.004" lon="6.0711">
        <ele>820.2</ele>
        <time>2024-08-14T14:21:34Z</time>
      </trkpt>
      <trkpt lat="45.00403" lon="6.07107">
        <ele>820.2</ele>
        <time>2024-08-14T14:21:35Z</time>
      </trkpt>
      <trkpt lat="45.00403" lon="6.07107">
        <ele>819.8</ele>
        <time>2024-08-14T14:21:36Z</time>
      </trkpt>
      <trkpt lat="45.00403" lon="6.07107">
        <ele>819.8</ele>
        <time>2024-08-14T14:21:37Z</time>
      </trkpt>
      <trkpt lat="45.00405" lon="6.07103">
        <ele>819.8</ele>
        <time>2024-08-14T14:21:38Z</time>
      </trkpt>
      <trkpt lat="45.00407" lon="6.07102">
        <ele>819.8</ele>
        <time>2024-08-14T14:21:39Z</time>
      </trkpt>
      <trkpt lat="45.00407" lon="6.07102">
        <ele>819.8</ele>
        <time>2024-08-14T14:21:40Z</time>
      </trkpt>
      <trkpt lat="45.0041" lon="6.071">
        <ele>819.6</ele>
        <time>2024-08-14T14:21:41Z</time>
      </trkpt>
      <trkpt lat="45.00412" lon="6.07099">
        <ele>819.6</ele>
        <time>2024-08-14T14:21:42Z</time>
      </trkpt>
      <trkpt lat="45.00412" lon="6.07099">
        <ele>819.6</ele>
        <time>2024-08-14T14:21:43Z</time>
      </trkpt>
      <trkpt lat="45.00412" lon="6.07099">
        <ele>819.4</ele>
        <time>2024-08-14T14:21:44Z</time>
      </trkpt>
      <trkpt lat="45.00416" lon="6.07096">
        <ele>819.4</ele>
        <time>2024-08-14T14:21:45Z</time>
      </trkpt>
      <trkpt lat="45.00417" lon="6.07095">
        <ele>819.2</ele>
        <time>2024-08-14T14:21:46Z</time>
      </trkpt>
      <trkpt lat="45.00417" lon="6.07095">
        <ele>818.8</ele>
        <time>2024-08-14T14:21:47Z</time>
      </trkpt>
      <trkpt lat="45.00419" lon="6.07092">
        <ele>818.8</ele>
        <time>2024-08-14T14:21:48Z</time>
      </trkpt>
      <trkpt lat="45.00419" lon="6.07092">
        <ele>818.8</ele>
        <time>2024-08-14T14:21:49Z</time>
      </trkpt>
      <trkpt lat="45.00419" lon="6.07092">
        <ele>818.4</ele>
        <time>2024-08-14T14:21:50Z</time>
      </trkpt>
      <trkpt lat="45.00422" lon="6.07088">
        <ele>818.4</ele>
        <time>2024-08-14T14:21:51Z</time>
      </trkpt>
      <trkpt lat="45.00423" lon="6.07086">
        <ele>818.2</ele>
        <time>2024-08-14T14:21:52Z</time>
      </trkpt>
      <trkpt lat="45.00423" lon="6.07086">
        <ele>818.2</ele>
        <time>2024-08-14T14:21:53Z</time>
      </trkpt>
      <trkpt lat="45.00425" lon="6.07083">
        <ele>818.2</ele>
        <time>2024-08-14T14:21:54Z</time>
      </trkpt>
      <trkpt lat="45.00427" lon="6.07083">
        <ele>818.2</ele>
        <time>2024-08-14T14:21:55Z</time>
      </trkpt>
      <trkpt lat="45.00427" lon="6.07083">
        <ele>818.2</ele>
        <time>2024-08-14T14:21:56Z</time>
      </trkpt>
      <trkpt lat="45.00427" lon="6.07083">
        <ele>818</ele>
        <time>2024-08-14T14:21:57Z</time>
      </trkpt>
      <trkpt lat="45.00431" lon="6.0708">
        <ele>817.8</ele>
        <time>2024-08-14T14:21:58Z</time>
      </trkpt>
      <trkpt lat="45.00432" lon="6.07079">
        <ele>817.8</ele>
        <time>2024-08-14T14:21:59Z</time>
      </trkpt>
      <trkpt lat="45.00432" lon="6.07079">
        <ele>817.8</ele>
        <time>2024-08-14T14:22:00Z</time>
      </trkpt>
      <trkpt lat="45.00435" lon="6.07078">
        <ele>817.4</ele>
        <time>2024-08-14T14:22:01Z</time>
      </trkpt>
      <trkpt lat="45.00435" lon="6.07078">
        <ele>817.2</ele>
        <time>2024-08-14T14:22:02Z</time>
      </trkpt>
      <trkpt lat="45.00437" lon="6.07077">
        <ele>817.2</ele>
        <time>2024-08-14T14:22:03Z</time>
      </trkpt>
      <trkpt lat="45.00437" lon="6.07077">
        <ele>817.2</ele>
        <time>2024-08-14T14:22:04Z</time>
      </trkpt>
      <trkpt lat="45.00437" lon="6.07077">
        <ele>817</ele>
        <time>2024-08-14T14:22:05Z</time>
      </trkpt>
      <trkpt lat="45.00441" lon="6.07075">
        <ele>816.8</ele>
        <time>2024-08-14T14:22:06Z</time>
      </trkpt>
      <trkpt lat="45.00443" lon="6.07074">
        <ele>816.6</ele>
        <time>2024-08-14T14:22:07Z</time>
      </trkpt>
      <trkpt lat="45.00443" lon="6.07074">
        <ele>816.6</ele>
        <time>2024-08-14T14:22:08Z</time>
      </trkpt>
      <trkpt lat="45.00443" lon="6.07074">
        <ele>816.6</ele>
        <time>2024-08-14T14:22:09Z</time>
      </trkpt>
      <trkpt lat="45.00446" lon="6.07071">
        <ele>816.4</ele>
        <time>2024-08-14T14:22:10Z</time>
      </trkpt>
      <trkpt lat="45.00448" lon="6.07071">
        <ele>816.4</ele>
        <time>2024-08-14T14:22:11Z</time>
      </trkpt>
      <trkpt lat="45.00448" lon="6.07071">
        <ele>816.2</ele>
        <time>2024-08-14T14:22:12Z</time>
      </trkpt>
      <trkpt lat="45.00451" lon="6.0707">
        <ele>816</ele>
        <time>2024-08-14T14:22:13Z</time>
      </trkpt>
      <trkpt lat="45.00451" lon="6.0707">
        <ele>816</ele>
        <time>2024-08-14T14:22:14Z</time>
      </trkpt>
      <trkpt lat="45.00453" lon="6.07069">
        <ele>815.8</ele>
        <time>2024-08-14T14:22:15Z</time>
      </trkpt>
      <trkpt lat="45.00455" lon="6.07068">
        <ele>815.8</ele>
        <time>2024-08-14T14:22:16Z</time>
      </trkpt>
      <trkpt lat="45.00455" lon="6.07068">
        <ele>815.6</ele>
        <time>2024-08-14T14:22:17Z</time>
      </trkpt>
      <trkpt lat="45.00455" lon="6.07068">
        <ele>815.6</ele>
        <time>2024-08-14T14:22:18Z</time>
      </trkpt>
      <trkpt lat="45.0046" lon="6.07067">
        <ele>815.4</ele>
        <time>2024-08-14T14:22:19Z</time>
      </trkpt>
      <trkpt lat="45.00461" lon="6.07067">
        <ele>815.4</ele>
        <time>2024-08-14T14:22:20Z</time>
      </trkpt>
      <trkpt lat="45.00463" lon="6.07066">
        <ele>815.2</ele>
        <time>2024-08-14T14:22:21Z</time>
      </trkpt>
      <trkpt lat="45.00463" lon="6.07066">
        <ele>815.2</ele>
        <time>2024-08-14T14:22:22Z</time>
      </trkpt>
      <trkpt lat="45.00466" lon="6.07065">
        <ele>815</ele>
        <time>2024-08-14T14:22:23Z</time>
      </trkpt>
      <trkpt lat="45.00466" lon="6.07065">
        <ele>814.8</ele>
        <time>2024-08-14T14:22:24Z</time>
      </trkpt>
      <trkpt lat="45.00469" lon="6.07063">
        <ele>814.6</ele>
        <time>2024-08-14T14:22:25Z</time>
      </trkpt>
      <trkpt lat="45.00469" lon="6.07063">
        <ele>814.6</ele>
        <time>2024-08-14T14:22:26Z</time>
      </trkpt>
      <trkpt lat="45.00472" lon="6.07062">
        <ele>814.6</ele>
        <time>2024-08-14T14:22:27Z</time>
      </trkpt>
      <trkpt lat="45.00472" lon="6.07062">
        <ele>814.6</ele>
        <time>2024-08-14T14:22:28Z</time>
      </trkpt>
      <trkpt lat="45.00472" lon="6.07062">
        <ele>814.4</ele>
        <time>2024-08-14T14:22:29Z</time>
      </trkpt>
      <trkpt lat="45.00476" lon="6.0706">
        <ele>814</ele>
        <time>2024-08-14T14:22:30Z</time>
      </trkpt>
      <trkpt lat="45.00477" lon="6.07059">
        <ele>814</ele>
        <time>2024-08-14T14:22:31Z</time>
      </trkpt>
      <trkpt lat="45.00477" lon="6.07059">
        <ele>814</ele>
        <time>2024-08-14T14:22:32Z</time>
      </trkpt>
      <trkpt lat="45.0048" lon="6.07059">
        <ele>813.8</ele>
        <time>2024-08-14T14:22:33Z</time>
      </trkpt>
      <trkpt lat="45.0048" lon="6.07059">
        <ele>813.8</ele>
        <time>2024-08-14T14:22:34Z</time>
      </trkpt>
      <trkpt lat="45.00482" lon="6.07057">
        <ele>813.6</ele>
        <time>2024-08-14T14:22:35Z</time>
      </trkpt>
      <trkpt lat="45.00482" lon="6.07057">
        <ele>813.6</ele>
        <time>2024-08-14T14:22:36Z</time>
      </trkpt>
      <trkpt lat="45.00485" lon="6.07057">
        <ele>813.6</ele>
        <time>2024-08-14T14:22:37Z</time>
      </trkpt>
      <trkpt lat="45.00485" lon="6.07057">
        <ele>813.4</ele>
        <time>2024-08-14T14:22:38Z</time>
      </trkpt>
      <trkpt lat="45.00489" lon="6.07056">
        <ele>813.2</ele>
        <time>2024-08-14T14:22:39Z</time>
      </trkpt>
      <trkpt lat="45.0049" lon="6.07055">
        <ele>813.2</ele>
        <time>2024-08-14T14:22:40Z</time>
      </trkpt>
      <trkpt lat="45.00491" lon="6.07055">
        <ele>813.2</ele>
        <time>2024-08-14T14:22:41Z</time>
      </trkpt>
      <trkpt lat="45.00492" lon="6.07055">
        <ele>813.2</ele>
        <time>2024-08-14T14:22:42Z</time>
      </trkpt>
      <trkpt lat="45.00492" lon="6.07055">
        <ele>812.6</ele>
        <time>2024-08-14T14:22:43Z</time>
      </trkpt>
      <trkpt lat="45.00496" lon="6.07052">
        <ele>812.6</ele>
        <time>2024-08-14T14:22:44Z</time>
      </trkpt>
      <trkpt lat="45.00498" lon="6.07051">
        <ele>812.2</ele>
        <time>2024-08-14T14:22:45Z</time>
      </trkpt>
      <trkpt lat="45.00498" lon="6.07051">
        <ele>812.2</ele>
        <time>2024-08-14T14:22:46Z</time>
      </trkpt>
      <trkpt lat="45.005" lon="6.07048">
        <ele>812</ele>
        <time>2024-08-14T14:22:47Z</time>
      </trkpt>
      <trkpt lat="45.005" lon="6.07048">
        <ele>812</ele>
        <time>2024-08-14T14:22:48Z</time>
      </trkpt>
      <trkpt lat="45.00502" lon="6.07046">
        <ele>812</ele>
        <time>2024-08-14T14:22:49Z</time>
      </trkpt>
      <trkpt lat="45.00502" lon="6.07046">
        <ele>812</ele>
        <time>2024-08-14T14:22:50Z</time>
      </trkpt>
      <trkpt lat="45.00505" lon="6.07044">
        <ele>812</ele>
        <time>2024-08-14T14:22:51Z</time>
      </trkpt>
      <trkpt lat="45.00505" lon="6.07044">
        <ele>811.8</ele>
        <time>2024-08-14T14:22:52Z</time>
      </trkpt>
      <trkpt lat="45.00507" lon="6.07042">
        <ele>811.8</ele>
        <time>2024-08-14T14:22:53Z</time>
      </trkpt>
      <trkpt lat="45.00507" lon="6.07042">
        <ele>811.6</ele>
        <time>2024-08-14T14:22:54Z</time>
      </trkpt>
      <trkpt lat="45.00509" lon="6.07041">
        <ele>811.2</ele>
        <time>2024-08-14T14:22:55Z</time>
      </trkpt>
      <trkpt lat="45.00509" lon="6.07041">
        <ele>811</ele>
        <time>2024-08-14T14:22:56Z</time>
      </trkpt>
      <trkpt lat="45.00509" lon="6.07041">
        <ele>810.8</ele>
        <time>2024-08-14T14:22:57Z</time>
      </trkpt>
      <trkpt lat="45.00513" lon="6.07038">
        <ele>810.8</ele>
        <time>2024-08-14T14:22:58Z</time>
      </trkpt>
      <trkpt lat="45.00515" lon="6.07037">
        <ele>810.8</ele>
        <time>2024-08-14T14:22:59Z</time>
      </trkpt>
      <trkpt lat="45.00515" lon="6.07037">
        <ele>810.8</ele>
        <time>2024-08-14T14:23:00Z</time>
      </trkpt>
      <trkpt lat="45.00517" lon="6.07036">
        <ele>810.8</ele>
        <time>2024-08-14T14:23:01Z</time>
      </trkpt>
      <trkpt lat="45.00517" lon="6.07036">
        <ele>810.4</ele>
        <time>2024-08-14T14:23:02Z</time>
      </trkpt>
      <trkpt lat="45.0052" lon="6.07034">
        <ele>810.6</ele>
        <time>2024-08-14T14:23:03Z</time>
      </trkpt>
      <trkpt lat="45.0052" lon="6.07034">
        <ele>810.6</ele>
        <time>2024-08-14T14:23:04Z</time>
      </trkpt>
      <trkpt lat="45.00522" lon="6.07031">
        <ele>810.6</ele>
        <time>2024-08-14T14:23:05Z</time>
      </trkpt>
      <trkpt lat="45.00522" lon="6.07031">
        <ele>810.4</ele>
        <time>2024-08-14T14:23:06Z</time>
      </trkpt>
      <trkpt lat="45.00525" lon="6.07029">
        <ele>810.4</ele>
        <time>2024-08-14T14:23:07Z</time>
      </trkpt>
      <trkpt lat="45.00526" lon="6.07028">
        <ele>810.4</ele>
        <time>2024-08-14T14:23:08Z</time>
      </trkpt>
      <trkpt lat="45.00526" lon="6.07028">
        <ele>810.2</ele>
        <time>2024-08-14T14:23:09Z</time>
      </trkpt>
      <trkpt lat="45.00526" lon="6.07028">
        <ele>810</ele>
        <time>2024-08-14T14:23:10Z</time>
      </trkpt>
      <trkpt lat="45.0053" lon="6.07026">
        <ele>810</ele>
        <time>2024-08-14T14:23:11Z</time>
      </trkpt>
      <trkpt lat="45.00531" lon="6.07025">
        <ele>809.6</ele>
        <time>2024-08-14T14:23:12Z</time>
      </trkpt>
      <trkpt lat="45.00531" lon="6.07025">
        <ele>809.6</ele>
        <time>2024-08-14T14:23:13Z</time>
      </trkpt>
      <trkpt lat="45.00533" lon="6.07023">
        <ele>809.6</ele>
        <time>2024-08-14T14:23:14Z</time>
      </trkpt>
      <trkpt lat="45.00533" lon="6.07023">
        <ele>809.6</ele>
        <time>2024-08-14T14:23:15Z</time>
      </trkpt>
      <trkpt lat="45.00536" lon="6.07022">
        <ele>809.6</ele>
        <time>2024-08-14T14:23:16Z</time>
      </trkpt>
      <trkpt lat="45.00536" lon="6.07022">
        <ele>809.4</ele>
        <time>2024-08-14T14:23:17Z</time>
      </trkpt>
      <trkpt lat="45.00536" lon="6.07022">
        <ele>809.2</ele>
        <time>2024-08-14T14:23:18Z</time>
      </trkpt>
      <trkpt lat="45.0054" lon="6.07019">
        <ele>809.2</ele>
        <time>2024-08-14T14:23:19Z</time>
      </trkpt>
      <trkpt lat="45.0054" lon="6.07019">
        <ele>809.2</ele>
        <time>2024-08-14T14:23:20Z</time>
      </trkpt>
      <trkpt lat="45.00542" lon="6.07018">
        <ele>809.2</ele>
        <time>2024-08-14T14:23:21Z</time>
      </trkpt>
      <trkpt lat="45.00544" lon="6.07017">
        <ele>809.2</ele>
        <time>2024-08-14T14:23:22Z</time>
      </trkpt>
      <trkpt lat="45.00544" lon="6.07017">
        <ele>809</ele>
        <time>2024-08-14T14:23:23Z</time>
      </trkpt>
      <trkpt lat="45.00547" lon="6.07016">
        <ele>809</ele>
        <time>2024-08-14T14:23:24Z</time>
      </trkpt>
      <trkpt lat="45.00547" lon="6.07016">
        <ele>808.8</ele>
        <time>2024-08-14T14:23:25Z</time>
      </trkpt>
      <trkpt lat="45.0055" lon="6.07015">
        <ele>808.6</ele>
        <time>2024-08-14T14:23:26Z</time>
      </trkpt>
      <trkpt lat="45.0055" lon="6.07015">
        <ele>808.4</ele>
        <time>2024-08-14T14:23:27Z</time>
      </trkpt>
      <trkpt lat="45.00552" lon="6.07013">
        <ele>808.4</ele>
        <time>2024-08-14T14:23:28Z</time>
      </trkpt>
      <trkpt lat="45.00552" lon="6.07013">
        <ele>808.2</ele>
        <time>2024-08-14T14:23:29Z</time>
      </trkpt>
      <trkpt lat="45.00556" lon="6.07012">
        <ele>808</ele>
        <time>2024-08-14T14:23:30Z</time>
      </trkpt>
      <trkpt lat="45.00557" lon="6.07011">
        <ele>807.8</ele>
        <time>2024-08-14T14:23:31Z</time>
      </trkpt>
      <trkpt lat="45.00557" lon="6.07011">
        <ele>807.6</ele>
        <time>2024-08-14T14:23:32Z</time>
      </trkpt>
      <trkpt lat="45.00561" lon="6.0701">
        <ele>807.6</ele>
        <time>2024-08-14T14:23:33Z</time>
      </trkpt>
      <trkpt lat="45.00561" lon="6.0701">
        <ele>807.6</ele>
        <time>2024-08-14T14:23:34Z</time>
      </trkpt>
      <trkpt lat="45.00564" lon="6.07009">
        <ele>807.6</ele>
        <time>2024-08-14T14:23:35Z</time>
      </trkpt>
      <trkpt lat="45.00564" lon="6.07009">
        <ele>807.6</ele>
        <time>2024-08-14T14:23:36Z</time>
      </trkpt>
      <trkpt lat="45.00564" lon="6.07009">
        <ele>807.4</ele>
        <time>2024-08-14T14:23:37Z</time>
      </trkpt>
      <trkpt lat="45.00566" lon="6.07009">
        <ele>807</ele>
        <time>2024-08-14T14:23:38Z</time>
      </trkpt>
      <trkpt lat="45.00568" lon="6.07008">
        <ele>807</ele>
        <time>2024-08-14T14:23:39Z</time>
      </trkpt>
      <trkpt lat="45.00568" lon="6.07008">
        <ele>807</ele>
        <time>2024-08-14T14:23:40Z</time>
      </trkpt>
      <trkpt lat="45.0057" lon="6.07007">
        <ele>807</ele>
        <time>2024-08-14T14:23:41Z</time>
      </trkpt>
      <trkpt lat="45.0057" lon="6.07007">
        <ele>806.8</ele>
        <time>2024-08-14T14:23:42Z</time>
      </trkpt>
      <trkpt lat="45.00573" lon="6.07005">
        <ele>806.8</ele>
        <time>2024-08-14T14:23:43Z</time>
      </trkpt>
      <trkpt lat="45.00573" lon="6.07005">
        <ele>806.6</ele>
        <time>2024-08-14T14:23:44Z</time>
      </trkpt>
      <trkpt lat="45.00576" lon="6.07004">
        <ele>806.2</ele>
        <time>2024-08-14T14:23:45Z</time>
      </trkpt>
      <trkpt lat="45.00576" lon="6.07004">
        <ele>805.8</ele>
        <time>2024-08-14T14:23:46Z</time>
      </trkpt>
      <trkpt lat="45.00579" lon="6.07003">
        <ele>805.8</ele>
        <time>2024-08-14T14:23:47Z</time>
      </trkpt>
      <trkpt lat="45.00579" lon="6.07003">
        <ele>805.8</ele>
        <time>2024-08-14T14:23:48Z</time>
      </trkpt>
      <trkpt lat="45.00582" lon="6.07001">
        <ele>805.8</ele>
        <time>2024-08-14T14:23:49Z</time>
      </trkpt>
      <trkpt lat="45.00582" lon="6.07001">
        <ele>805.8</ele>
        <time>2024-08-14T14:23:50Z</time>
      </trkpt>
      <trkpt lat="45.00585" lon="6.07">
        <ele>805.6</ele>
        <time>2024-08-14T14:23:51Z</time>
      </trkpt>
      <trkpt lat="45.00586" lon="6.06999">
        <ele>805.4</ele>
        <time>2024-08-14T14:23:52Z</time>
      </trkpt>
      <trkpt lat="45.00586" lon="6.06999">
        <ele>805.2</ele>
        <time>2024-08-14T14:23:53Z</time>
      </trkpt>
      <trkpt lat="45.00589" lon="6.06998">
        <ele>805.2</ele>
        <time>2024-08-14T14:23:54Z</time>
      </trkpt>
      <trkpt lat="45.00589" lon="6.06998">
        <ele>805.2</ele>
        <time>2024-08-14T14:23:55Z</time>
      </trkpt>
      <trkpt lat="45.00592" lon="6.06998">
        <ele>805</ele>
        <time>2024-08-14T14:23:56Z</time>
      </trkpt>
      <trkpt lat="45.00592" lon="6.06998">
        <ele>804.8</ele>
        <time>2024-08-14T14:23:57Z</time>
      </trkpt>
      <trkpt lat="45.00594" lon="6.06997">
        <ele>804.8</ele>
        <time>2024-08-14T14:23:58Z</time>
      </trkpt>
      <trkpt lat="45.00594" lon="6.06997">
        <ele>804.6</ele>
        <time>2024-08-14T14:23:59Z</time>
      </trkpt>
      <trkpt lat="45.00597" lon="6.06995">
        <ele>804.4</ele>
        <time>2024-08-14T14:24:00Z</time>
      </trkpt>
      <trkpt lat="45.00597" lon="6.06995">
        <ele>804.4</ele>
        <time>2024-08-14T14:24:01Z</time>
      </trkpt>
      <trkpt lat="45.006" lon="6.06995">
        <ele>804.4</ele>
        <time>2024-08-14T14:24:02Z</time>
      </trkpt>
      <trkpt lat="45.006" lon="6.06995">
        <ele>804.4</ele>
        <time>2024-08-14T14:24:03Z</time>
      </trkpt>
      <trkpt lat="45.006" lon="6.06995">
        <ele>804.2</ele>
        <time>2024-08-14T14:24:04Z</time>
      </trkpt>
      <trkpt lat="45.00604" lon="6.06992">
        <ele>804</ele>
        <time>2024-08-14T14:24:05Z</time>
      </trkpt>
      <trkpt lat="45.00605" lon="6.06991">
        <ele>803.8</ele>
        <time>2024-08-14T14:24:06Z</time>
      </trkpt>
      <trkpt lat="45.00605" lon="6.06991">
        <ele>803.8</ele>
        <time>2024-08-14T14:24:07Z</time>
      </trkpt>
      <trkpt lat="45.00607" lon="6.06989">
        <ele>803.8</ele>
        <time>2024-08-14T14:24:08Z</time>
      </trkpt>
      <trkpt lat="45.00607" lon="6.06989">
        <ele>803.6</ele>
        <time>2024-08-14T14:24:09Z</time>
      </trkpt>
      <trkpt lat="45.0061" lon="6.06987">
        <ele>803.4</ele>
        <time>2024-08-14T14:24:10Z</time>
      </trkpt>
      <trkpt lat="45.0061" lon="6.06987">
        <ele>803.2</ele>
        <time>2024-08-14T14:24:11Z</time>
      </trkpt>
      <trkpt lat="45.00613" lon="6.06986">
        <ele>803.2</ele>
        <time>2024-08-14T14:24:12Z</time>
      </trkpt>
      <trkpt lat="45.00613" lon="6.06986">
        <ele>803</ele>
        <time>2024-08-14T14:24:13Z</time>
      </trkpt>
      <trkpt lat="45.00614" lon="6.06983">
        <ele>802.8</ele>
        <time>2024-08-14T14:24:14Z</time>
      </trkpt>
      <trkpt lat="45.00614" lon="6.06983">
        <ele>802.8</ele>
        <time>2024-08-14T14:24:15Z</time>
      </trkpt>
      <trkpt lat="45.00618" lon="6.06982">
        <ele>802.8</ele>
        <time>2024-08-14T14:24:16Z</time>
      </trkpt>
      <trkpt lat="45.00619" lon="6.0698">
        <ele>802.6</ele>
        <time>2024-08-14T14:24:17Z</time>
      </trkpt>
      <trkpt lat="45.00619" lon="6.0698">
        <ele>802.6</ele>
        <time>2024-08-14T14:24:18Z</time>
      </trkpt>
      <trkpt lat="45.00622" lon="6.06979">
        <ele>802.6</ele>
        <time>2024-08-14T14:24:19Z</time>
      </trkpt>
      <trkpt lat="45.00622" lon="6.06979">
        <ele>802.6</ele>
        <time>2024-08-14T14:24:20Z</time>
      </trkpt>
      <trkpt lat="45.00624" lon="6.06977">
        <ele>802.6</ele>
        <time>2024-08-14T14:24:21Z</time>
      </trkpt>
      <trkpt lat="45.00624" lon="6.06977">
        <ele>802.4</ele>
        <time>2024-08-14T14:24:22Z</time>
      </trkpt>
      <trkpt lat="45.00624" lon="6.06977">
        <ele>802.2</ele>
        <time>2024-08-14T14:24:23Z</time>
      </trkpt>
      <trkpt lat="45.00628" lon="6.06973">
        <ele>802</ele>
        <time>2024-08-14T14:24:24Z</time>
      </trkpt>
      <trkpt lat="45.00629" lon="6.06971">
        <ele>802</ele>
        <time>2024-08-14T14:24:25Z</time>
      </trkpt>
      <trkpt lat="45.00629" lon="6.06971">
        <ele>801.8</ele>
        <time>2024-08-14T14:24:26Z</time>
      </trkpt>
      <trkpt lat="45.00631" lon="6.06968">
        <ele>801.8</ele>
        <time>2024-08-14T14:24:27Z</time>
      </trkpt>
      <trkpt lat="45.00631" lon="6.06968">
        <ele>801.8</ele>
        <time>2024-08-14T14:24:28Z</time>
      </trkpt>
      <trkpt lat="45.00633" lon="6.06964">
        <ele>801.4</ele>
        <time>2024-08-14T14:24:29Z</time>
      </trkpt>
      <trkpt lat="45.00633" lon="6.06964">
        <ele>801.2</ele>
        <time>2024-08-14T14:24:30Z</time>
      </trkpt>
      <trkpt lat="45.00635" lon="6.06962">
        <ele>801.2</ele>
        <time>2024-08-14T14:24:31Z</time>
      </trkpt>
      <trkpt lat="45.00635" lon="6.06962">
        <ele>801</ele>
        <time>2024-08-14T14:24:32Z</time>
      </trkpt>
      <trkpt lat="45.00638" lon="6.0696">
        <ele>800.8</ele>
        <time>2024-08-14T14:24:33Z</time>
      </trkpt>
      <trkpt lat="45.00638" lon="6.0696">
        <ele>800.8</ele>
        <time>2024-08-14T14:24:34Z</time>
      </trkpt>
      <trkpt lat="45.0064" lon="6.06957">
        <ele>800.6</ele>
        <time>2024-08-14T14:24:35Z</time>
      </trkpt>
      <trkpt lat="45.0064" lon="6.06957">
        <ele>800.6</ele>
        <time>2024-08-14T14:24:36Z</time>
      </trkpt>
      <trkpt lat="45.00642" lon="6.06954">
        <ele>800.6</ele>
        <time>2024-08-14T14:24:37Z</time>
      </trkpt>
      <trkpt lat="45.00644" lon="6.06953">
        <ele>800.4</ele>
        <time>2024-08-14T14:24:38Z</time>
      </trkpt>
      <trkpt lat="45.00644" lon="6.06953">
        <ele>800.2</ele>
        <time>2024-08-14T14:24:39Z</time>
      </trkpt>
      <trkpt lat="45.00647" lon="6.06951">
        <ele>800</ele>
        <time>2024-08-14T14:24:40Z</time>
      </trkpt>
      <trkpt lat="45.00647" lon="6.06951">
        <ele>800</ele>
        <time>2024-08-14T14:24:41Z</time>
      </trkpt>
      <trkpt lat="45.00647" lon="6.06951">
        <ele>799.8</ele>
        <time>2024-08-14T14:24:42Z</time>
      </trkpt>
      <trkpt lat="45.0065" lon="6.06946">
        <ele>799.8</ele>
        <time>2024-08-14T14:24:43Z</time>
      </trkpt>
      <trkpt lat="45.00652" lon="6.06945">
        <ele>799.6</ele>
        <time>2024-08-14T14:24:44Z</time>
      </trkpt>
      <trkpt lat="45.00652" lon="6.06945">
        <ele>799.4</ele>
        <time>2024-08-14T14:24:45Z</time>
      </trkpt>
      <trkpt lat="45.00654" lon="6.06943">
        <ele>799.4</ele>
        <time>2024-08-14T14:24:46Z</time>
      </trkpt>
      <trkpt lat="45.00654" lon="6.06943">
        <ele>799.2</ele>
        <time>2024-08-14T14:24:47Z</time>
      </trkpt>
      <trkpt lat="45.00655" lon="6.06939">
        <ele>799</ele>
        <time>2024-08-14T14:24:48Z</time>
      </trkpt>
      <trkpt lat="45.00655" lon="6.06939">
        <ele>798.8</ele>
        <time>2024-08-14T14:24:49Z</time>
      </trkpt>
      <trkpt lat="45.00657" lon="6.06935">
        <ele>798.6</ele>
        <time>2024-08-14T14:24:50Z</time>
      </trkpt>
      <trkpt lat="45.00657" lon="6.06935">
        <ele>798.6</ele>
        <time>2024-08-14T14:24:51Z</time>
      </trkpt>
      <trkpt lat="45.00657" lon="6.06935">
        <ele>798.6</ele>
        <time>2024-08-14T14:24:52Z</time>
      </trkpt>
      <trkpt lat="45.00657" lon="6.06932">
        <ele>798.2</ele>
        <time>2024-08-14T14:24:53Z</time>
      </trkpt>
      <trkpt lat="45.00657" lon="6.06932">
        <ele>798.2</ele>
        <time>2024-08-14T14:24:54Z</time>
      </trkpt>
      <trkpt lat="45.00657" lon="6.06929">
        <ele>798.2</ele>
        <time>2024-08-14T14:24:55Z</time>
      </trkpt>
      <trkpt lat="45.00657" lon="6.06929">
        <ele>798</ele>
        <time>2024-08-14T14:24:56Z</time>
      </trkpt>
      <trkpt lat="45.00657" lon="6.06929">
        <ele>797.8</ele>
        <time>2024-08-14T14:24:57Z</time>
      </trkpt>
      <trkpt lat="45.00658" lon="6.06924">
        <ele>797.6</ele>
        <time>2024-08-14T14:24:58Z</time>
      </trkpt>
      <trkpt lat="45.00659" lon="6.06922">
        <ele>797.6</ele>
        <time>2024-08-14T14:24:59Z</time>
      </trkpt>
      <trkpt lat="45.00659" lon="6.06922">
        <ele>797.8</ele>
        <time>2024-08-14T14:25:00Z</time>
      </trkpt>
      <trkpt lat="45.00661" lon="6.06919">
        <ele>797.8</ele>
        <time>2024-08-14T14:25:01Z</time>
      </trkpt>
      <trkpt lat="45.00661" lon="6.06919">
        <ele>797.8</ele>
        <time>2024-08-14T14:25:02Z</time>
      </trkpt>
      <trkpt lat="45.00663" lon="6.06915">
        <ele>797.8</ele>
        <time>2024-08-14T14:25:03Z</time>
      </trkpt>
      <trkpt lat="45.00663" lon="6.06915">
        <ele>797.6</ele>
        <time>2024-08-14T14:25:04Z</time>
      </trkpt>
      <trkpt lat="45.00665" lon="6.06912">
        <ele>797.6</ele>
        <time>2024-08-14T14:25:05Z</time>
      </trkpt>
      <trkpt lat="45.00665" lon="6.06912">
        <ele>797.2</ele>
        <time>2024-08-14T14:25:06Z</time>
      </trkpt>
      <trkpt lat="45.00667" lon="6.0691">
        <ele>797</ele>
        <time>2024-08-14T14:25:07Z</time>
      </trkpt>
      <trkpt lat="45.00667" lon="6.0691">
        <ele>797</ele>
        <time>2024-08-14T14:25:08Z</time>
      </trkpt>
      <trkpt lat="45.00669" lon="6.06908">
        <ele>797.2</ele>
        <time>2024-08-14T14:25:09Z</time>
      </trkpt>
      <trkpt lat="45.00669" lon="6.06908">
        <ele>797.2</ele>
        <time>2024-08-14T14:25:10Z</time>
      </trkpt>
      <trkpt lat="45.00672" lon="6.06907">
        <ele>797.2</ele>
        <time>2024-08-14T14:25:11Z</time>
      </trkpt>
      <trkpt lat="45.00672" lon="6.06907">
        <ele>797</ele>
        <time>2024-08-14T14:25:12Z</time>
      </trkpt>
      <trkpt lat="45.00674" lon="6.06904">
        <ele>796.8</ele>
        <time>2024-08-14T14:25:13Z</time>
      </trkpt>
      <trkpt lat="45.00674" lon="6.06904">
        <ele>796.8</ele>
        <time>2024-08-14T14:25:14Z</time>
      </trkpt>
      <trkpt lat="45.00677" lon="6.06902">
        <ele>796.8</ele>
        <time>2024-08-14T14:25:15Z</time>
      </trkpt>
      <trkpt lat="45.00677" lon="6.06902">
        <ele>796.8</ele>
        <time>2024-08-14T14:25:16Z</time>
      </trkpt>
      <trkpt lat="45.00679" lon="6.06899">
        <ele>796.8</ele>
        <time>2024-08-14T14:25:17Z</time>
      </trkpt>
      <trkpt lat="45.00679" lon="6.06899">
        <ele>796.6</ele>
        <time>2024-08-14T14:25:18Z</time>
      </trkpt>
      <trkpt lat="45.0068" lon="6.06895">
        <ele>796.4</ele>
        <time>2024-08-14T14:25:19Z</time>
      </trkpt>
      <trkpt lat="45.0068" lon="6.06895">
        <ele>796.4</ele>
        <time>2024-08-14T14:25:20Z</time>
      </trkpt>
      <trkpt lat="45.00682" lon="6.06892">
        <ele>796.4</ele>
        <time>2024-08-14T14:25:21Z</time>
      </trkpt>
      <trkpt lat="45.00682" lon="6.06892">
        <ele>796.2</ele>
        <time>2024-08-14T14:25:22Z</time>
      </trkpt>
      <trkpt lat="45.00683" lon="6.06889">
        <ele>796.2</ele>
        <time>2024-08-14T14:25:23Z</time>
      </trkpt>
      <trkpt lat="45.00683" lon="6.06889">
        <ele>796</ele>
        <time>2024-08-14T14:25:24Z</time>
      </trkpt>
      <trkpt lat="45.00685" lon="6.06887">
        <ele>796</ele>
        <time>2024-08-14T14:25:25Z</time>
      </trkpt>
      <trkpt lat="45.00685" lon="6.06887">
        <ele>796</ele>
        <time>2024-08-14T14:25:26Z</time>
      </trkpt>
      <trkpt lat="45.00687" lon="6.06885">
        <ele>795.6</ele>
        <time>2024-08-14T14:25:27Z</time>
      </trkpt>
      <trkpt lat="45.00687" lon="6.06885">
        <ele>795.6</ele>
        <time>2024-08-14T14:25:28Z</time>
      </trkpt>
      <trkpt lat="45.00689" lon="6.06883">
        <ele>795.4</ele>
        <time>2024-08-14T14:25:29Z</time>
      </trkpt>
      <trkpt lat="45.00689" lon="6.06883">
        <ele>795.2</ele>
        <time>2024-08-14T14:25:30Z</time>
      </trkpt>
      <trkpt lat="45.00692" lon="6.06881">
        <ele>795.2</ele>
        <time>2024-08-14T14:25:31Z</time>
      </trkpt>
      <trkpt lat="45.00692" lon="6.06881">
        <ele>795.2</ele>
        <time>2024-08-14T14:25:32Z</time>
      </trkpt>
      <trkpt lat="45.00695" lon="6.06878">
        <ele>795</ele>
        <time>2024-08-14T14:25:33Z</time>
      </trkpt>
      <trkpt lat="45.00695" lon="6.06878">
        <ele>794.8</ele>
        <time>2024-08-14T14:25:34Z</time>
      </trkpt>
      <trkpt lat="45.00697" lon="6.06875">
        <ele>794.8</ele>
        <time>2024-08-14T14:25:35Z</time>
      </trkpt>
      <trkpt lat="45.00697" lon="6.06875">
        <ele>794.6</ele>
        <time>2024-08-14T14:25:36Z</time>
      </trkpt>
      <trkpt lat="45.00699" lon="6.06872">
        <ele>794.4</ele>
        <time>2024-08-14T14:25:37Z</time>
      </trkpt>
      <trkpt lat="45.00699" lon="6.06872">
        <ele>794.4</ele>
        <time>2024-08-14T14:25:38Z</time>
      </trkpt>
      <trkpt lat="45.00699" lon="6.06872">
        <ele>794.2</ele>
        <time>2024-08-14T14:25:39Z</time>
      </trkpt>
      <trkpt lat="45.00702" lon="6.06868">
        <ele>794</ele>
        <time>2024-08-14T14:25:40Z</time>
      </trkpt>
      <trkpt lat="45.00703" lon="6.06867">
        <ele>794</ele>
        <time>2024-08-14T14:25:41Z</time>
      </trkpt>
      <trkpt lat="45.00703" lon="6.06867">
        <ele>794</ele>
        <time>2024-08-14T14:25:42Z</time>
      </trkpt>
      <trkpt lat="45.00706" lon="6.06864">
        <ele>794</ele>
        <time>2024-08-14T14:25:43Z</time>
      </trkpt>
      <trkpt lat="45.00706" lon="6.06864">
        <ele>794</ele>
        <time>2024-08-14T14:25:44Z</time>
      </trkpt>
      <trkpt lat="45.00708" lon="6.06863">
        <ele>793.6</ele>
        <time>2024-08-14T14:25:45Z</time>
      </trkpt>
      <trkpt lat="45.00708" lon="6.06863">
        <ele>793.6</ele>
        <time>2024-08-14T14:25:46Z</time>
      </trkpt>
      <trkpt lat="45.00711" lon="6.06861">
        <ele>793.6</ele>
        <time>2024-08-14T14:25:47Z</time>
      </trkpt>
      <trkpt lat="45.00711" lon="6.06861">
        <ele>793.2</ele>
        <time>2024-08-14T14:25:48Z</time>
      </trkpt>
      <trkpt lat="45.00713" lon="6.0686">
        <ele>793.2</ele>
        <time>2024-08-14T14:25:49Z</time>
      </trkpt>
      <trkpt lat="45.00715" lon="6.06859">
        <ele>793.2</ele>
        <time>2024-08-14T14:25:50Z</time>
      </trkpt>
      <trkpt lat="45.00717" lon="6.06858">
        <ele>793.2</ele>
        <time>2024-08-14T14:25:51Z</time>
      </trkpt>
      <trkpt lat="45.00718" lon="6.06857">
        <ele>792.8</ele>
        <time>2024-08-14T14:25:52Z</time>
      </trkpt>
      <trkpt lat="45.00718" lon="6.06857">
        <ele>792.6</ele>
        <time>2024-08-14T14:25:53Z</time>
      </trkpt>
      <trkpt lat="45.00721" lon="6.06856">
        <ele>792.6</ele>
        <time>2024-08-14T14:25:54Z</time>
      </trkpt>
      <trkpt lat="45.00721" lon="6.06856">
        <ele>792.6</ele>
        <time>2024-08-14T14:25:55Z</time>
      </trkpt>
      <trkpt lat="45.00723" lon="6.06854">
        <ele>792.6</ele>
        <time>2024-08-14T14:25:56Z</time>
      </trkpt>
      <trkpt lat="45.00723" lon="6.06854">
        <ele>792.6</ele>
        <time>2024-08-14T14:25:57Z</time>
      </trkpt>
      <trkpt lat="45.00725" lon="6.06853">
        <ele>792.6</ele>
        <time>2024-08-14T14:25:58Z</time>
      </trkpt>
      <trkpt lat="45.00725" lon="6.06853">
        <ele>792.6</ele>
        <time>2024-08-14T14:25:59Z</time>
      </trkpt>
      <trkpt lat="45.00728" lon="6.06852">
        <ele>792.6</ele>
        <time>2024-08-14T14:26:00Z</time>
      </trkpt>
      <trkpt lat="45.00728" lon="6.06852">
        <ele>792.2</ele>
        <time>2024-08-14T14:26:01Z</time>
      </trkpt>
      <trkpt lat="45.00731" lon="6.06851">
        <ele>792.2</ele>
        <time>2024-08-14T14:26:02Z</time>
      </trkpt>
      <trkpt lat="45.00731" lon="6.06851">
        <ele>792.2</ele>
        <time>2024-08-14T14:26:03Z</time>
      </trkpt>
      <trkpt lat="45.00733" lon="6.06848">
        <ele>792</ele>
        <time>2024-08-14T14:26:04Z</time>
      </trkpt>
      <trkpt lat="45.00733" lon="6.06848">
        <ele>792</ele>
        <time>2024-08-14T14:26:05Z</time>
      </trkpt>
      <trkpt lat="45.00735" lon="6.06847">
        <ele>792</ele>
        <time>2024-08-14T14:26:06Z</time>
      </trkpt>
      <trkpt lat="45.00735" lon="6.06847">
        <ele>791.8</ele>
        <time>2024-08-14T14:26:07Z</time>
      </trkpt>
      <trkpt lat="45.00738" lon="6.06845">
        <ele>791.8</ele>
        <time>2024-08-14T14:26:08Z</time>
      </trkpt>
      <trkpt lat="45.00738" lon="6.06845">
        <ele>791.8</ele>
        <time>2024-08-14T14:26:09Z</time>
      </trkpt>
      <trkpt lat="45.00738" lon="6.06845">
        <ele>791.8</ele>
        <time>2024-08-14T14:26:10Z</time>
      </trkpt>
      <trkpt lat="45.00742" lon="6.06844">
        <ele>791.6</ele>
        <time>2024-08-14T14:26:11Z</time>
      </trkpt>
      <trkpt lat="45.00743" lon="6.06843">
        <ele>791.6</ele>
        <time>2024-08-14T14:26:12Z</time>
      </trkpt>
      <trkpt lat="45.00743" lon="6.06843">
        <ele>791.4</ele>
        <time>2024-08-14T14:26:13Z</time>
      </trkpt>
      <trkpt lat="45.00747" lon="6.06841">
        <ele>791.2</ele>
        <time>2024-08-14T14:26:14Z</time>
      </trkpt>
      <trkpt lat="45.00747" lon="6.06841">
        <ele>791.2</ele>
        <time>2024-08-14T14:26:15Z</time>
      </trkpt>
      <trkpt lat="45.00749" lon="6.06839">
        <ele>791.2</ele>
        <time>2024-08-14T14:26:16Z</time>
      </trkpt>
      <trkpt lat="45.00749" lon="6.06839">
        <ele>791</ele>
        <time>2024-08-14T14:26:17Z</time>
      </trkpt>
      <trkpt lat="45.00752" lon="6.06838">
        <ele>791</ele>
        <time>2024-08-14T14:26:18Z</time>
      </trkpt>
      <trkpt lat="45.00752" lon="6.06838">
        <ele>791</ele>
        <time>2024-08-14T14:26:19Z</time>
      </trkpt>
      <trkpt lat="45.00752" lon="6.06838">
        <ele>791</ele>
        <time>2024-08-14T14:26:20Z</time>
      </trkpt>
      <trkpt lat="45.00756" lon="6.06835">
        <ele>791</ele>
        <time>2024-08-14T14:26:21Z</time>
      </trkpt>
      <trkpt lat="45.00757" lon="6.06835">
        <ele>791</ele>
        <time>2024-08-14T14:26:22Z</time>
      </trkpt>
      <trkpt lat="45.00757" lon="6.06835">
        <ele>791</ele>
        <time>2024-08-14T14:26:23Z</time>
      </trkpt>
      <trkpt lat="45.00759" lon="6.06833">
        <ele>791</ele>
        <time>2024-08-14T14:26:24Z</time>
      </trkpt>
      <trkpt lat="45.00759" lon="6.06833">
        <ele>790.6</ele>
        <time>2024-08-14T14:26:25Z</time>
      </trkpt>
      <trkpt lat="45.00762" lon="6.06831">
        <ele>790.6</ele>
        <time>2024-08-14T14:26:26Z</time>
      </trkpt>
      <trkpt lat="45.00762" lon="6.06831">
        <ele>790.6</ele>
        <time>2024-08-14T14:26:27Z</time>
      </trkpt>
      <trkpt lat="45.00762" lon="6.06831">
        <ele>790.4</ele>
        <time>2024-08-14T14:26:28Z</time>
      </trkpt>
      <trkpt lat="45.00766" lon="6.06828">
        <ele>790.4</ele>
        <time>2024-08-14T14:26:29Z</time>
      </trkpt>
      <trkpt lat="45.00767" lon="6.06827">
        <ele>790.6</ele>
        <time>2024-08-14T14:26:30Z</time>
      </trkpt>
      <trkpt lat="45.00767" lon="6.06827">
        <ele>790.8</ele>
        <time>2024-08-14T14:26:31Z</time>
      </trkpt>
      <trkpt lat="45.00767" lon="6.06827">
        <ele>790.8</ele>
        <time>2024-08-14T14:26:32Z</time>
      </trkpt>
      <trkpt lat="45.00771" lon="6.06823">
        <ele>790.6</ele>
        <time>2024-08-14T14:26:33Z</time>
      </trkpt>
      <trkpt lat="45.00772" lon="6.06821">
        <ele>790.6</ele>
        <time>2024-08-14T14:26:34Z</time>
      </trkpt>
      <trkpt lat="45.00772" lon="6.06821">
        <ele>790.4</ele>
        <time>2024-08-14T14:26:35Z</time>
      </trkpt>
      <trkpt lat="45.00773" lon="6.06815">
        <ele>790.4</ele>
        <time>2024-08-14T14:26:36Z</time>
      </trkpt>
      <trkpt lat="45.00773" lon="6.06815">
        <ele>790.4</ele>
        <time>2024-08-14T14:26:37Z</time>
      </trkpt>
      <trkpt lat="45.00776" lon="6.06813">
        <ele>790.2</ele>
        <time>2024-08-14T14:26:38Z</time>
      </trkpt>
      <trkpt lat="45.00776" lon="6.06813">
        <ele>790.2</ele>
        <time>2024-08-14T14:26:39Z</time>
      </trkpt>
      <trkpt lat="45.00778" lon="6.06813">
        <ele>790.2</ele>
        <time>2024-08-14T14:26:40Z</time>
      </trkpt>
      <trkpt lat="45.00778" lon="6.06813">
        <ele>790</ele>
        <time>2024-08-14T14:26:41Z</time>
      </trkpt>
      <trkpt lat="45.00778" lon="6.06813">
        <ele>790</ele>
        <time>2024-08-14T14:26:42Z</time>
      </trkpt>
      <trkpt lat="45.00782" lon="6.06811">
        <ele>789.8</ele>
        <time>2024-08-14T14:26:43Z</time>
      </trkpt>
      <trkpt lat="45.00784" lon="6.06811">
        <ele>789.8</ele>
        <time>2024-08-14T14:26:44Z</time>
      </trkpt>
      <trkpt lat="45.00784" lon="6.06811">
        <ele>789.8</ele>
        <time>2024-08-14T14:26:45Z</time>
      </trkpt>
      <trkpt lat="45.00787" lon="6.06809">
        <ele>789.8</ele>
        <time>2024-08-14T14:26:46Z</time>
      </trkpt>
      <trkpt lat="45.00787" lon="6.06809">
        <ele>789.6</ele>
        <time>2024-08-14T14:26:47Z</time>
      </trkpt>
      <trkpt lat="45.0079" lon="6.06808">
        <ele>789.6</ele>
        <time>2024-08-14T14:26:48Z</time>
      </trkpt>
      <trkpt lat="45.0079" lon="6.06808">
        <ele>789.6</ele>
        <time>2024-08-14T14:26:49Z</time>
      </trkpt>
      <trkpt lat="45.00793" lon="6.06806">
        <ele>789.6</ele>
        <time>2024-08-14T14:26:50Z</time>
      </trkpt>
      <trkpt lat="45.00793" lon="6.06806">
        <ele>789.6</ele>
        <time>2024-08-14T14:26:51Z</time>
      </trkpt>
      <trkpt lat="45.00796" lon="6.06805">
        <ele>789.4</ele>
        <time>2024-08-14T14:26:52Z</time>
      </trkpt>
      <trkpt lat="45.00796" lon="6.06805">
        <ele>789.4</ele>
        <time>2024-08-14T14:26:53Z</time>
      </trkpt>
      <trkpt lat="45.00798" lon="6.06803">
        <ele>789.4</ele>
        <time>2024-08-14T14:26:54Z</time>
      </trkpt>
      <trkpt lat="45.00798" lon="6.06803">
        <ele>789.4</ele>
        <time>2024-08-14T14:26:55Z</time>
      </trkpt>
      <trkpt lat="45.00798" lon="6.06803">
        <ele>789.4</ele>
        <time>2024-08-14T14:26:56Z</time>
      </trkpt>
      <trkpt lat="45.00803" lon="6.06803">
        <ele>789.4</ele>
        <time>2024-08-14T14:26:57Z</time>
      </trkpt>
      <trkpt lat="45.00804" lon="6.06803">
        <ele>789.2</ele>
        <time>2024-08-14T14:26:58Z</time>
      </trkpt>
      <trkpt lat="45.00804" lon="6.06803">
        <ele>789</ele>
        <time>2024-08-14T14:26:59Z</time>
      </trkpt>
      <trkpt lat="45.00807" lon="6.06802">
        <ele>789</ele>
        <time>2024-08-14T14:27:00Z</time>
      </trkpt>
      <trkpt lat="45.00807" lon="6.06802">
        <ele>789</ele>
        <time>2024-08-14T14:27:01Z</time>
      </trkpt>
      <trkpt lat="45.0081" lon="6.068">
        <ele>789</ele>
        <time>2024-08-14T14:27:02Z</time>
      </trkpt>
      <trkpt lat="45.0081" lon="6.068">
        <ele>789</ele>
        <time>2024-08-14T14:27:03Z</time>
      </trkpt>
      <trkpt lat="45.00812" lon="6.06799">
        <ele>789</ele>
        <time>2024-08-14T14:27:04Z</time>
      </trkpt>
      <trkpt lat="45.00814" lon="6.06797">
        <ele>788.8</ele>
        <time>2024-08-14T14:27:05Z</time>
      </trkpt>
      <trkpt lat="45.00814" lon="6.06797">
        <ele>788.8</ele>
        <time>2024-08-14T14:27:06Z</time>
      </trkpt>
      <trkpt lat="45.00817" lon="6.06796">
        <ele>788.6</ele>
        <time>2024-08-14T14:27:07Z</time>
      </trkpt>
      <trkpt lat="45.00819" lon="6.06796">
        <ele>788.6</ele>
        <time>2024-08-14T14:27:08Z</time>
      </trkpt>
      <trkpt lat="45.00819" lon="6.06796">
        <ele>788.6</ele>
        <time>2024-08-14T14:27:09Z</time>
      </trkpt>
      <trkpt lat="45.00819" lon="6.06796">
        <ele>788.6</ele>
        <time>2024-08-14T14:27:10Z</time>
      </trkpt>
      <trkpt lat="45.00822" lon="6.06794">
        <ele>788.6</ele>
        <time>2024-08-14T14:27:11Z</time>
      </trkpt>
      <trkpt lat="45.00824" lon="6.06793">
        <ele>788.4</ele>
        <time>2024-08-14T14:27:12Z</time>
      </trkpt>
      <trkpt lat="45.00824" lon="6.06793">
        <ele>788.4</ele>
        <time>2024-08-14T14:27:13Z</time>
      </trkpt>
      <trkpt lat="45.00827" lon="6.06792">
        <ele>788.2</ele>
        <time>2024-08-14T14:27:14Z</time>
      </trkpt>
      <trkpt lat="45.00829" lon="6.06791">
        <ele>788.2</ele>
        <time>2024-08-14T14:27:15Z</time>
      </trkpt>
      <trkpt lat="45.00829" lon="6.06791">
        <ele>788</ele>
        <time>2024-08-14T14:27:16Z</time>
      </trkpt>
      <trkpt lat="45.00831" lon="6.06791">
        <ele>788</ele>
        <time>2024-08-14T14:27:17Z</time>
      </trkpt>
      <trkpt lat="45.00831" lon="6.06791">
        <ele>788</ele>
        <time>2024-08-14T14:27:18Z</time>
      </trkpt>
      <trkpt lat="45.00834" lon="6.06789">
        <ele>788</ele>
        <time>2024-08-14T14:27:19Z</time>
      </trkpt>
      <trkpt lat="45.00834" lon="6.06789">
        <ele>787.6</ele>
        <time>2024-08-14T14:27:20Z</time>
      </trkpt>
      <trkpt lat="45.00836" lon="6.06786">
        <ele>787.6</ele>
        <time>2024-08-14T14:27:21Z</time>
      </trkpt>
      <trkpt lat="45.00838" lon="6.06785">
        <ele>787.6</ele>
        <time>2024-08-14T14:27:22Z</time>
      </trkpt>
      <trkpt lat="45.00838" lon="6.06785">
        <ele>787.6</ele>
        <time>2024-08-14T14:27:23Z</time>
      </trkpt>
      <trkpt lat="45.00841" lon="6.06784">
        <ele>787.6</ele>
        <time>2024-08-14T14:27:24Z</time>
      </trkpt>
      <trkpt lat="45.00841" lon="6.06784">
        <ele>787.6</ele>
        <time>2024-08-14T14:27:25Z</time>
      </trkpt>
      <trkpt lat="45.00843" lon="6.06783">
        <ele>787.6</ele>
        <time>2024-08-14T14:27:26Z</time>
      </trkpt>
      <trkpt lat="45.00843" lon="6.06783">
        <ele>787.6</ele>
        <time>2024-08-14T14:27:27Z</time>
      </trkpt>
      <trkpt lat="45.00845" lon="6.06782">
        <ele>787.6</ele>
        <time>2024-08-14T14:27:28Z</time>
      </trkpt>
      <trkpt lat="45.00845" lon="6.06782">
        <ele>787.4</ele>
        <time>2024-08-14T14:27:29Z</time>
      </trkpt>
      <trkpt lat="45.00848" lon="6.0678">
        <ele>787.4</ele>
        <time>2024-08-14T14:27:30Z</time>
      </trkpt>
      <trkpt lat="45.00848" lon="6.0678">
        <ele>787.2</ele>
        <time>2024-08-14T14:27:31Z</time>
      </trkpt>
      <trkpt lat="45.00851" lon="6.06779">
        <ele>787.2</ele>
        <time>2024-08-14T14:27:32Z</time>
      </trkpt>
      <trkpt lat="45.00852" lon="6.06778">
        <ele>787.2</ele>
        <time>2024-08-14T14:27:33Z</time>
      </trkpt>
      <trkpt lat="45.00852" lon="6.06778">
        <ele>787.2</ele>
        <time>2024-08-14T14:27:34Z</time>
      </trkpt>
      <trkpt lat="45.00854" lon="6.06777">
        <ele>787.2</ele>
        <time>2024-08-14T14:27:35Z</time>
      </trkpt>
      <trkpt lat="45.00854" lon="6.06777">
        <ele>787</ele>
        <time>2024-08-14T14:27:36Z</time>
      </trkpt>
      <trkpt lat="45.00857" lon="6.06776">
        <ele>786.8</ele>
        <time>2024-08-14T14:27:37Z</time>
      </trkpt>
      <trkpt lat="45.00857" lon="6.06776">
        <ele>786.8</ele>
        <time>2024-08-14T14:27:38Z</time>
      </trkpt>
      <trkpt lat="45.0086" lon="6.06775">
        <ele>786.8</ele>
        <time>2024-08-14T14:27:39Z</time>
      </trkpt>
      <trkpt lat="45.0086" lon="6.06775">
        <ele>786.8</ele>
        <time>2024-08-14T14:27:40Z</time>
      </trkpt>
      <trkpt lat="45.0086" lon="6.06775">
        <ele>786.8</ele>
        <time>2024-08-14T14:27:41Z</time>
      </trkpt>
      <trkpt lat="45.00864" lon="6.06772">
        <ele>786.8</ele>
        <time>2024-08-14T14:27:42Z</time>
      </trkpt>
      <trkpt lat="45.00865" lon="6.06772">
        <ele>786.4</ele>
        <time>2024-08-14T14:27:43Z</time>
      </trkpt>
      <trkpt lat="45.00865" lon="6.06772">
        <ele>786.4</ele>
        <time>2024-08-14T14:27:44Z</time>
      </trkpt>
      <trkpt lat="45.00868" lon="6.0677">
        <ele>786.2</ele>
        <time>2024-08-14T14:27:45Z</time>
      </trkpt>
      <trkpt lat="45.00868" lon="6.0677">
        <ele>786.2</ele>
        <time>2024-08-14T14:27:46Z</time>
      </trkpt>
      <trkpt lat="45.0087" lon="6.06769">
        <ele>786.4</ele>
        <time>2024-08-14T14:27:47Z</time>
      </trkpt>
      <trkpt lat="45.0087" lon="6.06769">
        <ele>786.6</ele>
        <time>2024-08-14T14:27:48Z</time>
      </trkpt>
      <trkpt lat="45.00873" lon="6.06767">
        <ele>786.6</ele>
        <time>2024-08-14T14:27:49Z</time>
      </trkpt>
      <trkpt lat="45.00873" lon="6.06767">
        <ele>786.2</ele>
        <time>2024-08-14T14:27:50Z</time>
      </trkpt>
      <trkpt lat="45.00876" lon="6.06766">
        <ele>786</ele>
        <time>2024-08-14T14:27:51Z</time>
      </trkpt>
      <trkpt lat="45.00876" lon="6.06766">
        <ele>785.8</ele>
        <time>2024-08-14T14:27:52Z</time>
      </trkpt>
      <trkpt lat="45.00879" lon="6.06764">
        <ele>785.8</ele>
        <time>2024-08-14T14:27:53Z</time>
      </trkpt>
      <trkpt lat="45.00879" lon="6.06764">
        <ele>785.8</ele>
        <time>2024-08-14T14:27:54Z</time>
      </trkpt>
      <trkpt lat="45.00882" lon="6.06763">
        <ele>786</ele>
        <time>2024-08-14T14:27:55Z</time>
      </trkpt>
      <trkpt lat="45.00882" lon="6.06763">
        <ele>786</ele>
        <time>2024-08-14T14:27:56Z</time>
      </trkpt>
      <trkpt lat="45.00885" lon="6.06763">
        <ele>786</ele>
        <time>2024-08-14T14:27:57Z</time>
      </trkpt>
      <trkpt lat="45.00885" lon="6.06763">
        <ele>786</ele>
        <time>2024-08-14T14:27:58Z</time>
      </trkpt>
      <trkpt lat="45.00887" lon="6.06761">
        <ele>786.2</ele>
        <time>2024-08-14T14:27:59Z</time>
      </trkpt>
      <trkpt lat="45.00887" lon="6.06761">
        <ele>786</ele>
        <time>2024-08-14T14:28:00Z</time>
      </trkpt>
      <trkpt lat="45.0089" lon="6.0676">
        <ele>786</ele>
        <time>2024-08-14T14:28:01Z</time>
      </trkpt>
      <trkpt lat="45.0089" lon="6.0676">
        <ele>786</ele>
        <time>2024-08-14T14:28:02Z</time>
      </trkpt>
      <trkpt lat="45.0089" lon="6.0676">
        <ele>786</ele>
        <time>2024-08-14T14:28:03Z</time>
      </trkpt>
      <trkpt lat="45.00894" lon="6.06758">
        <ele>785.8</ele>
        <time>2024-08-14T14:28:04Z</time>
      </trkpt>
      <trkpt lat="45.00895" lon="6.06758">
        <ele>785.8</ele>
        <time>2024-08-14T14:28:05Z</time>
      </trkpt>
      <trkpt lat="45.00895" lon="6.06758">
        <ele>785.8</ele>
        <time>2024-08-14T14:28:06Z</time>
      </trkpt>
      <trkpt lat="45.00898" lon="6.06756">
        <ele>785.6</ele>
        <time>2024-08-14T14:28:07Z</time>
      </trkpt>
      <trkpt lat="45.00898" lon="6.06756">
        <ele>785.6</ele>
        <time>2024-08-14T14:28:08Z</time>
      </trkpt>
      <trkpt lat="45.00901" lon="6.06756">
        <ele>785.6</ele>
        <time>2024-08-14T14:28:09Z</time>
      </trkpt>
      <trkpt lat="45.00901" lon="6.06756">
        <ele>785.4</ele>
        <time>2024-08-14T14:28:10Z</time>
      </trkpt>
      <trkpt lat="45.00904" lon="6.06755">
        <ele>785.4</ele>
        <time>2024-08-14T14:28:11Z</time>
      </trkpt>
      <trkpt lat="45.00904" lon="6.06755">
        <ele>785.2</ele>
        <time>2024-08-14T14:28:12Z</time>
      </trkpt>
      <trkpt lat="45.00908" lon="6.06754">
        <ele>785.2</ele>
        <time>2024-08-14T14:28:13Z</time>
      </trkpt>
      <trkpt lat="45.00908" lon="6.06754">
        <ele>785.2</ele>
        <time>2024-08-14T14:28:14Z</time>
      </trkpt>
      <trkpt lat="45.0091" lon="6.06753">
        <ele>785</ele>
        <time>2024-08-14T14:28:15Z</time>
      </trkpt>
      <trkpt lat="45.0091" lon="6.06753">
        <ele>785</ele>
        <time>2024-08-14T14:28:16Z</time>
      </trkpt>
      <trkpt lat="45.00913" lon="6.06752">
        <ele>785</ele>
        <time>2024-08-14T14:28:17Z</time>
      </trkpt>
      <trkpt lat="45.00913" lon="6.06752">
        <ele>785</ele>
        <time>2024-08-14T14:28:18Z</time>
      </trkpt>
      <trkpt lat="45.00916" lon="6.06751">
        <ele>785</ele>
        <time>2024-08-14T14:28:19Z</time>
      </trkpt>
      <trkpt lat="45.00916" lon="6.06751">
        <ele>785.2</ele>
        <time>2024-08-14T14:28:20Z</time>
      </trkpt>
      <trkpt lat="45.00918" lon="6.06749">
        <ele>785.2</ele>
        <time>2024-08-14T14:28:21Z</time>
      </trkpt>
      <trkpt lat="45.00918" lon="6.06749">
        <ele>785.2</ele>
        <time>2024-08-14T14:28:22Z</time>
      </trkpt>
      <trkpt lat="45.00921" lon="6.06747">
        <ele>785.2</ele>
        <time>2024-08-14T14:28:23Z</time>
      </trkpt>
      <trkpt lat="45.00921" lon="6.06747">
        <ele>785.2</ele>
        <time>2024-08-14T14:28:24Z</time>
      </trkpt>
      <trkpt lat="45.00924" lon="6.06745">
        <ele>785</ele>
        <time>2024-08-14T14:28:25Z</time>
      </trkpt>
      <trkpt lat="45.00924" lon="6.06745">
        <ele>785</ele>
        <time>2024-08-14T14:28:26Z</time>
      </trkpt>
      <trkpt lat="45.00926" lon="6.06744">
        <ele>784.8</ele>
        <time>2024-08-14T14:28:27Z</time>
      </trkpt>
      <trkpt lat="45.00926" lon="6.06744">
        <ele>784.8</ele>
        <time>2024-08-14T14:28:28Z</time>
      </trkpt>
      <trkpt lat="45.00926" lon="6.06744">
        <ele>784.8</ele>
        <time>2024-08-14T14:28:29Z</time>
      </trkpt>
      <trkpt lat="45.0093" lon="6.06742">
        <ele>784.8</ele>
        <time>2024-08-14T14:28:30Z</time>
      </trkpt>
      <trkpt lat="45.00931" lon="6.06741">
        <ele>784.6</ele>
        <time>2024-08-14T14:28:31Z</time>
      </trkpt>
      <trkpt lat="45.00931" lon="6.06741">
        <ele>784.6</ele>
        <time>2024-08-14T14:28:32Z</time>
      </trkpt>
      <trkpt lat="45.00933" lon="6.0674">
        <ele>784.6</ele>
        <time>2024-08-14T14:28:33Z</time>
      </trkpt>
      <trkpt lat="45.00933" lon="6.0674">
        <ele>784.6</ele>
        <time>2024-08-14T14:28:34Z</time>
      </trkpt>
      <trkpt lat="45.00936" lon="6.06738">
        <ele>784.6</ele>
        <time>2024-08-14T14:28:35Z</time>
      </trkpt>
      <trkpt lat="45.00936" lon="6.06738">
        <ele>784.6</ele>
        <time>2024-08-14T14:28:36Z</time>
      </trkpt>
      <trkpt lat="45.00939" lon="6.06738">
        <ele>784.6</ele>
        <time>2024-08-14T14:28:37Z</time>
      </trkpt>
      <trkpt lat="45.00939" lon="6.06738">
        <ele>784.6</ele>
        <time>2024-08-14T14:28:38Z</time>
      </trkpt>
      <trkpt lat="45.00941" lon="6.06737">
        <ele>784.4</ele>
        <time>2024-08-14T14:28:39Z</time>
      </trkpt>
      <trkpt lat="45.00941" lon="6.06737">
        <ele>784.4</ele>
        <time>2024-08-14T14:28:40Z</time>
      </trkpt>
      <trkpt lat="45.00944" lon="6.06736">
        <ele>784.4</ele>
        <time>2024-08-14T14:28:41Z</time>
      </trkpt>
      <trkpt lat="45.00944" lon="6.06736">
        <ele>784.4</ele>
        <time>2024-08-14T14:28:42Z</time>
      </trkpt>
      <trkpt lat="45.00947" lon="6.06735">
        <ele>784.4</ele>
        <time>2024-08-14T14:28:43Z</time>
      </trkpt>
      <trkpt lat="45.00947" lon="6.06735">
        <ele>784.4</ele>
        <time>2024-08-14T14:28:44Z</time>
      </trkpt>
      <trkpt lat="45.0095" lon="6.06734">
        <ele>784.4</ele>
        <time>2024-08-14T14:28:45Z</time>
      </trkpt>
      <trkpt lat="45.0095" lon="6.06734">
        <ele>784.4</ele>
        <time>2024-08-14T14:28:46Z</time>
      </trkpt>
      <trkpt lat="45.0095" lon="6.06734">
        <ele>784.2</ele>
        <time>2024-08-14T14:28:47Z</time>
      </trkpt>
      <trkpt lat="45.00954" lon="6.06732">
        <ele>784.2</ele>
        <time>2024-08-14T14:28:48Z</time>
      </trkpt>
      <trkpt lat="45.00955" lon="6.06732">
        <ele>784</ele>
        <time>2024-08-14T14:28:49Z</time>
      </trkpt>
      <trkpt lat="45.00955" lon="6.06732">
        <ele>784</ele>
        <time>2024-08-14T14:28:50Z</time>
      </trkpt>
      <trkpt lat="45.00958" lon="6.06731">
        <ele>784</ele>
        <time>2024-08-14T14:28:51Z</time>
      </trkpt>
      <trkpt lat="45.00958" lon="6.06731">
        <ele>783.8</ele>
        <time>2024-08-14T14:28:52Z</time>
      </trkpt>
      <trkpt lat="45.00961" lon="6.06729">
        <ele>783.8</ele>
        <time>2024-08-14T14:28:53Z</time>
      </trkpt>
      <trkpt lat="45.00961" lon="6.06729">
        <ele>783.8</ele>
        <time>2024-08-14T14:28:54Z</time>
      </trkpt>
      <trkpt lat="45.00964" lon="6.06728">
        <ele>783.6</ele>
        <time>2024-08-14T14:28:55Z</time>
      </trkpt>
      <trkpt lat="45.00964" lon="6.06728">
        <ele>783.6</ele>
        <time>2024-08-14T14:28:56Z</time>
      </trkpt>
      <trkpt lat="45.00966" lon="6.06727">
        <ele>783.4</ele>
        <time>2024-08-14T14:28:57Z</time>
      </trkpt>
      <trkpt lat="45.00966" lon="6.06727">
        <ele>783.4</ele>
        <time>2024-08-14T14:28:58Z</time>
      </trkpt>
      <trkpt lat="45.00969" lon="6.06726">
        <ele>783.2</ele>
        <time>2024-08-14T14:28:59Z</time>
      </trkpt>
      <trkpt lat="45.00969" lon="6.06726">
        <ele>783.2</ele>
        <time>2024-08-14T14:29:00Z</time>
      </trkpt>
      <trkpt lat="45.00972" lon="6.06725">
        <ele>783.2</ele>
        <time>2024-08-14T14:29:01Z</time>
      </trkpt>
      <trkpt lat="45.00974" lon="6.06725">
        <ele>783.2</ele>
        <time>2024-08-14T14:29:02Z</time>
      </trkpt>
      <trkpt lat="45.00974" lon="6.06725">
        <ele>783.2</ele>
        <time>2024-08-14T14:29:03Z</time>
      </trkpt>
      <trkpt lat="45.00977" lon="6.06724">
        <ele>783.2</ele>
        <time>2024-08-14T14:29:04Z</time>
      </trkpt>
      <trkpt lat="45.00979" lon="6.06723">
        <ele>783.2</ele>
        <time>2024-08-14T14:29:05Z</time>
      </trkpt>
      <trkpt lat="45.00979" lon="6.06723">
        <ele>783</ele>
        <time>2024-08-14T14:29:06Z</time>
      </trkpt>
      <trkpt lat="45.00981" lon="6.06722">
        <ele>783</ele>
        <time>2024-08-14T14:29:07Z</time>
      </trkpt>
      <trkpt lat="45.00981" lon="6.06722">
        <ele>783</ele>
        <time>2024-08-14T14:29:08Z</time>
      </trkpt>
      <trkpt lat="45.00981" lon="6.06722">
        <ele>783.2</ele>
        <time>2024-08-14T14:29:09Z</time>
      </trkpt>
      <trkpt lat="45.00985" lon="6.0672">
        <ele>783.2</ele>
        <time>2024-08-14T14:29:10Z</time>
      </trkpt>
      <trkpt lat="45.00986" lon="6.0672">
        <ele>783</ele>
        <time>2024-08-14T14:29:11Z</time>
      </trkpt>
      <trkpt lat="45.00986" lon="6.0672">
        <ele>783</ele>
        <time>2024-08-14T14:29:12Z</time>
      </trkpt>
      <trkpt lat="45.00989" lon="6.06718">
        <ele>782.8</ele>
        <time>2024-08-14T14:29:13Z</time>
      </trkpt>
      <trkpt lat="45.00989" lon="6.06718">
        <ele>783</ele>
        <time>2024-08-14T14:29:14Z</time>
      </trkpt>
      <trkpt lat="45.00992" lon="6.06717">
        <ele>783</ele>
        <time>2024-08-14T14:29:15Z</time>
      </trkpt>
      <trkpt lat="45.00992" lon="6.06717">
        <ele>783</ele>
        <time>2024-08-14T14:29:16Z</time>
      </trkpt>
      <trkpt lat="45.00995" lon="6.06716">
        <ele>783</ele>
        <time>2024-08-14T14:29:17Z</time>
      </trkpt>
      <trkpt lat="45.00997" lon="6.06715">
        <ele>783</ele>
        <time>2024-08-14T14:29:18Z</time>
      </trkpt>
      <trkpt lat="45.00997" lon="6.06715">
        <ele>782.8</ele>
        <time>2024-08-14T14:29:19Z</time>
      </trkpt>
      <trkpt lat="45.00999" lon="6.06715">
        <ele>782.8</ele>
        <time>2024-08-14T14:29:20Z</time>
      </trkpt>
      <trkpt lat="45.00999" lon="6.06715">
        <ele>782.8</ele>
        <time>2024-08-14T14:29:21Z</time>
      </trkpt>
      <trkpt lat="45.00999" lon="6.06715">
        <ele>783</ele>
        <time>2024-08-14T14:29:22Z</time>
      </trkpt>
      <trkpt lat="45.01003" lon="6.06713">
        <ele>783</ele>
        <time>2024-08-14T14:29:23Z</time>
      </trkpt>
      <trkpt lat="45.01005" lon="6.06712">
        <ele>783</ele>
        <time>2024-08-14T14:29:24Z</time>
      </trkpt>
      <trkpt lat="45.01005" lon="6.06712">
        <ele>782.8</ele>
        <time>2024-08-14T14:29:25Z</time>
      </trkpt>
      <trkpt lat="45.01007" lon="6.0671">
        <ele>782.8</ele>
        <time>2024-08-14T14:29:26Z</time>
      </trkpt>
      <trkpt lat="45.01007" lon="6.0671">
        <ele>782.8</ele>
        <time>2024-08-14T14:29:27Z</time>
      </trkpt>
      <trkpt lat="45.0101" lon="6.06709">
        <ele>782.6</ele>
        <time>2024-08-14T14:29:28Z</time>
      </trkpt>
      <trkpt lat="45.0101" lon="6.06709">
        <ele>782.6</ele>
        <time>2024-08-14T14:29:29Z</time>
      </trkpt>
      <trkpt lat="45.01013" lon="6.06708">
        <ele>782.8</ele>
        <time>2024-08-14T14:29:30Z</time>
      </trkpt>
      <trkpt lat="45.01013" lon="6.06708">
        <ele>782.8</ele>
        <time>2024-08-14T14:29:31Z</time>
      </trkpt>
      <trkpt lat="45.01016" lon="6.06707">
        <ele>782.8</ele>
        <time>2024-08-14T14:29:32Z</time>
      </trkpt>
      <trkpt lat="45.01018" lon="6.06707">
        <ele>782.8</ele>
        <time>2024-08-14T14:29:33Z</time>
      </trkpt>
      <trkpt lat="45.01018" lon="6.06707">
        <ele>782.8</ele>
        <time>2024-08-14T14:29:34Z</time>
      </trkpt>
      <trkpt lat="45.01021" lon="6.06705">
        <ele>782.8</ele>
        <time>2024-08-14T14:29:35Z</time>
      </trkpt>
      <trkpt lat="45.01021" lon="6.06705">
        <ele>782.6</ele>
        <time>2024-08-14T14:29:36Z</time>
      </trkpt>
      <trkpt lat="45.01023" lon="6.06704">
        <ele>782.6</ele>
        <time>2024-08-14T14:29:37Z</time>
      </trkpt>
      <trkpt lat="45.01023" lon="6.06704">
        <ele>782.4</ele>
        <time>2024-08-14T14:29:38Z</time>
      </trkpt>
      <trkpt lat="45.01026" lon="6.06703">
        <ele>782.4</ele>
        <time>2024-08-14T14:29:39Z</time>
      </trkpt>
      <trkpt lat="45.01026" lon="6.06703">
        <ele>782.2</ele>
        <time>2024-08-14T14:29:40Z</time>
      </trkpt>
      <trkpt lat="45.01029" lon="6.06701">
        <ele>782.2</ele>
        <time>2024-08-14T14:29:41Z</time>
      </trkpt>
      <trkpt lat="45.01029" lon="6.06701">
        <ele>782.2</ele>
        <time>2024-08-14T14:29:42Z</time>
      </trkpt>
      <trkpt lat="45.01031" lon="6.067">
        <ele>782.4</ele>
        <time>2024-08-14T14:29:43Z</time>
      </trkpt>
      <trkpt lat="45.01031" lon="6.067">
        <ele>782.4</ele>
        <time>2024-08-14T14:29:44Z</time>
      </trkpt>
      <trkpt lat="45.01034" lon="6.06698">
        <ele>782.4</ele>
        <time>2024-08-14T14:29:45Z</time>
      </trkpt>
      <trkpt lat="45.01034" lon="6.06698">
        <ele>782.4</ele>
        <time>2024-08-14T14:29:46Z</time>
      </trkpt>
      <trkpt lat="45.01037" lon="6.06697">
        <ele>782.4</ele>
        <time>2024-08-14T14:29:47Z</time>
      </trkpt>
      <trkpt lat="45.01037" lon="6.06697">
        <ele>782.2</ele>
        <time>2024-08-14T14:29:48Z</time>
      </trkpt>
      <trkpt lat="45.0104" lon="6.06695">
        <ele>782.2</ele>
        <time>2024-08-14T14:29:49Z</time>
      </trkpt>
      <trkpt lat="45.0104" lon="6.06695">
        <ele>782.2</ele>
        <time>2024-08-14T14:29:50Z</time>
      </trkpt>
      <trkpt lat="45.01043" lon="6.06694">
        <ele>782</ele>
        <time>2024-08-14T14:29:51Z</time>
      </trkpt>
      <trkpt lat="45.01043" lon="6.06694">
        <ele>782</ele>
        <time>2024-08-14T14:29:52Z</time>
      </trkpt>
      <trkpt lat="45.01045" lon="6.06692">
        <ele>782</ele>
        <time>2024-08-14T14:29:53Z</time>
      </trkpt>
      <trkpt lat="45.01045" lon="6.06692">
        <ele>782</ele>
        <time>2024-08-14T14:29:54Z</time>
      </trkpt>
      <trkpt lat="45.01048" lon="6.06692">
        <ele>782</ele>
        <time>2024-08-14T14:29:55Z</time>
      </trkpt>
      <trkpt lat="45.01048" lon="6.06692">
        <ele>782</ele>
        <time>2024-08-14T14:29:56Z</time>
      </trkpt>
      <trkpt lat="45.01051" lon="6.0669">
        <ele>782</ele>
        <time>2024-08-14T14:29:57Z</time>
      </trkpt>
      <trkpt lat="45.01053" lon="6.0669">
        <ele>781.8</ele>
        <time>2024-08-14T14:29:58Z</time>
      </trkpt>
      <trkpt lat="45.01053" lon="6.0669">
        <ele>781.8</ele>
        <time>2024-08-14T14:29:59Z</time>
      </trkpt>
      <trkpt lat="45.01055" lon="6.06688">
        <ele>781.8</ele>
        <time>2024-08-14T14:30:00Z</time>
      </trkpt>
      <trkpt lat="45.01055" lon="6.06688">
        <ele>781.6</ele>
        <time>2024-08-14T14:30:01Z</time>
      </trkpt>
      <trkpt lat="45.01057" lon="6.06687">
        <ele>781.4</ele>
        <time>2024-08-14T14:30:02Z</time>
      </trkpt>
      <trkpt lat="45.01057" lon="6.06687">
        <ele>781.2</ele>
        <time>2024-08-14T14:30:03Z</time>
      </trkpt>
      <trkpt lat="45.01061" lon="6.06685">
        <ele>781.2</ele>
        <time>2024-08-14T14:30:04Z</time>
      </trkpt>
      <trkpt lat="45.01061" lon="6.06685">
        <ele>781.2</ele>
        <time>2024-08-14T14:30:05Z</time>
      </trkpt>
      <trkpt lat="45.01063" lon="6.06684">
        <ele>781.2</ele>
        <time>2024-08-14T14:30:06Z</time>
      </trkpt>
      <trkpt lat="45.01063" lon="6.06684">
        <ele>781.2</ele>
        <time>2024-08-14T14:30:07Z</time>
      </trkpt>
      <trkpt lat="45.01066" lon="6.06683">
        <ele>781.2</ele>
        <time>2024-08-14T14:30:08Z</time>
      </trkpt>
      <trkpt lat="45.01066" lon="6.06683">
        <ele>781.2</ele>
        <time>2024-08-14T14:30:09Z</time>
      </trkpt>
      <trkpt lat="45.01069" lon="6.06681">
        <ele>781.2</ele>
        <time>2024-08-14T14:30:10Z</time>
      </trkpt>
      <trkpt lat="45.01069" lon="6.06681">
        <ele>781</ele>
        <time>2024-08-14T14:30:11Z</time>
      </trkpt>
      <trkpt lat="45.01072" lon="6.06679">
        <ele>780.8</ele>
        <time>2024-08-14T14:30:12Z</time>
      </trkpt>
      <trkpt lat="45.01072" lon="6.06679">
        <ele>780.8</ele>
        <time>2024-08-14T14:30:13Z</time>
      </trkpt>
      <trkpt lat="45.01074" lon="6.06676">
        <ele>780.8</ele>
        <time>2024-08-14T14:30:14Z</time>
      </trkpt>
      <trkpt lat="45.01074" lon="6.06676">
        <ele>780.8</ele>
        <time>2024-08-14T14:30:15Z</time>
      </trkpt>
      <trkpt lat="45.01077" lon="6.06675">
        <ele>780.8</ele>
        <time>2024-08-14T14:30:16Z</time>
      </trkpt>
      <trkpt lat="45.01077" lon="6.06675">
        <ele>780.8</ele>
        <time>2024-08-14T14:30:17Z</time>
      </trkpt>
      <trkpt lat="45.0108" lon="6.06673">
        <ele>780.8</ele>
        <time>2024-08-14T14:30:18Z</time>
      </trkpt>
      <trkpt lat="45.0108" lon="6.06673">
        <ele>780.6</ele>
        <time>2024-08-14T14:30:19Z</time>
      </trkpt>
      <trkpt lat="45.01082" lon="6.06672">
        <ele>780.6</ele>
        <time>2024-08-14T14:30:20Z</time>
      </trkpt>
      <trkpt lat="45.01082" lon="6.06672">
        <ele>780.6</ele>
        <time>2024-08-14T14:30:21Z</time>
      </trkpt>
      <trkpt lat="45.01085" lon="6.06671">
        <ele>780.6</ele>
        <time>2024-08-14T14:30:22Z</time>
      </trkpt>
      <trkpt lat="45.01085" lon="6.06671">
        <ele>780.6</ele>
        <time>2024-08-14T14:30:23Z</time>
      </trkpt>
      <trkpt lat="45.01087" lon="6.0667">
        <ele>780.4</ele>
        <time>2024-08-14T14:30:24Z</time>
      </trkpt>
      <trkpt lat="45.01087" lon="6.0667">
        <ele>780.6</ele>
        <time>2024-08-14T14:30:25Z</time>
      </trkpt>
      <trkpt lat="45.0109" lon="6.06669">
        <ele>780.6</ele>
        <time>2024-08-14T14:30:26Z</time>
      </trkpt>
      <trkpt lat="45.0109" lon="6.06669">
        <ele>780.4</ele>
        <time>2024-08-14T14:30:27Z</time>
      </trkpt>
      <trkpt lat="45.01094" lon="6.06668">
        <ele>780.4</ele>
        <time>2024-08-14T14:30:28Z</time>
      </trkpt>
      <trkpt lat="45.01094" lon="6.06668">
        <ele>780.4</ele>
        <time>2024-08-14T14:30:29Z</time>
      </trkpt>
      <trkpt lat="45.01096" lon="6.06667">
        <ele>780.4</ele>
        <time>2024-08-14T14:30:30Z</time>
      </trkpt>
      <trkpt lat="45.01096" lon="6.06667">
        <ele>780.4</ele>
        <time>2024-08-14T14:30:31Z</time>
      </trkpt>
      <trkpt lat="45.01099" lon="6.06666">
        <ele>780.4</ele>
        <time>2024-08-14T14:30:32Z</time>
      </trkpt>
      <trkpt lat="45.01099" lon="6.06666">
        <ele>780.4</ele>
        <time>2024-08-14T14:30:33Z</time>
      </trkpt>
      <trkpt lat="45.01101" lon="6.06664">
        <ele>780.2</ele>
        <time>2024-08-14T14:30:34Z</time>
      </trkpt>
      <trkpt lat="45.01101" lon="6.06664">
        <ele>780.2</ele>
        <time>2024-08-14T14:30:35Z</time>
      </trkpt>
      <trkpt lat="45.01104" lon="6.06663">
        <ele>780.2</ele>
        <time>2024-08-14T14:30:36Z</time>
      </trkpt>
      <trkpt lat="45.01104" lon="6.06663">
        <ele>780.2</ele>
        <time>2024-08-14T14:30:37Z</time>
      </trkpt>
      <trkpt lat="45.01107" lon="6.06662">
        <ele>780.2</ele>
        <time>2024-08-14T14:30:38Z</time>
      </trkpt>
      <trkpt lat="45.01107" lon="6.06662">
        <ele>780.2</ele>
        <time>2024-08-14T14:30:39Z</time>
      </trkpt>
      <trkpt lat="45.0111" lon="6.0666">
        <ele>780.4</ele>
        <time>2024-08-14T14:30:40Z</time>
      </trkpt>
      <trkpt lat="45.0111" lon="6.0666">
        <ele>780.4</ele>
        <time>2024-08-14T14:30:41Z</time>
      </trkpt>
      <trkpt lat="45.01113" lon="6.06659">
        <ele>780.2</ele>
        <time>2024-08-14T14:30:42Z</time>
      </trkpt>
      <trkpt lat="45.01115" lon="6.06659">
        <ele>780.2</ele>
        <time>2024-08-14T14:30:43Z</time>
      </trkpt>
      <trkpt lat="45.01115" lon="6.06659">
        <ele>780.2</ele>
        <time>2024-08-14T14:30:44Z</time>
      </trkpt>
      <trkpt lat="45.01115" lon="6.06659">
        <ele>780.2</ele>
        <time>2024-08-14T14:30:45Z</time>
      </trkpt>
      <trkpt lat="45.0112" lon="6.06657">
        <ele>780.4</ele>
        <time>2024-08-14T14:30:46Z</time>
      </trkpt>
      <trkpt lat="45.01121" lon="6.06657">
        <ele>780.4</ele>
        <time>2024-08-14T14:30:47Z</time>
      </trkpt>
      <trkpt lat="45.01121" lon="6.06657">
        <ele>780.4</ele>
        <time>2024-08-14T14:30:48Z</time>
      </trkpt>
      <trkpt lat="45.01124" lon="6.06655">
        <ele>780.4</ele>
        <time>2024-08-14T14:30:49Z</time>
      </trkpt>
      <trkpt lat="45.01124" lon="6.06655">
        <ele>780.2</ele>
        <time>2024-08-14T14:30:50Z</time>
      </trkpt>
      <trkpt lat="45.01127" lon="6.06654">
        <ele>780.2</ele>
        <time>2024-08-14T14:30:51Z</time>
      </trkpt>
      <trkpt lat="45.01127" lon="6.06654">
        <ele>780.2</ele>
        <time>2024-08-14T14:30:52Z</time>
      </trkpt>
      <trkpt lat="45.01129" lon="6.06653">
        <ele>780.2</ele>
        <time>2024-08-14T14:30:53Z</time>
      </trkpt>
      <trkpt lat="45.01132" lon="6.06652">
        <ele>780.4</ele>
        <time>2024-08-14T14:30:54Z</time>
      </trkpt>
      <trkpt lat="45.01132" lon="6.06652">
        <ele>780.4</ele>
        <time>2024-08-14T14:30:55Z</time>
      </trkpt>
      <trkpt lat="45.01135" lon="6.06652">
        <ele>780.2</ele>
        <time>2024-08-14T14:30:56Z</time>
      </trkpt>
      <trkpt lat="45.01135" lon="6.06652">
        <ele>780.2</ele>
        <time>2024-08-14T14:30:57Z</time>
      </trkpt>
      <trkpt lat="45.01137" lon="6.06651">
        <ele>779.8</ele>
        <time>2024-08-14T14:30:58Z</time>
      </trkpt>
      <trkpt lat="45.01137" lon="6.06651">
        <ele>779.8</ele>
        <time>2024-08-14T14:30:59Z</time>
      </trkpt>
      <trkpt lat="45.0114" lon="6.06649">
        <ele>780</ele>
        <time>2024-08-14T14:31:00Z</time>
      </trkpt>
      <trkpt lat="45.0114" lon="6.06649">
        <ele>780</ele>
        <time>2024-08-14T14:31:01Z</time>
      </trkpt>
      <trkpt lat="45.01142" lon="6.06648">
        <ele>779.8</ele>
        <time>2024-08-14T14:31:02Z</time>
      </trkpt>
      <trkpt lat="45.01142" lon="6.06648">
        <ele>779.8</ele>
        <time>2024-08-14T14:31:03Z</time>
      </trkpt>
      <trkpt lat="45.01145" lon="6.06647">
        <ele>779.8</ele>
        <time>2024-08-14T14:31:04Z</time>
      </trkpt>
      <trkpt lat="45.01145" lon="6.06647">
        <ele>779.8</ele>
        <time>2024-08-14T14:31:05Z</time>
      </trkpt>
      <trkpt lat="45.01148" lon="6.06647">
        <ele>779.8</ele>
        <time>2024-08-14T14:31:06Z</time>
      </trkpt>
      <trkpt lat="45.01148" lon="6.06647">
        <ele>779.8</ele>
        <time>2024-08-14T14:31:07Z</time>
      </trkpt>
      <trkpt lat="45.01152" lon="6.06646">
        <ele>779.8</ele>
        <time>2024-08-14T14:31:08Z</time>
      </trkpt>
      <trkpt lat="45.01152" lon="6.06646">
        <ele>779.8</ele>
        <time>2024-08-14T14:31:09Z</time>
      </trkpt>
      <trkpt lat="45.01154" lon="6.06646">
        <ele>779.8</ele>
        <time>2024-08-14T14:31:10Z</time>
      </trkpt>
      <trkpt lat="45.01154" lon="6.06646">
        <ele>779.8</ele>
        <time>2024-08-14T14:31:11Z</time>
      </trkpt>
      <trkpt lat="45.01157" lon="6.06645">
        <ele>779.6</ele>
        <time>2024-08-14T14:31:12Z</time>
      </trkpt>
      <trkpt lat="45.01157" lon="6.06645">
        <ele>779.6</ele>
        <time>2024-08-14T14:31:13Z</time>
      </trkpt>
      <trkpt lat="45.01159" lon="6.06643">
        <ele>779.4</ele>
        <time>2024-08-14T14:31:14Z</time>
      </trkpt>
      <trkpt lat="45.01159" lon="6.06643">
        <ele>779.4</ele>
        <time>2024-08-14T14:31:15Z</time>
      </trkpt>
      <trkpt lat="45.01161" lon="6.06643">
        <ele>779.4</ele>
        <time>2024-08-14T14:31:16Z</time>
      </trkpt>
      <trkpt lat="45.01161" lon="6.06643">
        <ele>779.4</ele>
        <time>2024-08-14T14:31:17Z</time>
      </trkpt>
      <trkpt lat="45.01161" lon="6.06643">
        <ele>779.6</ele>
        <time>2024-08-14T14:31:18Z</time>
      </trkpt>
      <trkpt lat="45.01161" lon="6.06643">
        <ele>779.6</ele>
        <time>2024-08-14T14:31:19Z</time>
      </trkpt>
      <trkpt lat="45.01161" lon="6.06643">
        <ele>779.6</ele>
        <time>2024-08-14T14:31:20Z</time>
      </trkpt>
      <trkpt lat="45.01161" lon="6.06643">
        <ele>779.4</ele>
        <time>2024-08-14T14:31:21Z</time>
      </trkpt>
      <trkpt lat="45.01161" lon="6.06643">
        <ele>779.4</ele>
        <time>2024-08-14T14:31:22Z</time>
      </trkpt>
      <trkpt lat="45.01161" lon="6.06643">
        <ele>779.4</ele>
        <time>2024-08-14T14:31:23Z</time>
      </trkpt>
      <trkpt lat="45.01161" lon="6.06643">
        <ele>779.4</ele>
        <time>2024-08-14T14:31:24Z</time>
      </trkpt>
      <trkpt lat="45.01161" lon="6.06643">
        <ele>779.4</ele>
        <time>2024-08-14T14:31:25Z</time>
      </trkpt>
      <trkpt lat="45.01161" lon="6.06643">
        <ele>779.4</ele>
        <time>2024-08-14T14:31:26Z</time>
      </trkpt>
      <trkpt lat="45.01161" lon="6.06643">
        <ele>779.4</ele>
        <time>2024-08-14T14:31:27Z</time>
      </trkpt>
      <trkpt lat="45.01161" lon="6.06643">
        <ele>779.4</ele>
        <time>2024-08-14T14:31:28Z</time>
      </trkpt>
      <trkpt lat="45.01161" lon="6.06643">
        <ele>779.4</ele>
        <time>2024-08-14T14:31:29Z</time>
      </trkpt>
      <trkpt lat="45.01161" lon="6.06643">
        <ele>779.2</ele>
        <time>2024-08-14T14:31:30Z</time>
      </trkpt>
      <trkpt lat="45.01161" lon="6.06643">
        <ele>779.2</ele>
        <time>2024-08-14T14:31:31Z</time>
      </trkpt>
      <trkpt lat="45.01161" lon="6.06643">
        <ele>779.2</ele>
        <time>2024-08-14T14:31:32Z</time>
      </trkpt>
      <trkpt lat="45.01161" lon="6.06643">
        <ele>779.4</ele>
        <time>2024-08-14T14:31:33Z</time>
      </trkpt>
      <trkpt lat="45.01161" lon="6.06643">
        <ele>779.4</ele>
        <time>2024-08-14T14:31:34Z</time>
      </trkpt>
      <trkpt lat="45.01161" lon="6.06643">
        <ele>779.4</ele>
        <time>2024-08-14T14:31:35Z</time>
      </trkpt>
      <trkpt lat="45.01161" lon="6.06643">
        <ele>779.2</ele>
        <time>2024-08-14T14:31:36Z</time>
      </trkpt>
      <trkpt lat="45.01161" lon="6.06643">
        <ele>779.2</ele>
        <time>2024-08-14T14:31:37Z</time>
      </trkpt>
      <trkpt lat="45.01161" lon="6.06643">
        <ele>779.2</ele>
        <time>2024-08-14T14:31:38Z</time>
      </trkpt>
      <trkpt lat="45.01161" lon="6.06643">
        <ele>779.4</ele>
        <time>2024-08-14T14:31:39Z</time>
      </trkpt>
      <trkpt lat="45.01161" lon="6.06643">
        <ele>779.4</ele>
        <time>2024-08-14T14:31:40Z</time>
      </trkpt>
      <trkpt lat="45.01161" lon="6.06643">
        <ele>779.6</ele>
        <time>2024-08-14T14:31:41Z</time>
      </trkpt>
      <trkpt lat="45.01161" lon="6.06643">
        <ele>779.6</ele>
        <time>2024-08-14T14:31:42Z</time>
      </trkpt>
      <trkpt lat="45.01161" lon="6.06643">
        <ele>779.4</ele>
        <time>2024-08-14T14:31:43Z</time>
      </trkpt>
      <trkpt lat="45.01161" lon="6.06643">
        <ele>779.4</ele>
        <time>2024-08-14T14:31:44Z</time>
      </trkpt>
      <trkpt lat="45.01161" lon="6.06643">
        <ele>779.4</ele>
        <time>2024-08-14T14:31:45Z</time>
      </trkpt>
      <trkpt lat="45.01161" lon="6.06643">
        <ele>779.4</ele>
        <time>2024-08-14T14:31:46Z</time>
      </trkpt>
      <trkpt lat="45.01161" lon="6.06643">
        <ele>779.4</ele>
        <time>2024-08-14T14:31:47Z</time>
      </trkpt>
      <trkpt lat="45.01161" lon="6.06643">
        <ele>779.4</ele>
        <time>2024-08-14T14:31:48Z</time>
      </trkpt>
      <trkpt lat="45.01161" lon="6.06643">
        <ele>779.4</ele>
        <time>2024-08-14T14:31:49Z</time>
      </trkpt>
      <trkpt lat="45.01161" lon="6.06643">
        <ele>779.4</ele>
        <time>2024-08-14T14:31:50Z</time>
      </trkpt>
      <trkpt lat="45.01163" lon="6.06643">
        <ele>779.4</ele>
        <time>2024-08-14T14:31:51Z</time>
      </trkpt>
      <trkpt lat="45.01163" lon="6.06643">
        <ele>779.2</ele>
        <time>2024-08-14T14:31:52Z</time>
      </trkpt>
      <trkpt lat="45.01163" lon="6.06643">
        <ele>779.2</ele>
        <time>2024-08-14T14:31:53Z</time>
      </trkpt>
      <trkpt lat="45.01168" lon="6.06642">
        <ele>779.2</ele>
        <time>2024-08-14T14:31:54Z</time>
      </trkpt>
      <trkpt lat="45.01169" lon="6.06641">
        <ele>779.2</ele>
        <time>2024-08-14T14:31:55Z</time>
      </trkpt>
      <trkpt lat="45.01171" lon="6.0664">
        <ele>779</ele>
        <time>2024-08-14T14:31:56Z</time>
      </trkpt>
      <trkpt lat="45.01171" lon="6.0664">
        <ele>779</ele>
        <time>2024-08-14T14:31:57Z</time>
      </trkpt>
      <trkpt lat="45.01174" lon="6.06639">
        <ele>779</ele>
        <time>2024-08-14T14:31:58Z</time>
      </trkpt>
      <trkpt lat="45.01174" lon="6.06639">
        <ele>779</ele>
        <time>2024-08-14T14:31:59Z</time>
      </trkpt>
      <trkpt lat="45.01176" lon="6.06639">
        <ele>779</ele>
        <time>2024-08-14T14:32:00Z</time>
      </trkpt>
      <trkpt lat="45.01176" lon="6.06639">
        <ele>779.2</ele>
        <time>2024-08-14T14:32:01Z</time>
      </trkpt>
      <trkpt lat="45.01179" lon="6.06638">
        <ele>779</ele>
        <time>2024-08-14T14:32:02Z</time>
      </trkpt>
      <trkpt lat="45.01179" lon="6.06638">
        <ele>779</ele>
        <time>2024-08-14T14:32:03Z</time>
      </trkpt>
      <trkpt lat="45.01179" lon="6.06638">
        <ele>779</ele>
        <time>2024-08-14T14:32:04Z</time>
      </trkpt>
      <trkpt lat="45.01183" lon="6.06637">
        <ele>779</ele>
        <time>2024-08-14T14:32:05Z</time>
      </trkpt>
      <trkpt lat="45.01185" lon="6.06636">
        <ele>779</ele>
        <time>2024-08-14T14:32:06Z</time>
      </trkpt>
      <trkpt lat="45.01185" lon="6.06636">
        <ele>779</ele>
        <time>2024-08-14T14:32:07Z</time>
      </trkpt>
      <trkpt lat="45.01187" lon="6.06636">
        <ele>779</ele>
        <time>2024-08-14T14:32:08Z</time>
      </trkpt>
      <trkpt lat="45.01187" lon="6.06636">
        <ele>779</ele>
        <time>2024-08-14T14:32:09Z</time>
      </trkpt>
      <trkpt lat="45.0119" lon="6.06636">
        <ele>779</ele>
        <time>2024-08-14T14:32:10Z</time>
      </trkpt>
      <trkpt lat="45.0119" lon="6.06636">
        <ele>779</ele>
        <time>2024-08-14T14:32:11Z</time>
      </trkpt>
      <trkpt lat="45.01192" lon="6.06635">
        <ele>779</ele>
        <time>2024-08-14T14:32:12Z</time>
      </trkpt>
      <trkpt lat="45.01192" lon="6.06635">
        <ele>779</ele>
        <time>2024-08-14T14:32:13Z</time>
      </trkpt>
      <trkpt lat="45.01196" lon="6.06634">
        <ele>779</ele>
        <time>2024-08-14T14:32:14Z</time>
      </trkpt>
      <trkpt lat="45.01196" lon="6.06634">
        <ele>778.8</ele>
        <time>2024-08-14T14:32:15Z</time>
      </trkpt>
      <trkpt lat="45.01198" lon="6.06633">
        <ele>778.8</ele>
        <time>2024-08-14T14:32:16Z</time>
      </trkpt>
      <trkpt lat="45.01198" lon="6.06633">
        <ele>778.8</ele>
        <time>2024-08-14T14:32:17Z</time>
      </trkpt>
      <trkpt lat="45.01201" lon="6.06632">
        <ele>779</ele>
        <time>2024-08-14T14:32:18Z</time>
      </trkpt>
      <trkpt lat="45.01201" lon="6.06632">
        <ele>779</ele>
        <time>2024-08-14T14:32:19Z</time>
      </trkpt>
      <trkpt lat="45.01204" lon="6.0663">
        <ele>778.8</ele>
        <time>2024-08-14T14:32:20Z</time>
      </trkpt>
      <trkpt lat="45.01204" lon="6.0663">
        <ele>778.8</ele>
        <time>2024-08-14T14:32:21Z</time>
      </trkpt>
      <trkpt lat="45.01207" lon="6.06628">
        <ele>778.6</ele>
        <time>2024-08-14T14:32:22Z</time>
      </trkpt>
      <trkpt lat="45.01207" lon="6.06628">
        <ele>778.6</ele>
        <time>2024-08-14T14:32:23Z</time>
      </trkpt>
      <trkpt lat="45.01209" lon="6.06627">
        <ele>778.6</ele>
        <time>2024-08-14T14:32:24Z</time>
      </trkpt>
      <trkpt lat="45.01211" lon="6.06626">
        <ele>778.8</ele>
        <time>2024-08-14T14:32:25Z</time>
      </trkpt>
      <trkpt lat="45.01211" lon="6.06626">
        <ele>778.8</ele>
        <time>2024-08-14T14:32:26Z</time>
      </trkpt>
      <trkpt lat="45.01214" lon="6.06625">
        <ele>778.8</ele>
        <time>2024-08-14T14:32:27Z</time>
      </trkpt>
      <trkpt lat="45.01214" lon="6.06625">
        <ele>778.6</ele>
        <time>2024-08-14T14:32:28Z</time>
      </trkpt>
      <trkpt lat="45.01214" lon="6.06625">
        <ele>778.6</ele>
        <time>2024-08-14T14:32:29Z</time>
      </trkpt>
      <trkpt lat="45.01218" lon="6.06624">
        <ele>778.6</ele>
        <time>2024-08-14T14:32:30Z</time>
      </trkpt>
      <trkpt lat="45.0122" lon="6.06624">
        <ele>778.6</ele>
        <time>2024-08-14T14:32:31Z</time>
      </trkpt>
      <trkpt lat="45.01221" lon="6.06623">
        <ele>778.4</ele>
        <time>2024-08-14T14:32:32Z</time>
      </trkpt>
      <trkpt lat="45.01221" lon="6.06623">
        <ele>778.2</ele>
        <time>2024-08-14T14:32:33Z</time>
      </trkpt>
      <trkpt lat="45.01225" lon="6.06623">
        <ele>778.2</ele>
        <time>2024-08-14T14:32:34Z</time>
      </trkpt>
      <trkpt lat="45.01225" lon="6.06623">
        <ele>778.2</ele>
        <time>2024-08-14T14:32:35Z</time>
      </trkpt>
      <trkpt lat="45.01227" lon="6.06621">
        <ele>778.2</ele>
        <time>2024-08-14T14:32:36Z</time>
      </trkpt>
      <trkpt lat="45.01227" lon="6.06621">
        <ele>778.4</ele>
        <time>2024-08-14T14:32:37Z</time>
      </trkpt>
      <trkpt lat="45.01229" lon="6.06621">
        <ele>778.4</ele>
        <time>2024-08-14T14:32:38Z</time>
      </trkpt>
      <trkpt lat="45.01229" lon="6.06621">
        <ele>778.4</ele>
        <time>2024-08-14T14:32:39Z</time>
      </trkpt>
      <trkpt lat="45.01233" lon="6.0662">
        <ele>778.4</ele>
        <time>2024-08-14T14:32:40Z</time>
      </trkpt>
      <trkpt lat="45.01233" lon="6.0662">
        <ele>778.4</ele>
        <time>2024-08-14T14:32:41Z</time>
      </trkpt>
      <trkpt lat="45.01235" lon="6.06619">
        <ele>778</ele>
        <time>2024-08-14T14:32:42Z</time>
      </trkpt>
      <trkpt lat="45.01235" lon="6.06619">
        <ele>778</ele>
        <time>2024-08-14T14:32:43Z</time>
      </trkpt>
      <trkpt lat="45.01235" lon="6.06619">
        <ele>778.2</ele>
        <time>2024-08-14T14:32:44Z</time>
      </trkpt>
      <trkpt lat="45.01239" lon="6.06618">
        <ele>778.2</ele>
        <time>2024-08-14T14:32:45Z</time>
      </trkpt>
      <trkpt lat="45.01241" lon="6.06618">
        <ele>778.2</ele>
        <time>2024-08-14T14:32:46Z</time>
      </trkpt>
      <trkpt lat="45.01241" lon="6.06618">
        <ele>778.2</ele>
        <time>2024-08-14T14:32:47Z</time>
      </trkpt>
      <trkpt lat="45.01241" lon="6.06618">
        <ele>778.2</ele>
        <time>2024-08-14T14:32:48Z</time>
      </trkpt>
      <trkpt lat="45.01245" lon="6.06616">
        <ele>778</ele>
        <time>2024-08-14T14:32:49Z</time>
      </trkpt>
      <trkpt lat="45.01247" lon="6.06615">
        <ele>777.8</ele>
        <time>2024-08-14T14:32:50Z</time>
      </trkpt>
      <trkpt lat="45.01247" lon="6.06615">
        <ele>777.8</ele>
        <time>2024-08-14T14:32:51Z</time>
      </trkpt>
      <trkpt lat="45.0125" lon="6.06614">
        <ele>778</ele>
        <time>2024-08-14T14:32:52Z</time>
      </trkpt>
      <trkpt lat="45.0125" lon="6.06614">
        <ele>778</ele>
        <time>2024-08-14T14:32:53Z</time>
      </trkpt>
      <trkpt lat="45.01253" lon="6.06613">
        <ele>778</ele>
        <time>2024-08-14T14:32:54Z</time>
      </trkpt>
      <trkpt lat="45.01253" lon="6.06613">
        <ele>777.8</ele>
        <time>2024-08-14T14:32:55Z</time>
      </trkpt>
      <trkpt lat="45.01256" lon="6.0661">
        <ele>777.8</ele>
        <time>2024-08-14T14:32:56Z</time>
      </trkpt>
      <trkpt lat="45.01257" lon="6.0661">
        <ele>777.8</ele>
        <time>2024-08-14T14:32:57Z</time>
      </trkpt>
      <trkpt lat="45.01257" lon="6.0661">
        <ele>777.6</ele>
        <time>2024-08-14T14:32:58Z</time>
      </trkpt>
      <trkpt lat="45.0126" lon="6.06609">
        <ele>777.6</ele>
        <time>2024-08-14T14:32:59Z</time>
      </trkpt>
      <trkpt lat="45.01262" lon="6.06609">
        <ele>777.6</ele>
        <time>2024-08-14T14:33:00Z</time>
      </trkpt>
      <trkpt lat="45.01264" lon="6.06608">
        <ele>777.6</ele>
        <time>2024-08-14T14:33:01Z</time>
      </trkpt>
      <trkpt lat="45.01264" lon="6.06608">
        <ele>777.2</ele>
        <time>2024-08-14T14:33:02Z</time>
      </trkpt>
      <trkpt lat="45.01267" lon="6.06607">
        <ele>777.2</ele>
        <time>2024-08-14T14:33:03Z</time>
      </trkpt>
      <trkpt lat="45.01267" lon="6.06607">
        <ele>777</ele>
        <time>2024-08-14T14:33:04Z</time>
      </trkpt>
      <trkpt lat="45.01269" lon="6.06606">
        <ele>777</ele>
        <time>2024-08-14T14:33:05Z</time>
      </trkpt>
      <trkpt lat="45.01269" lon="6.06606">
        <ele>777</ele>
        <time>2024-08-14T14:33:06Z</time>
      </trkpt>
      <trkpt lat="45.01272" lon="6.06605">
        <ele>777</ele>
        <time>2024-08-14T14:33:07Z</time>
      </trkpt>
      <trkpt lat="45.01272" lon="6.06605">
        <ele>777</ele>
        <time>2024-08-14T14:33:08Z</time>
      </trkpt>
      <trkpt lat="45.01275" lon="6.06604">
        <ele>777</ele>
        <time>2024-08-14T14:33:09Z</time>
      </trkpt>
      <trkpt lat="45.01275" lon="6.06604">
        <ele>776.8</ele>
        <time>2024-08-14T14:33:10Z</time>
      </trkpt>
      <trkpt lat="45.01277" lon="6.06604">
        <ele>776.8</ele>
        <time>2024-08-14T14:33:11Z</time>
      </trkpt>
      <trkpt lat="45.01277" lon="6.06604">
        <ele>776.8</ele>
        <time>2024-08-14T14:33:12Z</time>
      </trkpt>
      <trkpt lat="45.0128" lon="6.06603">
        <ele>776.6</ele>
        <time>2024-08-14T14:33:13Z</time>
      </trkpt>
      <trkpt lat="45.0128" lon="6.06603">
        <ele>776.6</ele>
        <time>2024-08-14T14:33:14Z</time>
      </trkpt>
      <trkpt lat="45.01283" lon="6.06603">
        <ele>776.6</ele>
        <time>2024-08-14T14:33:15Z</time>
      </trkpt>
      <trkpt lat="45.01283" lon="6.06603">
        <ele>776.6</ele>
        <time>2024-08-14T14:33:16Z</time>
      </trkpt>
      <trkpt lat="45.01286" lon="6.066">
        <ele>776.6</ele>
        <time>2024-08-14T14:33:17Z</time>
      </trkpt>
      <trkpt lat="45.01286" lon="6.066">
        <ele>776.4</ele>
        <time>2024-08-14T14:33:18Z</time>
      </trkpt>
      <trkpt lat="45.01286" lon="6.066">
        <ele>776.4</ele>
        <time>2024-08-14T14:33:19Z</time>
      </trkpt>
      <trkpt lat="45.0129" lon="6.06598">
        <ele>776.2</ele>
        <time>2024-08-14T14:33:20Z</time>
      </trkpt>
      <trkpt lat="45.01291" lon="6.06597">
        <ele>776.2</ele>
        <time>2024-08-14T14:33:21Z</time>
      </trkpt>
      <trkpt lat="45.01291" lon="6.06597">
        <ele>776.2</ele>
        <time>2024-08-14T14:33:22Z</time>
      </trkpt>
      <trkpt lat="45.01291" lon="6.06597">
        <ele>776.2</ele>
        <time>2024-08-14T14:33:23Z</time>
      </trkpt>
      <trkpt lat="45.01295" lon="6.06595">
        <ele>776.2</ele>
        <time>2024-08-14T14:33:24Z</time>
      </trkpt>
      <trkpt lat="45.01296" lon="6.06595">
        <ele>776.2</ele>
        <time>2024-08-14T14:33:25Z</time>
      </trkpt>
      <trkpt lat="45.01296" lon="6.06595">
        <ele>776</ele>
        <time>2024-08-14T14:33:26Z</time>
      </trkpt>
      <trkpt lat="45.01299" lon="6.06593">
        <ele>775.8</ele>
        <time>2024-08-14T14:33:27Z</time>
      </trkpt>
      <trkpt lat="45.01299" lon="6.06593">
        <ele>775.6</ele>
        <time>2024-08-14T14:33:28Z</time>
      </trkpt>
      <trkpt lat="45.01301" lon="6.06591">
        <ele>775.6</ele>
        <time>2024-08-14T14:33:29Z</time>
      </trkpt>
      <trkpt lat="45.01303" lon="6.06591">
        <ele>775.8</ele>
        <time>2024-08-14T14:33:30Z</time>
      </trkpt>
      <trkpt lat="45.01303" lon="6.06591">
        <ele>775.8</ele>
        <time>2024-08-14T14:33:31Z</time>
      </trkpt>
      <trkpt lat="45.01307" lon="6.06589">
        <ele>775.6</ele>
        <time>2024-08-14T14:33:32Z</time>
      </trkpt>
      <trkpt lat="45.01307" lon="6.06589">
        <ele>775.4</ele>
        <time>2024-08-14T14:33:33Z</time>
      </trkpt>
      <trkpt lat="45.01309" lon="6.06588">
        <ele>775.4</ele>
        <time>2024-08-14T14:33:34Z</time>
      </trkpt>
      <trkpt lat="45.01309" lon="6.06588">
        <ele>775.6</ele>
        <time>2024-08-14T14:33:35Z</time>
      </trkpt>
      <trkpt lat="45.01311" lon="6.06586">
        <ele>775.6</ele>
        <time>2024-08-14T14:33:36Z</time>
      </trkpt>
      <trkpt lat="45.01311" lon="6.06586">
        <ele>775.6</ele>
        <time>2024-08-14T14:33:37Z</time>
      </trkpt>
      <trkpt lat="45.01314" lon="6.06584">
        <ele>775.6</ele>
        <time>2024-08-14T14:33:38Z</time>
      </trkpt>
      <trkpt lat="45.01314" lon="6.06584">
        <ele>775.4</ele>
        <time>2024-08-14T14:33:39Z</time>
      </trkpt>
      <trkpt lat="45.01317" lon="6.06583">
        <ele>775.4</ele>
        <time>2024-08-14T14:33:40Z</time>
      </trkpt>
      <trkpt lat="45.01317" lon="6.06583">
        <ele>775.4</ele>
        <time>2024-08-14T14:33:41Z</time>
      </trkpt>
      <trkpt lat="45.01319" lon="6.06581">
        <ele>775.4</ele>
        <time>2024-08-14T14:33:42Z</time>
      </trkpt>
      <trkpt lat="45.01319" lon="6.06581">
        <ele>775.4</ele>
        <time>2024-08-14T14:33:43Z</time>
      </trkpt>
      <trkpt lat="45.01322" lon="6.06579">
        <ele>775</ele>
        <time>2024-08-14T14:33:44Z</time>
      </trkpt>
      <trkpt lat="45.01322" lon="6.06579">
        <ele>775</ele>
        <time>2024-08-14T14:33:45Z</time>
      </trkpt>
      <trkpt lat="45.01325" lon="6.06577">
        <ele>775</ele>
        <time>2024-08-14T14:33:46Z</time>
      </trkpt>
      <trkpt lat="45.01325" lon="6.06577">
        <ele>775</ele>
        <time>2024-08-14T14:33:47Z</time>
      </trkpt>
      <trkpt lat="45.01327" lon="6.06574">
        <ele>775</ele>
        <time>2024-08-14T14:33:48Z</time>
      </trkpt>
      <trkpt lat="45.01327" lon="6.06574">
        <ele>775</ele>
        <time>2024-08-14T14:33:49Z</time>
      </trkpt>
      <trkpt lat="45.01327" lon="6.06574">
        <ele>774.8</ele>
        <time>2024-08-14T14:33:50Z</time>
      </trkpt>
      <trkpt lat="45.0133" lon="6.0657">
        <ele>774.8</ele>
        <time>2024-08-14T14:33:51Z</time>
      </trkpt>
      <trkpt lat="45.01331" lon="6.06568">
        <ele>774.8</ele>
        <time>2024-08-14T14:33:52Z</time>
      </trkpt>
      <trkpt lat="45.01331" lon="6.06568">
        <ele>774.8</ele>
        <time>2024-08-14T14:33:53Z</time>
      </trkpt>
      <trkpt lat="45.01334" lon="6.06565">
        <ele>774.8</ele>
        <time>2024-08-14T14:33:54Z</time>
      </trkpt>
      <trkpt lat="45.01334" lon="6.06565">
        <ele>774.4</ele>
        <time>2024-08-14T14:33:55Z</time>
      </trkpt>
      <trkpt lat="45.01336" lon="6.06563">
        <ele>774.2</ele>
        <time>2024-08-14T14:33:56Z</time>
      </trkpt>
      <trkpt lat="45.01336" lon="6.06563">
        <ele>774</ele>
        <time>2024-08-14T14:33:57Z</time>
      </trkpt>
      <trkpt lat="45.01338" lon="6.0656">
        <ele>774.2</ele>
        <time>2024-08-14T14:33:58Z</time>
      </trkpt>
      <trkpt lat="45.01338" lon="6.0656">
        <ele>774.2</ele>
        <time>2024-08-14T14:33:59Z</time>
      </trkpt>
      <trkpt lat="45.0134" lon="6.06557">
        <ele>774.2</ele>
        <time>2024-08-14T14:34:00Z</time>
      </trkpt>
      <trkpt lat="45.0134" lon="6.06557">
        <ele>774.2</ele>
        <time>2024-08-14T14:34:01Z</time>
      </trkpt>
      <trkpt lat="45.01342" lon="6.06554">
        <ele>774.4</ele>
        <time>2024-08-14T14:34:02Z</time>
      </trkpt>
      <trkpt lat="45.01342" lon="6.06554">
        <ele>774.2</ele>
        <time>2024-08-14T14:34:03Z</time>
      </trkpt>
      <trkpt lat="45.01345" lon="6.06552">
        <ele>773.8</ele>
        <time>2024-08-14T14:34:04Z</time>
      </trkpt>
      <trkpt lat="45.01345" lon="6.06552">
        <ele>773.8</ele>
        <time>2024-08-14T14:34:05Z</time>
      </trkpt>
      <trkpt lat="45.01347" lon="6.06549">
        <ele>774</ele>
        <time>2024-08-14T14:34:06Z</time>
      </trkpt>
      <trkpt lat="45.01347" lon="6.06549">
        <ele>773.8</ele>
        <time>2024-08-14T14:34:07Z</time>
      </trkpt>
      <trkpt lat="45.01349" lon="6.06546">
        <ele>773.8</ele>
        <time>2024-08-14T14:34:08Z</time>
      </trkpt>
      <trkpt lat="45.01349" lon="6.06546">
        <ele>773.8</ele>
        <time>2024-08-14T14:34:09Z</time>
      </trkpt>
      <trkpt lat="45.01351" lon="6.06543">
        <ele>773.8</ele>
        <time>2024-08-14T14:34:10Z</time>
      </trkpt>
      <trkpt lat="45.01351" lon="6.06543">
        <ele>773.8</ele>
        <time>2024-08-14T14:34:11Z</time>
      </trkpt>
      <trkpt lat="45.01353" lon="6.06539">
        <ele>773.8</ele>
        <time>2024-08-14T14:34:12Z</time>
      </trkpt>
      <trkpt lat="45.01353" lon="6.06539">
        <ele>773.8</ele>
        <time>2024-08-14T14:34:13Z</time>
      </trkpt>
      <trkpt lat="45.01355" lon="6.06536">
        <ele>773.8</ele>
        <time>2024-08-14T14:34:14Z</time>
      </trkpt>
      <trkpt lat="45.01355" lon="6.06536">
        <ele>773.6</ele>
        <time>2024-08-14T14:34:15Z</time>
      </trkpt>
      <trkpt lat="45.01356" lon="6.06533">
        <ele>773.6</ele>
        <time>2024-08-14T14:34:16Z</time>
      </trkpt>
      <trkpt lat="45.01356" lon="6.06533">
        <ele>773.6</ele>
        <time>2024-08-14T14:34:17Z</time>
      </trkpt>
      <trkpt lat="45.01356" lon="6.06533">
        <ele>773.6</ele>
        <time>2024-08-14T14:34:18Z</time>
      </trkpt>
      <trkpt lat="45.01356" lon="6.06533">
        <ele>773.6</ele>
        <time>2024-08-14T14:34:19Z</time>
      </trkpt>
      <trkpt lat="45.01356" lon="6.06533">
        <ele>773.6</ele>
        <time>2024-08-14T14:34:20Z</time>
      </trkpt>
      <trkpt lat="45.01356" lon="6.06533">
        <ele>773.4</ele>
        <time>2024-08-14T14:34:21Z</time>
      </trkpt>
      <trkpt lat="45.01356" lon="6.06533">
        <ele>773.4</ele>
        <time>2024-08-14T14:34:22Z</time>
      </trkpt>
      <trkpt lat="45.01356" lon="6.06533">
        <ele>773.2</ele>
        <time>2024-08-14T14:34:23Z</time>
      </trkpt>
      <trkpt lat="45.01356" lon="6.06533">
        <ele>773.2</ele>
        <time>2024-08-14T14:34:24Z</time>
      </trkpt>
      <trkpt lat="45.01356" lon="6.06533">
        <ele>773</ele>
        <time>2024-08-14T14:34:25Z</time>
      </trkpt>
      <trkpt lat="45.01356" lon="6.06533">
        <ele>773</ele>
        <time>2024-08-14T14:34:26Z</time>
      </trkpt>
      <trkpt lat="45.01356" lon="6.06533">
        <ele>773.2</ele>
        <time>2024-08-14T14:34:27Z</time>
      </trkpt>
      <trkpt lat="45.01356" lon="6.06533">
        <ele>773.2</ele>
        <time>2024-08-14T14:34:28Z</time>
      </trkpt>
      <trkpt lat="45.01356" lon="6.06533">
        <ele>773.2</ele>
        <time>2024-08-14T14:34:29Z</time>
      </trkpt>
      <trkpt lat="45.01356" lon="6.06533">
        <ele>773</ele>
        <time>2024-08-14T14:34:30Z</time>
      </trkpt>
      <trkpt lat="45.01356" lon="6.06533">
        <ele>773.2</ele>
        <time>2024-08-14T14:34:31Z</time>
      </trkpt>
      <trkpt lat="45.01356" lon="6.06533">
        <ele>773</ele>
        <time>2024-08-14T14:34:32Z</time>
      </trkpt>
      <trkpt lat="45.01356" lon="6.06533">
        <ele>773</ele>
        <time>2024-08-14T14:34:33Z</time>
      </trkpt>
      <trkpt lat="45.01356" lon="6.06533">
        <ele>772.8</ele>
        <time>2024-08-14T14:34:34Z</time>
      </trkpt>
      <trkpt lat="45.01356" lon="6.06533">
        <ele>772.8</ele>
        <time>2024-08-14T14:34:35Z</time>
      </trkpt>
      <trkpt lat="45.01356" lon="6.06533">
        <ele>772.8</ele>
        <time>2024-08-14T14:34:36Z</time>
      </trkpt>
      <trkpt lat="45.01356" lon="6.06533">
        <ele>773</ele>
        <time>2024-08-14T14:34:37Z</time>
      </trkpt>
      <trkpt lat="45.01356" lon="6.06533">
        <ele>773</ele>
        <time>2024-08-14T14:34:38Z</time>
      </trkpt>
      <trkpt lat="45.01356" lon="6.06533">
        <ele>773</ele>
        <time>2024-08-14T14:34:39Z</time>
      </trkpt>
      <trkpt lat="45.01356" lon="6.06533">
        <ele>773</ele>
        <time>2024-08-14T14:34:40Z</time>
      </trkpt>
      <trkpt lat="45.01356" lon="6.06533">
        <ele>773</ele>
        <time>2024-08-14T14:34:41Z</time>
      </trkpt>
      <trkpt lat="45.01356" lon="6.06533">
        <ele>773</ele>
        <time>2024-08-14T14:34:42Z</time>
      </trkpt>
      <trkpt lat="45.01356" lon="6.06533">
        <ele>773</ele>
        <time>2024-08-14T14:34:43Z</time>
      </trkpt>
      <trkpt lat="45.01356" lon="6.06533">
        <ele>773</ele>
        <time>2024-08-14T14:34:44Z</time>
      </trkpt>
      <trkpt lat="45.01356" lon="6.06533">
        <ele>773</ele>
        <time>2024-08-14T14:34:45Z</time>
      </trkpt>
      <trkpt lat="45.01356" lon="6.06533">
        <ele>772.8</ele>
        <time>2024-08-14T14:34:46Z</time>
      </trkpt>
      <trkpt lat="45.01356" lon="6.06533">
        <ele>772.8</ele>
        <time>2024-08-14T14:34:47Z</time>
      </trkpt>
      <trkpt lat="45.01356" lon="6.06533">
        <ele>772.8</ele>
        <time>2024-08-14T14:34:48Z</time>
      </trkpt>
      <trkpt lat="45.01356" lon="6.06533">
        <ele>773</ele>
        <time>2024-08-14T14:34:49Z</time>
      </trkpt>
      <trkpt lat="45.01356" lon="6.06533">
        <ele>773</ele>
        <time>2024-08-14T14:34:50Z</time>
      </trkpt>
      <trkpt lat="45.01356" lon="6.06533">
        <ele>772.8</ele>
        <time>2024-08-14T14:34:51Z</time>
      </trkpt>
      <trkpt lat="45.01356" lon="6.06533">
        <ele>772.8</ele>
        <time>2024-08-14T14:34:52Z</time>
      </trkpt>
      <trkpt lat="45.01356" lon="6.06533">
        <ele>772.8</ele>
        <time>2024-08-14T14:34:53Z</time>
      </trkpt>
      <trkpt lat="45.01356" lon="6.06533">
        <ele>772.8</ele>
        <time>2024-08-14T14:34:54Z</time>
      </trkpt>
      <trkpt lat="45.01356" lon="6.06533">
        <ele>773</ele>
        <time>2024-08-14T14:34:55Z</time>
      </trkpt>
      <trkpt lat="45.01356" lon="6.06533">
        <ele>773</ele>
        <time>2024-08-14T14:34:56Z</time>
      </trkpt>
      <trkpt lat="45.01356" lon="6.06533">
        <ele>773</ele>
        <time>2024-08-14T14:34:57Z</time>
      </trkpt>
      <trkpt lat="45.01356" lon="6.06533">
        <ele>773</ele>
        <time>2024-08-14T14:34:58Z</time>
      </trkpt>
      <trkpt lat="45.01356" lon="6.06533">
        <ele>772.8</ele>
        <time>2024-08-14T14:34:59Z</time>
      </trkpt>
      <trkpt lat="45.01356" lon="6.06533">
        <ele>772.8</ele>
        <time>2024-08-14T14:35:00Z</time>
      </trkpt>
      <trkpt lat="45.01356" lon="6.06533">
        <ele>772.8</ele>
        <time>2024-08-14T14:35:01Z</time>
      </trkpt>
      <trkpt lat="45.01356" lon="6.06533">
        <ele>773</ele>
        <time>2024-08-14T14:35:02Z</time>
      </trkpt>
      <trkpt lat="45.01356" lon="6.06533">
        <ele>773</ele>
        <time>2024-08-14T14:35:03Z</time>
      </trkpt>
      <trkpt lat="45.01356" lon="6.06533">
        <ele>773</ele>
        <time>2024-08-14T14:35:04Z</time>
      </trkpt>
      <trkpt lat="45.01356" lon="6.06533">
        <ele>773</ele>
        <time>2024-08-14T14:35:05Z</time>
      </trkpt>
      <trkpt lat="45.01356" lon="6.06533">
        <ele>772.8</ele>
        <time>2024-08-14T14:35:06Z</time>
      </trkpt>
      <trkpt lat="45.01356" lon="6.06533">
        <ele>772.8</ele>
        <time>2024-08-14T14:35:07Z</time>
      </trkpt>
      <trkpt lat="45.01356" lon="6.06533">
        <ele>772.8</ele>
        <time>2024-08-14T14:35:08Z</time>
      </trkpt>
      <trkpt lat="45.01356" lon="6.06533">
        <ele>772.8</ele>
        <time>2024-08-14T14:35:09Z</time>
      </trkpt>
      <trkpt lat="45.01356" lon="6.06533">
        <ele>772.6</ele>
        <time>2024-08-14T14:35:10Z</time>
      </trkpt>
      <trkpt lat="45.01356" lon="6.06533">
        <ele>772.6</ele>
        <time>2024-08-14T14:35:11Z</time>
      </trkpt>
      <trkpt lat="45.01356" lon="6.06533">
        <ele>772.8</ele>
        <time>2024-08-14T14:35:12Z</time>
      </trkpt>
      <trkpt lat="45.01356" lon="6.06533">
        <ele>772.8</ele>
        <time>2024-08-14T14:35:13Z</time>
      </trkpt>
      <trkpt lat="45.01356" lon="6.06533">
        <ele>772.8</ele>
        <time>2024-08-14T14:35:14Z</time>
      </trkpt>
      <trkpt lat="45.01356" lon="6.06533">
        <ele>772.8</ele>
        <time>2024-08-14T14:35:15Z</time>
      </trkpt>
      <trkpt lat="45.01356" lon="6.06533">
        <ele>772.8</ele>
        <time>2024-08-14T14:35:16Z</time>
      </trkpt>
      <trkpt lat="45.01356" lon="6.06533">
        <ele>772.8</ele>
        <time>2024-08-14T14:35:17Z</time>
      </trkpt>
      <trkpt lat="45.01356" lon="6.06533">
        <ele>772.8</ele>
        <time>2024-08-14T14:35:18Z</time>
      </trkpt>
      <trkpt lat="45.01356" lon="6.06533">
        <ele>772.6</ele>
        <time>2024-08-14T14:35:19Z</time>
      </trkpt>
      <trkpt lat="45.01356" lon="6.06533">
        <ele>772.6</ele>
        <time>2024-08-14T14:35:20Z</time>
      </trkpt>
      <trkpt lat="45.01356" lon="6.06533">
        <ele>772.4</ele>
        <time>2024-08-14T14:35:21Z</time>
      </trkpt>
      <trkpt lat="45.01356" lon="6.06533">
        <ele>772.6</ele>
        <time>2024-08-14T14:35:22Z</time>
      </trkpt>
      <trkpt lat="45.01356" lon="6.06533">
        <ele>772.6</ele>
        <time>2024-08-14T14:35:23Z</time>
      </trkpt>
      <trkpt lat="45.01356" lon="6.06533">
        <ele>772.4</ele>
        <time>2024-08-14T14:35:24Z</time>
      </trkpt>
      <trkpt lat="45.01356" lon="6.06533">
        <ele>772.4</ele>
        <time>2024-08-14T14:35:25Z</time>
      </trkpt>
      <trkpt lat="45.01356" lon="6.06533">
        <ele>772.4</ele>
        <time>2024-08-14T14:35:26Z</time>
      </trkpt>
      <trkpt lat="45.01356" lon="6.06533">
        <ele>772.4</ele>
        <time>2024-08-14T14:35:27Z</time>
      </trkpt>
      <trkpt lat="45.01356" lon="6.06533">
        <ele>772.4</ele>
        <time>2024-08-14T14:35:28Z</time>
      </trkpt>
      <trkpt lat="45.01356" lon="6.06533">
        <ele>772.4</ele>
        <time>2024-08-14T14:35:29Z</time>
      </trkpt>
      <trkpt lat="45.01356" lon="6.06533">
        <ele>772.4</ele>
        <time>2024-08-14T14:35:30Z</time>
      </trkpt>
      <trkpt lat="45.01356" lon="6.06533">
        <ele>772.4</ele>
        <time>2024-08-14T14:35:31Z</time>
      </trkpt>
      <trkpt lat="45.01356" lon="6.06533">
        <ele>772.4</ele>
        <time>2024-08-14T14:35:32Z</time>
      </trkpt>
      <trkpt lat="45.01356" lon="6.06533">
        <ele>772.4</ele>
        <time>2024-08-14T14:35:33Z</time>
      </trkpt>
      <trkpt lat="45.01356" lon="6.06533">
        <ele>772.2</ele>
        <time>2024-08-14T14:35:34Z</time>
      </trkpt>
      <trkpt lat="45.01356" lon="6.06533">
        <ele>772.2</ele>
        <time>2024-08-14T14:35:35Z</time>
      </trkpt>
      <trkpt lat="45.01356" lon="6.06533">
        <ele>772.4</ele>
        <time>2024-08-14T14:35:36Z</time>
      </trkpt>
      <trkpt lat="45.01356" lon="6.06533">
        <ele>772.4</ele>
        <time>2024-08-14T14:35:37Z</time>
      </trkpt>
      <trkpt lat="45.01356" lon="6.06533">
        <ele>772.4</ele>
        <time>2024-08-14T14:35:38Z</time>
      </trkpt>
      <trkpt lat="45.01356" lon="6.06533">
        <ele>772.2</ele>
        <time>2024-08-14T14:35:39Z</time>
      </trkpt>
      <trkpt lat="45.01356" lon="6.06533">
        <ele>772.2</ele>
        <time>2024-08-14T14:35:40Z</time>
      </trkpt>
      <trkpt lat="45.01356" lon="6.06533">
        <ele>772.2</ele>
        <time>2024-08-14T14:35:41Z</time>
      </trkpt>
      <trkpt lat="45.01356" lon="6.06533">
        <ele>772.2</ele>
        <time>2024-08-14T14:35:42Z</time>
      </trkpt>
      <trkpt lat="45.01356" lon="6.06533">
        <ele>772.2</ele>
        <time>2024-08-14T14:35:43Z</time>
      </trkpt>
      <trkpt lat="45.01356" lon="6.06533">
        <ele>772.4</ele>
        <time>2024-08-14T14:35:44Z</time>
      </trkpt>
      <trkpt lat="45.01356" lon="6.06533">
        <ele>772.6</ele>
        <time>2024-08-14T14:35:45Z</time>
      </trkpt>
      <trkpt lat="45.01356" lon="6.06533">
        <ele>772.6</ele>
        <time>2024-08-14T14:35:46Z</time>
      </trkpt>
      <trkpt lat="45.01356" lon="6.06533">
        <ele>772.6</ele>
        <time>2024-08-14T14:35:47Z</time>
      </trkpt>
      <trkpt lat="45.01356" lon="6.06533">
        <ele>772.6</ele>
        <time>2024-08-14T14:35:48Z</time>
      </trkpt>
      <trkpt lat="45.01356" lon="6.06533">
        <ele>772.6</ele>
        <time>2024-08-14T14:35:49Z</time>
      </trkpt>
      <trkpt lat="45.01356" lon="6.06533">
        <ele>772.6</ele>
        <time>2024-08-14T14:35:50Z</time>
      </trkpt>
      <trkpt lat="45.01356" lon="6.06533">
        <ele>772.6</ele>
        <time>2024-08-14T14:35:51Z</time>
      </trkpt>
      <trkpt lat="45.01356" lon="6.06533">
        <ele>772.6</ele>
        <time>2024-08-14T14:35:52Z</time>
      </trkpt>
      <trkpt lat="45.01356" lon="6.06533">
        <ele>772.6</ele>
        <time>2024-08-14T14:35:53Z</time>
      </trkpt>
      <trkpt lat="45.01356" lon="6.06533">
        <ele>772.6</ele>
        <time>2024-08-14T14:35:54Z</time>
      </trkpt>
      <trkpt lat="45.01356" lon="6.06533">
        <ele>772.6</ele>
        <time>2024-08-14T14:35:55Z</time>
      </trkpt>
      <trkpt lat="45.01356" lon="6.06533">
        <ele>772.6</ele>
        <time>2024-08-14T14:35:56Z</time>
      </trkpt>
      <trkpt lat="45.01356" lon="6.06533">
        <ele>772.4</ele>
        <time>2024-08-14T14:35:57Z</time>
      </trkpt>
      <trkpt lat="45.01356" lon="6.06533">
        <ele>772.4</ele>
        <time>2024-08-14T14:35:58Z</time>
      </trkpt>
      <trkpt lat="45.01356" lon="6.06533">
        <ele>772.4</ele>
        <time>2024-08-14T14:35:59Z</time>
      </trkpt>
      <trkpt lat="45.01356" lon="6.06533">
        <ele>772.4</ele>
        <time>2024-08-14T14:36:00Z</time>
      </trkpt>
      <trkpt lat="45.01356" lon="6.06533">
        <ele>772.4</ele>
        <time>2024-08-14T14:36:01Z</time>
      </trkpt>
      <trkpt lat="45.01356" lon="6.06533">
        <ele>772.4</ele>
        <time>2024-08-14T14:36:02Z</time>
      </trkpt>
      <trkpt lat="45.01356" lon="6.06533">
        <ele>772.4</ele>
        <time>2024-08-14T14:36:03Z</time>
      </trkpt>
      <trkpt lat="45.01356" lon="6.06533">
        <ele>772.2</ele>
        <time>2024-08-14T14:36:04Z</time>
      </trkpt>
      <trkpt lat="45.01356" lon="6.06533">
        <ele>772.2</ele>
        <time>2024-08-14T14:36:05Z</time>
      </trkpt>
      <trkpt lat="45.01356" lon="6.06533">
        <ele>772</ele>
        <time>2024-08-14T14:36:06Z</time>
      </trkpt>
      <trkpt lat="45.01356" lon="6.06533">
        <ele>772</ele>
        <time>2024-08-14T14:36:07Z</time>
      </trkpt>
      <trkpt lat="45.01356" lon="6.06533">
        <ele>772.2</ele>
        <time>2024-08-14T14:36:08Z</time>
      </trkpt>
      <trkpt lat="45.01356" lon="6.06533">
        <ele>772.6</ele>
        <time>2024-08-14T14:36:09Z</time>
      </trkpt>
      <trkpt lat="45.01356" lon="6.06533">
        <ele>772.8</ele>
        <time>2024-08-14T14:36:10Z</time>
      </trkpt>
      <trkpt lat="45.01356" lon="6.06533">
        <ele>772.8</ele>
        <time>2024-08-14T14:36:11Z</time>
      </trkpt>
      <trkpt lat="45.01356" lon="6.06533">
        <ele>772.6</ele>
        <time>2024-08-14T14:36:12Z</time>
      </trkpt>
      <trkpt lat="45.01356" lon="6.06533">
        <ele>772.6</ele>
        <time>2024-08-14T14:36:13Z</time>
      </trkpt>
      <trkpt lat="45.01356" lon="6.06533">
        <ele>772.4</ele>
        <time>2024-08-14T14:36:14Z</time>
      </trkpt>
      <trkpt lat="45.01356" lon="6.06533">
        <ele>772</ele>
        <time>2024-08-14T14:36:15Z</time>
      </trkpt>
      <trkpt lat="45.01356" lon="6.06533">
        <ele>772</ele>
        <time>2024-08-14T14:36:16Z</time>
      </trkpt>
      <trkpt lat="45.01356" lon="6.06533">
        <ele>772</ele>
        <time>2024-08-14T14:36:17Z</time>
      </trkpt>
      <trkpt lat="45.01356" lon="6.06533">
        <ele>772.2</ele>
        <time>2024-08-14T14:36:18Z</time>
      </trkpt>
      <trkpt lat="45.01356" lon="6.06533">
        <ele>772.2</ele>
        <time>2024-08-14T14:36:19Z</time>
      </trkpt>
      <trkpt lat="45.01356" lon="6.06533">
        <ele>772.2</ele>
        <time>2024-08-14T14:36:20Z</time>
      </trkpt>
      <trkpt lat="45.01356" lon="6.06533">
        <ele>772.2</ele>
        <time>2024-08-14T14:36:21Z</time>
      </trkpt>
      <trkpt lat="45.01356" lon="6.06533">
        <ele>772.2</ele>
        <time>2024-08-14T14:36:22Z</time>
      </trkpt>
      <trkpt lat="45.01356" lon="6.06533">
        <ele>772.2</ele>
        <time>2024-08-14T14:36:23Z</time>
      </trkpt>
      <trkpt lat="45.01356" lon="6.06533">
        <ele>772</ele>
        <time>2024-08-14T14:36:24Z</time>
      </trkpt>
      <trkpt lat="45.01356" lon="6.06533">
        <ele>772</ele>
        <time>2024-08-14T14:36:25Z</time>
      </trkpt>
      <trkpt lat="45.01356" lon="6.06533">
        <ele>772.2</ele>
        <time>2024-08-14T14:36:26Z</time>
      </trkpt>
      <trkpt lat="45.01356" lon="6.06533">
        <ele>772.4</ele>
        <time>2024-08-14T14:36:27Z</time>
      </trkpt>
      <trkpt lat="45.01356" lon="6.06533">
        <ele>772.4</ele>
        <time>2024-08-14T14:36:28Z</time>
      </trkpt>
      <trkpt lat="45.01356" lon="6.06533">
        <ele>772.4</ele>
        <time>2024-08-14T14:36:29Z</time>
      </trkpt>
      <trkpt lat="45.01356" lon="6.06533">
        <ele>772.2</ele>
        <time>2024-08-14T14:36:30Z</time>
      </trkpt>
      <trkpt lat="45.01356" lon="6.06533">
        <ele>772.2</ele>
        <time>2024-08-14T14:36:31Z</time>
      </trkpt>
      <trkpt lat="45.01356" lon="6.06533">
        <ele>772.2</ele>
        <time>2024-08-14T14:36:32Z</time>
      </trkpt>
      <trkpt lat="45.01356" lon="6.06533">
        <ele>772.2</ele>
        <time>2024-08-14T14:36:33Z</time>
      </trkpt>
      <trkpt lat="45.01356" lon="6.06533">
        <ele>772</ele>
        <time>2024-08-14T14:36:34Z</time>
      </trkpt>
      <trkpt lat="45.01356" lon="6.06533">
        <ele>771.8</ele>
        <time>2024-08-14T14:36:35Z</time>
      </trkpt>
      <trkpt lat="45.01356" lon="6.06533">
        <ele>771.8</ele>
        <time>2024-08-14T14:36:36Z</time>
      </trkpt>
      <trkpt lat="45.01356" lon="6.06533">
        <ele>771.8</ele>
        <time>2024-08-14T14:36:37Z</time>
      </trkpt>
      <trkpt lat="45.01356" lon="6.06533">
        <ele>771.8</ele>
        <time>2024-08-14T14:36:38Z</time>
      </trkpt>
      <trkpt lat="45.01356" lon="6.06533">
        <ele>771.8</ele>
        <time>2024-08-14T14:36:39Z</time>
      </trkpt>
      <trkpt lat="45.01356" lon="6.06533">
        <ele>771.8</ele>
        <time>2024-08-14T14:36:40Z</time>
      </trkpt>
      <trkpt lat="45.01356" lon="6.06533">
        <ele>772</ele>
        <time>2024-08-14T14:36:41Z</time>
      </trkpt>
      <trkpt lat="45.01356" lon="6.06533">
        <ele>772</ele>
        <time>2024-08-14T14:36:42Z</time>
      </trkpt>
      <trkpt lat="45.01356" lon="6.06533">
        <ele>771.8</ele>
        <time>2024-08-14T14:36:43Z</time>
      </trkpt>
      <trkpt lat="45.01356" lon="6.06533">
        <ele>771.8</ele>
        <time>2024-08-14T14:36:44Z</time>
      </trkpt>
      <trkpt lat="45.01356" lon="6.06533">
        <ele>771.8</ele>
        <time>2024-08-14T14:36:45Z</time>
      </trkpt>
      <trkpt lat="45.01356" lon="6.06533">
        <ele>771.8</ele>
        <time>2024-08-14T14:36:46Z</time>
      </trkpt>
      <trkpt lat="45.01356" lon="6.06533">
        <ele>771.8</ele>
        <time>2024-08-14T14:36:47Z</time>
      </trkpt>
      <trkpt lat="45.01356" lon="6.06533">
        <ele>771.8</ele>
        <time>2024-08-14T14:36:48Z</time>
      </trkpt>
      <trkpt lat="45.01356" lon="6.06533">
        <ele>772</ele>
        <time>2024-08-14T14:36:49Z</time>
      </trkpt>
      <trkpt lat="45.01356" lon="6.06533">
        <ele>772</ele>
        <time>2024-08-14T14:36:50Z</time>
      </trkpt>
      <trkpt lat="45.01356" lon="6.06533">
        <ele>772</ele>
        <time>2024-08-14T14:36:51Z</time>
      </trkpt>
      <trkpt lat="45.01356" lon="6.06533">
        <ele>772</ele>
        <time>2024-08-14T14:36:52Z</time>
      </trkpt>
      <trkpt lat="45.01356" lon="6.06533">
        <ele>772</ele>
        <time>2024-08-14T14:36:53Z</time>
      </trkpt>
      <trkpt lat="45.01356" lon="6.06533">
        <ele>771.8</ele>
        <time>2024-08-14T14:36:54Z</time>
      </trkpt>
      <trkpt lat="45.01356" lon="6.06533">
        <ele>771.8</ele>
        <time>2024-08-14T14:36:55Z</time>
      </trkpt>
      <trkpt lat="45.01356" lon="6.06533">
        <ele>771.8</ele>
        <time>2024-08-14T14:36:56Z</time>
      </trkpt>
      <trkpt lat="45.01356" lon="6.06533">
        <ele>771.6</ele>
        <time>2024-08-14T14:36:57Z</time>
      </trkpt>
      <trkpt lat="45.01356" lon="6.06533">
        <ele>771.6</ele>
        <time>2024-08-14T14:36:58Z</time>
      </trkpt>
      <trkpt lat="45.01356" lon="6.06533">
        <ele>771.6</ele>
        <time>2024-08-14T14:36:59Z</time>
      </trkpt>
      <trkpt lat="45.01356" lon="6.06533">
        <ele>771.8</ele>
        <time>2024-08-14T14:37:00Z</time>
      </trkpt>
      <trkpt lat="45.01356" lon="6.06533">
        <ele>771.8</ele>
        <time>2024-08-14T14:37:01Z</time>
      </trkpt>
      <trkpt lat="45.01356" lon="6.06533">
        <ele>771.4</ele>
        <time>2024-08-14T14:37:02Z</time>
      </trkpt>
      <trkpt lat="45.01356" lon="6.06533">
        <ele>771.4</ele>
        <time>2024-08-14T14:37:03Z</time>
      </trkpt>
      <trkpt lat="45.01359" lon="6.06532">
        <ele>771.2</ele>
        <time>2024-08-14T14:37:04Z</time>
      </trkpt>
      <trkpt lat="45.01361" lon="6.06531">
        <ele>771.2</ele>
        <time>2024-08-14T14:37:05Z</time>
      </trkpt>
      <trkpt lat="45.01363" lon="6.06531">
        <ele>771.2</ele>
        <time>2024-08-14T14:37:06Z</time>
      </trkpt>
      <trkpt lat="45.01363" lon="6.06531">
        <ele>771.4</ele>
        <time>2024-08-14T14:37:07Z</time>
      </trkpt>
      <trkpt lat="45.01366" lon="6.06529">
        <ele>771.4</ele>
        <time>2024-08-14T14:37:08Z</time>
      </trkpt>
      <trkpt lat="45.01366" lon="6.06529">
        <ele>771.2</ele>
        <time>2024-08-14T14:37:09Z</time>
      </trkpt>
      <trkpt lat="45.01366" lon="6.06529">
        <ele>771.2</ele>
        <time>2024-08-14T14:37:10Z</time>
      </trkpt>
      <trkpt lat="45.01366" lon="6.06529">
        <ele>771</ele>
        <time>2024-08-14T14:37:11Z</time>
      </trkpt>
      <trkpt lat="45.01366" lon="6.06529">
        <ele>771.2</ele>
        <time>2024-08-14T14:37:12Z</time>
      </trkpt>
      <trkpt lat="45.01366" lon="6.06529">
        <ele>771</ele>
        <time>2024-08-14T14:37:13Z</time>
      </trkpt>
      <trkpt lat="45.01366" lon="6.06529">
        <ele>771</ele>
        <time>2024-08-14T14:37:14Z</time>
      </trkpt>
      <trkpt lat="45.01366" lon="6.06529">
        <ele>771</ele>
        <time>2024-08-14T14:37:15Z</time>
      </trkpt>
      <trkpt lat="45.01366" lon="6.06529">
        <ele>771.2</ele>
        <time>2024-08-14T14:37:16Z</time>
      </trkpt>
      <trkpt lat="45.01366" lon="6.06529">
        <ele>771.2</ele>
        <time>2024-08-14T14:37:17Z</time>
      </trkpt>
      <trkpt lat="45.01366" lon="6.06529">
        <ele>771.2</ele>
        <time>2024-08-14T14:37:18Z</time>
      </trkpt>
      <trkpt lat="45.01366" lon="6.06529">
        <ele>771.2</ele>
        <time>2024-08-14T14:37:19Z</time>
      </trkpt>
      <trkpt lat="45.01366" lon="6.06529">
        <ele>771.4</ele>
        <time>2024-08-14T14:37:20Z</time>
      </trkpt>
      <trkpt lat="45.01366" lon="6.06529">
        <ele>771.4</ele>
        <time>2024-08-14T14:37:21Z</time>
      </trkpt>
      <trkpt lat="45.01366" lon="6.06529">
        <ele>771.2</ele>
        <time>2024-08-14T14:37:22Z</time>
      </trkpt>
      <trkpt lat="45.01366" lon="6.06529">
        <ele>771</ele>
        <time>2024-08-14T14:37:23Z</time>
      </trkpt>
      <trkpt lat="45.01366" lon="6.06529">
        <ele>771</ele>
        <time>2024-08-14T14:37:24Z</time>
      </trkpt>
      <trkpt lat="45.01366" lon="6.06529">
        <ele>771</ele>
        <time>2024-08-14T14:37:25Z</time>
      </trkpt>
      <trkpt lat="45.01366" lon="6.06529">
        <ele>771.2</ele>
        <time>2024-08-14T14:37:26Z</time>
      </trkpt>
      <trkpt lat="45.01366" lon="6.06529">
        <ele>771.2</ele>
        <time>2024-08-14T14:37:27Z</time>
      </trkpt>
      <trkpt lat="45.01366" lon="6.06529">
        <ele>771</ele>
        <time>2024-08-14T14:37:28Z</time>
      </trkpt>
      <trkpt lat="45.01366" lon="6.06529">
        <ele>771</ele>
        <time>2024-08-14T14:37:29Z</time>
      </trkpt>
      <trkpt lat="45.01366" lon="6.06529">
        <ele>771.2</ele>
        <time>2024-08-14T14:37:30Z</time>
      </trkpt>
      <trkpt lat="45.01366" lon="6.06529">
        <ele>771.2</ele>
        <time>2024-08-14T14:37:31Z</time>
      </trkpt>
      <trkpt lat="45.01366" lon="6.06529">
        <ele>771</ele>
        <time>2024-08-14T14:37:32Z</time>
      </trkpt>
      <trkpt lat="45.01366" lon="6.06529">
        <ele>771</ele>
        <time>2024-08-14T14:37:33Z</time>
      </trkpt>
      <trkpt lat="45.01366" lon="6.06529">
        <ele>771</ele>
        <time>2024-08-14T14:37:34Z</time>
      </trkpt>
      <trkpt lat="45.01366" lon="6.06529">
        <ele>771</ele>
        <time>2024-08-14T14:37:35Z</time>
      </trkpt>
      <trkpt lat="45.01366" lon="6.06529">
        <ele>771</ele>
        <time>2024-08-14T14:37:36Z</time>
      </trkpt>
      <trkpt lat="45.01366" lon="6.06529">
        <ele>771</ele>
        <time>2024-08-14T14:37:37Z</time>
      </trkpt>
      <trkpt lat="45.01366" lon="6.06529">
        <ele>771</ele>
        <time>2024-08-14T14:37:38Z</time>
      </trkpt>
      <trkpt lat="45.01366" lon="6.06529">
        <ele>771</ele>
        <time>2024-08-14T14:37:39Z</time>
      </trkpt>
      <trkpt lat="45.01366" lon="6.06529">
        <ele>771</ele>
        <time>2024-08-14T14:37:40Z</time>
      </trkpt>
      <trkpt lat="45.01366" lon="6.06529">
        <ele>771</ele>
        <time>2024-08-14T14:37:41Z</time>
      </trkpt>
      <trkpt lat="45.01366" lon="6.06529">
        <ele>770.8</ele>
        <time>2024-08-14T14:37:42Z</time>
      </trkpt>
      <trkpt lat="45.01366" lon="6.06529">
        <ele>770.6</ele>
        <time>2024-08-14T14:37:43Z</time>
      </trkpt>
      <trkpt lat="45.01366" lon="6.06529">
        <ele>770.6</ele>
        <time>2024-08-14T14:37:44Z</time>
      </trkpt>
      <trkpt lat="45.01366" lon="6.06529">
        <ele>770.8</ele>
        <time>2024-08-14T14:37:45Z</time>
      </trkpt>
      <trkpt lat="45.01366" lon="6.06529">
        <ele>770.6</ele>
        <time>2024-08-14T14:37:46Z</time>
      </trkpt>
      <trkpt lat="45.01366" lon="6.06529">
        <ele>770.6</ele>
        <time>2024-08-14T14:37:47Z</time>
      </trkpt>
      <trkpt lat="45.01366" lon="6.06529">
        <ele>770.4</ele>
        <time>2024-08-14T14:37:48Z</time>
      </trkpt>
      <trkpt lat="45.01366" lon="6.06529">
        <ele>770.6</ele>
        <time>2024-08-14T14:37:49Z</time>
      </trkpt>
      <trkpt lat="45.01366" lon="6.06529">
        <ele>770.6</ele>
        <time>2024-08-14T14:37:50Z</time>
      </trkpt>
      <trkpt lat="45.01366" lon="6.06529">
        <ele>770.8</ele>
        <time>2024-08-14T14:37:51Z</time>
      </trkpt>
      <trkpt lat="45.01366" lon="6.06529">
        <ele>770.8</ele>
        <time>2024-08-14T14:37:52Z</time>
      </trkpt>
      <trkpt lat="45.01366" lon="6.06529">
        <ele>770.8</ele>
        <time>2024-08-14T14:37:53Z</time>
      </trkpt>
      <trkpt lat="45.01366" lon="6.06529">
        <ele>770.6</ele>
        <time>2024-08-14T14:37:54Z</time>
      </trkpt>
      <trkpt lat="45.01366" lon="6.06529">
        <ele>770.6</ele>
        <time>2024-08-14T14:37:55Z</time>
      </trkpt>
      <trkpt lat="45.01366" lon="6.06529">
        <ele>770.8</ele>
        <time>2024-08-14T14:37:56Z</time>
      </trkpt>
      <trkpt lat="45.01366" lon="6.06529">
        <ele>770.8</ele>
        <time>2024-08-14T14:37:57Z</time>
      </trkpt>
      <trkpt lat="45.01366" lon="6.06529">
        <ele>770.6</ele>
        <time>2024-08-14T14:37:58Z</time>
      </trkpt>
      <trkpt lat="45.01368" lon="6.06526">
        <ele>770.6</ele>
        <time>2024-08-14T14:37:59Z</time>
      </trkpt>
      <trkpt lat="45.01369" lon="6.06525">
        <ele>770.4</ele>
        <time>2024-08-14T14:38:00Z</time>
      </trkpt>
      <trkpt lat="45.01371" lon="6.06523">
        <ele>770.4</ele>
        <time>2024-08-14T14:38:01Z</time>
      </trkpt>
      <trkpt lat="45.01371" lon="6.06523">
        <ele>770.2</ele>
        <time>2024-08-14T14:38:02Z</time>
      </trkpt>
      <trkpt lat="45.01375" lon="6.06521">
        <ele>770.2</ele>
        <time>2024-08-14T14:38:03Z</time>
      </trkpt>
      <trkpt lat="45.01376" lon="6.0652">
        <ele>770.2</ele>
        <time>2024-08-14T14:38:04Z</time>
      </trkpt>
      <trkpt lat="45.01378" lon="6.06519">
        <ele>770</ele>
        <time>2024-08-14T14:38:05Z</time>
      </trkpt>
      <trkpt lat="45.01378" lon="6.06519">
        <ele>770</ele>
        <time>2024-08-14T14:38:06Z</time>
      </trkpt>
      <trkpt lat="45.01381" lon="6.06517">
        <ele>769.8</ele>
        <time>2024-08-14T14:38:07Z</time>
      </trkpt>
      <trkpt lat="45.01382" lon="6.06516">
        <ele>769.8</ele>
        <time>2024-08-14T14:38:08Z</time>
      </trkpt>
      <trkpt lat="45.01382" lon="6.06516">
        <ele>769.8</ele>
        <time>2024-08-14T14:38:09Z</time>
      </trkpt>
      <trkpt lat="45.01384" lon="6.06515">
        <ele>769.8</ele>
        <time>2024-08-14T14:38:10Z</time>
      </trkpt>
      <trkpt lat="45.01384" lon="6.06515">
        <ele>769.8</ele>
        <time>2024-08-14T14:38:11Z</time>
      </trkpt>
      <trkpt lat="45.01387" lon="6.06515">
        <ele>769.8</ele>
        <time>2024-08-14T14:38:12Z</time>
      </trkpt>
      <trkpt lat="45.01387" lon="6.06515">
        <ele>769.8</ele>
        <time>2024-08-14T14:38:13Z</time>
      </trkpt>
      <trkpt lat="45.01389" lon="6.06514">
        <ele>769.8</ele>
        <time>2024-08-14T14:38:14Z</time>
      </trkpt>
      <trkpt lat="45.01389" lon="6.06514">
        <ele>769.6</ele>
        <time>2024-08-14T14:38:15Z</time>
      </trkpt>
      <trkpt lat="45.01392" lon="6.06512">
        <ele>769.6</ele>
        <time>2024-08-14T14:38:16Z</time>
      </trkpt>
      <trkpt lat="45.01392" lon="6.06512">
        <ele>769.6</ele>
        <time>2024-08-14T14:38:17Z</time>
      </trkpt>
      <trkpt lat="45.01395" lon="6.06511">
        <ele>769.6</ele>
        <time>2024-08-14T14:38:18Z</time>
      </trkpt>
      <trkpt lat="45.01395" lon="6.06511">
        <ele>769.6</ele>
        <time>2024-08-14T14:38:19Z</time>
      </trkpt>
      <trkpt lat="45.01397" lon="6.0651">
        <ele>769.6</ele>
        <time>2024-08-14T14:38:20Z</time>
      </trkpt>
      <trkpt lat="45.01397" lon="6.0651">
        <ele>769.4</ele>
        <time>2024-08-14T14:38:21Z</time>
      </trkpt>
      <trkpt lat="45.014" lon="6.06508">
        <ele>769.2</ele>
        <time>2024-08-14T14:38:22Z</time>
      </trkpt>
      <trkpt lat="45.014" lon="6.06508">
        <ele>769.2</ele>
        <time>2024-08-14T14:38:23Z</time>
      </trkpt>
      <trkpt lat="45.014" lon="6.06508">
        <ele>769.4</ele>
        <time>2024-08-14T14:38:24Z</time>
      </trkpt>
      <trkpt lat="45.01404" lon="6.06506">
        <ele>769.6</ele>
        <time>2024-08-14T14:38:25Z</time>
      </trkpt>
      <trkpt lat="45.01405" lon="6.06504">
        <ele>769.6</ele>
        <time>2024-08-14T14:38:26Z</time>
      </trkpt>
      <trkpt lat="45.01405" lon="6.06504">
        <ele>769.4</ele>
        <time>2024-08-14T14:38:27Z</time>
      </trkpt>
      <trkpt lat="45.01407" lon="6.06502">
        <ele>769.2</ele>
        <time>2024-08-14T14:38:28Z</time>
      </trkpt>
      <trkpt lat="45.01408" lon="6.06501">
        <ele>769</ele>
        <time>2024-08-14T14:38:29Z</time>
      </trkpt>
      <trkpt lat="45.01408" lon="6.06501">
        <ele>769</ele>
        <time>2024-08-14T14:38:30Z</time>
      </trkpt>
      <trkpt lat="45.01411" lon="6.06499">
        <ele>769</ele>
        <time>2024-08-14T14:38:31Z</time>
      </trkpt>
      <trkpt lat="45.01411" lon="6.06499">
        <ele>769</ele>
        <time>2024-08-14T14:38:32Z</time>
      </trkpt>
      <trkpt lat="45.01413" lon="6.06498">
        <ele>769</ele>
        <time>2024-08-14T14:38:33Z</time>
      </trkpt>
      <trkpt lat="45.01413" lon="6.06498">
        <ele>768.8</ele>
        <time>2024-08-14T14:38:34Z</time>
      </trkpt>
      <trkpt lat="45.01416" lon="6.06497">
        <ele>768.6</ele>
        <time>2024-08-14T14:38:35Z</time>
      </trkpt>
      <trkpt lat="45.01416" lon="6.06497">
        <ele>768.6</ele>
        <time>2024-08-14T14:38:36Z</time>
      </trkpt>
      <trkpt lat="45.01418" lon="6.06495">
        <ele>768.6</ele>
        <time>2024-08-14T14:38:37Z</time>
      </trkpt>
      <trkpt lat="45.01418" lon="6.06495">
        <ele>768.6</ele>
        <time>2024-08-14T14:38:38Z</time>
      </trkpt>
      <trkpt lat="45.01418" lon="6.06495">
        <ele>768.6</ele>
        <time>2024-08-14T14:38:39Z</time>
      </trkpt>
      <trkpt lat="45.01422" lon="6.06493">
        <ele>768.4</ele>
        <time>2024-08-14T14:38:40Z</time>
      </trkpt>
      <trkpt lat="45.01424" lon="6.06493">
        <ele>768.4</ele>
        <time>2024-08-14T14:38:41Z</time>
      </trkpt>
      <trkpt lat="45.01424" lon="6.06493">
        <ele>768.4</ele>
        <time>2024-08-14T14:38:42Z</time>
      </trkpt>
      <trkpt lat="45.01424" lon="6.06493">
        <ele>768.4</ele>
        <time>2024-08-14T14:38:43Z</time>
      </trkpt>
      <trkpt lat="45.01428" lon="6.06491">
        <ele>768.4</ele>
        <time>2024-08-14T14:38:44Z</time>
      </trkpt>
      <trkpt lat="45.01429" lon="6.06491">
        <ele>768.4</ele>
        <time>2024-08-14T14:38:45Z</time>
      </trkpt>
      <trkpt lat="45.01429" lon="6.06491">
        <ele>768.4</ele>
        <time>2024-08-14T14:38:46Z</time>
      </trkpt>
      <trkpt lat="45.01432" lon="6.06489">
        <ele>768.4</ele>
        <time>2024-08-14T14:38:47Z</time>
      </trkpt>
      <trkpt lat="45.01432" lon="6.06489">
        <ele>768.4</ele>
        <time>2024-08-14T14:38:48Z</time>
      </trkpt>
      <trkpt lat="45.01436" lon="6.06489">
        <ele>768.4</ele>
        <time>2024-08-14T14:38:49Z</time>
      </trkpt>
      <trkpt lat="45.01436" lon="6.06489">
        <ele>768.2</ele>
        <time>2024-08-14T14:38:50Z</time>
      </trkpt>
      <trkpt lat="45.01438" lon="6.06488">
        <ele>768.2</ele>
        <time>2024-08-14T14:38:51Z</time>
      </trkpt>
      <trkpt lat="45.01438" lon="6.06488">
        <ele>768</ele>
        <time>2024-08-14T14:38:52Z</time>
      </trkpt>
      <trkpt lat="45.01441" lon="6.06487">
        <ele>768</ele>
        <time>2024-08-14T14:38:53Z</time>
      </trkpt>
      <trkpt lat="45.01441" lon="6.06487">
        <ele>768</ele>
        <time>2024-08-14T14:38:54Z</time>
      </trkpt>
      <trkpt lat="45.01444" lon="6.06485">
        <ele>767.8</ele>
        <time>2024-08-14T14:38:55Z</time>
      </trkpt>
      <trkpt lat="45.01444" lon="6.06485">
        <ele>767.8</ele>
        <time>2024-08-14T14:38:56Z</time>
      </trkpt>
      <trkpt lat="45.01446" lon="6.06484">
        <ele>767.8</ele>
        <time>2024-08-14T14:38:57Z</time>
      </trkpt>
      <trkpt lat="45.01446" lon="6.06484">
        <ele>767.6</ele>
        <time>2024-08-14T14:38:58Z</time>
      </trkpt>
      <trkpt lat="45.01448" lon="6.06482">
        <ele>767.6</ele>
        <time>2024-08-14T14:38:59Z</time>
      </trkpt>
      <trkpt lat="45.01448" lon="6.06482">
        <ele>767.6</ele>
        <time>2024-08-14T14:39:00Z</time>
      </trkpt>
      <trkpt lat="45.01452" lon="6.06481">
        <ele>767.6</ele>
        <time>2024-08-14T14:39:01Z</time>
      </trkpt>
      <trkpt lat="45.01452" lon="6.06481">
        <ele>767.4</ele>
        <time>2024-08-14T14:39:02Z</time>
      </trkpt>
      <trkpt lat="45.01454" lon="6.0648">
        <ele>767.6</ele>
        <time>2024-08-14T14:39:03Z</time>
      </trkpt>
      <trkpt lat="45.01454" lon="6.0648">
        <ele>767.6</ele>
        <time>2024-08-14T14:39:04Z</time>
      </trkpt>
      <trkpt lat="45.01456" lon="6.06478">
        <ele>767.6</ele>
        <time>2024-08-14T14:39:05Z</time>
      </trkpt>
      <trkpt lat="45.01456" lon="6.06478">
        <ele>767.4</ele>
        <time>2024-08-14T14:39:06Z</time>
      </trkpt>
      <trkpt lat="45.0146" lon="6.06477">
        <ele>767.4</ele>
        <time>2024-08-14T14:39:07Z</time>
      </trkpt>
      <trkpt lat="45.0146" lon="6.06477">
        <ele>767.4</ele>
        <time>2024-08-14T14:39:08Z</time>
      </trkpt>
      <trkpt lat="45.01462" lon="6.06476">
        <ele>767.4</ele>
        <time>2024-08-14T14:39:09Z</time>
      </trkpt>
      <trkpt lat="45.01462" lon="6.06476">
        <ele>767.2</ele>
        <time>2024-08-14T14:39:10Z</time>
      </trkpt>
      <trkpt lat="45.01465" lon="6.06475">
        <ele>767.2</ele>
        <time>2024-08-14T14:39:11Z</time>
      </trkpt>
      <trkpt lat="45.01465" lon="6.06475">
        <ele>767.2</ele>
        <time>2024-08-14T14:39:12Z</time>
      </trkpt>
      <trkpt lat="45.01468" lon="6.06475">
        <ele>767.2</ele>
        <time>2024-08-14T14:39:13Z</time>
      </trkpt>
      <trkpt lat="45.01468" lon="6.06475">
        <ele>767</ele>
        <time>2024-08-14T14:39:14Z</time>
      </trkpt>
      <trkpt lat="45.01471" lon="6.06475">
        <ele>767</ele>
        <time>2024-08-14T14:39:15Z</time>
      </trkpt>
      <trkpt lat="45.01471" lon="6.06475">
        <ele>767</ele>
        <time>2024-08-14T14:39:16Z</time>
      </trkpt>
      <trkpt lat="45.01474" lon="6.06474">
        <ele>767.2</ele>
        <time>2024-08-14T14:39:17Z</time>
      </trkpt>
      <trkpt lat="45.01474" lon="6.06474">
        <ele>767.2</ele>
        <time>2024-08-14T14:39:18Z</time>
      </trkpt>
      <trkpt lat="45.01477" lon="6.06474">
        <ele>767.2</ele>
        <time>2024-08-14T14:39:19Z</time>
      </trkpt>
      <trkpt lat="45.01477" lon="6.06474">
        <ele>766.8</ele>
        <time>2024-08-14T14:39:20Z</time>
      </trkpt>
      <trkpt lat="45.01479" lon="6.06474">
        <ele>766.8</ele>
        <time>2024-08-14T14:39:21Z</time>
      </trkpt>
      <trkpt lat="45.01479" lon="6.06474">
        <ele>766.8</ele>
        <time>2024-08-14T14:39:22Z</time>
      </trkpt>
      <trkpt lat="45.01479" lon="6.06474">
        <ele>766.8</ele>
        <time>2024-08-14T14:39:23Z</time>
      </trkpt>
      <trkpt lat="45.01484" lon="6.06474">
        <ele>766.8</ele>
        <time>2024-08-14T14:39:24Z</time>
      </trkpt>
      <trkpt lat="45.01486" lon="6.06474">
        <ele>766.8</ele>
        <time>2024-08-14T14:39:25Z</time>
      </trkpt>
      <trkpt lat="45.01486" lon="6.06474">
        <ele>766.6</ele>
        <time>2024-08-14T14:39:26Z</time>
      </trkpt>
      <trkpt lat="45.0149" lon="6.06473">
        <ele>766.6</ele>
        <time>2024-08-14T14:39:27Z</time>
      </trkpt>
      <trkpt lat="45.0149" lon="6.06473">
        <ele>766.6</ele>
        <time>2024-08-14T14:39:28Z</time>
      </trkpt>
      <trkpt lat="45.01493" lon="6.06474">
        <ele>766.6</ele>
        <time>2024-08-14T14:39:29Z</time>
      </trkpt>
      <trkpt lat="45.01493" lon="6.06474">
        <ele>766.6</ele>
        <time>2024-08-14T14:39:30Z</time>
      </trkpt>
      <trkpt lat="45.01496" lon="6.06474">
        <ele>766.6</ele>
        <time>2024-08-14T14:39:31Z</time>
      </trkpt>
      <trkpt lat="45.01496" lon="6.06474">
        <ele>766.6</ele>
        <time>2024-08-14T14:39:32Z</time>
      </trkpt>
      <trkpt lat="45.01499" lon="6.06475">
        <ele>766.6</ele>
        <time>2024-08-14T14:39:33Z</time>
      </trkpt>
      <trkpt lat="45.01499" lon="6.06475">
        <ele>766.6</ele>
        <time>2024-08-14T14:39:34Z</time>
      </trkpt>
      <trkpt lat="45.01499" lon="6.06475">
        <ele>766.6</ele>
        <time>2024-08-14T14:39:35Z</time>
      </trkpt>
      <trkpt lat="45.01503" lon="6.06477">
        <ele>766.6</ele>
        <time>2024-08-14T14:39:36Z</time>
      </trkpt>
      <trkpt lat="45.01504" lon="6.06477">
        <ele>766.6</ele>
        <time>2024-08-14T14:39:37Z</time>
      </trkpt>
      <trkpt lat="45.01504" lon="6.06477">
        <ele>766.4</ele>
        <time>2024-08-14T14:39:38Z</time>
      </trkpt>
      <trkpt lat="45.01507" lon="6.06478">
        <ele>766.4</ele>
        <time>2024-08-14T14:39:39Z</time>
      </trkpt>
      <trkpt lat="45.01507" lon="6.06478">
        <ele>766.2</ele>
        <time>2024-08-14T14:39:40Z</time>
      </trkpt>
      <trkpt lat="45.0151" lon="6.06478">
        <ele>766.2</ele>
        <time>2024-08-14T14:39:41Z</time>
      </trkpt>
      <trkpt lat="45.0151" lon="6.06478">
        <ele>766.2</ele>
        <time>2024-08-14T14:39:42Z</time>
      </trkpt>
      <trkpt lat="45.01514" lon="6.06479">
        <ele>766.4</ele>
        <time>2024-08-14T14:39:43Z</time>
      </trkpt>
      <trkpt lat="45.01514" lon="6.06479">
        <ele>766.6</ele>
        <time>2024-08-14T14:39:44Z</time>
      </trkpt>
      <trkpt lat="45.01517" lon="6.06479">
        <ele>766.6</ele>
        <time>2024-08-14T14:39:45Z</time>
      </trkpt>
      <trkpt lat="45.01518" lon="6.06479">
        <ele>766.8</ele>
        <time>2024-08-14T14:39:46Z</time>
      </trkpt>
      <trkpt lat="45.01518" lon="6.06479">
        <ele>766.8</ele>
        <time>2024-08-14T14:39:47Z</time>
      </trkpt>
      <trkpt lat="45.01521" lon="6.06478">
        <ele>766.8</ele>
        <time>2024-08-14T14:39:48Z</time>
      </trkpt>
      <trkpt lat="45.01521" lon="6.06478">
        <ele>766.8</ele>
        <time>2024-08-14T14:39:49Z</time>
      </trkpt>
      <trkpt lat="45.01524" lon="6.06479">
        <ele>766.4</ele>
        <time>2024-08-14T14:39:50Z</time>
      </trkpt>
      <trkpt lat="45.01524" lon="6.06479">
        <ele>766.4</ele>
        <time>2024-08-14T14:39:51Z</time>
      </trkpt>
      <trkpt lat="45.01527" lon="6.06479">
        <ele>766.4</ele>
        <time>2024-08-14T14:39:52Z</time>
      </trkpt>
      <trkpt lat="45.01527" lon="6.06479">
        <ele>766.4</ele>
        <time>2024-08-14T14:39:53Z</time>
      </trkpt>
      <trkpt lat="45.01529" lon="6.0648">
        <ele>766.4</ele>
        <time>2024-08-14T14:39:54Z</time>
      </trkpt>
      <trkpt lat="45.01529" lon="6.0648">
        <ele>766.2</ele>
        <time>2024-08-14T14:39:55Z</time>
      </trkpt>
      <trkpt lat="45.01532" lon="6.06481">
        <ele>766.2</ele>
        <time>2024-08-14T14:39:56Z</time>
      </trkpt>
      <trkpt lat="45.01532" lon="6.06481">
        <ele>766.2</ele>
        <time>2024-08-14T14:39:57Z</time>
      </trkpt>
      <trkpt lat="45.01532" lon="6.06481">
        <ele>766.2</ele>
        <time>2024-08-14T14:39:58Z</time>
      </trkpt>
      <trkpt lat="45.01536" lon="6.06482">
        <ele>766.2</ele>
        <time>2024-08-14T14:39:59Z</time>
      </trkpt>
      <trkpt lat="45.01537" lon="6.06482">
        <ele>766.2</ele>
        <time>2024-08-14T14:40:00Z</time>
      </trkpt>
      <trkpt lat="45.01537" lon="6.06482">
        <ele>766.2</ele>
        <time>2024-08-14T14:40:01Z</time>
      </trkpt>
      <trkpt lat="45.0154" lon="6.06483">
        <ele>766</ele>
        <time>2024-08-14T14:40:02Z</time>
      </trkpt>
      <trkpt lat="45.0154" lon="6.06483">
        <ele>766</ele>
        <time>2024-08-14T14:40:03Z</time>
      </trkpt>
      <trkpt lat="45.0154" lon="6.06483">
        <ele>766</ele>
        <time>2024-08-14T14:40:04Z</time>
      </trkpt>
      <trkpt lat="45.01544" lon="6.06484">
        <ele>766</ele>
        <time>2024-08-14T14:40:05Z</time>
      </trkpt>
      <trkpt lat="45.01546" lon="6.06484">
        <ele>766</ele>
        <time>2024-08-14T14:40:06Z</time>
      </trkpt>
      <trkpt lat="45.01546" lon="6.06484">
        <ele>766</ele>
        <time>2024-08-14T14:40:07Z</time>
      </trkpt>
      <trkpt lat="45.01546" lon="6.06484">
        <ele>766</ele>
        <time>2024-08-14T14:40:08Z</time>
      </trkpt>
      <trkpt lat="45.0155" lon="6.06484">
        <ele>766.2</ele>
        <time>2024-08-14T14:40:09Z</time>
      </trkpt>
      <trkpt lat="45.01551" lon="6.06484">
        <ele>766.2</ele>
        <time>2024-08-14T14:40:10Z</time>
      </trkpt>
      <trkpt lat="45.01551" lon="6.06484">
        <ele>766.2</ele>
        <time>2024-08-14T14:40:11Z</time>
      </trkpt>
      <trkpt lat="45.01551" lon="6.06484">
        <ele>766</ele>
        <time>2024-08-14T14:40:12Z</time>
      </trkpt>
      <trkpt lat="45.01556" lon="6.06483">
        <ele>766</ele>
        <time>2024-08-14T14:40:13Z</time>
      </trkpt>
      <trkpt lat="45.01557" lon="6.06483">
        <ele>766</ele>
        <time>2024-08-14T14:40:14Z</time>
      </trkpt>
      <trkpt lat="45.01557" lon="6.06483">
        <ele>766</ele>
        <time>2024-08-14T14:40:15Z</time>
      </trkpt>
      <trkpt lat="45.0156" lon="6.06484">
        <ele>766</ele>
        <time>2024-08-14T14:40:16Z</time>
      </trkpt>
      <trkpt lat="45.01562" lon="6.06484">
        <ele>766.4</ele>
        <time>2024-08-14T14:40:17Z</time>
      </trkpt>
      <trkpt lat="45.01563" lon="6.06484">
        <ele>766.4</ele>
        <time>2024-08-14T14:40:18Z</time>
      </trkpt>
      <trkpt lat="45.01565" lon="6.06485">
        <ele>766.4</ele>
        <time>2024-08-14T14:40:19Z</time>
      </trkpt>
      <trkpt lat="45.01565" lon="6.06485">
        <ele>766.2</ele>
        <time>2024-08-14T14:40:20Z</time>
      </trkpt>
      <trkpt lat="45.01568" lon="6.06484">
        <ele>766.2</ele>
        <time>2024-08-14T14:40:21Z</time>
      </trkpt>
      <trkpt lat="45.01568" lon="6.06484">
        <ele>766</ele>
        <time>2024-08-14T14:40:22Z</time>
      </trkpt>
      <trkpt lat="45.01571" lon="6.06485">
        <ele>766</ele>
        <time>2024-08-14T14:40:23Z</time>
      </trkpt>
      <trkpt lat="45.01571" lon="6.06485">
        <ele>765.8</ele>
        <time>2024-08-14T14:40:24Z</time>
      </trkpt>
      <trkpt lat="45.01571" lon="6.06485">
        <ele>765.8</ele>
        <time>2024-08-14T14:40:25Z</time>
      </trkpt>
      <trkpt lat="45.01575" lon="6.06485">
        <ele>765.8</ele>
        <time>2024-08-14T14:40:26Z</time>
      </trkpt>
      <trkpt lat="45.01576" lon="6.06485">
        <ele>765.6</ele>
        <time>2024-08-14T14:40:27Z</time>
      </trkpt>
      <trkpt lat="45.01576" lon="6.06485">
        <ele>765.6</ele>
        <time>2024-08-14T14:40:28Z</time>
      </trkpt>
      <trkpt lat="45.01579" lon="6.06486">
        <ele>765.6</ele>
        <time>2024-08-14T14:40:29Z</time>
      </trkpt>
      <trkpt lat="45.01579" lon="6.06486">
        <ele>765.6</ele>
        <time>2024-08-14T14:40:30Z</time>
      </trkpt>
      <trkpt lat="45.01581" lon="6.06486">
        <ele>765.6</ele>
        <time>2024-08-14T14:40:31Z</time>
      </trkpt>
      <trkpt lat="45.01581" lon="6.06486">
        <ele>765.6</ele>
        <time>2024-08-14T14:40:32Z</time>
      </trkpt>
      <trkpt lat="45.01585" lon="6.06487">
        <ele>765.6</ele>
        <time>2024-08-14T14:40:33Z</time>
      </trkpt>
      <trkpt lat="45.01587" lon="6.06488">
        <ele>765.6</ele>
        <time>2024-08-14T14:40:34Z</time>
      </trkpt>
      <trkpt lat="45.01587" lon="6.06488">
        <ele>765.4</ele>
        <time>2024-08-14T14:40:35Z</time>
      </trkpt>
      <trkpt lat="45.01587" lon="6.06488">
        <ele>765.4</ele>
        <time>2024-08-14T14:40:36Z</time>
      </trkpt>
      <trkpt lat="45.0159" lon="6.06489">
        <ele>765.4</ele>
        <time>2024-08-14T14:40:37Z</time>
      </trkpt>
      <trkpt lat="45.01591" lon="6.0649">
        <ele>765.4</ele>
        <time>2024-08-14T14:40:38Z</time>
      </trkpt>
      <trkpt lat="45.01591" lon="6.0649">
        <ele>765.4</ele>
        <time>2024-08-14T14:40:39Z</time>
      </trkpt>
      <trkpt lat="45.01591" lon="6.0649">
        <ele>765.4</ele>
        <time>2024-08-14T14:40:40Z</time>
      </trkpt>
      <trkpt lat="45.01596" lon="6.06489">
        <ele>765.4</ele>
        <time>2024-08-14T14:40:41Z</time>
      </trkpt>
      <trkpt lat="45.01597" lon="6.06489">
        <ele>765.4</ele>
        <time>2024-08-14T14:40:42Z</time>
      </trkpt>
      <trkpt lat="45.01597" lon="6.06489">
        <ele>765.4</ele>
        <time>2024-08-14T14:40:43Z</time>
      </trkpt>
      <trkpt lat="45.01597" lon="6.06489">
        <ele>765.4</ele>
        <time>2024-08-14T14:40:44Z</time>
      </trkpt>
      <trkpt lat="45.01602" lon="6.06488">
        <ele>765.4</ele>
        <time>2024-08-14T14:40:45Z</time>
      </trkpt>
      <trkpt lat="45.01603" lon="6.06488">
        <ele>765.4</ele>
        <time>2024-08-14T14:40:46Z</time>
      </trkpt>
      <trkpt lat="45.01603" lon="6.06488">
        <ele>765.4</ele>
        <time>2024-08-14T14:40:47Z</time>
      </trkpt>
      <trkpt lat="45.01606" lon="6.06488">
        <ele>765.4</ele>
        <time>2024-08-14T14:40:48Z</time>
      </trkpt>
      <trkpt lat="45.01606" lon="6.06488">
        <ele>765.2</ele>
        <time>2024-08-14T14:40:49Z</time>
      </trkpt>
      <trkpt lat="45.01609" lon="6.06489">
        <ele>765.2</ele>
        <time>2024-08-14T14:40:50Z</time>
      </trkpt>
      <trkpt lat="45.01609" lon="6.06489">
        <ele>765.4</ele>
        <time>2024-08-14T14:40:51Z</time>
      </trkpt>
      <trkpt lat="45.01612" lon="6.06489">
        <ele>765.4</ele>
        <time>2024-08-14T14:40:52Z</time>
      </trkpt>
      <trkpt lat="45.01612" lon="6.06489">
        <ele>765.4</ele>
        <time>2024-08-14T14:40:53Z</time>
      </trkpt>
      <trkpt lat="45.01614" lon="6.06489">
        <ele>765.4</ele>
        <time>2024-08-14T14:40:54Z</time>
      </trkpt>
      <trkpt lat="45.01614" lon="6.06489">
        <ele>765.2</ele>
        <time>2024-08-14T14:40:55Z</time>
      </trkpt>
      <trkpt lat="45.01614" lon="6.06489">
        <ele>765.2</ele>
        <time>2024-08-14T14:40:56Z</time>
      </trkpt>
      <trkpt lat="45.01618" lon="6.06488">
        <ele>765.4</ele>
        <time>2024-08-14T14:40:57Z</time>
      </trkpt>
      <trkpt lat="45.0162" lon="6.06488">
        <ele>765.4</ele>
        <time>2024-08-14T14:40:58Z</time>
      </trkpt>
      <trkpt lat="45.01622" lon="6.06488">
        <ele>765.4</ele>
        <time>2024-08-14T14:40:59Z</time>
      </trkpt>
      <trkpt lat="45.01624" lon="6.06488">
        <ele>765.4</ele>
        <time>2024-08-14T14:41:00Z</time>
      </trkpt>
      <trkpt lat="45.01624" lon="6.06488">
        <ele>765.4</ele>
        <time>2024-08-14T14:41:01Z</time>
      </trkpt>
      <trkpt lat="45.01627" lon="6.06487">
        <ele>765.4</ele>
        <time>2024-08-14T14:41:02Z</time>
      </trkpt>
      <trkpt lat="45.01627" lon="6.06487">
        <ele>765.4</ele>
        <time>2024-08-14T14:41:03Z</time>
      </trkpt>
      <trkpt lat="45.0163" lon="6.06487">
        <ele>765.4</ele>
        <time>2024-08-14T14:41:04Z</time>
      </trkpt>
      <trkpt lat="45.01632" lon="6.06487">
        <ele>765.2</ele>
        <time>2024-08-14T14:41:05Z</time>
      </trkpt>
      <trkpt lat="45.01632" lon="6.06487">
        <ele>765.2</ele>
        <time>2024-08-14T14:41:06Z</time>
      </trkpt>
      <trkpt lat="45.01634" lon="6.06488">
        <ele>765.2</ele>
        <time>2024-08-14T14:41:07Z</time>
      </trkpt>
      <trkpt lat="45.01634" lon="6.06488">
        <ele>765.2</ele>
        <time>2024-08-14T14:41:08Z</time>
      </trkpt>
      <trkpt lat="45.01637" lon="6.06488">
        <ele>765.2</ele>
        <time>2024-08-14T14:41:09Z</time>
      </trkpt>
      <trkpt lat="45.01637" lon="6.06488">
        <ele>765.2</ele>
        <time>2024-08-14T14:41:10Z</time>
      </trkpt>
      <trkpt lat="45.01637" lon="6.06488">
        <ele>765.4</ele>
        <time>2024-08-14T14:41:11Z</time>
      </trkpt>
      <trkpt lat="45.01642" lon="6.06489">
        <ele>765.4</ele>
        <time>2024-08-14T14:41:12Z</time>
      </trkpt>
      <trkpt lat="45.01643" lon="6.0649">
        <ele>765.4</ele>
        <time>2024-08-14T14:41:13Z</time>
      </trkpt>
      <trkpt lat="45.01643" lon="6.0649">
        <ele>765.4</ele>
        <time>2024-08-14T14:41:14Z</time>
      </trkpt>
      <trkpt lat="45.01643" lon="6.0649">
        <ele>765.6</ele>
        <time>2024-08-14T14:41:15Z</time>
      </trkpt>
      <trkpt lat="45.01648" lon="6.06491">
        <ele>765.6</ele>
        <time>2024-08-14T14:41:16Z</time>
      </trkpt>
      <trkpt lat="45.01648" lon="6.06491">
        <ele>765.4</ele>
        <time>2024-08-14T14:41:17Z</time>
      </trkpt>
      <trkpt lat="45.01651" lon="6.06491">
        <ele>765.4</ele>
        <time>2024-08-14T14:41:18Z</time>
      </trkpt>
      <trkpt lat="45.01653" lon="6.06491">
        <ele>765.6</ele>
        <time>2024-08-14T14:41:19Z</time>
      </trkpt>
      <trkpt lat="45.01654" lon="6.06492">
        <ele>765.6</ele>
        <time>2024-08-14T14:41:20Z</time>
      </trkpt>
      <trkpt lat="45.01656" lon="6.06492">
        <ele>765.6</ele>
        <time>2024-08-14T14:41:21Z</time>
      </trkpt>
      <trkpt lat="45.01656" lon="6.06492">
        <ele>765.6</ele>
        <time>2024-08-14T14:41:22Z</time>
      </trkpt>
      <trkpt lat="45.01656" lon="6.06492">
        <ele>765.6</ele>
        <time>2024-08-14T14:41:23Z</time>
      </trkpt>
      <trkpt lat="45.01661" lon="6.06493">
        <ele>765.6</ele>
        <time>2024-08-14T14:41:24Z</time>
      </trkpt>
      <trkpt lat="45.01663" lon="6.06493">
        <ele>765.6</ele>
        <time>2024-08-14T14:41:25Z</time>
      </trkpt>
      <trkpt lat="45.01663" lon="6.06493">
        <ele>765.6</ele>
        <time>2024-08-14T14:41:26Z</time>
      </trkpt>
      <trkpt lat="45.01663" lon="6.06493">
        <ele>765.4</ele>
        <time>2024-08-14T14:41:27Z</time>
      </trkpt>
      <trkpt lat="45.01667" lon="6.06494">
        <ele>765.4</ele>
        <time>2024-08-14T14:41:28Z</time>
      </trkpt>
      <trkpt lat="45.01669" lon="6.06494">
        <ele>765.6</ele>
        <time>2024-08-14T14:41:29Z</time>
      </trkpt>
      <trkpt lat="45.01669" lon="6.06494">
        <ele>765.6</ele>
        <time>2024-08-14T14:41:30Z</time>
      </trkpt>
      <trkpt lat="45.01669" lon="6.06494">
        <ele>765.6</ele>
        <time>2024-08-14T14:41:31Z</time>
      </trkpt>
      <trkpt lat="45.01673" lon="6.06495">
        <ele>765.8</ele>
        <time>2024-08-14T14:41:32Z</time>
      </trkpt>
      <trkpt lat="45.01675" lon="6.06495">
        <ele>765.8</ele>
        <time>2024-08-14T14:41:33Z</time>
      </trkpt>
      <trkpt lat="45.01675" lon="6.06495">
        <ele>765.8</ele>
        <time>2024-08-14T14:41:34Z</time>
      </trkpt>
      <trkpt lat="45.01675" lon="6.06495">
        <ele>765.8</ele>
        <time>2024-08-14T14:41:35Z</time>
      </trkpt>
      <trkpt lat="45.01678" lon="6.06496">
        <ele>765.8</ele>
        <time>2024-08-14T14:41:36Z</time>
      </trkpt>
      <trkpt lat="45.0168" lon="6.06496">
        <ele>765.8</ele>
        <time>2024-08-14T14:41:37Z</time>
      </trkpt>
      <trkpt lat="45.0168" lon="6.06496">
        <ele>765.8</ele>
        <time>2024-08-14T14:41:38Z</time>
      </trkpt>
      <trkpt lat="45.01683" lon="6.06497">
        <ele>765.8</ele>
        <time>2024-08-14T14:41:39Z</time>
      </trkpt>
      <trkpt lat="45.01683" lon="6.06497">
        <ele>765.4</ele>
        <time>2024-08-14T14:41:40Z</time>
      </trkpt>
      <trkpt lat="45.01685" lon="6.06498">
        <ele>765.4</ele>
        <time>2024-08-14T14:41:41Z</time>
      </trkpt>
      <trkpt lat="45.01685" lon="6.06498">
        <ele>765.4</ele>
        <time>2024-08-14T14:41:42Z</time>
      </trkpt>
      <trkpt lat="45.01688" lon="6.06499">
        <ele>765.4</ele>
        <time>2024-08-14T14:41:43Z</time>
      </trkpt>
      <trkpt lat="45.01688" lon="6.06499">
        <ele>765.4</ele>
        <time>2024-08-14T14:41:44Z</time>
      </trkpt>
      <trkpt lat="45.01692" lon="6.065">
        <ele>765.4</ele>
        <time>2024-08-14T14:41:45Z</time>
      </trkpt>
      <trkpt lat="45.01692" lon="6.065">
        <ele>765.6</ele>
        <time>2024-08-14T14:41:46Z</time>
      </trkpt>
      <trkpt lat="45.01694" lon="6.06501">
        <ele>765.6</ele>
        <time>2024-08-14T14:41:47Z</time>
      </trkpt>
      <trkpt lat="45.01694" lon="6.06501">
        <ele>765.6</ele>
        <time>2024-08-14T14:41:48Z</time>
      </trkpt>
      <trkpt lat="45.01697" lon="6.06502">
        <ele>765.6</ele>
        <time>2024-08-14T14:41:49Z</time>
      </trkpt>
      <trkpt lat="45.01697" lon="6.06502">
        <ele>765.6</ele>
        <time>2024-08-14T14:41:50Z</time>
      </trkpt>
      <trkpt lat="45.017" lon="6.06504">
        <ele>765.6</ele>
        <time>2024-08-14T14:41:51Z</time>
      </trkpt>
      <trkpt lat="45.017" lon="6.06504">
        <ele>765.8</ele>
        <time>2024-08-14T14:41:52Z</time>
      </trkpt>
      <trkpt lat="45.01702" lon="6.06505">
        <ele>765.8</ele>
        <time>2024-08-14T14:41:53Z</time>
      </trkpt>
      <trkpt lat="45.01702" lon="6.06505">
        <ele>765.8</ele>
        <time>2024-08-14T14:41:54Z</time>
      </trkpt>
      <trkpt lat="45.01704" lon="6.06508">
        <ele>765.8</ele>
        <time>2024-08-14T14:41:55Z</time>
      </trkpt>
      <trkpt lat="45.01704" lon="6.06508">
        <ele>766</ele>
        <time>2024-08-14T14:41:56Z</time>
      </trkpt>
      <trkpt lat="45.01707" lon="6.0651">
        <ele>766</ele>
        <time>2024-08-14T14:41:57Z</time>
      </trkpt>
      <trkpt lat="45.01707" lon="6.0651">
        <ele>766</ele>
        <time>2024-08-14T14:41:58Z</time>
      </trkpt>
      <trkpt lat="45.01707" lon="6.0651">
        <ele>766</ele>
        <time>2024-08-14T14:41:59Z</time>
      </trkpt>
      <trkpt lat="45.01712" lon="6.06512">
        <ele>766.2</ele>
        <time>2024-08-14T14:42:00Z</time>
      </trkpt>
      <trkpt lat="45.01713" lon="6.06512">
        <ele>766</ele>
        <time>2024-08-14T14:42:01Z</time>
      </trkpt>
      <trkpt lat="45.01713" lon="6.06512">
        <ele>766</ele>
        <time>2024-08-14T14:42:02Z</time>
      </trkpt>
      <trkpt lat="45.01716" lon="6.06514">
        <ele>766</ele>
        <time>2024-08-14T14:42:03Z</time>
      </trkpt>
      <trkpt lat="45.01716" lon="6.06514">
        <ele>766.2</ele>
        <time>2024-08-14T14:42:04Z</time>
      </trkpt>
      <trkpt lat="45.01719" lon="6.06515">
        <ele>766.2</ele>
        <time>2024-08-14T14:42:05Z</time>
      </trkpt>
      <trkpt lat="45.01719" lon="6.06515">
        <ele>766.2</ele>
        <time>2024-08-14T14:42:06Z</time>
      </trkpt>
      <trkpt lat="45.01722" lon="6.06516">
        <ele>766.4</ele>
        <time>2024-08-14T14:42:07Z</time>
      </trkpt>
      <trkpt lat="45.01722" lon="6.06516">
        <ele>766.4</ele>
        <time>2024-08-14T14:42:08Z</time>
      </trkpt>
      <trkpt lat="45.01725" lon="6.06517">
        <ele>766.4</ele>
        <time>2024-08-14T14:42:09Z</time>
      </trkpt>
      <trkpt lat="45.01725" lon="6.06517">
        <ele>766.4</ele>
        <time>2024-08-14T14:42:10Z</time>
      </trkpt>
      <trkpt lat="45.01726" lon="6.06519">
        <ele>766.4</ele>
        <time>2024-08-14T14:42:11Z</time>
      </trkpt>
      <trkpt lat="45.01726" lon="6.06519">
        <ele>766.4</ele>
        <time>2024-08-14T14:42:12Z</time>
      </trkpt>
      <trkpt lat="45.01729" lon="6.0652">
        <ele>766.4</ele>
        <time>2024-08-14T14:42:13Z</time>
      </trkpt>
      <trkpt lat="45.01729" lon="6.0652">
        <ele>766.4</ele>
        <time>2024-08-14T14:42:14Z</time>
      </trkpt>
      <trkpt lat="45.01732" lon="6.0652">
        <ele>766.4</ele>
        <time>2024-08-14T14:42:15Z</time>
      </trkpt>
      <trkpt lat="45.01732" lon="6.0652">
        <ele>766.4</ele>
        <time>2024-08-14T14:42:16Z</time>
      </trkpt>
      <trkpt lat="45.01734" lon="6.06522">
        <ele>766.4</ele>
        <time>2024-08-14T14:42:17Z</time>
      </trkpt>
      <trkpt lat="45.01734" lon="6.06522">
        <ele>766.4</ele>
        <time>2024-08-14T14:42:18Z</time>
      </trkpt>
      <trkpt lat="45.01737" lon="6.06524">
        <ele>766.4</ele>
        <time>2024-08-14T14:42:19Z</time>
      </trkpt>
      <trkpt lat="45.01737" lon="6.06524">
        <ele>766.4</ele>
        <time>2024-08-14T14:42:20Z</time>
      </trkpt>
      <trkpt lat="45.0174" lon="6.06525">
        <ele>766.4</ele>
        <time>2024-08-14T14:42:21Z</time>
      </trkpt>
      <trkpt lat="45.01742" lon="6.06527">
        <ele>766.4</ele>
        <time>2024-08-14T14:42:22Z</time>
      </trkpt>
      <trkpt lat="45.01742" lon="6.06527">
        <ele>766.4</ele>
        <time>2024-08-14T14:42:23Z</time>
      </trkpt>
      <trkpt lat="45.01745" lon="6.06528">
        <ele>766.4</ele>
        <time>2024-08-14T14:42:24Z</time>
      </trkpt>
      <trkpt lat="45.01745" lon="6.06528">
        <ele>766.4</ele>
        <time>2024-08-14T14:42:25Z</time>
      </trkpt>
      <trkpt lat="45.01748" lon="6.06529">
        <ele>766.8</ele>
        <time>2024-08-14T14:42:26Z</time>
      </trkpt>
      <trkpt lat="45.01748" lon="6.06529">
        <ele>766.8</ele>
        <time>2024-08-14T14:42:27Z</time>
      </trkpt>
      <trkpt lat="45.01748" lon="6.06529">
        <ele>766.8</ele>
        <time>2024-08-14T14:42:28Z</time>
      </trkpt>
      <trkpt lat="45.01752" lon="6.06531">
        <ele>766.8</ele>
        <time>2024-08-14T14:42:29Z</time>
      </trkpt>
      <trkpt lat="45.01753" lon="6.06531">
        <ele>766.8</ele>
        <time>2024-08-14T14:42:30Z</time>
      </trkpt>
      <trkpt lat="45.01753" lon="6.06531">
        <ele>766.8</ele>
        <time>2024-08-14T14:42:31Z</time>
      </trkpt>
      <trkpt lat="45.01756" lon="6.06533">
        <ele>766.4</ele>
        <time>2024-08-14T14:42:32Z</time>
      </trkpt>
      <trkpt lat="45.01757" lon="6.06535">
        <ele>766.4</ele>
        <time>2024-08-14T14:42:33Z</time>
      </trkpt>
      <trkpt lat="45.01757" lon="6.06535">
        <ele>766.4</ele>
        <time>2024-08-14T14:42:34Z</time>
      </trkpt>
      <trkpt lat="45.01761" lon="6.06536">
        <ele>766.4</ele>
        <time>2024-08-14T14:42:35Z</time>
      </trkpt>
      <trkpt lat="45.01761" lon="6.06536">
        <ele>766.4</ele>
        <time>2024-08-14T14:42:36Z</time>
      </trkpt>
      <trkpt lat="45.01764" lon="6.06537">
        <ele>766.2</ele>
        <time>2024-08-14T14:42:37Z</time>
      </trkpt>
      <trkpt lat="45.01764" lon="6.06537">
        <ele>766.2</ele>
        <time>2024-08-14T14:42:38Z</time>
      </trkpt>
      <trkpt lat="45.01766" lon="6.06539">
        <ele>766</ele>
        <time>2024-08-14T14:42:39Z</time>
      </trkpt>
      <trkpt lat="45.01766" lon="6.06539">
        <ele>766</ele>
        <time>2024-08-14T14:42:40Z</time>
      </trkpt>
      <trkpt lat="45.01769" lon="6.0654">
        <ele>766</ele>
        <time>2024-08-14T14:42:41Z</time>
      </trkpt>
      <trkpt lat="45.01769" lon="6.0654">
        <ele>766</ele>
        <time>2024-08-14T14:42:42Z</time>
      </trkpt>
      <trkpt lat="45.01772" lon="6.06542">
        <ele>765.8</ele>
        <time>2024-08-14T14:42:43Z</time>
      </trkpt>
      <trkpt lat="45.01772" lon="6.06542">
        <ele>765.8</ele>
        <time>2024-08-14T14:42:44Z</time>
      </trkpt>
      <trkpt lat="45.01775" lon="6.06543">
        <ele>765.8</ele>
        <time>2024-08-14T14:42:45Z</time>
      </trkpt>
      <trkpt lat="45.01775" lon="6.06543">
        <ele>765.8</ele>
        <time>2024-08-14T14:42:46Z</time>
      </trkpt>
      <trkpt lat="45.01778" lon="6.06544">
        <ele>765.8</ele>
        <time>2024-08-14T14:42:47Z</time>
      </trkpt>
      <trkpt lat="45.01778" lon="6.06544">
        <ele>765.8</ele>
        <time>2024-08-14T14:42:48Z</time>
      </trkpt>
      <trkpt lat="45.01781" lon="6.06545">
        <ele>766</ele>
        <time>2024-08-14T14:42:49Z</time>
      </trkpt>
      <trkpt lat="45.01781" lon="6.06545">
        <ele>766</ele>
        <time>2024-08-14T14:42:50Z</time>
      </trkpt>
      <trkpt lat="45.01784" lon="6.06546">
        <ele>766</ele>
        <time>2024-08-14T14:42:51Z</time>
      </trkpt>
      <trkpt lat="45.01784" lon="6.06546">
        <ele>766</ele>
        <time>2024-08-14T14:42:52Z</time>
      </trkpt>
      <trkpt lat="45.01787" lon="6.06547">
        <ele>766</ele>
        <time>2024-08-14T14:42:53Z</time>
      </trkpt>
      <trkpt lat="45.01787" lon="6.06547">
        <ele>766</ele>
        <time>2024-08-14T14:42:54Z</time>
      </trkpt>
      <trkpt lat="45.01789" lon="6.06547">
        <ele>766.2</ele>
        <time>2024-08-14T14:42:55Z</time>
      </trkpt>
      <trkpt lat="45.01789" lon="6.06547">
        <ele>766.2</ele>
        <time>2024-08-14T14:42:56Z</time>
      </trkpt>
      <trkpt lat="45.01792" lon="6.06547">
        <ele>766.2</ele>
        <time>2024-08-14T14:42:57Z</time>
      </trkpt>
      <trkpt lat="45.01792" lon="6.06547">
        <ele>766.2</ele>
        <time>2024-08-14T14:42:58Z</time>
      </trkpt>
      <trkpt lat="45.01795" lon="6.06548">
        <ele>766.4</ele>
        <time>2024-08-14T14:42:59Z</time>
      </trkpt>
      <trkpt lat="45.01795" lon="6.06548">
        <ele>766.4</ele>
        <time>2024-08-14T14:43:00Z</time>
      </trkpt>
      <trkpt lat="45.01797" lon="6.06549">
        <ele>766.4</ele>
        <time>2024-08-14T14:43:01Z</time>
      </trkpt>
      <trkpt lat="45.01797" lon="6.06549">
        <ele>766</ele>
        <time>2024-08-14T14:43:02Z</time>
      </trkpt>
      <trkpt lat="45.01801" lon="6.0655">
        <ele>766</ele>
        <time>2024-08-14T14:43:03Z</time>
      </trkpt>
      <trkpt lat="45.01801" lon="6.0655">
        <ele>766</ele>
        <time>2024-08-14T14:43:04Z</time>
      </trkpt>
      <trkpt lat="45.01804" lon="6.0655">
        <ele>766.4</ele>
        <time>2024-08-14T14:43:05Z</time>
      </trkpt>
      <trkpt lat="45.01804" lon="6.0655">
        <ele>766.4</ele>
        <time>2024-08-14T14:43:06Z</time>
      </trkpt>
      <trkpt lat="45.01806" lon="6.06551">
        <ele>766.4</ele>
        <time>2024-08-14T14:43:07Z</time>
      </trkpt>
      <trkpt lat="45.01806" lon="6.06551">
        <ele>766.4</ele>
        <time>2024-08-14T14:43:08Z</time>
      </trkpt>
      <trkpt lat="45.01809" lon="6.06552">
        <ele>766.4</ele>
        <time>2024-08-14T14:43:09Z</time>
      </trkpt>
      <trkpt lat="45.01809" lon="6.06552">
        <ele>766.4</ele>
        <time>2024-08-14T14:43:10Z</time>
      </trkpt>
      <trkpt lat="45.01812" lon="6.06554">
        <ele>766.6</ele>
        <time>2024-08-14T14:43:11Z</time>
      </trkpt>
      <trkpt lat="45.01812" lon="6.06554">
        <ele>766.6</ele>
        <time>2024-08-14T14:43:12Z</time>
      </trkpt>
      <trkpt lat="45.01814" lon="6.06556">
        <ele>766.4</ele>
        <time>2024-08-14T14:43:13Z</time>
      </trkpt>
      <trkpt lat="45.01815" lon="6.06557">
        <ele>766.4</ele>
        <time>2024-08-14T14:43:14Z</time>
      </trkpt>
      <trkpt lat="45.01815" lon="6.06557">
        <ele>766.4</ele>
        <time>2024-08-14T14:43:15Z</time>
      </trkpt>
      <trkpt lat="45.01818" lon="6.06559">
        <ele>766.2</ele>
        <time>2024-08-14T14:43:16Z</time>
      </trkpt>
      <trkpt lat="45.01818" lon="6.06559">
        <ele>766.2</ele>
        <time>2024-08-14T14:43:17Z</time>
      </trkpt>
      <trkpt lat="45.01821" lon="6.0656">
        <ele>766.4</ele>
        <time>2024-08-14T14:43:18Z</time>
      </trkpt>
      <trkpt lat="45.01821" lon="6.0656">
        <ele>766.4</ele>
        <time>2024-08-14T14:43:19Z</time>
      </trkpt>
      <trkpt lat="45.01824" lon="6.06562">
        <ele>766.4</ele>
        <time>2024-08-14T14:43:20Z</time>
      </trkpt>
      <trkpt lat="45.01824" lon="6.06562">
        <ele>766.4</ele>
        <time>2024-08-14T14:43:21Z</time>
      </trkpt>
      <trkpt lat="45.01826" lon="6.06565">
        <ele>766.4</ele>
        <time>2024-08-14T14:43:22Z</time>
      </trkpt>
      <trkpt lat="45.01826" lon="6.06565">
        <ele>766.2</ele>
        <time>2024-08-14T14:43:23Z</time>
      </trkpt>
      <trkpt lat="45.01829" lon="6.06567">
        <ele>766.2</ele>
        <time>2024-08-14T14:43:24Z</time>
      </trkpt>
      <trkpt lat="45.01829" lon="6.06567">
        <ele>766.2</ele>
        <time>2024-08-14T14:43:25Z</time>
      </trkpt>
      <trkpt lat="45.01831" lon="6.06569">
        <ele>766.4</ele>
        <time>2024-08-14T14:43:26Z</time>
      </trkpt>
      <trkpt lat="45.01831" lon="6.06569">
        <ele>766.4</ele>
        <time>2024-08-14T14:43:27Z</time>
      </trkpt>
      <trkpt lat="45.01834" lon="6.06572">
        <ele>766.4</ele>
        <time>2024-08-14T14:43:28Z</time>
      </trkpt>
      <trkpt lat="45.01834" lon="6.06572">
        <ele>766.4</ele>
        <time>2024-08-14T14:43:29Z</time>
      </trkpt>
      <trkpt lat="45.01837" lon="6.06574">
        <ele>766.4</ele>
        <time>2024-08-14T14:43:30Z</time>
      </trkpt>
      <trkpt lat="45.01837" lon="6.06574">
        <ele>766.4</ele>
        <time>2024-08-14T14:43:31Z</time>
      </trkpt>
      <trkpt lat="45.01839" lon="6.06576">
        <ele>766.4</ele>
        <time>2024-08-14T14:43:32Z</time>
      </trkpt>
      <trkpt lat="45.01839" lon="6.06576">
        <ele>766.4</ele>
        <time>2024-08-14T14:43:33Z</time>
      </trkpt>
      <trkpt lat="45.01842" lon="6.06578">
        <ele>766.4</ele>
        <time>2024-08-14T14:43:34Z</time>
      </trkpt>
      <trkpt lat="45.01842" lon="6.06578">
        <ele>766.4</ele>
        <time>2024-08-14T14:43:35Z</time>
      </trkpt>
      <trkpt lat="45.01842" lon="6.06578">
        <ele>766.4</ele>
        <time>2024-08-14T14:43:36Z</time>
      </trkpt>
      <trkpt lat="45.01845" lon="6.06582">
        <ele>766.4</ele>
        <time>2024-08-14T14:43:37Z</time>
      </trkpt>
      <trkpt lat="45.01847" lon="6.06583">
        <ele>766.4</ele>
        <time>2024-08-14T14:43:38Z</time>
      </trkpt>
      <trkpt lat="45.01847" lon="6.06583">
        <ele>766.4</ele>
        <time>2024-08-14T14:43:39Z</time>
      </trkpt>
      <trkpt lat="45.01849" lon="6.06585">
        <ele>766.4</ele>
        <time>2024-08-14T14:43:40Z</time>
      </trkpt>
      <trkpt lat="45.01849" lon="6.06585">
        <ele>766.4</ele>
        <time>2024-08-14T14:43:41Z</time>
      </trkpt>
      <trkpt lat="45.01852" lon="6.06587">
        <ele>766.4</ele>
        <time>2024-08-14T14:43:42Z</time>
      </trkpt>
      <trkpt lat="45.01852" lon="6.06587">
        <ele>766.6</ele>
        <time>2024-08-14T14:43:43Z</time>
      </trkpt>
      <trkpt lat="45.01852" lon="6.06587">
        <ele>766.6</ele>
        <time>2024-08-14T14:43:44Z</time>
      </trkpt>
      <trkpt lat="45.01855" lon="6.06589">
        <ele>766.6</ele>
        <time>2024-08-14T14:43:45Z</time>
      </trkpt>
      <trkpt lat="45.01857" lon="6.0659">
        <ele>766.6</ele>
        <time>2024-08-14T14:43:46Z</time>
      </trkpt>
      <trkpt lat="45.01857" lon="6.0659">
        <ele>766.8</ele>
        <time>2024-08-14T14:43:47Z</time>
      </trkpt>
      <trkpt lat="45.01859" lon="6.06593">
        <ele>766.8</ele>
        <time>2024-08-14T14:43:48Z</time>
      </trkpt>
      <trkpt lat="45.01859" lon="6.06593">
        <ele>766.6</ele>
        <time>2024-08-14T14:43:49Z</time>
      </trkpt>
      <trkpt lat="45.01859" lon="6.06593">
        <ele>766.6</ele>
        <time>2024-08-14T14:43:50Z</time>
      </trkpt>
      <trkpt lat="45.01863" lon="6.06595">
        <ele>766.6</ele>
        <time>2024-08-14T14:43:51Z</time>
      </trkpt>
      <trkpt lat="45.01864" lon="6.06596">
        <ele>766.6</ele>
        <time>2024-08-14T14:43:52Z</time>
      </trkpt>
      <trkpt lat="45.01864" lon="6.06596">
        <ele>766.6</ele>
        <time>2024-08-14T14:43:53Z</time>
      </trkpt>
      <trkpt lat="45.01867" lon="6.06598">
        <ele>766.6</ele>
        <time>2024-08-14T14:43:54Z</time>
      </trkpt>
      <trkpt lat="45.01867" lon="6.06598">
        <ele>766.6</ele>
        <time>2024-08-14T14:43:55Z</time>
      </trkpt>
      <trkpt lat="45.01869" lon="6.066">
        <ele>766.6</ele>
        <time>2024-08-14T14:43:56Z</time>
      </trkpt>
      <trkpt lat="45.0187" lon="6.06602">
        <ele>766.6</ele>
        <time>2024-08-14T14:43:57Z</time>
      </trkpt>
      <trkpt lat="45.0187" lon="6.06602">
        <ele>766.6</ele>
        <time>2024-08-14T14:43:58Z</time>
      </trkpt>
      <trkpt lat="45.0187" lon="6.06602">
        <ele>766.6</ele>
        <time>2024-08-14T14:43:59Z</time>
      </trkpt>
      <trkpt lat="45.01874" lon="6.06604">
        <ele>766.6</ele>
        <time>2024-08-14T14:44:00Z</time>
      </trkpt>
      <trkpt lat="45.01875" lon="6.06605">
        <ele>766.8</ele>
        <time>2024-08-14T14:44:01Z</time>
      </trkpt>
      <trkpt lat="45.01875" lon="6.06605">
        <ele>766.8</ele>
        <time>2024-08-14T14:44:02Z</time>
      </trkpt>
      <trkpt lat="45.01878" lon="6.06606">
        <ele>766.8</ele>
        <time>2024-08-14T14:44:03Z</time>
      </trkpt>
      <trkpt lat="45.0188" lon="6.06606">
        <ele>766.8</ele>
        <time>2024-08-14T14:44:04Z</time>
      </trkpt>
      <trkpt lat="45.01881" lon="6.06607">
        <ele>766.8</ele>
        <time>2024-08-14T14:44:05Z</time>
      </trkpt>
      <trkpt lat="45.01882" lon="6.06608">
        <ele>767</ele>
        <time>2024-08-14T14:44:06Z</time>
      </trkpt>
      <trkpt lat="45.01885" lon="6.06608">
        <ele>767</ele>
        <time>2024-08-14T14:44:07Z</time>
      </trkpt>
      <trkpt lat="45.01885" lon="6.06608">
        <ele>767</ele>
        <time>2024-08-14T14:44:08Z</time>
      </trkpt>
      <trkpt lat="45.01887" lon="6.06609">
        <ele>767</ele>
        <time>2024-08-14T14:44:09Z</time>
      </trkpt>
      <trkpt lat="45.01887" lon="6.06609">
        <ele>767</ele>
        <time>2024-08-14T14:44:10Z</time>
      </trkpt>
      <trkpt lat="45.01892" lon="6.06611">
        <ele>767</ele>
        <time>2024-08-14T14:44:11Z</time>
      </trkpt>
      <trkpt lat="45.01894" lon="6.06612">
        <ele>767</ele>
        <time>2024-08-14T14:44:12Z</time>
      </trkpt>
      <trkpt lat="45.01894" lon="6.06612">
        <ele>767</ele>
        <time>2024-08-14T14:44:13Z</time>
      </trkpt>
      <trkpt lat="45.01894" lon="6.06612">
        <ele>767</ele>
        <time>2024-08-14T14:44:14Z</time>
      </trkpt>
      <trkpt lat="45.01898" lon="6.06614">
        <ele>767</ele>
        <time>2024-08-14T14:44:15Z</time>
      </trkpt>
      <trkpt lat="45.01897" lon="6.06616">
        <ele>766.8</ele>
        <time>2024-08-14T14:44:16Z</time>
      </trkpt>
      <trkpt lat="45.01897" lon="6.06616">
        <ele>766.8</ele>
        <time>2024-08-14T14:44:17Z</time>
      </trkpt>
      <trkpt lat="45.01899" lon="6.0662">
        <ele>766.8</ele>
        <time>2024-08-14T14:44:18Z</time>
      </trkpt>
      <trkpt lat="45.01899" lon="6.0662">
        <ele>766.8</ele>
        <time>2024-08-14T14:44:19Z</time>
      </trkpt>
      <trkpt lat="45.01901" lon="6.06621">
        <ele>766.8</ele>
        <time>2024-08-14T14:44:20Z</time>
      </trkpt>
      <trkpt lat="45.01901" lon="6.06621">
        <ele>766.8</ele>
        <time>2024-08-14T14:44:21Z</time>
      </trkpt>
      <trkpt lat="45.01904" lon="6.06622">
        <ele>766.8</ele>
        <time>2024-08-14T14:44:22Z</time>
      </trkpt>
      <trkpt lat="45.01904" lon="6.06622">
        <ele>766.8</ele>
        <time>2024-08-14T14:44:23Z</time>
      </trkpt>
      <trkpt lat="45.01904" lon="6.06622">
        <ele>766.8</ele>
        <time>2024-08-14T14:44:24Z</time>
      </trkpt>
      <trkpt lat="45.01909" lon="6.06623">
        <ele>766.8</ele>
        <time>2024-08-14T14:44:25Z</time>
      </trkpt>
      <trkpt lat="45.0191" lon="6.06623">
        <ele>766.8</ele>
        <time>2024-08-14T14:44:26Z</time>
      </trkpt>
      <trkpt lat="45.0191" lon="6.06623">
        <ele>766.8</ele>
        <time>2024-08-14T14:44:27Z</time>
      </trkpt>
      <trkpt lat="45.0191" lon="6.06623">
        <ele>766.8</ele>
        <time>2024-08-14T14:44:28Z</time>
      </trkpt>
      <trkpt lat="45.01914" lon="6.06624">
        <ele>766.8</ele>
        <time>2024-08-14T14:44:29Z</time>
      </trkpt>
      <trkpt lat="45.01915" lon="6.06624">
        <ele>766.8</ele>
        <time>2024-08-14T14:44:30Z</time>
      </trkpt>
      <trkpt lat="45.01915" lon="6.06624">
        <ele>766.8</ele>
        <time>2024-08-14T14:44:31Z</time>
      </trkpt>
      <trkpt lat="45.01918" lon="6.06625">
        <ele>766.8</ele>
        <time>2024-08-14T14:44:32Z</time>
      </trkpt>
      <trkpt lat="45.01918" lon="6.06625">
        <ele>766.8</ele>
        <time>2024-08-14T14:44:33Z</time>
      </trkpt>
      <trkpt lat="45.01921" lon="6.06625">
        <ele>766.8</ele>
        <time>2024-08-14T14:44:34Z</time>
      </trkpt>
      <trkpt lat="45.01921" lon="6.06625">
        <ele>766.6</ele>
        <time>2024-08-14T14:44:35Z</time>
      </trkpt>
      <trkpt lat="45.01924" lon="6.06626">
        <ele>766.6</ele>
        <time>2024-08-14T14:44:36Z</time>
      </trkpt>
      <trkpt lat="45.01924" lon="6.06626">
        <ele>766.6</ele>
        <time>2024-08-14T14:44:37Z</time>
      </trkpt>
      <trkpt lat="45.01927" lon="6.06627">
        <ele>766.6</ele>
        <time>2024-08-14T14:44:38Z</time>
      </trkpt>
      <trkpt lat="45.01927" lon="6.06627">
        <ele>766.6</ele>
        <time>2024-08-14T14:44:39Z</time>
      </trkpt>
      <trkpt lat="45.0193" lon="6.06629">
        <ele>766.8</ele>
        <time>2024-08-14T14:44:40Z</time>
      </trkpt>
      <trkpt lat="45.0193" lon="6.06629">
        <ele>766.8</ele>
        <time>2024-08-14T14:44:41Z</time>
      </trkpt>
      <trkpt lat="45.0193" lon="6.06629">
        <ele>767</ele>
        <time>2024-08-14T14:44:42Z</time>
      </trkpt>
      <trkpt lat="45.01934" lon="6.06631">
        <ele>767</ele>
        <time>2024-08-14T14:44:43Z</time>
      </trkpt>
      <trkpt lat="45.01936" lon="6.06632">
        <ele>766.8</ele>
        <time>2024-08-14T14:44:44Z</time>
      </trkpt>
      <trkpt lat="45.01936" lon="6.06632">
        <ele>766.8</ele>
        <time>2024-08-14T14:44:45Z</time>
      </trkpt>
      <trkpt lat="45.01938" lon="6.06632">
        <ele>766.8</ele>
        <time>2024-08-14T14:44:46Z</time>
      </trkpt>
      <trkpt lat="45.01938" lon="6.06632">
        <ele>766.8</ele>
        <time>2024-08-14T14:44:47Z</time>
      </trkpt>
      <trkpt lat="45.01941" lon="6.06633">
        <ele>766.8</ele>
        <time>2024-08-14T14:44:48Z</time>
      </trkpt>
      <trkpt lat="45.01941" lon="6.06633">
        <ele>766.8</ele>
        <time>2024-08-14T14:44:49Z</time>
      </trkpt>
      <trkpt lat="45.01944" lon="6.06635">
        <ele>766.8</ele>
        <time>2024-08-14T14:44:50Z</time>
      </trkpt>
      <trkpt lat="45.01946" lon="6.06636">
        <ele>766.8</ele>
        <time>2024-08-14T14:44:51Z</time>
      </trkpt>
      <trkpt lat="45.01946" lon="6.06636">
        <ele>766.6</ele>
        <time>2024-08-14T14:44:52Z</time>
      </trkpt>
      <trkpt lat="45.01948" lon="6.06638">
        <ele>766.6</ele>
        <time>2024-08-14T14:44:53Z</time>
      </trkpt>
      <trkpt lat="45.01948" lon="6.06638">
        <ele>766.6</ele>
        <time>2024-08-14T14:44:54Z</time>
      </trkpt>
      <trkpt lat="45.01951" lon="6.06639">
        <ele>766.6</ele>
        <time>2024-08-14T14:44:55Z</time>
      </trkpt>
      <trkpt lat="45.01951" lon="6.06639">
        <ele>766.6</ele>
        <time>2024-08-14T14:44:56Z</time>
      </trkpt>
      <trkpt lat="45.01954" lon="6.06641">
        <ele>766.6</ele>
        <time>2024-08-14T14:44:57Z</time>
      </trkpt>
      <trkpt lat="45.01954" lon="6.06641">
        <ele>766.6</ele>
        <time>2024-08-14T14:44:58Z</time>
      </trkpt>
      <trkpt lat="45.01956" lon="6.06642">
        <ele>766.6</ele>
        <time>2024-08-14T14:44:59Z</time>
      </trkpt>
      <trkpt lat="45.01956" lon="6.06642">
        <ele>766.6</ele>
        <time>2024-08-14T14:45:00Z</time>
      </trkpt>
      <trkpt lat="45.01959" lon="6.06643">
        <ele>766.8</ele>
        <time>2024-08-14T14:45:01Z</time>
      </trkpt>
      <trkpt lat="45.01959" lon="6.06643">
        <ele>767</ele>
        <time>2024-08-14T14:45:02Z</time>
      </trkpt>
      <trkpt lat="45.01959" lon="6.06643">
        <ele>767</ele>
        <time>2024-08-14T14:45:03Z</time>
      </trkpt>
      <trkpt lat="45.01963" lon="6.06644">
        <ele>767</ele>
        <time>2024-08-14T14:45:04Z</time>
      </trkpt>
      <trkpt lat="45.01964" lon="6.06644">
        <ele>767</ele>
        <time>2024-08-14T14:45:05Z</time>
      </trkpt>
      <trkpt lat="45.01964" lon="6.06644">
        <ele>767</ele>
        <time>2024-08-14T14:45:06Z</time>
      </trkpt>
      <trkpt lat="45.01964" lon="6.06644">
        <ele>767</ele>
        <time>2024-08-14T14:45:07Z</time>
      </trkpt>
      <trkpt lat="45.01968" lon="6.06644">
        <ele>766.8</ele>
        <time>2024-08-14T14:45:08Z</time>
      </trkpt>
      <trkpt lat="45.0197" lon="6.06644">
        <ele>766.8</ele>
        <time>2024-08-14T14:45:09Z</time>
      </trkpt>
      <trkpt lat="45.0197" lon="6.06644">
        <ele>766.8</ele>
        <time>2024-08-14T14:45:10Z</time>
      </trkpt>
      <trkpt lat="45.0197" lon="6.06644">
        <ele>766.8</ele>
        <time>2024-08-14T14:45:11Z</time>
      </trkpt>
      <trkpt lat="45.01975" lon="6.06646">
        <ele>766.8</ele>
        <time>2024-08-14T14:45:12Z</time>
      </trkpt>
      <trkpt lat="45.01976" lon="6.06646">
        <ele>766.8</ele>
        <time>2024-08-14T14:45:13Z</time>
      </trkpt>
      <trkpt lat="45.01976" lon="6.06646">
        <ele>766.8</ele>
        <time>2024-08-14T14:45:14Z</time>
      </trkpt>
      <trkpt lat="45.01976" lon="6.06646">
        <ele>766.8</ele>
        <time>2024-08-14T14:45:15Z</time>
      </trkpt>
      <trkpt lat="45.01981" lon="6.06648">
        <ele>766.8</ele>
        <time>2024-08-14T14:45:16Z</time>
      </trkpt>
      <trkpt lat="45.01982" lon="6.06648">
        <ele>766.8</ele>
        <time>2024-08-14T14:45:17Z</time>
      </trkpt>
      <trkpt lat="45.01982" lon="6.06648">
        <ele>766.6</ele>
        <time>2024-08-14T14:45:18Z</time>
      </trkpt>
      <trkpt lat="45.01984" lon="6.06651">
        <ele>766.6</ele>
        <time>2024-08-14T14:45:19Z</time>
      </trkpt>
      <trkpt lat="45.01986" lon="6.06652">
        <ele>766.4</ele>
        <time>2024-08-14T14:45:20Z</time>
      </trkpt>
      <trkpt lat="45.01986" lon="6.06652">
        <ele>766.4</ele>
        <time>2024-08-14T14:45:21Z</time>
      </trkpt>
      <trkpt lat="45.01989" lon="6.06653">
        <ele>767</ele>
        <time>2024-08-14T14:45:22Z</time>
      </trkpt>
      <trkpt lat="45.01989" lon="6.06653">
        <ele>767.2</ele>
        <time>2024-08-14T14:45:23Z</time>
      </trkpt>
      <trkpt lat="45.01992" lon="6.06654">
        <ele>767.2</ele>
        <time>2024-08-14T14:45:24Z</time>
      </trkpt>
      <trkpt lat="45.01992" lon="6.06654">
        <ele>767</ele>
        <time>2024-08-14T14:45:25Z</time>
      </trkpt>
      <trkpt lat="45.01992" lon="6.06654">
        <ele>766.6</ele>
        <time>2024-08-14T14:45:26Z</time>
      </trkpt>
      <trkpt lat="45.01996" lon="6.06655">
        <ele>766.6</ele>
        <time>2024-08-14T14:45:27Z</time>
      </trkpt>
      <trkpt lat="45.01997" lon="6.06655">
        <ele>766.4</ele>
        <time>2024-08-14T14:45:28Z</time>
      </trkpt>
      <trkpt lat="45.01997" lon="6.06655">
        <ele>766.4</ele>
        <time>2024-08-14T14:45:29Z</time>
      </trkpt>
      <trkpt lat="45.02" lon="6.06655">
        <ele>766.4</ele>
        <time>2024-08-14T14:45:30Z</time>
      </trkpt>
      <trkpt lat="45.02" lon="6.06655">
        <ele>766.4</ele>
        <time>2024-08-14T14:45:31Z</time>
      </trkpt>
      <trkpt lat="45.02004" lon="6.06654">
        <ele>766.2</ele>
        <time>2024-08-14T14:45:32Z</time>
      </trkpt>
      <trkpt lat="45.02004" lon="6.06654">
        <ele>766.2</ele>
        <time>2024-08-14T14:45:33Z</time>
      </trkpt>
      <trkpt lat="45.02006" lon="6.06654">
        <ele>766.2</ele>
        <time>2024-08-14T14:45:34Z</time>
      </trkpt>
      <trkpt lat="45.02008" lon="6.06654">
        <ele>766.2</ele>
        <time>2024-08-14T14:45:35Z</time>
      </trkpt>
      <trkpt lat="45.02008" lon="6.06654">
        <ele>766.2</ele>
        <time>2024-08-14T14:45:36Z</time>
      </trkpt>
      <trkpt lat="45.02011" lon="6.06654">
        <ele>766.2</ele>
        <time>2024-08-14T14:45:37Z</time>
      </trkpt>
      <trkpt lat="45.02011" lon="6.06654">
        <ele>766.2</ele>
        <time>2024-08-14T14:45:38Z</time>
      </trkpt>
      <trkpt lat="45.02014" lon="6.06653">
        <ele>766.2</ele>
        <time>2024-08-14T14:45:39Z</time>
      </trkpt>
      <trkpt lat="45.02014" lon="6.06653">
        <ele>766.2</ele>
        <time>2024-08-14T14:45:40Z</time>
      </trkpt>
      <trkpt lat="45.02017" lon="6.06653">
        <ele>766</ele>
        <time>2024-08-14T14:45:41Z</time>
      </trkpt>
      <trkpt lat="45.02017" lon="6.06653">
        <ele>766</ele>
        <time>2024-08-14T14:45:42Z</time>
      </trkpt>
      <trkpt lat="45.0202" lon="6.06653">
        <ele>766</ele>
        <time>2024-08-14T14:45:43Z</time>
      </trkpt>
      <trkpt lat="45.02021" lon="6.06653">
        <ele>766</ele>
        <time>2024-08-14T14:45:44Z</time>
      </trkpt>
      <trkpt lat="45.02021" lon="6.06653">
        <ele>766</ele>
        <time>2024-08-14T14:45:45Z</time>
      </trkpt>
      <trkpt lat="45.02021" lon="6.06653">
        <ele>766</ele>
        <time>2024-08-14T14:45:46Z</time>
      </trkpt>
      <trkpt lat="45.02026" lon="6.06653">
        <ele>766</ele>
        <time>2024-08-14T14:45:47Z</time>
      </trkpt>
      <trkpt lat="45.02027" lon="6.06653">
        <ele>766</ele>
        <time>2024-08-14T14:45:48Z</time>
      </trkpt>
      <trkpt lat="45.02027" lon="6.06653">
        <ele>766</ele>
        <time>2024-08-14T14:45:49Z</time>
      </trkpt>
      <trkpt lat="45.0203" lon="6.06654">
        <ele>766.2</ele>
        <time>2024-08-14T14:45:50Z</time>
      </trkpt>
      <trkpt lat="45.0203" lon="6.06654">
        <ele>766.2</ele>
        <time>2024-08-14T14:45:51Z</time>
      </trkpt>
      <trkpt lat="45.02033" lon="6.06655">
        <ele>766.2</ele>
        <time>2024-08-14T14:45:52Z</time>
      </trkpt>
      <trkpt lat="45.02033" lon="6.06655">
        <ele>766.2</ele>
        <time>2024-08-14T14:45:53Z</time>
      </trkpt>
      <trkpt lat="45.02036" lon="6.06656">
        <ele>766.2</ele>
        <time>2024-08-14T14:45:54Z</time>
      </trkpt>
      <trkpt lat="45.02036" lon="6.06656">
        <ele>766</ele>
        <time>2024-08-14T14:45:55Z</time>
      </trkpt>
      <trkpt lat="45.02036" lon="6.06656">
        <ele>766</ele>
        <time>2024-08-14T14:45:56Z</time>
      </trkpt>
      <trkpt lat="45.02041" lon="6.06658">
        <ele>766</ele>
        <time>2024-08-14T14:45:57Z</time>
      </trkpt>
      <trkpt lat="45.02042" lon="6.06659">
        <ele>765.8</ele>
        <time>2024-08-14T14:45:58Z</time>
      </trkpt>
      <trkpt lat="45.02042" lon="6.06659">
        <ele>765.8</ele>
        <time>2024-08-14T14:45:59Z</time>
      </trkpt>
      <trkpt lat="45.02045" lon="6.0666">
        <ele>765.8</ele>
        <time>2024-08-14T14:46:00Z</time>
      </trkpt>
      <trkpt lat="45.02045" lon="6.0666">
        <ele>765.6</ele>
        <time>2024-08-14T14:46:01Z</time>
      </trkpt>
      <trkpt lat="45.02048" lon="6.06661">
        <ele>765.8</ele>
        <time>2024-08-14T14:46:02Z</time>
      </trkpt>
      <trkpt lat="45.02049" lon="6.06662">
        <ele>765.8</ele>
        <time>2024-08-14T14:46:03Z</time>
      </trkpt>
      <trkpt lat="45.02049" lon="6.06662">
        <ele>766</ele>
        <time>2024-08-14T14:46:04Z</time>
      </trkpt>
      <trkpt lat="45.02049" lon="6.06662">
        <ele>765.8</ele>
        <time>2024-08-14T14:46:05Z</time>
      </trkpt>
      <trkpt lat="45.02053" lon="6.06665">
        <ele>765.8</ele>
        <time>2024-08-14T14:46:06Z</time>
      </trkpt>
      <trkpt lat="45.02055" lon="6.06666">
        <ele>765.8</ele>
        <time>2024-08-14T14:46:07Z</time>
      </trkpt>
      <trkpt lat="45.02055" lon="6.06666">
        <ele>765.8</ele>
        <time>2024-08-14T14:46:08Z</time>
      </trkpt>
      <trkpt lat="45.02055" lon="6.06666">
        <ele>765.8</ele>
        <time>2024-08-14T14:46:09Z</time>
      </trkpt>
      <trkpt lat="45.02059" lon="6.06668">
        <ele>765.8</ele>
        <time>2024-08-14T14:46:10Z</time>
      </trkpt>
      <trkpt lat="45.0206" lon="6.0667">
        <ele>765.8</ele>
        <time>2024-08-14T14:46:11Z</time>
      </trkpt>
      <trkpt lat="45.0206" lon="6.0667">
        <ele>765.8</ele>
        <time>2024-08-14T14:46:12Z</time>
      </trkpt>
      <trkpt lat="45.0206" lon="6.0667">
        <ele>765.8</ele>
        <time>2024-08-14T14:46:13Z</time>
      </trkpt>
      <trkpt lat="45.02063" lon="6.06674">
        <ele>765.8</ele>
        <time>2024-08-14T14:46:14Z</time>
      </trkpt>
      <trkpt lat="45.02065" lon="6.06676">
        <ele>765.6</ele>
        <time>2024-08-14T14:46:15Z</time>
      </trkpt>
      <trkpt lat="45.02066" lon="6.06678">
        <ele>765.6</ele>
        <time>2024-08-14T14:46:16Z</time>
      </trkpt>
      <trkpt lat="45.02068" lon="6.0668">
        <ele>765.4</ele>
        <time>2024-08-14T14:46:17Z</time>
      </trkpt>
      <trkpt lat="45.02069" lon="6.06682">
        <ele>765.4</ele>
        <time>2024-08-14T14:46:18Z</time>
      </trkpt>
      <trkpt lat="45.0207" lon="6.06684">
        <ele>765.4</ele>
        <time>2024-08-14T14:46:19Z</time>
      </trkpt>
      <trkpt lat="45.02072" lon="6.06686">
        <ele>765.2</ele>
        <time>2024-08-14T14:46:20Z</time>
      </trkpt>
      <trkpt lat="45.02073" lon="6.06688">
        <ele>765.2</ele>
        <time>2024-08-14T14:46:21Z</time>
      </trkpt>
      <trkpt lat="45.02075" lon="6.0669">
        <ele>765</ele>
        <time>2024-08-14T14:46:22Z</time>
      </trkpt>
      <trkpt lat="45.02075" lon="6.0669">
        <ele>765</ele>
        <time>2024-08-14T14:46:23Z</time>
      </trkpt>
      <trkpt lat="45.02077" lon="6.06693">
        <ele>765</ele>
        <time>2024-08-14T14:46:24Z</time>
      </trkpt>
      <trkpt lat="45.02079" lon="6.06695">
        <ele>765</ele>
        <time>2024-08-14T14:46:25Z</time>
      </trkpt>
      <trkpt lat="45.02081" lon="6.06697">
        <ele>765</ele>
        <time>2024-08-14T14:46:26Z</time>
      </trkpt>
      <trkpt lat="45.02081" lon="6.06697">
        <ele>764.8</ele>
        <time>2024-08-14T14:46:27Z</time>
      </trkpt>
      <trkpt lat="45.02084" lon="6.06701">
        <ele>764.8</ele>
        <time>2024-08-14T14:46:28Z</time>
      </trkpt>
      <trkpt lat="45.02085" lon="6.06703">
        <ele>764.8</ele>
        <time>2024-08-14T14:46:29Z</time>
      </trkpt>
      <trkpt lat="45.02085" lon="6.06703">
        <ele>764.8</ele>
        <time>2024-08-14T14:46:30Z</time>
      </trkpt>
      <trkpt lat="45.02087" lon="6.06706">
        <ele>765</ele>
        <time>2024-08-14T14:46:31Z</time>
      </trkpt>
      <trkpt lat="45.02087" lon="6.06706">
        <ele>765</ele>
        <time>2024-08-14T14:46:32Z</time>
      </trkpt>
      <trkpt lat="45.02089" lon="6.0671">
        <ele>765</ele>
        <time>2024-08-14T14:46:33Z</time>
      </trkpt>
      <trkpt lat="45.02089" lon="6.0671">
        <ele>764.8</ele>
        <time>2024-08-14T14:46:34Z</time>
      </trkpt>
      <trkpt lat="45.02089" lon="6.0671">
        <ele>764.8</ele>
        <time>2024-08-14T14:46:35Z</time>
      </trkpt>
      <trkpt lat="45.02092" lon="6.06716">
        <ele>764.8</ele>
        <time>2024-08-14T14:46:36Z</time>
      </trkpt>
      <trkpt lat="45.02093" lon="6.06717">
        <ele>764.8</ele>
        <time>2024-08-14T14:46:37Z</time>
      </trkpt>
      <trkpt lat="45.02093" lon="6.06717">
        <ele>764.8</ele>
        <time>2024-08-14T14:46:38Z</time>
      </trkpt>
      <trkpt lat="45.02094" lon="6.06722">
        <ele>764.6</ele>
        <time>2024-08-14T14:46:39Z</time>
      </trkpt>
      <trkpt lat="45.02094" lon="6.06722">
        <ele>764.6</ele>
        <time>2024-08-14T14:46:40Z</time>
      </trkpt>
      <trkpt lat="45.02095" lon="6.06725">
        <ele>764.6</ele>
        <time>2024-08-14T14:46:41Z</time>
      </trkpt>
      <trkpt lat="45.02095" lon="6.06725">
        <ele>764.6</ele>
        <time>2024-08-14T14:46:42Z</time>
      </trkpt>
      <trkpt lat="45.02097" lon="6.06729">
        <ele>764.6</ele>
        <time>2024-08-14T14:46:43Z</time>
      </trkpt>
      <trkpt lat="45.02097" lon="6.06729">
        <ele>764.6</ele>
        <time>2024-08-14T14:46:44Z</time>
      </trkpt>
      <trkpt lat="45.02099" lon="6.06732">
        <ele>764.6</ele>
        <time>2024-08-14T14:46:45Z</time>
      </trkpt>
      <trkpt lat="45.02099" lon="6.06732">
        <ele>764.6</ele>
        <time>2024-08-14T14:46:46Z</time>
      </trkpt>
      <trkpt lat="45.02101" lon="6.06736">
        <ele>764.4</ele>
        <time>2024-08-14T14:46:47Z</time>
      </trkpt>
      <trkpt lat="45.02101" lon="6.06736">
        <ele>764.4</ele>
        <time>2024-08-14T14:46:48Z</time>
      </trkpt>
      <trkpt lat="45.02101" lon="6.06736">
        <ele>764.4</ele>
        <time>2024-08-14T14:46:49Z</time>
      </trkpt>
      <trkpt lat="45.02102" lon="6.06742">
        <ele>764.4</ele>
        <time>2024-08-14T14:46:50Z</time>
      </trkpt>
      <trkpt lat="45.02102" lon="6.06744">
        <ele>764.2</ele>
        <time>2024-08-14T14:46:51Z</time>
      </trkpt>
      <trkpt lat="45.02103" lon="6.06747">
        <ele>764.2</ele>
        <time>2024-08-14T14:46:52Z</time>
      </trkpt>
      <trkpt lat="45.02103" lon="6.06747">
        <ele>764.2</ele>
        <time>2024-08-14T14:46:53Z</time>
      </trkpt>
      <trkpt lat="45.02103" lon="6.06751">
        <ele>764.2</ele>
        <time>2024-08-14T14:46:54Z</time>
      </trkpt>
      <trkpt lat="45.02103" lon="6.06754">
        <ele>764</ele>
        <time>2024-08-14T14:46:55Z</time>
      </trkpt>
      <trkpt lat="45.02103" lon="6.06754">
        <ele>764</ele>
        <time>2024-08-14T14:46:56Z</time>
      </trkpt>
      <trkpt lat="45.02103" lon="6.06754">
        <ele>764</ele>
        <time>2024-08-14T14:46:57Z</time>
      </trkpt>
      <trkpt lat="45.02103" lon="6.0676">
        <ele>764</ele>
        <time>2024-08-14T14:46:58Z</time>
      </trkpt>
      <trkpt lat="45.02103" lon="6.06762">
        <ele>764</ele>
        <time>2024-08-14T14:46:59Z</time>
      </trkpt>
      <trkpt lat="45.02103" lon="6.06762">
        <ele>764</ele>
        <time>2024-08-14T14:47:00Z</time>
      </trkpt>
      <trkpt lat="45.02103" lon="6.06765">
        <ele>764</ele>
        <time>2024-08-14T14:47:01Z</time>
      </trkpt>
      <trkpt lat="45.02103" lon="6.06765">
        <ele>763.8</ele>
        <time>2024-08-14T14:47:02Z</time>
      </trkpt>
      <trkpt lat="45.02103" lon="6.06765">
        <ele>763.8</ele>
        <time>2024-08-14T14:47:03Z</time>
      </trkpt>
      <trkpt lat="45.02104" lon="6.0677">
        <ele>763.8</ele>
        <time>2024-08-14T14:47:04Z</time>
      </trkpt>
      <trkpt lat="45.02105" lon="6.06772">
        <ele>763.6</ele>
        <time>2024-08-14T14:47:05Z</time>
      </trkpt>
      <trkpt lat="45.02105" lon="6.06772">
        <ele>763.4</ele>
        <time>2024-08-14T14:47:06Z</time>
      </trkpt>
      <trkpt lat="45.02105" lon="6.06777">
        <ele>763.4</ele>
        <time>2024-08-14T14:47:07Z</time>
      </trkpt>
      <trkpt lat="45.02105" lon="6.06777">
        <ele>763.4</ele>
        <time>2024-08-14T14:47:08Z</time>
      </trkpt>
      <trkpt lat="45.02105" lon="6.06781">
        <ele>763.4</ele>
        <time>2024-08-14T14:47:09Z</time>
      </trkpt>
      <trkpt lat="45.02105" lon="6.06781">
        <ele>763.2</ele>
        <time>2024-08-14T14:47:10Z</time>
      </trkpt>
      <trkpt lat="45.02107" lon="6.06785">
        <ele>763.2</ele>
        <time>2024-08-14T14:47:11Z</time>
      </trkpt>
      <trkpt lat="45.02107" lon="6.06785">
        <ele>763.2</ele>
        <time>2024-08-14T14:47:12Z</time>
      </trkpt>
      <trkpt lat="45.02108" lon="6.06789">
        <ele>763</ele>
        <time>2024-08-14T14:47:13Z</time>
      </trkpt>
      <trkpt lat="45.02108" lon="6.06789">
        <ele>763</ele>
        <time>2024-08-14T14:47:14Z</time>
      </trkpt>
      <trkpt lat="45.02108" lon="6.06789">
        <ele>763</ele>
        <time>2024-08-14T14:47:15Z</time>
      </trkpt>
      <trkpt lat="45.02109" lon="6.06794">
        <ele>763</ele>
        <time>2024-08-14T14:47:16Z</time>
      </trkpt>
      <trkpt lat="45.02111" lon="6.06796">
        <ele>762.8</ele>
        <time>2024-08-14T14:47:17Z</time>
      </trkpt>
      <trkpt lat="45.02111" lon="6.06796">
        <ele>762.8</ele>
        <time>2024-08-14T14:47:18Z</time>
      </trkpt>
      <trkpt lat="45.02111" lon="6.06796">
        <ele>762.8</ele>
        <time>2024-08-14T14:47:19Z</time>
      </trkpt>
      <trkpt lat="45.02112" lon="6.06802">
        <ele>762.6</ele>
        <time>2024-08-14T14:47:20Z</time>
      </trkpt>
      <trkpt lat="45.02113" lon="6.06803">
        <ele>762.6</ele>
        <time>2024-08-14T14:47:21Z</time>
      </trkpt>
      <trkpt lat="45.02113" lon="6.06803">
        <ele>762.6</ele>
        <time>2024-08-14T14:47:22Z</time>
      </trkpt>
      <trkpt lat="45.02114" lon="6.06807">
        <ele>762.6</ele>
        <time>2024-08-14T14:47:23Z</time>
      </trkpt>
      <trkpt lat="45.02114" lon="6.06807">
        <ele>762.4</ele>
        <time>2024-08-14T14:47:24Z</time>
      </trkpt>
      <trkpt lat="45.02116" lon="6.0681">
        <ele>762.4</ele>
        <time>2024-08-14T14:47:25Z</time>
      </trkpt>
      <trkpt lat="45.02116" lon="6.0681">
        <ele>762</ele>
        <time>2024-08-14T14:47:26Z</time>
      </trkpt>
      <trkpt lat="45.02118" lon="6.06813">
        <ele>762</ele>
        <time>2024-08-14T14:47:27Z</time>
      </trkpt>
      <trkpt lat="45.02118" lon="6.06813">
        <ele>762</ele>
        <time>2024-08-14T14:47:28Z</time>
      </trkpt>
      <trkpt lat="45.0212" lon="6.06816">
        <ele>762</ele>
        <time>2024-08-14T14:47:29Z</time>
      </trkpt>
      <trkpt lat="45.0212" lon="6.06816">
        <ele>762</ele>
        <time>2024-08-14T14:47:30Z</time>
      </trkpt>
      <trkpt lat="45.02121" lon="6.06819">
        <ele>761.8</ele>
        <time>2024-08-14T14:47:31Z</time>
      </trkpt>
      <trkpt lat="45.02121" lon="6.06819">
        <ele>761.8</ele>
        <time>2024-08-14T14:47:32Z</time>
      </trkpt>
      <trkpt lat="45.02123" lon="6.06822">
        <ele>761.8</ele>
        <time>2024-08-14T14:47:33Z</time>
      </trkpt>
      <trkpt lat="45.02125" lon="6.06824">
        <ele>761.8</ele>
        <time>2024-08-14T14:47:34Z</time>
      </trkpt>
      <trkpt lat="45.02125" lon="6.06824">
        <ele>761.8</ele>
        <time>2024-08-14T14:47:35Z</time>
      </trkpt>
      <trkpt lat="45.02126" lon="6.06827">
        <ele>761.4</ele>
        <time>2024-08-14T14:47:36Z</time>
      </trkpt>
      <trkpt lat="45.02126" lon="6.06827">
        <ele>761.4</ele>
        <time>2024-08-14T14:47:37Z</time>
      </trkpt>
      <trkpt lat="45.02128" lon="6.0683">
        <ele>761.4</ele>
        <time>2024-08-14T14:47:38Z</time>
      </trkpt>
      <trkpt lat="45.02128" lon="6.0683">
        <ele>761.2</ele>
        <time>2024-08-14T14:47:39Z</time>
      </trkpt>
      <trkpt lat="45.02129" lon="6.06832">
        <ele>761.2</ele>
        <time>2024-08-14T14:47:40Z</time>
      </trkpt>
      <trkpt lat="45.02129" lon="6.06832">
        <ele>761</ele>
        <time>2024-08-14T14:47:41Z</time>
      </trkpt>
      <trkpt lat="45.02131" lon="6.06835">
        <ele>761.2</ele>
        <time>2024-08-14T14:47:42Z</time>
      </trkpt>
      <trkpt lat="45.02131" lon="6.06835">
        <ele>761</ele>
        <time>2024-08-14T14:47:43Z</time>
      </trkpt>
      <trkpt lat="45.02133" lon="6.06837">
        <ele>761</ele>
        <time>2024-08-14T14:47:44Z</time>
      </trkpt>
      <trkpt lat="45.02133" lon="6.06837">
        <ele>760.8</ele>
        <time>2024-08-14T14:47:45Z</time>
      </trkpt>
      <trkpt lat="45.02135" lon="6.0684">
        <ele>760.8</ele>
        <time>2024-08-14T14:47:46Z</time>
      </trkpt>
      <trkpt lat="45.02135" lon="6.0684">
        <ele>760.6</ele>
        <time>2024-08-14T14:47:47Z</time>
      </trkpt>
      <trkpt lat="45.02137" lon="6.06842">
        <ele>760.6</ele>
        <time>2024-08-14T14:47:48Z</time>
      </trkpt>
      <trkpt lat="45.02137" lon="6.06842">
        <ele>760.6</ele>
        <time>2024-08-14T14:47:49Z</time>
      </trkpt>
      <trkpt lat="45.02137" lon="6.06842">
        <ele>760.4</ele>
        <time>2024-08-14T14:47:50Z</time>
      </trkpt>
      <trkpt lat="45.0214" lon="6.06846">
        <ele>760.4</ele>
        <time>2024-08-14T14:47:51Z</time>
      </trkpt>
      <trkpt lat="45.02141" lon="6.06847">
        <ele>760.2</ele>
        <time>2024-08-14T14:47:52Z</time>
      </trkpt>
      <trkpt lat="45.02141" lon="6.06847">
        <ele>760.2</ele>
        <time>2024-08-14T14:47:53Z</time>
      </trkpt>
      <trkpt lat="45.02143" lon="6.06849">
        <ele>760.2</ele>
        <time>2024-08-14T14:47:54Z</time>
      </trkpt>
      <trkpt lat="45.02143" lon="6.06849">
        <ele>760.6</ele>
        <time>2024-08-14T14:47:55Z</time>
      </trkpt>
      <trkpt lat="45.02145" lon="6.06852">
        <ele>760.6</ele>
        <time>2024-08-14T14:47:56Z</time>
      </trkpt>
      <trkpt lat="45.02145" lon="6.06852">
        <ele>760.2</ele>
        <time>2024-08-14T14:47:57Z</time>
      </trkpt>
      <trkpt lat="45.02148" lon="6.06855">
        <ele>760.2</ele>
        <time>2024-08-14T14:47:58Z</time>
      </trkpt>
      <trkpt lat="45.02148" lon="6.06855">
        <ele>760.2</ele>
        <time>2024-08-14T14:47:59Z</time>
      </trkpt>
      <trkpt lat="45.0215" lon="6.06857">
        <ele>760.2</ele>
        <time>2024-08-14T14:48:00Z</time>
      </trkpt>
      <trkpt lat="45.0215" lon="6.06857">
        <ele>760.4</ele>
        <time>2024-08-14T14:48:01Z</time>
      </trkpt>
      <trkpt lat="45.02153" lon="6.06859">
        <ele>760.4</ele>
        <time>2024-08-14T14:48:02Z</time>
      </trkpt>
      <trkpt lat="45.02153" lon="6.06859">
        <ele>760.4</ele>
        <time>2024-08-14T14:48:03Z</time>
      </trkpt>
      <trkpt lat="45.02153" lon="6.06859">
        <ele>760.4</ele>
        <time>2024-08-14T14:48:04Z</time>
      </trkpt>
      <trkpt lat="45.02157" lon="6.06861">
        <ele>760.4</ele>
        <time>2024-08-14T14:48:05Z</time>
      </trkpt>
      <trkpt lat="45.02158" lon="6.06861">
        <ele>760.6</ele>
        <time>2024-08-14T14:48:06Z</time>
      </trkpt>
      <trkpt lat="45.02158" lon="6.06861">
        <ele>760.6</ele>
        <time>2024-08-14T14:48:07Z</time>
      </trkpt>
      <trkpt lat="45.02161" lon="6.06861">
        <ele>760.4</ele>
        <time>2024-08-14T14:48:08Z</time>
      </trkpt>
      <trkpt lat="45.02161" lon="6.06861">
        <ele>760.4</ele>
        <time>2024-08-14T14:48:09Z</time>
      </trkpt>
      <trkpt lat="45.02164" lon="6.06861">
        <ele>760.4</ele>
        <time>2024-08-14T14:48:10Z</time>
      </trkpt>
      <trkpt lat="45.02164" lon="6.06861">
        <ele>760.4</ele>
        <time>2024-08-14T14:48:11Z</time>
      </trkpt>
      <trkpt lat="45.02167" lon="6.06862">
        <ele>760.6</ele>
        <time>2024-08-14T14:48:12Z</time>
      </trkpt>
      <trkpt lat="45.02167" lon="6.06862">
        <ele>760.6</ele>
        <time>2024-08-14T14:48:13Z</time>
      </trkpt>
      <trkpt lat="45.02169" lon="6.06863">
        <ele>760.6</ele>
        <time>2024-08-14T14:48:14Z</time>
      </trkpt>
      <trkpt lat="45.02169" lon="6.06863">
        <ele>760.6</ele>
        <time>2024-08-14T14:48:15Z</time>
      </trkpt>
      <trkpt lat="45.02171" lon="6.06864">
        <ele>760.6</ele>
        <time>2024-08-14T14:48:16Z</time>
      </trkpt>
      <trkpt lat="45.02171" lon="6.06864">
        <ele>760.6</ele>
        <time>2024-08-14T14:48:17Z</time>
      </trkpt>
      <trkpt lat="45.02174" lon="6.06865">
        <ele>760.8</ele>
        <time>2024-08-14T14:48:18Z</time>
      </trkpt>
      <trkpt lat="45.02174" lon="6.06865">
        <ele>760.8</ele>
        <time>2024-08-14T14:48:19Z</time>
      </trkpt>
      <trkpt lat="45.02177" lon="6.06865">
        <ele>760.8</ele>
        <time>2024-08-14T14:48:20Z</time>
      </trkpt>
      <trkpt lat="45.02179" lon="6.06866">
        <ele>760.8</ele>
        <time>2024-08-14T14:48:21Z</time>
      </trkpt>
      <trkpt lat="45.0218" lon="6.06866">
        <ele>760.8</ele>
        <time>2024-08-14T14:48:22Z</time>
      </trkpt>
      <trkpt lat="45.02182" lon="6.06867">
        <ele>760.8</ele>
        <time>2024-08-14T14:48:23Z</time>
      </trkpt>
      <trkpt lat="45.02182" lon="6.06867">
        <ele>760.8</ele>
        <time>2024-08-14T14:48:24Z</time>
      </trkpt>
      <trkpt lat="45.02185" lon="6.06867">
        <ele>760.8</ele>
        <time>2024-08-14T14:48:25Z</time>
      </trkpt>
      <trkpt lat="45.02185" lon="6.06867">
        <ele>760.8</ele>
        <time>2024-08-14T14:48:26Z</time>
      </trkpt>
      <trkpt lat="45.02188" lon="6.06868">
        <ele>760.8</ele>
        <time>2024-08-14T14:48:27Z</time>
      </trkpt>
      <trkpt lat="45.02188" lon="6.06868">
        <ele>760.8</ele>
        <time>2024-08-14T14:48:28Z</time>
      </trkpt>
      <trkpt lat="45.02188" lon="6.06868">
        <ele>760.8</ele>
        <time>2024-08-14T14:48:29Z</time>
      </trkpt>
      <trkpt lat="45.02192" lon="6.06868">
        <ele>760.8</ele>
        <time>2024-08-14T14:48:30Z</time>
      </trkpt>
      <trkpt lat="45.02194" lon="6.06869">
        <ele>760.8</ele>
        <time>2024-08-14T14:48:31Z</time>
      </trkpt>
      <trkpt lat="45.02194" lon="6.06869">
        <ele>760.8</ele>
        <time>2024-08-14T14:48:32Z</time>
      </trkpt>
      <trkpt lat="45.02197" lon="6.0687">
        <ele>760.8</ele>
        <time>2024-08-14T14:48:33Z</time>
      </trkpt>
      <trkpt lat="45.02197" lon="6.0687">
        <ele>761</ele>
        <time>2024-08-14T14:48:34Z</time>
      </trkpt>
      <trkpt lat="45.02197" lon="6.0687">
        <ele>761</ele>
        <time>2024-08-14T14:48:35Z</time>
      </trkpt>
      <trkpt lat="45.022" lon="6.06872">
        <ele>760.8</ele>
        <time>2024-08-14T14:48:36Z</time>
      </trkpt>
      <trkpt lat="45.02202" lon="6.06873">
        <ele>760.8</ele>
        <time>2024-08-14T14:48:37Z</time>
      </trkpt>
      <trkpt lat="45.02202" lon="6.06873">
        <ele>761</ele>
        <time>2024-08-14T14:48:38Z</time>
      </trkpt>
      <trkpt lat="45.02205" lon="6.06874">
        <ele>761</ele>
        <time>2024-08-14T14:48:39Z</time>
      </trkpt>
      <trkpt lat="45.02205" lon="6.06874">
        <ele>761</ele>
        <time>2024-08-14T14:48:40Z</time>
      </trkpt>
      <trkpt lat="45.02208" lon="6.06875">
        <ele>761</ele>
        <time>2024-08-14T14:48:41Z</time>
      </trkpt>
      <trkpt lat="45.02208" lon="6.06875">
        <ele>760.8</ele>
        <time>2024-08-14T14:48:42Z</time>
      </trkpt>
      <trkpt lat="45.0221" lon="6.06877">
        <ele>760.8</ele>
        <time>2024-08-14T14:48:43Z</time>
      </trkpt>
      <trkpt lat="45.0221" lon="6.06877">
        <ele>760.8</ele>
        <time>2024-08-14T14:48:44Z</time>
      </trkpt>
      <trkpt lat="45.02213" lon="6.06879">
        <ele>760.8</ele>
        <time>2024-08-14T14:48:45Z</time>
      </trkpt>
      <trkpt lat="45.02213" lon="6.06879">
        <ele>761.2</ele>
        <time>2024-08-14T14:48:46Z</time>
      </trkpt>
      <trkpt lat="45.02216" lon="6.06881">
        <ele>761.2</ele>
        <time>2024-08-14T14:48:47Z</time>
      </trkpt>
      <trkpt lat="45.02216" lon="6.06881">
        <ele>761</ele>
        <time>2024-08-14T14:48:48Z</time>
      </trkpt>
      <trkpt lat="45.02218" lon="6.06883">
        <ele>761</ele>
        <time>2024-08-14T14:48:49Z</time>
      </trkpt>
      <trkpt lat="45.02218" lon="6.06883">
        <ele>761</ele>
        <time>2024-08-14T14:48:50Z</time>
      </trkpt>
      <trkpt lat="45.02218" lon="6.06883">
        <ele>761</ele>
        <time>2024-08-14T14:48:51Z</time>
      </trkpt>
      <trkpt lat="45.02222" lon="6.06885">
        <ele>761</ele>
        <time>2024-08-14T14:48:52Z</time>
      </trkpt>
      <trkpt lat="45.02224" lon="6.06885">
        <ele>761</ele>
        <time>2024-08-14T14:48:53Z</time>
      </trkpt>
      <trkpt lat="45.02224" lon="6.06885">
        <ele>761</ele>
        <time>2024-08-14T14:48:54Z</time>
      </trkpt>
      <trkpt lat="45.02227" lon="6.06886">
        <ele>761</ele>
        <time>2024-08-14T14:48:55Z</time>
      </trkpt>
      <trkpt lat="45.02228" lon="6.06887">
        <ele>761.4</ele>
        <time>2024-08-14T14:48:56Z</time>
      </trkpt>
      <trkpt lat="45.02228" lon="6.06887">
        <ele>761.4</ele>
        <time>2024-08-14T14:48:57Z</time>
      </trkpt>
      <trkpt lat="45.0223" lon="6.06888">
        <ele>761.4</ele>
        <time>2024-08-14T14:48:58Z</time>
      </trkpt>
      <trkpt lat="45.0223" lon="6.06888">
        <ele>761.4</ele>
        <time>2024-08-14T14:48:59Z</time>
      </trkpt>
      <trkpt lat="45.02233" lon="6.0689">
        <ele>761.2</ele>
        <time>2024-08-14T14:49:00Z</time>
      </trkpt>
      <trkpt lat="45.02233" lon="6.0689">
        <ele>761.2</ele>
        <time>2024-08-14T14:49:01Z</time>
      </trkpt>
      <trkpt lat="45.02236" lon="6.06893">
        <ele>761.4</ele>
        <time>2024-08-14T14:49:02Z</time>
      </trkpt>
      <trkpt lat="45.02238" lon="6.06894">
        <ele>761.4</ele>
        <time>2024-08-14T14:49:03Z</time>
      </trkpt>
      <trkpt lat="45.02238" lon="6.06894">
        <ele>761.4</ele>
        <time>2024-08-14T14:49:04Z</time>
      </trkpt>
      <trkpt lat="45.0224" lon="6.06897">
        <ele>761.4</ele>
        <time>2024-08-14T14:49:05Z</time>
      </trkpt>
      <trkpt lat="45.02242" lon="6.06898">
        <ele>761.4</ele>
        <time>2024-08-14T14:49:06Z</time>
      </trkpt>
      <trkpt lat="45.02242" lon="6.06898">
        <ele>761.4</ele>
        <time>2024-08-14T14:49:07Z</time>
      </trkpt>
      <trkpt lat="45.02244" lon="6.069">
        <ele>761.4</ele>
        <time>2024-08-14T14:49:08Z</time>
      </trkpt>
      <trkpt lat="45.02244" lon="6.069">
        <ele>761.4</ele>
        <time>2024-08-14T14:49:09Z</time>
      </trkpt>
      <trkpt lat="45.02244" lon="6.069">
        <ele>761.6</ele>
        <time>2024-08-14T14:49:10Z</time>
      </trkpt>
      <trkpt lat="45.02244" lon="6.069">
        <ele>761.6</ele>
        <time>2024-08-14T14:49:11Z</time>
      </trkpt>
      <trkpt lat="45.02244" lon="6.069">
        <ele>761.6</ele>
        <time>2024-08-14T14:49:12Z</time>
      </trkpt>
      <trkpt lat="45.02244" lon="6.069">
        <ele>761.6</ele>
        <time>2024-08-14T14:49:13Z</time>
      </trkpt>
      <trkpt lat="45.02244" lon="6.069">
        <ele>761.6</ele>
        <time>2024-08-14T14:49:14Z</time>
      </trkpt>
      <trkpt lat="45.02244" lon="6.069">
        <ele>761.6</ele>
        <time>2024-08-14T14:49:15Z</time>
      </trkpt>
      <trkpt lat="45.02244" lon="6.069">
        <ele>761.6</ele>
        <time>2024-08-14T14:49:16Z</time>
      </trkpt>
      <trkpt lat="45.02244" lon="6.069">
        <ele>761.4</ele>
        <time>2024-08-14T14:49:17Z</time>
      </trkpt>
      <trkpt lat="45.02244" lon="6.069">
        <ele>761.4</ele>
        <time>2024-08-14T14:49:18Z</time>
      </trkpt>
      <trkpt lat="45.02244" lon="6.069">
        <ele>761.4</ele>
        <time>2024-08-14T14:49:19Z</time>
      </trkpt>
      <trkpt lat="45.02244" lon="6.069">
        <ele>761.6</ele>
        <time>2024-08-14T14:49:20Z</time>
      </trkpt>
      <trkpt lat="45.02244" lon="6.069">
        <ele>761.6</ele>
        <time>2024-08-14T14:49:21Z</time>
      </trkpt>
      <trkpt lat="45.02244" lon="6.069">
        <ele>761.6</ele>
        <time>2024-08-14T14:49:22Z</time>
      </trkpt>
      <trkpt lat="45.02244" lon="6.069">
        <ele>761.6</ele>
        <time>2024-08-14T14:49:23Z</time>
      </trkpt>
      <trkpt lat="45.02244" lon="6.069">
        <ele>761.6</ele>
        <time>2024-08-14T14:49:24Z</time>
      </trkpt>
      <trkpt lat="45.02244" lon="6.069">
        <ele>761.6</ele>
        <time>2024-08-14T14:49:25Z</time>
      </trkpt>
      <trkpt lat="45.02244" lon="6.06903">
        <ele>761.6</ele>
        <time>2024-08-14T14:49:26Z</time>
      </trkpt>
      <trkpt lat="45.02244" lon="6.06903">
        <ele>761.6</ele>
        <time>2024-08-14T14:49:27Z</time>
      </trkpt>
      <trkpt lat="45.02245" lon="6.06904">
        <ele>761.4</ele>
        <time>2024-08-14T14:49:28Z</time>
      </trkpt>
      <trkpt lat="45.02245" lon="6.06904">
        <ele>761.4</ele>
        <time>2024-08-14T14:49:29Z</time>
      </trkpt>
      <trkpt lat="45.02247" lon="6.06905">
        <ele>761.4</ele>
        <time>2024-08-14T14:49:30Z</time>
      </trkpt>
      <trkpt lat="45.02247" lon="6.06905">
        <ele>761.4</ele>
        <time>2024-08-14T14:49:31Z</time>
      </trkpt>
      <trkpt lat="45.0225" lon="6.06907">
        <ele>761.4</ele>
        <time>2024-08-14T14:49:32Z</time>
      </trkpt>
      <trkpt lat="45.0225" lon="6.06907">
        <ele>761.4</ele>
        <time>2024-08-14T14:49:33Z</time>
      </trkpt>
      <trkpt lat="45.02252" lon="6.06908">
        <ele>761.4</ele>
        <time>2024-08-14T14:49:34Z</time>
      </trkpt>
      <trkpt lat="45.02252" lon="6.06908">
        <ele>761.4</ele>
        <time>2024-08-14T14:49:35Z</time>
      </trkpt>
      <trkpt lat="45.02252" lon="6.06908">
        <ele>761.4</ele>
        <time>2024-08-14T14:49:36Z</time>
      </trkpt>
      <trkpt lat="45.02254" lon="6.0691">
        <ele>761.4</ele>
        <time>2024-08-14T14:49:37Z</time>
      </trkpt>
      <trkpt lat="45.02254" lon="6.0691">
        <ele>761.4</ele>
        <time>2024-08-14T14:49:38Z</time>
      </trkpt>
      <trkpt lat="45.02254" lon="6.0691">
        <ele>761.4</ele>
        <time>2024-08-14T14:49:39Z</time>
      </trkpt>
      <trkpt lat="45.02254" lon="6.0691">
        <ele>761.4</ele>
        <time>2024-08-14T14:49:40Z</time>
      </trkpt>
      <trkpt lat="45.02254" lon="6.0691">
        <ele>761.4</ele>
        <time>2024-08-14T14:49:41Z</time>
      </trkpt>
      <trkpt lat="45.02254" lon="6.0691">
        <ele>761.4</ele>
        <time>2024-08-14T14:49:42Z</time>
      </trkpt>
      <trkpt lat="45.02254" lon="6.0691">
        <ele>761.4</ele>
        <time>2024-08-14T14:49:43Z</time>
      </trkpt>
      <trkpt lat="45.02254" lon="6.0691">
        <ele>761.4</ele>
        <time>2024-08-14T14:49:44Z</time>
      </trkpt>
      <trkpt lat="45.02254" lon="6.0691">
        <ele>761.4</ele>
        <time>2024-08-14T14:49:45Z</time>
      </trkpt>
      <trkpt lat="45.02254" lon="6.0691">
        <ele>761.4</ele>
        <time>2024-08-14T14:49:46Z</time>
      </trkpt>
      <trkpt lat="45.02254" lon="6.0691">
        <ele>761.4</ele>
        <time>2024-08-14T14:49:47Z</time>
      </trkpt>
      <trkpt lat="45.02254" lon="6.0691">
        <ele>761.4</ele>
        <time>2024-08-14T14:49:48Z</time>
      </trkpt>
      <trkpt lat="45.02254" lon="6.0691">
        <ele>761.4</ele>
        <time>2024-08-14T14:49:49Z</time>
      </trkpt>
      <trkpt lat="45.02254" lon="6.0691">
        <ele>761.4</ele>
        <time>2024-08-14T14:49:50Z</time>
      </trkpt>
      <trkpt lat="45.02254" lon="6.0691">
        <ele>761.2</ele>
        <time>2024-08-14T14:49:51Z</time>
      </trkpt>
      <trkpt lat="45.02254" lon="6.0691">
        <ele>761.2</ele>
        <time>2024-08-14T14:49:52Z</time>
      </trkpt>
      <trkpt lat="45.02254" lon="6.0691">
        <ele>761.2</ele>
        <time>2024-08-14T14:49:53Z</time>
      </trkpt>
      <trkpt lat="45.02254" lon="6.0691">
        <ele>761.2</ele>
        <time>2024-08-14T14:49:54Z</time>
      </trkpt>
      <trkpt lat="45.02254" lon="6.0691">
        <ele>761.4</ele>
        <time>2024-08-14T14:49:55Z</time>
      </trkpt>
      <trkpt lat="45.02254" lon="6.0691">
        <ele>761.4</ele>
        <time>2024-08-14T14:49:56Z</time>
      </trkpt>
      <trkpt lat="45.02254" lon="6.0691">
        <ele>761.2</ele>
        <time>2024-08-14T14:49:57Z</time>
      </trkpt>
      <trkpt lat="45.02254" lon="6.0691">
        <ele>761.2</ele>
        <time>2024-08-14T14:49:58Z</time>
      </trkpt>
      <trkpt lat="45.02254" lon="6.0691">
        <ele>761.2</ele>
        <time>2024-08-14T14:49:59Z</time>
      </trkpt>
      <trkpt lat="45.02254" lon="6.0691">
        <ele>761.2</ele>
        <time>2024-08-14T14:50:00Z</time>
      </trkpt>
      <trkpt lat="45.02254" lon="6.0691">
        <ele>761.2</ele>
        <time>2024-08-14T14:50:01Z</time>
      </trkpt>
      <trkpt lat="45.02254" lon="6.0691">
        <ele>761.4</ele>
        <time>2024-08-14T14:50:02Z</time>
      </trkpt>
      <trkpt lat="45.02254" lon="6.0691">
        <ele>761.4</ele>
        <time>2024-08-14T14:50:03Z</time>
      </trkpt>
      <trkpt lat="45.02254" lon="6.0691">
        <ele>761.4</ele>
        <time>2024-08-14T14:50:04Z</time>
      </trkpt>
      <trkpt lat="45.02254" lon="6.0691">
        <ele>761.2</ele>
        <time>2024-08-14T14:50:05Z</time>
      </trkpt>
      <trkpt lat="45.02254" lon="6.0691">
        <ele>761.2</ele>
        <time>2024-08-14T14:50:06Z</time>
      </trkpt>
      <trkpt lat="45.02254" lon="6.0691">
        <ele>761.2</ele>
        <time>2024-08-14T14:50:07Z</time>
      </trkpt>
      <trkpt lat="45.02254" lon="6.0691">
        <ele>761.2</ele>
        <time>2024-08-14T14:50:08Z</time>
      </trkpt>
      <trkpt lat="45.02254" lon="6.0691">
        <ele>761.2</ele>
        <time>2024-08-14T14:50:09Z</time>
      </trkpt>
      <trkpt lat="45.02254" lon="6.0691">
        <ele>761.2</ele>
        <time>2024-08-14T14:50:10Z</time>
      </trkpt>
      <trkpt lat="45.02254" lon="6.0691">
        <ele>761.4</ele>
        <time>2024-08-14T14:50:11Z</time>
      </trkpt>
      <trkpt lat="45.02254" lon="6.0691">
        <ele>761.4</ele>
        <time>2024-08-14T14:50:12Z</time>
      </trkpt>
      <trkpt lat="45.02254" lon="6.0691">
        <ele>761.4</ele>
        <time>2024-08-14T14:50:13Z</time>
      </trkpt>
      <trkpt lat="45.02254" lon="6.0691">
        <ele>761.4</ele>
        <time>2024-08-14T14:50:14Z</time>
      </trkpt>
      <trkpt lat="45.02254" lon="6.0691">
        <ele>761.4</ele>
        <time>2024-08-14T14:50:15Z</time>
      </trkpt>
      <trkpt lat="45.02254" lon="6.0691">
        <ele>761.2</ele>
        <time>2024-08-14T14:50:16Z</time>
      </trkpt>
      <trkpt lat="45.02254" lon="6.06913">
        <ele>761.2</ele>
        <time>2024-08-14T14:50:17Z</time>
      </trkpt>
      <trkpt lat="45.02256" lon="6.06914">
        <ele>761.2</ele>
        <time>2024-08-14T14:50:18Z</time>
      </trkpt>
      <trkpt lat="45.02256" lon="6.06914">
        <ele>761.2</ele>
        <time>2024-08-14T14:50:19Z</time>
      </trkpt>
      <trkpt lat="45.02256" lon="6.06914">
        <ele>761</ele>
        <time>2024-08-14T14:50:20Z</time>
      </trkpt>
      <trkpt lat="45.02261" lon="6.06919">
        <ele>761</ele>
        <time>2024-08-14T14:50:21Z</time>
      </trkpt>
      <trkpt lat="45.02262" lon="6.06921">
        <ele>761.4</ele>
        <time>2024-08-14T14:50:22Z</time>
      </trkpt>
      <trkpt lat="45.02264" lon="6.06922">
        <ele>761.4</ele>
        <time>2024-08-14T14:50:23Z</time>
      </trkpt>
      <trkpt lat="45.02264" lon="6.06922">
        <ele>761.2</ele>
        <time>2024-08-14T14:50:24Z</time>
      </trkpt>
      <trkpt lat="45.02266" lon="6.06924">
        <ele>761</ele>
        <time>2024-08-14T14:50:25Z</time>
      </trkpt>
      <trkpt lat="45.02266" lon="6.06924">
        <ele>761</ele>
        <time>2024-08-14T14:50:26Z</time>
      </trkpt>
      <trkpt lat="45.02266" lon="6.06924">
        <ele>761.2</ele>
        <time>2024-08-14T14:50:27Z</time>
      </trkpt>
      <trkpt lat="45.02269" lon="6.06927">
        <ele>761.4</ele>
        <time>2024-08-14T14:50:28Z</time>
      </trkpt>
      <trkpt lat="45.0227" lon="6.06929">
        <ele>761.4</ele>
        <time>2024-08-14T14:50:29Z</time>
      </trkpt>
      <trkpt lat="45.0227" lon="6.06929">
        <ele>761.4</ele>
        <time>2024-08-14T14:50:30Z</time>
      </trkpt>
      <trkpt lat="45.02272" lon="6.06931">
        <ele>761.2</ele>
        <time>2024-08-14T14:50:31Z</time>
      </trkpt>
      <trkpt lat="45.02272" lon="6.06931">
        <ele>761.2</ele>
        <time>2024-08-14T14:50:32Z</time>
      </trkpt>
      <trkpt lat="45.02274" lon="6.06934">
        <ele>761.2</ele>
        <time>2024-08-14T14:50:33Z</time>
      </trkpt>
      <trkpt lat="45.02274" lon="6.06934">
        <ele>761.2</ele>
        <time>2024-08-14T14:50:34Z</time>
      </trkpt>
      <trkpt lat="45.02277" lon="6.06936">
        <ele>761.2</ele>
        <time>2024-08-14T14:50:35Z</time>
      </trkpt>
      <trkpt lat="45.02277" lon="6.06936">
        <ele>761.2</ele>
        <time>2024-08-14T14:50:36Z</time>
      </trkpt>
      <trkpt lat="45.02278" lon="6.06938">
        <ele>761.2</ele>
        <time>2024-08-14T14:50:37Z</time>
      </trkpt>
      <trkpt lat="45.02278" lon="6.06938">
        <ele>761.2</ele>
        <time>2024-08-14T14:50:38Z</time>
      </trkpt>
      <trkpt lat="45.02281" lon="6.0694">
        <ele>761.2</ele>
        <time>2024-08-14T14:50:39Z</time>
      </trkpt>
      <trkpt lat="45.02281" lon="6.0694">
        <ele>761.2</ele>
        <time>2024-08-14T14:50:40Z</time>
      </trkpt>
      <trkpt lat="45.02283" lon="6.06942">
        <ele>761.2</ele>
        <time>2024-08-14T14:50:41Z</time>
      </trkpt>
      <trkpt lat="45.02283" lon="6.06942">
        <ele>761.2</ele>
        <time>2024-08-14T14:50:42Z</time>
      </trkpt>
      <trkpt lat="45.02286" lon="6.06944">
        <ele>761.4</ele>
        <time>2024-08-14T14:50:43Z</time>
      </trkpt>
      <trkpt lat="45.02286" lon="6.06944">
        <ele>761.4</ele>
        <time>2024-08-14T14:50:44Z</time>
      </trkpt>
      <trkpt lat="45.02289" lon="6.06947">
        <ele>761.4</ele>
        <time>2024-08-14T14:50:45Z</time>
      </trkpt>
      <trkpt lat="45.0229" lon="6.06948">
        <ele>761.4</ele>
        <time>2024-08-14T14:50:46Z</time>
      </trkpt>
      <trkpt lat="45.0229" lon="6.06948">
        <ele>761.4</ele>
        <time>2024-08-14T14:50:47Z</time>
      </trkpt>
      <trkpt lat="45.02292" lon="6.0695">
        <ele>761.4</ele>
        <time>2024-08-14T14:50:48Z</time>
      </trkpt>
      <trkpt lat="45.02292" lon="6.0695">
        <ele>761.4</ele>
        <time>2024-08-14T14:50:49Z</time>
      </trkpt>
      <trkpt lat="45.02294" lon="6.06953">
        <ele>761.4</ele>
        <time>2024-08-14T14:50:50Z</time>
      </trkpt>
      <trkpt lat="45.02294" lon="6.06953">
        <ele>761.4</ele>
        <time>2024-08-14T14:50:51Z</time>
      </trkpt>
      <trkpt lat="45.02296" lon="6.06956">
        <ele>761.4</ele>
        <time>2024-08-14T14:50:52Z</time>
      </trkpt>
      <trkpt lat="45.02296" lon="6.06956">
        <ele>761.6</ele>
        <time>2024-08-14T14:50:53Z</time>
      </trkpt>
      <trkpt lat="45.02298" lon="6.06958">
        <ele>761.6</ele>
        <time>2024-08-14T14:50:54Z</time>
      </trkpt>
      <trkpt lat="45.02298" lon="6.06958">
        <ele>761.6</ele>
        <time>2024-08-14T14:50:55Z</time>
      </trkpt>
      <trkpt lat="45.02301" lon="6.0696">
        <ele>761.4</ele>
        <time>2024-08-14T14:50:56Z</time>
      </trkpt>
      <trkpt lat="45.02301" lon="6.0696">
        <ele>761.4</ele>
        <time>2024-08-14T14:50:57Z</time>
      </trkpt>
      <trkpt lat="45.02301" lon="6.0696">
        <ele>761.6</ele>
        <time>2024-08-14T14:50:58Z</time>
      </trkpt>
      <trkpt lat="45.02304" lon="6.06964">
        <ele>761.6</ele>
        <time>2024-08-14T14:50:59Z</time>
      </trkpt>
      <trkpt lat="45.02305" lon="6.06965">
        <ele>761.6</ele>
        <time>2024-08-14T14:51:00Z</time>
      </trkpt>
      <trkpt lat="45.02305" lon="6.06965">
        <ele>761.6</ele>
        <time>2024-08-14T14:51:01Z</time>
      </trkpt>
      <trkpt lat="45.02308" lon="6.06967">
        <ele>761.4</ele>
        <time>2024-08-14T14:51:02Z</time>
      </trkpt>
      <trkpt lat="45.02308" lon="6.06967">
        <ele>761.4</ele>
        <time>2024-08-14T14:51:03Z</time>
      </trkpt>
      <trkpt lat="45.02309" lon="6.0697">
        <ele>761.4</ele>
        <time>2024-08-14T14:51:04Z</time>
      </trkpt>
      <trkpt lat="45.02309" lon="6.0697">
        <ele>761.6</ele>
        <time>2024-08-14T14:51:05Z</time>
      </trkpt>
      <trkpt lat="45.02311" lon="6.06973">
        <ele>761.6</ele>
        <time>2024-08-14T14:51:06Z</time>
      </trkpt>
      <trkpt lat="45.02311" lon="6.06973">
        <ele>761.6</ele>
        <time>2024-08-14T14:51:07Z</time>
      </trkpt>
      <trkpt lat="45.02314" lon="6.06975">
        <ele>761.6</ele>
        <time>2024-08-14T14:51:08Z</time>
      </trkpt>
      <trkpt lat="45.02314" lon="6.06975">
        <ele>761.6</ele>
        <time>2024-08-14T14:51:09Z</time>
      </trkpt>
      <trkpt lat="45.02317" lon="6.06978">
        <ele>761.6</ele>
        <time>2024-08-14T14:51:10Z</time>
      </trkpt>
      <trkpt lat="45.02318" lon="6.06979">
        <ele>761.6</ele>
        <time>2024-08-14T14:51:11Z</time>
      </trkpt>
      <trkpt lat="45.02318" lon="6.06979">
        <ele>761.6</ele>
        <time>2024-08-14T14:51:12Z</time>
      </trkpt>
      <trkpt lat="45.0232" lon="6.06982">
        <ele>761.6</ele>
        <time>2024-08-14T14:51:13Z</time>
      </trkpt>
      <trkpt lat="45.02322" lon="6.06984">
        <ele>761.2</ele>
        <time>2024-08-14T14:51:14Z</time>
      </trkpt>
      <trkpt lat="45.02322" lon="6.06984">
        <ele>761.2</ele>
        <time>2024-08-14T14:51:15Z</time>
      </trkpt>
      <trkpt lat="45.02324" lon="6.06986">
        <ele>761.4</ele>
        <time>2024-08-14T14:51:16Z</time>
      </trkpt>
      <trkpt lat="45.02324" lon="6.06986">
        <ele>761.4</ele>
        <time>2024-08-14T14:51:17Z</time>
      </trkpt>
      <trkpt lat="45.02326" lon="6.06988">
        <ele>761.4</ele>
        <time>2024-08-14T14:51:18Z</time>
      </trkpt>
      <trkpt lat="45.02326" lon="6.06988">
        <ele>761.4</ele>
        <time>2024-08-14T14:51:19Z</time>
      </trkpt>
      <trkpt lat="45.02329" lon="6.06989">
        <ele>761.4</ele>
        <time>2024-08-14T14:51:20Z</time>
      </trkpt>
      <trkpt lat="45.02329" lon="6.06989">
        <ele>761.2</ele>
        <time>2024-08-14T14:51:21Z</time>
      </trkpt>
      <trkpt lat="45.02331" lon="6.0699">
        <ele>761.2</ele>
        <time>2024-08-14T14:51:22Z</time>
      </trkpt>
      <trkpt lat="45.02331" lon="6.0699">
        <ele>761.2</ele>
        <time>2024-08-14T14:51:23Z</time>
      </trkpt>
      <trkpt lat="45.02333" lon="6.06992">
        <ele>761</ele>
        <time>2024-08-14T14:51:24Z</time>
      </trkpt>
      <trkpt lat="45.02333" lon="6.06992">
        <ele>760.8</ele>
        <time>2024-08-14T14:51:25Z</time>
      </trkpt>
      <trkpt lat="45.02336" lon="6.06995">
        <ele>761</ele>
        <time>2024-08-14T14:51:26Z</time>
      </trkpt>
      <trkpt lat="45.02337" lon="6.06997">
        <ele>761</ele>
        <time>2024-08-14T14:51:27Z</time>
      </trkpt>
      <trkpt lat="45.02337" lon="6.06997">
        <ele>761</ele>
        <time>2024-08-14T14:51:28Z</time>
      </trkpt>
      <trkpt lat="45.0234" lon="6.06999">
        <ele>761</ele>
        <time>2024-08-14T14:51:29Z</time>
      </trkpt>
      <trkpt lat="45.0234" lon="6.06999">
        <ele>761</ele>
        <time>2024-08-14T14:51:30Z</time>
      </trkpt>
      <trkpt lat="45.02341" lon="6.07002">
        <ele>761</ele>
        <time>2024-08-14T14:51:31Z</time>
      </trkpt>
      <trkpt lat="45.02341" lon="6.07002">
        <ele>761</ele>
        <time>2024-08-14T14:51:32Z</time>
      </trkpt>
      <trkpt lat="45.02341" lon="6.07002">
        <ele>761</ele>
        <time>2024-08-14T14:51:33Z</time>
      </trkpt>
      <trkpt lat="45.02345" lon="6.07006">
        <ele>761.2</ele>
        <time>2024-08-14T14:51:34Z</time>
      </trkpt>
      <trkpt lat="45.02346" lon="6.07007">
        <ele>761.4</ele>
        <time>2024-08-14T14:51:35Z</time>
      </trkpt>
      <trkpt lat="45.02346" lon="6.07007">
        <ele>761.4</ele>
        <time>2024-08-14T14:51:36Z</time>
      </trkpt>
      <trkpt lat="45.02346" lon="6.07007">
        <ele>761.4</ele>
        <time>2024-08-14T14:51:37Z</time>
      </trkpt>
      <trkpt lat="45.0235" lon="6.0701">
        <ele>761.4</ele>
        <time>2024-08-14T14:51:38Z</time>
      </trkpt>
      <trkpt lat="45.02351" lon="6.07011">
        <ele>761.4</ele>
        <time>2024-08-14T14:51:39Z</time>
      </trkpt>
      <trkpt lat="45.02353" lon="6.07012">
        <ele>761.2</ele>
        <time>2024-08-14T14:51:40Z</time>
      </trkpt>
      <trkpt lat="45.02353" lon="6.07012">
        <ele>761.2</ele>
        <time>2024-08-14T14:51:41Z</time>
      </trkpt>
      <trkpt lat="45.02355" lon="6.07014">
        <ele>761.2</ele>
        <time>2024-08-14T14:51:42Z</time>
      </trkpt>
      <trkpt lat="45.02355" lon="6.07014">
        <ele>761</ele>
        <time>2024-08-14T14:51:43Z</time>
      </trkpt>
      <trkpt lat="45.02355" lon="6.07014">
        <ele>761</ele>
        <time>2024-08-14T14:51:44Z</time>
      </trkpt>
      <trkpt lat="45.02358" lon="6.07016">
        <ele>761</ele>
        <time>2024-08-14T14:51:45Z</time>
      </trkpt>
      <trkpt lat="45.02359" lon="6.07017">
        <ele>761</ele>
        <time>2024-08-14T14:51:46Z</time>
      </trkpt>
      <trkpt lat="45.02359" lon="6.07017">
        <ele>761</ele>
        <time>2024-08-14T14:51:47Z</time>
      </trkpt>
      <trkpt lat="45.02359" lon="6.07017">
        <ele>761</ele>
        <time>2024-08-14T14:51:48Z</time>
      </trkpt>
      <trkpt lat="45.02363" lon="6.07018">
        <ele>761</ele>
        <time>2024-08-14T14:51:49Z</time>
      </trkpt>
      <trkpt lat="45.02364" lon="6.07018">
        <ele>760.8</ele>
        <time>2024-08-14T14:51:50Z</time>
      </trkpt>
      <trkpt lat="45.02365" lon="6.07018">
        <ele>760.8</ele>
        <time>2024-08-14T14:51:51Z</time>
      </trkpt>
      <trkpt lat="45.02365" lon="6.07018">
        <ele>760.8</ele>
        <time>2024-08-14T14:51:52Z</time>
      </trkpt>
      <trkpt lat="45.02368" lon="6.07018">
        <ele>760.8</ele>
        <time>2024-08-14T14:51:53Z</time>
      </trkpt>
      <trkpt lat="45.02368" lon="6.07018">
        <ele>760.8</ele>
        <time>2024-08-14T14:51:54Z</time>
      </trkpt>
      <trkpt lat="45.0237" lon="6.0702">
        <ele>760.8</ele>
        <time>2024-08-14T14:51:55Z</time>
      </trkpt>
      <trkpt lat="45.0237" lon="6.0702">
        <ele>760.8</ele>
        <time>2024-08-14T14:51:56Z</time>
      </trkpt>
      <trkpt lat="45.02372" lon="6.07022">
        <ele>761</ele>
        <time>2024-08-14T14:51:57Z</time>
      </trkpt>
      <trkpt lat="45.02372" lon="6.07022">
        <ele>761</ele>
        <time>2024-08-14T14:51:58Z</time>
      </trkpt>
      <trkpt lat="45.02375" lon="6.07023">
        <ele>761</ele>
        <time>2024-08-14T14:51:59Z</time>
      </trkpt>
      <trkpt lat="45.02375" lon="6.07023">
        <ele>761</ele>
        <time>2024-08-14T14:52:00Z</time>
      </trkpt>
      <trkpt lat="45.02377" lon="6.07025">
        <ele>761</ele>
        <time>2024-08-14T14:52:01Z</time>
      </trkpt>
      <trkpt lat="45.02377" lon="6.07025">
        <ele>761.2</ele>
        <time>2024-08-14T14:52:02Z</time>
      </trkpt>
      <trkpt lat="45.0238" lon="6.07026">
        <ele>761.2</ele>
        <time>2024-08-14T14:52:03Z</time>
      </trkpt>
      <trkpt lat="45.0238" lon="6.07026">
        <ele>761.4</ele>
        <time>2024-08-14T14:52:04Z</time>
      </trkpt>
      <trkpt lat="45.02382" lon="6.07027">
        <ele>761.4</ele>
        <time>2024-08-14T14:52:05Z</time>
      </trkpt>
      <trkpt lat="45.02382" lon="6.07027">
        <ele>761.2</ele>
        <time>2024-08-14T14:52:06Z</time>
      </trkpt>
      <trkpt lat="45.02385" lon="6.0703">
        <ele>761</ele>
        <time>2024-08-14T14:52:07Z</time>
      </trkpt>
      <trkpt lat="45.02385" lon="6.0703">
        <ele>761</ele>
        <time>2024-08-14T14:52:08Z</time>
      </trkpt>
      <trkpt lat="45.02388" lon="6.07032">
        <ele>761</ele>
        <time>2024-08-14T14:52:09Z</time>
      </trkpt>
      <trkpt lat="45.02388" lon="6.07032">
        <ele>761</ele>
        <time>2024-08-14T14:52:10Z</time>
      </trkpt>
      <trkpt lat="45.02391" lon="6.07033">
        <ele>761</ele>
        <time>2024-08-14T14:52:11Z</time>
      </trkpt>
      <trkpt lat="45.02391" lon="6.07033">
        <ele>761.6</ele>
        <time>2024-08-14T14:52:12Z</time>
      </trkpt>
      <trkpt lat="45.02393" lon="6.07034">
        <ele>761.6</ele>
        <time>2024-08-14T14:52:13Z</time>
      </trkpt>
      <trkpt lat="45.02393" lon="6.07034">
        <ele>761.4</ele>
        <time>2024-08-14T14:52:14Z</time>
      </trkpt>
      <trkpt lat="45.02397" lon="6.07037">
        <ele>761.4</ele>
        <time>2024-08-14T14:52:15Z</time>
      </trkpt>
      <trkpt lat="45.02397" lon="6.07037">
        <ele>761.4</ele>
        <time>2024-08-14T14:52:16Z</time>
      </trkpt>
      <trkpt lat="45.024" lon="6.0704">
        <ele>761.4</ele>
        <time>2024-08-14T14:52:17Z</time>
      </trkpt>
      <trkpt lat="45.024" lon="6.0704">
        <ele>761.2</ele>
        <time>2024-08-14T14:52:18Z</time>
      </trkpt>
      <trkpt lat="45.02402" lon="6.07042">
        <ele>761.2</ele>
        <time>2024-08-14T14:52:19Z</time>
      </trkpt>
      <trkpt lat="45.02402" lon="6.07042">
        <ele>761.2</ele>
        <time>2024-08-14T14:52:20Z</time>
      </trkpt>
      <trkpt lat="45.02405" lon="6.07044">
        <ele>761.4</ele>
        <time>2024-08-14T14:52:21Z</time>
      </trkpt>
      <trkpt lat="45.02405" lon="6.07044">
        <ele>761.4</ele>
        <time>2024-08-14T14:52:22Z</time>
      </trkpt>
      <trkpt lat="45.02408" lon="6.07046">
        <ele>761.4</ele>
        <time>2024-08-14T14:52:23Z</time>
      </trkpt>
      <trkpt lat="45.0241" lon="6.07047">
        <ele>761.4</ele>
        <time>2024-08-14T14:52:24Z</time>
      </trkpt>
      <trkpt lat="45.0241" lon="6.07047">
        <ele>761.4</ele>
        <time>2024-08-14T14:52:25Z</time>
      </trkpt>
      <trkpt lat="45.0241" lon="6.07047">
        <ele>761.2</ele>
        <time>2024-08-14T14:52:26Z</time>
      </trkpt>
      <trkpt lat="45.02414" lon="6.0705">
        <ele>761.2</ele>
        <time>2024-08-14T14:52:27Z</time>
      </trkpt>
      <trkpt lat="45.02415" lon="6.0705">
        <ele>761.6</ele>
        <time>2024-08-14T14:52:28Z</time>
      </trkpt>
      <trkpt lat="45.02415" lon="6.0705">
        <ele>761.6</ele>
        <time>2024-08-14T14:52:29Z</time>
      </trkpt>
      <trkpt lat="45.02417" lon="6.07052">
        <ele>761.6</ele>
        <time>2024-08-14T14:52:30Z</time>
      </trkpt>
      <trkpt lat="45.02417" lon="6.07052">
        <ele>761.6</ele>
        <time>2024-08-14T14:52:31Z</time>
      </trkpt>
      <trkpt lat="45.0242" lon="6.07053">
        <ele>761.4</ele>
        <time>2024-08-14T14:52:32Z</time>
      </trkpt>
      <trkpt lat="45.0242" lon="6.07053">
        <ele>761.4</ele>
        <time>2024-08-14T14:52:33Z</time>
      </trkpt>
      <trkpt lat="45.02422" lon="6.07055">
        <ele>761.4</ele>
        <time>2024-08-14T14:52:34Z</time>
      </trkpt>
      <trkpt lat="45.02424" lon="6.07056">
        <ele>761.4</ele>
        <time>2024-08-14T14:52:35Z</time>
      </trkpt>
      <trkpt lat="45.02424" lon="6.07056">
        <ele>761.4</ele>
        <time>2024-08-14T14:52:36Z</time>
      </trkpt>
      <trkpt lat="45.02427" lon="6.07058">
        <ele>761.6</ele>
        <time>2024-08-14T14:52:37Z</time>
      </trkpt>
      <trkpt lat="45.02427" lon="6.07058">
        <ele>761.6</ele>
        <time>2024-08-14T14:52:38Z</time>
      </trkpt>
      <trkpt lat="45.02427" lon="6.07058">
        <ele>761.6</ele>
        <time>2024-08-14T14:52:39Z</time>
      </trkpt>
      <trkpt lat="45.0243" lon="6.07061">
        <ele>761.6</ele>
        <time>2024-08-14T14:52:40Z</time>
      </trkpt>
      <trkpt lat="45.02431" lon="6.07062">
        <ele>761.6</ele>
        <time>2024-08-14T14:52:41Z</time>
      </trkpt>
      <trkpt lat="45.02433" lon="6.07064">
        <ele>761.6</ele>
        <time>2024-08-14T14:52:42Z</time>
      </trkpt>
      <trkpt lat="45.02433" lon="6.07064">
        <ele>761.6</ele>
        <time>2024-08-14T14:52:43Z</time>
      </trkpt>
      <trkpt lat="45.02435" lon="6.07065">
        <ele>761.6</ele>
        <time>2024-08-14T14:52:44Z</time>
      </trkpt>
      <trkpt lat="45.02435" lon="6.07065">
        <ele>761.8</ele>
        <time>2024-08-14T14:52:45Z</time>
      </trkpt>
      <trkpt lat="45.02437" lon="6.07067">
        <ele>761.8</ele>
        <time>2024-08-14T14:52:46Z</time>
      </trkpt>
      <trkpt lat="45.02437" lon="6.07067">
        <ele>761.8</ele>
        <time>2024-08-14T14:52:47Z</time>
      </trkpt>
      <trkpt lat="45.0244" lon="6.07067">
        <ele>761.8</ele>
        <time>2024-08-14T14:52:48Z</time>
      </trkpt>
      <trkpt lat="45.0244" lon="6.07067">
        <ele>761.8</ele>
        <time>2024-08-14T14:52:49Z</time>
      </trkpt>
      <trkpt lat="45.02443" lon="6.07069">
        <ele>762</ele>
        <time>2024-08-14T14:52:50Z</time>
      </trkpt>
      <trkpt lat="45.02446" lon="6.0707">
        <ele>762</ele>
        <time>2024-08-14T14:52:51Z</time>
      </trkpt>
      <trkpt lat="45.02448" lon="6.07072">
        <ele>761.8</ele>
        <time>2024-08-14T14:52:52Z</time>
      </trkpt>
      <trkpt lat="45.02448" lon="6.07072">
        <ele>761.8</ele>
        <time>2024-08-14T14:52:53Z</time>
      </trkpt>
      <trkpt lat="45.02451" lon="6.07074">
        <ele>761.8</ele>
        <time>2024-08-14T14:52:54Z</time>
      </trkpt>
      <trkpt lat="45.02451" lon="6.07074">
        <ele>761.8</ele>
        <time>2024-08-14T14:52:55Z</time>
      </trkpt>
      <trkpt lat="45.02454" lon="6.07076">
        <ele>761.8</ele>
        <time>2024-08-14T14:52:56Z</time>
      </trkpt>
      <trkpt lat="45.02455" lon="6.07077">
        <ele>761.8</ele>
        <time>2024-08-14T14:52:57Z</time>
      </trkpt>
      <trkpt lat="45.02455" lon="6.07077">
        <ele>761.6</ele>
        <time>2024-08-14T14:52:58Z</time>
      </trkpt>
      <trkpt lat="45.02457" lon="6.07079">
        <ele>761.6</ele>
        <time>2024-08-14T14:52:59Z</time>
      </trkpt>
      <trkpt lat="45.02457" lon="6.07079">
        <ele>761.8</ele>
        <time>2024-08-14T14:53:00Z</time>
      </trkpt>
      <trkpt lat="45.02457" lon="6.07079">
        <ele>762</ele>
        <time>2024-08-14T14:53:01Z</time>
      </trkpt>
      <trkpt lat="45.02459" lon="6.07081">
        <ele>762</ele>
        <time>2024-08-14T14:53:02Z</time>
      </trkpt>
      <trkpt lat="45.02459" lon="6.07081">
        <ele>762</ele>
        <time>2024-08-14T14:53:03Z</time>
      </trkpt>
      <trkpt lat="45.02462" lon="6.07082">
        <ele>761.8</ele>
        <time>2024-08-14T14:53:04Z</time>
      </trkpt>
      <trkpt lat="45.02462" lon="6.07082">
        <ele>761.6</ele>
        <time>2024-08-14T14:53:05Z</time>
      </trkpt>
      <trkpt lat="45.02464" lon="6.07082">
        <ele>761.6</ele>
        <time>2024-08-14T14:53:06Z</time>
      </trkpt>
      <trkpt lat="45.02464" lon="6.07082">
        <ele>761.8</ele>
        <time>2024-08-14T14:53:07Z</time>
      </trkpt>
      <trkpt lat="45.02467" lon="6.07084">
        <ele>761.8</ele>
        <time>2024-08-14T14:53:08Z</time>
      </trkpt>
      <trkpt lat="45.02467" lon="6.07084">
        <ele>762</ele>
        <time>2024-08-14T14:53:09Z</time>
      </trkpt>
      <trkpt lat="45.02469" lon="6.07085">
        <ele>762</ele>
        <time>2024-08-14T14:53:10Z</time>
      </trkpt>
      <trkpt lat="45.02469" lon="6.07085">
        <ele>762</ele>
        <time>2024-08-14T14:53:11Z</time>
      </trkpt>
      <trkpt lat="45.02472" lon="6.07086">
        <ele>762</ele>
        <time>2024-08-14T14:53:12Z</time>
      </trkpt>
      <trkpt lat="45.02472" lon="6.07086">
        <ele>762</ele>
        <time>2024-08-14T14:53:13Z</time>
      </trkpt>
      <trkpt lat="45.02474" lon="6.07088">
        <ele>762.2</ele>
        <time>2024-08-14T14:53:14Z</time>
      </trkpt>
      <trkpt lat="45.02474" lon="6.07088">
        <ele>762.2</ele>
        <time>2024-08-14T14:53:15Z</time>
      </trkpt>
      <trkpt lat="45.02477" lon="6.0709">
        <ele>762.2</ele>
        <time>2024-08-14T14:53:16Z</time>
      </trkpt>
      <trkpt lat="45.02479" lon="6.07091">
        <ele>762.2</ele>
        <time>2024-08-14T14:53:17Z</time>
      </trkpt>
      <trkpt lat="45.02479" lon="6.07091">
        <ele>762.2</ele>
        <time>2024-08-14T14:53:18Z</time>
      </trkpt>
      <trkpt lat="45.02482" lon="6.07093">
        <ele>762.2</ele>
        <time>2024-08-14T14:53:19Z</time>
      </trkpt>
      <trkpt lat="45.02482" lon="6.07093">
        <ele>762.2</ele>
        <time>2024-08-14T14:53:20Z</time>
      </trkpt>
      <trkpt lat="45.02485" lon="6.07094">
        <ele>762.2</ele>
        <time>2024-08-14T14:53:21Z</time>
      </trkpt>
      <trkpt lat="45.02485" lon="6.07094">
        <ele>762.2</ele>
        <time>2024-08-14T14:53:22Z</time>
      </trkpt>
      <trkpt lat="45.02488" lon="6.07095">
        <ele>762</ele>
        <time>2024-08-14T14:53:23Z</time>
      </trkpt>
      <trkpt lat="45.02488" lon="6.07095">
        <ele>762</ele>
        <time>2024-08-14T14:53:24Z</time>
      </trkpt>
      <trkpt lat="45.0249" lon="6.07096">
        <ele>762</ele>
        <time>2024-08-14T14:53:25Z</time>
      </trkpt>
      <trkpt lat="45.0249" lon="6.07096">
        <ele>762</ele>
        <time>2024-08-14T14:53:26Z</time>
      </trkpt>
      <trkpt lat="45.02493" lon="6.07097">
        <ele>762</ele>
        <time>2024-08-14T14:53:27Z</time>
      </trkpt>
      <trkpt lat="45.02495" lon="6.07098">
        <ele>762.2</ele>
        <time>2024-08-14T14:53:28Z</time>
      </trkpt>
      <trkpt lat="45.02497" lon="6.07099">
        <ele>762.2</ele>
        <time>2024-08-14T14:53:29Z</time>
      </trkpt>
      <trkpt lat="45.02497" lon="6.07099">
        <ele>762.4</ele>
        <time>2024-08-14T14:53:30Z</time>
      </trkpt>
      <trkpt lat="45.025" lon="6.071">
        <ele>762.4</ele>
        <time>2024-08-14T14:53:31Z</time>
      </trkpt>
      <trkpt lat="45.02502" lon="6.071">
        <ele>762.2</ele>
        <time>2024-08-14T14:53:32Z</time>
      </trkpt>
      <trkpt lat="45.02502" lon="6.071">
        <ele>762.2</ele>
        <time>2024-08-14T14:53:33Z</time>
      </trkpt>
      <trkpt lat="45.02504" lon="6.071">
        <ele>762.2</ele>
        <time>2024-08-14T14:53:34Z</time>
      </trkpt>
      <trkpt lat="45.02504" lon="6.071">
        <ele>762.2</ele>
        <time>2024-08-14T14:53:35Z</time>
      </trkpt>
      <trkpt lat="45.02508" lon="6.07103">
        <ele>762.2</ele>
        <time>2024-08-14T14:53:36Z</time>
      </trkpt>
      <trkpt lat="45.02509" lon="6.07103">
        <ele>762.2</ele>
        <time>2024-08-14T14:53:37Z</time>
      </trkpt>
      <trkpt lat="45.0251" lon="6.07103">
        <ele>762.4</ele>
        <time>2024-08-14T14:53:38Z</time>
      </trkpt>
      <trkpt lat="45.0251" lon="6.07103">
        <ele>762.4</ele>
        <time>2024-08-14T14:53:39Z</time>
      </trkpt>
      <trkpt lat="45.02512" lon="6.07104">
        <ele>762.6</ele>
        <time>2024-08-14T14:53:40Z</time>
      </trkpt>
      <trkpt lat="45.02512" lon="6.07104">
        <ele>762.6</ele>
        <time>2024-08-14T14:53:41Z</time>
      </trkpt>
      <trkpt lat="45.02516" lon="6.07105">
        <ele>762.4</ele>
        <time>2024-08-14T14:53:42Z</time>
      </trkpt>
      <trkpt lat="45.02516" lon="6.07105">
        <ele>762.4</ele>
        <time>2024-08-14T14:53:43Z</time>
      </trkpt>
      <trkpt lat="45.02518" lon="6.07106">
        <ele>762.6</ele>
        <time>2024-08-14T14:53:44Z</time>
      </trkpt>
      <trkpt lat="45.0252" lon="6.07106">
        <ele>762.6</ele>
        <time>2024-08-14T14:53:45Z</time>
      </trkpt>
      <trkpt lat="45.0252" lon="6.07106">
        <ele>762.6</ele>
        <time>2024-08-14T14:53:46Z</time>
      </trkpt>
      <trkpt lat="45.02522" lon="6.07107">
        <ele>762.6</ele>
        <time>2024-08-14T14:53:47Z</time>
      </trkpt>
      <trkpt lat="45.02524" lon="6.07107">
        <ele>762.6</ele>
        <time>2024-08-14T14:53:48Z</time>
      </trkpt>
      <trkpt lat="45.02524" lon="6.07107">
        <ele>762.8</ele>
        <time>2024-08-14T14:53:49Z</time>
      </trkpt>
      <trkpt lat="45.02524" lon="6.07107">
        <ele>762.8</ele>
        <time>2024-08-14T14:53:50Z</time>
      </trkpt>
      <trkpt lat="45.02528" lon="6.07108">
        <ele>763</ele>
        <time>2024-08-14T14:53:51Z</time>
      </trkpt>
      <trkpt lat="45.02529" lon="6.07108">
        <ele>763</ele>
        <time>2024-08-14T14:53:52Z</time>
      </trkpt>
      <trkpt lat="45.02529" lon="6.07108">
        <ele>763.2</ele>
        <time>2024-08-14T14:53:53Z</time>
      </trkpt>
      <trkpt lat="45.02532" lon="6.0711">
        <ele>763.2</ele>
        <time>2024-08-14T14:53:54Z</time>
      </trkpt>
      <trkpt lat="45.02532" lon="6.0711">
        <ele>763.2</ele>
        <time>2024-08-14T14:53:55Z</time>
      </trkpt>
      <trkpt lat="45.02534" lon="6.07111">
        <ele>763.2</ele>
        <time>2024-08-14T14:53:56Z</time>
      </trkpt>
      <trkpt lat="45.02534" lon="6.07111">
        <ele>763</ele>
        <time>2024-08-14T14:53:57Z</time>
      </trkpt>
      <trkpt lat="45.02537" lon="6.07112">
        <ele>763</ele>
        <time>2024-08-14T14:53:58Z</time>
      </trkpt>
      <trkpt lat="45.02537" lon="6.07112">
        <ele>763.2</ele>
        <time>2024-08-14T14:53:59Z</time>
      </trkpt>
      <trkpt lat="45.0254" lon="6.07112">
        <ele>763.2</ele>
        <time>2024-08-14T14:54:00Z</time>
      </trkpt>
      <trkpt lat="45.02541" lon="6.07113">
        <ele>763.2</ele>
        <time>2024-08-14T14:54:01Z</time>
      </trkpt>
      <trkpt lat="45.02541" lon="6.07113">
        <ele>763.4</ele>
        <time>2024-08-14T14:54:02Z</time>
      </trkpt>
      <trkpt lat="45.02541" lon="6.07113">
        <ele>763.6</ele>
        <time>2024-08-14T14:54:03Z</time>
      </trkpt>
      <trkpt lat="45.02545" lon="6.07115">
        <ele>763.4</ele>
        <time>2024-08-14T14:54:04Z</time>
      </trkpt>
      <trkpt lat="45.02546" lon="6.07115">
        <ele>763.4</ele>
        <time>2024-08-14T14:54:05Z</time>
      </trkpt>
      <trkpt lat="45.02546" lon="6.07115">
        <ele>763.8</ele>
        <time>2024-08-14T14:54:06Z</time>
      </trkpt>
      <trkpt lat="45.02546" lon="6.07115">
        <ele>763.8</ele>
        <time>2024-08-14T14:54:07Z</time>
      </trkpt>
      <trkpt lat="45.0255" lon="6.07116">
        <ele>763.6</ele>
        <time>2024-08-14T14:54:08Z</time>
      </trkpt>
      <trkpt lat="45.02552" lon="6.07117">
        <ele>763.6</ele>
        <time>2024-08-14T14:54:09Z</time>
      </trkpt>
      <trkpt lat="45.02552" lon="6.07117">
        <ele>763.6</ele>
        <time>2024-08-14T14:54:10Z</time>
      </trkpt>
      <trkpt lat="45.02555" lon="6.07119">
        <ele>763.6</ele>
        <time>2024-08-14T14:54:11Z</time>
      </trkpt>
      <trkpt lat="45.02555" lon="6.07119">
        <ele>763.4</ele>
        <time>2024-08-14T14:54:12Z</time>
      </trkpt>
      <trkpt lat="45.02558" lon="6.0712">
        <ele>763.6</ele>
        <time>2024-08-14T14:54:13Z</time>
      </trkpt>
      <trkpt lat="45.02558" lon="6.0712">
        <ele>763.8</ele>
        <time>2024-08-14T14:54:14Z</time>
      </trkpt>
      <trkpt lat="45.02558" lon="6.0712">
        <ele>763.8</ele>
        <time>2024-08-14T14:54:15Z</time>
      </trkpt>
      <trkpt lat="45.02562" lon="6.07121">
        <ele>763.8</ele>
        <time>2024-08-14T14:54:16Z</time>
      </trkpt>
      <trkpt lat="45.02564" lon="6.07121">
        <ele>763.8</ele>
        <time>2024-08-14T14:54:17Z</time>
      </trkpt>
      <trkpt lat="45.02564" lon="6.07121">
        <ele>763.8</ele>
        <time>2024-08-14T14:54:18Z</time>
      </trkpt>
      <trkpt lat="45.02566" lon="6.07122">
        <ele>763.8</ele>
        <time>2024-08-14T14:54:19Z</time>
      </trkpt>
      <trkpt lat="45.02566" lon="6.07122">
        <ele>763.8</ele>
        <time>2024-08-14T14:54:20Z</time>
      </trkpt>
      <trkpt lat="45.02571" lon="6.07124">
        <ele>763.8</ele>
        <time>2024-08-14T14:54:21Z</time>
      </trkpt>
      <trkpt lat="45.02572" lon="6.07124">
        <ele>763.8</ele>
        <time>2024-08-14T14:54:22Z</time>
      </trkpt>
      <trkpt lat="45.02572" lon="6.07124">
        <ele>763.8</ele>
        <time>2024-08-14T14:54:23Z</time>
      </trkpt>
      <trkpt lat="45.02574" lon="6.07126">
        <ele>764</ele>
        <time>2024-08-14T14:54:24Z</time>
      </trkpt>
      <trkpt lat="45.02574" lon="6.07126">
        <ele>764</ele>
        <time>2024-08-14T14:54:25Z</time>
      </trkpt>
      <trkpt lat="45.02577" lon="6.07127">
        <ele>764</ele>
        <time>2024-08-14T14:54:26Z</time>
      </trkpt>
      <trkpt lat="45.02577" lon="6.07127">
        <ele>764.2</ele>
        <time>2024-08-14T14:54:27Z</time>
      </trkpt>
      <trkpt lat="45.0258" lon="6.07127">
        <ele>764.2</ele>
        <time>2024-08-14T14:54:28Z</time>
      </trkpt>
      <trkpt lat="45.0258" lon="6.07127">
        <ele>764.2</ele>
        <time>2024-08-14T14:54:29Z</time>
      </trkpt>
      <trkpt lat="45.02582" lon="6.07129">
        <ele>764</ele>
        <time>2024-08-14T14:54:30Z</time>
      </trkpt>
      <trkpt lat="45.02582" lon="6.07129">
        <ele>764</ele>
        <time>2024-08-14T14:54:31Z</time>
      </trkpt>
      <trkpt lat="45.02585" lon="6.0713">
        <ele>764</ele>
        <time>2024-08-14T14:54:32Z</time>
      </trkpt>
      <trkpt lat="45.02585" lon="6.0713">
        <ele>764</ele>
        <time>2024-08-14T14:54:33Z</time>
      </trkpt>
      <trkpt lat="45.02588" lon="6.07131">
        <ele>764</ele>
        <time>2024-08-14T14:54:34Z</time>
      </trkpt>
      <trkpt lat="45.02588" lon="6.07131">
        <ele>764.2</ele>
        <time>2024-08-14T14:54:35Z</time>
      </trkpt>
      <trkpt lat="45.02591" lon="6.07132">
        <ele>764.2</ele>
        <time>2024-08-14T14:54:36Z</time>
      </trkpt>
      <trkpt lat="45.02592" lon="6.07132">
        <ele>764.4</ele>
        <time>2024-08-14T14:54:37Z</time>
      </trkpt>
      <trkpt lat="45.02594" lon="6.07133">
        <ele>764.4</ele>
        <time>2024-08-14T14:54:38Z</time>
      </trkpt>
      <trkpt lat="45.02594" lon="6.07133">
        <ele>764.4</ele>
        <time>2024-08-14T14:54:39Z</time>
      </trkpt>
      <trkpt lat="45.02596" lon="6.07133">
        <ele>764.4</ele>
        <time>2024-08-14T14:54:40Z</time>
      </trkpt>
      <trkpt lat="45.02596" lon="6.07133">
        <ele>764.4</ele>
        <time>2024-08-14T14:54:41Z</time>
      </trkpt>
      <trkpt lat="45.02596" lon="6.07133">
        <ele>764.4</ele>
        <time>2024-08-14T14:54:42Z</time>
      </trkpt>
      <trkpt lat="45.02599" lon="6.07135">
        <ele>764.4</ele>
        <time>2024-08-14T14:54:43Z</time>
      </trkpt>
      <trkpt lat="45.02601" lon="6.07136">
        <ele>764.4</ele>
        <time>2024-08-14T14:54:44Z</time>
      </trkpt>
      <trkpt lat="45.02601" lon="6.07136">
        <ele>764.4</ele>
        <time>2024-08-14T14:54:45Z</time>
      </trkpt>
      <trkpt lat="45.02604" lon="6.07137">
        <ele>764.6</ele>
        <time>2024-08-14T14:54:46Z</time>
      </trkpt>
      <trkpt lat="45.02604" lon="6.07137">
        <ele>764.6</ele>
        <time>2024-08-14T14:54:47Z</time>
      </trkpt>
      <trkpt lat="45.02607" lon="6.07138">
        <ele>764.8</ele>
        <time>2024-08-14T14:54:48Z</time>
      </trkpt>
      <trkpt lat="45.02607" lon="6.07138">
        <ele>764.8</ele>
        <time>2024-08-14T14:54:49Z</time>
      </trkpt>
      <trkpt lat="45.0261" lon="6.07139">
        <ele>764.6</ele>
        <time>2024-08-14T14:54:50Z</time>
      </trkpt>
      <trkpt lat="45.0261" lon="6.07139">
        <ele>764.6</ele>
        <time>2024-08-14T14:54:51Z</time>
      </trkpt>
      <trkpt lat="45.02613" lon="6.0714">
        <ele>764.8</ele>
        <time>2024-08-14T14:54:52Z</time>
      </trkpt>
      <trkpt lat="45.02613" lon="6.0714">
        <ele>764.8</ele>
        <time>2024-08-14T14:54:53Z</time>
      </trkpt>
      <trkpt lat="45.02615" lon="6.0714">
        <ele>764.8</ele>
        <time>2024-08-14T14:54:54Z</time>
      </trkpt>
      <trkpt lat="45.02615" lon="6.0714">
        <ele>764.8</ele>
        <time>2024-08-14T14:54:55Z</time>
      </trkpt>
      <trkpt lat="45.02618" lon="6.07141">
        <ele>765</ele>
        <time>2024-08-14T14:54:56Z</time>
      </trkpt>
      <trkpt lat="45.02618" lon="6.07141">
        <ele>765</ele>
        <time>2024-08-14T14:54:57Z</time>
      </trkpt>
      <trkpt lat="45.0262" lon="6.07143">
        <ele>765</ele>
        <time>2024-08-14T14:54:58Z</time>
      </trkpt>
      <trkpt lat="45.0262" lon="6.07143">
        <ele>765.2</ele>
        <time>2024-08-14T14:54:59Z</time>
      </trkpt>
      <trkpt lat="45.02623" lon="6.07144">
        <ele>765.4</ele>
        <time>2024-08-14T14:55:00Z</time>
      </trkpt>
      <trkpt lat="45.02625" lon="6.07145">
        <ele>765.6</ele>
        <time>2024-08-14T14:55:01Z</time>
      </trkpt>
      <trkpt lat="45.02627" lon="6.07146">
        <ele>765.6</ele>
        <time>2024-08-14T14:55:02Z</time>
      </trkpt>
      <trkpt lat="45.02627" lon="6.07146">
        <ele>765.6</ele>
        <time>2024-08-14T14:55:03Z</time>
      </trkpt>
      <trkpt lat="45.02629" lon="6.07146">
        <ele>765.6</ele>
        <time>2024-08-14T14:55:04Z</time>
      </trkpt>
      <trkpt lat="45.02631" lon="6.07146">
        <ele>765.2</ele>
        <time>2024-08-14T14:55:05Z</time>
      </trkpt>
      <trkpt lat="45.02631" lon="6.07146">
        <ele>765.2</ele>
        <time>2024-08-14T14:55:06Z</time>
      </trkpt>
      <trkpt lat="45.02635" lon="6.07147">
        <ele>765.2</ele>
        <time>2024-08-14T14:55:07Z</time>
      </trkpt>
      <trkpt lat="45.02635" lon="6.07147">
        <ele>765.2</ele>
        <time>2024-08-14T14:55:08Z</time>
      </trkpt>
      <trkpt lat="45.02637" lon="6.07148">
        <ele>765.2</ele>
        <time>2024-08-14T14:55:09Z</time>
      </trkpt>
      <trkpt lat="45.02637" lon="6.07148">
        <ele>765.2</ele>
        <time>2024-08-14T14:55:10Z</time>
      </trkpt>
      <trkpt lat="45.02642" lon="6.07149">
        <ele>765</ele>
        <time>2024-08-14T14:55:12Z</time>
      </trkpt>
      <trkpt lat="45.02643" lon="6.07149">
        <ele>765</ele>
        <time>2024-08-14T14:55:13Z</time>
      </trkpt>
      <trkpt lat="45.02643" lon="6.07149">
        <ele>765</ele>
        <time>2024-08-14T14:55:14Z</time>
      </trkpt>
      <trkpt lat="45.02643" lon="6.07149">
        <ele>765</ele>
        <time>2024-08-14T14:55:15Z</time>
      </trkpt>
      <trkpt lat="45.02648" lon="6.07148">
        <ele>765</ele>
        <time>2024-08-14T14:55:16Z</time>
      </trkpt>
      <trkpt lat="45.02649" lon="6.07148">
        <ele>765</ele>
        <time>2024-08-14T14:55:17Z</time>
      </trkpt>
      <trkpt lat="45.02649" lon="6.07148">
        <ele>765.2</ele>
        <time>2024-08-14T14:55:18Z</time>
      </trkpt>
      <trkpt lat="45.02653" lon="6.07148">
        <ele>765.2</ele>
        <time>2024-08-14T14:55:19Z</time>
      </trkpt>
      <trkpt lat="45.02653" lon="6.07148">
        <ele>765.2</ele>
        <time>2024-08-14T14:55:20Z</time>
      </trkpt>
      <trkpt lat="45.02655" lon="6.07148">
        <ele>765.2</ele>
        <time>2024-08-14T14:55:21Z</time>
      </trkpt>
      <trkpt lat="45.02655" lon="6.07148">
        <ele>765.2</ele>
        <time>2024-08-14T14:55:22Z</time>
      </trkpt>
      <trkpt lat="45.02658" lon="6.07147">
        <ele>765.2</ele>
        <time>2024-08-14T14:55:23Z</time>
      </trkpt>
      <trkpt lat="45.02658" lon="6.07147">
        <ele>765</ele>
        <time>2024-08-14T14:55:24Z</time>
      </trkpt>
      <trkpt lat="45.02661" lon="6.07148">
        <ele>765.2</ele>
        <time>2024-08-14T14:55:25Z</time>
      </trkpt>
      <trkpt lat="45.02661" lon="6.07148">
        <ele>765.2</ele>
        <time>2024-08-14T14:55:26Z</time>
      </trkpt>
      <trkpt lat="45.02665" lon="6.07148">
        <ele>765.2</ele>
        <time>2024-08-14T14:55:27Z</time>
      </trkpt>
      <trkpt lat="45.02667" lon="6.07148">
        <ele>765.2</ele>
        <time>2024-08-14T14:55:28Z</time>
      </trkpt>
      <trkpt lat="45.02669" lon="6.07149">
        <ele>765.4</ele>
        <time>2024-08-14T14:55:29Z</time>
      </trkpt>
      <trkpt lat="45.02669" lon="6.07149">
        <ele>765.4</ele>
        <time>2024-08-14T14:55:30Z</time>
      </trkpt>
      <trkpt lat="45.02672" lon="6.0715">
        <ele>765.2</ele>
        <time>2024-08-14T14:55:31Z</time>
      </trkpt>
      <trkpt lat="45.02672" lon="6.0715">
        <ele>765.2</ele>
        <time>2024-08-14T14:55:32Z</time>
      </trkpt>
      <trkpt lat="45.02672" lon="6.0715">
        <ele>765.4</ele>
        <time>2024-08-14T14:55:33Z</time>
      </trkpt>
      <trkpt lat="45.02677" lon="6.0715">
        <ele>765.4</ele>
        <time>2024-08-14T14:55:34Z</time>
      </trkpt>
      <trkpt lat="45.02678" lon="6.0715">
        <ele>765.4</ele>
        <time>2024-08-14T14:55:35Z</time>
      </trkpt>
      <trkpt lat="45.02678" lon="6.0715">
        <ele>765.4</ele>
        <time>2024-08-14T14:55:36Z</time>
      </trkpt>
      <trkpt lat="45.02678" lon="6.0715">
        <ele>765.4</ele>
        <time>2024-08-14T14:55:37Z</time>
      </trkpt>
      <trkpt lat="45.02681" lon="6.07149">
        <ele>765.4</ele>
        <time>2024-08-14T14:55:38Z</time>
      </trkpt>
      <trkpt lat="45.02683" lon="6.07149">
        <ele>765.6</ele>
        <time>2024-08-14T14:55:39Z</time>
      </trkpt>
      <trkpt lat="45.02683" lon="6.07149">
        <ele>765.6</ele>
        <time>2024-08-14T14:55:40Z</time>
      </trkpt>
      <trkpt lat="45.02686" lon="6.0715">
        <ele>765.6</ele>
        <time>2024-08-14T14:55:41Z</time>
      </trkpt>
      <trkpt lat="45.02686" lon="6.0715">
        <ele>765.6</ele>
        <time>2024-08-14T14:55:42Z</time>
      </trkpt>
      <trkpt lat="45.02689" lon="6.07149">
        <ele>765.6</ele>
        <time>2024-08-14T14:55:43Z</time>
      </trkpt>
      <trkpt lat="45.02689" lon="6.07149">
        <ele>765.6</ele>
        <time>2024-08-14T14:55:44Z</time>
      </trkpt>
      <trkpt lat="45.02692" lon="6.0715">
        <ele>765.6</ele>
        <time>2024-08-14T14:55:45Z</time>
      </trkpt>
      <trkpt lat="45.02693" lon="6.0715">
        <ele>765.4</ele>
        <time>2024-08-14T14:55:46Z</time>
      </trkpt>
      <trkpt lat="45.02693" lon="6.0715">
        <ele>765.4</ele>
        <time>2024-08-14T14:55:47Z</time>
      </trkpt>
      <trkpt lat="45.02696" lon="6.0715">
        <ele>765.6</ele>
        <time>2024-08-14T14:55:48Z</time>
      </trkpt>
      <trkpt lat="45.02698" lon="6.0715">
        <ele>765.6</ele>
        <time>2024-08-14T14:55:49Z</time>
      </trkpt>
      <trkpt lat="45.02698" lon="6.0715">
        <ele>765.6</ele>
        <time>2024-08-14T14:55:50Z</time>
      </trkpt>
      <trkpt lat="45.02701" lon="6.07151">
        <ele>765.6</ele>
        <time>2024-08-14T14:55:51Z</time>
      </trkpt>
      <trkpt lat="45.02701" lon="6.07151">
        <ele>765.6</ele>
        <time>2024-08-14T14:55:52Z</time>
      </trkpt>
      <trkpt lat="45.02704" lon="6.07152">
        <ele>765.6</ele>
        <time>2024-08-14T14:55:53Z</time>
      </trkpt>
      <trkpt lat="45.02704" lon="6.07152">
        <ele>765.6</ele>
        <time>2024-08-14T14:55:54Z</time>
      </trkpt>
      <trkpt lat="45.02707" lon="6.07152">
        <ele>765.8</ele>
        <time>2024-08-14T14:55:55Z</time>
      </trkpt>
      <trkpt lat="45.02707" lon="6.07152">
        <ele>765.8</ele>
        <time>2024-08-14T14:55:56Z</time>
      </trkpt>
      <trkpt lat="45.0271" lon="6.07152">
        <ele>765.6</ele>
        <time>2024-08-14T14:55:57Z</time>
      </trkpt>
      <trkpt lat="45.0271" lon="6.07152">
        <ele>765.6</ele>
        <time>2024-08-14T14:55:58Z</time>
      </trkpt>
      <trkpt lat="45.02713" lon="6.07153">
        <ele>765.6</ele>
        <time>2024-08-14T14:55:59Z</time>
      </trkpt>
      <trkpt lat="45.02713" lon="6.07153">
        <ele>765.6</ele>
        <time>2024-08-14T14:56:00Z</time>
      </trkpt>
      <trkpt lat="45.02715" lon="6.07155">
        <ele>765.6</ele>
        <time>2024-08-14T14:56:01Z</time>
      </trkpt>
      <trkpt lat="45.02715" lon="6.07155">
        <ele>765.8</ele>
        <time>2024-08-14T14:56:02Z</time>
      </trkpt>
      <trkpt lat="45.02718" lon="6.07159">
        <ele>765.8</ele>
        <time>2024-08-14T14:56:03Z</time>
      </trkpt>
      <trkpt lat="45.02718" lon="6.07159">
        <ele>765.8</ele>
        <time>2024-08-14T14:56:04Z</time>
      </trkpt>
      <trkpt lat="45.02721" lon="6.0716">
        <ele>765.8</ele>
        <time>2024-08-14T14:56:05Z</time>
      </trkpt>
      <trkpt lat="45.02721" lon="6.0716">
        <ele>766</ele>
        <time>2024-08-14T14:56:06Z</time>
      </trkpt>
      <trkpt lat="45.02723" lon="6.07161">
        <ele>766</ele>
        <time>2024-08-14T14:56:07Z</time>
      </trkpt>
      <trkpt lat="45.02723" lon="6.07161">
        <ele>766</ele>
        <time>2024-08-14T14:56:08Z</time>
      </trkpt>
      <trkpt lat="45.02726" lon="6.07162">
        <ele>766</ele>
        <time>2024-08-14T14:56:09Z</time>
      </trkpt>
      <trkpt lat="45.02726" lon="6.07162">
        <ele>766</ele>
        <time>2024-08-14T14:56:10Z</time>
      </trkpt>
      <trkpt lat="45.02729" lon="6.07163">
        <ele>766</ele>
        <time>2024-08-14T14:56:11Z</time>
      </trkpt>
      <trkpt lat="45.02729" lon="6.07163">
        <ele>766</ele>
        <time>2024-08-14T14:56:12Z</time>
      </trkpt>
      <trkpt lat="45.02732" lon="6.07164">
        <ele>766.4</ele>
        <time>2024-08-14T14:56:13Z</time>
      </trkpt>
      <trkpt lat="45.02734" lon="6.07166">
        <ele>766.4</ele>
        <time>2024-08-14T14:56:14Z</time>
      </trkpt>
      <trkpt lat="45.02734" lon="6.07166">
        <ele>766.4</ele>
        <time>2024-08-14T14:56:15Z</time>
      </trkpt>
      <trkpt lat="45.02734" lon="6.07166">
        <ele>766.4</ele>
        <time>2024-08-14T14:56:16Z</time>
      </trkpt>
      <trkpt lat="45.02738" lon="6.07169">
        <ele>766.2</ele>
        <time>2024-08-14T14:56:17Z</time>
      </trkpt>
      <trkpt lat="45.02739" lon="6.0717">
        <ele>766.2</ele>
        <time>2024-08-14T14:56:18Z</time>
      </trkpt>
      <trkpt lat="45.02739" lon="6.0717">
        <ele>766.2</ele>
        <time>2024-08-14T14:56:19Z</time>
      </trkpt>
      <trkpt lat="45.02739" lon="6.0717">
        <ele>766.2</ele>
        <time>2024-08-14T14:56:20Z</time>
      </trkpt>
      <trkpt lat="45.02743" lon="6.07173">
        <ele>766.4</ele>
        <time>2024-08-14T14:56:21Z</time>
      </trkpt>
      <trkpt lat="45.02745" lon="6.07174">
        <ele>766.2</ele>
        <time>2024-08-14T14:56:22Z</time>
      </trkpt>
      <trkpt lat="45.02745" lon="6.07174">
        <ele>766.2</ele>
        <time>2024-08-14T14:56:23Z</time>
      </trkpt>
      <trkpt lat="45.02745" lon="6.07174">
        <ele>766.2</ele>
        <time>2024-08-14T14:56:24Z</time>
      </trkpt>
      <trkpt lat="45.02749" lon="6.07176">
        <ele>766</ele>
        <time>2024-08-14T14:56:25Z</time>
      </trkpt>
      <trkpt lat="45.0275" lon="6.07177">
        <ele>766</ele>
        <time>2024-08-14T14:56:26Z</time>
      </trkpt>
      <trkpt lat="45.0275" lon="6.07177">
        <ele>766.2</ele>
        <time>2024-08-14T14:56:27Z</time>
      </trkpt>
      <trkpt lat="45.02753" lon="6.07178">
        <ele>766.2</ele>
        <time>2024-08-14T14:56:28Z</time>
      </trkpt>
      <trkpt lat="45.02753" lon="6.07178">
        <ele>766</ele>
        <time>2024-08-14T14:56:29Z</time>
      </trkpt>
      <trkpt lat="45.02756" lon="6.07179">
        <ele>766</ele>
        <time>2024-08-14T14:56:30Z</time>
      </trkpt>
      <trkpt lat="45.02756" lon="6.07179">
        <ele>765.8</ele>
        <time>2024-08-14T14:56:31Z</time>
      </trkpt>
      <trkpt lat="45.02756" lon="6.07179">
        <ele>765.8</ele>
        <time>2024-08-14T14:56:32Z</time>
      </trkpt>
      <trkpt lat="45.0276" lon="6.0718">
        <ele>765.8</ele>
        <time>2024-08-14T14:56:33Z</time>
      </trkpt>
      <trkpt lat="45.02762" lon="6.07181">
        <ele>765.8</ele>
        <time>2024-08-14T14:56:34Z</time>
      </trkpt>
      <trkpt lat="45.02762" lon="6.07181">
        <ele>765.8</ele>
        <time>2024-08-14T14:56:35Z</time>
      </trkpt>
      <trkpt lat="45.02765" lon="6.07181">
        <ele>765.8</ele>
        <time>2024-08-14T14:56:36Z</time>
      </trkpt>
      <trkpt lat="45.02765" lon="6.07181">
        <ele>765.8</ele>
        <time>2024-08-14T14:56:37Z</time>
      </trkpt>
      <trkpt lat="45.02768" lon="6.07182">
        <ele>766</ele>
        <time>2024-08-14T14:56:38Z</time>
      </trkpt>
      <trkpt lat="45.02768" lon="6.07182">
        <ele>766</ele>
        <time>2024-08-14T14:56:39Z</time>
      </trkpt>
      <trkpt lat="45.02768" lon="6.07182">
        <ele>765.8</ele>
        <time>2024-08-14T14:56:40Z</time>
      </trkpt>
      <trkpt lat="45.02773" lon="6.07183">
        <ele>765.8</ele>
        <time>2024-08-14T14:56:41Z</time>
      </trkpt>
      <trkpt lat="45.02774" lon="6.07183">
        <ele>765.8</ele>
        <time>2024-08-14T14:56:42Z</time>
      </trkpt>
      <trkpt lat="45.02774" lon="6.07183">
        <ele>765.8</ele>
        <time>2024-08-14T14:56:43Z</time>
      </trkpt>
      <trkpt lat="45.02774" lon="6.07183">
        <ele>765.8</ele>
        <time>2024-08-14T14:56:44Z</time>
      </trkpt>
      <trkpt lat="45.02779" lon="6.07184">
        <ele>765.8</ele>
        <time>2024-08-14T14:56:45Z</time>
      </trkpt>
      <trkpt lat="45.0278" lon="6.07184">
        <ele>765.8</ele>
        <time>2024-08-14T14:56:46Z</time>
      </trkpt>
      <trkpt lat="45.0278" lon="6.07184">
        <ele>765.8</ele>
        <time>2024-08-14T14:56:47Z</time>
      </trkpt>
      <trkpt lat="45.0278" lon="6.07184">
        <ele>765.8</ele>
        <time>2024-08-14T14:56:48Z</time>
      </trkpt>
      <trkpt lat="45.02784" lon="6.07184">
        <ele>766</ele>
        <time>2024-08-14T14:56:49Z</time>
      </trkpt>
      <trkpt lat="45.02786" lon="6.07183">
        <ele>766</ele>
        <time>2024-08-14T14:56:50Z</time>
      </trkpt>
      <trkpt lat="45.02786" lon="6.07183">
        <ele>766</ele>
        <time>2024-08-14T14:56:51Z</time>
      </trkpt>
      <trkpt lat="45.02789" lon="6.07182">
        <ele>765.8</ele>
        <time>2024-08-14T14:56:52Z</time>
      </trkpt>
      <trkpt lat="45.02789" lon="6.07182">
        <ele>766</ele>
        <time>2024-08-14T14:56:53Z</time>
      </trkpt>
      <trkpt lat="45.02792" lon="6.07182">
        <ele>766</ele>
        <time>2024-08-14T14:56:54Z</time>
      </trkpt>
      <trkpt lat="45.02792" lon="6.07182">
        <ele>766</ele>
        <time>2024-08-14T14:56:55Z</time>
      </trkpt>
      <trkpt lat="45.02794" lon="6.07181">
        <ele>765.8</ele>
        <time>2024-08-14T14:56:56Z</time>
      </trkpt>
      <trkpt lat="45.02794" lon="6.07181">
        <ele>765.8</ele>
        <time>2024-08-14T14:56:57Z</time>
      </trkpt>
      <trkpt lat="45.02797" lon="6.0718">
        <ele>765.8</ele>
        <time>2024-08-14T14:56:58Z</time>
      </trkpt>
      <trkpt lat="45.02797" lon="6.0718">
        <ele>765.8</ele>
        <time>2024-08-14T14:56:59Z</time>
      </trkpt>
      <trkpt lat="45.028" lon="6.07181">
        <ele>765.8</ele>
        <time>2024-08-14T14:57:00Z</time>
      </trkpt>
      <trkpt lat="45.028" lon="6.07181">
        <ele>765.8</ele>
        <time>2024-08-14T14:57:01Z</time>
      </trkpt>
      <trkpt lat="45.028" lon="6.07181">
        <ele>765.6</ele>
        <time>2024-08-14T14:57:02Z</time>
      </trkpt>
      <trkpt lat="45.02804" lon="6.0718">
        <ele>765.6</ele>
        <time>2024-08-14T14:57:03Z</time>
      </trkpt>
      <trkpt lat="45.02805" lon="6.0718">
        <ele>765.8</ele>
        <time>2024-08-14T14:57:04Z</time>
      </trkpt>
      <trkpt lat="45.02805" lon="6.0718">
        <ele>765.8</ele>
        <time>2024-08-14T14:57:05Z</time>
      </trkpt>
      <trkpt lat="45.02805" lon="6.0718">
        <ele>765.8</ele>
        <time>2024-08-14T14:57:06Z</time>
      </trkpt>
      <trkpt lat="45.0281" lon="6.07179">
        <ele>765.6</ele>
        <time>2024-08-14T14:57:07Z</time>
      </trkpt>
      <trkpt lat="45.02811" lon="6.07179">
        <ele>765.6</ele>
        <time>2024-08-14T14:57:08Z</time>
      </trkpt>
      <trkpt lat="45.02811" lon="6.07179">
        <ele>765.6</ele>
        <time>2024-08-14T14:57:09Z</time>
      </trkpt>
      <trkpt lat="45.02811" lon="6.07179">
        <ele>765.8</ele>
        <time>2024-08-14T14:57:10Z</time>
      </trkpt>
      <trkpt lat="45.02815" lon="6.07178">
        <ele>765.8</ele>
        <time>2024-08-14T14:57:11Z</time>
      </trkpt>
      <trkpt lat="45.02817" lon="6.07177">
        <ele>765.4</ele>
        <time>2024-08-14T14:57:12Z</time>
      </trkpt>
      <trkpt lat="45.02817" lon="6.07177">
        <ele>765.4</ele>
        <time>2024-08-14T14:57:13Z</time>
      </trkpt>
      <trkpt lat="45.0282" lon="6.07176">
        <ele>765.8</ele>
        <time>2024-08-14T14:57:14Z</time>
      </trkpt>
      <trkpt lat="45.0282" lon="6.07176">
        <ele>766</ele>
        <time>2024-08-14T14:57:15Z</time>
      </trkpt>
      <trkpt lat="45.02822" lon="6.07175">
        <ele>766</ele>
        <time>2024-08-14T14:57:16Z</time>
      </trkpt>
      <trkpt lat="45.02822" lon="6.07175">
        <ele>765.8</ele>
        <time>2024-08-14T14:57:17Z</time>
      </trkpt>
      <trkpt lat="45.02825" lon="6.07174">
        <ele>765.8</ele>
        <time>2024-08-14T14:57:18Z</time>
      </trkpt>
      <trkpt lat="45.02825" lon="6.07174">
        <ele>765.6</ele>
        <time>2024-08-14T14:57:19Z</time>
      </trkpt>
      <trkpt lat="45.02825" lon="6.07174">
        <ele>765.6</ele>
        <time>2024-08-14T14:57:20Z</time>
      </trkpt>
      <trkpt lat="45.02828" lon="6.07171">
        <ele>765.4</ele>
        <time>2024-08-14T14:57:21Z</time>
      </trkpt>
      <trkpt lat="45.02829" lon="6.0717">
        <ele>765.6</ele>
        <time>2024-08-14T14:57:22Z</time>
      </trkpt>
      <trkpt lat="45.02829" lon="6.0717">
        <ele>765.8</ele>
        <time>2024-08-14T14:57:23Z</time>
      </trkpt>
      <trkpt lat="45.02831" lon="6.07169">
        <ele>765.8</ele>
        <time>2024-08-14T14:57:24Z</time>
      </trkpt>
      <trkpt lat="45.02833" lon="6.07167">
        <ele>765.8</ele>
        <time>2024-08-14T14:57:25Z</time>
      </trkpt>
      <trkpt lat="45.02833" lon="6.07167">
        <ele>765.8</ele>
        <time>2024-08-14T14:57:26Z</time>
      </trkpt>
      <trkpt lat="45.02836" lon="6.07164">
        <ele>765.6</ele>
        <time>2024-08-14T14:57:27Z</time>
      </trkpt>
      <trkpt lat="45.02836" lon="6.07164">
        <ele>765.6</ele>
        <time>2024-08-14T14:57:28Z</time>
      </trkpt>
      <trkpt lat="45.02837" lon="6.07163">
        <ele>765.2</ele>
        <time>2024-08-14T14:57:29Z</time>
      </trkpt>
      <trkpt lat="45.02837" lon="6.07163">
        <ele>765</ele>
        <time>2024-08-14T14:57:30Z</time>
      </trkpt>
      <trkpt lat="45.02837" lon="6.07163">
        <ele>765</ele>
        <time>2024-08-14T14:57:31Z</time>
      </trkpt>
      <trkpt lat="45.0284" lon="6.07159">
        <ele>765</ele>
        <time>2024-08-14T14:57:32Z</time>
      </trkpt>
      <trkpt lat="45.02841" lon="6.07158">
        <ele>765</ele>
        <time>2024-08-14T14:57:33Z</time>
      </trkpt>
      <trkpt lat="45.02841" lon="6.07158">
        <ele>764.8</ele>
        <time>2024-08-14T14:57:34Z</time>
      </trkpt>
      <trkpt lat="45.02843" lon="6.07155">
        <ele>764.8</ele>
        <time>2024-08-14T14:57:35Z</time>
      </trkpt>
      <trkpt lat="45.02845" lon="6.07153">
        <ele>764.8</ele>
        <time>2024-08-14T14:57:36Z</time>
      </trkpt>
      <trkpt lat="45.02845" lon="6.07153">
        <ele>764.6</ele>
        <time>2024-08-14T14:57:37Z</time>
      </trkpt>
      <trkpt lat="45.02845" lon="6.07153">
        <ele>764.2</ele>
        <time>2024-08-14T14:57:38Z</time>
      </trkpt>
      <trkpt lat="45.02848" lon="6.07148">
        <ele>763.8</ele>
        <time>2024-08-14T14:57:39Z</time>
      </trkpt>
      <trkpt lat="45.02849" lon="6.07147">
        <ele>763.6</ele>
        <time>2024-08-14T14:57:40Z</time>
      </trkpt>
      <trkpt lat="45.02849" lon="6.07147">
        <ele>763.6</ele>
        <time>2024-08-14T14:57:41Z</time>
      </trkpt>
      <trkpt lat="45.02852" lon="6.07145">
        <ele>763.6</ele>
        <time>2024-08-14T14:57:42Z</time>
      </trkpt>
      <trkpt lat="45.02853" lon="6.07144">
        <ele>763.6</ele>
        <time>2024-08-14T14:57:43Z</time>
      </trkpt>
      <trkpt lat="45.02853" lon="6.07144">
        <ele>763.6</ele>
        <time>2024-08-14T14:57:44Z</time>
      </trkpt>
      <trkpt lat="45.02853" lon="6.07144">
        <ele>763.4</ele>
        <time>2024-08-14T14:57:45Z</time>
      </trkpt>
      <trkpt lat="45.02856" lon="6.0714">
        <ele>763.2</ele>
        <time>2024-08-14T14:57:46Z</time>
      </trkpt>
      <trkpt lat="45.02858" lon="6.07139">
        <ele>763.2</ele>
        <time>2024-08-14T14:57:47Z</time>
      </trkpt>
      <trkpt lat="45.02859" lon="6.07137">
        <ele>763.2</ele>
        <time>2024-08-14T14:57:48Z</time>
      </trkpt>
      <trkpt lat="45.02859" lon="6.07137">
        <ele>763</ele>
        <time>2024-08-14T14:57:49Z</time>
      </trkpt>
      <trkpt lat="45.02861" lon="6.07135">
        <ele>762.8</ele>
        <time>2024-08-14T14:57:50Z</time>
      </trkpt>
      <trkpt lat="45.02861" lon="6.07135">
        <ele>762.8</ele>
        <time>2024-08-14T14:57:51Z</time>
      </trkpt>
      <trkpt lat="45.02863" lon="6.07132">
        <ele>762.8</ele>
        <time>2024-08-14T14:57:52Z</time>
      </trkpt>
      <trkpt lat="45.02863" lon="6.07132">
        <ele>762.8</ele>
        <time>2024-08-14T14:57:53Z</time>
      </trkpt>
      <trkpt lat="45.02866" lon="6.0713">
        <ele>762.6</ele>
        <time>2024-08-14T14:57:54Z</time>
      </trkpt>
      <trkpt lat="45.02866" lon="6.0713">
        <ele>762.4</ele>
        <time>2024-08-14T14:57:55Z</time>
      </trkpt>
      <trkpt lat="45.02866" lon="6.0713">
        <ele>762.4</ele>
        <time>2024-08-14T14:57:56Z</time>
      </trkpt>
      <trkpt lat="45.02869" lon="6.07128">
        <ele>762.4</ele>
        <time>2024-08-14T14:57:57Z</time>
      </trkpt>
      <trkpt lat="45.02871" lon="6.07127">
        <ele>762.4</ele>
        <time>2024-08-14T14:57:58Z</time>
      </trkpt>
      <trkpt lat="45.02871" lon="6.07127">
        <ele>762.2</ele>
        <time>2024-08-14T14:57:59Z</time>
      </trkpt>
      <trkpt lat="45.02874" lon="6.07124">
        <ele>762</ele>
        <time>2024-08-14T14:58:00Z</time>
      </trkpt>
      <trkpt lat="45.02874" lon="6.07124">
        <ele>762</ele>
        <time>2024-08-14T14:58:01Z</time>
      </trkpt>
      <trkpt lat="45.02876" lon="6.07122">
        <ele>761.8</ele>
        <time>2024-08-14T14:58:02Z</time>
      </trkpt>
      <trkpt lat="45.02876" lon="6.07122">
        <ele>761.8</ele>
        <time>2024-08-14T14:58:03Z</time>
      </trkpt>
      <trkpt lat="45.02879" lon="6.0712">
        <ele>761.8</ele>
        <time>2024-08-14T14:58:04Z</time>
      </trkpt>
      <trkpt lat="45.02879" lon="6.0712">
        <ele>761.8</ele>
        <time>2024-08-14T14:58:05Z</time>
      </trkpt>
      <trkpt lat="45.02881" lon="6.07118">
        <ele>761.8</ele>
        <time>2024-08-14T14:58:06Z</time>
      </trkpt>
      <trkpt lat="45.02881" lon="6.07118">
        <ele>761.8</ele>
        <time>2024-08-14T14:58:07Z</time>
      </trkpt>
      <trkpt lat="45.02881" lon="6.07118">
        <ele>762.2</ele>
        <time>2024-08-14T14:58:08Z</time>
      </trkpt>
      <trkpt lat="45.02884" lon="6.07115">
        <ele>762.2</ele>
        <time>2024-08-14T14:58:09Z</time>
      </trkpt>
      <trkpt lat="45.02885" lon="6.07114">
        <ele>762</ele>
        <time>2024-08-14T14:58:10Z</time>
      </trkpt>
      <trkpt lat="45.02885" lon="6.07114">
        <ele>762</ele>
        <time>2024-08-14T14:58:11Z</time>
      </trkpt>
      <trkpt lat="45.02885" lon="6.07114">
        <ele>762</ele>
        <time>2024-08-14T14:58:12Z</time>
      </trkpt>
      <trkpt lat="45.0289" lon="6.07111">
        <ele>762</ele>
        <time>2024-08-14T14:58:13Z</time>
      </trkpt>
      <trkpt lat="45.02891" lon="6.0711">
        <ele>762</ele>
        <time>2024-08-14T14:58:14Z</time>
      </trkpt>
      <trkpt lat="45.02891" lon="6.0711">
        <ele>762</ele>
        <time>2024-08-14T14:58:15Z</time>
      </trkpt>
      <trkpt lat="45.02893" lon="6.07108">
        <ele>762</ele>
        <time>2024-08-14T14:58:16Z</time>
      </trkpt>
      <trkpt lat="45.02893" lon="6.07108">
        <ele>762</ele>
        <time>2024-08-14T14:58:17Z</time>
      </trkpt>
      <trkpt lat="45.02896" lon="6.07106">
        <ele>761.8</ele>
        <time>2024-08-14T14:58:18Z</time>
      </trkpt>
      <trkpt lat="45.02897" lon="6.07105">
        <ele>761.8</ele>
        <time>2024-08-14T14:58:19Z</time>
      </trkpt>
      <trkpt lat="45.02897" lon="6.07105">
        <ele>761.8</ele>
        <time>2024-08-14T14:58:20Z</time>
      </trkpt>
      <trkpt lat="45.029" lon="6.07103">
        <ele>761.8</ele>
        <time>2024-08-14T14:58:21Z</time>
      </trkpt>
      <trkpt lat="45.029" lon="6.07103">
        <ele>761.8</ele>
        <time>2024-08-14T14:58:22Z</time>
      </trkpt>
      <trkpt lat="45.02904" lon="6.07101">
        <ele>762</ele>
        <time>2024-08-14T14:58:23Z</time>
      </trkpt>
      <trkpt lat="45.02904" lon="6.07101">
        <ele>762.2</ele>
        <time>2024-08-14T14:58:24Z</time>
      </trkpt>
      <trkpt lat="45.02908" lon="6.07099">
        <ele>762.2</ele>
        <time>2024-08-14T14:58:25Z</time>
      </trkpt>
      <trkpt lat="45.02908" lon="6.07099">
        <ele>762.2</ele>
        <time>2024-08-14T14:58:26Z</time>
      </trkpt>
      <trkpt lat="45.02908" lon="6.07099">
        <ele>762.2</ele>
        <time>2024-08-14T14:58:27Z</time>
      </trkpt>
      <trkpt lat="45.02912" lon="6.07096">
        <ele>762</ele>
        <time>2024-08-14T14:58:28Z</time>
      </trkpt>
      <trkpt lat="45.02913" lon="6.07095">
        <ele>762</ele>
        <time>2024-08-14T14:58:29Z</time>
      </trkpt>
      <trkpt lat="45.02913" lon="6.07095">
        <ele>761.8</ele>
        <time>2024-08-14T14:58:30Z</time>
      </trkpt>
      <trkpt lat="45.02915" lon="6.07093">
        <ele>762</ele>
        <time>2024-08-14T14:58:31Z</time>
      </trkpt>
      <trkpt lat="45.02915" lon="6.07093">
        <ele>762</ele>
        <time>2024-08-14T14:58:32Z</time>
      </trkpt>
      <trkpt lat="45.02917" lon="6.07091">
        <ele>761.8</ele>
        <time>2024-08-14T14:58:33Z</time>
      </trkpt>
      <trkpt lat="45.02917" lon="6.07091">
        <ele>761.8</ele>
        <time>2024-08-14T14:58:34Z</time>
      </trkpt>
      <trkpt lat="45.02919" lon="6.07089">
        <ele>761.8</ele>
        <time>2024-08-14T14:58:35Z</time>
      </trkpt>
      <trkpt lat="45.02919" lon="6.07089">
        <ele>761.8</ele>
        <time>2024-08-14T14:58:36Z</time>
      </trkpt>
      <trkpt lat="45.02921" lon="6.07087">
        <ele>762</ele>
        <time>2024-08-14T14:58:37Z</time>
      </trkpt>
      <trkpt lat="45.02921" lon="6.07087">
        <ele>762</ele>
        <time>2024-08-14T14:58:38Z</time>
      </trkpt>
      <trkpt lat="45.02923" lon="6.07084">
        <ele>762</ele>
        <time>2024-08-14T14:58:39Z</time>
      </trkpt>
      <trkpt lat="45.02925" lon="6.07082">
        <ele>762.2</ele>
        <time>2024-08-14T14:58:40Z</time>
      </trkpt>
      <trkpt lat="45.02925" lon="6.07082">
        <ele>762.2</ele>
        <time>2024-08-14T14:58:41Z</time>
      </trkpt>
      <trkpt lat="45.02926" lon="6.07079">
        <ele>762</ele>
        <time>2024-08-14T14:58:42Z</time>
      </trkpt>
      <trkpt lat="45.02926" lon="6.07079">
        <ele>762</ele>
        <time>2024-08-14T14:58:43Z</time>
      </trkpt>
      <trkpt lat="45.02928" lon="6.07077">
        <ele>762</ele>
        <time>2024-08-14T14:58:44Z</time>
      </trkpt>
      <trkpt lat="45.02928" lon="6.07077">
        <ele>762</ele>
        <time>2024-08-14T14:58:45Z</time>
      </trkpt>
      <trkpt lat="45.0293" lon="6.07076">
        <ele>762</ele>
        <time>2024-08-14T14:58:46Z</time>
      </trkpt>
      <trkpt lat="45.02932" lon="6.07075">
        <ele>762.2</ele>
        <time>2024-08-14T14:58:47Z</time>
      </trkpt>
      <trkpt lat="45.02933" lon="6.07074">
        <ele>762.2</ele>
        <time>2024-08-14T14:58:48Z</time>
      </trkpt>
      <trkpt lat="45.02935" lon="6.07073">
        <ele>761.8</ele>
        <time>2024-08-14T14:58:49Z</time>
      </trkpt>
      <trkpt lat="45.02935" lon="6.07073">
        <ele>761.8</ele>
        <time>2024-08-14T14:58:50Z</time>
      </trkpt>
      <trkpt lat="45.02938" lon="6.07071">
        <ele>761.8</ele>
        <time>2024-08-14T14:58:51Z</time>
      </trkpt>
      <trkpt lat="45.02938" lon="6.07071">
        <ele>761.8</ele>
        <time>2024-08-14T14:58:52Z</time>
      </trkpt>
      <trkpt lat="45.02941" lon="6.07069">
        <ele>761.8</ele>
        <time>2024-08-14T14:58:53Z</time>
      </trkpt>
      <trkpt lat="45.02941" lon="6.07069">
        <ele>762</ele>
        <time>2024-08-14T14:58:54Z</time>
      </trkpt>
      <trkpt lat="45.02943" lon="6.07067">
        <ele>762</ele>
        <time>2024-08-14T14:58:55Z</time>
      </trkpt>
      <trkpt lat="45.02945" lon="6.07065">
        <ele>761.8</ele>
        <time>2024-08-14T14:58:56Z</time>
      </trkpt>
      <trkpt lat="45.02945" lon="6.07065">
        <ele>761.8</ele>
        <time>2024-08-14T14:58:57Z</time>
      </trkpt>
      <trkpt lat="45.02948" lon="6.07063">
        <ele>761.8</ele>
        <time>2024-08-14T14:58:58Z</time>
      </trkpt>
      <trkpt lat="45.02948" lon="6.07063">
        <ele>761.8</ele>
        <time>2024-08-14T14:58:59Z</time>
      </trkpt>
      <trkpt lat="45.02949" lon="6.07061">
        <ele>762</ele>
        <time>2024-08-14T14:59:00Z</time>
      </trkpt>
      <trkpt lat="45.02949" lon="6.07061">
        <ele>762</ele>
        <time>2024-08-14T14:59:01Z</time>
      </trkpt>
      <trkpt lat="45.02949" lon="6.07061">
        <ele>762</ele>
        <time>2024-08-14T14:59:02Z</time>
      </trkpt>
      <trkpt lat="45.02949" lon="6.07061">
        <ele>761.8</ele>
        <time>2024-08-14T14:59:03Z</time>
      </trkpt>
      <trkpt lat="45.02949" lon="6.07061">
        <ele>762.2</ele>
        <time>2024-08-14T14:59:04Z</time>
      </trkpt>
      <trkpt lat="45.02949" lon="6.07061">
        <ele>762.2</ele>
        <time>2024-08-14T14:59:05Z</time>
      </trkpt>
      <trkpt lat="45.02949" lon="6.07061">
        <ele>762.2</ele>
        <time>2024-08-14T14:59:06Z</time>
      </trkpt>
      <trkpt lat="45.02949" lon="6.07061">
        <ele>762.2</ele>
        <time>2024-08-14T14:59:07Z</time>
      </trkpt>
      <trkpt lat="45.02949" lon="6.07061">
        <ele>762</ele>
        <time>2024-08-14T14:59:08Z</time>
      </trkpt>
      <trkpt lat="45.02949" lon="6.07061">
        <ele>762</ele>
        <time>2024-08-14T14:59:09Z</time>
      </trkpt>
      <trkpt lat="45.02949" lon="6.07061">
        <ele>762</ele>
        <time>2024-08-14T14:59:10Z</time>
      </trkpt>
      <trkpt lat="45.02949" lon="6.07061">
        <ele>762</ele>
        <time>2024-08-14T14:59:11Z</time>
      </trkpt>
      <trkpt lat="45.02949" lon="6.07061">
        <ele>761.8</ele>
        <time>2024-08-14T14:59:12Z</time>
      </trkpt>
      <trkpt lat="45.02949" lon="6.07061">
        <ele>761.8</ele>
        <time>2024-08-14T14:59:13Z</time>
      </trkpt>
      <trkpt lat="45.02949" lon="6.07061">
        <ele>761.8</ele>
        <time>2024-08-14T14:59:14Z</time>
      </trkpt>
      <trkpt lat="45.02947" lon="6.07063">
        <ele>761.8</ele>
        <time>2024-08-14T14:59:15Z</time>
      </trkpt>
      <trkpt lat="45.02946" lon="6.07064">
        <ele>761.8</ele>
        <time>2024-08-14T14:59:16Z</time>
      </trkpt>
      <trkpt lat="45.02946" lon="6.07064">
        <ele>761.8</ele>
        <time>2024-08-14T14:59:17Z</time>
      </trkpt>
      <trkpt lat="45.02943" lon="6.07066">
        <ele>761.6</ele>
        <time>2024-08-14T14:59:18Z</time>
      </trkpt>
      <trkpt lat="45.02943" lon="6.07066">
        <ele>761.6</ele>
        <time>2024-08-14T14:59:19Z</time>
      </trkpt>
      <trkpt lat="45.02941" lon="6.07068">
        <ele>761.6</ele>
        <time>2024-08-14T14:59:20Z</time>
      </trkpt>
      <trkpt lat="45.02941" lon="6.07068">
        <ele>761.6</ele>
        <time>2024-08-14T14:59:21Z</time>
      </trkpt>
      <trkpt lat="45.02939" lon="6.07069">
        <ele>761.6</ele>
        <time>2024-08-14T14:59:22Z</time>
      </trkpt>
      <trkpt lat="45.02939" lon="6.07069">
        <ele>761.6</ele>
        <time>2024-08-14T14:59:23Z</time>
      </trkpt>
      <trkpt lat="45.02936" lon="6.07072">
        <ele>761.4</ele>
        <time>2024-08-14T14:59:24Z</time>
      </trkpt>
      <trkpt lat="45.02936" lon="6.07072">
        <ele>761.4</ele>
        <time>2024-08-14T14:59:25Z</time>
      </trkpt>
      <trkpt lat="45.02934" lon="6.07074">
        <ele>761.6</ele>
        <time>2024-08-14T14:59:26Z</time>
      </trkpt>
      <trkpt lat="45.02934" lon="6.07074">
        <ele>761.6</ele>
        <time>2024-08-14T14:59:27Z</time>
      </trkpt>
      <trkpt lat="45.02933" lon="6.07075">
        <ele>761.6</ele>
        <time>2024-08-14T14:59:28Z</time>
      </trkpt>
      <trkpt lat="45.02933" lon="6.07075">
        <ele>761.6</ele>
        <time>2024-08-14T14:59:29Z</time>
      </trkpt>
      <trkpt lat="45.02933" lon="6.07075">
        <ele>761.6</ele>
        <time>2024-08-14T14:59:30Z</time>
      </trkpt>
      <trkpt lat="45.02931" lon="6.07074">
        <ele>761.4</ele>
        <time>2024-08-14T14:59:31Z</time>
      </trkpt>
      <trkpt lat="45.02931" lon="6.07074">
        <ele>761.4</ele>
        <time>2024-08-14T14:59:32Z</time>
      </trkpt>
      <trkpt lat="45.02931" lon="6.07074">
        <ele>761.4</ele>
        <time>2024-08-14T14:59:33Z</time>
      </trkpt>
      <trkpt lat="45.02931" lon="6.07074">
        <ele>761.4</ele>
        <time>2024-08-14T14:59:34Z</time>
      </trkpt>
      <trkpt lat="45.02931" lon="6.07074">
        <ele>761.4</ele>
        <time>2024-08-14T14:59:35Z</time>
      </trkpt>
      <trkpt lat="45.02931" lon="6.07074">
        <ele>761.4</ele>
        <time>2024-08-14T14:59:36Z</time>
      </trkpt>
      <trkpt lat="45.02931" lon="6.07074">
        <ele>761.4</ele>
        <time>2024-08-14T14:59:37Z</time>
      </trkpt>
      <trkpt lat="45.02931" lon="6.07074">
        <ele>761.4</ele>
        <time>2024-08-14T14:59:38Z</time>
      </trkpt>
      <trkpt lat="45.02931" lon="6.07074">
        <ele>761.2</ele>
        <time>2024-08-14T14:59:39Z</time>
      </trkpt>
      <trkpt lat="45.02931" lon="6.07074">
        <ele>761.2</ele>
        <time>2024-08-14T14:59:40Z</time>
      </trkpt>
      <trkpt lat="45.02931" lon="6.07074">
        <ele>761.4</ele>
        <time>2024-08-14T14:59:41Z</time>
      </trkpt>
      <trkpt lat="45.02931" lon="6.07074">
        <ele>761.4</ele>
        <time>2024-08-14T14:59:42Z</time>
      </trkpt>
      <trkpt lat="45.02931" lon="6.07074">
        <ele>761.2</ele>
        <time>2024-08-14T14:59:43Z</time>
      </trkpt>
      <trkpt lat="45.02931" lon="6.07074">
        <ele>761</ele>
        <time>2024-08-14T14:59:44Z</time>
      </trkpt>
      <trkpt lat="45.02931" lon="6.07074">
        <ele>761</ele>
        <time>2024-08-14T14:59:45Z</time>
      </trkpt>
      <trkpt lat="45.02933" lon="6.07072">
        <ele>761</ele>
        <time>2024-08-14T14:59:46Z</time>
      </trkpt>
      <trkpt lat="45.02935" lon="6.07071">
        <ele>761</ele>
        <time>2024-08-14T14:59:47Z</time>
      </trkpt>
      <trkpt lat="45.02937" lon="6.0707">
        <ele>761</ele>
        <time>2024-08-14T14:59:48Z</time>
      </trkpt>
      <trkpt lat="45.02937" lon="6.0707">
        <ele>761</ele>
        <time>2024-08-14T14:59:49Z</time>
      </trkpt>
      <trkpt lat="45.0294" lon="6.07067">
        <ele>760.8</ele>
        <time>2024-08-14T14:59:50Z</time>
      </trkpt>
      <trkpt lat="45.02941" lon="6.07065">
        <ele>760.6</ele>
        <time>2024-08-14T14:59:51Z</time>
      </trkpt>
      <trkpt lat="45.02943" lon="6.07064">
        <ele>760.6</ele>
        <time>2024-08-14T14:59:52Z</time>
      </trkpt>
      <trkpt lat="45.02943" lon="6.07064">
        <ele>760.6</ele>
        <time>2024-08-14T14:59:53Z</time>
      </trkpt>
      <trkpt lat="45.02945" lon="6.07062">
        <ele>760.6</ele>
        <time>2024-08-14T14:59:54Z</time>
      </trkpt>
      <trkpt lat="45.02947" lon="6.07061">
        <ele>760.6</ele>
        <time>2024-08-14T14:59:55Z</time>
      </trkpt>
      <trkpt lat="45.02947" lon="6.07061">
        <ele>760.8</ele>
        <time>2024-08-14T14:59:56Z</time>
      </trkpt>
      <trkpt lat="45.02947" lon="6.07061">
        <ele>760.6</ele>
        <time>2024-08-14T14:59:57Z</time>
      </trkpt>
      <trkpt lat="45.02951" lon="6.07059">
        <ele>760.6</ele>
        <time>2024-08-14T14:59:58Z</time>
      </trkpt>
      <trkpt lat="45.02953" lon="6.07058">
        <ele>760.8</ele>
        <time>2024-08-14T14:59:59Z</time>
      </trkpt>
      <trkpt lat="45.02955" lon="6.07057">
        <ele>760.8</ele>
        <time>2024-08-14T15:00:00Z</time>
      </trkpt>
      <trkpt lat="45.02955" lon="6.07057">
        <ele>760.8</ele>
        <time>2024-08-14T15:00:01Z</time>
      </trkpt>
      <trkpt lat="45.02957" lon="6.07055">
        <ele>761</ele>
        <time>2024-08-14T15:00:02Z</time>
      </trkpt>
      <trkpt lat="45.02959" lon="6.07054">
        <ele>760.8</ele>
        <time>2024-08-14T15:00:03Z</time>
      </trkpt>
      <trkpt lat="45.02959" lon="6.07054">
        <ele>760.8</ele>
        <time>2024-08-14T15:00:04Z</time>
      </trkpt>
      <trkpt lat="45.02961" lon="6.07051">
        <ele>760.8</ele>
        <time>2024-08-14T15:00:05Z</time>
      </trkpt>
      <trkpt lat="45.02961" lon="6.07051">
        <ele>760.8</ele>
        <time>2024-08-14T15:00:06Z</time>
      </trkpt>
      <trkpt lat="45.02964" lon="6.07049">
        <ele>760.8</ele>
        <time>2024-08-14T15:00:07Z</time>
      </trkpt>
      <trkpt lat="45.02964" lon="6.07049">
        <ele>761</ele>
        <time>2024-08-14T15:00:08Z</time>
      </trkpt>
      <trkpt lat="45.02967" lon="6.07047">
        <ele>761</ele>
        <time>2024-08-14T15:00:09Z</time>
      </trkpt>
      <trkpt lat="45.02968" lon="6.07046">
        <ele>760.8</ele>
        <time>2024-08-14T15:00:10Z</time>
      </trkpt>
      <trkpt lat="45.02968" lon="6.07046">
        <ele>760.8</ele>
        <time>2024-08-14T15:00:11Z</time>
      </trkpt>
      <trkpt lat="45.02971" lon="6.07043">
        <ele>760.8</ele>
        <time>2024-08-14T15:00:12Z</time>
      </trkpt>
      <trkpt lat="45.02971" lon="6.07043">
        <ele>760.8</ele>
        <time>2024-08-14T15:00:13Z</time>
      </trkpt>
      <trkpt lat="45.02973" lon="6.07041">
        <ele>760.8</ele>
        <time>2024-08-14T15:00:14Z</time>
      </trkpt>
      <trkpt lat="45.02973" lon="6.07041">
        <ele>761</ele>
        <time>2024-08-14T15:00:15Z</time>
      </trkpt>
      <trkpt lat="45.02975" lon="6.07038">
        <ele>760.8</ele>
        <time>2024-08-14T15:00:16Z</time>
      </trkpt>
      <trkpt lat="45.02975" lon="6.07038">
        <ele>760.8</ele>
        <time>2024-08-14T15:00:17Z</time>
      </trkpt>
      <trkpt lat="45.02978" lon="6.07036">
        <ele>760.8</ele>
        <time>2024-08-14T15:00:18Z</time>
      </trkpt>
      <trkpt lat="45.02978" lon="6.07036">
        <ele>761</ele>
        <time>2024-08-14T15:00:19Z</time>
      </trkpt>
      <trkpt lat="45.0298" lon="6.07033">
        <ele>761</ele>
        <time>2024-08-14T15:00:20Z</time>
      </trkpt>
      <trkpt lat="45.0298" lon="6.07033">
        <ele>761.2</ele>
        <time>2024-08-14T15:00:21Z</time>
      </trkpt>
      <trkpt lat="45.02982" lon="6.07031">
        <ele>761.4</ele>
        <time>2024-08-14T15:00:22Z</time>
      </trkpt>
      <trkpt lat="45.02982" lon="6.07031">
        <ele>761.4</ele>
        <time>2024-08-14T15:00:23Z</time>
      </trkpt>
      <trkpt lat="45.02985" lon="6.07029">
        <ele>761.2</ele>
        <time>2024-08-14T15:00:24Z</time>
      </trkpt>
      <trkpt lat="45.02985" lon="6.07029">
        <ele>761</ele>
        <time>2024-08-14T15:00:25Z</time>
      </trkpt>
      <trkpt lat="45.02987" lon="6.07027">
        <ele>760.8</ele>
        <time>2024-08-14T15:00:26Z</time>
      </trkpt>
      <trkpt lat="45.02987" lon="6.07027">
        <ele>760.8</ele>
        <time>2024-08-14T15:00:27Z</time>
      </trkpt>
      <trkpt lat="45.0299" lon="6.07025">
        <ele>760.8</ele>
        <time>2024-08-14T15:00:28Z</time>
      </trkpt>
      <trkpt lat="45.0299" lon="6.07025">
        <ele>760.8</ele>
        <time>2024-08-14T15:00:29Z</time>
      </trkpt>
      <trkpt lat="45.02992" lon="6.07022">
        <ele>761</ele>
        <time>2024-08-14T15:00:30Z</time>
      </trkpt>
      <trkpt lat="45.02992" lon="6.07022">
        <ele>761.2</ele>
        <time>2024-08-14T15:00:31Z</time>
      </trkpt>
      <trkpt lat="45.02995" lon="6.0702">
        <ele>760.8</ele>
        <time>2024-08-14T15:00:32Z</time>
      </trkpt>
      <trkpt lat="45.02995" lon="6.0702">
        <ele>760.8</ele>
        <time>2024-08-14T15:00:33Z</time>
      </trkpt>
      <trkpt lat="45.02997" lon="6.07018">
        <ele>760.6</ele>
        <time>2024-08-14T15:00:34Z</time>
      </trkpt>
      <trkpt lat="45.02998" lon="6.07017">
        <ele>760.4</ele>
        <time>2024-08-14T15:00:35Z</time>
      </trkpt>
      <trkpt lat="45.02998" lon="6.07017">
        <ele>760.4</ele>
        <time>2024-08-14T15:00:36Z</time>
      </trkpt>
      <trkpt lat="45.03001" lon="6.07015">
        <ele>760.6</ele>
        <time>2024-08-14T15:00:37Z</time>
      </trkpt>
      <trkpt lat="45.03001" lon="6.07015">
        <ele>760.6</ele>
        <time>2024-08-14T15:00:38Z</time>
      </trkpt>
      <trkpt lat="45.03004" lon="6.07013">
        <ele>760.6</ele>
        <time>2024-08-14T15:00:39Z</time>
      </trkpt>
      <trkpt lat="45.03004" lon="6.07013">
        <ele>760.4</ele>
        <time>2024-08-14T15:00:40Z</time>
      </trkpt>
      <trkpt lat="45.03006" lon="6.0701">
        <ele>760.2</ele>
        <time>2024-08-14T15:00:41Z</time>
      </trkpt>
      <trkpt lat="45.03006" lon="6.0701">
        <ele>760.2</ele>
        <time>2024-08-14T15:00:42Z</time>
      </trkpt>
      <trkpt lat="45.03008" lon="6.07008">
        <ele>760.2</ele>
        <time>2024-08-14T15:00:43Z</time>
      </trkpt>
      <trkpt lat="45.03008" lon="6.07008">
        <ele>760.2</ele>
        <time>2024-08-14T15:00:44Z</time>
      </trkpt>
      <trkpt lat="45.03011" lon="6.07006">
        <ele>760.2</ele>
        <time>2024-08-14T15:00:45Z</time>
      </trkpt>
      <trkpt lat="45.03011" lon="6.07006">
        <ele>760.2</ele>
        <time>2024-08-14T15:00:46Z</time>
      </trkpt>
      <trkpt lat="45.03014" lon="6.07005">
        <ele>760</ele>
        <time>2024-08-14T15:00:47Z</time>
      </trkpt>
      <trkpt lat="45.03014" lon="6.07005">
        <ele>760</ele>
        <time>2024-08-14T15:00:48Z</time>
      </trkpt>
      <trkpt lat="45.03016" lon="6.07003">
        <ele>759.8</ele>
        <time>2024-08-14T15:00:49Z</time>
      </trkpt>
      <trkpt lat="45.03016" lon="6.07003">
        <ele>759.6</ele>
        <time>2024-08-14T15:00:50Z</time>
      </trkpt>
      <trkpt lat="45.03019" lon="6.07001">
        <ele>759.6</ele>
        <time>2024-08-14T15:00:51Z</time>
      </trkpt>
      <trkpt lat="45.03019" lon="6.07001">
        <ele>759.4</ele>
        <time>2024-08-14T15:00:52Z</time>
      </trkpt>
      <trkpt lat="45.03021" lon="6.06999">
        <ele>759.4</ele>
        <time>2024-08-14T15:00:53Z</time>
      </trkpt>
      <trkpt lat="45.03021" lon="6.06999">
        <ele>759.4</ele>
        <time>2024-08-14T15:00:54Z</time>
      </trkpt>
      <trkpt lat="45.03023" lon="6.06996">
        <ele>759.4</ele>
        <time>2024-08-14T15:00:55Z</time>
      </trkpt>
      <trkpt lat="45.03025" lon="6.06995">
        <ele>759.2</ele>
        <time>2024-08-14T15:00:56Z</time>
      </trkpt>
      <trkpt lat="45.03025" lon="6.06995">
        <ele>759.2</ele>
        <time>2024-08-14T15:00:57Z</time>
      </trkpt>
      <trkpt lat="45.03027" lon="6.06993">
        <ele>759</ele>
        <time>2024-08-14T15:00:58Z</time>
      </trkpt>
      <trkpt lat="45.03029" lon="6.06992">
        <ele>759</ele>
        <time>2024-08-14T15:00:59Z</time>
      </trkpt>
      <trkpt lat="45.03029" lon="6.06992">
        <ele>759</ele>
        <time>2024-08-14T15:01:00Z</time>
      </trkpt>
      <trkpt lat="45.03032" lon="6.0699">
        <ele>758.8</ele>
        <time>2024-08-14T15:01:01Z</time>
      </trkpt>
      <trkpt lat="45.03032" lon="6.0699">
        <ele>758.4</ele>
        <time>2024-08-14T15:01:02Z</time>
      </trkpt>
      <trkpt lat="45.03034" lon="6.06987">
        <ele>758.4</ele>
        <time>2024-08-14T15:01:03Z</time>
      </trkpt>
      <trkpt lat="45.03034" lon="6.06987">
        <ele>758.4</ele>
        <time>2024-08-14T15:01:04Z</time>
      </trkpt>
      <trkpt lat="45.03037" lon="6.06985">
        <ele>758.4</ele>
        <time>2024-08-14T15:01:05Z</time>
      </trkpt>
      <trkpt lat="45.03037" lon="6.06985">
        <ele>758.2</ele>
        <time>2024-08-14T15:01:06Z</time>
      </trkpt>
      <trkpt lat="45.03039" lon="6.06982">
        <ele>758.2</ele>
        <time>2024-08-14T15:01:07Z</time>
      </trkpt>
      <trkpt lat="45.03039" lon="6.06982">
        <ele>758</ele>
        <time>2024-08-14T15:01:08Z</time>
      </trkpt>
      <trkpt lat="45.03042" lon="6.0698">
        <ele>757.8</ele>
        <time>2024-08-14T15:01:09Z</time>
      </trkpt>
      <trkpt lat="45.03042" lon="6.0698">
        <ele>757.8</ele>
        <time>2024-08-14T15:01:10Z</time>
      </trkpt>
      <trkpt lat="45.03045" lon="6.06978">
        <ele>757.6</ele>
        <time>2024-08-14T15:01:11Z</time>
      </trkpt>
      <trkpt lat="45.03045" lon="6.06978">
        <ele>757.6</ele>
        <time>2024-08-14T15:01:12Z</time>
      </trkpt>
      <trkpt lat="45.03047" lon="6.06976">
        <ele>757.6</ele>
        <time>2024-08-14T15:01:13Z</time>
      </trkpt>
      <trkpt lat="45.03047" lon="6.06976">
        <ele>757.4</ele>
        <time>2024-08-14T15:01:14Z</time>
      </trkpt>
      <trkpt lat="45.0305" lon="6.06973">
        <ele>757.4</ele>
        <time>2024-08-14T15:01:15Z</time>
      </trkpt>
      <trkpt lat="45.0305" lon="6.06973">
        <ele>757.4</ele>
        <time>2024-08-14T15:01:16Z</time>
      </trkpt>
      <trkpt lat="45.03052" lon="6.06971">
        <ele>757.2</ele>
        <time>2024-08-14T15:01:17Z</time>
      </trkpt>
      <trkpt lat="45.03052" lon="6.06971">
        <ele>757</ele>
        <time>2024-08-14T15:01:18Z</time>
      </trkpt>
      <trkpt lat="45.03054" lon="6.06968">
        <ele>757</ele>
        <time>2024-08-14T15:01:19Z</time>
      </trkpt>
      <trkpt lat="45.03054" lon="6.06968">
        <ele>756.8</ele>
        <time>2024-08-14T15:01:20Z</time>
      </trkpt>
      <trkpt lat="45.03057" lon="6.06966">
        <ele>756.8</ele>
        <time>2024-08-14T15:01:21Z</time>
      </trkpt>
      <trkpt lat="45.03057" lon="6.06966">
        <ele>756.8</ele>
        <time>2024-08-14T15:01:22Z</time>
      </trkpt>
      <trkpt lat="45.03057" lon="6.06966">
        <ele>756.6</ele>
        <time>2024-08-14T15:01:23Z</time>
      </trkpt>
      <trkpt lat="45.0306" lon="6.06963">
        <ele>756.4</ele>
        <time>2024-08-14T15:01:24Z</time>
      </trkpt>
      <trkpt lat="45.03062" lon="6.06962">
        <ele>756.4</ele>
        <time>2024-08-14T15:01:25Z</time>
      </trkpt>
      <trkpt lat="45.03062" lon="6.06962">
        <ele>756.4</ele>
        <time>2024-08-14T15:01:26Z</time>
      </trkpt>
      <trkpt lat="45.03064" lon="6.0696">
        <ele>756.4</ele>
        <time>2024-08-14T15:01:27Z</time>
      </trkpt>
      <trkpt lat="45.03064" lon="6.0696">
        <ele>756.2</ele>
        <time>2024-08-14T15:01:28Z</time>
      </trkpt>
      <trkpt lat="45.03067" lon="6.06957">
        <ele>756</ele>
        <time>2024-08-14T15:01:29Z</time>
      </trkpt>
      <trkpt lat="45.03067" lon="6.06957">
        <ele>756</ele>
        <time>2024-08-14T15:01:30Z</time>
      </trkpt>
      <trkpt lat="45.0307" lon="6.06955">
        <ele>755.8</ele>
        <time>2024-08-14T15:01:31Z</time>
      </trkpt>
      <trkpt lat="45.0307" lon="6.06955">
        <ele>755.8</ele>
        <time>2024-08-14T15:01:32Z</time>
      </trkpt>
      <trkpt lat="45.03072" lon="6.06952">
        <ele>755.8</ele>
        <time>2024-08-14T15:01:33Z</time>
      </trkpt>
      <trkpt lat="45.03074" lon="6.06951">
        <ele>755.8</ele>
        <time>2024-08-14T15:01:34Z</time>
      </trkpt>
      <trkpt lat="45.03074" lon="6.06951">
        <ele>755.6</ele>
        <time>2024-08-14T15:01:35Z</time>
      </trkpt>
      <trkpt lat="45.03077" lon="6.0695">
        <ele>755.6</ele>
        <time>2024-08-14T15:01:36Z</time>
      </trkpt>
      <trkpt lat="45.03077" lon="6.0695">
        <ele>755.4</ele>
        <time>2024-08-14T15:01:37Z</time>
      </trkpt>
      <trkpt lat="45.03079" lon="6.06947">
        <ele>755.2</ele>
        <time>2024-08-14T15:01:38Z</time>
      </trkpt>
      <trkpt lat="45.03079" lon="6.06947">
        <ele>755.2</ele>
        <time>2024-08-14T15:01:39Z</time>
      </trkpt>
      <trkpt lat="45.03082" lon="6.06945">
        <ele>755.2</ele>
        <time>2024-08-14T15:01:40Z</time>
      </trkpt>
      <trkpt lat="45.03082" lon="6.06945">
        <ele>755</ele>
        <time>2024-08-14T15:01:41Z</time>
      </trkpt>
      <trkpt lat="45.03084" lon="6.06944">
        <ele>754.8</ele>
        <time>2024-08-14T15:01:42Z</time>
      </trkpt>
      <trkpt lat="45.03084" lon="6.06944">
        <ele>754.6</ele>
        <time>2024-08-14T15:01:43Z</time>
      </trkpt>
      <trkpt lat="45.03086" lon="6.06942">
        <ele>754.6</ele>
        <time>2024-08-14T15:01:44Z</time>
      </trkpt>
      <trkpt lat="45.03086" lon="6.06942">
        <ele>754.6</ele>
        <time>2024-08-14T15:01:45Z</time>
      </trkpt>
      <trkpt lat="45.03089" lon="6.0694">
        <ele>754.6</ele>
        <time>2024-08-14T15:01:46Z</time>
      </trkpt>
      <trkpt lat="45.03089" lon="6.0694">
        <ele>754.6</ele>
        <time>2024-08-14T15:01:47Z</time>
      </trkpt>
      <trkpt lat="45.03092" lon="6.06937">
        <ele>754.2</ele>
        <time>2024-08-14T15:01:48Z</time>
      </trkpt>
      <trkpt lat="45.03092" lon="6.06937">
        <ele>754</ele>
        <time>2024-08-14T15:01:49Z</time>
      </trkpt>
      <trkpt lat="45.03094" lon="6.06935">
        <ele>753.8</ele>
        <time>2024-08-14T15:01:50Z</time>
      </trkpt>
      <trkpt lat="45.03094" lon="6.06935">
        <ele>753.8</ele>
        <time>2024-08-14T15:01:51Z</time>
      </trkpt>
      <trkpt lat="45.03097" lon="6.06934">
        <ele>753.8</ele>
        <time>2024-08-14T15:01:52Z</time>
      </trkpt>
      <trkpt lat="45.03097" lon="6.06934">
        <ele>753.8</ele>
        <time>2024-08-14T15:01:53Z</time>
      </trkpt>
      <trkpt lat="45.031" lon="6.06932">
        <ele>753.8</ele>
        <time>2024-08-14T15:01:54Z</time>
      </trkpt>
      <trkpt lat="45.031" lon="6.06932">
        <ele>753.8</ele>
        <time>2024-08-14T15:01:55Z</time>
      </trkpt>
      <trkpt lat="45.03103" lon="6.06931">
        <ele>753.6</ele>
        <time>2024-08-14T15:01:56Z</time>
      </trkpt>
      <trkpt lat="45.03103" lon="6.06931">
        <ele>753.6</ele>
        <time>2024-08-14T15:01:57Z</time>
      </trkpt>
      <trkpt lat="45.03106" lon="6.0693">
        <ele>753.4</ele>
        <time>2024-08-14T15:01:58Z</time>
      </trkpt>
      <trkpt lat="45.03106" lon="6.0693">
        <ele>753.2</ele>
        <time>2024-08-14T15:01:59Z</time>
      </trkpt>
      <trkpt lat="45.03108" lon="6.06927">
        <ele>753</ele>
        <time>2024-08-14T15:02:00Z</time>
      </trkpt>
      <trkpt lat="45.03108" lon="6.06927">
        <ele>753</ele>
        <time>2024-08-14T15:02:01Z</time>
      </trkpt>
      <trkpt lat="45.03111" lon="6.06925">
        <ele>752.8</ele>
        <time>2024-08-14T15:02:02Z</time>
      </trkpt>
      <trkpt lat="45.03111" lon="6.06925">
        <ele>752.8</ele>
        <time>2024-08-14T15:02:03Z</time>
      </trkpt>
      <trkpt lat="45.03113" lon="6.06922">
        <ele>752.8</ele>
        <time>2024-08-14T15:02:04Z</time>
      </trkpt>
      <trkpt lat="45.03113" lon="6.06922">
        <ele>752.8</ele>
        <time>2024-08-14T15:02:05Z</time>
      </trkpt>
      <trkpt lat="45.03116" lon="6.0692">
        <ele>752.6</ele>
        <time>2024-08-14T15:02:06Z</time>
      </trkpt>
      <trkpt lat="45.03116" lon="6.0692">
        <ele>752.6</ele>
        <time>2024-08-14T15:02:07Z</time>
      </trkpt>
      <trkpt lat="45.03118" lon="6.06918">
        <ele>752.2</ele>
        <time>2024-08-14T15:02:08Z</time>
      </trkpt>
      <trkpt lat="45.03118" lon="6.06918">
        <ele>752.2</ele>
        <time>2024-08-14T15:02:09Z</time>
      </trkpt>
      <trkpt lat="45.03121" lon="6.06916">
        <ele>752.2</ele>
        <time>2024-08-14T15:02:10Z</time>
      </trkpt>
      <trkpt lat="45.03121" lon="6.06916">
        <ele>752.2</ele>
        <time>2024-08-14T15:02:11Z</time>
      </trkpt>
      <trkpt lat="45.03124" lon="6.06914">
        <ele>752.2</ele>
        <time>2024-08-14T15:02:12Z</time>
      </trkpt>
      <trkpt lat="45.03124" lon="6.06914">
        <ele>752.2</ele>
        <time>2024-08-14T15:02:13Z</time>
      </trkpt>
      <trkpt lat="45.03126" lon="6.06911">
        <ele>752</ele>
        <time>2024-08-14T15:02:14Z</time>
      </trkpt>
      <trkpt lat="45.03128" lon="6.0691">
        <ele>751.8</ele>
        <time>2024-08-14T15:02:15Z</time>
      </trkpt>
      <trkpt lat="45.03128" lon="6.0691">
        <ele>751.8</ele>
        <time>2024-08-14T15:02:16Z</time>
      </trkpt>
      <trkpt lat="45.0313" lon="6.06908">
        <ele>751.6</ele>
        <time>2024-08-14T15:02:17Z</time>
      </trkpt>
      <trkpt lat="45.0313" lon="6.06908">
        <ele>751.6</ele>
        <time>2024-08-14T15:02:18Z</time>
      </trkpt>
      <trkpt lat="45.03133" lon="6.06905">
        <ele>751.6</ele>
        <time>2024-08-14T15:02:19Z</time>
      </trkpt>
      <trkpt lat="45.03133" lon="6.06905">
        <ele>751.6</ele>
        <time>2024-08-14T15:02:20Z</time>
      </trkpt>
      <trkpt lat="45.03134" lon="6.06903">
        <ele>751.6</ele>
        <time>2024-08-14T15:02:21Z</time>
      </trkpt>
      <trkpt lat="45.03134" lon="6.06903">
        <ele>751.4</ele>
        <time>2024-08-14T15:02:22Z</time>
      </trkpt>
      <trkpt lat="45.03137" lon="6.06901">
        <ele>751.4</ele>
        <time>2024-08-14T15:02:23Z</time>
      </trkpt>
      <trkpt lat="45.03139" lon="6.06899">
        <ele>751.4</ele>
        <time>2024-08-14T15:02:24Z</time>
      </trkpt>
      <trkpt lat="45.03139" lon="6.06899">
        <ele>751.4</ele>
        <time>2024-08-14T15:02:25Z</time>
      </trkpt>
      <trkpt lat="45.03142" lon="6.06897">
        <ele>751.2</ele>
        <time>2024-08-14T15:02:26Z</time>
      </trkpt>
      <trkpt lat="45.03142" lon="6.06897">
        <ele>751.2</ele>
        <time>2024-08-14T15:02:27Z</time>
      </trkpt>
      <trkpt lat="45.03144" lon="6.06895">
        <ele>750.8</ele>
        <time>2024-08-14T15:02:28Z</time>
      </trkpt>
      <trkpt lat="45.03144" lon="6.06895">
        <ele>750.8</ele>
        <time>2024-08-14T15:02:29Z</time>
      </trkpt>
      <trkpt lat="45.03147" lon="6.06893">
        <ele>750.8</ele>
        <time>2024-08-14T15:02:30Z</time>
      </trkpt>
      <trkpt lat="45.03149" lon="6.06892">
        <ele>750.8</ele>
        <time>2024-08-14T15:02:31Z</time>
      </trkpt>
      <trkpt lat="45.03149" lon="6.06892">
        <ele>750.4</ele>
        <time>2024-08-14T15:02:32Z</time>
      </trkpt>
      <trkpt lat="45.03151" lon="6.06889">
        <ele>750.2</ele>
        <time>2024-08-14T15:02:33Z</time>
      </trkpt>
      <trkpt lat="45.03153" lon="6.06888">
        <ele>750</ele>
        <time>2024-08-14T15:02:34Z</time>
      </trkpt>
      <trkpt lat="45.03153" lon="6.06888">
        <ele>750</ele>
        <time>2024-08-14T15:02:35Z</time>
      </trkpt>
      <trkpt lat="45.03155" lon="6.06886">
        <ele>750.2</ele>
        <time>2024-08-14T15:02:36Z</time>
      </trkpt>
      <trkpt lat="45.03155" lon="6.06886">
        <ele>750</ele>
        <time>2024-08-14T15:02:37Z</time>
      </trkpt>
      <trkpt lat="45.03158" lon="6.06884">
        <ele>749.8</ele>
        <time>2024-08-14T15:02:38Z</time>
      </trkpt>
      <trkpt lat="45.03158" lon="6.06884">
        <ele>749.8</ele>
        <time>2024-08-14T15:02:39Z</time>
      </trkpt>
      <trkpt lat="45.0316" lon="6.06881">
        <ele>749.8</ele>
        <time>2024-08-14T15:02:40Z</time>
      </trkpt>
      <trkpt lat="45.03161" lon="6.06879">
        <ele>749.8</ele>
        <time>2024-08-14T15:02:41Z</time>
      </trkpt>
      <trkpt lat="45.03161" lon="6.06879">
        <ele>749.8</ele>
        <time>2024-08-14T15:02:42Z</time>
      </trkpt>
      <trkpt lat="45.03164" lon="6.06877">
        <ele>749.8</ele>
        <time>2024-08-14T15:02:43Z</time>
      </trkpt>
      <trkpt lat="45.03165" lon="6.06876">
        <ele>749.2</ele>
        <time>2024-08-14T15:02:44Z</time>
      </trkpt>
      <trkpt lat="45.03165" lon="6.06876">
        <ele>748.8</ele>
        <time>2024-08-14T15:02:45Z</time>
      </trkpt>
      <trkpt lat="45.03168" lon="6.06874">
        <ele>748.8</ele>
        <time>2024-08-14T15:02:46Z</time>
      </trkpt>
      <trkpt lat="45.03168" lon="6.06874">
        <ele>748.8</ele>
        <time>2024-08-14T15:02:47Z</time>
      </trkpt>
      <trkpt lat="45.0317" lon="6.06871">
        <ele>749</ele>
        <time>2024-08-14T15:02:48Z</time>
      </trkpt>
      <trkpt lat="45.0317" lon="6.06871">
        <ele>749</ele>
        <time>2024-08-14T15:02:49Z</time>
      </trkpt>
      <trkpt lat="45.03173" lon="6.06869">
        <ele>748.6</ele>
        <time>2024-08-14T15:02:50Z</time>
      </trkpt>
      <trkpt lat="45.03173" lon="6.06869">
        <ele>748.4</ele>
        <time>2024-08-14T15:02:51Z</time>
      </trkpt>
      <trkpt lat="45.03175" lon="6.06866">
        <ele>748.2</ele>
        <time>2024-08-14T15:02:52Z</time>
      </trkpt>
      <trkpt lat="45.03175" lon="6.06866">
        <ele>748.2</ele>
        <time>2024-08-14T15:02:53Z</time>
      </trkpt>
      <trkpt lat="45.03178" lon="6.06864">
        <ele>748.2</ele>
        <time>2024-08-14T15:02:54Z</time>
      </trkpt>
      <trkpt lat="45.03178" lon="6.06864">
        <ele>748</ele>
        <time>2024-08-14T15:02:55Z</time>
      </trkpt>
      <trkpt lat="45.0318" lon="6.06862">
        <ele>748</ele>
        <time>2024-08-14T15:02:56Z</time>
      </trkpt>
      <trkpt lat="45.0318" lon="6.06862">
        <ele>748.2</ele>
        <time>2024-08-14T15:02:57Z</time>
      </trkpt>
      <trkpt lat="45.03182" lon="6.06859">
        <ele>748</ele>
        <time>2024-08-14T15:02:58Z</time>
      </trkpt>
      <trkpt lat="45.03182" lon="6.06859">
        <ele>748</ele>
        <time>2024-08-14T15:02:59Z</time>
      </trkpt>
      <trkpt lat="45.03185" lon="6.06857">
        <ele>747.8</ele>
        <time>2024-08-14T15:03:00Z</time>
      </trkpt>
      <trkpt lat="45.03185" lon="6.06857">
        <ele>747.8</ele>
        <time>2024-08-14T15:03:01Z</time>
      </trkpt>
      <trkpt lat="45.03187" lon="6.06854">
        <ele>747.8</ele>
        <time>2024-08-14T15:03:02Z</time>
      </trkpt>
      <trkpt lat="45.03187" lon="6.06854">
        <ele>747.8</ele>
        <time>2024-08-14T15:03:03Z</time>
      </trkpt>
      <trkpt lat="45.0319" lon="6.06853">
        <ele>747.6</ele>
        <time>2024-08-14T15:03:04Z</time>
      </trkpt>
      <trkpt lat="45.0319" lon="6.06853">
        <ele>747.4</ele>
        <time>2024-08-14T15:03:05Z</time>
      </trkpt>
      <trkpt lat="45.03193" lon="6.06851">
        <ele>747.6</ele>
        <time>2024-08-14T15:03:06Z</time>
      </trkpt>
      <trkpt lat="45.03193" lon="6.06851">
        <ele>747.6</ele>
        <time>2024-08-14T15:03:07Z</time>
      </trkpt>
      <trkpt lat="45.03195" lon="6.06849">
        <ele>747.4</ele>
        <time>2024-08-14T15:03:08Z</time>
      </trkpt>
      <trkpt lat="45.03195" lon="6.06849">
        <ele>747.4</ele>
        <time>2024-08-14T15:03:09Z</time>
      </trkpt>
      <trkpt lat="45.03197" lon="6.06847">
        <ele>747.4</ele>
        <time>2024-08-14T15:03:10Z</time>
      </trkpt>
      <trkpt lat="45.03197" lon="6.06847">
        <ele>747.4</ele>
        <time>2024-08-14T15:03:11Z</time>
      </trkpt>
      <trkpt lat="45.032" lon="6.06844">
        <ele>747.4</ele>
        <time>2024-08-14T15:03:12Z</time>
      </trkpt>
      <trkpt lat="45.032" lon="6.06844">
        <ele>747.4</ele>
        <time>2024-08-14T15:03:13Z</time>
      </trkpt>
      <trkpt lat="45.03203" lon="6.06842">
        <ele>747.4</ele>
        <time>2024-08-14T15:03:14Z</time>
      </trkpt>
      <trkpt lat="45.03203" lon="6.06842">
        <ele>747.4</ele>
        <time>2024-08-14T15:03:15Z</time>
      </trkpt>
      <trkpt lat="45.03205" lon="6.0684">
        <ele>747.2</ele>
        <time>2024-08-14T15:03:16Z</time>
      </trkpt>
      <trkpt lat="45.03205" lon="6.0684">
        <ele>747</ele>
        <time>2024-08-14T15:03:17Z</time>
      </trkpt>
      <trkpt lat="45.03208" lon="6.06838">
        <ele>747</ele>
        <time>2024-08-14T15:03:18Z</time>
      </trkpt>
      <trkpt lat="45.03208" lon="6.06838">
        <ele>747</ele>
        <time>2024-08-14T15:03:19Z</time>
      </trkpt>
      <trkpt lat="45.0321" lon="6.06836">
        <ele>747</ele>
        <time>2024-08-14T15:03:20Z</time>
      </trkpt>
      <trkpt lat="45.0321" lon="6.06836">
        <ele>747</ele>
        <time>2024-08-14T15:03:21Z</time>
      </trkpt>
      <trkpt lat="45.03213" lon="6.06834">
        <ele>747</ele>
        <time>2024-08-14T15:03:22Z</time>
      </trkpt>
      <trkpt lat="45.03214" lon="6.06832">
        <ele>746.8</ele>
        <time>2024-08-14T15:03:23Z</time>
      </trkpt>
      <trkpt lat="45.03214" lon="6.06832">
        <ele>746.8</ele>
        <time>2024-08-14T15:03:24Z</time>
      </trkpt>
      <trkpt lat="45.03217" lon="6.0683">
        <ele>746.8</ele>
        <time>2024-08-14T15:03:25Z</time>
      </trkpt>
      <trkpt lat="45.03217" lon="6.0683">
        <ele>746.8</ele>
        <time>2024-08-14T15:03:26Z</time>
      </trkpt>
      <trkpt lat="45.03219" lon="6.06828">
        <ele>746.8</ele>
        <time>2024-08-14T15:03:27Z</time>
      </trkpt>
      <trkpt lat="45.03221" lon="6.06827">
        <ele>746.8</ele>
        <time>2024-08-14T15:03:28Z</time>
      </trkpt>
      <trkpt lat="45.03221" lon="6.06827">
        <ele>746.8</ele>
        <time>2024-08-14T15:03:29Z</time>
      </trkpt>
      <trkpt lat="45.03223" lon="6.06824">
        <ele>746.8</ele>
        <time>2024-08-14T15:03:30Z</time>
      </trkpt>
      <trkpt lat="45.03223" lon="6.06824">
        <ele>746.6</ele>
        <time>2024-08-14T15:03:31Z</time>
      </trkpt>
      <trkpt lat="45.03226" lon="6.06822">
        <ele>746.4</ele>
        <time>2024-08-14T15:03:32Z</time>
      </trkpt>
      <trkpt lat="45.03226" lon="6.06822">
        <ele>746.2</ele>
        <time>2024-08-14T15:03:33Z</time>
      </trkpt>
      <trkpt lat="45.03229" lon="6.0682">
        <ele>746</ele>
        <time>2024-08-14T15:03:34Z</time>
      </trkpt>
      <trkpt lat="45.03229" lon="6.0682">
        <ele>746</ele>
        <time>2024-08-14T15:03:35Z</time>
      </trkpt>
      <trkpt lat="45.03231" lon="6.06818">
        <ele>746</ele>
        <time>2024-08-14T15:03:36Z</time>
      </trkpt>
      <trkpt lat="45.03233" lon="6.06816">
        <ele>746</ele>
        <time>2024-08-14T15:03:37Z</time>
      </trkpt>
      <trkpt lat="45.03233" lon="6.06816">
        <ele>746.2</ele>
        <time>2024-08-14T15:03:38Z</time>
      </trkpt>
      <trkpt lat="45.03235" lon="6.06815">
        <ele>746.2</ele>
        <time>2024-08-14T15:03:39Z</time>
      </trkpt>
      <trkpt lat="45.03235" lon="6.06815">
        <ele>746</ele>
        <time>2024-08-14T15:03:40Z</time>
      </trkpt>
      <trkpt lat="45.03237" lon="6.06813">
        <ele>746</ele>
        <time>2024-08-14T15:03:41Z</time>
      </trkpt>
      <trkpt lat="45.03237" lon="6.06813">
        <ele>746</ele>
        <time>2024-08-14T15:03:42Z</time>
      </trkpt>
      <trkpt lat="45.0324" lon="6.0681">
        <ele>745.8</ele>
        <time>2024-08-14T15:03:43Z</time>
      </trkpt>
      <trkpt lat="45.03242" lon="6.06809">
        <ele>745.6</ele>
        <time>2024-08-14T15:03:44Z</time>
      </trkpt>
      <trkpt lat="45.03242" lon="6.06809">
        <ele>745.4</ele>
        <time>2024-08-14T15:03:45Z</time>
      </trkpt>
      <trkpt lat="45.03245" lon="6.06807">
        <ele>745.4</ele>
        <time>2024-08-14T15:03:46Z</time>
      </trkpt>
      <trkpt lat="45.03245" lon="6.06807">
        <ele>745.4</ele>
        <time>2024-08-14T15:03:47Z</time>
      </trkpt>
      <trkpt lat="45.03247" lon="6.06805">
        <ele>745.6</ele>
        <time>2024-08-14T15:03:48Z</time>
      </trkpt>
      <trkpt lat="45.03247" lon="6.06805">
        <ele>745.8</ele>
        <time>2024-08-14T15:03:49Z</time>
      </trkpt>
      <trkpt lat="45.03249" lon="6.06802">
        <ele>745.8</ele>
        <time>2024-08-14T15:03:50Z</time>
      </trkpt>
      <trkpt lat="45.03249" lon="6.06802">
        <ele>745.6</ele>
        <time>2024-08-14T15:03:51Z</time>
      </trkpt>
      <trkpt lat="45.03252" lon="6.068">
        <ele>745.6</ele>
        <time>2024-08-14T15:03:52Z</time>
      </trkpt>
      <trkpt lat="45.03252" lon="6.068">
        <ele>745.6</ele>
        <time>2024-08-14T15:03:53Z</time>
      </trkpt>
      <trkpt lat="45.03254" lon="6.06798">
        <ele>745.6</ele>
        <time>2024-08-14T15:03:54Z</time>
      </trkpt>
      <trkpt lat="45.03256" lon="6.06797">
        <ele>745.6</ele>
        <time>2024-08-14T15:03:55Z</time>
      </trkpt>
      <trkpt lat="45.03256" lon="6.06797">
        <ele>745.6</ele>
        <time>2024-08-14T15:03:56Z</time>
      </trkpt>
      <trkpt lat="45.03258" lon="6.06794">
        <ele>745.6</ele>
        <time>2024-08-14T15:03:57Z</time>
      </trkpt>
      <trkpt lat="45.03258" lon="6.06794">
        <ele>745.6</ele>
        <time>2024-08-14T15:03:58Z</time>
      </trkpt>
      <trkpt lat="45.03261" lon="6.06792">
        <ele>745.6</ele>
        <time>2024-08-14T15:03:59Z</time>
      </trkpt>
      <trkpt lat="45.03262" lon="6.06791">
        <ele>745.4</ele>
        <time>2024-08-14T15:04:00Z</time>
      </trkpt>
      <trkpt lat="45.03262" lon="6.06791">
        <ele>745.2</ele>
        <time>2024-08-14T15:04:01Z</time>
      </trkpt>
      <trkpt lat="45.03265" lon="6.06789">
        <ele>745.2</ele>
        <time>2024-08-14T15:04:02Z</time>
      </trkpt>
      <trkpt lat="45.03265" lon="6.06789">
        <ele>745.2</ele>
        <time>2024-08-14T15:04:03Z</time>
      </trkpt>
      <trkpt lat="45.03267" lon="6.06787">
        <ele>745.2</ele>
        <time>2024-08-14T15:04:04Z</time>
      </trkpt>
      <trkpt lat="45.03267" lon="6.06787">
        <ele>745.2</ele>
        <time>2024-08-14T15:04:05Z</time>
      </trkpt>
      <trkpt lat="45.0327" lon="6.06785">
        <ele>745.2</ele>
        <time>2024-08-14T15:04:06Z</time>
      </trkpt>
      <trkpt lat="45.0327" lon="6.06785">
        <ele>745</ele>
        <time>2024-08-14T15:04:07Z</time>
      </trkpt>
      <trkpt lat="45.03272" lon="6.06782">
        <ele>745</ele>
        <time>2024-08-14T15:04:08Z</time>
      </trkpt>
      <trkpt lat="45.03272" lon="6.06782">
        <ele>744.8</ele>
        <time>2024-08-14T15:04:09Z</time>
      </trkpt>
      <trkpt lat="45.03275" lon="6.0678">
        <ele>744.8</ele>
        <time>2024-08-14T15:04:10Z</time>
      </trkpt>
      <trkpt lat="45.03275" lon="6.0678">
        <ele>744.8</ele>
        <time>2024-08-14T15:04:11Z</time>
      </trkpt>
      <trkpt lat="45.03277" lon="6.06778">
        <ele>745</ele>
        <time>2024-08-14T15:04:12Z</time>
      </trkpt>
      <trkpt lat="45.03277" lon="6.06778">
        <ele>745.2</ele>
        <time>2024-08-14T15:04:13Z</time>
      </trkpt>
      <trkpt lat="45.03279" lon="6.06776">
        <ele>745.2</ele>
        <time>2024-08-14T15:04:14Z</time>
      </trkpt>
      <trkpt lat="45.03279" lon="6.06776">
        <ele>744.8</ele>
        <time>2024-08-14T15:04:15Z</time>
      </trkpt>
      <trkpt lat="45.03282" lon="6.06774">
        <ele>744.8</ele>
        <time>2024-08-14T15:04:16Z</time>
      </trkpt>
      <trkpt lat="45.03282" lon="6.06774">
        <ele>744.6</ele>
        <time>2024-08-14T15:04:17Z</time>
      </trkpt>
      <trkpt lat="45.03285" lon="6.06772">
        <ele>744.4</ele>
        <time>2024-08-14T15:04:18Z</time>
      </trkpt>
      <trkpt lat="45.03285" lon="6.06772">
        <ele>744.4</ele>
        <time>2024-08-14T15:04:19Z</time>
      </trkpt>
      <trkpt lat="45.03288" lon="6.06769">
        <ele>744.6</ele>
        <time>2024-08-14T15:04:20Z</time>
      </trkpt>
      <trkpt lat="45.03288" lon="6.06769">
        <ele>744.6</ele>
        <time>2024-08-14T15:04:21Z</time>
      </trkpt>
      <trkpt lat="45.03291" lon="6.06767">
        <ele>744.6</ele>
        <time>2024-08-14T15:04:22Z</time>
      </trkpt>
      <trkpt lat="45.03291" lon="6.06767">
        <ele>744.6</ele>
        <time>2024-08-14T15:04:23Z</time>
      </trkpt>
      <trkpt lat="45.03293" lon="6.06764">
        <ele>744.6</ele>
        <time>2024-08-14T15:04:24Z</time>
      </trkpt>
      <trkpt lat="45.03293" lon="6.06764">
        <ele>744.4</ele>
        <time>2024-08-14T15:04:25Z</time>
      </trkpt>
      <trkpt lat="45.03295" lon="6.06762">
        <ele>744.4</ele>
        <time>2024-08-14T15:04:26Z</time>
      </trkpt>
      <trkpt lat="45.03295" lon="6.06762">
        <ele>744.4</ele>
        <time>2024-08-14T15:04:27Z</time>
      </trkpt>
      <trkpt lat="45.03295" lon="6.06762">
        <ele>744.4</ele>
        <time>2024-08-14T15:04:28Z</time>
      </trkpt>
      <trkpt lat="45.03299" lon="6.06759">
        <ele>744.2</ele>
        <time>2024-08-14T15:04:29Z</time>
      </trkpt>
      <trkpt lat="45.03301" lon="6.06758">
        <ele>744.2</ele>
        <time>2024-08-14T15:04:30Z</time>
      </trkpt>
      <trkpt lat="45.03301" lon="6.06758">
        <ele>744.2</ele>
        <time>2024-08-14T15:04:31Z</time>
      </trkpt>
      <trkpt lat="45.03304" lon="6.06756">
        <ele>744.2</ele>
        <time>2024-08-14T15:04:32Z</time>
      </trkpt>
      <trkpt lat="45.03304" lon="6.06756">
        <ele>744</ele>
        <time>2024-08-14T15:04:33Z</time>
      </trkpt>
      <trkpt lat="45.03307" lon="6.06754">
        <ele>744</ele>
        <time>2024-08-14T15:04:34Z</time>
      </trkpt>
      <trkpt lat="45.03307" lon="6.06754">
        <ele>744</ele>
        <time>2024-08-14T15:04:35Z</time>
      </trkpt>
      <trkpt lat="45.0331" lon="6.06752">
        <ele>744</ele>
        <time>2024-08-14T15:04:36Z</time>
      </trkpt>
      <trkpt lat="45.0331" lon="6.06752">
        <ele>744</ele>
        <time>2024-08-14T15:04:37Z</time>
      </trkpt>
      <trkpt lat="45.03312" lon="6.0675">
        <ele>744.2</ele>
        <time>2024-08-14T15:04:38Z</time>
      </trkpt>
      <trkpt lat="45.03312" lon="6.0675">
        <ele>744.2</ele>
        <time>2024-08-14T15:04:39Z</time>
      </trkpt>
      <trkpt lat="45.03315" lon="6.06748">
        <ele>743.8</ele>
        <time>2024-08-14T15:04:40Z</time>
      </trkpt>
      <trkpt lat="45.03315" lon="6.06748">
        <ele>743.8</ele>
        <time>2024-08-14T15:04:41Z</time>
      </trkpt>
      <trkpt lat="45.03317" lon="6.06746">
        <ele>743.8</ele>
        <time>2024-08-14T15:04:42Z</time>
      </trkpt>
      <trkpt lat="45.03317" lon="6.06746">
        <ele>743.8</ele>
        <time>2024-08-14T15:04:43Z</time>
      </trkpt>
      <trkpt lat="45.0332" lon="6.06743">
        <ele>744</ele>
        <time>2024-08-14T15:04:44Z</time>
      </trkpt>
      <trkpt lat="45.0332" lon="6.06743">
        <ele>744.2</ele>
        <time>2024-08-14T15:04:45Z</time>
      </trkpt>
      <trkpt lat="45.03322" lon="6.0674">
        <ele>744.2</ele>
        <time>2024-08-14T15:04:46Z</time>
      </trkpt>
      <trkpt lat="45.03322" lon="6.0674">
        <ele>744</ele>
        <time>2024-08-14T15:04:47Z</time>
      </trkpt>
      <trkpt lat="45.03324" lon="6.06737">
        <ele>743.8</ele>
        <time>2024-08-14T15:04:48Z</time>
      </trkpt>
      <trkpt lat="45.03324" lon="6.06737">
        <ele>743.8</ele>
        <time>2024-08-14T15:04:49Z</time>
      </trkpt>
      <trkpt lat="45.03326" lon="6.06734">
        <ele>743.6</ele>
        <time>2024-08-14T15:04:50Z</time>
      </trkpt>
      <trkpt lat="45.03326" lon="6.06734">
        <ele>743.6</ele>
        <time>2024-08-14T15:04:51Z</time>
      </trkpt>
      <trkpt lat="45.03329" lon="6.06732">
        <ele>743.6</ele>
        <time>2024-08-14T15:04:52Z</time>
      </trkpt>
      <trkpt lat="45.03329" lon="6.06732">
        <ele>743.6</ele>
        <time>2024-08-14T15:04:53Z</time>
      </trkpt>
      <trkpt lat="45.03332" lon="6.06729">
        <ele>743.6</ele>
        <time>2024-08-14T15:04:54Z</time>
      </trkpt>
      <trkpt lat="45.03332" lon="6.06729">
        <ele>743.6</ele>
        <time>2024-08-14T15:04:55Z</time>
      </trkpt>
      <trkpt lat="45.03332" lon="6.06729">
        <ele>743.6</ele>
        <time>2024-08-14T15:04:56Z</time>
      </trkpt>
      <trkpt lat="45.03336" lon="6.06725">
        <ele>743.6</ele>
        <time>2024-08-14T15:04:57Z</time>
      </trkpt>
      <trkpt lat="45.03337" lon="6.06725">
        <ele>743.6</ele>
        <time>2024-08-14T15:04:58Z</time>
      </trkpt>
      <trkpt lat="45.03337" lon="6.06725">
        <ele>743.6</ele>
        <time>2024-08-14T15:04:59Z</time>
      </trkpt>
      <trkpt lat="45.03337" lon="6.06725">
        <ele>743.6</ele>
        <time>2024-08-14T15:05:00Z</time>
      </trkpt>
      <trkpt lat="45.03341" lon="6.06722">
        <ele>743.6</ele>
        <time>2024-08-14T15:05:01Z</time>
      </trkpt>
      <trkpt lat="45.03342" lon="6.06722">
        <ele>743.4</ele>
        <time>2024-08-14T15:05:02Z</time>
      </trkpt>
      <trkpt lat="45.03342" lon="6.06722">
        <ele>743.4</ele>
        <time>2024-08-14T15:05:03Z</time>
      </trkpt>
      <trkpt lat="45.03346" lon="6.06719">
        <ele>743.2</ele>
        <time>2024-08-14T15:05:04Z</time>
      </trkpt>
      <trkpt lat="45.03346" lon="6.06719">
        <ele>743.2</ele>
        <time>2024-08-14T15:05:05Z</time>
      </trkpt>
      <trkpt lat="45.03348" lon="6.06717">
        <ele>743.2</ele>
        <time>2024-08-14T15:05:06Z</time>
      </trkpt>
      <trkpt lat="45.03348" lon="6.06717">
        <ele>743.2</ele>
        <time>2024-08-14T15:05:07Z</time>
      </trkpt>
      <trkpt lat="45.0335" lon="6.06715">
        <ele>743.2</ele>
        <time>2024-08-14T15:05:08Z</time>
      </trkpt>
      <trkpt lat="45.0335" lon="6.06715">
        <ele>743.2</ele>
        <time>2024-08-14T15:05:09Z</time>
      </trkpt>
      <trkpt lat="45.03352" lon="6.06713">
        <ele>743.2</ele>
        <time>2024-08-14T15:05:10Z</time>
      </trkpt>
      <trkpt lat="45.03352" lon="6.06713">
        <ele>743.2</ele>
        <time>2024-08-14T15:05:11Z</time>
      </trkpt>
      <trkpt lat="45.03354" lon="6.0671">
        <ele>743.2</ele>
        <time>2024-08-14T15:05:12Z</time>
      </trkpt>
      <trkpt lat="45.03354" lon="6.0671">
        <ele>743</ele>
        <time>2024-08-14T15:05:13Z</time>
      </trkpt>
      <trkpt lat="45.03356" lon="6.06708">
        <ele>743.2</ele>
        <time>2024-08-14T15:05:14Z</time>
      </trkpt>
      <trkpt lat="45.03356" lon="6.06708">
        <ele>743.2</ele>
        <time>2024-08-14T15:05:15Z</time>
      </trkpt>
      <trkpt lat="45.03359" lon="6.06706">
        <ele>743.2</ele>
        <time>2024-08-14T15:05:16Z</time>
      </trkpt>
      <trkpt lat="45.03359" lon="6.06706">
        <ele>743.2</ele>
        <time>2024-08-14T15:05:17Z</time>
      </trkpt>
      <trkpt lat="45.03361" lon="6.06703">
        <ele>743.2</ele>
        <time>2024-08-14T15:05:18Z</time>
      </trkpt>
      <trkpt lat="45.03361" lon="6.06703">
        <ele>743.2</ele>
        <time>2024-08-14T15:05:19Z</time>
      </trkpt>
      <trkpt lat="45.03364" lon="6.06701">
        <ele>743</ele>
        <time>2024-08-14T15:05:20Z</time>
      </trkpt>
      <trkpt lat="45.03364" lon="6.06701">
        <ele>743</ele>
        <time>2024-08-14T15:05:21Z</time>
      </trkpt>
      <trkpt lat="45.03366" lon="6.06698">
        <ele>743.2</ele>
        <time>2024-08-14T15:05:22Z</time>
      </trkpt>
      <trkpt lat="45.03366" lon="6.06698">
        <ele>743.2</ele>
        <time>2024-08-14T15:05:23Z</time>
      </trkpt>
      <trkpt lat="45.03368" lon="6.06696">
        <ele>743.2</ele>
        <time>2024-08-14T15:05:24Z</time>
      </trkpt>
      <trkpt lat="45.03368" lon="6.06696">
        <ele>743</ele>
        <time>2024-08-14T15:05:25Z</time>
      </trkpt>
      <trkpt lat="45.03371" lon="6.06693">
        <ele>743</ele>
        <time>2024-08-14T15:05:26Z</time>
      </trkpt>
      <trkpt lat="45.03371" lon="6.06693">
        <ele>743</ele>
        <time>2024-08-14T15:05:27Z</time>
      </trkpt>
      <trkpt lat="45.03374" lon="6.06691">
        <ele>743</ele>
        <time>2024-08-14T15:05:28Z</time>
      </trkpt>
      <trkpt lat="45.03374" lon="6.06691">
        <ele>743</ele>
        <time>2024-08-14T15:05:29Z</time>
      </trkpt>
      <trkpt lat="45.03376" lon="6.06689">
        <ele>742.8</ele>
        <time>2024-08-14T15:05:30Z</time>
      </trkpt>
      <trkpt lat="45.03376" lon="6.06689">
        <ele>742.8</ele>
        <time>2024-08-14T15:05:31Z</time>
      </trkpt>
      <trkpt lat="45.0338" lon="6.06687">
        <ele>743.2</ele>
        <time>2024-08-14T15:05:32Z</time>
      </trkpt>
      <trkpt lat="45.0338" lon="6.06687">
        <ele>743.2</ele>
        <time>2024-08-14T15:05:33Z</time>
      </trkpt>
      <trkpt lat="45.03381" lon="6.06685">
        <ele>743</ele>
        <time>2024-08-14T15:05:34Z</time>
      </trkpt>
      <trkpt lat="45.03381" lon="6.06685">
        <ele>743</ele>
        <time>2024-08-14T15:05:35Z</time>
      </trkpt>
      <trkpt lat="45.03384" lon="6.06682">
        <ele>743</ele>
        <time>2024-08-14T15:05:36Z</time>
      </trkpt>
      <trkpt lat="45.03384" lon="6.06682">
        <ele>743</ele>
        <time>2024-08-14T15:05:37Z</time>
      </trkpt>
      <trkpt lat="45.03386" lon="6.0668">
        <ele>742.8</ele>
        <time>2024-08-14T15:05:38Z</time>
      </trkpt>
      <trkpt lat="45.03386" lon="6.0668">
        <ele>742.8</ele>
        <time>2024-08-14T15:05:39Z</time>
      </trkpt>
      <trkpt lat="45.03389" lon="6.06677">
        <ele>742.6</ele>
        <time>2024-08-14T15:05:40Z</time>
      </trkpt>
      <trkpt lat="45.0339" lon="6.06676">
        <ele>742.6</ele>
        <time>2024-08-14T15:05:41Z</time>
      </trkpt>
      <trkpt lat="45.0339" lon="6.06676">
        <ele>742.8</ele>
        <time>2024-08-14T15:05:42Z</time>
      </trkpt>
      <trkpt lat="45.03392" lon="6.06674">
        <ele>743</ele>
        <time>2024-08-14T15:05:43Z</time>
      </trkpt>
      <trkpt lat="45.03392" lon="6.06674">
        <ele>743</ele>
        <time>2024-08-14T15:05:44Z</time>
      </trkpt>
      <trkpt lat="45.03395" lon="6.06671">
        <ele>742.8</ele>
        <time>2024-08-14T15:05:45Z</time>
      </trkpt>
      <trkpt lat="45.03395" lon="6.06671">
        <ele>742.8</ele>
        <time>2024-08-14T15:05:46Z</time>
      </trkpt>
      <trkpt lat="45.03397" lon="6.06669">
        <ele>743</ele>
        <time>2024-08-14T15:05:47Z</time>
      </trkpt>
      <trkpt lat="45.03397" lon="6.06669">
        <ele>743</ele>
        <time>2024-08-14T15:05:48Z</time>
      </trkpt>
      <trkpt lat="45.03399" lon="6.06666">
        <ele>743</ele>
        <time>2024-08-14T15:05:49Z</time>
      </trkpt>
      <trkpt lat="45.03401" lon="6.06665">
        <ele>742.8</ele>
        <time>2024-08-14T15:05:50Z</time>
      </trkpt>
      <trkpt lat="45.03401" lon="6.06665">
        <ele>742.8</ele>
        <time>2024-08-14T15:05:51Z</time>
      </trkpt>
      <trkpt lat="45.03403" lon="6.06662">
        <ele>742.8</ele>
        <time>2024-08-14T15:05:52Z</time>
      </trkpt>
      <trkpt lat="45.03403" lon="6.06662">
        <ele>742.8</ele>
        <time>2024-08-14T15:05:53Z</time>
      </trkpt>
      <trkpt lat="45.03406" lon="6.06659">
        <ele>742.8</ele>
        <time>2024-08-14T15:05:54Z</time>
      </trkpt>
      <trkpt lat="45.03406" lon="6.06659">
        <ele>742.8</ele>
        <time>2024-08-14T15:05:55Z</time>
      </trkpt>
      <trkpt lat="45.03408" lon="6.06657">
        <ele>742.8</ele>
        <time>2024-08-14T15:05:56Z</time>
      </trkpt>
      <trkpt lat="45.03408" lon="6.06657">
        <ele>743</ele>
        <time>2024-08-14T15:05:57Z</time>
      </trkpt>
      <trkpt lat="45.03411" lon="6.06655">
        <ele>743</ele>
        <time>2024-08-14T15:05:58Z</time>
      </trkpt>
      <trkpt lat="45.03411" lon="6.06655">
        <ele>743</ele>
        <time>2024-08-14T15:05:59Z</time>
      </trkpt>
      <trkpt lat="45.03413" lon="6.06652">
        <ele>742.8</ele>
        <time>2024-08-14T15:06:00Z</time>
      </trkpt>
      <trkpt lat="45.03413" lon="6.06652">
        <ele>742.8</ele>
        <time>2024-08-14T15:06:01Z</time>
      </trkpt>
      <trkpt lat="45.03413" lon="6.06652">
        <ele>743</ele>
        <time>2024-08-14T15:06:02Z</time>
      </trkpt>
      <trkpt lat="45.03417" lon="6.06649">
        <ele>743</ele>
        <time>2024-08-14T15:06:03Z</time>
      </trkpt>
      <trkpt lat="45.03419" lon="6.06648">
        <ele>743</ele>
        <time>2024-08-14T15:06:04Z</time>
      </trkpt>
      <trkpt lat="45.03419" lon="6.06648">
        <ele>742.8</ele>
        <time>2024-08-14T15:06:05Z</time>
      </trkpt>
      <trkpt lat="45.03421" lon="6.06646">
        <ele>742.8</ele>
        <time>2024-08-14T15:06:06Z</time>
      </trkpt>
      <trkpt lat="45.03423" lon="6.06644">
        <ele>742.8</ele>
        <time>2024-08-14T15:06:07Z</time>
      </trkpt>
      <trkpt lat="45.03423" lon="6.06644">
        <ele>742.8</ele>
        <time>2024-08-14T15:06:08Z</time>
      </trkpt>
      <trkpt lat="45.03423" lon="6.06644">
        <ele>742.8</ele>
        <time>2024-08-14T15:06:09Z</time>
      </trkpt>
      <trkpt lat="45.03427" lon="6.0664">
        <ele>742.8</ele>
        <time>2024-08-14T15:06:10Z</time>
      </trkpt>
      <trkpt lat="45.03429" lon="6.0664">
        <ele>742.8</ele>
        <time>2024-08-14T15:06:11Z</time>
      </trkpt>
      <trkpt lat="45.03429" lon="6.0664">
        <ele>742.8</ele>
        <time>2024-08-14T15:06:12Z</time>
      </trkpt>
      <trkpt lat="45.03431" lon="6.06637">
        <ele>742.6</ele>
        <time>2024-08-14T15:06:13Z</time>
      </trkpt>
      <trkpt lat="45.03431" lon="6.06637">
        <ele>742.6</ele>
        <time>2024-08-14T15:06:14Z</time>
      </trkpt>
      <trkpt lat="45.03434" lon="6.06636">
        <ele>742.6</ele>
        <time>2024-08-14T15:06:15Z</time>
      </trkpt>
      <trkpt lat="45.03434" lon="6.06636">
        <ele>742.6</ele>
        <time>2024-08-14T15:06:16Z</time>
      </trkpt>
      <trkpt lat="45.03437" lon="6.06634">
        <ele>742.6</ele>
        <time>2024-08-14T15:06:17Z</time>
      </trkpt>
      <trkpt lat="45.03437" lon="6.06634">
        <ele>742.6</ele>
        <time>2024-08-14T15:06:18Z</time>
      </trkpt>
      <trkpt lat="45.0344" lon="6.06633">
        <ele>742.6</ele>
        <time>2024-08-14T15:06:19Z</time>
      </trkpt>
      <trkpt lat="45.03442" lon="6.06632">
        <ele>742.6</ele>
        <time>2024-08-14T15:06:20Z</time>
      </trkpt>
      <trkpt lat="45.03442" lon="6.06632">
        <ele>742.6</ele>
        <time>2024-08-14T15:06:21Z</time>
      </trkpt>
      <trkpt lat="45.03445" lon="6.06631">
        <ele>742.6</ele>
        <time>2024-08-14T15:06:22Z</time>
      </trkpt>
      <trkpt lat="45.03445" lon="6.06631">
        <ele>742.4</ele>
        <time>2024-08-14T15:06:23Z</time>
      </trkpt>
      <trkpt lat="45.03447" lon="6.06629">
        <ele>742.2</ele>
        <time>2024-08-14T15:06:24Z</time>
      </trkpt>
      <trkpt lat="45.03447" lon="6.06629">
        <ele>742.2</ele>
        <time>2024-08-14T15:06:25Z</time>
      </trkpt>
      <trkpt lat="45.0345" lon="6.06626">
        <ele>742.2</ele>
        <time>2024-08-14T15:06:26Z</time>
      </trkpt>
      <trkpt lat="45.0345" lon="6.06626">
        <ele>742.2</ele>
        <time>2024-08-14T15:06:27Z</time>
      </trkpt>
      <trkpt lat="45.03453" lon="6.06624">
        <ele>742.2</ele>
        <time>2024-08-14T15:06:28Z</time>
      </trkpt>
      <trkpt lat="45.03453" lon="6.06624">
        <ele>742.2</ele>
        <time>2024-08-14T15:06:29Z</time>
      </trkpt>
      <trkpt lat="45.03455" lon="6.06622">
        <ele>742.2</ele>
        <time>2024-08-14T15:06:30Z</time>
      </trkpt>
      <trkpt lat="45.03455" lon="6.06622">
        <ele>742.2</ele>
        <time>2024-08-14T15:06:31Z</time>
      </trkpt>
      <trkpt lat="45.03457" lon="6.0662">
        <ele>742.2</ele>
        <time>2024-08-14T15:06:32Z</time>
      </trkpt>
      <trkpt lat="45.03457" lon="6.0662">
        <ele>742.2</ele>
        <time>2024-08-14T15:06:33Z</time>
      </trkpt>
      <trkpt lat="45.03457" lon="6.0662">
        <ele>742.2</ele>
        <time>2024-08-14T15:06:34Z</time>
      </trkpt>
      <trkpt lat="45.03461" lon="6.06617">
        <ele>742.4</ele>
        <time>2024-08-14T15:06:35Z</time>
      </trkpt>
      <trkpt lat="45.03462" lon="6.06616">
        <ele>742.2</ele>
        <time>2024-08-14T15:06:36Z</time>
      </trkpt>
      <trkpt lat="45.03462" lon="6.06616">
        <ele>742.2</ele>
        <time>2024-08-14T15:06:37Z</time>
      </trkpt>
      <trkpt lat="45.03463" lon="6.06614">
        <ele>742.2</ele>
        <time>2024-08-14T15:06:38Z</time>
      </trkpt>
      <trkpt lat="45.03465" lon="6.06611">
        <ele>742.6</ele>
        <time>2024-08-14T15:06:39Z</time>
      </trkpt>
      <trkpt lat="45.03465" lon="6.06611">
        <ele>742.6</ele>
        <time>2024-08-14T15:06:40Z</time>
      </trkpt>
      <trkpt lat="45.03468" lon="6.06608">
        <ele>742.4</ele>
        <time>2024-08-14T15:06:41Z</time>
      </trkpt>
      <trkpt lat="45.03468" lon="6.06608">
        <ele>742.2</ele>
        <time>2024-08-14T15:06:42Z</time>
      </trkpt>
      <trkpt lat="45.0347" lon="6.06606">
        <ele>742.2</ele>
        <time>2024-08-14T15:06:43Z</time>
      </trkpt>
      <trkpt lat="45.0347" lon="6.06606">
        <ele>742.2</ele>
        <time>2024-08-14T15:06:44Z</time>
      </trkpt>
      <trkpt lat="45.0347" lon="6.06606">
        <ele>742.2</ele>
        <time>2024-08-14T15:06:45Z</time>
      </trkpt>
      <trkpt lat="45.03473" lon="6.06603">
        <ele>742.2</ele>
        <time>2024-08-14T15:06:46Z</time>
      </trkpt>
      <trkpt lat="45.03475" lon="6.06602">
        <ele>742.4</ele>
        <time>2024-08-14T15:06:47Z</time>
      </trkpt>
      <trkpt lat="45.03475" lon="6.06602">
        <ele>742.4</ele>
        <time>2024-08-14T15:06:48Z</time>
      </trkpt>
      <trkpt lat="45.03477" lon="6.066">
        <ele>742.4</ele>
        <time>2024-08-14T15:06:49Z</time>
      </trkpt>
      <trkpt lat="45.03477" lon="6.066">
        <ele>742.2</ele>
        <time>2024-08-14T15:06:50Z</time>
      </trkpt>
      <trkpt lat="45.03479" lon="6.06598">
        <ele>742.2</ele>
        <time>2024-08-14T15:06:51Z</time>
      </trkpt>
      <trkpt lat="45.03479" lon="6.06598">
        <ele>742.2</ele>
        <time>2024-08-14T15:06:52Z</time>
      </trkpt>
      <trkpt lat="45.03482" lon="6.06596">
        <ele>742.2</ele>
        <time>2024-08-14T15:06:53Z</time>
      </trkpt>
      <trkpt lat="45.03483" lon="6.06594">
        <ele>742.2</ele>
        <time>2024-08-14T15:06:54Z</time>
      </trkpt>
      <trkpt lat="45.03483" lon="6.06594">
        <ele>742.2</ele>
        <time>2024-08-14T15:06:55Z</time>
      </trkpt>
      <trkpt lat="45.03486" lon="6.06591">
        <ele>742.2</ele>
        <time>2024-08-14T15:06:56Z</time>
      </trkpt>
      <trkpt lat="45.03487" lon="6.0659">
        <ele>742</ele>
        <time>2024-08-14T15:06:57Z</time>
      </trkpt>
      <trkpt lat="45.03487" lon="6.0659">
        <ele>742</ele>
        <time>2024-08-14T15:06:58Z</time>
      </trkpt>
      <trkpt lat="45.03487" lon="6.0659">
        <ele>742</ele>
        <time>2024-08-14T15:06:59Z</time>
      </trkpt>
      <trkpt lat="45.03492" lon="6.06588">
        <ele>741.8</ele>
        <time>2024-08-14T15:07:00Z</time>
      </trkpt>
      <trkpt lat="45.03493" lon="6.06587">
        <ele>741.6</ele>
        <time>2024-08-14T15:07:01Z</time>
      </trkpt>
      <trkpt lat="45.03493" lon="6.06587">
        <ele>741.4</ele>
        <time>2024-08-14T15:07:02Z</time>
      </trkpt>
      <trkpt lat="45.03495" lon="6.06585">
        <ele>741.4</ele>
        <time>2024-08-14T15:07:03Z</time>
      </trkpt>
      <trkpt lat="45.03495" lon="6.06585">
        <ele>741.4</ele>
        <time>2024-08-14T15:07:04Z</time>
      </trkpt>
      <trkpt lat="45.03498" lon="6.06583">
        <ele>741.4</ele>
        <time>2024-08-14T15:07:05Z</time>
      </trkpt>
      <trkpt lat="45.03498" lon="6.06583">
        <ele>741.2</ele>
        <time>2024-08-14T15:07:06Z</time>
      </trkpt>
      <trkpt lat="45.03501" lon="6.0658">
        <ele>741.4</ele>
        <time>2024-08-14T15:07:07Z</time>
      </trkpt>
      <trkpt lat="45.03501" lon="6.0658">
        <ele>741.4</ele>
        <time>2024-08-14T15:07:08Z</time>
      </trkpt>
      <trkpt lat="45.03501" lon="6.0658">
        <ele>741.2</ele>
        <time>2024-08-14T15:07:09Z</time>
      </trkpt>
      <trkpt lat="45.03504" lon="6.06577">
        <ele>741.2</ele>
        <time>2024-08-14T15:07:10Z</time>
      </trkpt>
      <trkpt lat="45.03505" lon="6.06576">
        <ele>741.2</ele>
        <time>2024-08-14T15:07:11Z</time>
      </trkpt>
      <trkpt lat="45.03505" lon="6.06576">
        <ele>741.2</ele>
        <time>2024-08-14T15:07:12Z</time>
      </trkpt>
      <trkpt lat="45.03508" lon="6.06574">
        <ele>741</ele>
        <time>2024-08-14T15:07:13Z</time>
      </trkpt>
      <trkpt lat="45.03509" lon="6.06573">
        <ele>740.8</ele>
        <time>2024-08-14T15:07:14Z</time>
      </trkpt>
      <trkpt lat="45.03509" lon="6.06573">
        <ele>740.8</ele>
        <time>2024-08-14T15:07:15Z</time>
      </trkpt>
      <trkpt lat="45.03512" lon="6.06571">
        <ele>740.8</ele>
        <time>2024-08-14T15:07:16Z</time>
      </trkpt>
      <trkpt lat="45.03512" lon="6.06571">
        <ele>740.8</ele>
        <time>2024-08-14T15:07:17Z</time>
      </trkpt>
      <trkpt lat="45.03515" lon="6.06568">
        <ele>740.8</ele>
        <time>2024-08-14T15:07:18Z</time>
      </trkpt>
      <trkpt lat="45.03515" lon="6.06568">
        <ele>740.8</ele>
        <time>2024-08-14T15:07:19Z</time>
      </trkpt>
      <trkpt lat="45.03517" lon="6.06566">
        <ele>740.8</ele>
        <time>2024-08-14T15:07:20Z</time>
      </trkpt>
      <trkpt lat="45.03517" lon="6.06566">
        <ele>740.8</ele>
        <time>2024-08-14T15:07:21Z</time>
      </trkpt>
      <trkpt lat="45.0352" lon="6.06564">
        <ele>740.8</ele>
        <time>2024-08-14T15:07:22Z</time>
      </trkpt>
      <trkpt lat="45.0352" lon="6.06564">
        <ele>740.8</ele>
        <time>2024-08-14T15:07:23Z</time>
      </trkpt>
      <trkpt lat="45.03523" lon="6.06562">
        <ele>740.8</ele>
        <time>2024-08-14T15:07:24Z</time>
      </trkpt>
      <trkpt lat="45.03524" lon="6.06561">
        <ele>740.8</ele>
        <time>2024-08-14T15:07:25Z</time>
      </trkpt>
      <trkpt lat="45.03524" lon="6.06561">
        <ele>740.8</ele>
        <time>2024-08-14T15:07:26Z</time>
      </trkpt>
      <trkpt lat="45.03526" lon="6.06558">
        <ele>740.6</ele>
        <time>2024-08-14T15:07:27Z</time>
      </trkpt>
      <trkpt lat="45.03526" lon="6.06558">
        <ele>740.6</ele>
        <time>2024-08-14T15:07:28Z</time>
      </trkpt>
      <trkpt lat="45.03529" lon="6.06556">
        <ele>740.6</ele>
        <time>2024-08-14T15:07:29Z</time>
      </trkpt>
      <trkpt lat="45.03529" lon="6.06556">
        <ele>740.6</ele>
        <time>2024-08-14T15:07:30Z</time>
      </trkpt>
      <trkpt lat="45.03531" lon="6.06553">
        <ele>740.6</ele>
        <time>2024-08-14T15:07:31Z</time>
      </trkpt>
      <trkpt lat="45.03533" lon="6.06552">
        <ele>740.4</ele>
        <time>2024-08-14T15:07:32Z</time>
      </trkpt>
      <trkpt lat="45.03533" lon="6.06552">
        <ele>740.4</ele>
        <time>2024-08-14T15:07:33Z</time>
      </trkpt>
      <trkpt lat="45.03535" lon="6.06549">
        <ele>740.4</ele>
        <time>2024-08-14T15:07:34Z</time>
      </trkpt>
      <trkpt lat="45.03536" lon="6.06548">
        <ele>740.4</ele>
        <time>2024-08-14T15:07:35Z</time>
      </trkpt>
      <trkpt lat="45.03536" lon="6.06548">
        <ele>740.4</ele>
        <time>2024-08-14T15:07:36Z</time>
      </trkpt>
      <trkpt lat="45.03539" lon="6.06545">
        <ele>740.4</ele>
        <time>2024-08-14T15:07:37Z</time>
      </trkpt>
      <trkpt lat="45.03539" lon="6.06545">
        <ele>740.4</ele>
        <time>2024-08-14T15:07:38Z</time>
      </trkpt>
      <trkpt lat="45.03541" lon="6.06542">
        <ele>740.2</ele>
        <time>2024-08-14T15:07:39Z</time>
      </trkpt>
      <trkpt lat="45.03541" lon="6.06542">
        <ele>740.2</ele>
        <time>2024-08-14T15:07:40Z</time>
      </trkpt>
      <trkpt lat="45.03544" lon="6.0654">
        <ele>740.2</ele>
        <time>2024-08-14T15:07:41Z</time>
      </trkpt>
      <trkpt lat="45.03544" lon="6.0654">
        <ele>740.4</ele>
        <time>2024-08-14T15:07:42Z</time>
      </trkpt>
      <trkpt lat="45.03547" lon="6.06538">
        <ele>740.4</ele>
        <time>2024-08-14T15:07:43Z</time>
      </trkpt>
      <trkpt lat="45.03547" lon="6.06538">
        <ele>740.4</ele>
        <time>2024-08-14T15:07:44Z</time>
      </trkpt>
      <trkpt lat="45.03549" lon="6.06536">
        <ele>740.4</ele>
        <time>2024-08-14T15:07:45Z</time>
      </trkpt>
      <trkpt lat="45.03549" lon="6.06536">
        <ele>740.2</ele>
        <time>2024-08-14T15:07:46Z</time>
      </trkpt>
      <trkpt lat="45.03552" lon="6.06533">
        <ele>740.2</ele>
        <time>2024-08-14T15:07:47Z</time>
      </trkpt>
      <trkpt lat="45.03552" lon="6.06533">
        <ele>740.2</ele>
        <time>2024-08-14T15:07:48Z</time>
      </trkpt>
      <trkpt lat="45.03555" lon="6.06531">
        <ele>740.2</ele>
        <time>2024-08-14T15:07:49Z</time>
      </trkpt>
      <trkpt lat="45.03555" lon="6.06531">
        <ele>740.2</ele>
        <time>2024-08-14T15:07:50Z</time>
      </trkpt>
      <trkpt lat="45.03557" lon="6.06529">
        <ele>740.2</ele>
        <time>2024-08-14T15:07:51Z</time>
      </trkpt>
      <trkpt lat="45.03557" lon="6.06529">
        <ele>740</ele>
        <time>2024-08-14T15:07:52Z</time>
      </trkpt>
      <trkpt lat="45.0356" lon="6.06527">
        <ele>740</ele>
        <time>2024-08-14T15:07:53Z</time>
      </trkpt>
      <trkpt lat="45.0356" lon="6.06527">
        <ele>739.8</ele>
        <time>2024-08-14T15:07:54Z</time>
      </trkpt>
      <trkpt lat="45.03563" lon="6.06524">
        <ele>739.8</ele>
        <time>2024-08-14T15:07:55Z</time>
      </trkpt>
      <trkpt lat="45.03563" lon="6.06524">
        <ele>739.6</ele>
        <time>2024-08-14T15:07:56Z</time>
      </trkpt>
      <trkpt lat="45.03565" lon="6.06522">
        <ele>739.4</ele>
        <time>2024-08-14T15:07:57Z</time>
      </trkpt>
      <trkpt lat="45.03565" lon="6.06522">
        <ele>739.4</ele>
        <time>2024-08-14T15:07:58Z</time>
      </trkpt>
      <trkpt lat="45.03567" lon="6.06519">
        <ele>739.4</ele>
        <time>2024-08-14T15:07:59Z</time>
      </trkpt>
      <trkpt lat="45.03567" lon="6.06519">
        <ele>739.8</ele>
        <time>2024-08-14T15:08:00Z</time>
      </trkpt>
      <trkpt lat="45.0357" lon="6.06517">
        <ele>739.8</ele>
        <time>2024-08-14T15:08:01Z</time>
      </trkpt>
      <trkpt lat="45.0357" lon="6.06517">
        <ele>739.4</ele>
        <time>2024-08-14T15:08:02Z</time>
      </trkpt>
      <trkpt lat="45.03572" lon="6.06514">
        <ele>739.4</ele>
        <time>2024-08-14T15:08:03Z</time>
      </trkpt>
      <trkpt lat="45.03572" lon="6.06514">
        <ele>739.6</ele>
        <time>2024-08-14T15:08:04Z</time>
      </trkpt>
      <trkpt lat="45.03575" lon="6.06512">
        <ele>739.4</ele>
        <time>2024-08-14T15:08:05Z</time>
      </trkpt>
      <trkpt lat="45.03575" lon="6.06512">
        <ele>739.6</ele>
        <time>2024-08-14T15:08:06Z</time>
      </trkpt>
      <trkpt lat="45.03577" lon="6.0651">
        <ele>739.6</ele>
        <time>2024-08-14T15:08:07Z</time>
      </trkpt>
      <trkpt lat="45.03577" lon="6.0651">
        <ele>739.6</ele>
        <time>2024-08-14T15:08:08Z</time>
      </trkpt>
      <trkpt lat="45.0358" lon="6.06508">
        <ele>739.4</ele>
        <time>2024-08-14T15:08:09Z</time>
      </trkpt>
      <trkpt lat="45.0358" lon="6.06508">
        <ele>739.4</ele>
        <time>2024-08-14T15:08:10Z</time>
      </trkpt>
      <trkpt lat="45.03582" lon="6.06505">
        <ele>739.4</ele>
        <time>2024-08-14T15:08:11Z</time>
      </trkpt>
      <trkpt lat="45.03582" lon="6.06505">
        <ele>739.4</ele>
        <time>2024-08-14T15:08:12Z</time>
      </trkpt>
      <trkpt lat="45.03585" lon="6.06503">
        <ele>739.4</ele>
        <time>2024-08-14T15:08:13Z</time>
      </trkpt>
      <trkpt lat="45.03585" lon="6.06503">
        <ele>739.2</ele>
        <time>2024-08-14T15:08:14Z</time>
      </trkpt>
      <trkpt lat="45.03587" lon="6.06502">
        <ele>739.2</ele>
        <time>2024-08-14T15:08:15Z</time>
      </trkpt>
      <trkpt lat="45.03587" lon="6.06502">
        <ele>739</ele>
        <time>2024-08-14T15:08:16Z</time>
      </trkpt>
      <trkpt lat="45.0359" lon="6.065">
        <ele>739</ele>
        <time>2024-08-14T15:08:17Z</time>
      </trkpt>
      <trkpt lat="45.0359" lon="6.065">
        <ele>739</ele>
        <time>2024-08-14T15:08:18Z</time>
      </trkpt>
      <trkpt lat="45.03592" lon="6.06498">
        <ele>739</ele>
        <time>2024-08-14T15:08:19Z</time>
      </trkpt>
      <trkpt lat="45.03592" lon="6.06498">
        <ele>738.2</ele>
        <time>2024-08-14T15:08:20Z</time>
      </trkpt>
      <trkpt lat="45.03595" lon="6.06496">
        <ele>738.2</ele>
        <time>2024-08-14T15:08:21Z</time>
      </trkpt>
      <trkpt lat="45.03595" lon="6.06496">
        <ele>738.4</ele>
        <time>2024-08-14T15:08:22Z</time>
      </trkpt>
      <trkpt lat="45.03595" lon="6.06496">
        <ele>738.4</ele>
        <time>2024-08-14T15:08:23Z</time>
      </trkpt>
      <trkpt lat="45.03598" lon="6.06493">
        <ele>738.4</ele>
        <time>2024-08-14T15:08:24Z</time>
      </trkpt>
      <trkpt lat="45.036" lon="6.06491">
        <ele>738.4</ele>
        <time>2024-08-14T15:08:25Z</time>
      </trkpt>
      <trkpt lat="45.036" lon="6.06491">
        <ele>738.6</ele>
        <time>2024-08-14T15:08:26Z</time>
      </trkpt>
      <trkpt lat="45.03602" lon="6.06488">
        <ele>738.6</ele>
        <time>2024-08-14T15:08:27Z</time>
      </trkpt>
      <trkpt lat="45.03602" lon="6.06488">
        <ele>738.6</ele>
        <time>2024-08-14T15:08:28Z</time>
      </trkpt>
      <trkpt lat="45.03605" lon="6.06486">
        <ele>738.6</ele>
        <time>2024-08-14T15:08:29Z</time>
      </trkpt>
      <trkpt lat="45.03605" lon="6.06486">
        <ele>738.6</ele>
        <time>2024-08-14T15:08:30Z</time>
      </trkpt>
      <trkpt lat="45.03608" lon="6.06483">
        <ele>738.6</ele>
        <time>2024-08-14T15:08:31Z</time>
      </trkpt>
      <trkpt lat="45.0361" lon="6.06482">
        <ele>738.6</ele>
        <time>2024-08-14T15:08:32Z</time>
      </trkpt>
      <trkpt lat="45.0361" lon="6.06482">
        <ele>738.6</ele>
        <time>2024-08-14T15:08:33Z</time>
      </trkpt>
      <trkpt lat="45.03613" lon="6.06479">
        <ele>738.6</ele>
        <time>2024-08-14T15:08:34Z</time>
      </trkpt>
      <trkpt lat="45.03614" lon="6.06478">
        <ele>738.6</ele>
        <time>2024-08-14T15:08:35Z</time>
      </trkpt>
      <trkpt lat="45.03614" lon="6.06478">
        <ele>738.6</ele>
        <time>2024-08-14T15:08:36Z</time>
      </trkpt>
      <trkpt lat="45.03614" lon="6.06478">
        <ele>738.6</ele>
        <time>2024-08-14T15:08:37Z</time>
      </trkpt>
      <trkpt lat="45.03618" lon="6.06474">
        <ele>738.6</ele>
        <time>2024-08-14T15:08:38Z</time>
      </trkpt>
      <trkpt lat="45.0362" lon="6.06473">
        <ele>738.6</ele>
        <time>2024-08-14T15:08:39Z</time>
      </trkpt>
      <trkpt lat="45.0362" lon="6.06473">
        <ele>738.6</ele>
        <time>2024-08-14T15:08:40Z</time>
      </trkpt>
      <trkpt lat="45.03621" lon="6.0647">
        <ele>738.4</ele>
        <time>2024-08-14T15:08:41Z</time>
      </trkpt>
      <trkpt lat="45.03621" lon="6.0647">
        <ele>738.4</ele>
        <time>2024-08-14T15:08:42Z</time>
      </trkpt>
      <trkpt lat="45.03624" lon="6.06469">
        <ele>738.6</ele>
        <time>2024-08-14T15:08:43Z</time>
      </trkpt>
      <trkpt lat="45.03624" lon="6.06469">
        <ele>738.6</ele>
        <time>2024-08-14T15:08:44Z</time>
      </trkpt>
      <trkpt lat="45.03627" lon="6.06466">
        <ele>738.6</ele>
        <time>2024-08-14T15:08:45Z</time>
      </trkpt>
      <trkpt lat="45.03627" lon="6.06466">
        <ele>738.6</ele>
        <time>2024-08-14T15:08:46Z</time>
      </trkpt>
      <trkpt lat="45.03627" lon="6.06466">
        <ele>738.6</ele>
        <time>2024-08-14T15:08:47Z</time>
      </trkpt>
      <trkpt lat="45.03631" lon="6.06464">
        <ele>738.6</ele>
        <time>2024-08-14T15:08:48Z</time>
      </trkpt>
      <trkpt lat="45.03632" lon="6.06463">
        <ele>738.6</ele>
        <time>2024-08-14T15:08:49Z</time>
      </trkpt>
      <trkpt lat="45.03632" lon="6.06463">
        <ele>738.6</ele>
        <time>2024-08-14T15:08:50Z</time>
      </trkpt>
      <trkpt lat="45.03632" lon="6.06463">
        <ele>738.2</ele>
        <time>2024-08-14T15:08:51Z</time>
      </trkpt>
      <trkpt lat="45.03636" lon="6.06459">
        <ele>738.2</ele>
        <time>2024-08-14T15:08:52Z</time>
      </trkpt>
      <trkpt lat="45.03637" lon="6.06458">
        <ele>738.4</ele>
        <time>2024-08-14T15:08:53Z</time>
      </trkpt>
      <trkpt lat="45.03637" lon="6.06458">
        <ele>738.4</ele>
        <time>2024-08-14T15:08:54Z</time>
      </trkpt>
      <trkpt lat="45.03639" lon="6.06457">
        <ele>738.4</ele>
        <time>2024-08-14T15:08:55Z</time>
      </trkpt>
      <trkpt lat="45.03641" lon="6.06456">
        <ele>738.2</ele>
        <time>2024-08-14T15:08:56Z</time>
      </trkpt>
      <trkpt lat="45.03641" lon="6.06456">
        <ele>738.4</ele>
        <time>2024-08-14T15:08:57Z</time>
      </trkpt>
      <trkpt lat="45.03644" lon="6.06454">
        <ele>738.4</ele>
        <time>2024-08-14T15:08:58Z</time>
      </trkpt>
      <trkpt lat="45.03644" lon="6.06454">
        <ele>738.4</ele>
        <time>2024-08-14T15:08:59Z</time>
      </trkpt>
      <trkpt lat="45.03646" lon="6.06452">
        <ele>738.4</ele>
        <time>2024-08-14T15:09:00Z</time>
      </trkpt>
      <trkpt lat="45.03646" lon="6.06452">
        <ele>738.2</ele>
        <time>2024-08-14T15:09:01Z</time>
      </trkpt>
      <trkpt lat="45.03648" lon="6.0645">
        <ele>738.2</ele>
        <time>2024-08-14T15:09:02Z</time>
      </trkpt>
      <trkpt lat="45.03648" lon="6.0645">
        <ele>738.2</ele>
        <time>2024-08-14T15:09:03Z</time>
      </trkpt>
      <trkpt lat="45.03651" lon="6.06448">
        <ele>738.2</ele>
        <time>2024-08-14T15:09:04Z</time>
      </trkpt>
      <trkpt lat="45.03651" lon="6.06448">
        <ele>738.2</ele>
        <time>2024-08-14T15:09:05Z</time>
      </trkpt>
      <trkpt lat="45.03653" lon="6.06446">
        <ele>738.2</ele>
        <time>2024-08-14T15:09:06Z</time>
      </trkpt>
      <trkpt lat="45.03653" lon="6.06446">
        <ele>738</ele>
        <time>2024-08-14T15:09:07Z</time>
      </trkpt>
      <trkpt lat="45.03655" lon="6.06445">
        <ele>738</ele>
        <time>2024-08-14T15:09:08Z</time>
      </trkpt>
      <trkpt lat="45.03655" lon="6.06445">
        <ele>738</ele>
        <time>2024-08-14T15:09:09Z</time>
      </trkpt>
      <trkpt lat="45.03658" lon="6.06443">
        <ele>738</ele>
        <time>2024-08-14T15:09:10Z</time>
      </trkpt>
      <trkpt lat="45.03658" lon="6.06443">
        <ele>738</ele>
        <time>2024-08-14T15:09:11Z</time>
      </trkpt>
      <trkpt lat="45.0366" lon="6.0644">
        <ele>738</ele>
        <time>2024-08-14T15:09:12Z</time>
      </trkpt>
      <trkpt lat="45.0366" lon="6.0644">
        <ele>738</ele>
        <time>2024-08-14T15:09:13Z</time>
      </trkpt>
      <trkpt lat="45.03663" lon="6.06438">
        <ele>737.8</ele>
        <time>2024-08-14T15:09:14Z</time>
      </trkpt>
      <trkpt lat="45.03664" lon="6.06437">
        <ele>737.8</ele>
        <time>2024-08-14T15:09:15Z</time>
      </trkpt>
      <trkpt lat="45.03664" lon="6.06437">
        <ele>737.8</ele>
        <time>2024-08-14T15:09:16Z</time>
      </trkpt>
      <trkpt lat="45.03667" lon="6.06435">
        <ele>737.6</ele>
        <time>2024-08-14T15:09:17Z</time>
      </trkpt>
      <trkpt lat="45.03667" lon="6.06435">
        <ele>737.6</ele>
        <time>2024-08-14T15:09:18Z</time>
      </trkpt>
      <trkpt lat="45.0367" lon="6.06432">
        <ele>737.6</ele>
        <time>2024-08-14T15:09:19Z</time>
      </trkpt>
      <trkpt lat="45.0367" lon="6.06432">
        <ele>737.6</ele>
        <time>2024-08-14T15:09:20Z</time>
      </trkpt>
      <trkpt lat="45.03672" lon="6.0643">
        <ele>737.6</ele>
        <time>2024-08-14T15:09:21Z</time>
      </trkpt>
      <trkpt lat="45.03672" lon="6.0643">
        <ele>737.4</ele>
        <time>2024-08-14T15:09:22Z</time>
      </trkpt>
      <trkpt lat="45.03672" lon="6.0643">
        <ele>737.4</ele>
        <time>2024-08-14T15:09:23Z</time>
      </trkpt>
      <trkpt lat="45.03676" lon="6.06427">
        <ele>737.2</ele>
        <time>2024-08-14T15:09:24Z</time>
      </trkpt>
      <trkpt lat="45.03677" lon="6.06426">
        <ele>737.2</ele>
        <time>2024-08-14T15:09:25Z</time>
      </trkpt>
      <trkpt lat="45.03677" lon="6.06426">
        <ele>737.2</ele>
        <time>2024-08-14T15:09:26Z</time>
      </trkpt>
      <trkpt lat="45.03677" lon="6.06426">
        <ele>737.2</ele>
        <time>2024-08-14T15:09:27Z</time>
      </trkpt>
      <trkpt lat="45.03682" lon="6.06423">
        <ele>737.6</ele>
        <time>2024-08-14T15:09:28Z</time>
      </trkpt>
      <trkpt lat="45.03683" lon="6.06422">
        <ele>738</ele>
        <time>2024-08-14T15:09:29Z</time>
      </trkpt>
      <trkpt lat="45.03683" lon="6.06422">
        <ele>738</ele>
        <time>2024-08-14T15:09:30Z</time>
      </trkpt>
      <trkpt lat="45.03686" lon="6.06419">
        <ele>738.2</ele>
        <time>2024-08-14T15:09:31Z</time>
      </trkpt>
      <trkpt lat="45.03687" lon="6.06418">
        <ele>738.2</ele>
        <time>2024-08-14T15:09:32Z</time>
      </trkpt>
      <trkpt lat="45.03689" lon="6.06416">
        <ele>738.2</ele>
        <time>2024-08-14T15:09:33Z</time>
      </trkpt>
      <trkpt lat="45.03689" lon="6.06416">
        <ele>738</ele>
        <time>2024-08-14T15:09:34Z</time>
      </trkpt>
      <trkpt lat="45.03692" lon="6.06414">
        <ele>737.8</ele>
        <time>2024-08-14T15:09:35Z</time>
      </trkpt>
      <trkpt lat="45.03692" lon="6.06414">
        <ele>737.6</ele>
        <time>2024-08-14T15:09:36Z</time>
      </trkpt>
      <trkpt lat="45.03694" lon="6.06411">
        <ele>737.6</ele>
        <time>2024-08-14T15:09:37Z</time>
      </trkpt>
      <trkpt lat="45.03694" lon="6.06411">
        <ele>737.6</ele>
        <time>2024-08-14T15:09:38Z</time>
      </trkpt>
      <trkpt lat="45.03696" lon="6.06408">
        <ele>737.8</ele>
        <time>2024-08-14T15:09:39Z</time>
      </trkpt>
      <trkpt lat="45.03696" lon="6.06408">
        <ele>737.8</ele>
        <time>2024-08-14T15:09:40Z</time>
      </trkpt>
      <trkpt lat="45.03698" lon="6.06406">
        <ele>737.8</ele>
        <time>2024-08-14T15:09:41Z</time>
      </trkpt>
      <trkpt lat="45.037" lon="6.06404">
        <ele>738</ele>
        <time>2024-08-14T15:09:42Z</time>
      </trkpt>
      <trkpt lat="45.037" lon="6.06404">
        <ele>738</ele>
        <time>2024-08-14T15:09:43Z</time>
      </trkpt>
      <trkpt lat="45.03702" lon="6.06402">
        <ele>738.2</ele>
        <time>2024-08-14T15:09:44Z</time>
      </trkpt>
      <trkpt lat="45.03704" lon="6.06401">
        <ele>738</ele>
        <time>2024-08-14T15:09:45Z</time>
      </trkpt>
      <trkpt lat="45.03704" lon="6.06401">
        <ele>737.6</ele>
        <time>2024-08-14T15:09:46Z</time>
      </trkpt>
      <trkpt lat="45.03706" lon="6.06398">
        <ele>737.6</ele>
        <time>2024-08-14T15:09:47Z</time>
      </trkpt>
      <trkpt lat="45.03706" lon="6.06398">
        <ele>737.6</ele>
        <time>2024-08-14T15:09:48Z</time>
      </trkpt>
      <trkpt lat="45.03706" lon="6.06398">
        <ele>737.6</ele>
        <time>2024-08-14T15:09:49Z</time>
      </trkpt>
      <trkpt lat="45.03709" lon="6.06395">
        <ele>737.6</ele>
        <time>2024-08-14T15:09:50Z</time>
      </trkpt>
      <trkpt lat="45.0371" lon="6.06394">
        <ele>737.4</ele>
        <time>2024-08-14T15:09:51Z</time>
      </trkpt>
      <trkpt lat="45.0371" lon="6.06394">
        <ele>737.2</ele>
        <time>2024-08-14T15:09:52Z</time>
      </trkpt>
      <trkpt lat="45.0371" lon="6.06394">
        <ele>737.2</ele>
        <time>2024-08-14T15:09:53Z</time>
      </trkpt>
      <trkpt lat="45.03713" lon="6.06391">
        <ele>737.2</ele>
        <time>2024-08-14T15:09:54Z</time>
      </trkpt>
      <trkpt lat="45.03714" lon="6.0639">
        <ele>737.4</ele>
        <time>2024-08-14T15:09:55Z</time>
      </trkpt>
      <trkpt lat="45.03716" lon="6.06388">
        <ele>737.4</ele>
        <time>2024-08-14T15:09:56Z</time>
      </trkpt>
      <trkpt lat="45.03716" lon="6.06388">
        <ele>737.4</ele>
        <time>2024-08-14T15:09:57Z</time>
      </trkpt>
      <trkpt lat="45.03718" lon="6.06386">
        <ele>737.2</ele>
        <time>2024-08-14T15:09:58Z</time>
      </trkpt>
      <trkpt lat="45.03718" lon="6.06386">
        <ele>737.2</ele>
        <time>2024-08-14T15:09:59Z</time>
      </trkpt>
      <trkpt lat="45.03721" lon="6.06384">
        <ele>737.4</ele>
        <time>2024-08-14T15:10:00Z</time>
      </trkpt>
      <trkpt lat="45.03723" lon="6.06383">
        <ele>737.4</ele>
        <time>2024-08-14T15:10:01Z</time>
      </trkpt>
      <trkpt lat="45.03723" lon="6.06383">
        <ele>737.2</ele>
        <time>2024-08-14T15:10:02Z</time>
      </trkpt>
      <trkpt lat="45.03726" lon="6.06381">
        <ele>737.2</ele>
        <time>2024-08-14T15:10:03Z</time>
      </trkpt>
      <trkpt lat="45.03726" lon="6.06381">
        <ele>737.2</ele>
        <time>2024-08-14T15:10:04Z</time>
      </trkpt>
      <trkpt lat="45.03729" lon="6.06379">
        <ele>737.4</ele>
        <time>2024-08-14T15:10:05Z</time>
      </trkpt>
      <trkpt lat="45.03729" lon="6.06379">
        <ele>737.6</ele>
        <time>2024-08-14T15:10:06Z</time>
      </trkpt>
      <trkpt lat="45.03731" lon="6.06377">
        <ele>737.6</ele>
        <time>2024-08-14T15:10:07Z</time>
      </trkpt>
      <trkpt lat="45.03731" lon="6.06377">
        <ele>737.6</ele>
        <time>2024-08-14T15:10:08Z</time>
      </trkpt>
      <trkpt lat="45.03733" lon="6.06375">
        <ele>737.6</ele>
        <time>2024-08-14T15:10:09Z</time>
      </trkpt>
      <trkpt lat="45.03733" lon="6.06375">
        <ele>737.6</ele>
        <time>2024-08-14T15:10:10Z</time>
      </trkpt>
      <trkpt lat="45.03735" lon="6.06374">
        <ele>737.4</ele>
        <time>2024-08-14T15:10:11Z</time>
      </trkpt>
      <trkpt lat="45.03735" lon="6.06374">
        <ele>737.4</ele>
        <time>2024-08-14T15:10:12Z</time>
      </trkpt>
      <trkpt lat="45.03738" lon="6.06372">
        <ele>737.2</ele>
        <time>2024-08-14T15:10:13Z</time>
      </trkpt>
      <trkpt lat="45.03738" lon="6.06372">
        <ele>737</ele>
        <time>2024-08-14T15:10:14Z</time>
      </trkpt>
      <trkpt lat="45.03741" lon="6.06369">
        <ele>736.4</ele>
        <time>2024-08-14T15:10:15Z</time>
      </trkpt>
      <trkpt lat="45.03741" lon="6.06369">
        <ele>736.4</ele>
        <time>2024-08-14T15:10:16Z</time>
      </trkpt>
      <trkpt lat="45.03741" lon="6.06369">
        <ele>736.2</ele>
        <time>2024-08-14T15:10:17Z</time>
      </trkpt>
      <trkpt lat="45.03745" lon="6.06365">
        <ele>736.2</ele>
        <time>2024-08-14T15:10:18Z</time>
      </trkpt>
      <trkpt lat="45.03746" lon="6.06364">
        <ele>736</ele>
        <time>2024-08-14T15:10:19Z</time>
      </trkpt>
      <trkpt lat="45.03746" lon="6.06364">
        <ele>736</ele>
        <time>2024-08-14T15:10:20Z</time>
      </trkpt>
      <trkpt lat="45.03749" lon="6.06362">
        <ele>736</ele>
        <time>2024-08-14T15:10:21Z</time>
      </trkpt>
      <trkpt lat="45.03749" lon="6.06362">
        <ele>736</ele>
        <time>2024-08-14T15:10:22Z</time>
      </trkpt>
      <trkpt lat="45.03751" lon="6.0636">
        <ele>736</ele>
        <time>2024-08-14T15:10:23Z</time>
      </trkpt>
      <trkpt lat="45.03751" lon="6.0636">
        <ele>735.8</ele>
        <time>2024-08-14T15:10:24Z</time>
      </trkpt>
      <trkpt lat="45.03754" lon="6.06357">
        <ele>735.8</ele>
        <time>2024-08-14T15:10:25Z</time>
      </trkpt>
      <trkpt lat="45.03754" lon="6.06357">
        <ele>736</ele>
        <time>2024-08-14T15:10:26Z</time>
      </trkpt>
      <trkpt lat="45.03756" lon="6.06354">
        <ele>736</ele>
        <time>2024-08-14T15:10:27Z</time>
      </trkpt>
      <trkpt lat="45.03756" lon="6.06354">
        <ele>736</ele>
        <time>2024-08-14T15:10:28Z</time>
      </trkpt>
      <trkpt lat="45.03758" lon="6.06352">
        <ele>736</ele>
        <time>2024-08-14T15:10:29Z</time>
      </trkpt>
      <trkpt lat="45.03758" lon="6.06352">
        <ele>736</ele>
        <time>2024-08-14T15:10:30Z</time>
      </trkpt>
      <trkpt lat="45.03761" lon="6.06351">
        <ele>736</ele>
        <time>2024-08-14T15:10:31Z</time>
      </trkpt>
      <trkpt lat="45.03761" lon="6.06351">
        <ele>736.2</ele>
        <time>2024-08-14T15:10:32Z</time>
      </trkpt>
      <trkpt lat="45.03761" lon="6.06351">
        <ele>736.2</ele>
        <time>2024-08-14T15:10:33Z</time>
      </trkpt>
      <trkpt lat="45.03765" lon="6.06348">
        <ele>736</ele>
        <time>2024-08-14T15:10:34Z</time>
      </trkpt>
      <trkpt lat="45.03765" lon="6.06347">
        <ele>736.2</ele>
        <time>2024-08-14T15:10:35Z</time>
      </trkpt>
      <trkpt lat="45.03765" lon="6.06347">
        <ele>736.2</ele>
        <time>2024-08-14T15:10:36Z</time>
      </trkpt>
      <trkpt lat="45.03765" lon="6.06347">
        <ele>736.2</ele>
        <time>2024-08-14T15:10:37Z</time>
      </trkpt>
      <trkpt lat="45.03769" lon="6.06343">
        <ele>736.2</ele>
        <time>2024-08-14T15:10:38Z</time>
      </trkpt>
      <trkpt lat="45.03771" lon="6.06342">
        <ele>736.2</ele>
        <time>2024-08-14T15:10:39Z</time>
      </trkpt>
      <trkpt lat="45.03771" lon="6.06342">
        <ele>736.2</ele>
        <time>2024-08-14T15:10:40Z</time>
      </trkpt>
      <trkpt lat="45.03773" lon="6.06339">
        <ele>736.2</ele>
        <time>2024-08-14T15:10:41Z</time>
      </trkpt>
      <trkpt lat="45.03773" lon="6.06339">
        <ele>736.2</ele>
        <time>2024-08-14T15:10:42Z</time>
      </trkpt>
      <trkpt lat="45.03776" lon="6.06337">
        <ele>736.2</ele>
        <time>2024-08-14T15:10:43Z</time>
      </trkpt>
      <trkpt lat="45.03776" lon="6.06337">
        <ele>736.2</ele>
        <time>2024-08-14T15:10:44Z</time>
      </trkpt>
      <trkpt lat="45.03779" lon="6.06335">
        <ele>736</ele>
        <time>2024-08-14T15:10:45Z</time>
      </trkpt>
      <trkpt lat="45.03779" lon="6.06335">
        <ele>736</ele>
        <time>2024-08-14T15:10:46Z</time>
      </trkpt>
      <trkpt lat="45.03781" lon="6.06333">
        <ele>736.2</ele>
        <time>2024-08-14T15:10:47Z</time>
      </trkpt>
      <trkpt lat="45.03781" lon="6.06333">
        <ele>736.2</ele>
        <time>2024-08-14T15:10:48Z</time>
      </trkpt>
      <trkpt lat="45.03783" lon="6.06331">
        <ele>736.2</ele>
        <time>2024-08-14T15:10:49Z</time>
      </trkpt>
      <trkpt lat="45.03783" lon="6.06331">
        <ele>736.2</ele>
        <time>2024-08-14T15:10:50Z</time>
      </trkpt>
      <trkpt lat="45.03783" lon="6.06331">
        <ele>736</ele>
        <time>2024-08-14T15:10:51Z</time>
      </trkpt>
      <trkpt lat="45.03788" lon="6.06327">
        <ele>736</ele>
        <time>2024-08-14T15:10:52Z</time>
      </trkpt>
      <trkpt lat="45.03789" lon="6.06326">
        <ele>736</ele>
        <time>2024-08-14T15:10:53Z</time>
      </trkpt>
      <trkpt lat="45.03789" lon="6.06326">
        <ele>736</ele>
        <time>2024-08-14T15:10:54Z</time>
      </trkpt>
      <trkpt lat="45.03792" lon="6.06324">
        <ele>736</ele>
        <time>2024-08-14T15:10:55Z</time>
      </trkpt>
      <trkpt lat="45.03792" lon="6.06324">
        <ele>735.8</ele>
        <time>2024-08-14T15:10:56Z</time>
      </trkpt>
      <trkpt lat="45.03795" lon="6.06322">
        <ele>735.8</ele>
        <time>2024-08-14T15:10:57Z</time>
      </trkpt>
      <trkpt lat="45.03795" lon="6.06322">
        <ele>735.8</ele>
        <time>2024-08-14T15:10:58Z</time>
      </trkpt>
      <trkpt lat="45.03797" lon="6.0632">
        <ele>736</ele>
        <time>2024-08-14T15:10:59Z</time>
      </trkpt>
      <trkpt lat="45.03797" lon="6.0632">
        <ele>735.8</ele>
        <time>2024-08-14T15:11:00Z</time>
      </trkpt>
      <trkpt lat="45.03799" lon="6.06318">
        <ele>735.8</ele>
        <time>2024-08-14T15:11:01Z</time>
      </trkpt>
      <trkpt lat="45.03799" lon="6.06318">
        <ele>736</ele>
        <time>2024-08-14T15:11:02Z</time>
      </trkpt>
      <trkpt lat="45.03802" lon="6.06315">
        <ele>736</ele>
        <time>2024-08-14T15:11:03Z</time>
      </trkpt>
      <trkpt lat="45.03802" lon="6.06315">
        <ele>735.8</ele>
        <time>2024-08-14T15:11:04Z</time>
      </trkpt>
      <trkpt lat="45.03805" lon="6.06313">
        <ele>735.6</ele>
        <time>2024-08-14T15:11:05Z</time>
      </trkpt>
      <trkpt lat="45.03806" lon="6.06312">
        <ele>735.6</ele>
        <time>2024-08-14T15:11:06Z</time>
      </trkpt>
      <trkpt lat="45.03806" lon="6.06312">
        <ele>735.6</ele>
        <time>2024-08-14T15:11:07Z</time>
      </trkpt>
      <trkpt lat="45.03808" lon="6.06309">
        <ele>735.6</ele>
        <time>2024-08-14T15:11:08Z</time>
      </trkpt>
      <trkpt lat="45.0381" lon="6.06308">
        <ele>735.6</ele>
        <time>2024-08-14T15:11:09Z</time>
      </trkpt>
      <trkpt lat="45.0381" lon="6.06308">
        <ele>735.4</ele>
        <time>2024-08-14T15:11:10Z</time>
      </trkpt>
      <trkpt lat="45.03813" lon="6.06305">
        <ele>735.4</ele>
        <time>2024-08-14T15:11:11Z</time>
      </trkpt>
      <trkpt lat="45.03813" lon="6.06305">
        <ele>735.4</ele>
        <time>2024-08-14T15:11:12Z</time>
      </trkpt>
      <trkpt lat="45.03815" lon="6.06303">
        <ele>735.4</ele>
        <time>2024-08-14T15:11:13Z</time>
      </trkpt>
      <trkpt lat="45.03815" lon="6.06303">
        <ele>735.4</ele>
        <time>2024-08-14T15:11:14Z</time>
      </trkpt>
      <trkpt lat="45.03817" lon="6.06301">
        <ele>735.6</ele>
        <time>2024-08-14T15:11:15Z</time>
      </trkpt>
      <trkpt lat="45.03817" lon="6.06301">
        <ele>735.6</ele>
        <time>2024-08-14T15:11:16Z</time>
      </trkpt>
      <trkpt lat="45.0382" lon="6.06299">
        <ele>735.8</ele>
        <time>2024-08-14T15:11:17Z</time>
      </trkpt>
      <trkpt lat="45.0382" lon="6.06299">
        <ele>735.8</ele>
        <time>2024-08-14T15:11:18Z</time>
      </trkpt>
      <trkpt lat="45.03822" lon="6.06297">
        <ele>735.6</ele>
        <time>2024-08-14T15:11:19Z</time>
      </trkpt>
      <trkpt lat="45.03824" lon="6.06296">
        <ele>735.6</ele>
        <time>2024-08-14T15:11:20Z</time>
      </trkpt>
      <trkpt lat="45.03824" lon="6.06296">
        <ele>735.6</ele>
        <time>2024-08-14T15:11:21Z</time>
      </trkpt>
      <trkpt lat="45.03827" lon="6.06293">
        <ele>735.6</ele>
        <time>2024-08-14T15:11:22Z</time>
      </trkpt>
      <trkpt lat="45.03827" lon="6.06293">
        <ele>735.6</ele>
        <time>2024-08-14T15:11:23Z</time>
      </trkpt>
      <trkpt lat="45.03829" lon="6.06291">
        <ele>735.6</ele>
        <time>2024-08-14T15:11:24Z</time>
      </trkpt>
      <trkpt lat="45.0383" lon="6.06289">
        <ele>735.4</ele>
        <time>2024-08-14T15:11:25Z</time>
      </trkpt>
      <trkpt lat="45.0383" lon="6.06289">
        <ele>735.4</ele>
        <time>2024-08-14T15:11:26Z</time>
      </trkpt>
      <trkpt lat="45.03833" lon="6.06288">
        <ele>735.6</ele>
        <time>2024-08-14T15:11:27Z</time>
      </trkpt>
      <trkpt lat="45.03833" lon="6.06288">
        <ele>735.6</ele>
        <time>2024-08-14T15:11:28Z</time>
      </trkpt>
      <trkpt lat="45.03836" lon="6.06286">
        <ele>735.4</ele>
        <time>2024-08-14T15:11:29Z</time>
      </trkpt>
      <trkpt lat="45.03836" lon="6.06286">
        <ele>735.4</ele>
        <time>2024-08-14T15:11:30Z</time>
      </trkpt>
      <trkpt lat="45.03838" lon="6.06284">
        <ele>735.4</ele>
        <time>2024-08-14T15:11:31Z</time>
      </trkpt>
      <trkpt lat="45.03838" lon="6.06284">
        <ele>735.6</ele>
        <time>2024-08-14T15:11:32Z</time>
      </trkpt>
      <trkpt lat="45.0384" lon="6.06282">
        <ele>735.6</ele>
        <time>2024-08-14T15:11:33Z</time>
      </trkpt>
      <trkpt lat="45.0384" lon="6.06282">
        <ele>735.6</ele>
        <time>2024-08-14T15:11:34Z</time>
      </trkpt>
      <trkpt lat="45.03843" lon="6.06279">
        <ele>735.6</ele>
        <time>2024-08-14T15:11:35Z</time>
      </trkpt>
      <trkpt lat="45.03843" lon="6.06279">
        <ele>735.6</ele>
        <time>2024-08-14T15:11:36Z</time>
      </trkpt>
      <trkpt lat="45.03845" lon="6.06276">
        <ele>735.6</ele>
        <time>2024-08-14T15:11:37Z</time>
      </trkpt>
      <trkpt lat="45.03845" lon="6.06276">
        <ele>735.6</ele>
        <time>2024-08-14T15:11:38Z</time>
      </trkpt>
      <trkpt lat="45.03847" lon="6.06274">
        <ele>735.6</ele>
        <time>2024-08-14T15:11:39Z</time>
      </trkpt>
      <trkpt lat="45.03847" lon="6.06274">
        <ele>735.4</ele>
        <time>2024-08-14T15:11:40Z</time>
      </trkpt>
      <trkpt lat="45.0385" lon="6.06272">
        <ele>735.4</ele>
        <time>2024-08-14T15:11:41Z</time>
      </trkpt>
      <trkpt lat="45.0385" lon="6.06272">
        <ele>735.6</ele>
        <time>2024-08-14T15:11:42Z</time>
      </trkpt>
      <trkpt lat="45.0385" lon="6.06272">
        <ele>735.6</ele>
        <time>2024-08-14T15:11:43Z</time>
      </trkpt>
      <trkpt lat="45.03853" lon="6.06268">
        <ele>735.2</ele>
        <time>2024-08-14T15:11:44Z</time>
      </trkpt>
      <trkpt lat="45.03854" lon="6.06267">
        <ele>735.2</ele>
        <time>2024-08-14T15:11:45Z</time>
      </trkpt>
      <trkpt lat="45.03854" lon="6.06267">
        <ele>735.2</ele>
        <time>2024-08-14T15:11:46Z</time>
      </trkpt>
      <trkpt lat="45.03854" lon="6.06267">
        <ele>735.2</ele>
        <time>2024-08-14T15:11:47Z</time>
      </trkpt>
      <trkpt lat="45.03858" lon="6.06264">
        <ele>735.4</ele>
        <time>2024-08-14T15:11:48Z</time>
      </trkpt>
      <trkpt lat="45.03859" lon="6.06263">
        <ele>735.4</ele>
        <time>2024-08-14T15:11:49Z</time>
      </trkpt>
      <trkpt lat="45.03859" lon="6.06263">
        <ele>735.6</ele>
        <time>2024-08-14T15:11:50Z</time>
      </trkpt>
      <trkpt lat="45.03862" lon="6.06262">
        <ele>735.6</ele>
        <time>2024-08-14T15:11:51Z</time>
      </trkpt>
      <trkpt lat="45.03862" lon="6.06262">
        <ele>735.8</ele>
        <time>2024-08-14T15:11:52Z</time>
      </trkpt>
      <trkpt lat="45.03864" lon="6.0626">
        <ele>735.8</ele>
        <time>2024-08-14T15:11:53Z</time>
      </trkpt>
      <trkpt lat="45.03864" lon="6.0626">
        <ele>735.8</ele>
        <time>2024-08-14T15:11:54Z</time>
      </trkpt>
      <trkpt lat="45.03867" lon="6.06257">
        <ele>735.8</ele>
        <time>2024-08-14T15:11:55Z</time>
      </trkpt>
      <trkpt lat="45.03867" lon="6.06257">
        <ele>735.6</ele>
        <time>2024-08-14T15:11:56Z</time>
      </trkpt>
      <trkpt lat="45.03869" lon="6.06255">
        <ele>735.6</ele>
        <time>2024-08-14T15:11:57Z</time>
      </trkpt>
      <trkpt lat="45.03869" lon="6.06255">
        <ele>735.2</ele>
        <time>2024-08-14T15:11:58Z</time>
      </trkpt>
      <trkpt lat="45.03871" lon="6.06253">
        <ele>735</ele>
        <time>2024-08-14T15:11:59Z</time>
      </trkpt>
      <trkpt lat="45.03871" lon="6.06253">
        <ele>735</ele>
        <time>2024-08-14T15:12:00Z</time>
      </trkpt>
      <trkpt lat="45.03874" lon="6.06251">
        <ele>735.2</ele>
        <time>2024-08-14T15:12:01Z</time>
      </trkpt>
      <trkpt lat="45.03874" lon="6.06251">
        <ele>735.2</ele>
        <time>2024-08-14T15:12:02Z</time>
      </trkpt>
      <trkpt lat="45.03877" lon="6.06249">
        <ele>735.2</ele>
        <time>2024-08-14T15:12:03Z</time>
      </trkpt>
      <trkpt lat="45.03877" lon="6.06249">
        <ele>735.2</ele>
        <time>2024-08-14T15:12:04Z</time>
      </trkpt>
      <trkpt lat="45.03879" lon="6.06247">
        <ele>735.2</ele>
        <time>2024-08-14T15:12:05Z</time>
      </trkpt>
      <trkpt lat="45.03879" lon="6.06247">
        <ele>735.2</ele>
        <time>2024-08-14T15:12:06Z</time>
      </trkpt>
      <trkpt lat="45.03881" lon="6.06244">
        <ele>735.2</ele>
        <time>2024-08-14T15:12:07Z</time>
      </trkpt>
      <trkpt lat="45.03883" lon="6.06243">
        <ele>735.2</ele>
        <time>2024-08-14T15:12:08Z</time>
      </trkpt>
      <trkpt lat="45.03883" lon="6.06243">
        <ele>735.4</ele>
        <time>2024-08-14T15:12:09Z</time>
      </trkpt>
      <trkpt lat="45.03885" lon="6.0624">
        <ele>735.4</ele>
        <time>2024-08-14T15:12:10Z</time>
      </trkpt>
      <trkpt lat="45.03887" lon="6.06239">
        <ele>735.2</ele>
        <time>2024-08-14T15:12:11Z</time>
      </trkpt>
      <trkpt lat="45.03887" lon="6.06239">
        <ele>735.2</ele>
        <time>2024-08-14T15:12:12Z</time>
      </trkpt>
      <trkpt lat="45.03889" lon="6.06237">
        <ele>735.2</ele>
        <time>2024-08-14T15:12:13Z</time>
      </trkpt>
      <trkpt lat="45.03889" lon="6.06237">
        <ele>735.2</ele>
        <time>2024-08-14T15:12:14Z</time>
      </trkpt>
      <trkpt lat="45.03892" lon="6.06235">
        <ele>735.2</ele>
        <time>2024-08-14T15:12:15Z</time>
      </trkpt>
      <trkpt lat="45.03892" lon="6.06235">
        <ele>735.2</ele>
        <time>2024-08-14T15:12:16Z</time>
      </trkpt>
      <trkpt lat="45.03894" lon="6.06232">
        <ele>735.4</ele>
        <time>2024-08-14T15:12:17Z</time>
      </trkpt>
      <trkpt lat="45.03894" lon="6.06232">
        <ele>735.4</ele>
        <time>2024-08-14T15:12:18Z</time>
      </trkpt>
      <trkpt lat="45.03896" lon="6.0623">
        <ele>735.2</ele>
        <time>2024-08-14T15:12:19Z</time>
      </trkpt>
      <trkpt lat="45.03896" lon="6.0623">
        <ele>735.2</ele>
        <time>2024-08-14T15:12:20Z</time>
      </trkpt>
      <trkpt lat="45.03899" lon="6.06228">
        <ele>735.4</ele>
        <time>2024-08-14T15:12:21Z</time>
      </trkpt>
      <trkpt lat="45.03901" lon="6.06227">
        <ele>735.4</ele>
        <time>2024-08-14T15:12:22Z</time>
      </trkpt>
      <trkpt lat="45.03901" lon="6.06227">
        <ele>735.4</ele>
        <time>2024-08-14T15:12:23Z</time>
      </trkpt>
      <trkpt lat="45.03903" lon="6.06224">
        <ele>735.4</ele>
        <time>2024-08-14T15:12:24Z</time>
      </trkpt>
      <trkpt lat="45.03903" lon="6.06224">
        <ele>735.4</ele>
        <time>2024-08-14T15:12:25Z</time>
      </trkpt>
      <trkpt lat="45.03906" lon="6.06222">
        <ele>735.4</ele>
        <time>2024-08-14T15:12:26Z</time>
      </trkpt>
      <trkpt lat="45.03906" lon="6.06222">
        <ele>735.2</ele>
        <time>2024-08-14T15:12:27Z</time>
      </trkpt>
      <trkpt lat="45.03908" lon="6.0622">
        <ele>735.2</ele>
        <time>2024-08-14T15:12:28Z</time>
      </trkpt>
      <trkpt lat="45.0391" lon="6.06218">
        <ele>735.4</ele>
        <time>2024-08-14T15:12:29Z</time>
      </trkpt>
      <trkpt lat="45.0391" lon="6.06218">
        <ele>735.4</ele>
        <time>2024-08-14T15:12:30Z</time>
      </trkpt>
      <trkpt lat="45.03912" lon="6.06216">
        <ele>735.2</ele>
        <time>2024-08-14T15:12:31Z</time>
      </trkpt>
      <trkpt lat="45.03912" lon="6.06216">
        <ele>735</ele>
        <time>2024-08-14T15:12:32Z</time>
      </trkpt>
      <trkpt lat="45.03915" lon="6.06214">
        <ele>735</ele>
        <time>2024-08-14T15:12:33Z</time>
      </trkpt>
      <trkpt lat="45.03915" lon="6.06214">
        <ele>735.2</ele>
        <time>2024-08-14T15:12:34Z</time>
      </trkpt>
      <trkpt lat="45.03917" lon="6.06212">
        <ele>735.2</ele>
        <time>2024-08-14T15:12:35Z</time>
      </trkpt>
      <trkpt lat="45.03917" lon="6.06212">
        <ele>735</ele>
        <time>2024-08-14T15:12:36Z</time>
      </trkpt>
      <trkpt lat="45.0392" lon="6.0621">
        <ele>735</ele>
        <time>2024-08-14T15:12:37Z</time>
      </trkpt>
      <trkpt lat="45.0392" lon="6.0621">
        <ele>735.2</ele>
        <time>2024-08-14T15:12:38Z</time>
      </trkpt>
      <trkpt lat="45.03923" lon="6.06207">
        <ele>735.2</ele>
        <time>2024-08-14T15:12:39Z</time>
      </trkpt>
      <trkpt lat="45.03923" lon="6.06207">
        <ele>735.2</ele>
        <time>2024-08-14T15:12:40Z</time>
      </trkpt>
      <trkpt lat="45.03925" lon="6.06206">
        <ele>735.2</ele>
        <time>2024-08-14T15:12:41Z</time>
      </trkpt>
      <trkpt lat="45.03925" lon="6.06206">
        <ele>735.2</ele>
        <time>2024-08-14T15:12:42Z</time>
      </trkpt>
      <trkpt lat="45.03928" lon="6.06204">
        <ele>735.2</ele>
        <time>2024-08-14T15:12:43Z</time>
      </trkpt>
      <trkpt lat="45.03928" lon="6.06204">
        <ele>735.2</ele>
        <time>2024-08-14T15:12:44Z</time>
      </trkpt>
      <trkpt lat="45.03931" lon="6.06202">
        <ele>735.4</ele>
        <time>2024-08-14T15:12:45Z</time>
      </trkpt>
      <trkpt lat="45.03931" lon="6.06202">
        <ele>735.4</ele>
        <time>2024-08-14T15:12:46Z</time>
      </trkpt>
      <trkpt lat="45.03934" lon="6.06199">
        <ele>735.4</ele>
        <time>2024-08-14T15:12:47Z</time>
      </trkpt>
      <trkpt lat="45.03934" lon="6.06199">
        <ele>735.4</ele>
        <time>2024-08-14T15:12:48Z</time>
      </trkpt>
      <trkpt lat="45.03936" lon="6.06197">
        <ele>735.4</ele>
        <time>2024-08-14T15:12:49Z</time>
      </trkpt>
      <trkpt lat="45.03936" lon="6.06197">
        <ele>735.4</ele>
        <time>2024-08-14T15:12:50Z</time>
      </trkpt>
      <trkpt lat="45.03939" lon="6.06195">
        <ele>735.2</ele>
        <time>2024-08-14T15:12:51Z</time>
      </trkpt>
      <trkpt lat="45.03939" lon="6.06195">
        <ele>735.2</ele>
        <time>2024-08-14T15:12:52Z</time>
      </trkpt>
      <trkpt lat="45.03941" lon="6.06193">
        <ele>735.2</ele>
        <time>2024-08-14T15:12:53Z</time>
      </trkpt>
      <trkpt lat="45.03941" lon="6.06193">
        <ele>735.2</ele>
        <time>2024-08-14T15:12:54Z</time>
      </trkpt>
      <trkpt lat="45.03944" lon="6.06191">
        <ele>735.2</ele>
        <time>2024-08-14T15:12:55Z</time>
      </trkpt>
      <trkpt lat="45.03944" lon="6.06191">
        <ele>735</ele>
        <time>2024-08-14T15:12:56Z</time>
      </trkpt>
      <trkpt lat="45.03947" lon="6.06189">
        <ele>735</ele>
        <time>2024-08-14T15:12:57Z</time>
      </trkpt>
      <trkpt lat="45.03947" lon="6.06189">
        <ele>735</ele>
        <time>2024-08-14T15:12:58Z</time>
      </trkpt>
      <trkpt lat="45.03949" lon="6.06187">
        <ele>735.2</ele>
        <time>2024-08-14T15:12:59Z</time>
      </trkpt>
      <trkpt lat="45.03949" lon="6.06187">
        <ele>735.2</ele>
        <time>2024-08-14T15:13:00Z</time>
      </trkpt>
      <trkpt lat="45.03952" lon="6.06184">
        <ele>735.2</ele>
        <time>2024-08-14T15:13:01Z</time>
      </trkpt>
      <trkpt lat="45.03952" lon="6.06184">
        <ele>735.2</ele>
        <time>2024-08-14T15:13:02Z</time>
      </trkpt>
      <trkpt lat="45.03954" lon="6.06182">
        <ele>735.2</ele>
        <time>2024-08-14T15:13:03Z</time>
      </trkpt>
      <trkpt lat="45.03954" lon="6.06182">
        <ele>735.2</ele>
        <time>2024-08-14T15:13:04Z</time>
      </trkpt>
      <trkpt lat="45.03957" lon="6.0618">
        <ele>735</ele>
        <time>2024-08-14T15:13:05Z</time>
      </trkpt>
      <trkpt lat="45.03957" lon="6.0618">
        <ele>735</ele>
        <time>2024-08-14T15:13:06Z</time>
      </trkpt>
      <trkpt lat="45.03959" lon="6.06178">
        <ele>735</ele>
        <time>2024-08-14T15:13:07Z</time>
      </trkpt>
      <trkpt lat="45.03961" lon="6.06176">
        <ele>735.2</ele>
        <time>2024-08-14T15:13:08Z</time>
      </trkpt>
      <trkpt lat="45.03961" lon="6.06176">
        <ele>735.2</ele>
        <time>2024-08-14T15:13:09Z</time>
      </trkpt>
      <trkpt lat="45.03963" lon="6.06174">
        <ele>735.2</ele>
        <time>2024-08-14T15:13:10Z</time>
      </trkpt>
      <trkpt lat="45.03963" lon="6.06174">
        <ele>735.2</ele>
        <time>2024-08-14T15:13:11Z</time>
      </trkpt>
      <trkpt lat="45.03966" lon="6.06172">
        <ele>735</ele>
        <time>2024-08-14T15:13:12Z</time>
      </trkpt>
      <trkpt lat="45.03966" lon="6.06172">
        <ele>735</ele>
        <time>2024-08-14T15:13:13Z</time>
      </trkpt>
      <trkpt lat="45.03968" lon="6.06169">
        <ele>735</ele>
        <time>2024-08-14T15:13:14Z</time>
      </trkpt>
      <trkpt lat="45.03968" lon="6.06169">
        <ele>735</ele>
        <time>2024-08-14T15:13:15Z</time>
      </trkpt>
      <trkpt lat="45.03971" lon="6.06167">
        <ele>735.2</ele>
        <time>2024-08-14T15:13:16Z</time>
      </trkpt>
      <trkpt lat="45.03972" lon="6.06165">
        <ele>735.2</ele>
        <time>2024-08-14T15:13:17Z</time>
      </trkpt>
      <trkpt lat="45.03972" lon="6.06165">
        <ele>735.4</ele>
        <time>2024-08-14T15:13:18Z</time>
      </trkpt>
      <trkpt lat="45.03974" lon="6.06163">
        <ele>735.4</ele>
        <time>2024-08-14T15:13:19Z</time>
      </trkpt>
      <trkpt lat="45.03974" lon="6.06163">
        <ele>735.4</ele>
        <time>2024-08-14T15:13:20Z</time>
      </trkpt>
      <trkpt lat="45.03977" lon="6.06161">
        <ele>735.4</ele>
        <time>2024-08-14T15:13:21Z</time>
      </trkpt>
      <trkpt lat="45.03977" lon="6.06161">
        <ele>735.4</ele>
        <time>2024-08-14T15:13:22Z</time>
      </trkpt>
      <trkpt lat="45.0398" lon="6.06159">
        <ele>735.2</ele>
        <time>2024-08-14T15:13:23Z</time>
      </trkpt>
      <trkpt lat="45.03981" lon="6.06158">
        <ele>735.2</ele>
        <time>2024-08-14T15:13:24Z</time>
      </trkpt>
      <trkpt lat="45.03981" lon="6.06158">
        <ele>735.4</ele>
        <time>2024-08-14T15:13:25Z</time>
      </trkpt>
      <trkpt lat="45.03984" lon="6.06155">
        <ele>735.6</ele>
        <time>2024-08-14T15:13:26Z</time>
      </trkpt>
      <trkpt lat="45.03985" lon="6.06154">
        <ele>735.6</ele>
        <time>2024-08-14T15:13:27Z</time>
      </trkpt>
      <trkpt lat="45.03985" lon="6.06154">
        <ele>735.4</ele>
        <time>2024-08-14T15:13:28Z</time>
      </trkpt>
      <trkpt lat="45.03988" lon="6.06152">
        <ele>735.4</ele>
        <time>2024-08-14T15:13:29Z</time>
      </trkpt>
      <trkpt lat="45.03989" lon="6.06151">
        <ele>735.4</ele>
        <time>2024-08-14T15:13:30Z</time>
      </trkpt>
      <trkpt lat="45.03989" lon="6.06151">
        <ele>735.4</ele>
        <time>2024-08-14T15:13:31Z</time>
      </trkpt>
      <trkpt lat="45.03991" lon="6.06149">
        <ele>735.2</ele>
        <time>2024-08-14T15:13:32Z</time>
      </trkpt>
      <trkpt lat="45.03991" lon="6.06149">
        <ele>735</ele>
        <time>2024-08-14T15:13:33Z</time>
      </trkpt>
      <trkpt lat="45.03994" lon="6.06147">
        <ele>735</ele>
        <time>2024-08-14T15:13:34Z</time>
      </trkpt>
      <trkpt lat="45.03994" lon="6.06147">
        <ele>735.2</ele>
        <time>2024-08-14T15:13:35Z</time>
      </trkpt>
      <trkpt lat="45.03996" lon="6.06145">
        <ele>735.2</ele>
        <time>2024-08-14T15:13:36Z</time>
      </trkpt>
      <trkpt lat="45.03996" lon="6.06145">
        <ele>735.2</ele>
        <time>2024-08-14T15:13:37Z</time>
      </trkpt>
      <trkpt lat="45.03999" lon="6.06143">
        <ele>735.2</ele>
        <time>2024-08-14T15:13:38Z</time>
      </trkpt>
      <trkpt lat="45.03999" lon="6.06143">
        <ele>735</ele>
        <time>2024-08-14T15:13:39Z</time>
      </trkpt>
      <trkpt lat="45.04001" lon="6.0614">
        <ele>735</ele>
        <time>2024-08-14T15:13:40Z</time>
      </trkpt>
      <trkpt lat="45.04001" lon="6.0614">
        <ele>735</ele>
        <time>2024-08-14T15:13:41Z</time>
      </trkpt>
      <trkpt lat="45.04004" lon="6.06138">
        <ele>735</ele>
        <time>2024-08-14T15:13:42Z</time>
      </trkpt>
      <trkpt lat="45.04004" lon="6.06138">
        <ele>735</ele>
        <time>2024-08-14T15:13:43Z</time>
      </trkpt>
      <trkpt lat="45.04006" lon="6.06136">
        <ele>734.8</ele>
        <time>2024-08-14T15:13:44Z</time>
      </trkpt>
      <trkpt lat="45.04006" lon="6.06136">
        <ele>734.6</ele>
        <time>2024-08-14T15:13:45Z</time>
      </trkpt>
      <trkpt lat="45.04009" lon="6.06134">
        <ele>734.6</ele>
        <time>2024-08-14T15:13:46Z</time>
      </trkpt>
      <trkpt lat="45.04009" lon="6.06134">
        <ele>734.6</ele>
        <time>2024-08-14T15:13:47Z</time>
      </trkpt>
      <trkpt lat="45.04011" lon="6.06132">
        <ele>734.4</ele>
        <time>2024-08-14T15:13:48Z</time>
      </trkpt>
      <trkpt lat="45.04011" lon="6.06132">
        <ele>734.4</ele>
        <time>2024-08-14T15:13:49Z</time>
      </trkpt>
      <trkpt lat="45.04014" lon="6.06129">
        <ele>734.4</ele>
        <time>2024-08-14T15:13:50Z</time>
      </trkpt>
      <trkpt lat="45.04014" lon="6.06129">
        <ele>734.6</ele>
        <time>2024-08-14T15:13:51Z</time>
      </trkpt>
      <trkpt lat="45.04016" lon="6.06127">
        <ele>734.6</ele>
        <time>2024-08-14T15:13:52Z</time>
      </trkpt>
      <trkpt lat="45.04016" lon="6.06127">
        <ele>734.6</ele>
        <time>2024-08-14T15:13:53Z</time>
      </trkpt>
      <trkpt lat="45.04019" lon="6.06125">
        <ele>734.6</ele>
        <time>2024-08-14T15:13:54Z</time>
      </trkpt>
      <trkpt lat="45.04019" lon="6.06125">
        <ele>734.6</ele>
        <time>2024-08-14T15:13:55Z</time>
      </trkpt>
      <trkpt lat="45.04021" lon="6.06122">
        <ele>734.6</ele>
        <time>2024-08-14T15:13:56Z</time>
      </trkpt>
      <trkpt lat="45.04021" lon="6.06122">
        <ele>734.6</ele>
        <time>2024-08-14T15:13:57Z</time>
      </trkpt>
      <trkpt lat="45.04023" lon="6.0612">
        <ele>734.6</ele>
        <time>2024-08-14T15:13:58Z</time>
      </trkpt>
      <trkpt lat="45.04023" lon="6.0612">
        <ele>734.6</ele>
        <time>2024-08-14T15:13:59Z</time>
      </trkpt>
      <trkpt lat="45.04026" lon="6.06118">
        <ele>734.4</ele>
        <time>2024-08-14T15:14:00Z</time>
      </trkpt>
      <trkpt lat="45.04026" lon="6.06118">
        <ele>734.4</ele>
        <time>2024-08-14T15:14:01Z</time>
      </trkpt>
      <trkpt lat="45.04028" lon="6.06116">
        <ele>734.2</ele>
        <time>2024-08-14T15:14:02Z</time>
      </trkpt>
      <trkpt lat="45.04028" lon="6.06116">
        <ele>734.2</ele>
        <time>2024-08-14T15:14:03Z</time>
      </trkpt>
      <trkpt lat="45.04031" lon="6.06114">
        <ele>734.4</ele>
        <time>2024-08-14T15:14:04Z</time>
      </trkpt>
      <trkpt lat="45.04031" lon="6.06114">
        <ele>734.4</ele>
        <time>2024-08-14T15:14:05Z</time>
      </trkpt>
      <trkpt lat="45.04033" lon="6.06111">
        <ele>734.4</ele>
        <time>2024-08-14T15:14:06Z</time>
      </trkpt>
      <trkpt lat="45.04033" lon="6.06111">
        <ele>734.4</ele>
        <time>2024-08-14T15:14:07Z</time>
      </trkpt>
      <trkpt lat="45.04035" lon="6.06109">
        <ele>734.6</ele>
        <time>2024-08-14T15:14:08Z</time>
      </trkpt>
      <trkpt lat="45.04035" lon="6.06109">
        <ele>734.6</ele>
        <time>2024-08-14T15:14:09Z</time>
      </trkpt>
      <trkpt lat="45.04037" lon="6.06107">
        <ele>734.4</ele>
        <time>2024-08-14T15:14:10Z</time>
      </trkpt>
      <trkpt lat="45.04037" lon="6.06107">
        <ele>734.4</ele>
        <time>2024-08-14T15:14:11Z</time>
      </trkpt>
      <trkpt lat="45.0404" lon="6.06105">
        <ele>734.2</ele>
        <time>2024-08-14T15:14:12Z</time>
      </trkpt>
      <trkpt lat="45.0404" lon="6.06105">
        <ele>734.2</ele>
        <time>2024-08-14T15:14:13Z</time>
      </trkpt>
      <trkpt lat="45.04042" lon="6.06103">
        <ele>734.2</ele>
        <time>2024-08-14T15:14:14Z</time>
      </trkpt>
      <trkpt lat="45.04042" lon="6.06103">
        <ele>734.2</ele>
        <time>2024-08-14T15:14:15Z</time>
      </trkpt>
      <trkpt lat="45.04045" lon="6.06101">
        <ele>734.2</ele>
        <time>2024-08-14T15:14:16Z</time>
      </trkpt>
      <trkpt lat="45.04045" lon="6.06101">
        <ele>734.2</ele>
        <time>2024-08-14T15:14:17Z</time>
      </trkpt>
      <trkpt lat="45.04047" lon="6.06099">
        <ele>734.2</ele>
        <time>2024-08-14T15:14:18Z</time>
      </trkpt>
      <trkpt lat="45.04047" lon="6.06099">
        <ele>734</ele>
        <time>2024-08-14T15:14:19Z</time>
      </trkpt>
      <trkpt lat="45.0405" lon="6.06097">
        <ele>734</ele>
        <time>2024-08-14T15:14:20Z</time>
      </trkpt>
      <trkpt lat="45.0405" lon="6.06097">
        <ele>734</ele>
        <time>2024-08-14T15:14:21Z</time>
      </trkpt>
      <trkpt lat="45.04052" lon="6.06095">
        <ele>734.2</ele>
        <time>2024-08-14T15:14:22Z</time>
      </trkpt>
      <trkpt lat="45.04053" lon="6.06094">
        <ele>734.2</ele>
        <time>2024-08-14T15:14:23Z</time>
      </trkpt>
      <trkpt lat="45.04053" lon="6.06094">
        <ele>734.2</ele>
        <time>2024-08-14T15:14:24Z</time>
      </trkpt>
      <trkpt lat="45.04056" lon="6.06091">
        <ele>734</ele>
        <time>2024-08-14T15:14:25Z</time>
      </trkpt>
      <trkpt lat="45.04056" lon="6.06091">
        <ele>734</ele>
        <time>2024-08-14T15:14:26Z</time>
      </trkpt>
      <trkpt lat="45.04059" lon="6.06089">
        <ele>734</ele>
        <time>2024-08-14T15:14:27Z</time>
      </trkpt>
      <trkpt lat="45.04059" lon="6.06089">
        <ele>733.8</ele>
        <time>2024-08-14T15:14:28Z</time>
      </trkpt>
      <trkpt lat="45.04061" lon="6.06087">
        <ele>733.4</ele>
        <time>2024-08-14T15:14:29Z</time>
      </trkpt>
      <trkpt lat="45.04061" lon="6.06087">
        <ele>733.4</ele>
        <time>2024-08-14T15:14:30Z</time>
      </trkpt>
      <trkpt lat="45.04064" lon="6.06084">
        <ele>733.6</ele>
        <time>2024-08-14T15:14:31Z</time>
      </trkpt>
      <trkpt lat="45.04064" lon="6.06084">
        <ele>733.8</ele>
        <time>2024-08-14T15:14:32Z</time>
      </trkpt>
      <trkpt lat="45.04067" lon="6.06082">
        <ele>733.8</ele>
        <time>2024-08-14T15:14:33Z</time>
      </trkpt>
      <trkpt lat="45.04067" lon="6.06082">
        <ele>733.8</ele>
        <time>2024-08-14T15:14:34Z</time>
      </trkpt>
      <trkpt lat="45.04069" lon="6.0608">
        <ele>734</ele>
        <time>2024-08-14T15:14:35Z</time>
      </trkpt>
      <trkpt lat="45.04069" lon="6.0608">
        <ele>734</ele>
        <time>2024-08-14T15:14:36Z</time>
      </trkpt>
      <trkpt lat="45.04072" lon="6.06077">
        <ele>734</ele>
        <time>2024-08-14T15:14:37Z</time>
      </trkpt>
      <trkpt lat="45.04072" lon="6.06077">
        <ele>734.2</ele>
        <time>2024-08-14T15:14:38Z</time>
      </trkpt>
      <trkpt lat="45.04074" lon="6.06075">
        <ele>734.2</ele>
        <time>2024-08-14T15:14:39Z</time>
      </trkpt>
      <trkpt lat="45.04074" lon="6.06075">
        <ele>733.8</ele>
        <time>2024-08-14T15:14:40Z</time>
      </trkpt>
      <trkpt lat="45.04077" lon="6.06073">
        <ele>733.8</ele>
        <time>2024-08-14T15:14:41Z</time>
      </trkpt>
      <trkpt lat="45.04077" lon="6.06073">
        <ele>734</ele>
        <time>2024-08-14T15:14:42Z</time>
      </trkpt>
      <trkpt lat="45.04079" lon="6.06071">
        <ele>733.8</ele>
        <time>2024-08-14T15:14:43Z</time>
      </trkpt>
      <trkpt lat="45.04079" lon="6.06071">
        <ele>733.8</ele>
        <time>2024-08-14T15:14:44Z</time>
      </trkpt>
      <trkpt lat="45.04081" lon="6.06068">
        <ele>733.8</ele>
        <time>2024-08-14T15:14:45Z</time>
      </trkpt>
      <trkpt lat="45.04081" lon="6.06068">
        <ele>734</ele>
        <time>2024-08-14T15:14:46Z</time>
      </trkpt>
      <trkpt lat="45.04081" lon="6.06068">
        <ele>734</ele>
        <time>2024-08-14T15:14:47Z</time>
      </trkpt>
      <trkpt lat="45.04085" lon="6.06065">
        <ele>734.2</ele>
        <time>2024-08-14T15:14:48Z</time>
      </trkpt>
      <trkpt lat="45.04085" lon="6.06064">
        <ele>734.4</ele>
        <time>2024-08-14T15:14:49Z</time>
      </trkpt>
      <trkpt lat="45.04087" lon="6.06063">
        <ele>734.4</ele>
        <time>2024-08-14T15:14:50Z</time>
      </trkpt>
      <trkpt lat="45.04087" lon="6.06063">
        <ele>734.2</ele>
        <time>2024-08-14T15:14:51Z</time>
      </trkpt>
      <trkpt lat="45.04089" lon="6.06061">
        <ele>734.2</ele>
        <time>2024-08-14T15:14:52Z</time>
      </trkpt>
      <trkpt lat="45.04089" lon="6.06061">
        <ele>734.2</ele>
        <time>2024-08-14T15:14:53Z</time>
      </trkpt>
      <trkpt lat="45.04089" lon="6.06061">
        <ele>734.2</ele>
        <time>2024-08-14T15:14:54Z</time>
      </trkpt>
      <trkpt lat="45.04093" lon="6.06058">
        <ele>734.2</ele>
        <time>2024-08-14T15:14:55Z</time>
      </trkpt>
      <trkpt lat="45.04095" lon="6.06056">
        <ele>734.2</ele>
        <time>2024-08-14T15:14:56Z</time>
      </trkpt>
      <trkpt lat="45.04095" lon="6.06056">
        <ele>734.2</ele>
        <time>2024-08-14T15:14:57Z</time>
      </trkpt>
      <trkpt lat="45.04097" lon="6.06054">
        <ele>734.2</ele>
        <time>2024-08-14T15:14:58Z</time>
      </trkpt>
      <trkpt lat="45.04099" lon="6.06053">
        <ele>734.2</ele>
        <time>2024-08-14T15:14:59Z</time>
      </trkpt>
      <trkpt lat="45.04101" lon="6.06052">
        <ele>734</ele>
        <time>2024-08-14T15:15:00Z</time>
      </trkpt>
      <trkpt lat="45.04101" lon="6.06052">
        <ele>734</ele>
        <time>2024-08-14T15:15:01Z</time>
      </trkpt>
      <trkpt lat="45.04104" lon="6.0605">
        <ele>734</ele>
        <time>2024-08-14T15:15:02Z</time>
      </trkpt>
      <trkpt lat="45.04104" lon="6.0605">
        <ele>734</ele>
        <time>2024-08-14T15:15:03Z</time>
      </trkpt>
      <trkpt lat="45.04107" lon="6.06047">
        <ele>733.6</ele>
        <time>2024-08-14T15:15:04Z</time>
      </trkpt>
      <trkpt lat="45.04107" lon="6.06047">
        <ele>733.6</ele>
        <time>2024-08-14T15:15:05Z</time>
      </trkpt>
      <trkpt lat="45.04109" lon="6.06045">
        <ele>733.4</ele>
        <time>2024-08-14T15:15:06Z</time>
      </trkpt>
      <trkpt lat="45.04111" lon="6.06044">
        <ele>733.4</ele>
        <time>2024-08-14T15:15:07Z</time>
      </trkpt>
      <trkpt lat="45.04111" lon="6.06044">
        <ele>733.4</ele>
        <time>2024-08-14T15:15:08Z</time>
      </trkpt>
      <trkpt lat="45.04113" lon="6.06042">
        <ele>733.4</ele>
        <time>2024-08-14T15:15:09Z</time>
      </trkpt>
      <trkpt lat="45.04113" lon="6.06042">
        <ele>733.4</ele>
        <time>2024-08-14T15:15:10Z</time>
      </trkpt>
      <trkpt lat="45.04116" lon="6.06039">
        <ele>733.4</ele>
        <time>2024-08-14T15:15:11Z</time>
      </trkpt>
      <trkpt lat="45.04116" lon="6.06039">
        <ele>733.4</ele>
        <time>2024-08-14T15:15:12Z</time>
      </trkpt>
      <trkpt lat="45.04118" lon="6.06037">
        <ele>733.4</ele>
        <time>2024-08-14T15:15:13Z</time>
      </trkpt>
      <trkpt lat="45.04118" lon="6.06037">
        <ele>733.4</ele>
        <time>2024-08-14T15:15:14Z</time>
      </trkpt>
      <trkpt lat="45.04121" lon="6.06035">
        <ele>733.4</ele>
        <time>2024-08-14T15:15:15Z</time>
      </trkpt>
      <trkpt lat="45.04121" lon="6.06035">
        <ele>733.6</ele>
        <time>2024-08-14T15:15:16Z</time>
      </trkpt>
      <trkpt lat="45.04123" lon="6.06032">
        <ele>733.6</ele>
        <time>2024-08-14T15:15:17Z</time>
      </trkpt>
      <trkpt lat="45.04123" lon="6.06032">
        <ele>733.4</ele>
        <time>2024-08-14T15:15:18Z</time>
      </trkpt>
      <trkpt lat="45.04125" lon="6.0603">
        <ele>733.4</ele>
        <time>2024-08-14T15:15:19Z</time>
      </trkpt>
      <trkpt lat="45.04127" lon="6.06029">
        <ele>733.2</ele>
        <time>2024-08-14T15:15:20Z</time>
      </trkpt>
      <trkpt lat="45.04127" lon="6.06029">
        <ele>733.2</ele>
        <time>2024-08-14T15:15:21Z</time>
      </trkpt>
      <trkpt lat="45.04129" lon="6.06027">
        <ele>733.2</ele>
        <time>2024-08-14T15:15:22Z</time>
      </trkpt>
      <trkpt lat="45.04129" lon="6.06027">
        <ele>733.2</ele>
        <time>2024-08-14T15:15:23Z</time>
      </trkpt>
      <trkpt lat="45.04132" lon="6.06025">
        <ele>733.2</ele>
        <time>2024-08-14T15:15:24Z</time>
      </trkpt>
      <trkpt lat="45.04132" lon="6.06025">
        <ele>733.2</ele>
        <time>2024-08-14T15:15:25Z</time>
      </trkpt>
      <trkpt lat="45.04134" lon="6.06023">
        <ele>733</ele>
        <time>2024-08-14T15:15:26Z</time>
      </trkpt>
      <trkpt lat="45.04134" lon="6.06023">
        <ele>733</ele>
        <time>2024-08-14T15:15:27Z</time>
      </trkpt>
      <trkpt lat="45.04137" lon="6.06021">
        <ele>733</ele>
        <time>2024-08-14T15:15:28Z</time>
      </trkpt>
      <trkpt lat="45.04137" lon="6.06021">
        <ele>733</ele>
        <time>2024-08-14T15:15:29Z</time>
      </trkpt>
      <trkpt lat="45.0414" lon="6.06019">
        <ele>733</ele>
        <time>2024-08-14T15:15:30Z</time>
      </trkpt>
      <trkpt lat="45.0414" lon="6.06019">
        <ele>733</ele>
        <time>2024-08-14T15:15:31Z</time>
      </trkpt>
      <trkpt lat="45.04142" lon="6.06016">
        <ele>733</ele>
        <time>2024-08-14T15:15:32Z</time>
      </trkpt>
      <trkpt lat="45.04142" lon="6.06016">
        <ele>733</ele>
        <time>2024-08-14T15:15:33Z</time>
      </trkpt>
      <trkpt lat="45.04145" lon="6.06014">
        <ele>733</ele>
        <time>2024-08-14T15:15:34Z</time>
      </trkpt>
      <trkpt lat="45.04146" lon="6.06012">
        <ele>733</ele>
        <time>2024-08-14T15:15:35Z</time>
      </trkpt>
      <trkpt lat="45.04146" lon="6.06012">
        <ele>733</ele>
        <time>2024-08-14T15:15:36Z</time>
      </trkpt>
      <trkpt lat="45.04149" lon="6.0601">
        <ele>733</ele>
        <time>2024-08-14T15:15:37Z</time>
      </trkpt>
      <trkpt lat="45.04149" lon="6.0601">
        <ele>733</ele>
        <time>2024-08-14T15:15:38Z</time>
      </trkpt>
      <trkpt lat="45.04149" lon="6.0601">
        <ele>733</ele>
        <time>2024-08-14T15:15:39Z</time>
      </trkpt>
      <trkpt lat="45.04152" lon="6.06007">
        <ele>733</ele>
        <time>2024-08-14T15:15:40Z</time>
      </trkpt>
      <trkpt lat="45.04154" lon="6.06006">
        <ele>733</ele>
        <time>2024-08-14T15:15:41Z</time>
      </trkpt>
      <trkpt lat="45.04154" lon="6.06006">
        <ele>733</ele>
        <time>2024-08-14T15:15:42Z</time>
      </trkpt>
      <trkpt lat="45.04156" lon="6.06003">
        <ele>733.2</ele>
        <time>2024-08-14T15:15:43Z</time>
      </trkpt>
      <trkpt lat="45.04158" lon="6.06002">
        <ele>733.2</ele>
        <time>2024-08-14T15:15:44Z</time>
      </trkpt>
      <trkpt lat="45.04158" lon="6.06002">
        <ele>733</ele>
        <time>2024-08-14T15:15:45Z</time>
      </trkpt>
      <trkpt lat="45.0416" lon="6.05999">
        <ele>732.6</ele>
        <time>2024-08-14T15:15:46Z</time>
      </trkpt>
      <trkpt lat="45.0416" lon="6.05999">
        <ele>732.6</ele>
        <time>2024-08-14T15:15:47Z</time>
      </trkpt>
      <trkpt lat="45.04164" lon="6.05997">
        <ele>732.8</ele>
        <time>2024-08-14T15:15:48Z</time>
      </trkpt>
      <trkpt lat="45.04164" lon="6.05997">
        <ele>732.8</ele>
        <time>2024-08-14T15:15:49Z</time>
      </trkpt>
      <trkpt lat="45.04166" lon="6.05995">
        <ele>732.8</ele>
        <time>2024-08-14T15:15:50Z</time>
      </trkpt>
      <trkpt lat="45.04166" lon="6.05995">
        <ele>732.8</ele>
        <time>2024-08-14T15:15:51Z</time>
      </trkpt>
      <trkpt lat="45.04168" lon="6.05993">
        <ele>732.8</ele>
        <time>2024-08-14T15:15:52Z</time>
      </trkpt>
      <trkpt lat="45.04168" lon="6.05993">
        <ele>732.8</ele>
        <time>2024-08-14T15:15:53Z</time>
      </trkpt>
      <trkpt lat="45.04171" lon="6.05991">
        <ele>732.8</ele>
        <time>2024-08-14T15:15:54Z</time>
      </trkpt>
      <trkpt lat="45.04171" lon="6.05991">
        <ele>732.8</ele>
        <time>2024-08-14T15:15:55Z</time>
      </trkpt>
      <trkpt lat="45.04173" lon="6.05988">
        <ele>732.8</ele>
        <time>2024-08-14T15:15:56Z</time>
      </trkpt>
      <trkpt lat="45.04173" lon="6.05988">
        <ele>732.6</ele>
        <time>2024-08-14T15:15:57Z</time>
      </trkpt>
      <trkpt lat="45.04176" lon="6.05986">
        <ele>732.6</ele>
        <time>2024-08-14T15:15:58Z</time>
      </trkpt>
      <trkpt lat="45.04176" lon="6.05986">
        <ele>732.6</ele>
        <time>2024-08-14T15:15:59Z</time>
      </trkpt>
      <trkpt lat="45.04178" lon="6.05983">
        <ele>732.6</ele>
        <time>2024-08-14T15:16:00Z</time>
      </trkpt>
      <trkpt lat="45.04178" lon="6.05983">
        <ele>732.6</ele>
        <time>2024-08-14T15:16:01Z</time>
      </trkpt>
      <trkpt lat="45.04181" lon="6.05981">
        <ele>732.6</ele>
        <time>2024-08-14T15:16:02Z</time>
      </trkpt>
      <trkpt lat="45.04181" lon="6.05981">
        <ele>732.6</ele>
        <time>2024-08-14T15:16:03Z</time>
      </trkpt>
      <trkpt lat="45.04184" lon="6.0598">
        <ele>732.6</ele>
        <time>2024-08-14T15:16:04Z</time>
      </trkpt>
      <trkpt lat="45.04184" lon="6.0598">
        <ele>732.4</ele>
        <time>2024-08-14T15:16:05Z</time>
      </trkpt>
      <trkpt lat="45.04187" lon="6.05978">
        <ele>732.4</ele>
        <time>2024-08-14T15:16:06Z</time>
      </trkpt>
      <trkpt lat="45.04187" lon="6.05978">
        <ele>732.4</ele>
        <time>2024-08-14T15:16:07Z</time>
      </trkpt>
      <trkpt lat="45.04189" lon="6.05975">
        <ele>732.4</ele>
        <time>2024-08-14T15:16:08Z</time>
      </trkpt>
      <trkpt lat="45.04189" lon="6.05975">
        <ele>732.4</ele>
        <time>2024-08-14T15:16:09Z</time>
      </trkpt>
      <trkpt lat="45.04192" lon="6.05972">
        <ele>732.4</ele>
        <time>2024-08-14T15:16:10Z</time>
      </trkpt>
      <trkpt lat="45.04192" lon="6.05972">
        <ele>732.2</ele>
        <time>2024-08-14T15:16:11Z</time>
      </trkpt>
      <trkpt lat="45.04194" lon="6.0597">
        <ele>732.2</ele>
        <time>2024-08-14T15:16:12Z</time>
      </trkpt>
      <trkpt lat="45.04196" lon="6.05969">
        <ele>732</ele>
        <time>2024-08-14T15:16:13Z</time>
      </trkpt>
      <trkpt lat="45.04196" lon="6.05969">
        <ele>732</ele>
        <time>2024-08-14T15:16:14Z</time>
      </trkpt>
      <trkpt lat="45.04198" lon="6.05967">
        <ele>732.2</ele>
        <time>2024-08-14T15:16:15Z</time>
      </trkpt>
      <trkpt lat="45.042" lon="6.05965">
        <ele>732.2</ele>
        <time>2024-08-14T15:16:16Z</time>
      </trkpt>
      <trkpt lat="45.042" lon="6.05965">
        <ele>732.2</ele>
        <time>2024-08-14T15:16:17Z</time>
      </trkpt>
      <trkpt lat="45.04202" lon="6.05963">
        <ele>732.2</ele>
        <time>2024-08-14T15:16:18Z</time>
      </trkpt>
      <trkpt lat="45.04202" lon="6.05963">
        <ele>732</ele>
        <time>2024-08-14T15:16:19Z</time>
      </trkpt>
      <trkpt lat="45.04205" lon="6.05961">
        <ele>732</ele>
        <time>2024-08-14T15:16:20Z</time>
      </trkpt>
      <trkpt lat="45.04205" lon="6.05961">
        <ele>732</ele>
        <time>2024-08-14T15:16:21Z</time>
      </trkpt>
      <trkpt lat="45.04208" lon="6.05959">
        <ele>732.2</ele>
        <time>2024-08-14T15:16:22Z</time>
      </trkpt>
      <trkpt lat="45.04208" lon="6.05959">
        <ele>732.2</ele>
        <time>2024-08-14T15:16:23Z</time>
      </trkpt>
      <trkpt lat="45.0421" lon="6.05957">
        <ele>732.2</ele>
        <time>2024-08-14T15:16:24Z</time>
      </trkpt>
      <trkpt lat="45.0421" lon="6.05957">
        <ele>732.2</ele>
        <time>2024-08-14T15:16:25Z</time>
      </trkpt>
      <trkpt lat="45.04212" lon="6.05955">
        <ele>732.2</ele>
        <time>2024-08-14T15:16:26Z</time>
      </trkpt>
      <trkpt lat="45.04212" lon="6.05955">
        <ele>732.2</ele>
        <time>2024-08-14T15:16:27Z</time>
      </trkpt>
      <trkpt lat="45.04215" lon="6.05953">
        <ele>732.2</ele>
        <time>2024-08-14T15:16:28Z</time>
      </trkpt>
      <trkpt lat="45.04215" lon="6.05953">
        <ele>732.2</ele>
        <time>2024-08-14T15:16:29Z</time>
      </trkpt>
      <trkpt lat="45.04218" lon="6.05951">
        <ele>732.2</ele>
        <time>2024-08-14T15:16:30Z</time>
      </trkpt>
      <trkpt lat="45.04218" lon="6.05951">
        <ele>732</ele>
        <time>2024-08-14T15:16:31Z</time>
      </trkpt>
      <trkpt lat="45.0422" lon="6.05948">
        <ele>732</ele>
        <time>2024-08-14T15:16:32Z</time>
      </trkpt>
      <trkpt lat="45.04221" lon="6.05947">
        <ele>732</ele>
        <time>2024-08-14T15:16:33Z</time>
      </trkpt>
      <trkpt lat="45.04221" lon="6.05947">
        <ele>732</ele>
        <time>2024-08-14T15:16:34Z</time>
      </trkpt>
      <trkpt lat="45.04224" lon="6.05945">
        <ele>731.8</ele>
        <time>2024-08-14T15:16:35Z</time>
      </trkpt>
      <trkpt lat="45.04224" lon="6.05945">
        <ele>731.8</ele>
        <time>2024-08-14T15:16:36Z</time>
      </trkpt>
      <trkpt lat="45.04226" lon="6.05943">
        <ele>732</ele>
        <time>2024-08-14T15:16:37Z</time>
      </trkpt>
      <trkpt lat="45.04228" lon="6.05941">
        <ele>732.2</ele>
        <time>2024-08-14T15:16:38Z</time>
      </trkpt>
      <trkpt lat="45.04228" lon="6.05941">
        <ele>732.2</ele>
        <time>2024-08-14T15:16:39Z</time>
      </trkpt>
      <trkpt lat="45.0423" lon="6.05939">
        <ele>732.2</ele>
        <time>2024-08-14T15:16:40Z</time>
      </trkpt>
      <trkpt lat="45.0423" lon="6.05939">
        <ele>732.2</ele>
        <time>2024-08-14T15:16:41Z</time>
      </trkpt>
      <trkpt lat="45.04232" lon="6.05937">
        <ele>732</ele>
        <time>2024-08-14T15:16:42Z</time>
      </trkpt>
      <trkpt lat="45.04234" lon="6.05935">
        <ele>731.8</ele>
        <time>2024-08-14T15:16:43Z</time>
      </trkpt>
      <trkpt lat="45.04234" lon="6.05935">
        <ele>731.4</ele>
        <time>2024-08-14T15:16:44Z</time>
      </trkpt>
      <trkpt lat="45.04236" lon="6.05933">
        <ele>731.2</ele>
        <time>2024-08-14T15:16:45Z</time>
      </trkpt>
      <trkpt lat="45.04238" lon="6.05932">
        <ele>731.2</ele>
        <time>2024-08-14T15:16:46Z</time>
      </trkpt>
      <trkpt lat="45.04238" lon="6.05932">
        <ele>731.4</ele>
        <time>2024-08-14T15:16:47Z</time>
      </trkpt>
      <trkpt lat="45.0424" lon="6.05929">
        <ele>731.4</ele>
        <time>2024-08-14T15:16:48Z</time>
      </trkpt>
      <trkpt lat="45.04242" lon="6.05928">
        <ele>731.6</ele>
        <time>2024-08-14T15:16:49Z</time>
      </trkpt>
      <trkpt lat="45.04242" lon="6.05928">
        <ele>731.6</ele>
        <time>2024-08-14T15:16:50Z</time>
      </trkpt>
      <trkpt lat="45.04244" lon="6.05926">
        <ele>731.6</ele>
        <time>2024-08-14T15:16:51Z</time>
      </trkpt>
      <trkpt lat="45.04244" lon="6.05926">
        <ele>731.6</ele>
        <time>2024-08-14T15:16:52Z</time>
      </trkpt>
      <trkpt lat="45.04246" lon="6.05924">
        <ele>731.4</ele>
        <time>2024-08-14T15:16:53Z</time>
      </trkpt>
      <trkpt lat="45.04246" lon="6.05924">
        <ele>731.4</ele>
        <time>2024-08-14T15:16:54Z</time>
      </trkpt>
      <trkpt lat="45.04249" lon="6.05921">
        <ele>731.6</ele>
        <time>2024-08-14T15:16:55Z</time>
      </trkpt>
      <trkpt lat="45.04249" lon="6.05921">
        <ele>731.6</ele>
        <time>2024-08-14T15:16:56Z</time>
      </trkpt>
      <trkpt lat="45.04252" lon="6.05919">
        <ele>731.4</ele>
        <time>2024-08-14T15:16:57Z</time>
      </trkpt>
      <trkpt lat="45.04252" lon="6.05919">
        <ele>731.4</ele>
        <time>2024-08-14T15:16:58Z</time>
      </trkpt>
      <trkpt lat="45.04254" lon="6.05917">
        <ele>731.4</ele>
        <time>2024-08-14T15:16:59Z</time>
      </trkpt>
      <trkpt lat="45.04254" lon="6.05917">
        <ele>731.4</ele>
        <time>2024-08-14T15:17:00Z</time>
      </trkpt>
      <trkpt lat="45.04257" lon="6.05915">
        <ele>731.4</ele>
        <time>2024-08-14T15:17:01Z</time>
      </trkpt>
      <trkpt lat="45.04257" lon="6.05915">
        <ele>731.4</ele>
        <time>2024-08-14T15:17:02Z</time>
      </trkpt>
      <trkpt lat="45.0426" lon="6.05914">
        <ele>731.4</ele>
        <time>2024-08-14T15:17:03Z</time>
      </trkpt>
      <trkpt lat="45.0426" lon="6.05914">
        <ele>732</ele>
        <time>2024-08-14T15:17:04Z</time>
      </trkpt>
      <trkpt lat="45.04262" lon="6.05911">
        <ele>732</ele>
        <time>2024-08-14T15:17:05Z</time>
      </trkpt>
      <trkpt lat="45.04264" lon="6.0591">
        <ele>731.8</ele>
        <time>2024-08-14T15:17:06Z</time>
      </trkpt>
      <trkpt lat="45.04264" lon="6.0591">
        <ele>731.8</ele>
        <time>2024-08-14T15:17:07Z</time>
      </trkpt>
      <trkpt lat="45.04266" lon="6.05907">
        <ele>731.8</ele>
        <time>2024-08-14T15:17:08Z</time>
      </trkpt>
      <trkpt lat="45.04266" lon="6.05907">
        <ele>731.8</ele>
        <time>2024-08-14T15:17:09Z</time>
      </trkpt>
      <trkpt lat="45.04268" lon="6.05904">
        <ele>731.6</ele>
        <time>2024-08-14T15:17:10Z</time>
      </trkpt>
      <trkpt lat="45.04268" lon="6.05904">
        <ele>731.6</ele>
        <time>2024-08-14T15:17:11Z</time>
      </trkpt>
      <trkpt lat="45.0427" lon="6.05902">
        <ele>731.6</ele>
        <time>2024-08-14T15:17:12Z</time>
      </trkpt>
      <trkpt lat="45.04272" lon="6.05901">
        <ele>731.4</ele>
        <time>2024-08-14T15:17:13Z</time>
      </trkpt>
      <trkpt lat="45.04272" lon="6.05901">
        <ele>731.4</ele>
        <time>2024-08-14T15:17:14Z</time>
      </trkpt>
      <trkpt lat="45.04274" lon="6.05899">
        <ele>731.2</ele>
        <time>2024-08-14T15:17:15Z</time>
      </trkpt>
      <trkpt lat="45.04274" lon="6.05899">
        <ele>731.2</ele>
        <time>2024-08-14T15:17:16Z</time>
      </trkpt>
      <trkpt lat="45.04277" lon="6.05897">
        <ele>731.2</ele>
        <time>2024-08-14T15:17:17Z</time>
      </trkpt>
      <trkpt lat="45.04277" lon="6.05895">
        <ele>731.2</ele>
        <time>2024-08-14T15:17:18Z</time>
      </trkpt>
      <trkpt lat="45.04279" lon="6.05894">
        <ele>731.2</ele>
        <time>2024-08-14T15:17:19Z</time>
      </trkpt>
      <trkpt lat="45.04279" lon="6.05894">
        <ele>731.2</ele>
        <time>2024-08-14T15:17:20Z</time>
      </trkpt>
      <trkpt lat="45.04282" lon="6.05892">
        <ele>731.2</ele>
        <time>2024-08-14T15:17:21Z</time>
      </trkpt>
      <trkpt lat="45.04282" lon="6.05892">
        <ele>731.2</ele>
        <time>2024-08-14T15:17:22Z</time>
      </trkpt>
      <trkpt lat="45.04285" lon="6.0589">
        <ele>731.2</ele>
        <time>2024-08-14T15:17:23Z</time>
      </trkpt>
      <trkpt lat="45.04285" lon="6.0589">
        <ele>731.2</ele>
        <time>2024-08-14T15:17:24Z</time>
      </trkpt>
      <trkpt lat="45.04287" lon="6.05888">
        <ele>731.2</ele>
        <time>2024-08-14T15:17:25Z</time>
      </trkpt>
      <trkpt lat="45.04287" lon="6.05888">
        <ele>731.2</ele>
        <time>2024-08-14T15:17:26Z</time>
      </trkpt>
      <trkpt lat="45.04289" lon="6.05886">
        <ele>731.2</ele>
        <time>2024-08-14T15:17:27Z</time>
      </trkpt>
      <trkpt lat="45.04289" lon="6.05886">
        <ele>731.2</ele>
        <time>2024-08-14T15:17:28Z</time>
      </trkpt>
      <trkpt lat="45.04292" lon="6.05884">
        <ele>731.2</ele>
        <time>2024-08-14T15:17:29Z</time>
      </trkpt>
      <trkpt lat="45.04294" lon="6.05883">
        <ele>731</ele>
        <time>2024-08-14T15:17:30Z</time>
      </trkpt>
      <trkpt lat="45.04294" lon="6.05883">
        <ele>731</ele>
        <time>2024-08-14T15:17:31Z</time>
      </trkpt>
      <trkpt lat="45.04297" lon="6.05881">
        <ele>730.8</ele>
        <time>2024-08-14T15:17:32Z</time>
      </trkpt>
      <trkpt lat="45.04297" lon="6.05881">
        <ele>730.8</ele>
        <time>2024-08-14T15:17:33Z</time>
      </trkpt>
      <trkpt lat="45.04299" lon="6.05879">
        <ele>731</ele>
        <time>2024-08-14T15:17:34Z</time>
      </trkpt>
      <trkpt lat="45.04299" lon="6.05879">
        <ele>731.2</ele>
        <time>2024-08-14T15:17:35Z</time>
      </trkpt>
      <trkpt lat="45.04301" lon="6.05875">
        <ele>731.2</ele>
        <time>2024-08-14T15:17:36Z</time>
      </trkpt>
      <trkpt lat="45.04301" lon="6.05875">
        <ele>731.2</ele>
        <time>2024-08-14T15:17:37Z</time>
      </trkpt>
      <trkpt lat="45.04304" lon="6.05873">
        <ele>731</ele>
        <time>2024-08-14T15:17:38Z</time>
      </trkpt>
      <trkpt lat="45.04304" lon="6.05873">
        <ele>731</ele>
        <time>2024-08-14T15:17:39Z</time>
      </trkpt>
      <trkpt lat="45.04305" lon="6.0587">
        <ele>731</ele>
        <time>2024-08-14T15:17:40Z</time>
      </trkpt>
      <trkpt lat="45.04305" lon="6.0587">
        <ele>731</ele>
        <time>2024-08-14T15:17:41Z</time>
      </trkpt>
      <trkpt lat="45.04308" lon="6.05868">
        <ele>731.2</ele>
        <time>2024-08-14T15:17:42Z</time>
      </trkpt>
      <trkpt lat="45.04308" lon="6.05868">
        <ele>731</ele>
        <time>2024-08-14T15:17:43Z</time>
      </trkpt>
      <trkpt lat="45.0431" lon="6.05866">
        <ele>731</ele>
        <time>2024-08-14T15:17:44Z</time>
      </trkpt>
      <trkpt lat="45.0431" lon="6.05866">
        <ele>731</ele>
        <time>2024-08-14T15:17:45Z</time>
      </trkpt>
      <trkpt lat="45.04313" lon="6.05864">
        <ele>731</ele>
        <time>2024-08-14T15:17:46Z</time>
      </trkpt>
      <trkpt lat="45.04313" lon="6.05864">
        <ele>731</ele>
        <time>2024-08-14T15:17:47Z</time>
      </trkpt>
      <trkpt lat="45.04315" lon="6.05862">
        <ele>730.8</ele>
        <time>2024-08-14T15:17:48Z</time>
      </trkpt>
      <trkpt lat="45.04315" lon="6.05862">
        <ele>730.8</ele>
        <time>2024-08-14T15:17:49Z</time>
      </trkpt>
      <trkpt lat="45.04318" lon="6.05861">
        <ele>730.8</ele>
        <time>2024-08-14T15:17:50Z</time>
      </trkpt>
      <trkpt lat="45.04318" lon="6.05861">
        <ele>730.8</ele>
        <time>2024-08-14T15:17:51Z</time>
      </trkpt>
      <trkpt lat="45.04321" lon="6.05859">
        <ele>730.8</ele>
        <time>2024-08-14T15:17:52Z</time>
      </trkpt>
      <trkpt lat="45.04321" lon="6.05859">
        <ele>730.8</ele>
        <time>2024-08-14T15:17:53Z</time>
      </trkpt>
      <trkpt lat="45.04323" lon="6.05856">
        <ele>731</ele>
        <time>2024-08-14T15:17:54Z</time>
      </trkpt>
      <trkpt lat="45.04323" lon="6.05856">
        <ele>731</ele>
        <time>2024-08-14T15:17:55Z</time>
      </trkpt>
      <trkpt lat="45.04326" lon="6.05855">
        <ele>731</ele>
        <time>2024-08-14T15:17:56Z</time>
      </trkpt>
      <trkpt lat="45.04326" lon="6.05855">
        <ele>730.6</ele>
        <time>2024-08-14T15:17:57Z</time>
      </trkpt>
      <trkpt lat="45.04329" lon="6.05853">
        <ele>730.6</ele>
        <time>2024-08-14T15:17:58Z</time>
      </trkpt>
      <trkpt lat="45.04329" lon="6.05853">
        <ele>730.8</ele>
        <time>2024-08-14T15:17:59Z</time>
      </trkpt>
      <trkpt lat="45.04331" lon="6.05851">
        <ele>730.8</ele>
        <time>2024-08-14T15:18:00Z</time>
      </trkpt>
      <trkpt lat="45.04331" lon="6.05851">
        <ele>731</ele>
        <time>2024-08-14T15:18:01Z</time>
      </trkpt>
      <trkpt lat="45.04334" lon="6.05849">
        <ele>730.6</ele>
        <time>2024-08-14T15:18:02Z</time>
      </trkpt>
      <trkpt lat="45.04334" lon="6.05849">
        <ele>730.6</ele>
        <time>2024-08-14T15:18:03Z</time>
      </trkpt>
      <trkpt lat="45.04336" lon="6.05847">
        <ele>730.8</ele>
        <time>2024-08-14T15:18:04Z</time>
      </trkpt>
      <trkpt lat="45.04336" lon="6.05847">
        <ele>730.8</ele>
        <time>2024-08-14T15:18:05Z</time>
      </trkpt>
      <trkpt lat="45.04336" lon="6.05847">
        <ele>730.8</ele>
        <time>2024-08-14T15:18:06Z</time>
      </trkpt>
      <trkpt lat="45.04336" lon="6.05847">
        <ele>730.6</ele>
        <time>2024-08-14T15:18:07Z</time>
      </trkpt>
      <trkpt lat="45.04338" lon="6.05844">
        <ele>730.8</ele>
        <time>2024-08-14T15:18:08Z</time>
      </trkpt>
      <trkpt lat="45.04338" lon="6.05844">
        <ele>730.6</ele>
        <time>2024-08-14T15:18:09Z</time>
      </trkpt>
      <trkpt lat="45.0434" lon="6.05842">
        <ele>730.4</ele>
        <time>2024-08-14T15:18:10Z</time>
      </trkpt>
      <trkpt lat="45.0434" lon="6.05842">
        <ele>730.4</ele>
        <time>2024-08-14T15:18:11Z</time>
      </trkpt>
      <trkpt lat="45.04343" lon="6.0584">
        <ele>730.6</ele>
        <time>2024-08-14T15:18:12Z</time>
      </trkpt>
      <trkpt lat="45.04344" lon="6.05839">
        <ele>730.6</ele>
        <time>2024-08-14T15:18:13Z</time>
      </trkpt>
      <trkpt lat="45.04344" lon="6.05839">
        <ele>730.4</ele>
        <time>2024-08-14T15:18:14Z</time>
      </trkpt>
      <trkpt lat="45.04347" lon="6.05836">
        <ele>730.4</ele>
        <time>2024-08-14T15:18:15Z</time>
      </trkpt>
      <trkpt lat="45.04347" lon="6.05836">
        <ele>730.4</ele>
        <time>2024-08-14T15:18:16Z</time>
      </trkpt>
      <trkpt lat="45.04349" lon="6.05834">
        <ele>730.6</ele>
        <time>2024-08-14T15:18:17Z</time>
      </trkpt>
      <trkpt lat="45.04349" lon="6.05834">
        <ele>730.6</ele>
        <time>2024-08-14T15:18:18Z</time>
      </trkpt>
      <trkpt lat="45.04351" lon="6.05831">
        <ele>730.6</ele>
        <time>2024-08-14T15:18:19Z</time>
      </trkpt>
      <trkpt lat="45.04351" lon="6.05831">
        <ele>730.6</ele>
        <time>2024-08-14T15:18:20Z</time>
      </trkpt>
      <trkpt lat="45.04354" lon="6.05829">
        <ele>730.4</ele>
        <time>2024-08-14T15:18:21Z</time>
      </trkpt>
      <trkpt lat="45.04354" lon="6.05829">
        <ele>730.4</ele>
        <time>2024-08-14T15:18:22Z</time>
      </trkpt>
      <trkpt lat="45.04357" lon="6.05827">
        <ele>730.6</ele>
        <time>2024-08-14T15:18:23Z</time>
      </trkpt>
      <trkpt lat="45.04357" lon="6.05827">
        <ele>730.6</ele>
        <time>2024-08-14T15:18:24Z</time>
      </trkpt>
      <trkpt lat="45.04359" lon="6.05825">
        <ele>730.6</ele>
        <time>2024-08-14T15:18:25Z</time>
      </trkpt>
      <trkpt lat="45.04359" lon="6.05825">
        <ele>730.4</ele>
        <time>2024-08-14T15:18:26Z</time>
      </trkpt>
      <trkpt lat="45.04361" lon="6.05823">
        <ele>730.4</ele>
        <time>2024-08-14T15:18:27Z</time>
      </trkpt>
      <trkpt lat="45.04361" lon="6.05823">
        <ele>730.6</ele>
        <time>2024-08-14T15:18:28Z</time>
      </trkpt>
      <trkpt lat="45.04363" lon="6.0582">
        <ele>730.6</ele>
        <time>2024-08-14T15:18:29Z</time>
      </trkpt>
      <trkpt lat="45.04363" lon="6.0582">
        <ele>730.4</ele>
        <time>2024-08-14T15:18:30Z</time>
      </trkpt>
      <trkpt lat="45.04365" lon="6.05818">
        <ele>730.4</ele>
        <time>2024-08-14T15:18:31Z</time>
      </trkpt>
      <trkpt lat="45.04365" lon="6.05818">
        <ele>730.6</ele>
        <time>2024-08-14T15:18:32Z</time>
      </trkpt>
      <trkpt lat="45.04368" lon="6.05815">
        <ele>730.6</ele>
        <time>2024-08-14T15:18:33Z</time>
      </trkpt>
      <trkpt lat="45.04368" lon="6.05815">
        <ele>730.6</ele>
        <time>2024-08-14T15:18:34Z</time>
      </trkpt>
      <trkpt lat="45.0437" lon="6.05813">
        <ele>730.4</ele>
        <time>2024-08-14T15:18:35Z</time>
      </trkpt>
      <trkpt lat="45.0437" lon="6.05813">
        <ele>730.4</ele>
        <time>2024-08-14T15:18:36Z</time>
      </trkpt>
      <trkpt lat="45.04373" lon="6.05811">
        <ele>730.4</ele>
        <time>2024-08-14T15:18:37Z</time>
      </trkpt>
      <trkpt lat="45.04373" lon="6.05811">
        <ele>730.4</ele>
        <time>2024-08-14T15:18:38Z</time>
      </trkpt>
      <trkpt lat="45.04375" lon="6.05808">
        <ele>730.4</ele>
        <time>2024-08-14T15:18:39Z</time>
      </trkpt>
      <trkpt lat="45.04375" lon="6.05808">
        <ele>730.6</ele>
        <time>2024-08-14T15:18:40Z</time>
      </trkpt>
      <trkpt lat="45.04379" lon="6.05806">
        <ele>730.6</ele>
        <time>2024-08-14T15:18:41Z</time>
      </trkpt>
      <trkpt lat="45.04379" lon="6.05806">
        <ele>730.6</ele>
        <time>2024-08-14T15:18:42Z</time>
      </trkpt>
      <trkpt lat="45.04381" lon="6.05804">
        <ele>730.6</ele>
        <time>2024-08-14T15:18:43Z</time>
      </trkpt>
      <trkpt lat="45.04381" lon="6.05804">
        <ele>730.6</ele>
        <time>2024-08-14T15:18:44Z</time>
      </trkpt>
      <trkpt lat="45.04384" lon="6.05802">
        <ele>730.6</ele>
        <time>2024-08-14T15:18:45Z</time>
      </trkpt>
      <trkpt lat="45.04384" lon="6.05802">
        <ele>730.6</ele>
        <time>2024-08-14T15:18:46Z</time>
      </trkpt>
      <trkpt lat="45.04386" lon="6.05799">
        <ele>730.6</ele>
        <time>2024-08-14T15:18:47Z</time>
      </trkpt>
      <trkpt lat="45.04386" lon="6.05799">
        <ele>730.6</ele>
        <time>2024-08-14T15:18:48Z</time>
      </trkpt>
      <trkpt lat="45.04386" lon="6.05799">
        <ele>730.6</ele>
        <time>2024-08-14T15:18:49Z</time>
      </trkpt>
      <trkpt lat="45.0439" lon="6.05796">
        <ele>730.6</ele>
        <time>2024-08-14T15:18:50Z</time>
      </trkpt>
      <trkpt lat="45.04391" lon="6.05794">
        <ele>730.6</ele>
        <time>2024-08-14T15:18:51Z</time>
      </trkpt>
      <trkpt lat="45.04391" lon="6.05794">
        <ele>730.6</ele>
        <time>2024-08-14T15:18:52Z</time>
      </trkpt>
      <trkpt lat="45.04394" lon="6.05792">
        <ele>730.4</ele>
        <time>2024-08-14T15:18:53Z</time>
      </trkpt>
      <trkpt lat="45.04394" lon="6.05792">
        <ele>730.4</ele>
        <time>2024-08-14T15:18:54Z</time>
      </trkpt>
      <trkpt lat="45.04397" lon="6.0579">
        <ele>730.4</ele>
        <time>2024-08-14T15:18:55Z</time>
      </trkpt>
      <trkpt lat="45.04397" lon="6.0579">
        <ele>730.4</ele>
        <time>2024-08-14T15:18:56Z</time>
      </trkpt>
      <trkpt lat="45.04399" lon="6.05788">
        <ele>730.4</ele>
        <time>2024-08-14T15:18:57Z</time>
      </trkpt>
      <trkpt lat="45.04399" lon="6.05788">
        <ele>730.2</ele>
        <time>2024-08-14T15:18:58Z</time>
      </trkpt>
      <trkpt lat="45.04401" lon="6.05786">
        <ele>730.2</ele>
        <time>2024-08-14T15:18:59Z</time>
      </trkpt>
      <trkpt lat="45.04401" lon="6.05786">
        <ele>730.2</ele>
        <time>2024-08-14T15:19:00Z</time>
      </trkpt>
      <trkpt lat="45.04404" lon="6.05783">
        <ele>730.2</ele>
        <time>2024-08-14T15:19:01Z</time>
      </trkpt>
      <trkpt lat="45.04404" lon="6.05783">
        <ele>730.4</ele>
        <time>2024-08-14T15:19:02Z</time>
      </trkpt>
      <trkpt lat="45.04406" lon="6.05781">
        <ele>730.4</ele>
        <time>2024-08-14T15:19:03Z</time>
      </trkpt>
      <trkpt lat="45.04406" lon="6.05781">
        <ele>730.4</ele>
        <time>2024-08-14T15:19:04Z</time>
      </trkpt>
      <trkpt lat="45.04409" lon="6.05778">
        <ele>730.4</ele>
        <time>2024-08-14T15:19:05Z</time>
      </trkpt>
      <trkpt lat="45.04409" lon="6.05778">
        <ele>730.4</ele>
        <time>2024-08-14T15:19:06Z</time>
      </trkpt>
      <trkpt lat="45.04411" lon="6.05776">
        <ele>730.4</ele>
        <time>2024-08-14T15:19:07Z</time>
      </trkpt>
      <trkpt lat="45.04411" lon="6.05776">
        <ele>730.4</ele>
        <time>2024-08-14T15:19:08Z</time>
      </trkpt>
      <trkpt lat="45.04414" lon="6.05774">
        <ele>730.2</ele>
        <time>2024-08-14T15:19:09Z</time>
      </trkpt>
      <trkpt lat="45.04414" lon="6.05774">
        <ele>730.2</ele>
        <time>2024-08-14T15:19:10Z</time>
      </trkpt>
      <trkpt lat="45.04416" lon="6.05772">
        <ele>730.2</ele>
        <time>2024-08-14T15:19:11Z</time>
      </trkpt>
      <trkpt lat="45.04416" lon="6.05772">
        <ele>730.2</ele>
        <time>2024-08-14T15:19:12Z</time>
      </trkpt>
      <trkpt lat="45.04419" lon="6.0577">
        <ele>730.2</ele>
        <time>2024-08-14T15:19:13Z</time>
      </trkpt>
      <trkpt lat="45.04419" lon="6.0577">
        <ele>730.2</ele>
        <time>2024-08-14T15:19:14Z</time>
      </trkpt>
      <trkpt lat="45.04421" lon="6.05768">
        <ele>730.4</ele>
        <time>2024-08-14T15:19:15Z</time>
      </trkpt>
      <trkpt lat="45.04423" lon="6.05766">
        <ele>730.4</ele>
        <time>2024-08-14T15:19:16Z</time>
      </trkpt>
      <trkpt lat="45.04423" lon="6.05766">
        <ele>730.2</ele>
        <time>2024-08-14T15:19:17Z</time>
      </trkpt>
      <trkpt lat="45.04425" lon="6.05764">
        <ele>730.2</ele>
        <time>2024-08-14T15:19:18Z</time>
      </trkpt>
      <trkpt lat="45.04426" lon="6.05762">
        <ele>730.2</ele>
        <time>2024-08-14T15:19:19Z</time>
      </trkpt>
      <trkpt lat="45.04426" lon="6.05762">
        <ele>730.2</ele>
        <time>2024-08-14T15:19:20Z</time>
      </trkpt>
      <trkpt lat="45.04429" lon="6.0576">
        <ele>730</ele>
        <time>2024-08-14T15:19:21Z</time>
      </trkpt>
      <trkpt lat="45.04429" lon="6.0576">
        <ele>730</ele>
        <time>2024-08-14T15:19:22Z</time>
      </trkpt>
      <trkpt lat="45.04431" lon="6.05757">
        <ele>730</ele>
        <time>2024-08-14T15:19:23Z</time>
      </trkpt>
      <trkpt lat="45.04431" lon="6.05757">
        <ele>730</ele>
        <time>2024-08-14T15:19:24Z</time>
      </trkpt>
      <trkpt lat="45.04434" lon="6.05756">
        <ele>729.8</ele>
        <time>2024-08-14T15:19:25Z</time>
      </trkpt>
      <trkpt lat="45.04434" lon="6.05756">
        <ele>729.8</ele>
        <time>2024-08-14T15:19:26Z</time>
      </trkpt>
      <trkpt lat="45.04437" lon="6.05753">
        <ele>729.8</ele>
        <time>2024-08-14T15:19:27Z</time>
      </trkpt>
      <trkpt lat="45.04437" lon="6.05753">
        <ele>730.2</ele>
        <time>2024-08-14T15:19:28Z</time>
      </trkpt>
      <trkpt lat="45.04439" lon="6.0575">
        <ele>730.2</ele>
        <time>2024-08-14T15:19:29Z</time>
      </trkpt>
      <trkpt lat="45.04439" lon="6.0575">
        <ele>730.2</ele>
        <time>2024-08-14T15:19:30Z</time>
      </trkpt>
      <trkpt lat="45.04442" lon="6.05748">
        <ele>730.2</ele>
        <time>2024-08-14T15:19:31Z</time>
      </trkpt>
      <trkpt lat="45.04442" lon="6.05748">
        <ele>730.2</ele>
        <time>2024-08-14T15:19:32Z</time>
      </trkpt>
      <trkpt lat="45.04444" lon="6.05747">
        <ele>730.2</ele>
        <time>2024-08-14T15:19:33Z</time>
      </trkpt>
      <trkpt lat="45.04444" lon="6.05747">
        <ele>730.2</ele>
        <time>2024-08-14T15:19:34Z</time>
      </trkpt>
      <trkpt lat="45.04446" lon="6.05745">
        <ele>730.4</ele>
        <time>2024-08-14T15:19:35Z</time>
      </trkpt>
      <trkpt lat="45.04446" lon="6.05745">
        <ele>730.4</ele>
        <time>2024-08-14T15:19:36Z</time>
      </trkpt>
      <trkpt lat="45.04449" lon="6.05742">
        <ele>730.2</ele>
        <time>2024-08-14T15:19:37Z</time>
      </trkpt>
      <trkpt lat="45.04449" lon="6.05742">
        <ele>730.2</ele>
        <time>2024-08-14T15:19:38Z</time>
      </trkpt>
      <trkpt lat="45.04452" lon="6.05741">
        <ele>730</ele>
        <time>2024-08-14T15:19:39Z</time>
      </trkpt>
      <trkpt lat="45.04452" lon="6.05741">
        <ele>730</ele>
        <time>2024-08-14T15:19:40Z</time>
      </trkpt>
      <trkpt lat="45.04454" lon="6.05738">
        <ele>730.2</ele>
        <time>2024-08-14T15:19:41Z</time>
      </trkpt>
      <trkpt lat="45.04454" lon="6.05738">
        <ele>730.2</ele>
        <time>2024-08-14T15:19:42Z</time>
      </trkpt>
      <trkpt lat="45.04454" lon="6.05738">
        <ele>730.2</ele>
        <time>2024-08-14T15:19:43Z</time>
      </trkpt>
      <trkpt lat="45.04458" lon="6.05735">
        <ele>730.2</ele>
        <time>2024-08-14T15:19:44Z</time>
      </trkpt>
      <trkpt lat="45.0446" lon="6.05734">
        <ele>730.2</ele>
        <time>2024-08-14T15:19:45Z</time>
      </trkpt>
      <trkpt lat="45.0446" lon="6.05734">
        <ele>730.2</ele>
        <time>2024-08-14T15:19:46Z</time>
      </trkpt>
      <trkpt lat="45.04462" lon="6.05732">
        <ele>730.2</ele>
        <time>2024-08-14T15:19:47Z</time>
      </trkpt>
      <trkpt lat="45.04464" lon="6.05731">
        <ele>730.2</ele>
        <time>2024-08-14T15:19:48Z</time>
      </trkpt>
      <trkpt lat="45.04464" lon="6.05731">
        <ele>730.2</ele>
        <time>2024-08-14T15:19:49Z</time>
      </trkpt>
      <trkpt lat="45.04467" lon="6.05728">
        <ele>730</ele>
        <time>2024-08-14T15:19:50Z</time>
      </trkpt>
      <trkpt lat="45.04467" lon="6.05728">
        <ele>730</ele>
        <time>2024-08-14T15:19:51Z</time>
      </trkpt>
      <trkpt lat="45.04467" lon="6.05728">
        <ele>730.2</ele>
        <time>2024-08-14T15:19:52Z</time>
      </trkpt>
      <trkpt lat="45.0447" lon="6.05725">
        <ele>730.2</ele>
        <time>2024-08-14T15:19:53Z</time>
      </trkpt>
      <trkpt lat="45.04471" lon="6.05724">
        <ele>730</ele>
        <time>2024-08-14T15:19:54Z</time>
      </trkpt>
      <trkpt lat="45.04471" lon="6.05724">
        <ele>730</ele>
        <time>2024-08-14T15:19:55Z</time>
      </trkpt>
      <trkpt lat="45.04474" lon="6.05722">
        <ele>729.8</ele>
        <time>2024-08-14T15:19:56Z</time>
      </trkpt>
      <trkpt lat="45.04474" lon="6.05722">
        <ele>729.8</ele>
        <time>2024-08-14T15:19:57Z</time>
      </trkpt>
      <trkpt lat="45.04476" lon="6.0572">
        <ele>729.8</ele>
        <time>2024-08-14T15:19:58Z</time>
      </trkpt>
      <trkpt lat="45.04476" lon="6.0572">
        <ele>729.8</ele>
        <time>2024-08-14T15:19:59Z</time>
      </trkpt>
      <trkpt lat="45.04479" lon="6.05718">
        <ele>730</ele>
        <time>2024-08-14T15:20:00Z</time>
      </trkpt>
      <trkpt lat="45.0448" lon="6.05717">
        <ele>730</ele>
        <time>2024-08-14T15:20:01Z</time>
      </trkpt>
      <trkpt lat="45.0448" lon="6.05717">
        <ele>730</ele>
        <time>2024-08-14T15:20:02Z</time>
      </trkpt>
      <trkpt lat="45.04483" lon="6.05714">
        <ele>730</ele>
        <time>2024-08-14T15:20:03Z</time>
      </trkpt>
      <trkpt lat="45.04483" lon="6.05714">
        <ele>730</ele>
        <time>2024-08-14T15:20:04Z</time>
      </trkpt>
      <trkpt lat="45.04485" lon="6.05712">
        <ele>729.8</ele>
        <time>2024-08-14T15:20:05Z</time>
      </trkpt>
      <trkpt lat="45.04485" lon="6.05712">
        <ele>729.8</ele>
        <time>2024-08-14T15:20:06Z</time>
      </trkpt>
      <trkpt lat="45.04488" lon="6.0571">
        <ele>729.8</ele>
        <time>2024-08-14T15:20:07Z</time>
      </trkpt>
      <trkpt lat="45.04488" lon="6.0571">
        <ele>729.8</ele>
        <time>2024-08-14T15:20:08Z</time>
      </trkpt>
      <trkpt lat="45.0449" lon="6.05707">
        <ele>729.8</ele>
        <time>2024-08-14T15:20:09Z</time>
      </trkpt>
      <trkpt lat="45.0449" lon="6.05707">
        <ele>729.8</ele>
        <time>2024-08-14T15:20:10Z</time>
      </trkpt>
      <trkpt lat="45.04493" lon="6.05705">
        <ele>729.8</ele>
        <time>2024-08-14T15:20:11Z</time>
      </trkpt>
      <trkpt lat="45.04493" lon="6.05705">
        <ele>729.8</ele>
        <time>2024-08-14T15:20:12Z</time>
      </trkpt>
      <trkpt lat="45.04493" lon="6.05705">
        <ele>729.6</ele>
        <time>2024-08-14T15:20:13Z</time>
      </trkpt>
      <trkpt lat="45.04496" lon="6.05701">
        <ele>729.6</ele>
        <time>2024-08-14T15:20:14Z</time>
      </trkpt>
      <trkpt lat="45.04498" lon="6.057">
        <ele>729.8</ele>
        <time>2024-08-14T15:20:15Z</time>
      </trkpt>
      <trkpt lat="45.04498" lon="6.057">
        <ele>729.8</ele>
        <time>2024-08-14T15:20:16Z</time>
      </trkpt>
      <trkpt lat="45.045" lon="6.05698">
        <ele>729.8</ele>
        <time>2024-08-14T15:20:17Z</time>
      </trkpt>
      <trkpt lat="45.045" lon="6.05698">
        <ele>729.8</ele>
        <time>2024-08-14T15:20:18Z</time>
      </trkpt>
      <trkpt lat="45.04503" lon="6.05696">
        <ele>729.8</ele>
        <time>2024-08-14T15:20:19Z</time>
      </trkpt>
      <trkpt lat="45.04503" lon="6.05696">
        <ele>729.6</ele>
        <time>2024-08-14T15:20:20Z</time>
      </trkpt>
      <trkpt lat="45.04506" lon="6.05694">
        <ele>729.6</ele>
        <time>2024-08-14T15:20:21Z</time>
      </trkpt>
      <trkpt lat="45.04507" lon="6.05693">
        <ele>729.6</ele>
        <time>2024-08-14T15:20:22Z</time>
      </trkpt>
      <trkpt lat="45.04507" lon="6.05693">
        <ele>729.6</ele>
        <time>2024-08-14T15:20:23Z</time>
      </trkpt>
      <trkpt lat="45.04509" lon="6.05691">
        <ele>729.6</ele>
        <time>2024-08-14T15:20:24Z</time>
      </trkpt>
      <trkpt lat="45.04509" lon="6.05691">
        <ele>729.6</ele>
        <time>2024-08-14T15:20:25Z</time>
      </trkpt>
      <trkpt lat="45.04512" lon="6.05689">
        <ele>729.6</ele>
        <time>2024-08-14T15:20:26Z</time>
      </trkpt>
      <trkpt lat="45.04512" lon="6.05689">
        <ele>729.8</ele>
        <time>2024-08-14T15:20:27Z</time>
      </trkpt>
      <trkpt lat="45.04515" lon="6.05687">
        <ele>729.6</ele>
        <time>2024-08-14T15:20:28Z</time>
      </trkpt>
      <trkpt lat="45.04515" lon="6.05687">
        <ele>729.6</ele>
        <time>2024-08-14T15:20:29Z</time>
      </trkpt>
      <trkpt lat="45.04517" lon="6.05684">
        <ele>729.6</ele>
        <time>2024-08-14T15:20:30Z</time>
      </trkpt>
      <trkpt lat="45.04517" lon="6.05684">
        <ele>729.6</ele>
        <time>2024-08-14T15:20:31Z</time>
      </trkpt>
      <trkpt lat="45.0452" lon="6.05682">
        <ele>729.6</ele>
        <time>2024-08-14T15:20:32Z</time>
      </trkpt>
      <trkpt lat="45.0452" lon="6.05682">
        <ele>729.6</ele>
        <time>2024-08-14T15:20:33Z</time>
      </trkpt>
      <trkpt lat="45.04522" lon="6.0568">
        <ele>729.8</ele>
        <time>2024-08-14T15:20:34Z</time>
      </trkpt>
      <trkpt lat="45.04522" lon="6.0568">
        <ele>729.8</ele>
        <time>2024-08-14T15:20:35Z</time>
      </trkpt>
      <trkpt lat="45.04525" lon="6.05678">
        <ele>729.8</ele>
        <time>2024-08-14T15:20:36Z</time>
      </trkpt>
      <trkpt lat="45.04525" lon="6.05678">
        <ele>729.8</ele>
        <time>2024-08-14T15:20:37Z</time>
      </trkpt>
      <trkpt lat="45.04526" lon="6.05675">
        <ele>729.8</ele>
        <time>2024-08-14T15:20:38Z</time>
      </trkpt>
      <trkpt lat="45.04526" lon="6.05675">
        <ele>729.6</ele>
        <time>2024-08-14T15:20:39Z</time>
      </trkpt>
      <trkpt lat="45.04529" lon="6.05673">
        <ele>729.6</ele>
        <time>2024-08-14T15:20:40Z</time>
      </trkpt>
      <trkpt lat="45.04529" lon="6.05673">
        <ele>729.6</ele>
        <time>2024-08-14T15:20:41Z</time>
      </trkpt>
      <trkpt lat="45.04532" lon="6.0567">
        <ele>729.6</ele>
        <time>2024-08-14T15:20:42Z</time>
      </trkpt>
      <trkpt lat="45.04532" lon="6.0567">
        <ele>729.6</ele>
        <time>2024-08-14T15:20:43Z</time>
      </trkpt>
      <trkpt lat="45.04534" lon="6.05669">
        <ele>729.8</ele>
        <time>2024-08-14T15:20:44Z</time>
      </trkpt>
      <trkpt lat="45.04534" lon="6.05669">
        <ele>729.8</ele>
        <time>2024-08-14T15:20:45Z</time>
      </trkpt>
      <trkpt lat="45.04537" lon="6.05666">
        <ele>729.6</ele>
        <time>2024-08-14T15:20:46Z</time>
      </trkpt>
      <trkpt lat="45.04537" lon="6.05666">
        <ele>729.6</ele>
        <time>2024-08-14T15:20:47Z</time>
      </trkpt>
      <trkpt lat="45.04539" lon="6.05663">
        <ele>729.6</ele>
        <time>2024-08-14T15:20:48Z</time>
      </trkpt>
      <trkpt lat="45.04539" lon="6.05663">
        <ele>729.6</ele>
        <time>2024-08-14T15:20:49Z</time>
      </trkpt>
      <trkpt lat="45.04541" lon="6.05661">
        <ele>729.6</ele>
        <time>2024-08-14T15:20:50Z</time>
      </trkpt>
      <trkpt lat="45.04541" lon="6.05661">
        <ele>729.6</ele>
        <time>2024-08-14T15:20:51Z</time>
      </trkpt>
      <trkpt lat="45.04544" lon="6.05659">
        <ele>729.6</ele>
        <time>2024-08-14T15:20:52Z</time>
      </trkpt>
      <trkpt lat="45.04544" lon="6.05659">
        <ele>729.6</ele>
        <time>2024-08-14T15:20:53Z</time>
      </trkpt>
      <trkpt lat="45.04547" lon="6.05657">
        <ele>729.4</ele>
        <time>2024-08-14T15:20:54Z</time>
      </trkpt>
      <trkpt lat="45.04547" lon="6.05657">
        <ele>729.4</ele>
        <time>2024-08-14T15:20:55Z</time>
      </trkpt>
      <trkpt lat="45.04549" lon="6.05655">
        <ele>729.8</ele>
        <time>2024-08-14T15:20:56Z</time>
      </trkpt>
      <trkpt lat="45.04549" lon="6.05655">
        <ele>729.8</ele>
        <time>2024-08-14T15:20:57Z</time>
      </trkpt>
      <trkpt lat="45.04551" lon="6.05653">
        <ele>729.8</ele>
        <time>2024-08-14T15:20:58Z</time>
      </trkpt>
      <trkpt lat="45.04553" lon="6.05651">
        <ele>729.6</ele>
        <time>2024-08-14T15:20:59Z</time>
      </trkpt>
      <trkpt lat="45.04553" lon="6.05651">
        <ele>729.6</ele>
        <time>2024-08-14T15:21:00Z</time>
      </trkpt>
      <trkpt lat="45.04555" lon="6.05649">
        <ele>729.6</ele>
        <time>2024-08-14T15:21:01Z</time>
      </trkpt>
      <trkpt lat="45.04555" lon="6.05649">
        <ele>729.6</ele>
        <time>2024-08-14T15:21:02Z</time>
      </trkpt>
      <trkpt lat="45.04557" lon="6.05647">
        <ele>729.6</ele>
        <time>2024-08-14T15:21:03Z</time>
      </trkpt>
      <trkpt lat="45.04557" lon="6.05647">
        <ele>729.8</ele>
        <time>2024-08-14T15:21:04Z</time>
      </trkpt>
      <trkpt lat="45.0456" lon="6.05644">
        <ele>729.8</ele>
        <time>2024-08-14T15:21:05Z</time>
      </trkpt>
      <trkpt lat="45.0456" lon="6.05644">
        <ele>729.6</ele>
        <time>2024-08-14T15:21:06Z</time>
      </trkpt>
      <trkpt lat="45.04562" lon="6.05642">
        <ele>729.6</ele>
        <time>2024-08-14T15:21:07Z</time>
      </trkpt>
      <trkpt lat="45.04562" lon="6.05642">
        <ele>729.6</ele>
        <time>2024-08-14T15:21:08Z</time>
      </trkpt>
      <trkpt lat="45.04565" lon="6.05639">
        <ele>729.6</ele>
        <time>2024-08-14T15:21:09Z</time>
      </trkpt>
      <trkpt lat="45.04565" lon="6.05639">
        <ele>729.6</ele>
        <time>2024-08-14T15:21:10Z</time>
      </trkpt>
      <trkpt lat="45.04567" lon="6.05637">
        <ele>729.8</ele>
        <time>2024-08-14T15:21:11Z</time>
      </trkpt>
      <trkpt lat="45.04567" lon="6.05637">
        <ele>729.8</ele>
        <time>2024-08-14T15:21:12Z</time>
      </trkpt>
      <trkpt lat="45.04569" lon="6.05634">
        <ele>729.6</ele>
        <time>2024-08-14T15:21:13Z</time>
      </trkpt>
      <trkpt lat="45.04569" lon="6.05634">
        <ele>729.6</ele>
        <time>2024-08-14T15:21:14Z</time>
      </trkpt>
      <trkpt lat="45.04572" lon="6.05631">
        <ele>729.6</ele>
        <time>2024-08-14T15:21:15Z</time>
      </trkpt>
      <trkpt lat="45.04572" lon="6.05631">
        <ele>729.6</ele>
        <time>2024-08-14T15:21:16Z</time>
      </trkpt>
      <trkpt lat="45.04574" lon="6.05629">
        <ele>729.6</ele>
        <time>2024-08-14T15:21:17Z</time>
      </trkpt>
      <trkpt lat="45.04574" lon="6.05629">
        <ele>729.6</ele>
        <time>2024-08-14T15:21:18Z</time>
      </trkpt>
      <trkpt lat="45.04577" lon="6.05626">
        <ele>729.6</ele>
        <time>2024-08-14T15:21:19Z</time>
      </trkpt>
      <trkpt lat="45.04578" lon="6.05625">
        <ele>729.6</ele>
        <time>2024-08-14T15:21:20Z</time>
      </trkpt>
      <trkpt lat="45.04578" lon="6.05625">
        <ele>729.6</ele>
        <time>2024-08-14T15:21:21Z</time>
      </trkpt>
      <trkpt lat="45.0458" lon="6.05622">
        <ele>729.6</ele>
        <time>2024-08-14T15:21:22Z</time>
      </trkpt>
      <trkpt lat="45.0458" lon="6.05622">
        <ele>729.6</ele>
        <time>2024-08-14T15:21:23Z</time>
      </trkpt>
      <trkpt lat="45.04582" lon="6.05619">
        <ele>729.6</ele>
        <time>2024-08-14T15:21:24Z</time>
      </trkpt>
      <trkpt lat="45.04582" lon="6.05619">
        <ele>729.4</ele>
        <time>2024-08-14T15:21:25Z</time>
      </trkpt>
      <trkpt lat="45.04585" lon="6.05616">
        <ele>729.4</ele>
        <time>2024-08-14T15:21:26Z</time>
      </trkpt>
      <trkpt lat="45.04585" lon="6.05616">
        <ele>729.4</ele>
        <time>2024-08-14T15:21:27Z</time>
      </trkpt>
      <trkpt lat="45.04587" lon="6.05613">
        <ele>729.4</ele>
        <time>2024-08-14T15:21:28Z</time>
      </trkpt>
      <trkpt lat="45.04587" lon="6.05613">
        <ele>729.4</ele>
        <time>2024-08-14T15:21:29Z</time>
      </trkpt>
      <trkpt lat="45.04589" lon="6.0561">
        <ele>729.4</ele>
        <time>2024-08-14T15:21:30Z</time>
      </trkpt>
      <trkpt lat="45.04591" lon="6.05609">
        <ele>729.4</ele>
        <time>2024-08-14T15:21:31Z</time>
      </trkpt>
      <trkpt lat="45.04591" lon="6.05609">
        <ele>729.4</ele>
        <time>2024-08-14T15:21:32Z</time>
      </trkpt>
      <trkpt lat="45.04593" lon="6.05606">
        <ele>729.4</ele>
        <time>2024-08-14T15:21:33Z</time>
      </trkpt>
      <trkpt lat="45.04593" lon="6.05606">
        <ele>729.4</ele>
        <time>2024-08-14T15:21:34Z</time>
      </trkpt>
      <trkpt lat="45.04595" lon="6.05603">
        <ele>729.4</ele>
        <time>2024-08-14T15:21:35Z</time>
      </trkpt>
      <trkpt lat="45.04595" lon="6.05603">
        <ele>729.4</ele>
        <time>2024-08-14T15:21:36Z</time>
      </trkpt>
      <trkpt lat="45.04597" lon="6.056">
        <ele>729.4</ele>
        <time>2024-08-14T15:21:37Z</time>
      </trkpt>
      <trkpt lat="45.04597" lon="6.056">
        <ele>729.4</ele>
        <time>2024-08-14T15:21:38Z</time>
      </trkpt>
      <trkpt lat="45.04599" lon="6.05598">
        <ele>729.4</ele>
        <time>2024-08-14T15:21:39Z</time>
      </trkpt>
      <trkpt lat="45.04599" lon="6.05598">
        <ele>729.4</ele>
        <time>2024-08-14T15:21:40Z</time>
      </trkpt>
      <trkpt lat="45.04601" lon="6.05594">
        <ele>729.2</ele>
        <time>2024-08-14T15:21:41Z</time>
      </trkpt>
      <trkpt lat="45.04601" lon="6.05594">
        <ele>729.4</ele>
        <time>2024-08-14T15:21:42Z</time>
      </trkpt>
      <trkpt lat="45.04603" lon="6.05591">
        <ele>729.4</ele>
        <time>2024-08-14T15:21:43Z</time>
      </trkpt>
      <trkpt lat="45.04603" lon="6.05591">
        <ele>729.4</ele>
        <time>2024-08-14T15:21:44Z</time>
      </trkpt>
      <trkpt lat="45.04605" lon="6.05588">
        <ele>729.6</ele>
        <time>2024-08-14T15:21:45Z</time>
      </trkpt>
      <trkpt lat="45.04605" lon="6.05588">
        <ele>729.4</ele>
        <time>2024-08-14T15:21:46Z</time>
      </trkpt>
      <trkpt lat="45.04607" lon="6.05585">
        <ele>729.4</ele>
        <time>2024-08-14T15:21:47Z</time>
      </trkpt>
      <trkpt lat="45.04607" lon="6.05585">
        <ele>729.4</ele>
        <time>2024-08-14T15:21:48Z</time>
      </trkpt>
      <trkpt lat="45.04609" lon="6.05581">
        <ele>729.4</ele>
        <time>2024-08-14T15:21:49Z</time>
      </trkpt>
      <trkpt lat="45.04609" lon="6.05581">
        <ele>729.2</ele>
        <time>2024-08-14T15:21:50Z</time>
      </trkpt>
      <trkpt lat="45.04611" lon="6.05578">
        <ele>729.2</ele>
        <time>2024-08-14T15:21:51Z</time>
      </trkpt>
      <trkpt lat="45.04611" lon="6.05578">
        <ele>729.2</ele>
        <time>2024-08-14T15:21:52Z</time>
      </trkpt>
      <trkpt lat="45.04613" lon="6.05575">
        <ele>729.4</ele>
        <time>2024-08-14T15:21:53Z</time>
      </trkpt>
      <trkpt lat="45.04613" lon="6.05575">
        <ele>729.4</ele>
        <time>2024-08-14T15:21:54Z</time>
      </trkpt>
      <trkpt lat="45.04615" lon="6.05572">
        <ele>729.2</ele>
        <time>2024-08-14T15:21:55Z</time>
      </trkpt>
      <trkpt lat="45.04615" lon="6.05572">
        <ele>729</ele>
        <time>2024-08-14T15:21:56Z</time>
      </trkpt>
      <trkpt lat="45.04615" lon="6.05572">
        <ele>729</ele>
        <time>2024-08-14T15:21:57Z</time>
      </trkpt>
      <trkpt lat="45.04618" lon="6.05566">
        <ele>729.2</ele>
        <time>2024-08-14T15:21:58Z</time>
      </trkpt>
      <trkpt lat="45.04619" lon="6.05565">
        <ele>729.2</ele>
        <time>2024-08-14T15:21:59Z</time>
      </trkpt>
      <trkpt lat="45.04619" lon="6.05565">
        <ele>729.4</ele>
        <time>2024-08-14T15:22:00Z</time>
      </trkpt>
      <trkpt lat="45.04621" lon="6.05562">
        <ele>729.4</ele>
        <time>2024-08-14T15:22:01Z</time>
      </trkpt>
      <trkpt lat="45.04621" lon="6.05562">
        <ele>729</ele>
        <time>2024-08-14T15:22:02Z</time>
      </trkpt>
      <trkpt lat="45.04623" lon="6.05559">
        <ele>729</ele>
        <time>2024-08-14T15:22:03Z</time>
      </trkpt>
      <trkpt lat="45.04623" lon="6.05559">
        <ele>729.2</ele>
        <time>2024-08-14T15:22:04Z</time>
      </trkpt>
      <trkpt lat="45.04625" lon="6.05555">
        <ele>729.4</ele>
        <time>2024-08-14T15:22:05Z</time>
      </trkpt>
      <trkpt lat="45.04625" lon="6.05555">
        <ele>729.4</ele>
        <time>2024-08-14T15:22:06Z</time>
      </trkpt>
      <trkpt lat="45.04625" lon="6.05555">
        <ele>729.4</ele>
        <time>2024-08-14T15:22:07Z</time>
      </trkpt>
      <trkpt lat="45.04628" lon="6.0555">
        <ele>729.4</ele>
        <time>2024-08-14T15:22:08Z</time>
      </trkpt>
      <trkpt lat="45.04629" lon="6.05549">
        <ele>729.4</ele>
        <time>2024-08-14T15:22:09Z</time>
      </trkpt>
      <trkpt lat="45.04629" lon="6.05549">
        <ele>729.4</ele>
        <time>2024-08-14T15:22:10Z</time>
      </trkpt>
      <trkpt lat="45.04631" lon="6.05546">
        <ele>729.4</ele>
        <time>2024-08-14T15:22:11Z</time>
      </trkpt>
      <trkpt lat="45.04631" lon="6.05546">
        <ele>729.4</ele>
        <time>2024-08-14T15:22:12Z</time>
      </trkpt>
      <trkpt lat="45.04633" lon="6.05542">
        <ele>729.4</ele>
        <time>2024-08-14T15:22:13Z</time>
      </trkpt>
      <trkpt lat="45.04633" lon="6.05542">
        <ele>729.6</ele>
        <time>2024-08-14T15:22:14Z</time>
      </trkpt>
      <trkpt lat="45.04635" lon="6.05539">
        <ele>729.6</ele>
        <time>2024-08-14T15:22:15Z</time>
      </trkpt>
      <trkpt lat="45.04635" lon="6.05539">
        <ele>729.4</ele>
        <time>2024-08-14T15:22:16Z</time>
      </trkpt>
      <trkpt lat="45.04637" lon="6.05536">
        <ele>729.4</ele>
        <time>2024-08-14T15:22:17Z</time>
      </trkpt>
      <trkpt lat="45.04637" lon="6.05536">
        <ele>729.4</ele>
        <time>2024-08-14T15:22:18Z</time>
      </trkpt>
      <trkpt lat="45.04639" lon="6.05532">
        <ele>729.4</ele>
        <time>2024-08-14T15:22:19Z</time>
      </trkpt>
      <trkpt lat="45.04639" lon="6.05532">
        <ele>729.4</ele>
        <time>2024-08-14T15:22:20Z</time>
      </trkpt>
      <trkpt lat="45.0464" lon="6.0553">
        <ele>729.2</ele>
        <time>2024-08-14T15:22:21Z</time>
      </trkpt>
      <trkpt lat="45.0464" lon="6.0553">
        <ele>729.2</ele>
        <time>2024-08-14T15:22:22Z</time>
      </trkpt>
      <trkpt lat="45.04643" lon="6.05527">
        <ele>729.2</ele>
        <time>2024-08-14T15:22:23Z</time>
      </trkpt>
      <trkpt lat="45.04643" lon="6.05527">
        <ele>729</ele>
        <time>2024-08-14T15:22:24Z</time>
      </trkpt>
      <trkpt lat="45.04645" lon="6.05523">
        <ele>729</ele>
        <time>2024-08-14T15:22:25Z</time>
      </trkpt>
      <trkpt lat="45.04645" lon="6.05523">
        <ele>729</ele>
        <time>2024-08-14T15:22:26Z</time>
      </trkpt>
      <trkpt lat="45.04646" lon="6.0552">
        <ele>729.2</ele>
        <time>2024-08-14T15:22:27Z</time>
      </trkpt>
      <trkpt lat="45.04646" lon="6.0552">
        <ele>729.2</ele>
        <time>2024-08-14T15:22:28Z</time>
      </trkpt>
      <trkpt lat="45.04648" lon="6.05517">
        <ele>729</ele>
        <time>2024-08-14T15:22:29Z</time>
      </trkpt>
      <trkpt lat="45.04648" lon="6.05517">
        <ele>729</ele>
        <time>2024-08-14T15:22:30Z</time>
      </trkpt>
      <trkpt lat="45.0465" lon="6.05513">
        <ele>729</ele>
        <time>2024-08-14T15:22:31Z</time>
      </trkpt>
      <trkpt lat="45.0465" lon="6.05513">
        <ele>729</ele>
        <time>2024-08-14T15:22:32Z</time>
      </trkpt>
      <trkpt lat="45.04652" lon="6.0551">
        <ele>729</ele>
        <time>2024-08-14T15:22:33Z</time>
      </trkpt>
      <trkpt lat="45.04652" lon="6.0551">
        <ele>729</ele>
        <time>2024-08-14T15:22:34Z</time>
      </trkpt>
      <trkpt lat="45.04653" lon="6.05507">
        <ele>729</ele>
        <time>2024-08-14T15:22:35Z</time>
      </trkpt>
      <trkpt lat="45.04653" lon="6.05507">
        <ele>729</ele>
        <time>2024-08-14T15:22:36Z</time>
      </trkpt>
      <trkpt lat="45.04656" lon="6.05504">
        <ele>729</ele>
        <time>2024-08-14T15:22:37Z</time>
      </trkpt>
      <trkpt lat="45.04656" lon="6.05504">
        <ele>729</ele>
        <time>2024-08-14T15:22:38Z</time>
      </trkpt>
      <trkpt lat="45.04657" lon="6.05501">
        <ele>729</ele>
        <time>2024-08-14T15:22:39Z</time>
      </trkpt>
      <trkpt lat="45.04657" lon="6.05501">
        <ele>729.2</ele>
        <time>2024-08-14T15:22:40Z</time>
      </trkpt>
      <trkpt lat="45.04659" lon="6.05497">
        <ele>729.2</ele>
        <time>2024-08-14T15:22:41Z</time>
      </trkpt>
      <trkpt lat="45.04659" lon="6.05497">
        <ele>729.2</ele>
        <time>2024-08-14T15:22:42Z</time>
      </trkpt>
      <trkpt lat="45.04661" lon="6.05494">
        <ele>729.2</ele>
        <time>2024-08-14T15:22:43Z</time>
      </trkpt>
      <trkpt lat="45.04661" lon="6.05494">
        <ele>729.2</ele>
        <time>2024-08-14T15:22:44Z</time>
      </trkpt>
      <trkpt lat="45.04663" lon="6.05491">
        <ele>729</ele>
        <time>2024-08-14T15:22:45Z</time>
      </trkpt>
      <trkpt lat="45.04663" lon="6.05491">
        <ele>729</ele>
        <time>2024-08-14T15:22:46Z</time>
      </trkpt>
      <trkpt lat="45.04665" lon="6.05488">
        <ele>729.2</ele>
        <time>2024-08-14T15:22:47Z</time>
      </trkpt>
      <trkpt lat="45.04665" lon="6.05488">
        <ele>729.2</ele>
        <time>2024-08-14T15:22:48Z</time>
      </trkpt>
      <trkpt lat="45.04667" lon="6.05485">
        <ele>729.2</ele>
        <time>2024-08-14T15:22:49Z</time>
      </trkpt>
      <trkpt lat="45.04667" lon="6.05485">
        <ele>729.2</ele>
        <time>2024-08-14T15:22:50Z</time>
      </trkpt>
      <trkpt lat="45.04669" lon="6.05482">
        <ele>729.2</ele>
        <time>2024-08-14T15:22:51Z</time>
      </trkpt>
      <trkpt lat="45.04669" lon="6.05482">
        <ele>729.2</ele>
        <time>2024-08-14T15:22:52Z</time>
      </trkpt>
      <trkpt lat="45.04671" lon="6.05478">
        <ele>729</ele>
        <time>2024-08-14T15:22:53Z</time>
      </trkpt>
      <trkpt lat="45.04671" lon="6.05478">
        <ele>729</ele>
        <time>2024-08-14T15:22:54Z</time>
      </trkpt>
      <trkpt lat="45.04672" lon="6.05475">
        <ele>729</ele>
        <time>2024-08-14T15:22:55Z</time>
      </trkpt>
      <trkpt lat="45.04672" lon="6.05475">
        <ele>729</ele>
        <time>2024-08-14T15:22:56Z</time>
      </trkpt>
      <trkpt lat="45.04674" lon="6.05471">
        <ele>729</ele>
        <time>2024-08-14T15:22:57Z</time>
      </trkpt>
      <trkpt lat="45.04674" lon="6.05471">
        <ele>729</ele>
        <time>2024-08-14T15:22:58Z</time>
      </trkpt>
      <trkpt lat="45.04676" lon="6.05468">
        <ele>729</ele>
        <time>2024-08-14T15:22:59Z</time>
      </trkpt>
      <trkpt lat="45.04676" lon="6.05468">
        <ele>729.2</ele>
        <time>2024-08-14T15:23:00Z</time>
      </trkpt>
      <trkpt lat="45.04678" lon="6.05465">
        <ele>729.2</ele>
        <time>2024-08-14T15:23:01Z</time>
      </trkpt>
      <trkpt lat="45.04678" lon="6.05465">
        <ele>729</ele>
        <time>2024-08-14T15:23:02Z</time>
      </trkpt>
      <trkpt lat="45.0468" lon="6.05462">
        <ele>729</ele>
        <time>2024-08-14T15:23:03Z</time>
      </trkpt>
      <trkpt lat="45.0468" lon="6.05462">
        <ele>729</ele>
        <time>2024-08-14T15:23:04Z</time>
      </trkpt>
      <trkpt lat="45.04682" lon="6.05459">
        <ele>729</ele>
        <time>2024-08-14T15:23:05Z</time>
      </trkpt>
      <trkpt lat="45.04682" lon="6.05459">
        <ele>728.8</ele>
        <time>2024-08-14T15:23:06Z</time>
      </trkpt>
      <trkpt lat="45.04684" lon="6.05456">
        <ele>728.8</ele>
        <time>2024-08-14T15:23:07Z</time>
      </trkpt>
      <trkpt lat="45.04684" lon="6.05456">
        <ele>728.8</ele>
        <time>2024-08-14T15:23:08Z</time>
      </trkpt>
      <trkpt lat="45.04685" lon="6.05453">
        <ele>728.8</ele>
        <time>2024-08-14T15:23:09Z</time>
      </trkpt>
      <trkpt lat="45.04685" lon="6.05453">
        <ele>728.6</ele>
        <time>2024-08-14T15:23:10Z</time>
      </trkpt>
      <trkpt lat="45.04687" lon="6.05449">
        <ele>728.8</ele>
        <time>2024-08-14T15:23:11Z</time>
      </trkpt>
      <trkpt lat="45.04687" lon="6.05449">
        <ele>728.8</ele>
        <time>2024-08-14T15:23:12Z</time>
      </trkpt>
      <trkpt lat="45.04689" lon="6.05446">
        <ele>729</ele>
        <time>2024-08-14T15:23:13Z</time>
      </trkpt>
      <trkpt lat="45.04689" lon="6.05446">
        <ele>729</ele>
        <time>2024-08-14T15:23:14Z</time>
      </trkpt>
      <trkpt lat="45.04691" lon="6.05443">
        <ele>729</ele>
        <time>2024-08-14T15:23:15Z</time>
      </trkpt>
      <trkpt lat="45.04691" lon="6.05443">
        <ele>729</ele>
        <time>2024-08-14T15:23:16Z</time>
      </trkpt>
      <trkpt lat="45.04693" lon="6.0544">
        <ele>729</ele>
        <time>2024-08-14T15:23:17Z</time>
      </trkpt>
      <trkpt lat="45.04693" lon="6.0544">
        <ele>729</ele>
        <time>2024-08-14T15:23:18Z</time>
      </trkpt>
      <trkpt lat="45.04695" lon="6.05436">
        <ele>729</ele>
        <time>2024-08-14T15:23:19Z</time>
      </trkpt>
      <trkpt lat="45.04695" lon="6.05436">
        <ele>729</ele>
        <time>2024-08-14T15:23:20Z</time>
      </trkpt>
      <trkpt lat="45.04697" lon="6.05433">
        <ele>728.8</ele>
        <time>2024-08-14T15:23:21Z</time>
      </trkpt>
      <trkpt lat="45.04697" lon="6.05433">
        <ele>728.8</ele>
        <time>2024-08-14T15:23:22Z</time>
      </trkpt>
      <trkpt lat="45.04699" lon="6.0543">
        <ele>728.8</ele>
        <time>2024-08-14T15:23:23Z</time>
      </trkpt>
      <trkpt lat="45.04699" lon="6.0543">
        <ele>728.8</ele>
        <time>2024-08-14T15:23:24Z</time>
      </trkpt>
      <trkpt lat="45.04701" lon="6.05427">
        <ele>728.8</ele>
        <time>2024-08-14T15:23:25Z</time>
      </trkpt>
      <trkpt lat="45.04701" lon="6.05427">
        <ele>729</ele>
        <time>2024-08-14T15:23:26Z</time>
      </trkpt>
      <trkpt lat="45.04703" lon="6.05425">
        <ele>729</ele>
        <time>2024-08-14T15:23:27Z</time>
      </trkpt>
      <trkpt lat="45.04703" lon="6.05425">
        <ele>729</ele>
        <time>2024-08-14T15:23:28Z</time>
      </trkpt>
      <trkpt lat="45.04705" lon="6.05422">
        <ele>729</ele>
        <time>2024-08-14T15:23:29Z</time>
      </trkpt>
      <trkpt lat="45.04705" lon="6.05422">
        <ele>729</ele>
        <time>2024-08-14T15:23:30Z</time>
      </trkpt>
      <trkpt lat="45.04707" lon="6.05418">
        <ele>729</ele>
        <time>2024-08-14T15:23:31Z</time>
      </trkpt>
      <trkpt lat="45.04707" lon="6.05418">
        <ele>729</ele>
        <time>2024-08-14T15:23:32Z</time>
      </trkpt>
      <trkpt lat="45.04709" lon="6.05415">
        <ele>729</ele>
        <time>2024-08-14T15:23:33Z</time>
      </trkpt>
      <trkpt lat="45.04709" lon="6.05415">
        <ele>729</ele>
        <time>2024-08-14T15:23:34Z</time>
      </trkpt>
      <trkpt lat="45.0471" lon="6.05412">
        <ele>728.8</ele>
        <time>2024-08-14T15:23:35Z</time>
      </trkpt>
      <trkpt lat="45.0471" lon="6.05412">
        <ele>728.6</ele>
        <time>2024-08-14T15:23:36Z</time>
      </trkpt>
      <trkpt lat="45.04712" lon="6.05408">
        <ele>728.6</ele>
        <time>2024-08-14T15:23:37Z</time>
      </trkpt>
      <trkpt lat="45.04712" lon="6.05408">
        <ele>728.6</ele>
        <time>2024-08-14T15:23:38Z</time>
      </trkpt>
      <trkpt lat="45.04714" lon="6.05405">
        <ele>728.6</ele>
        <time>2024-08-14T15:23:39Z</time>
      </trkpt>
      <trkpt lat="45.04714" lon="6.05405">
        <ele>728.6</ele>
        <time>2024-08-14T15:23:40Z</time>
      </trkpt>
      <trkpt lat="45.04716" lon="6.05402">
        <ele>728.6</ele>
        <time>2024-08-14T15:23:41Z</time>
      </trkpt>
      <trkpt lat="45.04716" lon="6.05402">
        <ele>728.6</ele>
        <time>2024-08-14T15:23:42Z</time>
      </trkpt>
      <trkpt lat="45.04718" lon="6.05399">
        <ele>728.8</ele>
        <time>2024-08-14T15:23:43Z</time>
      </trkpt>
      <trkpt lat="45.04718" lon="6.05399">
        <ele>728.8</ele>
        <time>2024-08-14T15:23:44Z</time>
      </trkpt>
      <trkpt lat="45.0472" lon="6.05395">
        <ele>728.8</ele>
        <time>2024-08-14T15:23:45Z</time>
      </trkpt>
      <trkpt lat="45.0472" lon="6.05395">
        <ele>728.8</ele>
        <time>2024-08-14T15:23:46Z</time>
      </trkpt>
      <trkpt lat="45.04722" lon="6.05392">
        <ele>728.8</ele>
        <time>2024-08-14T15:23:47Z</time>
      </trkpt>
      <trkpt lat="45.04722" lon="6.05392">
        <ele>728.8</ele>
        <time>2024-08-14T15:23:48Z</time>
      </trkpt>
      <trkpt lat="45.04724" lon="6.05389">
        <ele>728.8</ele>
        <time>2024-08-14T15:23:49Z</time>
      </trkpt>
      <trkpt lat="45.04724" lon="6.05389">
        <ele>728.8</ele>
        <time>2024-08-14T15:23:50Z</time>
      </trkpt>
      <trkpt lat="45.04726" lon="6.05386">
        <ele>728.6</ele>
        <time>2024-08-14T15:23:51Z</time>
      </trkpt>
      <trkpt lat="45.04726" lon="6.05386">
        <ele>728.8</ele>
        <time>2024-08-14T15:23:52Z</time>
      </trkpt>
      <trkpt lat="45.04728" lon="6.05382">
        <ele>729</ele>
        <time>2024-08-14T15:23:53Z</time>
      </trkpt>
      <trkpt lat="45.04728" lon="6.05382">
        <ele>729</ele>
        <time>2024-08-14T15:23:54Z</time>
      </trkpt>
      <trkpt lat="45.0473" lon="6.05379">
        <ele>729</ele>
        <time>2024-08-14T15:23:55Z</time>
      </trkpt>
      <trkpt lat="45.0473" lon="6.05379">
        <ele>728.8</ele>
        <time>2024-08-14T15:23:56Z</time>
      </trkpt>
      <trkpt lat="45.04731" lon="6.05376">
        <ele>728.8</ele>
        <time>2024-08-14T15:23:57Z</time>
      </trkpt>
      <trkpt lat="45.04731" lon="6.05376">
        <ele>728.8</ele>
        <time>2024-08-14T15:23:58Z</time>
      </trkpt>
      <trkpt lat="45.04732" lon="6.05374">
        <ele>728.8</ele>
        <time>2024-08-14T15:23:59Z</time>
      </trkpt>
      <trkpt lat="45.04732" lon="6.05374">
        <ele>728.8</ele>
        <time>2024-08-14T15:24:00Z</time>
      </trkpt>
      <trkpt lat="45.04732" lon="6.05374">
        <ele>728.8</ele>
        <time>2024-08-14T15:24:01Z</time>
      </trkpt>
      <trkpt lat="45.04732" lon="6.05374">
        <ele>729.2</ele>
        <time>2024-08-14T15:24:02Z</time>
      </trkpt>
      <trkpt lat="45.04732" lon="6.05374">
        <ele>729.2</ele>
        <time>2024-08-14T15:24:03Z</time>
      </trkpt>
      <trkpt lat="45.04732" lon="6.05374">
        <ele>729</ele>
        <time>2024-08-14T15:24:04Z</time>
      </trkpt>
      <trkpt lat="45.04732" lon="6.05374">
        <ele>728.8</ele>
        <time>2024-08-14T15:24:05Z</time>
      </trkpt>
      <trkpt lat="45.04732" lon="6.05374">
        <ele>728.8</ele>
        <time>2024-08-14T15:24:06Z</time>
      </trkpt>
      <trkpt lat="45.04732" lon="6.05374">
        <ele>728.8</ele>
        <time>2024-08-14T15:24:07Z</time>
      </trkpt>
      <trkpt lat="45.04732" lon="6.05374">
        <ele>728.8</ele>
        <time>2024-08-14T15:24:08Z</time>
      </trkpt>
      <trkpt lat="45.04732" lon="6.05374">
        <ele>728.8</ele>
        <time>2024-08-14T15:24:09Z</time>
      </trkpt>
      <trkpt lat="45.04732" lon="6.05374">
        <ele>729</ele>
        <time>2024-08-14T15:24:10Z</time>
      </trkpt>
      <trkpt lat="45.04732" lon="6.05374">
        <ele>729</ele>
        <time>2024-08-14T15:24:11Z</time>
      </trkpt>
      <trkpt lat="45.04732" lon="6.05374">
        <ele>728.8</ele>
        <time>2024-08-14T15:24:12Z</time>
      </trkpt>
      <trkpt lat="45.04732" lon="6.05374">
        <ele>728.8</ele>
        <time>2024-08-14T15:24:13Z</time>
      </trkpt>
      <trkpt lat="45.04732" lon="6.05374">
        <ele>728.8</ele>
        <time>2024-08-14T15:24:14Z</time>
      </trkpt>
      <trkpt lat="45.04732" lon="6.05374">
        <ele>728.8</ele>
        <time>2024-08-14T15:24:15Z</time>
      </trkpt>
      <trkpt lat="45.04732" lon="6.05374">
        <ele>728.6</ele>
        <time>2024-08-14T15:24:16Z</time>
      </trkpt>
      <trkpt lat="45.04732" lon="6.05374">
        <ele>728.6</ele>
        <time>2024-08-14T15:24:17Z</time>
      </trkpt>
      <trkpt lat="45.04732" lon="6.05374">
        <ele>728.6</ele>
        <time>2024-08-14T15:24:18Z</time>
      </trkpt>
      <trkpt lat="45.04732" lon="6.05374">
        <ele>728.6</ele>
        <time>2024-08-14T15:24:19Z</time>
      </trkpt>
      <trkpt lat="45.04732" lon="6.05374">
        <ele>728.6</ele>
        <time>2024-08-14T15:24:20Z</time>
      </trkpt>
      <trkpt lat="45.04732" lon="6.05374">
        <ele>728.8</ele>
        <time>2024-08-14T15:24:21Z</time>
      </trkpt>
      <trkpt lat="45.04732" lon="6.05374">
        <ele>728.8</ele>
        <time>2024-08-14T15:24:22Z</time>
      </trkpt>
      <trkpt lat="45.04732" lon="6.05374">
        <ele>728.6</ele>
        <time>2024-08-14T15:24:23Z</time>
      </trkpt>
      <trkpt lat="45.04732" lon="6.05374">
        <ele>728.6</ele>
        <time>2024-08-14T15:24:24Z</time>
      </trkpt>
      <trkpt lat="45.04732" lon="6.05374">
        <ele>728.6</ele>
        <time>2024-08-14T15:24:25Z</time>
      </trkpt>
      <trkpt lat="45.04732" lon="6.05374">
        <ele>728.6</ele>
        <time>2024-08-14T15:24:26Z</time>
      </trkpt>
      <trkpt lat="45.04732" lon="6.05374">
        <ele>728.8</ele>
        <time>2024-08-14T15:24:27Z</time>
      </trkpt>
      <trkpt lat="45.04732" lon="6.05374">
        <ele>729</ele>
        <time>2024-08-14T15:24:28Z</time>
      </trkpt>
      <trkpt lat="45.04732" lon="6.05374">
        <ele>729</ele>
        <time>2024-08-14T15:24:29Z</time>
      </trkpt>
      <trkpt lat="45.04732" lon="6.05374">
        <ele>728.6</ele>
        <time>2024-08-14T15:24:30Z</time>
      </trkpt>
      <trkpt lat="45.04732" lon="6.05374">
        <ele>728.6</ele>
        <time>2024-08-14T15:24:31Z</time>
      </trkpt>
      <trkpt lat="45.04732" lon="6.05374">
        <ele>728.6</ele>
        <time>2024-08-14T15:24:32Z</time>
      </trkpt>
      <trkpt lat="45.04732" lon="6.05374">
        <ele>728.6</ele>
        <time>2024-08-14T15:24:33Z</time>
      </trkpt>
      <trkpt lat="45.04732" lon="6.05374">
        <ele>728.6</ele>
        <time>2024-08-14T15:24:34Z</time>
      </trkpt>
      <trkpt lat="45.04732" lon="6.05374">
        <ele>728.6</ele>
        <time>2024-08-14T15:24:35Z</time>
      </trkpt>
      <trkpt lat="45.04732" lon="6.05374">
        <ele>728.6</ele>
        <time>2024-08-14T15:24:36Z</time>
      </trkpt>
      <trkpt lat="45.04732" lon="6.05374">
        <ele>728.6</ele>
        <time>2024-08-14T15:24:37Z</time>
      </trkpt>
      <trkpt lat="45.04732" lon="6.05374">
        <ele>728.6</ele>
        <time>2024-08-14T15:24:38Z</time>
      </trkpt>
      <trkpt lat="45.04732" lon="6.05374">
        <ele>728.6</ele>
        <time>2024-08-14T15:24:39Z</time>
      </trkpt>
      <trkpt lat="45.04732" lon="6.05374">
        <ele>728.6</ele>
        <time>2024-08-14T15:24:40Z</time>
      </trkpt>
      <trkpt lat="45.04732" lon="6.05374">
        <ele>728.4</ele>
        <time>2024-08-14T15:24:41Z</time>
      </trkpt>
      <trkpt lat="45.04732" lon="6.05374">
        <ele>728.4</ele>
        <time>2024-08-14T15:24:42Z</time>
      </trkpt>
      <trkpt lat="45.04732" lon="6.05374">
        <ele>728.4</ele>
        <time>2024-08-14T15:24:43Z</time>
      </trkpt>
      <trkpt lat="45.04732" lon="6.05374">
        <ele>728.4</ele>
        <time>2024-08-14T15:24:44Z</time>
      </trkpt>
      <trkpt lat="45.04732" lon="6.05374">
        <ele>728.4</ele>
        <time>2024-08-14T15:24:45Z</time>
      </trkpt>
      <trkpt lat="45.04732" lon="6.05374">
        <ele>728.2</ele>
        <time>2024-08-14T15:24:46Z</time>
      </trkpt>
      <trkpt lat="45.04732" lon="6.05374">
        <ele>728.2</ele>
        <time>2024-08-14T15:24:47Z</time>
      </trkpt>
      <trkpt lat="45.04732" lon="6.05374">
        <ele>728.2</ele>
        <time>2024-08-14T15:24:48Z</time>
      </trkpt>
      <trkpt lat="45.04732" lon="6.05374">
        <ele>728.4</ele>
        <time>2024-08-14T15:24:49Z</time>
      </trkpt>
      <trkpt lat="45.04732" lon="6.05374">
        <ele>728.4</ele>
        <time>2024-08-14T15:24:50Z</time>
      </trkpt>
      <trkpt lat="45.04732" lon="6.05374">
        <ele>728.2</ele>
        <time>2024-08-14T15:24:51Z</time>
      </trkpt>
      <trkpt lat="45.04732" lon="6.05374">
        <ele>728.2</ele>
        <time>2024-08-14T15:24:52Z</time>
      </trkpt>
      <trkpt lat="45.04732" lon="6.05374">
        <ele>728.4</ele>
        <time>2024-08-14T15:24:53Z</time>
      </trkpt>
      <trkpt lat="45.04732" lon="6.05374">
        <ele>728.4</ele>
        <time>2024-08-14T15:24:54Z</time>
      </trkpt>
      <trkpt lat="45.04732" lon="6.05374">
        <ele>728.4</ele>
        <time>2024-08-14T15:24:55Z</time>
      </trkpt>
      <trkpt lat="45.04732" lon="6.05374">
        <ele>728.4</ele>
        <time>2024-08-14T15:24:56Z</time>
      </trkpt>
      <trkpt lat="45.04732" lon="6.05374">
        <ele>728.4</ele>
        <time>2024-08-14T15:24:57Z</time>
      </trkpt>
      <trkpt lat="45.04732" lon="6.05374">
        <ele>728.4</ele>
        <time>2024-08-14T15:24:58Z</time>
      </trkpt>
      <trkpt lat="45.04732" lon="6.05374">
        <ele>728.6</ele>
        <time>2024-08-14T15:24:59Z</time>
      </trkpt>
      <trkpt lat="45.04732" lon="6.05374">
        <ele>728.6</ele>
        <time>2024-08-14T15:25:00Z</time>
      </trkpt>
      <trkpt lat="45.04732" lon="6.05374">
        <ele>728.6</ele>
        <time>2024-08-14T15:25:01Z</time>
      </trkpt>
      <trkpt lat="45.04732" lon="6.05374">
        <ele>728.4</ele>
        <time>2024-08-14T15:25:02Z</time>
      </trkpt>
      <trkpt lat="45.04732" lon="6.05374">
        <ele>728.4</ele>
        <time>2024-08-14T15:25:03Z</time>
      </trkpt>
      <trkpt lat="45.04732" lon="6.05374">
        <ele>728.4</ele>
        <time>2024-08-14T15:25:04Z</time>
      </trkpt>
      <trkpt lat="45.04732" lon="6.05374">
        <ele>728.4</ele>
        <time>2024-08-14T15:25:05Z</time>
      </trkpt>
      <trkpt lat="45.04732" lon="6.05374">
        <ele>728.4</ele>
        <time>2024-08-14T15:25:06Z</time>
      </trkpt>
      <trkpt lat="45.04732" lon="6.05374">
        <ele>728.6</ele>
        <time>2024-08-14T15:25:07Z</time>
      </trkpt>
      <trkpt lat="45.04732" lon="6.05374">
        <ele>728.8</ele>
        <time>2024-08-14T15:25:08Z</time>
      </trkpt>
      <trkpt lat="45.04734" lon="6.05372">
        <ele>728.8</ele>
        <time>2024-08-14T15:25:09Z</time>
      </trkpt>
      <trkpt lat="45.04734" lon="6.05372">
        <ele>728.8</ele>
        <time>2024-08-14T15:25:10Z</time>
      </trkpt>
      <trkpt lat="45.04736" lon="6.05369">
        <ele>728.8</ele>
        <time>2024-08-14T15:25:11Z</time>
      </trkpt>
      <trkpt lat="45.04736" lon="6.05369">
        <ele>728.8</ele>
        <time>2024-08-14T15:25:12Z</time>
      </trkpt>
      <trkpt lat="45.04738" lon="6.05365">
        <ele>728.8</ele>
        <time>2024-08-14T15:25:13Z</time>
      </trkpt>
      <trkpt lat="45.04738" lon="6.05365">
        <ele>728.8</ele>
        <time>2024-08-14T15:25:14Z</time>
      </trkpt>
      <trkpt lat="45.0474" lon="6.05362">
        <ele>728.8</ele>
        <time>2024-08-14T15:25:15Z</time>
      </trkpt>
      <trkpt lat="45.04742" lon="6.0536">
        <ele>728.8</ele>
        <time>2024-08-14T15:25:16Z</time>
      </trkpt>
      <trkpt lat="45.04742" lon="6.0536">
        <ele>728.6</ele>
        <time>2024-08-14T15:25:17Z</time>
      </trkpt>
      <trkpt lat="45.04743" lon="6.05357">
        <ele>728.2</ele>
        <time>2024-08-14T15:25:18Z</time>
      </trkpt>
      <trkpt lat="45.04743" lon="6.05357">
        <ele>728.2</ele>
        <time>2024-08-14T15:25:19Z</time>
      </trkpt>
      <trkpt lat="45.04745" lon="6.05354">
        <ele>728.4</ele>
        <time>2024-08-14T15:25:20Z</time>
      </trkpt>
      <trkpt lat="45.04745" lon="6.05354">
        <ele>728.4</ele>
        <time>2024-08-14T15:25:21Z</time>
      </trkpt>
      <trkpt lat="45.04747" lon="6.05351">
        <ele>728.6</ele>
        <time>2024-08-14T15:25:22Z</time>
      </trkpt>
      <trkpt lat="45.04747" lon="6.05351">
        <ele>728.6</ele>
        <time>2024-08-14T15:25:23Z</time>
      </trkpt>
      <trkpt lat="45.04749" lon="6.05348">
        <ele>728.8</ele>
        <time>2024-08-14T15:25:24Z</time>
      </trkpt>
      <trkpt lat="45.04749" lon="6.05348">
        <ele>728.8</ele>
        <time>2024-08-14T15:25:25Z</time>
      </trkpt>
      <trkpt lat="45.04751" lon="6.05345">
        <ele>728.6</ele>
        <time>2024-08-14T15:25:26Z</time>
      </trkpt>
      <trkpt lat="45.04751" lon="6.05345">
        <ele>728.6</ele>
        <time>2024-08-14T15:25:27Z</time>
      </trkpt>
      <trkpt lat="45.04753" lon="6.05341">
        <ele>728.4</ele>
        <time>2024-08-14T15:25:28Z</time>
      </trkpt>
      <trkpt lat="45.04753" lon="6.05341">
        <ele>728.4</ele>
        <time>2024-08-14T15:25:29Z</time>
      </trkpt>
      <trkpt lat="45.04755" lon="6.05338">
        <ele>728.8</ele>
        <time>2024-08-14T15:25:30Z</time>
      </trkpt>
      <trkpt lat="45.04755" lon="6.05338">
        <ele>728.8</ele>
        <time>2024-08-14T15:25:31Z</time>
      </trkpt>
      <trkpt lat="45.04757" lon="6.05334">
        <ele>728.6</ele>
        <time>2024-08-14T15:25:32Z</time>
      </trkpt>
      <trkpt lat="45.04757" lon="6.05334">
        <ele>728.6</ele>
        <time>2024-08-14T15:25:33Z</time>
      </trkpt>
      <trkpt lat="45.04758" lon="6.05331">
        <ele>728.8</ele>
        <time>2024-08-14T15:25:34Z</time>
      </trkpt>
      <trkpt lat="45.04758" lon="6.05331">
        <ele>728.8</ele>
        <time>2024-08-14T15:25:35Z</time>
      </trkpt>
      <trkpt lat="45.0476" lon="6.05328">
        <ele>728.8</ele>
        <time>2024-08-14T15:25:36Z</time>
      </trkpt>
      <trkpt lat="45.04761" lon="6.05326">
        <ele>728.8</ele>
        <time>2024-08-14T15:25:37Z</time>
      </trkpt>
      <trkpt lat="45.04761" lon="6.05326">
        <ele>728.8</ele>
        <time>2024-08-14T15:25:38Z</time>
      </trkpt>
      <trkpt lat="45.04763" lon="6.05323">
        <ele>728.8</ele>
        <time>2024-08-14T15:25:39Z</time>
      </trkpt>
      <trkpt lat="45.04763" lon="6.05323">
        <ele>728.8</ele>
        <time>2024-08-14T15:25:40Z</time>
      </trkpt>
      <trkpt lat="45.04764" lon="6.0532">
        <ele>728.8</ele>
        <time>2024-08-14T15:25:41Z</time>
      </trkpt>
      <trkpt lat="45.04765" lon="6.05318">
        <ele>728.8</ele>
        <time>2024-08-14T15:25:42Z</time>
      </trkpt>
      <trkpt lat="45.04765" lon="6.05318">
        <ele>728.8</ele>
        <time>2024-08-14T15:25:43Z</time>
      </trkpt>
      <trkpt lat="45.04767" lon="6.05315">
        <ele>728.8</ele>
        <time>2024-08-14T15:25:44Z</time>
      </trkpt>
      <trkpt lat="45.04767" lon="6.05315">
        <ele>728.8</ele>
        <time>2024-08-14T15:25:45Z</time>
      </trkpt>
      <trkpt lat="45.04767" lon="6.05315">
        <ele>729</ele>
        <time>2024-08-14T15:25:46Z</time>
      </trkpt>
      <trkpt lat="45.0477" lon="6.0531">
        <ele>729</ele>
        <time>2024-08-14T15:25:47Z</time>
      </trkpt>
      <trkpt lat="45.04771" lon="6.05308">
        <ele>729</ele>
        <time>2024-08-14T15:25:48Z</time>
      </trkpt>
      <trkpt lat="45.04771" lon="6.05308">
        <ele>729</ele>
        <time>2024-08-14T15:25:49Z</time>
      </trkpt>
      <trkpt lat="45.04773" lon="6.05305">
        <ele>729</ele>
        <time>2024-08-14T15:25:50Z</time>
      </trkpt>
      <trkpt lat="45.04773" lon="6.05305">
        <ele>729</ele>
        <time>2024-08-14T15:25:51Z</time>
      </trkpt>
      <trkpt lat="45.04775" lon="6.05302">
        <ele>729</ele>
        <time>2024-08-14T15:25:52Z</time>
      </trkpt>
      <trkpt lat="45.04775" lon="6.05302">
        <ele>729</ele>
        <time>2024-08-14T15:25:53Z</time>
      </trkpt>
      <trkpt lat="45.04777" lon="6.05299">
        <ele>729</ele>
        <time>2024-08-14T15:25:54Z</time>
      </trkpt>
      <trkpt lat="45.04777" lon="6.05299">
        <ele>729.2</ele>
        <time>2024-08-14T15:25:55Z</time>
      </trkpt>
      <trkpt lat="45.04779" lon="6.05296">
        <ele>729.2</ele>
        <time>2024-08-14T15:25:56Z</time>
      </trkpt>
      <trkpt lat="45.04779" lon="6.05296">
        <ele>729.2</ele>
        <time>2024-08-14T15:25:57Z</time>
      </trkpt>
      <trkpt lat="45.04781" lon="6.05293">
        <ele>729.4</ele>
        <time>2024-08-14T15:25:58Z</time>
      </trkpt>
      <trkpt lat="45.04781" lon="6.05293">
        <ele>729.4</ele>
        <time>2024-08-14T15:25:59Z</time>
      </trkpt>
      <trkpt lat="45.04782" lon="6.05289">
        <ele>729.2</ele>
        <time>2024-08-14T15:26:00Z</time>
      </trkpt>
      <trkpt lat="45.04782" lon="6.05289">
        <ele>729</ele>
        <time>2024-08-14T15:26:01Z</time>
      </trkpt>
      <trkpt lat="45.04784" lon="6.05286">
        <ele>729.2</ele>
        <time>2024-08-14T15:26:02Z</time>
      </trkpt>
      <trkpt lat="45.04784" lon="6.05286">
        <ele>729.2</ele>
        <time>2024-08-14T15:26:03Z</time>
      </trkpt>
      <trkpt lat="45.04784" lon="6.05286">
        <ele>729.2</ele>
        <time>2024-08-14T15:26:04Z</time>
      </trkpt>
      <trkpt lat="45.04787" lon="6.05281">
        <ele>729</ele>
        <time>2024-08-14T15:26:05Z</time>
      </trkpt>
      <trkpt lat="45.04788" lon="6.0528">
        <ele>729</ele>
        <time>2024-08-14T15:26:06Z</time>
      </trkpt>
      <trkpt lat="45.04788" lon="6.0528">
        <ele>729.2</ele>
        <time>2024-08-14T15:26:07Z</time>
      </trkpt>
      <trkpt lat="45.04789" lon="6.05276">
        <ele>729.2</ele>
        <time>2024-08-14T15:26:08Z</time>
      </trkpt>
      <trkpt lat="45.04789" lon="6.05276">
        <ele>729</ele>
        <time>2024-08-14T15:26:09Z</time>
      </trkpt>
      <trkpt lat="45.04792" lon="6.05273">
        <ele>729</ele>
        <time>2024-08-14T15:26:10Z</time>
      </trkpt>
      <trkpt lat="45.04792" lon="6.05273">
        <ele>729</ele>
        <time>2024-08-14T15:26:11Z</time>
      </trkpt>
      <trkpt lat="45.04794" lon="6.0527">
        <ele>729</ele>
        <time>2024-08-14T15:26:12Z</time>
      </trkpt>
      <trkpt lat="45.04794" lon="6.0527">
        <ele>728.8</ele>
        <time>2024-08-14T15:26:13Z</time>
      </trkpt>
      <trkpt lat="45.04795" lon="6.05267">
        <ele>729.2</ele>
        <time>2024-08-14T15:26:14Z</time>
      </trkpt>
      <trkpt lat="45.04795" lon="6.05267">
        <ele>729.2</ele>
        <time>2024-08-14T15:26:15Z</time>
      </trkpt>
      <trkpt lat="45.04797" lon="6.05263">
        <ele>729</ele>
        <time>2024-08-14T15:26:16Z</time>
      </trkpt>
      <trkpt lat="45.04797" lon="6.05263">
        <ele>729</ele>
        <time>2024-08-14T15:26:17Z</time>
      </trkpt>
      <trkpt lat="45.04798" lon="6.0526">
        <ele>729.2</ele>
        <time>2024-08-14T15:26:18Z</time>
      </trkpt>
      <trkpt lat="45.04798" lon="6.0526">
        <ele>729.2</ele>
        <time>2024-08-14T15:26:19Z</time>
      </trkpt>
      <trkpt lat="45.048" lon="6.05257">
        <ele>729.2</ele>
        <time>2024-08-14T15:26:20Z</time>
      </trkpt>
      <trkpt lat="45.048" lon="6.05257">
        <ele>729.2</ele>
        <time>2024-08-14T15:26:21Z</time>
      </trkpt>
      <trkpt lat="45.048" lon="6.05257">
        <ele>729.2</ele>
        <time>2024-08-14T15:26:22Z</time>
      </trkpt>
      <trkpt lat="45.04803" lon="6.05252">
        <ele>729</ele>
        <time>2024-08-14T15:26:23Z</time>
      </trkpt>
      <trkpt lat="45.04804" lon="6.05251">
        <ele>729</ele>
        <time>2024-08-14T15:26:24Z</time>
      </trkpt>
      <trkpt lat="45.04804" lon="6.05251">
        <ele>729</ele>
        <time>2024-08-14T15:26:25Z</time>
      </trkpt>
      <trkpt lat="45.04806" lon="6.05247">
        <ele>729</ele>
        <time>2024-08-14T15:26:26Z</time>
      </trkpt>
      <trkpt lat="45.04806" lon="6.05247">
        <ele>729</ele>
        <time>2024-08-14T15:26:27Z</time>
      </trkpt>
      <trkpt lat="45.04808" lon="6.05244">
        <ele>729</ele>
        <time>2024-08-14T15:26:28Z</time>
      </trkpt>
      <trkpt lat="45.04808" lon="6.05244">
        <ele>729</ele>
        <time>2024-08-14T15:26:29Z</time>
      </trkpt>
      <trkpt lat="45.0481" lon="6.05241">
        <ele>729</ele>
        <time>2024-08-14T15:26:30Z</time>
      </trkpt>
      <trkpt lat="45.0481" lon="6.05241">
        <ele>729</ele>
        <time>2024-08-14T15:26:31Z</time>
      </trkpt>
      <trkpt lat="45.04812" lon="6.05238">
        <ele>729.2</ele>
        <time>2024-08-14T15:26:32Z</time>
      </trkpt>
      <trkpt lat="45.04812" lon="6.05238">
        <ele>729.2</ele>
        <time>2024-08-14T15:26:33Z</time>
      </trkpt>
      <trkpt lat="45.04812" lon="6.05238">
        <ele>729.2</ele>
        <time>2024-08-14T15:26:34Z</time>
      </trkpt>
      <trkpt lat="45.04814" lon="6.05233">
        <ele>729</ele>
        <time>2024-08-14T15:26:35Z</time>
      </trkpt>
      <trkpt lat="45.04815" lon="6.05232">
        <ele>729</ele>
        <time>2024-08-14T15:26:36Z</time>
      </trkpt>
      <trkpt lat="45.04815" lon="6.05232">
        <ele>729</ele>
        <time>2024-08-14T15:26:37Z</time>
      </trkpt>
      <trkpt lat="45.04817" lon="6.05229">
        <ele>728.8</ele>
        <time>2024-08-14T15:26:38Z</time>
      </trkpt>
      <trkpt lat="45.04817" lon="6.05229">
        <ele>728.8</ele>
        <time>2024-08-14T15:26:39Z</time>
      </trkpt>
      <trkpt lat="45.04819" lon="6.05225">
        <ele>729.4</ele>
        <time>2024-08-14T15:26:40Z</time>
      </trkpt>
      <trkpt lat="45.04819" lon="6.05225">
        <ele>729.4</ele>
        <time>2024-08-14T15:26:41Z</time>
      </trkpt>
      <trkpt lat="45.04821" lon="6.05222">
        <ele>729.4</ele>
        <time>2024-08-14T15:26:42Z</time>
      </trkpt>
      <trkpt lat="45.04821" lon="6.05222">
        <ele>729.2</ele>
        <time>2024-08-14T15:26:43Z</time>
      </trkpt>
      <trkpt lat="45.04823" lon="6.05219">
        <ele>729.2</ele>
        <time>2024-08-14T15:26:44Z</time>
      </trkpt>
      <trkpt lat="45.04823" lon="6.05219">
        <ele>729</ele>
        <time>2024-08-14T15:26:45Z</time>
      </trkpt>
      <trkpt lat="45.04826" lon="6.05216">
        <ele>729</ele>
        <time>2024-08-14T15:26:46Z</time>
      </trkpt>
      <trkpt lat="45.04826" lon="6.05216">
        <ele>729</ele>
        <time>2024-08-14T15:26:47Z</time>
      </trkpt>
      <trkpt lat="45.04828" lon="6.05213">
        <ele>729</ele>
        <time>2024-08-14T15:26:48Z</time>
      </trkpt>
      <trkpt lat="45.04828" lon="6.05213">
        <ele>729</ele>
        <time>2024-08-14T15:26:49Z</time>
      </trkpt>
      <trkpt lat="45.0483" lon="6.0521">
        <ele>729</ele>
        <time>2024-08-14T15:26:50Z</time>
      </trkpt>
      <trkpt lat="45.0483" lon="6.0521">
        <ele>729.2</ele>
        <time>2024-08-14T15:26:51Z</time>
      </trkpt>
      <trkpt lat="45.04831" lon="6.05207">
        <ele>729.2</ele>
        <time>2024-08-14T15:26:52Z</time>
      </trkpt>
      <trkpt lat="45.04831" lon="6.05207">
        <ele>729.2</ele>
        <time>2024-08-14T15:26:53Z</time>
      </trkpt>
      <trkpt lat="45.04833" lon="6.05204">
        <ele>729</ele>
        <time>2024-08-14T15:26:54Z</time>
      </trkpt>
      <trkpt lat="45.04833" lon="6.05204">
        <ele>729</ele>
        <time>2024-08-14T15:26:55Z</time>
      </trkpt>
      <trkpt lat="45.04834" lon="6.05201">
        <ele>729</ele>
        <time>2024-08-14T15:26:56Z</time>
      </trkpt>
      <trkpt lat="45.04834" lon="6.05201">
        <ele>729</ele>
        <time>2024-08-14T15:26:57Z</time>
      </trkpt>
      <trkpt lat="45.04836" lon="6.05197">
        <ele>729</ele>
        <time>2024-08-14T15:26:58Z</time>
      </trkpt>
      <trkpt lat="45.04836" lon="6.05197">
        <ele>729</ele>
        <time>2024-08-14T15:26:59Z</time>
      </trkpt>
      <trkpt lat="45.04838" lon="6.05194">
        <ele>729</ele>
        <time>2024-08-14T15:27:00Z</time>
      </trkpt>
      <trkpt lat="45.04838" lon="6.05194">
        <ele>729</ele>
        <time>2024-08-14T15:27:01Z</time>
      </trkpt>
      <trkpt lat="45.0484" lon="6.05191">
        <ele>729.4</ele>
        <time>2024-08-14T15:27:02Z</time>
      </trkpt>
      <trkpt lat="45.0484" lon="6.05191">
        <ele>729.4</ele>
        <time>2024-08-14T15:27:03Z</time>
      </trkpt>
      <trkpt lat="45.04842" lon="6.05188">
        <ele>729.4</ele>
        <time>2024-08-14T15:27:04Z</time>
      </trkpt>
      <trkpt lat="45.04842" lon="6.05188">
        <ele>729.4</ele>
        <time>2024-08-14T15:27:05Z</time>
      </trkpt>
      <trkpt lat="45.04843" lon="6.05185">
        <ele>729.4</ele>
        <time>2024-08-14T15:27:06Z</time>
      </trkpt>
      <trkpt lat="45.04843" lon="6.05185">
        <ele>729.4</ele>
        <time>2024-08-14T15:27:07Z</time>
      </trkpt>
      <trkpt lat="45.04845" lon="6.05181">
        <ele>729.4</ele>
        <time>2024-08-14T15:27:08Z</time>
      </trkpt>
      <trkpt lat="45.04845" lon="6.05181">
        <ele>729.4</ele>
        <time>2024-08-14T15:27:09Z</time>
      </trkpt>
      <trkpt lat="45.04847" lon="6.05178">
        <ele>729.4</ele>
        <time>2024-08-14T15:27:10Z</time>
      </trkpt>
      <trkpt lat="45.04847" lon="6.05178">
        <ele>729.2</ele>
        <time>2024-08-14T15:27:11Z</time>
      </trkpt>
      <trkpt lat="45.04849" lon="6.05175">
        <ele>729.2</ele>
        <time>2024-08-14T15:27:12Z</time>
      </trkpt>
      <trkpt lat="45.04849" lon="6.05175">
        <ele>729.2</ele>
        <time>2024-08-14T15:27:13Z</time>
      </trkpt>
      <trkpt lat="45.04851" lon="6.05171">
        <ele>729.2</ele>
        <time>2024-08-14T15:27:14Z</time>
      </trkpt>
      <trkpt lat="45.04851" lon="6.05171">
        <ele>729.2</ele>
        <time>2024-08-14T15:27:15Z</time>
      </trkpt>
      <trkpt lat="45.04852" lon="6.05168">
        <ele>729.4</ele>
        <time>2024-08-14T15:27:16Z</time>
      </trkpt>
      <trkpt lat="45.04852" lon="6.05168">
        <ele>729.4</ele>
        <time>2024-08-14T15:27:17Z</time>
      </trkpt>
      <trkpt lat="45.04854" lon="6.05165">
        <ele>729.2</ele>
        <time>2024-08-14T15:27:18Z</time>
      </trkpt>
      <trkpt lat="45.04854" lon="6.05165">
        <ele>729.2</ele>
        <time>2024-08-14T15:27:19Z</time>
      </trkpt>
      <trkpt lat="45.04856" lon="6.05162">
        <ele>729.2</ele>
        <time>2024-08-14T15:27:20Z</time>
      </trkpt>
      <trkpt lat="45.04856" lon="6.05162">
        <ele>729.4</ele>
        <time>2024-08-14T15:27:21Z</time>
      </trkpt>
      <trkpt lat="45.04858" lon="6.0516">
        <ele>729.4</ele>
        <time>2024-08-14T15:27:22Z</time>
      </trkpt>
      <trkpt lat="45.04858" lon="6.0516">
        <ele>729.4</ele>
        <time>2024-08-14T15:27:23Z</time>
      </trkpt>
      <trkpt lat="45.0486" lon="6.05157">
        <ele>729.4</ele>
        <time>2024-08-14T15:27:24Z</time>
      </trkpt>
      <trkpt lat="45.0486" lon="6.05157">
        <ele>729.4</ele>
        <time>2024-08-14T15:27:25Z</time>
      </trkpt>
      <trkpt lat="45.04862" lon="6.05153">
        <ele>729.4</ele>
        <time>2024-08-14T15:27:26Z</time>
      </trkpt>
      <trkpt lat="45.04862" lon="6.05153">
        <ele>729.4</ele>
        <time>2024-08-14T15:27:27Z</time>
      </trkpt>
      <trkpt lat="45.04864" lon="6.0515">
        <ele>729.4</ele>
        <time>2024-08-14T15:27:28Z</time>
      </trkpt>
      <trkpt lat="45.04864" lon="6.0515">
        <ele>729.2</ele>
        <time>2024-08-14T15:27:29Z</time>
      </trkpt>
      <trkpt lat="45.04866" lon="6.05147">
        <ele>729.2</ele>
        <time>2024-08-14T15:27:30Z</time>
      </trkpt>
      <trkpt lat="45.04866" lon="6.05147">
        <ele>729.2</ele>
        <time>2024-08-14T15:27:31Z</time>
      </trkpt>
      <trkpt lat="45.04868" lon="6.05144">
        <ele>729.2</ele>
        <time>2024-08-14T15:27:32Z</time>
      </trkpt>
      <trkpt lat="45.04868" lon="6.05144">
        <ele>729.2</ele>
        <time>2024-08-14T15:27:33Z</time>
      </trkpt>
      <trkpt lat="45.04869" lon="6.05141">
        <ele>729.2</ele>
        <time>2024-08-14T15:27:34Z</time>
      </trkpt>
      <trkpt lat="45.04869" lon="6.05141">
        <ele>729.2</ele>
        <time>2024-08-14T15:27:35Z</time>
      </trkpt>
      <trkpt lat="45.04871" lon="6.05138">
        <ele>729.2</ele>
        <time>2024-08-14T15:27:36Z</time>
      </trkpt>
      <trkpt lat="45.04871" lon="6.05138">
        <ele>729</ele>
        <time>2024-08-14T15:27:37Z</time>
      </trkpt>
      <trkpt lat="45.04871" lon="6.05138">
        <ele>729</ele>
        <time>2024-08-14T15:27:38Z</time>
      </trkpt>
      <trkpt lat="45.04874" lon="6.05133">
        <ele>729</ele>
        <time>2024-08-14T15:27:39Z</time>
      </trkpt>
      <trkpt lat="45.04875" lon="6.05132">
        <ele>729</ele>
        <time>2024-08-14T15:27:40Z</time>
      </trkpt>
      <trkpt lat="45.04875" lon="6.05132">
        <ele>729</ele>
        <time>2024-08-14T15:27:41Z</time>
      </trkpt>
      <trkpt lat="45.04877" lon="6.05129">
        <ele>729</ele>
        <time>2024-08-14T15:27:42Z</time>
      </trkpt>
      <trkpt lat="45.04877" lon="6.05129">
        <ele>728.8</ele>
        <time>2024-08-14T15:27:43Z</time>
      </trkpt>
      <trkpt lat="45.04879" lon="6.05126">
        <ele>728.8</ele>
        <time>2024-08-14T15:27:44Z</time>
      </trkpt>
      <trkpt lat="45.04879" lon="6.05126">
        <ele>729</ele>
        <time>2024-08-14T15:27:45Z</time>
      </trkpt>
      <trkpt lat="45.04881" lon="6.05123">
        <ele>729</ele>
        <time>2024-08-14T15:27:46Z</time>
      </trkpt>
      <trkpt lat="45.04881" lon="6.05123">
        <ele>729</ele>
        <time>2024-08-14T15:27:47Z</time>
      </trkpt>
      <trkpt lat="45.04883" lon="6.0512">
        <ele>728.8</ele>
        <time>2024-08-14T15:27:48Z</time>
      </trkpt>
      <trkpt lat="45.04883" lon="6.0512">
        <ele>728.8</ele>
        <time>2024-08-14T15:27:49Z</time>
      </trkpt>
      <trkpt lat="45.04885" lon="6.05116">
        <ele>728.8</ele>
        <time>2024-08-14T15:27:50Z</time>
      </trkpt>
      <trkpt lat="45.04885" lon="6.05116">
        <ele>728.8</ele>
        <time>2024-08-14T15:27:51Z</time>
      </trkpt>
      <trkpt lat="45.04887" lon="6.05113">
        <ele>728.8</ele>
        <time>2024-08-14T15:27:52Z</time>
      </trkpt>
      <trkpt lat="45.04887" lon="6.05113">
        <ele>728.8</ele>
        <time>2024-08-14T15:27:53Z</time>
      </trkpt>
      <trkpt lat="45.04889" lon="6.0511">
        <ele>729</ele>
        <time>2024-08-14T15:27:54Z</time>
      </trkpt>
      <trkpt lat="45.04889" lon="6.0511">
        <ele>729</ele>
        <time>2024-08-14T15:27:55Z</time>
      </trkpt>
      <trkpt lat="45.04891" lon="6.05106">
        <ele>729</ele>
        <time>2024-08-14T15:27:56Z</time>
      </trkpt>
      <trkpt lat="45.04891" lon="6.05106">
        <ele>729</ele>
        <time>2024-08-14T15:27:57Z</time>
      </trkpt>
      <trkpt lat="45.04893" lon="6.05103">
        <ele>729</ele>
        <time>2024-08-14T15:27:58Z</time>
      </trkpt>
      <trkpt lat="45.04893" lon="6.05103">
        <ele>729</ele>
        <time>2024-08-14T15:27:59Z</time>
      </trkpt>
      <trkpt lat="45.04895" lon="6.051">
        <ele>729</ele>
        <time>2024-08-14T15:28:00Z</time>
      </trkpt>
      <trkpt lat="45.04895" lon="6.051">
        <ele>728.8</ele>
        <time>2024-08-14T15:28:01Z</time>
      </trkpt>
      <trkpt lat="45.04896" lon="6.05096">
        <ele>728.6</ele>
        <time>2024-08-14T15:28:02Z</time>
      </trkpt>
      <trkpt lat="45.04896" lon="6.05096">
        <ele>728.6</ele>
        <time>2024-08-14T15:28:03Z</time>
      </trkpt>
      <trkpt lat="45.04899" lon="6.05093">
        <ele>728.6</ele>
        <time>2024-08-14T15:28:04Z</time>
      </trkpt>
      <trkpt lat="45.04899" lon="6.05093">
        <ele>728.6</ele>
        <time>2024-08-14T15:28:05Z</time>
      </trkpt>
      <trkpt lat="45.04901" lon="6.0509">
        <ele>728.6</ele>
        <time>2024-08-14T15:28:06Z</time>
      </trkpt>
      <trkpt lat="45.04901" lon="6.0509">
        <ele>728.6</ele>
        <time>2024-08-14T15:28:07Z</time>
      </trkpt>
      <trkpt lat="45.04901" lon="6.0509">
        <ele>728.6</ele>
        <time>2024-08-14T15:28:08Z</time>
      </trkpt>
      <trkpt lat="45.04903" lon="6.05085">
        <ele>728.6</ele>
        <time>2024-08-14T15:28:09Z</time>
      </trkpt>
      <trkpt lat="45.04904" lon="6.05083">
        <ele>728.4</ele>
        <time>2024-08-14T15:28:10Z</time>
      </trkpt>
      <trkpt lat="45.04904" lon="6.05083">
        <ele>728.4</ele>
        <time>2024-08-14T15:28:11Z</time>
      </trkpt>
      <trkpt lat="45.04905" lon="6.0508">
        <ele>728.4</ele>
        <time>2024-08-14T15:28:12Z</time>
      </trkpt>
      <trkpt lat="45.04905" lon="6.0508">
        <ele>728.4</ele>
        <time>2024-08-14T15:28:13Z</time>
      </trkpt>
      <trkpt lat="45.04908" lon="6.05077">
        <ele>728.4</ele>
        <time>2024-08-14T15:28:14Z</time>
      </trkpt>
      <trkpt lat="45.04908" lon="6.05077">
        <ele>728.4</ele>
        <time>2024-08-14T15:28:15Z</time>
      </trkpt>
      <trkpt lat="45.04909" lon="6.05074">
        <ele>728.6</ele>
        <time>2024-08-14T15:28:16Z</time>
      </trkpt>
      <trkpt lat="45.04909" lon="6.05074">
        <ele>728.8</ele>
        <time>2024-08-14T15:28:17Z</time>
      </trkpt>
      <trkpt lat="45.04911" lon="6.0507">
        <ele>728.8</ele>
        <time>2024-08-14T15:28:18Z</time>
      </trkpt>
      <trkpt lat="45.04911" lon="6.0507">
        <ele>728.6</ele>
        <time>2024-08-14T15:28:19Z</time>
      </trkpt>
      <trkpt lat="45.04913" lon="6.05067">
        <ele>728.6</ele>
        <time>2024-08-14T15:28:20Z</time>
      </trkpt>
      <trkpt lat="45.04913" lon="6.05067">
        <ele>728.4</ele>
        <time>2024-08-14T15:28:21Z</time>
      </trkpt>
      <trkpt lat="45.04915" lon="6.05064">
        <ele>728.4</ele>
        <time>2024-08-14T15:28:22Z</time>
      </trkpt>
      <trkpt lat="45.04915" lon="6.05064">
        <ele>728.2</ele>
        <time>2024-08-14T15:28:23Z</time>
      </trkpt>
      <trkpt lat="45.04917" lon="6.05061">
        <ele>728.2</ele>
        <time>2024-08-14T15:28:24Z</time>
      </trkpt>
      <trkpt lat="45.04917" lon="6.05061">
        <ele>728.2</ele>
        <time>2024-08-14T15:28:25Z</time>
      </trkpt>
      <trkpt lat="45.04919" lon="6.05057">
        <ele>728.2</ele>
        <time>2024-08-14T15:28:26Z</time>
      </trkpt>
      <trkpt lat="45.04919" lon="6.05057">
        <ele>728.2</ele>
        <time>2024-08-14T15:28:27Z</time>
      </trkpt>
      <trkpt lat="45.04921" lon="6.05054">
        <ele>728.2</ele>
        <time>2024-08-14T15:28:28Z</time>
      </trkpt>
      <trkpt lat="45.04921" lon="6.05054">
        <ele>728.2</ele>
        <time>2024-08-14T15:28:29Z</time>
      </trkpt>
      <trkpt lat="45.04923" lon="6.05051">
        <ele>728</ele>
        <time>2024-08-14T15:28:30Z</time>
      </trkpt>
      <trkpt lat="45.04923" lon="6.05051">
        <ele>728</ele>
        <time>2024-08-14T15:28:31Z</time>
      </trkpt>
      <trkpt lat="45.04924" lon="6.05047">
        <ele>728</ele>
        <time>2024-08-14T15:28:32Z</time>
      </trkpt>
      <trkpt lat="45.04924" lon="6.05047">
        <ele>728</ele>
        <time>2024-08-14T15:28:33Z</time>
      </trkpt>
      <trkpt lat="45.04926" lon="6.05044">
        <ele>728</ele>
        <time>2024-08-14T15:28:34Z</time>
      </trkpt>
      <trkpt lat="45.04926" lon="6.05044">
        <ele>728</ele>
        <time>2024-08-14T15:28:35Z</time>
      </trkpt>
      <trkpt lat="45.04928" lon="6.05041">
        <ele>728</ele>
        <time>2024-08-14T15:28:36Z</time>
      </trkpt>
      <trkpt lat="45.04928" lon="6.05041">
        <ele>728</ele>
        <time>2024-08-14T15:28:37Z</time>
      </trkpt>
      <trkpt lat="45.04929" lon="6.05038">
        <ele>728</ele>
        <time>2024-08-14T15:28:38Z</time>
      </trkpt>
      <trkpt lat="45.04929" lon="6.05038">
        <ele>728.2</ele>
        <time>2024-08-14T15:28:39Z</time>
      </trkpt>
      <trkpt lat="45.04932" lon="6.05035">
        <ele>728.2</ele>
        <time>2024-08-14T15:28:40Z</time>
      </trkpt>
      <trkpt lat="45.04932" lon="6.05035">
        <ele>728</ele>
        <time>2024-08-14T15:28:41Z</time>
      </trkpt>
      <trkpt lat="45.04933" lon="6.05032">
        <ele>728</ele>
        <time>2024-08-14T15:28:42Z</time>
      </trkpt>
      <trkpt lat="45.04933" lon="6.05032">
        <ele>728</ele>
        <time>2024-08-14T15:28:43Z</time>
      </trkpt>
      <trkpt lat="45.04935" lon="6.05029">
        <ele>728</ele>
        <time>2024-08-14T15:28:44Z</time>
      </trkpt>
      <trkpt lat="45.04937" lon="6.05027">
        <ele>728</ele>
        <time>2024-08-14T15:28:45Z</time>
      </trkpt>
      <trkpt lat="45.04937" lon="6.05027">
        <ele>727.6</ele>
        <time>2024-08-14T15:28:46Z</time>
      </trkpt>
      <trkpt lat="45.04937" lon="6.05027">
        <ele>727.6</ele>
        <time>2024-08-14T15:28:47Z</time>
      </trkpt>
      <trkpt lat="45.0494" lon="6.05022">
        <ele>727.8</ele>
        <time>2024-08-14T15:28:48Z</time>
      </trkpt>
      <trkpt lat="45.04941" lon="6.0502">
        <ele>728</ele>
        <time>2024-08-14T15:28:49Z</time>
      </trkpt>
      <trkpt lat="45.04941" lon="6.0502">
        <ele>728</ele>
        <time>2024-08-14T15:28:50Z</time>
      </trkpt>
      <trkpt lat="45.04942" lon="6.05017">
        <ele>728</ele>
        <time>2024-08-14T15:28:51Z</time>
      </trkpt>
      <trkpt lat="45.04942" lon="6.05017">
        <ele>728</ele>
        <time>2024-08-14T15:28:52Z</time>
      </trkpt>
      <trkpt lat="45.04944" lon="6.05013">
        <ele>728</ele>
        <time>2024-08-14T15:28:53Z</time>
      </trkpt>
      <trkpt lat="45.04944" lon="6.05013">
        <ele>728</ele>
        <time>2024-08-14T15:28:54Z</time>
      </trkpt>
      <trkpt lat="45.04945" lon="6.0501">
        <ele>727.8</ele>
        <time>2024-08-14T15:28:55Z</time>
      </trkpt>
      <trkpt lat="45.04945" lon="6.0501">
        <ele>727.8</ele>
        <time>2024-08-14T15:28:56Z</time>
      </trkpt>
      <trkpt lat="45.04947" lon="6.05007">
        <ele>727.8</ele>
        <time>2024-08-14T15:28:57Z</time>
      </trkpt>
      <trkpt lat="45.04947" lon="6.05007">
        <ele>727.8</ele>
        <time>2024-08-14T15:28:58Z</time>
      </trkpt>
      <trkpt lat="45.04949" lon="6.05004">
        <ele>727.8</ele>
        <time>2024-08-14T15:28:59Z</time>
      </trkpt>
      <trkpt lat="45.04949" lon="6.05004">
        <ele>727.8</ele>
        <time>2024-08-14T15:29:00Z</time>
      </trkpt>
      <trkpt lat="45.04951" lon="6.05001">
        <ele>727.6</ele>
        <time>2024-08-14T15:29:01Z</time>
      </trkpt>
      <trkpt lat="45.04951" lon="6.05001">
        <ele>727.6</ele>
        <time>2024-08-14T15:29:02Z</time>
      </trkpt>
      <trkpt lat="45.04951" lon="6.05001">
        <ele>727.6</ele>
        <time>2024-08-14T15:29:03Z</time>
      </trkpt>
      <trkpt lat="45.04954" lon="6.04996">
        <ele>727.4</ele>
        <time>2024-08-14T15:29:04Z</time>
      </trkpt>
      <trkpt lat="45.04955" lon="6.04994">
        <ele>727.4</ele>
        <time>2024-08-14T15:29:05Z</time>
      </trkpt>
      <trkpt lat="45.04955" lon="6.04994">
        <ele>727.4</ele>
        <time>2024-08-14T15:29:06Z</time>
      </trkpt>
      <trkpt lat="45.04957" lon="6.04991">
        <ele>727.4</ele>
        <time>2024-08-14T15:29:07Z</time>
      </trkpt>
      <trkpt lat="45.04957" lon="6.04991">
        <ele>727.4</ele>
        <time>2024-08-14T15:29:08Z</time>
      </trkpt>
      <trkpt lat="45.04957" lon="6.04991">
        <ele>727.8</ele>
        <time>2024-08-14T15:29:09Z</time>
      </trkpt>
      <trkpt lat="45.04959" lon="6.04987">
        <ele>727.8</ele>
        <time>2024-08-14T15:29:10Z</time>
      </trkpt>
      <trkpt lat="45.04961" lon="6.04986">
        <ele>727.6</ele>
        <time>2024-08-14T15:29:11Z</time>
      </trkpt>
      <trkpt lat="45.04961" lon="6.04986">
        <ele>727.4</ele>
        <time>2024-08-14T15:29:12Z</time>
      </trkpt>
      <trkpt lat="45.04963" lon="6.04983">
        <ele>727.4</ele>
        <time>2024-08-14T15:29:13Z</time>
      </trkpt>
      <trkpt lat="45.04963" lon="6.04983">
        <ele>727.4</ele>
        <time>2024-08-14T15:29:14Z</time>
      </trkpt>
      <trkpt lat="45.04963" lon="6.04983">
        <ele>727.4</ele>
        <time>2024-08-14T15:29:15Z</time>
      </trkpt>
      <trkpt lat="45.04965" lon="6.04978">
        <ele>727.2</ele>
        <time>2024-08-14T15:29:16Z</time>
      </trkpt>
      <trkpt lat="45.04966" lon="6.04976">
        <ele>727.2</ele>
        <time>2024-08-14T15:29:17Z</time>
      </trkpt>
      <trkpt lat="45.04966" lon="6.04976">
        <ele>727.2</ele>
        <time>2024-08-14T15:29:18Z</time>
      </trkpt>
      <trkpt lat="45.04968" lon="6.04973">
        <ele>727.2</ele>
        <time>2024-08-14T15:29:19Z</time>
      </trkpt>
      <trkpt lat="45.04968" lon="6.04973">
        <ele>727.2</ele>
        <time>2024-08-14T15:29:20Z</time>
      </trkpt>
      <trkpt lat="45.0497" lon="6.0497">
        <ele>727.4</ele>
        <time>2024-08-14T15:29:21Z</time>
      </trkpt>
      <trkpt lat="45.0497" lon="6.0497">
        <ele>727.2</ele>
        <time>2024-08-14T15:29:22Z</time>
      </trkpt>
      <trkpt lat="45.04972" lon="6.04967">
        <ele>727.2</ele>
        <time>2024-08-14T15:29:23Z</time>
      </trkpt>
      <trkpt lat="45.04972" lon="6.04967">
        <ele>727.4</ele>
        <time>2024-08-14T15:29:24Z</time>
      </trkpt>
      <trkpt lat="45.04974" lon="6.04963">
        <ele>727.4</ele>
        <time>2024-08-14T15:29:25Z</time>
      </trkpt>
      <trkpt lat="45.04974" lon="6.04963">
        <ele>727.2</ele>
        <time>2024-08-14T15:29:26Z</time>
      </trkpt>
      <trkpt lat="45.04975" lon="6.0496">
        <ele>727.2</ele>
        <time>2024-08-14T15:29:27Z</time>
      </trkpt>
      <trkpt lat="45.04975" lon="6.0496">
        <ele>727.2</ele>
        <time>2024-08-14T15:29:28Z</time>
      </trkpt>
      <trkpt lat="45.04977" lon="6.04956">
        <ele>727.4</ele>
        <time>2024-08-14T15:29:29Z</time>
      </trkpt>
      <trkpt lat="45.04977" lon="6.04956">
        <ele>727.4</ele>
        <time>2024-08-14T15:29:30Z</time>
      </trkpt>
      <trkpt lat="45.04979" lon="6.04953">
        <ele>727.4</ele>
        <time>2024-08-14T15:29:31Z</time>
      </trkpt>
      <trkpt lat="45.04979" lon="6.04953">
        <ele>727.4</ele>
        <time>2024-08-14T15:29:32Z</time>
      </trkpt>
      <trkpt lat="45.04981" lon="6.04951">
        <ele>727.4</ele>
        <time>2024-08-14T15:29:33Z</time>
      </trkpt>
      <trkpt lat="45.04981" lon="6.04951">
        <ele>727.4</ele>
        <time>2024-08-14T15:29:34Z</time>
      </trkpt>
      <trkpt lat="45.04983" lon="6.04948">
        <ele>727.2</ele>
        <time>2024-08-14T15:29:35Z</time>
      </trkpt>
      <trkpt lat="45.04983" lon="6.04948">
        <ele>727.2</ele>
        <time>2024-08-14T15:29:36Z</time>
      </trkpt>
      <trkpt lat="45.04985" lon="6.04945">
        <ele>727.4</ele>
        <time>2024-08-14T15:29:37Z</time>
      </trkpt>
      <trkpt lat="45.04985" lon="6.04945">
        <ele>727.4</ele>
        <time>2024-08-14T15:29:38Z</time>
      </trkpt>
      <trkpt lat="45.04987" lon="6.04941">
        <ele>727.4</ele>
        <time>2024-08-14T15:29:39Z</time>
      </trkpt>
      <trkpt lat="45.04987" lon="6.04941">
        <ele>727.4</ele>
        <time>2024-08-14T15:29:40Z</time>
      </trkpt>
      <trkpt lat="45.04989" lon="6.04939">
        <ele>727.4</ele>
        <time>2024-08-14T15:29:41Z</time>
      </trkpt>
      <trkpt lat="45.04989" lon="6.04939">
        <ele>727.4</ele>
        <time>2024-08-14T15:29:42Z</time>
      </trkpt>
      <trkpt lat="45.0499" lon="6.04936">
        <ele>727.6</ele>
        <time>2024-08-14T15:29:43Z</time>
      </trkpt>
      <trkpt lat="45.0499" lon="6.04936">
        <ele>727.6</ele>
        <time>2024-08-14T15:29:44Z</time>
      </trkpt>
      <trkpt lat="45.04992" lon="6.04933">
        <ele>727.6</ele>
        <time>2024-08-14T15:29:45Z</time>
      </trkpt>
      <trkpt lat="45.04992" lon="6.04933">
        <ele>727.4</ele>
        <time>2024-08-14T15:29:46Z</time>
      </trkpt>
      <trkpt lat="45.04994" lon="6.0493">
        <ele>727.4</ele>
        <time>2024-08-14T15:29:47Z</time>
      </trkpt>
      <trkpt lat="45.04994" lon="6.0493">
        <ele>727.4</ele>
        <time>2024-08-14T15:29:48Z</time>
      </trkpt>
      <trkpt lat="45.04996" lon="6.04926">
        <ele>727.2</ele>
        <time>2024-08-14T15:29:49Z</time>
      </trkpt>
      <trkpt lat="45.04996" lon="6.04926">
        <ele>727</ele>
        <time>2024-08-14T15:29:50Z</time>
      </trkpt>
      <trkpt lat="45.04998" lon="6.04923">
        <ele>727</ele>
        <time>2024-08-14T15:29:51Z</time>
      </trkpt>
      <trkpt lat="45.04998" lon="6.04923">
        <ele>727</ele>
        <time>2024-08-14T15:29:52Z</time>
      </trkpt>
      <trkpt lat="45.05" lon="6.0492">
        <ele>727</ele>
        <time>2024-08-14T15:29:53Z</time>
      </trkpt>
      <trkpt lat="45.05" lon="6.0492">
        <ele>727.2</ele>
        <time>2024-08-14T15:29:54Z</time>
      </trkpt>
      <trkpt lat="45.05002" lon="6.04917">
        <ele>727.2</ele>
        <time>2024-08-14T15:29:55Z</time>
      </trkpt>
      <trkpt lat="45.05002" lon="6.04917">
        <ele>727.2</ele>
        <time>2024-08-14T15:29:56Z</time>
      </trkpt>
      <trkpt lat="45.05003" lon="6.04914">
        <ele>727.2</ele>
        <time>2024-08-14T15:29:57Z</time>
      </trkpt>
      <trkpt lat="45.05003" lon="6.04914">
        <ele>727.4</ele>
        <time>2024-08-14T15:29:58Z</time>
      </trkpt>
      <trkpt lat="45.05006" lon="6.0491">
        <ele>727.8</ele>
        <time>2024-08-14T15:29:59Z</time>
      </trkpt>
      <trkpt lat="45.05006" lon="6.0491">
        <ele>727.8</ele>
        <time>2024-08-14T15:30:00Z</time>
      </trkpt>
      <trkpt lat="45.05008" lon="6.04907">
        <ele>727.8</ele>
        <time>2024-08-14T15:30:01Z</time>
      </trkpt>
      <trkpt lat="45.05008" lon="6.04907">
        <ele>727.8</ele>
        <time>2024-08-14T15:30:02Z</time>
      </trkpt>
      <trkpt lat="45.0501" lon="6.04904">
        <ele>727.8</ele>
        <time>2024-08-14T15:30:03Z</time>
      </trkpt>
      <trkpt lat="45.0501" lon="6.04904">
        <ele>727.4</ele>
        <time>2024-08-14T15:30:04Z</time>
      </trkpt>
      <trkpt lat="45.05012" lon="6.049">
        <ele>727.2</ele>
        <time>2024-08-14T15:30:05Z</time>
      </trkpt>
      <trkpt lat="45.05012" lon="6.049">
        <ele>727.2</ele>
        <time>2024-08-14T15:30:06Z</time>
      </trkpt>
      <trkpt lat="45.05013" lon="6.04897">
        <ele>727.2</ele>
        <time>2024-08-14T15:30:07Z</time>
      </trkpt>
      <trkpt lat="45.05013" lon="6.04897">
        <ele>727.2</ele>
        <time>2024-08-14T15:30:08Z</time>
      </trkpt>
      <trkpt lat="45.05015" lon="6.04894">
        <ele>727.2</ele>
        <time>2024-08-14T15:30:09Z</time>
      </trkpt>
      <trkpt lat="45.05015" lon="6.04894">
        <ele>727.2</ele>
        <time>2024-08-14T15:30:10Z</time>
      </trkpt>
      <trkpt lat="45.05017" lon="6.04891">
        <ele>727.2</ele>
        <time>2024-08-14T15:30:11Z</time>
      </trkpt>
      <trkpt lat="45.05017" lon="6.04891">
        <ele>727</ele>
        <time>2024-08-14T15:30:12Z</time>
      </trkpt>
      <trkpt lat="45.05019" lon="6.04888">
        <ele>727</ele>
        <time>2024-08-14T15:30:13Z</time>
      </trkpt>
      <trkpt lat="45.05019" lon="6.04888">
        <ele>727</ele>
        <time>2024-08-14T15:30:14Z</time>
      </trkpt>
      <trkpt lat="45.05021" lon="6.04885">
        <ele>727</ele>
        <time>2024-08-14T15:30:15Z</time>
      </trkpt>
      <trkpt lat="45.05021" lon="6.04885">
        <ele>727</ele>
        <time>2024-08-14T15:30:16Z</time>
      </trkpt>
      <trkpt lat="45.05022" lon="6.04882">
        <ele>727</ele>
        <time>2024-08-14T15:30:17Z</time>
      </trkpt>
      <trkpt lat="45.05022" lon="6.04882">
        <ele>727</ele>
        <time>2024-08-14T15:30:18Z</time>
      </trkpt>
      <trkpt lat="45.05024" lon="6.04879">
        <ele>727</ele>
        <time>2024-08-14T15:30:19Z</time>
      </trkpt>
      <trkpt lat="45.05024" lon="6.04879">
        <ele>727</ele>
        <time>2024-08-14T15:30:20Z</time>
      </trkpt>
      <trkpt lat="45.05026" lon="6.04876">
        <ele>727.2</ele>
        <time>2024-08-14T15:30:21Z</time>
      </trkpt>
      <trkpt lat="45.05026" lon="6.04876">
        <ele>727</ele>
        <time>2024-08-14T15:30:22Z</time>
      </trkpt>
      <trkpt lat="45.05026" lon="6.04876">
        <ele>727</ele>
        <time>2024-08-14T15:30:23Z</time>
      </trkpt>
      <trkpt lat="45.05026" lon="6.04876">
        <ele>727</ele>
        <time>2024-08-14T15:30:24Z</time>
      </trkpt>
      <trkpt lat="45.05026" lon="6.04876">
        <ele>727</ele>
        <time>2024-08-14T15:30:25Z</time>
      </trkpt>
      <trkpt lat="45.05026" lon="6.04876">
        <ele>727.2</ele>
        <time>2024-08-14T15:30:26Z</time>
      </trkpt>
      <trkpt lat="45.05027" lon="6.04872">
        <ele>727.2</ele>
        <time>2024-08-14T15:30:27Z</time>
      </trkpt>
      <trkpt lat="45.05027" lon="6.04872">
        <ele>727</ele>
        <time>2024-08-14T15:30:28Z</time>
      </trkpt>
      <trkpt lat="45.05029" lon="6.04869">
        <ele>726.8</ele>
        <time>2024-08-14T15:30:29Z</time>
      </trkpt>
      <trkpt lat="45.0503" lon="6.04867">
        <ele>726.8</ele>
        <time>2024-08-14T15:30:30Z</time>
      </trkpt>
      <trkpt lat="45.05031" lon="6.04865">
        <ele>726.6</ele>
        <time>2024-08-14T15:30:31Z</time>
      </trkpt>
      <trkpt lat="45.05033" lon="6.04863">
        <ele>726.4</ele>
        <time>2024-08-14T15:30:32Z</time>
      </trkpt>
      <trkpt lat="45.05034" lon="6.04861">
        <ele>726.4</ele>
        <time>2024-08-14T15:30:33Z</time>
      </trkpt>
      <trkpt lat="45.05034" lon="6.04861">
        <ele>726.4</ele>
        <time>2024-08-14T15:30:34Z</time>
      </trkpt>
      <trkpt lat="45.05036" lon="6.04858">
        <ele>726.4</ele>
        <time>2024-08-14T15:30:35Z</time>
      </trkpt>
      <trkpt lat="45.05036" lon="6.04858">
        <ele>726.4</ele>
        <time>2024-08-14T15:30:36Z</time>
      </trkpt>
      <trkpt lat="45.05038" lon="6.04855">
        <ele>726.4</ele>
        <time>2024-08-14T15:30:37Z</time>
      </trkpt>
      <trkpt lat="45.05038" lon="6.04855">
        <ele>726.4</ele>
        <time>2024-08-14T15:30:38Z</time>
      </trkpt>
      <trkpt lat="45.0504" lon="6.04852">
        <ele>726.4</ele>
        <time>2024-08-14T15:30:39Z</time>
      </trkpt>
      <trkpt lat="45.0504" lon="6.04852">
        <ele>726.4</ele>
        <time>2024-08-14T15:30:40Z</time>
      </trkpt>
      <trkpt lat="45.05042" lon="6.04849">
        <ele>726.4</ele>
        <time>2024-08-14T15:30:41Z</time>
      </trkpt>
      <trkpt lat="45.05042" lon="6.04849">
        <ele>726.4</ele>
        <time>2024-08-14T15:30:42Z</time>
      </trkpt>
      <trkpt lat="45.05043" lon="6.04846">
        <ele>726.4</ele>
        <time>2024-08-14T15:30:43Z</time>
      </trkpt>
      <trkpt lat="45.05043" lon="6.04846">
        <ele>726.6</ele>
        <time>2024-08-14T15:30:44Z</time>
      </trkpt>
      <trkpt lat="45.05045" lon="6.04843">
        <ele>726.6</ele>
        <time>2024-08-14T15:30:45Z</time>
      </trkpt>
      <trkpt lat="45.05045" lon="6.04843">
        <ele>726.6</ele>
        <time>2024-08-14T15:30:46Z</time>
      </trkpt>
      <trkpt lat="45.05047" lon="6.0484">
        <ele>726.4</ele>
        <time>2024-08-14T15:30:47Z</time>
      </trkpt>
      <trkpt lat="45.05047" lon="6.0484">
        <ele>726.4</ele>
        <time>2024-08-14T15:30:48Z</time>
      </trkpt>
      <trkpt lat="45.05049" lon="6.04837">
        <ele>726.4</ele>
        <time>2024-08-14T15:30:49Z</time>
      </trkpt>
      <trkpt lat="45.05049" lon="6.04837">
        <ele>726.4</ele>
        <time>2024-08-14T15:30:50Z</time>
      </trkpt>
      <trkpt lat="45.05051" lon="6.04834">
        <ele>726.4</ele>
        <time>2024-08-14T15:30:51Z</time>
      </trkpt>
      <trkpt lat="45.05051" lon="6.04834">
        <ele>726.4</ele>
        <time>2024-08-14T15:30:52Z</time>
      </trkpt>
      <trkpt lat="45.05053" lon="6.04831">
        <ele>726.4</ele>
        <time>2024-08-14T15:30:53Z</time>
      </trkpt>
      <trkpt lat="45.05053" lon="6.04831">
        <ele>726.4</ele>
        <time>2024-08-14T15:30:54Z</time>
      </trkpt>
      <trkpt lat="45.05053" lon="6.04831">
        <ele>726.4</ele>
        <time>2024-08-14T15:30:55Z</time>
      </trkpt>
      <trkpt lat="45.05056" lon="6.04826">
        <ele>726.2</ele>
        <time>2024-08-14T15:30:56Z</time>
      </trkpt>
      <trkpt lat="45.05056" lon="6.04825">
        <ele>726.2</ele>
        <time>2024-08-14T15:30:57Z</time>
      </trkpt>
      <trkpt lat="45.05056" lon="6.04825">
        <ele>726.2</ele>
        <time>2024-08-14T15:30:58Z</time>
      </trkpt>
      <trkpt lat="45.05058" lon="6.04821">
        <ele>726.2</ele>
        <time>2024-08-14T15:30:59Z</time>
      </trkpt>
      <trkpt lat="45.05058" lon="6.04821">
        <ele>726.2</ele>
        <time>2024-08-14T15:31:00Z</time>
      </trkpt>
      <trkpt lat="45.0506" lon="6.04818">
        <ele>726.2</ele>
        <time>2024-08-14T15:31:01Z</time>
      </trkpt>
      <trkpt lat="45.0506" lon="6.04818">
        <ele>726.4</ele>
        <time>2024-08-14T15:31:02Z</time>
      </trkpt>
      <trkpt lat="45.05062" lon="6.04815">
        <ele>726.4</ele>
        <time>2024-08-14T15:31:03Z</time>
      </trkpt>
      <trkpt lat="45.05062" lon="6.04815">
        <ele>726.6</ele>
        <time>2024-08-14T15:31:04Z</time>
      </trkpt>
      <trkpt lat="45.05064" lon="6.04811">
        <ele>726.6</ele>
        <time>2024-08-14T15:31:05Z</time>
      </trkpt>
      <trkpt lat="45.05064" lon="6.04811">
        <ele>726.6</ele>
        <time>2024-08-14T15:31:06Z</time>
      </trkpt>
      <trkpt lat="45.05065" lon="6.04808">
        <ele>726.6</ele>
        <time>2024-08-14T15:31:07Z</time>
      </trkpt>
      <trkpt lat="45.05065" lon="6.04808">
        <ele>726.6</ele>
        <time>2024-08-14T15:31:08Z</time>
      </trkpt>
      <trkpt lat="45.05067" lon="6.04805">
        <ele>726.6</ele>
        <time>2024-08-14T15:31:09Z</time>
      </trkpt>
      <trkpt lat="45.05067" lon="6.04805">
        <ele>726.6</ele>
        <time>2024-08-14T15:31:10Z</time>
      </trkpt>
      <trkpt lat="45.05069" lon="6.04802">
        <ele>726.6</ele>
        <time>2024-08-14T15:31:11Z</time>
      </trkpt>
      <trkpt lat="45.05069" lon="6.04802">
        <ele>726.4</ele>
        <time>2024-08-14T15:31:12Z</time>
      </trkpt>
      <trkpt lat="45.0507" lon="6.04798">
        <ele>726.4</ele>
        <time>2024-08-14T15:31:13Z</time>
      </trkpt>
      <trkpt lat="45.0507" lon="6.04798">
        <ele>726.4</ele>
        <time>2024-08-14T15:31:14Z</time>
      </trkpt>
      <trkpt lat="45.05072" lon="6.04795">
        <ele>726.2</ele>
        <time>2024-08-14T15:31:15Z</time>
      </trkpt>
      <trkpt lat="45.05072" lon="6.04795">
        <ele>726.2</ele>
        <time>2024-08-14T15:31:16Z</time>
      </trkpt>
      <trkpt lat="45.05074" lon="6.04792">
        <ele>726.2</ele>
        <time>2024-08-14T15:31:17Z</time>
      </trkpt>
      <trkpt lat="45.05074" lon="6.04792">
        <ele>726.2</ele>
        <time>2024-08-14T15:31:18Z</time>
      </trkpt>
      <trkpt lat="45.05076" lon="6.04789">
        <ele>726.6</ele>
        <time>2024-08-14T15:31:19Z</time>
      </trkpt>
      <trkpt lat="45.05076" lon="6.04789">
        <ele>726.6</ele>
        <time>2024-08-14T15:31:20Z</time>
      </trkpt>
      <trkpt lat="45.05078" lon="6.04786">
        <ele>726.8</ele>
        <time>2024-08-14T15:31:21Z</time>
      </trkpt>
      <trkpt lat="45.05078" lon="6.04786">
        <ele>726.8</ele>
        <time>2024-08-14T15:31:22Z</time>
      </trkpt>
      <trkpt lat="45.0508" lon="6.04783">
        <ele>726.6</ele>
        <time>2024-08-14T15:31:23Z</time>
      </trkpt>
      <trkpt lat="45.0508" lon="6.04783">
        <ele>726.4</ele>
        <time>2024-08-14T15:31:24Z</time>
      </trkpt>
      <trkpt lat="45.05082" lon="6.04779">
        <ele>726.4</ele>
        <time>2024-08-14T15:31:25Z</time>
      </trkpt>
      <trkpt lat="45.05082" lon="6.04779">
        <ele>726.4</ele>
        <time>2024-08-14T15:31:26Z</time>
      </trkpt>
      <trkpt lat="45.05084" lon="6.04776">
        <ele>726.4</ele>
        <time>2024-08-14T15:31:27Z</time>
      </trkpt>
      <trkpt lat="45.05084" lon="6.04776">
        <ele>726.4</ele>
        <time>2024-08-14T15:31:28Z</time>
      </trkpt>
      <trkpt lat="45.05085" lon="6.04773">
        <ele>726</ele>
        <time>2024-08-14T15:31:29Z</time>
      </trkpt>
      <trkpt lat="45.05085" lon="6.04773">
        <ele>726</ele>
        <time>2024-08-14T15:31:30Z</time>
      </trkpt>
      <trkpt lat="45.05086" lon="6.0477">
        <ele>726.2</ele>
        <time>2024-08-14T15:31:31Z</time>
      </trkpt>
      <trkpt lat="45.05086" lon="6.0477">
        <ele>726.2</ele>
        <time>2024-08-14T15:31:32Z</time>
      </trkpt>
      <trkpt lat="45.05088" lon="6.04767">
        <ele>726.4</ele>
        <time>2024-08-14T15:31:33Z</time>
      </trkpt>
      <trkpt lat="45.05088" lon="6.04767">
        <ele>726.4</ele>
        <time>2024-08-14T15:31:34Z</time>
      </trkpt>
      <trkpt lat="45.0509" lon="6.04764">
        <ele>726.4</ele>
        <time>2024-08-14T15:31:35Z</time>
      </trkpt>
      <trkpt lat="45.0509" lon="6.04764">
        <ele>726.2</ele>
        <time>2024-08-14T15:31:36Z</time>
      </trkpt>
      <trkpt lat="45.05092" lon="6.04761">
        <ele>726.2</ele>
        <time>2024-08-14T15:31:37Z</time>
      </trkpt>
      <trkpt lat="45.05092" lon="6.04761">
        <ele>726.2</ele>
        <time>2024-08-14T15:31:38Z</time>
      </trkpt>
      <trkpt lat="45.05094" lon="6.04758">
        <ele>726.4</ele>
        <time>2024-08-14T15:31:39Z</time>
      </trkpt>
      <trkpt lat="45.05094" lon="6.04758">
        <ele>726.2</ele>
        <time>2024-08-14T15:31:40Z</time>
      </trkpt>
      <trkpt lat="45.05096" lon="6.04755">
        <ele>726.2</ele>
        <time>2024-08-14T15:31:41Z</time>
      </trkpt>
      <trkpt lat="45.05096" lon="6.04755">
        <ele>726.2</ele>
        <time>2024-08-14T15:31:42Z</time>
      </trkpt>
      <trkpt lat="45.05098" lon="6.04752">
        <ele>726.2</ele>
        <time>2024-08-14T15:31:43Z</time>
      </trkpt>
      <trkpt lat="45.05098" lon="6.04752">
        <ele>726.2</ele>
        <time>2024-08-14T15:31:44Z</time>
      </trkpt>
      <trkpt lat="45.051" lon="6.04749">
        <ele>726.4</ele>
        <time>2024-08-14T15:31:45Z</time>
      </trkpt>
      <trkpt lat="45.051" lon="6.04749">
        <ele>726.4</ele>
        <time>2024-08-14T15:31:46Z</time>
      </trkpt>
      <trkpt lat="45.05102" lon="6.04746">
        <ele>726.4</ele>
        <time>2024-08-14T15:31:47Z</time>
      </trkpt>
      <trkpt lat="45.05102" lon="6.04746">
        <ele>726.4</ele>
        <time>2024-08-14T15:31:48Z</time>
      </trkpt>
      <trkpt lat="45.05104" lon="6.04743">
        <ele>726.6</ele>
        <time>2024-08-14T15:31:49Z</time>
      </trkpt>
      <trkpt lat="45.05104" lon="6.04743">
        <ele>726.6</ele>
        <time>2024-08-14T15:31:50Z</time>
      </trkpt>
      <trkpt lat="45.05106" lon="6.0474">
        <ele>726.6</ele>
        <time>2024-08-14T15:31:51Z</time>
      </trkpt>
      <trkpt lat="45.05106" lon="6.0474">
        <ele>726.6</ele>
        <time>2024-08-14T15:31:52Z</time>
      </trkpt>
      <trkpt lat="45.05108" lon="6.04737">
        <ele>726.4</ele>
        <time>2024-08-14T15:31:53Z</time>
      </trkpt>
      <trkpt lat="45.05108" lon="6.04737">
        <ele>726.4</ele>
        <time>2024-08-14T15:31:54Z</time>
      </trkpt>
      <trkpt lat="45.05109" lon="6.04734">
        <ele>726.2</ele>
        <time>2024-08-14T15:31:55Z</time>
      </trkpt>
      <trkpt lat="45.05109" lon="6.04734">
        <ele>726.2</ele>
        <time>2024-08-14T15:31:56Z</time>
      </trkpt>
      <trkpt lat="45.05111" lon="6.04731">
        <ele>726</ele>
        <time>2024-08-14T15:31:57Z</time>
      </trkpt>
      <trkpt lat="45.05111" lon="6.04731">
        <ele>726</ele>
        <time>2024-08-14T15:31:58Z</time>
      </trkpt>
      <trkpt lat="45.05113" lon="6.04728">
        <ele>726.2</ele>
        <time>2024-08-14T15:31:59Z</time>
      </trkpt>
      <trkpt lat="45.05113" lon="6.04728">
        <ele>726.4</ele>
        <time>2024-08-14T15:32:00Z</time>
      </trkpt>
      <trkpt lat="45.05115" lon="6.04724">
        <ele>726.4</ele>
        <time>2024-08-14T15:32:01Z</time>
      </trkpt>
      <trkpt lat="45.05115" lon="6.04724">
        <ele>726.6</ele>
        <time>2024-08-14T15:32:02Z</time>
      </trkpt>
      <trkpt lat="45.05117" lon="6.04721">
        <ele>726.6</ele>
        <time>2024-08-14T15:32:03Z</time>
      </trkpt>
      <trkpt lat="45.05117" lon="6.04721">
        <ele>726.6</ele>
        <time>2024-08-14T15:32:04Z</time>
      </trkpt>
      <trkpt lat="45.05118" lon="6.04718">
        <ele>726.4</ele>
        <time>2024-08-14T15:32:05Z</time>
      </trkpt>
      <trkpt lat="45.05118" lon="6.04718">
        <ele>726.4</ele>
        <time>2024-08-14T15:32:06Z</time>
      </trkpt>
      <trkpt lat="45.0512" lon="6.04715">
        <ele>726.4</ele>
        <time>2024-08-14T15:32:07Z</time>
      </trkpt>
      <trkpt lat="45.0512" lon="6.04715">
        <ele>726.4</ele>
        <time>2024-08-14T15:32:08Z</time>
      </trkpt>
      <trkpt lat="45.05122" lon="6.04712">
        <ele>726.2</ele>
        <time>2024-08-14T15:32:09Z</time>
      </trkpt>
      <trkpt lat="45.05122" lon="6.04712">
        <ele>726.2</ele>
        <time>2024-08-14T15:32:10Z</time>
      </trkpt>
      <trkpt lat="45.05125" lon="6.0471">
        <ele>726.2</ele>
        <time>2024-08-14T15:32:11Z</time>
      </trkpt>
      <trkpt lat="45.05125" lon="6.0471">
        <ele>726.6</ele>
        <time>2024-08-14T15:32:12Z</time>
      </trkpt>
      <trkpt lat="45.05127" lon="6.04707">
        <ele>727.2</ele>
        <time>2024-08-14T15:32:13Z</time>
      </trkpt>
      <trkpt lat="45.05127" lon="6.04707">
        <ele>727.2</ele>
        <time>2024-08-14T15:32:14Z</time>
      </trkpt>
      <trkpt lat="45.05129" lon="6.04704">
        <ele>727</ele>
        <time>2024-08-14T15:32:15Z</time>
      </trkpt>
      <trkpt lat="45.05129" lon="6.04704">
        <ele>726.8</ele>
        <time>2024-08-14T15:32:16Z</time>
      </trkpt>
      <trkpt lat="45.05132" lon="6.04701">
        <ele>726.4</ele>
        <time>2024-08-14T15:32:17Z</time>
      </trkpt>
      <trkpt lat="45.05132" lon="6.04701">
        <ele>726.4</ele>
        <time>2024-08-14T15:32:18Z</time>
      </trkpt>
      <trkpt lat="45.05133" lon="6.04698">
        <ele>726.4</ele>
        <time>2024-08-14T15:32:19Z</time>
      </trkpt>
      <trkpt lat="45.05133" lon="6.04698">
        <ele>726.4</ele>
        <time>2024-08-14T15:32:20Z</time>
      </trkpt>
      <trkpt lat="45.05135" lon="6.04695">
        <ele>726.4</ele>
        <time>2024-08-14T15:32:21Z</time>
      </trkpt>
      <trkpt lat="45.05135" lon="6.04695">
        <ele>726.4</ele>
        <time>2024-08-14T15:32:22Z</time>
      </trkpt>
      <trkpt lat="45.05137" lon="6.04692">
        <ele>726.2</ele>
        <time>2024-08-14T15:32:23Z</time>
      </trkpt>
      <trkpt lat="45.05137" lon="6.04692">
        <ele>726.2</ele>
        <time>2024-08-14T15:32:24Z</time>
      </trkpt>
      <trkpt lat="45.0514" lon="6.04688">
        <ele>726.2</ele>
        <time>2024-08-14T15:32:25Z</time>
      </trkpt>
      <trkpt lat="45.0514" lon="6.04688">
        <ele>726.6</ele>
        <time>2024-08-14T15:32:26Z</time>
      </trkpt>
      <trkpt lat="45.05141" lon="6.04685">
        <ele>726.6</ele>
        <time>2024-08-14T15:32:27Z</time>
      </trkpt>
      <trkpt lat="45.05141" lon="6.04685">
        <ele>726.6</ele>
        <time>2024-08-14T15:32:28Z</time>
      </trkpt>
      <trkpt lat="45.05144" lon="6.04683">
        <ele>726.6</ele>
        <time>2024-08-14T15:32:29Z</time>
      </trkpt>
      <trkpt lat="45.05144" lon="6.04683">
        <ele>726.4</ele>
        <time>2024-08-14T15:32:30Z</time>
      </trkpt>
      <trkpt lat="45.05146" lon="6.0468">
        <ele>726</ele>
        <time>2024-08-14T15:32:31Z</time>
      </trkpt>
      <trkpt lat="45.05147" lon="6.04678">
        <ele>726</ele>
        <time>2024-08-14T15:32:32Z</time>
      </trkpt>
      <trkpt lat="45.05147" lon="6.04678">
        <ele>726</ele>
        <time>2024-08-14T15:32:33Z</time>
      </trkpt>
      <trkpt lat="45.05147" lon="6.04678">
        <ele>726</ele>
        <time>2024-08-14T15:32:34Z</time>
      </trkpt>
      <trkpt lat="45.0515" lon="6.04674">
        <ele>726.2</ele>
        <time>2024-08-14T15:32:35Z</time>
      </trkpt>
      <trkpt lat="45.05151" lon="6.04672">
        <ele>726.2</ele>
        <time>2024-08-14T15:32:36Z</time>
      </trkpt>
      <trkpt lat="45.05151" lon="6.04672">
        <ele>726.4</ele>
        <time>2024-08-14T15:32:37Z</time>
      </trkpt>
      <trkpt lat="45.05154" lon="6.0467">
        <ele>726.4</ele>
        <time>2024-08-14T15:32:38Z</time>
      </trkpt>
      <trkpt lat="45.05154" lon="6.0467">
        <ele>726.4</ele>
        <time>2024-08-14T15:32:39Z</time>
      </trkpt>
      <trkpt lat="45.05156" lon="6.04667">
        <ele>726.2</ele>
        <time>2024-08-14T15:32:40Z</time>
      </trkpt>
      <trkpt lat="45.05156" lon="6.04667">
        <ele>725.8</ele>
        <time>2024-08-14T15:32:41Z</time>
      </trkpt>
      <trkpt lat="45.05158" lon="6.04664">
        <ele>725.8</ele>
        <time>2024-08-14T15:32:42Z</time>
      </trkpt>
      <trkpt lat="45.05158" lon="6.04664">
        <ele>725.8</ele>
        <time>2024-08-14T15:32:43Z</time>
      </trkpt>
      <trkpt lat="45.05161" lon="6.04662">
        <ele>725.8</ele>
        <time>2024-08-14T15:32:44Z</time>
      </trkpt>
      <trkpt lat="45.05161" lon="6.04662">
        <ele>725.8</ele>
        <time>2024-08-14T15:32:45Z</time>
      </trkpt>
      <trkpt lat="45.05162" lon="6.04658">
        <ele>725.8</ele>
        <time>2024-08-14T15:32:46Z</time>
      </trkpt>
      <trkpt lat="45.05162" lon="6.04658">
        <ele>725.8</ele>
        <time>2024-08-14T15:32:47Z</time>
      </trkpt>
      <trkpt lat="45.05164" lon="6.04655">
        <ele>725.4</ele>
        <time>2024-08-14T15:32:48Z</time>
      </trkpt>
      <trkpt lat="45.05164" lon="6.04655">
        <ele>725.4</ele>
        <time>2024-08-14T15:32:49Z</time>
      </trkpt>
      <trkpt lat="45.05166" lon="6.04652">
        <ele>725.4</ele>
        <time>2024-08-14T15:32:50Z</time>
      </trkpt>
      <trkpt lat="45.05166" lon="6.04652">
        <ele>725.4</ele>
        <time>2024-08-14T15:32:51Z</time>
      </trkpt>
      <trkpt lat="45.05169" lon="6.0465">
        <ele>725.6</ele>
        <time>2024-08-14T15:32:52Z</time>
      </trkpt>
      <trkpt lat="45.05169" lon="6.0465">
        <ele>725.6</ele>
        <time>2024-08-14T15:32:53Z</time>
      </trkpt>
      <trkpt lat="45.05171" lon="6.04647">
        <ele>725.6</ele>
        <time>2024-08-14T15:32:54Z</time>
      </trkpt>
      <trkpt lat="45.05171" lon="6.04647">
        <ele>725.6</ele>
        <time>2024-08-14T15:32:55Z</time>
      </trkpt>
      <trkpt lat="45.05173" lon="6.04644">
        <ele>725.6</ele>
        <time>2024-08-14T15:32:56Z</time>
      </trkpt>
      <trkpt lat="45.05173" lon="6.04644">
        <ele>725.4</ele>
        <time>2024-08-14T15:32:57Z</time>
      </trkpt>
      <trkpt lat="45.05175" lon="6.04642">
        <ele>725.4</ele>
        <time>2024-08-14T15:32:58Z</time>
      </trkpt>
      <trkpt lat="45.05175" lon="6.04642">
        <ele>725.8</ele>
        <time>2024-08-14T15:32:59Z</time>
      </trkpt>
      <trkpt lat="45.05177" lon="6.0464">
        <ele>725.8</ele>
        <time>2024-08-14T15:33:00Z</time>
      </trkpt>
      <trkpt lat="45.05177" lon="6.0464">
        <ele>725.4</ele>
        <time>2024-08-14T15:33:01Z</time>
      </trkpt>
      <trkpt lat="45.05179" lon="6.04637">
        <ele>725.2</ele>
        <time>2024-08-14T15:33:02Z</time>
      </trkpt>
      <trkpt lat="45.05179" lon="6.04637">
        <ele>725.2</ele>
        <time>2024-08-14T15:33:03Z</time>
      </trkpt>
      <trkpt lat="45.05181" lon="6.04634">
        <ele>725.2</ele>
        <time>2024-08-14T15:33:04Z</time>
      </trkpt>
      <trkpt lat="45.05181" lon="6.04634">
        <ele>725.6</ele>
        <time>2024-08-14T15:33:05Z</time>
      </trkpt>
      <trkpt lat="45.05183" lon="6.04631">
        <ele>726</ele>
        <time>2024-08-14T15:33:06Z</time>
      </trkpt>
      <trkpt lat="45.05183" lon="6.04631">
        <ele>726</ele>
        <time>2024-08-14T15:33:07Z</time>
      </trkpt>
      <trkpt lat="45.05185" lon="6.04628">
        <ele>725.6</ele>
        <time>2024-08-14T15:33:08Z</time>
      </trkpt>
      <trkpt lat="45.05187" lon="6.04627">
        <ele>725.6</ele>
        <time>2024-08-14T15:33:09Z</time>
      </trkpt>
      <trkpt lat="45.05187" lon="6.04627">
        <ele>725.2</ele>
        <time>2024-08-14T15:33:10Z</time>
      </trkpt>
      <trkpt lat="45.05189" lon="6.04624">
        <ele>725.2</ele>
        <time>2024-08-14T15:33:11Z</time>
      </trkpt>
      <trkpt lat="45.05189" lon="6.04624">
        <ele>725.4</ele>
        <time>2024-08-14T15:33:12Z</time>
      </trkpt>
      <trkpt lat="45.05189" lon="6.04624">
        <ele>725.4</ele>
        <time>2024-08-14T15:33:13Z</time>
      </trkpt>
      <trkpt lat="45.05192" lon="6.0462">
        <ele>725.4</ele>
        <time>2024-08-14T15:33:14Z</time>
      </trkpt>
      <trkpt lat="45.05193" lon="6.04619">
        <ele>725.4</ele>
        <time>2024-08-14T15:33:15Z</time>
      </trkpt>
      <trkpt lat="45.05193" lon="6.04619">
        <ele>725.2</ele>
        <time>2024-08-14T15:33:16Z</time>
      </trkpt>
      <trkpt lat="45.05195" lon="6.04616">
        <ele>725.2</ele>
        <time>2024-08-14T15:33:17Z</time>
      </trkpt>
      <trkpt lat="45.05195" lon="6.04616">
        <ele>725.4</ele>
        <time>2024-08-14T15:33:18Z</time>
      </trkpt>
      <trkpt lat="45.05197" lon="6.04613">
        <ele>725.4</ele>
        <time>2024-08-14T15:33:19Z</time>
      </trkpt>
      <trkpt lat="45.05197" lon="6.04613">
        <ele>725.4</ele>
        <time>2024-08-14T15:33:20Z</time>
      </trkpt>
      <trkpt lat="45.05199" lon="6.0461">
        <ele>725.6</ele>
        <time>2024-08-14T15:33:21Z</time>
      </trkpt>
      <trkpt lat="45.05199" lon="6.0461">
        <ele>725.6</ele>
        <time>2024-08-14T15:33:22Z</time>
      </trkpt>
      <trkpt lat="45.05201" lon="6.04607">
        <ele>725.6</ele>
        <time>2024-08-14T15:33:23Z</time>
      </trkpt>
      <trkpt lat="45.05201" lon="6.04607">
        <ele>725.4</ele>
        <time>2024-08-14T15:33:24Z</time>
      </trkpt>
      <trkpt lat="45.05201" lon="6.04607">
        <ele>725.4</ele>
        <time>2024-08-14T15:33:25Z</time>
      </trkpt>
      <trkpt lat="45.05205" lon="6.04604">
        <ele>725.6</ele>
        <time>2024-08-14T15:33:26Z</time>
      </trkpt>
      <trkpt lat="45.05205" lon="6.04602">
        <ele>725.4</ele>
        <time>2024-08-14T15:33:27Z</time>
      </trkpt>
      <trkpt lat="45.05205" lon="6.04602">
        <ele>725.4</ele>
        <time>2024-08-14T15:33:28Z</time>
      </trkpt>
      <trkpt lat="45.05208" lon="6.04599">
        <ele>726</ele>
        <time>2024-08-14T15:33:29Z</time>
      </trkpt>
      <trkpt lat="45.05208" lon="6.04599">
        <ele>726</ele>
        <time>2024-08-14T15:33:30Z</time>
      </trkpt>
      <trkpt lat="45.0521" lon="6.04596">
        <ele>725.8</ele>
        <time>2024-08-14T15:33:31Z</time>
      </trkpt>
      <trkpt lat="45.0521" lon="6.04596">
        <ele>725.6</ele>
        <time>2024-08-14T15:33:32Z</time>
      </trkpt>
      <trkpt lat="45.05212" lon="6.04593">
        <ele>725.6</ele>
        <time>2024-08-14T15:33:33Z</time>
      </trkpt>
      <trkpt lat="45.05212" lon="6.04593">
        <ele>725.8</ele>
        <time>2024-08-14T15:33:34Z</time>
      </trkpt>
      <trkpt lat="45.05214" lon="6.0459">
        <ele>725.8</ele>
        <time>2024-08-14T15:33:35Z</time>
      </trkpt>
      <trkpt lat="45.05214" lon="6.0459">
        <ele>725.8</ele>
        <time>2024-08-14T15:33:36Z</time>
      </trkpt>
      <trkpt lat="45.05217" lon="6.04588">
        <ele>725.8</ele>
        <time>2024-08-14T15:33:37Z</time>
      </trkpt>
      <trkpt lat="45.05217" lon="6.04588">
        <ele>725.8</ele>
        <time>2024-08-14T15:33:38Z</time>
      </trkpt>
      <trkpt lat="45.05219" lon="6.04586">
        <ele>725.8</ele>
        <time>2024-08-14T15:33:39Z</time>
      </trkpt>
      <trkpt lat="45.05219" lon="6.04586">
        <ele>725.6</ele>
        <time>2024-08-14T15:33:40Z</time>
      </trkpt>
      <trkpt lat="45.05221" lon="6.04583">
        <ele>725.6</ele>
        <time>2024-08-14T15:33:41Z</time>
      </trkpt>
      <trkpt lat="45.05221" lon="6.04583">
        <ele>725.6</ele>
        <time>2024-08-14T15:33:42Z</time>
      </trkpt>
      <trkpt lat="45.05223" lon="6.0458">
        <ele>725.8</ele>
        <time>2024-08-14T15:33:43Z</time>
      </trkpt>
      <trkpt lat="45.05223" lon="6.0458">
        <ele>725.8</ele>
        <time>2024-08-14T15:33:44Z</time>
      </trkpt>
      <trkpt lat="45.05225" lon="6.04578">
        <ele>725.8</ele>
        <time>2024-08-14T15:33:45Z</time>
      </trkpt>
      <trkpt lat="45.05225" lon="6.04578">
        <ele>725.6</ele>
        <time>2024-08-14T15:33:46Z</time>
      </trkpt>
      <trkpt lat="45.05228" lon="6.04575">
        <ele>725.6</ele>
        <time>2024-08-14T15:33:47Z</time>
      </trkpt>
      <trkpt lat="45.05228" lon="6.04575">
        <ele>725.6</ele>
        <time>2024-08-14T15:33:48Z</time>
      </trkpt>
      <trkpt lat="45.0523" lon="6.04573">
        <ele>725.6</ele>
        <time>2024-08-14T15:33:49Z</time>
      </trkpt>
      <trkpt lat="45.0523" lon="6.04573">
        <ele>725.6</ele>
        <time>2024-08-14T15:33:50Z</time>
      </trkpt>
      <trkpt lat="45.05232" lon="6.0457">
        <ele>725.4</ele>
        <time>2024-08-14T15:33:51Z</time>
      </trkpt>
      <trkpt lat="45.05232" lon="6.0457">
        <ele>725.4</ele>
        <time>2024-08-14T15:33:52Z</time>
      </trkpt>
      <trkpt lat="45.05232" lon="6.0457">
        <ele>725.4</ele>
        <time>2024-08-14T15:33:53Z</time>
      </trkpt>
      <trkpt lat="45.05235" lon="6.04566">
        <ele>725.4</ele>
        <time>2024-08-14T15:33:54Z</time>
      </trkpt>
      <trkpt lat="45.05237" lon="6.04564">
        <ele>725.2</ele>
        <time>2024-08-14T15:33:55Z</time>
      </trkpt>
      <trkpt lat="45.05237" lon="6.04564">
        <ele>725.2</ele>
        <time>2024-08-14T15:33:56Z</time>
      </trkpt>
      <trkpt lat="45.05238" lon="6.04562">
        <ele>725.2</ele>
        <time>2024-08-14T15:33:57Z</time>
      </trkpt>
      <trkpt lat="45.05238" lon="6.04562">
        <ele>725</ele>
        <time>2024-08-14T15:33:58Z</time>
      </trkpt>
      <trkpt lat="45.05241" lon="6.04559">
        <ele>725</ele>
        <time>2024-08-14T15:33:59Z</time>
      </trkpt>
      <trkpt lat="45.05241" lon="6.04559">
        <ele>725.4</ele>
        <time>2024-08-14T15:34:00Z</time>
      </trkpt>
      <trkpt lat="45.05243" lon="6.04556">
        <ele>725.4</ele>
        <time>2024-08-14T15:34:01Z</time>
      </trkpt>
      <trkpt lat="45.05245" lon="6.04555">
        <ele>725.2</ele>
        <time>2024-08-14T15:34:02Z</time>
      </trkpt>
      <trkpt lat="45.05245" lon="6.04555">
        <ele>725.2</ele>
        <time>2024-08-14T15:34:03Z</time>
      </trkpt>
      <trkpt lat="45.05247" lon="6.04553">
        <ele>725.2</ele>
        <time>2024-08-14T15:34:04Z</time>
      </trkpt>
      <trkpt lat="45.05247" lon="6.04553">
        <ele>725.2</ele>
        <time>2024-08-14T15:34:05Z</time>
      </trkpt>
      <trkpt lat="45.05249" lon="6.0455">
        <ele>725.2</ele>
        <time>2024-08-14T15:34:06Z</time>
      </trkpt>
      <trkpt lat="45.05249" lon="6.0455">
        <ele>725.2</ele>
        <time>2024-08-14T15:34:07Z</time>
      </trkpt>
      <trkpt lat="45.05249" lon="6.0455">
        <ele>725.4</ele>
        <time>2024-08-14T15:34:08Z</time>
      </trkpt>
      <trkpt lat="45.05252" lon="6.04546">
        <ele>725.4</ele>
        <time>2024-08-14T15:34:09Z</time>
      </trkpt>
      <trkpt lat="45.05253" lon="6.04544">
        <ele>725.4</ele>
        <time>2024-08-14T15:34:10Z</time>
      </trkpt>
      <trkpt lat="45.05253" lon="6.04544">
        <ele>725.2</ele>
        <time>2024-08-14T15:34:11Z</time>
      </trkpt>
      <trkpt lat="45.05255" lon="6.04541">
        <ele>725.2</ele>
        <time>2024-08-14T15:34:12Z</time>
      </trkpt>
      <trkpt lat="45.05255" lon="6.04541">
        <ele>725.4</ele>
        <time>2024-08-14T15:34:13Z</time>
      </trkpt>
      <trkpt lat="45.05257" lon="6.04538">
        <ele>725.4</ele>
        <time>2024-08-14T15:34:14Z</time>
      </trkpt>
      <trkpt lat="45.05257" lon="6.04538">
        <ele>725.4</ele>
        <time>2024-08-14T15:34:15Z</time>
      </trkpt>
      <trkpt lat="45.05259" lon="6.04536">
        <ele>725.4</ele>
        <time>2024-08-14T15:34:16Z</time>
      </trkpt>
      <trkpt lat="45.05261" lon="6.04535">
        <ele>725.6</ele>
        <time>2024-08-14T15:34:17Z</time>
      </trkpt>
      <trkpt lat="45.05261" lon="6.04535">
        <ele>725.6</ele>
        <time>2024-08-14T15:34:18Z</time>
      </trkpt>
      <trkpt lat="45.05263" lon="6.04532">
        <ele>725.6</ele>
        <time>2024-08-14T15:34:19Z</time>
      </trkpt>
      <trkpt lat="45.05263" lon="6.04532">
        <ele>725.4</ele>
        <time>2024-08-14T15:34:20Z</time>
      </trkpt>
      <trkpt lat="45.05265" lon="6.04528">
        <ele>725.4</ele>
        <time>2024-08-14T15:34:21Z</time>
      </trkpt>
      <trkpt lat="45.05265" lon="6.04528">
        <ele>725.8</ele>
        <time>2024-08-14T15:34:22Z</time>
      </trkpt>
      <trkpt lat="45.05267" lon="6.04525">
        <ele>725.8</ele>
        <time>2024-08-14T15:34:23Z</time>
      </trkpt>
      <trkpt lat="45.05267" lon="6.04525">
        <ele>725.4</ele>
        <time>2024-08-14T15:34:24Z</time>
      </trkpt>
      <trkpt lat="45.05269" lon="6.04522">
        <ele>725</ele>
        <time>2024-08-14T15:34:25Z</time>
      </trkpt>
      <trkpt lat="45.05269" lon="6.04522">
        <ele>725</ele>
        <time>2024-08-14T15:34:26Z</time>
      </trkpt>
      <trkpt lat="45.05272" lon="6.0452">
        <ele>725</ele>
        <time>2024-08-14T15:34:27Z</time>
      </trkpt>
      <trkpt lat="45.05272" lon="6.0452">
        <ele>725</ele>
        <time>2024-08-14T15:34:28Z</time>
      </trkpt>
      <trkpt lat="45.05274" lon="6.04517">
        <ele>724.8</ele>
        <time>2024-08-14T15:34:29Z</time>
      </trkpt>
      <trkpt lat="45.05274" lon="6.04517">
        <ele>724.8</ele>
        <time>2024-08-14T15:34:30Z</time>
      </trkpt>
      <trkpt lat="45.05276" lon="6.04514">
        <ele>724.8</ele>
        <time>2024-08-14T15:34:31Z</time>
      </trkpt>
      <trkpt lat="45.05276" lon="6.04514">
        <ele>724.8</ele>
        <time>2024-08-14T15:34:32Z</time>
      </trkpt>
      <trkpt lat="45.05278" lon="6.04512">
        <ele>724.6</ele>
        <time>2024-08-14T15:34:33Z</time>
      </trkpt>
      <trkpt lat="45.05278" lon="6.04512">
        <ele>724.6</ele>
        <time>2024-08-14T15:34:34Z</time>
      </trkpt>
      <trkpt lat="45.05281" lon="6.04509">
        <ele>724.6</ele>
        <time>2024-08-14T15:34:35Z</time>
      </trkpt>
      <trkpt lat="45.05281" lon="6.04509">
        <ele>724.4</ele>
        <time>2024-08-14T15:34:36Z</time>
      </trkpt>
      <trkpt lat="45.05283" lon="6.04506">
        <ele>724.4</ele>
        <time>2024-08-14T15:34:37Z</time>
      </trkpt>
      <trkpt lat="45.05285" lon="6.04505">
        <ele>724.2</ele>
        <time>2024-08-14T15:34:38Z</time>
      </trkpt>
      <trkpt lat="45.05285" lon="6.04505">
        <ele>724</ele>
        <time>2024-08-14T15:34:39Z</time>
      </trkpt>
      <trkpt lat="45.05287" lon="6.04502">
        <ele>724</ele>
        <time>2024-08-14T15:34:40Z</time>
      </trkpt>
      <trkpt lat="45.05287" lon="6.04502">
        <ele>724.2</ele>
        <time>2024-08-14T15:34:41Z</time>
      </trkpt>
      <trkpt lat="45.05289" lon="6.04499">
        <ele>724.4</ele>
        <time>2024-08-14T15:34:42Z</time>
      </trkpt>
      <trkpt lat="45.05289" lon="6.04499">
        <ele>724.4</ele>
        <time>2024-08-14T15:34:43Z</time>
      </trkpt>
      <trkpt lat="45.05292" lon="6.04496">
        <ele>724.2</ele>
        <time>2024-08-14T15:34:44Z</time>
      </trkpt>
      <trkpt lat="45.05292" lon="6.04496">
        <ele>724.2</ele>
        <time>2024-08-14T15:34:45Z</time>
      </trkpt>
      <trkpt lat="45.05294" lon="6.04494">
        <ele>724.2</ele>
        <time>2024-08-14T15:34:46Z</time>
      </trkpt>
      <trkpt lat="45.05294" lon="6.04494">
        <ele>724.8</ele>
        <time>2024-08-14T15:34:47Z</time>
      </trkpt>
      <trkpt lat="45.05295" lon="6.04491">
        <ele>725</ele>
        <time>2024-08-14T15:34:48Z</time>
      </trkpt>
      <trkpt lat="45.05295" lon="6.04491">
        <ele>725</ele>
        <time>2024-08-14T15:34:49Z</time>
      </trkpt>
      <trkpt lat="45.05298" lon="6.04488">
        <ele>724.6</ele>
        <time>2024-08-14T15:34:50Z</time>
      </trkpt>
      <trkpt lat="45.05298" lon="6.04488">
        <ele>724.6</ele>
        <time>2024-08-14T15:34:51Z</time>
      </trkpt>
      <trkpt lat="45.053" lon="6.04485">
        <ele>724.6</ele>
        <time>2024-08-14T15:34:52Z</time>
      </trkpt>
      <trkpt lat="45.053" lon="6.04485">
        <ele>724.6</ele>
        <time>2024-08-14T15:34:53Z</time>
      </trkpt>
      <trkpt lat="45.05302" lon="6.04482">
        <ele>724.6</ele>
        <time>2024-08-14T15:34:54Z</time>
      </trkpt>
      <trkpt lat="45.05302" lon="6.04482">
        <ele>724.4</ele>
        <time>2024-08-14T15:34:55Z</time>
      </trkpt>
      <trkpt lat="45.05304" lon="6.04478">
        <ele>724.4</ele>
        <time>2024-08-14T15:34:56Z</time>
      </trkpt>
      <trkpt lat="45.05304" lon="6.04478">
        <ele>724.4</ele>
        <time>2024-08-14T15:34:57Z</time>
      </trkpt>
      <trkpt lat="45.05307" lon="6.04476">
        <ele>724.4</ele>
        <time>2024-08-14T15:34:58Z</time>
      </trkpt>
      <trkpt lat="45.05307" lon="6.04476">
        <ele>724.4</ele>
        <time>2024-08-14T15:34:59Z</time>
      </trkpt>
      <trkpt lat="45.05309" lon="6.04473">
        <ele>724.4</ele>
        <time>2024-08-14T15:35:00Z</time>
      </trkpt>
      <trkpt lat="45.05309" lon="6.04473">
        <ele>724.4</ele>
        <time>2024-08-14T15:35:01Z</time>
      </trkpt>
      <trkpt lat="45.05311" lon="6.0447">
        <ele>724.4</ele>
        <time>2024-08-14T15:35:02Z</time>
      </trkpt>
      <trkpt lat="45.05311" lon="6.0447">
        <ele>724.4</ele>
        <time>2024-08-14T15:35:03Z</time>
      </trkpt>
      <trkpt lat="45.05314" lon="6.04467">
        <ele>724.2</ele>
        <time>2024-08-14T15:35:04Z</time>
      </trkpt>
      <trkpt lat="45.05314" lon="6.04467">
        <ele>724.2</ele>
        <time>2024-08-14T15:35:05Z</time>
      </trkpt>
      <trkpt lat="45.05316" lon="6.04464">
        <ele>724.2</ele>
        <time>2024-08-14T15:35:06Z</time>
      </trkpt>
      <trkpt lat="45.05316" lon="6.04464">
        <ele>724</ele>
        <time>2024-08-14T15:35:07Z</time>
      </trkpt>
      <trkpt lat="45.05318" lon="6.04461">
        <ele>724</ele>
        <time>2024-08-14T15:35:08Z</time>
      </trkpt>
      <trkpt lat="45.05319" lon="6.04459">
        <ele>724</ele>
        <time>2024-08-14T15:35:09Z</time>
      </trkpt>
      <trkpt lat="45.05319" lon="6.04459">
        <ele>724</ele>
        <time>2024-08-14T15:35:10Z</time>
      </trkpt>
      <trkpt lat="45.05322" lon="6.04456">
        <ele>724.2</ele>
        <time>2024-08-14T15:35:11Z</time>
      </trkpt>
      <trkpt lat="45.05322" lon="6.04456">
        <ele>724</ele>
        <time>2024-08-14T15:35:12Z</time>
      </trkpt>
      <trkpt lat="45.05324" lon="6.04453">
        <ele>724</ele>
        <time>2024-08-14T15:35:13Z</time>
      </trkpt>
      <trkpt lat="45.05324" lon="6.04453">
        <ele>724</ele>
        <time>2024-08-14T15:35:14Z</time>
      </trkpt>
      <trkpt lat="45.05326" lon="6.0445">
        <ele>724</ele>
        <time>2024-08-14T15:35:15Z</time>
      </trkpt>
      <trkpt lat="45.05326" lon="6.0445">
        <ele>724</ele>
        <time>2024-08-14T15:35:16Z</time>
      </trkpt>
      <trkpt lat="45.05328" lon="6.04447">
        <ele>724</ele>
        <time>2024-08-14T15:35:17Z</time>
      </trkpt>
      <trkpt lat="45.05328" lon="6.04447">
        <ele>723.8</ele>
        <time>2024-08-14T15:35:18Z</time>
      </trkpt>
      <trkpt lat="45.05328" lon="6.04447">
        <ele>723.8</ele>
        <time>2024-08-14T15:35:19Z</time>
      </trkpt>
      <trkpt lat="45.05331" lon="6.04442">
        <ele>724</ele>
        <time>2024-08-14T15:35:20Z</time>
      </trkpt>
      <trkpt lat="45.05332" lon="6.04441">
        <ele>724.2</ele>
        <time>2024-08-14T15:35:21Z</time>
      </trkpt>
      <trkpt lat="45.05332" lon="6.04441">
        <ele>724.2</ele>
        <time>2024-08-14T15:35:22Z</time>
      </trkpt>
      <trkpt lat="45.05334" lon="6.04438">
        <ele>724.2</ele>
        <time>2024-08-14T15:35:23Z</time>
      </trkpt>
      <trkpt lat="45.05334" lon="6.04438">
        <ele>724.2</ele>
        <time>2024-08-14T15:35:24Z</time>
      </trkpt>
      <trkpt lat="45.05336" lon="6.04435">
        <ele>724.4</ele>
        <time>2024-08-14T15:35:25Z</time>
      </trkpt>
      <trkpt lat="45.05336" lon="6.04435">
        <ele>724.4</ele>
        <time>2024-08-14T15:35:26Z</time>
      </trkpt>
      <trkpt lat="45.05339" lon="6.04433">
        <ele>724.2</ele>
        <time>2024-08-14T15:35:27Z</time>
      </trkpt>
      <trkpt lat="45.05339" lon="6.04433">
        <ele>724.2</ele>
        <time>2024-08-14T15:35:28Z</time>
      </trkpt>
      <trkpt lat="45.05341" lon="6.0443">
        <ele>724.2</ele>
        <time>2024-08-14T15:35:29Z</time>
      </trkpt>
      <trkpt lat="45.05341" lon="6.0443">
        <ele>724.2</ele>
        <time>2024-08-14T15:35:30Z</time>
      </trkpt>
      <trkpt lat="45.05343" lon="6.04427">
        <ele>724.2</ele>
        <time>2024-08-14T15:35:31Z</time>
      </trkpt>
      <trkpt lat="45.05343" lon="6.04427">
        <ele>724.2</ele>
        <time>2024-08-14T15:35:32Z</time>
      </trkpt>
      <trkpt lat="45.05346" lon="6.04424">
        <ele>724</ele>
        <time>2024-08-14T15:35:33Z</time>
      </trkpt>
      <trkpt lat="45.05346" lon="6.04424">
        <ele>724</ele>
        <time>2024-08-14T15:35:34Z</time>
      </trkpt>
      <trkpt lat="45.05348" lon="6.04422">
        <ele>724</ele>
        <time>2024-08-14T15:35:35Z</time>
      </trkpt>
      <trkpt lat="45.05348" lon="6.04422">
        <ele>724</ele>
        <time>2024-08-14T15:35:36Z</time>
      </trkpt>
      <trkpt lat="45.0535" lon="6.04419">
        <ele>724</ele>
        <time>2024-08-14T15:35:37Z</time>
      </trkpt>
      <trkpt lat="45.0535" lon="6.04419">
        <ele>724</ele>
        <time>2024-08-14T15:35:38Z</time>
      </trkpt>
      <trkpt lat="45.05352" lon="6.04416">
        <ele>724.2</ele>
        <time>2024-08-14T15:35:39Z</time>
      </trkpt>
      <trkpt lat="45.05352" lon="6.04416">
        <ele>724.2</ele>
        <time>2024-08-14T15:35:40Z</time>
      </trkpt>
      <trkpt lat="45.05355" lon="6.04413">
        <ele>724.2</ele>
        <time>2024-08-14T15:35:41Z</time>
      </trkpt>
      <trkpt lat="45.05355" lon="6.04413">
        <ele>724.2</ele>
        <time>2024-08-14T15:35:42Z</time>
      </trkpt>
      <trkpt lat="45.05357" lon="6.04411">
        <ele>724</ele>
        <time>2024-08-14T15:35:43Z</time>
      </trkpt>
      <trkpt lat="45.05357" lon="6.04411">
        <ele>724</ele>
        <time>2024-08-14T15:35:44Z</time>
      </trkpt>
      <trkpt lat="45.05359" lon="6.04408">
        <ele>724</ele>
        <time>2024-08-14T15:35:45Z</time>
      </trkpt>
      <trkpt lat="45.05359" lon="6.04408">
        <ele>724</ele>
        <time>2024-08-14T15:35:46Z</time>
      </trkpt>
      <trkpt lat="45.05361" lon="6.04405">
        <ele>724</ele>
        <time>2024-08-14T15:35:47Z</time>
      </trkpt>
      <trkpt lat="45.05361" lon="6.04405">
        <ele>724</ele>
        <time>2024-08-14T15:35:48Z</time>
      </trkpt>
      <trkpt lat="45.05364" lon="6.04402">
        <ele>724</ele>
        <time>2024-08-14T15:35:49Z</time>
      </trkpt>
      <trkpt lat="45.05364" lon="6.04402">
        <ele>724</ele>
        <time>2024-08-14T15:35:50Z</time>
      </trkpt>
      <trkpt lat="45.05366" lon="6.04399">
        <ele>724</ele>
        <time>2024-08-14T15:35:51Z</time>
      </trkpt>
      <trkpt lat="45.05366" lon="6.04399">
        <ele>723.8</ele>
        <time>2024-08-14T15:35:52Z</time>
      </trkpt>
      <trkpt lat="45.05368" lon="6.04397">
        <ele>723.8</ele>
        <time>2024-08-14T15:35:53Z</time>
      </trkpt>
      <trkpt lat="45.05368" lon="6.04397">
        <ele>723.8</ele>
        <time>2024-08-14T15:35:54Z</time>
      </trkpt>
      <trkpt lat="45.05371" lon="6.04394">
        <ele>723.8</ele>
        <time>2024-08-14T15:35:55Z</time>
      </trkpt>
      <trkpt lat="45.05371" lon="6.04394">
        <ele>723.8</ele>
        <time>2024-08-14T15:35:56Z</time>
      </trkpt>
      <trkpt lat="45.05373" lon="6.04391">
        <ele>723.8</ele>
        <time>2024-08-14T15:35:57Z</time>
      </trkpt>
      <trkpt lat="45.05373" lon="6.04391">
        <ele>723.8</ele>
        <time>2024-08-14T15:35:58Z</time>
      </trkpt>
      <trkpt lat="45.05375" lon="6.04388">
        <ele>723.8</ele>
        <time>2024-08-14T15:35:59Z</time>
      </trkpt>
      <trkpt lat="45.05375" lon="6.04388">
        <ele>723.8</ele>
        <time>2024-08-14T15:36:00Z</time>
      </trkpt>
      <trkpt lat="45.05377" lon="6.04385">
        <ele>723.8</ele>
        <time>2024-08-14T15:36:01Z</time>
      </trkpt>
      <trkpt lat="45.05377" lon="6.04385">
        <ele>723.6</ele>
        <time>2024-08-14T15:36:02Z</time>
      </trkpt>
      <trkpt lat="45.0538" lon="6.04382">
        <ele>723.6</ele>
        <time>2024-08-14T15:36:03Z</time>
      </trkpt>
      <trkpt lat="45.0538" lon="6.04382">
        <ele>723.8</ele>
        <time>2024-08-14T15:36:04Z</time>
      </trkpt>
      <trkpt lat="45.05381" lon="6.0438">
        <ele>723.8</ele>
        <time>2024-08-14T15:36:05Z</time>
      </trkpt>
      <trkpt lat="45.05381" lon="6.0438">
        <ele>723.8</ele>
        <time>2024-08-14T15:36:06Z</time>
      </trkpt>
      <trkpt lat="45.05384" lon="6.04377">
        <ele>724</ele>
        <time>2024-08-14T15:36:07Z</time>
      </trkpt>
      <trkpt lat="45.05384" lon="6.04377">
        <ele>724</ele>
        <time>2024-08-14T15:36:08Z</time>
      </trkpt>
      <trkpt lat="45.05386" lon="6.04374">
        <ele>723.8</ele>
        <time>2024-08-14T15:36:09Z</time>
      </trkpt>
      <trkpt lat="45.05386" lon="6.04374">
        <ele>723.8</ele>
        <time>2024-08-14T15:36:10Z</time>
      </trkpt>
      <trkpt lat="45.05388" lon="6.04371">
        <ele>723.8</ele>
        <time>2024-08-14T15:36:11Z</time>
      </trkpt>
      <trkpt lat="45.05388" lon="6.04371">
        <ele>723.6</ele>
        <time>2024-08-14T15:36:12Z</time>
      </trkpt>
      <trkpt lat="45.0539" lon="6.04369">
        <ele>723.4</ele>
        <time>2024-08-14T15:36:13Z</time>
      </trkpt>
      <trkpt lat="45.0539" lon="6.04369">
        <ele>723.4</ele>
        <time>2024-08-14T15:36:14Z</time>
      </trkpt>
      <trkpt lat="45.05393" lon="6.04366">
        <ele>723.4</ele>
        <time>2024-08-14T15:36:15Z</time>
      </trkpt>
      <trkpt lat="45.05393" lon="6.04366">
        <ele>723.6</ele>
        <time>2024-08-14T15:36:16Z</time>
      </trkpt>
      <trkpt lat="45.05395" lon="6.04364">
        <ele>723.6</ele>
        <time>2024-08-14T15:36:17Z</time>
      </trkpt>
      <trkpt lat="45.05395" lon="6.04364">
        <ele>723.6</ele>
        <time>2024-08-14T15:36:18Z</time>
      </trkpt>
      <trkpt lat="45.05397" lon="6.04361">
        <ele>723.6</ele>
        <time>2024-08-14T15:36:19Z</time>
      </trkpt>
      <trkpt lat="45.05397" lon="6.04361">
        <ele>723.6</ele>
        <time>2024-08-14T15:36:20Z</time>
      </trkpt>
      <trkpt lat="45.05399" lon="6.04358">
        <ele>723.6</ele>
        <time>2024-08-14T15:36:21Z</time>
      </trkpt>
      <trkpt lat="45.05399" lon="6.04358">
        <ele>723.6</ele>
        <time>2024-08-14T15:36:22Z</time>
      </trkpt>
      <trkpt lat="45.05401" lon="6.04355">
        <ele>723.6</ele>
        <time>2024-08-14T15:36:23Z</time>
      </trkpt>
      <trkpt lat="45.05401" lon="6.04355">
        <ele>723.8</ele>
        <time>2024-08-14T15:36:24Z</time>
      </trkpt>
      <trkpt lat="45.05403" lon="6.04351">
        <ele>724.4</ele>
        <time>2024-08-14T15:36:25Z</time>
      </trkpt>
      <trkpt lat="45.05403" lon="6.04351">
        <ele>724.4</ele>
        <time>2024-08-14T15:36:26Z</time>
      </trkpt>
      <trkpt lat="45.05405" lon="6.04348">
        <ele>724.4</ele>
        <time>2024-08-14T15:36:27Z</time>
      </trkpt>
      <trkpt lat="45.05405" lon="6.04348">
        <ele>724.4</ele>
        <time>2024-08-14T15:36:28Z</time>
      </trkpt>
      <trkpt lat="45.05408" lon="6.04346">
        <ele>724.2</ele>
        <time>2024-08-14T15:36:29Z</time>
      </trkpt>
      <trkpt lat="45.05408" lon="6.04346">
        <ele>724.2</ele>
        <time>2024-08-14T15:36:30Z</time>
      </trkpt>
      <trkpt lat="45.0541" lon="6.04343">
        <ele>724.2</ele>
        <time>2024-08-14T15:36:31Z</time>
      </trkpt>
      <trkpt lat="45.0541" lon="6.04343">
        <ele>724.2</ele>
        <time>2024-08-14T15:36:32Z</time>
      </trkpt>
      <trkpt lat="45.05413" lon="6.04341">
        <ele>724.2</ele>
        <time>2024-08-14T15:36:33Z</time>
      </trkpt>
      <trkpt lat="45.05413" lon="6.04341">
        <ele>724.2</ele>
        <time>2024-08-14T15:36:34Z</time>
      </trkpt>
      <trkpt lat="45.05415" lon="6.04339">
        <ele>724.2</ele>
        <time>2024-08-14T15:36:35Z</time>
      </trkpt>
      <trkpt lat="45.05415" lon="6.04339">
        <ele>724.2</ele>
        <time>2024-08-14T15:36:36Z</time>
      </trkpt>
      <trkpt lat="45.05417" lon="6.04336">
        <ele>724.2</ele>
        <time>2024-08-14T15:36:37Z</time>
      </trkpt>
      <trkpt lat="45.05417" lon="6.04336">
        <ele>724</ele>
        <time>2024-08-14T15:36:38Z</time>
      </trkpt>
      <trkpt lat="45.05419" lon="6.04334">
        <ele>723.8</ele>
        <time>2024-08-14T15:36:39Z</time>
      </trkpt>
      <trkpt lat="45.05421" lon="6.04333">
        <ele>723.8</ele>
        <time>2024-08-14T15:36:40Z</time>
      </trkpt>
      <trkpt lat="45.05421" lon="6.04333">
        <ele>723.8</ele>
        <time>2024-08-14T15:36:41Z</time>
      </trkpt>
      <trkpt lat="45.05423" lon="6.0433">
        <ele>723.8</ele>
        <time>2024-08-14T15:36:42Z</time>
      </trkpt>
      <trkpt lat="45.05423" lon="6.0433">
        <ele>723.8</ele>
        <time>2024-08-14T15:36:43Z</time>
      </trkpt>
      <trkpt lat="45.05425" lon="6.04327">
        <ele>723.6</ele>
        <time>2024-08-14T15:36:44Z</time>
      </trkpt>
      <trkpt lat="45.05425" lon="6.04327">
        <ele>723.6</ele>
        <time>2024-08-14T15:36:45Z</time>
      </trkpt>
      <trkpt lat="45.05425" lon="6.04327">
        <ele>723.6</ele>
        <time>2024-08-14T15:36:46Z</time>
      </trkpt>
      <trkpt lat="45.05428" lon="6.04322">
        <ele>723.6</ele>
        <time>2024-08-14T15:36:47Z</time>
      </trkpt>
      <trkpt lat="45.05429" lon="6.0432">
        <ele>723.4</ele>
        <time>2024-08-14T15:36:48Z</time>
      </trkpt>
      <trkpt lat="45.05429" lon="6.0432">
        <ele>723.4</ele>
        <time>2024-08-14T15:36:49Z</time>
      </trkpt>
      <trkpt lat="45.05431" lon="6.04318">
        <ele>723.4</ele>
        <time>2024-08-14T15:36:50Z</time>
      </trkpt>
      <trkpt lat="45.05431" lon="6.04318">
        <ele>723.4</ele>
        <time>2024-08-14T15:36:51Z</time>
      </trkpt>
      <trkpt lat="45.05433" lon="6.04315">
        <ele>723.4</ele>
        <time>2024-08-14T15:36:52Z</time>
      </trkpt>
      <trkpt lat="45.05433" lon="6.04315">
        <ele>723.4</ele>
        <time>2024-08-14T15:36:53Z</time>
      </trkpt>
      <trkpt lat="45.05435" lon="6.04312">
        <ele>723.6</ele>
        <time>2024-08-14T15:36:54Z</time>
      </trkpt>
      <trkpt lat="45.05435" lon="6.04312">
        <ele>723.8</ele>
        <time>2024-08-14T15:36:55Z</time>
      </trkpt>
      <trkpt lat="45.05438" lon="6.0431">
        <ele>723.8</ele>
        <time>2024-08-14T15:36:56Z</time>
      </trkpt>
      <trkpt lat="45.05438" lon="6.0431">
        <ele>723.6</ele>
        <time>2024-08-14T15:36:57Z</time>
      </trkpt>
      <trkpt lat="45.05439" lon="6.04306">
        <ele>723.6</ele>
        <time>2024-08-14T15:36:58Z</time>
      </trkpt>
      <trkpt lat="45.05439" lon="6.04306">
        <ele>723.6</ele>
        <time>2024-08-14T15:36:59Z</time>
      </trkpt>
      <trkpt lat="45.05441" lon="6.04303">
        <ele>723.6</ele>
        <time>2024-08-14T15:37:00Z</time>
      </trkpt>
      <trkpt lat="45.05441" lon="6.04303">
        <ele>723.6</ele>
        <time>2024-08-14T15:37:01Z</time>
      </trkpt>
      <trkpt lat="45.05444" lon="6.043">
        <ele>723.6</ele>
        <time>2024-08-14T15:37:02Z</time>
      </trkpt>
      <trkpt lat="45.05444" lon="6.043">
        <ele>723.6</ele>
        <time>2024-08-14T15:37:03Z</time>
      </trkpt>
      <trkpt lat="45.05445" lon="6.04297">
        <ele>723.6</ele>
        <time>2024-08-14T15:37:04Z</time>
      </trkpt>
      <trkpt lat="45.05445" lon="6.04297">
        <ele>723.6</ele>
        <time>2024-08-14T15:37:05Z</time>
      </trkpt>
      <trkpt lat="45.05448" lon="6.04294">
        <ele>723.8</ele>
        <time>2024-08-14T15:37:06Z</time>
      </trkpt>
      <trkpt lat="45.05449" lon="6.04293">
        <ele>723.8</ele>
        <time>2024-08-14T15:37:07Z</time>
      </trkpt>
      <trkpt lat="45.05449" lon="6.04293">
        <ele>723.6</ele>
        <time>2024-08-14T15:37:08Z</time>
      </trkpt>
      <trkpt lat="45.05452" lon="6.04291">
        <ele>723.6</ele>
        <time>2024-08-14T15:37:09Z</time>
      </trkpt>
      <trkpt lat="45.05452" lon="6.04291">
        <ele>723.6</ele>
        <time>2024-08-14T15:37:10Z</time>
      </trkpt>
      <trkpt lat="45.05454" lon="6.04288">
        <ele>723.6</ele>
        <time>2024-08-14T15:37:11Z</time>
      </trkpt>
      <trkpt lat="45.05454" lon="6.04288">
        <ele>723.6</ele>
        <time>2024-08-14T15:37:12Z</time>
      </trkpt>
      <trkpt lat="45.05456" lon="6.04285">
        <ele>723.6</ele>
        <time>2024-08-14T15:37:13Z</time>
      </trkpt>
      <trkpt lat="45.05456" lon="6.04285">
        <ele>723.6</ele>
        <time>2024-08-14T15:37:14Z</time>
      </trkpt>
      <trkpt lat="45.05459" lon="6.04282">
        <ele>723.6</ele>
        <time>2024-08-14T15:37:15Z</time>
      </trkpt>
      <trkpt lat="45.05459" lon="6.04282">
        <ele>723.6</ele>
        <time>2024-08-14T15:37:16Z</time>
      </trkpt>
      <trkpt lat="45.05461" lon="6.04279">
        <ele>723.6</ele>
        <time>2024-08-14T15:37:17Z</time>
      </trkpt>
      <trkpt lat="45.05461" lon="6.04279">
        <ele>723.6</ele>
        <time>2024-08-14T15:37:18Z</time>
      </trkpt>
      <trkpt lat="45.05463" lon="6.04277">
        <ele>723.6</ele>
        <time>2024-08-14T15:37:19Z</time>
      </trkpt>
      <trkpt lat="45.05463" lon="6.04277">
        <ele>723.6</ele>
        <time>2024-08-14T15:37:20Z</time>
      </trkpt>
      <trkpt lat="45.05465" lon="6.04274">
        <ele>723.6</ele>
        <time>2024-08-14T15:37:21Z</time>
      </trkpt>
      <trkpt lat="45.05465" lon="6.04274">
        <ele>723.6</ele>
        <time>2024-08-14T15:37:22Z</time>
      </trkpt>
      <trkpt lat="45.05467" lon="6.04271">
        <ele>723.8</ele>
        <time>2024-08-14T15:37:23Z</time>
      </trkpt>
      <trkpt lat="45.05467" lon="6.04271">
        <ele>723.8</ele>
        <time>2024-08-14T15:37:24Z</time>
      </trkpt>
      <trkpt lat="45.05469" lon="6.04268">
        <ele>723.8</ele>
        <time>2024-08-14T15:37:25Z</time>
      </trkpt>
      <trkpt lat="45.05469" lon="6.04268">
        <ele>723.6</ele>
        <time>2024-08-14T15:37:26Z</time>
      </trkpt>
      <trkpt lat="45.05471" lon="6.04266">
        <ele>723.6</ele>
        <time>2024-08-14T15:37:27Z</time>
      </trkpt>
      <trkpt lat="45.05471" lon="6.04266">
        <ele>723.6</ele>
        <time>2024-08-14T15:37:28Z</time>
      </trkpt>
      <trkpt lat="45.05473" lon="6.04263">
        <ele>723.6</ele>
        <time>2024-08-14T15:37:29Z</time>
      </trkpt>
      <trkpt lat="45.05473" lon="6.04263">
        <ele>723.6</ele>
        <time>2024-08-14T15:37:30Z</time>
      </trkpt>
      <trkpt lat="45.05475" lon="6.0426">
        <ele>723.6</ele>
        <time>2024-08-14T15:37:31Z</time>
      </trkpt>
      <trkpt lat="45.05475" lon="6.0426">
        <ele>723.6</ele>
        <time>2024-08-14T15:37:32Z</time>
      </trkpt>
      <trkpt lat="45.05477" lon="6.04257">
        <ele>723.6</ele>
        <time>2024-08-14T15:37:33Z</time>
      </trkpt>
      <trkpt lat="45.05477" lon="6.04257">
        <ele>723.6</ele>
        <time>2024-08-14T15:37:34Z</time>
      </trkpt>
      <trkpt lat="45.05479" lon="6.04254">
        <ele>723.8</ele>
        <time>2024-08-14T15:37:35Z</time>
      </trkpt>
      <trkpt lat="45.05479" lon="6.04254">
        <ele>723.8</ele>
        <time>2024-08-14T15:37:36Z</time>
      </trkpt>
      <trkpt lat="45.05481" lon="6.04251">
        <ele>723.8</ele>
        <time>2024-08-14T15:37:37Z</time>
      </trkpt>
      <trkpt lat="45.05481" lon="6.04251">
        <ele>723.8</ele>
        <time>2024-08-14T15:37:38Z</time>
      </trkpt>
      <trkpt lat="45.05484" lon="6.04248">
        <ele>723.8</ele>
        <time>2024-08-14T15:37:39Z</time>
      </trkpt>
      <trkpt lat="45.05484" lon="6.04248">
        <ele>723.8</ele>
        <time>2024-08-14T15:37:40Z</time>
      </trkpt>
      <trkpt lat="45.05486" lon="6.04245">
        <ele>723.8</ele>
        <time>2024-08-14T15:37:41Z</time>
      </trkpt>
      <trkpt lat="45.05486" lon="6.04245">
        <ele>723.8</ele>
        <time>2024-08-14T15:37:42Z</time>
      </trkpt>
      <trkpt lat="45.05488" lon="6.04242">
        <ele>723.8</ele>
        <time>2024-08-14T15:37:43Z</time>
      </trkpt>
      <trkpt lat="45.05489" lon="6.0424">
        <ele>723.8</ele>
        <time>2024-08-14T15:37:44Z</time>
      </trkpt>
      <trkpt lat="45.05489" lon="6.0424">
        <ele>723.8</ele>
        <time>2024-08-14T15:37:45Z</time>
      </trkpt>
      <trkpt lat="45.05491" lon="6.04237">
        <ele>723.8</ele>
        <time>2024-08-14T15:37:46Z</time>
      </trkpt>
      <trkpt lat="45.05491" lon="6.04237">
        <ele>723.8</ele>
        <time>2024-08-14T15:37:47Z</time>
      </trkpt>
      <trkpt lat="45.05493" lon="6.04235">
        <ele>723.8</ele>
        <time>2024-08-14T15:37:48Z</time>
      </trkpt>
      <trkpt lat="45.05493" lon="6.04235">
        <ele>723.8</ele>
        <time>2024-08-14T15:37:49Z</time>
      </trkpt>
      <trkpt lat="45.05495" lon="6.04232">
        <ele>723.6</ele>
        <time>2024-08-14T15:37:50Z</time>
      </trkpt>
      <trkpt lat="45.05495" lon="6.04232">
        <ele>723.6</ele>
        <time>2024-08-14T15:37:51Z</time>
      </trkpt>
      <trkpt lat="45.05498" lon="6.04229">
        <ele>723.6</ele>
        <time>2024-08-14T15:37:52Z</time>
      </trkpt>
      <trkpt lat="45.05498" lon="6.04229">
        <ele>723.6</ele>
        <time>2024-08-14T15:37:53Z</time>
      </trkpt>
      <trkpt lat="45.055" lon="6.04227">
        <ele>723.6</ele>
        <time>2024-08-14T15:37:54Z</time>
      </trkpt>
      <trkpt lat="45.055" lon="6.04227">
        <ele>723.6</ele>
        <time>2024-08-14T15:37:55Z</time>
      </trkpt>
      <trkpt lat="45.05502" lon="6.04224">
        <ele>723.8</ele>
        <time>2024-08-14T15:37:56Z</time>
      </trkpt>
      <trkpt lat="45.05504" lon="6.04223">
        <ele>723.8</ele>
        <time>2024-08-14T15:37:57Z</time>
      </trkpt>
      <trkpt lat="45.05504" lon="6.04223">
        <ele>724</ele>
        <time>2024-08-14T15:37:58Z</time>
      </trkpt>
      <trkpt lat="45.05506" lon="6.0422">
        <ele>724</ele>
        <time>2024-08-14T15:37:59Z</time>
      </trkpt>
      <trkpt lat="45.05506" lon="6.0422">
        <ele>724</ele>
        <time>2024-08-14T15:38:00Z</time>
      </trkpt>
      <trkpt lat="45.05509" lon="6.04217">
        <ele>724</ele>
        <time>2024-08-14T15:38:01Z</time>
      </trkpt>
      <trkpt lat="45.05509" lon="6.04217">
        <ele>723.8</ele>
        <time>2024-08-14T15:38:02Z</time>
      </trkpt>
      <trkpt lat="45.05511" lon="6.04214">
        <ele>723.8</ele>
        <time>2024-08-14T15:38:03Z</time>
      </trkpt>
      <trkpt lat="45.05511" lon="6.04214">
        <ele>724</ele>
        <time>2024-08-14T15:38:04Z</time>
      </trkpt>
      <trkpt lat="45.05513" lon="6.04211">
        <ele>724</ele>
        <time>2024-08-14T15:38:05Z</time>
      </trkpt>
      <trkpt lat="45.05513" lon="6.04211">
        <ele>723.8</ele>
        <time>2024-08-14T15:38:06Z</time>
      </trkpt>
      <trkpt lat="45.05515" lon="6.04208">
        <ele>723.8</ele>
        <time>2024-08-14T15:38:07Z</time>
      </trkpt>
      <trkpt lat="45.05517" lon="6.04206">
        <ele>724.2</ele>
        <time>2024-08-14T15:38:08Z</time>
      </trkpt>
      <trkpt lat="45.05517" lon="6.04206">
        <ele>724.2</ele>
        <time>2024-08-14T15:38:09Z</time>
      </trkpt>
      <trkpt lat="45.05517" lon="6.04206">
        <ele>724.4</ele>
        <time>2024-08-14T15:38:10Z</time>
      </trkpt>
      <trkpt lat="45.05519" lon="6.04202">
        <ele>724.4</ele>
        <time>2024-08-14T15:38:11Z</time>
      </trkpt>
      <trkpt lat="45.0552" lon="6.042">
        <ele>724.4</ele>
        <time>2024-08-14T15:38:12Z</time>
      </trkpt>
      <trkpt lat="45.0552" lon="6.042">
        <ele>724.4</ele>
        <time>2024-08-14T15:38:13Z</time>
      </trkpt>
      <trkpt lat="45.05522" lon="6.04197">
        <ele>724.4</ele>
        <time>2024-08-14T15:38:14Z</time>
      </trkpt>
      <trkpt lat="45.05524" lon="6.04196">
        <ele>724.4</ele>
        <time>2024-08-14T15:38:15Z</time>
      </trkpt>
      <trkpt lat="45.05524" lon="6.04196">
        <ele>724.4</ele>
        <time>2024-08-14T15:38:16Z</time>
      </trkpt>
      <trkpt lat="45.05526" lon="6.04193">
        <ele>724.8</ele>
        <time>2024-08-14T15:38:17Z</time>
      </trkpt>
      <trkpt lat="45.05526" lon="6.04193">
        <ele>724.8</ele>
        <time>2024-08-14T15:38:18Z</time>
      </trkpt>
      <trkpt lat="45.05526" lon="6.04193">
        <ele>724.6</ele>
        <time>2024-08-14T15:38:19Z</time>
      </trkpt>
      <trkpt lat="45.05528" lon="6.04189">
        <ele>724.6</ele>
        <time>2024-08-14T15:38:20Z</time>
      </trkpt>
      <trkpt lat="45.0553" lon="6.04187">
        <ele>724.6</ele>
        <time>2024-08-14T15:38:21Z</time>
      </trkpt>
      <trkpt lat="45.0553" lon="6.04187">
        <ele>724.6</ele>
        <time>2024-08-14T15:38:22Z</time>
      </trkpt>
      <trkpt lat="45.05532" lon="6.04185">
        <ele>724.6</ele>
        <time>2024-08-14T15:38:23Z</time>
      </trkpt>
      <trkpt lat="45.05534" lon="6.04183">
        <ele>724.6</ele>
        <time>2024-08-14T15:38:24Z</time>
      </trkpt>
      <trkpt lat="45.05535" lon="6.04182">
        <ele>724.6</ele>
        <time>2024-08-14T15:38:25Z</time>
      </trkpt>
      <trkpt lat="45.05537" lon="6.04181">
        <ele>724.4</ele>
        <time>2024-08-14T15:38:26Z</time>
      </trkpt>
      <trkpt lat="45.05538" lon="6.04179">
        <ele>724.4</ele>
        <time>2024-08-14T15:38:27Z</time>
      </trkpt>
      <trkpt lat="45.05538" lon="6.04179">
        <ele>724.4</ele>
        <time>2024-08-14T15:38:28Z</time>
      </trkpt>
      <trkpt lat="45.05541" lon="6.04177">
        <ele>724.2</ele>
        <time>2024-08-14T15:38:29Z</time>
      </trkpt>
      <trkpt lat="45.05541" lon="6.04177">
        <ele>723.6</ele>
        <time>2024-08-14T15:38:30Z</time>
      </trkpt>
      <trkpt lat="45.05542" lon="6.04175">
        <ele>723.6</ele>
        <time>2024-08-14T15:38:31Z</time>
      </trkpt>
      <trkpt lat="45.05542" lon="6.04175">
        <ele>723.6</ele>
        <time>2024-08-14T15:38:32Z</time>
      </trkpt>
      <trkpt lat="45.05543" lon="6.04172">
        <ele>723.6</ele>
        <time>2024-08-14T15:38:33Z</time>
      </trkpt>
      <trkpt lat="45.05543" lon="6.04172">
        <ele>723.4</ele>
        <time>2024-08-14T15:38:34Z</time>
      </trkpt>
      <trkpt lat="45.05546" lon="6.04169">
        <ele>723.2</ele>
        <time>2024-08-14T15:38:35Z</time>
      </trkpt>
      <trkpt lat="45.05546" lon="6.04169">
        <ele>723.2</ele>
        <time>2024-08-14T15:38:36Z</time>
      </trkpt>
      <trkpt lat="45.05547" lon="6.04166">
        <ele>723.2</ele>
        <time>2024-08-14T15:38:37Z</time>
      </trkpt>
      <trkpt lat="45.05547" lon="6.04166">
        <ele>723.4</ele>
        <time>2024-08-14T15:38:38Z</time>
      </trkpt>
      <trkpt lat="45.0555" lon="6.04164">
        <ele>723.4</ele>
        <time>2024-08-14T15:38:39Z</time>
      </trkpt>
      <trkpt lat="45.0555" lon="6.04164">
        <ele>723.4</ele>
        <time>2024-08-14T15:38:40Z</time>
      </trkpt>
      <trkpt lat="45.05552" lon="6.04161">
        <ele>723.4</ele>
        <time>2024-08-14T15:38:41Z</time>
      </trkpt>
      <trkpt lat="45.05552" lon="6.04161">
        <ele>723.4</ele>
        <time>2024-08-14T15:38:42Z</time>
      </trkpt>
      <trkpt lat="45.05554" lon="6.04158">
        <ele>723.4</ele>
        <time>2024-08-14T15:38:43Z</time>
      </trkpt>
      <trkpt lat="45.05554" lon="6.04158">
        <ele>723.4</ele>
        <time>2024-08-14T15:38:44Z</time>
      </trkpt>
      <trkpt lat="45.05557" lon="6.04155">
        <ele>723.4</ele>
        <time>2024-08-14T15:38:45Z</time>
      </trkpt>
      <trkpt lat="45.05557" lon="6.04155">
        <ele>723.2</ele>
        <time>2024-08-14T15:38:46Z</time>
      </trkpt>
      <trkpt lat="45.05559" lon="6.04152">
        <ele>723.2</ele>
        <time>2024-08-14T15:38:47Z</time>
      </trkpt>
      <trkpt lat="45.05559" lon="6.04152">
        <ele>723.2</ele>
        <time>2024-08-14T15:38:48Z</time>
      </trkpt>
      <trkpt lat="45.05559" lon="6.04152">
        <ele>723.2</ele>
        <time>2024-08-14T15:38:49Z</time>
      </trkpt>
      <trkpt lat="45.05562" lon="6.04148">
        <ele>723.2</ele>
        <time>2024-08-14T15:38:50Z</time>
      </trkpt>
      <trkpt lat="45.05563" lon="6.04147">
        <ele>723.2</ele>
        <time>2024-08-14T15:38:51Z</time>
      </trkpt>
      <trkpt lat="45.05563" lon="6.04147">
        <ele>723.4</ele>
        <time>2024-08-14T15:38:52Z</time>
      </trkpt>
      <trkpt lat="45.05565" lon="6.04144">
        <ele>723.4</ele>
        <time>2024-08-14T15:38:53Z</time>
      </trkpt>
      <trkpt lat="45.05565" lon="6.04144">
        <ele>723.4</ele>
        <time>2024-08-14T15:38:54Z</time>
      </trkpt>
      <trkpt lat="45.05565" lon="6.04144">
        <ele>723.4</ele>
        <time>2024-08-14T15:38:55Z</time>
      </trkpt>
      <trkpt lat="45.05568" lon="6.0414">
        <ele>723.4</ele>
        <time>2024-08-14T15:38:56Z</time>
      </trkpt>
      <trkpt lat="45.0557" lon="6.04138">
        <ele>723.4</ele>
        <time>2024-08-14T15:38:57Z</time>
      </trkpt>
      <trkpt lat="45.0557" lon="6.04138">
        <ele>723.4</ele>
        <time>2024-08-14T15:38:58Z</time>
      </trkpt>
      <trkpt lat="45.05572" lon="6.04136">
        <ele>723.4</ele>
        <time>2024-08-14T15:38:59Z</time>
      </trkpt>
      <trkpt lat="45.05572" lon="6.04136">
        <ele>723.4</ele>
        <time>2024-08-14T15:39:00Z</time>
      </trkpt>
      <trkpt lat="45.05574" lon="6.04133">
        <ele>723.2</ele>
        <time>2024-08-14T15:39:01Z</time>
      </trkpt>
      <trkpt lat="45.05574" lon="6.04133">
        <ele>723.2</ele>
        <time>2024-08-14T15:39:02Z</time>
      </trkpt>
      <trkpt lat="45.05576" lon="6.0413">
        <ele>723.4</ele>
        <time>2024-08-14T15:39:03Z</time>
      </trkpt>
      <trkpt lat="45.05576" lon="6.0413">
        <ele>723.4</ele>
        <time>2024-08-14T15:39:04Z</time>
      </trkpt>
      <trkpt lat="45.05578" lon="6.04127">
        <ele>723.6</ele>
        <time>2024-08-14T15:39:05Z</time>
      </trkpt>
      <trkpt lat="45.0558" lon="6.04126">
        <ele>723.6</ele>
        <time>2024-08-14T15:39:06Z</time>
      </trkpt>
      <trkpt lat="45.0558" lon="6.04126">
        <ele>723.4</ele>
        <time>2024-08-14T15:39:07Z</time>
      </trkpt>
      <trkpt lat="45.05582" lon="6.04123">
        <ele>723.4</ele>
        <time>2024-08-14T15:39:08Z</time>
      </trkpt>
      <trkpt lat="45.05584" lon="6.04122">
        <ele>723.4</ele>
        <time>2024-08-14T15:39:09Z</time>
      </trkpt>
      <trkpt lat="45.05584" lon="6.04122">
        <ele>723.4</ele>
        <time>2024-08-14T15:39:10Z</time>
      </trkpt>
      <trkpt lat="45.05586" lon="6.04119">
        <ele>723.4</ele>
        <time>2024-08-14T15:39:11Z</time>
      </trkpt>
      <trkpt lat="45.05586" lon="6.04119">
        <ele>723.6</ele>
        <time>2024-08-14T15:39:12Z</time>
      </trkpt>
      <trkpt lat="45.05586" lon="6.04119">
        <ele>723.8</ele>
        <time>2024-08-14T15:39:13Z</time>
      </trkpt>
      <trkpt lat="45.05589" lon="6.04116">
        <ele>723.8</ele>
        <time>2024-08-14T15:39:14Z</time>
      </trkpt>
      <trkpt lat="45.0559" lon="6.04114">
        <ele>723.8</ele>
        <time>2024-08-14T15:39:15Z</time>
      </trkpt>
      <trkpt lat="45.0559" lon="6.04114">
        <ele>723.6</ele>
        <time>2024-08-14T15:39:16Z</time>
      </trkpt>
      <trkpt lat="45.05592" lon="6.04112">
        <ele>723.6</ele>
        <time>2024-08-14T15:39:17Z</time>
      </trkpt>
      <trkpt lat="45.05592" lon="6.04112">
        <ele>723.6</ele>
        <time>2024-08-14T15:39:18Z</time>
      </trkpt>
      <trkpt lat="45.05595" lon="6.04109">
        <ele>723.6</ele>
        <time>2024-08-14T15:39:19Z</time>
      </trkpt>
      <trkpt lat="45.05595" lon="6.04109">
        <ele>723.6</ele>
        <time>2024-08-14T15:39:20Z</time>
      </trkpt>
      <trkpt lat="45.05597" lon="6.04106">
        <ele>723.6</ele>
        <time>2024-08-14T15:39:21Z</time>
      </trkpt>
      <trkpt lat="45.05597" lon="6.04106">
        <ele>723.6</ele>
        <time>2024-08-14T15:39:22Z</time>
      </trkpt>
      <trkpt lat="45.05599" lon="6.04103">
        <ele>723.6</ele>
        <time>2024-08-14T15:39:23Z</time>
      </trkpt>
      <trkpt lat="45.05599" lon="6.04103">
        <ele>723.8</ele>
        <time>2024-08-14T15:39:24Z</time>
      </trkpt>
      <trkpt lat="45.05602" lon="6.04101">
        <ele>723.8</ele>
        <time>2024-08-14T15:39:25Z</time>
      </trkpt>
      <trkpt lat="45.05602" lon="6.04101">
        <ele>723.8</ele>
        <time>2024-08-14T15:39:26Z</time>
      </trkpt>
      <trkpt lat="45.05605" lon="6.04098">
        <ele>723.8</ele>
        <time>2024-08-14T15:39:27Z</time>
      </trkpt>
      <trkpt lat="45.05605" lon="6.04098">
        <ele>723.8</ele>
        <time>2024-08-14T15:39:28Z</time>
      </trkpt>
      <trkpt lat="45.05607" lon="6.04096">
        <ele>724</ele>
        <time>2024-08-14T15:39:29Z</time>
      </trkpt>
      <trkpt lat="45.05607" lon="6.04096">
        <ele>724</ele>
        <time>2024-08-14T15:39:30Z</time>
      </trkpt>
      <trkpt lat="45.05609" lon="6.04093">
        <ele>723.8</ele>
        <time>2024-08-14T15:39:31Z</time>
      </trkpt>
      <trkpt lat="45.05609" lon="6.04093">
        <ele>723.8</ele>
        <time>2024-08-14T15:39:32Z</time>
      </trkpt>
      <trkpt lat="45.05611" lon="6.04091">
        <ele>724</ele>
        <time>2024-08-14T15:39:33Z</time>
      </trkpt>
      <trkpt lat="45.05611" lon="6.04091">
        <ele>724.2</ele>
        <time>2024-08-14T15:39:34Z</time>
      </trkpt>
      <trkpt lat="45.05613" lon="6.04088">
        <ele>724.2</ele>
        <time>2024-08-14T15:39:35Z</time>
      </trkpt>
      <trkpt lat="45.05613" lon="6.04088">
        <ele>724</ele>
        <time>2024-08-14T15:39:36Z</time>
      </trkpt>
      <trkpt lat="45.05616" lon="6.04086">
        <ele>723.8</ele>
        <time>2024-08-14T15:39:37Z</time>
      </trkpt>
      <trkpt lat="45.05616" lon="6.04086">
        <ele>723.6</ele>
        <time>2024-08-14T15:39:38Z</time>
      </trkpt>
      <trkpt lat="45.05618" lon="6.04084">
        <ele>723.8</ele>
        <time>2024-08-14T15:39:39Z</time>
      </trkpt>
      <trkpt lat="45.05618" lon="6.04084">
        <ele>723.8</ele>
        <time>2024-08-14T15:39:40Z</time>
      </trkpt>
      <trkpt lat="45.05621" lon="6.04082">
        <ele>723.8</ele>
        <time>2024-08-14T15:39:41Z</time>
      </trkpt>
      <trkpt lat="45.05621" lon="6.04082">
        <ele>723.8</ele>
        <time>2024-08-14T15:39:42Z</time>
      </trkpt>
      <trkpt lat="45.05623" lon="6.04079">
        <ele>723.6</ele>
        <time>2024-08-14T15:39:43Z</time>
      </trkpt>
      <trkpt lat="45.05623" lon="6.04079">
        <ele>723.6</ele>
        <time>2024-08-14T15:39:44Z</time>
      </trkpt>
      <trkpt lat="45.05625" lon="6.04076">
        <ele>723.6</ele>
        <time>2024-08-14T15:39:45Z</time>
      </trkpt>
      <trkpt lat="45.05625" lon="6.04076">
        <ele>723.6</ele>
        <time>2024-08-14T15:39:46Z</time>
      </trkpt>
      <trkpt lat="45.05628" lon="6.04074">
        <ele>723.6</ele>
        <time>2024-08-14T15:39:47Z</time>
      </trkpt>
      <trkpt lat="45.05628" lon="6.04074">
        <ele>723.6</ele>
        <time>2024-08-14T15:39:48Z</time>
      </trkpt>
      <trkpt lat="45.05629" lon="6.0407">
        <ele>723.6</ele>
        <time>2024-08-14T15:39:49Z</time>
      </trkpt>
      <trkpt lat="45.05629" lon="6.0407">
        <ele>723.8</ele>
        <time>2024-08-14T15:39:50Z</time>
      </trkpt>
      <trkpt lat="45.05631" lon="6.04068">
        <ele>724</ele>
        <time>2024-08-14T15:39:51Z</time>
      </trkpt>
      <trkpt lat="45.05631" lon="6.04068">
        <ele>724</ele>
        <time>2024-08-14T15:39:52Z</time>
      </trkpt>
      <trkpt lat="45.05633" lon="6.04065">
        <ele>724</ele>
        <time>2024-08-14T15:39:53Z</time>
      </trkpt>
      <trkpt lat="45.05633" lon="6.04065">
        <ele>724</ele>
        <time>2024-08-14T15:39:54Z</time>
      </trkpt>
      <trkpt lat="45.05635" lon="6.04063">
        <ele>724.2</ele>
        <time>2024-08-14T15:39:55Z</time>
      </trkpt>
      <trkpt lat="45.05635" lon="6.04063">
        <ele>724.4</ele>
        <time>2024-08-14T15:39:56Z</time>
      </trkpt>
      <trkpt lat="45.05638" lon="6.04061">
        <ele>724.4</ele>
        <time>2024-08-14T15:39:57Z</time>
      </trkpt>
      <trkpt lat="45.05638" lon="6.04061">
        <ele>724</ele>
        <time>2024-08-14T15:39:58Z</time>
      </trkpt>
      <trkpt lat="45.0564" lon="6.04059">
        <ele>724</ele>
        <time>2024-08-14T15:39:59Z</time>
      </trkpt>
      <trkpt lat="45.0564" lon="6.04059">
        <ele>724</ele>
        <time>2024-08-14T15:40:00Z</time>
      </trkpt>
      <trkpt lat="45.05643" lon="6.04057">
        <ele>724</ele>
        <time>2024-08-14T15:40:01Z</time>
      </trkpt>
      <trkpt lat="45.05643" lon="6.04057">
        <ele>724</ele>
        <time>2024-08-14T15:40:02Z</time>
      </trkpt>
      <trkpt lat="45.05645" lon="6.04054">
        <ele>724</ele>
        <time>2024-08-14T15:40:03Z</time>
      </trkpt>
      <trkpt lat="45.05645" lon="6.04054">
        <ele>724</ele>
        <time>2024-08-14T15:40:04Z</time>
      </trkpt>
      <trkpt lat="45.05648" lon="6.04052">
        <ele>724</ele>
        <time>2024-08-14T15:40:05Z</time>
      </trkpt>
      <trkpt lat="45.05648" lon="6.04052">
        <ele>724</ele>
        <time>2024-08-14T15:40:06Z</time>
      </trkpt>
      <trkpt lat="45.05651" lon="6.0405">
        <ele>724</ele>
        <time>2024-08-14T15:40:07Z</time>
      </trkpt>
      <trkpt lat="45.05653" lon="6.04049">
        <ele>724</ele>
        <time>2024-08-14T15:40:08Z</time>
      </trkpt>
      <trkpt lat="45.05653" lon="6.04049">
        <ele>724</ele>
        <time>2024-08-14T15:40:09Z</time>
      </trkpt>
      <trkpt lat="45.05655" lon="6.04048">
        <ele>724</ele>
        <time>2024-08-14T15:40:10Z</time>
      </trkpt>
      <trkpt lat="45.05655" lon="6.04048">
        <ele>724</ele>
        <time>2024-08-14T15:40:11Z</time>
      </trkpt>
      <trkpt lat="45.05658" lon="6.04046">
        <ele>724</ele>
        <time>2024-08-14T15:40:12Z</time>
      </trkpt>
      <trkpt lat="45.0566" lon="6.04045">
        <ele>724</ele>
        <time>2024-08-14T15:40:13Z</time>
      </trkpt>
      <trkpt lat="45.0566" lon="6.04045">
        <ele>724</ele>
        <time>2024-08-14T15:40:14Z</time>
      </trkpt>
      <trkpt lat="45.05662" lon="6.04042">
        <ele>724</ele>
        <time>2024-08-14T15:40:15Z</time>
      </trkpt>
      <trkpt lat="45.05662" lon="6.04042">
        <ele>724</ele>
        <time>2024-08-14T15:40:16Z</time>
      </trkpt>
      <trkpt lat="45.05665" lon="6.0404">
        <ele>724</ele>
        <time>2024-08-14T15:40:17Z</time>
      </trkpt>
      <trkpt lat="45.05665" lon="6.0404">
        <ele>724</ele>
        <time>2024-08-14T15:40:18Z</time>
      </trkpt>
      <trkpt lat="45.05668" lon="6.04038">
        <ele>724</ele>
        <time>2024-08-14T15:40:19Z</time>
      </trkpt>
      <trkpt lat="45.05668" lon="6.04038">
        <ele>724</ele>
        <time>2024-08-14T15:40:20Z</time>
      </trkpt>
      <trkpt lat="45.0567" lon="6.04036">
        <ele>724</ele>
        <time>2024-08-14T15:40:21Z</time>
      </trkpt>
      <trkpt lat="45.05672" lon="6.04035">
        <ele>724</ele>
        <time>2024-08-14T15:40:22Z</time>
      </trkpt>
      <trkpt lat="45.05672" lon="6.04035">
        <ele>724</ele>
        <time>2024-08-14T15:40:23Z</time>
      </trkpt>
      <trkpt lat="45.05674" lon="6.04033">
        <ele>724</ele>
        <time>2024-08-14T15:40:24Z</time>
      </trkpt>
      <trkpt lat="45.05674" lon="6.04033">
        <ele>724</ele>
        <time>2024-08-14T15:40:25Z</time>
      </trkpt>
      <trkpt lat="45.05677" lon="6.04031">
        <ele>724</ele>
        <time>2024-08-14T15:40:26Z</time>
      </trkpt>
      <trkpt lat="45.05677" lon="6.04031">
        <ele>724</ele>
        <time>2024-08-14T15:40:27Z</time>
      </trkpt>
      <trkpt lat="45.0568" lon="6.04029">
        <ele>724</ele>
        <time>2024-08-14T15:40:28Z</time>
      </trkpt>
      <trkpt lat="45.0568" lon="6.04029">
        <ele>724</ele>
        <time>2024-08-14T15:40:29Z</time>
      </trkpt>
      <trkpt lat="45.05682" lon="6.04026">
        <ele>724</ele>
        <time>2024-08-14T15:40:30Z</time>
      </trkpt>
      <trkpt lat="45.05682" lon="6.04026">
        <ele>724</ele>
        <time>2024-08-14T15:40:31Z</time>
      </trkpt>
      <trkpt lat="45.05685" lon="6.04024">
        <ele>724</ele>
        <time>2024-08-14T15:40:32Z</time>
      </trkpt>
      <trkpt lat="45.05685" lon="6.04024">
        <ele>724</ele>
        <time>2024-08-14T15:40:33Z</time>
      </trkpt>
      <trkpt lat="45.05688" lon="6.04023">
        <ele>724</ele>
        <time>2024-08-14T15:40:34Z</time>
      </trkpt>
      <trkpt lat="45.05688" lon="6.04023">
        <ele>724</ele>
        <time>2024-08-14T15:40:35Z</time>
      </trkpt>
      <trkpt lat="45.0569" lon="6.04021">
        <ele>723.8</ele>
        <time>2024-08-14T15:40:36Z</time>
      </trkpt>
      <trkpt lat="45.0569" lon="6.04021">
        <ele>723.8</ele>
        <time>2024-08-14T15:40:37Z</time>
      </trkpt>
      <trkpt lat="45.05693" lon="6.04019">
        <ele>723.8</ele>
        <time>2024-08-14T15:40:38Z</time>
      </trkpt>
      <trkpt lat="45.05693" lon="6.04019">
        <ele>723.8</ele>
        <time>2024-08-14T15:40:39Z</time>
      </trkpt>
      <trkpt lat="45.05695" lon="6.04017">
        <ele>723.8</ele>
        <time>2024-08-14T15:40:40Z</time>
      </trkpt>
      <trkpt lat="45.05695" lon="6.04017">
        <ele>723.8</ele>
        <time>2024-08-14T15:40:41Z</time>
      </trkpt>
      <trkpt lat="45.05698" lon="6.04016">
        <ele>723.8</ele>
        <time>2024-08-14T15:40:42Z</time>
      </trkpt>
      <trkpt lat="45.05698" lon="6.04016">
        <ele>724</ele>
        <time>2024-08-14T15:40:43Z</time>
      </trkpt>
      <trkpt lat="45.05701" lon="6.04014">
        <ele>724</ele>
        <time>2024-08-14T15:40:44Z</time>
      </trkpt>
      <trkpt lat="45.05701" lon="6.04014">
        <ele>723.8</ele>
        <time>2024-08-14T15:40:45Z</time>
      </trkpt>
      <trkpt lat="45.05703" lon="6.04012">
        <ele>723.8</ele>
        <time>2024-08-14T15:40:46Z</time>
      </trkpt>
      <trkpt lat="45.05703" lon="6.04012">
        <ele>723.8</ele>
        <time>2024-08-14T15:40:47Z</time>
      </trkpt>
      <trkpt lat="45.05705" lon="6.04011">
        <ele>723.8</ele>
        <time>2024-08-14T15:40:48Z</time>
      </trkpt>
      <trkpt lat="45.05705" lon="6.04011">
        <ele>723.8</ele>
        <time>2024-08-14T15:40:49Z</time>
      </trkpt>
      <trkpt lat="45.05707" lon="6.04009">
        <ele>723.8</ele>
        <time>2024-08-14T15:40:50Z</time>
      </trkpt>
      <trkpt lat="45.05707" lon="6.04009">
        <ele>723.4</ele>
        <time>2024-08-14T15:40:51Z</time>
      </trkpt>
      <trkpt lat="45.0571" lon="6.04007">
        <ele>723.2</ele>
        <time>2024-08-14T15:40:52Z</time>
      </trkpt>
      <trkpt lat="45.0571" lon="6.04007">
        <ele>723.2</ele>
        <time>2024-08-14T15:40:53Z</time>
      </trkpt>
      <trkpt lat="45.05713" lon="6.04006">
        <ele>723.4</ele>
        <time>2024-08-14T15:40:54Z</time>
      </trkpt>
      <trkpt lat="45.05713" lon="6.04006">
        <ele>723.6</ele>
        <time>2024-08-14T15:40:55Z</time>
      </trkpt>
      <trkpt lat="45.05717" lon="6.04004">
        <ele>723.8</ele>
        <time>2024-08-14T15:40:56Z</time>
      </trkpt>
      <trkpt lat="45.05717" lon="6.04004">
        <ele>723.8</ele>
        <time>2024-08-14T15:40:57Z</time>
      </trkpt>
      <trkpt lat="45.05719" lon="6.04002">
        <ele>723.4</ele>
        <time>2024-08-14T15:40:58Z</time>
      </trkpt>
      <trkpt lat="45.05719" lon="6.04002">
        <ele>723.4</ele>
        <time>2024-08-14T15:40:59Z</time>
      </trkpt>
      <trkpt lat="45.05722" lon="6.04001">
        <ele>723.4</ele>
        <time>2024-08-14T15:41:00Z</time>
      </trkpt>
      <trkpt lat="45.05722" lon="6.04001">
        <ele>723.6</ele>
        <time>2024-08-14T15:41:01Z</time>
      </trkpt>
      <trkpt lat="45.05725" lon="6.03999">
        <ele>723.6</ele>
        <time>2024-08-14T15:41:02Z</time>
      </trkpt>
      <trkpt lat="45.05725" lon="6.03999">
        <ele>723.8</ele>
        <time>2024-08-14T15:41:03Z</time>
      </trkpt>
      <trkpt lat="45.05728" lon="6.03997">
        <ele>723.6</ele>
        <time>2024-08-14T15:41:04Z</time>
      </trkpt>
      <trkpt lat="45.05728" lon="6.03997">
        <ele>723.6</ele>
        <time>2024-08-14T15:41:05Z</time>
      </trkpt>
      <trkpt lat="45.05731" lon="6.03996">
        <ele>723.8</ele>
        <time>2024-08-14T15:41:06Z</time>
      </trkpt>
      <trkpt lat="45.05731" lon="6.03996">
        <ele>724.2</ele>
        <time>2024-08-14T15:41:07Z</time>
      </trkpt>
      <trkpt lat="45.05733" lon="6.03994">
        <ele>724.2</ele>
        <time>2024-08-14T15:41:08Z</time>
      </trkpt>
      <trkpt lat="45.05733" lon="6.03994">
        <ele>723.8</ele>
        <time>2024-08-14T15:41:09Z</time>
      </trkpt>
      <trkpt lat="45.05736" lon="6.03992">
        <ele>723.8</ele>
        <time>2024-08-14T15:41:10Z</time>
      </trkpt>
      <trkpt lat="45.05736" lon="6.03992">
        <ele>723.8</ele>
        <time>2024-08-14T15:41:11Z</time>
      </trkpt>
      <trkpt lat="45.05739" lon="6.03991">
        <ele>723.8</ele>
        <time>2024-08-14T15:41:12Z</time>
      </trkpt>
      <trkpt lat="45.05739" lon="6.03991">
        <ele>723.8</ele>
        <time>2024-08-14T15:41:13Z</time>
      </trkpt>
      <trkpt lat="45.05741" lon="6.03989">
        <ele>724</ele>
        <time>2024-08-14T15:41:14Z</time>
      </trkpt>
      <trkpt lat="45.05741" lon="6.03989">
        <ele>724</ele>
        <time>2024-08-14T15:41:15Z</time>
      </trkpt>
      <trkpt lat="45.05744" lon="6.03988">
        <ele>723.8</ele>
        <time>2024-08-14T15:41:16Z</time>
      </trkpt>
      <trkpt lat="45.05744" lon="6.03988">
        <ele>723.8</ele>
        <time>2024-08-14T15:41:17Z</time>
      </trkpt>
      <trkpt lat="45.05747" lon="6.03987">
        <ele>724</ele>
        <time>2024-08-14T15:41:18Z</time>
      </trkpt>
      <trkpt lat="45.05747" lon="6.03987">
        <ele>724.2</ele>
        <time>2024-08-14T15:41:19Z</time>
      </trkpt>
      <trkpt lat="45.05749" lon="6.03986">
        <ele>724.2</ele>
        <time>2024-08-14T15:41:20Z</time>
      </trkpt>
      <trkpt lat="45.05749" lon="6.03986">
        <ele>724.2</ele>
        <time>2024-08-14T15:41:21Z</time>
      </trkpt>
      <trkpt lat="45.05752" lon="6.03984">
        <ele>724.2</ele>
        <time>2024-08-14T15:41:22Z</time>
      </trkpt>
      <trkpt lat="45.05753" lon="6.03982">
        <ele>724.2</ele>
        <time>2024-08-14T15:41:23Z</time>
      </trkpt>
      <trkpt lat="45.05753" lon="6.03982">
        <ele>724.2</ele>
        <time>2024-08-14T15:41:24Z</time>
      </trkpt>
      <trkpt lat="45.05756" lon="6.0398">
        <ele>724.4</ele>
        <time>2024-08-14T15:41:25Z</time>
      </trkpt>
      <trkpt lat="45.05756" lon="6.0398">
        <ele>724.4</ele>
        <time>2024-08-14T15:41:26Z</time>
      </trkpt>
      <trkpt lat="45.05759" lon="6.03979">
        <ele>724.4</ele>
        <time>2024-08-14T15:41:27Z</time>
      </trkpt>
      <trkpt lat="45.05759" lon="6.03979">
        <ele>724.2</ele>
        <time>2024-08-14T15:41:28Z</time>
      </trkpt>
      <trkpt lat="45.05762" lon="6.03977">
        <ele>724.2</ele>
        <time>2024-08-14T15:41:29Z</time>
      </trkpt>
      <trkpt lat="45.05762" lon="6.03977">
        <ele>724.2</ele>
        <time>2024-08-14T15:41:30Z</time>
      </trkpt>
      <trkpt lat="45.05765" lon="6.03976">
        <ele>724.2</ele>
        <time>2024-08-14T15:41:31Z</time>
      </trkpt>
      <trkpt lat="45.05765" lon="6.03976">
        <ele>724.4</ele>
        <time>2024-08-14T15:41:32Z</time>
      </trkpt>
      <trkpt lat="45.05767" lon="6.03974">
        <ele>724.6</ele>
        <time>2024-08-14T15:41:33Z</time>
      </trkpt>
      <trkpt lat="45.05767" lon="6.03974">
        <ele>724.4</ele>
        <time>2024-08-14T15:41:34Z</time>
      </trkpt>
      <trkpt lat="45.0577" lon="6.03973">
        <ele>724.4</ele>
        <time>2024-08-14T15:41:35Z</time>
      </trkpt>
      <trkpt lat="45.0577" lon="6.03973">
        <ele>724.2</ele>
        <time>2024-08-14T15:41:36Z</time>
      </trkpt>
      <trkpt lat="45.0577" lon="6.03973">
        <ele>724.4</ele>
        <time>2024-08-14T15:41:37Z</time>
      </trkpt>
      <trkpt lat="45.05774" lon="6.03971">
        <ele>724.6</ele>
        <time>2024-08-14T15:41:38Z</time>
      </trkpt>
      <trkpt lat="45.05775" lon="6.0397">
        <ele>724.6</ele>
        <time>2024-08-14T15:41:39Z</time>
      </trkpt>
      <trkpt lat="45.05775" lon="6.0397">
        <ele>724.6</ele>
        <time>2024-08-14T15:41:40Z</time>
      </trkpt>
      <trkpt lat="45.05778" lon="6.03968">
        <ele>724.4</ele>
        <time>2024-08-14T15:41:41Z</time>
      </trkpt>
      <trkpt lat="45.05778" lon="6.03968">
        <ele>724.6</ele>
        <time>2024-08-14T15:41:42Z</time>
      </trkpt>
      <trkpt lat="45.05781" lon="6.03966">
        <ele>724.4</ele>
        <time>2024-08-14T15:41:43Z</time>
      </trkpt>
      <trkpt lat="45.05782" lon="6.03965">
        <ele>724.4</ele>
        <time>2024-08-14T15:41:44Z</time>
      </trkpt>
      <trkpt lat="45.05782" lon="6.03965">
        <ele>724.4</ele>
        <time>2024-08-14T15:41:45Z</time>
      </trkpt>
      <trkpt lat="45.05782" lon="6.03965">
        <ele>724.6</ele>
        <time>2024-08-14T15:41:46Z</time>
      </trkpt>
      <trkpt lat="45.05786" lon="6.03963">
        <ele>724.8</ele>
        <time>2024-08-14T15:41:47Z</time>
      </trkpt>
      <trkpt lat="45.05788" lon="6.03962">
        <ele>725</ele>
        <time>2024-08-14T15:41:48Z</time>
      </trkpt>
      <trkpt lat="45.05788" lon="6.03962">
        <ele>725</ele>
        <time>2024-08-14T15:41:49Z</time>
      </trkpt>
      <trkpt lat="45.0579" lon="6.03961">
        <ele>725</ele>
        <time>2024-08-14T15:41:50Z</time>
      </trkpt>
      <trkpt lat="45.0579" lon="6.03961">
        <ele>725.2</ele>
        <time>2024-08-14T15:41:51Z</time>
      </trkpt>
      <trkpt lat="45.05793" lon="6.0396">
        <ele>725.2</ele>
        <time>2024-08-14T15:41:52Z</time>
      </trkpt>
      <trkpt lat="45.05793" lon="6.0396">
        <ele>725.2</ele>
        <time>2024-08-14T15:41:53Z</time>
      </trkpt>
      <trkpt lat="45.05796" lon="6.03958">
        <ele>725.4</ele>
        <time>2024-08-14T15:41:54Z</time>
      </trkpt>
      <trkpt lat="45.05796" lon="6.03958">
        <ele>725.4</ele>
        <time>2024-08-14T15:41:55Z</time>
      </trkpt>
      <trkpt lat="45.05798" lon="6.03957">
        <ele>725.4</ele>
        <time>2024-08-14T15:41:56Z</time>
      </trkpt>
      <trkpt lat="45.05798" lon="6.03957">
        <ele>725.2</ele>
        <time>2024-08-14T15:41:57Z</time>
      </trkpt>
      <trkpt lat="45.05798" lon="6.03957">
        <ele>725.2</ele>
        <time>2024-08-14T15:41:58Z</time>
      </trkpt>
      <trkpt lat="45.05803" lon="6.03955">
        <ele>725.4</ele>
        <time>2024-08-14T15:41:59Z</time>
      </trkpt>
      <trkpt lat="45.05804" lon="6.03954">
        <ele>725.4</ele>
        <time>2024-08-14T15:42:00Z</time>
      </trkpt>
      <trkpt lat="45.05804" lon="6.03954">
        <ele>725.4</ele>
        <time>2024-08-14T15:42:01Z</time>
      </trkpt>
      <trkpt lat="45.05807" lon="6.03953">
        <ele>725.4</ele>
        <time>2024-08-14T15:42:02Z</time>
      </trkpt>
      <trkpt lat="45.05807" lon="6.03953">
        <ele>725.4</ele>
        <time>2024-08-14T15:42:03Z</time>
      </trkpt>
      <trkpt lat="45.0581" lon="6.03951">
        <ele>725.4</ele>
        <time>2024-08-14T15:42:04Z</time>
      </trkpt>
      <trkpt lat="45.0581" lon="6.03951">
        <ele>725.4</ele>
        <time>2024-08-14T15:42:05Z</time>
      </trkpt>
      <trkpt lat="45.05813" lon="6.03949">
        <ele>725.4</ele>
        <time>2024-08-14T15:42:06Z</time>
      </trkpt>
      <trkpt lat="45.05813" lon="6.03949">
        <ele>725.4</ele>
        <time>2024-08-14T15:42:07Z</time>
      </trkpt>
      <trkpt lat="45.05816" lon="6.03947">
        <ele>725.4</ele>
        <time>2024-08-14T15:42:08Z</time>
      </trkpt>
      <trkpt lat="45.05816" lon="6.03947">
        <ele>725.4</ele>
        <time>2024-08-14T15:42:09Z</time>
      </trkpt>
      <trkpt lat="45.05819" lon="6.03945">
        <ele>725.4</ele>
        <time>2024-08-14T15:42:10Z</time>
      </trkpt>
      <trkpt lat="45.05819" lon="6.03945">
        <ele>725.4</ele>
        <time>2024-08-14T15:42:11Z</time>
      </trkpt>
      <trkpt lat="45.05822" lon="6.03944">
        <ele>725.4</ele>
        <time>2024-08-14T15:42:12Z</time>
      </trkpt>
      <trkpt lat="45.05822" lon="6.03944">
        <ele>725.4</ele>
        <time>2024-08-14T15:42:13Z</time>
      </trkpt>
      <trkpt lat="45.05825" lon="6.03942">
        <ele>725.2</ele>
        <time>2024-08-14T15:42:14Z</time>
      </trkpt>
      <trkpt lat="45.05825" lon="6.03942">
        <ele>725.4</ele>
        <time>2024-08-14T15:42:15Z</time>
      </trkpt>
      <trkpt lat="45.05825" lon="6.03942">
        <ele>725.4</ele>
        <time>2024-08-14T15:42:16Z</time>
      </trkpt>
      <trkpt lat="45.05829" lon="6.03941">
        <ele>725.6</ele>
        <time>2024-08-14T15:42:17Z</time>
      </trkpt>
      <trkpt lat="45.0583" lon="6.0394">
        <ele>725.6</ele>
        <time>2024-08-14T15:42:18Z</time>
      </trkpt>
      <trkpt lat="45.0583" lon="6.0394">
        <ele>725.6</ele>
        <time>2024-08-14T15:42:19Z</time>
      </trkpt>
      <trkpt lat="45.05833" lon="6.03938">
        <ele>725.6</ele>
        <time>2024-08-14T15:42:20Z</time>
      </trkpt>
      <trkpt lat="45.05833" lon="6.03938">
        <ele>725.4</ele>
        <time>2024-08-14T15:42:21Z</time>
      </trkpt>
      <trkpt lat="45.05836" lon="6.03937">
        <ele>725.4</ele>
        <time>2024-08-14T15:42:22Z</time>
      </trkpt>
      <trkpt lat="45.05836" lon="6.03937">
        <ele>725.6</ele>
        <time>2024-08-14T15:42:23Z</time>
      </trkpt>
      <trkpt lat="45.05838" lon="6.03935">
        <ele>725.6</ele>
        <time>2024-08-14T15:42:24Z</time>
      </trkpt>
      <trkpt lat="45.05838" lon="6.03935">
        <ele>726</ele>
        <time>2024-08-14T15:42:25Z</time>
      </trkpt>
      <trkpt lat="45.05842" lon="6.03934">
        <ele>726</ele>
        <time>2024-08-14T15:42:26Z</time>
      </trkpt>
      <trkpt lat="45.05842" lon="6.03934">
        <ele>725.4</ele>
        <time>2024-08-14T15:42:27Z</time>
      </trkpt>
      <trkpt lat="45.05844" lon="6.03932">
        <ele>725.4</ele>
        <time>2024-08-14T15:42:28Z</time>
      </trkpt>
      <trkpt lat="45.05844" lon="6.03932">
        <ele>725.4</ele>
        <time>2024-08-14T15:42:29Z</time>
      </trkpt>
      <trkpt lat="45.05847" lon="6.03929">
        <ele>725.2</ele>
        <time>2024-08-14T15:42:30Z</time>
      </trkpt>
      <trkpt lat="45.05847" lon="6.03929">
        <ele>725.2</ele>
        <time>2024-08-14T15:42:31Z</time>
      </trkpt>
      <trkpt lat="45.0585" lon="6.03928">
        <ele>725.2</ele>
        <time>2024-08-14T15:42:32Z</time>
      </trkpt>
      <trkpt lat="45.0585" lon="6.03928">
        <ele>725.2</ele>
        <time>2024-08-14T15:42:33Z</time>
      </trkpt>
      <trkpt lat="45.05853" lon="6.03926">
        <ele>725.2</ele>
        <time>2024-08-14T15:42:34Z</time>
      </trkpt>
      <trkpt lat="45.05853" lon="6.03926">
        <ele>725.2</ele>
        <time>2024-08-14T15:42:35Z</time>
      </trkpt>
      <trkpt lat="45.05855" lon="6.03924">
        <ele>725.2</ele>
        <time>2024-08-14T15:42:36Z</time>
      </trkpt>
      <trkpt lat="45.05855" lon="6.03924">
        <ele>725.2</ele>
        <time>2024-08-14T15:42:37Z</time>
      </trkpt>
      <trkpt lat="45.05858" lon="6.03921">
        <ele>725.2</ele>
        <time>2024-08-14T15:42:38Z</time>
      </trkpt>
      <trkpt lat="45.05858" lon="6.03921">
        <ele>725.4</ele>
        <time>2024-08-14T15:42:39Z</time>
      </trkpt>
      <trkpt lat="45.0586" lon="6.03919">
        <ele>725.4</ele>
        <time>2024-08-14T15:42:40Z</time>
      </trkpt>
      <trkpt lat="45.0586" lon="6.03919">
        <ele>725.6</ele>
        <time>2024-08-14T15:42:41Z</time>
      </trkpt>
      <trkpt lat="45.05863" lon="6.03917">
        <ele>725.6</ele>
        <time>2024-08-14T15:42:42Z</time>
      </trkpt>
      <trkpt lat="45.05863" lon="6.03917">
        <ele>725.6</ele>
        <time>2024-08-14T15:42:43Z</time>
      </trkpt>
      <trkpt lat="45.05865" lon="6.03914">
        <ele>725.4</ele>
        <time>2024-08-14T15:42:44Z</time>
      </trkpt>
      <trkpt lat="45.05867" lon="6.03913">
        <ele>725.4</ele>
        <time>2024-08-14T15:42:45Z</time>
      </trkpt>
      <trkpt lat="45.05867" lon="6.03913">
        <ele>725.4</ele>
        <time>2024-08-14T15:42:46Z</time>
      </trkpt>
      <trkpt lat="45.05869" lon="6.03911">
        <ele>725.6</ele>
        <time>2024-08-14T15:42:47Z</time>
      </trkpt>
      <trkpt lat="45.05869" lon="6.03911">
        <ele>725.6</ele>
        <time>2024-08-14T15:42:48Z</time>
      </trkpt>
      <trkpt lat="45.05872" lon="6.03908">
        <ele>725.6</ele>
        <time>2024-08-14T15:42:49Z</time>
      </trkpt>
      <trkpt lat="45.05872" lon="6.03908">
        <ele>725.6</ele>
        <time>2024-08-14T15:42:50Z</time>
      </trkpt>
      <trkpt lat="45.05874" lon="6.03906">
        <ele>725.8</ele>
        <time>2024-08-14T15:42:51Z</time>
      </trkpt>
      <trkpt lat="45.05874" lon="6.03906">
        <ele>726</ele>
        <time>2024-08-14T15:42:52Z</time>
      </trkpt>
      <trkpt lat="45.05876" lon="6.03903">
        <ele>726</ele>
        <time>2024-08-14T15:42:53Z</time>
      </trkpt>
      <trkpt lat="45.05876" lon="6.03903">
        <ele>726</ele>
        <time>2024-08-14T15:42:54Z</time>
      </trkpt>
      <trkpt lat="45.05878" lon="6.039">
        <ele>726</ele>
        <time>2024-08-14T15:42:55Z</time>
      </trkpt>
      <trkpt lat="45.05878" lon="6.039">
        <ele>725.8</ele>
        <time>2024-08-14T15:42:56Z</time>
      </trkpt>
      <trkpt lat="45.0588" lon="6.03897">
        <ele>725.8</ele>
        <time>2024-08-14T15:42:57Z</time>
      </trkpt>
      <trkpt lat="45.0588" lon="6.03897">
        <ele>725.8</ele>
        <time>2024-08-14T15:42:58Z</time>
      </trkpt>
      <trkpt lat="45.05882" lon="6.03893">
        <ele>725.8</ele>
        <time>2024-08-14T15:42:59Z</time>
      </trkpt>
      <trkpt lat="45.05882" lon="6.03893">
        <ele>725.8</ele>
        <time>2024-08-14T15:43:00Z</time>
      </trkpt>
      <trkpt lat="45.05884" lon="6.0389">
        <ele>725.8</ele>
        <time>2024-08-14T15:43:01Z</time>
      </trkpt>
      <trkpt lat="45.05884" lon="6.0389">
        <ele>726</ele>
        <time>2024-08-14T15:43:02Z</time>
      </trkpt>
      <trkpt lat="45.05886" lon="6.03887">
        <ele>726</ele>
        <time>2024-08-14T15:43:03Z</time>
      </trkpt>
      <trkpt lat="45.05886" lon="6.03887">
        <ele>726</ele>
        <time>2024-08-14T15:43:04Z</time>
      </trkpt>
      <trkpt lat="45.05888" lon="6.03884">
        <ele>726</ele>
        <time>2024-08-14T15:43:05Z</time>
      </trkpt>
      <trkpt lat="45.05888" lon="6.03884">
        <ele>726.2</ele>
        <time>2024-08-14T15:43:06Z</time>
      </trkpt>
      <trkpt lat="45.0589" lon="6.0388">
        <ele>726.4</ele>
        <time>2024-08-14T15:43:07Z</time>
      </trkpt>
      <trkpt lat="45.0589" lon="6.0388">
        <ele>726.4</ele>
        <time>2024-08-14T15:43:08Z</time>
      </trkpt>
      <trkpt lat="45.05892" lon="6.03877">
        <ele>726.6</ele>
        <time>2024-08-14T15:43:09Z</time>
      </trkpt>
      <trkpt lat="45.05892" lon="6.03877">
        <ele>726.6</ele>
        <time>2024-08-14T15:43:10Z</time>
      </trkpt>
      <trkpt lat="45.05893" lon="6.03873">
        <ele>726.6</ele>
        <time>2024-08-14T15:43:11Z</time>
      </trkpt>
      <trkpt lat="45.05893" lon="6.03873">
        <ele>726.6</ele>
        <time>2024-08-14T15:43:12Z</time>
      </trkpt>
      <trkpt lat="45.05894" lon="6.0387">
        <ele>726.4</ele>
        <time>2024-08-14T15:43:13Z</time>
      </trkpt>
      <trkpt lat="45.05894" lon="6.0387">
        <ele>726.4</ele>
        <time>2024-08-14T15:43:14Z</time>
      </trkpt>
      <trkpt lat="45.05896" lon="6.03866">
        <ele>726.4</ele>
        <time>2024-08-14T15:43:15Z</time>
      </trkpt>
      <trkpt lat="45.05896" lon="6.03866">
        <ele>726.6</ele>
        <time>2024-08-14T15:43:16Z</time>
      </trkpt>
      <trkpt lat="45.05898" lon="6.03862">
        <ele>726.6</ele>
        <time>2024-08-14T15:43:17Z</time>
      </trkpt>
      <trkpt lat="45.05898" lon="6.03862">
        <ele>726.6</ele>
        <time>2024-08-14T15:43:18Z</time>
      </trkpt>
      <trkpt lat="45.05899" lon="6.03859">
        <ele>726.6</ele>
        <time>2024-08-14T15:43:19Z</time>
      </trkpt>
      <trkpt lat="45.05899" lon="6.03859">
        <ele>726.6</ele>
        <time>2024-08-14T15:43:20Z</time>
      </trkpt>
      <trkpt lat="45.059" lon="6.03855">
        <ele>726.6</ele>
        <time>2024-08-14T15:43:21Z</time>
      </trkpt>
      <trkpt lat="45.059" lon="6.03855">
        <ele>726.6</ele>
        <time>2024-08-14T15:43:22Z</time>
      </trkpt>
      <trkpt lat="45.05901" lon="6.03851">
        <ele>726.8</ele>
        <time>2024-08-14T15:43:23Z</time>
      </trkpt>
      <trkpt lat="45.05901" lon="6.03851">
        <ele>726.8</ele>
        <time>2024-08-14T15:43:24Z</time>
      </trkpt>
      <trkpt lat="45.05902" lon="6.03848">
        <ele>727</ele>
        <time>2024-08-14T15:43:25Z</time>
      </trkpt>
      <trkpt lat="45.05902" lon="6.03848">
        <ele>727</ele>
        <time>2024-08-14T15:43:26Z</time>
      </trkpt>
      <trkpt lat="45.05904" lon="6.03844">
        <ele>727</ele>
        <time>2024-08-14T15:43:27Z</time>
      </trkpt>
      <trkpt lat="45.05904" lon="6.03844">
        <ele>727</ele>
        <time>2024-08-14T15:43:28Z</time>
      </trkpt>
      <trkpt lat="45.05904" lon="6.03841">
        <ele>727.2</ele>
        <time>2024-08-14T15:43:29Z</time>
      </trkpt>
      <trkpt lat="45.05904" lon="6.03841">
        <ele>727.2</ele>
        <time>2024-08-14T15:43:30Z</time>
      </trkpt>
      <trkpt lat="45.05905" lon="6.03837">
        <ele>727.2</ele>
        <time>2024-08-14T15:43:31Z</time>
      </trkpt>
      <trkpt lat="45.05905" lon="6.03837">
        <ele>727.4</ele>
        <time>2024-08-14T15:43:32Z</time>
      </trkpt>
      <trkpt lat="45.05906" lon="6.03833">
        <ele>727.2</ele>
        <time>2024-08-14T15:43:33Z</time>
      </trkpt>
      <trkpt lat="45.05906" lon="6.03833">
        <ele>727.4</ele>
        <time>2024-08-14T15:43:34Z</time>
      </trkpt>
      <trkpt lat="45.05907" lon="6.03829">
        <ele>727.4</ele>
        <time>2024-08-14T15:43:35Z</time>
      </trkpt>
      <trkpt lat="45.05907" lon="6.03829">
        <ele>727.4</ele>
        <time>2024-08-14T15:43:36Z</time>
      </trkpt>
      <trkpt lat="45.05907" lon="6.03829">
        <ele>727.4</ele>
        <time>2024-08-14T15:43:37Z</time>
      </trkpt>
      <trkpt lat="45.05908" lon="6.03823">
        <ele>727.4</ele>
        <time>2024-08-14T15:43:38Z</time>
      </trkpt>
      <trkpt lat="45.05908" lon="6.03821">
        <ele>727.6</ele>
        <time>2024-08-14T15:43:39Z</time>
      </trkpt>
      <trkpt lat="45.05908" lon="6.03821">
        <ele>727.6</ele>
        <time>2024-08-14T15:43:40Z</time>
      </trkpt>
      <trkpt lat="45.05909" lon="6.03817">
        <ele>727.6</ele>
        <time>2024-08-14T15:43:41Z</time>
      </trkpt>
      <trkpt lat="45.05909" lon="6.03817">
        <ele>727.6</ele>
        <time>2024-08-14T15:43:42Z</time>
      </trkpt>
      <trkpt lat="45.05909" lon="6.03814">
        <ele>727.6</ele>
        <time>2024-08-14T15:43:43Z</time>
      </trkpt>
      <trkpt lat="45.05909" lon="6.03814">
        <ele>727.8</ele>
        <time>2024-08-14T15:43:44Z</time>
      </trkpt>
      <trkpt lat="45.05908" lon="6.0381">
        <ele>727.8</ele>
        <time>2024-08-14T15:43:45Z</time>
      </trkpt>
      <trkpt lat="45.05908" lon="6.0381">
        <ele>728</ele>
        <time>2024-08-14T15:43:46Z</time>
      </trkpt>
      <trkpt lat="45.05908" lon="6.0381">
        <ele>728.2</ele>
        <time>2024-08-14T15:43:47Z</time>
      </trkpt>
      <trkpt lat="45.05908" lon="6.03807">
        <ele>728.2</ele>
        <time>2024-08-14T15:43:48Z</time>
      </trkpt>
      <trkpt lat="45.05908" lon="6.03807">
        <ele>728.2</ele>
        <time>2024-08-14T15:43:49Z</time>
      </trkpt>
      <trkpt lat="45.05906" lon="6.03803">
        <ele>728.2</ele>
        <time>2024-08-14T15:43:50Z</time>
      </trkpt>
      <trkpt lat="45.05906" lon="6.03803">
        <ele>728.2</ele>
        <time>2024-08-14T15:43:51Z</time>
      </trkpt>
      <trkpt lat="45.05905" lon="6.038">
        <ele>728.2</ele>
        <time>2024-08-14T15:43:52Z</time>
      </trkpt>
      <trkpt lat="45.05905" lon="6.038">
        <ele>728.2</ele>
        <time>2024-08-14T15:43:53Z</time>
      </trkpt>
      <trkpt lat="45.05904" lon="6.03797">
        <ele>728.2</ele>
        <time>2024-08-14T15:43:54Z</time>
      </trkpt>
      <trkpt lat="45.05904" lon="6.03797">
        <ele>728.2</ele>
        <time>2024-08-14T15:43:55Z</time>
      </trkpt>
      <trkpt lat="45.05902" lon="6.03793">
        <ele>728.4</ele>
        <time>2024-08-14T15:43:56Z</time>
      </trkpt>
      <trkpt lat="45.05902" lon="6.03793">
        <ele>728.6</ele>
        <time>2024-08-14T15:43:57Z</time>
      </trkpt>
      <trkpt lat="45.05902" lon="6.03793">
        <ele>728.6</ele>
        <time>2024-08-14T15:43:58Z</time>
      </trkpt>
      <trkpt lat="45.05901" lon="6.03787">
        <ele>728.6</ele>
        <time>2024-08-14T15:43:59Z</time>
      </trkpt>
      <trkpt lat="45.05901" lon="6.03785">
        <ele>728.6</ele>
        <time>2024-08-14T15:44:00Z</time>
      </trkpt>
      <trkpt lat="45.05901" lon="6.03785">
        <ele>728.6</ele>
        <time>2024-08-14T15:44:01Z</time>
      </trkpt>
      <trkpt lat="45.05901" lon="6.03781">
        <ele>728.8</ele>
        <time>2024-08-14T15:44:02Z</time>
      </trkpt>
      <trkpt lat="45.05901" lon="6.03781">
        <ele>728.8</ele>
        <time>2024-08-14T15:44:03Z</time>
      </trkpt>
      <trkpt lat="45.05901" lon="6.03781">
        <ele>728.8</ele>
        <time>2024-08-14T15:44:04Z</time>
      </trkpt>
      <trkpt lat="45.05901" lon="6.03775">
        <ele>728.8</ele>
        <time>2024-08-14T15:44:05Z</time>
      </trkpt>
      <trkpt lat="45.059" lon="6.03773">
        <ele>728.6</ele>
        <time>2024-08-14T15:44:06Z</time>
      </trkpt>
      <trkpt lat="45.059" lon="6.03773">
        <ele>728.6</ele>
        <time>2024-08-14T15:44:07Z</time>
      </trkpt>
      <trkpt lat="45.05899" lon="6.03769">
        <ele>728.6</ele>
        <time>2024-08-14T15:44:08Z</time>
      </trkpt>
      <trkpt lat="45.05899" lon="6.03769">
        <ele>728.6</ele>
        <time>2024-08-14T15:44:09Z</time>
      </trkpt>
      <trkpt lat="45.05899" lon="6.03769">
        <ele>728.6</ele>
        <time>2024-08-14T15:44:10Z</time>
      </trkpt>
      <trkpt lat="45.05901" lon="6.03764">
        <ele>728.8</ele>
        <time>2024-08-14T15:44:11Z</time>
      </trkpt>
      <trkpt lat="45.05902" lon="6.03763">
        <ele>728.8</ele>
        <time>2024-08-14T15:44:12Z</time>
      </trkpt>
      <trkpt lat="45.05902" lon="6.03763">
        <ele>728.8</ele>
        <time>2024-08-14T15:44:13Z</time>
      </trkpt>
      <trkpt lat="45.05904" lon="6.03761">
        <ele>729</ele>
        <time>2024-08-14T15:44:14Z</time>
      </trkpt>
      <trkpt lat="45.05904" lon="6.03761">
        <ele>729.2</ele>
        <time>2024-08-14T15:44:15Z</time>
      </trkpt>
      <trkpt lat="45.05904" lon="6.03761">
        <ele>729.4</ele>
        <time>2024-08-14T15:44:16Z</time>
      </trkpt>
      <trkpt lat="45.05902" lon="6.03758">
        <ele>729.4</ele>
        <time>2024-08-14T15:44:17Z</time>
      </trkpt>
      <trkpt lat="45.05901" lon="6.03757">
        <ele>729.6</ele>
        <time>2024-08-14T15:44:18Z</time>
      </trkpt>
      <trkpt lat="45.05901" lon="6.03757">
        <ele>729.6</ele>
        <time>2024-08-14T15:44:19Z</time>
      </trkpt>
      <trkpt lat="45.059" lon="6.03754">
        <ele>729.8</ele>
        <time>2024-08-14T15:44:20Z</time>
      </trkpt>
      <trkpt lat="45.059" lon="6.03754">
        <ele>729.8</ele>
        <time>2024-08-14T15:44:21Z</time>
      </trkpt>
      <trkpt lat="45.059" lon="6.03754">
        <ele>729.6</ele>
        <time>2024-08-14T15:44:22Z</time>
      </trkpt>
      <trkpt lat="45.05901" lon="6.03748">
        <ele>729.6</ele>
        <time>2024-08-14T15:44:23Z</time>
      </trkpt>
      <trkpt lat="45.059" lon="6.03746">
        <ele>729.2</ele>
        <time>2024-08-14T15:44:24Z</time>
      </trkpt>
      <trkpt lat="45.059" lon="6.03746">
        <ele>729.2</ele>
        <time>2024-08-14T15:44:25Z</time>
      </trkpt>
      <trkpt lat="45.05898" lon="6.03742">
        <ele>729</ele>
        <time>2024-08-14T15:44:26Z</time>
      </trkpt>
      <trkpt lat="45.05898" lon="6.03742">
        <ele>729</ele>
        <time>2024-08-14T15:44:27Z</time>
      </trkpt>
      <trkpt lat="45.05898" lon="6.03742">
        <ele>729.4</ele>
        <time>2024-08-14T15:44:28Z</time>
      </trkpt>
      <trkpt lat="45.05895" lon="6.03739">
        <ele>729.4</ele>
        <time>2024-08-14T15:44:29Z</time>
      </trkpt>
      <trkpt lat="45.05893" lon="6.03737">
        <ele>729.4</ele>
        <time>2024-08-14T15:44:30Z</time>
      </trkpt>
      <trkpt lat="45.05893" lon="6.03737">
        <ele>729.4</ele>
        <time>2024-08-14T15:44:31Z</time>
      </trkpt>
      <trkpt lat="45.05891" lon="6.03735">
        <ele>729.4</ele>
        <time>2024-08-14T15:44:32Z</time>
      </trkpt>
      <trkpt lat="45.05891" lon="6.03735">
        <ele>729.8</ele>
        <time>2024-08-14T15:44:33Z</time>
      </trkpt>
      <trkpt lat="45.05891" lon="6.03735">
        <ele>729.8</ele>
        <time>2024-08-14T15:44:34Z</time>
      </trkpt>
      <trkpt lat="45.05888" lon="6.03731">
        <ele>730</ele>
        <time>2024-08-14T15:44:35Z</time>
      </trkpt>
      <trkpt lat="45.05887" lon="6.03729">
        <ele>730</ele>
        <time>2024-08-14T15:44:36Z</time>
      </trkpt>
      <trkpt lat="45.05887" lon="6.03729">
        <ele>730</ele>
        <time>2024-08-14T15:44:37Z</time>
      </trkpt>
      <trkpt lat="45.05885" lon="6.03726">
        <ele>730</ele>
        <time>2024-08-14T15:44:38Z</time>
      </trkpt>
      <trkpt lat="45.05885" lon="6.03726">
        <ele>730</ele>
        <time>2024-08-14T15:44:39Z</time>
      </trkpt>
      <trkpt lat="45.05883" lon="6.03723">
        <ele>730</ele>
        <time>2024-08-14T15:44:40Z</time>
      </trkpt>
      <trkpt lat="45.05883" lon="6.03723">
        <ele>730.4</ele>
        <time>2024-08-14T15:44:41Z</time>
      </trkpt>
      <trkpt lat="45.0588" lon="6.0372">
        <ele>730.4</ele>
        <time>2024-08-14T15:44:42Z</time>
      </trkpt>
      <trkpt lat="45.0588" lon="6.0372">
        <ele>730.4</ele>
        <time>2024-08-14T15:44:43Z</time>
      </trkpt>
      <trkpt lat="45.05878" lon="6.03717">
        <ele>730</ele>
        <time>2024-08-14T15:44:44Z</time>
      </trkpt>
      <trkpt lat="45.05877" lon="6.03715">
        <ele>730</ele>
        <time>2024-08-14T15:44:45Z</time>
      </trkpt>
      <trkpt lat="45.05877" lon="6.03715">
        <ele>730.2</ele>
        <time>2024-08-14T15:44:46Z</time>
      </trkpt>
      <trkpt lat="45.05876" lon="6.03712">
        <ele>730.4</ele>
        <time>2024-08-14T15:44:47Z</time>
      </trkpt>
      <trkpt lat="45.05876" lon="6.03712">
        <ele>730.4</ele>
        <time>2024-08-14T15:44:48Z</time>
      </trkpt>
      <trkpt lat="45.05876" lon="6.03712">
        <ele>730.6</ele>
        <time>2024-08-14T15:44:49Z</time>
      </trkpt>
      <trkpt lat="45.05872" lon="6.03708">
        <ele>731</ele>
        <time>2024-08-14T15:44:50Z</time>
      </trkpt>
      <trkpt lat="45.05871" lon="6.03707">
        <ele>731.2</ele>
        <time>2024-08-14T15:44:51Z</time>
      </trkpt>
      <trkpt lat="45.05871" lon="6.03707">
        <ele>731.2</ele>
        <time>2024-08-14T15:44:52Z</time>
      </trkpt>
      <trkpt lat="45.05869" lon="6.03704">
        <ele>731.2</ele>
        <time>2024-08-14T15:44:53Z</time>
      </trkpt>
      <trkpt lat="45.05869" lon="6.03704">
        <ele>731.2</ele>
        <time>2024-08-14T15:44:54Z</time>
      </trkpt>
      <trkpt lat="45.05869" lon="6.03704">
        <ele>731.2</ele>
        <time>2024-08-14T15:44:55Z</time>
      </trkpt>
      <trkpt lat="45.05866" lon="6.03699">
        <ele>731.4</ele>
        <time>2024-08-14T15:44:56Z</time>
      </trkpt>
      <trkpt lat="45.05865" lon="6.03698">
        <ele>731.6</ele>
        <time>2024-08-14T15:44:57Z</time>
      </trkpt>
      <trkpt lat="45.05865" lon="6.03698">
        <ele>731.8</ele>
        <time>2024-08-14T15:44:58Z</time>
      </trkpt>
      <trkpt lat="45.05863" lon="6.03695">
        <ele>731.8</ele>
        <time>2024-08-14T15:44:59Z</time>
      </trkpt>
      <trkpt lat="45.05863" lon="6.03695">
        <ele>731.8</ele>
        <time>2024-08-14T15:45:00Z</time>
      </trkpt>
      <trkpt lat="45.05861" lon="6.03692">
        <ele>732</ele>
        <time>2024-08-14T15:45:01Z</time>
      </trkpt>
      <trkpt lat="45.05861" lon="6.03692">
        <ele>732.2</ele>
        <time>2024-08-14T15:45:02Z</time>
      </trkpt>
      <trkpt lat="45.05859" lon="6.03689">
        <ele>732.2</ele>
        <time>2024-08-14T15:45:03Z</time>
      </trkpt>
      <trkpt lat="45.05859" lon="6.03689">
        <ele>732.2</ele>
        <time>2024-08-14T15:45:04Z</time>
      </trkpt>
      <trkpt lat="45.05857" lon="6.03686">
        <ele>731.8</ele>
        <time>2024-08-14T15:45:05Z</time>
      </trkpt>
      <trkpt lat="45.05857" lon="6.03686">
        <ele>731.8</ele>
        <time>2024-08-14T15:45:06Z</time>
      </trkpt>
      <trkpt lat="45.05855" lon="6.03683">
        <ele>731.8</ele>
        <time>2024-08-14T15:45:07Z</time>
      </trkpt>
      <trkpt lat="45.05855" lon="6.03683">
        <ele>731.8</ele>
        <time>2024-08-14T15:45:08Z</time>
      </trkpt>
      <trkpt lat="45.05853" lon="6.0368">
        <ele>731.4</ele>
        <time>2024-08-14T15:45:09Z</time>
      </trkpt>
      <trkpt lat="45.05853" lon="6.0368">
        <ele>731.4</ele>
        <time>2024-08-14T15:45:10Z</time>
      </trkpt>
      <trkpt lat="45.05852" lon="6.03677">
        <ele>731.6</ele>
        <time>2024-08-14T15:45:11Z</time>
      </trkpt>
      <trkpt lat="45.05852" lon="6.03677">
        <ele>731.8</ele>
        <time>2024-08-14T15:45:12Z</time>
      </trkpt>
      <trkpt lat="45.05852" lon="6.03677">
        <ele>731.8</ele>
        <time>2024-08-14T15:45:13Z</time>
      </trkpt>
      <trkpt lat="45.05849" lon="6.03672">
        <ele>731.4</ele>
        <time>2024-08-14T15:45:14Z</time>
      </trkpt>
      <trkpt lat="45.05848" lon="6.03671">
        <ele>731.4</ele>
        <time>2024-08-14T15:45:15Z</time>
      </trkpt>
      <trkpt lat="45.05848" lon="6.03671">
        <ele>731.4</ele>
        <time>2024-08-14T15:45:16Z</time>
      </trkpt>
      <trkpt lat="45.05846" lon="6.03668">
        <ele>731.4</ele>
        <time>2024-08-14T15:45:17Z</time>
      </trkpt>
      <trkpt lat="45.05846" lon="6.03668">
        <ele>731.2</ele>
        <time>2024-08-14T15:45:18Z</time>
      </trkpt>
      <trkpt lat="45.05846" lon="6.03668">
        <ele>731</ele>
        <time>2024-08-14T15:45:19Z</time>
      </trkpt>
      <trkpt lat="45.05843" lon="6.03663">
        <ele>731</ele>
        <time>2024-08-14T15:45:20Z</time>
      </trkpt>
      <trkpt lat="45.05842" lon="6.03661">
        <ele>731</ele>
        <time>2024-08-14T15:45:21Z</time>
      </trkpt>
      <trkpt lat="45.05842" lon="6.03661">
        <ele>730.8</ele>
        <time>2024-08-14T15:45:22Z</time>
      </trkpt>
      <trkpt lat="45.0584" lon="6.03659">
        <ele>730.8</ele>
        <time>2024-08-14T15:45:23Z</time>
      </trkpt>
      <trkpt lat="45.0584" lon="6.03659">
        <ele>730.8</ele>
        <time>2024-08-14T15:45:24Z</time>
      </trkpt>
      <trkpt lat="45.05838" lon="6.03655">
        <ele>730.8</ele>
        <time>2024-08-14T15:45:25Z</time>
      </trkpt>
      <trkpt lat="45.05838" lon="6.03655">
        <ele>730.6</ele>
        <time>2024-08-14T15:45:26Z</time>
      </trkpt>
      <trkpt lat="45.05836" lon="6.03652">
        <ele>730.6</ele>
        <time>2024-08-14T15:45:27Z</time>
      </trkpt>
      <trkpt lat="45.05836" lon="6.03652">
        <ele>730.6</ele>
        <time>2024-08-14T15:45:28Z</time>
      </trkpt>
      <trkpt lat="45.05834" lon="6.03649">
        <ele>730.6</ele>
        <time>2024-08-14T15:45:29Z</time>
      </trkpt>
      <trkpt lat="45.05834" lon="6.03649">
        <ele>730.4</ele>
        <time>2024-08-14T15:45:30Z</time>
      </trkpt>
      <trkpt lat="45.05834" lon="6.03649">
        <ele>730.4</ele>
        <time>2024-08-14T15:45:31Z</time>
      </trkpt>
      <trkpt lat="45.05831" lon="6.03645">
        <ele>730.2</ele>
        <time>2024-08-14T15:45:32Z</time>
      </trkpt>
      <trkpt lat="45.0583" lon="6.03644">
        <ele>730.2</ele>
        <time>2024-08-14T15:45:33Z</time>
      </trkpt>
      <trkpt lat="45.0583" lon="6.03644">
        <ele>730</ele>
        <time>2024-08-14T15:45:34Z</time>
      </trkpt>
      <trkpt lat="45.05828" lon="6.03641">
        <ele>729.8</ele>
        <time>2024-08-14T15:45:35Z</time>
      </trkpt>
      <trkpt lat="45.05828" lon="6.03641">
        <ele>729.8</ele>
        <time>2024-08-14T15:45:36Z</time>
      </trkpt>
      <trkpt lat="45.05826" lon="6.03638">
        <ele>730</ele>
        <time>2024-08-14T15:45:37Z</time>
      </trkpt>
      <trkpt lat="45.05826" lon="6.03638">
        <ele>730</ele>
        <time>2024-08-14T15:45:38Z</time>
      </trkpt>
      <trkpt lat="45.05825" lon="6.03635">
        <ele>730</ele>
        <time>2024-08-14T15:45:39Z</time>
      </trkpt>
      <trkpt lat="45.05825" lon="6.03635">
        <ele>730</ele>
        <time>2024-08-14T15:45:40Z</time>
      </trkpt>
      <trkpt lat="45.05823" lon="6.03632">
        <ele>730.4</ele>
        <time>2024-08-14T15:45:41Z</time>
      </trkpt>
      <trkpt lat="45.05823" lon="6.03632">
        <ele>730.4</ele>
        <time>2024-08-14T15:45:42Z</time>
      </trkpt>
      <trkpt lat="45.05821" lon="6.03629">
        <ele>730.6</ele>
        <time>2024-08-14T15:45:43Z</time>
      </trkpt>
      <trkpt lat="45.05821" lon="6.03629">
        <ele>730.6</ele>
        <time>2024-08-14T15:45:44Z</time>
      </trkpt>
      <trkpt lat="45.05819" lon="6.03626">
        <ele>730.6</ele>
        <time>2024-08-14T15:45:45Z</time>
      </trkpt>
      <trkpt lat="45.05819" lon="6.03626">
        <ele>730.6</ele>
        <time>2024-08-14T15:45:46Z</time>
      </trkpt>
      <trkpt lat="45.05817" lon="6.03623">
        <ele>730.8</ele>
        <time>2024-08-14T15:45:47Z</time>
      </trkpt>
      <trkpt lat="45.05817" lon="6.03623">
        <ele>730.8</ele>
        <time>2024-08-14T15:45:48Z</time>
      </trkpt>
      <trkpt lat="45.05817" lon="6.03623">
        <ele>730.8</ele>
        <time>2024-08-14T15:45:49Z</time>
      </trkpt>
      <trkpt lat="45.05814" lon="6.03619">
        <ele>730.6</ele>
        <time>2024-08-14T15:45:50Z</time>
      </trkpt>
      <trkpt lat="45.05813" lon="6.03618">
        <ele>730.6</ele>
        <time>2024-08-14T15:45:51Z</time>
      </trkpt>
      <trkpt lat="45.05813" lon="6.03618">
        <ele>730.8</ele>
        <time>2024-08-14T15:45:52Z</time>
      </trkpt>
      <trkpt lat="45.05811" lon="6.03615">
        <ele>731.2</ele>
        <time>2024-08-14T15:45:53Z</time>
      </trkpt>
      <trkpt lat="45.05811" lon="6.03615">
        <ele>731.2</ele>
        <time>2024-08-14T15:45:54Z</time>
      </trkpt>
      <trkpt lat="45.05811" lon="6.03615">
        <ele>731.4</ele>
        <time>2024-08-14T15:45:55Z</time>
      </trkpt>
      <trkpt lat="45.05808" lon="6.0361">
        <ele>731.4</ele>
        <time>2024-08-14T15:45:56Z</time>
      </trkpt>
      <trkpt lat="45.05807" lon="6.03609">
        <ele>731.4</ele>
        <time>2024-08-14T15:45:57Z</time>
      </trkpt>
      <trkpt lat="45.05807" lon="6.03609">
        <ele>731.2</ele>
        <time>2024-08-14T15:45:58Z</time>
      </trkpt>
      <trkpt lat="45.05805" lon="6.03607">
        <ele>731</ele>
        <time>2024-08-14T15:45:59Z</time>
      </trkpt>
      <trkpt lat="45.05805" lon="6.03607">
        <ele>731</ele>
        <time>2024-08-14T15:46:00Z</time>
      </trkpt>
      <trkpt lat="45.05805" lon="6.03607">
        <ele>731.2</ele>
        <time>2024-08-14T15:46:01Z</time>
      </trkpt>
      <trkpt lat="45.05801" lon="6.03603">
        <ele>731.2</ele>
        <time>2024-08-14T15:46:02Z</time>
      </trkpt>
      <trkpt lat="45.058" lon="6.03602">
        <ele>731.2</ele>
        <time>2024-08-14T15:46:03Z</time>
      </trkpt>
      <trkpt lat="45.058" lon="6.03602">
        <ele>731.2</ele>
        <time>2024-08-14T15:46:04Z</time>
      </trkpt>
      <trkpt lat="45.05798" lon="6.03599">
        <ele>731</ele>
        <time>2024-08-14T15:46:05Z</time>
      </trkpt>
      <trkpt lat="45.05797" lon="6.03598">
        <ele>731</ele>
        <time>2024-08-14T15:46:06Z</time>
      </trkpt>
      <trkpt lat="45.05797" lon="6.03598">
        <ele>731</ele>
        <time>2024-08-14T15:46:07Z</time>
      </trkpt>
      <trkpt lat="45.05795" lon="6.03596">
        <ele>730.6</ele>
        <time>2024-08-14T15:46:08Z</time>
      </trkpt>
      <trkpt lat="45.05795" lon="6.03596">
        <ele>730.6</ele>
        <time>2024-08-14T15:46:09Z</time>
      </trkpt>
      <trkpt lat="45.05795" lon="6.03596">
        <ele>730.4</ele>
        <time>2024-08-14T15:46:10Z</time>
      </trkpt>
      <trkpt lat="45.05792" lon="6.03592">
        <ele>730.6</ele>
        <time>2024-08-14T15:46:11Z</time>
      </trkpt>
      <trkpt lat="45.0579" lon="6.03591">
        <ele>730.6</ele>
        <time>2024-08-14T15:46:12Z</time>
      </trkpt>
      <trkpt lat="45.0579" lon="6.03591">
        <ele>730.6</ele>
        <time>2024-08-14T15:46:13Z</time>
      </trkpt>
      <trkpt lat="45.05788" lon="6.03588">
        <ele>730.8</ele>
        <time>2024-08-14T15:46:14Z</time>
      </trkpt>
      <trkpt lat="45.05788" lon="6.03588">
        <ele>730.8</ele>
        <time>2024-08-14T15:46:15Z</time>
      </trkpt>
      <trkpt lat="45.05788" lon="6.03588">
        <ele>730.8</ele>
        <time>2024-08-14T15:46:16Z</time>
      </trkpt>
      <trkpt lat="45.05785" lon="6.03584">
        <ele>730.8</ele>
        <time>2024-08-14T15:46:17Z</time>
      </trkpt>
      <trkpt lat="45.05784" lon="6.03583">
        <ele>731</ele>
        <time>2024-08-14T15:46:18Z</time>
      </trkpt>
      <trkpt lat="45.05784" lon="6.03583">
        <ele>731</ele>
        <time>2024-08-14T15:46:19Z</time>
      </trkpt>
      <trkpt lat="45.05781" lon="6.0358">
        <ele>730.8</ele>
        <time>2024-08-14T15:46:20Z</time>
      </trkpt>
      <trkpt lat="45.05781" lon="6.0358">
        <ele>730.4</ele>
        <time>2024-08-14T15:46:21Z</time>
      </trkpt>
      <trkpt lat="45.05781" lon="6.0358">
        <ele>730.4</ele>
        <time>2024-08-14T15:46:22Z</time>
      </trkpt>
      <trkpt lat="45.05778" lon="6.03576">
        <ele>730.2</ele>
        <time>2024-08-14T15:46:23Z</time>
      </trkpt>
      <trkpt lat="45.05777" lon="6.03575">
        <ele>730.2</ele>
        <time>2024-08-14T15:46:24Z</time>
      </trkpt>
      <trkpt lat="45.05777" lon="6.03575">
        <ele>730.4</ele>
        <time>2024-08-14T15:46:25Z</time>
      </trkpt>
      <trkpt lat="45.05774" lon="6.03572">
        <ele>730.4</ele>
        <time>2024-08-14T15:46:26Z</time>
      </trkpt>
      <trkpt lat="45.05773" lon="6.03571">
        <ele>730.2</ele>
        <time>2024-08-14T15:46:27Z</time>
      </trkpt>
      <trkpt lat="45.05773" lon="6.03571">
        <ele>730.6</ele>
        <time>2024-08-14T15:46:28Z</time>
      </trkpt>
      <trkpt lat="45.0577" lon="6.03568">
        <ele>730.6</ele>
        <time>2024-08-14T15:46:29Z</time>
      </trkpt>
      <trkpt lat="45.0577" lon="6.03568">
        <ele>730.6</ele>
        <time>2024-08-14T15:46:30Z</time>
      </trkpt>
      <trkpt lat="45.05768" lon="6.03566">
        <ele>730.4</ele>
        <time>2024-08-14T15:46:31Z</time>
      </trkpt>
      <trkpt lat="45.05768" lon="6.03566">
        <ele>730.4</ele>
        <time>2024-08-14T15:46:32Z</time>
      </trkpt>
      <trkpt lat="45.05765" lon="6.03564">
        <ele>730</ele>
        <time>2024-08-14T15:46:33Z</time>
      </trkpt>
      <trkpt lat="45.05765" lon="6.03564">
        <ele>730</ele>
        <time>2024-08-14T15:46:34Z</time>
      </trkpt>
      <trkpt lat="45.05763" lon="6.03561">
        <ele>729.8</ele>
        <time>2024-08-14T15:46:35Z</time>
      </trkpt>
      <trkpt lat="45.05762" lon="6.0356">
        <ele>729.8</ele>
        <time>2024-08-14T15:46:36Z</time>
      </trkpt>
      <trkpt lat="45.05762" lon="6.0356">
        <ele>730</ele>
        <time>2024-08-14T15:46:37Z</time>
      </trkpt>
      <trkpt lat="45.0576" lon="6.03557">
        <ele>730</ele>
        <time>2024-08-14T15:46:38Z</time>
      </trkpt>
      <trkpt lat="45.0576" lon="6.03557">
        <ele>729.8</ele>
        <time>2024-08-14T15:46:39Z</time>
      </trkpt>
      <trkpt lat="45.0576" lon="6.03557">
        <ele>729.8</ele>
        <time>2024-08-14T15:46:40Z</time>
      </trkpt>
      <trkpt lat="45.05756" lon="6.03553">
        <ele>729.8</ele>
        <time>2024-08-14T15:46:41Z</time>
      </trkpt>
      <trkpt lat="45.05755" lon="6.03552">
        <ele>730</ele>
        <time>2024-08-14T15:46:42Z</time>
      </trkpt>
      <trkpt lat="45.05755" lon="6.03552">
        <ele>730</ele>
        <time>2024-08-14T15:46:43Z</time>
      </trkpt>
      <trkpt lat="45.05753" lon="6.0355">
        <ele>730</ele>
        <time>2024-08-14T15:46:44Z</time>
      </trkpt>
      <trkpt lat="45.05753" lon="6.0355">
        <ele>730</ele>
        <time>2024-08-14T15:46:45Z</time>
      </trkpt>
      <trkpt lat="45.05753" lon="6.0355">
        <ele>729.6</ele>
        <time>2024-08-14T15:46:46Z</time>
      </trkpt>
      <trkpt lat="45.05749" lon="6.03545">
        <ele>729.8</ele>
        <time>2024-08-14T15:46:47Z</time>
      </trkpt>
      <trkpt lat="45.05748" lon="6.03544">
        <ele>729.6</ele>
        <time>2024-08-14T15:46:48Z</time>
      </trkpt>
      <trkpt lat="45.05748" lon="6.03544">
        <ele>729.6</ele>
        <time>2024-08-14T15:46:49Z</time>
      </trkpt>
      <trkpt lat="45.05746" lon="6.03541">
        <ele>729.6</ele>
        <time>2024-08-14T15:46:50Z</time>
      </trkpt>
      <trkpt lat="45.05746" lon="6.03541">
        <ele>729.6</ele>
        <time>2024-08-14T15:46:51Z</time>
      </trkpt>
      <trkpt lat="45.05743" lon="6.03539">
        <ele>729.6</ele>
        <time>2024-08-14T15:46:52Z</time>
      </trkpt>
      <trkpt lat="45.05743" lon="6.03539">
        <ele>729.6</ele>
        <time>2024-08-14T15:46:53Z</time>
      </trkpt>
      <trkpt lat="45.05741" lon="6.03537">
        <ele>729.6</ele>
        <time>2024-08-14T15:46:54Z</time>
      </trkpt>
      <trkpt lat="45.05741" lon="6.03537">
        <ele>729.6</ele>
        <time>2024-08-14T15:46:55Z</time>
      </trkpt>
      <trkpt lat="45.05739" lon="6.03534">
        <ele>729.6</ele>
        <time>2024-08-14T15:46:56Z</time>
      </trkpt>
      <trkpt lat="45.05739" lon="6.03534">
        <ele>729.4</ele>
        <time>2024-08-14T15:46:57Z</time>
      </trkpt>
      <trkpt lat="45.05739" lon="6.03534">
        <ele>729.4</ele>
        <time>2024-08-14T15:46:58Z</time>
      </trkpt>
      <trkpt lat="45.05735" lon="6.0353">
        <ele>729.4</ele>
        <time>2024-08-14T15:46:59Z</time>
      </trkpt>
      <trkpt lat="45.05735" lon="6.03529">
        <ele>729.4</ele>
        <time>2024-08-14T15:47:00Z</time>
      </trkpt>
      <trkpt lat="45.05735" lon="6.03529">
        <ele>729.2</ele>
        <time>2024-08-14T15:47:01Z</time>
      </trkpt>
      <trkpt lat="45.05733" lon="6.03526">
        <ele>729.4</ele>
        <time>2024-08-14T15:47:02Z</time>
      </trkpt>
      <trkpt lat="45.05733" lon="6.03526">
        <ele>729.4</ele>
        <time>2024-08-14T15:47:03Z</time>
      </trkpt>
      <trkpt lat="45.05733" lon="6.03526">
        <ele>729.4</ele>
        <time>2024-08-14T15:47:04Z</time>
      </trkpt>
      <trkpt lat="45.05729" lon="6.03522">
        <ele>729.6</ele>
        <time>2024-08-14T15:47:05Z</time>
      </trkpt>
      <trkpt lat="45.05728" lon="6.03521">
        <ele>729.6</ele>
        <time>2024-08-14T15:47:06Z</time>
      </trkpt>
      <trkpt lat="45.05728" lon="6.03521">
        <ele>729.8</ele>
        <time>2024-08-14T15:47:07Z</time>
      </trkpt>
      <trkpt lat="45.05726" lon="6.03518">
        <ele>729.8</ele>
        <time>2024-08-14T15:47:08Z</time>
      </trkpt>
      <trkpt lat="45.05726" lon="6.03518">
        <ele>729.6</ele>
        <time>2024-08-14T15:47:09Z</time>
      </trkpt>
      <trkpt lat="45.05724" lon="6.03515">
        <ele>729.6</ele>
        <time>2024-08-14T15:47:10Z</time>
      </trkpt>
      <trkpt lat="45.05724" lon="6.03515">
        <ele>729.6</ele>
        <time>2024-08-14T15:47:11Z</time>
      </trkpt>
      <trkpt lat="45.05722" lon="6.03513">
        <ele>729.6</ele>
        <time>2024-08-14T15:47:12Z</time>
      </trkpt>
      <trkpt lat="45.05722" lon="6.03513">
        <ele>729.8</ele>
        <time>2024-08-14T15:47:13Z</time>
      </trkpt>
      <trkpt lat="45.05719" lon="6.0351">
        <ele>729.6</ele>
        <time>2024-08-14T15:47:14Z</time>
      </trkpt>
      <trkpt lat="45.05719" lon="6.0351">
        <ele>729.6</ele>
        <time>2024-08-14T15:47:15Z</time>
      </trkpt>
      <trkpt lat="45.05719" lon="6.0351">
        <ele>729.4</ele>
        <time>2024-08-14T15:47:16Z</time>
      </trkpt>
      <trkpt lat="45.05716" lon="6.03506">
        <ele>729.4</ele>
        <time>2024-08-14T15:47:17Z</time>
      </trkpt>
      <trkpt lat="45.05715" lon="6.03505">
        <ele>729.4</ele>
        <time>2024-08-14T15:47:18Z</time>
      </trkpt>
      <trkpt lat="45.05715" lon="6.03505">
        <ele>729.4</ele>
        <time>2024-08-14T15:47:19Z</time>
      </trkpt>
      <trkpt lat="45.05713" lon="6.03502">
        <ele>729.4</ele>
        <time>2024-08-14T15:47:20Z</time>
      </trkpt>
      <trkpt lat="45.05713" lon="6.03502">
        <ele>729.4</ele>
        <time>2024-08-14T15:47:21Z</time>
      </trkpt>
      <trkpt lat="45.05713" lon="6.03502">
        <ele>729.4</ele>
        <time>2024-08-14T15:47:22Z</time>
      </trkpt>
      <trkpt lat="45.0571" lon="6.03497">
        <ele>729.2</ele>
        <time>2024-08-14T15:47:23Z</time>
      </trkpt>
      <trkpt lat="45.05709" lon="6.03496">
        <ele>729.2</ele>
        <time>2024-08-14T15:47:24Z</time>
      </trkpt>
      <trkpt lat="45.05709" lon="6.03496">
        <ele>729.2</ele>
        <time>2024-08-14T15:47:25Z</time>
      </trkpt>
      <trkpt lat="45.05707" lon="6.03493">
        <ele>729.4</ele>
        <time>2024-08-14T15:47:26Z</time>
      </trkpt>
      <trkpt lat="45.05707" lon="6.03493">
        <ele>729.4</ele>
        <time>2024-08-14T15:47:27Z</time>
      </trkpt>
      <trkpt lat="45.05707" lon="6.03493">
        <ele>729.2</ele>
        <time>2024-08-14T15:47:28Z</time>
      </trkpt>
      <trkpt lat="45.05703" lon="6.03489">
        <ele>729.2</ele>
        <time>2024-08-14T15:47:29Z</time>
      </trkpt>
      <trkpt lat="45.05702" lon="6.03488">
        <ele>729.2</ele>
        <time>2024-08-14T15:47:30Z</time>
      </trkpt>
      <trkpt lat="45.05702" lon="6.03488">
        <ele>729</ele>
        <time>2024-08-14T15:47:31Z</time>
      </trkpt>
      <trkpt lat="45.057" lon="6.03485">
        <ele>729</ele>
        <time>2024-08-14T15:47:32Z</time>
      </trkpt>
      <trkpt lat="45.057" lon="6.03485">
        <ele>729.2</ele>
        <time>2024-08-14T15:47:33Z</time>
      </trkpt>
      <trkpt lat="45.057" lon="6.03485">
        <ele>729.2</ele>
        <time>2024-08-14T15:47:34Z</time>
      </trkpt>
      <trkpt lat="45.05697" lon="6.03482">
        <ele>729.2</ele>
        <time>2024-08-14T15:47:35Z</time>
      </trkpt>
      <trkpt lat="45.05695" lon="6.0348">
        <ele>729</ele>
        <time>2024-08-14T15:47:36Z</time>
      </trkpt>
      <trkpt lat="45.05695" lon="6.0348">
        <ele>728.6</ele>
        <time>2024-08-14T15:47:37Z</time>
      </trkpt>
      <trkpt lat="45.05693" lon="6.03477">
        <ele>728.8</ele>
        <time>2024-08-14T15:47:38Z</time>
      </trkpt>
      <trkpt lat="45.05693" lon="6.03477">
        <ele>728.8</ele>
        <time>2024-08-14T15:47:39Z</time>
      </trkpt>
      <trkpt lat="45.05691" lon="6.03474">
        <ele>728.6</ele>
        <time>2024-08-14T15:47:40Z</time>
      </trkpt>
      <trkpt lat="45.05691" lon="6.03474">
        <ele>728.6</ele>
        <time>2024-08-14T15:47:41Z</time>
      </trkpt>
      <trkpt lat="45.05689" lon="6.03471">
        <ele>728.6</ele>
        <time>2024-08-14T15:47:42Z</time>
      </trkpt>
      <trkpt lat="45.05689" lon="6.03471">
        <ele>728.4</ele>
        <time>2024-08-14T15:47:43Z</time>
      </trkpt>
      <trkpt lat="45.05686" lon="6.03469">
        <ele>728.4</ele>
        <time>2024-08-14T15:47:44Z</time>
      </trkpt>
      <trkpt lat="45.05686" lon="6.03469">
        <ele>728.4</ele>
        <time>2024-08-14T15:47:45Z</time>
      </trkpt>
      <trkpt lat="45.05686" lon="6.03469">
        <ele>728.6</ele>
        <time>2024-08-14T15:47:46Z</time>
      </trkpt>
      <trkpt lat="45.05683" lon="6.03465">
        <ele>728.8</ele>
        <time>2024-08-14T15:47:47Z</time>
      </trkpt>
      <trkpt lat="45.05682" lon="6.03463">
        <ele>728.8</ele>
        <time>2024-08-14T15:47:48Z</time>
      </trkpt>
      <trkpt lat="45.05682" lon="6.03463">
        <ele>728.6</ele>
        <time>2024-08-14T15:47:49Z</time>
      </trkpt>
      <trkpt lat="45.0568" lon="6.0346">
        <ele>728.6</ele>
        <time>2024-08-14T15:47:50Z</time>
      </trkpt>
      <trkpt lat="45.0568" lon="6.0346">
        <ele>728.6</ele>
        <time>2024-08-14T15:47:51Z</time>
      </trkpt>
      <trkpt lat="45.0568" lon="6.0346">
        <ele>728.6</ele>
        <time>2024-08-14T15:47:52Z</time>
      </trkpt>
      <trkpt lat="45.05677" lon="6.03457">
        <ele>728.6</ele>
        <time>2024-08-14T15:47:53Z</time>
      </trkpt>
      <trkpt lat="45.05676" lon="6.03457">
        <ele>728.6</ele>
        <time>2024-08-14T15:47:54Z</time>
      </trkpt>
      <trkpt lat="45.05676" lon="6.03457">
        <ele>728.6</ele>
        <time>2024-08-14T15:47:55Z</time>
      </trkpt>
      <trkpt lat="45.05673" lon="6.03455">
        <ele>728.6</ele>
        <time>2024-08-14T15:47:56Z</time>
      </trkpt>
      <trkpt lat="45.05671" lon="6.03453">
        <ele>728.8</ele>
        <time>2024-08-14T15:47:57Z</time>
      </trkpt>
      <trkpt lat="45.05671" lon="6.03453">
        <ele>728.8</ele>
        <time>2024-08-14T15:47:58Z</time>
      </trkpt>
      <trkpt lat="45.05669" lon="6.0345">
        <ele>728.8</ele>
        <time>2024-08-14T15:47:59Z</time>
      </trkpt>
      <trkpt lat="45.05669" lon="6.0345">
        <ele>728.8</ele>
        <time>2024-08-14T15:48:00Z</time>
      </trkpt>
      <trkpt lat="45.05667" lon="6.03448">
        <ele>728.8</ele>
        <time>2024-08-14T15:48:01Z</time>
      </trkpt>
      <trkpt lat="45.05667" lon="6.03448">
        <ele>728.8</ele>
        <time>2024-08-14T15:48:02Z</time>
      </trkpt>
      <trkpt lat="45.05664" lon="6.03447">
        <ele>728.8</ele>
        <time>2024-08-14T15:48:03Z</time>
      </trkpt>
      <trkpt lat="45.05664" lon="6.03447">
        <ele>728.8</ele>
        <time>2024-08-14T15:48:04Z</time>
      </trkpt>
      <trkpt lat="45.05661" lon="6.03445">
        <ele>728.8</ele>
        <time>2024-08-14T15:48:05Z</time>
      </trkpt>
      <trkpt lat="45.05661" lon="6.03445">
        <ele>728.8</ele>
        <time>2024-08-14T15:48:06Z</time>
      </trkpt>
      <trkpt lat="45.05661" lon="6.03445">
        <ele>728.6</ele>
        <time>2024-08-14T15:48:07Z</time>
      </trkpt>
      <trkpt lat="45.05659" lon="6.0344">
        <ele>728.6</ele>
        <time>2024-08-14T15:48:08Z</time>
      </trkpt>
      <trkpt lat="45.05658" lon="6.03439">
        <ele>728.6</ele>
        <time>2024-08-14T15:48:09Z</time>
      </trkpt>
      <trkpt lat="45.05658" lon="6.03439">
        <ele>728.6</ele>
        <time>2024-08-14T15:48:10Z</time>
      </trkpt>
      <trkpt lat="45.05656" lon="6.03437">
        <ele>728.6</ele>
        <time>2024-08-14T15:48:11Z</time>
      </trkpt>
      <trkpt lat="45.05654" lon="6.03436">
        <ele>728.8</ele>
        <time>2024-08-14T15:48:12Z</time>
      </trkpt>
      <trkpt lat="45.05654" lon="6.03436">
        <ele>728.8</ele>
        <time>2024-08-14T15:48:13Z</time>
      </trkpt>
      <trkpt lat="45.05652" lon="6.03433">
        <ele>728.8</ele>
        <time>2024-08-14T15:48:14Z</time>
      </trkpt>
      <trkpt lat="45.05652" lon="6.03433">
        <ele>729</ele>
        <time>2024-08-14T15:48:15Z</time>
      </trkpt>
      <trkpt lat="45.0565" lon="6.03431">
        <ele>729</ele>
        <time>2024-08-14T15:48:16Z</time>
      </trkpt>
      <trkpt lat="45.0565" lon="6.03431">
        <ele>729</ele>
        <time>2024-08-14T15:48:17Z</time>
      </trkpt>
      <trkpt lat="45.05648" lon="6.03429">
        <ele>729</ele>
        <time>2024-08-14T15:48:18Z</time>
      </trkpt>
      <trkpt lat="45.05648" lon="6.03429">
        <ele>729</ele>
        <time>2024-08-14T15:48:19Z</time>
      </trkpt>
      <trkpt lat="45.05645" lon="6.03427">
        <ele>729.2</ele>
        <time>2024-08-14T15:48:20Z</time>
      </trkpt>
      <trkpt lat="45.05645" lon="6.03427">
        <ele>729.2</ele>
        <time>2024-08-14T15:48:21Z</time>
      </trkpt>
      <trkpt lat="45.05645" lon="6.03427">
        <ele>729.2</ele>
        <time>2024-08-14T15:48:22Z</time>
      </trkpt>
      <trkpt lat="45.05641" lon="6.03423">
        <ele>729.2</ele>
        <time>2024-08-14T15:48:23Z</time>
      </trkpt>
      <trkpt lat="45.0564" lon="6.03422">
        <ele>729.2</ele>
        <time>2024-08-14T15:48:24Z</time>
      </trkpt>
      <trkpt lat="45.0564" lon="6.03422">
        <ele>729.2</ele>
        <time>2024-08-14T15:48:25Z</time>
      </trkpt>
      <trkpt lat="45.05638" lon="6.03419">
        <ele>729.2</ele>
        <time>2024-08-14T15:48:26Z</time>
      </trkpt>
      <trkpt lat="45.05638" lon="6.03419">
        <ele>729.2</ele>
        <time>2024-08-14T15:48:27Z</time>
      </trkpt>
      <trkpt lat="45.05638" lon="6.03419">
        <ele>729.2</ele>
        <time>2024-08-14T15:48:28Z</time>
      </trkpt>
      <trkpt lat="45.05634" lon="6.03415">
        <ele>729.2</ele>
        <time>2024-08-14T15:48:29Z</time>
      </trkpt>
      <trkpt lat="45.05633" lon="6.03414">
        <ele>729.2</ele>
        <time>2024-08-14T15:48:30Z</time>
      </trkpt>
      <trkpt lat="45.05633" lon="6.03414">
        <ele>729.2</ele>
        <time>2024-08-14T15:48:31Z</time>
      </trkpt>
      <trkpt lat="45.0563" lon="6.03412">
        <ele>729.2</ele>
        <time>2024-08-14T15:48:32Z</time>
      </trkpt>
      <trkpt lat="45.0563" lon="6.03412">
        <ele>729</ele>
        <time>2024-08-14T15:48:33Z</time>
      </trkpt>
      <trkpt lat="45.0563" lon="6.03412">
        <ele>729</ele>
        <time>2024-08-14T15:48:34Z</time>
      </trkpt>
      <trkpt lat="45.05628" lon="6.03409">
        <ele>729</ele>
        <time>2024-08-14T15:48:35Z</time>
      </trkpt>
      <trkpt lat="45.05626" lon="6.03408">
        <ele>729</ele>
        <time>2024-08-14T15:48:36Z</time>
      </trkpt>
      <trkpt lat="45.05626" lon="6.03408">
        <ele>729</ele>
        <time>2024-08-14T15:48:37Z</time>
      </trkpt>
      <trkpt lat="45.05624" lon="6.03405">
        <ele>729.2</ele>
        <time>2024-08-14T15:48:38Z</time>
      </trkpt>
      <trkpt lat="45.05624" lon="6.03405">
        <ele>729.2</ele>
        <time>2024-08-14T15:48:39Z</time>
      </trkpt>
      <trkpt lat="45.05621" lon="6.03403">
        <ele>729.2</ele>
        <time>2024-08-14T15:48:40Z</time>
      </trkpt>
      <trkpt lat="45.05621" lon="6.03403">
        <ele>729.2</ele>
        <time>2024-08-14T15:48:41Z</time>
      </trkpt>
      <trkpt lat="45.0562" lon="6.03401">
        <ele>729.4</ele>
        <time>2024-08-14T15:48:42Z</time>
      </trkpt>
      <trkpt lat="45.0562" lon="6.03401">
        <ele>729.4</ele>
        <time>2024-08-14T15:48:43Z</time>
      </trkpt>
      <trkpt lat="45.05617" lon="6.03398">
        <ele>729.6</ele>
        <time>2024-08-14T15:48:44Z</time>
      </trkpt>
      <trkpt lat="45.05617" lon="6.03398">
        <ele>729.6</ele>
        <time>2024-08-14T15:48:45Z</time>
      </trkpt>
      <trkpt lat="45.05615" lon="6.03395">
        <ele>729.6</ele>
        <time>2024-08-14T15:48:46Z</time>
      </trkpt>
      <trkpt lat="45.05615" lon="6.03395">
        <ele>729.6</ele>
        <time>2024-08-14T15:48:47Z</time>
      </trkpt>
      <trkpt lat="45.05613" lon="6.03392">
        <ele>729.4</ele>
        <time>2024-08-14T15:48:48Z</time>
      </trkpt>
      <trkpt lat="45.05613" lon="6.03392">
        <ele>729.4</ele>
        <time>2024-08-14T15:48:49Z</time>
      </trkpt>
      <trkpt lat="45.05611" lon="6.0339">
        <ele>729.4</ele>
        <time>2024-08-14T15:48:50Z</time>
      </trkpt>
      <trkpt lat="45.05611" lon="6.0339">
        <ele>729.6</ele>
        <time>2024-08-14T15:48:51Z</time>
      </trkpt>
      <trkpt lat="45.05611" lon="6.0339">
        <ele>729.6</ele>
        <time>2024-08-14T15:48:52Z</time>
      </trkpt>
      <trkpt lat="45.05607" lon="6.03387">
        <ele>729.6</ele>
        <time>2024-08-14T15:48:53Z</time>
      </trkpt>
      <trkpt lat="45.05606" lon="6.03386">
        <ele>730.2</ele>
        <time>2024-08-14T15:48:54Z</time>
      </trkpt>
      <trkpt lat="45.05606" lon="6.03386">
        <ele>730.2</ele>
        <time>2024-08-14T15:48:55Z</time>
      </trkpt>
      <trkpt lat="45.05604" lon="6.03384">
        <ele>729.8</ele>
        <time>2024-08-14T15:48:56Z</time>
      </trkpt>
      <trkpt lat="45.05604" lon="6.03384">
        <ele>729.6</ele>
        <time>2024-08-14T15:48:57Z</time>
      </trkpt>
      <trkpt lat="45.05604" lon="6.03384">
        <ele>729.6</ele>
        <time>2024-08-14T15:48:58Z</time>
      </trkpt>
      <trkpt lat="45.056" lon="6.03381">
        <ele>729.6</ele>
        <time>2024-08-14T15:48:59Z</time>
      </trkpt>
      <trkpt lat="45.05599" lon="6.0338">
        <ele>729.6</ele>
        <time>2024-08-14T15:49:00Z</time>
      </trkpt>
      <trkpt lat="45.05599" lon="6.0338">
        <ele>729.8</ele>
        <time>2024-08-14T15:49:01Z</time>
      </trkpt>
      <trkpt lat="45.05597" lon="6.03377">
        <ele>729.8</ele>
        <time>2024-08-14T15:49:02Z</time>
      </trkpt>
      <trkpt lat="45.05596" lon="6.03376">
        <ele>729.8</ele>
        <time>2024-08-14T15:49:03Z</time>
      </trkpt>
      <trkpt lat="45.05596" lon="6.03376">
        <ele>729.8</ele>
        <time>2024-08-14T15:49:04Z</time>
      </trkpt>
      <trkpt lat="45.05595" lon="6.03373">
        <ele>729.8</ele>
        <time>2024-08-14T15:49:05Z</time>
      </trkpt>
      <trkpt lat="45.05593" lon="6.03372">
        <ele>729.8</ele>
        <time>2024-08-14T15:49:06Z</time>
      </trkpt>
      <trkpt lat="45.05593" lon="6.03372">
        <ele>729.8</ele>
        <time>2024-08-14T15:49:07Z</time>
      </trkpt>
      <trkpt lat="45.05592" lon="6.03368">
        <ele>729.8</ele>
        <time>2024-08-14T15:49:08Z</time>
      </trkpt>
      <trkpt lat="45.05592" lon="6.03368">
        <ele>729.8</ele>
        <time>2024-08-14T15:49:09Z</time>
      </trkpt>
      <trkpt lat="45.05592" lon="6.03368">
        <ele>729.8</ele>
        <time>2024-08-14T15:49:10Z</time>
      </trkpt>
      <trkpt lat="45.05589" lon="6.03363">
        <ele>730</ele>
        <time>2024-08-14T15:49:11Z</time>
      </trkpt>
      <trkpt lat="45.05588" lon="6.03362">
        <ele>730</ele>
        <time>2024-08-14T15:49:12Z</time>
      </trkpt>
      <trkpt lat="45.05588" lon="6.03362">
        <ele>730</ele>
        <time>2024-08-14T15:49:13Z</time>
      </trkpt>
      <trkpt lat="45.05587" lon="6.0336">
        <ele>730</ele>
        <time>2024-08-14T15:49:14Z</time>
      </trkpt>
      <trkpt lat="45.05587" lon="6.0336">
        <ele>730</ele>
        <time>2024-08-14T15:49:15Z</time>
      </trkpt>
      <trkpt lat="45.05587" lon="6.0336">
        <ele>730</ele>
        <time>2024-08-14T15:49:16Z</time>
      </trkpt>
      <trkpt lat="45.05583" lon="6.03356">
        <ele>730</ele>
        <time>2024-08-14T15:49:17Z</time>
      </trkpt>
      <trkpt lat="45.05582" lon="6.03355">
        <ele>730</ele>
        <time>2024-08-14T15:49:18Z</time>
      </trkpt>
      <trkpt lat="45.05582" lon="6.03355">
        <ele>730</ele>
        <time>2024-08-14T15:49:19Z</time>
      </trkpt>
      <trkpt lat="45.05579" lon="6.03353">
        <ele>730</ele>
        <time>2024-08-14T15:49:20Z</time>
      </trkpt>
      <trkpt lat="45.05579" lon="6.03353">
        <ele>730</ele>
        <time>2024-08-14T15:49:21Z</time>
      </trkpt>
      <trkpt lat="45.05579" lon="6.03353">
        <ele>730</ele>
        <time>2024-08-14T15:49:22Z</time>
      </trkpt>
      <trkpt lat="45.05576" lon="6.03349">
        <ele>730</ele>
        <time>2024-08-14T15:49:23Z</time>
      </trkpt>
      <trkpt lat="45.05575" lon="6.03348">
        <ele>729.6</ele>
        <time>2024-08-14T15:49:24Z</time>
      </trkpt>
      <trkpt lat="45.05575" lon="6.03348">
        <ele>729.8</ele>
        <time>2024-08-14T15:49:25Z</time>
      </trkpt>
      <trkpt lat="45.05573" lon="6.03346">
        <ele>730</ele>
        <time>2024-08-14T15:49:26Z</time>
      </trkpt>
      <trkpt lat="45.05573" lon="6.03346">
        <ele>730.2</ele>
        <time>2024-08-14T15:49:27Z</time>
      </trkpt>
      <trkpt lat="45.05573" lon="6.03346">
        <ele>730.2</ele>
        <time>2024-08-14T15:49:28Z</time>
      </trkpt>
      <trkpt lat="45.05569" lon="6.03342">
        <ele>730.4</ele>
        <time>2024-08-14T15:49:29Z</time>
      </trkpt>
      <trkpt lat="45.05568" lon="6.03341">
        <ele>730.4</ele>
        <time>2024-08-14T15:49:30Z</time>
      </trkpt>
      <trkpt lat="45.05568" lon="6.03341">
        <ele>730.4</ele>
        <time>2024-08-14T15:49:31Z</time>
      </trkpt>
      <trkpt lat="45.05566" lon="6.03338">
        <ele>730.6</ele>
        <time>2024-08-14T15:49:32Z</time>
      </trkpt>
      <trkpt lat="45.05566" lon="6.03338">
        <ele>730.6</ele>
        <time>2024-08-14T15:49:33Z</time>
      </trkpt>
      <trkpt lat="45.05566" lon="6.03338">
        <ele>730.6</ele>
        <time>2024-08-14T15:49:34Z</time>
      </trkpt>
      <trkpt lat="45.05563" lon="6.03333">
        <ele>730.6</ele>
        <time>2024-08-14T15:49:35Z</time>
      </trkpt>
      <trkpt lat="45.05562" lon="6.03332">
        <ele>730.8</ele>
        <time>2024-08-14T15:49:36Z</time>
      </trkpt>
      <trkpt lat="45.05562" lon="6.03332">
        <ele>730.8</ele>
        <time>2024-08-14T15:49:37Z</time>
      </trkpt>
      <trkpt lat="45.05559" lon="6.03329">
        <ele>730.8</ele>
        <time>2024-08-14T15:49:38Z</time>
      </trkpt>
      <trkpt lat="45.05559" lon="6.03329">
        <ele>730.8</ele>
        <time>2024-08-14T15:49:39Z</time>
      </trkpt>
      <trkpt lat="45.05559" lon="6.03329">
        <ele>730.6</ele>
        <time>2024-08-14T15:49:40Z</time>
      </trkpt>
      <trkpt lat="45.05556" lon="6.03325">
        <ele>730.6</ele>
        <time>2024-08-14T15:49:41Z</time>
      </trkpt>
      <trkpt lat="45.05554" lon="6.03324">
        <ele>730.8</ele>
        <time>2024-08-14T15:49:42Z</time>
      </trkpt>
      <trkpt lat="45.05554" lon="6.03324">
        <ele>730.8</ele>
        <time>2024-08-14T15:49:43Z</time>
      </trkpt>
      <trkpt lat="45.05552" lon="6.03321">
        <ele>730.8</ele>
        <time>2024-08-14T15:49:44Z</time>
      </trkpt>
      <trkpt lat="45.05552" lon="6.03321">
        <ele>730.4</ele>
        <time>2024-08-14T15:49:45Z</time>
      </trkpt>
      <trkpt lat="45.05549" lon="6.03319">
        <ele>730.4</ele>
        <time>2024-08-14T15:49:46Z</time>
      </trkpt>
      <trkpt lat="45.05549" lon="6.03319">
        <ele>730.4</ele>
        <time>2024-08-14T15:49:47Z</time>
      </trkpt>
      <trkpt lat="45.05547" lon="6.03317">
        <ele>730.4</ele>
        <time>2024-08-14T15:49:48Z</time>
      </trkpt>
      <trkpt lat="45.05547" lon="6.03317">
        <ele>730.4</ele>
        <time>2024-08-14T15:49:49Z</time>
      </trkpt>
      <trkpt lat="45.05545" lon="6.03314">
        <ele>730.4</ele>
        <time>2024-08-14T15:49:50Z</time>
      </trkpt>
      <trkpt lat="45.05545" lon="6.03314">
        <ele>730.4</ele>
        <time>2024-08-14T15:49:51Z</time>
      </trkpt>
      <trkpt lat="45.05543" lon="6.03312">
        <ele>730.4</ele>
        <time>2024-08-14T15:49:52Z</time>
      </trkpt>
      <trkpt lat="45.05543" lon="6.03312">
        <ele>730.6</ele>
        <time>2024-08-14T15:49:53Z</time>
      </trkpt>
      <trkpt lat="45.05541" lon="6.03309">
        <ele>730.6</ele>
        <time>2024-08-14T15:49:54Z</time>
      </trkpt>
      <trkpt lat="45.05541" lon="6.03309">
        <ele>730.2</ele>
        <time>2024-08-14T15:49:55Z</time>
      </trkpt>
      <trkpt lat="45.05539" lon="6.03307">
        <ele>730.2</ele>
        <time>2024-08-14T15:49:56Z</time>
      </trkpt>
      <trkpt lat="45.05539" lon="6.03307">
        <ele>730.4</ele>
        <time>2024-08-14T15:49:57Z</time>
      </trkpt>
      <trkpt lat="45.05539" lon="6.03307">
        <ele>730.4</ele>
        <time>2024-08-14T15:49:58Z</time>
      </trkpt>
      <trkpt lat="45.05535" lon="6.03304">
        <ele>730.6</ele>
        <time>2024-08-14T15:49:59Z</time>
      </trkpt>
      <trkpt lat="45.05534" lon="6.03303">
        <ele>730.6</ele>
        <time>2024-08-14T15:50:00Z</time>
      </trkpt>
      <trkpt lat="45.05534" lon="6.03303">
        <ele>730.6</ele>
        <time>2024-08-14T15:50:01Z</time>
      </trkpt>
      <trkpt lat="45.05532" lon="6.033">
        <ele>730.6</ele>
        <time>2024-08-14T15:50:02Z</time>
      </trkpt>
      <trkpt lat="45.05532" lon="6.033">
        <ele>730.6</ele>
        <time>2024-08-14T15:50:03Z</time>
      </trkpt>
      <trkpt lat="45.0553" lon="6.03297">
        <ele>730.6</ele>
        <time>2024-08-14T15:50:04Z</time>
      </trkpt>
      <trkpt lat="45.0553" lon="6.03297">
        <ele>730.4</ele>
        <time>2024-08-14T15:50:05Z</time>
      </trkpt>
      <trkpt lat="45.05527" lon="6.03294">
        <ele>730.4</ele>
        <time>2024-08-14T15:50:06Z</time>
      </trkpt>
      <trkpt lat="45.05527" lon="6.03294">
        <ele>730.4</ele>
        <time>2024-08-14T15:50:07Z</time>
      </trkpt>
      <trkpt lat="45.05525" lon="6.03292">
        <ele>730.4</ele>
        <time>2024-08-14T15:50:08Z</time>
      </trkpt>
      <trkpt lat="45.05525" lon="6.03292">
        <ele>730.4</ele>
        <time>2024-08-14T15:50:09Z</time>
      </trkpt>
      <trkpt lat="45.05525" lon="6.03292">
        <ele>730.6</ele>
        <time>2024-08-14T15:50:10Z</time>
      </trkpt>
      <trkpt lat="45.05522" lon="6.03288">
        <ele>730.6</ele>
        <time>2024-08-14T15:50:11Z</time>
      </trkpt>
      <trkpt lat="45.05521" lon="6.03286">
        <ele>730.8</ele>
        <time>2024-08-14T15:50:12Z</time>
      </trkpt>
      <trkpt lat="45.05521" lon="6.03286">
        <ele>730.8</ele>
        <time>2024-08-14T15:50:13Z</time>
      </trkpt>
      <trkpt lat="45.05519" lon="6.03284">
        <ele>730.8</ele>
        <time>2024-08-14T15:50:14Z</time>
      </trkpt>
      <trkpt lat="45.05519" lon="6.03284">
        <ele>730.8</ele>
        <time>2024-08-14T15:50:15Z</time>
      </trkpt>
      <trkpt lat="45.05517" lon="6.03281">
        <ele>731</ele>
        <time>2024-08-14T15:50:16Z</time>
      </trkpt>
      <trkpt lat="45.05517" lon="6.03281">
        <ele>731</ele>
        <time>2024-08-14T15:50:17Z</time>
      </trkpt>
      <trkpt lat="45.05515" lon="6.03278">
        <ele>730.8</ele>
        <time>2024-08-14T15:50:18Z</time>
      </trkpt>
      <trkpt lat="45.05515" lon="6.03278">
        <ele>730.8</ele>
        <time>2024-08-14T15:50:19Z</time>
      </trkpt>
      <trkpt lat="45.05513" lon="6.03276">
        <ele>730.6</ele>
        <time>2024-08-14T15:50:20Z</time>
      </trkpt>
      <trkpt lat="45.05513" lon="6.03276">
        <ele>730.6</ele>
        <time>2024-08-14T15:50:21Z</time>
      </trkpt>
      <trkpt lat="45.05513" lon="6.03276">
        <ele>730.8</ele>
        <time>2024-08-14T15:50:22Z</time>
      </trkpt>
      <trkpt lat="45.0551" lon="6.03272">
        <ele>730.6</ele>
        <time>2024-08-14T15:50:23Z</time>
      </trkpt>
      <trkpt lat="45.05509" lon="6.0327">
        <ele>730.6</ele>
        <time>2024-08-14T15:50:24Z</time>
      </trkpt>
      <trkpt lat="45.05509" lon="6.0327">
        <ele>730.6</ele>
        <time>2024-08-14T15:50:25Z</time>
      </trkpt>
      <trkpt lat="45.05507" lon="6.03268">
        <ele>730.8</ele>
        <time>2024-08-14T15:50:26Z</time>
      </trkpt>
      <trkpt lat="45.05507" lon="6.03268">
        <ele>730.6</ele>
        <time>2024-08-14T15:50:27Z</time>
      </trkpt>
      <trkpt lat="45.05507" lon="6.03268">
        <ele>730.6</ele>
        <time>2024-08-14T15:50:28Z</time>
      </trkpt>
      <trkpt lat="45.05504" lon="6.03264">
        <ele>730.6</ele>
        <time>2024-08-14T15:50:29Z</time>
      </trkpt>
      <trkpt lat="45.05502" lon="6.03262">
        <ele>730.6</ele>
        <time>2024-08-14T15:50:30Z</time>
      </trkpt>
      <trkpt lat="45.05502" lon="6.03262">
        <ele>730.6</ele>
        <time>2024-08-14T15:50:31Z</time>
      </trkpt>
      <trkpt lat="45.05501" lon="6.03259">
        <ele>730.8</ele>
        <time>2024-08-14T15:50:32Z</time>
      </trkpt>
      <trkpt lat="45.05501" lon="6.03259">
        <ele>730.8</ele>
        <time>2024-08-14T15:50:33Z</time>
      </trkpt>
      <trkpt lat="45.05501" lon="6.03259">
        <ele>730.8</ele>
        <time>2024-08-14T15:50:34Z</time>
      </trkpt>
      <trkpt lat="45.05498" lon="6.03254">
        <ele>731</ele>
        <time>2024-08-14T15:50:35Z</time>
      </trkpt>
      <trkpt lat="45.05497" lon="6.03253">
        <ele>731</ele>
        <time>2024-08-14T15:50:36Z</time>
      </trkpt>
      <trkpt lat="45.05497" lon="6.03253">
        <ele>730.8</ele>
        <time>2024-08-14T15:50:37Z</time>
      </trkpt>
      <trkpt lat="45.05496" lon="6.03249">
        <ele>730.8</ele>
        <time>2024-08-14T15:50:38Z</time>
      </trkpt>
      <trkpt lat="45.05496" lon="6.03249">
        <ele>731</ele>
        <time>2024-08-14T15:50:39Z</time>
      </trkpt>
      <trkpt lat="45.05494" lon="6.03245">
        <ele>731</ele>
        <time>2024-08-14T15:50:40Z</time>
      </trkpt>
      <trkpt lat="45.05494" lon="6.03245">
        <ele>731</ele>
        <time>2024-08-14T15:50:41Z</time>
      </trkpt>
      <trkpt lat="45.05493" lon="6.03242">
        <ele>730.8</ele>
        <time>2024-08-14T15:50:42Z</time>
      </trkpt>
      <trkpt lat="45.05493" lon="6.03242">
        <ele>730.8</ele>
        <time>2024-08-14T15:50:43Z</time>
      </trkpt>
      <trkpt lat="45.05492" lon="6.03238">
        <ele>730.8</ele>
        <time>2024-08-14T15:50:44Z</time>
      </trkpt>
      <trkpt lat="45.05492" lon="6.03238">
        <ele>731</ele>
        <time>2024-08-14T15:50:45Z</time>
      </trkpt>
      <trkpt lat="45.05491" lon="6.03235">
        <ele>731</ele>
        <time>2024-08-14T15:50:46Z</time>
      </trkpt>
      <trkpt lat="45.05491" lon="6.03235">
        <ele>731.2</ele>
        <time>2024-08-14T15:50:47Z</time>
      </trkpt>
      <trkpt lat="45.05489" lon="6.03231">
        <ele>731.2</ele>
        <time>2024-08-14T15:50:48Z</time>
      </trkpt>
      <trkpt lat="45.05489" lon="6.03231">
        <ele>731.2</ele>
        <time>2024-08-14T15:50:49Z</time>
      </trkpt>
      <trkpt lat="45.05488" lon="6.03228">
        <ele>731.4</ele>
        <time>2024-08-14T15:50:50Z</time>
      </trkpt>
      <trkpt lat="45.05488" lon="6.03228">
        <ele>731.4</ele>
        <time>2024-08-14T15:50:51Z</time>
      </trkpt>
      <trkpt lat="45.05488" lon="6.03228">
        <ele>731.4</ele>
        <time>2024-08-14T15:50:52Z</time>
      </trkpt>
      <trkpt lat="45.05487" lon="6.03222">
        <ele>731.2</ele>
        <time>2024-08-14T15:50:53Z</time>
      </trkpt>
      <trkpt lat="45.05487" lon="6.0322">
        <ele>731.2</ele>
        <time>2024-08-14T15:50:54Z</time>
      </trkpt>
      <trkpt lat="45.05487" lon="6.0322">
        <ele>731.6</ele>
        <time>2024-08-14T15:50:55Z</time>
      </trkpt>
      <trkpt lat="45.05486" lon="6.03217">
        <ele>731.8</ele>
        <time>2024-08-14T15:50:56Z</time>
      </trkpt>
      <trkpt lat="45.05485" lon="6.03215">
        <ele>731.8</ele>
        <time>2024-08-14T15:50:57Z</time>
      </trkpt>
      <trkpt lat="45.05485" lon="6.03215">
        <ele>731.8</ele>
        <time>2024-08-14T15:50:58Z</time>
      </trkpt>
      <trkpt lat="45.05485" lon="6.03211">
        <ele>731.6</ele>
        <time>2024-08-14T15:50:59Z</time>
      </trkpt>
      <trkpt lat="45.05485" lon="6.03211">
        <ele>731.6</ele>
        <time>2024-08-14T15:51:00Z</time>
      </trkpt>
      <trkpt lat="45.05483" lon="6.03208">
        <ele>731.6</ele>
        <time>2024-08-14T15:51:01Z</time>
      </trkpt>
      <trkpt lat="45.05483" lon="6.03208">
        <ele>731.8</ele>
        <time>2024-08-14T15:51:02Z</time>
      </trkpt>
      <trkpt lat="45.05482" lon="6.03204">
        <ele>731.8</ele>
        <time>2024-08-14T15:51:03Z</time>
      </trkpt>
      <trkpt lat="45.05482" lon="6.03204">
        <ele>731.8</ele>
        <time>2024-08-14T15:51:04Z</time>
      </trkpt>
      <trkpt lat="45.0548" lon="6.03201">
        <ele>731.6</ele>
        <time>2024-08-14T15:51:05Z</time>
      </trkpt>
      <trkpt lat="45.0548" lon="6.03201">
        <ele>731.6</ele>
        <time>2024-08-14T15:51:06Z</time>
      </trkpt>
      <trkpt lat="45.0548" lon="6.03201">
        <ele>731.8</ele>
        <time>2024-08-14T15:51:07Z</time>
      </trkpt>
      <trkpt lat="45.05477" lon="6.03197">
        <ele>731.8</ele>
        <time>2024-08-14T15:51:08Z</time>
      </trkpt>
      <trkpt lat="45.05477" lon="6.03197">
        <ele>732</ele>
        <time>2024-08-14T15:51:09Z</time>
      </trkpt>
      <trkpt lat="45.05477" lon="6.03197">
        <ele>732</ele>
        <time>2024-08-14T15:51:10Z</time>
      </trkpt>
      <trkpt lat="45.05475" lon="6.03196">
        <ele>732</ele>
        <time>2024-08-14T15:51:11Z</time>
      </trkpt>
      <trkpt lat="45.05473" lon="6.03196">
        <ele>732.2</ele>
        <time>2024-08-14T15:51:12Z</time>
      </trkpt>
      <trkpt lat="45.05472" lon="6.03196">
        <ele>732.2</ele>
        <time>2024-08-14T15:51:13Z</time>
      </trkpt>
      <trkpt lat="45.0547" lon="6.03196">
        <ele>732.4</ele>
        <time>2024-08-14T15:51:14Z</time>
      </trkpt>
      <trkpt lat="45.0547" lon="6.03196">
        <ele>732.4</ele>
        <time>2024-08-14T15:51:15Z</time>
      </trkpt>
      <trkpt lat="45.0547" lon="6.03196">
        <ele>732.4</ele>
        <time>2024-08-14T15:51:16Z</time>
      </trkpt>
      <trkpt lat="45.05467" lon="6.03193">
        <ele>732.2</ele>
        <time>2024-08-14T15:51:17Z</time>
      </trkpt>
      <trkpt lat="45.05465" lon="6.03192">
        <ele>732.2</ele>
        <time>2024-08-14T15:51:18Z</time>
      </trkpt>
      <trkpt lat="45.05465" lon="6.03192">
        <ele>732</ele>
        <time>2024-08-14T15:51:19Z</time>
      </trkpt>
      <trkpt lat="45.05464" lon="6.03189">
        <ele>732</ele>
        <time>2024-08-14T15:51:20Z</time>
      </trkpt>
      <trkpt lat="45.05464" lon="6.03189">
        <ele>732</ele>
        <time>2024-08-14T15:51:21Z</time>
      </trkpt>
      <trkpt lat="45.05464" lon="6.03189">
        <ele>732</ele>
        <time>2024-08-14T15:51:22Z</time>
      </trkpt>
      <trkpt lat="45.05464" lon="6.03186">
        <ele>732</ele>
        <time>2024-08-14T15:51:23Z</time>
      </trkpt>
      <trkpt lat="45.05464" lon="6.03186">
        <ele>732</ele>
        <time>2024-08-14T15:51:24Z</time>
      </trkpt>
      <trkpt lat="45.05464" lon="6.03186">
        <ele>732.2</ele>
        <time>2024-08-14T15:51:25Z</time>
      </trkpt>
      <trkpt lat="45.05464" lon="6.03183">
        <ele>732.2</ele>
        <time>2024-08-14T15:51:26Z</time>
      </trkpt>
      <trkpt lat="45.05464" lon="6.03183">
        <ele>732.2</ele>
        <time>2024-08-14T15:51:27Z</time>
      </trkpt>
      <trkpt lat="45.05464" lon="6.03183">
        <ele>732.4</ele>
        <time>2024-08-14T15:51:28Z</time>
      </trkpt>
      <trkpt lat="45.05464" lon="6.03183">
        <ele>732.8</ele>
        <time>2024-08-14T15:51:29Z</time>
      </trkpt>
      <trkpt lat="45.05464" lon="6.03183">
        <ele>732.8</ele>
        <time>2024-08-14T15:51:30Z</time>
      </trkpt>
      <trkpt lat="45.05464" lon="6.03183">
        <ele>732.6</ele>
        <time>2024-08-14T15:51:31Z</time>
      </trkpt>
      <trkpt lat="45.05464" lon="6.03183">
        <ele>732.6</ele>
        <time>2024-08-14T15:51:32Z</time>
      </trkpt>
      <trkpt lat="45.05464" lon="6.03183">
        <ele>732.4</ele>
        <time>2024-08-14T15:51:33Z</time>
      </trkpt>
      <trkpt lat="45.05464" lon="6.03183">
        <ele>732</ele>
        <time>2024-08-14T15:51:34Z</time>
      </trkpt>
      <trkpt lat="45.05464" lon="6.03183">
        <ele>732</ele>
        <time>2024-08-14T15:51:35Z</time>
      </trkpt>
      <trkpt lat="45.05467" lon="6.03183">
        <ele>732</ele>
        <time>2024-08-14T15:51:36Z</time>
      </trkpt>
      <trkpt lat="45.05467" lon="6.03183">
        <ele>732.2</ele>
        <time>2024-08-14T15:51:37Z</time>
      </trkpt>
      <trkpt lat="45.05467" lon="6.03183">
        <ele>732.4</ele>
        <time>2024-08-14T15:51:38Z</time>
      </trkpt>
      <trkpt lat="45.05467" lon="6.03183">
        <ele>732.4</ele>
        <time>2024-08-14T15:51:39Z</time>
      </trkpt>
    </trkseg>
  </trk>
</gpx>